<?xml version="1.0" encoding="UTF-8"?>
<gpx creator="Garmin Connect" version="1.1"
  xsi:schemaLocation="http://www.topografix.com/GPX/1/1 http://www.topografix.com/GPX/11.xsd"
  xmlns:ns3="http://www.garmin.com/xmlschemas/TrackPointExtension/v1"
  xmlns="http://www.topografix.com/GPX/1/1"
  xmlns:xsi="http://www.w3.org/2001/XMLSchema-instance" xmlns:ns2="http://www.garmin.com/xmlschemas/GpxExtensions/v3">
  <metadata>
    <link href="connect.garmin.com">
      <text>Garmin Connect</text>
    </link>
    <time>2026-08-21T10:14:06.000Z</time>
  </metadata>
  <trk>
    <name>St-Augustin-de-Woburn Course à pied</name>
    <type>running</type>
    <trkseg>
      <trkpt lat="45.37406824529170989990234375" lon="-70.81107236444950103759765625">
        <ele>442.399993896484375</ele>
        <time>2026-08-21T10:14:06.000Z</time>
        <extensions>
          <ns3:TrackPointExtension>
            <ns3:hr>87</ns3:hr>
            <ns3:cad>0</ns3:cad>
          </ns3:TrackPointExtension>
        </extensions>
      </trkpt>
      <trkpt lat="45.37406832911074161529541015625" lon="-70.81107244826853275299072265625">
        <ele>442.399993896484375</ele>
        <time>2026-08-21T10:14:07.000Z</time>
        <extensions>
          <ns3:TrackPointExtension>
            <ns3:hr>87</ns3:hr>
            <ns3:cad>0</ns3:cad>
          </ns3:TrackPointExtension>
        </extensions>
      </trkpt>
      <trkpt lat="45.37406832911074161529541015625" lon="-70.81107244826853275299072265625">
        <ele>442.399993896484375</ele>
        <time>2026-08-21T10:14:08.000Z</time>
        <extensions>
          <ns3:TrackPointExtension>
            <ns3:hr>88</ns3:hr>
            <ns3:cad>0</ns3:cad>
          </ns3:TrackPointExtension>
        </extensions>
      </trkpt>
      <trkpt lat="45.37406832911074161529541015625" lon="-70.81107244826853275299072265625">
        <ele>442.399993896484375</ele>
        <time>2026-08-21T10:14:09.000Z</time>
        <extensions>
          <ns3:TrackPointExtension>
            <ns3:hr>89</ns3:hr>
            <ns3:cad>0</ns3:cad>
          </ns3:TrackPointExtension>
        </extensions>
      </trkpt>
      <trkpt lat="45.37406832911074161529541015625" lon="-70.81107244826853275299072265625">
        <ele>442.399993896484375</ele>
        <time>2026-08-21T10:14:10.000Z</time>
        <extensions>
          <ns3:TrackPointExtension>
            <ns3:hr>90</ns3:hr>
            <ns3:cad>0</ns3:cad>
          </ns3:TrackPointExtension>
        </extensions>
      </trkpt>
      <trkpt lat="45.37406832911074161529541015625" lon="-70.81107244826853275299072265625">
        <ele>442.399993896484375</ele>
        <time>2026-08-21T10:14:11.000Z</time>
        <extensions>
          <ns3:TrackPointExtension>
            <ns3:hr>90</ns3:hr>
            <ns3:cad>0</ns3:cad>
          </ns3:TrackPointExtension>
        </extensions>
      </trkpt>
      <trkpt lat="45.3740633837878704071044921875" lon="-70.81106700003147125244140625">
        <ele>442.399993896484375</ele>
        <time>2026-08-21T10:14:12.000Z</time>
        <extensions>
          <ns3:TrackPointExtension>
            <ns3:hr>90</ns3:hr>
            <ns3:cad>0</ns3:cad>
          </ns3:TrackPointExtension>
        </extensions>
      </trkpt>
      <trkpt lat="45.37405257113277912139892578125" lon="-70.8110695146024227142333984375">
        <ele>442.399993896484375</ele>
        <time>2026-08-21T10:14:13.000Z</time>
        <extensions>
          <ns3:TrackPointExtension>
            <ns3:hr>90</ns3:hr>
            <ns3:cad>0</ns3:cad>
          </ns3:TrackPointExtension>
        </extensions>
      </trkpt>
      <trkpt lat="45.37404435686767101287841796875" lon="-70.811073370277881622314453125">
        <ele>442.399993896484375</ele>
        <time>2026-08-21T10:14:14.000Z</time>
        <extensions>
          <ns3:TrackPointExtension>
            <ns3:hr>90</ns3:hr>
            <ns3:cad>79</ns3:cad>
          </ns3:TrackPointExtension>
        </extensions>
      </trkpt>
      <trkpt lat="45.37403379566967487335205078125" lon="-70.81107798032462596893310546875">
        <ele>442.600006103515625</ele>
        <time>2026-08-21T10:14:15.000Z</time>
        <extensions>
          <ns3:TrackPointExtension>
            <ns3:hr>90</ns3:hr>
            <ns3:cad>0</ns3:cad>
          </ns3:TrackPointExtension>
        </extensions>
      </trkpt>
      <trkpt lat="45.37402390502393245697021484375" lon="-70.8110795728862285614013671875">
        <ele>442.79998779296875</ele>
        <time>2026-08-21T10:14:16.000Z</time>
        <extensions>
          <ns3:TrackPointExtension>
            <ns3:hr>90</ns3:hr>
            <ns3:cad>0</ns3:cad>
          </ns3:TrackPointExtension>
        </extensions>
      </trkpt>
      <trkpt lat="45.37401384674012660980224609375" lon="-70.81108150072395801544189453125">
        <ele>442.79998779296875</ele>
        <time>2026-08-21T10:14:17.000Z</time>
        <extensions>
          <ns3:TrackPointExtension>
            <ns3:hr>90</ns3:hr>
            <ns3:cad>47</ns3:cad>
          </ns3:TrackPointExtension>
        </extensions>
      </trkpt>
      <trkpt lat="45.37400194443762302398681640625" lon="-70.811083428561687469482421875">
        <ele>443</ele>
        <time>2026-08-21T10:14:18.000Z</time>
        <extensions>
          <ns3:TrackPointExtension>
            <ns3:hr>89</ns3:hr>
            <ns3:cad>47</ns3:cad>
          </ns3:TrackPointExtension>
        </extensions>
      </trkpt>
      <trkpt lat="45.373989455401897430419921875" lon="-70.811086781322956085205078125">
        <ele>443</ele>
        <time>2026-08-21T10:14:19.000Z</time>
        <extensions>
          <ns3:TrackPointExtension>
            <ns3:hr>89</ns3:hr>
            <ns3:cad>48</ns3:cad>
          </ns3:TrackPointExtension>
        </extensions>
      </trkpt>
      <trkpt lat="45.373977720737457275390625" lon="-70.81109088845551013946533203125">
        <ele>443.20001220703125</ele>
        <time>2026-08-21T10:14:20.000Z</time>
        <extensions>
          <ns3:TrackPointExtension>
            <ns3:hr>89</ns3:hr>
            <ns3:cad>48</ns3:cad>
          </ns3:TrackPointExtension>
        </extensions>
      </trkpt>
      <trkpt lat="45.37396523170173168182373046875" lon="-70.81109742633998394012451171875">
        <ele>443.20001220703125</ele>
        <time>2026-08-21T10:14:21.000Z</time>
        <extensions>
          <ns3:TrackPointExtension>
            <ns3:hr>89</ns3:hr>
            <ns3:cad>48</ns3:cad>
          </ns3:TrackPointExtension>
        </extensions>
      </trkpt>
      <trkpt lat="45.37395416758954524993896484375" lon="-70.81109960563480854034423828125">
        <ele>443.20001220703125</ele>
        <time>2026-08-21T10:14:22.000Z</time>
        <extensions>
          <ns3:TrackPointExtension>
            <ns3:hr>90</ns3:hr>
            <ns3:cad>50</ns3:cad>
          </ns3:TrackPointExtension>
        </extensions>
      </trkpt>
      <trkpt lat="45.37393975071609020233154296875" lon="-70.8111104182898998260498046875">
        <ele>443.399993896484375</ele>
        <time>2026-08-21T10:14:23.000Z</time>
        <extensions>
          <ns3:TrackPointExtension>
            <ns3:hr>89</ns3:hr>
            <ns3:cad>50</ns3:cad>
          </ns3:TrackPointExtension>
        </extensions>
      </trkpt>
      <trkpt lat="45.37392315454781055450439453125" lon="-70.81111335195600986480712890625">
        <ele>443.399993896484375</ele>
        <time>2026-08-21T10:14:24.000Z</time>
        <extensions>
          <ns3:TrackPointExtension>
            <ns3:hr>90</ns3:hr>
            <ns3:cad>50</ns3:cad>
          </ns3:TrackPointExtension>
        </extensions>
      </trkpt>
      <trkpt lat="45.37390622310340404510498046875" lon="-70.81111737526953220367431640625">
        <ele>443.399993896484375</ele>
        <time>2026-08-21T10:14:25.000Z</time>
        <extensions>
          <ns3:TrackPointExtension>
            <ns3:hr>90</ns3:hr>
            <ns3:cad>50</ns3:cad>
          </ns3:TrackPointExtension>
        </extensions>
      </trkpt>
      <trkpt lat="45.3738883696496486663818359375" lon="-70.81112173385918140411376953125">
        <ele>443.600006103515625</ele>
        <time>2026-08-21T10:14:26.000Z</time>
        <extensions>
          <ns3:TrackPointExtension>
            <ns3:hr>90</ns3:hr>
            <ns3:cad>51</ns3:cad>
          </ns3:TrackPointExtension>
        </extensions>
      </trkpt>
      <trkpt lat="45.3738722763955593109130859375" lon="-70.81112910993397235870361328125">
        <ele>443.600006103515625</ele>
        <time>2026-08-21T10:14:27.000Z</time>
        <extensions>
          <ns3:TrackPointExtension>
            <ns3:hr>90</ns3:hr>
            <ns3:cad>55</ns3:cad>
          </ns3:TrackPointExtension>
        </extensions>
      </trkpt>
      <trkpt lat="45.37385894916951656341552734375" lon="-70.81113548018038272857666015625">
        <ele>443.600006103515625</ele>
        <time>2026-08-21T10:14:28.000Z</time>
        <extensions>
          <ns3:TrackPointExtension>
            <ns3:hr>90</ns3:hr>
            <ns3:cad>55</ns3:cad>
          </ns3:TrackPointExtension>
        </extensions>
      </trkpt>
      <trkpt lat="45.37384050898253917694091796875" lon="-70.81113816238939762115478515625">
        <ele>443.79998779296875</ele>
        <time>2026-08-21T10:14:29.000Z</time>
        <extensions>
          <ns3:TrackPointExtension>
            <ns3:hr>91</ns3:hr>
            <ns3:cad>55</ns3:cad>
          </ns3:TrackPointExtension>
        </extensions>
      </trkpt>
      <trkpt lat="45.37382659502327442169189453125" lon="-70.8111427724361419677734375">
        <ele>443.79998779296875</ele>
        <time>2026-08-21T10:14:30.000Z</time>
        <extensions>
          <ns3:TrackPointExtension>
            <ns3:hr>91</ns3:hr>
            <ns3:cad>55</ns3:cad>
          </ns3:TrackPointExtension>
        </extensions>
      </trkpt>
      <trkpt lat="45.37381368689239025115966796875" lon="-70.81114671193063259124755859375">
        <ele>444</ele>
        <time>2026-08-21T10:14:31.000Z</time>
        <extensions>
          <ns3:TrackPointExtension>
            <ns3:hr>91</ns3:hr>
            <ns3:cad>56</ns3:cad>
          </ns3:TrackPointExtension>
        </extensions>
      </trkpt>
      <trkpt lat="45.3737975098192691802978515625" lon="-70.81115073524415493011474609375">
        <ele>444</ele>
        <time>2026-08-21T10:14:32.000Z</time>
        <extensions>
          <ns3:TrackPointExtension>
            <ns3:hr>91</ns3:hr>
            <ns3:cad>56</ns3:cad>
          </ns3:TrackPointExtension>
        </extensions>
      </trkpt>
      <trkpt lat="45.37378502078354358673095703125" lon="-70.811155848205089569091796875">
        <ele>444</ele>
        <time>2026-08-21T10:14:33.000Z</time>
        <extensions>
          <ns3:TrackPointExtension>
            <ns3:hr>92</ns3:hr>
            <ns3:cad>56</ns3:cad>
          </ns3:TrackPointExtension>
        </extensions>
      </trkpt>
      <trkpt lat="45.3737686760723590850830078125" lon="-70.8111637271940708160400390625">
        <ele>444</ele>
        <time>2026-08-21T10:14:34.000Z</time>
        <extensions>
          <ns3:TrackPointExtension>
            <ns3:hr>92</ns3:hr>
            <ns3:cad>56</ns3:cad>
          </ns3:TrackPointExtension>
        </extensions>
      </trkpt>
      <trkpt lat="45.373756103217601776123046875" lon="-70.81117118708789348602294921875">
        <ele>444.20001220703125</ele>
        <time>2026-08-21T10:14:35.000Z</time>
        <extensions>
          <ns3:TrackPointExtension>
            <ns3:hr>92</ns3:hr>
            <ns3:cad>56</ns3:cad>
          </ns3:TrackPointExtension>
        </extensions>
      </trkpt>
      <trkpt lat="45.3737442009150981903076171875" lon="-70.8111757971346378326416015625">
        <ele>444.20001220703125</ele>
        <time>2026-08-21T10:14:36.000Z</time>
        <extensions>
          <ns3:TrackPointExtension>
            <ns3:hr>93</ns3:hr>
            <ns3:cad>56</ns3:cad>
          </ns3:TrackPointExtension>
        </extensions>
      </trkpt>
      <trkpt lat="45.37373104132711887359619140625" lon="-70.811182670295238494873046875">
        <ele>444.20001220703125</ele>
        <time>2026-08-21T10:14:37.000Z</time>
        <extensions>
          <ns3:TrackPointExtension>
            <ns3:hr>93</ns3:hr>
            <ns3:cad>56</ns3:cad>
          </ns3:TrackPointExtension>
        </extensions>
      </trkpt>
      <trkpt lat="45.373718552291393280029296875" lon="-70.81119398586452007293701171875">
        <ele>444.20001220703125</ele>
        <time>2026-08-21T10:14:38.000Z</time>
        <extensions>
          <ns3:TrackPointExtension>
            <ns3:hr>93</ns3:hr>
            <ns3:cad>56</ns3:cad>
          </ns3:TrackPointExtension>
        </extensions>
      </trkpt>
      <trkpt lat="45.37370488978922367095947265625" lon="-70.8111959137022495269775390625">
        <ele>444.399993896484375</ele>
        <time>2026-08-21T10:14:39.000Z</time>
        <extensions>
          <ns3:TrackPointExtension>
            <ns3:hr>94</ns3:hr>
            <ns3:cad>56</ns3:cad>
          </ns3:TrackPointExtension>
        </extensions>
      </trkpt>
      <trkpt lat="45.3736905567348003387451171875" lon="-70.8112056367099285125732421875">
        <ele>444.399993896484375</ele>
        <time>2026-08-21T10:14:40.000Z</time>
        <extensions>
          <ns3:TrackPointExtension>
            <ns3:hr>94</ns3:hr>
            <ns3:cad>56</ns3:cad>
          </ns3:TrackPointExtension>
        </extensions>
      </trkpt>
      <trkpt lat="45.37368007935583591461181640625" lon="-70.8112106658518314361572265625">
        <ele>444.399993896484375</ele>
        <time>2026-08-21T10:14:41.000Z</time>
        <extensions>
          <ns3:TrackPointExtension>
            <ns3:hr>94</ns3:hr>
            <ns3:cad>55</ns3:cad>
          </ns3:TrackPointExtension>
        </extensions>
      </trkpt>
      <trkpt lat="45.373665578663349151611328125" lon="-70.81121678464114665985107421875">
        <ele>444.399993896484375</ele>
        <time>2026-08-21T10:14:42.000Z</time>
        <extensions>
          <ns3:TrackPointExtension>
            <ns3:hr>95</ns3:hr>
            <ns3:cad>55</ns3:cad>
          </ns3:TrackPointExtension>
        </extensions>
      </trkpt>
      <trkpt lat="45.37365292198956012725830078125" lon="-70.81121846102178096771240234375">
        <ele>444.600006103515625</ele>
        <time>2026-08-21T10:14:43.000Z</time>
        <extensions>
          <ns3:TrackPointExtension>
            <ns3:hr>95</ns3:hr>
            <ns3:cad>55</ns3:cad>
          </ns3:TrackPointExtension>
        </extensions>
      </trkpt>
      <trkpt lat="45.37364311516284942626953125" lon="-70.811222232878208160400390625">
        <ele>444.600006103515625</ele>
        <time>2026-08-21T10:14:44.000Z</time>
        <extensions>
          <ns3:TrackPointExtension>
            <ns3:hr>95</ns3:hr>
            <ns3:cad>55</ns3:cad>
          </ns3:TrackPointExtension>
        </extensions>
      </trkpt>
      <trkpt lat="45.3736292012035846710205078125" lon="-70.81122784875333309173583984375">
        <ele>444.600006103515625</ele>
        <time>2026-08-21T10:14:45.000Z</time>
        <extensions>
          <ns3:TrackPointExtension>
            <ns3:hr>96</ns3:hr>
            <ns3:cad>56</ns3:cad>
          </ns3:TrackPointExtension>
        </extensions>
      </trkpt>
      <trkpt lat="45.37361738272011280059814453125" lon="-70.811232961714267730712890625">
        <ele>444.79998779296875</ele>
        <time>2026-08-21T10:14:46.000Z</time>
        <extensions>
          <ns3:TrackPointExtension>
            <ns3:hr>96</ns3:hr>
            <ns3:cad>56</ns3:cad>
          </ns3:TrackPointExtension>
        </extensions>
      </trkpt>
      <trkpt lat="45.37360397167503833770751953125" lon="-70.8112393319606781005859375">
        <ele>444.79998779296875</ele>
        <time>2026-08-21T10:14:47.000Z</time>
        <extensions>
          <ns3:TrackPointExtension>
            <ns3:hr>97</ns3:hr>
            <ns3:cad>56</ns3:cad>
          </ns3:TrackPointExtension>
        </extensions>
      </trkpt>
      <trkpt lat="45.37358955480158329010009765625" lon="-70.81124478019773960113525390625">
        <ele>444.79998779296875</ele>
        <time>2026-08-21T10:14:48.000Z</time>
        <extensions>
          <ns3:TrackPointExtension>
            <ns3:hr>98</ns3:hr>
            <ns3:cad>54</ns3:cad>
          </ns3:TrackPointExtension>
        </extensions>
      </trkpt>
      <trkpt lat="45.37357362918555736541748046875" lon="-70.81125265918672084808349609375">
        <ele>444.79998779296875</ele>
        <time>2026-08-21T10:14:49.000Z</time>
        <extensions>
          <ns3:TrackPointExtension>
            <ns3:hr>99</ns3:hr>
            <ns3:cad>54</ns3:cad>
          </ns3:TrackPointExtension>
        </extensions>
      </trkpt>
      <trkpt lat="45.37355736829340457916259765625" lon="-70.8112609572708606719970703125">
        <ele>444.79998779296875</ele>
        <time>2026-08-21T10:14:50.000Z</time>
        <extensions>
          <ns3:TrackPointExtension>
            <ns3:hr>100</ns3:hr>
            <ns3:cad>55</ns3:cad>
          </ns3:TrackPointExtension>
        </extensions>
      </trkpt>
      <trkpt lat="45.3735391795635223388671875" lon="-70.8112693391740322113037109375">
        <ele>444.79998779296875</ele>
        <time>2026-08-21T10:14:51.000Z</time>
        <extensions>
          <ns3:TrackPointExtension>
            <ns3:hr>102</ns3:hr>
            <ns3:cad>55</ns3:cad>
          </ns3:TrackPointExtension>
        </extensions>
      </trkpt>
      <trkpt lat="45.373522080481052398681640625" lon="-70.81127797253429889678955078125">
        <ele>444.79998779296875</ele>
        <time>2026-08-21T10:14:52.000Z</time>
        <extensions>
          <ns3:TrackPointExtension>
            <ns3:hr>102</ns3:hr>
            <ns3:cad>56</ns3:cad>
          </ns3:TrackPointExtension>
        </extensions>
      </trkpt>
      <trkpt lat="45.3735031373798847198486328125" lon="-70.81128484569489955902099609375">
        <ele>444.79998779296875</ele>
        <time>2026-08-21T10:14:53.000Z</time>
        <extensions>
          <ns3:TrackPointExtension>
            <ns3:hr>103</ns3:hr>
            <ns3:cad>57</ns3:cad>
          </ns3:TrackPointExtension>
        </extensions>
      </trkpt>
      <trkpt lat="45.37348662503063678741455078125" lon="-70.81128652207553386688232421875">
        <ele>444.79998779296875</ele>
        <time>2026-08-21T10:14:54.000Z</time>
        <extensions>
          <ns3:TrackPointExtension>
            <ns3:hr>104</ns3:hr>
            <ns3:cad>57</ns3:cad>
          </ns3:TrackPointExtension>
        </extensions>
      </trkpt>
      <trkpt lat="45.373469106853008270263671875" lon="-70.8112931437790393829345703125">
        <ele>445</ele>
        <time>2026-08-21T10:14:55.000Z</time>
        <extensions>
          <ns3:TrackPointExtension>
            <ns3:hr>105</ns3:hr>
            <ns3:cad>57</ns3:cad>
          </ns3:TrackPointExtension>
        </extensions>
      </trkpt>
      <trkpt lat="45.373455025255680084228515625" lon="-70.81129708327353000640869140625">
        <ele>445</ele>
        <time>2026-08-21T10:14:56.000Z</time>
        <extensions>
          <ns3:TrackPointExtension>
            <ns3:hr>105</ns3:hr>
            <ns3:cad>57</ns3:cad>
          </ns3:TrackPointExtension>
        </extensions>
      </trkpt>
      <trkpt lat="45.373439602553844451904296875" lon="-70.81129901111125946044921875">
        <ele>445</ele>
        <time>2026-08-21T10:14:57.000Z</time>
        <extensions>
          <ns3:TrackPointExtension>
            <ns3:hr>106</ns3:hr>
            <ns3:cad>56</ns3:cad>
          </ns3:TrackPointExtension>
        </extensions>
      </trkpt>
      <trkpt lat="45.37342493422329425811767578125" lon="-70.8112995140254497528076171875">
        <ele>445</ele>
        <time>2026-08-21T10:14:58.000Z</time>
        <extensions>
          <ns3:TrackPointExtension>
            <ns3:hr>107</ns3:hr>
            <ns3:cad>56</ns3:cad>
          </ns3:TrackPointExtension>
        </extensions>
      </trkpt>
      <trkpt lat="45.373411439359188079833984375" lon="-70.81130244769155979156494140625">
        <ele>445</ele>
        <time>2026-08-21T10:14:59.000Z</time>
        <extensions>
          <ns3:TrackPointExtension>
            <ns3:hr>107</ns3:hr>
            <ns3:cad>56</ns3:cad>
          </ns3:TrackPointExtension>
        </extensions>
      </trkpt>
      <trkpt lat="45.3733985312283039093017578125" lon="-70.8113062195479869842529296875">
        <ele>445</ele>
        <time>2026-08-21T10:15:00.000Z</time>
        <extensions>
          <ns3:TrackPointExtension>
            <ns3:hr>107</ns3:hr>
            <ns3:cad>55</ns3:cad>
          </ns3:TrackPointExtension>
        </extensions>
      </trkpt>
      <trkpt lat="45.37338570691645145416259765625" lon="-70.81130496226251125335693359375">
        <ele>445</ele>
        <time>2026-08-21T10:15:01.000Z</time>
        <extensions>
          <ns3:TrackPointExtension>
            <ns3:hr>108</ns3:hr>
            <ns3:cad>55</ns3:cad>
          </ns3:TrackPointExtension>
        </extensions>
      </trkpt>
      <trkpt lat="45.37337246350944042205810546875" lon="-70.8113105781376361846923828125">
        <ele>445.20001220703125</ele>
        <time>2026-08-21T10:15:02.000Z</time>
        <extensions>
          <ns3:TrackPointExtension>
            <ns3:hr>108</ns3:hr>
            <ns3:cad>56</ns3:cad>
          </ns3:TrackPointExtension>
        </extensions>
      </trkpt>
      <trkpt lat="45.37336206994950771331787109375" lon="-70.8113162778317928314208984375">
        <ele>445.20001220703125</ele>
        <time>2026-08-21T10:15:03.000Z</time>
        <extensions>
          <ns3:TrackPointExtension>
            <ns3:hr>108</ns3:hr>
            <ns3:cad>56</ns3:cad>
          </ns3:TrackPointExtension>
        </extensions>
      </trkpt>
      <trkpt lat="45.37334815599024295806884765625" lon="-70.811321474611759185791015625">
        <ele>445.20001220703125</ele>
        <time>2026-08-21T10:15:04.000Z</time>
        <extensions>
          <ns3:TrackPointExtension>
            <ns3:hr>108</ns3:hr>
            <ns3:cad>55</ns3:cad>
          </ns3:TrackPointExtension>
        </extensions>
      </trkpt>
      <trkpt lat="45.3733324818313121795654296875" lon="-70.81132222898304462432861328125">
        <ele>445.399993896484375</ele>
        <time>2026-08-21T10:15:05.000Z</time>
        <extensions>
          <ns3:TrackPointExtension>
            <ns3:hr>108</ns3:hr>
            <ns3:cad>55</ns3:cad>
          </ns3:TrackPointExtension>
        </extensions>
      </trkpt>
      <trkpt lat="45.37331848405301570892333984375" lon="-70.8113213069736957550048828125">
        <ele>445.399993896484375</ele>
        <time>2026-08-21T10:15:06.000Z</time>
        <extensions>
          <ns3:TrackPointExtension>
            <ns3:hr>108</ns3:hr>
            <ns3:cad>55</ns3:cad>
          </ns3:TrackPointExtension>
        </extensions>
      </trkpt>
      <trkpt lat="45.37330515682697296142578125" lon="-70.81132457591593265533447265625">
        <ele>445.600006103515625</ele>
        <time>2026-08-21T10:15:07.000Z</time>
        <extensions>
          <ns3:TrackPointExtension>
            <ns3:hr>109</ns3:hr>
            <ns3:cad>54</ns3:cad>
          </ns3:TrackPointExtension>
        </extensions>
      </trkpt>
      <trkpt lat="45.373291075229644775390625" lon="-70.81132340244948863983154296875">
        <ele>445.600006103515625</ele>
        <time>2026-08-21T10:15:08.000Z</time>
        <extensions>
          <ns3:TrackPointExtension>
            <ns3:hr>110</ns3:hr>
            <ns3:cad>54</ns3:cad>
          </ns3:TrackPointExtension>
        </extensions>
      </trkpt>
      <trkpt lat="45.373276658356189727783203125" lon="-70.81132122315466403961181640625">
        <ele>445.600006103515625</ele>
        <time>2026-08-21T10:15:09.000Z</time>
        <extensions>
          <ns3:TrackPointExtension>
            <ns3:hr>111</ns3:hr>
            <ns3:cad>50</ns3:cad>
          </ns3:TrackPointExtension>
        </extensions>
      </trkpt>
      <trkpt lat="45.37325997836887836456298828125" lon="-70.81132315099239349365234375">
        <ele>445.79998779296875</ele>
        <time>2026-08-21T10:15:10.000Z</time>
        <extensions>
          <ns3:TrackPointExtension>
            <ns3:hr>111</ns3:hr>
            <ns3:cad>50</ns3:cad>
          </ns3:TrackPointExtension>
        </extensions>
      </trkpt>
      <trkpt lat="45.37324883043766021728515625" lon="-70.8113276772201061248779296875">
        <ele>445.79998779296875</ele>
        <time>2026-08-21T10:15:11.000Z</time>
        <extensions>
          <ns3:TrackPointExtension>
            <ns3:hr>111</ns3:hr>
            <ns3:cad>50</ns3:cad>
          </ns3:TrackPointExtension>
        </extensions>
      </trkpt>
      <trkpt lat="45.3732372634112834930419921875" lon="-70.81132977269589900970458984375">
        <ele>445.79998779296875</ele>
        <time>2026-08-21T10:15:12.000Z</time>
        <extensions>
          <ns3:TrackPointExtension>
            <ns3:hr>110</ns3:hr>
            <ns3:cad>53</ns3:cad>
          </ns3:TrackPointExtension>
        </extensions>
      </trkpt>
      <trkpt lat="45.37322326563298702239990234375" lon="-70.8113387413322925567626953125">
        <ele>446</ele>
        <time>2026-08-21T10:15:13.000Z</time>
        <extensions>
          <ns3:TrackPointExtension>
            <ns3:hr>110</ns3:hr>
            <ns3:cad>53</ns3:cad>
          </ns3:TrackPointExtension>
        </extensions>
      </trkpt>
      <trkpt lat="45.373207591474056243896484375" lon="-70.811345279216766357421875">
        <ele>446</ele>
        <time>2026-08-21T10:15:14.000Z</time>
        <extensions>
          <ns3:TrackPointExtension>
            <ns3:hr>110</ns3:hr>
            <ns3:cad>52</ns3:cad>
          </ns3:TrackPointExtension>
        </extensions>
      </trkpt>
      <trkpt lat="45.37319242022931575775146484375" lon="-70.81134905107319355010986328125">
        <ele>446.20001220703125</ele>
        <time>2026-08-21T10:15:15.000Z</time>
        <extensions>
          <ns3:TrackPointExtension>
            <ns3:hr>110</ns3:hr>
            <ns3:cad>52</ns3:cad>
          </ns3:TrackPointExtension>
        </extensions>
      </trkpt>
      <trkpt lat="45.37317481823265552520751953125" lon="-70.8113573491573333740234375">
        <ele>446.20001220703125</ele>
        <time>2026-08-21T10:15:16.000Z</time>
        <extensions>
          <ns3:TrackPointExtension>
            <ns3:hr>110</ns3:hr>
            <ns3:cad>52</ns3:cad>
          </ns3:TrackPointExtension>
        </extensions>
      </trkpt>
      <trkpt lat="45.37315956316888332366943359375" lon="-70.81136606633663177490234375">
        <ele>446.399993896484375</ele>
        <time>2026-08-21T10:15:17.000Z</time>
        <extensions>
          <ns3:TrackPointExtension>
            <ns3:hr>110</ns3:hr>
            <ns3:cad>52</ns3:cad>
          </ns3:TrackPointExtension>
        </extensions>
      </trkpt>
      <trkpt lat="45.37314112298190593719482421875" lon="-70.81137771718204021453857421875">
        <ele>446.399993896484375</ele>
        <time>2026-08-21T10:15:18.000Z</time>
        <extensions>
          <ns3:TrackPointExtension>
            <ns3:hr>109</ns3:hr>
            <ns3:cad>52</ns3:cad>
          </ns3:TrackPointExtension>
        </extensions>
      </trkpt>
      <trkpt lat="45.37312704138457775115966796875" lon="-70.81138207577168941497802734375">
        <ele>446.399993896484375</ele>
        <time>2026-08-21T10:15:19.000Z</time>
        <extensions>
          <ns3:TrackPointExtension>
            <ns3:hr>109</ns3:hr>
            <ns3:cad>55</ns3:cad>
          </ns3:TrackPointExtension>
        </extensions>
      </trkpt>
      <trkpt lat="45.3731111995875835418701171875" lon="-70.81138978712260723114013671875">
        <ele>446.600006103515625</ele>
        <time>2026-08-21T10:15:20.000Z</time>
        <extensions>
          <ns3:TrackPointExtension>
            <ns3:hr>109</ns3:hr>
            <ns3:cad>55</ns3:cad>
          </ns3:TrackPointExtension>
        </extensions>
      </trkpt>
      <trkpt lat="45.37309460341930389404296875" lon="-70.81140093505382537841796875">
        <ele>446.600006103515625</ele>
        <time>2026-08-21T10:15:21.000Z</time>
        <extensions>
          <ns3:TrackPointExtension>
            <ns3:hr>110</ns3:hr>
            <ns3:cad>54</ns3:cad>
          </ns3:TrackPointExtension>
        </extensions>
      </trkpt>
      <trkpt lat="45.373076163232326507568359375" lon="-70.81141694448888301849365234375">
        <ele>446.600006103515625</ele>
        <time>2026-08-21T10:15:22.000Z</time>
        <extensions>
          <ns3:TrackPointExtension>
            <ns3:hr>110</ns3:hr>
            <ns3:cad>54</ns3:cad>
          </ns3:TrackPointExtension>
        </extensions>
      </trkpt>
      <trkpt lat="45.37306216545403003692626953125" lon="-70.8114299364387989044189453125">
        <ele>446.79998779296875</ele>
        <time>2026-08-21T10:15:23.000Z</time>
        <extensions>
          <ns3:TrackPointExtension>
            <ns3:hr>110</ns3:hr>
            <ns3:cad>54</ns3:cad>
          </ns3:TrackPointExtension>
        </extensions>
      </trkpt>
      <trkpt lat="45.37304992787539958953857421875" lon="-70.81144141964614391326904296875">
        <ele>446.600006103515625</ele>
        <time>2026-08-21T10:15:24.000Z</time>
        <extensions>
          <ns3:TrackPointExtension>
            <ns3:hr>110</ns3:hr>
            <ns3:cad>54</ns3:cad>
          </ns3:TrackPointExtension>
        </extensions>
      </trkpt>
      <trkpt lat="45.373039953410625457763671875" lon="-70.81145080737769603729248046875">
        <ele>446.600006103515625</ele>
        <time>2026-08-21T10:15:25.000Z</time>
        <extensions>
          <ns3:TrackPointExtension>
            <ns3:hr>110</ns3:hr>
            <ns3:cad>54</ns3:cad>
          </ns3:TrackPointExtension>
        </extensions>
      </trkpt>
      <trkpt lat="45.373029895126819610595703125" lon="-70.81146061420440673828125">
        <ele>446.600006103515625</ele>
        <time>2026-08-21T10:15:26.000Z</time>
        <extensions>
          <ns3:TrackPointExtension>
            <ns3:hr>110</ns3:hr>
            <ns3:cad>56</ns3:cad>
          </ns3:TrackPointExtension>
        </extensions>
      </trkpt>
      <trkpt lat="45.37301790900528430938720703125" lon="-70.81146924756467342376708984375">
        <ele>446.600006103515625</ele>
        <time>2026-08-21T10:15:27.000Z</time>
        <extensions>
          <ns3:TrackPointExtension>
            <ns3:hr>110</ns3:hr>
            <ns3:cad>56</ns3:cad>
          </ns3:TrackPointExtension>
        </extensions>
      </trkpt>
      <trkpt lat="45.37300449796020984649658203125" lon="-70.81147863529622554779052734375">
        <ele>446.600006103515625</ele>
        <time>2026-08-21T10:15:28.000Z</time>
        <extensions>
          <ns3:TrackPointExtension>
            <ns3:hr>110</ns3:hr>
            <ns3:cad>56</ns3:cad>
          </ns3:TrackPointExtension>
        </extensions>
      </trkpt>
      <trkpt lat="45.3729955293238162994384765625" lon="-70.8114892803132534027099609375">
        <ele>446.79998779296875</ele>
        <time>2026-08-21T10:15:29.000Z</time>
        <extensions>
          <ns3:TrackPointExtension>
            <ns3:hr>110</ns3:hr>
            <ns3:cad>56</ns3:cad>
          </ns3:TrackPointExtension>
        </extensions>
      </trkpt>
      <trkpt lat="45.37298739887773990631103515625" lon="-70.8114953152835369110107421875">
        <ele>446.79998779296875</ele>
        <time>2026-08-21T10:15:30.000Z</time>
        <extensions>
          <ns3:TrackPointExtension>
            <ns3:hr>110</ns3:hr>
            <ns3:cad>56</ns3:cad>
          </ns3:TrackPointExtension>
        </extensions>
      </trkpt>
      <trkpt lat="45.372976250946521759033203125" lon="-70.81150663085281848907470703125">
        <ele>447</ele>
        <time>2026-08-21T10:15:31.000Z</time>
        <extensions>
          <ns3:TrackPointExtension>
            <ns3:hr>110</ns3:hr>
            <ns3:cad>56</ns3:cad>
          </ns3:TrackPointExtension>
        </extensions>
      </trkpt>
      <trkpt lat="45.3729705512523651123046875" lon="-70.81151870079338550567626953125">
        <ele>447</ele>
        <time>2026-08-21T10:15:32.000Z</time>
        <extensions>
          <ns3:TrackPointExtension>
            <ns3:hr>110</ns3:hr>
            <ns3:cad>56</ns3:cad>
          </ns3:TrackPointExtension>
        </extensions>
      </trkpt>
      <trkpt lat="45.3729643486440181732177734375" lon="-70.81152875907719135284423828125">
        <ele>447</ele>
        <time>2026-08-21T10:15:33.000Z</time>
        <extensions>
          <ns3:TrackPointExtension>
            <ns3:hr>110</ns3:hr>
            <ns3:cad>55</ns3:cad>
          </ns3:TrackPointExtension>
        </extensions>
      </trkpt>
      <trkpt lat="45.37296325899660587310791015625" lon="-70.811538062989711761474609375">
        <ele>447</ele>
        <time>2026-08-21T10:15:34.000Z</time>
        <extensions>
          <ns3:TrackPointExtension>
            <ns3:hr>110</ns3:hr>
            <ns3:cad>55</ns3:cad>
          </ns3:TrackPointExtension>
        </extensions>
      </trkpt>
      <trkpt lat="45.3729656897485256195068359375" lon="-70.81154367886483669281005859375">
        <ele>447.20001220703125</ele>
        <time>2026-08-21T10:15:35.000Z</time>
        <extensions>
          <ns3:TrackPointExtension>
            <ns3:hr>110</ns3:hr>
            <ns3:cad>55</ns3:cad>
          </ns3:TrackPointExtension>
        </extensions>
      </trkpt>
      <trkpt lat="45.37296845577657222747802734375" lon="-70.8115451037883758544921875">
        <ele>447.20001220703125</ele>
        <time>2026-08-21T10:15:36.000Z</time>
        <extensions>
          <ns3:TrackPointExtension>
            <ns3:hr>111</ns3:hr>
            <ns3:cad>0</ns3:cad>
          </ns3:TrackPointExtension>
        </extensions>
      </trkpt>
      <trkpt lat="45.37296585738658905029296875" lon="-70.811540074646472930908203125">
        <ele>447.20001220703125</ele>
        <time>2026-08-21T10:15:37.000Z</time>
        <extensions>
          <ns3:TrackPointExtension>
            <ns3:hr>111</ns3:hr>
            <ns3:cad>0</ns3:cad>
          </ns3:TrackPointExtension>
        </extensions>
      </trkpt>
      <trkpt lat="45.3729620017111301422119140625" lon="-70.811537392437458038330078125">
        <ele>447.20001220703125</ele>
        <time>2026-08-21T10:15:38.000Z</time>
        <extensions>
          <ns3:TrackPointExtension>
            <ns3:hr>111</ns3:hr>
            <ns3:cad>0</ns3:cad>
          </ns3:TrackPointExtension>
        </extensions>
      </trkpt>
      <trkpt lat="45.3729563020169734954833984375" lon="-70.81153345294296741485595703125">
        <ele>447.20001220703125</ele>
        <time>2026-08-21T10:15:39.000Z</time>
        <extensions>
          <ns3:TrackPointExtension>
            <ns3:hr>111</ns3:hr>
            <ns3:cad>0</ns3:cad>
          </ns3:TrackPointExtension>
        </extensions>
      </trkpt>
      <trkpt lat="45.37294917739927768707275390625" lon="-70.8115263283252716064453125">
        <ele>447.20001220703125</ele>
        <time>2026-08-21T10:15:40.000Z</time>
        <extensions>
          <ns3:TrackPointExtension>
            <ns3:hr>111</ns3:hr>
            <ns3:cad>0</ns3:cad>
          </ns3:TrackPointExtension>
        </extensions>
      </trkpt>
      <trkpt lat="45.3729425556957721710205078125" lon="-70.8115164376795291900634765625">
        <ele>447</ele>
        <time>2026-08-21T10:15:41.000Z</time>
        <extensions>
          <ns3:TrackPointExtension>
            <ns3:hr>110</ns3:hr>
            <ns3:cad>0</ns3:cad>
          </ns3:TrackPointExtension>
        </extensions>
      </trkpt>
      <trkpt lat="45.37293761037290096282958984375" lon="-70.81150881014764308929443359375">
        <ele>447</ele>
        <time>2026-08-21T10:15:42.000Z</time>
        <extensions>
          <ns3:TrackPointExtension>
            <ns3:hr>108</ns3:hr>
            <ns3:cad>0</ns3:cad>
          </ns3:TrackPointExtension>
        </extensions>
      </trkpt>
      <trkpt lat="45.37293023429811000823974609375" lon="-70.811497829854488372802734375">
        <ele>447</ele>
        <time>2026-08-21T10:15:43.000Z</time>
        <extensions>
          <ns3:TrackPointExtension>
            <ns3:hr>107</ns3:hr>
            <ns3:cad>48</ns3:cad>
          </ns3:TrackPointExtension>
        </extensions>
      </trkpt>
      <trkpt lat="45.3729221038520336151123046875" lon="-70.8114842511713504791259765625">
        <ele>447</ele>
        <time>2026-08-21T10:15:44.000Z</time>
        <extensions>
          <ns3:TrackPointExtension>
            <ns3:hr>107</ns3:hr>
            <ns3:cad>48</ns3:cad>
          </ns3:TrackPointExtension>
        </extensions>
      </trkpt>
      <trkpt lat="45.372917242348194122314453125" lon="-70.81147293560206890106201171875">
        <ele>447</ele>
        <time>2026-08-21T10:15:45.000Z</time>
        <extensions>
          <ns3:TrackPointExtension>
            <ns3:hr>107</ns3:hr>
            <ns3:cad>48</ns3:cad>
          </ns3:TrackPointExtension>
        </extensions>
      </trkpt>
      <trkpt lat="45.37291246466338634490966796875" lon="-70.811463296413421630859375">
        <ele>447</ele>
        <time>2026-08-21T10:15:46.000Z</time>
        <extensions>
          <ns3:TrackPointExtension>
            <ns3:hr>106</ns3:hr>
            <ns3:cad>48</ns3:cad>
          </ns3:TrackPointExtension>
        </extensions>
      </trkpt>
      <trkpt lat="45.37290592677891254425048828125" lon="-70.81145885400474071502685546875">
        <ele>447.20001220703125</ele>
        <time>2026-08-21T10:15:47.000Z</time>
        <extensions>
          <ns3:TrackPointExtension>
            <ns3:hr>107</ns3:hr>
            <ns3:cad>51</ns3:cad>
          </ns3:TrackPointExtension>
        </extensions>
      </trkpt>
      <trkpt lat="45.37289855070412158966064453125" lon="-70.81145499832928180694580078125">
        <ele>447.20001220703125</ele>
        <time>2026-08-21T10:15:48.000Z</time>
        <extensions>
          <ns3:TrackPointExtension>
            <ns3:hr>107</ns3:hr>
            <ns3:cad>51</ns3:cad>
          </ns3:TrackPointExtension>
        </extensions>
      </trkpt>
      <trkpt lat="45.372893773019313812255859375" lon="-70.81145726144313812255859375">
        <ele>447.20001220703125</ele>
        <time>2026-08-21T10:15:49.000Z</time>
        <extensions>
          <ns3:TrackPointExtension>
            <ns3:hr>107</ns3:hr>
            <ns3:cad>51</ns3:cad>
          </ns3:TrackPointExtension>
        </extensions>
      </trkpt>
      <trkpt lat="45.37288547493517398834228515625" lon="-70.8114570938050746917724609375">
        <ele>447.399993896484375</ele>
        <time>2026-08-21T10:15:50.000Z</time>
        <extensions>
          <ns3:TrackPointExtension>
            <ns3:hr>107</ns3:hr>
            <ns3:cad>50</ns3:cad>
          </ns3:TrackPointExtension>
        </extensions>
      </trkpt>
      <trkpt lat="45.37287457846105098724365234375" lon="-70.81145164556801319122314453125">
        <ele>447.399993896484375</ele>
        <time>2026-08-21T10:15:51.000Z</time>
        <extensions>
          <ns3:TrackPointExtension>
            <ns3:hr>106</ns3:hr>
            <ns3:cad>50</ns3:cad>
          </ns3:TrackPointExtension>
        </extensions>
      </trkpt>
      <trkpt lat="45.37286200560629367828369140625" lon="-70.8114513941109180450439453125">
        <ele>447.399993896484375</ele>
        <time>2026-08-21T10:15:52.000Z</time>
        <extensions>
          <ns3:TrackPointExtension>
            <ns3:hr>106</ns3:hr>
            <ns3:cad>50</ns3:cad>
          </ns3:TrackPointExtension>
        </extensions>
      </trkpt>
      <trkpt lat="45.37285462953150272369384765625" lon="-70.8114404976367950439453125">
        <ele>447.399993896484375</ele>
        <time>2026-08-21T10:15:53.000Z</time>
        <extensions>
          <ns3:TrackPointExtension>
            <ns3:hr>106</ns3:hr>
            <ns3:cad>50</ns3:cad>
          </ns3:TrackPointExtension>
        </extensions>
      </trkpt>
      <trkpt lat="45.37284239195287227630615234375" lon="-70.81143018789589405059814453125">
        <ele>447.600006103515625</ele>
        <time>2026-08-21T10:15:54.000Z</time>
        <extensions>
          <ns3:TrackPointExtension>
            <ns3:hr>106</ns3:hr>
            <ns3:cad>53</ns3:cad>
          </ns3:TrackPointExtension>
        </extensions>
      </trkpt>
      <trkpt lat="45.372836776077747344970703125" lon="-70.81142515875399112701416015625">
        <ele>447.600006103515625</ele>
        <time>2026-08-21T10:15:55.000Z</time>
        <extensions>
          <ns3:TrackPointExtension>
            <ns3:hr>106</ns3:hr>
            <ns3:cad>53</ns3:cad>
          </ns3:TrackPointExtension>
        </extensions>
      </trkpt>
      <trkpt lat="45.37282747216522693634033203125" lon="-70.8114168606698513031005859375">
        <ele>447.79998779296875</ele>
        <time>2026-08-21T10:15:56.000Z</time>
        <extensions>
          <ns3:TrackPointExtension>
            <ns3:hr>106</ns3:hr>
            <ns3:cad>53</ns3:cad>
          </ns3:TrackPointExtension>
        </extensions>
      </trkpt>
      <trkpt lat="45.3728176653385162353515625" lon="-70.811405293643474578857421875">
        <ele>448</ele>
        <time>2026-08-21T10:15:57.000Z</time>
        <extensions>
          <ns3:TrackPointExtension>
            <ns3:hr>107</ns3:hr>
            <ns3:cad>50</ns3:cad>
          </ns3:TrackPointExtension>
        </extensions>
      </trkpt>
      <trkpt lat="45.37280970253050327301025390625" lon="-70.81139716319739818572998046875">
        <ele>448.20001220703125</ele>
        <time>2026-08-21T10:15:58.000Z</time>
        <extensions>
          <ns3:TrackPointExtension>
            <ns3:hr>106</ns3:hr>
            <ns3:cad>50</ns3:cad>
          </ns3:TrackPointExtension>
        </extensions>
      </trkpt>
      <trkpt lat="45.37280023097991943359375" lon="-70.81139766611158847808837890625">
        <ele>448.399993896484375</ele>
        <time>2026-08-21T10:15:59.000Z</time>
        <extensions>
          <ns3:TrackPointExtension>
            <ns3:hr>106</ns3:hr>
            <ns3:cad>50</ns3:cad>
          </ns3:TrackPointExtension>
        </extensions>
      </trkpt>
      <trkpt lat="45.37278623320162296295166015625" lon="-70.81139079295098781585693359375">
        <ele>448.600006103515625</ele>
        <time>2026-08-21T10:16:00.000Z</time>
        <extensions>
          <ns3:TrackPointExtension>
            <ns3:hr>106</ns3:hr>
            <ns3:cad>48</ns3:cad>
          </ns3:TrackPointExtension>
        </extensions>
      </trkpt>
      <trkpt lat="45.3727734088897705078125" lon="-70.811383835971355438232421875">
        <ele>448.79998779296875</ele>
        <time>2026-08-21T10:16:01.000Z</time>
        <extensions>
          <ns3:TrackPointExtension>
            <ns3:hr>107</ns3:hr>
            <ns3:cad>48</ns3:cad>
          </ns3:TrackPointExtension>
        </extensions>
      </trkpt>
      <trkpt lat="45.3727662004530429840087890625" lon="-70.8113789744675159454345703125">
        <ele>448.79998779296875</ele>
        <time>2026-08-21T10:16:02.000Z</time>
        <extensions>
          <ns3:TrackPointExtension>
            <ns3:hr>107</ns3:hr>
            <ns3:cad>50</ns3:cad>
          </ns3:TrackPointExtension>
        </extensions>
      </trkpt>
      <trkpt lat="45.37276066839694976806640625" lon="-70.8113680779933929443359375">
        <ele>449</ele>
        <time>2026-08-21T10:16:03.000Z</time>
        <extensions>
          <ns3:TrackPointExtension>
            <ns3:hr>108</ns3:hr>
            <ns3:cad>50</ns3:cad>
          </ns3:TrackPointExtension>
        </extensions>
      </trkpt>
      <trkpt lat="45.3727519512176513671875" lon="-70.81135441549122333526611328125">
        <ele>449</ele>
        <time>2026-08-21T10:16:04.000Z</time>
        <extensions>
          <ns3:TrackPointExtension>
            <ns3:hr>108</ns3:hr>
            <ns3:cad>52</ns3:cad>
          </ns3:TrackPointExtension>
        </extensions>
      </trkpt>
      <trkpt lat="45.3727494366466999053955078125" lon="-70.811340250074863433837890625">
        <ele>449</ele>
        <time>2026-08-21T10:16:05.000Z</time>
        <extensions>
          <ns3:TrackPointExtension>
            <ns3:hr>109</ns3:hr>
            <ns3:cad>52</ns3:cad>
          </ns3:TrackPointExtension>
        </extensions>
      </trkpt>
      <trkpt lat="45.372747592628002166748046875" lon="-70.81132625229656696319580078125">
        <ele>449</ele>
        <time>2026-08-21T10:16:06.000Z</time>
        <extensions>
          <ns3:TrackPointExtension>
            <ns3:hr>110</ns3:hr>
            <ns3:cad>54</ns3:cad>
          </ns3:TrackPointExtension>
        </extensions>
      </trkpt>
      <trkpt lat="45.37274382077157497406005859375" lon="-70.811310745775699615478515625">
        <ele>449.20001220703125</ele>
        <time>2026-08-21T10:16:07.000Z</time>
        <extensions>
          <ns3:TrackPointExtension>
            <ns3:hr>111</ns3:hr>
            <ns3:cad>54</ns3:cad>
          </ns3:TrackPointExtension>
        </extensions>
      </trkpt>
      <trkpt lat="45.372745580971240997314453125" lon="-70.81129004247486591339111328125">
        <ele>449.20001220703125</ele>
        <time>2026-08-21T10:16:08.000Z</time>
        <extensions>
          <ns3:TrackPointExtension>
            <ns3:hr>112</ns3:hr>
            <ns3:cad>54</ns3:cad>
          </ns3:TrackPointExtension>
        </extensions>
      </trkpt>
      <trkpt lat="45.37274398840963840484619140625" lon="-70.81127227284014225006103515625">
        <ele>449.20001220703125</ele>
        <time>2026-08-21T10:16:09.000Z</time>
        <extensions>
          <ns3:TrackPointExtension>
            <ns3:hr>112</ns3:hr>
            <ns3:cad>53</ns3:cad>
          </ns3:TrackPointExtension>
        </extensions>
      </trkpt>
      <trkpt lat="45.37274315021932125091552734375" lon="-70.81125207245349884033203125">
        <ele>449.20001220703125</ele>
        <time>2026-08-21T10:16:10.000Z</time>
        <extensions>
          <ns3:TrackPointExtension>
            <ns3:hr>112</ns3:hr>
            <ns3:cad>53</ns3:cad>
          </ns3:TrackPointExtension>
        </extensions>
      </trkpt>
      <trkpt lat="45.3727434016764163970947265625" lon="-70.81123321317136287689208984375">
        <ele>449.20001220703125</ele>
        <time>2026-08-21T10:16:11.000Z</time>
        <extensions>
          <ns3:TrackPointExtension>
            <ns3:hr>113</ns3:hr>
            <ns3:cad>52</ns3:cad>
          </ns3:TrackPointExtension>
        </extensions>
      </trkpt>
      <trkpt lat="45.372731499373912811279296875" lon="-70.81119398586452007293701171875">
        <ele>449.399993896484375</ele>
        <time>2026-08-21T10:16:12.000Z</time>
        <extensions>
          <ns3:TrackPointExtension>
            <ns3:hr>113</ns3:hr>
            <ns3:cad>52</ns3:cad>
          </ns3:TrackPointExtension>
        </extensions>
      </trkpt>
      <trkpt lat="45.372731499373912811279296875" lon="-70.81119398586452007293701171875">
        <ele>449.399993896484375</ele>
        <time>2026-08-21T10:16:13.000Z</time>
        <extensions>
          <ns3:TrackPointExtension>
            <ns3:hr>113</ns3:hr>
            <ns3:cad>52</ns3:cad>
          </ns3:TrackPointExtension>
        </extensions>
      </trkpt>
      <trkpt lat="45.3727304935455322265625" lon="-70.81117353402078151702880859375">
        <ele>449.600006103515625</ele>
        <time>2026-08-21T10:16:14.000Z</time>
        <extensions>
          <ns3:TrackPointExtension>
            <ns3:hr>112</ns3:hr>
            <ns3:cad>52</ns3:cad>
          </ns3:TrackPointExtension>
        </extensions>
      </trkpt>
      <trkpt lat="45.372734181582927703857421875" lon="-70.81114168278872966766357421875">
        <ele>449.600006103515625</ele>
        <time>2026-08-21T10:16:15.000Z</time>
        <extensions>
          <ns3:TrackPointExtension>
            <ns3:hr>112</ns3:hr>
            <ns3:cad>52</ns3:cad>
          </ns3:TrackPointExtension>
        </extensions>
      </trkpt>
      <trkpt lat="45.372731499373912811279296875" lon="-70.8111188001930713653564453125">
        <ele>449.79998779296875</ele>
        <time>2026-08-21T10:16:16.000Z</time>
        <extensions>
          <ns3:TrackPointExtension>
            <ns3:hr>112</ns3:hr>
            <ns3:cad>52</ns3:cad>
          </ns3:TrackPointExtension>
        </extensions>
      </trkpt>
      <trkpt lat="45.372730828821659088134765625" lon="-70.81110027618706226348876953125">
        <ele>449.79998779296875</ele>
        <time>2026-08-21T10:16:17.000Z</time>
        <extensions>
          <ns3:TrackPointExtension>
            <ns3:hr>113</ns3:hr>
            <ns3:cad>52</ns3:cad>
          </ns3:TrackPointExtension>
        </extensions>
      </trkpt>
      <trkpt lat="45.37273510359227657318115234375" lon="-70.81108510494232177734375">
        <ele>449.79998779296875</ele>
        <time>2026-08-21T10:16:18.000Z</time>
        <extensions>
          <ns3:TrackPointExtension>
            <ns3:hr>114</ns3:hr>
            <ns3:cad>53</ns3:cad>
          </ns3:TrackPointExtension>
        </extensions>
      </trkpt>
      <trkpt lat="45.37273828871548175811767578125" lon="-70.81106507219374179840087890625">
        <ele>450</ele>
        <time>2026-08-21T10:16:19.000Z</time>
        <extensions>
          <ns3:TrackPointExtension>
            <ns3:hr>114</ns3:hr>
            <ns3:cad>53</ns3:cad>
          </ns3:TrackPointExtension>
        </extensions>
      </trkpt>
      <trkpt lat="45.372740887105464935302734375" lon="-70.81105224788188934326171875">
        <ele>450</ele>
        <time>2026-08-21T10:16:20.000Z</time>
        <extensions>
          <ns3:TrackPointExtension>
            <ns3:hr>114</ns3:hr>
            <ns3:cad>53</ns3:cad>
          </ns3:TrackPointExtension>
        </extensions>
      </trkpt>
      <trkpt lat="45.37274063564836978912353515625" lon="-70.8110403455793857574462890625">
        <ele>450.20001220703125</ele>
        <time>2026-08-21T10:16:21.000Z</time>
        <extensions>
          <ns3:TrackPointExtension>
            <ns3:hr>115</ns3:hr>
            <ns3:cad>54</ns3:cad>
          </ns3:TrackPointExtension>
        </extensions>
      </trkpt>
      <trkpt lat="45.372741222381591796875" lon="-70.8110255934298038482666015625">
        <ele>450.20001220703125</ele>
        <time>2026-08-21T10:16:22.000Z</time>
        <extensions>
          <ns3:TrackPointExtension>
            <ns3:hr>115</ns3:hr>
            <ns3:cad>54</ns3:cad>
          </ns3:TrackPointExtension>
        </extensions>
      </trkpt>
      <trkpt lat="45.3727417252957820892333984375" lon="-70.81101469695568084716796875">
        <ele>450.20001220703125</ele>
        <time>2026-08-21T10:16:23.000Z</time>
        <extensions>
          <ns3:TrackPointExtension>
            <ns3:hr>116</ns3:hr>
            <ns3:cad>53</ns3:cad>
          </ns3:TrackPointExtension>
        </extensions>
      </trkpt>
      <trkpt lat="45.372741222381591796875" lon="-70.810996592044830322265625">
        <ele>450.20001220703125</ele>
        <time>2026-08-21T10:16:24.000Z</time>
        <extensions>
          <ns3:TrackPointExtension>
            <ns3:hr>116</ns3:hr>
            <ns3:cad>53</ns3:cad>
          </ns3:TrackPointExtension>
        </extensions>
      </trkpt>
      <trkpt lat="45.3727410547435283660888671875" lon="-70.810984186828136444091796875">
        <ele>449.79998779296875</ele>
        <time>2026-08-21T10:16:25.000Z</time>
        <extensions>
          <ns3:TrackPointExtension>
            <ns3:hr>116</ns3:hr>
            <ns3:cad>53</ns3:cad>
          </ns3:TrackPointExtension>
        </extensions>
      </trkpt>
      <trkpt lat="45.3727454133331775665283203125" lon="-70.8109716139733791351318359375">
        <ele>449.600006103515625</ele>
        <time>2026-08-21T10:16:26.000Z</time>
        <extensions>
          <ns3:TrackPointExtension>
            <ns3:hr>116</ns3:hr>
            <ns3:cad>53</ns3:cad>
          </ns3:TrackPointExtension>
        </extensions>
      </trkpt>
      <trkpt lat="45.37275454960763454437255859375" lon="-70.8109551854431629180908203125">
        <ele>449.399993896484375</ele>
        <time>2026-08-21T10:16:27.000Z</time>
        <extensions>
          <ns3:TrackPointExtension>
            <ns3:hr>117</ns3:hr>
            <ns3:cad>53</ns3:cad>
          </ns3:TrackPointExtension>
        </extensions>
      </trkpt>
      <trkpt lat="45.37276075221598148345947265625" lon="-70.8109374158084392547607421875">
        <ele>449</ele>
        <time>2026-08-21T10:16:28.000Z</time>
        <extensions>
          <ns3:TrackPointExtension>
            <ns3:hr>116</ns3:hr>
            <ns3:cad>53</ns3:cad>
          </ns3:TrackPointExtension>
        </extensions>
      </trkpt>
      <trkpt lat="45.37275857292115688323974609375" lon="-70.81091419793665409088134765625">
        <ele>448.79998779296875</ele>
        <time>2026-08-21T10:16:29.000Z</time>
        <extensions>
          <ns3:TrackPointExtension>
            <ns3:hr>117</ns3:hr>
            <ns3:cad>53</ns3:cad>
          </ns3:TrackPointExtension>
        </extensions>
      </trkpt>
      <trkpt lat="45.3727613389492034912109375" lon="-70.81088888458907604217529296875">
        <ele>448.399993896484375</ele>
        <time>2026-08-21T10:16:30.000Z</time>
        <extensions>
          <ns3:TrackPointExtension>
            <ns3:hr>116</ns3:hr>
            <ns3:cad>64</ns3:cad>
          </ns3:TrackPointExtension>
        </extensions>
      </trkpt>
      <trkpt lat="45.3727635182440280914306640625" lon="-70.81086927093565464019775390625">
        <ele>448.20001220703125</ele>
        <time>2026-08-21T10:16:31.000Z</time>
        <extensions>
          <ns3:TrackPointExtension>
            <ns3:hr>116</ns3:hr>
            <ns3:cad>64</ns3:cad>
          </ns3:TrackPointExtension>
        </extensions>
      </trkpt>
      <trkpt lat="45.37276603281497955322265625" lon="-70.81085166893899440765380859375">
        <ele>448</ele>
        <time>2026-08-21T10:16:32.000Z</time>
        <extensions>
          <ns3:TrackPointExtension>
            <ns3:hr>116</ns3:hr>
            <ns3:cad>64</ns3:cad>
          </ns3:TrackPointExtension>
        </extensions>
      </trkpt>
      <trkpt lat="45.3727675415575504302978515625" lon="-70.8108291216194629669189453125">
        <ele>447.79998779296875</ele>
        <time>2026-08-21T10:16:33.000Z</time>
        <extensions>
          <ns3:TrackPointExtension>
            <ns3:hr>116</ns3:hr>
            <ns3:cad>57</ns3:cad>
          </ns3:TrackPointExtension>
        </extensions>
      </trkpt>
      <trkpt lat="45.372760333120822906494140625" lon="-70.81081395037472248077392578125">
        <ele>447.79998779296875</ele>
        <time>2026-08-21T10:16:34.000Z</time>
        <extensions>
          <ns3:TrackPointExtension>
            <ns3:hr>116</ns3:hr>
            <ns3:cad>57</ns3:cad>
          </ns3:TrackPointExtension>
        </extensions>
      </trkpt>
      <trkpt lat="45.37276041693985462188720703125" lon="-70.8107986114919185638427734375">
        <ele>447.79998779296875</ele>
        <time>2026-08-21T10:16:35.000Z</time>
        <extensions>
          <ns3:TrackPointExtension>
            <ns3:hr>117</ns3:hr>
            <ns3:cad>0</ns3:cad>
          </ns3:TrackPointExtension>
        </extensions>
      </trkpt>
      <trkpt lat="45.372754968702793121337890625" lon="-70.8107781596481800079345703125">
        <ele>448</ele>
        <time>2026-08-21T10:16:36.000Z</time>
        <extensions>
          <ns3:TrackPointExtension>
            <ns3:hr>118</ns3:hr>
            <ns3:cad>0</ns3:cad>
          </ns3:TrackPointExtension>
        </extensions>
      </trkpt>
      <trkpt lat="45.37274465896189212799072265625" lon="-70.81075946800410747528076171875">
        <ele>448.20001220703125</ele>
        <time>2026-08-21T10:16:37.000Z</time>
        <extensions>
          <ns3:TrackPointExtension>
            <ns3:hr>119</ns3:hr>
            <ns3:cad>0</ns3:cad>
          </ns3:TrackPointExtension>
        </extensions>
      </trkpt>
      <trkpt lat="45.37273384630680084228515625" lon="-70.81074555404484272003173828125">
        <ele>448.399993896484375</ele>
        <time>2026-08-21T10:16:38.000Z</time>
        <extensions>
          <ns3:TrackPointExtension>
            <ns3:hr>119</ns3:hr>
            <ns3:cad>0</ns3:cad>
          </ns3:TrackPointExtension>
        </extensions>
      </trkpt>
      <trkpt lat="45.372724793851375579833984375" lon="-70.8107308857142925262451171875">
        <ele>448.600006103515625</ele>
        <time>2026-08-21T10:16:39.000Z</time>
        <extensions>
          <ns3:TrackPointExtension>
            <ns3:hr>118</ns3:hr>
            <ns3:cad>0</ns3:cad>
          </ns3:TrackPointExtension>
        </extensions>
      </trkpt>
      <trkpt lat="45.3727209381759166717529296875" lon="-70.81072024069726467132568359375">
        <ele>448.79998779296875</ele>
        <time>2026-08-21T10:16:40.000Z</time>
        <extensions>
          <ns3:TrackPointExtension>
            <ns3:hr>115</ns3:hr>
            <ns3:cad>0</ns3:cad>
          </ns3:TrackPointExtension>
        </extensions>
      </trkpt>
      <trkpt lat="45.372714065015316009521484375" lon="-70.8107000403106212615966796875">
        <ele>449.20001220703125</ele>
        <time>2026-08-21T10:16:41.000Z</time>
        <extensions>
          <ns3:TrackPointExtension>
            <ns3:hr>114</ns3:hr>
            <ns3:cad>0</ns3:cad>
          </ns3:TrackPointExtension>
        </extensions>
      </trkpt>
      <trkpt lat="45.37271280772984027862548828125" lon="-70.8106839470565319061279296875">
        <ele>449.399993896484375</ele>
        <time>2026-08-21T10:16:42.000Z</time>
        <extensions>
          <ns3:TrackPointExtension>
            <ns3:hr>114</ns3:hr>
            <ns3:cad>53</ns3:cad>
          </ns3:TrackPointExtension>
        </extensions>
      </trkpt>
      <trkpt lat="45.37271180190145969390869140625" lon="-70.81067816354334354400634765625">
        <ele>449.399993896484375</ele>
        <time>2026-08-21T10:16:43.000Z</time>
        <extensions>
          <ns3:TrackPointExtension>
            <ns3:hr>113</ns3:hr>
            <ns3:cad>53</ns3:cad>
          </ns3:TrackPointExtension>
        </extensions>
      </trkpt>
      <trkpt lat="45.37270970642566680908203125" lon="-70.8106787502765655517578125">
        <ele>449.600006103515625</ele>
        <time>2026-08-21T10:16:44.000Z</time>
        <extensions>
          <ns3:TrackPointExtension>
            <ns3:hr>113</ns3:hr>
            <ns3:cad>0</ns3:cad>
          </ns3:TrackPointExtension>
        </extensions>
      </trkpt>
      <trkpt lat="45.37271029315888881683349609375" lon="-70.81067481078207492828369140625">
        <ele>449.600006103515625</ele>
        <time>2026-08-21T10:16:45.000Z</time>
        <extensions>
          <ns3:TrackPointExtension>
            <ns3:hr>113</ns3:hr>
            <ns3:cad>0</ns3:cad>
          </ns3:TrackPointExtension>
        </extensions>
      </trkpt>
      <trkpt lat="45.37271431647241115570068359375" lon="-70.81066223792731761932373046875">
        <ele>449.600006103515625</ele>
        <time>2026-08-21T10:16:46.000Z</time>
        <extensions>
          <ns3:TrackPointExtension>
            <ns3:hr>113</ns3:hr>
            <ns3:cad>0</ns3:cad>
          </ns3:TrackPointExtension>
        </extensions>
      </trkpt>
      <trkpt lat="45.3727175854146480560302734375" lon="-70.8106383495032787322998046875">
        <ele>449.600006103515625</ele>
        <time>2026-08-21T10:16:47.000Z</time>
        <extensions>
          <ns3:TrackPointExtension>
            <ns3:hr>113</ns3:hr>
            <ns3:cad>56</ns3:cad>
          </ns3:TrackPointExtension>
        </extensions>
      </trkpt>
      <trkpt lat="45.37272001616656780242919921875" lon="-70.810621418058872222900390625">
        <ele>449.600006103515625</ele>
        <time>2026-08-21T10:16:48.000Z</time>
        <extensions>
          <ns3:TrackPointExtension>
            <ns3:hr>113</ns3:hr>
            <ns3:cad>56</ns3:cad>
          </ns3:TrackPointExtension>
        </extensions>
      </trkpt>
      <trkpt lat="45.372720770537853240966796875" lon="-70.81060473807156085968017578125">
        <ele>449.600006103515625</ele>
        <time>2026-08-21T10:16:49.000Z</time>
        <extensions>
          <ns3:TrackPointExtension>
            <ns3:hr>113</ns3:hr>
            <ns3:cad>56</ns3:cad>
          </ns3:TrackPointExtension>
        </extensions>
      </trkpt>
      <trkpt lat="45.37272001616656780242919921875" lon="-70.81058646552264690399169921875">
        <ele>449.600006103515625</ele>
        <time>2026-08-21T10:16:50.000Z</time>
        <extensions>
          <ns3:TrackPointExtension>
            <ns3:hr>114</ns3:hr>
            <ns3:cad>55</ns3:cad>
          </ns3:TrackPointExtension>
        </extensions>
      </trkpt>
      <trkpt lat="45.3727206028997898101806640625" lon="-70.81057087518274784088134765625">
        <ele>449.79998779296875</ele>
        <time>2026-08-21T10:16:51.000Z</time>
        <extensions>
          <ns3:TrackPointExtension>
            <ns3:hr>114</ns3:hr>
            <ns3:cad>55</ns3:cad>
          </ns3:TrackPointExtension>
        </extensions>
      </trkpt>
      <trkpt lat="45.37272320128977298736572265625" lon="-70.81055578775703907012939453125">
        <ele>449.79998779296875</ele>
        <time>2026-08-21T10:16:52.000Z</time>
        <extensions>
          <ns3:TrackPointExtension>
            <ns3:hr>115</ns3:hr>
            <ns3:cad>55</ns3:cad>
          </ns3:TrackPointExtension>
        </extensions>
      </trkpt>
      <trkpt lat="45.37272236309945583343505859375" lon="-70.8105354197323322296142578125">
        <ele>450</ele>
        <time>2026-08-21T10:16:53.000Z</time>
        <extensions>
          <ns3:TrackPointExtension>
            <ns3:hr>115</ns3:hr>
            <ns3:cad>55</ns3:cad>
          </ns3:TrackPointExtension>
        </extensions>
      </trkpt>
      <trkpt lat="45.37272135727107524871826171875" lon="-70.8105089329183101654052734375">
        <ele>450</ele>
        <time>2026-08-21T10:16:54.000Z</time>
        <extensions>
          <ns3:TrackPointExtension>
            <ns3:hr>114</ns3:hr>
            <ns3:cad>55</ns3:cad>
          </ns3:TrackPointExtension>
        </extensions>
      </trkpt>
      <trkpt lat="45.37272403948009014129638671875" lon="-70.8104881457984447479248046875">
        <ele>450.399993896484375</ele>
        <time>2026-08-21T10:16:55.000Z</time>
        <extensions>
          <ns3:TrackPointExtension>
            <ns3:hr>114</ns3:hr>
            <ns3:cad>55</ns3:cad>
          </ns3:TrackPointExtension>
        </extensions>
      </trkpt>
      <trkpt lat="45.37272806279361248016357421875" lon="-70.81047230400145053863525390625">
        <ele>450.399993896484375</ele>
        <time>2026-08-21T10:16:56.000Z</time>
        <extensions>
          <ns3:TrackPointExtension>
            <ns3:hr>114</ns3:hr>
            <ns3:cad>53</ns3:cad>
          </ns3:TrackPointExtension>
        </extensions>
      </trkpt>
      <trkpt lat="45.37273443304002285003662109375" lon="-70.8104573003947734832763671875">
        <ele>450.600006103515625</ele>
        <time>2026-08-21T10:16:57.000Z</time>
        <extensions>
          <ns3:TrackPointExtension>
            <ns3:hr>114</ns3:hr>
            <ns3:cad>50</ns3:cad>
          </ns3:TrackPointExtension>
        </extensions>
      </trkpt>
      <trkpt lat="45.3727437369525432586669921875" lon="-70.81043961457908153533935546875">
        <ele>450.600006103515625</ele>
        <time>2026-08-21T10:16:58.000Z</time>
        <extensions>
          <ns3:TrackPointExtension>
            <ns3:hr>114</ns3:hr>
            <ns3:cad>50</ns3:cad>
          </ns3:TrackPointExtension>
        </extensions>
      </trkpt>
      <trkpt lat="45.372752286493778228759765625" lon="-70.8104257844388484954833984375">
        <ele>450.600006103515625</ele>
        <time>2026-08-21T10:16:59.000Z</time>
        <extensions>
          <ns3:TrackPointExtension>
            <ns3:hr>114</ns3:hr>
            <ns3:cad>53</ns3:cad>
          </ns3:TrackPointExtension>
        </extensions>
      </trkpt>
      <trkpt lat="45.37276376970112323760986328125" lon="-70.8104163967072963714599609375">
        <ele>450.600006103515625</ele>
        <time>2026-08-21T10:17:00.000Z</time>
        <extensions>
          <ns3:TrackPointExtension>
            <ns3:hr>115</ns3:hr>
            <ns3:cad>53</ns3:cad>
          </ns3:TrackPointExtension>
        </extensions>
      </trkpt>
      <trkpt lat="45.372779108583927154541015625" lon="-70.8104140497744083404541015625">
        <ele>450.600006103515625</ele>
        <time>2026-08-21T10:17:01.000Z</time>
        <extensions>
          <ns3:TrackPointExtension>
            <ns3:hr>115</ns3:hr>
            <ns3:cad>53</ns3:cad>
          </ns3:TrackPointExtension>
        </extensions>
      </trkpt>
      <trkpt lat="45.37279830314218997955322265625" lon="-70.8104143850505352020263671875">
        <ele>450.399993896484375</ele>
        <time>2026-08-21T10:17:02.000Z</time>
        <extensions>
          <ns3:TrackPointExtension>
            <ns3:hr>115</ns3:hr>
            <ns3:cad>53</ns3:cad>
          </ns3:TrackPointExtension>
        </extensions>
      </trkpt>
      <trkpt lat="45.37281163036823272705078125" lon="-70.810406506061553955078125">
        <ele>450.20001220703125</ele>
        <time>2026-08-21T10:17:03.000Z</time>
        <extensions>
          <ns3:TrackPointExtension>
            <ns3:hr>115</ns3:hr>
            <ns3:cad>58</ns3:cad>
          </ns3:TrackPointExtension>
        </extensions>
      </trkpt>
      <trkpt lat="45.37282680161297321319580078125" lon="-70.8103956095874309539794921875">
        <ele>450</ele>
        <time>2026-08-21T10:17:04.000Z</time>
        <extensions>
          <ns3:TrackPointExtension>
            <ns3:hr>115</ns3:hr>
            <ns3:cad>58</ns3:cad>
          </ns3:TrackPointExtension>
        </extensions>
      </trkpt>
      <trkpt lat="45.37283568643033504486083984375" lon="-70.81037876196205615997314453125">
        <ele>449.79998779296875</ele>
        <time>2026-08-21T10:17:05.000Z</time>
        <extensions>
          <ns3:TrackPointExtension>
            <ns3:hr>115</ns3:hr>
            <ns3:cad>58</ns3:cad>
          </ns3:TrackPointExtension>
        </extensions>
      </trkpt>
      <trkpt lat="45.3728433139622211456298828125" lon="-70.81035411916673183441162109375">
        <ele>449.399993896484375</ele>
        <time>2026-08-21T10:17:06.000Z</time>
        <extensions>
          <ns3:TrackPointExtension>
            <ns3:hr>115</ns3:hr>
            <ns3:cad>58</ns3:cad>
          </ns3:TrackPointExtension>
        </extensions>
      </trkpt>
      <trkpt lat="45.37284784018993377685546875" lon="-70.81033366732299327850341796875">
        <ele>449.20001220703125</ele>
        <time>2026-08-21T10:17:07.000Z</time>
        <extensions>
          <ns3:TrackPointExtension>
            <ns3:hr>116</ns3:hr>
            <ns3:cad>58</ns3:cad>
          </ns3:TrackPointExtension>
        </extensions>
      </trkpt>
      <trkpt lat="45.37285278551280498504638671875" lon="-70.81030986271798610687255859375">
        <ele>449</ele>
        <time>2026-08-21T10:17:08.000Z</time>
        <extensions>
          <ns3:TrackPointExtension>
            <ns3:hr>115</ns3:hr>
            <ns3:cad>56</ns3:cad>
          </ns3:TrackPointExtension>
        </extensions>
      </trkpt>
      <trkpt lat="45.37285395897924900054931640625" lon="-70.810287483036518096923828125">
        <ele>448.79998779296875</ele>
        <time>2026-08-21T10:17:09.000Z</time>
        <extensions>
          <ns3:TrackPointExtension>
            <ns3:hr>115</ns3:hr>
            <ns3:cad>56</ns3:cad>
          </ns3:TrackPointExtension>
        </extensions>
      </trkpt>
      <trkpt lat="45.37285362370312213897705078125" lon="-70.81026124767959117889404296875">
        <ele>448.600006103515625</ele>
        <time>2026-08-21T10:17:10.000Z</time>
        <extensions>
          <ns3:TrackPointExtension>
            <ns3:hr>115</ns3:hr>
            <ns3:cad>56</ns3:cad>
          </ns3:TrackPointExtension>
        </extensions>
      </trkpt>
      <trkpt lat="45.37284691818058490753173828125" lon="-70.81024046055972576141357421875">
        <ele>448.399993896484375</ele>
        <time>2026-08-21T10:17:11.000Z</time>
        <extensions>
          <ns3:TrackPointExtension>
            <ns3:hr>115</ns3:hr>
            <ns3:cad>0</ns3:cad>
          </ns3:TrackPointExtension>
        </extensions>
      </trkpt>
      <trkpt lat="45.3728419728577136993408203125" lon="-70.81022067926824092864990234375">
        <ele>448.20001220703125</ele>
        <time>2026-08-21T10:17:12.000Z</time>
        <extensions>
          <ns3:TrackPointExtension>
            <ns3:hr>115</ns3:hr>
            <ns3:cad>0</ns3:cad>
          </ns3:TrackPointExtension>
        </extensions>
      </trkpt>
      <trkpt lat="45.37283937446773052215576171875" lon="-70.81020441837608814239501953125">
        <ele>448</ele>
        <time>2026-08-21T10:17:13.000Z</time>
        <extensions>
          <ns3:TrackPointExtension>
            <ns3:hr>114</ns3:hr>
            <ns3:cad>53</ns3:cad>
          </ns3:TrackPointExtension>
        </extensions>
      </trkpt>
      <trkpt lat="45.3728352673351764678955078125" lon="-70.810188911855220794677734375">
        <ele>447.79998779296875</ele>
        <time>2026-08-21T10:17:14.000Z</time>
        <extensions>
          <ns3:TrackPointExtension>
            <ns3:hr>113</ns3:hr>
            <ns3:cad>53</ns3:cad>
          </ns3:TrackPointExtension>
        </extensions>
      </trkpt>
      <trkpt lat="45.372826717793941497802734375" lon="-70.8101649396121501922607421875">
        <ele>447.399993896484375</ele>
        <time>2026-08-21T10:17:15.000Z</time>
        <extensions>
          <ns3:TrackPointExtension>
            <ns3:hr>113</ns3:hr>
            <ns3:cad>55</ns3:cad>
          </ns3:TrackPointExtension>
        </extensions>
      </trkpt>
      <trkpt lat="45.3728185035288333892822265625" lon="-70.8101505227386951446533203125">
        <ele>447.20001220703125</ele>
        <time>2026-08-21T10:17:16.000Z</time>
        <extensions>
          <ns3:TrackPointExtension>
            <ns3:hr>113</ns3:hr>
            <ns3:cad>55</ns3:cad>
          </ns3:TrackPointExtension>
        </extensions>
      </trkpt>
      <trkpt lat="45.37281003780663013458251953125" lon="-70.81013417802751064300537109375">
        <ele>446.79998779296875</ele>
        <time>2026-08-21T10:17:17.000Z</time>
        <extensions>
          <ns3:TrackPointExtension>
            <ns3:hr>113</ns3:hr>
            <ns3:cad>55</ns3:cad>
          </ns3:TrackPointExtension>
        </extensions>
      </trkpt>
      <trkpt lat="45.37278824485838413238525390625" lon="-70.81012328155338764190673828125">
        <ele>446.399993896484375</ele>
        <time>2026-08-21T10:17:18.000Z</time>
        <extensions>
          <ns3:TrackPointExtension>
            <ns3:hr>114</ns3:hr>
            <ns3:cad>55</ns3:cad>
          </ns3:TrackPointExtension>
        </extensions>
      </trkpt>
      <trkpt lat="45.37277634255588054656982421875" lon="-70.8101136423647403717041015625">
        <ele>446</ele>
        <time>2026-08-21T10:17:19.000Z</time>
        <extensions>
          <ns3:TrackPointExtension>
            <ns3:hr>113</ns3:hr>
            <ns3:cad>55</ns3:cad>
          </ns3:TrackPointExtension>
        </extensions>
      </trkpt>
      <trkpt lat="45.372767038643360137939453125" lon="-70.810103751718997955322265625">
        <ele>445.79998779296875</ele>
        <time>2026-08-21T10:17:20.000Z</time>
        <extensions>
          <ns3:TrackPointExtension>
            <ns3:hr>113</ns3:hr>
            <ns3:cad>55</ns3:cad>
          </ns3:TrackPointExtension>
        </extensions>
      </trkpt>
      <trkpt lat="45.3727568127214908599853515625" lon="-70.81008573062717914581298828125">
        <ele>445.600006103515625</ele>
        <time>2026-08-21T10:17:21.000Z</time>
        <extensions>
          <ns3:TrackPointExtension>
            <ns3:hr>113</ns3:hr>
            <ns3:cad>55</ns3:cad>
          </ns3:TrackPointExtension>
        </extensions>
      </trkpt>
      <trkpt lat="45.37275102920830249786376953125" lon="-70.81006695516407489776611328125">
        <ele>445.600006103515625</ele>
        <time>2026-08-21T10:17:22.000Z</time>
        <extensions>
          <ns3:TrackPointExtension>
            <ns3:hr>114</ns3:hr>
            <ns3:cad>55</ns3:cad>
          </ns3:TrackPointExtension>
        </extensions>
      </trkpt>
      <trkpt lat="45.3727427311241626739501953125" lon="-70.8100536279380321502685546875">
        <ele>445.399993896484375</ele>
        <time>2026-08-21T10:17:23.000Z</time>
        <extensions>
          <ns3:TrackPointExtension>
            <ns3:hr>113</ns3:hr>
            <ns3:cad>55</ns3:cad>
          </ns3:TrackPointExtension>
        </extensions>
      </trkpt>
      <trkpt lat="45.37273292429745197296142578125" lon="-70.8100465871393680572509765625">
        <ele>445.20001220703125</ele>
        <time>2026-08-21T10:17:24.000Z</time>
        <extensions>
          <ns3:TrackPointExtension>
            <ns3:hr>113</ns3:hr>
            <ns3:cad>55</ns3:cad>
          </ns3:TrackPointExtension>
        </extensions>
      </trkpt>
      <trkpt lat="45.37272538058459758758544921875" lon="-70.8100348524749279022216796875">
        <ele>445</ele>
        <time>2026-08-21T10:17:25.000Z</time>
        <extensions>
          <ns3:TrackPointExtension>
            <ns3:hr>114</ns3:hr>
            <ns3:cad>55</ns3:cad>
          </ns3:TrackPointExtension>
        </extensions>
      </trkpt>
      <trkpt lat="45.3727102093398571014404296875" lon="-70.8100113831460475921630859375">
        <ele>445</ele>
        <time>2026-08-21T10:17:26.000Z</time>
        <extensions>
          <ns3:TrackPointExtension>
            <ns3:hr>114</ns3:hr>
            <ns3:cad>55</ns3:cad>
          </ns3:TrackPointExtension>
        </extensions>
      </trkpt>
      <trkpt lat="45.3726998157799243927001953125" lon="-70.8099947869777679443359375">
        <ele>445</ele>
        <time>2026-08-21T10:17:27.000Z</time>
        <extensions>
          <ns3:TrackPointExtension>
            <ns3:hr>114</ns3:hr>
            <ns3:cad>55</ns3:cad>
          </ns3:TrackPointExtension>
        </extensions>
      </trkpt>
      <trkpt lat="45.37269084714353084564208984375" lon="-70.8099832199513912200927734375">
        <ele>445</ele>
        <time>2026-08-21T10:17:28.000Z</time>
        <extensions>
          <ns3:TrackPointExtension>
            <ns3:hr>114</ns3:hr>
            <ns3:cad>59</ns3:cad>
          </ns3:TrackPointExtension>
        </extensions>
      </trkpt>
      <trkpt lat="45.37268422544002532958984375" lon="-70.80996268428862094879150390625">
        <ele>445</ele>
        <time>2026-08-21T10:17:29.000Z</time>
        <extensions>
          <ns3:TrackPointExtension>
            <ns3:hr>113</ns3:hr>
            <ns3:cad>59</ns3:cad>
          </ns3:TrackPointExtension>
        </extensions>
      </trkpt>
      <trkpt lat="45.37266947329044342041015625" lon="-70.8099476806819438934326171875">
        <ele>445</ele>
        <time>2026-08-21T10:17:30.000Z</time>
        <extensions>
          <ns3:TrackPointExtension>
            <ns3:hr>114</ns3:hr>
            <ns3:cad>59</ns3:cad>
          </ns3:TrackPointExtension>
        </extensions>
      </trkpt>
      <trkpt lat="45.37266008555889129638671875" lon="-70.8099356107413768768310546875">
        <ele>444.79998779296875</ele>
        <time>2026-08-21T10:17:31.000Z</time>
        <extensions>
          <ns3:TrackPointExtension>
            <ns3:hr>114</ns3:hr>
            <ns3:cad>59</ns3:cad>
          </ns3:TrackPointExtension>
        </extensions>
      </trkpt>
      <trkpt lat="45.372655391693115234375" lon="-70.80992161296308040618896484375">
        <ele>445</ele>
        <time>2026-08-21T10:17:32.000Z</time>
        <extensions>
          <ns3:TrackPointExtension>
            <ns3:hr>113</ns3:hr>
            <ns3:cad>68</ns3:cad>
          </ns3:TrackPointExtension>
        </extensions>
      </trkpt>
      <trkpt lat="45.3726542182266712188720703125" lon="-70.80991172231733798980712890625">
        <ele>445</ele>
        <time>2026-08-21T10:17:33.000Z</time>
        <extensions>
          <ns3:TrackPointExtension>
            <ns3:hr>113</ns3:hr>
            <ns3:cad>68</ns3:cad>
          </ns3:TrackPointExtension>
        </extensions>
      </trkpt>
      <trkpt lat="45.372653715312480926513671875" lon="-70.8098955452442169189453125">
        <ele>445</ele>
        <time>2026-08-21T10:17:34.000Z</time>
        <extensions>
          <ns3:TrackPointExtension>
            <ns3:hr>113</ns3:hr>
            <ns3:cad>68</ns3:cad>
          </ns3:TrackPointExtension>
        </extensions>
      </trkpt>
      <trkpt lat="45.37264994345605373382568359375" lon="-70.80987618304789066314697265625">
        <ele>445</ele>
        <time>2026-08-21T10:17:35.000Z</time>
        <extensions>
          <ns3:TrackPointExtension>
            <ns3:hr>113</ns3:hr>
            <ns3:cad>68</ns3:cad>
          </ns3:TrackPointExtension>
        </extensions>
      </trkpt>
      <trkpt lat="45.37264156155288219451904296875" lon="-70.80985522828996181488037109375">
        <ele>445.20001220703125</ele>
        <time>2026-08-21T10:17:36.000Z</time>
        <extensions>
          <ns3:TrackPointExtension>
            <ns3:hr>113</ns3:hr>
            <ns3:cad>68</ns3:cad>
          </ns3:TrackPointExtension>
        </extensions>
      </trkpt>
      <trkpt lat="45.372634939849376678466796875" lon="-70.80983393825590610504150390625">
        <ele>445.20001220703125</ele>
        <time>2026-08-21T10:17:37.000Z</time>
        <extensions>
          <ns3:TrackPointExtension>
            <ns3:hr>114</ns3:hr>
            <ns3:cad>53</ns3:cad>
          </ns3:TrackPointExtension>
        </extensions>
      </trkpt>
      <trkpt lat="45.3726297430694103240966796875" lon="-70.8098162524402141571044921875">
        <ele>445.20001220703125</ele>
        <time>2026-08-21T10:17:38.000Z</time>
        <extensions>
          <ns3:TrackPointExtension>
            <ns3:hr>113</ns3:hr>
            <ns3:cad>53</ns3:cad>
          </ns3:TrackPointExtension>
        </extensions>
      </trkpt>
      <trkpt lat="45.37262211553752422332763671875" lon="-70.80979420803487300872802734375">
        <ele>445.20001220703125</ele>
        <time>2026-08-21T10:17:39.000Z</time>
        <extensions>
          <ns3:TrackPointExtension>
            <ns3:hr>113</ns3:hr>
            <ns3:cad>53</ns3:cad>
          </ns3:TrackPointExtension>
        </extensions>
      </trkpt>
      <trkpt lat="45.3726159967482089996337890625" lon="-70.809774510562419891357421875">
        <ele>445</ele>
        <time>2026-08-21T10:17:40.000Z</time>
        <extensions>
          <ns3:TrackPointExtension>
            <ns3:hr>113</ns3:hr>
            <ns3:cad>53</ns3:cad>
          </ns3:TrackPointExtension>
        </extensions>
      </trkpt>
      <trkpt lat="45.3726062737405300140380859375" lon="-70.80976353026926517486572265625">
        <ele>445</ele>
        <time>2026-08-21T10:17:41.000Z</time>
        <extensions>
          <ns3:TrackPointExtension>
            <ns3:hr>113</ns3:hr>
            <ns3:cad>53</ns3:cad>
          </ns3:TrackPointExtension>
        </extensions>
      </trkpt>
      <trkpt lat="45.37260644137859344482421875" lon="-70.80974659882485866546630859375">
        <ele>445</ele>
        <time>2026-08-21T10:17:42.000Z</time>
        <extensions>
          <ns3:TrackPointExtension>
            <ns3:hr>113</ns3:hr>
            <ns3:cad>53</ns3:cad>
          </ns3:TrackPointExtension>
        </extensions>
      </trkpt>
      <trkpt lat="45.37259328179061412811279296875" lon="-70.8097337745130062103271484375">
        <ele>445</ele>
        <time>2026-08-21T10:17:43.000Z</time>
        <extensions>
          <ns3:TrackPointExtension>
            <ns3:hr>113</ns3:hr>
            <ns3:cad>53</ns3:cad>
          </ns3:TrackPointExtension>
        </extensions>
      </trkpt>
      <trkpt lat="45.3725898452103137969970703125" lon="-70.80971960909664630889892578125">
        <ele>445</ele>
        <time>2026-08-21T10:17:44.000Z</time>
        <extensions>
          <ns3:TrackPointExtension>
            <ns3:hr>113</ns3:hr>
            <ns3:cad>0</ns3:cad>
          </ns3:TrackPointExtension>
        </extensions>
      </trkpt>
      <trkpt lat="45.37258624099195003509521484375" lon="-70.80970108509063720703125">
        <ele>445</ele>
        <time>2026-08-21T10:17:45.000Z</time>
        <extensions>
          <ns3:TrackPointExtension>
            <ns3:hr>113</ns3:hr>
            <ns3:cad>0</ns3:cad>
          </ns3:TrackPointExtension>
        </extensions>
      </trkpt>
      <trkpt lat="45.37258389405906200408935546875" lon="-70.80967786721885204315185546875">
        <ele>445</ele>
        <time>2026-08-21T10:17:46.000Z</time>
        <extensions>
          <ns3:TrackPointExtension>
            <ns3:hr>113</ns3:hr>
            <ns3:cad>57</ns3:cad>
          </ns3:TrackPointExtension>
        </extensions>
      </trkpt>
      <trkpt lat="45.3725834749639034271240234375" lon="-70.80965758301317691802978515625">
        <ele>445</ele>
        <time>2026-08-21T10:17:47.000Z</time>
        <extensions>
          <ns3:TrackPointExtension>
            <ns3:hr>113</ns3:hr>
            <ns3:cad>57</ns3:cad>
          </ns3:TrackPointExtension>
        </extensions>
      </trkpt>
      <trkpt lat="45.372573919594287872314453125" lon="-70.80963998101651668548583984375">
        <ele>445.20001220703125</ele>
        <time>2026-08-21T10:17:48.000Z</time>
        <extensions>
          <ns3:TrackPointExtension>
            <ns3:hr>113</ns3:hr>
            <ns3:cad>57</ns3:cad>
          </ns3:TrackPointExtension>
        </extensions>
      </trkpt>
      <trkpt lat="45.372567214071750640869140625" lon="-70.8096214570105075836181640625">
        <ele>445.20001220703125</ele>
        <time>2026-08-21T10:17:49.000Z</time>
        <extensions>
          <ns3:TrackPointExtension>
            <ns3:hr>113</ns3:hr>
            <ns3:cad>57</ns3:cad>
          </ns3:TrackPointExtension>
        </extensions>
      </trkpt>
      <trkpt lat="45.372555814683437347412109375" lon="-70.8096053637564182281494140625">
        <ele>445.20001220703125</ele>
        <time>2026-08-21T10:17:50.000Z</time>
        <extensions>
          <ns3:TrackPointExtension>
            <ns3:hr>113</ns3:hr>
            <ns3:cad>57</ns3:cad>
          </ns3:TrackPointExtension>
        </extensions>
      </trkpt>
      <trkpt lat="45.37254751659929752349853515625" lon="-70.80958776175975799560546875">
        <ele>445.20001220703125</ele>
        <time>2026-08-21T10:17:51.000Z</time>
        <extensions>
          <ns3:TrackPointExtension>
            <ns3:hr>113</ns3:hr>
            <ns3:cad>52</ns3:cad>
          </ns3:TrackPointExtension>
        </extensions>
      </trkpt>
      <trkpt lat="45.37254248745739459991455078125" lon="-70.809569656848907470703125">
        <ele>445.20001220703125</ele>
        <time>2026-08-21T10:17:52.000Z</time>
        <extensions>
          <ns3:TrackPointExtension>
            <ns3:hr>113</ns3:hr>
            <ns3:cad>55</ns3:cad>
          </ns3:TrackPointExtension>
        </extensions>
      </trkpt>
      <trkpt lat="45.372536368668079376220703125" lon="-70.809557251632213592529296875">
        <ele>445.20001220703125</ele>
        <time>2026-08-21T10:17:53.000Z</time>
        <extensions>
          <ns3:TrackPointExtension>
            <ns3:hr>112</ns3:hr>
            <ns3:cad>55</ns3:cad>
          </ns3:TrackPointExtension>
        </extensions>
      </trkpt>
      <trkpt lat="45.3725308366119861602783203125" lon="-70.809542834758758544921875">
        <ele>445</ele>
        <time>2026-08-21T10:17:54.000Z</time>
        <extensions>
          <ns3:TrackPointExtension>
            <ns3:hr>113</ns3:hr>
            <ns3:cad>52</ns3:cad>
          </ns3:TrackPointExtension>
        </extensions>
      </trkpt>
      <trkpt lat="45.37252706475555896759033203125" lon="-70.80952431075274944305419921875">
        <ele>445</ele>
        <time>2026-08-21T10:17:55.000Z</time>
        <extensions>
          <ns3:TrackPointExtension>
            <ns3:hr>113</ns3:hr>
            <ns3:cad>52</ns3:cad>
          </ns3:TrackPointExtension>
        </extensions>
      </trkpt>
      <trkpt lat="45.37252304144203662872314453125" lon="-70.80950863659381866455078125">
        <ele>445</ele>
        <time>2026-08-21T10:17:56.000Z</time>
        <extensions>
          <ns3:TrackPointExtension>
            <ns3:hr>113</ns3:hr>
            <ns3:cad>52</ns3:cad>
          </ns3:TrackPointExtension>
        </extensions>
      </trkpt>
      <trkpt lat="45.37252153269946575164794921875" lon="-70.8094980753958225250244140625">
        <ele>445</ele>
        <time>2026-08-21T10:17:57.000Z</time>
        <extensions>
          <ns3:TrackPointExtension>
            <ns3:hr>112</ns3:hr>
            <ns3:cad>52</ns3:cad>
          </ns3:TrackPointExtension>
        </extensions>
      </trkpt>
      <trkpt lat="45.37251750938594341278076171875" lon="-70.80948692746460437774658203125">
        <ele>445</ele>
        <time>2026-08-21T10:17:58.000Z</time>
        <extensions>
          <ns3:TrackPointExtension>
            <ns3:hr>112</ns3:hr>
            <ns3:cad>0</ns3:cad>
          </ns3:TrackPointExtension>
        </extensions>
      </trkpt>
      <trkpt lat="45.37250778637826442718505859375" lon="-70.80946345813572406768798828125">
        <ele>445</ele>
        <time>2026-08-21T10:17:59.000Z</time>
        <extensions>
          <ns3:TrackPointExtension>
            <ns3:hr>112</ns3:hr>
            <ns3:cad>0</ns3:cad>
          </ns3:TrackPointExtension>
        </extensions>
      </trkpt>
      <trkpt lat="45.37249621935188770294189453125" lon="-70.8094467781484127044677734375">
        <ele>445.20001220703125</ele>
        <time>2026-08-21T10:18:00.000Z</time>
        <extensions>
          <ns3:TrackPointExtension>
            <ns3:hr>111</ns3:hr>
            <ns3:cad>0</ns3:cad>
          </ns3:TrackPointExtension>
        </extensions>
      </trkpt>
      <trkpt lat="45.37248616106808185577392578125" lon="-70.80944158136844635009765625">
        <ele>445.20001220703125</ele>
        <time>2026-08-21T10:18:01.000Z</time>
        <extensions>
          <ns3:TrackPointExtension>
            <ns3:hr>111</ns3:hr>
            <ns3:cad>0</ns3:cad>
          </ns3:TrackPointExtension>
        </extensions>
      </trkpt>
      <trkpt lat="45.37247777916491031646728515625" lon="-70.80944032408297061920166015625">
        <ele>445.20001220703125</ele>
        <time>2026-08-21T10:18:02.000Z</time>
        <extensions>
          <ns3:TrackPointExtension>
            <ns3:hr>111</ns3:hr>
            <ns3:cad>0</ns3:cad>
          </ns3:TrackPointExtension>
        </extensions>
      </trkpt>
      <trkpt lat="45.3724721632897853851318359375" lon="-70.80943697132170200347900390625">
        <ele>445</ele>
        <time>2026-08-21T10:18:03.000Z</time>
        <extensions>
          <ns3:TrackPointExtension>
            <ns3:hr>111</ns3:hr>
            <ns3:cad>0</ns3:cad>
          </ns3:TrackPointExtension>
        </extensions>
      </trkpt>
      <trkpt lat="45.3724654577672481536865234375" lon="-70.8094377256929874420166015625">
        <ele>445</ele>
        <time>2026-08-21T10:18:04.000Z</time>
        <extensions>
          <ns3:TrackPointExtension>
            <ns3:hr>111</ns3:hr>
            <ns3:cad>0</ns3:cad>
          </ns3:TrackPointExtension>
        </extensions>
      </trkpt>
      <trkpt lat="45.37245028652250766754150390625" lon="-70.80943412147462368011474609375">
        <ele>445</ele>
        <time>2026-08-21T10:18:05.000Z</time>
        <extensions>
          <ns3:TrackPointExtension>
            <ns3:hr>110</ns3:hr>
            <ns3:cad>0</ns3:cad>
          </ns3:TrackPointExtension>
        </extensions>
      </trkpt>
      <trkpt lat="45.37244207225739955902099609375" lon="-70.80943143926560878753662109375">
        <ele>445</ele>
        <time>2026-08-21T10:18:06.000Z</time>
        <extensions>
          <ns3:TrackPointExtension>
            <ns3:hr>111</ns3:hr>
            <ns3:cad>0</ns3:cad>
          </ns3:TrackPointExtension>
        </extensions>
      </trkpt>
      <trkpt lat="45.372432768344879150390625" lon="-70.8094296790659427642822265625">
        <ele>445</ele>
        <time>2026-08-21T10:18:07.000Z</time>
        <extensions>
          <ns3:TrackPointExtension>
            <ns3:hr>111</ns3:hr>
            <ns3:cad>0</ns3:cad>
          </ns3:TrackPointExtension>
        </extensions>
      </trkpt>
      <trkpt lat="45.3724232129752635955810546875" lon="-70.8094280026853084564208984375">
        <ele>445</ele>
        <time>2026-08-21T10:18:08.000Z</time>
        <extensions>
          <ns3:TrackPointExtension>
            <ns3:hr>110</ns3:hr>
            <ns3:cad>0</ns3:cad>
          </ns3:TrackPointExtension>
        </extensions>
      </trkpt>
      <trkpt lat="45.372415669262409210205078125" lon="-70.8094269968569278717041015625">
        <ele>445</ele>
        <time>2026-08-21T10:18:09.000Z</time>
        <extensions>
          <ns3:TrackPointExtension>
            <ns3:hr>109</ns3:hr>
            <ns3:cad>0</ns3:cad>
          </ns3:TrackPointExtension>
        </extensions>
      </trkpt>
      <trkpt lat="45.3724101372063159942626953125" lon="-70.8094256557524204254150390625">
        <ele>445</ele>
        <time>2026-08-21T10:18:10.000Z</time>
        <extensions>
          <ns3:TrackPointExtension>
            <ns3:hr>109</ns3:hr>
            <ns3:cad>0</ns3:cad>
          </ns3:TrackPointExtension>
        </extensions>
      </trkpt>
      <trkpt lat="45.3724030964076519012451171875" lon="-70.80942708067595958709716796875">
        <ele>445</ele>
        <time>2026-08-21T10:18:11.000Z</time>
        <extensions>
          <ns3:TrackPointExtension>
            <ns3:hr>109</ns3:hr>
            <ns3:cad>0</ns3:cad>
          </ns3:TrackPointExtension>
        </extensions>
      </trkpt>
      <trkpt lat="45.37239815108478069305419921875" lon="-70.80942473374307155609130859375">
        <ele>445.20001220703125</ele>
        <time>2026-08-21T10:18:12.000Z</time>
        <extensions>
          <ns3:TrackPointExtension>
            <ns3:hr>109</ns3:hr>
            <ns3:cad>0</ns3:cad>
          </ns3:TrackPointExtension>
        </extensions>
      </trkpt>
      <trkpt lat="45.3723893500864505767822265625" lon="-70.8094243146479129791259765625">
        <ele>445.20001220703125</ele>
        <time>2026-08-21T10:18:13.000Z</time>
        <extensions>
          <ns3:TrackPointExtension>
            <ns3:hr>109</ns3:hr>
            <ns3:cad>44</ns3:cad>
          </ns3:TrackPointExtension>
        </extensions>
      </trkpt>
      <trkpt lat="45.37237551994621753692626953125" lon="-70.80942406319081783294677734375">
        <ele>445.20001220703125</ele>
        <time>2026-08-21T10:18:14.000Z</time>
        <extensions>
          <ns3:TrackPointExtension>
            <ns3:hr>112</ns3:hr>
            <ns3:cad>44</ns3:cad>
          </ns3:TrackPointExtension>
        </extensions>
      </trkpt>
      <trkpt lat="45.37236596457660198211669921875" lon="-70.80941668711602687835693359375">
        <ele>445.20001220703125</ele>
        <time>2026-08-21T10:18:15.000Z</time>
        <extensions>
          <ns3:TrackPointExtension>
            <ns3:hr>114</ns3:hr>
            <ns3:cad>0</ns3:cad>
          </ns3:TrackPointExtension>
        </extensions>
      </trkpt>
      <trkpt lat="45.372357331216335296630859375" lon="-70.80942037515342235565185546875">
        <ele>445.20001220703125</ele>
        <time>2026-08-21T10:18:16.000Z</time>
        <extensions>
          <ns3:TrackPointExtension>
            <ns3:hr>116</ns3:hr>
            <ns3:cad>0</ns3:cad>
          </ns3:TrackPointExtension>
        </extensions>
      </trkpt>
      <trkpt lat="45.3723474405705928802490234375" lon="-70.80942213535308837890625">
        <ele>445.20001220703125</ele>
        <time>2026-08-21T10:18:17.000Z</time>
        <extensions>
          <ns3:TrackPointExtension>
            <ns3:hr>115</ns3:hr>
            <ns3:cad>0</ns3:cad>
          </ns3:TrackPointExtension>
        </extensions>
      </trkpt>
      <trkpt lat="45.37233595736324787139892578125" lon="-70.8094256557524204254150390625">
        <ele>445.20001220703125</ele>
        <time>2026-08-21T10:18:18.000Z</time>
        <extensions>
          <ns3:TrackPointExtension>
            <ns3:hr>114</ns3:hr>
            <ns3:cad>0</ns3:cad>
          </ns3:TrackPointExtension>
        </extensions>
      </trkpt>
      <trkpt lat="45.37232070229947566986083984375" lon="-70.8094326965510845184326171875">
        <ele>445.20001220703125</ele>
        <time>2026-08-21T10:18:19.000Z</time>
        <extensions>
          <ns3:TrackPointExtension>
            <ns3:hr>113</ns3:hr>
            <ns3:cad>0</ns3:cad>
          </ns3:TrackPointExtension>
        </extensions>
      </trkpt>
      <trkpt lat="45.3723102249205112457275390625" lon="-70.809439904987812042236328125">
        <ele>445.20001220703125</ele>
        <time>2026-08-21T10:18:20.000Z</time>
        <extensions>
          <ns3:TrackPointExtension>
            <ns3:hr>113</ns3:hr>
            <ns3:cad>0</ns3:cad>
          </ns3:TrackPointExtension>
        </extensions>
      </trkpt>
      <trkpt lat="45.37229907698929309844970703125" lon="-70.80944417975842952728271484375">
        <ele>445.20001220703125</ele>
        <time>2026-08-21T10:18:21.000Z</time>
        <extensions>
          <ns3:TrackPointExtension>
            <ns3:hr>112</ns3:hr>
            <ns3:cad>0</ns3:cad>
          </ns3:TrackPointExtension>
        </extensions>
      </trkpt>
      <trkpt lat="45.3722867555916309356689453125" lon="-70.80944828689098358154296875">
        <ele>445.20001220703125</ele>
        <time>2026-08-21T10:18:22.000Z</time>
        <extensions>
          <ns3:TrackPointExtension>
            <ns3:hr>111</ns3:hr>
            <ns3:cad>0</ns3:cad>
          </ns3:TrackPointExtension>
        </extensions>
      </trkpt>
      <trkpt lat="45.37227896042168140411376953125" lon="-70.80945373512804508209228515625">
        <ele>445.20001220703125</ele>
        <time>2026-08-21T10:18:23.000Z</time>
        <extensions>
          <ns3:TrackPointExtension>
            <ns3:hr>110</ns3:hr>
            <ns3:cad>0</ns3:cad>
          </ns3:TrackPointExtension>
        </extensions>
      </trkpt>
      <trkpt lat="45.3722693212330341339111328125" lon="-70.8094610273838043212890625">
        <ele>445.20001220703125</ele>
        <time>2026-08-21T10:18:24.000Z</time>
        <extensions>
          <ns3:TrackPointExtension>
            <ns3:hr>109</ns3:hr>
            <ns3:cad>55</ns3:cad>
          </ns3:TrackPointExtension>
        </extensions>
      </trkpt>
      <trkpt lat="45.3722652979195117950439453125" lon="-70.809462033212184906005859375">
        <ele>445.399993896484375</ele>
        <time>2026-08-21T10:18:25.000Z</time>
        <extensions>
          <ns3:TrackPointExtension>
            <ns3:hr>108</ns3:hr>
            <ns3:cad>55</ns3:cad>
          </ns3:TrackPointExtension>
        </extensions>
      </trkpt>
      <trkpt lat="45.37225582636892795562744140625" lon="-70.80946731381118297576904296875">
        <ele>445.399993896484375</ele>
        <time>2026-08-21T10:18:26.000Z</time>
        <extensions>
          <ns3:TrackPointExtension>
            <ns3:hr>108</ns3:hr>
            <ns3:cad>55</ns3:cad>
          </ns3:TrackPointExtension>
        </extensions>
      </trkpt>
      <trkpt lat="45.3722441755235195159912109375" lon="-70.80947376787662506103515625">
        <ele>445.600006103515625</ele>
        <time>2026-08-21T10:18:27.000Z</time>
        <extensions>
          <ns3:TrackPointExtension>
            <ns3:hr>108</ns3:hr>
            <ns3:cad>55</ns3:cad>
          </ns3:TrackPointExtension>
        </extensions>
      </trkpt>
      <trkpt lat="45.3722383081912994384765625" lon="-70.8094833232462406158447265625">
        <ele>445.600006103515625</ele>
        <time>2026-08-21T10:18:28.000Z</time>
        <extensions>
          <ns3:TrackPointExtension>
            <ns3:hr>110</ns3:hr>
            <ns3:cad>55</ns3:cad>
          </ns3:TrackPointExtension>
        </extensions>
      </trkpt>
      <trkpt lat="45.37223621271550655364990234375" lon="-70.80950251780450344085693359375">
        <ele>445.600006103515625</ele>
        <time>2026-08-21T10:18:29.000Z</time>
        <extensions>
          <ns3:TrackPointExtension>
            <ns3:hr>110</ns3:hr>
            <ns3:cad>55</ns3:cad>
          </ns3:TrackPointExtension>
        </extensions>
      </trkpt>
      <trkpt lat="45.3722287528216838836669921875" lon="-70.809519030153751373291015625">
        <ele>445.600006103515625</ele>
        <time>2026-08-21T10:18:30.000Z</time>
        <extensions>
          <ns3:TrackPointExtension>
            <ns3:hr>110</ns3:hr>
            <ns3:cad>55</ns3:cad>
          </ns3:TrackPointExtension>
        </extensions>
      </trkpt>
      <trkpt lat="45.3722200356423854827880859375" lon="-70.80952665768563747406005859375">
        <ele>445.600006103515625</ele>
        <time>2026-08-21T10:18:31.000Z</time>
        <extensions>
          <ns3:TrackPointExtension>
            <ns3:hr>110</ns3:hr>
            <ns3:cad>50</ns3:cad>
          </ns3:TrackPointExtension>
        </extensions>
      </trkpt>
      <trkpt lat="45.37220469675958156585693359375" lon="-70.80953738652169704437255859375">
        <ele>445.600006103515625</ele>
        <time>2026-08-21T10:18:32.000Z</time>
        <extensions>
          <ns3:TrackPointExtension>
            <ns3:hr>111</ns3:hr>
            <ns3:cad>50</ns3:cad>
          </ns3:TrackPointExtension>
        </extensions>
      </trkpt>
      <trkpt lat="45.37219874560832977294921875" lon="-70.8095468580722808837890625">
        <ele>445.600006103515625</ele>
        <time>2026-08-21T10:18:33.000Z</time>
        <extensions>
          <ns3:TrackPointExtension>
            <ns3:hr>111</ns3:hr>
            <ns3:cad>50</ns3:cad>
          </ns3:TrackPointExtension>
        </extensions>
      </trkpt>
      <trkpt lat="45.3721895255148410797119140625" lon="-70.8095654658973217010498046875">
        <ele>445.600006103515625</ele>
        <time>2026-08-21T10:18:34.000Z</time>
        <extensions>
          <ns3:TrackPointExtension>
            <ns3:hr>111</ns3:hr>
            <ns3:cad>50</ns3:cad>
          </ns3:TrackPointExtension>
        </extensions>
      </trkpt>
      <trkpt lat="45.3721851669251918792724609375" lon="-70.809583403170108795166015625">
        <ele>445.79998779296875</ele>
        <time>2026-08-21T10:18:35.000Z</time>
        <extensions>
          <ns3:TrackPointExtension>
            <ns3:hr>111</ns3:hr>
            <ns3:cad>50</ns3:cad>
          </ns3:TrackPointExtension>
        </extensions>
      </trkpt>
      <trkpt lat="45.372182987630367279052734375" lon="-70.80959673039615154266357421875">
        <ele>446.20001220703125</ele>
        <time>2026-08-21T10:18:36.000Z</time>
        <extensions>
          <ns3:TrackPointExtension>
            <ns3:hr>111</ns3:hr>
            <ns3:cad>44</ns3:cad>
          </ns3:TrackPointExtension>
        </extensions>
      </trkpt>
      <trkpt lat="45.37217594683170318603515625" lon="-70.8096160925924777984619140625">
        <ele>446.399993896484375</ele>
        <time>2026-08-21T10:18:37.000Z</time>
        <extensions>
          <ns3:TrackPointExtension>
            <ns3:hr>112</ns3:hr>
            <ns3:cad>51</ns3:cad>
          </ns3:TrackPointExtension>
        </extensions>
      </trkpt>
      <trkpt lat="45.3721685707569122314453125" lon="-70.80963444896042346954345703125">
        <ele>446.600006103515625</ele>
        <time>2026-08-21T10:18:38.000Z</time>
        <extensions>
          <ns3:TrackPointExtension>
            <ns3:hr>112</ns3:hr>
            <ns3:cad>51</ns3:cad>
          </ns3:TrackPointExtension>
        </extensions>
      </trkpt>
      <trkpt lat="45.37215909920632839202880859375" lon="-70.8096506260335445404052734375">
        <ele>447</ele>
        <time>2026-08-21T10:18:39.000Z</time>
        <extensions>
          <ns3:TrackPointExtension>
            <ns3:hr>112</ns3:hr>
            <ns3:cad>0</ns3:cad>
          </ns3:TrackPointExtension>
        </extensions>
      </trkpt>
      <trkpt lat="45.3721511363983154296875" lon="-70.80966345034539699554443359375">
        <ele>447</ele>
        <time>2026-08-21T10:18:40.000Z</time>
        <extensions>
          <ns3:TrackPointExtension>
            <ns3:hr>112</ns3:hr>
            <ns3:cad>0</ns3:cad>
          </ns3:TrackPointExtension>
        </extensions>
      </trkpt>
      <trkpt lat="45.37214577198028564453125" lon="-70.80967149697244167327880859375">
        <ele>447.20001220703125</ele>
        <time>2026-08-21T10:18:41.000Z</time>
        <extensions>
          <ns3:TrackPointExtension>
            <ns3:hr>113</ns3:hr>
            <ns3:cad>0</ns3:cad>
          </ns3:TrackPointExtension>
        </extensions>
      </trkpt>
      <trkpt lat="45.37213697098195552825927734375" lon="-70.809676945209503173828125">
        <ele>447.20001220703125</ele>
        <time>2026-08-21T10:18:42.000Z</time>
        <extensions>
          <ns3:TrackPointExtension>
            <ns3:hr>114</ns3:hr>
            <ns3:cad>0</ns3:cad>
          </ns3:TrackPointExtension>
        </extensions>
      </trkpt>
      <trkpt lat="45.372124649584293365478515625" lon="-70.809682644903659820556640625">
        <ele>447.20001220703125</ele>
        <time>2026-08-21T10:18:43.000Z</time>
        <extensions>
          <ns3:TrackPointExtension>
            <ns3:hr>114</ns3:hr>
            <ns3:cad>0</ns3:cad>
          </ns3:TrackPointExtension>
        </extensions>
      </trkpt>
      <trkpt lat="45.372115932404994964599609375" lon="-70.80968440510332584381103515625">
        <ele>447.399993896484375</ele>
        <time>2026-08-21T10:18:44.000Z</time>
        <extensions>
          <ns3:TrackPointExtension>
            <ns3:hr>115</ns3:hr>
            <ns3:cad>0</ns3:cad>
          </ns3:TrackPointExtension>
        </extensions>
      </trkpt>
      <trkpt lat="45.37210277281701564788818359375" lon="-70.80968004651367664337158203125">
        <ele>447.600006103515625</ele>
        <time>2026-08-21T10:18:45.000Z</time>
        <extensions>
          <ns3:TrackPointExtension>
            <ns3:hr>115</ns3:hr>
            <ns3:cad>0</ns3:cad>
          </ns3:TrackPointExtension>
        </extensions>
      </trkpt>
      <trkpt lat="45.3720907866954803466796875" lon="-70.80967300571501255035400390625">
        <ele>447.600006103515625</ele>
        <time>2026-08-21T10:18:46.000Z</time>
        <extensions>
          <ns3:TrackPointExtension>
            <ns3:hr>114</ns3:hr>
            <ns3:cad>52</ns3:cad>
          </ns3:TrackPointExtension>
        </extensions>
      </trkpt>
      <trkpt lat="45.3720795549452304840087890625" lon="-70.8096680603921413421630859375">
        <ele>447.79998779296875</ele>
        <time>2026-08-21T10:18:47.000Z</time>
        <extensions>
          <ns3:TrackPointExtension>
            <ns3:hr>114</ns3:hr>
            <ns3:cad>52</ns3:cad>
          </ns3:TrackPointExtension>
        </extensions>
      </trkpt>
      <trkpt lat="45.37206606008112430572509765625" lon="-70.8096626959741115570068359375">
        <ele>448</ele>
        <time>2026-08-21T10:18:48.000Z</time>
        <extensions>
          <ns3:TrackPointExtension>
            <ns3:hr>114</ns3:hr>
            <ns3:cad>52</ns3:cad>
          </ns3:TrackPointExtension>
        </extensions>
      </trkpt>
      <trkpt lat="45.372052900493144989013671875" lon="-70.809660516679286956787109375">
        <ele>448.20001220703125</ele>
        <time>2026-08-21T10:18:49.000Z</time>
        <extensions>
          <ns3:TrackPointExtension>
            <ns3:hr>115</ns3:hr>
            <ns3:cad>52</ns3:cad>
          </ns3:TrackPointExtension>
        </extensions>
      </trkpt>
      <trkpt lat="45.37204259075224399566650390625" lon="-70.80966160632669925689697265625">
        <ele>448.399993896484375</ele>
        <time>2026-08-21T10:18:50.000Z</time>
        <extensions>
          <ns3:TrackPointExtension>
            <ns3:hr>115</ns3:hr>
            <ns3:cad>52</ns3:cad>
          </ns3:TrackPointExtension>
        </extensions>
      </trkpt>
      <trkpt lat="45.372029431164264678955078125" lon="-70.80966244451701641082763671875">
        <ele>448.399993896484375</ele>
        <time>2026-08-21T10:18:51.000Z</time>
        <extensions>
          <ns3:TrackPointExtension>
            <ns3:hr>115</ns3:hr>
            <ns3:cad>0</ns3:cad>
          </ns3:TrackPointExtension>
        </extensions>
      </trkpt>
      <trkpt lat="45.37201702594757080078125" lon="-70.80966286361217498779296875">
        <ele>448.399993896484375</ele>
        <time>2026-08-21T10:18:52.000Z</time>
        <extensions>
          <ns3:TrackPointExtension>
            <ns3:hr>116</ns3:hr>
            <ns3:cad>0</ns3:cad>
          </ns3:TrackPointExtension>
        </extensions>
      </trkpt>
      <trkpt lat="45.372008644044399261474609375" lon="-70.8096653781831264495849609375">
        <ele>448.399993896484375</ele>
        <time>2026-08-21T10:18:53.000Z</time>
        <extensions>
          <ns3:TrackPointExtension>
            <ns3:hr>116</ns3:hr>
            <ns3:cad>0</ns3:cad>
          </ns3:TrackPointExtension>
        </extensions>
      </trkpt>
      <trkpt lat="45.37200587801635265350341796875" lon="-70.80966110341250896453857421875">
        <ele>448.600006103515625</ele>
        <time>2026-08-21T10:18:54.000Z</time>
        <extensions>
          <ns3:TrackPointExtension>
            <ns3:hr>117</ns3:hr>
            <ns3:cad>0</ns3:cad>
          </ns3:TrackPointExtension>
        </extensions>
      </trkpt>
      <trkpt lat="45.37199732847511768341064453125" lon="-70.80965884029865264892578125">
        <ele>448.600006103515625</ele>
        <time>2026-08-21T10:18:55.000Z</time>
        <extensions>
          <ns3:TrackPointExtension>
            <ns3:hr>117</ns3:hr>
            <ns3:cad>0</ns3:cad>
          </ns3:TrackPointExtension>
        </extensions>
      </trkpt>
      <trkpt lat="45.37198995240032672882080078125" lon="-70.80965054221451282501220703125">
        <ele>448.600006103515625</ele>
        <time>2026-08-21T10:18:56.000Z</time>
        <extensions>
          <ns3:TrackPointExtension>
            <ns3:hr>118</ns3:hr>
            <ns3:cad>55</ns3:cad>
          </ns3:TrackPointExtension>
        </extensions>
      </trkpt>
      <trkpt lat="45.37198039703071117401123046875" lon="-70.80963763408362865447998046875">
        <ele>448.79998779296875</ele>
        <time>2026-08-21T10:18:57.000Z</time>
        <extensions>
          <ns3:TrackPointExtension>
            <ns3:hr>119</ns3:hr>
            <ns3:cad>55</ns3:cad>
          </ns3:TrackPointExtension>
        </extensions>
      </trkpt>
      <trkpt lat="45.3719658963382244110107421875" lon="-70.8096375502645969390869140625">
        <ele>448.79998779296875</ele>
        <time>2026-08-21T10:18:58.000Z</time>
        <extensions>
          <ns3:TrackPointExtension>
            <ns3:hr>119</ns3:hr>
            <ns3:cad>55</ns3:cad>
          </ns3:TrackPointExtension>
        </extensions>
      </trkpt>
      <trkpt lat="45.37195089273154735565185546875" lon="-70.8096382208168506622314453125">
        <ele>449</ele>
        <time>2026-08-21T10:18:59.000Z</time>
        <extensions>
          <ns3:TrackPointExtension>
            <ns3:hr>119</ns3:hr>
            <ns3:cad>55</ns3:cad>
          </ns3:TrackPointExtension>
        </extensions>
      </trkpt>
      <trkpt lat="45.371941588819026947021484375" lon="-70.80964148975908756256103515625">
        <ele>449.20001220703125</ele>
        <time>2026-08-21T10:19:00.000Z</time>
        <extensions>
          <ns3:TrackPointExtension>
            <ns3:hr>120</ns3:hr>
            <ns3:cad>55</ns3:cad>
          </ns3:TrackPointExtension>
        </extensions>
      </trkpt>
      <trkpt lat="45.37193262018263339996337890625" lon="-70.80963746644556522369384765625">
        <ele>449.20001220703125</ele>
        <time>2026-08-21T10:19:01.000Z</time>
        <extensions>
          <ns3:TrackPointExtension>
            <ns3:hr>120</ns3:hr>
            <ns3:cad>55</ns3:cad>
          </ns3:TrackPointExtension>
        </extensions>
      </trkpt>
      <trkpt lat="45.37191870622336864471435546875" lon="-70.80961483530700206756591796875">
        <ele>449.20001220703125</ele>
        <time>2026-08-21T10:19:02.000Z</time>
        <extensions>
          <ns3:TrackPointExtension>
            <ns3:hr>120</ns3:hr>
            <ns3:cad>55</ns3:cad>
          </ns3:TrackPointExtension>
        </extensions>
      </trkpt>
      <trkpt lat="45.37190697155892848968505859375" lon="-70.80960611812770366668701171875">
        <ele>449.20001220703125</ele>
        <time>2026-08-21T10:19:03.000Z</time>
        <extensions>
          <ns3:TrackPointExtension>
            <ns3:hr>121</ns3:hr>
            <ns3:cad>62</ns3:cad>
          </ns3:TrackPointExtension>
        </extensions>
      </trkpt>
      <trkpt lat="45.3718874417245388031005859375" lon="-70.809604860842227935791015625">
        <ele>449.20001220703125</ele>
        <time>2026-08-21T10:19:04.000Z</time>
        <extensions>
          <ns3:TrackPointExtension>
            <ns3:hr>121</ns3:hr>
            <ns3:cad>62</ns3:cad>
          </ns3:TrackPointExtension>
        </extensions>
      </trkpt>
      <trkpt lat="45.37187310867011547088623046875" lon="-70.80960494466125965118408203125">
        <ele>449.20001220703125</ele>
        <time>2026-08-21T10:19:05.000Z</time>
        <extensions>
          <ns3:TrackPointExtension>
            <ns3:hr>121</ns3:hr>
            <ns3:cad>62</ns3:cad>
          </ns3:TrackPointExtension>
        </extensions>
      </trkpt>
      <trkpt lat="45.37186506204307079315185546875" lon="-70.809607207775115966796875">
        <ele>449.20001220703125</ele>
        <time>2026-08-21T10:19:06.000Z</time>
        <extensions>
          <ns3:TrackPointExtension>
            <ns3:hr>120</ns3:hr>
            <ns3:cad>62</ns3:cad>
          </ns3:TrackPointExtension>
        </extensions>
      </trkpt>
      <trkpt lat="45.37186053581535816192626953125" lon="-70.8096053637564182281494140625">
        <ele>449.20001220703125</ele>
        <time>2026-08-21T10:19:07.000Z</time>
        <extensions>
          <ns3:TrackPointExtension>
            <ns3:hr>120</ns3:hr>
            <ns3:cad>62</ns3:cad>
          </ns3:TrackPointExtension>
        </extensions>
      </trkpt>
      <trkpt lat="45.3718555904924869537353515625" lon="-70.8095978200435638427734375">
        <ele>449.20001220703125</ele>
        <time>2026-08-21T10:19:08.000Z</time>
        <extensions>
          <ns3:TrackPointExtension>
            <ns3:hr>120</ns3:hr>
            <ns3:cad>62</ns3:cad>
          </ns3:TrackPointExtension>
        </extensions>
      </trkpt>
      <trkpt lat="45.37185181863605976104736328125" lon="-70.80959002487361431121826171875">
        <ele>449.20001220703125</ele>
        <time>2026-08-21T10:19:09.000Z</time>
        <extensions>
          <ns3:TrackPointExtension>
            <ns3:hr>120</ns3:hr>
            <ns3:cad>50</ns3:cad>
          </ns3:TrackPointExtension>
        </extensions>
      </trkpt>
      <trkpt lat="45.3718498907983303070068359375" lon="-70.80957761965692043304443359375">
        <ele>449</ele>
        <time>2026-08-21T10:19:10.000Z</time>
        <extensions>
          <ns3:TrackPointExtension>
            <ns3:hr>120</ns3:hr>
            <ns3:cad>50</ns3:cad>
          </ns3:TrackPointExtension>
        </extensions>
      </trkpt>
      <trkpt lat="45.37184813059866428375244140625" lon="-70.8095708303153514862060546875">
        <ele>449</ele>
        <time>2026-08-21T10:19:11.000Z</time>
        <extensions>
          <ns3:TrackPointExtension>
            <ns3:hr>120</ns3:hr>
            <ns3:cad>50</ns3:cad>
          </ns3:TrackPointExtension>
        </extensions>
      </trkpt>
      <trkpt lat="45.37184477783739566802978515625" lon="-70.8095601014792919158935546875">
        <ele>449</ele>
        <time>2026-08-21T10:19:12.000Z</time>
        <extensions>
          <ns3:TrackPointExtension>
            <ns3:hr>121</ns3:hr>
            <ns3:cad>0</ns3:cad>
          </ns3:TrackPointExtension>
        </extensions>
      </trkpt>
      <trkpt lat="45.3718381561338901519775390625" lon="-70.80954627133905887603759765625">
        <ele>449</ele>
        <time>2026-08-21T10:19:13.000Z</time>
        <extensions>
          <ns3:TrackPointExtension>
            <ns3:hr>122</ns3:hr>
            <ns3:cad>0</ns3:cad>
          </ns3:TrackPointExtension>
        </extensions>
      </trkpt>
      <trkpt lat="45.37183052860200405120849609375" lon="-70.80952917225658893585205078125">
        <ele>449</ele>
        <time>2026-08-21T10:19:14.000Z</time>
        <extensions>
          <ns3:TrackPointExtension>
            <ns3:hr>123</ns3:hr>
            <ns3:cad>51</ns3:cad>
          </ns3:TrackPointExtension>
        </extensions>
      </trkpt>
      <trkpt lat="45.37182197906076908111572265625" lon="-70.80951626412570476531982421875">
        <ele>449</ele>
        <time>2026-08-21T10:19:15.000Z</time>
        <extensions>
          <ns3:TrackPointExtension>
            <ns3:hr>122</ns3:hr>
            <ns3:cad>51</ns3:cad>
          </ns3:TrackPointExtension>
        </extensions>
      </trkpt>
      <trkpt lat="45.37181384861469268798828125" lon="-70.8094980753958225250244140625">
        <ele>448.79998779296875</ele>
        <time>2026-08-21T10:19:16.000Z</time>
        <extensions>
          <ns3:TrackPointExtension>
            <ns3:hr>121</ns3:hr>
            <ns3:cad>0</ns3:cad>
          </ns3:TrackPointExtension>
        </extensions>
      </trkpt>
      <trkpt lat="45.37180504761636257171630859375" lon="-70.80948173068463802337646484375">
        <ele>448.79998779296875</ele>
        <time>2026-08-21T10:19:17.000Z</time>
        <extensions>
          <ns3:TrackPointExtension>
            <ns3:hr>121</ns3:hr>
            <ns3:cad>0</ns3:cad>
          </ns3:TrackPointExtension>
        </extensions>
      </trkpt>
      <trkpt lat="45.3717928938567638397216796875" lon="-70.809459686279296875">
        <ele>448.79998779296875</ele>
        <time>2026-08-21T10:19:18.000Z</time>
        <extensions>
          <ns3:TrackPointExtension>
            <ns3:hr>120</ns3:hr>
            <ns3:cad>0</ns3:cad>
          </ns3:TrackPointExtension>
        </extensions>
      </trkpt>
      <trkpt lat="45.37177973426878452301025390625" lon="-70.80943487584590911865234375">
        <ele>448.79998779296875</ele>
        <time>2026-08-21T10:19:19.000Z</time>
        <extensions>
          <ns3:TrackPointExtension>
            <ns3:hr>120</ns3:hr>
            <ns3:cad>0</ns3:cad>
          </ns3:TrackPointExtension>
        </extensions>
      </trkpt>
      <trkpt lat="45.37177034653723239898681640625" lon="-70.8094256557524204254150390625">
        <ele>448.79998779296875</ele>
        <time>2026-08-21T10:19:20.000Z</time>
        <extensions>
          <ns3:TrackPointExtension>
            <ns3:hr>119</ns3:hr>
            <ns3:cad>0</ns3:cad>
          </ns3:TrackPointExtension>
        </extensions>
      </trkpt>
      <trkpt lat="45.3717613779008388519287109375" lon="-70.80941802822053432464599609375">
        <ele>448.79998779296875</ele>
        <time>2026-08-21T10:19:21.000Z</time>
        <extensions>
          <ns3:TrackPointExtension>
            <ns3:hr>119</ns3:hr>
            <ns3:cad>0</ns3:cad>
          </ns3:TrackPointExtension>
        </extensions>
      </trkpt>
      <trkpt lat="45.3717503137886524200439453125" lon="-70.8094062097370624542236328125">
        <ele>448.79998779296875</ele>
        <time>2026-08-21T10:19:22.000Z</time>
        <extensions>
          <ns3:TrackPointExtension>
            <ns3:hr>119</ns3:hr>
            <ns3:cad>0</ns3:cad>
          </ns3:TrackPointExtension>
        </extensions>
      </trkpt>
      <trkpt lat="45.37173145450651645660400390625" lon="-70.80938517116010189056396484375">
        <ele>448.79998779296875</ele>
        <time>2026-08-21T10:19:23.000Z</time>
        <extensions>
          <ns3:TrackPointExtension>
            <ns3:hr>119</ns3:hr>
            <ns3:cad>0</ns3:cad>
          </ns3:TrackPointExtension>
        </extensions>
      </trkpt>
      <trkpt lat="45.37171519361436367034912109375" lon="-70.8093751966953277587890625">
        <ele>448.79998779296875</ele>
        <time>2026-08-21T10:19:24.000Z</time>
        <extensions>
          <ns3:TrackPointExtension>
            <ns3:hr>119</ns3:hr>
            <ns3:cad>0</ns3:cad>
          </ns3:TrackPointExtension>
        </extensions>
      </trkpt>
      <trkpt lat="45.371692478656768798828125" lon="-70.8093751966953277587890625">
        <ele>448.79998779296875</ele>
        <time>2026-08-21T10:19:25.000Z</time>
        <extensions>
          <ns3:TrackPointExtension>
            <ns3:hr>119</ns3:hr>
            <ns3:cad>0</ns3:cad>
          </ns3:TrackPointExtension>
        </extensions>
      </trkpt>
      <trkpt lat="45.3716788999736309051513671875" lon="-70.80937989056110382080078125">
        <ele>448.79998779296875</ele>
        <time>2026-08-21T10:19:26.000Z</time>
        <extensions>
          <ns3:TrackPointExtension>
            <ns3:hr>120</ns3:hr>
            <ns3:cad>0</ns3:cad>
          </ns3:TrackPointExtension>
        </extensions>
      </trkpt>
      <trkpt lat="45.37166574038565158843994140625" lon="-70.8093847520649433135986328125">
        <ele>448.79998779296875</ele>
        <time>2026-08-21T10:19:27.000Z</time>
        <extensions>
          <ns3:TrackPointExtension>
            <ns3:hr>121</ns3:hr>
            <ns3:cad>0</ns3:cad>
          </ns3:TrackPointExtension>
        </extensions>
      </trkpt>
      <trkpt lat="45.37164160050451755523681640625" lon="-70.80939858220517635345458984375">
        <ele>448.79998779296875</ele>
        <time>2026-08-21T10:19:28.000Z</time>
        <extensions>
          <ns3:TrackPointExtension>
            <ns3:hr>123</ns3:hr>
            <ns3:cad>0</ns3:cad>
          </ns3:TrackPointExtension>
        </extensions>
      </trkpt>
      <trkpt lat="45.3716252557933330535888671875" lon="-70.8094068802893161773681640625">
        <ele>449</ele>
        <time>2026-08-21T10:19:29.000Z</time>
        <extensions>
          <ns3:TrackPointExtension>
            <ns3:hr>123</ns3:hr>
            <ns3:cad>0</ns3:cad>
          </ns3:TrackPointExtension>
        </extensions>
      </trkpt>
      <trkpt lat="45.3716155327856540679931640625" lon="-70.8094092272222042083740234375">
        <ele>449</ele>
        <time>2026-08-21T10:19:30.000Z</time>
        <extensions>
          <ns3:TrackPointExtension>
            <ns3:hr>123</ns3:hr>
            <ns3:cad>0</ns3:cad>
          </ns3:TrackPointExtension>
        </extensions>
      </trkpt>
      <trkpt lat="45.3716027922928333282470703125" lon="-70.8094095624983310699462890625">
        <ele>449</ele>
        <time>2026-08-21T10:19:31.000Z</time>
        <extensions>
          <ns3:TrackPointExtension>
            <ns3:hr>122</ns3:hr>
            <ns3:cad>0</ns3:cad>
          </ns3:TrackPointExtension>
        </extensions>
      </trkpt>
      <trkpt lat="45.37159248255193233489990234375" lon="-70.80940595827996730804443359375">
        <ele>449.20001220703125</ele>
        <time>2026-08-21T10:19:32.000Z</time>
        <extensions>
          <ns3:TrackPointExtension>
            <ns3:hr>121</ns3:hr>
            <ns3:cad>0</ns3:cad>
          </ns3:TrackPointExtension>
        </extensions>
      </trkpt>
      <trkpt lat="45.37158460356295108795166015625" lon="-70.80940646119415760040283203125">
        <ele>449.20001220703125</ele>
        <time>2026-08-21T10:19:33.000Z</time>
        <extensions>
          <ns3:TrackPointExtension>
            <ns3:hr>119</ns3:hr>
            <ns3:cad>0</ns3:cad>
          </ns3:TrackPointExtension>
        </extensions>
      </trkpt>
      <trkpt lat="45.37157538346946239471435546875" lon="-70.80940646119415760040283203125">
        <ele>449</ele>
        <time>2026-08-21T10:19:34.000Z</time>
        <extensions>
          <ns3:TrackPointExtension>
            <ns3:hr>117</ns3:hr>
            <ns3:cad>0</ns3:cad>
          </ns3:TrackPointExtension>
        </extensions>
      </trkpt>
      <trkpt lat="45.37156515754759311676025390625" lon="-70.80939606763422489166259765625">
        <ele>449</ele>
        <time>2026-08-21T10:19:35.000Z</time>
        <extensions>
          <ns3:TrackPointExtension>
            <ns3:hr>116</ns3:hr>
            <ns3:cad>51</ns3:cad>
          </ns3:TrackPointExtension>
        </extensions>
      </trkpt>
      <trkpt lat="45.37155635654926300048828125" lon="-70.809391625225543975830078125">
        <ele>449</ele>
        <time>2026-08-21T10:19:36.000Z</time>
        <extensions>
          <ns3:TrackPointExtension>
            <ns3:hr>116</ns3:hr>
            <ns3:cad>51</ns3:cad>
          </ns3:TrackPointExtension>
        </extensions>
      </trkpt>
      <trkpt lat="45.37154654972255229949951171875" lon="-70.80938802100718021392822265625">
        <ele>449.20001220703125</ele>
        <time>2026-08-21T10:19:37.000Z</time>
        <extensions>
          <ns3:TrackPointExtension>
            <ns3:hr>116</ns3:hr>
            <ns3:cad>51</ns3:cad>
          </ns3:TrackPointExtension>
        </extensions>
      </trkpt>
      <trkpt lat="45.371533893048763275146484375" lon="-70.809377543628215789794921875">
        <ele>449.20001220703125</ele>
        <time>2026-08-21T10:19:38.000Z</time>
        <extensions>
          <ns3:TrackPointExtension>
            <ns3:hr>116</ns3:hr>
            <ns3:cad>0</ns3:cad>
          </ns3:TrackPointExtension>
        </extensions>
      </trkpt>
      <trkpt lat="45.3715290315449237823486328125" lon="-70.809363462030887603759765625">
        <ele>449.20001220703125</ele>
        <time>2026-08-21T10:19:39.000Z</time>
        <extensions>
          <ns3:TrackPointExtension>
            <ns3:hr>116</ns3:hr>
            <ns3:cad>0</ns3:cad>
          </ns3:TrackPointExtension>
        </extensions>
      </trkpt>
      <trkpt lat="45.37152391858398914337158203125" lon="-70.80934996716678142547607421875">
        <ele>449.399993896484375</ele>
        <time>2026-08-21T10:19:40.000Z</time>
        <extensions>
          <ns3:TrackPointExtension>
            <ns3:hr>115</ns3:hr>
            <ns3:cad>46</ns3:cad>
          </ns3:TrackPointExtension>
        </extensions>
      </trkpt>
      <trkpt lat="45.37151402793824672698974609375" lon="-70.80932800658047199249267578125">
        <ele>449.399993896484375</ele>
        <time>2026-08-21T10:19:41.000Z</time>
        <extensions>
          <ns3:TrackPointExtension>
            <ns3:hr>115</ns3:hr>
            <ns3:cad>46</ns3:cad>
          </ns3:TrackPointExtension>
        </extensions>
      </trkpt>
      <trkpt lat="45.37151017226278781890869140625" lon="-70.80931141041219234466552734375">
        <ele>449.399993896484375</ele>
        <time>2026-08-21T10:19:42.000Z</time>
        <extensions>
          <ns3:TrackPointExtension>
            <ns3:hr>115</ns3:hr>
            <ns3:cad>46</ns3:cad>
          </ns3:TrackPointExtension>
        </extensions>
      </trkpt>
      <trkpt lat="45.37150396965444087982177734375" lon="-70.8092965744435787200927734375">
        <ele>449.20001220703125</ele>
        <time>2026-08-21T10:19:43.000Z</time>
        <extensions>
          <ns3:TrackPointExtension>
            <ns3:hr>115</ns3:hr>
            <ns3:cad>50</ns3:cad>
          </ns3:TrackPointExtension>
        </extensions>
      </trkpt>
      <trkpt lat="45.371496342122554779052734375" lon="-70.80927855335175991058349609375">
        <ele>449.20001220703125</ele>
        <time>2026-08-21T10:19:44.000Z</time>
        <extensions>
          <ns3:TrackPointExtension>
            <ns3:hr>116</ns3:hr>
            <ns3:cad>50</ns3:cad>
          </ns3:TrackPointExtension>
        </extensions>
      </trkpt>
      <trkpt lat="45.37148184143006801605224609375" lon="-70.80926095135509967803955078125">
        <ele>449.20001220703125</ele>
        <time>2026-08-21T10:19:45.000Z</time>
        <extensions>
          <ns3:TrackPointExtension>
            <ns3:hr>115</ns3:hr>
            <ns3:cad>52</ns3:cad>
          </ns3:TrackPointExtension>
        </extensions>
      </trkpt>
      <trkpt lat="45.37147044204175472259521484375" lon="-70.809250138700008392333984375">
        <ele>449</ele>
        <time>2026-08-21T10:19:46.000Z</time>
        <extensions>
          <ns3:TrackPointExtension>
            <ns3:hr>115</ns3:hr>
            <ns3:cad>52</ns3:cad>
          </ns3:TrackPointExtension>
        </extensions>
      </trkpt>
      <trkpt lat="45.37145921029150485992431640625" lon="-70.809238068759441375732421875">
        <ele>449</ele>
        <time>2026-08-21T10:19:47.000Z</time>
        <extensions>
          <ns3:TrackPointExtension>
            <ns3:hr>115</ns3:hr>
            <ns3:cad>53</ns3:cad>
          </ns3:TrackPointExtension>
        </extensions>
      </trkpt>
      <trkpt lat="45.371452085673809051513671875" lon="-70.80922608263790607452392578125">
        <ele>449</ele>
        <time>2026-08-21T10:19:48.000Z</time>
        <extensions>
          <ns3:TrackPointExtension>
            <ns3:hr>114</ns3:hr>
            <ns3:cad>53</ns3:cad>
          </ns3:TrackPointExtension>
        </extensions>
      </trkpt>
      <trkpt lat="45.37143976427614688873291015625" lon="-70.80920931883156299591064453125">
        <ele>449</ele>
        <time>2026-08-21T10:19:49.000Z</time>
        <extensions>
          <ns3:TrackPointExtension>
            <ns3:hr>114</ns3:hr>
            <ns3:cad>54</ns3:cad>
          </ns3:TrackPointExtension>
        </extensions>
      </trkpt>
      <trkpt lat="45.37142216227948665618896484375" lon="-70.80919624306261539459228515625">
        <ele>449</ele>
        <time>2026-08-21T10:19:50.000Z</time>
        <extensions>
          <ns3:TrackPointExtension>
            <ns3:hr>114</ns3:hr>
            <ns3:cad>54</ns3:cad>
          </ns3:TrackPointExtension>
        </extensions>
      </trkpt>
      <trkpt lat="45.371409840881824493408203125" lon="-70.809191800653934478759765625">
        <ele>449</ele>
        <time>2026-08-21T10:19:51.000Z</time>
        <extensions>
          <ns3:TrackPointExtension>
            <ns3:hr>114</ns3:hr>
            <ns3:cad>54</ns3:cad>
          </ns3:TrackPointExtension>
        </extensions>
      </trkpt>
      <trkpt lat="45.371402464807033538818359375" lon="-70.8091879449784755706787109375">
        <ele>449.20001220703125</ele>
        <time>2026-08-21T10:19:52.000Z</time>
        <extensions>
          <ns3:TrackPointExtension>
            <ns3:hr>114</ns3:hr>
            <ns3:cad>41</ns3:cad>
          </ns3:TrackPointExtension>
        </extensions>
      </trkpt>
      <trkpt lat="45.3713912330567836761474609375" lon="-70.8091792277991771697998046875">
        <ele>449.20001220703125</ele>
        <time>2026-08-21T10:19:53.000Z</time>
        <extensions>
          <ns3:TrackPointExtension>
            <ns3:hr>114</ns3:hr>
            <ns3:cad>41</ns3:cad>
          </ns3:TrackPointExtension>
        </extensions>
      </trkpt>
      <trkpt lat="45.3713815100491046905517578125" lon="-70.8091674931347370147705078125">
        <ele>449.20001220703125</ele>
        <time>2026-08-21T10:19:54.000Z</time>
        <extensions>
          <ns3:TrackPointExtension>
            <ns3:hr>113</ns3:hr>
            <ns3:cad>41</ns3:cad>
          </ns3:TrackPointExtension>
        </extensions>
      </trkpt>
      <trkpt lat="45.37137505598366260528564453125" lon="-70.80915684811770915985107421875">
        <ele>449.20001220703125</ele>
        <time>2026-08-21T10:19:55.000Z</time>
        <extensions>
          <ns3:TrackPointExtension>
            <ns3:hr>113</ns3:hr>
            <ns3:cad>41</ns3:cad>
          </ns3:TrackPointExtension>
        </extensions>
      </trkpt>
      <trkpt lat="45.3713640756905078887939453125" lon="-70.8091457001864910125732421875">
        <ele>449.20001220703125</ele>
        <time>2026-08-21T10:19:56.000Z</time>
        <extensions>
          <ns3:TrackPointExtension>
            <ns3:hr>112</ns3:hr>
            <ns3:cad>41</ns3:cad>
          </ns3:TrackPointExtension>
        </extensions>
      </trkpt>
      <trkpt lat="45.37135460413992404937744140625" lon="-70.80914075486361980438232421875">
        <ele>449.20001220703125</ele>
        <time>2026-08-21T10:19:57.000Z</time>
        <extensions>
          <ns3:TrackPointExtension>
            <ns3:hr>112</ns3:hr>
            <ns3:cad>79</ns3:cad>
          </ns3:TrackPointExtension>
        </extensions>
      </trkpt>
      <trkpt lat="45.371346138417720794677734375" lon="-70.8091339655220508575439453125">
        <ele>449.20001220703125</ele>
        <time>2026-08-21T10:19:58.000Z</time>
        <extensions>
          <ns3:TrackPointExtension>
            <ns3:hr>112</ns3:hr>
            <ns3:cad>79</ns3:cad>
          </ns3:TrackPointExtension>
        </extensions>
      </trkpt>
      <trkpt lat="45.37133297882974147796630859375" lon="-70.809114016592502593994140625">
        <ele>449.399993896484375</ele>
        <time>2026-08-21T10:19:59.000Z</time>
        <extensions>
          <ns3:TrackPointExtension>
            <ns3:hr>111</ns3:hr>
            <ns3:cad>79</ns3:cad>
          </ns3:TrackPointExtension>
        </extensions>
      </trkpt>
      <trkpt lat="45.37132157944142818450927734375" lon="-70.80909683369100093841552734375">
        <ele>449.399993896484375</ele>
        <time>2026-08-21T10:20:00.000Z</time>
        <extensions>
          <ns3:TrackPointExtension>
            <ns3:hr>111</ns3:hr>
            <ns3:cad>79</ns3:cad>
          </ns3:TrackPointExtension>
        </extensions>
      </trkpt>
      <trkpt lat="45.3713077493011951446533203125" lon="-70.80907789058983325958251953125">
        <ele>449.600006103515625</ele>
        <time>2026-08-21T10:20:01.000Z</time>
        <extensions>
          <ns3:TrackPointExtension>
            <ns3:hr>111</ns3:hr>
            <ns3:cad>52</ns3:cad>
          </ns3:TrackPointExtension>
        </extensions>
      </trkpt>
      <trkpt lat="45.37129626609385013580322265625" lon="-70.8090692572295665740966796875">
        <ele>449.600006103515625</ele>
        <time>2026-08-21T10:20:02.000Z</time>
        <extensions>
          <ns3:TrackPointExtension>
            <ns3:hr>111</ns3:hr>
            <ns3:cad>52</ns3:cad>
          </ns3:TrackPointExtension>
        </extensions>
      </trkpt>
      <trkpt lat="45.37128905765712261199951171875" lon="-70.80906665883958339691162109375">
        <ele>449.79998779296875</ele>
        <time>2026-08-21T10:20:03.000Z</time>
        <extensions>
          <ns3:TrackPointExtension>
            <ns3:hr>112</ns3:hr>
            <ns3:cad>52</ns3:cad>
          </ns3:TrackPointExtension>
        </extensions>
      </trkpt>
      <trkpt lat="45.3712879680097103118896484375" lon="-70.8090608753263950347900390625">
        <ele>449.79998779296875</ele>
        <time>2026-08-21T10:20:04.000Z</time>
        <extensions>
          <ns3:TrackPointExtension>
            <ns3:hr>112</ns3:hr>
            <ns3:cad>52</ns3:cad>
          </ns3:TrackPointExtension>
        </extensions>
      </trkpt>
      <trkpt lat="45.371286459267139434814453125" lon="-70.809046290814876556396484375">
        <ele>449.79998779296875</ele>
        <time>2026-08-21T10:20:05.000Z</time>
        <extensions>
          <ns3:TrackPointExtension>
            <ns3:hr>113</ns3:hr>
            <ns3:cad>52</ns3:cad>
          </ns3:TrackPointExtension>
        </extensions>
      </trkpt>
      <trkpt lat="45.37128168158233165740966796875" lon="-70.80902977846562862396240234375">
        <ele>449.79998779296875</ele>
        <time>2026-08-21T10:20:06.000Z</time>
        <extensions>
          <ns3:TrackPointExtension>
            <ns3:hr>114</ns3:hr>
            <ns3:cad>55</ns3:cad>
          </ns3:TrackPointExtension>
        </extensions>
      </trkpt>
      <trkpt lat="45.37128184922039508819580078125" lon="-70.8090213127434253692626953125">
        <ele>449.79998779296875</ele>
        <time>2026-08-21T10:20:07.000Z</time>
        <extensions>
          <ns3:TrackPointExtension>
            <ns3:hr>115</ns3:hr>
            <ns3:cad>55</ns3:cad>
          </ns3:TrackPointExtension>
        </extensions>
      </trkpt>
      <trkpt lat="45.371273718774318695068359375" lon="-70.80900312401354312896728515625">
        <ele>449.79998779296875</ele>
        <time>2026-08-21T10:20:08.000Z</time>
        <extensions>
          <ns3:TrackPointExtension>
            <ns3:hr>114</ns3:hr>
            <ns3:cad>55</ns3:cad>
          </ns3:TrackPointExtension>
        </extensions>
      </trkpt>
      <trkpt lat="45.37126190029084682464599609375" lon="-70.8089891262352466583251953125">
        <ele>449.79998779296875</ele>
        <time>2026-08-21T10:20:09.000Z</time>
        <extensions>
          <ns3:TrackPointExtension>
            <ns3:hr>114</ns3:hr>
            <ns3:cad>55</ns3:cad>
          </ns3:TrackPointExtension>
        </extensions>
      </trkpt>
      <trkpt lat="45.3712490759789943695068359375" lon="-70.8089743740856647491455078125">
        <ele>449.79998779296875</ele>
        <time>2026-08-21T10:20:10.000Z</time>
        <extensions>
          <ns3:TrackPointExtension>
            <ns3:hr>114</ns3:hr>
            <ns3:cad>55</ns3:cad>
          </ns3:TrackPointExtension>
        </extensions>
      </trkpt>
      <trkpt lat="45.371232815086841583251953125" lon="-70.80896280705928802490234375">
        <ele>450</ele>
        <time>2026-08-21T10:20:11.000Z</time>
        <extensions>
          <ns3:TrackPointExtension>
            <ns3:hr>114</ns3:hr>
            <ns3:cad>0</ns3:cad>
          </ns3:TrackPointExtension>
        </extensions>
      </trkpt>
      <trkpt lat="45.3712199069559574127197265625" lon="-70.8089482225477695465087890625">
        <ele>450</ele>
        <time>2026-08-21T10:20:12.000Z</time>
        <extensions>
          <ns3:TrackPointExtension>
            <ns3:hr>114</ns3:hr>
            <ns3:cad>0</ns3:cad>
          </ns3:TrackPointExtension>
        </extensions>
      </trkpt>
      <trkpt lat="45.37119853310286998748779296875" lon="-70.80893472768366336822509765625">
        <ele>450.20001220703125</ele>
        <time>2026-08-21T10:20:13.000Z</time>
        <extensions>
          <ns3:TrackPointExtension>
            <ns3:hr>114</ns3:hr>
            <ns3:cad>0</ns3:cad>
          </ns3:TrackPointExtension>
        </extensions>
      </trkpt>
      <trkpt lat="45.3711826913058757781982421875" lon="-70.8089354820549488067626953125">
        <ele>450.20001220703125</ele>
        <time>2026-08-21T10:20:14.000Z</time>
        <extensions>
          <ns3:TrackPointExtension>
            <ns3:hr>114</ns3:hr>
            <ns3:cad>0</ns3:cad>
          </ns3:TrackPointExtension>
        </extensions>
      </trkpt>
      <trkpt lat="45.3711632452905178070068359375" lon="-70.8089301176369190216064453125">
        <ele>450.399993896484375</ele>
        <time>2026-08-21T10:20:15.000Z</time>
        <extensions>
          <ns3:TrackPointExtension>
            <ns3:hr>114</ns3:hr>
            <ns3:cad>0</ns3:cad>
          </ns3:TrackPointExtension>
        </extensions>
      </trkpt>
      <trkpt lat="45.37114857695996761322021484375" lon="-70.80892550759017467498779296875">
        <ele>450.399993896484375</ele>
        <time>2026-08-21T10:20:16.000Z</time>
        <extensions>
          <ns3:TrackPointExtension>
            <ns3:hr>113</ns3:hr>
            <ns3:cad>0</ns3:cad>
          </ns3:TrackPointExtension>
        </extensions>
      </trkpt>
      <trkpt lat="45.37113449536263942718505859375" lon="-70.8089183829724788665771484375">
        <ele>450.399993896484375</ele>
        <time>2026-08-21T10:20:17.000Z</time>
        <extensions>
          <ns3:TrackPointExtension>
            <ns3:hr>114</ns3:hr>
            <ns3:cad>0</ns3:cad>
          </ns3:TrackPointExtension>
        </extensions>
      </trkpt>
      <trkpt lat="45.37111915647983551025390625" lon="-70.80891142599284648895263671875">
        <ele>450.399993896484375</ele>
        <time>2026-08-21T10:20:18.000Z</time>
        <extensions>
          <ns3:TrackPointExtension>
            <ns3:hr>115</ns3:hr>
            <ns3:cad>0</ns3:cad>
          </ns3:TrackPointExtension>
        </extensions>
      </trkpt>
      <trkpt lat="45.3711065836250782012939453125" lon="-70.80890622921288013458251953125">
        <ele>450.399993896484375</ele>
        <time>2026-08-21T10:20:19.000Z</time>
        <extensions>
          <ns3:TrackPointExtension>
            <ns3:hr>115</ns3:hr>
            <ns3:cad>0</ns3:cad>
          </ns3:TrackPointExtension>
        </extensions>
      </trkpt>
      <trkpt lat="45.3711002133786678314208984375" lon="-70.80890421755611896514892578125">
        <ele>450.399993896484375</ele>
        <time>2026-08-21T10:20:20.000Z</time>
        <extensions>
          <ns3:TrackPointExtension>
            <ns3:hr>116</ns3:hr>
            <ns3:cad>0</ns3:cad>
          </ns3:TrackPointExtension>
        </extensions>
      </trkpt>
      <trkpt lat="45.3710945136845111846923828125" lon="-70.80889164470136165618896484375">
        <ele>450.399993896484375</ele>
        <time>2026-08-21T10:20:21.000Z</time>
        <extensions>
          <ns3:TrackPointExtension>
            <ns3:hr>116</ns3:hr>
            <ns3:cad>0</ns3:cad>
          </ns3:TrackPointExtension>
        </extensions>
      </trkpt>
      <trkpt lat="45.37108386866748332977294921875" lon="-70.8088778145611286163330078125">
        <ele>450.600006103515625</ele>
        <time>2026-08-21T10:20:22.000Z</time>
        <extensions>
          <ns3:TrackPointExtension>
            <ns3:hr>116</ns3:hr>
            <ns3:cad>0</ns3:cad>
          </ns3:TrackPointExtension>
        </extensions>
      </trkpt>
      <trkpt lat="45.37107246927917003631591796875" lon="-70.80886364914476871490478515625">
        <ele>450.600006103515625</ele>
        <time>2026-08-21T10:20:23.000Z</time>
        <extensions>
          <ns3:TrackPointExtension>
            <ns3:hr>116</ns3:hr>
            <ns3:cad>0</ns3:cad>
          </ns3:TrackPointExtension>
        </extensions>
      </trkpt>
      <trkpt lat="45.37106257863342761993408203125" lon="-70.80884990282356739044189453125">
        <ele>450.79998779296875</ele>
        <time>2026-08-21T10:20:24.000Z</time>
        <extensions>
          <ns3:TrackPointExtension>
            <ns3:hr>117</ns3:hr>
            <ns3:cad>0</ns3:cad>
          </ns3:TrackPointExtension>
        </extensions>
      </trkpt>
      <trkpt lat="45.3710566274821758270263671875" lon="-70.80883498303592205047607421875">
        <ele>450.79998779296875</ele>
        <time>2026-08-21T10:20:25.000Z</time>
        <extensions>
          <ns3:TrackPointExtension>
            <ns3:hr>117</ns3:hr>
            <ns3:cad>0</ns3:cad>
          </ns3:TrackPointExtension>
        </extensions>
      </trkpt>
      <trkpt lat="45.3710489161312580108642578125" lon="-70.80881352536380290985107421875">
        <ele>451</ele>
        <time>2026-08-21T10:20:26.000Z</time>
        <extensions>
          <ns3:TrackPointExtension>
            <ns3:hr>118</ns3:hr>
            <ns3:cad>0</ns3:cad>
          </ns3:TrackPointExtension>
        </extensions>
      </trkpt>
      <trkpt lat="45.37103910930454730987548828125" lon="-70.8087973482906818389892578125">
        <ele>451</ele>
        <time>2026-08-21T10:20:27.000Z</time>
        <extensions>
          <ns3:TrackPointExtension>
            <ns3:hr>117</ns3:hr>
            <ns3:cad>55</ns3:cad>
          </ns3:TrackPointExtension>
        </extensions>
      </trkpt>
      <trkpt lat="45.37103106267750263214111328125" lon="-70.80878041684627532958984375">
        <ele>451</ele>
        <time>2026-08-21T10:20:28.000Z</time>
        <extensions>
          <ns3:TrackPointExtension>
            <ns3:hr>117</ns3:hr>
            <ns3:cad>55</ns3:cad>
          </ns3:TrackPointExtension>
        </extensions>
      </trkpt>
      <trkpt lat="45.371026284992694854736328125" lon="-70.80875988118350505828857421875">
        <ele>451</ele>
        <time>2026-08-21T10:20:29.000Z</time>
        <extensions>
          <ns3:TrackPointExtension>
            <ns3:hr>116</ns3:hr>
            <ns3:cad>55</ns3:cad>
          </ns3:TrackPointExtension>
        </extensions>
      </trkpt>
      <trkpt lat="45.371010862290859222412109375" lon="-70.808734484016895294189453125">
        <ele>451</ele>
        <time>2026-08-21T10:20:30.000Z</time>
        <extensions>
          <ns3:TrackPointExtension>
            <ns3:hr>116</ns3:hr>
            <ns3:cad>55</ns3:cad>
          </ns3:TrackPointExtension>
        </extensions>
      </trkpt>
      <trkpt lat="45.37099535576999187469482421875" lon="-70.80871663056313991546630859375">
        <ele>451.20001220703125</ele>
        <time>2026-08-21T10:20:31.000Z</time>
        <extensions>
          <ns3:TrackPointExtension>
            <ns3:hr>116</ns3:hr>
            <ns3:cad>55</ns3:cad>
          </ns3:TrackPointExtension>
        </extensions>
      </trkpt>
      <trkpt lat="45.3709845431149005889892578125" lon="-70.808706320822238922119140625">
        <ele>451.20001220703125</ele>
        <time>2026-08-21T10:20:32.000Z</time>
        <extensions>
          <ns3:TrackPointExtension>
            <ns3:hr>116</ns3:hr>
            <ns3:cad>0</ns3:cad>
          </ns3:TrackPointExtension>
        </extensions>
      </trkpt>
      <trkpt lat="45.37097339518368244171142578125" lon="-70.8086930774152278900146484375">
        <ele>451.20001220703125</ele>
        <time>2026-08-21T10:20:33.000Z</time>
        <extensions>
          <ns3:TrackPointExtension>
            <ns3:hr>117</ns3:hr>
            <ns3:cad>0</ns3:cad>
          </ns3:TrackPointExtension>
        </extensions>
      </trkpt>
      <trkpt lat="45.37096501328051090240478515625" lon="-70.80867287702858448028564453125">
        <ele>451</ele>
        <time>2026-08-21T10:20:34.000Z</time>
        <extensions>
          <ns3:TrackPointExtension>
            <ns3:hr>116</ns3:hr>
            <ns3:cad>53</ns3:cad>
          </ns3:TrackPointExtension>
        </extensions>
      </trkpt>
      <trkpt lat="45.37095596082508563995361328125" lon="-70.808655358850955963134765625">
        <ele>451</ele>
        <time>2026-08-21T10:20:35.000Z</time>
        <extensions>
          <ns3:TrackPointExtension>
            <ns3:hr>117</ns3:hr>
            <ns3:cad>53</ns3:cad>
          </ns3:TrackPointExtension>
        </extensions>
      </trkpt>
      <trkpt lat="45.37093819119036197662353515625" lon="-70.80864387564361095428466796875">
        <ele>451</ele>
        <time>2026-08-21T10:20:36.000Z</time>
        <extensions>
          <ns3:TrackPointExtension>
            <ns3:hr>119</ns3:hr>
            <ns3:cad>53</ns3:cad>
          </ns3:TrackPointExtension>
        </extensions>
      </trkpt>
      <trkpt lat="45.3709265403449535369873046875" lon="-70.80863750539720058441162109375">
        <ele>451</ele>
        <time>2026-08-21T10:20:37.000Z</time>
        <extensions>
          <ns3:TrackPointExtension>
            <ns3:hr>120</ns3:hr>
            <ns3:cad>54</ns3:cad>
          </ns3:TrackPointExtension>
        </extensions>
      </trkpt>
      <trkpt lat="45.37091807462275028228759765625" lon="-70.80862761475145816802978515625">
        <ele>451</ele>
        <time>2026-08-21T10:20:38.000Z</time>
        <extensions>
          <ns3:TrackPointExtension>
            <ns3:hr>121</ns3:hr>
            <ns3:cad>54</ns3:cad>
          </ns3:TrackPointExtension>
        </extensions>
      </trkpt>
      <trkpt lat="45.370912961661815643310546875" lon="-70.80861235968768596649169921875">
        <ele>450.79998779296875</ele>
        <time>2026-08-21T10:20:39.000Z</time>
        <extensions>
          <ns3:TrackPointExtension>
            <ns3:hr>121</ns3:hr>
            <ns3:cad>57</ns3:cad>
          </ns3:TrackPointExtension>
        </extensions>
      </trkpt>
      <trkpt lat="45.37090952508151531219482421875" lon="-70.80859894864261150360107421875">
        <ele>450.79998779296875</ele>
        <time>2026-08-21T10:20:40.000Z</time>
        <extensions>
          <ns3:TrackPointExtension>
            <ns3:hr>122</ns3:hr>
            <ns3:cad>57</ns3:cad>
          </ns3:TrackPointExtension>
        </extensions>
      </trkpt>
      <trkpt lat="45.37090365774929523468017578125" lon="-70.80858729779720306396484375">
        <ele>450.79998779296875</ele>
        <time>2026-08-21T10:20:41.000Z</time>
        <extensions>
          <ns3:TrackPointExtension>
            <ns3:hr>121</ns3:hr>
            <ns3:cad>57</ns3:cad>
          </ns3:TrackPointExtension>
        </extensions>
      </trkpt>
      <trkpt lat="45.37089762277901172637939453125" lon="-70.80857967026531696319580078125">
        <ele>450.79998779296875</ele>
        <time>2026-08-21T10:20:42.000Z</time>
        <extensions>
          <ns3:TrackPointExtension>
            <ns3:hr>121</ns3:hr>
            <ns3:cad>55</ns3:cad>
          </ns3:TrackPointExtension>
        </extensions>
      </trkpt>
      <trkpt lat="45.3708953596651554107666015625" lon="-70.8085666783154010772705078125">
        <ele>450.79998779296875</ele>
        <time>2026-08-21T10:20:43.000Z</time>
        <extensions>
          <ns3:TrackPointExtension>
            <ns3:hr>121</ns3:hr>
            <ns3:cad>55</ns3:cad>
          </ns3:TrackPointExtension>
        </extensions>
      </trkpt>
      <trkpt lat="45.37088957615196704864501953125" lon="-70.80854899249970912933349609375">
        <ele>450.79998779296875</ele>
        <time>2026-08-21T10:20:44.000Z</time>
        <extensions>
          <ns3:TrackPointExtension>
            <ns3:hr>120</ns3:hr>
            <ns3:cad>55</ns3:cad>
          </ns3:TrackPointExtension>
        </extensions>
      </trkpt>
      <trkpt lat="45.37088404409587383270263671875" lon="-70.8085385151207447052001953125">
        <ele>450.79998779296875</ele>
        <time>2026-08-21T10:20:45.000Z</time>
        <extensions>
          <ns3:TrackPointExtension>
            <ns3:hr>120</ns3:hr>
            <ns3:cad>55</ns3:cad>
          </ns3:TrackPointExtension>
        </extensions>
      </trkpt>
      <trkpt lat="45.37087482400238513946533203125" lon="-70.80852468498051166534423828125">
        <ele>450.79998779296875</ele>
        <time>2026-08-21T10:20:46.000Z</time>
        <extensions>
          <ns3:TrackPointExtension>
            <ns3:hr>120</ns3:hr>
            <ns3:cad>53</ns3:cad>
          </ns3:TrackPointExtension>
        </extensions>
      </trkpt>
      <trkpt lat="45.37086677737534046173095703125" lon="-70.808515213429927825927734375">
        <ele>450.79998779296875</ele>
        <time>2026-08-21T10:20:47.000Z</time>
        <extensions>
          <ns3:TrackPointExtension>
            <ns3:hr>119</ns3:hr>
            <ns3:cad>53</ns3:cad>
          </ns3:TrackPointExtension>
        </extensions>
      </trkpt>
      <trkpt lat="45.37086124531924724578857421875" lon="-70.808502137660980224609375">
        <ele>450.79998779296875</ele>
        <time>2026-08-21T10:20:48.000Z</time>
        <extensions>
          <ns3:TrackPointExtension>
            <ns3:hr>118</ns3:hr>
            <ns3:cad>53</ns3:cad>
          </ns3:TrackPointExtension>
        </extensions>
      </trkpt>
      <trkpt lat="45.37085621617734432220458984375" lon="-70.80848537385463714599609375">
        <ele>450.79998779296875</ele>
        <time>2026-08-21T10:20:49.000Z</time>
        <extensions>
          <ns3:TrackPointExtension>
            <ns3:hr>116</ns3:hr>
            <ns3:cad>51</ns3:cad>
          </ns3:TrackPointExtension>
        </extensions>
      </trkpt>
      <trkpt lat="45.37085101939737796783447265625" lon="-70.80847003497183322906494140625">
        <ele>450.79998779296875</ele>
        <time>2026-08-21T10:20:50.000Z</time>
        <extensions>
          <ns3:TrackPointExtension>
            <ns3:hr>115</ns3:hr>
            <ns3:cad>51</ns3:cad>
          </ns3:TrackPointExtension>
        </extensions>
      </trkpt>
      <trkpt lat="45.37084615789353847503662109375" lon="-70.80845586955547332763671875">
        <ele>450.79998779296875</ele>
        <time>2026-08-21T10:20:51.000Z</time>
        <extensions>
          <ns3:TrackPointExtension>
            <ns3:hr>114</ns3:hr>
            <ns3:cad>51</ns3:cad>
          </ns3:TrackPointExtension>
        </extensions>
      </trkpt>
      <trkpt lat="45.37084213458001613616943359375" lon="-70.808438099920749664306640625">
        <ele>450.600006103515625</ele>
        <time>2026-08-21T10:20:52.000Z</time>
        <extensions>
          <ns3:TrackPointExtension>
            <ns3:hr>114</ns3:hr>
            <ns3:cad>51</ns3:cad>
          </ns3:TrackPointExtension>
        </extensions>
      </trkpt>
      <trkpt lat="45.37083685398101806640625" lon="-70.8084208332002162933349609375">
        <ele>450.600006103515625</ele>
        <time>2026-08-21T10:20:53.000Z</time>
        <extensions>
          <ns3:TrackPointExtension>
            <ns3:hr>114</ns3:hr>
            <ns3:cad>51</ns3:cad>
          </ns3:TrackPointExtension>
        </extensions>
      </trkpt>
      <trkpt lat="45.37082620896399021148681640625" lon="-70.808395855128765106201171875">
        <ele>450.600006103515625</ele>
        <time>2026-08-21T10:20:54.000Z</time>
        <extensions>
          <ns3:TrackPointExtension>
            <ns3:hr>115</ns3:hr>
            <ns3:cad>55</ns3:cad>
          </ns3:TrackPointExtension>
        </extensions>
      </trkpt>
      <trkpt lat="45.3708194196224212646484375" lon="-70.80837749876081943511962890625">
        <ele>450.600006103515625</ele>
        <time>2026-08-21T10:20:55.000Z</time>
        <extensions>
          <ns3:TrackPointExtension>
            <ns3:hr>115</ns3:hr>
            <ns3:cad>55</ns3:cad>
          </ns3:TrackPointExtension>
        </extensions>
      </trkpt>
      <trkpt lat="45.37081095390021800994873046875" lon="-70.80835922621190547943115234375">
        <ele>450.79998779296875</ele>
        <time>2026-08-21T10:20:56.000Z</time>
        <extensions>
          <ns3:TrackPointExtension>
            <ns3:hr>116</ns3:hr>
            <ns3:cad>55</ns3:cad>
          </ns3:TrackPointExtension>
        </extensions>
      </trkpt>
      <trkpt lat="45.37080307491123676300048828125" lon="-70.80834816209971904754638671875">
        <ele>450.79998779296875</ele>
        <time>2026-08-21T10:20:57.000Z</time>
        <extensions>
          <ns3:TrackPointExtension>
            <ns3:hr>117</ns3:hr>
            <ns3:cad>55</ns3:cad>
          </ns3:TrackPointExtension>
        </extensions>
      </trkpt>
      <trkpt lat="45.37079419009387493133544921875" lon="-70.80833139829337596893310546875">
        <ele>450.79998779296875</ele>
        <time>2026-08-21T10:20:58.000Z</time>
        <extensions>
          <ns3:TrackPointExtension>
            <ns3:hr>118</ns3:hr>
            <ns3:cad>56</ns3:cad>
          </ns3:TrackPointExtension>
        </extensions>
      </trkpt>
      <trkpt lat="45.37078790366649627685546875" lon="-70.8083232678472995758056640625">
        <ele>450.79998779296875</ele>
        <time>2026-08-21T10:20:59.000Z</time>
        <extensions>
          <ns3:TrackPointExtension>
            <ns3:hr>118</ns3:hr>
            <ns3:cad>56</ns3:cad>
          </ns3:TrackPointExtension>
        </extensions>
      </trkpt>
      <trkpt lat="45.37077910266816616058349609375" lon="-70.80831010825932025909423828125">
        <ele>450.79998779296875</ele>
        <time>2026-08-21T10:21:00.000Z</time>
        <extensions>
          <ns3:TrackPointExtension>
            <ns3:hr>118</ns3:hr>
            <ns3:cad>56</ns3:cad>
          </ns3:TrackPointExtension>
        </extensions>
      </trkpt>
      <trkpt lat="45.3707684576511383056640625" lon="-70.80829627811908721923828125">
        <ele>450.79998779296875</ele>
        <time>2026-08-21T10:21:01.000Z</time>
        <extensions>
          <ns3:TrackPointExtension>
            <ns3:hr>117</ns3:hr>
            <ns3:cad>0</ns3:cad>
          </ns3:TrackPointExtension>
        </extensions>
      </trkpt>
      <trkpt lat="45.37075412459671497344970703125" lon="-70.808277167379856109619140625">
        <ele>450.79998779296875</ele>
        <time>2026-08-21T10:21:02.000Z</time>
        <extensions>
          <ns3:TrackPointExtension>
            <ns3:hr>118</ns3:hr>
            <ns3:cad>0</ns3:cad>
          </ns3:TrackPointExtension>
        </extensions>
      </trkpt>
      <trkpt lat="45.37074088118970394134521484375" lon="-70.8082679472863674163818359375">
        <ele>450.600006103515625</ele>
        <time>2026-08-21T10:21:03.000Z</time>
        <extensions>
          <ns3:TrackPointExtension>
            <ns3:hr>118</ns3:hr>
            <ns3:cad>0</ns3:cad>
          </ns3:TrackPointExtension>
        </extensions>
      </trkpt>
      <trkpt lat="45.37072478793561458587646484375" lon="-70.8082605712115764617919921875">
        <ele>450.600006103515625</ele>
        <time>2026-08-21T10:21:04.000Z</time>
        <extensions>
          <ns3:TrackPointExtension>
            <ns3:hr>118</ns3:hr>
            <ns3:cad>0</ns3:cad>
          </ns3:TrackPointExtension>
        </extensions>
      </trkpt>
      <trkpt lat="45.37070584483444690704345703125" lon="-70.80825177021324634552001953125">
        <ele>450.600006103515625</ele>
        <time>2026-08-21T10:21:05.000Z</time>
        <extensions>
          <ns3:TrackPointExtension>
            <ns3:hr>118</ns3:hr>
            <ns3:cad>0</ns3:cad>
          </ns3:TrackPointExtension>
        </extensions>
      </trkpt>
      <trkpt lat="45.37068891339004039764404296875" lon="-70.8082468248903751373291015625">
        <ele>450.600006103515625</ele>
        <time>2026-08-21T10:21:06.000Z</time>
        <extensions>
          <ns3:TrackPointExtension>
            <ns3:hr>118</ns3:hr>
            <ns3:cad>0</ns3:cad>
          </ns3:TrackPointExtension>
        </extensions>
      </trkpt>
      <trkpt lat="45.37066997028887271881103515625" lon="-70.8082411251962184906005859375">
        <ele>450.600006103515625</ele>
        <time>2026-08-21T10:21:07.000Z</time>
        <extensions>
          <ns3:TrackPointExtension>
            <ns3:hr>117</ns3:hr>
            <ns3:cad>0</ns3:cad>
          </ns3:TrackPointExtension>
        </extensions>
      </trkpt>
      <trkpt lat="45.37065404467284679412841796875" lon="-70.80823768861591815948486328125">
        <ele>450.600006103515625</ele>
        <time>2026-08-21T10:21:08.000Z</time>
        <extensions>
          <ns3:TrackPointExtension>
            <ns3:hr>117</ns3:hr>
            <ns3:cad>0</ns3:cad>
          </ns3:TrackPointExtension>
        </extensions>
      </trkpt>
      <trkpt lat="45.37063862197101116180419921875" lon="-70.808239281177520751953125">
        <ele>450.79998779296875</ele>
        <time>2026-08-21T10:21:09.000Z</time>
        <extensions>
          <ns3:TrackPointExtension>
            <ns3:hr>117</ns3:hr>
            <ns3:cad>0</ns3:cad>
          </ns3:TrackPointExtension>
        </extensions>
      </trkpt>
      <trkpt lat="45.370619595050811767578125" lon="-70.80823617987334728240966796875">
        <ele>450.79998779296875</ele>
        <time>2026-08-21T10:21:10.000Z</time>
        <extensions>
          <ns3:TrackPointExtension>
            <ns3:hr>117</ns3:hr>
            <ns3:cad>0</ns3:cad>
          </ns3:TrackPointExtension>
        </extensions>
      </trkpt>
      <trkpt lat="45.37060107104480266571044921875" lon="-70.80823232419788837432861328125">
        <ele>450.79998779296875</ele>
        <time>2026-08-21T10:21:11.000Z</time>
        <extensions>
          <ns3:TrackPointExtension>
            <ns3:hr>116</ns3:hr>
            <ns3:cad>0</ns3:cad>
          </ns3:TrackPointExtension>
        </extensions>
      </trkpt>
      <trkpt lat="45.37058799527585506439208984375" lon="-70.80822385847568511962890625">
        <ele>450.79998779296875</ele>
        <time>2026-08-21T10:21:12.000Z</time>
        <extensions>
          <ns3:TrackPointExtension>
            <ns3:hr>116</ns3:hr>
            <ns3:cad>54</ns3:cad>
          </ns3:TrackPointExtension>
        </extensions>
      </trkpt>
      <trkpt lat="45.37057776935398578643798828125" lon="-70.8082136325538158416748046875">
        <ele>450.79998779296875</ele>
        <time>2026-08-21T10:21:13.000Z</time>
        <extensions>
          <ns3:TrackPointExtension>
            <ns3:hr>115</ns3:hr>
            <ns3:cad>55</ns3:cad>
          </ns3:TrackPointExtension>
        </extensions>
      </trkpt>
      <trkpt lat="45.3705651126801967620849609375" lon="-70.808201394975185394287109375">
        <ele>450.79998779296875</ele>
        <time>2026-08-21T10:21:14.000Z</time>
        <extensions>
          <ns3:TrackPointExtension>
            <ns3:hr>115</ns3:hr>
            <ns3:cad>55</ns3:cad>
          </ns3:TrackPointExtension>
        </extensions>
      </trkpt>
      <trkpt lat="45.37055186927318572998046875" lon="-70.80819125287234783172607421875">
        <ele>450.79998779296875</ele>
        <time>2026-08-21T10:21:15.000Z</time>
        <extensions>
          <ns3:TrackPointExtension>
            <ns3:hr>116</ns3:hr>
            <ns3:cad>55</ns3:cad>
          </ns3:TrackPointExtension>
        </extensions>
      </trkpt>
      <trkpt lat="45.37053979933261871337890625" lon="-70.8081811107695102691650390625">
        <ele>450.79998779296875</ele>
        <time>2026-08-21T10:21:16.000Z</time>
        <extensions>
          <ns3:TrackPointExtension>
            <ns3:hr>116</ns3:hr>
            <ns3:cad>55</ns3:cad>
          </ns3:TrackPointExtension>
        </extensions>
      </trkpt>
      <trkpt lat="45.37052865140140056610107421875" lon="-70.8081737346947193145751953125">
        <ele>450.79998779296875</ele>
        <time>2026-08-21T10:21:17.000Z</time>
        <extensions>
          <ns3:TrackPointExtension>
            <ns3:hr>116</ns3:hr>
            <ns3:cad>54</ns3:cad>
          </ns3:TrackPointExtension>
        </extensions>
      </trkpt>
      <trkpt lat="45.3705134801566600799560546875" lon="-70.8081650175154209136962890625">
        <ele>451</ele>
        <time>2026-08-21T10:21:18.000Z</time>
        <extensions>
          <ns3:TrackPointExtension>
            <ns3:hr>116</ns3:hr>
            <ns3:cad>54</ns3:cad>
          </ns3:TrackPointExtension>
        </extensions>
      </trkpt>
      <trkpt lat="45.37049378268420696258544921875" lon="-70.8081569708883762359619140625">
        <ele>451</ele>
        <time>2026-08-21T10:21:19.000Z</time>
        <extensions>
          <ns3:TrackPointExtension>
            <ns3:hr>116</ns3:hr>
            <ns3:cad>52</ns3:cad>
          </ns3:TrackPointExtension>
        </extensions>
      </trkpt>
      <trkpt lat="45.37047450430691242218017578125" lon="-70.80815319903194904327392578125">
        <ele>451</ele>
        <time>2026-08-21T10:21:20.000Z</time>
        <extensions>
          <ns3:TrackPointExtension>
            <ns3:hr>117</ns3:hr>
            <ns3:cad>52</ns3:cad>
          </ns3:TrackPointExtension>
        </extensions>
      </trkpt>
      <trkpt lat="45.370456986129283905029296875" lon="-70.80815420486032962799072265625">
        <ele>451.20001220703125</ele>
        <time>2026-08-21T10:21:21.000Z</time>
        <extensions>
          <ns3:TrackPointExtension>
            <ns3:hr>116</ns3:hr>
            <ns3:cad>52</ns3:cad>
          </ns3:TrackPointExtension>
        </extensions>
      </trkpt>
      <trkpt lat="45.37043997086584568023681640625" lon="-70.80815370194613933563232421875">
        <ele>451.20001220703125</ele>
        <time>2026-08-21T10:21:22.000Z</time>
        <extensions>
          <ns3:TrackPointExtension>
            <ns3:hr>116</ns3:hr>
            <ns3:cad>52</ns3:cad>
          </ns3:TrackPointExtension>
        </extensions>
      </trkpt>
      <trkpt lat="45.37042572163045406341552734375" lon="-70.80815202556550502777099609375">
        <ele>451.20001220703125</ele>
        <time>2026-08-21T10:21:23.000Z</time>
        <extensions>
          <ns3:TrackPointExtension>
            <ns3:hr>116</ns3:hr>
            <ns3:cad>52</ns3:cad>
          </ns3:TrackPointExtension>
        </extensions>
      </trkpt>
      <trkpt lat="45.3704090416431427001953125" lon="-70.808147080242633819580078125">
        <ele>451.20001220703125</ele>
        <time>2026-08-21T10:21:24.000Z</time>
        <extensions>
          <ns3:TrackPointExtension>
            <ns3:hr>116</ns3:hr>
            <ns3:cad>55</ns3:cad>
          </ns3:TrackPointExtension>
        </extensions>
      </trkpt>
      <trkpt lat="45.370394289493560791015625" lon="-70.8081438951194286346435546875">
        <ele>451.20001220703125</ele>
        <time>2026-08-21T10:21:25.000Z</time>
        <extensions>
          <ns3:TrackPointExtension>
            <ns3:hr>116</ns3:hr>
            <ns3:cad>55</ns3:cad>
          </ns3:TrackPointExtension>
        </extensions>
      </trkpt>
      <trkpt lat="45.37038154900074005126953125" lon="-70.80813962034881114959716796875">
        <ele>451</ele>
        <time>2026-08-21T10:21:26.000Z</time>
        <extensions>
          <ns3:TrackPointExtension>
            <ns3:hr>117</ns3:hr>
            <ns3:cad>55</ns3:cad>
          </ns3:TrackPointExtension>
        </extensions>
      </trkpt>
      <trkpt lat="45.37036813795566558837890625" lon="-70.80812972970306873321533203125">
        <ele>451</ele>
        <time>2026-08-21T10:21:27.000Z</time>
        <extensions>
          <ns3:TrackPointExtension>
            <ns3:hr>116</ns3:hr>
            <ns3:cad>55</ns3:cad>
          </ns3:TrackPointExtension>
        </extensions>
      </trkpt>
      <trkpt lat="45.37035548128187656402587890625" lon="-70.8081157319247722625732421875">
        <ele>451</ele>
        <time>2026-08-21T10:21:28.000Z</time>
        <extensions>
          <ns3:TrackPointExtension>
            <ns3:hr>116</ns3:hr>
            <ns3:cad>55</ns3:cad>
          </ns3:TrackPointExtension>
        </extensions>
      </trkpt>
      <trkpt lat="45.3703431598842144012451171875" lon="-70.80810257233679294586181640625">
        <ele>451</ele>
        <time>2026-08-21T10:21:29.000Z</time>
        <extensions>
          <ns3:TrackPointExtension>
            <ns3:hr>116</ns3:hr>
            <ns3:cad>55</ns3:cad>
          </ns3:TrackPointExtension>
        </extensions>
      </trkpt>
      <trkpt lat="45.37033368833363056182861328125" lon="-70.80809854902327060699462890625">
        <ele>451</ele>
        <time>2026-08-21T10:21:30.000Z</time>
        <extensions>
          <ns3:TrackPointExtension>
            <ns3:hr>116</ns3:hr>
            <ns3:cad>55</ns3:cad>
          </ns3:TrackPointExtension>
        </extensions>
      </trkpt>
      <trkpt lat="45.37033150903880596160888671875" lon="-70.80810181796550750732421875">
        <ele>451</ele>
        <time>2026-08-21T10:21:31.000Z</time>
        <extensions>
          <ns3:TrackPointExtension>
            <ns3:hr>116</ns3:hr>
            <ns3:cad>55</ns3:cad>
          </ns3:TrackPointExtension>
        </extensions>
      </trkpt>
      <trkpt lat="45.37032430060207843780517578125" lon="-70.80809519626200199127197265625">
        <ele>451.20001220703125</ele>
        <time>2026-08-21T10:21:32.000Z</time>
        <extensions>
          <ns3:TrackPointExtension>
            <ns3:hr>116</ns3:hr>
            <ns3:cad>62</ns3:cad>
          </ns3:TrackPointExtension>
        </extensions>
      </trkpt>
      <trkpt lat="45.3703126497566699981689453125" lon="-70.80808580853044986724853515625">
        <ele>451.20001220703125</ele>
        <time>2026-08-21T10:21:33.000Z</time>
        <extensions>
          <ns3:TrackPointExtension>
            <ns3:hr>116</ns3:hr>
            <ns3:cad>62</ns3:cad>
          </ns3:TrackPointExtension>
        </extensions>
      </trkpt>
      <trkpt lat="45.3703002445399761199951171875" lon="-70.80807692371308803558349609375">
        <ele>451.399993896484375</ele>
        <time>2026-08-21T10:21:34.000Z</time>
        <extensions>
          <ns3:TrackPointExtension>
            <ns3:hr>117</ns3:hr>
            <ns3:cad>62</ns3:cad>
          </ns3:TrackPointExtension>
        </extensions>
      </trkpt>
      <trkpt lat="45.37028859369456768035888671875" lon="-70.80807524733245372772216796875">
        <ele>451.399993896484375</ele>
        <time>2026-08-21T10:21:35.000Z</time>
        <extensions>
          <ns3:TrackPointExtension>
            <ns3:hr>117</ns3:hr>
            <ns3:cad>62</ns3:cad>
          </ns3:TrackPointExtension>
        </extensions>
      </trkpt>
      <trkpt lat="45.37027786485850811004638671875" lon="-70.8080691285431385040283203125">
        <ele>451.399993896484375</ele>
        <time>2026-08-21T10:21:36.000Z</time>
        <extensions>
          <ns3:TrackPointExtension>
            <ns3:hr>117</ns3:hr>
            <ns3:cad>62</ns3:cad>
          </ns3:TrackPointExtension>
        </extensions>
      </trkpt>
      <trkpt lat="45.3702724166214466094970703125" lon="-70.80805345438420772552490234375">
        <ele>451.399993896484375</ele>
        <time>2026-08-21T10:21:37.000Z</time>
        <extensions>
          <ns3:TrackPointExtension>
            <ns3:hr>117</ns3:hr>
            <ns3:cad>62</ns3:cad>
          </ns3:TrackPointExtension>
        </extensions>
      </trkpt>
      <trkpt lat="45.37026428617537021636962890625" lon="-70.80803819932043552398681640625">
        <ele>451.20001220703125</ele>
        <time>2026-08-21T10:21:38.000Z</time>
        <extensions>
          <ns3:TrackPointExtension>
            <ns3:hr>117</ns3:hr>
            <ns3:cad>57</ns3:cad>
          </ns3:TrackPointExtension>
        </extensions>
      </trkpt>
      <trkpt lat="45.37026110105216503143310546875" lon="-70.80802529118955135345458984375">
        <ele>451.20001220703125</ele>
        <time>2026-08-21T10:21:39.000Z</time>
        <extensions>
          <ns3:TrackPointExtension>
            <ns3:hr>117</ns3:hr>
            <ns3:cad>57</ns3:cad>
          </ns3:TrackPointExtension>
        </extensions>
      </trkpt>
      <trkpt lat="45.3702613525092601776123046875" lon="-70.80800903029739856719970703125">
        <ele>451.20001220703125</ele>
        <time>2026-08-21T10:21:40.000Z</time>
        <extensions>
          <ns3:TrackPointExtension>
            <ns3:hr>117</ns3:hr>
            <ns3:cad>57</ns3:cad>
          </ns3:TrackPointExtension>
        </extensions>
      </trkpt>
      <trkpt lat="45.37025774829089641571044921875" lon="-70.8079926855862140655517578125">
        <ele>451.20001220703125</ele>
        <time>2026-08-21T10:21:41.000Z</time>
        <extensions>
          <ns3:TrackPointExtension>
            <ns3:hr>117</ns3:hr>
            <ns3:cad>57</ns3:cad>
          </ns3:TrackPointExtension>
        </extensions>
      </trkpt>
      <trkpt lat="45.37025422789156436920166015625" lon="-70.80797432921826839447021484375">
        <ele>451.399993896484375</ele>
        <time>2026-08-21T10:21:42.000Z</time>
        <extensions>
          <ns3:TrackPointExtension>
            <ns3:hr>117</ns3:hr>
            <ns3:cad>57</ns3:cad>
          </ns3:TrackPointExtension>
        </extensions>
      </trkpt>
      <trkpt lat="45.37025171332061290740966796875" lon="-70.8079469203948974609375">
        <ele>451.399993896484375</ele>
        <time>2026-08-21T10:21:43.000Z</time>
        <extensions>
          <ns3:TrackPointExtension>
            <ns3:hr>118</ns3:hr>
            <ns3:cad>53</ns3:cad>
          </ns3:TrackPointExtension>
        </extensions>
      </trkpt>
      <trkpt lat="45.37024903111159801483154296875" lon="-70.807925127446651458740234375">
        <ele>451.399993896484375</ele>
        <time>2026-08-21T10:21:44.000Z</time>
        <extensions>
          <ns3:TrackPointExtension>
            <ns3:hr>117</ns3:hr>
            <ns3:cad>53</ns3:cad>
          </ns3:TrackPointExtension>
        </extensions>
      </trkpt>
      <trkpt lat="45.37024500779807567596435546875" lon="-70.807910375297069549560546875">
        <ele>451.399993896484375</ele>
        <time>2026-08-21T10:21:45.000Z</time>
        <extensions>
          <ns3:TrackPointExtension>
            <ns3:hr>117</ns3:hr>
            <ns3:cad>53</ns3:cad>
          </ns3:TrackPointExtension>
        </extensions>
      </trkpt>
      <trkpt lat="45.3702402301132678985595703125" lon="-70.8078904263675212860107421875">
        <ele>451.600006103515625</ele>
        <time>2026-08-21T10:21:46.000Z</time>
        <extensions>
          <ns3:TrackPointExtension>
            <ns3:hr>118</ns3:hr>
            <ns3:cad>0</ns3:cad>
          </ns3:TrackPointExtension>
        </extensions>
      </trkpt>
      <trkpt lat="45.3702315129339694976806640625" lon="-70.80786922015249729156494140625">
        <ele>451.600006103515625</ele>
        <time>2026-08-21T10:21:47.000Z</time>
        <extensions>
          <ns3:TrackPointExtension>
            <ns3:hr>118</ns3:hr>
            <ns3:cad>0</ns3:cad>
          </ns3:TrackPointExtension>
        </extensions>
      </trkpt>
      <trkpt lat="45.37022539414465427398681640625" lon="-70.807855390012264251708984375">
        <ele>451.600006103515625</ele>
        <time>2026-08-21T10:21:48.000Z</time>
        <extensions>
          <ns3:TrackPointExtension>
            <ns3:hr>118</ns3:hr>
            <ns3:cad>0</ns3:cad>
          </ns3:TrackPointExtension>
        </extensions>
      </trkpt>
      <trkpt lat="45.370216928422451019287109375" lon="-70.8078391291201114654541015625">
        <ele>451.79998779296875</ele>
        <time>2026-08-21T10:21:49.000Z</time>
        <extensions>
          <ns3:TrackPointExtension>
            <ns3:hr>118</ns3:hr>
            <ns3:cad>0</ns3:cad>
          </ns3:TrackPointExtension>
        </extensions>
      </trkpt>
      <trkpt lat="45.37020829506218433380126953125" lon="-70.807827226817607879638671875">
        <ele>451.79998779296875</ele>
        <time>2026-08-21T10:21:50.000Z</time>
        <extensions>
          <ns3:TrackPointExtension>
            <ns3:hr>118</ns3:hr>
            <ns3:cad>0</ns3:cad>
          </ns3:TrackPointExtension>
        </extensions>
      </trkpt>
      <trkpt lat="45.37019639275968074798583984375" lon="-70.80781213939189910888671875">
        <ele>451.79998779296875</ele>
        <time>2026-08-21T10:21:51.000Z</time>
        <extensions>
          <ns3:TrackPointExtension>
            <ns3:hr>117</ns3:hr>
            <ns3:cad>0</ns3:cad>
          </ns3:TrackPointExtension>
        </extensions>
      </trkpt>
      <trkpt lat="45.37018968723714351654052734375" lon="-70.80779981799423694610595703125">
        <ele>451.79998779296875</ele>
        <time>2026-08-21T10:21:52.000Z</time>
        <extensions>
          <ns3:TrackPointExtension>
            <ns3:hr>117</ns3:hr>
            <ns3:cad>0</ns3:cad>
          </ns3:TrackPointExtension>
        </extensions>
      </trkpt>
      <trkpt lat="45.37017979659140110015869140625" lon="-70.807785652577877044677734375">
        <ele>451.79998779296875</ele>
        <time>2026-08-21T10:21:53.000Z</time>
        <extensions>
          <ns3:TrackPointExtension>
            <ns3:hr>117</ns3:hr>
            <ns3:cad>0</ns3:cad>
          </ns3:TrackPointExtension>
        </extensions>
      </trkpt>
      <trkpt lat="45.37016638554632663726806640625" lon="-70.8077712357044219970703125">
        <ele>451.79998779296875</ele>
        <time>2026-08-21T10:21:54.000Z</time>
        <extensions>
          <ns3:TrackPointExtension>
            <ns3:hr>116</ns3:hr>
            <ns3:cad>0</ns3:cad>
          </ns3:TrackPointExtension>
        </extensions>
      </trkpt>
      <trkpt lat="45.37015398032963275909423828125" lon="-70.80775924958288669586181640625">
        <ele>452</ele>
        <time>2026-08-21T10:21:55.000Z</time>
        <extensions>
          <ns3:TrackPointExtension>
            <ns3:hr>116</ns3:hr>
            <ns3:cad>0</ns3:cad>
          </ns3:TrackPointExtension>
        </extensions>
      </trkpt>
      <trkpt lat="45.37014073692262172698974609375" lon="-70.8077452518045902252197265625">
        <ele>452</ele>
        <time>2026-08-21T10:21:56.000Z</time>
        <extensions>
          <ns3:TrackPointExtension>
            <ns3:hr>117</ns3:hr>
            <ns3:cad>0</ns3:cad>
          </ns3:TrackPointExtension>
        </extensions>
      </trkpt>
      <trkpt lat="45.3701274096965789794921875" lon="-70.8077363669872283935546875">
        <ele>452</ele>
        <time>2026-08-21T10:21:57.000Z</time>
        <extensions>
          <ns3:TrackPointExtension>
            <ns3:hr>117</ns3:hr>
            <ns3:cad>0</ns3:cad>
          </ns3:TrackPointExtension>
        </extensions>
      </trkpt>
      <trkpt lat="45.3701141662895679473876953125" lon="-70.8077251352369785308837890625">
        <ele>452</ele>
        <time>2026-08-21T10:21:58.000Z</time>
        <extensions>
          <ns3:TrackPointExtension>
            <ns3:hr>117</ns3:hr>
            <ns3:cad>0</ns3:cad>
          </ns3:TrackPointExtension>
        </extensions>
      </trkpt>
      <trkpt lat="45.37009547464549541473388671875" lon="-70.80772153101861476898193359375">
        <ele>452</ele>
        <time>2026-08-21T10:21:59.000Z</time>
        <extensions>
          <ns3:TrackPointExtension>
            <ns3:hr>116</ns3:hr>
            <ns3:cad>0</ns3:cad>
          </ns3:TrackPointExtension>
        </extensions>
      </trkpt>
      <trkpt lat="45.37008122541010379791259765625" lon="-70.8077197708189487457275390625">
        <ele>452</ele>
        <time>2026-08-21T10:22:00.000Z</time>
        <extensions>
          <ns3:TrackPointExtension>
            <ns3:hr>116</ns3:hr>
            <ns3:cad>0</ns3:cad>
          </ns3:TrackPointExtension>
        </extensions>
      </trkpt>
      <trkpt lat="45.37006965838372707366943359375" lon="-70.80772773362696170806884765625">
        <ele>451.79998779296875</ele>
        <time>2026-08-21T10:22:01.000Z</time>
        <extensions>
          <ns3:TrackPointExtension>
            <ns3:hr>116</ns3:hr>
            <ns3:cad>0</ns3:cad>
          </ns3:TrackPointExtension>
        </extensions>
      </trkpt>
      <trkpt lat="45.37005457095801830291748046875" lon="-70.80773695372045040130615234375">
        <ele>451.79998779296875</ele>
        <time>2026-08-21T10:22:02.000Z</time>
        <extensions>
          <ns3:TrackPointExtension>
            <ns3:hr>116</ns3:hr>
            <ns3:cad>0</ns3:cad>
          </ns3:TrackPointExtension>
        </extensions>
      </trkpt>
      <trkpt lat="45.370045267045497894287109375" lon="-70.807742737233638763427734375">
        <ele>451.79998779296875</ele>
        <time>2026-08-21T10:22:03.000Z</time>
        <extensions>
          <ns3:TrackPointExtension>
            <ns3:hr>116</ns3:hr>
            <ns3:cad>0</ns3:cad>
          </ns3:TrackPointExtension>
        </extensions>
      </trkpt>
      <trkpt lat="45.3700308501720428466796875" lon="-70.807734690606594085693359375">
        <ele>451.79998779296875</ele>
        <time>2026-08-21T10:22:04.000Z</time>
        <extensions>
          <ns3:TrackPointExtension>
            <ns3:hr>116</ns3:hr>
            <ns3:cad>0</ns3:cad>
          </ns3:TrackPointExtension>
        </extensions>
      </trkpt>
      <trkpt lat="45.37001886405050754547119140625" lon="-70.8077294938266277313232421875">
        <ele>451.79998779296875</ele>
        <time>2026-08-21T10:22:05.000Z</time>
        <extensions>
          <ns3:TrackPointExtension>
            <ns3:hr>115</ns3:hr>
            <ns3:cad>0</ns3:cad>
          </ns3:TrackPointExtension>
        </extensions>
      </trkpt>
      <trkpt lat="45.37000226788222789764404296875" lon="-70.80773024819791316986083984375">
        <ele>451.79998779296875</ele>
        <time>2026-08-21T10:22:06.000Z</time>
        <extensions>
          <ns3:TrackPointExtension>
            <ns3:hr>115</ns3:hr>
            <ns3:cad>0</ns3:cad>
          </ns3:TrackPointExtension>
        </extensions>
      </trkpt>
      <trkpt lat="45.36998483352363109588623046875" lon="-70.807731337845325469970703125">
        <ele>451.79998779296875</ele>
        <time>2026-08-21T10:22:07.000Z</time>
        <extensions>
          <ns3:TrackPointExtension>
            <ns3:hr>116</ns3:hr>
            <ns3:cad>55</ns3:cad>
          </ns3:TrackPointExtension>
        </extensions>
      </trkpt>
      <trkpt lat="45.3699666447937488555908203125" lon="-70.807729661464691162109375">
        <ele>451.600006103515625</ele>
        <time>2026-08-21T10:22:08.000Z</time>
        <extensions>
          <ns3:TrackPointExtension>
            <ns3:hr>116</ns3:hr>
            <ns3:cad>55</ns3:cad>
          </ns3:TrackPointExtension>
        </extensions>
      </trkpt>
      <trkpt lat="45.369949378073215484619140625" lon="-70.80772773362696170806884765625">
        <ele>451.600006103515625</ele>
        <time>2026-08-21T10:22:09.000Z</time>
        <extensions>
          <ns3:TrackPointExtension>
            <ns3:hr>116</ns3:hr>
            <ns3:cad>55</ns3:cad>
          </ns3:TrackPointExtension>
        </extensions>
      </trkpt>
      <trkpt lat="45.36993035115301609039306640625" lon="-70.80772764980792999267578125">
        <ele>451.79998779296875</ele>
        <time>2026-08-21T10:22:10.000Z</time>
        <extensions>
          <ns3:TrackPointExtension>
            <ns3:hr>116</ns3:hr>
            <ns3:cad>55</ns3:cad>
          </ns3:TrackPointExtension>
        </extensions>
      </trkpt>
      <trkpt lat="45.3699130006134510040283203125" lon="-70.80772588960826396942138671875">
        <ele>451.79998779296875</ele>
        <time>2026-08-21T10:22:11.000Z</time>
        <extensions>
          <ns3:TrackPointExtension>
            <ns3:hr>116</ns3:hr>
            <ns3:cad>55</ns3:cad>
          </ns3:TrackPointExtension>
        </extensions>
      </trkpt>
      <trkpt lat="45.36989849992096424102783203125" lon="-70.8077177591621875762939453125">
        <ele>452</ele>
        <time>2026-08-21T10:22:12.000Z</time>
        <extensions>
          <ns3:TrackPointExtension>
            <ns3:hr>115</ns3:hr>
            <ns3:cad>55</ns3:cad>
          </ns3:TrackPointExtension>
        </extensions>
      </trkpt>
      <trkpt lat="45.36988123320043087005615234375" lon="-70.80771432258188724517822265625">
        <ele>452.20001220703125</ele>
        <time>2026-08-21T10:22:13.000Z</time>
        <extensions>
          <ns3:TrackPointExtension>
            <ns3:hr>115</ns3:hr>
            <ns3:cad>55</ns3:cad>
          </ns3:TrackPointExtension>
        </extensions>
      </trkpt>
      <trkpt lat="45.36986681632697582244873046875" lon="-70.80771164037287235260009765625">
        <ele>452.399993896484375</ele>
        <time>2026-08-21T10:22:14.000Z</time>
        <extensions>
          <ns3:TrackPointExtension>
            <ns3:hr>115</ns3:hr>
            <ns3:cad>55</ns3:cad>
          </ns3:TrackPointExtension>
        </extensions>
      </trkpt>
      <trkpt lat="45.36985575221478939056396484375" lon="-70.807708539068698883056640625">
        <ele>452.600006103515625</ele>
        <time>2026-08-21T10:22:15.000Z</time>
        <extensions>
          <ns3:TrackPointExtension>
            <ns3:hr>115</ns3:hr>
            <ns3:cad>55</ns3:cad>
          </ns3:TrackPointExtension>
        </extensions>
      </trkpt>
      <trkpt lat="45.36984234116971492767333984375" lon="-70.80770392902195453643798828125">
        <ele>452.79998779296875</ele>
        <time>2026-08-21T10:22:16.000Z</time>
        <extensions>
          <ns3:TrackPointExtension>
            <ns3:hr>116</ns3:hr>
            <ns3:cad>0</ns3:cad>
          </ns3:TrackPointExtension>
        </extensions>
      </trkpt>
      <trkpt lat="45.36983094178140163421630859375" lon="-70.807701833546161651611328125">
        <ele>453</ele>
        <time>2026-08-21T10:22:17.000Z</time>
        <extensions>
          <ns3:TrackPointExtension>
            <ns3:hr>116</ns3:hr>
            <ns3:cad>0</ns3:cad>
          </ns3:TrackPointExtension>
        </extensions>
      </trkpt>
      <trkpt lat="45.36981987766921520233154296875" lon="-70.8076986484229564666748046875">
        <ele>453.399993896484375</ele>
        <time>2026-08-21T10:22:18.000Z</time>
        <extensions>
          <ns3:TrackPointExtension>
            <ns3:hr>116</ns3:hr>
            <ns3:cad>51</ns3:cad>
          </ns3:TrackPointExtension>
        </extensions>
      </trkpt>
      <trkpt lat="45.3698140941560268402099609375" lon="-70.807689093053340911865234375">
        <ele>453.600006103515625</ele>
        <time>2026-08-21T10:22:19.000Z</time>
        <extensions>
          <ns3:TrackPointExtension>
            <ns3:hr>117</ns3:hr>
            <ns3:cad>53</ns3:cad>
          </ns3:TrackPointExtension>
        </extensions>
      </trkpt>
      <trkpt lat="45.36979992873966693878173828125" lon="-70.80767559818923473358154296875">
        <ele>454</ele>
        <time>2026-08-21T10:22:20.000Z</time>
        <extensions>
          <ns3:TrackPointExtension>
            <ns3:hr>117</ns3:hr>
            <ns3:cad>53</ns3:cad>
          </ns3:TrackPointExtension>
        </extensions>
      </trkpt>
      <trkpt lat="45.369783081114292144775390625" lon="-70.807676352560520172119140625">
        <ele>454.20001220703125</ele>
        <time>2026-08-21T10:22:21.000Z</time>
        <extensions>
          <ns3:TrackPointExtension>
            <ns3:hr>117</ns3:hr>
            <ns3:cad>53</ns3:cad>
          </ns3:TrackPointExtension>
        </extensions>
      </trkpt>
      <trkpt lat="45.36976757459342479705810546875" lon="-70.80767995677888393402099609375">
        <ele>454.20001220703125</ele>
        <time>2026-08-21T10:22:22.000Z</time>
        <extensions>
          <ns3:TrackPointExtension>
            <ns3:hr>117</ns3:hr>
            <ns3:cad>53</ns3:cad>
          </ns3:TrackPointExtension>
        </extensions>
      </trkpt>
      <trkpt lat="45.369755588471889495849609375" lon="-70.8076865784823894500732421875">
        <ele>454.399993896484375</ele>
        <time>2026-08-21T10:22:23.000Z</time>
        <extensions>
          <ns3:TrackPointExtension>
            <ns3:hr>117</ns3:hr>
            <ns3:cad>51</ns3:cad>
          </ns3:TrackPointExtension>
        </extensions>
      </trkpt>
      <trkpt lat="45.3697410039603710174560546875" lon="-70.8076963014900684356689453125">
        <ele>454.399993896484375</ele>
        <time>2026-08-21T10:22:24.000Z</time>
        <extensions>
          <ns3:TrackPointExtension>
            <ns3:hr>118</ns3:hr>
            <ns3:cad>51</ns3:cad>
          </ns3:TrackPointExtension>
        </extensions>
      </trkpt>
      <trkpt lat="45.3697329573333263397216796875" lon="-70.80770744942128658294677734375">
        <ele>454.399993896484375</ele>
        <time>2026-08-21T10:22:25.000Z</time>
        <extensions>
          <ns3:TrackPointExtension>
            <ns3:hr>119</ns3:hr>
            <ns3:cad>51</ns3:cad>
          </ns3:TrackPointExtension>
        </extensions>
      </trkpt>
      <trkpt lat="45.36972030065953731536865234375" lon="-70.80772253684699535369873046875">
        <ele>454.399993896484375</ele>
        <time>2026-08-21T10:22:26.000Z</time>
        <extensions>
          <ns3:TrackPointExtension>
            <ns3:hr>120</ns3:hr>
            <ns3:cad>51</ns3:cad>
          </ns3:TrackPointExtension>
        </extensions>
      </trkpt>
      <trkpt lat="45.369713008403778076171875" lon="-70.8077382110059261322021484375">
        <ele>454.399993896484375</ele>
        <time>2026-08-21T10:22:27.000Z</time>
        <extensions>
          <ns3:TrackPointExtension>
            <ns3:hr>121</ns3:hr>
            <ns3:cad>51</ns3:cad>
          </ns3:TrackPointExtension>
        </extensions>
      </trkpt>
      <trkpt lat="45.3697037883102893829345703125" lon="-70.80774952657520771026611328125">
        <ele>454.399993896484375</ele>
        <time>2026-08-21T10:22:28.000Z</time>
        <extensions>
          <ns3:TrackPointExtension>
            <ns3:hr>122</ns3:hr>
            <ns3:cad>51</ns3:cad>
          </ns3:TrackPointExtension>
        </extensions>
      </trkpt>
      <trkpt lat="45.36968962289392948150634765625" lon="-70.8077620156109333038330078125">
        <ele>454.600006103515625</ele>
        <time>2026-08-21T10:22:29.000Z</time>
        <extensions>
          <ns3:TrackPointExtension>
            <ns3:hr>122</ns3:hr>
            <ns3:cad>51</ns3:cad>
          </ns3:TrackPointExtension>
        </extensions>
      </trkpt>
      <trkpt lat="45.36968023516237735748291015625" lon="-70.80776880495250225067138671875">
        <ele>454.79998779296875</ele>
        <time>2026-08-21T10:22:30.000Z</time>
        <extensions>
          <ns3:TrackPointExtension>
            <ns3:hr>123</ns3:hr>
            <ns3:cad>51</ns3:cad>
          </ns3:TrackPointExtension>
        </extensions>
      </trkpt>
      <trkpt lat="45.36967210471630096435546875" lon="-70.80777919851243495941162109375">
        <ele>455</ele>
        <time>2026-08-21T10:22:31.000Z</time>
        <extensions>
          <ns3:TrackPointExtension>
            <ns3:hr>123</ns3:hr>
            <ns3:cad>51</ns3:cad>
          </ns3:TrackPointExtension>
        </extensions>
      </trkpt>
      <trkpt lat="45.36966179497539997100830078125" lon="-70.8077888377010822296142578125">
        <ele>455.20001220703125</ele>
        <time>2026-08-21T10:22:32.000Z</time>
        <extensions>
          <ns3:TrackPointExtension>
            <ns3:hr>123</ns3:hr>
            <ns3:cad>51</ns3:cad>
          </ns3:TrackPointExtension>
        </extensions>
      </trkpt>
      <trkpt lat="45.369652323424816131591796875" lon="-70.807797051966190338134765625">
        <ele>455.399993896484375</ele>
        <time>2026-08-21T10:22:33.000Z</time>
        <extensions>
          <ns3:TrackPointExtension>
            <ns3:hr>123</ns3:hr>
            <ns3:cad>51</ns3:cad>
          </ns3:TrackPointExtension>
        </extensions>
      </trkpt>
      <trkpt lat="45.36964528262615203857421875" lon="-70.80779881216585636138916015625">
        <ele>455.600006103515625</ele>
        <time>2026-08-21T10:22:34.000Z</time>
        <extensions>
          <ns3:TrackPointExtension>
            <ns3:hr>124</ns3:hr>
            <ns3:cad>51</ns3:cad>
          </ns3:TrackPointExtension>
        </extensions>
      </trkpt>
      <trkpt lat="45.36963597871363162994384765625" lon="-70.8077952079474925994873046875">
        <ele>455.79998779296875</ele>
        <time>2026-08-21T10:22:35.000Z</time>
        <extensions>
          <ns3:TrackPointExtension>
            <ns3:hr>123</ns3:hr>
            <ns3:cad>0</ns3:cad>
          </ns3:TrackPointExtension>
        </extensions>
      </trkpt>
      <trkpt lat="45.36962055601179599761962890625" lon="-70.80779202282428741455078125">
        <ele>456</ele>
        <time>2026-08-21T10:22:36.000Z</time>
        <extensions>
          <ns3:TrackPointExtension>
            <ns3:hr>123</ns3:hr>
            <ns3:cad>0</ns3:cad>
          </ns3:TrackPointExtension>
        </extensions>
      </trkpt>
      <trkpt lat="45.3696099109947681427001953125" lon="-70.8077952079474925994873046875">
        <ele>456.20001220703125</ele>
        <time>2026-08-21T10:22:37.000Z</time>
        <extensions>
          <ns3:TrackPointExtension>
            <ns3:hr>124</ns3:hr>
            <ns3:cad>0</ns3:cad>
          </ns3:TrackPointExtension>
        </extensions>
      </trkpt>
      <trkpt lat="45.3696008585393428802490234375" lon="-70.80780166201293468475341796875">
        <ele>456.399993896484375</ele>
        <time>2026-08-21T10:22:38.000Z</time>
        <extensions>
          <ns3:TrackPointExtension>
            <ns3:hr>124</ns3:hr>
            <ns3:cad>0</ns3:cad>
          </ns3:TrackPointExtension>
        </extensions>
      </trkpt>
      <trkpt lat="45.3695909678936004638671875" lon="-70.80780937336385250091552734375">
        <ele>456.600006103515625</ele>
        <time>2026-08-21T10:22:39.000Z</time>
        <extensions>
          <ns3:TrackPointExtension>
            <ns3:hr>124</ns3:hr>
            <ns3:cad>0</ns3:cad>
          </ns3:TrackPointExtension>
        </extensions>
      </trkpt>
      <trkpt lat="45.3695777244865894317626953125" lon="-70.80781876109540462493896484375">
        <ele>456.600006103515625</ele>
        <time>2026-08-21T10:22:40.000Z</time>
        <extensions>
          <ns3:TrackPointExtension>
            <ns3:hr>125</ns3:hr>
            <ns3:cad>0</ns3:cad>
          </ns3:TrackPointExtension>
        </extensions>
      </trkpt>
      <trkpt lat="45.3695626370608806610107421875" lon="-70.8078270591795444488525390625">
        <ele>456.600006103515625</ele>
        <time>2026-08-21T10:22:41.000Z</time>
        <extensions>
          <ns3:TrackPointExtension>
            <ns3:hr>125</ns3:hr>
            <ns3:cad>0</ns3:cad>
          </ns3:TrackPointExtension>
        </extensions>
      </trkpt>
      <trkpt lat="45.36954930983483791351318359375" lon="-70.80783837474882602691650390625">
        <ele>456.600006103515625</ele>
        <time>2026-08-21T10:22:42.000Z</time>
        <extensions>
          <ns3:TrackPointExtension>
            <ns3:hr>126</ns3:hr>
            <ns3:cad>0</ns3:cad>
          </ns3:TrackPointExtension>
        </extensions>
      </trkpt>
      <trkpt lat="45.369536988437175750732421875" lon="-70.80784826539456844329833984375">
        <ele>456.600006103515625</ele>
        <time>2026-08-21T10:22:43.000Z</time>
        <extensions>
          <ns3:TrackPointExtension>
            <ns3:hr>126</ns3:hr>
            <ns3:cad>0</ns3:cad>
          </ns3:TrackPointExtension>
        </extensions>
      </trkpt>
      <trkpt lat="45.3695264272391796112060546875" lon="-70.80785597674548625946044921875">
        <ele>456.399993896484375</ele>
        <time>2026-08-21T10:22:44.000Z</time>
        <extensions>
          <ns3:TrackPointExtension>
            <ns3:hr>127</ns3:hr>
            <ns3:cad>0</ns3:cad>
          </ns3:TrackPointExtension>
        </extensions>
      </trkpt>
      <trkpt lat="45.3695183806121349334716796875" lon="-70.8078669570386409759521484375">
        <ele>456.399993896484375</ele>
        <time>2026-08-21T10:22:45.000Z</time>
        <extensions>
          <ns3:TrackPointExtension>
            <ns3:hr>127</ns3:hr>
            <ns3:cad>0</ns3:cad>
          </ns3:TrackPointExtension>
        </extensions>
      </trkpt>
      <trkpt lat="45.36951075308024883270263671875" lon="-70.8078703097999095916748046875">
        <ele>456.399993896484375</ele>
        <time>2026-08-21T10:22:46.000Z</time>
        <extensions>
          <ns3:TrackPointExtension>
            <ns3:hr>128</ns3:hr>
            <ns3:cad>0</ns3:cad>
          </ns3:TrackPointExtension>
        </extensions>
      </trkpt>
      <trkpt lat="45.3695042990148067474365234375" lon="-70.80786603502929210662841796875">
        <ele>456.399993896484375</ele>
        <time>2026-08-21T10:22:47.000Z</time>
        <extensions>
          <ns3:TrackPointExtension>
            <ns3:hr>129</ns3:hr>
            <ns3:cad>54</ns3:cad>
          </ns3:TrackPointExtension>
        </extensions>
      </trkpt>
      <trkpt lat="45.36949507892131805419921875" lon="-70.80785782076418399810791015625">
        <ele>456.399993896484375</ele>
        <time>2026-08-21T10:22:48.000Z</time>
        <extensions>
          <ns3:TrackPointExtension>
            <ns3:hr>130</ns3:hr>
            <ns3:cad>54</ns3:cad>
          </ns3:TrackPointExtension>
        </extensions>
      </trkpt>
      <trkpt lat="45.3694868646562099456787109375" lon="-70.80784566700458526611328125">
        <ele>456.399993896484375</ele>
        <time>2026-08-21T10:22:49.000Z</time>
        <extensions>
          <ns3:TrackPointExtension>
            <ns3:hr>130</ns3:hr>
            <ns3:cad>55</ns3:cad>
          </ns3:TrackPointExtension>
        </extensions>
      </trkpt>
      <trkpt lat="45.3694809973239898681640625" lon="-70.807835273444652557373046875">
        <ele>456.20001220703125</ele>
        <time>2026-08-21T10:22:50.000Z</time>
        <extensions>
          <ns3:TrackPointExtension>
            <ns3:hr>130</ns3:hr>
            <ns3:cad>56</ns3:cad>
          </ns3:TrackPointExtension>
        </extensions>
      </trkpt>
      <trkpt lat="45.36947437562048435211181640625" lon="-70.80782420933246612548828125">
        <ele>456.20001220703125</ele>
        <time>2026-08-21T10:22:51.000Z</time>
        <extensions>
          <ns3:TrackPointExtension>
            <ns3:hr>130</ns3:hr>
            <ns3:cad>56</ns3:cad>
          </ns3:TrackPointExtension>
        </extensions>
      </trkpt>
      <trkpt lat="45.3694654069840908050537109375" lon="-70.8078069426119327545166015625">
        <ele>456.20001220703125</ele>
        <time>2026-08-21T10:22:52.000Z</time>
        <extensions>
          <ns3:TrackPointExtension>
            <ns3:hr>130</ns3:hr>
            <ns3:cad>56</ns3:cad>
          </ns3:TrackPointExtension>
        </extensions>
      </trkpt>
      <trkpt lat="45.36945660598576068878173828125" lon="-70.80779847688972949981689453125">
        <ele>456.399993896484375</ele>
        <time>2026-08-21T10:22:53.000Z</time>
        <extensions>
          <ns3:TrackPointExtension>
            <ns3:hr>129</ns3:hr>
            <ns3:cad>56</ns3:cad>
          </ns3:TrackPointExtension>
        </extensions>
      </trkpt>
      <trkpt lat="45.3694530017673969268798828125" lon="-70.80779311247169971466064453125">
        <ele>456.399993896484375</ele>
        <time>2026-08-21T10:22:54.000Z</time>
        <extensions>
          <ns3:TrackPointExtension>
            <ns3:hr>129</ns3:hr>
            <ns3:cad>0</ns3:cad>
          </ns3:TrackPointExtension>
        </extensions>
      </trkpt>
      <trkpt lat="45.36944906227290630340576171875" lon="-70.807789005339145660400390625">
        <ele>456.600006103515625</ele>
        <time>2026-08-21T10:22:55.000Z</time>
        <extensions>
          <ns3:TrackPointExtension>
            <ns3:hr>128</ns3:hr>
            <ns3:cad>0</ns3:cad>
          </ns3:TrackPointExtension>
        </extensions>
      </trkpt>
      <trkpt lat="45.369444787502288818359375" lon="-70.8077824674546718597412109375">
        <ele>456.600006103515625</ele>
        <time>2026-08-21T10:22:56.000Z</time>
        <extensions>
          <ns3:TrackPointExtension>
            <ns3:hr>128</ns3:hr>
            <ns3:cad>0</ns3:cad>
          </ns3:TrackPointExtension>
        </extensions>
      </trkpt>
      <trkpt lat="45.36944135092198848724365234375" lon="-70.8077747561037540435791015625">
        <ele>456.600006103515625</ele>
        <time>2026-08-21T10:22:57.000Z</time>
        <extensions>
          <ns3:TrackPointExtension>
            <ns3:hr>128</ns3:hr>
            <ns3:cad>0</ns3:cad>
          </ns3:TrackPointExtension>
        </extensions>
      </trkpt>
      <trkpt lat="45.36943607032299041748046875" lon="-70.80776411108672618865966796875">
        <ele>456.600006103515625</ele>
        <time>2026-08-21T10:22:58.000Z</time>
        <extensions>
          <ns3:TrackPointExtension>
            <ns3:hr>128</ns3:hr>
            <ns3:cad>0</ns3:cad>
          </ns3:TrackPointExtension>
        </extensions>
      </trkpt>
      <trkpt lat="45.36943129263818264007568359375" lon="-70.8077576570212841033935546875">
        <ele>456.600006103515625</ele>
        <time>2026-08-21T10:22:59.000Z</time>
        <extensions>
          <ns3:TrackPointExtension>
            <ns3:hr>127</ns3:hr>
            <ns3:cad>0</ns3:cad>
          </ns3:TrackPointExtension>
        </extensions>
      </trkpt>
      <trkpt lat="45.36942542530596256256103515625" lon="-70.80775623209774494171142578125">
        <ele>456.79998779296875</ele>
        <time>2026-08-21T10:23:00.000Z</time>
        <extensions>
          <ns3:TrackPointExtension>
            <ns3:hr>127</ns3:hr>
            <ns3:cad>0</ns3:cad>
          </ns3:TrackPointExtension>
        </extensions>
      </trkpt>
      <trkpt lat="45.3694188036024570465087890625" lon="-70.80774248577654361724853515625">
        <ele>456.79998779296875</ele>
        <time>2026-08-21T10:23:01.000Z</time>
        <extensions>
          <ns3:TrackPointExtension>
            <ns3:hr>127</ns3:hr>
            <ns3:cad>0</ns3:cad>
          </ns3:TrackPointExtension>
        </extensions>
      </trkpt>
      <trkpt lat="45.369417630136013031005859375" lon="-70.8077298291027545928955078125">
        <ele>456.79998779296875</ele>
        <time>2026-08-21T10:23:02.000Z</time>
        <extensions>
          <ns3:TrackPointExtension>
            <ns3:hr>127</ns3:hr>
            <ns3:cad>0</ns3:cad>
          </ns3:TrackPointExtension>
        </extensions>
      </trkpt>
      <trkpt lat="45.36941519938409328460693359375" lon="-70.80771566368639469146728515625">
        <ele>456.79998779296875</ele>
        <time>2026-08-21T10:23:03.000Z</time>
        <extensions>
          <ns3:TrackPointExtension>
            <ns3:hr>127</ns3:hr>
            <ns3:cad>0</ns3:cad>
          </ns3:TrackPointExtension>
        </extensions>
      </trkpt>
      <trkpt lat="45.3694114275276660919189453125" lon="-70.80770359374582767486572265625">
        <ele>456.79998779296875</ele>
        <time>2026-08-21T10:23:04.000Z</time>
        <extensions>
          <ns3:TrackPointExtension>
            <ns3:hr>127</ns3:hr>
            <ns3:cad>0</ns3:cad>
          </ns3:TrackPointExtension>
        </extensions>
      </trkpt>
      <trkpt lat="45.36940430290997028350830078125" lon="-70.8076832257211208343505859375">
        <ele>456.600006103515625</ele>
        <time>2026-08-21T10:23:05.000Z</time>
        <extensions>
          <ns3:TrackPointExtension>
            <ns3:hr>126</ns3:hr>
            <ns3:cad>0</ns3:cad>
          </ns3:TrackPointExtension>
        </extensions>
      </trkpt>
      <trkpt lat="45.369396172463893890380859375" lon="-70.80766470171511173248291015625">
        <ele>456.600006103515625</ele>
        <time>2026-08-21T10:23:06.000Z</time>
        <extensions>
          <ns3:TrackPointExtension>
            <ns3:hr>126</ns3:hr>
            <ns3:cad>0</ns3:cad>
          </ns3:TrackPointExtension>
        </extensions>
      </trkpt>
      <trkpt lat="45.369388125836849212646484375" lon="-70.80764290876686573028564453125">
        <ele>456.399993896484375</ele>
        <time>2026-08-21T10:23:07.000Z</time>
        <extensions>
          <ns3:TrackPointExtension>
            <ns3:hr>126</ns3:hr>
            <ns3:cad>0</ns3:cad>
          </ns3:TrackPointExtension>
        </extensions>
      </trkpt>
      <trkpt lat="45.3693775646388530731201171875" lon="-70.8076242171227931976318359375">
        <ele>456.399993896484375</ele>
        <time>2026-08-21T10:23:08.000Z</time>
        <extensions>
          <ns3:TrackPointExtension>
            <ns3:hr>126</ns3:hr>
            <ns3:cad>0</ns3:cad>
          </ns3:TrackPointExtension>
        </extensions>
      </trkpt>
      <trkpt lat="45.36936365067958831787109375" lon="-70.807605274021625518798828125">
        <ele>456.600006103515625</ele>
        <time>2026-08-21T10:23:09.000Z</time>
        <extensions>
          <ns3:TrackPointExtension>
            <ns3:hr>126</ns3:hr>
            <ns3:cad>0</ns3:cad>
          </ns3:TrackPointExtension>
        </extensions>
      </trkpt>
      <trkpt lat="45.36935023963451385498046875" lon="-70.80758624710142612457275390625">
        <ele>456.600006103515625</ele>
        <time>2026-08-21T10:23:10.000Z</time>
        <extensions>
          <ns3:TrackPointExtension>
            <ns3:hr>127</ns3:hr>
            <ns3:cad>0</ns3:cad>
          </ns3:TrackPointExtension>
        </extensions>
      </trkpt>
      <trkpt lat="45.36934227682650089263916015625" lon="-70.8075675554573535919189453125">
        <ele>456.600006103515625</ele>
        <time>2026-08-21T10:23:11.000Z</time>
        <extensions>
          <ns3:TrackPointExtension>
            <ns3:hr>127</ns3:hr>
            <ns3:cad>0</ns3:cad>
          </ns3:TrackPointExtension>
        </extensions>
      </trkpt>
      <trkpt lat="45.36933146417140960693359375" lon="-70.80755137838423252105712890625">
        <ele>456.79998779296875</ele>
        <time>2026-08-21T10:23:12.000Z</time>
        <extensions>
          <ns3:TrackPointExtension>
            <ns3:hr>127</ns3:hr>
            <ns3:cad>0</ns3:cad>
          </ns3:TrackPointExtension>
        </extensions>
      </trkpt>
      <trkpt lat="45.369310677051544189453125" lon="-70.8075306750833988189697265625">
        <ele>456.79998779296875</ele>
        <time>2026-08-21T10:23:13.000Z</time>
        <extensions>
          <ns3:TrackPointExtension>
            <ns3:hr>127</ns3:hr>
            <ns3:cad>59</ns3:cad>
          </ns3:TrackPointExtension>
        </extensions>
      </trkpt>
      <trkpt lat="45.3692932426929473876953125" lon="-70.8075155876576900482177734375">
        <ele>456.79998779296875</ele>
        <time>2026-08-21T10:23:14.000Z</time>
        <extensions>
          <ns3:TrackPointExtension>
            <ns3:hr>128</ns3:hr>
            <ns3:cad>59</ns3:cad>
          </ns3:TrackPointExtension>
        </extensions>
      </trkpt>
      <trkpt lat="45.3692758083343505859375" lon="-70.807502008974552154541015625">
        <ele>457</ele>
        <time>2026-08-21T10:23:15.000Z</time>
        <extensions>
          <ns3:TrackPointExtension>
            <ns3:hr>128</ns3:hr>
            <ns3:cad>59</ns3:cad>
          </ns3:TrackPointExtension>
        </extensions>
      </trkpt>
      <trkpt lat="45.3692531771957874298095703125" lon="-70.80748951993882656097412109375">
        <ele>457</ele>
        <time>2026-08-21T10:23:16.000Z</time>
        <extensions>
          <ns3:TrackPointExtension>
            <ns3:hr>129</ns3:hr>
            <ns3:cad>59</ns3:cad>
          </ns3:TrackPointExtension>
        </extensions>
      </trkpt>
      <trkpt lat="45.3692280314862728118896484375" lon="-70.807482898235321044921875">
        <ele>457</ele>
        <time>2026-08-21T10:23:17.000Z</time>
        <extensions>
          <ns3:TrackPointExtension>
            <ns3:hr>129</ns3:hr>
            <ns3:cad>59</ns3:cad>
          </ns3:TrackPointExtension>
        </extensions>
      </trkpt>
      <trkpt lat="45.36920732818543910980224609375" lon="-70.80748683772981166839599609375">
        <ele>457</ele>
        <time>2026-08-21T10:23:18.000Z</time>
        <extensions>
          <ns3:TrackPointExtension>
            <ns3:hr>129</ns3:hr>
            <ns3:cad>59</ns3:cad>
          </ns3:TrackPointExtension>
        </extensions>
      </trkpt>
      <trkpt lat="45.36918503232300281524658203125" lon="-70.807495974004268646240234375">
        <ele>457</ele>
        <time>2026-08-21T10:23:19.000Z</time>
        <extensions>
          <ns3:TrackPointExtension>
            <ns3:hr>128</ns3:hr>
            <ns3:cad>59</ns3:cad>
          </ns3:TrackPointExtension>
        </extensions>
      </trkpt>
      <trkpt lat="45.369164831936359405517578125" lon="-70.80751039087772369384765625">
        <ele>457</ele>
        <time>2026-08-21T10:23:20.000Z</time>
        <extensions>
          <ns3:TrackPointExtension>
            <ns3:hr>127</ns3:hr>
            <ns3:cad>59</ns3:cad>
          </ns3:TrackPointExtension>
        </extensions>
      </trkpt>
      <trkpt lat="45.36915351636707782745361328125" lon="-70.8075276575982570648193359375">
        <ele>457</ele>
        <time>2026-08-21T10:23:21.000Z</time>
        <extensions>
          <ns3:TrackPointExtension>
            <ns3:hr>128</ns3:hr>
            <ns3:cad>59</ns3:cad>
          </ns3:TrackPointExtension>
        </extensions>
      </trkpt>
      <trkpt lat="45.3691425360739231109619140625" lon="-70.8075380511581897735595703125">
        <ele>457</ele>
        <time>2026-08-21T10:23:22.000Z</time>
        <extensions>
          <ns3:TrackPointExtension>
            <ns3:hr>128</ns3:hr>
            <ns3:cad>0</ns3:cad>
          </ns3:TrackPointExtension>
        </extensions>
      </trkpt>
      <trkpt lat="45.36912702955305576324462890625" lon="-70.80754416994750499725341796875">
        <ele>457</ele>
        <time>2026-08-21T10:23:23.000Z</time>
        <extensions>
          <ns3:TrackPointExtension>
            <ns3:hr>128</ns3:hr>
            <ns3:cad>0</ns3:cad>
          </ns3:TrackPointExtension>
        </extensions>
      </trkpt>
      <trkpt lat="45.36911445669829845428466796875" lon="-70.80754366703331470489501953125">
        <ele>457.20001220703125</ele>
        <time>2026-08-21T10:23:24.000Z</time>
        <extensions>
          <ns3:TrackPointExtension>
            <ns3:hr>128</ns3:hr>
            <ns3:cad>0</ns3:cad>
          </ns3:TrackPointExtension>
        </extensions>
      </trkpt>
      <trkpt lat="45.369099117815494537353515625" lon="-70.80755255185067653656005859375">
        <ele>457.20001220703125</ele>
        <time>2026-08-21T10:23:25.000Z</time>
        <extensions>
          <ns3:TrackPointExtension>
            <ns3:hr>128</ns3:hr>
            <ns3:cad>0</ns3:cad>
          </ns3:TrackPointExtension>
        </extensions>
      </trkpt>
      <trkpt lat="45.36908729933202266693115234375" lon="-70.80756378360092639923095703125">
        <ele>457.399993896484375</ele>
        <time>2026-08-21T10:23:26.000Z</time>
        <extensions>
          <ns3:TrackPointExtension>
            <ns3:hr>128</ns3:hr>
            <ns3:cad>0</ns3:cad>
          </ns3:TrackPointExtension>
        </extensions>
      </trkpt>
      <trkpt lat="45.36907942034304141998291015625" lon="-70.80757233314216136932373046875">
        <ele>457.399993896484375</ele>
        <time>2026-08-21T10:23:27.000Z</time>
        <extensions>
          <ns3:TrackPointExtension>
            <ns3:hr>128</ns3:hr>
            <ns3:cad>0</ns3:cad>
          </ns3:TrackPointExtension>
        </extensions>
      </trkpt>
      <trkpt lat="45.36907103843986988067626953125" lon="-70.807578451931476593017578125">
        <ele>457.399993896484375</ele>
        <time>2026-08-21T10:23:28.000Z</time>
        <extensions>
          <ns3:TrackPointExtension>
            <ns3:hr>128</ns3:hr>
            <ns3:cad>0</ns3:cad>
          </ns3:TrackPointExtension>
        </extensions>
      </trkpt>
      <trkpt lat="45.3690573759377002716064453125" lon="-70.80758926458656787872314453125">
        <ele>457.399993896484375</ele>
        <time>2026-08-21T10:23:29.000Z</time>
        <extensions>
          <ns3:TrackPointExtension>
            <ns3:hr>128</ns3:hr>
            <ns3:cad>0</ns3:cad>
          </ns3:TrackPointExtension>
        </extensions>
      </trkpt>
      <trkpt lat="45.369047820568084716796875" lon="-70.8075973950326442718505859375">
        <ele>457.399993896484375</ele>
        <time>2026-08-21T10:23:30.000Z</time>
        <extensions>
          <ns3:TrackPointExtension>
            <ns3:hr>128</ns3:hr>
            <ns3:cad>0</ns3:cad>
          </ns3:TrackPointExtension>
        </extensions>
      </trkpt>
      <trkpt lat="45.36903901956975460052490234375" lon="-70.8076084591448307037353515625">
        <ele>457.600006103515625</ele>
        <time>2026-08-21T10:23:31.000Z</time>
        <extensions>
          <ns3:TrackPointExtension>
            <ns3:hr>127</ns3:hr>
            <ns3:cad>0</ns3:cad>
          </ns3:TrackPointExtension>
        </extensions>
      </trkpt>
      <trkpt lat="45.369022674858570098876953125" lon="-70.80761424265801906585693359375">
        <ele>457.79998779296875</ele>
        <time>2026-08-21T10:23:32.000Z</time>
        <extensions>
          <ns3:TrackPointExtension>
            <ns3:hr>127</ns3:hr>
            <ns3:cad>0</ns3:cad>
          </ns3:TrackPointExtension>
        </extensions>
      </trkpt>
      <trkpt lat="45.3690144605934619903564453125" lon="-70.80761692486703395843505859375">
        <ele>457.79998779296875</ele>
        <time>2026-08-21T10:23:33.000Z</time>
        <extensions>
          <ns3:TrackPointExtension>
            <ns3:hr>126</ns3:hr>
            <ns3:cad>0</ns3:cad>
          </ns3:TrackPointExtension>
        </extensions>
      </trkpt>
      <trkpt lat="45.36900666542351245880126953125" lon="-70.80760896205902099609375">
        <ele>458</ele>
        <time>2026-08-21T10:23:34.000Z</time>
        <extensions>
          <ns3:TrackPointExtension>
            <ns3:hr>126</ns3:hr>
            <ns3:cad>0</ns3:cad>
          </ns3:TrackPointExtension>
        </extensions>
      </trkpt>
      <trkpt lat="45.36900079809129238128662109375" lon="-70.8076000772416591644287109375">
        <ele>458</ele>
        <time>2026-08-21T10:23:35.000Z</time>
        <extensions>
          <ns3:TrackPointExtension>
            <ns3:hr>126</ns3:hr>
            <ns3:cad>0</ns3:cad>
          </ns3:TrackPointExtension>
        </extensions>
      </trkpt>
      <trkpt lat="45.368995182216167449951171875" lon="-70.80759345553815364837646484375">
        <ele>458</ele>
        <time>2026-08-21T10:23:36.000Z</time>
        <extensions>
          <ns3:TrackPointExtension>
            <ns3:hr>126</ns3:hr>
            <ns3:cad>51</ns3:cad>
          </ns3:TrackPointExtension>
        </extensions>
      </trkpt>
      <trkpt lat="45.36898420192301273345947265625" lon="-70.80759010277688503265380859375">
        <ele>458.20001220703125</ele>
        <time>2026-08-21T10:23:37.000Z</time>
        <extensions>
          <ns3:TrackPointExtension>
            <ns3:hr>126</ns3:hr>
            <ns3:cad>51</ns3:cad>
          </ns3:TrackPointExtension>
        </extensions>
      </trkpt>
      <trkpt lat="45.36897095851600170135498046875" lon="-70.80759261734783649444580078125">
        <ele>458.399993896484375</ele>
        <time>2026-08-21T10:23:38.000Z</time>
        <extensions>
          <ns3:TrackPointExtension>
            <ns3:hr>126</ns3:hr>
            <ns3:cad>51</ns3:cad>
          </ns3:TrackPointExtension>
        </extensions>
      </trkpt>
      <trkpt lat="45.36895553581416606903076171875" lon="-70.8075963892042636871337890625">
        <ele>458.600006103515625</ele>
        <time>2026-08-21T10:23:39.000Z</time>
        <extensions>
          <ns3:TrackPointExtension>
            <ns3:hr>127</ns3:hr>
            <ns3:cad>51</ns3:cad>
          </ns3:TrackPointExtension>
        </extensions>
      </trkpt>
      <trkpt lat="45.36894313059747219085693359375" lon="-70.80759890377521514892578125">
        <ele>458.79998779296875</ele>
        <time>2026-08-21T10:23:40.000Z</time>
        <extensions>
          <ns3:TrackPointExtension>
            <ns3:hr>127</ns3:hr>
            <ns3:cad>51</ns3:cad>
          </ns3:TrackPointExtension>
        </extensions>
      </trkpt>
      <trkpt lat="45.36893307231366634368896484375" lon="-70.80759781412780284881591796875">
        <ele>459</ele>
        <time>2026-08-21T10:23:41.000Z</time>
        <extensions>
          <ns3:TrackPointExtension>
            <ns3:hr>127</ns3:hr>
            <ns3:cad>51</ns3:cad>
          </ns3:TrackPointExtension>
        </extensions>
      </trkpt>
      <trkpt lat="45.3689230978488922119140625" lon="-70.80759462900459766387939453125">
        <ele>459.20001220703125</ele>
        <time>2026-08-21T10:23:42.000Z</time>
        <extensions>
          <ns3:TrackPointExtension>
            <ns3:hr>127</ns3:hr>
            <ns3:cad>51</ns3:cad>
          </ns3:TrackPointExtension>
        </extensions>
      </trkpt>
      <trkpt lat="45.36891312338411808013916015625" lon="-70.80759714357554912567138671875">
        <ele>459.20001220703125</ele>
        <time>2026-08-21T10:23:43.000Z</time>
        <extensions>
          <ns3:TrackPointExtension>
            <ns3:hr>128</ns3:hr>
            <ns3:cad>50</ns3:cad>
          </ns3:TrackPointExtension>
        </extensions>
      </trkpt>
      <trkpt lat="45.368903316557407379150390625" lon="-70.80759714357554912567138671875">
        <ele>459.399993896484375</ele>
        <time>2026-08-21T10:23:44.000Z</time>
        <extensions>
          <ns3:TrackPointExtension>
            <ns3:hr>129</ns3:hr>
            <ns3:cad>50</ns3:cad>
          </ns3:TrackPointExtension>
        </extensions>
      </trkpt>
      <trkpt lat="45.3688934259116649627685546875" lon="-70.80759043805301189422607421875">
        <ele>459.79998779296875</ele>
        <time>2026-08-21T10:23:45.000Z</time>
        <extensions>
          <ns3:TrackPointExtension>
            <ns3:hr>130</ns3:hr>
            <ns3:cad>50</ns3:cad>
          </ns3:TrackPointExtension>
        </extensions>
      </trkpt>
      <trkpt lat="45.368882529437541961669921875" lon="-70.80758842639625072479248046875">
        <ele>460</ele>
        <time>2026-08-21T10:23:46.000Z</time>
        <extensions>
          <ns3:TrackPointExtension>
            <ns3:hr>131</ns3:hr>
            <ns3:cad>49</ns3:cad>
          </ns3:TrackPointExtension>
        </extensions>
      </trkpt>
      <trkpt lat="45.3688699565827846527099609375" lon="-70.80758993513882160186767578125">
        <ele>460.399993896484375</ele>
        <time>2026-08-21T10:23:47.000Z</time>
        <extensions>
          <ns3:TrackPointExtension>
            <ns3:hr>129</ns3:hr>
            <ns3:cad>49</ns3:cad>
          </ns3:TrackPointExtension>
        </extensions>
      </trkpt>
      <trkpt lat="45.36886149086058139801025390625" lon="-70.80758758820593357086181640625">
        <ele>460.600006103515625</ele>
        <time>2026-08-21T10:23:48.000Z</time>
        <extensions>
          <ns3:TrackPointExtension>
            <ns3:hr>128</ns3:hr>
            <ns3:cad>49</ns3:cad>
          </ns3:TrackPointExtension>
        </extensions>
      </trkpt>
      <trkpt lat="45.36884707398712635040283203125" lon="-70.8075846545398235321044921875">
        <ele>461</ele>
        <time>2026-08-21T10:23:49.000Z</time>
        <extensions>
          <ns3:TrackPointExtension>
            <ns3:hr>127</ns3:hr>
            <ns3:cad>49</ns3:cad>
          </ns3:TrackPointExtension>
        </extensions>
      </trkpt>
      <trkpt lat="45.36883751861751079559326171875" lon="-70.807584486901760101318359375">
        <ele>461.20001220703125</ele>
        <time>2026-08-21T10:23:50.000Z</time>
        <extensions>
          <ns3:TrackPointExtension>
            <ns3:hr>127</ns3:hr>
            <ns3:cad>51</ns3:cad>
          </ns3:TrackPointExtension>
        </extensions>
      </trkpt>
      <trkpt lat="45.36882410757243633270263671875" lon="-70.80758415162563323974609375">
        <ele>461.600006103515625</ele>
        <time>2026-08-21T10:23:51.000Z</time>
        <extensions>
          <ns3:TrackPointExtension>
            <ns3:hr>127</ns3:hr>
            <ns3:cad>51</ns3:cad>
          </ns3:TrackPointExtension>
        </extensions>
      </trkpt>
      <trkpt lat="45.36881036125123500823974609375" lon="-70.807580463588237762451171875">
        <ele>461.79998779296875</ele>
        <time>2026-08-21T10:23:52.000Z</time>
        <extensions>
          <ns3:TrackPointExtension>
            <ns3:hr>127</ns3:hr>
            <ns3:cad>51</ns3:cad>
          </ns3:TrackPointExtension>
        </extensions>
      </trkpt>
      <trkpt lat="45.3688015602529048919677734375" lon="-70.8075756020843982696533203125">
        <ele>461.79998779296875</ele>
        <time>2026-08-21T10:23:53.000Z</time>
        <extensions>
          <ns3:TrackPointExtension>
            <ns3:hr>127</ns3:hr>
            <ns3:cad>51</ns3:cad>
          </ns3:TrackPointExtension>
        </extensions>
      </trkpt>
      <trkpt lat="45.36878404207527637481689453125" lon="-70.8075715787708759307861328125">
        <ele>462</ele>
        <time>2026-08-21T10:23:54.000Z</time>
        <extensions>
          <ns3:TrackPointExtension>
            <ns3:hr>126</ns3:hr>
            <ns3:cad>51</ns3:cad>
          </ns3:TrackPointExtension>
        </extensions>
      </trkpt>
      <trkpt lat="45.36876954138278961181640625" lon="-70.80756914801895618438720703125">
        <ele>462</ele>
        <time>2026-08-21T10:23:55.000Z</time>
        <extensions>
          <ns3:TrackPointExtension>
            <ns3:hr>128</ns3:hr>
            <ns3:cad>51</ns3:cad>
          </ns3:TrackPointExtension>
        </extensions>
      </trkpt>
      <trkpt lat="45.36875638179481029510498046875" lon="-70.807566381990909576416015625">
        <ele>462.20001220703125</ele>
        <time>2026-08-21T10:23:56.000Z</time>
        <extensions>
          <ns3:TrackPointExtension>
            <ns3:hr>129</ns3:hr>
            <ns3:cad>51</ns3:cad>
          </ns3:TrackPointExtension>
        </extensions>
      </trkpt>
      <trkpt lat="45.36874137818813323974609375" lon="-70.80756277777254581451416015625">
        <ele>462.399993896484375</ele>
        <time>2026-08-21T10:23:57.000Z</time>
        <extensions>
          <ns3:TrackPointExtension>
            <ns3:hr>130</ns3:hr>
            <ns3:cad>51</ns3:cad>
          </ns3:TrackPointExtension>
        </extensions>
      </trkpt>
      <trkpt lat="45.3687247820198535919189453125" lon="-70.80756177194416522979736328125">
        <ele>462.600006103515625</ele>
        <time>2026-08-21T10:23:58.000Z</time>
        <extensions>
          <ns3:TrackPointExtension>
            <ns3:hr>131</ns3:hr>
            <ns3:cad>51</ns3:cad>
          </ns3:TrackPointExtension>
        </extensions>
      </trkpt>
      <trkpt lat="45.3687113709747791290283203125" lon="-70.80756604671478271484375">
        <ele>462.79998779296875</ele>
        <time>2026-08-21T10:23:59.000Z</time>
        <extensions>
          <ns3:TrackPointExtension>
            <ns3:hr>132</ns3:hr>
            <ns3:cad>51</ns3:cad>
          </ns3:TrackPointExtension>
        </extensions>
      </trkpt>
      <trkpt lat="45.368698127567768096923828125" lon="-70.80757342278957366943359375">
        <ele>463.20001220703125</ele>
        <time>2026-08-21T10:24:00.000Z</time>
        <extensions>
          <ns3:TrackPointExtension>
            <ns3:hr>132</ns3:hr>
            <ns3:cad>50</ns3:cad>
          </ns3:TrackPointExtension>
        </extensions>
      </trkpt>
      <trkpt lat="45.3686872310936450958251953125" lon="-70.8075732551515102386474609375">
        <ele>463.399993896484375</ele>
        <time>2026-08-21T10:24:01.000Z</time>
        <extensions>
          <ns3:TrackPointExtension>
            <ns3:hr>132</ns3:hr>
            <ns3:cad>50</ns3:cad>
          </ns3:TrackPointExtension>
        </extensions>
      </trkpt>
      <trkpt lat="45.3686781786382198333740234375" lon="-70.80756780691444873809814453125">
        <ele>463.79998779296875</ele>
        <time>2026-08-21T10:24:02.000Z</time>
        <extensions>
          <ns3:TrackPointExtension>
            <ns3:hr>132</ns3:hr>
            <ns3:cad>48</ns3:cad>
          </ns3:TrackPointExtension>
        </extensions>
      </trkpt>
      <trkpt lat="45.36866602487862110137939453125" lon="-70.80757015384733676910400390625">
        <ele>464</ele>
        <time>2026-08-21T10:24:03.000Z</time>
        <extensions>
          <ns3:TrackPointExtension>
            <ns3:hr>132</ns3:hr>
            <ns3:cad>48</ns3:cad>
          </ns3:TrackPointExtension>
        </extensions>
      </trkpt>
      <trkpt lat="45.3686469979584217071533203125" lon="-70.8075799606740474700927734375">
        <ele>464.20001220703125</ele>
        <time>2026-08-21T10:24:04.000Z</time>
        <extensions>
          <ns3:TrackPointExtension>
            <ns3:hr>133</ns3:hr>
            <ns3:cad>48</ns3:cad>
          </ns3:TrackPointExtension>
        </extensions>
      </trkpt>
      <trkpt lat="45.3686322458088397979736328125" lon="-70.80758507363498210906982421875">
        <ele>464.399993896484375</ele>
        <time>2026-08-21T10:24:05.000Z</time>
        <extensions>
          <ns3:TrackPointExtension>
            <ns3:hr>133</ns3:hr>
            <ns3:cad>48</ns3:cad>
          </ns3:TrackPointExtension>
        </extensions>
      </trkpt>
      <trkpt lat="45.36861875094473361968994140625" lon="-70.80758750438690185546875">
        <ele>464.600006103515625</ele>
        <time>2026-08-21T10:24:06.000Z</time>
        <extensions>
          <ns3:TrackPointExtension>
            <ns3:hr>133</ns3:hr>
            <ns3:cad>48</ns3:cad>
          </ns3:TrackPointExtension>
        </extensions>
      </trkpt>
      <trkpt lat="45.36861154250800609588623046875" lon="-70.80758792348206043243408203125">
        <ele>464.600006103515625</ele>
        <time>2026-08-21T10:24:07.000Z</time>
        <extensions>
          <ns3:TrackPointExtension>
            <ns3:hr>134</ns3:hr>
            <ns3:cad>49</ns3:cad>
          </ns3:TrackPointExtension>
        </extensions>
      </trkpt>
      <trkpt lat="45.36860416643321514129638671875" lon="-70.807587839663028717041015625">
        <ele>464.79998779296875</ele>
        <time>2026-08-21T10:24:08.000Z</time>
        <extensions>
          <ns3:TrackPointExtension>
            <ns3:hr>134</ns3:hr>
            <ns3:cad>49</ns3:cad>
          </ns3:TrackPointExtension>
        </extensions>
      </trkpt>
      <trkpt lat="45.36859377287328243255615234375" lon="-70.8075853250920772552490234375">
        <ele>465</ele>
        <time>2026-08-21T10:24:09.000Z</time>
        <extensions>
          <ns3:TrackPointExtension>
            <ns3:hr>134</ns3:hr>
            <ns3:cad>49</ns3:cad>
          </ns3:TrackPointExtension>
        </extensions>
      </trkpt>
      <trkpt lat="45.368575416505336761474609375" lon="-70.8075873367488384246826171875">
        <ele>465.20001220703125</ele>
        <time>2026-08-21T10:24:10.000Z</time>
        <extensions>
          <ns3:TrackPointExtension>
            <ns3:hr>134</ns3:hr>
            <ns3:cad>0</ns3:cad>
          </ns3:TrackPointExtension>
        </extensions>
      </trkpt>
      <trkpt lat="45.36856141872704029083251953125" lon="-70.8075950480997562408447265625">
        <ele>465.399993896484375</ele>
        <time>2026-08-21T10:24:11.000Z</time>
        <extensions>
          <ns3:TrackPointExtension>
            <ns3:hr>135</ns3:hr>
            <ns3:cad>0</ns3:cad>
          </ns3:TrackPointExtension>
        </extensions>
      </trkpt>
      <trkpt lat="45.36855219863355159759521484375" lon="-70.80759764648973941802978515625">
        <ele>465.600006103515625</ele>
        <time>2026-08-21T10:24:12.000Z</time>
        <extensions>
          <ns3:TrackPointExtension>
            <ns3:hr>134</ns3:hr>
            <ns3:cad>48</ns3:cad>
          </ns3:TrackPointExtension>
        </extensions>
      </trkpt>
      <trkpt lat="45.36854096688330173492431640625" lon="-70.80759831704199314117431640625">
        <ele>465.79998779296875</ele>
        <time>2026-08-21T10:24:13.000Z</time>
        <extensions>
          <ns3:TrackPointExtension>
            <ns3:hr>134</ns3:hr>
            <ns3:cad>48</ns3:cad>
          </ns3:TrackPointExtension>
        </extensions>
      </trkpt>
      <trkpt lat="45.3685313276946544647216796875" lon="-70.8075947128236293792724609375">
        <ele>466</ele>
        <time>2026-08-21T10:24:14.000Z</time>
        <extensions>
          <ns3:TrackPointExtension>
            <ns3:hr>135</ns3:hr>
            <ns3:cad>48</ns3:cad>
          </ns3:TrackPointExtension>
        </extensions>
      </trkpt>
      <trkpt lat="45.3685175813734531402587890625" lon="-70.80758842639625072479248046875">
        <ele>466.20001220703125</ele>
        <time>2026-08-21T10:24:15.000Z</time>
        <extensions>
          <ns3:TrackPointExtension>
            <ns3:hr>134</ns3:hr>
            <ns3:cad>48</ns3:cad>
          </ns3:TrackPointExtension>
        </extensions>
      </trkpt>
      <trkpt lat="45.3685095347464084625244140625" lon="-70.80758540891110897064208984375">
        <ele>466.600006103515625</ele>
        <time>2026-08-21T10:24:16.000Z</time>
        <extensions>
          <ns3:TrackPointExtension>
            <ns3:hr>134</ns3:hr>
            <ns3:cad>48</ns3:cad>
          </ns3:TrackPointExtension>
        </extensions>
      </trkpt>
      <trkpt lat="45.3685034997761249542236328125" lon="-70.8075829781591892242431640625">
        <ele>466.79998779296875</ele>
        <time>2026-08-21T10:24:17.000Z</time>
        <extensions>
          <ns3:TrackPointExtension>
            <ns3:hr>135</ns3:hr>
            <ns3:cad>48</ns3:cad>
          </ns3:TrackPointExtension>
        </extensions>
      </trkpt>
      <trkpt lat="45.3685021586716175079345703125" lon="-70.80757685936987400054931640625">
        <ele>467</ele>
        <time>2026-08-21T10:24:18.000Z</time>
        <extensions>
          <ns3:TrackPointExtension>
            <ns3:hr>135</ns3:hr>
            <ns3:cad>48</ns3:cad>
          </ns3:TrackPointExtension>
        </extensions>
      </trkpt>
      <trkpt lat="45.36849838681519031524658203125" lon="-70.80756981857120990753173828125">
        <ele>467.20001220703125</ele>
        <time>2026-08-21T10:24:19.000Z</time>
        <extensions>
          <ns3:TrackPointExtension>
            <ns3:hr>135</ns3:hr>
            <ns3:cad>48</ns3:cad>
          </ns3:TrackPointExtension>
        </extensions>
      </trkpt>
      <trkpt lat="45.36849620752036571502685546875" lon="-70.8075665496289730072021484375">
        <ele>467.600006103515625</ele>
        <time>2026-08-21T10:24:20.000Z</time>
        <extensions>
          <ns3:TrackPointExtension>
            <ns3:hr>135</ns3:hr>
            <ns3:cad>48</ns3:cad>
          </ns3:TrackPointExtension>
        </extensions>
      </trkpt>
      <trkpt lat="45.36848656833171844482421875" lon="-70.80754601396620273590087890625">
        <ele>467.79998779296875</ele>
        <time>2026-08-21T10:24:21.000Z</time>
        <extensions>
          <ns3:TrackPointExtension>
            <ns3:hr>135</ns3:hr>
            <ns3:cad>49</ns3:cad>
          </ns3:TrackPointExtension>
        </extensions>
      </trkpt>
      <trkpt lat="45.36848229356110095977783203125" lon="-70.80754366703331470489501953125">
        <ele>468.20001220703125</ele>
        <time>2026-08-21T10:24:22.000Z</time>
        <extensions>
          <ns3:TrackPointExtension>
            <ns3:hr>136</ns3:hr>
            <ns3:cad>49</ns3:cad>
          </ns3:TrackPointExtension>
        </extensions>
      </trkpt>
      <trkpt lat="45.36848229356110095977783203125" lon="-70.80753830261528491973876953125">
        <ele>468.399993896484375</ele>
        <time>2026-08-21T10:24:23.000Z</time>
        <extensions>
          <ns3:TrackPointExtension>
            <ns3:hr>136</ns3:hr>
            <ns3:cad>48</ns3:cad>
          </ns3:TrackPointExtension>
        </extensions>
      </trkpt>
      <trkpt lat="45.36848112009465694427490234375" lon="-70.80753008835017681121826171875">
        <ele>468.600006103515625</ele>
        <time>2026-08-21T10:24:24.000Z</time>
        <extensions>
          <ns3:TrackPointExtension>
            <ns3:hr>136</ns3:hr>
            <ns3:cad>47</ns3:cad>
          </ns3:TrackPointExtension>
        </extensions>
      </trkpt>
      <trkpt lat="45.3684783540666103363037109375" lon="-70.80752036534249782562255859375">
        <ele>468.79998779296875</ele>
        <time>2026-08-21T10:24:25.000Z</time>
        <extensions>
          <ns3:TrackPointExtension>
            <ns3:hr>136</ns3:hr>
            <ns3:cad>47</ns3:cad>
          </ns3:TrackPointExtension>
        </extensions>
      </trkpt>
      <trkpt lat="45.3684646077454090118408203125" lon="-70.80750293098390102386474609375">
        <ele>469</ele>
        <time>2026-08-21T10:24:26.000Z</time>
        <extensions>
          <ns3:TrackPointExtension>
            <ns3:hr>136</ns3:hr>
            <ns3:cad>48</ns3:cad>
          </ns3:TrackPointExtension>
        </extensions>
      </trkpt>
      <trkpt lat="45.36845295690000057220458984375" lon="-70.8074896037578582763671875">
        <ele>469.20001220703125</ele>
        <time>2026-08-21T10:24:27.000Z</time>
        <extensions>
          <ns3:TrackPointExtension>
            <ns3:hr>137</ns3:hr>
            <ns3:cad>48</ns3:cad>
          </ns3:TrackPointExtension>
        </extensions>
      </trkpt>
      <trkpt lat="45.36843820475041866302490234375" lon="-70.807481892406940460205078125">
        <ele>469.399993896484375</ele>
        <time>2026-08-21T10:24:28.000Z</time>
        <extensions>
          <ns3:TrackPointExtension>
            <ns3:hr>137</ns3:hr>
            <ns3:cad>48</ns3:cad>
          </ns3:TrackPointExtension>
        </extensions>
      </trkpt>
      <trkpt lat="45.36842714063823223114013671875" lon="-70.80747560597956180572509765625">
        <ele>469.600006103515625</ele>
        <time>2026-08-21T10:24:29.000Z</time>
        <extensions>
          <ns3:TrackPointExtension>
            <ns3:hr>137</ns3:hr>
            <ns3:cad>48</ns3:cad>
          </ns3:TrackPointExtension>
        </extensions>
      </trkpt>
      <trkpt lat="45.3684163279831409454345703125" lon="-70.80746906809508800506591796875">
        <ele>469.600006103515625</ele>
        <time>2026-08-21T10:24:30.000Z</time>
        <extensions>
          <ns3:TrackPointExtension>
            <ns3:hr>137</ns3:hr>
            <ns3:cad>48</ns3:cad>
          </ns3:TrackPointExtension>
        </extensions>
      </trkpt>
      <trkpt lat="45.36840786226093769073486328125" lon="-70.8074589259922504425048828125">
        <ele>469.79998779296875</ele>
        <time>2026-08-21T10:24:31.000Z</time>
        <extensions>
          <ns3:TrackPointExtension>
            <ns3:hr>137</ns3:hr>
            <ns3:cad>48</ns3:cad>
          </ns3:TrackPointExtension>
        </extensions>
      </trkpt>
      <trkpt lat="45.3684035874903202056884765625" lon="-70.80744744278490543365478515625">
        <ele>470</ele>
        <time>2026-08-21T10:24:32.000Z</time>
        <extensions>
          <ns3:TrackPointExtension>
            <ns3:hr>138</ns3:hr>
            <ns3:cad>48</ns3:cad>
          </ns3:TrackPointExtension>
        </extensions>
      </trkpt>
      <trkpt lat="45.36840249784290790557861328125" lon="-70.8074374683201313018798828125">
        <ele>470.20001220703125</ele>
        <time>2026-08-21T10:24:33.000Z</time>
        <extensions>
          <ns3:TrackPointExtension>
            <ns3:hr>138</ns3:hr>
            <ns3:cad>48</ns3:cad>
          </ns3:TrackPointExtension>
        </extensions>
      </trkpt>
      <trkpt lat="45.36840165965259075164794921875" lon="-70.8074277453124523162841796875">
        <ele>470.20001220703125</ele>
        <time>2026-08-21T10:24:34.000Z</time>
        <extensions>
          <ns3:TrackPointExtension>
            <ns3:hr>139</ns3:hr>
            <ns3:cad>48</ns3:cad>
          </ns3:TrackPointExtension>
        </extensions>
      </trkpt>
      <trkpt lat="45.3683952055871486663818359375" lon="-70.80741290934383869171142578125">
        <ele>470.399993896484375</ele>
        <time>2026-08-21T10:24:35.000Z</time>
        <extensions>
          <ns3:TrackPointExtension>
            <ns3:hr>139</ns3:hr>
            <ns3:cad>51</ns3:cad>
          </ns3:TrackPointExtension>
        </extensions>
      </trkpt>
      <trkpt lat="45.36838757805526256561279296875" lon="-70.80739866010844707489013671875">
        <ele>470.600006103515625</ele>
        <time>2026-08-21T10:24:36.000Z</time>
        <extensions>
          <ns3:TrackPointExtension>
            <ns3:hr>139</ns3:hr>
            <ns3:cad>49</ns3:cad>
          </ns3:TrackPointExtension>
        </extensions>
      </trkpt>
      <trkpt lat="45.3683844767510890960693359375" lon="-70.807391367852687835693359375">
        <ele>470.600006103515625</ele>
        <time>2026-08-21T10:24:37.000Z</time>
        <extensions>
          <ns3:TrackPointExtension>
            <ns3:hr>139</ns3:hr>
            <ns3:cad>49</ns3:cad>
          </ns3:TrackPointExtension>
        </extensions>
      </trkpt>
      <trkpt lat="45.3683841414749622344970703125" lon="-70.80738625489175319671630859375">
        <ele>470.600006103515625</ele>
        <time>2026-08-21T10:24:38.000Z</time>
        <extensions>
          <ns3:TrackPointExtension>
            <ns3:hr>139</ns3:hr>
            <ns3:cad>47</ns3:cad>
          </ns3:TrackPointExtension>
        </extensions>
      </trkpt>
      <trkpt lat="45.36838523112237453460693359375" lon="-70.80739044584333896636962890625">
        <ele>470.600006103515625</ele>
        <time>2026-08-21T10:24:39.000Z</time>
        <extensions>
          <ns3:TrackPointExtension>
            <ns3:hr>138</ns3:hr>
            <ns3:cad>47</ns3:cad>
          </ns3:TrackPointExtension>
        </extensions>
      </trkpt>
      <trkpt lat="45.36838606931269168853759765625" lon="-70.807395391166210174560546875">
        <ele>470.399993896484375</ele>
        <time>2026-08-21T10:24:40.000Z</time>
        <extensions>
          <ns3:TrackPointExtension>
            <ns3:hr>139</ns3:hr>
            <ns3:cad>0</ns3:cad>
          </ns3:TrackPointExtension>
        </extensions>
      </trkpt>
      <trkpt lat="45.36838690750300884246826171875" lon="-70.80739530734717845916748046875">
        <ele>470.399993896484375</ele>
        <time>2026-08-21T10:24:41.000Z</time>
        <extensions>
          <ns3:TrackPointExtension>
            <ns3:hr>139</ns3:hr>
            <ns3:cad>0</ns3:cad>
          </ns3:TrackPointExtension>
        </extensions>
      </trkpt>
      <trkpt lat="45.36838690750300884246826171875" lon="-70.80739530734717845916748046875">
        <ele>470.399993896484375</ele>
        <time>2026-08-21T10:24:42.000Z</time>
        <extensions>
          <ns3:TrackPointExtension>
            <ns3:hr>139</ns3:hr>
            <ns3:cad>0</ns3:cad>
          </ns3:TrackPointExtension>
        </extensions>
      </trkpt>
      <trkpt lat="45.36838623695075511932373046875" lon="-70.807395391166210174560546875">
        <ele>470.399993896484375</ele>
        <time>2026-08-21T10:24:43.000Z</time>
        <extensions>
          <ns3:TrackPointExtension>
            <ns3:hr>139</ns3:hr>
            <ns3:cad>0</ns3:cad>
          </ns3:TrackPointExtension>
        </extensions>
      </trkpt>
      <trkpt lat="45.36838422529399394989013671875" lon="-70.8073891885578632354736328125">
        <ele>470.399993896484375</ele>
        <time>2026-08-21T10:24:44.000Z</time>
        <extensions>
          <ns3:TrackPointExtension>
            <ns3:hr>139</ns3:hr>
            <ns3:cad>0</ns3:cad>
          </ns3:TrackPointExtension>
        </extensions>
      </trkpt>
      <trkpt lat="45.3683838061988353729248046875" lon="-70.8073849976062774658203125">
        <ele>470.399993896484375</ele>
        <time>2026-08-21T10:24:45.000Z</time>
        <extensions>
          <ns3:TrackPointExtension>
            <ns3:hr>140</ns3:hr>
            <ns3:cad>0</ns3:cad>
          </ns3:TrackPointExtension>
        </extensions>
      </trkpt>
      <trkpt lat="45.36838389001786708831787109375" lon="-70.80737217329442501068115234375">
        <ele>470.399993896484375</ele>
        <time>2026-08-21T10:24:46.000Z</time>
        <extensions>
          <ns3:TrackPointExtension>
            <ns3:hr>139</ns3:hr>
            <ns3:cad>0</ns3:cad>
          </ns3:TrackPointExtension>
        </extensions>
      </trkpt>
      <trkpt lat="45.36838506348431110382080078125" lon="-70.80734954215586185455322265625">
        <ele>470.20001220703125</ele>
        <time>2026-08-21T10:24:47.000Z</time>
        <extensions>
          <ns3:TrackPointExtension>
            <ns3:hr>139</ns3:hr>
            <ns3:cad>0</ns3:cad>
          </ns3:TrackPointExtension>
        </extensions>
      </trkpt>
      <trkpt lat="45.3683866560459136962890625" lon="-70.80732707865536212921142578125">
        <ele>470</ele>
        <time>2026-08-21T10:24:48.000Z</time>
        <extensions>
          <ns3:TrackPointExtension>
            <ns3:hr>138</ns3:hr>
            <ns3:cad>0</ns3:cad>
          </ns3:TrackPointExtension>
        </extensions>
      </trkpt>
      <trkpt lat="45.36838841624557971954345703125" lon="-70.8073134161531925201416015625">
        <ele>469.79998779296875</ele>
        <time>2026-08-21T10:24:49.000Z</time>
        <extensions>
          <ns3:TrackPointExtension>
            <ns3:hr>137</ns3:hr>
            <ns3:cad>0</ns3:cad>
          </ns3:TrackPointExtension>
        </extensions>
      </trkpt>
      <trkpt lat="45.36838925443589687347412109375" lon="-70.80729053355753421783447265625">
        <ele>469.600006103515625</ele>
        <time>2026-08-21T10:24:50.000Z</time>
        <extensions>
          <ns3:TrackPointExtension>
            <ns3:hr>137</ns3:hr>
            <ns3:cad>51</ns3:cad>
          </ns3:TrackPointExtension>
        </extensions>
      </trkpt>
      <trkpt lat="45.36838657222688198089599609375" lon="-70.8072735182940959930419921875">
        <ele>469.399993896484375</ele>
        <time>2026-08-21T10:24:51.000Z</time>
        <extensions>
          <ns3:TrackPointExtension>
            <ns3:hr>137</ns3:hr>
            <ns3:cad>51</ns3:cad>
          </ns3:TrackPointExtension>
        </extensions>
      </trkpt>
      <trkpt lat="45.36838238127529621124267578125" lon="-70.80725901760160923004150390625">
        <ele>469.20001220703125</ele>
        <time>2026-08-21T10:24:52.000Z</time>
        <extensions>
          <ns3:TrackPointExtension>
            <ns3:hr>136</ns3:hr>
            <ns3:cad>55</ns3:cad>
          </ns3:TrackPointExtension>
        </extensions>
      </trkpt>
      <trkpt lat="45.3683774359524250030517578125" lon="-70.80724225379526615142822265625">
        <ele>469</ele>
        <time>2026-08-21T10:24:53.000Z</time>
        <extensions>
          <ns3:TrackPointExtension>
            <ns3:hr>135</ns3:hr>
            <ns3:cad>55</ns3:cad>
          </ns3:TrackPointExtension>
        </extensions>
      </trkpt>
      <trkpt lat="45.36837349645793437957763671875" lon="-70.80722079612314701080322265625">
        <ele>469</ele>
        <time>2026-08-21T10:24:54.000Z</time>
        <extensions>
          <ns3:TrackPointExtension>
            <ns3:hr>135</ns3:hr>
            <ns3:cad>55</ns3:cad>
          </ns3:TrackPointExtension>
        </extensions>
      </trkpt>
      <trkpt lat="45.368366874754428863525390625" lon="-70.8072024397552013397216796875">
        <ele>468.79998779296875</ele>
        <time>2026-08-21T10:24:55.000Z</time>
        <extensions>
          <ns3:TrackPointExtension>
            <ns3:hr>135</ns3:hr>
            <ns3:cad>55</ns3:cad>
          </ns3:TrackPointExtension>
        </extensions>
      </trkpt>
      <trkpt lat="45.3683620132505893707275390625" lon="-70.80718793906271457672119140625">
        <ele>468.79998779296875</ele>
        <time>2026-08-21T10:24:56.000Z</time>
        <extensions>
          <ns3:TrackPointExtension>
            <ns3:hr>135</ns3:hr>
            <ns3:cad>55</ns3:cad>
          </ns3:TrackPointExtension>
        </extensions>
      </trkpt>
      <trkpt lat="45.3683625161647796630859375" lon="-70.80717000178992748260498046875">
        <ele>468.600006103515625</ele>
        <time>2026-08-21T10:24:57.000Z</time>
        <extensions>
          <ns3:TrackPointExtension>
            <ns3:hr>135</ns3:hr>
            <ns3:cad>55</ns3:cad>
          </ns3:TrackPointExtension>
        </extensions>
      </trkpt>
      <trkpt lat="45.36836226470768451690673828125" lon="-70.80715022049844264984130859375">
        <ele>468.399993896484375</ele>
        <time>2026-08-21T10:24:58.000Z</time>
        <extensions>
          <ns3:TrackPointExtension>
            <ns3:hr>135</ns3:hr>
            <ns3:cad>55</ns3:cad>
          </ns3:TrackPointExtension>
        </extensions>
      </trkpt>
      <trkpt lat="45.36835857667028903961181640625" lon="-70.80712951719760894775390625">
        <ele>468</ele>
        <time>2026-08-21T10:24:59.000Z</time>
        <extensions>
          <ns3:TrackPointExtension>
            <ns3:hr>134</ns3:hr>
            <ns3:cad>55</ns3:cad>
          </ns3:TrackPointExtension>
        </extensions>
      </trkpt>
      <trkpt lat="45.3683536313474178314208984375" lon="-70.80710470676422119140625">
        <ele>467.600006103515625</ele>
        <time>2026-08-21T10:25:00.000Z</time>
        <extensions>
          <ns3:TrackPointExtension>
            <ns3:hr>134</ns3:hr>
            <ns3:cad>55</ns3:cad>
          </ns3:TrackPointExtension>
        </extensions>
      </trkpt>
      <trkpt lat="45.36835371516644954681396484375" lon="-70.80709171481430530548095703125">
        <ele>467.20001220703125</ele>
        <time>2026-08-21T10:25:01.000Z</time>
        <extensions>
          <ns3:TrackPointExtension>
            <ns3:hr>134</ns3:hr>
            <ns3:cad>53</ns3:cad>
          </ns3:TrackPointExtension>
        </extensions>
      </trkpt>
      <trkpt lat="45.3683532960712909698486328125" lon="-70.80707813613116741180419921875">
        <ele>466.79998779296875</ele>
        <time>2026-08-21T10:25:02.000Z</time>
        <extensions>
          <ns3:TrackPointExtension>
            <ns3:hr>133</ns3:hr>
            <ns3:cad>53</ns3:cad>
          </ns3:TrackPointExtension>
        </extensions>
      </trkpt>
      <trkpt lat="45.36834985949099063873291015625" lon="-70.80705709755420684814453125">
        <ele>466.399993896484375</ele>
        <time>2026-08-21T10:25:03.000Z</time>
        <extensions>
          <ns3:TrackPointExtension>
            <ns3:hr>133</ns3:hr>
            <ns3:cad>53</ns3:cad>
          </ns3:TrackPointExtension>
        </extensions>
      </trkpt>
      <trkpt lat="45.36835069768130779266357421875" lon="-70.807037986814975738525390625">
        <ele>466</ele>
        <time>2026-08-21T10:25:04.000Z</time>
        <extensions>
          <ns3:TrackPointExtension>
            <ns3:hr>132</ns3:hr>
            <ns3:cad>53</ns3:cad>
          </ns3:TrackPointExtension>
        </extensions>
      </trkpt>
      <trkpt lat="45.36835002712905406951904296875" lon="-70.80702046863734722137451171875">
        <ele>465.600006103515625</ele>
        <time>2026-08-21T10:25:05.000Z</time>
        <extensions>
          <ns3:TrackPointExtension>
            <ns3:hr>133</ns3:hr>
            <ns3:cad>53</ns3:cad>
          </ns3:TrackPointExtension>
        </extensions>
      </trkpt>
      <trkpt lat="45.36834868602454662322998046875" lon="-70.807004459202289581298828125">
        <ele>465.20001220703125</ele>
        <time>2026-08-21T10:25:06.000Z</time>
        <extensions>
          <ns3:TrackPointExtension>
            <ns3:hr>132</ns3:hr>
            <ns3:cad>53</ns3:cad>
          </ns3:TrackPointExtension>
        </extensions>
      </trkpt>
      <trkpt lat="45.36835321225225925445556640625" lon="-70.80698107369244098663330078125">
        <ele>464.79998779296875</ele>
        <time>2026-08-21T10:25:07.000Z</time>
        <extensions>
          <ns3:TrackPointExtension>
            <ns3:hr>131</ns3:hr>
            <ns3:cad>53</ns3:cad>
          </ns3:TrackPointExtension>
        </extensions>
      </trkpt>
      <trkpt lat="45.36835622973740100860595703125" lon="-70.8069657348096370697021484375">
        <ele>464.600006103515625</ele>
        <time>2026-08-21T10:25:08.000Z</time>
        <extensions>
          <ns3:TrackPointExtension>
            <ns3:hr>131</ns3:hr>
            <ns3:cad>53</ns3:cad>
          </ns3:TrackPointExtension>
        </extensions>
      </trkpt>
      <trkpt lat="45.36836075596511363983154296875" lon="-70.80694888718426227569580078125">
        <ele>464.20001220703125</ele>
        <time>2026-08-21T10:25:09.000Z</time>
        <extensions>
          <ns3:TrackPointExtension>
            <ns3:hr>130</ns3:hr>
            <ns3:cad>70</ns3:cad>
          </ns3:TrackPointExtension>
        </extensions>
      </trkpt>
      <trkpt lat="45.3683643601834774017333984375" lon="-70.80692575313150882720947265625">
        <ele>464</ele>
        <time>2026-08-21T10:25:10.000Z</time>
        <extensions>
          <ns3:TrackPointExtension>
            <ns3:hr>130</ns3:hr>
            <ns3:cad>70</ns3:cad>
          </ns3:TrackPointExtension>
        </extensions>
      </trkpt>
      <trkpt lat="45.368368886411190032958984375" lon="-70.80690530128777027130126953125">
        <ele>463.600006103515625</ele>
        <time>2026-08-21T10:25:11.000Z</time>
        <extensions>
          <ns3:TrackPointExtension>
            <ns3:hr>130</ns3:hr>
            <ns3:cad>0</ns3:cad>
          </ns3:TrackPointExtension>
        </extensions>
      </trkpt>
      <trkpt lat="45.368369556963443756103515625" lon="-70.806885100901126861572265625">
        <ele>463.399993896484375</ele>
        <time>2026-08-21T10:25:12.000Z</time>
        <extensions>
          <ns3:TrackPointExtension>
            <ns3:hr>128</ns3:hr>
            <ns3:cad>0</ns3:cad>
          </ns3:TrackPointExtension>
        </extensions>
      </trkpt>
      <trkpt lat="45.36837249062955379486083984375" lon="-70.806860625743865966796875">
        <ele>463.20001220703125</ele>
        <time>2026-08-21T10:25:13.000Z</time>
        <extensions>
          <ns3:TrackPointExtension>
            <ns3:hr>126</ns3:hr>
            <ns3:cad>0</ns3:cad>
          </ns3:TrackPointExtension>
        </extensions>
      </trkpt>
      <trkpt lat="45.3683687187731266021728515625" lon="-70.80683707259595394134521484375">
        <ele>463</ele>
        <time>2026-08-21T10:25:14.000Z</time>
        <extensions>
          <ns3:TrackPointExtension>
            <ns3:hr>123</ns3:hr>
            <ns3:cad>0</ns3:cad>
          </ns3:TrackPointExtension>
        </extensions>
      </trkpt>
      <trkpt lat="45.36836310289800167083740234375" lon="-70.806811340153217315673828125">
        <ele>462.79998779296875</ele>
        <time>2026-08-21T10:25:15.000Z</time>
        <extensions>
          <ns3:TrackPointExtension>
            <ns3:hr>122</ns3:hr>
            <ns3:cad>0</ns3:cad>
          </ns3:TrackPointExtension>
        </extensions>
      </trkpt>
      <trkpt lat="45.3683586604893207550048828125" lon="-70.8067890442907810211181640625">
        <ele>462.79998779296875</ele>
        <time>2026-08-21T10:25:16.000Z</time>
        <extensions>
          <ns3:TrackPointExtension>
            <ns3:hr>121</ns3:hr>
            <ns3:cad>0</ns3:cad>
          </ns3:TrackPointExtension>
        </extensions>
      </trkpt>
      <trkpt lat="45.36835203878581523895263671875" lon="-70.80676984973251819610595703125">
        <ele>462.600006103515625</ele>
        <time>2026-08-21T10:25:17.000Z</time>
        <extensions>
          <ns3:TrackPointExtension>
            <ns3:hr>121</ns3:hr>
            <ns3:cad>0</ns3:cad>
          </ns3:TrackPointExtension>
        </extensions>
      </trkpt>
      <trkpt lat="45.368346087634563446044921875" lon="-70.8067478053271770477294921875">
        <ele>462.600006103515625</ele>
        <time>2026-08-21T10:25:18.000Z</time>
        <extensions>
          <ns3:TrackPointExtension>
            <ns3:hr>121</ns3:hr>
            <ns3:cad>0</ns3:cad>
          </ns3:TrackPointExtension>
        </extensions>
      </trkpt>
      <trkpt lat="45.36833946593105792999267578125" lon="-70.80672592855989933013916015625">
        <ele>462.600006103515625</ele>
        <time>2026-08-21T10:25:19.000Z</time>
        <extensions>
          <ns3:TrackPointExtension>
            <ns3:hr>121</ns3:hr>
            <ns3:cad>0</ns3:cad>
          </ns3:TrackPointExtension>
        </extensions>
      </trkpt>
      <trkpt lat="45.36833158694207668304443359375" lon="-70.806705392897129058837890625">
        <ele>462.600006103515625</ele>
        <time>2026-08-21T10:25:20.000Z</time>
        <extensions>
          <ns3:TrackPointExtension>
            <ns3:hr>120</ns3:hr>
            <ns3:cad>53</ns3:cad>
          </ns3:TrackPointExtension>
        </extensions>
      </trkpt>
      <trkpt lat="45.368323624134063720703125" lon="-70.806683935225009918212890625">
        <ele>462.600006103515625</ele>
        <time>2026-08-21T10:25:21.000Z</time>
        <extensions>
          <ns3:TrackPointExtension>
            <ns3:hr>120</ns3:hr>
            <ns3:cad>53</ns3:cad>
          </ns3:TrackPointExtension>
        </extensions>
      </trkpt>
      <trkpt lat="45.36831599660217761993408203125" lon="-70.80666775815188884735107421875">
        <ele>462.399993896484375</ele>
        <time>2026-08-21T10:25:22.000Z</time>
        <extensions>
          <ns3:TrackPointExtension>
            <ns3:hr>119</ns3:hr>
            <ns3:cad>53</ns3:cad>
          </ns3:TrackPointExtension>
        </extensions>
      </trkpt>
      <trkpt lat="45.36830820143222808837890625" lon="-70.80664982087910175323486328125">
        <ele>462.399993896484375</ele>
        <time>2026-08-21T10:25:23.000Z</time>
        <extensions>
          <ns3:TrackPointExtension>
            <ns3:hr>117</ns3:hr>
            <ns3:cad>53</ns3:cad>
          </ns3:TrackPointExtension>
        </extensions>
      </trkpt>
      <trkpt lat="45.36829906515777111053466796875" lon="-70.80663154833018779754638671875">
        <ele>462.600006103515625</ele>
        <time>2026-08-21T10:25:24.000Z</time>
        <extensions>
          <ns3:TrackPointExtension>
            <ns3:hr>116</ns3:hr>
            <ns3:cad>53</ns3:cad>
          </ns3:TrackPointExtension>
        </extensions>
      </trkpt>
      <trkpt lat="45.3682939521968364715576171875" lon="-70.806615538895130157470703125">
        <ele>462.600006103515625</ele>
        <time>2026-08-21T10:25:25.000Z</time>
        <extensions>
          <ns3:TrackPointExtension>
            <ns3:hr>117</ns3:hr>
            <ns3:cad>53</ns3:cad>
          </ns3:TrackPointExtension>
        </extensions>
      </trkpt>
      <trkpt lat="45.36828917451202869415283203125" lon="-70.8066002838313579559326171875">
        <ele>462.600006103515625</ele>
        <time>2026-08-21T10:25:26.000Z</time>
        <extensions>
          <ns3:TrackPointExtension>
            <ns3:hr>117</ns3:hr>
            <ns3:cad>53</ns3:cad>
          </ns3:TrackPointExtension>
        </extensions>
      </trkpt>
      <trkpt lat="45.36827995441854000091552734375" lon="-70.8065835200250148773193359375">
        <ele>462.79998779296875</ele>
        <time>2026-08-21T10:25:27.000Z</time>
        <extensions>
          <ns3:TrackPointExtension>
            <ns3:hr>115</ns3:hr>
            <ns3:cad>54</ns3:cad>
          </ns3:TrackPointExtension>
        </extensions>
      </trkpt>
      <trkpt lat="45.36828003823757171630859375" lon="-70.8065669238567352294921875">
        <ele>462.79998779296875</ele>
        <time>2026-08-21T10:25:28.000Z</time>
        <extensions>
          <ns3:TrackPointExtension>
            <ns3:hr>114</ns3:hr>
            <ns3:cad>54</ns3:cad>
          </ns3:TrackPointExtension>
        </extensions>
      </trkpt>
      <trkpt lat="45.36827743984758853912353515625" lon="-70.806549154222011566162109375">
        <ele>462.600006103515625</ele>
        <time>2026-08-21T10:25:29.000Z</time>
        <extensions>
          <ns3:TrackPointExtension>
            <ns3:hr>113</ns3:hr>
            <ns3:cad>53</ns3:cad>
          </ns3:TrackPointExtension>
        </extensions>
      </trkpt>
      <trkpt lat="45.36827743984758853912353515625" lon="-70.806537754833698272705078125">
        <ele>462.600006103515625</ele>
        <time>2026-08-21T10:25:30.000Z</time>
        <extensions>
          <ns3:TrackPointExtension>
            <ns3:hr>113</ns3:hr>
            <ns3:cad>53</ns3:cad>
          </ns3:TrackPointExtension>
        </extensions>
      </trkpt>
      <trkpt lat="45.36828045733273029327392578125" lon="-70.80652761273086071014404296875">
        <ele>462.399993896484375</ele>
        <time>2026-08-21T10:25:31.000Z</time>
        <extensions>
          <ns3:TrackPointExtension>
            <ns3:hr>113</ns3:hr>
            <ns3:cad>53</ns3:cad>
          </ns3:TrackPointExtension>
        </extensions>
      </trkpt>
      <trkpt lat="45.36828062497079372406005859375" lon="-70.80651403404772281646728515625">
        <ele>462.20001220703125</ele>
        <time>2026-08-21T10:25:32.000Z</time>
        <extensions>
          <ns3:TrackPointExtension>
            <ns3:hr>113</ns3:hr>
            <ns3:cad>53</ns3:cad>
          </ns3:TrackPointExtension>
        </extensions>
      </trkpt>
      <trkpt lat="45.3682775236666202545166015625" lon="-70.80650766380131244659423828125">
        <ele>462</ele>
        <time>2026-08-21T10:25:33.000Z</time>
        <extensions>
          <ns3:TrackPointExtension>
            <ns3:hr>113</ns3:hr>
            <ns3:cad>53</ns3:cad>
          </ns3:TrackPointExtension>
        </extensions>
      </trkpt>
      <trkpt lat="45.36828012205660343170166015625" lon="-70.80649324692785739898681640625">
        <ele>461.79998779296875</ele>
        <time>2026-08-21T10:25:34.000Z</time>
        <extensions>
          <ns3:TrackPointExtension>
            <ns3:hr>113</ns3:hr>
            <ns3:cad>54</ns3:cad>
          </ns3:TrackPointExtension>
        </extensions>
      </trkpt>
      <trkpt lat="45.36828272044658660888671875" lon="-70.80647061578929424285888671875">
        <ele>461.399993896484375</ele>
        <time>2026-08-21T10:25:35.000Z</time>
        <extensions>
          <ns3:TrackPointExtension>
            <ns3:hr>113</ns3:hr>
            <ns3:cad>54</ns3:cad>
          </ns3:TrackPointExtension>
        </extensions>
      </trkpt>
      <trkpt lat="45.3682862408459186553955078125" lon="-70.80644396133720874786376953125">
        <ele>461.20001220703125</ele>
        <time>2026-08-21T10:25:36.000Z</time>
        <extensions>
          <ns3:TrackPointExtension>
            <ns3:hr>113</ns3:hr>
            <ns3:cad>54</ns3:cad>
          </ns3:TrackPointExtension>
        </extensions>
      </trkpt>
      <trkpt lat="45.36828079260885715484619140625" lon="-70.80641294829547405242919921875">
        <ele>460.79998779296875</ele>
        <time>2026-08-21T10:25:37.000Z</time>
        <extensions>
          <ns3:TrackPointExtension>
            <ns3:hr>113</ns3:hr>
            <ns3:cad>0</ns3:cad>
          </ns3:TrackPointExtension>
        </extensions>
      </trkpt>
      <trkpt lat="45.3682781942188739776611328125" lon="-70.80639283172786235809326171875">
        <ele>460.600006103515625</ele>
        <time>2026-08-21T10:25:38.000Z</time>
        <extensions>
          <ns3:TrackPointExtension>
            <ns3:hr>113</ns3:hr>
            <ns3:cad>0</ns3:cad>
          </ns3:TrackPointExtension>
        </extensions>
      </trkpt>
      <trkpt lat="45.36827643401920795440673828125" lon="-70.80637623555958271026611328125">
        <ele>460.600006103515625</ele>
        <time>2026-08-21T10:25:39.000Z</time>
        <extensions>
          <ns3:TrackPointExtension>
            <ns3:hr>113</ns3:hr>
            <ns3:cad>59</ns3:cad>
          </ns3:TrackPointExtension>
        </extensions>
      </trkpt>
      <trkpt lat="45.3682713210582733154296875" lon="-70.806353352963924407958984375">
        <ele>460.600006103515625</ele>
        <time>2026-08-21T10:25:40.000Z</time>
        <extensions>
          <ns3:TrackPointExtension>
            <ns3:hr>114</ns3:hr>
            <ns3:cad>59</ns3:cad>
          </ns3:TrackPointExtension>
        </extensions>
      </trkpt>
      <trkpt lat="45.368266291916370391845703125" lon="-70.80632745288312435150146484375">
        <ele>460.600006103515625</ele>
        <time>2026-08-21T10:25:41.000Z</time>
        <extensions>
          <ns3:TrackPointExtension>
            <ns3:hr>114</ns3:hr>
            <ns3:cad>59</ns3:cad>
          </ns3:TrackPointExtension>
        </extensions>
      </trkpt>
      <trkpt lat="45.3682607598602771759033203125" lon="-70.80630850978195667266845703125">
        <ele>460.600006103515625</ele>
        <time>2026-08-21T10:25:42.000Z</time>
        <extensions>
          <ns3:TrackPointExtension>
            <ns3:hr>113</ns3:hr>
            <ns3:cad>59</ns3:cad>
          </ns3:TrackPointExtension>
        </extensions>
      </trkpt>
      <trkpt lat="45.36825698800384998321533203125" lon="-70.806291662156581878662109375">
        <ele>460.399993896484375</ele>
        <time>2026-08-21T10:25:43.000Z</time>
        <extensions>
          <ns3:TrackPointExtension>
            <ns3:hr>113</ns3:hr>
            <ns3:cad>59</ns3:cad>
          </ns3:TrackPointExtension>
        </extensions>
      </trkpt>
      <trkpt lat="45.3682540543377399444580078125" lon="-70.80627615563571453094482421875">
        <ele>460.399993896484375</ele>
        <time>2026-08-21T10:25:44.000Z</time>
        <extensions>
          <ns3:TrackPointExtension>
            <ns3:hr>113</ns3:hr>
            <ns3:cad>55</ns3:cad>
          </ns3:TrackPointExtension>
        </extensions>
      </trkpt>
      <trkpt lat="45.36824810318648815155029296875" lon="-70.80625620670616626739501953125">
        <ele>460.399993896484375</ele>
        <time>2026-08-21T10:25:45.000Z</time>
        <extensions>
          <ns3:TrackPointExtension>
            <ns3:hr>113</ns3:hr>
            <ns3:cad>55</ns3:cad>
          </ns3:TrackPointExtension>
        </extensions>
      </trkpt>
      <trkpt lat="45.3682450018823146820068359375" lon="-70.8062338270246982574462890625">
        <ele>460.399993896484375</ele>
        <time>2026-08-21T10:25:46.000Z</time>
        <extensions>
          <ns3:TrackPointExtension>
            <ns3:hr>112</ns3:hr>
            <ns3:cad>55</ns3:cad>
          </ns3:TrackPointExtension>
        </extensions>
      </trkpt>
      <trkpt lat="45.3682416491210460662841796875" lon="-70.80621446482837200164794921875">
        <ele>460.20001220703125</ele>
        <time>2026-08-21T10:25:47.000Z</time>
        <extensions>
          <ns3:TrackPointExtension>
            <ns3:hr>111</ns3:hr>
            <ns3:cad>55</ns3:cad>
          </ns3:TrackPointExtension>
        </extensions>
      </trkpt>
      <trkpt lat="45.36823309957981109619140625" lon="-70.80620013177394866943359375">
        <ele>460.20001220703125</ele>
        <time>2026-08-21T10:25:48.000Z</time>
        <extensions>
          <ns3:TrackPointExtension>
            <ns3:hr>110</ns3:hr>
            <ns3:cad>55</ns3:cad>
          </ns3:TrackPointExtension>
        </extensions>
      </trkpt>
      <trkpt lat="45.36822228692471981048583984375" lon="-70.80618680454790592193603515625">
        <ele>460</ele>
        <time>2026-08-21T10:25:49.000Z</time>
        <extensions>
          <ns3:TrackPointExtension>
            <ns3:hr>110</ns3:hr>
            <ns3:cad>55</ns3:cad>
          </ns3:TrackPointExtension>
        </extensions>
      </trkpt>
      <trkpt lat="45.3682114742696285247802734375" lon="-70.80617439933121204376220703125">
        <ele>460</ele>
        <time>2026-08-21T10:25:50.000Z</time>
        <extensions>
          <ns3:TrackPointExtension>
            <ns3:hr>109</ns3:hr>
            <ns3:cad>54</ns3:cad>
          </ns3:TrackPointExtension>
        </extensions>
      </trkpt>
      <trkpt lat="45.3682010807096958160400390625" lon="-70.8061645925045013427734375">
        <ele>459.79998779296875</ele>
        <time>2026-08-21T10:25:51.000Z</time>
        <extensions>
          <ns3:TrackPointExtension>
            <ns3:hr>109</ns3:hr>
            <ns3:cad>54</ns3:cad>
          </ns3:TrackPointExtension>
        </extensions>
      </trkpt>
      <trkpt lat="45.36819227971136569976806640625" lon="-70.8061550371348857879638671875">
        <ele>460</ele>
        <time>2026-08-21T10:25:52.000Z</time>
        <extensions>
          <ns3:TrackPointExtension>
            <ns3:hr>109</ns3:hr>
            <ns3:cad>54</ns3:cad>
          </ns3:TrackPointExtension>
        </extensions>
      </trkpt>
      <trkpt lat="45.3681836463510990142822265625" lon="-70.80614238046109676361083984375">
        <ele>460.20001220703125</ele>
        <time>2026-08-21T10:25:53.000Z</time>
        <extensions>
          <ns3:TrackPointExtension>
            <ns3:hr>110</ns3:hr>
            <ns3:cad>54</ns3:cad>
          </ns3:TrackPointExtension>
        </extensions>
      </trkpt>
      <trkpt lat="45.36817501299083232879638671875" lon="-70.8061329089105129241943359375">
        <ele>460.399993896484375</ele>
        <time>2026-08-21T10:25:54.000Z</time>
        <extensions>
          <ns3:TrackPointExtension>
            <ns3:hr>111</ns3:hr>
            <ns3:cad>54</ns3:cad>
          </ns3:TrackPointExtension>
        </extensions>
      </trkpt>
      <trkpt lat="45.3681705705821514129638671875" lon="-70.80612368881702423095703125">
        <ele>460.600006103515625</ele>
        <time>2026-08-21T10:25:55.000Z</time>
        <extensions>
          <ns3:TrackPointExtension>
            <ns3:hr>111</ns3:hr>
            <ns3:cad>54</ns3:cad>
          </ns3:TrackPointExtension>
        </extensions>
      </trkpt>
      <trkpt lat="45.36816663108766078948974609375" lon="-70.80611052922904491424560546875">
        <ele>460.79998779296875</ele>
        <time>2026-08-21T10:25:56.000Z</time>
        <extensions>
          <ns3:TrackPointExtension>
            <ns3:hr>111</ns3:hr>
            <ns3:cad>54</ns3:cad>
          </ns3:TrackPointExtension>
        </extensions>
      </trkpt>
      <trkpt lat="45.3681640326976776123046875" lon="-70.80609560944139957427978515625">
        <ele>461</ele>
        <time>2026-08-21T10:25:57.000Z</time>
        <extensions>
          <ns3:TrackPointExtension>
            <ns3:hr>111</ns3:hr>
            <ns3:cad>0</ns3:cad>
          </ns3:TrackPointExtension>
        </extensions>
      </trkpt>
      <trkpt lat="45.368160344660282135009765625" lon="-70.8060728944838047027587890625">
        <ele>461</ele>
        <time>2026-08-21T10:25:58.000Z</time>
        <extensions>
          <ns3:TrackPointExtension>
            <ns3:hr>112</ns3:hr>
            <ns3:cad>0</ns3:cad>
          </ns3:TrackPointExtension>
        </extensions>
      </trkpt>
      <trkpt lat="45.3681568242609500885009765625" lon="-70.80605235882103443145751953125">
        <ele>461.20001220703125</ele>
        <time>2026-08-21T10:25:59.000Z</time>
        <extensions>
          <ns3:TrackPointExtension>
            <ns3:hr>111</ns3:hr>
            <ns3:cad>0</ns3:cad>
          </ns3:TrackPointExtension>
        </extensions>
      </trkpt>
      <trkpt lat="45.36815757863223552703857421875" lon="-70.80603777430951595306396484375">
        <ele>461</ele>
        <time>2026-08-21T10:26:00.000Z</time>
        <extensions>
          <ns3:TrackPointExtension>
            <ns3:hr>109</ns3:hr>
            <ns3:cad>0</ns3:cad>
          </ns3:TrackPointExtension>
        </extensions>
      </trkpt>
      <trkpt lat="45.368161015212535858154296875" lon="-70.8060189150273799896240234375">
        <ele>461</ele>
        <time>2026-08-21T10:26:01.000Z</time>
        <extensions>
          <ns3:TrackPointExtension>
            <ns3:hr>108</ns3:hr>
            <ns3:cad>0</ns3:cad>
          </ns3:TrackPointExtension>
        </extensions>
      </trkpt>
      <trkpt lat="45.36816596053540706634521484375" lon="-70.80600307323038578033447265625">
        <ele>461</ele>
        <time>2026-08-21T10:26:02.000Z</time>
        <extensions>
          <ns3:TrackPointExtension>
            <ns3:hr>109</ns3:hr>
            <ns3:cad>0</ns3:cad>
          </ns3:TrackPointExtension>
        </extensions>
      </trkpt>
      <trkpt lat="45.36816579289734363555908203125" lon="-70.80598966218531131744384765625">
        <ele>461</ele>
        <time>2026-08-21T10:26:03.000Z</time>
        <extensions>
          <ns3:TrackPointExtension>
            <ns3:hr>109</ns3:hr>
            <ns3:cad>0</ns3:cad>
          </ns3:TrackPointExtension>
        </extensions>
      </trkpt>
      <trkpt lat="45.36816914565861225128173828125" lon="-70.8059786818921566009521484375">
        <ele>461</ele>
        <time>2026-08-21T10:26:04.000Z</time>
        <extensions>
          <ns3:TrackPointExtension>
            <ns3:hr>111</ns3:hr>
            <ns3:cad>0</ns3:cad>
          </ns3:TrackPointExtension>
        </extensions>
      </trkpt>
      <trkpt lat="45.3681729175150394439697265625" lon="-70.80595881678164005279541015625">
        <ele>461.20001220703125</ele>
        <time>2026-08-21T10:26:05.000Z</time>
        <extensions>
          <ns3:TrackPointExtension>
            <ns3:hr>111</ns3:hr>
            <ns3:cad>0</ns3:cad>
          </ns3:TrackPointExtension>
        </extensions>
      </trkpt>
      <trkpt lat="45.368171073496341705322265625" lon="-70.80593450926244258880615234375">
        <ele>461.20001220703125</ele>
        <time>2026-08-21T10:26:06.000Z</time>
        <extensions>
          <ns3:TrackPointExtension>
            <ns3:hr>111</ns3:hr>
            <ns3:cad>0</ns3:cad>
          </ns3:TrackPointExtension>
        </extensions>
      </trkpt>
      <trkpt lat="45.36817140877246856689453125" lon="-70.80591556616127490997314453125">
        <ele>461.399993896484375</ele>
        <time>2026-08-21T10:26:07.000Z</time>
        <extensions>
          <ns3:TrackPointExtension>
            <ns3:hr>111</ns3:hr>
            <ns3:cad>52</ns3:cad>
          </ns3:TrackPointExtension>
        </extensions>
      </trkpt>
      <trkpt lat="45.36817367188632488250732421875" lon="-70.80589461140334606170654296875">
        <ele>461.600006103515625</ele>
        <time>2026-08-21T10:26:08.000Z</time>
        <extensions>
          <ns3:TrackPointExtension>
            <ns3:hr>112</ns3:hr>
            <ns3:cad>52</ns3:cad>
          </ns3:TrackPointExtension>
        </extensions>
      </trkpt>
      <trkpt lat="45.36816813983023166656494140625" lon="-70.80587550066411495208740234375">
        <ele>461.600006103515625</ele>
        <time>2026-08-21T10:26:09.000Z</time>
        <extensions>
          <ns3:TrackPointExtension>
            <ns3:hr>113</ns3:hr>
            <ns3:cad>0</ns3:cad>
          </ns3:TrackPointExtension>
        </extensions>
      </trkpt>
      <trkpt lat="45.36816763691604137420654296875" lon="-70.80585479736328125">
        <ele>461.79998779296875</ele>
        <time>2026-08-21T10:26:10.000Z</time>
        <extensions>
          <ns3:TrackPointExtension>
            <ns3:hr>115</ns3:hr>
            <ns3:cad>0</ns3:cad>
          </ns3:TrackPointExtension>
        </extensions>
      </trkpt>
      <trkpt lat="45.36816562525928020477294921875" lon="-70.8058428950607776641845703125">
        <ele>461.79998779296875</ele>
        <time>2026-08-21T10:26:11.000Z</time>
        <extensions>
          <ns3:TrackPointExtension>
            <ns3:hr>118</ns3:hr>
            <ns3:cad>0</ns3:cad>
          </ns3:TrackPointExtension>
        </extensions>
      </trkpt>
      <trkpt lat="45.36816579289734363555908203125" lon="-70.80583845265209674835205078125">
        <ele>461.79998779296875</ele>
        <time>2026-08-21T10:26:12.000Z</time>
        <extensions>
          <ns3:TrackPointExtension>
            <ns3:hr>119</ns3:hr>
            <ns3:cad>0</ns3:cad>
          </ns3:TrackPointExtension>
        </extensions>
      </trkpt>
      <trkpt lat="45.36816797219216823577880859375" lon="-70.80582554452121257781982421875">
        <ele>461.79998779296875</ele>
        <time>2026-08-21T10:26:13.000Z</time>
        <extensions>
          <ns3:TrackPointExtension>
            <ns3:hr>119</ns3:hr>
            <ns3:cad>0</ns3:cad>
          </ns3:TrackPointExtension>
        </extensions>
      </trkpt>
      <trkpt lat="45.368165709078311920166015625" lon="-70.80580911599099636077880859375">
        <ele>461.79998779296875</ele>
        <time>2026-08-21T10:26:14.000Z</time>
        <extensions>
          <ns3:TrackPointExtension>
            <ns3:hr>119</ns3:hr>
            <ns3:cad>47</ns3:cad>
          </ns3:TrackPointExtension>
        </extensions>
      </trkpt>
      <trkpt lat="45.3681635297834873199462890625" lon="-70.80580056644976139068603515625">
        <ele>461.79998779296875</ele>
        <time>2026-08-21T10:26:15.000Z</time>
        <extensions>
          <ns3:TrackPointExtension>
            <ns3:hr>120</ns3:hr>
            <ns3:cad>47</ns3:cad>
          </ns3:TrackPointExtension>
        </extensions>
      </trkpt>
      <trkpt lat="45.368165038526058197021484375" lon="-70.80579352565109729766845703125">
        <ele>461.600006103515625</ele>
        <time>2026-08-21T10:26:16.000Z</time>
        <extensions>
          <ns3:TrackPointExtension>
            <ns3:hr>119</ns3:hr>
            <ns3:cad>47</ns3:cad>
          </ns3:TrackPointExtension>
        </extensions>
      </trkpt>
      <trkpt lat="45.36816948093473911285400390625" lon="-70.80578464083373546600341796875">
        <ele>461.399993896484375</ele>
        <time>2026-08-21T10:26:17.000Z</time>
        <extensions>
          <ns3:TrackPointExtension>
            <ns3:hr>119</ns3:hr>
            <ns3:cad>47</ns3:cad>
          </ns3:TrackPointExtension>
        </extensions>
      </trkpt>
      <trkpt lat="45.368177108466625213623046875" lon="-70.8057890832424163818359375">
        <ele>461.20001220703125</ele>
        <time>2026-08-21T10:26:18.000Z</time>
        <extensions>
          <ns3:TrackPointExtension>
            <ns3:hr>118</ns3:hr>
            <ns3:cad>47</ns3:cad>
          </ns3:TrackPointExtension>
        </extensions>
      </trkpt>
      <trkpt lat="45.36818557418882846832275390625" lon="-70.8057969622313976287841796875">
        <ele>461</ele>
        <time>2026-08-21T10:26:19.000Z</time>
        <extensions>
          <ns3:TrackPointExtension>
            <ns3:hr>118</ns3:hr>
            <ns3:cad>0</ns3:cad>
          </ns3:TrackPointExtension>
        </extensions>
      </trkpt>
      <trkpt lat="45.36819781176745891571044921875" lon="-70.8058080263435840606689453125">
        <ele>460.600006103515625</ele>
        <time>2026-08-21T10:26:20.000Z</time>
        <extensions>
          <ns3:TrackPointExtension>
            <ns3:hr>118</ns3:hr>
            <ns3:cad>0</ns3:cad>
          </ns3:TrackPointExtension>
        </extensions>
      </trkpt>
      <trkpt lat="45.3682071156799793243408203125" lon="-70.8058066852390766143798828125">
        <ele>460.20001220703125</ele>
        <time>2026-08-21T10:26:21.000Z</time>
        <extensions>
          <ns3:TrackPointExtension>
            <ns3:hr>118</ns3:hr>
            <ns3:cad>0</ns3:cad>
          </ns3:TrackPointExtension>
        </extensions>
      </trkpt>
      <trkpt lat="45.36820736713707447052001953125" lon="-70.805792771279811859130859375">
        <ele>460</ele>
        <time>2026-08-21T10:26:22.000Z</time>
        <extensions>
          <ns3:TrackPointExtension>
            <ns3:hr>118</ns3:hr>
            <ns3:cad>0</ns3:cad>
          </ns3:TrackPointExtension>
        </extensions>
      </trkpt>
      <trkpt lat="45.36821105517446994781494140625" lon="-70.8057768456637859344482421875">
        <ele>459.600006103515625</ele>
        <time>2026-08-21T10:26:23.000Z</time>
        <extensions>
          <ns3:TrackPointExtension>
            <ns3:hr>117</ns3:hr>
            <ns3:cad>0</ns3:cad>
          </ns3:TrackPointExtension>
        </extensions>
      </trkpt>
      <trkpt lat="45.36821524612605571746826171875" lon="-70.80576821230351924896240234375">
        <ele>459.399993896484375</ele>
        <time>2026-08-21T10:26:24.000Z</time>
        <extensions>
          <ns3:TrackPointExtension>
            <ns3:hr>118</ns3:hr>
            <ns3:cad>0</ns3:cad>
          </ns3:TrackPointExtension>
        </extensions>
      </trkpt>
      <trkpt lat="45.36822144873440265655517578125" lon="-70.80574692226946353912353515625">
        <ele>459.20001220703125</ele>
        <time>2026-08-21T10:26:25.000Z</time>
        <extensions>
          <ns3:TrackPointExtension>
            <ns3:hr>118</ns3:hr>
            <ns3:cad>0</ns3:cad>
          </ns3:TrackPointExtension>
        </extensions>
      </trkpt>
      <trkpt lat="45.36822396330535411834716796875" lon="-70.80572026781737804412841796875">
        <ele>458.79998779296875</ele>
        <time>2026-08-21T10:26:26.000Z</time>
        <extensions>
          <ns3:TrackPointExtension>
            <ns3:hr>117</ns3:hr>
            <ns3:cad>0</ns3:cad>
          </ns3:TrackPointExtension>
        </extensions>
      </trkpt>
      <trkpt lat="45.3682235442101955413818359375" lon="-70.80570484511554241180419921875">
        <ele>458.399993896484375</ele>
        <time>2026-08-21T10:26:27.000Z</time>
        <extensions>
          <ns3:TrackPointExtension>
            <ns3:hr>118</ns3:hr>
            <ns3:cad>0</ns3:cad>
          </ns3:TrackPointExtension>
        </extensions>
      </trkpt>
      <trkpt lat="45.36822639405727386474609375" lon="-70.80570199526846408843994140625">
        <ele>458.20001220703125</ele>
        <time>2026-08-21T10:26:28.000Z</time>
        <extensions>
          <ns3:TrackPointExtension>
            <ns3:hr>118</ns3:hr>
            <ns3:cad>0</ns3:cad>
          </ns3:TrackPointExtension>
        </extensions>
      </trkpt>
      <trkpt lat="45.36823402158915996551513671875" lon="-70.80569914542138576507568359375">
        <ele>457.79998779296875</ele>
        <time>2026-08-21T10:26:29.000Z</time>
        <extensions>
          <ns3:TrackPointExtension>
            <ns3:hr>117</ns3:hr>
            <ns3:cad>0</ns3:cad>
          </ns3:TrackPointExtension>
        </extensions>
      </trkpt>
      <trkpt lat="45.3682443313300609588623046875" lon="-70.80569176934659481048583984375">
        <ele>457.600006103515625</ele>
        <time>2026-08-21T10:26:30.000Z</time>
        <extensions>
          <ns3:TrackPointExtension>
            <ns3:hr>118</ns3:hr>
            <ns3:cad>0</ns3:cad>
          </ns3:TrackPointExtension>
        </extensions>
      </trkpt>
      <trkpt lat="45.36825723946094512939453125" lon="-70.8056876622140407562255859375">
        <ele>457.600006103515625</ele>
        <time>2026-08-21T10:26:31.000Z</time>
        <extensions>
          <ns3:TrackPointExtension>
            <ns3:hr>118</ns3:hr>
            <ns3:cad>64</ns3:cad>
          </ns3:TrackPointExtension>
        </extensions>
      </trkpt>
      <trkpt lat="45.3682708181440830230712890625" lon="-70.80568405799567699432373046875">
        <ele>457.600006103515625</ele>
        <time>2026-08-21T10:26:32.000Z</time>
        <extensions>
          <ns3:TrackPointExtension>
            <ns3:hr>119</ns3:hr>
            <ns3:cad>64</ns3:cad>
          </ns3:TrackPointExtension>
        </extensions>
      </trkpt>
      <trkpt lat="45.3682825528085231781005859375" lon="-70.80567316152155399322509765625">
        <ele>457.600006103515625</ele>
        <time>2026-08-21T10:26:33.000Z</time>
        <extensions>
          <ns3:TrackPointExtension>
            <ns3:hr>119</ns3:hr>
            <ns3:cad>64</ns3:cad>
          </ns3:TrackPointExtension>
        </extensions>
      </trkpt>
      <trkpt lat="45.36829537712037563323974609375" lon="-70.80566276796162128448486328125">
        <ele>457.79998779296875</ele>
        <time>2026-08-21T10:26:34.000Z</time>
        <extensions>
          <ns3:TrackPointExtension>
            <ns3:hr>119</ns3:hr>
            <ns3:cad>64</ns3:cad>
          </ns3:TrackPointExtension>
        </extensions>
      </trkpt>
      <trkpt lat="45.3683097101747989654541015625" lon="-70.8056554757058620452880859375">
        <ele>457.79998779296875</ele>
        <time>2026-08-21T10:26:35.000Z</time>
        <extensions>
          <ns3:TrackPointExtension>
            <ns3:hr>119</ns3:hr>
            <ns3:cad>58</ns3:cad>
          </ns3:TrackPointExtension>
        </extensions>
      </trkpt>
      <trkpt lat="45.36832035519182682037353515625" lon="-70.80563762225210666656494140625">
        <ele>458</ele>
        <time>2026-08-21T10:26:36.000Z</time>
        <extensions>
          <ns3:TrackPointExtension>
            <ns3:hr>120</ns3:hr>
            <ns3:cad>58</ns3:cad>
          </ns3:TrackPointExtension>
        </extensions>
      </trkpt>
      <trkpt lat="45.3683261387050151824951171875" lon="-70.80561029724776744842529296875">
        <ele>458.20001220703125</ele>
        <time>2026-08-21T10:26:37.000Z</time>
        <extensions>
          <ns3:TrackPointExtension>
            <ns3:hr>119</ns3:hr>
            <ns3:cad>58</ns3:cad>
          </ns3:TrackPointExtension>
        </extensions>
      </trkpt>
      <trkpt lat="45.36833192221820354461669921875" lon="-70.805583558976650238037109375">
        <ele>458.399993896484375</ele>
        <time>2026-08-21T10:26:38.000Z</time>
        <extensions>
          <ns3:TrackPointExtension>
            <ns3:hr>118</ns3:hr>
            <ns3:cad>53</ns3:cad>
          </ns3:TrackPointExtension>
        </extensions>
      </trkpt>
      <trkpt lat="45.3683378733694553375244140625" lon="-70.80555380322039127349853515625">
        <ele>458.600006103515625</ele>
        <time>2026-08-21T10:26:39.000Z</time>
        <extensions>
          <ns3:TrackPointExtension>
            <ns3:hr>117</ns3:hr>
            <ns3:cad>53</ns3:cad>
          </ns3:TrackPointExtension>
        </extensions>
      </trkpt>
      <trkpt lat="45.36834198050200939178466796875" lon="-70.80553217791020870208740234375">
        <ele>458.79998779296875</ele>
        <time>2026-08-21T10:26:40.000Z</time>
        <extensions>
          <ns3:TrackPointExtension>
            <ns3:hr>118</ns3:hr>
            <ns3:cad>0</ns3:cad>
          </ns3:TrackPointExtension>
        </extensions>
      </trkpt>
      <trkpt lat="45.3683398850262165069580078125" lon="-70.805507786571979522705078125">
        <ele>459</ele>
        <time>2026-08-21T10:26:41.000Z</time>
        <extensions>
          <ns3:TrackPointExtension>
            <ns3:hr>117</ns3:hr>
            <ns3:cad>0</ns3:cad>
          </ns3:TrackPointExtension>
        </extensions>
      </trkpt>
      <trkpt lat="45.36833795718848705291748046875" lon="-70.80549496226012706756591796875">
        <ele>459.20001220703125</ele>
        <time>2026-08-21T10:26:42.000Z</time>
        <extensions>
          <ns3:TrackPointExtension>
            <ns3:hr>117</ns3:hr>
            <ns3:cad>50</ns3:cad>
          </ns3:TrackPointExtension>
        </extensions>
      </trkpt>
      <trkpt lat="45.36834315396845340728759765625" lon="-70.8054777793586254119873046875">
        <ele>459.399993896484375</ele>
        <time>2026-08-21T10:26:43.000Z</time>
        <extensions>
          <ns3:TrackPointExtension>
            <ns3:hr>117</ns3:hr>
            <ns3:cad>50</ns3:cad>
          </ns3:TrackPointExtension>
        </extensions>
      </trkpt>
      <trkpt lat="45.368350446224212646484375" lon="-70.805463530123233795166015625">
        <ele>459.600006103515625</ele>
        <time>2026-08-21T10:26:44.000Z</time>
        <extensions>
          <ns3:TrackPointExtension>
            <ns3:hr>117</ns3:hr>
            <ns3:cad>50</ns3:cad>
          </ns3:TrackPointExtension>
        </extensions>
      </trkpt>
      <trkpt lat="45.36835740320384502410888671875" lon="-70.8054476045072078704833984375">
        <ele>459.600006103515625</ele>
        <time>2026-08-21T10:26:45.000Z</time>
        <extensions>
          <ns3:TrackPointExtension>
            <ns3:hr>117</ns3:hr>
            <ns3:cad>48</ns3:cad>
          </ns3:TrackPointExtension>
        </extensions>
      </trkpt>
      <trkpt lat="45.36836394108831882476806640625" lon="-70.80542421899735927581787109375">
        <ele>459.79998779296875</ele>
        <time>2026-08-21T10:26:46.000Z</time>
        <extensions>
          <ns3:TrackPointExtension>
            <ns3:hr>117</ns3:hr>
            <ns3:cad>48</ns3:cad>
          </ns3:TrackPointExtension>
        </extensions>
      </trkpt>
      <trkpt lat="45.36836494691669940948486328125" lon="-70.80540074966847896575927734375">
        <ele>460</ele>
        <time>2026-08-21T10:26:47.000Z</time>
        <extensions>
          <ns3:TrackPointExtension>
            <ns3:hr>118</ns3:hr>
            <ns3:cad>49</ns3:cad>
          </ns3:TrackPointExtension>
        </extensions>
      </trkpt>
      <trkpt lat="45.36836628802120685577392578125" lon="-70.80537241883575916290283203125">
        <ele>460.20001220703125</ele>
        <time>2026-08-21T10:26:48.000Z</time>
        <extensions>
          <ns3:TrackPointExtension>
            <ns3:hr>118</ns3:hr>
            <ns3:cad>49</ns3:cad>
          </ns3:TrackPointExtension>
        </extensions>
      </trkpt>
      <trkpt lat="45.36836628802120685577392578125" lon="-70.80535146407783031463623046875">
        <ele>460.399993896484375</ele>
        <time>2026-08-21T10:26:49.000Z</time>
        <extensions>
          <ns3:TrackPointExtension>
            <ns3:hr>118</ns3:hr>
            <ns3:cad>51</ns3:cad>
          </ns3:TrackPointExtension>
        </extensions>
      </trkpt>
      <trkpt lat="45.36836612038314342498779296875" lon="-70.80533117987215518951416015625">
        <ele>460.600006103515625</ele>
        <time>2026-08-21T10:26:50.000Z</time>
        <extensions>
          <ns3:TrackPointExtension>
            <ns3:hr>118</ns3:hr>
            <ns3:cad>51</ns3:cad>
          </ns3:TrackPointExtension>
        </extensions>
      </trkpt>
      <trkpt lat="45.36836343817412853240966796875" lon="-70.80531793646514415740966796875">
        <ele>460.600006103515625</ele>
        <time>2026-08-21T10:26:51.000Z</time>
        <extensions>
          <ns3:TrackPointExtension>
            <ns3:hr>118</ns3:hr>
            <ns3:cad>51</ns3:cad>
          </ns3:TrackPointExtension>
        </extensions>
      </trkpt>
      <trkpt lat="45.368361510336399078369140625" lon="-70.80530083738267421722412109375">
        <ele>460.600006103515625</ele>
        <time>2026-08-21T10:26:52.000Z</time>
        <extensions>
          <ns3:TrackPointExtension>
            <ns3:hr>118</ns3:hr>
            <ns3:cad>51</ns3:cad>
          </ns3:TrackPointExtension>
        </extensions>
      </trkpt>
      <trkpt lat="45.36835907958447933197021484375" lon="-70.80528072081506252288818359375">
        <ele>460.79998779296875</ele>
        <time>2026-08-21T10:26:53.000Z</time>
        <extensions>
          <ns3:TrackPointExtension>
            <ns3:hr>118</ns3:hr>
            <ns3:cad>51</ns3:cad>
          </ns3:TrackPointExtension>
        </extensions>
      </trkpt>
      <trkpt lat="45.368353463709354400634765625" lon="-70.805267728865146636962890625">
        <ele>460.79998779296875</ele>
        <time>2026-08-21T10:26:54.000Z</time>
        <extensions>
          <ns3:TrackPointExtension>
            <ns3:hr>119</ns3:hr>
            <ns3:cad>51</ns3:cad>
          </ns3:TrackPointExtension>
        </extensions>
      </trkpt>
      <trkpt lat="45.36834801547229290008544921875" lon="-70.8052554912865161895751953125">
        <ele>460.79998779296875</ele>
        <time>2026-08-21T10:26:55.000Z</time>
        <extensions>
          <ns3:TrackPointExtension>
            <ns3:hr>119</ns3:hr>
            <ns3:cad>51</ns3:cad>
          </ns3:TrackPointExtension>
        </extensions>
      </trkpt>
      <trkpt lat="45.368350781500339508056640625" lon="-70.80523478798568248748779296875">
        <ele>460.79998779296875</ele>
        <time>2026-08-21T10:26:56.000Z</time>
        <extensions>
          <ns3:TrackPointExtension>
            <ns3:hr>119</ns3:hr>
            <ns3:cad>51</ns3:cad>
          </ns3:TrackPointExtension>
        </extensions>
      </trkpt>
      <trkpt lat="45.36835203878581523895263671875" lon="-70.80521634779870510101318359375">
        <ele>460.79998779296875</ele>
        <time>2026-08-21T10:26:57.000Z</time>
        <extensions>
          <ns3:TrackPointExtension>
            <ns3:hr>120</ns3:hr>
            <ns3:cad>51</ns3:cad>
          </ns3:TrackPointExtension>
        </extensions>
      </trkpt>
      <trkpt lat="45.36835120059549808502197265625" lon="-70.805204026401042938232421875">
        <ele>460.600006103515625</ele>
        <time>2026-08-21T10:26:58.000Z</time>
        <extensions>
          <ns3:TrackPointExtension>
            <ns3:hr>121</ns3:hr>
            <ns3:cad>51</ns3:cad>
          </ns3:TrackPointExtension>
        </extensions>
      </trkpt>
      <trkpt lat="45.36834985949099063873291015625" lon="-70.80518801696598529815673828125">
        <ele>460.600006103515625</ele>
        <time>2026-08-21T10:26:59.000Z</time>
        <extensions>
          <ns3:TrackPointExtension>
            <ns3:hr>121</ns3:hr>
            <ns3:cad>51</ns3:cad>
          </ns3:TrackPointExtension>
        </extensions>
      </trkpt>
      <trkpt lat="45.36835782229900360107421875" lon="-70.80518131144344806671142578125">
        <ele>460.399993896484375</ele>
        <time>2026-08-21T10:27:00.000Z</time>
        <extensions>
          <ns3:TrackPointExtension>
            <ns3:hr>121</ns3:hr>
            <ns3:cad>51</ns3:cad>
          </ns3:TrackPointExtension>
        </extensions>
      </trkpt>
      <trkpt lat="45.368368886411190032958984375" lon="-70.8051693253219127655029296875">
        <ele>460.399993896484375</ele>
        <time>2026-08-21T10:27:01.000Z</time>
        <extensions>
          <ns3:TrackPointExtension>
            <ns3:hr>120</ns3:hr>
            <ns3:cad>54</ns3:cad>
          </ns3:TrackPointExtension>
        </extensions>
      </trkpt>
      <trkpt lat="45.36838254891335964202880859375" lon="-70.80516588874161243438720703125">
        <ele>460.20001220703125</ele>
        <time>2026-08-21T10:27:02.000Z</time>
        <extensions>
          <ns3:TrackPointExtension>
            <ns3:hr>121</ns3:hr>
            <ns3:cad>54</ns3:cad>
          </ns3:TrackPointExtension>
        </extensions>
      </trkpt>
      <trkpt lat="45.3683931939303874969482421875" lon="-70.8051565848290920257568359375">
        <ele>460.20001220703125</ele>
        <time>2026-08-21T10:27:03.000Z</time>
        <extensions>
          <ns3:TrackPointExtension>
            <ns3:hr>121</ns3:hr>
            <ns3:cad>54</ns3:cad>
          </ns3:TrackPointExtension>
        </extensions>
      </trkpt>
      <trkpt lat="45.36840216256678104400634765625" lon="-70.8051480352878570556640625">
        <ele>460.20001220703125</ele>
        <time>2026-08-21T10:27:04.000Z</time>
        <extensions>
          <ns3:TrackPointExtension>
            <ns3:hr>122</ns3:hr>
            <ns3:cad>54</ns3:cad>
          </ns3:TrackPointExtension>
        </extensions>
      </trkpt>
      <trkpt lat="45.36841205321252346038818359375" lon="-70.80514057539403438568115234375">
        <ele>460</ele>
        <time>2026-08-21T10:27:05.000Z</time>
        <extensions>
          <ns3:TrackPointExtension>
            <ns3:hr>122</ns3:hr>
            <ns3:cad>54</ns3:cad>
          </ns3:TrackPointExtension>
        </extensions>
      </trkpt>
      <trkpt lat="45.368424542248249053955078125" lon="-70.80513068474829196929931640625">
        <ele>460</ele>
        <time>2026-08-21T10:27:06.000Z</time>
        <extensions>
          <ns3:TrackPointExtension>
            <ns3:hr>122</ns3:hr>
            <ns3:cad>56</ns3:cad>
          </ns3:TrackPointExtension>
        </extensions>
      </trkpt>
      <trkpt lat="45.3684364445507526397705078125" lon="-70.80511610023677349090576171875">
        <ele>460</ele>
        <time>2026-08-21T10:27:07.000Z</time>
        <extensions>
          <ns3:TrackPointExtension>
            <ns3:hr>122</ns3:hr>
            <ns3:cad>56</ns3:cad>
          </ns3:TrackPointExtension>
        </extensions>
      </trkpt>
      <trkpt lat="45.36844658665359020233154296875" lon="-70.80510084517300128936767578125">
        <ele>460</ele>
        <time>2026-08-21T10:27:08.000Z</time>
        <extensions>
          <ns3:TrackPointExtension>
            <ns3:hr>122</ns3:hr>
            <ns3:cad>56</ns3:cad>
          </ns3:TrackPointExtension>
        </extensions>
      </trkpt>
      <trkpt lat="45.36846050061285495758056640625" lon="-70.80508894287049770355224609375">
        <ele>460</ele>
        <time>2026-08-21T10:27:09.000Z</time>
        <extensions>
          <ns3:TrackPointExtension>
            <ns3:hr>122</ns3:hr>
            <ns3:cad>56</ns3:cad>
          </ns3:TrackPointExtension>
        </extensions>
      </trkpt>
      <trkpt lat="45.3684750013053417205810546875" lon="-70.805074609816074371337890625">
        <ele>460</ele>
        <time>2026-08-21T10:27:10.000Z</time>
        <extensions>
          <ns3:TrackPointExtension>
            <ns3:hr>122</ns3:hr>
            <ns3:cad>56</ns3:cad>
          </ns3:TrackPointExtension>
        </extensions>
      </trkpt>
      <trkpt lat="45.36848581396043300628662109375" lon="-70.80506178550422191619873046875">
        <ele>459.79998779296875</ele>
        <time>2026-08-21T10:27:11.000Z</time>
        <extensions>
          <ns3:TrackPointExtension>
            <ns3:hr>122</ns3:hr>
            <ns3:cad>56</ns3:cad>
          </ns3:TrackPointExtension>
        </extensions>
      </trkpt>
      <trkpt lat="45.3684967942535877227783203125" lon="-70.8050539903342723846435546875">
        <ele>459.79998779296875</ele>
        <time>2026-08-21T10:27:12.000Z</time>
        <extensions>
          <ns3:TrackPointExtension>
            <ns3:hr>122</ns3:hr>
            <ns3:cad>56</ns3:cad>
          </ns3:TrackPointExtension>
        </extensions>
      </trkpt>
      <trkpt lat="45.36850668489933013916015625" lon="-70.80504150129854679107666015625">
        <ele>459.79998779296875</ele>
        <time>2026-08-21T10:27:13.000Z</time>
        <extensions>
          <ns3:TrackPointExtension>
            <ns3:hr>122</ns3:hr>
            <ns3:cad>56</ns3:cad>
          </ns3:TrackPointExtension>
        </extensions>
      </trkpt>
      <trkpt lat="45.36851716227829456329345703125" lon="-70.805024318397045135498046875">
        <ele>459.600006103515625</ele>
        <time>2026-08-21T10:27:14.000Z</time>
        <extensions>
          <ns3:TrackPointExtension>
            <ns3:hr>122</ns3:hr>
            <ns3:cad>56</ns3:cad>
          </ns3:TrackPointExtension>
        </extensions>
      </trkpt>
      <trkpt lat="45.3685262985527515411376953125" lon="-70.80500864423811435699462890625">
        <ele>459.600006103515625</ele>
        <time>2026-08-21T10:27:15.000Z</time>
        <extensions>
          <ns3:TrackPointExtension>
            <ns3:hr>122</ns3:hr>
            <ns3:cad>56</ns3:cad>
          </ns3:TrackPointExtension>
        </extensions>
      </trkpt>
      <trkpt lat="45.3685319982469081878662109375" lon="-70.8049872703850269317626953125">
        <ele>459.600006103515625</ele>
        <time>2026-08-21T10:27:16.000Z</time>
        <extensions>
          <ns3:TrackPointExtension>
            <ns3:hr>122</ns3:hr>
            <ns3:cad>56</ns3:cad>
          </ns3:TrackPointExtension>
        </extensions>
      </trkpt>
      <trkpt lat="45.3685346804559230804443359375" lon="-70.804967321455478668212890625">
        <ele>459.399993896484375</ele>
        <time>2026-08-21T10:27:17.000Z</time>
        <extensions>
          <ns3:TrackPointExtension>
            <ns3:hr>122</ns3:hr>
            <ns3:cad>56</ns3:cad>
          </ns3:TrackPointExtension>
        </extensions>
      </trkpt>
      <trkpt lat="45.368538200855255126953125" lon="-70.80494795925915241241455078125">
        <ele>459.399993896484375</ele>
        <time>2026-08-21T10:27:18.000Z</time>
        <extensions>
          <ns3:TrackPointExtension>
            <ns3:hr>123</ns3:hr>
            <ns3:cad>58</ns3:cad>
          </ns3:TrackPointExtension>
        </extensions>
      </trkpt>
      <trkpt lat="45.36854364909231662750244140625" lon="-70.804923065006732940673828125">
        <ele>459.399993896484375</ele>
        <time>2026-08-21T10:27:19.000Z</time>
        <extensions>
          <ns3:TrackPointExtension>
            <ns3:hr>123</ns3:hr>
            <ns3:cad>58</ns3:cad>
          </ns3:TrackPointExtension>
        </extensions>
      </trkpt>
      <trkpt lat="45.368549264967441558837890625" lon="-70.804899595677852630615234375">
        <ele>459.399993896484375</ele>
        <time>2026-08-21T10:27:20.000Z</time>
        <extensions>
          <ns3:TrackPointExtension>
            <ns3:hr>123</ns3:hr>
            <ns3:cad>62</ns3:cad>
          </ns3:TrackPointExtension>
        </extensions>
      </trkpt>
      <trkpt lat="45.3685529530048370361328125" lon="-70.8048809878528118133544921875">
        <ele>459.399993896484375</ele>
        <time>2026-08-21T10:27:21.000Z</time>
        <extensions>
          <ns3:TrackPointExtension>
            <ns3:hr>122</ns3:hr>
            <ns3:cad>62</ns3:cad>
          </ns3:TrackPointExtension>
        </extensions>
      </trkpt>
      <trkpt lat="45.36855454556643962860107421875" lon="-70.804859697818756103515625">
        <ele>459.20001220703125</ele>
        <time>2026-08-21T10:27:22.000Z</time>
        <extensions>
          <ns3:TrackPointExtension>
            <ns3:hr>122</ns3:hr>
            <ns3:cad>0</ns3:cad>
          </ns3:TrackPointExtension>
        </extensions>
      </trkpt>
      <trkpt lat="45.36855571903288364410400390625" lon="-70.804833881556987762451171875">
        <ele>459.20001220703125</ele>
        <time>2026-08-21T10:27:23.000Z</time>
        <extensions>
          <ns3:TrackPointExtension>
            <ns3:hr>121</ns3:hr>
            <ns3:cad>0</ns3:cad>
          </ns3:TrackPointExtension>
        </extensions>
      </trkpt>
      <trkpt lat="45.3685527853667736053466796875" lon="-70.80480404198169708251953125">
        <ele>459</ele>
        <time>2026-08-21T10:27:24.000Z</time>
        <extensions>
          <ns3:TrackPointExtension>
            <ns3:hr>120</ns3:hr>
            <ns3:cad>0</ns3:cad>
          </ns3:TrackPointExtension>
        </extensions>
      </trkpt>
      <trkpt lat="45.36855303682386875152587890625" lon="-70.80477654933929443359375">
        <ele>459</ele>
        <time>2026-08-21T10:27:25.000Z</time>
        <extensions>
          <ns3:TrackPointExtension>
            <ns3:hr>120</ns3:hr>
            <ns3:cad>60</ns3:cad>
          </ns3:TrackPointExtension>
        </extensions>
      </trkpt>
      <trkpt lat="45.36855337209999561309814453125" lon="-70.80475299619138240814208984375">
        <ele>459</ele>
        <time>2026-08-21T10:27:26.000Z</time>
        <extensions>
          <ns3:TrackPointExtension>
            <ns3:hr>119</ns3:hr>
            <ns3:cad>60</ns3:cad>
          </ns3:TrackPointExtension>
        </extensions>
      </trkpt>
      <trkpt lat="45.3685502707958221435546875" lon="-70.8047381602227687835693359375">
        <ele>459</ele>
        <time>2026-08-21T10:27:27.000Z</time>
        <extensions>
          <ns3:TrackPointExtension>
            <ns3:hr>119</ns3:hr>
            <ns3:cad>60</ns3:cad>
          </ns3:TrackPointExtension>
        </extensions>
      </trkpt>
      <trkpt lat="45.36854683421552181243896484375" lon="-70.80472617410123348236083984375">
        <ele>459.20001220703125</ele>
        <time>2026-08-21T10:27:28.000Z</time>
        <extensions>
          <ns3:TrackPointExtension>
            <ns3:hr>118</ns3:hr>
            <ns3:cad>60</ns3:cad>
          </ns3:TrackPointExtension>
        </extensions>
      </trkpt>
      <trkpt lat="45.36854784004390239715576171875" lon="-70.8047130145132541656494140625">
        <ele>459.20001220703125</ele>
        <time>2026-08-21T10:27:29.000Z</time>
        <extensions>
          <ns3:TrackPointExtension>
            <ns3:hr>118</ns3:hr>
            <ns3:cad>54</ns3:cad>
          </ns3:TrackPointExtension>
        </extensions>
      </trkpt>
      <trkpt lat="45.3685507737100124359130859375" lon="-70.804704129695892333984375">
        <ele>459.20001220703125</ele>
        <time>2026-08-21T10:27:30.000Z</time>
        <extensions>
          <ns3:TrackPointExtension>
            <ns3:hr>118</ns3:hr>
            <ns3:cad>54</ns3:cad>
          </ns3:TrackPointExtension>
        </extensions>
      </trkpt>
      <trkpt lat="45.368554629385471343994140625" lon="-70.80469147302210330963134765625">
        <ele>459</ele>
        <time>2026-08-21T10:27:31.000Z</time>
        <extensions>
          <ns3:TrackPointExtension>
            <ns3:hr>118</ns3:hr>
            <ns3:cad>54</ns3:cad>
          </ns3:TrackPointExtension>
        </extensions>
      </trkpt>
      <trkpt lat="45.36855739541351795196533203125" lon="-70.8046794869005680084228515625">
        <ele>459</ele>
        <time>2026-08-21T10:27:32.000Z</time>
        <extensions>
          <ns3:TrackPointExtension>
            <ns3:hr>117</ns3:hr>
            <ns3:cad>0</ns3:cad>
          </ns3:TrackPointExtension>
        </extensions>
      </trkpt>
      <trkpt lat="45.36855689249932765960693359375" lon="-70.80467705614864826202392578125">
        <ele>459</ele>
        <time>2026-08-21T10:27:33.000Z</time>
        <extensions>
          <ns3:TrackPointExtension>
            <ns3:hr>117</ns3:hr>
            <ns3:cad>0</ns3:cad>
          </ns3:TrackPointExtension>
        </extensions>
      </trkpt>
      <trkpt lat="45.3685558028519153594970703125" lon="-70.804677642881870269775390625">
        <ele>459</ele>
        <time>2026-08-21T10:27:34.000Z</time>
        <extensions>
          <ns3:TrackPointExtension>
            <ns3:hr>117</ns3:hr>
            <ns3:cad>0</ns3:cad>
          </ns3:TrackPointExtension>
        </extensions>
      </trkpt>
      <trkpt lat="45.3685556352138519287109375" lon="-70.80467755906283855438232421875">
        <ele>459</ele>
        <time>2026-08-21T10:27:35.000Z</time>
        <extensions>
          <ns3:TrackPointExtension>
            <ns3:hr>116</ns3:hr>
            <ns3:cad>0</ns3:cad>
          </ns3:TrackPointExtension>
        </extensions>
      </trkpt>
      <trkpt lat="45.3685556352138519287109375" lon="-70.80467755906283855438232421875">
        <ele>459</ele>
        <time>2026-08-21T10:27:36.000Z</time>
        <extensions>
          <ns3:TrackPointExtension>
            <ns3:hr>116</ns3:hr>
            <ns3:cad>0</ns3:cad>
          </ns3:TrackPointExtension>
        </extensions>
      </trkpt>
      <trkpt lat="45.3685556352138519287109375" lon="-70.80467755906283855438232421875">
        <ele>459</ele>
        <time>2026-08-21T10:27:37.000Z</time>
        <extensions>
          <ns3:TrackPointExtension>
            <ns3:hr>115</ns3:hr>
            <ns3:cad>0</ns3:cad>
          </ns3:TrackPointExtension>
        </extensions>
      </trkpt>
      <trkpt lat="45.3685556352138519287109375" lon="-70.80467755906283855438232421875">
        <ele>459</ele>
        <time>2026-08-21T10:27:38.000Z</time>
        <extensions>
          <ns3:TrackPointExtension>
            <ns3:hr>114</ns3:hr>
            <ns3:cad>0</ns3:cad>
          </ns3:TrackPointExtension>
        </extensions>
      </trkpt>
      <trkpt lat="45.3685556352138519287109375" lon="-70.80467755906283855438232421875">
        <ele>459</ele>
        <time>2026-08-21T10:27:39.000Z</time>
        <extensions>
          <ns3:TrackPointExtension>
            <ns3:hr>115</ns3:hr>
            <ns3:cad>0</ns3:cad>
          </ns3:TrackPointExtension>
        </extensions>
      </trkpt>
      <trkpt lat="45.3685556352138519287109375" lon="-70.80467755906283855438232421875">
        <ele>459</ele>
        <time>2026-08-21T10:27:40.000Z</time>
        <extensions>
          <ns3:TrackPointExtension>
            <ns3:hr>115</ns3:hr>
            <ns3:cad>0</ns3:cad>
          </ns3:TrackPointExtension>
        </extensions>
      </trkpt>
      <trkpt lat="45.3685556352138519287109375" lon="-70.80467755906283855438232421875">
        <ele>459</ele>
        <time>2026-08-21T10:27:41.000Z</time>
        <extensions>
          <ns3:TrackPointExtension>
            <ns3:hr>115</ns3:hr>
            <ns3:cad>0</ns3:cad>
          </ns3:TrackPointExtension>
        </extensions>
      </trkpt>
      <trkpt lat="45.3685556352138519287109375" lon="-70.80467755906283855438232421875">
        <ele>459</ele>
        <time>2026-08-21T10:27:42.000Z</time>
        <extensions>
          <ns3:TrackPointExtension>
            <ns3:hr>115</ns3:hr>
            <ns3:cad>0</ns3:cad>
          </ns3:TrackPointExtension>
        </extensions>
      </trkpt>
      <trkpt lat="45.3685556352138519287109375" lon="-70.80467755906283855438232421875">
        <ele>459</ele>
        <time>2026-08-21T10:27:43.000Z</time>
        <extensions>
          <ns3:TrackPointExtension>
            <ns3:hr>115</ns3:hr>
            <ns3:cad>0</ns3:cad>
          </ns3:TrackPointExtension>
        </extensions>
      </trkpt>
      <trkpt lat="45.3685556352138519287109375" lon="-70.80467755906283855438232421875">
        <ele>459</ele>
        <time>2026-08-21T10:27:44.000Z</time>
        <extensions>
          <ns3:TrackPointExtension>
            <ns3:hr>115</ns3:hr>
            <ns3:cad>0</ns3:cad>
          </ns3:TrackPointExtension>
        </extensions>
      </trkpt>
      <trkpt lat="45.3685556352138519287109375" lon="-70.80467755906283855438232421875">
        <ele>459</ele>
        <time>2026-08-21T10:27:45.000Z</time>
        <extensions>
          <ns3:TrackPointExtension>
            <ns3:hr>115</ns3:hr>
            <ns3:cad>0</ns3:cad>
          </ns3:TrackPointExtension>
        </extensions>
      </trkpt>
      <trkpt lat="45.3685556352138519287109375" lon="-70.80467755906283855438232421875">
        <ele>459</ele>
        <time>2026-08-21T10:27:46.000Z</time>
        <extensions>
          <ns3:TrackPointExtension>
            <ns3:hr>115</ns3:hr>
            <ns3:cad>0</ns3:cad>
          </ns3:TrackPointExtension>
        </extensions>
      </trkpt>
      <trkpt lat="45.3685556352138519287109375" lon="-70.80467755906283855438232421875">
        <ele>459</ele>
        <time>2026-08-21T10:27:47.000Z</time>
        <extensions>
          <ns3:TrackPointExtension>
            <ns3:hr>113</ns3:hr>
            <ns3:cad>0</ns3:cad>
          </ns3:TrackPointExtension>
        </extensions>
      </trkpt>
      <trkpt lat="45.3685556352138519287109375" lon="-70.80467755906283855438232421875">
        <ele>459</ele>
        <time>2026-08-21T10:27:48.000Z</time>
        <extensions>
          <ns3:TrackPointExtension>
            <ns3:hr>111</ns3:hr>
            <ns3:cad>0</ns3:cad>
          </ns3:TrackPointExtension>
        </extensions>
      </trkpt>
      <trkpt lat="45.3685556352138519287109375" lon="-70.80467755906283855438232421875">
        <ele>459</ele>
        <time>2026-08-21T10:27:49.000Z</time>
        <extensions>
          <ns3:TrackPointExtension>
            <ns3:hr>109</ns3:hr>
            <ns3:cad>0</ns3:cad>
          </ns3:TrackPointExtension>
        </extensions>
      </trkpt>
      <trkpt lat="45.3685556352138519287109375" lon="-70.80467755906283855438232421875">
        <ele>459</ele>
        <time>2026-08-21T10:27:50.000Z</time>
        <extensions>
          <ns3:TrackPointExtension>
            <ns3:hr>105</ns3:hr>
            <ns3:cad>0</ns3:cad>
          </ns3:TrackPointExtension>
        </extensions>
      </trkpt>
      <trkpt lat="45.3685556352138519287109375" lon="-70.80467755906283855438232421875">
        <ele>459</ele>
        <time>2026-08-21T10:27:51.000Z</time>
        <extensions>
          <ns3:TrackPointExtension>
            <ns3:hr>105</ns3:hr>
            <ns3:cad>0</ns3:cad>
          </ns3:TrackPointExtension>
        </extensions>
      </trkpt>
      <trkpt lat="45.3685556352138519287109375" lon="-70.80467755906283855438232421875">
        <ele>459.20001220703125</ele>
        <time>2026-08-21T10:27:52.000Z</time>
        <extensions>
          <ns3:TrackPointExtension>
            <ns3:hr>105</ns3:hr>
            <ns3:cad>0</ns3:cad>
          </ns3:TrackPointExtension>
        </extensions>
      </trkpt>
      <trkpt lat="45.3685556352138519287109375" lon="-70.80467755906283855438232421875">
        <ele>459.20001220703125</ele>
        <time>2026-08-21T10:27:53.000Z</time>
        <extensions>
          <ns3:TrackPointExtension>
            <ns3:hr>105</ns3:hr>
            <ns3:cad>0</ns3:cad>
          </ns3:TrackPointExtension>
        </extensions>
      </trkpt>
      <trkpt lat="45.3685556352138519287109375" lon="-70.80467755906283855438232421875">
        <ele>459.20001220703125</ele>
        <time>2026-08-21T10:27:54.000Z</time>
        <extensions>
          <ns3:TrackPointExtension>
            <ns3:hr>106</ns3:hr>
            <ns3:cad>0</ns3:cad>
          </ns3:TrackPointExtension>
        </extensions>
      </trkpt>
      <trkpt lat="45.3685556352138519287109375" lon="-70.80467755906283855438232421875">
        <ele>459.20001220703125</ele>
        <time>2026-08-21T10:27:55.000Z</time>
        <extensions>
          <ns3:TrackPointExtension>
            <ns3:hr>108</ns3:hr>
            <ns3:cad>0</ns3:cad>
          </ns3:TrackPointExtension>
        </extensions>
      </trkpt>
      <trkpt lat="45.3685556352138519287109375" lon="-70.80467755906283855438232421875">
        <ele>459.20001220703125</ele>
        <time>2026-08-21T10:27:56.000Z</time>
        <extensions>
          <ns3:TrackPointExtension>
            <ns3:hr>108</ns3:hr>
            <ns3:cad>0</ns3:cad>
          </ns3:TrackPointExtension>
        </extensions>
      </trkpt>
      <trkpt lat="45.3685556352138519287109375" lon="-70.80467755906283855438232421875">
        <ele>459.20001220703125</ele>
        <time>2026-08-21T10:27:57.000Z</time>
        <extensions>
          <ns3:TrackPointExtension>
            <ns3:hr>109</ns3:hr>
            <ns3:cad>0</ns3:cad>
          </ns3:TrackPointExtension>
        </extensions>
      </trkpt>
      <trkpt lat="45.36856728605926036834716796875" lon="-70.80467906780540943145751953125">
        <ele>459</ele>
        <time>2026-08-21T10:27:58.000Z</time>
        <extensions>
          <ns3:TrackPointExtension>
            <ns3:hr>109</ns3:hr>
            <ns3:cad>0</ns3:cad>
          </ns3:TrackPointExtension>
        </extensions>
      </trkpt>
      <trkpt lat="45.36857482977211475372314453125" lon="-70.8046754635870456695556640625">
        <ele>459</ele>
        <time>2026-08-21T10:27:59.000Z</time>
        <extensions>
          <ns3:TrackPointExtension>
            <ns3:hr>110</ns3:hr>
            <ns3:cad>0</ns3:cad>
          </ns3:TrackPointExtension>
        </extensions>
      </trkpt>
      <trkpt lat="45.36858187057077884674072265625" lon="-70.80467152409255504608154296875">
        <ele>459</ele>
        <time>2026-08-21T10:28:00.000Z</time>
        <extensions>
          <ns3:TrackPointExtension>
            <ns3:hr>110</ns3:hr>
            <ns3:cad>0</ns3:cad>
          </ns3:TrackPointExtension>
        </extensions>
      </trkpt>
      <trkpt lat="45.36858740262687206268310546875" lon="-70.80466213636100292205810546875">
        <ele>459.20001220703125</ele>
        <time>2026-08-21T10:28:01.000Z</time>
        <extensions>
          <ns3:TrackPointExtension>
            <ns3:hr>110</ns3:hr>
            <ns3:cad>0</ns3:cad>
          </ns3:TrackPointExtension>
        </extensions>
      </trkpt>
      <trkpt lat="45.3685923479497432708740234375" lon="-70.8046424388885498046875">
        <ele>459.20001220703125</ele>
        <time>2026-08-21T10:28:02.000Z</time>
        <extensions>
          <ns3:TrackPointExtension>
            <ns3:hr>110</ns3:hr>
            <ns3:cad>0</ns3:cad>
          </ns3:TrackPointExtension>
        </extensions>
      </trkpt>
      <trkpt lat="45.368597544729709625244140625" lon="-70.80462978221476078033447265625">
        <ele>459</ele>
        <time>2026-08-21T10:28:03.000Z</time>
        <extensions>
          <ns3:TrackPointExtension>
            <ns3:hr>110</ns3:hr>
            <ns3:cad>0</ns3:cad>
          </ns3:TrackPointExtension>
        </extensions>
      </trkpt>
      <trkpt lat="45.36860617808997631072998046875" lon="-70.80462341196835041046142578125">
        <ele>459</ele>
        <time>2026-08-21T10:28:04.000Z</time>
        <extensions>
          <ns3:TrackPointExtension>
            <ns3:hr>111</ns3:hr>
            <ns3:cad>0</ns3:cad>
          </ns3:TrackPointExtension>
        </extensions>
      </trkpt>
      <trkpt lat="45.36861724220216274261474609375" lon="-70.80461620353162288665771484375">
        <ele>458.79998779296875</ele>
        <time>2026-08-21T10:28:05.000Z</time>
        <extensions>
          <ns3:TrackPointExtension>
            <ns3:hr>111</ns3:hr>
            <ns3:cad>0</ns3:cad>
          </ns3:TrackPointExtension>
        </extensions>
      </trkpt>
      <trkpt lat="45.36862378008663654327392578125" lon="-70.8046087436378002166748046875">
        <ele>458.600006103515625</ele>
        <time>2026-08-21T10:28:06.000Z</time>
        <extensions>
          <ns3:TrackPointExtension>
            <ns3:hr>110</ns3:hr>
            <ns3:cad>0</ns3:cad>
          </ns3:TrackPointExtension>
        </extensions>
      </trkpt>
      <trkpt lat="45.36862730048596858978271484375" lon="-70.80460245721042156219482421875">
        <ele>458.399993896484375</ele>
        <time>2026-08-21T10:28:07.000Z</time>
        <extensions>
          <ns3:TrackPointExtension>
            <ns3:hr>110</ns3:hr>
            <ns3:cad>0</ns3:cad>
          </ns3:TrackPointExtension>
        </extensions>
      </trkpt>
      <trkpt lat="45.368629731237888336181640625" lon="-70.80459692515432834625244140625">
        <ele>458.20001220703125</ele>
        <time>2026-08-21T10:28:08.000Z</time>
        <extensions>
          <ns3:TrackPointExtension>
            <ns3:hr>109</ns3:hr>
            <ns3:cad>0</ns3:cad>
          </ns3:TrackPointExtension>
        </extensions>
      </trkpt>
      <trkpt lat="45.368633083999156951904296875" lon="-70.80459541641175746917724609375">
        <ele>458</ele>
        <time>2026-08-21T10:28:09.000Z</time>
        <extensions>
          <ns3:TrackPointExtension>
            <ns3:hr>109</ns3:hr>
            <ns3:cad>56</ns3:cad>
          </ns3:TrackPointExtension>
        </extensions>
      </trkpt>
      <trkpt lat="45.3686414659023284912109375" lon="-70.8045953325927257537841796875">
        <ele>458</ele>
        <time>2026-08-21T10:28:10.000Z</time>
        <extensions>
          <ns3:TrackPointExtension>
            <ns3:hr>109</ns3:hr>
            <ns3:cad>56</ns3:cad>
          </ns3:TrackPointExtension>
        </extensions>
      </trkpt>
      <trkpt lat="45.36865395493805408477783203125" lon="-70.8045926503837108612060546875">
        <ele>457.79998779296875</ele>
        <time>2026-08-21T10:28:11.000Z</time>
        <extensions>
          <ns3:TrackPointExtension>
            <ns3:hr>109</ns3:hr>
            <ns3:cad>56</ns3:cad>
          </ns3:TrackPointExtension>
        </extensions>
      </trkpt>
      <trkpt lat="45.36866351030766963958740234375" lon="-70.80458954907953739166259765625">
        <ele>457.600006103515625</ele>
        <time>2026-08-21T10:28:12.000Z</time>
        <extensions>
          <ns3:TrackPointExtension>
            <ns3:hr>108</ns3:hr>
            <ns3:cad>56</ns3:cad>
          </ns3:TrackPointExtension>
        </extensions>
      </trkpt>
      <trkpt lat="45.36867323331534862518310546875" lon="-70.804581753909587860107421875">
        <ele>457.399993896484375</ele>
        <time>2026-08-21T10:28:13.000Z</time>
        <extensions>
          <ns3:TrackPointExtension>
            <ns3:hr>107</ns3:hr>
            <ns3:cad>56</ns3:cad>
          </ns3:TrackPointExtension>
        </extensions>
      </trkpt>
      <trkpt lat="45.36868513561785221099853515625" lon="-70.80456934869289398193359375">
        <ele>457.20001220703125</ele>
        <time>2026-08-21T10:28:14.000Z</time>
        <extensions>
          <ns3:TrackPointExtension>
            <ns3:hr>108</ns3:hr>
            <ns3:cad>57</ns3:cad>
          </ns3:TrackPointExtension>
        </extensions>
      </trkpt>
      <trkpt lat="45.368692763149738311767578125" lon="-70.804555602371692657470703125">
        <ele>457</ele>
        <time>2026-08-21T10:28:15.000Z</time>
        <extensions>
          <ns3:TrackPointExtension>
            <ns3:hr>108</ns3:hr>
            <ns3:cad>57</ns3:cad>
          </ns3:TrackPointExtension>
        </extensions>
      </trkpt>
      <trkpt lat="45.36869921721518039703369140625" lon="-70.80454277805984020233154296875">
        <ele>456.79998779296875</ele>
        <time>2026-08-21T10:28:16.000Z</time>
        <extensions>
          <ns3:TrackPointExtension>
            <ns3:hr>107</ns3:hr>
            <ns3:cad>53</ns3:cad>
          </ns3:TrackPointExtension>
        </extensions>
      </trkpt>
      <trkpt lat="45.36870424635708332061767578125" lon="-70.80453154630959033966064453125">
        <ele>456.600006103515625</ele>
        <time>2026-08-21T10:28:17.000Z</time>
        <extensions>
          <ns3:TrackPointExtension>
            <ns3:hr>107</ns3:hr>
            <ns3:cad>53</ns3:cad>
          </ns3:TrackPointExtension>
        </extensions>
      </trkpt>
      <trkpt lat="45.3687137179076671600341796875" lon="-70.80451897345483303070068359375">
        <ele>456.600006103515625</ele>
        <time>2026-08-21T10:28:18.000Z</time>
        <extensions>
          <ns3:TrackPointExtension>
            <ns3:hr>108</ns3:hr>
            <ns3:cad>53</ns3:cad>
          </ns3:TrackPointExtension>
        </extensions>
      </trkpt>
      <trkpt lat="45.36872126162052154541015625" lon="-70.804501287639141082763671875">
        <ele>456.399993896484375</ele>
        <time>2026-08-21T10:28:19.000Z</time>
        <extensions>
          <ns3:TrackPointExtension>
            <ns3:hr>107</ns3:hr>
            <ns3:cad>53</ns3:cad>
          </ns3:TrackPointExtension>
        </extensions>
      </trkpt>
      <trkpt lat="45.3687281347811222076416015625" lon="-70.8044873736798763275146484375">
        <ele>456.399993896484375</ele>
        <time>2026-08-21T10:28:20.000Z</time>
        <extensions>
          <ns3:TrackPointExtension>
            <ns3:hr>107</ns3:hr>
            <ns3:cad>53</ns3:cad>
          </ns3:TrackPointExtension>
        </extensions>
      </trkpt>
      <trkpt lat="45.36873601377010345458984375" lon="-70.80447069369256496429443359375">
        <ele>456.399993896484375</ele>
        <time>2026-08-21T10:28:21.000Z</time>
        <extensions>
          <ns3:TrackPointExtension>
            <ns3:hr>106</ns3:hr>
            <ns3:cad>0</ns3:cad>
          </ns3:TrackPointExtension>
        </extensions>
      </trkpt>
      <trkpt lat="45.3687428869307041168212890625" lon="-70.80445828847587108612060546875">
        <ele>456.399993896484375</ele>
        <time>2026-08-21T10:28:22.000Z</time>
        <extensions>
          <ns3:TrackPointExtension>
            <ns3:hr>106</ns3:hr>
            <ns3:cad>0</ns3:cad>
          </ns3:TrackPointExtension>
        </extensions>
      </trkpt>
      <trkpt lat="45.368751771748065948486328125" lon="-70.8044437877833843231201171875">
        <ele>456.399993896484375</ele>
        <time>2026-08-21T10:28:23.000Z</time>
        <extensions>
          <ns3:TrackPointExtension>
            <ns3:hr>106</ns3:hr>
            <ns3:cad>0</ns3:cad>
          </ns3:TrackPointExtension>
        </extensions>
      </trkpt>
      <trkpt lat="45.36876426078379154205322265625" lon="-70.80442526377737522125244140625">
        <ele>456.600006103515625</ele>
        <time>2026-08-21T10:28:24.000Z</time>
        <extensions>
          <ns3:TrackPointExtension>
            <ns3:hr>106</ns3:hr>
            <ns3:cad>0</ns3:cad>
          </ns3:TrackPointExtension>
        </extensions>
      </trkpt>
      <trkpt lat="45.36877281032502651214599609375" lon="-70.80440682359039783477783203125">
        <ele>456.79998779296875</ele>
        <time>2026-08-21T10:28:25.000Z</time>
        <extensions>
          <ns3:TrackPointExtension>
            <ns3:hr>106</ns3:hr>
            <ns3:cad>0</ns3:cad>
          </ns3:TrackPointExtension>
        </extensions>
      </trkpt>
      <trkpt lat="45.36878337152302265167236328125" lon="-70.80438804812729358673095703125">
        <ele>457</ele>
        <time>2026-08-21T10:28:26.000Z</time>
        <extensions>
          <ns3:TrackPointExtension>
            <ns3:hr>106</ns3:hr>
            <ns3:cad>0</ns3:cad>
          </ns3:TrackPointExtension>
        </extensions>
      </trkpt>
      <trkpt lat="45.36879275925457477569580078125" lon="-70.8043770678341388702392578125">
        <ele>457.20001220703125</ele>
        <time>2026-08-21T10:28:27.000Z</time>
        <extensions>
          <ns3:TrackPointExtension>
            <ns3:hr>106</ns3:hr>
            <ns3:cad>0</ns3:cad>
          </ns3:TrackPointExtension>
        </extensions>
      </trkpt>
      <trkpt lat="45.36880181171000003814697265625" lon="-70.8043780736625194549560546875">
        <ele>457.399993896484375</ele>
        <time>2026-08-21T10:28:28.000Z</time>
        <extensions>
          <ns3:TrackPointExtension>
            <ns3:hr>107</ns3:hr>
            <ns3:cad>51</ns3:cad>
          </ns3:TrackPointExtension>
        </extensions>
      </trkpt>
      <trkpt lat="45.36881354637444019317626953125" lon="-70.80437497235834598541259765625">
        <ele>457.399993896484375</ele>
        <time>2026-08-21T10:28:29.000Z</time>
        <extensions>
          <ns3:TrackPointExtension>
            <ns3:hr>107</ns3:hr>
            <ns3:cad>51</ns3:cad>
          </ns3:TrackPointExtension>
        </extensions>
      </trkpt>
      <trkpt lat="45.368819497525691986083984375" lon="-70.8043794147670269012451171875">
        <ele>457.399993896484375</ele>
        <time>2026-08-21T10:28:30.000Z</time>
        <extensions>
          <ns3:TrackPointExtension>
            <ns3:hr>108</ns3:hr>
            <ns3:cad>51</ns3:cad>
          </ns3:TrackPointExtension>
        </extensions>
      </trkpt>
      <trkpt lat="45.36882452666759490966796875" lon="-70.80438737757503986358642578125">
        <ele>457.399993896484375</ele>
        <time>2026-08-21T10:28:31.000Z</time>
        <extensions>
          <ns3:TrackPointExtension>
            <ns3:hr>107</ns3:hr>
            <ns3:cad>0</ns3:cad>
          </ns3:TrackPointExtension>
        </extensions>
      </trkpt>
      <trkpt lat="45.3688367642462253570556640625" lon="-70.8043978549540042877197265625">
        <ele>457.20001220703125</ele>
        <time>2026-08-21T10:28:32.000Z</time>
        <extensions>
          <ns3:TrackPointExtension>
            <ns3:hr>108</ns3:hr>
            <ns3:cad>0</ns3:cad>
          </ns3:TrackPointExtension>
        </extensions>
      </trkpt>
      <trkpt lat="45.36885160021483898162841796875" lon="-70.8043955080211162567138671875">
        <ele>457</ele>
        <time>2026-08-21T10:28:33.000Z</time>
        <extensions>
          <ns3:TrackPointExtension>
            <ns3:hr>108</ns3:hr>
            <ns3:cad>0</ns3:cad>
          </ns3:TrackPointExtension>
        </extensions>
      </trkpt>
      <trkpt lat="45.36886232905089855194091796875" lon="-70.80438938923180103302001953125">
        <ele>456.79998779296875</ele>
        <time>2026-08-21T10:28:34.000Z</time>
        <extensions>
          <ns3:TrackPointExtension>
            <ns3:hr>108</ns3:hr>
            <ns3:cad>0</ns3:cad>
          </ns3:TrackPointExtension>
        </extensions>
      </trkpt>
      <trkpt lat="45.36887741647660732269287109375" lon="-70.8043760620057582855224609375">
        <ele>456.79998779296875</ele>
        <time>2026-08-21T10:28:35.000Z</time>
        <extensions>
          <ns3:TrackPointExtension>
            <ns3:hr>108</ns3:hr>
            <ns3:cad>0</ns3:cad>
          </ns3:TrackPointExtension>
        </extensions>
      </trkpt>
      <trkpt lat="45.3688855469226837158203125" lon="-70.80436474643647670745849609375">
        <ele>456.79998779296875</ele>
        <time>2026-08-21T10:28:36.000Z</time>
        <extensions>
          <ns3:TrackPointExtension>
            <ns3:hr>107</ns3:hr>
            <ns3:cad>0</ns3:cad>
          </ns3:TrackPointExtension>
        </extensions>
      </trkpt>
      <trkpt lat="45.36889216862618923187255859375" lon="-70.80435485579073429107666015625">
        <ele>456.79998779296875</ele>
        <time>2026-08-21T10:28:37.000Z</time>
        <extensions>
          <ns3:TrackPointExtension>
            <ns3:hr>108</ns3:hr>
            <ns3:cad>0</ns3:cad>
          </ns3:TrackPointExtension>
        </extensions>
      </trkpt>
      <trkpt lat="45.36890725605189800262451171875" lon="-70.80434781499207019805908203125">
        <ele>456.79998779296875</ele>
        <time>2026-08-21T10:28:38.000Z</time>
        <extensions>
          <ns3:TrackPointExtension>
            <ns3:hr>109</ns3:hr>
            <ns3:cad>0</ns3:cad>
          </ns3:TrackPointExtension>
        </extensions>
      </trkpt>
      <trkpt lat="45.36892083473503589630126953125" lon="-70.80434580333530902862548828125">
        <ele>456.79998779296875</ele>
        <time>2026-08-21T10:28:39.000Z</time>
        <extensions>
          <ns3:TrackPointExtension>
            <ns3:hr>109</ns3:hr>
            <ns3:cad>0</ns3:cad>
          </ns3:TrackPointExtension>
        </extensions>
      </trkpt>
      <trkpt lat="45.36893307231366634368896484375" lon="-70.8043420314788818359375">
        <ele>456.79998779296875</ele>
        <time>2026-08-21T10:28:40.000Z</time>
        <extensions>
          <ns3:TrackPointExtension>
            <ns3:hr>109</ns3:hr>
            <ns3:cad>48</ns3:cad>
          </ns3:TrackPointExtension>
        </extensions>
      </trkpt>
      <trkpt lat="45.368948914110660552978515625" lon="-70.804336331784725189208984375">
        <ele>456.79998779296875</ele>
        <time>2026-08-21T10:28:41.000Z</time>
        <extensions>
          <ns3:TrackPointExtension>
            <ns3:hr>109</ns3:hr>
            <ns3:cad>48</ns3:cad>
          </ns3:TrackPointExtension>
        </extensions>
      </trkpt>
      <trkpt lat="45.36896123550832271575927734375" lon="-70.80432903952896595001220703125">
        <ele>457</ele>
        <time>2026-08-21T10:28:42.000Z</time>
        <extensions>
          <ns3:TrackPointExtension>
            <ns3:hr>109</ns3:hr>
            <ns3:cad>48</ns3:cad>
          </ns3:TrackPointExtension>
        </extensions>
      </trkpt>
      <trkpt lat="45.36897095851600170135498046875" lon="-70.8043219149112701416015625">
        <ele>457</ele>
        <time>2026-08-21T10:28:43.000Z</time>
        <extensions>
          <ns3:TrackPointExtension>
            <ns3:hr>110</ns3:hr>
            <ns3:cad>0</ns3:cad>
          </ns3:TrackPointExtension>
        </extensions>
      </trkpt>
      <trkpt lat="45.3689852915704250335693359375" lon="-70.80431881360709667205810546875">
        <ele>457</ele>
        <time>2026-08-21T10:28:44.000Z</time>
        <extensions>
          <ns3:TrackPointExtension>
            <ns3:hr>110</ns3:hr>
            <ns3:cad>0</ns3:cad>
          </ns3:TrackPointExtension>
        </extensions>
      </trkpt>
      <trkpt lat="45.36899861879646778106689453125" lon="-70.8043217472732067108154296875">
        <ele>456.79998779296875</ele>
        <time>2026-08-21T10:28:45.000Z</time>
        <extensions>
          <ns3:TrackPointExtension>
            <ns3:hr>111</ns3:hr>
            <ns3:cad>0</ns3:cad>
          </ns3:TrackPointExtension>
        </extensions>
      </trkpt>
      <trkpt lat="45.36900465376675128936767578125" lon="-70.804315544664859771728515625">
        <ele>456.79998779296875</ele>
        <time>2026-08-21T10:28:46.000Z</time>
        <extensions>
          <ns3:TrackPointExtension>
            <ns3:hr>111</ns3:hr>
            <ns3:cad>0</ns3:cad>
          </ns3:TrackPointExtension>
        </extensions>
      </trkpt>
      <trkpt lat="45.369008593261241912841796875" lon="-70.804319567978382110595703125">
        <ele>456.600006103515625</ele>
        <time>2026-08-21T10:28:47.000Z</time>
        <extensions>
          <ns3:TrackPointExtension>
            <ns3:hr>111</ns3:hr>
            <ns3:cad>0</ns3:cad>
          </ns3:TrackPointExtension>
        </extensions>
      </trkpt>
      <trkpt lat="45.36902594380080699920654296875" lon="-70.804324932396411895751953125">
        <ele>456.399993896484375</ele>
        <time>2026-08-21T10:28:48.000Z</time>
        <extensions>
          <ns3:TrackPointExtension>
            <ns3:hr>110</ns3:hr>
            <ns3:cad>0</ns3:cad>
          </ns3:TrackPointExtension>
        </extensions>
      </trkpt>
      <trkpt lat="45.3690459765493869781494140625" lon="-70.804318226873874664306640625">
        <ele>456.399993896484375</ele>
        <time>2026-08-21T10:28:49.000Z</time>
        <extensions>
          <ns3:TrackPointExtension>
            <ns3:hr>111</ns3:hr>
            <ns3:cad>0</ns3:cad>
          </ns3:TrackPointExtension>
        </extensions>
      </trkpt>
      <trkpt lat="45.36905519664287567138671875" lon="-70.8043019659817218780517578125">
        <ele>456.399993896484375</ele>
        <time>2026-08-21T10:28:50.000Z</time>
        <extensions>
          <ns3:TrackPointExtension>
            <ns3:hr>111</ns3:hr>
            <ns3:cad>0</ns3:cad>
          </ns3:TrackPointExtension>
        </extensions>
      </trkpt>
      <trkpt lat="45.36906701512634754180908203125" lon="-70.8042818494141101837158203125">
        <ele>456.399993896484375</ele>
        <time>2026-08-21T10:28:51.000Z</time>
        <extensions>
          <ns3:TrackPointExtension>
            <ns3:hr>112</ns3:hr>
            <ns3:cad>0</ns3:cad>
          </ns3:TrackPointExtension>
        </extensions>
      </trkpt>
      <trkpt lat="45.3690808452665805816650390625" lon="-70.80426617525517940521240234375">
        <ele>456.600006103515625</ele>
        <time>2026-08-21T10:28:52.000Z</time>
        <extensions>
          <ns3:TrackPointExtension>
            <ns3:hr>112</ns3:hr>
            <ns3:cad>0</ns3:cad>
          </ns3:TrackPointExtension>
        </extensions>
      </trkpt>
      <trkpt lat="45.36909517832100391387939453125" lon="-70.8042406104505062103271484375">
        <ele>456.600006103515625</ele>
        <time>2026-08-21T10:28:53.000Z</time>
        <extensions>
          <ns3:TrackPointExtension>
            <ns3:hr>112</ns3:hr>
            <ns3:cad>0</ns3:cad>
          </ns3:TrackPointExtension>
        </extensions>
      </trkpt>
      <trkpt lat="45.3691036440432071685791015625" lon="-70.80421663820743560791015625">
        <ele>456.600006103515625</ele>
        <time>2026-08-21T10:28:54.000Z</time>
        <extensions>
          <ns3:TrackPointExtension>
            <ns3:hr>113</ns3:hr>
            <ns3:cad>47</ns3:cad>
          </ns3:TrackPointExtension>
        </extensions>
      </trkpt>
      <trkpt lat="45.3691083379089832305908203125" lon="-70.80420331098139286041259765625">
        <ele>456.79998779296875</ele>
        <time>2026-08-21T10:28:55.000Z</time>
        <extensions>
          <ns3:TrackPointExtension>
            <ns3:hr>113</ns3:hr>
            <ns3:cad>47</ns3:cad>
          </ns3:TrackPointExtension>
        </extensions>
      </trkpt>
      <trkpt lat="45.3691167198121547698974609375" lon="-70.8042013831436634063720703125">
        <ele>456.79998779296875</ele>
        <time>2026-08-21T10:28:56.000Z</time>
        <extensions>
          <ns3:TrackPointExtension>
            <ns3:hr>113</ns3:hr>
            <ns3:cad>47</ns3:cad>
          </ns3:TrackPointExtension>
        </extensions>
      </trkpt>
      <trkpt lat="45.3691227547824382781982421875" lon="-70.80420431680977344512939453125">
        <ele>456.600006103515625</ele>
        <time>2026-08-21T10:28:57.000Z</time>
        <extensions>
          <ns3:TrackPointExtension>
            <ns3:hr>113</ns3:hr>
            <ns3:cad>44</ns3:cad>
          </ns3:TrackPointExtension>
        </extensions>
      </trkpt>
      <trkpt lat="45.36913298070430755615234375" lon="-70.80420616082847118377685546875">
        <ele>456.600006103515625</ele>
        <time>2026-08-21T10:28:58.000Z</time>
        <extensions>
          <ns3:TrackPointExtension>
            <ns3:hr>114</ns3:hr>
            <ns3:cad>44</ns3:cad>
          </ns3:TrackPointExtension>
        </extensions>
      </trkpt>
      <trkpt lat="45.3691395185887813568115234375" lon="-70.80420113168656826019287109375">
        <ele>456.399993896484375</ele>
        <time>2026-08-21T10:28:59.000Z</time>
        <extensions>
          <ns3:TrackPointExtension>
            <ns3:hr>113</ns3:hr>
            <ns3:cad>44</ns3:cad>
          </ns3:TrackPointExtension>
        </extensions>
      </trkpt>
      <trkpt lat="45.36914429627358913421630859375" lon="-70.80418604426085948944091796875">
        <ele>456.20001220703125</ele>
        <time>2026-08-21T10:29:00.000Z</time>
        <extensions>
          <ns3:TrackPointExtension>
            <ns3:hr>114</ns3:hr>
            <ns3:cad>44</ns3:cad>
          </ns3:TrackPointExtension>
        </extensions>
      </trkpt>
      <trkpt lat="45.36915167234838008880615234375" lon="-70.8041658438742160797119140625">
        <ele>456.20001220703125</ele>
        <time>2026-08-21T10:29:01.000Z</time>
        <extensions>
          <ns3:TrackPointExtension>
            <ns3:hr>114</ns3:hr>
            <ns3:cad>50</ns3:cad>
          </ns3:TrackPointExtension>
        </extensions>
      </trkpt>
      <trkpt lat="45.3691606409847736358642578125" lon="-70.804149918258190155029296875">
        <ele>456</ele>
        <time>2026-08-21T10:29:02.000Z</time>
        <extensions>
          <ns3:TrackPointExtension>
            <ns3:hr>113</ns3:hr>
            <ns3:cad>45</ns3:cad>
          </ns3:TrackPointExtension>
        </extensions>
      </trkpt>
      <trkpt lat="45.36916793324053287506103515625" lon="-70.8041292987763881683349609375">
        <ele>456</ele>
        <time>2026-08-21T10:29:03.000Z</time>
        <extensions>
          <ns3:TrackPointExtension>
            <ns3:hr>113</ns3:hr>
            <ns3:cad>45</ns3:cad>
          </ns3:TrackPointExtension>
        </extensions>
      </trkpt>
      <trkpt lat="45.36917447112500667572021484375" lon="-70.80410473980009555816650390625">
        <ele>456</ele>
        <time>2026-08-21T10:29:04.000Z</time>
        <extensions>
          <ns3:TrackPointExtension>
            <ns3:hr>114</ns3:hr>
            <ns3:cad>45</ns3:cad>
          </ns3:TrackPointExtension>
        </extensions>
      </trkpt>
      <trkpt lat="45.36917698569595813751220703125" lon="-70.8040756545960903167724609375">
        <ele>456.20001220703125</ele>
        <time>2026-08-21T10:29:05.000Z</time>
        <extensions>
          <ns3:TrackPointExtension>
            <ns3:hr>114</ns3:hr>
            <ns3:cad>45</ns3:cad>
          </ns3:TrackPointExtension>
        </extensions>
      </trkpt>
      <trkpt lat="45.369173549115657806396484375" lon="-70.80404908396303653717041015625">
        <ele>456.20001220703125</ele>
        <time>2026-08-21T10:29:06.000Z</time>
        <extensions>
          <ns3:TrackPointExtension>
            <ns3:hr>114</ns3:hr>
            <ns3:cad>45</ns3:cad>
          </ns3:TrackPointExtension>
        </extensions>
      </trkpt>
      <trkpt lat="45.369168184697628021240234375" lon="-70.80402527935802936553955078125">
        <ele>456.399993896484375</ele>
        <time>2026-08-21T10:29:07.000Z</time>
        <extensions>
          <ns3:TrackPointExtension>
            <ns3:hr>115</ns3:hr>
            <ns3:cad>45</ns3:cad>
          </ns3:TrackPointExtension>
        </extensions>
      </trkpt>
      <trkpt lat="45.36916248500347137451171875" lon="-70.80400667153298854827880859375">
        <ele>456.399993896484375</ele>
        <time>2026-08-21T10:29:08.000Z</time>
        <extensions>
          <ns3:TrackPointExtension>
            <ns3:hr>115</ns3:hr>
            <ns3:cad>47</ns3:cad>
          </ns3:TrackPointExtension>
        </extensions>
      </trkpt>
      <trkpt lat="45.36915452219545841217041015625" lon="-70.80398202873766422271728515625">
        <ele>456.600006103515625</ele>
        <time>2026-08-21T10:29:09.000Z</time>
        <extensions>
          <ns3:TrackPointExtension>
            <ns3:hr>115</ns3:hr>
            <ns3:cad>52</ns3:cad>
          </ns3:TrackPointExtension>
        </extensions>
      </trkpt>
      <trkpt lat="45.36914479918777942657470703125" lon="-70.80395922996103763580322265625">
        <ele>456.79998779296875</ele>
        <time>2026-08-21T10:29:10.000Z</time>
        <extensions>
          <ns3:TrackPointExtension>
            <ns3:hr>115</ns3:hr>
            <ns3:cad>52</ns3:cad>
          </ns3:TrackPointExtension>
        </extensions>
      </trkpt>
      <trkpt lat="45.36913373507559299468994140625" lon="-70.80394028685986995697021484375">
        <ele>457</ele>
        <time>2026-08-21T10:29:11.000Z</time>
        <extensions>
          <ns3:TrackPointExtension>
            <ns3:hr>115</ns3:hr>
            <ns3:cad>52</ns3:cad>
          </ns3:TrackPointExtension>
        </extensions>
      </trkpt>
      <trkpt lat="45.36912350915372371673583984375" lon="-70.8039308153092861175537109375">
        <ele>457.20001220703125</ele>
        <time>2026-08-21T10:29:12.000Z</time>
        <extensions>
          <ns3:TrackPointExtension>
            <ns3:hr>116</ns3:hr>
            <ns3:cad>52</ns3:cad>
          </ns3:TrackPointExtension>
        </extensions>
      </trkpt>
      <trkpt lat="45.3691120259463787078857421875" lon="-70.8039261214435100555419921875">
        <ele>457.399993896484375</ele>
        <time>2026-08-21T10:29:13.000Z</time>
        <extensions>
          <ns3:TrackPointExtension>
            <ns3:hr>115</ns3:hr>
            <ns3:cad>51</ns3:cad>
          </ns3:TrackPointExtension>
        </extensions>
      </trkpt>
      <trkpt lat="45.36910305730998516082763671875" lon="-70.8039200864732265472412109375">
        <ele>457.399993896484375</ele>
        <time>2026-08-21T10:29:14.000Z</time>
        <extensions>
          <ns3:TrackPointExtension>
            <ns3:hr>115</ns3:hr>
            <ns3:cad>51</ns3:cad>
          </ns3:TrackPointExtension>
        </extensions>
      </trkpt>
      <trkpt lat="45.36909677088260650634765625" lon="-70.80391312949359416961669921875">
        <ele>457.399993896484375</ele>
        <time>2026-08-21T10:29:15.000Z</time>
        <extensions>
          <ns3:TrackPointExtension>
            <ns3:hr>114</ns3:hr>
            <ns3:cad>40</ns3:cad>
          </ns3:TrackPointExtension>
        </extensions>
      </trkpt>
      <trkpt lat="45.369084365665912628173828125" lon="-70.80390457995235919952392578125">
        <ele>457.399993896484375</ele>
        <time>2026-08-21T10:29:16.000Z</time>
        <extensions>
          <ns3:TrackPointExtension>
            <ns3:hr>115</ns3:hr>
            <ns3:cad>40</ns3:cad>
          </ns3:TrackPointExtension>
        </extensions>
      </trkpt>
      <trkpt lat="45.36907539702951908111572265625" lon="-70.8039009757339954376220703125">
        <ele>457.600006103515625</ele>
        <time>2026-08-21T10:29:17.000Z</time>
        <extensions>
          <ns3:TrackPointExtension>
            <ns3:hr>114</ns3:hr>
            <ns3:cad>40</ns3:cad>
          </ns3:TrackPointExtension>
        </extensions>
      </trkpt>
      <trkpt lat="45.3690758161246776580810546875" lon="-70.803899466991424560546875">
        <ele>457.600006103515625</ele>
        <time>2026-08-21T10:29:18.000Z</time>
        <extensions>
          <ns3:TrackPointExtension>
            <ns3:hr>114</ns3:hr>
            <ns3:cad>0</ns3:cad>
          </ns3:TrackPointExtension>
        </extensions>
      </trkpt>
      <trkpt lat="45.36907120607793331146240234375" lon="-70.803895778954029083251953125">
        <ele>457.600006103515625</ele>
        <time>2026-08-21T10:29:19.000Z</time>
        <extensions>
          <ns3:TrackPointExtension>
            <ns3:hr>115</ns3:hr>
            <ns3:cad>0</ns3:cad>
          </ns3:TrackPointExtension>
        </extensions>
      </trkpt>
      <trkpt lat="45.369066260755062103271484375" lon="-70.8038892410695552825927734375">
        <ele>457.600006103515625</ele>
        <time>2026-08-21T10:29:20.000Z</time>
        <extensions>
          <ns3:TrackPointExtension>
            <ns3:hr>115</ns3:hr>
            <ns3:cad>0</ns3:cad>
          </ns3:TrackPointExtension>
        </extensions>
      </trkpt>
      <trkpt lat="45.36905813030898571014404296875" lon="-70.80388546921312808990478515625">
        <ele>457.600006103515625</ele>
        <time>2026-08-21T10:29:21.000Z</time>
        <extensions>
          <ns3:TrackPointExtension>
            <ns3:hr>114</ns3:hr>
            <ns3:cad>0</ns3:cad>
          </ns3:TrackPointExtension>
        </extensions>
      </trkpt>
      <trkpt lat="45.3690516762435436248779296875" lon="-70.80388111062347888946533203125">
        <ele>457.600006103515625</ele>
        <time>2026-08-21T10:29:22.000Z</time>
        <extensions>
          <ns3:TrackPointExtension>
            <ns3:hr>113</ns3:hr>
            <ns3:cad>0</ns3:cad>
          </ns3:TrackPointExtension>
        </extensions>
      </trkpt>
      <trkpt lat="45.36904404871165752410888671875" lon="-70.8038758300244808197021484375">
        <ele>457.600006103515625</ele>
        <time>2026-08-21T10:29:23.000Z</time>
        <extensions>
          <ns3:TrackPointExtension>
            <ns3:hr>113</ns3:hr>
            <ns3:cad>0</ns3:cad>
          </ns3:TrackPointExtension>
        </extensions>
      </trkpt>
      <trkpt lat="45.3690345771610736846923828125" lon="-70.80387339927256107330322265625">
        <ele>457.600006103515625</ele>
        <time>2026-08-21T10:29:24.000Z</time>
        <extensions>
          <ns3:TrackPointExtension>
            <ns3:hr>112</ns3:hr>
            <ns3:cad>0</ns3:cad>
          </ns3:TrackPointExtension>
        </extensions>
      </trkpt>
      <trkpt lat="45.369021333754062652587890625" lon="-70.80387306399643421173095703125">
        <ele>457.79998779296875</ele>
        <time>2026-08-21T10:29:25.000Z</time>
        <extensions>
          <ns3:TrackPointExtension>
            <ns3:hr>112</ns3:hr>
            <ns3:cad>44</ns3:cad>
          </ns3:TrackPointExtension>
        </extensions>
      </trkpt>
      <trkpt lat="45.369003228843212127685546875" lon="-70.803877674043178558349609375">
        <ele>457.79998779296875</ele>
        <time>2026-08-21T10:29:26.000Z</time>
        <extensions>
          <ns3:TrackPointExtension>
            <ns3:hr>112</ns3:hr>
            <ns3:cad>44</ns3:cad>
          </ns3:TrackPointExtension>
        </extensions>
      </trkpt>
      <trkpt lat="45.3689816035330295562744140625" lon="-70.80388396047055721282958984375">
        <ele>457.79998779296875</ele>
        <time>2026-08-21T10:29:27.000Z</time>
        <extensions>
          <ns3:TrackPointExtension>
            <ns3:hr>112</ns3:hr>
            <ns3:cad>0</ns3:cad>
          </ns3:TrackPointExtension>
        </extensions>
      </trkpt>
      <trkpt lat="45.36896358244121074676513671875" lon="-70.8038927614688873291015625">
        <ele>457.600006103515625</ele>
        <time>2026-08-21T10:29:28.000Z</time>
        <extensions>
          <ns3:TrackPointExtension>
            <ns3:hr>112</ns3:hr>
            <ns3:cad>0</ns3:cad>
          </ns3:TrackPointExtension>
        </extensions>
      </trkpt>
      <trkpt lat="45.36895218305289745330810546875" lon="-70.80389787442982196807861328125">
        <ele>457.399993896484375</ele>
        <time>2026-08-21T10:29:29.000Z</time>
        <extensions>
          <ns3:TrackPointExtension>
            <ns3:hr>112</ns3:hr>
            <ns3:cad>0</ns3:cad>
          </ns3:TrackPointExtension>
        </extensions>
      </trkpt>
      <trkpt lat="45.3689383529126644134521484375" lon="-70.8038992993533611297607421875">
        <ele>457.20001220703125</ele>
        <time>2026-08-21T10:29:30.000Z</time>
        <extensions>
          <ns3:TrackPointExtension>
            <ns3:hr>112</ns3:hr>
            <ns3:cad>0</ns3:cad>
          </ns3:TrackPointExtension>
        </extensions>
      </trkpt>
      <trkpt lat="45.368923433125019073486328125" lon="-70.8038895763456821441650390625">
        <ele>457.20001220703125</ele>
        <time>2026-08-21T10:29:31.000Z</time>
        <extensions>
          <ns3:TrackPointExtension>
            <ns3:hr>113</ns3:hr>
            <ns3:cad>0</ns3:cad>
          </ns3:TrackPointExtension>
        </extensions>
      </trkpt>
      <trkpt lat="45.36891379393637180328369140625" lon="-70.80387809313833713531494140625">
        <ele>457.20001220703125</ele>
        <time>2026-08-21T10:29:32.000Z</time>
        <extensions>
          <ns3:TrackPointExtension>
            <ns3:hr>113</ns3:hr>
            <ns3:cad>0</ns3:cad>
          </ns3:TrackPointExtension>
        </extensions>
      </trkpt>
      <trkpt lat="45.3689122013747692108154296875" lon="-70.8038667775690555572509765625">
        <ele>457.20001220703125</ele>
        <time>2026-08-21T10:29:33.000Z</time>
        <extensions>
          <ns3:TrackPointExtension>
            <ns3:hr>113</ns3:hr>
            <ns3:cad>0</ns3:cad>
          </ns3:TrackPointExtension>
        </extensions>
      </trkpt>
      <trkpt lat="45.3689091838896274566650390625" lon="-70.80385311506688594818115234375">
        <ele>457.399993896484375</ele>
        <time>2026-08-21T10:29:34.000Z</time>
        <extensions>
          <ns3:TrackPointExtension>
            <ns3:hr>113</ns3:hr>
            <ns3:cad>0</ns3:cad>
          </ns3:TrackPointExtension>
        </extensions>
      </trkpt>
      <trkpt lat="45.36889535374939441680908203125" lon="-70.80384121276438236236572265625">
        <ele>457.600006103515625</ele>
        <time>2026-08-21T10:29:35.000Z</time>
        <extensions>
          <ns3:TrackPointExtension>
            <ns3:hr>114</ns3:hr>
            <ns3:cad>0</ns3:cad>
          </ns3:TrackPointExtension>
        </extensions>
      </trkpt>
      <trkpt lat="45.36887339316308498382568359375" lon="-70.80383886583149433135986328125">
        <ele>457.79998779296875</ele>
        <time>2026-08-21T10:29:36.000Z</time>
        <extensions>
          <ns3:TrackPointExtension>
            <ns3:hr>115</ns3:hr>
            <ns3:cad>0</ns3:cad>
          </ns3:TrackPointExtension>
        </extensions>
      </trkpt>
      <trkpt lat="45.368861742317676544189453125" lon="-70.80385244451463222503662109375">
        <ele>457.79998779296875</ele>
        <time>2026-08-21T10:29:37.000Z</time>
        <extensions>
          <ns3:TrackPointExtension>
            <ns3:hr>116</ns3:hr>
            <ns3:cad>0</ns3:cad>
          </ns3:TrackPointExtension>
        </extensions>
      </trkpt>
      <trkpt lat="45.368846319615840911865234375" lon="-70.80386392772197723388671875">
        <ele>457.79998779296875</ele>
        <time>2026-08-21T10:29:38.000Z</time>
        <extensions>
          <ns3:TrackPointExtension>
            <ns3:hr>116</ns3:hr>
            <ns3:cad>0</ns3:cad>
          </ns3:TrackPointExtension>
        </extensions>
      </trkpt>
      <trkpt lat="45.368833243846893310546875" lon="-70.803872644901275634765625">
        <ele>457.79998779296875</ele>
        <time>2026-08-21T10:29:39.000Z</time>
        <extensions>
          <ns3:TrackPointExtension>
            <ns3:hr>117</ns3:hr>
            <ns3:cad>0</ns3:cad>
          </ns3:TrackPointExtension>
        </extensions>
      </trkpt>
      <trkpt lat="45.36882243119180202484130859375" lon="-70.80386971123516559600830078125">
        <ele>457.79998779296875</ele>
        <time>2026-08-21T10:29:40.000Z</time>
        <extensions>
          <ns3:TrackPointExtension>
            <ns3:hr>118</ns3:hr>
            <ns3:cad>0</ns3:cad>
          </ns3:TrackPointExtension>
        </extensions>
      </trkpt>
      <trkpt lat="45.36881304346024990081787109375" lon="-70.80385797657072544097900390625">
        <ele>457.79998779296875</ele>
        <time>2026-08-21T10:29:41.000Z</time>
        <extensions>
          <ns3:TrackPointExtension>
            <ns3:hr>119</ns3:hr>
            <ns3:cad>0</ns3:cad>
          </ns3:TrackPointExtension>
        </extensions>
      </trkpt>
      <trkpt lat="45.3688049130141735076904296875" lon="-70.8038429729640483856201171875">
        <ele>457.79998779296875</ele>
        <time>2026-08-21T10:29:42.000Z</time>
        <extensions>
          <ns3:TrackPointExtension>
            <ns3:hr>119</ns3:hr>
            <ns3:cad>0</ns3:cad>
          </ns3:TrackPointExtension>
        </extensions>
      </trkpt>
      <trkpt lat="45.368799380958080291748046875" lon="-70.80382964573800563812255859375">
        <ele>457.79998779296875</ele>
        <time>2026-08-21T10:29:43.000Z</time>
        <extensions>
          <ns3:TrackPointExtension>
            <ns3:hr>120</ns3:hr>
            <ns3:cad>0</ns3:cad>
          </ns3:TrackPointExtension>
        </extensions>
      </trkpt>
      <trkpt lat="45.368783287703990936279296875" lon="-70.803805254399776458740234375">
        <ele>457.79998779296875</ele>
        <time>2026-08-21T10:29:44.000Z</time>
        <extensions>
          <ns3:TrackPointExtension>
            <ns3:hr>120</ns3:hr>
            <ns3:cad>0</ns3:cad>
          </ns3:TrackPointExtension>
        </extensions>
      </trkpt>
      <trkpt lat="45.3687755763530731201171875" lon="-70.80379561521112918853759765625">
        <ele>457.79998779296875</ele>
        <time>2026-08-21T10:29:45.000Z</time>
        <extensions>
          <ns3:TrackPointExtension>
            <ns3:hr>119</ns3:hr>
            <ns3:cad>0</ns3:cad>
          </ns3:TrackPointExtension>
        </extensions>
      </trkpt>
      <trkpt lat="45.3687723912298679351806640625" lon="-70.80377935431897640228271484375">
        <ele>457.79998779296875</ele>
        <time>2026-08-21T10:29:46.000Z</time>
        <extensions>
          <ns3:TrackPointExtension>
            <ns3:hr>119</ns3:hr>
            <ns3:cad>0</ns3:cad>
          </ns3:TrackPointExtension>
        </extensions>
      </trkpt>
      <trkpt lat="45.3687680326402187347412109375" lon="-70.80376007594168186187744140625">
        <ele>457.79998779296875</ele>
        <time>2026-08-21T10:29:47.000Z</time>
        <extensions>
          <ns3:TrackPointExtension>
            <ns3:hr>119</ns3:hr>
            <ns3:cad>0</ns3:cad>
          </ns3:TrackPointExtension>
        </extensions>
      </trkpt>
      <trkpt lat="45.368758477270603179931640625" lon="-70.80373962409794330596923828125">
        <ele>457.79998779296875</ele>
        <time>2026-08-21T10:29:48.000Z</time>
        <extensions>
          <ns3:TrackPointExtension>
            <ns3:hr>118</ns3:hr>
            <ns3:cad>0</ns3:cad>
          </ns3:TrackPointExtension>
        </extensions>
      </trkpt>
      <trkpt lat="45.368750095367431640625" lon="-70.80372604541480541229248046875">
        <ele>457.600006103515625</ele>
        <time>2026-08-21T10:29:49.000Z</time>
        <extensions>
          <ns3:TrackPointExtension>
            <ns3:hr>118</ns3:hr>
            <ns3:cad>0</ns3:cad>
          </ns3:TrackPointExtension>
        </extensions>
      </trkpt>
      <trkpt lat="45.36873861216008663177490234375" lon="-70.8037112094461917877197265625">
        <ele>457.600006103515625</ele>
        <time>2026-08-21T10:29:50.000Z</time>
        <extensions>
          <ns3:TrackPointExtension>
            <ns3:hr>117</ns3:hr>
            <ns3:cad>0</ns3:cad>
          </ns3:TrackPointExtension>
        </extensions>
      </trkpt>
      <trkpt lat="45.36873190663754940032958984375" lon="-70.8036988042294979095458984375">
        <ele>457.600006103515625</ele>
        <time>2026-08-21T10:29:51.000Z</time>
        <extensions>
          <ns3:TrackPointExtension>
            <ns3:hr>117</ns3:hr>
            <ns3:cad>0</ns3:cad>
          </ns3:TrackPointExtension>
        </extensions>
      </trkpt>
      <trkpt lat="45.3687264584004878997802734375" lon="-70.80368698574602603912353515625">
        <ele>457.600006103515625</ele>
        <time>2026-08-21T10:29:52.000Z</time>
        <extensions>
          <ns3:TrackPointExtension>
            <ns3:hr>117</ns3:hr>
            <ns3:cad>0</ns3:cad>
          </ns3:TrackPointExtension>
        </extensions>
      </trkpt>
      <trkpt lat="45.36871564574539661407470703125" lon="-70.80367617309093475341796875">
        <ele>457.600006103515625</ele>
        <time>2026-08-21T10:29:53.000Z</time>
        <extensions>
          <ns3:TrackPointExtension>
            <ns3:hr>117</ns3:hr>
            <ns3:cad>0</ns3:cad>
          </ns3:TrackPointExtension>
        </extensions>
      </trkpt>
      <trkpt lat="45.36870072595775127410888671875" lon="-70.8036647737026214599609375">
        <ele>457.79998779296875</ele>
        <time>2026-08-21T10:29:54.000Z</time>
        <extensions>
          <ns3:TrackPointExtension>
            <ns3:hr>117</ns3:hr>
            <ns3:cad>0</ns3:cad>
          </ns3:TrackPointExtension>
        </extensions>
      </trkpt>
      <trkpt lat="45.36868245340883731842041015625" lon="-70.803652368485927581787109375">
        <ele>457.79998779296875</ele>
        <time>2026-08-21T10:29:55.000Z</time>
        <extensions>
          <ns3:TrackPointExtension>
            <ns3:hr>118</ns3:hr>
            <ns3:cad>0</ns3:cad>
          </ns3:TrackPointExtension>
        </extensions>
      </trkpt>
      <trkpt lat="45.3686701320111751556396484375" lon="-70.80364390276372432708740234375">
        <ele>457.79998779296875</ele>
        <time>2026-08-21T10:29:56.000Z</time>
        <extensions>
          <ns3:TrackPointExtension>
            <ns3:hr>118</ns3:hr>
            <ns3:cad>0</ns3:cad>
          </ns3:TrackPointExtension>
        </extensions>
      </trkpt>
      <trkpt lat="45.36866233684122562408447265625" lon="-70.80363920889794826507568359375">
        <ele>457.79998779296875</ele>
        <time>2026-08-21T10:29:57.000Z</time>
        <extensions>
          <ns3:TrackPointExtension>
            <ns3:hr>118</ns3:hr>
            <ns3:cad>0</ns3:cad>
          </ns3:TrackPointExtension>
        </extensions>
      </trkpt>
      <trkpt lat="45.3686535358428955078125" lon="-70.80363468267023563385009765625">
        <ele>457.79998779296875</ele>
        <time>2026-08-21T10:29:58.000Z</time>
        <extensions>
          <ns3:TrackPointExtension>
            <ns3:hr>117</ns3:hr>
            <ns3:cad>0</ns3:cad>
          </ns3:TrackPointExtension>
        </extensions>
      </trkpt>
      <trkpt lat="45.3686463274061679840087890625" lon="-70.8036257140338420867919921875">
        <ele>457.79998779296875</ele>
        <time>2026-08-21T10:29:59.000Z</time>
        <extensions>
          <ns3:TrackPointExtension>
            <ns3:hr>118</ns3:hr>
            <ns3:cad>0</ns3:cad>
          </ns3:TrackPointExtension>
        </extensions>
      </trkpt>
      <trkpt lat="45.3686406277120113372802734375" lon="-70.803617499768733978271484375">
        <ele>457.79998779296875</ele>
        <time>2026-08-21T10:30:00.000Z</time>
        <extensions>
          <ns3:TrackPointExtension>
            <ns3:hr>118</ns3:hr>
            <ns3:cad>0</ns3:cad>
          </ns3:TrackPointExtension>
        </extensions>
      </trkpt>
      <trkpt lat="45.36863283254206180572509765625" lon="-70.8036049269139766693115234375">
        <ele>457.79998779296875</ele>
        <time>2026-08-21T10:30:01.000Z</time>
        <extensions>
          <ns3:TrackPointExtension>
            <ns3:hr>118</ns3:hr>
            <ns3:cad>0</ns3:cad>
          </ns3:TrackPointExtension>
        </extensions>
      </trkpt>
      <trkpt lat="45.36861958913505077362060546875" lon="-70.80359981395304203033447265625">
        <ele>458</ele>
        <time>2026-08-21T10:30:02.000Z</time>
        <extensions>
          <ns3:TrackPointExtension>
            <ns3:hr>118</ns3:hr>
            <ns3:cad>57</ns3:cad>
          </ns3:TrackPointExtension>
        </extensions>
      </trkpt>
      <trkpt lat="45.3686071000993251800537109375" lon="-70.80359277315437793731689453125">
        <ele>458</ele>
        <time>2026-08-21T10:30:03.000Z</time>
        <extensions>
          <ns3:TrackPointExtension>
            <ns3:hr>118</ns3:hr>
            <ns3:cad>57</ns3:cad>
          </ns3:TrackPointExtension>
        </extensions>
      </trkpt>
      <trkpt lat="45.368598215281963348388671875" lon="-70.8035884983837604522705078125">
        <ele>458</ele>
        <time>2026-08-21T10:30:04.000Z</time>
        <extensions>
          <ns3:TrackPointExtension>
            <ns3:hr>118</ns3:hr>
            <ns3:cad>57</ns3:cad>
          </ns3:TrackPointExtension>
        </extensions>
      </trkpt>
      <trkpt lat="45.36859360523521900177001953125" lon="-70.8035941980779170989990234375">
        <ele>457.79998779296875</ele>
        <time>2026-08-21T10:30:05.000Z</time>
        <extensions>
          <ns3:TrackPointExtension>
            <ns3:hr>118</ns3:hr>
            <ns3:cad>57</ns3:cad>
          </ns3:TrackPointExtension>
        </extensions>
      </trkpt>
      <trkpt lat="45.36857415921986103057861328125" lon="-70.80360031686723232269287109375">
        <ele>457.79998779296875</ele>
        <time>2026-08-21T10:30:06.000Z</time>
        <extensions>
          <ns3:TrackPointExtension>
            <ns3:hr>118</ns3:hr>
            <ns3:cad>57</ns3:cad>
          </ns3:TrackPointExtension>
        </extensions>
      </trkpt>
      <trkpt lat="45.36855689249932765960693359375" lon="-70.80360375344753265380859375">
        <ele>457.79998779296875</ele>
        <time>2026-08-21T10:30:07.000Z</time>
        <extensions>
          <ns3:TrackPointExtension>
            <ns3:hr>118</ns3:hr>
            <ns3:cad>57</ns3:cad>
          </ns3:TrackPointExtension>
        </extensions>
      </trkpt>
      <trkpt lat="45.36854063160717487335205078125" lon="-70.8036112971603870391845703125">
        <ele>458</ele>
        <time>2026-08-21T10:30:08.000Z</time>
        <extensions>
          <ns3:TrackPointExtension>
            <ns3:hr>117</ns3:hr>
            <ns3:cad>57</ns3:cad>
          </ns3:TrackPointExtension>
        </extensions>
      </trkpt>
      <trkpt lat="45.3685259632766246795654296875" lon="-70.80361942760646343231201171875">
        <ele>458</ele>
        <time>2026-08-21T10:30:09.000Z</time>
        <extensions>
          <ns3:TrackPointExtension>
            <ns3:hr>118</ns3:hr>
            <ns3:cad>57</ns3:cad>
          </ns3:TrackPointExtension>
        </extensions>
      </trkpt>
      <trkpt lat="45.368513055145740509033203125" lon="-70.8036270551383495330810546875">
        <ele>458</ele>
        <time>2026-08-21T10:30:10.000Z</time>
        <extensions>
          <ns3:TrackPointExtension>
            <ns3:hr>118</ns3:hr>
            <ns3:cad>57</ns3:cad>
          </ns3:TrackPointExtension>
        </extensions>
      </trkpt>
      <trkpt lat="45.3684988059103488922119140625" lon="-70.803630240261554718017578125">
        <ele>458.20001220703125</ele>
        <time>2026-08-21T10:30:11.000Z</time>
        <extensions>
          <ns3:TrackPointExtension>
            <ns3:hr>118</ns3:hr>
            <ns3:cad>57</ns3:cad>
          </ns3:TrackPointExtension>
        </extensions>
      </trkpt>
      <trkpt lat="45.36848262883722782135009765625" lon="-70.80362764187157154083251953125">
        <ele>458.20001220703125</ele>
        <time>2026-08-21T10:30:12.000Z</time>
        <extensions>
          <ns3:TrackPointExtension>
            <ns3:hr>118</ns3:hr>
            <ns3:cad>57</ns3:cad>
          </ns3:TrackPointExtension>
        </extensions>
      </trkpt>
      <trkpt lat="45.3684679605066776275634765625" lon="-70.803628899157047271728515625">
        <ele>458.20001220703125</ele>
        <time>2026-08-21T10:30:13.000Z</time>
        <extensions>
          <ns3:TrackPointExtension>
            <ns3:hr>119</ns3:hr>
            <ns3:cad>57</ns3:cad>
          </ns3:TrackPointExtension>
        </extensions>
      </trkpt>
      <trkpt lat="45.36845798604190349578857421875" lon="-70.80362546257674694061279296875">
        <ele>458.20001220703125</ele>
        <time>2026-08-21T10:30:14.000Z</time>
        <extensions>
          <ns3:TrackPointExtension>
            <ns3:hr>119</ns3:hr>
            <ns3:cad>57</ns3:cad>
          </ns3:TrackPointExtension>
        </extensions>
      </trkpt>
      <trkpt lat="45.3684438206255435943603515625" lon="-70.80362613312900066375732421875">
        <ele>458.20001220703125</ele>
        <time>2026-08-21T10:30:15.000Z</time>
        <extensions>
          <ns3:TrackPointExtension>
            <ns3:hr>119</ns3:hr>
            <ns3:cad>57</ns3:cad>
          </ns3:TrackPointExtension>
        </extensions>
      </trkpt>
      <trkpt lat="45.36843317560851573944091796875" lon="-70.803620852530002593994140625">
        <ele>458.20001220703125</ele>
        <time>2026-08-21T10:30:16.000Z</time>
        <extensions>
          <ns3:TrackPointExtension>
            <ns3:hr>119</ns3:hr>
            <ns3:cad>57</ns3:cad>
          </ns3:TrackPointExtension>
        </extensions>
      </trkpt>
      <trkpt lat="45.36842110566794872283935546875" lon="-70.8036146499216556549072265625">
        <ele>458.20001220703125</ele>
        <time>2026-08-21T10:30:17.000Z</time>
        <extensions>
          <ns3:TrackPointExtension>
            <ns3:hr>118</ns3:hr>
            <ns3:cad>0</ns3:cad>
          </ns3:TrackPointExtension>
        </extensions>
      </trkpt>
      <trkpt lat="45.368412472307682037353515625" lon="-70.8036116324365139007568359375">
        <ele>458.399993896484375</ele>
        <time>2026-08-21T10:30:18.000Z</time>
        <extensions>
          <ns3:TrackPointExtension>
            <ns3:hr>118</ns3:hr>
            <ns3:cad>0</ns3:cad>
          </ns3:TrackPointExtension>
        </extensions>
      </trkpt>
      <trkpt lat="45.368407778441905975341796875" lon="-70.80360920168459415435791015625">
        <ele>458.399993896484375</ele>
        <time>2026-08-21T10:30:19.000Z</time>
        <extensions>
          <ns3:TrackPointExtension>
            <ns3:hr>119</ns3:hr>
            <ns3:cad>0</ns3:cad>
          </ns3:TrackPointExtension>
        </extensions>
      </trkpt>
      <trkpt lat="45.36840350367128849029541015625" lon="-70.803604088723659515380859375">
        <ele>458.600006103515625</ele>
        <time>2026-08-21T10:30:20.000Z</time>
        <extensions>
          <ns3:TrackPointExtension>
            <ns3:hr>119</ns3:hr>
            <ns3:cad>0</ns3:cad>
          </ns3:TrackPointExtension>
        </extensions>
      </trkpt>
      <trkpt lat="45.36840015091001987457275390625" lon="-70.80359512008726596832275390625">
        <ele>458.79998779296875</ele>
        <time>2026-08-21T10:30:21.000Z</time>
        <extensions>
          <ns3:TrackPointExtension>
            <ns3:hr>118</ns3:hr>
            <ns3:cad>0</ns3:cad>
          </ns3:TrackPointExtension>
        </extensions>
      </trkpt>
      <trkpt lat="45.36839311011135578155517578125" lon="-70.80359302461147308349609375">
        <ele>458.79998779296875</ele>
        <time>2026-08-21T10:30:22.000Z</time>
        <extensions>
          <ns3:TrackPointExtension>
            <ns3:hr>118</ns3:hr>
            <ns3:cad>0</ns3:cad>
          </ns3:TrackPointExtension>
        </extensions>
      </trkpt>
      <trkpt lat="45.368385650217533111572265625" lon="-70.80359227024018764495849609375">
        <ele>459</ele>
        <time>2026-08-21T10:30:23.000Z</time>
        <extensions>
          <ns3:TrackPointExtension>
            <ns3:hr>118</ns3:hr>
            <ns3:cad>40</ns3:cad>
          </ns3:TrackPointExtension>
        </extensions>
      </trkpt>
      <trkpt lat="45.36837165243923664093017578125" lon="-70.80358363687992095947265625">
        <ele>459.20001220703125</ele>
        <time>2026-08-21T10:30:24.000Z</time>
        <extensions>
          <ns3:TrackPointExtension>
            <ns3:hr>118</ns3:hr>
            <ns3:cad>40</ns3:cad>
          </ns3:TrackPointExtension>
        </extensions>
      </trkpt>
      <trkpt lat="45.36835874430835247039794921875" lon="-70.80357852391898632049560546875">
        <ele>459.20001220703125</ele>
        <time>2026-08-21T10:30:25.000Z</time>
        <extensions>
          <ns3:TrackPointExtension>
            <ns3:hr>119</ns3:hr>
            <ns3:cad>40</ns3:cad>
          </ns3:TrackPointExtension>
        </extensions>
      </trkpt>
      <trkpt lat="45.36834801547229290008544921875" lon="-70.8035834692418575286865234375">
        <ele>459.399993896484375</ele>
        <time>2026-08-21T10:30:26.000Z</time>
        <extensions>
          <ns3:TrackPointExtension>
            <ns3:hr>118</ns3:hr>
            <ns3:cad>40</ns3:cad>
          </ns3:TrackPointExtension>
        </extensions>
      </trkpt>
      <trkpt lat="45.36833577789366245269775390625" lon="-70.80359042622148990631103515625">
        <ele>459.600006103515625</ele>
        <time>2026-08-21T10:30:27.000Z</time>
        <extensions>
          <ns3:TrackPointExtension>
            <ns3:hr>118</ns3:hr>
            <ns3:cad>40</ns3:cad>
          </ns3:TrackPointExtension>
        </extensions>
      </trkpt>
      <trkpt lat="45.36832454614341259002685546875" lon="-70.80359143204987049102783203125">
        <ele>459.600006103515625</ele>
        <time>2026-08-21T10:30:28.000Z</time>
        <extensions>
          <ns3:TrackPointExtension>
            <ns3:hr>118</ns3:hr>
            <ns3:cad>0</ns3:cad>
          </ns3:TrackPointExtension>
        </extensions>
      </trkpt>
      <trkpt lat="45.36831624805927276611328125" lon="-70.80358690582215785980224609375">
        <ele>459.79998779296875</ele>
        <time>2026-08-21T10:30:29.000Z</time>
        <extensions>
          <ns3:TrackPointExtension>
            <ns3:hr>118</ns3:hr>
            <ns3:cad>47</ns3:cad>
          </ns3:TrackPointExtension>
        </extensions>
      </trkpt>
      <trkpt lat="45.36830711178481578826904296875" lon="-70.8035700581967830657958984375">
        <ele>459.79998779296875</ele>
        <time>2026-08-21T10:30:30.000Z</time>
        <extensions>
          <ns3:TrackPointExtension>
            <ns3:hr>118</ns3:hr>
            <ns3:cad>47</ns3:cad>
          </ns3:TrackPointExtension>
        </extensions>
      </trkpt>
      <trkpt lat="45.36830015480518341064453125" lon="-70.80355756916105747222900390625">
        <ele>460</ele>
        <time>2026-08-21T10:30:31.000Z</time>
        <extensions>
          <ns3:TrackPointExtension>
            <ns3:hr>119</ns3:hr>
            <ns3:cad>48</ns3:cad>
          </ns3:TrackPointExtension>
        </extensions>
      </trkpt>
      <trkpt lat="45.36829202435910701751708984375" lon="-70.80354667268693447113037109375">
        <ele>460</ele>
        <time>2026-08-21T10:30:32.000Z</time>
        <extensions>
          <ns3:TrackPointExtension>
            <ns3:hr>119</ns3:hr>
            <ns3:cad>48</ns3:cad>
          </ns3:TrackPointExtension>
        </extensions>
      </trkpt>
      <trkpt lat="45.36828406155109405517578125" lon="-70.8035351894795894622802734375">
        <ele>460.20001220703125</ele>
        <time>2026-08-21T10:30:33.000Z</time>
        <extensions>
          <ns3:TrackPointExtension>
            <ns3:hr>119</ns3:hr>
            <ns3:cad>52</ns3:cad>
          </ns3:TrackPointExtension>
        </extensions>
      </trkpt>
      <trkpt lat="45.36827459000051021575927734375" lon="-70.80352337099611759185791015625">
        <ele>460.20001220703125</ele>
        <time>2026-08-21T10:30:34.000Z</time>
        <extensions>
          <ns3:TrackPointExtension>
            <ns3:hr>119</ns3:hr>
            <ns3:cad>52</ns3:cad>
          </ns3:TrackPointExtension>
        </extensions>
      </trkpt>
      <trkpt lat="45.368258245289325714111328125" lon="-70.80352018587291240692138671875">
        <ele>460.399993896484375</ele>
        <time>2026-08-21T10:30:35.000Z</time>
        <extensions>
          <ns3:TrackPointExtension>
            <ns3:hr>119</ns3:hr>
            <ns3:cad>51</ns3:cad>
          </ns3:TrackPointExtension>
        </extensions>
      </trkpt>
      <trkpt lat="45.3682493604719638824462890625" lon="-70.803519599139690399169921875">
        <ele>460.399993896484375</ele>
        <time>2026-08-21T10:30:36.000Z</time>
        <extensions>
          <ns3:TrackPointExtension>
            <ns3:hr>119</ns3:hr>
            <ns3:cad>51</ns3:cad>
          </ns3:TrackPointExtension>
        </extensions>
      </trkpt>
      <trkpt lat="45.3682386316359043121337890625" lon="-70.803510211408138275146484375">
        <ele>460.399993896484375</ele>
        <time>2026-08-21T10:30:37.000Z</time>
        <extensions>
          <ns3:TrackPointExtension>
            <ns3:hr>119</ns3:hr>
            <ns3:cad>51</ns3:cad>
          </ns3:TrackPointExtension>
        </extensions>
      </trkpt>
      <trkpt lat="45.36822899244725704193115234375" lon="-70.80349923111498355865478515625">
        <ele>460.600006103515625</ele>
        <time>2026-08-21T10:30:38.000Z</time>
        <extensions>
          <ns3:TrackPointExtension>
            <ns3:hr>119</ns3:hr>
            <ns3:cad>48</ns3:cad>
          </ns3:TrackPointExtension>
        </extensions>
      </trkpt>
      <trkpt lat="45.36821960471570491790771484375" lon="-70.8034922741353511810302734375">
        <ele>460.600006103515625</ele>
        <time>2026-08-21T10:30:39.000Z</time>
        <extensions>
          <ns3:TrackPointExtension>
            <ns3:hr>119</ns3:hr>
            <ns3:cad>48</ns3:cad>
          </ns3:TrackPointExtension>
        </extensions>
      </trkpt>
      <trkpt lat="45.36820267327129840850830078125" lon="-70.80348095856606960296630859375">
        <ele>460.600006103515625</ele>
        <time>2026-08-21T10:30:40.000Z</time>
        <extensions>
          <ns3:TrackPointExtension>
            <ns3:hr>120</ns3:hr>
            <ns3:cad>48</ns3:cad>
          </ns3:TrackPointExtension>
        </extensions>
      </trkpt>
      <trkpt lat="45.368194878101348876953125" lon="-70.803477354347705841064453125">
        <ele>460.600006103515625</ele>
        <time>2026-08-21T10:30:41.000Z</time>
        <extensions>
          <ns3:TrackPointExtension>
            <ns3:hr>120</ns3:hr>
            <ns3:cad>48</ns3:cad>
          </ns3:TrackPointExtension>
        </extensions>
      </trkpt>
      <trkpt lat="45.36818473599851131439208984375" lon="-70.80347073264420032501220703125">
        <ele>460.79998779296875</ele>
        <time>2026-08-21T10:30:42.000Z</time>
        <extensions>
          <ns3:TrackPointExtension>
            <ns3:hr>121</ns3:hr>
            <ns3:cad>48</ns3:cad>
          </ns3:TrackPointExtension>
        </extensions>
      </trkpt>
      <trkpt lat="45.3681739233434200286865234375" lon="-70.803456567227840423583984375">
        <ele>460.79998779296875</ele>
        <time>2026-08-21T10:30:43.000Z</time>
        <extensions>
          <ns3:TrackPointExtension>
            <ns3:hr>121</ns3:hr>
            <ns3:cad>48</ns3:cad>
          </ns3:TrackPointExtension>
        </extensions>
      </trkpt>
      <trkpt lat="45.36816244013607501983642578125" lon="-70.80343921668827533721923828125">
        <ele>460.79998779296875</ele>
        <time>2026-08-21T10:30:44.000Z</time>
        <extensions>
          <ns3:TrackPointExtension>
            <ns3:hr>121</ns3:hr>
            <ns3:cad>48</ns3:cad>
          </ns3:TrackPointExtension>
        </extensions>
      </trkpt>
      <trkpt lat="45.368156991899013519287109375" lon="-70.803430415689945220947265625">
        <ele>460.79998779296875</ele>
        <time>2026-08-21T10:30:45.000Z</time>
        <extensions>
          <ns3:TrackPointExtension>
            <ns3:hr>122</ns3:hr>
            <ns3:cad>50</ns3:cad>
          </ns3:TrackPointExtension>
        </extensions>
      </trkpt>
      <trkpt lat="45.36814986728131771087646484375" lon="-70.80340954475104808807373046875">
        <ele>460.79998779296875</ele>
        <time>2026-08-21T10:30:46.000Z</time>
        <extensions>
          <ns3:TrackPointExtension>
            <ns3:hr>121</ns3:hr>
            <ns3:cad>50</ns3:cad>
          </ns3:TrackPointExtension>
        </extensions>
      </trkpt>
      <trkpt lat="45.36814182065427303314208984375" lon="-70.8033856563270092010498046875">
        <ele>460.79998779296875</ele>
        <time>2026-08-21T10:30:47.000Z</time>
        <extensions>
          <ns3:TrackPointExtension>
            <ns3:hr>121</ns3:hr>
            <ns3:cad>50</ns3:cad>
          </ns3:TrackPointExtension>
        </extensions>
      </trkpt>
      <trkpt lat="45.36813058890402317047119140625" lon="-70.80337107181549072265625">
        <ele>460.79998779296875</ele>
        <time>2026-08-21T10:30:48.000Z</time>
        <extensions>
          <ns3:TrackPointExtension>
            <ns3:hr>121</ns3:hr>
            <ns3:cad>50</ns3:cad>
          </ns3:TrackPointExtension>
        </extensions>
      </trkpt>
      <trkpt lat="45.3681129030883312225341796875" lon="-70.80335958860814571380615234375">
        <ele>460.79998779296875</ele>
        <time>2026-08-21T10:30:49.000Z</time>
        <extensions>
          <ns3:TrackPointExtension>
            <ns3:hr>120</ns3:hr>
            <ns3:cad>52</ns3:cad>
          </ns3:TrackPointExtension>
        </extensions>
      </trkpt>
      <trkpt lat="45.3680947981774806976318359375" lon="-70.80334785394370555877685546875">
        <ele>460.79998779296875</ele>
        <time>2026-08-21T10:30:50.000Z</time>
        <extensions>
          <ns3:TrackPointExtension>
            <ns3:hr>120</ns3:hr>
            <ns3:cad>52</ns3:cad>
          </ns3:TrackPointExtension>
        </extensions>
      </trkpt>
      <trkpt lat="45.368077196180820465087890625" lon="-70.8033370412886142730712890625">
        <ele>460.79998779296875</ele>
        <time>2026-08-21T10:30:51.000Z</time>
        <extensions>
          <ns3:TrackPointExtension>
            <ns3:hr>120</ns3:hr>
            <ns3:cad>52</ns3:cad>
          </ns3:TrackPointExtension>
        </extensions>
      </trkpt>
      <trkpt lat="45.36806504242122173309326171875" lon="-70.8033300004899501800537109375">
        <ele>460.79998779296875</ele>
        <time>2026-08-21T10:30:52.000Z</time>
        <extensions>
          <ns3:TrackPointExtension>
            <ns3:hr>120</ns3:hr>
            <ns3:cad>55</ns3:cad>
          </ns3:TrackPointExtension>
        </extensions>
      </trkpt>
      <trkpt lat="45.3680495359003543853759765625" lon="-70.8033222891390323638916015625">
        <ele>460.79998779296875</ele>
        <time>2026-08-21T10:30:53.000Z</time>
        <extensions>
          <ns3:TrackPointExtension>
            <ns3:hr>120</ns3:hr>
            <ns3:cad>55</ns3:cad>
          </ns3:TrackPointExtension>
        </extensions>
      </trkpt>
      <trkpt lat="45.368031598627567291259765625" lon="-70.8033179305493831634521484375">
        <ele>460.79998779296875</ele>
        <time>2026-08-21T10:30:54.000Z</time>
        <extensions>
          <ns3:TrackPointExtension>
            <ns3:hr>120</ns3:hr>
            <ns3:cad>55</ns3:cad>
          </ns3:TrackPointExtension>
        </extensions>
      </trkpt>
      <trkpt lat="45.3680166788399219512939453125" lon="-70.8033172599971294403076171875">
        <ele>460.79998779296875</ele>
        <time>2026-08-21T10:30:55.000Z</time>
        <extensions>
          <ns3:TrackPointExtension>
            <ns3:hr>120</ns3:hr>
            <ns3:cad>55</ns3:cad>
          </ns3:TrackPointExtension>
        </extensions>
      </trkpt>
      <trkpt lat="45.3679979033768177032470703125" lon="-70.8033145777881145477294921875">
        <ele>460.79998779296875</ele>
        <time>2026-08-21T10:30:56.000Z</time>
        <extensions>
          <ns3:TrackPointExtension>
            <ns3:hr>121</ns3:hr>
            <ns3:cad>55</ns3:cad>
          </ns3:TrackPointExtension>
        </extensions>
      </trkpt>
      <trkpt lat="45.3679870069026947021484375" lon="-70.80330602824687957763671875">
        <ele>460.79998779296875</ele>
        <time>2026-08-21T10:30:57.000Z</time>
        <extensions>
          <ns3:TrackPointExtension>
            <ns3:hr>121</ns3:hr>
            <ns3:cad>55</ns3:cad>
          </ns3:TrackPointExtension>
        </extensions>
      </trkpt>
      <trkpt lat="45.3679737634956836700439453125" lon="-70.80330862663686275482177734375">
        <ele>460.79998779296875</ele>
        <time>2026-08-21T10:30:58.000Z</time>
        <extensions>
          <ns3:TrackPointExtension>
            <ns3:hr>122</ns3:hr>
            <ns3:cad>55</ns3:cad>
          </ns3:TrackPointExtension>
        </extensions>
      </trkpt>
      <trkpt lat="45.36795959807932376861572265625" lon="-70.8033112250268459320068359375">
        <ele>460.79998779296875</ele>
        <time>2026-08-21T10:30:59.000Z</time>
        <extensions>
          <ns3:TrackPointExtension>
            <ns3:hr>122</ns3:hr>
            <ns3:cad>52</ns3:cad>
          </ns3:TrackPointExtension>
        </extensions>
      </trkpt>
      <trkpt lat="45.36794342100620269775390625" lon="-70.8033088780939579010009765625">
        <ele>460.79998779296875</ele>
        <time>2026-08-21T10:31:00.000Z</time>
        <extensions>
          <ns3:TrackPointExtension>
            <ns3:hr>122</ns3:hr>
            <ns3:cad>52</ns3:cad>
          </ns3:TrackPointExtension>
        </extensions>
      </trkpt>
      <trkpt lat="45.3679305128753185272216796875" lon="-70.80330560915172100067138671875">
        <ele>460.79998779296875</ele>
        <time>2026-08-21T10:31:01.000Z</time>
        <extensions>
          <ns3:TrackPointExtension>
            <ns3:hr>122</ns3:hr>
            <ns3:cad>52</ns3:cad>
          </ns3:TrackPointExtension>
        </extensions>
      </trkpt>
      <trkpt lat="45.36791953258216381072998046875" lon="-70.80330259166657924652099609375">
        <ele>460.79998779296875</ele>
        <time>2026-08-21T10:31:02.000Z</time>
        <extensions>
          <ns3:TrackPointExtension>
            <ns3:hr>122</ns3:hr>
            <ns3:cad>53</ns3:cad>
          </ns3:TrackPointExtension>
        </extensions>
      </trkpt>
      <trkpt lat="45.3679077140986919403076171875" lon="-70.803299658000469207763671875">
        <ele>460.79998779296875</ele>
        <time>2026-08-21T10:31:03.000Z</time>
        <extensions>
          <ns3:TrackPointExtension>
            <ns3:hr>121</ns3:hr>
            <ns3:cad>53</ns3:cad>
          </ns3:TrackPointExtension>
        </extensions>
      </trkpt>
      <trkpt lat="45.36789958365261554718017578125" lon="-70.8032946288585662841796875">
        <ele>460.79998779296875</ele>
        <time>2026-08-21T10:31:04.000Z</time>
        <extensions>
          <ns3:TrackPointExtension>
            <ns3:hr>120</ns3:hr>
            <ns3:cad>53</ns3:cad>
          </ns3:TrackPointExtension>
        </extensions>
      </trkpt>
      <trkpt lat="45.36789773963391780853271484375" lon="-70.8032865822315216064453125">
        <ele>461</ele>
        <time>2026-08-21T10:31:05.000Z</time>
        <extensions>
          <ns3:TrackPointExtension>
            <ns3:hr>120</ns3:hr>
            <ns3:cad>53</ns3:cad>
          </ns3:TrackPointExtension>
        </extensions>
      </trkpt>
      <trkpt lat="45.36789086647331714630126953125" lon="-70.80327627249062061309814453125">
        <ele>461</ele>
        <time>2026-08-21T10:31:06.000Z</time>
        <extensions>
          <ns3:TrackPointExtension>
            <ns3:hr>120</ns3:hr>
            <ns3:cad>53</ns3:cad>
          </ns3:TrackPointExtension>
        </extensions>
      </trkpt>
      <trkpt lat="45.3678805567324161529541015625" lon="-70.80326520837843418121337890625">
        <ele>461</ele>
        <time>2026-08-21T10:31:07.000Z</time>
        <extensions>
          <ns3:TrackPointExtension>
            <ns3:hr>120</ns3:hr>
            <ns3:cad>53</ns3:cad>
          </ns3:TrackPointExtension>
        </extensions>
      </trkpt>
      <trkpt lat="45.3678637929260730743408203125" lon="-70.8032555691897869110107421875">
        <ele>461</ele>
        <time>2026-08-21T10:31:08.000Z</time>
        <extensions>
          <ns3:TrackPointExtension>
            <ns3:hr>119</ns3:hr>
            <ns3:cad>0</ns3:cad>
          </ns3:TrackPointExtension>
        </extensions>
      </trkpt>
      <trkpt lat="45.3678513877093791961669921875" lon="-70.80325045622885227203369140625">
        <ele>461</ele>
        <time>2026-08-21T10:31:09.000Z</time>
        <extensions>
          <ns3:TrackPointExtension>
            <ns3:hr>120</ns3:hr>
            <ns3:cad>0</ns3:cad>
          </ns3:TrackPointExtension>
        </extensions>
      </trkpt>
      <trkpt lat="45.36783881485462188720703125" lon="-70.8032468520104885101318359375">
        <ele>461</ele>
        <time>2026-08-21T10:31:10.000Z</time>
        <extensions>
          <ns3:TrackPointExtension>
            <ns3:hr>120</ns3:hr>
            <ns3:cad>0</ns3:cad>
          </ns3:TrackPointExtension>
        </extensions>
      </trkpt>
      <trkpt lat="45.367826409637928009033203125" lon="-70.8032463490962982177734375">
        <ele>461</ele>
        <time>2026-08-21T10:31:11.000Z</time>
        <extensions>
          <ns3:TrackPointExtension>
            <ns3:hr>120</ns3:hr>
            <ns3:cad>53</ns3:cad>
          </ns3:TrackPointExtension>
        </extensions>
      </trkpt>
      <trkpt lat="45.36781492643058300018310546875" lon="-70.80324559472501277923583984375">
        <ele>461</ele>
        <time>2026-08-21T10:31:12.000Z</time>
        <extensions>
          <ns3:TrackPointExtension>
            <ns3:hr>119</ns3:hr>
            <ns3:cad>53</ns3:cad>
          </ns3:TrackPointExtension>
        </extensions>
      </trkpt>
      <trkpt lat="45.367805957794189453125" lon="-70.80324140377342700958251953125">
        <ele>460.79998779296875</ele>
        <time>2026-08-21T10:31:13.000Z</time>
        <extensions>
          <ns3:TrackPointExtension>
            <ns3:hr>120</ns3:hr>
            <ns3:cad>53</ns3:cad>
          </ns3:TrackPointExtension>
        </extensions>
      </trkpt>
      <trkpt lat="45.367800258100032806396484375" lon="-70.8032324351370334625244140625">
        <ele>460.79998779296875</ele>
        <time>2026-08-21T10:31:14.000Z</time>
        <extensions>
          <ns3:TrackPointExtension>
            <ns3:hr>120</ns3:hr>
            <ns3:cad>53</ns3:cad>
          </ns3:TrackPointExtension>
        </extensions>
      </trkpt>
      <trkpt lat="45.36779749207198619842529296875" lon="-70.8032203651964664459228515625">
        <ele>461</ele>
        <time>2026-08-21T10:31:15.000Z</time>
        <extensions>
          <ns3:TrackPointExtension>
            <ns3:hr>120</ns3:hr>
            <ns3:cad>51</ns3:cad>
          </ns3:TrackPointExtension>
        </extensions>
      </trkpt>
      <trkpt lat="45.36779346875846385955810546875" lon="-70.80320334993302822113037109375">
        <ele>461</ele>
        <time>2026-08-21T10:31:16.000Z</time>
        <extensions>
          <ns3:TrackPointExtension>
            <ns3:hr>120</ns3:hr>
            <ns3:cad>51</ns3:cad>
          </ns3:TrackPointExtension>
        </extensions>
      </trkpt>
      <trkpt lat="45.36778609268367290496826171875" lon="-70.80318373627960681915283203125">
        <ele>461</ele>
        <time>2026-08-21T10:31:17.000Z</time>
        <extensions>
          <ns3:TrackPointExtension>
            <ns3:hr>120</ns3:hr>
            <ns3:cad>51</ns3:cad>
          </ns3:TrackPointExtension>
        </extensions>
      </trkpt>
      <trkpt lat="45.367782823741436004638671875" lon="-70.8031727559864521026611328125">
        <ele>461</ele>
        <time>2026-08-21T10:31:18.000Z</time>
        <extensions>
          <ns3:TrackPointExtension>
            <ns3:hr>120</ns3:hr>
            <ns3:cad>51</ns3:cad>
          </ns3:TrackPointExtension>
        </extensions>
      </trkpt>
      <trkpt lat="45.36777636967599391937255859375" lon="-70.80315557308495044708251953125">
        <ele>461.20001220703125</ele>
        <time>2026-08-21T10:31:19.000Z</time>
        <extensions>
          <ns3:TrackPointExtension>
            <ns3:hr>120</ns3:hr>
            <ns3:cad>51</ns3:cad>
          </ns3:TrackPointExtension>
        </extensions>
      </trkpt>
      <trkpt lat="45.36776916123926639556884765625" lon="-70.8031378872692584991455078125">
        <ele>461.399993896484375</ele>
        <time>2026-08-21T10:31:20.000Z</time>
        <extensions>
          <ns3:TrackPointExtension>
            <ns3:hr>119</ns3:hr>
            <ns3:cad>0</ns3:cad>
          </ns3:TrackPointExtension>
        </extensions>
      </trkpt>
      <trkpt lat="45.36775792948901653289794921875" lon="-70.80312439240515232086181640625">
        <ele>461.399993896484375</ele>
        <time>2026-08-21T10:31:21.000Z</time>
        <extensions>
          <ns3:TrackPointExtension>
            <ns3:hr>119</ns3:hr>
            <ns3:cad>0</ns3:cad>
          </ns3:TrackPointExtension>
        </extensions>
      </trkpt>
      <trkpt lat="45.36774602718651294708251953125" lon="-70.8031174354255199432373046875">
        <ele>461.600006103515625</ele>
        <time>2026-08-21T10:31:22.000Z</time>
        <extensions>
          <ns3:TrackPointExtension>
            <ns3:hr>117</ns3:hr>
            <ns3:cad>0</ns3:cad>
          </ns3:TrackPointExtension>
        </extensions>
      </trkpt>
      <trkpt lat="45.36773010157048702239990234375" lon="-70.8031117357313632965087890625">
        <ele>461.79998779296875</ele>
        <time>2026-08-21T10:31:23.000Z</time>
        <extensions>
          <ns3:TrackPointExtension>
            <ns3:hr>116</ns3:hr>
            <ns3:cad>0</ns3:cad>
          </ns3:TrackPointExtension>
        </extensions>
      </trkpt>
      <trkpt lat="45.36771618761122226715087890625" lon="-70.80310410819947719573974609375">
        <ele>461.79998779296875</ele>
        <time>2026-08-21T10:31:24.000Z</time>
        <extensions>
          <ns3:TrackPointExtension>
            <ns3:hr>115</ns3:hr>
            <ns3:cad>0</ns3:cad>
          </ns3:TrackPointExtension>
        </extensions>
      </trkpt>
      <trkpt lat="45.36770881153643131256103515625" lon="-70.80309757031500339508056640625">
        <ele>461.79998779296875</ele>
        <time>2026-08-21T10:31:25.000Z</time>
        <extensions>
          <ns3:TrackPointExtension>
            <ns3:hr>115</ns3:hr>
            <ns3:cad>0</ns3:cad>
          </ns3:TrackPointExtension>
        </extensions>
      </trkpt>
      <trkpt lat="45.36770160309970378875732421875" lon="-70.80308214761316776275634765625">
        <ele>461.79998779296875</ele>
        <time>2026-08-21T10:31:26.000Z</time>
        <extensions>
          <ns3:TrackPointExtension>
            <ns3:hr>114</ns3:hr>
            <ns3:cad>0</ns3:cad>
          </ns3:TrackPointExtension>
        </extensions>
      </trkpt>
      <trkpt lat="45.36769372411072254180908203125" lon="-70.803067646920680999755859375">
        <ele>462</ele>
        <time>2026-08-21T10:31:27.000Z</time>
        <extensions>
          <ns3:TrackPointExtension>
            <ns3:hr>115</ns3:hr>
            <ns3:cad>0</ns3:cad>
          </ns3:TrackPointExtension>
        </extensions>
      </trkpt>
      <trkpt lat="45.3676777146756649017333984375" lon="-70.80305515788495540618896484375">
        <ele>462</ele>
        <time>2026-08-21T10:31:28.000Z</time>
        <extensions>
          <ns3:TrackPointExtension>
            <ns3:hr>115</ns3:hr>
            <ns3:cad>0</ns3:cad>
          </ns3:TrackPointExtension>
        </extensions>
      </trkpt>
      <trkpt lat="45.3676673211157321929931640625" lon="-70.8030466921627521514892578125">
        <ele>462.20001220703125</ele>
        <time>2026-08-21T10:31:29.000Z</time>
        <extensions>
          <ns3:TrackPointExtension>
            <ns3:hr>116</ns3:hr>
            <ns3:cad>0</ns3:cad>
          </ns3:TrackPointExtension>
        </extensions>
      </trkpt>
      <trkpt lat="45.36765047349035739898681640625" lon="-70.803035460412502288818359375">
        <ele>462.20001220703125</ele>
        <time>2026-08-21T10:31:30.000Z</time>
        <extensions>
          <ns3:TrackPointExtension>
            <ns3:hr>117</ns3:hr>
            <ns3:cad>0</ns3:cad>
          </ns3:TrackPointExtension>
        </extensions>
      </trkpt>
      <trkpt lat="45.367634296417236328125" lon="-70.803035460412502288818359375">
        <ele>462.399993896484375</ele>
        <time>2026-08-21T10:31:31.000Z</time>
        <extensions>
          <ns3:TrackPointExtension>
            <ns3:hr>117</ns3:hr>
            <ns3:cad>0</ns3:cad>
          </ns3:TrackPointExtension>
        </extensions>
      </trkpt>
      <trkpt lat="45.367621891200542449951171875" lon="-70.803031437098979949951171875">
        <ele>462.399993896484375</ele>
        <time>2026-08-21T10:31:32.000Z</time>
        <extensions>
          <ns3:TrackPointExtension>
            <ns3:hr>118</ns3:hr>
            <ns3:cad>0</ns3:cad>
          </ns3:TrackPointExtension>
        </extensions>
      </trkpt>
      <trkpt lat="45.36761124618351459503173828125" lon="-70.8030212111771106719970703125">
        <ele>462.399993896484375</ele>
        <time>2026-08-21T10:31:33.000Z</time>
        <extensions>
          <ns3:TrackPointExtension>
            <ns3:hr>118</ns3:hr>
            <ns3:cad>0</ns3:cad>
          </ns3:TrackPointExtension>
        </extensions>
      </trkpt>
      <trkpt lat="45.36760387010872364044189453125" lon="-70.803007967770099639892578125">
        <ele>462.600006103515625</ele>
        <time>2026-08-21T10:31:34.000Z</time>
        <extensions>
          <ns3:TrackPointExtension>
            <ns3:hr>119</ns3:hr>
            <ns3:cad>48</ns3:cad>
          </ns3:TrackPointExtension>
        </extensions>
      </trkpt>
      <trkpt lat="45.36758777685463428497314453125" lon="-70.8029967360198497772216796875">
        <ele>462.600006103515625</ele>
        <time>2026-08-21T10:31:35.000Z</time>
        <extensions>
          <ns3:TrackPointExtension>
            <ns3:hr>119</ns3:hr>
            <ns3:cad>48</ns3:cad>
          </ns3:TrackPointExtension>
        </extensions>
      </trkpt>
      <trkpt lat="45.36757151596248149871826171875" lon="-70.8029850013554096221923828125">
        <ele>462.600006103515625</ele>
        <time>2026-08-21T10:31:36.000Z</time>
        <extensions>
          <ns3:TrackPointExtension>
            <ns3:hr>119</ns3:hr>
            <ns3:cad>0</ns3:cad>
          </ns3:TrackPointExtension>
        </extensions>
      </trkpt>
      <trkpt lat="45.36755592562258243560791015625" lon="-70.80296966247260570526123046875">
        <ele>462.600006103515625</ele>
        <time>2026-08-21T10:31:37.000Z</time>
        <extensions>
          <ns3:TrackPointExtension>
            <ns3:hr>120</ns3:hr>
            <ns3:cad>0</ns3:cad>
          </ns3:TrackPointExtension>
        </extensions>
      </trkpt>
      <trkpt lat="45.367541424930095672607421875" lon="-70.802961699664592742919921875">
        <ele>462.600006103515625</ele>
        <time>2026-08-21T10:31:38.000Z</time>
        <extensions>
          <ns3:TrackPointExtension>
            <ns3:hr>120</ns3:hr>
            <ns3:cad>0</ns3:cad>
          </ns3:TrackPointExtension>
        </extensions>
      </trkpt>
      <trkpt lat="45.36752876825630664825439453125" lon="-70.80296161584556102752685546875">
        <ele>462.600006103515625</ele>
        <time>2026-08-21T10:31:39.000Z</time>
        <extensions>
          <ns3:TrackPointExtension>
            <ns3:hr>121</ns3:hr>
            <ns3:cad>0</ns3:cad>
          </ns3:TrackPointExtension>
        </extensions>
      </trkpt>
      <trkpt lat="45.36751066334545612335205078125" lon="-70.8029561676084995269775390625">
        <ele>462.600006103515625</ele>
        <time>2026-08-21T10:31:40.000Z</time>
        <extensions>
          <ns3:TrackPointExtension>
            <ns3:hr>122</ns3:hr>
            <ns3:cad>0</ns3:cad>
          </ns3:TrackPointExtension>
        </extensions>
      </trkpt>
      <trkpt lat="45.36749691702425479888916015625" lon="-70.80294803716242313385009765625">
        <ele>462.79998779296875</ele>
        <time>2026-08-21T10:31:41.000Z</time>
        <extensions>
          <ns3:TrackPointExtension>
            <ns3:hr>122</ns3:hr>
            <ns3:cad>0</ns3:cad>
          </ns3:TrackPointExtension>
        </extensions>
      </trkpt>
      <trkpt lat="45.367486774921417236328125" lon="-70.80293529666960239410400390625">
        <ele>462.79998779296875</ele>
        <time>2026-08-21T10:31:42.000Z</time>
        <extensions>
          <ns3:TrackPointExtension>
            <ns3:hr>122</ns3:hr>
            <ns3:cad>0</ns3:cad>
          </ns3:TrackPointExtension>
        </extensions>
      </trkpt>
      <trkpt lat="45.3674735315144062042236328125" lon="-70.8029263280332088470458984375">
        <ele>462.79998779296875</ele>
        <time>2026-08-21T10:31:43.000Z</time>
        <extensions>
          <ns3:TrackPointExtension>
            <ns3:hr>123</ns3:hr>
            <ns3:cad>55</ns3:cad>
          </ns3:TrackPointExtension>
        </extensions>
      </trkpt>
      <trkpt lat="45.36745525896549224853515625" lon="-70.80292004160583019256591796875">
        <ele>462.79998779296875</ele>
        <time>2026-08-21T10:31:44.000Z</time>
        <extensions>
          <ns3:TrackPointExtension>
            <ns3:hr>123</ns3:hr>
            <ns3:cad>55</ns3:cad>
          </ns3:TrackPointExtension>
        </extensions>
      </trkpt>
      <trkpt lat="45.3674413450062274932861328125" lon="-70.8029191195964813232421875">
        <ele>463</ele>
        <time>2026-08-21T10:31:45.000Z</time>
        <extensions>
          <ns3:TrackPointExtension>
            <ns3:hr>123</ns3:hr>
            <ns3:cad>55</ns3:cad>
          </ns3:TrackPointExtension>
        </extensions>
      </trkpt>
      <trkpt lat="45.36742265336215496063232421875" lon="-70.802916102111339569091796875">
        <ele>463</ele>
        <time>2026-08-21T10:31:46.000Z</time>
        <extensions>
          <ns3:TrackPointExtension>
            <ns3:hr>123</ns3:hr>
            <ns3:cad>54</ns3:cad>
          </ns3:TrackPointExtension>
        </extensions>
      </trkpt>
      <trkpt lat="45.367402620613574981689453125" lon="-70.80291769467294216156005859375">
        <ele>463</ele>
        <time>2026-08-21T10:31:47.000Z</time>
        <extensions>
          <ns3:TrackPointExtension>
            <ns3:hr>123</ns3:hr>
            <ns3:cad>54</ns3:cad>
          </ns3:TrackPointExtension>
        </extensions>
      </trkpt>
      <trkpt lat="45.3673808276653289794921875" lon="-70.8029216341674327850341796875">
        <ele>463</ele>
        <time>2026-08-21T10:31:48.000Z</time>
        <extensions>
          <ns3:TrackPointExtension>
            <ns3:hr>124</ns3:hr>
            <ns3:cad>52</ns3:cad>
          </ns3:TrackPointExtension>
        </extensions>
      </trkpt>
      <trkpt lat="45.36735878325998783111572265625" lon="-70.802926160395145416259765625">
        <ele>463</ele>
        <time>2026-08-21T10:31:49.000Z</time>
        <extensions>
          <ns3:TrackPointExtension>
            <ns3:hr>124</ns3:hr>
            <ns3:cad>52</ns3:cad>
          </ns3:TrackPointExtension>
        </extensions>
      </trkpt>
      <trkpt lat="45.3673417679965496063232421875" lon="-70.8029387332499027252197265625">
        <ele>463</ele>
        <time>2026-08-21T10:31:50.000Z</time>
        <extensions>
          <ns3:TrackPointExtension>
            <ns3:hr>124</ns3:hr>
            <ns3:cad>52</ns3:cad>
          </ns3:TrackPointExtension>
        </extensions>
      </trkpt>
      <trkpt lat="45.36732777021825313568115234375" lon="-70.8029472827911376953125">
        <ele>463</ele>
        <time>2026-08-21T10:31:51.000Z</time>
        <extensions>
          <ns3:TrackPointExtension>
            <ns3:hr>124</ns3:hr>
            <ns3:cad>53</ns3:cad>
          </ns3:TrackPointExtension>
        </extensions>
      </trkpt>
      <trkpt lat="45.36731519736349582672119140625" lon="-70.80296044237911701202392578125">
        <ele>463</ele>
        <time>2026-08-21T10:31:52.000Z</time>
        <extensions>
          <ns3:TrackPointExtension>
            <ns3:hr>124</ns3:hr>
            <ns3:cad>53</ns3:cad>
          </ns3:TrackPointExtension>
        </extensions>
      </trkpt>
      <trkpt lat="45.36730312742292881011962890625" lon="-70.80297611653804779052734375">
        <ele>463</ele>
        <time>2026-08-21T10:31:53.000Z</time>
        <extensions>
          <ns3:TrackPointExtension>
            <ns3:hr>124</ns3:hr>
            <ns3:cad>53</ns3:cad>
          </ns3:TrackPointExtension>
        </extensions>
      </trkpt>
      <trkpt lat="45.3672944940626621246337890625" lon="-70.80299246124923229217529296875">
        <ele>463</ele>
        <time>2026-08-21T10:31:54.000Z</time>
        <extensions>
          <ns3:TrackPointExtension>
            <ns3:hr>124</ns3:hr>
            <ns3:cad>53</ns3:cad>
          </ns3:TrackPointExtension>
        </extensions>
      </trkpt>
      <trkpt lat="45.36728418432176113128662109375" lon="-70.80300629138946533203125">
        <ele>463</ele>
        <time>2026-08-21T10:31:55.000Z</time>
        <extensions>
          <ns3:TrackPointExtension>
            <ns3:hr>123</ns3:hr>
            <ns3:cad>53</ns3:cad>
          </ns3:TrackPointExtension>
        </extensions>
      </trkpt>
      <trkpt lat="45.36727244965732097625732421875" lon="-70.8030128292739391326904296875">
        <ele>463</ele>
        <time>2026-08-21T10:31:56.000Z</time>
        <extensions>
          <ns3:TrackPointExtension>
            <ns3:hr>123</ns3:hr>
            <ns3:cad>53</ns3:cad>
          </ns3:TrackPointExtension>
        </extensions>
      </trkpt>
      <trkpt lat="45.36726255901157855987548828125" lon="-70.803025066852569580078125">
        <ele>463</ele>
        <time>2026-08-21T10:31:57.000Z</time>
        <extensions>
          <ns3:TrackPointExtension>
            <ns3:hr>122</ns3:hr>
            <ns3:cad>53</ns3:cad>
          </ns3:TrackPointExtension>
        </extensions>
      </trkpt>
      <trkpt lat="45.36724881269037723541259765625" lon="-70.8030317723751068115234375">
        <ele>463</ele>
        <time>2026-08-21T10:31:58.000Z</time>
        <extensions>
          <ns3:TrackPointExtension>
            <ns3:hr>122</ns3:hr>
            <ns3:cad>53</ns3:cad>
          </ns3:TrackPointExtension>
        </extensions>
      </trkpt>
      <trkpt lat="45.36723355762660503387451171875" lon="-70.8030433394014835357666015625">
        <ele>463</ele>
        <time>2026-08-21T10:31:59.000Z</time>
        <extensions>
          <ns3:TrackPointExtension>
            <ns3:hr>122</ns3:hr>
            <ns3:cad>53</ns3:cad>
          </ns3:TrackPointExtension>
        </extensions>
      </trkpt>
      <trkpt lat="45.36722366698086261749267578125" lon="-70.8030580915510654449462890625">
        <ele>462.79998779296875</ele>
        <time>2026-08-21T10:32:00.000Z</time>
        <extensions>
          <ns3:TrackPointExtension>
            <ns3:hr>121</ns3:hr>
            <ns3:cad>53</ns3:cad>
          </ns3:TrackPointExtension>
        </extensions>
      </trkpt>
      <trkpt lat="45.3672163747251033782958984375" lon="-70.80307058058679103851318359375">
        <ele>462.79998779296875</ele>
        <time>2026-08-21T10:32:01.000Z</time>
        <extensions>
          <ns3:TrackPointExtension>
            <ns3:hr>120</ns3:hr>
            <ns3:cad>53</ns3:cad>
          </ns3:TrackPointExtension>
        </extensions>
      </trkpt>
      <trkpt lat="45.3672089986503124237060546875" lon="-70.8030812256038188934326171875">
        <ele>462.600006103515625</ele>
        <time>2026-08-21T10:32:02.000Z</time>
        <extensions>
          <ns3:TrackPointExtension>
            <ns3:hr>120</ns3:hr>
            <ns3:cad>55</ns3:cad>
          </ns3:TrackPointExtension>
        </extensions>
      </trkpt>
      <trkpt lat="45.367197096347808837890625" lon="-70.8030966483056545257568359375">
        <ele>462.79998779296875</ele>
        <time>2026-08-21T10:32:03.000Z</time>
        <extensions>
          <ns3:TrackPointExtension>
            <ns3:hr>121</ns3:hr>
            <ns3:cad>55</ns3:cad>
          </ns3:TrackPointExtension>
        </extensions>
      </trkpt>
      <trkpt lat="45.3671929053962230682373046875" lon="-70.80311265774071216583251953125">
        <ele>462.79998779296875</ele>
        <time>2026-08-21T10:32:04.000Z</time>
        <extensions>
          <ns3:TrackPointExtension>
            <ns3:hr>121</ns3:hr>
            <ns3:cad>55</ns3:cad>
          </ns3:TrackPointExtension>
        </extensions>
      </trkpt>
      <trkpt lat="45.36718812771141529083251953125" lon="-70.80313243903219699859619140625">
        <ele>463</ele>
        <time>2026-08-21T10:32:05.000Z</time>
        <extensions>
          <ns3:TrackPointExtension>
            <ns3:hr>121</ns3:hr>
            <ns3:cad>55</ns3:cad>
          </ns3:TrackPointExtension>
        </extensions>
      </trkpt>
      <trkpt lat="45.3671815060079097747802734375" lon="-70.8031586743891239166259765625">
        <ele>463</ele>
        <time>2026-08-21T10:32:06.000Z</time>
        <extensions>
          <ns3:TrackPointExtension>
            <ns3:hr>122</ns3:hr>
            <ns3:cad>55</ns3:cad>
          </ns3:TrackPointExtension>
        </extensions>
      </trkpt>
      <trkpt lat="45.36718058399856090545654296875" lon="-70.803184993565082550048828125">
        <ele>463</ele>
        <time>2026-08-21T10:32:07.000Z</time>
        <extensions>
          <ns3:TrackPointExtension>
            <ns3:hr>122</ns3:hr>
            <ns3:cad>52</ns3:cad>
          </ns3:TrackPointExtension>
        </extensions>
      </trkpt>
      <trkpt lat="45.36718041636049747467041015625" lon="-70.80320871435105800628662109375">
        <ele>463</ele>
        <time>2026-08-21T10:32:08.000Z</time>
        <extensions>
          <ns3:TrackPointExtension>
            <ns3:hr>122</ns3:hr>
            <ns3:cad>52</ns3:cad>
          </ns3:TrackPointExtension>
        </extensions>
      </trkpt>
      <trkpt lat="45.367175638675689697265625" lon="-70.80323629081249237060546875">
        <ele>463</ele>
        <time>2026-08-21T10:32:09.000Z</time>
        <extensions>
          <ns3:TrackPointExtension>
            <ns3:hr>122</ns3:hr>
            <ns3:cad>52</ns3:cad>
          </ns3:TrackPointExtension>
        </extensions>
      </trkpt>
      <trkpt lat="45.367173291742801666259765625" lon="-70.80326135270297527313232421875">
        <ele>463</ele>
        <time>2026-08-21T10:32:10.000Z</time>
        <extensions>
          <ns3:TrackPointExtension>
            <ns3:hr>122</ns3:hr>
            <ns3:cad>52</ns3:cad>
          </ns3:TrackPointExtension>
        </extensions>
      </trkpt>
      <trkpt lat="45.36717094480991363525390625" lon="-70.8032803796231746673583984375">
        <ele>463</ele>
        <time>2026-08-21T10:32:11.000Z</time>
        <extensions>
          <ns3:TrackPointExtension>
            <ns3:hr>122</ns3:hr>
            <ns3:cad>52</ns3:cad>
          </ns3:TrackPointExtension>
        </extensions>
      </trkpt>
      <trkpt lat="45.36717169918119907379150390625" lon="-70.8033028431236743927001953125">
        <ele>463.20001220703125</ele>
        <time>2026-08-21T10:32:12.000Z</time>
        <extensions>
          <ns3:TrackPointExtension>
            <ns3:hr>121</ns3:hr>
            <ns3:cad>55</ns3:cad>
          </ns3:TrackPointExtension>
        </extensions>
      </trkpt>
      <trkpt lat="45.3671737946569919586181640625" lon="-70.80332555808126926422119140625">
        <ele>463.20001220703125</ele>
        <time>2026-08-21T10:32:13.000Z</time>
        <extensions>
          <ns3:TrackPointExtension>
            <ns3:hr>120</ns3:hr>
            <ns3:cad>55</ns3:cad>
          </ns3:TrackPointExtension>
        </extensions>
      </trkpt>
      <trkpt lat="45.3671771474182605743408203125" lon="-70.8033484406769275665283203125">
        <ele>463.20001220703125</ele>
        <time>2026-08-21T10:32:14.000Z</time>
        <extensions>
          <ns3:TrackPointExtension>
            <ns3:hr>119</ns3:hr>
            <ns3:cad>56</ns3:cad>
          </ns3:TrackPointExtension>
        </extensions>
      </trkpt>
      <trkpt lat="45.3671784885227680206298828125" lon="-70.80337048508226871490478515625">
        <ele>463.20001220703125</ele>
        <time>2026-08-21T10:32:15.000Z</time>
        <extensions>
          <ns3:TrackPointExtension>
            <ns3:hr>118</ns3:hr>
            <ns3:cad>56</ns3:cad>
          </ns3:TrackPointExtension>
        </extensions>
      </trkpt>
      <trkpt lat="45.36717488430440425872802734375" lon="-70.80340082757174968719482421875">
        <ele>463.20001220703125</ele>
        <time>2026-08-21T10:32:16.000Z</time>
        <extensions>
          <ns3:TrackPointExtension>
            <ns3:hr>118</ns3:hr>
            <ns3:cad>0</ns3:cad>
          </ns3:TrackPointExtension>
        </extensions>
      </trkpt>
      <trkpt lat="45.367171280086040496826171875" lon="-70.80342094413936138153076171875">
        <ele>463.20001220703125</ele>
        <time>2026-08-21T10:32:17.000Z</time>
        <extensions>
          <ns3:TrackPointExtension>
            <ns3:hr>118</ns3:hr>
            <ns3:cad>0</ns3:cad>
          </ns3:TrackPointExtension>
        </extensions>
      </trkpt>
      <trkpt lat="45.3671650774776935577392578125" lon="-70.803439803421497344970703125">
        <ele>463.20001220703125</ele>
        <time>2026-08-21T10:32:18.000Z</time>
        <extensions>
          <ns3:TrackPointExtension>
            <ns3:hr>117</ns3:hr>
            <ns3:cad>0</ns3:cad>
          </ns3:TrackPointExtension>
        </extensions>
      </trkpt>
      <trkpt lat="45.36716113798320293426513671875" lon="-70.803460590541362762451171875">
        <ele>463.20001220703125</ele>
        <time>2026-08-21T10:32:19.000Z</time>
        <extensions>
          <ns3:TrackPointExtension>
            <ns3:hr>116</ns3:hr>
            <ns3:cad>0</ns3:cad>
          </ns3:TrackPointExtension>
        </extensions>
      </trkpt>
      <trkpt lat="45.36715845577418804168701171875" lon="-70.80347676761448383331298828125">
        <ele>463.20001220703125</ele>
        <time>2026-08-21T10:32:20.000Z</time>
        <extensions>
          <ns3:TrackPointExtension>
            <ns3:hr>116</ns3:hr>
            <ns3:cad>0</ns3:cad>
          </ns3:TrackPointExtension>
        </extensions>
      </trkpt>
      <trkpt lat="45.36715107969939708709716796875" lon="-70.80348950810730457305908203125">
        <ele>463</ele>
        <time>2026-08-21T10:32:21.000Z</time>
        <extensions>
          <ns3:TrackPointExtension>
            <ns3:hr>115</ns3:hr>
            <ns3:cad>0</ns3:cad>
          </ns3:TrackPointExtension>
        </extensions>
      </trkpt>
      <trkpt lat="45.36714118905365467071533203125" lon="-70.80350006930530071258544921875">
        <ele>463</ele>
        <time>2026-08-21T10:32:22.000Z</time>
        <extensions>
          <ns3:TrackPointExtension>
            <ns3:hr>115</ns3:hr>
            <ns3:cad>57</ns3:cad>
          </ns3:TrackPointExtension>
        </extensions>
      </trkpt>
      <trkpt lat="45.36713012494146823883056640625" lon="-70.80351197160780429840087890625">
        <ele>463</ele>
        <time>2026-08-21T10:32:23.000Z</time>
        <extensions>
          <ns3:TrackPointExtension>
            <ns3:hr>115</ns3:hr>
            <ns3:cad>58</ns3:cad>
          </ns3:TrackPointExtension>
        </extensions>
      </trkpt>
      <trkpt lat="45.3671201504766941070556640625" lon="-70.8035207726061344146728515625">
        <ele>463</ele>
        <time>2026-08-21T10:32:24.000Z</time>
        <extensions>
          <ns3:TrackPointExtension>
            <ns3:hr>115</ns3:hr>
            <ns3:cad>58</ns3:cad>
          </ns3:TrackPointExtension>
        </extensions>
      </trkpt>
      <trkpt lat="45.3671107627451419830322265625" lon="-70.803523957729339599609375">
        <ele>463</ele>
        <time>2026-08-21T10:32:25.000Z</time>
        <extensions>
          <ns3:TrackPointExtension>
            <ns3:hr>115</ns3:hr>
            <ns3:cad>58</ns3:cad>
          </ns3:TrackPointExtension>
        </extensions>
      </trkpt>
      <trkpt lat="45.3671020455658435821533203125" lon="-70.8035154081881046295166015625">
        <ele>463</ele>
        <time>2026-08-21T10:32:26.000Z</time>
        <extensions>
          <ns3:TrackPointExtension>
            <ns3:hr>114</ns3:hr>
            <ns3:cad>0</ns3:cad>
          </ns3:TrackPointExtension>
        </extensions>
      </trkpt>
      <trkpt lat="45.36709458567202091217041015625" lon="-70.803507864475250244140625">
        <ele>463.20001220703125</ele>
        <time>2026-08-21T10:32:27.000Z</time>
        <extensions>
          <ns3:TrackPointExtension>
            <ns3:hr>114</ns3:hr>
            <ns3:cad>0</ns3:cad>
          </ns3:TrackPointExtension>
        </extensions>
      </trkpt>
      <trkpt lat="45.3670856170356273651123046875" lon="-70.80350040458142757415771484375">
        <ele>463.20001220703125</ele>
        <time>2026-08-21T10:32:28.000Z</time>
        <extensions>
          <ns3:TrackPointExtension>
            <ns3:hr>114</ns3:hr>
            <ns3:cad>56</ns3:cad>
          </ns3:TrackPointExtension>
        </extensions>
      </trkpt>
      <trkpt lat="45.3670738823711872100830078125" lon="-70.80349470488727092742919921875">
        <ele>463.20001220703125</ele>
        <time>2026-08-21T10:32:29.000Z</time>
        <extensions>
          <ns3:TrackPointExtension>
            <ns3:hr>114</ns3:hr>
            <ns3:cad>56</ns3:cad>
          </ns3:TrackPointExtension>
        </extensions>
      </trkpt>
      <trkpt lat="45.36705829203128814697265625" lon="-70.803494788706302642822265625">
        <ele>463.20001220703125</ele>
        <time>2026-08-21T10:32:30.000Z</time>
        <extensions>
          <ns3:TrackPointExtension>
            <ns3:hr>115</ns3:hr>
            <ns3:cad>56</ns3:cad>
          </ns3:TrackPointExtension>
        </extensions>
      </trkpt>
      <trkpt lat="45.36704379133880138397216796875" lon="-70.80349923111498355865478515625">
        <ele>463.20001220703125</ele>
        <time>2026-08-21T10:32:31.000Z</time>
        <extensions>
          <ns3:TrackPointExtension>
            <ns3:hr>116</ns3:hr>
            <ns3:cad>54</ns3:cad>
          </ns3:TrackPointExtension>
        </extensions>
      </trkpt>
      <trkpt lat="45.36702719517052173614501953125" lon="-70.8035043440759181976318359375">
        <ele>463.399993896484375</ele>
        <time>2026-08-21T10:32:32.000Z</time>
        <extensions>
          <ns3:TrackPointExtension>
            <ns3:hr>117</ns3:hr>
            <ns3:cad>54</ns3:cad>
          </ns3:TrackPointExtension>
        </extensions>
      </trkpt>
      <trkpt lat="45.367011018097400665283203125" lon="-70.80351046286523342132568359375">
        <ele>463.20001220703125</ele>
        <time>2026-08-21T10:32:33.000Z</time>
        <extensions>
          <ns3:TrackPointExtension>
            <ns3:hr>117</ns3:hr>
            <ns3:cad>54</ns3:cad>
          </ns3:TrackPointExtension>
        </extensions>
      </trkpt>
      <trkpt lat="45.36699718795716762542724609375" lon="-70.80351951532065868377685546875">
        <ele>463.399993896484375</ele>
        <time>2026-08-21T10:32:34.000Z</time>
        <extensions>
          <ns3:TrackPointExtension>
            <ns3:hr>117</ns3:hr>
            <ns3:cad>54</ns3:cad>
          </ns3:TrackPointExtension>
        </extensions>
      </trkpt>
      <trkpt lat="45.366990901529788970947265625" lon="-70.80353242345154285430908203125">
        <ele>463.399993896484375</ele>
        <time>2026-08-21T10:32:35.000Z</time>
        <extensions>
          <ns3:TrackPointExtension>
            <ns3:hr>117</ns3:hr>
            <ns3:cad>54</ns3:cad>
          </ns3:TrackPointExtension>
        </extensions>
      </trkpt>
      <trkpt lat="45.36697958596050739288330078125" lon="-70.80354918725788593292236328125">
        <ele>463.399993896484375</ele>
        <time>2026-08-21T10:32:36.000Z</time>
        <extensions>
          <ns3:TrackPointExtension>
            <ns3:hr>117</ns3:hr>
            <ns3:cad>54</ns3:cad>
          </ns3:TrackPointExtension>
        </extensions>
      </trkpt>
      <trkpt lat="45.36697153933346271514892578125" lon="-70.8035576529800891876220703125">
        <ele>463.399993896484375</ele>
        <time>2026-08-21T10:32:37.000Z</time>
        <extensions>
          <ns3:TrackPointExtension>
            <ns3:hr>116</ns3:hr>
            <ns3:cad>54</ns3:cad>
          </ns3:TrackPointExtension>
        </extensions>
      </trkpt>
      <trkpt lat="45.3669639118015766143798828125" lon="-70.80356352031230926513671875">
        <ele>463.20001220703125</ele>
        <time>2026-08-21T10:32:38.000Z</time>
        <extensions>
          <ns3:TrackPointExtension>
            <ns3:hr>116</ns3:hr>
            <ns3:cad>54</ns3:cad>
          </ns3:TrackPointExtension>
        </extensions>
      </trkpt>
      <trkpt lat="45.3669555298984050750732421875" lon="-70.803565867245197296142578125">
        <ele>463.20001220703125</ele>
        <time>2026-08-21T10:32:39.000Z</time>
        <extensions>
          <ns3:TrackPointExtension>
            <ns3:hr>116</ns3:hr>
            <ns3:cad>54</ns3:cad>
          </ns3:TrackPointExtension>
        </extensions>
      </trkpt>
      <trkpt lat="45.36694387905299663543701171875" lon="-70.80357936210930347442626953125">
        <ele>463.20001220703125</ele>
        <time>2026-08-21T10:32:40.000Z</time>
        <extensions>
          <ns3:TrackPointExtension>
            <ns3:hr>116</ns3:hr>
            <ns3:cad>0</ns3:cad>
          </ns3:TrackPointExtension>
        </extensions>
      </trkpt>
      <trkpt lat="45.36693759262561798095703125" lon="-70.8035848103463649749755859375">
        <ele>463.20001220703125</ele>
        <time>2026-08-21T10:32:41.000Z</time>
        <extensions>
          <ns3:TrackPointExtension>
            <ns3:hr>119</ns3:hr>
            <ns3:cad>0</ns3:cad>
          </ns3:TrackPointExtension>
        </extensions>
      </trkpt>
      <trkpt lat="45.3669273667037487030029296875" lon="-70.80358942039310932159423828125">
        <ele>463.20001220703125</ele>
        <time>2026-08-21T10:32:42.000Z</time>
        <extensions>
          <ns3:TrackPointExtension>
            <ns3:hr>119</ns3:hr>
            <ns3:cad>0</ns3:cad>
          </ns3:TrackPointExtension>
        </extensions>
      </trkpt>
      <trkpt lat="45.36692024208605289459228515625" lon="-70.8035881631076335906982421875">
        <ele>463.20001220703125</ele>
        <time>2026-08-21T10:32:43.000Z</time>
        <extensions>
          <ns3:TrackPointExtension>
            <ns3:hr>119</ns3:hr>
            <ns3:cad>0</ns3:cad>
          </ns3:TrackPointExtension>
        </extensions>
      </trkpt>
      <trkpt lat="45.3669092617928981781005859375" lon="-70.803586654365062713623046875">
        <ele>463</ele>
        <time>2026-08-21T10:32:44.000Z</time>
        <extensions>
          <ns3:TrackPointExtension>
            <ns3:hr>118</ns3:hr>
            <ns3:cad>0</ns3:cad>
          </ns3:TrackPointExtension>
        </extensions>
      </trkpt>
      <trkpt lat="45.366904400289058685302734375" lon="-70.80358422361314296722412109375">
        <ele>463</ele>
        <time>2026-08-21T10:32:45.000Z</time>
        <extensions>
          <ns3:TrackPointExtension>
            <ns3:hr>118</ns3:hr>
            <ns3:cad>0</ns3:cad>
          </ns3:TrackPointExtension>
        </extensions>
      </trkpt>
      <trkpt lat="45.36689735949039459228515625" lon="-70.80357802100479602813720703125">
        <ele>463</ele>
        <time>2026-08-21T10:32:46.000Z</time>
        <extensions>
          <ns3:TrackPointExtension>
            <ns3:hr>118</ns3:hr>
            <ns3:cad>0</ns3:cad>
          </ns3:TrackPointExtension>
        </extensions>
      </trkpt>
      <trkpt lat="45.36688872613012790679931640625" lon="-70.8035730756819248199462890625">
        <ele>463.20001220703125</ele>
        <time>2026-08-21T10:32:47.000Z</time>
        <extensions>
          <ns3:TrackPointExtension>
            <ns3:hr>117</ns3:hr>
            <ns3:cad>0</ns3:cad>
          </ns3:TrackPointExtension>
        </extensions>
      </trkpt>
      <trkpt lat="45.366877578198909759521484375" lon="-70.803566537797451019287109375">
        <ele>463.399993896484375</ele>
        <time>2026-08-21T10:32:48.000Z</time>
        <extensions>
          <ns3:TrackPointExtension>
            <ns3:hr>116</ns3:hr>
            <ns3:cad>0</ns3:cad>
          </ns3:TrackPointExtension>
        </extensions>
      </trkpt>
      <trkpt lat="45.36687263287603855133056640625" lon="-70.80356511287391185760498046875">
        <ele>463.600006103515625</ele>
        <time>2026-08-21T10:32:49.000Z</time>
        <extensions>
          <ns3:TrackPointExtension>
            <ns3:hr>115</ns3:hr>
            <ns3:cad>0</ns3:cad>
          </ns3:TrackPointExtension>
        </extensions>
      </trkpt>
      <trkpt lat="45.36686827428638935089111328125" lon="-70.80355891026556491851806640625">
        <ele>463.79998779296875</ele>
        <time>2026-08-21T10:32:50.000Z</time>
        <extensions>
          <ns3:TrackPointExtension>
            <ns3:hr>115</ns3:hr>
            <ns3:cad>0</ns3:cad>
          </ns3:TrackPointExtension>
        </extensions>
      </trkpt>
      <trkpt lat="45.366856120526790618896484375" lon="-70.80355052836239337921142578125">
        <ele>464</ele>
        <time>2026-08-21T10:32:51.000Z</time>
        <extensions>
          <ns3:TrackPointExtension>
            <ns3:hr>114</ns3:hr>
            <ns3:cad>0</ns3:cad>
          </ns3:TrackPointExtension>
        </extensions>
      </trkpt>
      <trkpt lat="45.36684581078588962554931640625" lon="-70.80354474484920501708984375">
        <ele>464.20001220703125</ele>
        <time>2026-08-21T10:32:52.000Z</time>
        <extensions>
          <ns3:TrackPointExtension>
            <ns3:hr>114</ns3:hr>
            <ns3:cad>51</ns3:cad>
          </ns3:TrackPointExtension>
        </extensions>
      </trkpt>
      <trkpt lat="45.36683323793113231658935546875" lon="-70.80353560857474803924560546875">
        <ele>464.399993896484375</ele>
        <time>2026-08-21T10:32:53.000Z</time>
        <extensions>
          <ns3:TrackPointExtension>
            <ns3:hr>115</ns3:hr>
            <ns3:cad>51</ns3:cad>
          </ns3:TrackPointExtension>
        </extensions>
      </trkpt>
      <trkpt lat="45.366819910705089569091796875" lon="-70.8035291545093059539794921875">
        <ele>464.600006103515625</ele>
        <time>2026-08-21T10:32:54.000Z</time>
        <extensions>
          <ns3:TrackPointExtension>
            <ns3:hr>115</ns3:hr>
            <ns3:cad>51</ns3:cad>
          </ns3:TrackPointExtension>
        </extensions>
      </trkpt>
      <trkpt lat="45.366809181869029998779296875" lon="-70.80353393219411373138427734375">
        <ele>464.600006103515625</ele>
        <time>2026-08-21T10:32:55.000Z</time>
        <extensions>
          <ns3:TrackPointExtension>
            <ns3:hr>115</ns3:hr>
            <ns3:cad>46</ns3:cad>
          </ns3:TrackPointExtension>
        </extensions>
      </trkpt>
      <trkpt lat="45.36679753102362155914306640625" lon="-70.803532339632511138916015625">
        <ele>464.79998779296875</ele>
        <time>2026-08-21T10:32:56.000Z</time>
        <extensions>
          <ns3:TrackPointExtension>
            <ns3:hr>115</ns3:hr>
            <ns3:cad>46</ns3:cad>
          </ns3:TrackPointExtension>
        </extensions>
      </trkpt>
      <trkpt lat="45.36678328178822994232177734375" lon="-70.803534686565399169921875">
        <ele>465</ele>
        <time>2026-08-21T10:32:57.000Z</time>
        <extensions>
          <ns3:TrackPointExtension>
            <ns3:hr>115</ns3:hr>
            <ns3:cad>50</ns3:cad>
          </ns3:TrackPointExtension>
        </extensions>
      </trkpt>
      <trkpt lat="45.36677129566669464111328125" lon="-70.80354516394436359405517578125">
        <ele>465.20001220703125</ele>
        <time>2026-08-21T10:32:58.000Z</time>
        <extensions>
          <ns3:TrackPointExtension>
            <ns3:hr>115</ns3:hr>
            <ns3:cad>50</ns3:cad>
          </ns3:TrackPointExtension>
        </extensions>
      </trkpt>
      <trkpt lat="45.36675746552646160125732421875" lon="-70.8035480976104736328125">
        <ele>465.399993896484375</ele>
        <time>2026-08-21T10:32:59.000Z</time>
        <extensions>
          <ns3:TrackPointExtension>
            <ns3:hr>115</ns3:hr>
            <ns3:cad>50</ns3:cad>
          </ns3:TrackPointExtension>
        </extensions>
      </trkpt>
      <trkpt lat="45.36673801951110363006591796875" lon="-70.8035462535917758941650390625">
        <ele>465.600006103515625</ele>
        <time>2026-08-21T10:33:00.000Z</time>
        <extensions>
          <ns3:TrackPointExtension>
            <ns3:hr>116</ns3:hr>
            <ns3:cad>50</ns3:cad>
          </ns3:TrackPointExtension>
        </extensions>
      </trkpt>
      <trkpt lat="45.36672242917120456695556640625" lon="-70.80355002544820308685302734375">
        <ele>465.79998779296875</ele>
        <time>2026-08-21T10:33:01.000Z</time>
        <extensions>
          <ns3:TrackPointExtension>
            <ns3:hr>116</ns3:hr>
            <ns3:cad>50</ns3:cad>
          </ns3:TrackPointExtension>
        </extensions>
      </trkpt>
      <trkpt lat="45.36671404726803302764892578125" lon="-70.80355823971331119537353515625">
        <ele>466</ele>
        <time>2026-08-21T10:33:02.000Z</time>
        <extensions>
          <ns3:TrackPointExtension>
            <ns3:hr>117</ns3:hr>
            <ns3:cad>49</ns3:cad>
          </ns3:TrackPointExtension>
        </extensions>
      </trkpt>
      <trkpt lat="45.366701893508434295654296875" lon="-70.80356561578810214996337890625">
        <ele>466.20001220703125</ele>
        <time>2026-08-21T10:33:03.000Z</time>
        <extensions>
          <ns3:TrackPointExtension>
            <ns3:hr>118</ns3:hr>
            <ns3:cad>49</ns3:cad>
          </ns3:TrackPointExtension>
        </extensions>
      </trkpt>
      <trkpt lat="45.36668873392045497894287109375" lon="-70.80357366241514682769775390625">
        <ele>466.399993896484375</ele>
        <time>2026-08-21T10:33:04.000Z</time>
        <extensions>
          <ns3:TrackPointExtension>
            <ns3:hr>119</ns3:hr>
            <ns3:cad>50</ns3:cad>
          </ns3:TrackPointExtension>
        </extensions>
      </trkpt>
      <trkpt lat="45.36667180247604846954345703125" lon="-70.80358288250863552093505859375">
        <ele>466.600006103515625</ele>
        <time>2026-08-21T10:33:05.000Z</time>
        <extensions>
          <ns3:TrackPointExtension>
            <ns3:hr>120</ns3:hr>
            <ns3:cad>50</ns3:cad>
          </ns3:TrackPointExtension>
        </extensions>
      </trkpt>
      <trkpt lat="45.366659648716449737548828125" lon="-70.80359025858342647552490234375">
        <ele>466.600006103515625</ele>
        <time>2026-08-21T10:33:06.000Z</time>
        <extensions>
          <ns3:TrackPointExtension>
            <ns3:hr>121</ns3:hr>
            <ns3:cad>50</ns3:cad>
          </ns3:TrackPointExtension>
        </extensions>
      </trkpt>
      <trkpt lat="45.3666480816900730133056640625" lon="-70.80360081978142261505126953125">
        <ele>466.79998779296875</ele>
        <time>2026-08-21T10:33:07.000Z</time>
        <extensions>
          <ns3:TrackPointExtension>
            <ns3:hr>121</ns3:hr>
            <ns3:cad>50</ns3:cad>
          </ns3:TrackPointExtension>
        </extensions>
      </trkpt>
      <trkpt lat="45.3666316531598567962646484375" lon="-70.803605429828166961669921875">
        <ele>466.79998779296875</ele>
        <time>2026-08-21T10:33:08.000Z</time>
        <extensions>
          <ns3:TrackPointExtension>
            <ns3:hr>122</ns3:hr>
            <ns3:cad>52</ns3:cad>
          </ns3:TrackPointExtension>
        </extensions>
      </trkpt>
      <trkpt lat="45.36661597900092601776123046875" lon="-70.80360232852399349212646484375">
        <ele>466.79998779296875</ele>
        <time>2026-08-21T10:33:09.000Z</time>
        <extensions>
          <ns3:TrackPointExtension>
            <ns3:hr>122</ns3:hr>
            <ns3:cad>52</ns3:cad>
          </ns3:TrackPointExtension>
        </extensions>
      </trkpt>
      <trkpt lat="45.366606004536151885986328125" lon="-70.80360014922916889190673828125">
        <ele>467</ele>
        <time>2026-08-21T10:33:10.000Z</time>
        <extensions>
          <ns3:TrackPointExtension>
            <ns3:hr>123</ns3:hr>
            <ns3:cad>52</ns3:cad>
          </ns3:TrackPointExtension>
        </extensions>
      </trkpt>
      <trkpt lat="45.3665944375097751617431640625" lon="-70.803604088723659515380859375">
        <ele>467</ele>
        <time>2026-08-21T10:33:11.000Z</time>
        <extensions>
          <ns3:TrackPointExtension>
            <ns3:hr>124</ns3:hr>
            <ns3:cad>52</ns3:cad>
          </ns3:TrackPointExtension>
        </extensions>
      </trkpt>
      <trkpt lat="45.366580188274383544921875" lon="-70.80360777676105499267578125">
        <ele>467</ele>
        <time>2026-08-21T10:33:12.000Z</time>
        <extensions>
          <ns3:TrackPointExtension>
            <ns3:hr>125</ns3:hr>
            <ns3:cad>52</ns3:cad>
          </ns3:TrackPointExtension>
        </extensions>
      </trkpt>
      <trkpt lat="45.36657071672379970550537109375" lon="-70.803618840873241424560546875">
        <ele>467</ele>
        <time>2026-08-21T10:33:13.000Z</time>
        <extensions>
          <ns3:TrackPointExtension>
            <ns3:hr>125</ns3:hr>
            <ns3:cad>52</ns3:cad>
          </ns3:TrackPointExtension>
        </extensions>
      </trkpt>
      <trkpt lat="45.3665573894977569580078125" lon="-70.80362898297607898712158203125">
        <ele>467</ele>
        <time>2026-08-21T10:33:14.000Z</time>
        <extensions>
          <ns3:TrackPointExtension>
            <ns3:hr>126</ns3:hr>
            <ns3:cad>52</ns3:cad>
          </ns3:TrackPointExtension>
        </extensions>
      </trkpt>
      <trkpt lat="45.3665461577475070953369140625" lon="-70.8036406338214874267578125">
        <ele>467</ele>
        <time>2026-08-21T10:33:15.000Z</time>
        <extensions>
          <ns3:TrackPointExtension>
            <ns3:hr>127</ns3:hr>
            <ns3:cad>52</ns3:cad>
          </ns3:TrackPointExtension>
        </extensions>
      </trkpt>
      <trkpt lat="45.36653635092079639434814453125" lon="-70.803647339344024658203125">
        <ele>467</ele>
        <time>2026-08-21T10:33:16.000Z</time>
        <extensions>
          <ns3:TrackPointExtension>
            <ns3:hr>128</ns3:hr>
            <ns3:cad>52</ns3:cad>
          </ns3:TrackPointExtension>
        </extensions>
      </trkpt>
      <trkpt lat="45.36652796901762485504150390625" lon="-70.80365203320980072021484375">
        <ele>467</ele>
        <time>2026-08-21T10:33:17.000Z</time>
        <extensions>
          <ns3:TrackPointExtension>
            <ns3:hr>128</ns3:hr>
            <ns3:cad>52</ns3:cad>
          </ns3:TrackPointExtension>
        </extensions>
      </trkpt>
      <trkpt lat="45.36651908420026302337646484375" lon="-70.80365278758108615875244140625">
        <ele>467</ele>
        <time>2026-08-21T10:33:18.000Z</time>
        <extensions>
          <ns3:TrackPointExtension>
            <ns3:hr>129</ns3:hr>
            <ns3:cad>52</ns3:cad>
          </ns3:TrackPointExtension>
        </extensions>
      </trkpt>
      <trkpt lat="45.366512127220630645751953125" lon="-70.80365513451397418975830078125">
        <ele>466.79998779296875</ele>
        <time>2026-08-21T10:33:19.000Z</time>
        <extensions>
          <ns3:TrackPointExtension>
            <ns3:hr>128</ns3:hr>
            <ns3:cad>52</ns3:cad>
          </ns3:TrackPointExtension>
        </extensions>
      </trkpt>
      <trkpt lat="45.36650382913649082183837890625" lon="-70.8036582358181476593017578125">
        <ele>466.79998779296875</ele>
        <time>2026-08-21T10:33:20.000Z</time>
        <extensions>
          <ns3:TrackPointExtension>
            <ns3:hr>128</ns3:hr>
            <ns3:cad>0</ns3:cad>
          </ns3:TrackPointExtension>
        </extensions>
      </trkpt>
      <trkpt lat="45.36648890934884548187255859375" lon="-70.8036662824451923370361328125">
        <ele>467</ele>
        <time>2026-08-21T10:33:21.000Z</time>
        <extensions>
          <ns3:TrackPointExtension>
            <ns3:hr>127</ns3:hr>
            <ns3:cad>0</ns3:cad>
          </ns3:TrackPointExtension>
        </extensions>
      </trkpt>
      <trkpt lat="45.366475582122802734375" lon="-70.8036776818335056304931640625">
        <ele>466.79998779296875</ele>
        <time>2026-08-21T10:33:22.000Z</time>
        <extensions>
          <ns3:TrackPointExtension>
            <ns3:hr>127</ns3:hr>
            <ns3:cad>0</ns3:cad>
          </ns3:TrackPointExtension>
        </extensions>
      </trkpt>
      <trkpt lat="45.36646460182964801788330078125" lon="-70.80368329770863056182861328125">
        <ele>467</ele>
        <time>2026-08-21T10:33:23.000Z</time>
        <extensions>
          <ns3:TrackPointExtension>
            <ns3:hr>127</ns3:hr>
            <ns3:cad>0</ns3:cad>
          </ns3:TrackPointExtension>
        </extensions>
      </trkpt>
      <trkpt lat="45.3664573095738887786865234375" lon="-70.80369050614535808563232421875">
        <ele>467</ele>
        <time>2026-08-21T10:33:24.000Z</time>
        <extensions>
          <ns3:TrackPointExtension>
            <ns3:hr>128</ns3:hr>
            <ns3:cad>0</ns3:cad>
          </ns3:TrackPointExtension>
        </extensions>
      </trkpt>
      <trkpt lat="45.366447754204273223876953125" lon="-70.80370358191430568695068359375">
        <ele>467</ele>
        <time>2026-08-21T10:33:25.000Z</time>
        <extensions>
          <ns3:TrackPointExtension>
            <ns3:hr>128</ns3:hr>
            <ns3:cad>0</ns3:cad>
          </ns3:TrackPointExtension>
        </extensions>
      </trkpt>
      <trkpt lat="45.366435013711452484130859375" lon="-70.803722441196441650390625">
        <ele>467.20001220703125</ele>
        <time>2026-08-21T10:33:26.000Z</time>
        <extensions>
          <ns3:TrackPointExtension>
            <ns3:hr>128</ns3:hr>
            <ns3:cad>0</ns3:cad>
          </ns3:TrackPointExtension>
        </extensions>
      </trkpt>
      <trkpt lat="45.36642805673182010650634765625" lon="-70.8037346787750720977783203125">
        <ele>467.20001220703125</ele>
        <time>2026-08-21T10:33:27.000Z</time>
        <extensions>
          <ns3:TrackPointExtension>
            <ns3:hr>128</ns3:hr>
            <ns3:cad>0</ns3:cad>
          </ns3:TrackPointExtension>
        </extensions>
      </trkpt>
      <trkpt lat="45.3664152324199676513671875" lon="-70.80375437624752521514892578125">
        <ele>467.20001220703125</ele>
        <time>2026-08-21T10:33:28.000Z</time>
        <extensions>
          <ns3:TrackPointExtension>
            <ns3:hr>127</ns3:hr>
            <ns3:cad>0</ns3:cad>
          </ns3:TrackPointExtension>
        </extensions>
      </trkpt>
      <trkpt lat="45.36640249192714691162109375" lon="-70.8037712238729000091552734375">
        <ele>467.399993896484375</ele>
        <time>2026-08-21T10:33:29.000Z</time>
        <extensions>
          <ns3:TrackPointExtension>
            <ns3:hr>127</ns3:hr>
            <ns3:cad>50</ns3:cad>
          </ns3:TrackPointExtension>
        </extensions>
      </trkpt>
      <trkpt lat="45.36638933233916759490966796875" lon="-70.8037923462688922882080078125">
        <ele>467.399993896484375</ele>
        <time>2026-08-21T10:33:30.000Z</time>
        <extensions>
          <ns3:TrackPointExtension>
            <ns3:hr>126</ns3:hr>
            <ns3:cad>50</ns3:cad>
          </ns3:TrackPointExtension>
        </extensions>
      </trkpt>
      <trkpt lat="45.36637826822698116302490234375" lon="-70.80381472595036029815673828125">
        <ele>467.600006103515625</ele>
        <time>2026-08-21T10:33:31.000Z</time>
        <extensions>
          <ns3:TrackPointExtension>
            <ns3:hr>126</ns3:hr>
            <ns3:cad>50</ns3:cad>
          </ns3:TrackPointExtension>
        </extensions>
      </trkpt>
      <trkpt lat="45.36637105979025363922119140625" lon="-70.8038399554789066314697265625">
        <ele>467.600006103515625</ele>
        <time>2026-08-21T10:33:32.000Z</time>
        <extensions>
          <ns3:TrackPointExtension>
            <ns3:hr>125</ns3:hr>
            <ns3:cad>50</ns3:cad>
          </ns3:TrackPointExtension>
        </extensions>
      </trkpt>
      <trkpt lat="45.36637810058891773223876953125" lon="-70.80386417917907238006591796875">
        <ele>467.600006103515625</ele>
        <time>2026-08-21T10:33:33.000Z</time>
        <extensions>
          <ns3:TrackPointExtension>
            <ns3:hr>125</ns3:hr>
            <ns3:cad>50</ns3:cad>
          </ns3:TrackPointExtension>
        </extensions>
      </trkpt>
      <trkpt lat="45.366380698978900909423828125" lon="-70.80388328991830348968505859375">
        <ele>467.600006103515625</ele>
        <time>2026-08-21T10:33:34.000Z</time>
        <extensions>
          <ns3:TrackPointExtension>
            <ns3:hr>125</ns3:hr>
            <ns3:cad>50</ns3:cad>
          </ns3:TrackPointExtension>
        </extensions>
      </trkpt>
      <trkpt lat="45.3663825429975986480712890625" lon="-70.80389804206788539886474609375">
        <ele>467.600006103515625</ele>
        <time>2026-08-21T10:33:35.000Z</time>
        <extensions>
          <ns3:TrackPointExtension>
            <ns3:hr>124</ns3:hr>
            <ns3:cad>50</ns3:cad>
          </ns3:TrackPointExtension>
        </extensions>
      </trkpt>
      <trkpt lat="45.36638698540627956390380859375" lon="-70.803918577730655670166015625">
        <ele>467.600006103515625</ele>
        <time>2026-08-21T10:33:36.000Z</time>
        <extensions>
          <ns3:TrackPointExtension>
            <ns3:hr>125</ns3:hr>
            <ns3:cad>50</ns3:cad>
          </ns3:TrackPointExtension>
        </extensions>
      </trkpt>
      <trkpt lat="45.366392433643341064453125" lon="-70.8039385266602039337158203125">
        <ele>467.600006103515625</ele>
        <time>2026-08-21T10:33:37.000Z</time>
        <extensions>
          <ns3:TrackPointExtension>
            <ns3:hr>125</ns3:hr>
            <ns3:cad>51</ns3:cad>
          </ns3:TrackPointExtension>
        </extensions>
      </trkpt>
      <trkpt lat="45.3663942776620388031005859375" lon="-70.80395185388624668121337890625">
        <ele>467.600006103515625</ele>
        <time>2026-08-21T10:33:38.000Z</time>
        <extensions>
          <ns3:TrackPointExtension>
            <ns3:hr>125</ns3:hr>
            <ns3:cad>51</ns3:cad>
          </ns3:TrackPointExtension>
        </extensions>
      </trkpt>
      <trkpt lat="45.36639218218624591827392578125" lon="-70.803966522216796875">
        <ele>467.600006103515625</ele>
        <time>2026-08-21T10:33:39.000Z</time>
        <extensions>
          <ns3:TrackPointExtension>
            <ns3:hr>125</ns3:hr>
            <ns3:cad>51</ns3:cad>
          </ns3:TrackPointExtension>
        </extensions>
      </trkpt>
      <trkpt lat="45.36638279445469379425048828125" lon="-70.8039804361760616302490234375">
        <ele>467.600006103515625</ele>
        <time>2026-08-21T10:33:40.000Z</time>
        <extensions>
          <ns3:TrackPointExtension>
            <ns3:hr>124</ns3:hr>
            <ns3:cad>51</ns3:cad>
          </ns3:TrackPointExtension>
        </extensions>
      </trkpt>
      <trkpt lat="45.36637407727539539337158203125" lon="-70.80398487858474254608154296875">
        <ele>467.399993896484375</ele>
        <time>2026-08-21T10:33:41.000Z</time>
        <extensions>
          <ns3:TrackPointExtension>
            <ns3:hr>125</ns3:hr>
            <ns3:cad>51</ns3:cad>
          </ns3:TrackPointExtension>
        </extensions>
      </trkpt>
      <trkpt lat="45.36636762320995330810546875" lon="-70.80399141646921634674072265625">
        <ele>467.399993896484375</ele>
        <time>2026-08-21T10:33:42.000Z</time>
        <extensions>
          <ns3:TrackPointExtension>
            <ns3:hr>124</ns3:hr>
            <ns3:cad>51</ns3:cad>
          </ns3:TrackPointExtension>
        </extensions>
      </trkpt>
      <trkpt lat="45.3663590736687183380126953125" lon="-70.80400097183883190155029296875">
        <ele>467.399993896484375</ele>
        <time>2026-08-21T10:33:43.000Z</time>
        <extensions>
          <ns3:TrackPointExtension>
            <ns3:hr>124</ns3:hr>
            <ns3:cad>52</ns3:cad>
          </ns3:TrackPointExtension>
        </extensions>
      </trkpt>
      <trkpt lat="45.36634993739426136016845703125" lon="-70.80400834791362285614013671875">
        <ele>467.399993896484375</ele>
        <time>2026-08-21T10:33:44.000Z</time>
        <extensions>
          <ns3:TrackPointExtension>
            <ns3:hr>124</ns3:hr>
            <ns3:cad>52</ns3:cad>
          </ns3:TrackPointExtension>
        </extensions>
      </trkpt>
      <trkpt lat="45.36634323187172412872314453125" lon="-70.80401354469358921051025390625">
        <ele>467.600006103515625</ele>
        <time>2026-08-21T10:33:45.000Z</time>
        <extensions>
          <ns3:TrackPointExtension>
            <ns3:hr>124</ns3:hr>
            <ns3:cad>52</ns3:cad>
          </ns3:TrackPointExtension>
        </extensions>
      </trkpt>
      <trkpt lat="45.3663423098623752593994140625" lon="-70.80401480197906494140625">
        <ele>467.600006103515625</ele>
        <time>2026-08-21T10:33:46.000Z</time>
        <extensions>
          <ns3:TrackPointExtension>
            <ns3:hr>124</ns3:hr>
            <ns3:cad>0</ns3:cad>
          </ns3:TrackPointExtension>
        </extensions>
      </trkpt>
      <trkpt lat="45.36633920855820178985595703125" lon="-70.804017819464206695556640625">
        <ele>467.600006103515625</ele>
        <time>2026-08-21T10:33:47.000Z</time>
        <extensions>
          <ns3:TrackPointExtension>
            <ns3:hr>123</ns3:hr>
            <ns3:cad>0</ns3:cad>
          </ns3:TrackPointExtension>
        </extensions>
      </trkpt>
      <trkpt lat="45.3663325868546962738037109375" lon="-70.804021842777729034423828125">
        <ele>467.600006103515625</ele>
        <time>2026-08-21T10:33:48.000Z</time>
        <extensions>
          <ns3:TrackPointExtension>
            <ns3:hr>123</ns3:hr>
            <ns3:cad>0</ns3:cad>
          </ns3:TrackPointExtension>
        </extensions>
      </trkpt>
      <trkpt lat="45.3663235343992710113525390625" lon="-70.80402796156704425811767578125">
        <ele>467.600006103515625</ele>
        <time>2026-08-21T10:33:49.000Z</time>
        <extensions>
          <ns3:TrackPointExtension>
            <ns3:hr>123</ns3:hr>
            <ns3:cad>59</ns3:cad>
          </ns3:TrackPointExtension>
        </extensions>
      </trkpt>
      <trkpt lat="45.36631808616220951080322265625" lon="-70.80403902567923069000244140625">
        <ele>467.600006103515625</ele>
        <time>2026-08-21T10:33:50.000Z</time>
        <extensions>
          <ns3:TrackPointExtension>
            <ns3:hr>124</ns3:hr>
            <ns3:cad>59</ns3:cad>
          </ns3:TrackPointExtension>
        </extensions>
      </trkpt>
      <trkpt lat="45.36630903370678424835205078125" lon="-70.80405947752296924591064453125">
        <ele>467.600006103515625</ele>
        <time>2026-08-21T10:33:51.000Z</time>
        <extensions>
          <ns3:TrackPointExtension>
            <ns3:hr>124</ns3:hr>
            <ns3:cad>59</ns3:cad>
          </ns3:TrackPointExtension>
        </extensions>
      </trkpt>
      <trkpt lat="45.36629461683332920074462890625" lon="-70.8040743134915828704833984375">
        <ele>467.79998779296875</ele>
        <time>2026-08-21T10:33:52.000Z</time>
        <extensions>
          <ns3:TrackPointExtension>
            <ns3:hr>124</ns3:hr>
            <ns3:cad>59</ns3:cad>
          </ns3:TrackPointExtension>
        </extensions>
      </trkpt>
      <trkpt lat="45.3662879951298236846923828125" lon="-70.804086886346340179443359375">
        <ele>467.79998779296875</ele>
        <time>2026-08-21T10:33:53.000Z</time>
        <extensions>
          <ns3:TrackPointExtension>
            <ns3:hr>123</ns3:hr>
            <ns3:cad>59</ns3:cad>
          </ns3:TrackPointExtension>
        </extensions>
      </trkpt>
      <trkpt lat="45.36627911031246185302734375" lon="-70.80410490743815898895263671875">
        <ele>468</ele>
        <time>2026-08-21T10:33:54.000Z</time>
        <extensions>
          <ns3:TrackPointExtension>
            <ns3:hr>123</ns3:hr>
            <ns3:cad>59</ns3:cad>
          </ns3:TrackPointExtension>
        </extensions>
      </trkpt>
      <trkpt lat="45.366273410618305206298828125" lon="-70.80411831848323345184326171875">
        <ele>468</ele>
        <time>2026-08-21T10:33:55.000Z</time>
        <extensions>
          <ns3:TrackPointExtension>
            <ns3:hr>123</ns3:hr>
            <ns3:cad>59</ns3:cad>
          </ns3:TrackPointExtension>
        </extensions>
      </trkpt>
      <trkpt lat="45.3662658669054508209228515625" lon="-70.8041239343583583831787109375">
        <ele>468</ele>
        <time>2026-08-21T10:33:56.000Z</time>
        <extensions>
          <ns3:TrackPointExtension>
            <ns3:hr>124</ns3:hr>
            <ns3:cad>59</ns3:cad>
          </ns3:TrackPointExtension>
        </extensions>
      </trkpt>
      <trkpt lat="45.36625958047807216644287109375" lon="-70.80412636511027812957763671875">
        <ele>468.20001220703125</ele>
        <time>2026-08-21T10:33:57.000Z</time>
        <extensions>
          <ns3:TrackPointExtension>
            <ns3:hr>124</ns3:hr>
            <ns3:cad>59</ns3:cad>
          </ns3:TrackPointExtension>
        </extensions>
      </trkpt>
      <trkpt lat="45.36625455133616924285888671875" lon="-70.8041323162615299224853515625">
        <ele>468.20001220703125</ele>
        <time>2026-08-21T10:33:58.000Z</time>
        <extensions>
          <ns3:TrackPointExtension>
            <ns3:hr>124</ns3:hr>
            <ns3:cad>59</ns3:cad>
          </ns3:TrackPointExtension>
        </extensions>
      </trkpt>
      <trkpt lat="45.3662527911365032196044921875" lon="-70.80413977615535259246826171875">
        <ele>468.20001220703125</ele>
        <time>2026-08-21T10:33:59.000Z</time>
        <extensions>
          <ns3:TrackPointExtension>
            <ns3:hr>125</ns3:hr>
            <ns3:cad>59</ns3:cad>
          </ns3:TrackPointExtension>
        </extensions>
      </trkpt>
      <trkpt lat="45.3662470914423465728759765625" lon="-70.80415419302880764007568359375">
        <ele>468</ele>
        <time>2026-08-21T10:34:00.000Z</time>
        <extensions>
          <ns3:TrackPointExtension>
            <ns3:hr>124</ns3:hr>
            <ns3:cad>59</ns3:cad>
          </ns3:TrackPointExtension>
        </extensions>
      </trkpt>
      <trkpt lat="45.3662395477294921875" lon="-70.804169364273548126220703125">
        <ele>468.20001220703125</ele>
        <time>2026-08-21T10:34:01.000Z</time>
        <extensions>
          <ns3:TrackPointExtension>
            <ns3:hr>124</ns3:hr>
            <ns3:cad>59</ns3:cad>
          </ns3:TrackPointExtension>
        </extensions>
      </trkpt>
      <trkpt lat="45.366233848035335540771484375" lon="-70.80417665652930736541748046875">
        <ele>468.20001220703125</ele>
        <time>2026-08-21T10:34:02.000Z</time>
        <extensions>
          <ns3:TrackPointExtension>
            <ns3:hr>124</ns3:hr>
            <ns3:cad>48</ns3:cad>
          </ns3:TrackPointExtension>
        </extensions>
      </trkpt>
      <trkpt lat="45.36623108200728893280029296875" lon="-70.8041822724044322967529296875">
        <ele>468.20001220703125</ele>
        <time>2026-08-21T10:34:03.000Z</time>
        <extensions>
          <ns3:TrackPointExtension>
            <ns3:hr>124</ns3:hr>
            <ns3:cad>0</ns3:cad>
          </ns3:TrackPointExtension>
        </extensions>
      </trkpt>
      <trkpt lat="45.3662296570837497711181640625" lon="-70.80418420024216175079345703125">
        <ele>468.399993896484375</ele>
        <time>2026-08-21T10:34:04.000Z</time>
        <extensions>
          <ns3:TrackPointExtension>
            <ns3:hr>123</ns3:hr>
            <ns3:cad>0</ns3:cad>
          </ns3:TrackPointExtension>
        </extensions>
      </trkpt>
      <trkpt lat="45.36622957326471805572509765625" lon="-70.80418420024216175079345703125">
        <ele>468.399993896484375</ele>
        <time>2026-08-21T10:34:05.000Z</time>
        <extensions>
          <ns3:TrackPointExtension>
            <ns3:hr>123</ns3:hr>
            <ns3:cad>0</ns3:cad>
          </ns3:TrackPointExtension>
        </extensions>
      </trkpt>
      <trkpt lat="45.36622957326471805572509765625" lon="-70.80418420024216175079345703125">
        <ele>468.399993896484375</ele>
        <time>2026-08-21T10:34:06.000Z</time>
        <extensions>
          <ns3:TrackPointExtension>
            <ns3:hr>124</ns3:hr>
            <ns3:cad>0</ns3:cad>
          </ns3:TrackPointExtension>
        </extensions>
      </trkpt>
      <trkpt lat="45.36622957326471805572509765625" lon="-70.80418420024216175079345703125">
        <ele>468.399993896484375</ele>
        <time>2026-08-21T10:34:07.000Z</time>
        <extensions>
          <ns3:TrackPointExtension>
            <ns3:hr>124</ns3:hr>
            <ns3:cad>0</ns3:cad>
          </ns3:TrackPointExtension>
        </extensions>
      </trkpt>
      <trkpt lat="45.36622957326471805572509765625" lon="-70.80418420024216175079345703125">
        <ele>468.399993896484375</ele>
        <time>2026-08-21T10:34:08.000Z</time>
        <extensions>
          <ns3:TrackPointExtension>
            <ns3:hr>124</ns3:hr>
            <ns3:cad>0</ns3:cad>
          </ns3:TrackPointExtension>
        </extensions>
      </trkpt>
      <trkpt lat="45.36622957326471805572509765625" lon="-70.80418420024216175079345703125">
        <ele>468.399993896484375</ele>
        <time>2026-08-21T10:34:09.000Z</time>
        <extensions>
          <ns3:TrackPointExtension>
            <ns3:hr>124</ns3:hr>
            <ns3:cad>0</ns3:cad>
          </ns3:TrackPointExtension>
        </extensions>
      </trkpt>
      <trkpt lat="45.36622957326471805572509765625" lon="-70.80418420024216175079345703125">
        <ele>468.399993896484375</ele>
        <time>2026-08-21T10:34:10.000Z</time>
        <extensions>
          <ns3:TrackPointExtension>
            <ns3:hr>124</ns3:hr>
            <ns3:cad>0</ns3:cad>
          </ns3:TrackPointExtension>
        </extensions>
      </trkpt>
      <trkpt lat="45.36622957326471805572509765625" lon="-70.80418420024216175079345703125">
        <ele>468.399993896484375</ele>
        <time>2026-08-21T10:34:11.000Z</time>
        <extensions>
          <ns3:TrackPointExtension>
            <ns3:hr>123</ns3:hr>
            <ns3:cad>0</ns3:cad>
          </ns3:TrackPointExtension>
        </extensions>
      </trkpt>
      <trkpt lat="45.36622957326471805572509765625" lon="-70.80418420024216175079345703125">
        <ele>468.399993896484375</ele>
        <time>2026-08-21T10:34:12.000Z</time>
        <extensions>
          <ns3:TrackPointExtension>
            <ns3:hr>124</ns3:hr>
            <ns3:cad>0</ns3:cad>
          </ns3:TrackPointExtension>
        </extensions>
      </trkpt>
      <trkpt lat="45.36622957326471805572509765625" lon="-70.80418420024216175079345703125">
        <ele>468.399993896484375</ele>
        <time>2026-08-21T10:34:13.000Z</time>
        <extensions>
          <ns3:TrackPointExtension>
            <ns3:hr>123</ns3:hr>
            <ns3:cad>0</ns3:cad>
          </ns3:TrackPointExtension>
        </extensions>
      </trkpt>
      <trkpt lat="45.36622957326471805572509765625" lon="-70.80418420024216175079345703125">
        <ele>468.399993896484375</ele>
        <time>2026-08-21T10:34:14.000Z</time>
        <extensions>
          <ns3:TrackPointExtension>
            <ns3:hr>123</ns3:hr>
            <ns3:cad>0</ns3:cad>
          </ns3:TrackPointExtension>
        </extensions>
      </trkpt>
      <trkpt lat="45.36622957326471805572509765625" lon="-70.80418420024216175079345703125">
        <ele>468.20001220703125</ele>
        <time>2026-08-21T10:34:15.000Z</time>
        <extensions>
          <ns3:TrackPointExtension>
            <ns3:hr>123</ns3:hr>
            <ns3:cad>0</ns3:cad>
          </ns3:TrackPointExtension>
        </extensions>
      </trkpt>
      <trkpt lat="45.36622957326471805572509765625" lon="-70.80418420024216175079345703125">
        <ele>468.20001220703125</ele>
        <time>2026-08-21T10:34:16.000Z</time>
        <extensions>
          <ns3:TrackPointExtension>
            <ns3:hr>122</ns3:hr>
            <ns3:cad>0</ns3:cad>
          </ns3:TrackPointExtension>
        </extensions>
      </trkpt>
      <trkpt lat="45.36622957326471805572509765625" lon="-70.80418420024216175079345703125">
        <ele>468.20001220703125</ele>
        <time>2026-08-21T10:34:17.000Z</time>
        <extensions>
          <ns3:TrackPointExtension>
            <ns3:hr>122</ns3:hr>
            <ns3:cad>0</ns3:cad>
          </ns3:TrackPointExtension>
        </extensions>
      </trkpt>
      <trkpt lat="45.36622957326471805572509765625" lon="-70.80418420024216175079345703125">
        <ele>468.20001220703125</ele>
        <time>2026-08-21T10:34:18.000Z</time>
        <extensions>
          <ns3:TrackPointExtension>
            <ns3:hr>121</ns3:hr>
            <ns3:cad>0</ns3:cad>
          </ns3:TrackPointExtension>
        </extensions>
      </trkpt>
      <trkpt lat="45.36622957326471805572509765625" lon="-70.80418420024216175079345703125">
        <ele>468.20001220703125</ele>
        <time>2026-08-21T10:34:19.000Z</time>
        <extensions>
          <ns3:TrackPointExtension>
            <ns3:hr>121</ns3:hr>
            <ns3:cad>0</ns3:cad>
          </ns3:TrackPointExtension>
        </extensions>
      </trkpt>
      <trkpt lat="45.36622957326471805572509765625" lon="-70.80418420024216175079345703125">
        <ele>468.20001220703125</ele>
        <time>2026-08-21T10:34:20.000Z</time>
        <extensions>
          <ns3:TrackPointExtension>
            <ns3:hr>120</ns3:hr>
            <ns3:cad>0</ns3:cad>
          </ns3:TrackPointExtension>
        </extensions>
      </trkpt>
      <trkpt lat="45.36622957326471805572509765625" lon="-70.80418420024216175079345703125">
        <ele>468.399993896484375</ele>
        <time>2026-08-21T10:34:21.000Z</time>
        <extensions>
          <ns3:TrackPointExtension>
            <ns3:hr>120</ns3:hr>
            <ns3:cad>0</ns3:cad>
          </ns3:TrackPointExtension>
        </extensions>
      </trkpt>
      <trkpt lat="45.36622957326471805572509765625" lon="-70.80418420024216175079345703125">
        <ele>468.399993896484375</ele>
        <time>2026-08-21T10:34:22.000Z</time>
        <extensions>
          <ns3:TrackPointExtension>
            <ns3:hr>120</ns3:hr>
            <ns3:cad>0</ns3:cad>
          </ns3:TrackPointExtension>
        </extensions>
      </trkpt>
      <trkpt lat="45.36622957326471805572509765625" lon="-70.80418420024216175079345703125">
        <ele>468.20001220703125</ele>
        <time>2026-08-21T10:34:23.000Z</time>
        <extensions>
          <ns3:TrackPointExtension>
            <ns3:hr>120</ns3:hr>
            <ns3:cad>0</ns3:cad>
          </ns3:TrackPointExtension>
        </extensions>
      </trkpt>
      <trkpt lat="45.36622957326471805572509765625" lon="-70.80418420024216175079345703125">
        <ele>468.20001220703125</ele>
        <time>2026-08-21T10:34:24.000Z</time>
        <extensions>
          <ns3:TrackPointExtension>
            <ns3:hr>120</ns3:hr>
            <ns3:cad>0</ns3:cad>
          </ns3:TrackPointExtension>
        </extensions>
      </trkpt>
      <trkpt lat="45.36622957326471805572509765625" lon="-70.80418420024216175079345703125">
        <ele>468.20001220703125</ele>
        <time>2026-08-21T10:34:25.000Z</time>
        <extensions>
          <ns3:TrackPointExtension>
            <ns3:hr>120</ns3:hr>
            <ns3:cad>0</ns3:cad>
          </ns3:TrackPointExtension>
        </extensions>
      </trkpt>
      <trkpt lat="45.36622957326471805572509765625" lon="-70.80418420024216175079345703125">
        <ele>468.20001220703125</ele>
        <time>2026-08-21T10:34:26.000Z</time>
        <extensions>
          <ns3:TrackPointExtension>
            <ns3:hr>120</ns3:hr>
            <ns3:cad>0</ns3:cad>
          </ns3:TrackPointExtension>
        </extensions>
      </trkpt>
      <trkpt lat="45.36622957326471805572509765625" lon="-70.80418420024216175079345703125">
        <ele>468.20001220703125</ele>
        <time>2026-08-21T10:34:27.000Z</time>
        <extensions>
          <ns3:TrackPointExtension>
            <ns3:hr>119</ns3:hr>
            <ns3:cad>0</ns3:cad>
          </ns3:TrackPointExtension>
        </extensions>
      </trkpt>
      <trkpt lat="45.366227142512798309326171875" lon="-70.80418705008924007415771484375">
        <ele>468.20001220703125</ele>
        <time>2026-08-21T10:34:28.000Z</time>
        <extensions>
          <ns3:TrackPointExtension>
            <ns3:hr>119</ns3:hr>
            <ns3:cad>0</ns3:cad>
          </ns3:TrackPointExtension>
        </extensions>
      </trkpt>
      <trkpt lat="45.36622144281864166259765625" lon="-70.804194509983062744140625">
        <ele>468.399993896484375</ele>
        <time>2026-08-21T10:34:29.000Z</time>
        <extensions>
          <ns3:TrackPointExtension>
            <ns3:hr>118</ns3:hr>
            <ns3:cad>0</ns3:cad>
          </ns3:TrackPointExtension>
        </extensions>
      </trkpt>
      <trkpt lat="45.366213731467723846435546875" lon="-70.80420054495334625244140625">
        <ele>468.399993896484375</ele>
        <time>2026-08-21T10:34:30.000Z</time>
        <extensions>
          <ns3:TrackPointExtension>
            <ns3:hr>118</ns3:hr>
            <ns3:cad>0</ns3:cad>
          </ns3:TrackPointExtension>
        </extensions>
      </trkpt>
      <trkpt lat="45.366209037601947784423828125" lon="-70.8042020536959171295166015625">
        <ele>468.600006103515625</ele>
        <time>2026-08-21T10:34:31.000Z</time>
        <extensions>
          <ns3:TrackPointExtension>
            <ns3:hr>118</ns3:hr>
            <ns3:cad>0</ns3:cad>
          </ns3:TrackPointExtension>
        </extensions>
      </trkpt>
      <trkpt lat="45.3662028349936008453369140625" lon="-70.804203562438488006591796875">
        <ele>469</ele>
        <time>2026-08-21T10:34:32.000Z</time>
        <extensions>
          <ns3:TrackPointExtension>
            <ns3:hr>118</ns3:hr>
            <ns3:cad>0</ns3:cad>
          </ns3:TrackPointExtension>
        </extensions>
      </trkpt>
      <trkpt lat="45.36619755439460277557373046875" lon="-70.8042020536959171295166015625">
        <ele>469.20001220703125</ele>
        <time>2026-08-21T10:34:33.000Z</time>
        <extensions>
          <ns3:TrackPointExtension>
            <ns3:hr>118</ns3:hr>
            <ns3:cad>47</ns3:cad>
          </ns3:TrackPointExtension>
        </extensions>
      </trkpt>
      <trkpt lat="45.36619302816689014434814453125" lon="-70.80420465208590030670166015625">
        <ele>469.600006103515625</ele>
        <time>2026-08-21T10:34:34.000Z</time>
        <extensions>
          <ns3:TrackPointExtension>
            <ns3:hr>118</ns3:hr>
            <ns3:cad>47</ns3:cad>
          </ns3:TrackPointExtension>
        </extensions>
      </trkpt>
      <trkpt lat="45.36619118414819240570068359375" lon="-70.80420448444783687591552734375">
        <ele>469.79998779296875</ele>
        <time>2026-08-21T10:34:35.000Z</time>
        <extensions>
          <ns3:TrackPointExtension>
            <ns3:hr>117</ns3:hr>
            <ns3:cad>47</ns3:cad>
          </ns3:TrackPointExtension>
        </extensions>
      </trkpt>
      <trkpt lat="45.3661820478737354278564453125" lon="-70.8042023889720439910888671875">
        <ele>470.20001220703125</ele>
        <time>2026-08-21T10:34:36.000Z</time>
        <extensions>
          <ns3:TrackPointExtension>
            <ns3:hr>117</ns3:hr>
            <ns3:cad>47</ns3:cad>
          </ns3:TrackPointExtension>
        </extensions>
      </trkpt>
      <trkpt lat="45.36617509089410305023193359375" lon="-70.80420481972396373748779296875">
        <ele>470.600006103515625</ele>
        <time>2026-08-21T10:34:37.000Z</time>
        <extensions>
          <ns3:TrackPointExtension>
            <ns3:hr>117</ns3:hr>
            <ns3:cad>47</ns3:cad>
          </ns3:TrackPointExtension>
        </extensions>
      </trkpt>
      <trkpt lat="45.3661716543138027191162109375" lon="-70.804204232990741729736328125">
        <ele>470.79998779296875</ele>
        <time>2026-08-21T10:34:38.000Z</time>
        <extensions>
          <ns3:TrackPointExtension>
            <ns3:hr>116</ns3:hr>
            <ns3:cad>47</ns3:cad>
          </ns3:TrackPointExtension>
        </extensions>
      </trkpt>
      <trkpt lat="45.3661629371345043182373046875" lon="-70.80420699901878833770751953125">
        <ele>471.20001220703125</ele>
        <time>2026-08-21T10:34:39.000Z</time>
        <extensions>
          <ns3:TrackPointExtension>
            <ns3:hr>115</ns3:hr>
            <ns3:cad>47</ns3:cad>
          </ns3:TrackPointExtension>
        </extensions>
      </trkpt>
      <trkpt lat="45.366156399250030517578125" lon="-70.80421035178005695343017578125">
        <ele>471.600006103515625</ele>
        <time>2026-08-21T10:34:40.000Z</time>
        <extensions>
          <ns3:TrackPointExtension>
            <ns3:hr>115</ns3:hr>
            <ns3:cad>44</ns3:cad>
          </ns3:TrackPointExtension>
        </extensions>
      </trkpt>
      <trkpt lat="45.3661458380520343780517578125" lon="-70.80421521328389644622802734375">
        <ele>471.79998779296875</ele>
        <time>2026-08-21T10:34:41.000Z</time>
        <extensions>
          <ns3:TrackPointExtension>
            <ns3:hr>114</ns3:hr>
            <ns3:cad>44</ns3:cad>
          </ns3:TrackPointExtension>
        </extensions>
      </trkpt>
      <trkpt lat="45.36613452248275279998779296875" lon="-70.8042241819202899932861328125">
        <ele>472.20001220703125</ele>
        <time>2026-08-21T10:34:42.000Z</time>
        <extensions>
          <ns3:TrackPointExtension>
            <ns3:hr>115</ns3:hr>
            <ns3:cad>0</ns3:cad>
          </ns3:TrackPointExtension>
        </extensions>
      </trkpt>
      <trkpt lat="45.36612865515053272247314453125" lon="-70.80423063598573207855224609375">
        <ele>472.399993896484375</ele>
        <time>2026-08-21T10:34:43.000Z</time>
        <extensions>
          <ns3:TrackPointExtension>
            <ns3:hr>116</ns3:hr>
            <ns3:cad>0</ns3:cad>
          </ns3:TrackPointExtension>
        </extensions>
      </trkpt>
      <trkpt lat="45.36612094379961490631103515625" lon="-70.8042379282414913177490234375">
        <ele>472.600006103515625</ele>
        <time>2026-08-21T10:34:44.000Z</time>
        <extensions>
          <ns3:TrackPointExtension>
            <ns3:hr>117</ns3:hr>
            <ns3:cad>0</ns3:cad>
          </ns3:TrackPointExtension>
        </extensions>
      </trkpt>
      <trkpt lat="45.3661156632006168365478515625" lon="-70.80423834733664989471435546875">
        <ele>472.600006103515625</ele>
        <time>2026-08-21T10:34:45.000Z</time>
        <extensions>
          <ns3:TrackPointExtension>
            <ns3:hr>118</ns3:hr>
            <ns3:cad>48</ns3:cad>
          </ns3:TrackPointExtension>
        </extensions>
      </trkpt>
      <trkpt lat="45.36610283888876438140869140625" lon="-70.80424287356436252593994140625">
        <ele>472.79998779296875</ele>
        <time>2026-08-21T10:34:46.000Z</time>
        <extensions>
          <ns3:TrackPointExtension>
            <ns3:hr>119</ns3:hr>
            <ns3:cad>48</ns3:cad>
          </ns3:TrackPointExtension>
        </extensions>
      </trkpt>
      <trkpt lat="45.3660928644239902496337890625" lon="-70.8042466454207897186279296875">
        <ele>473</ele>
        <time>2026-08-21T10:34:47.000Z</time>
        <extensions>
          <ns3:TrackPointExtension>
            <ns3:hr>121</ns3:hr>
            <ns3:cad>47</ns3:cad>
          </ns3:TrackPointExtension>
        </extensions>
      </trkpt>
      <trkpt lat="45.36608255468308925628662109375" lon="-70.804248154163360595703125">
        <ele>473.20001220703125</ele>
        <time>2026-08-21T10:34:48.000Z</time>
        <extensions>
          <ns3:TrackPointExtension>
            <ns3:hr>123</ns3:hr>
            <ns3:cad>47</ns3:cad>
          </ns3:TrackPointExtension>
        </extensions>
      </trkpt>
      <trkpt lat="45.36607283167541027069091796875" lon="-70.8042449690401554107666015625">
        <ele>473.399993896484375</ele>
        <time>2026-08-21T10:34:49.000Z</time>
        <extensions>
          <ns3:TrackPointExtension>
            <ns3:hr>123</ns3:hr>
            <ns3:cad>45</ns3:cad>
          </ns3:TrackPointExtension>
        </extensions>
      </trkpt>
      <trkpt lat="45.36605858244001865386962890625" lon="-70.80424371175467967987060546875">
        <ele>473.600006103515625</ele>
        <time>2026-08-21T10:34:50.000Z</time>
        <extensions>
          <ns3:TrackPointExtension>
            <ns3:hr>124</ns3:hr>
            <ns3:cad>46</ns3:cad>
          </ns3:TrackPointExtension>
        </extensions>
      </trkpt>
      <trkpt lat="45.36604441702365875244140625" lon="-70.8042436279356479644775390625">
        <ele>473.79998779296875</ele>
        <time>2026-08-21T10:34:51.000Z</time>
        <extensions>
          <ns3:TrackPointExtension>
            <ns3:hr>124</ns3:hr>
            <ns3:cad>46</ns3:cad>
          </ns3:TrackPointExtension>
        </extensions>
      </trkpt>
      <trkpt lat="45.366033017635345458984375" lon="-70.80424203537404537200927734375">
        <ele>474.20001220703125</ele>
        <time>2026-08-21T10:34:52.000Z</time>
        <extensions>
          <ns3:TrackPointExtension>
            <ns3:hr>125</ns3:hr>
            <ns3:cad>46</ns3:cad>
          </ns3:TrackPointExtension>
        </extensions>
      </trkpt>
      <trkpt lat="45.36602287553250789642333984375" lon="-70.80424622632563114166259765625">
        <ele>474.399993896484375</ele>
        <time>2026-08-21T10:34:53.000Z</time>
        <extensions>
          <ns3:TrackPointExtension>
            <ns3:hr>125</ns3:hr>
            <ns3:cad>46</ns3:cad>
          </ns3:TrackPointExtension>
        </extensions>
      </trkpt>
      <trkpt lat="45.36600946448743343353271484375" lon="-70.80424756743013858795166015625">
        <ele>474.399993896484375</ele>
        <time>2026-08-21T10:34:54.000Z</time>
        <extensions>
          <ns3:TrackPointExtension>
            <ns3:hr>125</ns3:hr>
            <ns3:cad>48</ns3:cad>
          </ns3:TrackPointExtension>
        </extensions>
      </trkpt>
      <trkpt lat="45.36599320359528064727783203125" lon="-70.80424723215401172637939453125">
        <ele>474.600006103515625</ele>
        <time>2026-08-21T10:34:55.000Z</time>
        <extensions>
          <ns3:TrackPointExtension>
            <ns3:hr>125</ns3:hr>
            <ns3:cad>48</ns3:cad>
          </ns3:TrackPointExtension>
        </extensions>
      </trkpt>
      <trkpt lat="45.36598197184503078460693359375" lon="-70.804245807230472564697265625">
        <ele>474.600006103515625</ele>
        <time>2026-08-21T10:34:56.000Z</time>
        <extensions>
          <ns3:TrackPointExtension>
            <ns3:hr>126</ns3:hr>
            <ns3:cad>49</ns3:cad>
          </ns3:TrackPointExtension>
        </extensions>
      </trkpt>
      <trkpt lat="45.36596889607608318328857421875" lon="-70.80424287356436252593994140625">
        <ele>474.600006103515625</ele>
        <time>2026-08-21T10:34:57.000Z</time>
        <extensions>
          <ns3:TrackPointExtension>
            <ns3:hr>126</ns3:hr>
            <ns3:cad>48</ns3:cad>
          </ns3:TrackPointExtension>
        </extensions>
      </trkpt>
      <trkpt lat="45.36595665849745273590087890625" lon="-70.8042402751743793487548828125">
        <ele>474.600006103515625</ele>
        <time>2026-08-21T10:34:58.000Z</time>
        <extensions>
          <ns3:TrackPointExtension>
            <ns3:hr>127</ns3:hr>
            <ns3:cad>48</ns3:cad>
          </ns3:TrackPointExtension>
        </extensions>
      </trkpt>
      <trkpt lat="45.36593905650079250335693359375" lon="-70.80423851497471332550048828125">
        <ele>474.399993896484375</ele>
        <time>2026-08-21T10:34:59.000Z</time>
        <extensions>
          <ns3:TrackPointExtension>
            <ns3:hr>126</ns3:hr>
            <ns3:cad>48</ns3:cad>
          </ns3:TrackPointExtension>
        </extensions>
      </trkpt>
      <trkpt lat="45.365926064550876617431640625" lon="-70.80423616804182529449462890625">
        <ele>474.399993896484375</ele>
        <time>2026-08-21T10:35:00.000Z</time>
        <extensions>
          <ns3:TrackPointExtension>
            <ns3:hr>127</ns3:hr>
            <ns3:cad>48</ns3:cad>
          </ns3:TrackPointExtension>
        </extensions>
      </trkpt>
      <trkpt lat="45.365911312401294708251953125" lon="-70.80423113889992237091064453125">
        <ele>474.20001220703125</ele>
        <time>2026-08-21T10:35:01.000Z</time>
        <extensions>
          <ns3:TrackPointExtension>
            <ns3:hr>127</ns3:hr>
            <ns3:cad>53</ns3:cad>
          </ns3:TrackPointExtension>
        </extensions>
      </trkpt>
      <trkpt lat="45.36589764989912509918212890625" lon="-70.8042253553867340087890625">
        <ele>474</ele>
        <time>2026-08-21T10:35:02.000Z</time>
        <extensions>
          <ns3:TrackPointExtension>
            <ns3:hr>127</ns3:hr>
            <ns3:cad>53</ns3:cad>
          </ns3:TrackPointExtension>
        </extensions>
      </trkpt>
      <trkpt lat="45.36588340066373348236083984375" lon="-70.8042226731777191162109375">
        <ele>474</ele>
        <time>2026-08-21T10:35:03.000Z</time>
        <extensions>
          <ns3:TrackPointExtension>
            <ns3:hr>127</ns3:hr>
            <ns3:cad>55</ns3:cad>
          </ns3:TrackPointExtension>
        </extensions>
      </trkpt>
      <trkpt lat="45.36586898379027843475341796875" lon="-70.80422057770192623138427734375">
        <ele>474</ele>
        <time>2026-08-21T10:35:04.000Z</time>
        <extensions>
          <ns3:TrackPointExtension>
            <ns3:hr>127</ns3:hr>
            <ns3:cad>56</ns3:cad>
          </ns3:TrackPointExtension>
        </extensions>
      </trkpt>
      <trkpt lat="45.365849621593952178955078125" lon="-70.80422745086252689361572265625">
        <ele>474</ele>
        <time>2026-08-21T10:35:05.000Z</time>
        <extensions>
          <ns3:TrackPointExtension>
            <ns3:hr>127</ns3:hr>
            <ns3:cad>56</ns3:cad>
          </ns3:TrackPointExtension>
        </extensions>
      </trkpt>
      <trkpt lat="45.3658383898437023162841796875" lon="-70.80424211919307708740234375">
        <ele>474.20001220703125</ele>
        <time>2026-08-21T10:35:06.000Z</time>
        <extensions>
          <ns3:TrackPointExtension>
            <ns3:hr>126</ns3:hr>
            <ns3:cad>57</ns3:cad>
          </ns3:TrackPointExtension>
        </extensions>
      </trkpt>
      <trkpt lat="45.365826822817325592041015625" lon="-70.804255865514278411865234375">
        <ele>474.20001220703125</ele>
        <time>2026-08-21T10:35:07.000Z</time>
        <extensions>
          <ns3:TrackPointExtension>
            <ns3:hr>127</ns3:hr>
            <ns3:cad>57</ns3:cad>
          </ns3:TrackPointExtension>
        </extensions>
      </trkpt>
      <trkpt lat="45.365816093981266021728515625" lon="-70.8042738027870655059814453125">
        <ele>474.399993896484375</ele>
        <time>2026-08-21T10:35:08.000Z</time>
        <extensions>
          <ns3:TrackPointExtension>
            <ns3:hr>127</ns3:hr>
            <ns3:cad>53</ns3:cad>
          </ns3:TrackPointExtension>
        </extensions>
      </trkpt>
      <trkpt lat="45.36580444313585758209228515625" lon="-70.80428763292729854583740234375">
        <ele>474.600006103515625</ele>
        <time>2026-08-21T10:35:09.000Z</time>
        <extensions>
          <ns3:TrackPointExtension>
            <ns3:hr>126</ns3:hr>
            <ns3:cad>53</ns3:cad>
          </ns3:TrackPointExtension>
        </extensions>
      </trkpt>
      <trkpt lat="45.3657904453575611114501953125" lon="-70.80430640839040279388427734375">
        <ele>474.600006103515625</ele>
        <time>2026-08-21T10:35:10.000Z</time>
        <extensions>
          <ns3:TrackPointExtension>
            <ns3:hr>127</ns3:hr>
            <ns3:cad>53</ns3:cad>
          </ns3:TrackPointExtension>
        </extensions>
      </trkpt>
      <trkpt lat="45.3657810576260089874267578125" lon="-70.804327614605426788330078125">
        <ele>474.79998779296875</ele>
        <time>2026-08-21T10:35:11.000Z</time>
        <extensions>
          <ns3:TrackPointExtension>
            <ns3:hr>127</ns3:hr>
            <ns3:cad>53</ns3:cad>
          </ns3:TrackPointExtension>
        </extensions>
      </trkpt>
      <trkpt lat="45.3657787106931209564208984375" lon="-70.8043532632291316986083984375">
        <ele>474.79998779296875</ele>
        <time>2026-08-21T10:35:12.000Z</time>
        <extensions>
          <ns3:TrackPointExtension>
            <ns3:hr>127</ns3:hr>
            <ns3:cad>53</ns3:cad>
          </ns3:TrackPointExtension>
        </extensions>
      </trkpt>
      <trkpt lat="45.36576856859028339385986328125" lon="-70.8043701946735382080078125">
        <ele>475</ele>
        <time>2026-08-21T10:35:13.000Z</time>
        <extensions>
          <ns3:TrackPointExtension>
            <ns3:hr>127</ns3:hr>
            <ns3:cad>0</ns3:cad>
          </ns3:TrackPointExtension>
        </extensions>
      </trkpt>
      <trkpt lat="45.36576186306774616241455078125" lon="-70.8043851144611835479736328125">
        <ele>475</ele>
        <time>2026-08-21T10:35:14.000Z</time>
        <extensions>
          <ns3:TrackPointExtension>
            <ns3:hr>128</ns3:hr>
            <ns3:cad>0</ns3:cad>
          </ns3:TrackPointExtension>
        </extensions>
      </trkpt>
      <trkpt lat="45.3657572530210018157958984375" lon="-70.80441034398972988128662109375">
        <ele>475.20001220703125</ele>
        <time>2026-08-21T10:35:15.000Z</time>
        <extensions>
          <ns3:TrackPointExtension>
            <ns3:hr>128</ns3:hr>
            <ns3:cad>0</ns3:cad>
          </ns3:TrackPointExtension>
        </extensions>
      </trkpt>
      <trkpt lat="45.36575146950781345367431640625" lon="-70.8044310472905635833740234375">
        <ele>475.20001220703125</ele>
        <time>2026-08-21T10:35:16.000Z</time>
        <extensions>
          <ns3:TrackPointExtension>
            <ns3:hr>128</ns3:hr>
            <ns3:cad>0</ns3:cad>
          </ns3:TrackPointExtension>
        </extensions>
      </trkpt>
      <trkpt lat="45.36574761383235454559326171875" lon="-70.80445426516234874725341796875">
        <ele>475.20001220703125</ele>
        <time>2026-08-21T10:35:17.000Z</time>
        <extensions>
          <ns3:TrackPointExtension>
            <ns3:hr>128</ns3:hr>
            <ns3:cad>0</ns3:cad>
          </ns3:TrackPointExtension>
        </extensions>
      </trkpt>
      <trkpt lat="45.365745685994625091552734375" lon="-70.80448217689990997314453125">
        <ele>475.20001220703125</ele>
        <time>2026-08-21T10:35:18.000Z</time>
        <extensions>
          <ns3:TrackPointExtension>
            <ns3:hr>128</ns3:hr>
            <ns3:cad>55</ns3:cad>
          </ns3:TrackPointExtension>
        </extensions>
      </trkpt>
      <trkpt lat="45.36573973484337329864501953125" lon="-70.80450153909623622894287109375">
        <ele>475.399993896484375</ele>
        <time>2026-08-21T10:35:19.000Z</time>
        <extensions>
          <ns3:TrackPointExtension>
            <ns3:hr>129</ns3:hr>
            <ns3:cad>55</ns3:cad>
          </ns3:TrackPointExtension>
        </extensions>
      </trkpt>
      <trkpt lat="45.3657290898263454437255859375" lon="-70.8045178838074207305908203125">
        <ele>475.399993896484375</ele>
        <time>2026-08-21T10:35:20.000Z</time>
        <extensions>
          <ns3:TrackPointExtension>
            <ns3:hr>129</ns3:hr>
            <ns3:cad>55</ns3:cad>
          </ns3:TrackPointExtension>
        </extensions>
      </trkpt>
      <trkpt lat="45.3657220490276813507080078125" lon="-70.8045306243002414703369140625">
        <ele>475.399993896484375</ele>
        <time>2026-08-21T10:35:21.000Z</time>
        <extensions>
          <ns3:TrackPointExtension>
            <ns3:hr>129</ns3:hr>
            <ns3:cad>55</ns3:cad>
          </ns3:TrackPointExtension>
        </extensions>
      </trkpt>
      <trkpt lat="45.36571207456290721893310546875" lon="-70.8045418560504913330078125">
        <ele>475.399993896484375</ele>
        <time>2026-08-21T10:35:22.000Z</time>
        <extensions>
          <ns3:TrackPointExtension>
            <ns3:hr>129</ns3:hr>
            <ns3:cad>53</ns3:cad>
          </ns3:TrackPointExtension>
        </extensions>
      </trkpt>
      <trkpt lat="45.365705452859401702880859375" lon="-70.80454965122044086456298828125">
        <ele>475.600006103515625</ele>
        <time>2026-08-21T10:35:23.000Z</time>
        <extensions>
          <ns3:TrackPointExtension>
            <ns3:hr>129</ns3:hr>
            <ns3:cad>53</ns3:cad>
          </ns3:TrackPointExtension>
        </extensions>
      </trkpt>
      <trkpt lat="45.36569572985172271728515625" lon="-70.8045611344277858734130859375">
        <ele>475.399993896484375</ele>
        <time>2026-08-21T10:35:24.000Z</time>
        <extensions>
          <ns3:TrackPointExtension>
            <ns3:hr>128</ns3:hr>
            <ns3:cad>53</ns3:cad>
          </ns3:TrackPointExtension>
        </extensions>
      </trkpt>
      <trkpt lat="45.3656861744821071624755859375" lon="-70.80458083190023899078369140625">
        <ele>475.399993896484375</ele>
        <time>2026-08-21T10:35:25.000Z</time>
        <extensions>
          <ns3:TrackPointExtension>
            <ns3:hr>128</ns3:hr>
            <ns3:cad>0</ns3:cad>
          </ns3:TrackPointExtension>
        </extensions>
      </trkpt>
      <trkpt lat="45.36567963659763336181640625" lon="-70.8045983500778675079345703125">
        <ele>475.20001220703125</ele>
        <time>2026-08-21T10:35:26.000Z</time>
        <extensions>
          <ns3:TrackPointExtension>
            <ns3:hr>128</ns3:hr>
            <ns3:cad>0</ns3:cad>
          </ns3:TrackPointExtension>
        </extensions>
      </trkpt>
      <trkpt lat="45.36567117087543010711669921875" lon="-70.80461762845516204833984375">
        <ele>475</ele>
        <time>2026-08-21T10:35:27.000Z</time>
        <extensions>
          <ns3:TrackPointExtension>
            <ns3:hr>128</ns3:hr>
            <ns3:cad>0</ns3:cad>
          </ns3:TrackPointExtension>
        </extensions>
      </trkpt>
      <trkpt lat="45.3656616993248462677001953125" lon="-70.804630704224109649658203125">
        <ele>474.79998779296875</ele>
        <time>2026-08-21T10:35:28.000Z</time>
        <extensions>
          <ns3:TrackPointExtension>
            <ns3:hr>127</ns3:hr>
            <ns3:cad>0</ns3:cad>
          </ns3:TrackPointExtension>
        </extensions>
      </trkpt>
      <trkpt lat="45.36565038375556468963623046875" lon="-70.80464486964046955108642578125">
        <ele>474.79998779296875</ele>
        <time>2026-08-21T10:35:29.000Z</time>
        <extensions>
          <ns3:TrackPointExtension>
            <ns3:hr>128</ns3:hr>
            <ns3:cad>0</ns3:cad>
          </ns3:TrackPointExtension>
        </extensions>
      </trkpt>
      <trkpt lat="45.36563982255756855010986328125" lon="-70.80466029234230518341064453125">
        <ele>474.600006103515625</ele>
        <time>2026-08-21T10:35:30.000Z</time>
        <extensions>
          <ns3:TrackPointExtension>
            <ns3:hr>127</ns3:hr>
            <ns3:cad>0</ns3:cad>
          </ns3:TrackPointExtension>
        </extensions>
      </trkpt>
      <trkpt lat="45.3656305186450481414794921875" lon="-70.8046840131282806396484375">
        <ele>474.399993896484375</ele>
        <time>2026-08-21T10:35:31.000Z</time>
        <extensions>
          <ns3:TrackPointExtension>
            <ns3:hr>127</ns3:hr>
            <ns3:cad>0</ns3:cad>
          </ns3:TrackPointExtension>
        </extensions>
      </trkpt>
      <trkpt lat="45.36561786197125911712646484375" lon="-70.8047039620578289031982421875">
        <ele>474.20001220703125</ele>
        <time>2026-08-21T10:35:32.000Z</time>
        <extensions>
          <ns3:TrackPointExtension>
            <ns3:hr>127</ns3:hr>
            <ns3:cad>0</ns3:cad>
          </ns3:TrackPointExtension>
        </extensions>
      </trkpt>
      <trkpt lat="45.36561216227710247039794921875" lon="-70.8047207258641719818115234375">
        <ele>474.20001220703125</ele>
        <time>2026-08-21T10:35:33.000Z</time>
        <extensions>
          <ns3:TrackPointExtension>
            <ns3:hr>127</ns3:hr>
            <ns3:cad>0</ns3:cad>
          </ns3:TrackPointExtension>
        </extensions>
      </trkpt>
      <trkpt lat="45.36560696549713611602783203125" lon="-70.80473874695599079132080078125">
        <ele>474</ele>
        <time>2026-08-21T10:35:34.000Z</time>
        <extensions>
          <ns3:TrackPointExtension>
            <ns3:hr>128</ns3:hr>
            <ns3:cad>0</ns3:cad>
          </ns3:TrackPointExtension>
        </extensions>
      </trkpt>
      <trkpt lat="45.36560176871716976165771484375" lon="-70.80475735478103160858154296875">
        <ele>474</ele>
        <time>2026-08-21T10:35:35.000Z</time>
        <extensions>
          <ns3:TrackPointExtension>
            <ns3:hr>128</ns3:hr>
            <ns3:cad>0</ns3:cad>
          </ns3:TrackPointExtension>
        </extensions>
      </trkpt>
      <trkpt lat="45.36559103988111019134521484375" lon="-70.80477654933929443359375">
        <ele>474</ele>
        <time>2026-08-21T10:35:36.000Z</time>
        <extensions>
          <ns3:TrackPointExtension>
            <ns3:hr>128</ns3:hr>
            <ns3:cad>57</ns3:cad>
          </ns3:TrackPointExtension>
        </extensions>
      </trkpt>
      <trkpt lat="45.36558441817760467529296875" lon="-70.8047968335449695587158203125">
        <ele>474.20001220703125</ele>
        <time>2026-08-21T10:35:37.000Z</time>
        <extensions>
          <ns3:TrackPointExtension>
            <ns3:hr>128</ns3:hr>
            <ns3:cad>57</ns3:cad>
          </ns3:TrackPointExtension>
        </extensions>
      </trkpt>
      <trkpt lat="45.36558198742568492889404296875" lon="-70.804816447198390960693359375">
        <ele>474.20001220703125</ele>
        <time>2026-08-21T10:35:38.000Z</time>
        <extensions>
          <ns3:TrackPointExtension>
            <ns3:hr>128</ns3:hr>
            <ns3:cad>57</ns3:cad>
          </ns3:TrackPointExtension>
        </extensions>
      </trkpt>
      <trkpt lat="45.36558181978762149810791015625" lon="-70.80483891069889068603515625">
        <ele>474.20001220703125</ele>
        <time>2026-08-21T10:35:39.000Z</time>
        <extensions>
          <ns3:TrackPointExtension>
            <ns3:hr>128</ns3:hr>
            <ns3:cad>57</ns3:cad>
          </ns3:TrackPointExtension>
        </extensions>
      </trkpt>
      <trkpt lat="45.36558316089212894439697265625" lon="-70.8048637211322784423828125">
        <ele>474.20001220703125</ele>
        <time>2026-08-21T10:35:40.000Z</time>
        <extensions>
          <ns3:TrackPointExtension>
            <ns3:hr>128</ns3:hr>
            <ns3:cad>57</ns3:cad>
          </ns3:TrackPointExtension>
        </extensions>
      </trkpt>
      <trkpt lat="45.36558173596858978271484375" lon="-70.804886855185031890869140625">
        <ele>474.20001220703125</ele>
        <time>2026-08-21T10:35:41.000Z</time>
        <extensions>
          <ns3:TrackPointExtension>
            <ns3:hr>127</ns3:hr>
            <ns3:cad>56</ns3:cad>
          </ns3:TrackPointExtension>
        </extensions>
      </trkpt>
      <trkpt lat="45.36557779647409915924072265625" lon="-70.80491275526583194732666015625">
        <ele>474.20001220703125</ele>
        <time>2026-08-21T10:35:42.000Z</time>
        <extensions>
          <ns3:TrackPointExtension>
            <ns3:hr>127</ns3:hr>
            <ns3:cad>56</ns3:cad>
          </ns3:TrackPointExtension>
        </extensions>
      </trkpt>
      <trkpt lat="45.36557612009346485137939453125" lon="-70.8049399964511394500732421875">
        <ele>474</ele>
        <time>2026-08-21T10:35:43.000Z</time>
        <extensions>
          <ns3:TrackPointExtension>
            <ns3:hr>127</ns3:hr>
            <ns3:cad>56</ns3:cad>
          </ns3:TrackPointExtension>
        </extensions>
      </trkpt>
      <trkpt lat="45.3655741922557353973388671875" lon="-70.804959945380687713623046875">
        <ele>474</ele>
        <time>2026-08-21T10:35:44.000Z</time>
        <extensions>
          <ns3:TrackPointExtension>
            <ns3:hr>127</ns3:hr>
            <ns3:cad>56</ns3:cad>
          </ns3:TrackPointExtension>
        </extensions>
      </trkpt>
      <trkpt lat="45.365570671856403350830078125" lon="-70.80498400144279003143310546875">
        <ele>474</ele>
        <time>2026-08-21T10:35:45.000Z</time>
        <extensions>
          <ns3:TrackPointExtension>
            <ns3:hr>127</ns3:hr>
            <ns3:cad>56</ns3:cad>
          </ns3:TrackPointExtension>
        </extensions>
      </trkpt>
      <trkpt lat="45.36557293497025966644287109375" lon="-70.80500965006649494171142578125">
        <ele>474</ele>
        <time>2026-08-21T10:35:46.000Z</time>
        <extensions>
          <ns3:TrackPointExtension>
            <ns3:hr>127</ns3:hr>
            <ns3:cad>56</ns3:cad>
          </ns3:TrackPointExtension>
        </extensions>
      </trkpt>
      <trkpt lat="45.365580730140209197998046875" lon="-70.80503412522375583648681640625">
        <ele>473.79998779296875</ele>
        <time>2026-08-21T10:35:47.000Z</time>
        <extensions>
          <ns3:TrackPointExtension>
            <ns3:hr>127</ns3:hr>
            <ns3:cad>56</ns3:cad>
          </ns3:TrackPointExtension>
        </extensions>
      </trkpt>
      <trkpt lat="45.36558718420565128326416015625" lon="-70.80505491234362125396728515625">
        <ele>473.79998779296875</ele>
        <time>2026-08-21T10:35:48.000Z</time>
        <extensions>
          <ns3:TrackPointExtension>
            <ns3:hr>128</ns3:hr>
            <ns3:cad>56</ns3:cad>
          </ns3:TrackPointExtension>
        </extensions>
      </trkpt>
      <trkpt lat="45.36559246480464935302734375" lon="-70.80507972277700901031494140625">
        <ele>473.79998779296875</ele>
        <time>2026-08-21T10:35:49.000Z</time>
        <extensions>
          <ns3:TrackPointExtension>
            <ns3:hr>127</ns3:hr>
            <ns3:cad>56</ns3:cad>
          </ns3:TrackPointExtension>
        </extensions>
      </trkpt>
      <trkpt lat="45.3655986674129962921142578125" lon="-70.80509640276432037353515625">
        <ele>473.79998779296875</ele>
        <time>2026-08-21T10:35:50.000Z</time>
        <extensions>
          <ns3:TrackPointExtension>
            <ns3:hr>127</ns3:hr>
            <ns3:cad>56</ns3:cad>
          </ns3:TrackPointExtension>
        </extensions>
      </trkpt>
      <trkpt lat="45.36560813896358013153076171875" lon="-70.80511660315096378326416015625">
        <ele>473.79998779296875</ele>
        <time>2026-08-21T10:35:51.000Z</time>
        <extensions>
          <ns3:TrackPointExtension>
            <ns3:hr>126</ns3:hr>
            <ns3:cad>56</ns3:cad>
          </ns3:TrackPointExtension>
        </extensions>
      </trkpt>
      <trkpt lat="45.36561232991516590118408203125" lon="-70.80513102002441883087158203125">
        <ele>473.79998779296875</ele>
        <time>2026-08-21T10:35:52.000Z</time>
        <extensions>
          <ns3:TrackPointExtension>
            <ns3:hr>126</ns3:hr>
            <ns3:cad>56</ns3:cad>
          </ns3:TrackPointExtension>
        </extensions>
      </trkpt>
      <trkpt lat="45.36561719141900539398193359375" lon="-70.8051438443362712860107421875">
        <ele>473.79998779296875</ele>
        <time>2026-08-21T10:35:53.000Z</time>
        <extensions>
          <ns3:TrackPointExtension>
            <ns3:hr>125</ns3:hr>
            <ns3:cad>56</ns3:cad>
          </ns3:TrackPointExtension>
        </extensions>
      </trkpt>
      <trkpt lat="45.3656207956373691558837890625" lon="-70.80516840331256389617919921875">
        <ele>474</ele>
        <time>2026-08-21T10:35:54.000Z</time>
        <extensions>
          <ns3:TrackPointExtension>
            <ns3:hr>124</ns3:hr>
            <ns3:cad>56</ns3:cad>
          </ns3:TrackPointExtension>
        </extensions>
      </trkpt>
      <trkpt lat="45.36562456749379634857177734375" lon="-70.80519002862274646759033203125">
        <ele>474</ele>
        <time>2026-08-21T10:35:55.000Z</time>
        <extensions>
          <ns3:TrackPointExtension>
            <ns3:hr>124</ns3:hr>
            <ns3:cad>56</ns3:cad>
          </ns3:TrackPointExtension>
        </extensions>
      </trkpt>
      <trkpt lat="45.36562054418027400970458984375" lon="-70.805199332535266876220703125">
        <ele>474.399993896484375</ele>
        <time>2026-08-21T10:35:56.000Z</time>
        <extensions>
          <ns3:TrackPointExtension>
            <ns3:hr>124</ns3:hr>
            <ns3:cad>56</ns3:cad>
          </ns3:TrackPointExtension>
        </extensions>
      </trkpt>
      <trkpt lat="45.36561853252351284027099609375" lon="-70.80520897172391414642333984375">
        <ele>474.600006103515625</ele>
        <time>2026-08-21T10:35:57.000Z</time>
        <extensions>
          <ns3:TrackPointExtension>
            <ns3:hr>124</ns3:hr>
            <ns3:cad>56</ns3:cad>
          </ns3:TrackPointExtension>
        </extensions>
      </trkpt>
      <trkpt lat="45.36561568267643451690673828125" lon="-70.8052249811589717864990234375">
        <ele>474.79998779296875</ele>
        <time>2026-08-21T10:35:58.000Z</time>
        <extensions>
          <ns3:TrackPointExtension>
            <ns3:hr>124</ns3:hr>
            <ns3:cad>56</ns3:cad>
          </ns3:TrackPointExtension>
        </extensions>
      </trkpt>
      <trkpt lat="45.36561149172484874725341796875" lon="-70.8052407391369342803955078125">
        <ele>475</ele>
        <time>2026-08-21T10:35:59.000Z</time>
        <extensions>
          <ns3:TrackPointExtension>
            <ns3:hr>123</ns3:hr>
            <ns3:cad>56</ns3:cad>
          </ns3:TrackPointExtension>
        </extensions>
      </trkpt>
      <trkpt lat="45.3656114079058170318603515625" lon="-70.80525674857199192047119140625">
        <ele>475</ele>
        <time>2026-08-21T10:36:00.000Z</time>
        <extensions>
          <ns3:TrackPointExtension>
            <ns3:hr>123</ns3:hr>
            <ns3:cad>47</ns3:cad>
          </ns3:TrackPointExtension>
        </extensions>
      </trkpt>
      <trkpt lat="45.36561333574354648590087890625" lon="-70.80527083016932010650634765625">
        <ele>475.20001220703125</ele>
        <time>2026-08-21T10:36:01.000Z</time>
        <extensions>
          <ns3:TrackPointExtension>
            <ns3:hr>123</ns3:hr>
            <ns3:cad>47</ns3:cad>
          </ns3:TrackPointExtension>
        </extensions>
      </trkpt>
      <trkpt lat="45.365614928305149078369140625" lon="-70.80528927035629749298095703125">
        <ele>475.399993896484375</ele>
        <time>2026-08-21T10:36:02.000Z</time>
        <extensions>
          <ns3:TrackPointExtension>
            <ns3:hr>123</ns3:hr>
            <ns3:cad>47</ns3:cad>
          </ns3:TrackPointExtension>
        </extensions>
      </trkpt>
      <trkpt lat="45.36561635322868824005126953125" lon="-70.80530486069619655609130859375">
        <ele>475.399993896484375</ele>
        <time>2026-08-21T10:36:03.000Z</time>
        <extensions>
          <ns3:TrackPointExtension>
            <ns3:hr>122</ns3:hr>
            <ns3:cad>54</ns3:cad>
          </ns3:TrackPointExtension>
        </extensions>
      </trkpt>
      <trkpt lat="45.365617610514163970947265625" lon="-70.8053181879222393035888671875">
        <ele>475.600006103515625</ele>
        <time>2026-08-21T10:36:04.000Z</time>
        <extensions>
          <ns3:TrackPointExtension>
            <ns3:hr>121</ns3:hr>
            <ns3:cad>54</ns3:cad>
          </ns3:TrackPointExtension>
        </extensions>
      </trkpt>
      <trkpt lat="45.3656171075999736785888671875" lon="-70.80533604137599468231201171875">
        <ele>475.600006103515625</ele>
        <time>2026-08-21T10:36:05.000Z</time>
        <extensions>
          <ns3:TrackPointExtension>
            <ns3:hr>121</ns3:hr>
            <ns3:cad>54</ns3:cad>
          </ns3:TrackPointExtension>
        </extensions>
      </trkpt>
      <trkpt lat="45.36562138237059116363525390625" lon="-70.8053637854754924774169921875">
        <ele>475.600006103515625</ele>
        <time>2026-08-21T10:36:06.000Z</time>
        <extensions>
          <ns3:TrackPointExtension>
            <ns3:hr>120</ns3:hr>
            <ns3:cad>54</ns3:cad>
          </ns3:TrackPointExtension>
        </extensions>
      </trkpt>
      <trkpt lat="45.3656224720180034637451171875" lon="-70.80538197420537471771240234375">
        <ele>475.600006103515625</ele>
        <time>2026-08-21T10:36:07.000Z</time>
        <extensions>
          <ns3:TrackPointExtension>
            <ns3:hr>120</ns3:hr>
            <ns3:cad>54</ns3:cad>
          </ns3:TrackPointExtension>
        </extensions>
      </trkpt>
      <trkpt lat="45.36561937071382999420166015625" lon="-70.80539756454527378082275390625">
        <ele>475.600006103515625</ele>
        <time>2026-08-21T10:36:08.000Z</time>
        <extensions>
          <ns3:TrackPointExtension>
            <ns3:hr>120</ns3:hr>
            <ns3:cad>54</ns3:cad>
          </ns3:TrackPointExtension>
        </extensions>
      </trkpt>
      <trkpt lat="45.3656078875064849853515625" lon="-70.80540779046714305877685546875">
        <ele>475.600006103515625</ele>
        <time>2026-08-21T10:36:09.000Z</time>
        <extensions>
          <ns3:TrackPointExtension>
            <ns3:hr>119</ns3:hr>
            <ns3:cad>54</ns3:cad>
          </ns3:TrackPointExtension>
        </extensions>
      </trkpt>
      <trkpt lat="45.36560260690748691558837890625" lon="-70.805416591465473175048828125">
        <ele>475.600006103515625</ele>
        <time>2026-08-21T10:36:10.000Z</time>
        <extensions>
          <ns3:TrackPointExtension>
            <ns3:hr>119</ns3:hr>
            <ns3:cad>54</ns3:cad>
          </ns3:TrackPointExtension>
        </extensions>
      </trkpt>
      <trkpt lat="45.36559456028044223785400390625" lon="-70.80543159507215023040771484375">
        <ele>475.79998779296875</ele>
        <time>2026-08-21T10:36:11.000Z</time>
        <extensions>
          <ns3:TrackPointExtension>
            <ns3:hr>119</ns3:hr>
            <ns3:cad>54</ns3:cad>
          </ns3:TrackPointExtension>
        </extensions>
      </trkpt>
      <trkpt lat="45.3655891120433807373046875" lon="-70.805449783802032470703125">
        <ele>476</ele>
        <time>2026-08-21T10:36:12.000Z</time>
        <extensions>
          <ns3:TrackPointExtension>
            <ns3:hr>119</ns3:hr>
            <ns3:cad>54</ns3:cad>
          </ns3:TrackPointExtension>
        </extensions>
      </trkpt>
      <trkpt lat="45.36558232270181179046630859375" lon="-70.80546520650386810302734375">
        <ele>476.20001220703125</ele>
        <time>2026-08-21T10:36:13.000Z</time>
        <extensions>
          <ns3:TrackPointExtension>
            <ns3:hr>119</ns3:hr>
            <ns3:cad>54</ns3:cad>
          </ns3:TrackPointExtension>
        </extensions>
      </trkpt>
      <trkpt lat="45.36557645536959171295166015625" lon="-70.8054807968437671661376953125">
        <ele>476.399993896484375</ele>
        <time>2026-08-21T10:36:14.000Z</time>
        <extensions>
          <ns3:TrackPointExtension>
            <ns3:hr>119</ns3:hr>
            <ns3:cad>51</ns3:cad>
          </ns3:TrackPointExtension>
        </extensions>
      </trkpt>
      <trkpt lat="45.36556572653353214263916015625" lon="-70.80549999140202999114990234375">
        <ele>476.600006103515625</ele>
        <time>2026-08-21T10:36:15.000Z</time>
        <extensions>
          <ns3:TrackPointExtension>
            <ns3:hr>119</ns3:hr>
            <ns3:cad>51</ns3:cad>
          </ns3:TrackPointExtension>
        </extensions>
      </trkpt>
      <trkpt lat="45.36555935628712177276611328125" lon="-70.8055160008370876312255859375">
        <ele>476.600006103515625</ele>
        <time>2026-08-21T10:36:16.000Z</time>
        <extensions>
          <ns3:TrackPointExtension>
            <ns3:hr>120</ns3:hr>
            <ns3:cad>50</ns3:cad>
          </ns3:TrackPointExtension>
        </extensions>
      </trkpt>
      <trkpt lat="45.36554778926074504852294921875" lon="-70.8055233769118785858154296875">
        <ele>476.600006103515625</ele>
        <time>2026-08-21T10:36:17.000Z</time>
        <extensions>
          <ns3:TrackPointExtension>
            <ns3:hr>119</ns3:hr>
            <ns3:cad>50</ns3:cad>
          </ns3:TrackPointExtension>
        </extensions>
      </trkpt>
      <trkpt lat="45.36553957499563694000244140625" lon="-70.805530250072479248046875">
        <ele>476.600006103515625</ele>
        <time>2026-08-21T10:36:18.000Z</time>
        <extensions>
          <ns3:TrackPointExtension>
            <ns3:hr>119</ns3:hr>
            <ns3:cad>50</ns3:cad>
          </ns3:TrackPointExtension>
        </extensions>
      </trkpt>
      <trkpt lat="45.3655326180160045623779296875" lon="-70.80553871579468250274658203125">
        <ele>476.600006103515625</ele>
        <time>2026-08-21T10:36:19.000Z</time>
        <extensions>
          <ns3:TrackPointExtension>
            <ns3:hr>119</ns3:hr>
            <ns3:cad>51</ns3:cad>
          </ns3:TrackPointExtension>
        </extensions>
      </trkpt>
      <trkpt lat="45.365532450377941131591796875" lon="-70.80554709769785404205322265625">
        <ele>476.399993896484375</ele>
        <time>2026-08-21T10:36:20.000Z</time>
        <extensions>
          <ns3:TrackPointExtension>
            <ns3:hr>119</ns3:hr>
            <ns3:cad>51</ns3:cad>
          </ns3:TrackPointExtension>
        </extensions>
      </trkpt>
      <trkpt lat="45.36553052254021167755126953125" lon="-70.80555933527648448944091796875">
        <ele>476.20001220703125</ele>
        <time>2026-08-21T10:36:21.000Z</time>
        <extensions>
          <ns3:TrackPointExtension>
            <ns3:hr>120</ns3:hr>
            <ns3:cad>51</ns3:cad>
          </ns3:TrackPointExtension>
        </extensions>
      </trkpt>
      <trkpt lat="45.3655245713889598846435546875" lon="-70.805572159588336944580078125">
        <ele>475.79998779296875</ele>
        <time>2026-08-21T10:36:22.000Z</time>
        <extensions>
          <ns3:TrackPointExtension>
            <ns3:hr>120</ns3:hr>
            <ns3:cad>51</ns3:cad>
          </ns3:TrackPointExtension>
        </extensions>
      </trkpt>
      <trkpt lat="45.3655195422470569610595703125" lon="-70.8055917732417583465576171875">
        <ele>475.600006103515625</ele>
        <time>2026-08-21T10:36:23.000Z</time>
        <extensions>
          <ns3:TrackPointExtension>
            <ns3:hr>120</ns3:hr>
            <ns3:cad>51</ns3:cad>
          </ns3:TrackPointExtension>
        </extensions>
      </trkpt>
      <trkpt lat="45.365516357123851776123046875" lon="-70.805617086589336395263671875">
        <ele>475.20001220703125</ele>
        <time>2026-08-21T10:36:24.000Z</time>
        <extensions>
          <ns3:TrackPointExtension>
            <ns3:hr>120</ns3:hr>
            <ns3:cad>51</ns3:cad>
          </ns3:TrackPointExtension>
        </extensions>
      </trkpt>
      <trkpt lat="45.36552616395056247711181640625" lon="-70.80563661642372608184814453125">
        <ele>474.79998779296875</ele>
        <time>2026-08-21T10:36:25.000Z</time>
        <extensions>
          <ns3:TrackPointExtension>
            <ns3:hr>120</ns3:hr>
            <ns3:cad>51</ns3:cad>
          </ns3:TrackPointExtension>
        </extensions>
      </trkpt>
      <trkpt lat="45.3655326180160045623779296875" lon="-70.80564131028950214385986328125">
        <ele>474.399993896484375</ele>
        <time>2026-08-21T10:36:26.000Z</time>
        <extensions>
          <ns3:TrackPointExtension>
            <ns3:hr>120</ns3:hr>
            <ns3:cad>51</ns3:cad>
          </ns3:TrackPointExtension>
        </extensions>
      </trkpt>
      <trkpt lat="45.3655446879565715789794921875" lon="-70.80565757118165493011474609375">
        <ele>474</ele>
        <time>2026-08-21T10:36:27.000Z</time>
        <extensions>
          <ns3:TrackPointExtension>
            <ns3:hr>120</ns3:hr>
            <ns3:cad>51</ns3:cad>
          </ns3:TrackPointExtension>
        </extensions>
      </trkpt>
      <trkpt lat="45.36555198021233081817626953125" lon="-70.805678777396678924560546875">
        <ele>473.79998779296875</ele>
        <time>2026-08-21T10:36:28.000Z</time>
        <extensions>
          <ns3:TrackPointExtension>
            <ns3:hr>120</ns3:hr>
            <ns3:cad>51</ns3:cad>
          </ns3:TrackPointExtension>
        </extensions>
      </trkpt>
      <trkpt lat="45.36556203849613666534423828125" lon="-70.80568891949951648712158203125">
        <ele>473.399993896484375</ele>
        <time>2026-08-21T10:36:29.000Z</time>
        <extensions>
          <ns3:TrackPointExtension>
            <ns3:hr>119</ns3:hr>
            <ns3:cad>51</ns3:cad>
          </ns3:TrackPointExtension>
        </extensions>
      </trkpt>
      <trkpt lat="45.36557058803737163543701171875" lon="-70.805698893964290618896484375">
        <ele>473.20001220703125</ele>
        <time>2026-08-21T10:36:30.000Z</time>
        <extensions>
          <ns3:TrackPointExtension>
            <ns3:hr>119</ns3:hr>
            <ns3:cad>51</ns3:cad>
          </ns3:TrackPointExtension>
        </extensions>
      </trkpt>
      <trkpt lat="45.36558215506374835968017578125" lon="-70.80571104772388935089111328125">
        <ele>473</ele>
        <time>2026-08-21T10:36:31.000Z</time>
        <extensions>
          <ns3:TrackPointExtension>
            <ns3:hr>120</ns3:hr>
            <ns3:cad>51</ns3:cad>
          </ns3:TrackPointExtension>
        </extensions>
      </trkpt>
      <trkpt lat="45.36559204570949077606201171875" lon="-70.80572764389216899871826171875">
        <ele>472.600006103515625</ele>
        <time>2026-08-21T10:36:32.000Z</time>
        <extensions>
          <ns3:TrackPointExtension>
            <ns3:hr>120</ns3:hr>
            <ns3:cad>51</ns3:cad>
          </ns3:TrackPointExtension>
        </extensions>
      </trkpt>
      <trkpt lat="45.36560176871716976165771484375" lon="-70.80574541352689266204833984375">
        <ele>472.20001220703125</ele>
        <time>2026-08-21T10:36:33.000Z</time>
        <extensions>
          <ns3:TrackPointExtension>
            <ns3:hr>121</ns3:hr>
            <ns3:cad>51</ns3:cad>
          </ns3:TrackPointExtension>
        </extensions>
      </trkpt>
      <trkpt lat="45.365614257752895355224609375" lon="-70.80575614236295223236083984375">
        <ele>471.79998779296875</ele>
        <time>2026-08-21T10:36:34.000Z</time>
        <extensions>
          <ns3:TrackPointExtension>
            <ns3:hr>121</ns3:hr>
            <ns3:cad>51</ns3:cad>
          </ns3:TrackPointExtension>
        </extensions>
      </trkpt>
      <trkpt lat="45.3656261600553989410400390625" lon="-70.80576485954225063323974609375">
        <ele>471.20001220703125</ele>
        <time>2026-08-21T10:36:35.000Z</time>
        <extensions>
          <ns3:TrackPointExtension>
            <ns3:hr>122</ns3:hr>
            <ns3:cad>51</ns3:cad>
          </ns3:TrackPointExtension>
        </extensions>
      </trkpt>
      <trkpt lat="45.36563848145306110382080078125" lon="-70.80577022396028041839599609375">
        <ele>471</ele>
        <time>2026-08-21T10:36:36.000Z</time>
        <extensions>
          <ns3:TrackPointExtension>
            <ns3:hr>123</ns3:hr>
            <ns3:cad>51</ns3:cad>
          </ns3:TrackPointExtension>
        </extensions>
      </trkpt>
      <trkpt lat="45.3656479530036449432373046875" lon="-70.8057751692831516265869140625">
        <ele>470.600006103515625</ele>
        <time>2026-08-21T10:36:37.000Z</time>
        <extensions>
          <ns3:TrackPointExtension>
            <ns3:hr>124</ns3:hr>
            <ns3:cad>51</ns3:cad>
          </ns3:TrackPointExtension>
        </extensions>
      </trkpt>
      <trkpt lat="45.36564770154654979705810546875" lon="-70.80577927641570568084716796875">
        <ele>470.600006103515625</ele>
        <time>2026-08-21T10:36:38.000Z</time>
        <extensions>
          <ns3:TrackPointExtension>
            <ns3:hr>125</ns3:hr>
            <ns3:cad>51</ns3:cad>
          </ns3:TrackPointExtension>
        </extensions>
      </trkpt>
      <trkpt lat="45.36565683782100677490234375" lon="-70.8057838864624500274658203125">
        <ele>470.399993896484375</ele>
        <time>2026-08-21T10:36:39.000Z</time>
        <extensions>
          <ns3:TrackPointExtension>
            <ns3:hr>125</ns3:hr>
            <ns3:cad>51</ns3:cad>
          </ns3:TrackPointExtension>
        </extensions>
      </trkpt>
      <trkpt lat="45.36567217670381069183349609375" lon="-70.80579302273690700531005859375">
        <ele>470.399993896484375</ele>
        <time>2026-08-21T10:36:40.000Z</time>
        <extensions>
          <ns3:TrackPointExtension>
            <ns3:hr>125</ns3:hr>
            <ns3:cad>51</ns3:cad>
          </ns3:TrackPointExtension>
        </extensions>
      </trkpt>
      <trkpt lat="45.3656881861388683319091796875" lon="-70.80580526031553745269775390625">
        <ele>470.20001220703125</ele>
        <time>2026-08-21T10:36:41.000Z</time>
        <extensions>
          <ns3:TrackPointExtension>
            <ns3:hr>125</ns3:hr>
            <ns3:cad>51</ns3:cad>
          </ns3:TrackPointExtension>
        </extensions>
      </trkpt>
      <trkpt lat="45.36570637486875057220458984375" lon="-70.80581615678966045379638671875">
        <ele>470</ele>
        <time>2026-08-21T10:36:42.000Z</time>
        <extensions>
          <ns3:TrackPointExtension>
            <ns3:hr>125</ns3:hr>
            <ns3:cad>51</ns3:cad>
          </ns3:TrackPointExtension>
        </extensions>
      </trkpt>
      <trkpt lat="45.3657205402851104736328125" lon="-70.80582328140735626220703125">
        <ele>469.79998779296875</ele>
        <time>2026-08-21T10:36:43.000Z</time>
        <extensions>
          <ns3:TrackPointExtension>
            <ns3:hr>125</ns3:hr>
            <ns3:cad>51</ns3:cad>
          </ns3:TrackPointExtension>
        </extensions>
      </trkpt>
      <trkpt lat="45.3657331131398677825927734375" lon="-70.80583191476762294769287109375">
        <ele>469.399993896484375</ele>
        <time>2026-08-21T10:36:44.000Z</time>
        <extensions>
          <ns3:TrackPointExtension>
            <ns3:hr>123</ns3:hr>
            <ns3:cad>0</ns3:cad>
          </ns3:TrackPointExtension>
        </extensions>
      </trkpt>
      <trkpt lat="45.36574744619429111480712890625" lon="-70.8058402128517627716064453125">
        <ele>469.20001220703125</ele>
        <time>2026-08-21T10:36:45.000Z</time>
        <extensions>
          <ns3:TrackPointExtension>
            <ns3:hr>122</ns3:hr>
            <ns3:cad>0</ns3:cad>
          </ns3:TrackPointExtension>
        </extensions>
      </trkpt>
      <trkpt lat="45.365765132009983062744140625" lon="-70.80584398470818996429443359375">
        <ele>469</ele>
        <time>2026-08-21T10:36:46.000Z</time>
        <extensions>
          <ns3:TrackPointExtension>
            <ns3:hr>121</ns3:hr>
            <ns3:cad>0</ns3:cad>
          </ns3:TrackPointExtension>
        </extensions>
      </trkpt>
      <trkpt lat="45.3657795488834381103515625" lon="-70.80585144460201263427734375">
        <ele>469</ele>
        <time>2026-08-21T10:36:47.000Z</time>
        <extensions>
          <ns3:TrackPointExtension>
            <ns3:hr>120</ns3:hr>
            <ns3:cad>0</ns3:cad>
          </ns3:TrackPointExtension>
        </extensions>
      </trkpt>
      <trkpt lat="45.365790612995624542236328125" lon="-70.805865190923213958740234375">
        <ele>469</ele>
        <time>2026-08-21T10:36:48.000Z</time>
        <extensions>
          <ns3:TrackPointExtension>
            <ns3:hr>120</ns3:hr>
            <ns3:cad>0</ns3:cad>
          </ns3:TrackPointExtension>
        </extensions>
      </trkpt>
      <trkpt lat="45.36580109037458896636962890625" lon="-70.80588421784341335296630859375">
        <ele>469.20001220703125</ele>
        <time>2026-08-21T10:36:49.000Z</time>
        <extensions>
          <ns3:TrackPointExtension>
            <ns3:hr>119</ns3:hr>
            <ns3:cad>0</ns3:cad>
          </ns3:TrackPointExtension>
        </extensions>
      </trkpt>
      <trkpt lat="45.36581349559128284454345703125" lon="-70.80589645542204380035400390625">
        <ele>469.20001220703125</ele>
        <time>2026-08-21T10:36:50.000Z</time>
        <extensions>
          <ns3:TrackPointExtension>
            <ns3:hr>118</ns3:hr>
            <ns3:cad>0</ns3:cad>
          </ns3:TrackPointExtension>
        </extensions>
      </trkpt>
      <trkpt lat="45.3658246435225009918212890625" lon="-70.80590508878231048583984375">
        <ele>469.20001220703125</ele>
        <time>2026-08-21T10:36:51.000Z</time>
        <extensions>
          <ns3:TrackPointExtension>
            <ns3:hr>118</ns3:hr>
            <ns3:cad>0</ns3:cad>
          </ns3:TrackPointExtension>
        </extensions>
      </trkpt>
      <trkpt lat="45.36583679728209972381591796875" lon="-70.80591774545609951019287109375">
        <ele>469.20001220703125</ele>
        <time>2026-08-21T10:36:52.000Z</time>
        <extensions>
          <ns3:TrackPointExtension>
            <ns3:hr>117</ns3:hr>
            <ns3:cad>0</ns3:cad>
          </ns3:TrackPointExtension>
        </extensions>
      </trkpt>
      <trkpt lat="45.3658450953662395477294921875" lon="-70.80592629499733448028564453125">
        <ele>469.20001220703125</ele>
        <time>2026-08-21T10:36:53.000Z</time>
        <extensions>
          <ns3:TrackPointExtension>
            <ns3:hr>117</ns3:hr>
            <ns3:cad>0</ns3:cad>
          </ns3:TrackPointExtension>
        </extensions>
      </trkpt>
      <trkpt lat="45.36585439927875995635986328125" lon="-70.8059337548911571502685546875">
        <ele>469.20001220703125</ele>
        <time>2026-08-21T10:36:54.000Z</time>
        <extensions>
          <ns3:TrackPointExtension>
            <ns3:hr>116</ns3:hr>
            <ns3:cad>0</ns3:cad>
          </ns3:TrackPointExtension>
        </extensions>
      </trkpt>
      <trkpt lat="45.3658692352473735809326171875" lon="-70.80594155006110668182373046875">
        <ele>469.20001220703125</ele>
        <time>2026-08-21T10:36:55.000Z</time>
        <extensions>
          <ns3:TrackPointExtension>
            <ns3:hr>116</ns3:hr>
            <ns3:cad>0</ns3:cad>
          </ns3:TrackPointExtension>
        </extensions>
      </trkpt>
      <trkpt lat="45.36588524468243122100830078125" lon="-70.80595311708748340606689453125">
        <ele>469</ele>
        <time>2026-08-21T10:36:56.000Z</time>
        <extensions>
          <ns3:TrackPointExtension>
            <ns3:hr>116</ns3:hr>
            <ns3:cad>0</ns3:cad>
          </ns3:TrackPointExtension>
        </extensions>
      </trkpt>
      <trkpt lat="45.3658922016620635986328125" lon="-70.8059602417051792144775390625">
        <ele>469</ele>
        <time>2026-08-21T10:36:57.000Z</time>
        <extensions>
          <ns3:TrackPointExtension>
            <ns3:hr>115</ns3:hr>
            <ns3:cad>0</ns3:cad>
          </ns3:TrackPointExtension>
        </extensions>
      </trkpt>
      <trkpt lat="45.3659051097929477691650390625" lon="-70.80596367828547954559326171875">
        <ele>469</ele>
        <time>2026-08-21T10:36:58.000Z</time>
        <extensions>
          <ns3:TrackPointExtension>
            <ns3:hr>115</ns3:hr>
            <ns3:cad>0</ns3:cad>
          </ns3:TrackPointExtension>
        </extensions>
      </trkpt>
      <trkpt lat="45.3659178502857685089111328125" lon="-70.80596853978931903839111328125">
        <ele>469</ele>
        <time>2026-08-21T10:36:59.000Z</time>
        <extensions>
          <ns3:TrackPointExtension>
            <ns3:hr>114</ns3:hr>
            <ns3:cad>49</ns3:cad>
          </ns3:TrackPointExtension>
        </extensions>
      </trkpt>
      <trkpt lat="45.36592371761798858642578125" lon="-70.80597122199833393096923828125">
        <ele>469</ele>
        <time>2026-08-21T10:37:00.000Z</time>
        <extensions>
          <ns3:TrackPointExtension>
            <ns3:hr>113</ns3:hr>
            <ns3:cad>49</ns3:cad>
          </ns3:TrackPointExtension>
        </extensions>
      </trkpt>
      <trkpt lat="45.3659372963011264801025390625" lon="-70.8059741556644439697265625">
        <ele>469</ele>
        <time>2026-08-21T10:37:01.000Z</time>
        <extensions>
          <ns3:TrackPointExtension>
            <ns3:hr>112</ns3:hr>
            <ns3:cad>49</ns3:cad>
          </ns3:TrackPointExtension>
        </extensions>
      </trkpt>
      <trkpt lat="45.3659480251371860504150390625" lon="-70.80597809515893459320068359375">
        <ele>469</ele>
        <time>2026-08-21T10:37:02.000Z</time>
        <extensions>
          <ns3:TrackPointExtension>
            <ns3:hr>112</ns3:hr>
            <ns3:cad>49</ns3:cad>
          </ns3:TrackPointExtension>
        </extensions>
      </trkpt>
      <trkpt lat="45.3659597598016262054443359375" lon="-70.80598195083439350128173828125">
        <ele>469</ele>
        <time>2026-08-21T10:37:03.000Z</time>
        <extensions>
          <ns3:TrackPointExtension>
            <ns3:hr>112</ns3:hr>
            <ns3:cad>52</ns3:cad>
          </ns3:TrackPointExtension>
        </extensions>
      </trkpt>
      <trkpt lat="45.36596839316189289093017578125" lon="-70.80598563887178897857666015625">
        <ele>469.20001220703125</ele>
        <time>2026-08-21T10:37:04.000Z</time>
        <extensions>
          <ns3:TrackPointExtension>
            <ns3:hr>111</ns3:hr>
            <ns3:cad>0</ns3:cad>
          </ns3:TrackPointExtension>
        </extensions>
      </trkpt>
      <trkpt lat="45.36597543396055698394775390625" lon="-70.80599452368915081024169921875">
        <ele>469.20001220703125</ele>
        <time>2026-08-21T10:37:05.000Z</time>
        <extensions>
          <ns3:TrackPointExtension>
            <ns3:hr>110</ns3:hr>
            <ns3:cad>0</ns3:cad>
          </ns3:TrackPointExtension>
        </extensions>
      </trkpt>
      <trkpt lat="45.36598348058760166168212890625" lon="-70.8059984631836414337158203125">
        <ele>469.20001220703125</ele>
        <time>2026-08-21T10:37:06.000Z</time>
        <extensions>
          <ns3:TrackPointExtension>
            <ns3:hr>110</ns3:hr>
            <ns3:cad>0</ns3:cad>
          </ns3:TrackPointExtension>
        </extensions>
      </trkpt>
      <trkpt lat="45.36598549224436283111572265625" lon="-70.80600994639098644256591796875">
        <ele>469.399993896484375</ele>
        <time>2026-08-21T10:37:07.000Z</time>
        <extensions>
          <ns3:TrackPointExtension>
            <ns3:hr>110</ns3:hr>
            <ns3:cad>0</ns3:cad>
          </ns3:TrackPointExtension>
        </extensions>
      </trkpt>
      <trkpt lat="45.3659860789775848388671875" lon="-70.80601782537996768951416015625">
        <ele>469.600006103515625</ele>
        <time>2026-08-21T10:37:08.000Z</time>
        <extensions>
          <ns3:TrackPointExtension>
            <ns3:hr>109</ns3:hr>
            <ns3:cad>51</ns3:cad>
          </ns3:TrackPointExtension>
        </extensions>
      </trkpt>
      <trkpt lat="45.36599052138626575469970703125" lon="-70.806025452911853790283203125">
        <ele>469.600006103515625</ele>
        <time>2026-08-21T10:37:09.000Z</time>
        <extensions>
          <ns3:TrackPointExtension>
            <ns3:hr>109</ns3:hr>
            <ns3:cad>51</ns3:cad>
          </ns3:TrackPointExtension>
        </extensions>
      </trkpt>
      <trkpt lat="45.36599437706172466278076171875" lon="-70.80603073351085186004638671875">
        <ele>469.79998779296875</ele>
        <time>2026-08-21T10:37:10.000Z</time>
        <extensions>
          <ns3:TrackPointExtension>
            <ns3:hr>110</ns3:hr>
            <ns3:cad>51</ns3:cad>
          </ns3:TrackPointExtension>
        </extensions>
      </trkpt>
      <trkpt lat="45.36599538289010524749755859375" lon="-70.80603576265275478363037109375">
        <ele>469.79998779296875</ele>
        <time>2026-08-21T10:37:11.000Z</time>
        <extensions>
          <ns3:TrackPointExtension>
            <ns3:hr>110</ns3:hr>
            <ns3:cad>0</ns3:cad>
          </ns3:TrackPointExtension>
        </extensions>
      </trkpt>
      <trkpt lat="45.36599135957658290863037109375" lon="-70.80603727139532566070556640625">
        <ele>469.79998779296875</ele>
        <time>2026-08-21T10:37:12.000Z</time>
        <extensions>
          <ns3:TrackPointExtension>
            <ns3:hr>110</ns3:hr>
            <ns3:cad>0</ns3:cad>
          </ns3:TrackPointExtension>
        </extensions>
      </trkpt>
      <trkpt lat="45.3659914433956146240234375" lon="-70.80604146234691143035888671875">
        <ele>469.79998779296875</ele>
        <time>2026-08-21T10:37:13.000Z</time>
        <extensions>
          <ns3:TrackPointExtension>
            <ns3:hr>110</ns3:hr>
            <ns3:cad>0</ns3:cad>
          </ns3:TrackPointExtension>
        </extensions>
      </trkpt>
      <trkpt lat="45.36599286831915378570556640625" lon="-70.80604649148881435394287109375">
        <ele>469.79998779296875</ele>
        <time>2026-08-21T10:37:14.000Z</time>
        <extensions>
          <ns3:TrackPointExtension>
            <ns3:hr>110</ns3:hr>
            <ns3:cad>0</ns3:cad>
          </ns3:TrackPointExtension>
        </extensions>
      </trkpt>
      <trkpt lat="45.365995466709136962890625" lon="-70.8060601539909839630126953125">
        <ele>469.79998779296875</ele>
        <time>2026-08-21T10:37:15.000Z</time>
        <extensions>
          <ns3:TrackPointExtension>
            <ns3:hr>111</ns3:hr>
            <ns3:cad>0</ns3:cad>
          </ns3:TrackPointExtension>
        </extensions>
      </trkpt>
      <trkpt lat="45.3659986518323421478271484375" lon="-70.8060707151889801025390625">
        <ele>469.79998779296875</ele>
        <time>2026-08-21T10:37:16.000Z</time>
        <extensions>
          <ns3:TrackPointExtension>
            <ns3:hr>111</ns3:hr>
            <ns3:cad>0</ns3:cad>
          </ns3:TrackPointExtension>
        </extensions>
      </trkpt>
      <trkpt lat="45.3660006634891033172607421875" lon="-70.80608186312019824981689453125">
        <ele>469.79998779296875</ele>
        <time>2026-08-21T10:37:17.000Z</time>
        <extensions>
          <ns3:TrackPointExtension>
            <ns3:hr>112</ns3:hr>
            <ns3:cad>0</ns3:cad>
          </ns3:TrackPointExtension>
        </extensions>
      </trkpt>
      <trkpt lat="45.3660023398697376251220703125" lon="-70.80609795637428760528564453125">
        <ele>469.79998779296875</ele>
        <time>2026-08-21T10:37:18.000Z</time>
        <extensions>
          <ns3:TrackPointExtension>
            <ns3:hr>113</ns3:hr>
            <ns3:cad>0</ns3:cad>
          </ns3:TrackPointExtension>
        </extensions>
      </trkpt>
      <trkpt lat="45.366002507507801055908203125" lon="-70.80610818229615688323974609375">
        <ele>470</ele>
        <time>2026-08-21T10:37:19.000Z</time>
        <extensions>
          <ns3:TrackPointExtension>
            <ns3:hr>113</ns3:hr>
            <ns3:cad>0</ns3:cad>
          </ns3:TrackPointExtension>
        </extensions>
      </trkpt>
      <trkpt lat="45.36599588580429553985595703125" lon="-70.80611757002770900726318359375">
        <ele>470.20001220703125</ele>
        <time>2026-08-21T10:37:20.000Z</time>
        <extensions>
          <ns3:TrackPointExtension>
            <ns3:hr>113</ns3:hr>
            <ns3:cad>0</ns3:cad>
          </ns3:TrackPointExtension>
        </extensions>
      </trkpt>
      <trkpt lat="45.36599068902432918548583984375" lon="-70.80613114871084690093994140625">
        <ele>470.399993896484375</ele>
        <time>2026-08-21T10:37:21.000Z</time>
        <extensions>
          <ns3:TrackPointExtension>
            <ns3:hr>114</ns3:hr>
            <ns3:cad>0</ns3:cad>
          </ns3:TrackPointExtension>
        </extensions>
      </trkpt>
      <trkpt lat="45.36598674952983856201171875" lon="-70.80614254809916019439697265625">
        <ele>470.79998779296875</ele>
        <time>2026-08-21T10:37:22.000Z</time>
        <extensions>
          <ns3:TrackPointExtension>
            <ns3:hr>114</ns3:hr>
            <ns3:cad>53</ns3:cad>
          </ns3:TrackPointExtension>
        </extensions>
      </trkpt>
      <trkpt lat="45.36598633043467998504638671875" lon="-70.80615143291652202606201171875">
        <ele>471</ele>
        <time>2026-08-21T10:37:23.000Z</time>
        <extensions>
          <ns3:TrackPointExtension>
            <ns3:hr>114</ns3:hr>
            <ns3:cad>53</ns3:cad>
          </ns3:TrackPointExtension>
        </extensions>
      </trkpt>
      <trkpt lat="45.36598683334887027740478515625" lon="-70.806168280541896820068359375">
        <ele>471.399993896484375</ele>
        <time>2026-08-21T10:37:24.000Z</time>
        <extensions>
          <ns3:TrackPointExtension>
            <ns3:hr>115</ns3:hr>
            <ns3:cad>0</ns3:cad>
          </ns3:TrackPointExtension>
        </extensions>
      </trkpt>
      <trkpt lat="45.36598616279661655426025390625" lon="-70.80617322586476802825927734375">
        <ele>471.600006103515625</ele>
        <time>2026-08-21T10:37:25.000Z</time>
        <extensions>
          <ns3:TrackPointExtension>
            <ns3:hr>115</ns3:hr>
            <ns3:cad>0</ns3:cad>
          </ns3:TrackPointExtension>
        </extensions>
      </trkpt>
      <trkpt lat="45.3659845702350139617919921875" lon="-70.80618144012987613677978515625">
        <ele>471.79998779296875</ele>
        <time>2026-08-21T10:37:26.000Z</time>
        <extensions>
          <ns3:TrackPointExtension>
            <ns3:hr>116</ns3:hr>
            <ns3:cad>0</ns3:cad>
          </ns3:TrackPointExtension>
        </extensions>
      </trkpt>
      <trkpt lat="45.36598130129277706146240234375" lon="-70.80619744956493377685546875">
        <ele>472</ele>
        <time>2026-08-21T10:37:27.000Z</time>
        <extensions>
          <ns3:TrackPointExtension>
            <ns3:hr>116</ns3:hr>
            <ns3:cad>0</ns3:cad>
          </ns3:TrackPointExtension>
        </extensions>
      </trkpt>
      <trkpt lat="45.365979708731174468994140625" lon="-70.80621865577995777130126953125">
        <ele>472</ele>
        <time>2026-08-21T10:37:28.000Z</time>
        <extensions>
          <ns3:TrackPointExtension>
            <ns3:hr>117</ns3:hr>
            <ns3:cad>0</ns3:cad>
          </ns3:TrackPointExtension>
        </extensions>
      </trkpt>
      <trkpt lat="45.3659792058169841766357421875" lon="-70.80622963607311248779296875">
        <ele>472.20001220703125</ele>
        <time>2026-08-21T10:37:29.000Z</time>
        <extensions>
          <ns3:TrackPointExtension>
            <ns3:hr>117</ns3:hr>
            <ns3:cad>0</ns3:cad>
          </ns3:TrackPointExtension>
        </extensions>
      </trkpt>
      <trkpt lat="45.3659753501415252685546875" lon="-70.80624111928045749664306640625">
        <ele>472.399993896484375</ele>
        <time>2026-08-21T10:37:30.000Z</time>
        <extensions>
          <ns3:TrackPointExtension>
            <ns3:hr>118</ns3:hr>
            <ns3:cad>0</ns3:cad>
          </ns3:TrackPointExtension>
        </extensions>
      </trkpt>
      <trkpt lat="45.3659738413989543914794921875" lon="-70.806255452334880828857421875">
        <ele>472.399993896484375</ele>
        <time>2026-08-21T10:37:31.000Z</time>
        <extensions>
          <ns3:TrackPointExtension>
            <ns3:hr>118</ns3:hr>
            <ns3:cad>0</ns3:cad>
          </ns3:TrackPointExtension>
        </extensions>
      </trkpt>
      <trkpt lat="45.365971662104129791259765625" lon="-70.80627162940800189971923828125">
        <ele>472.399993896484375</ele>
        <time>2026-08-21T10:37:32.000Z</time>
        <extensions>
          <ns3:TrackPointExtension>
            <ns3:hr>118</ns3:hr>
            <ns3:cad>0</ns3:cad>
          </ns3:TrackPointExtension>
        </extensions>
      </trkpt>
      <trkpt lat="45.36596956662833690643310546875" lon="-70.806287638843059539794921875">
        <ele>472.600006103515625</ele>
        <time>2026-08-21T10:37:33.000Z</time>
        <extensions>
          <ns3:TrackPointExtension>
            <ns3:hr>119</ns3:hr>
            <ns3:cad>0</ns3:cad>
          </ns3:TrackPointExtension>
        </extensions>
      </trkpt>
      <trkpt lat="45.3659644536674022674560546875" lon="-70.8062921650707721710205078125">
        <ele>472.600006103515625</ele>
        <time>2026-08-21T10:37:34.000Z</time>
        <extensions>
          <ns3:TrackPointExtension>
            <ns3:hr>119</ns3:hr>
            <ns3:cad>0</ns3:cad>
          </ns3:TrackPointExtension>
        </extensions>
      </trkpt>
      <trkpt lat="45.3659537248313426971435546875" lon="-70.806289650499820709228515625">
        <ele>472.79998779296875</ele>
        <time>2026-08-21T10:37:35.000Z</time>
        <extensions>
          <ns3:TrackPointExtension>
            <ns3:hr>119</ns3:hr>
            <ns3:cad>0</ns3:cad>
          </ns3:TrackPointExtension>
        </extensions>
      </trkpt>
      <trkpt lat="45.3659486956894397735595703125" lon="-70.8062901534140110015869140625">
        <ele>473</ele>
        <time>2026-08-21T10:37:36.000Z</time>
        <extensions>
          <ns3:TrackPointExtension>
            <ns3:hr>119</ns3:hr>
            <ns3:cad>0</ns3:cad>
          </ns3:TrackPointExtension>
        </extensions>
      </trkpt>
      <trkpt lat="45.36594190634787082672119140625" lon="-70.80629040487110614776611328125">
        <ele>473.20001220703125</ele>
        <time>2026-08-21T10:37:37.000Z</time>
        <extensions>
          <ns3:TrackPointExtension>
            <ns3:hr>119</ns3:hr>
            <ns3:cad>0</ns3:cad>
          </ns3:TrackPointExtension>
        </extensions>
      </trkpt>
      <trkpt lat="45.365934111177921295166015625" lon="-70.80628889612853527069091796875">
        <ele>473.600006103515625</ele>
        <time>2026-08-21T10:37:38.000Z</time>
        <extensions>
          <ns3:TrackPointExtension>
            <ns3:hr>120</ns3:hr>
            <ns3:cad>0</ns3:cad>
          </ns3:TrackPointExtension>
        </extensions>
      </trkpt>
      <trkpt lat="45.36593377590179443359375" lon="-70.8062879741191864013671875">
        <ele>474</ele>
        <time>2026-08-21T10:37:39.000Z</time>
        <extensions>
          <ns3:TrackPointExtension>
            <ns3:hr>120</ns3:hr>
            <ns3:cad>0</ns3:cad>
          </ns3:TrackPointExtension>
        </extensions>
      </trkpt>
      <trkpt lat="45.36593310534954071044921875" lon="-70.8062861301004886627197265625">
        <ele>474.20001220703125</ele>
        <time>2026-08-21T10:37:40.000Z</time>
        <extensions>
          <ns3:TrackPointExtension>
            <ns3:hr>120</ns3:hr>
            <ns3:cad>0</ns3:cad>
          </ns3:TrackPointExtension>
        </extensions>
      </trkpt>
      <trkpt lat="45.36592044867575168609619140625" lon="-70.80628453753888607025146484375">
        <ele>474.399993896484375</ele>
        <time>2026-08-21T10:37:41.000Z</time>
        <extensions>
          <ns3:TrackPointExtension>
            <ns3:hr>121</ns3:hr>
            <ns3:cad>46</ns3:cad>
          </ns3:TrackPointExtension>
        </extensions>
      </trkpt>
      <trkpt lat="45.36591189913451671600341796875" lon="-70.80628730356693267822265625">
        <ele>474.600006103515625</ele>
        <time>2026-08-21T10:37:42.000Z</time>
        <extensions>
          <ns3:TrackPointExtension>
            <ns3:hr>121</ns3:hr>
            <ns3:cad>46</ns3:cad>
          </ns3:TrackPointExtension>
        </extensions>
      </trkpt>
      <trkpt lat="45.36590494215488433837890625" lon="-70.80628537572920322418212890625">
        <ele>474.79998779296875</ele>
        <time>2026-08-21T10:37:43.000Z</time>
        <extensions>
          <ns3:TrackPointExtension>
            <ns3:hr>122</ns3:hr>
            <ns3:cad>46</ns3:cad>
          </ns3:TrackPointExtension>
        </extensions>
      </trkpt>
      <trkpt lat="45.36589262075722217559814453125" lon="-70.80628654919564723968505859375">
        <ele>475</ele>
        <time>2026-08-21T10:37:44.000Z</time>
        <extensions>
          <ns3:TrackPointExtension>
            <ns3:hr>122</ns3:hr>
            <ns3:cad>0</ns3:cad>
          </ns3:TrackPointExtension>
        </extensions>
      </trkpt>
      <trkpt lat="45.3658776171505451202392578125" lon="-70.806291662156581878662109375">
        <ele>475.20001220703125</ele>
        <time>2026-08-21T10:37:45.000Z</time>
        <extensions>
          <ns3:TrackPointExtension>
            <ns3:hr>123</ns3:hr>
            <ns3:cad>0</ns3:cad>
          </ns3:TrackPointExtension>
        </extensions>
      </trkpt>
      <trkpt lat="45.36586730740964412689208984375" lon="-70.80629627220332622528076171875">
        <ele>475.399993896484375</ele>
        <time>2026-08-21T10:37:46.000Z</time>
        <extensions>
          <ns3:TrackPointExtension>
            <ns3:hr>123</ns3:hr>
            <ns3:cad>0</ns3:cad>
          </ns3:TrackPointExtension>
        </extensions>
      </trkpt>
      <trkpt lat="45.36585800349712371826171875" lon="-70.80629895441234111785888671875">
        <ele>475.600006103515625</ele>
        <time>2026-08-21T10:37:47.000Z</time>
        <extensions>
          <ns3:TrackPointExtension>
            <ns3:hr>124</ns3:hr>
            <ns3:cad>0</ns3:cad>
          </ns3:TrackPointExtension>
        </extensions>
      </trkpt>
      <trkpt lat="45.3658461011946201324462890625" lon="-70.80630046315491199493408203125">
        <ele>475.600006103515625</ele>
        <time>2026-08-21T10:37:48.000Z</time>
        <extensions>
          <ns3:TrackPointExtension>
            <ns3:hr>124</ns3:hr>
            <ns3:cad>0</ns3:cad>
          </ns3:TrackPointExtension>
        </extensions>
      </trkpt>
      <trkpt lat="45.3658383898437023162841796875" lon="-70.80630599521100521087646484375">
        <ele>475.79998779296875</ele>
        <time>2026-08-21T10:37:49.000Z</time>
        <extensions>
          <ns3:TrackPointExtension>
            <ns3:hr>123</ns3:hr>
            <ns3:cad>0</ns3:cad>
          </ns3:TrackPointExtension>
        </extensions>
      </trkpt>
      <trkpt lat="45.3658249787986278533935546875" lon="-70.80630867742002010345458984375">
        <ele>476</ele>
        <time>2026-08-21T10:37:50.000Z</time>
        <extensions>
          <ns3:TrackPointExtension>
            <ns3:hr>123</ns3:hr>
            <ns3:cad>0</ns3:cad>
          </ns3:TrackPointExtension>
        </extensions>
      </trkpt>
      <trkpt lat="45.36581911146640777587890625" lon="-70.80630750395357608795166015625">
        <ele>476</ele>
        <time>2026-08-21T10:37:51.000Z</time>
        <extensions>
          <ns3:TrackPointExtension>
            <ns3:hr>124</ns3:hr>
            <ns3:cad>0</ns3:cad>
          </ns3:TrackPointExtension>
        </extensions>
      </trkpt>
      <trkpt lat="45.36581282503902912139892578125" lon="-70.80630716867744922637939453125">
        <ele>476.20001220703125</ele>
        <time>2026-08-21T10:37:52.000Z</time>
        <extensions>
          <ns3:TrackPointExtension>
            <ns3:hr>124</ns3:hr>
            <ns3:cad>0</ns3:cad>
          </ns3:TrackPointExtension>
        </extensions>
      </trkpt>
      <trkpt lat="45.3658063709735870361328125" lon="-70.80630599521100521087646484375">
        <ele>476.20001220703125</ele>
        <time>2026-08-21T10:37:53.000Z</time>
        <extensions>
          <ns3:TrackPointExtension>
            <ns3:hr>125</ns3:hr>
            <ns3:cad>0</ns3:cad>
          </ns3:TrackPointExtension>
        </extensions>
      </trkpt>
      <trkpt lat="45.36579924635589122772216796875" lon="-70.806298367679119110107421875">
        <ele>476.20001220703125</ele>
        <time>2026-08-21T10:37:54.000Z</time>
        <extensions>
          <ns3:TrackPointExtension>
            <ns3:hr>126</ns3:hr>
            <ns3:cad>0</ns3:cad>
          </ns3:TrackPointExtension>
        </extensions>
      </trkpt>
      <trkpt lat="45.3657927922904491424560546875" lon="-70.8062965236604213714599609375">
        <ele>476.399993896484375</ele>
        <time>2026-08-21T10:37:55.000Z</time>
        <extensions>
          <ns3:TrackPointExtension>
            <ns3:hr>126</ns3:hr>
            <ns3:cad>0</ns3:cad>
          </ns3:TrackPointExtension>
        </extensions>
      </trkpt>
      <trkpt lat="45.365786254405975341796875" lon="-70.806295685470104217529296875">
        <ele>476.399993896484375</ele>
        <time>2026-08-21T10:37:56.000Z</time>
        <extensions>
          <ns3:TrackPointExtension>
            <ns3:hr>125</ns3:hr>
            <ns3:cad>0</ns3:cad>
          </ns3:TrackPointExtension>
        </extensions>
      </trkpt>
      <trkpt lat="45.36577158607542514801025390625" lon="-70.80629509873688220977783203125">
        <ele>476.600006103515625</ele>
        <time>2026-08-21T10:37:57.000Z</time>
        <extensions>
          <ns3:TrackPointExtension>
            <ns3:hr>125</ns3:hr>
            <ns3:cad>0</ns3:cad>
          </ns3:TrackPointExtension>
        </extensions>
      </trkpt>
      <trkpt lat="45.365759767591953277587890625" lon="-70.8063069172203540802001953125">
        <ele>476.600006103515625</ele>
        <time>2026-08-21T10:37:58.000Z</time>
        <extensions>
          <ns3:TrackPointExtension>
            <ns3:hr>124</ns3:hr>
            <ns3:cad>0</ns3:cad>
          </ns3:TrackPointExtension>
        </extensions>
      </trkpt>
      <trkpt lat="45.3657468594610691070556640625" lon="-70.8063179813325405120849609375">
        <ele>476.600006103515625</ele>
        <time>2026-08-21T10:37:59.000Z</time>
        <extensions>
          <ns3:TrackPointExtension>
            <ns3:hr>124</ns3:hr>
            <ns3:cad>0</ns3:cad>
          </ns3:TrackPointExtension>
        </extensions>
      </trkpt>
      <trkpt lat="45.36573596298694610595703125" lon="-70.8063277043402194976806640625">
        <ele>476.79998779296875</ele>
        <time>2026-08-21T10:38:00.000Z</time>
        <extensions>
          <ns3:TrackPointExtension>
            <ns3:hr>123</ns3:hr>
            <ns3:cad>0</ns3:cad>
          </ns3:TrackPointExtension>
        </extensions>
      </trkpt>
      <trkpt lat="45.36572925746440887451171875" lon="-70.8063297159969806671142578125">
        <ele>476.79998779296875</ele>
        <time>2026-08-21T10:38:01.000Z</time>
        <extensions>
          <ns3:TrackPointExtension>
            <ns3:hr>124</ns3:hr>
            <ns3:cad>0</ns3:cad>
          </ns3:TrackPointExtension>
        </extensions>
      </trkpt>
      <trkpt lat="45.3657197020947933197021484375" lon="-70.806327871978282928466796875">
        <ele>477</ele>
        <time>2026-08-21T10:38:02.000Z</time>
        <extensions>
          <ns3:TrackPointExtension>
            <ns3:hr>125</ns3:hr>
            <ns3:cad>53</ns3:cad>
          </ns3:TrackPointExtension>
        </extensions>
      </trkpt>
      <trkpt lat="45.36571056582033634185791015625" lon="-70.80632192082703113555908203125">
        <ele>477</ele>
        <time>2026-08-21T10:38:03.000Z</time>
        <extensions>
          <ns3:TrackPointExtension>
            <ns3:hr>126</ns3:hr>
            <ns3:cad>51</ns3:cad>
          </ns3:TrackPointExtension>
        </extensions>
      </trkpt>
      <trkpt lat="45.365698076784610748291015625" lon="-70.806321837007999420166015625">
        <ele>477.20001220703125</ele>
        <time>2026-08-21T10:38:04.000Z</time>
        <extensions>
          <ns3:TrackPointExtension>
            <ns3:hr>127</ns3:hr>
            <ns3:cad>51</ns3:cad>
          </ns3:TrackPointExtension>
        </extensions>
      </trkpt>
      <trkpt lat="45.365689694881439208984375" lon="-70.8063228428363800048828125">
        <ele>477.399993896484375</ele>
        <time>2026-08-21T10:38:05.000Z</time>
        <extensions>
          <ns3:TrackPointExtension>
            <ns3:hr>127</ns3:hr>
            <ns3:cad>51</ns3:cad>
          </ns3:TrackPointExtension>
        </extensions>
      </trkpt>
      <trkpt lat="45.36567452363669872283935546875" lon="-70.80632644705474376678466796875">
        <ele>477.399993896484375</ele>
        <time>2026-08-21T10:38:06.000Z</time>
        <extensions>
          <ns3:TrackPointExtension>
            <ns3:hr>127</ns3:hr>
            <ns3:cad>51</ns3:cad>
          </ns3:TrackPointExtension>
        </extensions>
      </trkpt>
      <trkpt lat="45.36566094495356082916259765625" lon="-70.80633700825273990631103515625">
        <ele>477.399993896484375</ele>
        <time>2026-08-21T10:38:07.000Z</time>
        <extensions>
          <ns3:TrackPointExtension>
            <ns3:hr>127</ns3:hr>
            <ns3:cad>51</ns3:cad>
          </ns3:TrackPointExtension>
        </extensions>
      </trkpt>
      <trkpt lat="45.3656494617462158203125" lon="-70.8063498325645923614501953125">
        <ele>477.600006103515625</ele>
        <time>2026-08-21T10:38:08.000Z</time>
        <extensions>
          <ns3:TrackPointExtension>
            <ns3:hr>128</ns3:hr>
            <ns3:cad>51</ns3:cad>
          </ns3:TrackPointExtension>
        </extensions>
      </trkpt>
      <trkpt lat="45.36563294939696788787841796875" lon="-70.8063639141619205474853515625">
        <ele>477.600006103515625</ele>
        <time>2026-08-21T10:38:09.000Z</time>
        <extensions>
          <ns3:TrackPointExtension>
            <ns3:hr>128</ns3:hr>
            <ns3:cad>51</ns3:cad>
          </ns3:TrackPointExtension>
        </extensions>
      </trkpt>
      <trkpt lat="45.3656187839806079864501953125" lon="-70.806371457874774932861328125">
        <ele>477.600006103515625</ele>
        <time>2026-08-21T10:38:10.000Z</time>
        <extensions>
          <ns3:TrackPointExtension>
            <ns3:hr>128</ns3:hr>
            <ns3:cad>49</ns3:cad>
          </ns3:TrackPointExtension>
        </extensions>
      </trkpt>
      <trkpt lat="45.36560780368745326995849609375" lon="-70.806377492845058441162109375">
        <ele>477.79998779296875</ele>
        <time>2026-08-21T10:38:11.000Z</time>
        <extensions>
          <ns3:TrackPointExtension>
            <ns3:hr>129</ns3:hr>
            <ns3:cad>49</ns3:cad>
          </ns3:TrackPointExtension>
        </extensions>
      </trkpt>
      <trkpt lat="45.36560193635523319244384765625" lon="-70.80638520419597625732421875">
        <ele>478</ele>
        <time>2026-08-21T10:38:12.000Z</time>
        <extensions>
          <ns3:TrackPointExtension>
            <ns3:hr>129</ns3:hr>
            <ns3:cad>49</ns3:cad>
          </ns3:TrackPointExtension>
        </extensions>
      </trkpt>
      <trkpt lat="45.36559288389980792999267578125" lon="-70.80638729967176914215087890625">
        <ele>478.20001220703125</ele>
        <time>2026-08-21T10:38:13.000Z</time>
        <extensions>
          <ns3:TrackPointExtension>
            <ns3:hr>129</ns3:hr>
            <ns3:cad>49</ns3:cad>
          </ns3:TrackPointExtension>
        </extensions>
      </trkpt>
      <trkpt lat="45.36557779647409915924072265625" lon="-70.8063893951475620269775390625">
        <ele>478.399993896484375</ele>
        <time>2026-08-21T10:38:14.000Z</time>
        <extensions>
          <ns3:TrackPointExtension>
            <ns3:hr>129</ns3:hr>
            <ns3:cad>0</ns3:cad>
          </ns3:TrackPointExtension>
        </extensions>
      </trkpt>
      <trkpt lat="45.36556270904839038848876953125" lon="-70.80638713203370571136474609375">
        <ele>478.600006103515625</ele>
        <time>2026-08-21T10:38:15.000Z</time>
        <extensions>
          <ns3:TrackPointExtension>
            <ns3:hr>130</ns3:hr>
            <ns3:cad>0</ns3:cad>
          </ns3:TrackPointExtension>
        </extensions>
      </trkpt>
      <trkpt lat="45.365550220012664794921875" lon="-70.8063872158527374267578125">
        <ele>478.79998779296875</ele>
        <time>2026-08-21T10:38:16.000Z</time>
        <extensions>
          <ns3:TrackPointExtension>
            <ns3:hr>130</ns3:hr>
            <ns3:cad>48</ns3:cad>
          </ns3:TrackPointExtension>
        </extensions>
      </trkpt>
      <trkpt lat="45.36553907208144664764404296875" lon="-70.80639618448913097381591796875">
        <ele>478.79998779296875</ele>
        <time>2026-08-21T10:38:17.000Z</time>
        <extensions>
          <ns3:TrackPointExtension>
            <ns3:hr>130</ns3:hr>
            <ns3:cad>48</ns3:cad>
          </ns3:TrackPointExtension>
        </extensions>
      </trkpt>
      <trkpt lat="45.36553152836859226226806640625" lon="-70.80640372820198535919189453125">
        <ele>479</ele>
        <time>2026-08-21T10:38:18.000Z</time>
        <extensions>
          <ns3:TrackPointExtension>
            <ns3:hr>130</ns3:hr>
            <ns3:cad>48</ns3:cad>
          </ns3:TrackPointExtension>
        </extensions>
      </trkpt>
      <trkpt lat="45.3655245713889598846435546875" lon="-70.8064078353345394134521484375">
        <ele>479.20001220703125</ele>
        <time>2026-08-21T10:38:19.000Z</time>
        <extensions>
          <ns3:TrackPointExtension>
            <ns3:hr>132</ns3:hr>
            <ns3:cad>46</ns3:cad>
          </ns3:TrackPointExtension>
        </extensions>
      </trkpt>
      <trkpt lat="45.36551359109580516815185546875" lon="-70.80642141401767730712890625">
        <ele>479.20001220703125</ele>
        <time>2026-08-21T10:38:20.000Z</time>
        <extensions>
          <ns3:TrackPointExtension>
            <ns3:hr>133</ns3:hr>
            <ns3:cad>46</ns3:cad>
          </ns3:TrackPointExtension>
        </extensions>
      </trkpt>
      <trkpt lat="45.36550621502101421356201171875" lon="-70.80642887391149997711181640625">
        <ele>479.20001220703125</ele>
        <time>2026-08-21T10:38:21.000Z</time>
        <extensions>
          <ns3:TrackPointExtension>
            <ns3:hr>133</ns3:hr>
            <ns3:cad>46</ns3:cad>
          </ns3:TrackPointExtension>
        </extensions>
      </trkpt>
      <trkpt lat="45.36549833603203296661376953125" lon="-70.80643675290048122406005859375">
        <ele>479.399993896484375</ele>
        <time>2026-08-21T10:38:22.000Z</time>
        <extensions>
          <ns3:TrackPointExtension>
            <ns3:hr>134</ns3:hr>
            <ns3:cad>46</ns3:cad>
          </ns3:TrackPointExtension>
        </extensions>
      </trkpt>
      <trkpt lat="45.36549095995724201202392578125" lon="-70.8064416982233524322509765625">
        <ele>479.399993896484375</ele>
        <time>2026-08-21T10:38:23.000Z</time>
        <extensions>
          <ns3:TrackPointExtension>
            <ns3:hr>134</ns3:hr>
            <ns3:cad>0</ns3:cad>
          </ns3:TrackPointExtension>
        </extensions>
      </trkpt>
      <trkpt lat="45.36548475734889507293701171875" lon="-70.80645217560231685638427734375">
        <ele>479.600006103515625</ele>
        <time>2026-08-21T10:38:24.000Z</time>
        <extensions>
          <ns3:TrackPointExtension>
            <ns3:hr>133</ns3:hr>
            <ns3:cad>44</ns3:cad>
          </ns3:TrackPointExtension>
        </extensions>
      </trkpt>
      <trkpt lat="45.36547486670315265655517578125" lon="-70.80645401962101459503173828125">
        <ele>479.600006103515625</ele>
        <time>2026-08-21T10:38:25.000Z</time>
        <extensions>
          <ns3:TrackPointExtension>
            <ns3:hr>133</ns3:hr>
            <ns3:cad>44</ns3:cad>
          </ns3:TrackPointExtension>
        </extensions>
      </trkpt>
      <trkpt lat="45.365468077361583709716796875" lon="-70.80645494163036346435546875">
        <ele>479.600006103515625</ele>
        <time>2026-08-21T10:38:26.000Z</time>
        <extensions>
          <ns3:TrackPointExtension>
            <ns3:hr>132</ns3:hr>
            <ns3:cad>44</ns3:cad>
          </ns3:TrackPointExtension>
        </extensions>
      </trkpt>
      <trkpt lat="45.36545860581099987030029296875" lon="-70.80645971931517124176025390625">
        <ele>479.79998779296875</ele>
        <time>2026-08-21T10:38:27.000Z</time>
        <extensions>
          <ns3:TrackPointExtension>
            <ns3:hr>132</ns3:hr>
            <ns3:cad>44</ns3:cad>
          </ns3:TrackPointExtension>
        </extensions>
      </trkpt>
      <trkpt lat="45.36545257084071636199951171875" lon="-70.80646835267543792724609375">
        <ele>480</ele>
        <time>2026-08-21T10:38:28.000Z</time>
        <extensions>
          <ns3:TrackPointExtension>
            <ns3:hr>132</ns3:hr>
            <ns3:cad>43</ns3:cad>
          </ns3:TrackPointExtension>
        </extensions>
      </trkpt>
      <trkpt lat="45.36544368602335453033447265625" lon="-70.80647899769246578216552734375">
        <ele>480.20001220703125</ele>
        <time>2026-08-21T10:38:29.000Z</time>
        <extensions>
          <ns3:TrackPointExtension>
            <ns3:hr>132</ns3:hr>
            <ns3:cad>43</ns3:cad>
          </ns3:TrackPointExtension>
        </extensions>
      </trkpt>
      <trkpt lat="45.36543245427310466766357421875" lon="-70.8064896427094936370849609375">
        <ele>480.399993896484375</ele>
        <time>2026-08-21T10:38:30.000Z</time>
        <extensions>
          <ns3:TrackPointExtension>
            <ns3:hr>131</ns3:hr>
            <ns3:cad>43</ns3:cad>
          </ns3:TrackPointExtension>
        </extensions>
      </trkpt>
      <trkpt lat="45.36542558111250400543212890625" lon="-70.80650053918361663818359375">
        <ele>480.600006103515625</ele>
        <time>2026-08-21T10:38:31.000Z</time>
        <extensions>
          <ns3:TrackPointExtension>
            <ns3:hr>131</ns3:hr>
            <ns3:cad>77</ns3:cad>
          </ns3:TrackPointExtension>
        </extensions>
      </trkpt>
      <trkpt lat="45.36541904322803020477294921875" lon="-70.8065127767622470855712890625">
        <ele>480.79998779296875</ele>
        <time>2026-08-21T10:38:32.000Z</time>
        <extensions>
          <ns3:TrackPointExtension>
            <ns3:hr>131</ns3:hr>
            <ns3:cad>77</ns3:cad>
          </ns3:TrackPointExtension>
        </extensions>
      </trkpt>
      <trkpt lat="45.36541552282869815826416015625" lon="-70.80652593635022640228271484375">
        <ele>481.20001220703125</ele>
        <time>2026-08-21T10:38:33.000Z</time>
        <extensions>
          <ns3:TrackPointExtension>
            <ns3:hr>131</ns3:hr>
            <ns3:cad>77</ns3:cad>
          </ns3:TrackPointExtension>
        </extensions>
      </trkpt>
      <trkpt lat="45.365412421524524688720703125" lon="-70.80653666518628597259521484375">
        <ele>481.399993896484375</ele>
        <time>2026-08-21T10:38:34.000Z</time>
        <extensions>
          <ns3:TrackPointExtension>
            <ns3:hr>131</ns3:hr>
            <ns3:cad>77</ns3:cad>
          </ns3:TrackPointExtension>
        </extensions>
      </trkpt>
      <trkpt lat="45.36541217006742954254150390625" lon="-70.8065506629645824432373046875">
        <ele>481.79998779296875</ele>
        <time>2026-08-21T10:38:35.000Z</time>
        <extensions>
          <ns3:TrackPointExtension>
            <ns3:hr>131</ns3:hr>
            <ns3:cad>77</ns3:cad>
          </ns3:TrackPointExtension>
        </extensions>
      </trkpt>
      <trkpt lat="45.36541275680065155029296875" lon="-70.8065654151141643524169921875">
        <ele>482</ele>
        <time>2026-08-21T10:38:36.000Z</time>
        <extensions>
          <ns3:TrackPointExtension>
            <ns3:hr>130</ns3:hr>
            <ns3:cad>78</ns3:cad>
          </ns3:TrackPointExtension>
        </extensions>
      </trkpt>
      <trkpt lat="45.365410745143890380859375" lon="-70.8065776526927947998046875">
        <ele>482.399993896484375</ele>
        <time>2026-08-21T10:38:37.000Z</time>
        <extensions>
          <ns3:TrackPointExtension>
            <ns3:hr>130</ns3:hr>
            <ns3:cad>78</ns3:cad>
          </ns3:TrackPointExtension>
        </extensions>
      </trkpt>
      <trkpt lat="45.36540948785841464996337890625" lon="-70.8065905608236789703369140625">
        <ele>482.600006103515625</ele>
        <time>2026-08-21T10:38:38.000Z</time>
        <extensions>
          <ns3:TrackPointExtension>
            <ns3:hr>130</ns3:hr>
            <ns3:cad>40</ns3:cad>
          </ns3:TrackPointExtension>
        </extensions>
      </trkpt>
      <trkpt lat="45.36540244705975055694580078125" lon="-70.80659533850848674774169921875">
        <ele>482.79998779296875</ele>
        <time>2026-08-21T10:38:39.000Z</time>
        <extensions>
          <ns3:TrackPointExtension>
            <ns3:hr>130</ns3:hr>
            <ns3:cad>40</ns3:cad>
          </ns3:TrackPointExtension>
        </extensions>
      </trkpt>
      <trkpt lat="45.36539859138429164886474609375" lon="-70.8066056482493877410888671875">
        <ele>483</ele>
        <time>2026-08-21T10:38:40.000Z</time>
        <extensions>
          <ns3:TrackPointExtension>
            <ns3:hr>131</ns3:hr>
            <ns3:cad>40</ns3:cad>
          </ns3:TrackPointExtension>
        </extensions>
      </trkpt>
      <trkpt lat="45.3653998486697673797607421875" lon="-70.8066083304584026336669921875">
        <ele>483</ele>
        <time>2026-08-21T10:38:41.000Z</time>
        <extensions>
          <ns3:TrackPointExtension>
            <ns3:hr>131</ns3:hr>
            <ns3:cad>40</ns3:cad>
          </ns3:TrackPointExtension>
        </extensions>
      </trkpt>
      <trkpt lat="45.36539842374622821807861328125" lon="-70.806608498096466064453125">
        <ele>483.20001220703125</ele>
        <time>2026-08-21T10:38:42.000Z</time>
        <extensions>
          <ns3:TrackPointExtension>
            <ns3:hr>131</ns3:hr>
            <ns3:cad>40</ns3:cad>
          </ns3:TrackPointExtension>
        </extensions>
      </trkpt>
      <trkpt lat="45.3653941489756107330322265625" lon="-70.80661260522902011871337890625">
        <ele>483.399993896484375</ele>
        <time>2026-08-21T10:38:43.000Z</time>
        <extensions>
          <ns3:TrackPointExtension>
            <ns3:hr>132</ns3:hr>
            <ns3:cad>40</ns3:cad>
          </ns3:TrackPointExtension>
        </extensions>
      </trkpt>
      <trkpt lat="45.36538333632051944732666015625" lon="-70.80662249587476253509521484375">
        <ele>483.600006103515625</ele>
        <time>2026-08-21T10:38:44.000Z</time>
        <extensions>
          <ns3:TrackPointExtension>
            <ns3:hr>132</ns3:hr>
            <ns3:cad>40</ns3:cad>
          </ns3:TrackPointExtension>
        </extensions>
      </trkpt>
      <trkpt lat="45.3653810732066631317138671875" lon="-70.806628949940204620361328125">
        <ele>483.79998779296875</ele>
        <time>2026-08-21T10:38:45.000Z</time>
        <extensions>
          <ns3:TrackPointExtension>
            <ns3:hr>132</ns3:hr>
            <ns3:cad>40</ns3:cad>
          </ns3:TrackPointExtension>
        </extensions>
      </trkpt>
      <trkpt lat="45.3653718531131744384765625" lon="-70.8066331408917903900146484375">
        <ele>484.20001220703125</ele>
        <time>2026-08-21T10:38:46.000Z</time>
        <extensions>
          <ns3:TrackPointExtension>
            <ns3:hr>133</ns3:hr>
            <ns3:cad>40</ns3:cad>
          </ns3:TrackPointExtension>
        </extensions>
      </trkpt>
      <trkpt lat="45.36536070518195629119873046875" lon="-70.80663003958761692047119140625">
        <ele>484.399993896484375</ele>
        <time>2026-08-21T10:38:47.000Z</time>
        <extensions>
          <ns3:TrackPointExtension>
            <ns3:hr>133</ns3:hr>
            <ns3:cad>42</ns3:cad>
          </ns3:TrackPointExtension>
        </extensions>
      </trkpt>
      <trkpt lat="45.3653576038777828216552734375" lon="-70.80664093606173992156982421875">
        <ele>484.600006103515625</ele>
        <time>2026-08-21T10:38:48.000Z</time>
        <extensions>
          <ns3:TrackPointExtension>
            <ns3:hr>133</ns3:hr>
            <ns3:cad>42</ns3:cad>
          </ns3:TrackPointExtension>
        </extensions>
      </trkpt>
      <trkpt lat="45.36535332910716533660888671875" lon="-70.80664948560297489166259765625">
        <ele>485</ele>
        <time>2026-08-21T10:38:49.000Z</time>
        <extensions>
          <ns3:TrackPointExtension>
            <ns3:hr>134</ns3:hr>
            <ns3:cad>0</ns3:cad>
          </ns3:TrackPointExtension>
        </extensions>
      </trkpt>
      <trkpt lat="45.36534930579364299774169921875" lon="-70.8066576160490512847900390625">
        <ele>485.20001220703125</ele>
        <time>2026-08-21T10:38:50.000Z</time>
        <extensions>
          <ns3:TrackPointExtension>
            <ns3:hr>134</ns3:hr>
            <ns3:cad>78</ns3:cad>
          </ns3:TrackPointExtension>
        </extensions>
      </trkpt>
      <trkpt lat="45.3653490543365478515625" lon="-70.80667220056056976318359375">
        <ele>485.399993896484375</ele>
        <time>2026-08-21T10:38:51.000Z</time>
        <extensions>
          <ns3:TrackPointExtension>
            <ns3:hr>134</ns3:hr>
            <ns3:cad>78</ns3:cad>
          </ns3:TrackPointExtension>
        </extensions>
      </trkpt>
      <trkpt lat="45.3653492219746112823486328125" lon="-70.8066740445792675018310546875">
        <ele>485.600006103515625</ele>
        <time>2026-08-21T10:38:52.000Z</time>
        <extensions>
          <ns3:TrackPointExtension>
            <ns3:hr>135</ns3:hr>
            <ns3:cad>78</ns3:cad>
          </ns3:TrackPointExtension>
        </extensions>
      </trkpt>
      <trkpt lat="45.3653490543365478515625" lon="-70.8066780678927898406982421875">
        <ele>485.79998779296875</ele>
        <time>2026-08-21T10:38:53.000Z</time>
        <extensions>
          <ns3:TrackPointExtension>
            <ns3:hr>136</ns3:hr>
            <ns3:cad>78</ns3:cad>
          </ns3:TrackPointExtension>
        </extensions>
      </trkpt>
      <trkpt lat="45.3653477132320404052734375" lon="-70.80668636597692966461181640625">
        <ele>486</ele>
        <time>2026-08-21T10:38:54.000Z</time>
        <extensions>
          <ns3:TrackPointExtension>
            <ns3:hr>136</ns3:hr>
            <ns3:cad>42</ns3:cad>
          </ns3:TrackPointExtension>
        </extensions>
      </trkpt>
      <trkpt lat="45.365346372127532958984375" lon="-70.80668636597692966461181640625">
        <ele>486.20001220703125</ele>
        <time>2026-08-21T10:38:55.000Z</time>
        <extensions>
          <ns3:TrackPointExtension>
            <ns3:hr>136</ns3:hr>
            <ns3:cad>42</ns3:cad>
          </ns3:TrackPointExtension>
        </extensions>
      </trkpt>
      <trkpt lat="45.365343354642391204833984375" lon="-70.8066938258707523345947265625">
        <ele>486.399993896484375</ele>
        <time>2026-08-21T10:38:56.000Z</time>
        <extensions>
          <ns3:TrackPointExtension>
            <ns3:hr>136</ns3:hr>
            <ns3:cad>42</ns3:cad>
          </ns3:TrackPointExtension>
        </extensions>
      </trkpt>
      <trkpt lat="45.36534301936626434326171875" lon="-70.80670044757425785064697265625">
        <ele>486.600006103515625</ele>
        <time>2026-08-21T10:38:57.000Z</time>
        <extensions>
          <ns3:TrackPointExtension>
            <ns3:hr>137</ns3:hr>
            <ns3:cad>42</ns3:cad>
          </ns3:TrackPointExtension>
        </extensions>
      </trkpt>
      <trkpt lat="45.3653475455939769744873046875" lon="-70.80671167932450771331787109375">
        <ele>486.79998779296875</ele>
        <time>2026-08-21T10:38:58.000Z</time>
        <extensions>
          <ns3:TrackPointExtension>
            <ns3:hr>137</ns3:hr>
            <ns3:cad>42</ns3:cad>
          </ns3:TrackPointExtension>
        </extensions>
      </trkpt>
      <trkpt lat="45.3653482161462306976318359375" lon="-70.80672676675021648406982421875">
        <ele>487</ele>
        <time>2026-08-21T10:38:59.000Z</time>
        <extensions>
          <ns3:TrackPointExtension>
            <ns3:hr>137</ns3:hr>
            <ns3:cad>78</ns3:cad>
          </ns3:TrackPointExtension>
        </extensions>
      </trkpt>
      <trkpt lat="45.36535064689815044403076171875" lon="-70.8067385852336883544921875">
        <ele>487.20001220703125</ele>
        <time>2026-08-21T10:39:00.000Z</time>
        <extensions>
          <ns3:TrackPointExtension>
            <ns3:hr>137</ns3:hr>
            <ns3:cad>78</ns3:cad>
          </ns3:TrackPointExtension>
        </extensions>
      </trkpt>
      <trkpt lat="45.365351736545562744140625" lon="-70.8067571930587291717529296875">
        <ele>487.20001220703125</ele>
        <time>2026-08-21T10:39:01.000Z</time>
        <extensions>
          <ns3:TrackPointExtension>
            <ns3:hr>137</ns3:hr>
            <ns3:cad>78</ns3:cad>
          </ns3:TrackPointExtension>
        </extensions>
      </trkpt>
      <trkpt lat="45.365352071821689605712890625" lon="-70.8067900501191616058349609375">
        <ele>487.399993896484375</ele>
        <time>2026-08-21T10:39:02.000Z</time>
        <extensions>
          <ns3:TrackPointExtension>
            <ns3:hr>137</ns3:hr>
            <ns3:cad>78</ns3:cad>
          </ns3:TrackPointExtension>
        </extensions>
      </trkpt>
      <trkpt lat="45.36535332910716533660888671875" lon="-70.80681142397224903106689453125">
        <ele>487.600006103515625</ele>
        <time>2026-08-21T10:39:03.000Z</time>
        <extensions>
          <ns3:TrackPointExtension>
            <ns3:hr>137</ns3:hr>
            <ns3:cad>75</ns3:cad>
          </ns3:TrackPointExtension>
        </extensions>
      </trkpt>
      <trkpt lat="45.3653542511165142059326171875" lon="-70.8068162016570568084716796875">
        <ele>487.79998779296875</ele>
        <time>2026-08-21T10:39:04.000Z</time>
        <extensions>
          <ns3:TrackPointExtension>
            <ns3:hr>136</ns3:hr>
            <ns3:cad>68</ns3:cad>
          </ns3:TrackPointExtension>
        </extensions>
      </trkpt>
      <trkpt lat="45.36536221392452716827392578125" lon="-70.80682508647441864013671875">
        <ele>488</ele>
        <time>2026-08-21T10:39:05.000Z</time>
        <extensions>
          <ns3:TrackPointExtension>
            <ns3:hr>136</ns3:hr>
            <ns3:cad>68</ns3:cad>
          </ns3:TrackPointExtension>
        </extensions>
      </trkpt>
      <trkpt lat="45.3653700090944766998291015625" lon="-70.80682366155087947845458984375">
        <ele>488</ele>
        <time>2026-08-21T10:39:06.000Z</time>
        <extensions>
          <ns3:TrackPointExtension>
            <ns3:hr>135</ns3:hr>
            <ns3:cad>0</ns3:cad>
          </ns3:TrackPointExtension>
        </extensions>
      </trkpt>
      <trkpt lat="45.365372858941555023193359375" lon="-70.80681393854320049285888671875">
        <ele>488</ele>
        <time>2026-08-21T10:39:07.000Z</time>
        <extensions>
          <ns3:TrackPointExtension>
            <ns3:hr>135</ns3:hr>
            <ns3:cad>0</ns3:cad>
          </ns3:TrackPointExtension>
        </extensions>
      </trkpt>
      <trkpt lat="45.3653740324079990386962890625" lon="-70.806804634630680084228515625">
        <ele>488</ele>
        <time>2026-08-21T10:39:08.000Z</time>
        <extensions>
          <ns3:TrackPointExtension>
            <ns3:hr>135</ns3:hr>
            <ns3:cad>0</ns3:cad>
          </ns3:TrackPointExtension>
        </extensions>
      </trkpt>
      <trkpt lat="45.36537495441734790802001953125" lon="-70.80679164268076419830322265625">
        <ele>487.79998779296875</ele>
        <time>2026-08-21T10:39:09.000Z</time>
        <extensions>
          <ns3:TrackPointExtension>
            <ns3:hr>135</ns3:hr>
            <ns3:cad>0</ns3:cad>
          </ns3:TrackPointExtension>
        </extensions>
      </trkpt>
      <trkpt lat="45.36537277512252330780029296875" lon="-70.80677286721765995025634765625">
        <ele>487.79998779296875</ele>
        <time>2026-08-21T10:39:10.000Z</time>
        <extensions>
          <ns3:TrackPointExtension>
            <ns3:hr>135</ns3:hr>
            <ns3:cad>0</ns3:cad>
          </ns3:TrackPointExtension>
        </extensions>
      </trkpt>
      <trkpt lat="45.36536858417093753814697265625" lon="-70.8067519962787628173828125">
        <ele>487.600006103515625</ele>
        <time>2026-08-21T10:39:11.000Z</time>
        <extensions>
          <ns3:TrackPointExtension>
            <ns3:hr>135</ns3:hr>
            <ns3:cad>0</ns3:cad>
          </ns3:TrackPointExtension>
        </extensions>
      </trkpt>
      <trkpt lat="45.3653555922210216522216796875" lon="-70.80673213116824626922607421875">
        <ele>487.399993896484375</ele>
        <time>2026-08-21T10:39:12.000Z</time>
        <extensions>
          <ns3:TrackPointExtension>
            <ns3:hr>134</ns3:hr>
            <ns3:cad>0</ns3:cad>
          </ns3:TrackPointExtension>
        </extensions>
      </trkpt>
      <trkpt lat="45.36534159444272518157958984375" lon="-70.80672659911215305328369140625">
        <ele>487.20001220703125</ele>
        <time>2026-08-21T10:39:13.000Z</time>
        <extensions>
          <ns3:TrackPointExtension>
            <ns3:hr>135</ns3:hr>
            <ns3:cad>52</ns3:cad>
          </ns3:TrackPointExtension>
        </extensions>
      </trkpt>
      <trkpt lat="45.3653314523398876190185546875" lon="-70.80671821720898151397705078125">
        <ele>487</ele>
        <time>2026-08-21T10:39:14.000Z</time>
        <extensions>
          <ns3:TrackPointExtension>
            <ns3:hr>134</ns3:hr>
            <ns3:cad>52</ns3:cad>
          </ns3:TrackPointExtension>
        </extensions>
      </trkpt>
      <trkpt lat="45.3653237409889698028564453125" lon="-70.8067115955054759979248046875">
        <ele>486.79998779296875</ele>
        <time>2026-08-21T10:39:15.000Z</time>
        <extensions>
          <ns3:TrackPointExtension>
            <ns3:hr>133</ns3:hr>
            <ns3:cad>52</ns3:cad>
          </ns3:TrackPointExtension>
        </extensions>
      </trkpt>
      <trkpt lat="45.36530907265841960906982421875" lon="-70.80670882947742938995361328125">
        <ele>486.600006103515625</ele>
        <time>2026-08-21T10:39:16.000Z</time>
        <extensions>
          <ns3:TrackPointExtension>
            <ns3:hr>132</ns3:hr>
            <ns3:cad>53</ns3:cad>
          </ns3:TrackPointExtension>
        </extensions>
      </trkpt>
      <trkpt lat="45.365300439298152923583984375" lon="-70.8067045547068119049072265625">
        <ele>486.20001220703125</ele>
        <time>2026-08-21T10:39:17.000Z</time>
        <extensions>
          <ns3:TrackPointExtension>
            <ns3:hr>131</ns3:hr>
            <ns3:cad>53</ns3:cad>
          </ns3:TrackPointExtension>
        </extensions>
      </trkpt>
      <trkpt lat="45.3652949072420597076416015625" lon="-70.80669726245105266571044921875">
        <ele>486</ele>
        <time>2026-08-21T10:39:18.000Z</time>
        <extensions>
          <ns3:TrackPointExtension>
            <ns3:hr>130</ns3:hr>
            <ns3:cad>53</ns3:cad>
          </ns3:TrackPointExtension>
        </extensions>
      </trkpt>
      <trkpt lat="45.365287363529205322265625" lon="-70.806695334613323211669921875">
        <ele>485.600006103515625</ele>
        <time>2026-08-21T10:39:19.000Z</time>
        <extensions>
          <ns3:TrackPointExtension>
            <ns3:hr>128</ns3:hr>
            <ns3:cad>53</ns3:cad>
          </ns3:TrackPointExtension>
        </extensions>
      </trkpt>
      <trkpt lat="45.36527973599731922149658203125" lon="-70.80668963491916656494140625">
        <ele>485.20001220703125</ele>
        <time>2026-08-21T10:39:20.000Z</time>
        <extensions>
          <ns3:TrackPointExtension>
            <ns3:hr>128</ns3:hr>
            <ns3:cad>53</ns3:cad>
          </ns3:TrackPointExtension>
        </extensions>
      </trkpt>
      <trkpt lat="45.3652751259505748748779296875" lon="-70.8066861145198345184326171875">
        <ele>485</ele>
        <time>2026-08-21T10:39:21.000Z</time>
        <extensions>
          <ns3:TrackPointExtension>
            <ns3:hr>128</ns3:hr>
            <ns3:cad>53</ns3:cad>
          </ns3:TrackPointExtension>
        </extensions>
      </trkpt>
      <trkpt lat="45.36527068354189395904541015625" lon="-70.80668024718761444091796875">
        <ele>484.79998779296875</ele>
        <time>2026-08-21T10:39:22.000Z</time>
        <extensions>
          <ns3:TrackPointExtension>
            <ns3:hr>128</ns3:hr>
            <ns3:cad>53</ns3:cad>
          </ns3:TrackPointExtension>
        </extensions>
      </trkpt>
      <trkpt lat="45.36526800133287906646728515625" lon="-70.80667496658861637115478515625">
        <ele>484.600006103515625</ele>
        <time>2026-08-21T10:39:23.000Z</time>
        <extensions>
          <ns3:TrackPointExtension>
            <ns3:hr>128</ns3:hr>
            <ns3:cad>0</ns3:cad>
          </ns3:TrackPointExtension>
        </extensions>
      </trkpt>
      <trkpt lat="45.36526246927678585052490234375" lon="-70.80666893161833286285400390625">
        <ele>484.399993896484375</ele>
        <time>2026-08-21T10:39:24.000Z</time>
        <extensions>
          <ns3:TrackPointExtension>
            <ns3:hr>129</ns3:hr>
            <ns3:cad>0</ns3:cad>
          </ns3:TrackPointExtension>
        </extensions>
      </trkpt>
      <trkpt lat="45.36525584757328033447265625" lon="-70.80666817724704742431640625">
        <ele>484.399993896484375</ele>
        <time>2026-08-21T10:39:25.000Z</time>
        <extensions>
          <ns3:TrackPointExtension>
            <ns3:hr>131</ns3:hr>
            <ns3:cad>0</ns3:cad>
          </ns3:TrackPointExtension>
        </extensions>
      </trkpt>
      <trkpt lat="45.36524687893688678741455078125" lon="-70.80666725523769855499267578125">
        <ele>484.20001220703125</ele>
        <time>2026-08-21T10:39:26.000Z</time>
        <extensions>
          <ns3:TrackPointExtension>
            <ns3:hr>133</ns3:hr>
            <ns3:cad>0</ns3:cad>
          </ns3:TrackPointExtension>
        </extensions>
      </trkpt>
      <trkpt lat="45.365231037139892578125" lon="-70.806660465896129608154296875">
        <ele>484</ele>
        <time>2026-08-21T10:39:27.000Z</time>
        <extensions>
          <ns3:TrackPointExtension>
            <ns3:hr>133</ns3:hr>
            <ns3:cad>0</ns3:cad>
          </ns3:TrackPointExtension>
        </extensions>
      </trkpt>
      <trkpt lat="45.365219302475452423095703125" lon="-70.8066566102206707000732421875">
        <ele>483.79998779296875</ele>
        <time>2026-08-21T10:39:28.000Z</time>
        <extensions>
          <ns3:TrackPointExtension>
            <ns3:hr>132</ns3:hr>
            <ns3:cad>0</ns3:cad>
          </ns3:TrackPointExtension>
        </extensions>
      </trkpt>
      <trkpt lat="45.3652074001729488372802734375" lon="-70.80665568821132183074951171875">
        <ele>483.600006103515625</ele>
        <time>2026-08-21T10:39:29.000Z</time>
        <extensions>
          <ns3:TrackPointExtension>
            <ns3:hr>130</ns3:hr>
            <ns3:cad>0</ns3:cad>
          </ns3:TrackPointExtension>
        </extensions>
      </trkpt>
      <trkpt lat="45.365193150937557220458984375" lon="-70.80665476620197296142578125">
        <ele>483.399993896484375</ele>
        <time>2026-08-21T10:39:30.000Z</time>
        <extensions>
          <ns3:TrackPointExtension>
            <ns3:hr>129</ns3:hr>
            <ns3:cad>0</ns3:cad>
          </ns3:TrackPointExtension>
        </extensions>
      </trkpt>
      <trkpt lat="45.365181751549243927001953125" lon="-70.80665166489779949188232421875">
        <ele>483.600006103515625</ele>
        <time>2026-08-21T10:39:31.000Z</time>
        <extensions>
          <ns3:TrackPointExtension>
            <ns3:hr>129</ns3:hr>
            <ns3:cad>0</ns3:cad>
          </ns3:TrackPointExtension>
        </extensions>
      </trkpt>
      <trkpt lat="45.36516943015158176422119140625" lon="-70.8066542632877826690673828125">
        <ele>483.600006103515625</ele>
        <time>2026-08-21T10:39:32.000Z</time>
        <extensions>
          <ns3:TrackPointExtension>
            <ns3:hr>128</ns3:hr>
            <ns3:cad>0</ns3:cad>
          </ns3:TrackPointExtension>
        </extensions>
      </trkpt>
      <trkpt lat="45.36515601910650730133056640625" lon="-70.80665451474487781524658203125">
        <ele>483.79998779296875</ele>
        <time>2026-08-21T10:39:33.000Z</time>
        <extensions>
          <ns3:TrackPointExtension>
            <ns3:hr>129</ns3:hr>
            <ns3:cad>0</ns3:cad>
          </ns3:TrackPointExtension>
        </extensions>
      </trkpt>
      <trkpt lat="45.36514512263238430023193359375" lon="-70.80665719695389270782470703125">
        <ele>484</ele>
        <time>2026-08-21T10:39:34.000Z</time>
        <extensions>
          <ns3:TrackPointExtension>
            <ns3:hr>129</ns3:hr>
            <ns3:cad>0</ns3:cad>
          </ns3:TrackPointExtension>
        </extensions>
      </trkpt>
      <trkpt lat="45.3651369921863079071044921875" lon="-70.80666013062000274658203125">
        <ele>484.20001220703125</ele>
        <time>2026-08-21T10:39:35.000Z</time>
        <extensions>
          <ns3:TrackPointExtension>
            <ns3:hr>128</ns3:hr>
            <ns3:cad>0</ns3:cad>
          </ns3:TrackPointExtension>
        </extensions>
      </trkpt>
      <trkpt lat="45.36512617953121662139892578125" lon="-70.80666373483836650848388671875">
        <ele>484.399993896484375</ele>
        <time>2026-08-21T10:39:36.000Z</time>
        <extensions>
          <ns3:TrackPointExtension>
            <ns3:hr>128</ns3:hr>
            <ns3:cad>51</ns3:cad>
          </ns3:TrackPointExtension>
        </extensions>
      </trkpt>
      <trkpt lat="45.36511863581836223602294921875" lon="-70.80667094327509403228759765625">
        <ele>484.399993896484375</ele>
        <time>2026-08-21T10:39:37.000Z</time>
        <extensions>
          <ns3:TrackPointExtension>
            <ns3:hr>127</ns3:hr>
            <ns3:cad>51</ns3:cad>
          </ns3:TrackPointExtension>
        </extensions>
      </trkpt>
      <trkpt lat="45.365110002458095550537109375" lon="-70.806671865284442901611328125">
        <ele>484.600006103515625</ele>
        <time>2026-08-21T10:39:38.000Z</time>
        <extensions>
          <ns3:TrackPointExtension>
            <ns3:hr>127</ns3:hr>
            <ns3:cad>51</ns3:cad>
          </ns3:TrackPointExtension>
        </extensions>
      </trkpt>
      <trkpt lat="45.36509491503238677978515625" lon="-70.8066710270941257476806640625">
        <ele>484.600006103515625</ele>
        <time>2026-08-21T10:39:39.000Z</time>
        <extensions>
          <ns3:TrackPointExtension>
            <ns3:hr>126</ns3:hr>
            <ns3:cad>49</ns3:cad>
          </ns3:TrackPointExtension>
        </extensions>
      </trkpt>
      <trkpt lat="45.36509047262370586395263671875" lon="-70.8066768944263458251953125">
        <ele>484.79998779296875</ele>
        <time>2026-08-21T10:39:40.000Z</time>
        <extensions>
          <ns3:TrackPointExtension>
            <ns3:hr>126</ns3:hr>
            <ns3:cad>49</ns3:cad>
          </ns3:TrackPointExtension>
        </extensions>
      </trkpt>
      <trkpt lat="45.36508510820567607879638671875" lon="-70.8066817559301853179931640625">
        <ele>485.20001220703125</ele>
        <time>2026-08-21T10:39:41.000Z</time>
        <extensions>
          <ns3:TrackPointExtension>
            <ns3:hr>125</ns3:hr>
            <ns3:cad>55</ns3:cad>
          </ns3:TrackPointExtension>
        </extensions>
      </trkpt>
      <trkpt lat="45.36507622338831424713134765625" lon="-70.80668603070080280303955078125">
        <ele>485.399993896484375</ele>
        <time>2026-08-21T10:39:42.000Z</time>
        <extensions>
          <ns3:TrackPointExtension>
            <ns3:hr>125</ns3:hr>
            <ns3:cad>55</ns3:cad>
          </ns3:TrackPointExtension>
        </extensions>
      </trkpt>
      <trkpt lat="45.36506432108581066131591796875" lon="-70.8066877909004688262939453125">
        <ele>485.600006103515625</ele>
        <time>2026-08-21T10:39:43.000Z</time>
        <extensions>
          <ns3:TrackPointExtension>
            <ns3:hr>124</ns3:hr>
            <ns3:cad>52</ns3:cad>
          </ns3:TrackPointExtension>
        </extensions>
      </trkpt>
      <trkpt lat="45.36505593918263912200927734375" lon="-70.80668703652918338775634765625">
        <ele>485.79998779296875</ele>
        <time>2026-08-21T10:39:44.000Z</time>
        <extensions>
          <ns3:TrackPointExtension>
            <ns3:hr>123</ns3:hr>
            <ns3:cad>52</ns3:cad>
          </ns3:TrackPointExtension>
        </extensions>
      </trkpt>
      <trkpt lat="45.3650454618036746978759765625" lon="-70.80668133683502674102783203125">
        <ele>486</ele>
        <time>2026-08-21T10:39:45.000Z</time>
        <extensions>
          <ns3:TrackPointExtension>
            <ns3:hr>123</ns3:hr>
            <ns3:cad>52</ns3:cad>
          </ns3:TrackPointExtension>
        </extensions>
      </trkpt>
      <trkpt lat="45.36503548733890056610107421875" lon="-70.8066851086914539337158203125">
        <ele>485.79998779296875</ele>
        <time>2026-08-21T10:39:46.000Z</time>
        <extensions>
          <ns3:TrackPointExtension>
            <ns3:hr>122</ns3:hr>
            <ns3:cad>41</ns3:cad>
          </ns3:TrackPointExtension>
        </extensions>
      </trkpt>
      <trkpt lat="45.365022160112857818603515625" lon="-70.8066938258707523345947265625">
        <ele>485.600006103515625</ele>
        <time>2026-08-21T10:39:47.000Z</time>
        <extensions>
          <ns3:TrackPointExtension>
            <ns3:hr>121</ns3:hr>
            <ns3:cad>41</ns3:cad>
          </ns3:TrackPointExtension>
        </extensions>
      </trkpt>
      <trkpt lat="45.365018136799335479736328125" lon="-70.80670145340263843536376953125">
        <ele>485.399993896484375</ele>
        <time>2026-08-21T10:39:48.000Z</time>
        <extensions>
          <ns3:TrackPointExtension>
            <ns3:hr>121</ns3:hr>
            <ns3:cad>0</ns3:cad>
          </ns3:TrackPointExtension>
        </extensions>
      </trkpt>
      <trkpt lat="45.36501822061836719512939453125" lon="-70.8067005313932895660400390625">
        <ele>485.20001220703125</ele>
        <time>2026-08-21T10:39:49.000Z</time>
        <extensions>
          <ns3:TrackPointExtension>
            <ns3:hr>121</ns3:hr>
            <ns3:cad>0</ns3:cad>
          </ns3:TrackPointExtension>
        </extensions>
      </trkpt>
      <trkpt lat="45.365016125142574310302734375" lon="-70.80670095048844814300537109375">
        <ele>485</ele>
        <time>2026-08-21T10:39:50.000Z</time>
        <extensions>
          <ns3:TrackPointExtension>
            <ns3:hr>122</ns3:hr>
            <ns3:cad>0</ns3:cad>
          </ns3:TrackPointExtension>
        </extensions>
      </trkpt>
      <trkpt lat="45.365017466247081756591796875" lon="-70.8067010343074798583984375">
        <ele>484.79998779296875</ele>
        <time>2026-08-21T10:39:51.000Z</time>
        <extensions>
          <ns3:TrackPointExtension>
            <ns3:hr>123</ns3:hr>
            <ns3:cad>0</ns3:cad>
          </ns3:TrackPointExtension>
        </extensions>
      </trkpt>
      <trkpt lat="45.3650166280567646026611328125" lon="-70.8067038841545581817626953125">
        <ele>484.79998779296875</ele>
        <time>2026-08-21T10:39:52.000Z</time>
        <extensions>
          <ns3:TrackPointExtension>
            <ns3:hr>123</ns3:hr>
            <ns3:cad>0</ns3:cad>
          </ns3:TrackPointExtension>
        </extensions>
      </trkpt>
      <trkpt lat="45.36501310765743255615234375" lon="-70.80670438706874847412109375">
        <ele>484.79998779296875</ele>
        <time>2026-08-21T10:39:53.000Z</time>
        <extensions>
          <ns3:TrackPointExtension>
            <ns3:hr>123</ns3:hr>
            <ns3:cad>0</ns3:cad>
          </ns3:TrackPointExtension>
        </extensions>
      </trkpt>
      <trkpt lat="45.365008749067783355712890625" lon="-70.80670882947742938995361328125">
        <ele>484.79998779296875</ele>
        <time>2026-08-21T10:39:54.000Z</time>
        <extensions>
          <ns3:TrackPointExtension>
            <ns3:hr>123</ns3:hr>
            <ns3:cad>0</ns3:cad>
          </ns3:TrackPointExtension>
        </extensions>
      </trkpt>
      <trkpt lat="45.3650045581161975860595703125" lon="-70.80670681782066822052001953125">
        <ele>484.79998779296875</ele>
        <time>2026-08-21T10:39:55.000Z</time>
        <extensions>
          <ns3:TrackPointExtension>
            <ns3:hr>122</ns3:hr>
            <ns3:cad>0</ns3:cad>
          </ns3:TrackPointExtension>
        </extensions>
      </trkpt>
      <trkpt lat="45.36500045098364353179931640625" lon="-70.80670706927776336669921875">
        <ele>485</ele>
        <time>2026-08-21T10:39:56.000Z</time>
        <extensions>
          <ns3:TrackPointExtension>
            <ns3:hr>122</ns3:hr>
            <ns3:cad>0</ns3:cad>
          </ns3:TrackPointExtension>
        </extensions>
      </trkpt>
      <trkpt lat="45.36499793641269207000732421875" lon="-70.80670933239161968231201171875">
        <ele>485</ele>
        <time>2026-08-21T10:39:57.000Z</time>
        <extensions>
          <ns3:TrackPointExtension>
            <ns3:hr>122</ns3:hr>
            <ns3:cad>0</ns3:cad>
          </ns3:TrackPointExtension>
        </extensions>
      </trkpt>
      <trkpt lat="45.364993996918201446533203125" lon="-70.8067136071622371673583984375">
        <ele>485</ele>
        <time>2026-08-21T10:39:58.000Z</time>
        <extensions>
          <ns3:TrackPointExtension>
            <ns3:hr>122</ns3:hr>
            <ns3:cad>0</ns3:cad>
          </ns3:TrackPointExtension>
        </extensions>
      </trkpt>
      <trkpt lat="45.36498871631920337677001953125" lon="-70.806718803942203521728515625">
        <ele>485</ele>
        <time>2026-08-21T10:39:59.000Z</time>
        <extensions>
          <ns3:TrackPointExtension>
            <ns3:hr>123</ns3:hr>
            <ns3:cad>0</ns3:cad>
          </ns3:TrackPointExtension>
        </extensions>
      </trkpt>
      <trkpt lat="45.36498896777629852294921875" lon="-70.80671905539929866790771484375">
        <ele>485</ele>
        <time>2026-08-21T10:40:00.000Z</time>
        <extensions>
          <ns3:TrackPointExtension>
            <ns3:hr>123</ns3:hr>
            <ns3:cad>0</ns3:cad>
          </ns3:TrackPointExtension>
        </extensions>
      </trkpt>
      <trkpt lat="45.36498896777629852294921875" lon="-70.80671905539929866790771484375">
        <ele>485</ele>
        <time>2026-08-21T10:40:01.000Z</time>
        <extensions>
          <ns3:TrackPointExtension>
            <ns3:hr>123</ns3:hr>
            <ns3:cad>0</ns3:cad>
          </ns3:TrackPointExtension>
        </extensions>
      </trkpt>
      <trkpt lat="45.36498896777629852294921875" lon="-70.80671905539929866790771484375">
        <ele>484.79998779296875</ele>
        <time>2026-08-21T10:40:02.000Z</time>
        <extensions>
          <ns3:TrackPointExtension>
            <ns3:hr>123</ns3:hr>
            <ns3:cad>0</ns3:cad>
          </ns3:TrackPointExtension>
        </extensions>
      </trkpt>
      <trkpt lat="45.36498896777629852294921875" lon="-70.80671905539929866790771484375">
        <ele>484.79998779296875</ele>
        <time>2026-08-21T10:40:03.000Z</time>
        <extensions>
          <ns3:TrackPointExtension>
            <ns3:hr>124</ns3:hr>
            <ns3:cad>0</ns3:cad>
          </ns3:TrackPointExtension>
        </extensions>
      </trkpt>
      <trkpt lat="45.36498896777629852294921875" lon="-70.80671905539929866790771484375">
        <ele>484.79998779296875</ele>
        <time>2026-08-21T10:40:04.000Z</time>
        <extensions>
          <ns3:TrackPointExtension>
            <ns3:hr>124</ns3:hr>
            <ns3:cad>0</ns3:cad>
          </ns3:TrackPointExtension>
        </extensions>
      </trkpt>
      <trkpt lat="45.36498896777629852294921875" lon="-70.80671905539929866790771484375">
        <ele>484.79998779296875</ele>
        <time>2026-08-21T10:40:05.000Z</time>
        <extensions>
          <ns3:TrackPointExtension>
            <ns3:hr>124</ns3:hr>
            <ns3:cad>0</ns3:cad>
          </ns3:TrackPointExtension>
        </extensions>
      </trkpt>
      <trkpt lat="45.36498896777629852294921875" lon="-70.80671905539929866790771484375">
        <ele>484.79998779296875</ele>
        <time>2026-08-21T10:40:06.000Z</time>
        <extensions>
          <ns3:TrackPointExtension>
            <ns3:hr>124</ns3:hr>
            <ns3:cad>0</ns3:cad>
          </ns3:TrackPointExtension>
        </extensions>
      </trkpt>
      <trkpt lat="45.36498896777629852294921875" lon="-70.80671905539929866790771484375">
        <ele>485</ele>
        <time>2026-08-21T10:40:07.000Z</time>
        <extensions>
          <ns3:TrackPointExtension>
            <ns3:hr>124</ns3:hr>
            <ns3:cad>0</ns3:cad>
          </ns3:TrackPointExtension>
        </extensions>
      </trkpt>
      <trkpt lat="45.36498896777629852294921875" lon="-70.80671905539929866790771484375">
        <ele>485</ele>
        <time>2026-08-21T10:40:08.000Z</time>
        <extensions>
          <ns3:TrackPointExtension>
            <ns3:hr>124</ns3:hr>
            <ns3:cad>0</ns3:cad>
          </ns3:TrackPointExtension>
        </extensions>
      </trkpt>
      <trkpt lat="45.364987961947917938232421875" lon="-70.80672207288444042205810546875">
        <ele>485.20001220703125</ele>
        <time>2026-08-21T10:40:09.000Z</time>
        <extensions>
          <ns3:TrackPointExtension>
            <ns3:hr>122</ns3:hr>
            <ns3:cad>0</ns3:cad>
          </ns3:TrackPointExtension>
        </extensions>
      </trkpt>
      <trkpt lat="45.36498628556728363037109375" lon="-70.8067303709685802459716796875">
        <ele>485.20001220703125</ele>
        <time>2026-08-21T10:40:10.000Z</time>
        <extensions>
          <ns3:TrackPointExtension>
            <ns3:hr>120</ns3:hr>
            <ns3:cad>0</ns3:cad>
          </ns3:TrackPointExtension>
        </extensions>
      </trkpt>
      <trkpt lat="45.36498519591987133026123046875" lon="-70.8067354001104831695556640625">
        <ele>485.20001220703125</ele>
        <time>2026-08-21T10:40:11.000Z</time>
        <extensions>
          <ns3:TrackPointExtension>
            <ns3:hr>118</ns3:hr>
            <ns3:cad>0</ns3:cad>
          </ns3:TrackPointExtension>
        </extensions>
      </trkpt>
      <trkpt lat="45.36498896777629852294921875" lon="-70.80671905539929866790771484375">
        <ele>485.399993896484375</ele>
        <time>2026-08-21T10:40:12.000Z</time>
        <extensions>
          <ns3:TrackPointExtension>
            <ns3:hr>118</ns3:hr>
            <ns3:cad>0</ns3:cad>
          </ns3:TrackPointExtension>
        </extensions>
      </trkpt>
      <trkpt lat="45.36498896777629852294921875" lon="-70.80671905539929866790771484375">
        <ele>485.399993896484375</ele>
        <time>2026-08-21T10:40:13.000Z</time>
        <extensions>
          <ns3:TrackPointExtension>
            <ns3:hr>119</ns3:hr>
            <ns3:cad>0</ns3:cad>
          </ns3:TrackPointExtension>
        </extensions>
      </trkpt>
      <trkpt lat="45.36498896777629852294921875" lon="-70.80671905539929866790771484375">
        <ele>485.20001220703125</ele>
        <time>2026-08-21T10:40:14.000Z</time>
        <extensions>
          <ns3:TrackPointExtension>
            <ns3:hr>122</ns3:hr>
            <ns3:cad>0</ns3:cad>
          </ns3:TrackPointExtension>
        </extensions>
      </trkpt>
      <trkpt lat="45.36498896777629852294921875" lon="-70.80671905539929866790771484375">
        <ele>485.20001220703125</ele>
        <time>2026-08-21T10:40:15.000Z</time>
        <extensions>
          <ns3:TrackPointExtension>
            <ns3:hr>127</ns3:hr>
            <ns3:cad>0</ns3:cad>
          </ns3:TrackPointExtension>
        </extensions>
      </trkpt>
      <trkpt lat="45.36498896777629852294921875" lon="-70.80671905539929866790771484375">
        <ele>485.20001220703125</ele>
        <time>2026-08-21T10:40:16.000Z</time>
        <extensions>
          <ns3:TrackPointExtension>
            <ns3:hr>129</ns3:hr>
            <ns3:cad>0</ns3:cad>
          </ns3:TrackPointExtension>
        </extensions>
      </trkpt>
      <trkpt lat="45.36498896777629852294921875" lon="-70.80671905539929866790771484375">
        <ele>485.20001220703125</ele>
        <time>2026-08-21T10:40:17.000Z</time>
        <extensions>
          <ns3:TrackPointExtension>
            <ns3:hr>130</ns3:hr>
            <ns3:cad>0</ns3:cad>
          </ns3:TrackPointExtension>
        </extensions>
      </trkpt>
      <trkpt lat="45.36498896777629852294921875" lon="-70.80671905539929866790771484375">
        <ele>485.20001220703125</ele>
        <time>2026-08-21T10:40:18.000Z</time>
        <extensions>
          <ns3:TrackPointExtension>
            <ns3:hr>131</ns3:hr>
            <ns3:cad>0</ns3:cad>
          </ns3:TrackPointExtension>
        </extensions>
      </trkpt>
      <trkpt lat="45.36498896777629852294921875" lon="-70.80671905539929866790771484375">
        <ele>485.20001220703125</ele>
        <time>2026-08-21T10:40:19.000Z</time>
        <extensions>
          <ns3:TrackPointExtension>
            <ns3:hr>131</ns3:hr>
            <ns3:cad>0</ns3:cad>
          </ns3:TrackPointExtension>
        </extensions>
      </trkpt>
      <trkpt lat="45.36498896777629852294921875" lon="-70.80671905539929866790771484375">
        <ele>485.20001220703125</ele>
        <time>2026-08-21T10:40:20.000Z</time>
        <extensions>
          <ns3:TrackPointExtension>
            <ns3:hr>131</ns3:hr>
            <ns3:cad>0</ns3:cad>
          </ns3:TrackPointExtension>
        </extensions>
      </trkpt>
      <trkpt lat="45.36498896777629852294921875" lon="-70.80671905539929866790771484375">
        <ele>485.20001220703125</ele>
        <time>2026-08-21T10:40:21.000Z</time>
        <extensions>
          <ns3:TrackPointExtension>
            <ns3:hr>132</ns3:hr>
            <ns3:cad>0</ns3:cad>
          </ns3:TrackPointExtension>
        </extensions>
      </trkpt>
      <trkpt lat="45.36498896777629852294921875" lon="-70.80671905539929866790771484375">
        <ele>485.20001220703125</ele>
        <time>2026-08-21T10:40:22.000Z</time>
        <extensions>
          <ns3:TrackPointExtension>
            <ns3:hr>132</ns3:hr>
            <ns3:cad>0</ns3:cad>
          </ns3:TrackPointExtension>
        </extensions>
      </trkpt>
      <trkpt lat="45.36498896777629852294921875" lon="-70.80671905539929866790771484375">
        <ele>485.20001220703125</ele>
        <time>2026-08-21T10:40:23.000Z</time>
        <extensions>
          <ns3:TrackPointExtension>
            <ns3:hr>132</ns3:hr>
            <ns3:cad>0</ns3:cad>
          </ns3:TrackPointExtension>
        </extensions>
      </trkpt>
      <trkpt lat="45.36498896777629852294921875" lon="-70.80671905539929866790771484375">
        <ele>485.399993896484375</ele>
        <time>2026-08-21T10:40:24.000Z</time>
        <extensions>
          <ns3:TrackPointExtension>
            <ns3:hr>131</ns3:hr>
            <ns3:cad>0</ns3:cad>
          </ns3:TrackPointExtension>
        </extensions>
      </trkpt>
      <trkpt lat="45.36498896777629852294921875" lon="-70.80671905539929866790771484375">
        <ele>485.399993896484375</ele>
        <time>2026-08-21T10:40:25.000Z</time>
        <extensions>
          <ns3:TrackPointExtension>
            <ns3:hr>132</ns3:hr>
            <ns3:cad>0</ns3:cad>
          </ns3:TrackPointExtension>
        </extensions>
      </trkpt>
      <trkpt lat="45.3649814240634441375732421875" lon="-70.80673146061599254608154296875">
        <ele>485.399993896484375</ele>
        <time>2026-08-21T10:40:26.000Z</time>
        <extensions>
          <ns3:TrackPointExtension>
            <ns3:hr>132</ns3:hr>
            <ns3:cad>0</ns3:cad>
          </ns3:TrackPointExtension>
        </extensions>
      </trkpt>
      <trkpt lat="45.36497765220701694488525390625" lon="-70.806733556091785430908203125">
        <ele>485.20001220703125</ele>
        <time>2026-08-21T10:40:27.000Z</time>
        <extensions>
          <ns3:TrackPointExtension>
            <ns3:hr>132</ns3:hr>
            <ns3:cad>0</ns3:cad>
          </ns3:TrackPointExtension>
        </extensions>
      </trkpt>
      <trkpt lat="45.36497329361736774444580078125" lon="-70.80673648975789546966552734375">
        <ele>485.20001220703125</ele>
        <time>2026-08-21T10:40:28.000Z</time>
        <extensions>
          <ns3:TrackPointExtension>
            <ns3:hr>132</ns3:hr>
            <ns3:cad>0</ns3:cad>
          </ns3:TrackPointExtension>
        </extensions>
      </trkpt>
      <trkpt lat="45.36497161723673343658447265625" lon="-70.80673716031014919281005859375">
        <ele>485.20001220703125</ele>
        <time>2026-08-21T10:40:29.000Z</time>
        <extensions>
          <ns3:TrackPointExtension>
            <ns3:hr>131</ns3:hr>
            <ns3:cad>0</ns3:cad>
          </ns3:TrackPointExtension>
        </extensions>
      </trkpt>
      <trkpt lat="45.36496885120868682861328125" lon="-70.8067370764911174774169921875">
        <ele>485.20001220703125</ele>
        <time>2026-08-21T10:40:30.000Z</time>
        <extensions>
          <ns3:TrackPointExtension>
            <ns3:hr>132</ns3:hr>
            <ns3:cad>0</ns3:cad>
          </ns3:TrackPointExtension>
        </extensions>
      </trkpt>
      <trkpt lat="45.3649686835706233978271484375" lon="-70.80673699267208576202392578125">
        <ele>485.20001220703125</ele>
        <time>2026-08-21T10:40:31.000Z</time>
        <extensions>
          <ns3:TrackPointExtension>
            <ns3:hr>132</ns3:hr>
            <ns3:cad>0</ns3:cad>
          </ns3:TrackPointExtension>
        </extensions>
      </trkpt>
      <trkpt lat="45.36496541462838649749755859375" lon="-70.8067367412149906158447265625">
        <ele>485.20001220703125</ele>
        <time>2026-08-21T10:40:32.000Z</time>
        <extensions>
          <ns3:TrackPointExtension>
            <ns3:hr>132</ns3:hr>
            <ns3:cad>0</ns3:cad>
          </ns3:TrackPointExtension>
        </extensions>
      </trkpt>
      <trkpt lat="45.36495636217296123504638671875" lon="-70.80673933960497379302978515625">
        <ele>485.399993896484375</ele>
        <time>2026-08-21T10:40:33.000Z</time>
        <extensions>
          <ns3:TrackPointExtension>
            <ns3:hr>133</ns3:hr>
            <ns3:cad>0</ns3:cad>
          </ns3:TrackPointExtension>
        </extensions>
      </trkpt>
      <trkpt lat="45.36493859253823757171630859375" lon="-70.8067488111555576324462890625">
        <ele>485.399993896484375</ele>
        <time>2026-08-21T10:40:34.000Z</time>
        <extensions>
          <ns3:TrackPointExtension>
            <ns3:hr>134</ns3:hr>
            <ns3:cad>0</ns3:cad>
          </ns3:TrackPointExtension>
        </extensions>
      </trkpt>
      <trkpt lat="45.3649304620921611785888671875" lon="-70.80675090663135051727294921875">
        <ele>485.399993896484375</ele>
        <time>2026-08-21T10:40:35.000Z</time>
        <extensions>
          <ns3:TrackPointExtension>
            <ns3:hr>134</ns3:hr>
            <ns3:cad>0</ns3:cad>
          </ns3:TrackPointExtension>
        </extensions>
      </trkpt>
      <trkpt lat="45.3649254329502582550048828125" lon="-70.806754343211650848388671875">
        <ele>485.600006103515625</ele>
        <time>2026-08-21T10:40:36.000Z</time>
        <extensions>
          <ns3:TrackPointExtension>
            <ns3:hr>134</ns3:hr>
            <ns3:cad>0</ns3:cad>
          </ns3:TrackPointExtension>
        </extensions>
      </trkpt>
      <trkpt lat="45.36492283456027507781982421875" lon="-70.80675543285906314849853515625">
        <ele>485.79998779296875</ele>
        <time>2026-08-21T10:40:37.000Z</time>
        <extensions>
          <ns3:TrackPointExtension>
            <ns3:hr>134</ns3:hr>
            <ns3:cad>0</ns3:cad>
          </ns3:TrackPointExtension>
        </extensions>
      </trkpt>
      <trkpt lat="45.36492048762738704681396484375" lon="-70.80675912089645862579345703125">
        <ele>485.79998779296875</ele>
        <time>2026-08-21T10:40:38.000Z</time>
        <extensions>
          <ns3:TrackPointExtension>
            <ns3:hr>133</ns3:hr>
            <ns3:cad>0</ns3:cad>
          </ns3:TrackPointExtension>
        </extensions>
      </trkpt>
      <trkpt lat="45.36491545848548412322998046875" lon="-70.8067632280290126800537109375">
        <ele>486</ele>
        <time>2026-08-21T10:40:39.000Z</time>
        <extensions>
          <ns3:TrackPointExtension>
            <ns3:hr>133</ns3:hr>
            <ns3:cad>0</ns3:cad>
          </ns3:TrackPointExtension>
        </extensions>
      </trkpt>
      <trkpt lat="45.36491109989583492279052734375" lon="-70.806765072047710418701171875">
        <ele>486</ele>
        <time>2026-08-21T10:40:40.000Z</time>
        <extensions>
          <ns3:TrackPointExtension>
            <ns3:hr>132</ns3:hr>
            <ns3:cad>0</ns3:cad>
          </ns3:TrackPointExtension>
        </extensions>
      </trkpt>
      <trkpt lat="45.36490841768682003021240234375" lon="-70.806769095361232757568359375">
        <ele>486</ele>
        <time>2026-08-21T10:40:41.000Z</time>
        <extensions>
          <ns3:TrackPointExtension>
            <ns3:hr>132</ns3:hr>
            <ns3:cad>0</ns3:cad>
          </ns3:TrackPointExtension>
        </extensions>
      </trkpt>
      <trkpt lat="45.36490087397396564483642578125" lon="-70.80677621997892856597900390625">
        <ele>486</ele>
        <time>2026-08-21T10:40:42.000Z</time>
        <extensions>
          <ns3:TrackPointExtension>
            <ns3:hr>132</ns3:hr>
            <ns3:cad>0</ns3:cad>
          </ns3:TrackPointExtension>
        </extensions>
      </trkpt>
      <trkpt lat="45.3648949228227138519287109375" lon="-70.80678108148276805877685546875">
        <ele>486.20001220703125</ele>
        <time>2026-08-21T10:40:43.000Z</time>
        <extensions>
          <ns3:TrackPointExtension>
            <ns3:hr>132</ns3:hr>
            <ns3:cad>0</ns3:cad>
          </ns3:TrackPointExtension>
        </extensions>
      </trkpt>
      <trkpt lat="45.36489534191787242889404296875" lon="-70.8067836798727512359619140625">
        <ele>486.20001220703125</ele>
        <time>2026-08-21T10:40:44.000Z</time>
        <extensions>
          <ns3:TrackPointExtension>
            <ns3:hr>132</ns3:hr>
            <ns3:cad>0</ns3:cad>
          </ns3:TrackPointExtension>
        </extensions>
      </trkpt>
      <trkpt lat="45.36488997749984264373779296875" lon="-70.806787870824337005615234375">
        <ele>486.20001220703125</ele>
        <time>2026-08-21T10:40:45.000Z</time>
        <extensions>
          <ns3:TrackPointExtension>
            <ns3:hr>132</ns3:hr>
            <ns3:cad>43</ns3:cad>
          </ns3:TrackPointExtension>
        </extensions>
      </trkpt>
      <trkpt lat="45.36488746292889118194580078125" lon="-70.8067897148430347442626953125">
        <ele>486.20001220703125</ele>
        <time>2026-08-21T10:40:46.000Z</time>
        <extensions>
          <ns3:TrackPointExtension>
            <ns3:hr>132</ns3:hr>
            <ns3:cad>43</ns3:cad>
          </ns3:TrackPointExtension>
        </extensions>
      </trkpt>
      <trkpt lat="45.364882014691829681396484375" lon="-70.806796252727508544921875">
        <ele>486.20001220703125</ele>
        <time>2026-08-21T10:40:47.000Z</time>
        <extensions>
          <ns3:TrackPointExtension>
            <ns3:hr>131</ns3:hr>
            <ns3:cad>41</ns3:cad>
          </ns3:TrackPointExtension>
        </extensions>
      </trkpt>
      <trkpt lat="45.36487673409283161163330078125" lon="-70.80680362880229949951171875">
        <ele>486.20001220703125</ele>
        <time>2026-08-21T10:40:48.000Z</time>
        <extensions>
          <ns3:TrackPointExtension>
            <ns3:hr>132</ns3:hr>
            <ns3:cad>41</ns3:cad>
          </ns3:TrackPointExtension>
        </extensions>
      </trkpt>
      <trkpt lat="45.364877320826053619384765625" lon="-70.80679985694587230682373046875">
        <ele>486</ele>
        <time>2026-08-21T10:40:49.000Z</time>
        <extensions>
          <ns3:TrackPointExtension>
            <ns3:hr>132</ns3:hr>
            <ns3:cad>41</ns3:cad>
          </ns3:TrackPointExtension>
        </extensions>
      </trkpt>
      <trkpt lat="45.36487472243607044219970703125" lon="-70.80679885111749172210693359375">
        <ele>485.79998779296875</ele>
        <time>2026-08-21T10:40:50.000Z</time>
        <extensions>
          <ns3:TrackPointExtension>
            <ns3:hr>132</ns3:hr>
            <ns3:cad>0</ns3:cad>
          </ns3:TrackPointExtension>
        </extensions>
      </trkpt>
      <trkpt lat="45.364874303340911865234375" lon="-70.8067980967462062835693359375">
        <ele>485.600006103515625</ele>
        <time>2026-08-21T10:40:51.000Z</time>
        <extensions>
          <ns3:TrackPointExtension>
            <ns3:hr>132</ns3:hr>
            <ns3:cad>0</ns3:cad>
          </ns3:TrackPointExtension>
        </extensions>
      </trkpt>
      <trkpt lat="45.364874303340911865234375" lon="-70.8067980967462062835693359375">
        <ele>485.600006103515625</ele>
        <time>2026-08-21T10:40:52.000Z</time>
        <extensions>
          <ns3:TrackPointExtension>
            <ns3:hr>131</ns3:hr>
            <ns3:cad>0</ns3:cad>
          </ns3:TrackPointExtension>
        </extensions>
      </trkpt>
      <trkpt lat="45.364874303340911865234375" lon="-70.80679834820330142974853515625">
        <ele>485.600006103515625</ele>
        <time>2026-08-21T10:40:53.000Z</time>
        <extensions>
          <ns3:TrackPointExtension>
            <ns3:hr>131</ns3:hr>
            <ns3:cad>0</ns3:cad>
          </ns3:TrackPointExtension>
        </extensions>
      </trkpt>
      <trkpt lat="45.36486617289483547210693359375" lon="-70.8068115077912807464599609375">
        <ele>485.600006103515625</ele>
        <time>2026-08-21T10:40:54.000Z</time>
        <extensions>
          <ns3:TrackPointExtension>
            <ns3:hr>130</ns3:hr>
            <ns3:cad>0</ns3:cad>
          </ns3:TrackPointExtension>
        </extensions>
      </trkpt>
      <trkpt lat="45.36486382596194744110107421875" lon="-70.80681695602834224700927734375">
        <ele>485.600006103515625</ele>
        <time>2026-08-21T10:40:55.000Z</time>
        <extensions>
          <ns3:TrackPointExtension>
            <ns3:hr>128</ns3:hr>
            <ns3:cad>0</ns3:cad>
          </ns3:TrackPointExtension>
        </extensions>
      </trkpt>
      <trkpt lat="45.364855192601680755615234375" lon="-70.80682667903602123260498046875">
        <ele>485.600006103515625</ele>
        <time>2026-08-21T10:40:56.000Z</time>
        <extensions>
          <ns3:TrackPointExtension>
            <ns3:hr>127</ns3:hr>
            <ns3:cad>0</ns3:cad>
          </ns3:TrackPointExtension>
        </extensions>
      </trkpt>
      <trkpt lat="45.36484605632722377777099609375" lon="-70.80683321692049503326416015625">
        <ele>485.79998779296875</ele>
        <time>2026-08-21T10:40:57.000Z</time>
        <extensions>
          <ns3:TrackPointExtension>
            <ns3:hr>126</ns3:hr>
            <ns3:cad>0</ns3:cad>
          </ns3:TrackPointExtension>
        </extensions>
      </trkpt>
      <trkpt lat="45.3648369200527667999267578125" lon="-70.80684386193752288818359375">
        <ele>485.79998779296875</ele>
        <time>2026-08-21T10:40:58.000Z</time>
        <extensions>
          <ns3:TrackPointExtension>
            <ns3:hr>124</ns3:hr>
            <ns3:cad>0</ns3:cad>
          </ns3:TrackPointExtension>
        </extensions>
      </trkpt>
      <trkpt lat="45.3648342378437519073486328125" lon="-70.80685098655521869659423828125">
        <ele>485.79998779296875</ele>
        <time>2026-08-21T10:40:59.000Z</time>
        <extensions>
          <ns3:TrackPointExtension>
            <ns3:hr>123</ns3:hr>
            <ns3:cad>0</ns3:cad>
          </ns3:TrackPointExtension>
        </extensions>
      </trkpt>
      <trkpt lat="45.36482560448348522186279296875" lon="-70.80685316585004329681396484375">
        <ele>485.79998779296875</ele>
        <time>2026-08-21T10:41:00.000Z</time>
        <extensions>
          <ns3:TrackPointExtension>
            <ns3:hr>122</ns3:hr>
            <ns3:cad>0</ns3:cad>
          </ns3:TrackPointExtension>
        </extensions>
      </trkpt>
      <trkpt lat="45.36482091061770915985107421875" lon="-70.8068410120904445648193359375">
        <ele>485.79998779296875</ele>
        <time>2026-08-21T10:41:01.000Z</time>
        <extensions>
          <ns3:TrackPointExtension>
            <ns3:hr>120</ns3:hr>
            <ns3:cad>0</ns3:cad>
          </ns3:TrackPointExtension>
        </extensions>
      </trkpt>
      <trkpt lat="45.3648139536380767822265625" lon="-70.8068229071795940399169921875">
        <ele>485.79998779296875</ele>
        <time>2026-08-21T10:41:02.000Z</time>
        <extensions>
          <ns3:TrackPointExtension>
            <ns3:hr>119</ns3:hr>
            <ns3:cad>0</ns3:cad>
          </ns3:TrackPointExtension>
        </extensions>
      </trkpt>
      <trkpt lat="45.36480766721069812774658203125" lon="-70.80681578256189823150634765625">
        <ele>485.79998779296875</ele>
        <time>2026-08-21T10:41:03.000Z</time>
        <extensions>
          <ns3:TrackPointExtension>
            <ns3:hr>119</ns3:hr>
            <ns3:cad>0</ns3:cad>
          </ns3:TrackPointExtension>
        </extensions>
      </trkpt>
      <trkpt lat="45.364801548421382904052734375" lon="-70.8068108372390270233154296875">
        <ele>486</ele>
        <time>2026-08-21T10:41:04.000Z</time>
        <extensions>
          <ns3:TrackPointExtension>
            <ns3:hr>120</ns3:hr>
            <ns3:cad>0</ns3:cad>
          </ns3:TrackPointExtension>
        </extensions>
      </trkpt>
      <trkpt lat="45.3647871315479278564453125" lon="-70.80680337734520435333251953125">
        <ele>486</ele>
        <time>2026-08-21T10:41:05.000Z</time>
        <extensions>
          <ns3:TrackPointExtension>
            <ns3:hr>120</ns3:hr>
            <ns3:cad>0</ns3:cad>
          </ns3:TrackPointExtension>
        </extensions>
      </trkpt>
      <trkpt lat="45.36477229557931423187255859375" lon="-70.806801952421665191650390625">
        <ele>486</ele>
        <time>2026-08-21T10:41:06.000Z</time>
        <extensions>
          <ns3:TrackPointExtension>
            <ns3:hr>120</ns3:hr>
            <ns3:cad>51</ns3:cad>
          </ns3:TrackPointExtension>
        </extensions>
      </trkpt>
      <trkpt lat="45.3647631593048572540283203125" lon="-70.8068007789552211761474609375">
        <ele>486</ele>
        <time>2026-08-21T10:41:07.000Z</time>
        <extensions>
          <ns3:TrackPointExtension>
            <ns3:hr>119</ns3:hr>
            <ns3:cad>51</ns3:cad>
          </ns3:TrackPointExtension>
        </extensions>
      </trkpt>
      <trkpt lat="45.364759974181652069091796875" lon="-70.8067940734326839447021484375">
        <ele>486</ele>
        <time>2026-08-21T10:41:08.000Z</time>
        <extensions>
          <ns3:TrackPointExtension>
            <ns3:hr>120</ns3:hr>
            <ns3:cad>51</ns3:cad>
          </ns3:TrackPointExtension>
        </extensions>
      </trkpt>
      <trkpt lat="45.364756286144256591796875" lon="-70.80678560771048069000244140625">
        <ele>486</ele>
        <time>2026-08-21T10:41:09.000Z</time>
        <extensions>
          <ns3:TrackPointExtension>
            <ns3:hr>120</ns3:hr>
            <ns3:cad>51</ns3:cad>
          </ns3:TrackPointExtension>
        </extensions>
      </trkpt>
      <trkpt lat="45.36475050263106822967529296875" lon="-70.8067786507308483123779296875">
        <ele>486</ele>
        <time>2026-08-21T10:41:10.000Z</time>
        <extensions>
          <ns3:TrackPointExtension>
            <ns3:hr>120</ns3:hr>
            <ns3:cad>51</ns3:cad>
          </ns3:TrackPointExtension>
        </extensions>
      </trkpt>
      <trkpt lat="45.364746563136577606201171875" lon="-70.80677404068410396575927734375">
        <ele>486.20001220703125</ele>
        <time>2026-08-21T10:41:11.000Z</time>
        <extensions>
          <ns3:TrackPointExtension>
            <ns3:hr>120</ns3:hr>
            <ns3:cad>0</ns3:cad>
          </ns3:TrackPointExtension>
        </extensions>
      </trkpt>
      <trkpt lat="45.3647460602223873138427734375" lon="-70.806764066219329833984375">
        <ele>486.399993896484375</ele>
        <time>2026-08-21T10:41:12.000Z</time>
        <extensions>
          <ns3:TrackPointExtension>
            <ns3:hr>120</ns3:hr>
            <ns3:cad>0</ns3:cad>
          </ns3:TrackPointExtension>
        </extensions>
      </trkpt>
      <trkpt lat="45.36474354565143585205078125" lon="-70.80675057135522365570068359375">
        <ele>486.399993896484375</ele>
        <time>2026-08-21T10:41:13.000Z</time>
        <extensions>
          <ns3:TrackPointExtension>
            <ns3:hr>120</ns3:hr>
            <ns3:cad>0</ns3:cad>
          </ns3:TrackPointExtension>
        </extensions>
      </trkpt>
      <trkpt lat="45.3647383488714694976806640625" lon="-70.8067343942821025848388671875">
        <ele>486.600006103515625</ele>
        <time>2026-08-21T10:41:14.000Z</time>
        <extensions>
          <ns3:TrackPointExtension>
            <ns3:hr>120</ns3:hr>
            <ns3:cad>0</ns3:cad>
          </ns3:TrackPointExtension>
        </extensions>
      </trkpt>
      <trkpt lat="45.3647303022444248199462890625" lon="-70.80672324635088443756103515625">
        <ele>486.600006103515625</ele>
        <time>2026-08-21T10:41:15.000Z</time>
        <extensions>
          <ns3:TrackPointExtension>
            <ns3:hr>120</ns3:hr>
            <ns3:cad>0</ns3:cad>
          </ns3:TrackPointExtension>
        </extensions>
      </trkpt>
      <trkpt lat="45.36472435109317302703857421875" lon="-70.80671234987676143646240234375">
        <ele>486.600006103515625</ele>
        <time>2026-08-21T10:41:16.000Z</time>
        <extensions>
          <ns3:TrackPointExtension>
            <ns3:hr>120</ns3:hr>
            <ns3:cad>0</ns3:cad>
          </ns3:TrackPointExtension>
        </extensions>
      </trkpt>
      <trkpt lat="45.36471446044743061065673828125" lon="-70.80669709481298923492431640625">
        <ele>486.600006103515625</ele>
        <time>2026-08-21T10:41:17.000Z</time>
        <extensions>
          <ns3:TrackPointExtension>
            <ns3:hr>119</ns3:hr>
            <ns3:cad>0</ns3:cad>
          </ns3:TrackPointExtension>
        </extensions>
      </trkpt>
      <trkpt lat="45.36470440216362476348876953125" lon="-70.806684605777263641357421875">
        <ele>486.79998779296875</ele>
        <time>2026-08-21T10:41:18.000Z</time>
        <extensions>
          <ns3:TrackPointExtension>
            <ns3:hr>120</ns3:hr>
            <ns3:cad>0</ns3:cad>
          </ns3:TrackPointExtension>
        </extensions>
      </trkpt>
      <trkpt lat="45.36470063030719757080078125" lon="-70.80667915754020214080810546875">
        <ele>487</ele>
        <time>2026-08-21T10:41:19.000Z</time>
        <extensions>
          <ns3:TrackPointExtension>
            <ns3:hr>119</ns3:hr>
            <ns3:cad>0</ns3:cad>
          </ns3:TrackPointExtension>
        </extensions>
      </trkpt>
      <trkpt lat="45.36469928920269012451171875" lon="-70.80667714588344097137451171875">
        <ele>487.20001220703125</ele>
        <time>2026-08-21T10:41:20.000Z</time>
        <extensions>
          <ns3:TrackPointExtension>
            <ns3:hr>119</ns3:hr>
            <ns3:cad>0</ns3:cad>
          </ns3:TrackPointExtension>
        </extensions>
      </trkpt>
      <trkpt lat="45.364698283374309539794921875" lon="-70.80667345784604549407958984375">
        <ele>487.399993896484375</ele>
        <time>2026-08-21T10:41:21.000Z</time>
        <extensions>
          <ns3:TrackPointExtension>
            <ns3:hr>119</ns3:hr>
            <ns3:cad>0</ns3:cad>
          </ns3:TrackPointExtension>
        </extensions>
      </trkpt>
      <trkpt lat="45.3646986186504364013671875" lon="-70.80667261965572834014892578125">
        <ele>487.399993896484375</ele>
        <time>2026-08-21T10:41:22.000Z</time>
        <extensions>
          <ns3:TrackPointExtension>
            <ns3:hr>118</ns3:hr>
            <ns3:cad>0</ns3:cad>
          </ns3:TrackPointExtension>
        </extensions>
      </trkpt>
      <trkpt lat="45.36469836719334125518798828125" lon="-70.806672871112823486328125">
        <ele>487.399993896484375</ele>
        <time>2026-08-21T10:41:23.000Z</time>
        <extensions>
          <ns3:TrackPointExtension>
            <ns3:hr>116</ns3:hr>
            <ns3:cad>0</ns3:cad>
          </ns3:TrackPointExtension>
        </extensions>
      </trkpt>
      <trkpt lat="45.364697277545928955078125" lon="-70.80666993744671344757080078125">
        <ele>487.399993896484375</ele>
        <time>2026-08-21T10:41:24.000Z</time>
        <extensions>
          <ns3:TrackPointExtension>
            <ns3:hr>116</ns3:hr>
            <ns3:cad>0</ns3:cad>
          </ns3:TrackPointExtension>
        </extensions>
      </trkpt>
      <trkpt lat="45.36469258368015289306640625" lon="-70.80666675232350826263427734375">
        <ele>487.399993896484375</ele>
        <time>2026-08-21T10:41:25.000Z</time>
        <extensions>
          <ns3:TrackPointExtension>
            <ns3:hr>115</ns3:hr>
            <ns3:cad>0</ns3:cad>
          </ns3:TrackPointExtension>
        </extensions>
      </trkpt>
      <trkpt lat="45.3646850399672985076904296875" lon="-70.806661807000637054443359375">
        <ele>487.600006103515625</ele>
        <time>2026-08-21T10:41:26.000Z</time>
        <extensions>
          <ns3:TrackPointExtension>
            <ns3:hr>116</ns3:hr>
            <ns3:cad>0</ns3:cad>
          </ns3:TrackPointExtension>
        </extensions>
      </trkpt>
      <trkpt lat="45.364681184291839599609375" lon="-70.8066608011722564697265625">
        <ele>487.600006103515625</ele>
        <time>2026-08-21T10:41:27.000Z</time>
        <extensions>
          <ns3:TrackPointExtension>
            <ns3:hr>116</ns3:hr>
            <ns3:cad>62</ns3:cad>
          </ns3:TrackPointExtension>
        </extensions>
      </trkpt>
      <trkpt lat="45.36468026228249073028564453125" lon="-70.8066559396684169769287109375">
        <ele>487.79998779296875</ele>
        <time>2026-08-21T10:41:28.000Z</time>
        <extensions>
          <ns3:TrackPointExtension>
            <ns3:hr>117</ns3:hr>
            <ns3:cad>75</ns3:cad>
          </ns3:TrackPointExtension>
        </extensions>
      </trkpt>
      <trkpt lat="45.36467104218900203704833984375" lon="-70.80664093606173992156982421875">
        <ele>487.79998779296875</ele>
        <time>2026-08-21T10:41:29.000Z</time>
        <extensions>
          <ns3:TrackPointExtension>
            <ns3:hr>118</ns3:hr>
            <ns3:cad>75</ns3:cad>
          </ns3:TrackPointExtension>
        </extensions>
      </trkpt>
      <trkpt lat="45.3646598942577838897705078125" lon="-70.80663607455790042877197265625">
        <ele>488</ele>
        <time>2026-08-21T10:41:30.000Z</time>
        <extensions>
          <ns3:TrackPointExtension>
            <ns3:hr>118</ns3:hr>
            <ns3:cad>0</ns3:cad>
          </ns3:TrackPointExtension>
        </extensions>
      </trkpt>
      <trkpt lat="45.36465595476329326629638671875" lon="-70.80663557164371013641357421875">
        <ele>488</ele>
        <time>2026-08-21T10:41:31.000Z</time>
        <extensions>
          <ns3:TrackPointExtension>
            <ns3:hr>119</ns3:hr>
            <ns3:cad>0</ns3:cad>
          </ns3:TrackPointExtension>
        </extensions>
      </trkpt>
      <trkpt lat="45.36465503275394439697265625" lon="-70.8066385053098201751708984375">
        <ele>488</ele>
        <time>2026-08-21T10:41:32.000Z</time>
        <extensions>
          <ns3:TrackPointExtension>
            <ns3:hr>119</ns3:hr>
            <ns3:cad>0</ns3:cad>
          </ns3:TrackPointExtension>
        </extensions>
      </trkpt>
      <trkpt lat="45.36465578712522983551025390625" lon="-70.806632973253726959228515625">
        <ele>488.20001220703125</ele>
        <time>2026-08-21T10:41:33.000Z</time>
        <extensions>
          <ns3:TrackPointExtension>
            <ns3:hr>119</ns3:hr>
            <ns3:cad>0</ns3:cad>
          </ns3:TrackPointExtension>
        </extensions>
      </trkpt>
      <trkpt lat="45.36464371718466281890869140625" lon="-70.80662584863603115081787109375">
        <ele>488.600006103515625</ele>
        <time>2026-08-21T10:41:34.000Z</time>
        <extensions>
          <ns3:TrackPointExtension>
            <ns3:hr>119</ns3:hr>
            <ns3:cad>0</ns3:cad>
          </ns3:TrackPointExtension>
        </extensions>
      </trkpt>
      <trkpt lat="45.3646327368915081024169921875" lon="-70.80662216059863567352294921875">
        <ele>488.79998779296875</ele>
        <time>2026-08-21T10:41:35.000Z</time>
        <extensions>
          <ns3:TrackPointExtension>
            <ns3:hr>119</ns3:hr>
            <ns3:cad>0</ns3:cad>
          </ns3:TrackPointExtension>
        </extensions>
      </trkpt>
      <trkpt lat="45.3646153025329113006591796875" lon="-70.8066234178841114044189453125">
        <ele>489</ele>
        <time>2026-08-21T10:41:36.000Z</time>
        <extensions>
          <ns3:TrackPointExtension>
            <ns3:hr>120</ns3:hr>
            <ns3:cad>0</ns3:cad>
          </ns3:TrackPointExtension>
        </extensions>
      </trkpt>
      <trkpt lat="45.36460407078266143798828125" lon="-70.80661931075155735015869140625">
        <ele>489.399993896484375</ele>
        <time>2026-08-21T10:41:37.000Z</time>
        <extensions>
          <ns3:TrackPointExtension>
            <ns3:hr>119</ns3:hr>
            <ns3:cad>41</ns3:cad>
          </ns3:TrackPointExtension>
        </extensions>
      </trkpt>
      <trkpt lat="45.36459526978433132171630859375" lon="-70.80661185085773468017578125">
        <ele>489.399993896484375</ele>
        <time>2026-08-21T10:41:38.000Z</time>
        <extensions>
          <ns3:TrackPointExtension>
            <ns3:hr>119</ns3:hr>
            <ns3:cad>41</ns3:cad>
          </ns3:TrackPointExtension>
        </extensions>
      </trkpt>
      <trkpt lat="45.364586301147937774658203125" lon="-70.80660455860197544097900390625">
        <ele>489.600006103515625</ele>
        <time>2026-08-21T10:41:39.000Z</time>
        <extensions>
          <ns3:TrackPointExtension>
            <ns3:hr>119</ns3:hr>
            <ns3:cad>42</ns3:cad>
          </ns3:TrackPointExtension>
        </extensions>
      </trkpt>
      <trkpt lat="45.3645777516067028045654296875" lon="-70.8065905608236789703369140625">
        <ele>489.79998779296875</ele>
        <time>2026-08-21T10:41:40.000Z</time>
        <extensions>
          <ns3:TrackPointExtension>
            <ns3:hr>120</ns3:hr>
            <ns3:cad>42</ns3:cad>
          </ns3:TrackPointExtension>
        </extensions>
      </trkpt>
      <trkpt lat="45.364570207893848419189453125" lon="-70.80658628605306148529052734375">
        <ele>490</ele>
        <time>2026-08-21T10:41:41.000Z</time>
        <extensions>
          <ns3:TrackPointExtension>
            <ns3:hr>121</ns3:hr>
            <ns3:cad>42</ns3:cad>
          </ns3:TrackPointExtension>
        </extensions>
      </trkpt>
      <trkpt lat="45.36456174217164516448974609375" lon="-70.80658008344471454620361328125">
        <ele>490.20001220703125</ele>
        <time>2026-08-21T10:41:42.000Z</time>
        <extensions>
          <ns3:TrackPointExtension>
            <ns3:hr>122</ns3:hr>
            <ns3:cad>42</ns3:cad>
          </ns3:TrackPointExtension>
        </extensions>
      </trkpt>
      <trkpt lat="45.36455587483942508697509765625" lon="-70.8065794967114925384521484375">
        <ele>490.399993896484375</ele>
        <time>2026-08-21T10:41:43.000Z</time>
        <extensions>
          <ns3:TrackPointExtension>
            <ns3:hr>122</ns3:hr>
            <ns3:cad>42</ns3:cad>
          </ns3:TrackPointExtension>
        </extensions>
      </trkpt>
      <trkpt lat="45.36454715766012668609619140625" lon="-70.80657555721700191497802734375">
        <ele>490.600006103515625</ele>
        <time>2026-08-21T10:41:44.000Z</time>
        <extensions>
          <ns3:TrackPointExtension>
            <ns3:hr>121</ns3:hr>
            <ns3:cad>45</ns3:cad>
          </ns3:TrackPointExtension>
        </extensions>
      </trkpt>
      <trkpt lat="45.36454028449952602386474609375" lon="-70.806573964655399322509765625">
        <ele>490.79998779296875</ele>
        <time>2026-08-21T10:41:45.000Z</time>
        <extensions>
          <ns3:TrackPointExtension>
            <ns3:hr>121</ns3:hr>
            <ns3:cad>45</ns3:cad>
          </ns3:TrackPointExtension>
        </extensions>
      </trkpt>
      <trkpt lat="45.36453190259635448455810546875" lon="-70.80658041872084140777587890625">
        <ele>490.79998779296875</ele>
        <time>2026-08-21T10:41:46.000Z</time>
        <extensions>
          <ns3:TrackPointExtension>
            <ns3:hr>122</ns3:hr>
            <ns3:cad>43</ns3:cad>
          </ns3:TrackPointExtension>
        </extensions>
      </trkpt>
      <trkpt lat="45.36452000029385089874267578125" lon="-70.80658041872084140777587890625">
        <ele>491</ele>
        <time>2026-08-21T10:41:47.000Z</time>
        <extensions>
          <ns3:TrackPointExtension>
            <ns3:hr>122</ns3:hr>
            <ns3:cad>43</ns3:cad>
          </ns3:TrackPointExtension>
        </extensions>
      </trkpt>
      <trkpt lat="45.3645137138664722442626953125" lon="-70.80657002516090869903564453125">
        <ele>491</ele>
        <time>2026-08-21T10:41:48.000Z</time>
        <extensions>
          <ns3:TrackPointExtension>
            <ns3:hr>123</ns3:hr>
            <ns3:cad>46</ns3:cad>
          </ns3:TrackPointExtension>
        </extensions>
      </trkpt>
      <trkpt lat="45.3645036555826663970947265625" lon="-70.8065630681812763214111328125">
        <ele>491.20001220703125</ele>
        <time>2026-08-21T10:41:49.000Z</time>
        <extensions>
          <ns3:TrackPointExtension>
            <ns3:hr>124</ns3:hr>
            <ns3:cad>46</ns3:cad>
          </ns3:TrackPointExtension>
        </extensions>
      </trkpt>
      <trkpt lat="45.3644920885562896728515625" lon="-70.806554518640041351318359375">
        <ele>491.399993896484375</ele>
        <time>2026-08-21T10:41:50.000Z</time>
        <extensions>
          <ns3:TrackPointExtension>
            <ns3:hr>124</ns3:hr>
            <ns3:cad>46</ns3:cad>
          </ns3:TrackPointExtension>
        </extensions>
      </trkpt>
      <trkpt lat="45.36448295228183269500732421875" lon="-70.80654605291783809661865234375">
        <ele>491.399993896484375</ele>
        <time>2026-08-21T10:41:51.000Z</time>
        <extensions>
          <ns3:TrackPointExtension>
            <ns3:hr>124</ns3:hr>
            <ns3:cad>51</ns3:cad>
          </ns3:TrackPointExtension>
        </extensions>
      </trkpt>
      <trkpt lat="45.364472307264804840087890625" lon="-70.806539095938205718994140625">
        <ele>491.600006103515625</ele>
        <time>2026-08-21T10:41:52.000Z</time>
        <extensions>
          <ns3:TrackPointExtension>
            <ns3:hr>124</ns3:hr>
            <ns3:cad>51</ns3:cad>
          </ns3:TrackPointExtension>
        </extensions>
      </trkpt>
      <trkpt lat="45.36446057260036468505859375" lon="-70.80652945674955844879150390625">
        <ele>491.79998779296875</ele>
        <time>2026-08-21T10:41:53.000Z</time>
        <extensions>
          <ns3:TrackPointExtension>
            <ns3:hr>125</ns3:hr>
            <ns3:cad>51</ns3:cad>
          </ns3:TrackPointExtension>
        </extensions>
      </trkpt>
      <trkpt lat="45.36444716155529022216796875" lon="-70.80651889555156230926513671875">
        <ele>491.79998779296875</ele>
        <time>2026-08-21T10:41:54.000Z</time>
        <extensions>
          <ns3:TrackPointExtension>
            <ns3:hr>126</ns3:hr>
            <ns3:cad>51</ns3:cad>
          </ns3:TrackPointExtension>
        </extensions>
      </trkpt>
      <trkpt lat="45.36443643271923065185546875" lon="-70.80651386640965938568115234375">
        <ele>492</ele>
        <time>2026-08-21T10:41:55.000Z</time>
        <extensions>
          <ns3:TrackPointExtension>
            <ns3:hr>126</ns3:hr>
            <ns3:cad>51</ns3:cad>
          </ns3:TrackPointExtension>
        </extensions>
      </trkpt>
      <trkpt lat="45.36442662589251995086669921875" lon="-70.80651487223803997039794921875">
        <ele>492.20001220703125</ele>
        <time>2026-08-21T10:41:56.000Z</time>
        <extensions>
          <ns3:TrackPointExtension>
            <ns3:hr>126</ns3:hr>
            <ns3:cad>51</ns3:cad>
          </ns3:TrackPointExtension>
        </extensions>
      </trkpt>
      <trkpt lat="45.3644116222858428955078125" lon="-70.80651386640965938568115234375">
        <ele>492.399993896484375</ele>
        <time>2026-08-21T10:41:57.000Z</time>
        <extensions>
          <ns3:TrackPointExtension>
            <ns3:hr>127</ns3:hr>
            <ns3:cad>51</ns3:cad>
          </ns3:TrackPointExtension>
        </extensions>
      </trkpt>
      <trkpt lat="45.3643963672220706939697265625" lon="-70.806508921086788177490234375">
        <ele>492.600006103515625</ele>
        <time>2026-08-21T10:41:58.000Z</time>
        <extensions>
          <ns3:TrackPointExtension>
            <ns3:hr>127</ns3:hr>
            <ns3:cad>50</ns3:cad>
          </ns3:TrackPointExtension>
        </extensions>
      </trkpt>
      <trkpt lat="45.36438186652958393096923828125" lon="-70.8065027184784412384033203125">
        <ele>492.79998779296875</ele>
        <time>2026-08-21T10:41:59.000Z</time>
        <extensions>
          <ns3:TrackPointExtension>
            <ns3:hr>128</ns3:hr>
            <ns3:cad>50</ns3:cad>
          </ns3:TrackPointExtension>
        </extensions>
      </trkpt>
      <trkpt lat="45.36436912603676319122314453125" lon="-70.80649743787944316864013671875">
        <ele>492.79998779296875</ele>
        <time>2026-08-21T10:42:00.000Z</time>
        <extensions>
          <ns3:TrackPointExtension>
            <ns3:hr>128</ns3:hr>
            <ns3:cad>50</ns3:cad>
          </ns3:TrackPointExtension>
        </extensions>
      </trkpt>
      <trkpt lat="45.36435286514461040496826171875" lon="-70.80650012008845806121826171875">
        <ele>493</ele>
        <time>2026-08-21T10:42:01.000Z</time>
        <extensions>
          <ns3:TrackPointExtension>
            <ns3:hr>129</ns3:hr>
            <ns3:cad>48</ns3:cad>
          </ns3:TrackPointExtension>
        </extensions>
      </trkpt>
      <trkpt lat="45.36433316767215728759765625" lon="-70.8065033890306949615478515625">
        <ele>493</ele>
        <time>2026-08-21T10:42:02.000Z</time>
        <extensions>
          <ns3:TrackPointExtension>
            <ns3:hr>130</ns3:hr>
            <ns3:cad>48</ns3:cad>
          </ns3:TrackPointExtension>
        </extensions>
      </trkpt>
      <trkpt lat="45.364319421350955963134765625" lon="-70.80651185475289821624755859375">
        <ele>493</ele>
        <time>2026-08-21T10:42:03.000Z</time>
        <extensions>
          <ns3:TrackPointExtension>
            <ns3:hr>130</ns3:hr>
            <ns3:cad>47</ns3:cad>
          </ns3:TrackPointExtension>
        </extensions>
      </trkpt>
      <trkpt lat="45.3643055073916912078857421875" lon="-70.8065213263034820556640625">
        <ele>492.79998779296875</ele>
        <time>2026-08-21T10:42:04.000Z</time>
        <extensions>
          <ns3:TrackPointExtension>
            <ns3:hr>131</ns3:hr>
            <ns3:cad>47</ns3:cad>
          </ns3:TrackPointExtension>
        </extensions>
      </trkpt>
      <trkpt lat="45.36430726759135723114013671875" lon="-70.80652560107409954071044921875">
        <ele>492.79998779296875</ele>
        <time>2026-08-21T10:42:05.000Z</time>
        <extensions>
          <ns3:TrackPointExtension>
            <ns3:hr>131</ns3:hr>
            <ns3:cad>0</ns3:cad>
          </ns3:TrackPointExtension>
        </extensions>
      </trkpt>
      <trkpt lat="45.36430894397199153900146484375" lon="-70.8065281994640827178955078125">
        <ele>492.79998779296875</ele>
        <time>2026-08-21T10:42:06.000Z</time>
        <extensions>
          <ns3:TrackPointExtension>
            <ns3:hr>131</ns3:hr>
            <ns3:cad>0</ns3:cad>
          </ns3:TrackPointExtension>
        </extensions>
      </trkpt>
      <trkpt lat="45.36430894397199153900146484375" lon="-70.80652811564505100250244140625">
        <ele>492.79998779296875</ele>
        <time>2026-08-21T10:42:07.000Z</time>
        <extensions>
          <ns3:TrackPointExtension>
            <ns3:hr>132</ns3:hr>
            <ns3:cad>0</ns3:cad>
          </ns3:TrackPointExtension>
        </extensions>
      </trkpt>
      <trkpt lat="45.36430894397199153900146484375" lon="-70.80652811564505100250244140625">
        <ele>492.79998779296875</ele>
        <time>2026-08-21T10:42:08.000Z</time>
        <extensions>
          <ns3:TrackPointExtension>
            <ns3:hr>132</ns3:hr>
            <ns3:cad>0</ns3:cad>
          </ns3:TrackPointExtension>
        </extensions>
      </trkpt>
      <trkpt lat="45.36430894397199153900146484375" lon="-70.80652811564505100250244140625">
        <ele>492.79998779296875</ele>
        <time>2026-08-21T10:42:09.000Z</time>
        <extensions>
          <ns3:TrackPointExtension>
            <ns3:hr>130</ns3:hr>
            <ns3:cad>0</ns3:cad>
          </ns3:TrackPointExtension>
        </extensions>
      </trkpt>
      <trkpt lat="45.36430894397199153900146484375" lon="-70.80652811564505100250244140625">
        <ele>492.79998779296875</ele>
        <time>2026-08-21T10:42:10.000Z</time>
        <extensions>
          <ns3:TrackPointExtension>
            <ns3:hr>128</ns3:hr>
            <ns3:cad>0</ns3:cad>
          </ns3:TrackPointExtension>
        </extensions>
      </trkpt>
      <trkpt lat="45.36430894397199153900146484375" lon="-70.80652811564505100250244140625">
        <ele>492.79998779296875</ele>
        <time>2026-08-21T10:42:11.000Z</time>
        <extensions>
          <ns3:TrackPointExtension>
            <ns3:hr>126</ns3:hr>
            <ns3:cad>0</ns3:cad>
          </ns3:TrackPointExtension>
        </extensions>
      </trkpt>
      <trkpt lat="45.36430894397199153900146484375" lon="-70.80652811564505100250244140625">
        <ele>492.79998779296875</ele>
        <time>2026-08-21T10:42:12.000Z</time>
        <extensions>
          <ns3:TrackPointExtension>
            <ns3:hr>126</ns3:hr>
            <ns3:cad>0</ns3:cad>
          </ns3:TrackPointExtension>
        </extensions>
      </trkpt>
      <trkpt lat="45.36430894397199153900146484375" lon="-70.80652811564505100250244140625">
        <ele>492.79998779296875</ele>
        <time>2026-08-21T10:42:13.000Z</time>
        <extensions>
          <ns3:TrackPointExtension>
            <ns3:hr>125</ns3:hr>
            <ns3:cad>0</ns3:cad>
          </ns3:TrackPointExtension>
        </extensions>
      </trkpt>
      <trkpt lat="45.36430894397199153900146484375" lon="-70.80652811564505100250244140625">
        <ele>492.79998779296875</ele>
        <time>2026-08-21T10:42:14.000Z</time>
        <extensions>
          <ns3:TrackPointExtension>
            <ns3:hr>124</ns3:hr>
            <ns3:cad>0</ns3:cad>
          </ns3:TrackPointExtension>
        </extensions>
      </trkpt>
      <trkpt lat="45.36430894397199153900146484375" lon="-70.80652811564505100250244140625">
        <ele>492.79998779296875</ele>
        <time>2026-08-21T10:42:15.000Z</time>
        <extensions>
          <ns3:TrackPointExtension>
            <ns3:hr>122</ns3:hr>
            <ns3:cad>0</ns3:cad>
          </ns3:TrackPointExtension>
        </extensions>
      </trkpt>
      <trkpt lat="45.36430894397199153900146484375" lon="-70.80652811564505100250244140625">
        <ele>492.79998779296875</ele>
        <time>2026-08-21T10:42:16.000Z</time>
        <extensions>
          <ns3:TrackPointExtension>
            <ns3:hr>120</ns3:hr>
            <ns3:cad>0</ns3:cad>
          </ns3:TrackPointExtension>
        </extensions>
      </trkpt>
      <trkpt lat="45.36430894397199153900146484375" lon="-70.80652811564505100250244140625">
        <ele>492.79998779296875</ele>
        <time>2026-08-21T10:42:17.000Z</time>
        <extensions>
          <ns3:TrackPointExtension>
            <ns3:hr>118</ns3:hr>
            <ns3:cad>0</ns3:cad>
          </ns3:TrackPointExtension>
        </extensions>
      </trkpt>
      <trkpt lat="45.36430894397199153900146484375" lon="-70.80652811564505100250244140625">
        <ele>492.79998779296875</ele>
        <time>2026-08-21T10:42:18.000Z</time>
        <extensions>
          <ns3:TrackPointExtension>
            <ns3:hr>117</ns3:hr>
            <ns3:cad>0</ns3:cad>
          </ns3:TrackPointExtension>
        </extensions>
      </trkpt>
      <trkpt lat="45.36430894397199153900146484375" lon="-70.80652811564505100250244140625">
        <ele>492.79998779296875</ele>
        <time>2026-08-21T10:42:19.000Z</time>
        <extensions>
          <ns3:TrackPointExtension>
            <ns3:hr>117</ns3:hr>
            <ns3:cad>0</ns3:cad>
          </ns3:TrackPointExtension>
        </extensions>
      </trkpt>
      <trkpt lat="45.36430894397199153900146484375" lon="-70.80652811564505100250244140625">
        <ele>492.79998779296875</ele>
        <time>2026-08-21T10:42:20.000Z</time>
        <extensions>
          <ns3:TrackPointExtension>
            <ns3:hr>117</ns3:hr>
            <ns3:cad>0</ns3:cad>
          </ns3:TrackPointExtension>
        </extensions>
      </trkpt>
      <trkpt lat="45.36430894397199153900146484375" lon="-70.80652811564505100250244140625">
        <ele>492.79998779296875</ele>
        <time>2026-08-21T10:42:21.000Z</time>
        <extensions>
          <ns3:TrackPointExtension>
            <ns3:hr>118</ns3:hr>
            <ns3:cad>0</ns3:cad>
          </ns3:TrackPointExtension>
        </extensions>
      </trkpt>
      <trkpt lat="45.36430894397199153900146484375" lon="-70.80652811564505100250244140625">
        <ele>492.79998779296875</ele>
        <time>2026-08-21T10:42:22.000Z</time>
        <extensions>
          <ns3:TrackPointExtension>
            <ns3:hr>119</ns3:hr>
            <ns3:cad>0</ns3:cad>
          </ns3:TrackPointExtension>
        </extensions>
      </trkpt>
      <trkpt lat="45.36430894397199153900146484375" lon="-70.80652811564505100250244140625">
        <ele>492.79998779296875</ele>
        <time>2026-08-21T10:42:23.000Z</time>
        <extensions>
          <ns3:TrackPointExtension>
            <ns3:hr>120</ns3:hr>
            <ns3:cad>0</ns3:cad>
          </ns3:TrackPointExtension>
        </extensions>
      </trkpt>
      <trkpt lat="45.36430894397199153900146484375" lon="-70.80652811564505100250244140625">
        <ele>492.79998779296875</ele>
        <time>2026-08-21T10:42:24.000Z</time>
        <extensions>
          <ns3:TrackPointExtension>
            <ns3:hr>120</ns3:hr>
            <ns3:cad>0</ns3:cad>
          </ns3:TrackPointExtension>
        </extensions>
      </trkpt>
      <trkpt lat="45.36430894397199153900146484375" lon="-70.80652811564505100250244140625">
        <ele>492.79998779296875</ele>
        <time>2026-08-21T10:42:25.000Z</time>
        <extensions>
          <ns3:TrackPointExtension>
            <ns3:hr>120</ns3:hr>
            <ns3:cad>0</ns3:cad>
          </ns3:TrackPointExtension>
        </extensions>
      </trkpt>
      <trkpt lat="45.36430894397199153900146484375" lon="-70.80652811564505100250244140625">
        <ele>492.79998779296875</ele>
        <time>2026-08-21T10:42:26.000Z</time>
        <extensions>
          <ns3:TrackPointExtension>
            <ns3:hr>120</ns3:hr>
            <ns3:cad>0</ns3:cad>
          </ns3:TrackPointExtension>
        </extensions>
      </trkpt>
      <trkpt lat="45.3643102012574672698974609375" lon="-70.80651705153286457061767578125">
        <ele>492.79998779296875</ele>
        <time>2026-08-21T10:42:27.000Z</time>
        <extensions>
          <ns3:TrackPointExtension>
            <ns3:hr>120</ns3:hr>
            <ns3:cad>0</ns3:cad>
          </ns3:TrackPointExtension>
        </extensions>
      </trkpt>
      <trkpt lat="45.3643065132200717926025390625" lon="-70.80651721917092800140380859375">
        <ele>492.79998779296875</ele>
        <time>2026-08-21T10:42:28.000Z</time>
        <extensions>
          <ns3:TrackPointExtension>
            <ns3:hr>120</ns3:hr>
            <ns3:cad>0</ns3:cad>
          </ns3:TrackPointExtension>
        </extensions>
      </trkpt>
      <trkpt lat="45.36429637111723423004150390625" lon="-70.80652241595089435577392578125">
        <ele>492.79998779296875</ele>
        <time>2026-08-21T10:42:29.000Z</time>
        <extensions>
          <ns3:TrackPointExtension>
            <ns3:hr>120</ns3:hr>
            <ns3:cad>0</ns3:cad>
          </ns3:TrackPointExtension>
        </extensions>
      </trkpt>
      <trkpt lat="45.36428513936698436737060546875" lon="-70.80652602016925811767578125">
        <ele>492.79998779296875</ele>
        <time>2026-08-21T10:42:30.000Z</time>
        <extensions>
          <ns3:TrackPointExtension>
            <ns3:hr>119</ns3:hr>
            <ns3:cad>0</ns3:cad>
          </ns3:TrackPointExtension>
        </extensions>
      </trkpt>
      <trkpt lat="45.3642793558537960052490234375" lon="-70.8065315522253513336181640625">
        <ele>493</ele>
        <time>2026-08-21T10:42:31.000Z</time>
        <extensions>
          <ns3:TrackPointExtension>
            <ns3:hr>120</ns3:hr>
            <ns3:cad>0</ns3:cad>
          </ns3:TrackPointExtension>
        </extensions>
      </trkpt>
      <trkpt lat="45.3642703033983707427978515625" lon="-70.80653540790081024169921875">
        <ele>493.20001220703125</ele>
        <time>2026-08-21T10:42:32.000Z</time>
        <extensions>
          <ns3:TrackPointExtension>
            <ns3:hr>120</ns3:hr>
            <ns3:cad>0</ns3:cad>
          </ns3:TrackPointExtension>
        </extensions>
      </trkpt>
      <trkpt lat="45.36425940692424774169921875" lon="-70.80654152669012546539306640625">
        <ele>493.399993896484375</ele>
        <time>2026-08-21T10:42:33.000Z</time>
        <extensions>
          <ns3:TrackPointExtension>
            <ns3:hr>120</ns3:hr>
            <ns3:cad>50</ns3:cad>
          </ns3:TrackPointExtension>
        </extensions>
      </trkpt>
      <trkpt lat="45.36425228230655193328857421875" lon="-70.80655024386942386627197265625">
        <ele>493.600006103515625</ele>
        <time>2026-08-21T10:42:34.000Z</time>
        <extensions>
          <ns3:TrackPointExtension>
            <ns3:hr>119</ns3:hr>
            <ns3:cad>50</ns3:cad>
          </ns3:TrackPointExtension>
        </extensions>
      </trkpt>
      <trkpt lat="45.36423987708985805511474609375" lon="-70.8065523393452167510986328125">
        <ele>493.79998779296875</ele>
        <time>2026-08-21T10:42:35.000Z</time>
        <extensions>
          <ns3:TrackPointExtension>
            <ns3:hr>120</ns3:hr>
            <ns3:cad>50</ns3:cad>
          </ns3:TrackPointExtension>
        </extensions>
      </trkpt>
      <trkpt lat="45.36423048935830593109130859375" lon="-70.80655342899262905120849609375">
        <ele>494.20001220703125</ele>
        <time>2026-08-21T10:42:36.000Z</time>
        <extensions>
          <ns3:TrackPointExtension>
            <ns3:hr>120</ns3:hr>
            <ns3:cad>48</ns3:cad>
          </ns3:TrackPointExtension>
        </extensions>
      </trkpt>
      <trkpt lat="45.36421917378902435302734375" lon="-70.80655694939196109771728515625">
        <ele>494.399993896484375</ele>
        <time>2026-08-21T10:42:37.000Z</time>
        <extensions>
          <ns3:TrackPointExtension>
            <ns3:hr>121</ns3:hr>
            <ns3:cad>48</ns3:cad>
          </ns3:TrackPointExtension>
        </extensions>
      </trkpt>
      <trkpt lat="45.36420634947717189788818359375" lon="-70.80656516365706920623779296875">
        <ele>494.79998779296875</ele>
        <time>2026-08-21T10:42:38.000Z</time>
        <extensions>
          <ns3:TrackPointExtension>
            <ns3:hr>121</ns3:hr>
            <ns3:cad>47</ns3:cad>
          </ns3:TrackPointExtension>
        </extensions>
      </trkpt>
      <trkpt lat="45.36419637501239776611328125" lon="-70.8065664209425449371337890625">
        <ele>495.20001220703125</ele>
        <time>2026-08-21T10:42:39.000Z</time>
        <extensions>
          <ns3:TrackPointExtension>
            <ns3:hr>121</ns3:hr>
            <ns3:cad>47</ns3:cad>
          </ns3:TrackPointExtension>
        </extensions>
      </trkpt>
      <trkpt lat="45.36418707109987735748291015625" lon="-70.80657002516090869903564453125">
        <ele>495.399993896484375</ele>
        <time>2026-08-21T10:42:40.000Z</time>
        <extensions>
          <ns3:TrackPointExtension>
            <ns3:hr>122</ns3:hr>
            <ns3:cad>47</ns3:cad>
          </ns3:TrackPointExtension>
        </extensions>
      </trkpt>
      <trkpt lat="45.36418103612959384918212890625" lon="-70.80657807178795337677001953125">
        <ele>495.79998779296875</ele>
        <time>2026-08-21T10:42:41.000Z</time>
        <extensions>
          <ns3:TrackPointExtension>
            <ns3:hr>121</ns3:hr>
            <ns3:cad>46</ns3:cad>
          </ns3:TrackPointExtension>
        </extensions>
      </trkpt>
      <trkpt lat="45.3641755878925323486328125" lon="-70.8065905608236789703369140625">
        <ele>496</ele>
        <time>2026-08-21T10:42:42.000Z</time>
        <extensions>
          <ns3:TrackPointExtension>
            <ns3:hr>121</ns3:hr>
            <ns3:cad>46</ns3:cad>
          </ns3:TrackPointExtension>
        </extensions>
      </trkpt>
      <trkpt lat="45.36416695453226566314697265625" lon="-70.80660657025873661041259765625">
        <ele>496.399993896484375</ele>
        <time>2026-08-21T10:42:43.000Z</time>
        <extensions>
          <ns3:TrackPointExtension>
            <ns3:hr>121</ns3:hr>
            <ns3:cad>46</ns3:cad>
          </ns3:TrackPointExtension>
        </extensions>
      </trkpt>
      <trkpt lat="45.36416150629520416259765625" lon="-70.80661998130381107330322265625">
        <ele>496.600006103515625</ele>
        <time>2026-08-21T10:42:44.000Z</time>
        <extensions>
          <ns3:TrackPointExtension>
            <ns3:hr>122</ns3:hr>
            <ns3:cad>46</ns3:cad>
          </ns3:TrackPointExtension>
        </extensions>
      </trkpt>
      <trkpt lat="45.36415706388652324676513671875" lon="-70.80662316642701625823974609375">
        <ele>496.600006103515625</ele>
        <time>2026-08-21T10:42:45.000Z</time>
        <extensions>
          <ns3:TrackPointExtension>
            <ns3:hr>121</ns3:hr>
            <ns3:cad>0</ns3:cad>
          </ns3:TrackPointExtension>
        </extensions>
      </trkpt>
      <trkpt lat="45.36415480077266693115234375" lon="-70.80662400461733341217041015625">
        <ele>496.79998779296875</ele>
        <time>2026-08-21T10:42:46.000Z</time>
        <extensions>
          <ns3:TrackPointExtension>
            <ns3:hr>122</ns3:hr>
            <ns3:cad>0</ns3:cad>
          </ns3:TrackPointExtension>
        </extensions>
      </trkpt>
      <trkpt lat="45.36415572278201580047607421875" lon="-70.80662165768444538116455078125">
        <ele>496.79998779296875</ele>
        <time>2026-08-21T10:42:47.000Z</time>
        <extensions>
          <ns3:TrackPointExtension>
            <ns3:hr>122</ns3:hr>
            <ns3:cad>0</ns3:cad>
          </ns3:TrackPointExtension>
        </extensions>
      </trkpt>
      <trkpt lat="45.36415672861039638519287109375" lon="-70.80662366934120655059814453125">
        <ele>496.79998779296875</ele>
        <time>2026-08-21T10:42:48.000Z</time>
        <extensions>
          <ns3:TrackPointExtension>
            <ns3:hr>123</ns3:hr>
            <ns3:cad>0</ns3:cad>
          </ns3:TrackPointExtension>
        </extensions>
      </trkpt>
      <trkpt lat="45.36415672861039638519287109375" lon="-70.8066237531602382659912109375">
        <ele>496.600006103515625</ele>
        <time>2026-08-21T10:42:49.000Z</time>
        <extensions>
          <ns3:TrackPointExtension>
            <ns3:hr>123</ns3:hr>
            <ns3:cad>0</ns3:cad>
          </ns3:TrackPointExtension>
        </extensions>
      </trkpt>
      <trkpt lat="45.36414901725947856903076171875" lon="-70.8066408522427082061767578125">
        <ele>496.600006103515625</ele>
        <time>2026-08-21T10:42:50.000Z</time>
        <extensions>
          <ns3:TrackPointExtension>
            <ns3:hr>124</ns3:hr>
            <ns3:cad>0</ns3:cad>
          </ns3:TrackPointExtension>
        </extensions>
      </trkpt>
      <trkpt lat="45.36414281465113162994384765625" lon="-70.8066549338400363922119140625">
        <ele>496.600006103515625</ele>
        <time>2026-08-21T10:42:51.000Z</time>
        <extensions>
          <ns3:TrackPointExtension>
            <ns3:hr>125</ns3:hr>
            <ns3:cad>0</ns3:cad>
          </ns3:TrackPointExtension>
        </extensions>
      </trkpt>
      <trkpt lat="45.36413594149053096771240234375" lon="-70.8066763915121555328369140625">
        <ele>496.600006103515625</ele>
        <time>2026-08-21T10:42:52.000Z</time>
        <extensions>
          <ns3:TrackPointExtension>
            <ns3:hr>126</ns3:hr>
            <ns3:cad>0</ns3:cad>
          </ns3:TrackPointExtension>
        </extensions>
      </trkpt>
      <trkpt lat="45.3641299903392791748046875" lon="-70.8066991902887821197509765625">
        <ele>496.600006103515625</ele>
        <time>2026-08-21T10:42:53.000Z</time>
        <extensions>
          <ns3:TrackPointExtension>
            <ns3:hr>125</ns3:hr>
            <ns3:cad>0</ns3:cad>
          </ns3:TrackPointExtension>
        </extensions>
      </trkpt>
      <trkpt lat="45.36412068642675876617431640625" lon="-70.8067216537892818450927734375">
        <ele>496.600006103515625</ele>
        <time>2026-08-21T10:42:54.000Z</time>
        <extensions>
          <ns3:TrackPointExtension>
            <ns3:hr>125</ns3:hr>
            <ns3:cad>0</ns3:cad>
          </ns3:TrackPointExtension>
        </extensions>
      </trkpt>
      <trkpt lat="45.36411398090422153472900390625" lon="-70.80674671567976474761962890625">
        <ele>496.79998779296875</ele>
        <time>2026-08-21T10:42:55.000Z</time>
        <extensions>
          <ns3:TrackPointExtension>
            <ns3:hr>125</ns3:hr>
            <ns3:cad>54</ns3:cad>
          </ns3:TrackPointExtension>
        </extensions>
      </trkpt>
      <trkpt lat="45.36410442553460597991943359375" lon="-70.80677169375121593475341796875">
        <ele>496.79998779296875</ele>
        <time>2026-08-21T10:42:56.000Z</time>
        <extensions>
          <ns3:TrackPointExtension>
            <ns3:hr>125</ns3:hr>
            <ns3:cad>54</ns3:cad>
          </ns3:TrackPointExtension>
        </extensions>
      </trkpt>
      <trkpt lat="45.36409386433660984039306640625" lon="-70.80678795464336872100830078125">
        <ele>496.79998779296875</ele>
        <time>2026-08-21T10:42:57.000Z</time>
        <extensions>
          <ns3:TrackPointExtension>
            <ns3:hr>125</ns3:hr>
            <ns3:cad>55</ns3:cad>
          </ns3:TrackPointExtension>
        </extensions>
      </trkpt>
      <trkpt lat="45.36408347077667713165283203125" lon="-70.806801952421665191650390625">
        <ele>497</ele>
        <time>2026-08-21T10:42:58.000Z</time>
        <extensions>
          <ns3:TrackPointExtension>
            <ns3:hr>125</ns3:hr>
            <ns3:cad>55</ns3:cad>
          </ns3:TrackPointExtension>
        </extensions>
      </trkpt>
      <trkpt lat="45.3640745021402835845947265625" lon="-70.80681812949478626251220703125">
        <ele>497</ele>
        <time>2026-08-21T10:42:59.000Z</time>
        <extensions>
          <ns3:TrackPointExtension>
            <ns3:hr>125</ns3:hr>
            <ns3:cad>55</ns3:cad>
          </ns3:TrackPointExtension>
        </extensions>
      </trkpt>
      <trkpt lat="45.36406628787517547607421875" lon="-70.80682902596890926361083984375">
        <ele>497</ele>
        <time>2026-08-21T10:43:00.000Z</time>
        <extensions>
          <ns3:TrackPointExtension>
            <ns3:hr>125</ns3:hr>
            <ns3:cad>55</ns3:cad>
          </ns3:TrackPointExtension>
        </extensions>
      </trkpt>
      <trkpt lat="45.3640610910952091217041015625" lon="-70.806846879422664642333984375">
        <ele>497</ele>
        <time>2026-08-21T10:43:01.000Z</time>
        <extensions>
          <ns3:TrackPointExtension>
            <ns3:hr>126</ns3:hr>
            <ns3:cad>55</ns3:cad>
          </ns3:TrackPointExtension>
        </extensions>
      </trkpt>
      <trkpt lat="45.3640510328114032745361328125" lon="-70.8068641461431980133056640625">
        <ele>497</ele>
        <time>2026-08-21T10:43:02.000Z</time>
        <extensions>
          <ns3:TrackPointExtension>
            <ns3:hr>127</ns3:hr>
            <ns3:cad>52</ns3:cad>
          </ns3:TrackPointExtension>
        </extensions>
      </trkpt>
      <trkpt lat="45.364043824374675750732421875" lon="-70.8068805746734142303466796875">
        <ele>497</ele>
        <time>2026-08-21T10:43:03.000Z</time>
        <extensions>
          <ns3:TrackPointExtension>
            <ns3:hr>127</ns3:hr>
            <ns3:cad>52</ns3:cad>
          </ns3:TrackPointExtension>
        </extensions>
      </trkpt>
      <trkpt lat="45.3640361130237579345703125" lon="-70.8068993501365184783935546875">
        <ele>497.20001220703125</ele>
        <time>2026-08-21T10:43:04.000Z</time>
        <extensions>
          <ns3:TrackPointExtension>
            <ns3:hr>127</ns3:hr>
            <ns3:cad>51</ns3:cad>
          </ns3:TrackPointExtension>
        </extensions>
      </trkpt>
      <trkpt lat="45.364026390016078948974609375" lon="-70.80692273564636707305908203125">
        <ele>497.20001220703125</ele>
        <time>2026-08-21T10:43:05.000Z</time>
        <extensions>
          <ns3:TrackPointExtension>
            <ns3:hr>127</ns3:hr>
            <ns3:cad>51</ns3:cad>
          </ns3:TrackPointExtension>
        </extensions>
      </trkpt>
      <trkpt lat="45.36402211524546146392822265625" lon="-70.80693715251982212066650390625">
        <ele>497.20001220703125</ele>
        <time>2026-08-21T10:43:06.000Z</time>
        <extensions>
          <ns3:TrackPointExtension>
            <ns3:hr>127</ns3:hr>
            <ns3:cad>50</ns3:cad>
          </ns3:TrackPointExtension>
        </extensions>
      </trkpt>
      <trkpt lat="45.36401792429387569427490234375" lon="-70.80695458687841892242431640625">
        <ele>497.399993896484375</ele>
        <time>2026-08-21T10:43:07.000Z</time>
        <extensions>
          <ns3:TrackPointExtension>
            <ns3:hr>126</ns3:hr>
            <ns3:cad>50</ns3:cad>
          </ns3:TrackPointExtension>
        </extensions>
      </trkpt>
      <trkpt lat="45.3640148229897022247314453125" lon="-70.8069677464663982391357421875">
        <ele>497.399993896484375</ele>
        <time>2026-08-21T10:43:08.000Z</time>
        <extensions>
          <ns3:TrackPointExtension>
            <ns3:hr>126</ns3:hr>
            <ns3:cad>50</ns3:cad>
          </ns3:TrackPointExtension>
        </extensions>
      </trkpt>
      <trkpt lat="45.36400769837200641632080078125" lon="-70.80698392353951930999755859375">
        <ele>497.600006103515625</ele>
        <time>2026-08-21T10:43:09.000Z</time>
        <extensions>
          <ns3:TrackPointExtension>
            <ns3:hr>126</ns3:hr>
            <ns3:cad>50</ns3:cad>
          </ns3:TrackPointExtension>
        </extensions>
      </trkpt>
      <trkpt lat="45.36400199867784976959228515625" lon="-70.8069999329745769500732421875">
        <ele>497.600006103515625</ele>
        <time>2026-08-21T10:43:10.000Z</time>
        <extensions>
          <ns3:TrackPointExtension>
            <ns3:hr>127</ns3:hr>
            <ns3:cad>50</ns3:cad>
          </ns3:TrackPointExtension>
        </extensions>
      </trkpt>
      <trkpt lat="45.363994538784027099609375" lon="-70.80701493658125400543212890625">
        <ele>497.600006103515625</ele>
        <time>2026-08-21T10:43:11.000Z</time>
        <extensions>
          <ns3:TrackPointExtension>
            <ns3:hr>126</ns3:hr>
            <ns3:cad>48</ns3:cad>
          </ns3:TrackPointExtension>
        </extensions>
      </trkpt>
      <trkpt lat="45.363987497985363006591796875" lon="-70.80702985636889934539794921875">
        <ele>497.79998779296875</ele>
        <time>2026-08-21T10:43:12.000Z</time>
        <extensions>
          <ns3:TrackPointExtension>
            <ns3:hr>126</ns3:hr>
            <ns3:cad>48</ns3:cad>
          </ns3:TrackPointExtension>
        </extensions>
      </trkpt>
      <trkpt lat="45.36398054100573062896728515625" lon="-70.807044021785259246826171875">
        <ele>497.79998779296875</ele>
        <time>2026-08-21T10:43:13.000Z</time>
        <extensions>
          <ns3:TrackPointExtension>
            <ns3:hr>126</ns3:hr>
            <ns3:cad>48</ns3:cad>
          </ns3:TrackPointExtension>
        </extensions>
      </trkpt>
      <trkpt lat="45.363979451358318328857421875" lon="-70.80705785192549228668212890625">
        <ele>498</ele>
        <time>2026-08-21T10:43:14.000Z</time>
        <extensions>
          <ns3:TrackPointExtension>
            <ns3:hr>127</ns3:hr>
            <ns3:cad>48</ns3:cad>
          </ns3:TrackPointExtension>
        </extensions>
      </trkpt>
      <trkpt lat="45.36397635005414485931396484375" lon="-70.80707143060863018035888671875">
        <ele>498.20001220703125</ele>
        <time>2026-08-21T10:43:15.000Z</time>
        <extensions>
          <ns3:TrackPointExtension>
            <ns3:hr>126</ns3:hr>
            <ns3:cad>48</ns3:cad>
          </ns3:TrackPointExtension>
        </extensions>
      </trkpt>
      <trkpt lat="45.36396997980773448944091796875" lon="-70.8070887811481952667236328125">
        <ele>498.399993896484375</ele>
        <time>2026-08-21T10:43:16.000Z</time>
        <extensions>
          <ns3:TrackPointExtension>
            <ns3:hr>126</ns3:hr>
            <ns3:cad>48</ns3:cad>
          </ns3:TrackPointExtension>
        </extensions>
      </trkpt>
      <trkpt lat="45.36396746523678302764892578125" lon="-70.8071119152009487152099609375">
        <ele>498.399993896484375</ele>
        <time>2026-08-21T10:43:17.000Z</time>
        <extensions>
          <ns3:TrackPointExtension>
            <ns3:hr>126</ns3:hr>
            <ns3:cad>48</ns3:cad>
          </ns3:TrackPointExtension>
        </extensions>
      </trkpt>
      <trkpt lat="45.36396612413227558135986328125" lon="-70.807137228548526763916015625">
        <ele>498.399993896484375</ele>
        <time>2026-08-21T10:43:18.000Z</time>
        <extensions>
          <ns3:TrackPointExtension>
            <ns3:hr>126</ns3:hr>
            <ns3:cad>52</ns3:cad>
          </ns3:TrackPointExtension>
        </extensions>
      </trkpt>
      <trkpt lat="45.3639618493616580963134765625" lon="-70.80716195516288280487060546875">
        <ele>498.399993896484375</ele>
        <time>2026-08-21T10:43:19.000Z</time>
        <extensions>
          <ns3:TrackPointExtension>
            <ns3:hr>125</ns3:hr>
            <ns3:cad>52</ns3:cad>
          </ns3:TrackPointExtension>
        </extensions>
      </trkpt>
      <trkpt lat="45.36395623348653316497802734375" lon="-70.80718089826405048370361328125">
        <ele>498.399993896484375</ele>
        <time>2026-08-21T10:43:20.000Z</time>
        <extensions>
          <ns3:TrackPointExtension>
            <ns3:hr>125</ns3:hr>
            <ns3:cad>52</ns3:cad>
          </ns3:TrackPointExtension>
        </extensions>
      </trkpt>
      <trkpt lat="45.36394961178302764892578125" lon="-70.80720059573650360107421875">
        <ele>498.600006103515625</ele>
        <time>2026-08-21T10:43:21.000Z</time>
        <extensions>
          <ns3:TrackPointExtension>
            <ns3:hr>125</ns3:hr>
            <ns3:cad>52</ns3:cad>
          </ns3:TrackPointExtension>
        </extensions>
      </trkpt>
      <trkpt lat="45.36394835449755191802978515625" lon="-70.807215683162212371826171875">
        <ele>498.600006103515625</ele>
        <time>2026-08-21T10:43:22.000Z</time>
        <extensions>
          <ns3:TrackPointExtension>
            <ns3:hr>125</ns3:hr>
            <ns3:cad>52</ns3:cad>
          </ns3:TrackPointExtension>
        </extensions>
      </trkpt>
      <trkpt lat="45.36394718103110790252685546875" lon="-70.80722917802631855010986328125">
        <ele>498.79998779296875</ele>
        <time>2026-08-21T10:43:23.000Z</time>
        <extensions>
          <ns3:TrackPointExtension>
            <ns3:hr>125</ns3:hr>
            <ns3:cad>55</ns3:cad>
          </ns3:TrackPointExtension>
        </extensions>
      </trkpt>
      <trkpt lat="45.36394265480339527130126953125" lon="-70.80724091269075870513916015625">
        <ele>499</ele>
        <time>2026-08-21T10:43:24.000Z</time>
        <extensions>
          <ns3:TrackPointExtension>
            <ns3:hr>125</ns3:hr>
            <ns3:cad>54</ns3:cad>
          </ns3:TrackPointExtension>
        </extensions>
      </trkpt>
      <trkpt lat="45.363934524357318878173828125" lon="-70.8072554133832454681396484375">
        <ele>499.20001220703125</ele>
        <time>2026-08-21T10:43:25.000Z</time>
        <extensions>
          <ns3:TrackPointExtension>
            <ns3:hr>124</ns3:hr>
            <ns3:cad>52</ns3:cad>
          </ns3:TrackPointExtension>
        </extensions>
      </trkpt>
      <trkpt lat="45.36393083631992340087890625" lon="-70.8072688244283199310302734375">
        <ele>499.399993896484375</ele>
        <time>2026-08-21T10:43:26.000Z</time>
        <extensions>
          <ns3:TrackPointExtension>
            <ns3:hr>125</ns3:hr>
            <ns3:cad>51</ns3:cad>
          </ns3:TrackPointExtension>
        </extensions>
      </trkpt>
      <trkpt lat="45.36392454989254474639892578125" lon="-70.807288773357868194580078125">
        <ele>499.79998779296875</ele>
        <time>2026-08-21T10:43:27.000Z</time>
        <extensions>
          <ns3:TrackPointExtension>
            <ns3:hr>124</ns3:hr>
            <ns3:cad>51</ns3:cad>
          </ns3:TrackPointExtension>
        </extensions>
      </trkpt>
      <trkpt lat="45.363922119140625" lon="-70.80730629153549671173095703125">
        <ele>500</ele>
        <time>2026-08-21T10:43:28.000Z</time>
        <extensions>
          <ns3:TrackPointExtension>
            <ns3:hr>124</ns3:hr>
            <ns3:cad>50</ns3:cad>
          </ns3:TrackPointExtension>
        </extensions>
      </trkpt>
      <trkpt lat="45.3639162518084049224853515625" lon="-70.80731752328574657440185546875">
        <ele>500.20001220703125</ele>
        <time>2026-08-21T10:43:29.000Z</time>
        <extensions>
          <ns3:TrackPointExtension>
            <ns3:hr>124</ns3:hr>
            <ns3:cad>50</ns3:cad>
          </ns3:TrackPointExtension>
        </extensions>
      </trkpt>
      <trkpt lat="45.36391097120940685272216796875" lon="-70.8073321916162967681884765625">
        <ele>500.600006103515625</ele>
        <time>2026-08-21T10:43:30.000Z</time>
        <extensions>
          <ns3:TrackPointExtension>
            <ns3:hr>124</ns3:hr>
            <ns3:cad>50</ns3:cad>
          </ns3:TrackPointExtension>
        </extensions>
      </trkpt>
      <trkpt lat="45.363904349505901336669921875" lon="-70.8073459379374980926513671875">
        <ele>500.600006103515625</ele>
        <time>2026-08-21T10:43:31.000Z</time>
        <extensions>
          <ns3:TrackPointExtension>
            <ns3:hr>123</ns3:hr>
            <ns3:cad>49</ns3:cad>
          </ns3:TrackPointExtension>
        </extensions>
      </trkpt>
      <trkpt lat="45.36389789544045925140380859375" lon="-70.80736194737255573272705078125">
        <ele>500.79998779296875</ele>
        <time>2026-08-21T10:43:32.000Z</time>
        <extensions>
          <ns3:TrackPointExtension>
            <ns3:hr>122</ns3:hr>
            <ns3:cad>49</ns3:cad>
          </ns3:TrackPointExtension>
        </extensions>
      </trkpt>
      <trkpt lat="45.363887585699558258056640625" lon="-70.80737737007439136505126953125">
        <ele>501</ele>
        <time>2026-08-21T10:43:33.000Z</time>
        <extensions>
          <ns3:TrackPointExtension>
            <ns3:hr>122</ns3:hr>
            <ns3:cad>49</ns3:cad>
          </ns3:TrackPointExtension>
        </extensions>
      </trkpt>
      <trkpt lat="45.3638827241957187652587890625" lon="-70.8073935471475124359130859375">
        <ele>501</ele>
        <time>2026-08-21T10:43:34.000Z</time>
        <extensions>
          <ns3:TrackPointExtension>
            <ns3:hr>121</ns3:hr>
            <ns3:cad>49</ns3:cad>
          </ns3:TrackPointExtension>
        </extensions>
      </trkpt>
      <trkpt lat="45.3638778626918792724609375" lon="-70.807407796382904052734375">
        <ele>501.20001220703125</ele>
        <time>2026-08-21T10:43:35.000Z</time>
        <extensions>
          <ns3:TrackPointExtension>
            <ns3:hr>121</ns3:hr>
            <ns3:cad>50</ns3:cad>
          </ns3:TrackPointExtension>
        </extensions>
      </trkpt>
      <trkpt lat="45.36387174390256404876708984375" lon="-70.8074277453124523162841796875">
        <ele>501.20001220703125</ele>
        <time>2026-08-21T10:43:36.000Z</time>
        <extensions>
          <ns3:TrackPointExtension>
            <ns3:hr>122</ns3:hr>
            <ns3:cad>50</ns3:cad>
          </ns3:TrackPointExtension>
        </extensions>
      </trkpt>
      <trkpt lat="45.3638673014938831329345703125" lon="-70.807446353137493133544921875">
        <ele>501.20001220703125</ele>
        <time>2026-08-21T10:43:37.000Z</time>
        <extensions>
          <ns3:TrackPointExtension>
            <ns3:hr>122</ns3:hr>
            <ns3:cad>51</ns3:cad>
          </ns3:TrackPointExtension>
        </extensions>
      </trkpt>
      <trkpt lat="45.36386721767485141754150390625" lon="-70.80746747553348541259765625">
        <ele>501</ele>
        <time>2026-08-21T10:43:38.000Z</time>
        <extensions>
          <ns3:TrackPointExtension>
            <ns3:hr>122</ns3:hr>
            <ns3:cad>51</ns3:cad>
          </ns3:TrackPointExtension>
        </extensions>
      </trkpt>
      <trkpt lat="45.363867469131946563720703125" lon="-70.80749002285301685333251953125">
        <ele>501</ele>
        <time>2026-08-21T10:43:39.000Z</time>
        <extensions>
          <ns3:TrackPointExtension>
            <ns3:hr>123</ns3:hr>
            <ns3:cad>51</ns3:cad>
          </ns3:TrackPointExtension>
        </extensions>
      </trkpt>
      <trkpt lat="45.3638662956655025482177734375" lon="-70.8075132407248020172119140625">
        <ele>500.79998779296875</ele>
        <time>2026-08-21T10:43:40.000Z</time>
        <extensions>
          <ns3:TrackPointExtension>
            <ns3:hr>124</ns3:hr>
            <ns3:cad>51</ns3:cad>
          </ns3:TrackPointExtension>
        </extensions>
      </trkpt>
      <trkpt lat="45.363864786922931671142578125" lon="-70.80752849578857421875">
        <ele>500.600006103515625</ele>
        <time>2026-08-21T10:43:41.000Z</time>
        <extensions>
          <ns3:TrackPointExtension>
            <ns3:hr>123</ns3:hr>
            <ns3:cad>51</ns3:cad>
          </ns3:TrackPointExtension>
        </extensions>
      </trkpt>
      <trkpt lat="45.36386067979037761688232421875" lon="-70.80754433758556842803955078125">
        <ele>500.399993896484375</ele>
        <time>2026-08-21T10:43:42.000Z</time>
        <extensions>
          <ns3:TrackPointExtension>
            <ns3:hr>123</ns3:hr>
            <ns3:cad>51</ns3:cad>
          </ns3:TrackPointExtension>
        </extensions>
      </trkpt>
      <trkpt lat="45.363860763609409332275390625" lon="-70.8075655438005924224853515625">
        <ele>500.20001220703125</ele>
        <time>2026-08-21T10:43:43.000Z</time>
        <extensions>
          <ns3:TrackPointExtension>
            <ns3:hr>124</ns3:hr>
            <ns3:cad>51</ns3:cad>
          </ns3:TrackPointExtension>
        </extensions>
      </trkpt>
      <trkpt lat="45.3638589195907115936279296875" lon="-70.8075913600623607635498046875">
        <ele>499.79998779296875</ele>
        <time>2026-08-21T10:43:44.000Z</time>
        <extensions>
          <ns3:TrackPointExtension>
            <ns3:hr>124</ns3:hr>
            <ns3:cad>51</ns3:cad>
          </ns3:TrackPointExtension>
        </extensions>
      </trkpt>
      <trkpt lat="45.36385732702910900115966796875" lon="-70.80761122517287731170654296875">
        <ele>499.399993896484375</ele>
        <time>2026-08-21T10:43:45.000Z</time>
        <extensions>
          <ns3:TrackPointExtension>
            <ns3:hr>124</ns3:hr>
            <ns3:cad>51</ns3:cad>
          </ns3:TrackPointExtension>
        </extensions>
      </trkpt>
      <trkpt lat="45.36385447718203067779541015625" lon="-70.80763435922563076019287109375">
        <ele>499</ele>
        <time>2026-08-21T10:43:46.000Z</time>
        <extensions>
          <ns3:TrackPointExtension>
            <ns3:hr>125</ns3:hr>
            <ns3:cad>51</ns3:cad>
          </ns3:TrackPointExtension>
        </extensions>
      </trkpt>
      <trkpt lat="45.3638548962771892547607421875" lon="-70.80766260623931884765625">
        <ele>498.600006103515625</ele>
        <time>2026-08-21T10:43:47.000Z</time>
        <extensions>
          <ns3:TrackPointExtension>
            <ns3:hr>125</ns3:hr>
            <ns3:cad>70</ns3:cad>
          </ns3:TrackPointExtension>
        </extensions>
      </trkpt>
      <trkpt lat="45.3638582490384578704833984375" lon="-70.8076879195868968963623046875">
        <ele>498.399993896484375</ele>
        <time>2026-08-21T10:43:48.000Z</time>
        <extensions>
          <ns3:TrackPointExtension>
            <ns3:hr>124</ns3:hr>
            <ns3:cad>70</ns3:cad>
          </ns3:TrackPointExtension>
        </extensions>
      </trkpt>
      <trkpt lat="45.3638572432100772857666015625" lon="-70.8077100478112697601318359375">
        <ele>498.399993896484375</ele>
        <time>2026-08-21T10:43:49.000Z</time>
        <extensions>
          <ns3:TrackPointExtension>
            <ns3:hr>124</ns3:hr>
            <ns3:cad>0</ns3:cad>
          </ns3:TrackPointExtension>
        </extensions>
      </trkpt>
      <trkpt lat="45.3638569079339504241943359375" lon="-70.8077368699014186859130859375">
        <ele>498.399993896484375</ele>
        <time>2026-08-21T10:43:50.000Z</time>
        <extensions>
          <ns3:TrackPointExtension>
            <ns3:hr>125</ns3:hr>
            <ns3:cad>0</ns3:cad>
          </ns3:TrackPointExtension>
        </extensions>
      </trkpt>
      <trkpt lat="45.3638590872287750244140625" lon="-70.8077631890773773193359375">
        <ele>498.600006103515625</ele>
        <time>2026-08-21T10:43:51.000Z</time>
        <extensions>
          <ns3:TrackPointExtension>
            <ns3:hr>125</ns3:hr>
            <ns3:cad>0</ns3:cad>
          </ns3:TrackPointExtension>
        </extensions>
      </trkpt>
      <trkpt lat="45.363860093057155609130859375" lon="-70.80778053961694240570068359375">
        <ele>498.600006103515625</ele>
        <time>2026-08-21T10:43:52.000Z</time>
        <extensions>
          <ns3:TrackPointExtension>
            <ns3:hr>125</ns3:hr>
            <ns3:cad>0</ns3:cad>
          </ns3:TrackPointExtension>
        </extensions>
      </trkpt>
      <trkpt lat="45.3638626076281070709228515625" lon="-70.80779931508004665374755859375">
        <ele>498.79998779296875</ele>
        <time>2026-08-21T10:43:53.000Z</time>
        <extensions>
          <ns3:TrackPointExtension>
            <ns3:hr>125</ns3:hr>
            <ns3:cad>0</ns3:cad>
          </ns3:TrackPointExtension>
        </extensions>
      </trkpt>
      <trkpt lat="45.363863445818424224853515625" lon="-70.80782261677086353302001953125">
        <ele>498.79998779296875</ele>
        <time>2026-08-21T10:43:54.000Z</time>
        <extensions>
          <ns3:TrackPointExtension>
            <ns3:hr>125</ns3:hr>
            <ns3:cad>55</ns3:cad>
          </ns3:TrackPointExtension>
        </extensions>
      </trkpt>
      <trkpt lat="45.363864116370677947998046875" lon="-70.80784223042428493499755859375">
        <ele>499</ele>
        <time>2026-08-21T10:43:55.000Z</time>
        <extensions>
          <ns3:TrackPointExtension>
            <ns3:hr>124</ns3:hr>
            <ns3:cad>55</ns3:cad>
          </ns3:TrackPointExtension>
        </extensions>
      </trkpt>
      <trkpt lat="45.36386436782777309417724609375" lon="-70.8078592456877231597900390625">
        <ele>499.20001220703125</ele>
        <time>2026-08-21T10:43:56.000Z</time>
        <extensions>
          <ns3:TrackPointExtension>
            <ns3:hr>124</ns3:hr>
            <ns3:cad>53</ns3:cad>
          </ns3:TrackPointExtension>
        </extensions>
      </trkpt>
      <trkpt lat="45.36386151798069477081298828125" lon="-70.80787424929440021514892578125">
        <ele>499.399993896484375</ele>
        <time>2026-08-21T10:43:57.000Z</time>
        <extensions>
          <ns3:TrackPointExtension>
            <ns3:hr>125</ns3:hr>
            <ns3:cad>53</ns3:cad>
          </ns3:TrackPointExtension>
        </extensions>
      </trkpt>
      <trkpt lat="45.363859422504901885986328125" lon="-70.80789151601493358612060546875">
        <ele>499.600006103515625</ele>
        <time>2026-08-21T10:43:58.000Z</time>
        <extensions>
          <ns3:TrackPointExtension>
            <ns3:hr>125</ns3:hr>
            <ns3:cad>53</ns3:cad>
          </ns3:TrackPointExtension>
        </extensions>
      </trkpt>
      <trkpt lat="45.36385531537234783172607421875" lon="-70.8079040050506591796875">
        <ele>499.79998779296875</ele>
        <time>2026-08-21T10:43:59.000Z</time>
        <extensions>
          <ns3:TrackPointExtension>
            <ns3:hr>125</ns3:hr>
            <ns3:cad>53</ns3:cad>
          </ns3:TrackPointExtension>
        </extensions>
      </trkpt>
      <trkpt lat="45.3638510406017303466796875" lon="-70.80792152322828769683837890625">
        <ele>500</ele>
        <time>2026-08-21T10:44:00.000Z</time>
        <extensions>
          <ns3:TrackPointExtension>
            <ns3:hr>125</ns3:hr>
            <ns3:cad>53</ns3:cad>
          </ns3:TrackPointExtension>
        </extensions>
      </trkpt>
      <trkpt lat="45.36385246552526950836181640625" lon="-70.80793661065399646759033203125">
        <ele>500.20001220703125</ele>
        <time>2026-08-21T10:44:01.000Z</time>
        <extensions>
          <ns3:TrackPointExtension>
            <ns3:hr>124</ns3:hr>
            <ns3:cad>50</ns3:cad>
          </ns3:TrackPointExtension>
        </extensions>
      </trkpt>
      <trkpt lat="45.36385171115398406982421875" lon="-70.80795588903129100799560546875">
        <ele>500.600006103515625</ele>
        <time>2026-08-21T10:44:02.000Z</time>
        <extensions>
          <ns3:TrackPointExtension>
            <ns3:hr>123</ns3:hr>
            <ns3:cad>50</ns3:cad>
          </ns3:TrackPointExtension>
        </extensions>
      </trkpt>
      <trkpt lat="45.3638491965830326080322265625" lon="-70.8079735748469829559326171875">
        <ele>500.600006103515625</ele>
        <time>2026-08-21T10:44:03.000Z</time>
        <extensions>
          <ns3:TrackPointExtension>
            <ns3:hr>122</ns3:hr>
            <ns3:cad>51</ns3:cad>
          </ns3:TrackPointExtension>
        </extensions>
      </trkpt>
      <trkpt lat="45.36384500563144683837890625" lon="-70.80798891372978687286376953125">
        <ele>500.79998779296875</ele>
        <time>2026-08-21T10:44:04.000Z</time>
        <extensions>
          <ns3:TrackPointExtension>
            <ns3:hr>122</ns3:hr>
            <ns3:cad>53</ns3:cad>
          </ns3:TrackPointExtension>
        </extensions>
      </trkpt>
      <trkpt lat="45.36383905448019504547119140625" lon="-70.80801003612577915191650390625">
        <ele>500.79998779296875</ele>
        <time>2026-08-21T10:44:05.000Z</time>
        <extensions>
          <ns3:TrackPointExtension>
            <ns3:hr>122</ns3:hr>
            <ns3:cad>53</ns3:cad>
          </ns3:TrackPointExtension>
        </extensions>
      </trkpt>
      <trkpt lat="45.36383888684213161468505859375" lon="-70.8080302365124225616455078125">
        <ele>500.79998779296875</ele>
        <time>2026-08-21T10:44:06.000Z</time>
        <extensions>
          <ns3:TrackPointExtension>
            <ns3:hr>122</ns3:hr>
            <ns3:cad>53</ns3:cad>
          </ns3:TrackPointExtension>
        </extensions>
      </trkpt>
      <trkpt lat="45.36383503116667270660400390625" lon="-70.8080448210239410400390625">
        <ele>500.79998779296875</ele>
        <time>2026-08-21T10:44:07.000Z</time>
        <extensions>
          <ns3:TrackPointExtension>
            <ns3:hr>123</ns3:hr>
            <ns3:cad>53</ns3:cad>
          </ns3:TrackPointExtension>
        </extensions>
      </trkpt>
      <trkpt lat="45.36382983438670635223388671875" lon="-70.808059237897396087646484375">
        <ele>501</ele>
        <time>2026-08-21T10:44:08.000Z</time>
        <extensions>
          <ns3:TrackPointExtension>
            <ns3:hr>123</ns3:hr>
            <ns3:cad>53</ns3:cad>
          </ns3:TrackPointExtension>
        </extensions>
      </trkpt>
      <trkpt lat="45.36382128484547138214111328125" lon="-70.80807876773178577423095703125">
        <ele>501</ele>
        <time>2026-08-21T10:44:09.000Z</time>
        <extensions>
          <ns3:TrackPointExtension>
            <ns3:hr>123</ns3:hr>
            <ns3:cad>53</ns3:cad>
          </ns3:TrackPointExtension>
        </extensions>
      </trkpt>
      <trkpt lat="45.36381541751325130462646484375" lon="-70.808092765510082244873046875">
        <ele>501.20001220703125</ele>
        <time>2026-08-21T10:44:10.000Z</time>
        <extensions>
          <ns3:TrackPointExtension>
            <ns3:hr>124</ns3:hr>
            <ns3:cad>53</ns3:cad>
          </ns3:TrackPointExtension>
        </extensions>
      </trkpt>
      <trkpt lat="45.36381139419972896575927734375" lon="-70.8081033267080783843994140625">
        <ele>501.399993896484375</ele>
        <time>2026-08-21T10:44:11.000Z</time>
        <extensions>
          <ns3:TrackPointExtension>
            <ns3:hr>124</ns3:hr>
            <ns3:cad>53</ns3:cad>
          </ns3:TrackPointExtension>
        </extensions>
      </trkpt>
      <trkpt lat="45.36380611360073089599609375" lon="-70.80810450017452239990234375">
        <ele>501.600006103515625</ele>
        <time>2026-08-21T10:44:12.000Z</time>
        <extensions>
          <ns3:TrackPointExtension>
            <ns3:hr>124</ns3:hr>
            <ns3:cad>53</ns3:cad>
          </ns3:TrackPointExtension>
        </extensions>
      </trkpt>
      <trkpt lat="45.36379781551659107208251953125" lon="-70.80810676328837871551513671875">
        <ele>501.79998779296875</ele>
        <time>2026-08-21T10:44:13.000Z</time>
        <extensions>
          <ns3:TrackPointExtension>
            <ns3:hr>124</ns3:hr>
            <ns3:cad>50</ns3:cad>
          </ns3:TrackPointExtension>
        </extensions>
      </trkpt>
      <trkpt lat="45.36379060707986354827880859375" lon="-70.8081103675067424774169921875">
        <ele>502</ele>
        <time>2026-08-21T10:44:14.000Z</time>
        <extensions>
          <ns3:TrackPointExtension>
            <ns3:hr>124</ns3:hr>
            <ns3:cad>50</ns3:cad>
          </ns3:TrackPointExtension>
        </extensions>
      </trkpt>
      <trkpt lat="45.3637871704995632171630859375" lon="-70.80812000669538974761962890625">
        <ele>502.399993896484375</ele>
        <time>2026-08-21T10:44:15.000Z</time>
        <extensions>
          <ns3:TrackPointExtension>
            <ns3:hr>124</ns3:hr>
            <ns3:cad>47</ns3:cad>
          </ns3:TrackPointExtension>
        </extensions>
      </trkpt>
      <trkpt lat="45.36378289572894573211669921875" lon="-70.8081284724175930023193359375">
        <ele>502.79998779296875</ele>
        <time>2026-08-21T10:44:16.000Z</time>
        <extensions>
          <ns3:TrackPointExtension>
            <ns3:hr>125</ns3:hr>
            <ns3:cad>47</ns3:cad>
          </ns3:TrackPointExtension>
        </extensions>
      </trkpt>
      <trkpt lat="45.36378188990056514739990234375" lon="-70.808139033615589141845703125">
        <ele>503</ele>
        <time>2026-08-21T10:44:17.000Z</time>
        <extensions>
          <ns3:TrackPointExtension>
            <ns3:hr>125</ns3:hr>
            <ns3:cad>53</ns3:cad>
          </ns3:TrackPointExtension>
        </extensions>
      </trkpt>
      <trkpt lat="45.363779962062835693359375" lon="-70.8081542886793613433837890625">
        <ele>503.399993896484375</ele>
        <time>2026-08-21T10:44:18.000Z</time>
        <extensions>
          <ns3:TrackPointExtension>
            <ns3:hr>125</ns3:hr>
            <ns3:cad>53</ns3:cad>
          </ns3:TrackPointExtension>
        </extensions>
      </trkpt>
      <trkpt lat="45.3637720830738544464111328125" lon="-70.80817499198019504547119140625">
        <ele>503.600006103515625</ele>
        <time>2026-08-21T10:44:19.000Z</time>
        <extensions>
          <ns3:TrackPointExtension>
            <ns3:hr>125</ns3:hr>
            <ns3:cad>53</ns3:cad>
          </ns3:TrackPointExtension>
        </extensions>
      </trkpt>
      <trkpt lat="45.3637647069990634918212890625" lon="-70.8081831224262714385986328125">
        <ele>503.79998779296875</ele>
        <time>2026-08-21T10:44:20.000Z</time>
        <extensions>
          <ns3:TrackPointExtension>
            <ns3:hr>125</ns3:hr>
            <ns3:cad>48</ns3:cad>
          </ns3:TrackPointExtension>
        </extensions>
      </trkpt>
      <trkpt lat="45.363752804696559906005859375" lon="-70.80819971859455108642578125">
        <ele>504</ele>
        <time>2026-08-21T10:44:21.000Z</time>
        <extensions>
          <ns3:TrackPointExtension>
            <ns3:hr>125</ns3:hr>
            <ns3:cad>48</ns3:cad>
          </ns3:TrackPointExtension>
        </extensions>
      </trkpt>
      <trkpt lat="45.363753139972686767578125" lon="-70.80821841023862361907958984375">
        <ele>504.399993896484375</ele>
        <time>2026-08-21T10:44:22.000Z</time>
        <extensions>
          <ns3:TrackPointExtension>
            <ns3:hr>125</ns3:hr>
            <ns3:cad>49</ns3:cad>
          </ns3:TrackPointExtension>
        </extensions>
      </trkpt>
      <trkpt lat="45.36375322379171848297119140625" lon="-70.8082307316362857818603515625">
        <ele>504.600006103515625</ele>
        <time>2026-08-21T10:44:23.000Z</time>
        <extensions>
          <ns3:TrackPointExtension>
            <ns3:hr>125</ns3:hr>
            <ns3:cad>49</ns3:cad>
          </ns3:TrackPointExtension>
        </extensions>
      </trkpt>
      <trkpt lat="45.36374852992594242095947265625" lon="-70.80824799835681915283203125">
        <ele>504.79998779296875</ele>
        <time>2026-08-21T10:44:24.000Z</time>
        <extensions>
          <ns3:TrackPointExtension>
            <ns3:hr>125</ns3:hr>
            <ns3:cad>49</ns3:cad>
          </ns3:TrackPointExtension>
        </extensions>
      </trkpt>
      <trkpt lat="45.363736711442470550537109375" lon="-70.80825763754546642303466796875">
        <ele>505</ele>
        <time>2026-08-21T10:44:25.000Z</time>
        <extensions>
          <ns3:TrackPointExtension>
            <ns3:hr>125</ns3:hr>
            <ns3:cad>47</ns3:cad>
          </ns3:TrackPointExtension>
        </extensions>
      </trkpt>
      <trkpt lat="45.36373444832861423492431640625" lon="-70.80827708356082439422607421875">
        <ele>505.20001220703125</ele>
        <time>2026-08-21T10:44:26.000Z</time>
        <extensions>
          <ns3:TrackPointExtension>
            <ns3:hr>126</ns3:hr>
            <ns3:cad>47</ns3:cad>
          </ns3:TrackPointExtension>
        </extensions>
      </trkpt>
      <trkpt lat="45.36373109556734561920166015625" lon="-70.8082907460629940032958984375">
        <ele>505.20001220703125</ele>
        <time>2026-08-21T10:44:27.000Z</time>
        <extensions>
          <ns3:TrackPointExtension>
            <ns3:hr>126</ns3:hr>
            <ns3:cad>47</ns3:cad>
          </ns3:TrackPointExtension>
        </extensions>
      </trkpt>
      <trkpt lat="45.363729000091552734375" lon="-70.80829904414713382720947265625">
        <ele>505.399993896484375</ele>
        <time>2026-08-21T10:44:28.000Z</time>
        <extensions>
          <ns3:TrackPointExtension>
            <ns3:hr>127</ns3:hr>
            <ns3:cad>47</ns3:cad>
          </ns3:TrackPointExtension>
        </extensions>
      </trkpt>
      <trkpt lat="45.363726653158664703369140625" lon="-70.80830759368836879730224609375">
        <ele>505.600006103515625</ele>
        <time>2026-08-21T10:44:29.000Z</time>
        <extensions>
          <ns3:TrackPointExtension>
            <ns3:hr>128</ns3:hr>
            <ns3:cad>50</ns3:cad>
          </ns3:TrackPointExtension>
        </extensions>
      </trkpt>
      <trkpt lat="45.3637278266251087188720703125" lon="-70.80831966362893581390380859375">
        <ele>505.79998779296875</ele>
        <time>2026-08-21T10:44:30.000Z</time>
        <extensions>
          <ns3:TrackPointExtension>
            <ns3:hr>129</ns3:hr>
            <ns3:cad>50</ns3:cad>
          </ns3:TrackPointExtension>
        </extensions>
      </trkpt>
      <trkpt lat="45.363723970949649810791015625" lon="-70.8083393611013889312744140625">
        <ele>506.20001220703125</ele>
        <time>2026-08-21T10:44:31.000Z</time>
        <extensions>
          <ns3:TrackPointExtension>
            <ns3:hr>129</ns3:hr>
            <ns3:cad>50</ns3:cad>
          </ns3:TrackPointExtension>
        </extensions>
      </trkpt>
      <trkpt lat="45.3637234680354595184326171875" lon="-70.8083561249077320098876953125">
        <ele>506.399993896484375</ele>
        <time>2026-08-21T10:44:32.000Z</time>
        <extensions>
          <ns3:TrackPointExtension>
            <ns3:hr>130</ns3:hr>
            <ns3:cad>50</ns3:cad>
          </ns3:TrackPointExtension>
        </extensions>
      </trkpt>
      <trkpt lat="45.3637201152741909027099609375" lon="-70.80837003886699676513671875">
        <ele>506.79998779296875</ele>
        <time>2026-08-21T10:44:33.000Z</time>
        <extensions>
          <ns3:TrackPointExtension>
            <ns3:hr>130</ns3:hr>
            <ns3:cad>50</ns3:cad>
          </ns3:TrackPointExtension>
        </extensions>
      </trkpt>
      <trkpt lat="45.36371617577970027923583984375" lon="-70.80838344991207122802734375">
        <ele>507</ele>
        <time>2026-08-21T10:44:34.000Z</time>
        <extensions>
          <ns3:TrackPointExtension>
            <ns3:hr>131</ns3:hr>
            <ns3:cad>50</ns3:cad>
          </ns3:TrackPointExtension>
        </extensions>
      </trkpt>
      <trkpt lat="45.363713912665843963623046875" lon="-70.8083889819681644439697265625">
        <ele>507.399993896484375</ele>
        <time>2026-08-21T10:44:35.000Z</time>
        <extensions>
          <ns3:TrackPointExtension>
            <ns3:hr>132</ns3:hr>
            <ns3:cad>50</ns3:cad>
          </ns3:TrackPointExtension>
        </extensions>
      </trkpt>
      <trkpt lat="45.363706536591053009033203125" lon="-70.808402560651302337646484375">
        <ele>507.600006103515625</ele>
        <time>2026-08-21T10:44:36.000Z</time>
        <extensions>
          <ns3:TrackPointExtension>
            <ns3:hr>132</ns3:hr>
            <ns3:cad>50</ns3:cad>
          </ns3:TrackPointExtension>
        </extensions>
      </trkpt>
      <trkpt lat="45.3637073747813701629638671875" lon="-70.80841320566833019256591796875">
        <ele>507.79998779296875</ele>
        <time>2026-08-21T10:44:37.000Z</time>
        <extensions>
          <ns3:TrackPointExtension>
            <ns3:hr>132</ns3:hr>
            <ns3:cad>50</ns3:cad>
          </ns3:TrackPointExtension>
        </extensions>
      </trkpt>
      <trkpt lat="45.3637036867439746856689453125" lon="-70.80842125229537487030029296875">
        <ele>508.20001220703125</ele>
        <time>2026-08-21T10:44:38.000Z</time>
        <extensions>
          <ns3:TrackPointExtension>
            <ns3:hr>133</ns3:hr>
            <ns3:cad>50</ns3:cad>
          </ns3:TrackPointExtension>
        </extensions>
      </trkpt>
      <trkpt lat="45.3636983223259449005126953125" lon="-70.80842745490372180938720703125">
        <ele>508.399993896484375</ele>
        <time>2026-08-21T10:44:39.000Z</time>
        <extensions>
          <ns3:TrackPointExtension>
            <ns3:hr>133</ns3:hr>
            <ns3:cad>50</ns3:cad>
          </ns3:TrackPointExtension>
        </extensions>
      </trkpt>
      <trkpt lat="45.36369086243212223052978515625" lon="-70.80843198113143444061279296875">
        <ele>508.600006103515625</ele>
        <time>2026-08-21T10:44:40.000Z</time>
        <extensions>
          <ns3:TrackPointExtension>
            <ns3:hr>133</ns3:hr>
            <ns3:cad>50</ns3:cad>
          </ns3:TrackPointExtension>
        </extensions>
      </trkpt>
      <trkpt lat="45.36368968896567821502685546875" lon="-70.808432064950466156005859375">
        <ele>508.79998779296875</ele>
        <time>2026-08-21T10:44:41.000Z</time>
        <extensions>
          <ns3:TrackPointExtension>
            <ns3:hr>133</ns3:hr>
            <ns3:cad>0</ns3:cad>
          </ns3:TrackPointExtension>
        </extensions>
      </trkpt>
      <trkpt lat="45.3636788763105869293212890625" lon="-70.808438099920749664306640625">
        <ele>509.20001220703125</ele>
        <time>2026-08-21T10:44:42.000Z</time>
        <extensions>
          <ns3:TrackPointExtension>
            <ns3:hr>134</ns3:hr>
            <ns3:cad>0</ns3:cad>
          </ns3:TrackPointExtension>
        </extensions>
      </trkpt>
      <trkpt lat="45.3636785410344600677490234375" lon="-70.8084345795214176177978515625">
        <ele>509.399993896484375</ele>
        <time>2026-08-21T10:44:43.000Z</time>
        <extensions>
          <ns3:TrackPointExtension>
            <ns3:hr>133</ns3:hr>
            <ns3:cad>0</ns3:cad>
          </ns3:TrackPointExtension>
        </extensions>
      </trkpt>
      <trkpt lat="45.36367091350257396697998046875" lon="-70.8084402792155742645263671875">
        <ele>509.600006103515625</ele>
        <time>2026-08-21T10:44:44.000Z</time>
        <extensions>
          <ns3:TrackPointExtension>
            <ns3:hr>133</ns3:hr>
            <ns3:cad>0</ns3:cad>
          </ns3:TrackPointExtension>
        </extensions>
      </trkpt>
      <trkpt lat="45.363663621246814727783203125" lon="-70.80844421871006488800048828125">
        <ele>510</ele>
        <time>2026-08-21T10:44:45.000Z</time>
        <extensions>
          <ns3:TrackPointExtension>
            <ns3:hr>133</ns3:hr>
            <ns3:cad>0</ns3:cad>
          </ns3:TrackPointExtension>
        </extensions>
      </trkpt>
      <trkpt lat="45.36365532316267490386962890625" lon="-70.80844824202358722686767578125">
        <ele>510.20001220703125</ele>
        <time>2026-08-21T10:44:46.000Z</time>
        <extensions>
          <ns3:TrackPointExtension>
            <ns3:hr>133</ns3:hr>
            <ns3:cad>0</ns3:cad>
          </ns3:TrackPointExtension>
        </extensions>
      </trkpt>
      <trkpt lat="45.36364241503179073333740234375" lon="-70.80845561809837818145751953125">
        <ele>510.399993896484375</ele>
        <time>2026-08-21T10:44:47.000Z</time>
        <extensions>
          <ns3:TrackPointExtension>
            <ns3:hr>134</ns3:hr>
            <ns3:cad>0</ns3:cad>
          </ns3:TrackPointExtension>
        </extensions>
      </trkpt>
      <trkpt lat="45.3636302612721920013427734375" lon="-70.80846634693443775177001953125">
        <ele>510.600006103515625</ele>
        <time>2026-08-21T10:44:48.000Z</time>
        <extensions>
          <ns3:TrackPointExtension>
            <ns3:hr>134</ns3:hr>
            <ns3:cad>46</ns3:cad>
          </ns3:TrackPointExtension>
        </extensions>
      </trkpt>
      <trkpt lat="45.36361911334097385406494140625" lon="-70.808476321399211883544921875">
        <ele>510.79998779296875</ele>
        <time>2026-08-21T10:44:49.000Z</time>
        <extensions>
          <ns3:TrackPointExtension>
            <ns3:hr>135</ns3:hr>
            <ns3:cad>46</ns3:cad>
          </ns3:TrackPointExtension>
        </extensions>
      </trkpt>
      <trkpt lat="45.3636121563613414764404296875" lon="-70.80848537385463714599609375">
        <ele>511</ele>
        <time>2026-08-21T10:44:50.000Z</time>
        <extensions>
          <ns3:TrackPointExtension>
            <ns3:hr>135</ns3:hr>
            <ns3:cad>46</ns3:cad>
          </ns3:TrackPointExtension>
        </extensions>
      </trkpt>
      <trkpt lat="45.3636041097342967987060546875" lon="-70.8084932528436183929443359375">
        <ele>511</ele>
        <time>2026-08-21T10:44:51.000Z</time>
        <extensions>
          <ns3:TrackPointExtension>
            <ns3:hr>136</ns3:hr>
            <ns3:cad>47</ns3:cad>
          </ns3:TrackPointExtension>
        </extensions>
      </trkpt>
      <trkpt lat="45.36359262652695178985595703125" lon="-70.8085046522319316864013671875">
        <ele>511.20001220703125</ele>
        <time>2026-08-21T10:44:52.000Z</time>
        <extensions>
          <ns3:TrackPointExtension>
            <ns3:hr>137</ns3:hr>
            <ns3:cad>47</ns3:cad>
          </ns3:TrackPointExtension>
        </extensions>
      </trkpt>
      <trkpt lat="45.36358508281409740447998046875" lon="-70.808517225086688995361328125">
        <ele>511.399993896484375</ele>
        <time>2026-08-21T10:44:53.000Z</time>
        <extensions>
          <ns3:TrackPointExtension>
            <ns3:hr>138</ns3:hr>
            <ns3:cad>48</ns3:cad>
          </ns3:TrackPointExtension>
        </extensions>
      </trkpt>
      <trkpt lat="45.3635809756815433502197265625" lon="-70.80852300859987735748291015625">
        <ele>511.600006103515625</ele>
        <time>2026-08-21T10:44:54.000Z</time>
        <extensions>
          <ns3:TrackPointExtension>
            <ns3:hr>140</ns3:hr>
            <ns3:cad>48</ns3:cad>
          </ns3:TrackPointExtension>
        </extensions>
      </trkpt>
      <trkpt lat="45.3635735996067523956298828125" lon="-70.8085247687995433807373046875">
        <ele>511.600006103515625</ele>
        <time>2026-08-21T10:44:55.000Z</time>
        <extensions>
          <ns3:TrackPointExtension>
            <ns3:hr>140</ns3:hr>
            <ns3:cad>48</ns3:cad>
          </ns3:TrackPointExtension>
        </extensions>
      </trkpt>
      <trkpt lat="45.36356312222778797149658203125" lon="-70.80852502025663852691650390625">
        <ele>511.79998779296875</ele>
        <time>2026-08-21T10:44:56.000Z</time>
        <extensions>
          <ns3:TrackPointExtension>
            <ns3:hr>141</ns3:hr>
            <ns3:cad>47</ns3:cad>
          </ns3:TrackPointExtension>
        </extensions>
      </trkpt>
      <trkpt lat="45.36355440504848957061767578125" lon="-70.80852158367633819580078125">
        <ele>512</ele>
        <time>2026-08-21T10:44:57.000Z</time>
        <extensions>
          <ns3:TrackPointExtension>
            <ns3:hr>141</ns3:hr>
            <ns3:cad>47</ns3:cad>
          </ns3:TrackPointExtension>
        </extensions>
      </trkpt>
      <trkpt lat="45.36354820244014263153076171875" lon="-70.80852292478084564208984375">
        <ele>512.20001220703125</ele>
        <time>2026-08-21T10:44:58.000Z</time>
        <extensions>
          <ns3:TrackPointExtension>
            <ns3:hr>142</ns3:hr>
            <ns3:cad>47</ns3:cad>
          </ns3:TrackPointExtension>
        </extensions>
      </trkpt>
      <trkpt lat="45.36354065872728824615478515625" lon="-70.80852292478084564208984375">
        <ele>512.4000244140625</ele>
        <time>2026-08-21T10:44:59.000Z</time>
        <extensions>
          <ns3:TrackPointExtension>
            <ns3:hr>142</ns3:hr>
            <ns3:cad>47</ns3:cad>
          </ns3:TrackPointExtension>
        </extensions>
      </trkpt>
      <trkpt lat="45.36353361792862415313720703125" lon="-70.80851965583860874176025390625">
        <ele>512.5999755859375</ele>
        <time>2026-08-21T10:45:00.000Z</time>
        <extensions>
          <ns3:TrackPointExtension>
            <ns3:hr>142</ns3:hr>
            <ns3:cad>46</ns3:cad>
          </ns3:TrackPointExtension>
        </extensions>
      </trkpt>
      <trkpt lat="45.36352305673062801361083984375" lon="-70.808523930609226226806640625">
        <ele>512.79998779296875</ele>
        <time>2026-08-21T10:45:01.000Z</time>
        <extensions>
          <ns3:TrackPointExtension>
            <ns3:hr>143</ns3:hr>
            <ns3:cad>46</ns3:cad>
          </ns3:TrackPointExtension>
        </extensions>
      </trkpt>
      <trkpt lat="45.3635145910084247589111328125" lon="-70.8085276186466217041015625">
        <ele>513</ele>
        <time>2026-08-21T10:45:02.000Z</time>
        <extensions>
          <ns3:TrackPointExtension>
            <ns3:hr>143</ns3:hr>
            <ns3:cad>42</ns3:cad>
          </ns3:TrackPointExtension>
        </extensions>
      </trkpt>
      <trkpt lat="45.36351266317069530487060546875" lon="-70.80853356979787349700927734375">
        <ele>513</ele>
        <time>2026-08-21T10:45:03.000Z</time>
        <extensions>
          <ns3:TrackPointExtension>
            <ns3:hr>143</ns3:hr>
            <ns3:cad>42</ns3:cad>
          </ns3:TrackPointExtension>
        </extensions>
      </trkpt>
      <trkpt lat="45.3635095618665218353271484375" lon="-70.80854061059653759002685546875">
        <ele>513.20001220703125</ele>
        <time>2026-08-21T10:45:04.000Z</time>
        <extensions>
          <ns3:TrackPointExtension>
            <ns3:hr>143</ns3:hr>
            <ns3:cad>42</ns3:cad>
          </ns3:TrackPointExtension>
        </extensions>
      </trkpt>
      <trkpt lat="45.3634996712207794189453125" lon="-70.80854597501456737518310546875">
        <ele>513.20001220703125</ele>
        <time>2026-08-21T10:45:05.000Z</time>
        <extensions>
          <ns3:TrackPointExtension>
            <ns3:hr>143</ns3:hr>
            <ns3:cad>42</ns3:cad>
          </ns3:TrackPointExtension>
        </extensions>
      </trkpt>
      <trkpt lat="45.3634889423847198486328125" lon="-70.8085515908896923065185546875">
        <ele>513.4000244140625</ele>
        <time>2026-08-21T10:45:06.000Z</time>
        <extensions>
          <ns3:TrackPointExtension>
            <ns3:hr>144</ns3:hr>
            <ns3:cad>42</ns3:cad>
          </ns3:TrackPointExtension>
        </extensions>
      </trkpt>
      <trkpt lat="45.3634803928434848785400390625" lon="-70.80855284817516803741455078125">
        <ele>513.5999755859375</ele>
        <time>2026-08-21T10:45:07.000Z</time>
        <extensions>
          <ns3:TrackPointExtension>
            <ns3:hr>144</ns3:hr>
            <ns3:cad>46</ns3:cad>
          </ns3:TrackPointExtension>
        </extensions>
      </trkpt>
      <trkpt lat="45.36347259767353534698486328125" lon="-70.8085562847554683685302734375">
        <ele>513.5999755859375</ele>
        <time>2026-08-21T10:45:08.000Z</time>
        <extensions>
          <ns3:TrackPointExtension>
            <ns3:hr>143</ns3:hr>
            <ns3:cad>46</ns3:cad>
          </ns3:TrackPointExtension>
        </extensions>
      </trkpt>
      <trkpt lat="45.36346555687487125396728515625" lon="-70.80856181681156158447265625">
        <ele>513.79998779296875</ele>
        <time>2026-08-21T10:45:09.000Z</time>
        <extensions>
          <ns3:TrackPointExtension>
            <ns3:hr>143</ns3:hr>
            <ns3:cad>45</ns3:cad>
          </ns3:TrackPointExtension>
        </extensions>
      </trkpt>
      <trkpt lat="45.3634569235146045684814453125" lon="-70.8085639961063861846923828125">
        <ele>513.79998779296875</ele>
        <time>2026-08-21T10:45:10.000Z</time>
        <extensions>
          <ns3:TrackPointExtension>
            <ns3:hr>142</ns3:hr>
            <ns3:cad>45</ns3:cad>
          </ns3:TrackPointExtension>
        </extensions>
      </trkpt>
      <trkpt lat="45.36344460211694240570068359375" lon="-70.8085683546960353851318359375">
        <ele>514</ele>
        <time>2026-08-21T10:45:11.000Z</time>
        <extensions>
          <ns3:TrackPointExtension>
            <ns3:hr>142</ns3:hr>
            <ns3:cad>45</ns3:cad>
          </ns3:TrackPointExtension>
        </extensions>
      </trkpt>
      <trkpt lat="45.36343705840408802032470703125" lon="-70.80857581458985805511474609375">
        <ele>514</ele>
        <time>2026-08-21T10:45:12.000Z</time>
        <extensions>
          <ns3:TrackPointExtension>
            <ns3:hr>142</ns3:hr>
            <ns3:cad>44</ns3:cad>
          </ns3:TrackPointExtension>
        </extensions>
      </trkpt>
      <trkpt lat="45.36342951469123363494873046875" lon="-70.80858335830271244049072265625">
        <ele>514.20001220703125</ele>
        <time>2026-08-21T10:45:13.000Z</time>
        <extensions>
          <ns3:TrackPointExtension>
            <ns3:hr>142</ns3:hr>
            <ns3:cad>44</ns3:cad>
          </ns3:TrackPointExtension>
        </extensions>
      </trkpt>
      <trkpt lat="45.36342532373964786529541015625" lon="-70.8085914887487888336181640625">
        <ele>514.4000244140625</ele>
        <time>2026-08-21T10:45:14.000Z</time>
        <extensions>
          <ns3:TrackPointExtension>
            <ns3:hr>141</ns3:hr>
            <ns3:cad>44</ns3:cad>
          </ns3:TrackPointExtension>
        </extensions>
      </trkpt>
      <trkpt lat="45.363412164151668548583984375" lon="-70.80859400331974029541015625">
        <ele>514.5999755859375</ele>
        <time>2026-08-21T10:45:15.000Z</time>
        <extensions>
          <ns3:TrackPointExtension>
            <ns3:hr>141</ns3:hr>
            <ns3:cad>46</ns3:cad>
          </ns3:TrackPointExtension>
        </extensions>
      </trkpt>
      <trkpt lat="45.36340135149657726287841796875" lon="-70.80859668552875518798828125">
        <ele>514.5999755859375</ele>
        <time>2026-08-21T10:45:16.000Z</time>
        <extensions>
          <ns3:TrackPointExtension>
            <ns3:hr>141</ns3:hr>
            <ns3:cad>46</ns3:cad>
          </ns3:TrackPointExtension>
        </extensions>
      </trkpt>
      <trkpt lat="45.36338903009891510009765625" lon="-70.808593668043613433837890625">
        <ele>514.79998779296875</ele>
        <time>2026-08-21T10:45:17.000Z</time>
        <extensions>
          <ns3:TrackPointExtension>
            <ns3:hr>141</ns3:hr>
            <ns3:cad>46</ns3:cad>
          </ns3:TrackPointExtension>
        </extensions>
      </trkpt>
      <trkpt lat="45.363379977643489837646484375" lon="-70.80859090201556682586669921875">
        <ele>514.79998779296875</ele>
        <time>2026-08-21T10:45:18.000Z</time>
        <extensions>
          <ns3:TrackPointExtension>
            <ns3:hr>140</ns3:hr>
            <ns3:cad>46</ns3:cad>
          </ns3:TrackPointExtension>
        </extensions>
      </trkpt>
      <trkpt lat="45.36336866207420825958251953125" lon="-70.80859039910137653350830078125">
        <ele>515</ele>
        <time>2026-08-21T10:45:19.000Z</time>
        <extensions>
          <ns3:TrackPointExtension>
            <ns3:hr>140</ns3:hr>
            <ns3:cad>49</ns3:cad>
          </ns3:TrackPointExtension>
        </extensions>
      </trkpt>
      <trkpt lat="45.3633566759526729583740234375" lon="-70.80859140492975711822509765625">
        <ele>515</ele>
        <time>2026-08-21T10:45:20.000Z</time>
        <extensions>
          <ns3:TrackPointExtension>
            <ns3:hr>140</ns3:hr>
            <ns3:cad>49</ns3:cad>
          </ns3:TrackPointExtension>
        </extensions>
      </trkpt>
      <trkpt lat="45.36334066651761531829833984375" lon="-70.80858654342591762542724609375">
        <ele>515.20001220703125</ele>
        <time>2026-08-21T10:45:21.000Z</time>
        <extensions>
          <ns3:TrackPointExtension>
            <ns3:hr>140</ns3:hr>
            <ns3:cad>50</ns3:cad>
          </ns3:TrackPointExtension>
        </extensions>
      </trkpt>
      <trkpt lat="45.36333127878606319427490234375" lon="-70.80858805216848850250244140625">
        <ele>515.4000244140625</ele>
        <time>2026-08-21T10:45:22.000Z</time>
        <extensions>
          <ns3:TrackPointExtension>
            <ns3:hr>140</ns3:hr>
            <ns3:cad>50</ns3:cad>
          </ns3:TrackPointExtension>
        </extensions>
      </trkpt>
      <trkpt lat="45.3633201308548450469970703125" lon="-70.8085911534726619720458984375">
        <ele>515.5999755859375</ele>
        <time>2026-08-21T10:45:23.000Z</time>
        <extensions>
          <ns3:TrackPointExtension>
            <ns3:hr>140</ns3:hr>
            <ns3:cad>50</ns3:cad>
          </ns3:TrackPointExtension>
        </extensions>
      </trkpt>
      <trkpt lat="45.363308899104595184326171875" lon="-70.80859643407166004180908203125">
        <ele>515.79998779296875</ele>
        <time>2026-08-21T10:45:24.000Z</time>
        <extensions>
          <ns3:TrackPointExtension>
            <ns3:hr>140</ns3:hr>
            <ns3:cad>52</ns3:cad>
          </ns3:TrackPointExtension>
        </extensions>
      </trkpt>
      <trkpt lat="45.3633003495633602142333984375" lon="-70.80860112793743610382080078125">
        <ele>516</ele>
        <time>2026-08-21T10:45:25.000Z</time>
        <extensions>
          <ns3:TrackPointExtension>
            <ns3:hr>141</ns3:hr>
            <ns3:cad>52</ns3:cad>
          </ns3:TrackPointExtension>
        </extensions>
      </trkpt>
      <trkpt lat="45.36329540424048900604248046875" lon="-70.80859811045229434967041015625">
        <ele>516.20001220703125</ele>
        <time>2026-08-21T10:45:26.000Z</time>
        <extensions>
          <ns3:TrackPointExtension>
            <ns3:hr>140</ns3:hr>
            <ns3:cad>53</ns3:cad>
          </ns3:TrackPointExtension>
        </extensions>
      </trkpt>
      <trkpt lat="45.36328417249023914337158203125" lon="-70.80859676934778690338134765625">
        <ele>516.4000244140625</ele>
        <time>2026-08-21T10:45:27.000Z</time>
        <extensions>
          <ns3:TrackPointExtension>
            <ns3:hr>141</ns3:hr>
            <ns3:cad>53</ns3:cad>
          </ns3:TrackPointExtension>
        </extensions>
      </trkpt>
      <trkpt lat="45.36327646113932132720947265625" lon="-70.80858989618718624114990234375">
        <ele>516.5999755859375</ele>
        <time>2026-08-21T10:45:28.000Z</time>
        <extensions>
          <ns3:TrackPointExtension>
            <ns3:hr>142</ns3:hr>
            <ns3:cad>48</ns3:cad>
          </ns3:TrackPointExtension>
        </extensions>
      </trkpt>
      <trkpt lat="45.3632701747119426727294921875" lon="-70.8085911534726619720458984375">
        <ele>516.79998779296875</ele>
        <time>2026-08-21T10:45:29.000Z</time>
        <extensions>
          <ns3:TrackPointExtension>
            <ns3:hr>142</ns3:hr>
            <ns3:cad>48</ns3:cad>
          </ns3:TrackPointExtension>
        </extensions>
      </trkpt>
      <trkpt lat="45.36325802095234394073486328125" lon="-70.808596350252628326416015625">
        <ele>517</ele>
        <time>2026-08-21T10:45:30.000Z</time>
        <extensions>
          <ns3:TrackPointExtension>
            <ns3:hr>143</ns3:hr>
            <ns3:cad>48</ns3:cad>
          </ns3:TrackPointExtension>
        </extensions>
      </trkpt>
      <trkpt lat="45.36325181834399700164794921875" lon="-70.80859358422458171844482421875">
        <ele>517.20001220703125</ele>
        <time>2026-08-21T10:45:31.000Z</time>
        <extensions>
          <ns3:TrackPointExtension>
            <ns3:hr>143</ns3:hr>
            <ns3:cad>48</ns3:cad>
          </ns3:TrackPointExtension>
        </extensions>
      </trkpt>
      <trkpt lat="45.363248884677886962890625" lon="-70.808592997491359710693359375">
        <ele>517.5999755859375</ele>
        <time>2026-08-21T10:45:32.000Z</time>
        <extensions>
          <ns3:TrackPointExtension>
            <ns3:hr>143</ns3:hr>
            <ns3:cad>48</ns3:cad>
          </ns3:TrackPointExtension>
        </extensions>
      </trkpt>
      <trkpt lat="45.3632363118231296539306640625" lon="-70.8085919916629791259765625">
        <ele>517.79998779296875</ele>
        <time>2026-08-21T10:45:33.000Z</time>
        <extensions>
          <ns3:TrackPointExtension>
            <ns3:hr>144</ns3:hr>
            <ns3:cad>0</ns3:cad>
          </ns3:TrackPointExtension>
        </extensions>
      </trkpt>
      <trkpt lat="45.36321795545518398284912109375" lon="-70.80858788453042507171630859375">
        <ele>518</ele>
        <time>2026-08-21T10:45:34.000Z</time>
        <extensions>
          <ns3:TrackPointExtension>
            <ns3:hr>143</ns3:hr>
            <ns3:cad>50</ns3:cad>
          </ns3:TrackPointExtension>
        </extensions>
      </trkpt>
      <trkpt lat="45.363208316266536712646484375" lon="-70.80858604051172733306884765625">
        <ele>518.20001220703125</ele>
        <time>2026-08-21T10:45:35.000Z</time>
        <extensions>
          <ns3:TrackPointExtension>
            <ns3:hr>143</ns3:hr>
            <ns3:cad>50</ns3:cad>
          </ns3:TrackPointExtension>
        </extensions>
      </trkpt>
      <trkpt lat="45.36319716833531856536865234375" lon="-70.80858352594077587127685546875">
        <ele>518.4000244140625</ele>
        <time>2026-08-21T10:45:36.000Z</time>
        <extensions>
          <ns3:TrackPointExtension>
            <ns3:hr>143</ns3:hr>
            <ns3:cad>50</ns3:cad>
          </ns3:TrackPointExtension>
        </extensions>
      </trkpt>
      <trkpt lat="45.3631823323667049407958984375" lon="-70.8085841126739978790283203125">
        <ele>518.4000244140625</ele>
        <time>2026-08-21T10:45:37.000Z</time>
        <extensions>
          <ns3:TrackPointExtension>
            <ns3:hr>143</ns3:hr>
            <ns3:cad>50</ns3:cad>
          </ns3:TrackPointExtension>
        </extensions>
      </trkpt>
      <trkpt lat="45.363170765340328216552734375" lon="-70.80858419649302959442138671875">
        <ele>518.5999755859375</ele>
        <time>2026-08-21T10:45:38.000Z</time>
        <extensions>
          <ns3:TrackPointExtension>
            <ns3:hr>143</ns3:hr>
            <ns3:cad>50</ns3:cad>
          </ns3:TrackPointExtension>
        </extensions>
      </trkpt>
      <trkpt lat="45.36315911449491977691650390625" lon="-70.8085790835320949554443359375">
        <ele>518.79998779296875</ele>
        <time>2026-08-21T10:45:39.000Z</time>
        <extensions>
          <ns3:TrackPointExtension>
            <ns3:hr>143</ns3:hr>
            <ns3:cad>50</ns3:cad>
          </ns3:TrackPointExtension>
        </extensions>
      </trkpt>
      <trkpt lat="45.3631417639553546905517578125" lon="-70.8085760660469532012939453125">
        <ele>519</ele>
        <time>2026-08-21T10:45:40.000Z</time>
        <extensions>
          <ns3:TrackPointExtension>
            <ns3:hr>144</ns3:hr>
            <ns3:cad>47</ns3:cad>
          </ns3:TrackPointExtension>
        </extensions>
      </trkpt>
      <trkpt lat="45.36313011310994625091552734375" lon="-70.80857380293309688568115234375">
        <ele>519.20001220703125</ele>
        <time>2026-08-21T10:45:41.000Z</time>
        <extensions>
          <ns3:TrackPointExtension>
            <ns3:hr>144</ns3:hr>
            <ns3:cad>47</ns3:cad>
          </ns3:TrackPointExtension>
        </extensions>
      </trkpt>
      <trkpt lat="45.36311804316937923431396484375" lon="-70.80857397057116031646728515625">
        <ele>519.5999755859375</ele>
        <time>2026-08-21T10:45:42.000Z</time>
        <extensions>
          <ns3:TrackPointExtension>
            <ns3:hr>144</ns3:hr>
            <ns3:cad>47</ns3:cad>
          </ns3:TrackPointExtension>
        </extensions>
      </trkpt>
      <trkpt lat="45.36310379393398761749267578125" lon="-70.80857480876147747039794921875">
        <ele>519.79998779296875</ele>
        <time>2026-08-21T10:45:43.000Z</time>
        <extensions>
          <ns3:TrackPointExtension>
            <ns3:hr>143</ns3:hr>
            <ns3:cad>48</ns3:cad>
          </ns3:TrackPointExtension>
        </extensions>
      </trkpt>
      <trkpt lat="45.36309256218373775482177734375" lon="-70.808574222028255462646484375">
        <ele>519.79998779296875</ele>
        <time>2026-08-21T10:45:44.000Z</time>
        <extensions>
          <ns3:TrackPointExtension>
            <ns3:hr>143</ns3:hr>
            <ns3:cad>48</ns3:cad>
          </ns3:TrackPointExtension>
        </extensions>
      </trkpt>
      <trkpt lat="45.36308015696704387664794921875" lon="-70.8085757307708263397216796875">
        <ele>520</ele>
        <time>2026-08-21T10:45:45.000Z</time>
        <extensions>
          <ns3:TrackPointExtension>
            <ns3:hr>144</ns3:hr>
            <ns3:cad>48</ns3:cad>
          </ns3:TrackPointExtension>
        </extensions>
      </trkpt>
      <trkpt lat="45.363065488636493682861328125" lon="-70.80857715569436550140380859375">
        <ele>520.20001220703125</ele>
        <time>2026-08-21T10:45:46.000Z</time>
        <extensions>
          <ns3:TrackPointExtension>
            <ns3:hr>144</ns3:hr>
            <ns3:cad>48</ns3:cad>
          </ns3:TrackPointExtension>
        </extensions>
      </trkpt>
      <trkpt lat="45.3630552627146244049072265625" lon="-70.80857916735112667083740234375">
        <ele>520.4000244140625</ele>
        <time>2026-08-21T10:45:47.000Z</time>
        <extensions>
          <ns3:TrackPointExtension>
            <ns3:hr>144</ns3:hr>
            <ns3:cad>46</ns3:cad>
          </ns3:TrackPointExtension>
        </extensions>
      </trkpt>
      <trkpt lat="45.36303992383182048797607421875" lon="-70.808585621416568756103515625">
        <ele>520.5999755859375</ele>
        <time>2026-08-21T10:45:48.000Z</time>
        <extensions>
          <ns3:TrackPointExtension>
            <ns3:hr>143</ns3:hr>
            <ns3:cad>48</ns3:cad>
          </ns3:TrackPointExtension>
        </extensions>
      </trkpt>
      <trkpt lat="45.36303020082414150238037109375" lon="-70.80859861336648464202880859375">
        <ele>520.79998779296875</ele>
        <time>2026-08-21T10:45:49.000Z</time>
        <extensions>
          <ns3:TrackPointExtension>
            <ns3:hr>143</ns3:hr>
            <ns3:cad>48</ns3:cad>
          </ns3:TrackPointExtension>
        </extensions>
      </trkpt>
      <trkpt lat="45.36301561631262302398681640625" lon="-70.808608420193195343017578125">
        <ele>520.79998779296875</ele>
        <time>2026-08-21T10:45:50.000Z</time>
        <extensions>
          <ns3:TrackPointExtension>
            <ns3:hr>144</ns3:hr>
            <ns3:cad>48</ns3:cad>
          </ns3:TrackPointExtension>
        </extensions>
      </trkpt>
      <trkpt lat="45.36299952305853366851806640625" lon="-70.80861705355346202850341796875">
        <ele>521</ele>
        <time>2026-08-21T10:45:51.000Z</time>
        <extensions>
          <ns3:TrackPointExtension>
            <ns3:hr>144</ns3:hr>
            <ns3:cad>48</ns3:cad>
          </ns3:TrackPointExtension>
        </extensions>
      </trkpt>
      <trkpt lat="45.36299097351729869842529296875" lon="-70.808624513447284698486328125">
        <ele>521</ele>
        <time>2026-08-21T10:45:52.000Z</time>
        <extensions>
          <ns3:TrackPointExtension>
            <ns3:hr>144</ns3:hr>
            <ns3:cad>0</ns3:cad>
          </ns3:TrackPointExtension>
        </extensions>
      </trkpt>
      <trkpt lat="45.362979657948017120361328125" lon="-70.80863700248301029205322265625">
        <ele>521</ele>
        <time>2026-08-21T10:45:53.000Z</time>
        <extensions>
          <ns3:TrackPointExtension>
            <ns3:hr>144</ns3:hr>
            <ns3:cad>0</ns3:cad>
          </ns3:TrackPointExtension>
        </extensions>
      </trkpt>
      <trkpt lat="45.36297194659709930419921875" lon="-70.80864471383392810821533203125">
        <ele>521</ele>
        <time>2026-08-21T10:45:54.000Z</time>
        <extensions>
          <ns3:TrackPointExtension>
            <ns3:hr>143</ns3:hr>
            <ns3:cad>50</ns3:cad>
          </ns3:TrackPointExtension>
        </extensions>
      </trkpt>
      <trkpt lat="45.36296549253165721893310546875" lon="-70.80865208990871906280517578125">
        <ele>521</ele>
        <time>2026-08-21T10:45:55.000Z</time>
        <extensions>
          <ns3:TrackPointExtension>
            <ns3:hr>143</ns3:hr>
            <ns3:cad>50</ns3:cad>
          </ns3:TrackPointExtension>
        </extensions>
      </trkpt>
      <trkpt lat="45.3629536740481853485107421875" lon="-70.808665417134761810302734375">
        <ele>521</ele>
        <time>2026-08-21T10:45:56.000Z</time>
        <extensions>
          <ns3:TrackPointExtension>
            <ns3:hr>143</ns3:hr>
            <ns3:cad>50</ns3:cad>
          </ns3:TrackPointExtension>
        </extensions>
      </trkpt>
      <trkpt lat="45.36294571124017238616943359375" lon="-70.80867455340921878814697265625">
        <ele>521.20001220703125</ele>
        <time>2026-08-21T10:45:57.000Z</time>
        <extensions>
          <ns3:TrackPointExtension>
            <ns3:hr>143</ns3:hr>
            <ns3:cad>50</ns3:cad>
          </ns3:TrackPointExtension>
        </extensions>
      </trkpt>
      <trkpt lat="45.36292861215770244598388671875" lon="-70.80868779681622982025146484375">
        <ele>521.4000244140625</ele>
        <time>2026-08-21T10:45:58.000Z</time>
        <extensions>
          <ns3:TrackPointExtension>
            <ns3:hr>142</ns3:hr>
            <ns3:cad>50</ns3:cad>
          </ns3:TrackPointExtension>
        </extensions>
      </trkpt>
      <trkpt lat="45.362917296588420867919921875" lon="-70.8086974360048770904541015625">
        <ele>521.4000244140625</ele>
        <time>2026-08-21T10:45:59.000Z</time>
        <extensions>
          <ns3:TrackPointExtension>
            <ns3:hr>142</ns3:hr>
            <ns3:cad>50</ns3:cad>
          </ns3:TrackPointExtension>
        </extensions>
      </trkpt>
      <trkpt lat="45.3629060648381710052490234375" lon="-70.80870657227933406829833984375">
        <ele>521.5999755859375</ele>
        <time>2026-08-21T10:46:00.000Z</time>
        <extensions>
          <ns3:TrackPointExtension>
            <ns3:hr>142</ns3:hr>
            <ns3:cad>0</ns3:cad>
          </ns3:TrackPointExtension>
        </extensions>
      </trkpt>
      <trkpt lat="45.36289491690695285797119140625" lon="-70.8087212406098842620849609375">
        <ele>521.79998779296875</ele>
        <time>2026-08-21T10:46:01.000Z</time>
        <extensions>
          <ns3:TrackPointExtension>
            <ns3:hr>141</ns3:hr>
            <ns3:cad>0</ns3:cad>
          </ns3:TrackPointExtension>
        </extensions>
      </trkpt>
      <trkpt lat="45.3628886304795742034912109375" lon="-70.8087306283414363861083984375">
        <ele>521.79998779296875</ele>
        <time>2026-08-21T10:46:02.000Z</time>
        <extensions>
          <ns3:TrackPointExtension>
            <ns3:hr>141</ns3:hr>
            <ns3:cad>0</ns3:cad>
          </ns3:TrackPointExtension>
        </extensions>
      </trkpt>
      <trkpt lat="45.3628755547106266021728515625" lon="-70.808734484016895294189453125">
        <ele>522</ele>
        <time>2026-08-21T10:46:03.000Z</time>
        <extensions>
          <ns3:TrackPointExtension>
            <ns3:hr>140</ns3:hr>
            <ns3:cad>0</ns3:cad>
          </ns3:TrackPointExtension>
        </extensions>
      </trkpt>
      <trkpt lat="45.36286826245486736297607421875" lon="-70.80873322673141956329345703125">
        <ele>522</ele>
        <time>2026-08-21T10:46:04.000Z</time>
        <extensions>
          <ns3:TrackPointExtension>
            <ns3:hr>139</ns3:hr>
            <ns3:cad>0</ns3:cad>
          </ns3:TrackPointExtension>
        </extensions>
      </trkpt>
      <trkpt lat="45.36285820417106151580810546875" lon="-70.8087323047220706939697265625">
        <ele>522.20001220703125</ele>
        <time>2026-08-21T10:46:05.000Z</time>
        <extensions>
          <ns3:TrackPointExtension>
            <ns3:hr>138</ns3:hr>
            <ns3:cad>0</ns3:cad>
          </ns3:TrackPointExtension>
        </extensions>
      </trkpt>
      <trkpt lat="45.36284579895436763763427734375" lon="-70.8087326399981975555419921875">
        <ele>522.4000244140625</ele>
        <time>2026-08-21T10:46:06.000Z</time>
        <extensions>
          <ns3:TrackPointExtension>
            <ns3:hr>138</ns3:hr>
            <ns3:cad>48</ns3:cad>
          </ns3:TrackPointExtension>
        </extensions>
      </trkpt>
      <trkpt lat="45.36283439956605434417724609375" lon="-70.80873423255980014801025390625">
        <ele>522.4000244140625</ele>
        <time>2026-08-21T10:46:07.000Z</time>
        <extensions>
          <ns3:TrackPointExtension>
            <ns3:hr>138</ns3:hr>
            <ns3:cad>48</ns3:cad>
          </ns3:TrackPointExtension>
        </extensions>
      </trkpt>
      <trkpt lat="45.3628239221870899200439453125" lon="-70.80873222090303897857666015625">
        <ele>522.5999755859375</ele>
        <time>2026-08-21T10:46:08.000Z</time>
        <extensions>
          <ns3:TrackPointExtension>
            <ns3:hr>138</ns3:hr>
            <ns3:cad>48</ns3:cad>
          </ns3:TrackPointExtension>
        </extensions>
      </trkpt>
      <trkpt lat="45.362817384302616119384765625" lon="-70.8087255991995334625244140625">
        <ele>522.5999755859375</ele>
        <time>2026-08-21T10:46:09.000Z</time>
        <extensions>
          <ns3:TrackPointExtension>
            <ns3:hr>139</ns3:hr>
            <ns3:cad>50</ns3:cad>
          </ns3:TrackPointExtension>
        </extensions>
      </trkpt>
      <trkpt lat="45.3628068231046199798583984375" lon="-70.80872115679085254669189453125">
        <ele>522.79998779296875</ele>
        <time>2026-08-21T10:46:10.000Z</time>
        <extensions>
          <ns3:TrackPointExtension>
            <ns3:hr>139</ns3:hr>
            <ns3:cad>50</ns3:cad>
          </ns3:TrackPointExtension>
        </extensions>
      </trkpt>
      <trkpt lat="45.36279316060245037078857421875" lon="-70.8087222464382648468017578125">
        <ele>523</ele>
        <time>2026-08-21T10:46:11.000Z</time>
        <extensions>
          <ns3:TrackPointExtension>
            <ns3:hr>139</ns3:hr>
            <ns3:cad>50</ns3:cad>
          </ns3:TrackPointExtension>
        </extensions>
      </trkpt>
      <trkpt lat="45.36278276704251766204833984375" lon="-70.8087329752743244171142578125">
        <ele>523.20001220703125</ele>
        <time>2026-08-21T10:46:12.000Z</time>
        <extensions>
          <ns3:TrackPointExtension>
            <ns3:hr>139</ns3:hr>
            <ns3:cad>50</ns3:cad>
          </ns3:TrackPointExtension>
        </extensions>
      </trkpt>
      <trkpt lat="45.36277069710195064544677734375" lon="-70.80873607657849788665771484375">
        <ele>523.20001220703125</ele>
        <time>2026-08-21T10:46:13.000Z</time>
        <extensions>
          <ns3:TrackPointExtension>
            <ns3:hr>138</ns3:hr>
            <ns3:cad>50</ns3:cad>
          </ns3:TrackPointExtension>
        </extensions>
      </trkpt>
      <trkpt lat="45.3627540171146392822265625" lon="-70.808741189539432525634765625">
        <ele>523.4000244140625</ele>
        <time>2026-08-21T10:46:14.000Z</time>
        <extensions>
          <ns3:TrackPointExtension>
            <ns3:hr>138</ns3:hr>
            <ns3:cad>50</ns3:cad>
          </ns3:TrackPointExtension>
        </extensions>
      </trkpt>
      <trkpt lat="45.36273834295570850372314453125" lon="-70.808743536472320556640625">
        <ele>523.4000244140625</ele>
        <time>2026-08-21T10:46:15.000Z</time>
        <extensions>
          <ns3:TrackPointExtension>
            <ns3:hr>138</ns3:hr>
            <ns3:cad>50</ns3:cad>
          </ns3:TrackPointExtension>
        </extensions>
      </trkpt>
      <trkpt lat="45.3627236746251583099365234375" lon="-70.8087343163788318634033203125">
        <ele>523.5999755859375</ele>
        <time>2026-08-21T10:46:16.000Z</time>
        <extensions>
          <ns3:TrackPointExtension>
            <ns3:hr>137</ns3:hr>
            <ns3:cad>50</ns3:cad>
          </ns3:TrackPointExtension>
        </extensions>
      </trkpt>
      <trkpt lat="45.36271604709327220916748046875" lon="-70.80872970633208751678466796875">
        <ele>523.5999755859375</ele>
        <time>2026-08-21T10:46:17.000Z</time>
        <extensions>
          <ns3:TrackPointExtension>
            <ns3:hr>136</ns3:hr>
            <ns3:cad>50</ns3:cad>
          </ns3:TrackPointExtension>
        </extensions>
      </trkpt>
      <trkpt lat="45.36270481534302234649658203125" lon="-70.8087289519608020782470703125">
        <ele>523.5999755859375</ele>
        <time>2026-08-21T10:46:18.000Z</time>
        <extensions>
          <ns3:TrackPointExtension>
            <ns3:hr>136</ns3:hr>
            <ns3:cad>52</ns3:cad>
          </ns3:TrackPointExtension>
        </extensions>
      </trkpt>
      <trkpt lat="45.36269836127758026123046875" lon="-70.8087269403040409088134765625">
        <ele>523.79998779296875</ele>
        <time>2026-08-21T10:46:19.000Z</time>
        <extensions>
          <ns3:TrackPointExtension>
            <ns3:hr>137</ns3:hr>
            <ns3:cad>52</ns3:cad>
          </ns3:TrackPointExtension>
        </extensions>
      </trkpt>
      <trkpt lat="45.36269157193601131439208984375" lon="-70.80872551538050174713134765625">
        <ele>523.79998779296875</ele>
        <time>2026-08-21T10:46:20.000Z</time>
        <extensions>
          <ns3:TrackPointExtension>
            <ns3:hr>138</ns3:hr>
            <ns3:cad>52</ns3:cad>
          </ns3:TrackPointExtension>
        </extensions>
      </trkpt>
      <trkpt lat="45.36268302239477634429931640625" lon="-70.80872249789535999298095703125">
        <ele>523.79998779296875</ele>
        <time>2026-08-21T10:46:21.000Z</time>
        <extensions>
          <ns3:TrackPointExtension>
            <ns3:hr>137</ns3:hr>
            <ns3:cad>52</ns3:cad>
          </ns3:TrackPointExtension>
        </extensions>
      </trkpt>
      <trkpt lat="45.36267665214836597442626953125" lon="-70.80871612764894962310791015625">
        <ele>524</ele>
        <time>2026-08-21T10:46:22.000Z</time>
        <extensions>
          <ns3:TrackPointExtension>
            <ns3:hr>138</ns3:hr>
            <ns3:cad>52</ns3:cad>
          </ns3:TrackPointExtension>
        </extensions>
      </trkpt>
      <trkpt lat="45.36266843788325786590576171875" lon="-70.80871009267866611480712890625">
        <ele>524</ele>
        <time>2026-08-21T10:46:23.000Z</time>
        <extensions>
          <ns3:TrackPointExtension>
            <ns3:hr>138</ns3:hr>
            <ns3:cad>53</ns3:cad>
          </ns3:TrackPointExtension>
        </extensions>
      </trkpt>
      <trkpt lat="45.362659133970737457275390625" lon="-70.80870355479419231414794921875">
        <ele>524</ele>
        <time>2026-08-21T10:46:24.000Z</time>
        <extensions>
          <ns3:TrackPointExtension>
            <ns3:hr>137</ns3:hr>
            <ns3:cad>53</ns3:cad>
          </ns3:TrackPointExtension>
        </extensions>
      </trkpt>
      <trkpt lat="45.36265184171497821807861328125" lon="-70.8087017945945262908935546875">
        <ele>524.4000244140625</ele>
        <time>2026-08-21T10:46:25.000Z</time>
        <extensions>
          <ns3:TrackPointExtension>
            <ns3:hr>137</ns3:hr>
            <ns3:cad>53</ns3:cad>
          </ns3:TrackPointExtension>
        </extensions>
      </trkpt>
      <trkpt lat="45.36264563910663127899169921875" lon="-70.8087028004229068756103515625">
        <ele>524.5999755859375</ele>
        <time>2026-08-21T10:46:26.000Z</time>
        <extensions>
          <ns3:TrackPointExtension>
            <ns3:hr>136</ns3:hr>
            <ns3:cad>53</ns3:cad>
          </ns3:TrackPointExtension>
        </extensions>
      </trkpt>
      <trkpt lat="45.36264094524085521697998046875" lon="-70.8086997829377651214599609375">
        <ele>524.79998779296875</ele>
        <time>2026-08-21T10:46:27.000Z</time>
        <extensions>
          <ns3:TrackPointExtension>
            <ns3:hr>136</ns3:hr>
            <ns3:cad>49</ns3:cad>
          </ns3:TrackPointExtension>
        </extensions>
      </trkpt>
      <trkpt lat="45.3626375086605548858642578125" lon="-70.808696262538433074951171875">
        <ele>525.20001220703125</ele>
        <time>2026-08-21T10:46:28.000Z</time>
        <extensions>
          <ns3:TrackPointExtension>
            <ns3:hr>136</ns3:hr>
            <ns3:cad>49</ns3:cad>
          </ns3:TrackPointExtension>
        </extensions>
      </trkpt>
      <trkpt lat="45.3626291267573833465576171875" lon="-70.80869735218584537506103515625">
        <ele>525.4000244140625</ele>
        <time>2026-08-21T10:46:29.000Z</time>
        <extensions>
          <ns3:TrackPointExtension>
            <ns3:hr>136</ns3:hr>
            <ns3:cad>49</ns3:cad>
          </ns3:TrackPointExtension>
        </extensions>
      </trkpt>
      <trkpt lat="45.3626194037497043609619140625" lon="-70.8086937479674816131591796875">
        <ele>525.79998779296875</ele>
        <time>2026-08-21T10:46:30.000Z</time>
        <extensions>
          <ns3:TrackPointExtension>
            <ns3:hr>136</ns3:hr>
            <ns3:cad>49</ns3:cad>
          </ns3:TrackPointExtension>
        </extensions>
      </trkpt>
      <trkpt lat="45.36261227913200855255126953125" lon="-70.80868897028267383575439453125">
        <ele>526</ele>
        <time>2026-08-21T10:46:31.000Z</time>
        <extensions>
          <ns3:TrackPointExtension>
            <ns3:hr>136</ns3:hr>
            <ns3:cad>49</ns3:cad>
          </ns3:TrackPointExtension>
        </extensions>
      </trkpt>
      <trkpt lat="45.3626038134098052978515625" lon="-70.8086885511875152587890625">
        <ele>526.4000244140625</ele>
        <time>2026-08-21T10:46:32.000Z</time>
        <extensions>
          <ns3:TrackPointExtension>
            <ns3:hr>135</ns3:hr>
            <ns3:cad>47</ns3:cad>
          </ns3:TrackPointExtension>
        </extensions>
      </trkpt>
      <trkpt lat="45.36259551532566547393798828125" lon="-70.80869014374911785125732421875">
        <ele>526.5999755859375</ele>
        <time>2026-08-21T10:46:33.000Z</time>
        <extensions>
          <ns3:TrackPointExtension>
            <ns3:hr>135</ns3:hr>
            <ns3:cad>47</ns3:cad>
          </ns3:TrackPointExtension>
        </extensions>
      </trkpt>
      <trkpt lat="45.3625885583460330963134765625" lon="-70.80869081430137157440185546875">
        <ele>527</ele>
        <time>2026-08-21T10:46:34.000Z</time>
        <extensions>
          <ns3:TrackPointExtension>
            <ns3:hr>135</ns3:hr>
            <ns3:cad>47</ns3:cad>
          </ns3:TrackPointExtension>
        </extensions>
      </trkpt>
      <trkpt lat="45.36257875151932239532470703125" lon="-70.8086914010345935821533203125">
        <ele>527.20001220703125</ele>
        <time>2026-08-21T10:46:35.000Z</time>
        <extensions>
          <ns3:TrackPointExtension>
            <ns3:hr>135</ns3:hr>
            <ns3:cad>43</ns3:cad>
          </ns3:TrackPointExtension>
        </extensions>
      </trkpt>
      <trkpt lat="45.36256634630262851715087890625" lon="-70.80869257450103759765625">
        <ele>527.5999755859375</ele>
        <time>2026-08-21T10:46:36.000Z</time>
        <extensions>
          <ns3:TrackPointExtension>
            <ns3:hr>134</ns3:hr>
            <ns3:cad>43</ns3:cad>
          </ns3:TrackPointExtension>
        </extensions>
      </trkpt>
      <trkpt lat="45.36256081424653530120849609375" lon="-70.8086897246539592742919921875">
        <ele>527.79998779296875</ele>
        <time>2026-08-21T10:46:37.000Z</time>
        <extensions>
          <ns3:TrackPointExtension>
            <ns3:hr>134</ns3:hr>
            <ns3:cad>48</ns3:cad>
          </ns3:TrackPointExtension>
        </extensions>
      </trkpt>
      <trkpt lat="45.36255679093301296234130859375" lon="-70.80868260003626346588134765625">
        <ele>528.20001220703125</ele>
        <time>2026-08-21T10:46:38.000Z</time>
        <extensions>
          <ns3:TrackPointExtension>
            <ns3:hr>134</ns3:hr>
            <ns3:cad>48</ns3:cad>
          </ns3:TrackPointExtension>
        </extensions>
      </trkpt>
      <trkpt lat="45.3625449724495410919189453125" lon="-70.80867622978985309600830078125">
        <ele>528.4000244140625</ele>
        <time>2026-08-21T10:46:39.000Z</time>
        <extensions>
          <ns3:TrackPointExtension>
            <ns3:hr>134</ns3:hr>
            <ns3:cad>0</ns3:cad>
          </ns3:TrackPointExtension>
        </extensions>
      </trkpt>
      <trkpt lat="45.36253751255571842193603515625" lon="-70.80867287702858448028564453125">
        <ele>528.79998779296875</ele>
        <time>2026-08-21T10:46:40.000Z</time>
        <extensions>
          <ns3:TrackPointExtension>
            <ns3:hr>134</ns3:hr>
            <ns3:cad>0</ns3:cad>
          </ns3:TrackPointExtension>
        </extensions>
      </trkpt>
      <trkpt lat="45.362532399594783782958984375" lon="-70.80867136828601360321044921875">
        <ele>529</ele>
        <time>2026-08-21T10:46:41.000Z</time>
        <extensions>
          <ns3:TrackPointExtension>
            <ns3:hr>134</ns3:hr>
            <ns3:cad>0</ns3:cad>
          </ns3:TrackPointExtension>
        </extensions>
      </trkpt>
      <trkpt lat="45.36252410151064395904541015625" lon="-70.80866717733442783355712890625">
        <ele>529.20001220703125</ele>
        <time>2026-08-21T10:46:42.000Z</time>
        <extensions>
          <ns3:TrackPointExtension>
            <ns3:hr>134</ns3:hr>
            <ns3:cad>46</ns3:cad>
          </ns3:TrackPointExtension>
        </extensions>
      </trkpt>
      <trkpt lat="45.36250851117074489593505859375" lon="-70.80866768024861812591552734375">
        <ele>529.4000244140625</ele>
        <time>2026-08-21T10:46:43.000Z</time>
        <extensions>
          <ns3:TrackPointExtension>
            <ns3:hr>134</ns3:hr>
            <ns3:cad>46</ns3:cad>
          </ns3:TrackPointExtension>
        </extensions>
      </trkpt>
      <trkpt lat="45.36250113509595394134521484375" lon="-70.80866935662925243377685546875">
        <ele>529.79998779296875</ele>
        <time>2026-08-21T10:46:44.000Z</time>
        <extensions>
          <ns3:TrackPointExtension>
            <ns3:hr>135</ns3:hr>
            <ns3:cad>46</ns3:cad>
          </ns3:TrackPointExtension>
        </extensions>
      </trkpt>
      <trkpt lat="45.36249677650630474090576171875" lon="-70.8086692728102207183837890625">
        <ele>530</ele>
        <time>2026-08-21T10:46:45.000Z</time>
        <extensions>
          <ns3:TrackPointExtension>
            <ns3:hr>135</ns3:hr>
            <ns3:cad>42</ns3:cad>
          </ns3:TrackPointExtension>
        </extensions>
      </trkpt>
      <trkpt lat="45.36248453892767429351806640625" lon="-70.808668434619903564453125">
        <ele>530.20001220703125</ele>
        <time>2026-08-21T10:46:46.000Z</time>
        <extensions>
          <ns3:TrackPointExtension>
            <ns3:hr>136</ns3:hr>
            <ns3:cad>42</ns3:cad>
          </ns3:TrackPointExtension>
        </extensions>
      </trkpt>
      <trkpt lat="45.3624745644629001617431640625" lon="-70.8086692728102207183837890625">
        <ele>530.5999755859375</ele>
        <time>2026-08-21T10:46:47.000Z</time>
        <extensions>
          <ns3:TrackPointExtension>
            <ns3:hr>137</ns3:hr>
            <ns3:cad>44</ns3:cad>
          </ns3:TrackPointExtension>
        </extensions>
      </trkpt>
      <trkpt lat="45.3624668531119823455810546875" lon="-70.80866851843893527984619140625">
        <ele>530.79998779296875</ele>
        <time>2026-08-21T10:46:48.000Z</time>
        <extensions>
          <ns3:TrackPointExtension>
            <ns3:hr>138</ns3:hr>
            <ns3:cad>44</ns3:cad>
          </ns3:TrackPointExtension>
        </extensions>
      </trkpt>
      <trkpt lat="45.3624591417610645294189453125" lon="-70.8086665906012058258056640625">
        <ele>531</ele>
        <time>2026-08-21T10:46:49.000Z</time>
        <extensions>
          <ns3:TrackPointExtension>
            <ns3:hr>138</ns3:hr>
            <ns3:cad>44</ns3:cad>
          </ns3:TrackPointExtension>
        </extensions>
      </trkpt>
      <trkpt lat="45.3624482452869415283203125" lon="-70.80866374075412750244140625">
        <ele>531.4000244140625</ele>
        <time>2026-08-21T10:46:50.000Z</time>
        <extensions>
          <ns3:TrackPointExtension>
            <ns3:hr>139</ns3:hr>
            <ns3:cad>44</ns3:cad>
          </ns3:TrackPointExtension>
        </extensions>
      </trkpt>
      <trkpt lat="45.36243843846023082733154296875" lon="-70.80866231583058834075927734375">
        <ele>531.5999755859375</ele>
        <time>2026-08-21T10:46:51.000Z</time>
        <extensions>
          <ns3:TrackPointExtension>
            <ns3:hr>139</ns3:hr>
            <ns3:cad>44</ns3:cad>
          </ns3:TrackPointExtension>
        </extensions>
      </trkpt>
      <trkpt lat="45.36242452450096607208251953125" lon="-70.8086608909070491790771484375">
        <ele>532</ele>
        <time>2026-08-21T10:46:52.000Z</time>
        <extensions>
          <ns3:TrackPointExtension>
            <ns3:hr>139</ns3:hr>
            <ns3:cad>44</ns3:cad>
          </ns3:TrackPointExtension>
        </extensions>
      </trkpt>
      <trkpt lat="45.3624138794839382171630859375" lon="-70.8086665906012058258056640625">
        <ele>532.20001220703125</ele>
        <time>2026-08-21T10:46:53.000Z</time>
        <extensions>
          <ns3:TrackPointExtension>
            <ns3:hr>139</ns3:hr>
            <ns3:cad>47</ns3:cad>
          </ns3:TrackPointExtension>
        </extensions>
      </trkpt>
      <trkpt lat="45.3624014742672443389892578125" lon="-70.80866650678217411041259765625">
        <ele>532.4000244140625</ele>
        <time>2026-08-21T10:46:54.000Z</time>
        <extensions>
          <ns3:TrackPointExtension>
            <ns3:hr>139</ns3:hr>
            <ns3:cad>47</ns3:cad>
          </ns3:TrackPointExtension>
        </extensions>
      </trkpt>
      <trkpt lat="45.36238630302250385284423828125" lon="-70.8086622320115566253662109375">
        <ele>532.5999755859375</ele>
        <time>2026-08-21T10:46:55.000Z</time>
        <extensions>
          <ns3:TrackPointExtension>
            <ns3:hr>139</ns3:hr>
            <ns3:cad>47</ns3:cad>
          </ns3:TrackPointExtension>
        </extensions>
      </trkpt>
      <trkpt lat="45.362374484539031982421875" lon="-70.80865996889770030975341796875">
        <ele>532.5999755859375</ele>
        <time>2026-08-21T10:46:56.000Z</time>
        <extensions>
          <ns3:TrackPointExtension>
            <ns3:hr>140</ns3:hr>
            <ns3:cad>47</ns3:cad>
          </ns3:TrackPointExtension>
        </extensions>
      </trkpt>
      <trkpt lat="45.3623612411320209503173828125" lon="-70.80866239964962005615234375">
        <ele>532.79998779296875</ele>
        <time>2026-08-21T10:46:57.000Z</time>
        <extensions>
          <ns3:TrackPointExtension>
            <ns3:hr>140</ns3:hr>
            <ns3:cad>47</ns3:cad>
          </ns3:TrackPointExtension>
        </extensions>
      </trkpt>
      <trkpt lat="45.3623491711914539337158203125" lon="-70.808663070201873779296875">
        <ele>533</ele>
        <time>2026-08-21T10:46:58.000Z</time>
        <extensions>
          <ns3:TrackPointExtension>
            <ns3:hr>140</ns3:hr>
            <ns3:cad>47</ns3:cad>
          </ns3:TrackPointExtension>
        </extensions>
      </trkpt>
      <trkpt lat="45.36233718506991863250732421875" lon="-70.80866147764027118682861328125">
        <ele>533</ele>
        <time>2026-08-21T10:46:59.000Z</time>
        <extensions>
          <ns3:TrackPointExtension>
            <ns3:hr>140</ns3:hr>
            <ns3:cad>47</ns3:cad>
          </ns3:TrackPointExtension>
        </extensions>
      </trkpt>
      <trkpt lat="45.36232142709195613861083984375" lon="-70.8086605556309223175048828125">
        <ele>533.20001220703125</ele>
        <time>2026-08-21T10:47:00.000Z</time>
        <extensions>
          <ns3:TrackPointExtension>
            <ns3:hr>141</ns3:hr>
            <ns3:cad>47</ns3:cad>
          </ns3:TrackPointExtension>
        </extensions>
      </trkpt>
      <trkpt lat="45.36230449564754962921142578125" lon="-70.8086669258773326873779296875">
        <ele>533.20001220703125</ele>
        <time>2026-08-21T10:47:01.000Z</time>
        <extensions>
          <ns3:TrackPointExtension>
            <ns3:hr>142</ns3:hr>
            <ns3:cad>47</ns3:cad>
          </ns3:TrackPointExtension>
        </extensions>
      </trkpt>
      <trkpt lat="45.36228823475539684295654296875" lon="-70.8086778223514556884765625">
        <ele>533.20001220703125</ele>
        <time>2026-08-21T10:47:02.000Z</time>
        <extensions>
          <ns3:TrackPointExtension>
            <ns3:hr>142</ns3:hr>
            <ns3:cad>47</ns3:cad>
          </ns3:TrackPointExtension>
        </extensions>
      </trkpt>
      <trkpt lat="45.36227063275873661041259765625" lon="-70.80868980847299098968505859375">
        <ele>533</ele>
        <time>2026-08-21T10:47:03.000Z</time>
        <extensions>
          <ns3:TrackPointExtension>
            <ns3:hr>142</ns3:hr>
            <ns3:cad>47</ns3:cad>
          </ns3:TrackPointExtension>
        </extensions>
      </trkpt>
      <trkpt lat="45.36225789226591587066650390625" lon="-70.8087011240422725677490234375">
        <ele>533</ele>
        <time>2026-08-21T10:47:04.000Z</time>
        <extensions>
          <ns3:TrackPointExtension>
            <ns3:hr>143</ns3:hr>
            <ns3:cad>47</ns3:cad>
          </ns3:TrackPointExtension>
        </extensions>
      </trkpt>
      <trkpt lat="45.36224632523953914642333984375" lon="-70.80871327780187129974365234375">
        <ele>533</ele>
        <time>2026-08-21T10:47:05.000Z</time>
        <extensions>
          <ns3:TrackPointExtension>
            <ns3:hr>143</ns3:hr>
            <ns3:cad>53</ns3:cad>
          </ns3:TrackPointExtension>
        </extensions>
      </trkpt>
      <trkpt lat="45.3622378595173358917236328125" lon="-70.8087234199047088623046875">
        <ele>533</ele>
        <time>2026-08-21T10:47:06.000Z</time>
        <extensions>
          <ns3:TrackPointExtension>
            <ns3:hr>143</ns3:hr>
            <ns3:cad>53</ns3:cad>
          </ns3:TrackPointExtension>
        </extensions>
      </trkpt>
      <trkpt lat="45.36222956143319606781005859375" lon="-70.8087349869310855865478515625">
        <ele>532.79998779296875</ele>
        <time>2026-08-21T10:47:07.000Z</time>
        <extensions>
          <ns3:TrackPointExtension>
            <ns3:hr>142</ns3:hr>
            <ns3:cad>53</ns3:cad>
          </ns3:TrackPointExtension>
        </extensions>
      </trkpt>
      <trkpt lat="45.36222084425389766693115234375" lon="-70.8087504096329212188720703125">
        <ele>532.79998779296875</ele>
        <time>2026-08-21T10:47:08.000Z</time>
        <extensions>
          <ns3:TrackPointExtension>
            <ns3:hr>143</ns3:hr>
            <ns3:cad>53</ns3:cad>
          </ns3:TrackPointExtension>
        </extensions>
      </trkpt>
      <trkpt lat="45.36221154034137725830078125" lon="-70.808763988316059112548828125">
        <ele>532.5999755859375</ele>
        <time>2026-08-21T10:47:09.000Z</time>
        <extensions>
          <ns3:TrackPointExtension>
            <ns3:hr>142</ns3:hr>
            <ns3:cad>53</ns3:cad>
          </ns3:TrackPointExtension>
        </extensions>
      </trkpt>
      <trkpt lat="45.362199135124683380126953125" lon="-70.8087718673050403594970703125">
        <ele>532.5999755859375</ele>
        <time>2026-08-21T10:47:10.000Z</time>
        <extensions>
          <ns3:TrackPointExtension>
            <ns3:hr>142</ns3:hr>
            <ns3:cad>53</ns3:cad>
          </ns3:TrackPointExtension>
        </extensions>
      </trkpt>
      <trkpt lat="45.36218530498445034027099609375" lon="-70.80878217704594135284423828125">
        <ele>532.4000244140625</ele>
        <time>2026-08-21T10:47:11.000Z</time>
        <extensions>
          <ns3:TrackPointExtension>
            <ns3:hr>142</ns3:hr>
            <ns3:cad>54</ns3:cad>
          </ns3:TrackPointExtension>
        </extensions>
      </trkpt>
      <trkpt lat="45.36217357032001018524169921875" lon="-70.80878301523625850677490234375">
        <ele>532.20001220703125</ele>
        <time>2026-08-21T10:47:12.000Z</time>
        <extensions>
          <ns3:TrackPointExtension>
            <ns3:hr>142</ns3:hr>
            <ns3:cad>54</ns3:cad>
          </ns3:TrackPointExtension>
        </extensions>
      </trkpt>
      <trkpt lat="45.3621634282171726226806640625" lon="-70.8087775669991970062255859375">
        <ele>531.79998779296875</ele>
        <time>2026-08-21T10:47:13.000Z</time>
        <extensions>
          <ns3:TrackPointExtension>
            <ns3:hr>142</ns3:hr>
            <ns3:cad>54</ns3:cad>
          </ns3:TrackPointExtension>
        </extensions>
      </trkpt>
      <trkpt lat="45.36214842461049556732177734375" lon="-70.80877966247498989105224609375">
        <ele>531.5999755859375</ele>
        <time>2026-08-21T10:47:14.000Z</time>
        <extensions>
          <ns3:TrackPointExtension>
            <ns3:hr>142</ns3:hr>
            <ns3:cad>54</ns3:cad>
          </ns3:TrackPointExtension>
        </extensions>
      </trkpt>
      <trkpt lat="45.36213601939380168914794921875" lon="-70.80878519453108310699462890625">
        <ele>531.4000244140625</ele>
        <time>2026-08-21T10:47:15.000Z</time>
        <extensions>
          <ns3:TrackPointExtension>
            <ns3:hr>142</ns3:hr>
            <ns3:cad>54</ns3:cad>
          </ns3:TrackPointExtension>
        </extensions>
      </trkpt>
      <trkpt lat="45.3621252067387104034423828125" lon="-70.8087904751300811767578125">
        <ele>531.4000244140625</ele>
        <time>2026-08-21T10:47:16.000Z</time>
        <extensions>
          <ns3:TrackPointExtension>
            <ns3:hr>142</ns3:hr>
            <ns3:cad>54</ns3:cad>
          </ns3:TrackPointExtension>
        </extensions>
      </trkpt>
      <trkpt lat="45.362113304436206817626953125" lon="-70.80879785120487213134765625">
        <ele>531.20001220703125</ele>
        <time>2026-08-21T10:47:17.000Z</time>
        <extensions>
          <ns3:TrackPointExtension>
            <ns3:hr>141</ns3:hr>
            <ns3:cad>57</ns3:cad>
          </ns3:TrackPointExtension>
        </extensions>
      </trkpt>
      <trkpt lat="45.36209796555340290069580078125" lon="-70.80880279652774333953857421875">
        <ele>531.20001220703125</ele>
        <time>2026-08-21T10:47:18.000Z</time>
        <extensions>
          <ns3:TrackPointExtension>
            <ns3:hr>141</ns3:hr>
            <ns3:cad>57</ns3:cad>
          </ns3:TrackPointExtension>
        </extensions>
      </trkpt>
      <trkpt lat="45.362079776823520660400390625" lon="-70.808806903660297393798828125">
        <ele>531</ele>
        <time>2026-08-21T10:47:19.000Z</time>
        <extensions>
          <ns3:TrackPointExtension>
            <ns3:hr>140</ns3:hr>
            <ns3:cad>57</ns3:cad>
          </ns3:TrackPointExtension>
        </extensions>
      </trkpt>
      <trkpt lat="45.36206712014973163604736328125" lon="-70.80880916677415370941162109375">
        <ele>530.79998779296875</ele>
        <time>2026-08-21T10:47:20.000Z</time>
        <extensions>
          <ns3:TrackPointExtension>
            <ns3:hr>140</ns3:hr>
            <ns3:cad>56</ns3:cad>
          </ns3:TrackPointExtension>
        </extensions>
      </trkpt>
      <trkpt lat="45.36205404438078403472900390625" lon="-70.808810256421566009521484375">
        <ele>530.5999755859375</ele>
        <time>2026-08-21T10:47:21.000Z</time>
        <extensions>
          <ns3:TrackPointExtension>
            <ns3:hr>139</ns3:hr>
            <ns3:cad>56</ns3:cad>
          </ns3:TrackPointExtension>
        </extensions>
      </trkpt>
      <trkpt lat="45.362041555345058441162109375" lon="-70.80881126224994659423828125">
        <ele>530.20001220703125</ele>
        <time>2026-08-21T10:47:22.000Z</time>
        <extensions>
          <ns3:TrackPointExtension>
            <ns3:hr>138</ns3:hr>
            <ns3:cad>58</ns3:cad>
          </ns3:TrackPointExtension>
        </extensions>
      </trkpt>
      <trkpt lat="45.36202839575707912445068359375" lon="-70.8088134415447711944580078125">
        <ele>530</ele>
        <time>2026-08-21T10:47:23.000Z</time>
        <extensions>
          <ns3:TrackPointExtension>
            <ns3:hr>137</ns3:hr>
            <ns3:cad>58</ns3:cad>
          </ns3:TrackPointExtension>
        </extensions>
      </trkpt>
      <trkpt lat="45.362014733254909515380859375" lon="-70.80881419591605663299560546875">
        <ele>530</ele>
        <time>2026-08-21T10:47:24.000Z</time>
        <extensions>
          <ns3:TrackPointExtension>
            <ns3:hr>136</ns3:hr>
            <ns3:cad>54</ns3:cad>
          </ns3:TrackPointExtension>
        </extensions>
      </trkpt>
      <trkpt lat="45.36200257949531078338623046875" lon="-70.80881302244961261749267578125">
        <ele>530</ele>
        <time>2026-08-21T10:47:25.000Z</time>
        <extensions>
          <ns3:TrackPointExtension>
            <ns3:hr>135</ns3:hr>
            <ns3:cad>54</ns3:cad>
          </ns3:TrackPointExtension>
        </extensions>
      </trkpt>
      <trkpt lat="45.36199025809764862060546875" lon="-70.808809585869312286376953125">
        <ele>530.20001220703125</ele>
        <time>2026-08-21T10:47:26.000Z</time>
        <extensions>
          <ns3:TrackPointExtension>
            <ns3:hr>134</ns3:hr>
            <ns3:cad>54</ns3:cad>
          </ns3:TrackPointExtension>
        </extensions>
      </trkpt>
      <trkpt lat="45.36197609268128871917724609375" lon="-70.80880665220320224761962890625">
        <ele>530.20001220703125</ele>
        <time>2026-08-21T10:47:27.000Z</time>
        <extensions>
          <ns3:TrackPointExtension>
            <ns3:hr>133</ns3:hr>
            <ns3:cad>54</ns3:cad>
          </ns3:TrackPointExtension>
        </extensions>
      </trkpt>
      <trkpt lat="45.3619639389216899871826171875" lon="-70.8088053949177265167236328125">
        <ele>530.20001220703125</ele>
        <time>2026-08-21T10:47:28.000Z</time>
        <extensions>
          <ns3:TrackPointExtension>
            <ns3:hr>132</ns3:hr>
            <ns3:cad>54</ns3:cad>
          </ns3:TrackPointExtension>
        </extensions>
      </trkpt>
      <trkpt lat="45.3619538806378841400146484375" lon="-70.80880480818450450897216796875">
        <ele>530</ele>
        <time>2026-08-21T10:47:29.000Z</time>
        <extensions>
          <ns3:TrackPointExtension>
            <ns3:hr>131</ns3:hr>
            <ns3:cad>50</ns3:cad>
          </ns3:TrackPointExtension>
        </extensions>
      </trkpt>
      <trkpt lat="45.3619387932121753692626953125" lon="-70.80880799330770969390869140625">
        <ele>530</ele>
        <time>2026-08-21T10:47:30.000Z</time>
        <extensions>
          <ns3:TrackPointExtension>
            <ns3:hr>130</ns3:hr>
            <ns3:cad>50</ns3:cad>
          </ns3:TrackPointExtension>
        </extensions>
      </trkpt>
      <trkpt lat="45.36192194558680057525634765625" lon="-70.8088137768208980560302734375">
        <ele>529.79998779296875</ele>
        <time>2026-08-21T10:47:31.000Z</time>
        <extensions>
          <ns3:TrackPointExtension>
            <ns3:hr>129</ns3:hr>
            <ns3:cad>49</ns3:cad>
          </ns3:TrackPointExtension>
        </extensions>
      </trkpt>
      <trkpt lat="45.36190601997077465057373046875" lon="-70.8088201470673084259033203125">
        <ele>529.5999755859375</ele>
        <time>2026-08-21T10:47:32.000Z</time>
        <extensions>
          <ns3:TrackPointExtension>
            <ns3:hr>127</ns3:hr>
            <ns3:cad>49</ns3:cad>
          </ns3:TrackPointExtension>
        </extensions>
      </trkpt>
      <trkpt lat="45.36189294420182704925537109375" lon="-70.80882844515144824981689453125">
        <ele>529.4000244140625</ele>
        <time>2026-08-21T10:47:33.000Z</time>
        <extensions>
          <ns3:TrackPointExtension>
            <ns3:hr>126</ns3:hr>
            <ns3:cad>49</ns3:cad>
          </ns3:TrackPointExtension>
        </extensions>
      </trkpt>
      <trkpt lat="45.36187953315675258636474609375" lon="-70.80883481539785861968994140625">
        <ele>529.4000244140625</ele>
        <time>2026-08-21T10:47:34.000Z</time>
        <extensions>
          <ns3:TrackPointExtension>
            <ns3:hr>125</ns3:hr>
            <ns3:cad>49</ns3:cad>
          </ns3:TrackPointExtension>
        </extensions>
      </trkpt>
      <trkpt lat="45.36187249235808849334716796875" lon="-70.8088405989110469818115234375">
        <ele>529.20001220703125</ele>
        <time>2026-08-21T10:47:35.000Z</time>
        <extensions>
          <ns3:TrackPointExtension>
            <ns3:hr>125</ns3:hr>
            <ns3:cad>49</ns3:cad>
          </ns3:TrackPointExtension>
        </extensions>
      </trkpt>
      <trkpt lat="45.361855141818523406982421875" lon="-70.8088439516723155975341796875">
        <ele>529.20001220703125</ele>
        <time>2026-08-21T10:47:36.000Z</time>
        <extensions>
          <ns3:TrackPointExtension>
            <ns3:hr>125</ns3:hr>
            <ns3:cad>0</ns3:cad>
          </ns3:TrackPointExtension>
        </extensions>
      </trkpt>
      <trkpt lat="45.36184265278279781341552734375" lon="-70.80884722061455249786376953125">
        <ele>529.4000244140625</ele>
        <time>2026-08-21T10:47:37.000Z</time>
        <extensions>
          <ns3:TrackPointExtension>
            <ns3:hr>125</ns3:hr>
            <ns3:cad>0</ns3:cad>
          </ns3:TrackPointExtension>
        </extensions>
      </trkpt>
      <trkpt lat="45.36182974465191364288330078125" lon="-70.808849148452281951904296875">
        <ele>529.5999755859375</ele>
        <time>2026-08-21T10:47:38.000Z</time>
        <extensions>
          <ns3:TrackPointExtension>
            <ns3:hr>125</ns3:hr>
            <ns3:cad>0</ns3:cad>
          </ns3:TrackPointExtension>
        </extensions>
      </trkpt>
      <trkpt lat="45.36181800998747348785400390625" lon="-70.80885560251772403717041015625">
        <ele>529.5999755859375</ele>
        <time>2026-08-21T10:47:39.000Z</time>
        <extensions>
          <ns3:TrackPointExtension>
            <ns3:hr>125</ns3:hr>
            <ns3:cad>0</ns3:cad>
          </ns3:TrackPointExtension>
        </extensions>
      </trkpt>
      <trkpt lat="45.3618144057691097259521484375" lon="-70.80885593779385089874267578125">
        <ele>529.79998779296875</ele>
        <time>2026-08-21T10:47:40.000Z</time>
        <extensions>
          <ns3:TrackPointExtension>
            <ns3:hr>124</ns3:hr>
            <ns3:cad>0</ns3:cad>
          </ns3:TrackPointExtension>
        </extensions>
      </trkpt>
      <trkpt lat="45.3618046827614307403564453125" lon="-70.8088556863367557525634765625">
        <ele>529.79998779296875</ele>
        <time>2026-08-21T10:47:41.000Z</time>
        <extensions>
          <ns3:TrackPointExtension>
            <ns3:hr>124</ns3:hr>
            <ns3:cad>52</ns3:cad>
          </ns3:TrackPointExtension>
        </extensions>
      </trkpt>
      <trkpt lat="45.361798144876956939697265625" lon="-70.80885292030870914459228515625">
        <ele>530</ele>
        <time>2026-08-21T10:47:42.000Z</time>
        <extensions>
          <ns3:TrackPointExtension>
            <ns3:hr>123</ns3:hr>
            <ns3:cad>52</ns3:cad>
          </ns3:TrackPointExtension>
        </extensions>
      </trkpt>
      <trkpt lat="45.36178967915475368499755859375" lon="-70.80885074101388454437255859375">
        <ele>530.20001220703125</ele>
        <time>2026-08-21T10:47:43.000Z</time>
        <extensions>
          <ns3:TrackPointExtension>
            <ns3:hr>123</ns3:hr>
            <ns3:cad>50</ns3:cad>
          </ns3:TrackPointExtension>
        </extensions>
      </trkpt>
      <trkpt lat="45.36177408881485462188720703125" lon="-70.8088513277471065521240234375">
        <ele>530.4000244140625</ele>
        <time>2026-08-21T10:47:44.000Z</time>
        <extensions>
          <ns3:TrackPointExtension>
            <ns3:hr>123</ns3:hr>
            <ns3:cad>49</ns3:cad>
          </ns3:TrackPointExtension>
        </extensions>
      </trkpt>
      <trkpt lat="45.36175833083689212799072265625" lon="-70.80885711126029491424560546875">
        <ele>530.5999755859375</ele>
        <time>2026-08-21T10:47:45.000Z</time>
        <extensions>
          <ns3:TrackPointExtension>
            <ns3:hr>123</ns3:hr>
            <ns3:cad>49</ns3:cad>
          </ns3:TrackPointExtension>
        </extensions>
      </trkpt>
      <trkpt lat="45.36174559034407138824462890625" lon="-70.8088587038218975067138671875">
        <ele>531</ele>
        <time>2026-08-21T10:47:46.000Z</time>
        <extensions>
          <ns3:TrackPointExtension>
            <ns3:hr>123</ns3:hr>
            <ns3:cad>49</ns3:cad>
          </ns3:TrackPointExtension>
        </extensions>
      </trkpt>
      <trkpt lat="45.36173284985125064849853515625" lon="-70.80886222422122955322265625">
        <ele>531.20001220703125</ele>
        <time>2026-08-21T10:47:47.000Z</time>
        <extensions>
          <ns3:TrackPointExtension>
            <ns3:hr>122</ns3:hr>
            <ns3:cad>49</ns3:cad>
          </ns3:TrackPointExtension>
        </extensions>
      </trkpt>
      <trkpt lat="45.36172295920550823211669921875" lon="-70.80886817537248134613037109375">
        <ele>531.4000244140625</ele>
        <time>2026-08-21T10:47:48.000Z</time>
        <extensions>
          <ns3:TrackPointExtension>
            <ns3:hr>122</ns3:hr>
            <ns3:cad>45</ns3:cad>
          </ns3:TrackPointExtension>
        </extensions>
      </trkpt>
      <trkpt lat="45.36171139217913150787353515625" lon="-70.80887789838016033172607421875">
        <ele>531.5999755859375</ele>
        <time>2026-08-21T10:47:49.000Z</time>
        <extensions>
          <ns3:TrackPointExtension>
            <ns3:hr>122</ns3:hr>
            <ns3:cad>45</ns3:cad>
          </ns3:TrackPointExtension>
        </extensions>
      </trkpt>
      <trkpt lat="45.36170032806694507598876953125" lon="-70.80888502299785614013671875">
        <ele>531.5999755859375</ele>
        <time>2026-08-21T10:47:50.000Z</time>
        <extensions>
          <ns3:TrackPointExtension>
            <ns3:hr>122</ns3:hr>
            <ns3:cad>45</ns3:cad>
          </ns3:TrackPointExtension>
        </extensions>
      </trkpt>
      <trkpt lat="45.36169077269732952117919921875" lon="-70.8088835142552852630615234375">
        <ele>531.79998779296875</ele>
        <time>2026-08-21T10:47:51.000Z</time>
        <extensions>
          <ns3:TrackPointExtension>
            <ns3:hr>121</ns3:hr>
            <ns3:cad>43</ns3:cad>
          </ns3:TrackPointExtension>
        </extensions>
      </trkpt>
      <trkpt lat="45.36168314516544342041015625" lon="-70.8088828437030315399169921875">
        <ele>532</ele>
        <time>2026-08-21T10:47:52.000Z</time>
        <extensions>
          <ns3:TrackPointExtension>
            <ns3:hr>122</ns3:hr>
            <ns3:cad>43</ns3:cad>
          </ns3:TrackPointExtension>
        </extensions>
      </trkpt>
      <trkpt lat="45.36168054677546024322509765625" lon="-70.80888108350336551666259765625">
        <ele>532.20001220703125</ele>
        <time>2026-08-21T10:47:53.000Z</time>
        <extensions>
          <ns3:TrackPointExtension>
            <ns3:hr>122</ns3:hr>
            <ns3:cad>43</ns3:cad>
          </ns3:TrackPointExtension>
        </extensions>
      </trkpt>
      <trkpt lat="45.3616745956242084503173828125" lon="-70.8088855259120464324951171875">
        <ele>532.20001220703125</ele>
        <time>2026-08-21T10:47:54.000Z</time>
        <extensions>
          <ns3:TrackPointExtension>
            <ns3:hr>123</ns3:hr>
            <ns3:cad>43</ns3:cad>
          </ns3:TrackPointExtension>
        </extensions>
      </trkpt>
      <trkpt lat="45.3616672195494174957275390625" lon="-70.808884017169475555419921875">
        <ele>532.4000244140625</ele>
        <time>2026-08-21T10:47:55.000Z</time>
        <extensions>
          <ns3:TrackPointExtension>
            <ns3:hr>124</ns3:hr>
            <ns3:cad>0</ns3:cad>
          </ns3:TrackPointExtension>
        </extensions>
      </trkpt>
      <trkpt lat="45.36166344769299030303955078125" lon="-70.80888644792139530181884765625">
        <ele>532.5999755859375</ele>
        <time>2026-08-21T10:47:56.000Z</time>
        <extensions>
          <ns3:TrackPointExtension>
            <ns3:hr>124</ns3:hr>
            <ns3:cad>0</ns3:cad>
          </ns3:TrackPointExtension>
        </extensions>
      </trkpt>
      <trkpt lat="45.36166076548397541046142578125" lon="-70.80889147706329822540283203125">
        <ele>532.79998779296875</ele>
        <time>2026-08-21T10:47:57.000Z</time>
        <extensions>
          <ns3:TrackPointExtension>
            <ns3:hr>125</ns3:hr>
            <ns3:cad>0</ns3:cad>
          </ns3:TrackPointExtension>
        </extensions>
      </trkpt>
      <trkpt lat="45.3616558201611042022705078125" lon="-70.8088959194719791412353515625">
        <ele>533</ele>
        <time>2026-08-21T10:47:58.000Z</time>
        <extensions>
          <ns3:TrackPointExtension>
            <ns3:hr>126</ns3:hr>
            <ns3:cad>0</ns3:cad>
          </ns3:TrackPointExtension>
        </extensions>
      </trkpt>
      <trkpt lat="45.3616564907133579254150390625" lon="-70.8088975958526134490966796875">
        <ele>533.20001220703125</ele>
        <time>2026-08-21T10:47:59.000Z</time>
        <extensions>
          <ns3:TrackPointExtension>
            <ns3:hr>126</ns3:hr>
            <ns3:cad>0</ns3:cad>
          </ns3:TrackPointExtension>
        </extensions>
      </trkpt>
      <trkpt lat="45.36165741272270679473876953125" lon="-70.8088979311287403106689453125">
        <ele>533.5999755859375</ele>
        <time>2026-08-21T10:48:00.000Z</time>
        <extensions>
          <ns3:TrackPointExtension>
            <ns3:hr>126</ns3:hr>
            <ns3:cad>0</ns3:cad>
          </ns3:TrackPointExtension>
        </extensions>
      </trkpt>
      <trkpt lat="45.3616564907133579254150390625" lon="-70.80889600329101085662841796875">
        <ele>533.79998779296875</ele>
        <time>2026-08-21T10:48:01.000Z</time>
        <extensions>
          <ns3:TrackPointExtension>
            <ns3:hr>126</ns3:hr>
            <ns3:cad>0</ns3:cad>
          </ns3:TrackPointExtension>
        </extensions>
      </trkpt>
      <trkpt lat="45.3616494499146938323974609375" lon="-70.80889432691037654876708984375">
        <ele>534.20001220703125</ele>
        <time>2026-08-21T10:48:02.000Z</time>
        <extensions>
          <ns3:TrackPointExtension>
            <ns3:hr>126</ns3:hr>
            <ns3:cad>0</ns3:cad>
          </ns3:TrackPointExtension>
        </extensions>
      </trkpt>
      <trkpt lat="45.361639559268951416015625" lon="-70.8088925667107105255126953125">
        <ele>534.4000244140625</ele>
        <time>2026-08-21T10:48:03.000Z</time>
        <extensions>
          <ns3:TrackPointExtension>
            <ns3:hr>126</ns3:hr>
            <ns3:cad>0</ns3:cad>
          </ns3:TrackPointExtension>
        </extensions>
      </trkpt>
      <trkpt lat="45.36163109354674816131591796875" lon="-70.80889751203358173370361328125">
        <ele>534.79998779296875</ele>
        <time>2026-08-21T10:48:04.000Z</time>
        <extensions>
          <ns3:TrackPointExtension>
            <ns3:hr>126</ns3:hr>
            <ns3:cad>43</ns3:cad>
          </ns3:TrackPointExtension>
        </extensions>
      </trkpt>
      <trkpt lat="45.361622460186481475830078125" lon="-70.80890245735645294189453125">
        <ele>535</ele>
        <time>2026-08-21T10:48:05.000Z</time>
        <extensions>
          <ns3:TrackPointExtension>
            <ns3:hr>126</ns3:hr>
            <ns3:cad>43</ns3:cad>
          </ns3:TrackPointExtension>
        </extensions>
      </trkpt>
      <trkpt lat="45.36161868833005428314208984375" lon="-70.80890740267932415008544921875">
        <ele>535.20001220703125</ele>
        <time>2026-08-21T10:48:06.000Z</time>
        <extensions>
          <ns3:TrackPointExtension>
            <ns3:hr>127</ns3:hr>
            <ns3:cad>43</ns3:cad>
          </ns3:TrackPointExtension>
        </extensions>
      </trkpt>
      <trkpt lat="45.36161181516945362091064453125" lon="-70.80891829915344715118408203125">
        <ele>535.4000244140625</ele>
        <time>2026-08-21T10:48:07.000Z</time>
        <extensions>
          <ns3:TrackPointExtension>
            <ns3:hr>127</ns3:hr>
            <ns3:cad>43</ns3:cad>
          </ns3:TrackPointExtension>
        </extensions>
      </trkpt>
      <trkpt lat="45.36160795949399471282958984375" lon="-70.80892466939985752105712890625">
        <ele>535.79998779296875</ele>
        <time>2026-08-21T10:48:08.000Z</time>
        <extensions>
          <ns3:TrackPointExtension>
            <ns3:hr>128</ns3:hr>
            <ns3:cad>43</ns3:cad>
          </ns3:TrackPointExtension>
        </extensions>
      </trkpt>
      <trkpt lat="45.36160427145659923553466796875" lon="-70.8089250884950160980224609375">
        <ele>536</ele>
        <time>2026-08-21T10:48:09.000Z</time>
        <extensions>
          <ns3:TrackPointExtension>
            <ns3:hr>128</ns3:hr>
            <ns3:cad>79</ns3:cad>
          </ns3:TrackPointExtension>
        </extensions>
      </trkpt>
      <trkpt lat="45.36159689538180828094482421875" lon="-70.80892919562757015228271484375">
        <ele>536.4000244140625</ele>
        <time>2026-08-21T10:48:10.000Z</time>
        <extensions>
          <ns3:TrackPointExtension>
            <ns3:hr>129</ns3:hr>
            <ns3:cad>79</ns3:cad>
          </ns3:TrackPointExtension>
        </extensions>
      </trkpt>
      <trkpt lat="45.361588262021541595458984375" lon="-70.80893707461655139923095703125">
        <ele>536.79998779296875</ele>
        <time>2026-08-21T10:48:11.000Z</time>
        <extensions>
          <ns3:TrackPointExtension>
            <ns3:hr>130</ns3:hr>
            <ns3:cad>79</ns3:cad>
          </ns3:TrackPointExtension>
        </extensions>
      </trkpt>
      <trkpt lat="45.361585579812526702880859375" lon="-70.8089411817491054534912109375">
        <ele>537</ele>
        <time>2026-08-21T10:48:12.000Z</time>
        <extensions>
          <ns3:TrackPointExtension>
            <ns3:hr>130</ns3:hr>
            <ns3:cad>79</ns3:cad>
          </ns3:TrackPointExtension>
        </extensions>
      </trkpt>
      <trkpt lat="45.36157786846160888671875" lon="-70.80895065329968929290771484375">
        <ele>537.20001220703125</ele>
        <time>2026-08-21T10:48:13.000Z</time>
        <extensions>
          <ns3:TrackPointExtension>
            <ns3:hr>130</ns3:hr>
            <ns3:cad>79</ns3:cad>
          </ns3:TrackPointExtension>
        </extensions>
      </trkpt>
      <trkpt lat="45.3615716658532619476318359375" lon="-70.80895744264125823974609375">
        <ele>537.5999755859375</ele>
        <time>2026-08-21T10:48:14.000Z</time>
        <extensions>
          <ns3:TrackPointExtension>
            <ns3:hr>131</ns3:hr>
            <ns3:cad>79</ns3:cad>
          </ns3:TrackPointExtension>
        </extensions>
      </trkpt>
      <trkpt lat="45.36155976355075836181640625" lon="-70.80897043459117412567138671875">
        <ele>537.79998779296875</ele>
        <time>2026-08-21T10:48:15.000Z</time>
        <extensions>
          <ns3:TrackPointExtension>
            <ns3:hr>132</ns3:hr>
            <ns3:cad>79</ns3:cad>
          </ns3:TrackPointExtension>
        </extensions>
      </trkpt>
      <trkpt lat="45.36155037581920623779296875" lon="-70.8089854381978511810302734375">
        <ele>538</ele>
        <time>2026-08-21T10:48:16.000Z</time>
        <extensions>
          <ns3:TrackPointExtension>
            <ns3:hr>132</ns3:hr>
            <ns3:cad>57</ns3:cad>
          </ns3:TrackPointExtension>
        </extensions>
      </trkpt>
      <trkpt lat="45.3615445084869861602783203125" lon="-70.808996669948101043701171875">
        <ele>538.4000244140625</ele>
        <time>2026-08-21T10:48:17.000Z</time>
        <extensions>
          <ns3:TrackPointExtension>
            <ns3:hr>132</ns3:hr>
            <ns3:cad>57</ns3:cad>
          </ns3:TrackPointExtension>
        </extensions>
      </trkpt>
      <trkpt lat="45.3615389764308929443359375" lon="-70.8090062253177165985107421875">
        <ele>538.5999755859375</ele>
        <time>2026-08-21T10:48:18.000Z</time>
        <extensions>
          <ns3:TrackPointExtension>
            <ns3:hr>133</ns3:hr>
            <ns3:cad>57</ns3:cad>
          </ns3:TrackPointExtension>
        </extensions>
      </trkpt>
      <trkpt lat="45.36153428256511688232421875" lon="-70.80901779234409332275390625">
        <ele>539</ele>
        <time>2026-08-21T10:48:19.000Z</time>
        <extensions>
          <ns3:TrackPointExtension>
            <ns3:hr>133</ns3:hr>
            <ns3:cad>57</ns3:cad>
          </ns3:TrackPointExtension>
        </extensions>
      </trkpt>
      <trkpt lat="45.36152883432805538177490234375" lon="-70.80903363414108753204345703125">
        <ele>539.20001220703125</ele>
        <time>2026-08-21T10:48:20.000Z</time>
        <extensions>
          <ns3:TrackPointExtension>
            <ns3:hr>133</ns3:hr>
            <ns3:cad>57</ns3:cad>
          </ns3:TrackPointExtension>
        </extensions>
      </trkpt>
      <trkpt lat="45.3615237213671207427978515625" lon="-70.80904595553874969482421875">
        <ele>539.4000244140625</ele>
        <time>2026-08-21T10:48:21.000Z</time>
        <extensions>
          <ns3:TrackPointExtension>
            <ns3:hr>134</ns3:hr>
            <ns3:cad>46</ns3:cad>
          </ns3:TrackPointExtension>
        </extensions>
      </trkpt>
      <trkpt lat="45.36151684820652008056640625" lon="-70.809057019650936126708984375">
        <ele>539.79998779296875</ele>
        <time>2026-08-21T10:48:22.000Z</time>
        <extensions>
          <ns3:TrackPointExtension>
            <ns3:hr>134</ns3:hr>
            <ns3:cad>46</ns3:cad>
          </ns3:TrackPointExtension>
        </extensions>
      </trkpt>
      <trkpt lat="45.36150972358882427215576171875" lon="-70.809069089591503143310546875">
        <ele>540</ele>
        <time>2026-08-21T10:48:23.000Z</time>
        <extensions>
          <ns3:TrackPointExtension>
            <ns3:hr>135</ns3:hr>
            <ns3:cad>46</ns3:cad>
          </ns3:TrackPointExtension>
        </extensions>
      </trkpt>
      <trkpt lat="45.36150276660919189453125" lon="-70.8090776391327381134033203125">
        <ele>540.20001220703125</ele>
        <time>2026-08-21T10:48:24.000Z</time>
        <extensions>
          <ns3:TrackPointExtension>
            <ns3:hr>136</ns3:hr>
            <ns3:cad>46</ns3:cad>
          </ns3:TrackPointExtension>
        </extensions>
      </trkpt>
      <trkpt lat="45.36149664781987667083740234375" lon="-70.80908794887363910675048828125">
        <ele>540.4000244140625</ele>
        <time>2026-08-21T10:48:25.000Z</time>
        <extensions>
          <ns3:TrackPointExtension>
            <ns3:hr>137</ns3:hr>
            <ns3:cad>46</ns3:cad>
          </ns3:TrackPointExtension>
        </extensions>
      </trkpt>
      <trkpt lat="45.36148734390735626220703125" lon="-70.80909465439617633819580078125">
        <ele>540.5999755859375</ele>
        <time>2026-08-21T10:48:26.000Z</time>
        <extensions>
          <ns3:TrackPointExtension>
            <ns3:hr>137</ns3:hr>
            <ns3:cad>0</ns3:cad>
          </ns3:TrackPointExtension>
        </extensions>
      </trkpt>
      <trkpt lat="45.3614844940602779388427734375" lon="-70.80909297801554203033447265625">
        <ele>540.79998779296875</ele>
        <time>2026-08-21T10:48:27.000Z</time>
        <extensions>
          <ns3:TrackPointExtension>
            <ns3:hr>138</ns3:hr>
            <ns3:cad>0</ns3:cad>
          </ns3:TrackPointExtension>
        </extensions>
      </trkpt>
      <trkpt lat="45.3614771179854869842529296875" lon="-70.8090923912823200225830078125">
        <ele>541</ele>
        <time>2026-08-21T10:48:28.000Z</time>
        <extensions>
          <ns3:TrackPointExtension>
            <ns3:hr>138</ns3:hr>
            <ns3:cad>0</ns3:cad>
          </ns3:TrackPointExtension>
        </extensions>
      </trkpt>
      <trkpt lat="45.3614719212055206298828125" lon="-70.80909482203423976898193359375">
        <ele>541</ele>
        <time>2026-08-21T10:48:29.000Z</time>
        <extensions>
          <ns3:TrackPointExtension>
            <ns3:hr>137</ns3:hr>
            <ns3:cad>0</ns3:cad>
          </ns3:TrackPointExtension>
        </extensions>
      </trkpt>
      <trkpt lat="45.36147032864391803741455078125" lon="-70.80909281037747859954833984375">
        <ele>541</ele>
        <time>2026-08-21T10:48:30.000Z</time>
        <extensions>
          <ns3:TrackPointExtension>
            <ns3:hr>138</ns3:hr>
            <ns3:cad>0</ns3:cad>
          </ns3:TrackPointExtension>
        </extensions>
      </trkpt>
      <trkpt lat="45.36146848462522029876708984375" lon="-70.80908560194075107574462890625">
        <ele>540.79998779296875</ele>
        <time>2026-08-21T10:48:31.000Z</time>
        <extensions>
          <ns3:TrackPointExtension>
            <ns3:hr>138</ns3:hr>
            <ns3:cad>0</ns3:cad>
          </ns3:TrackPointExtension>
        </extensions>
      </trkpt>
      <trkpt lat="45.3614633716642856597900390625" lon="-70.80908560194075107574462890625">
        <ele>540.79998779296875</ele>
        <time>2026-08-21T10:48:32.000Z</time>
        <extensions>
          <ns3:TrackPointExtension>
            <ns3:hr>138</ns3:hr>
            <ns3:cad>0</ns3:cad>
          </ns3:TrackPointExtension>
        </extensions>
      </trkpt>
      <trkpt lat="45.36145691759884357452392578125" lon="-70.8090769685804843902587890625">
        <ele>540.5999755859375</ele>
        <time>2026-08-21T10:48:33.000Z</time>
        <extensions>
          <ns3:TrackPointExtension>
            <ns3:hr>139</ns3:hr>
            <ns3:cad>0</ns3:cad>
          </ns3:TrackPointExtension>
        </extensions>
      </trkpt>
      <trkpt lat="45.36145557649433612823486328125" lon="-70.80906967632472515106201171875">
        <ele>540.5999755859375</ele>
        <time>2026-08-21T10:48:34.000Z</time>
        <extensions>
          <ns3:TrackPointExtension>
            <ns3:hr>138</ns3:hr>
            <ns3:cad>0</ns3:cad>
          </ns3:TrackPointExtension>
        </extensions>
      </trkpt>
      <trkpt lat="45.3614476136863231658935546875" lon="-70.80906598828732967376708984375">
        <ele>540.4000244140625</ele>
        <time>2026-08-21T10:48:35.000Z</time>
        <extensions>
          <ns3:TrackPointExtension>
            <ns3:hr>138</ns3:hr>
            <ns3:cad>50</ns3:cad>
          </ns3:TrackPointExtension>
        </extensions>
      </trkpt>
      <trkpt lat="45.3614435903728008270263671875" lon="-70.80906799994409084320068359375">
        <ele>540.4000244140625</ele>
        <time>2026-08-21T10:48:36.000Z</time>
        <extensions>
          <ns3:TrackPointExtension>
            <ns3:hr>138</ns3:hr>
            <ns3:cad>50</ns3:cad>
          </ns3:TrackPointExtension>
        </extensions>
      </trkpt>
      <trkpt lat="45.3614316880702972412109375" lon="-70.80906531773507595062255859375">
        <ele>540.20001220703125</ele>
        <time>2026-08-21T10:48:37.000Z</time>
        <extensions>
          <ns3:TrackPointExtension>
            <ns3:hr>139</ns3:hr>
            <ns3:cad>50</ns3:cad>
          </ns3:TrackPointExtension>
        </extensions>
      </trkpt>
      <trkpt lat="45.3614254854619503021240234375" lon="-70.809059701859951019287109375">
        <ele>539.79998779296875</ele>
        <time>2026-08-21T10:48:38.000Z</time>
        <extensions>
          <ns3:TrackPointExtension>
            <ns3:hr>139</ns3:hr>
            <ns3:cad>0</ns3:cad>
          </ns3:TrackPointExtension>
        </extensions>
      </trkpt>
      <trkpt lat="45.36141886375844478607177734375" lon="-70.80905207432806491851806640625">
        <ele>539.5999755859375</ele>
        <time>2026-08-21T10:48:39.000Z</time>
        <extensions>
          <ns3:TrackPointExtension>
            <ns3:hr>139</ns3:hr>
            <ns3:cad>0</ns3:cad>
          </ns3:TrackPointExtension>
        </extensions>
      </trkpt>
      <trkpt lat="45.36140981130301952362060546875" lon="-70.80905425362288951873779296875">
        <ele>539.20001220703125</ele>
        <time>2026-08-21T10:48:40.000Z</time>
        <extensions>
          <ns3:TrackPointExtension>
            <ns3:hr>140</ns3:hr>
            <ns3:cad>0</ns3:cad>
          </ns3:TrackPointExtension>
        </extensions>
      </trkpt>
      <trkpt lat="45.36139908246695995330810546875" lon="-70.809056349098682403564453125">
        <ele>539</ele>
        <time>2026-08-21T10:48:41.000Z</time>
        <extensions>
          <ns3:TrackPointExtension>
            <ns3:hr>140</ns3:hr>
            <ns3:cad>0</ns3:cad>
          </ns3:TrackPointExtension>
        </extensions>
      </trkpt>
      <trkpt lat="45.36138500086963176727294921875" lon="-70.80905710346996784210205078125">
        <ele>538.79998779296875</ele>
        <time>2026-08-21T10:48:42.000Z</time>
        <extensions>
          <ns3:TrackPointExtension>
            <ns3:hr>141</ns3:hr>
            <ns3:cad>0</ns3:cad>
          </ns3:TrackPointExtension>
        </extensions>
      </trkpt>
      <trkpt lat="45.36138131283223628997802734375" lon="-70.809055007994174957275390625">
        <ele>538.79998779296875</ele>
        <time>2026-08-21T10:48:43.000Z</time>
        <extensions>
          <ns3:TrackPointExtension>
            <ns3:hr>142</ns3:hr>
            <ns3:cad>0</ns3:cad>
          </ns3:TrackPointExtension>
        </extensions>
      </trkpt>
      <trkpt lat="45.3613772056996822357177734375" lon="-70.80905861221253871917724609375">
        <ele>538.79998779296875</ele>
        <time>2026-08-21T10:48:44.000Z</time>
        <extensions>
          <ns3:TrackPointExtension>
            <ns3:hr>141</ns3:hr>
            <ns3:cad>0</ns3:cad>
          </ns3:TrackPointExtension>
        </extensions>
      </trkpt>
      <trkpt lat="45.361371003091335296630859375" lon="-70.80905936658382415771484375">
        <ele>539</ele>
        <time>2026-08-21T10:48:45.000Z</time>
        <extensions>
          <ns3:TrackPointExtension>
            <ns3:hr>140</ns3:hr>
            <ns3:cad>0</ns3:cad>
          </ns3:TrackPointExtension>
        </extensions>
      </trkpt>
      <trkpt lat="45.3613668121397495269775390625" lon="-70.80906179733574390411376953125">
        <ele>539.4000244140625</ele>
        <time>2026-08-21T10:48:46.000Z</time>
        <extensions>
          <ns3:TrackPointExtension>
            <ns3:hr>140</ns3:hr>
            <ns3:cad>0</ns3:cad>
          </ns3:TrackPointExtension>
        </extensions>
      </trkpt>
      <trkpt lat="45.3613644652068614959716796875" lon="-70.8090625517070293426513671875">
        <ele>539.79998779296875</ele>
        <time>2026-08-21T10:48:47.000Z</time>
        <extensions>
          <ns3:TrackPointExtension>
            <ns3:hr>140</ns3:hr>
            <ns3:cad>0</ns3:cad>
          </ns3:TrackPointExtension>
        </extensions>
      </trkpt>
      <trkpt lat="45.3613587655127048492431640625" lon="-70.809061042964458465576171875">
        <ele>540</ele>
        <time>2026-08-21T10:48:48.000Z</time>
        <extensions>
          <ns3:TrackPointExtension>
            <ns3:hr>139</ns3:hr>
            <ns3:cad>0</ns3:cad>
          </ns3:TrackPointExtension>
        </extensions>
      </trkpt>
      <trkpt lat="45.3613594360649585723876953125" lon="-70.80905810929834842681884765625">
        <ele>540.4000244140625</ele>
        <time>2026-08-21T10:48:49.000Z</time>
        <extensions>
          <ns3:TrackPointExtension>
            <ns3:hr>139</ns3:hr>
            <ns3:cad>0</ns3:cad>
          </ns3:TrackPointExtension>
        </extensions>
      </trkpt>
      <trkpt lat="45.36135650239884853363037109375" lon="-70.80905341543257236480712890625">
        <ele>540.79998779296875</ele>
        <time>2026-08-21T10:48:50.000Z</time>
        <extensions>
          <ns3:TrackPointExtension>
            <ns3:hr>138</ns3:hr>
            <ns3:cad>0</ns3:cad>
          </ns3:TrackPointExtension>
        </extensions>
      </trkpt>
      <trkpt lat="45.36135113798081874847412109375" lon="-70.80904553644359111785888671875">
        <ele>541</ele>
        <time>2026-08-21T10:48:51.000Z</time>
        <extensions>
          <ns3:TrackPointExtension>
            <ns3:hr>138</ns3:hr>
            <ns3:cad>0</ns3:cad>
          </ns3:TrackPointExtension>
        </extensions>
      </trkpt>
      <trkpt lat="45.3613363020122051239013671875" lon="-70.809029527008533477783203125">
        <ele>541.20001220703125</ele>
        <time>2026-08-21T10:48:52.000Z</time>
        <extensions>
          <ns3:TrackPointExtension>
            <ns3:hr>138</ns3:hr>
            <ns3:cad>0</ns3:cad>
          </ns3:TrackPointExtension>
        </extensions>
      </trkpt>
      <trkpt lat="45.361332781612873077392578125" lon="-70.8090286888182163238525390625">
        <ele>541.4000244140625</ele>
        <time>2026-08-21T10:48:53.000Z</time>
        <extensions>
          <ns3:TrackPointExtension>
            <ns3:hr>138</ns3:hr>
            <ns3:cad>0</ns3:cad>
          </ns3:TrackPointExtension>
        </extensions>
      </trkpt>
      <trkpt lat="45.3613235615193843841552734375" lon="-70.80902759917080402374267578125">
        <ele>541.5999755859375</ele>
        <time>2026-08-21T10:48:54.000Z</time>
        <extensions>
          <ns3:TrackPointExtension>
            <ns3:hr>138</ns3:hr>
            <ns3:cad>0</ns3:cad>
          </ns3:TrackPointExtension>
        </extensions>
      </trkpt>
      <trkpt lat="45.3613161854445934295654296875" lon="-70.809025503695011138916015625">
        <ele>541.79998779296875</ele>
        <time>2026-08-21T10:48:55.000Z</time>
        <extensions>
          <ns3:TrackPointExtension>
            <ns3:hr>137</ns3:hr>
            <ns3:cad>0</ns3:cad>
          </ns3:TrackPointExtension>
        </extensions>
      </trkpt>
      <trkpt lat="45.36131727509200572967529296875" lon="-70.8090305328369140625">
        <ele>542.20001220703125</ele>
        <time>2026-08-21T10:48:56.000Z</time>
        <extensions>
          <ns3:TrackPointExtension>
            <ns3:hr>138</ns3:hr>
            <ns3:cad>0</ns3:cad>
          </ns3:TrackPointExtension>
        </extensions>
      </trkpt>
      <trkpt lat="45.36131241358816623687744140625" lon="-70.80903229303658008575439453125">
        <ele>542.4000244140625</ele>
        <time>2026-08-21T10:48:57.000Z</time>
        <extensions>
          <ns3:TrackPointExtension>
            <ns3:hr>138</ns3:hr>
            <ns3:cad>41</ns3:cad>
          </ns3:TrackPointExtension>
        </extensions>
      </trkpt>
      <trkpt lat="45.36130688153207302093505859375" lon="-70.8090296946465969085693359375">
        <ele>542.5999755859375</ele>
        <time>2026-08-21T10:48:58.000Z</time>
        <extensions>
          <ns3:TrackPointExtension>
            <ns3:hr>137</ns3:hr>
            <ns3:cad>41</ns3:cad>
          </ns3:TrackPointExtension>
        </extensions>
      </trkpt>
      <trkpt lat="45.3612977452576160430908203125" lon="-70.809027850627899169921875">
        <ele>542.79998779296875</ele>
        <time>2026-08-21T10:48:59.000Z</time>
        <extensions>
          <ns3:TrackPointExtension>
            <ns3:hr>137</ns3:hr>
            <ns3:cad>44</ns3:cad>
          </ns3:TrackPointExtension>
        </extensions>
      </trkpt>
      <trkpt lat="45.3612917102873325347900390625" lon="-70.80902189947664737701416015625">
        <ele>543</ele>
        <time>2026-08-21T10:49:00.000Z</time>
        <extensions>
          <ns3:TrackPointExtension>
            <ns3:hr>138</ns3:hr>
            <ns3:cad>44</ns3:cad>
          </ns3:TrackPointExtension>
        </extensions>
      </trkpt>
      <trkpt lat="45.3612841665744781494140625" lon="-70.809017457067966461181640625">
        <ele>543.20001220703125</ele>
        <time>2026-08-21T10:49:01.000Z</time>
        <extensions>
          <ns3:TrackPointExtension>
            <ns3:hr>137</ns3:hr>
            <ns3:cad>44</ns3:cad>
          </ns3:TrackPointExtension>
        </extensions>
      </trkpt>
      <trkpt lat="45.36127544939517974853515625" lon="-70.8090142719447612762451171875">
        <ele>543.4000244140625</ele>
        <time>2026-08-21T10:49:02.000Z</time>
        <extensions>
          <ns3:TrackPointExtension>
            <ns3:hr>137</ns3:hr>
            <ns3:cad>44</ns3:cad>
          </ns3:TrackPointExtension>
        </extensions>
      </trkpt>
      <trkpt lat="45.3612705878913402557373046875" lon="-70.80901402048766613006591796875">
        <ele>543.5999755859375</ele>
        <time>2026-08-21T10:49:03.000Z</time>
        <extensions>
          <ns3:TrackPointExtension>
            <ns3:hr>136</ns3:hr>
            <ns3:cad>44</ns3:cad>
          </ns3:TrackPointExtension>
        </extensions>
      </trkpt>
      <trkpt lat="45.36125943996012210845947265625" lon="-70.80901284702122211456298828125">
        <ele>543.79998779296875</ele>
        <time>2026-08-21T10:49:04.000Z</time>
        <extensions>
          <ns3:TrackPointExtension>
            <ns3:hr>136</ns3:hr>
            <ns3:cad>44</ns3:cad>
          </ns3:TrackPointExtension>
        </extensions>
      </trkpt>
      <trkpt lat="45.36124720238149166107177734375" lon="-70.80901469103991985321044921875">
        <ele>544</ele>
        <time>2026-08-21T10:49:05.000Z</time>
        <extensions>
          <ns3:TrackPointExtension>
            <ns3:hr>136</ns3:hr>
            <ns3:cad>44</ns3:cad>
          </ns3:TrackPointExtension>
        </extensions>
      </trkpt>
      <trkpt lat="45.361242257058620452880859375" lon="-70.8090157806873321533203125">
        <ele>544.4000244140625</ele>
        <time>2026-08-21T10:49:06.000Z</time>
        <extensions>
          <ns3:TrackPointExtension>
            <ns3:hr>136</ns3:hr>
            <ns3:cad>0</ns3:cad>
          </ns3:TrackPointExtension>
        </extensions>
      </trkpt>
      <trkpt lat="45.3612350486218929290771484375" lon="-70.809011757373809814453125">
        <ele>544.5999755859375</ele>
        <time>2026-08-21T10:49:07.000Z</time>
        <extensions>
          <ns3:TrackPointExtension>
            <ns3:hr>135</ns3:hr>
            <ns3:cad>0</ns3:cad>
          </ns3:TrackPointExtension>
        </extensions>
      </trkpt>
      <trkpt lat="45.36123454570770263671875" lon="-70.80900840461254119873046875">
        <ele>545</ele>
        <time>2026-08-21T10:49:08.000Z</time>
        <extensions>
          <ns3:TrackPointExtension>
            <ns3:hr>135</ns3:hr>
            <ns3:cad>0</ns3:cad>
          </ns3:TrackPointExtension>
        </extensions>
      </trkpt>
      <trkpt lat="45.36122180521488189697265625" lon="-70.8090052194893360137939453125">
        <ele>545.20001220703125</ele>
        <time>2026-08-21T10:49:09.000Z</time>
        <extensions>
          <ns3:TrackPointExtension>
            <ns3:hr>135</ns3:hr>
            <ns3:cad>0</ns3:cad>
          </ns3:TrackPointExtension>
        </extensions>
      </trkpt>
      <trkpt lat="45.3612112440168857574462890625" lon="-70.80901050008833408355712890625">
        <ele>545.4000244140625</ele>
        <time>2026-08-21T10:49:10.000Z</time>
        <extensions>
          <ns3:TrackPointExtension>
            <ns3:hr>136</ns3:hr>
            <ns3:cad>0</ns3:cad>
          </ns3:TrackPointExtension>
        </extensions>
      </trkpt>
      <trkpt lat="45.361207388341426849365234375" lon="-70.80901511013507843017578125">
        <ele>545.79998779296875</ele>
        <time>2026-08-21T10:49:11.000Z</time>
        <extensions>
          <ns3:TrackPointExtension>
            <ns3:hr>135</ns3:hr>
            <ns3:cad>0</ns3:cad>
          </ns3:TrackPointExtension>
        </extensions>
      </trkpt>
      <trkpt lat="45.36120244301855564117431640625" lon="-70.809016786515712738037109375">
        <ele>546</ele>
        <time>2026-08-21T10:49:12.000Z</time>
        <extensions>
          <ns3:TrackPointExtension>
            <ns3:hr>135</ns3:hr>
            <ns3:cad>0</ns3:cad>
          </ns3:TrackPointExtension>
        </extensions>
      </trkpt>
      <trkpt lat="45.36119841970503330230712890625" lon="-70.80901972018182277679443359375">
        <ele>546.20001220703125</ele>
        <time>2026-08-21T10:49:13.000Z</time>
        <extensions>
          <ns3:TrackPointExtension>
            <ns3:hr>135</ns3:hr>
            <ns3:cad>0</ns3:cad>
          </ns3:TrackPointExtension>
        </extensions>
      </trkpt>
      <trkpt lat="45.3611907921731472015380859375" lon="-70.8090211451053619384765625">
        <ele>546.4000244140625</ele>
        <time>2026-08-21T10:49:14.000Z</time>
        <extensions>
          <ns3:TrackPointExtension>
            <ns3:hr>135</ns3:hr>
            <ns3:cad>0</ns3:cad>
          </ns3:TrackPointExtension>
        </extensions>
      </trkpt>
      <trkpt lat="45.361182577908039093017578125" lon="-70.8090216480195522308349609375">
        <ele>546.79998779296875</ele>
        <time>2026-08-21T10:49:15.000Z</time>
        <extensions>
          <ns3:TrackPointExtension>
            <ns3:hr>136</ns3:hr>
            <ns3:cad>0</ns3:cad>
          </ns3:TrackPointExtension>
        </extensions>
      </trkpt>
      <trkpt lat="45.36117930896580219268798828125" lon="-70.80902374349534511566162109375">
        <ele>547</ele>
        <time>2026-08-21T10:49:16.000Z</time>
        <extensions>
          <ns3:TrackPointExtension>
            <ns3:hr>136</ns3:hr>
            <ns3:cad>0</ns3:cad>
          </ns3:TrackPointExtension>
        </extensions>
      </trkpt>
      <trkpt lat="45.36117226816713809967041015625" lon="-70.80902340821921825408935546875">
        <ele>547.20001220703125</ele>
        <time>2026-08-21T10:49:17.000Z</time>
        <extensions>
          <ns3:TrackPointExtension>
            <ns3:hr>136</ns3:hr>
            <ns3:cad>0</ns3:cad>
          </ns3:TrackPointExtension>
        </extensions>
      </trkpt>
      <trkpt lat="45.36116472445428371429443359375" lon="-70.809020809829235076904296875">
        <ele>547.4000244140625</ele>
        <time>2026-08-21T10:49:18.000Z</time>
        <extensions>
          <ns3:TrackPointExtension>
            <ns3:hr>136</ns3:hr>
            <ns3:cad>0</ns3:cad>
          </ns3:TrackPointExtension>
        </extensions>
      </trkpt>
      <trkpt lat="45.3611542470753192901611328125" lon="-70.8090186305344104766845703125">
        <ele>547.5999755859375</ele>
        <time>2026-08-21T10:49:19.000Z</time>
        <extensions>
          <ns3:TrackPointExtension>
            <ns3:hr>137</ns3:hr>
            <ns3:cad>0</ns3:cad>
          </ns3:TrackPointExtension>
        </extensions>
      </trkpt>
      <trkpt lat="45.3611418418586254119873046875" lon="-70.80902173183858394622802734375">
        <ele>548</ele>
        <time>2026-08-21T10:49:20.000Z</time>
        <extensions>
          <ns3:TrackPointExtension>
            <ns3:hr>138</ns3:hr>
            <ns3:cad>0</ns3:cad>
          </ns3:TrackPointExtension>
        </extensions>
      </trkpt>
      <trkpt lat="45.3611366450786590576171875" lon="-70.80902575515210628509521484375">
        <ele>548.20001220703125</ele>
        <time>2026-08-21T10:49:21.000Z</time>
        <extensions>
          <ns3:TrackPointExtension>
            <ns3:hr>138</ns3:hr>
            <ns3:cad>0</ns3:cad>
          </ns3:TrackPointExtension>
        </extensions>
      </trkpt>
      <trkpt lat="45.36113086156547069549560546875" lon="-70.80903388559818267822265625">
        <ele>548.4000244140625</ele>
        <time>2026-08-21T10:49:22.000Z</time>
        <extensions>
          <ns3:TrackPointExtension>
            <ns3:hr>138</ns3:hr>
            <ns3:cad>0</ns3:cad>
          </ns3:TrackPointExtension>
        </extensions>
      </trkpt>
      <trkpt lat="45.3611280955374240875244140625" lon="-70.809043943881988525390625">
        <ele>548.4000244140625</ele>
        <time>2026-08-21T10:49:23.000Z</time>
        <extensions>
          <ns3:TrackPointExtension>
            <ns3:hr>138</ns3:hr>
            <ns3:cad>0</ns3:cad>
          </ns3:TrackPointExtension>
        </extensions>
      </trkpt>
      <trkpt lat="45.361124239861965179443359375" lon="-70.8090571872889995574951171875">
        <ele>548.5999755859375</ele>
        <time>2026-08-21T10:49:24.000Z</time>
        <extensions>
          <ns3:TrackPointExtension>
            <ns3:hr>138</ns3:hr>
            <ns3:cad>0</ns3:cad>
          </ns3:TrackPointExtension>
        </extensions>
      </trkpt>
      <trkpt lat="45.3611190430819988250732421875" lon="-70.809073783457279205322265625">
        <ele>548.5999755859375</ele>
        <time>2026-08-21T10:49:25.000Z</time>
        <extensions>
          <ns3:TrackPointExtension>
            <ns3:hr>138</ns3:hr>
            <ns3:cad>0</ns3:cad>
          </ns3:TrackPointExtension>
        </extensions>
      </trkpt>
      <trkpt lat="45.36111049354076385498046875" lon="-70.8090917207300662994384765625">
        <ele>548.79998779296875</ele>
        <time>2026-08-21T10:49:26.000Z</time>
        <extensions>
          <ns3:TrackPointExtension>
            <ns3:hr>139</ns3:hr>
            <ns3:cad>0</ns3:cad>
          </ns3:TrackPointExtension>
        </extensions>
      </trkpt>
      <trkpt lat="45.36109842360019683837890625" lon="-70.80910672433674335479736328125">
        <ele>548.5999755859375</ele>
        <time>2026-08-21T10:49:27.000Z</time>
        <extensions>
          <ns3:TrackPointExtension>
            <ns3:hr>138</ns3:hr>
            <ns3:cad>0</ns3:cad>
          </ns3:TrackPointExtension>
        </extensions>
      </trkpt>
      <trkpt lat="45.36109029315412044525146484375" lon="-70.80912600271403789520263671875">
        <ele>548.5999755859375</ele>
        <time>2026-08-21T10:49:28.000Z</time>
        <extensions>
          <ns3:TrackPointExtension>
            <ns3:hr>139</ns3:hr>
            <ns3:cad>0</ns3:cad>
          </ns3:TrackPointExtension>
        </extensions>
      </trkpt>
      <trkpt lat="45.361084006726741790771484375" lon="-70.80913639627397060394287109375">
        <ele>548.4000244140625</ele>
        <time>2026-08-21T10:49:29.000Z</time>
        <extensions>
          <ns3:TrackPointExtension>
            <ns3:hr>139</ns3:hr>
            <ns3:cad>0</ns3:cad>
          </ns3:TrackPointExtension>
        </extensions>
      </trkpt>
      <trkpt lat="45.36107822321355342864990234375" lon="-70.80914444290101528167724609375">
        <ele>548.4000244140625</ele>
        <time>2026-08-21T10:49:30.000Z</time>
        <extensions>
          <ns3:TrackPointExtension>
            <ns3:hr>139</ns3:hr>
            <ns3:cad>0</ns3:cad>
          </ns3:TrackPointExtension>
        </extensions>
      </trkpt>
      <trkpt lat="45.36107361316680908203125" lon="-70.80915735103189945220947265625">
        <ele>548.20001220703125</ele>
        <time>2026-08-21T10:49:31.000Z</time>
        <extensions>
          <ns3:TrackPointExtension>
            <ns3:hr>140</ns3:hr>
            <ns3:cad>0</ns3:cad>
          </ns3:TrackPointExtension>
        </extensions>
      </trkpt>
      <trkpt lat="45.36106766201555728912353515625" lon="-70.8091633021831512451171875">
        <ele>548.20001220703125</ele>
        <time>2026-08-21T10:49:32.000Z</time>
        <extensions>
          <ns3:TrackPointExtension>
            <ns3:hr>140</ns3:hr>
            <ns3:cad>0</ns3:cad>
          </ns3:TrackPointExtension>
        </extensions>
      </trkpt>
      <trkpt lat="45.36106430925428867340087890625" lon="-70.80917160026729106903076171875">
        <ele>548.20001220703125</ele>
        <time>2026-08-21T10:49:33.000Z</time>
        <extensions>
          <ns3:TrackPointExtension>
            <ns3:hr>140</ns3:hr>
            <ns3:cad>0</ns3:cad>
          </ns3:TrackPointExtension>
        </extensions>
      </trkpt>
      <trkpt lat="45.36106363870203495025634765625" lon="-70.8091795630753040313720703125">
        <ele>548.20001220703125</ele>
        <time>2026-08-21T10:49:34.000Z</time>
        <extensions>
          <ns3:TrackPointExtension>
            <ns3:hr>140</ns3:hr>
            <ns3:cad>0</ns3:cad>
          </ns3:TrackPointExtension>
        </extensions>
      </trkpt>
      <trkpt lat="45.3610588610172271728515625" lon="-70.80918635241687297821044921875">
        <ele>548.20001220703125</ele>
        <time>2026-08-21T10:49:35.000Z</time>
        <extensions>
          <ns3:TrackPointExtension>
            <ns3:hr>141</ns3:hr>
            <ns3:cad>0</ns3:cad>
          </ns3:TrackPointExtension>
        </extensions>
      </trkpt>
      <trkpt lat="45.36105441860854625701904296875" lon="-70.80919071100652217864990234375">
        <ele>548.20001220703125</ele>
        <time>2026-08-21T10:49:36.000Z</time>
        <extensions>
          <ns3:TrackPointExtension>
            <ns3:hr>141</ns3:hr>
            <ns3:cad>0</ns3:cad>
          </ns3:TrackPointExtension>
        </extensions>
      </trkpt>
      <trkpt lat="45.36104972474277019500732421875" lon="-70.80919641070067882537841796875">
        <ele>548.20001220703125</ele>
        <time>2026-08-21T10:49:37.000Z</time>
        <extensions>
          <ns3:TrackPointExtension>
            <ns3:hr>141</ns3:hr>
            <ns3:cad>0</ns3:cad>
          </ns3:TrackPointExtension>
        </extensions>
      </trkpt>
      <trkpt lat="45.3610419295728206634521484375" lon="-70.80919976346194744110107421875">
        <ele>548.20001220703125</ele>
        <time>2026-08-21T10:49:38.000Z</time>
        <extensions>
          <ns3:TrackPointExtension>
            <ns3:hr>140</ns3:hr>
            <ns3:cad>0</ns3:cad>
          </ns3:TrackPointExtension>
        </extensions>
      </trkpt>
      <trkpt lat="45.3610400855541229248046875" lon="-70.8092043735086917877197265625">
        <ele>548.20001220703125</ele>
        <time>2026-08-21T10:49:39.000Z</time>
        <extensions>
          <ns3:TrackPointExtension>
            <ns3:hr>140</ns3:hr>
            <ns3:cad>0</ns3:cad>
          </ns3:TrackPointExtension>
        </extensions>
      </trkpt>
      <trkpt lat="45.361035056412220001220703125" lon="-70.80920630134642124176025390625">
        <ele>548.4000244140625</ele>
        <time>2026-08-21T10:49:40.000Z</time>
        <extensions>
          <ns3:TrackPointExtension>
            <ns3:hr>140</ns3:hr>
            <ns3:cad>0</ns3:cad>
          </ns3:TrackPointExtension>
        </extensions>
      </trkpt>
      <trkpt lat="45.36103195510804653167724609375" lon="-70.80920646898448467254638671875">
        <ele>548.4000244140625</ele>
        <time>2026-08-21T10:49:41.000Z</time>
        <extensions>
          <ns3:TrackPointExtension>
            <ns3:hr>140</ns3:hr>
            <ns3:cad>0</ns3:cad>
          </ns3:TrackPointExtension>
        </extensions>
      </trkpt>
      <trkpt lat="45.36103011108934879302978515625" lon="-70.809210576117038726806640625">
        <ele>548.4000244140625</ele>
        <time>2026-08-21T10:49:42.000Z</time>
        <extensions>
          <ns3:TrackPointExtension>
            <ns3:hr>140</ns3:hr>
            <ns3:cad>0</ns3:cad>
          </ns3:TrackPointExtension>
        </extensions>
      </trkpt>
      <trkpt lat="45.36102374084293842315673828125" lon="-70.80921099521219730377197265625">
        <ele>548.20001220703125</ele>
        <time>2026-08-21T10:49:43.000Z</time>
        <extensions>
          <ns3:TrackPointExtension>
            <ns3:hr>140</ns3:hr>
            <ns3:cad>0</ns3:cad>
          </ns3:TrackPointExtension>
        </extensions>
      </trkpt>
      <trkpt lat="45.36101904697716236114501953125" lon="-70.809211917221546173095703125">
        <ele>548.20001220703125</ele>
        <time>2026-08-21T10:49:44.000Z</time>
        <extensions>
          <ns3:TrackPointExtension>
            <ns3:hr>140</ns3:hr>
            <ns3:cad>0</ns3:cad>
          </ns3:TrackPointExtension>
        </extensions>
      </trkpt>
      <trkpt lat="45.3610120899975299835205078125" lon="-70.8092115819454193115234375">
        <ele>548.20001220703125</ele>
        <time>2026-08-21T10:49:45.000Z</time>
        <extensions>
          <ns3:TrackPointExtension>
            <ns3:hr>139</ns3:hr>
            <ns3:cad>0</ns3:cad>
          </ns3:TrackPointExtension>
        </extensions>
      </trkpt>
      <trkpt lat="45.36100882105529308319091796875" lon="-70.80921359360218048095703125">
        <ele>548.20001220703125</ele>
        <time>2026-08-21T10:49:46.000Z</time>
        <extensions>
          <ns3:TrackPointExtension>
            <ns3:hr>139</ns3:hr>
            <ns3:cad>0</ns3:cad>
          </ns3:TrackPointExtension>
        </extensions>
      </trkpt>
      <trkpt lat="45.361003875732421875" lon="-70.80921401269733905792236328125">
        <ele>548.20001220703125</ele>
        <time>2026-08-21T10:49:47.000Z</time>
        <extensions>
          <ns3:TrackPointExtension>
            <ns3:hr>138</ns3:hr>
            <ns3:cad>0</ns3:cad>
          </ns3:TrackPointExtension>
        </extensions>
      </trkpt>
      <trkpt lat="45.36100345663726329803466796875" lon="-70.8092167787253856658935546875">
        <ele>548.20001220703125</ele>
        <time>2026-08-21T10:49:48.000Z</time>
        <extensions>
          <ns3:TrackPointExtension>
            <ns3:hr>137</ns3:hr>
            <ns3:cad>0</ns3:cad>
          </ns3:TrackPointExtension>
        </extensions>
      </trkpt>
      <trkpt lat="45.36100345663726329803466796875" lon="-70.8092167787253856658935546875">
        <ele>548.20001220703125</ele>
        <time>2026-08-21T10:49:49.000Z</time>
        <extensions>
          <ns3:TrackPointExtension>
            <ns3:hr>137</ns3:hr>
            <ns3:cad>0</ns3:cad>
          </ns3:TrackPointExtension>
        </extensions>
      </trkpt>
      <trkpt lat="45.36100345663726329803466796875" lon="-70.80921703018248081207275390625">
        <ele>548</ele>
        <time>2026-08-21T10:49:50.000Z</time>
        <extensions>
          <ns3:TrackPointExtension>
            <ns3:hr>136</ns3:hr>
            <ns3:cad>0</ns3:cad>
          </ns3:TrackPointExtension>
        </extensions>
      </trkpt>
      <trkpt lat="45.3609976731240749359130859375" lon="-70.80922373570501804351806640625">
        <ele>548</ele>
        <time>2026-08-21T10:49:51.000Z</time>
        <extensions>
          <ns3:TrackPointExtension>
            <ns3:hr>135</ns3:hr>
            <ns3:cad>0</ns3:cad>
          </ns3:TrackPointExtension>
        </extensions>
      </trkpt>
      <trkpt lat="45.36099188961088657379150390625" lon="-70.8092281781136989593505859375">
        <ele>548</ele>
        <time>2026-08-21T10:49:52.000Z</time>
        <extensions>
          <ns3:TrackPointExtension>
            <ns3:hr>134</ns3:hr>
            <ns3:cad>0</ns3:cad>
          </ns3:TrackPointExtension>
        </extensions>
      </trkpt>
      <trkpt lat="45.36099021323025226593017578125" lon="-70.8092332072556018829345703125">
        <ele>547.79998779296875</ele>
        <time>2026-08-21T10:49:53.000Z</time>
        <extensions>
          <ns3:TrackPointExtension>
            <ns3:hr>134</ns3:hr>
            <ns3:cad>0</ns3:cad>
          </ns3:TrackPointExtension>
        </extensions>
      </trkpt>
      <trkpt lat="45.3609872795641422271728515625" lon="-70.809237398207187652587890625">
        <ele>547.79998779296875</ele>
        <time>2026-08-21T10:49:54.000Z</time>
        <extensions>
          <ns3:TrackPointExtension>
            <ns3:hr>133</ns3:hr>
            <ns3:cad>0</ns3:cad>
          </ns3:TrackPointExtension>
        </extensions>
      </trkpt>
      <trkpt lat="45.36098434589803218841552734375" lon="-70.8092437684535980224609375">
        <ele>547.5999755859375</ele>
        <time>2026-08-21T10:49:55.000Z</time>
        <extensions>
          <ns3:TrackPointExtension>
            <ns3:hr>132</ns3:hr>
            <ns3:cad>0</ns3:cad>
          </ns3:TrackPointExtension>
        </extensions>
      </trkpt>
      <trkpt lat="45.3609802387654781341552734375" lon="-70.80924770794808864593505859375">
        <ele>547.5999755859375</ele>
        <time>2026-08-21T10:49:56.000Z</time>
        <extensions>
          <ns3:TrackPointExtension>
            <ns3:hr>132</ns3:hr>
            <ns3:cad>0</ns3:cad>
          </ns3:TrackPointExtension>
        </extensions>
      </trkpt>
      <trkpt lat="45.36097495816648006439208984375" lon="-70.809256844222545623779296875">
        <ele>547.4000244140625</ele>
        <time>2026-08-21T10:49:57.000Z</time>
        <extensions>
          <ns3:TrackPointExtension>
            <ns3:hr>131</ns3:hr>
            <ns3:cad>0</ns3:cad>
          </ns3:TrackPointExtension>
        </extensions>
      </trkpt>
      <trkpt lat="45.36097160540521144866943359375" lon="-70.80926815979182720184326171875">
        <ele>547.4000244140625</ele>
        <time>2026-08-21T10:49:58.000Z</time>
        <extensions>
          <ns3:TrackPointExtension>
            <ns3:hr>131</ns3:hr>
            <ns3:cad>0</ns3:cad>
          </ns3:TrackPointExtension>
        </extensions>
      </trkpt>
      <trkpt lat="45.36096808500587940216064453125" lon="-70.80927905626595020294189453125">
        <ele>547.20001220703125</ele>
        <time>2026-08-21T10:49:59.000Z</time>
        <extensions>
          <ns3:TrackPointExtension>
            <ns3:hr>131</ns3:hr>
            <ns3:cad>0</ns3:cad>
          </ns3:TrackPointExtension>
        </extensions>
      </trkpt>
      <trkpt lat="45.360965989530086517333984375" lon="-70.8092915453016757965087890625">
        <ele>547</ele>
        <time>2026-08-21T10:50:00.000Z</time>
        <extensions>
          <ns3:TrackPointExtension>
            <ns3:hr>131</ns3:hr>
            <ns3:cad>0</ns3:cad>
          </ns3:TrackPointExtension>
        </extensions>
      </trkpt>
      <trkpt lat="45.36096137948334217071533203125" lon="-70.8093046210706233978271484375">
        <ele>546.79998779296875</ele>
        <time>2026-08-21T10:50:01.000Z</time>
        <extensions>
          <ns3:TrackPointExtension>
            <ns3:hr>131</ns3:hr>
            <ns3:cad>0</ns3:cad>
          </ns3:TrackPointExtension>
        </extensions>
      </trkpt>
      <trkpt lat="45.3609547577798366546630859375" lon="-70.8093160204589366912841796875">
        <ele>546.5999755859375</ele>
        <time>2026-08-21T10:50:02.000Z</time>
        <extensions>
          <ns3:TrackPointExtension>
            <ns3:hr>131</ns3:hr>
            <ns3:cad>0</ns3:cad>
          </ns3:TrackPointExtension>
        </extensions>
      </trkpt>
      <trkpt lat="45.360947214066982269287109375" lon="-70.809328593313694000244140625">
        <ele>546.4000244140625</ele>
        <time>2026-08-21T10:50:03.000Z</time>
        <extensions>
          <ns3:TrackPointExtension>
            <ns3:hr>130</ns3:hr>
            <ns3:cad>53</ns3:cad>
          </ns3:TrackPointExtension>
        </extensions>
      </trkpt>
      <trkpt lat="45.36094076000154018402099609375" lon="-70.809339322149753570556640625">
        <ele>546.20001220703125</ele>
        <time>2026-08-21T10:50:04.000Z</time>
        <extensions>
          <ns3:TrackPointExtension>
            <ns3:hr>129</ns3:hr>
            <ns3:cad>53</ns3:cad>
          </ns3:TrackPointExtension>
        </extensions>
      </trkpt>
      <trkpt lat="45.36093019880354404449462890625" lon="-70.809346698224544525146484375">
        <ele>546</ele>
        <time>2026-08-21T10:50:05.000Z</time>
        <extensions>
          <ns3:TrackPointExtension>
            <ns3:hr>126</ns3:hr>
            <ns3:cad>53</ns3:cad>
          </ns3:TrackPointExtension>
        </extensions>
      </trkpt>
      <trkpt lat="45.36091829650104045867919921875" lon="-70.8093545772135257720947265625">
        <ele>546</ele>
        <time>2026-08-21T10:50:06.000Z</time>
        <extensions>
          <ns3:TrackPointExtension>
            <ns3:hr>123</ns3:hr>
            <ns3:cad>52</ns3:cad>
          </ns3:TrackPointExtension>
        </extensions>
      </trkpt>
      <trkpt lat="45.3609084896743297576904296875" lon="-70.80936052836477756500244140625">
        <ele>545.79998779296875</ele>
        <time>2026-08-21T10:50:07.000Z</time>
        <extensions>
          <ns3:TrackPointExtension>
            <ns3:hr>122</ns3:hr>
            <ns3:cad>52</ns3:cad>
          </ns3:TrackPointExtension>
        </extensions>
      </trkpt>
      <trkpt lat="45.360899269580841064453125" lon="-70.80936354584991931915283203125">
        <ele>545.5999755859375</ele>
        <time>2026-08-21T10:50:08.000Z</time>
        <extensions>
          <ns3:TrackPointExtension>
            <ns3:hr>121</ns3:hr>
            <ns3:cad>51</ns3:cad>
          </ns3:TrackPointExtension>
        </extensions>
      </trkpt>
      <trkpt lat="45.3608887083828449249267578125" lon="-70.80936555750668048858642578125">
        <ele>545.5999755859375</ele>
        <time>2026-08-21T10:50:09.000Z</time>
        <extensions>
          <ns3:TrackPointExtension>
            <ns3:hr>120</ns3:hr>
            <ns3:cad>51</ns3:cad>
          </ns3:TrackPointExtension>
        </extensions>
      </trkpt>
      <trkpt lat="45.36087848246097564697265625" lon="-70.809368155896663665771484375">
        <ele>545.4000244140625</ele>
        <time>2026-08-21T10:50:10.000Z</time>
        <extensions>
          <ns3:TrackPointExtension>
            <ns3:hr>120</ns3:hr>
            <ns3:cad>52</ns3:cad>
          </ns3:TrackPointExtension>
        </extensions>
      </trkpt>
      <trkpt lat="45.3608684241771697998046875" lon="-70.8093683235347270965576171875">
        <ele>545.4000244140625</ele>
        <time>2026-08-21T10:50:11.000Z</time>
        <extensions>
          <ns3:TrackPointExtension>
            <ns3:hr>119</ns3:hr>
            <ns3:cad>52</ns3:cad>
          </ns3:TrackPointExtension>
        </extensions>
      </trkpt>
      <trkpt lat="45.3608551807701587677001953125" lon="-70.809372179210186004638671875">
        <ele>545.4000244140625</ele>
        <time>2026-08-21T10:50:12.000Z</time>
        <extensions>
          <ns3:TrackPointExtension>
            <ns3:hr>119</ns3:hr>
            <ns3:cad>52</ns3:cad>
          </ns3:TrackPointExtension>
        </extensions>
      </trkpt>
      <trkpt lat="45.36084629595279693603515625" lon="-70.80937913618981838226318359375">
        <ele>545.4000244140625</ele>
        <time>2026-08-21T10:50:13.000Z</time>
        <extensions>
          <ns3:TrackPointExtension>
            <ns3:hr>119</ns3:hr>
            <ns3:cad>52</ns3:cad>
          </ns3:TrackPointExtension>
        </extensions>
      </trkpt>
      <trkpt lat="45.3608416020870208740234375" lon="-70.80938416533172130584716796875">
        <ele>545.4000244140625</ele>
        <time>2026-08-21T10:50:14.000Z</time>
        <extensions>
          <ns3:TrackPointExtension>
            <ns3:hr>118</ns3:hr>
            <ns3:cad>52</ns3:cad>
          </ns3:TrackPointExtension>
        </extensions>
      </trkpt>
      <trkpt lat="45.360835902392864227294921875" lon="-70.809387601912021636962890625">
        <ele>545.5999755859375</ele>
        <time>2026-08-21T10:50:15.000Z</time>
        <extensions>
          <ns3:TrackPointExtension>
            <ns3:hr>118</ns3:hr>
            <ns3:cad>52</ns3:cad>
          </ns3:TrackPointExtension>
        </extensions>
      </trkpt>
      <trkpt lat="45.36082710139453411102294921875" lon="-70.8093907870352268218994140625">
        <ele>545.5999755859375</ele>
        <time>2026-08-21T10:50:16.000Z</time>
        <extensions>
          <ns3:TrackPointExtension>
            <ns3:hr>118</ns3:hr>
            <ns3:cad>52</ns3:cad>
          </ns3:TrackPointExtension>
        </extensions>
      </trkpt>
      <trkpt lat="45.36081972531974315643310546875" lon="-70.809395313262939453125">
        <ele>545.79998779296875</ele>
        <time>2026-08-21T10:50:17.000Z</time>
        <extensions>
          <ns3:TrackPointExtension>
            <ns3:hr>117</ns3:hr>
            <ns3:cad>0</ns3:cad>
          </ns3:TrackPointExtension>
        </extensions>
      </trkpt>
      <trkpt lat="45.3608112595975399017333984375" lon="-70.80940327607095241546630859375">
        <ele>545.79998779296875</ele>
        <time>2026-08-21T10:50:18.000Z</time>
        <extensions>
          <ns3:TrackPointExtension>
            <ns3:hr>117</ns3:hr>
            <ns3:cad>0</ns3:cad>
          </ns3:TrackPointExtension>
        </extensions>
      </trkpt>
      <trkpt lat="45.3608055599033832550048828125" lon="-70.80941115505993366241455078125">
        <ele>545.79998779296875</ele>
        <time>2026-08-21T10:50:19.000Z</time>
        <extensions>
          <ns3:TrackPointExtension>
            <ns3:hr>118</ns3:hr>
            <ns3:cad>0</ns3:cad>
          </ns3:TrackPointExtension>
        </extensions>
      </trkpt>
      <trkpt lat="45.360805056989192962646484375" lon="-70.80942003987729549407958984375">
        <ele>545.79998779296875</ele>
        <time>2026-08-21T10:50:20.000Z</time>
        <extensions>
          <ns3:TrackPointExtension>
            <ns3:hr>118</ns3:hr>
            <ns3:cad>44</ns3:cad>
          </ns3:TrackPointExtension>
        </extensions>
      </trkpt>
      <trkpt lat="45.360801704227924346923828125" lon="-70.80943060107529163360595703125">
        <ele>545.79998779296875</ele>
        <time>2026-08-21T10:50:21.000Z</time>
        <extensions>
          <ns3:TrackPointExtension>
            <ns3:hr>117</ns3:hr>
            <ns3:cad>44</ns3:cad>
          </ns3:TrackPointExtension>
        </extensions>
      </trkpt>
      <trkpt lat="45.36079441197216510772705078125" lon="-70.8094395697116851806640625">
        <ele>545.79998779296875</ele>
        <time>2026-08-21T10:50:22.000Z</time>
        <extensions>
          <ns3:TrackPointExtension>
            <ns3:hr>116</ns3:hr>
            <ns3:cad>78</ns3:cad>
          </ns3:TrackPointExtension>
        </extensions>
      </trkpt>
      <trkpt lat="45.36078837700188159942626953125" lon="-70.8094484545290470123291015625">
        <ele>545.79998779296875</ele>
        <time>2026-08-21T10:50:23.000Z</time>
        <extensions>
          <ns3:TrackPointExtension>
            <ns3:hr>116</ns3:hr>
            <ns3:cad>78</ns3:cad>
          </ns3:TrackPointExtension>
        </extensions>
      </trkpt>
      <trkpt lat="45.360784269869327545166015625" lon="-70.80945658497512340545654296875">
        <ele>545.79998779296875</ele>
        <time>2026-08-21T10:50:24.000Z</time>
        <extensions>
          <ns3:TrackPointExtension>
            <ns3:hr>115</ns3:hr>
            <ns3:cad>43</ns3:cad>
          </ns3:TrackPointExtension>
        </extensions>
      </trkpt>
      <trkpt lat="45.36077815108001232147216796875" lon="-70.809466056525707244873046875">
        <ele>546</ele>
        <time>2026-08-21T10:50:25.000Z</time>
        <extensions>
          <ns3:TrackPointExtension>
            <ns3:hr>115</ns3:hr>
            <ns3:cad>43</ns3:cad>
          </ns3:TrackPointExtension>
        </extensions>
      </trkpt>
      <trkpt lat="45.3607740439474582672119140625" lon="-70.80948156304657459259033203125">
        <ele>546</ele>
        <time>2026-08-21T10:50:26.000Z</time>
        <extensions>
          <ns3:TrackPointExtension>
            <ns3:hr>114</ns3:hr>
            <ns3:cad>43</ns3:cad>
          </ns3:TrackPointExtension>
        </extensions>
      </trkpt>
      <trkpt lat="45.36076976917684078216552734375" lon="-70.8094943873584270477294921875">
        <ele>546</ele>
        <time>2026-08-21T10:50:27.000Z</time>
        <extensions>
          <ns3:TrackPointExtension>
            <ns3:hr>111</ns3:hr>
            <ns3:cad>44</ns3:cad>
          </ns3:TrackPointExtension>
        </extensions>
      </trkpt>
      <trkpt lat="45.36076490767300128936767578125" lon="-70.8095057867467403411865234375">
        <ele>546</ele>
        <time>2026-08-21T10:50:28.000Z</time>
        <extensions>
          <ns3:TrackPointExtension>
            <ns3:hr>110</ns3:hr>
            <ns3:cad>44</ns3:cad>
          </ns3:TrackPointExtension>
        </extensions>
      </trkpt>
      <trkpt lat="45.36075912415981292724609375" lon="-70.80952070653438568115234375">
        <ele>546</ele>
        <time>2026-08-21T10:50:29.000Z</time>
        <extensions>
          <ns3:TrackPointExtension>
            <ns3:hr>109</ns3:hr>
            <ns3:cad>44</ns3:cad>
          </ns3:TrackPointExtension>
        </extensions>
      </trkpt>
      <trkpt lat="45.36075484938919544219970703125" lon="-70.80953017808496952056884765625">
        <ele>546</ele>
        <time>2026-08-21T10:50:30.000Z</time>
        <extensions>
          <ns3:TrackPointExtension>
            <ns3:hr>108</ns3:hr>
            <ns3:cad>44</ns3:cad>
          </ns3:TrackPointExtension>
        </extensions>
      </trkpt>
      <trkpt lat="45.36074680276215076446533203125" lon="-70.80953068099915981292724609375">
        <ele>546</ele>
        <time>2026-08-21T10:50:31.000Z</time>
        <extensions>
          <ns3:TrackPointExtension>
            <ns3:hr>108</ns3:hr>
            <ns3:cad>46</ns3:cad>
          </ns3:TrackPointExtension>
        </extensions>
      </trkpt>
      <trkpt lat="45.3607369959354400634765625" lon="-70.8095383085310459136962890625">
        <ele>546</ele>
        <time>2026-08-21T10:50:32.000Z</time>
        <extensions>
          <ns3:TrackPointExtension>
            <ns3:hr>108</ns3:hr>
            <ns3:cad>46</ns3:cad>
          </ns3:TrackPointExtension>
        </extensions>
      </trkpt>
      <trkpt lat="45.36072853021323680877685546875" lon="-70.80955146811902523040771484375">
        <ele>546</ele>
        <time>2026-08-21T10:50:33.000Z</time>
        <extensions>
          <ns3:TrackPointExtension>
            <ns3:hr>108</ns3:hr>
            <ns3:cad>46</ns3:cad>
          </ns3:TrackPointExtension>
        </extensions>
      </trkpt>
      <trkpt lat="45.36072081886231899261474609375" lon="-70.80956437624990940093994140625">
        <ele>546</ele>
        <time>2026-08-21T10:50:34.000Z</time>
        <extensions>
          <ns3:TrackPointExtension>
            <ns3:hr>109</ns3:hr>
            <ns3:cad>45</ns3:cad>
          </ns3:TrackPointExtension>
        </extensions>
      </trkpt>
      <trkpt lat="45.3607106767594814300537109375" lon="-70.8095775358378887176513671875">
        <ele>546</ele>
        <time>2026-08-21T10:50:35.000Z</time>
        <extensions>
          <ns3:TrackPointExtension>
            <ns3:hr>109</ns3:hr>
            <ns3:cad>45</ns3:cad>
          </ns3:TrackPointExtension>
        </extensions>
      </trkpt>
      <trkpt lat="45.36069818772375583648681640625" lon="-70.80958633683621883392333984375">
        <ele>546</ele>
        <time>2026-08-21T10:50:36.000Z</time>
        <extensions>
          <ns3:TrackPointExtension>
            <ns3:hr>110</ns3:hr>
            <ns3:cad>45</ns3:cad>
          </ns3:TrackPointExtension>
        </extensions>
      </trkpt>
      <trkpt lat="45.360687039792537689208984375" lon="-70.80959555692970752716064453125">
        <ele>546.20001220703125</ele>
        <time>2026-08-21T10:50:37.000Z</time>
        <extensions>
          <ns3:TrackPointExtension>
            <ns3:hr>110</ns3:hr>
            <ns3:cad>51</ns3:cad>
          </ns3:TrackPointExtension>
        </extensions>
      </trkpt>
      <trkpt lat="45.36067463457584381103515625" lon="-70.809602849185466766357421875">
        <ele>546.20001220703125</ele>
        <time>2026-08-21T10:50:38.000Z</time>
        <extensions>
          <ns3:TrackPointExtension>
            <ns3:hr>110</ns3:hr>
            <ns3:cad>51</ns3:cad>
          </ns3:TrackPointExtension>
        </extensions>
      </trkpt>
      <trkpt lat="45.36066398955881595611572265625" lon="-70.80961265601217746734619140625">
        <ele>546.20001220703125</ele>
        <time>2026-08-21T10:50:39.000Z</time>
        <extensions>
          <ns3:TrackPointExtension>
            <ns3:hr>110</ns3:hr>
            <ns3:cad>0</ns3:cad>
          </ns3:TrackPointExtension>
        </extensions>
      </trkpt>
      <trkpt lat="45.3606533445417881011962890625" lon="-70.8096234686672687530517578125">
        <ele>546.20001220703125</ele>
        <time>2026-08-21T10:50:40.000Z</time>
        <extensions>
          <ns3:TrackPointExtension>
            <ns3:hr>110</ns3:hr>
            <ns3:cad>0</ns3:cad>
          </ns3:TrackPointExtension>
        </extensions>
      </trkpt>
      <trkpt lat="45.3606496565043926239013671875" lon="-70.80962975509464740753173828125">
        <ele>546.20001220703125</ele>
        <time>2026-08-21T10:50:41.000Z</time>
        <extensions>
          <ns3:TrackPointExtension>
            <ns3:hr>111</ns3:hr>
            <ns3:cad>0</ns3:cad>
          </ns3:TrackPointExtension>
        </extensions>
      </trkpt>
      <trkpt lat="45.36064772866666316986083984375" lon="-70.80963377840816974639892578125">
        <ele>546.20001220703125</ele>
        <time>2026-08-21T10:50:42.000Z</time>
        <extensions>
          <ns3:TrackPointExtension>
            <ns3:hr>111</ns3:hr>
            <ns3:cad>0</ns3:cad>
          </ns3:TrackPointExtension>
        </extensions>
      </trkpt>
      <trkpt lat="45.36064169369637966156005859375" lon="-70.8096353709697723388671875">
        <ele>546.20001220703125</ele>
        <time>2026-08-21T10:50:43.000Z</time>
        <extensions>
          <ns3:TrackPointExtension>
            <ns3:hr>112</ns3:hr>
            <ns3:cad>50</ns3:cad>
          </ns3:TrackPointExtension>
        </extensions>
      </trkpt>
      <trkpt lat="45.36063934676349163055419921875" lon="-70.80963344313204288482666015625">
        <ele>546.20001220703125</ele>
        <time>2026-08-21T10:50:44.000Z</time>
        <extensions>
          <ns3:TrackPointExtension>
            <ns3:hr>113</ns3:hr>
            <ns3:cad>50</ns3:cad>
          </ns3:TrackPointExtension>
        </extensions>
      </trkpt>
      <trkpt lat="45.3606385923922061920166015625" lon="-70.80963612534105777740478515625">
        <ele>546.20001220703125</ele>
        <time>2026-08-21T10:50:45.000Z</time>
        <extensions>
          <ns3:TrackPointExtension>
            <ns3:hr>113</ns3:hr>
            <ns3:cad>50</ns3:cad>
          </ns3:TrackPointExtension>
        </extensions>
      </trkpt>
      <trkpt lat="45.36063842475414276123046875" lon="-70.80963629297912120819091796875">
        <ele>546.20001220703125</ele>
        <time>2026-08-21T10:50:46.000Z</time>
        <extensions>
          <ns3:TrackPointExtension>
            <ns3:hr>115</ns3:hr>
            <ns3:cad>0</ns3:cad>
          </ns3:TrackPointExtension>
        </extensions>
      </trkpt>
      <trkpt lat="45.36063850857317447662353515625" lon="-70.80963646061718463897705078125">
        <ele>546.20001220703125</ele>
        <time>2026-08-21T10:50:47.000Z</time>
        <extensions>
          <ns3:TrackPointExtension>
            <ns3:hr>116</ns3:hr>
            <ns3:cad>0</ns3:cad>
          </ns3:TrackPointExtension>
        </extensions>
      </trkpt>
      <trkpt lat="45.36063850857317447662353515625" lon="-70.80963646061718463897705078125">
        <ele>546.20001220703125</ele>
        <time>2026-08-21T10:50:48.000Z</time>
        <extensions>
          <ns3:TrackPointExtension>
            <ns3:hr>116</ns3:hr>
            <ns3:cad>0</ns3:cad>
          </ns3:TrackPointExtension>
        </extensions>
      </trkpt>
      <trkpt lat="45.36063834093511104583740234375" lon="-70.80963662825524806976318359375">
        <ele>546</ele>
        <time>2026-08-21T10:50:49.000Z</time>
        <extensions>
          <ns3:TrackPointExtension>
            <ns3:hr>116</ns3:hr>
            <ns3:cad>0</ns3:cad>
          </ns3:TrackPointExtension>
        </extensions>
      </trkpt>
      <trkpt lat="45.36063884384930133819580078125" lon="-70.80964148975908756256103515625">
        <ele>546</ele>
        <time>2026-08-21T10:50:50.000Z</time>
        <extensions>
          <ns3:TrackPointExtension>
            <ns3:hr>115</ns3:hr>
            <ns3:cad>0</ns3:cad>
          </ns3:TrackPointExtension>
        </extensions>
      </trkpt>
      <trkpt lat="45.36063800565898418426513671875" lon="-70.8096432499587535858154296875">
        <ele>545.79998779296875</ele>
        <time>2026-08-21T10:50:51.000Z</time>
        <extensions>
          <ns3:TrackPointExtension>
            <ns3:hr>116</ns3:hr>
            <ns3:cad>0</ns3:cad>
          </ns3:TrackPointExtension>
        </extensions>
      </trkpt>
      <trkpt lat="45.36063850857317447662353515625" lon="-70.80963646061718463897705078125">
        <ele>545.79998779296875</ele>
        <time>2026-08-21T10:50:52.000Z</time>
        <extensions>
          <ns3:TrackPointExtension>
            <ns3:hr>116</ns3:hr>
            <ns3:cad>0</ns3:cad>
          </ns3:TrackPointExtension>
        </extensions>
      </trkpt>
      <trkpt lat="45.36063850857317447662353515625" lon="-70.80963646061718463897705078125">
        <ele>545.5999755859375</ele>
        <time>2026-08-21T10:50:53.000Z</time>
        <extensions>
          <ns3:TrackPointExtension>
            <ns3:hr>115</ns3:hr>
            <ns3:cad>0</ns3:cad>
          </ns3:TrackPointExtension>
        </extensions>
      </trkpt>
      <trkpt lat="45.36063850857317447662353515625" lon="-70.80963646061718463897705078125">
        <ele>545.5999755859375</ele>
        <time>2026-08-21T10:50:54.000Z</time>
        <extensions>
          <ns3:TrackPointExtension>
            <ns3:hr>115</ns3:hr>
            <ns3:cad>0</ns3:cad>
          </ns3:TrackPointExtension>
        </extensions>
      </trkpt>
      <trkpt lat="45.36063850857317447662353515625" lon="-70.80963646061718463897705078125">
        <ele>545.79998779296875</ele>
        <time>2026-08-21T10:50:55.000Z</time>
        <extensions>
          <ns3:TrackPointExtension>
            <ns3:hr>115</ns3:hr>
            <ns3:cad>0</ns3:cad>
          </ns3:TrackPointExtension>
        </extensions>
      </trkpt>
      <trkpt lat="45.36063850857317447662353515625" lon="-70.80963646061718463897705078125">
        <ele>545.79998779296875</ele>
        <time>2026-08-21T10:50:56.000Z</time>
        <extensions>
          <ns3:TrackPointExtension>
            <ns3:hr>115</ns3:hr>
            <ns3:cad>0</ns3:cad>
          </ns3:TrackPointExtension>
        </extensions>
      </trkpt>
      <trkpt lat="45.3606352396309375762939453125" lon="-70.80964551307260990142822265625">
        <ele>546</ele>
        <time>2026-08-21T10:50:57.000Z</time>
        <extensions>
          <ns3:TrackPointExtension>
            <ns3:hr>115</ns3:hr>
            <ns3:cad>0</ns3:cad>
          </ns3:TrackPointExtension>
        </extensions>
      </trkpt>
      <trkpt lat="45.3606295399367809295654296875" lon="-70.8096466027200222015380859375">
        <ele>546</ele>
        <time>2026-08-21T10:50:58.000Z</time>
        <extensions>
          <ns3:TrackPointExtension>
            <ns3:hr>114</ns3:hr>
            <ns3:cad>0</ns3:cad>
          </ns3:TrackPointExtension>
        </extensions>
      </trkpt>
      <trkpt lat="45.36062979139387607574462890625" lon="-70.80964970402419567108154296875">
        <ele>546</ele>
        <time>2026-08-21T10:50:59.000Z</time>
        <extensions>
          <ns3:TrackPointExtension>
            <ns3:hr>113</ns3:hr>
            <ns3:cad>0</ns3:cad>
          </ns3:TrackPointExtension>
        </extensions>
      </trkpt>
      <trkpt lat="45.360628701746463775634765625" lon="-70.80965213477611541748046875">
        <ele>546</ele>
        <time>2026-08-21T10:51:00.000Z</time>
        <extensions>
          <ns3:TrackPointExtension>
            <ns3:hr>112</ns3:hr>
            <ns3:cad>0</ns3:cad>
          </ns3:TrackPointExtension>
        </extensions>
      </trkpt>
      <trkpt lat="45.360628701746463775634765625" lon="-70.80965213477611541748046875">
        <ele>545.79998779296875</ele>
        <time>2026-08-21T10:51:01.000Z</time>
        <extensions>
          <ns3:TrackPointExtension>
            <ns3:hr>112</ns3:hr>
            <ns3:cad>0</ns3:cad>
          </ns3:TrackPointExtension>
        </extensions>
      </trkpt>
      <trkpt lat="45.360628701746463775634765625" lon="-70.80965213477611541748046875">
        <ele>545.79998779296875</ele>
        <time>2026-08-21T10:51:02.000Z</time>
        <extensions>
          <ns3:TrackPointExtension>
            <ns3:hr>112</ns3:hr>
            <ns3:cad>0</ns3:cad>
          </ns3:TrackPointExtension>
        </extensions>
      </trkpt>
      <trkpt lat="45.360628701746463775634765625" lon="-70.80965213477611541748046875">
        <ele>545.79998779296875</ele>
        <time>2026-08-21T10:51:03.000Z</time>
        <extensions>
          <ns3:TrackPointExtension>
            <ns3:hr>112</ns3:hr>
            <ns3:cad>0</ns3:cad>
          </ns3:TrackPointExtension>
        </extensions>
      </trkpt>
      <trkpt lat="45.360628701746463775634765625" lon="-70.80965213477611541748046875">
        <ele>545.79998779296875</ele>
        <time>2026-08-21T10:51:04.000Z</time>
        <extensions>
          <ns3:TrackPointExtension>
            <ns3:hr>111</ns3:hr>
            <ns3:cad>0</ns3:cad>
          </ns3:TrackPointExtension>
        </extensions>
      </trkpt>
      <trkpt lat="45.360628701746463775634765625" lon="-70.80965213477611541748046875">
        <ele>546</ele>
        <time>2026-08-21T10:51:05.000Z</time>
        <extensions>
          <ns3:TrackPointExtension>
            <ns3:hr>112</ns3:hr>
            <ns3:cad>0</ns3:cad>
          </ns3:TrackPointExtension>
        </extensions>
      </trkpt>
      <trkpt lat="45.360628701746463775634765625" lon="-70.80965213477611541748046875">
        <ele>546</ele>
        <time>2026-08-21T10:51:06.000Z</time>
        <extensions>
          <ns3:TrackPointExtension>
            <ns3:hr>112</ns3:hr>
            <ns3:cad>0</ns3:cad>
          </ns3:TrackPointExtension>
        </extensions>
      </trkpt>
      <trkpt lat="45.360628701746463775634765625" lon="-70.80965213477611541748046875">
        <ele>546</ele>
        <time>2026-08-21T10:51:07.000Z</time>
        <extensions>
          <ns3:TrackPointExtension>
            <ns3:hr>112</ns3:hr>
            <ns3:cad>0</ns3:cad>
          </ns3:TrackPointExtension>
        </extensions>
      </trkpt>
      <trkpt lat="45.360628701746463775634765625" lon="-70.80965213477611541748046875">
        <ele>545.79998779296875</ele>
        <time>2026-08-21T10:51:08.000Z</time>
        <extensions>
          <ns3:TrackPointExtension>
            <ns3:hr>112</ns3:hr>
            <ns3:cad>0</ns3:cad>
          </ns3:TrackPointExtension>
        </extensions>
      </trkpt>
      <trkpt lat="45.360628701746463775634765625" lon="-70.80965213477611541748046875">
        <ele>545.79998779296875</ele>
        <time>2026-08-21T10:51:09.000Z</time>
        <extensions>
          <ns3:TrackPointExtension>
            <ns3:hr>111</ns3:hr>
            <ns3:cad>0</ns3:cad>
          </ns3:TrackPointExtension>
        </extensions>
      </trkpt>
      <trkpt lat="45.360628701746463775634765625" lon="-70.80965213477611541748046875">
        <ele>545.79998779296875</ele>
        <time>2026-08-21T10:51:10.000Z</time>
        <extensions>
          <ns3:TrackPointExtension>
            <ns3:hr>112</ns3:hr>
            <ns3:cad>0</ns3:cad>
          </ns3:TrackPointExtension>
        </extensions>
      </trkpt>
      <trkpt lat="45.360628701746463775634765625" lon="-70.80965213477611541748046875">
        <ele>545.79998779296875</ele>
        <time>2026-08-21T10:51:11.000Z</time>
        <extensions>
          <ns3:TrackPointExtension>
            <ns3:hr>112</ns3:hr>
            <ns3:cad>0</ns3:cad>
          </ns3:TrackPointExtension>
        </extensions>
      </trkpt>
      <trkpt lat="45.360628701746463775634765625" lon="-70.80965213477611541748046875">
        <ele>545.79998779296875</ele>
        <time>2026-08-21T10:51:12.000Z</time>
        <extensions>
          <ns3:TrackPointExtension>
            <ns3:hr>112</ns3:hr>
            <ns3:cad>0</ns3:cad>
          </ns3:TrackPointExtension>
        </extensions>
      </trkpt>
      <trkpt lat="45.360628701746463775634765625" lon="-70.80965213477611541748046875">
        <ele>545.79998779296875</ele>
        <time>2026-08-21T10:51:13.000Z</time>
        <extensions>
          <ns3:TrackPointExtension>
            <ns3:hr>111</ns3:hr>
            <ns3:cad>0</ns3:cad>
          </ns3:TrackPointExtension>
        </extensions>
      </trkpt>
      <trkpt lat="45.360628701746463775634765625" lon="-70.80965213477611541748046875">
        <ele>545.79998779296875</ele>
        <time>2026-08-21T10:51:14.000Z</time>
        <extensions>
          <ns3:TrackPointExtension>
            <ns3:hr>112</ns3:hr>
            <ns3:cad>0</ns3:cad>
          </ns3:TrackPointExtension>
        </extensions>
      </trkpt>
      <trkpt lat="45.360628701746463775634765625" lon="-70.80965213477611541748046875">
        <ele>545.79998779296875</ele>
        <time>2026-08-21T10:51:15.000Z</time>
        <extensions>
          <ns3:TrackPointExtension>
            <ns3:hr>112</ns3:hr>
            <ns3:cad>0</ns3:cad>
          </ns3:TrackPointExtension>
        </extensions>
      </trkpt>
      <trkpt lat="45.360628701746463775634765625" lon="-70.80965213477611541748046875">
        <ele>545.79998779296875</ele>
        <time>2026-08-21T10:51:16.000Z</time>
        <extensions>
          <ns3:TrackPointExtension>
            <ns3:hr>112</ns3:hr>
            <ns3:cad>0</ns3:cad>
          </ns3:TrackPointExtension>
        </extensions>
      </trkpt>
      <trkpt lat="45.360628701746463775634765625" lon="-70.80965213477611541748046875">
        <ele>545.79998779296875</ele>
        <time>2026-08-21T10:51:17.000Z</time>
        <extensions>
          <ns3:TrackPointExtension>
            <ns3:hr>111</ns3:hr>
            <ns3:cad>0</ns3:cad>
          </ns3:TrackPointExtension>
        </extensions>
      </trkpt>
      <trkpt lat="45.360628701746463775634765625" lon="-70.80965213477611541748046875">
        <ele>545.79998779296875</ele>
        <time>2026-08-21T10:51:18.000Z</time>
        <extensions>
          <ns3:TrackPointExtension>
            <ns3:hr>112</ns3:hr>
            <ns3:cad>0</ns3:cad>
          </ns3:TrackPointExtension>
        </extensions>
      </trkpt>
      <trkpt lat="45.360628701746463775634765625" lon="-70.80965213477611541748046875">
        <ele>545.79998779296875</ele>
        <time>2026-08-21T10:51:19.000Z</time>
        <extensions>
          <ns3:TrackPointExtension>
            <ns3:hr>113</ns3:hr>
            <ns3:cad>0</ns3:cad>
          </ns3:TrackPointExtension>
        </extensions>
      </trkpt>
      <trkpt lat="45.360628701746463775634765625" lon="-70.80965213477611541748046875">
        <ele>545.79998779296875</ele>
        <time>2026-08-21T10:51:20.000Z</time>
        <extensions>
          <ns3:TrackPointExtension>
            <ns3:hr>113</ns3:hr>
            <ns3:cad>0</ns3:cad>
          </ns3:TrackPointExtension>
        </extensions>
      </trkpt>
      <trkpt lat="45.360628701746463775634765625" lon="-70.80965213477611541748046875">
        <ele>545.79998779296875</ele>
        <time>2026-08-21T10:51:21.000Z</time>
        <extensions>
          <ns3:TrackPointExtension>
            <ns3:hr>114</ns3:hr>
            <ns3:cad>0</ns3:cad>
          </ns3:TrackPointExtension>
        </extensions>
      </trkpt>
      <trkpt lat="45.360628701746463775634765625" lon="-70.80965213477611541748046875">
        <ele>545.79998779296875</ele>
        <time>2026-08-21T10:51:22.000Z</time>
        <extensions>
          <ns3:TrackPointExtension>
            <ns3:hr>114</ns3:hr>
            <ns3:cad>0</ns3:cad>
          </ns3:TrackPointExtension>
        </extensions>
      </trkpt>
      <trkpt lat="45.360628701746463775634765625" lon="-70.80965213477611541748046875">
        <ele>545.79998779296875</ele>
        <time>2026-08-21T10:51:23.000Z</time>
        <extensions>
          <ns3:TrackPointExtension>
            <ns3:hr>114</ns3:hr>
            <ns3:cad>0</ns3:cad>
          </ns3:TrackPointExtension>
        </extensions>
      </trkpt>
      <trkpt lat="45.360628701746463775634765625" lon="-70.80965213477611541748046875">
        <ele>545.5999755859375</ele>
        <time>2026-08-21T10:51:24.000Z</time>
        <extensions>
          <ns3:TrackPointExtension>
            <ns3:hr>114</ns3:hr>
            <ns3:cad>0</ns3:cad>
          </ns3:TrackPointExtension>
        </extensions>
      </trkpt>
      <trkpt lat="45.360628701746463775634765625" lon="-70.80965213477611541748046875">
        <ele>545.5999755859375</ele>
        <time>2026-08-21T10:51:25.000Z</time>
        <extensions>
          <ns3:TrackPointExtension>
            <ns3:hr>114</ns3:hr>
            <ns3:cad>0</ns3:cad>
          </ns3:TrackPointExtension>
        </extensions>
      </trkpt>
      <trkpt lat="45.360628701746463775634765625" lon="-70.80965213477611541748046875">
        <ele>545.5999755859375</ele>
        <time>2026-08-21T10:51:26.000Z</time>
        <extensions>
          <ns3:TrackPointExtension>
            <ns3:hr>115</ns3:hr>
            <ns3:cad>0</ns3:cad>
          </ns3:TrackPointExtension>
        </extensions>
      </trkpt>
      <trkpt lat="45.360628701746463775634765625" lon="-70.80965213477611541748046875">
        <ele>545.5999755859375</ele>
        <time>2026-08-21T10:51:27.000Z</time>
        <extensions>
          <ns3:TrackPointExtension>
            <ns3:hr>115</ns3:hr>
            <ns3:cad>0</ns3:cad>
          </ns3:TrackPointExtension>
        </extensions>
      </trkpt>
      <trkpt lat="45.360628701746463775634765625" lon="-70.80965213477611541748046875">
        <ele>545.79998779296875</ele>
        <time>2026-08-21T10:51:28.000Z</time>
        <extensions>
          <ns3:TrackPointExtension>
            <ns3:hr>116</ns3:hr>
            <ns3:cad>0</ns3:cad>
          </ns3:TrackPointExtension>
        </extensions>
      </trkpt>
      <trkpt lat="45.360628701746463775634765625" lon="-70.80965213477611541748046875">
        <ele>545.79998779296875</ele>
        <time>2026-08-21T10:51:29.000Z</time>
        <extensions>
          <ns3:TrackPointExtension>
            <ns3:hr>116</ns3:hr>
            <ns3:cad>0</ns3:cad>
          </ns3:TrackPointExtension>
        </extensions>
      </trkpt>
      <trkpt lat="45.36063012667000293731689453125" lon="-70.80965791828930377960205078125">
        <ele>546</ele>
        <time>2026-08-21T10:51:30.000Z</time>
        <extensions>
          <ns3:TrackPointExtension>
            <ns3:hr>116</ns3:hr>
            <ns3:cad>0</ns3:cad>
          </ns3:TrackPointExtension>
        </extensions>
      </trkpt>
      <trkpt lat="45.36062895320355892181396484375" lon="-70.80966420471668243408203125">
        <ele>546.20001220703125</ele>
        <time>2026-08-21T10:51:31.000Z</time>
        <extensions>
          <ns3:TrackPointExtension>
            <ns3:hr>116</ns3:hr>
            <ns3:cad>0</ns3:cad>
          </ns3:TrackPointExtension>
        </extensions>
      </trkpt>
      <trkpt lat="45.360630713403224945068359375" lon="-70.80966713838279247283935546875">
        <ele>546.20001220703125</ele>
        <time>2026-08-21T10:51:32.000Z</time>
        <extensions>
          <ns3:TrackPointExtension>
            <ns3:hr>116</ns3:hr>
            <ns3:cad>0</ns3:cad>
          </ns3:TrackPointExtension>
        </extensions>
      </trkpt>
      <trkpt lat="45.36063398234546184539794921875" lon="-70.80966546200215816497802734375">
        <ele>546.20001220703125</ele>
        <time>2026-08-21T10:51:33.000Z</time>
        <extensions>
          <ns3:TrackPointExtension>
            <ns3:hr>116</ns3:hr>
            <ns3:cad>0</ns3:cad>
          </ns3:TrackPointExtension>
        </extensions>
      </trkpt>
      <trkpt lat="45.36063582636415958404541015625" lon="-70.80966663546860218048095703125">
        <ele>546.20001220703125</ele>
        <time>2026-08-21T10:51:34.000Z</time>
        <extensions>
          <ns3:TrackPointExtension>
            <ns3:hr>115</ns3:hr>
            <ns3:cad>0</ns3:cad>
          </ns3:TrackPointExtension>
        </extensions>
      </trkpt>
      <trkpt lat="45.36063515581190586090087890625" lon="-70.80967401154339313507080078125">
        <ele>546</ele>
        <time>2026-08-21T10:51:35.000Z</time>
        <extensions>
          <ns3:TrackPointExtension>
            <ns3:hr>116</ns3:hr>
            <ns3:cad>0</ns3:cad>
          </ns3:TrackPointExtension>
        </extensions>
      </trkpt>
      <trkpt lat="45.36063532344996929168701171875" lon="-70.8096791245043277740478515625">
        <ele>546</ele>
        <time>2026-08-21T10:51:36.000Z</time>
        <extensions>
          <ns3:TrackPointExtension>
            <ns3:hr>116</ns3:hr>
            <ns3:cad>0</ns3:cad>
          </ns3:TrackPointExtension>
        </extensions>
      </trkpt>
      <trkpt lat="45.36063373088836669921875" lon="-70.80967987887561321258544921875">
        <ele>545.79998779296875</ele>
        <time>2026-08-21T10:51:37.000Z</time>
        <extensions>
          <ns3:TrackPointExtension>
            <ns3:hr>117</ns3:hr>
            <ns3:cad>0</ns3:cad>
          </ns3:TrackPointExtension>
        </extensions>
      </trkpt>
      <trkpt lat="45.36063373088836669921875" lon="-70.809679962694644927978515625">
        <ele>545.79998779296875</ele>
        <time>2026-08-21T10:51:38.000Z</time>
        <extensions>
          <ns3:TrackPointExtension>
            <ns3:hr>118</ns3:hr>
            <ns3:cad>0</ns3:cad>
          </ns3:TrackPointExtension>
        </extensions>
      </trkpt>
      <trkpt lat="45.36063373088836669921875" lon="-70.809679962694644927978515625">
        <ele>545.79998779296875</ele>
        <time>2026-08-21T10:51:39.000Z</time>
        <extensions>
          <ns3:TrackPointExtension>
            <ns3:hr>120</ns3:hr>
            <ns3:cad>0</ns3:cad>
          </ns3:TrackPointExtension>
        </extensions>
      </trkpt>
      <trkpt lat="45.360633395612239837646484375" lon="-70.8096797950565814971923828125">
        <ele>546</ele>
        <time>2026-08-21T10:51:40.000Z</time>
        <extensions>
          <ns3:TrackPointExtension>
            <ns3:hr>122</ns3:hr>
            <ns3:cad>0</ns3:cad>
          </ns3:TrackPointExtension>
        </extensions>
      </trkpt>
      <trkpt lat="45.36063046194612979888916015625" lon="-70.8096861653029918670654296875">
        <ele>546</ele>
        <time>2026-08-21T10:51:41.000Z</time>
        <extensions>
          <ns3:TrackPointExtension>
            <ns3:hr>123</ns3:hr>
            <ns3:cad>0</ns3:cad>
          </ns3:TrackPointExtension>
        </extensions>
      </trkpt>
      <trkpt lat="45.36062593571841716766357421875" lon="-70.80968876369297504425048828125">
        <ele>546.20001220703125</ele>
        <time>2026-08-21T10:51:42.000Z</time>
        <extensions>
          <ns3:TrackPointExtension>
            <ns3:hr>123</ns3:hr>
            <ns3:cad>0</ns3:cad>
          </ns3:TrackPointExtension>
        </extensions>
      </trkpt>
      <trkpt lat="45.360619984567165374755859375" lon="-70.80968960188329219818115234375">
        <ele>546.4000244140625</ele>
        <time>2026-08-21T10:51:43.000Z</time>
        <extensions>
          <ns3:TrackPointExtension>
            <ns3:hr>123</ns3:hr>
            <ns3:cad>0</ns3:cad>
          </ns3:TrackPointExtension>
        </extensions>
      </trkpt>
      <trkpt lat="45.360611937940120697021484375" lon="-70.809690691530704498291015625">
        <ele>546.4000244140625</ele>
        <time>2026-08-21T10:51:44.000Z</time>
        <extensions>
          <ns3:TrackPointExtension>
            <ns3:hr>123</ns3:hr>
            <ns3:cad>0</ns3:cad>
          </ns3:TrackPointExtension>
        </extensions>
      </trkpt>
      <trkpt lat="45.36059710197150707244873046875" lon="-70.80970251001417636871337890625">
        <ele>546.4000244140625</ele>
        <time>2026-08-21T10:51:45.000Z</time>
        <extensions>
          <ns3:TrackPointExtension>
            <ns3:hr>124</ns3:hr>
            <ns3:cad>0</ns3:cad>
          </ns3:TrackPointExtension>
        </extensions>
      </trkpt>
      <trkpt lat="45.36058821715414524078369140625" lon="-70.809708796441555023193359375">
        <ele>546.4000244140625</ele>
        <time>2026-08-21T10:51:46.000Z</time>
        <extensions>
          <ns3:TrackPointExtension>
            <ns3:hr>125</ns3:hr>
            <ns3:cad>0</ns3:cad>
          </ns3:TrackPointExtension>
        </extensions>
      </trkpt>
      <trkpt lat="45.3605785779654979705810546875" lon="-70.809719860553741455078125">
        <ele>546.5999755859375</ele>
        <time>2026-08-21T10:51:47.000Z</time>
        <extensions>
          <ns3:TrackPointExtension>
            <ns3:hr>125</ns3:hr>
            <ns3:cad>0</ns3:cad>
          </ns3:TrackPointExtension>
        </extensions>
      </trkpt>
      <trkpt lat="45.36056541837751865386962890625" lon="-70.80972933210432529449462890625">
        <ele>546.5999755859375</ele>
        <time>2026-08-21T10:51:48.000Z</time>
        <extensions>
          <ns3:TrackPointExtension>
            <ns3:hr>125</ns3:hr>
            <ns3:cad>44</ns3:cad>
          </ns3:TrackPointExtension>
        </extensions>
      </trkpt>
      <trkpt lat="45.3605564497411251068115234375" lon="-70.80973687581717967987060546875">
        <ele>546.5999755859375</ele>
        <time>2026-08-21T10:51:49.000Z</time>
        <extensions>
          <ns3:TrackPointExtension>
            <ns3:hr>122</ns3:hr>
            <ns3:cad>44</ns3:cad>
          </ns3:TrackPointExtension>
        </extensions>
      </trkpt>
      <trkpt lat="45.3605457209050655364990234375" lon="-70.80974408425390720367431640625">
        <ele>546.5999755859375</ele>
        <time>2026-08-21T10:51:50.000Z</time>
        <extensions>
          <ns3:TrackPointExtension>
            <ns3:hr>120</ns3:hr>
            <ns3:cad>50</ns3:cad>
          </ns3:TrackPointExtension>
        </extensions>
      </trkpt>
      <trkpt lat="45.360534153878688812255859375" lon="-70.8097485266625881195068359375">
        <ele>546.5999755859375</ele>
        <time>2026-08-21T10:51:51.000Z</time>
        <extensions>
          <ns3:TrackPointExtension>
            <ns3:hr>120</ns3:hr>
            <ns3:cad>51</ns3:cad>
          </ns3:TrackPointExtension>
        </extensions>
      </trkpt>
      <trkpt lat="45.36051906645298004150390625" lon="-70.8097572438418865203857421875">
        <ele>546.5999755859375</ele>
        <time>2026-08-21T10:51:52.000Z</time>
        <extensions>
          <ns3:TrackPointExtension>
            <ns3:hr>120</ns3:hr>
            <ns3:cad>50</ns3:cad>
          </ns3:TrackPointExtension>
        </extensions>
      </trkpt>
      <trkpt lat="45.360508002340793609619140625" lon="-70.80976855941116809844970703125">
        <ele>546.79998779296875</ele>
        <time>2026-08-21T10:51:53.000Z</time>
        <extensions>
          <ns3:TrackPointExtension>
            <ns3:hr>121</ns3:hr>
            <ns3:cad>50</ns3:cad>
          </ns3:TrackPointExtension>
        </extensions>
      </trkpt>
      <trkpt lat="45.36049886606633663177490234375" lon="-70.80977953970432281494140625">
        <ele>546.79998779296875</ele>
        <time>2026-08-21T10:51:54.000Z</time>
        <extensions>
          <ns3:TrackPointExtension>
            <ns3:hr>121</ns3:hr>
            <ns3:cad>50</ns3:cad>
          </ns3:TrackPointExtension>
        </extensions>
      </trkpt>
      <trkpt lat="45.36049115471541881561279296875" lon="-70.80979202874004840850830078125">
        <ele>546.79998779296875</ele>
        <time>2026-08-21T10:51:55.000Z</time>
        <extensions>
          <ns3:TrackPointExtension>
            <ns3:hr>122</ns3:hr>
            <ns3:cad>50</ns3:cad>
          </ns3:TrackPointExtension>
        </extensions>
      </trkpt>
      <trkpt lat="45.3604830242693424224853515625" lon="-70.80979831516742706298828125">
        <ele>547</ele>
        <time>2026-08-21T10:51:56.000Z</time>
        <extensions>
          <ns3:TrackPointExtension>
            <ns3:hr>123</ns3:hr>
            <ns3:cad>50</ns3:cad>
          </ns3:TrackPointExtension>
        </extensions>
      </trkpt>
      <trkpt lat="45.36047003231942653656005859375" lon="-70.80980258993804454803466796875">
        <ele>547</ele>
        <time>2026-08-21T10:51:57.000Z</time>
        <extensions>
          <ns3:TrackPointExtension>
            <ns3:hr>124</ns3:hr>
            <ns3:cad>51</ns3:cad>
          </ns3:TrackPointExtension>
        </extensions>
      </trkpt>
      <trkpt lat="45.36045813001692295074462890625" lon="-70.80980678088963031768798828125">
        <ele>547.20001220703125</ele>
        <time>2026-08-21T10:51:58.000Z</time>
        <extensions>
          <ns3:TrackPointExtension>
            <ns3:hr>124</ns3:hr>
            <ns3:cad>52</ns3:cad>
          </ns3:TrackPointExtension>
        </extensions>
      </trkpt>
      <trkpt lat="45.36044823937118053436279296875" lon="-70.8098082058131694793701171875">
        <ele>547.4000244140625</ele>
        <time>2026-08-21T10:51:59.000Z</time>
        <extensions>
          <ns3:TrackPointExtension>
            <ns3:hr>124</ns3:hr>
            <ns3:cad>52</ns3:cad>
          </ns3:TrackPointExtension>
        </extensions>
      </trkpt>
      <trkpt lat="45.3604394383728504180908203125" lon="-70.8098112232983112335205078125">
        <ele>547.4000244140625</ele>
        <time>2026-08-21T10:52:00.000Z</time>
        <extensions>
          <ns3:TrackPointExtension>
            <ns3:hr>125</ns3:hr>
            <ns3:cad>50</ns3:cad>
          </ns3:TrackPointExtension>
        </extensions>
      </trkpt>
      <trkpt lat="45.36043063737452030181884765625" lon="-70.80980510450899600982666015625">
        <ele>547.5999755859375</ele>
        <time>2026-08-21T10:52:01.000Z</time>
        <extensions>
          <ns3:TrackPointExtension>
            <ns3:hr>125</ns3:hr>
            <ns3:cad>50</ns3:cad>
          </ns3:TrackPointExtension>
        </extensions>
      </trkpt>
      <trkpt lat="45.360421501100063323974609375" lon="-70.809800662100315093994140625">
        <ele>547.79998779296875</ele>
        <time>2026-08-21T10:52:02.000Z</time>
        <extensions>
          <ns3:TrackPointExtension>
            <ns3:hr>125</ns3:hr>
            <ns3:cad>48</ns3:cad>
          </ns3:TrackPointExtension>
        </extensions>
      </trkpt>
      <trkpt lat="45.36041043698787689208984375" lon="-70.80979940481483936309814453125">
        <ele>548</ele>
        <time>2026-08-21T10:52:03.000Z</time>
        <extensions>
          <ns3:TrackPointExtension>
            <ns3:hr>126</ns3:hr>
            <ns3:cad>48</ns3:cad>
          </ns3:TrackPointExtension>
        </extensions>
      </trkpt>
      <trkpt lat="45.360404737293720245361328125" lon="-70.8098065294325351715087890625">
        <ele>548.20001220703125</ele>
        <time>2026-08-21T10:52:04.000Z</time>
        <extensions>
          <ns3:TrackPointExtension>
            <ns3:hr>126</ns3:hr>
            <ns3:cad>48</ns3:cad>
          </ns3:TrackPointExtension>
        </extensions>
      </trkpt>
      <trkpt lat="45.3603985346853733062744140625" lon="-70.80981181003153324127197265625">
        <ele>548.4000244140625</ele>
        <time>2026-08-21T10:52:05.000Z</time>
        <extensions>
          <ns3:TrackPointExtension>
            <ns3:hr>126</ns3:hr>
            <ns3:cad>47</ns3:cad>
          </ns3:TrackPointExtension>
        </extensions>
      </trkpt>
      <trkpt lat="45.360391996800899505615234375" lon="-70.80981566570699214935302734375">
        <ele>548.5999755859375</ele>
        <time>2026-08-21T10:52:06.000Z</time>
        <extensions>
          <ns3:TrackPointExtension>
            <ns3:hr>127</ns3:hr>
            <ns3:cad>47</ns3:cad>
          </ns3:TrackPointExtension>
        </extensions>
      </trkpt>
      <trkpt lat="45.36038554273545742034912109375" lon="-70.80981365405023097991943359375">
        <ele>548.79998779296875</ele>
        <time>2026-08-21T10:52:07.000Z</time>
        <extensions>
          <ns3:TrackPointExtension>
            <ns3:hr>128</ns3:hr>
            <ns3:cad>46</ns3:cad>
          </ns3:TrackPointExtension>
        </extensions>
      </trkpt>
      <trkpt lat="45.360379926860332489013671875" lon="-70.80980879254639148712158203125">
        <ele>549</ele>
        <time>2026-08-21T10:52:08.000Z</time>
        <extensions>
          <ns3:TrackPointExtension>
            <ns3:hr>128</ns3:hr>
            <ns3:cad>46</ns3:cad>
          </ns3:TrackPointExtension>
        </extensions>
      </trkpt>
      <trkpt lat="45.36037464626133441925048828125" lon="-70.80980711616575717926025390625">
        <ele>549.4000244140625</ele>
        <time>2026-08-21T10:52:09.000Z</time>
        <extensions>
          <ns3:TrackPointExtension>
            <ns3:hr>129</ns3:hr>
            <ns3:cad>45</ns3:cad>
          </ns3:TrackPointExtension>
        </extensions>
      </trkpt>
      <trkpt lat="45.36036844365298748016357421875" lon="-70.80981063656508922576904296875">
        <ele>549.5999755859375</ele>
        <time>2026-08-21T10:52:10.000Z</time>
        <extensions>
          <ns3:TrackPointExtension>
            <ns3:hr>129</ns3:hr>
            <ns3:cad>42</ns3:cad>
          </ns3:TrackPointExtension>
        </extensions>
      </trkpt>
      <trkpt lat="45.360364504158496856689453125" lon="-70.80981432460248470306396484375">
        <ele>549.79998779296875</ele>
        <time>2026-08-21T10:52:11.000Z</time>
        <extensions>
          <ns3:TrackPointExtension>
            <ns3:hr>130</ns3:hr>
            <ns3:cad>42</ns3:cad>
          </ns3:TrackPointExtension>
        </extensions>
      </trkpt>
      <trkpt lat="45.36036106757819652557373046875" lon="-70.809816420078277587890625">
        <ele>550</ele>
        <time>2026-08-21T10:52:12.000Z</time>
        <extensions>
          <ns3:TrackPointExtension>
            <ns3:hr>131</ns3:hr>
            <ns3:cad>43</ns3:cad>
          </ns3:TrackPointExtension>
        </extensions>
      </trkpt>
      <trkpt lat="45.3603556193411350250244140625" lon="-70.8098179288208484649658203125">
        <ele>550.20001220703125</ele>
        <time>2026-08-21T10:52:13.000Z</time>
        <extensions>
          <ns3:TrackPointExtension>
            <ns3:hr>131</ns3:hr>
            <ns3:cad>43</ns3:cad>
          </ns3:TrackPointExtension>
        </extensions>
      </trkpt>
      <trkpt lat="45.3603505901992321014404296875" lon="-70.80982052721083164215087890625">
        <ele>550.5999755859375</ele>
        <time>2026-08-21T10:52:14.000Z</time>
        <extensions>
          <ns3:TrackPointExtension>
            <ns3:hr>131</ns3:hr>
            <ns3:cad>43</ns3:cad>
          </ns3:TrackPointExtension>
        </extensions>
      </trkpt>
      <trkpt lat="45.36034338176250457763671875" lon="-70.809821784496307373046875">
        <ele>550.79998779296875</ele>
        <time>2026-08-21T10:52:15.000Z</time>
        <extensions>
          <ns3:TrackPointExtension>
            <ns3:hr>131</ns3:hr>
            <ns3:cad>43</ns3:cad>
          </ns3:TrackPointExtension>
        </extensions>
      </trkpt>
      <trkpt lat="45.3603368438780307769775390625" lon="-70.80982513725757598876953125">
        <ele>551.20001220703125</ele>
        <time>2026-08-21T10:52:16.000Z</time>
        <extensions>
          <ns3:TrackPointExtension>
            <ns3:hr>132</ns3:hr>
            <ns3:cad>42</ns3:cad>
          </ns3:TrackPointExtension>
        </extensions>
      </trkpt>
      <trkpt lat="45.36033240146934986114501953125" lon="-70.80982538871467113494873046875">
        <ele>551.4000244140625</ele>
        <time>2026-08-21T10:52:17.000Z</time>
        <extensions>
          <ns3:TrackPointExtension>
            <ns3:hr>132</ns3:hr>
            <ns3:cad>42</ns3:cad>
          </ns3:TrackPointExtension>
        </extensions>
      </trkpt>
      <trkpt lat="45.36032435484230518341064453125" lon="-70.8098236285150051116943359375">
        <ele>551.79998779296875</ele>
        <time>2026-08-21T10:52:18.000Z</time>
        <extensions>
          <ns3:TrackPointExtension>
            <ns3:hr>132</ns3:hr>
            <ns3:cad>42</ns3:cad>
          </ns3:TrackPointExtension>
        </extensions>
      </trkpt>
      <trkpt lat="45.3603220917284488677978515625" lon="-70.80982471816241741180419921875">
        <ele>552</ele>
        <time>2026-08-21T10:52:19.000Z</time>
        <extensions>
          <ns3:TrackPointExtension>
            <ns3:hr>132</ns3:hr>
            <ns3:cad>0</ns3:cad>
          </ns3:TrackPointExtension>
        </extensions>
      </trkpt>
      <trkpt lat="45.360314883291721343994140625" lon="-70.8098219521343708038330078125">
        <ele>552.4000244140625</ele>
        <time>2026-08-21T10:52:20.000Z</time>
        <extensions>
          <ns3:TrackPointExtension>
            <ns3:hr>133</ns3:hr>
            <ns3:cad>0</ns3:cad>
          </ns3:TrackPointExtension>
        </extensions>
      </trkpt>
      <trkpt lat="45.3603123687207698822021484375" lon="-70.80982245504856109619140625">
        <ele>552.79998779296875</ele>
        <time>2026-08-21T10:52:21.000Z</time>
        <extensions>
          <ns3:TrackPointExtension>
            <ns3:hr>133</ns3:hr>
            <ns3:cad>0</ns3:cad>
          </ns3:TrackPointExtension>
        </extensions>
      </trkpt>
      <trkpt lat="45.3603036515414714813232421875" lon="-70.80982756800949573516845703125">
        <ele>553.20001220703125</ele>
        <time>2026-08-21T10:52:22.000Z</time>
        <extensions>
          <ns3:TrackPointExtension>
            <ns3:hr>133</ns3:hr>
            <ns3:cad>0</ns3:cad>
          </ns3:TrackPointExtension>
        </extensions>
      </trkpt>
      <trkpt lat="45.360293425619602203369140625" lon="-70.80982890911400318145751953125">
        <ele>553.5999755859375</ele>
        <time>2026-08-21T10:52:23.000Z</time>
        <extensions>
          <ns3:TrackPointExtension>
            <ns3:hr>134</ns3:hr>
            <ns3:cad>0</ns3:cad>
          </ns3:TrackPointExtension>
        </extensions>
      </trkpt>
      <trkpt lat="45.3602865524590015411376953125" lon="-70.80982907675206661224365234375">
        <ele>554</ele>
        <time>2026-08-21T10:52:24.000Z</time>
        <extensions>
          <ns3:TrackPointExtension>
            <ns3:hr>134</ns3:hr>
            <ns3:cad>0</ns3:cad>
          </ns3:TrackPointExtension>
        </extensions>
      </trkpt>
      <trkpt lat="45.36027909256517887115478515625" lon="-70.8098273165524005889892578125">
        <ele>554.20001220703125</ele>
        <time>2026-08-21T10:52:25.000Z</time>
        <extensions>
          <ns3:TrackPointExtension>
            <ns3:hr>134</ns3:hr>
            <ns3:cad>0</ns3:cad>
          </ns3:TrackPointExtension>
        </extensions>
      </trkpt>
      <trkpt lat="45.36027004010975360870361328125" lon="-70.80982404761016368865966796875">
        <ele>554.5999755859375</ele>
        <time>2026-08-21T10:52:26.000Z</time>
        <extensions>
          <ns3:TrackPointExtension>
            <ns3:hr>134</ns3:hr>
            <ns3:cad>0</ns3:cad>
          </ns3:TrackPointExtension>
        </extensions>
      </trkpt>
      <trkpt lat="45.36026023328304290771484375" lon="-70.809817425906658172607421875">
        <ele>554.79998779296875</ele>
        <time>2026-08-21T10:52:27.000Z</time>
        <extensions>
          <ns3:TrackPointExtension>
            <ns3:hr>134</ns3:hr>
            <ns3:cad>0</ns3:cad>
          </ns3:TrackPointExtension>
        </extensions>
      </trkpt>
      <trkpt lat="45.36025411449372768402099609375" lon="-70.80981030128896236419677734375">
        <ele>555</ele>
        <time>2026-08-21T10:52:28.000Z</time>
        <extensions>
          <ns3:TrackPointExtension>
            <ns3:hr>134</ns3:hr>
            <ns3:cad>50</ns3:cad>
          </ns3:TrackPointExtension>
        </extensions>
      </trkpt>
      <trkpt lat="45.3602436371147632598876953125" lon="-70.8098038472235202789306640625">
        <ele>555</ele>
        <time>2026-08-21T10:52:29.000Z</time>
        <extensions>
          <ns3:TrackPointExtension>
            <ns3:hr>135</ns3:hr>
            <ns3:cad>48</ns3:cad>
          </ns3:TrackPointExtension>
        </extensions>
      </trkpt>
      <trkpt lat="45.36023072898387908935546875" lon="-70.80979823134839534759521484375">
        <ele>555.20001220703125</ele>
        <time>2026-08-21T10:52:30.000Z</time>
        <extensions>
          <ns3:TrackPointExtension>
            <ns3:hr>135</ns3:hr>
            <ns3:cad>48</ns3:cad>
          </ns3:TrackPointExtension>
        </extensions>
      </trkpt>
      <trkpt lat="45.36021622829139232635498046875" lon="-70.809795968234539031982421875">
        <ele>555.20001220703125</ele>
        <time>2026-08-21T10:52:31.000Z</time>
        <extensions>
          <ns3:TrackPointExtension>
            <ns3:hr>135</ns3:hr>
            <ns3:cad>48</ns3:cad>
          </ns3:TrackPointExtension>
        </extensions>
      </trkpt>
      <trkpt lat="45.360202901065349578857421875" lon="-70.80980007536709308624267578125">
        <ele>555.20001220703125</ele>
        <time>2026-08-21T10:52:32.000Z</time>
        <extensions>
          <ns3:TrackPointExtension>
            <ns3:hr>135</ns3:hr>
            <ns3:cad>48</ns3:cad>
          </ns3:TrackPointExtension>
        </extensions>
      </trkpt>
      <trkpt lat="45.36019259132444858551025390625" lon="-70.809804014861583709716796875">
        <ele>555.20001220703125</ele>
        <time>2026-08-21T10:52:33.000Z</time>
        <extensions>
          <ns3:TrackPointExtension>
            <ns3:hr>136</ns3:hr>
            <ns3:cad>49</ns3:cad>
          </ns3:TrackPointExtension>
        </extensions>
      </trkpt>
      <trkpt lat="45.36017733626067638397216796875" lon="-70.80980879254639148712158203125">
        <ele>555.4000244140625</ele>
        <time>2026-08-21T10:52:34.000Z</time>
        <extensions>
          <ns3:TrackPointExtension>
            <ns3:hr>135</ns3:hr>
            <ns3:cad>49</ns3:cad>
          </ns3:TrackPointExtension>
        </extensions>
      </trkpt>
      <trkpt lat="45.36016157828271389007568359375" lon="-70.8098145760595798492431640625">
        <ele>555.5999755859375</ele>
        <time>2026-08-21T10:52:35.000Z</time>
        <extensions>
          <ns3:TrackPointExtension>
            <ns3:hr>136</ns3:hr>
            <ns3:cad>51</ns3:cad>
          </ns3:TrackPointExtension>
        </extensions>
      </trkpt>
      <trkpt lat="45.360146574676036834716796875" lon="-70.809822790324687957763671875">
        <ele>555.5999755859375</ele>
        <time>2026-08-21T10:52:36.000Z</time>
        <extensions>
          <ns3:TrackPointExtension>
            <ns3:hr>137</ns3:hr>
            <ns3:cad>51</ns3:cad>
          </ns3:TrackPointExtension>
        </extensions>
      </trkpt>
      <trkpt lat="45.36013592965900897979736328125" lon="-70.8098316751420497894287109375">
        <ele>555.79998779296875</ele>
        <time>2026-08-21T10:52:37.000Z</time>
        <extensions>
          <ns3:TrackPointExtension>
            <ns3:hr>139</ns3:hr>
            <ns3:cad>51</ns3:cad>
          </ns3:TrackPointExtension>
        </extensions>
      </trkpt>
      <trkpt lat="45.36012704484164714813232421875" lon="-70.80984114669263362884521484375">
        <ele>556</ele>
        <time>2026-08-21T10:52:38.000Z</time>
        <extensions>
          <ns3:TrackPointExtension>
            <ns3:hr>140</ns3:hr>
            <ns3:cad>51</ns3:cad>
          </ns3:TrackPointExtension>
        </extensions>
      </trkpt>
      <trkpt lat="45.3601169027388095855712890625" lon="-70.80985371954739093780517578125">
        <ele>556</ele>
        <time>2026-08-21T10:52:39.000Z</time>
        <extensions>
          <ns3:TrackPointExtension>
            <ns3:hr>142</ns3:hr>
            <ns3:cad>51</ns3:cad>
          </ns3:TrackPointExtension>
        </extensions>
      </trkpt>
      <trkpt lat="45.36010592244565486907958984375" lon="-70.80987065099179744720458984375">
        <ele>556.20001220703125</ele>
        <time>2026-08-21T10:52:40.000Z</time>
        <extensions>
          <ns3:TrackPointExtension>
            <ns3:hr>143</ns3:hr>
            <ns3:cad>48</ns3:cad>
          </ns3:TrackPointExtension>
        </extensions>
      </trkpt>
      <trkpt lat="45.360095612704753875732421875" lon="-70.8098786137998104095458984375">
        <ele>556.20001220703125</ele>
        <time>2026-08-21T10:52:41.000Z</time>
        <extensions>
          <ns3:TrackPointExtension>
            <ns3:hr>143</ns3:hr>
            <ns3:cad>48</ns3:cad>
          </ns3:TrackPointExtension>
        </extensions>
      </trkpt>
      <trkpt lat="45.36008454859256744384765625" lon="-70.809883140027523040771484375">
        <ele>556.20001220703125</ele>
        <time>2026-08-21T10:52:42.000Z</time>
        <extensions>
          <ns3:TrackPointExtension>
            <ns3:hr>144</ns3:hr>
            <ns3:cad>49</ns3:cad>
          </ns3:TrackPointExtension>
        </extensions>
      </trkpt>
      <trkpt lat="45.36007708869874477386474609375" lon="-70.8098769374191761016845703125">
        <ele>556.4000244140625</ele>
        <time>2026-08-21T10:52:43.000Z</time>
        <extensions>
          <ns3:TrackPointExtension>
            <ns3:hr>144</ns3:hr>
            <ns3:cad>49</ns3:cad>
          </ns3:TrackPointExtension>
        </extensions>
      </trkpt>
      <trkpt lat="45.360070131719112396240234375" lon="-70.80987065099179744720458984375">
        <ele>556.4000244140625</ele>
        <time>2026-08-21T10:52:44.000Z</time>
        <extensions>
          <ns3:TrackPointExtension>
            <ns3:hr>144</ns3:hr>
            <ns3:cad>49</ns3:cad>
          </ns3:TrackPointExtension>
        </extensions>
      </trkpt>
      <trkpt lat="45.36006317473948001861572265625" lon="-70.80986939370632171630859375">
        <ele>556.4000244140625</ele>
        <time>2026-08-21T10:52:45.000Z</time>
        <extensions>
          <ns3:TrackPointExtension>
            <ns3:hr>144</ns3:hr>
            <ns3:cad>51</ns3:cad>
          </ns3:TrackPointExtension>
        </extensions>
      </trkpt>
      <trkpt lat="45.360050015151500701904296875" lon="-70.8098662085831165313720703125">
        <ele>556.4000244140625</ele>
        <time>2026-08-21T10:52:46.000Z</time>
        <extensions>
          <ns3:TrackPointExtension>
            <ns3:hr>144</ns3:hr>
            <ns3:cad>51</ns3:cad>
          </ns3:TrackPointExtension>
        </extensions>
      </trkpt>
      <trkpt lat="45.3600458241999149322509765625" lon="-70.8098598383367061614990234375">
        <ele>556.4000244140625</ele>
        <time>2026-08-21T10:52:47.000Z</time>
        <extensions>
          <ns3:TrackPointExtension>
            <ns3:hr>145</ns3:hr>
            <ns3:cad>0</ns3:cad>
          </ns3:TrackPointExtension>
        </extensions>
      </trkpt>
      <trkpt lat="45.3600428067147731781005859375" lon="-70.8098447509109973907470703125">
        <ele>556.5999755859375</ele>
        <time>2026-08-21T10:52:48.000Z</time>
        <extensions>
          <ns3:TrackPointExtension>
            <ns3:hr>145</ns3:hr>
            <ns3:cad>0</ns3:cad>
          </ns3:TrackPointExtension>
        </extensions>
      </trkpt>
      <trkpt lat="45.360035933554172515869140625" lon="-70.80982572399079799652099609375">
        <ele>556.5999755859375</ele>
        <time>2026-08-21T10:52:49.000Z</time>
        <extensions>
          <ns3:TrackPointExtension>
            <ns3:hr>145</ns3:hr>
            <ns3:cad>0</ns3:cad>
          </ns3:TrackPointExtension>
        </extensions>
      </trkpt>
      <trkpt lat="45.360026545822620391845703125" lon="-70.80980879254639148712158203125">
        <ele>556.5999755859375</ele>
        <time>2026-08-21T10:52:50.000Z</time>
        <extensions>
          <ns3:TrackPointExtension>
            <ns3:hr>145</ns3:hr>
            <ns3:cad>0</ns3:cad>
          </ns3:TrackPointExtension>
        </extensions>
      </trkpt>
      <trkpt lat="45.36001791246235370635986328125" lon="-70.80979236401617527008056640625">
        <ele>556.5999755859375</ele>
        <time>2026-08-21T10:52:51.000Z</time>
        <extensions>
          <ns3:TrackPointExtension>
            <ns3:hr>145</ns3:hr>
            <ns3:cad>0</ns3:cad>
          </ns3:TrackPointExtension>
        </extensions>
      </trkpt>
      <trkpt lat="45.3600119613111019134521484375" lon="-70.80977928824722766876220703125">
        <ele>556.5999755859375</ele>
        <time>2026-08-21T10:52:52.000Z</time>
        <extensions>
          <ns3:TrackPointExtension>
            <ns3:hr>145</ns3:hr>
            <ns3:cad>0</ns3:cad>
          </ns3:TrackPointExtension>
        </extensions>
      </trkpt>
      <trkpt lat="45.36000919528305530548095703125" lon="-70.80977090634405612945556640625">
        <ele>556.5999755859375</ele>
        <time>2026-08-21T10:52:53.000Z</time>
        <extensions>
          <ns3:TrackPointExtension>
            <ns3:hr>145</ns3:hr>
            <ns3:cad>0</ns3:cad>
          </ns3:TrackPointExtension>
        </extensions>
      </trkpt>
      <trkpt lat="45.36000265739858150482177734375" lon="-70.809757746756076812744140625">
        <ele>556.79998779296875</ele>
        <time>2026-08-21T10:52:54.000Z</time>
        <extensions>
          <ns3:TrackPointExtension>
            <ns3:hr>145</ns3:hr>
            <ns3:cad>53</ns3:cad>
          </ns3:TrackPointExtension>
        </extensions>
      </trkpt>
      <trkpt lat="45.359995365142822265625" lon="-70.80974324606359004974365234375">
        <ele>556.79998779296875</ele>
        <time>2026-08-21T10:52:55.000Z</time>
        <extensions>
          <ns3:TrackPointExtension>
            <ns3:hr>145</ns3:hr>
            <ns3:cad>53</ns3:cad>
          </ns3:TrackPointExtension>
        </extensions>
      </trkpt>
      <trkpt lat="45.35998840816318988800048828125" lon="-70.80973553471267223358154296875">
        <ele>557</ele>
        <time>2026-08-21T10:52:56.000Z</time>
        <extensions>
          <ns3:TrackPointExtension>
            <ns3:hr>144</ns3:hr>
            <ns3:cad>53</ns3:cad>
          </ns3:TrackPointExtension>
        </extensions>
      </trkpt>
      <trkpt lat="45.35997985862195491790771484375" lon="-70.80972832627594470977783203125">
        <ele>557</ele>
        <time>2026-08-21T10:52:57.000Z</time>
        <extensions>
          <ns3:TrackPointExtension>
            <ns3:hr>145</ns3:hr>
            <ns3:cad>53</ns3:cad>
          </ns3:TrackPointExtension>
        </extensions>
      </trkpt>
      <trkpt lat="45.3599673695862293243408203125" lon="-70.80972463823854923248291015625">
        <ele>557.20001220703125</ele>
        <time>2026-08-21T10:52:58.000Z</time>
        <extensions>
          <ns3:TrackPointExtension>
            <ns3:hr>144</ns3:hr>
            <ns3:cad>53</ns3:cad>
          </ns3:TrackPointExtension>
        </extensions>
      </trkpt>
      <trkpt lat="45.3599459119141101837158203125" lon="-70.809718184173107147216796875">
        <ele>557.4000244140625</ele>
        <time>2026-08-21T10:52:59.000Z</time>
        <extensions>
          <ns3:TrackPointExtension>
            <ns3:hr>144</ns3:hr>
            <ns3:cad>53</ns3:cad>
          </ns3:TrackPointExtension>
        </extensions>
      </trkpt>
      <trkpt lat="45.35992906428873538970947265625" lon="-70.80971323885023593902587890625">
        <ele>557.4000244140625</ele>
        <time>2026-08-21T10:53:00.000Z</time>
        <extensions>
          <ns3:TrackPointExtension>
            <ns3:hr>144</ns3:hr>
            <ns3:cad>53</ns3:cad>
          </ns3:TrackPointExtension>
        </extensions>
      </trkpt>
      <trkpt lat="45.35991213284432888031005859375" lon="-70.80971189774572849273681640625">
        <ele>557.5999755859375</ele>
        <time>2026-08-21T10:53:01.000Z</time>
        <extensions>
          <ns3:TrackPointExtension>
            <ns3:hr>144</ns3:hr>
            <ns3:cad>53</ns3:cad>
          </ns3:TrackPointExtension>
        </extensions>
      </trkpt>
      <trkpt lat="45.35989821888506412506103515625" lon="-70.8097227104008197784423828125">
        <ele>557.5999755859375</ele>
        <time>2026-08-21T10:53:02.000Z</time>
        <extensions>
          <ns3:TrackPointExtension>
            <ns3:hr>144</ns3:hr>
            <ns3:cad>53</ns3:cad>
          </ns3:TrackPointExtension>
        </extensions>
      </trkpt>
      <trkpt lat="45.35988044925034046173095703125" lon="-70.80973234958946704864501953125">
        <ele>557.79998779296875</ele>
        <time>2026-08-21T10:53:03.000Z</time>
        <extensions>
          <ns3:TrackPointExtension>
            <ns3:hr>143</ns3:hr>
            <ns3:cad>53</ns3:cad>
          </ns3:TrackPointExtension>
        </extensions>
      </trkpt>
      <trkpt lat="45.3598627634346485137939453125" lon="-70.8097351156175136566162109375">
        <ele>557.79998779296875</ele>
        <time>2026-08-21T10:53:04.000Z</time>
        <extensions>
          <ns3:TrackPointExtension>
            <ns3:hr>142</ns3:hr>
            <ns3:cad>51</ns3:cad>
          </ns3:TrackPointExtension>
        </extensions>
      </trkpt>
      <trkpt lat="45.359844155609607696533203125" lon="-70.80974458716809749603271484375">
        <ele>558</ele>
        <time>2026-08-21T10:53:05.000Z</time>
        <extensions>
          <ns3:TrackPointExtension>
            <ns3:hr>141</ns3:hr>
            <ns3:cad>51</ns3:cad>
          </ns3:TrackPointExtension>
        </extensions>
      </trkpt>
      <trkpt lat="45.35983116365969181060791015625" lon="-70.80974810756742954254150390625">
        <ele>558</ele>
        <time>2026-08-21T10:53:06.000Z</time>
        <extensions>
          <ns3:TrackPointExtension>
            <ns3:hr>140</ns3:hr>
            <ns3:cad>51</ns3:cad>
          </ns3:TrackPointExtension>
        </extensions>
      </trkpt>
      <trkpt lat="45.3598158247768878936767578125" lon="-70.80975397489964962005615234375">
        <ele>558</ele>
        <time>2026-08-21T10:53:07.000Z</time>
        <extensions>
          <ns3:TrackPointExtension>
            <ns3:hr>140</ns3:hr>
            <ns3:cad>0</ns3:cad>
          </ns3:TrackPointExtension>
        </extensions>
      </trkpt>
      <trkpt lat="45.35980836488306522369384765625" lon="-70.809757076203823089599609375">
        <ele>558.20001220703125</ele>
        <time>2026-08-21T10:53:08.000Z</time>
        <extensions>
          <ns3:TrackPointExtension>
            <ns3:hr>139</ns3:hr>
            <ns3:cad>0</ns3:cad>
          </ns3:TrackPointExtension>
        </extensions>
      </trkpt>
      <trkpt lat="45.35979914478957653045654296875" lon="-70.80975431017577648162841796875">
        <ele>558.20001220703125</ele>
        <time>2026-08-21T10:53:09.000Z</time>
        <extensions>
          <ns3:TrackPointExtension>
            <ns3:hr>138</ns3:hr>
            <ns3:cad>0</ns3:cad>
          </ns3:TrackPointExtension>
        </extensions>
      </trkpt>
      <trkpt lat="45.35978841595351696014404296875" lon="-70.80975062213838100433349609375">
        <ele>558.4000244140625</ele>
        <time>2026-08-21T10:53:10.000Z</time>
        <extensions>
          <ns3:TrackPointExtension>
            <ns3:hr>138</ns3:hr>
            <ns3:cad>0</ns3:cad>
          </ns3:TrackPointExtension>
        </extensions>
      </trkpt>
      <trkpt lat="45.35977475345134735107421875" lon="-70.80975028686225414276123046875">
        <ele>558.4000244140625</ele>
        <time>2026-08-21T10:53:11.000Z</time>
        <extensions>
          <ns3:TrackPointExtension>
            <ns3:hr>138</ns3:hr>
            <ns3:cad>0</ns3:cad>
          </ns3:TrackPointExtension>
        </extensions>
      </trkpt>
      <trkpt lat="45.35975740291178226470947265625" lon="-70.80975481308996677398681640625">
        <ele>558.5999755859375</ele>
        <time>2026-08-21T10:53:12.000Z</time>
        <extensions>
          <ns3:TrackPointExtension>
            <ns3:hr>138</ns3:hr>
            <ns3:cad>0</ns3:cad>
          </ns3:TrackPointExtension>
        </extensions>
      </trkpt>
      <trkpt lat="45.359742902219295501708984375" lon="-70.80976654775440692901611328125">
        <ele>558.5999755859375</ele>
        <time>2026-08-21T10:53:13.000Z</time>
        <extensions>
          <ns3:TrackPointExtension>
            <ns3:hr>138</ns3:hr>
            <ns3:cad>0</ns3:cad>
          </ns3:TrackPointExtension>
        </extensions>
      </trkpt>
      <trkpt lat="45.3597330115735530853271484375" lon="-70.8097746782004833221435546875">
        <ele>558.79998779296875</ele>
        <time>2026-08-21T10:53:14.000Z</time>
        <extensions>
          <ns3:TrackPointExtension>
            <ns3:hr>138</ns3:hr>
            <ns3:cad>0</ns3:cad>
          </ns3:TrackPointExtension>
        </extensions>
      </trkpt>
      <trkpt lat="45.3597165830433368682861328125" lon="-70.80978247337043285369873046875">
        <ele>558.79998779296875</ele>
        <time>2026-08-21T10:53:15.000Z</time>
        <extensions>
          <ns3:TrackPointExtension>
            <ns3:hr>138</ns3:hr>
            <ns3:cad>0</ns3:cad>
          </ns3:TrackPointExtension>
        </extensions>
      </trkpt>
      <trkpt lat="45.35970627330243587493896484375" lon="-70.80978783778846263885498046875">
        <ele>558.79998779296875</ele>
        <time>2026-08-21T10:53:16.000Z</time>
        <extensions>
          <ns3:TrackPointExtension>
            <ns3:hr>138</ns3:hr>
            <ns3:cad>0</ns3:cad>
          </ns3:TrackPointExtension>
        </extensions>
      </trkpt>
      <trkpt lat="45.3596964664757251739501953125" lon="-70.80981030128896236419677734375">
        <ele>558.79998779296875</ele>
        <time>2026-08-21T10:53:17.000Z</time>
        <extensions>
          <ns3:TrackPointExtension>
            <ns3:hr>138</ns3:hr>
            <ns3:cad>0</ns3:cad>
          </ns3:TrackPointExtension>
        </extensions>
      </trkpt>
      <trkpt lat="45.35968758165836334228515625" lon="-70.8098266460001468658447265625">
        <ele>558.79998779296875</ele>
        <time>2026-08-21T10:53:18.000Z</time>
        <extensions>
          <ns3:TrackPointExtension>
            <ns3:hr>138</ns3:hr>
            <ns3:cad>0</ns3:cad>
          </ns3:TrackPointExtension>
        </extensions>
      </trkpt>
      <trkpt lat="45.35967626608908176422119140625" lon="-70.809837542474269866943359375">
        <ele>558.79998779296875</ele>
        <time>2026-08-21T10:53:19.000Z</time>
        <extensions>
          <ns3:TrackPointExtension>
            <ns3:hr>139</ns3:hr>
            <ns3:cad>0</ns3:cad>
          </ns3:TrackPointExtension>
        </extensions>
      </trkpt>
      <trkpt lat="45.35966402851045131683349609375" lon="-70.8098553121089935302734375">
        <ele>559</ele>
        <time>2026-08-21T10:53:20.000Z</time>
        <extensions>
          <ns3:TrackPointExtension>
            <ns3:hr>138</ns3:hr>
            <ns3:cad>0</ns3:cad>
          </ns3:TrackPointExtension>
        </extensions>
      </trkpt>
      <trkpt lat="45.359656400978565216064453125" lon="-70.80986578948795795440673828125">
        <ele>559</ele>
        <time>2026-08-21T10:53:21.000Z</time>
        <extensions>
          <ns3:TrackPointExtension>
            <ns3:hr>137</ns3:hr>
            <ns3:cad>50</ns3:cad>
          </ns3:TrackPointExtension>
        </extensions>
      </trkpt>
      <trkpt lat="45.3596471808850765228271484375" lon="-70.80987274646759033203125">
        <ele>559.20001220703125</ele>
        <time>2026-08-21T10:53:22.000Z</time>
        <extensions>
          <ns3:TrackPointExtension>
            <ns3:hr>137</ns3:hr>
            <ns3:cad>50</ns3:cad>
          </ns3:TrackPointExtension>
        </extensions>
      </trkpt>
      <trkpt lat="45.359636954963207244873046875" lon="-70.80988439731299877166748046875">
        <ele>559.20001220703125</ele>
        <time>2026-08-21T10:53:23.000Z</time>
        <extensions>
          <ns3:TrackPointExtension>
            <ns3:hr>136</ns3:hr>
            <ns3:cad>49</ns3:cad>
          </ns3:TrackPointExtension>
        </extensions>
      </trkpt>
      <trkpt lat="45.359627567231655120849609375" lon="-70.80989026464521884918212890625">
        <ele>559.4000244140625</ele>
        <time>2026-08-21T10:53:24.000Z</time>
        <extensions>
          <ns3:TrackPointExtension>
            <ns3:hr>136</ns3:hr>
            <ns3:cad>49</ns3:cad>
          </ns3:TrackPointExtension>
        </extensions>
      </trkpt>
      <trkpt lat="45.35961843095719814300537109375" lon="-70.8098910190165042877197265625">
        <ele>559.4000244140625</ele>
        <time>2026-08-21T10:53:25.000Z</time>
        <extensions>
          <ns3:TrackPointExtension>
            <ns3:hr>135</ns3:hr>
            <ns3:cad>49</ns3:cad>
          </ns3:TrackPointExtension>
        </extensions>
      </trkpt>
      <trkpt lat="45.359607450664043426513671875" lon="-70.80990686081349849700927734375">
        <ele>559.4000244140625</ele>
        <time>2026-08-21T10:53:26.000Z</time>
        <extensions>
          <ns3:TrackPointExtension>
            <ns3:hr>136</ns3:hr>
            <ns3:cad>49</ns3:cad>
          </ns3:TrackPointExtension>
        </extensions>
      </trkpt>
      <trkpt lat="45.359601080417633056640625" lon="-70.80992446281015872955322265625">
        <ele>559.4000244140625</ele>
        <time>2026-08-21T10:53:27.000Z</time>
        <extensions>
          <ns3:TrackPointExtension>
            <ns3:hr>136</ns3:hr>
            <ns3:cad>49</ns3:cad>
          </ns3:TrackPointExtension>
        </extensions>
      </trkpt>
      <trkpt lat="45.3595928661525249481201171875" lon="-70.80993711948394775390625">
        <ele>559.4000244140625</ele>
        <time>2026-08-21T10:53:28.000Z</time>
        <extensions>
          <ns3:TrackPointExtension>
            <ns3:hr>136</ns3:hr>
            <ns3:cad>48</ns3:cad>
          </ns3:TrackPointExtension>
        </extensions>
      </trkpt>
      <trkpt lat="45.3595836460590362548828125" lon="-70.8099491894245147705078125">
        <ele>559.4000244140625</ele>
        <time>2026-08-21T10:53:29.000Z</time>
        <extensions>
          <ns3:TrackPointExtension>
            <ns3:hr>135</ns3:hr>
            <ns3:cad>48</ns3:cad>
          </ns3:TrackPointExtension>
        </extensions>
      </trkpt>
      <trkpt lat="45.35957601852715015411376953125" lon="-70.80995832569897174835205078125">
        <ele>559.5999755859375</ele>
        <time>2026-08-21T10:53:30.000Z</time>
        <extensions>
          <ns3:TrackPointExtension>
            <ns3:hr>135</ns3:hr>
            <ns3:cad>50</ns3:cad>
          </ns3:TrackPointExtension>
        </extensions>
      </trkpt>
      <trkpt lat="45.3595657087862491607666015625" lon="-70.8099706470966339111328125">
        <ele>559.5999755859375</ele>
        <time>2026-08-21T10:53:31.000Z</time>
        <extensions>
          <ns3:TrackPointExtension>
            <ns3:hr>134</ns3:hr>
            <ns3:cad>50</ns3:cad>
          </ns3:TrackPointExtension>
        </extensions>
      </trkpt>
      <trkpt lat="45.35955288447439670562744140625" lon="-70.8099812082946300506591796875">
        <ele>559.79998779296875</ele>
        <time>2026-08-21T10:53:32.000Z</time>
        <extensions>
          <ns3:TrackPointExtension>
            <ns3:hr>134</ns3:hr>
            <ns3:cad>50</ns3:cad>
          </ns3:TrackPointExtension>
        </extensions>
      </trkpt>
      <trkpt lat="45.359542407095432281494140625" lon="-70.8099838905036449432373046875">
        <ele>559.79998779296875</ele>
        <time>2026-08-21T10:53:33.000Z</time>
        <extensions>
          <ns3:TrackPointExtension>
            <ns3:hr>134</ns3:hr>
            <ns3:cad>53</ns3:cad>
          </ns3:TrackPointExtension>
        </extensions>
      </trkpt>
      <trkpt lat="45.35953260026872158050537109375" lon="-70.809981040656566619873046875">
        <ele>559.79998779296875</ele>
        <time>2026-08-21T10:53:34.000Z</time>
        <extensions>
          <ns3:TrackPointExtension>
            <ns3:hr>133</ns3:hr>
            <ns3:cad>53</ns3:cad>
          </ns3:TrackPointExtension>
        </extensions>
      </trkpt>
      <trkpt lat="45.3595251403748989105224609375" lon="-70.80997576005756855010986328125">
        <ele>560</ele>
        <time>2026-08-21T10:53:35.000Z</time>
        <extensions>
          <ns3:TrackPointExtension>
            <ns3:hr>133</ns3:hr>
            <ns3:cad>53</ns3:cad>
          </ns3:TrackPointExtension>
        </extensions>
      </trkpt>
      <trkpt lat="45.3595134057104587554931640625" lon="-70.80996930599212646484375">
        <ele>560</ele>
        <time>2026-08-21T10:53:36.000Z</time>
        <extensions>
          <ns3:TrackPointExtension>
            <ns3:hr>132</ns3:hr>
            <ns3:cad>53</ns3:cad>
          </ns3:TrackPointExtension>
        </extensions>
      </trkpt>
      <trkpt lat="45.3595040179789066314697265625" lon="-70.80996905453503131866455078125">
        <ele>560.20001220703125</ele>
        <time>2026-08-21T10:53:37.000Z</time>
        <extensions>
          <ns3:TrackPointExtension>
            <ns3:hr>130</ns3:hr>
            <ns3:cad>55</ns3:cad>
          </ns3:TrackPointExtension>
        </extensions>
      </trkpt>
      <trkpt lat="45.35949605517089366912841796875" lon="-70.80997240729629993438720703125">
        <ele>560.20001220703125</ele>
        <time>2026-08-21T10:53:38.000Z</time>
        <extensions>
          <ns3:TrackPointExtension>
            <ns3:hr>129</ns3:hr>
            <ns3:cad>55</ns3:cad>
          </ns3:TrackPointExtension>
        </extensions>
      </trkpt>
      <trkpt lat="45.35948046483099460601806640625" lon="-70.80997265875339508056640625">
        <ele>560.4000244140625</ele>
        <time>2026-08-21T10:53:39.000Z</time>
        <extensions>
          <ns3:TrackPointExtension>
            <ns3:hr>129</ns3:hr>
            <ns3:cad>55</ns3:cad>
          </ns3:TrackPointExtension>
        </extensions>
      </trkpt>
      <trkpt lat="45.35946705378592014312744140625" lon="-70.8099731616675853729248046875">
        <ele>560.4000244140625</ele>
        <time>2026-08-21T10:53:40.000Z</time>
        <extensions>
          <ns3:TrackPointExtension>
            <ns3:hr>129</ns3:hr>
            <ns3:cad>50</ns3:cad>
          </ns3:TrackPointExtension>
        </extensions>
      </trkpt>
      <trkpt lat="45.359459258615970611572265625" lon="-70.80997089855372905731201171875">
        <ele>560.5999755859375</ele>
        <time>2026-08-21T10:53:41.000Z</time>
        <extensions>
          <ns3:TrackPointExtension>
            <ns3:hr>129</ns3:hr>
            <ns3:cad>50</ns3:cad>
          </ns3:TrackPointExtension>
        </extensions>
      </trkpt>
      <trkpt lat="45.35945213399827480316162109375" lon="-70.809964947402477264404296875">
        <ele>560.5999755859375</ele>
        <time>2026-08-21T10:53:42.000Z</time>
        <extensions>
          <ns3:TrackPointExtension>
            <ns3:hr>129</ns3:hr>
            <ns3:cad>50</ns3:cad>
          </ns3:TrackPointExtension>
        </extensions>
      </trkpt>
      <trkpt lat="45.3594366274774074554443359375" lon="-70.809958241879940032958984375">
        <ele>560.79998779296875</ele>
        <time>2026-08-21T10:53:43.000Z</time>
        <extensions>
          <ns3:TrackPointExtension>
            <ns3:hr>128</ns3:hr>
            <ns3:cad>50</ns3:cad>
          </ns3:TrackPointExtension>
        </extensions>
      </trkpt>
      <trkpt lat="45.3594238869845867156982421875" lon="-70.8099599182605743408203125">
        <ele>560.79998779296875</ele>
        <time>2026-08-21T10:53:44.000Z</time>
        <extensions>
          <ns3:TrackPointExtension>
            <ns3:hr>128</ns3:hr>
            <ns3:cad>50</ns3:cad>
          </ns3:TrackPointExtension>
        </extensions>
      </trkpt>
      <trkpt lat="45.359412990510463714599609375" lon="-70.80995916388928890228271484375">
        <ele>561</ele>
        <time>2026-08-21T10:53:45.000Z</time>
        <extensions>
          <ns3:TrackPointExtension>
            <ns3:hr>127</ns3:hr>
            <ns3:cad>50</ns3:cad>
          </ns3:TrackPointExtension>
        </extensions>
      </trkpt>
      <trkpt lat="45.35940268076956272125244140625" lon="-70.80996301956474781036376953125">
        <ele>561</ele>
        <time>2026-08-21T10:53:46.000Z</time>
        <extensions>
          <ns3:TrackPointExtension>
            <ns3:hr>127</ns3:hr>
            <ns3:cad>50</ns3:cad>
          </ns3:TrackPointExtension>
        </extensions>
      </trkpt>
      <trkpt lat="45.35938289947807788848876953125" lon="-70.8099718205630779266357421875">
        <ele>561.20001220703125</ele>
        <time>2026-08-21T10:53:47.000Z</time>
        <extensions>
          <ns3:TrackPointExtension>
            <ns3:hr>127</ns3:hr>
            <ns3:cad>48</ns3:cad>
          </ns3:TrackPointExtension>
        </extensions>
      </trkpt>
      <trkpt lat="45.3593692369759082794189453125" lon="-70.80997508950531482696533203125">
        <ele>561.4000244140625</ele>
        <time>2026-08-21T10:53:48.000Z</time>
        <extensions>
          <ns3:TrackPointExtension>
            <ns3:hr>126</ns3:hr>
            <ns3:cad>48</ns3:cad>
          </ns3:TrackPointExtension>
        </extensions>
      </trkpt>
      <trkpt lat="45.3593588434159755706787109375" lon="-70.80997525714337825775146484375">
        <ele>561.4000244140625</ele>
        <time>2026-08-21T10:53:49.000Z</time>
        <extensions>
          <ns3:TrackPointExtension>
            <ns3:hr>126</ns3:hr>
            <ns3:cad>48</ns3:cad>
          </ns3:TrackPointExtension>
        </extensions>
      </trkpt>
      <trkpt lat="45.35935021005570888519287109375" lon="-70.80997140146791934967041015625">
        <ele>561.5999755859375</ele>
        <time>2026-08-21T10:53:50.000Z</time>
        <extensions>
          <ns3:TrackPointExtension>
            <ns3:hr>126</ns3:hr>
            <ns3:cad>50</ns3:cad>
          </ns3:TrackPointExtension>
        </extensions>
      </trkpt>
      <trkpt lat="45.35934291779994964599609375" lon="-70.8099647797644138336181640625">
        <ele>561.79998779296875</ele>
        <time>2026-08-21T10:53:51.000Z</time>
        <extensions>
          <ns3:TrackPointExtension>
            <ns3:hr>125</ns3:hr>
            <ns3:cad>50</ns3:cad>
          </ns3:TrackPointExtension>
        </extensions>
      </trkpt>
      <trkpt lat="45.35932791419327259063720703125" lon="-70.80995312891900539398193359375">
        <ele>562</ele>
        <time>2026-08-21T10:53:52.000Z</time>
        <extensions>
          <ns3:TrackPointExtension>
            <ns3:hr>125</ns3:hr>
            <ns3:cad>50</ns3:cad>
          </ns3:TrackPointExtension>
        </extensions>
      </trkpt>
      <trkpt lat="45.35931601189076900482177734375" lon="-70.809953212738037109375">
        <ele>562</ele>
        <time>2026-08-21T10:53:53.000Z</time>
        <extensions>
          <ns3:TrackPointExtension>
            <ns3:hr>125</ns3:hr>
            <ns3:cad>50</ns3:cad>
          </ns3:TrackPointExtension>
        </extensions>
      </trkpt>
      <trkpt lat="45.35930042155086994171142578125" lon="-70.80995312891900539398193359375">
        <ele>562.20001220703125</ele>
        <time>2026-08-21T10:53:54.000Z</time>
        <extensions>
          <ns3:TrackPointExtension>
            <ns3:hr>125</ns3:hr>
            <ns3:cad>48</ns3:cad>
          </ns3:TrackPointExtension>
        </extensions>
      </trkpt>
      <trkpt lat="45.35928583703935146331787109375" lon="-70.80995279364287853240966796875">
        <ele>562.4000244140625</ele>
        <time>2026-08-21T10:53:55.000Z</time>
        <extensions>
          <ns3:TrackPointExtension>
            <ns3:hr>125</ns3:hr>
            <ns3:cad>48</ns3:cad>
          </ns3:TrackPointExtension>
        </extensions>
      </trkpt>
      <trkpt lat="45.359270162880420684814453125" lon="-70.80995312891900539398193359375">
        <ele>562.5999755859375</ele>
        <time>2026-08-21T10:53:56.000Z</time>
        <extensions>
          <ns3:TrackPointExtension>
            <ns3:hr>124</ns3:hr>
            <ns3:cad>48</ns3:cad>
          </ns3:TrackPointExtension>
        </extensions>
      </trkpt>
      <trkpt lat="45.3592552430927753448486328125" lon="-70.8099567331373691558837890625">
        <ele>562.5999755859375</ele>
        <time>2026-08-21T10:53:57.000Z</time>
        <extensions>
          <ns3:TrackPointExtension>
            <ns3:hr>124</ns3:hr>
            <ns3:cad>48</ns3:cad>
          </ns3:TrackPointExtension>
        </extensions>
      </trkpt>
      <trkpt lat="45.35924057476222515106201171875" lon="-70.80995547585189342498779296875">
        <ele>562.79998779296875</ele>
        <time>2026-08-21T10:53:58.000Z</time>
        <extensions>
          <ns3:TrackPointExtension>
            <ns3:hr>125</ns3:hr>
            <ns3:cad>48</ns3:cad>
          </ns3:TrackPointExtension>
        </extensions>
      </trkpt>
      <trkpt lat="45.35922783426940441131591796875" lon="-70.80995681695640087127685546875">
        <ele>562.79998779296875</ele>
        <time>2026-08-21T10:53:59.000Z</time>
        <extensions>
          <ns3:TrackPointExtension>
            <ns3:hr>125</ns3:hr>
            <ns3:cad>49</ns3:cad>
          </ns3:TrackPointExtension>
        </extensions>
      </trkpt>
      <trkpt lat="45.3592176921665668487548828125" lon="-70.80995614640414714813232421875">
        <ele>563</ele>
        <time>2026-08-21T10:54:00.000Z</time>
        <extensions>
          <ns3:TrackPointExtension>
            <ns3:hr>125</ns3:hr>
            <ns3:cad>49</ns3:cad>
          </ns3:TrackPointExtension>
        </extensions>
      </trkpt>
      <trkpt lat="45.35920838825404644012451171875" lon="-70.8099599182605743408203125">
        <ele>563</ele>
        <time>2026-08-21T10:54:01.000Z</time>
        <extensions>
          <ns3:TrackPointExtension>
            <ns3:hr>124</ns3:hr>
            <ns3:cad>49</ns3:cad>
          </ns3:TrackPointExtension>
        </extensions>
      </trkpt>
      <trkpt lat="45.3592009283602237701416015625" lon="-70.80995983444154262542724609375">
        <ele>563</ele>
        <time>2026-08-21T10:54:02.000Z</time>
        <extensions>
          <ns3:TrackPointExtension>
            <ns3:hr>125</ns3:hr>
            <ns3:cad>49</ns3:cad>
          </ns3:TrackPointExtension>
        </extensions>
      </trkpt>
      <trkpt lat="45.35919162444770336151123046875" lon="-70.8099570684134960174560546875">
        <ele>563.20001220703125</ele>
        <time>2026-08-21T10:54:03.000Z</time>
        <extensions>
          <ns3:TrackPointExtension>
            <ns3:hr>124</ns3:hr>
            <ns3:cad>49</ns3:cad>
          </ns3:TrackPointExtension>
        </extensions>
      </trkpt>
      <trkpt lat="45.35917972214519977569580078125" lon="-70.80995882861316204071044921875">
        <ele>563.20001220703125</ele>
        <time>2026-08-21T10:54:04.000Z</time>
        <extensions>
          <ns3:TrackPointExtension>
            <ns3:hr>124</ns3:hr>
            <ns3:cad>51</ns3:cad>
          </ns3:TrackPointExtension>
        </extensions>
      </trkpt>
      <trkpt lat="45.35916379652917385101318359375" lon="-70.8099674619734287261962890625">
        <ele>563.20001220703125</ele>
        <time>2026-08-21T10:54:05.000Z</time>
        <extensions>
          <ns3:TrackPointExtension>
            <ns3:hr>124</ns3:hr>
            <ns3:cad>51</ns3:cad>
          </ns3:TrackPointExtension>
        </extensions>
      </trkpt>
      <trkpt lat="45.35915340296924114227294921875" lon="-70.80997056327760219573974609375">
        <ele>563.4000244140625</ele>
        <time>2026-08-21T10:54:06.000Z</time>
        <extensions>
          <ns3:TrackPointExtension>
            <ns3:hr>125</ns3:hr>
            <ns3:cad>0</ns3:cad>
          </ns3:TrackPointExtension>
        </extensions>
      </trkpt>
      <trkpt lat="45.35914334468543529510498046875" lon="-70.8099738322198390960693359375">
        <ele>563.5999755859375</ele>
        <time>2026-08-21T10:54:07.000Z</time>
        <extensions>
          <ns3:TrackPointExtension>
            <ns3:hr>125</ns3:hr>
            <ns3:cad>0</ns3:cad>
          </ns3:TrackPointExtension>
        </extensions>
      </trkpt>
      <trkpt lat="45.3591308556497097015380859375" lon="-70.80998213030397891998291015625">
        <ele>563.79998779296875</ele>
        <time>2026-08-21T10:54:08.000Z</time>
        <extensions>
          <ns3:TrackPointExtension>
            <ns3:hr>126</ns3:hr>
            <ns3:cad>0</ns3:cad>
          </ns3:TrackPointExtension>
        </extensions>
      </trkpt>
      <trkpt lat="45.35911568440496921539306640625" lon="-70.80999554134905338287353515625">
        <ele>564.20001220703125</ele>
        <time>2026-08-21T10:54:09.000Z</time>
        <extensions>
          <ns3:TrackPointExtension>
            <ns3:hr>128</ns3:hr>
            <ns3:cad>49</ns3:cad>
          </ns3:TrackPointExtension>
        </extensions>
      </trkpt>
      <trkpt lat="45.35910126753151416778564453125" lon="-70.8100003190338611602783203125">
        <ele>564.4000244140625</ele>
        <time>2026-08-21T10:54:10.000Z</time>
        <extensions>
          <ns3:TrackPointExtension>
            <ns3:hr>130</ns3:hr>
            <ns3:cad>49</ns3:cad>
          </ns3:TrackPointExtension>
        </extensions>
      </trkpt>
      <trkpt lat="45.35908349789679050445556640625" lon="-70.8100093714892864227294921875">
        <ele>564.5999755859375</ele>
        <time>2026-08-21T10:54:11.000Z</time>
        <extensions>
          <ns3:TrackPointExtension>
            <ns3:hr>131</ns3:hr>
            <ns3:cad>49</ns3:cad>
          </ns3:TrackPointExtension>
        </extensions>
      </trkpt>
      <trkpt lat="45.35907444544136524200439453125" lon="-70.81002093851566314697265625">
        <ele>564.5999755859375</ele>
        <time>2026-08-21T10:54:12.000Z</time>
        <extensions>
          <ns3:TrackPointExtension>
            <ns3:hr>131</ns3:hr>
            <ns3:cad>49</ns3:cad>
          </ns3:TrackPointExtension>
        </extensions>
      </trkpt>
      <trkpt lat="45.3590617887675762176513671875" lon="-70.8100361935794353485107421875">
        <ele>564.79998779296875</ele>
        <time>2026-08-21T10:54:13.000Z</time>
        <extensions>
          <ns3:TrackPointExtension>
            <ns3:hr>131</ns3:hr>
            <ns3:cad>0</ns3:cad>
          </ns3:TrackPointExtension>
        </extensions>
      </trkpt>
      <trkpt lat="45.3590530715882778167724609375" lon="-70.81003963015973567962646484375">
        <ele>564.79998779296875</ele>
        <time>2026-08-21T10:54:14.000Z</time>
        <extensions>
          <ns3:TrackPointExtension>
            <ns3:hr>131</ns3:hr>
            <ns3:cad>0</ns3:cad>
          </ns3:TrackPointExtension>
        </extensions>
      </trkpt>
      <trkpt lat="45.35904175601899623870849609375" lon="-70.8100455813109874725341796875">
        <ele>564.79998779296875</ele>
        <time>2026-08-21T10:54:15.000Z</time>
        <extensions>
          <ns3:TrackPointExtension>
            <ns3:hr>131</ns3:hr>
            <ns3:cad>0</ns3:cad>
          </ns3:TrackPointExtension>
        </extensions>
      </trkpt>
      <trkpt lat="45.35903253592550754547119140625" lon="-70.81005170010030269622802734375">
        <ele>564.79998779296875</ele>
        <time>2026-08-21T10:54:16.000Z</time>
        <extensions>
          <ns3:TrackPointExtension>
            <ns3:hr>130</ns3:hr>
            <ns3:cad>52</ns3:cad>
          </ns3:TrackPointExtension>
        </extensions>
      </trkpt>
      <trkpt lat="45.35902264527976512908935546875" lon="-70.81005790270864963531494140625">
        <ele>565</ele>
        <time>2026-08-21T10:54:17.000Z</time>
        <extensions>
          <ns3:TrackPointExtension>
            <ns3:hr>130</ns3:hr>
            <ns3:cad>52</ns3:cad>
          </ns3:TrackPointExtension>
        </extensions>
      </trkpt>
      <trkpt lat="45.3590148501098155975341796875" lon="-70.8100636862218379974365234375">
        <ele>565</ele>
        <time>2026-08-21T10:54:18.000Z</time>
        <extensions>
          <ns3:TrackPointExtension>
            <ns3:hr>130</ns3:hr>
            <ns3:cad>52</ns3:cad>
          </ns3:TrackPointExtension>
        </extensions>
      </trkpt>
      <trkpt lat="45.35900487564504146575927734375" lon="-70.8100656978785991668701171875">
        <ele>565.20001220703125</ele>
        <time>2026-08-21T10:54:19.000Z</time>
        <extensions>
          <ns3:TrackPointExtension>
            <ns3:hr>130</ns3:hr>
            <ns3:cad>52</ns3:cad>
          </ns3:TrackPointExtension>
        </extensions>
      </trkpt>
      <trkpt lat="45.3589923866093158721923828125" lon="-70.81007190048694610595703125">
        <ele>565.4000244140625</ele>
        <time>2026-08-21T10:54:20.000Z</time>
        <extensions>
          <ns3:TrackPointExtension>
            <ns3:hr>131</ns3:hr>
            <ns3:cad>51</ns3:cad>
          </ns3:TrackPointExtension>
        </extensions>
      </trkpt>
      <trkpt lat="45.35898073576390743255615234375" lon="-70.8100774325430393218994140625">
        <ele>565.4000244140625</ele>
        <time>2026-08-21T10:54:21.000Z</time>
        <extensions>
          <ns3:TrackPointExtension>
            <ns3:hr>130</ns3:hr>
            <ns3:cad>50</ns3:cad>
          </ns3:TrackPointExtension>
        </extensions>
      </trkpt>
      <trkpt lat="45.35896900109946727752685546875" lon="-70.810086317360401153564453125">
        <ele>565.5999755859375</ele>
        <time>2026-08-21T10:54:22.000Z</time>
        <extensions>
          <ns3:TrackPointExtension>
            <ns3:hr>130</ns3:hr>
            <ns3:cad>50</ns3:cad>
          </ns3:TrackPointExtension>
        </extensions>
      </trkpt>
      <trkpt lat="45.35895726643502712249755859375" lon="-70.81009495072066783905029296875">
        <ele>565.79998779296875</ele>
        <time>2026-08-21T10:54:23.000Z</time>
        <extensions>
          <ns3:TrackPointExtension>
            <ns3:hr>130</ns3:hr>
            <ns3:cad>49</ns3:cad>
          </ns3:TrackPointExtension>
        </extensions>
      </trkpt>
      <trkpt lat="45.3589481301605701446533203125" lon="-70.81010232679545879364013671875">
        <ele>566</ele>
        <time>2026-08-21T10:54:24.000Z</time>
        <extensions>
          <ns3:TrackPointExtension>
            <ns3:hr>130</ns3:hr>
            <ns3:cad>49</ns3:cad>
          </ns3:TrackPointExtension>
        </extensions>
      </trkpt>
      <trkpt lat="45.35893782041966915130615234375" lon="-70.8101099543273448944091796875">
        <ele>566</ele>
        <time>2026-08-21T10:54:25.000Z</time>
        <extensions>
          <ns3:TrackPointExtension>
            <ns3:hr>130</ns3:hr>
            <ns3:cad>48</ns3:cad>
          </ns3:TrackPointExtension>
        </extensions>
      </trkpt>
      <trkpt lat="45.3589283488690853118896484375" lon="-70.81011213362216949462890625">
        <ele>566</ele>
        <time>2026-08-21T10:54:26.000Z</time>
        <extensions>
          <ns3:TrackPointExtension>
            <ns3:hr>130</ns3:hr>
            <ns3:cad>47</ns3:cad>
          </ns3:TrackPointExtension>
        </extensions>
      </trkpt>
      <trkpt lat="45.3589172847568988800048828125" lon="-70.810117162764072418212890625">
        <ele>566.20001220703125</ele>
        <time>2026-08-21T10:54:27.000Z</time>
        <extensions>
          <ns3:TrackPointExtension>
            <ns3:hr>130</ns3:hr>
            <ns3:cad>47</ns3:cad>
          </ns3:TrackPointExtension>
        </extensions>
      </trkpt>
      <trkpt lat="45.35890747793018817901611328125" lon="-70.81012562848627567291259765625">
        <ele>566.20001220703125</ele>
        <time>2026-08-21T10:54:28.000Z</time>
        <extensions>
          <ns3:TrackPointExtension>
            <ns3:hr>130</ns3:hr>
            <ns3:cad>47</ns3:cad>
          </ns3:TrackPointExtension>
        </extensions>
      </trkpt>
      <trkpt lat="45.3588975034654140472412109375" lon="-70.81013317219913005828857421875">
        <ele>566.20001220703125</ele>
        <time>2026-08-21T10:54:29.000Z</time>
        <extensions>
          <ns3:TrackPointExtension>
            <ns3:hr>130</ns3:hr>
            <ns3:cad>47</ns3:cad>
          </ns3:TrackPointExtension>
        </extensions>
      </trkpt>
      <trkpt lat="45.358883924782276153564453125" lon="-70.81013568677008152008056640625">
        <ele>566.4000244140625</ele>
        <time>2026-08-21T10:54:30.000Z</time>
        <extensions>
          <ns3:TrackPointExtension>
            <ns3:hr>130</ns3:hr>
            <ns3:cad>53</ns3:cad>
          </ns3:TrackPointExtension>
        </extensions>
      </trkpt>
      <trkpt lat="45.35887026228010654449462890625" lon="-70.8101334236562252044677734375">
        <ele>566.4000244140625</ele>
        <time>2026-08-21T10:54:31.000Z</time>
        <extensions>
          <ns3:TrackPointExtension>
            <ns3:hr>130</ns3:hr>
            <ns3:cad>53</ns3:cad>
          </ns3:TrackPointExtension>
        </extensions>
      </trkpt>
      <trkpt lat="45.3588594496250152587890625" lon="-70.8101369440555572509765625">
        <ele>566.4000244140625</ele>
        <time>2026-08-21T10:54:32.000Z</time>
        <extensions>
          <ns3:TrackPointExtension>
            <ns3:hr>130</ns3:hr>
            <ns3:cad>53</ns3:cad>
          </ns3:TrackPointExtension>
        </extensions>
      </trkpt>
      <trkpt lat="45.35884863696992397308349609375" lon="-70.810144655406475067138671875">
        <ele>566.4000244140625</ele>
        <time>2026-08-21T10:54:33.000Z</time>
        <extensions>
          <ns3:TrackPointExtension>
            <ns3:hr>130</ns3:hr>
            <ns3:cad>53</ns3:cad>
          </ns3:TrackPointExtension>
        </extensions>
      </trkpt>
      <trkpt lat="45.35883975215256214141845703125" lon="-70.810151360929012298583984375">
        <ele>566.5999755859375</ele>
        <time>2026-08-21T10:54:34.000Z</time>
        <extensions>
          <ns3:TrackPointExtension>
            <ns3:hr>130</ns3:hr>
            <ns3:cad>53</ns3:cad>
          </ns3:TrackPointExtension>
        </extensions>
      </trkpt>
      <trkpt lat="45.35883338190615177154541015625" lon="-70.81015580333769321441650390625">
        <ele>566.79998779296875</ele>
        <time>2026-08-21T10:54:35.000Z</time>
        <extensions>
          <ns3:TrackPointExtension>
            <ns3:hr>130</ns3:hr>
            <ns3:cad>51</ns3:cad>
          </ns3:TrackPointExtension>
        </extensions>
      </trkpt>
      <trkpt lat="45.3588259220123291015625" lon="-70.8101545460522174835205078125">
        <ele>567</ele>
        <time>2026-08-21T10:54:36.000Z</time>
        <extensions>
          <ns3:TrackPointExtension>
            <ns3:hr>130</ns3:hr>
            <ns3:cad>51</ns3:cad>
          </ns3:TrackPointExtension>
        </extensions>
      </trkpt>
      <trkpt lat="45.3588170371949672698974609375" lon="-70.81014155410230159759521484375">
        <ele>567.20001220703125</ele>
        <time>2026-08-21T10:54:37.000Z</time>
        <extensions>
          <ns3:TrackPointExtension>
            <ns3:hr>129</ns3:hr>
            <ns3:cad>51</ns3:cad>
          </ns3:TrackPointExtension>
        </extensions>
      </trkpt>
      <trkpt lat="45.3588089905679225921630859375" lon="-70.81014440394937992095947265625">
        <ele>567.4000244140625</ele>
        <time>2026-08-21T10:54:38.000Z</time>
        <extensions>
          <ns3:TrackPointExtension>
            <ns3:hr>130</ns3:hr>
            <ns3:cad>51</ns3:cad>
          </ns3:TrackPointExtension>
        </extensions>
      </trkpt>
      <trkpt lat="45.35879909992218017578125" lon="-70.8101557195186614990234375">
        <ele>567.5999755859375</ele>
        <time>2026-08-21T10:54:39.000Z</time>
        <extensions>
          <ns3:TrackPointExtension>
            <ns3:hr>130</ns3:hr>
            <ns3:cad>51</ns3:cad>
          </ns3:TrackPointExtension>
        </extensions>
      </trkpt>
      <trkpt lat="45.3587858565151691436767578125" lon="-70.81016242504119873046875">
        <ele>567.5999755859375</ele>
        <time>2026-08-21T10:54:40.000Z</time>
        <extensions>
          <ns3:TrackPointExtension>
            <ns3:hr>130</ns3:hr>
            <ns3:cad>0</ns3:cad>
          </ns3:TrackPointExtension>
        </extensions>
      </trkpt>
      <trkpt lat="45.35877889953553676605224609375" lon="-70.81016753800213336944580078125">
        <ele>567.79998779296875</ele>
        <time>2026-08-21T10:54:41.000Z</time>
        <extensions>
          <ns3:TrackPointExtension>
            <ns3:hr>130</ns3:hr>
            <ns3:cad>0</ns3:cad>
          </ns3:TrackPointExtension>
        </extensions>
      </trkpt>
      <trkpt lat="45.358769930899143218994140625" lon="-70.81017340533435344696044921875">
        <ele>568</ele>
        <time>2026-08-21T10:54:42.000Z</time>
        <extensions>
          <ns3:TrackPointExtension>
            <ns3:hr>130</ns3:hr>
            <ns3:cad>0</ns3:cad>
          </ns3:TrackPointExtension>
        </extensions>
      </trkpt>
      <trkpt lat="45.35875685513019561767578125" lon="-70.81017374061048030853271484375">
        <ele>568.20001220703125</ele>
        <time>2026-08-21T10:54:43.000Z</time>
        <extensions>
          <ns3:TrackPointExtension>
            <ns3:hr>130</ns3:hr>
            <ns3:cad>0</ns3:cad>
          </ns3:TrackPointExtension>
        </extensions>
      </trkpt>
      <trkpt lat="45.3587462939321994781494140625" lon="-70.81017139367759227752685546875">
        <ele>568.4000244140625</ele>
        <time>2026-08-21T10:54:44.000Z</time>
        <extensions>
          <ns3:TrackPointExtension>
            <ns3:hr>129</ns3:hr>
            <ns3:cad>47</ns3:cad>
          </ns3:TrackPointExtension>
        </extensions>
      </trkpt>
      <trkpt lat="45.35874067805707454681396484375" lon="-70.8101672865450382232666015625">
        <ele>568.5999755859375</ele>
        <time>2026-08-21T10:54:45.000Z</time>
        <extensions>
          <ns3:TrackPointExtension>
            <ns3:hr>129</ns3:hr>
            <ns3:cad>47</ns3:cad>
          </ns3:TrackPointExtension>
        </extensions>
      </trkpt>
      <trkpt lat="45.3587342239916324615478515625" lon="-70.81016711890697479248046875">
        <ele>568.5999755859375</ele>
        <time>2026-08-21T10:54:46.000Z</time>
        <extensions>
          <ns3:TrackPointExtension>
            <ns3:hr>129</ns3:hr>
            <ns3:cad>47</ns3:cad>
          </ns3:TrackPointExtension>
        </extensions>
      </trkpt>
      <trkpt lat="45.35873346962034702301025390625" lon="-70.81016737036406993865966796875">
        <ele>568.79998779296875</ele>
        <time>2026-08-21T10:54:47.000Z</time>
        <extensions>
          <ns3:TrackPointExtension>
            <ns3:hr>128</ns3:hr>
            <ns3:cad>47</ns3:cad>
          </ns3:TrackPointExtension>
        </extensions>
      </trkpt>
      <trkpt lat="45.35872609354555606842041015625" lon="-70.810165107250213623046875">
        <ele>568.79998779296875</ele>
        <time>2026-08-21T10:54:48.000Z</time>
        <extensions>
          <ns3:TrackPointExtension>
            <ns3:hr>128</ns3:hr>
            <ns3:cad>47</ns3:cad>
          </ns3:TrackPointExtension>
        </extensions>
      </trkpt>
      <trkpt lat="45.35871938802301883697509765625" lon="-70.81016200594604015350341796875">
        <ele>568.79998779296875</ele>
        <time>2026-08-21T10:54:49.000Z</time>
        <extensions>
          <ns3:TrackPointExtension>
            <ns3:hr>128</ns3:hr>
            <ns3:cad>47</ns3:cad>
          </ns3:TrackPointExtension>
        </extensions>
      </trkpt>
      <trkpt lat="45.3587172925472259521484375" lon="-70.81016183830797672271728515625">
        <ele>568.79998779296875</ele>
        <time>2026-08-21T10:54:50.000Z</time>
        <extensions>
          <ns3:TrackPointExtension>
            <ns3:hr>128</ns3:hr>
            <ns3:cad>0</ns3:cad>
          </ns3:TrackPointExtension>
        </extensions>
      </trkpt>
      <trkpt lat="45.35870991647243499755859375" lon="-70.81015714444220066070556640625">
        <ele>568.79998779296875</ele>
        <time>2026-08-21T10:54:51.000Z</time>
        <extensions>
          <ns3:TrackPointExtension>
            <ns3:hr>128</ns3:hr>
            <ns3:cad>0</ns3:cad>
          </ns3:TrackPointExtension>
        </extensions>
      </trkpt>
      <trkpt lat="45.358699522912502288818359375" lon="-70.8101501874625682830810546875">
        <ele>568.79998779296875</ele>
        <time>2026-08-21T10:54:52.000Z</time>
        <extensions>
          <ns3:TrackPointExtension>
            <ns3:hr>128</ns3:hr>
            <ns3:cad>0</ns3:cad>
          </ns3:TrackPointExtension>
        </extensions>
      </trkpt>
      <trkpt lat="45.358687452971935272216796875" lon="-70.81014608033001422882080078125">
        <ele>568.79998779296875</ele>
        <time>2026-08-21T10:54:53.000Z</time>
        <extensions>
          <ns3:TrackPointExtension>
            <ns3:hr>128</ns3:hr>
            <ns3:cad>0</ns3:cad>
          </ns3:TrackPointExtension>
        </extensions>
      </trkpt>
      <trkpt lat="45.3586748801171779632568359375" lon="-70.81014272756874561309814453125">
        <ele>568.79998779296875</ele>
        <time>2026-08-21T10:54:54.000Z</time>
        <extensions>
          <ns3:TrackPointExtension>
            <ns3:hr>128</ns3:hr>
            <ns3:cad>0</ns3:cad>
          </ns3:TrackPointExtension>
        </extensions>
      </trkpt>
      <trkpt lat="45.35866004414856433868408203125" lon="-70.81013493239879608154296875">
        <ele>568.79998779296875</ele>
        <time>2026-08-21T10:54:55.000Z</time>
        <extensions>
          <ns3:TrackPointExtension>
            <ns3:hr>129</ns3:hr>
            <ns3:cad>0</ns3:cad>
          </ns3:TrackPointExtension>
        </extensions>
      </trkpt>
      <trkpt lat="45.3586554341018199920654296875" lon="-70.81014675088226795196533203125">
        <ele>568.79998779296875</ele>
        <time>2026-08-21T10:54:56.000Z</time>
        <extensions>
          <ns3:TrackPointExtension>
            <ns3:hr>129</ns3:hr>
            <ns3:cad>53</ns3:cad>
          </ns3:TrackPointExtension>
        </extensions>
      </trkpt>
      <trkpt lat="45.3586448729038238525390625" lon="-70.81014876253902912139892578125">
        <ele>569</ele>
        <time>2026-08-21T10:54:57.000Z</time>
        <extensions>
          <ns3:TrackPointExtension>
            <ns3:hr>129</ns3:hr>
            <ns3:cad>53</ns3:cad>
          </ns3:TrackPointExtension>
        </extensions>
      </trkpt>
      <trkpt lat="45.35862584598362445831298828125" lon="-70.81014540977776050567626953125">
        <ele>569.20001220703125</ele>
        <time>2026-08-21T10:54:58.000Z</time>
        <extensions>
          <ns3:TrackPointExtension>
            <ns3:hr>129</ns3:hr>
            <ns3:cad>53</ns3:cad>
          </ns3:TrackPointExtension>
        </extensions>
      </trkpt>
      <trkpt lat="45.358614362776279449462890625" lon="-70.81014624796807765960693359375">
        <ele>569.20001220703125</ele>
        <time>2026-08-21T10:54:59.000Z</time>
        <extensions>
          <ns3:TrackPointExtension>
            <ns3:hr>129</ns3:hr>
            <ns3:cad>51</ns3:cad>
          </ns3:TrackPointExtension>
        </extensions>
      </trkpt>
      <trkpt lat="45.358603298664093017578125" lon="-70.810146331787109375">
        <ele>569.20001220703125</ele>
        <time>2026-08-21T10:55:00.000Z</time>
        <extensions>
          <ns3:TrackPointExtension>
            <ns3:hr>129</ns3:hr>
            <ns3:cad>51</ns3:cad>
          </ns3:TrackPointExtension>
        </extensions>
      </trkpt>
      <trkpt lat="45.35859332419931888580322265625" lon="-70.81014574505388736724853515625">
        <ele>569.20001220703125</ele>
        <time>2026-08-21T10:55:01.000Z</time>
        <extensions>
          <ns3:TrackPointExtension>
            <ns3:hr>129</ns3:hr>
            <ns3:cad>51</ns3:cad>
          </ns3:TrackPointExtension>
        </extensions>
      </trkpt>
      <trkpt lat="45.35858242772519588470458984375" lon="-70.8101468347012996673583984375">
        <ele>569.20001220703125</ele>
        <time>2026-08-21T10:55:02.000Z</time>
        <extensions>
          <ns3:TrackPointExtension>
            <ns3:hr>128</ns3:hr>
            <ns3:cad>51</ns3:cad>
          </ns3:TrackPointExtension>
        </extensions>
      </trkpt>
      <trkpt lat="45.35857538692653179168701171875" lon="-70.8101434819400310516357421875">
        <ele>569.4000244140625</ele>
        <time>2026-08-21T10:55:03.000Z</time>
        <extensions>
          <ns3:TrackPointExtension>
            <ns3:hr>128</ns3:hr>
            <ns3:cad>0</ns3:cad>
          </ns3:TrackPointExtension>
        </extensions>
      </trkpt>
      <trkpt lat="45.35856700502336025238037109375" lon="-70.81013468094170093536376953125">
        <ele>569.4000244140625</ele>
        <time>2026-08-21T10:55:04.000Z</time>
        <extensions>
          <ns3:TrackPointExtension>
            <ns3:hr>128</ns3:hr>
            <ns3:cad>0</ns3:cad>
          </ns3:TrackPointExtension>
        </extensions>
      </trkpt>
      <trkpt lat="45.358561389148235321044921875" lon="-70.81012529321014881134033203125">
        <ele>569.5999755859375</ele>
        <time>2026-08-21T10:55:05.000Z</time>
        <extensions>
          <ns3:TrackPointExtension>
            <ns3:hr>128</ns3:hr>
            <ns3:cad>0</ns3:cad>
          </ns3:TrackPointExtension>
        </extensions>
      </trkpt>
      <trkpt lat="45.35855191759765148162841796875" lon="-70.81011950969696044921875">
        <ele>569.79998779296875</ele>
        <time>2026-08-21T10:55:06.000Z</time>
        <extensions>
          <ns3:TrackPointExtension>
            <ns3:hr>128</ns3:hr>
            <ns3:cad>50</ns3:cad>
          </ns3:TrackPointExtension>
        </extensions>
      </trkpt>
      <trkpt lat="45.35854353569447994232177734375" lon="-70.810119174420833587646484375">
        <ele>569.79998779296875</ele>
        <time>2026-08-21T10:55:07.000Z</time>
        <extensions>
          <ns3:TrackPointExtension>
            <ns3:hr>128</ns3:hr>
            <ns3:cad>50</ns3:cad>
          </ns3:TrackPointExtension>
        </extensions>
      </trkpt>
      <trkpt lat="45.35853398032486438751220703125" lon="-70.81011188216507434844970703125">
        <ele>570</ele>
        <time>2026-08-21T10:55:08.000Z</time>
        <extensions>
          <ns3:TrackPointExtension>
            <ns3:hr>128</ns3:hr>
            <ns3:cad>50</ns3:cad>
          </ns3:TrackPointExtension>
        </extensions>
      </trkpt>
      <trkpt lat="45.35851554013788700103759765625" lon="-70.81009863875806331634521484375">
        <ele>570.20001220703125</ele>
        <time>2026-08-21T10:55:09.000Z</time>
        <extensions>
          <ns3:TrackPointExtension>
            <ns3:hr>128</ns3:hr>
            <ns3:cad>0</ns3:cad>
          </ns3:TrackPointExtension>
        </extensions>
      </trkpt>
      <trkpt lat="45.35850564949214458465576171875" lon="-70.81009780056774616241455078125">
        <ele>570.4000244140625</ele>
        <time>2026-08-21T10:55:10.000Z</time>
        <extensions>
          <ns3:TrackPointExtension>
            <ns3:hr>128</ns3:hr>
            <ns3:cad>0</ns3:cad>
          </ns3:TrackPointExtension>
        </extensions>
      </trkpt>
      <trkpt lat="45.35849525593221187591552734375" lon="-70.8100965432822704315185546875">
        <ele>570.5999755859375</ele>
        <time>2026-08-21T10:55:11.000Z</time>
        <extensions>
          <ns3:TrackPointExtension>
            <ns3:hr>127</ns3:hr>
            <ns3:cad>0</ns3:cad>
          </ns3:TrackPointExtension>
        </extensions>
      </trkpt>
      <trkpt lat="45.3584877960383892059326171875" lon="-70.8100911788642406463623046875">
        <ele>570.79998779296875</ele>
        <time>2026-08-21T10:55:12.000Z</time>
        <extensions>
          <ns3:TrackPointExtension>
            <ns3:hr>128</ns3:hr>
            <ns3:cad>0</ns3:cad>
          </ns3:TrackPointExtension>
        </extensions>
      </trkpt>
      <trkpt lat="45.3584705293178558349609375" lon="-70.81008304841816425323486328125">
        <ele>571</ele>
        <time>2026-08-21T10:55:13.000Z</time>
        <extensions>
          <ns3:TrackPointExtension>
            <ns3:hr>128</ns3:hr>
            <ns3:cad>49</ns3:cad>
          </ns3:TrackPointExtension>
        </extensions>
      </trkpt>
      <trkpt lat="45.358460135757923126220703125" lon="-70.8100794441998004913330078125">
        <ele>571.20001220703125</ele>
        <time>2026-08-21T10:55:14.000Z</time>
        <extensions>
          <ns3:TrackPointExtension>
            <ns3:hr>128</ns3:hr>
            <ns3:cad>49</ns3:cad>
          </ns3:TrackPointExtension>
        </extensions>
      </trkpt>
      <trkpt lat="45.3584492392838001251220703125" lon="-70.8100781030952930450439453125">
        <ele>571.4000244140625</ele>
        <time>2026-08-21T10:55:15.000Z</time>
        <extensions>
          <ns3:TrackPointExtension>
            <ns3:hr>128</ns3:hr>
            <ns3:cad>50</ns3:cad>
          </ns3:TrackPointExtension>
        </extensions>
      </trkpt>
      <trkpt lat="45.358437336981296539306640625" lon="-70.8100791089236736297607421875">
        <ele>571.79998779296875</ele>
        <time>2026-08-21T10:55:16.000Z</time>
        <extensions>
          <ns3:TrackPointExtension>
            <ns3:hr>128</ns3:hr>
            <ns3:cad>50</ns3:cad>
          </ns3:TrackPointExtension>
        </extensions>
      </trkpt>
      <trkpt lat="45.35842962563037872314453125" lon="-70.810076929628849029541015625">
        <ele>572</ele>
        <time>2026-08-21T10:55:17.000Z</time>
        <extensions>
          <ns3:TrackPointExtension>
            <ns3:hr>128</ns3:hr>
            <ns3:cad>50</ns3:cad>
          </ns3:TrackPointExtension>
        </extensions>
      </trkpt>
      <trkpt lat="45.358423925936222076416015625" lon="-70.81007416360080242156982421875">
        <ele>572.20001220703125</ele>
        <time>2026-08-21T10:55:18.000Z</time>
        <extensions>
          <ns3:TrackPointExtension>
            <ns3:hr>128</ns3:hr>
            <ns3:cad>50</ns3:cad>
          </ns3:TrackPointExtension>
        </extensions>
      </trkpt>
      <trkpt lat="45.35841998644173145294189453125" lon="-70.81007324159145355224609375">
        <ele>572.4000244140625</ele>
        <time>2026-08-21T10:55:19.000Z</time>
        <extensions>
          <ns3:TrackPointExtension>
            <ns3:hr>128</ns3:hr>
            <ns3:cad>50</ns3:cad>
          </ns3:TrackPointExtension>
        </extensions>
      </trkpt>
      <trkpt lat="45.358411855995655059814453125" lon="-70.810068212449550628662109375">
        <ele>572.5999755859375</ele>
        <time>2026-08-21T10:55:20.000Z</time>
        <extensions>
          <ns3:TrackPointExtension>
            <ns3:hr>128</ns3:hr>
            <ns3:cad>49</ns3:cad>
          </ns3:TrackPointExtension>
        </extensions>
      </trkpt>
      <trkpt lat="45.35840758122503757476806640625" lon="-70.81006628461182117462158203125">
        <ele>573</ele>
        <time>2026-08-21T10:55:21.000Z</time>
        <extensions>
          <ns3:TrackPointExtension>
            <ns3:hr>128</ns3:hr>
            <ns3:cad>48</ns3:cad>
          </ns3:TrackPointExtension>
        </extensions>
      </trkpt>
      <trkpt lat="45.35840406082570552825927734375" lon="-70.8100626803934574127197265625">
        <ele>573.20001220703125</ele>
        <time>2026-08-21T10:55:22.000Z</time>
        <extensions>
          <ns3:TrackPointExtension>
            <ns3:hr>128</ns3:hr>
            <ns3:cad>47</ns3:cad>
          </ns3:TrackPointExtension>
        </extensions>
      </trkpt>
      <trkpt lat="45.35839651711285114288330078125" lon="-70.81005739979445934295654296875">
        <ele>573.5999755859375</ele>
        <time>2026-08-21T10:55:23.000Z</time>
        <extensions>
          <ns3:TrackPointExtension>
            <ns3:hr>128</ns3:hr>
            <ns3:cad>47</ns3:cad>
          </ns3:TrackPointExtension>
        </extensions>
      </trkpt>
      <trkpt lat="45.35838964395225048065185546875" lon="-70.81005488522350788116455078125">
        <ele>574</ele>
        <time>2026-08-21T10:55:24.000Z</time>
        <extensions>
          <ns3:TrackPointExtension>
            <ns3:hr>127</ns3:hr>
            <ns3:cad>47</ns3:cad>
          </ns3:TrackPointExtension>
        </extensions>
      </trkpt>
      <trkpt lat="45.3583811782300472259521484375" lon="-70.81005354411900043487548828125">
        <ele>574.20001220703125</ele>
        <time>2026-08-21T10:55:25.000Z</time>
        <extensions>
          <ns3:TrackPointExtension>
            <ns3:hr>127</ns3:hr>
            <ns3:cad>47</ns3:cad>
          </ns3:TrackPointExtension>
        </extensions>
      </trkpt>
      <trkpt lat="45.35837740637362003326416015625" lon="-70.81005002371966838836669921875">
        <ele>574.5999755859375</ele>
        <time>2026-08-21T10:55:26.000Z</time>
        <extensions>
          <ns3:TrackPointExtension>
            <ns3:hr>127</ns3:hr>
            <ns3:cad>47</ns3:cad>
          </ns3:TrackPointExtension>
        </extensions>
      </trkpt>
      <trkpt lat="45.35837204195559024810791015625" lon="-70.8100469224154949188232421875">
        <ele>575</ele>
        <time>2026-08-21T10:55:27.000Z</time>
        <extensions>
          <ns3:TrackPointExtension>
            <ns3:hr>127</ns3:hr>
            <ns3:cad>45</ns3:cad>
          </ns3:TrackPointExtension>
        </extensions>
      </trkpt>
      <trkpt lat="45.35836332477629184722900390625" lon="-70.81004147417843341827392578125">
        <ele>575.20001220703125</ele>
        <time>2026-08-21T10:55:28.000Z</time>
        <extensions>
          <ns3:TrackPointExtension>
            <ns3:hr>128</ns3:hr>
            <ns3:cad>45</ns3:cad>
          </ns3:TrackPointExtension>
        </extensions>
      </trkpt>
      <trkpt lat="45.35835058428347110748291015625" lon="-70.81003895960748195648193359375">
        <ele>575.5999755859375</ele>
        <time>2026-08-21T10:55:29.000Z</time>
        <extensions>
          <ns3:TrackPointExtension>
            <ns3:hr>128</ns3:hr>
            <ns3:cad>45</ns3:cad>
          </ns3:TrackPointExtension>
        </extensions>
      </trkpt>
      <trkpt lat="45.3583372570574283599853515625" lon="-70.81003577448427677154541015625">
        <ele>575.79998779296875</ele>
        <time>2026-08-21T10:55:30.000Z</time>
        <extensions>
          <ns3:TrackPointExtension>
            <ns3:hr>128</ns3:hr>
            <ns3:cad>47</ns3:cad>
          </ns3:TrackPointExtension>
        </extensions>
      </trkpt>
      <trkpt lat="45.358326025307178497314453125" lon="-70.8100325055420398712158203125">
        <ele>576.20001220703125</ele>
        <time>2026-08-21T10:55:31.000Z</time>
        <extensions>
          <ns3:TrackPointExtension>
            <ns3:hr>129</ns3:hr>
            <ns3:cad>47</ns3:cad>
          </ns3:TrackPointExtension>
        </extensions>
      </trkpt>
      <trkpt lat="45.35831303335726261138916015625" lon="-70.81002403981983661651611328125">
        <ele>576.4000244140625</ele>
        <time>2026-08-21T10:55:32.000Z</time>
        <extensions>
          <ns3:TrackPointExtension>
            <ns3:hr>129</ns3:hr>
            <ns3:cad>47</ns3:cad>
          </ns3:TrackPointExtension>
        </extensions>
      </trkpt>
      <trkpt lat="45.35830624401569366455078125" lon="-70.81001917831599712371826171875">
        <ele>576.79998779296875</ele>
        <time>2026-08-21T10:55:33.000Z</time>
        <extensions>
          <ns3:TrackPointExtension>
            <ns3:hr>130</ns3:hr>
            <ns3:cad>47</ns3:cad>
          </ns3:TrackPointExtension>
        </extensions>
      </trkpt>
      <trkpt lat="45.3582976944744586944580078125" lon="-70.81001599319279193878173828125">
        <ele>577</ele>
        <time>2026-08-21T10:55:34.000Z</time>
        <extensions>
          <ns3:TrackPointExtension>
            <ns3:hr>131</ns3:hr>
            <ns3:cad>47</ns3:cad>
          </ns3:TrackPointExtension>
        </extensions>
      </trkpt>
      <trkpt lat="45.35828788764774799346923828125" lon="-70.81000979058444499969482421875">
        <ele>577.4000244140625</ele>
        <time>2026-08-21T10:55:35.000Z</time>
        <extensions>
          <ns3:TrackPointExtension>
            <ns3:hr>132</ns3:hr>
            <ns3:cad>47</ns3:cad>
          </ns3:TrackPointExtension>
        </extensions>
      </trkpt>
      <trkpt lat="45.35828067921102046966552734375" lon="-70.81000610254704952239990234375">
        <ele>577.5999755859375</ele>
        <time>2026-08-21T10:55:36.000Z</time>
        <extensions>
          <ns3:TrackPointExtension>
            <ns3:hr>133</ns3:hr>
            <ns3:cad>47</ns3:cad>
          </ns3:TrackPointExtension>
        </extensions>
      </trkpt>
      <trkpt lat="45.358274392783641815185546875" lon="-70.809999145567417144775390625">
        <ele>577.79998779296875</ele>
        <time>2026-08-21T10:55:37.000Z</time>
        <extensions>
          <ns3:TrackPointExtension>
            <ns3:hr>133</ns3:hr>
            <ns3:cad>45</ns3:cad>
          </ns3:TrackPointExtension>
        </extensions>
      </trkpt>
      <trkpt lat="45.358266346156597137451171875" lon="-70.80999721772968769073486328125">
        <ele>578.20001220703125</ele>
        <time>2026-08-21T10:55:38.000Z</time>
        <extensions>
          <ns3:TrackPointExtension>
            <ns3:hr>133</ns3:hr>
            <ns3:cad>45</ns3:cad>
          </ns3:TrackPointExtension>
        </extensions>
      </trkpt>
      <trkpt lat="45.358257293701171875" lon="-70.80998883582651615142822265625">
        <ele>578.4000244140625</ele>
        <time>2026-08-21T10:55:39.000Z</time>
        <extensions>
          <ns3:TrackPointExtension>
            <ns3:hr>134</ns3:hr>
            <ns3:cad>46</ns3:cad>
          </ns3:TrackPointExtension>
        </extensions>
      </trkpt>
      <trkpt lat="45.35824849270284175872802734375" lon="-70.80998062156140804290771484375">
        <ele>578.5999755859375</ele>
        <time>2026-08-21T10:55:40.000Z</time>
        <extensions>
          <ns3:TrackPointExtension>
            <ns3:hr>134</ns3:hr>
            <ns3:cad>46</ns3:cad>
          </ns3:TrackPointExtension>
        </extensions>
      </trkpt>
      <trkpt lat="45.35823860205709934234619140625" lon="-70.80997131764888763427734375">
        <ele>578.79998779296875</ele>
        <time>2026-08-21T10:55:41.000Z</time>
        <extensions>
          <ns3:TrackPointExtension>
            <ns3:hr>134</ns3:hr>
            <ns3:cad>46</ns3:cad>
          </ns3:TrackPointExtension>
        </extensions>
      </trkpt>
      <trkpt lat="45.3582303039729595184326171875" lon="-70.8099667914211750030517578125">
        <ele>579.20001220703125</ele>
        <time>2026-08-21T10:55:42.000Z</time>
        <extensions>
          <ns3:TrackPointExtension>
            <ns3:hr>135</ns3:hr>
            <ns3:cad>46</ns3:cad>
          </ns3:TrackPointExtension>
        </extensions>
      </trkpt>
      <trkpt lat="45.35822250880300998687744140625" lon="-70.809963606297969818115234375">
        <ele>579.4000244140625</ele>
        <time>2026-08-21T10:55:43.000Z</time>
        <extensions>
          <ns3:TrackPointExtension>
            <ns3:hr>136</ns3:hr>
            <ns3:cad>46</ns3:cad>
          </ns3:TrackPointExtension>
        </extensions>
      </trkpt>
      <trkpt lat="45.3582076728343963623046875" lon="-70.80996419303119182586669921875">
        <ele>579.5999755859375</ele>
        <time>2026-08-21T10:55:44.000Z</time>
        <extensions>
          <ns3:TrackPointExtension>
            <ns3:hr>137</ns3:hr>
            <ns3:cad>47</ns3:cad>
          </ns3:TrackPointExtension>
        </extensions>
      </trkpt>
      <trkpt lat="45.35819836892187595367431640625" lon="-70.8099641092121601104736328125">
        <ele>579.79998779296875</ele>
        <time>2026-08-21T10:55:45.000Z</time>
        <extensions>
          <ns3:TrackPointExtension>
            <ns3:hr>138</ns3:hr>
            <ns3:cad>47</ns3:cad>
          </ns3:TrackPointExtension>
        </extensions>
      </trkpt>
      <trkpt lat="45.35818596370518207550048828125" lon="-70.8099610917270183563232421875">
        <ele>580</ele>
        <time>2026-08-21T10:55:46.000Z</time>
        <extensions>
          <ns3:TrackPointExtension>
            <ns3:hr>138</ns3:hr>
            <ns3:cad>47</ns3:cad>
          </ns3:TrackPointExtension>
        </extensions>
      </trkpt>
      <trkpt lat="45.35817875526845455169677734375" lon="-70.8099634386599063873291015625">
        <ele>580.20001220703125</ele>
        <time>2026-08-21T10:55:47.000Z</time>
        <extensions>
          <ns3:TrackPointExtension>
            <ns3:hr>138</ns3:hr>
            <ns3:cad>47</ns3:cad>
          </ns3:TrackPointExtension>
        </extensions>
      </trkpt>
      <trkpt lat="45.35816903226077556610107421875" lon="-70.80996117554605007171630859375">
        <ele>580.4000244140625</ele>
        <time>2026-08-21T10:55:48.000Z</time>
        <extensions>
          <ns3:TrackPointExtension>
            <ns3:hr>139</ns3:hr>
            <ns3:cad>47</ns3:cad>
          </ns3:TrackPointExtension>
        </extensions>
      </trkpt>
      <trkpt lat="45.35815813578665256500244140625" lon="-70.80995790660381317138671875">
        <ele>580.5999755859375</ele>
        <time>2026-08-21T10:55:49.000Z</time>
        <extensions>
          <ns3:TrackPointExtension>
            <ns3:hr>139</ns3:hr>
            <ns3:cad>47</ns3:cad>
          </ns3:TrackPointExtension>
        </extensions>
      </trkpt>
      <trkpt lat="45.35814908333122730255126953125" lon="-70.80995790660381317138671875">
        <ele>580.79998779296875</ele>
        <time>2026-08-21T10:55:50.000Z</time>
        <extensions>
          <ns3:TrackPointExtension>
            <ns3:hr>138</ns3:hr>
            <ns3:cad>47</ns3:cad>
          </ns3:TrackPointExtension>
        </extensions>
      </trkpt>
      <trkpt lat="45.35813969559967517852783203125" lon="-70.8099567331373691558837890625">
        <ele>581</ele>
        <time>2026-08-21T10:55:51.000Z</time>
        <extensions>
          <ns3:TrackPointExtension>
            <ns3:hr>139</ns3:hr>
            <ns3:cad>45</ns3:cad>
          </ns3:TrackPointExtension>
        </extensions>
      </trkpt>
      <trkpt lat="45.3581330738961696624755859375" lon="-70.8099550567567348480224609375">
        <ele>581.20001220703125</ele>
        <time>2026-08-21T10:55:52.000Z</time>
        <extensions>
          <ns3:TrackPointExtension>
            <ns3:hr>139</ns3:hr>
            <ns3:cad>45</ns3:cad>
          </ns3:TrackPointExtension>
        </extensions>
      </trkpt>
      <trkpt lat="45.358126200735569000244140625" lon="-70.80995564348995685577392578125">
        <ele>581.4000244140625</ele>
        <time>2026-08-21T10:55:53.000Z</time>
        <extensions>
          <ns3:TrackPointExtension>
            <ns3:hr>139</ns3:hr>
            <ns3:cad>45</ns3:cad>
          </ns3:TrackPointExtension>
        </extensions>
      </trkpt>
      <trkpt lat="45.35811723209917545318603515625" lon="-70.8099584095180034637451171875">
        <ele>581.5999755859375</ele>
        <time>2026-08-21T10:55:54.000Z</time>
        <extensions>
          <ns3:TrackPointExtension>
            <ns3:hr>139</ns3:hr>
            <ns3:cad>44</ns3:cad>
          </ns3:TrackPointExtension>
        </extensions>
      </trkpt>
      <trkpt lat="45.35810700617730617523193359375" lon="-70.80996620468795299530029296875">
        <ele>581.79998779296875</ele>
        <time>2026-08-21T10:55:55.000Z</time>
        <extensions>
          <ns3:TrackPointExtension>
            <ns3:hr>139</ns3:hr>
            <ns3:cad>44</ns3:cad>
          </ns3:TrackPointExtension>
        </extensions>
      </trkpt>
      <trkpt lat="45.35810281522572040557861328125" lon="-70.80997659824788570404052734375">
        <ele>582</ele>
        <time>2026-08-21T10:55:56.000Z</time>
        <extensions>
          <ns3:TrackPointExtension>
            <ns3:hr>142</ns3:hr>
            <ns3:cad>40</ns3:cad>
          </ns3:TrackPointExtension>
        </extensions>
      </trkpt>
      <trkpt lat="45.3580978699028491973876953125" lon="-70.8099852316081523895263671875">
        <ele>582.20001220703125</ele>
        <time>2026-08-21T10:55:57.000Z</time>
        <extensions>
          <ns3:TrackPointExtension>
            <ns3:hr>143</ns3:hr>
            <ns3:cad>40</ns3:cad>
          </ns3:TrackPointExtension>
        </extensions>
      </trkpt>
      <trkpt lat="45.35809376277029514312744140625" lon="-70.8099962957203388214111328125">
        <ele>582.4000244140625</ele>
        <time>2026-08-21T10:55:58.000Z</time>
        <extensions>
          <ns3:TrackPointExtension>
            <ns3:hr>144</ns3:hr>
            <ns3:cad>40</ns3:cad>
          </ns3:TrackPointExtension>
        </extensions>
      </trkpt>
      <trkpt lat="45.358088649809360504150390625" lon="-70.81000140868127346038818359375">
        <ele>582.5999755859375</ele>
        <time>2026-08-21T10:55:59.000Z</time>
        <extensions>
          <ns3:TrackPointExtension>
            <ns3:hr>144</ns3:hr>
            <ns3:cad>40</ns3:cad>
          </ns3:TrackPointExtension>
        </extensions>
      </trkpt>
      <trkpt lat="45.35808001644909381866455078125" lon="-70.810009203851222991943359375">
        <ele>582.5999755859375</ele>
        <time>2026-08-21T10:56:00.000Z</time>
        <extensions>
          <ns3:TrackPointExtension>
            <ns3:hr>144</ns3:hr>
            <ns3:cad>40</ns3:cad>
          </ns3:TrackPointExtension>
        </extensions>
      </trkpt>
      <trkpt lat="45.358072556555271148681640625" lon="-70.81001079641282558441162109375">
        <ele>582.79998779296875</ele>
        <time>2026-08-21T10:56:01.000Z</time>
        <extensions>
          <ns3:TrackPointExtension>
            <ns3:hr>143</ns3:hr>
            <ns3:cad>44</ns3:cad>
          </ns3:TrackPointExtension>
        </extensions>
      </trkpt>
      <trkpt lat="45.3580599837005138397216796875" lon="-70.81002169288694858551025390625">
        <ele>583</ele>
        <time>2026-08-21T10:56:02.000Z</time>
        <extensions>
          <ns3:TrackPointExtension>
            <ns3:hr>144</ns3:hr>
            <ns3:cad>44</ns3:cad>
          </ns3:TrackPointExtension>
        </extensions>
      </trkpt>
      <trkpt lat="45.35805185325443744659423828125" lon="-70.8100298233330249786376953125">
        <ele>583.20001220703125</ele>
        <time>2026-08-21T10:56:03.000Z</time>
        <extensions>
          <ns3:TrackPointExtension>
            <ns3:hr>144</ns3:hr>
            <ns3:cad>44</ns3:cad>
          </ns3:TrackPointExtension>
        </extensions>
      </trkpt>
      <trkpt lat="45.3580459021031856536865234375" lon="-70.81004264764487743377685546875">
        <ele>583.4000244140625</ele>
        <time>2026-08-21T10:56:04.000Z</time>
        <extensions>
          <ns3:TrackPointExtension>
            <ns3:hr>144</ns3:hr>
            <ns3:cad>44</ns3:cad>
          </ns3:TrackPointExtension>
        </extensions>
      </trkpt>
      <trkpt lat="45.35804070532321929931640625" lon="-70.810056813061237335205078125">
        <ele>583.79998779296875</ele>
        <time>2026-08-21T10:56:05.000Z</time>
        <extensions>
          <ns3:TrackPointExtension>
            <ns3:hr>143</ns3:hr>
            <ns3:cad>44</ns3:cad>
          </ns3:TrackPointExtension>
        </extensions>
      </trkpt>
      <trkpt lat="45.35803559236228466033935546875" lon="-70.81007190048694610595703125">
        <ele>584</ele>
        <time>2026-08-21T10:56:06.000Z</time>
        <extensions>
          <ns3:TrackPointExtension>
            <ns3:hr>144</ns3:hr>
            <ns3:cad>44</ns3:cad>
          </ns3:TrackPointExtension>
        </extensions>
      </trkpt>
      <trkpt lat="45.35802301950752735137939453125" lon="-70.81008187495172023773193359375">
        <ele>584</ele>
        <time>2026-08-21T10:56:07.000Z</time>
        <extensions>
          <ns3:TrackPointExtension>
            <ns3:hr>144</ns3:hr>
            <ns3:cad>44</ns3:cad>
          </ns3:TrackPointExtension>
        </extensions>
      </trkpt>
      <trkpt lat="45.3580133803188800811767578125" lon="-70.81009143032133579254150390625">
        <ele>584.20001220703125</ele>
        <time>2026-08-21T10:56:08.000Z</time>
        <extensions>
          <ns3:TrackPointExtension>
            <ns3:hr>144</ns3:hr>
            <ns3:cad>0</ns3:cad>
          </ns3:TrackPointExtension>
        </extensions>
      </trkpt>
      <trkpt lat="45.35800826735794544219970703125" lon="-70.81009964458644390106201171875">
        <ele>584.4000244140625</ele>
        <time>2026-08-21T10:56:09.000Z</time>
        <extensions>
          <ns3:TrackPointExtension>
            <ns3:hr>145</ns3:hr>
            <ns3:cad>0</ns3:cad>
          </ns3:TrackPointExtension>
        </extensions>
      </trkpt>
      <trkpt lat="45.35800759680569171905517578125" lon="-70.810109116137027740478515625">
        <ele>584.5999755859375</ele>
        <time>2026-08-21T10:56:10.000Z</time>
        <extensions>
          <ns3:TrackPointExtension>
            <ns3:hr>145</ns3:hr>
            <ns3:cad>0</ns3:cad>
          </ns3:TrackPointExtension>
        </extensions>
      </trkpt>
      <trkpt lat="45.35801522433757781982421875" lon="-70.810114480555057525634765625">
        <ele>584.79998779296875</ele>
        <time>2026-08-21T10:56:11.000Z</time>
        <extensions>
          <ns3:TrackPointExtension>
            <ns3:hr>145</ns3:hr>
            <ns3:cad>0</ns3:cad>
          </ns3:TrackPointExtension>
        </extensions>
      </trkpt>
      <trkpt lat="45.3580140508711338043212890625" lon="-70.8101233653724193572998046875">
        <ele>585</ele>
        <time>2026-08-21T10:56:12.000Z</time>
        <extensions>
          <ns3:TrackPointExtension>
            <ns3:hr>144</ns3:hr>
            <ns3:cad>0</ns3:cad>
          </ns3:TrackPointExtension>
        </extensions>
      </trkpt>
      <trkpt lat="45.35800826735794544219970703125" lon="-70.81013434566557407379150390625">
        <ele>585.20001220703125</ele>
        <time>2026-08-21T10:56:13.000Z</time>
        <extensions>
          <ns3:TrackPointExtension>
            <ns3:hr>144</ns3:hr>
            <ns3:cad>0</ns3:cad>
          </ns3:TrackPointExtension>
        </extensions>
      </trkpt>
      <trkpt lat="45.35800156183540821075439453125" lon="-70.8101503551006317138671875">
        <ele>585.5999755859375</ele>
        <time>2026-08-21T10:56:14.000Z</time>
        <extensions>
          <ns3:TrackPointExtension>
            <ns3:hr>144</ns3:hr>
            <ns3:cad>0</ns3:cad>
          </ns3:TrackPointExtension>
        </extensions>
      </trkpt>
      <trkpt lat="45.35799955017864704132080078125" lon="-70.81016242504119873046875">
        <ele>585.79998779296875</ele>
        <time>2026-08-21T10:56:15.000Z</time>
        <extensions>
          <ns3:TrackPointExtension>
            <ns3:hr>144</ns3:hr>
            <ns3:cad>0</ns3:cad>
          </ns3:TrackPointExtension>
        </extensions>
      </trkpt>
      <trkpt lat="45.35799602977931499481201171875" lon="-70.810178183019161224365234375">
        <ele>586</ele>
        <time>2026-08-21T10:56:16.000Z</time>
        <extensions>
          <ns3:TrackPointExtension>
            <ns3:hr>144</ns3:hr>
            <ns3:cad>0</ns3:cad>
          </ns3:TrackPointExtension>
        </extensions>
      </trkpt>
      <trkpt lat="45.35799418576061725616455078125" lon="-70.81017357297241687774658203125">
        <ele>586.20001220703125</ele>
        <time>2026-08-21T10:56:17.000Z</time>
        <extensions>
          <ns3:TrackPointExtension>
            <ns3:hr>145</ns3:hr>
            <ns3:cad>47</ns3:cad>
          </ns3:TrackPointExtension>
        </extensions>
      </trkpt>
      <trkpt lat="45.35799317993223667144775390625" lon="-70.81019503064453601837158203125">
        <ele>586.4000244140625</ele>
        <time>2026-08-21T10:56:18.000Z</time>
        <extensions>
          <ns3:TrackPointExtension>
            <ns3:hr>144</ns3:hr>
            <ns3:cad>43</ns3:cad>
          </ns3:TrackPointExtension>
        </extensions>
      </trkpt>
      <trkpt lat="45.35799535922706127166748046875" lon="-70.81020810641348361968994140625">
        <ele>586.79998779296875</ele>
        <time>2026-08-21T10:56:19.000Z</time>
        <extensions>
          <ns3:TrackPointExtension>
            <ns3:hr>144</ns3:hr>
            <ns3:cad>43</ns3:cad>
          </ns3:TrackPointExtension>
        </extensions>
      </trkpt>
      <trkpt lat="45.35799569450318813323974609375" lon="-70.81022218801081180572509765625">
        <ele>587</ele>
        <time>2026-08-21T10:56:20.000Z</time>
        <extensions>
          <ns3:TrackPointExtension>
            <ns3:hr>145</ns3:hr>
            <ns3:cad>43</ns3:cad>
          </ns3:TrackPointExtension>
        </extensions>
      </trkpt>
      <trkpt lat="45.35799334757030010223388671875" lon="-70.81023325212299823760986328125">
        <ele>587.20001220703125</ele>
        <time>2026-08-21T10:56:21.000Z</time>
        <extensions>
          <ns3:TrackPointExtension>
            <ns3:hr>146</ns3:hr>
            <ns3:cad>43</ns3:cad>
          </ns3:TrackPointExtension>
        </extensions>
      </trkpt>
      <trkpt lat="45.35798546858131885528564453125" lon="-70.81022922880947589874267578125">
        <ele>587.5999755859375</ele>
        <time>2026-08-21T10:56:22.000Z</time>
        <extensions>
          <ns3:TrackPointExtension>
            <ns3:hr>146</ns3:hr>
            <ns3:cad>43</ns3:cad>
          </ns3:TrackPointExtension>
        </extensions>
      </trkpt>
      <trkpt lat="45.35798479802906513214111328125" lon="-70.8102417178452014923095703125">
        <ele>587.79998779296875</ele>
        <time>2026-08-21T10:56:23.000Z</time>
        <extensions>
          <ns3:TrackPointExtension>
            <ns3:hr>146</ns3:hr>
            <ns3:cad>47</ns3:cad>
          </ns3:TrackPointExtension>
        </extensions>
      </trkpt>
      <trkpt lat="45.3579791821539402008056640625" lon="-70.81025160849094390869140625">
        <ele>588</ele>
        <time>2026-08-21T10:56:24.000Z</time>
        <extensions>
          <ns3:TrackPointExtension>
            <ns3:hr>145</ns3:hr>
            <ns3:cad>47</ns3:cad>
          </ns3:TrackPointExtension>
        </extensions>
      </trkpt>
      <trkpt lat="45.35797230899333953857421875" lon="-70.8102594874799251556396484375">
        <ele>588.20001220703125</ele>
        <time>2026-08-21T10:56:25.000Z</time>
        <extensions>
          <ns3:TrackPointExtension>
            <ns3:hr>145</ns3:hr>
            <ns3:cad>43</ns3:cad>
          </ns3:TrackPointExtension>
        </extensions>
      </trkpt>
      <trkpt lat="45.357965268194675445556640625" lon="-70.8102668635547161102294921875">
        <ele>588.4000244140625</ele>
        <time>2026-08-21T10:56:26.000Z</time>
        <extensions>
          <ns3:TrackPointExtension>
            <ns3:hr>145</ns3:hr>
            <ns3:cad>43</ns3:cad>
          </ns3:TrackPointExtension>
        </extensions>
      </trkpt>
      <trkpt lat="45.3579609096050262451171875" lon="-70.81027507781982421875">
        <ele>588.79998779296875</ele>
        <time>2026-08-21T10:56:27.000Z</time>
        <extensions>
          <ns3:TrackPointExtension>
            <ns3:hr>145</ns3:hr>
            <ns3:cad>43</ns3:cad>
          </ns3:TrackPointExtension>
        </extensions>
      </trkpt>
      <trkpt lat="45.357952527701854705810546875" lon="-70.8102859742939472198486328125">
        <ele>589</ele>
        <time>2026-08-21T10:56:28.000Z</time>
        <extensions>
          <ns3:TrackPointExtension>
            <ns3:hr>145</ns3:hr>
            <ns3:cad>43</ns3:cad>
          </ns3:TrackPointExtension>
        </extensions>
      </trkpt>
      <trkpt lat="45.35794573836028575897216796875" lon="-70.81028874032199382781982421875">
        <ele>589.20001220703125</ele>
        <time>2026-08-21T10:56:29.000Z</time>
        <extensions>
          <ns3:TrackPointExtension>
            <ns3:hr>144</ns3:hr>
            <ns3:cad>41</ns3:cad>
          </ns3:TrackPointExtension>
        </extensions>
      </trkpt>
      <trkpt lat="45.35794137977063655853271484375" lon="-70.8102956973016262054443359375">
        <ele>589.4000244140625</ele>
        <time>2026-08-21T10:56:30.000Z</time>
        <extensions>
          <ns3:TrackPointExtension>
            <ns3:hr>144</ns3:hr>
            <ns3:cad>0</ns3:cad>
          </ns3:TrackPointExtension>
        </extensions>
      </trkpt>
      <trkpt lat="45.35793500952422618865966796875" lon="-70.810298211872577667236328125">
        <ele>589.5999755859375</ele>
        <time>2026-08-21T10:56:31.000Z</time>
        <extensions>
          <ns3:TrackPointExtension>
            <ns3:hr>144</ns3:hr>
            <ns3:cad>0</ns3:cad>
          </ns3:TrackPointExtension>
        </extensions>
      </trkpt>
      <trkpt lat="45.35793165676295757293701171875" lon="-70.8102978765964508056640625">
        <ele>590</ele>
        <time>2026-08-21T10:56:32.000Z</time>
        <extensions>
          <ns3:TrackPointExtension>
            <ns3:hr>145</ns3:hr>
            <ns3:cad>19</ns3:cad>
          </ns3:TrackPointExtension>
        </extensions>
      </trkpt>
      <trkpt lat="45.35793014802038669586181640625" lon="-70.810301564633846282958984375">
        <ele>590.20001220703125</ele>
        <time>2026-08-21T10:56:33.000Z</time>
        <extensions>
          <ns3:TrackPointExtension>
            <ns3:hr>144</ns3:hr>
            <ns3:cad>19</ns3:cad>
          </ns3:TrackPointExtension>
        </extensions>
      </trkpt>
      <trkpt lat="45.35792813636362552642822265625" lon="-70.81030935980379581451416015625">
        <ele>590.4000244140625</ele>
        <time>2026-08-21T10:56:34.000Z</time>
        <extensions>
          <ns3:TrackPointExtension>
            <ns3:hr>144</ns3:hr>
            <ns3:cad>19</ns3:cad>
          </ns3:TrackPointExtension>
        </extensions>
      </trkpt>
      <trkpt lat="45.35792461596429347991943359375" lon="-70.8103154785931110382080078125">
        <ele>590.5999755859375</ele>
        <time>2026-08-21T10:56:35.000Z</time>
        <extensions>
          <ns3:TrackPointExtension>
            <ns3:hr>144</ns3:hr>
            <ns3:cad>19</ns3:cad>
          </ns3:TrackPointExtension>
        </extensions>
      </trkpt>
      <trkpt lat="45.35792193375527858734130859375" lon="-70.8103201724588871002197265625">
        <ele>590.79998779296875</ele>
        <time>2026-08-21T10:56:36.000Z</time>
        <extensions>
          <ns3:TrackPointExtension>
            <ns3:hr>144</ns3:hr>
            <ns3:cad>19</ns3:cad>
          </ns3:TrackPointExtension>
        </extensions>
      </trkpt>
      <trkpt lat="45.3579168207943439483642578125" lon="-70.810335762798786163330078125">
        <ele>591</ele>
        <time>2026-08-21T10:56:37.000Z</time>
        <extensions>
          <ns3:TrackPointExtension>
            <ns3:hr>145</ns3:hr>
            <ns3:cad>42</ns3:cad>
          </ns3:TrackPointExtension>
        </extensions>
      </trkpt>
      <trkpt lat="45.35791388712823390960693359375" lon="-70.81033601425588130950927734375">
        <ele>591.4000244140625</ele>
        <time>2026-08-21T10:56:38.000Z</time>
        <extensions>
          <ns3:TrackPointExtension>
            <ns3:hr>144</ns3:hr>
            <ns3:cad>42</ns3:cad>
          </ns3:TrackPointExtension>
        </extensions>
      </trkpt>
      <trkpt lat="45.35791003145277500152587890625" lon="-70.81033903174102306365966796875">
        <ele>591.5999755859375</ele>
        <time>2026-08-21T10:56:39.000Z</time>
        <extensions>
          <ns3:TrackPointExtension>
            <ns3:hr>145</ns3:hr>
            <ns3:cad>44</ns3:cad>
          </ns3:TrackPointExtension>
        </extensions>
      </trkpt>
      <trkpt lat="45.35789947025477886199951171875" lon="-70.81033903174102306365966796875">
        <ele>591.79998779296875</ele>
        <time>2026-08-21T10:56:40.000Z</time>
        <extensions>
          <ns3:TrackPointExtension>
            <ns3:hr>145</ns3:hr>
            <ns3:cad>44</ns3:cad>
          </ns3:TrackPointExtension>
        </extensions>
      </trkpt>
      <trkpt lat="45.3578899987041950225830078125" lon="-70.8103386126458644866943359375">
        <ele>591.79998779296875</ele>
        <time>2026-08-21T10:56:41.000Z</time>
        <extensions>
          <ns3:TrackPointExtension>
            <ns3:hr>146</ns3:hr>
            <ns3:cad>0</ns3:cad>
          </ns3:TrackPointExtension>
        </extensions>
      </trkpt>
      <trkpt lat="45.3578853048384189605712890625" lon="-70.81033475697040557861328125">
        <ele>592</ele>
        <time>2026-08-21T10:56:42.000Z</time>
        <extensions>
          <ns3:TrackPointExtension>
            <ns3:hr>146</ns3:hr>
            <ns3:cad>0</ns3:cad>
          </ns3:TrackPointExtension>
        </extensions>
      </trkpt>
      <trkpt lat="45.3578856401145458221435546875" lon="-70.81033634953200817108154296875">
        <ele>592.20001220703125</ele>
        <time>2026-08-21T10:56:43.000Z</time>
        <extensions>
          <ns3:TrackPointExtension>
            <ns3:hr>146</ns3:hr>
            <ns3:cad>0</ns3:cad>
          </ns3:TrackPointExtension>
        </extensions>
      </trkpt>
      <trkpt lat="45.35787851549685001373291015625" lon="-70.81033752299845218658447265625">
        <ele>592.4000244140625</ele>
        <time>2026-08-21T10:56:44.000Z</time>
        <extensions>
          <ns3:TrackPointExtension>
            <ns3:hr>146</ns3:hr>
            <ns3:cad>0</ns3:cad>
          </ns3:TrackPointExtension>
        </extensions>
      </trkpt>
      <trkpt lat="45.35787172615528106689453125" lon="-70.8103382773697376251220703125">
        <ele>592.79998779296875</ele>
        <time>2026-08-21T10:56:45.000Z</time>
        <extensions>
          <ns3:TrackPointExtension>
            <ns3:hr>146</ns3:hr>
            <ns3:cad>0</ns3:cad>
          </ns3:TrackPointExtension>
        </extensions>
      </trkpt>
      <trkpt lat="45.35786225460469722747802734375" lon="-70.8103372715413570404052734375">
        <ele>593</ele>
        <time>2026-08-21T10:56:46.000Z</time>
        <extensions>
          <ns3:TrackPointExtension>
            <ns3:hr>146</ns3:hr>
            <ns3:cad>0</ns3:cad>
          </ns3:TrackPointExtension>
        </extensions>
      </trkpt>
      <trkpt lat="45.35784934647381305694580078125" lon="-70.8103369362652301788330078125">
        <ele>593.4000244140625</ele>
        <time>2026-08-21T10:56:47.000Z</time>
        <extensions>
          <ns3:TrackPointExtension>
            <ns3:hr>146</ns3:hr>
            <ns3:cad>0</ns3:cad>
          </ns3:TrackPointExtension>
        </extensions>
      </trkpt>
      <trkpt lat="45.35783945582807064056396484375" lon="-70.810339786112308502197265625">
        <ele>593.5999755859375</ele>
        <time>2026-08-21T10:56:48.000Z</time>
        <extensions>
          <ns3:TrackPointExtension>
            <ns3:hr>146</ns3:hr>
            <ns3:cad>47</ns3:cad>
          </ns3:TrackPointExtension>
        </extensions>
      </trkpt>
      <trkpt lat="45.3578316606581211090087890625" lon="-70.81034238450229167938232421875">
        <ele>593.79998779296875</ele>
        <time>2026-08-21T10:56:49.000Z</time>
        <extensions>
          <ns3:TrackPointExtension>
            <ns3:hr>146</ns3:hr>
            <ns3:cad>46</ns3:cad>
          </ns3:TrackPointExtension>
        </extensions>
      </trkpt>
      <trkpt lat="45.35781984217464923858642578125" lon="-70.8103392831981182098388671875">
        <ele>594</ele>
        <time>2026-08-21T10:56:50.000Z</time>
        <extensions>
          <ns3:TrackPointExtension>
            <ns3:hr>146</ns3:hr>
            <ns3:cad>46</ns3:cad>
          </ns3:TrackPointExtension>
        </extensions>
      </trkpt>
      <trkpt lat="45.3578095324337482452392578125" lon="-70.81033986993134021759033203125">
        <ele>594</ele>
        <time>2026-08-21T10:56:51.000Z</time>
        <extensions>
          <ns3:TrackPointExtension>
            <ns3:hr>146</ns3:hr>
            <ns3:cad>46</ns3:cad>
          </ns3:TrackPointExtension>
        </extensions>
      </trkpt>
      <trkpt lat="45.35780542530119419097900390625" lon="-70.8103463239967823028564453125">
        <ele>594.20001220703125</ele>
        <time>2026-08-21T10:56:52.000Z</time>
        <extensions>
          <ns3:TrackPointExtension>
            <ns3:hr>146</ns3:hr>
            <ns3:cad>46</ns3:cad>
          </ns3:TrackPointExtension>
        </extensions>
      </trkpt>
      <trkpt lat="45.35779704339802265167236328125" lon="-70.8103577233850955963134765625">
        <ele>594.4000244140625</ele>
        <time>2026-08-21T10:56:53.000Z</time>
        <extensions>
          <ns3:TrackPointExtension>
            <ns3:hr>147</ns3:hr>
            <ns3:cad>46</ns3:cad>
          </ns3:TrackPointExtension>
        </extensions>
      </trkpt>
      <trkpt lat="45.357789583504199981689453125" lon="-70.8103697933256626129150390625">
        <ele>594.5999755859375</ele>
        <time>2026-08-21T10:56:54.000Z</time>
        <extensions>
          <ns3:TrackPointExtension>
            <ns3:hr>147</ns3:hr>
            <ns3:cad>46</ns3:cad>
          </ns3:TrackPointExtension>
        </extensions>
      </trkpt>
      <trkpt lat="45.357787571847438812255859375" lon="-70.8103711344301700592041015625">
        <ele>595</ele>
        <time>2026-08-21T10:56:55.000Z</time>
        <extensions>
          <ns3:TrackPointExtension>
            <ns3:hr>147</ns3:hr>
            <ns3:cad>46</ns3:cad>
          </ns3:TrackPointExtension>
        </extensions>
      </trkpt>
      <trkpt lat="45.35778530873358249664306640625" lon="-70.81037909723818302154541015625">
        <ele>595.20001220703125</ele>
        <time>2026-08-21T10:56:56.000Z</time>
        <extensions>
          <ns3:TrackPointExtension>
            <ns3:hr>148</ns3:hr>
            <ns3:cad>0</ns3:cad>
          </ns3:TrackPointExtension>
        </extensions>
      </trkpt>
      <trkpt lat="45.3577739931643009185791015625" lon="-70.810393430292606353759765625">
        <ele>595.4000244140625</ele>
        <time>2026-08-21T10:56:57.000Z</time>
        <extensions>
          <ns3:TrackPointExtension>
            <ns3:hr>148</ns3:hr>
            <ns3:cad>0</ns3:cad>
          </ns3:TrackPointExtension>
        </extensions>
      </trkpt>
      <trkpt lat="45.35776636563241481781005859375" lon="-70.810408852994441986083984375">
        <ele>595.5999755859375</ele>
        <time>2026-08-21T10:56:58.000Z</time>
        <extensions>
          <ns3:TrackPointExtension>
            <ns3:hr>148</ns3:hr>
            <ns3:cad>0</ns3:cad>
          </ns3:TrackPointExtension>
        </extensions>
      </trkpt>
      <trkpt lat="45.35776083357632160186767578125" lon="-70.81041396595537662506103515625">
        <ele>595.79998779296875</ele>
        <time>2026-08-21T10:56:59.000Z</time>
        <extensions>
          <ns3:TrackPointExtension>
            <ns3:hr>148</ns3:hr>
            <ns3:cad>0</ns3:cad>
          </ns3:TrackPointExtension>
        </extensions>
      </trkpt>
      <trkpt lat="45.357755720615386962890625" lon="-70.8104266226291656494140625">
        <ele>596</ele>
        <time>2026-08-21T10:57:00.000Z</time>
        <extensions>
          <ns3:TrackPointExtension>
            <ns3:hr>148</ns3:hr>
            <ns3:cad>40</ns3:cad>
          </ns3:TrackPointExtension>
        </extensions>
      </trkpt>
      <trkpt lat="45.35775412805378437042236328125" lon="-70.8104346692562103271484375">
        <ele>596</ele>
        <time>2026-08-21T10:57:01.000Z</time>
        <extensions>
          <ns3:TrackPointExtension>
            <ns3:hr>148</ns3:hr>
            <ns3:cad>40</ns3:cad>
          </ns3:TrackPointExtension>
        </extensions>
      </trkpt>
      <trkpt lat="45.3577498532831668853759765625" lon="-70.8104445599019527435302734375">
        <ele>596.20001220703125</ele>
        <time>2026-08-21T10:57:02.000Z</time>
        <extensions>
          <ns3:TrackPointExtension>
            <ns3:hr>148</ns3:hr>
            <ns3:cad>40</ns3:cad>
          </ns3:TrackPointExtension>
        </extensions>
      </trkpt>
      <trkpt lat="45.35774474032223224639892578125" lon="-70.81045654602348804473876953125">
        <ele>596.5999755859375</ele>
        <time>2026-08-21T10:57:03.000Z</time>
        <extensions>
          <ns3:TrackPointExtension>
            <ns3:hr>148</ns3:hr>
            <ns3:cad>0</ns3:cad>
          </ns3:TrackPointExtension>
        </extensions>
      </trkpt>
      <trkpt lat="45.3577424772083759307861328125" lon="-70.8104707114398479461669921875">
        <ele>596.79998779296875</ele>
        <time>2026-08-21T10:57:04.000Z</time>
        <extensions>
          <ns3:TrackPointExtension>
            <ns3:hr>148</ns3:hr>
            <ns3:cad>0</ns3:cad>
          </ns3:TrackPointExtension>
        </extensions>
      </trkpt>
      <trkpt lat="45.35773652605712413787841796875" lon="-70.81048303283751010894775390625">
        <ele>597</ele>
        <time>2026-08-21T10:57:05.000Z</time>
        <extensions>
          <ns3:TrackPointExtension>
            <ns3:hr>148</ns3:hr>
            <ns3:cad>43</ns3:cad>
          </ns3:TrackPointExtension>
        </extensions>
      </trkpt>
      <trkpt lat="45.35773132927715778350830078125" lon="-70.81049325875937938690185546875">
        <ele>597.20001220703125</ele>
        <time>2026-08-21T10:57:06.000Z</time>
        <extensions>
          <ns3:TrackPointExtension>
            <ns3:hr>148</ns3:hr>
            <ns3:cad>43</ns3:cad>
          </ns3:TrackPointExtension>
        </extensions>
      </trkpt>
      <trkpt lat="45.35772630013525485992431640625" lon="-70.81050767563283443450927734375">
        <ele>597.4000244140625</ele>
        <time>2026-08-21T10:57:07.000Z</time>
        <extensions>
          <ns3:TrackPointExtension>
            <ns3:hr>148</ns3:hr>
            <ns3:cad>43</ns3:cad>
          </ns3:TrackPointExtension>
        </extensions>
      </trkpt>
      <trkpt lat="45.35772697068750858306884765625" lon="-70.810518823564052581787109375">
        <ele>597.4000244140625</ele>
        <time>2026-08-21T10:57:08.000Z</time>
        <extensions>
          <ns3:TrackPointExtension>
            <ns3:hr>149</ns3:hr>
            <ns3:cad>43</ns3:cad>
          </ns3:TrackPointExtension>
        </extensions>
      </trkpt>
      <trkpt lat="45.357722528278827667236328125" lon="-70.81052896566689014434814453125">
        <ele>597.5999755859375</ele>
        <time>2026-08-21T10:57:09.000Z</time>
        <extensions>
          <ns3:TrackPointExtension>
            <ns3:hr>148</ns3:hr>
            <ns3:cad>43</ns3:cad>
          </ns3:TrackPointExtension>
        </extensions>
      </trkpt>
      <trkpt lat="45.357718504965305328369140625" lon="-70.8105427958071231842041015625">
        <ele>597.79998779296875</ele>
        <time>2026-08-21T10:57:10.000Z</time>
        <extensions>
          <ns3:TrackPointExtension>
            <ns3:hr>148</ns3:hr>
            <ns3:cad>43</ns3:cad>
          </ns3:TrackPointExtension>
        </extensions>
      </trkpt>
      <trkpt lat="45.357715152204036712646484375" lon="-70.81056484021246433258056640625">
        <ele>598</ele>
        <time>2026-08-21T10:57:11.000Z</time>
        <extensions>
          <ns3:TrackPointExtension>
            <ns3:hr>148</ns3:hr>
            <ns3:cad>43</ns3:cad>
          </ns3:TrackPointExtension>
        </extensions>
      </trkpt>
      <trkpt lat="45.357704423367977142333984375" lon="-70.810585208237171173095703125">
        <ele>598.20001220703125</ele>
        <time>2026-08-21T10:57:12.000Z</time>
        <extensions>
          <ns3:TrackPointExtension>
            <ns3:hr>149</ns3:hr>
            <ns3:cad>45</ns3:cad>
          </ns3:TrackPointExtension>
        </extensions>
      </trkpt>
      <trkpt lat="45.35770283080637454986572265625" lon="-70.81059836782515048980712890625">
        <ele>598.4000244140625</ele>
        <time>2026-08-21T10:57:13.000Z</time>
        <extensions>
          <ns3:TrackPointExtension>
            <ns3:hr>150</ns3:hr>
            <ns3:cad>45</ns3:cad>
          </ns3:TrackPointExtension>
        </extensions>
      </trkpt>
      <trkpt lat="45.35770132206380367279052734375" lon="-70.81061211414635181427001953125">
        <ele>598.4000244140625</ele>
        <time>2026-08-21T10:57:14.000Z</time>
        <extensions>
          <ns3:TrackPointExtension>
            <ns3:hr>150</ns3:hr>
            <ns3:cad>45</ns3:cad>
          </ns3:TrackPointExtension>
        </extensions>
      </trkpt>
      <trkpt lat="45.35769880749285221099853515625" lon="-70.81063105724751949310302734375">
        <ele>598.5999755859375</ele>
        <time>2026-08-21T10:57:15.000Z</time>
        <extensions>
          <ns3:TrackPointExtension>
            <ns3:hr>150</ns3:hr>
            <ns3:cad>46</ns3:cad>
          </ns3:TrackPointExtension>
        </extensions>
      </trkpt>
      <trkpt lat="45.35769327543675899505615234375" lon="-70.81064321100711822509765625">
        <ele>598.5999755859375</ele>
        <time>2026-08-21T10:57:16.000Z</time>
        <extensions>
          <ns3:TrackPointExtension>
            <ns3:hr>150</ns3:hr>
            <ns3:cad>46</ns3:cad>
          </ns3:TrackPointExtension>
        </extensions>
      </trkpt>
      <trkpt lat="45.35768975503742694854736328125" lon="-70.8106598071753978729248046875">
        <ele>598.79998779296875</ele>
        <time>2026-08-21T10:57:17.000Z</time>
        <extensions>
          <ns3:TrackPointExtension>
            <ns3:hr>150</ns3:hr>
            <ns3:cad>48</ns3:cad>
          </ns3:TrackPointExtension>
        </extensions>
      </trkpt>
      <trkpt lat="45.35768304951488971710205078125" lon="-70.8106836117804050445556640625">
        <ele>598.79998779296875</ele>
        <time>2026-08-21T10:57:18.000Z</time>
        <extensions>
          <ns3:TrackPointExtension>
            <ns3:hr>150</ns3:hr>
            <ns3:cad>48</ns3:cad>
          </ns3:TrackPointExtension>
        </extensions>
      </trkpt>
      <trkpt lat="45.35767651163041591644287109375" lon="-70.8107064105570316314697265625">
        <ele>599</ele>
        <time>2026-08-21T10:57:19.000Z</time>
        <extensions>
          <ns3:TrackPointExtension>
            <ns3:hr>150</ns3:hr>
            <ns3:cad>48</ns3:cad>
          </ns3:TrackPointExtension>
        </extensions>
      </trkpt>
      <trkpt lat="45.35767483524978160858154296875" lon="-70.81072594039142131805419921875">
        <ele>599.20001220703125</ele>
        <time>2026-08-21T10:57:20.000Z</time>
        <extensions>
          <ns3:TrackPointExtension>
            <ns3:hr>150</ns3:hr>
            <ns3:cad>49</ns3:cad>
          </ns3:TrackPointExtension>
        </extensions>
      </trkpt>
      <trkpt lat="45.35767332650721073150634765625" lon="-70.81074069254100322723388671875">
        <ele>599.20001220703125</ele>
        <time>2026-08-21T10:57:21.000Z</time>
        <extensions>
          <ns3:TrackPointExtension>
            <ns3:hr>149</ns3:hr>
            <ns3:cad>49</ns3:cad>
          </ns3:TrackPointExtension>
        </extensions>
      </trkpt>
      <trkpt lat="45.35767215304076671600341796875" lon="-70.81075896508991718292236328125">
        <ele>599.20001220703125</ele>
        <time>2026-08-21T10:57:22.000Z</time>
        <extensions>
          <ns3:TrackPointExtension>
            <ns3:hr>149</ns3:hr>
            <ns3:cad>50</ns3:cad>
          </ns3:TrackPointExtension>
        </extensions>
      </trkpt>
      <trkpt lat="45.35766787827014923095703125" lon="-70.8107793331146240234375">
        <ele>599.20001220703125</ele>
        <time>2026-08-21T10:57:23.000Z</time>
        <extensions>
          <ns3:TrackPointExtension>
            <ns3:hr>149</ns3:hr>
            <ns3:cad>50</ns3:cad>
          </ns3:TrackPointExtension>
        </extensions>
      </trkpt>
      <trkpt lat="45.3576670400798320770263671875" lon="-70.81079148687422275543212890625">
        <ele>599.20001220703125</ele>
        <time>2026-08-21T10:57:24.000Z</time>
        <extensions>
          <ns3:TrackPointExtension>
            <ns3:hr>148</ns3:hr>
            <ns3:cad>50</ns3:cad>
          </ns3:TrackPointExtension>
        </extensions>
      </trkpt>
      <trkpt lat="45.357666201889514923095703125" lon="-70.81080724485218524932861328125">
        <ele>599.20001220703125</ele>
        <time>2026-08-21T10:57:25.000Z</time>
        <extensions>
          <ns3:TrackPointExtension>
            <ns3:hr>148</ns3:hr>
            <ns3:cad>50</ns3:cad>
          </ns3:TrackPointExtension>
        </extensions>
      </trkpt>
      <trkpt lat="45.35766092129051685333251953125" lon="-70.8108224160969257354736328125">
        <ele>599.20001220703125</ele>
        <time>2026-08-21T10:57:26.000Z</time>
        <extensions>
          <ns3:TrackPointExtension>
            <ns3:hr>148</ns3:hr>
            <ns3:cad>50</ns3:cad>
          </ns3:TrackPointExtension>
        </extensions>
      </trkpt>
      <trkpt lat="45.35765723325312137603759765625" lon="-70.81083909608423709869384765625">
        <ele>599.20001220703125</ele>
        <time>2026-08-21T10:57:27.000Z</time>
        <extensions>
          <ns3:TrackPointExtension>
            <ns3:hr>147</ns3:hr>
            <ns3:cad>50</ns3:cad>
          </ns3:TrackPointExtension>
        </extensions>
      </trkpt>
      <trkpt lat="45.3576569817960262298583984375" lon="-70.81084999255836009979248046875">
        <ele>599.20001220703125</ele>
        <time>2026-08-21T10:57:28.000Z</time>
        <extensions>
          <ns3:TrackPointExtension>
            <ns3:hr>146</ns3:hr>
            <ns3:cad>50</ns3:cad>
          </ns3:TrackPointExtension>
        </extensions>
      </trkpt>
      <trkpt lat="45.35765706561505794525146484375" lon="-70.8108542673289775848388671875">
        <ele>599.4000244140625</ele>
        <time>2026-08-21T10:57:29.000Z</time>
        <extensions>
          <ns3:TrackPointExtension>
            <ns3:hr>146</ns3:hr>
            <ns3:cad>53</ns3:cad>
          </ns3:TrackPointExtension>
        </extensions>
      </trkpt>
      <trkpt lat="45.3576551377773284912109375" lon="-70.810860134661197662353515625">
        <ele>599.4000244140625</ele>
        <time>2026-08-21T10:57:30.000Z</time>
        <extensions>
          <ns3:TrackPointExtension>
            <ns3:hr>145</ns3:hr>
            <ns3:cad>53</ns3:cad>
          </ns3:TrackPointExtension>
        </extensions>
      </trkpt>
      <trkpt lat="45.35764801315963268280029296875" lon="-70.81087061204016208648681640625">
        <ele>599.5999755859375</ele>
        <time>2026-08-21T10:57:31.000Z</time>
        <extensions>
          <ns3:TrackPointExtension>
            <ns3:hr>144</ns3:hr>
            <ns3:cad>51</ns3:cad>
          </ns3:TrackPointExtension>
        </extensions>
      </trkpt>
      <trkpt lat="45.3576432354748249053955078125" lon="-70.81088192760944366455078125">
        <ele>599.79998779296875</ele>
        <time>2026-08-21T10:57:32.000Z</time>
        <extensions>
          <ns3:TrackPointExtension>
            <ns3:hr>144</ns3:hr>
            <ns3:cad>51</ns3:cad>
          </ns3:TrackPointExtension>
        </extensions>
      </trkpt>
      <trkpt lat="45.3576444089412689208984375" lon="-70.8108864538371562957763671875">
        <ele>600.20001220703125</ele>
        <time>2026-08-21T10:57:33.000Z</time>
        <extensions>
          <ns3:TrackPointExtension>
            <ns3:hr>144</ns3:hr>
            <ns3:cad>51</ns3:cad>
          </ns3:TrackPointExtension>
        </extensions>
      </trkpt>
      <trkpt lat="45.35763812251389026641845703125" lon="-70.81089198589324951171875">
        <ele>600.4000244140625</ele>
        <time>2026-08-21T10:57:34.000Z</time>
        <extensions>
          <ns3:TrackPointExtension>
            <ns3:hr>143</ns3:hr>
            <ns3:cad>49</ns3:cad>
          </ns3:TrackPointExtension>
        </extensions>
      </trkpt>
      <trkpt lat="45.35763644613325595855712890625" lon="-70.8108955062925815582275390625">
        <ele>600.79998779296875</ele>
        <time>2026-08-21T10:57:35.000Z</time>
        <extensions>
          <ns3:TrackPointExtension>
            <ns3:hr>143</ns3:hr>
            <ns3:cad>49</ns3:cad>
          </ns3:TrackPointExtension>
        </extensions>
      </trkpt>
      <trkpt lat="45.35762437619268894195556640625" lon="-70.81089793704450130462646484375">
        <ele>601</ele>
        <time>2026-08-21T10:57:36.000Z</time>
        <extensions>
          <ns3:TrackPointExtension>
            <ns3:hr>142</ns3:hr>
            <ns3:cad>49</ns3:cad>
          </ns3:TrackPointExtension>
        </extensions>
      </trkpt>
      <trkpt lat="45.35761557519435882568359375" lon="-70.810903050005435943603515625">
        <ele>601.4000244140625</ele>
        <time>2026-08-21T10:57:37.000Z</time>
        <extensions>
          <ns3:TrackPointExtension>
            <ns3:hr>142</ns3:hr>
            <ns3:cad>49</ns3:cad>
          </ns3:TrackPointExtension>
        </extensions>
      </trkpt>
      <trkpt lat="45.357610546052455902099609375" lon="-70.81090799532830715179443359375">
        <ele>601.5999755859375</ele>
        <time>2026-08-21T10:57:38.000Z</time>
        <extensions>
          <ns3:TrackPointExtension>
            <ns3:hr>142</ns3:hr>
            <ns3:cad>49</ns3:cad>
          </ns3:TrackPointExtension>
        </extensions>
      </trkpt>
      <trkpt lat="45.3576056845486164093017578125" lon="-70.8109136112034320831298828125">
        <ele>601.79998779296875</ele>
        <time>2026-08-21T10:57:39.000Z</time>
        <extensions>
          <ns3:TrackPointExtension>
            <ns3:hr>142</ns3:hr>
            <ns3:cad>49</ns3:cad>
          </ns3:TrackPointExtension>
        </extensions>
      </trkpt>
      <trkpt lat="45.35760090686380863189697265625" lon="-70.81091788597404956817626953125">
        <ele>602</ele>
        <time>2026-08-21T10:57:40.000Z</time>
        <extensions>
          <ns3:TrackPointExtension>
            <ns3:hr>141</ns3:hr>
            <ns3:cad>49</ns3:cad>
          </ns3:TrackPointExtension>
        </extensions>
      </trkpt>
      <trkpt lat="45.3575892560184001922607421875" lon="-70.81092123873531818389892578125">
        <ele>602.4000244140625</ele>
        <time>2026-08-21T10:57:41.000Z</time>
        <extensions>
          <ns3:TrackPointExtension>
            <ns3:hr>142</ns3:hr>
            <ns3:cad>49</ns3:cad>
          </ns3:TrackPointExtension>
        </extensions>
      </trkpt>
      <trkpt lat="45.3575761802494525909423828125" lon="-70.81092442385852336883544921875">
        <ele>602.5999755859375</ele>
        <time>2026-08-21T10:57:42.000Z</time>
        <extensions>
          <ns3:TrackPointExtension>
            <ns3:hr>142</ns3:hr>
            <ns3:cad>49</ns3:cad>
          </ns3:TrackPointExtension>
        </extensions>
      </trkpt>
      <trkpt lat="45.35757140256464481353759765625" lon="-70.81093230284750461578369140625">
        <ele>602.79998779296875</ele>
        <time>2026-08-21T10:57:43.000Z</time>
        <extensions>
          <ns3:TrackPointExtension>
            <ns3:hr>142</ns3:hr>
            <ns3:cad>49</ns3:cad>
          </ns3:TrackPointExtension>
        </extensions>
      </trkpt>
      <trkpt lat="45.357570648193359375" lon="-70.8109454624354839324951171875">
        <ele>603</ele>
        <time>2026-08-21T10:57:44.000Z</time>
        <extensions>
          <ns3:TrackPointExtension>
            <ns3:hr>141</ns3:hr>
            <ns3:cad>49</ns3:cad>
          </ns3:TrackPointExtension>
        </extensions>
      </trkpt>
      <trkpt lat="45.35756637342274188995361328125" lon="-70.81095837056636810302734375">
        <ele>603.4000244140625</ele>
        <time>2026-08-21T10:57:45.000Z</time>
        <extensions>
          <ns3:TrackPointExtension>
            <ns3:hr>142</ns3:hr>
            <ns3:cad>49</ns3:cad>
          </ns3:TrackPointExtension>
        </extensions>
      </trkpt>
      <trkpt lat="45.3575627692043781280517578125" lon="-70.81096650101244449615478515625">
        <ele>603.5999755859375</ele>
        <time>2026-08-21T10:57:46.000Z</time>
        <extensions>
          <ns3:TrackPointExtension>
            <ns3:hr>142</ns3:hr>
            <ns3:cad>42</ns3:cad>
          </ns3:TrackPointExtension>
        </extensions>
      </trkpt>
      <trkpt lat="45.35755514167249202728271484375" lon="-70.8109793253242969512939453125">
        <ele>603.79998779296875</ele>
        <time>2026-08-21T10:57:47.000Z</time>
        <extensions>
          <ns3:TrackPointExtension>
            <ns3:hr>142</ns3:hr>
            <ns3:cad>42</ns3:cad>
          </ns3:TrackPointExtension>
        </extensions>
      </trkpt>
      <trkpt lat="45.357551872730255126953125" lon="-70.81099399365484714508056640625">
        <ele>604</ele>
        <time>2026-08-21T10:57:48.000Z</time>
        <extensions>
          <ns3:TrackPointExtension>
            <ns3:hr>142</ns3:hr>
            <ns3:cad>0</ns3:cad>
          </ns3:TrackPointExtension>
        </extensions>
      </trkpt>
      <trkpt lat="45.357546508312225341796875" lon="-70.8110027946531772613525390625">
        <ele>604.4000244140625</ele>
        <time>2026-08-21T10:57:49.000Z</time>
        <extensions>
          <ns3:TrackPointExtension>
            <ns3:hr>142</ns3:hr>
            <ns3:cad>0</ns3:cad>
          </ns3:TrackPointExtension>
        </extensions>
      </trkpt>
      <trkpt lat="45.3575409762561321258544921875" lon="-70.8110105060040950775146484375">
        <ele>604.5999755859375</ele>
        <time>2026-08-21T10:57:50.000Z</time>
        <extensions>
          <ns3:TrackPointExtension>
            <ns3:hr>142</ns3:hr>
            <ns3:cad>0</ns3:cad>
          </ns3:TrackPointExtension>
        </extensions>
      </trkpt>
      <trkpt lat="45.35753686912357807159423828125" lon="-70.81102140247821807861328125">
        <ele>604.79998779296875</ele>
        <time>2026-08-21T10:57:51.000Z</time>
        <extensions>
          <ns3:TrackPointExtension>
            <ns3:hr>141</ns3:hr>
            <ns3:cad>44</ns3:cad>
          </ns3:TrackPointExtension>
        </extensions>
      </trkpt>
      <trkpt lat="45.3575282357633113861083984375" lon="-70.81102903001010417938232421875">
        <ele>605</ele>
        <time>2026-08-21T10:57:52.000Z</time>
        <extensions>
          <ns3:TrackPointExtension>
            <ns3:hr>142</ns3:hr>
            <ns3:cad>44</ns3:cad>
          </ns3:TrackPointExtension>
        </extensions>
      </trkpt>
      <trkpt lat="45.35752027295529842376708984375" lon="-70.81103506498038768768310546875">
        <ele>605.4000244140625</ele>
        <time>2026-08-21T10:57:53.000Z</time>
        <extensions>
          <ns3:TrackPointExtension>
            <ns3:hr>142</ns3:hr>
            <ns3:cad>44</ns3:cad>
          </ns3:TrackPointExtension>
        </extensions>
      </trkpt>
      <trkpt lat="45.35751222632825374603271484375" lon="-70.81104663200676441192626953125">
        <ele>605.5999755859375</ele>
        <time>2026-08-21T10:57:54.000Z</time>
        <extensions>
          <ns3:TrackPointExtension>
            <ns3:hr>142</ns3:hr>
            <ns3:cad>44</ns3:cad>
          </ns3:TrackPointExtension>
        </extensions>
      </trkpt>
      <trkpt lat="45.3575151599943637847900390625" lon="-70.81104428507387638092041015625">
        <ele>605.79998779296875</ele>
        <time>2026-08-21T10:57:55.000Z</time>
        <extensions>
          <ns3:TrackPointExtension>
            <ns3:hr>142</ns3:hr>
            <ns3:cad>43</ns3:cad>
          </ns3:TrackPointExtension>
        </extensions>
      </trkpt>
      <trkpt lat="45.357514657080173492431640625" lon="-70.811055600643157958984375">
        <ele>606</ele>
        <time>2026-08-21T10:57:56.000Z</time>
        <extensions>
          <ns3:TrackPointExtension>
            <ns3:hr>142</ns3:hr>
            <ns3:cad>43</ns3:cad>
          </ns3:TrackPointExtension>
        </extensions>
      </trkpt>
      <trkpt lat="45.35750401206314563751220703125" lon="-70.81107102334499359130859375">
        <ele>606.4000244140625</ele>
        <time>2026-08-21T10:57:57.000Z</time>
        <extensions>
          <ns3:TrackPointExtension>
            <ns3:hr>142</ns3:hr>
            <ns3:cad>43</ns3:cad>
          </ns3:TrackPointExtension>
        </extensions>
      </trkpt>
      <trkpt lat="45.357493869960308074951171875" lon="-70.811079405248165130615234375">
        <ele>606.5999755859375</ele>
        <time>2026-08-21T10:57:58.000Z</time>
        <extensions>
          <ns3:TrackPointExtension>
            <ns3:hr>142</ns3:hr>
            <ns3:cad>44</ns3:cad>
          </ns3:TrackPointExtension>
        </extensions>
      </trkpt>
      <trkpt lat="45.3574876673519611358642578125" lon="-70.8110859431326389312744140625">
        <ele>606.79998779296875</ele>
        <time>2026-08-21T10:57:59.000Z</time>
        <extensions>
          <ns3:TrackPointExtension>
            <ns3:hr>142</ns3:hr>
            <ns3:cad>44</ns3:cad>
          </ns3:TrackPointExtension>
        </extensions>
      </trkpt>
      <trkpt lat="45.35748238675296306610107421875" lon="-70.8110919781029224395751953125">
        <ele>607</ele>
        <time>2026-08-21T10:58:00.000Z</time>
        <extensions>
          <ns3:TrackPointExtension>
            <ns3:hr>142</ns3:hr>
            <ns3:cad>44</ns3:cad>
          </ns3:TrackPointExtension>
        </extensions>
      </trkpt>
      <trkpt lat="45.35747450776398181915283203125" lon="-70.811098851263523101806640625">
        <ele>607.20001220703125</ele>
        <time>2026-08-21T10:58:01.000Z</time>
        <extensions>
          <ns3:TrackPointExtension>
            <ns3:hr>142</ns3:hr>
            <ns3:cad>44</ns3:cad>
          </ns3:TrackPointExtension>
        </extensions>
      </trkpt>
      <trkpt lat="45.35746805369853973388671875" lon="-70.81110455095767974853515625">
        <ele>607.4000244140625</ele>
        <time>2026-08-21T10:58:02.000Z</time>
        <extensions>
          <ns3:TrackPointExtension>
            <ns3:hr>143</ns3:hr>
            <ns3:cad>44</ns3:cad>
          </ns3:TrackPointExtension>
        </extensions>
      </trkpt>
      <trkpt lat="45.35746361128985881805419921875" lon="-70.81111234612762928009033203125">
        <ele>607.5999755859375</ele>
        <time>2026-08-21T10:58:03.000Z</time>
        <extensions>
          <ns3:TrackPointExtension>
            <ns3:hr>143</ns3:hr>
            <ns3:cad>43</ns3:cad>
          </ns3:TrackPointExtension>
        </extensions>
      </trkpt>
      <trkpt lat="45.3574588336050510406494140625" lon="-70.81112257204949855804443359375">
        <ele>607.79998779296875</ele>
        <time>2026-08-21T10:58:04.000Z</time>
        <extensions>
          <ns3:TrackPointExtension>
            <ns3:hr>144</ns3:hr>
            <ns3:cad>43</ns3:cad>
          </ns3:TrackPointExtension>
        </extensions>
      </trkpt>
      <trkpt lat="45.357447601854801177978515625" lon="-70.8111318759620189666748046875">
        <ele>608</ele>
        <time>2026-08-21T10:58:05.000Z</time>
        <extensions>
          <ns3:TrackPointExtension>
            <ns3:hr>144</ns3:hr>
            <ns3:cad>43</ns3:cad>
          </ns3:TrackPointExtension>
        </extensions>
      </trkpt>
      <trkpt lat="45.3574457578361034393310546875" lon="-70.81114755012094974517822265625">
        <ele>608.4000244140625</ele>
        <time>2026-08-21T10:58:06.000Z</time>
        <extensions>
          <ns3:TrackPointExtension>
            <ns3:hr>144</ns3:hr>
            <ns3:cad>43</ns3:cad>
          </ns3:TrackPointExtension>
        </extensions>
      </trkpt>
      <trkpt lat="45.3574467636644840240478515625" lon="-70.81116263754665851593017578125">
        <ele>608.5999755859375</ele>
        <time>2026-08-21T10:58:07.000Z</time>
        <extensions>
          <ns3:TrackPointExtension>
            <ns3:hr>144</ns3:hr>
            <ns3:cad>43</ns3:cad>
          </ns3:TrackPointExtension>
        </extensions>
      </trkpt>
      <trkpt lat="45.357448942959308624267578125" lon="-70.81118292175233364105224609375">
        <ele>608.79998779296875</ele>
        <time>2026-08-21T10:58:08.000Z</time>
        <extensions>
          <ns3:TrackPointExtension>
            <ns3:hr>144</ns3:hr>
            <ns3:cad>43</ns3:cad>
          </ns3:TrackPointExtension>
        </extensions>
      </trkpt>
      <trkpt lat="45.357448272407054901123046875" lon="-70.81119599752128124237060546875">
        <ele>609</ele>
        <time>2026-08-21T10:58:09.000Z</time>
        <extensions>
          <ns3:TrackPointExtension>
            <ns3:hr>144</ns3:hr>
            <ns3:cad>43</ns3:cad>
          </ns3:TrackPointExtension>
        </extensions>
      </trkpt>
      <trkpt lat="45.35744667984545230865478515625" lon="-70.81121041439473628997802734375">
        <ele>609</ele>
        <time>2026-08-21T10:58:10.000Z</time>
        <extensions>
          <ns3:TrackPointExtension>
            <ns3:hr>144</ns3:hr>
            <ns3:cad>43</ns3:cad>
          </ns3:TrackPointExtension>
        </extensions>
      </trkpt>
      <trkpt lat="45.3574424050748348236083984375" lon="-70.8112234063446521759033203125">
        <ele>609.20001220703125</ele>
        <time>2026-08-21T10:58:11.000Z</time>
        <extensions>
          <ns3:TrackPointExtension>
            <ns3:hr>144</ns3:hr>
            <ns3:cad>43</ns3:cad>
          </ns3:TrackPointExtension>
        </extensions>
      </trkpt>
      <trkpt lat="45.35744257271289825439453125" lon="-70.81124528311192989349365234375">
        <ele>609.20001220703125</ele>
        <time>2026-08-21T10:58:12.000Z</time>
        <extensions>
          <ns3:TrackPointExtension>
            <ns3:hr>145</ns3:hr>
            <ns3:cad>43</ns3:cad>
          </ns3:TrackPointExtension>
        </extensions>
      </trkpt>
      <trkpt lat="45.35744165070354938507080078125" lon="-70.8112643100321292877197265625">
        <ele>609.4000244140625</ele>
        <time>2026-08-21T10:58:13.000Z</time>
        <extensions>
          <ns3:TrackPointExtension>
            <ns3:hr>144</ns3:hr>
            <ns3:cad>43</ns3:cad>
          </ns3:TrackPointExtension>
        </extensions>
      </trkpt>
      <trkpt lat="45.35743854939937591552734375" lon="-70.8112777210772037506103515625">
        <ele>609.5999755859375</ele>
        <time>2026-08-21T10:58:14.000Z</time>
        <extensions>
          <ns3:TrackPointExtension>
            <ns3:hr>144</ns3:hr>
            <ns3:cad>47</ns3:cad>
          </ns3:TrackPointExtension>
        </extensions>
      </trkpt>
      <trkpt lat="45.35743712447583675384521484375" lon="-70.81129490397870540618896484375">
        <ele>609.79998779296875</ele>
        <time>2026-08-21T10:58:15.000Z</time>
        <extensions>
          <ns3:TrackPointExtension>
            <ns3:hr>144</ns3:hr>
            <ns3:cad>47</ns3:cad>
          </ns3:TrackPointExtension>
        </extensions>
      </trkpt>
      <trkpt lat="45.357437543570995330810546875" lon="-70.811315439641475677490234375">
        <ele>610</ele>
        <time>2026-08-21T10:58:16.000Z</time>
        <extensions>
          <ns3:TrackPointExtension>
            <ns3:hr>144</ns3:hr>
            <ns3:cad>47</ns3:cad>
          </ns3:TrackPointExtension>
        </extensions>
      </trkpt>
      <trkpt lat="45.3574346937239170074462890625" lon="-70.8113317005336284637451171875">
        <ele>610.20001220703125</ele>
        <time>2026-08-21T10:58:17.000Z</time>
        <extensions>
          <ns3:TrackPointExtension>
            <ns3:hr>144</ns3:hr>
            <ns3:cad>47</ns3:cad>
          </ns3:TrackPointExtension>
        </extensions>
      </trkpt>
      <trkpt lat="45.3574320115149021148681640625" lon="-70.8113404177129268646240234375">
        <ele>610.20001220703125</ele>
        <time>2026-08-21T10:58:18.000Z</time>
        <extensions>
          <ns3:TrackPointExtension>
            <ns3:hr>144</ns3:hr>
            <ns3:cad>47</ns3:cad>
          </ns3:TrackPointExtension>
        </extensions>
      </trkpt>
      <trkpt lat="45.35743209533393383026123046875" lon="-70.81135156564414501190185546875">
        <ele>610.4000244140625</ele>
        <time>2026-08-21T10:58:19.000Z</time>
        <extensions>
          <ns3:TrackPointExtension>
            <ns3:hr>145</ns3:hr>
            <ns3:cad>47</ns3:cad>
          </ns3:TrackPointExtension>
        </extensions>
      </trkpt>
      <trkpt lat="45.3574320115149021148681640625" lon="-70.81137017346918582916259765625">
        <ele>610.5999755859375</ele>
        <time>2026-08-21T10:58:20.000Z</time>
        <extensions>
          <ns3:TrackPointExtension>
            <ns3:hr>144</ns3:hr>
            <ns3:cad>47</ns3:cad>
          </ns3:TrackPointExtension>
        </extensions>
      </trkpt>
      <trkpt lat="45.35743025131523609161376953125" lon="-70.81138576380908489227294921875">
        <ele>610.79998779296875</ele>
        <time>2026-08-21T10:58:21.000Z</time>
        <extensions>
          <ns3:TrackPointExtension>
            <ns3:hr>144</ns3:hr>
            <ns3:cad>47</ns3:cad>
          </ns3:TrackPointExtension>
        </extensions>
      </trkpt>
      <trkpt lat="45.357430167496204376220703125" lon="-70.81140453927218914031982421875">
        <ele>611</ele>
        <time>2026-08-21T10:58:22.000Z</time>
        <extensions>
          <ns3:TrackPointExtension>
            <ns3:hr>144</ns3:hr>
            <ns3:cad>0</ns3:cad>
          </ns3:TrackPointExtension>
        </extensions>
      </trkpt>
      <trkpt lat="45.3574313409626483917236328125" lon="-70.81142415292561054229736328125">
        <ele>611.20001220703125</ele>
        <time>2026-08-21T10:58:23.000Z</time>
        <extensions>
          <ns3:TrackPointExtension>
            <ns3:hr>144</ns3:hr>
            <ns3:cad>0</ns3:cad>
          </ns3:TrackPointExtension>
        </extensions>
      </trkpt>
      <trkpt lat="45.357431508600711822509765625" lon="-70.81143773160874843597412109375">
        <ele>611.4000244140625</ele>
        <time>2026-08-21T10:58:24.000Z</time>
        <extensions>
          <ns3:TrackPointExtension>
            <ns3:hr>144</ns3:hr>
            <ns3:cad>0</ns3:cad>
          </ns3:TrackPointExtension>
        </extensions>
      </trkpt>
      <trkpt lat="45.35743578337132930755615234375" lon="-70.81145533360540866851806640625">
        <ele>611.4000244140625</ele>
        <time>2026-08-21T10:58:25.000Z</time>
        <extensions>
          <ns3:TrackPointExtension>
            <ns3:hr>144</ns3:hr>
            <ns3:cad>0</ns3:cad>
          </ns3:TrackPointExtension>
        </extensions>
      </trkpt>
      <trkpt lat="45.35744064487516880035400390625" lon="-70.81147243268787860870361328125">
        <ele>611.5999755859375</ele>
        <time>2026-08-21T10:58:26.000Z</time>
        <extensions>
          <ns3:TrackPointExtension>
            <ns3:hr>144</ns3:hr>
            <ns3:cad>0</ns3:cad>
          </ns3:TrackPointExtension>
        </extensions>
      </trkpt>
      <trkpt lat="45.35744257271289825439453125" lon="-70.8114835806190967559814453125">
        <ele>611.5999755859375</ele>
        <time>2026-08-21T10:58:27.000Z</time>
        <extensions>
          <ns3:TrackPointExtension>
            <ns3:hr>144</ns3:hr>
            <ns3:cad>0</ns3:cad>
          </ns3:TrackPointExtension>
        </extensions>
      </trkpt>
      <trkpt lat="45.35744433291256427764892578125" lon="-70.8114959858357906341552734375">
        <ele>611.79998779296875</ele>
        <time>2026-08-21T10:58:28.000Z</time>
        <extensions>
          <ns3:TrackPointExtension>
            <ns3:hr>145</ns3:hr>
            <ns3:cad>0</ns3:cad>
          </ns3:TrackPointExtension>
        </extensions>
      </trkpt>
      <trkpt lat="45.357444919645786285400390625" lon="-70.81151031889021396636962890625">
        <ele>611.79998779296875</ele>
        <time>2026-08-21T10:58:29.000Z</time>
        <extensions>
          <ns3:TrackPointExtension>
            <ns3:hr>144</ns3:hr>
            <ns3:cad>49</ns3:cad>
          </ns3:TrackPointExtension>
        </extensions>
      </trkpt>
      <trkpt lat="45.35744667984545230865478515625" lon="-70.8115258254110813140869140625">
        <ele>612</ele>
        <time>2026-08-21T10:58:30.000Z</time>
        <extensions>
          <ns3:TrackPointExtension>
            <ns3:hr>144</ns3:hr>
            <ns3:cad>49</ns3:cad>
          </ns3:TrackPointExtension>
        </extensions>
      </trkpt>
      <trkpt lat="45.3574511222541332244873046875" lon="-70.811545439064502716064453125">
        <ele>612.20001220703125</ele>
        <time>2026-08-21T10:58:31.000Z</time>
        <extensions>
          <ns3:TrackPointExtension>
            <ns3:hr>144</ns3:hr>
            <ns3:cad>49</ns3:cad>
          </ns3:TrackPointExtension>
        </extensions>
      </trkpt>
      <trkpt lat="45.35745791159570217132568359375" lon="-70.81156144849956035614013671875">
        <ele>612.4000244140625</ele>
        <time>2026-08-21T10:58:32.000Z</time>
        <extensions>
          <ns3:TrackPointExtension>
            <ns3:hr>144</ns3:hr>
            <ns3:cad>49</ns3:cad>
          </ns3:TrackPointExtension>
        </extensions>
      </trkpt>
      <trkpt lat="45.357461683452129364013671875" lon="-70.8115814812481403350830078125">
        <ele>612.4000244140625</ele>
        <time>2026-08-21T10:58:33.000Z</time>
        <extensions>
          <ns3:TrackPointExtension>
            <ns3:hr>144</ns3:hr>
            <ns3:cad>49</ns3:cad>
          </ns3:TrackPointExtension>
        </extensions>
      </trkpt>
      <trkpt lat="45.35746310837566852569580078125" lon="-70.81160654313862323760986328125">
        <ele>612.5999755859375</ele>
        <time>2026-08-21T10:58:34.000Z</time>
        <extensions>
          <ns3:TrackPointExtension>
            <ns3:hr>144</ns3:hr>
            <ns3:cad>49</ns3:cad>
          </ns3:TrackPointExtension>
        </extensions>
      </trkpt>
      <trkpt lat="45.35746260546147823333740234375" lon="-70.81162179820239543914794921875">
        <ele>612.5999755859375</ele>
        <time>2026-08-21T10:58:35.000Z</time>
        <extensions>
          <ns3:TrackPointExtension>
            <ns3:hr>144</ns3:hr>
            <ns3:cad>49</ns3:cad>
          </ns3:TrackPointExtension>
        </extensions>
      </trkpt>
      <trkpt lat="45.3574620187282562255859375" lon="-70.81163302995264530181884765625">
        <ele>612.5999755859375</ele>
        <time>2026-08-21T10:58:36.000Z</time>
        <extensions>
          <ns3:TrackPointExtension>
            <ns3:hr>144</ns3:hr>
            <ns3:cad>50</ns3:cad>
          </ns3:TrackPointExtension>
        </extensions>
      </trkpt>
      <trkpt lat="45.3574620187282562255859375" lon="-70.81164610572159290313720703125">
        <ele>612.5999755859375</ele>
        <time>2026-08-21T10:58:37.000Z</time>
        <extensions>
          <ns3:TrackPointExtension>
            <ns3:hr>143</ns3:hr>
            <ns3:cad>50</ns3:cad>
          </ns3:TrackPointExtension>
        </extensions>
      </trkpt>
      <trkpt lat="45.35746143199503421783447265625" lon="-70.811660103499889373779296875">
        <ele>612.79998779296875</ele>
        <time>2026-08-21T10:58:38.000Z</time>
        <extensions>
          <ns3:TrackPointExtension>
            <ns3:hr>143</ns3:hr>
            <ns3:cad>50</ns3:cad>
          </ns3:TrackPointExtension>
        </extensions>
      </trkpt>
      <trkpt lat="45.35745489411056041717529296875" lon="-70.8116792142391204833984375">
        <ele>612.79998779296875</ele>
        <time>2026-08-21T10:58:39.000Z</time>
        <extensions>
          <ns3:TrackPointExtension>
            <ns3:hr>143</ns3:hr>
            <ns3:cad>50</ns3:cad>
          </ns3:TrackPointExtension>
        </extensions>
      </trkpt>
      <trkpt lat="45.3574487753212451934814453125" lon="-70.811698995530605316162109375">
        <ele>612.79998779296875</ele>
        <time>2026-08-21T10:58:40.000Z</time>
        <extensions>
          <ns3:TrackPointExtension>
            <ns3:hr>143</ns3:hr>
            <ns3:cad>50</ns3:cad>
          </ns3:TrackPointExtension>
        </extensions>
      </trkpt>
      <trkpt lat="45.35744936205446720123291015625" lon="-70.8117132447659969329833984375">
        <ele>613</ele>
        <time>2026-08-21T10:58:41.000Z</time>
        <extensions>
          <ns3:TrackPointExtension>
            <ns3:hr>143</ns3:hr>
            <ns3:cad>50</ns3:cad>
          </ns3:TrackPointExtension>
        </extensions>
      </trkpt>
      <trkpt lat="45.35745103843510150909423828125" lon="-70.81172741018235683441162109375">
        <ele>613</ele>
        <time>2026-08-21T10:58:42.000Z</time>
        <extensions>
          <ns3:TrackPointExtension>
            <ns3:hr>143</ns3:hr>
            <ns3:cad>50</ns3:cad>
          </ns3:TrackPointExtension>
        </extensions>
      </trkpt>
      <trkpt lat="45.35744927823543548583984375" lon="-70.81174283288419246673583984375">
        <ele>613</ele>
        <time>2026-08-21T10:58:43.000Z</time>
        <extensions>
          <ns3:TrackPointExtension>
            <ns3:hr>143</ns3:hr>
            <ns3:cad>50</ns3:cad>
          </ns3:TrackPointExtension>
        </extensions>
      </trkpt>
      <trkpt lat="45.3574477694928646087646484375" lon="-70.81175674684345722198486328125">
        <ele>613</ele>
        <time>2026-08-21T10:58:44.000Z</time>
        <extensions>
          <ns3:TrackPointExtension>
            <ns3:hr>143</ns3:hr>
            <ns3:cad>50</ns3:cad>
          </ns3:TrackPointExtension>
        </extensions>
      </trkpt>
      <trkpt lat="45.3574460931122303009033203125" lon="-70.8117712475359439849853515625">
        <ele>613</ele>
        <time>2026-08-21T10:58:45.000Z</time>
        <extensions>
          <ns3:TrackPointExtension>
            <ns3:hr>143</ns3:hr>
            <ns3:cad>0</ns3:cad>
          </ns3:TrackPointExtension>
        </extensions>
      </trkpt>
      <trkpt lat="45.35743729211390018463134765625" lon="-70.811792202293872833251953125">
        <ele>613</ele>
        <time>2026-08-21T10:58:46.000Z</time>
        <extensions>
          <ns3:TrackPointExtension>
            <ns3:hr>142</ns3:hr>
            <ns3:cad>52</ns3:cad>
          </ns3:TrackPointExtension>
        </extensions>
      </trkpt>
      <trkpt lat="45.3574306704103946685791015625" lon="-70.811811983585357666015625">
        <ele>613</ele>
        <time>2026-08-21T10:58:47.000Z</time>
        <extensions>
          <ns3:TrackPointExtension>
            <ns3:hr>142</ns3:hr>
            <ns3:cad>52</ns3:cad>
          </ns3:TrackPointExtension>
        </extensions>
      </trkpt>
      <trkpt lat="45.357428155839443206787109375" lon="-70.81182983703911304473876953125">
        <ele>613</ele>
        <time>2026-08-21T10:58:48.000Z</time>
        <extensions>
          <ns3:TrackPointExtension>
            <ns3:hr>142</ns3:hr>
            <ns3:cad>52</ns3:cad>
          </ns3:TrackPointExtension>
        </extensions>
      </trkpt>
      <trkpt lat="45.357428155839443206787109375" lon="-70.81184484064579010009765625">
        <ele>613.20001220703125</ele>
        <time>2026-08-21T10:58:49.000Z</time>
        <extensions>
          <ns3:TrackPointExtension>
            <ns3:hr>142</ns3:hr>
            <ns3:cad>52</ns3:cad>
          </ns3:TrackPointExtension>
        </extensions>
      </trkpt>
      <trkpt lat="45.35742438398301601409912109375" lon="-70.81185984425246715545654296875">
        <ele>613.20001220703125</ele>
        <time>2026-08-21T10:58:50.000Z</time>
        <extensions>
          <ns3:TrackPointExtension>
            <ns3:hr>142</ns3:hr>
            <ns3:cad>52</ns3:cad>
          </ns3:TrackPointExtension>
        </extensions>
      </trkpt>
      <trkpt lat="45.3574186004698276519775390625" lon="-70.81187568604946136474609375">
        <ele>613.20001220703125</ele>
        <time>2026-08-21T10:58:51.000Z</time>
        <extensions>
          <ns3:TrackPointExtension>
            <ns3:hr>142</ns3:hr>
            <ns3:cad>51</ns3:cad>
          </ns3:TrackPointExtension>
        </extensions>
      </trkpt>
      <trkpt lat="45.3574159182608127593994140625" lon="-70.8118882589042186737060546875">
        <ele>613.4000244140625</ele>
        <time>2026-08-21T10:58:52.000Z</time>
        <extensions>
          <ns3:TrackPointExtension>
            <ns3:hr>141</ns3:hr>
            <ns3:cad>51</ns3:cad>
          </ns3:TrackPointExtension>
        </extensions>
      </trkpt>
      <trkpt lat="45.3574152477085590362548828125" lon="-70.81190384924411773681640625">
        <ele>613.4000244140625</ele>
        <time>2026-08-21T10:58:53.000Z</time>
        <extensions>
          <ns3:TrackPointExtension>
            <ns3:hr>141</ns3:hr>
            <ns3:cad>52</ns3:cad>
          </ns3:TrackPointExtension>
        </extensions>
      </trkpt>
      <trkpt lat="45.35741013474762439727783203125" lon="-70.8119207806885242462158203125">
        <ele>613.4000244140625</ele>
        <time>2026-08-21T10:58:54.000Z</time>
        <extensions>
          <ns3:TrackPointExtension>
            <ns3:hr>140</ns3:hr>
            <ns3:cad>52</ns3:cad>
          </ns3:TrackPointExtension>
        </extensions>
      </trkpt>
      <trkpt lat="45.35740108229219913482666015625" lon="-70.81194114871323108673095703125">
        <ele>613.4000244140625</ele>
        <time>2026-08-21T10:58:55.000Z</time>
        <extensions>
          <ns3:TrackPointExtension>
            <ns3:hr>139</ns3:hr>
            <ns3:cad>52</ns3:cad>
          </ns3:TrackPointExtension>
        </extensions>
      </trkpt>
      <trkpt lat="45.35739672370254993438720703125" lon="-70.811956487596035003662109375">
        <ele>613.5999755859375</ele>
        <time>2026-08-21T10:58:56.000Z</time>
        <extensions>
          <ns3:TrackPointExtension>
            <ns3:hr>138</ns3:hr>
            <ns3:cad>52</ns3:cad>
          </ns3:TrackPointExtension>
        </extensions>
      </trkpt>
      <trkpt lat="45.35739169456064701080322265625" lon="-70.811973251402378082275390625">
        <ele>613.79998779296875</ele>
        <time>2026-08-21T10:58:57.000Z</time>
        <extensions>
          <ns3:TrackPointExtension>
            <ns3:hr>136</ns3:hr>
            <ns3:cad>53</ns3:cad>
          </ns3:TrackPointExtension>
        </extensions>
      </trkpt>
      <trkpt lat="45.35739119164645671844482421875" lon="-70.811988674104213714599609375">
        <ele>614</ele>
        <time>2026-08-21T10:58:58.000Z</time>
        <extensions>
          <ns3:TrackPointExtension>
            <ns3:hr>135</ns3:hr>
            <ns3:cad>53</ns3:cad>
          </ns3:TrackPointExtension>
        </extensions>
      </trkpt>
      <trkpt lat="45.3573877550661563873291015625" lon="-70.81200820393860340118408203125">
        <ele>614</ele>
        <time>2026-08-21T10:58:59.000Z</time>
        <extensions>
          <ns3:TrackPointExtension>
            <ns3:hr>134</ns3:hr>
            <ns3:cad>53</ns3:cad>
          </ns3:TrackPointExtension>
        </extensions>
      </trkpt>
      <trkpt lat="45.3573877550661563873291015625" lon="-70.81203334964811801910400390625">
        <ele>614.20001220703125</ele>
        <time>2026-08-21T10:59:00.000Z</time>
        <extensions>
          <ns3:TrackPointExtension>
            <ns3:hr>134</ns3:hr>
            <ns3:cad>52</ns3:cad>
          </ns3:TrackPointExtension>
        </extensions>
      </trkpt>
      <trkpt lat="45.357385240495204925537109375" lon="-70.81205715425312519073486328125">
        <ele>614.20001220703125</ele>
        <time>2026-08-21T10:59:01.000Z</time>
        <extensions>
          <ns3:TrackPointExtension>
            <ns3:hr>134</ns3:hr>
            <ns3:cad>52</ns3:cad>
          </ns3:TrackPointExtension>
        </extensions>
      </trkpt>
      <trkpt lat="45.357379876077175140380859375" lon="-70.81207945011556148529052734375">
        <ele>614.4000244140625</ele>
        <time>2026-08-21T10:59:02.000Z</time>
        <extensions>
          <ns3:TrackPointExtension>
            <ns3:hr>134</ns3:hr>
            <ns3:cad>52</ns3:cad>
          </ns3:TrackPointExtension>
        </extensions>
      </trkpt>
      <trkpt lat="45.3573750145733356475830078125" lon="-70.81210543401539325714111328125">
        <ele>614.4000244140625</ele>
        <time>2026-08-21T10:59:03.000Z</time>
        <extensions>
          <ns3:TrackPointExtension>
            <ns3:hr>134</ns3:hr>
            <ns3:cad>52</ns3:cad>
          </ns3:TrackPointExtension>
        </extensions>
      </trkpt>
      <trkpt lat="45.35737660713493824005126953125" lon="-70.81212672404944896697998046875">
        <ele>614.4000244140625</ele>
        <time>2026-08-21T10:59:04.000Z</time>
        <extensions>
          <ns3:TrackPointExtension>
            <ns3:hr>134</ns3:hr>
            <ns3:cad>52</ns3:cad>
          </ns3:TrackPointExtension>
        </extensions>
      </trkpt>
      <trkpt lat="45.35737677477300167083740234375" lon="-70.81214332021772861480712890625">
        <ele>614.5999755859375</ele>
        <time>2026-08-21T10:59:05.000Z</time>
        <extensions>
          <ns3:TrackPointExtension>
            <ns3:hr>133</ns3:hr>
            <ns3:cad>0</ns3:cad>
          </ns3:TrackPointExtension>
        </extensions>
      </trkpt>
      <trkpt lat="45.35737610422074794769287109375" lon="-70.812159664928913116455078125">
        <ele>614.5999755859375</ele>
        <time>2026-08-21T10:59:06.000Z</time>
        <extensions>
          <ns3:TrackPointExtension>
            <ns3:hr>134</ns3:hr>
            <ns3:cad>0</ns3:cad>
          </ns3:TrackPointExtension>
        </extensions>
      </trkpt>
      <trkpt lat="45.35737828351557254791259765625" lon="-70.8121873252093791961669921875">
        <ele>614.5999755859375</ele>
        <time>2026-08-21T10:59:07.000Z</time>
        <extensions>
          <ns3:TrackPointExtension>
            <ns3:hr>134</ns3:hr>
            <ns3:cad>0</ns3:cad>
          </ns3:TrackPointExtension>
        </extensions>
      </trkpt>
      <trkpt lat="45.35738700069487094879150390625" lon="-70.81221238709986209869384765625">
        <ele>614.5999755859375</ele>
        <time>2026-08-21T10:59:08.000Z</time>
        <extensions>
          <ns3:TrackPointExtension>
            <ns3:hr>134</ns3:hr>
            <ns3:cad>0</ns3:cad>
          </ns3:TrackPointExtension>
        </extensions>
      </trkpt>
      <trkpt lat="45.3573954664170742034912109375" lon="-70.81223418004810810089111328125">
        <ele>614.79998779296875</ele>
        <time>2026-08-21T10:59:09.000Z</time>
        <extensions>
          <ns3:TrackPointExtension>
            <ns3:hr>134</ns3:hr>
            <ns3:cad>0</ns3:cad>
          </ns3:TrackPointExtension>
        </extensions>
      </trkpt>
      <trkpt lat="45.35740493796765804290771484375" lon="-70.8122627623379230499267578125">
        <ele>614.79998779296875</ele>
        <time>2026-08-21T10:59:10.000Z</time>
        <extensions>
          <ns3:TrackPointExtension>
            <ns3:hr>134</ns3:hr>
            <ns3:cad>50</ns3:cad>
          </ns3:TrackPointExtension>
        </extensions>
      </trkpt>
      <trkpt lat="45.35741298459470272064208984375" lon="-70.812279023230075836181640625">
        <ele>615</ele>
        <time>2026-08-21T10:59:11.000Z</time>
        <extensions>
          <ns3:TrackPointExtension>
            <ns3:hr>133</ns3:hr>
            <ns3:cad>50</ns3:cad>
          </ns3:TrackPointExtension>
        </extensions>
      </trkpt>
      <trkpt lat="45.357424132525920867919921875" lon="-70.8122989721596240997314453125">
        <ele>615</ele>
        <time>2026-08-21T10:59:12.000Z</time>
        <extensions>
          <ns3:TrackPointExtension>
            <ns3:hr>133</ns3:hr>
            <ns3:cad>50</ns3:cad>
          </ns3:TrackPointExtension>
        </extensions>
      </trkpt>
      <trkpt lat="45.3574316762387752532958984375" lon="-70.81230794079601764678955078125">
        <ele>615</ele>
        <time>2026-08-21T10:59:13.000Z</time>
        <extensions>
          <ns3:TrackPointExtension>
            <ns3:hr>132</ns3:hr>
            <ns3:cad>50</ns3:cad>
          </ns3:TrackPointExtension>
        </extensions>
      </trkpt>
      <trkpt lat="45.35743745975196361541748046875" lon="-70.8123174123466014862060546875">
        <ele>615</ele>
        <time>2026-08-21T10:59:14.000Z</time>
        <extensions>
          <ns3:TrackPointExtension>
            <ns3:hr>131</ns3:hr>
            <ns3:cad>50</ns3:cad>
          </ns3:TrackPointExtension>
        </extensions>
      </trkpt>
      <trkpt lat="45.35743896849453449249267578125" lon="-70.812328644096851348876953125">
        <ele>615</ele>
        <time>2026-08-21T10:59:15.000Z</time>
        <extensions>
          <ns3:TrackPointExtension>
            <ns3:hr>131</ns3:hr>
            <ns3:cad>50</ns3:cad>
          </ns3:TrackPointExtension>
        </extensions>
      </trkpt>
      <trkpt lat="45.35744123160839080810546875" lon="-70.8123425580561161041259765625">
        <ele>615</ele>
        <time>2026-08-21T10:59:16.000Z</time>
        <extensions>
          <ns3:TrackPointExtension>
            <ns3:hr>131</ns3:hr>
            <ns3:cad>55</ns3:cad>
          </ns3:TrackPointExtension>
        </extensions>
      </trkpt>
      <trkpt lat="45.35744123160839080810546875" lon="-70.81235580146312713623046875">
        <ele>615</ele>
        <time>2026-08-21T10:59:17.000Z</time>
        <extensions>
          <ns3:TrackPointExtension>
            <ns3:hr>131</ns3:hr>
            <ns3:cad>55</ns3:cad>
          </ns3:TrackPointExtension>
        </extensions>
      </trkpt>
      <trkpt lat="45.3574432432651519775390625" lon="-70.81235907040536403656005859375">
        <ele>615</ele>
        <time>2026-08-21T10:59:18.000Z</time>
        <extensions>
          <ns3:TrackPointExtension>
            <ns3:hr>131</ns3:hr>
            <ns3:cad>55</ns3:cad>
          </ns3:TrackPointExtension>
        </extensions>
      </trkpt>
      <trkpt lat="45.35744726657867431640625" lon="-70.81237046979367733001708984375">
        <ele>615.20001220703125</ele>
        <time>2026-08-21T10:59:19.000Z</time>
        <extensions>
          <ns3:TrackPointExtension>
            <ns3:hr>130</ns3:hr>
            <ns3:cad>55</ns3:cad>
          </ns3:TrackPointExtension>
        </extensions>
      </trkpt>
      <trkpt lat="45.357446931302547454833984375" lon="-70.81237717531621456146240234375">
        <ele>615.20001220703125</ele>
        <time>2026-08-21T10:59:20.000Z</time>
        <extensions>
          <ns3:TrackPointExtension>
            <ns3:hr>130</ns3:hr>
            <ns3:cad>55</ns3:cad>
          </ns3:TrackPointExtension>
        </extensions>
      </trkpt>
      <trkpt lat="45.3574477694928646087646484375" lon="-70.81238396465778350830078125">
        <ele>615.20001220703125</ele>
        <time>2026-08-21T10:59:21.000Z</time>
        <extensions>
          <ns3:TrackPointExtension>
            <ns3:hr>130</ns3:hr>
            <ns3:cad>55</ns3:cad>
          </ns3:TrackPointExtension>
        </extensions>
      </trkpt>
      <trkpt lat="45.35744433291256427764892578125" lon="-70.812403745949268341064453125">
        <ele>615.4000244140625</ele>
        <time>2026-08-21T10:59:22.000Z</time>
        <extensions>
          <ns3:TrackPointExtension>
            <ns3:hr>129</ns3:hr>
            <ns3:cad>55</ns3:cad>
          </ns3:TrackPointExtension>
        </extensions>
      </trkpt>
      <trkpt lat="45.35744450055062770843505859375" lon="-70.8124267123639583587646484375">
        <ele>615.4000244140625</ele>
        <time>2026-08-21T10:59:23.000Z</time>
        <extensions>
          <ns3:TrackPointExtension>
            <ns3:hr>128</ns3:hr>
            <ns3:cad>55</ns3:cad>
          </ns3:TrackPointExtension>
        </extensions>
      </trkpt>
      <trkpt lat="45.35744517110288143157958984375" lon="-70.8124490082263946533203125">
        <ele>615.4000244140625</ele>
        <time>2026-08-21T10:59:24.000Z</time>
        <extensions>
          <ns3:TrackPointExtension>
            <ns3:hr>128</ns3:hr>
            <ns3:cad>0</ns3:cad>
          </ns3:TrackPointExtension>
        </extensions>
      </trkpt>
      <trkpt lat="45.3574440814554691314697265625" lon="-70.8124669454991817474365234375">
        <ele>615.5999755859375</ele>
        <time>2026-08-21T10:59:25.000Z</time>
        <extensions>
          <ns3:TrackPointExtension>
            <ns3:hr>127</ns3:hr>
            <ns3:cad>0</ns3:cad>
          </ns3:TrackPointExtension>
        </extensions>
      </trkpt>
      <trkpt lat="45.3574464283883571624755859375" lon="-70.8124880678951740264892578125">
        <ele>615.5999755859375</ele>
        <time>2026-08-21T10:59:26.000Z</time>
        <extensions>
          <ns3:TrackPointExtension>
            <ns3:hr>127</ns3:hr>
            <ns3:cad>0</ns3:cad>
          </ns3:TrackPointExtension>
        </extensions>
      </trkpt>
      <trkpt lat="45.3574417345225811004638671875" lon="-70.81250709481537342071533203125">
        <ele>615.79998779296875</ele>
        <time>2026-08-21T10:59:27.000Z</time>
        <extensions>
          <ns3:TrackPointExtension>
            <ns3:hr>128</ns3:hr>
            <ns3:cad>0</ns3:cad>
          </ns3:TrackPointExtension>
        </extensions>
      </trkpt>
      <trkpt lat="45.35743896849453449249267578125" lon="-70.81252687610685825347900390625">
        <ele>616</ele>
        <time>2026-08-21T10:59:28.000Z</time>
        <extensions>
          <ns3:TrackPointExtension>
            <ns3:hr>128</ns3:hr>
            <ns3:cad>0</ns3:cad>
          </ns3:TrackPointExtension>
        </extensions>
      </trkpt>
      <trkpt lat="45.35744299180805683135986328125" lon="-70.81254498101770877838134765625">
        <ele>616.20001220703125</ele>
        <time>2026-08-21T10:59:29.000Z</time>
        <extensions>
          <ns3:TrackPointExtension>
            <ns3:hr>128</ns3:hr>
            <ns3:cad>0</ns3:cad>
          </ns3:TrackPointExtension>
        </extensions>
      </trkpt>
      <trkpt lat="45.35744600929319858551025390625" lon="-70.81256124190986156463623046875">
        <ele>616.4000244140625</ele>
        <time>2026-08-21T10:59:30.000Z</time>
        <extensions>
          <ns3:TrackPointExtension>
            <ns3:hr>128</ns3:hr>
            <ns3:cad>0</ns3:cad>
          </ns3:TrackPointExtension>
        </extensions>
      </trkpt>
      <trkpt lat="45.35744634456932544708251953125" lon="-70.81257482059299945831298828125">
        <ele>616.5999755859375</ele>
        <time>2026-08-21T10:59:31.000Z</time>
        <extensions>
          <ns3:TrackPointExtension>
            <ns3:hr>127</ns3:hr>
            <ns3:cad>52</ns3:cad>
          </ns3:TrackPointExtension>
        </extensions>
      </trkpt>
      <trkpt lat="45.3574447520077228546142578125" lon="-70.81258672289550304412841796875">
        <ele>616.5999755859375</ele>
        <time>2026-08-21T10:59:32.000Z</time>
        <extensions>
          <ns3:TrackPointExtension>
            <ns3:hr>128</ns3:hr>
            <ns3:cad>52</ns3:cad>
          </ns3:TrackPointExtension>
        </extensions>
      </trkpt>
      <trkpt lat="45.357450954616069793701171875" lon="-70.81260600127279758453369140625">
        <ele>616.79998779296875</ele>
        <time>2026-08-21T10:59:33.000Z</time>
        <extensions>
          <ns3:TrackPointExtension>
            <ns3:hr>128</ns3:hr>
            <ns3:cad>51</ns3:cad>
          </ns3:TrackPointExtension>
        </extensions>
      </trkpt>
      <trkpt lat="45.3574526309967041015625" lon="-70.81261731684207916259765625">
        <ele>617</ele>
        <time>2026-08-21T10:59:34.000Z</time>
        <extensions>
          <ns3:TrackPointExtension>
            <ns3:hr>128</ns3:hr>
            <ns3:cad>51</ns3:cad>
          </ns3:TrackPointExtension>
        </extensions>
      </trkpt>
      <trkpt lat="45.35745321772992610931396484375" lon="-70.812624357640743255615234375">
        <ele>617.20001220703125</ele>
        <time>2026-08-21T10:59:35.000Z</time>
        <extensions>
          <ns3:TrackPointExtension>
            <ns3:hr>128</ns3:hr>
            <ns3:cad>51</ns3:cad>
          </ns3:TrackPointExtension>
        </extensions>
      </trkpt>
      <trkpt lat="45.3574504517018795013427734375" lon="-70.8126340806484222412109375">
        <ele>617.4000244140625</ele>
        <time>2026-08-21T10:59:36.000Z</time>
        <extensions>
          <ns3:TrackPointExtension>
            <ns3:hr>128</ns3:hr>
            <ns3:cad>51</ns3:cad>
          </ns3:TrackPointExtension>
        </extensions>
      </trkpt>
      <trkpt lat="45.35744885914027690887451171875" lon="-70.81264640204608440399169921875">
        <ele>617.5999755859375</ele>
        <time>2026-08-21T10:59:37.000Z</time>
        <extensions>
          <ns3:TrackPointExtension>
            <ns3:hr>128</ns3:hr>
            <ns3:cad>51</ns3:cad>
          </ns3:TrackPointExtension>
        </extensions>
      </trkpt>
      <trkpt lat="45.35744785331189632415771484375" lon="-70.81264656968414783477783203125">
        <ele>618</ele>
        <time>2026-08-21T10:59:38.000Z</time>
        <extensions>
          <ns3:TrackPointExtension>
            <ns3:hr>127</ns3:hr>
            <ns3:cad>0</ns3:cad>
          </ns3:TrackPointExtension>
        </extensions>
      </trkpt>
      <trkpt lat="45.35743460990488529205322265625" lon="-70.81265763379633426666259765625">
        <ele>618.20001220703125</ele>
        <time>2026-08-21T10:59:39.000Z</time>
        <extensions>
          <ns3:TrackPointExtension>
            <ns3:hr>127</ns3:hr>
            <ns3:cad>0</ns3:cad>
          </ns3:TrackPointExtension>
        </extensions>
      </trkpt>
      <trkpt lat="45.35742673091590404510498046875" lon="-70.81267230212688446044921875">
        <ele>618.5999755859375</ele>
        <time>2026-08-21T10:59:40.000Z</time>
        <extensions>
          <ns3:TrackPointExtension>
            <ns3:hr>127</ns3:hr>
            <ns3:cad>0</ns3:cad>
          </ns3:TrackPointExtension>
        </extensions>
      </trkpt>
      <trkpt lat="45.35742471925914287567138671875" lon="-70.812682695686817169189453125">
        <ele>618.79998779296875</ele>
        <time>2026-08-21T10:59:41.000Z</time>
        <extensions>
          <ns3:TrackPointExtension>
            <ns3:hr>128</ns3:hr>
            <ns3:cad>0</ns3:cad>
          </ns3:TrackPointExtension>
        </extensions>
      </trkpt>
      <trkpt lat="45.35742404870688915252685546875" lon="-70.81269384361803531646728515625">
        <ele>619.20001220703125</ele>
        <time>2026-08-21T10:59:42.000Z</time>
        <extensions>
          <ns3:TrackPointExtension>
            <ns3:hr>128</ns3:hr>
            <ns3:cad>0</ns3:cad>
          </ns3:TrackPointExtension>
        </extensions>
      </trkpt>
      <trkpt lat="45.35742371343076229095458984375" lon="-70.8127091825008392333984375">
        <ele>619.5999755859375</ele>
        <time>2026-08-21T10:59:43.000Z</time>
        <extensions>
          <ns3:TrackPointExtension>
            <ns3:hr>128</ns3:hr>
            <ns3:cad>0</ns3:cad>
          </ns3:TrackPointExtension>
        </extensions>
      </trkpt>
      <trkpt lat="45.3574299998581409454345703125" lon="-70.81271211616694927215576171875">
        <ele>619.79998779296875</ele>
        <time>2026-08-21T10:59:44.000Z</time>
        <extensions>
          <ns3:TrackPointExtension>
            <ns3:hr>128</ns3:hr>
            <ns3:cad>0</ns3:cad>
          </ns3:TrackPointExtension>
        </extensions>
      </trkpt>
      <trkpt lat="45.35743528045713901519775390625" lon="-70.81271932460367679595947265625">
        <ele>620.20001220703125</ele>
        <time>2026-08-21T10:59:45.000Z</time>
        <extensions>
          <ns3:TrackPointExtension>
            <ns3:hr>128</ns3:hr>
            <ns3:cad>0</ns3:cad>
          </ns3:TrackPointExtension>
        </extensions>
      </trkpt>
      <trkpt lat="45.3574276529252529144287109375" lon="-70.812729299068450927734375">
        <ele>620.4000244140625</ele>
        <time>2026-08-21T10:59:46.000Z</time>
        <extensions>
          <ns3:TrackPointExtension>
            <ns3:hr>128</ns3:hr>
            <ns3:cad>0</ns3:cad>
          </ns3:TrackPointExtension>
        </extensions>
      </trkpt>
      <trkpt lat="45.3574271500110626220703125" lon="-70.81274279393255710601806640625">
        <ele>620.79998779296875</ele>
        <time>2026-08-21T10:59:47.000Z</time>
        <extensions>
          <ns3:TrackPointExtension>
            <ns3:hr>128</ns3:hr>
            <ns3:cad>0</ns3:cad>
          </ns3:TrackPointExtension>
        </extensions>
      </trkpt>
      <trkpt lat="45.35742656327784061431884765625" lon="-70.812742374837398529052734375">
        <ele>621</ele>
        <time>2026-08-21T10:59:48.000Z</time>
        <extensions>
          <ns3:TrackPointExtension>
            <ns3:hr>129</ns3:hr>
            <ns3:cad>0</ns3:cad>
          </ns3:TrackPointExtension>
        </extensions>
      </trkpt>
      <trkpt lat="45.35742513835430145263671875" lon="-70.812750421464443206787109375">
        <ele>621.20001220703125</ele>
        <time>2026-08-21T10:59:49.000Z</time>
        <extensions>
          <ns3:TrackPointExtension>
            <ns3:hr>129</ns3:hr>
            <ns3:cad>0</ns3:cad>
          </ns3:TrackPointExtension>
        </extensions>
      </trkpt>
      <trkpt lat="45.35742002539336681365966796875" lon="-70.812763161957263946533203125">
        <ele>621.4000244140625</ele>
        <time>2026-08-21T10:59:50.000Z</time>
        <extensions>
          <ns3:TrackPointExtension>
            <ns3:hr>130</ns3:hr>
            <ns3:cad>0</ns3:cad>
          </ns3:TrackPointExtension>
        </extensions>
      </trkpt>
      <trkpt lat="45.35742019303143024444580078125" lon="-70.81276441924273967742919921875">
        <ele>621.79998779296875</ele>
        <time>2026-08-21T10:59:51.000Z</time>
        <extensions>
          <ns3:TrackPointExtension>
            <ns3:hr>131</ns3:hr>
            <ns3:cad>0</ns3:cad>
          </ns3:TrackPointExtension>
        </extensions>
      </trkpt>
      <trkpt lat="45.35742371343076229095458984375" lon="-70.81278051249682903289794921875">
        <ele>622</ele>
        <time>2026-08-21T10:59:52.000Z</time>
        <extensions>
          <ns3:TrackPointExtension>
            <ns3:hr>131</ns3:hr>
            <ns3:cad>0</ns3:cad>
          </ns3:TrackPointExtension>
        </extensions>
      </trkpt>
      <trkpt lat="45.35742321051657199859619140625" lon="-70.8127894811332225799560546875">
        <ele>622.20001220703125</ele>
        <time>2026-08-21T10:59:53.000Z</time>
        <extensions>
          <ns3:TrackPointExtension>
            <ns3:hr>132</ns3:hr>
            <ns3:cad>0</ns3:cad>
          </ns3:TrackPointExtension>
        </extensions>
      </trkpt>
      <trkpt lat="45.35742404870688915252685546875" lon="-70.8128022216260433197021484375">
        <ele>622.5999755859375</ele>
        <time>2026-08-21T10:59:54.000Z</time>
        <extensions>
          <ns3:TrackPointExtension>
            <ns3:hr>134</ns3:hr>
            <ns3:cad>0</ns3:cad>
          </ns3:TrackPointExtension>
        </extensions>
      </trkpt>
      <trkpt lat="45.357426814734935760498046875" lon="-70.81281906925141811370849609375">
        <ele>622.79998779296875</ele>
        <time>2026-08-21T10:59:55.000Z</time>
        <extensions>
          <ns3:TrackPointExtension>
            <ns3:hr>135</ns3:hr>
            <ns3:cad>0</ns3:cad>
          </ns3:TrackPointExtension>
        </extensions>
      </trkpt>
      <trkpt lat="45.3574266470968723297119140625" lon="-70.812832899391651153564453125">
        <ele>623</ele>
        <time>2026-08-21T10:59:56.000Z</time>
        <extensions>
          <ns3:TrackPointExtension>
            <ns3:hr>135</ns3:hr>
            <ns3:cad>0</ns3:cad>
          </ns3:TrackPointExtension>
        </extensions>
      </trkpt>
      <trkpt lat="45.35743142478168010711669921875" lon="-70.81284907646477222442626953125">
        <ele>623.20001220703125</ele>
        <time>2026-08-21T10:59:57.000Z</time>
        <extensions>
          <ns3:TrackPointExtension>
            <ns3:hr>136</ns3:hr>
            <ns3:cad>0</ns3:cad>
          </ns3:TrackPointExtension>
        </extensions>
      </trkpt>
      <trkpt lat="45.35743586719036102294921875" lon="-70.81286433152854442596435546875">
        <ele>623.4000244140625</ele>
        <time>2026-08-21T10:59:58.000Z</time>
        <extensions>
          <ns3:TrackPointExtension>
            <ns3:hr>136</ns3:hr>
            <ns3:cad>0</ns3:cad>
          </ns3:TrackPointExtension>
        </extensions>
      </trkpt>
      <trkpt lat="45.35744148306548595428466796875" lon="-70.8128743059933185577392578125">
        <ele>623.5999755859375</ele>
        <time>2026-08-21T10:59:59.000Z</time>
        <extensions>
          <ns3:TrackPointExtension>
            <ns3:hr>136</ns3:hr>
            <ns3:cad>44</ns3:cad>
          </ns3:TrackPointExtension>
        </extensions>
      </trkpt>
      <trkpt lat="45.357449613511562347412109375" lon="-70.81288897432386875152587890625">
        <ele>623.79998779296875</ele>
        <time>2026-08-21T11:00:00.000Z</time>
        <extensions>
          <ns3:TrackPointExtension>
            <ns3:hr>136</ns3:hr>
            <ns3:cad>44</ns3:cad>
          </ns3:TrackPointExtension>
        </extensions>
      </trkpt>
      <trkpt lat="45.35745724104344844818115234375" lon="-70.8129078336060047149658203125">
        <ele>624</ele>
        <time>2026-08-21T11:00:01.000Z</time>
        <extensions>
          <ns3:TrackPointExtension>
            <ns3:hr>136</ns3:hr>
            <ns3:cad>44</ns3:cad>
          </ns3:TrackPointExtension>
        </extensions>
      </trkpt>
      <trkpt lat="45.35746981389820575714111328125" lon="-70.812920741736888885498046875">
        <ele>624</ele>
        <time>2026-08-21T11:00:02.000Z</time>
        <extensions>
          <ns3:TrackPointExtension>
            <ns3:hr>137</ns3:hr>
            <ns3:cad>41</ns3:cad>
          </ns3:TrackPointExtension>
        </extensions>
      </trkpt>
      <trkpt lat="45.3574812971055507659912109375" lon="-70.81293121911585330963134765625">
        <ele>624.20001220703125</ele>
        <time>2026-08-21T11:00:03.000Z</time>
        <extensions>
          <ns3:TrackPointExtension>
            <ns3:hr>137</ns3:hr>
            <ns3:cad>41</ns3:cad>
          </ns3:TrackPointExtension>
        </extensions>
      </trkpt>
      <trkpt lat="45.357493199408054351806640625" lon="-70.8129390142858028411865234375">
        <ele>624.4000244140625</ele>
        <time>2026-08-21T11:00:04.000Z</time>
        <extensions>
          <ns3:TrackPointExtension>
            <ns3:hr>138</ns3:hr>
            <ns3:cad>43</ns3:cad>
          </ns3:TrackPointExtension>
        </extensions>
      </trkpt>
      <trkpt lat="45.35750350914895534515380859375" lon="-70.81294831819832324981689453125">
        <ele>624.4000244140625</ele>
        <time>2026-08-21T11:00:05.000Z</time>
        <extensions>
          <ns3:TrackPointExtension>
            <ns3:hr>138</ns3:hr>
            <ns3:cad>43</ns3:cad>
          </ns3:TrackPointExtension>
        </extensions>
      </trkpt>
      <trkpt lat="45.35751901566982269287109375" lon="-70.81295703537762165069580078125">
        <ele>624.5999755859375</ele>
        <time>2026-08-21T11:00:06.000Z</time>
        <extensions>
          <ns3:TrackPointExtension>
            <ns3:hr>139</ns3:hr>
            <ns3:cad>43</ns3:cad>
          </ns3:TrackPointExtension>
        </extensions>
      </trkpt>
      <trkpt lat="45.3575315885245800018310546875" lon="-70.812964998185634613037109375">
        <ele>624.79998779296875</ele>
        <time>2026-08-21T11:00:07.000Z</time>
        <extensions>
          <ns3:TrackPointExtension>
            <ns3:hr>139</ns3:hr>
            <ns3:cad>45</ns3:cad>
          </ns3:TrackPointExtension>
        </extensions>
      </trkpt>
      <trkpt lat="45.357546843588352203369140625" lon="-70.812968350946903228759765625">
        <ele>624.79998779296875</ele>
        <time>2026-08-21T11:00:08.000Z</time>
        <extensions>
          <ns3:TrackPointExtension>
            <ns3:hr>139</ns3:hr>
            <ns3:cad>45</ns3:cad>
          </ns3:TrackPointExtension>
        </extensions>
      </trkpt>
      <trkpt lat="45.3575614280998706817626953125" lon="-70.81297145225107669830322265625">
        <ele>625</ele>
        <time>2026-08-21T11:00:09.000Z</time>
        <extensions>
          <ns3:TrackPointExtension>
            <ns3:hr>139</ns3:hr>
            <ns3:cad>46</ns3:cad>
          </ns3:TrackPointExtension>
        </extensions>
      </trkpt>
      <trkpt lat="45.3575761802494525909423828125" lon="-70.81297279335558414459228515625">
        <ele>625</ele>
        <time>2026-08-21T11:00:10.000Z</time>
        <extensions>
          <ns3:TrackPointExtension>
            <ns3:hr>140</ns3:hr>
            <ns3:cad>46</ns3:cad>
          </ns3:TrackPointExtension>
        </extensions>
      </trkpt>
      <trkpt lat="45.35758548416197299957275390625" lon="-70.8129735477268695831298828125">
        <ele>625</ele>
        <time>2026-08-21T11:00:11.000Z</time>
        <extensions>
          <ns3:TrackPointExtension>
            <ns3:hr>140</ns3:hr>
            <ns3:cad>46</ns3:cad>
          </ns3:TrackPointExtension>
        </extensions>
      </trkpt>
      <trkpt lat="45.35760073922574520111083984375" lon="-70.81297933124005794525146484375">
        <ele>625</ele>
        <time>2026-08-21T11:00:12.000Z</time>
        <extensions>
          <ns3:TrackPointExtension>
            <ns3:hr>140</ns3:hr>
            <ns3:cad>49</ns3:cad>
          </ns3:TrackPointExtension>
        </extensions>
      </trkpt>
      <trkpt lat="45.3576120547950267791748046875" lon="-70.8129836060106754302978515625">
        <ele>625.20001220703125</ele>
        <time>2026-08-21T11:00:13.000Z</time>
        <extensions>
          <ns3:TrackPointExtension>
            <ns3:hr>140</ns3:hr>
            <ns3:cad>49</ns3:cad>
          </ns3:TrackPointExtension>
        </extensions>
      </trkpt>
      <trkpt lat="45.3576214425265789031982421875" lon="-70.81298343837261199951171875">
        <ele>625.20001220703125</ele>
        <time>2026-08-21T11:00:14.000Z</time>
        <extensions>
          <ns3:TrackPointExtension>
            <ns3:hr>141</ns3:hr>
            <ns3:cad>49</ns3:cad>
          </ns3:TrackPointExtension>
        </extensions>
      </trkpt>
      <trkpt lat="45.35763124935328960418701171875" lon="-70.81298268400132656097412109375">
        <ele>625.20001220703125</ele>
        <time>2026-08-21T11:00:15.000Z</time>
        <extensions>
          <ns3:TrackPointExtension>
            <ns3:hr>140</ns3:hr>
            <ns3:cad>49</ns3:cad>
          </ns3:TrackPointExtension>
        </extensions>
      </trkpt>
      <trkpt lat="45.357648432254791259765625" lon="-70.81298938952386379241943359375">
        <ele>625.20001220703125</ele>
        <time>2026-08-21T11:00:16.000Z</time>
        <extensions>
          <ns3:TrackPointExtension>
            <ns3:hr>140</ns3:hr>
            <ns3:cad>0</ns3:cad>
          </ns3:TrackPointExtension>
        </extensions>
      </trkpt>
      <trkpt lat="45.35766377113759517669677734375" lon="-70.81299106590449810028076171875">
        <ele>625.4000244140625</ele>
        <time>2026-08-21T11:00:17.000Z</time>
        <extensions>
          <ns3:TrackPointExtension>
            <ns3:hr>140</ns3:hr>
            <ns3:cad>0</ns3:cad>
          </ns3:TrackPointExtension>
        </extensions>
      </trkpt>
      <trkpt lat="45.35767726600170135498046875" lon="-70.8129893057048320770263671875">
        <ele>625.4000244140625</ele>
        <time>2026-08-21T11:00:18.000Z</time>
        <extensions>
          <ns3:TrackPointExtension>
            <ns3:hr>140</ns3:hr>
            <ns3:cad>0</ns3:cad>
          </ns3:TrackPointExtension>
        </extensions>
      </trkpt>
      <trkpt lat="45.3576878271996974945068359375" lon="-70.81298788078129291534423828125">
        <ele>625.4000244140625</ele>
        <time>2026-08-21T11:00:19.000Z</time>
        <extensions>
          <ns3:TrackPointExtension>
            <ns3:hr>140</ns3:hr>
            <ns3:cad>0</ns3:cad>
          </ns3:TrackPointExtension>
        </extensions>
      </trkpt>
      <trkpt lat="45.3577087819576263427734375" lon="-70.81298436038196086883544921875">
        <ele>625.4000244140625</ele>
        <time>2026-08-21T11:00:20.000Z</time>
        <extensions>
          <ns3:TrackPointExtension>
            <ns3:hr>140</ns3:hr>
            <ns3:cad>0</ns3:cad>
          </ns3:TrackPointExtension>
        </extensions>
      </trkpt>
      <trkpt lat="45.35772018134593963623046875" lon="-70.81298570148646831512451171875">
        <ele>625.4000244140625</ele>
        <time>2026-08-21T11:00:21.000Z</time>
        <extensions>
          <ns3:TrackPointExtension>
            <ns3:hr>140</ns3:hr>
            <ns3:cad>0</ns3:cad>
          </ns3:TrackPointExtension>
        </extensions>
      </trkpt>
      <trkpt lat="45.357728563249111175537109375" lon="-70.81298972479999065399169921875">
        <ele>625.4000244140625</ele>
        <time>2026-08-21T11:00:22.000Z</time>
        <extensions>
          <ns3:TrackPointExtension>
            <ns3:hr>140</ns3:hr>
            <ns3:cad>0</ns3:cad>
          </ns3:TrackPointExtension>
        </extensions>
      </trkpt>
      <trkpt lat="45.3577391244471073150634765625" lon="-70.81299458630383014678955078125">
        <ele>625.4000244140625</ele>
        <time>2026-08-21T11:00:23.000Z</time>
        <extensions>
          <ns3:TrackPointExtension>
            <ns3:hr>140</ns3:hr>
            <ns3:cad>52</ns3:cad>
          </ns3:TrackPointExtension>
        </extensions>
      </trkpt>
      <trkpt lat="45.35774524323642253875732421875" lon="-70.8130003698170185089111328125">
        <ele>625.5999755859375</ele>
        <time>2026-08-21T11:00:24.000Z</time>
        <extensions>
          <ns3:TrackPointExtension>
            <ns3:hr>140</ns3:hr>
            <ns3:cad>52</ns3:cad>
          </ns3:TrackPointExtension>
        </extensions>
      </trkpt>
      <trkpt lat="45.35774298012256622314453125" lon="-70.8130027167499065399169921875">
        <ele>625.79998779296875</ele>
        <time>2026-08-21T11:00:25.000Z</time>
        <extensions>
          <ns3:TrackPointExtension>
            <ns3:hr>139</ns3:hr>
            <ns3:cad>52</ns3:cad>
          </ns3:TrackPointExtension>
        </extensions>
      </trkpt>
      <trkpt lat="45.3577448241412639617919921875" lon="-70.81301470287144184112548828125">
        <ele>626</ele>
        <time>2026-08-21T11:00:26.000Z</time>
        <extensions>
          <ns3:TrackPointExtension>
            <ns3:hr>138</ns3:hr>
            <ns3:cad>52</ns3:cad>
          </ns3:TrackPointExtension>
        </extensions>
      </trkpt>
      <trkpt lat="45.35774524323642253875732421875" lon="-70.81302057020366191864013671875">
        <ele>626.20001220703125</ele>
        <time>2026-08-21T11:00:27.000Z</time>
        <extensions>
          <ns3:TrackPointExtension>
            <ns3:hr>137</ns3:hr>
            <ns3:cad>52</ns3:cad>
          </ns3:TrackPointExtension>
        </extensions>
      </trkpt>
      <trkpt lat="45.35774541087448596954345703125" lon="-70.81302593462169170379638671875">
        <ele>626.5999755859375</ele>
        <time>2026-08-21T11:00:28.000Z</time>
        <extensions>
          <ns3:TrackPointExtension>
            <ns3:hr>137</ns3:hr>
            <ns3:cad>50</ns3:cad>
          </ns3:TrackPointExtension>
        </extensions>
      </trkpt>
      <trkpt lat="45.35774775780737400054931640625" lon="-70.81303565762937068939208984375">
        <ele>626.79998779296875</ele>
        <time>2026-08-21T11:00:29.000Z</time>
        <extensions>
          <ns3:TrackPointExtension>
            <ns3:hr>137</ns3:hr>
            <ns3:cad>50</ns3:cad>
          </ns3:TrackPointExtension>
        </extensions>
      </trkpt>
      <trkpt lat="45.35774859599769115447998046875" lon="-70.81304521299898624420166015625">
        <ele>627</ele>
        <time>2026-08-21T11:00:30.000Z</time>
        <extensions>
          <ns3:TrackPointExtension>
            <ns3:hr>136</ns3:hr>
            <ns3:cad>50</ns3:cad>
          </ns3:TrackPointExtension>
        </extensions>
      </trkpt>
      <trkpt lat="45.35774960182607173919677734375" lon="-70.81305962987244129180908203125">
        <ele>627.20001220703125</ele>
        <time>2026-08-21T11:00:31.000Z</time>
        <extensions>
          <ns3:TrackPointExtension>
            <ns3:hr>136</ns3:hr>
            <ns3:cad>50</ns3:cad>
          </ns3:TrackPointExtension>
        </extensions>
      </trkpt>
      <trkpt lat="45.35774976946413516998291015625" lon="-70.81307488493621349334716796875">
        <ele>627.4000244140625</ele>
        <time>2026-08-21T11:00:32.000Z</time>
        <extensions>
          <ns3:TrackPointExtension>
            <ns3:hr>136</ns3:hr>
            <ns3:cad>50</ns3:cad>
          </ns3:TrackPointExtension>
        </extensions>
      </trkpt>
      <trkpt lat="45.35775027237832546234130859375" lon="-70.8130888827145099639892578125">
        <ele>627.5999755859375</ele>
        <time>2026-08-21T11:00:33.000Z</time>
        <extensions>
          <ns3:TrackPointExtension>
            <ns3:hr>135</ns3:hr>
            <ns3:cad>46</ns3:cad>
          </ns3:TrackPointExtension>
        </extensions>
      </trkpt>
      <trkpt lat="45.35775094293057918548583984375" lon="-70.813100449740886688232421875">
        <ele>627.79998779296875</ele>
        <time>2026-08-21T11:00:34.000Z</time>
        <extensions>
          <ns3:TrackPointExtension>
            <ns3:hr>135</ns3:hr>
            <ns3:cad>46</ns3:cad>
          </ns3:TrackPointExtension>
        </extensions>
      </trkpt>
      <trkpt lat="45.3577468357980251312255859375" lon="-70.813109166920185089111328125">
        <ele>627.79998779296875</ele>
        <time>2026-08-21T11:00:35.000Z</time>
        <extensions>
          <ns3:TrackPointExtension>
            <ns3:hr>136</ns3:hr>
            <ns3:cad>47</ns3:cad>
          </ns3:TrackPointExtension>
        </extensions>
      </trkpt>
      <trkpt lat="45.3577438183128833770751953125" lon="-70.81312249414622783660888671875">
        <ele>628</ele>
        <time>2026-08-21T11:00:36.000Z</time>
        <extensions>
          <ns3:TrackPointExtension>
            <ns3:hr>136</ns3:hr>
            <ns3:cad>47</ns3:cad>
          </ns3:TrackPointExtension>
        </extensions>
      </trkpt>
      <trkpt lat="45.35774105228483676910400390625" lon="-70.8131294511258602142333984375">
        <ele>628.20001220703125</ele>
        <time>2026-08-21T11:00:37.000Z</time>
        <extensions>
          <ns3:TrackPointExtension>
            <ns3:hr>136</ns3:hr>
            <ns3:cad>47</ns3:cad>
          </ns3:TrackPointExtension>
        </extensions>
      </trkpt>
      <trkpt lat="45.35773820243775844573974609375" lon="-70.81314437091350555419921875">
        <ele>628.5999755859375</ele>
        <time>2026-08-21T11:00:38.000Z</time>
        <extensions>
          <ns3:TrackPointExtension>
            <ns3:hr>136</ns3:hr>
            <ns3:cad>49</ns3:cad>
          </ns3:TrackPointExtension>
        </extensions>
      </trkpt>
      <trkpt lat="45.35773702897131443023681640625" lon="-70.8131602965295314788818359375">
        <ele>628.79998779296875</ele>
        <time>2026-08-21T11:00:39.000Z</time>
        <extensions>
          <ns3:TrackPointExtension>
            <ns3:hr>136</ns3:hr>
            <ns3:cad>49</ns3:cad>
          </ns3:TrackPointExtension>
        </extensions>
      </trkpt>
      <trkpt lat="45.357740633189678192138671875" lon="-70.81317119300365447998046875">
        <ele>629</ele>
        <time>2026-08-21T11:00:40.000Z</time>
        <extensions>
          <ns3:TrackPointExtension>
            <ns3:hr>136</ns3:hr>
            <ns3:cad>49</ns3:cad>
          </ns3:TrackPointExtension>
        </extensions>
      </trkpt>
      <trkpt lat="45.357738621532917022705078125" lon="-70.8131810836493968963623046875">
        <ele>629.20001220703125</ele>
        <time>2026-08-21T11:00:41.000Z</time>
        <extensions>
          <ns3:TrackPointExtension>
            <ns3:hr>136</ns3:hr>
            <ns3:cad>50</ns3:cad>
          </ns3:TrackPointExtension>
        </extensions>
      </trkpt>
      <trkpt lat="45.357738621532917022705078125" lon="-70.81319994293153285980224609375">
        <ele>629.4000244140625</ele>
        <time>2026-08-21T11:00:42.000Z</time>
        <extensions>
          <ns3:TrackPointExtension>
            <ns3:hr>136</ns3:hr>
            <ns3:cad>50</ns3:cad>
          </ns3:TrackPointExtension>
        </extensions>
      </trkpt>
      <trkpt lat="45.35773853771388530731201171875" lon="-70.8132102526724338531494140625">
        <ele>629.5999755859375</ele>
        <time>2026-08-21T11:00:43.000Z</time>
        <extensions>
          <ns3:TrackPointExtension>
            <ns3:hr>136</ns3:hr>
            <ns3:cad>50</ns3:cad>
          </ns3:TrackPointExtension>
        </extensions>
      </trkpt>
      <trkpt lat="45.35773484967648983001708984375" lon="-70.8132186345756053924560546875">
        <ele>629.79998779296875</ele>
        <time>2026-08-21T11:00:44.000Z</time>
        <extensions>
          <ns3:TrackPointExtension>
            <ns3:hr>136</ns3:hr>
            <ns3:cad>50</ns3:cad>
          </ns3:TrackPointExtension>
        </extensions>
      </trkpt>
      <trkpt lat="45.3577320836484432220458984375" lon="-70.81322827376425266265869140625">
        <ele>630.20001220703125</ele>
        <time>2026-08-21T11:00:45.000Z</time>
        <extensions>
          <ns3:TrackPointExtension>
            <ns3:hr>136</ns3:hr>
            <ns3:cad>48</ns3:cad>
          </ns3:TrackPointExtension>
        </extensions>
      </trkpt>
      <trkpt lat="45.357733257114887237548828125" lon="-70.813243277370929718017578125">
        <ele>630.4000244140625</ele>
        <time>2026-08-21T11:00:46.000Z</time>
        <extensions>
          <ns3:TrackPointExtension>
            <ns3:hr>136</ns3:hr>
            <ns3:cad>48</ns3:cad>
          </ns3:TrackPointExtension>
        </extensions>
      </trkpt>
      <trkpt lat="45.3577337600290775299072265625" lon="-70.8132628910243511199951171875">
        <ele>630.5999755859375</ele>
        <time>2026-08-21T11:00:47.000Z</time>
        <extensions>
          <ns3:TrackPointExtension>
            <ns3:hr>136</ns3:hr>
            <ns3:cad>50</ns3:cad>
          </ns3:TrackPointExtension>
        </extensions>
      </trkpt>
      <trkpt lat="45.35772914998233318328857421875" lon="-70.81327856518328189849853515625">
        <ele>630.79998779296875</ele>
        <time>2026-08-21T11:00:48.000Z</time>
        <extensions>
          <ns3:TrackPointExtension>
            <ns3:hr>136</ns3:hr>
            <ns3:cad>50</ns3:cad>
          </ns3:TrackPointExtension>
        </extensions>
      </trkpt>
      <trkpt lat="45.357727892696857452392578125" lon="-70.81329055130481719970703125">
        <ele>631.20001220703125</ele>
        <time>2026-08-21T11:00:49.000Z</time>
        <extensions>
          <ns3:TrackPointExtension>
            <ns3:hr>136</ns3:hr>
            <ns3:cad>50</ns3:cad>
          </ns3:TrackPointExtension>
        </extensions>
      </trkpt>
      <trkpt lat="45.3577270545065402984619140625" lon="-70.81330253742635250091552734375">
        <ele>631.4000244140625</ele>
        <time>2026-08-21T11:00:50.000Z</time>
        <extensions>
          <ns3:TrackPointExtension>
            <ns3:hr>136</ns3:hr>
            <ns3:cad>47</ns3:cad>
          </ns3:TrackPointExtension>
        </extensions>
      </trkpt>
      <trkpt lat="45.35772328265011310577392578125" lon="-70.81331645138561725616455078125">
        <ele>631.5999755859375</ele>
        <time>2026-08-21T11:00:51.000Z</time>
        <extensions>
          <ns3:TrackPointExtension>
            <ns3:hr>136</ns3:hr>
            <ns3:cad>47</ns3:cad>
          </ns3:TrackPointExtension>
        </extensions>
      </trkpt>
      <trkpt lat="45.35772244445979595184326171875" lon="-70.81333371810615062713623046875">
        <ele>632</ele>
        <time>2026-08-21T11:00:52.000Z</time>
        <extensions>
          <ns3:TrackPointExtension>
            <ns3:hr>136</ns3:hr>
            <ns3:cad>48</ns3:cad>
          </ns3:TrackPointExtension>
        </extensions>
      </trkpt>
      <trkpt lat="45.3577180020511150360107421875" lon="-70.8133475482463836669921875">
        <ele>632.20001220703125</ele>
        <time>2026-08-21T11:00:53.000Z</time>
        <extensions>
          <ns3:TrackPointExtension>
            <ns3:hr>136</ns3:hr>
            <ns3:cad>49</ns3:cad>
          </ns3:TrackPointExtension>
        </extensions>
      </trkpt>
      <trkpt lat="45.35771171562373638153076171875" lon="-70.81335182301700115203857421875">
        <ele>632.4000244140625</ele>
        <time>2026-08-21T11:00:54.000Z</time>
        <extensions>
          <ns3:TrackPointExtension>
            <ns3:hr>136</ns3:hr>
            <ns3:cad>49</ns3:cad>
          </ns3:TrackPointExtension>
        </extensions>
      </trkpt>
      <trkpt lat="45.35770534537732601165771484375" lon="-70.813361294567584991455078125">
        <ele>632.5999755859375</ele>
        <time>2026-08-21T11:00:55.000Z</time>
        <extensions>
          <ns3:TrackPointExtension>
            <ns3:hr>136</ns3:hr>
            <ns3:cad>49</ns3:cad>
          </ns3:TrackPointExtension>
        </extensions>
      </trkpt>
      <trkpt lat="45.35769947804510593414306640625" lon="-70.81337411887943744659423828125">
        <ele>632.79998779296875</ele>
        <time>2026-08-21T11:00:56.000Z</time>
        <extensions>
          <ns3:TrackPointExtension>
            <ns3:hr>137</ns3:hr>
            <ns3:cad>49</ns3:cad>
          </ns3:TrackPointExtension>
        </extensions>
      </trkpt>
      <trkpt lat="45.3576941974461078643798828125" lon="-70.81339356489479541778564453125">
        <ele>633</ele>
        <time>2026-08-21T11:00:57.000Z</time>
        <extensions>
          <ns3:TrackPointExtension>
            <ns3:hr>137</ns3:hr>
            <ns3:cad>49</ns3:cad>
          </ns3:TrackPointExtension>
        </extensions>
      </trkpt>
      <trkpt lat="45.357691347599029541015625" lon="-70.81340228207409381866455078125">
        <ele>633.20001220703125</ele>
        <time>2026-08-21T11:00:58.000Z</time>
        <extensions>
          <ns3:TrackPointExtension>
            <ns3:hr>137</ns3:hr>
            <ns3:cad>49</ns3:cad>
          </ns3:TrackPointExtension>
        </extensions>
      </trkpt>
      <trkpt lat="45.35768103785812854766845703125" lon="-70.813413597643375396728515625">
        <ele>633.4000244140625</ele>
        <time>2026-08-21T11:00:59.000Z</time>
        <extensions>
          <ns3:TrackPointExtension>
            <ns3:hr>138</ns3:hr>
            <ns3:cad>49</ns3:cad>
          </ns3:TrackPointExtension>
        </extensions>
      </trkpt>
      <trkpt lat="45.357670895755290985107421875" lon="-70.813419632613658905029296875">
        <ele>633.79998779296875</ele>
        <time>2026-08-21T11:01:00.000Z</time>
        <extensions>
          <ns3:TrackPointExtension>
            <ns3:hr>138</ns3:hr>
            <ns3:cad>48</ns3:cad>
          </ns3:TrackPointExtension>
        </extensions>
      </trkpt>
      <trkpt lat="45.3576620109379291534423828125" lon="-70.81342893652617931365966796875">
        <ele>634</ele>
        <time>2026-08-21T11:01:01.000Z</time>
        <extensions>
          <ns3:TrackPointExtension>
            <ns3:hr>138</ns3:hr>
            <ns3:cad>48</ns3:cad>
          </ns3:TrackPointExtension>
        </extensions>
      </trkpt>
      <trkpt lat="45.35765488632023334503173828125" lon="-70.813434384763240814208984375">
        <ele>634.20001220703125</ele>
        <time>2026-08-21T11:01:02.000Z</time>
        <extensions>
          <ns3:TrackPointExtension>
            <ns3:hr>139</ns3:hr>
            <ns3:cad>48</ns3:cad>
          </ns3:TrackPointExtension>
        </extensions>
      </trkpt>
      <trkpt lat="45.35764549858868122100830078125" lon="-70.81344637088477611541748046875">
        <ele>634.5999755859375</ele>
        <time>2026-08-21T11:01:03.000Z</time>
        <extensions>
          <ns3:TrackPointExtension>
            <ns3:hr>139</ns3:hr>
            <ns3:cad>48</ns3:cad>
          </ns3:TrackPointExtension>
        </extensions>
      </trkpt>
      <trkpt lat="45.35763032734394073486328125" lon="-70.81346849910914897918701171875">
        <ele>634.79998779296875</ele>
        <time>2026-08-21T11:01:04.000Z</time>
        <extensions>
          <ns3:TrackPointExtension>
            <ns3:hr>141</ns3:hr>
            <ns3:cad>45</ns3:cad>
          </ns3:TrackPointExtension>
        </extensions>
      </trkpt>
      <trkpt lat="45.35762588493525981903076171875" lon="-70.8134875260293483734130859375">
        <ele>634.79998779296875</ele>
        <time>2026-08-21T11:01:05.000Z</time>
        <extensions>
          <ns3:TrackPointExtension>
            <ns3:hr>141</ns3:hr>
            <ns3:cad>45</ns3:cad>
          </ns3:TrackPointExtension>
        </extensions>
      </trkpt>
      <trkpt lat="45.3576227836310863494873046875" lon="-70.81351543776690959930419921875">
        <ele>635</ele>
        <time>2026-08-21T11:01:06.000Z</time>
        <extensions>
          <ns3:TrackPointExtension>
            <ns3:hr>142</ns3:hr>
            <ns3:cad>45</ns3:cad>
          </ns3:TrackPointExtension>
        </extensions>
      </trkpt>
      <trkpt lat="45.35762152634561061859130859375" lon="-70.813536979258060455322265625">
        <ele>635</ele>
        <time>2026-08-21T11:01:07.000Z</time>
        <extensions>
          <ns3:TrackPointExtension>
            <ns3:hr>143</ns3:hr>
            <ns3:cad>45</ns3:cad>
          </ns3:TrackPointExtension>
        </extensions>
      </trkpt>
      <trkpt lat="45.35762052051723003387451171875" lon="-70.81355080939829349517822265625">
        <ele>635</ele>
        <time>2026-08-21T11:01:08.000Z</time>
        <extensions>
          <ns3:TrackPointExtension>
            <ns3:hr>143</ns3:hr>
            <ns3:cad>45</ns3:cad>
          </ns3:TrackPointExtension>
        </extensions>
      </trkpt>
      <trkpt lat="45.3576154075562953948974609375" lon="-70.8135673217475414276123046875">
        <ele>635</ele>
        <time>2026-08-21T11:01:09.000Z</time>
        <extensions>
          <ns3:TrackPointExtension>
            <ns3:hr>143</ns3:hr>
            <ns3:cad>51</ns3:cad>
          </ns3:TrackPointExtension>
        </extensions>
      </trkpt>
      <trkpt lat="45.35760694183409214019775390625" lon="-70.81358551047742366790771484375">
        <ele>635.20001220703125</ele>
        <time>2026-08-21T11:01:10.000Z</time>
        <extensions>
          <ns3:TrackPointExtension>
            <ns3:hr>144</ns3:hr>
            <ns3:cad>51</ns3:cad>
          </ns3:TrackPointExtension>
        </extensions>
      </trkpt>
      <trkpt lat="45.35759638063609600067138671875" lon="-70.81360579468309879302978515625">
        <ele>635.20001220703125</ele>
        <time>2026-08-21T11:01:11.000Z</time>
        <extensions>
          <ns3:TrackPointExtension>
            <ns3:hr>144</ns3:hr>
            <ns3:cad>51</ns3:cad>
          </ns3:TrackPointExtension>
        </extensions>
      </trkpt>
      <trkpt lat="45.3575907647609710693359375" lon="-70.81362507306039333343505859375">
        <ele>635.4000244140625</ele>
        <time>2026-08-21T11:01:12.000Z</time>
        <extensions>
          <ns3:TrackPointExtension>
            <ns3:hr>144</ns3:hr>
            <ns3:cad>0</ns3:cad>
          </ns3:TrackPointExtension>
        </extensions>
      </trkpt>
      <trkpt lat="45.3575872443616390228271484375" lon="-70.81364887766540050506591796875">
        <ele>635.4000244140625</ele>
        <time>2026-08-21T11:01:13.000Z</time>
        <extensions>
          <ns3:TrackPointExtension>
            <ns3:hr>145</ns3:hr>
            <ns3:cad>0</ns3:cad>
          </ns3:TrackPointExtension>
        </extensions>
      </trkpt>
      <trkpt lat="45.3575808741152286529541015625" lon="-70.81366715021431446075439453125">
        <ele>635.4000244140625</ele>
        <time>2026-08-21T11:01:14.000Z</time>
        <extensions>
          <ns3:TrackPointExtension>
            <ns3:hr>144</ns3:hr>
            <ns3:cad>0</ns3:cad>
          </ns3:TrackPointExtension>
        </extensions>
      </trkpt>
      <trkpt lat="45.3575773537158966064453125" lon="-70.81368743441998958587646484375">
        <ele>635.4000244140625</ele>
        <time>2026-08-21T11:01:15.000Z</time>
        <extensions>
          <ns3:TrackPointExtension>
            <ns3:hr>144</ns3:hr>
            <ns3:cad>0</ns3:cad>
          </ns3:TrackPointExtension>
        </extensions>
      </trkpt>
      <trkpt lat="45.357579030096530914306640625" lon="-70.81370956264436244964599609375">
        <ele>635.4000244140625</ele>
        <time>2026-08-21T11:01:16.000Z</time>
        <extensions>
          <ns3:TrackPointExtension>
            <ns3:hr>144</ns3:hr>
            <ns3:cad>0</ns3:cad>
          </ns3:TrackPointExtension>
        </extensions>
      </trkpt>
      <trkpt lat="45.35758162848651409149169921875" lon="-70.813726745545864105224609375">
        <ele>635.4000244140625</ele>
        <time>2026-08-21T11:01:17.000Z</time>
        <extensions>
          <ns3:TrackPointExtension>
            <ns3:hr>144</ns3:hr>
            <ns3:cad>0</ns3:cad>
          </ns3:TrackPointExtension>
        </extensions>
      </trkpt>
      <trkpt lat="45.357582382857799530029296875" lon="-70.8137477003037929534912109375">
        <ele>635.20001220703125</ele>
        <time>2026-08-21T11:01:18.000Z</time>
        <extensions>
          <ns3:TrackPointExtension>
            <ns3:hr>144</ns3:hr>
            <ns3:cad>0</ns3:cad>
          </ns3:TrackPointExtension>
        </extensions>
      </trkpt>
      <trkpt lat="45.35758447833359241485595703125" lon="-70.8137621171772480010986328125">
        <ele>635</ele>
        <time>2026-08-21T11:01:19.000Z</time>
        <extensions>
          <ns3:TrackPointExtension>
            <ns3:hr>144</ns3:hr>
            <ns3:cad>0</ns3:cad>
          </ns3:TrackPointExtension>
        </extensions>
      </trkpt>
      <trkpt lat="45.3575932793319225311279296875" lon="-70.81378349103033542633056640625">
        <ele>634.5999755859375</ele>
        <time>2026-08-21T11:01:20.000Z</time>
        <extensions>
          <ns3:TrackPointExtension>
            <ns3:hr>145</ns3:hr>
            <ns3:cad>0</ns3:cad>
          </ns3:TrackPointExtension>
        </extensions>
      </trkpt>
      <trkpt lat="45.35759503953158855438232421875" lon="-70.81380628980696201324462890625">
        <ele>634.4000244140625</ele>
        <time>2026-08-21T11:01:21.000Z</time>
        <extensions>
          <ns3:TrackPointExtension>
            <ns3:hr>144</ns3:hr>
            <ns3:cad>41</ns3:cad>
          </ns3:TrackPointExtension>
        </extensions>
      </trkpt>
      <trkpt lat="45.3575936146080493927001953125" lon="-70.81382757984101772308349609375">
        <ele>634.20001220703125</ele>
        <time>2026-08-21T11:01:22.000Z</time>
        <extensions>
          <ns3:TrackPointExtension>
            <ns3:hr>144</ns3:hr>
            <ns3:cad>41</ns3:cad>
          </ns3:TrackPointExtension>
        </extensions>
      </trkpt>
      <trkpt lat="45.35759805701673030853271484375" lon="-70.8138437569141387939453125">
        <ele>634</ele>
        <time>2026-08-21T11:01:23.000Z</time>
        <extensions>
          <ns3:TrackPointExtension>
            <ns3:hr>144</ns3:hr>
            <ns3:cad>60</ns3:cad>
          </ns3:TrackPointExtension>
        </extensions>
      </trkpt>
      <trkpt lat="45.3576050139963626861572265625" lon="-70.8138660527765750885009765625">
        <ele>633.79998779296875</ele>
        <time>2026-08-21T11:01:24.000Z</time>
        <extensions>
          <ns3:TrackPointExtension>
            <ns3:hr>144</ns3:hr>
            <ns3:cad>60</ns3:cad>
          </ns3:TrackPointExtension>
        </extensions>
      </trkpt>
      <trkpt lat="45.357613898813724517822265625" lon="-70.8138838224112987518310546875">
        <ele>633.5999755859375</ele>
        <time>2026-08-21T11:01:25.000Z</time>
        <extensions>
          <ns3:TrackPointExtension>
            <ns3:hr>144</ns3:hr>
            <ns3:cad>60</ns3:cad>
          </ns3:TrackPointExtension>
        </extensions>
      </trkpt>
      <trkpt lat="45.35761968232691287994384765625" lon="-70.81390678882598876953125">
        <ele>633.20001220703125</ele>
        <time>2026-08-21T11:01:26.000Z</time>
        <extensions>
          <ns3:TrackPointExtension>
            <ns3:hr>144</ns3:hr>
            <ns3:cad>60</ns3:cad>
          </ns3:TrackPointExtension>
        </extensions>
      </trkpt>
      <trkpt lat="45.35762672312557697296142578125" lon="-70.81391961313784122467041015625">
        <ele>633</ele>
        <time>2026-08-21T11:01:27.000Z</time>
        <extensions>
          <ns3:TrackPointExtension>
            <ns3:hr>144</ns3:hr>
            <ns3:cad>60</ns3:cad>
          </ns3:TrackPointExtension>
        </extensions>
      </trkpt>
      <trkpt lat="45.357634685933589935302734375" lon="-70.8139337785542011260986328125">
        <ele>633</ele>
        <time>2026-08-21T11:01:28.000Z</time>
        <extensions>
          <ns3:TrackPointExtension>
            <ns3:hr>143</ns3:hr>
            <ns3:cad>60</ns3:cad>
          </ns3:TrackPointExtension>
        </extensions>
      </trkpt>
      <trkpt lat="45.3576418943703174591064453125" lon="-70.81394257955253124237060546875">
        <ele>632.5999755859375</ele>
        <time>2026-08-21T11:01:29.000Z</time>
        <extensions>
          <ns3:TrackPointExtension>
            <ns3:hr>143</ns3:hr>
            <ns3:cad>60</ns3:cad>
          </ns3:TrackPointExtension>
        </extensions>
      </trkpt>
      <trkpt lat="45.35765203647315502166748046875" lon="-70.81395582295954227447509765625">
        <ele>632.4000244140625</ele>
        <time>2026-08-21T11:01:30.000Z</time>
        <extensions>
          <ns3:TrackPointExtension>
            <ns3:hr>143</ns3:hr>
            <ns3:cad>60</ns3:cad>
          </ns3:TrackPointExtension>
        </extensions>
      </trkpt>
      <trkpt lat="45.35766519606113433837890625" lon="-70.81397174857556819915771484375">
        <ele>632.20001220703125</ele>
        <time>2026-08-21T11:01:31.000Z</time>
        <extensions>
          <ns3:TrackPointExtension>
            <ns3:hr>142</ns3:hr>
            <ns3:cad>60</ns3:cad>
          </ns3:TrackPointExtension>
        </extensions>
      </trkpt>
      <trkpt lat="45.3576757572591304779052734375" lon="-70.8139807172119617462158203125">
        <ele>632</ele>
        <time>2026-08-21T11:01:32.000Z</time>
        <extensions>
          <ns3:TrackPointExtension>
            <ns3:hr>142</ns3:hr>
            <ns3:cad>60</ns3:cad>
          </ns3:TrackPointExtension>
        </extensions>
      </trkpt>
      <trkpt lat="45.35768288187682628631591796875" lon="-70.81399320624768733978271484375">
        <ele>631.5999755859375</ele>
        <time>2026-08-21T11:01:33.000Z</time>
        <extensions>
          <ns3:TrackPointExtension>
            <ns3:hr>141</ns3:hr>
            <ns3:cad>60</ns3:cad>
          </ns3:TrackPointExtension>
        </extensions>
      </trkpt>
      <trkpt lat="45.3576901741325855255126953125" lon="-70.8140162564814090728759765625">
        <ele>631.4000244140625</ele>
        <time>2026-08-21T11:01:34.000Z</time>
        <extensions>
          <ns3:TrackPointExtension>
            <ns3:hr>141</ns3:hr>
            <ns3:cad>60</ns3:cad>
          </ns3:TrackPointExtension>
        </extensions>
      </trkpt>
      <trkpt lat="45.35769528709352016448974609375" lon="-70.81403293646872043609619140625">
        <ele>631</ele>
        <time>2026-08-21T11:01:35.000Z</time>
        <extensions>
          <ns3:TrackPointExtension>
            <ns3:hr>141</ns3:hr>
            <ns3:cad>0</ns3:cad>
          </ns3:TrackPointExtension>
        </extensions>
      </trkpt>
      <trkpt lat="45.357709787786006927490234375" lon="-70.814047940075397491455078125">
        <ele>630.79998779296875</ele>
        <time>2026-08-21T11:01:36.000Z</time>
        <extensions>
          <ns3:TrackPointExtension>
            <ns3:hr>141</ns3:hr>
            <ns3:cad>55</ns3:cad>
          </ns3:TrackPointExtension>
        </extensions>
      </trkpt>
      <trkpt lat="45.35772227682173252105712890625" lon="-70.814060680568218231201171875">
        <ele>630.4000244140625</ele>
        <time>2026-08-21T11:01:37.000Z</time>
        <extensions>
          <ns3:TrackPointExtension>
            <ns3:hr>140</ns3:hr>
            <ns3:cad>55</ns3:cad>
          </ns3:TrackPointExtension>
        </extensions>
      </trkpt>
      <trkpt lat="45.3577324189245700836181640625" lon="-70.8140717446804046630859375">
        <ele>630</ele>
        <time>2026-08-21T11:01:38.000Z</time>
        <extensions>
          <ns3:TrackPointExtension>
            <ns3:hr>138</ns3:hr>
            <ns3:cad>0</ns3:cad>
          </ns3:TrackPointExtension>
        </extensions>
      </trkpt>
      <trkpt lat="45.3577434830367565155029296875" lon="-70.81408255733549594879150390625">
        <ele>629.5999755859375</ele>
        <time>2026-08-21T11:01:39.000Z</time>
        <extensions>
          <ns3:TrackPointExtension>
            <ns3:hr>138</ns3:hr>
            <ns3:cad>0</ns3:cad>
          </ns3:TrackPointExtension>
        </extensions>
      </trkpt>
      <trkpt lat="45.3577558882534503936767578125" lon="-70.814086832106113433837890625">
        <ele>629.20001220703125</ele>
        <time>2026-08-21T11:01:40.000Z</time>
        <extensions>
          <ns3:TrackPointExtension>
            <ns3:hr>136</ns3:hr>
            <ns3:cad>0</ns3:cad>
          </ns3:TrackPointExtension>
        </extensions>
      </trkpt>
      <trkpt lat="45.357766449451446533203125" lon="-70.8140923641622066497802734375">
        <ele>629</ele>
        <time>2026-08-21T11:01:41.000Z</time>
        <extensions>
          <ns3:TrackPointExtension>
            <ns3:hr>135</ns3:hr>
            <ns3:cad>0</ns3:cad>
          </ns3:TrackPointExtension>
        </extensions>
      </trkpt>
      <trkpt lat="45.35777759738266468048095703125" lon="-70.8141014166176319122314453125">
        <ele>628.79998779296875</ele>
        <time>2026-08-21T11:01:42.000Z</time>
        <extensions>
          <ns3:TrackPointExtension>
            <ns3:hr>133</ns3:hr>
            <ns3:cad>0</ns3:cad>
          </ns3:TrackPointExtension>
        </extensions>
      </trkpt>
      <trkpt lat="45.35778522491455078125" lon="-70.81411088816821575164794921875">
        <ele>628.4000244140625</ele>
        <time>2026-08-21T11:01:43.000Z</time>
        <extensions>
          <ns3:TrackPointExtension>
            <ns3:hr>131</ns3:hr>
            <ns3:cad>0</ns3:cad>
          </ns3:TrackPointExtension>
        </extensions>
      </trkpt>
      <trkpt lat="45.35779922269284725189208984375" lon="-70.8141267299652099609375">
        <ele>628.20001220703125</ele>
        <time>2026-08-21T11:01:44.000Z</time>
        <extensions>
          <ns3:TrackPointExtension>
            <ns3:hr>130</ns3:hr>
            <ns3:cad>0</ns3:cad>
          </ns3:TrackPointExtension>
        </extensions>
      </trkpt>
      <trkpt lat="45.35781229846179485321044921875" lon="-70.81413812935352325439453125">
        <ele>628</ele>
        <time>2026-08-21T11:01:45.000Z</time>
        <extensions>
          <ns3:TrackPointExtension>
            <ns3:hr>129</ns3:hr>
            <ns3:cad>0</ns3:cad>
          </ns3:TrackPointExtension>
        </extensions>
      </trkpt>
      <trkpt lat="45.35782470367848873138427734375" lon="-70.81414659507572650909423828125">
        <ele>627.79998779296875</ele>
        <time>2026-08-21T11:01:46.000Z</time>
        <extensions>
          <ns3:TrackPointExtension>
            <ns3:hr>129</ns3:hr>
            <ns3:cad>0</ns3:cad>
          </ns3:TrackPointExtension>
        </extensions>
      </trkpt>
      <trkpt lat="45.3578373603522777557373046875" lon="-70.81416017375886440277099609375">
        <ele>627.5999755859375</ele>
        <time>2026-08-21T11:01:47.000Z</time>
        <extensions>
          <ns3:TrackPointExtension>
            <ns3:hr>128</ns3:hr>
            <ns3:cad>0</ns3:cad>
          </ns3:TrackPointExtension>
        </extensions>
      </trkpt>
      <trkpt lat="45.35784767009317874908447265625" lon="-70.81417174078524112701416015625">
        <ele>627.4000244140625</ele>
        <time>2026-08-21T11:01:48.000Z</time>
        <extensions>
          <ns3:TrackPointExtension>
            <ns3:hr>127</ns3:hr>
            <ns3:cad>0</ns3:cad>
          </ns3:TrackPointExtension>
        </extensions>
      </trkpt>
      <trkpt lat="45.35786443389952182769775390625" lon="-70.8141835592687129974365234375">
        <ele>627.20001220703125</ele>
        <time>2026-08-21T11:01:49.000Z</time>
        <extensions>
          <ns3:TrackPointExtension>
            <ns3:hr>126</ns3:hr>
            <ns3:cad>61</ns3:cad>
          </ns3:TrackPointExtension>
        </extensions>
      </trkpt>
      <trkpt lat="45.35787214525043964385986328125" lon="-70.8141916058957576751708984375">
        <ele>626.79998779296875</ele>
        <time>2026-08-21T11:01:50.000Z</time>
        <extensions>
          <ns3:TrackPointExtension>
            <ns3:hr>126</ns3:hr>
            <ns3:cad>68</ns3:cad>
          </ns3:TrackPointExtension>
        </extensions>
      </trkpt>
      <trkpt lat="45.3578789345920085906982421875" lon="-70.8142023347318172454833984375">
        <ele>626.4000244140625</ele>
        <time>2026-08-21T11:01:51.000Z</time>
        <extensions>
          <ns3:TrackPointExtension>
            <ns3:hr>125</ns3:hr>
            <ns3:cad>68</ns3:cad>
          </ns3:TrackPointExtension>
        </extensions>
      </trkpt>
      <trkpt lat="45.357887484133243560791015625" lon="-70.81421130336821079254150390625">
        <ele>626</ele>
        <time>2026-08-21T11:01:52.000Z</time>
        <extensions>
          <ns3:TrackPointExtension>
            <ns3:hr>125</ns3:hr>
            <ns3:cad>0</ns3:cad>
          </ns3:TrackPointExtension>
        </extensions>
      </trkpt>
      <trkpt lat="45.35789092071354389190673828125" lon="-70.81421993672847747802734375">
        <ele>625.5999755859375</ele>
        <time>2026-08-21T11:01:53.000Z</time>
        <extensions>
          <ns3:TrackPointExtension>
            <ns3:hr>125</ns3:hr>
            <ns3:cad>0</ns3:cad>
          </ns3:TrackPointExtension>
        </extensions>
      </trkpt>
      <trkpt lat="45.357893519103527069091796875" lon="-70.81423829309642314910888671875">
        <ele>625.20001220703125</ele>
        <time>2026-08-21T11:01:54.000Z</time>
        <extensions>
          <ns3:TrackPointExtension>
            <ns3:hr>124</ns3:hr>
            <ns3:cad>0</ns3:cad>
          </ns3:TrackPointExtension>
        </extensions>
      </trkpt>
      <trkpt lat="45.357896201312541961669921875" lon="-70.8142539672553539276123046875">
        <ele>624.79998779296875</ele>
        <time>2026-08-21T11:01:55.000Z</time>
        <extensions>
          <ns3:TrackPointExtension>
            <ns3:hr>124</ns3:hr>
            <ns3:cad>0</ns3:cad>
          </ns3:TrackPointExtension>
        </extensions>
      </trkpt>
      <trkpt lat="45.3579060919582843780517578125" lon="-70.8142675459384918212890625">
        <ele>624.5999755859375</ele>
        <time>2026-08-21T11:01:56.000Z</time>
        <extensions>
          <ns3:TrackPointExtension>
            <ns3:hr>123</ns3:hr>
            <ns3:cad>0</ns3:cad>
          </ns3:TrackPointExtension>
        </extensions>
      </trkpt>
      <trkpt lat="45.3579154796898365020751953125" lon="-70.81428229808807373046875">
        <ele>624.20001220703125</ele>
        <time>2026-08-21T11:01:57.000Z</time>
        <extensions>
          <ns3:TrackPointExtension>
            <ns3:hr>123</ns3:hr>
            <ns3:cad>0</ns3:cad>
          </ns3:TrackPointExtension>
        </extensions>
      </trkpt>
      <trkpt lat="45.35792193375527858734130859375" lon="-70.81429629586637020111083984375">
        <ele>624</ele>
        <time>2026-08-21T11:01:58.000Z</time>
        <extensions>
          <ns3:TrackPointExtension>
            <ns3:hr>123</ns3:hr>
            <ns3:cad>0</ns3:cad>
          </ns3:TrackPointExtension>
        </extensions>
      </trkpt>
      <trkpt lat="45.35793283022940158843994140625" lon="-70.8143055997788906097412109375">
        <ele>624</ele>
        <time>2026-08-21T11:01:59.000Z</time>
        <extensions>
          <ns3:TrackPointExtension>
            <ns3:hr>123</ns3:hr>
            <ns3:cad>64</ns3:cad>
          </ns3:TrackPointExtension>
        </extensions>
      </trkpt>
      <trkpt lat="45.35794322378933429718017578125" lon="-70.81431507132947444915771484375">
        <ele>623.79998779296875</ele>
        <time>2026-08-21T11:02:00.000Z</time>
        <extensions>
          <ns3:TrackPointExtension>
            <ns3:hr>123</ns3:hr>
            <ns3:cad>64</ns3:cad>
          </ns3:TrackPointExtension>
        </extensions>
      </trkpt>
      <trkpt lat="45.3579543717205524444580078125" lon="-70.81432563252747058868408203125">
        <ele>623.5999755859375</ele>
        <time>2026-08-21T11:02:01.000Z</time>
        <extensions>
          <ns3:TrackPointExtension>
            <ns3:hr>123</ns3:hr>
            <ns3:cad>64</ns3:cad>
          </ns3:TrackPointExtension>
        </extensions>
      </trkpt>
      <trkpt lat="45.35796132870018482208251953125" lon="-70.81433787010610103607177734375">
        <ele>623.4000244140625</ele>
        <time>2026-08-21T11:02:02.000Z</time>
        <extensions>
          <ns3:TrackPointExtension>
            <ns3:hr>123</ns3:hr>
            <ns3:cad>64</ns3:cad>
          </ns3:TrackPointExtension>
        </extensions>
      </trkpt>
      <trkpt lat="45.35796518437564373016357421875" lon="-70.81435329280793666839599609375">
        <ele>623.20001220703125</ele>
        <time>2026-08-21T11:02:03.000Z</time>
        <extensions>
          <ns3:TrackPointExtension>
            <ns3:hr>123</ns3:hr>
            <ns3:cad>64</ns3:cad>
          </ns3:TrackPointExtension>
        </extensions>
      </trkpt>
      <trkpt lat="45.35796853713691234588623046875" lon="-70.8143706433475017547607421875">
        <ele>623.20001220703125</ele>
        <time>2026-08-21T11:02:04.000Z</time>
        <extensions>
          <ns3:TrackPointExtension>
            <ns3:hr>123</ns3:hr>
            <ns3:cad>0</ns3:cad>
          </ns3:TrackPointExtension>
        </extensions>
      </trkpt>
      <trkpt lat="45.3579724766314029693603515625" lon="-70.81438086926937103271484375">
        <ele>623</ele>
        <time>2026-08-21T11:02:05.000Z</time>
        <extensions>
          <ns3:TrackPointExtension>
            <ns3:hr>123</ns3:hr>
            <ns3:cad>0</ns3:cad>
          </ns3:TrackPointExtension>
        </extensions>
      </trkpt>
      <trkpt lat="45.35797323100268840789794921875" lon="-70.81439469940960407257080078125">
        <ele>622.79998779296875</ele>
        <time>2026-08-21T11:02:06.000Z</time>
        <extensions>
          <ns3:TrackPointExtension>
            <ns3:hr>122</ns3:hr>
            <ns3:cad>0</ns3:cad>
          </ns3:TrackPointExtension>
        </extensions>
      </trkpt>
      <trkpt lat="45.357975326478481292724609375" lon="-70.81440643407404422760009765625">
        <ele>622.5999755859375</ele>
        <time>2026-08-21T11:02:07.000Z</time>
        <extensions>
          <ns3:TrackPointExtension>
            <ns3:hr>122</ns3:hr>
            <ns3:cad>0</ns3:cad>
          </ns3:TrackPointExtension>
        </extensions>
      </trkpt>
      <trkpt lat="45.35798915661871433258056640625" lon="-70.81441716291010379791259765625">
        <ele>622.4000244140625</ele>
        <time>2026-08-21T11:02:08.000Z</time>
        <extensions>
          <ns3:TrackPointExtension>
            <ns3:hr>122</ns3:hr>
            <ns3:cad>0</ns3:cad>
          </ns3:TrackPointExtension>
        </extensions>
      </trkpt>
      <trkpt lat="45.35799820907413959503173828125" lon="-70.81443258561193943023681640625">
        <ele>622.20001220703125</ele>
        <time>2026-08-21T11:02:09.000Z</time>
        <extensions>
          <ns3:TrackPointExtension>
            <ns3:hr>122</ns3:hr>
            <ns3:cad>0</ns3:cad>
          </ns3:TrackPointExtension>
        </extensions>
      </trkpt>
      <trkpt lat="45.3580006398260593414306640625" lon="-70.81445001997053623199462890625">
        <ele>622</ele>
        <time>2026-08-21T11:02:10.000Z</time>
        <extensions>
          <ns3:TrackPointExtension>
            <ns3:hr>122</ns3:hr>
            <ns3:cad>0</ns3:cad>
          </ns3:TrackPointExtension>
        </extensions>
      </trkpt>
      <trkpt lat="45.358011536300182342529296875" lon="-70.81446795724332332611083984375">
        <ele>621.79998779296875</ele>
        <time>2026-08-21T11:02:11.000Z</time>
        <extensions>
          <ns3:TrackPointExtension>
            <ns3:hr>121</ns3:hr>
            <ns3:cad>0</ns3:cad>
          </ns3:TrackPointExtension>
        </extensions>
      </trkpt>
      <trkpt lat="45.35801581107079982757568359375" lon="-70.81448321230709552764892578125">
        <ele>621.4000244140625</ele>
        <time>2026-08-21T11:02:12.000Z</time>
        <extensions>
          <ns3:TrackPointExtension>
            <ns3:hr>121</ns3:hr>
            <ns3:cad>0</ns3:cad>
          </ns3:TrackPointExtension>
        </extensions>
      </trkpt>
      <trkpt lat="45.35801514051854610443115234375" lon="-70.81449913792312145233154296875">
        <ele>621.20001220703125</ele>
        <time>2026-08-21T11:02:13.000Z</time>
        <extensions>
          <ns3:TrackPointExtension>
            <ns3:hr>121</ns3:hr>
            <ns3:cad>0</ns3:cad>
          </ns3:TrackPointExtension>
        </extensions>
      </trkpt>
      <trkpt lat="45.3580113686621189117431640625" lon="-70.81450559198856353759765625">
        <ele>621</ele>
        <time>2026-08-21T11:02:14.000Z</time>
        <extensions>
          <ns3:TrackPointExtension>
            <ns3:hr>121</ns3:hr>
            <ns3:cad>0</ns3:cad>
          </ns3:TrackPointExtension>
        </extensions>
      </trkpt>
      <trkpt lat="45.35800508223474025726318359375" lon="-70.8145148120820522308349609375">
        <ele>621</ele>
        <time>2026-08-21T11:02:15.000Z</time>
        <extensions>
          <ns3:TrackPointExtension>
            <ns3:hr>121</ns3:hr>
            <ns3:cad>0</ns3:cad>
          </ns3:TrackPointExtension>
        </extensions>
      </trkpt>
      <trkpt lat="45.35799200646579265594482421875" lon="-70.8145298995077610015869140625">
        <ele>621</ele>
        <time>2026-08-21T11:02:16.000Z</time>
        <extensions>
          <ns3:TrackPointExtension>
            <ns3:hr>121</ns3:hr>
            <ns3:cad>0</ns3:cad>
          </ns3:TrackPointExtension>
        </extensions>
      </trkpt>
      <trkpt lat="45.35797943361103534698486328125" lon="-70.8145402930676937103271484375">
        <ele>621.20001220703125</ele>
        <time>2026-08-21T11:02:17.000Z</time>
        <extensions>
          <ns3:TrackPointExtension>
            <ns3:hr>120</ns3:hr>
            <ns3:cad>0</ns3:cad>
          </ns3:TrackPointExtension>
        </extensions>
      </trkpt>
      <trkpt lat="45.35797138698399066925048828125" lon="-70.8145537041127681732177734375">
        <ele>621.4000244140625</ele>
        <time>2026-08-21T11:02:18.000Z</time>
        <extensions>
          <ns3:TrackPointExtension>
            <ns3:hr>120</ns3:hr>
            <ns3:cad>0</ns3:cad>
          </ns3:TrackPointExtension>
        </extensions>
      </trkpt>
      <trkpt lat="45.3579635918140411376953125" lon="-70.81455982290208339691162109375">
        <ele>621.4000244140625</ele>
        <time>2026-08-21T11:02:19.000Z</time>
        <extensions>
          <ns3:TrackPointExtension>
            <ns3:hr>120</ns3:hr>
            <ns3:cad>0</ns3:cad>
          </ns3:TrackPointExtension>
        </extensions>
      </trkpt>
      <trkpt lat="45.35795730538666248321533203125" lon="-70.814572311937808990478515625">
        <ele>621.5999755859375</ele>
        <time>2026-08-21T11:02:20.000Z</time>
        <extensions>
          <ns3:TrackPointExtension>
            <ns3:hr>120</ns3:hr>
            <ns3:cad>0</ns3:cad>
          </ns3:TrackPointExtension>
        </extensions>
      </trkpt>
      <trkpt lat="45.3579496778547763824462890625" lon="-70.81459150649607181549072265625">
        <ele>621.5999755859375</ele>
        <time>2026-08-21T11:02:21.000Z</time>
        <extensions>
          <ns3:TrackPointExtension>
            <ns3:hr>120</ns3:hr>
            <ns3:cad>0</ns3:cad>
          </ns3:TrackPointExtension>
        </extensions>
      </trkpt>
      <trkpt lat="45.3579399548470973968505859375" lon="-70.81461145542562007904052734375">
        <ele>621.5999755859375</ele>
        <time>2026-08-21T11:02:22.000Z</time>
        <extensions>
          <ns3:TrackPointExtension>
            <ns3:hr>119</ns3:hr>
            <ns3:cad>0</ns3:cad>
          </ns3:TrackPointExtension>
        </extensions>
      </trkpt>
      <trkpt lat="45.3579325787723064422607421875" lon="-70.81462520174682140350341796875">
        <ele>621.5999755859375</ele>
        <time>2026-08-21T11:02:23.000Z</time>
        <extensions>
          <ns3:TrackPointExtension>
            <ns3:hr>119</ns3:hr>
            <ns3:cad>0</ns3:cad>
          </ns3:TrackPointExtension>
        </extensions>
      </trkpt>
      <trkpt lat="45.357925035059452056884765625" lon="-70.81464146263897418975830078125">
        <ele>621.5999755859375</ele>
        <time>2026-08-21T11:02:24.000Z</time>
        <extensions>
          <ns3:TrackPointExtension>
            <ns3:hr>119</ns3:hr>
            <ns3:cad>0</ns3:cad>
          </ns3:TrackPointExtension>
        </extensions>
      </trkpt>
      <trkpt lat="45.3579148091375827789306640625" lon="-70.81465202383697032928466796875">
        <ele>621.5999755859375</ele>
        <time>2026-08-21T11:02:25.000Z</time>
        <extensions>
          <ns3:TrackPointExtension>
            <ns3:hr>119</ns3:hr>
            <ns3:cad>0</ns3:cad>
          </ns3:TrackPointExtension>
        </extensions>
      </trkpt>
      <trkpt lat="45.35790164954960346221923828125" lon="-70.814665518701076507568359375">
        <ele>621.5999755859375</ele>
        <time>2026-08-21T11:02:26.000Z</time>
        <extensions>
          <ns3:TrackPointExtension>
            <ns3:hr>120</ns3:hr>
            <ns3:cad>56</ns3:cad>
          </ns3:TrackPointExtension>
        </extensions>
      </trkpt>
      <trkpt lat="45.3578869812190532684326171875" lon="-70.81466929055750370025634765625">
        <ele>621.5999755859375</ele>
        <time>2026-08-21T11:02:27.000Z</time>
        <extensions>
          <ns3:TrackPointExtension>
            <ns3:hr>120</ns3:hr>
            <ns3:cad>56</ns3:cad>
          </ns3:TrackPointExtension>
        </extensions>
      </trkpt>
      <trkpt lat="45.35787667147815227508544921875" lon="-70.8146710507571697235107421875">
        <ele>621.5999755859375</ele>
        <time>2026-08-21T11:02:28.000Z</time>
        <extensions>
          <ns3:TrackPointExtension>
            <ns3:hr>121</ns3:hr>
            <ns3:cad>57</ns3:cad>
          </ns3:TrackPointExtension>
        </extensions>
      </trkpt>
      <trkpt lat="45.35786527208983898162841796875" lon="-70.814674235880374908447265625">
        <ele>621.5999755859375</ele>
        <time>2026-08-21T11:02:29.000Z</time>
        <extensions>
          <ns3:TrackPointExtension>
            <ns3:hr>121</ns3:hr>
            <ns3:cad>57</ns3:cad>
          </ns3:TrackPointExtension>
        </extensions>
      </trkpt>
      <trkpt lat="45.35785571672022342681884765625" lon="-70.81467725336551666259765625">
        <ele>621.79998779296875</ele>
        <time>2026-08-21T11:02:30.000Z</time>
        <extensions>
          <ns3:TrackPointExtension>
            <ns3:hr>121</ns3:hr>
            <ns3:cad>57</ns3:cad>
          </ns3:TrackPointExtension>
        </extensions>
      </trkpt>
      <trkpt lat="45.3578482568264007568359375" lon="-70.8146859705448150634765625">
        <ele>621.79998779296875</ele>
        <time>2026-08-21T11:02:31.000Z</time>
        <extensions>
          <ns3:TrackPointExtension>
            <ns3:hr>121</ns3:hr>
            <ns3:cad>55</ns3:cad>
          </ns3:TrackPointExtension>
        </extensions>
      </trkpt>
      <trkpt lat="45.35784096457064151763916015625" lon="-70.81469192169606685638427734375">
        <ele>621.79998779296875</ele>
        <time>2026-08-21T11:02:32.000Z</time>
        <extensions>
          <ns3:TrackPointExtension>
            <ns3:hr>122</ns3:hr>
            <ns3:cad>55</ns3:cad>
          </ns3:TrackPointExtension>
        </extensions>
      </trkpt>
      <trkpt lat="45.35783492960035800933837890625" lon="-70.8146988786756992340087890625">
        <ele>621.79998779296875</ele>
        <time>2026-08-21T11:02:33.000Z</time>
        <extensions>
          <ns3:TrackPointExtension>
            <ns3:hr>122</ns3:hr>
            <ns3:cad>0</ns3:cad>
          </ns3:TrackPointExtension>
        </extensions>
      </trkpt>
      <trkpt lat="45.35783124156296253204345703125" lon="-70.8147018961608409881591796875">
        <ele>621.79998779296875</ele>
        <time>2026-08-21T11:02:34.000Z</time>
        <extensions>
          <ns3:TrackPointExtension>
            <ns3:hr>122</ns3:hr>
            <ns3:cad>0</ns3:cad>
          </ns3:TrackPointExtension>
        </extensions>
      </trkpt>
      <trkpt lat="45.35783207975327968597412109375" lon="-70.81470332108438014984130859375">
        <ele>621.79998779296875</ele>
        <time>2026-08-21T11:02:35.000Z</time>
        <extensions>
          <ns3:TrackPointExtension>
            <ns3:hr>122</ns3:hr>
            <ns3:cad>0</ns3:cad>
          </ns3:TrackPointExtension>
        </extensions>
      </trkpt>
      <trkpt lat="45.35783224739134311676025390625" lon="-70.814703740179538726806640625">
        <ele>621.79998779296875</ele>
        <time>2026-08-21T11:02:36.000Z</time>
        <extensions>
          <ns3:TrackPointExtension>
            <ns3:hr>122</ns3:hr>
            <ns3:cad>0</ns3:cad>
          </ns3:TrackPointExtension>
        </extensions>
      </trkpt>
      <trkpt lat="45.35782084800302982330322265625" lon="-70.814713127911090850830078125">
        <ele>622</ele>
        <time>2026-08-21T11:02:37.000Z</time>
        <extensions>
          <ns3:TrackPointExtension>
            <ns3:hr>122</ns3:hr>
            <ns3:cad>0</ns3:cad>
          </ns3:TrackPointExtension>
        </extensions>
      </trkpt>
      <trkpt lat="45.357807688415050506591796875" lon="-70.81472561694681644439697265625">
        <ele>622</ele>
        <time>2026-08-21T11:02:38.000Z</time>
        <extensions>
          <ns3:TrackPointExtension>
            <ns3:hr>122</ns3:hr>
            <ns3:cad>0</ns3:cad>
          </ns3:TrackPointExtension>
        </extensions>
      </trkpt>
      <trkpt lat="45.35780274309217929840087890625" lon="-70.81473466940224170684814453125">
        <ele>622.20001220703125</ele>
        <time>2026-08-21T11:02:39.000Z</time>
        <extensions>
          <ns3:TrackPointExtension>
            <ns3:hr>123</ns3:hr>
            <ns3:cad>0</ns3:cad>
          </ns3:TrackPointExtension>
        </extensions>
      </trkpt>
      <trkpt lat="45.35779637284576892852783203125" lon="-70.81474087201058864593505859375">
        <ele>622.20001220703125</ele>
        <time>2026-08-21T11:02:40.000Z</time>
        <extensions>
          <ns3:TrackPointExtension>
            <ns3:hr>123</ns3:hr>
            <ns3:cad>0</ns3:cad>
          </ns3:TrackPointExtension>
        </extensions>
      </trkpt>
      <trkpt lat="45.35778581164777278900146484375" lon="-70.81474824808537960052490234375">
        <ele>622.4000244140625</ele>
        <time>2026-08-21T11:02:41.000Z</time>
        <extensions>
          <ns3:TrackPointExtension>
            <ns3:hr>124</ns3:hr>
            <ns3:cad>0</ns3:cad>
          </ns3:TrackPointExtension>
        </extensions>
      </trkpt>
      <trkpt lat="45.357769466936588287353515625" lon="-70.814756043255329132080078125">
        <ele>622.5999755859375</ele>
        <time>2026-08-21T11:02:42.000Z</time>
        <extensions>
          <ns3:TrackPointExtension>
            <ns3:hr>124</ns3:hr>
            <ns3:cad>0</ns3:cad>
          </ns3:TrackPointExtension>
        </extensions>
      </trkpt>
      <trkpt lat="45.3577578999102115631103515625" lon="-70.8147756569087505340576171875">
        <ele>622.5999755859375</ele>
        <time>2026-08-21T11:02:43.000Z</time>
        <extensions>
          <ns3:TrackPointExtension>
            <ns3:hr>123</ns3:hr>
            <ns3:cad>0</ns3:cad>
          </ns3:TrackPointExtension>
        </extensions>
      </trkpt>
      <trkpt lat="45.35775563679635524749755859375" lon="-70.81479468382894992828369140625">
        <ele>622.5999755859375</ele>
        <time>2026-08-21T11:02:44.000Z</time>
        <extensions>
          <ns3:TrackPointExtension>
            <ns3:hr>123</ns3:hr>
            <ns3:cad>0</ns3:cad>
          </ns3:TrackPointExtension>
        </extensions>
      </trkpt>
      <trkpt lat="45.35774691961705684661865234375" lon="-70.8148122020065784454345703125">
        <ele>622.5999755859375</ele>
        <time>2026-08-21T11:02:45.000Z</time>
        <extensions>
          <ns3:TrackPointExtension>
            <ns3:hr>123</ns3:hr>
            <ns3:cad>0</ns3:cad>
          </ns3:TrackPointExtension>
        </extensions>
      </trkpt>
      <trkpt lat="45.35773635841906070709228515625" lon="-70.8148281276226043701171875">
        <ele>622.4000244140625</ele>
        <time>2026-08-21T11:02:46.000Z</time>
        <extensions>
          <ns3:TrackPointExtension>
            <ns3:hr>124</ns3:hr>
            <ns3:cad>0</ns3:cad>
          </ns3:TrackPointExtension>
        </extensions>
      </trkpt>
      <trkpt lat="45.3577267192304134368896484375" lon="-70.81484849564731121063232421875">
        <ele>622.20001220703125</ele>
        <time>2026-08-21T11:02:47.000Z</time>
        <extensions>
          <ns3:TrackPointExtension>
            <ns3:hr>124</ns3:hr>
            <ns3:cad>0</ns3:cad>
          </ns3:TrackPointExtension>
        </extensions>
      </trkpt>
      <trkpt lat="45.35772412084043025970458984375" lon="-70.8148722164332866668701171875">
        <ele>621.79998779296875</ele>
        <time>2026-08-21T11:02:48.000Z</time>
        <extensions>
          <ns3:TrackPointExtension>
            <ns3:hr>124</ns3:hr>
            <ns3:cad>0</ns3:cad>
          </ns3:TrackPointExtension>
        </extensions>
      </trkpt>
      <trkpt lat="45.35772076807916164398193359375" lon="-70.81489124335348606109619140625">
        <ele>621.5999755859375</ele>
        <time>2026-08-21T11:02:49.000Z</time>
        <extensions>
          <ns3:TrackPointExtension>
            <ns3:hr>126</ns3:hr>
            <ns3:cad>0</ns3:cad>
          </ns3:TrackPointExtension>
        </extensions>
      </trkpt>
      <trkpt lat="45.357713811099529266357421875" lon="-70.81491253338754177093505859375">
        <ele>621.20001220703125</ele>
        <time>2026-08-21T11:02:50.000Z</time>
        <extensions>
          <ns3:TrackPointExtension>
            <ns3:hr>127</ns3:hr>
            <ns3:cad>0</ns3:cad>
          </ns3:TrackPointExtension>
        </extensions>
      </trkpt>
      <trkpt lat="45.357708446681499481201171875" lon="-70.81493072211742401123046875">
        <ele>621</ele>
        <time>2026-08-21T11:02:51.000Z</time>
        <extensions>
          <ns3:TrackPointExtension>
            <ns3:hr>128</ns3:hr>
            <ns3:cad>0</ns3:cad>
          </ns3:TrackPointExtension>
        </extensions>
      </trkpt>
      <trkpt lat="45.35770618356764316558837890625" lon="-70.81495083868503570556640625">
        <ele>620.79998779296875</ele>
        <time>2026-08-21T11:02:52.000Z</time>
        <extensions>
          <ns3:TrackPointExtension>
            <ns3:hr>129</ns3:hr>
            <ns3:cad>68</ns3:cad>
          </ns3:TrackPointExtension>
        </extensions>
      </trkpt>
      <trkpt lat="45.35770551301538944244384765625" lon="-70.8149697817862033843994140625">
        <ele>620.5999755859375</ele>
        <time>2026-08-21T11:02:53.000Z</time>
        <extensions>
          <ns3:TrackPointExtension>
            <ns3:hr>130</ns3:hr>
            <ns3:cad>68</ns3:cad>
          </ns3:TrackPointExtension>
        </extensions>
      </trkpt>
      <trkpt lat="45.357697047293186187744140625" lon="-70.81498461775481700897216796875">
        <ele>620.4000244140625</ele>
        <time>2026-08-21T11:02:54.000Z</time>
        <extensions>
          <ns3:TrackPointExtension>
            <ns3:hr>130</ns3:hr>
            <ns3:cad>0</ns3:cad>
          </ns3:TrackPointExtension>
        </extensions>
      </trkpt>
      <trkpt lat="45.3576886653900146484375" lon="-70.8149997889995574951171875">
        <ele>620.20001220703125</ele>
        <time>2026-08-21T11:02:55.000Z</time>
        <extensions>
          <ns3:TrackPointExtension>
            <ns3:hr>130</ns3:hr>
            <ns3:cad>0</ns3:cad>
          </ns3:TrackPointExtension>
        </extensions>
      </trkpt>
      <trkpt lat="45.35767969675362110137939453125" lon="-70.8150251023471355438232421875">
        <ele>620</ele>
        <time>2026-08-21T11:02:56.000Z</time>
        <extensions>
          <ns3:TrackPointExtension>
            <ns3:hr>129</ns3:hr>
            <ns3:cad>0</ns3:cad>
          </ns3:TrackPointExtension>
        </extensions>
      </trkpt>
      <trkpt lat="45.35767299123108386993408203125" lon="-70.8150453865528106689453125">
        <ele>620</ele>
        <time>2026-08-21T11:02:57.000Z</time>
        <extensions>
          <ns3:TrackPointExtension>
            <ns3:hr>130</ns3:hr>
            <ns3:cad>0</ns3:cad>
          </ns3:TrackPointExtension>
        </extensions>
      </trkpt>
      <trkpt lat="45.35766561515629291534423828125" lon="-70.8150641620159149169921875">
        <ele>619.79998779296875</ele>
        <time>2026-08-21T11:02:58.000Z</time>
        <extensions>
          <ns3:TrackPointExtension>
            <ns3:hr>129</ns3:hr>
            <ns3:cad>0</ns3:cad>
          </ns3:TrackPointExtension>
        </extensions>
      </trkpt>
      <trkpt lat="45.357656143605709075927734375" lon="-70.815078914165496826171875">
        <ele>619.79998779296875</ele>
        <time>2026-08-21T11:02:59.000Z</time>
        <extensions>
          <ns3:TrackPointExtension>
            <ns3:hr>129</ns3:hr>
            <ns3:cad>0</ns3:cad>
          </ns3:TrackPointExtension>
        </extensions>
      </trkpt>
      <trkpt lat="45.35764834843575954437255859375" lon="-70.81509911455214023590087890625">
        <ele>619.79998779296875</ele>
        <time>2026-08-21T11:03:00.000Z</time>
        <extensions>
          <ns3:TrackPointExtension>
            <ns3:hr>128</ns3:hr>
            <ns3:cad>0</ns3:cad>
          </ns3:TrackPointExtension>
        </extensions>
      </trkpt>
      <trkpt lat="45.35764415748417377471923828125" lon="-70.8151203207671642303466796875">
        <ele>619.79998779296875</ele>
        <time>2026-08-21T11:03:01.000Z</time>
        <extensions>
          <ns3:TrackPointExtension>
            <ns3:hr>128</ns3:hr>
            <ns3:cad>0</ns3:cad>
          </ns3:TrackPointExtension>
        </extensions>
      </trkpt>
      <trkpt lat="45.35764080472290515899658203125" lon="-70.81513834185898303985595703125">
        <ele>619.5999755859375</ele>
        <time>2026-08-21T11:03:02.000Z</time>
        <extensions>
          <ns3:TrackPointExtension>
            <ns3:hr>128</ns3:hr>
            <ns3:cad>0</ns3:cad>
          </ns3:TrackPointExtension>
        </extensions>
      </trkpt>
      <trkpt lat="45.3576338477432727813720703125" lon="-70.81516206264495849609375">
        <ele>619.5999755859375</ele>
        <time>2026-08-21T11:03:03.000Z</time>
        <extensions>
          <ns3:TrackPointExtension>
            <ns3:hr>128</ns3:hr>
            <ns3:cad>0</ns3:cad>
          </ns3:TrackPointExtension>
        </extensions>
      </trkpt>
      <trkpt lat="45.35762898623943328857421875" lon="-70.81518293358385562896728515625">
        <ele>619.4000244140625</ele>
        <time>2026-08-21T11:03:04.000Z</time>
        <extensions>
          <ns3:TrackPointExtension>
            <ns3:hr>128</ns3:hr>
            <ns3:cad>0</ns3:cad>
          </ns3:TrackPointExtension>
        </extensions>
      </trkpt>
      <trkpt lat="45.3576271422207355499267578125" lon="-70.81519768573343753814697265625">
        <ele>619.4000244140625</ele>
        <time>2026-08-21T11:03:05.000Z</time>
        <extensions>
          <ns3:TrackPointExtension>
            <ns3:hr>128</ns3:hr>
            <ns3:cad>0</ns3:cad>
          </ns3:TrackPointExtension>
        </extensions>
      </trkpt>
      <trkpt lat="45.35761616192758083343505859375" lon="-70.8152178861200809478759765625">
        <ele>619.20001220703125</ele>
        <time>2026-08-21T11:03:06.000Z</time>
        <extensions>
          <ns3:TrackPointExtension>
            <ns3:hr>128</ns3:hr>
            <ns3:cad>0</ns3:cad>
          </ns3:TrackPointExtension>
        </extensions>
      </trkpt>
      <trkpt lat="45.35760484635829925537109375" lon="-70.81523171626031398773193359375">
        <ele>619.20001220703125</ele>
        <time>2026-08-21T11:03:07.000Z</time>
        <extensions>
          <ns3:TrackPointExtension>
            <ns3:hr>128</ns3:hr>
            <ns3:cad>0</ns3:cad>
          </ns3:TrackPointExtension>
        </extensions>
      </trkpt>
      <trkpt lat="45.35760023631155490875244140625" lon="-70.815250575542449951171875">
        <ele>619</ele>
        <time>2026-08-21T11:03:08.000Z</time>
        <extensions>
          <ns3:TrackPointExtension>
            <ns3:hr>128</ns3:hr>
            <ns3:cad>20</ns3:cad>
          </ns3:TrackPointExtension>
        </extensions>
      </trkpt>
      <trkpt lat="45.3575961291790008544921875" lon="-70.8152752183377742767333984375">
        <ele>619</ele>
        <time>2026-08-21T11:03:09.000Z</time>
        <extensions>
          <ns3:TrackPointExtension>
            <ns3:hr>127</ns3:hr>
            <ns3:cad>0</ns3:cad>
          </ns3:TrackPointExtension>
        </extensions>
      </trkpt>
      <trkpt lat="45.3575949557125568389892578125" lon="-70.8153107576072216033935546875">
        <ele>619</ele>
        <time>2026-08-21T11:03:10.000Z</time>
        <extensions>
          <ns3:TrackPointExtension>
            <ns3:hr>126</ns3:hr>
            <ns3:cad>0</ns3:cad>
          </ns3:TrackPointExtension>
        </extensions>
      </trkpt>
      <trkpt lat="45.357593111693859100341796875" lon="-70.81533296965062618255615234375">
        <ele>619</ele>
        <time>2026-08-21T11:03:11.000Z</time>
        <extensions>
          <ns3:TrackPointExtension>
            <ns3:hr>125</ns3:hr>
            <ns3:cad>61</ns3:cad>
          </ns3:TrackPointExtension>
        </extensions>
      </trkpt>
      <trkpt lat="45.3575962968170642852783203125" lon="-70.815360881388187408447265625">
        <ele>618.79998779296875</ele>
        <time>2026-08-21T11:03:12.000Z</time>
        <extensions>
          <ns3:TrackPointExtension>
            <ns3:hr>125</ns3:hr>
            <ns3:cad>61</ns3:cad>
          </ns3:TrackPointExtension>
        </extensions>
      </trkpt>
      <trkpt lat="45.35760325379669666290283203125" lon="-70.81538267433643341064453125">
        <ele>618.4000244140625</ele>
        <time>2026-08-21T11:03:13.000Z</time>
        <extensions>
          <ns3:TrackPointExtension>
            <ns3:hr>124</ns3:hr>
            <ns3:cad>61</ns3:cad>
          </ns3:TrackPointExtension>
        </extensions>
      </trkpt>
      <trkpt lat="45.3576070256531238555908203125" lon="-70.81539851613342761993408203125">
        <ele>618.20001220703125</ele>
        <time>2026-08-21T11:03:14.000Z</time>
        <extensions>
          <ns3:TrackPointExtension>
            <ns3:hr>123</ns3:hr>
            <ns3:cad>61</ns3:cad>
          </ns3:TrackPointExtension>
        </extensions>
      </trkpt>
      <trkpt lat="45.35761364735662937164306640625" lon="-70.81542097963392734527587890625">
        <ele>618</ele>
        <time>2026-08-21T11:03:15.000Z</time>
        <extensions>
          <ns3:TrackPointExtension>
            <ns3:hr>123</ns3:hr>
            <ns3:cad>61</ns3:cad>
          </ns3:TrackPointExtension>
        </extensions>
      </trkpt>
      <trkpt lat="45.35761557519435882568359375" lon="-70.815444029867649078369140625">
        <ele>617.5999755859375</ele>
        <time>2026-08-21T11:03:16.000Z</time>
        <extensions>
          <ns3:TrackPointExtension>
            <ns3:hr>123</ns3:hr>
            <ns3:cad>61</ns3:cad>
          </ns3:TrackPointExtension>
        </extensions>
      </trkpt>
      <trkpt lat="45.357619933784008026123046875" lon="-70.8154696784913539886474609375">
        <ele>617.4000244140625</ele>
        <time>2026-08-21T11:03:17.000Z</time>
        <extensions>
          <ns3:TrackPointExtension>
            <ns3:hr>123</ns3:hr>
            <ns3:cad>61</ns3:cad>
          </ns3:TrackPointExtension>
        </extensions>
      </trkpt>
      <trkpt lat="45.3576256334781646728515625" lon="-70.815489292144775390625">
        <ele>617.20001220703125</ele>
        <time>2026-08-21T11:03:18.000Z</time>
        <extensions>
          <ns3:TrackPointExtension>
            <ns3:hr>123</ns3:hr>
            <ns3:cad>0</ns3:cad>
          </ns3:TrackPointExtension>
        </extensions>
      </trkpt>
      <trkpt lat="45.3576321713626384735107421875" lon="-70.8155072294175624847412109375">
        <ele>617</ele>
        <time>2026-08-21T11:03:19.000Z</time>
        <extensions>
          <ns3:TrackPointExtension>
            <ns3:hr>124</ns3:hr>
            <ns3:cad>0</ns3:cad>
          </ns3:TrackPointExtension>
        </extensions>
      </trkpt>
      <trkpt lat="45.357639379799365997314453125" lon="-70.8155281841754913330078125">
        <ele>616.5999755859375</ele>
        <time>2026-08-21T11:03:20.000Z</time>
        <extensions>
          <ns3:TrackPointExtension>
            <ns3:hr>124</ns3:hr>
            <ns3:cad>48</ns3:cad>
          </ns3:TrackPointExtension>
        </extensions>
      </trkpt>
      <trkpt lat="45.35764373838901519775390625" lon="-70.8155420981347560882568359375">
        <ele>616.4000244140625</ele>
        <time>2026-08-21T11:03:21.000Z</time>
        <extensions>
          <ns3:TrackPointExtension>
            <ns3:hr>124</ns3:hr>
            <ns3:cad>48</ns3:cad>
          </ns3:TrackPointExtension>
        </extensions>
      </trkpt>
      <trkpt lat="45.357644073665142059326171875" lon="-70.815545953810214996337890625">
        <ele>616.20001220703125</ele>
        <time>2026-08-21T11:03:22.000Z</time>
        <extensions>
          <ns3:TrackPointExtension>
            <ns3:hr>124</ns3:hr>
            <ns3:cad>48</ns3:cad>
          </ns3:TrackPointExtension>
        </extensions>
      </trkpt>
      <trkpt lat="45.3576459176838397979736328125" lon="-70.8155444450676441192626953125">
        <ele>615.79998779296875</ele>
        <time>2026-08-21T11:03:23.000Z</time>
        <extensions>
          <ns3:TrackPointExtension>
            <ns3:hr>123</ns3:hr>
            <ns3:cad>48</ns3:cad>
          </ns3:TrackPointExtension>
        </extensions>
      </trkpt>
      <trkpt lat="45.35764432512223720550537109375" lon="-70.815542601048946380615234375">
        <ele>615.5999755859375</ele>
        <time>2026-08-21T11:03:24.000Z</time>
        <extensions>
          <ns3:TrackPointExtension>
            <ns3:hr>122</ns3:hr>
            <ns3:cad>48</ns3:cad>
          </ns3:TrackPointExtension>
        </extensions>
      </trkpt>
      <trkpt lat="45.3576449118554592132568359375" lon="-70.81554084084928035736083984375">
        <ele>615.5999755859375</ele>
        <time>2026-08-21T11:03:25.000Z</time>
        <extensions>
          <ns3:TrackPointExtension>
            <ns3:hr>122</ns3:hr>
            <ns3:cad>48</ns3:cad>
          </ns3:TrackPointExtension>
        </extensions>
      </trkpt>
      <trkpt lat="45.35764583386480808258056640625" lon="-70.81555089913308620452880859375">
        <ele>615.4000244140625</ele>
        <time>2026-08-21T11:03:26.000Z</time>
        <extensions>
          <ns3:TrackPointExtension>
            <ns3:hr>121</ns3:hr>
            <ns3:cad>48</ns3:cad>
          </ns3:TrackPointExtension>
        </extensions>
      </trkpt>
      <trkpt lat="45.3576479293406009674072265625" lon="-70.8155625499784946441650390625">
        <ele>615.4000244140625</ele>
        <time>2026-08-21T11:03:27.000Z</time>
        <extensions>
          <ns3:TrackPointExtension>
            <ns3:hr>120</ns3:hr>
            <ns3:cad>48</ns3:cad>
          </ns3:TrackPointExtension>
        </extensions>
      </trkpt>
      <trkpt lat="45.35764642059803009033203125" lon="-70.81557956524193286895751953125">
        <ele>615.20001220703125</ele>
        <time>2026-08-21T11:03:28.000Z</time>
        <extensions>
          <ns3:TrackPointExtension>
            <ns3:hr>119</ns3:hr>
            <ns3:cad>62</ns3:cad>
          </ns3:TrackPointExtension>
        </extensions>
      </trkpt>
      <trkpt lat="45.35764097236096858978271484375" lon="-70.8155940659344196319580078125">
        <ele>615.20001220703125</ele>
        <time>2026-08-21T11:03:29.000Z</time>
        <extensions>
          <ns3:TrackPointExtension>
            <ns3:hr>118</ns3:hr>
            <ns3:cad>62</ns3:cad>
          </ns3:TrackPointExtension>
        </extensions>
      </trkpt>
      <trkpt lat="45.357645414769649505615234375" lon="-70.81561460159718990325927734375">
        <ele>615</ele>
        <time>2026-08-21T11:03:30.000Z</time>
        <extensions>
          <ns3:TrackPointExtension>
            <ns3:hr>118</ns3:hr>
            <ns3:cad>62</ns3:cad>
          </ns3:TrackPointExtension>
        </extensions>
      </trkpt>
      <trkpt lat="45.35764616914093494415283203125" lon="-70.81562885083258152008056640625">
        <ele>614.79998779296875</ele>
        <time>2026-08-21T11:03:31.000Z</time>
        <extensions>
          <ns3:TrackPointExtension>
            <ns3:hr>118</ns3:hr>
            <ns3:cad>62</ns3:cad>
          </ns3:TrackPointExtension>
        </extensions>
      </trkpt>
      <trkpt lat="45.357646085321903228759765625" lon="-70.8156426809728145599365234375">
        <ele>614.5999755859375</ele>
        <time>2026-08-21T11:03:32.000Z</time>
        <extensions>
          <ns3:TrackPointExtension>
            <ns3:hr>117</ns3:hr>
            <ns3:cad>0</ns3:cad>
          </ns3:TrackPointExtension>
        </extensions>
      </trkpt>
      <trkpt lat="45.35764315165579319000244140625" lon="-70.815657936036586761474609375">
        <ele>614.4000244140625</ele>
        <time>2026-08-21T11:03:33.000Z</time>
        <extensions>
          <ns3:TrackPointExtension>
            <ns3:hr>117</ns3:hr>
            <ns3:cad>0</ns3:cad>
          </ns3:TrackPointExtension>
        </extensions>
      </trkpt>
      <trkpt lat="45.357638709247112274169921875" lon="-70.81568098627030849456787109375">
        <ele>614.20001220703125</ele>
        <time>2026-08-21T11:03:34.000Z</time>
        <extensions>
          <ns3:TrackPointExtension>
            <ns3:hr>117</ns3:hr>
            <ns3:cad>0</ns3:cad>
          </ns3:TrackPointExtension>
        </extensions>
      </trkpt>
      <trkpt lat="45.35763309337198734283447265625" lon="-70.81570110283792018890380859375">
        <ele>614</ele>
        <time>2026-08-21T11:03:35.000Z</time>
        <extensions>
          <ns3:TrackPointExtension>
            <ns3:hr>117</ns3:hr>
            <ns3:cad>0</ns3:cad>
          </ns3:TrackPointExtension>
        </extensions>
      </trkpt>
      <trkpt lat="45.3576405532658100128173828125" lon="-70.8157228119671344757080078125">
        <ele>613.79998779296875</ele>
        <time>2026-08-21T11:03:36.000Z</time>
        <extensions>
          <ns3:TrackPointExtension>
            <ns3:hr>116</ns3:hr>
            <ns3:cad>0</ns3:cad>
          </ns3:TrackPointExtension>
        </extensions>
      </trkpt>
      <trkpt lat="45.357640720903873443603515625" lon="-70.81573672592639923095703125">
        <ele>613.5999755859375</ele>
        <time>2026-08-21T11:03:37.000Z</time>
        <extensions>
          <ns3:TrackPointExtension>
            <ns3:hr>117</ns3:hr>
            <ns3:cad>0</ns3:cad>
          </ns3:TrackPointExtension>
        </extensions>
      </trkpt>
      <trkpt lat="45.3576417267322540283203125" lon="-70.81575575284659862518310546875">
        <ele>613.4000244140625</ele>
        <time>2026-08-21T11:03:38.000Z</time>
        <extensions>
          <ns3:TrackPointExtension>
            <ns3:hr>117</ns3:hr>
            <ns3:cad>0</ns3:cad>
          </ns3:TrackPointExtension>
        </extensions>
      </trkpt>
      <trkpt lat="45.3576395474374294281005859375" lon="-70.81577335484325885772705078125">
        <ele>613.20001220703125</ele>
        <time>2026-08-21T11:03:39.000Z</time>
        <extensions>
          <ns3:TrackPointExtension>
            <ns3:hr>118</ns3:hr>
            <ns3:cad>0</ns3:cad>
          </ns3:TrackPointExtension>
        </extensions>
      </trkpt>
      <trkpt lat="45.35763795487582683563232421875" lon="-70.81578743644058704376220703125">
        <ele>613</ele>
        <time>2026-08-21T11:03:40.000Z</time>
        <extensions>
          <ns3:TrackPointExtension>
            <ns3:hr>119</ns3:hr>
            <ns3:cad>0</ns3:cad>
          </ns3:TrackPointExtension>
        </extensions>
      </trkpt>
      <trkpt lat="45.3576309978961944580078125" lon="-70.815803110599517822265625">
        <ele>612.79998779296875</ele>
        <time>2026-08-21T11:03:41.000Z</time>
        <extensions>
          <ns3:TrackPointExtension>
            <ns3:hr>119</ns3:hr>
            <ns3:cad>0</ns3:cad>
          </ns3:TrackPointExtension>
        </extensions>
      </trkpt>
      <trkpt lat="45.3576338477432727813720703125" lon="-70.8158264122903347015380859375">
        <ele>612.5999755859375</ele>
        <time>2026-08-21T11:03:42.000Z</time>
        <extensions>
          <ns3:TrackPointExtension>
            <ns3:hr>120</ns3:hr>
            <ns3:cad>50</ns3:cad>
          </ns3:TrackPointExtension>
        </extensions>
      </trkpt>
      <trkpt lat="45.35763862542808055877685546875" lon="-70.81585030071437358856201171875">
        <ele>612.4000244140625</ele>
        <time>2026-08-21T11:03:43.000Z</time>
        <extensions>
          <ns3:TrackPointExtension>
            <ns3:hr>120</ns3:hr>
            <ns3:cad>50</ns3:cad>
          </ns3:TrackPointExtension>
        </extensions>
      </trkpt>
      <trkpt lat="45.35763896070420742034912109375" lon="-70.81586706452071666717529296875">
        <ele>612.20001220703125</ele>
        <time>2026-08-21T11:03:44.000Z</time>
        <extensions>
          <ns3:TrackPointExtension>
            <ns3:hr>119</ns3:hr>
            <ns3:cad>50</ns3:cad>
          </ns3:TrackPointExtension>
        </extensions>
      </trkpt>
      <trkpt lat="45.35763862542808055877685546875" lon="-70.81588064320385456085205078125">
        <ele>612.20001220703125</ele>
        <time>2026-08-21T11:03:45.000Z</time>
        <extensions>
          <ns3:TrackPointExtension>
            <ns3:hr>119</ns3:hr>
            <ns3:cad>50</ns3:cad>
          </ns3:TrackPointExtension>
        </extensions>
      </trkpt>
      <trkpt lat="45.35763728432357311248779296875" lon="-70.81588097847998142242431640625">
        <ele>612</ele>
        <time>2026-08-21T11:03:46.000Z</time>
        <extensions>
          <ns3:TrackPointExtension>
            <ns3:hr>119</ns3:hr>
            <ns3:cad>50</ns3:cad>
          </ns3:TrackPointExtension>
        </extensions>
      </trkpt>
      <trkpt lat="45.3576392121613025665283203125" lon="-70.81589321605861186981201171875">
        <ele>612</ele>
        <time>2026-08-21T11:03:47.000Z</time>
        <extensions>
          <ns3:TrackPointExtension>
            <ns3:hr>118</ns3:hr>
            <ns3:cad>50</ns3:cad>
          </ns3:TrackPointExtension>
        </extensions>
      </trkpt>
      <trkpt lat="45.3576390445232391357421875" lon="-70.815898664295673370361328125">
        <ele>612</ele>
        <time>2026-08-21T11:03:48.000Z</time>
        <extensions>
          <ns3:TrackPointExtension>
            <ns3:hr>118</ns3:hr>
            <ns3:cad>50</ns3:cad>
          </ns3:TrackPointExtension>
        </extensions>
      </trkpt>
      <trkpt lat="45.35763158462941646575927734375" lon="-70.81590763293206691741943359375">
        <ele>612</ele>
        <time>2026-08-21T11:03:49.000Z</time>
        <extensions>
          <ns3:TrackPointExtension>
            <ns3:hr>118</ns3:hr>
            <ns3:cad>50</ns3:cad>
          </ns3:TrackPointExtension>
        </extensions>
      </trkpt>
      <trkpt lat="45.35762571729719638824462890625" lon="-70.815917439758777618408203125">
        <ele>612</ele>
        <time>2026-08-21T11:03:50.000Z</time>
        <extensions>
          <ns3:TrackPointExtension>
            <ns3:hr>118</ns3:hr>
            <ns3:cad>50</ns3:cad>
          </ns3:TrackPointExtension>
        </extensions>
      </trkpt>
      <trkpt lat="45.3576201014220714569091796875" lon="-70.81591953523457050323486328125">
        <ele>611.79998779296875</ele>
        <time>2026-08-21T11:03:51.000Z</time>
        <extensions>
          <ns3:TrackPointExtension>
            <ns3:hr>118</ns3:hr>
            <ns3:cad>0</ns3:cad>
          </ns3:TrackPointExtension>
        </extensions>
      </trkpt>
      <trkpt lat="45.35761917941272258758544921875" lon="-70.81592045724391937255859375">
        <ele>611.79998779296875</ele>
        <time>2026-08-21T11:03:52.000Z</time>
        <extensions>
          <ns3:TrackPointExtension>
            <ns3:hr>118</ns3:hr>
            <ns3:cad>0</ns3:cad>
          </ns3:TrackPointExtension>
        </extensions>
      </trkpt>
      <trkpt lat="45.3576117195188999176025390625" lon="-70.815926492214202880859375">
        <ele>612</ele>
        <time>2026-08-21T11:03:53.000Z</time>
        <extensions>
          <ns3:TrackPointExtension>
            <ns3:hr>117</ns3:hr>
            <ns3:cad>0</ns3:cad>
          </ns3:TrackPointExtension>
        </extensions>
      </trkpt>
      <trkpt lat="45.3576019965112209320068359375" lon="-70.81593244336545467376708984375">
        <ele>612</ele>
        <time>2026-08-21T11:03:54.000Z</time>
        <extensions>
          <ns3:TrackPointExtension>
            <ns3:hr>117</ns3:hr>
            <ns3:cad>0</ns3:cad>
          </ns3:TrackPointExtension>
        </extensions>
      </trkpt>
      <trkpt lat="45.3575973026454448699951171875" lon="-70.81593680195510387420654296875">
        <ele>612</ele>
        <time>2026-08-21T11:03:55.000Z</time>
        <extensions>
          <ns3:TrackPointExtension>
            <ns3:hr>116</ns3:hr>
            <ns3:cad>0</ns3:cad>
          </ns3:TrackPointExtension>
        </extensions>
      </trkpt>
      <trkpt lat="45.357593782246112823486328125" lon="-70.81594736315310001373291015625">
        <ele>612.20001220703125</ele>
        <time>2026-08-21T11:03:56.000Z</time>
        <extensions>
          <ns3:TrackPointExtension>
            <ns3:hr>116</ns3:hr>
            <ns3:cad>17</ns3:cad>
          </ns3:TrackPointExtension>
        </extensions>
      </trkpt>
      <trkpt lat="45.35758716054260730743408203125" lon="-70.81596747972071170806884765625">
        <ele>612.20001220703125</ele>
        <time>2026-08-21T11:03:57.000Z</time>
        <extensions>
          <ns3:TrackPointExtension>
            <ns3:hr>116</ns3:hr>
            <ns3:cad>17</ns3:cad>
          </ns3:TrackPointExtension>
        </extensions>
      </trkpt>
      <trkpt lat="45.35757844336330890655517578125" lon="-70.81597234122455120086669921875">
        <ele>612.20001220703125</ele>
        <time>2026-08-21T11:03:58.000Z</time>
        <extensions>
          <ns3:TrackPointExtension>
            <ns3:hr>116</ns3:hr>
            <ns3:cad>17</ns3:cad>
          </ns3:TrackPointExtension>
        </extensions>
      </trkpt>
      <trkpt lat="45.35756754688918590545654296875" lon="-70.8159826509654521942138671875">
        <ele>612.4000244140625</ele>
        <time>2026-08-21T11:03:59.000Z</time>
        <extensions>
          <ns3:TrackPointExtension>
            <ns3:hr>116</ns3:hr>
            <ns3:cad>17</ns3:cad>
          </ns3:TrackPointExtension>
        </extensions>
      </trkpt>
      <trkpt lat="45.35756058990955352783203125" lon="-70.81599212251603603363037109375">
        <ele>612.4000244140625</ele>
        <time>2026-08-21T11:04:00.000Z</time>
        <extensions>
          <ns3:TrackPointExtension>
            <ns3:hr>116</ns3:hr>
            <ns3:cad>17</ns3:cad>
          </ns3:TrackPointExtension>
        </extensions>
      </trkpt>
      <trkpt lat="45.35754675976932048797607421875" lon="-70.81600754521787166595458984375">
        <ele>612.5999755859375</ele>
        <time>2026-08-21T11:04:01.000Z</time>
        <extensions>
          <ns3:TrackPointExtension>
            <ns3:hr>115</ns3:hr>
            <ns3:cad>0</ns3:cad>
          </ns3:TrackPointExtension>
        </extensions>
      </trkpt>
      <trkpt lat="45.35753242671489715576171875" lon="-70.8160185255110263824462890625">
        <ele>612.79998779296875</ele>
        <time>2026-08-21T11:04:02.000Z</time>
        <extensions>
          <ns3:TrackPointExtension>
            <ns3:hr>116</ns3:hr>
            <ns3:cad>0</ns3:cad>
          </ns3:TrackPointExtension>
        </extensions>
      </trkpt>
      <trkpt lat="45.35751675255596637725830078125" lon="-70.81602263264358043670654296875">
        <ele>612.79998779296875</ele>
        <time>2026-08-21T11:04:03.000Z</time>
        <extensions>
          <ns3:TrackPointExtension>
            <ns3:hr>117</ns3:hr>
            <ns3:cad>0</ns3:cad>
          </ns3:TrackPointExtension>
        </extensions>
      </trkpt>
      <trkpt lat="45.35750602371990680694580078125" lon="-70.81602464430034160614013671875">
        <ele>613</ele>
        <time>2026-08-21T11:04:04.000Z</time>
        <extensions>
          <ns3:TrackPointExtension>
            <ns3:hr>118</ns3:hr>
            <ns3:cad>0</ns3:cad>
          </ns3:TrackPointExtension>
        </extensions>
      </trkpt>
      <trkpt lat="45.35749621689319610595703125" lon="-70.8160225488245487213134765625">
        <ele>613.20001220703125</ele>
        <time>2026-08-21T11:04:05.000Z</time>
        <extensions>
          <ns3:TrackPointExtension>
            <ns3:hr>118</ns3:hr>
            <ns3:cad>0</ns3:cad>
          </ns3:TrackPointExtension>
        </extensions>
      </trkpt>
      <trkpt lat="45.3574861586093902587890625" lon="-70.81601877696812152862548828125">
        <ele>613.4000244140625</ele>
        <time>2026-08-21T11:04:06.000Z</time>
        <extensions>
          <ns3:TrackPointExtension>
            <ns3:hr>119</ns3:hr>
            <ns3:cad>0</ns3:cad>
          </ns3:TrackPointExtension>
        </extensions>
      </trkpt>
      <trkpt lat="45.35747341811656951904296875" lon="-70.8160185255110263824462890625">
        <ele>613.79998779296875</ele>
        <time>2026-08-21T11:04:07.000Z</time>
        <extensions>
          <ns3:TrackPointExtension>
            <ns3:hr>118</ns3:hr>
            <ns3:cad>0</ns3:cad>
          </ns3:TrackPointExtension>
        </extensions>
      </trkpt>
      <trkpt lat="45.35745732486248016357421875" lon="-70.816020034253597259521484375">
        <ele>614</ele>
        <time>2026-08-21T11:04:08.000Z</time>
        <extensions>
          <ns3:TrackPointExtension>
            <ns3:hr>118</ns3:hr>
            <ns3:cad>0</ns3:cad>
          </ns3:TrackPointExtension>
        </extensions>
      </trkpt>
      <trkpt lat="45.35744986496865749359130859375" lon="-70.81602212972939014434814453125">
        <ele>614.20001220703125</ele>
        <time>2026-08-21T11:04:09.000Z</time>
        <extensions>
          <ns3:TrackPointExtension>
            <ns3:hr>119</ns3:hr>
            <ns3:cad>0</ns3:cad>
          </ns3:TrackPointExtension>
        </extensions>
      </trkpt>
      <trkpt lat="45.35743796266615390777587890625" lon="-70.81602347083389759063720703125">
        <ele>614.4000244140625</ele>
        <time>2026-08-21T11:04:10.000Z</time>
        <extensions>
          <ns3:TrackPointExtension>
            <ns3:hr>119</ns3:hr>
            <ns3:cad>0</ns3:cad>
          </ns3:TrackPointExtension>
        </extensions>
      </trkpt>
      <trkpt lat="45.35742513835430145263671875" lon="-70.816024728119373321533203125">
        <ele>614.5999755859375</ele>
        <time>2026-08-21T11:04:11.000Z</time>
        <extensions>
          <ns3:TrackPointExtension>
            <ns3:hr>120</ns3:hr>
            <ns3:cad>0</ns3:cad>
          </ns3:TrackPointExtension>
        </extensions>
      </trkpt>
      <trkpt lat="45.357408709824085235595703125" lon="-70.8160262368619441986083984375">
        <ele>614.79998779296875</ele>
        <time>2026-08-21T11:04:12.000Z</time>
        <extensions>
          <ns3:TrackPointExtension>
            <ns3:hr>120</ns3:hr>
            <ns3:cad>0</ns3:cad>
          </ns3:TrackPointExtension>
        </extensions>
      </trkpt>
      <trkpt lat="45.3573968075215816497802734375" lon="-70.8160248957574367523193359375">
        <ele>615</ele>
        <time>2026-08-21T11:04:13.000Z</time>
        <extensions>
          <ns3:TrackPointExtension>
            <ns3:hr>122</ns3:hr>
            <ns3:cad>50</ns3:cad>
          </ns3:TrackPointExtension>
        </extensions>
      </trkpt>
      <trkpt lat="45.35738683305680751800537109375" lon="-70.81602095626294612884521484375">
        <ele>615.4000244140625</ele>
        <time>2026-08-21T11:04:14.000Z</time>
        <extensions>
          <ns3:TrackPointExtension>
            <ns3:hr>123</ns3:hr>
            <ns3:cad>50</ns3:cad>
          </ns3:TrackPointExtension>
        </extensions>
      </trkpt>
      <trkpt lat="45.3573750145733356475830078125" lon="-70.8160202018916606903076171875">
        <ele>615.5999755859375</ele>
        <time>2026-08-21T11:04:15.000Z</time>
        <extensions>
          <ns3:TrackPointExtension>
            <ns3:hr>124</ns3:hr>
            <ns3:cad>50</ns3:cad>
          </ns3:TrackPointExtension>
        </extensions>
      </trkpt>
      <trkpt lat="45.3573626093566417694091796875" lon="-70.81602330319583415985107421875">
        <ele>615.79998779296875</ele>
        <time>2026-08-21T11:04:16.000Z</time>
        <extensions>
          <ns3:TrackPointExtension>
            <ns3:hr>125</ns3:hr>
            <ns3:cad>0</ns3:cad>
          </ns3:TrackPointExtension>
        </extensions>
      </trkpt>
      <trkpt lat="45.3573532216250896453857421875" lon="-70.81602028571069240570068359375">
        <ele>616</ele>
        <time>2026-08-21T11:04:17.000Z</time>
        <extensions>
          <ns3:TrackPointExtension>
            <ns3:hr>126</ns3:hr>
            <ns3:cad>0</ns3:cad>
          </ns3:TrackPointExtension>
        </extensions>
      </trkpt>
      <trkpt lat="45.35733394324779510498046875" lon="-70.81601659767329692840576171875">
        <ele>616.4000244140625</ele>
        <time>2026-08-21T11:04:18.000Z</time>
        <extensions>
          <ns3:TrackPointExtension>
            <ns3:hr>127</ns3:hr>
            <ns3:cad>0</ns3:cad>
          </ns3:TrackPointExtension>
        </extensions>
      </trkpt>
      <trkpt lat="45.3573243878781795501708984375" lon="-70.8160155080258846282958984375">
        <ele>616.5999755859375</ele>
        <time>2026-08-21T11:04:19.000Z</time>
        <extensions>
          <ns3:TrackPointExtension>
            <ns3:hr>128</ns3:hr>
            <ns3:cad>0</ns3:cad>
          </ns3:TrackPointExtension>
        </extensions>
      </trkpt>
      <trkpt lat="45.35731022246181964874267578125" lon="-70.81600737757980823516845703125">
        <ele>616.79998779296875</ele>
        <time>2026-08-21T11:04:20.000Z</time>
        <extensions>
          <ns3:TrackPointExtension>
            <ns3:hr>128</ns3:hr>
            <ns3:cad>51</ns3:cad>
          </ns3:TrackPointExtension>
        </extensions>
      </trkpt>
      <trkpt lat="45.35729798488318920135498046875" lon="-70.81600268371403217315673828125">
        <ele>617</ele>
        <time>2026-08-21T11:04:21.000Z</time>
        <extensions>
          <ns3:TrackPointExtension>
            <ns3:hr>128</ns3:hr>
            <ns3:cad>50</ns3:cad>
          </ns3:TrackPointExtension>
        </extensions>
      </trkpt>
      <trkpt lat="45.3572895191609859466552734375" lon="-70.8160047791898250579833984375">
        <ele>617.20001220703125</ele>
        <time>2026-08-21T11:04:22.000Z</time>
        <extensions>
          <ns3:TrackPointExtension>
            <ns3:hr>129</ns3:hr>
            <ns3:cad>50</ns3:cad>
          </ns3:TrackPointExtension>
        </extensions>
      </trkpt>
      <trkpt lat="45.357277281582355499267578125" lon="-70.81600653938949108123779296875">
        <ele>617.4000244140625</ele>
        <time>2026-08-21T11:04:23.000Z</time>
        <extensions>
          <ns3:TrackPointExtension>
            <ns3:hr>128</ns3:hr>
            <ns3:cad>50</ns3:cad>
          </ns3:TrackPointExtension>
        </extensions>
      </trkpt>
      <trkpt lat="45.35726881586015224456787109375" lon="-70.81600083969533443450927734375">
        <ele>617.5999755859375</ele>
        <time>2026-08-21T11:04:24.000Z</time>
        <extensions>
          <ns3:TrackPointExtension>
            <ns3:hr>128</ns3:hr>
            <ns3:cad>50</ns3:cad>
          </ns3:TrackPointExtension>
        </extensions>
      </trkpt>
      <trkpt lat="45.35725791938602924346923828125" lon="-70.81599681638181209564208984375">
        <ele>617.79998779296875</ele>
        <time>2026-08-21T11:04:25.000Z</time>
        <extensions>
          <ns3:TrackPointExtension>
            <ns3:hr>129</ns3:hr>
            <ns3:cad>50</ns3:cad>
          </ns3:TrackPointExtension>
        </extensions>
      </trkpt>
      <trkpt lat="45.3572501242160797119140625" lon="-70.81599731929600238800048828125">
        <ele>618</ele>
        <time>2026-08-21T11:04:26.000Z</time>
        <extensions>
          <ns3:TrackPointExtension>
            <ns3:hr>129</ns3:hr>
            <ns3:cad>50</ns3:cad>
          </ns3:TrackPointExtension>
        </extensions>
      </trkpt>
      <trkpt lat="45.35723813809454441070556640625" lon="-70.81599933095276355743408203125">
        <ele>618.20001220703125</ele>
        <time>2026-08-21T11:04:27.000Z</time>
        <extensions>
          <ns3:TrackPointExtension>
            <ns3:hr>129</ns3:hr>
            <ns3:cad>48</ns3:cad>
          </ns3:TrackPointExtension>
        </extensions>
      </trkpt>
      <trkpt lat="45.35722388885915279388427734375" lon="-70.81599564291536808013916015625">
        <ele>618.4000244140625</ele>
        <time>2026-08-21T11:04:28.000Z</time>
        <extensions>
          <ns3:TrackPointExtension>
            <ns3:hr>130</ns3:hr>
            <ns3:cad>49</ns3:cad>
          </ns3:TrackPointExtension>
        </extensions>
      </trkpt>
      <trkpt lat="45.3572179377079010009765625" lon="-70.81598860211670398712158203125">
        <ele>618.79998779296875</ele>
        <time>2026-08-21T11:04:29.000Z</time>
        <extensions>
          <ns3:TrackPointExtension>
            <ns3:hr>130</ns3:hr>
            <ns3:cad>49</ns3:cad>
          </ns3:TrackPointExtension>
        </extensions>
      </trkpt>
      <trkpt lat="45.357210896909236907958984375" lon="-70.81598189659416675567626953125">
        <ele>619</ele>
        <time>2026-08-21T11:04:30.000Z</time>
        <extensions>
          <ns3:TrackPointExtension>
            <ns3:hr>130</ns3:hr>
            <ns3:cad>46</ns3:cad>
          </ns3:TrackPointExtension>
        </extensions>
      </trkpt>
      <trkpt lat="45.35719974897801876068115234375" lon="-70.81598072312772274017333984375">
        <ele>619</ele>
        <time>2026-08-21T11:04:31.000Z</time>
        <extensions>
          <ns3:TrackPointExtension>
            <ns3:hr>130</ns3:hr>
            <ns3:cad>46</ns3:cad>
          </ns3:TrackPointExtension>
        </extensions>
      </trkpt>
      <trkpt lat="45.3571886010468006134033203125" lon="-70.81598072312772274017333984375">
        <ele>619.20001220703125</ele>
        <time>2026-08-21T11:04:32.000Z</time>
        <extensions>
          <ns3:TrackPointExtension>
            <ns3:hr>131</ns3:hr>
            <ns3:cad>46</ns3:cad>
          </ns3:TrackPointExtension>
        </extensions>
      </trkpt>
      <trkpt lat="45.35717879422008991241455078125" lon="-70.81598105840384960174560546875">
        <ele>619.4000244140625</ele>
        <time>2026-08-21T11:04:33.000Z</time>
        <extensions>
          <ns3:TrackPointExtension>
            <ns3:hr>132</ns3:hr>
            <ns3:cad>47</ns3:cad>
          </ns3:TrackPointExtension>
        </extensions>
      </trkpt>
      <trkpt lat="45.35717569291591644287109375" lon="-70.815987177193164825439453125">
        <ele>619.4000244140625</ele>
        <time>2026-08-21T11:04:34.000Z</time>
        <extensions>
          <ns3:TrackPointExtension>
            <ns3:hr>134</ns3:hr>
            <ns3:cad>47</ns3:cad>
          </ns3:TrackPointExtension>
        </extensions>
      </trkpt>
      <trkpt lat="45.35717611201107501983642578125" lon="-70.81599044613540172576904296875">
        <ele>619.5999755859375</ele>
        <time>2026-08-21T11:04:35.000Z</time>
        <extensions>
          <ns3:TrackPointExtension>
            <ns3:hr>135</ns3:hr>
            <ns3:cad>0</ns3:cad>
          </ns3:TrackPointExtension>
        </extensions>
      </trkpt>
      <trkpt lat="45.35717929713428020477294921875" lon="-70.8159906975924968719482421875">
        <ele>619.5999755859375</ele>
        <time>2026-08-21T11:04:36.000Z</time>
        <extensions>
          <ns3:TrackPointExtension>
            <ns3:hr>136</ns3:hr>
            <ns3:cad>0</ns3:cad>
          </ns3:TrackPointExtension>
        </extensions>
      </trkpt>
      <trkpt lat="45.35718332044780254364013671875" lon="-70.815991871058940887451171875">
        <ele>619.79998779296875</ele>
        <time>2026-08-21T11:04:37.000Z</time>
        <extensions>
          <ns3:TrackPointExtension>
            <ns3:hr>137</ns3:hr>
            <ns3:cad>0</ns3:cad>
          </ns3:TrackPointExtension>
        </extensions>
      </trkpt>
      <trkpt lat="45.35718373954296112060546875" lon="-70.815994553267955780029296875">
        <ele>619.79998779296875</ele>
        <time>2026-08-21T11:04:38.000Z</time>
        <extensions>
          <ns3:TrackPointExtension>
            <ns3:hr>137</ns3:hr>
            <ns3:cad>0</ns3:cad>
          </ns3:TrackPointExtension>
        </extensions>
      </trkpt>
      <trkpt lat="45.3571839071810245513916015625" lon="-70.8159948885440826416015625">
        <ele>619.79998779296875</ele>
        <time>2026-08-21T11:04:39.000Z</time>
        <extensions>
          <ns3:TrackPointExtension>
            <ns3:hr>137</ns3:hr>
            <ns3:cad>0</ns3:cad>
          </ns3:TrackPointExtension>
        </extensions>
      </trkpt>
      <trkpt lat="45.35718432627618312835693359375" lon="-70.81599312834441661834716796875">
        <ele>619.79998779296875</ele>
        <time>2026-08-21T11:04:40.000Z</time>
        <extensions>
          <ns3:TrackPointExtension>
            <ns3:hr>136</ns3:hr>
            <ns3:cad>0</ns3:cad>
          </ns3:TrackPointExtension>
        </extensions>
      </trkpt>
      <trkpt lat="45.3571842424571514129638671875" lon="-70.81598960794508457183837890625">
        <ele>619.79998779296875</ele>
        <time>2026-08-21T11:04:41.000Z</time>
        <extensions>
          <ns3:TrackPointExtension>
            <ns3:hr>137</ns3:hr>
            <ns3:cad>0</ns3:cad>
          </ns3:TrackPointExtension>
        </extensions>
      </trkpt>
      <trkpt lat="45.35718105733394622802734375" lon="-70.81598214805126190185546875">
        <ele>619.79998779296875</ele>
        <time>2026-08-21T11:04:42.000Z</time>
        <extensions>
          <ns3:TrackPointExtension>
            <ns3:hr>137</ns3:hr>
            <ns3:cad>0</ns3:cad>
          </ns3:TrackPointExtension>
        </extensions>
      </trkpt>
      <trkpt lat="45.35717007704079151153564453125" lon="-70.8159761130809783935546875">
        <ele>619.79998779296875</ele>
        <time>2026-08-21T11:04:43.000Z</time>
        <extensions>
          <ns3:TrackPointExtension>
            <ns3:hr>136</ns3:hr>
            <ns3:cad>0</ns3:cad>
          </ns3:TrackPointExtension>
        </extensions>
      </trkpt>
      <trkpt lat="45.3571621142327785491943359375" lon="-70.81596982665359973907470703125">
        <ele>619.79998779296875</ele>
        <time>2026-08-21T11:04:44.000Z</time>
        <extensions>
          <ns3:TrackPointExtension>
            <ns3:hr>136</ns3:hr>
            <ns3:cad>0</ns3:cad>
          </ns3:TrackPointExtension>
        </extensions>
      </trkpt>
      <trkpt lat="45.35715415142476558685302734375" lon="-70.815967731177806854248046875">
        <ele>620</ele>
        <time>2026-08-21T11:04:45.000Z</time>
        <extensions>
          <ns3:TrackPointExtension>
            <ns3:hr>136</ns3:hr>
            <ns3:cad>0</ns3:cad>
          </ns3:TrackPointExtension>
        </extensions>
      </trkpt>
      <trkpt lat="45.3571500442922115325927734375" lon="-70.81596261821687221527099609375">
        <ele>620.20001220703125</ele>
        <time>2026-08-21T11:04:46.000Z</time>
        <extensions>
          <ns3:TrackPointExtension>
            <ns3:hr>136</ns3:hr>
            <ns3:cad>0</ns3:cad>
          </ns3:TrackPointExtension>
        </extensions>
      </trkpt>
      <trkpt lat="45.3571374714374542236328125" lon="-70.81595658324658870697021484375">
        <ele>620.4000244140625</ele>
        <time>2026-08-21T11:04:47.000Z</time>
        <extensions>
          <ns3:TrackPointExtension>
            <ns3:hr>136</ns3:hr>
            <ns3:cad>0</ns3:cad>
          </ns3:TrackPointExtension>
        </extensions>
      </trkpt>
      <trkpt lat="45.35712917335331439971923828125" lon="-70.81595205701887607574462890625">
        <ele>620.5999755859375</ele>
        <time>2026-08-21T11:04:48.000Z</time>
        <extensions>
          <ns3:TrackPointExtension>
            <ns3:hr>136</ns3:hr>
            <ns3:cad>0</ns3:cad>
          </ns3:TrackPointExtension>
        </extensions>
      </trkpt>
      <trkpt lat="45.35711936652660369873046875" lon="-70.81594727933406829833984375">
        <ele>620.79998779296875</ele>
        <time>2026-08-21T11:04:49.000Z</time>
        <extensions>
          <ns3:TrackPointExtension>
            <ns3:hr>136</ns3:hr>
            <ns3:cad>0</ns3:cad>
          </ns3:TrackPointExtension>
        </extensions>
      </trkpt>
      <trkpt lat="45.35710821859538555145263671875" lon="-70.8159404061734676361083984375">
        <ele>621</ele>
        <time>2026-08-21T11:04:50.000Z</time>
        <extensions>
          <ns3:TrackPointExtension>
            <ns3:hr>136</ns3:hr>
            <ns3:cad>0</ns3:cad>
          </ns3:TrackPointExtension>
        </extensions>
      </trkpt>
      <trkpt lat="45.357098244130611419677734375" lon="-70.81593479029834270477294921875">
        <ele>621.20001220703125</ele>
        <time>2026-08-21T11:04:51.000Z</time>
        <extensions>
          <ns3:TrackPointExtension>
            <ns3:hr>137</ns3:hr>
            <ns3:cad>0</ns3:cad>
          </ns3:TrackPointExtension>
        </extensions>
      </trkpt>
      <trkpt lat="45.35709329880774021148681640625" lon="-70.8159253187477588653564453125">
        <ele>621.4000244140625</ele>
        <time>2026-08-21T11:04:52.000Z</time>
        <extensions>
          <ns3:TrackPointExtension>
            <ns3:hr>136</ns3:hr>
            <ns3:cad>0</ns3:cad>
          </ns3:TrackPointExtension>
        </extensions>
      </trkpt>
      <trkpt lat="45.3570876829326152801513671875" lon="-70.8159189485013484954833984375">
        <ele>621.5999755859375</ele>
        <time>2026-08-21T11:04:53.000Z</time>
        <extensions>
          <ns3:TrackPointExtension>
            <ns3:hr>136</ns3:hr>
            <ns3:cad>0</ns3:cad>
          </ns3:TrackPointExtension>
        </extensions>
      </trkpt>
      <trkpt lat="45.3570811450481414794921875" lon="-70.81590394489467144012451171875">
        <ele>621.79998779296875</ele>
        <time>2026-08-21T11:04:54.000Z</time>
        <extensions>
          <ns3:TrackPointExtension>
            <ns3:hr>136</ns3:hr>
            <ns3:cad>0</ns3:cad>
          </ns3:TrackPointExtension>
        </extensions>
      </trkpt>
      <trkpt lat="45.35707536153495311737060546875" lon="-70.81588986329734325408935546875">
        <ele>622</ele>
        <time>2026-08-21T11:04:55.000Z</time>
        <extensions>
          <ns3:TrackPointExtension>
            <ns3:hr>136</ns3:hr>
            <ns3:cad>0</ns3:cad>
          </ns3:TrackPointExtension>
        </extensions>
      </trkpt>
      <trkpt lat="45.3570679016411304473876953125" lon="-70.8158746920526027679443359375">
        <ele>622.4000244140625</ele>
        <time>2026-08-21T11:04:56.000Z</time>
        <extensions>
          <ns3:TrackPointExtension>
            <ns3:hr>137</ns3:hr>
            <ns3:cad>0</ns3:cad>
          </ns3:TrackPointExtension>
        </extensions>
      </trkpt>
      <trkpt lat="45.3570588491857051849365234375" lon="-70.81586773507297039031982421875">
        <ele>622.5999755859375</ele>
        <time>2026-08-21T11:04:57.000Z</time>
        <extensions>
          <ns3:TrackPointExtension>
            <ns3:hr>136</ns3:hr>
            <ns3:cad>0</ns3:cad>
          </ns3:TrackPointExtension>
        </extensions>
      </trkpt>
      <trkpt lat="45.35704828798770904541015625" lon="-70.8158616162836551666259765625">
        <ele>622.79998779296875</ele>
        <time>2026-08-21T11:04:58.000Z</time>
        <extensions>
          <ns3:TrackPointExtension>
            <ns3:hr>136</ns3:hr>
            <ns3:cad>0</ns3:cad>
          </ns3:TrackPointExtension>
        </extensions>
      </trkpt>
      <trkpt lat="45.3570355474948883056640625" lon="-70.8158555813133716583251953125">
        <ele>623</ele>
        <time>2026-08-21T11:04:59.000Z</time>
        <extensions>
          <ns3:TrackPointExtension>
            <ns3:hr>135</ns3:hr>
            <ns3:cad>48</ns3:cad>
          </ns3:TrackPointExtension>
        </extensions>
      </trkpt>
      <trkpt lat="45.35702188499271869659423828125" lon="-70.8158535696566104888916015625">
        <ele>623.20001220703125</ele>
        <time>2026-08-21T11:05:00.000Z</time>
        <extensions>
          <ns3:TrackPointExtension>
            <ns3:hr>136</ns3:hr>
            <ns3:cad>48</ns3:cad>
          </ns3:TrackPointExtension>
        </extensions>
      </trkpt>
      <trkpt lat="45.35700981505215167999267578125" lon="-70.8158505521714687347412109375">
        <ele>623.4000244140625</ele>
        <time>2026-08-21T11:05:01.000Z</time>
        <extensions>
          <ns3:TrackPointExtension>
            <ns3:hr>137</ns3:hr>
            <ns3:cad>48</ns3:cad>
          </ns3:TrackPointExtension>
        </extensions>
      </trkpt>
      <trkpt lat="45.3569964878261089324951171875" lon="-70.81585164181888103485107421875">
        <ele>623.5999755859375</ele>
        <time>2026-08-21T11:05:02.000Z</time>
        <extensions>
          <ns3:TrackPointExtension>
            <ns3:hr>139</ns3:hr>
            <ns3:cad>48</ns3:cad>
          </ns3:TrackPointExtension>
        </extensions>
      </trkpt>
      <trkpt lat="45.35698114894330501556396484375" lon="-70.81585482694208621978759765625">
        <ele>623.79998779296875</ele>
        <time>2026-08-21T11:05:03.000Z</time>
        <extensions>
          <ns3:TrackPointExtension>
            <ns3:hr>140</ns3:hr>
            <ns3:cad>47</ns3:cad>
          </ns3:TrackPointExtension>
        </extensions>
      </trkpt>
      <trkpt lat="45.35696648061275482177734375" lon="-70.81585742533206939697265625">
        <ele>623.79998779296875</ele>
        <time>2026-08-21T11:05:04.000Z</time>
        <extensions>
          <ns3:TrackPointExtension>
            <ns3:hr>141</ns3:hr>
            <ns3:cad>47</ns3:cad>
          </ns3:TrackPointExtension>
        </extensions>
      </trkpt>
      <trkpt lat="45.35694996826350688934326171875" lon="-70.81585968844592571258544921875">
        <ele>624</ele>
        <time>2026-08-21T11:05:05.000Z</time>
        <extensions>
          <ns3:TrackPointExtension>
            <ns3:hr>142</ns3:hr>
            <ns3:cad>47</ns3:cad>
          </ns3:TrackPointExtension>
        </extensions>
      </trkpt>
      <trkpt lat="45.35692784003913402557373046875" lon="-70.81585683859884738922119140625">
        <ele>624</ele>
        <time>2026-08-21T11:05:06.000Z</time>
        <extensions>
          <ns3:TrackPointExtension>
            <ns3:hr>141</ns3:hr>
            <ns3:cad>47</ns3:cad>
          </ns3:TrackPointExtension>
        </extensions>
      </trkpt>
      <trkpt lat="45.356915183365345001220703125" lon="-70.8158552460372447967529296875">
        <ele>624.20001220703125</ele>
        <time>2026-08-21T11:05:07.000Z</time>
        <extensions>
          <ns3:TrackPointExtension>
            <ns3:hr>141</ns3:hr>
            <ns3:cad>47</ns3:cad>
          </ns3:TrackPointExtension>
        </extensions>
      </trkpt>
      <trkpt lat="45.35690487362444400787353515625" lon="-70.81585767678916454315185546875">
        <ele>624.4000244140625</ele>
        <time>2026-08-21T11:05:08.000Z</time>
        <extensions>
          <ns3:TrackPointExtension>
            <ns3:hr>141</ns3:hr>
            <ns3:cad>47</ns3:cad>
          </ns3:TrackPointExtension>
        </extensions>
      </trkpt>
      <trkpt lat="45.35689095966517925262451171875" lon="-70.81585767678916454315185546875">
        <ele>624.4000244140625</ele>
        <time>2026-08-21T11:05:09.000Z</time>
        <extensions>
          <ns3:TrackPointExtension>
            <ns3:hr>141</ns3:hr>
            <ns3:cad>47</ns3:cad>
          </ns3:TrackPointExtension>
        </extensions>
      </trkpt>
      <trkpt lat="45.3568798117339611053466796875" lon="-70.8158559165894985198974609375">
        <ele>624.5999755859375</ele>
        <time>2026-08-21T11:05:10.000Z</time>
        <extensions>
          <ns3:TrackPointExtension>
            <ns3:hr>141</ns3:hr>
            <ns3:cad>47</ns3:cad>
          </ns3:TrackPointExtension>
        </extensions>
      </trkpt>
      <trkpt lat="45.3568653948605060577392578125" lon="-70.81584996543824672698974609375">
        <ele>624.79998779296875</ele>
        <time>2026-08-21T11:05:11.000Z</time>
        <extensions>
          <ns3:TrackPointExtension>
            <ns3:hr>141</ns3:hr>
            <ns3:cad>51</ns3:cad>
          </ns3:TrackPointExtension>
        </extensions>
      </trkpt>
      <trkpt lat="45.3568518161773681640625" lon="-70.81585030071437358856201171875">
        <ele>625</ele>
        <time>2026-08-21T11:05:12.000Z</time>
        <extensions>
          <ns3:TrackPointExtension>
            <ns3:hr>141</ns3:hr>
            <ns3:cad>51</ns3:cad>
          </ns3:TrackPointExtension>
        </extensions>
      </trkpt>
      <trkpt lat="45.3568355552852153778076171875" lon="-70.81584778614342212677001953125">
        <ele>625.20001220703125</ele>
        <time>2026-08-21T11:05:13.000Z</time>
        <extensions>
          <ns3:TrackPointExtension>
            <ns3:hr>141</ns3:hr>
            <ns3:cad>51</ns3:cad>
          </ns3:TrackPointExtension>
        </extensions>
      </trkpt>
      <trkpt lat="45.35682323388755321502685546875" lon="-70.81585407257080078125">
        <ele>625.4000244140625</ele>
        <time>2026-08-21T11:05:14.000Z</time>
        <extensions>
          <ns3:TrackPointExtension>
            <ns3:hr>142</ns3:hr>
            <ns3:cad>51</ns3:cad>
          </ns3:TrackPointExtension>
        </extensions>
      </trkpt>
      <trkpt lat="45.35680412314832210540771484375" lon="-70.81586270593106746673583984375">
        <ele>625.4000244140625</ele>
        <time>2026-08-21T11:05:15.000Z</time>
        <extensions>
          <ns3:TrackPointExtension>
            <ns3:hr>142</ns3:hr>
            <ns3:cad>49</ns3:cad>
          </ns3:TrackPointExtension>
        </extensions>
      </trkpt>
      <trkpt lat="45.356793142855167388916015625" lon="-70.8158669807016849517822265625">
        <ele>625.4000244140625</ele>
        <time>2026-08-21T11:05:16.000Z</time>
        <extensions>
          <ns3:TrackPointExtension>
            <ns3:hr>142</ns3:hr>
            <ns3:cad>48</ns3:cad>
          </ns3:TrackPointExtension>
        </extensions>
      </trkpt>
      <trkpt lat="45.35678283311426639556884765625" lon="-70.815871171653270721435546875">
        <ele>625.4000244140625</ele>
        <time>2026-08-21T11:05:17.000Z</time>
        <extensions>
          <ns3:TrackPointExtension>
            <ns3:hr>143</ns3:hr>
            <ns3:cad>48</ns3:cad>
          </ns3:TrackPointExtension>
        </extensions>
      </trkpt>
      <trkpt lat="45.356771014630794525146484375" lon="-70.81587393768131732940673828125">
        <ele>625.4000244140625</ele>
        <time>2026-08-21T11:05:18.000Z</time>
        <extensions>
          <ns3:TrackPointExtension>
            <ns3:hr>143</ns3:hr>
            <ns3:cad>47</ns3:cad>
          </ns3:TrackPointExtension>
        </extensions>
      </trkpt>
      <trkpt lat="45.35675651393830776214599609375" lon="-70.8158797211945056915283203125">
        <ele>625.4000244140625</ele>
        <time>2026-08-21T11:05:19.000Z</time>
        <extensions>
          <ns3:TrackPointExtension>
            <ns3:hr>144</ns3:hr>
            <ns3:cad>47</ns3:cad>
          </ns3:TrackPointExtension>
        </extensions>
      </trkpt>
      <trkpt lat="45.35674511454999446868896484375" lon="-70.81588433124125003814697265625">
        <ele>625.5999755859375</ele>
        <time>2026-08-21T11:05:20.000Z</time>
        <extensions>
          <ns3:TrackPointExtension>
            <ns3:hr>144</ns3:hr>
            <ns3:cad>46</ns3:cad>
          </ns3:TrackPointExtension>
        </extensions>
      </trkpt>
      <trkpt lat="45.35673539154231548309326171875" lon="-70.815883241593837738037109375">
        <ele>625.5999755859375</ele>
        <time>2026-08-21T11:05:21.000Z</time>
        <extensions>
          <ns3:TrackPointExtension>
            <ns3:hr>143</ns3:hr>
            <ns3:cad>46</ns3:cad>
          </ns3:TrackPointExtension>
        </extensions>
      </trkpt>
      <trkpt lat="45.3567259199917316436767578125" lon="-70.8158857561647891998291015625">
        <ele>625.79998779296875</ele>
        <time>2026-08-21T11:05:22.000Z</time>
        <extensions>
          <ns3:TrackPointExtension>
            <ns3:hr>143</ns3:hr>
            <ns3:cad>46</ns3:cad>
          </ns3:TrackPointExtension>
        </extensions>
      </trkpt>
      <trkpt lat="45.3567165322601795196533203125" lon="-70.8158876001834869384765625">
        <ele>626</ele>
        <time>2026-08-21T11:05:23.000Z</time>
        <extensions>
          <ns3:TrackPointExtension>
            <ns3:hr>142</ns3:hr>
            <ns3:cad>51</ns3:cad>
          </ns3:TrackPointExtension>
        </extensions>
      </trkpt>
      <trkpt lat="45.3567056357860565185546875" lon="-70.815887264907360076904296875">
        <ele>626.20001220703125</ele>
        <time>2026-08-21T11:05:24.000Z</time>
        <extensions>
          <ns3:TrackPointExtension>
            <ns3:hr>141</ns3:hr>
            <ns3:cad>51</ns3:cad>
          </ns3:TrackPointExtension>
        </extensions>
      </trkpt>
      <trkpt lat="45.3566920571029186248779296875" lon="-70.8158862590789794921875">
        <ele>626.4000244140625</ele>
        <time>2026-08-21T11:05:25.000Z</time>
        <extensions>
          <ns3:TrackPointExtension>
            <ns3:hr>141</ns3:hr>
            <ns3:cad>52</ns3:cad>
          </ns3:TrackPointExtension>
        </extensions>
      </trkpt>
      <trkpt lat="45.3566809929907321929931640625" lon="-70.81588684581220149993896484375">
        <ele>626.4000244140625</ele>
        <time>2026-08-21T11:05:26.000Z</time>
        <extensions>
          <ns3:TrackPointExtension>
            <ns3:hr>141</ns3:hr>
            <ns3:cad>52</ns3:cad>
          </ns3:TrackPointExtension>
        </extensions>
      </trkpt>
      <trkpt lat="45.3566709347069263458251953125" lon="-70.8158887736499309539794921875">
        <ele>626.5999755859375</ele>
        <time>2026-08-21T11:05:27.000Z</time>
        <extensions>
          <ns3:TrackPointExtension>
            <ns3:hr>139</ns3:hr>
            <ns3:cad>52</ns3:cad>
          </ns3:TrackPointExtension>
        </extensions>
      </trkpt>
      <trkpt lat="45.3566602058708667755126953125" lon="-70.81588424742221832275390625">
        <ele>626.5999755859375</ele>
        <time>2026-08-21T11:05:28.000Z</time>
        <extensions>
          <ns3:TrackPointExtension>
            <ns3:hr>138</ns3:hr>
            <ns3:cad>49</ns3:cad>
          </ns3:TrackPointExtension>
        </extensions>
      </trkpt>
      <trkpt lat="45.3566471301019191741943359375" lon="-70.81588022410869598388671875">
        <ele>626.79998779296875</ele>
        <time>2026-08-21T11:05:29.000Z</time>
        <extensions>
          <ns3:TrackPointExtension>
            <ns3:hr>138</ns3:hr>
            <ns3:cad>49</ns3:cad>
          </ns3:TrackPointExtension>
        </extensions>
      </trkpt>
      <trkpt lat="45.3566343896090984344482421875" lon="-70.81588231958448886871337890625">
        <ele>627</ele>
        <time>2026-08-21T11:05:30.000Z</time>
        <extensions>
          <ns3:TrackPointExtension>
            <ns3:hr>137</ns3:hr>
            <ns3:cad>49</ns3:cad>
          </ns3:TrackPointExtension>
        </extensions>
      </trkpt>
      <trkpt lat="45.35662625916302204132080078125" lon="-70.8158822357654571533203125">
        <ele>627</ele>
        <time>2026-08-21T11:05:31.000Z</time>
        <extensions>
          <ns3:TrackPointExtension>
            <ns3:hr>137</ns3:hr>
            <ns3:cad>49</ns3:cad>
          </ns3:TrackPointExtension>
        </extensions>
      </trkpt>
      <trkpt lat="45.3566171228885650634765625" lon="-70.81587863154709339141845703125">
        <ele>627.20001220703125</ele>
        <time>2026-08-21T11:05:32.000Z</time>
        <extensions>
          <ns3:TrackPointExtension>
            <ns3:hr>137</ns3:hr>
            <ns3:cad>49</ns3:cad>
          </ns3:TrackPointExtension>
        </extensions>
      </trkpt>
      <trkpt lat="45.35661050118505954742431640625" lon="-70.81587351858615875244140625">
        <ele>627.4000244140625</ele>
        <time>2026-08-21T11:05:33.000Z</time>
        <extensions>
          <ns3:TrackPointExtension>
            <ns3:hr>137</ns3:hr>
            <ns3:cad>49</ns3:cad>
          </ns3:TrackPointExtension>
        </extensions>
      </trkpt>
      <trkpt lat="45.35660530440509319305419921875" lon="-70.8158713392913341522216796875">
        <ele>627.5999755859375</ele>
        <time>2026-08-21T11:05:34.000Z</time>
        <extensions>
          <ns3:TrackPointExtension>
            <ns3:hr>137</ns3:hr>
            <ns3:cad>49</ns3:cad>
          </ns3:TrackPointExtension>
        </extensions>
      </trkpt>
      <trkpt lat="45.35660262219607830047607421875" lon="-70.8158646337687969207763671875">
        <ele>627.79998779296875</ele>
        <time>2026-08-21T11:05:35.000Z</time>
        <extensions>
          <ns3:TrackPointExtension>
            <ns3:hr>136</ns3:hr>
            <ns3:cad>0</ns3:cad>
          </ns3:TrackPointExtension>
        </extensions>
      </trkpt>
      <trkpt lat="45.35659222863614559173583984375" lon="-70.81584996543824672698974609375">
        <ele>628</ele>
        <time>2026-08-21T11:05:36.000Z</time>
        <extensions>
          <ns3:TrackPointExtension>
            <ns3:hr>136</ns3:hr>
            <ns3:cad>0</ns3:cad>
          </ns3:TrackPointExtension>
        </extensions>
      </trkpt>
      <trkpt lat="45.35657848231494426727294921875" lon="-70.8158446848392486572265625">
        <ele>628.20001220703125</ele>
        <time>2026-08-21T11:05:37.000Z</time>
        <extensions>
          <ns3:TrackPointExtension>
            <ns3:hr>136</ns3:hr>
            <ns3:cad>0</ns3:cad>
          </ns3:TrackPointExtension>
        </extensions>
      </trkpt>
      <trkpt lat="45.3565649874508380889892578125" lon="-70.815839655697345733642578125">
        <ele>628.5999755859375</ele>
        <time>2026-08-21T11:05:38.000Z</time>
        <extensions>
          <ns3:TrackPointExtension>
            <ns3:hr>136</ns3:hr>
            <ns3:cad>0</ns3:cad>
          </ns3:TrackPointExtension>
        </extensions>
      </trkpt>
      <trkpt lat="45.35654897801578044891357421875" lon="-70.8158341236412525177001953125">
        <ele>628.79998779296875</ele>
        <time>2026-08-21T11:05:39.000Z</time>
        <extensions>
          <ns3:TrackPointExtension>
            <ns3:hr>135</ns3:hr>
            <ns3:cad>0</ns3:cad>
          </ns3:TrackPointExtension>
        </extensions>
      </trkpt>
      <trkpt lat="45.356536321341991424560546875" lon="-70.8158307708799839019775390625">
        <ele>629</ele>
        <time>2026-08-21T11:05:40.000Z</time>
        <extensions>
          <ns3:TrackPointExtension>
            <ns3:hr>135</ns3:hr>
            <ns3:cad>45</ns3:cad>
          </ns3:TrackPointExtension>
        </extensions>
      </trkpt>
      <trkpt lat="45.356523580849170684814453125" lon="-70.81582817249000072479248046875">
        <ele>629</ele>
        <time>2026-08-21T11:05:41.000Z</time>
        <extensions>
          <ns3:TrackPointExtension>
            <ns3:hr>135</ns3:hr>
            <ns3:cad>45</ns3:cad>
          </ns3:TrackPointExtension>
        </extensions>
      </trkpt>
      <trkpt lat="45.35651042126119136810302734375" lon="-70.8158240653574466705322265625">
        <ele>629.20001220703125</ele>
        <time>2026-08-21T11:05:42.000Z</time>
        <extensions>
          <ns3:TrackPointExtension>
            <ns3:hr>136</ns3:hr>
            <ns3:cad>49</ns3:cad>
          </ns3:TrackPointExtension>
        </extensions>
      </trkpt>
      <trkpt lat="45.35649986006319522857666015625" lon="-70.81581677310168743133544921875">
        <ele>629.20001220703125</ele>
        <time>2026-08-21T11:05:43.000Z</time>
        <extensions>
          <ns3:TrackPointExtension>
            <ns3:hr>136</ns3:hr>
            <ns3:cad>49</ns3:cad>
          </ns3:TrackPointExtension>
        </extensions>
      </trkpt>
      <trkpt lat="45.35648996941745281219482421875" lon="-70.8158098161220550537109375">
        <ele>629.4000244140625</ele>
        <time>2026-08-21T11:05:44.000Z</time>
        <extensions>
          <ns3:TrackPointExtension>
            <ns3:hr>136</ns3:hr>
            <ns3:cad>50</ns3:cad>
          </ns3:TrackPointExtension>
        </extensions>
      </trkpt>
      <trkpt lat="45.35647270269691944122314453125" lon="-70.8158113248646259307861328125">
        <ele>629.5999755859375</ele>
        <time>2026-08-21T11:05:45.000Z</time>
        <extensions>
          <ns3:TrackPointExtension>
            <ns3:hr>136</ns3:hr>
            <ns3:cad>50</ns3:cad>
          </ns3:TrackPointExtension>
        </extensions>
      </trkpt>
      <trkpt lat="45.356463901698589324951171875" lon="-70.81581450998783111572265625">
        <ele>629.79998779296875</ele>
        <time>2026-08-21T11:05:46.000Z</time>
        <extensions>
          <ns3:TrackPointExtension>
            <ns3:hr>136</ns3:hr>
            <ns3:cad>50</ns3:cad>
          </ns3:TrackPointExtension>
        </extensions>
      </trkpt>
      <trkpt lat="45.35645510070025920867919921875" lon="-70.81582096405327320098876953125">
        <ele>629.79998779296875</ele>
        <time>2026-08-21T11:05:47.000Z</time>
        <extensions>
          <ns3:TrackPointExtension>
            <ns3:hr>135</ns3:hr>
            <ns3:cad>50</ns3:cad>
          </ns3:TrackPointExtension>
        </extensions>
      </trkpt>
      <trkpt lat="45.35643967799842357635498046875" lon="-70.8158230595290660858154296875">
        <ele>630</ele>
        <time>2026-08-21T11:05:48.000Z</time>
        <extensions>
          <ns3:TrackPointExtension>
            <ns3:hr>135</ns3:hr>
            <ns3:cad>50</ns3:cad>
          </ns3:TrackPointExtension>
        </extensions>
      </trkpt>
      <trkpt lat="45.35642593167722225189208984375" lon="-70.81582657992839813232421875">
        <ele>630</ele>
        <time>2026-08-21T11:05:49.000Z</time>
        <extensions>
          <ns3:TrackPointExtension>
            <ns3:hr>135</ns3:hr>
            <ns3:cad>49</ns3:cad>
          </ns3:TrackPointExtension>
        </extensions>
      </trkpt>
      <trkpt lat="45.356412269175052642822265625" lon="-70.8158270828425884246826171875">
        <ele>630</ele>
        <time>2026-08-21T11:05:50.000Z</time>
        <extensions>
          <ns3:TrackPointExtension>
            <ns3:hr>136</ns3:hr>
            <ns3:cad>49</ns3:cad>
          </ns3:TrackPointExtension>
        </extensions>
      </trkpt>
      <trkpt lat="45.35639927722513675689697265625" lon="-70.8158280886709690093994140625">
        <ele>630.20001220703125</ele>
        <time>2026-08-21T11:05:51.000Z</time>
        <extensions>
          <ns3:TrackPointExtension>
            <ns3:hr>136</ns3:hr>
            <ns3:cad>48</ns3:cad>
          </ns3:TrackPointExtension>
        </extensions>
      </trkpt>
      <trkpt lat="45.35638553090393543243408203125" lon="-70.81582599319517612457275390625">
        <ele>630.20001220703125</ele>
        <time>2026-08-21T11:05:52.000Z</time>
        <extensions>
          <ns3:TrackPointExtension>
            <ns3:hr>136</ns3:hr>
            <ns3:cad>50</ns3:cad>
          </ns3:TrackPointExtension>
        </extensions>
      </trkpt>
      <trkpt lat="45.35637564025819301605224609375" lon="-70.81582196988165378570556640625">
        <ele>630.4000244140625</ele>
        <time>2026-08-21T11:05:53.000Z</time>
        <extensions>
          <ns3:TrackPointExtension>
            <ns3:hr>136</ns3:hr>
            <ns3:cad>50</ns3:cad>
          </ns3:TrackPointExtension>
        </extensions>
      </trkpt>
      <trkpt lat="45.3563671745359897613525390625" lon="-70.81581744365394115447998046875">
        <ele>630.5999755859375</ele>
        <time>2026-08-21T11:05:54.000Z</time>
        <extensions>
          <ns3:TrackPointExtension>
            <ns3:hr>136</ns3:hr>
            <ns3:cad>50</ns3:cad>
          </ns3:TrackPointExtension>
        </extensions>
      </trkpt>
      <trkpt lat="45.35635602660477161407470703125" lon="-70.8158176951110363006591796875">
        <ele>630.5999755859375</ele>
        <time>2026-08-21T11:05:55.000Z</time>
        <extensions>
          <ns3:TrackPointExtension>
            <ns3:hr>136</ns3:hr>
            <ns3:cad>50</ns3:cad>
          </ns3:TrackPointExtension>
        </extensions>
      </trkpt>
      <trkpt lat="45.3563430346548557281494140625" lon="-70.81581409089267253875732421875">
        <ele>630.79998779296875</ele>
        <time>2026-08-21T11:05:56.000Z</time>
        <extensions>
          <ns3:TrackPointExtension>
            <ns3:hr>136</ns3:hr>
            <ns3:cad>50</ns3:cad>
          </ns3:TrackPointExtension>
        </extensions>
      </trkpt>
      <trkpt lat="45.3563326410949230194091796875" lon="-70.8158109895884990692138671875">
        <ele>631</ele>
        <time>2026-08-21T11:05:57.000Z</time>
        <extensions>
          <ns3:TrackPointExtension>
            <ns3:hr>136</ns3:hr>
            <ns3:cad>50</ns3:cad>
          </ns3:TrackPointExtension>
        </extensions>
      </trkpt>
      <trkpt lat="45.35632434301078319549560546875" lon="-70.8158052898943424224853515625">
        <ele>631.20001220703125</ele>
        <time>2026-08-21T11:05:58.000Z</time>
        <extensions>
          <ns3:TrackPointExtension>
            <ns3:hr>136</ns3:hr>
            <ns3:cad>50</ns3:cad>
          </ns3:TrackPointExtension>
        </extensions>
      </trkpt>
      <trkpt lat="45.35631177015602588653564453125" lon="-70.81579715944826602935791015625">
        <ele>631.4000244140625</ele>
        <time>2026-08-21T11:05:59.000Z</time>
        <extensions>
          <ns3:TrackPointExtension>
            <ns3:hr>136</ns3:hr>
            <ns3:cad>50</ns3:cad>
          </ns3:TrackPointExtension>
        </extensions>
      </trkpt>
      <trkpt lat="45.356296263635158538818359375" lon="-70.81579145975410938262939453125">
        <ele>631.5999755859375</ele>
        <time>2026-08-21T11:06:00.000Z</time>
        <extensions>
          <ns3:TrackPointExtension>
            <ns3:hr>136</ns3:hr>
            <ns3:cad>50</ns3:cad>
          </ns3:TrackPointExtension>
        </extensions>
      </trkpt>
      <trkpt lat="45.3562833555042743682861328125" lon="-70.8157868497073650360107421875">
        <ele>631.79998779296875</ele>
        <time>2026-08-21T11:06:01.000Z</time>
        <extensions>
          <ns3:TrackPointExtension>
            <ns3:hr>136</ns3:hr>
            <ns3:cad>50</ns3:cad>
          </ns3:TrackPointExtension>
        </extensions>
      </trkpt>
      <trkpt lat="45.3562692739069461822509765625" lon="-70.81578274257481098175048828125">
        <ele>632</ele>
        <time>2026-08-21T11:06:02.000Z</time>
        <extensions>
          <ns3:TrackPointExtension>
            <ns3:hr>136</ns3:hr>
            <ns3:cad>50</ns3:cad>
          </ns3:TrackPointExtension>
        </extensions>
      </trkpt>
      <trkpt lat="45.35625762306153774261474609375" lon="-70.81577964127063751220703125">
        <ele>632.20001220703125</ele>
        <time>2026-08-21T11:06:03.000Z</time>
        <extensions>
          <ns3:TrackPointExtension>
            <ns3:hr>136</ns3:hr>
            <ns3:cad>50</ns3:cad>
          </ns3:TrackPointExtension>
        </extensions>
      </trkpt>
      <trkpt lat="45.35624521784484386444091796875" lon="-70.81577452830970287322998046875">
        <ele>632.4000244140625</ele>
        <time>2026-08-21T11:06:04.000Z</time>
        <extensions>
          <ns3:TrackPointExtension>
            <ns3:hr>137</ns3:hr>
            <ns3:cad>50</ns3:cad>
          </ns3:TrackPointExtension>
        </extensions>
      </trkpt>
      <trkpt lat="45.35623817704617977142333984375" lon="-70.81576824188232421875">
        <ele>632.4000244140625</ele>
        <time>2026-08-21T11:06:05.000Z</time>
        <extensions>
          <ns3:TrackPointExtension>
            <ns3:hr>136</ns3:hr>
            <ns3:cad>52</ns3:cad>
          </ns3:TrackPointExtension>
        </extensions>
      </trkpt>
      <trkpt lat="45.35622661001980304718017578125" lon="-70.8157627098262310028076171875">
        <ele>632.5999755859375</ele>
        <time>2026-08-21T11:06:06.000Z</time>
        <extensions>
          <ns3:TrackPointExtension>
            <ns3:hr>136</ns3:hr>
            <ns3:cad>52</ns3:cad>
          </ns3:TrackPointExtension>
        </extensions>
      </trkpt>
      <trkpt lat="45.35621403716504573822021484375" lon="-70.8157516457140445709228515625">
        <ele>632.79998779296875</ele>
        <time>2026-08-21T11:06:07.000Z</time>
        <extensions>
          <ns3:TrackPointExtension>
            <ns3:hr>136</ns3:hr>
            <ns3:cad>52</ns3:cad>
          </ns3:TrackPointExtension>
        </extensions>
      </trkpt>
      <trkpt lat="45.35620816983282566070556640625" lon="-70.8157402463257312774658203125">
        <ele>632.79998779296875</ele>
        <time>2026-08-21T11:06:08.000Z</time>
        <extensions>
          <ns3:TrackPointExtension>
            <ns3:hr>136</ns3:hr>
            <ns3:cad>52</ns3:cad>
          </ns3:TrackPointExtension>
        </extensions>
      </trkpt>
      <trkpt lat="45.3562018834054470062255859375" lon="-70.8157298527657985687255859375">
        <ele>632.79998779296875</ele>
        <time>2026-08-21T11:06:09.000Z</time>
        <extensions>
          <ns3:TrackPointExtension>
            <ns3:hr>137</ns3:hr>
            <ns3:cad>52</ns3:cad>
          </ns3:TrackPointExtension>
        </extensions>
      </trkpt>
      <trkpt lat="45.356194339692592620849609375" lon="-70.81572725437581539154052734375">
        <ele>632.79998779296875</ele>
        <time>2026-08-21T11:06:10.000Z</time>
        <extensions>
          <ns3:TrackPointExtension>
            <ns3:hr>136</ns3:hr>
            <ns3:cad>50</ns3:cad>
          </ns3:TrackPointExtension>
        </extensions>
      </trkpt>
      <trkpt lat="45.3561810962855815887451171875" lon="-70.815719626843929290771484375">
        <ele>632.79998779296875</ele>
        <time>2026-08-21T11:06:11.000Z</time>
        <extensions>
          <ns3:TrackPointExtension>
            <ns3:hr>136</ns3:hr>
            <ns3:cad>50</ns3:cad>
          </ns3:TrackPointExtension>
        </extensions>
      </trkpt>
      <trkpt lat="45.356169529259204864501953125" lon="-70.8157090656459331512451171875">
        <ele>632.79998779296875</ele>
        <time>2026-08-21T11:06:12.000Z</time>
        <extensions>
          <ns3:TrackPointExtension>
            <ns3:hr>136</ns3:hr>
            <ns3:cad>50</ns3:cad>
          </ns3:TrackPointExtension>
        </extensions>
      </trkpt>
      <trkpt lat="45.35615779459476470947265625" lon="-70.815695486962795257568359375">
        <ele>632.79998779296875</ele>
        <time>2026-08-21T11:06:13.000Z</time>
        <extensions>
          <ns3:TrackPointExtension>
            <ns3:hr>137</ns3:hr>
            <ns3:cad>50</ns3:cad>
          </ns3:TrackPointExtension>
        </extensions>
      </trkpt>
      <trkpt lat="45.3561479039490222930908203125" lon="-70.8156835846602916717529296875">
        <ele>632.79998779296875</ele>
        <time>2026-08-21T11:06:14.000Z</time>
        <extensions>
          <ns3:TrackPointExtension>
            <ns3:hr>137</ns3:hr>
            <ns3:cad>50</ns3:cad>
          </ns3:TrackPointExtension>
        </extensions>
      </trkpt>
      <trkpt lat="45.35613834857940673828125" lon="-70.8156738616526126861572265625">
        <ele>632.79998779296875</ele>
        <time>2026-08-21T11:06:15.000Z</time>
        <extensions>
          <ns3:TrackPointExtension>
            <ns3:hr>137</ns3:hr>
            <ns3:cad>50</ns3:cad>
          </ns3:TrackPointExtension>
        </extensions>
      </trkpt>
      <trkpt lat="45.356122590601444244384765625" lon="-70.81566204316914081573486328125">
        <ele>632.5999755859375</ele>
        <time>2026-08-21T11:06:16.000Z</time>
        <extensions>
          <ns3:TrackPointExtension>
            <ns3:hr>137</ns3:hr>
            <ns3:cad>55</ns3:cad>
          </ns3:TrackPointExtension>
        </extensions>
      </trkpt>
      <trkpt lat="45.3561147116124629974365234375" lon="-70.815649218857288360595703125">
        <ele>632.5999755859375</ele>
        <time>2026-08-21T11:06:17.000Z</time>
        <extensions>
          <ns3:TrackPointExtension>
            <ns3:hr>138</ns3:hr>
            <ns3:cad>55</ns3:cad>
          </ns3:TrackPointExtension>
        </extensions>
      </trkpt>
      <trkpt lat="45.3561049886047840118408203125" lon="-70.81563538871705532073974609375">
        <ele>632.4000244140625</ele>
        <time>2026-08-21T11:06:18.000Z</time>
        <extensions>
          <ns3:TrackPointExtension>
            <ns3:hr>137</ns3:hr>
            <ns3:cad>55</ns3:cad>
          </ns3:TrackPointExtension>
        </extensions>
      </trkpt>
      <trkpt lat="45.35609652288258075714111328125" lon="-70.8156220614910125732421875">
        <ele>632.20001220703125</ele>
        <time>2026-08-21T11:06:19.000Z</time>
        <extensions>
          <ns3:TrackPointExtension>
            <ns3:hr>137</ns3:hr>
            <ns3:cad>55</ns3:cad>
          </ns3:TrackPointExtension>
        </extensions>
      </trkpt>
      <trkpt lat="45.35608747042715549468994140625" lon="-70.81560789607465267181396484375">
        <ele>632</ele>
        <time>2026-08-21T11:06:20.000Z</time>
        <extensions>
          <ns3:TrackPointExtension>
            <ns3:hr>138</ns3:hr>
            <ns3:cad>54</ns3:cad>
          </ns3:TrackPointExtension>
        </extensions>
      </trkpt>
      <trkpt lat="45.35607623867690563201904296875" lon="-70.815592892467975616455078125">
        <ele>631.79998779296875</ele>
        <time>2026-08-21T11:06:21.000Z</time>
        <extensions>
          <ns3:TrackPointExtension>
            <ns3:hr>138</ns3:hr>
            <ns3:cad>54</ns3:cad>
          </ns3:TrackPointExtension>
        </extensions>
      </trkpt>
      <trkpt lat="45.35607188008725643157958984375" lon="-70.81558057107031345367431640625">
        <ele>631.5999755859375</ele>
        <time>2026-08-21T11:06:22.000Z</time>
        <extensions>
          <ns3:TrackPointExtension>
            <ns3:hr>138</ns3:hr>
            <ns3:cad>0</ns3:cad>
          </ns3:TrackPointExtension>
        </extensions>
      </trkpt>
      <trkpt lat="45.3560667671263217926025390625" lon="-70.81556414254009723663330078125">
        <ele>631.5999755859375</ele>
        <time>2026-08-21T11:06:23.000Z</time>
        <extensions>
          <ns3:TrackPointExtension>
            <ns3:hr>138</ns3:hr>
            <ns3:cad>0</ns3:cad>
          </ns3:TrackPointExtension>
        </extensions>
      </trkpt>
      <trkpt lat="45.3560610674321651458740234375" lon="-70.815547965466976165771484375">
        <ele>631.5999755859375</ele>
        <time>2026-08-21T11:06:24.000Z</time>
        <extensions>
          <ns3:TrackPointExtension>
            <ns3:hr>138</ns3:hr>
            <ns3:cad>0</ns3:cad>
          </ns3:TrackPointExtension>
        </extensions>
      </trkpt>
      <trkpt lat="45.35605478100478649139404296875" lon="-70.81552625633776187896728515625">
        <ele>631.5999755859375</ele>
        <time>2026-08-21T11:06:25.000Z</time>
        <extensions>
          <ns3:TrackPointExtension>
            <ns3:hr>138</ns3:hr>
            <ns3:cad>0</ns3:cad>
          </ns3:TrackPointExtension>
        </extensions>
      </trkpt>
      <trkpt lat="45.3560506738722324371337890625" lon="-70.8155092410743236541748046875">
        <ele>631.5999755859375</ele>
        <time>2026-08-21T11:06:26.000Z</time>
        <extensions>
          <ns3:TrackPointExtension>
            <ns3:hr>137</ns3:hr>
            <ns3:cad>0</ns3:cad>
          </ns3:TrackPointExtension>
        </extensions>
      </trkpt>
      <trkpt lat="45.35604421980679035186767578125" lon="-70.81549826078116893768310546875">
        <ele>631.5999755859375</ele>
        <time>2026-08-21T11:06:27.000Z</time>
        <extensions>
          <ns3:TrackPointExtension>
            <ns3:hr>138</ns3:hr>
            <ns3:cad>0</ns3:cad>
          </ns3:TrackPointExtension>
        </extensions>
      </trkpt>
      <trkpt lat="45.35603852011263370513916015625" lon="-70.81548032350838184356689453125">
        <ele>631.5999755859375</ele>
        <time>2026-08-21T11:06:28.000Z</time>
        <extensions>
          <ns3:TrackPointExtension>
            <ns3:hr>137</ns3:hr>
            <ns3:cad>0</ns3:cad>
          </ns3:TrackPointExtension>
        </extensions>
      </trkpt>
      <trkpt lat="45.3560325689613819122314453125" lon="-70.81547127105295658111572265625">
        <ele>631.79998779296875</ele>
        <time>2026-08-21T11:06:29.000Z</time>
        <extensions>
          <ns3:TrackPointExtension>
            <ns3:hr>137</ns3:hr>
            <ns3:cad>0</ns3:cad>
          </ns3:TrackPointExtension>
        </extensions>
      </trkpt>
      <trkpt lat="45.35602410323917865753173828125" lon="-70.81545115448534488677978515625">
        <ele>631.79998779296875</ele>
        <time>2026-08-21T11:06:30.000Z</time>
        <extensions>
          <ns3:TrackPointExtension>
            <ns3:hr>137</ns3:hr>
            <ns3:cad>0</ns3:cad>
          </ns3:TrackPointExtension>
        </extensions>
      </trkpt>
      <trkpt lat="45.3560134582221508026123046875" lon="-70.81543740816414356231689453125">
        <ele>632</ele>
        <time>2026-08-21T11:06:31.000Z</time>
        <extensions>
          <ns3:TrackPointExtension>
            <ns3:hr>136</ns3:hr>
            <ns3:cad>0</ns3:cad>
          </ns3:TrackPointExtension>
        </extensions>
      </trkpt>
      <trkpt lat="45.35600901581346988677978515625" lon="-70.81542290747165679931640625">
        <ele>632.20001220703125</ele>
        <time>2026-08-21T11:06:32.000Z</time>
        <extensions>
          <ns3:TrackPointExtension>
            <ns3:hr>135</ns3:hr>
            <ns3:cad>0</ns3:cad>
          </ns3:TrackPointExtension>
        </extensions>
      </trkpt>
      <trkpt lat="45.35600599832832813262939453125" lon="-70.81541075371205806732177734375">
        <ele>632.4000244140625</ele>
        <time>2026-08-21T11:06:33.000Z</time>
        <extensions>
          <ns3:TrackPointExtension>
            <ns3:hr>134</ns3:hr>
            <ns3:cad>0</ns3:cad>
          </ns3:TrackPointExtension>
        </extensions>
      </trkpt>
      <trkpt lat="45.3560020588338375091552734375" lon="-70.8153967559337615966796875">
        <ele>632.5999755859375</ele>
        <time>2026-08-21T11:06:34.000Z</time>
        <extensions>
          <ns3:TrackPointExtension>
            <ns3:hr>133</ns3:hr>
            <ns3:cad>47</ns3:cad>
          </ns3:TrackPointExtension>
        </extensions>
      </trkpt>
      <trkpt lat="45.3559977002441883087158203125" lon="-70.8153820037841796875">
        <ele>632.79998779296875</ele>
        <time>2026-08-21T11:06:35.000Z</time>
        <extensions>
          <ns3:TrackPointExtension>
            <ns3:hr>132</ns3:hr>
            <ns3:cad>0</ns3:cad>
          </ns3:TrackPointExtension>
        </extensions>
      </trkpt>
      <trkpt lat="45.35599258728325366973876953125" lon="-70.815370939671993255615234375">
        <ele>632.79998779296875</ele>
        <time>2026-08-21T11:06:36.000Z</time>
        <extensions>
          <ns3:TrackPointExtension>
            <ns3:hr>132</ns3:hr>
            <ns3:cad>0</ns3:cad>
          </ns3:TrackPointExtension>
        </extensions>
      </trkpt>
      <trkpt lat="45.35598252899944782257080078125" lon="-70.81535962410271167755126953125">
        <ele>633</ele>
        <time>2026-08-21T11:06:37.000Z</time>
        <extensions>
          <ns3:TrackPointExtension>
            <ns3:hr>132</ns3:hr>
            <ns3:cad>0</ns3:cad>
          </ns3:TrackPointExtension>
        </extensions>
      </trkpt>
      <trkpt lat="45.35597414709627628326416015625" lon="-70.81535073928534984588623046875">
        <ele>633.20001220703125</ele>
        <time>2026-08-21T11:06:38.000Z</time>
        <extensions>
          <ns3:TrackPointExtension>
            <ns3:hr>132</ns3:hr>
            <ns3:cad>0</ns3:cad>
          </ns3:TrackPointExtension>
        </extensions>
      </trkpt>
      <trkpt lat="45.3559665195643901824951171875" lon="-70.8153431117534637451171875">
        <ele>633.4000244140625</ele>
        <time>2026-08-21T11:06:39.000Z</time>
        <extensions>
          <ns3:TrackPointExtension>
            <ns3:hr>133</ns3:hr>
            <ns3:cad>0</ns3:cad>
          </ns3:TrackPointExtension>
        </extensions>
      </trkpt>
      <trkpt lat="45.3559591434895992279052734375" lon="-70.81533146090805530548095703125">
        <ele>633.5999755859375</ele>
        <time>2026-08-21T11:06:40.000Z</time>
        <extensions>
          <ns3:TrackPointExtension>
            <ns3:hr>132</ns3:hr>
            <ns3:cad>0</ns3:cad>
          </ns3:TrackPointExtension>
        </extensions>
      </trkpt>
      <trkpt lat="45.3559561260044574737548828125" lon="-70.81532391719520092010498046875">
        <ele>633.5999755859375</ele>
        <time>2026-08-21T11:06:41.000Z</time>
        <extensions>
          <ns3:TrackPointExtension>
            <ns3:hr>132</ns3:hr>
            <ns3:cad>55</ns3:cad>
          </ns3:TrackPointExtension>
        </extensions>
      </trkpt>
      <trkpt lat="45.35594782792031764984130859375" lon="-70.8153162896633148193359375">
        <ele>634</ele>
        <time>2026-08-21T11:06:42.000Z</time>
        <extensions>
          <ns3:TrackPointExtension>
            <ns3:hr>132</ns3:hr>
            <ns3:cad>55</ns3:cad>
          </ns3:TrackPointExtension>
        </extensions>
      </trkpt>
      <trkpt lat="45.355939529836177825927734375" lon="-70.81530564464628696441650390625">
        <ele>634.20001220703125</ele>
        <time>2026-08-21T11:06:43.000Z</time>
        <extensions>
          <ns3:TrackPointExtension>
            <ns3:hr>132</ns3:hr>
            <ns3:cad>55</ns3:cad>
          </ns3:TrackPointExtension>
        </extensions>
      </trkpt>
      <trkpt lat="45.3559299744665622711181640625" lon="-70.81528988666832447052001953125">
        <ele>634.4000244140625</ele>
        <time>2026-08-21T11:06:44.000Z</time>
        <extensions>
          <ns3:TrackPointExtension>
            <ns3:hr>132</ns3:hr>
            <ns3:cad>51</ns3:cad>
          </ns3:TrackPointExtension>
        </extensions>
      </trkpt>
      <trkpt lat="45.3559172339737415313720703125" lon="-70.8152718655765056610107421875">
        <ele>634.79998779296875</ele>
        <time>2026-08-21T11:06:45.000Z</time>
        <extensions>
          <ns3:TrackPointExtension>
            <ns3:hr>132</ns3:hr>
            <ns3:cad>51</ns3:cad>
          </ns3:TrackPointExtension>
        </extensions>
      </trkpt>
      <trkpt lat="45.3559036552906036376953125" lon="-70.81526021473109722137451171875">
        <ele>635</ele>
        <time>2026-08-21T11:06:46.000Z</time>
        <extensions>
          <ns3:TrackPointExtension>
            <ns3:hr>132</ns3:hr>
            <ns3:cad>51</ns3:cad>
          </ns3:TrackPointExtension>
        </extensions>
      </trkpt>
      <trkpt lat="45.35589166916906833648681640625" lon="-70.8152551017701625823974609375">
        <ele>635.20001220703125</ele>
        <time>2026-08-21T11:06:47.000Z</time>
        <extensions>
          <ns3:TrackPointExtension>
            <ns3:hr>133</ns3:hr>
            <ns3:cad>51</ns3:cad>
          </ns3:TrackPointExtension>
        </extensions>
      </trkpt>
      <trkpt lat="45.3558806888759136199951171875" lon="-70.81524898298084735870361328125">
        <ele>635.4000244140625</ele>
        <time>2026-08-21T11:06:48.000Z</time>
        <extensions>
          <ns3:TrackPointExtension>
            <ns3:hr>133</ns3:hr>
            <ns3:cad>51</ns3:cad>
          </ns3:TrackPointExtension>
        </extensions>
      </trkpt>
      <trkpt lat="45.35586534999310970306396484375" lon="-70.815242193639278411865234375">
        <ele>635.5999755859375</ele>
        <time>2026-08-21T11:06:49.000Z</time>
        <extensions>
          <ns3:TrackPointExtension>
            <ns3:hr>134</ns3:hr>
            <ns3:cad>51</ns3:cad>
          </ns3:TrackPointExtension>
        </extensions>
      </trkpt>
      <trkpt lat="45.35585981793701648712158203125" lon="-70.8152316324412822723388671875">
        <ele>635.79998779296875</ele>
        <time>2026-08-21T11:06:50.000Z</time>
        <extensions>
          <ns3:TrackPointExtension>
            <ns3:hr>134</ns3:hr>
            <ns3:cad>51</ns3:cad>
          </ns3:TrackPointExtension>
        </extensions>
      </trkpt>
      <trkpt lat="45.35585093311965465545654296875" lon="-70.8152205683290958404541015625">
        <ele>636</ele>
        <time>2026-08-21T11:06:51.000Z</time>
        <extensions>
          <ns3:TrackPointExtension>
            <ns3:hr>134</ns3:hr>
            <ns3:cad>49</ns3:cad>
          </ns3:TrackPointExtension>
        </extensions>
      </trkpt>
      <trkpt lat="45.3558464907109737396240234375" lon="-70.81520841456949710845947265625">
        <ele>636</ele>
        <time>2026-08-21T11:06:52.000Z</time>
        <extensions>
          <ns3:TrackPointExtension>
            <ns3:hr>134</ns3:hr>
            <ns3:cad>48</ns3:cad>
          </ns3:TrackPointExtension>
        </extensions>
      </trkpt>
      <trkpt lat="45.3558401204645633697509765625" lon="-70.8151974342763423919677734375">
        <ele>636.20001220703125</ele>
        <time>2026-08-21T11:06:53.000Z</time>
        <extensions>
          <ns3:TrackPointExtension>
            <ns3:hr>134</ns3:hr>
            <ns3:cad>48</ns3:cad>
          </ns3:TrackPointExtension>
        </extensions>
      </trkpt>
      <trkpt lat="45.35583064891397953033447265625" lon="-70.81518494524061679840087890625">
        <ele>636.4000244140625</ele>
        <time>2026-08-21T11:06:54.000Z</time>
        <extensions>
          <ns3:TrackPointExtension>
            <ns3:hr>134</ns3:hr>
            <ns3:cad>48</ns3:cad>
          </ns3:TrackPointExtension>
        </extensions>
      </trkpt>
      <trkpt lat="45.35581992007791996002197265625" lon="-70.81517304293811321258544921875">
        <ele>636.5999755859375</ele>
        <time>2026-08-21T11:06:55.000Z</time>
        <extensions>
          <ns3:TrackPointExtension>
            <ns3:hr>134</ns3:hr>
            <ns3:cad>48</ns3:cad>
          </ns3:TrackPointExtension>
        </extensions>
      </trkpt>
      <trkpt lat="45.3558039106428623199462890625" lon="-70.8151672594249248504638671875">
        <ele>636.79998779296875</ele>
        <time>2026-08-21T11:06:56.000Z</time>
        <extensions>
          <ns3:TrackPointExtension>
            <ns3:hr>134</ns3:hr>
            <ns3:cad>47</ns3:cad>
          </ns3:TrackPointExtension>
        </extensions>
      </trkpt>
      <trkpt lat="45.3557961992919445037841796875" lon="-70.81516047008335590362548828125">
        <ele>637</ele>
        <time>2026-08-21T11:06:57.000Z</time>
        <extensions>
          <ns3:TrackPointExtension>
            <ns3:hr>134</ns3:hr>
            <ns3:cad>47</ns3:cad>
          </ns3:TrackPointExtension>
        </extensions>
      </trkpt>
      <trkpt lat="45.35578857176005840301513671875" lon="-70.81515879370272159576416015625">
        <ele>637.20001220703125</ele>
        <time>2026-08-21T11:06:58.000Z</time>
        <extensions>
          <ns3:TrackPointExtension>
            <ns3:hr>133</ns3:hr>
            <ns3:cad>49</ns3:cad>
          </ns3:TrackPointExtension>
        </extensions>
      </trkpt>
      <trkpt lat="45.3557749092578887939453125" lon="-70.81515292637050151824951171875">
        <ele>637.4000244140625</ele>
        <time>2026-08-21T11:06:59.000Z</time>
        <extensions>
          <ns3:TrackPointExtension>
            <ns3:hr>132</ns3:hr>
            <ns3:cad>49</ns3:cad>
          </ns3:TrackPointExtension>
        </extensions>
      </trkpt>
      <trkpt lat="45.3557623364031314849853515625" lon="-70.81514370627701282501220703125">
        <ele>637.5999755859375</ele>
        <time>2026-08-21T11:07:00.000Z</time>
        <extensions>
          <ns3:TrackPointExtension>
            <ns3:hr>132</ns3:hr>
            <ns3:cad>49</ns3:cad>
          </ns3:TrackPointExtension>
        </extensions>
      </trkpt>
      <trkpt lat="45.3557507693767547607421875" lon="-70.81513633020222187042236328125">
        <ele>637.79998779296875</ele>
        <time>2026-08-21T11:07:01.000Z</time>
        <extensions>
          <ns3:TrackPointExtension>
            <ns3:hr>132</ns3:hr>
            <ns3:cad>49</ns3:cad>
          </ns3:TrackPointExtension>
        </extensions>
      </trkpt>
      <trkpt lat="45.3557400405406951904296875" lon="-70.815127193927764892578125">
        <ele>638</ele>
        <time>2026-08-21T11:07:02.000Z</time>
        <extensions>
          <ns3:TrackPointExtension>
            <ns3:hr>131</ns3:hr>
            <ns3:cad>49</ns3:cad>
          </ns3:TrackPointExtension>
        </extensions>
      </trkpt>
      <trkpt lat="45.355725623667240142822265625" lon="-70.81511587835848331451416015625">
        <ele>638.20001220703125</ele>
        <time>2026-08-21T11:07:03.000Z</time>
        <extensions>
          <ns3:TrackPointExtension>
            <ns3:hr>131</ns3:hr>
            <ns3:cad>49</ns3:cad>
          </ns3:TrackPointExtension>
        </extensions>
      </trkpt>
      <trkpt lat="45.35571229644119739532470703125" lon="-70.8151072449982166290283203125">
        <ele>638.4000244140625</ele>
        <time>2026-08-21T11:07:04.000Z</time>
        <extensions>
          <ns3:TrackPointExtension>
            <ns3:hr>131</ns3:hr>
            <ns3:cad>48</ns3:cad>
          </ns3:TrackPointExtension>
        </extensions>
      </trkpt>
      <trkpt lat="45.355698131024837493896484375" lon="-70.815100707113742828369140625">
        <ele>638.5999755859375</ele>
        <time>2026-08-21T11:07:05.000Z</time>
        <extensions>
          <ns3:TrackPointExtension>
            <ns3:hr>132</ns3:hr>
            <ns3:cad>48</ns3:cad>
          </ns3:TrackPointExtension>
        </extensions>
      </trkpt>
      <trkpt lat="45.355688743293285369873046875" lon="-70.815094001591205596923828125">
        <ele>638.79998779296875</ele>
        <time>2026-08-21T11:07:06.000Z</time>
        <extensions>
          <ns3:TrackPointExtension>
            <ns3:hr>131</ns3:hr>
            <ns3:cad>46</ns3:cad>
          </ns3:TrackPointExtension>
        </extensions>
      </trkpt>
      <trkpt lat="45.35567977465689182281494140625" lon="-70.81508654169738292694091796875">
        <ele>638.79998779296875</ele>
        <time>2026-08-21T11:07:07.000Z</time>
        <extensions>
          <ns3:TrackPointExtension>
            <ns3:hr>132</ns3:hr>
            <ns3:cad>46</ns3:cad>
          </ns3:TrackPointExtension>
        </extensions>
      </trkpt>
      <trkpt lat="45.355672650039196014404296875" lon="-70.81508159637451171875">
        <ele>639</ele>
        <time>2026-08-21T11:07:08.000Z</time>
        <extensions>
          <ns3:TrackPointExtension>
            <ns3:hr>132</ns3:hr>
            <ns3:cad>46</ns3:cad>
          </ns3:TrackPointExtension>
        </extensions>
      </trkpt>
      <trkpt lat="45.35566166974604129791259765625" lon="-70.815071873366832733154296875">
        <ele>639</ele>
        <time>2026-08-21T11:07:09.000Z</time>
        <extensions>
          <ns3:TrackPointExtension>
            <ns3:hr>132</ns3:hr>
            <ns3:cad>46</ns3:cad>
          </ns3:TrackPointExtension>
        </extensions>
      </trkpt>
      <trkpt lat="45.35564683377742767333984375" lon="-70.81506080925464630126953125">
        <ele>639.20001220703125</ele>
        <time>2026-08-21T11:07:10.000Z</time>
        <extensions>
          <ns3:TrackPointExtension>
            <ns3:hr>132</ns3:hr>
            <ns3:cad>46</ns3:cad>
          </ns3:TrackPointExtension>
        </extensions>
      </trkpt>
      <trkpt lat="45.355633087456226348876953125" lon="-70.81504999659955501556396484375">
        <ele>639.4000244140625</ele>
        <time>2026-08-21T11:07:11.000Z</time>
        <extensions>
          <ns3:TrackPointExtension>
            <ns3:hr>132</ns3:hr>
            <ns3:cad>46</ns3:cad>
          </ns3:TrackPointExtension>
        </extensions>
      </trkpt>
      <trkpt lat="45.355623699724674224853515625" lon="-70.81503943540155887603759765625">
        <ele>639.5999755859375</ele>
        <time>2026-08-21T11:07:12.000Z</time>
        <extensions>
          <ns3:TrackPointExtension>
            <ns3:hr>133</ns3:hr>
            <ns3:cad>46</ns3:cad>
          </ns3:TrackPointExtension>
        </extensions>
      </trkpt>
      <trkpt lat="45.35561338998377323150634765625" lon="-70.81502870656549930572509765625">
        <ele>639.79998779296875</ele>
        <time>2026-08-21T11:07:13.000Z</time>
        <extensions>
          <ns3:TrackPointExtension>
            <ns3:hr>132</ns3:hr>
            <ns3:cad>50</ns3:cad>
          </ns3:TrackPointExtension>
        </extensions>
      </trkpt>
      <trkpt lat="45.35560232587158679962158203125" lon="-70.8150254376232624053955078125">
        <ele>639.79998779296875</ele>
        <time>2026-08-21T11:07:14.000Z</time>
        <extensions>
          <ns3:TrackPointExtension>
            <ns3:hr>133</ns3:hr>
            <ns3:cad>50</ns3:cad>
          </ns3:TrackPointExtension>
        </extensions>
      </trkpt>
      <trkpt lat="45.35558304749429225921630859375" lon="-70.81501923501491546630859375">
        <ele>640</ele>
        <time>2026-08-21T11:07:15.000Z</time>
        <extensions>
          <ns3:TrackPointExtension>
            <ns3:hr>133</ns3:hr>
            <ns3:cad>0</ns3:cad>
          </ns3:TrackPointExtension>
        </extensions>
      </trkpt>
      <trkpt lat="45.35556100308895111083984375" lon="-70.815014876425266265869140625">
        <ele>640</ele>
        <time>2026-08-21T11:07:16.000Z</time>
        <extensions>
          <ns3:TrackPointExtension>
            <ns3:hr>133</ns3:hr>
            <ns3:cad>0</ns3:cad>
          </ns3:TrackPointExtension>
        </extensions>
      </trkpt>
      <trkpt lat="45.3555460833013057708740234375" lon="-70.8150158822536468505859375">
        <ele>640.20001220703125</ele>
        <time>2026-08-21T11:07:17.000Z</time>
        <extensions>
          <ns3:TrackPointExtension>
            <ns3:hr>133</ns3:hr>
            <ns3:cad>50</ns3:cad>
          </ns3:TrackPointExtension>
        </extensions>
      </trkpt>
      <trkpt lat="45.35553283989429473876953125" lon="-70.8150130324065685272216796875">
        <ele>640.4000244140625</ele>
        <time>2026-08-21T11:07:18.000Z</time>
        <extensions>
          <ns3:TrackPointExtension>
            <ns3:hr>134</ns3:hr>
            <ns3:cad>50</ns3:cad>
          </ns3:TrackPointExtension>
        </extensions>
      </trkpt>
      <trkpt lat="45.35551942884922027587890625" lon="-70.8150133676826953887939453125">
        <ele>640.5999755859375</ele>
        <time>2026-08-21T11:07:19.000Z</time>
        <extensions>
          <ns3:TrackPointExtension>
            <ns3:hr>134</ns3:hr>
            <ns3:cad>50</ns3:cad>
          </ns3:TrackPointExtension>
        </extensions>
      </trkpt>
      <trkpt lat="45.355509705841541290283203125" lon="-70.8150147087872028350830078125">
        <ele>640.79998779296875</ele>
        <time>2026-08-21T11:07:20.000Z</time>
        <extensions>
          <ns3:TrackPointExtension>
            <ns3:hr>134</ns3:hr>
            <ns3:cad>47</ns3:cad>
          </ns3:TrackPointExtension>
        </extensions>
      </trkpt>
      <trkpt lat="45.35549604333937168121337890625" lon="-70.81501789391040802001953125">
        <ele>641</ele>
        <time>2026-08-21T11:07:21.000Z</time>
        <extensions>
          <ns3:TrackPointExtension>
            <ns3:hr>134</ns3:hr>
            <ns3:cad>47</ns3:cad>
          </ns3:TrackPointExtension>
        </extensions>
      </trkpt>
      <trkpt lat="45.3554793633520603179931640625" lon="-70.8150143735110759735107421875">
        <ele>641.20001220703125</ele>
        <time>2026-08-21T11:07:22.000Z</time>
        <extensions>
          <ns3:TrackPointExtension>
            <ns3:hr>135</ns3:hr>
            <ns3:cad>47</ns3:cad>
          </ns3:TrackPointExtension>
        </extensions>
      </trkpt>
      <trkpt lat="45.3554666228592395782470703125" lon="-70.81501361913979053497314453125">
        <ele>641.4000244140625</ele>
        <time>2026-08-21T11:07:23.000Z</time>
        <extensions>
          <ns3:TrackPointExtension>
            <ns3:hr>135</ns3:hr>
            <ns3:cad>47</ns3:cad>
          </ns3:TrackPointExtension>
        </extensions>
      </trkpt>
      <trkpt lat="45.35545346327126026153564453125" lon="-70.81501328386366367340087890625">
        <ele>641.79998779296875</ele>
        <time>2026-08-21T11:07:24.000Z</time>
        <extensions>
          <ns3:TrackPointExtension>
            <ns3:hr>135</ns3:hr>
            <ns3:cad>47</ns3:cad>
          </ns3:TrackPointExtension>
        </extensions>
      </trkpt>
      <trkpt lat="45.3554391302168369293212890625" lon="-70.81501697190105915069580078125">
        <ele>642</ele>
        <time>2026-08-21T11:07:25.000Z</time>
        <extensions>
          <ns3:TrackPointExtension>
            <ns3:hr>134</ns3:hr>
            <ns3:cad>47</ns3:cad>
          </ns3:TrackPointExtension>
        </extensions>
      </trkpt>
      <trkpt lat="45.35542823374271392822265625" lon="-70.815020240843296051025390625">
        <ele>642.20001220703125</ele>
        <time>2026-08-21T11:07:26.000Z</time>
        <extensions>
          <ns3:TrackPointExtension>
            <ns3:hr>134</ns3:hr>
            <ns3:cad>47</ns3:cad>
          </ns3:TrackPointExtension>
        </extensions>
      </trkpt>
      <trkpt lat="45.35540811717510223388671875" lon="-70.81501931883394718170166015625">
        <ele>642.4000244140625</ele>
        <time>2026-08-21T11:07:27.000Z</time>
        <extensions>
          <ns3:TrackPointExtension>
            <ns3:hr>134</ns3:hr>
            <ns3:cad>48</ns3:cad>
          </ns3:TrackPointExtension>
        </extensions>
      </trkpt>
      <trkpt lat="45.35539965145289897918701171875" lon="-70.81503004767000675201416015625">
        <ele>642.5999755859375</ele>
        <time>2026-08-21T11:07:28.000Z</time>
        <extensions>
          <ns3:TrackPointExtension>
            <ns3:hr>134</ns3:hr>
            <ns3:cad>48</ns3:cad>
          </ns3:TrackPointExtension>
        </extensions>
      </trkpt>
      <trkpt lat="45.3553858213126659393310546875" lon="-70.81504496745765209197998046875">
        <ele>642.79998779296875</ele>
        <time>2026-08-21T11:07:29.000Z</time>
        <extensions>
          <ns3:TrackPointExtension>
            <ns3:hr>135</ns3:hr>
            <ns3:cad>50</ns3:cad>
          </ns3:TrackPointExtension>
        </extensions>
      </trkpt>
      <trkpt lat="45.35537861287593841552734375" lon="-70.81505502574145793914794921875">
        <ele>643</ele>
        <time>2026-08-21T11:07:30.000Z</time>
        <extensions>
          <ns3:TrackPointExtension>
            <ns3:hr>136</ns3:hr>
            <ns3:cad>50</ns3:cad>
          </ns3:TrackPointExtension>
        </extensions>
      </trkpt>
      <trkpt lat="45.35536679439246654510498046875" lon="-70.81506324000656604766845703125">
        <ele>643</ele>
        <time>2026-08-21T11:07:31.000Z</time>
        <extensions>
          <ns3:TrackPointExtension>
            <ns3:hr>136</ns3:hr>
            <ns3:cad>50</ns3:cad>
          </ns3:TrackPointExtension>
        </extensions>
      </trkpt>
      <trkpt lat="45.35535715520381927490234375" lon="-70.81506843678653240203857421875">
        <ele>643.20001220703125</ele>
        <time>2026-08-21T11:07:32.000Z</time>
        <extensions>
          <ns3:TrackPointExtension>
            <ns3:hr>136</ns3:hr>
            <ns3:cad>50</ns3:cad>
          </ns3:TrackPointExtension>
        </extensions>
      </trkpt>
      <trkpt lat="45.35534684546291828155517578125" lon="-70.81507623195648193359375">
        <ele>643.4000244140625</ele>
        <time>2026-08-21T11:07:33.000Z</time>
        <extensions>
          <ns3:TrackPointExtension>
            <ns3:hr>136</ns3:hr>
            <ns3:cad>50</ns3:cad>
          </ns3:TrackPointExtension>
        </extensions>
      </trkpt>
      <trkpt lat="45.35533703863620758056640625" lon="-70.81508352421224117279052734375">
        <ele>643.5999755859375</ele>
        <time>2026-08-21T11:07:34.000Z</time>
        <extensions>
          <ns3:TrackPointExtension>
            <ns3:hr>137</ns3:hr>
            <ns3:cad>50</ns3:cad>
          </ns3:TrackPointExtension>
        </extensions>
      </trkpt>
      <trkpt lat="45.35532739944756031036376953125" lon="-70.815083943307399749755859375">
        <ele>643.79998779296875</ele>
        <time>2026-08-21T11:07:35.000Z</time>
        <extensions>
          <ns3:TrackPointExtension>
            <ns3:hr>137</ns3:hr>
            <ns3:cad>51</ns3:cad>
          </ns3:TrackPointExtension>
        </extensions>
      </trkpt>
      <trkpt lat="45.35531449131667613983154296875" lon="-70.8150827698409557342529296875">
        <ele>644</ele>
        <time>2026-08-21T11:07:36.000Z</time>
        <extensions>
          <ns3:TrackPointExtension>
            <ns3:hr>137</ns3:hr>
            <ns3:cad>51</ns3:cad>
          </ns3:TrackPointExtension>
        </extensions>
      </trkpt>
      <trkpt lat="45.3553043492138385772705078125" lon="-70.8150814287364482879638671875">
        <ele>644.20001220703125</ele>
        <time>2026-08-21T11:07:37.000Z</time>
        <extensions>
          <ns3:TrackPointExtension>
            <ns3:hr>138</ns3:hr>
            <ns3:cad>51</ns3:cad>
          </ns3:TrackPointExtension>
        </extensions>
      </trkpt>
      <trkpt lat="45.35529353655874729156494140625" lon="-70.815075896680355072021484375">
        <ele>644.4000244140625</ele>
        <time>2026-08-21T11:07:38.000Z</time>
        <extensions>
          <ns3:TrackPointExtension>
            <ns3:hr>138</ns3:hr>
            <ns3:cad>51</ns3:cad>
          </ns3:TrackPointExtension>
        </extensions>
      </trkpt>
      <trkpt lat="45.35528339445590972900390625" lon="-70.81506877206265926361083984375">
        <ele>644.5999755859375</ele>
        <time>2026-08-21T11:07:39.000Z</time>
        <extensions>
          <ns3:TrackPointExtension>
            <ns3:hr>138</ns3:hr>
            <ns3:cad>51</ns3:cad>
          </ns3:TrackPointExtension>
        </extensions>
      </trkpt>
      <trkpt lat="45.35527325235307216644287109375" lon="-70.8150653354823589324951171875">
        <ele>644.79998779296875</ele>
        <time>2026-08-21T11:07:40.000Z</time>
        <extensions>
          <ns3:TrackPointExtension>
            <ns3:hr>138</ns3:hr>
            <ns3:cad>51</ns3:cad>
          </ns3:TrackPointExtension>
        </extensions>
      </trkpt>
      <trkpt lat="45.3552644513547420501708984375" lon="-70.81507095135748386383056640625">
        <ele>645</ele>
        <time>2026-08-21T11:07:41.000Z</time>
        <extensions>
          <ns3:TrackPointExtension>
            <ns3:hr>139</ns3:hr>
            <ns3:cad>51</ns3:cad>
          </ns3:TrackPointExtension>
        </extensions>
      </trkpt>
      <trkpt lat="45.35525883547961711883544921875" lon="-70.8150807581841945648193359375">
        <ele>645.20001220703125</ele>
        <time>2026-08-21T11:07:42.000Z</time>
        <extensions>
          <ns3:TrackPointExtension>
            <ns3:hr>139</ns3:hr>
            <ns3:cad>51</ns3:cad>
          </ns3:TrackPointExtension>
        </extensions>
      </trkpt>
      <trkpt lat="45.35524525679647922515869140625" lon="-70.81509022973477840423583984375">
        <ele>645.4000244140625</ele>
        <time>2026-08-21T11:07:43.000Z</time>
        <extensions>
          <ns3:TrackPointExtension>
            <ns3:hr>140</ns3:hr>
            <ns3:cad>51</ns3:cad>
          </ns3:TrackPointExtension>
        </extensions>
      </trkpt>
      <trkpt lat="45.35523553378880023956298828125" lon="-70.81509701907634735107421875">
        <ele>645.5999755859375</ele>
        <time>2026-08-21T11:07:44.000Z</time>
        <extensions>
          <ns3:TrackPointExtension>
            <ns3:hr>140</ns3:hr>
            <ns3:cad>48</ns3:cad>
          </ns3:TrackPointExtension>
        </extensions>
      </trkpt>
      <trkpt lat="45.355225391685962677001953125" lon="-70.8151032216846942901611328125">
        <ele>645.79998779296875</ele>
        <time>2026-08-21T11:07:45.000Z</time>
        <extensions>
          <ns3:TrackPointExtension>
            <ns3:hr>140</ns3:hr>
            <ns3:cad>48</ns3:cad>
          </ns3:TrackPointExtension>
        </extensions>
      </trkpt>
      <trkpt lat="45.35521558485925197601318359375" lon="-70.81510506570339202880859375">
        <ele>646</ele>
        <time>2026-08-21T11:07:46.000Z</time>
        <extensions>
          <ns3:TrackPointExtension>
            <ns3:hr>141</ns3:hr>
            <ns3:cad>48</ns3:cad>
          </ns3:TrackPointExtension>
        </extensions>
      </trkpt>
      <trkpt lat="45.355213321745395660400390625" lon="-70.81510774791240692138671875">
        <ele>646.20001220703125</ele>
        <time>2026-08-21T11:07:47.000Z</time>
        <extensions>
          <ns3:TrackPointExtension>
            <ns3:hr>140</ns3:hr>
            <ns3:cad>48</ns3:cad>
          </ns3:TrackPointExtension>
        </extensions>
      </trkpt>
      <trkpt lat="45.35521005280315876007080078125" lon="-70.8151079155504703521728515625">
        <ele>646.4000244140625</ele>
        <time>2026-08-21T11:07:48.000Z</time>
        <extensions>
          <ns3:TrackPointExtension>
            <ns3:hr>140</ns3:hr>
            <ns3:cad>48</ns3:cad>
          </ns3:TrackPointExtension>
        </extensions>
      </trkpt>
      <trkpt lat="45.3552138246595859527587890625" lon="-70.8151059038937091827392578125">
        <ele>646.5999755859375</ele>
        <time>2026-08-21T11:07:49.000Z</time>
        <extensions>
          <ns3:TrackPointExtension>
            <ns3:hr>140</ns3:hr>
            <ns3:cad>48</ns3:cad>
          </ns3:TrackPointExtension>
        </extensions>
      </trkpt>
      <trkpt lat="45.35521659068763256072998046875" lon="-70.81509567797183990478515625">
        <ele>646.79998779296875</ele>
        <time>2026-08-21T11:07:50.000Z</time>
        <extensions>
          <ns3:TrackPointExtension>
            <ns3:hr>140</ns3:hr>
            <ns3:cad>48</ns3:cad>
          </ns3:TrackPointExtension>
        </extensions>
      </trkpt>
      <trkpt lat="45.355226062238216400146484375" lon="-70.815102718770503997802734375">
        <ele>647</ele>
        <time>2026-08-21T11:07:51.000Z</time>
        <extensions>
          <ns3:TrackPointExtension>
            <ns3:hr>141</ns3:hr>
            <ns3:cad>48</ns3:cad>
          </ns3:TrackPointExtension>
        </extensions>
      </trkpt>
      <trkpt lat="45.35522530786693096160888671875" lon="-70.8150928281247615814208984375">
        <ele>647.20001220703125</ele>
        <time>2026-08-21T11:07:52.000Z</time>
        <extensions>
          <ns3:TrackPointExtension>
            <ns3:hr>140</ns3:hr>
            <ns3:cad>48</ns3:cad>
          </ns3:TrackPointExtension>
        </extensions>
      </trkpt>
      <trkpt lat="45.3552225418388843536376953125" lon="-70.8150888048112392425537109375">
        <ele>647.4000244140625</ele>
        <time>2026-08-21T11:07:53.000Z</time>
        <extensions>
          <ns3:TrackPointExtension>
            <ns3:hr>140</ns3:hr>
            <ns3:cad>48</ns3:cad>
          </ns3:TrackPointExtension>
        </extensions>
      </trkpt>
      <trkpt lat="45.35522379912436008453369140625" lon="-70.81508033908903598785400390625">
        <ele>647.5999755859375</ele>
        <time>2026-08-21T11:07:54.000Z</time>
        <extensions>
          <ns3:TrackPointExtension>
            <ns3:hr>139</ns3:hr>
            <ns3:cad>48</ns3:cad>
          </ns3:TrackPointExtension>
        </extensions>
      </trkpt>
      <trkpt lat="45.35522329621016979217529296875" lon="-70.8150733821094036102294921875">
        <ele>647.79998779296875</ele>
        <time>2026-08-21T11:07:55.000Z</time>
        <extensions>
          <ns3:TrackPointExtension>
            <ns3:hr>138</ns3:hr>
            <ns3:cad>48</ns3:cad>
          </ns3:TrackPointExtension>
        </extensions>
      </trkpt>
      <trkpt lat="45.35522128455340862274169921875" lon="-70.81506424583494663238525390625">
        <ele>648</ele>
        <time>2026-08-21T11:07:56.000Z</time>
        <extensions>
          <ns3:TrackPointExtension>
            <ns3:hr>138</ns3:hr>
            <ns3:cad>0</ns3:cad>
          </ns3:TrackPointExtension>
        </extensions>
      </trkpt>
      <trkpt lat="45.35521726123988628387451171875" lon="-70.8150532655417919158935546875">
        <ele>648.20001220703125</ele>
        <time>2026-08-21T11:07:57.000Z</time>
        <extensions>
          <ns3:TrackPointExtension>
            <ns3:hr>138</ns3:hr>
            <ns3:cad>0</ns3:cad>
          </ns3:TrackPointExtension>
        </extensions>
      </trkpt>
      <trkpt lat="45.35521742887794971466064453125" lon="-70.81504471600055694580078125">
        <ele>648.4000244140625</ele>
        <time>2026-08-21T11:07:58.000Z</time>
        <extensions>
          <ns3:TrackPointExtension>
            <ns3:hr>138</ns3:hr>
            <ns3:cad>0</ns3:cad>
          </ns3:TrackPointExtension>
        </extensions>
      </trkpt>
      <trkpt lat="45.35521742887794971466064453125" lon="-70.81503658555448055267333984375">
        <ele>648.5999755859375</ele>
        <time>2026-08-21T11:07:59.000Z</time>
        <extensions>
          <ns3:TrackPointExtension>
            <ns3:hr>138</ns3:hr>
            <ns3:cad>0</ns3:cad>
          </ns3:TrackPointExtension>
        </extensions>
      </trkpt>
      <trkpt lat="45.3552151657640933990478515625" lon="-70.81502736546099185943603515625">
        <ele>649</ele>
        <time>2026-08-21T11:08:00.000Z</time>
        <extensions>
          <ns3:TrackPointExtension>
            <ns3:hr>138</ns3:hr>
            <ns3:cad>0</ns3:cad>
          </ns3:TrackPointExtension>
        </extensions>
      </trkpt>
      <trkpt lat="45.35521105863153934478759765625" lon="-70.8150158822536468505859375">
        <ele>649.20001220703125</ele>
        <time>2026-08-21T11:08:01.000Z</time>
        <extensions>
          <ns3:TrackPointExtension>
            <ns3:hr>138</ns3:hr>
            <ns3:cad>0</ns3:cad>
          </ns3:TrackPointExtension>
        </extensions>
      </trkpt>
      <trkpt lat="45.355205945670604705810546875" lon="-70.8150009624660015106201171875">
        <ele>649.4000244140625</ele>
        <time>2026-08-21T11:08:02.000Z</time>
        <extensions>
          <ns3:TrackPointExtension>
            <ns3:hr>138</ns3:hr>
            <ns3:cad>0</ns3:cad>
          </ns3:TrackPointExtension>
        </extensions>
      </trkpt>
      <trkpt lat="45.35520385019481182098388671875" lon="-70.81499283201992511749267578125">
        <ele>649.5999755859375</ele>
        <time>2026-08-21T11:08:03.000Z</time>
        <extensions>
          <ns3:TrackPointExtension>
            <ns3:hr>138</ns3:hr>
            <ns3:cad>0</ns3:cad>
          </ns3:TrackPointExtension>
        </extensions>
      </trkpt>
      <trkpt lat="45.355200581252574920654296875" lon="-70.814986042678356170654296875">
        <ele>649.79998779296875</ele>
        <time>2026-08-21T11:08:04.000Z</time>
        <extensions>
          <ns3:TrackPointExtension>
            <ns3:hr>138</ns3:hr>
            <ns3:cad>0</ns3:cad>
          </ns3:TrackPointExtension>
        </extensions>
      </trkpt>
      <trkpt lat="45.3551933728158473968505859375" lon="-70.81497388891875743865966796875">
        <ele>650</ele>
        <time>2026-08-21T11:08:05.000Z</time>
        <extensions>
          <ns3:TrackPointExtension>
            <ns3:hr>138</ns3:hr>
            <ns3:cad>45</ns3:cad>
          </ns3:TrackPointExtension>
        </extensions>
      </trkpt>
      <trkpt lat="45.35518893040716648101806640625" lon="-70.8149593882262706756591796875">
        <ele>650.4000244140625</ele>
        <time>2026-08-21T11:08:06.000Z</time>
        <extensions>
          <ns3:TrackPointExtension>
            <ns3:hr>138</ns3:hr>
            <ns3:cad>45</ns3:cad>
          </ns3:TrackPointExtension>
        </extensions>
      </trkpt>
      <trkpt lat="45.35518960095942020416259765625" lon="-70.81494941376149654388427734375">
        <ele>650.5999755859375</ele>
        <time>2026-08-21T11:08:07.000Z</time>
        <extensions>
          <ns3:TrackPointExtension>
            <ns3:hr>138</ns3:hr>
            <ns3:cad>45</ns3:cad>
          </ns3:TrackPointExtension>
        </extensions>
      </trkpt>
      <trkpt lat="45.35518725402653217315673828125" lon="-70.81493834964931011199951171875">
        <ele>650.79998779296875</ele>
        <time>2026-08-21T11:08:08.000Z</time>
        <extensions>
          <ns3:TrackPointExtension>
            <ns3:hr>138</ns3:hr>
            <ns3:cad>45</ns3:cad>
          </ns3:TrackPointExtension>
        </extensions>
      </trkpt>
      <trkpt lat="45.3551816381514072418212890625" lon="-70.8149251900613307952880859375">
        <ele>651</ele>
        <time>2026-08-21T11:08:09.000Z</time>
        <extensions>
          <ns3:TrackPointExtension>
            <ns3:hr>138</ns3:hr>
            <ns3:cad>45</ns3:cad>
          </ns3:TrackPointExtension>
        </extensions>
      </trkpt>
      <trkpt lat="45.355175770819187164306640625" lon="-70.814914293587207794189453125">
        <ele>651</ele>
        <time>2026-08-21T11:08:10.000Z</time>
        <extensions>
          <ns3:TrackPointExtension>
            <ns3:hr>139</ns3:hr>
            <ns3:cad>43</ns3:cad>
          </ns3:TrackPointExtension>
        </extensions>
      </trkpt>
      <trkpt lat="45.35517476499080657958984375" lon="-70.81489845179021358489990234375">
        <ele>651.20001220703125</ele>
        <time>2026-08-21T11:08:11.000Z</time>
        <extensions>
          <ns3:TrackPointExtension>
            <ns3:hr>139</ns3:hr>
            <ns3:cad>43</ns3:cad>
          </ns3:TrackPointExtension>
        </extensions>
      </trkpt>
      <trkpt lat="45.3551702387630939483642578125" lon="-70.81488420255482196807861328125">
        <ele>651.4000244140625</ele>
        <time>2026-08-21T11:08:12.000Z</time>
        <extensions>
          <ns3:TrackPointExtension>
            <ns3:hr>139</ns3:hr>
            <ns3:cad>45</ns3:cad>
          </ns3:TrackPointExtension>
        </extensions>
      </trkpt>
      <trkpt lat="45.3551611863076686859130859375" lon="-70.814864672720432281494140625">
        <ele>651.5999755859375</ele>
        <time>2026-08-21T11:08:13.000Z</time>
        <extensions>
          <ns3:TrackPointExtension>
            <ns3:hr>139</ns3:hr>
            <ns3:cad>45</ns3:cad>
          </ns3:TrackPointExtension>
        </extensions>
      </trkpt>
      <trkpt lat="45.355155654251575469970703125" lon="-70.81484891474246978759765625">
        <ele>651.79998779296875</ele>
        <time>2026-08-21T11:08:14.000Z</time>
        <extensions>
          <ns3:TrackPointExtension>
            <ns3:hr>140</ns3:hr>
            <ns3:cad>45</ns3:cad>
          </ns3:TrackPointExtension>
        </extensions>
      </trkpt>
      <trkpt lat="45.3551524691283702850341796875" lon="-70.81483550369739532470703125">
        <ele>652</ele>
        <time>2026-08-21T11:08:15.000Z</time>
        <extensions>
          <ns3:TrackPointExtension>
            <ns3:hr>140</ns3:hr>
            <ns3:cad>46</ns3:cad>
          </ns3:TrackPointExtension>
        </extensions>
      </trkpt>
      <trkpt lat="45.35514685325324535369873046875" lon="-70.81481932662427425384521484375">
        <ele>652.20001220703125</ele>
        <time>2026-08-21T11:08:16.000Z</time>
        <extensions>
          <ns3:TrackPointExtension>
            <ns3:hr>140</ns3:hr>
            <ns3:cad>46</ns3:cad>
          </ns3:TrackPointExtension>
        </extensions>
      </trkpt>
      <trkpt lat="45.35513595677912235260009765625" lon="-70.81480340100824832916259765625">
        <ele>652.4000244140625</ele>
        <time>2026-08-21T11:08:17.000Z</time>
        <extensions>
          <ns3:TrackPointExtension>
            <ns3:hr>141</ns3:hr>
            <ns3:cad>47</ns3:cad>
          </ns3:TrackPointExtension>
        </extensions>
      </trkpt>
      <trkpt lat="45.35513159818947315216064453125" lon="-70.814792253077030181884765625">
        <ele>652.5999755859375</ele>
        <time>2026-08-21T11:08:18.000Z</time>
        <extensions>
          <ns3:TrackPointExtension>
            <ns3:hr>142</ns3:hr>
            <ns3:cad>47</ns3:cad>
          </ns3:TrackPointExtension>
        </extensions>
      </trkpt>
      <trkpt lat="45.35512707196176052093505859375" lon="-70.8147833682596683502197265625">
        <ele>652.5999755859375</ele>
        <time>2026-08-21T11:08:19.000Z</time>
        <extensions>
          <ns3:TrackPointExtension>
            <ns3:hr>142</ns3:hr>
            <ns3:cad>47</ns3:cad>
          </ns3:TrackPointExtension>
        </extensions>
      </trkpt>
      <trkpt lat="45.35512405447661876678466796875" lon="-70.814776830375194549560546875">
        <ele>652.79998779296875</ele>
        <time>2026-08-21T11:08:20.000Z</time>
        <extensions>
          <ns3:TrackPointExtension>
            <ns3:hr>142</ns3:hr>
            <ns3:cad>0</ns3:cad>
          </ns3:TrackPointExtension>
        </extensions>
      </trkpt>
      <trkpt lat="45.355120114982128143310546875" lon="-70.8147702924907207489013671875">
        <ele>652.79998779296875</ele>
        <time>2026-08-21T11:08:21.000Z</time>
        <extensions>
          <ns3:TrackPointExtension>
            <ns3:hr>142</ns3:hr>
            <ns3:cad>0</ns3:cad>
          </ns3:TrackPointExtension>
        </extensions>
      </trkpt>
      <trkpt lat="45.35511818714439868927001953125" lon="-70.81476844847202301025390625">
        <ele>653</ele>
        <time>2026-08-21T11:08:22.000Z</time>
        <extensions>
          <ns3:TrackPointExtension>
            <ns3:hr>143</ns3:hr>
            <ns3:cad>41</ns3:cad>
          </ns3:TrackPointExtension>
        </extensions>
      </trkpt>
      <trkpt lat="45.35511709749698638916015625" lon="-70.8147645927965641021728515625">
        <ele>653</ele>
        <time>2026-08-21T11:08:23.000Z</time>
        <extensions>
          <ns3:TrackPointExtension>
            <ns3:hr>142</ns3:hr>
            <ns3:cad>41</ns3:cad>
          </ns3:TrackPointExtension>
        </extensions>
      </trkpt>
      <trkpt lat="45.35511617548763751983642578125" lon="-70.814756713807582855224609375">
        <ele>653.20001220703125</ele>
        <time>2026-08-21T11:08:24.000Z</time>
        <extensions>
          <ns3:TrackPointExtension>
            <ns3:hr>142</ns3:hr>
            <ns3:cad>0</ns3:cad>
          </ns3:TrackPointExtension>
        </extensions>
      </trkpt>
      <trkpt lat="45.35511131398379802703857421875" lon="-70.81475093029439449310302734375">
        <ele>653.20001220703125</ele>
        <time>2026-08-21T11:08:25.000Z</time>
        <extensions>
          <ns3:TrackPointExtension>
            <ns3:hr>141</ns3:hr>
            <ns3:cad>0</ns3:cad>
          </ns3:TrackPointExtension>
        </extensions>
      </trkpt>
      <trkpt lat="45.3551055304706096649169921875" lon="-70.8147397823631763458251953125">
        <ele>653.4000244140625</ele>
        <time>2026-08-21T11:08:26.000Z</time>
        <extensions>
          <ns3:TrackPointExtension>
            <ns3:hr>141</ns3:hr>
            <ns3:cad>0</ns3:cad>
          </ns3:TrackPointExtension>
        </extensions>
      </trkpt>
      <trkpt lat="45.35510645247995853424072265625" lon="-70.8147280476987361907958984375">
        <ele>653.5999755859375</ele>
        <time>2026-08-21T11:08:27.000Z</time>
        <extensions>
          <ns3:TrackPointExtension>
            <ns3:hr>141</ns3:hr>
            <ns3:cad>0</ns3:cad>
          </ns3:TrackPointExtension>
        </extensions>
      </trkpt>
      <trkpt lat="45.35510678775608539581298828125" lon="-70.81471371464431285858154296875">
        <ele>653.79998779296875</ele>
        <time>2026-08-21T11:08:28.000Z</time>
        <extensions>
          <ns3:TrackPointExtension>
            <ns3:hr>140</ns3:hr>
            <ns3:cad>0</ns3:cad>
          </ns3:TrackPointExtension>
        </extensions>
      </trkpt>
      <trkpt lat="45.35510427318513393402099609375" lon="-70.81469929777085781097412109375">
        <ele>654</ele>
        <time>2026-08-21T11:08:29.000Z</time>
        <extensions>
          <ns3:TrackPointExtension>
            <ns3:hr>140</ns3:hr>
            <ns3:cad>0</ns3:cad>
          </ns3:TrackPointExtension>
        </extensions>
      </trkpt>
      <trkpt lat="45.35509807057678699493408203125" lon="-70.8146874792873859405517578125">
        <ele>654.20001220703125</ele>
        <time>2026-08-21T11:08:30.000Z</time>
        <extensions>
          <ns3:TrackPointExtension>
            <ns3:hr>140</ns3:hr>
            <ns3:cad>0</ns3:cad>
          </ns3:TrackPointExtension>
        </extensions>
      </trkpt>
      <trkpt lat="45.355093963444232940673828125" lon="-70.81467582844197750091552734375">
        <ele>654.20001220703125</ele>
        <time>2026-08-21T11:08:31.000Z</time>
        <extensions>
          <ns3:TrackPointExtension>
            <ns3:hr>140</ns3:hr>
            <ns3:cad>0</ns3:cad>
          </ns3:TrackPointExtension>
        </extensions>
      </trkpt>
      <trkpt lat="45.3550870902836322784423828125" lon="-70.81466040574014186859130859375">
        <ele>654.4000244140625</ele>
        <time>2026-08-21T11:08:32.000Z</time>
        <extensions>
          <ns3:TrackPointExtension>
            <ns3:hr>139</ns3:hr>
            <ns3:cad>51</ns3:cad>
          </ns3:TrackPointExtension>
        </extensions>
      </trkpt>
      <trkpt lat="45.35508281551301479339599609375" lon="-70.81464481540024280548095703125">
        <ele>654.5999755859375</ele>
        <time>2026-08-21T11:08:33.000Z</time>
        <extensions>
          <ns3:TrackPointExtension>
            <ns3:hr>140</ns3:hr>
            <ns3:cad>51</ns3:cad>
          </ns3:TrackPointExtension>
        </extensions>
      </trkpt>
      <trkpt lat="45.355081222951412200927734375" lon="-70.81463358364999294281005859375">
        <ele>654.79998779296875</ele>
        <time>2026-08-21T11:08:34.000Z</time>
        <extensions>
          <ns3:TrackPointExtension>
            <ns3:hr>140</ns3:hr>
            <ns3:cad>49</ns3:cad>
          </ns3:TrackPointExtension>
        </extensions>
      </trkpt>
      <trkpt lat="45.3550800494849681854248046875" lon="-70.8146274648606777191162109375">
        <ele>655</ele>
        <time>2026-08-21T11:08:35.000Z</time>
        <extensions>
          <ns3:TrackPointExtension>
            <ns3:hr>140</ns3:hr>
            <ns3:cad>49</ns3:cad>
          </ns3:TrackPointExtension>
        </extensions>
      </trkpt>
      <trkpt lat="45.3550733439624309539794921875" lon="-70.8146167360246181488037109375">
        <ele>655.4000244140625</ele>
        <time>2026-08-21T11:08:36.000Z</time>
        <extensions>
          <ns3:TrackPointExtension>
            <ns3:hr>139</ns3:hr>
            <ns3:cad>0</ns3:cad>
          </ns3:TrackPointExtension>
        </extensions>
      </trkpt>
      <trkpt lat="45.35506881773471832275390625" lon="-70.81460005603730678558349609375">
        <ele>655.5999755859375</ele>
        <time>2026-08-21T11:08:37.000Z</time>
        <extensions>
          <ns3:TrackPointExtension>
            <ns3:hr>139</ns3:hr>
            <ns3:cad>0</ns3:cad>
          </ns3:TrackPointExtension>
        </extensions>
      </trkpt>
      <trkpt lat="45.35507258959114551544189453125" lon="-70.81459787674248218536376953125">
        <ele>656</ele>
        <time>2026-08-21T11:08:38.000Z</time>
        <extensions>
          <ns3:TrackPointExtension>
            <ns3:hr>139</ns3:hr>
            <ns3:cad>0</ns3:cad>
          </ns3:TrackPointExtension>
        </extensions>
      </trkpt>
      <trkpt lat="45.3550721704959869384765625" lon="-70.814586393535137176513671875">
        <ele>656.20001220703125</ele>
        <time>2026-08-21T11:08:39.000Z</time>
        <extensions>
          <ns3:TrackPointExtension>
            <ns3:hr>140</ns3:hr>
            <ns3:cad>0</ns3:cad>
          </ns3:TrackPointExtension>
        </extensions>
      </trkpt>
      <trkpt lat="45.35507091321051120758056640625" lon="-70.81456904299557209014892578125">
        <ele>656.5999755859375</ele>
        <time>2026-08-21T11:08:40.000Z</time>
        <extensions>
          <ns3:TrackPointExtension>
            <ns3:hr>139</ns3:hr>
            <ns3:cad>0</ns3:cad>
          </ns3:TrackPointExtension>
        </extensions>
      </trkpt>
      <trkpt lat="45.355069153010845184326171875" lon="-70.814553536474704742431640625">
        <ele>656.79998779296875</ele>
        <time>2026-08-21T11:08:41.000Z</time>
        <extensions>
          <ns3:TrackPointExtension>
            <ns3:hr>139</ns3:hr>
            <ns3:cad>44</ns3:cad>
          </ns3:TrackPointExtension>
        </extensions>
      </trkpt>
      <trkpt lat="45.35506881773471832275390625" lon="-70.81454305909574031829833984375">
        <ele>657</ele>
        <time>2026-08-21T11:08:42.000Z</time>
        <extensions>
          <ns3:TrackPointExtension>
            <ns3:hr>138</ns3:hr>
            <ns3:cad>44</ns3:cad>
          </ns3:TrackPointExtension>
        </extensions>
      </trkpt>
      <trkpt lat="45.35506789572536945343017578125" lon="-70.81452629528939723968505859375">
        <ele>657.20001220703125</ele>
        <time>2026-08-21T11:08:43.000Z</time>
        <extensions>
          <ns3:TrackPointExtension>
            <ns3:hr>139</ns3:hr>
            <ns3:cad>44</ns3:cad>
          </ns3:TrackPointExtension>
        </extensions>
      </trkpt>
      <trkpt lat="45.355068482458591461181640625" lon="-70.81450567580759525299072265625">
        <ele>657.4000244140625</ele>
        <time>2026-08-21T11:08:44.000Z</time>
        <extensions>
          <ns3:TrackPointExtension>
            <ns3:hr>139</ns3:hr>
            <ns3:cad>44</ns3:cad>
          </ns3:TrackPointExtension>
        </extensions>
      </trkpt>
      <trkpt lat="45.355069153010845184326171875" lon="-70.81448949873447418212890625">
        <ele>657.5999755859375</ele>
        <time>2026-08-21T11:08:45.000Z</time>
        <extensions>
          <ns3:TrackPointExtension>
            <ns3:hr>139</ns3:hr>
            <ns3:cad>44</ns3:cad>
          </ns3:TrackPointExtension>
        </extensions>
      </trkpt>
      <trkpt lat="45.35506722517311573028564453125" lon="-70.81447876989841461181640625">
        <ele>657.79998779296875</ele>
        <time>2026-08-21T11:08:46.000Z</time>
        <extensions>
          <ns3:TrackPointExtension>
            <ns3:hr>140</ns3:hr>
            <ns3:cad>44</ns3:cad>
          </ns3:TrackPointExtension>
        </extensions>
      </trkpt>
      <trkpt lat="45.3550646267831325531005859375" lon="-70.81446611322462558746337890625">
        <ele>658</ele>
        <time>2026-08-21T11:08:47.000Z</time>
        <extensions>
          <ns3:TrackPointExtension>
            <ns3:hr>140</ns3:hr>
            <ns3:cad>44</ns3:cad>
          </ns3:TrackPointExtension>
        </extensions>
      </trkpt>
      <trkpt lat="45.355063118040561676025390625" lon="-70.8144537918269634246826171875">
        <ele>658</ele>
        <time>2026-08-21T11:08:48.000Z</time>
        <extensions>
          <ns3:TrackPointExtension>
            <ns3:hr>141</ns3:hr>
            <ns3:cad>44</ns3:cad>
          </ns3:TrackPointExtension>
        </extensions>
      </trkpt>
      <trkpt lat="45.35506370477378368377685546875" lon="-70.81443828530609607696533203125">
        <ele>658</ele>
        <time>2026-08-21T11:08:49.000Z</time>
        <extensions>
          <ns3:TrackPointExtension>
            <ns3:hr>141</ns3:hr>
            <ns3:cad>44</ns3:cad>
          </ns3:TrackPointExtension>
        </extensions>
      </trkpt>
      <trkpt lat="45.35506404004991054534912109375" lon="-70.81442571245133876800537109375">
        <ele>658</ele>
        <time>2026-08-21T11:08:50.000Z</time>
        <extensions>
          <ns3:TrackPointExtension>
            <ns3:hr>142</ns3:hr>
            <ns3:cad>44</ns3:cad>
          </ns3:TrackPointExtension>
        </extensions>
      </trkpt>
      <trkpt lat="45.355065800249576568603515625" lon="-70.8144145645201206207275390625">
        <ele>657.79998779296875</ele>
        <time>2026-08-21T11:08:51.000Z</time>
        <extensions>
          <ns3:TrackPointExtension>
            <ns3:hr>142</ns3:hr>
            <ns3:cad>44</ns3:cad>
          </ns3:TrackPointExtension>
        </extensions>
      </trkpt>
      <trkpt lat="45.35506990738213062286376953125" lon="-70.81440324895083904266357421875">
        <ele>658</ele>
        <time>2026-08-21T11:08:52.000Z</time>
        <extensions>
          <ns3:TrackPointExtension>
            <ns3:hr>142</ns3:hr>
            <ns3:cad>44</ns3:cad>
          </ns3:TrackPointExtension>
        </extensions>
      </trkpt>
      <trkpt lat="45.35506546497344970703125" lon="-70.81439604051411151885986328125">
        <ele>658</ele>
        <time>2026-08-21T11:08:53.000Z</time>
        <extensions>
          <ns3:TrackPointExtension>
            <ns3:hr>143</ns3:hr>
            <ns3:cad>44</ns3:cad>
          </ns3:TrackPointExtension>
        </extensions>
      </trkpt>
      <trkpt lat="45.355063118040561676025390625" lon="-70.8143934421241283416748046875">
        <ele>658.20001220703125</ele>
        <time>2026-08-21T11:08:54.000Z</time>
        <extensions>
          <ns3:TrackPointExtension>
            <ns3:hr>143</ns3:hr>
            <ns3:cad>0</ns3:cad>
          </ns3:TrackPointExtension>
        </extensions>
      </trkpt>
      <trkpt lat="45.35505867563188076019287109375" lon="-70.8143907599151134490966796875">
        <ele>658.20001220703125</ele>
        <time>2026-08-21T11:08:55.000Z</time>
        <extensions>
          <ns3:TrackPointExtension>
            <ns3:hr>143</ns3:hr>
            <ns3:cad>0</ns3:cad>
          </ns3:TrackPointExtension>
        </extensions>
      </trkpt>
      <trkpt lat="45.35505733452737331390380859375" lon="-70.8143870718777179718017578125">
        <ele>658.4000244140625</ele>
        <time>2026-08-21T11:08:56.000Z</time>
        <extensions>
          <ns3:TrackPointExtension>
            <ns3:hr>142</ns3:hr>
            <ns3:cad>0</ns3:cad>
          </ns3:TrackPointExtension>
        </extensions>
      </trkpt>
      <trkpt lat="45.35505347885191440582275390625" lon="-70.814378522336483001708984375">
        <ele>658.5999755859375</ele>
        <time>2026-08-21T11:08:57.000Z</time>
        <extensions>
          <ns3:TrackPointExtension>
            <ns3:hr>143</ns3:hr>
            <ns3:cad>0</ns3:cad>
          </ns3:TrackPointExtension>
        </extensions>
      </trkpt>
      <trkpt lat="45.35504844971001148223876953125" lon="-70.81436737440526485443115234375">
        <ele>658.5999755859375</ele>
        <time>2026-08-21T11:08:58.000Z</time>
        <extensions>
          <ns3:TrackPointExtension>
            <ns3:hr>142</ns3:hr>
            <ns3:cad>0</ns3:cad>
          </ns3:TrackPointExtension>
        </extensions>
      </trkpt>
      <trkpt lat="45.35504509694874286651611328125" lon="-70.8143599145114421844482421875">
        <ele>658.79998779296875</ele>
        <time>2026-08-21T11:08:59.000Z</time>
        <extensions>
          <ns3:TrackPointExtension>
            <ns3:hr>142</ns3:hr>
            <ns3:cad>0</ns3:cad>
          </ns3:TrackPointExtension>
        </extensions>
      </trkpt>
      <trkpt lat="45.3550411574542522430419921875" lon="-70.81434926949441432952880859375">
        <ele>659</ele>
        <time>2026-08-21T11:09:00.000Z</time>
        <extensions>
          <ns3:TrackPointExtension>
            <ns3:hr>142</ns3:hr>
            <ns3:cad>0</ns3:cad>
          </ns3:TrackPointExtension>
        </extensions>
      </trkpt>
      <trkpt lat="45.3550394810736179351806640625" lon="-70.81434390507638454437255859375">
        <ele>659.4000244140625</ele>
        <time>2026-08-21T11:09:01.000Z</time>
        <extensions>
          <ns3:TrackPointExtension>
            <ns3:hr>141</ns3:hr>
            <ns3:cad>0</ns3:cad>
          </ns3:TrackPointExtension>
        </extensions>
      </trkpt>
      <trkpt lat="45.35503503866493701934814453125" lon="-70.81432990729808807373046875">
        <ele>659.5999755859375</ele>
        <time>2026-08-21T11:09:02.000Z</time>
        <extensions>
          <ns3:TrackPointExtension>
            <ns3:hr>141</ns3:hr>
            <ns3:cad>0</ns3:cad>
          </ns3:TrackPointExtension>
        </extensions>
      </trkpt>
      <trkpt lat="45.35502917133271694183349609375" lon="-70.8143223635852336883544921875">
        <ele>659.79998779296875</ele>
        <time>2026-08-21T11:09:03.000Z</time>
        <extensions>
          <ns3:TrackPointExtension>
            <ns3:hr>141</ns3:hr>
            <ns3:cad>0</ns3:cad>
          </ns3:TrackPointExtension>
        </extensions>
      </trkpt>
      <trkpt lat="45.35502447746694087982177734375" lon="-70.81431188620626926422119140625">
        <ele>660.20001220703125</ele>
        <time>2026-08-21T11:09:04.000Z</time>
        <extensions>
          <ns3:TrackPointExtension>
            <ns3:hr>141</ns3:hr>
            <ns3:cad>0</ns3:cad>
          </ns3:TrackPointExtension>
        </extensions>
      </trkpt>
      <trkpt lat="45.35501425154507160186767578125" lon="-70.814300738275051116943359375">
        <ele>660.4000244140625</ele>
        <time>2026-08-21T11:09:05.000Z</time>
        <extensions>
          <ns3:TrackPointExtension>
            <ns3:hr>140</ns3:hr>
            <ns3:cad>0</ns3:cad>
          </ns3:TrackPointExtension>
        </extensions>
      </trkpt>
      <trkpt lat="45.35499773919582366943359375" lon="-70.81428741104900836944580078125">
        <ele>660.5999755859375</ele>
        <time>2026-08-21T11:09:06.000Z</time>
        <extensions>
          <ns3:TrackPointExtension>
            <ns3:hr>140</ns3:hr>
            <ns3:cad>0</ns3:cad>
          </ns3:TrackPointExtension>
        </extensions>
      </trkpt>
      <trkpt lat="45.35498407669365406036376953125" lon="-70.81428028643131256103515625">
        <ele>660.79998779296875</ele>
        <time>2026-08-21T11:09:07.000Z</time>
        <extensions>
          <ns3:TrackPointExtension>
            <ns3:hr>141</ns3:hr>
            <ns3:cad>0</ns3:cad>
          </ns3:TrackPointExtension>
        </extensions>
      </trkpt>
      <trkpt lat="45.35497628152370452880859375" lon="-70.81427701748907566070556640625">
        <ele>660.79998779296875</ele>
        <time>2026-08-21T11:09:08.000Z</time>
        <extensions>
          <ns3:TrackPointExtension>
            <ns3:hr>142</ns3:hr>
            <ns3:cad>0</ns3:cad>
          </ns3:TrackPointExtension>
        </extensions>
      </trkpt>
      <trkpt lat="45.3549595177173614501953125" lon="-70.81426662392914295196533203125">
        <ele>660.79998779296875</ele>
        <time>2026-08-21T11:09:09.000Z</time>
        <extensions>
          <ns3:TrackPointExtension>
            <ns3:hr>142</ns3:hr>
            <ns3:cad>0</ns3:cad>
          </ns3:TrackPointExtension>
        </extensions>
      </trkpt>
      <trkpt lat="45.35494853742420673370361328125" lon="-70.81425555981695652008056640625">
        <ele>661</ele>
        <time>2026-08-21T11:09:10.000Z</time>
        <extensions>
          <ns3:TrackPointExtension>
            <ns3:hr>142</ns3:hr>
            <ns3:cad>0</ns3:cad>
          </ns3:TrackPointExtension>
        </extensions>
      </trkpt>
      <trkpt lat="45.35494744777679443359375" lon="-70.81424768082797527313232421875">
        <ele>661</ele>
        <time>2026-08-21T11:09:11.000Z</time>
        <extensions>
          <ns3:TrackPointExtension>
            <ns3:hr>143</ns3:hr>
            <ns3:cad>0</ns3:cad>
          </ns3:TrackPointExtension>
        </extensions>
      </trkpt>
      <trkpt lat="45.3549442626535892486572265625" lon="-70.8142392151057720184326171875">
        <ele>661</ele>
        <time>2026-08-21T11:09:12.000Z</time>
        <extensions>
          <ns3:TrackPointExtension>
            <ns3:hr>142</ns3:hr>
            <ns3:cad>47</ns3:cad>
          </ns3:TrackPointExtension>
        </extensions>
      </trkpt>
      <trkpt lat="45.3549375571310520172119140625" lon="-70.8142244629561901092529296875">
        <ele>661.20001220703125</ele>
        <time>2026-08-21T11:09:13.000Z</time>
        <extensions>
          <ns3:TrackPointExtension>
            <ns3:hr>142</ns3:hr>
            <ns3:cad>0</ns3:cad>
          </ns3:TrackPointExtension>
        </extensions>
      </trkpt>
      <trkpt lat="45.3549281693994998931884765625" lon="-70.81421297974884510040283203125">
        <ele>661.20001220703125</ele>
        <time>2026-08-21T11:09:14.000Z</time>
        <extensions>
          <ns3:TrackPointExtension>
            <ns3:hr>142</ns3:hr>
            <ns3:cad>0</ns3:cad>
          </ns3:TrackPointExtension>
        </extensions>
      </trkpt>
      <trkpt lat="45.35491190850734710693359375" lon="-70.81420878879725933074951171875">
        <ele>661.4000244140625</ele>
        <time>2026-08-21T11:09:15.000Z</time>
        <extensions>
          <ns3:TrackPointExtension>
            <ns3:hr>143</ns3:hr>
            <ns3:cad>49</ns3:cad>
          </ns3:TrackPointExtension>
        </extensions>
      </trkpt>
      <trkpt lat="45.35489975474774837493896484375" lon="-70.81420359201729297637939453125">
        <ele>661.4000244140625</ele>
        <time>2026-08-21T11:09:16.000Z</time>
        <extensions>
          <ns3:TrackPointExtension>
            <ns3:hr>142</ns3:hr>
            <ns3:cad>49</ns3:cad>
          </ns3:TrackPointExtension>
        </extensions>
      </trkpt>
      <trkpt lat="45.35489237867295742034912109375" lon="-70.81420158036053180694580078125">
        <ele>661.5999755859375</ele>
        <time>2026-08-21T11:09:17.000Z</time>
        <extensions>
          <ns3:TrackPointExtension>
            <ns3:hr>142</ns3:hr>
            <ns3:cad>48</ns3:cad>
          </ns3:TrackPointExtension>
        </extensions>
      </trkpt>
      <trkpt lat="45.35487838089466094970703125" lon="-70.814201496541500091552734375">
        <ele>661.5999755859375</ele>
        <time>2026-08-21T11:09:18.000Z</time>
        <extensions>
          <ns3:TrackPointExtension>
            <ns3:hr>142</ns3:hr>
            <ns3:cad>48</ns3:cad>
          </ns3:TrackPointExtension>
        </extensions>
      </trkpt>
      <trkpt lat="45.3548644669353961944580078125" lon="-70.81420359201729297637939453125">
        <ele>661.5999755859375</ele>
        <time>2026-08-21T11:09:19.000Z</time>
        <extensions>
          <ns3:TrackPointExtension>
            <ns3:hr>142</ns3:hr>
            <ns3:cad>48</ns3:cad>
          </ns3:TrackPointExtension>
        </extensions>
      </trkpt>
      <trkpt lat="45.35485231317579746246337890625" lon="-70.81420241855084896087646484375">
        <ele>661.5999755859375</ele>
        <time>2026-08-21T11:09:20.000Z</time>
        <extensions>
          <ns3:TrackPointExtension>
            <ns3:hr>142</ns3:hr>
            <ns3:cad>50</ns3:cad>
          </ns3:TrackPointExtension>
        </extensions>
      </trkpt>
      <trkpt lat="45.3548460267484188079833984375" lon="-70.8141946233808994293212890625">
        <ele>661.5999755859375</ele>
        <time>2026-08-21T11:09:21.000Z</time>
        <extensions>
          <ns3:TrackPointExtension>
            <ns3:hr>142</ns3:hr>
            <ns3:cad>50</ns3:cad>
          </ns3:TrackPointExtension>
        </extensions>
      </trkpt>
      <trkpt lat="45.3548466973006725311279296875" lon="-70.81418280489742755889892578125">
        <ele>661.79998779296875</ele>
        <time>2026-08-21T11:09:22.000Z</time>
        <extensions>
          <ns3:TrackPointExtension>
            <ns3:hr>142</ns3:hr>
            <ns3:cad>0</ns3:cad>
          </ns3:TrackPointExtension>
        </extensions>
      </trkpt>
      <trkpt lat="45.35484426654875278472900390625" lon="-70.8141698129475116729736328125">
        <ele>662</ele>
        <time>2026-08-21T11:09:23.000Z</time>
        <extensions>
          <ns3:TrackPointExtension>
            <ns3:hr>141</ns3:hr>
            <ns3:cad>0</ns3:cad>
          </ns3:TrackPointExtension>
        </extensions>
      </trkpt>
      <trkpt lat="45.3548388183116912841796875" lon="-70.81415732391178607940673828125">
        <ele>662</ele>
        <time>2026-08-21T11:09:24.000Z</time>
        <extensions>
          <ns3:TrackPointExtension>
            <ns3:hr>141</ns3:hr>
            <ns3:cad>0</ns3:cad>
          </ns3:TrackPointExtension>
        </extensions>
      </trkpt>
      <trkpt lat="45.35483102314174175262451171875" lon="-70.8141429908573627471923828125">
        <ele>662.20001220703125</ele>
        <time>2026-08-21T11:09:25.000Z</time>
        <extensions>
          <ns3:TrackPointExtension>
            <ns3:hr>141</ns3:hr>
            <ns3:cad>0</ns3:cad>
          </ns3:TrackPointExtension>
        </extensions>
      </trkpt>
      <trkpt lat="45.35482205450534820556640625" lon="-70.8141248859465122222900390625">
        <ele>662.4000244140625</ele>
        <time>2026-08-21T11:09:26.000Z</time>
        <extensions>
          <ns3:TrackPointExtension>
            <ns3:hr>140</ns3:hr>
            <ns3:cad>0</ns3:cad>
          </ns3:TrackPointExtension>
        </extensions>
      </trkpt>
      <trkpt lat="45.3548141755163669586181640625" lon="-70.8141061104834079742431640625">
        <ele>662.4000244140625</ele>
        <time>2026-08-21T11:09:27.000Z</time>
        <extensions>
          <ns3:TrackPointExtension>
            <ns3:hr>140</ns3:hr>
            <ns3:cad>49</ns3:cad>
          </ns3:TrackPointExtension>
        </extensions>
      </trkpt>
      <trkpt lat="45.3548027761280536651611328125" lon="-70.81409445963799953460693359375">
        <ele>662.4000244140625</ele>
        <time>2026-08-21T11:09:28.000Z</time>
        <extensions>
          <ns3:TrackPointExtension>
            <ns3:hr>140</ns3:hr>
            <ns3:cad>49</ns3:cad>
          </ns3:TrackPointExtension>
        </extensions>
      </trkpt>
      <trkpt lat="45.35479414276778697967529296875" lon="-70.81409043632447719573974609375">
        <ele>662.5999755859375</ele>
        <time>2026-08-21T11:09:29.000Z</time>
        <extensions>
          <ns3:TrackPointExtension>
            <ns3:hr>140</ns3:hr>
            <ns3:cad>51</ns3:cad>
          </ns3:TrackPointExtension>
        </extensions>
      </trkpt>
      <trkpt lat="45.35478173755109310150146484375" lon="-70.8140873350203037261962890625">
        <ele>662.5999755859375</ele>
        <time>2026-08-21T11:09:30.000Z</time>
        <extensions>
          <ns3:TrackPointExtension>
            <ns3:hr>140</ns3:hr>
            <ns3:cad>51</ns3:cad>
          </ns3:TrackPointExtension>
        </extensions>
      </trkpt>
      <trkpt lat="45.3547679074108600616455078125" lon="-70.8140829764306545257568359375">
        <ele>662.79998779296875</ele>
        <time>2026-08-21T11:09:31.000Z</time>
        <extensions>
          <ns3:TrackPointExtension>
            <ns3:hr>139</ns3:hr>
            <ns3:cad>51</ns3:cad>
          </ns3:TrackPointExtension>
        </extensions>
      </trkpt>
      <trkpt lat="45.3547561727464199066162109375" lon="-70.8140766061842441558837890625">
        <ele>662.79998779296875</ele>
        <time>2026-08-21T11:09:32.000Z</time>
        <extensions>
          <ns3:TrackPointExtension>
            <ns3:hr>139</ns3:hr>
            <ns3:cad>53</ns3:cad>
          </ns3:TrackPointExtension>
        </extensions>
      </trkpt>
      <trkpt lat="45.35474427044391632080078125" lon="-70.814062692224979400634765625">
        <ele>663</ele>
        <time>2026-08-21T11:09:33.000Z</time>
        <extensions>
          <ns3:TrackPointExtension>
            <ns3:hr>139</ns3:hr>
            <ns3:cad>53</ns3:cad>
          </ns3:TrackPointExtension>
        </extensions>
      </trkpt>
      <trkpt lat="45.35473211668431758880615234375" lon="-70.81405741162598133087158203125">
        <ele>663</ele>
        <time>2026-08-21T11:09:34.000Z</time>
        <extensions>
          <ns3:TrackPointExtension>
            <ns3:hr>139</ns3:hr>
            <ns3:cad>47</ns3:cad>
          </ns3:TrackPointExtension>
        </extensions>
      </trkpt>
      <trkpt lat="45.35472256131470203399658203125" lon="-70.814059674739837646484375">
        <ele>663</ele>
        <time>2026-08-21T11:09:35.000Z</time>
        <extensions>
          <ns3:TrackPointExtension>
            <ns3:hr>138</ns3:hr>
            <ns3:cad>47</ns3:cad>
          </ns3:TrackPointExtension>
        </extensions>
      </trkpt>
      <trkpt lat="45.35471300594508647918701171875" lon="-70.8140534721314907073974609375">
        <ele>663</ele>
        <time>2026-08-21T11:09:36.000Z</time>
        <extensions>
          <ns3:TrackPointExtension>
            <ns3:hr>138</ns3:hr>
            <ns3:cad>47</ns3:cad>
          </ns3:TrackPointExtension>
        </extensions>
      </trkpt>
      <trkpt lat="45.35470143891870975494384765625" lon="-70.81404559314250946044921875">
        <ele>663.20001220703125</ele>
        <time>2026-08-21T11:09:37.000Z</time>
        <extensions>
          <ns3:TrackPointExtension>
            <ns3:hr>138</ns3:hr>
            <ns3:cad>47</ns3:cad>
          </ns3:TrackPointExtension>
        </extensions>
      </trkpt>
      <trkpt lat="45.35468668676912784576416015625" lon="-70.81403964199125766754150390625">
        <ele>663.4000244140625</ele>
        <time>2026-08-21T11:09:38.000Z</time>
        <extensions>
          <ns3:TrackPointExtension>
            <ns3:hr>138</ns3:hr>
            <ns3:cad>47</ns3:cad>
          </ns3:TrackPointExtension>
        </extensions>
      </trkpt>
      <trkpt lat="45.3546750359237194061279296875" lon="-70.8140360377728939056396484375">
        <ele>663.4000244140625</ele>
        <time>2026-08-21T11:09:39.000Z</time>
        <extensions>
          <ns3:TrackPointExtension>
            <ns3:hr>138</ns3:hr>
            <ns3:cad>48</ns3:cad>
          </ns3:TrackPointExtension>
        </extensions>
      </trkpt>
      <trkpt lat="45.35466380417346954345703125" lon="-70.81403218209743499755859375">
        <ele>663.5999755859375</ele>
        <time>2026-08-21T11:09:40.000Z</time>
        <extensions>
          <ns3:TrackPointExtension>
            <ns3:hr>138</ns3:hr>
            <ns3:cad>48</ns3:cad>
          </ns3:TrackPointExtension>
        </extensions>
      </trkpt>
      <trkpt lat="45.3546498902142047882080078125" lon="-70.81402488984167575836181640625">
        <ele>663.79998779296875</ele>
        <time>2026-08-21T11:09:41.000Z</time>
        <extensions>
          <ns3:TrackPointExtension>
            <ns3:hr>138</ns3:hr>
            <ns3:cad>49</ns3:cad>
          </ns3:TrackPointExtension>
        </extensions>
      </trkpt>
      <trkpt lat="45.35464125685393810272216796875" lon="-70.81401919014751911163330078125">
        <ele>663.79998779296875</ele>
        <time>2026-08-21T11:09:42.000Z</time>
        <extensions>
          <ns3:TrackPointExtension>
            <ns3:hr>138</ns3:hr>
            <ns3:cad>49</ns3:cad>
          </ns3:TrackPointExtension>
        </extensions>
      </trkpt>
      <trkpt lat="45.35463438369333744049072265625" lon="-70.8140139095485210418701171875">
        <ele>664</ele>
        <time>2026-08-21T11:09:43.000Z</time>
        <extensions>
          <ns3:TrackPointExtension>
            <ns3:hr>137</ns3:hr>
            <ns3:cad>49</ns3:cad>
          </ns3:TrackPointExtension>
        </extensions>
      </trkpt>
      <trkpt lat="45.35462952218949794769287109375" lon="-70.8140073716640472412109375">
        <ele>664.20001220703125</ele>
        <time>2026-08-21T11:09:44.000Z</time>
        <extensions>
          <ns3:TrackPointExtension>
            <ns3:hr>137</ns3:hr>
            <ns3:cad>49</ns3:cad>
          </ns3:TrackPointExtension>
        </extensions>
      </trkpt>
      <trkpt lat="45.3546267561614513397216796875" lon="-70.814002342522144317626953125">
        <ele>664.4000244140625</ele>
        <time>2026-08-21T11:09:45.000Z</time>
        <extensions>
          <ns3:TrackPointExtension>
            <ns3:hr>137</ns3:hr>
            <ns3:cad>49</ns3:cad>
          </ns3:TrackPointExtension>
        </extensions>
      </trkpt>
      <trkpt lat="45.35462181083858013153076171875" lon="-70.81400267779827117919921875">
        <ele>664.5999755859375</ele>
        <time>2026-08-21T11:09:46.000Z</time>
        <extensions>
          <ns3:TrackPointExtension>
            <ns3:hr>137</ns3:hr>
            <ns3:cad>45</ns3:cad>
          </ns3:TrackPointExtension>
        </extensions>
      </trkpt>
      <trkpt lat="45.35461326129734516143798828125" lon="-70.81400536000728607177734375">
        <ele>665</ele>
        <time>2026-08-21T11:09:47.000Z</time>
        <extensions>
          <ns3:TrackPointExtension>
            <ns3:hr>136</ns3:hr>
            <ns3:cad>45</ns3:cad>
          </ns3:TrackPointExtension>
        </extensions>
      </trkpt>
      <trkpt lat="45.35460789687931537628173828125" lon="-70.814004354178905487060546875">
        <ele>665.4000244140625</ele>
        <time>2026-08-21T11:09:48.000Z</time>
        <extensions>
          <ns3:TrackPointExtension>
            <ns3:hr>136</ns3:hr>
            <ns3:cad>0</ns3:cad>
          </ns3:TrackPointExtension>
        </extensions>
      </trkpt>
      <trkpt lat="45.35460077226161956787109375" lon="-70.8140011690557003021240234375">
        <ele>665.5999755859375</ele>
        <time>2026-08-21T11:09:49.000Z</time>
        <extensions>
          <ns3:TrackPointExtension>
            <ns3:hr>136</ns3:hr>
            <ns3:cad>0</ns3:cad>
          </ns3:TrackPointExtension>
        </extensions>
      </trkpt>
      <trkpt lat="45.3545975871384143829345703125" lon="-70.81400158815085887908935546875">
        <ele>665.79998779296875</ele>
        <time>2026-08-21T11:09:50.000Z</time>
        <extensions>
          <ns3:TrackPointExtension>
            <ns3:hr>136</ns3:hr>
            <ns3:cad>0</ns3:cad>
          </ns3:TrackPointExtension>
        </extensions>
      </trkpt>
      <trkpt lat="45.354588367044925689697265625" lon="-70.8139971457421779632568359375">
        <ele>666</ele>
        <time>2026-08-21T11:09:51.000Z</time>
        <extensions>
          <ns3:TrackPointExtension>
            <ns3:hr>137</ns3:hr>
            <ns3:cad>45</ns3:cad>
          </ns3:TrackPointExtension>
        </extensions>
      </trkpt>
      <trkpt lat="45.3545920550823211669921875" lon="-70.8139904402196407318115234375">
        <ele>666</ele>
        <time>2026-08-21T11:09:52.000Z</time>
        <extensions>
          <ns3:TrackPointExtension>
            <ns3:hr>137</ns3:hr>
            <ns3:cad>45</ns3:cad>
          </ns3:TrackPointExtension>
        </extensions>
      </trkpt>
      <trkpt lat="45.354592390358448028564453125" lon="-70.8139803819358348846435546875">
        <ele>666.20001220703125</ele>
        <time>2026-08-21T11:09:53.000Z</time>
        <extensions>
          <ns3:TrackPointExtension>
            <ns3:hr>138</ns3:hr>
            <ns3:cad>45</ns3:cad>
          </ns3:TrackPointExtension>
        </extensions>
      </trkpt>
      <trkpt lat="45.35458627156913280487060546875" lon="-70.81396822817623615264892578125">
        <ele>666.4000244140625</ele>
        <time>2026-08-21T11:09:54.000Z</time>
        <extensions>
          <ns3:TrackPointExtension>
            <ns3:hr>138</ns3:hr>
            <ns3:cad>45</ns3:cad>
          </ns3:TrackPointExtension>
        </extensions>
      </trkpt>
      <trkpt lat="45.35458174534142017364501953125" lon="-70.8139592595398426055908203125">
        <ele>666.5999755859375</ele>
        <time>2026-08-21T11:09:55.000Z</time>
        <extensions>
          <ns3:TrackPointExtension>
            <ns3:hr>138</ns3:hr>
            <ns3:cad>45</ns3:cad>
          </ns3:TrackPointExtension>
        </extensions>
      </trkpt>
      <trkpt lat="45.35457260906696319580078125" lon="-70.81394894979894161224365234375">
        <ele>666.79998779296875</ele>
        <time>2026-08-21T11:09:56.000Z</time>
        <extensions>
          <ns3:TrackPointExtension>
            <ns3:hr>138</ns3:hr>
            <ns3:cad>0</ns3:cad>
          </ns3:TrackPointExtension>
        </extensions>
      </trkpt>
      <trkpt lat="45.35456456243991851806640625" lon="-70.81394073553383350372314453125">
        <ele>667</ele>
        <time>2026-08-21T11:09:57.000Z</time>
        <extensions>
          <ns3:TrackPointExtension>
            <ns3:hr>137</ns3:hr>
            <ns3:cad>0</ns3:cad>
          </ns3:TrackPointExtension>
        </extensions>
      </trkpt>
      <trkpt lat="45.35455592907965183258056640625" lon="-70.8139364607632160186767578125">
        <ele>667.20001220703125</ele>
        <time>2026-08-21T11:09:58.000Z</time>
        <extensions>
          <ns3:TrackPointExtension>
            <ns3:hr>137</ns3:hr>
            <ns3:cad>0</ns3:cad>
          </ns3:TrackPointExtension>
        </extensions>
      </trkpt>
      <trkpt lat="45.35454704426229000091552734375" lon="-70.81393470056354999542236328125">
        <ele>667.4000244140625</ele>
        <time>2026-08-21T11:09:59.000Z</time>
        <extensions>
          <ns3:TrackPointExtension>
            <ns3:hr>135</ns3:hr>
            <ns3:cad>0</ns3:cad>
          </ns3:TrackPointExtension>
        </extensions>
      </trkpt>
      <trkpt lat="45.35454578697681427001953125" lon="-70.81393218599259853363037109375">
        <ele>667.5999755859375</ele>
        <time>2026-08-21T11:10:00.000Z</time>
        <extensions>
          <ns3:TrackPointExtension>
            <ns3:hr>135</ns3:hr>
            <ns3:cad>0</ns3:cad>
          </ns3:TrackPointExtension>
        </extensions>
      </trkpt>
      <trkpt lat="45.35453882999718189239501953125" lon="-70.8139322698116302490234375">
        <ele>667.79998779296875</ele>
        <time>2026-08-21T11:10:01.000Z</time>
        <extensions>
          <ns3:TrackPointExtension>
            <ns3:hr>136</ns3:hr>
            <ns3:cad>45</ns3:cad>
          </ns3:TrackPointExtension>
        </extensions>
      </trkpt>
      <trkpt lat="45.3545281849801540374755859375" lon="-70.813931934535503387451171875">
        <ele>668</ele>
        <time>2026-08-21T11:10:02.000Z</time>
        <extensions>
          <ns3:TrackPointExtension>
            <ns3:hr>136</ns3:hr>
            <ns3:cad>45</ns3:cad>
          </ns3:TrackPointExtension>
        </extensions>
      </trkpt>
      <trkpt lat="45.354520641267299652099609375" lon="-70.81393294036388397216796875">
        <ele>668.20001220703125</ele>
        <time>2026-08-21T11:10:03.000Z</time>
        <extensions>
          <ns3:TrackPointExtension>
            <ns3:hr>135</ns3:hr>
            <ns3:cad>45</ns3:cad>
          </ns3:TrackPointExtension>
        </extensions>
      </trkpt>
      <trkpt lat="45.354509912431240081787109375" lon="-70.81393285654485225677490234375">
        <ele>668.5999755859375</ele>
        <time>2026-08-21T11:10:04.000Z</time>
        <extensions>
          <ns3:TrackPointExtension>
            <ns3:hr>135</ns3:hr>
            <ns3:cad>45</ns3:cad>
          </ns3:TrackPointExtension>
        </extensions>
      </trkpt>
      <trkpt lat="45.35450178198516368865966796875" lon="-70.8139267377555370330810546875">
        <ele>668.79998779296875</ele>
        <time>2026-08-21T11:10:05.000Z</time>
        <extensions>
          <ns3:TrackPointExtension>
            <ns3:hr>135</ns3:hr>
            <ns3:cad>45</ns3:cad>
          </ns3:TrackPointExtension>
        </extensions>
      </trkpt>
      <trkpt lat="45.3544949926435947418212890625" lon="-70.81392447464168071746826171875">
        <ele>669</ele>
        <time>2026-08-21T11:10:06.000Z</time>
        <extensions>
          <ns3:TrackPointExtension>
            <ns3:hr>135</ns3:hr>
            <ns3:cad>45</ns3:cad>
          </ns3:TrackPointExtension>
        </extensions>
      </trkpt>
      <trkpt lat="45.35448753274977207183837890625" lon="-70.81392363645136356353759765625">
        <ele>669.4000244140625</ele>
        <time>2026-08-21T11:10:07.000Z</time>
        <extensions>
          <ns3:TrackPointExtension>
            <ns3:hr>135</ns3:hr>
            <ns3:cad>45</ns3:cad>
          </ns3:TrackPointExtension>
        </extensions>
      </trkpt>
      <trkpt lat="45.35449055023491382598876953125" lon="-70.8139250613749027252197265625">
        <ele>669.5999755859375</ele>
        <time>2026-08-21T11:10:08.000Z</time>
        <extensions>
          <ns3:TrackPointExtension>
            <ns3:hr>135</ns3:hr>
            <ns3:cad>45</ns3:cad>
          </ns3:TrackPointExtension>
        </extensions>
      </trkpt>
      <trkpt lat="45.3544862754642963409423828125" lon="-70.81392397172749042510986328125">
        <ele>669.79998779296875</ele>
        <time>2026-08-21T11:10:09.000Z</time>
        <extensions>
          <ns3:TrackPointExtension>
            <ns3:hr>136</ns3:hr>
            <ns3:cad>45</ns3:cad>
          </ns3:TrackPointExtension>
        </extensions>
      </trkpt>
      <trkpt lat="45.35448334179818630218505859375" lon="-70.813921205699443817138671875">
        <ele>670</ele>
        <time>2026-08-21T11:10:10.000Z</time>
        <extensions>
          <ns3:TrackPointExtension>
            <ns3:hr>136</ns3:hr>
            <ns3:cad>45</ns3:cad>
          </ns3:TrackPointExtension>
        </extensions>
      </trkpt>
      <trkpt lat="45.35448116250336170196533203125" lon="-70.81391550600528717041015625">
        <ele>670.20001220703125</ele>
        <time>2026-08-21T11:10:11.000Z</time>
        <extensions>
          <ns3:TrackPointExtension>
            <ns3:hr>136</ns3:hr>
            <ns3:cad>45</ns3:cad>
          </ns3:TrackPointExtension>
        </extensions>
      </trkpt>
      <trkpt lat="45.3544765524566173553466796875" lon="-70.81391089595854282379150390625">
        <ele>670.4000244140625</ele>
        <time>2026-08-21T11:10:12.000Z</time>
        <extensions>
          <ns3:TrackPointExtension>
            <ns3:hr>136</ns3:hr>
            <ns3:cad>0</ns3:cad>
          </ns3:TrackPointExtension>
        </extensions>
      </trkpt>
      <trkpt lat="45.35447194240987300872802734375" lon="-70.81390678882598876953125">
        <ele>670.5999755859375</ele>
        <time>2026-08-21T11:10:13.000Z</time>
        <extensions>
          <ns3:TrackPointExtension>
            <ns3:hr>136</ns3:hr>
            <ns3:cad>0</ns3:cad>
          </ns3:TrackPointExtension>
        </extensions>
      </trkpt>
      <trkpt lat="45.3544661588966846466064453125" lon="-70.81390486098825931549072265625">
        <ele>670.79998779296875</ele>
        <time>2026-08-21T11:10:14.000Z</time>
        <extensions>
          <ns3:TrackPointExtension>
            <ns3:hr>136</ns3:hr>
            <ns3:cad>0</ns3:cad>
          </ns3:TrackPointExtension>
        </extensions>
      </trkpt>
      <trkpt lat="45.3544606268405914306640625" lon="-70.81390469335019588470458984375">
        <ele>671</ele>
        <time>2026-08-21T11:10:15.000Z</time>
        <extensions>
          <ns3:TrackPointExtension>
            <ns3:hr>137</ns3:hr>
            <ns3:cad>0</ns3:cad>
          </ns3:TrackPointExtension>
        </extensions>
      </trkpt>
      <trkpt lat="45.35445685498416423797607421875" lon="-70.81389765255153179168701171875">
        <ele>671.20001220703125</ele>
        <time>2026-08-21T11:10:16.000Z</time>
        <extensions>
          <ns3:TrackPointExtension>
            <ns3:hr>137</ns3:hr>
            <ns3:cad>0</ns3:cad>
          </ns3:TrackPointExtension>
        </extensions>
      </trkpt>
      <trkpt lat="45.354451574385166168212890625" lon="-70.81389714963734149932861328125">
        <ele>671.4000244140625</ele>
        <time>2026-08-21T11:10:17.000Z</time>
        <extensions>
          <ns3:TrackPointExtension>
            <ns3:hr>137</ns3:hr>
            <ns3:cad>0</ns3:cad>
          </ns3:TrackPointExtension>
        </extensions>
      </trkpt>
      <trkpt lat="45.3544463776051998138427734375" lon="-70.8138952217996120452880859375">
        <ele>671.5999755859375</ele>
        <time>2026-08-21T11:10:18.000Z</time>
        <extensions>
          <ns3:TrackPointExtension>
            <ns3:hr>137</ns3:hr>
            <ns3:cad>0</ns3:cad>
          </ns3:TrackPointExtension>
        </extensions>
      </trkpt>
      <trkpt lat="45.3544396720826625823974609375" lon="-70.81388843245804309844970703125">
        <ele>671.79998779296875</ele>
        <time>2026-08-21T11:10:19.000Z</time>
        <extensions>
          <ns3:TrackPointExtension>
            <ns3:hr>137</ns3:hr>
            <ns3:cad>0</ns3:cad>
          </ns3:TrackPointExtension>
        </extensions>
      </trkpt>
      <trkpt lat="45.354438833892345428466796875" lon="-70.81388725899159908294677734375">
        <ele>672</ele>
        <time>2026-08-21T11:10:20.000Z</time>
        <extensions>
          <ns3:TrackPointExtension>
            <ns3:hr>138</ns3:hr>
            <ns3:cad>0</ns3:cad>
          </ns3:TrackPointExtension>
        </extensions>
      </trkpt>
      <trkpt lat="45.35443690605461597442626953125" lon="-70.8138878457248210906982421875">
        <ele>672.20001220703125</ele>
        <time>2026-08-21T11:10:21.000Z</time>
        <extensions>
          <ns3:TrackPointExtension>
            <ns3:hr>138</ns3:hr>
            <ns3:cad>0</ns3:cad>
          </ns3:TrackPointExtension>
        </extensions>
      </trkpt>
      <trkpt lat="45.35443724133074283599853515625" lon="-70.81388306804001331329345703125">
        <ele>672.4000244140625</ele>
        <time>2026-08-21T11:10:22.000Z</time>
        <extensions>
          <ns3:TrackPointExtension>
            <ns3:hr>138</ns3:hr>
            <ns3:cad>0</ns3:cad>
          </ns3:TrackPointExtension>
        </extensions>
      </trkpt>
      <trkpt lat="45.354434810578823089599609375" lon="-70.81388591788709163665771484375">
        <ele>672.5999755859375</ele>
        <time>2026-08-21T11:10:23.000Z</time>
        <extensions>
          <ns3:TrackPointExtension>
            <ns3:hr>138</ns3:hr>
            <ns3:cad>0</ns3:cad>
          </ns3:TrackPointExtension>
        </extensions>
      </trkpt>
      <trkpt lat="45.35443313419818878173828125" lon="-70.81388826481997966766357421875">
        <ele>672.79998779296875</ele>
        <time>2026-08-21T11:10:24.000Z</time>
        <extensions>
          <ns3:TrackPointExtension>
            <ns3:hr>137</ns3:hr>
            <ns3:cad>0</ns3:cad>
          </ns3:TrackPointExtension>
        </extensions>
      </trkpt>
      <trkpt lat="45.3544198907911777496337890625" lon="-70.81388189457356929779052734375">
        <ele>673</ele>
        <time>2026-08-21T11:10:25.000Z</time>
        <extensions>
          <ns3:TrackPointExtension>
            <ns3:hr>138</ns3:hr>
            <ns3:cad>0</ns3:cad>
          </ns3:TrackPointExtension>
        </extensions>
      </trkpt>
      <trkpt lat="45.35441226325929164886474609375" lon="-70.81387854181230068206787109375">
        <ele>673.20001220703125</ele>
        <time>2026-08-21T11:10:26.000Z</time>
        <extensions>
          <ns3:TrackPointExtension>
            <ns3:hr>138</ns3:hr>
            <ns3:cad>0</ns3:cad>
          </ns3:TrackPointExtension>
        </extensions>
      </trkpt>
      <trkpt lat="45.35440497100353240966796875" lon="-70.813874267041683197021484375">
        <ele>673.5999755859375</ele>
        <time>2026-08-21T11:10:27.000Z</time>
        <extensions>
          <ns3:TrackPointExtension>
            <ns3:hr>137</ns3:hr>
            <ns3:cad>0</ns3:cad>
          </ns3:TrackPointExtension>
        </extensions>
      </trkpt>
      <trkpt lat="45.35440019331872463226318359375" lon="-70.813871584832668304443359375">
        <ele>673.79998779296875</ele>
        <time>2026-08-21T11:10:28.000Z</time>
        <extensions>
          <ns3:TrackPointExtension>
            <ns3:hr>138</ns3:hr>
            <ns3:cad>0</ns3:cad>
          </ns3:TrackPointExtension>
        </extensions>
      </trkpt>
      <trkpt lat="45.35439466126263141632080078125" lon="-70.8138683997094631195068359375">
        <ele>674</ele>
        <time>2026-08-21T11:10:29.000Z</time>
        <extensions>
          <ns3:TrackPointExtension>
            <ns3:hr>138</ns3:hr>
            <ns3:cad>0</ns3:cad>
          </ns3:TrackPointExtension>
        </extensions>
      </trkpt>
      <trkpt lat="45.35438979975879192352294921875" lon="-70.81386647187173366546630859375">
        <ele>674.20001220703125</ele>
        <time>2026-08-21T11:10:30.000Z</time>
        <extensions>
          <ns3:TrackPointExtension>
            <ns3:hr>137</ns3:hr>
            <ns3:cad>0</ns3:cad>
          </ns3:TrackPointExtension>
        </extensions>
      </trkpt>
      <trkpt lat="45.35438527353107929229736328125" lon="-70.81386446021497249603271484375">
        <ele>674.4000244140625</ele>
        <time>2026-08-21T11:10:31.000Z</time>
        <extensions>
          <ns3:TrackPointExtension>
            <ns3:hr>138</ns3:hr>
            <ns3:cad>0</ns3:cad>
          </ns3:TrackPointExtension>
        </extensions>
      </trkpt>
      <trkpt lat="45.3543833456933498382568359375" lon="-70.8138583414256572723388671875">
        <ele>674.5999755859375</ele>
        <time>2026-08-21T11:10:32.000Z</time>
        <extensions>
          <ns3:TrackPointExtension>
            <ns3:hr>138</ns3:hr>
            <ns3:cad>0</ns3:cad>
          </ns3:TrackPointExtension>
        </extensions>
      </trkpt>
      <trkpt lat="45.35437689162790775299072265625" lon="-70.81385649740695953369140625">
        <ele>674.79998779296875</ele>
        <time>2026-08-21T11:10:33.000Z</time>
        <extensions>
          <ns3:TrackPointExtension>
            <ns3:hr>138</ns3:hr>
            <ns3:cad>0</ns3:cad>
          </ns3:TrackPointExtension>
        </extensions>
      </trkpt>
      <trkpt lat="45.35437169484794139862060546875" lon="-70.81385917961597442626953125">
        <ele>675</ele>
        <time>2026-08-21T11:10:34.000Z</time>
        <extensions>
          <ns3:TrackPointExtension>
            <ns3:hr>137</ns3:hr>
            <ns3:cad>0</ns3:cad>
          </ns3:TrackPointExtension>
        </extensions>
      </trkpt>
      <trkpt lat="45.3543649055063724517822265625" lon="-70.81386228092014789581298828125">
        <ele>675.20001220703125</ele>
        <time>2026-08-21T11:10:35.000Z</time>
        <extensions>
          <ns3:TrackPointExtension>
            <ns3:hr>138</ns3:hr>
            <ns3:cad>0</ns3:cad>
          </ns3:TrackPointExtension>
        </extensions>
      </trkpt>
      <trkpt lat="45.35435937345027923583984375" lon="-70.813861526548862457275390625">
        <ele>675.4000244140625</ele>
        <time>2026-08-21T11:10:36.000Z</time>
        <extensions>
          <ns3:TrackPointExtension>
            <ns3:hr>138</ns3:hr>
            <ns3:cad>0</ns3:cad>
          </ns3:TrackPointExtension>
        </extensions>
      </trkpt>
      <trkpt lat="45.35435325466096401214599609375" lon="-70.81386043690145015716552734375">
        <ele>675.5999755859375</ele>
        <time>2026-08-21T11:10:37.000Z</time>
        <extensions>
          <ns3:TrackPointExtension>
            <ns3:hr>138</ns3:hr>
            <ns3:cad>0</ns3:cad>
          </ns3:TrackPointExtension>
        </extensions>
      </trkpt>
      <trkpt lat="45.35435090772807598114013671875" lon="-70.81385943107306957244873046875">
        <ele>676</ele>
        <time>2026-08-21T11:10:38.000Z</time>
        <extensions>
          <ns3:TrackPointExtension>
            <ns3:hr>137</ns3:hr>
            <ns3:cad>0</ns3:cad>
          </ns3:TrackPointExtension>
        </extensions>
      </trkpt>
      <trkpt lat="45.35434051416814327239990234375" lon="-70.813856162130832672119140625">
        <ele>676.20001220703125</ele>
        <time>2026-08-21T11:10:39.000Z</time>
        <extensions>
          <ns3:TrackPointExtension>
            <ns3:hr>138</ns3:hr>
            <ns3:cad>76</ns3:cad>
          </ns3:TrackPointExtension>
        </extensions>
      </trkpt>
      <trkpt lat="45.3543310426175594329833984375" lon="-70.8138518035411834716796875">
        <ele>676.4000244140625</ele>
        <time>2026-08-21T11:10:40.000Z</time>
        <extensions>
          <ns3:TrackPointExtension>
            <ns3:hr>138</ns3:hr>
            <ns3:cad>76</ns3:cad>
          </ns3:TrackPointExtension>
        </extensions>
      </trkpt>
      <trkpt lat="45.35432425327599048614501953125" lon="-70.81384786404669284820556640625">
        <ele>676.5999755859375</ele>
        <time>2026-08-21T11:10:41.000Z</time>
        <extensions>
          <ns3:TrackPointExtension>
            <ns3:hr>138</ns3:hr>
            <ns3:cad>0</ns3:cad>
          </ns3:TrackPointExtension>
        </extensions>
      </trkpt>
      <trkpt lat="45.35431520082056522369384765625" lon="-70.81384618766605854034423828125">
        <ele>676.79998779296875</ele>
        <time>2026-08-21T11:10:42.000Z</time>
        <extensions>
          <ns3:TrackPointExtension>
            <ns3:hr>139</ns3:hr>
            <ns3:cad>0</ns3:cad>
          </ns3:TrackPointExtension>
        </extensions>
      </trkpt>
      <trkpt lat="45.35430430434644222259521484375" lon="-70.81384618766605854034423828125">
        <ele>677</ele>
        <time>2026-08-21T11:10:43.000Z</time>
        <extensions>
          <ns3:TrackPointExtension>
            <ns3:hr>140</ns3:hr>
            <ns3:cad>0</ns3:cad>
          </ns3:TrackPointExtension>
        </extensions>
      </trkpt>
      <trkpt lat="45.354299359023571014404296875" lon="-70.81384685821831226348876953125">
        <ele>677.4000244140625</ele>
        <time>2026-08-21T11:10:44.000Z</time>
        <extensions>
          <ns3:TrackPointExtension>
            <ns3:hr>140</ns3:hr>
            <ns3:cad>0</ns3:cad>
          </ns3:TrackPointExtension>
        </extensions>
      </trkpt>
      <trkpt lat="45.35429609008133411407470703125" lon="-70.8138452656567096710205078125">
        <ele>677.5999755859375</ele>
        <time>2026-08-21T11:10:45.000Z</time>
        <extensions>
          <ns3:TrackPointExtension>
            <ns3:hr>141</ns3:hr>
            <ns3:cad>0</ns3:cad>
          </ns3:TrackPointExtension>
        </extensions>
      </trkpt>
      <trkpt lat="45.35429223440587520599365234375" lon="-70.81384132616221904754638671875">
        <ele>677.79998779296875</ele>
        <time>2026-08-21T11:10:46.000Z</time>
        <extensions>
          <ns3:TrackPointExtension>
            <ns3:hr>141</ns3:hr>
            <ns3:cad>0</ns3:cad>
          </ns3:TrackPointExtension>
        </extensions>
      </trkpt>
      <trkpt lat="45.354279242455959320068359375" lon="-70.813841409981250762939453125">
        <ele>678</ele>
        <time>2026-08-21T11:10:47.000Z</time>
        <extensions>
          <ns3:TrackPointExtension>
            <ns3:hr>142</ns3:hr>
            <ns3:cad>0</ns3:cad>
          </ns3:TrackPointExtension>
        </extensions>
      </trkpt>
      <trkpt lat="45.3542757220566272735595703125" lon="-70.81384451128542423248291015625">
        <ele>678.20001220703125</ele>
        <time>2026-08-21T11:10:48.000Z</time>
        <extensions>
          <ns3:TrackPointExtension>
            <ns3:hr>142</ns3:hr>
            <ns3:cad>0</ns3:cad>
          </ns3:TrackPointExtension>
        </extensions>
      </trkpt>
      <trkpt lat="45.35427077673375606536865234375" lon="-70.81384602002799510955810546875">
        <ele>678.4000244140625</ele>
        <time>2026-08-21T11:10:49.000Z</time>
        <extensions>
          <ns3:TrackPointExtension>
            <ns3:hr>142</ns3:hr>
            <ns3:cad>42</ns3:cad>
          </ns3:TrackPointExtension>
        </extensions>
      </trkpt>
      <trkpt lat="45.35426591522991657257080078125" lon="-70.8138445951044559478759765625">
        <ele>678.5999755859375</ele>
        <time>2026-08-21T11:10:50.000Z</time>
        <extensions>
          <ns3:TrackPointExtension>
            <ns3:hr>142</ns3:hr>
            <ns3:cad>42</ns3:cad>
          </ns3:TrackPointExtension>
        </extensions>
      </trkpt>
      <trkpt lat="45.3542629815638065338134765625" lon="-70.81384115852415561676025390625">
        <ele>678.79998779296875</ele>
        <time>2026-08-21T11:10:51.000Z</time>
        <extensions>
          <ns3:TrackPointExtension>
            <ns3:hr>142</ns3:hr>
            <ns3:cad>42</ns3:cad>
          </ns3:TrackPointExtension>
        </extensions>
      </trkpt>
      <trkpt lat="45.354259796440601348876953125" lon="-70.81383529119193553924560546875">
        <ele>679.20001220703125</ele>
        <time>2026-08-21T11:10:52.000Z</time>
        <extensions>
          <ns3:TrackPointExtension>
            <ns3:hr>142</ns3:hr>
            <ns3:cad>42</ns3:cad>
          </ns3:TrackPointExtension>
        </extensions>
      </trkpt>
      <trkpt lat="45.35425351001322269439697265625" lon="-70.81382472999393939971923828125">
        <ele>679.4000244140625</ele>
        <time>2026-08-21T11:10:53.000Z</time>
        <extensions>
          <ns3:TrackPointExtension>
            <ns3:hr>142</ns3:hr>
            <ns3:cad>42</ns3:cad>
          </ns3:TrackPointExtension>
        </extensions>
      </trkpt>
      <trkpt lat="45.35424445755779743194580078125" lon="-70.81381492316722869873046875">
        <ele>679.5999755859375</ele>
        <time>2026-08-21T11:10:54.000Z</time>
        <extensions>
          <ns3:TrackPointExtension>
            <ns3:hr>142</ns3:hr>
            <ns3:cad>42</ns3:cad>
          </ns3:TrackPointExtension>
        </extensions>
      </trkpt>
      <trkpt lat="45.35423037596046924591064453125" lon="-70.81381634809076786041259765625">
        <ele>679.79998779296875</ele>
        <time>2026-08-21T11:10:55.000Z</time>
        <extensions>
          <ns3:TrackPointExtension>
            <ns3:hr>143</ns3:hr>
            <ns3:cad>42</ns3:cad>
          </ns3:TrackPointExtension>
        </extensions>
      </trkpt>
      <trkpt lat="45.3542227484285831451416015625" lon="-70.81381651572883129119873046875">
        <ele>680.20001220703125</ele>
        <time>2026-08-21T11:10:56.000Z</time>
        <extensions>
          <ns3:TrackPointExtension>
            <ns3:hr>143</ns3:hr>
            <ns3:cad>42</ns3:cad>
          </ns3:TrackPointExtension>
        </extensions>
      </trkpt>
      <trkpt lat="45.3542160429060459136962890625" lon="-70.813809894025325775146484375">
        <ele>680.4000244140625</ele>
        <time>2026-08-21T11:10:57.000Z</time>
        <extensions>
          <ns3:TrackPointExtension>
            <ns3:hr>143</ns3:hr>
            <ns3:cad>42</ns3:cad>
          </ns3:TrackPointExtension>
        </extensions>
      </trkpt>
      <trkpt lat="45.35420640371739864349365234375" lon="-70.8138040266931056976318359375">
        <ele>680.5999755859375</ele>
        <time>2026-08-21T11:10:58.000Z</time>
        <extensions>
          <ns3:TrackPointExtension>
            <ns3:hr>144</ns3:hr>
            <ns3:cad>42</ns3:cad>
          </ns3:TrackPointExtension>
        </extensions>
      </trkpt>
      <trkpt lat="45.3541952557861804962158203125" lon="-70.8138033561408519744873046875">
        <ele>680.79998779296875</ele>
        <time>2026-08-21T11:10:59.000Z</time>
        <extensions>
          <ns3:TrackPointExtension>
            <ns3:hr>144</ns3:hr>
            <ns3:cad>42</ns3:cad>
          </ns3:TrackPointExtension>
        </extensions>
      </trkpt>
      <trkpt lat="45.35418829880654811859130859375" lon="-70.813800506293773651123046875">
        <ele>681</ele>
        <time>2026-08-21T11:11:00.000Z</time>
        <extensions>
          <ns3:TrackPointExtension>
            <ns3:hr>144</ns3:hr>
            <ns3:cad>46</ns3:cad>
          </ns3:TrackPointExtension>
        </extensions>
      </trkpt>
      <trkpt lat="45.35417522303760051727294921875" lon="-70.81379505805671215057373046875">
        <ele>681.20001220703125</ele>
        <time>2026-08-21T11:11:01.000Z</time>
        <extensions>
          <ns3:TrackPointExtension>
            <ns3:hr>144</ns3:hr>
            <ns3:cad>46</ns3:cad>
          </ns3:TrackPointExtension>
        </extensions>
      </trkpt>
      <trkpt lat="45.35416357219219207763671875" lon="-70.81378835253417491912841796875">
        <ele>681.4000244140625</ele>
        <time>2026-08-21T11:11:02.000Z</time>
        <extensions>
          <ns3:TrackPointExtension>
            <ns3:hr>145</ns3:hr>
            <ns3:cad>46</ns3:cad>
          </ns3:TrackPointExtension>
        </extensions>
      </trkpt>
      <trkpt lat="45.35415510646998882293701171875" lon="-70.81378483213484287261962890625">
        <ele>681.5999755859375</ele>
        <time>2026-08-21T11:11:03.000Z</time>
        <extensions>
          <ns3:TrackPointExtension>
            <ns3:hr>144</ns3:hr>
            <ns3:cad>46</ns3:cad>
          </ns3:TrackPointExtension>
        </extensions>
      </trkpt>
      <trkpt lat="45.3541452996432781219482421875" lon="-70.81378030590713024139404296875">
        <ele>681.79998779296875</ele>
        <time>2026-08-21T11:11:04.000Z</time>
        <extensions>
          <ns3:TrackPointExtension>
            <ns3:hr>145</ns3:hr>
            <ns3:cad>46</ns3:cad>
          </ns3:TrackPointExtension>
        </extensions>
      </trkpt>
      <trkpt lat="45.3541395999491214752197265625" lon="-70.81377393566071987152099609375">
        <ele>681.79998779296875</ele>
        <time>2026-08-21T11:11:05.000Z</time>
        <extensions>
          <ns3:TrackPointExtension>
            <ns3:hr>146</ns3:hr>
            <ns3:cad>46</ns3:cad>
          </ns3:TrackPointExtension>
        </extensions>
      </trkpt>
      <trkpt lat="45.3541362471878528594970703125" lon="-70.813769660890102386474609375">
        <ele>682</ele>
        <time>2026-08-21T11:11:06.000Z</time>
        <extensions>
          <ns3:TrackPointExtension>
            <ns3:hr>146</ns3:hr>
            <ns3:cad>45</ns3:cad>
          </ns3:TrackPointExtension>
        </extensions>
      </trkpt>
      <trkpt lat="45.3541265241801738739013671875" lon="-70.81376538611948490142822265625">
        <ele>682.20001220703125</ele>
        <time>2026-08-21T11:11:07.000Z</time>
        <extensions>
          <ns3:TrackPointExtension>
            <ns3:hr>146</ns3:hr>
            <ns3:cad>45</ns3:cad>
          </ns3:TrackPointExtension>
        </extensions>
      </trkpt>
      <trkpt lat="45.354116298258304595947265625" lon="-70.8137624524533748626708984375">
        <ele>682.20001220703125</ele>
        <time>2026-08-21T11:11:08.000Z</time>
        <extensions>
          <ns3:TrackPointExtension>
            <ns3:hr>146</ns3:hr>
            <ns3:cad>45</ns3:cad>
          </ns3:TrackPointExtension>
        </extensions>
      </trkpt>
      <trkpt lat="45.35410867072641849517822265625" lon="-70.81375683657824993133544921875">
        <ele>682.4000244140625</ele>
        <time>2026-08-21T11:11:09.000Z</time>
        <extensions>
          <ns3:TrackPointExtension>
            <ns3:hr>147</ns3:hr>
            <ns3:cad>45</ns3:cad>
          </ns3:TrackPointExtension>
        </extensions>
      </trkpt>
      <trkpt lat="45.35410330630838871002197265625" lon="-70.81374929286539554595947265625">
        <ele>682.5999755859375</ele>
        <time>2026-08-21T11:11:10.000Z</time>
        <extensions>
          <ns3:TrackPointExtension>
            <ns3:hr>146</ns3:hr>
            <ns3:cad>47</ns3:cad>
          </ns3:TrackPointExtension>
        </extensions>
      </trkpt>
      <trkpt lat="45.3540966846048831939697265625" lon="-70.813738815486431121826171875">
        <ele>682.79998779296875</ele>
        <time>2026-08-21T11:11:11.000Z</time>
        <extensions>
          <ns3:TrackPointExtension>
            <ns3:hr>146</ns3:hr>
            <ns3:cad>47</ns3:cad>
          </ns3:TrackPointExtension>
        </extensions>
      </trkpt>
      <trkpt lat="45.35408771596848964691162109375" lon="-70.8137336187064647674560546875">
        <ele>683</ele>
        <time>2026-08-21T11:11:12.000Z</time>
        <extensions>
          <ns3:TrackPointExtension>
            <ns3:hr>146</ns3:hr>
            <ns3:cad>47</ns3:cad>
          </ns3:TrackPointExtension>
        </extensions>
      </trkpt>
      <trkpt lat="45.3540819324553012847900390625" lon="-70.8137269131839275360107421875">
        <ele>683.4000244140625</ele>
        <time>2026-08-21T11:11:13.000Z</time>
        <extensions>
          <ns3:TrackPointExtension>
            <ns3:hr>146</ns3:hr>
            <ns3:cad>48</ns3:cad>
          </ns3:TrackPointExtension>
        </extensions>
      </trkpt>
      <trkpt lat="45.3540755622088909149169921875" lon="-70.8137203752994537353515625">
        <ele>683.5999755859375</ele>
        <time>2026-08-21T11:11:14.000Z</time>
        <extensions>
          <ns3:TrackPointExtension>
            <ns3:hr>146</ns3:hr>
            <ns3:cad>48</ns3:cad>
          </ns3:TrackPointExtension>
        </extensions>
      </trkpt>
      <trkpt lat="45.35406558774411678314208984375" lon="-70.8137108199298381805419921875">
        <ele>683.79998779296875</ele>
        <time>2026-08-21T11:11:15.000Z</time>
        <extensions>
          <ns3:TrackPointExtension>
            <ns3:hr>146</ns3:hr>
            <ns3:cad>48</ns3:cad>
          </ns3:TrackPointExtension>
        </extensions>
      </trkpt>
      <trkpt lat="45.35405754111707210540771484375" lon="-70.81369933672249317169189453125">
        <ele>684</ele>
        <time>2026-08-21T11:11:16.000Z</time>
        <extensions>
          <ns3:TrackPointExtension>
            <ns3:hr>146</ns3:hr>
            <ns3:cad>48</ns3:cad>
          </ns3:TrackPointExtension>
        </extensions>
      </trkpt>
      <trkpt lat="45.35404915921390056610107421875" lon="-70.8136880211532115936279296875">
        <ele>684.20001220703125</ele>
        <time>2026-08-21T11:11:17.000Z</time>
        <extensions>
          <ns3:TrackPointExtension>
            <ns3:hr>146</ns3:hr>
            <ns3:cad>0</ns3:cad>
          </ns3:TrackPointExtension>
        </extensions>
      </trkpt>
      <trkpt lat="45.35404228605329990386962890625" lon="-70.81367787905037403106689453125">
        <ele>684.4000244140625</ele>
        <time>2026-08-21T11:11:18.000Z</time>
        <extensions>
          <ns3:TrackPointExtension>
            <ns3:hr>146</ns3:hr>
            <ns3:cad>0</ns3:cad>
          </ns3:TrackPointExtension>
        </extensions>
      </trkpt>
      <trkpt lat="45.354032814502716064453125" lon="-70.813673101365566253662109375">
        <ele>684.5999755859375</ele>
        <time>2026-08-21T11:11:19.000Z</time>
        <extensions>
          <ns3:TrackPointExtension>
            <ns3:hr>147</ns3:hr>
            <ns3:cad>0</ns3:cad>
          </ns3:TrackPointExtension>
        </extensions>
      </trkpt>
      <trkpt lat="45.3540175594389438629150390625" lon="-70.81366279162466526031494140625">
        <ele>684.79998779296875</ele>
        <time>2026-08-21T11:11:20.000Z</time>
        <extensions>
          <ns3:TrackPointExtension>
            <ns3:hr>146</ns3:hr>
            <ns3:cad>0</ns3:cad>
          </ns3:TrackPointExtension>
        </extensions>
      </trkpt>
      <trkpt lat="45.3540041483938694000244140625" lon="-70.8136581815779209136962890625">
        <ele>685</ele>
        <time>2026-08-21T11:11:21.000Z</time>
        <extensions>
          <ns3:TrackPointExtension>
            <ns3:hr>146</ns3:hr>
            <ns3:cad>0</ns3:cad>
          </ns3:TrackPointExtension>
        </extensions>
      </trkpt>
      <trkpt lat="45.35399258136749267578125" lon="-70.81364871002733707427978515625">
        <ele>685.20001220703125</ele>
        <time>2026-08-21T11:11:22.000Z</time>
        <extensions>
          <ns3:TrackPointExtension>
            <ns3:hr>147</ns3:hr>
            <ns3:cad>0</ns3:cad>
          </ns3:TrackPointExtension>
        </extensions>
      </trkpt>
      <trkpt lat="45.35398093052208423614501953125" lon="-70.8136394061148166656494140625">
        <ele>685.4000244140625</ele>
        <time>2026-08-21T11:11:23.000Z</time>
        <extensions>
          <ns3:TrackPointExtension>
            <ns3:hr>146</ns3:hr>
            <ns3:cad>0</ns3:cad>
          </ns3:TrackPointExtension>
        </extensions>
      </trkpt>
      <trkpt lat="45.3539709560573101043701171875" lon="-70.813635885715484619140625">
        <ele>685.5999755859375</ele>
        <time>2026-08-21T11:11:24.000Z</time>
        <extensions>
          <ns3:TrackPointExtension>
            <ns3:hr>146</ns3:hr>
            <ns3:cad>0</ns3:cad>
          </ns3:TrackPointExtension>
        </extensions>
      </trkpt>
      <trkpt lat="45.35396114923059940338134765625" lon="-70.8136323653161525726318359375">
        <ele>685.79998779296875</ele>
        <time>2026-08-21T11:11:25.000Z</time>
        <extensions>
          <ns3:TrackPointExtension>
            <ns3:hr>147</ns3:hr>
            <ns3:cad>0</ns3:cad>
          </ns3:TrackPointExtension>
        </extensions>
      </trkpt>
      <trkpt lat="45.35395410843193531036376953125" lon="-70.81362507306039333343505859375">
        <ele>686</ele>
        <time>2026-08-21T11:11:26.000Z</time>
        <extensions>
          <ns3:TrackPointExtension>
            <ns3:hr>147</ns3:hr>
            <ns3:cad>0</ns3:cad>
          </ns3:TrackPointExtension>
        </extensions>
      </trkpt>
      <trkpt lat="45.35394388251006603240966796875" lon="-70.8136186189949512481689453125">
        <ele>686.4000244140625</ele>
        <time>2026-08-21T11:11:27.000Z</time>
        <extensions>
          <ns3:TrackPointExtension>
            <ns3:hr>146</ns3:hr>
            <ns3:cad>49</ns3:cad>
          </ns3:TrackPointExtension>
        </extensions>
      </trkpt>
      <trkpt lat="45.35393784753978252410888671875" lon="-70.81361250020563602447509765625">
        <ele>686.5999755859375</ele>
        <time>2026-08-21T11:11:28.000Z</time>
        <extensions>
          <ns3:TrackPointExtension>
            <ns3:hr>146</ns3:hr>
            <ns3:cad>49</ns3:cad>
          </ns3:TrackPointExtension>
        </extensions>
      </trkpt>
      <trkpt lat="45.35393130965530872344970703125" lon="-70.81360428594052791595458984375">
        <ele>686.79998779296875</ele>
        <time>2026-08-21T11:11:29.000Z</time>
        <extensions>
          <ns3:TrackPointExtension>
            <ns3:hr>146</ns3:hr>
            <ns3:cad>49</ns3:cad>
          </ns3:TrackPointExtension>
        </extensions>
      </trkpt>
      <trkpt lat="45.35392175428569316864013671875" lon="-70.8135961554944515228271484375">
        <ele>687</ele>
        <time>2026-08-21T11:11:30.000Z</time>
        <extensions>
          <ns3:TrackPointExtension>
            <ns3:hr>147</ns3:hr>
            <ns3:cad>48</ns3:cad>
          </ns3:TrackPointExtension>
        </extensions>
      </trkpt>
      <trkpt lat="45.35390968434512615203857421875" lon="-70.81359506584703922271728515625">
        <ele>687.20001220703125</ele>
        <time>2026-08-21T11:11:31.000Z</time>
        <extensions>
          <ns3:TrackPointExtension>
            <ns3:hr>147</ns3:hr>
            <ns3:cad>48</ns3:cad>
          </ns3:TrackPointExtension>
        </extensions>
      </trkpt>
      <trkpt lat="45.35389811731874942779541015625" lon="-70.81359053961932659149169921875">
        <ele>687.5999755859375</ele>
        <time>2026-08-21T11:11:32.000Z</time>
        <extensions>
          <ns3:TrackPointExtension>
            <ns3:hr>147</ns3:hr>
            <ns3:cad>47</ns3:cad>
          </ns3:TrackPointExtension>
        </extensions>
      </trkpt>
      <trkpt lat="45.35388772375881671905517578125" lon="-70.813583917915821075439453125">
        <ele>687.79998779296875</ele>
        <time>2026-08-21T11:11:33.000Z</time>
        <extensions>
          <ns3:TrackPointExtension>
            <ns3:hr>147</ns3:hr>
            <ns3:cad>47</ns3:cad>
          </ns3:TrackPointExtension>
        </extensions>
      </trkpt>
      <trkpt lat="45.35387431271374225616455078125" lon="-70.813574530184268951416015625">
        <ele>688</ele>
        <time>2026-08-21T11:11:34.000Z</time>
        <extensions>
          <ns3:TrackPointExtension>
            <ns3:hr>147</ns3:hr>
            <ns3:cad>47</ns3:cad>
          </ns3:TrackPointExtension>
        </extensions>
      </trkpt>
      <trkpt lat="45.35386391915380954742431640625" lon="-70.81356707029044628143310546875">
        <ele>688</ele>
        <time>2026-08-21T11:11:35.000Z</time>
        <extensions>
          <ns3:TrackPointExtension>
            <ns3:hr>148</ns3:hr>
            <ns3:cad>47</ns3:cad>
          </ns3:TrackPointExtension>
        </extensions>
      </trkpt>
      <trkpt lat="45.353851430118083953857421875" lon="-70.813561119139194488525390625">
        <ele>688.20001220703125</ele>
        <time>2026-08-21T11:11:36.000Z</time>
        <extensions>
          <ns3:TrackPointExtension>
            <ns3:hr>148</ns3:hr>
            <ns3:cad>47</ns3:cad>
          </ns3:TrackPointExtension>
        </extensions>
      </trkpt>
      <trkpt lat="45.3538408689200878143310546875" lon="-70.81355382688343524932861328125">
        <ele>688.20001220703125</ele>
        <time>2026-08-21T11:11:37.000Z</time>
        <extensions>
          <ns3:TrackPointExtension>
            <ns3:hr>147</ns3:hr>
            <ns3:cad>47</ns3:cad>
          </ns3:TrackPointExtension>
        </extensions>
      </trkpt>
      <trkpt lat="45.3538281284272670745849609375" lon="-70.81354477442800998687744140625">
        <ele>688.20001220703125</ele>
        <time>2026-08-21T11:11:38.000Z</time>
        <extensions>
          <ns3:TrackPointExtension>
            <ns3:hr>147</ns3:hr>
            <ns3:cad>47</ns3:cad>
          </ns3:TrackPointExtension>
        </extensions>
      </trkpt>
      <trkpt lat="45.3538224287331104278564453125" lon="-70.8135351352393627166748046875">
        <ele>688.4000244140625</ele>
        <time>2026-08-21T11:11:39.000Z</time>
        <extensions>
          <ns3:TrackPointExtension>
            <ns3:hr>147</ns3:hr>
            <ns3:cad>48</ns3:cad>
          </ns3:TrackPointExtension>
        </extensions>
      </trkpt>
      <trkpt lat="45.35381949506700038909912109375" lon="-70.813520886003971099853515625">
        <ele>688.4000244140625</ele>
        <time>2026-08-21T11:11:40.000Z</time>
        <extensions>
          <ns3:TrackPointExtension>
            <ns3:hr>147</ns3:hr>
            <ns3:cad>48</ns3:cad>
          </ns3:TrackPointExtension>
        </extensions>
      </trkpt>
      <trkpt lat="45.35381312482059001922607421875" lon="-70.81350722350180149078369140625">
        <ele>688.5999755859375</ele>
        <time>2026-08-21T11:11:41.000Z</time>
        <extensions>
          <ns3:TrackPointExtension>
            <ns3:hr>146</ns3:hr>
            <ns3:cad>47</ns3:cad>
          </ns3:TrackPointExtension>
        </extensions>
      </trkpt>
      <trkpt lat="45.35379887558519840240478515625" lon="-70.81349976360797882080078125">
        <ele>688.5999755859375</ele>
        <time>2026-08-21T11:11:42.000Z</time>
        <extensions>
          <ns3:TrackPointExtension>
            <ns3:hr>147</ns3:hr>
            <ns3:cad>47</ns3:cad>
          </ns3:TrackPointExtension>
        </extensions>
      </trkpt>
      <trkpt lat="45.3537882305681705474853515625" lon="-70.813493393361568450927734375">
        <ele>688.79998779296875</ele>
        <time>2026-08-21T11:11:43.000Z</time>
        <extensions>
          <ns3:TrackPointExtension>
            <ns3:hr>147</ns3:hr>
            <ns3:cad>47</ns3:cad>
          </ns3:TrackPointExtension>
        </extensions>
      </trkpt>
      <trkpt lat="45.353776998817920684814453125" lon="-70.81348140724003314971923828125">
        <ele>688.79998779296875</ele>
        <time>2026-08-21T11:11:44.000Z</time>
        <extensions>
          <ns3:TrackPointExtension>
            <ns3:hr>147</ns3:hr>
            <ns3:cad>48</ns3:cad>
          </ns3:TrackPointExtension>
        </extensions>
      </trkpt>
      <trkpt lat="45.35376928746700286865234375" lon="-70.813468582928180694580078125">
        <ele>689</ele>
        <time>2026-08-21T11:11:45.000Z</time>
        <extensions>
          <ns3:TrackPointExtension>
            <ns3:hr>147</ns3:hr>
            <ns3:cad>48</ns3:cad>
          </ns3:TrackPointExtension>
        </extensions>
      </trkpt>
      <trkpt lat="45.3537661023437976837158203125" lon="-70.81345676444470882415771484375">
        <ele>689.20001220703125</ele>
        <time>2026-08-21T11:11:46.000Z</time>
        <extensions>
          <ns3:TrackPointExtension>
            <ns3:hr>148</ns3:hr>
            <ns3:cad>48</ns3:cad>
          </ns3:TrackPointExtension>
        </extensions>
      </trkpt>
      <trkpt lat="45.35376417450606822967529296875" lon="-70.81344217993319034576416015625">
        <ele>689.20001220703125</ele>
        <time>2026-08-21T11:11:47.000Z</time>
        <extensions>
          <ns3:TrackPointExtension>
            <ns3:hr>148</ns3:hr>
            <ns3:cad>48</ns3:cad>
          </ns3:TrackPointExtension>
        </extensions>
      </trkpt>
      <trkpt lat="45.35375855863094329833984375" lon="-70.81343061290681362152099609375">
        <ele>689.4000244140625</ele>
        <time>2026-08-21T11:11:48.000Z</time>
        <extensions>
          <ns3:TrackPointExtension>
            <ns3:hr>148</ns3:hr>
            <ns3:cad>48</ns3:cad>
          </ns3:TrackPointExtension>
        </extensions>
      </trkpt>
      <trkpt lat="45.35374456085264682769775390625" lon="-70.8134204708039760589599609375">
        <ele>689.5999755859375</ele>
        <time>2026-08-21T11:11:49.000Z</time>
        <extensions>
          <ns3:TrackPointExtension>
            <ns3:hr>147</ns3:hr>
            <ns3:cad>50</ns3:cad>
          </ns3:TrackPointExtension>
        </extensions>
      </trkpt>
      <trkpt lat="45.35373366437852382659912109375" lon="-70.81341032870113849639892578125">
        <ele>689.5999755859375</ele>
        <time>2026-08-21T11:11:50.000Z</time>
        <extensions>
          <ns3:TrackPointExtension>
            <ns3:hr>147</ns3:hr>
            <ns3:cad>50</ns3:cad>
          </ns3:TrackPointExtension>
        </extensions>
      </trkpt>
      <trkpt lat="45.35372762940824031829833984375" lon="-70.81340027041733264923095703125">
        <ele>689.79998779296875</ele>
        <time>2026-08-21T11:11:51.000Z</time>
        <extensions>
          <ns3:TrackPointExtension>
            <ns3:hr>146</ns3:hr>
            <ns3:cad>50</ns3:cad>
          </ns3:TrackPointExtension>
        </extensions>
      </trkpt>
      <trkpt lat="45.3537211753427982330322265625" lon="-70.81338719464838504791259765625">
        <ele>689.79998779296875</ele>
        <time>2026-08-21T11:11:52.000Z</time>
        <extensions>
          <ns3:TrackPointExtension>
            <ns3:hr>146</ns3:hr>
            <ns3:cad>50</ns3:cad>
          </ns3:TrackPointExtension>
        </extensions>
      </trkpt>
      <trkpt lat="45.35371304489672183990478515625" lon="-70.813374035060405731201171875">
        <ele>690</ele>
        <time>2026-08-21T11:11:53.000Z</time>
        <extensions>
          <ns3:TrackPointExtension>
            <ns3:hr>146</ns3:hr>
            <ns3:cad>50</ns3:cad>
          </ns3:TrackPointExtension>
        </extensions>
      </trkpt>
      <trkpt lat="45.35370449535548686981201171875" lon="-70.8133607916533946990966796875">
        <ele>690.20001220703125</ele>
        <time>2026-08-21T11:11:54.000Z</time>
        <extensions>
          <ns3:TrackPointExtension>
            <ns3:hr>146</ns3:hr>
            <ns3:cad>50</ns3:cad>
          </ns3:TrackPointExtension>
        </extensions>
      </trkpt>
      <trkpt lat="45.3536953590810298919677734375" lon="-70.81334914080798625946044921875">
        <ele>690.4000244140625</ele>
        <time>2026-08-21T11:11:55.000Z</time>
        <extensions>
          <ns3:TrackPointExtension>
            <ns3:hr>146</ns3:hr>
            <ns3:cad>50</ns3:cad>
          </ns3:TrackPointExtension>
        </extensions>
      </trkpt>
      <trkpt lat="45.353687815368175506591796875" lon="-70.8133366517722606658935546875">
        <ele>690.4000244140625</ele>
        <time>2026-08-21T11:11:56.000Z</time>
        <extensions>
          <ns3:TrackPointExtension>
            <ns3:hr>145</ns3:hr>
            <ns3:cad>49</ns3:cad>
          </ns3:TrackPointExtension>
        </extensions>
      </trkpt>
      <trkpt lat="45.35367901436984539031982421875" lon="-70.8133212290704250335693359375">
        <ele>690.5999755859375</ele>
        <time>2026-08-21T11:11:57.000Z</time>
        <extensions>
          <ns3:TrackPointExtension>
            <ns3:hr>144</ns3:hr>
            <ns3:cad>49</ns3:cad>
          </ns3:TrackPointExtension>
        </extensions>
      </trkpt>
      <trkpt lat="45.35367130301892757415771484375" lon="-70.8133073151111602783203125">
        <ele>690.79998779296875</ele>
        <time>2026-08-21T11:11:58.000Z</time>
        <extensions>
          <ns3:TrackPointExtension>
            <ns3:hr>143</ns3:hr>
            <ns3:cad>48</ns3:cad>
          </ns3:TrackPointExtension>
        </extensions>
      </trkpt>
      <trkpt lat="45.35366459749639034271240234375" lon="-70.813295580446720123291015625">
        <ele>691</ele>
        <time>2026-08-21T11:11:59.000Z</time>
        <extensions>
          <ns3:TrackPointExtension>
            <ns3:hr>142</ns3:hr>
            <ns3:cad>48</ns3:cad>
          </ns3:TrackPointExtension>
        </extensions>
      </trkpt>
      <trkpt lat="45.35365973599255084991455078125" lon="-70.81329415552318096160888671875">
        <ele>691.20001220703125</ele>
        <time>2026-08-21T11:12:00.000Z</time>
        <extensions>
          <ns3:TrackPointExtension>
            <ns3:hr>141</ns3:hr>
            <ns3:cad>48</ns3:cad>
          </ns3:TrackPointExtension>
        </extensions>
      </trkpt>
      <trkpt lat="45.35364666022360324859619140625" lon="-70.81328828819096088409423828125">
        <ele>691.4000244140625</ele>
        <time>2026-08-21T11:12:01.000Z</time>
        <extensions>
          <ns3:TrackPointExtension>
            <ns3:hr>141</ns3:hr>
            <ns3:cad>49</ns3:cad>
          </ns3:TrackPointExtension>
        </extensions>
      </trkpt>
      <trkpt lat="45.35363920032978057861328125" lon="-70.81328476779162883758544921875">
        <ele>691.5999755859375</ele>
        <time>2026-08-21T11:12:02.000Z</time>
        <extensions>
          <ns3:TrackPointExtension>
            <ns3:hr>141</ns3:hr>
            <ns3:cad>49</ns3:cad>
          </ns3:TrackPointExtension>
        </extensions>
      </trkpt>
      <trkpt lat="45.35362956114113330841064453125" lon="-70.81328116357326507568359375">
        <ele>691.79998779296875</ele>
        <time>2026-08-21T11:12:03.000Z</time>
        <extensions>
          <ns3:TrackPointExtension>
            <ns3:hr>142</ns3:hr>
            <ns3:cad>49</ns3:cad>
          </ns3:TrackPointExtension>
        </extensions>
      </trkpt>
      <trkpt lat="45.35362101159989833831787109375" lon="-70.81327714025974273681640625">
        <ele>692</ele>
        <time>2026-08-21T11:12:04.000Z</time>
        <extensions>
          <ns3:TrackPointExtension>
            <ns3:hr>142</ns3:hr>
            <ns3:cad>49</ns3:cad>
          </ns3:TrackPointExtension>
        </extensions>
      </trkpt>
      <trkpt lat="45.35360927693545818328857421875" lon="-70.8132751286029815673828125">
        <ele>692.20001220703125</ele>
        <time>2026-08-21T11:12:05.000Z</time>
        <extensions>
          <ns3:TrackPointExtension>
            <ns3:hr>141</ns3:hr>
            <ns3:cad>0</ns3:cad>
          </ns3:TrackPointExtension>
        </extensions>
      </trkpt>
      <trkpt lat="45.3536001406610012054443359375" lon="-70.813271105289459228515625">
        <ele>692.4000244140625</ele>
        <time>2026-08-21T11:12:06.000Z</time>
        <extensions>
          <ns3:TrackPointExtension>
            <ns3:hr>141</ns3:hr>
            <ns3:cad>0</ns3:cad>
          </ns3:TrackPointExtension>
        </extensions>
      </trkpt>
      <trkpt lat="45.3535877354443073272705078125" lon="-70.8132682554423809051513671875">
        <ele>692.5999755859375</ele>
        <time>2026-08-21T11:12:07.000Z</time>
        <extensions>
          <ns3:TrackPointExtension>
            <ns3:hr>140</ns3:hr>
            <ns3:cad>0</ns3:cad>
          </ns3:TrackPointExtension>
        </extensions>
      </trkpt>
      <trkpt lat="45.35357491113245487213134765625" lon="-70.81326817162334918975830078125">
        <ele>692.79998779296875</ele>
        <time>2026-08-21T11:12:08.000Z</time>
        <extensions>
          <ns3:TrackPointExtension>
            <ns3:hr>140</ns3:hr>
            <ns3:cad>0</ns3:cad>
          </ns3:TrackPointExtension>
        </extensions>
      </trkpt>
      <trkpt lat="45.35356418229639530181884765625" lon="-70.81326498650014400482177734375">
        <ele>693</ele>
        <time>2026-08-21T11:12:09.000Z</time>
        <extensions>
          <ns3:TrackPointExtension>
            <ns3:hr>140</ns3:hr>
            <ns3:cad>0</ns3:cad>
          </ns3:TrackPointExtension>
        </extensions>
      </trkpt>
      <trkpt lat="45.35355412401258945465087890625" lon="-70.81326079554855823516845703125">
        <ele>693.20001220703125</ele>
        <time>2026-08-21T11:12:10.000Z</time>
        <extensions>
          <ns3:TrackPointExtension>
            <ns3:hr>140</ns3:hr>
            <ns3:cad>45</ns3:cad>
          </ns3:TrackPointExtension>
        </extensions>
      </trkpt>
      <trkpt lat="45.3535433113574981689453125" lon="-70.813256688416004180908203125">
        <ele>693.20001220703125</ele>
        <time>2026-08-21T11:12:11.000Z</time>
        <extensions>
          <ns3:TrackPointExtension>
            <ns3:hr>140</ns3:hr>
            <ns3:cad>47</ns3:cad>
          </ns3:TrackPointExtension>
        </extensions>
      </trkpt>
      <trkpt lat="45.353531576693058013916015625" lon="-70.81325056962668895721435546875">
        <ele>693.4000244140625</ele>
        <time>2026-08-21T11:12:12.000Z</time>
        <extensions>
          <ns3:TrackPointExtension>
            <ns3:hr>140</ns3:hr>
            <ns3:cad>47</ns3:cad>
          </ns3:TrackPointExtension>
        </extensions>
      </trkpt>
      <trkpt lat="45.3535200096666812896728515625" lon="-70.81324151717126369476318359375">
        <ele>693.4000244140625</ele>
        <time>2026-08-21T11:12:13.000Z</time>
        <extensions>
          <ns3:TrackPointExtension>
            <ns3:hr>140</ns3:hr>
            <ns3:cad>47</ns3:cad>
          </ns3:TrackPointExtension>
        </extensions>
      </trkpt>
      <trkpt lat="45.353516153991222381591796875" lon="-70.8132350631058216094970703125">
        <ele>693.5999755859375</ele>
        <time>2026-08-21T11:12:14.000Z</time>
        <extensions>
          <ns3:TrackPointExtension>
            <ns3:hr>140</ns3:hr>
            <ns3:cad>47</ns3:cad>
          </ns3:TrackPointExtension>
        </extensions>
      </trkpt>
      <trkpt lat="45.35350886173546314239501953125" lon="-70.8132255077362060546875">
        <ele>693.5999755859375</ele>
        <time>2026-08-21T11:12:15.000Z</time>
        <extensions>
          <ns3:TrackPointExtension>
            <ns3:hr>140</ns3:hr>
            <ns3:cad>45</ns3:cad>
          </ns3:TrackPointExtension>
        </extensions>
      </trkpt>
      <trkpt lat="45.3535019047558307647705078125" lon="-70.81321813166141510009765625">
        <ele>693.79998779296875</ele>
        <time>2026-08-21T11:12:16.000Z</time>
        <extensions>
          <ns3:TrackPointExtension>
            <ns3:hr>141</ns3:hr>
            <ns3:cad>45</ns3:cad>
          </ns3:TrackPointExtension>
        </extensions>
      </trkpt>
      <trkpt lat="45.35349729470908641815185546875" lon="-70.81320933066308498382568359375">
        <ele>693.79998779296875</ele>
        <time>2026-08-21T11:12:17.000Z</time>
        <extensions>
          <ns3:TrackPointExtension>
            <ns3:hr>141</ns3:hr>
            <ns3:cad>48</ns3:cad>
          </ns3:TrackPointExtension>
        </extensions>
      </trkpt>
      <trkpt lat="45.35349394194781780242919921875" lon="-70.81319994293153285980224609375">
        <ele>694</ele>
        <time>2026-08-21T11:12:18.000Z</time>
        <extensions>
          <ns3:TrackPointExtension>
            <ns3:hr>142</ns3:hr>
            <ns3:cad>48</ns3:cad>
          </ns3:TrackPointExtension>
        </extensions>
      </trkpt>
      <trkpt lat="45.35348891280591487884521484375" lon="-70.81319105811417102813720703125">
        <ele>694.20001220703125</ele>
        <time>2026-08-21T11:12:19.000Z</time>
        <extensions>
          <ns3:TrackPointExtension>
            <ns3:hr>142</ns3:hr>
            <ns3:cad>48</ns3:cad>
          </ns3:TrackPointExtension>
        </extensions>
      </trkpt>
      <trkpt lat="45.353481955826282501220703125" lon="-70.81317949108779430389404296875">
        <ele>694.20001220703125</ele>
        <time>2026-08-21T11:12:20.000Z</time>
        <extensions>
          <ns3:TrackPointExtension>
            <ns3:hr>142</ns3:hr>
            <ns3:cad>48</ns3:cad>
          </ns3:TrackPointExtension>
        </extensions>
      </trkpt>
      <trkpt lat="45.35347717814147472381591796875" lon="-70.813169181346893310546875">
        <ele>694.4000244140625</ele>
        <time>2026-08-21T11:12:21.000Z</time>
        <extensions>
          <ns3:TrackPointExtension>
            <ns3:hr>142</ns3:hr>
            <ns3:cad>48</ns3:cad>
          </ns3:TrackPointExtension>
        </extensions>
      </trkpt>
      <trkpt lat="45.353472568094730377197265625" lon="-70.8131602965295314788818359375">
        <ele>694.4000244140625</ele>
        <time>2026-08-21T11:12:22.000Z</time>
        <extensions>
          <ns3:TrackPointExtension>
            <ns3:hr>142</ns3:hr>
            <ns3:cad>50</ns3:cad>
          </ns3:TrackPointExtension>
        </extensions>
      </trkpt>
      <trkpt lat="45.35346527583897113800048828125" lon="-70.8131517469882965087890625">
        <ele>694.5999755859375</ele>
        <time>2026-08-21T11:12:23.000Z</time>
        <extensions>
          <ns3:TrackPointExtension>
            <ns3:hr>141</ns3:hr>
            <ns3:cad>50</ns3:cad>
          </ns3:TrackPointExtension>
        </extensions>
      </trkpt>
      <trkpt lat="45.353456474840641021728515625" lon="-70.81314143724739551544189453125">
        <ele>694.79998779296875</ele>
        <time>2026-08-21T11:12:24.000Z</time>
        <extensions>
          <ns3:TrackPointExtension>
            <ns3:hr>140</ns3:hr>
            <ns3:cad>50</ns3:cad>
          </ns3:TrackPointExtension>
        </extensions>
      </trkpt>
      <trkpt lat="45.35345052368938922882080078125" lon="-70.813131630420684814453125">
        <ele>694.79998779296875</ele>
        <time>2026-08-21T11:12:25.000Z</time>
        <extensions>
          <ns3:TrackPointExtension>
            <ns3:hr>140</ns3:hr>
            <ns3:cad>50</ns3:cad>
          </ns3:TrackPointExtension>
        </extensions>
      </trkpt>
      <trkpt lat="45.3534445725381374359130859375" lon="-70.81311897374689579010009765625">
        <ele>695</ele>
        <time>2026-08-21T11:12:26.000Z</time>
        <extensions>
          <ns3:TrackPointExtension>
            <ns3:hr>140</ns3:hr>
            <ns3:cad>50</ns3:cad>
          </ns3:TrackPointExtension>
        </extensions>
      </trkpt>
      <trkpt lat="45.35343828611075878143310546875" lon="-70.8131130225956439971923828125">
        <ele>695.20001220703125</ele>
        <time>2026-08-21T11:12:27.000Z</time>
        <extensions>
          <ns3:TrackPointExtension>
            <ns3:hr>140</ns3:hr>
            <ns3:cad>50</ns3:cad>
          </ns3:TrackPointExtension>
        </extensions>
      </trkpt>
      <trkpt lat="45.3534311614930629730224609375" lon="-70.81311176531016826629638671875">
        <ele>695.4000244140625</ele>
        <time>2026-08-21T11:12:28.000Z</time>
        <extensions>
          <ns3:TrackPointExtension>
            <ns3:hr>140</ns3:hr>
            <ns3:cad>50</ns3:cad>
          </ns3:TrackPointExtension>
        </extensions>
      </trkpt>
      <trkpt lat="45.35342596471309661865234375" lon="-70.8131049759685993194580078125">
        <ele>695.5999755859375</ele>
        <time>2026-08-21T11:12:29.000Z</time>
        <extensions>
          <ns3:TrackPointExtension>
            <ns3:hr>140</ns3:hr>
            <ns3:cad>0</ns3:cad>
          </ns3:TrackPointExtension>
        </extensions>
      </trkpt>
      <trkpt lat="45.3534204326570034027099609375" lon="-70.81309617497026920318603515625">
        <ele>695.79998779296875</ele>
        <time>2026-08-21T11:12:30.000Z</time>
        <extensions>
          <ns3:TrackPointExtension>
            <ns3:hr>140</ns3:hr>
            <ns3:cad>0</ns3:cad>
          </ns3:TrackPointExtension>
        </extensions>
      </trkpt>
      <trkpt lat="45.35341431386768817901611328125" lon="-70.81308879889547824859619140625">
        <ele>696</ele>
        <time>2026-08-21T11:12:31.000Z</time>
        <extensions>
          <ns3:TrackPointExtension>
            <ns3:hr>140</ns3:hr>
            <ns3:cad>0</ns3:cad>
          </ns3:TrackPointExtension>
        </extensions>
      </trkpt>
      <trkpt lat="45.35341414622962474822998046875" lon="-70.8130900561809539794921875">
        <ele>696.20001220703125</ele>
        <time>2026-08-21T11:12:32.000Z</time>
        <extensions>
          <ns3:TrackPointExtension>
            <ns3:hr>140</ns3:hr>
            <ns3:cad>47</ns3:cad>
          </ns3:TrackPointExtension>
        </extensions>
      </trkpt>
      <trkpt lat="45.35340945236384868621826171875" lon="-70.813082344830036163330078125">
        <ele>696.4000244140625</ele>
        <time>2026-08-21T11:12:33.000Z</time>
        <extensions>
          <ns3:TrackPointExtension>
            <ns3:hr>140</ns3:hr>
            <ns3:cad>47</ns3:cad>
          </ns3:TrackPointExtension>
        </extensions>
      </trkpt>
      <trkpt lat="45.35340475849807262420654296875" lon="-70.81307253800332546234130859375">
        <ele>696.5999755859375</ele>
        <time>2026-08-21T11:12:34.000Z</time>
        <extensions>
          <ns3:TrackPointExtension>
            <ns3:hr>140</ns3:hr>
            <ns3:cad>47</ns3:cad>
          </ns3:TrackPointExtension>
        </extensions>
      </trkpt>
      <trkpt lat="45.35340023227035999298095703125" lon="-70.8130607195198535919189453125">
        <ele>696.79998779296875</ele>
        <time>2026-08-21T11:12:35.000Z</time>
        <extensions>
          <ns3:TrackPointExtension>
            <ns3:hr>140</ns3:hr>
            <ns3:cad>0</ns3:cad>
          </ns3:TrackPointExtension>
        </extensions>
      </trkpt>
      <trkpt lat="45.35339319147169589996337890625" lon="-70.81305141560733318328857421875">
        <ele>697</ele>
        <time>2026-08-21T11:12:36.000Z</time>
        <extensions>
          <ns3:TrackPointExtension>
            <ns3:hr>139</ns3:hr>
            <ns3:cad>0</ns3:cad>
          </ns3:TrackPointExtension>
        </extensions>
      </trkpt>
      <trkpt lat="45.3533877432346343994140625" lon="-70.8130442909896373748779296875">
        <ele>697.4000244140625</ele>
        <time>2026-08-21T11:12:37.000Z</time>
        <extensions>
          <ns3:TrackPointExtension>
            <ns3:hr>140</ns3:hr>
            <ns3:cad>0</ns3:cad>
          </ns3:TrackPointExtension>
        </extensions>
      </trkpt>
      <trkpt lat="45.35338061861693859100341796875" lon="-70.8130308799445629119873046875">
        <ele>697.5999755859375</ele>
        <time>2026-08-21T11:12:38.000Z</time>
        <extensions>
          <ns3:TrackPointExtension>
            <ns3:hr>140</ns3:hr>
            <ns3:cad>0</ns3:cad>
          </ns3:TrackPointExtension>
        </extensions>
      </trkpt>
      <trkpt lat="45.35337634384632110595703125" lon="-70.81302543170750141143798828125">
        <ele>697.79998779296875</ele>
        <time>2026-08-21T11:12:39.000Z</time>
        <extensions>
          <ns3:TrackPointExtension>
            <ns3:hr>140</ns3:hr>
            <ns3:cad>0</ns3:cad>
          </ns3:TrackPointExtension>
        </extensions>
      </trkpt>
      <trkpt lat="45.3533741645514965057373046875" lon="-70.81301956437528133392333984375">
        <ele>698</ele>
        <time>2026-08-21T11:12:40.000Z</time>
        <extensions>
          <ns3:TrackPointExtension>
            <ns3:hr>140</ns3:hr>
            <ns3:cad>0</ns3:cad>
          </ns3:TrackPointExtension>
        </extensions>
      </trkpt>
      <trkpt lat="45.35337039269506931304931640625" lon="-70.81301637925207614898681640625">
        <ele>698.20001220703125</ele>
        <time>2026-08-21T11:12:41.000Z</time>
        <extensions>
          <ns3:TrackPointExtension>
            <ns3:hr>139</ns3:hr>
            <ns3:cad>46</ns3:cad>
          </ns3:TrackPointExtension>
        </extensions>
      </trkpt>
      <trkpt lat="45.35336670465767383575439453125" lon="-70.8130127750337123870849609375">
        <ele>698.4000244140625</ele>
        <time>2026-08-21T11:12:42.000Z</time>
        <extensions>
          <ns3:TrackPointExtension>
            <ns3:hr>139</ns3:hr>
            <ns3:cad>46</ns3:cad>
          </ns3:TrackPointExtension>
        </extensions>
      </trkpt>
      <trkpt lat="45.35336100496351718902587890625" lon="-70.81300556659698486328125">
        <ele>698.5999755859375</ele>
        <time>2026-08-21T11:12:43.000Z</time>
        <extensions>
          <ns3:TrackPointExtension>
            <ns3:hr>139</ns3:hr>
            <ns3:cad>46</ns3:cad>
          </ns3:TrackPointExtension>
        </extensions>
      </trkpt>
      <trkpt lat="45.3533530421555042266845703125" lon="-70.81300062127411365509033203125">
        <ele>698.79998779296875</ele>
        <time>2026-08-21T11:12:44.000Z</time>
        <extensions>
          <ns3:TrackPointExtension>
            <ns3:hr>139</ns3:hr>
            <ns3:cad>46</ns3:cad>
          </ns3:TrackPointExtension>
        </extensions>
      </trkpt>
      <trkpt lat="45.35334591753780841827392578125" lon="-70.81299726851284503936767578125">
        <ele>699.20001220703125</ele>
        <time>2026-08-21T11:12:45.000Z</time>
        <extensions>
          <ns3:TrackPointExtension>
            <ns3:hr>139</ns3:hr>
            <ns3:cad>46</ns3:cad>
          </ns3:TrackPointExtension>
        </extensions>
      </trkpt>
      <trkpt lat="45.35333284176886081695556640625" lon="-70.8129889704287052154541015625">
        <ele>699.4000244140625</ele>
        <time>2026-08-21T11:12:46.000Z</time>
        <extensions>
          <ns3:TrackPointExtension>
            <ns3:hr>139</ns3:hr>
            <ns3:cad>46</ns3:cad>
          </ns3:TrackPointExtension>
        </extensions>
      </trkpt>
      <trkpt lat="45.35332546569406986236572265625" lon="-70.81298050470650196075439453125">
        <ele>699.5999755859375</ele>
        <time>2026-08-21T11:12:47.000Z</time>
        <extensions>
          <ns3:TrackPointExtension>
            <ns3:hr>138</ns3:hr>
            <ns3:cad>0</ns3:cad>
          </ns3:TrackPointExtension>
        </extensions>
      </trkpt>
      <trkpt lat="45.35331456921994686126708984375" lon="-70.8129745535552501678466796875">
        <ele>699.79998779296875</ele>
        <time>2026-08-21T11:12:48.000Z</time>
        <extensions>
          <ns3:TrackPointExtension>
            <ns3:hr>139</ns3:hr>
            <ns3:cad>0</ns3:cad>
          </ns3:TrackPointExtension>
        </extensions>
      </trkpt>
      <trkpt lat="45.35330350510776042938232421875" lon="-70.81297027878463268280029296875">
        <ele>700.20001220703125</ele>
        <time>2026-08-21T11:12:49.000Z</time>
        <extensions>
          <ns3:TrackPointExtension>
            <ns3:hr>140</ns3:hr>
            <ns3:cad>41</ns3:cad>
          </ns3:TrackPointExtension>
        </extensions>
      </trkpt>
      <trkpt lat="45.35329529084265232086181640625" lon="-70.81296474672853946685791015625">
        <ele>700.4000244140625</ele>
        <time>2026-08-21T11:12:50.000Z</time>
        <extensions>
          <ns3:TrackPointExtension>
            <ns3:hr>140</ns3:hr>
            <ns3:cad>41</ns3:cad>
          </ns3:TrackPointExtension>
        </extensions>
      </trkpt>
      <trkpt lat="45.35327953286468982696533203125" lon="-70.8129564486443996429443359375">
        <ele>700.4000244140625</ele>
        <time>2026-08-21T11:12:51.000Z</time>
        <extensions>
          <ns3:TrackPointExtension>
            <ns3:hr>140</ns3:hr>
            <ns3:cad>43</ns3:cad>
          </ns3:TrackPointExtension>
        </extensions>
      </trkpt>
      <trkpt lat="45.3532695583999156951904296875" lon="-70.81295259296894073486328125">
        <ele>700.5999755859375</ele>
        <time>2026-08-21T11:12:52.000Z</time>
        <extensions>
          <ns3:TrackPointExtension>
            <ns3:hr>140</ns3:hr>
            <ns3:cad>43</ns3:cad>
          </ns3:TrackPointExtension>
        </extensions>
      </trkpt>
      <trkpt lat="45.353257991373538970947265625" lon="-70.81294831819832324981689453125">
        <ele>700.79998779296875</ele>
        <time>2026-08-21T11:12:53.000Z</time>
        <extensions>
          <ns3:TrackPointExtension>
            <ns3:hr>140</ns3:hr>
            <ns3:cad>47</ns3:cad>
          </ns3:TrackPointExtension>
        </extensions>
      </trkpt>
      <trkpt lat="45.35324198193848133087158203125" lon="-70.81294228322803974151611328125">
        <ele>701</ele>
        <time>2026-08-21T11:12:54.000Z</time>
        <extensions>
          <ns3:TrackPointExtension>
            <ns3:hr>140</ns3:hr>
            <ns3:cad>47</ns3:cad>
          </ns3:TrackPointExtension>
        </extensions>
      </trkpt>
      <trkpt lat="45.35322404466569423675537109375" lon="-70.812936834990978240966796875">
        <ele>701.20001220703125</ele>
        <time>2026-08-21T11:12:55.000Z</time>
        <extensions>
          <ns3:TrackPointExtension>
            <ns3:hr>141</ns3:hr>
            <ns3:cad>47</ns3:cad>
          </ns3:TrackPointExtension>
        </extensions>
      </trkpt>
      <trkpt lat="45.35320895723998546600341796875" lon="-70.81293406896293163299560546875">
        <ele>701.4000244140625</ele>
        <time>2026-08-21T11:12:56.000Z</time>
        <extensions>
          <ns3:TrackPointExtension>
            <ns3:hr>141</ns3:hr>
            <ns3:cad>47</ns3:cad>
          </ns3:TrackPointExtension>
        </extensions>
      </trkpt>
      <trkpt lat="45.3531999886035919189453125" lon="-70.81293088383972644805908203125">
        <ele>701.5999755859375</ele>
        <time>2026-08-21T11:12:57.000Z</time>
        <extensions>
          <ns3:TrackPointExtension>
            <ns3:hr>141</ns3:hr>
            <ns3:cad>47</ns3:cad>
          </ns3:TrackPointExtension>
        </extensions>
      </trkpt>
      <trkpt lat="45.3531904332339763641357421875" lon="-70.8129272796213626861572265625">
        <ele>701.79998779296875</ele>
        <time>2026-08-21T11:12:58.000Z</time>
        <extensions>
          <ns3:TrackPointExtension>
            <ns3:hr>141</ns3:hr>
            <ns3:cad>47</ns3:cad>
          </ns3:TrackPointExtension>
        </extensions>
      </trkpt>
      <trkpt lat="45.35318448208272457122802734375" lon="-70.8129259385168552398681640625">
        <ele>702</ele>
        <time>2026-08-21T11:12:59.000Z</time>
        <extensions>
          <ns3:TrackPointExtension>
            <ns3:hr>141</ns3:hr>
            <ns3:cad>47</ns3:cad>
          </ns3:TrackPointExtension>
        </extensions>
      </trkpt>
      <trkpt lat="45.35317442379891872406005859375" lon="-70.81291914917528629302978515625">
        <ele>702.20001220703125</ele>
        <time>2026-08-21T11:13:00.000Z</time>
        <extensions>
          <ns3:TrackPointExtension>
            <ns3:hr>142</ns3:hr>
            <ns3:cad>47</ns3:cad>
          </ns3:TrackPointExtension>
        </extensions>
      </trkpt>
      <trkpt lat="45.35315799526870250701904296875" lon="-70.812913365662097930908203125">
        <ele>702.4000244140625</ele>
        <time>2026-08-21T11:13:01.000Z</time>
        <extensions>
          <ns3:TrackPointExtension>
            <ns3:hr>142</ns3:hr>
            <ns3:cad>47</ns3:cad>
          </ns3:TrackPointExtension>
        </extensions>
      </trkpt>
      <trkpt lat="45.353147350251674652099609375" lon="-70.81291009671986103057861328125">
        <ele>702.5999755859375</ele>
        <time>2026-08-21T11:13:02.000Z</time>
        <extensions>
          <ns3:TrackPointExtension>
            <ns3:hr>142</ns3:hr>
            <ns3:cad>47</ns3:cad>
          </ns3:TrackPointExtension>
        </extensions>
      </trkpt>
      <trkpt lat="45.3531356155872344970703125" lon="-70.8129091747105121612548828125">
        <ele>702.79998779296875</ele>
        <time>2026-08-21T11:13:03.000Z</time>
        <extensions>
          <ns3:TrackPointExtension>
            <ns3:hr>142</ns3:hr>
            <ns3:cad>47</ns3:cad>
          </ns3:TrackPointExtension>
        </extensions>
      </trkpt>
      <trkpt lat="45.35312396474182605743408203125" lon="-70.8129048161208629608154296875">
        <ele>703</ele>
        <time>2026-08-21T11:13:04.000Z</time>
        <extensions>
          <ns3:TrackPointExtension>
            <ns3:hr>142</ns3:hr>
            <ns3:cad>47</ns3:cad>
          </ns3:TrackPointExtension>
        </extensions>
      </trkpt>
      <trkpt lat="45.35311558283865451812744140625" lon="-70.81290272064507007598876953125">
        <ele>703.20001220703125</ele>
        <time>2026-08-21T11:13:05.000Z</time>
        <extensions>
          <ns3:TrackPointExtension>
            <ns3:hr>143</ns3:hr>
            <ns3:cad>46</ns3:cad>
          </ns3:TrackPointExtension>
        </extensions>
      </trkpt>
      <trkpt lat="45.353107452392578125" lon="-70.81289819441735744476318359375">
        <ele>703.4000244140625</ele>
        <time>2026-08-21T11:13:06.000Z</time>
        <extensions>
          <ns3:TrackPointExtension>
            <ns3:hr>144</ns3:hr>
            <ns3:cad>46</ns3:cad>
          </ns3:TrackPointExtension>
        </extensions>
      </trkpt>
      <trkpt lat="45.3530953824520111083984375" lon="-70.81289224326610565185546875">
        <ele>703.5999755859375</ele>
        <time>2026-08-21T11:13:07.000Z</time>
        <extensions>
          <ns3:TrackPointExtension>
            <ns3:hr>144</ns3:hr>
            <ns3:cad>46</ns3:cad>
          </ns3:TrackPointExtension>
        </extensions>
      </trkpt>
      <trkpt lat="45.35308532416820526123046875" lon="-70.81288729794323444366455078125">
        <ele>703.79998779296875</ele>
        <time>2026-08-21T11:13:08.000Z</time>
        <extensions>
          <ns3:TrackPointExtension>
            <ns3:hr>145</ns3:hr>
            <ns3:cad>46</ns3:cad>
          </ns3:TrackPointExtension>
        </extensions>
      </trkpt>
      <trkpt lat="45.3530766069889068603515625" lon="-70.81288562156260013580322265625">
        <ele>704</ele>
        <time>2026-08-21T11:13:09.000Z</time>
        <extensions>
          <ns3:TrackPointExtension>
            <ns3:hr>146</ns3:hr>
            <ns3:cad>46</ns3:cad>
          </ns3:TrackPointExtension>
        </extensions>
      </trkpt>
      <trkpt lat="45.35307115875184535980224609375" lon="-70.81288126297295093536376953125">
        <ele>704.20001220703125</ele>
        <time>2026-08-21T11:13:10.000Z</time>
        <extensions>
          <ns3:TrackPointExtension>
            <ns3:hr>146</ns3:hr>
            <ns3:cad>44</ns3:cad>
          </ns3:TrackPointExtension>
        </extensions>
      </trkpt>
      <trkpt lat="45.3530647046864032745361328125" lon="-70.812871791422367095947265625">
        <ele>704.5999755859375</ele>
        <time>2026-08-21T11:13:11.000Z</time>
        <extensions>
          <ns3:TrackPointExtension>
            <ns3:hr>146</ns3:hr>
            <ns3:cad>44</ns3:cad>
          </ns3:TrackPointExtension>
        </extensions>
      </trkpt>
      <trkpt lat="45.35305992700159549713134765625" lon="-70.81286215223371982574462890625">
        <ele>704.79998779296875</ele>
        <time>2026-08-21T11:13:12.000Z</time>
        <extensions>
          <ns3:TrackPointExtension>
            <ns3:hr>146</ns3:hr>
            <ns3:cad>44</ns3:cad>
          </ns3:TrackPointExtension>
        </extensions>
      </trkpt>
      <trkpt lat="45.3530578315258026123046875" lon="-70.81285427324473857879638671875">
        <ele>705.20001220703125</ele>
        <time>2026-08-21T11:13:13.000Z</time>
        <extensions>
          <ns3:TrackPointExtension>
            <ns3:hr>146</ns3:hr>
            <ns3:cad>41</ns3:cad>
          </ns3:TrackPointExtension>
        </extensions>
      </trkpt>
      <trkpt lat="45.3530512936413288116455078125" lon="-70.81284991465508937835693359375">
        <ele>705.4000244140625</ele>
        <time>2026-08-21T11:13:14.000Z</time>
        <extensions>
          <ns3:TrackPointExtension>
            <ns3:hr>146</ns3:hr>
            <ns3:cad>41</ns3:cad>
          </ns3:TrackPointExtension>
        </extensions>
      </trkpt>
      <trkpt lat="45.35304651595652103424072265625" lon="-70.812842957675457000732421875">
        <ele>705.5999755859375</ele>
        <time>2026-08-21T11:13:15.000Z</time>
        <extensions>
          <ns3:TrackPointExtension>
            <ns3:hr>146</ns3:hr>
            <ns3:cad>41</ns3:cad>
          </ns3:TrackPointExtension>
        </extensions>
      </trkpt>
      <trkpt lat="45.35303897224366664886474609375" lon="-70.81283415667712688446044921875">
        <ele>705.79998779296875</ele>
        <time>2026-08-21T11:13:16.000Z</time>
        <extensions>
          <ns3:TrackPointExtension>
            <ns3:hr>146</ns3:hr>
            <ns3:cad>41</ns3:cad>
          </ns3:TrackPointExtension>
        </extensions>
      </trkpt>
      <trkpt lat="45.353030674159526824951171875" lon="-70.8128226734697818756103515625">
        <ele>706</ele>
        <time>2026-08-21T11:13:17.000Z</time>
        <extensions>
          <ns3:TrackPointExtension>
            <ns3:hr>146</ns3:hr>
            <ns3:cad>41</ns3:cad>
          </ns3:TrackPointExtension>
        </extensions>
      </trkpt>
      <trkpt lat="45.35302556119859218597412109375" lon="-70.8128216676414012908935546875">
        <ele>706.20001220703125</ele>
        <time>2026-08-21T11:13:18.000Z</time>
        <extensions>
          <ns3:TrackPointExtension>
            <ns3:hr>146</ns3:hr>
            <ns3:cad>0</ns3:cad>
          </ns3:TrackPointExtension>
        </extensions>
      </trkpt>
      <trkpt lat="45.35302170552313327789306640625" lon="-70.81281353719532489776611328125">
        <ele>706.4000244140625</ele>
        <time>2026-08-21T11:13:19.000Z</time>
        <extensions>
          <ns3:TrackPointExtension>
            <ns3:hr>146</ns3:hr>
            <ns3:cad>0</ns3:cad>
          </ns3:TrackPointExtension>
        </extensions>
      </trkpt>
      <trkpt lat="45.35301282070577144622802734375" lon="-70.81279761157929897308349609375">
        <ele>706.5999755859375</ele>
        <time>2026-08-21T11:13:20.000Z</time>
        <extensions>
          <ns3:TrackPointExtension>
            <ns3:hr>146</ns3:hr>
            <ns3:cad>47</ns3:cad>
          </ns3:TrackPointExtension>
        </extensions>
      </trkpt>
      <trkpt lat="45.3530080430209636688232421875" lon="-70.81278420053422451019287109375">
        <ele>706.79998779296875</ele>
        <time>2026-08-21T11:13:21.000Z</time>
        <extensions>
          <ns3:TrackPointExtension>
            <ns3:hr>146</ns3:hr>
            <ns3:cad>47</ns3:cad>
          </ns3:TrackPointExtension>
        </extensions>
      </trkpt>
      <trkpt lat="45.35300477407872676849365234375" lon="-70.81277464516460895538330078125">
        <ele>707</ele>
        <time>2026-08-21T11:13:22.000Z</time>
        <extensions>
          <ns3:TrackPointExtension>
            <ns3:hr>146</ns3:hr>
            <ns3:cad>47</ns3:cad>
          </ns3:TrackPointExtension>
        </extensions>
      </trkpt>
      <trkpt lat="45.35300024785101413726806640625" lon="-70.81276257522404193878173828125">
        <ele>707.20001220703125</ele>
        <time>2026-08-21T11:13:23.000Z</time>
        <extensions>
          <ns3:TrackPointExtension>
            <ns3:hr>147</ns3:hr>
            <ns3:cad>46</ns3:cad>
          </ns3:TrackPointExtension>
        </extensions>
      </trkpt>
      <trkpt lat="45.35299672745168209075927734375" lon="-70.81275234930217266082763671875">
        <ele>707.4000244140625</ele>
        <time>2026-08-21T11:13:24.000Z</time>
        <extensions>
          <ns3:TrackPointExtension>
            <ns3:hr>146</ns3:hr>
            <ns3:cad>46</ns3:cad>
          </ns3:TrackPointExtension>
        </extensions>
      </trkpt>
      <trkpt lat="45.35298985429108142852783203125" lon="-70.812734328210353851318359375">
        <ele>707.5999755859375</ele>
        <time>2026-08-21T11:13:25.000Z</time>
        <extensions>
          <ns3:TrackPointExtension>
            <ns3:hr>146</ns3:hr>
            <ns3:cad>45</ns3:cad>
          </ns3:TrackPointExtension>
        </extensions>
      </trkpt>
      <trkpt lat="45.35298549570143222808837890625" lon="-70.8127207495272159576416015625">
        <ele>707.79998779296875</ele>
        <time>2026-08-21T11:13:26.000Z</time>
        <extensions>
          <ns3:TrackPointExtension>
            <ns3:hr>147</ns3:hr>
            <ns3:cad>45</ns3:cad>
          </ns3:TrackPointExtension>
        </extensions>
      </trkpt>
      <trkpt lat="45.35298448987305164337158203125" lon="-70.812714211642742156982421875">
        <ele>708</ele>
        <time>2026-08-21T11:13:27.000Z</time>
        <extensions>
          <ns3:TrackPointExtension>
            <ns3:hr>148</ns3:hr>
            <ns3:cad>47</ns3:cad>
          </ns3:TrackPointExtension>
        </extensions>
      </trkpt>
      <trkpt lat="45.3529802151024341583251953125" lon="-70.8127019740641117095947265625">
        <ele>708.20001220703125</ele>
        <time>2026-08-21T11:13:28.000Z</time>
        <extensions>
          <ns3:TrackPointExtension>
            <ns3:hr>148</ns3:hr>
            <ns3:cad>47</ns3:cad>
          </ns3:TrackPointExtension>
        </extensions>
      </trkpt>
      <trkpt lat="45.35297535359859466552734375" lon="-70.812690071761608123779296875">
        <ele>708.4000244140625</ele>
        <time>2026-08-21T11:13:29.000Z</time>
        <extensions>
          <ns3:TrackPointExtension>
            <ns3:hr>148</ns3:hr>
            <ns3:cad>47</ns3:cad>
          </ns3:TrackPointExtension>
        </extensions>
      </trkpt>
      <trkpt lat="45.3529688157141208648681640625" lon="-70.81267959438264369964599609375">
        <ele>708.79998779296875</ele>
        <time>2026-08-21T11:13:30.000Z</time>
        <extensions>
          <ns3:TrackPointExtension>
            <ns3:hr>148</ns3:hr>
            <ns3:cad>47</ns3:cad>
          </ns3:TrackPointExtension>
        </extensions>
      </trkpt>
      <trkpt lat="45.35296286456286907196044921875" lon="-70.8126744814217090606689453125">
        <ele>709</ele>
        <time>2026-08-21T11:13:31.000Z</time>
        <extensions>
          <ns3:TrackPointExtension>
            <ns3:hr>148</ns3:hr>
            <ns3:cad>47</ns3:cad>
          </ns3:TrackPointExtension>
        </extensions>
      </trkpt>
      <trkpt lat="45.3529564104974269866943359375" lon="-70.81266651861369609832763671875">
        <ele>709.20001220703125</ele>
        <time>2026-08-21T11:13:32.000Z</time>
        <extensions>
          <ns3:TrackPointExtension>
            <ns3:hr>148</ns3:hr>
            <ns3:cad>0</ns3:cad>
          </ns3:TrackPointExtension>
        </extensions>
      </trkpt>
      <trkpt lat="45.352952890098094940185546875" lon="-70.81265662796795368194580078125">
        <ele>709.4000244140625</ele>
        <time>2026-08-21T11:13:33.000Z</time>
        <extensions>
          <ns3:TrackPointExtension>
            <ns3:hr>148</ns3:hr>
            <ns3:cad>0</ns3:cad>
          </ns3:TrackPointExtension>
        </extensions>
      </trkpt>
      <trkpt lat="45.35294978879392147064208984375" lon="-70.81264388747513294219970703125">
        <ele>709.5999755859375</ele>
        <time>2026-08-21T11:13:34.000Z</time>
        <extensions>
          <ns3:TrackPointExtension>
            <ns3:hr>148</ns3:hr>
            <ns3:cad>0</ns3:cad>
          </ns3:TrackPointExtension>
        </extensions>
      </trkpt>
      <trkpt lat="45.35295247100293636322021484375" lon="-70.8126396127045154571533203125">
        <ele>709.79998779296875</ele>
        <time>2026-08-21T11:13:35.000Z</time>
        <extensions>
          <ns3:TrackPointExtension>
            <ns3:hr>148</ns3:hr>
            <ns3:cad>0</ns3:cad>
          </ns3:TrackPointExtension>
        </extensions>
      </trkpt>
      <trkpt lat="45.3529507108032703399658203125" lon="-70.8126298896968364715576171875">
        <ele>710</ele>
        <time>2026-08-21T11:13:36.000Z</time>
        <extensions>
          <ns3:TrackPointExtension>
            <ns3:hr>148</ns3:hr>
            <ns3:cad>0</ns3:cad>
          </ns3:TrackPointExtension>
        </extensions>
      </trkpt>
      <trkpt lat="45.35294727422297000885009765625" lon="-70.81261974759399890899658203125">
        <ele>710.4000244140625</ele>
        <time>2026-08-21T11:13:37.000Z</time>
        <extensions>
          <ns3:TrackPointExtension>
            <ns3:hr>148</ns3:hr>
            <ns3:cad>0</ns3:cad>
          </ns3:TrackPointExtension>
        </extensions>
      </trkpt>
      <trkpt lat="45.35294509492814540863037109375" lon="-70.8126131258904933929443359375">
        <ele>710.5999755859375</ele>
        <time>2026-08-21T11:13:38.000Z</time>
        <extensions>
          <ns3:TrackPointExtension>
            <ns3:hr>148</ns3:hr>
            <ns3:cad>0</ns3:cad>
          </ns3:TrackPointExtension>
        </extensions>
      </trkpt>
      <trkpt lat="45.3529416583478450775146484375" lon="-70.81259963102638721466064453125">
        <ele>710.79998779296875</ele>
        <time>2026-08-21T11:13:39.000Z</time>
        <extensions>
          <ns3:TrackPointExtension>
            <ns3:hr>148</ns3:hr>
            <ns3:cad>43</ns3:cad>
          </ns3:TrackPointExtension>
        </extensions>
      </trkpt>
      <trkpt lat="45.35294190980494022369384765625" lon="-70.81258714199066162109375">
        <ele>711</ele>
        <time>2026-08-21T11:13:40.000Z</time>
        <extensions>
          <ns3:TrackPointExtension>
            <ns3:hr>148</ns3:hr>
            <ns3:cad>43</ns3:cad>
          </ns3:TrackPointExtension>
        </extensions>
      </trkpt>
      <trkpt lat="45.35294258035719394683837890625" lon="-70.81258320249617099761962890625">
        <ele>711.20001220703125</ele>
        <time>2026-08-21T11:13:41.000Z</time>
        <extensions>
          <ns3:TrackPointExtension>
            <ns3:hr>148</ns3:hr>
            <ns3:cad>43</ns3:cad>
          </ns3:TrackPointExtension>
        </extensions>
      </trkpt>
      <trkpt lat="45.35294182598590850830078125" lon="-70.8125742338597774505615234375">
        <ele>711.4000244140625</ele>
        <time>2026-08-21T11:13:42.000Z</time>
        <extensions>
          <ns3:TrackPointExtension>
            <ns3:hr>148</ns3:hr>
            <ns3:cad>41</ns3:cad>
          </ns3:TrackPointExtension>
        </extensions>
      </trkpt>
      <trkpt lat="45.3529356233775615692138671875" lon="-70.81256124190986156463623046875">
        <ele>711.5999755859375</ele>
        <time>2026-08-21T11:13:43.000Z</time>
        <extensions>
          <ns3:TrackPointExtension>
            <ns3:hr>148</ns3:hr>
            <ns3:cad>41</ns3:cad>
          </ns3:TrackPointExtension>
        </extensions>
      </trkpt>
      <trkpt lat="45.3529366292059421539306640625" lon="-70.8125561289489269256591796875">
        <ele>712</ele>
        <time>2026-08-21T11:13:44.000Z</time>
        <extensions>
          <ns3:TrackPointExtension>
            <ns3:hr>147</ns3:hr>
            <ns3:cad>41</ns3:cad>
          </ns3:TrackPointExtension>
        </extensions>
      </trkpt>
      <trkpt lat="45.35293512046337127685546875" lon="-70.81254221498966217041015625">
        <ele>712.20001220703125</ele>
        <time>2026-08-21T11:13:45.000Z</time>
        <extensions>
          <ns3:TrackPointExtension>
            <ns3:hr>147</ns3:hr>
            <ns3:cad>41</ns3:cad>
          </ns3:TrackPointExtension>
        </extensions>
      </trkpt>
      <trkpt lat="45.3529349528253078460693359375" lon="-70.81253743730485439300537109375">
        <ele>712.5999755859375</ele>
        <time>2026-08-21T11:13:46.000Z</time>
        <extensions>
          <ns3:TrackPointExtension>
            <ns3:hr>146</ns3:hr>
            <ns3:cad>41</ns3:cad>
          </ns3:TrackPointExtension>
        </extensions>
      </trkpt>
      <trkpt lat="45.352933108806610107421875" lon="-70.81252804957330226898193359375">
        <ele>712.79998779296875</ele>
        <time>2026-08-21T11:13:47.000Z</time>
        <extensions>
          <ns3:TrackPointExtension>
            <ns3:hr>146</ns3:hr>
            <ns3:cad>41</ns3:cad>
          </ns3:TrackPointExtension>
        </extensions>
      </trkpt>
      <trkpt lat="45.3529305942356586456298828125" lon="-70.81251631490886211395263671875">
        <ele>713</ele>
        <time>2026-08-21T11:13:48.000Z</time>
        <extensions>
          <ns3:TrackPointExtension>
            <ns3:hr>146</ns3:hr>
            <ns3:cad>41</ns3:cad>
          </ns3:TrackPointExtension>
        </extensions>
      </trkpt>
      <trkpt lat="45.35292799584567546844482421875" lon="-70.8125135488808155059814453125">
        <ele>713.4000244140625</ele>
        <time>2026-08-21T11:13:49.000Z</time>
        <extensions>
          <ns3:TrackPointExtension>
            <ns3:hr>146</ns3:hr>
            <ns3:cad>41</ns3:cad>
          </ns3:TrackPointExtension>
        </extensions>
      </trkpt>
      <trkpt lat="45.35292548127472400665283203125" lon="-70.81250977702438831329345703125">
        <ele>713.5999755859375</ele>
        <time>2026-08-21T11:13:50.000Z</time>
        <extensions>
          <ns3:TrackPointExtension>
            <ns3:hr>146</ns3:hr>
            <ns3:cad>41</ns3:cad>
          </ns3:TrackPointExtension>
        </extensions>
      </trkpt>
      <trkpt lat="45.3529235534369945526123046875" lon="-70.81250441260635852813720703125">
        <ele>713.79998779296875</ele>
        <time>2026-08-21T11:13:51.000Z</time>
        <extensions>
          <ns3:TrackPointExtension>
            <ns3:hr>146</ns3:hr>
            <ns3:cad>0</ns3:cad>
          </ns3:TrackPointExtension>
        </extensions>
      </trkpt>
      <trkpt lat="45.3529210388660430908203125" lon="-70.812492929399013519287109375">
        <ele>714</ele>
        <time>2026-08-21T11:13:52.000Z</time>
        <extensions>
          <ns3:TrackPointExtension>
            <ns3:hr>146</ns3:hr>
            <ns3:cad>0</ns3:cad>
          </ns3:TrackPointExtension>
        </extensions>
      </trkpt>
      <trkpt lat="45.35291391424834728240966796875" lon="-70.81248194910585880279541015625">
        <ele>714.4000244140625</ele>
        <time>2026-08-21T11:13:53.000Z</time>
        <extensions>
          <ns3:TrackPointExtension>
            <ns3:hr>146</ns3:hr>
            <ns3:cad>0</ns3:cad>
          </ns3:TrackPointExtension>
        </extensions>
      </trkpt>
      <trkpt lat="45.35290972329676151275634765625" lon="-70.81247222609817981719970703125">
        <ele>714.5999755859375</ele>
        <time>2026-08-21T11:13:54.000Z</time>
        <extensions>
          <ns3:TrackPointExtension>
            <ns3:hr>146</ns3:hr>
            <ns3:cad>0</ns3:cad>
          </ns3:TrackPointExtension>
        </extensions>
      </trkpt>
      <trkpt lat="45.35289949737489223480224609375" lon="-70.81245931796729564666748046875">
        <ele>714.79998779296875</ele>
        <time>2026-08-21T11:13:55.000Z</time>
        <extensions>
          <ns3:TrackPointExtension>
            <ns3:hr>146</ns3:hr>
            <ns3:cad>0</ns3:cad>
          </ns3:TrackPointExtension>
        </extensions>
      </trkpt>
      <trkpt lat="45.35289145074784755706787109375" lon="-70.8124481700360774993896484375">
        <ele>714.79998779296875</ele>
        <time>2026-08-21T11:13:56.000Z</time>
        <extensions>
          <ns3:TrackPointExtension>
            <ns3:hr>146</ns3:hr>
            <ns3:cad>0</ns3:cad>
          </ns3:TrackPointExtension>
        </extensions>
      </trkpt>
      <trkpt lat="45.3528846614062786102294921875" lon="-70.812434256076812744140625">
        <ele>715</ele>
        <time>2026-08-21T11:13:57.000Z</time>
        <extensions>
          <ns3:TrackPointExtension>
            <ns3:hr>147</ns3:hr>
            <ns3:cad>0</ns3:cad>
          </ns3:TrackPointExtension>
        </extensions>
      </trkpt>
      <trkpt lat="45.3528799675405025482177734375" lon="-70.812423527240753173828125">
        <ele>715.20001220703125</ele>
        <time>2026-08-21T11:13:58.000Z</time>
        <extensions>
          <ns3:TrackPointExtension>
            <ns3:hr>148</ns3:hr>
            <ns3:cad>45</ns3:cad>
          </ns3:TrackPointExtension>
        </extensions>
      </trkpt>
      <trkpt lat="45.3528752736747264862060546875" lon="-70.8124133013188838958740234375">
        <ele>715.4000244140625</ele>
        <time>2026-08-21T11:13:59.000Z</time>
        <extensions>
          <ns3:TrackPointExtension>
            <ns3:hr>148</ns3:hr>
            <ns3:cad>45</ns3:cad>
          </ns3:TrackPointExtension>
        </extensions>
      </trkpt>
      <trkpt lat="45.35286806523799896240234375" lon="-70.81239645369350910186767578125">
        <ele>715.4000244140625</ele>
        <time>2026-08-21T11:14:00.000Z</time>
        <extensions>
          <ns3:TrackPointExtension>
            <ns3:hr>148</ns3:hr>
            <ns3:cad>45</ns3:cad>
          </ns3:TrackPointExtension>
        </extensions>
      </trkpt>
      <trkpt lat="45.35285859368741512298583984375" lon="-70.81237801350653171539306640625">
        <ele>715.5999755859375</ele>
        <time>2026-08-21T11:14:01.000Z</time>
        <extensions>
          <ns3:TrackPointExtension>
            <ns3:hr>148</ns3:hr>
            <ns3:cad>47</ns3:cad>
          </ns3:TrackPointExtension>
        </extensions>
      </trkpt>
      <trkpt lat="45.35284928977489471435546875" lon="-70.8123713918030261993408203125">
        <ele>715.79998779296875</ele>
        <time>2026-08-21T11:14:02.000Z</time>
        <extensions>
          <ns3:TrackPointExtension>
            <ns3:hr>148</ns3:hr>
            <ns3:cad>47</ns3:cad>
          </ns3:TrackPointExtension>
        </extensions>
      </trkpt>
      <trkpt lat="45.35283914767205715179443359375" lon="-70.8123672008514404296875">
        <ele>716</ele>
        <time>2026-08-21T11:14:03.000Z</time>
        <extensions>
          <ns3:TrackPointExtension>
            <ns3:hr>148</ns3:hr>
            <ns3:cad>47</ns3:cad>
          </ns3:TrackPointExtension>
        </extensions>
      </trkpt>
      <trkpt lat="45.35282707773149013519287109375" lon="-70.81236544065177440643310546875">
        <ele>716.20001220703125</ele>
        <time>2026-08-21T11:14:04.000Z</time>
        <extensions>
          <ns3:TrackPointExtension>
            <ns3:hr>149</ns3:hr>
            <ns3:cad>47</ns3:cad>
          </ns3:TrackPointExtension>
        </extensions>
      </trkpt>
      <trkpt lat="45.35281199030578136444091796875" lon="-70.81236384809017181396484375">
        <ele>716.4000244140625</ele>
        <time>2026-08-21T11:14:05.000Z</time>
        <extensions>
          <ns3:TrackPointExtension>
            <ns3:hr>149</ns3:hr>
            <ns3:cad>47</ns3:cad>
          </ns3:TrackPointExtension>
        </extensions>
      </trkpt>
      <trkpt lat="45.35279472358524799346923828125" lon="-70.812360160052776336669921875">
        <ele>716.5999755859375</ele>
        <time>2026-08-21T11:14:06.000Z</time>
        <extensions>
          <ns3:TrackPointExtension>
            <ns3:hr>149</ns3:hr>
            <ns3:cad>46</ns3:cad>
          </ns3:TrackPointExtension>
        </extensions>
      </trkpt>
      <trkpt lat="45.3527800552546977996826171875" lon="-70.812356807291507720947265625">
        <ele>716.5999755859375</ele>
        <time>2026-08-21T11:14:07.000Z</time>
        <extensions>
          <ns3:TrackPointExtension>
            <ns3:hr>150</ns3:hr>
            <ns3:cad>46</ns3:cad>
          </ns3:TrackPointExtension>
        </extensions>
      </trkpt>
      <trkpt lat="45.35276723094284534454345703125" lon="-70.81235638819634914398193359375">
        <ele>716.79998779296875</ele>
        <time>2026-08-21T11:14:08.000Z</time>
        <extensions>
          <ns3:TrackPointExtension>
            <ns3:hr>150</ns3:hr>
            <ns3:cad>47</ns3:cad>
          </ns3:TrackPointExtension>
        </extensions>
      </trkpt>
      <trkpt lat="45.35275046713650226593017578125" lon="-70.8123549632728099822998046875">
        <ele>717</ele>
        <time>2026-08-21T11:14:09.000Z</time>
        <extensions>
          <ns3:TrackPointExtension>
            <ns3:hr>150</ns3:hr>
            <ns3:cad>47</ns3:cad>
          </ns3:TrackPointExtension>
        </extensions>
      </trkpt>
      <trkpt lat="45.35273973830044269561767578125" lon="-70.8123586513102054595947265625">
        <ele>717.20001220703125</ele>
        <time>2026-08-21T11:14:10.000Z</time>
        <extensions>
          <ns3:TrackPointExtension>
            <ns3:hr>150</ns3:hr>
            <ns3:cad>0</ns3:cad>
          </ns3:TrackPointExtension>
        </extensions>
      </trkpt>
      <trkpt lat="45.35272498615086078643798828125" lon="-70.81236384809017181396484375">
        <ele>717.20001220703125</ele>
        <time>2026-08-21T11:14:11.000Z</time>
        <extensions>
          <ns3:TrackPointExtension>
            <ns3:hr>150</ns3:hr>
            <ns3:cad>0</ns3:cad>
          </ns3:TrackPointExtension>
        </extensions>
      </trkpt>
      <trkpt lat="45.352707803249359130859375" lon="-70.81236393190920352935791015625">
        <ele>717.20001220703125</ele>
        <time>2026-08-21T11:14:12.000Z</time>
        <extensions>
          <ns3:TrackPointExtension>
            <ns3:hr>150</ns3:hr>
            <ns3:cad>0</ns3:cad>
          </ns3:TrackPointExtension>
        </extensions>
      </trkpt>
      <trkpt lat="45.352692715823650360107421875" lon="-70.81236510537564754486083984375">
        <ele>717</ele>
        <time>2026-08-21T11:14:13.000Z</time>
        <extensions>
          <ns3:TrackPointExtension>
            <ns3:hr>150</ns3:hr>
            <ns3:cad>48</ns3:cad>
          </ns3:TrackPointExtension>
        </extensions>
      </trkpt>
      <trkpt lat="45.352679304778575897216796875" lon="-70.8123656921088695526123046875">
        <ele>717</ele>
        <time>2026-08-21T11:14:14.000Z</time>
        <extensions>
          <ns3:TrackPointExtension>
            <ns3:hr>150</ns3:hr>
            <ns3:cad>48</ns3:cad>
          </ns3:TrackPointExtension>
        </extensions>
      </trkpt>
      <trkpt lat="45.35266446880996227264404296875" lon="-70.812366195023059844970703125">
        <ele>716.79998779296875</ele>
        <time>2026-08-21T11:14:15.000Z</time>
        <extensions>
          <ns3:TrackPointExtension>
            <ns3:hr>150</ns3:hr>
            <ns3:cad>48</ns3:cad>
          </ns3:TrackPointExtension>
        </extensions>
      </trkpt>
      <trkpt lat="45.3526501357555389404296875" lon="-70.81236518919467926025390625">
        <ele>716.79998779296875</ele>
        <time>2026-08-21T11:14:16.000Z</time>
        <extensions>
          <ns3:TrackPointExtension>
            <ns3:hr>150</ns3:hr>
            <ns3:cad>0</ns3:cad>
          </ns3:TrackPointExtension>
        </extensions>
      </trkpt>
      <trkpt lat="45.352637059986591339111328125" lon="-70.81236460246145725250244140625">
        <ele>716.79998779296875</ele>
        <time>2026-08-21T11:14:17.000Z</time>
        <extensions>
          <ns3:TrackPointExtension>
            <ns3:hr>150</ns3:hr>
            <ns3:cad>0</ns3:cad>
          </ns3:TrackPointExtension>
        </extensions>
      </trkpt>
      <trkpt lat="45.35262557677924633026123046875" lon="-70.81236259080469608306884765625">
        <ele>717</ele>
        <time>2026-08-21T11:14:18.000Z</time>
        <extensions>
          <ns3:TrackPointExtension>
            <ns3:hr>150</ns3:hr>
            <ns3:cad>0</ns3:cad>
          </ns3:TrackPointExtension>
        </extensions>
      </trkpt>
      <trkpt lat="45.35261317156255245208740234375" lon="-70.812358818948268890380859375">
        <ele>717</ele>
        <time>2026-08-21T11:14:19.000Z</time>
        <extensions>
          <ns3:TrackPointExtension>
            <ns3:hr>150</ns3:hr>
            <ns3:cad>0</ns3:cad>
          </ns3:TrackPointExtension>
        </extensions>
      </trkpt>
      <trkpt lat="45.35260546021163463592529296875" lon="-70.81235848367214202880859375">
        <ele>717.20001220703125</ele>
        <time>2026-08-21T11:14:20.000Z</time>
        <extensions>
          <ns3:TrackPointExtension>
            <ns3:hr>150</ns3:hr>
            <ns3:cad>0</ns3:cad>
          </ns3:TrackPointExtension>
        </extensions>
      </trkpt>
      <trkpt lat="45.35259104333817958831787109375" lon="-70.81235655583441257476806640625">
        <ele>717.20001220703125</ele>
        <time>2026-08-21T11:14:21.000Z</time>
        <extensions>
          <ns3:TrackPointExtension>
            <ns3:hr>150</ns3:hr>
            <ns3:cad>0</ns3:cad>
          </ns3:TrackPointExtension>
        </extensions>
      </trkpt>
      <trkpt lat="45.35258777439594268798828125" lon="-70.812345407903194427490234375">
        <ele>717.4000244140625</ele>
        <time>2026-08-21T11:14:22.000Z</time>
        <extensions>
          <ns3:TrackPointExtension>
            <ns3:hr>150</ns3:hr>
            <ns3:cad>53</ns3:cad>
          </ns3:TrackPointExtension>
        </extensions>
      </trkpt>
      <trkpt lat="45.35258433781564235687255859375" lon="-70.8123385347425937652587890625">
        <ele>717.5999755859375</ele>
        <time>2026-08-21T11:14:23.000Z</time>
        <extensions>
          <ns3:TrackPointExtension>
            <ns3:hr>150</ns3:hr>
            <ns3:cad>0</ns3:cad>
          </ns3:TrackPointExtension>
        </extensions>
      </trkpt>
      <trkpt lat="45.35258232615888118743896484375" lon="-70.81232923083007335662841796875">
        <ele>717.5999755859375</ele>
        <time>2026-08-21T11:14:24.000Z</time>
        <extensions>
          <ns3:TrackPointExtension>
            <ns3:hr>150</ns3:hr>
            <ns3:cad>0</ns3:cad>
          </ns3:TrackPointExtension>
        </extensions>
      </trkpt>
      <trkpt lat="45.35257830284535884857177734375" lon="-70.81231447868049144744873046875">
        <ele>717.79998779296875</ele>
        <time>2026-08-21T11:14:25.000Z</time>
        <extensions>
          <ns3:TrackPointExtension>
            <ns3:hr>149</ns3:hr>
            <ns3:cad>0</ns3:cad>
          </ns3:TrackPointExtension>
        </extensions>
      </trkpt>
      <trkpt lat="45.35257159732282161712646484375" lon="-70.81230240873992443084716796875">
        <ele>718</ele>
        <time>2026-08-21T11:14:26.000Z</time>
        <extensions>
          <ns3:TrackPointExtension>
            <ns3:hr>149</ns3:hr>
            <ns3:cad>0</ns3:cad>
          </ns3:TrackPointExtension>
        </extensions>
      </trkpt>
      <trkpt lat="45.35256807692348957061767578125" lon="-70.81228899769484996795654296875">
        <ele>718.20001220703125</ele>
        <time>2026-08-21T11:14:27.000Z</time>
        <extensions>
          <ns3:TrackPointExtension>
            <ns3:hr>148</ns3:hr>
            <ns3:cad>53</ns3:cad>
          </ns3:TrackPointExtension>
        </extensions>
      </trkpt>
      <trkpt lat="45.35256572999060153961181640625" lon="-70.81228338181972503662109375">
        <ele>718.5999755859375</ele>
        <time>2026-08-21T11:14:28.000Z</time>
        <extensions>
          <ns3:TrackPointExtension>
            <ns3:hr>147</ns3:hr>
            <ns3:cad>53</ns3:cad>
          </ns3:TrackPointExtension>
        </extensions>
      </trkpt>
      <trkpt lat="45.35256371833384037017822265625" lon="-70.81227089278399944305419921875">
        <ele>718.79998779296875</ele>
        <time>2026-08-21T11:14:29.000Z</time>
        <extensions>
          <ns3:TrackPointExtension>
            <ns3:hr>146</ns3:hr>
            <ns3:cad>47</ns3:cad>
          </ns3:TrackPointExtension>
        </extensions>
      </trkpt>
      <trkpt lat="45.35256103612482547760009765625" lon="-70.81225463189184665679931640625">
        <ele>719</ele>
        <time>2026-08-21T11:14:30.000Z</time>
        <extensions>
          <ns3:TrackPointExtension>
            <ns3:hr>144</ns3:hr>
            <ns3:cad>47</ns3:cad>
          </ns3:TrackPointExtension>
        </extensions>
      </trkpt>
      <trkpt lat="45.35255768336355686187744140625" lon="-70.81223233602941036224365234375">
        <ele>719.20001220703125</ele>
        <time>2026-08-21T11:14:31.000Z</time>
        <extensions>
          <ns3:TrackPointExtension>
            <ns3:hr>143</ns3:hr>
            <ns3:cad>47</ns3:cad>
          </ns3:TrackPointExtension>
        </extensions>
      </trkpt>
      <trkpt lat="45.3525503911077976226806640625" lon="-70.81221230328083038330078125">
        <ele>719.5999755859375</ele>
        <time>2026-08-21T11:14:32.000Z</time>
        <extensions>
          <ns3:TrackPointExtension>
            <ns3:hr>142</ns3:hr>
            <ns3:cad>47</ns3:cad>
          </ns3:TrackPointExtension>
        </extensions>
      </trkpt>
      <trkpt lat="45.35254351794719696044921875" lon="-70.81219461746513843536376953125">
        <ele>719.79998779296875</ele>
        <time>2026-08-21T11:14:33.000Z</time>
        <extensions>
          <ns3:TrackPointExtension>
            <ns3:hr>141</ns3:hr>
            <ns3:cad>47</ns3:cad>
          </ns3:TrackPointExtension>
        </extensions>
      </trkpt>
      <trkpt lat="45.3525369800627231597900390625" lon="-70.8121816255152225494384765625">
        <ele>720</ele>
        <time>2026-08-21T11:14:34.000Z</time>
        <extensions>
          <ns3:TrackPointExtension>
            <ns3:hr>141</ns3:hr>
            <ns3:cad>51</ns3:cad>
          </ns3:TrackPointExtension>
        </extensions>
      </trkpt>
      <trkpt lat="45.35252952016890048980712890625" lon="-70.81216846592724323272705078125">
        <ele>720.20001220703125</ele>
        <time>2026-08-21T11:14:35.000Z</time>
        <extensions>
          <ns3:TrackPointExtension>
            <ns3:hr>141</ns3:hr>
            <ns3:cad>51</ns3:cad>
          </ns3:TrackPointExtension>
        </extensions>
      </trkpt>
      <trkpt lat="45.35251745022833347320556640625" lon="-70.8121491037309169769287109375">
        <ele>720.4000244140625</ele>
        <time>2026-08-21T11:14:36.000Z</time>
        <extensions>
          <ns3:TrackPointExtension>
            <ns3:hr>141</ns3:hr>
            <ns3:cad>51</ns3:cad>
          </ns3:TrackPointExtension>
        </extensions>
      </trkpt>
      <trkpt lat="45.35250286571681499481201171875" lon="-70.81214147619903087615966796875">
        <ele>720.5999755859375</ele>
        <time>2026-08-21T11:14:37.000Z</time>
        <extensions>
          <ns3:TrackPointExtension>
            <ns3:hr>142</ns3:hr>
            <ns3:cad>50</ns3:cad>
          </ns3:TrackPointExtension>
        </extensions>
      </trkpt>
      <trkpt lat="45.3524893708527088165283203125" lon="-70.812135525047779083251953125">
        <ele>720.5999755859375</ele>
        <time>2026-08-21T11:14:38.000Z</time>
        <extensions>
          <ns3:TrackPointExtension>
            <ns3:hr>142</ns3:hr>
            <ns3:cad>50</ns3:cad>
          </ns3:TrackPointExtension>
        </extensions>
      </trkpt>
      <trkpt lat="45.35247805528342723846435546875" lon="-70.81212890334427356719970703125">
        <ele>720.79998779296875</ele>
        <time>2026-08-21T11:14:39.000Z</time>
        <extensions>
          <ns3:TrackPointExtension>
            <ns3:hr>142</ns3:hr>
            <ns3:cad>48</ns3:cad>
          </ns3:TrackPointExtension>
        </extensions>
      </trkpt>
      <trkpt lat="45.35246707499027252197265625" lon="-70.81212337128818035125732421875">
        <ele>721</ele>
        <time>2026-08-21T11:14:40.000Z</time>
        <extensions>
          <ns3:TrackPointExtension>
            <ns3:hr>142</ns3:hr>
            <ns3:cad>48</ns3:cad>
          </ns3:TrackPointExtension>
        </extensions>
      </trkpt>
      <trkpt lat="45.3524543344974517822265625" lon="-70.81211800687015056610107421875">
        <ele>721.20001220703125</ele>
        <time>2026-08-21T11:14:41.000Z</time>
        <extensions>
          <ns3:TrackPointExtension>
            <ns3:hr>142</ns3:hr>
            <ns3:cad>48</ns3:cad>
          </ns3:TrackPointExtension>
        </extensions>
      </trkpt>
      <trkpt lat="45.3524409234523773193359375" lon="-70.812110714614391326904296875">
        <ele>721.20001220703125</ele>
        <time>2026-08-21T11:14:42.000Z</time>
        <extensions>
          <ns3:TrackPointExtension>
            <ns3:hr>142</ns3:hr>
            <ns3:cad>49</ns3:cad>
          </ns3:TrackPointExtension>
        </extensions>
      </trkpt>
      <trkpt lat="45.3524273447692394256591796875" lon="-70.8121041767299175262451171875">
        <ele>721.4000244140625</ele>
        <time>2026-08-21T11:14:43.000Z</time>
        <extensions>
          <ns3:TrackPointExtension>
            <ns3:hr>142</ns3:hr>
            <ns3:cad>49</ns3:cad>
          </ns3:TrackPointExtension>
        </extensions>
      </trkpt>
      <trkpt lat="45.3524135984480381011962890625" lon="-70.81210006959736347198486328125">
        <ele>721.5999755859375</ele>
        <time>2026-08-21T11:14:44.000Z</time>
        <extensions>
          <ns3:TrackPointExtension>
            <ns3:hr>142</ns3:hr>
            <ns3:cad>50</ns3:cad>
          </ns3:TrackPointExtension>
        </extensions>
      </trkpt>
      <trkpt lat="45.3524015285074710845947265625" lon="-70.812097974121570587158203125">
        <ele>721.79998779296875</ele>
        <time>2026-08-21T11:14:45.000Z</time>
        <extensions>
          <ns3:TrackPointExtension>
            <ns3:hr>142</ns3:hr>
            <ns3:cad>50</ns3:cad>
          </ns3:TrackPointExtension>
        </extensions>
      </trkpt>
      <trkpt lat="45.35239222459495067596435546875" lon="-70.8120954595506191253662109375">
        <ele>721.79998779296875</ele>
        <time>2026-08-21T11:14:46.000Z</time>
        <extensions>
          <ns3:TrackPointExtension>
            <ns3:hr>142</ns3:hr>
            <ns3:cad>50</ns3:cad>
          </ns3:TrackPointExtension>
        </extensions>
      </trkpt>
      <trkpt lat="45.35238065756857395172119140625" lon="-70.8120895922183990478515625">
        <ele>722</ele>
        <time>2026-08-21T11:14:47.000Z</time>
        <extensions>
          <ns3:TrackPointExtension>
            <ns3:hr>142</ns3:hr>
            <ns3:cad>49</ns3:cad>
          </ns3:TrackPointExtension>
        </extensions>
      </trkpt>
      <trkpt lat="45.35237244330346584320068359375" lon="-70.81208263523876667022705078125">
        <ele>722</ele>
        <time>2026-08-21T11:14:48.000Z</time>
        <extensions>
          <ns3:TrackPointExtension>
            <ns3:hr>142</ns3:hr>
            <ns3:cad>49</ns3:cad>
          </ns3:TrackPointExtension>
        </extensions>
      </trkpt>
      <trkpt lat="45.35236305557191371917724609375" lon="-70.8120723254978656768798828125">
        <ele>722.20001220703125</ele>
        <time>2026-08-21T11:14:49.000Z</time>
        <extensions>
          <ns3:TrackPointExtension>
            <ns3:hr>143</ns3:hr>
            <ns3:cad>50</ns3:cad>
          </ns3:TrackPointExtension>
        </extensions>
      </trkpt>
      <trkpt lat="45.35234863869845867156982421875" lon="-70.81206402741372585296630859375">
        <ele>722.20001220703125</ele>
        <time>2026-08-21T11:14:50.000Z</time>
        <extensions>
          <ns3:TrackPointExtension>
            <ns3:hr>143</ns3:hr>
            <ns3:cad>50</ns3:cad>
          </ns3:TrackPointExtension>
        </extensions>
      </trkpt>
      <trkpt lat="45.3523314557969570159912109375" lon="-70.81205782480537891387939453125">
        <ele>722.4000244140625</ele>
        <time>2026-08-21T11:14:51.000Z</time>
        <extensions>
          <ns3:TrackPointExtension>
            <ns3:hr>143</ns3:hr>
            <ns3:cad>51</ns3:cad>
          </ns3:TrackPointExtension>
        </extensions>
      </trkpt>
      <trkpt lat="45.3523153625428676605224609375" lon="-70.81205229274928569793701171875">
        <ele>722.5999755859375</ele>
        <time>2026-08-21T11:14:52.000Z</time>
        <extensions>
          <ns3:TrackPointExtension>
            <ns3:hr>144</ns3:hr>
            <ns3:cad>51</ns3:cad>
          </ns3:TrackPointExtension>
        </extensions>
      </trkpt>
      <trkpt lat="45.35230220295488834381103515625" lon="-70.8120481856167316436767578125">
        <ele>722.5999755859375</ele>
        <time>2026-08-21T11:14:53.000Z</time>
        <extensions>
          <ns3:TrackPointExtension>
            <ns3:hr>143</ns3:hr>
            <ns3:cad>50</ns3:cad>
          </ns3:TrackPointExtension>
        </extensions>
      </trkpt>
      <trkpt lat="45.35229365341365337371826171875" lon="-70.8120444975793361663818359375">
        <ele>722.79998779296875</ele>
        <time>2026-08-21T11:14:54.000Z</time>
        <extensions>
          <ns3:TrackPointExtension>
            <ns3:hr>143</ns3:hr>
            <ns3:cad>50</ns3:cad>
          </ns3:TrackPointExtension>
        </extensions>
      </trkpt>
      <trkpt lat="45.35228124819695949554443359375" lon="-70.81204064190387725830078125">
        <ele>722.79998779296875</ele>
        <time>2026-08-21T11:14:55.000Z</time>
        <extensions>
          <ns3:TrackPointExtension>
            <ns3:hr>143</ns3:hr>
            <ns3:cad>50</ns3:cad>
          </ns3:TrackPointExtension>
        </extensions>
      </trkpt>
      <trkpt lat="45.3522701002657413482666015625" lon="-70.81203804351389408111572265625">
        <ele>723</ele>
        <time>2026-08-21T11:14:56.000Z</time>
        <extensions>
          <ns3:TrackPointExtension>
            <ns3:hr>143</ns3:hr>
            <ns3:cad>51</ns3:cad>
          </ns3:TrackPointExtension>
        </extensions>
      </trkpt>
      <trkpt lat="45.352260880172252655029296875" lon="-70.812031924724578857421875">
        <ele>723</ele>
        <time>2026-08-21T11:14:57.000Z</time>
        <extensions>
          <ns3:TrackPointExtension>
            <ns3:hr>142</ns3:hr>
            <ns3:cad>51</ns3:cad>
          </ns3:TrackPointExtension>
        </extensions>
      </trkpt>
      <trkpt lat="45.3522496484220027923583984375" lon="-70.8120277337729930877685546875">
        <ele>723.20001220703125</ele>
        <time>2026-08-21T11:14:58.000Z</time>
        <extensions>
          <ns3:TrackPointExtension>
            <ns3:hr>142</ns3:hr>
            <ns3:cad>52</ns3:cad>
          </ns3:TrackPointExtension>
        </extensions>
      </trkpt>
      <trkpt lat="45.35224084742367267608642578125" lon="-70.812022872269153594970703125">
        <ele>723.4000244140625</ele>
        <time>2026-08-21T11:14:59.000Z</time>
        <extensions>
          <ns3:TrackPointExtension>
            <ns3:hr>142</ns3:hr>
            <ns3:cad>51</ns3:cad>
          </ns3:TrackPointExtension>
        </extensions>
      </trkpt>
      <trkpt lat="45.35223615355789661407470703125" lon="-70.8120149932801723480224609375">
        <ele>723.4000244140625</ele>
        <time>2026-08-21T11:15:00.000Z</time>
        <extensions>
          <ns3:TrackPointExtension>
            <ns3:hr>142</ns3:hr>
            <ns3:cad>51</ns3:cad>
          </ns3:TrackPointExtension>
        </extensions>
      </trkpt>
      <trkpt lat="45.3522211499512195587158203125" lon="-70.81200334243476390838623046875">
        <ele>723.5999755859375</ele>
        <time>2026-08-21T11:15:01.000Z</time>
        <extensions>
          <ns3:TrackPointExtension>
            <ns3:hr>142</ns3:hr>
            <ns3:cad>50</ns3:cad>
          </ns3:TrackPointExtension>
        </extensions>
      </trkpt>
      <trkpt lat="45.35220933146774768829345703125" lon="-70.81199747510254383087158203125">
        <ele>723.79998779296875</ele>
        <time>2026-08-21T11:15:02.000Z</time>
        <extensions>
          <ns3:TrackPointExtension>
            <ns3:hr>142</ns3:hr>
            <ns3:cad>50</ns3:cad>
          </ns3:TrackPointExtension>
        </extensions>
      </trkpt>
      <trkpt lat="45.352195836603641510009765625" lon="-70.8119885064661502838134765625">
        <ele>724</ele>
        <time>2026-08-21T11:15:03.000Z</time>
        <extensions>
          <ns3:TrackPointExtension>
            <ns3:hr>142</ns3:hr>
            <ns3:cad>50</ns3:cad>
          </ns3:TrackPointExtension>
        </extensions>
      </trkpt>
      <trkpt lat="45.35218141973018646240234375" lon="-70.8119791187345981597900390625">
        <ele>724.20001220703125</ele>
        <time>2026-08-21T11:15:04.000Z</time>
        <extensions>
          <ns3:TrackPointExtension>
            <ns3:hr>142</ns3:hr>
            <ns3:cad>50</ns3:cad>
          </ns3:TrackPointExtension>
        </extensions>
      </trkpt>
      <trkpt lat="45.352168343961238861083984375" lon="-70.81197383813560009002685546875">
        <ele>724.20001220703125</ele>
        <time>2026-08-21T11:15:05.000Z</time>
        <extensions>
          <ns3:TrackPointExtension>
            <ns3:hr>142</ns3:hr>
            <ns3:cad>50</ns3:cad>
          </ns3:TrackPointExtension>
        </extensions>
      </trkpt>
      <trkpt lat="45.3521554358303546905517578125" lon="-70.8119687251746654510498046875">
        <ele>724.20001220703125</ele>
        <time>2026-08-21T11:15:06.000Z</time>
        <extensions>
          <ns3:TrackPointExtension>
            <ns3:hr>142</ns3:hr>
            <ns3:cad>0</ns3:cad>
          </ns3:TrackPointExtension>
        </extensions>
      </trkpt>
      <trkpt lat="45.35214512608945369720458984375" lon="-70.8119633607566356658935546875">
        <ele>724.20001220703125</ele>
        <time>2026-08-21T11:15:07.000Z</time>
        <extensions>
          <ns3:TrackPointExtension>
            <ns3:hr>142</ns3:hr>
            <ns3:cad>0</ns3:cad>
          </ns3:TrackPointExtension>
        </extensions>
      </trkpt>
      <trkpt lat="45.35213272087275981903076171875" lon="-70.81195590086281299591064453125">
        <ele>724.20001220703125</ele>
        <time>2026-08-21T11:15:08.000Z</time>
        <extensions>
          <ns3:TrackPointExtension>
            <ns3:hr>142</ns3:hr>
            <ns3:cad>0</ns3:cad>
          </ns3:TrackPointExtension>
        </extensions>
      </trkpt>
      <trkpt lat="45.352124758064746856689453125" lon="-70.8119474351406097412109375">
        <ele>724.20001220703125</ele>
        <time>2026-08-21T11:15:09.000Z</time>
        <extensions>
          <ns3:TrackPointExtension>
            <ns3:hr>142</ns3:hr>
            <ns3:cad>0</ns3:cad>
          </ns3:TrackPointExtension>
        </extensions>
      </trkpt>
      <trkpt lat="45.35211528651416301727294921875" lon="-70.8119395561516284942626953125">
        <ele>724.4000244140625</ele>
        <time>2026-08-21T11:15:10.000Z</time>
        <extensions>
          <ns3:TrackPointExtension>
            <ns3:hr>142</ns3:hr>
            <ns3:cad>0</ns3:cad>
          </ns3:TrackPointExtension>
        </extensions>
      </trkpt>
      <trkpt lat="45.35210673697292804718017578125" lon="-70.81193201243877410888671875">
        <ele>724.4000244140625</ele>
        <time>2026-08-21T11:15:11.000Z</time>
        <extensions>
          <ns3:TrackPointExtension>
            <ns3:hr>143</ns3:hr>
            <ns3:cad>0</ns3:cad>
          </ns3:TrackPointExtension>
        </extensions>
      </trkpt>
      <trkpt lat="45.35209667868912220001220703125" lon="-70.8119207806885242462158203125">
        <ele>724.5999755859375</ele>
        <time>2026-08-21T11:15:12.000Z</time>
        <extensions>
          <ns3:TrackPointExtension>
            <ns3:hr>143</ns3:hr>
            <ns3:cad>0</ns3:cad>
          </ns3:TrackPointExtension>
        </extensions>
      </trkpt>
      <trkpt lat="45.3520877100527286529541015625" lon="-70.81190879456698894500732421875">
        <ele>724.79998779296875</ele>
        <time>2026-08-21T11:15:13.000Z</time>
        <extensions>
          <ns3:TrackPointExtension>
            <ns3:hr>142</ns3:hr>
            <ns3:cad>56</ns3:cad>
          </ns3:TrackPointExtension>
        </extensions>
      </trkpt>
      <trkpt lat="45.35207790322601795196533203125" lon="-70.8118964731693267822265625">
        <ele>725</ele>
        <time>2026-08-21T11:15:14.000Z</time>
        <extensions>
          <ns3:TrackPointExtension>
            <ns3:hr>142</ns3:hr>
            <ns3:cad>56</ns3:cad>
          </ns3:TrackPointExtension>
        </extensions>
      </trkpt>
      <trkpt lat="45.352069102227687835693359375" lon="-70.81189085729420185089111328125">
        <ele>725</ele>
        <time>2026-08-21T11:15:15.000Z</time>
        <extensions>
          <ns3:TrackPointExtension>
            <ns3:hr>142</ns3:hr>
            <ns3:cad>56</ns3:cad>
          </ns3:TrackPointExtension>
        </extensions>
      </trkpt>
      <trkpt lat="45.352053344249725341796875" lon="-70.81187979318201541900634765625">
        <ele>725.20001220703125</ele>
        <time>2026-08-21T11:15:16.000Z</time>
        <extensions>
          <ns3:TrackPointExtension>
            <ns3:hr>142</ns3:hr>
            <ns3:cad>56</ns3:cad>
          </ns3:TrackPointExtension>
        </extensions>
      </trkpt>
      <trkpt lat="45.35204186104238033294677734375" lon="-70.8118688128888607025146484375">
        <ele>725.20001220703125</ele>
        <time>2026-08-21T11:15:17.000Z</time>
        <extensions>
          <ns3:TrackPointExtension>
            <ns3:hr>142</ns3:hr>
            <ns3:cad>56</ns3:cad>
          </ns3:TrackPointExtension>
        </extensions>
      </trkpt>
      <trkpt lat="45.3520350717008113861083984375" lon="-70.8118584193289279937744140625">
        <ele>725.20001220703125</ele>
        <time>2026-08-21T11:15:18.000Z</time>
        <extensions>
          <ns3:TrackPointExtension>
            <ns3:hr>142</ns3:hr>
            <ns3:cad>52</ns3:cad>
          </ns3:TrackPointExtension>
        </extensions>
      </trkpt>
      <trkpt lat="45.3520260192453861236572265625" lon="-70.811844170093536376953125">
        <ele>725.20001220703125</ele>
        <time>2026-08-21T11:15:19.000Z</time>
        <extensions>
          <ns3:TrackPointExtension>
            <ns3:hr>141</ns3:hr>
            <ns3:cad>52</ns3:cad>
          </ns3:TrackPointExtension>
        </extensions>
      </trkpt>
      <trkpt lat="45.35201889462769031524658203125" lon="-70.8118258975446224212646484375">
        <ele>725.4000244140625</ele>
        <time>2026-08-21T11:15:20.000Z</time>
        <extensions>
          <ns3:TrackPointExtension>
            <ns3:hr>140</ns3:hr>
            <ns3:cad>52</ns3:cad>
          </ns3:TrackPointExtension>
        </extensions>
      </trkpt>
      <trkpt lat="45.3520176373422145843505859375" lon="-70.81181290559470653533935546875">
        <ele>725.4000244140625</ele>
        <time>2026-08-21T11:15:21.000Z</time>
        <extensions>
          <ns3:TrackPointExtension>
            <ns3:hr>140</ns3:hr>
            <ns3:cad>52</ns3:cad>
          </ns3:TrackPointExtension>
        </extensions>
      </trkpt>
      <trkpt lat="45.352017469704151153564453125" lon="-70.8117999136447906494140625">
        <ele>725.5999755859375</ele>
        <time>2026-08-21T11:15:22.000Z</time>
        <extensions>
          <ns3:TrackPointExtension>
            <ns3:hr>139</ns3:hr>
            <ns3:cad>54</ns3:cad>
          </ns3:TrackPointExtension>
        </extensions>
      </trkpt>
      <trkpt lat="45.35201671533286571502685546875" lon="-70.8117866702377796173095703125">
        <ele>725.79998779296875</ele>
        <time>2026-08-21T11:15:23.000Z</time>
        <extensions>
          <ns3:TrackPointExtension>
            <ns3:hr>139</ns3:hr>
            <ns3:cad>54</ns3:cad>
          </ns3:TrackPointExtension>
        </extensions>
      </trkpt>
      <trkpt lat="45.35201386548578739166259765625" lon="-70.8117705769836902618408203125">
        <ele>726</ele>
        <time>2026-08-21T11:15:24.000Z</time>
        <extensions>
          <ns3:TrackPointExtension>
            <ns3:hr>138</ns3:hr>
            <ns3:cad>54</ns3:cad>
          </ns3:TrackPointExtension>
        </extensions>
      </trkpt>
      <trkpt lat="45.35201151855289936065673828125" lon="-70.81175188533961772918701171875">
        <ele>726.20001220703125</ele>
        <time>2026-08-21T11:15:25.000Z</time>
        <extensions>
          <ns3:TrackPointExtension>
            <ns3:hr>138</ns3:hr>
            <ns3:cad>54</ns3:cad>
          </ns3:TrackPointExtension>
        </extensions>
      </trkpt>
      <trkpt lat="45.35201168619096279144287109375" lon="-70.81173344515264034271240234375">
        <ele>726.4000244140625</ele>
        <time>2026-08-21T11:15:26.000Z</time>
        <extensions>
          <ns3:TrackPointExtension>
            <ns3:hr>138</ns3:hr>
            <ns3:cad>54</ns3:cad>
          </ns3:TrackPointExtension>
        </extensions>
      </trkpt>
      <trkpt lat="45.35200900398194789886474609375" lon="-70.81171450205147266387939453125">
        <ele>726.5999755859375</ele>
        <time>2026-08-21T11:15:27.000Z</time>
        <extensions>
          <ns3:TrackPointExtension>
            <ns3:hr>138</ns3:hr>
            <ns3:cad>0</ns3:cad>
          </ns3:TrackPointExtension>
        </extensions>
      </trkpt>
      <trkpt lat="45.352005399763584136962890625" lon="-70.8116897754371166229248046875">
        <ele>726.5999755859375</ele>
        <time>2026-08-21T11:15:28.000Z</time>
        <extensions>
          <ns3:TrackPointExtension>
            <ns3:hr>138</ns3:hr>
            <ns3:cad>51</ns3:cad>
          </ns3:TrackPointExtension>
        </extensions>
      </trkpt>
      <trkpt lat="45.35199827514588832855224609375" lon="-70.81167510710656642913818359375">
        <ele>726.79998779296875</ele>
        <time>2026-08-21T11:15:29.000Z</time>
        <extensions>
          <ns3:TrackPointExtension>
            <ns3:hr>138</ns3:hr>
            <ns3:cad>51</ns3:cad>
          </ns3:TrackPointExtension>
        </extensions>
      </trkpt>
      <trkpt lat="45.3519891388714313507080078125" lon="-70.81166169606149196624755859375">
        <ele>726.79998779296875</ele>
        <time>2026-08-21T11:15:30.000Z</time>
        <extensions>
          <ns3:TrackPointExtension>
            <ns3:hr>138</ns3:hr>
            <ns3:cad>50</ns3:cad>
          </ns3:TrackPointExtension>
        </extensions>
      </trkpt>
      <trkpt lat="45.35198268480598926544189453125" lon="-70.8116468600928783416748046875">
        <ele>726.79998779296875</ele>
        <time>2026-08-21T11:15:31.000Z</time>
        <extensions>
          <ns3:TrackPointExtension>
            <ns3:hr>138</ns3:hr>
            <ns3:cad>50</ns3:cad>
          </ns3:TrackPointExtension>
        </extensions>
      </trkpt>
      <trkpt lat="45.3519715368747711181640625" lon="-70.8116280846297740936279296875">
        <ele>726.79998779296875</ele>
        <time>2026-08-21T11:15:32.000Z</time>
        <extensions>
          <ns3:TrackPointExtension>
            <ns3:hr>138</ns3:hr>
            <ns3:cad>50</ns3:cad>
          </ns3:TrackPointExtension>
        </extensions>
      </trkpt>
      <trkpt lat="45.3519626520574092864990234375" lon="-70.81160821951925754547119140625">
        <ele>726.79998779296875</ele>
        <time>2026-08-21T11:15:33.000Z</time>
        <extensions>
          <ns3:TrackPointExtension>
            <ns3:hr>138</ns3:hr>
            <ns3:cad>50</ns3:cad>
          </ns3:TrackPointExtension>
        </extensions>
      </trkpt>
      <trkpt lat="45.351955108344554901123046875" lon="-70.8115895278751850128173828125">
        <ele>726.79998779296875</ele>
        <time>2026-08-21T11:15:34.000Z</time>
        <extensions>
          <ns3:TrackPointExtension>
            <ns3:hr>138</ns3:hr>
            <ns3:cad>50</ns3:cad>
          </ns3:TrackPointExtension>
        </extensions>
      </trkpt>
      <trkpt lat="45.351947732269763946533203125" lon="-70.81157661974430084228515625">
        <ele>726.79998779296875</ele>
        <time>2026-08-21T11:15:35.000Z</time>
        <extensions>
          <ns3:TrackPointExtension>
            <ns3:hr>138</ns3:hr>
            <ns3:cad>50</ns3:cad>
          </ns3:TrackPointExtension>
        </extensions>
      </trkpt>
      <trkpt lat="45.35194144584238529205322265625" lon="-70.81156178377568721771240234375">
        <ele>726.79998779296875</ele>
        <time>2026-08-21T11:15:36.000Z</time>
        <extensions>
          <ns3:TrackPointExtension>
            <ns3:hr>138</ns3:hr>
            <ns3:cad>50</ns3:cad>
          </ns3:TrackPointExtension>
        </extensions>
      </trkpt>
      <trkpt lat="45.35193675197660923004150390625" lon="-70.81154854036867618560791015625">
        <ele>726.79998779296875</ele>
        <time>2026-08-21T11:15:37.000Z</time>
        <extensions>
          <ns3:TrackPointExtension>
            <ns3:hr>137</ns3:hr>
            <ns3:cad>50</ns3:cad>
          </ns3:TrackPointExtension>
        </extensions>
      </trkpt>
      <trkpt lat="45.3519341535866260528564453125" lon="-70.8115328662097454071044921875">
        <ele>726.79998779296875</ele>
        <time>2026-08-21T11:15:38.000Z</time>
        <extensions>
          <ns3:TrackPointExtension>
            <ns3:hr>138</ns3:hr>
            <ns3:cad>50</ns3:cad>
          </ns3:TrackPointExtension>
        </extensions>
      </trkpt>
      <trkpt lat="45.35193021409213542938232421875" lon="-70.81151735968887805938720703125">
        <ele>726.79998779296875</ele>
        <time>2026-08-21T11:15:39.000Z</time>
        <extensions>
          <ns3:TrackPointExtension>
            <ns3:hr>138</ns3:hr>
            <ns3:cad>50</ns3:cad>
          </ns3:TrackPointExtension>
        </extensions>
      </trkpt>
      <trkpt lat="45.35192392766475677490234375" lon="-70.8115021884441375732421875">
        <ele>727</ele>
        <time>2026-08-21T11:15:40.000Z</time>
        <extensions>
          <ns3:TrackPointExtension>
            <ns3:hr>137</ns3:hr>
            <ns3:cad>50</ns3:cad>
          </ns3:TrackPointExtension>
        </extensions>
      </trkpt>
      <trkpt lat="45.3519150428473949432373046875" lon="-70.811484418809413909912109375">
        <ele>727</ele>
        <time>2026-08-21T11:15:41.000Z</time>
        <extensions>
          <ns3:TrackPointExtension>
            <ns3:hr>137</ns3:hr>
            <ns3:cad>50</ns3:cad>
          </ns3:TrackPointExtension>
        </extensions>
      </trkpt>
      <trkpt lat="45.3519071638584136962890625" lon="-70.81146530807018280029296875">
        <ele>727</ele>
        <time>2026-08-21T11:15:42.000Z</time>
        <extensions>
          <ns3:TrackPointExtension>
            <ns3:hr>136</ns3:hr>
            <ns3:cad>55</ns3:cad>
          </ns3:TrackPointExtension>
        </extensions>
      </trkpt>
      <trkpt lat="45.35190339200198650360107421875" lon="-70.811445526778697967529296875">
        <ele>727.20001220703125</ele>
        <time>2026-08-21T11:15:43.000Z</time>
        <extensions>
          <ns3:TrackPointExtension>
            <ns3:hr>136</ns3:hr>
            <ns3:cad>55</ns3:cad>
          </ns3:TrackPointExtension>
        </extensions>
      </trkpt>
      <trkpt lat="45.35189844667911529541015625" lon="-70.81142800860106945037841796875">
        <ele>727.20001220703125</ele>
        <time>2026-08-21T11:15:44.000Z</time>
        <extensions>
          <ns3:TrackPointExtension>
            <ns3:hr>135</ns3:hr>
            <ns3:cad>48</ns3:cad>
          </ns3:TrackPointExtension>
        </extensions>
      </trkpt>
      <trkpt lat="45.351892746984958648681640625" lon="-70.81140889786183834075927734375">
        <ele>727.20001220703125</ele>
        <time>2026-08-21T11:15:45.000Z</time>
        <extensions>
          <ns3:TrackPointExtension>
            <ns3:hr>134</ns3:hr>
            <ns3:cad>48</ns3:cad>
          </ns3:TrackPointExtension>
        </extensions>
      </trkpt>
      <trkpt lat="45.351884365081787109375" lon="-70.81138752400875091552734375">
        <ele>727.4000244140625</ele>
        <time>2026-08-21T11:15:46.000Z</time>
        <extensions>
          <ns3:TrackPointExtension>
            <ns3:hr>133</ns3:hr>
            <ns3:cad>48</ns3:cad>
          </ns3:TrackPointExtension>
        </extensions>
      </trkpt>
      <trkpt lat="45.351876653730869293212890625" lon="-70.81137134693562984466552734375">
        <ele>727.5999755859375</ele>
        <time>2026-08-21T11:15:47.000Z</time>
        <extensions>
          <ns3:TrackPointExtension>
            <ns3:hr>133</ns3:hr>
            <ns3:cad>48</ns3:cad>
          </ns3:TrackPointExtension>
        </extensions>
      </trkpt>
      <trkpt lat="45.35187254659831523895263671875" lon="-70.81135575659573078155517578125">
        <ele>727.5999755859375</ele>
        <time>2026-08-21T11:15:48.000Z</time>
        <extensions>
          <ns3:TrackPointExtension>
            <ns3:hr>133</ns3:hr>
            <ns3:cad>48</ns3:cad>
          </ns3:TrackPointExtension>
        </extensions>
      </trkpt>
      <trkpt lat="45.3518674336373805999755859375" lon="-70.811338238418102264404296875">
        <ele>727.79998779296875</ele>
        <time>2026-08-21T11:15:49.000Z</time>
        <extensions>
          <ns3:TrackPointExtension>
            <ns3:hr>132</ns3:hr>
            <ns3:cad>48</ns3:cad>
          </ns3:TrackPointExtension>
        </extensions>
      </trkpt>
      <trkpt lat="45.35185913555324077606201171875" lon="-70.81132180988788604736328125">
        <ele>727.79998779296875</ele>
        <time>2026-08-21T11:15:50.000Z</time>
        <extensions>
          <ns3:TrackPointExtension>
            <ns3:hr>132</ns3:hr>
            <ns3:cad>48</ns3:cad>
          </ns3:TrackPointExtension>
        </extensions>
      </trkpt>
      <trkpt lat="45.3518533520400524139404296875" lon="-70.8113089017570018768310546875">
        <ele>728</ele>
        <time>2026-08-21T11:15:51.000Z</time>
        <extensions>
          <ns3:TrackPointExtension>
            <ns3:hr>132</ns3:hr>
            <ns3:cad>0</ns3:cad>
          </ns3:TrackPointExtension>
        </extensions>
      </trkpt>
      <trkpt lat="45.35184639506042003631591796875" lon="-70.811298005282878875732421875">
        <ele>728.20001220703125</ele>
        <time>2026-08-21T11:15:52.000Z</time>
        <extensions>
          <ns3:TrackPointExtension>
            <ns3:hr>131</ns3:hr>
            <ns3:cad>0</ns3:cad>
          </ns3:TrackPointExtension>
        </extensions>
      </trkpt>
      <trkpt lat="45.35183968953788280487060546875" lon="-70.81128518097102642059326171875">
        <ele>728.20001220703125</ele>
        <time>2026-08-21T11:15:53.000Z</time>
        <extensions>
          <ns3:TrackPointExtension>
            <ns3:hr>131</ns3:hr>
            <ns3:cad>0</ns3:cad>
          </ns3:TrackPointExtension>
        </extensions>
      </trkpt>
      <trkpt lat="45.3518318943679332733154296875" lon="-70.81127361394464969635009765625">
        <ele>728.4000244140625</ele>
        <time>2026-08-21T11:15:54.000Z</time>
        <extensions>
          <ns3:TrackPointExtension>
            <ns3:hr>131</ns3:hr>
            <ns3:cad>0</ns3:cad>
          </ns3:TrackPointExtension>
        </extensions>
      </trkpt>
      <trkpt lat="45.3518265299499034881591796875" lon="-70.81126238219439983367919921875">
        <ele>728.4000244140625</ele>
        <time>2026-08-21T11:15:55.000Z</time>
        <extensions>
          <ns3:TrackPointExtension>
            <ns3:hr>132</ns3:hr>
            <ns3:cad>0</ns3:cad>
          </ns3:TrackPointExtension>
        </extensions>
      </trkpt>
      <trkpt lat="45.3518199920654296875" lon="-70.81124603748321533203125">
        <ele>728.5999755859375</ele>
        <time>2026-08-21T11:15:56.000Z</time>
        <extensions>
          <ns3:TrackPointExtension>
            <ns3:hr>131</ns3:hr>
            <ns3:cad>54</ns3:cad>
          </ns3:TrackPointExtension>
        </extensions>
      </trkpt>
      <trkpt lat="45.3518094308674335479736328125" lon="-70.81122768111526966094970703125">
        <ele>728.5999755859375</ele>
        <time>2026-08-21T11:15:57.000Z</time>
        <extensions>
          <ns3:TrackPointExtension>
            <ns3:hr>131</ns3:hr>
            <ns3:cad>54</ns3:cad>
          </ns3:TrackPointExtension>
        </extensions>
      </trkpt>
      <trkpt lat="45.35180188715457916259765625" lon="-70.8112153597176074981689453125">
        <ele>728.79998779296875</ele>
        <time>2026-08-21T11:15:58.000Z</time>
        <extensions>
          <ns3:TrackPointExtension>
            <ns3:hr>131</ns3:hr>
            <ns3:cad>54</ns3:cad>
          </ns3:TrackPointExtension>
        </extensions>
      </trkpt>
      <trkpt lat="45.35179258324205875396728515625" lon="-70.81120186485350131988525390625">
        <ele>728.79998779296875</ele>
        <time>2026-08-21T11:15:59.000Z</time>
        <extensions>
          <ns3:TrackPointExtension>
            <ns3:hr>130</ns3:hr>
            <ns3:cad>0</ns3:cad>
          </ns3:TrackPointExtension>
        </extensions>
      </trkpt>
      <trkpt lat="45.35178671590983867645263671875" lon="-70.8111882023513317108154296875">
        <ele>729</ele>
        <time>2026-08-21T11:16:00.000Z</time>
        <extensions>
          <ns3:TrackPointExtension>
            <ns3:hr>130</ns3:hr>
            <ns3:cad>0</ns3:cad>
          </ns3:TrackPointExtension>
        </extensions>
      </trkpt>
      <trkpt lat="45.35178252495825290679931640625" lon="-70.81117722205817699432373046875">
        <ele>729.20001220703125</ele>
        <time>2026-08-21T11:16:01.000Z</time>
        <extensions>
          <ns3:TrackPointExtension>
            <ns3:hr>130</ns3:hr>
            <ns3:cad>0</ns3:cad>
          </ns3:TrackPointExtension>
        </extensions>
      </trkpt>
      <trkpt lat="45.35178302787244319915771484375" lon="-70.81115945242345333099365234375">
        <ele>729.4000244140625</ele>
        <time>2026-08-21T11:16:02.000Z</time>
        <extensions>
          <ns3:TrackPointExtension>
            <ns3:hr>130</ns3:hr>
            <ns3:cad>0</ns3:cad>
          </ns3:TrackPointExtension>
        </extensions>
      </trkpt>
      <trkpt lat="45.35178386606276035308837890625" lon="-70.811141431331634521484375">
        <ele>729.4000244140625</ele>
        <time>2026-08-21T11:16:03.000Z</time>
        <extensions>
          <ns3:TrackPointExtension>
            <ns3:hr>130</ns3:hr>
            <ns3:cad>52</ns3:cad>
          </ns3:TrackPointExtension>
        </extensions>
      </trkpt>
      <trkpt lat="45.35178453661501407623291015625" lon="-70.811118297278881072998046875">
        <ele>729.4000244140625</ele>
        <time>2026-08-21T11:16:04.000Z</time>
        <extensions>
          <ns3:TrackPointExtension>
            <ns3:hr>130</ns3:hr>
            <ns3:cad>52</ns3:cad>
          </ns3:TrackPointExtension>
        </extensions>
      </trkpt>
      <trkpt lat="45.35178185440599918365478515625" lon="-70.8110993541777133941650390625">
        <ele>729.5999755859375</ele>
        <time>2026-08-21T11:16:05.000Z</time>
        <extensions>
          <ns3:TrackPointExtension>
            <ns3:hr>130</ns3:hr>
            <ns3:cad>52</ns3:cad>
          </ns3:TrackPointExtension>
        </extensions>
      </trkpt>
      <trkpt lat="45.35177799873054027557373046875" lon="-70.8110785670578479766845703125">
        <ele>729.5999755859375</ele>
        <time>2026-08-21T11:16:06.000Z</time>
        <extensions>
          <ns3:TrackPointExtension>
            <ns3:hr>131</ns3:hr>
            <ns3:cad>52</ns3:cad>
          </ns3:TrackPointExtension>
        </extensions>
      </trkpt>
      <trkpt lat="45.35177045501768589019775390625" lon="-70.8110601268708705902099609375">
        <ele>729.5999755859375</ele>
        <time>2026-08-21T11:16:07.000Z</time>
        <extensions>
          <ns3:TrackPointExtension>
            <ns3:hr>131</ns3:hr>
            <ns3:cad>52</ns3:cad>
          </ns3:TrackPointExtension>
        </extensions>
      </trkpt>
      <trkpt lat="45.35176408477127552032470703125" lon="-70.8110410161316394805908203125">
        <ele>729.79998779296875</ele>
        <time>2026-08-21T11:16:08.000Z</time>
        <extensions>
          <ns3:TrackPointExtension>
            <ns3:hr>132</ns3:hr>
            <ns3:cad>52</ns3:cad>
          </ns3:TrackPointExtension>
        </extensions>
      </trkpt>
      <trkpt lat="45.351755619049072265625" lon="-70.811025761067867279052734375">
        <ele>729.79998779296875</ele>
        <time>2026-08-21T11:16:09.000Z</time>
        <extensions>
          <ns3:TrackPointExtension>
            <ns3:hr>132</ns3:hr>
            <ns3:cad>52</ns3:cad>
          </ns3:TrackPointExtension>
        </extensions>
      </trkpt>
      <trkpt lat="45.35174832679331302642822265625" lon="-70.8110140264034271240234375">
        <ele>730</ele>
        <time>2026-08-21T11:16:10.000Z</time>
        <extensions>
          <ns3:TrackPointExtension>
            <ns3:hr>132</ns3:hr>
            <ns3:cad>52</ns3:cad>
          </ns3:TrackPointExtension>
        </extensions>
      </trkpt>
      <trkpt lat="45.35174095071852207183837890625" lon="-70.81099902279675006866455078125">
        <ele>730</ele>
        <time>2026-08-21T11:16:11.000Z</time>
        <extensions>
          <ns3:TrackPointExtension>
            <ns3:hr>132</ns3:hr>
            <ns3:cad>67</ns3:cad>
          </ns3:TrackPointExtension>
        </extensions>
      </trkpt>
      <trkpt lat="45.35173525102436542510986328125" lon="-70.81098276190459728240966796875">
        <ele>730</ele>
        <time>2026-08-21T11:16:12.000Z</time>
        <extensions>
          <ns3:TrackPointExtension>
            <ns3:hr>131</ns3:hr>
            <ns3:cad>67</ns3:cad>
          </ns3:TrackPointExtension>
        </extensions>
      </trkpt>
      <trkpt lat="45.35172770731151103973388671875" lon="-70.81097044050693511962890625">
        <ele>730</ele>
        <time>2026-08-21T11:16:13.000Z</time>
        <extensions>
          <ns3:TrackPointExtension>
            <ns3:hr>131</ns3:hr>
            <ns3:cad>56</ns3:cad>
          </ns3:TrackPointExtension>
        </extensions>
      </trkpt>
      <trkpt lat="45.3517140448093414306640625" lon="-70.81095141358673572540283203125">
        <ele>730</ele>
        <time>2026-08-21T11:16:14.000Z</time>
        <extensions>
          <ns3:TrackPointExtension>
            <ns3:hr>131</ns3:hr>
            <ns3:cad>56</ns3:cad>
          </ns3:TrackPointExtension>
        </extensions>
      </trkpt>
      <trkpt lat="45.35170641727745532989501953125" lon="-70.81093414686620235443115234375">
        <ele>730</ele>
        <time>2026-08-21T11:16:15.000Z</time>
        <extensions>
          <ns3:TrackPointExtension>
            <ns3:hr>131</ns3:hr>
            <ns3:cad>0</ns3:cad>
          </ns3:TrackPointExtension>
        </extensions>
      </trkpt>
      <trkpt lat="45.351698957383632659912109375" lon="-70.810914449393749237060546875">
        <ele>730.20001220703125</ele>
        <time>2026-08-21T11:16:16.000Z</time>
        <extensions>
          <ns3:TrackPointExtension>
            <ns3:hr>132</ns3:hr>
            <ns3:cad>0</ns3:cad>
          </ns3:TrackPointExtension>
        </extensions>
      </trkpt>
      <trkpt lat="45.35169300623238086700439453125" lon="-70.81089374609291553497314453125">
        <ele>730.20001220703125</ele>
        <time>2026-08-21T11:16:17.000Z</time>
        <extensions>
          <ns3:TrackPointExtension>
            <ns3:hr>132</ns3:hr>
            <ns3:cad>0</ns3:cad>
          </ns3:TrackPointExtension>
        </extensions>
      </trkpt>
      <trkpt lat="45.35168588161468505859375" lon="-70.81087966449558734893798828125">
        <ele>730.20001220703125</ele>
        <time>2026-08-21T11:16:18.000Z</time>
        <extensions>
          <ns3:TrackPointExtension>
            <ns3:hr>132</ns3:hr>
            <ns3:cad>0</ns3:cad>
          </ns3:TrackPointExtension>
        </extensions>
      </trkpt>
      <trkpt lat="45.35167708061635494232177734375" lon="-70.81086675636470317840576171875">
        <ele>730.4000244140625</ele>
        <time>2026-08-21T11:16:19.000Z</time>
        <extensions>
          <ns3:TrackPointExtension>
            <ns3:hr>132</ns3:hr>
            <ns3:cad>0</ns3:cad>
          </ns3:TrackPointExtension>
        </extensions>
      </trkpt>
      <trkpt lat="45.3516699559986591339111328125" lon="-70.810851752758026123046875">
        <ele>730.4000244140625</ele>
        <time>2026-08-21T11:16:20.000Z</time>
        <extensions>
          <ns3:TrackPointExtension>
            <ns3:hr>132</ns3:hr>
            <ns3:cad>0</ns3:cad>
          </ns3:TrackPointExtension>
        </extensions>
      </trkpt>
      <trkpt lat="45.351667441427707672119140625" lon="-70.81083490513265132904052734375">
        <ele>730.4000244140625</ele>
        <time>2026-08-21T11:16:21.000Z</time>
        <extensions>
          <ns3:TrackPointExtension>
            <ns3:hr>132</ns3:hr>
            <ns3:cad>0</ns3:cad>
          </ns3:TrackPointExtension>
        </extensions>
      </trkpt>
      <trkpt lat="45.351658053696155548095703125" lon="-70.81080590374767780303955078125">
        <ele>730.4000244140625</ele>
        <time>2026-08-21T11:16:22.000Z</time>
        <extensions>
          <ns3:TrackPointExtension>
            <ns3:hr>132</ns3:hr>
            <ns3:cad>0</ns3:cad>
          </ns3:TrackPointExtension>
        </extensions>
      </trkpt>
      <trkpt lat="45.35165076144039630889892578125" lon="-70.8107858709990978240966796875">
        <ele>730.4000244140625</ele>
        <time>2026-08-21T11:16:23.000Z</time>
        <extensions>
          <ns3:TrackPointExtension>
            <ns3:hr>132</ns3:hr>
            <ns3:cad>55</ns3:cad>
          </ns3:TrackPointExtension>
        </extensions>
      </trkpt>
      <trkpt lat="45.35164363682270050048828125" lon="-70.81077002920210361480712890625">
        <ele>730.4000244140625</ele>
        <time>2026-08-21T11:16:24.000Z</time>
        <extensions>
          <ns3:TrackPointExtension>
            <ns3:hr>131</ns3:hr>
            <ns3:cad>55</ns3:cad>
          </ns3:TrackPointExtension>
        </extensions>
      </trkpt>
      <trkpt lat="45.35163483582437038421630859375" lon="-70.8107456378638744354248046875">
        <ele>730.4000244140625</ele>
        <time>2026-08-21T11:16:25.000Z</time>
        <extensions>
          <ns3:TrackPointExtension>
            <ns3:hr>132</ns3:hr>
            <ns3:cad>53</ns3:cad>
          </ns3:TrackPointExtension>
        </extensions>
      </trkpt>
      <trkpt lat="45.3516226820647716522216796875" lon="-70.81072501838207244873046875">
        <ele>730.5999755859375</ele>
        <time>2026-08-21T11:16:26.000Z</time>
        <extensions>
          <ns3:TrackPointExtension>
            <ns3:hr>132</ns3:hr>
            <ns3:cad>53</ns3:cad>
          </ns3:TrackPointExtension>
        </extensions>
      </trkpt>
      <trkpt lat="45.35161036066710948944091796875" lon="-70.81070263870060443878173828125">
        <ele>730.5999755859375</ele>
        <time>2026-08-21T11:16:27.000Z</time>
        <extensions>
          <ns3:TrackPointExtension>
            <ns3:hr>131</ns3:hr>
            <ns3:cad>53</ns3:cad>
          </ns3:TrackPointExtension>
        </extensions>
      </trkpt>
      <trkpt lat="45.3515982069075107574462890625" lon="-70.8106802590191364288330078125">
        <ele>730.4000244140625</ele>
        <time>2026-08-21T11:16:28.000Z</time>
        <extensions>
          <ns3:TrackPointExtension>
            <ns3:hr>131</ns3:hr>
            <ns3:cad>53</ns3:cad>
          </ns3:TrackPointExtension>
        </extensions>
      </trkpt>
      <trkpt lat="45.35158320330083370208740234375" lon="-70.81066735088825225830078125">
        <ele>730.4000244140625</ele>
        <time>2026-08-21T11:16:29.000Z</time>
        <extensions>
          <ns3:TrackPointExtension>
            <ns3:hr>130</ns3:hr>
            <ns3:cad>53</ns3:cad>
          </ns3:TrackPointExtension>
        </extensions>
      </trkpt>
      <trkpt lat="45.351568199694156646728515625" lon="-70.8106618188321590423583984375">
        <ele>730.4000244140625</ele>
        <time>2026-08-21T11:16:30.000Z</time>
        <extensions>
          <ns3:TrackPointExtension>
            <ns3:hr>130</ns3:hr>
            <ns3:cad>57</ns3:cad>
          </ns3:TrackPointExtension>
        </extensions>
      </trkpt>
      <trkpt lat="45.3515579737722873687744140625" lon="-70.810669697821140289306640625">
        <ele>730.4000244140625</ele>
        <time>2026-08-21T11:16:31.000Z</time>
        <extensions>
          <ns3:TrackPointExtension>
            <ns3:hr>130</ns3:hr>
            <ns3:cad>57</ns3:cad>
          </ns3:TrackPointExtension>
        </extensions>
      </trkpt>
      <trkpt lat="45.35154280252754688262939453125" lon="-70.8106814324855804443359375">
        <ele>730.20001220703125</ele>
        <time>2026-08-21T11:16:32.000Z</time>
        <extensions>
          <ns3:TrackPointExtension>
            <ns3:hr>130</ns3:hr>
            <ns3:cad>52</ns3:cad>
          </ns3:TrackPointExtension>
        </extensions>
      </trkpt>
      <trkpt lat="45.351529978215694427490234375" lon="-70.81069475971162319183349609375">
        <ele>730</ele>
        <time>2026-08-21T11:16:33.000Z</time>
        <extensions>
          <ns3:TrackPointExtension>
            <ns3:hr>129</ns3:hr>
            <ns3:cad>52</ns3:cad>
          </ns3:TrackPointExtension>
        </extensions>
      </trkpt>
      <trkpt lat="45.3515177406370639801025390625" lon="-70.81070314161479473114013671875">
        <ele>729.79998779296875</ele>
        <time>2026-08-21T11:16:34.000Z</time>
        <extensions>
          <ns3:TrackPointExtension>
            <ns3:hr>129</ns3:hr>
            <ns3:cad>52</ns3:cad>
          </ns3:TrackPointExtension>
        </extensions>
      </trkpt>
      <trkpt lat="45.35150290466845035552978515625" lon="-70.81071118824183940887451171875">
        <ele>729.79998779296875</ele>
        <time>2026-08-21T11:16:35.000Z</time>
        <extensions>
          <ns3:TrackPointExtension>
            <ns3:hr>130</ns3:hr>
            <ns3:cad>53</ns3:cad>
          </ns3:TrackPointExtension>
        </extensions>
      </trkpt>
      <trkpt lat="45.35148848779499530792236328125" lon="-70.8107157982885837554931640625">
        <ele>729.4000244140625</ele>
        <time>2026-08-21T11:16:36.000Z</time>
        <extensions>
          <ns3:TrackPointExtension>
            <ns3:hr>130</ns3:hr>
            <ns3:cad>53</ns3:cad>
          </ns3:TrackPointExtension>
        </extensions>
      </trkpt>
      <trkpt lat="45.35147331655025482177734375" lon="-70.81072325818240642547607421875">
        <ele>729.20001220703125</ele>
        <time>2026-08-21T11:16:37.000Z</time>
        <extensions>
          <ns3:TrackPointExtension>
            <ns3:hr>130</ns3:hr>
            <ns3:cad>53</ns3:cad>
          </ns3:TrackPointExtension>
        </extensions>
      </trkpt>
      <trkpt lat="45.3514563851058483123779296875" lon="-70.810736082494258880615234375">
        <ele>728.79998779296875</ele>
        <time>2026-08-21T11:16:38.000Z</time>
        <extensions>
          <ns3:TrackPointExtension>
            <ns3:hr>129</ns3:hr>
            <ns3:cad>53</ns3:cad>
          </ns3:TrackPointExtension>
        </extensions>
      </trkpt>
      <trkpt lat="45.35143987275660037994384765625" lon="-70.8107453025877475738525390625">
        <ele>728.20001220703125</ele>
        <time>2026-08-21T11:16:39.000Z</time>
        <extensions>
          <ns3:TrackPointExtension>
            <ns3:hr>129</ns3:hr>
            <ns3:cad>53</ns3:cad>
          </ns3:TrackPointExtension>
        </extensions>
      </trkpt>
      <trkpt lat="45.35142679698765277862548828125" lon="-70.8107499964535236358642578125">
        <ele>727.79998779296875</ele>
        <time>2026-08-21T11:16:40.000Z</time>
        <extensions>
          <ns3:TrackPointExtension>
            <ns3:hr>129</ns3:hr>
            <ns3:cad>53</ns3:cad>
          </ns3:TrackPointExtension>
        </extensions>
      </trkpt>
      <trkpt lat="45.35141338594257831573486328125" lon="-70.81075712107121944427490234375">
        <ele>727.4000244140625</ele>
        <time>2026-08-21T11:16:41.000Z</time>
        <extensions>
          <ns3:TrackPointExtension>
            <ns3:hr>128</ns3:hr>
            <ns3:cad>53</ns3:cad>
          </ns3:TrackPointExtension>
        </extensions>
      </trkpt>
      <trkpt lat="45.3514002263545989990234375" lon="-70.8107630722224712371826171875">
        <ele>727</ele>
        <time>2026-08-21T11:16:42.000Z</time>
        <extensions>
          <ns3:TrackPointExtension>
            <ns3:hr>129</ns3:hr>
            <ns3:cad>53</ns3:cad>
          </ns3:TrackPointExtension>
        </extensions>
      </trkpt>
      <trkpt lat="45.3513883240520954132080078125" lon="-70.8107660897076129913330078125">
        <ele>727</ele>
        <time>2026-08-21T11:16:43.000Z</time>
        <extensions>
          <ns3:TrackPointExtension>
            <ns3:hr>129</ns3:hr>
            <ns3:cad>53</ns3:cad>
          </ns3:TrackPointExtension>
        </extensions>
      </trkpt>
      <trkpt lat="45.3513759188354015350341796875" lon="-70.8107624016702175140380859375">
        <ele>726.79998779296875</ele>
        <time>2026-08-21T11:16:44.000Z</time>
        <extensions>
          <ns3:TrackPointExtension>
            <ns3:hr>129</ns3:hr>
            <ns3:cad>53</ns3:cad>
          </ns3:TrackPointExtension>
        </extensions>
      </trkpt>
      <trkpt lat="45.3513615019619464874267578125" lon="-70.81075494177639484405517578125">
        <ele>726.79998779296875</ele>
        <time>2026-08-21T11:16:45.000Z</time>
        <extensions>
          <ns3:TrackPointExtension>
            <ns3:hr>129</ns3:hr>
            <ns3:cad>53</ns3:cad>
          </ns3:TrackPointExtension>
        </extensions>
      </trkpt>
      <trkpt lat="45.35134867765009403228759765625" lon="-70.81075125373899936676025390625">
        <ele>726.79998779296875</ele>
        <time>2026-08-21T11:16:46.000Z</time>
        <extensions>
          <ns3:TrackPointExtension>
            <ns3:hr>129</ns3:hr>
            <ns3:cad>53</ns3:cad>
          </ns3:TrackPointExtension>
        </extensions>
      </trkpt>
      <trkpt lat="45.35133526660501956939697265625" lon="-70.8107530139386653900146484375">
        <ele>727</ele>
        <time>2026-08-21T11:16:47.000Z</time>
        <extensions>
          <ns3:TrackPointExtension>
            <ns3:hr>129</ns3:hr>
            <ns3:cad>59</ns3:cad>
          </ns3:TrackPointExtension>
        </extensions>
      </trkpt>
      <trkpt lat="45.35132084973156452178955078125" lon="-70.810762904584407806396484375">
        <ele>727.20001220703125</ele>
        <time>2026-08-21T11:16:48.000Z</time>
        <extensions>
          <ns3:TrackPointExtension>
            <ns3:hr>129</ns3:hr>
            <ns3:cad>59</ns3:cad>
          </ns3:TrackPointExtension>
        </extensions>
      </trkpt>
      <trkpt lat="45.35130911506712436676025390625" lon="-70.8107711188495159149169921875">
        <ele>727.4000244140625</ele>
        <time>2026-08-21T11:16:49.000Z</time>
        <extensions>
          <ns3:TrackPointExtension>
            <ns3:hr>129</ns3:hr>
            <ns3:cad>59</ns3:cad>
          </ns3:TrackPointExtension>
        </extensions>
      </trkpt>
      <trkpt lat="45.35129922442138195037841796875" lon="-70.81077908165752887725830078125">
        <ele>727.5999755859375</ele>
        <time>2026-08-21T11:16:50.000Z</time>
        <extensions>
          <ns3:TrackPointExtension>
            <ns3:hr>129</ns3:hr>
            <ns3:cad>59</ns3:cad>
          </ns3:TrackPointExtension>
        </extensions>
      </trkpt>
      <trkpt lat="45.35129101015627384185791015625" lon="-70.81079031340777873992919921875">
        <ele>727.5999755859375</ele>
        <time>2026-08-21T11:16:51.000Z</time>
        <extensions>
          <ns3:TrackPointExtension>
            <ns3:hr>129</ns3:hr>
            <ns3:cad>59</ns3:cad>
          </ns3:TrackPointExtension>
        </extensions>
      </trkpt>
      <trkpt lat="45.3512827120721340179443359375" lon="-70.81079986877739429473876953125">
        <ele>727.79998779296875</ele>
        <time>2026-08-21T11:16:52.000Z</time>
        <extensions>
          <ns3:TrackPointExtension>
            <ns3:hr>128</ns3:hr>
            <ns3:cad>0</ns3:cad>
          </ns3:TrackPointExtension>
        </extensions>
      </trkpt>
      <trkpt lat="45.3512696363031864166259765625" lon="-70.81081084907054901123046875">
        <ele>727.79998779296875</ele>
        <time>2026-08-21T11:16:53.000Z</time>
        <extensions>
          <ns3:TrackPointExtension>
            <ns3:hr>128</ns3:hr>
            <ns3:cad>0</ns3:cad>
          </ns3:TrackPointExtension>
        </extensions>
      </trkpt>
      <trkpt lat="45.35125999711453914642333984375" lon="-70.81082182936370372772216796875">
        <ele>728</ele>
        <time>2026-08-21T11:16:54.000Z</time>
        <extensions>
          <ns3:TrackPointExtension>
            <ns3:hr>128</ns3:hr>
            <ns3:cad>0</ns3:cad>
          </ns3:TrackPointExtension>
        </extensions>
      </trkpt>
      <trkpt lat="45.35124658606946468353271484375" lon="-70.81083289347589015960693359375">
        <ele>728</ele>
        <time>2026-08-21T11:16:55.000Z</time>
        <extensions>
          <ns3:TrackPointExtension>
            <ns3:hr>127</ns3:hr>
            <ns3:cad>0</ns3:cad>
          </ns3:TrackPointExtension>
        </extensions>
      </trkpt>
      <trkpt lat="45.35123736597597599029541015625" lon="-70.8108391799032688140869140625">
        <ele>728.20001220703125</ele>
        <time>2026-08-21T11:16:56.000Z</time>
        <extensions>
          <ns3:TrackPointExtension>
            <ns3:hr>126</ns3:hr>
            <ns3:cad>53</ns3:cad>
          </ns3:TrackPointExtension>
        </extensions>
      </trkpt>
      <trkpt lat="45.351227559149265289306640625" lon="-70.81084328703582286834716796875">
        <ele>728.20001220703125</ele>
        <time>2026-08-21T11:16:57.000Z</time>
        <extensions>
          <ns3:TrackPointExtension>
            <ns3:hr>126</ns3:hr>
            <ns3:cad>57</ns3:cad>
          </ns3:TrackPointExtension>
        </extensions>
      </trkpt>
      <trkpt lat="45.35121674649417400360107421875" lon="-70.81084563396871089935302734375">
        <ele>728.4000244140625</ele>
        <time>2026-08-21T11:16:58.000Z</time>
        <extensions>
          <ns3:TrackPointExtension>
            <ns3:hr>126</ns3:hr>
            <ns3:cad>57</ns3:cad>
          </ns3:TrackPointExtension>
        </extensions>
      </trkpt>
      <trkpt lat="45.35120308399200439453125" lon="-70.8108489029109477996826171875">
        <ele>728.5999755859375</ele>
        <time>2026-08-21T11:16:59.000Z</time>
        <extensions>
          <ns3:TrackPointExtension>
            <ns3:hr>127</ns3:hr>
            <ns3:cad>52</ns3:cad>
          </ns3:TrackPointExtension>
        </extensions>
      </trkpt>
      <trkpt lat="45.35119436681270599365234375" lon="-70.81085233949124813079833984375">
        <ele>729</ele>
        <time>2026-08-21T11:17:00.000Z</time>
        <extensions>
          <ns3:TrackPointExtension>
            <ns3:hr>127</ns3:hr>
            <ns3:cad>52</ns3:cad>
          </ns3:TrackPointExtension>
        </extensions>
      </trkpt>
      <trkpt lat="45.35118824802339076995849609375" lon="-70.8108522556722164154052734375">
        <ele>729.20001220703125</ele>
        <time>2026-08-21T11:17:01.000Z</time>
        <extensions>
          <ns3:TrackPointExtension>
            <ns3:hr>126</ns3:hr>
            <ns3:cad>47</ns3:cad>
          </ns3:TrackPointExtension>
        </extensions>
      </trkpt>
      <trkpt lat="45.351183973252773284912109375" lon="-70.8108502440154552459716796875">
        <ele>729.5999755859375</ele>
        <time>2026-08-21T11:17:02.000Z</time>
        <extensions>
          <ns3:TrackPointExtension>
            <ns3:hr>126</ns3:hr>
            <ns3:cad>0</ns3:cad>
          </ns3:TrackPointExtension>
        </extensions>
      </trkpt>
      <trkpt lat="45.351179949939250946044921875" lon="-70.8108519203960895538330078125">
        <ele>730</ele>
        <time>2026-08-21T11:17:03.000Z</time>
        <extensions>
          <ns3:TrackPointExtension>
            <ns3:hr>126</ns3:hr>
            <ns3:cad>0</ns3:cad>
          </ns3:TrackPointExtension>
        </extensions>
      </trkpt>
      <trkpt lat="45.351177267730236053466796875" lon="-70.81085502170026302337646484375">
        <ele>730.4000244140625</ele>
        <time>2026-08-21T11:17:04.000Z</time>
        <extensions>
          <ns3:TrackPointExtension>
            <ns3:hr>126</ns3:hr>
            <ns3:cad>0</ns3:cad>
          </ns3:TrackPointExtension>
        </extensions>
      </trkpt>
      <trkpt lat="45.35117064602673053741455078125" lon="-70.81085653044283390045166015625">
        <ele>730.79998779296875</ele>
        <time>2026-08-21T11:17:05.000Z</time>
        <extensions>
          <ns3:TrackPointExtension>
            <ns3:hr>126</ns3:hr>
            <ns3:cad>0</ns3:cad>
          </ns3:TrackPointExtension>
        </extensions>
      </trkpt>
      <trkpt lat="45.3511630184948444366455078125" lon="-70.81085502170026302337646484375">
        <ele>731</ele>
        <time>2026-08-21T11:17:06.000Z</time>
        <extensions>
          <ns3:TrackPointExtension>
            <ns3:hr>126</ns3:hr>
            <ns3:cad>0</ns3:cad>
          </ns3:TrackPointExtension>
        </extensions>
      </trkpt>
      <trkpt lat="45.351161174476146697998046875" lon="-70.81085686571896076202392578125">
        <ele>731.4000244140625</ele>
        <time>2026-08-21T11:17:07.000Z</time>
        <extensions>
          <ns3:TrackPointExtension>
            <ns3:hr>127</ns3:hr>
            <ns3:cad>0</ns3:cad>
          </ns3:TrackPointExtension>
        </extensions>
      </trkpt>
      <trkpt lat="45.3511516191065311431884765625" lon="-70.8108611404895782470703125">
        <ele>731.5999755859375</ele>
        <time>2026-08-21T11:17:08.000Z</time>
        <extensions>
          <ns3:TrackPointExtension>
            <ns3:hr>128</ns3:hr>
            <ns3:cad>0</ns3:cad>
          </ns3:TrackPointExtension>
        </extensions>
      </trkpt>
      <trkpt lat="45.35114281810820102691650390625" lon="-70.81086642108857631683349609375">
        <ele>731.79998779296875</ele>
        <time>2026-08-21T11:17:09.000Z</time>
        <extensions>
          <ns3:TrackPointExtension>
            <ns3:hr>128</ns3:hr>
            <ns3:cad>0</ns3:cad>
          </ns3:TrackPointExtension>
        </extensions>
      </trkpt>
      <trkpt lat="45.3511278145015239715576171875" lon="-70.81087145023047924041748046875">
        <ele>732</ele>
        <time>2026-08-21T11:17:10.000Z</time>
        <extensions>
          <ns3:TrackPointExtension>
            <ns3:hr>128</ns3:hr>
            <ns3:cad>0</ns3:cad>
          </ns3:TrackPointExtension>
        </extensions>
      </trkpt>
      <trkpt lat="45.35112219862639904022216796875" lon="-70.81087212078273296356201171875">
        <ele>732.4000244140625</ele>
        <time>2026-08-21T11:17:11.000Z</time>
        <extensions>
          <ns3:TrackPointExtension>
            <ns3:hr>129</ns3:hr>
            <ns3:cad>0</ns3:cad>
          </ns3:TrackPointExtension>
        </extensions>
      </trkpt>
      <trkpt lat="45.351112894713878631591796875" lon="-70.8108760602772235870361328125">
        <ele>732.5999755859375</ele>
        <time>2026-08-21T11:17:12.000Z</time>
        <extensions>
          <ns3:TrackPointExtension>
            <ns3:hr>130</ns3:hr>
            <ns3:cad>0</ns3:cad>
          </ns3:TrackPointExtension>
        </extensions>
      </trkpt>
      <trkpt lat="45.35110593773424625396728515625" lon="-70.8108780719339847564697265625">
        <ele>732.79998779296875</ele>
        <time>2026-08-21T11:17:13.000Z</time>
        <extensions>
          <ns3:TrackPointExtension>
            <ns3:hr>131</ns3:hr>
            <ns3:cad>0</ns3:cad>
          </ns3:TrackPointExtension>
        </extensions>
      </trkpt>
      <trkpt lat="45.35110451281070709228515625" lon="-70.81086759455502033233642578125">
        <ele>733</ele>
        <time>2026-08-21T11:17:14.000Z</time>
        <extensions>
          <ns3:TrackPointExtension>
            <ns3:hr>132</ns3:hr>
            <ns3:cad>0</ns3:cad>
          </ns3:TrackPointExtension>
        </extensions>
      </trkpt>
      <trkpt lat="45.35109856165945529937744140625" lon="-70.8108613081276416778564453125">
        <ele>733.4000244140625</ele>
        <time>2026-08-21T11:17:15.000Z</time>
        <extensions>
          <ns3:TrackPointExtension>
            <ns3:hr>133</ns3:hr>
            <ns3:cad>0</ns3:cad>
          </ns3:TrackPointExtension>
        </extensions>
      </trkpt>
      <trkpt lat="45.35108582116663455963134765625" lon="-70.81086407415568828582763671875">
        <ele>733.5999755859375</ele>
        <time>2026-08-21T11:17:16.000Z</time>
        <extensions>
          <ns3:TrackPointExtension>
            <ns3:hr>134</ns3:hr>
            <ns3:cad>0</ns3:cad>
          </ns3:TrackPointExtension>
        </extensions>
      </trkpt>
      <trkpt lat="45.35107878036797046661376953125" lon="-70.81087044440209865570068359375">
        <ele>733.79998779296875</ele>
        <time>2026-08-21T11:17:17.000Z</time>
        <extensions>
          <ns3:TrackPointExtension>
            <ns3:hr>135</ns3:hr>
            <ns3:cad>0</ns3:cad>
          </ns3:TrackPointExtension>
        </extensions>
      </trkpt>
      <trkpt lat="45.351068973541259765625" lon="-70.8108827657997608184814453125">
        <ele>734</ele>
        <time>2026-08-21T11:17:18.000Z</time>
        <extensions>
          <ns3:TrackPointExtension>
            <ns3:hr>135</ns3:hr>
            <ns3:cad>0</ns3:cad>
          </ns3:TrackPointExtension>
        </extensions>
      </trkpt>
      <trkpt lat="45.3510567359626293182373046875" lon="-70.810905061662197113037109375">
        <ele>734.20001220703125</ele>
        <time>2026-08-21T11:17:19.000Z</time>
        <extensions>
          <ns3:TrackPointExtension>
            <ns3:hr>135</ns3:hr>
            <ns3:cad>0</ns3:cad>
          </ns3:TrackPointExtension>
        </extensions>
      </trkpt>
      <trkpt lat="45.3510496951639652252197265625" lon="-70.81091738305985927581787109375">
        <ele>734.20001220703125</ele>
        <time>2026-08-21T11:17:20.000Z</time>
        <extensions>
          <ns3:TrackPointExtension>
            <ns3:hr>136</ns3:hr>
            <ns3:cad>47</ns3:cad>
          </ns3:TrackPointExtension>
        </extensions>
      </trkpt>
      <trkpt lat="45.35103854723274707794189453125" lon="-70.81092341803014278411865234375">
        <ele>734.20001220703125</ele>
        <time>2026-08-21T11:17:21.000Z</time>
        <extensions>
          <ns3:TrackPointExtension>
            <ns3:hr>136</ns3:hr>
            <ns3:cad>47</ns3:cad>
          </ns3:TrackPointExtension>
        </extensions>
      </trkpt>
      <trkpt lat="45.35102765075862407684326171875" lon="-70.8109263516962528228759765625">
        <ele>734.20001220703125</ele>
        <time>2026-08-21T11:17:22.000Z</time>
        <extensions>
          <ns3:TrackPointExtension>
            <ns3:hr>136</ns3:hr>
            <ns3:cad>47</ns3:cad>
          </ns3:TrackPointExtension>
        </extensions>
      </trkpt>
      <trkpt lat="45.35101977176964282989501953125" lon="-70.81092509441077709197998046875">
        <ele>734.20001220703125</ele>
        <time>2026-08-21T11:17:23.000Z</time>
        <extensions>
          <ns3:TrackPointExtension>
            <ns3:hr>137</ns3:hr>
            <ns3:cad>0</ns3:cad>
          </ns3:TrackPointExtension>
        </extensions>
      </trkpt>
      <trkpt lat="45.35100837238132953643798828125" lon="-70.8109152875840663909912109375">
        <ele>734.20001220703125</ele>
        <time>2026-08-21T11:17:24.000Z</time>
        <extensions>
          <ns3:TrackPointExtension>
            <ns3:hr>137</ns3:hr>
            <ns3:cad>0</ns3:cad>
          </ns3:TrackPointExtension>
        </extensions>
      </trkpt>
      <trkpt lat="45.35099931992590427398681640625" lon="-70.81091101281344890594482421875">
        <ele>734.4000244140625</ele>
        <time>2026-08-21T11:17:25.000Z</time>
        <extensions>
          <ns3:TrackPointExtension>
            <ns3:hr>137</ns3:hr>
            <ns3:cad>0</ns3:cad>
          </ns3:TrackPointExtension>
        </extensions>
      </trkpt>
      <trkpt lat="45.35099144093692302703857421875" lon="-70.81090967170894145965576171875">
        <ele>734.4000244140625</ele>
        <time>2026-08-21T11:17:26.000Z</time>
        <extensions>
          <ns3:TrackPointExtension>
            <ns3:hr>138</ns3:hr>
            <ns3:cad>0</ns3:cad>
          </ns3:TrackPointExtension>
        </extensions>
      </trkpt>
      <trkpt lat="45.3509846515953540802001953125" lon="-70.8109072409570217132568359375">
        <ele>734.5999755859375</ele>
        <time>2026-08-21T11:17:27.000Z</time>
        <extensions>
          <ns3:TrackPointExtension>
            <ns3:hr>138</ns3:hr>
            <ns3:cad>0</ns3:cad>
          </ns3:TrackPointExtension>
        </extensions>
      </trkpt>
      <trkpt lat="45.35097920335829257965087890625" lon="-70.81090145744383335113525390625">
        <ele>734.5999755859375</ele>
        <time>2026-08-21T11:17:28.000Z</time>
        <extensions>
          <ns3:TrackPointExtension>
            <ns3:hr>139</ns3:hr>
            <ns3:cad>46</ns3:cad>
          </ns3:TrackPointExtension>
        </extensions>
      </trkpt>
      <trkpt lat="45.3509715758264064788818359375" lon="-70.8108934946358203887939453125">
        <ele>734.79998779296875</ele>
        <time>2026-08-21T11:17:29.000Z</time>
        <extensions>
          <ns3:TrackPointExtension>
            <ns3:hr>139</ns3:hr>
            <ns3:cad>46</ns3:cad>
          </ns3:TrackPointExtension>
        </extensions>
      </trkpt>
      <trkpt lat="45.350963361561298370361328125" lon="-70.8108901418745517730712890625">
        <ele>735</ele>
        <time>2026-08-21T11:17:30.000Z</time>
        <extensions>
          <ns3:TrackPointExtension>
            <ns3:hr>140</ns3:hr>
            <ns3:cad>46</ns3:cad>
          </ns3:TrackPointExtension>
        </extensions>
      </trkpt>
      <trkpt lat="45.3509574942290782928466796875" lon="-70.8108847774565219879150390625">
        <ele>735.20001220703125</ele>
        <time>2026-08-21T11:17:31.000Z</time>
        <extensions>
          <ns3:TrackPointExtension>
            <ns3:hr>140</ns3:hr>
            <ns3:cad>46</ns3:cad>
          </ns3:TrackPointExtension>
        </extensions>
      </trkpt>
      <trkpt lat="45.350954644381999969482421875" lon="-70.81088469363749027252197265625">
        <ele>735.4000244140625</ele>
        <time>2026-08-21T11:17:32.000Z</time>
        <extensions>
          <ns3:TrackPointExtension>
            <ns3:hr>140</ns3:hr>
            <ns3:cad>46</ns3:cad>
          </ns3:TrackPointExtension>
        </extensions>
      </trkpt>
      <trkpt lat="45.3509514592587947845458984375" lon="-70.810882933437824249267578125">
        <ele>735.5999755859375</ele>
        <time>2026-08-21T11:17:33.000Z</time>
        <extensions>
          <ns3:TrackPointExtension>
            <ns3:hr>140</ns3:hr>
            <ns3:cad>46</ns3:cad>
          </ns3:TrackPointExtension>
        </extensions>
      </trkpt>
      <trkpt lat="45.35094718448817729949951171875" lon="-70.8108767308294773101806640625">
        <ele>736</ele>
        <time>2026-08-21T11:17:34.000Z</time>
        <extensions>
          <ns3:TrackPointExtension>
            <ns3:hr>140</ns3:hr>
            <ns3:cad>46</ns3:cad>
          </ns3:TrackPointExtension>
        </extensions>
      </trkpt>
      <trkpt lat="45.350943244993686676025390625" lon="-70.8108693547546863555908203125">
        <ele>736.20001220703125</ele>
        <time>2026-08-21T11:17:35.000Z</time>
        <extensions>
          <ns3:TrackPointExtension>
            <ns3:hr>140</ns3:hr>
            <ns3:cad>46</ns3:cad>
          </ns3:TrackPointExtension>
        </extensions>
      </trkpt>
      <trkpt lat="45.35093829967081546783447265625" lon="-70.810862816870212554931640625">
        <ele>736.5999755859375</ele>
        <time>2026-08-21T11:17:36.000Z</time>
        <extensions>
          <ns3:TrackPointExtension>
            <ns3:hr>140</ns3:hr>
            <ns3:cad>46</ns3:cad>
          </ns3:TrackPointExtension>
        </extensions>
      </trkpt>
      <trkpt lat="45.35093477927148342132568359375" lon="-70.81085988320410251617431640625">
        <ele>736.79998779296875</ele>
        <time>2026-08-21T11:17:37.000Z</time>
        <extensions>
          <ns3:TrackPointExtension>
            <ns3:hr>140</ns3:hr>
            <ns3:cad>46</ns3:cad>
          </ns3:TrackPointExtension>
        </extensions>
      </trkpt>
      <trkpt lat="45.3509279899299144744873046875" lon="-70.81084839999675750732421875">
        <ele>737.20001220703125</ele>
        <time>2026-08-21T11:17:38.000Z</time>
        <extensions>
          <ns3:TrackPointExtension>
            <ns3:hr>140</ns3:hr>
            <ns3:cad>0</ns3:cad>
          </ns3:TrackPointExtension>
        </extensions>
      </trkpt>
      <trkpt lat="45.35092254169285297393798828125" lon="-70.81084194593131542205810546875">
        <ele>737.4000244140625</ele>
        <time>2026-08-21T11:17:39.000Z</time>
        <extensions>
          <ns3:TrackPointExtension>
            <ns3:hr>140</ns3:hr>
            <ns3:cad>0</ns3:cad>
          </ns3:TrackPointExtension>
        </extensions>
      </trkpt>
      <trkpt lat="45.3509189374744892120361328125" lon="-70.8108321391046047210693359375">
        <ele>737.79998779296875</ele>
        <time>2026-08-21T11:17:40.000Z</time>
        <extensions>
          <ns3:TrackPointExtension>
            <ns3:hr>141</ns3:hr>
            <ns3:cad>0</ns3:cad>
          </ns3:TrackPointExtension>
        </extensions>
      </trkpt>
      <trkpt lat="45.3509145788848400115966796875" lon="-70.81082551740109920501708984375">
        <ele>738</ele>
        <time>2026-08-21T11:17:41.000Z</time>
        <extensions>
          <ns3:TrackPointExtension>
            <ns3:hr>140</ns3:hr>
            <ns3:cad>0</ns3:cad>
          </ns3:TrackPointExtension>
        </extensions>
      </trkpt>
      <trkpt lat="45.3509078733623027801513671875" lon="-70.81082023680210113525390625">
        <ele>738.4000244140625</ele>
        <time>2026-08-21T11:17:42.000Z</time>
        <extensions>
          <ns3:TrackPointExtension>
            <ns3:hr>140</ns3:hr>
            <ns3:cad>0</ns3:cad>
          </ns3:TrackPointExtension>
        </extensions>
      </trkpt>
      <trkpt lat="45.3509035147726535797119140625" lon="-70.81081529147922992706298828125">
        <ele>738.5999755859375</ele>
        <time>2026-08-21T11:17:43.000Z</time>
        <extensions>
          <ns3:TrackPointExtension>
            <ns3:hr>140</ns3:hr>
            <ns3:cad>0</ns3:cad>
          </ns3:TrackPointExtension>
        </extensions>
      </trkpt>
      <trkpt lat="45.35089840181171894073486328125" lon="-70.8108103461563587188720703125">
        <ele>738.79998779296875</ele>
        <time>2026-08-21T11:17:44.000Z</time>
        <extensions>
          <ns3:TrackPointExtension>
            <ns3:hr>141</ns3:hr>
            <ns3:cad>43</ns3:cad>
          </ns3:TrackPointExtension>
        </extensions>
      </trkpt>
      <trkpt lat="45.350892953574657440185546875" lon="-70.8108021318912506103515625">
        <ele>739</ele>
        <time>2026-08-21T11:17:45.000Z</time>
        <extensions>
          <ns3:TrackPointExtension>
            <ns3:hr>140</ns3:hr>
            <ns3:cad>43</ns3:cad>
          </ns3:TrackPointExtension>
        </extensions>
      </trkpt>
      <trkpt lat="45.35088867880403995513916015625" lon="-70.81079475581645965576171875">
        <ele>739.4000244140625</ele>
        <time>2026-08-21T11:17:46.000Z</time>
        <extensions>
          <ns3:TrackPointExtension>
            <ns3:hr>140</ns3:hr>
            <ns3:cad>43</ns3:cad>
          </ns3:TrackPointExtension>
        </extensions>
      </trkpt>
      <trkpt lat="45.3508870862424373626708984375" lon="-70.81079282797873020172119140625">
        <ele>739.5999755859375</ele>
        <time>2026-08-21T11:17:47.000Z</time>
        <extensions>
          <ns3:TrackPointExtension>
            <ns3:hr>141</ns3:hr>
            <ns3:cad>43</ns3:cad>
          </ns3:TrackPointExtension>
        </extensions>
      </trkpt>
      <trkpt lat="45.35088323056697845458984375" lon="-70.81078880466520786285400390625">
        <ele>739.79998779296875</ele>
        <time>2026-08-21T11:17:48.000Z</time>
        <extensions>
          <ns3:TrackPointExtension>
            <ns3:hr>141</ns3:hr>
            <ns3:cad>43</ns3:cad>
          </ns3:TrackPointExtension>
        </extensions>
      </trkpt>
      <trkpt lat="45.35087644122540950775146484375" lon="-70.8107793331146240234375">
        <ele>740.20001220703125</ele>
        <time>2026-08-21T11:17:49.000Z</time>
        <extensions>
          <ns3:TrackPointExtension>
            <ns3:hr>142</ns3:hr>
            <ns3:cad>46</ns3:cad>
          </ns3:TrackPointExtension>
        </extensions>
      </trkpt>
      <trkpt lat="45.35087208263576030731201171875" lon="-70.81077187322080135345458984375">
        <ele>740.4000244140625</ele>
        <time>2026-08-21T11:17:50.000Z</time>
        <extensions>
          <ns3:TrackPointExtension>
            <ns3:hr>142</ns3:hr>
            <ns3:cad>46</ns3:cad>
          </ns3:TrackPointExtension>
        </extensions>
      </trkpt>
      <trkpt lat="45.35086956806480884552001953125" lon="-70.81076466478407382965087890625">
        <ele>740.5999755859375</ele>
        <time>2026-08-21T11:17:51.000Z</time>
        <extensions>
          <ns3:TrackPointExtension>
            <ns3:hr>142</ns3:hr>
            <ns3:cad>46</ns3:cad>
          </ns3:TrackPointExtension>
        </extensions>
      </trkpt>
      <trkpt lat="45.35086336545646190643310546875" lon="-70.810752846300601959228515625">
        <ele>741</ele>
        <time>2026-08-21T11:17:52.000Z</time>
        <extensions>
          <ns3:TrackPointExtension>
            <ns3:hr>142</ns3:hr>
            <ns3:cad>44</ns3:cad>
          </ns3:TrackPointExtension>
        </extensions>
      </trkpt>
      <trkpt lat="45.35085716284811496734619140625" lon="-70.810739435255527496337890625">
        <ele>741.20001220703125</ele>
        <time>2026-08-21T11:17:53.000Z</time>
        <extensions>
          <ns3:TrackPointExtension>
            <ns3:hr>143</ns3:hr>
            <ns3:cad>44</ns3:cad>
          </ns3:TrackPointExtension>
        </extensions>
      </trkpt>
      <trkpt lat="45.350848697125911712646484375" lon="-70.81073398701846599578857421875">
        <ele>741.4000244140625</ele>
        <time>2026-08-21T11:17:54.000Z</time>
        <extensions>
          <ns3:TrackPointExtension>
            <ns3:hr>143</ns3:hr>
            <ns3:cad>43</ns3:cad>
          </ns3:TrackPointExtension>
        </extensions>
      </trkpt>
      <trkpt lat="45.3508438356220722198486328125" lon="-70.8107285387814044952392578125">
        <ele>741.5999755859375</ele>
        <time>2026-08-21T11:17:55.000Z</time>
        <extensions>
          <ns3:TrackPointExtension>
            <ns3:hr>144</ns3:hr>
            <ns3:cad>43</ns3:cad>
          </ns3:TrackPointExtension>
        </extensions>
      </trkpt>
      <trkpt lat="45.350840650498867034912109375" lon="-70.8107154630124568939208984375">
        <ele>741.79998779296875</ele>
        <time>2026-08-21T11:17:56.000Z</time>
        <extensions>
          <ns3:TrackPointExtension>
            <ns3:hr>144</ns3:hr>
            <ns3:cad>43</ns3:cad>
          </ns3:TrackPointExtension>
        </extensions>
      </trkpt>
      <trkpt lat="45.3508354537189006805419921875" lon="-70.8107030577957630157470703125">
        <ele>742</ele>
        <time>2026-08-21T11:17:57.000Z</time>
        <extensions>
          <ns3:TrackPointExtension>
            <ns3:hr>145</ns3:hr>
            <ns3:cad>43</ns3:cad>
          </ns3:TrackPointExtension>
        </extensions>
      </trkpt>
      <trkpt lat="45.350832603871822357177734375" lon="-70.81069392152130603790283203125">
        <ele>742</ele>
        <time>2026-08-21T11:17:58.000Z</time>
        <extensions>
          <ns3:TrackPointExtension>
            <ns3:hr>145</ns3:hr>
            <ns3:cad>43</ns3:cad>
          </ns3:TrackPointExtension>
        </extensions>
      </trkpt>
      <trkpt lat="45.3508294187486171722412109375" lon="-70.810680426657199859619140625">
        <ele>742.20001220703125</ele>
        <time>2026-08-21T11:17:59.000Z</time>
        <extensions>
          <ns3:TrackPointExtension>
            <ns3:hr>145</ns3:hr>
            <ns3:cad>43</ns3:cad>
          </ns3:TrackPointExtension>
        </extensions>
      </trkpt>
      <trkpt lat="45.35082128830254077911376953125" lon="-70.8106681890785694122314453125">
        <ele>742.4000244140625</ele>
        <time>2026-08-21T11:18:00.000Z</time>
        <extensions>
          <ns3:TrackPointExtension>
            <ns3:hr>146</ns3:hr>
            <ns3:cad>43</ns3:cad>
          </ns3:TrackPointExtension>
        </extensions>
      </trkpt>
      <trkpt lat="45.350817181169986724853515625" lon="-70.81065486185252666473388671875">
        <ele>742.5999755859375</ele>
        <time>2026-08-21T11:18:01.000Z</time>
        <extensions>
          <ns3:TrackPointExtension>
            <ns3:hr>147</ns3:hr>
            <ns3:cad>45</ns3:cad>
          </ns3:TrackPointExtension>
        </extensions>
      </trkpt>
      <trkpt lat="45.35081307403743267059326171875" lon="-70.81064597703516483306884765625">
        <ele>742.79998779296875</ele>
        <time>2026-08-21T11:18:02.000Z</time>
        <extensions>
          <ns3:TrackPointExtension>
            <ns3:hr>148</ns3:hr>
            <ns3:cad>45</ns3:cad>
          </ns3:TrackPointExtension>
        </extensions>
      </trkpt>
      <trkpt lat="45.35081081092357635498046875" lon="-70.81063860096037387847900390625">
        <ele>743.20001220703125</ele>
        <time>2026-08-21T11:18:03.000Z</time>
        <extensions>
          <ns3:TrackPointExtension>
            <ns3:hr>148</ns3:hr>
            <ns3:cad>45</ns3:cad>
          </ns3:TrackPointExtension>
        </extensions>
      </trkpt>
      <trkpt lat="45.35080737434327602386474609375" lon="-70.81062904559075832366943359375">
        <ele>743.4000244140625</ele>
        <time>2026-08-21T11:18:04.000Z</time>
        <extensions>
          <ns3:TrackPointExtension>
            <ns3:hr>148</ns3:hr>
            <ns3:cad>50</ns3:cad>
          </ns3:TrackPointExtension>
        </extensions>
      </trkpt>
      <trkpt lat="45.3508029319345951080322265625" lon="-70.81061278469860553741455078125">
        <ele>743.79998779296875</ele>
        <time>2026-08-21T11:18:05.000Z</time>
        <extensions>
          <ns3:TrackPointExtension>
            <ns3:hr>149</ns3:hr>
            <ns3:cad>50</ns3:cad>
          </ns3:TrackPointExtension>
        </extensions>
      </trkpt>
      <trkpt lat="45.35079605877399444580078125" lon="-70.810590572655200958251953125">
        <ele>744</ele>
        <time>2026-08-21T11:18:06.000Z</time>
        <extensions>
          <ns3:TrackPointExtension>
            <ns3:hr>149</ns3:hr>
            <ns3:cad>49</ns3:cad>
          </ns3:TrackPointExtension>
        </extensions>
      </trkpt>
      <trkpt lat="45.3507908619940280914306640625" lon="-70.81056945025920867919921875">
        <ele>744.20001220703125</ele>
        <time>2026-08-21T11:18:07.000Z</time>
        <extensions>
          <ns3:TrackPointExtension>
            <ns3:hr>149</ns3:hr>
            <ns3:cad>49</ns3:cad>
          </ns3:TrackPointExtension>
        </extensions>
      </trkpt>
      <trkpt lat="45.3507878445088863372802734375" lon="-70.81055109389126300811767578125">
        <ele>744.4000244140625</ele>
        <time>2026-08-21T11:18:08.000Z</time>
        <extensions>
          <ns3:TrackPointExtension>
            <ns3:hr>149</ns3:hr>
            <ns3:cad>50</ns3:cad>
          </ns3:TrackPointExtension>
        </extensions>
      </trkpt>
      <trkpt lat="45.35078658722341060638427734375" lon="-70.81053986214101314544677734375">
        <ele>744.5999755859375</ele>
        <time>2026-08-21T11:18:09.000Z</time>
        <extensions>
          <ns3:TrackPointExtension>
            <ns3:hr>148</ns3:hr>
            <ns3:cad>50</ns3:cad>
          </ns3:TrackPointExtension>
        </extensions>
      </trkpt>
      <trkpt lat="45.350781977176666259765625" lon="-70.81052385270595550537109375">
        <ele>744.5999755859375</ele>
        <time>2026-08-21T11:18:10.000Z</time>
        <extensions>
          <ns3:TrackPointExtension>
            <ns3:hr>149</ns3:hr>
            <ns3:cad>50</ns3:cad>
          </ns3:TrackPointExtension>
        </extensions>
      </trkpt>
      <trkpt lat="45.35077468492090702056884765625" lon="-70.81050507724285125732421875">
        <ele>744.79998779296875</ele>
        <time>2026-08-21T11:18:11.000Z</time>
        <extensions>
          <ns3:TrackPointExtension>
            <ns3:hr>149</ns3:hr>
            <ns3:cad>51</ns3:cad>
          </ns3:TrackPointExtension>
        </extensions>
      </trkpt>
      <trkpt lat="45.3507699072360992431640625" lon="-70.81048898398876190185546875">
        <ele>745</ele>
        <time>2026-08-21T11:18:12.000Z</time>
        <extensions>
          <ns3:TrackPointExtension>
            <ns3:hr>149</ns3:hr>
            <ns3:cad>51</ns3:cad>
          </ns3:TrackPointExtension>
        </extensions>
      </trkpt>
      <trkpt lat="45.350764878094196319580078125" lon="-70.81047330982983112335205078125">
        <ele>745.20001220703125</ele>
        <time>2026-08-21T11:18:13.000Z</time>
        <extensions>
          <ns3:TrackPointExtension>
            <ns3:hr>149</ns3:hr>
            <ns3:cad>51</ns3:cad>
          </ns3:TrackPointExtension>
        </extensions>
      </trkpt>
      <trkpt lat="45.35076177679002285003662109375" lon="-70.81045621074736118316650390625">
        <ele>745.4000244140625</ele>
        <time>2026-08-21T11:18:14.000Z</time>
        <extensions>
          <ns3:TrackPointExtension>
            <ns3:hr>148</ns3:hr>
            <ns3:cad>51</ns3:cad>
          </ns3:TrackPointExtension>
        </extensions>
      </trkpt>
      <trkpt lat="45.35075658001005649566650390625" lon="-70.810441039502620697021484375">
        <ele>745.4000244140625</ele>
        <time>2026-08-21T11:18:15.000Z</time>
        <extensions>
          <ns3:TrackPointExtension>
            <ns3:hr>149</ns3:hr>
            <ns3:cad>51</ns3:cad>
          </ns3:TrackPointExtension>
        </extensions>
      </trkpt>
      <trkpt lat="45.3507512994110584259033203125" lon="-70.810428299009799957275390625">
        <ele>745.5999755859375</ele>
        <time>2026-08-21T11:18:16.000Z</time>
        <extensions>
          <ns3:TrackPointExtension>
            <ns3:hr>149</ns3:hr>
            <ns3:cad>51</ns3:cad>
          </ns3:TrackPointExtension>
        </extensions>
      </trkpt>
      <trkpt lat="45.350746102631092071533203125" lon="-70.81040558405220508575439453125">
        <ele>745.79998779296875</ele>
        <time>2026-08-21T11:18:17.000Z</time>
        <extensions>
          <ns3:TrackPointExtension>
            <ns3:hr>148</ns3:hr>
            <ns3:cad>51</ns3:cad>
          </ns3:TrackPointExtension>
        </extensions>
      </trkpt>
      <trkpt lat="45.3507388941943645477294921875" lon="-70.810378678143024444580078125">
        <ele>745.79998779296875</ele>
        <time>2026-08-21T11:18:18.000Z</time>
        <extensions>
          <ns3:TrackPointExtension>
            <ns3:hr>149</ns3:hr>
            <ns3:cad>51</ns3:cad>
          </ns3:TrackPointExtension>
        </extensions>
      </trkpt>
      <trkpt lat="45.3507315181195735931396484375" lon="-70.8103590644896030426025390625">
        <ele>746</ele>
        <time>2026-08-21T11:18:19.000Z</time>
        <extensions>
          <ns3:TrackPointExtension>
            <ns3:hr>149</ns3:hr>
            <ns3:cad>51</ns3:cad>
          </ns3:TrackPointExtension>
        </extensions>
      </trkpt>
      <trkpt lat="45.35072498023509979248046875" lon="-70.810341797769069671630859375">
        <ele>746</ele>
        <time>2026-08-21T11:18:20.000Z</time>
        <extensions>
          <ns3:TrackPointExtension>
            <ns3:hr>148</ns3:hr>
            <ns3:cad>51</ns3:cad>
          </ns3:TrackPointExtension>
        </extensions>
      </trkpt>
      <trkpt lat="45.35071953199803829193115234375" lon="-70.81032495014369487762451171875">
        <ele>746.20001220703125</ele>
        <time>2026-08-21T11:18:21.000Z</time>
        <extensions>
          <ns3:TrackPointExtension>
            <ns3:hr>148</ns3:hr>
            <ns3:cad>51</ns3:cad>
          </ns3:TrackPointExtension>
        </extensions>
      </trkpt>
      <trkpt lat="45.35071450285613536834716796875" lon="-70.81030793488025665283203125">
        <ele>746.20001220703125</ele>
        <time>2026-08-21T11:18:22.000Z</time>
        <extensions>
          <ns3:TrackPointExtension>
            <ns3:hr>148</ns3:hr>
            <ns3:cad>51</ns3:cad>
          </ns3:TrackPointExtension>
        </extensions>
      </trkpt>
      <trkpt lat="45.3507090546190738677978515625" lon="-70.81029410474002361297607421875">
        <ele>746.20001220703125</ele>
        <time>2026-08-21T11:18:23.000Z</time>
        <extensions>
          <ns3:TrackPointExtension>
            <ns3:hr>148</ns3:hr>
            <ns3:cad>51</ns3:cad>
          </ns3:TrackPointExtension>
        </extensions>
      </trkpt>
      <trkpt lat="45.35070444457232952117919921875" lon="-70.810277760028839111328125">
        <ele>746.4000244140625</ele>
        <time>2026-08-21T11:18:24.000Z</time>
        <extensions>
          <ns3:TrackPointExtension>
            <ns3:hr>149</ns3:hr>
            <ns3:cad>51</ns3:cad>
          </ns3:TrackPointExtension>
        </extensions>
      </trkpt>
      <trkpt lat="45.350696481764316558837890625" lon="-70.8102554641664028167724609375">
        <ele>746.4000244140625</ele>
        <time>2026-08-21T11:18:25.000Z</time>
        <extensions>
          <ns3:TrackPointExtension>
            <ns3:hr>148</ns3:hr>
            <ns3:cad>51</ns3:cad>
          </ns3:TrackPointExtension>
        </extensions>
      </trkpt>
      <trkpt lat="45.35069237463176250457763671875" lon="-70.810235179960727691650390625">
        <ele>746.5999755859375</ele>
        <time>2026-08-21T11:18:26.000Z</time>
        <extensions>
          <ns3:TrackPointExtension>
            <ns3:hr>148</ns3:hr>
            <ns3:cad>51</ns3:cad>
          </ns3:TrackPointExtension>
        </extensions>
      </trkpt>
      <trkpt lat="45.35068047232925891876220703125" lon="-70.81021682359278202056884765625">
        <ele>746.5999755859375</ele>
        <time>2026-08-21T11:18:27.000Z</time>
        <extensions>
          <ns3:TrackPointExtension>
            <ns3:hr>149</ns3:hr>
            <ns3:cad>51</ns3:cad>
          </ns3:TrackPointExtension>
        </extensions>
      </trkpt>
      <trkpt lat="45.3506681509315967559814453125" lon="-70.81019955687224864959716796875">
        <ele>746.5999755859375</ele>
        <time>2026-08-21T11:18:28.000Z</time>
        <extensions>
          <ns3:TrackPointExtension>
            <ns3:hr>148</ns3:hr>
            <ns3:cad>52</ns3:cad>
          </ns3:TrackPointExtension>
        </extensions>
      </trkpt>
      <trkpt lat="45.35065515898168087005615234375" lon="-70.81017826683819293975830078125">
        <ele>746.5999755859375</ele>
        <time>2026-08-21T11:18:29.000Z</time>
        <extensions>
          <ns3:TrackPointExtension>
            <ns3:hr>148</ns3:hr>
            <ns3:cad>52</ns3:cad>
          </ns3:TrackPointExtension>
        </extensions>
      </trkpt>
      <trkpt lat="45.35064225085079669952392578125" lon="-70.810166783630847930908203125">
        <ele>746.79998779296875</ele>
        <time>2026-08-21T11:18:30.000Z</time>
        <extensions>
          <ns3:TrackPointExtension>
            <ns3:hr>148</ns3:hr>
            <ns3:cad>53</ns3:cad>
          </ns3:TrackPointExtension>
        </extensions>
      </trkpt>
      <trkpt lat="45.35062951035797595977783203125" lon="-70.8101595751941204071044921875">
        <ele>746.79998779296875</ele>
        <time>2026-08-21T11:18:31.000Z</time>
        <extensions>
          <ns3:TrackPointExtension>
            <ns3:hr>147</ns3:hr>
            <ns3:cad>53</ns3:cad>
          </ns3:TrackPointExtension>
        </extensions>
      </trkpt>
      <trkpt lat="45.35061392001807689666748046875" lon="-70.8101511932909488677978515625">
        <ele>746.79998779296875</ele>
        <time>2026-08-21T11:18:32.000Z</time>
        <extensions>
          <ns3:TrackPointExtension>
            <ns3:hr>147</ns3:hr>
            <ns3:cad>53</ns3:cad>
          </ns3:TrackPointExtension>
        </extensions>
      </trkpt>
      <trkpt lat="45.35058894194662570953369140625" lon="-70.81013359129428863525390625">
        <ele>746.5999755859375</ele>
        <time>2026-08-21T11:18:33.000Z</time>
        <extensions>
          <ns3:TrackPointExtension>
            <ns3:hr>147</ns3:hr>
            <ns3:cad>53</ns3:cad>
          </ns3:TrackPointExtension>
        </extensions>
      </trkpt>
      <trkpt lat="45.35057184286415576934814453125" lon="-70.81012445501983165740966796875">
        <ele>746.5999755859375</ele>
        <time>2026-08-21T11:18:34.000Z</time>
        <extensions>
          <ns3:TrackPointExtension>
            <ns3:hr>147</ns3:hr>
            <ns3:cad>53</ns3:cad>
          </ns3:TrackPointExtension>
        </extensions>
      </trkpt>
      <trkpt lat="45.35055021755397319793701171875" lon="-70.81011691130697727203369140625">
        <ele>746.5999755859375</ele>
        <time>2026-08-21T11:18:35.000Z</time>
        <extensions>
          <ns3:TrackPointExtension>
            <ns3:hr>147</ns3:hr>
            <ns3:cad>53</ns3:cad>
          </ns3:TrackPointExtension>
        </extensions>
      </trkpt>
      <trkpt lat="45.35052909515798091888427734375" lon="-70.81010945141315460205078125">
        <ele>746.4000244140625</ele>
        <time>2026-08-21T11:18:36.000Z</time>
        <extensions>
          <ns3:TrackPointExtension>
            <ns3:hr>146</ns3:hr>
            <ns3:cad>53</ns3:cad>
          </ns3:TrackPointExtension>
        </extensions>
      </trkpt>
      <trkpt lat="45.3505125828087329864501953125" lon="-70.81010408699512481689453125">
        <ele>746.4000244140625</ele>
        <time>2026-08-21T11:18:37.000Z</time>
        <extensions>
          <ns3:TrackPointExtension>
            <ns3:hr>146</ns3:hr>
            <ns3:cad>53</ns3:cad>
          </ns3:TrackPointExtension>
        </extensions>
      </trkpt>
      <trkpt lat="45.35049607045948505401611328125" lon="-70.81010215915739536285400390625">
        <ele>746.4000244140625</ele>
        <time>2026-08-21T11:18:38.000Z</time>
        <extensions>
          <ns3:TrackPointExtension>
            <ns3:hr>146</ns3:hr>
            <ns3:cad>53</ns3:cad>
          </ns3:TrackPointExtension>
        </extensions>
      </trkpt>
      <trkpt lat="45.35048148594796657562255859375" lon="-70.81009981222450733184814453125">
        <ele>746.4000244140625</ele>
        <time>2026-08-21T11:18:39.000Z</time>
        <extensions>
          <ns3:TrackPointExtension>
            <ns3:hr>145</ns3:hr>
            <ns3:cad>53</ns3:cad>
          </ns3:TrackPointExtension>
        </extensions>
      </trkpt>
      <trkpt lat="45.35046522505581378936767578125" lon="-70.810097046196460723876953125">
        <ele>746.4000244140625</ele>
        <time>2026-08-21T11:18:40.000Z</time>
        <extensions>
          <ns3:TrackPointExtension>
            <ns3:hr>144</ns3:hr>
            <ns3:cad>53</ns3:cad>
          </ns3:TrackPointExtension>
        </extensions>
      </trkpt>
      <trkpt lat="45.35045131109654903411865234375" lon="-70.8100935257971286773681640625">
        <ele>746.5999755859375</ele>
        <time>2026-08-21T11:18:41.000Z</time>
        <extensions>
          <ns3:TrackPointExtension>
            <ns3:hr>144</ns3:hr>
            <ns3:cad>53</ns3:cad>
          </ns3:TrackPointExtension>
        </extensions>
      </trkpt>
      <trkpt lat="45.3504361398518085479736328125" lon="-70.8100908435881137847900390625">
        <ele>746.5999755859375</ele>
        <time>2026-08-21T11:18:42.000Z</time>
        <extensions>
          <ns3:TrackPointExtension>
            <ns3:hr>143</ns3:hr>
            <ns3:cad>53</ns3:cad>
          </ns3:TrackPointExtension>
        </extensions>
      </trkpt>
      <trkpt lat="45.35042365081608295440673828125" lon="-70.81008975394070148468017578125">
        <ele>746.5999755859375</ele>
        <time>2026-08-21T11:18:43.000Z</time>
        <extensions>
          <ns3:TrackPointExtension>
            <ns3:hr>143</ns3:hr>
            <ns3:cad>53</ns3:cad>
          </ns3:TrackPointExtension>
        </extensions>
      </trkpt>
      <trkpt lat="45.35041225142776966094970703125" lon="-70.8100864849984645843505859375">
        <ele>746.79998779296875</ele>
        <time>2026-08-21T11:18:44.000Z</time>
        <extensions>
          <ns3:TrackPointExtension>
            <ns3:hr>142</ns3:hr>
            <ns3:cad>53</ns3:cad>
          </ns3:TrackPointExtension>
        </extensions>
      </trkpt>
      <trkpt lat="45.3504022769629955291748046875" lon="-70.81007885746657848358154296875">
        <ele>746.79998779296875</ele>
        <time>2026-08-21T11:18:45.000Z</time>
        <extensions>
          <ns3:TrackPointExtension>
            <ns3:hr>142</ns3:hr>
            <ns3:cad>53</ns3:cad>
          </ns3:TrackPointExtension>
        </extensions>
      </trkpt>
      <trkpt lat="45.35039179958403110504150390625" lon="-70.8100677095353603363037109375">
        <ele>746.79998779296875</ele>
        <time>2026-08-21T11:18:46.000Z</time>
        <extensions>
          <ns3:TrackPointExtension>
            <ns3:hr>141</ns3:hr>
            <ns3:cad>53</ns3:cad>
          </ns3:TrackPointExtension>
        </extensions>
      </trkpt>
      <trkpt lat="45.35037788562476634979248046875" lon="-70.81006309948861598968505859375">
        <ele>746.79998779296875</ele>
        <time>2026-08-21T11:18:47.000Z</time>
        <extensions>
          <ns3:TrackPointExtension>
            <ns3:hr>140</ns3:hr>
            <ns3:cad>53</ns3:cad>
          </ns3:TrackPointExtension>
        </extensions>
      </trkpt>
      <trkpt lat="45.3503643907606601715087890625" lon="-70.81005287356674671173095703125">
        <ele>746.79998779296875</ele>
        <time>2026-08-21T11:18:48.000Z</time>
        <extensions>
          <ns3:TrackPointExtension>
            <ns3:hr>139</ns3:hr>
            <ns3:cad>53</ns3:cad>
          </ns3:TrackPointExtension>
        </extensions>
      </trkpt>
      <trkpt lat="45.3503529913723468780517578125" lon="-70.81004164181649684906005859375">
        <ele>746.79998779296875</ele>
        <time>2026-08-21T11:18:49.000Z</time>
        <extensions>
          <ns3:TrackPointExtension>
            <ns3:hr>138</ns3:hr>
            <ns3:cad>54</ns3:cad>
          </ns3:TrackPointExtension>
        </extensions>
      </trkpt>
      <trkpt lat="45.35033681429922580718994140625" lon="-70.81003175117075443267822265625">
        <ele>746.79998779296875</ele>
        <time>2026-08-21T11:18:50.000Z</time>
        <extensions>
          <ns3:TrackPointExtension>
            <ns3:hr>138</ns3:hr>
            <ns3:cad>54</ns3:cad>
          </ns3:TrackPointExtension>
        </extensions>
      </trkpt>
      <trkpt lat="45.35032021813094615936279296875" lon="-70.81002856604754924774169921875">
        <ele>746.79998779296875</ele>
        <time>2026-08-21T11:18:51.000Z</time>
        <extensions>
          <ns3:TrackPointExtension>
            <ns3:hr>138</ns3:hr>
            <ns3:cad>54</ns3:cad>
          </ns3:TrackPointExtension>
        </extensions>
      </trkpt>
      <trkpt lat="45.35030412487685680389404296875" lon="-70.8100291527807712554931640625">
        <ele>747</ele>
        <time>2026-08-21T11:18:52.000Z</time>
        <extensions>
          <ns3:TrackPointExtension>
            <ns3:hr>137</ns3:hr>
            <ns3:cad>53</ns3:cad>
          </ns3:TrackPointExtension>
        </extensions>
      </trkpt>
      <trkpt lat="45.3502889536321163177490234375" lon="-70.810030661523342132568359375">
        <ele>747</ele>
        <time>2026-08-21T11:18:53.000Z</time>
        <extensions>
          <ns3:TrackPointExtension>
            <ns3:hr>136</ns3:hr>
            <ns3:cad>53</ns3:cad>
          </ns3:TrackPointExtension>
        </extensions>
      </trkpt>
      <trkpt lat="45.35027545876801013946533203125" lon="-70.81003560684621334075927734375">
        <ele>747</ele>
        <time>2026-08-21T11:18:54.000Z</time>
        <extensions>
          <ns3:TrackPointExtension>
            <ns3:hr>136</ns3:hr>
            <ns3:cad>53</ns3:cad>
          </ns3:TrackPointExtension>
        </extensions>
      </trkpt>
      <trkpt lat="45.3502611257135868072509765625" lon="-70.81003963015973567962646484375">
        <ele>746.79998779296875</ele>
        <time>2026-08-21T11:18:55.000Z</time>
        <extensions>
          <ns3:TrackPointExtension>
            <ns3:hr>136</ns3:hr>
            <ns3:cad>53</ns3:cad>
          </ns3:TrackPointExtension>
        </extensions>
      </trkpt>
      <trkpt lat="45.350243188440799713134765625" lon="-70.810044743120670318603515625">
        <ele>746.5999755859375</ele>
        <time>2026-08-21T11:18:56.000Z</time>
        <extensions>
          <ns3:TrackPointExtension>
            <ns3:hr>136</ns3:hr>
            <ns3:cad>53</ns3:cad>
          </ns3:TrackPointExtension>
        </extensions>
      </trkpt>
      <trkpt lat="45.350221060216426849365234375" lon="-70.81004231236875057220458984375">
        <ele>746.5999755859375</ele>
        <time>2026-08-21T11:18:57.000Z</time>
        <extensions>
          <ns3:TrackPointExtension>
            <ns3:hr>135</ns3:hr>
            <ns3:cad>0</ns3:cad>
          </ns3:TrackPointExtension>
        </extensions>
      </trkpt>
      <trkpt lat="45.35020169802010059356689453125" lon="-70.810038708150386810302734375">
        <ele>746.5999755859375</ele>
        <time>2026-08-21T11:18:58.000Z</time>
        <extensions>
          <ns3:TrackPointExtension>
            <ns3:hr>135</ns3:hr>
            <ns3:cad>0</ns3:cad>
          </ns3:TrackPointExtension>
        </extensions>
      </trkpt>
      <trkpt lat="45.35019256174564361572265625" lon="-70.8100489340722560882568359375">
        <ele>746.4000244140625</ele>
        <time>2026-08-21T11:18:59.000Z</time>
        <extensions>
          <ns3:TrackPointExtension>
            <ns3:hr>135</ns3:hr>
            <ns3:cad>0</ns3:cad>
          </ns3:TrackPointExtension>
        </extensions>
      </trkpt>
      <trkpt lat="45.35017856396734714508056640625" lon="-70.81005522049963474273681640625">
        <ele>746.4000244140625</ele>
        <time>2026-08-21T11:19:00.000Z</time>
        <extensions>
          <ns3:TrackPointExtension>
            <ns3:hr>135</ns3:hr>
            <ns3:cad>0</ns3:cad>
          </ns3:TrackPointExtension>
        </extensions>
      </trkpt>
      <trkpt lat="45.350165404379367828369140625" lon="-70.81006192602217197418212890625">
        <ele>746.4000244140625</ele>
        <time>2026-08-21T11:19:01.000Z</time>
        <extensions>
          <ns3:TrackPointExtension>
            <ns3:hr>136</ns3:hr>
            <ns3:cad>0</ns3:cad>
          </ns3:TrackPointExtension>
        </extensions>
      </trkpt>
      <trkpt lat="45.35015274770557880401611328125" lon="-70.810072906315326690673828125">
        <ele>746.20001220703125</ele>
        <time>2026-08-21T11:19:02.000Z</time>
        <extensions>
          <ns3:TrackPointExtension>
            <ns3:hr>135</ns3:hr>
            <ns3:cad>0</ns3:cad>
          </ns3:TrackPointExtension>
        </extensions>
      </trkpt>
      <trkpt lat="45.35013967193663120269775390625" lon="-70.81008271314203739166259765625">
        <ele>746.20001220703125</ele>
        <time>2026-08-21T11:19:03.000Z</time>
        <extensions>
          <ns3:TrackPointExtension>
            <ns3:hr>135</ns3:hr>
            <ns3:cad>0</ns3:cad>
          </ns3:TrackPointExtension>
        </extensions>
      </trkpt>
      <trkpt lat="45.35012693144381046295166015625" lon="-70.810090005397796630859375">
        <ele>746</ele>
        <time>2026-08-21T11:19:04.000Z</time>
        <extensions>
          <ns3:TrackPointExtension>
            <ns3:hr>134</ns3:hr>
            <ns3:cad>0</ns3:cad>
          </ns3:TrackPointExtension>
        </extensions>
      </trkpt>
      <trkpt lat="45.350117124617099761962890625" lon="-70.81009310670197010040283203125">
        <ele>746</ele>
        <time>2026-08-21T11:19:05.000Z</time>
        <extensions>
          <ns3:TrackPointExtension>
            <ns3:hr>134</ns3:hr>
            <ns3:cad>0</ns3:cad>
          </ns3:TrackPointExtension>
        </extensions>
      </trkpt>
      <trkpt lat="45.35010564140975475311279296875" lon="-70.81010098569095134735107421875">
        <ele>746</ele>
        <time>2026-08-21T11:19:06.000Z</time>
        <extensions>
          <ns3:TrackPointExtension>
            <ns3:hr>134</ns3:hr>
            <ns3:cad>0</ns3:cad>
          </ns3:TrackPointExtension>
        </extensions>
      </trkpt>
      <trkpt lat="45.35009575076401233673095703125" lon="-70.81011188216507434844970703125">
        <ele>746</ele>
        <time>2026-08-21T11:19:07.000Z</time>
        <extensions>
          <ns3:TrackPointExtension>
            <ns3:hr>133</ns3:hr>
            <ns3:cad>0</ns3:cad>
          </ns3:TrackPointExtension>
        </extensions>
      </trkpt>
      <trkpt lat="45.3500886261463165283203125" lon="-70.81011104397475719451904296875">
        <ele>746</ele>
        <time>2026-08-21T11:19:08.000Z</time>
        <extensions>
          <ns3:TrackPointExtension>
            <ns3:hr>133</ns3:hr>
            <ns3:cad>0</ns3:cad>
          </ns3:TrackPointExtension>
        </extensions>
      </trkpt>
      <trkpt lat="45.3500851057469844818115234375" lon="-70.810103081166744232177734375">
        <ele>746.20001220703125</ele>
        <time>2026-08-21T11:19:09.000Z</time>
        <extensions>
          <ns3:TrackPointExtension>
            <ns3:hr>132</ns3:hr>
            <ns3:cad>0</ns3:cad>
          </ns3:TrackPointExtension>
        </extensions>
      </trkpt>
      <trkpt lat="45.3500854410231113433837890625" lon="-70.8100881613790988922119140625">
        <ele>746.20001220703125</ele>
        <time>2026-08-21T11:19:10.000Z</time>
        <extensions>
          <ns3:TrackPointExtension>
            <ns3:hr>131</ns3:hr>
            <ns3:cad>0</ns3:cad>
          </ns3:TrackPointExtension>
        </extensions>
      </trkpt>
      <trkpt lat="45.35008133389055728912353515625" lon="-70.81007047556340694427490234375">
        <ele>746.20001220703125</ele>
        <time>2026-08-21T11:19:11.000Z</time>
        <extensions>
          <ns3:TrackPointExtension>
            <ns3:hr>131</ns3:hr>
            <ns3:cad>0</ns3:cad>
          </ns3:TrackPointExtension>
        </extensions>
      </trkpt>
      <trkpt lat="45.35007932223379611968994140625" lon="-70.81006477586925029754638671875">
        <ele>746.20001220703125</ele>
        <time>2026-08-21T11:19:12.000Z</time>
        <extensions>
          <ns3:TrackPointExtension>
            <ns3:hr>131</ns3:hr>
            <ns3:cad>0</ns3:cad>
          </ns3:TrackPointExtension>
        </extensions>
      </trkpt>
      <trkpt lat="45.350077562034130096435546875" lon="-70.81004776060581207275390625">
        <ele>746.20001220703125</ele>
        <time>2026-08-21T11:19:13.000Z</time>
        <extensions>
          <ns3:TrackPointExtension>
            <ns3:hr>131</ns3:hr>
            <ns3:cad>0</ns3:cad>
          </ns3:TrackPointExtension>
        </extensions>
      </trkpt>
      <trkpt lat="45.35007881931960582733154296875" lon="-70.8100368641316890716552734375">
        <ele>746.20001220703125</ele>
        <time>2026-08-21T11:19:14.000Z</time>
        <extensions>
          <ns3:TrackPointExtension>
            <ns3:hr>131</ns3:hr>
            <ns3:cad>0</ns3:cad>
          </ns3:TrackPointExtension>
        </extensions>
      </trkpt>
      <trkpt lat="45.35007814876735210418701171875" lon="-70.81002362072467803955078125">
        <ele>746.4000244140625</ele>
        <time>2026-08-21T11:19:15.000Z</time>
        <extensions>
          <ns3:TrackPointExtension>
            <ns3:hr>131</ns3:hr>
            <ns3:cad>0</ns3:cad>
          </ns3:TrackPointExtension>
        </extensions>
      </trkpt>
      <trkpt lat="45.35007747821509838104248046875" lon="-70.8100170828402042388916015625">
        <ele>746.4000244140625</ele>
        <time>2026-08-21T11:19:16.000Z</time>
        <extensions>
          <ns3:TrackPointExtension>
            <ns3:hr>131</ns3:hr>
            <ns3:cad>0</ns3:cad>
          </ns3:TrackPointExtension>
        </extensions>
      </trkpt>
      <trkpt lat="45.35007898695766925811767578125" lon="-70.8100055158138275146484375">
        <ele>746.20001220703125</ele>
        <time>2026-08-21T11:19:17.000Z</time>
        <extensions>
          <ns3:TrackPointExtension>
            <ns3:hr>131</ns3:hr>
            <ns3:cad>0</ns3:cad>
          </ns3:TrackPointExtension>
        </extensions>
      </trkpt>
      <trkpt lat="45.350078232586383819580078125" lon="-70.80998179502785205841064453125">
        <ele>746.20001220703125</ele>
        <time>2026-08-21T11:19:18.000Z</time>
        <extensions>
          <ns3:TrackPointExtension>
            <ns3:hr>131</ns3:hr>
            <ns3:cad>0</ns3:cad>
          </ns3:TrackPointExtension>
        </extensions>
      </trkpt>
      <trkpt lat="45.3500716947019100189208984375" lon="-70.80996653996407985687255859375">
        <ele>746.20001220703125</ele>
        <time>2026-08-21T11:19:19.000Z</time>
        <extensions>
          <ns3:TrackPointExtension>
            <ns3:hr>130</ns3:hr>
            <ns3:cad>57</ns3:cad>
          </ns3:TrackPointExtension>
        </extensions>
      </trkpt>
      <trkpt lat="45.3500643186271190643310546875" lon="-70.80994457937777042388916015625">
        <ele>746.20001220703125</ele>
        <time>2026-08-21T11:19:20.000Z</time>
        <extensions>
          <ns3:TrackPointExtension>
            <ns3:hr>129</ns3:hr>
            <ns3:cad>57</ns3:cad>
          </ns3:TrackPointExtension>
        </extensions>
      </trkpt>
      <trkpt lat="45.3500599600374698638916015625" lon="-70.80992974340915679931640625">
        <ele>746.20001220703125</ele>
        <time>2026-08-21T11:19:21.000Z</time>
        <extensions>
          <ns3:TrackPointExtension>
            <ns3:hr>128</ns3:hr>
            <ns3:cad>57</ns3:cad>
          </ns3:TrackPointExtension>
        </extensions>
      </trkpt>
      <trkpt lat="45.35005467943847179412841796875" lon="-70.80990904010832309722900390625">
        <ele>746.4000244140625</ele>
        <time>2026-08-21T11:19:22.000Z</time>
        <extensions>
          <ns3:TrackPointExtension>
            <ns3:hr>129</ns3:hr>
            <ns3:cad>57</ns3:cad>
          </ns3:TrackPointExtension>
        </extensions>
      </trkpt>
      <trkpt lat="45.35004897974431514739990234375" lon="-70.80988682806491851806640625">
        <ele>746.5999755859375</ele>
        <time>2026-08-21T11:19:23.000Z</time>
        <extensions>
          <ns3:TrackPointExtension>
            <ns3:hr>128</ns3:hr>
            <ns3:cad>0</ns3:cad>
          </ns3:TrackPointExtension>
        </extensions>
      </trkpt>
      <trkpt lat="45.35004143603146076202392578125" lon="-70.8098645322024822235107421875">
        <ele>746.79998779296875</ele>
        <time>2026-08-21T11:19:24.000Z</time>
        <extensions>
          <ns3:TrackPointExtension>
            <ns3:hr>128</ns3:hr>
            <ns3:cad>0</ns3:cad>
          </ns3:TrackPointExtension>
        </extensions>
      </trkpt>
      <trkpt lat="45.3500294499099254608154296875" lon="-70.809842236340045928955078125">
        <ele>747</ele>
        <time>2026-08-21T11:19:25.000Z</time>
        <extensions>
          <ns3:TrackPointExtension>
            <ns3:hr>128</ns3:hr>
            <ns3:cad>0</ns3:cad>
          </ns3:TrackPointExtension>
        </extensions>
      </trkpt>
      <trkpt lat="45.35001444630324840545654296875" lon="-70.8098165877163410186767578125">
        <ele>747</ele>
        <time>2026-08-21T11:19:26.000Z</time>
        <extensions>
          <ns3:TrackPointExtension>
            <ns3:hr>128</ns3:hr>
            <ns3:cad>0</ns3:cad>
          </ns3:TrackPointExtension>
        </extensions>
      </trkpt>
      <trkpt lat="45.35000137053430080413818359375" lon="-70.809795968234539031982421875">
        <ele>747</ele>
        <time>2026-08-21T11:19:27.000Z</time>
        <extensions>
          <ns3:TrackPointExtension>
            <ns3:hr>128</ns3:hr>
            <ns3:cad>0</ns3:cad>
          </ns3:TrackPointExtension>
        </extensions>
      </trkpt>
      <trkpt lat="45.349983014166355133056640625" lon="-70.8097840659320354461669921875">
        <ele>747.20001220703125</ele>
        <time>2026-08-21T11:19:28.000Z</time>
        <extensions>
          <ns3:TrackPointExtension>
            <ns3:hr>127</ns3:hr>
            <ns3:cad>0</ns3:cad>
          </ns3:TrackPointExtension>
        </extensions>
      </trkpt>
      <trkpt lat="45.349982343614101409912109375" lon="-70.809777863323688507080078125">
        <ele>747.4000244140625</ele>
        <time>2026-08-21T11:19:29.000Z</time>
        <extensions>
          <ns3:TrackPointExtension>
            <ns3:hr>128</ns3:hr>
            <ns3:cad>0</ns3:cad>
          </ns3:TrackPointExtension>
        </extensions>
      </trkpt>
      <trkpt lat="45.34996851347386837005615234375" lon="-70.80977023579180240631103515625">
        <ele>747.5999755859375</ele>
        <time>2026-08-21T11:19:30.000Z</time>
        <extensions>
          <ns3:TrackPointExtension>
            <ns3:hr>128</ns3:hr>
            <ns3:cad>0</ns3:cad>
          </ns3:TrackPointExtension>
        </extensions>
      </trkpt>
      <trkpt lat="45.34995610825717449188232421875" lon="-70.80977107398211956024169921875">
        <ele>748</ele>
        <time>2026-08-21T11:19:31.000Z</time>
        <extensions>
          <ns3:TrackPointExtension>
            <ns3:hr>128</ns3:hr>
            <ns3:cad>50</ns3:cad>
          </ns3:TrackPointExtension>
        </extensions>
      </trkpt>
      <trkpt lat="45.34994873218238353729248046875" lon="-70.80977325327694416046142578125">
        <ele>748.4000244140625</ele>
        <time>2026-08-21T11:19:32.000Z</time>
        <extensions>
          <ns3:TrackPointExtension>
            <ns3:hr>128</ns3:hr>
            <ns3:cad>50</ns3:cad>
          </ns3:TrackPointExtension>
        </extensions>
      </trkpt>
      <trkpt lat="45.349935404956340789794921875" lon="-70.80977761186659336090087890625">
        <ele>748.79998779296875</ele>
        <time>2026-08-21T11:19:33.000Z</time>
        <extensions>
          <ns3:TrackPointExtension>
            <ns3:hr>128</ns3:hr>
            <ns3:cad>50</ns3:cad>
          </ns3:TrackPointExtension>
        </extensions>
      </trkpt>
      <trkpt lat="45.34992492757737636566162109375" lon="-70.80977845005691051483154296875">
        <ele>749.20001220703125</ele>
        <time>2026-08-21T11:19:34.000Z</time>
        <extensions>
          <ns3:TrackPointExtension>
            <ns3:hr>128</ns3:hr>
            <ns3:cad>50</ns3:cad>
          </ns3:TrackPointExtension>
        </extensions>
      </trkpt>
      <trkpt lat="45.349919311702251434326171875" lon="-70.80978649668395519256591796875">
        <ele>749.4000244140625</ele>
        <time>2026-08-21T11:19:35.000Z</time>
        <extensions>
          <ns3:TrackPointExtension>
            <ns3:hr>129</ns3:hr>
            <ns3:cad>55</ns3:cad>
          </ns3:TrackPointExtension>
        </extensions>
      </trkpt>
      <trkpt lat="45.34990279935300350189208984375" lon="-70.80978917889297008514404296875">
        <ele>749.79998779296875</ele>
        <time>2026-08-21T11:19:36.000Z</time>
        <extensions>
          <ns3:TrackPointExtension>
            <ns3:hr>130</ns3:hr>
            <ns3:cad>55</ns3:cad>
          </ns3:TrackPointExtension>
        </extensions>
      </trkpt>
      <trkpt lat="45.34989324398338794708251953125" lon="-70.8097882568836212158203125">
        <ele>750.20001220703125</ele>
        <time>2026-08-21T11:19:37.000Z</time>
        <extensions>
          <ns3:TrackPointExtension>
            <ns3:hr>130</ns3:hr>
            <ns3:cad>56</ns3:cad>
          </ns3:TrackPointExtension>
        </extensions>
      </trkpt>
      <trkpt lat="45.34987966530025005340576171875" lon="-70.80979085527360439300537109375">
        <ele>750.4000244140625</ele>
        <time>2026-08-21T11:19:38.000Z</time>
        <extensions>
          <ns3:TrackPointExtension>
            <ns3:hr>130</ns3:hr>
            <ns3:cad>56</ns3:cad>
          </ns3:TrackPointExtension>
        </extensions>
      </trkpt>
      <trkpt lat="45.34986533224582672119140625" lon="-70.809793286025524139404296875">
        <ele>750.79998779296875</ele>
        <time>2026-08-21T11:19:39.000Z</time>
        <extensions>
          <ns3:TrackPointExtension>
            <ns3:hr>130</ns3:hr>
            <ns3:cad>56</ns3:cad>
          </ns3:TrackPointExtension>
        </extensions>
      </trkpt>
      <trkpt lat="45.3498530946671962738037109375" lon="-70.80979336984455585479736328125">
        <ele>751</ele>
        <time>2026-08-21T11:19:40.000Z</time>
        <extensions>
          <ns3:TrackPointExtension>
            <ns3:hr>131</ns3:hr>
            <ns3:cad>56</ns3:cad>
          </ns3:TrackPointExtension>
        </extensions>
      </trkpt>
      <trkpt lat="45.34984697587788105010986328125" lon="-70.809789597988128662109375">
        <ele>751.20001220703125</ele>
        <time>2026-08-21T11:19:41.000Z</time>
        <extensions>
          <ns3:TrackPointExtension>
            <ns3:hr>132</ns3:hr>
            <ns3:cad>56</ns3:cad>
          </ns3:TrackPointExtension>
        </extensions>
      </trkpt>
      <trkpt lat="45.34983390010893344879150390625" lon="-70.80979336984455585479736328125">
        <ele>751.4000244140625</ele>
        <time>2026-08-21T11:19:42.000Z</time>
        <extensions>
          <ns3:TrackPointExtension>
            <ns3:hr>132</ns3:hr>
            <ns3:cad>56</ns3:cad>
          </ns3:TrackPointExtension>
        </extensions>
      </trkpt>
      <trkpt lat="45.34982199780642986297607421875" lon="-70.80979831516742706298828125">
        <ele>751.5999755859375</ele>
        <time>2026-08-21T11:19:43.000Z</time>
        <extensions>
          <ns3:TrackPointExtension>
            <ns3:hr>133</ns3:hr>
            <ns3:cad>51</ns3:cad>
          </ns3:TrackPointExtension>
        </extensions>
      </trkpt>
      <trkpt lat="45.34981311298906803131103515625" lon="-70.80980577506124973297119140625">
        <ele>751.5999755859375</ele>
        <time>2026-08-21T11:19:44.000Z</time>
        <extensions>
          <ns3:TrackPointExtension>
            <ns3:hr>134</ns3:hr>
            <ns3:cad>51</ns3:cad>
          </ns3:TrackPointExtension>
        </extensions>
      </trkpt>
      <trkpt lat="45.34980288706719875335693359375" lon="-70.809810049831867218017578125">
        <ele>751.79998779296875</ele>
        <time>2026-08-21T11:19:45.000Z</time>
        <extensions>
          <ns3:TrackPointExtension>
            <ns3:hr>136</ns3:hr>
            <ns3:cad>51</ns3:cad>
          </ns3:TrackPointExtension>
        </extensions>
      </trkpt>
      <trkpt lat="45.34979425370693206787109375" lon="-70.8098145760595798492431640625">
        <ele>752</ele>
        <time>2026-08-21T11:19:46.000Z</time>
        <extensions>
          <ns3:TrackPointExtension>
            <ns3:hr>138</ns3:hr>
            <ns3:cad>51</ns3:cad>
          </ns3:TrackPointExtension>
        </extensions>
      </trkpt>
      <trkpt lat="45.349783189594745635986328125" lon="-70.80981683917343616485595703125">
        <ele>752.20001220703125</ele>
        <time>2026-08-21T11:19:47.000Z</time>
        <extensions>
          <ns3:TrackPointExtension>
            <ns3:hr>139</ns3:hr>
            <ns3:cad>46</ns3:cad>
          </ns3:TrackPointExtension>
        </extensions>
      </trkpt>
      <trkpt lat="45.349775142967700958251953125" lon="-70.80982035957276821136474609375">
        <ele>752.20001220703125</ele>
        <time>2026-08-21T11:19:48.000Z</time>
        <extensions>
          <ns3:TrackPointExtension>
            <ns3:hr>139</ns3:hr>
            <ns3:cad>46</ns3:cad>
          </ns3:TrackPointExtension>
        </extensions>
      </trkpt>
      <trkpt lat="45.34976852126419544219970703125" lon="-70.8098242990672588348388671875">
        <ele>752.20001220703125</ele>
        <time>2026-08-21T11:19:49.000Z</time>
        <extensions>
          <ns3:TrackPointExtension>
            <ns3:hr>139</ns3:hr>
            <ns3:cad>0</ns3:cad>
          </ns3:TrackPointExtension>
        </extensions>
      </trkpt>
      <trkpt lat="45.3497600555419921875" lon="-70.80983008258044719696044921875">
        <ele>752.4000244140625</ele>
        <time>2026-08-21T11:19:50.000Z</time>
        <extensions>
          <ns3:TrackPointExtension>
            <ns3:hr>139</ns3:hr>
            <ns3:cad>0</ns3:cad>
          </ns3:TrackPointExtension>
        </extensions>
      </trkpt>
      <trkpt lat="45.34975142218172550201416015625" lon="-70.80983477644622325897216796875">
        <ele>752.4000244140625</ele>
        <time>2026-08-21T11:19:51.000Z</time>
        <extensions>
          <ns3:TrackPointExtension>
            <ns3:hr>139</ns3:hr>
            <ns3:cad>0</ns3:cad>
          </ns3:TrackPointExtension>
        </extensions>
      </trkpt>
      <trkpt lat="45.34974387846887111663818359375" lon="-70.80983762629330158233642578125">
        <ele>752.4000244140625</ele>
        <time>2026-08-21T11:19:52.000Z</time>
        <extensions>
          <ns3:TrackPointExtension>
            <ns3:hr>140</ns3:hr>
            <ns3:cad>42</ns3:cad>
          </ns3:TrackPointExtension>
        </extensions>
      </trkpt>
      <trkpt lat="45.3497357480227947235107421875" lon="-70.80983695574104785919189453125">
        <ele>752.4000244140625</ele>
        <time>2026-08-21T11:19:53.000Z</time>
        <extensions>
          <ns3:TrackPointExtension>
            <ns3:hr>140</ns3:hr>
            <ns3:cad>42</ns3:cad>
          </ns3:TrackPointExtension>
        </extensions>
      </trkpt>
      <trkpt lat="45.34972845576703548431396484375" lon="-70.8098390512168407440185546875">
        <ele>752.4000244140625</ele>
        <time>2026-08-21T11:19:54.000Z</time>
        <extensions>
          <ns3:TrackPointExtension>
            <ns3:hr>140</ns3:hr>
            <ns3:cad>0</ns3:cad>
          </ns3:TrackPointExtension>
        </extensions>
      </trkpt>
      <trkpt lat="45.34972460009157657623291015625" lon="-70.80984148196876049041748046875">
        <ele>752.4000244140625</ele>
        <time>2026-08-21T11:19:55.000Z</time>
        <extensions>
          <ns3:TrackPointExtension>
            <ns3:hr>140</ns3:hr>
            <ns3:cad>0</ns3:cad>
          </ns3:TrackPointExtension>
        </extensions>
      </trkpt>
      <trkpt lat="45.3497233428061008453369140625" lon="-70.8098419010639190673828125">
        <ele>752.4000244140625</ele>
        <time>2026-08-21T11:19:56.000Z</time>
        <extensions>
          <ns3:TrackPointExtension>
            <ns3:hr>139</ns3:hr>
            <ns3:cad>0</ns3:cad>
          </ns3:TrackPointExtension>
        </extensions>
      </trkpt>
      <trkpt lat="45.349722169339656829833984375" lon="-70.8098427392542362213134765625">
        <ele>752.4000244140625</ele>
        <time>2026-08-21T11:19:57.000Z</time>
        <extensions>
          <ns3:TrackPointExtension>
            <ns3:hr>139</ns3:hr>
            <ns3:cad>0</ns3:cad>
          </ns3:TrackPointExtension>
        </extensions>
      </trkpt>
      <trkpt lat="45.3497216664254665374755859375" lon="-70.80984265543520450592041015625">
        <ele>752.4000244140625</ele>
        <time>2026-08-21T11:19:58.000Z</time>
        <extensions>
          <ns3:TrackPointExtension>
            <ns3:hr>139</ns3:hr>
            <ns3:cad>0</ns3:cad>
          </ns3:TrackPointExtension>
        </extensions>
      </trkpt>
      <trkpt lat="45.34971437416970729827880859375" lon="-70.8098467625677585601806640625">
        <ele>752.4000244140625</ele>
        <time>2026-08-21T11:19:59.000Z</time>
        <extensions>
          <ns3:TrackPointExtension>
            <ns3:hr>139</ns3:hr>
            <ns3:cad>0</ns3:cad>
          </ns3:TrackPointExtension>
        </extensions>
      </trkpt>
      <trkpt lat="45.34970951266586780548095703125" lon="-70.80984659492969512939453125">
        <ele>752.20001220703125</ele>
        <time>2026-08-21T11:20:00.000Z</time>
        <extensions>
          <ns3:TrackPointExtension>
            <ns3:hr>139</ns3:hr>
            <ns3:cad>0</ns3:cad>
          </ns3:TrackPointExtension>
        </extensions>
      </trkpt>
      <trkpt lat="45.34970171749591827392578125" lon="-70.809846259653568267822265625">
        <ele>752.20001220703125</ele>
        <time>2026-08-21T11:20:01.000Z</time>
        <extensions>
          <ns3:TrackPointExtension>
            <ns3:hr>139</ns3:hr>
            <ns3:cad>0</ns3:cad>
          </ns3:TrackPointExtension>
        </extensions>
      </trkpt>
      <trkpt lat="45.34969643689692020416259765625" lon="-70.80984232015907764434814453125">
        <ele>752</ele>
        <time>2026-08-21T11:20:02.000Z</time>
        <extensions>
          <ns3:TrackPointExtension>
            <ns3:hr>139</ns3:hr>
            <ns3:cad>0</ns3:cad>
          </ns3:TrackPointExtension>
        </extensions>
      </trkpt>
      <trkpt lat="45.349694006145000457763671875" lon="-70.8098336867988109588623046875">
        <ele>752</ele>
        <time>2026-08-21T11:20:03.000Z</time>
        <extensions>
          <ns3:TrackPointExtension>
            <ns3:hr>139</ns3:hr>
            <ns3:cad>0</ns3:cad>
          </ns3:TrackPointExtension>
        </extensions>
      </trkpt>
      <trkpt lat="45.34968973137438297271728515625" lon="-70.809826813638210296630859375">
        <ele>751.79998779296875</ele>
        <time>2026-08-21T11:20:04.000Z</time>
        <extensions>
          <ns3:TrackPointExtension>
            <ns3:hr>138</ns3:hr>
            <ns3:cad>0</ns3:cad>
          </ns3:TrackPointExtension>
        </extensions>
      </trkpt>
      <trkpt lat="45.34968872554600238800048828125" lon="-70.80982019193470478057861328125">
        <ele>751.79998779296875</ele>
        <time>2026-08-21T11:20:05.000Z</time>
        <extensions>
          <ns3:TrackPointExtension>
            <ns3:hr>138</ns3:hr>
            <ns3:cad>0</ns3:cad>
          </ns3:TrackPointExtension>
        </extensions>
      </trkpt>
      <trkpt lat="45.34968688152730464935302734375" lon="-70.80980896018445491790771484375">
        <ele>751.79998779296875</ele>
        <time>2026-08-21T11:20:06.000Z</time>
        <extensions>
          <ns3:TrackPointExtension>
            <ns3:hr>138</ns3:hr>
            <ns3:cad>51</ns3:cad>
          </ns3:TrackPointExtension>
        </extensions>
      </trkpt>
      <trkpt lat="45.349683947861194610595703125" lon="-70.80980678088963031768798828125">
        <ele>751.5999755859375</ele>
        <time>2026-08-21T11:20:07.000Z</time>
        <extensions>
          <ns3:TrackPointExtension>
            <ns3:hr>138</ns3:hr>
            <ns3:cad>48</ns3:cad>
          </ns3:TrackPointExtension>
        </extensions>
      </trkpt>
      <trkpt lat="45.3496809303760528564453125" lon="-70.8098048530519008636474609375">
        <ele>751.4000244140625</ele>
        <time>2026-08-21T11:20:08.000Z</time>
        <extensions>
          <ns3:TrackPointExtension>
            <ns3:hr>139</ns3:hr>
            <ns3:cad>48</ns3:cad>
          </ns3:TrackPointExtension>
        </extensions>
      </trkpt>
      <trkpt lat="45.34967145882546901702880859375" lon="-70.80980896018445491790771484375">
        <ele>751</ele>
        <time>2026-08-21T11:20:09.000Z</time>
        <extensions>
          <ns3:TrackPointExtension>
            <ns3:hr>139</ns3:hr>
            <ns3:cad>41</ns3:cad>
          </ns3:TrackPointExtension>
        </extensions>
      </trkpt>
      <trkpt lat="45.34966324456036090850830078125" lon="-70.80981331877410411834716796875">
        <ele>750.5999755859375</ele>
        <time>2026-08-21T11:20:10.000Z</time>
        <extensions>
          <ns3:TrackPointExtension>
            <ns3:hr>139</ns3:hr>
            <ns3:cad>41</ns3:cad>
          </ns3:TrackPointExtension>
        </extensions>
      </trkpt>
      <trkpt lat="45.34965167753398418426513671875" lon="-70.8098219521343708038330078125">
        <ele>750.20001220703125</ele>
        <time>2026-08-21T11:20:11.000Z</time>
        <extensions>
          <ns3:TrackPointExtension>
            <ns3:hr>139</ns3:hr>
            <ns3:cad>0</ns3:cad>
          </ns3:TrackPointExtension>
        </extensions>
      </trkpt>
      <trkpt lat="45.3496388532221317291259765625" lon="-70.809834189713001251220703125">
        <ele>750</ele>
        <time>2026-08-21T11:20:12.000Z</time>
        <extensions>
          <ns3:TrackPointExtension>
            <ns3:hr>138</ns3:hr>
            <ns3:cad>0</ns3:cad>
          </ns3:TrackPointExtension>
        </extensions>
      </trkpt>
      <trkpt lat="45.349622257053852081298828125" lon="-70.80983913503587245941162109375">
        <ele>749.5999755859375</ele>
        <time>2026-08-21T11:20:13.000Z</time>
        <extensions>
          <ns3:TrackPointExtension>
            <ns3:hr>138</ns3:hr>
            <ns3:cad>79</ns3:cad>
          </ns3:TrackPointExtension>
        </extensions>
      </trkpt>
      <trkpt lat="45.3496073372662067413330078125" lon="-70.809841565787792205810546875">
        <ele>749.20001220703125</ele>
        <time>2026-08-21T11:20:14.000Z</time>
        <extensions>
          <ns3:TrackPointExtension>
            <ns3:hr>137</ns3:hr>
            <ns3:cad>79</ns3:cad>
          </ns3:TrackPointExtension>
        </extensions>
      </trkpt>
      <trkpt lat="45.34959149546921253204345703125" lon="-70.80984634347259998321533203125">
        <ele>748.79998779296875</ele>
        <time>2026-08-21T11:20:15.000Z</time>
        <extensions>
          <ns3:TrackPointExtension>
            <ns3:hr>137</ns3:hr>
            <ns3:cad>79</ns3:cad>
          </ns3:TrackPointExtension>
        </extensions>
      </trkpt>
      <trkpt lat="45.34958009608089923858642578125" lon="-70.809852294623851776123046875">
        <ele>748.4000244140625</ele>
        <time>2026-08-21T11:20:16.000Z</time>
        <extensions>
          <ns3:TrackPointExtension>
            <ns3:hr>137</ns3:hr>
            <ns3:cad>0</ns3:cad>
          </ns3:TrackPointExtension>
        </extensions>
      </trkpt>
      <trkpt lat="45.349566601216793060302734375" lon="-70.8098564855754375457763671875">
        <ele>748</ele>
        <time>2026-08-21T11:20:17.000Z</time>
        <extensions>
          <ns3:TrackPointExtension>
            <ns3:hr>137</ns3:hr>
            <ns3:cad>0</ns3:cad>
          </ns3:TrackPointExtension>
        </extensions>
      </trkpt>
      <trkpt lat="45.349548496305942535400390625" lon="-70.80986495129764080047607421875">
        <ele>747.79998779296875</ele>
        <time>2026-08-21T11:20:18.000Z</time>
        <extensions>
          <ns3:TrackPointExtension>
            <ns3:hr>136</ns3:hr>
            <ns3:cad>0</ns3:cad>
          </ns3:TrackPointExtension>
        </extensions>
      </trkpt>
      <trkpt lat="45.34951890818774700164794921875" lon="-70.809870399534702301025390625">
        <ele>747.4000244140625</ele>
        <time>2026-08-21T11:20:19.000Z</time>
        <extensions>
          <ns3:TrackPointExtension>
            <ns3:hr>136</ns3:hr>
            <ns3:cad>0</ns3:cad>
          </ns3:TrackPointExtension>
        </extensions>
      </trkpt>
      <trkpt lat="45.34950449131429195404052734375" lon="-70.8098672144114971160888671875">
        <ele>747.20001220703125</ele>
        <time>2026-08-21T11:20:20.000Z</time>
        <extensions>
          <ns3:TrackPointExtension>
            <ns3:hr>135</ns3:hr>
            <ns3:cad>0</ns3:cad>
          </ns3:TrackPointExtension>
        </extensions>
      </trkpt>
      <trkpt lat="45.3494883142411708831787109375" lon="-70.80985841341316699981689453125">
        <ele>747.20001220703125</ele>
        <time>2026-08-21T11:20:21.000Z</time>
        <extensions>
          <ns3:TrackPointExtension>
            <ns3:hr>134</ns3:hr>
            <ns3:cad>72</ns3:cad>
          </ns3:TrackPointExtension>
        </extensions>
      </trkpt>
      <trkpt lat="45.34947079606354236602783203125" lon="-70.80985070206224918365478515625">
        <ele>747</ele>
        <time>2026-08-21T11:20:22.000Z</time>
        <extensions>
          <ns3:TrackPointExtension>
            <ns3:hr>134</ns3:hr>
            <ns3:cad>72</ns3:cad>
          </ns3:TrackPointExtension>
        </extensions>
      </trkpt>
      <trkpt lat="45.3494537808001041412353515625" lon="-70.8098434098064899444580078125">
        <ele>747</ele>
        <time>2026-08-21T11:20:23.000Z</time>
        <extensions>
          <ns3:TrackPointExtension>
            <ns3:hr>134</ns3:hr>
            <ns3:cad>0</ns3:cad>
          </ns3:TrackPointExtension>
        </extensions>
      </trkpt>
      <trkpt lat="45.34944212995469570159912109375" lon="-70.8098487742245197296142578125">
        <ele>747</ele>
        <time>2026-08-21T11:20:24.000Z</time>
        <extensions>
          <ns3:TrackPointExtension>
            <ns3:hr>134</ns3:hr>
            <ns3:cad>0</ns3:cad>
          </ns3:TrackPointExtension>
        </extensions>
      </trkpt>
      <trkpt lat="45.34943307749927043914794921875" lon="-70.809867717325687408447265625">
        <ele>747</ele>
        <time>2026-08-21T11:20:25.000Z</time>
        <extensions>
          <ns3:TrackPointExtension>
            <ns3:hr>133</ns3:hr>
            <ns3:cad>0</ns3:cad>
          </ns3:TrackPointExtension>
        </extensions>
      </trkpt>
      <trkpt lat="45.3494276292622089385986328125" lon="-70.80988674424588680267333984375">
        <ele>746.79998779296875</ele>
        <time>2026-08-21T11:20:26.000Z</time>
        <extensions>
          <ns3:TrackPointExtension>
            <ns3:hr>133</ns3:hr>
            <ns3:cad>0</ns3:cad>
          </ns3:TrackPointExtension>
        </extensions>
      </trkpt>
      <trkpt lat="45.34941949881613254547119140625" lon="-70.809909962117671966552734375">
        <ele>746.79998779296875</ele>
        <time>2026-08-21T11:20:27.000Z</time>
        <extensions>
          <ns3:TrackPointExtension>
            <ns3:hr>131</ns3:hr>
            <ns3:cad>0</ns3:cad>
          </ns3:TrackPointExtension>
        </extensions>
      </trkpt>
      <trkpt lat="45.34940558485686779022216796875" lon="-70.80992144532501697540283203125">
        <ele>746.79998779296875</ele>
        <time>2026-08-21T11:20:28.000Z</time>
        <extensions>
          <ns3:TrackPointExtension>
            <ns3:hr>130</ns3:hr>
            <ns3:cad>0</ns3:cad>
          </ns3:TrackPointExtension>
        </extensions>
      </trkpt>
      <trkpt lat="45.34939594566822052001953125" lon="-70.809927396476268768310546875">
        <ele>746.79998779296875</ele>
        <time>2026-08-21T11:20:29.000Z</time>
        <extensions>
          <ns3:TrackPointExtension>
            <ns3:hr>129</ns3:hr>
            <ns3:cad>0</ns3:cad>
          </ns3:TrackPointExtension>
        </extensions>
      </trkpt>
      <trkpt lat="45.3493847139179706573486328125" lon="-70.80994323827326297760009765625">
        <ele>747</ele>
        <time>2026-08-21T11:20:30.000Z</time>
        <extensions>
          <ns3:TrackPointExtension>
            <ns3:hr>128</ns3:hr>
            <ns3:cad>0</ns3:cad>
          </ns3:TrackPointExtension>
        </extensions>
      </trkpt>
      <trkpt lat="45.34937758930027484893798828125" lon="-70.8099620975553989410400390625">
        <ele>747</ele>
        <time>2026-08-21T11:20:31.000Z</time>
        <extensions>
          <ns3:TrackPointExtension>
            <ns3:hr>127</ns3:hr>
            <ns3:cad>0</ns3:cad>
          </ns3:TrackPointExtension>
        </extensions>
      </trkpt>
      <trkpt lat="45.3493702970445156097412109375" lon="-70.80997668206691741943359375">
        <ele>747</ele>
        <time>2026-08-21T11:20:32.000Z</time>
        <extensions>
          <ns3:TrackPointExtension>
            <ns3:hr>127</ns3:hr>
            <ns3:cad>0</ns3:cad>
          </ns3:TrackPointExtension>
        </extensions>
      </trkpt>
      <trkpt lat="45.34936551935970783233642578125" lon="-70.809989087283611297607421875">
        <ele>747</ele>
        <time>2026-08-21T11:20:33.000Z</time>
        <extensions>
          <ns3:TrackPointExtension>
            <ns3:hr>126</ns3:hr>
            <ns3:cad>0</ns3:cad>
          </ns3:TrackPointExtension>
        </extensions>
      </trkpt>
      <trkpt lat="45.3493632562458515167236328125" lon="-70.80999822355806827545166015625">
        <ele>747</ele>
        <time>2026-08-21T11:20:34.000Z</time>
        <extensions>
          <ns3:TrackPointExtension>
            <ns3:hr>126</ns3:hr>
            <ns3:cad>0</ns3:cad>
          </ns3:TrackPointExtension>
        </extensions>
      </trkpt>
      <trkpt lat="45.34935881383717060089111328125" lon="-70.8100147359073162078857421875">
        <ele>747</ele>
        <time>2026-08-21T11:20:35.000Z</time>
        <extensions>
          <ns3:TrackPointExtension>
            <ns3:hr>125</ns3:hr>
            <ns3:cad>0</ns3:cad>
          </ns3:TrackPointExtension>
        </extensions>
      </trkpt>
      <trkpt lat="45.3493528626859188079833984375" lon="-70.8100351877510547637939453125">
        <ele>747</ele>
        <time>2026-08-21T11:20:36.000Z</time>
        <extensions>
          <ns3:TrackPointExtension>
            <ns3:hr>124</ns3:hr>
            <ns3:cad>49</ns3:cad>
          </ns3:TrackPointExtension>
        </extensions>
      </trkpt>
      <trkpt lat="45.34934691153466701507568359375" lon="-70.8100636862218379974365234375">
        <ele>746.79998779296875</ele>
        <time>2026-08-21T11:20:37.000Z</time>
        <extensions>
          <ns3:TrackPointExtension>
            <ns3:hr>123</ns3:hr>
            <ns3:cad>49</ns3:cad>
          </ns3:TrackPointExtension>
        </extensions>
      </trkpt>
      <trkpt lat="45.34934557043015956878662109375" lon="-70.81008003093302249908447265625">
        <ele>746.4000244140625</ele>
        <time>2026-08-21T11:20:38.000Z</time>
        <extensions>
          <ns3:TrackPointExtension>
            <ns3:hr>122</ns3:hr>
            <ns3:cad>49</ns3:cad>
          </ns3:TrackPointExtension>
        </extensions>
      </trkpt>
      <trkpt lat="45.3493414632976055145263671875" lon="-70.81010299734771251678466796875">
        <ele>746.20001220703125</ele>
        <time>2026-08-21T11:20:39.000Z</time>
        <extensions>
          <ns3:TrackPointExtension>
            <ns3:hr>122</ns3:hr>
            <ns3:cad>49</ns3:cad>
          </ns3:TrackPointExtension>
        </extensions>
      </trkpt>
      <trkpt lat="45.34933852963149547576904296875" lon="-70.81012495793402194976806640625">
        <ele>745.79998779296875</ele>
        <time>2026-08-21T11:20:40.000Z</time>
        <extensions>
          <ns3:TrackPointExtension>
            <ns3:hr>122</ns3:hr>
            <ns3:cad>49</ns3:cad>
          </ns3:TrackPointExtension>
        </extensions>
      </trkpt>
      <trkpt lat="45.34933618269860744476318359375" lon="-70.8101354353129863739013671875">
        <ele>745.5999755859375</ele>
        <time>2026-08-21T11:20:41.000Z</time>
        <extensions>
          <ns3:TrackPointExtension>
            <ns3:hr>122</ns3:hr>
            <ns3:cad>49</ns3:cad>
          </ns3:TrackPointExtension>
        </extensions>
      </trkpt>
      <trkpt lat="45.34932998009026050567626953125" lon="-70.81014163792133331298828125">
        <ele>745.20001220703125</ele>
        <time>2026-08-21T11:20:42.000Z</time>
        <extensions>
          <ns3:TrackPointExtension>
            <ns3:hr>122</ns3:hr>
            <ns3:cad>0</ns3:cad>
          </ns3:TrackPointExtension>
        </extensions>
      </trkpt>
      <trkpt lat="45.3493241965770721435546875" lon="-70.810152702033519744873046875">
        <ele>745</ele>
        <time>2026-08-21T11:20:43.000Z</time>
        <extensions>
          <ns3:TrackPointExtension>
            <ns3:hr>123</ns3:hr>
            <ns3:cad>0</ns3:cad>
          </ns3:TrackPointExtension>
        </extensions>
      </trkpt>
      <trkpt lat="45.34931925125420093536376953125" lon="-70.8101562224328517913818359375">
        <ele>744.5999755859375</ele>
        <time>2026-08-21T11:20:44.000Z</time>
        <extensions>
          <ns3:TrackPointExtension>
            <ns3:hr>123</ns3:hr>
            <ns3:cad>0</ns3:cad>
          </ns3:TrackPointExtension>
        </extensions>
      </trkpt>
      <trkpt lat="45.34931522794067859649658203125" lon="-70.810159742832183837890625">
        <ele>744.20001220703125</ele>
        <time>2026-08-21T11:20:45.000Z</time>
        <extensions>
          <ns3:TrackPointExtension>
            <ns3:hr>123</ns3:hr>
            <ns3:cad>0</ns3:cad>
          </ns3:TrackPointExtension>
        </extensions>
      </trkpt>
      <trkpt lat="45.3493122942745685577392578125" lon="-70.8101625926792621612548828125">
        <ele>744</ele>
        <time>2026-08-21T11:20:46.000Z</time>
        <extensions>
          <ns3:TrackPointExtension>
            <ns3:hr>123</ns3:hr>
            <ns3:cad>0</ns3:cad>
          </ns3:TrackPointExtension>
        </extensions>
      </trkpt>
      <trkpt lat="45.3493086062371730804443359375" lon="-70.81016787327826023101806640625">
        <ele>743.5999755859375</ele>
        <time>2026-08-21T11:20:47.000Z</time>
        <extensions>
          <ns3:TrackPointExtension>
            <ns3:hr>124</ns3:hr>
            <ns3:cad>0</ns3:cad>
          </ns3:TrackPointExtension>
        </extensions>
      </trkpt>
      <trkpt lat="45.34930567257106304168701171875" lon="-70.810174159705638885498046875">
        <ele>743.4000244140625</ele>
        <time>2026-08-21T11:20:48.000Z</time>
        <extensions>
          <ns3:TrackPointExtension>
            <ns3:hr>123</ns3:hr>
            <ns3:cad>0</ns3:cad>
          </ns3:TrackPointExtension>
        </extensions>
      </trkpt>
      <trkpt lat="45.34929670393466949462890625" lon="-70.81017784774303436279296875">
        <ele>743</ele>
        <time>2026-08-21T11:20:49.000Z</time>
        <extensions>
          <ns3:TrackPointExtension>
            <ns3:hr>123</ns3:hr>
            <ns3:cad>0</ns3:cad>
          </ns3:TrackPointExtension>
        </extensions>
      </trkpt>
      <trkpt lat="45.34929209388792514801025390625" lon="-70.810190923511981964111328125">
        <ele>742.5999755859375</ele>
        <time>2026-08-21T11:20:50.000Z</time>
        <extensions>
          <ns3:TrackPointExtension>
            <ns3:hr>124</ns3:hr>
            <ns3:cad>0</ns3:cad>
          </ns3:TrackPointExtension>
        </extensions>
      </trkpt>
      <trkpt lat="45.34928119741380214691162109375" lon="-70.81020039506256580352783203125">
        <ele>742.4000244140625</ele>
        <time>2026-08-21T11:20:51.000Z</time>
        <extensions>
          <ns3:TrackPointExtension>
            <ns3:hr>123</ns3:hr>
            <ns3:cad>0</ns3:cad>
          </ns3:TrackPointExtension>
        </extensions>
      </trkpt>
      <trkpt lat="45.3492764197289943695068359375" lon="-70.810211040079593658447265625">
        <ele>742</ele>
        <time>2026-08-21T11:20:52.000Z</time>
        <extensions>
          <ns3:TrackPointExtension>
            <ns3:hr>123</ns3:hr>
            <ns3:cad>0</ns3:cad>
          </ns3:TrackPointExtension>
        </extensions>
      </trkpt>
      <trkpt lat="45.34926761873066425323486328125" lon="-70.810215733945369720458984375">
        <ele>741.5999755859375</ele>
        <time>2026-08-21T11:20:53.000Z</time>
        <extensions>
          <ns3:TrackPointExtension>
            <ns3:hr>124</ns3:hr>
            <ns3:cad>0</ns3:cad>
          </ns3:TrackPointExtension>
        </extensions>
      </trkpt>
      <trkpt lat="45.3492640145123004913330078125" lon="-70.81021866761147975921630859375">
        <ele>741.20001220703125</ele>
        <time>2026-08-21T11:20:54.000Z</time>
        <extensions>
          <ns3:TrackPointExtension>
            <ns3:hr>123</ns3:hr>
            <ns3:cad>0</ns3:cad>
          </ns3:TrackPointExtension>
        </extensions>
      </trkpt>
      <trkpt lat="45.349263846874237060546875" lon="-70.81022218801081180572509765625">
        <ele>740.79998779296875</ele>
        <time>2026-08-21T11:20:55.000Z</time>
        <extensions>
          <ns3:TrackPointExtension>
            <ns3:hr>123</ns3:hr>
            <ns3:cad>0</ns3:cad>
          </ns3:TrackPointExtension>
        </extensions>
      </trkpt>
      <trkpt lat="45.3492566384375095367431640625" lon="-70.8102286420762538909912109375">
        <ele>740.5999755859375</ele>
        <time>2026-08-21T11:20:56.000Z</time>
        <extensions>
          <ns3:TrackPointExtension>
            <ns3:hr>124</ns3:hr>
            <ns3:cad>0</ns3:cad>
          </ns3:TrackPointExtension>
        </extensions>
      </trkpt>
      <trkpt lat="45.34925789572298526763916015625" lon="-70.81023056991398334503173828125">
        <ele>740.4000244140625</ele>
        <time>2026-08-21T11:20:57.000Z</time>
        <extensions>
          <ns3:TrackPointExtension>
            <ns3:hr>124</ns3:hr>
            <ns3:cad>0</ns3:cad>
          </ns3:TrackPointExtension>
        </extensions>
      </trkpt>
      <trkpt lat="45.349260158836841583251953125" lon="-70.81023945473134517669677734375">
        <ele>740.20001220703125</ele>
        <time>2026-08-21T11:20:58.000Z</time>
        <extensions>
          <ns3:TrackPointExtension>
            <ns3:hr>124</ns3:hr>
            <ns3:cad>0</ns3:cad>
          </ns3:TrackPointExtension>
        </extensions>
      </trkpt>
      <trkpt lat="45.3492571413516998291015625" lon="-70.810240209102630615234375">
        <ele>740</ele>
        <time>2026-08-21T11:20:59.000Z</time>
        <extensions>
          <ns3:TrackPointExtension>
            <ns3:hr>124</ns3:hr>
            <ns3:cad>0</ns3:cad>
          </ns3:TrackPointExtension>
        </extensions>
      </trkpt>
      <trkpt lat="45.3492569737136363983154296875" lon="-70.81024716608226299285888671875">
        <ele>739.79998779296875</ele>
        <time>2026-08-21T11:21:00.000Z</time>
        <extensions>
          <ns3:TrackPointExtension>
            <ns3:hr>123</ns3:hr>
            <ns3:cad>0</ns3:cad>
          </ns3:TrackPointExtension>
        </extensions>
      </trkpt>
      <trkpt lat="45.34925538115203380584716796875" lon="-70.81026359461247920989990234375">
        <ele>739.5999755859375</ele>
        <time>2026-08-21T11:21:01.000Z</time>
        <extensions>
          <ns3:TrackPointExtension>
            <ns3:hr>123</ns3:hr>
            <ns3:cad>0</ns3:cad>
          </ns3:TrackPointExtension>
        </extensions>
      </trkpt>
      <trkpt lat="45.3492546267807483673095703125" lon="-70.81027298234403133392333984375">
        <ele>739.4000244140625</ele>
        <time>2026-08-21T11:21:02.000Z</time>
        <extensions>
          <ns3:TrackPointExtension>
            <ns3:hr>123</ns3:hr>
            <ns3:cad>0</ns3:cad>
          </ns3:TrackPointExtension>
        </extensions>
      </trkpt>
      <trkpt lat="45.34925336949527263641357421875" lon="-70.8102816157042980194091796875">
        <ele>739</ele>
        <time>2026-08-21T11:21:03.000Z</time>
        <extensions>
          <ns3:TrackPointExtension>
            <ns3:hr>123</ns3:hr>
            <ns3:cad>0</ns3:cad>
          </ns3:TrackPointExtension>
        </extensions>
      </trkpt>
      <trkpt lat="45.3492516092956066131591796875" lon="-70.81029460765421390533447265625">
        <ele>738.5999755859375</ele>
        <time>2026-08-21T11:21:04.000Z</time>
        <extensions>
          <ns3:TrackPointExtension>
            <ns3:hr>123</ns3:hr>
            <ns3:cad>0</ns3:cad>
          </ns3:TrackPointExtension>
        </extensions>
      </trkpt>
      <trkpt lat="45.34925119020044803619384765625" lon="-70.81030751578509807586669921875">
        <ele>738.4000244140625</ele>
        <time>2026-08-21T11:21:05.000Z</time>
        <extensions>
          <ns3:TrackPointExtension>
            <ns3:hr>123</ns3:hr>
            <ns3:cad>0</ns3:cad>
          </ns3:TrackPointExtension>
        </extensions>
      </trkpt>
      <trkpt lat="45.34924750216305255889892578125" lon="-70.8103168196976184844970703125">
        <ele>738</ele>
        <time>2026-08-21T11:21:06.000Z</time>
        <extensions>
          <ns3:TrackPointExtension>
            <ns3:hr>122</ns3:hr>
            <ns3:cad>0</ns3:cad>
          </ns3:TrackPointExtension>
        </extensions>
      </trkpt>
      <trkpt lat="45.34924532286822795867919921875" lon="-70.8103325776755809783935546875">
        <ele>737.79998779296875</ele>
        <time>2026-08-21T11:21:07.000Z</time>
        <extensions>
          <ns3:TrackPointExtension>
            <ns3:hr>121</ns3:hr>
            <ns3:cad>57</ns3:cad>
          </ns3:TrackPointExtension>
        </extensions>
      </trkpt>
      <trkpt lat="45.349242724478244781494140625" lon="-70.8103423006832599639892578125">
        <ele>737.5999755859375</ele>
        <time>2026-08-21T11:21:08.000Z</time>
        <extensions>
          <ns3:TrackPointExtension>
            <ns3:hr>121</ns3:hr>
            <ns3:cad>57</ns3:cad>
          </ns3:TrackPointExtension>
        </extensions>
      </trkpt>
      <trkpt lat="45.349241383373737335205078125" lon="-70.81035512499511241912841796875">
        <ele>737.4000244140625</ele>
        <time>2026-08-21T11:21:09.000Z</time>
        <extensions>
          <ns3:TrackPointExtension>
            <ns3:hr>120</ns3:hr>
            <ns3:cad>57</ns3:cad>
          </ns3:TrackPointExtension>
        </extensions>
      </trkpt>
      <trkpt lat="45.34923643805086612701416015625" lon="-70.8103748224675655364990234375">
        <ele>737</ele>
        <time>2026-08-21T11:21:10.000Z</time>
        <extensions>
          <ns3:TrackPointExtension>
            <ns3:hr>120</ns3:hr>
            <ns3:cad>57</ns3:cad>
          </ns3:TrackPointExtension>
        </extensions>
      </trkpt>
      <trkpt lat="45.349227301776409149169921875" lon="-70.81039552576839923858642578125">
        <ele>736.5999755859375</ele>
        <time>2026-08-21T11:21:11.000Z</time>
        <extensions>
          <ns3:TrackPointExtension>
            <ns3:hr>120</ns3:hr>
            <ns3:cad>57</ns3:cad>
          </ns3:TrackPointExtension>
        </extensions>
      </trkpt>
      <trkpt lat="45.3492169082164764404296875" lon="-70.8104043267667293548583984375">
        <ele>736.20001220703125</ele>
        <time>2026-08-21T11:21:12.000Z</time>
        <extensions>
          <ns3:TrackPointExtension>
            <ns3:hr>120</ns3:hr>
            <ns3:cad>57</ns3:cad>
          </ns3:TrackPointExtension>
        </extensions>
      </trkpt>
      <trkpt lat="45.34921062178909778594970703125" lon="-70.8104160614311695098876953125">
        <ele>735.79998779296875</ele>
        <time>2026-08-21T11:21:13.000Z</time>
        <extensions>
          <ns3:TrackPointExtension>
            <ns3:hr>119</ns3:hr>
            <ns3:cad>57</ns3:cad>
          </ns3:TrackPointExtension>
        </extensions>
      </trkpt>
      <trkpt lat="45.34920944832265377044677734375" lon="-70.81041782163083553314208984375">
        <ele>735.4000244140625</ele>
        <time>2026-08-21T11:21:14.000Z</time>
        <extensions>
          <ns3:TrackPointExtension>
            <ns3:hr>119</ns3:hr>
            <ns3:cad>57</ns3:cad>
          </ns3:TrackPointExtension>
        </extensions>
      </trkpt>
      <trkpt lat="45.34920425154268741607666015625" lon="-70.810422934591770172119140625">
        <ele>735</ele>
        <time>2026-08-21T11:21:15.000Z</time>
        <extensions>
          <ns3:TrackPointExtension>
            <ns3:hr>118</ns3:hr>
            <ns3:cad>57</ns3:cad>
          </ns3:TrackPointExtension>
        </extensions>
      </trkpt>
      <trkpt lat="45.349195115268230438232421875" lon="-70.81043341197073459625244140625">
        <ele>734.5999755859375</ele>
        <time>2026-08-21T11:21:16.000Z</time>
        <extensions>
          <ns3:TrackPointExtension>
            <ns3:hr>118</ns3:hr>
            <ns3:cad>0</ns3:cad>
          </ns3:TrackPointExtension>
        </extensions>
      </trkpt>
      <trkpt lat="45.3491872362792491912841796875" lon="-70.81044933758676052093505859375">
        <ele>734.20001220703125</ele>
        <time>2026-08-21T11:21:17.000Z</time>
        <extensions>
          <ns3:TrackPointExtension>
            <ns3:hr>118</ns3:hr>
            <ns3:cad>0</ns3:cad>
          </ns3:TrackPointExtension>
        </extensions>
      </trkpt>
      <trkpt lat="45.34918547607958316802978515625" lon="-70.8104670234024524688720703125">
        <ele>733.79998779296875</ele>
        <time>2026-08-21T11:21:18.000Z</time>
        <extensions>
          <ns3:TrackPointExtension>
            <ns3:hr>118</ns3:hr>
            <ns3:cad>59</ns3:cad>
          </ns3:TrackPointExtension>
        </extensions>
      </trkpt>
      <trkpt lat="45.34918011166155338287353515625" lon="-70.810477249324321746826171875">
        <ele>733.4000244140625</ele>
        <time>2026-08-21T11:21:19.000Z</time>
        <extensions>
          <ns3:TrackPointExtension>
            <ns3:hr>118</ns3:hr>
            <ns3:cad>59</ns3:cad>
          </ns3:TrackPointExtension>
        </extensions>
      </trkpt>
      <trkpt lat="45.34917189739644527435302734375" lon="-70.810486637055873870849609375">
        <ele>733.20001220703125</ele>
        <time>2026-08-21T11:21:20.000Z</time>
        <extensions>
          <ns3:TrackPointExtension>
            <ns3:hr>118</ns3:hr>
            <ns3:cad>59</ns3:cad>
          </ns3:TrackPointExtension>
        </extensions>
      </trkpt>
      <trkpt lat="45.34915848635137081146240234375" lon="-70.8104861341416835784912109375">
        <ele>733</ele>
        <time>2026-08-21T11:21:21.000Z</time>
        <extensions>
          <ns3:TrackPointExtension>
            <ns3:hr>118</ns3:hr>
            <ns3:cad>59</ns3:cad>
          </ns3:TrackPointExtension>
        </extensions>
      </trkpt>
      <trkpt lat="45.349152199923992156982421875" lon="-70.81048437394201755523681640625">
        <ele>733</ele>
        <time>2026-08-21T11:21:22.000Z</time>
        <extensions>
          <ns3:TrackPointExtension>
            <ns3:hr>119</ns3:hr>
            <ns3:cad>59</ns3:cad>
          </ns3:TrackPointExtension>
        </extensions>
      </trkpt>
      <trkpt lat="45.34914792515337467193603515625" lon="-70.8104749023914337158203125">
        <ele>733.20001220703125</ele>
        <time>2026-08-21T11:21:23.000Z</time>
        <extensions>
          <ns3:TrackPointExtension>
            <ns3:hr>119</ns3:hr>
            <ns3:cad>59</ns3:cad>
          </ns3:TrackPointExtension>
        </extensions>
      </trkpt>
      <trkpt lat="45.34914515912532806396484375" lon="-70.810463167726993560791015625">
        <ele>733.20001220703125</ele>
        <time>2026-08-21T11:21:24.000Z</time>
        <extensions>
          <ns3:TrackPointExtension>
            <ns3:hr>119</ns3:hr>
            <ns3:cad>59</ns3:cad>
          </ns3:TrackPointExtension>
        </extensions>
      </trkpt>
      <trkpt lat="45.34914641641080379486083984375" lon="-70.81045554019510746002197265625">
        <ele>733.20001220703125</ele>
        <time>2026-08-21T11:21:25.000Z</time>
        <extensions>
          <ns3:TrackPointExtension>
            <ns3:hr>118</ns3:hr>
            <ns3:cad>55</ns3:cad>
          </ns3:TrackPointExtension>
        </extensions>
      </trkpt>
      <trkpt lat="45.3491446562111377716064453125" lon="-70.8104405365884304046630859375">
        <ele>733.4000244140625</ele>
        <time>2026-08-21T11:21:26.000Z</time>
        <extensions>
          <ns3:TrackPointExtension>
            <ns3:hr>118</ns3:hr>
            <ns3:cad>53</ns3:cad>
          </ns3:TrackPointExtension>
        </extensions>
      </trkpt>
      <trkpt lat="45.34914708696305751800537109375" lon="-70.81042855046689510345458984375">
        <ele>733.4000244140625</ele>
        <time>2026-08-21T11:21:27.000Z</time>
        <extensions>
          <ns3:TrackPointExtension>
            <ns3:hr>118</ns3:hr>
            <ns3:cad>53</ns3:cad>
          </ns3:TrackPointExtension>
        </extensions>
      </trkpt>
      <trkpt lat="45.349146835505962371826171875" lon="-70.8104150556027889251708984375">
        <ele>733.5999755859375</ele>
        <time>2026-08-21T11:21:28.000Z</time>
        <extensions>
          <ns3:TrackPointExtension>
            <ns3:hr>118</ns3:hr>
            <ns3:cad>53</ns3:cad>
          </ns3:TrackPointExtension>
        </extensions>
      </trkpt>
      <trkpt lat="45.34914515912532806396484375" lon="-70.81039938144385814666748046875">
        <ele>733.79998779296875</ele>
        <time>2026-08-21T11:21:29.000Z</time>
        <extensions>
          <ns3:TrackPointExtension>
            <ns3:hr>119</ns3:hr>
            <ns3:cad>53</ns3:cad>
          </ns3:TrackPointExtension>
        </extensions>
      </trkpt>
      <trkpt lat="45.349142812192440032958984375" lon="-70.81038697622716426849365234375">
        <ele>733.79998779296875</ele>
        <time>2026-08-21T11:21:30.000Z</time>
        <extensions>
          <ns3:TrackPointExtension>
            <ns3:hr>119</ns3:hr>
            <ns3:cad>53</ns3:cad>
          </ns3:TrackPointExtension>
        </extensions>
      </trkpt>
      <trkpt lat="45.34914272837340831756591796875" lon="-70.810371972620487213134765625">
        <ele>734</ele>
        <time>2026-08-21T11:21:31.000Z</time>
        <extensions>
          <ns3:TrackPointExtension>
            <ns3:hr>119</ns3:hr>
            <ns3:cad>53</ns3:cad>
          </ns3:TrackPointExtension>
        </extensions>
      </trkpt>
      <trkpt lat="45.34913845360279083251953125" lon="-70.810353867709636688232421875">
        <ele>734</ele>
        <time>2026-08-21T11:21:32.000Z</time>
        <extensions>
          <ns3:TrackPointExtension>
            <ns3:hr>120</ns3:hr>
            <ns3:cad>53</ns3:cad>
          </ns3:TrackPointExtension>
        </extensions>
      </trkpt>
      <trkpt lat="45.3491278924047946929931640625" lon="-70.8103325776755809783935546875">
        <ele>734.20001220703125</ele>
        <time>2026-08-21T11:21:33.000Z</time>
        <extensions>
          <ns3:TrackPointExtension>
            <ns3:hr>121</ns3:hr>
            <ns3:cad>53</ns3:cad>
          </ns3:TrackPointExtension>
        </extensions>
      </trkpt>
      <trkpt lat="45.349117331206798553466796875" lon="-70.810309611260890960693359375">
        <ele>734.20001220703125</ele>
        <time>2026-08-21T11:21:34.000Z</time>
        <extensions>
          <ns3:TrackPointExtension>
            <ns3:hr>122</ns3:hr>
            <ns3:cad>53</ns3:cad>
          </ns3:TrackPointExtension>
        </extensions>
      </trkpt>
      <trkpt lat="45.34911020658910274505615234375" lon="-70.81029326654970645904541015625">
        <ele>734.20001220703125</ele>
        <time>2026-08-21T11:21:35.000Z</time>
        <extensions>
          <ns3:TrackPointExtension>
            <ns3:hr>123</ns3:hr>
            <ns3:cad>53</ns3:cad>
          </ns3:TrackPointExtension>
        </extensions>
      </trkpt>
      <trkpt lat="45.3491017408668994903564453125" lon="-70.8102737367153167724609375">
        <ele>734</ele>
        <time>2026-08-21T11:21:36.000Z</time>
        <extensions>
          <ns3:TrackPointExtension>
            <ns3:hr>123</ns3:hr>
            <ns3:cad>53</ns3:cad>
          </ns3:TrackPointExtension>
        </extensions>
      </trkpt>
      <trkpt lat="45.34909813664853572845458984375" lon="-70.8102457411587238311767578125">
        <ele>734</ele>
        <time>2026-08-21T11:21:37.000Z</time>
        <extensions>
          <ns3:TrackPointExtension>
            <ns3:hr>122</ns3:hr>
            <ns3:cad>53</ns3:cad>
          </ns3:TrackPointExtension>
        </extensions>
      </trkpt>
      <trkpt lat="45.349086485803127288818359375" lon="-70.81022805534303188323974609375">
        <ele>734</ele>
        <time>2026-08-21T11:21:38.000Z</time>
        <extensions>
          <ns3:TrackPointExtension>
            <ns3:hr>122</ns3:hr>
            <ns3:cad>53</ns3:cad>
          </ns3:TrackPointExtension>
        </extensions>
      </trkpt>
      <trkpt lat="45.349077768623828887939453125" lon="-70.81020877696573734283447265625">
        <ele>733.79998779296875</ele>
        <time>2026-08-21T11:21:39.000Z</time>
        <extensions>
          <ns3:TrackPointExtension>
            <ns3:hr>121</ns3:hr>
            <ns3:cad>53</ns3:cad>
          </ns3:TrackPointExtension>
        </extensions>
      </trkpt>
      <trkpt lat="45.34906544722616672515869140625" lon="-70.81018983386456966400146484375">
        <ele>733.79998779296875</ele>
        <time>2026-08-21T11:21:40.000Z</time>
        <extensions>
          <ns3:TrackPointExtension>
            <ns3:hr>121</ns3:hr>
            <ns3:cad>53</ns3:cad>
          </ns3:TrackPointExtension>
        </extensions>
      </trkpt>
      <trkpt lat="45.34905203618109226226806640625" lon="-70.81017239950597286224365234375">
        <ele>733.5999755859375</ele>
        <time>2026-08-21T11:21:41.000Z</time>
        <extensions>
          <ns3:TrackPointExtension>
            <ns3:hr>121</ns3:hr>
            <ns3:cad>53</ns3:cad>
          </ns3:TrackPointExtension>
        </extensions>
      </trkpt>
      <trkpt lat="45.34903862513601779937744140625" lon="-70.81015563569962978363037109375">
        <ele>733.5999755859375</ele>
        <time>2026-08-21T11:21:42.000Z</time>
        <extensions>
          <ns3:TrackPointExtension>
            <ns3:hr>122</ns3:hr>
            <ns3:cad>53</ns3:cad>
          </ns3:TrackPointExtension>
        </extensions>
      </trkpt>
      <trkpt lat="45.34902873449027538299560546875" lon="-70.8101394586265087127685546875">
        <ele>733.4000244140625</ele>
        <time>2026-08-21T11:21:43.000Z</time>
        <extensions>
          <ns3:TrackPointExtension>
            <ns3:hr>121</ns3:hr>
            <ns3:cad>15</ns3:cad>
          </ns3:TrackPointExtension>
        </extensions>
      </trkpt>
      <trkpt lat="45.34901683218777179718017578125" lon="-70.81012579612433910369873046875">
        <ele>733.4000244140625</ele>
        <time>2026-08-21T11:21:44.000Z</time>
        <extensions>
          <ns3:TrackPointExtension>
            <ns3:hr>121</ns3:hr>
            <ns3:cad>15</ns3:cad>
          </ns3:TrackPointExtension>
        </extensions>
      </trkpt>
      <trkpt lat="45.349001325666904449462890625" lon="-70.81011439673602581024169921875">
        <ele>733.20001220703125</ele>
        <time>2026-08-21T11:21:45.000Z</time>
        <extensions>
          <ns3:TrackPointExtension>
            <ns3:hr>122</ns3:hr>
            <ns3:cad>15</ns3:cad>
          </ns3:TrackPointExtension>
        </extensions>
      </trkpt>
      <trkpt lat="45.348988585174083709716796875" lon="-70.8101066015660762786865234375">
        <ele>733.20001220703125</ele>
        <time>2026-08-21T11:21:46.000Z</time>
        <extensions>
          <ns3:TrackPointExtension>
            <ns3:hr>121</ns3:hr>
            <ns3:cad>15</ns3:cad>
          </ns3:TrackPointExtension>
        </extensions>
      </trkpt>
      <trkpt lat="45.34897961653769016265869140625" lon="-70.8101009018719196319580078125">
        <ele>733</ele>
        <time>2026-08-21T11:21:47.000Z</time>
        <extensions>
          <ns3:TrackPointExtension>
            <ns3:hr>121</ns3:hr>
            <ns3:cad>15</ns3:cad>
          </ns3:TrackPointExtension>
        </extensions>
      </trkpt>
      <trkpt lat="45.34897056408226490020751953125" lon="-70.81009478308260440826416015625">
        <ele>733</ele>
        <time>2026-08-21T11:21:48.000Z</time>
        <extensions>
          <ns3:TrackPointExtension>
            <ns3:hr>121</ns3:hr>
            <ns3:cad>0</ns3:cad>
          </ns3:TrackPointExtension>
        </extensions>
      </trkpt>
      <trkpt lat="45.3489501960575580596923828125" lon="-70.810093022882938385009765625">
        <ele>732.79998779296875</ele>
        <time>2026-08-21T11:21:49.000Z</time>
        <extensions>
          <ns3:TrackPointExtension>
            <ns3:hr>122</ns3:hr>
            <ns3:cad>0</ns3:cad>
          </ns3:TrackPointExtension>
        </extensions>
      </trkpt>
      <trkpt lat="45.34893334843218326568603515625" lon="-70.81009008921682834625244140625">
        <ele>732.79998779296875</ele>
        <time>2026-08-21T11:21:50.000Z</time>
        <extensions>
          <ns3:TrackPointExtension>
            <ns3:hr>122</ns3:hr>
            <ns3:cad>0</ns3:cad>
          </ns3:TrackPointExtension>
        </extensions>
      </trkpt>
      <trkpt lat="45.34892211668193340301513671875" lon="-70.81008690409362316131591796875">
        <ele>732.5999755859375</ele>
        <time>2026-08-21T11:21:51.000Z</time>
        <extensions>
          <ns3:TrackPointExtension>
            <ns3:hr>123</ns3:hr>
            <ns3:cad>0</ns3:cad>
          </ns3:TrackPointExtension>
        </extensions>
      </trkpt>
      <trkpt lat="45.348910801112651824951171875" lon="-70.8100821264088153839111328125">
        <ele>732.4000244140625</ele>
        <time>2026-08-21T11:21:52.000Z</time>
        <extensions>
          <ns3:TrackPointExtension>
            <ns3:hr>123</ns3:hr>
            <ns3:cad>56</ns3:cad>
          </ns3:TrackPointExtension>
        </extensions>
      </trkpt>
      <trkpt lat="45.3488942049443721771240234375" lon="-70.810074247419834136962890625">
        <ele>732.4000244140625</ele>
        <time>2026-08-21T11:21:53.000Z</time>
        <extensions>
          <ns3:TrackPointExtension>
            <ns3:hr>122</ns3:hr>
            <ns3:cad>56</ns3:cad>
          </ns3:TrackPointExtension>
        </extensions>
      </trkpt>
      <trkpt lat="45.34887769259512424468994140625" lon="-70.81006896682083606719970703125">
        <ele>732.20001220703125</ele>
        <time>2026-08-21T11:21:54.000Z</time>
        <extensions>
          <ns3:TrackPointExtension>
            <ns3:hr>122</ns3:hr>
            <ns3:cad>56</ns3:cad>
          </ns3:TrackPointExtension>
        </extensions>
      </trkpt>
      <trkpt lat="45.34886042587459087371826171875" lon="-70.8100667037069797515869140625">
        <ele>732</ele>
        <time>2026-08-21T11:21:55.000Z</time>
        <extensions>
          <ns3:TrackPointExtension>
            <ns3:hr>122</ns3:hr>
            <ns3:cad>56</ns3:cad>
          </ns3:TrackPointExtension>
        </extensions>
      </trkpt>
      <trkpt lat="45.348842404782772064208984375" lon="-70.81007131375372409820556640625">
        <ele>732</ele>
        <time>2026-08-21T11:21:56.000Z</time>
        <extensions>
          <ns3:TrackPointExtension>
            <ns3:hr>122</ns3:hr>
            <ns3:cad>56</ns3:cad>
          </ns3:TrackPointExtension>
        </extensions>
      </trkpt>
      <trkpt lat="45.34882924519479274749755859375" lon="-70.8100859820842742919921875">
        <ele>731.79998779296875</ele>
        <time>2026-08-21T11:21:57.000Z</time>
        <extensions>
          <ns3:TrackPointExtension>
            <ns3:hr>122</ns3:hr>
            <ns3:cad>56</ns3:cad>
          </ns3:TrackPointExtension>
        </extensions>
      </trkpt>
      <trkpt lat="45.34881818108260631561279296875" lon="-70.8100982196629047393798828125">
        <ele>731.79998779296875</ele>
        <time>2026-08-21T11:21:58.000Z</time>
        <extensions>
          <ns3:TrackPointExtension>
            <ns3:hr>122</ns3:hr>
            <ns3:cad>56</ns3:cad>
          </ns3:TrackPointExtension>
        </extensions>
      </trkpt>
      <trkpt lat="45.34880644641816616058349609375" lon="-70.810105763375759124755859375">
        <ele>731.5999755859375</ele>
        <time>2026-08-21T11:21:59.000Z</time>
        <extensions>
          <ns3:TrackPointExtension>
            <ns3:hr>122</ns3:hr>
            <ns3:cad>56</ns3:cad>
          </ns3:TrackPointExtension>
        </extensions>
      </trkpt>
      <trkpt lat="45.3487859107553958892822265625" lon="-70.8101141452789306640625">
        <ele>731.4000244140625</ele>
        <time>2026-08-21T11:22:00.000Z</time>
        <extensions>
          <ns3:TrackPointExtension>
            <ns3:hr>122</ns3:hr>
            <ns3:cad>56</ns3:cad>
          </ns3:TrackPointExtension>
        </extensions>
      </trkpt>
      <trkpt lat="45.34877157770097255706787109375" lon="-70.81012227572500705718994140625">
        <ele>731.20001220703125</ele>
        <time>2026-08-21T11:22:01.000Z</time>
        <extensions>
          <ns3:TrackPointExtension>
            <ns3:hr>122</ns3:hr>
            <ns3:cad>0</ns3:cad>
          </ns3:TrackPointExtension>
        </extensions>
      </trkpt>
      <trkpt lat="45.3487627767026424407958984375" lon="-70.810127891600131988525390625">
        <ele>731</ele>
        <time>2026-08-21T11:22:02.000Z</time>
        <extensions>
          <ns3:TrackPointExtension>
            <ns3:hr>122</ns3:hr>
            <ns3:cad>0</ns3:cad>
          </ns3:TrackPointExtension>
        </extensions>
      </trkpt>
      <trkpt lat="45.34875062294304370880126953125" lon="-70.810138620436191558837890625">
        <ele>730.5999755859375</ele>
        <time>2026-08-21T11:22:03.000Z</time>
        <extensions>
          <ns3:TrackPointExtension>
            <ns3:hr>122</ns3:hr>
            <ns3:cad>0</ns3:cad>
          </ns3:TrackPointExtension>
        </extensions>
      </trkpt>
      <trkpt lat="45.3487346135079860687255859375" lon="-70.810156054794788360595703125">
        <ele>730.20001220703125</ele>
        <time>2026-08-21T11:22:04.000Z</time>
        <extensions>
          <ns3:TrackPointExtension>
            <ns3:hr>122</ns3:hr>
            <ns3:cad>0</ns3:cad>
          </ns3:TrackPointExtension>
        </extensions>
      </trkpt>
      <trkpt lat="45.34872028045356273651123046875" lon="-70.81016242504119873046875">
        <ele>729.79998779296875</ele>
        <time>2026-08-21T11:22:05.000Z</time>
        <extensions>
          <ns3:TrackPointExtension>
            <ns3:hr>121</ns3:hr>
            <ns3:cad>0</ns3:cad>
          </ns3:TrackPointExtension>
        </extensions>
      </trkpt>
      <trkpt lat="45.34870938397943973541259765625" lon="-70.81016636453568935394287109375">
        <ele>729.4000244140625</ele>
        <time>2026-08-21T11:22:06.000Z</time>
        <extensions>
          <ns3:TrackPointExtension>
            <ns3:hr>122</ns3:hr>
            <ns3:cad>0</ns3:cad>
          </ns3:TrackPointExtension>
        </extensions>
      </trkpt>
      <trkpt lat="45.34869588911533355712890625" lon="-70.81017516553401947021484375">
        <ele>729</ele>
        <time>2026-08-21T11:22:07.000Z</time>
        <extensions>
          <ns3:TrackPointExtension>
            <ns3:hr>122</ns3:hr>
            <ns3:cad>0</ns3:cad>
          </ns3:TrackPointExtension>
        </extensions>
      </trkpt>
      <trkpt lat="45.34868708811700344085693359375" lon="-70.81018212251365184783935546875">
        <ele>728.79998779296875</ele>
        <time>2026-08-21T11:22:08.000Z</time>
        <extensions>
          <ns3:TrackPointExtension>
            <ns3:hr>122</ns3:hr>
            <ns3:cad>0</ns3:cad>
          </ns3:TrackPointExtension>
        </extensions>
      </trkpt>
      <trkpt lat="45.348655991256237030029296875" lon="-70.81018245778977870941162109375">
        <ele>728.5999755859375</ele>
        <time>2026-08-21T11:22:09.000Z</time>
        <extensions>
          <ns3:TrackPointExtension>
            <ns3:hr>122</ns3:hr>
            <ns3:cad>0</ns3:cad>
          </ns3:TrackPointExtension>
        </extensions>
      </trkpt>
      <trkpt lat="45.3486336953938007354736328125" lon="-70.8101927675306797027587890625">
        <ele>728.5999755859375</ele>
        <time>2026-08-21T11:22:10.000Z</time>
        <extensions>
          <ns3:TrackPointExtension>
            <ns3:hr>122</ns3:hr>
            <ns3:cad>0</ns3:cad>
          </ns3:TrackPointExtension>
        </extensions>
      </trkpt>
      <trkpt lat="45.348616428673267364501953125" lon="-70.81019754521548748016357421875">
        <ele>728.4000244140625</ele>
        <time>2026-08-21T11:22:11.000Z</time>
        <extensions>
          <ns3:TrackPointExtension>
            <ns3:hr>122</ns3:hr>
            <ns3:cad>68</ns3:cad>
          </ns3:TrackPointExtension>
        </extensions>
      </trkpt>
      <trkpt lat="45.3486025147140026092529296875" lon="-70.81020676530897617340087890625">
        <ele>728.20001220703125</ele>
        <time>2026-08-21T11:22:12.000Z</time>
        <extensions>
          <ns3:TrackPointExtension>
            <ns3:hr>123</ns3:hr>
            <ns3:cad>68</ns3:cad>
          </ns3:TrackPointExtension>
        </extensions>
      </trkpt>
      <trkpt lat="45.348586253821849822998046875" lon="-70.81021347083151340484619140625">
        <ele>728</ele>
        <time>2026-08-21T11:22:13.000Z</time>
        <extensions>
          <ns3:TrackPointExtension>
            <ns3:hr>124</ns3:hr>
            <ns3:cad>0</ns3:cad>
          </ns3:TrackPointExtension>
        </extensions>
      </trkpt>
      <trkpt lat="45.34857041202485561370849609375" lon="-70.8102148957550525665283203125">
        <ele>727.79998779296875</ele>
        <time>2026-08-21T11:22:14.000Z</time>
        <extensions>
          <ns3:TrackPointExtension>
            <ns3:hr>124</ns3:hr>
            <ns3:cad>0</ns3:cad>
          </ns3:TrackPointExtension>
        </extensions>
      </trkpt>
      <trkpt lat="45.3485584259033203125" lon="-70.81021430902183055877685546875">
        <ele>727.5999755859375</ele>
        <time>2026-08-21T11:22:15.000Z</time>
        <extensions>
          <ns3:TrackPointExtension>
            <ns3:hr>125</ns3:hr>
            <ns3:cad>0</ns3:cad>
          </ns3:TrackPointExtension>
        </extensions>
      </trkpt>
      <trkpt lat="45.34854694269597530364990234375" lon="-70.81021732650697231292724609375">
        <ele>727.4000244140625</ele>
        <time>2026-08-21T11:22:16.000Z</time>
        <extensions>
          <ns3:TrackPointExtension>
            <ns3:hr>125</ns3:hr>
            <ns3:cad>0</ns3:cad>
          </ns3:TrackPointExtension>
        </extensions>
      </trkpt>
      <trkpt lat="45.3485354594886302947998046875" lon="-70.81022000871598720550537109375">
        <ele>727.20001220703125</ele>
        <time>2026-08-21T11:22:17.000Z</time>
        <extensions>
          <ns3:TrackPointExtension>
            <ns3:hr>124</ns3:hr>
            <ns3:cad>0</ns3:cad>
          </ns3:TrackPointExtension>
        </extensions>
      </trkpt>
      <trkpt lat="45.3485223837196826934814453125" lon="-70.81021732650697231292724609375">
        <ele>727</ele>
        <time>2026-08-21T11:22:18.000Z</time>
        <extensions>
          <ns3:TrackPointExtension>
            <ns3:hr>124</ns3:hr>
            <ns3:cad>0</ns3:cad>
          </ns3:TrackPointExtension>
        </extensions>
      </trkpt>
      <trkpt lat="45.348507799208164215087890625" lon="-70.81022202037274837493896484375">
        <ele>726.5999755859375</ele>
        <time>2026-08-21T11:22:19.000Z</time>
        <extensions>
          <ns3:TrackPointExtension>
            <ns3:hr>124</ns3:hr>
            <ns3:cad>0</ns3:cad>
          </ns3:TrackPointExtension>
        </extensions>
      </trkpt>
      <trkpt lat="45.34849681891500949859619140625" lon="-70.810228474438190460205078125">
        <ele>726.4000244140625</ele>
        <time>2026-08-21T11:22:20.000Z</time>
        <extensions>
          <ns3:TrackPointExtension>
            <ns3:hr>124</ns3:hr>
            <ns3:cad>0</ns3:cad>
          </ns3:TrackPointExtension>
        </extensions>
      </trkpt>
      <trkpt lat="45.3484868444502353668212890625" lon="-70.810236521065235137939453125">
        <ele>726</ele>
        <time>2026-08-21T11:22:21.000Z</time>
        <extensions>
          <ns3:TrackPointExtension>
            <ns3:hr>124</ns3:hr>
            <ns3:cad>57</ns3:cad>
          </ns3:TrackPointExtension>
        </extensions>
      </trkpt>
      <trkpt lat="45.348476283252239227294921875" lon="-70.810238532721996307373046875">
        <ele>725.4000244140625</ele>
        <time>2026-08-21T11:22:22.000Z</time>
        <extensions>
          <ns3:TrackPointExtension>
            <ns3:hr>123</ns3:hr>
            <ns3:cad>57</ns3:cad>
          </ns3:TrackPointExtension>
        </extensions>
      </trkpt>
      <trkpt lat="45.34845943562686443328857421875" lon="-70.8102366887032985687255859375">
        <ele>725</ele>
        <time>2026-08-21T11:22:23.000Z</time>
        <extensions>
          <ns3:TrackPointExtension>
            <ns3:hr>122</ns3:hr>
            <ns3:cad>57</ns3:cad>
          </ns3:TrackPointExtension>
        </extensions>
      </trkpt>
      <trkpt lat="45.34844250418245792388916015625" lon="-70.81023375503718852996826171875">
        <ele>724.4000244140625</ele>
        <time>2026-08-21T11:22:24.000Z</time>
        <extensions>
          <ns3:TrackPointExtension>
            <ns3:hr>122</ns3:hr>
            <ns3:cad>57</ns3:cad>
          </ns3:TrackPointExtension>
        </extensions>
      </trkpt>
      <trkpt lat="45.34842289052903652191162109375" lon="-70.81022973172366619110107421875">
        <ele>724</ele>
        <time>2026-08-21T11:22:25.000Z</time>
        <extensions>
          <ns3:TrackPointExtension>
            <ns3:hr>122</ns3:hr>
            <ns3:cad>57</ns3:cad>
          </ns3:TrackPointExtension>
        </extensions>
      </trkpt>
      <trkpt lat="45.34840889275074005126953125" lon="-70.81022679805755615234375">
        <ele>723.4000244140625</ele>
        <time>2026-08-21T11:22:26.000Z</time>
        <extensions>
          <ns3:TrackPointExtension>
            <ns3:hr>122</ns3:hr>
            <ns3:cad>57</ns3:cad>
          </ns3:TrackPointExtension>
        </extensions>
      </trkpt>
      <trkpt lat="45.34839724190533161163330078125" lon="-70.8102269656956195831298828125">
        <ele>723</ele>
        <time>2026-08-21T11:22:27.000Z</time>
        <extensions>
          <ns3:TrackPointExtension>
            <ns3:hr>122</ns3:hr>
            <ns3:cad>57</ns3:cad>
          </ns3:TrackPointExtension>
        </extensions>
      </trkpt>
      <trkpt lat="45.34838114865124225616455078125" lon="-70.81022822298109531402587890625">
        <ele>722.79998779296875</ele>
        <time>2026-08-21T11:22:28.000Z</time>
        <extensions>
          <ns3:TrackPointExtension>
            <ns3:hr>122</ns3:hr>
            <ns3:cad>57</ns3:cad>
          </ns3:TrackPointExtension>
        </extensions>
      </trkpt>
      <trkpt lat="45.3483693301677703857421875" lon="-70.8102335035800933837890625">
        <ele>722.5999755859375</ele>
        <time>2026-08-21T11:22:29.000Z</time>
        <extensions>
          <ns3:TrackPointExtension>
            <ns3:hr>121</ns3:hr>
            <ns3:cad>57</ns3:cad>
          </ns3:TrackPointExtension>
        </extensions>
      </trkpt>
      <trkpt lat="45.34835248254239559173583984375" lon="-70.8102433942258358001708984375">
        <ele>722.4000244140625</ele>
        <time>2026-08-21T11:22:30.000Z</time>
        <extensions>
          <ns3:TrackPointExtension>
            <ns3:hr>122</ns3:hr>
            <ns3:cad>57</ns3:cad>
          </ns3:TrackPointExtension>
        </extensions>
      </trkpt>
      <trkpt lat="45.348340831696987152099609375" lon="-70.81025001592934131622314453125">
        <ele>722.20001220703125</ele>
        <time>2026-08-21T11:22:31.000Z</time>
        <extensions>
          <ns3:TrackPointExtension>
            <ns3:hr>122</ns3:hr>
            <ns3:cad>61</ns3:cad>
          </ns3:TrackPointExtension>
        </extensions>
      </trkpt>
      <trkpt lat="45.34832934848964214324951171875" lon="-70.81025705672800540924072265625">
        <ele>722</ele>
        <time>2026-08-21T11:22:32.000Z</time>
        <extensions>
          <ns3:TrackPointExtension>
            <ns3:hr>122</ns3:hr>
            <ns3:cad>61</ns3:cad>
          </ns3:TrackPointExtension>
        </extensions>
      </trkpt>
      <trkpt lat="45.348320044577121734619140625" lon="-70.81026309169828891754150390625">
        <ele>721.79998779296875</ele>
        <time>2026-08-21T11:22:33.000Z</time>
        <extensions>
          <ns3:TrackPointExtension>
            <ns3:hr>122</ns3:hr>
            <ns3:cad>61</ns3:cad>
          </ns3:TrackPointExtension>
        </extensions>
      </trkpt>
      <trkpt lat="45.34830939956009387969970703125" lon="-70.81026912666857242584228515625">
        <ele>721.4000244140625</ele>
        <time>2026-08-21T11:22:34.000Z</time>
        <extensions>
          <ns3:TrackPointExtension>
            <ns3:hr>122</ns3:hr>
            <ns3:cad>61</ns3:cad>
          </ns3:TrackPointExtension>
        </extensions>
      </trkpt>
      <trkpt lat="45.3482960723340511322021484375" lon="-70.81027415581047534942626953125">
        <ele>721.20001220703125</ele>
        <time>2026-08-21T11:22:35.000Z</time>
        <extensions>
          <ns3:TrackPointExtension>
            <ns3:hr>122</ns3:hr>
            <ns3:cad>61</ns3:cad>
          </ns3:TrackPointExtension>
        </extensions>
      </trkpt>
      <trkpt lat="45.3482796438038349151611328125" lon="-70.81029091961681842803955078125">
        <ele>720.79998779296875</ele>
        <time>2026-08-21T11:22:36.000Z</time>
        <extensions>
          <ns3:TrackPointExtension>
            <ns3:hr>121</ns3:hr>
            <ns3:cad>61</ns3:cad>
          </ns3:TrackPointExtension>
        </extensions>
      </trkpt>
      <trkpt lat="45.3482702560722827911376953125" lon="-70.81031137146055698394775390625">
        <ele>720.4000244140625</ele>
        <time>2026-08-21T11:22:37.000Z</time>
        <extensions>
          <ns3:TrackPointExtension>
            <ns3:hr>121</ns3:hr>
            <ns3:cad>61</ns3:cad>
          </ns3:TrackPointExtension>
        </extensions>
      </trkpt>
      <trkpt lat="45.34825776703655719757080078125" lon="-70.81034355796873569488525390625">
        <ele>720.20001220703125</ele>
        <time>2026-08-21T11:22:38.000Z</time>
        <extensions>
          <ns3:TrackPointExtension>
            <ns3:hr>120</ns3:hr>
            <ns3:cad>61</ns3:cad>
          </ns3:TrackPointExtension>
        </extensions>
      </trkpt>
      <trkpt lat="45.34825064241886138916015625" lon="-70.81035998649895191192626953125">
        <ele>719.79998779296875</ele>
        <time>2026-08-21T11:22:39.000Z</time>
        <extensions>
          <ns3:TrackPointExtension>
            <ns3:hr>120</ns3:hr>
            <ns3:cad>61</ns3:cad>
          </ns3:TrackPointExtension>
        </extensions>
      </trkpt>
      <trkpt lat="45.3482407517731189727783203125" lon="-70.810376666486263275146484375">
        <ele>719.5999755859375</ele>
        <time>2026-08-21T11:22:40.000Z</time>
        <extensions>
          <ns3:TrackPointExtension>
            <ns3:hr>120</ns3:hr>
            <ns3:cad>61</ns3:cad>
          </ns3:TrackPointExtension>
        </extensions>
      </trkpt>
      <trkpt lat="45.34823345951735973358154296875" lon="-70.810396112501621246337890625">
        <ele>719.4000244140625</ele>
        <time>2026-08-21T11:22:41.000Z</time>
        <extensions>
          <ns3:TrackPointExtension>
            <ns3:hr>120</ns3:hr>
            <ns3:cad>61</ns3:cad>
          </ns3:TrackPointExtension>
        </extensions>
      </trkpt>
      <trkpt lat="45.34822474233806133270263671875" lon="-70.8104033209383487701416015625">
        <ele>719.20001220703125</ele>
        <time>2026-08-21T11:22:42.000Z</time>
        <extensions>
          <ns3:TrackPointExtension>
            <ns3:hr>119</ns3:hr>
            <ns3:cad>0</ns3:cad>
          </ns3:TrackPointExtension>
        </extensions>
      </trkpt>
      <trkpt lat="45.34821870736777782440185546875" lon="-70.810420922935009002685546875">
        <ele>719</ele>
        <time>2026-08-21T11:22:43.000Z</time>
        <extensions>
          <ns3:TrackPointExtension>
            <ns3:hr>119</ns3:hr>
            <ns3:cad>0</ns3:cad>
          </ns3:TrackPointExtension>
        </extensions>
      </trkpt>
      <trkpt lat="45.34821703098714351654052734375" lon="-70.81044497899711132049560546875">
        <ele>718.79998779296875</ele>
        <time>2026-08-21T11:22:44.000Z</time>
        <extensions>
          <ns3:TrackPointExtension>
            <ns3:hr>119</ns3:hr>
            <ns3:cad>0</ns3:cad>
          </ns3:TrackPointExtension>
        </extensions>
      </trkpt>
      <trkpt lat="45.348214097321033477783203125" lon="-70.81046241335570812225341796875">
        <ele>718.5999755859375</ele>
        <time>2026-08-21T11:22:45.000Z</time>
        <extensions>
          <ns3:TrackPointExtension>
            <ns3:hr>119</ns3:hr>
            <ns3:cad>0</ns3:cad>
          </ns3:TrackPointExtension>
        </extensions>
      </trkpt>
      <trkpt lat="45.348213426768779754638671875" lon="-70.81048470921814441680908203125">
        <ele>718.4000244140625</ele>
        <time>2026-08-21T11:22:46.000Z</time>
        <extensions>
          <ns3:TrackPointExtension>
            <ns3:hr>119</ns3:hr>
            <ns3:cad>0</ns3:cad>
          </ns3:TrackPointExtension>
        </extensions>
      </trkpt>
      <trkpt lat="45.34821116365492343902587890625" lon="-70.810506083071231842041015625">
        <ele>718.4000244140625</ele>
        <time>2026-08-21T11:22:47.000Z</time>
        <extensions>
          <ns3:TrackPointExtension>
            <ns3:hr>118</ns3:hr>
            <ns3:cad>0</ns3:cad>
          </ns3:TrackPointExtension>
        </extensions>
      </trkpt>
      <trkpt lat="45.348211415112018585205078125" lon="-70.810523517429828643798828125">
        <ele>718.20001220703125</ele>
        <time>2026-08-21T11:22:48.000Z</time>
        <extensions>
          <ns3:TrackPointExtension>
            <ns3:hr>118</ns3:hr>
            <ns3:cad>0</ns3:cad>
          </ns3:TrackPointExtension>
        </extensions>
      </trkpt>
      <trkpt lat="45.348208732903003692626953125" lon="-70.81053416244685649871826171875">
        <ele>718</ele>
        <time>2026-08-21T11:22:49.000Z</time>
        <extensions>
          <ns3:TrackPointExtension>
            <ns3:hr>118</ns3:hr>
            <ns3:cad>0</ns3:cad>
          </ns3:TrackPointExtension>
        </extensions>
      </trkpt>
      <trkpt lat="45.34820496104657649993896484375" lon="-70.81054572947323322296142578125">
        <ele>717.79998779296875</ele>
        <time>2026-08-21T11:22:50.000Z</time>
        <extensions>
          <ns3:TrackPointExtension>
            <ns3:hr>118</ns3:hr>
            <ns3:cad>0</ns3:cad>
          </ns3:TrackPointExtension>
        </extensions>
      </trkpt>
      <trkpt lat="45.3481985069811344146728515625" lon="-70.81055645830929279327392578125">
        <ele>717.5999755859375</ele>
        <time>2026-08-21T11:22:51.000Z</time>
        <extensions>
          <ns3:TrackPointExtension>
            <ns3:hr>118</ns3:hr>
            <ns3:cad>0</ns3:cad>
          </ns3:TrackPointExtension>
        </extensions>
      </trkpt>
      <trkpt lat="45.34819423221051692962646484375" lon="-70.81056676805019378662109375">
        <ele>717.4000244140625</ele>
        <time>2026-08-21T11:22:52.000Z</time>
        <extensions>
          <ns3:TrackPointExtension>
            <ns3:hr>118</ns3:hr>
            <ns3:cad>0</ns3:cad>
          </ns3:TrackPointExtension>
        </extensions>
      </trkpt>
      <trkpt lat="45.34819104708731174468994140625" lon="-70.8105753175914287567138671875">
        <ele>717</ele>
        <time>2026-08-21T11:22:53.000Z</time>
        <extensions>
          <ns3:TrackPointExtension>
            <ns3:hr>118</ns3:hr>
            <ns3:cad>0</ns3:cad>
          </ns3:TrackPointExtension>
        </extensions>
      </trkpt>
      <trkpt lat="45.34819163382053375244140625" lon="-70.81058428622782230377197265625">
        <ele>716.5999755859375</ele>
        <time>2026-08-21T11:22:54.000Z</time>
        <extensions>
          <ns3:TrackPointExtension>
            <ns3:hr>118</ns3:hr>
            <ns3:cad>0</ns3:cad>
          </ns3:TrackPointExtension>
        </extensions>
      </trkpt>
      <trkpt lat="45.34819054417312145233154296875" lon="-70.81058830954134464263916015625">
        <ele>716.20001220703125</ele>
        <time>2026-08-21T11:22:55.000Z</time>
        <extensions>
          <ns3:TrackPointExtension>
            <ns3:hr>118</ns3:hr>
            <ns3:cad>0</ns3:cad>
          </ns3:TrackPointExtension>
        </extensions>
      </trkpt>
      <trkpt lat="45.34818802960216999053955078125" lon="-70.81060054711997509002685546875">
        <ele>716</ele>
        <time>2026-08-21T11:22:56.000Z</time>
        <extensions>
          <ns3:TrackPointExtension>
            <ns3:hr>118</ns3:hr>
            <ns3:cad>0</ns3:cad>
          </ns3:TrackPointExtension>
        </extensions>
      </trkpt>
      <trkpt lat="45.3481844253838062286376953125" lon="-70.810610018670558929443359375">
        <ele>715.5999755859375</ele>
        <time>2026-08-21T11:22:57.000Z</time>
        <extensions>
          <ns3:TrackPointExtension>
            <ns3:hr>118</ns3:hr>
            <ns3:cad>0</ns3:cad>
          </ns3:TrackPointExtension>
        </extensions>
      </trkpt>
      <trkpt lat="45.34817830659449100494384765625" lon="-70.81061865203082561492919921875">
        <ele>715.4000244140625</ele>
        <time>2026-08-21T11:22:58.000Z</time>
        <extensions>
          <ns3:TrackPointExtension>
            <ns3:hr>118</ns3:hr>
            <ns3:cad>0</ns3:cad>
          </ns3:TrackPointExtension>
        </extensions>
      </trkpt>
      <trkpt lat="45.34816908650100231170654296875" lon="-70.81063508056104183197021484375">
        <ele>715.20001220703125</ele>
        <time>2026-08-21T11:22:59.000Z</time>
        <extensions>
          <ns3:TrackPointExtension>
            <ns3:hr>117</ns3:hr>
            <ns3:cad>0</ns3:cad>
          </ns3:TrackPointExtension>
        </extensions>
      </trkpt>
      <trkpt lat="45.3481633029878139495849609375" lon="-70.81064882688224315643310546875">
        <ele>714.79998779296875</ele>
        <time>2026-08-21T11:23:00.000Z</time>
        <extensions>
          <ns3:TrackPointExtension>
            <ns3:hr>116</ns3:hr>
            <ns3:cad>0</ns3:cad>
          </ns3:TrackPointExtension>
        </extensions>
      </trkpt>
      <trkpt lat="45.3481616266071796417236328125" lon="-70.81066039390861988067626953125">
        <ele>714.4000244140625</ele>
        <time>2026-08-21T11:23:01.000Z</time>
        <extensions>
          <ns3:TrackPointExtension>
            <ns3:hr>116</ns3:hr>
            <ns3:cad>0</ns3:cad>
          </ns3:TrackPointExtension>
        </extensions>
      </trkpt>
      <trkpt lat="45.34815215505659580230712890625" lon="-70.81067145802080631256103515625">
        <ele>714</ele>
        <time>2026-08-21T11:23:02.000Z</time>
        <extensions>
          <ns3:TrackPointExtension>
            <ns3:hr>117</ns3:hr>
            <ns3:cad>0</ns3:cad>
          </ns3:TrackPointExtension>
        </extensions>
      </trkpt>
      <trkpt lat="45.348143689334392547607421875" lon="-70.81067950464785099029541015625">
        <ele>713.5999755859375</ele>
        <time>2026-08-21T11:23:03.000Z</time>
        <extensions>
          <ns3:TrackPointExtension>
            <ns3:hr>117</ns3:hr>
            <ns3:cad>0</ns3:cad>
          </ns3:TrackPointExtension>
        </extensions>
      </trkpt>
      <trkpt lat="45.34813757054507732391357421875" lon="-70.81069241277873516082763671875">
        <ele>713.20001220703125</ele>
        <time>2026-08-21T11:23:04.000Z</time>
        <extensions>
          <ns3:TrackPointExtension>
            <ns3:hr>117</ns3:hr>
            <ns3:cad>0</ns3:cad>
          </ns3:TrackPointExtension>
        </extensions>
      </trkpt>
      <trkpt lat="45.34812784753739833831787109375" lon="-70.81070423126220703125">
        <ele>713</ele>
        <time>2026-08-21T11:23:05.000Z</time>
        <extensions>
          <ns3:TrackPointExtension>
            <ns3:hr>118</ns3:hr>
            <ns3:cad>0</ns3:cad>
          </ns3:TrackPointExtension>
        </extensions>
      </trkpt>
      <trkpt lat="45.34812097437679767608642578125" lon="-70.8107154630124568939208984375">
        <ele>712.79998779296875</ele>
        <time>2026-08-21T11:23:06.000Z</time>
        <extensions>
          <ns3:TrackPointExtension>
            <ns3:hr>118</ns3:hr>
            <ns3:cad>0</ns3:cad>
          </ns3:TrackPointExtension>
        </extensions>
      </trkpt>
      <trkpt lat="45.34811259247362613677978515625" lon="-70.81073096953332424163818359375">
        <ele>712.4000244140625</ele>
        <time>2026-08-21T11:23:07.000Z</time>
        <extensions>
          <ns3:TrackPointExtension>
            <ns3:hr>118</ns3:hr>
            <ns3:cad>0</ns3:cad>
          </ns3:TrackPointExtension>
        </extensions>
      </trkpt>
      <trkpt lat="45.34810907207429409027099609375" lon="-70.81074823625385761260986328125">
        <ele>712</ele>
        <time>2026-08-21T11:23:08.000Z</time>
        <extensions>
          <ns3:TrackPointExtension>
            <ns3:hr>118</ns3:hr>
            <ns3:cad>0</ns3:cad>
          </ns3:TrackPointExtension>
        </extensions>
      </trkpt>
      <trkpt lat="45.3481066413223743438720703125" lon="-70.8107640780508518218994140625">
        <ele>711.5999755859375</ele>
        <time>2026-08-21T11:23:09.000Z</time>
        <extensions>
          <ns3:TrackPointExtension>
            <ns3:hr>118</ns3:hr>
            <ns3:cad>0</ns3:cad>
          </ns3:TrackPointExtension>
        </extensions>
      </trkpt>
      <trkpt lat="45.348100773990154266357421875" lon="-70.81078830175101757049560546875">
        <ele>711.20001220703125</ele>
        <time>2026-08-21T11:23:10.000Z</time>
        <extensions>
          <ns3:TrackPointExtension>
            <ns3:hr>118</ns3:hr>
            <ns3:cad>0</ns3:cad>
          </ns3:TrackPointExtension>
        </extensions>
      </trkpt>
      <trkpt lat="45.34809700213372707366943359375" lon="-70.81080825068056583404541015625">
        <ele>711</ele>
        <time>2026-08-21T11:23:11.000Z</time>
        <extensions>
          <ns3:TrackPointExtension>
            <ns3:hr>118</ns3:hr>
            <ns3:cad>0</ns3:cad>
          </ns3:TrackPointExtension>
        </extensions>
      </trkpt>
      <trkpt lat="45.34809314645826816558837890625" lon="-70.81082484684884548187255859375">
        <ele>710.5999755859375</ele>
        <time>2026-08-21T11:23:12.000Z</time>
        <extensions>
          <ns3:TrackPointExtension>
            <ns3:hr>118</ns3:hr>
            <ns3:cad>0</ns3:cad>
          </ns3:TrackPointExtension>
        </extensions>
      </trkpt>
      <trkpt lat="45.34808593802154064178466796875" lon="-70.81083725206553936004638671875">
        <ele>710.4000244140625</ele>
        <time>2026-08-21T11:23:13.000Z</time>
        <extensions>
          <ns3:TrackPointExtension>
            <ns3:hr>118</ns3:hr>
            <ns3:cad>0</ns3:cad>
          </ns3:TrackPointExtension>
        </extensions>
      </trkpt>
      <trkpt lat="45.34807495772838592529296875" lon="-70.8108465559780597686767578125">
        <ele>710.20001220703125</ele>
        <time>2026-08-21T11:23:14.000Z</time>
        <extensions>
          <ns3:TrackPointExtension>
            <ns3:hr>118</ns3:hr>
            <ns3:cad>0</ns3:cad>
          </ns3:TrackPointExtension>
        </extensions>
      </trkpt>
      <trkpt lat="45.34806464798748493194580078125" lon="-70.81086021848022937774658203125">
        <ele>710</ele>
        <time>2026-08-21T11:23:15.000Z</time>
        <extensions>
          <ns3:TrackPointExtension>
            <ns3:hr>118</ns3:hr>
            <ns3:cad>0</ns3:cad>
          </ns3:TrackPointExtension>
        </extensions>
      </trkpt>
      <trkpt lat="45.34805215895175933837890625" lon="-70.8108717016875743865966796875">
        <ele>709.79998779296875</ele>
        <time>2026-08-21T11:23:16.000Z</time>
        <extensions>
          <ns3:TrackPointExtension>
            <ns3:hr>118</ns3:hr>
            <ns3:cad>0</ns3:cad>
          </ns3:TrackPointExtension>
        </extensions>
      </trkpt>
      <trkpt lat="45.348045118153095245361328125" lon="-70.81087790429592132568359375">
        <ele>709.5999755859375</ele>
        <time>2026-08-21T11:23:17.000Z</time>
        <extensions>
          <ns3:TrackPointExtension>
            <ns3:hr>117</ns3:hr>
            <ns3:cad>0</ns3:cad>
          </ns3:TrackPointExtension>
        </extensions>
      </trkpt>
      <trkpt lat="45.34803765825927257537841796875" lon="-70.81088167615234851837158203125">
        <ele>709.4000244140625</ele>
        <time>2026-08-21T11:23:18.000Z</time>
        <extensions>
          <ns3:TrackPointExtension>
            <ns3:hr>117</ns3:hr>
            <ns3:cad>0</ns3:cad>
          </ns3:TrackPointExtension>
        </extensions>
      </trkpt>
      <trkpt lat="45.3480298630893230438232421875" lon="-70.81088460981845855712890625">
        <ele>709.20001220703125</ele>
        <time>2026-08-21T11:23:19.000Z</time>
        <extensions>
          <ns3:TrackPointExtension>
            <ns3:hr>117</ns3:hr>
            <ns3:cad>0</ns3:cad>
          </ns3:TrackPointExtension>
        </extensions>
      </trkpt>
      <trkpt lat="45.348020978271961212158203125" lon="-70.81089173443615436553955078125">
        <ele>709</ele>
        <time>2026-08-21T11:23:20.000Z</time>
        <extensions>
          <ns3:TrackPointExtension>
            <ns3:hr>117</ns3:hr>
            <ns3:cad>0</ns3:cad>
          </ns3:TrackPointExtension>
        </extensions>
      </trkpt>
      <trkpt lat="45.34800815396010875701904296875" lon="-70.8109018765389919281005859375">
        <ele>709</ele>
        <time>2026-08-21T11:23:21.000Z</time>
        <extensions>
          <ns3:TrackPointExtension>
            <ns3:hr>118</ns3:hr>
            <ns3:cad>0</ns3:cad>
          </ns3:TrackPointExtension>
        </extensions>
      </trkpt>
      <trkpt lat="45.34799893386662006378173828125" lon="-70.81090715713798999786376953125">
        <ele>708.79998779296875</ele>
        <time>2026-08-21T11:23:22.000Z</time>
        <extensions>
          <ns3:TrackPointExtension>
            <ns3:hr>117</ns3:hr>
            <ns3:cad>0</ns3:cad>
          </ns3:TrackPointExtension>
        </extensions>
      </trkpt>
      <trkpt lat="45.34798954613506793975830078125" lon="-70.81091067753732204437255859375">
        <ele>708.79998779296875</ele>
        <time>2026-08-21T11:23:23.000Z</time>
        <extensions>
          <ns3:TrackPointExtension>
            <ns3:hr>117</ns3:hr>
            <ns3:cad>0</ns3:cad>
          </ns3:TrackPointExtension>
        </extensions>
      </trkpt>
      <trkpt lat="45.3479758836328983306884765625" lon="-70.810912437736988067626953125">
        <ele>708.79998779296875</ele>
        <time>2026-08-21T11:23:24.000Z</time>
        <extensions>
          <ns3:TrackPointExtension>
            <ns3:hr>118</ns3:hr>
            <ns3:cad>0</ns3:cad>
          </ns3:TrackPointExtension>
        </extensions>
      </trkpt>
      <trkpt lat="45.34796674735844135284423828125" lon="-70.810913108289241790771484375">
        <ele>708.5999755859375</ele>
        <time>2026-08-21T11:23:25.000Z</time>
        <extensions>
          <ns3:TrackPointExtension>
            <ns3:hr>118</ns3:hr>
            <ns3:cad>0</ns3:cad>
          </ns3:TrackPointExtension>
        </extensions>
      </trkpt>
      <trkpt lat="45.3479564376175403594970703125" lon="-70.81091470085084438323974609375">
        <ele>708.5999755859375</ele>
        <time>2026-08-21T11:23:26.000Z</time>
        <extensions>
          <ns3:TrackPointExtension>
            <ns3:hr>118</ns3:hr>
            <ns3:cad>0</ns3:cad>
          </ns3:TrackPointExtension>
        </extensions>
      </trkpt>
      <trkpt lat="45.34794545732438564300537109375" lon="-70.81091788597404956817626953125">
        <ele>708.4000244140625</ele>
        <time>2026-08-21T11:23:27.000Z</time>
        <extensions>
          <ns3:TrackPointExtension>
            <ns3:hr>118</ns3:hr>
            <ns3:cad>0</ns3:cad>
          </ns3:TrackPointExtension>
        </extensions>
      </trkpt>
      <trkpt lat="45.3479366563260555267333984375" lon="-70.81093012355268001556396484375">
        <ele>708.20001220703125</ele>
        <time>2026-08-21T11:23:28.000Z</time>
        <extensions>
          <ns3:TrackPointExtension>
            <ns3:hr>118</ns3:hr>
            <ns3:cad>0</ns3:cad>
          </ns3:TrackPointExtension>
        </extensions>
      </trkpt>
      <trkpt lat="45.3479276038706302642822265625" lon="-70.81094202585518360137939453125">
        <ele>708</ele>
        <time>2026-08-21T11:23:29.000Z</time>
        <extensions>
          <ns3:TrackPointExtension>
            <ns3:hr>118</ns3:hr>
            <ns3:cad>0</ns3:cad>
          </ns3:TrackPointExtension>
        </extensions>
      </trkpt>
      <trkpt lat="45.34791469573974609375" lon="-70.810958705842494964599609375">
        <ele>708</ele>
        <time>2026-08-21T11:23:30.000Z</time>
        <extensions>
          <ns3:TrackPointExtension>
            <ns3:hr>117</ns3:hr>
            <ns3:cad>53</ns3:cad>
          </ns3:TrackPointExtension>
        </extensions>
      </trkpt>
      <trkpt lat="45.34790195524692535400390625" lon="-70.810974799096584320068359375">
        <ele>707.79998779296875</ele>
        <time>2026-08-21T11:23:31.000Z</time>
        <extensions>
          <ns3:TrackPointExtension>
            <ns3:hr>117</ns3:hr>
            <ns3:cad>55</ns3:cad>
          </ns3:TrackPointExtension>
        </extensions>
      </trkpt>
      <trkpt lat="45.3478890471160411834716796875" lon="-70.810989551246166229248046875">
        <ele>707.79998779296875</ele>
        <time>2026-08-21T11:23:32.000Z</time>
        <extensions>
          <ns3:TrackPointExtension>
            <ns3:hr>117</ns3:hr>
            <ns3:cad>55</ns3:cad>
          </ns3:TrackPointExtension>
        </extensions>
      </trkpt>
      <trkpt lat="45.34787840209901332855224609375" lon="-70.81100287847220897674560546875">
        <ele>707.5999755859375</ele>
        <time>2026-08-21T11:23:33.000Z</time>
        <extensions>
          <ns3:TrackPointExtension>
            <ns3:hr>117</ns3:hr>
            <ns3:cad>55</ns3:cad>
          </ns3:TrackPointExtension>
        </extensions>
      </trkpt>
      <trkpt lat="45.3478689305484294891357421875" lon="-70.8110148645937442779541015625">
        <ele>707.4000244140625</ele>
        <time>2026-08-21T11:23:34.000Z</time>
        <extensions>
          <ns3:TrackPointExtension>
            <ns3:hr>116</ns3:hr>
            <ns3:cad>55</ns3:cad>
          </ns3:TrackPointExtension>
        </extensions>
      </trkpt>
      <trkpt lat="45.347864069044589996337890625" lon="-70.811027772724628448486328125">
        <ele>707.20001220703125</ele>
        <time>2026-08-21T11:23:35.000Z</time>
        <extensions>
          <ns3:TrackPointExtension>
            <ns3:hr>115</ns3:hr>
            <ns3:cad>0</ns3:cad>
          </ns3:TrackPointExtension>
        </extensions>
      </trkpt>
      <trkpt lat="45.3478570282459259033203125" lon="-70.81104814074933528900146484375">
        <ele>707</ele>
        <time>2026-08-21T11:23:36.000Z</time>
        <extensions>
          <ns3:TrackPointExtension>
            <ns3:hr>115</ns3:hr>
            <ns3:cad>0</ns3:cad>
          </ns3:TrackPointExtension>
        </extensions>
      </trkpt>
      <trkpt lat="45.34785040654242038726806640625" lon="-70.8110591210424900054931640625">
        <ele>707</ele>
        <time>2026-08-21T11:23:37.000Z</time>
        <extensions>
          <ns3:TrackPointExtension>
            <ns3:hr>115</ns3:hr>
            <ns3:cad>0</ns3:cad>
          </ns3:TrackPointExtension>
        </extensions>
      </trkpt>
      <trkpt lat="45.34784889779984951019287109375" lon="-70.81106775440275669097900390625">
        <ele>706.79998779296875</ele>
        <time>2026-08-21T11:23:38.000Z</time>
        <extensions>
          <ns3:TrackPointExtension>
            <ns3:hr>114</ns3:hr>
            <ns3:cad>56</ns3:cad>
          </ns3:TrackPointExtension>
        </extensions>
      </trkpt>
      <trkpt lat="45.3478397615253925323486328125" lon="-70.81108585931360721588134765625">
        <ele>706.79998779296875</ele>
        <time>2026-08-21T11:23:39.000Z</time>
        <extensions>
          <ns3:TrackPointExtension>
            <ns3:hr>114</ns3:hr>
            <ns3:cad>56</ns3:cad>
          </ns3:TrackPointExtension>
        </extensions>
      </trkpt>
      <trkpt lat="45.34782894887030124664306640625" lon="-70.81110714934766292572021484375">
        <ele>706.5999755859375</ele>
        <time>2026-08-21T11:23:40.000Z</time>
        <extensions>
          <ns3:TrackPointExtension>
            <ns3:hr>114</ns3:hr>
            <ns3:cad>56</ns3:cad>
          </ns3:TrackPointExtension>
        </extensions>
      </trkpt>
      <trkpt lat="45.3478199802339076995849609375" lon="-70.81111921928822994232177734375">
        <ele>706.4000244140625</ele>
        <time>2026-08-21T11:23:41.000Z</time>
        <extensions>
          <ns3:TrackPointExtension>
            <ns3:hr>113</ns3:hr>
            <ns3:cad>56</ns3:cad>
          </ns3:TrackPointExtension>
        </extensions>
      </trkpt>
      <trkpt lat="45.34781277179718017578125" lon="-70.8111258409917354583740234375">
        <ele>706.20001220703125</ele>
        <time>2026-08-21T11:23:42.000Z</time>
        <extensions>
          <ns3:TrackPointExtension>
            <ns3:hr>113</ns3:hr>
            <ns3:cad>0</ns3:cad>
          </ns3:TrackPointExtension>
        </extensions>
      </trkpt>
      <trkpt lat="45.34779609180986881256103515625" lon="-70.81113430671393871307373046875">
        <ele>706.20001220703125</ele>
        <time>2026-08-21T11:23:43.000Z</time>
        <extensions>
          <ns3:TrackPointExtension>
            <ns3:hr>111</ns3:hr>
            <ns3:cad>0</ns3:cad>
          </ns3:TrackPointExtension>
        </extensions>
      </trkpt>
      <trkpt lat="45.34777748398482799530029296875" lon="-70.81113950349390506744384765625">
        <ele>706</ele>
        <time>2026-08-21T11:23:44.000Z</time>
        <extensions>
          <ns3:TrackPointExtension>
            <ns3:hr>110</ns3:hr>
            <ns3:cad>0</ns3:cad>
          </ns3:TrackPointExtension>
        </extensions>
      </trkpt>
      <trkpt lat="45.34776524640619754791259765625" lon="-70.81114771775901317596435546875">
        <ele>706</ele>
        <time>2026-08-21T11:23:45.000Z</time>
        <extensions>
          <ns3:TrackPointExtension>
            <ns3:hr>109</ns3:hr>
            <ns3:cad>64</ns3:cad>
          </ns3:TrackPointExtension>
        </extensions>
      </trkpt>
      <trkpt lat="45.34775217063724994659423828125" lon="-70.81115928478538990020751953125">
        <ele>705.79998779296875</ele>
        <time>2026-08-21T11:23:46.000Z</time>
        <extensions>
          <ns3:TrackPointExtension>
            <ns3:hr>108</ns3:hr>
            <ns3:cad>64</ns3:cad>
          </ns3:TrackPointExtension>
        </extensions>
      </trkpt>
      <trkpt lat="45.34774102270603179931640625" lon="-70.8111704327166080474853515625">
        <ele>705.79998779296875</ele>
        <time>2026-08-21T11:23:47.000Z</time>
        <extensions>
          <ns3:TrackPointExtension>
            <ns3:hr>106</ns3:hr>
            <ns3:cad>64</ns3:cad>
          </ns3:TrackPointExtension>
        </extensions>
      </trkpt>
      <trkpt lat="45.34773163497447967529296875" lon="-70.811176300048828125">
        <ele>705.5999755859375</ele>
        <time>2026-08-21T11:23:48.000Z</time>
        <extensions>
          <ns3:TrackPointExtension>
            <ns3:hr>106</ns3:hr>
            <ns3:cad>64</ns3:cad>
          </ns3:TrackPointExtension>
        </extensions>
      </trkpt>
      <trkpt lat="45.347727946937084197998046875" lon="-70.81118040718138217926025390625">
        <ele>705.5999755859375</ele>
        <time>2026-08-21T11:23:49.000Z</time>
        <extensions>
          <ns3:TrackPointExtension>
            <ns3:hr>105</ns3:hr>
            <ns3:cad>0</ns3:cad>
          </ns3:TrackPointExtension>
        </extensions>
      </trkpt>
      <trkpt lat="45.34772216342389583587646484375" lon="-70.81118610687553882598876953125">
        <ele>705.4000244140625</ele>
        <time>2026-08-21T11:23:50.000Z</time>
        <extensions>
          <ns3:TrackPointExtension>
            <ns3:hr>105</ns3:hr>
            <ns3:cad>0</ns3:cad>
          </ns3:TrackPointExtension>
        </extensions>
      </trkpt>
      <trkpt lat="45.34771260805428028106689453125" lon="-70.81119348295032978057861328125">
        <ele>705.4000244140625</ele>
        <time>2026-08-21T11:23:51.000Z</time>
        <extensions>
          <ns3:TrackPointExtension>
            <ns3:hr>105</ns3:hr>
            <ns3:cad>0</ns3:cad>
          </ns3:TrackPointExtension>
        </extensions>
      </trkpt>
      <trkpt lat="45.3477079980075359344482421875" lon="-70.81120454706251621246337890625">
        <ele>705.4000244140625</ele>
        <time>2026-08-21T11:23:52.000Z</time>
        <extensions>
          <ns3:TrackPointExtension>
            <ns3:hr>104</ns3:hr>
            <ns3:cad>0</ns3:cad>
          </ns3:TrackPointExtension>
        </extensions>
      </trkpt>
      <trkpt lat="45.347704477608203887939453125" lon="-70.8112197183072566986083984375">
        <ele>705.4000244140625</ele>
        <time>2026-08-21T11:23:53.000Z</time>
        <extensions>
          <ns3:TrackPointExtension>
            <ns3:hr>104</ns3:hr>
            <ns3:cad>0</ns3:cad>
          </ns3:TrackPointExtension>
        </extensions>
      </trkpt>
      <trkpt lat="45.347699113190174102783203125" lon="-70.81122835166752338409423828125">
        <ele>705.4000244140625</ele>
        <time>2026-08-21T11:23:54.000Z</time>
        <extensions>
          <ns3:TrackPointExtension>
            <ns3:hr>104</ns3:hr>
            <ns3:cad>0</ns3:cad>
          </ns3:TrackPointExtension>
        </extensions>
      </trkpt>
      <trkpt lat="45.34769274294376373291015625" lon="-70.8112351410090923309326171875">
        <ele>705.20001220703125</ele>
        <time>2026-08-21T11:23:55.000Z</time>
        <extensions>
          <ns3:TrackPointExtension>
            <ns3:hr>104</ns3:hr>
            <ns3:cad>0</ns3:cad>
          </ns3:TrackPointExtension>
        </extensions>
      </trkpt>
      <trkpt lat="45.34767891280353069305419921875" lon="-70.8112472109496593475341796875">
        <ele>705.20001220703125</ele>
        <time>2026-08-21T11:23:56.000Z</time>
        <extensions>
          <ns3:TrackPointExtension>
            <ns3:hr>104</ns3:hr>
            <ns3:cad>0</ns3:cad>
          </ns3:TrackPointExtension>
        </extensions>
      </trkpt>
      <trkpt lat="45.3476660884916782379150390625" lon="-70.811260454356670379638671875">
        <ele>705</ele>
        <time>2026-08-21T11:23:57.000Z</time>
        <extensions>
          <ns3:TrackPointExtension>
            <ns3:hr>105</ns3:hr>
            <ns3:cad>0</ns3:cad>
          </ns3:TrackPointExtension>
        </extensions>
      </trkpt>
      <trkpt lat="45.347654186189174652099609375" lon="-70.81127176992595195770263671875">
        <ele>704.79998779296875</ele>
        <time>2026-08-21T11:23:58.000Z</time>
        <extensions>
          <ns3:TrackPointExtension>
            <ns3:hr>106</ns3:hr>
            <ns3:cad>0</ns3:cad>
          </ns3:TrackPointExtension>
        </extensions>
      </trkpt>
      <trkpt lat="45.34764722920954227447509765625" lon="-70.811280906200408935546875">
        <ele>704.79998779296875</ele>
        <time>2026-08-21T11:23:59.000Z</time>
        <extensions>
          <ns3:TrackPointExtension>
            <ns3:hr>107</ns3:hr>
            <ns3:cad>58</ns3:cad>
          </ns3:TrackPointExtension>
        </extensions>
      </trkpt>
      <trkpt lat="45.34764043986797332763671875" lon="-70.8112934790551662445068359375">
        <ele>704.79998779296875</ele>
        <time>2026-08-21T11:24:00.000Z</time>
        <extensions>
          <ns3:TrackPointExtension>
            <ns3:hr>108</ns3:hr>
            <ns3:cad>58</ns3:cad>
          </ns3:TrackPointExtension>
        </extensions>
      </trkpt>
      <trkpt lat="45.34763331525027751922607421875" lon="-70.8113063871860504150390625">
        <ele>704.5999755859375</ele>
        <time>2026-08-21T11:24:01.000Z</time>
        <extensions>
          <ns3:TrackPointExtension>
            <ns3:hr>109</ns3:hr>
            <ns3:cad>58</ns3:cad>
          </ns3:TrackPointExtension>
        </extensions>
      </trkpt>
      <trkpt lat="45.34762945957481861114501953125" lon="-70.81131971441209316253662109375">
        <ele>704.5999755859375</ele>
        <time>2026-08-21T11:24:02.000Z</time>
        <extensions>
          <ns3:TrackPointExtension>
            <ns3:hr>110</ns3:hr>
            <ns3:cad>58</ns3:cad>
          </ns3:TrackPointExtension>
        </extensions>
      </trkpt>
      <trkpt lat="45.34762543626129627227783203125" lon="-70.8113310299813747406005859375">
        <ele>704.4000244140625</ele>
        <time>2026-08-21T11:24:03.000Z</time>
        <extensions>
          <ns3:TrackPointExtension>
            <ns3:hr>112</ns3:hr>
            <ns3:cad>58</ns3:cad>
          </ns3:TrackPointExtension>
        </extensions>
      </trkpt>
      <trkpt lat="45.34761738963425159454345703125" lon="-70.81135408021509647369384765625">
        <ele>704.4000244140625</ele>
        <time>2026-08-21T11:24:04.000Z</time>
        <extensions>
          <ns3:TrackPointExtension>
            <ns3:hr>113</ns3:hr>
            <ns3:cad>53</ns3:cad>
          </ns3:TrackPointExtension>
        </extensions>
      </trkpt>
      <trkpt lat="45.34760431386530399322509765625" lon="-70.811370424926280975341796875">
        <ele>704.4000244140625</ele>
        <time>2026-08-21T11:24:05.000Z</time>
        <extensions>
          <ns3:TrackPointExtension>
            <ns3:hr>113</ns3:hr>
            <ns3:cad>53</ns3:cad>
          </ns3:TrackPointExtension>
        </extensions>
      </trkpt>
      <trkpt lat="45.34759626723825931549072265625" lon="-70.8113796450197696685791015625">
        <ele>704.20001220703125</ele>
        <time>2026-08-21T11:24:06.000Z</time>
        <extensions>
          <ns3:TrackPointExtension>
            <ns3:hr>113</ns3:hr>
            <ns3:cad>50</ns3:cad>
          </ns3:TrackPointExtension>
        </extensions>
      </trkpt>
      <trkpt lat="45.34758771769702434539794921875" lon="-70.81138727255165576934814453125">
        <ele>704.20001220703125</ele>
        <time>2026-08-21T11:24:07.000Z</time>
        <extensions>
          <ns3:TrackPointExtension>
            <ns3:hr>113</ns3:hr>
            <ns3:cad>50</ns3:cad>
          </ns3:TrackPointExtension>
        </extensions>
      </trkpt>
      <trkpt lat="45.34758067689836025238037109375" lon="-70.811397917568683624267578125">
        <ele>704.20001220703125</ele>
        <time>2026-08-21T11:24:08.000Z</time>
        <extensions>
          <ns3:TrackPointExtension>
            <ns3:hr>111</ns3:hr>
            <ns3:cad>50</ns3:cad>
          </ns3:TrackPointExtension>
        </extensions>
      </trkpt>
      <trkpt lat="45.34757447429001331329345703125" lon="-70.8114108256995677947998046875">
        <ele>704.20001220703125</ele>
        <time>2026-08-21T11:24:09.000Z</time>
        <extensions>
          <ns3:TrackPointExtension>
            <ns3:hr>110</ns3:hr>
            <ns3:cad>0</ns3:cad>
          </ns3:TrackPointExtension>
        </extensions>
      </trkpt>
      <trkpt lat="45.34756961278617382049560546875" lon="-70.8114195428788661956787109375">
        <ele>704.20001220703125</ele>
        <time>2026-08-21T11:24:10.000Z</time>
        <extensions>
          <ns3:TrackPointExtension>
            <ns3:hr>109</ns3:hr>
            <ns3:cad>0</ns3:cad>
          </ns3:TrackPointExtension>
        </extensions>
      </trkpt>
      <trkpt lat="45.34756475128233432769775390625" lon="-70.81142515875399112701416015625">
        <ele>704.20001220703125</ele>
        <time>2026-08-21T11:24:11.000Z</time>
        <extensions>
          <ns3:TrackPointExtension>
            <ns3:hr>109</ns3:hr>
            <ns3:cad>0</ns3:cad>
          </ns3:TrackPointExtension>
        </extensions>
      </trkpt>
      <trkpt lat="45.34756374545395374298095703125" lon="-70.81143069081008434295654296875">
        <ele>704</ele>
        <time>2026-08-21T11:24:12.000Z</time>
        <extensions>
          <ns3:TrackPointExtension>
            <ns3:hr>109</ns3:hr>
            <ns3:cad>0</ns3:cad>
          </ns3:TrackPointExtension>
        </extensions>
      </trkpt>
      <trkpt lat="45.34756374545395374298095703125" lon="-70.81143069081008434295654296875">
        <ele>704</ele>
        <time>2026-08-21T11:24:13.000Z</time>
        <extensions>
          <ns3:TrackPointExtension>
            <ns3:hr>110</ns3:hr>
            <ns3:cad>0</ns3:cad>
          </ns3:TrackPointExtension>
        </extensions>
      </trkpt>
      <trkpt lat="45.34756374545395374298095703125" lon="-70.81143069081008434295654296875">
        <ele>704</ele>
        <time>2026-08-21T11:24:14.000Z</time>
        <extensions>
          <ns3:TrackPointExtension>
            <ns3:hr>110</ns3:hr>
            <ns3:cad>0</ns3:cad>
          </ns3:TrackPointExtension>
        </extensions>
      </trkpt>
      <trkpt lat="45.34756273962557315826416015625" lon="-70.81143018789589405059814453125">
        <ele>704</ele>
        <time>2026-08-21T11:24:15.000Z</time>
        <extensions>
          <ns3:TrackPointExtension>
            <ns3:hr>110</ns3:hr>
            <ns3:cad>0</ns3:cad>
          </ns3:TrackPointExtension>
        </extensions>
      </trkpt>
      <trkpt lat="45.347561649978160858154296875" lon="-70.81143337301909923553466796875">
        <ele>704</ele>
        <time>2026-08-21T11:24:16.000Z</time>
        <extensions>
          <ns3:TrackPointExtension>
            <ns3:hr>110</ns3:hr>
            <ns3:cad>0</ns3:cad>
          </ns3:TrackPointExtension>
        </extensions>
      </trkpt>
      <trkpt lat="45.34755955450236797332763671875" lon="-70.8114369772374629974365234375">
        <ele>703.79998779296875</ele>
        <time>2026-08-21T11:24:17.000Z</time>
        <extensions>
          <ns3:TrackPointExtension>
            <ns3:hr>111</ns3:hr>
            <ns3:cad>0</ns3:cad>
          </ns3:TrackPointExtension>
        </extensions>
      </trkpt>
      <trkpt lat="45.3475527651607990264892578125" lon="-70.81144074909389019012451171875">
        <ele>703.79998779296875</ele>
        <time>2026-08-21T11:24:18.000Z</time>
        <extensions>
          <ns3:TrackPointExtension>
            <ns3:hr>111</ns3:hr>
            <ns3:cad>0</ns3:cad>
          </ns3:TrackPointExtension>
        </extensions>
      </trkpt>
      <trkpt lat="45.347549915313720703125" lon="-70.81144376657903194427490234375">
        <ele>703.79998779296875</ele>
        <time>2026-08-21T11:24:19.000Z</time>
        <extensions>
          <ns3:TrackPointExtension>
            <ns3:hr>111</ns3:hr>
            <ns3:cad>0</ns3:cad>
          </ns3:TrackPointExtension>
        </extensions>
      </trkpt>
      <trkpt lat="45.34754580818116664886474609375" lon="-70.8114467002451419830322265625">
        <ele>703.5999755859375</ele>
        <time>2026-08-21T11:24:20.000Z</time>
        <extensions>
          <ns3:TrackPointExtension>
            <ns3:hr>111</ns3:hr>
            <ns3:cad>0</ns3:cad>
          </ns3:TrackPointExtension>
        </extensions>
      </trkpt>
      <trkpt lat="45.34754010848701000213623046875" lon="-70.81144980154931545257568359375">
        <ele>703.5999755859375</ele>
        <time>2026-08-21T11:24:21.000Z</time>
        <extensions>
          <ns3:TrackPointExtension>
            <ns3:hr>112</ns3:hr>
            <ns3:cad>0</ns3:cad>
          </ns3:TrackPointExtension>
        </extensions>
      </trkpt>
      <trkpt lat="45.34753189422190189361572265625" lon="-70.8114540763199329376220703125">
        <ele>703.4000244140625</ele>
        <time>2026-08-21T11:24:22.000Z</time>
        <extensions>
          <ns3:TrackPointExtension>
            <ns3:hr>112</ns3:hr>
            <ns3:cad>0</ns3:cad>
          </ns3:TrackPointExtension>
        </extensions>
      </trkpt>
      <trkpt lat="45.34752376377582550048828125" lon="-70.8114560879766941070556640625">
        <ele>703.20001220703125</ele>
        <time>2026-08-21T11:24:23.000Z</time>
        <extensions>
          <ns3:TrackPointExtension>
            <ns3:hr>112</ns3:hr>
            <ns3:cad>0</ns3:cad>
          </ns3:TrackPointExtension>
        </extensions>
      </trkpt>
      <trkpt lat="45.3475168906152248382568359375" lon="-70.81145952455699443817138671875">
        <ele>703.20001220703125</ele>
        <time>2026-08-21T11:24:24.000Z</time>
        <extensions>
          <ns3:TrackPointExtension>
            <ns3:hr>112</ns3:hr>
            <ns3:cad>0</ns3:cad>
          </ns3:TrackPointExtension>
        </extensions>
      </trkpt>
      <trkpt lat="45.3475088439881801605224609375" lon="-70.81146321259438991546630859375">
        <ele>703</ele>
        <time>2026-08-21T11:24:25.000Z</time>
        <extensions>
          <ns3:TrackPointExtension>
            <ns3:hr>112</ns3:hr>
            <ns3:cad>0</ns3:cad>
          </ns3:TrackPointExtension>
        </extensions>
      </trkpt>
      <trkpt lat="45.34750138409435749053955078125" lon="-70.8114711754024028778076171875">
        <ele>703</ele>
        <time>2026-08-21T11:24:26.000Z</time>
        <extensions>
          <ns3:TrackPointExtension>
            <ns3:hr>112</ns3:hr>
            <ns3:cad>51</ns3:cad>
          </ns3:TrackPointExtension>
        </extensions>
      </trkpt>
      <trkpt lat="45.347497276961803436279296875" lon="-70.8114819042384624481201171875">
        <ele>703</ele>
        <time>2026-08-21T11:24:27.000Z</time>
        <extensions>
          <ns3:TrackPointExtension>
            <ns3:hr>112</ns3:hr>
            <ns3:cad>51</ns3:cad>
          </ns3:TrackPointExtension>
        </extensions>
      </trkpt>
      <trkpt lat="45.3475014679133892059326171875" lon="-70.8114969916641712188720703125">
        <ele>702.79998779296875</ele>
        <time>2026-08-21T11:24:28.000Z</time>
        <extensions>
          <ns3:TrackPointExtension>
            <ns3:hr>112</ns3:hr>
            <ns3:cad>51</ns3:cad>
          </ns3:TrackPointExtension>
        </extensions>
      </trkpt>
      <trkpt lat="45.34750691615045070648193359375" lon="-70.811513923108577728271484375">
        <ele>702.79998779296875</ele>
        <time>2026-08-21T11:24:29.000Z</time>
        <extensions>
          <ns3:TrackPointExtension>
            <ns3:hr>112</ns3:hr>
            <ns3:cad>51</ns3:cad>
          </ns3:TrackPointExtension>
        </extensions>
      </trkpt>
      <trkpt lat="45.3475115261971950531005859375" lon="-70.81152238883078098297119140625">
        <ele>702.5999755859375</ele>
        <time>2026-08-21T11:24:30.000Z</time>
        <extensions>
          <ns3:TrackPointExtension>
            <ns3:hr>112</ns3:hr>
            <ns3:cad>50</ns3:cad>
          </ns3:TrackPointExtension>
        </extensions>
      </trkpt>
      <trkpt lat="45.34751378931105136871337890625" lon="-70.8115281723439693450927734375">
        <ele>702.5999755859375</ele>
        <time>2026-08-21T11:24:31.000Z</time>
        <extensions>
          <ns3:TrackPointExtension>
            <ns3:hr>113</ns3:hr>
            <ns3:cad>0</ns3:cad>
          </ns3:TrackPointExtension>
        </extensions>
      </trkpt>
      <trkpt lat="45.3475172258913516998291015625" lon="-70.81153504550457000732421875">
        <ele>702.5999755859375</ele>
        <time>2026-08-21T11:24:32.000Z</time>
        <extensions>
          <ns3:TrackPointExtension>
            <ns3:hr>113</ns3:hr>
            <ns3:cad>0</ns3:cad>
          </ns3:TrackPointExtension>
        </extensions>
      </trkpt>
      <trkpt lat="45.34751705825328826904296875" lon="-70.81154854036867618560791015625">
        <ele>702.5999755859375</ele>
        <time>2026-08-21T11:24:33.000Z</time>
        <extensions>
          <ns3:TrackPointExtension>
            <ns3:hr>113</ns3:hr>
            <ns3:cad>0</ns3:cad>
          </ns3:TrackPointExtension>
        </extensions>
      </trkpt>
      <trkpt lat="45.34751814790070056915283203125" lon="-70.81156061030924320220947265625">
        <ele>702.4000244140625</ele>
        <time>2026-08-21T11:24:34.000Z</time>
        <extensions>
          <ns3:TrackPointExtension>
            <ns3:hr>113</ns3:hr>
            <ns3:cad>0</ns3:cad>
          </ns3:TrackPointExtension>
        </extensions>
      </trkpt>
      <trkpt lat="45.34751932136714458465576171875" lon="-70.8115690760314464569091796875">
        <ele>702.4000244140625</ele>
        <time>2026-08-21T11:24:35.000Z</time>
        <extensions>
          <ns3:TrackPointExtension>
            <ns3:hr>113</ns3:hr>
            <ns3:cad>50</ns3:cad>
          </ns3:TrackPointExtension>
        </extensions>
      </trkpt>
      <trkpt lat="45.34751915372908115386962890625" lon="-70.8115771226584911346435546875">
        <ele>702.4000244140625</ele>
        <time>2026-08-21T11:24:36.000Z</time>
        <extensions>
          <ns3:TrackPointExtension>
            <ns3:hr>112</ns3:hr>
            <ns3:cad>50</ns3:cad>
          </ns3:TrackPointExtension>
        </extensions>
      </trkpt>
      <trkpt lat="45.34751865081489086151123046875" lon="-70.81158357672393321990966796875">
        <ele>702.20001220703125</ele>
        <time>2026-08-21T11:24:37.000Z</time>
        <extensions>
          <ns3:TrackPointExtension>
            <ns3:hr>112</ns3:hr>
            <ns3:cad>50</ns3:cad>
          </ns3:TrackPointExtension>
        </extensions>
      </trkpt>
      <trkpt lat="45.34751580096781253814697265625" lon="-70.81158793531358242034912109375">
        <ele>702</ele>
        <time>2026-08-21T11:24:38.000Z</time>
        <extensions>
          <ns3:TrackPointExtension>
            <ns3:hr>112</ns3:hr>
            <ns3:cad>50</ns3:cad>
          </ns3:TrackPointExtension>
        </extensions>
      </trkpt>
      <trkpt lat="45.34750892780721187591552734375" lon="-70.8115901984274387359619140625">
        <ele>701.79998779296875</ele>
        <time>2026-08-21T11:24:39.000Z</time>
        <extensions>
          <ns3:TrackPointExtension>
            <ns3:hr>113</ns3:hr>
            <ns3:cad>50</ns3:cad>
          </ns3:TrackPointExtension>
        </extensions>
      </trkpt>
      <trkpt lat="45.34749568440020084381103515625" lon="-70.81159271299839019775390625">
        <ele>701.5999755859375</ele>
        <time>2026-08-21T11:24:40.000Z</time>
        <extensions>
          <ns3:TrackPointExtension>
            <ns3:hr>113</ns3:hr>
            <ns3:cad>53</ns3:cad>
          </ns3:TrackPointExtension>
        </extensions>
      </trkpt>
      <trkpt lat="45.3474863804876804351806640625" lon="-70.81159179098904132843017578125">
        <ele>701.4000244140625</ele>
        <time>2026-08-21T11:24:41.000Z</time>
        <extensions>
          <ns3:TrackPointExtension>
            <ns3:hr>113</ns3:hr>
            <ns3:cad>53</ns3:cad>
          </ns3:TrackPointExtension>
        </extensions>
      </trkpt>
      <trkpt lat="45.347477830946445465087890625" lon="-70.81159162335097789764404296875">
        <ele>701.4000244140625</ele>
        <time>2026-08-21T11:24:42.000Z</time>
        <extensions>
          <ns3:TrackPointExtension>
            <ns3:hr>113</ns3:hr>
            <ns3:cad>52</ns3:cad>
          </ns3:TrackPointExtension>
        </extensions>
      </trkpt>
      <trkpt lat="45.34746869467198848724365234375" lon="-70.81159195862710475921630859375">
        <ele>701.20001220703125</ele>
        <time>2026-08-21T11:24:43.000Z</time>
        <extensions>
          <ns3:TrackPointExtension>
            <ns3:hr>113</ns3:hr>
            <ns3:cad>51</ns3:cad>
          </ns3:TrackPointExtension>
        </extensions>
      </trkpt>
      <trkpt lat="45.34745997749269008636474609375" lon="-70.8115925453603267669677734375">
        <ele>701.20001220703125</ele>
        <time>2026-08-21T11:24:44.000Z</time>
        <extensions>
          <ns3:TrackPointExtension>
            <ns3:hr>113</ns3:hr>
            <ns3:cad>51</ns3:cad>
          </ns3:TrackPointExtension>
        </extensions>
      </trkpt>
      <trkpt lat="45.34745411016047000885009765625" lon="-70.8115922100841999053955078125">
        <ele>701.20001220703125</ele>
        <time>2026-08-21T11:24:45.000Z</time>
        <extensions>
          <ns3:TrackPointExtension>
            <ns3:hr>114</ns3:hr>
            <ns3:cad>51</ns3:cad>
          </ns3:TrackPointExtension>
        </extensions>
      </trkpt>
      <trkpt lat="45.3474508412182331085205078125" lon="-70.8115905337035655975341796875">
        <ele>701</ele>
        <time>2026-08-21T11:24:46.000Z</time>
        <extensions>
          <ns3:TrackPointExtension>
            <ns3:hr>113</ns3:hr>
            <ns3:cad>51</ns3:cad>
          </ns3:TrackPointExtension>
        </extensions>
      </trkpt>
      <trkpt lat="45.347448326647281646728515625" lon="-70.81159003078937530517578125">
        <ele>701</ele>
        <time>2026-08-21T11:24:47.000Z</time>
        <extensions>
          <ns3:TrackPointExtension>
            <ns3:hr>113</ns3:hr>
            <ns3:cad>0</ns3:cad>
          </ns3:TrackPointExtension>
        </extensions>
      </trkpt>
      <trkpt lat="45.34744606353342533111572265625" lon="-70.81158894114196300506591796875">
        <ele>701</ele>
        <time>2026-08-21T11:24:48.000Z</time>
        <extensions>
          <ns3:TrackPointExtension>
            <ns3:hr>112</ns3:hr>
            <ns3:cad>0</ns3:cad>
          </ns3:TrackPointExtension>
        </extensions>
      </trkpt>
      <trkpt lat="45.34744321368634700775146484375" lon="-70.8115881867706775665283203125">
        <ele>700.79998779296875</ele>
        <time>2026-08-21T11:24:49.000Z</time>
        <extensions>
          <ns3:TrackPointExtension>
            <ns3:hr>111</ns3:hr>
            <ns3:cad>0</ns3:cad>
          </ns3:TrackPointExtension>
        </extensions>
      </trkpt>
      <trkpt lat="45.3474421240389347076416015625" lon="-70.8115878514945507049560546875">
        <ele>700.79998779296875</ele>
        <time>2026-08-21T11:24:50.000Z</time>
        <extensions>
          <ns3:TrackPointExtension>
            <ns3:hr>111</ns3:hr>
            <ns3:cad>0</ns3:cad>
          </ns3:TrackPointExtension>
        </extensions>
      </trkpt>
      <trkpt lat="45.34744195640087127685546875" lon="-70.8115881867706775665283203125">
        <ele>700.79998779296875</ele>
        <time>2026-08-21T11:24:51.000Z</time>
        <extensions>
          <ns3:TrackPointExtension>
            <ns3:hr>110</ns3:hr>
            <ns3:cad>0</ns3:cad>
          </ns3:TrackPointExtension>
        </extensions>
      </trkpt>
      <trkpt lat="45.34744195640087127685546875" lon="-70.8115881867706775665283203125">
        <ele>700.79998779296875</ele>
        <time>2026-08-21T11:24:52.000Z</time>
        <extensions>
          <ns3:TrackPointExtension>
            <ns3:hr>110</ns3:hr>
            <ns3:cad>0</ns3:cad>
          </ns3:TrackPointExtension>
        </extensions>
      </trkpt>
      <trkpt lat="45.34744195640087127685546875" lon="-70.8115881867706775665283203125">
        <ele>700.79998779296875</ele>
        <time>2026-08-21T11:24:53.000Z</time>
        <extensions>
          <ns3:TrackPointExtension>
            <ns3:hr>110</ns3:hr>
            <ns3:cad>0</ns3:cad>
          </ns3:TrackPointExtension>
        </extensions>
      </trkpt>
      <trkpt lat="45.34744195640087127685546875" lon="-70.8115881867706775665283203125">
        <ele>700.79998779296875</ele>
        <time>2026-08-21T11:24:54.000Z</time>
        <extensions>
          <ns3:TrackPointExtension>
            <ns3:hr>109</ns3:hr>
            <ns3:cad>0</ns3:cad>
          </ns3:TrackPointExtension>
        </extensions>
      </trkpt>
      <trkpt lat="45.34744195640087127685546875" lon="-70.8115881867706775665283203125">
        <ele>700.79998779296875</ele>
        <time>2026-08-21T11:24:55.000Z</time>
        <extensions>
          <ns3:TrackPointExtension>
            <ns3:hr>109</ns3:hr>
            <ns3:cad>0</ns3:cad>
          </ns3:TrackPointExtension>
        </extensions>
      </trkpt>
      <trkpt lat="45.34744195640087127685546875" lon="-70.8115881867706775665283203125">
        <ele>700.79998779296875</ele>
        <time>2026-08-21T11:24:56.000Z</time>
        <extensions>
          <ns3:TrackPointExtension>
            <ns3:hr>109</ns3:hr>
            <ns3:cad>0</ns3:cad>
          </ns3:TrackPointExtension>
        </extensions>
      </trkpt>
      <trkpt lat="45.34744195640087127685546875" lon="-70.8115881867706775665283203125">
        <ele>700.79998779296875</ele>
        <time>2026-08-21T11:24:57.000Z</time>
        <extensions>
          <ns3:TrackPointExtension>
            <ns3:hr>108</ns3:hr>
            <ns3:cad>0</ns3:cad>
          </ns3:TrackPointExtension>
        </extensions>
      </trkpt>
      <trkpt lat="45.34744136966764926910400390625" lon="-70.81158709712326526641845703125">
        <ele>700.79998779296875</ele>
        <time>2026-08-21T11:24:58.000Z</time>
        <extensions>
          <ns3:TrackPointExtension>
            <ns3:hr>108</ns3:hr>
            <ns3:cad>0</ns3:cad>
          </ns3:TrackPointExtension>
        </extensions>
      </trkpt>
      <trkpt lat="45.3474364243447780609130859375" lon="-70.8115858398377895355224609375">
        <ele>700.5999755859375</ele>
        <time>2026-08-21T11:24:59.000Z</time>
        <extensions>
          <ns3:TrackPointExtension>
            <ns3:hr>108</ns3:hr>
            <ns3:cad>0</ns3:cad>
          </ns3:TrackPointExtension>
        </extensions>
      </trkpt>
      <trkpt lat="45.34742452204227447509765625" lon="-70.81158659420907497406005859375">
        <ele>700.5999755859375</ele>
        <time>2026-08-21T11:25:00.000Z</time>
        <extensions>
          <ns3:TrackPointExtension>
            <ns3:hr>107</ns3:hr>
            <ns3:cad>0</ns3:cad>
          </ns3:TrackPointExtension>
        </extensions>
      </trkpt>
      <trkpt lat="45.34741622395813465118408203125" lon="-70.81159497611224651336669921875">
        <ele>700.4000244140625</ele>
        <time>2026-08-21T11:25:01.000Z</time>
        <extensions>
          <ns3:TrackPointExtension>
            <ns3:hr>107</ns3:hr>
            <ns3:cad>0</ns3:cad>
          </ns3:TrackPointExtension>
        </extensions>
      </trkpt>
      <trkpt lat="45.3474079258739948272705078125" lon="-70.81159765832126140594482421875">
        <ele>700</ele>
        <time>2026-08-21T11:25:02.000Z</time>
        <extensions>
          <ns3:TrackPointExtension>
            <ns3:hr>107</ns3:hr>
            <ns3:cad>0</ns3:cad>
          </ns3:TrackPointExtension>
        </extensions>
      </trkpt>
      <trkpt lat="45.34739593975245952606201171875" lon="-70.8116026036441326141357421875">
        <ele>699.79998779296875</ele>
        <time>2026-08-21T11:25:03.000Z</time>
        <extensions>
          <ns3:TrackPointExtension>
            <ns3:hr>107</ns3:hr>
            <ns3:cad>0</ns3:cad>
          </ns3:TrackPointExtension>
        </extensions>
      </trkpt>
      <trkpt lat="45.34738169051706790924072265625" lon="-70.81160335801541805267333984375">
        <ele>699.4000244140625</ele>
        <time>2026-08-21T11:25:04.000Z</time>
        <extensions>
          <ns3:TrackPointExtension>
            <ns3:hr>107</ns3:hr>
            <ns3:cad>0</ns3:cad>
          </ns3:TrackPointExtension>
        </extensions>
      </trkpt>
      <trkpt lat="45.3473660163581371307373046875" lon="-70.81160251982510089874267578125">
        <ele>699.20001220703125</ele>
        <time>2026-08-21T11:25:05.000Z</time>
        <extensions>
          <ns3:TrackPointExtension>
            <ns3:hr>107</ns3:hr>
            <ns3:cad>0</ns3:cad>
          </ns3:TrackPointExtension>
        </extensions>
      </trkpt>
      <trkpt lat="45.34735143184661865234375" lon="-70.8116052858531475067138671875">
        <ele>699</ele>
        <time>2026-08-21T11:25:06.000Z</time>
        <extensions>
          <ns3:TrackPointExtension>
            <ns3:hr>107</ns3:hr>
            <ns3:cad>55</ns3:cad>
          </ns3:TrackPointExtension>
        </extensions>
      </trkpt>
      <trkpt lat="45.347337014973163604736328125" lon="-70.811608135700225830078125">
        <ele>698.79998779296875</ele>
        <time>2026-08-21T11:25:07.000Z</time>
        <extensions>
          <ns3:TrackPointExtension>
            <ns3:hr>106</ns3:hr>
            <ns3:cad>55</ns3:cad>
          </ns3:TrackPointExtension>
        </extensions>
      </trkpt>
      <trkpt lat="45.3473237715661525726318359375" lon="-70.81161358393728733062744140625">
        <ele>698.5999755859375</ele>
        <time>2026-08-21T11:25:08.000Z</time>
        <extensions>
          <ns3:TrackPointExtension>
            <ns3:hr>106</ns3:hr>
            <ns3:cad>55</ns3:cad>
          </ns3:TrackPointExtension>
        </extensions>
      </trkpt>
      <trkpt lat="45.34731061197817325592041015625" lon="-70.81162196584045886993408203125">
        <ele>698.4000244140625</ele>
        <time>2026-08-21T11:25:09.000Z</time>
        <extensions>
          <ns3:TrackPointExtension>
            <ns3:hr>106</ns3:hr>
            <ns3:cad>0</ns3:cad>
          </ns3:TrackPointExtension>
        </extensions>
      </trkpt>
      <trkpt lat="45.347292423248291015625" lon="-70.8116304315626621246337890625">
        <ele>698</ele>
        <time>2026-08-21T11:25:10.000Z</time>
        <extensions>
          <ns3:TrackPointExtension>
            <ns3:hr>106</ns3:hr>
            <ns3:cad>0</ns3:cad>
          </ns3:TrackPointExtension>
        </extensions>
      </trkpt>
      <trkpt lat="45.34727389924228191375732421875" lon="-70.81163428723812103271484375">
        <ele>697.79998779296875</ele>
        <time>2026-08-21T11:25:11.000Z</time>
        <extensions>
          <ns3:TrackPointExtension>
            <ns3:hr>106</ns3:hr>
            <ns3:cad>75</ns3:cad>
          </ns3:TrackPointExtension>
        </extensions>
      </trkpt>
      <trkpt lat="45.34725629724562168121337890625" lon="-70.81163738854229450225830078125">
        <ele>697.5999755859375</ele>
        <time>2026-08-21T11:25:12.000Z</time>
        <extensions>
          <ns3:TrackPointExtension>
            <ns3:hr>106</ns3:hr>
            <ns3:cad>75</ns3:cad>
          </ns3:TrackPointExtension>
        </extensions>
      </trkpt>
      <trkpt lat="45.3472389467060565948486328125" lon="-70.81164635717868804931640625">
        <ele>697.4000244140625</ele>
        <time>2026-08-21T11:25:13.000Z</time>
        <extensions>
          <ns3:TrackPointExtension>
            <ns3:hr>106</ns3:hr>
            <ns3:cad>75</ns3:cad>
          </ns3:TrackPointExtension>
        </extensions>
      </trkpt>
      <trkpt lat="45.34722897224128246307373046875" lon="-70.8116629533469676971435546875">
        <ele>697.5999755859375</ele>
        <time>2026-08-21T11:25:14.000Z</time>
        <extensions>
          <ns3:TrackPointExtension>
            <ns3:hr>106</ns3:hr>
            <ns3:cad>75</ns3:cad>
          </ns3:TrackPointExtension>
        </extensions>
      </trkpt>
      <trkpt lat="45.34722813405096530914306640625" lon="-70.81168818287551403045654296875">
        <ele>697.5999755859375</ele>
        <time>2026-08-21T11:25:15.000Z</time>
        <extensions>
          <ns3:TrackPointExtension>
            <ns3:hr>107</ns3:hr>
            <ns3:cad>75</ns3:cad>
          </ns3:TrackPointExtension>
        </extensions>
      </trkpt>
      <trkpt lat="45.34722805023193359375" lon="-70.81171383149921894073486328125">
        <ele>697.5999755859375</ele>
        <time>2026-08-21T11:25:16.000Z</time>
        <extensions>
          <ns3:TrackPointExtension>
            <ns3:hr>107</ns3:hr>
            <ns3:cad>75</ns3:cad>
          </ns3:TrackPointExtension>
        </extensions>
      </trkpt>
      <trkpt lat="45.34723274409770965576171875" lon="-70.81173889338970184326171875">
        <ele>697.5999755859375</ele>
        <time>2026-08-21T11:25:17.000Z</time>
        <extensions>
          <ns3:TrackPointExtension>
            <ns3:hr>107</ns3:hr>
            <ns3:cad>75</ns3:cad>
          </ns3:TrackPointExtension>
        </extensions>
      </trkpt>
      <trkpt lat="45.34724221564829349517822265625" lon="-70.81175456754863262176513671875">
        <ele>697.5999755859375</ele>
        <time>2026-08-21T11:25:18.000Z</time>
        <extensions>
          <ns3:TrackPointExtension>
            <ns3:hr>107</ns3:hr>
            <ns3:cad>75</ns3:cad>
          </ns3:TrackPointExtension>
        </extensions>
      </trkpt>
      <trkpt lat="45.34725830890238285064697265625" lon="-70.8117668889462947845458984375">
        <ele>697.4000244140625</ele>
        <time>2026-08-21T11:25:19.000Z</time>
        <extensions>
          <ns3:TrackPointExtension>
            <ns3:hr>108</ns3:hr>
            <ns3:cad>75</ns3:cad>
          </ns3:TrackPointExtension>
        </extensions>
      </trkpt>
      <trkpt lat="45.34727557562291622161865234375" lon="-70.81177015788853168487548828125">
        <ele>697.4000244140625</ele>
        <time>2026-08-21T11:25:20.000Z</time>
        <extensions>
          <ns3:TrackPointExtension>
            <ns3:hr>108</ns3:hr>
            <ns3:cad>52</ns3:cad>
          </ns3:TrackPointExtension>
        </extensions>
      </trkpt>
      <trkpt lat="45.347280018031597137451171875" lon="-70.81177753396332263946533203125">
        <ele>697.4000244140625</ele>
        <time>2026-08-21T11:25:21.000Z</time>
        <extensions>
          <ns3:TrackPointExtension>
            <ns3:hr>108</ns3:hr>
            <ns3:cad>52</ns3:cad>
          </ns3:TrackPointExtension>
        </extensions>
      </trkpt>
      <trkpt lat="45.34728144295513629913330078125" lon="-70.81178692169487476348876953125">
        <ele>697.4000244140625</ele>
        <time>2026-08-21T11:25:22.000Z</time>
        <extensions>
          <ns3:TrackPointExtension>
            <ns3:hr>108</ns3:hr>
            <ns3:cad>52</ns3:cad>
          </ns3:TrackPointExtension>
        </extensions>
      </trkpt>
      <trkpt lat="45.34728697501122951507568359375" lon="-70.81179865635931491851806640625">
        <ele>697.4000244140625</ele>
        <time>2026-08-21T11:25:23.000Z</time>
        <extensions>
          <ns3:TrackPointExtension>
            <ns3:hr>108</ns3:hr>
            <ns3:cad>52</ns3:cad>
          </ns3:TrackPointExtension>
        </extensions>
      </trkpt>
      <trkpt lat="45.3472882322967052459716796875" lon="-70.81181089393794536590576171875">
        <ele>697.4000244140625</ele>
        <time>2026-08-21T11:25:24.000Z</time>
        <extensions>
          <ns3:TrackPointExtension>
            <ns3:hr>109</ns3:hr>
            <ns3:cad>52</ns3:cad>
          </ns3:TrackPointExtension>
        </extensions>
      </trkpt>
      <trkpt lat="45.34729183651506900787353515625" lon="-70.811823718249797821044921875">
        <ele>697.4000244140625</ele>
        <time>2026-08-21T11:25:25.000Z</time>
        <extensions>
          <ns3:TrackPointExtension>
            <ns3:hr>109</ns3:hr>
            <ns3:cad>0</ns3:cad>
          </ns3:TrackPointExtension>
        </extensions>
      </trkpt>
      <trkpt lat="45.34730248153209686279296875" lon="-70.81183704547584056854248046875">
        <ele>697.4000244140625</ele>
        <time>2026-08-21T11:25:26.000Z</time>
        <extensions>
          <ns3:TrackPointExtension>
            <ns3:hr>109</ns3:hr>
            <ns3:cad>0</ns3:cad>
          </ns3:TrackPointExtension>
        </extensions>
      </trkpt>
      <trkpt lat="45.3473247773945331573486328125" lon="-70.811847858130931854248046875">
        <ele>697.4000244140625</ele>
        <time>2026-08-21T11:25:27.000Z</time>
        <extensions>
          <ns3:TrackPointExtension>
            <ns3:hr>110</ns3:hr>
            <ns3:cad>0</ns3:cad>
          </ns3:TrackPointExtension>
        </extensions>
      </trkpt>
      <trkpt lat="45.347338020801544189453125" lon="-70.81185213290154933929443359375">
        <ele>697.4000244140625</ele>
        <time>2026-08-21T11:25:28.000Z</time>
        <extensions>
          <ns3:TrackPointExtension>
            <ns3:hr>111</ns3:hr>
            <ns3:cad>0</ns3:cad>
          </ns3:TrackPointExtension>
        </extensions>
      </trkpt>
      <trkpt lat="45.3473500907421112060546875" lon="-70.81184810958802700042724609375">
        <ele>697.4000244140625</ele>
        <time>2026-08-21T11:25:29.000Z</time>
        <extensions>
          <ns3:TrackPointExtension>
            <ns3:hr>111</ns3:hr>
            <ns3:cad>0</ns3:cad>
          </ns3:TrackPointExtension>
        </extensions>
      </trkpt>
      <trkpt lat="45.3473690338432788848876953125" lon="-70.81184341572225093841552734375">
        <ele>697.5999755859375</ele>
        <time>2026-08-21T11:25:30.000Z</time>
        <extensions>
          <ns3:TrackPointExtension>
            <ns3:hr>112</ns3:hr>
            <ns3:cad>59</ns3:cad>
          </ns3:TrackPointExtension>
        </extensions>
      </trkpt>
      <trkpt lat="45.34738303162157535552978515625" lon="-70.81183738075196743011474609375">
        <ele>697.5999755859375</ele>
        <time>2026-08-21T11:25:31.000Z</time>
        <extensions>
          <ns3:TrackPointExtension>
            <ns3:hr>113</ns3:hr>
            <ns3:cad>59</ns3:cad>
          </ns3:TrackPointExtension>
        </extensions>
      </trkpt>
      <trkpt lat="45.3473958559334278106689453125" lon="-70.81183411180973052978515625">
        <ele>697.79998779296875</ele>
        <time>2026-08-21T11:25:32.000Z</time>
        <extensions>
          <ns3:TrackPointExtension>
            <ns3:hr>113</ns3:hr>
            <ns3:cad>59</ns3:cad>
          </ns3:TrackPointExtension>
        </extensions>
      </trkpt>
      <trkpt lat="45.347412116825580596923828125" lon="-70.81182866357266902923583984375">
        <ele>697.79998779296875</ele>
        <time>2026-08-21T11:25:33.000Z</time>
        <extensions>
          <ns3:TrackPointExtension>
            <ns3:hr>114</ns3:hr>
            <ns3:cad>59</ns3:cad>
          </ns3:TrackPointExtension>
        </extensions>
      </trkpt>
      <trkpt lat="45.34742410294711589813232421875" lon="-70.81182816065847873687744140625">
        <ele>698</ele>
        <time>2026-08-21T11:25:34.000Z</time>
        <extensions>
          <ns3:TrackPointExtension>
            <ns3:hr>114</ns3:hr>
            <ns3:cad>59</ns3:cad>
          </ns3:TrackPointExtension>
        </extensions>
      </trkpt>
      <trkpt lat="45.3474340774118900299072265625" lon="-70.8118383027613162994384765625">
        <ele>698.20001220703125</ele>
        <time>2026-08-21T11:25:35.000Z</time>
        <extensions>
          <ns3:TrackPointExtension>
            <ns3:hr>114</ns3:hr>
            <ns3:cad>59</ns3:cad>
          </ns3:TrackPointExtension>
        </extensions>
      </trkpt>
      <trkpt lat="45.34744195640087127685546875" lon="-70.81184878014028072357177734375">
        <ele>698.4000244140625</ele>
        <time>2026-08-21T11:25:36.000Z</time>
        <extensions>
          <ns3:TrackPointExtension>
            <ns3:hr>115</ns3:hr>
            <ns3:cad>59</ns3:cad>
          </ns3:TrackPointExtension>
        </extensions>
      </trkpt>
      <trkpt lat="45.3474538587033748626708984375" lon="-70.81185397692024707794189453125">
        <ele>698.4000244140625</ele>
        <time>2026-08-21T11:25:37.000Z</time>
        <extensions>
          <ns3:TrackPointExtension>
            <ns3:hr>115</ns3:hr>
            <ns3:cad>59</ns3:cad>
          </ns3:TrackPointExtension>
        </extensions>
      </trkpt>
      <trkpt lat="45.3474627435207366943359375" lon="-70.81185556948184967041015625">
        <ele>698.4000244140625</ele>
        <time>2026-08-21T11:25:38.000Z</time>
        <extensions>
          <ns3:TrackPointExtension>
            <ns3:hr>115</ns3:hr>
            <ns3:cad>0</ns3:cad>
          </ns3:TrackPointExtension>
        </extensions>
      </trkpt>
      <trkpt lat="45.34747305326163768768310546875" lon="-70.8118580840528011322021484375">
        <ele>698.4000244140625</ele>
        <time>2026-08-21T11:25:39.000Z</time>
        <extensions>
          <ns3:TrackPointExtension>
            <ns3:hr>116</ns3:hr>
            <ns3:cad>0</ns3:cad>
          </ns3:TrackPointExtension>
        </extensions>
      </trkpt>
      <trkpt lat="45.34748495556414127349853515625" lon="-70.81184945069253444671630859375">
        <ele>698.20001220703125</ele>
        <time>2026-08-21T11:25:40.000Z</time>
        <extensions>
          <ns3:TrackPointExtension>
            <ns3:hr>117</ns3:hr>
            <ns3:cad>0</ns3:cad>
          </ns3:TrackPointExtension>
        </extensions>
      </trkpt>
      <trkpt lat="45.347497276961803436279296875" lon="-70.81184743903577327728271484375">
        <ele>698.20001220703125</ele>
        <time>2026-08-21T11:25:41.000Z</time>
        <extensions>
          <ns3:TrackPointExtension>
            <ns3:hr>118</ns3:hr>
            <ns3:cad>0</ns3:cad>
          </ns3:TrackPointExtension>
        </extensions>
      </trkpt>
      <trkpt lat="45.347508676350116729736328125" lon="-70.81184978596866130828857421875">
        <ele>698</ele>
        <time>2026-08-21T11:25:42.000Z</time>
        <extensions>
          <ns3:TrackPointExtension>
            <ns3:hr>118</ns3:hr>
            <ns3:cad>0</ns3:cad>
          </ns3:TrackPointExtension>
        </extensions>
      </trkpt>
      <trkpt lat="45.34752384759485721588134765625" lon="-70.811851881444454193115234375">
        <ele>698</ele>
        <time>2026-08-21T11:25:43.000Z</time>
        <extensions>
          <ns3:TrackPointExtension>
            <ns3:hr>119</ns3:hr>
            <ns3:cad>0</ns3:cad>
          </ns3:TrackPointExtension>
        </extensions>
      </trkpt>
      <trkpt lat="45.34753927029669284820556640625" lon="-70.81185414455831050872802734375">
        <ele>697.79998779296875</ele>
        <time>2026-08-21T11:25:44.000Z</time>
        <extensions>
          <ns3:TrackPointExtension>
            <ns3:hr>119</ns3:hr>
            <ns3:cad>41</ns3:cad>
          </ns3:TrackPointExtension>
        </extensions>
      </trkpt>
      <trkpt lat="45.3475547768175601959228515625" lon="-70.81185749731957912445068359375">
        <ele>697.79998779296875</ele>
        <time>2026-08-21T11:25:45.000Z</time>
        <extensions>
          <ns3:TrackPointExtension>
            <ns3:hr>120</ns3:hr>
            <ns3:cad>41</ns3:cad>
          </ns3:TrackPointExtension>
        </extensions>
      </trkpt>
      <trkpt lat="45.3475611470639705657958984375" lon="-70.81186889670789241790771484375">
        <ele>697.79998779296875</ele>
        <time>2026-08-21T11:25:46.000Z</time>
        <extensions>
          <ns3:TrackPointExtension>
            <ns3:hr>120</ns3:hr>
            <ns3:cad>41</ns3:cad>
          </ns3:TrackPointExtension>
        </extensions>
      </trkpt>
      <trkpt lat="45.3475621528923511505126953125" lon="-70.81188498996198177337646484375">
        <ele>697.79998779296875</ele>
        <time>2026-08-21T11:25:47.000Z</time>
        <extensions>
          <ns3:TrackPointExtension>
            <ns3:hr>119</ns3:hr>
            <ns3:cad>41</ns3:cad>
          </ns3:TrackPointExtension>
        </extensions>
      </trkpt>
      <trkpt lat="45.34755729138851165771484375" lon="-70.811892785131931304931640625">
        <ele>697.79998779296875</ele>
        <time>2026-08-21T11:25:48.000Z</time>
        <extensions>
          <ns3:TrackPointExtension>
            <ns3:hr>119</ns3:hr>
            <ns3:cad>41</ns3:cad>
          </ns3:TrackPointExtension>
        </extensions>
      </trkpt>
      <trkpt lat="45.34754790365695953369140625" lon="-70.811900161206722259521484375">
        <ele>697.79998779296875</ele>
        <time>2026-08-21T11:25:49.000Z</time>
        <extensions>
          <ns3:TrackPointExtension>
            <ns3:hr>119</ns3:hr>
            <ns3:cad>41</ns3:cad>
          </ns3:TrackPointExtension>
        </extensions>
      </trkpt>
      <trkpt lat="45.347542874515056610107421875" lon="-70.81190292723476886749267578125">
        <ele>697.79998779296875</ele>
        <time>2026-08-21T11:25:50.000Z</time>
        <extensions>
          <ns3:TrackPointExtension>
            <ns3:hr>120</ns3:hr>
            <ns3:cad>41</ns3:cad>
          </ns3:TrackPointExtension>
        </extensions>
      </trkpt>
      <trkpt lat="45.34753642044961452484130859375" lon="-70.81190594471991062164306640625">
        <ele>697.79998779296875</ele>
        <time>2026-08-21T11:25:51.000Z</time>
        <extensions>
          <ns3:TrackPointExtension>
            <ns3:hr>120</ns3:hr>
            <ns3:cad>41</ns3:cad>
          </ns3:TrackPointExtension>
        </extensions>
      </trkpt>
      <trkpt lat="45.3475282900035381317138671875" lon="-70.81191147677600383758544921875">
        <ele>697.79998779296875</ele>
        <time>2026-08-21T11:25:52.000Z</time>
        <extensions>
          <ns3:TrackPointExtension>
            <ns3:hr>120</ns3:hr>
            <ns3:cad>41</ns3:cad>
          </ns3:TrackPointExtension>
        </extensions>
      </trkpt>
      <trkpt lat="45.3475182317197322845458984375" lon="-70.81192270852625370025634765625">
        <ele>697.79998779296875</ele>
        <time>2026-08-21T11:25:53.000Z</time>
        <extensions>
          <ns3:TrackPointExtension>
            <ns3:hr>120</ns3:hr>
            <ns3:cad>41</ns3:cad>
          </ns3:TrackPointExtension>
        </extensions>
      </trkpt>
      <trkpt lat="45.3475138731300830841064453125" lon="-70.81193410791456699371337890625">
        <ele>697.79998779296875</ele>
        <time>2026-08-21T11:25:54.000Z</time>
        <extensions>
          <ns3:TrackPointExtension>
            <ns3:hr>120</ns3:hr>
            <ns3:cad>62</ns3:cad>
          </ns3:TrackPointExtension>
        </extensions>
      </trkpt>
      <trkpt lat="45.347509346902370452880859375" lon="-70.8119445852935314178466796875">
        <ele>697.79998779296875</ele>
        <time>2026-08-21T11:25:55.000Z</time>
        <extensions>
          <ns3:TrackPointExtension>
            <ns3:hr>120</ns3:hr>
            <ns3:cad>62</ns3:cad>
          </ns3:TrackPointExtension>
        </extensions>
      </trkpt>
      <trkpt lat="45.34750138409435749053955078125" lon="-70.81196285784244537353515625">
        <ele>698</ele>
        <time>2026-08-21T11:25:56.000Z</time>
        <extensions>
          <ns3:TrackPointExtension>
            <ns3:hr>121</ns3:hr>
            <ns3:cad>0</ns3:cad>
          </ns3:TrackPointExtension>
        </extensions>
      </trkpt>
      <trkpt lat="45.34749501384794712066650390625" lon="-70.81197517924010753631591796875">
        <ele>698</ele>
        <time>2026-08-21T11:25:57.000Z</time>
        <extensions>
          <ns3:TrackPointExtension>
            <ns3:hr>121</ns3:hr>
            <ns3:cad>0</ns3:cad>
          </ns3:TrackPointExtension>
        </extensions>
      </trkpt>
      <trkpt lat="45.3474873863160610198974609375" lon="-70.81199311651289463043212890625">
        <ele>698</ele>
        <time>2026-08-21T11:25:58.000Z</time>
        <extensions>
          <ns3:TrackPointExtension>
            <ns3:hr>122</ns3:hr>
            <ns3:cad>0</ns3:cad>
          </ns3:TrackPointExtension>
        </extensions>
      </trkpt>
      <trkpt lat="45.3474815189838409423828125" lon="-70.812005437910556793212890625">
        <ele>698</ele>
        <time>2026-08-21T11:25:59.000Z</time>
        <extensions>
          <ns3:TrackPointExtension>
            <ns3:hr>123</ns3:hr>
            <ns3:cad>0</ns3:cad>
          </ns3:TrackPointExtension>
        </extensions>
      </trkpt>
      <trkpt lat="45.3474806807935237884521484375" lon="-70.8120290748775005340576171875">
        <ele>698</ele>
        <time>2026-08-21T11:26:00.000Z</time>
        <extensions>
          <ns3:TrackPointExtension>
            <ns3:hr>123</ns3:hr>
            <ns3:cad>0</ns3:cad>
          </ns3:TrackPointExtension>
        </extensions>
      </trkpt>
      <trkpt lat="45.3474749810993671417236328125" lon="-70.81203393638134002685546875">
        <ele>698</ele>
        <time>2026-08-21T11:26:01.000Z</time>
        <extensions>
          <ns3:TrackPointExtension>
            <ns3:hr>124</ns3:hr>
            <ns3:cad>0</ns3:cad>
          </ns3:TrackPointExtension>
        </extensions>
      </trkpt>
      <trkpt lat="45.347459055483341217041015625" lon="-70.8120468445122241973876953125">
        <ele>698.20001220703125</ele>
        <time>2026-08-21T11:26:02.000Z</time>
        <extensions>
          <ns3:TrackPointExtension>
            <ns3:hr>123</ns3:hr>
            <ns3:cad>0</ns3:cad>
          </ns3:TrackPointExtension>
        </extensions>
      </trkpt>
      <trkpt lat="45.34744371660053730010986328125" lon="-70.81205447204411029815673828125">
        <ele>698.20001220703125</ele>
        <time>2026-08-21T11:26:03.000Z</time>
        <extensions>
          <ns3:TrackPointExtension>
            <ns3:hr>123</ns3:hr>
            <ns3:cad>0</ns3:cad>
          </ns3:TrackPointExtension>
        </extensions>
      </trkpt>
      <trkpt lat="45.34743768163025379180908203125" lon="-70.81207257695496082305908203125">
        <ele>698</ele>
        <time>2026-08-21T11:26:04.000Z</time>
        <extensions>
          <ns3:TrackPointExtension>
            <ns3:hr>123</ns3:hr>
            <ns3:cad>0</ns3:cad>
          </ns3:TrackPointExtension>
        </extensions>
      </trkpt>
      <trkpt lat="45.34742879681289196014404296875" lon="-70.8120874129235744476318359375">
        <ele>698</ele>
        <time>2026-08-21T11:26:05.000Z</time>
        <extensions>
          <ns3:TrackPointExtension>
            <ns3:hr>122</ns3:hr>
            <ns3:cad>0</ns3:cad>
          </ns3:TrackPointExtension>
        </extensions>
      </trkpt>
      <trkpt lat="45.3474176488816738128662109375" lon="-70.81209990195930004119873046875">
        <ele>698</ele>
        <time>2026-08-21T11:26:06.000Z</time>
        <extensions>
          <ns3:TrackPointExtension>
            <ns3:hr>122</ns3:hr>
            <ns3:cad>0</ns3:cad>
          </ns3:TrackPointExtension>
        </extensions>
      </trkpt>
      <trkpt lat="45.3474032320082187652587890625" lon="-70.81211247481405735015869140625">
        <ele>697.79998779296875</ele>
        <time>2026-08-21T11:26:07.000Z</time>
        <extensions>
          <ns3:TrackPointExtension>
            <ns3:hr>122</ns3:hr>
            <ns3:cad>0</ns3:cad>
          </ns3:TrackPointExtension>
        </extensions>
      </trkpt>
      <trkpt lat="45.34738906659185886383056640625" lon="-70.8121169172227382659912109375">
        <ele>697.79998779296875</ele>
        <time>2026-08-21T11:26:08.000Z</time>
        <extensions>
          <ns3:TrackPointExtension>
            <ns3:hr>123</ns3:hr>
            <ns3:cad>0</ns3:cad>
          </ns3:TrackPointExtension>
        </extensions>
      </trkpt>
      <trkpt lat="45.3473811037838459014892578125" lon="-70.81212504766881465911865234375">
        <ele>697.79998779296875</ele>
        <time>2026-08-21T11:26:09.000Z</time>
        <extensions>
          <ns3:TrackPointExtension>
            <ns3:hr>123</ns3:hr>
            <ns3:cad>0</ns3:cad>
          </ns3:TrackPointExtension>
        </extensions>
      </trkpt>
      <trkpt lat="45.3473747335374355316162109375" lon="-70.8121383748948574066162109375">
        <ele>697.79998779296875</ele>
        <time>2026-08-21T11:26:10.000Z</time>
        <extensions>
          <ns3:TrackPointExtension>
            <ns3:hr>124</ns3:hr>
            <ns3:cad>0</ns3:cad>
          </ns3:TrackPointExtension>
        </extensions>
      </trkpt>
      <trkpt lat="45.34736526198685169219970703125" lon="-70.81215958110988140106201171875">
        <ele>697.5999755859375</ele>
        <time>2026-08-21T11:26:11.000Z</time>
        <extensions>
          <ns3:TrackPointExtension>
            <ns3:hr>124</ns3:hr>
            <ns3:cad>0</ns3:cad>
          </ns3:TrackPointExtension>
        </extensions>
      </trkpt>
      <trkpt lat="45.3473562933504581451416015625" lon="-70.8121745847165584564208984375">
        <ele>697.5999755859375</ele>
        <time>2026-08-21T11:26:12.000Z</time>
        <extensions>
          <ns3:TrackPointExtension>
            <ns3:hr>124</ns3:hr>
            <ns3:cad>0</ns3:cad>
          </ns3:TrackPointExtension>
        </extensions>
      </trkpt>
      <trkpt lat="45.347347073256969451904296875" lon="-70.8121822960674762725830078125">
        <ele>697.5999755859375</ele>
        <time>2026-08-21T11:26:13.000Z</time>
        <extensions>
          <ns3:TrackPointExtension>
            <ns3:hr>124</ns3:hr>
            <ns3:cad>15</ns3:cad>
          </ns3:TrackPointExtension>
        </extensions>
      </trkpt>
      <trkpt lat="45.347337014973163604736328125" lon="-70.81220853142440319061279296875">
        <ele>697.5999755859375</ele>
        <time>2026-08-21T11:26:14.000Z</time>
        <extensions>
          <ns3:TrackPointExtension>
            <ns3:hr>124</ns3:hr>
            <ns3:cad>15</ns3:cad>
          </ns3:TrackPointExtension>
        </extensions>
      </trkpt>
      <trkpt lat="45.3473254479467868804931640625" lon="-70.8122185058891773223876953125">
        <ele>697.5999755859375</ele>
        <time>2026-08-21T11:26:15.000Z</time>
        <extensions>
          <ns3:TrackPointExtension>
            <ns3:hr>124</ns3:hr>
            <ns3:cad>15</ns3:cad>
          </ns3:TrackPointExtension>
        </extensions>
      </trkpt>
      <trkpt lat="45.3473157249391078948974609375" lon="-70.8122371137142181396484375">
        <ele>697.5999755859375</ele>
        <time>2026-08-21T11:26:16.000Z</time>
        <extensions>
          <ns3:TrackPointExtension>
            <ns3:hr>124</ns3:hr>
            <ns3:cad>0</ns3:cad>
          </ns3:TrackPointExtension>
        </extensions>
      </trkpt>
      <trkpt lat="45.34730642102658748626708984375" lon="-70.81225982867181301116943359375">
        <ele>697.5999755859375</ele>
        <time>2026-08-21T11:26:17.000Z</time>
        <extensions>
          <ns3:TrackPointExtension>
            <ns3:hr>124</ns3:hr>
            <ns3:cad>0</ns3:cad>
          </ns3:TrackPointExtension>
        </extensions>
      </trkpt>
      <trkpt lat="45.3473036549985408782958984375" lon="-70.8122714795172214508056640625">
        <ele>697.5999755859375</ele>
        <time>2026-08-21T11:26:18.000Z</time>
        <extensions>
          <ns3:TrackPointExtension>
            <ns3:hr>124</ns3:hr>
            <ns3:cad>0</ns3:cad>
          </ns3:TrackPointExtension>
        </extensions>
      </trkpt>
      <trkpt lat="45.34730290062725543975830078125" lon="-70.8122899197041988372802734375">
        <ele>697.5999755859375</ele>
        <time>2026-08-21T11:26:19.000Z</time>
        <extensions>
          <ns3:TrackPointExtension>
            <ns3:hr>124</ns3:hr>
            <ns3:cad>0</ns3:cad>
          </ns3:TrackPointExtension>
        </extensions>
      </trkpt>
      <trkpt lat="45.34730139188468456268310546875" lon="-70.8123122155666351318359375">
        <ele>697.5999755859375</ele>
        <time>2026-08-21T11:26:20.000Z</time>
        <extensions>
          <ns3:TrackPointExtension>
            <ns3:hr>124</ns3:hr>
            <ns3:cad>0</ns3:cad>
          </ns3:TrackPointExtension>
        </extensions>
      </trkpt>
      <trkpt lat="45.3473039902746677398681640625" lon="-70.8123244531452655792236328125">
        <ele>697.5999755859375</ele>
        <time>2026-08-21T11:26:21.000Z</time>
        <extensions>
          <ns3:TrackPointExtension>
            <ns3:hr>124</ns3:hr>
            <ns3:cad>0</ns3:cad>
          </ns3:TrackPointExtension>
        </extensions>
      </trkpt>
      <trkpt lat="45.34730516374111175537109375" lon="-70.81233995966613292694091796875">
        <ele>697.5999755859375</ele>
        <time>2026-08-21T11:26:22.000Z</time>
        <extensions>
          <ns3:TrackPointExtension>
            <ns3:hr>124</ns3:hr>
            <ns3:cad>0</ns3:cad>
          </ns3:TrackPointExtension>
        </extensions>
      </trkpt>
      <trkpt lat="45.34729988314211368560791015625" lon="-70.8123546279966831207275390625">
        <ele>697.5999755859375</ele>
        <time>2026-08-21T11:26:23.000Z</time>
        <extensions>
          <ns3:TrackPointExtension>
            <ns3:hr>123</ns3:hr>
            <ns3:cad>53</ns3:cad>
          </ns3:TrackPointExtension>
        </extensions>
      </trkpt>
      <trkpt lat="45.34729300998151302337646484375" lon="-70.81235638819634914398193359375">
        <ele>697.5999755859375</ele>
        <time>2026-08-21T11:26:24.000Z</time>
        <extensions>
          <ns3:TrackPointExtension>
            <ns3:hr>123</ns3:hr>
            <ns3:cad>53</ns3:cad>
          </ns3:TrackPointExtension>
        </extensions>
      </trkpt>
      <trkpt lat="45.3472825326025485992431640625" lon="-70.8123599924147129058837890625">
        <ele>697.79998779296875</ele>
        <time>2026-08-21T11:26:25.000Z</time>
        <extensions>
          <ns3:TrackPointExtension>
            <ns3:hr>123</ns3:hr>
            <ns3:cad>53</ns3:cad>
          </ns3:TrackPointExtension>
        </extensions>
      </trkpt>
      <trkpt lat="45.3472696244716644287109375" lon="-70.8123609982430934906005859375">
        <ele>697.79998779296875</ele>
        <time>2026-08-21T11:26:26.000Z</time>
        <extensions>
          <ns3:TrackPointExtension>
            <ns3:hr>122</ns3:hr>
            <ns3:cad>53</ns3:cad>
          </ns3:TrackPointExtension>
        </extensions>
      </trkpt>
      <trkpt lat="45.34726182930171489715576171875" lon="-70.81236510537564754486083984375">
        <ele>697.79998779296875</ele>
        <time>2026-08-21T11:26:27.000Z</time>
        <extensions>
          <ns3:TrackPointExtension>
            <ns3:hr>122</ns3:hr>
            <ns3:cad>53</ns3:cad>
          </ns3:TrackPointExtension>
        </extensions>
      </trkpt>
      <trkpt lat="45.34725244157016277313232421875" lon="-70.812375247478485107421875">
        <ele>697.79998779296875</ele>
        <time>2026-08-21T11:26:28.000Z</time>
        <extensions>
          <ns3:TrackPointExtension>
            <ns3:hr>122</ns3:hr>
            <ns3:cad>52</ns3:cad>
          </ns3:TrackPointExtension>
        </extensions>
      </trkpt>
      <trkpt lat="45.34724255092442035675048828125" lon="-70.812385641038417816162109375">
        <ele>697.79998779296875</ele>
        <time>2026-08-21T11:26:29.000Z</time>
        <extensions>
          <ns3:TrackPointExtension>
            <ns3:hr>122</ns3:hr>
            <ns3:cad>52</ns3:cad>
          </ns3:TrackPointExtension>
        </extensions>
      </trkpt>
      <trkpt lat="45.34723400138318538665771484375" lon="-70.81240014173090457916259765625">
        <ele>697.79998779296875</ele>
        <time>2026-08-21T11:26:30.000Z</time>
        <extensions>
          <ns3:TrackPointExtension>
            <ns3:hr>122</ns3:hr>
            <ns3:cad>52</ns3:cad>
          </ns3:TrackPointExtension>
        </extensions>
      </trkpt>
      <trkpt lat="45.3472275473177433013916015625" lon="-70.8124168217182159423828125">
        <ele>697.79998779296875</ele>
        <time>2026-08-21T11:26:31.000Z</time>
        <extensions>
          <ns3:TrackPointExtension>
            <ns3:hr>122</ns3:hr>
            <ns3:cad>52</ns3:cad>
          </ns3:TrackPointExtension>
        </extensions>
      </trkpt>
      <trkpt lat="45.34721975214779376983642578125" lon="-70.812429226934909820556640625">
        <ele>697.79998779296875</ele>
        <time>2026-08-21T11:26:32.000Z</time>
        <extensions>
          <ns3:TrackPointExtension>
            <ns3:hr>122</ns3:hr>
            <ns3:cad>52</ns3:cad>
          </ns3:TrackPointExtension>
        </extensions>
      </trkpt>
      <trkpt lat="45.34721287898719310760498046875" lon="-70.8124397881329059600830078125">
        <ele>697.79998779296875</ele>
        <time>2026-08-21T11:26:33.000Z</time>
        <extensions>
          <ns3:TrackPointExtension>
            <ns3:hr>122</ns3:hr>
            <ns3:cad>0</ns3:cad>
          </ns3:TrackPointExtension>
        </extensions>
      </trkpt>
      <trkpt lat="45.34719997085630893707275390625" lon="-70.81244959495961666107177734375">
        <ele>697.79998779296875</ele>
        <time>2026-08-21T11:26:34.000Z</time>
        <extensions>
          <ns3:TrackPointExtension>
            <ns3:hr>122</ns3:hr>
            <ns3:cad>0</ns3:cad>
          </ns3:TrackPointExtension>
        </extensions>
      </trkpt>
      <trkpt lat="45.34718840382993221282958984375" lon="-70.8124602399766445159912109375">
        <ele>697.79998779296875</ele>
        <time>2026-08-21T11:26:35.000Z</time>
        <extensions>
          <ns3:TrackPointExtension>
            <ns3:hr>123</ns3:hr>
            <ns3:cad>59</ns3:cad>
          </ns3:TrackPointExtension>
        </extensions>
      </trkpt>
      <trkpt lat="45.34717549569904804229736328125" lon="-70.81246887333691120147705078125">
        <ele>697.79998779296875</ele>
        <time>2026-08-21T11:26:36.000Z</time>
        <extensions>
          <ns3:TrackPointExtension>
            <ns3:hr>123</ns3:hr>
            <ns3:cad>59</ns3:cad>
          </ns3:TrackPointExtension>
        </extensions>
      </trkpt>
      <trkpt lat="45.34716258756816387176513671875" lon="-70.8124773390591144561767578125">
        <ele>697.79998779296875</ele>
        <time>2026-08-21T11:26:37.000Z</time>
        <extensions>
          <ns3:TrackPointExtension>
            <ns3:hr>123</ns3:hr>
            <ns3:cad>59</ns3:cad>
          </ns3:TrackPointExtension>
        </extensions>
      </trkpt>
      <trkpt lat="45.34714900888502597808837890625" lon="-70.81249133683741092681884765625">
        <ele>697.79998779296875</ele>
        <time>2026-08-21T11:26:38.000Z</time>
        <extensions>
          <ns3:TrackPointExtension>
            <ns3:hr>123</ns3:hr>
            <ns3:cad>56</ns3:cad>
          </ns3:TrackPointExtension>
        </extensions>
      </trkpt>
      <trkpt lat="45.3471373580396175384521484375" lon="-70.812503993511199951171875">
        <ele>697.79998779296875</ele>
        <time>2026-08-21T11:26:39.000Z</time>
        <extensions>
          <ns3:TrackPointExtension>
            <ns3:hr>123</ns3:hr>
            <ns3:cad>56</ns3:cad>
          </ns3:TrackPointExtension>
        </extensions>
      </trkpt>
      <trkpt lat="45.34712235443294048309326171875" lon="-70.81251380033791065216064453125">
        <ele>697.79998779296875</ele>
        <time>2026-08-21T11:26:40.000Z</time>
        <extensions>
          <ns3:TrackPointExtension>
            <ns3:hr>124</ns3:hr>
            <ns3:cad>56</ns3:cad>
          </ns3:TrackPointExtension>
        </extensions>
      </trkpt>
      <trkpt lat="45.34711380489170551300048828125" lon="-70.812527798116207122802734375">
        <ele>697.79998779296875</ele>
        <time>2026-08-21T11:26:41.000Z</time>
        <extensions>
          <ns3:TrackPointExtension>
            <ns3:hr>124</ns3:hr>
            <ns3:cad>56</ns3:cad>
          </ns3:TrackPointExtension>
        </extensions>
      </trkpt>
      <trkpt lat="45.3471125476062297821044921875" lon="-70.8125494234263896942138671875">
        <ele>697.79998779296875</ele>
        <time>2026-08-21T11:26:42.000Z</time>
        <extensions>
          <ns3:TrackPointExtension>
            <ns3:hr>124</ns3:hr>
            <ns3:cad>56</ns3:cad>
          </ns3:TrackPointExtension>
        </extensions>
      </trkpt>
      <trkpt lat="45.34710399806499481201171875" lon="-70.8125635050237178802490234375">
        <ele>697.79998779296875</ele>
        <time>2026-08-21T11:26:43.000Z</time>
        <extensions>
          <ns3:TrackPointExtension>
            <ns3:hr>124</ns3:hr>
            <ns3:cad>56</ns3:cad>
          </ns3:TrackPointExtension>
        </extensions>
      </trkpt>
      <trkpt lat="45.34709318540990352630615234375" lon="-70.8125648461282253265380859375">
        <ele>697.79998779296875</ele>
        <time>2026-08-21T11:26:44.000Z</time>
        <extensions>
          <ns3:TrackPointExtension>
            <ns3:hr>124</ns3:hr>
            <ns3:cad>56</ns3:cad>
          </ns3:TrackPointExtension>
        </extensions>
      </trkpt>
      <trkpt lat="45.34708078019320964813232421875" lon="-70.8125668577849864959716796875">
        <ele>697.79998779296875</ele>
        <time>2026-08-21T11:26:45.000Z</time>
        <extensions>
          <ns3:TrackPointExtension>
            <ns3:hr>124</ns3:hr>
            <ns3:cad>56</ns3:cad>
          </ns3:TrackPointExtension>
        </extensions>
      </trkpt>
      <trkpt lat="45.34707793034613132476806640625" lon="-70.8125670254230499267578125">
        <ele>697.5999755859375</ele>
        <time>2026-08-21T11:26:46.000Z</time>
        <extensions>
          <ns3:TrackPointExtension>
            <ns3:hr>124</ns3:hr>
            <ns3:cad>56</ns3:cad>
          </ns3:TrackPointExtension>
        </extensions>
      </trkpt>
      <trkpt lat="45.3470657765865325927734375" lon="-70.81256191246211528778076171875">
        <ele>697.5999755859375</ele>
        <time>2026-08-21T11:26:47.000Z</time>
        <extensions>
          <ns3:TrackPointExtension>
            <ns3:hr>124</ns3:hr>
            <ns3:cad>56</ns3:cad>
          </ns3:TrackPointExtension>
        </extensions>
      </trkpt>
      <trkpt lat="45.34705865196883678436279296875" lon="-70.812561996281147003173828125">
        <ele>697.5999755859375</ele>
        <time>2026-08-21T11:26:48.000Z</time>
        <extensions>
          <ns3:TrackPointExtension>
            <ns3:hr>124</ns3:hr>
            <ns3:cad>56</ns3:cad>
          </ns3:TrackPointExtension>
        </extensions>
      </trkpt>
      <trkpt lat="45.34705094061791896820068359375" lon="-70.8125668577849864959716796875">
        <ele>697.5999755859375</ele>
        <time>2026-08-21T11:26:49.000Z</time>
        <extensions>
          <ns3:TrackPointExtension>
            <ns3:hr>124</ns3:hr>
            <ns3:cad>56</ns3:cad>
          </ns3:TrackPointExtension>
        </extensions>
      </trkpt>
      <trkpt lat="45.3470404632389545440673828125" lon="-70.812568701803684234619140625">
        <ele>697.79998779296875</ele>
        <time>2026-08-21T11:26:50.000Z</time>
        <extensions>
          <ns3:TrackPointExtension>
            <ns3:hr>124</ns3:hr>
            <ns3:cad>56</ns3:cad>
          </ns3:TrackPointExtension>
        </extensions>
      </trkpt>
      <trkpt lat="45.34702747128903865814208984375" lon="-70.81257146783173084259033203125">
        <ele>697.79998779296875</ele>
        <time>2026-08-21T11:26:51.000Z</time>
        <extensions>
          <ns3:TrackPointExtension>
            <ns3:hr>123</ns3:hr>
            <ns3:cad>56</ns3:cad>
          </ns3:TrackPointExtension>
        </extensions>
      </trkpt>
      <trkpt lat="45.34701489843428134918212890625" lon="-70.81257616169750690460205078125">
        <ele>697.79998779296875</ele>
        <time>2026-08-21T11:26:52.000Z</time>
        <extensions>
          <ns3:TrackPointExtension>
            <ns3:hr>124</ns3:hr>
            <ns3:cad>56</ns3:cad>
          </ns3:TrackPointExtension>
        </extensions>
      </trkpt>
      <trkpt lat="45.34700609743595123291015625" lon="-70.81257683224976062774658203125">
        <ele>698</ele>
        <time>2026-08-21T11:26:53.000Z</time>
        <extensions>
          <ns3:TrackPointExtension>
            <ns3:hr>123</ns3:hr>
            <ns3:cad>56</ns3:cad>
          </ns3:TrackPointExtension>
        </extensions>
      </trkpt>
      <trkpt lat="45.34700249321758747100830078125" lon="-70.81257381476461887359619140625">
        <ele>698.20001220703125</ele>
        <time>2026-08-21T11:26:54.000Z</time>
        <extensions>
          <ns3:TrackPointExtension>
            <ns3:hr>122</ns3:hr>
            <ns3:cad>0</ns3:cad>
          </ns3:TrackPointExtension>
        </extensions>
      </trkpt>
      <trkpt lat="45.34699645824730396270751953125" lon="-70.81256459467113018035888671875">
        <ele>698.20001220703125</ele>
        <time>2026-08-21T11:26:55.000Z</time>
        <extensions>
          <ns3:TrackPointExtension>
            <ns3:hr>122</ns3:hr>
            <ns3:cad>0</ns3:cad>
          </ns3:TrackPointExtension>
        </extensions>
      </trkpt>
      <trkpt lat="45.34698857925832271575927734375" lon="-70.8125531114637851715087890625">
        <ele>698.4000244140625</ele>
        <time>2026-08-21T11:26:56.000Z</time>
        <extensions>
          <ns3:TrackPointExtension>
            <ns3:hr>122</ns3:hr>
            <ns3:cad>0</ns3:cad>
          </ns3:TrackPointExtension>
        </extensions>
      </trkpt>
      <trkpt lat="45.3469851426780223846435546875" lon="-70.8125454001128673553466796875">
        <ele>698.4000244140625</ele>
        <time>2026-08-21T11:26:57.000Z</time>
        <extensions>
          <ns3:TrackPointExtension>
            <ns3:hr>121</ns3:hr>
            <ns3:cad>0</ns3:cad>
          </ns3:TrackPointExtension>
        </extensions>
      </trkpt>
      <trkpt lat="45.3469774313271045684814453125" lon="-70.8125289715826511383056640625">
        <ele>698.4000244140625</ele>
        <time>2026-08-21T11:26:58.000Z</time>
        <extensions>
          <ns3:TrackPointExtension>
            <ns3:hr>121</ns3:hr>
            <ns3:cad>0</ns3:cad>
          </ns3:TrackPointExtension>
        </extensions>
      </trkpt>
      <trkpt lat="45.34696779213845729827880859375" lon="-70.81251815892755985260009765625">
        <ele>698.4000244140625</ele>
        <time>2026-08-21T11:26:59.000Z</time>
        <extensions>
          <ns3:TrackPointExtension>
            <ns3:hr>121</ns3:hr>
            <ns3:cad>0</ns3:cad>
          </ns3:TrackPointExtension>
        </extensions>
      </trkpt>
      <trkpt lat="45.3469636850059032440185546875" lon="-70.81250390969216823577880859375">
        <ele>698.20001220703125</ele>
        <time>2026-08-21T11:27:00.000Z</time>
        <extensions>
          <ns3:TrackPointExtension>
            <ns3:hr>121</ns3:hr>
            <ns3:cad>0</ns3:cad>
          </ns3:TrackPointExtension>
        </extensions>
      </trkpt>
      <trkpt lat="45.34696125425398349761962890625" lon="-70.81250055693089962005615234375">
        <ele>698.20001220703125</ele>
        <time>2026-08-21T11:27:01.000Z</time>
        <extensions>
          <ns3:TrackPointExtension>
            <ns3:hr>122</ns3:hr>
            <ns3:cad>53</ns3:cad>
          </ns3:TrackPointExtension>
        </extensions>
      </trkpt>
      <trkpt lat="45.34696008078753948211669921875" lon="-70.81249703653156757354736328125">
        <ele>698.20001220703125</ele>
        <time>2026-08-21T11:27:02.000Z</time>
        <extensions>
          <ns3:TrackPointExtension>
            <ns3:hr>122</ns3:hr>
            <ns3:cad>0</ns3:cad>
          </ns3:TrackPointExtension>
        </extensions>
      </trkpt>
      <trkpt lat="45.34694666974246501922607421875" lon="-70.812478847801685333251953125">
        <ele>698</ele>
        <time>2026-08-21T11:27:03.000Z</time>
        <extensions>
          <ns3:TrackPointExtension>
            <ns3:hr>123</ns3:hr>
            <ns3:cad>0</ns3:cad>
          </ns3:TrackPointExtension>
        </extensions>
      </trkpt>
      <trkpt lat="45.34693024121224880218505859375" lon="-70.8124651014804840087890625">
        <ele>698</ele>
        <time>2026-08-21T11:27:04.000Z</time>
        <extensions>
          <ns3:TrackPointExtension>
            <ns3:hr>123</ns3:hr>
            <ns3:cad>57</ns3:cad>
          </ns3:TrackPointExtension>
        </extensions>
      </trkpt>
      <trkpt lat="45.34691431559622287750244140625" lon="-70.81245428882539272308349609375">
        <ele>698</ele>
        <time>2026-08-21T11:27:05.000Z</time>
        <extensions>
          <ns3:TrackPointExtension>
            <ns3:hr>124</ns3:hr>
            <ns3:cad>57</ns3:cad>
          </ns3:TrackPointExtension>
        </extensions>
      </trkpt>
      <trkpt lat="45.34690191037952899932861328125" lon="-70.81244389526546001434326171875">
        <ele>698</ele>
        <time>2026-08-21T11:27:06.000Z</time>
        <extensions>
          <ns3:TrackPointExtension>
            <ns3:hr>124</ns3:hr>
            <ns3:cad>58</ns3:cad>
          </ns3:TrackPointExtension>
        </extensions>
      </trkpt>
      <trkpt lat="45.34688196144998073577880859375" lon="-70.81242813728749752044677734375">
        <ele>698</ele>
        <time>2026-08-21T11:27:07.000Z</time>
        <extensions>
          <ns3:TrackPointExtension>
            <ns3:hr>124</ns3:hr>
            <ns3:cad>58</ns3:cad>
          </ns3:TrackPointExtension>
        </extensions>
      </trkpt>
      <trkpt lat="45.34686385653913021087646484375" lon="-70.81241321749985218048095703125">
        <ele>698</ele>
        <time>2026-08-21T11:27:08.000Z</time>
        <extensions>
          <ns3:TrackPointExtension>
            <ns3:hr>123</ns3:hr>
            <ns3:cad>56</ns3:cad>
          </ns3:TrackPointExtension>
        </extensions>
      </trkpt>
      <trkpt lat="45.34684575162827968597412109375" lon="-70.81240500323474407196044921875">
        <ele>698.20001220703125</ele>
        <time>2026-08-21T11:27:09.000Z</time>
        <extensions>
          <ns3:TrackPointExtension>
            <ns3:hr>123</ns3:hr>
            <ns3:cad>55</ns3:cad>
          </ns3:TrackPointExtension>
        </extensions>
      </trkpt>
      <trkpt lat="45.34683041274547576904296875" lon="-70.8124008961021900177001953125">
        <ele>698.20001220703125</ele>
        <time>2026-08-21T11:27:10.000Z</time>
        <extensions>
          <ns3:TrackPointExtension>
            <ns3:hr>123</ns3:hr>
            <ns3:cad>55</ns3:cad>
          </ns3:TrackPointExtension>
        </extensions>
      </trkpt>
      <trkpt lat="45.34682379104197025299072265625" lon="-70.81239427439868450164794921875">
        <ele>698.4000244140625</ele>
        <time>2026-08-21T11:27:11.000Z</time>
        <extensions>
          <ns3:TrackPointExtension>
            <ns3:hr>123</ns3:hr>
            <ns3:cad>55</ns3:cad>
          </ns3:TrackPointExtension>
        </extensions>
      </trkpt>
      <trkpt lat="45.34680887125432491302490234375" lon="-70.81238958053290843963623046875">
        <ele>698.5999755859375</ele>
        <time>2026-08-21T11:27:12.000Z</time>
        <extensions>
          <ns3:TrackPointExtension>
            <ns3:hr>123</ns3:hr>
            <ns3:cad>55</ns3:cad>
          </ns3:TrackPointExtension>
        </extensions>
      </trkpt>
      <trkpt lat="45.34679261036217212677001953125" lon="-70.81238237209618091583251953125">
        <ele>698.5999755859375</ele>
        <time>2026-08-21T11:27:13.000Z</time>
        <extensions>
          <ns3:TrackPointExtension>
            <ns3:hr>122</ns3:hr>
            <ns3:cad>55</ns3:cad>
          </ns3:TrackPointExtension>
        </extensions>
      </trkpt>
      <trkpt lat="45.34678154624998569488525390625" lon="-70.8123739063739776611328125">
        <ele>698.5999755859375</ele>
        <time>2026-08-21T11:27:14.000Z</time>
        <extensions>
          <ns3:TrackPointExtension>
            <ns3:hr>122</ns3:hr>
            <ns3:cad>55</ns3:cad>
          </ns3:TrackPointExtension>
        </extensions>
      </trkpt>
      <trkpt lat="45.34677132032811641693115234375" lon="-70.8123680390417575836181640625">
        <ele>698.5999755859375</ele>
        <time>2026-08-21T11:27:15.000Z</time>
        <extensions>
          <ns3:TrackPointExtension>
            <ns3:hr>123</ns3:hr>
            <ns3:cad>55</ns3:cad>
          </ns3:TrackPointExtension>
        </extensions>
      </trkpt>
      <trkpt lat="45.346758328378200531005859375" lon="-70.81236644648015499114990234375">
        <ele>698.5999755859375</ele>
        <time>2026-08-21T11:27:16.000Z</time>
        <extensions>
          <ns3:TrackPointExtension>
            <ns3:hr>122</ns3:hr>
            <ns3:cad>53</ns3:cad>
          </ns3:TrackPointExtension>
        </extensions>
      </trkpt>
      <trkpt lat="45.34674500115215778350830078125" lon="-70.81236192025244235992431640625">
        <ele>698.5999755859375</ele>
        <time>2026-08-21T11:27:17.000Z</time>
        <extensions>
          <ns3:TrackPointExtension>
            <ns3:hr>122</ns3:hr>
            <ns3:cad>53</ns3:cad>
          </ns3:TrackPointExtension>
        </extensions>
      </trkpt>
      <trkpt lat="45.34673561342060565948486328125" lon="-70.8123563043773174285888671875">
        <ele>698.79998779296875</ele>
        <time>2026-08-21T11:27:18.000Z</time>
        <extensions>
          <ns3:TrackPointExtension>
            <ns3:hr>122</ns3:hr>
            <ns3:cad>50</ns3:cad>
          </ns3:TrackPointExtension>
        </extensions>
      </trkpt>
      <trkpt lat="45.3467286564409732818603515625" lon="-70.81234909594058990478515625">
        <ele>699</ele>
        <time>2026-08-21T11:27:19.000Z</time>
        <extensions>
          <ns3:TrackPointExtension>
            <ns3:hr>123</ns3:hr>
            <ns3:cad>50</ns3:cad>
          </ns3:TrackPointExtension>
        </extensions>
      </trkpt>
      <trkpt lat="45.3467170894145965576171875" lon="-70.81233778037130832672119140625">
        <ele>699</ele>
        <time>2026-08-21T11:27:20.000Z</time>
        <extensions>
          <ns3:TrackPointExtension>
            <ns3:hr>122</ns3:hr>
            <ns3:cad>53</ns3:cad>
          </ns3:TrackPointExtension>
        </extensions>
      </trkpt>
      <trkpt lat="45.34671239554882049560546875" lon="-70.81232495605945587158203125">
        <ele>699.20001220703125</ele>
        <time>2026-08-21T11:27:21.000Z</time>
        <extensions>
          <ns3:TrackPointExtension>
            <ns3:hr>122</ns3:hr>
            <ns3:cad>53</ns3:cad>
          </ns3:TrackPointExtension>
        </extensions>
      </trkpt>
      <trkpt lat="45.34670426510274410247802734375" lon="-70.8123164065182209014892578125">
        <ele>699.20001220703125</ele>
        <time>2026-08-21T11:27:22.000Z</time>
        <extensions>
          <ns3:TrackPointExtension>
            <ns3:hr>122</ns3:hr>
            <ns3:cad>53</ns3:cad>
          </ns3:TrackPointExtension>
        </extensions>
      </trkpt>
      <trkpt lat="45.34669336862862110137939453125" lon="-70.8123040013015270233154296875">
        <ele>699.20001220703125</ele>
        <time>2026-08-21T11:27:23.000Z</time>
        <extensions>
          <ns3:TrackPointExtension>
            <ns3:hr>122</ns3:hr>
            <ns3:cad>53</ns3:cad>
          </ns3:TrackPointExtension>
        </extensions>
      </trkpt>
      <trkpt lat="45.34667626954615116119384765625" lon="-70.81228547729551792144775390625">
        <ele>699.20001220703125</ele>
        <time>2026-08-21T11:27:24.000Z</time>
        <extensions>
          <ns3:TrackPointExtension>
            <ns3:hr>122</ns3:hr>
            <ns3:cad>53</ns3:cad>
          </ns3:TrackPointExtension>
        </extensions>
      </trkpt>
      <trkpt lat="45.3466622717678546905517578125" lon="-70.812268294394016265869140625">
        <ele>699.4000244140625</ele>
        <time>2026-08-21T11:27:25.000Z</time>
        <extensions>
          <ns3:TrackPointExtension>
            <ns3:hr>122</ns3:hr>
            <ns3:cad>56</ns3:cad>
          </ns3:TrackPointExtension>
        </extensions>
      </trkpt>
      <trkpt lat="45.3466468490660190582275390625" lon="-70.81225815229117870330810546875">
        <ele>699.4000244140625</ele>
        <time>2026-08-21T11:27:26.000Z</time>
        <extensions>
          <ns3:TrackPointExtension>
            <ns3:hr>122</ns3:hr>
            <ns3:cad>53</ns3:cad>
          </ns3:TrackPointExtension>
        </extensions>
      </trkpt>
      <trkpt lat="45.3466284088790416717529296875" lon="-70.81225479952991008758544921875">
        <ele>699.20001220703125</ele>
        <time>2026-08-21T11:27:27.000Z</time>
        <extensions>
          <ns3:TrackPointExtension>
            <ns3:hr>121</ns3:hr>
            <ns3:cad>53</ns3:cad>
          </ns3:TrackPointExtension>
        </extensions>
      </trkpt>
      <trkpt lat="45.34661524929106235504150390625" lon="-70.81226033158600330352783203125">
        <ele>699.4000244140625</ele>
        <time>2026-08-21T11:27:28.000Z</time>
        <extensions>
          <ns3:TrackPointExtension>
            <ns3:hr>122</ns3:hr>
            <ns3:cad>54</ns3:cad>
          </ns3:TrackPointExtension>
        </extensions>
      </trkpt>
      <trkpt lat="45.346602760255336761474609375" lon="-70.8122641034424304962158203125">
        <ele>699.4000244140625</ele>
        <time>2026-08-21T11:27:29.000Z</time>
        <extensions>
          <ns3:TrackPointExtension>
            <ns3:hr>122</ns3:hr>
            <ns3:cad>54</ns3:cad>
          </ns3:TrackPointExtension>
        </extensions>
      </trkpt>
      <trkpt lat="45.346594043076038360595703125" lon="-70.8122701384127140045166015625">
        <ele>699.4000244140625</ele>
        <time>2026-08-21T11:27:30.000Z</time>
        <extensions>
          <ns3:TrackPointExtension>
            <ns3:hr>122</ns3:hr>
            <ns3:cad>54</ns3:cad>
          </ns3:TrackPointExtension>
        </extensions>
      </trkpt>
      <trkpt lat="45.3465854935348033905029296875" lon="-70.8122751675546169281005859375">
        <ele>699.5999755859375</ele>
        <time>2026-08-21T11:27:31.000Z</time>
        <extensions>
          <ns3:TrackPointExtension>
            <ns3:hr>122</ns3:hr>
            <ns3:cad>54</ns3:cad>
          </ns3:TrackPointExtension>
        </extensions>
      </trkpt>
      <trkpt lat="45.34657501615583896636962890625" lon="-70.81228245981037616729736328125">
        <ele>700</ele>
        <time>2026-08-21T11:27:32.000Z</time>
        <extensions>
          <ns3:TrackPointExtension>
            <ns3:hr>122</ns3:hr>
            <ns3:cad>53</ns3:cad>
          </ns3:TrackPointExtension>
        </extensions>
      </trkpt>
      <trkpt lat="45.34656629897654056549072265625" lon="-70.81228732131421566009521484375">
        <ele>700.20001220703125</ele>
        <time>2026-08-21T11:27:33.000Z</time>
        <extensions>
          <ns3:TrackPointExtension>
            <ns3:hr>121</ns3:hr>
            <ns3:cad>53</ns3:cad>
          </ns3:TrackPointExtension>
        </extensions>
      </trkpt>
      <trkpt lat="45.3465529717504978179931640625" lon="-70.8123073540627956390380859375">
        <ele>700.5999755859375</ele>
        <time>2026-08-21T11:27:34.000Z</time>
        <extensions>
          <ns3:TrackPointExtension>
            <ns3:hr>121</ns3:hr>
            <ns3:cad>53</ns3:cad>
          </ns3:TrackPointExtension>
        </extensions>
      </trkpt>
      <trkpt lat="45.34654676914215087890625" lon="-70.8123207651078701019287109375">
        <ele>700.79998779296875</ele>
        <time>2026-08-21T11:27:35.000Z</time>
        <extensions>
          <ns3:TrackPointExtension>
            <ns3:hr>121</ns3:hr>
            <ns3:cad>51</ns3:cad>
          </ns3:TrackPointExtension>
        </extensions>
      </trkpt>
      <trkpt lat="45.3465305082499980926513671875" lon="-70.81233543343842029571533203125">
        <ele>701.20001220703125</ele>
        <time>2026-08-21T11:27:36.000Z</time>
        <extensions>
          <ns3:TrackPointExtension>
            <ns3:hr>121</ns3:hr>
            <ns3:cad>51</ns3:cad>
          </ns3:TrackPointExtension>
        </extensions>
      </trkpt>
      <trkpt lat="45.346514917910099029541015625" lon="-70.81234800629317760467529296875">
        <ele>701.5999755859375</ele>
        <time>2026-08-21T11:27:37.000Z</time>
        <extensions>
          <ns3:TrackPointExtension>
            <ns3:hr>122</ns3:hr>
            <ns3:cad>51</ns3:cad>
          </ns3:TrackPointExtension>
        </extensions>
      </trkpt>
      <trkpt lat="45.34650678746402263641357421875" lon="-70.81235907040536403656005859375">
        <ele>701.79998779296875</ele>
        <time>2026-08-21T11:27:38.000Z</time>
        <extensions>
          <ns3:TrackPointExtension>
            <ns3:hr>121</ns3:hr>
            <ns3:cad>51</ns3:cad>
          </ns3:TrackPointExtension>
        </extensions>
      </trkpt>
      <trkpt lat="45.34649773500859737396240234375" lon="-70.81237130798399448394775390625">
        <ele>702</ele>
        <time>2026-08-21T11:27:39.000Z</time>
        <extensions>
          <ns3:TrackPointExtension>
            <ns3:hr>121</ns3:hr>
            <ns3:cad>0</ns3:cad>
          </ns3:TrackPointExtension>
        </extensions>
      </trkpt>
      <trkpt lat="45.34649111330509185791015625" lon="-70.81238932907581329345703125">
        <ele>702.20001220703125</ele>
        <time>2026-08-21T11:27:40.000Z</time>
        <extensions>
          <ns3:TrackPointExtension>
            <ns3:hr>121</ns3:hr>
            <ns3:cad>0</ns3:cad>
          </ns3:TrackPointExtension>
        </extensions>
      </trkpt>
      <trkpt lat="45.346479713916778564453125" lon="-70.81240198574960231781005859375">
        <ele>702.4000244140625</ele>
        <time>2026-08-21T11:27:41.000Z</time>
        <extensions>
          <ns3:TrackPointExtension>
            <ns3:hr>122</ns3:hr>
            <ns3:cad>0</ns3:cad>
          </ns3:TrackPointExtension>
        </extensions>
      </trkpt>
      <trkpt lat="45.34646923653781414031982421875" lon="-70.81242193467915058135986328125">
        <ele>702.5999755859375</ele>
        <time>2026-08-21T11:27:42.000Z</time>
        <extensions>
          <ns3:TrackPointExtension>
            <ns3:hr>123</ns3:hr>
            <ns3:cad>0</ns3:cad>
          </ns3:TrackPointExtension>
        </extensions>
      </trkpt>
      <trkpt lat="45.34645917825400829315185546875" lon="-70.81244205124676227569580078125">
        <ele>702.5999755859375</ele>
        <time>2026-08-21T11:27:43.000Z</time>
        <extensions>
          <ns3:TrackPointExtension>
            <ns3:hr>124</ns3:hr>
            <ns3:cad>0</ns3:cad>
          </ns3:TrackPointExtension>
        </extensions>
      </trkpt>
      <trkpt lat="45.34645213745534420013427734375" lon="-70.81246451474726200103759765625">
        <ele>702.5999755859375</ele>
        <time>2026-08-21T11:27:44.000Z</time>
        <extensions>
          <ns3:TrackPointExtension>
            <ns3:hr>124</ns3:hr>
            <ns3:cad>0</ns3:cad>
          </ns3:TrackPointExtension>
        </extensions>
      </trkpt>
      <trkpt lat="45.3464440070092678070068359375" lon="-70.8124847151339054107666015625">
        <ele>702.5999755859375</ele>
        <time>2026-08-21T11:27:45.000Z</time>
        <extensions>
          <ns3:TrackPointExtension>
            <ns3:hr>125</ns3:hr>
            <ns3:cad>0</ns3:cad>
          </ns3:TrackPointExtension>
        </extensions>
      </trkpt>
      <trkpt lat="45.34643956460058689117431640625" lon="-70.81250332295894622802734375">
        <ele>702.5999755859375</ele>
        <time>2026-08-21T11:27:46.000Z</time>
        <extensions>
          <ns3:TrackPointExtension>
            <ns3:hr>127</ns3:hr>
            <ns3:cad>0</ns3:cad>
          </ns3:TrackPointExtension>
        </extensions>
      </trkpt>
      <trkpt lat="45.34643478691577911376953125" lon="-70.81251983530819416046142578125">
        <ele>702.5999755859375</ele>
        <time>2026-08-21T11:27:47.000Z</time>
        <extensions>
          <ns3:TrackPointExtension>
            <ns3:hr>129</ns3:hr>
            <ns3:cad>55</ns3:cad>
          </ns3:TrackPointExtension>
        </extensions>
      </trkpt>
      <trkpt lat="45.34642430953681468963623046875" lon="-70.81254011951386928558349609375">
        <ele>702.79998779296875</ele>
        <time>2026-08-21T11:27:48.000Z</time>
        <extensions>
          <ns3:TrackPointExtension>
            <ns3:hr>131</ns3:hr>
            <ns3:cad>55</ns3:cad>
          </ns3:TrackPointExtension>
        </extensions>
      </trkpt>
      <trkpt lat="45.34641659818589687347412109375" lon="-70.81255403347313404083251953125">
        <ele>702.79998779296875</ele>
        <time>2026-08-21T11:27:49.000Z</time>
        <extensions>
          <ns3:TrackPointExtension>
            <ns3:hr>132</ns3:hr>
            <ns3:cad>56</ns3:cad>
          </ns3:TrackPointExtension>
        </extensions>
      </trkpt>
      <trkpt lat="45.34641173668205738067626953125" lon="-70.81257306039333343505859375">
        <ele>702.79998779296875</ele>
        <time>2026-08-21T11:27:50.000Z</time>
        <extensions>
          <ns3:TrackPointExtension>
            <ns3:hr>133</ns3:hr>
            <ns3:cad>57</ns3:cad>
          </ns3:TrackPointExtension>
        </extensions>
      </trkpt>
      <trkpt lat="45.34640737809240818023681640625" lon="-70.81259493716061115264892578125">
        <ele>702.79998779296875</ele>
        <time>2026-08-21T11:27:51.000Z</time>
        <extensions>
          <ns3:TrackPointExtension>
            <ns3:hr>133</ns3:hr>
            <ns3:cad>57</ns3:cad>
          </ns3:TrackPointExtension>
        </extensions>
      </trkpt>
      <trkpt lat="45.34640469588339328765869140625" lon="-70.81261270679533481597900390625">
        <ele>702.5999755859375</ele>
        <time>2026-08-21T11:27:52.000Z</time>
        <extensions>
          <ns3:TrackPointExtension>
            <ns3:hr>133</ns3:hr>
            <ns3:cad>57</ns3:cad>
          </ns3:TrackPointExtension>
        </extensions>
      </trkpt>
      <trkpt lat="45.3463979065418243408203125" lon="-70.8126282133162021636962890625">
        <ele>702.4000244140625</ele>
        <time>2026-08-21T11:27:53.000Z</time>
        <extensions>
          <ns3:TrackPointExtension>
            <ns3:hr>133</ns3:hr>
            <ns3:cad>57</ns3:cad>
          </ns3:TrackPointExtension>
        </extensions>
      </trkpt>
      <trkpt lat="45.34638843499124050140380859375" lon="-70.8126506768167018890380859375">
        <ele>702.20001220703125</ele>
        <time>2026-08-21T11:27:54.000Z</time>
        <extensions>
          <ns3:TrackPointExtension>
            <ns3:hr>133</ns3:hr>
            <ns3:cad>56</ns3:cad>
          </ns3:TrackPointExtension>
        </extensions>
      </trkpt>
      <trkpt lat="45.34638374112546443939208984375" lon="-70.8126660995185375213623046875">
        <ele>702.20001220703125</ele>
        <time>2026-08-21T11:27:55.000Z</time>
        <extensions>
          <ns3:TrackPointExtension>
            <ns3:hr>133</ns3:hr>
            <ns3:cad>56</ns3:cad>
          </ns3:TrackPointExtension>
        </extensions>
      </trkpt>
      <trkpt lat="45.34637485630810260772705078125" lon="-70.81267422996461391448974609375">
        <ele>702.20001220703125</ele>
        <time>2026-08-21T11:27:56.000Z</time>
        <extensions>
          <ns3:TrackPointExtension>
            <ns3:hr>133</ns3:hr>
            <ns3:cad>52</ns3:cad>
          </ns3:TrackPointExtension>
        </extensions>
      </trkpt>
      <trkpt lat="45.3463689051568508148193359375" lon="-70.81268839538097381591796875">
        <ele>702</ele>
        <time>2026-08-21T11:27:57.000Z</time>
        <extensions>
          <ns3:TrackPointExtension>
            <ns3:hr>132</ns3:hr>
            <ns3:cad>52</ns3:cad>
          </ns3:TrackPointExtension>
        </extensions>
      </trkpt>
      <trkpt lat="45.34636110998690128326416015625" lon="-70.81269183196127414703369140625">
        <ele>702</ele>
        <time>2026-08-21T11:27:58.000Z</time>
        <extensions>
          <ns3:TrackPointExtension>
            <ns3:hr>133</ns3:hr>
            <ns3:cad>52</ns3:cad>
          </ns3:TrackPointExtension>
        </extensions>
      </trkpt>
      <trkpt lat="45.346348620951175689697265625" lon="-70.8127066679298877716064453125">
        <ele>702</ele>
        <time>2026-08-21T11:27:59.000Z</time>
        <extensions>
          <ns3:TrackPointExtension>
            <ns3:hr>133</ns3:hr>
            <ns3:cad>52</ns3:cad>
          </ns3:TrackPointExtension>
        </extensions>
      </trkpt>
      <trkpt lat="45.34633814357221126556396484375" lon="-70.812721587717533111572265625">
        <ele>702</ele>
        <time>2026-08-21T11:28:00.000Z</time>
        <extensions>
          <ns3:TrackPointExtension>
            <ns3:hr>133</ns3:hr>
            <ns3:cad>52</ns3:cad>
          </ns3:TrackPointExtension>
        </extensions>
      </trkpt>
      <trkpt lat="45.346332527697086334228515625" lon="-70.8127391897141933441162109375">
        <ele>702</ele>
        <time>2026-08-21T11:28:01.000Z</time>
        <extensions>
          <ns3:TrackPointExtension>
            <ns3:hr>133</ns3:hr>
            <ns3:cad>50</ns3:cad>
          </ns3:TrackPointExtension>
        </extensions>
      </trkpt>
      <trkpt lat="45.3463249839842319488525390625" lon="-70.81275947391986846923828125">
        <ele>702</ele>
        <time>2026-08-21T11:28:02.000Z</time>
        <extensions>
          <ns3:TrackPointExtension>
            <ns3:hr>134</ns3:hr>
            <ns3:cad>50</ns3:cad>
          </ns3:TrackPointExtension>
        </extensions>
      </trkpt>
      <trkpt lat="45.34631676971912384033203125" lon="-70.81277648918330669403076171875">
        <ele>702</ele>
        <time>2026-08-21T11:28:03.000Z</time>
        <extensions>
          <ns3:TrackPointExtension>
            <ns3:hr>134</ns3:hr>
            <ns3:cad>51</ns3:cad>
          </ns3:TrackPointExtension>
        </extensions>
      </trkpt>
      <trkpt lat="45.346309728920459747314453125" lon="-70.81279040314257144927978515625">
        <ele>702</ele>
        <time>2026-08-21T11:28:04.000Z</time>
        <extensions>
          <ns3:TrackPointExtension>
            <ns3:hr>133</ns3:hr>
            <ns3:cad>52</ns3:cad>
          </ns3:TrackPointExtension>
        </extensions>
      </trkpt>
      <trkpt lat="45.3463025204837322235107421875" lon="-70.812804400920867919921875">
        <ele>701.79998779296875</ele>
        <time>2026-08-21T11:28:05.000Z</time>
        <extensions>
          <ns3:TrackPointExtension>
            <ns3:hr>133</ns3:hr>
            <ns3:cad>52</ns3:cad>
          </ns3:TrackPointExtension>
        </extensions>
      </trkpt>
      <trkpt lat="45.346296317875385284423828125" lon="-70.81282518804073333740234375">
        <ele>701.5999755859375</ele>
        <time>2026-08-21T11:28:06.000Z</time>
        <extensions>
          <ns3:TrackPointExtension>
            <ns3:hr>132</ns3:hr>
            <ns3:cad>51</ns3:cad>
          </ns3:TrackPointExtension>
        </extensions>
      </trkpt>
      <trkpt lat="45.3462891094386577606201171875" lon="-70.81284438259899616241455078125">
        <ele>701.4000244140625</ele>
        <time>2026-08-21T11:28:07.000Z</time>
        <extensions>
          <ns3:TrackPointExtension>
            <ns3:hr>132</ns3:hr>
            <ns3:cad>51</ns3:cad>
          </ns3:TrackPointExtension>
        </extensions>
      </trkpt>
      <trkpt lat="45.34628516994416713714599609375" lon="-70.8128578774631023406982421875">
        <ele>701.4000244140625</ele>
        <time>2026-08-21T11:28:08.000Z</time>
        <extensions>
          <ns3:TrackPointExtension>
            <ns3:hr>132</ns3:hr>
            <ns3:cad>52</ns3:cad>
          </ns3:TrackPointExtension>
        </extensions>
      </trkpt>
      <trkpt lat="45.3462798893451690673828125" lon="-70.81287589855492115020751953125">
        <ele>701.20001220703125</ele>
        <time>2026-08-21T11:28:09.000Z</time>
        <extensions>
          <ns3:TrackPointExtension>
            <ns3:hr>131</ns3:hr>
            <ns3:cad>53</ns3:cad>
          </ns3:TrackPointExtension>
        </extensions>
      </trkpt>
      <trkpt lat="45.3462723456323146820068359375" lon="-70.812894590198993682861328125">
        <ele>701.20001220703125</ele>
        <time>2026-08-21T11:28:10.000Z</time>
        <extensions>
          <ns3:TrackPointExtension>
            <ns3:hr>130</ns3:hr>
            <ns3:cad>53</ns3:cad>
          </ns3:TrackPointExtension>
        </extensions>
      </trkpt>
      <trkpt lat="45.3462691605091094970703125" lon="-70.8129138685762882232666015625">
        <ele>701.20001220703125</ele>
        <time>2026-08-21T11:28:11.000Z</time>
        <extensions>
          <ns3:TrackPointExtension>
            <ns3:hr>129</ns3:hr>
            <ns3:cad>55</ns3:cad>
          </ns3:TrackPointExtension>
        </extensions>
      </trkpt>
      <trkpt lat="45.34626874141395092010498046875" lon="-70.81293339841067790985107421875">
        <ele>701.4000244140625</ele>
        <time>2026-08-21T11:28:12.000Z</time>
        <extensions>
          <ns3:TrackPointExtension>
            <ns3:hr>129</ns3:hr>
            <ns3:cad>55</ns3:cad>
          </ns3:TrackPointExtension>
        </extensions>
      </trkpt>
      <trkpt lat="45.34626723267138004302978515625" lon="-70.812949575483798980712890625">
        <ele>701.4000244140625</ele>
        <time>2026-08-21T11:28:13.000Z</time>
        <extensions>
          <ns3:TrackPointExtension>
            <ns3:hr>128</ns3:hr>
            <ns3:cad>55</ns3:cad>
          </ns3:TrackPointExtension>
        </extensions>
      </trkpt>
      <trkpt lat="45.3462686575949192047119140625" lon="-70.812964998185634613037109375">
        <ele>701.4000244140625</ele>
        <time>2026-08-21T11:28:14.000Z</time>
        <extensions>
          <ns3:TrackPointExtension>
            <ns3:hr>128</ns3:hr>
            <ns3:cad>55</ns3:cad>
          </ns3:TrackPointExtension>
        </extensions>
      </trkpt>
      <trkpt lat="45.346263460814952850341796875" lon="-70.81297949887812137603759765625">
        <ele>701.5999755859375</ele>
        <time>2026-08-21T11:28:15.000Z</time>
        <extensions>
          <ns3:TrackPointExtension>
            <ns3:hr>128</ns3:hr>
            <ns3:cad>53</ns3:cad>
          </ns3:TrackPointExtension>
        </extensions>
      </trkpt>
      <trkpt lat="45.34625968895852565765380859375" lon="-70.8129961788654327392578125">
        <ele>701.5999755859375</ele>
        <time>2026-08-21T11:28:16.000Z</time>
        <extensions>
          <ns3:TrackPointExtension>
            <ns3:hr>128</ns3:hr>
            <ns3:cad>52</ns3:cad>
          </ns3:TrackPointExtension>
        </extensions>
      </trkpt>
      <trkpt lat="45.34625583328306674957275390625" lon="-70.813012607395648956298828125">
        <ele>701.79998779296875</ele>
        <time>2026-08-21T11:28:17.000Z</time>
        <extensions>
          <ns3:TrackPointExtension>
            <ns3:hr>127</ns3:hr>
            <ns3:cad>52</ns3:cad>
          </ns3:TrackPointExtension>
        </extensions>
      </trkpt>
      <trkpt lat="45.34625046886503696441650390625" lon="-70.81303146667778491973876953125">
        <ele>701.79998779296875</ele>
        <time>2026-08-21T11:28:18.000Z</time>
        <extensions>
          <ns3:TrackPointExtension>
            <ns3:hr>127</ns3:hr>
            <ns3:cad>49</ns3:cad>
          </ns3:TrackPointExtension>
        </extensions>
      </trkpt>
      <trkpt lat="45.34624409861862659454345703125" lon="-70.8130471408367156982421875">
        <ele>701.79998779296875</ele>
        <time>2026-08-21T11:28:19.000Z</time>
        <extensions>
          <ns3:TrackPointExtension>
            <ns3:hr>127</ns3:hr>
            <ns3:cad>49</ns3:cad>
          </ns3:TrackPointExtension>
        </extensions>
      </trkpt>
      <trkpt lat="45.346237979829311370849609375" lon="-70.81306030042469501495361328125">
        <ele>701.79998779296875</ele>
        <time>2026-08-21T11:28:20.000Z</time>
        <extensions>
          <ns3:TrackPointExtension>
            <ns3:hr>126</ns3:hr>
            <ns3:cad>49</ns3:cad>
          </ns3:TrackPointExtension>
        </extensions>
      </trkpt>
      <trkpt lat="45.34623437561094760894775390625" lon="-70.81307538785040378570556640625">
        <ele>701.79998779296875</ele>
        <time>2026-08-21T11:28:21.000Z</time>
        <extensions>
          <ns3:TrackPointExtension>
            <ns3:hr>125</ns3:hr>
            <ns3:cad>51</ns3:cad>
          </ns3:TrackPointExtension>
        </extensions>
      </trkpt>
      <trkpt lat="45.34623135812580585479736328125" lon="-70.81308997236192226409912109375">
        <ele>702</ele>
        <time>2026-08-21T11:28:22.000Z</time>
        <extensions>
          <ns3:TrackPointExtension>
            <ns3:hr>124</ns3:hr>
            <ns3:cad>51</ns3:cad>
          </ns3:TrackPointExtension>
        </extensions>
      </trkpt>
      <trkpt lat="45.34622817300260066986083984375" lon="-70.81310355104506015777587890625">
        <ele>702.20001220703125</ele>
        <time>2026-08-21T11:28:23.000Z</time>
        <extensions>
          <ns3:TrackPointExtension>
            <ns3:hr>124</ns3:hr>
            <ns3:cad>54</ns3:cad>
          </ns3:TrackPointExtension>
        </extensions>
      </trkpt>
      <trkpt lat="45.34622599370777606964111328125" lon="-70.81312065012753009796142578125">
        <ele>702.4000244140625</ele>
        <time>2026-08-21T11:28:24.000Z</time>
        <extensions>
          <ns3:TrackPointExtension>
            <ns3:hr>124</ns3:hr>
            <ns3:cad>54</ns3:cad>
          </ns3:TrackPointExtension>
        </extensions>
      </trkpt>
      <trkpt lat="45.34622146748006343841552734375" lon="-70.81313741393387317657470703125">
        <ele>702.4000244140625</ele>
        <time>2026-08-21T11:28:25.000Z</time>
        <extensions>
          <ns3:TrackPointExtension>
            <ns3:hr>125</ns3:hr>
            <ns3:cad>51</ns3:cad>
          </ns3:TrackPointExtension>
        </extensions>
      </trkpt>
      <trkpt lat="45.34621979109942913055419921875" lon="-70.8131519146263599395751953125">
        <ele>702.4000244140625</ele>
        <time>2026-08-21T11:28:26.000Z</time>
        <extensions>
          <ns3:TrackPointExtension>
            <ns3:hr>125</ns3:hr>
            <ns3:cad>50</ns3:cad>
          </ns3:TrackPointExtension>
        </extensions>
      </trkpt>
      <trkpt lat="45.3462190367281436920166015625" lon="-70.81316716969013214111328125">
        <ele>702.5999755859375</ele>
        <time>2026-08-21T11:28:27.000Z</time>
        <extensions>
          <ns3:TrackPointExtension>
            <ns3:hr>125</ns3:hr>
            <ns3:cad>50</ns3:cad>
          </ns3:TrackPointExtension>
        </extensions>
      </trkpt>
      <trkpt lat="45.3462146781384944915771484375" lon="-70.81318770535290241241455078125">
        <ele>702.5999755859375</ele>
        <time>2026-08-21T11:28:28.000Z</time>
        <extensions>
          <ns3:TrackPointExtension>
            <ns3:hr>124</ns3:hr>
            <ns3:cad>50</ns3:cad>
          </ns3:TrackPointExtension>
        </extensions>
      </trkpt>
      <trkpt lat="45.3462101519107818603515625" lon="-70.81320648081600666046142578125">
        <ele>702.5999755859375</ele>
        <time>2026-08-21T11:28:29.000Z</time>
        <extensions>
          <ns3:TrackPointExtension>
            <ns3:hr>124</ns3:hr>
            <ns3:cad>50</ns3:cad>
          </ns3:TrackPointExtension>
        </extensions>
      </trkpt>
      <trkpt lat="45.346206128597259521484375" lon="-70.81322425045073032379150390625">
        <ele>702.5999755859375</ele>
        <time>2026-08-21T11:28:30.000Z</time>
        <extensions>
          <ns3:TrackPointExtension>
            <ns3:hr>124</ns3:hr>
            <ns3:cad>50</ns3:cad>
          </ns3:TrackPointExtension>
        </extensions>
      </trkpt>
      <trkpt lat="45.34620537422597408294677734375" lon="-70.81324922852218151092529296875">
        <ele>702.5999755859375</ele>
        <time>2026-08-21T11:28:31.000Z</time>
        <extensions>
          <ns3:TrackPointExtension>
            <ns3:hr>124</ns3:hr>
            <ns3:cad>50</ns3:cad>
          </ns3:TrackPointExtension>
        </extensions>
      </trkpt>
      <trkpt lat="45.34620487131178379058837890625" lon="-70.81326683051884174346923828125">
        <ele>702.5999755859375</ele>
        <time>2026-08-21T11:28:32.000Z</time>
        <extensions>
          <ns3:TrackPointExtension>
            <ns3:hr>124</ns3:hr>
            <ns3:cad>49</ns3:cad>
          </ns3:TrackPointExtension>
        </extensions>
      </trkpt>
      <trkpt lat="45.34620151855051517486572265625" lon="-70.813283510506153106689453125">
        <ele>702.79998779296875</ele>
        <time>2026-08-21T11:28:33.000Z</time>
        <extensions>
          <ns3:TrackPointExtension>
            <ns3:hr>125</ns3:hr>
            <ns3:cad>53</ns3:cad>
          </ns3:TrackPointExtension>
        </extensions>
      </trkpt>
      <trkpt lat="45.34619875252246856689453125" lon="-70.813303627073764801025390625">
        <ele>702.79998779296875</ele>
        <time>2026-08-21T11:28:34.000Z</time>
        <extensions>
          <ns3:TrackPointExtension>
            <ns3:hr>125</ns3:hr>
            <ns3:cad>53</ns3:cad>
          </ns3:TrackPointExtension>
        </extensions>
      </trkpt>
      <trkpt lat="45.34619682468473911285400390625" lon="-70.81332282163202762603759765625">
        <ele>702.79998779296875</ele>
        <time>2026-08-21T11:28:35.000Z</time>
        <extensions>
          <ns3:TrackPointExtension>
            <ns3:hr>126</ns3:hr>
            <ns3:cad>51</ns3:cad>
          </ns3:TrackPointExtension>
        </extensions>
      </trkpt>
      <trkpt lat="45.34619598649442195892333984375" lon="-70.813340842723846435546875">
        <ele>702.79998779296875</ele>
        <time>2026-08-21T11:28:36.000Z</time>
        <extensions>
          <ns3:TrackPointExtension>
            <ns3:hr>126</ns3:hr>
            <ns3:cad>51</ns3:cad>
          </ns3:TrackPointExtension>
        </extensions>
      </trkpt>
      <trkpt lat="45.34619481302797794342041015625" lon="-70.8133584447205066680908203125">
        <ele>702.79998779296875</ele>
        <time>2026-08-21T11:28:37.000Z</time>
        <extensions>
          <ns3:TrackPointExtension>
            <ns3:hr>126</ns3:hr>
            <ns3:cad>50</ns3:cad>
          </ns3:TrackPointExtension>
        </extensions>
      </trkpt>
      <trkpt lat="45.3461922146379947662353515625" lon="-70.81337965093553066253662109375">
        <ele>702.79998779296875</ele>
        <time>2026-08-21T11:28:38.000Z</time>
        <extensions>
          <ns3:TrackPointExtension>
            <ns3:hr>126</ns3:hr>
            <ns3:cad>52</ns3:cad>
          </ns3:TrackPointExtension>
        </extensions>
      </trkpt>
      <trkpt lat="45.34619280137121677398681640625" lon="-70.813393481075763702392578125">
        <ele>702.79998779296875</ele>
        <time>2026-08-21T11:28:39.000Z</time>
        <extensions>
          <ns3:TrackPointExtension>
            <ns3:hr>126</ns3:hr>
            <ns3:cad>52</ns3:cad>
          </ns3:TrackPointExtension>
        </extensions>
      </trkpt>
      <trkpt lat="45.34619246609508991241455078125" lon="-70.81340664066374301910400390625">
        <ele>702.5999755859375</ele>
        <time>2026-08-21T11:28:40.000Z</time>
        <extensions>
          <ns3:TrackPointExtension>
            <ns3:hr>126</ns3:hr>
            <ns3:cad>52</ns3:cad>
          </ns3:TrackPointExtension>
        </extensions>
      </trkpt>
      <trkpt lat="45.34618810750544071197509765625" lon="-70.81342063844203948974609375">
        <ele>702.5999755859375</ele>
        <time>2026-08-21T11:28:41.000Z</time>
        <extensions>
          <ns3:TrackPointExtension>
            <ns3:hr>126</ns3:hr>
            <ns3:cad>52</ns3:cad>
          </ns3:TrackPointExtension>
        </extensions>
      </trkpt>
      <trkpt lat="45.346187017858028411865234375" lon="-70.8134315349161624908447265625">
        <ele>702.5999755859375</ele>
        <time>2026-08-21T11:28:42.000Z</time>
        <extensions>
          <ns3:TrackPointExtension>
            <ns3:hr>126</ns3:hr>
            <ns3:cad>50</ns3:cad>
          </ns3:TrackPointExtension>
        </extensions>
      </trkpt>
      <trkpt lat="45.34618542529642581939697265625" lon="-70.8134441077709197998046875">
        <ele>702.5999755859375</ele>
        <time>2026-08-21T11:28:43.000Z</time>
        <extensions>
          <ns3:TrackPointExtension>
            <ns3:hr>126</ns3:hr>
            <ns3:cad>50</ns3:cad>
          </ns3:TrackPointExtension>
        </extensions>
      </trkpt>
      <trkpt lat="45.34618441946804523468017578125" lon="-70.81345978192985057830810546875">
        <ele>702.5999755859375</ele>
        <time>2026-08-21T11:28:44.000Z</time>
        <extensions>
          <ns3:TrackPointExtension>
            <ns3:hr>127</ns3:hr>
            <ns3:cad>49</ns3:cad>
          </ns3:TrackPointExtension>
        </extensions>
      </trkpt>
      <trkpt lat="45.34618073143064975738525390625" lon="-70.81347034312784671783447265625">
        <ele>702.5999755859375</ele>
        <time>2026-08-21T11:28:45.000Z</time>
        <extensions>
          <ns3:TrackPointExtension>
            <ns3:hr>126</ns3:hr>
            <ns3:cad>49</ns3:cad>
          </ns3:TrackPointExtension>
        </extensions>
      </trkpt>
      <trkpt lat="45.34617729485034942626953125" lon="-70.813482664525508880615234375">
        <ele>702.4000244140625</ele>
        <time>2026-08-21T11:28:46.000Z</time>
        <extensions>
          <ns3:TrackPointExtension>
            <ns3:hr>126</ns3:hr>
            <ns3:cad>49</ns3:cad>
          </ns3:TrackPointExtension>
        </extensions>
      </trkpt>
      <trkpt lat="45.34617620520293712615966796875" lon="-70.8134999312460422515869140625">
        <ele>702.4000244140625</ele>
        <time>2026-08-21T11:28:47.000Z</time>
        <extensions>
          <ns3:TrackPointExtension>
            <ns3:hr>127</ns3:hr>
            <ns3:cad>49</ns3:cad>
          </ns3:TrackPointExtension>
        </extensions>
      </trkpt>
      <trkpt lat="45.346173942089080810546875" lon="-70.81351694650948047637939453125">
        <ele>702.20001220703125</ele>
        <time>2026-08-21T11:28:48.000Z</time>
        <extensions>
          <ns3:TrackPointExtension>
            <ns3:hr>127</ns3:hr>
            <ns3:cad>49</ns3:cad>
          </ns3:TrackPointExtension>
        </extensions>
      </trkpt>
      <trkpt lat="45.3461737744510173797607421875" lon="-70.8135317824780941009521484375">
        <ele>702.20001220703125</ele>
        <time>2026-08-21T11:28:49.000Z</time>
        <extensions>
          <ns3:TrackPointExtension>
            <ns3:hr>126</ns3:hr>
            <ns3:cad>50</ns3:cad>
          </ns3:TrackPointExtension>
        </extensions>
      </trkpt>
      <trkpt lat="45.34617603756487369537353515625" lon="-70.81355273723602294921875">
        <ele>702</ele>
        <time>2026-08-21T11:28:50.000Z</time>
        <extensions>
          <ns3:TrackPointExtension>
            <ns3:hr>126</ns3:hr>
            <ns3:cad>50</ns3:cad>
          </ns3:TrackPointExtension>
        </extensions>
      </trkpt>
      <trkpt lat="45.3461767919361591339111328125" lon="-70.813576877117156982421875">
        <ele>701.79998779296875</ele>
        <time>2026-08-21T11:28:51.000Z</time>
        <extensions>
          <ns3:TrackPointExtension>
            <ns3:hr>124</ns3:hr>
            <ns3:cad>50</ns3:cad>
          </ns3:TrackPointExtension>
        </extensions>
      </trkpt>
      <trkpt lat="45.3461784683167934417724609375" lon="-70.81359791569411754608154296875">
        <ele>701.4000244140625</ele>
        <time>2026-08-21T11:28:52.000Z</time>
        <extensions>
          <ns3:TrackPointExtension>
            <ns3:hr>124</ns3:hr>
            <ns3:cad>50</ns3:cad>
          </ns3:TrackPointExtension>
        </extensions>
      </trkpt>
      <trkpt lat="45.3461764566600322723388671875" lon="-70.8136162720620632171630859375">
        <ele>701.20001220703125</ele>
        <time>2026-08-21T11:28:53.000Z</time>
        <extensions>
          <ns3:TrackPointExtension>
            <ns3:hr>124</ns3:hr>
            <ns3:cad>50</ns3:cad>
          </ns3:TrackPointExtension>
        </extensions>
      </trkpt>
      <trkpt lat="45.34617234952747821807861328125" lon="-70.81363127566874027252197265625">
        <ele>701</ele>
        <time>2026-08-21T11:28:54.000Z</time>
        <extensions>
          <ns3:TrackPointExtension>
            <ns3:hr>124</ns3:hr>
            <ns3:cad>55</ns3:cad>
          </ns3:TrackPointExtension>
        </extensions>
      </trkpt>
      <trkpt lat="45.34616765566170215606689453125" lon="-70.81364569254219532012939453125">
        <ele>700.79998779296875</ele>
        <time>2026-08-21T11:28:55.000Z</time>
        <extensions>
          <ns3:TrackPointExtension>
            <ns3:hr>124</ns3:hr>
            <ns3:cad>55</ns3:cad>
          </ns3:TrackPointExtension>
        </extensions>
      </trkpt>
      <trkpt lat="45.3461576811969280242919921875" lon="-70.81365935504436492919921875">
        <ele>700.5999755859375</ele>
        <time>2026-08-21T11:28:56.000Z</time>
        <extensions>
          <ns3:TrackPointExtension>
            <ns3:hr>124</ns3:hr>
            <ns3:cad>61</ns3:cad>
          </ns3:TrackPointExtension>
        </extensions>
      </trkpt>
      <trkpt lat="45.346152149140834808349609375" lon="-70.8136826567351818084716796875">
        <ele>700.5999755859375</ele>
        <time>2026-08-21T11:28:57.000Z</time>
        <extensions>
          <ns3:TrackPointExtension>
            <ns3:hr>124</ns3:hr>
            <ns3:cad>62</ns3:cad>
          </ns3:TrackPointExtension>
        </extensions>
      </trkpt>
      <trkpt lat="45.346142090857028961181640625" lon="-70.81370805390179157257080078125">
        <ele>700.5999755859375</ele>
        <time>2026-08-21T11:28:58.000Z</time>
        <extensions>
          <ns3:TrackPointExtension>
            <ns3:hr>123</ns3:hr>
            <ns3:cad>62</ns3:cad>
          </ns3:TrackPointExtension>
        </extensions>
      </trkpt>
      <trkpt lat="45.34613530151546001434326171875" lon="-70.81372439861297607421875">
        <ele>700.5999755859375</ele>
        <time>2026-08-21T11:28:59.000Z</time>
        <extensions>
          <ns3:TrackPointExtension>
            <ns3:hr>123</ns3:hr>
            <ns3:cad>55</ns3:cad>
          </ns3:TrackPointExtension>
        </extensions>
      </trkpt>
      <trkpt lat="45.34613228403031826019287109375" lon="-70.81374057568609714508056640625">
        <ele>700.79998779296875</ele>
        <time>2026-08-21T11:29:00.000Z</time>
        <extensions>
          <ns3:TrackPointExtension>
            <ns3:hr>123</ns3:hr>
            <ns3:cad>55</ns3:cad>
          </ns3:TrackPointExtension>
        </extensions>
      </trkpt>
      <trkpt lat="45.34613144584000110626220703125" lon="-70.813754238188266754150390625">
        <ele>701</ele>
        <time>2026-08-21T11:29:01.000Z</time>
        <extensions>
          <ns3:TrackPointExtension>
            <ns3:hr>123</ns3:hr>
            <ns3:cad>55</ns3:cad>
          </ns3:TrackPointExtension>
        </extensions>
      </trkpt>
      <trkpt lat="45.3461285121738910675048828125" lon="-70.81377242691814899444580078125">
        <ele>701.20001220703125</ele>
        <time>2026-08-21T11:29:02.000Z</time>
        <extensions>
          <ns3:TrackPointExtension>
            <ns3:hr>122</ns3:hr>
            <ns3:cad>55</ns3:cad>
          </ns3:TrackPointExtension>
        </extensions>
      </trkpt>
      <trkpt lat="45.3461275063455104827880859375" lon="-70.8137899450957775115966796875">
        <ele>701.5999755859375</ele>
        <time>2026-08-21T11:29:03.000Z</time>
        <extensions>
          <ns3:TrackPointExtension>
            <ns3:hr>123</ns3:hr>
            <ns3:cad>55</ns3:cad>
          </ns3:TrackPointExtension>
        </extensions>
      </trkpt>
      <trkpt lat="45.3461243212223052978515625" lon="-70.81380662508308887481689453125">
        <ele>701.79998779296875</ele>
        <time>2026-08-21T11:29:04.000Z</time>
        <extensions>
          <ns3:TrackPointExtension>
            <ns3:hr>123</ns3:hr>
            <ns3:cad>51</ns3:cad>
          </ns3:TrackPointExtension>
        </extensions>
      </trkpt>
      <trkpt lat="45.3461208008229732513427734375" lon="-70.813824646174907684326171875">
        <ele>701.79998779296875</ele>
        <time>2026-08-21T11:29:05.000Z</time>
        <extensions>
          <ns3:TrackPointExtension>
            <ns3:hr>122</ns3:hr>
            <ns3:cad>51</ns3:cad>
          </ns3:TrackPointExtension>
        </extensions>
      </trkpt>
      <trkpt lat="45.3461161069571971893310546875" lon="-70.813840068876743316650390625">
        <ele>702</ele>
        <time>2026-08-21T11:29:06.000Z</time>
        <extensions>
          <ns3:TrackPointExtension>
            <ns3:hr>122</ns3:hr>
            <ns3:cad>49</ns3:cad>
          </ns3:TrackPointExtension>
        </extensions>
      </trkpt>
      <trkpt lat="45.3461134247481822967529296875" lon="-70.81385993398725986480712890625">
        <ele>702</ele>
        <time>2026-08-21T11:29:07.000Z</time>
        <extensions>
          <ns3:TrackPointExtension>
            <ns3:hr>122</ns3:hr>
            <ns3:cad>49</ns3:cad>
          </ns3:TrackPointExtension>
        </extensions>
      </trkpt>
      <trkpt lat="45.34611267037689685821533203125" lon="-70.8138813078403472900390625">
        <ele>702</ele>
        <time>2026-08-21T11:29:08.000Z</time>
        <extensions>
          <ns3:TrackPointExtension>
            <ns3:hr>122</ns3:hr>
            <ns3:cad>49</ns3:cad>
          </ns3:TrackPointExtension>
        </extensions>
      </trkpt>
      <trkpt lat="45.346113257110118865966796875" lon="-70.8139036037027835845947265625">
        <ele>702</ele>
        <time>2026-08-21T11:29:09.000Z</time>
        <extensions>
          <ns3:TrackPointExtension>
            <ns3:hr>122</ns3:hr>
            <ns3:cad>51</ns3:cad>
          </ns3:TrackPointExtension>
        </extensions>
      </trkpt>
      <trkpt lat="45.34611350856721401214599609375" lon="-70.81392715685069561004638671875">
        <ele>702</ele>
        <time>2026-08-21T11:29:10.000Z</time>
        <extensions>
          <ns3:TrackPointExtension>
            <ns3:hr>122</ns3:hr>
            <ns3:cad>51</ns3:cad>
          </ns3:TrackPointExtension>
        </extensions>
      </trkpt>
      <trkpt lat="45.346115939319133758544921875" lon="-70.81394559703767299652099609375">
        <ele>702</ele>
        <time>2026-08-21T11:29:11.000Z</time>
        <extensions>
          <ns3:TrackPointExtension>
            <ns3:hr>121</ns3:hr>
            <ns3:cad>51</ns3:cad>
          </ns3:TrackPointExtension>
        </extensions>
      </trkpt>
      <trkpt lat="45.34611585550010204315185546875" lon="-70.81396671943366527557373046875">
        <ele>702</ele>
        <time>2026-08-21T11:29:12.000Z</time>
        <extensions>
          <ns3:TrackPointExtension>
            <ns3:hr>122</ns3:hr>
            <ns3:cad>51</ns3:cad>
          </ns3:TrackPointExtension>
        </extensions>
      </trkpt>
      <trkpt lat="45.34611786715686321258544921875" lon="-70.81398298032581806182861328125">
        <ele>702</ele>
        <time>2026-08-21T11:29:13.000Z</time>
        <extensions>
          <ns3:TrackPointExtension>
            <ns3:hr>121</ns3:hr>
            <ns3:cad>52</ns3:cad>
          </ns3:TrackPointExtension>
        </extensions>
      </trkpt>
      <trkpt lat="45.3461194597184658050537109375" lon="-70.8140018396079540252685546875">
        <ele>702.20001220703125</ele>
        <time>2026-08-21T11:29:14.000Z</time>
        <extensions>
          <ns3:TrackPointExtension>
            <ns3:hr>121</ns3:hr>
            <ns3:cad>52</ns3:cad>
          </ns3:TrackPointExtension>
        </extensions>
      </trkpt>
      <trkpt lat="45.34612272866070270538330078125" lon="-70.814016759395599365234375">
        <ele>702.20001220703125</ele>
        <time>2026-08-21T11:29:15.000Z</time>
        <extensions>
          <ns3:TrackPointExtension>
            <ns3:hr>120</ns3:hr>
            <ns3:cad>57</ns3:cad>
          </ns3:TrackPointExtension>
        </extensions>
      </trkpt>
      <trkpt lat="45.346126668155193328857421875" lon="-70.81403410993516445159912109375">
        <ele>702.4000244140625</ele>
        <time>2026-08-21T11:29:16.000Z</time>
        <extensions>
          <ns3:TrackPointExtension>
            <ns3:hr>120</ns3:hr>
            <ns3:cad>57</ns3:cad>
          </ns3:TrackPointExtension>
        </extensions>
      </trkpt>
      <trkpt lat="45.3461296856403350830078125" lon="-70.81405405886471271514892578125">
        <ele>702.5999755859375</ele>
        <time>2026-08-21T11:29:17.000Z</time>
        <extensions>
          <ns3:TrackPointExtension>
            <ns3:hr>120</ns3:hr>
            <ns3:cad>57</ns3:cad>
          </ns3:TrackPointExtension>
        </extensions>
      </trkpt>
      <trkpt lat="45.34613379277288913726806640625" lon="-70.81407467834651470184326171875">
        <ele>702.79998779296875</ele>
        <time>2026-08-21T11:29:18.000Z</time>
        <extensions>
          <ns3:TrackPointExtension>
            <ns3:hr>120</ns3:hr>
            <ns3:cad>57</ns3:cad>
          </ns3:TrackPointExtension>
        </extensions>
      </trkpt>
      <trkpt lat="45.3461372293531894683837890625" lon="-70.8140947110950946807861328125">
        <ele>702.79998779296875</ele>
        <time>2026-08-21T11:29:19.000Z</time>
        <extensions>
          <ns3:TrackPointExtension>
            <ns3:hr>119</ns3:hr>
            <ns3:cad>57</ns3:cad>
          </ns3:TrackPointExtension>
        </extensions>
      </trkpt>
      <trkpt lat="45.34613831900060176849365234375" lon="-70.81411206163465976715087890625">
        <ele>702.79998779296875</ele>
        <time>2026-08-21T11:29:20.000Z</time>
        <extensions>
          <ns3:TrackPointExtension>
            <ns3:hr>118</ns3:hr>
            <ns3:cad>52</ns3:cad>
          </ns3:TrackPointExtension>
        </extensions>
      </trkpt>
      <trkpt lat="45.346137396991252899169921875" lon="-70.8141307532787322998046875">
        <ele>702.79998779296875</ele>
        <time>2026-08-21T11:29:21.000Z</time>
        <extensions>
          <ns3:TrackPointExtension>
            <ns3:hr>118</ns3:hr>
            <ns3:cad>52</ns3:cad>
          </ns3:TrackPointExtension>
        </extensions>
      </trkpt>
      <trkpt lat="45.346138067543506622314453125" lon="-70.81414994783699512481689453125">
        <ele>702.79998779296875</ele>
        <time>2026-08-21T11:29:22.000Z</time>
        <extensions>
          <ns3:TrackPointExtension>
            <ns3:hr>118</ns3:hr>
            <ns3:cad>52</ns3:cad>
          </ns3:TrackPointExtension>
        </extensions>
      </trkpt>
      <trkpt lat="45.3461409173905849456787109375" lon="-70.8141684718430042266845703125">
        <ele>702.79998779296875</ele>
        <time>2026-08-21T11:29:23.000Z</time>
        <extensions>
          <ns3:TrackPointExtension>
            <ns3:hr>118</ns3:hr>
            <ns3:cad>52</ns3:cad>
          </ns3:TrackPointExtension>
        </extensions>
      </trkpt>
      <trkpt lat="45.34614250995218753814697265625" lon="-70.81418900750577449798583984375">
        <ele>702.79998779296875</ele>
        <time>2026-08-21T11:29:24.000Z</time>
        <extensions>
          <ns3:TrackPointExtension>
            <ns3:hr>117</ns3:hr>
            <ns3:cad>52</ns3:cad>
          </ns3:TrackPointExtension>
        </extensions>
      </trkpt>
      <trkpt lat="45.34614167176187038421630859375" lon="-70.81420920789241790771484375">
        <ele>703</ele>
        <time>2026-08-21T11:29:25.000Z</time>
        <extensions>
          <ns3:TrackPointExtension>
            <ns3:hr>117</ns3:hr>
            <ns3:cad>52</ns3:cad>
          </ns3:TrackPointExtension>
        </extensions>
      </trkpt>
      <trkpt lat="45.346140079200267791748046875" lon="-70.814222954213619232177734375">
        <ele>703</ele>
        <time>2026-08-21T11:29:26.000Z</time>
        <extensions>
          <ns3:TrackPointExtension>
            <ns3:hr>117</ns3:hr>
            <ns3:cad>52</ns3:cad>
          </ns3:TrackPointExtension>
        </extensions>
      </trkpt>
      <trkpt lat="45.346138738095760345458984375" lon="-70.814241729676723480224609375">
        <ele>703</ele>
        <time>2026-08-21T11:29:27.000Z</time>
        <extensions>
          <ns3:TrackPointExtension>
            <ns3:hr>116</ns3:hr>
            <ns3:cad>52</ns3:cad>
          </ns3:TrackPointExtension>
        </extensions>
      </trkpt>
      <trkpt lat="45.346133708953857421875" lon="-70.81425639800727367401123046875">
        <ele>703</ele>
        <time>2026-08-21T11:29:28.000Z</time>
        <extensions>
          <ns3:TrackPointExtension>
            <ns3:hr>116</ns3:hr>
            <ns3:cad>52</ns3:cad>
          </ns3:TrackPointExtension>
        </extensions>
      </trkpt>
      <trkpt lat="45.346131026744842529296875" lon="-70.8142717368900775909423828125">
        <ele>702.79998779296875</ele>
        <time>2026-08-21T11:29:29.000Z</time>
        <extensions>
          <ns3:TrackPointExtension>
            <ns3:hr>117</ns3:hr>
            <ns3:cad>52</ns3:cad>
          </ns3:TrackPointExtension>
        </extensions>
      </trkpt>
      <trkpt lat="45.34612792544066905975341796875" lon="-70.81428674049675464630126953125">
        <ele>702.79998779296875</ele>
        <time>2026-08-21T11:29:30.000Z</time>
        <extensions>
          <ns3:TrackPointExtension>
            <ns3:hr>117</ns3:hr>
            <ns3:cad>57</ns3:cad>
          </ns3:TrackPointExtension>
        </extensions>
      </trkpt>
      <trkpt lat="45.34612608142197132110595703125" lon="-70.814304761588573455810546875">
        <ele>702.79998779296875</ele>
        <time>2026-08-21T11:29:31.000Z</time>
        <extensions>
          <ns3:TrackPointExtension>
            <ns3:hr>118</ns3:hr>
            <ns3:cad>57</ns3:cad>
          </ns3:TrackPointExtension>
        </extensions>
      </trkpt>
      <trkpt lat="45.34612365067005157470703125" lon="-70.8143243752419948577880859375">
        <ele>703</ele>
        <time>2026-08-21T11:29:32.000Z</time>
        <extensions>
          <ns3:TrackPointExtension>
            <ns3:hr>120</ns3:hr>
            <ns3:cad>57</ns3:cad>
          </ns3:TrackPointExtension>
        </extensions>
      </trkpt>
      <trkpt lat="45.346121974289417266845703125" lon="-70.81434256397187709808349609375">
        <ele>703</ele>
        <time>2026-08-21T11:29:33.000Z</time>
        <extensions>
          <ns3:TrackPointExtension>
            <ns3:hr>121</ns3:hr>
            <ns3:cad>54</ns3:cad>
          </ns3:TrackPointExtension>
        </extensions>
      </trkpt>
      <trkpt lat="45.3461228124797344207763671875" lon="-70.814363099634647369384765625">
        <ele>703.20001220703125</ele>
        <time>2026-08-21T11:29:34.000Z</time>
        <extensions>
          <ns3:TrackPointExtension>
            <ns3:hr>122</ns3:hr>
            <ns3:cad>54</ns3:cad>
          </ns3:TrackPointExtension>
        </extensions>
      </trkpt>
      <trkpt lat="45.346123315393924713134765625" lon="-70.81438179127871990203857421875">
        <ele>703.20001220703125</ele>
        <time>2026-08-21T11:29:35.000Z</time>
        <extensions>
          <ns3:TrackPointExtension>
            <ns3:hr>123</ns3:hr>
            <ns3:cad>53</ns3:cad>
          </ns3:TrackPointExtension>
        </extensions>
      </trkpt>
      <trkpt lat="45.34612641669809818267822265625" lon="-70.81440241076052188873291015625">
        <ele>703.20001220703125</ele>
        <time>2026-08-21T11:29:36.000Z</time>
        <extensions>
          <ns3:TrackPointExtension>
            <ns3:hr>124</ns3:hr>
            <ns3:cad>53</ns3:cad>
          </ns3:TrackPointExtension>
        </extensions>
      </trkpt>
      <trkpt lat="45.3461275063455104827880859375" lon="-70.81441699527204036712646484375">
        <ele>703.20001220703125</ele>
        <time>2026-08-21T11:29:37.000Z</time>
        <extensions>
          <ns3:TrackPointExtension>
            <ns3:hr>126</ns3:hr>
            <ns3:cad>51</ns3:cad>
          </ns3:TrackPointExtension>
        </extensions>
      </trkpt>
      <trkpt lat="45.34612742252647876739501953125" lon="-70.8144330047070980072021484375">
        <ele>703.20001220703125</ele>
        <time>2026-08-21T11:29:38.000Z</time>
        <extensions>
          <ns3:TrackPointExtension>
            <ns3:hr>128</ns3:hr>
            <ns3:cad>51</ns3:cad>
          </ns3:TrackPointExtension>
        </extensions>
      </trkpt>
      <trkpt lat="45.34612172283232212066650390625" lon="-70.81445035524666309356689453125">
        <ele>703.20001220703125</ele>
        <time>2026-08-21T11:29:39.000Z</time>
        <extensions>
          <ns3:TrackPointExtension>
            <ns3:hr>129</ns3:hr>
            <ns3:cad>53</ns3:cad>
          </ns3:TrackPointExtension>
        </extensions>
      </trkpt>
      <trkpt lat="45.3461154364049434661865234375" lon="-70.81446628086268901824951171875">
        <ele>703.4000244140625</ele>
        <time>2026-08-21T11:29:40.000Z</time>
        <extensions>
          <ns3:TrackPointExtension>
            <ns3:hr>129</ns3:hr>
            <ns3:cad>53</ns3:cad>
          </ns3:TrackPointExtension>
        </extensions>
      </trkpt>
      <trkpt lat="45.346111916005611419677734375" lon="-70.81448270939290523529052734375">
        <ele>703.4000244140625</ele>
        <time>2026-08-21T11:29:41.000Z</time>
        <extensions>
          <ns3:TrackPointExtension>
            <ns3:hr>129</ns3:hr>
            <ns3:cad>53</ns3:cad>
          </ns3:TrackPointExtension>
        </extensions>
      </trkpt>
      <trkpt lat="45.346107892692089080810546875" lon="-70.81450198777019977569580078125">
        <ele>703.4000244140625</ele>
        <time>2026-08-21T11:29:42.000Z</time>
        <extensions>
          <ns3:TrackPointExtension>
            <ns3:hr>128</ns3:hr>
            <ns3:cad>55</ns3:cad>
          </ns3:TrackPointExtension>
        </extensions>
      </trkpt>
      <trkpt lat="45.34610529430210590362548828125" lon="-70.81451942212879657745361328125">
        <ele>703.5999755859375</ele>
        <time>2026-08-21T11:29:43.000Z</time>
        <extensions>
          <ns3:TrackPointExtension>
            <ns3:hr>128</ns3:hr>
            <ns3:cad>55</ns3:cad>
          </ns3:TrackPointExtension>
        </extensions>
      </trkpt>
      <trkpt lat="45.3461028635501861572265625" lon="-70.81453752703964710235595703125">
        <ele>703.5999755859375</ele>
        <time>2026-08-21T11:29:44.000Z</time>
        <extensions>
          <ns3:TrackPointExtension>
            <ns3:hr>128</ns3:hr>
            <ns3:cad>55</ns3:cad>
          </ns3:TrackPointExtension>
        </extensions>
      </trkpt>
      <trkpt lat="45.3461043722927570343017578125" lon="-70.8145543746650218963623046875">
        <ele>703.5999755859375</ele>
        <time>2026-08-21T11:29:45.000Z</time>
        <extensions>
          <ns3:TrackPointExtension>
            <ns3:hr>128</ns3:hr>
            <ns3:cad>55</ns3:cad>
          </ns3:TrackPointExtension>
        </extensions>
      </trkpt>
      <trkpt lat="45.346104539930820465087890625" lon="-70.81457172520458698272705078125">
        <ele>703.79998779296875</ele>
        <time>2026-08-21T11:29:46.000Z</time>
        <extensions>
          <ns3:TrackPointExtension>
            <ns3:hr>128</ns3:hr>
            <ns3:cad>55</ns3:cad>
          </ns3:TrackPointExtension>
        </extensions>
      </trkpt>
      <trkpt lat="45.34610294736921787261962890625" lon="-70.81459008157253265380859375">
        <ele>703.79998779296875</ele>
        <time>2026-08-21T11:29:47.000Z</time>
        <extensions>
          <ns3:TrackPointExtension>
            <ns3:hr>128</ns3:hr>
            <ns3:cad>57</ns3:cad>
          </ns3:TrackPointExtension>
        </extensions>
      </trkpt>
      <trkpt lat="45.34609951078891754150390625" lon="-70.814610533416271209716796875">
        <ele>704</ele>
        <time>2026-08-21T11:29:48.000Z</time>
        <extensions>
          <ns3:TrackPointExtension>
            <ns3:hr>128</ns3:hr>
            <ns3:cad>57</ns3:cad>
          </ns3:TrackPointExtension>
        </extensions>
      </trkpt>
      <trkpt lat="45.34609557129442691802978515625" lon="-70.81462687812745571136474609375">
        <ele>704</ele>
        <time>2026-08-21T11:29:49.000Z</time>
        <extensions>
          <ns3:TrackPointExtension>
            <ns3:hr>129</ns3:hr>
            <ns3:cad>53</ns3:cad>
          </ns3:TrackPointExtension>
        </extensions>
      </trkpt>
      <trkpt lat="45.34609439782798290252685546875" lon="-70.814646743237972259521484375">
        <ele>704</ele>
        <time>2026-08-21T11:29:50.000Z</time>
        <extensions>
          <ns3:TrackPointExtension>
            <ns3:hr>129</ns3:hr>
            <ns3:cad>52</ns3:cad>
          </ns3:TrackPointExtension>
        </extensions>
      </trkpt>
      <trkpt lat="45.34609272144734859466552734375" lon="-70.81466660834848880767822265625">
        <ele>704</ele>
        <time>2026-08-21T11:29:51.000Z</time>
        <extensions>
          <ns3:TrackPointExtension>
            <ns3:hr>128</ns3:hr>
            <ns3:cad>52</ns3:cad>
          </ns3:TrackPointExtension>
        </extensions>
      </trkpt>
      <trkpt lat="45.34609322436153888702392578125" lon="-70.814687311649322509765625">
        <ele>704</ele>
        <time>2026-08-21T11:29:52.000Z</time>
        <extensions>
          <ns3:TrackPointExtension>
            <ns3:hr>127</ns3:hr>
            <ns3:cad>52</ns3:cad>
          </ns3:TrackPointExtension>
        </extensions>
      </trkpt>
      <trkpt lat="45.34609087742865085601806640625" lon="-70.81470197997987270355224609375">
        <ele>703.79998779296875</ele>
        <time>2026-08-21T11:29:53.000Z</time>
        <extensions>
          <ns3:TrackPointExtension>
            <ns3:hr>125</ns3:hr>
            <ns3:cad>52</ns3:cad>
          </ns3:TrackPointExtension>
        </extensions>
      </trkpt>
      <trkpt lat="45.346089117228984832763671875" lon="-70.814717821776866912841796875">
        <ele>703.79998779296875</ele>
        <time>2026-08-21T11:29:54.000Z</time>
        <extensions>
          <ns3:TrackPointExtension>
            <ns3:hr>124</ns3:hr>
            <ns3:cad>53</ns3:cad>
          </ns3:TrackPointExtension>
        </extensions>
      </trkpt>
      <trkpt lat="45.346088446676731109619140625" lon="-70.8147340826690196990966796875">
        <ele>703.5999755859375</ele>
        <time>2026-08-21T11:29:55.000Z</time>
        <extensions>
          <ns3:TrackPointExtension>
            <ns3:hr>124</ns3:hr>
            <ns3:cad>53</ns3:cad>
          </ns3:TrackPointExtension>
        </extensions>
      </trkpt>
      <trkpt lat="45.34608501009643077850341796875" lon="-70.814749337732791900634765625">
        <ele>703.4000244140625</ele>
        <time>2026-08-21T11:29:56.000Z</time>
        <extensions>
          <ns3:TrackPointExtension>
            <ns3:hr>124</ns3:hr>
            <ns3:cad>53</ns3:cad>
          </ns3:TrackPointExtension>
        </extensions>
      </trkpt>
      <trkpt lat="45.346080400049686431884765625" lon="-70.81476232968270778656005859375">
        <ele>703.20001220703125</ele>
        <time>2026-08-21T11:29:57.000Z</time>
        <extensions>
          <ns3:TrackPointExtension>
            <ns3:hr>125</ns3:hr>
            <ns3:cad>53</ns3:cad>
          </ns3:TrackPointExtension>
        </extensions>
      </trkpt>
      <trkpt lat="45.346073694527149200439453125" lon="-70.81477322615683078765869140625">
        <ele>703</ele>
        <time>2026-08-21T11:29:58.000Z</time>
        <extensions>
          <ns3:TrackPointExtension>
            <ns3:hr>125</ns3:hr>
            <ns3:cad>53</ns3:cad>
          </ns3:TrackPointExtension>
        </extensions>
      </trkpt>
      <trkpt lat="45.34606874920427799224853515625" lon="-70.814789570868015289306640625">
        <ele>702.79998779296875</ele>
        <time>2026-08-21T11:29:59.000Z</time>
        <extensions>
          <ns3:TrackPointExtension>
            <ns3:hr>125</ns3:hr>
            <ns3:cad>54</ns3:cad>
          </ns3:TrackPointExtension>
        </extensions>
      </trkpt>
      <trkpt lat="45.3460658155381679534912109375" lon="-70.8148088492453098297119140625">
        <ele>702.79998779296875</ele>
        <time>2026-08-21T11:30:00.000Z</time>
        <extensions>
          <ns3:TrackPointExtension>
            <ns3:hr>125</ns3:hr>
            <ns3:cad>54</ns3:cad>
          </ns3:TrackPointExtension>
        </extensions>
      </trkpt>
      <trkpt lat="45.34606472589075565338134765625" lon="-70.8148249424993991851806640625">
        <ele>702.79998779296875</ele>
        <time>2026-08-21T11:30:01.000Z</time>
        <extensions>
          <ns3:TrackPointExtension>
            <ns3:hr>125</ns3:hr>
            <ns3:cad>56</ns3:cad>
          </ns3:TrackPointExtension>
        </extensions>
      </trkpt>
      <trkpt lat="45.3460641391575336456298828125" lon="-70.81484329886734485626220703125">
        <ele>702.79998779296875</ele>
        <time>2026-08-21T11:30:02.000Z</time>
        <extensions>
          <ns3:TrackPointExtension>
            <ns3:hr>124</ns3:hr>
            <ns3:cad>56</ns3:cad>
          </ns3:TrackPointExtension>
        </extensions>
      </trkpt>
      <trkpt lat="45.3460634686052799224853515625" lon="-70.814859978854656219482421875">
        <ele>702.79998779296875</ele>
        <time>2026-08-21T11:30:03.000Z</time>
        <extensions>
          <ns3:TrackPointExtension>
            <ns3:hr>124</ns3:hr>
            <ns3:cad>56</ns3:cad>
          </ns3:TrackPointExtension>
        </extensions>
      </trkpt>
      <trkpt lat="45.34606472589075565338134765625" lon="-70.81487950868904590606689453125">
        <ele>702.79998779296875</ele>
        <time>2026-08-21T11:30:04.000Z</time>
        <extensions>
          <ns3:TrackPointExtension>
            <ns3:hr>124</ns3:hr>
            <ns3:cad>56</ns3:cad>
          </ns3:TrackPointExtension>
        </extensions>
      </trkpt>
      <trkpt lat="45.34606506116688251495361328125" lon="-70.81489585340023040771484375">
        <ele>702.79998779296875</ele>
        <time>2026-08-21T11:30:05.000Z</time>
        <extensions>
          <ns3:TrackPointExtension>
            <ns3:hr>124</ns3:hr>
            <ns3:cad>56</ns3:cad>
          </ns3:TrackPointExtension>
        </extensions>
      </trkpt>
      <trkpt lat="45.3460654802620410919189453125" lon="-70.8149137906730175018310546875">
        <ele>702.5999755859375</ele>
        <time>2026-08-21T11:30:06.000Z</time>
        <extensions>
          <ns3:TrackPointExtension>
            <ns3:hr>124</ns3:hr>
            <ns3:cad>56</ns3:cad>
          </ns3:TrackPointExtension>
        </extensions>
      </trkpt>
      <trkpt lat="45.3460671566426753997802734375" lon="-70.814928710460662841796875">
        <ele>702.5999755859375</ele>
        <time>2026-08-21T11:30:07.000Z</time>
        <extensions>
          <ns3:TrackPointExtension>
            <ns3:hr>124</ns3:hr>
            <ns3:cad>56</ns3:cad>
          </ns3:TrackPointExtension>
        </extensions>
      </trkpt>
      <trkpt lat="45.34606506116688251495361328125" lon="-70.8149432949721813201904296875">
        <ele>702.4000244140625</ele>
        <time>2026-08-21T11:30:08.000Z</time>
        <extensions>
          <ns3:TrackPointExtension>
            <ns3:hr>123</ns3:hr>
            <ns3:cad>56</ns3:cad>
          </ns3:TrackPointExtension>
        </extensions>
      </trkpt>
      <trkpt lat="45.34606355242431163787841796875" lon="-70.81495393998920917510986328125">
        <ele>702.20001220703125</ele>
        <time>2026-08-21T11:30:09.000Z</time>
        <extensions>
          <ns3:TrackPointExtension>
            <ns3:hr>123</ns3:hr>
            <ns3:cad>57</ns3:cad>
          </ns3:TrackPointExtension>
        </extensions>
      </trkpt>
      <trkpt lat="45.3460614569485187530517578125" lon="-70.81496852450072765350341796875">
        <ele>702.20001220703125</ele>
        <time>2026-08-21T11:30:10.000Z</time>
        <extensions>
          <ns3:TrackPointExtension>
            <ns3:hr>124</ns3:hr>
            <ns3:cad>57</ns3:cad>
          </ns3:TrackPointExtension>
        </extensions>
      </trkpt>
      <trkpt lat="45.34606019966304302215576171875" lon="-70.814990065991878509521484375">
        <ele>702</ele>
        <time>2026-08-21T11:30:11.000Z</time>
        <extensions>
          <ns3:TrackPointExtension>
            <ns3:hr>124</ns3:hr>
            <ns3:cad>57</ns3:cad>
          </ns3:TrackPointExtension>
        </extensions>
      </trkpt>
      <trkpt lat="45.34605718217790126800537109375" lon="-70.81500691361725330352783203125">
        <ele>702</ele>
        <time>2026-08-21T11:30:12.000Z</time>
        <extensions>
          <ns3:TrackPointExtension>
            <ns3:hr>124</ns3:hr>
            <ns3:cad>57</ns3:cad>
          </ns3:TrackPointExtension>
        </extensions>
      </trkpt>
      <trkpt lat="45.34605659544467926025390625" lon="-70.81502434797585010528564453125">
        <ele>702</ele>
        <time>2026-08-21T11:30:13.000Z</time>
        <extensions>
          <ns3:TrackPointExtension>
            <ns3:hr>123</ns3:hr>
            <ns3:cad>56</ns3:cad>
          </ns3:TrackPointExtension>
        </extensions>
      </trkpt>
      <trkpt lat="45.34605584107339382171630859375" lon="-70.81504161469638347625732421875">
        <ele>702</ele>
        <time>2026-08-21T11:30:14.000Z</time>
        <extensions>
          <ns3:TrackPointExtension>
            <ns3:hr>123</ns3:hr>
            <ns3:cad>56</ns3:cad>
          </ns3:TrackPointExtension>
        </extensions>
      </trkpt>
      <trkpt lat="45.34605634398758411407470703125" lon="-70.8150562830269336700439453125">
        <ele>702</ele>
        <time>2026-08-21T11:30:15.000Z</time>
        <extensions>
          <ns3:TrackPointExtension>
            <ns3:hr>122</ns3:hr>
            <ns3:cad>56</ns3:cad>
          </ns3:TrackPointExtension>
        </extensions>
      </trkpt>
      <trkpt lat="45.3460581041872501373291015625" lon="-70.81507698632776737213134765625">
        <ele>702.20001220703125</ele>
        <time>2026-08-21T11:30:16.000Z</time>
        <extensions>
          <ns3:TrackPointExtension>
            <ns3:hr>122</ns3:hr>
            <ns3:cad>56</ns3:cad>
          </ns3:TrackPointExtension>
        </extensions>
      </trkpt>
      <trkpt lat="45.34605751745402812957763671875" lon="-70.8150918222963809967041015625">
        <ele>702.20001220703125</ele>
        <time>2026-08-21T11:30:17.000Z</time>
        <extensions>
          <ns3:TrackPointExtension>
            <ns3:hr>121</ns3:hr>
            <ns3:cad>56</ns3:cad>
          </ns3:TrackPointExtension>
        </extensions>
      </trkpt>
      <trkpt lat="45.34605818800628185272216796875" lon="-70.81510732881724834442138671875">
        <ele>702.4000244140625</ele>
        <time>2026-08-21T11:30:18.000Z</time>
        <extensions>
          <ns3:TrackPointExtension>
            <ns3:hr>120</ns3:hr>
            <ns3:cad>55</ns3:cad>
          </ns3:TrackPointExtension>
        </extensions>
      </trkpt>
      <trkpt lat="45.3460601158440113067626953125" lon="-70.81512291915714740753173828125">
        <ele>702.4000244140625</ele>
        <time>2026-08-21T11:30:19.000Z</time>
        <extensions>
          <ns3:TrackPointExtension>
            <ns3:hr>120</ns3:hr>
            <ns3:cad>55</ns3:cad>
          </ns3:TrackPointExtension>
        </extensions>
      </trkpt>
      <trkpt lat="45.346061624586582183837890625" lon="-70.81513750366866588592529296875">
        <ele>702.5999755859375</ele>
        <time>2026-08-21T11:30:20.000Z</time>
        <extensions>
          <ns3:TrackPointExtension>
            <ns3:hr>119</ns3:hr>
            <ns3:cad>55</ns3:cad>
          </ns3:TrackPointExtension>
        </extensions>
      </trkpt>
      <trkpt lat="45.3460638038814067840576171875" lon="-70.81515007652342319488525390625">
        <ele>702.79998779296875</ele>
        <time>2026-08-21T11:30:21.000Z</time>
        <extensions>
          <ns3:TrackPointExtension>
            <ns3:hr>119</ns3:hr>
            <ns3:cad>55</ns3:cad>
          </ns3:TrackPointExtension>
        </extensions>
      </trkpt>
      <trkpt lat="45.34606598317623138427734375" lon="-70.81516633741557598114013671875">
        <ele>702.79998779296875</ele>
        <time>2026-08-21T11:30:22.000Z</time>
        <extensions>
          <ns3:TrackPointExtension>
            <ns3:hr>119</ns3:hr>
            <ns3:cad>55</ns3:cad>
          </ns3:TrackPointExtension>
        </extensions>
      </trkpt>
      <trkpt lat="45.34606489352881908416748046875" lon="-70.81518729217350482940673828125">
        <ele>703</ele>
        <time>2026-08-21T11:30:23.000Z</time>
        <extensions>
          <ns3:TrackPointExtension>
            <ns3:hr>119</ns3:hr>
            <ns3:cad>52</ns3:cad>
          </ns3:TrackPointExtension>
        </extensions>
      </trkpt>
      <trkpt lat="45.3460661508142948150634765625" lon="-70.81520321778953075408935546875">
        <ele>703</ele>
        <time>2026-08-21T11:30:24.000Z</time>
        <extensions>
          <ns3:TrackPointExtension>
            <ns3:hr>118</ns3:hr>
            <ns3:cad>52</ns3:cad>
          </ns3:TrackPointExtension>
        </extensions>
      </trkpt>
      <trkpt lat="45.34606489352881908416748046875" lon="-70.81521796993911266326904296875">
        <ele>703</ele>
        <time>2026-08-21T11:30:25.000Z</time>
        <extensions>
          <ns3:TrackPointExtension>
            <ns3:hr>118</ns3:hr>
            <ns3:cad>52</ns3:cad>
          </ns3:TrackPointExtension>
        </extensions>
      </trkpt>
      <trkpt lat="45.34606221131980419158935546875" lon="-70.81523490138351917266845703125">
        <ele>703</ele>
        <time>2026-08-21T11:30:26.000Z</time>
        <extensions>
          <ns3:TrackPointExtension>
            <ns3:hr>118</ns3:hr>
            <ns3:cad>52</ns3:cad>
          </ns3:TrackPointExtension>
        </extensions>
      </trkpt>
      <trkpt lat="45.3460601158440113067626953125" lon="-70.815255604684352874755859375">
        <ele>703.20001220703125</ele>
        <time>2026-08-21T11:30:27.000Z</time>
        <extensions>
          <ns3:TrackPointExtension>
            <ns3:hr>119</ns3:hr>
            <ns3:cad>52</ns3:cad>
          </ns3:TrackPointExtension>
        </extensions>
      </trkpt>
      <trkpt lat="45.34605449996888637542724609375" lon="-70.8152722008526325225830078125">
        <ele>703.20001220703125</ele>
        <time>2026-08-21T11:30:28.000Z</time>
        <extensions>
          <ns3:TrackPointExtension>
            <ns3:hr>119</ns3:hr>
            <ns3:cad>52</ns3:cad>
          </ns3:TrackPointExtension>
        </extensions>
      </trkpt>
      <trkpt lat="45.3460517339408397674560546875" lon="-70.815288461744785308837890625">
        <ele>703.4000244140625</ele>
        <time>2026-08-21T11:30:29.000Z</time>
        <extensions>
          <ns3:TrackPointExtension>
            <ns3:hr>119</ns3:hr>
            <ns3:cad>52</ns3:cad>
          </ns3:TrackPointExtension>
        </extensions>
      </trkpt>
      <trkpt lat="45.3460470400750637054443359375" lon="-70.81530530937016010284423828125">
        <ele>703.5999755859375</ele>
        <time>2026-08-21T11:30:30.000Z</time>
        <extensions>
          <ns3:TrackPointExtension>
            <ns3:hr>120</ns3:hr>
            <ns3:cad>52</ns3:cad>
          </ns3:TrackPointExtension>
        </extensions>
      </trkpt>
      <trkpt lat="45.34604611806571483612060546875" lon="-70.815321989357471466064453125">
        <ele>703.79998779296875</ele>
        <time>2026-08-21T11:30:31.000Z</time>
        <extensions>
          <ns3:TrackPointExtension>
            <ns3:hr>121</ns3:hr>
            <ns3:cad>52</ns3:cad>
          </ns3:TrackPointExtension>
        </extensions>
      </trkpt>
      <trkpt lat="45.34604544751346111297607421875" lon="-70.81533917225897312164306640625">
        <ele>704</ele>
        <time>2026-08-21T11:30:32.000Z</time>
        <extensions>
          <ns3:TrackPointExtension>
            <ns3:hr>121</ns3:hr>
            <ns3:cad>51</ns3:cad>
          </ns3:TrackPointExtension>
        </extensions>
      </trkpt>
      <trkpt lat="45.346044860780239105224609375" lon="-70.8153550140559673309326171875">
        <ele>704.20001220703125</ele>
        <time>2026-08-21T11:30:33.000Z</time>
        <extensions>
          <ns3:TrackPointExtension>
            <ns3:hr>122</ns3:hr>
            <ns3:cad>50</ns3:cad>
          </ns3:TrackPointExtension>
        </extensions>
      </trkpt>
      <trkpt lat="45.3460443578660488128662109375" lon="-70.81537102349102497100830078125">
        <ele>704.4000244140625</ele>
        <time>2026-08-21T11:30:34.000Z</time>
        <extensions>
          <ns3:TrackPointExtension>
            <ns3:hr>122</ns3:hr>
            <ns3:cad>50</ns3:cad>
          </ns3:TrackPointExtension>
        </extensions>
      </trkpt>
      <trkpt lat="45.34604243002831935882568359375" lon="-70.81538678146898746490478515625">
        <ele>704.5999755859375</ele>
        <time>2026-08-21T11:30:35.000Z</time>
        <extensions>
          <ns3:TrackPointExtension>
            <ns3:hr>123</ns3:hr>
            <ns3:cad>50</ns3:cad>
          </ns3:TrackPointExtension>
        </extensions>
      </trkpt>
      <trkpt lat="45.3460396640002727508544921875" lon="-70.81540589220821857452392578125">
        <ele>704.79998779296875</ele>
        <time>2026-08-21T11:30:36.000Z</time>
        <extensions>
          <ns3:TrackPointExtension>
            <ns3:hr>124</ns3:hr>
            <ns3:cad>50</ns3:cad>
          </ns3:TrackPointExtension>
        </extensions>
      </trkpt>
      <trkpt lat="45.34603907726705074310302734375" lon="-70.815421901643276214599609375">
        <ele>705</ele>
        <time>2026-08-21T11:30:37.000Z</time>
        <extensions>
          <ns3:TrackPointExtension>
            <ns3:hr>125</ns3:hr>
            <ns3:cad>50</ns3:cad>
          </ns3:TrackPointExtension>
        </extensions>
      </trkpt>
      <trkpt lat="45.3460389934480190277099609375" lon="-70.81544109620153903961181640625">
        <ele>705.20001220703125</ele>
        <time>2026-08-21T11:30:38.000Z</time>
        <extensions>
          <ns3:TrackPointExtension>
            <ns3:hr>125</ns3:hr>
            <ns3:cad>50</ns3:cad>
          </ns3:TrackPointExtension>
        </extensions>
      </trkpt>
      <trkpt lat="45.34603723324835300445556640625" lon="-70.81545802764594554901123046875">
        <ele>705.20001220703125</ele>
        <time>2026-08-21T11:30:39.000Z</time>
        <extensions>
          <ns3:TrackPointExtension>
            <ns3:hr>126</ns3:hr>
            <ns3:cad>50</ns3:cad>
          </ns3:TrackPointExtension>
        </extensions>
      </trkpt>
      <trkpt lat="45.346032790839672088623046875" lon="-70.815476216375827789306640625">
        <ele>705.20001220703125</ele>
        <time>2026-08-21T11:30:40.000Z</time>
        <extensions>
          <ns3:TrackPointExtension>
            <ns3:hr>126</ns3:hr>
            <ns3:cad>48</ns3:cad>
          </ns3:TrackPointExtension>
        </extensions>
      </trkpt>
      <trkpt lat="45.34603052772581577301025390625" lon="-70.81549339927732944488525390625">
        <ele>705.20001220703125</ele>
        <time>2026-08-21T11:30:41.000Z</time>
        <extensions>
          <ns3:TrackPointExtension>
            <ns3:hr>127</ns3:hr>
            <ns3:cad>48</ns3:cad>
          </ns3:TrackPointExtension>
        </extensions>
      </trkpt>
      <trkpt lat="45.3460296057164669036865234375" lon="-70.81551049835979938507080078125">
        <ele>705.20001220703125</ele>
        <time>2026-08-21T11:30:42.000Z</time>
        <extensions>
          <ns3:TrackPointExtension>
            <ns3:hr>127</ns3:hr>
            <ns3:cad>50</ns3:cad>
          </ns3:TrackPointExtension>
        </extensions>
      </trkpt>
      <trkpt lat="45.346025414764881134033203125" lon="-70.81552726216614246368408203125">
        <ele>705</ele>
        <time>2026-08-21T11:30:43.000Z</time>
        <extensions>
          <ns3:TrackPointExtension>
            <ns3:hr>127</ns3:hr>
            <ns3:cad>50</ns3:cad>
          </ns3:TrackPointExtension>
        </extensions>
      </trkpt>
      <trkpt lat="45.34601912833750247955322265625" lon="-70.81554402597248554229736328125">
        <ele>705</ele>
        <time>2026-08-21T11:30:44.000Z</time>
        <extensions>
          <ns3:TrackPointExtension>
            <ns3:hr>127</ns3:hr>
            <ns3:cad>51</ns3:cad>
          </ns3:TrackPointExtension>
        </extensions>
      </trkpt>
      <trkpt lat="45.34601476974785327911376953125" lon="-70.81556347198784351348876953125">
        <ele>704.79998779296875</ele>
        <time>2026-08-21T11:30:45.000Z</time>
        <extensions>
          <ns3:TrackPointExtension>
            <ns3:hr>128</ns3:hr>
            <ns3:cad>52</ns3:cad>
          </ns3:TrackPointExtension>
        </extensions>
      </trkpt>
      <trkpt lat="45.34601460210978984832763671875" lon="-70.8155813254415988922119140625">
        <ele>704.5999755859375</ele>
        <time>2026-08-21T11:30:46.000Z</time>
        <extensions>
          <ns3:TrackPointExtension>
            <ns3:hr>129</ns3:hr>
            <ns3:cad>52</ns3:cad>
          </ns3:TrackPointExtension>
        </extensions>
      </trkpt>
      <trkpt lat="45.3460128419101238250732421875" lon="-70.8155987598001956939697265625">
        <ele>704.4000244140625</ele>
        <time>2026-08-21T11:30:47.000Z</time>
        <extensions>
          <ns3:TrackPointExtension>
            <ns3:hr>129</ns3:hr>
            <ns3:cad>53</ns3:cad>
          </ns3:TrackPointExtension>
        </extensions>
      </trkpt>
      <trkpt lat="45.34600890241563320159912109375" lon="-70.81561577506363391876220703125">
        <ele>704.20001220703125</ele>
        <time>2026-08-21T11:30:48.000Z</time>
        <extensions>
          <ns3:TrackPointExtension>
            <ns3:hr>129</ns3:hr>
            <ns3:cad>53</ns3:cad>
          </ns3:TrackPointExtension>
        </extensions>
      </trkpt>
      <trkpt lat="45.34600689075887203216552734375" lon="-70.81563270650804042816162109375">
        <ele>704</ele>
        <time>2026-08-21T11:30:49.000Z</time>
        <extensions>
          <ns3:TrackPointExtension>
            <ns3:hr>130</ns3:hr>
            <ns3:cad>53</ns3:cad>
          </ns3:TrackPointExtension>
        </extensions>
      </trkpt>
      <trkpt lat="45.3460094891488552093505859375" lon="-70.81564947031438350677490234375">
        <ele>704</ele>
        <time>2026-08-21T11:30:50.000Z</time>
        <extensions>
          <ns3:TrackPointExtension>
            <ns3:hr>130</ns3:hr>
            <ns3:cad>53</ns3:cad>
          </ns3:TrackPointExtension>
        </extensions>
      </trkpt>
      <trkpt lat="45.346011333167552947998046875" lon="-70.8156651444733142852783203125">
        <ele>703.79998779296875</ele>
        <time>2026-08-21T11:30:51.000Z</time>
        <extensions>
          <ns3:TrackPointExtension>
            <ns3:hr>130</ns3:hr>
            <ns3:cad>55</ns3:cad>
          </ns3:TrackPointExtension>
        </extensions>
      </trkpt>
      <trkpt lat="45.3460108302533626556396484375" lon="-70.8156782202422618865966796875">
        <ele>703.79998779296875</ele>
        <time>2026-08-21T11:30:52.000Z</time>
        <extensions>
          <ns3:TrackPointExtension>
            <ns3:hr>130</ns3:hr>
            <ns3:cad>56</ns3:cad>
          </ns3:TrackPointExtension>
        </extensions>
      </trkpt>
      <trkpt lat="45.34600538201630115509033203125" lon="-70.8156892843544483184814453125">
        <ele>703.79998779296875</ele>
        <time>2026-08-21T11:30:53.000Z</time>
        <extensions>
          <ns3:TrackPointExtension>
            <ns3:hr>130</ns3:hr>
            <ns3:cad>56</ns3:cad>
          </ns3:TrackPointExtension>
        </extensions>
      </trkpt>
      <trkpt lat="45.346002615988254547119140625" lon="-70.81569825299084186553955078125">
        <ele>703.79998779296875</ele>
        <time>2026-08-21T11:30:54.000Z</time>
        <extensions>
          <ns3:TrackPointExtension>
            <ns3:hr>130</ns3:hr>
            <ns3:cad>56</ns3:cad>
          </ns3:TrackPointExtension>
        </extensions>
      </trkpt>
      <trkpt lat="45.34599683247506618499755859375" lon="-70.81570847891271114349365234375">
        <ele>703.5999755859375</ele>
        <time>2026-08-21T11:30:55.000Z</time>
        <extensions>
          <ns3:TrackPointExtension>
            <ns3:hr>130</ns3:hr>
            <ns3:cad>56</ns3:cad>
          </ns3:TrackPointExtension>
        </extensions>
      </trkpt>
      <trkpt lat="45.345991551876068115234375" lon="-70.815722644329071044921875">
        <ele>703.5999755859375</ele>
        <time>2026-08-21T11:30:56.000Z</time>
        <extensions>
          <ns3:TrackPointExtension>
            <ns3:hr>129</ns3:hr>
            <ns3:cad>54</ns3:cad>
          </ns3:TrackPointExtension>
        </extensions>
      </trkpt>
      <trkpt lat="45.3459856845438480377197265625" lon="-70.81573496572673320770263671875">
        <ele>703.4000244140625</ele>
        <time>2026-08-21T11:30:57.000Z</time>
        <extensions>
          <ns3:TrackPointExtension>
            <ns3:hr>128</ns3:hr>
            <ns3:cad>54</ns3:cad>
          </ns3:TrackPointExtension>
        </extensions>
      </trkpt>
      <trkpt lat="45.3459806554019451141357421875" lon="-70.81574552692472934722900390625">
        <ele>703.20001220703125</ele>
        <time>2026-08-21T11:30:58.000Z</time>
        <extensions>
          <ns3:TrackPointExtension>
            <ns3:hr>128</ns3:hr>
            <ns3:cad>54</ns3:cad>
          </ns3:TrackPointExtension>
        </extensions>
      </trkpt>
      <trkpt lat="45.34597554244101047515869140625" lon="-70.815755836665630340576171875">
        <ele>703</ele>
        <time>2026-08-21T11:30:59.000Z</time>
        <extensions>
          <ns3:TrackPointExtension>
            <ns3:hr>127</ns3:hr>
            <ns3:cad>53</ns3:cad>
          </ns3:TrackPointExtension>
        </extensions>
      </trkpt>
      <trkpt lat="45.34597202204167842864990234375" lon="-70.8157650567591190338134765625">
        <ele>702.79998779296875</ele>
        <time>2026-08-21T11:31:00.000Z</time>
        <extensions>
          <ns3:TrackPointExtension>
            <ns3:hr>127</ns3:hr>
            <ns3:cad>53</ns3:cad>
          </ns3:TrackPointExtension>
        </extensions>
      </trkpt>
      <trkpt lat="45.34596900455653667449951171875" lon="-70.81577117554843425750732421875">
        <ele>702.79998779296875</ele>
        <time>2026-08-21T11:31:01.000Z</time>
        <extensions>
          <ns3:TrackPointExtension>
            <ns3:hr>127</ns3:hr>
            <ns3:cad>54</ns3:cad>
          </ns3:TrackPointExtension>
        </extensions>
      </trkpt>
      <trkpt lat="45.34596816636621952056884765625" lon="-70.81578207202255725860595703125">
        <ele>702.5999755859375</ele>
        <time>2026-08-21T11:31:02.000Z</time>
        <extensions>
          <ns3:TrackPointExtension>
            <ns3:hr>126</ns3:hr>
            <ns3:cad>54</ns3:cad>
          </ns3:TrackPointExtension>
        </extensions>
      </trkpt>
      <trkpt lat="45.3459635563194751739501953125" lon="-70.81579514779150485992431640625">
        <ele>702.4000244140625</ele>
        <time>2026-08-21T11:31:03.000Z</time>
        <extensions>
          <ns3:TrackPointExtension>
            <ns3:hr>126</ns3:hr>
            <ns3:cad>55</ns3:cad>
          </ns3:TrackPointExtension>
        </extensions>
      </trkpt>
      <trkpt lat="45.34595467150211334228515625" lon="-70.81580235622823238372802734375">
        <ele>702.20001220703125</ele>
        <time>2026-08-21T11:31:04.000Z</time>
        <extensions>
          <ns3:TrackPointExtension>
            <ns3:hr>126</ns3:hr>
            <ns3:cad>55</ns3:cad>
          </ns3:TrackPointExtension>
        </extensions>
      </trkpt>
      <trkpt lat="45.3459491394460201263427734375" lon="-70.8158136717975139617919921875">
        <ele>702</ele>
        <time>2026-08-21T11:31:05.000Z</time>
        <extensions>
          <ns3:TrackPointExtension>
            <ns3:hr>125</ns3:hr>
            <ns3:cad>55</ns3:cad>
          </ns3:TrackPointExtension>
        </extensions>
      </trkpt>
      <trkpt lat="45.3459400869905948638916015625" lon="-70.8158259093761444091796875">
        <ele>701.79998779296875</ele>
        <time>2026-08-21T11:31:06.000Z</time>
        <extensions>
          <ns3:TrackPointExtension>
            <ns3:hr>125</ns3:hr>
            <ns3:cad>54</ns3:cad>
          </ns3:TrackPointExtension>
        </extensions>
      </trkpt>
      <trkpt lat="45.345934219658374786376953125" lon="-70.815843679010868072509765625">
        <ele>701.5999755859375</ele>
        <time>2026-08-21T11:31:07.000Z</time>
        <extensions>
          <ns3:TrackPointExtension>
            <ns3:hr>125</ns3:hr>
            <ns3:cad>54</ns3:cad>
          </ns3:TrackPointExtension>
        </extensions>
      </trkpt>
      <trkpt lat="45.345929525792598724365234375" lon="-70.81586052663624286651611328125">
        <ele>701.4000244140625</ele>
        <time>2026-08-21T11:31:08.000Z</time>
        <extensions>
          <ns3:TrackPointExtension>
            <ns3:hr>125</ns3:hr>
            <ns3:cad>55</ns3:cad>
          </ns3:TrackPointExtension>
        </extensions>
      </trkpt>
      <trkpt lat="45.34592240117490291595458984375" lon="-70.81587377004325389862060546875">
        <ele>701.20001220703125</ele>
        <time>2026-08-21T11:31:09.000Z</time>
        <extensions>
          <ns3:TrackPointExtension>
            <ns3:hr>124</ns3:hr>
            <ns3:cad>56</ns3:cad>
          </ns3:TrackPointExtension>
        </extensions>
      </trkpt>
      <trkpt lat="45.345911085605621337890625" lon="-70.81587796099483966827392578125">
        <ele>701</ele>
        <time>2026-08-21T11:31:10.000Z</time>
        <extensions>
          <ns3:TrackPointExtension>
            <ns3:hr>124</ns3:hr>
            <ns3:cad>56</ns3:cad>
          </ns3:TrackPointExtension>
        </extensions>
      </trkpt>
      <trkpt lat="45.34590261988341808319091796875" lon="-70.815883576869964599609375">
        <ele>700.79998779296875</ele>
        <time>2026-08-21T11:31:11.000Z</time>
        <extensions>
          <ns3:TrackPointExtension>
            <ns3:hr>124</ns3:hr>
            <ns3:cad>56</ns3:cad>
          </ns3:TrackPointExtension>
        </extensions>
      </trkpt>
      <trkpt lat="45.3458944894373416900634765625" lon="-70.81588986329734325408935546875">
        <ele>700.4000244140625</ele>
        <time>2026-08-21T11:31:12.000Z</time>
        <extensions>
          <ns3:TrackPointExtension>
            <ns3:hr>123</ns3:hr>
            <ns3:cad>56</ns3:cad>
          </ns3:TrackPointExtension>
        </extensions>
      </trkpt>
      <trkpt lat="45.34588417969644069671630859375" lon="-70.81589438952505588531494140625">
        <ele>700.20001220703125</ele>
        <time>2026-08-21T11:31:13.000Z</time>
        <extensions>
          <ns3:TrackPointExtension>
            <ns3:hr>123</ns3:hr>
            <ns3:cad>56</ns3:cad>
          </ns3:TrackPointExtension>
        </extensions>
      </trkpt>
      <trkpt lat="45.345875211060047149658203125" lon="-70.81589539535343647003173828125">
        <ele>699.79998779296875</ele>
        <time>2026-08-21T11:31:14.000Z</time>
        <extensions>
          <ns3:TrackPointExtension>
            <ns3:hr>123</ns3:hr>
            <ns3:cad>56</ns3:cad>
          </ns3:TrackPointExtension>
        </extensions>
      </trkpt>
      <trkpt lat="45.34586993046104907989501953125" lon="-70.8158902823925018310546875">
        <ele>699.4000244140625</ele>
        <time>2026-08-21T11:31:15.000Z</time>
        <extensions>
          <ns3:TrackPointExtension>
            <ns3:hr>123</ns3:hr>
            <ns3:cad>56</ns3:cad>
          </ns3:TrackPointExtension>
        </extensions>
      </trkpt>
      <trkpt lat="45.34586020745337009429931640625" lon="-70.815883241593837738037109375">
        <ele>699.20001220703125</ele>
        <time>2026-08-21T11:31:16.000Z</time>
        <extensions>
          <ns3:TrackPointExtension>
            <ns3:hr>124</ns3:hr>
            <ns3:cad>56</ns3:cad>
          </ns3:TrackPointExtension>
        </extensions>
      </trkpt>
      <trkpt lat="45.34584872424602508544921875" lon="-70.8158857561647891998291015625">
        <ele>699</ele>
        <time>2026-08-21T11:31:17.000Z</time>
        <extensions>
          <ns3:TrackPointExtension>
            <ns3:hr>124</ns3:hr>
            <ns3:cad>56</ns3:cad>
          </ns3:TrackPointExtension>
        </extensions>
      </trkpt>
      <trkpt lat="45.34583707340061664581298828125" lon="-70.81589254550635814666748046875">
        <ele>698.79998779296875</ele>
        <time>2026-08-21T11:31:18.000Z</time>
        <extensions>
          <ns3:TrackPointExtension>
            <ns3:hr>124</ns3:hr>
            <ns3:cad>44</ns3:cad>
          </ns3:TrackPointExtension>
        </extensions>
      </trkpt>
      <trkpt lat="45.34582684747874736785888671875" lon="-70.8158998377621173858642578125">
        <ele>698.5999755859375</ele>
        <time>2026-08-21T11:31:19.000Z</time>
        <extensions>
          <ns3:TrackPointExtension>
            <ns3:hr>124</ns3:hr>
            <ns3:cad>44</ns3:cad>
          </ns3:TrackPointExtension>
        </extensions>
      </trkpt>
      <trkpt lat="45.3458183817565441131591796875" lon="-70.815910398960113525390625">
        <ele>698.4000244140625</ele>
        <time>2026-08-21T11:31:20.000Z</time>
        <extensions>
          <ns3:TrackPointExtension>
            <ns3:hr>123</ns3:hr>
            <ns3:cad>0</ns3:cad>
          </ns3:TrackPointExtension>
        </extensions>
      </trkpt>
      <trkpt lat="45.345810838043689727783203125" lon="-70.81592540256679058074951171875">
        <ele>698.20001220703125</ele>
        <time>2026-08-21T11:31:21.000Z</time>
        <extensions>
          <ns3:TrackPointExtension>
            <ns3:hr>124</ns3:hr>
            <ns3:cad>0</ns3:cad>
          </ns3:TrackPointExtension>
        </extensions>
      </trkpt>
      <trkpt lat="45.34580237232148647308349609375" lon="-70.815938226878643035888671875">
        <ele>698</ele>
        <time>2026-08-21T11:31:22.000Z</time>
        <extensions>
          <ns3:TrackPointExtension>
            <ns3:hr>123</ns3:hr>
            <ns3:cad>0</ns3:cad>
          </ns3:TrackPointExtension>
        </extensions>
      </trkpt>
      <trkpt lat="45.34579834900796413421630859375" lon="-70.81595691852271556854248046875">
        <ele>697.79998779296875</ele>
        <time>2026-08-21T11:31:23.000Z</time>
        <extensions>
          <ns3:TrackPointExtension>
            <ns3:hr>122</ns3:hr>
            <ns3:cad>0</ns3:cad>
          </ns3:TrackPointExtension>
        </extensions>
      </trkpt>
      <trkpt lat="45.345790386199951171875" lon="-70.81597787328064441680908203125">
        <ele>697.5999755859375</ele>
        <time>2026-08-21T11:31:24.000Z</time>
        <extensions>
          <ns3:TrackPointExtension>
            <ns3:hr>121</ns3:hr>
            <ns3:cad>0</ns3:cad>
          </ns3:TrackPointExtension>
        </extensions>
      </trkpt>
      <trkpt lat="45.3457872010767459869384765625" lon="-70.81599421799182891845703125">
        <ele>697.5999755859375</ele>
        <time>2026-08-21T11:31:25.000Z</time>
        <extensions>
          <ns3:TrackPointExtension>
            <ns3:hr>120</ns3:hr>
            <ns3:cad>0</ns3:cad>
          </ns3:TrackPointExtension>
        </extensions>
      </trkpt>
      <trkpt lat="45.34577823244035243988037109375" lon="-70.816012658178806304931640625">
        <ele>697.5999755859375</ele>
        <time>2026-08-21T11:31:26.000Z</time>
        <extensions>
          <ns3:TrackPointExtension>
            <ns3:hr>119</ns3:hr>
            <ns3:cad>0</ns3:cad>
          </ns3:TrackPointExtension>
        </extensions>
      </trkpt>
      <trkpt lat="45.34577270038425922393798828125" lon="-70.81602531485259532928466796875">
        <ele>697.5999755859375</ele>
        <time>2026-08-21T11:31:27.000Z</time>
        <extensions>
          <ns3:TrackPointExtension>
            <ns3:hr>119</ns3:hr>
            <ns3:cad>0</ns3:cad>
          </ns3:TrackPointExtension>
        </extensions>
      </trkpt>
      <trkpt lat="45.34576482139527797698974609375" lon="-70.81603118218481540679931640625">
        <ele>697.4000244140625</ele>
        <time>2026-08-21T11:31:28.000Z</time>
        <extensions>
          <ns3:TrackPointExtension>
            <ns3:hr>119</ns3:hr>
            <ns3:cad>0</ns3:cad>
          </ns3:TrackPointExtension>
        </extensions>
      </trkpt>
      <trkpt lat="45.34575576893985271453857421875" lon="-70.81604023464024066925048828125">
        <ele>697.4000244140625</ele>
        <time>2026-08-21T11:31:29.000Z</time>
        <extensions>
          <ns3:TrackPointExtension>
            <ns3:hr>119</ns3:hr>
            <ns3:cad>0</ns3:cad>
          </ns3:TrackPointExtension>
        </extensions>
      </trkpt>
      <trkpt lat="45.34574638120830059051513671875" lon="-70.81605146639049053192138671875">
        <ele>697.4000244140625</ele>
        <time>2026-08-21T11:31:30.000Z</time>
        <extensions>
          <ns3:TrackPointExtension>
            <ns3:hr>119</ns3:hr>
            <ns3:cad>0</ns3:cad>
          </ns3:TrackPointExtension>
        </extensions>
      </trkpt>
      <trkpt lat="45.34574470482766628265380859375" lon="-70.81605649553239345550537109375">
        <ele>697.4000244140625</ele>
        <time>2026-08-21T11:31:31.000Z</time>
        <extensions>
          <ns3:TrackPointExtension>
            <ns3:hr>119</ns3:hr>
            <ns3:cad>0</ns3:cad>
          </ns3:TrackPointExtension>
        </extensions>
      </trkpt>
      <trkpt lat="45.34573883749544620513916015625" lon="-70.81607334315776824951171875">
        <ele>697.5999755859375</ele>
        <time>2026-08-21T11:31:32.000Z</time>
        <extensions>
          <ns3:TrackPointExtension>
            <ns3:hr>120</ns3:hr>
            <ns3:cad>52</ns3:cad>
          </ns3:TrackPointExtension>
        </extensions>
      </trkpt>
      <trkpt lat="45.34572844393551349639892578125" lon="-70.81608465872704982757568359375">
        <ele>697.5999755859375</ele>
        <time>2026-08-21T11:31:33.000Z</time>
        <extensions>
          <ns3:TrackPointExtension>
            <ns3:hr>120</ns3:hr>
            <ns3:cad>52</ns3:cad>
          </ns3:TrackPointExtension>
        </extensions>
      </trkpt>
      <trkpt lat="45.345718972384929656982421875" lon="-70.816093124449253082275390625">
        <ele>697.79998779296875</ele>
        <time>2026-08-21T11:31:34.000Z</time>
        <extensions>
          <ns3:TrackPointExtension>
            <ns3:hr>121</ns3:hr>
            <ns3:cad>52</ns3:cad>
          </ns3:TrackPointExtension>
        </extensions>
      </trkpt>
      <trkpt lat="45.34570866264402866363525390625" lon="-70.81609773449599742889404296875">
        <ele>698.20001220703125</ele>
        <time>2026-08-21T11:31:35.000Z</time>
        <extensions>
          <ns3:TrackPointExtension>
            <ns3:hr>120</ns3:hr>
            <ns3:cad>0</ns3:cad>
          </ns3:TrackPointExtension>
        </extensions>
      </trkpt>
      <trkpt lat="45.34569256938993930816650390625" lon="-70.816103853285312652587890625">
        <ele>698.4000244140625</ele>
        <time>2026-08-21T11:31:36.000Z</time>
        <extensions>
          <ns3:TrackPointExtension>
            <ns3:hr>120</ns3:hr>
            <ns3:cad>0</ns3:cad>
          </ns3:TrackPointExtension>
        </extensions>
      </trkpt>
      <trkpt lat="45.3456799127161502838134765625" lon="-70.816107206046581268310546875">
        <ele>698.4000244140625</ele>
        <time>2026-08-21T11:31:37.000Z</time>
        <extensions>
          <ns3:TrackPointExtension>
            <ns3:hr>120</ns3:hr>
            <ns3:cad>0</ns3:cad>
          </ns3:TrackPointExtension>
        </extensions>
      </trkpt>
      <trkpt lat="45.3456628136336803436279296875" lon="-70.81611483357846736907958984375">
        <ele>698.5999755859375</ele>
        <time>2026-08-21T11:31:38.000Z</time>
        <extensions>
          <ns3:TrackPointExtension>
            <ns3:hr>118</ns3:hr>
            <ns3:cad>0</ns3:cad>
          </ns3:TrackPointExtension>
        </extensions>
      </trkpt>
      <trkpt lat="45.34564646892249584197998046875" lon="-70.816125981509685516357421875">
        <ele>698.5999755859375</ele>
        <time>2026-08-21T11:31:39.000Z</time>
        <extensions>
          <ns3:TrackPointExtension>
            <ns3:hr>117</ns3:hr>
            <ns3:cad>0</ns3:cad>
          </ns3:TrackPointExtension>
        </extensions>
      </trkpt>
      <trkpt lat="45.34563858993351459503173828125" lon="-70.81613645888864994049072265625">
        <ele>698.4000244140625</ele>
        <time>2026-08-21T11:31:40.000Z</time>
        <extensions>
          <ns3:TrackPointExtension>
            <ns3:hr>116</ns3:hr>
            <ns3:cad>0</ns3:cad>
          </ns3:TrackPointExtension>
        </extensions>
      </trkpt>
      <trkpt lat="45.34563188441097736358642578125" lon="-70.81614819355309009552001953125">
        <ele>698.4000244140625</ele>
        <time>2026-08-21T11:31:41.000Z</time>
        <extensions>
          <ns3:TrackPointExtension>
            <ns3:hr>115</ns3:hr>
            <ns3:cad>0</ns3:cad>
          </ns3:TrackPointExtension>
        </extensions>
      </trkpt>
      <trkpt lat="45.34562182612717151641845703125" lon="-70.81615942530333995819091796875">
        <ele>698.4000244140625</ele>
        <time>2026-08-21T11:31:42.000Z</time>
        <extensions>
          <ns3:TrackPointExtension>
            <ns3:hr>114</ns3:hr>
            <ns3:cad>0</ns3:cad>
          </ns3:TrackPointExtension>
        </extensions>
      </trkpt>
      <trkpt lat="45.3456172160804271697998046875" lon="-70.8161637000739574432373046875">
        <ele>698.4000244140625</ele>
        <time>2026-08-21T11:31:43.000Z</time>
        <extensions>
          <ns3:TrackPointExtension>
            <ns3:hr>115</ns3:hr>
            <ns3:cad>0</ns3:cad>
          </ns3:TrackPointExtension>
        </extensions>
      </trkpt>
      <trkpt lat="45.34561671316623687744140625" lon="-70.81616763956844806671142578125">
        <ele>698.4000244140625</ele>
        <time>2026-08-21T11:31:44.000Z</time>
        <extensions>
          <ns3:TrackPointExtension>
            <ns3:hr>116</ns3:hr>
            <ns3:cad>0</ns3:cad>
          </ns3:TrackPointExtension>
        </extensions>
      </trkpt>
      <trkpt lat="45.345611013472080230712890625" lon="-70.81618675030767917633056640625">
        <ele>698.4000244140625</ele>
        <time>2026-08-21T11:31:45.000Z</time>
        <extensions>
          <ns3:TrackPointExtension>
            <ns3:hr>117</ns3:hr>
            <ns3:cad>0</ns3:cad>
          </ns3:TrackPointExtension>
        </extensions>
      </trkpt>
      <trkpt lat="45.345607660710811614990234375" lon="-70.816205441951751708984375">
        <ele>698.4000244140625</ele>
        <time>2026-08-21T11:31:46.000Z</time>
        <extensions>
          <ns3:TrackPointExtension>
            <ns3:hr>117</ns3:hr>
            <ns3:cad>0</ns3:cad>
          </ns3:TrackPointExtension>
        </extensions>
      </trkpt>
      <trkpt lat="45.34560598433017730712890625" lon="-70.81621239893138408660888671875">
        <ele>698.5999755859375</ele>
        <time>2026-08-21T11:31:47.000Z</time>
        <extensions>
          <ns3:TrackPointExtension>
            <ns3:hr>117</ns3:hr>
            <ns3:cad>0</ns3:cad>
          </ns3:TrackPointExtension>
        </extensions>
      </trkpt>
      <trkpt lat="45.34559701569378376007080078125" lon="-70.81621759571135044097900390625">
        <ele>698.79998779296875</ele>
        <time>2026-08-21T11:31:48.000Z</time>
        <extensions>
          <ns3:TrackPointExtension>
            <ns3:hr>118</ns3:hr>
            <ns3:cad>0</ns3:cad>
          </ns3:TrackPointExtension>
        </extensions>
      </trkpt>
      <trkpt lat="45.34559265710413455963134765625" lon="-70.81622086465358734130859375">
        <ele>699.20001220703125</ele>
        <time>2026-08-21T11:31:49.000Z</time>
        <extensions>
          <ns3:TrackPointExtension>
            <ns3:hr>117</ns3:hr>
            <ns3:cad>0</ns3:cad>
          </ns3:TrackPointExtension>
        </extensions>
      </trkpt>
      <trkpt lat="45.34557807259261608123779296875" lon="-70.8162267319858074188232421875">
        <ele>699.4000244140625</ele>
        <time>2026-08-21T11:31:50.000Z</time>
        <extensions>
          <ns3:TrackPointExtension>
            <ns3:hr>117</ns3:hr>
            <ns3:cad>0</ns3:cad>
          </ns3:TrackPointExtension>
        </extensions>
      </trkpt>
      <trkpt lat="45.34557857550680637359619140625" lon="-70.81623083911836147308349609375">
        <ele>699.79998779296875</ele>
        <time>2026-08-21T11:31:51.000Z</time>
        <extensions>
          <ns3:TrackPointExtension>
            <ns3:hr>116</ns3:hr>
            <ns3:cad>0</ns3:cad>
          </ns3:TrackPointExtension>
        </extensions>
      </trkpt>
      <trkpt lat="45.34557773731648921966552734375" lon="-70.8162388019263744354248046875">
        <ele>700</ele>
        <time>2026-08-21T11:31:52.000Z</time>
        <extensions>
          <ns3:TrackPointExtension>
            <ns3:hr>116</ns3:hr>
            <ns3:cad>0</ns3:cad>
          </ns3:TrackPointExtension>
        </extensions>
      </trkpt>
      <trkpt lat="45.34557438455522060394287109375" lon="-70.8162502013146877288818359375">
        <ele>700.4000244140625</ele>
        <time>2026-08-21T11:31:53.000Z</time>
        <extensions>
          <ns3:TrackPointExtension>
            <ns3:hr>116</ns3:hr>
            <ns3:cad>0</ns3:cad>
          </ns3:TrackPointExtension>
        </extensions>
      </trkpt>
      <trkpt lat="45.34556332044303417205810546875" lon="-70.81626000814139842987060546875">
        <ele>700.5999755859375</ele>
        <time>2026-08-21T11:31:54.000Z</time>
        <extensions>
          <ns3:TrackPointExtension>
            <ns3:hr>116</ns3:hr>
            <ns3:cad>0</ns3:cad>
          </ns3:TrackPointExtension>
        </extensions>
      </trkpt>
      <trkpt lat="45.34555778838694095611572265625" lon="-70.81626218743622303009033203125">
        <ele>700.79998779296875</ele>
        <time>2026-08-21T11:31:55.000Z</time>
        <extensions>
          <ns3:TrackPointExtension>
            <ns3:hr>117</ns3:hr>
            <ns3:cad>0</ns3:cad>
          </ns3:TrackPointExtension>
        </extensions>
      </trkpt>
      <trkpt lat="45.34555024467408657073974609375" lon="-70.81626839004456996917724609375">
        <ele>701</ele>
        <time>2026-08-21T11:31:56.000Z</time>
        <extensions>
          <ns3:TrackPointExtension>
            <ns3:hr>118</ns3:hr>
            <ns3:cad>0</ns3:cad>
          </ns3:TrackPointExtension>
        </extensions>
      </trkpt>
      <trkpt lat="45.3455380909144878387451171875" lon="-70.81628146581351757049560546875">
        <ele>701.4000244140625</ele>
        <time>2026-08-21T11:31:57.000Z</time>
        <extensions>
          <ns3:TrackPointExtension>
            <ns3:hr>120</ns3:hr>
            <ns3:cad>0</ns3:cad>
          </ns3:TrackPointExtension>
        </extensions>
      </trkpt>
      <trkpt lat="45.345536582171916961669921875" lon="-70.816295631229877471923828125">
        <ele>701.5999755859375</ele>
        <time>2026-08-21T11:31:58.000Z</time>
        <extensions>
          <ns3:TrackPointExtension>
            <ns3:hr>121</ns3:hr>
            <ns3:cad>0</ns3:cad>
          </ns3:TrackPointExtension>
        </extensions>
      </trkpt>
      <trkpt lat="45.34552778117358684539794921875" lon="-70.8163085393607616424560546875">
        <ele>702</ele>
        <time>2026-08-21T11:31:59.000Z</time>
        <extensions>
          <ns3:TrackPointExtension>
            <ns3:hr>122</ns3:hr>
            <ns3:cad>0</ns3:cad>
          </ns3:TrackPointExtension>
        </extensions>
      </trkpt>
      <trkpt lat="45.3455230034887790679931640625" lon="-70.81631331704556941986083984375">
        <ele>702.4000244140625</ele>
        <time>2026-08-21T11:32:00.000Z</time>
        <extensions>
          <ns3:TrackPointExtension>
            <ns3:hr>123</ns3:hr>
            <ns3:cad>0</ns3:cad>
          </ns3:TrackPointExtension>
        </extensions>
      </trkpt>
      <trkpt lat="45.3455159626901149749755859375" lon="-70.81632086075842380523681640625">
        <ele>702.5999755859375</ele>
        <time>2026-08-21T11:32:01.000Z</time>
        <extensions>
          <ns3:TrackPointExtension>
            <ns3:hr>124</ns3:hr>
            <ns3:cad>0</ns3:cad>
          </ns3:TrackPointExtension>
        </extensions>
      </trkpt>
      <trkpt lat="45.34550598822534084320068359375" lon="-70.81633293069899082183837890625">
        <ele>703</ele>
        <time>2026-08-21T11:32:02.000Z</time>
        <extensions>
          <ns3:TrackPointExtension>
            <ns3:hr>124</ns3:hr>
            <ns3:cad>0</ns3:cad>
          </ns3:TrackPointExtension>
        </extensions>
      </trkpt>
      <trkpt lat="45.34549542702734470367431640625" lon="-70.81634097732603549957275390625">
        <ele>703.20001220703125</ele>
        <time>2026-08-21T11:32:03.000Z</time>
        <extensions>
          <ns3:TrackPointExtension>
            <ns3:hr>124</ns3:hr>
            <ns3:cad>0</ns3:cad>
          </ns3:TrackPointExtension>
        </extensions>
      </trkpt>
      <trkpt lat="45.34549106843769550323486328125" lon="-70.81635187380015850067138671875">
        <ele>703.4000244140625</ele>
        <time>2026-08-21T11:32:04.000Z</time>
        <extensions>
          <ns3:TrackPointExtension>
            <ns3:hr>124</ns3:hr>
            <ns3:cad>0</ns3:cad>
          </ns3:TrackPointExtension>
        </extensions>
      </trkpt>
      <trkpt lat="45.34548872150480747222900390625" lon="-70.81635874696075916290283203125">
        <ele>703.79998779296875</ele>
        <time>2026-08-21T11:32:05.000Z</time>
        <extensions>
          <ns3:TrackPointExtension>
            <ns3:hr>124</ns3:hr>
            <ns3:cad>0</ns3:cad>
          </ns3:TrackPointExtension>
        </extensions>
      </trkpt>
      <trkpt lat="45.34547765739262104034423828125" lon="-70.81636964343488216400146484375">
        <ele>704</ele>
        <time>2026-08-21T11:32:06.000Z</time>
        <extensions>
          <ns3:TrackPointExtension>
            <ns3:hr>124</ns3:hr>
            <ns3:cad>0</ns3:cad>
          </ns3:TrackPointExtension>
        </extensions>
      </trkpt>
      <trkpt lat="45.34547631628811359405517578125" lon="-70.81637215800583362579345703125">
        <ele>704.4000244140625</ele>
        <time>2026-08-21T11:32:07.000Z</time>
        <extensions>
          <ns3:TrackPointExtension>
            <ns3:hr>125</ns3:hr>
            <ns3:cad>0</ns3:cad>
          </ns3:TrackPointExtension>
        </extensions>
      </trkpt>
      <trkpt lat="45.345471203327178955078125" lon="-70.8163829706609249114990234375">
        <ele>704.5999755859375</ele>
        <time>2026-08-21T11:32:08.000Z</time>
        <extensions>
          <ns3:TrackPointExtension>
            <ns3:hr>126</ns3:hr>
            <ns3:cad>43</ns3:cad>
          </ns3:TrackPointExtension>
        </extensions>
      </trkpt>
      <trkpt lat="45.34546256996691226959228515625" lon="-70.8163947053253650665283203125">
        <ele>705</ele>
        <time>2026-08-21T11:32:09.000Z</time>
        <extensions>
          <ns3:TrackPointExtension>
            <ns3:hr>127</ns3:hr>
            <ns3:cad>43</ns3:cad>
          </ns3:TrackPointExtension>
        </extensions>
      </trkpt>
      <trkpt lat="45.3454589657485485076904296875" lon="-70.816398896276950836181640625">
        <ele>705.20001220703125</ele>
        <time>2026-08-21T11:32:10.000Z</time>
        <extensions>
          <ns3:TrackPointExtension>
            <ns3:hr>128</ns3:hr>
            <ns3:cad>43</ns3:cad>
          </ns3:TrackPointExtension>
        </extensions>
      </trkpt>
      <trkpt lat="45.34544765017926692962646484375" lon="-70.81641188822686672210693359375">
        <ele>705.4000244140625</ele>
        <time>2026-08-21T11:32:11.000Z</time>
        <extensions>
          <ns3:TrackPointExtension>
            <ns3:hr>130</ns3:hr>
            <ns3:cad>43</ns3:cad>
          </ns3:TrackPointExtension>
        </extensions>
      </trkpt>
      <trkpt lat="45.3454381786286830902099609375" lon="-70.81642203032970428466796875">
        <ele>705.79998779296875</ele>
        <time>2026-08-21T11:32:12.000Z</time>
        <extensions>
          <ns3:TrackPointExtension>
            <ns3:hr>132</ns3:hr>
            <ns3:cad>43</ns3:cad>
          </ns3:TrackPointExtension>
        </extensions>
      </trkpt>
      <trkpt lat="45.34543289802968502044677734375" lon="-70.81642873585224151611328125">
        <ele>706</ele>
        <time>2026-08-21T11:32:13.000Z</time>
        <extensions>
          <ns3:TrackPointExtension>
            <ns3:hr>132</ns3:hr>
            <ns3:cad>43</ns3:cad>
          </ns3:TrackPointExtension>
        </extensions>
      </trkpt>
      <trkpt lat="45.34542552195489406585693359375" lon="-70.8164392970502376556396484375">
        <ele>706.20001220703125</ele>
        <time>2026-08-21T11:32:14.000Z</time>
        <extensions>
          <ns3:TrackPointExtension>
            <ns3:hr>133</ns3:hr>
            <ns3:cad>43</ns3:cad>
          </ns3:TrackPointExtension>
        </extensions>
      </trkpt>
      <trkpt lat="45.3454120270907878875732421875" lon="-70.81645078025758266448974609375">
        <ele>706.4000244140625</ele>
        <time>2026-08-21T11:32:15.000Z</time>
        <extensions>
          <ns3:TrackPointExtension>
            <ns3:hr>133</ns3:hr>
            <ns3:cad>43</ns3:cad>
          </ns3:TrackPointExtension>
        </extensions>
      </trkpt>
      <trkpt lat="45.34540154971182346343994140625" lon="-70.81645782105624675750732421875">
        <ele>706.5999755859375</ele>
        <time>2026-08-21T11:32:16.000Z</time>
        <extensions>
          <ns3:TrackPointExtension>
            <ns3:hr>134</ns3:hr>
            <ns3:cad>44</ns3:cad>
          </ns3:TrackPointExtension>
        </extensions>
      </trkpt>
      <trkpt lat="45.34539216198027133941650390625" lon="-70.81646536476910114288330078125">
        <ele>706.79998779296875</ele>
        <time>2026-08-21T11:32:17.000Z</time>
        <extensions>
          <ns3:TrackPointExtension>
            <ns3:hr>134</ns3:hr>
            <ns3:cad>44</ns3:cad>
          </ns3:TrackPointExtension>
        </extensions>
      </trkpt>
      <trkpt lat="45.3453845344483852386474609375" lon="-70.81646637059748172760009765625">
        <ele>707</ele>
        <time>2026-08-21T11:32:18.000Z</time>
        <extensions>
          <ns3:TrackPointExtension>
            <ns3:hr>135</ns3:hr>
            <ns3:cad>44</ns3:cad>
          </ns3:TrackPointExtension>
        </extensions>
      </trkpt>
      <trkpt lat="45.34537439234554767608642578125" lon="-70.81647106446325778961181640625">
        <ele>707.20001220703125</ele>
        <time>2026-08-21T11:32:19.000Z</time>
        <extensions>
          <ns3:TrackPointExtension>
            <ns3:hr>135</ns3:hr>
            <ns3:cad>44</ns3:cad>
          </ns3:TrackPointExtension>
        </extensions>
      </trkpt>
      <trkpt lat="45.34537053667008876800537109375" lon="-70.81647793762385845184326171875">
        <ele>707.4000244140625</ele>
        <time>2026-08-21T11:32:20.000Z</time>
        <extensions>
          <ns3:TrackPointExtension>
            <ns3:hr>136</ns3:hr>
            <ns3:cad>44</ns3:cad>
          </ns3:TrackPointExtension>
        </extensions>
      </trkpt>
      <trkpt lat="45.34536316059529781341552734375" lon="-70.8164830505847930908203125">
        <ele>707.5999755859375</ele>
        <time>2026-08-21T11:32:21.000Z</time>
        <extensions>
          <ns3:TrackPointExtension>
            <ns3:hr>138</ns3:hr>
            <ns3:cad>0</ns3:cad>
          </ns3:TrackPointExtension>
        </extensions>
      </trkpt>
      <trkpt lat="45.34535394050180912017822265625" lon="-70.816496126353740692138671875">
        <ele>707.5999755859375</ele>
        <time>2026-08-21T11:32:22.000Z</time>
        <extensions>
          <ns3:TrackPointExtension>
            <ns3:hr>139</ns3:hr>
            <ns3:cad>0</ns3:cad>
          </ns3:TrackPointExtension>
        </extensions>
      </trkpt>
      <trkpt lat="45.34534354694187641143798828125" lon="-70.8165070228278636932373046875">
        <ele>707.5999755859375</ele>
        <time>2026-08-21T11:32:23.000Z</time>
        <extensions>
          <ns3:TrackPointExtension>
            <ns3:hr>140</ns3:hr>
            <ns3:cad>47</ns3:cad>
          </ns3:TrackPointExtension>
        </extensions>
      </trkpt>
      <trkpt lat="45.34533784724771976470947265625" lon="-70.8165184222161769866943359375">
        <ele>707.4000244140625</ele>
        <time>2026-08-21T11:32:24.000Z</time>
        <extensions>
          <ns3:TrackPointExtension>
            <ns3:hr>141</ns3:hr>
            <ns3:cad>47</ns3:cad>
          </ns3:TrackPointExtension>
        </extensions>
      </trkpt>
      <trkpt lat="45.3453298844397068023681640625" lon="-70.81653225235641002655029296875">
        <ele>707.20001220703125</ele>
        <time>2026-08-21T11:32:25.000Z</time>
        <extensions>
          <ns3:TrackPointExtension>
            <ns3:hr>141</ns3:hr>
            <ns3:cad>48</ns3:cad>
          </ns3:TrackPointExtension>
        </extensions>
      </trkpt>
      <trkpt lat="45.34531689248979091644287109375" lon="-70.8165485970675945281982421875">
        <ele>707.20001220703125</ele>
        <time>2026-08-21T11:32:26.000Z</time>
        <extensions>
          <ns3:TrackPointExtension>
            <ns3:hr>142</ns3:hr>
            <ns3:cad>48</ns3:cad>
          </ns3:TrackPointExtension>
        </extensions>
      </trkpt>
      <trkpt lat="45.34530716948211193084716796875" lon="-70.81655924208462238311767578125">
        <ele>707.20001220703125</ele>
        <time>2026-08-21T11:32:27.000Z</time>
        <extensions>
          <ns3:TrackPointExtension>
            <ns3:hr>142</ns3:hr>
            <ns3:cad>57</ns3:cad>
          </ns3:TrackPointExtension>
        </extensions>
      </trkpt>
      <trkpt lat="45.34529996104538440704345703125" lon="-70.81657223403453826904296875">
        <ele>707.20001220703125</ele>
        <time>2026-08-21T11:32:28.000Z</time>
        <extensions>
          <ns3:TrackPointExtension>
            <ns3:hr>142</ns3:hr>
            <ns3:cad>57</ns3:cad>
          </ns3:TrackPointExtension>
        </extensions>
      </trkpt>
      <trkpt lat="45.34529124386608600616455078125" lon="-70.81658187322318553924560546875">
        <ele>707.4000244140625</ele>
        <time>2026-08-21T11:32:29.000Z</time>
        <extensions>
          <ns3:TrackPointExtension>
            <ns3:hr>143</ns3:hr>
            <ns3:cad>57</ns3:cad>
          </ns3:TrackPointExtension>
        </extensions>
      </trkpt>
      <trkpt lat="45.34528101794421672821044921875" lon="-70.81659075804054737091064453125">
        <ele>707.5999755859375</ele>
        <time>2026-08-21T11:32:30.000Z</time>
        <extensions>
          <ns3:TrackPointExtension>
            <ns3:hr>143</ns3:hr>
            <ns3:cad>0</ns3:cad>
          </ns3:TrackPointExtension>
        </extensions>
      </trkpt>
      <trkpt lat="45.34527313895523548126220703125" lon="-70.81659972667694091796875">
        <ele>707.79998779296875</ele>
        <time>2026-08-21T11:32:31.000Z</time>
        <extensions>
          <ns3:TrackPointExtension>
            <ns3:hr>143</ns3:hr>
            <ns3:cad>0</ns3:cad>
          </ns3:TrackPointExtension>
        </extensions>
      </trkpt>
      <trkpt lat="45.34526710398495197296142578125" lon="-70.816609449684619903564453125">
        <ele>708.20001220703125</ele>
        <time>2026-08-21T11:32:32.000Z</time>
        <extensions>
          <ns3:TrackPointExtension>
            <ns3:hr>143</ns3:hr>
            <ns3:cad>0</ns3:cad>
          </ns3:TrackPointExtension>
        </extensions>
      </trkpt>
      <trkpt lat="45.3452611528337001800537109375" lon="-70.81661908887326717376708984375">
        <ele>708.5999755859375</ele>
        <time>2026-08-21T11:32:33.000Z</time>
        <extensions>
          <ns3:TrackPointExtension>
            <ns3:hr>143</ns3:hr>
            <ns3:cad>50</ns3:cad>
          </ns3:TrackPointExtension>
        </extensions>
      </trkpt>
      <trkpt lat="45.34525620751082897186279296875" lon="-70.81662663258612155914306640625">
        <ele>708.79998779296875</ele>
        <time>2026-08-21T11:32:34.000Z</time>
        <extensions>
          <ns3:TrackPointExtension>
            <ns3:hr>143</ns3:hr>
            <ns3:cad>50</ns3:cad>
          </ns3:TrackPointExtension>
        </extensions>
      </trkpt>
      <trkpt lat="45.34524656832218170166015625" lon="-70.816636271774768829345703125">
        <ele>709.20001220703125</ele>
        <time>2026-08-21T11:32:35.000Z</time>
        <extensions>
          <ns3:TrackPointExtension>
            <ns3:hr>144</ns3:hr>
            <ns3:cad>0</ns3:cad>
          </ns3:TrackPointExtension>
        </extensions>
      </trkpt>
      <trkpt lat="45.34523910842835903167724609375" lon="-70.81664758734405040740966796875">
        <ele>709.4000244140625</ele>
        <time>2026-08-21T11:32:36.000Z</time>
        <extensions>
          <ns3:TrackPointExtension>
            <ns3:hr>144</ns3:hr>
            <ns3:cad>0</ns3:cad>
          </ns3:TrackPointExtension>
        </extensions>
      </trkpt>
      <trkpt lat="45.3452306427061557769775390625" lon="-70.81666233949363231658935546875">
        <ele>709.5999755859375</ele>
        <time>2026-08-21T11:32:37.000Z</time>
        <extensions>
          <ns3:TrackPointExtension>
            <ns3:hr>144</ns3:hr>
            <ns3:cad>0</ns3:cad>
          </ns3:TrackPointExtension>
        </extensions>
      </trkpt>
      <trkpt lat="45.34522217698395252227783203125" lon="-70.816674493253231048583984375">
        <ele>709.79998779296875</ele>
        <time>2026-08-21T11:32:38.000Z</time>
        <extensions>
          <ns3:TrackPointExtension>
            <ns3:hr>145</ns3:hr>
            <ns3:cad>0</ns3:cad>
          </ns3:TrackPointExtension>
        </extensions>
      </trkpt>
      <trkpt lat="45.34521278925240039825439453125" lon="-70.8166894130408763885498046875">
        <ele>710</ele>
        <time>2026-08-21T11:32:39.000Z</time>
        <extensions>
          <ns3:TrackPointExtension>
            <ns3:hr>146</ns3:hr>
            <ns3:cad>0</ns3:cad>
          </ns3:TrackPointExtension>
        </extensions>
      </trkpt>
      <trkpt lat="45.3452061675488948822021484375" lon="-70.81670374609529972076416015625">
        <ele>710.20001220703125</ele>
        <time>2026-08-21T11:32:40.000Z</time>
        <extensions>
          <ns3:TrackPointExtension>
            <ns3:hr>146</ns3:hr>
            <ns3:cad>0</ns3:cad>
          </ns3:TrackPointExtension>
        </extensions>
      </trkpt>
      <trkpt lat="45.34519820474088191986083984375" lon="-70.8167137205600738525390625">
        <ele>710.4000244140625</ele>
        <time>2026-08-21T11:32:41.000Z</time>
        <extensions>
          <ns3:TrackPointExtension>
            <ns3:hr>146</ns3:hr>
            <ns3:cad>0</ns3:cad>
          </ns3:TrackPointExtension>
        </extensions>
      </trkpt>
      <trkpt lat="45.34519099630415439605712890625" lon="-70.81672486849129199981689453125">
        <ele>710.4000244140625</ele>
        <time>2026-08-21T11:32:42.000Z</time>
        <extensions>
          <ns3:TrackPointExtension>
            <ns3:hr>146</ns3:hr>
            <ns3:cad>44</ns3:cad>
          </ns3:TrackPointExtension>
        </extensions>
      </trkpt>
      <trkpt lat="45.34518244676291942596435546875" lon="-70.8167400397360324859619140625">
        <ele>710.5999755859375</ele>
        <time>2026-08-21T11:32:43.000Z</time>
        <extensions>
          <ns3:TrackPointExtension>
            <ns3:hr>146</ns3:hr>
            <ns3:cad>44</ns3:cad>
          </ns3:TrackPointExtension>
        </extensions>
      </trkpt>
      <trkpt lat="45.3451763279736042022705078125" lon="-70.8167514391243457794189453125">
        <ele>710.5999755859375</ele>
        <time>2026-08-21T11:32:44.000Z</time>
        <extensions>
          <ns3:TrackPointExtension>
            <ns3:hr>147</ns3:hr>
            <ns3:cad>50</ns3:cad>
          </ns3:TrackPointExtension>
        </extensions>
      </trkpt>
      <trkpt lat="45.345167778432369232177734375" lon="-70.8167648501694202423095703125">
        <ele>710.5999755859375</ele>
        <time>2026-08-21T11:32:45.000Z</time>
        <extensions>
          <ns3:TrackPointExtension>
            <ns3:hr>146</ns3:hr>
            <ns3:cad>50</ns3:cad>
          </ns3:TrackPointExtension>
        </extensions>
      </trkpt>
      <trkpt lat="45.3451614081859588623046875" lon="-70.81678136251866817474365234375">
        <ele>710.5999755859375</ele>
        <time>2026-08-21T11:32:46.000Z</time>
        <extensions>
          <ns3:TrackPointExtension>
            <ns3:hr>147</ns3:hr>
            <ns3:cad>50</ns3:cad>
          </ns3:TrackPointExtension>
        </extensions>
      </trkpt>
      <trkpt lat="45.3451565466821193695068359375" lon="-70.8167950250208377838134765625">
        <ele>710.5999755859375</ele>
        <time>2026-08-21T11:32:47.000Z</time>
        <extensions>
          <ns3:TrackPointExtension>
            <ns3:hr>147</ns3:hr>
            <ns3:cad>53</ns3:cad>
          </ns3:TrackPointExtension>
        </extensions>
      </trkpt>
      <trkpt lat="45.345149002969264984130859375" lon="-70.81680717878043651580810546875">
        <ele>710.5999755859375</ele>
        <time>2026-08-21T11:32:48.000Z</time>
        <extensions>
          <ns3:TrackPointExtension>
            <ns3:hr>148</ns3:hr>
            <ns3:cad>53</ns3:cad>
          </ns3:TrackPointExtension>
        </extensions>
      </trkpt>
      <trkpt lat="45.34514506347477436065673828125" lon="-70.8168151415884494781494140625">
        <ele>710.5999755859375</ele>
        <time>2026-08-21T11:32:49.000Z</time>
        <extensions>
          <ns3:TrackPointExtension>
            <ns3:hr>148</ns3:hr>
            <ns3:cad>0</ns3:cad>
          </ns3:TrackPointExtension>
        </extensions>
      </trkpt>
      <trkpt lat="45.34513902850449085235595703125" lon="-70.81682897172868251800537109375">
        <ele>710.4000244140625</ele>
        <time>2026-08-21T11:32:50.000Z</time>
        <extensions>
          <ns3:TrackPointExtension>
            <ns3:hr>148</ns3:hr>
            <ns3:cad>0</ns3:cad>
          </ns3:TrackPointExtension>
        </extensions>
      </trkpt>
      <trkpt lat="45.3451290540397167205810546875" lon="-70.81684020347893238067626953125">
        <ele>710.4000244140625</ele>
        <time>2026-08-21T11:32:51.000Z</time>
        <extensions>
          <ns3:TrackPointExtension>
            <ns3:hr>147</ns3:hr>
            <ns3:cad>0</ns3:cad>
          </ns3:TrackPointExtension>
        </extensions>
      </trkpt>
      <trkpt lat="45.3451206721365451812744140625" lon="-70.81684984266757965087890625">
        <ele>710.4000244140625</ele>
        <time>2026-08-21T11:32:52.000Z</time>
        <extensions>
          <ns3:TrackPointExtension>
            <ns3:hr>147</ns3:hr>
            <ns3:cad>0</ns3:cad>
          </ns3:TrackPointExtension>
        </extensions>
      </trkpt>
      <trkpt lat="45.3451096080243587493896484375" lon="-70.8168543688952922821044921875">
        <ele>710.5999755859375</ele>
        <time>2026-08-21T11:32:53.000Z</time>
        <extensions>
          <ns3:TrackPointExtension>
            <ns3:hr>147</ns3:hr>
            <ns3:cad>0</ns3:cad>
          </ns3:TrackPointExtension>
        </extensions>
      </trkpt>
      <trkpt lat="45.34510415978729724884033203125" lon="-70.81685252487659454345703125">
        <ele>710.79998779296875</ele>
        <time>2026-08-21T11:32:54.000Z</time>
        <extensions>
          <ns3:TrackPointExtension>
            <ns3:hr>147</ns3:hr>
            <ns3:cad>0</ns3:cad>
          </ns3:TrackPointExtension>
        </extensions>
      </trkpt>
      <trkpt lat="45.3450961969792842864990234375" lon="-70.81685663200914859771728515625">
        <ele>711</ele>
        <time>2026-08-21T11:32:55.000Z</time>
        <extensions>
          <ns3:TrackPointExtension>
            <ns3:hr>146</ns3:hr>
            <ns3:cad>0</ns3:cad>
          </ns3:TrackPointExtension>
        </extensions>
      </trkpt>
      <trkpt lat="45.3450809419155120849609375" lon="-70.8168654330074787139892578125">
        <ele>711.4000244140625</ele>
        <time>2026-08-21T11:32:56.000Z</time>
        <extensions>
          <ns3:TrackPointExtension>
            <ns3:hr>145</ns3:hr>
            <ns3:cad>46</ns3:cad>
          </ns3:TrackPointExtension>
        </extensions>
      </trkpt>
      <trkpt lat="45.34507214091718196868896484375" lon="-70.816881023347377777099609375">
        <ele>711.5999755859375</ele>
        <time>2026-08-21T11:32:57.000Z</time>
        <extensions>
          <ns3:TrackPointExtension>
            <ns3:hr>144</ns3:hr>
            <ns3:cad>46</ns3:cad>
          </ns3:TrackPointExtension>
        </extensions>
      </trkpt>
      <trkpt lat="45.34505889751017093658447265625" lon="-70.8168929256498813629150390625">
        <ele>711.79998779296875</ele>
        <time>2026-08-21T11:32:58.000Z</time>
        <extensions>
          <ns3:TrackPointExtension>
            <ns3:hr>143</ns3:hr>
            <ns3:cad>46</ns3:cad>
          </ns3:TrackPointExtension>
        </extensions>
      </trkpt>
      <trkpt lat="45.345052443444728851318359375" lon="-70.816905498504638671875">
        <ele>712</ele>
        <time>2026-08-21T11:32:59.000Z</time>
        <extensions>
          <ns3:TrackPointExtension>
            <ns3:hr>142</ns3:hr>
            <ns3:cad>0</ns3:cad>
          </ns3:TrackPointExtension>
        </extensions>
      </trkpt>
      <trkpt lat="45.34504414536058902740478515625" lon="-70.81691396422684192657470703125">
        <ele>712</ele>
        <time>2026-08-21T11:33:00.000Z</time>
        <extensions>
          <ns3:TrackPointExtension>
            <ns3:hr>142</ns3:hr>
            <ns3:cad>0</ns3:cad>
          </ns3:TrackPointExtension>
        </extensions>
      </trkpt>
      <trkpt lat="45.34503224305808544158935546875" lon="-70.8169200830161571502685546875">
        <ele>711.79998779296875</ele>
        <time>2026-08-21T11:33:01.000Z</time>
        <extensions>
          <ns3:TrackPointExtension>
            <ns3:hr>143</ns3:hr>
            <ns3:cad>0</ns3:cad>
          </ns3:TrackPointExtension>
        </extensions>
      </trkpt>
      <trkpt lat="45.3450192511081695556640625" lon="-70.81693324260413646697998046875">
        <ele>711.4000244140625</ele>
        <time>2026-08-21T11:33:02.000Z</time>
        <extensions>
          <ns3:TrackPointExtension>
            <ns3:hr>143</ns3:hr>
            <ns3:cad>0</ns3:cad>
          </ns3:TrackPointExtension>
        </extensions>
      </trkpt>
      <trkpt lat="45.34501246176660060882568359375" lon="-70.81694313324987888336181640625">
        <ele>711</ele>
        <time>2026-08-21T11:33:03.000Z</time>
        <extensions>
          <ns3:TrackPointExtension>
            <ns3:hr>144</ns3:hr>
            <ns3:cad>0</ns3:cad>
          </ns3:TrackPointExtension>
        </extensions>
      </trkpt>
      <trkpt lat="45.34500290639698505401611328125" lon="-70.816952772438526153564453125">
        <ele>710.79998779296875</ele>
        <time>2026-08-21T11:33:04.000Z</time>
        <extensions>
          <ns3:TrackPointExtension>
            <ns3:hr>144</ns3:hr>
            <ns3:cad>0</ns3:cad>
          </ns3:TrackPointExtension>
        </extensions>
      </trkpt>
      <trkpt lat="45.34499268047511577606201171875" lon="-70.816962160170078277587890625">
        <ele>710.5999755859375</ele>
        <time>2026-08-21T11:33:05.000Z</time>
        <extensions>
          <ns3:TrackPointExtension>
            <ns3:hr>144</ns3:hr>
            <ns3:cad>0</ns3:cad>
          </ns3:TrackPointExtension>
        </extensions>
      </trkpt>
      <trkpt lat="45.3449885733425617218017578125" lon="-70.8169757388532161712646484375">
        <ele>710.5999755859375</ele>
        <time>2026-08-21T11:33:06.000Z</time>
        <extensions>
          <ns3:TrackPointExtension>
            <ns3:hr>144</ns3:hr>
            <ns3:cad>0</ns3:cad>
          </ns3:TrackPointExtension>
        </extensions>
      </trkpt>
      <trkpt lat="45.34498111344873905181884765625" lon="-70.8169931732118129730224609375">
        <ele>710.5999755859375</ele>
        <time>2026-08-21T11:33:07.000Z</time>
        <extensions>
          <ns3:TrackPointExtension>
            <ns3:hr>144</ns3:hr>
            <ns3:cad>0</ns3:cad>
          </ns3:TrackPointExtension>
        </extensions>
      </trkpt>
      <trkpt lat="45.34497432410717010498046875" lon="-70.8170159719884395599365234375">
        <ele>710.5999755859375</ele>
        <time>2026-08-21T11:33:08.000Z</time>
        <extensions>
          <ns3:TrackPointExtension>
            <ns3:hr>143</ns3:hr>
            <ns3:cad>0</ns3:cad>
          </ns3:TrackPointExtension>
        </extensions>
      </trkpt>
      <trkpt lat="45.344961918890476226806640625" lon="-70.81703097559511661529541015625">
        <ele>710.4000244140625</ele>
        <time>2026-08-21T11:33:09.000Z</time>
        <extensions>
          <ns3:TrackPointExtension>
            <ns3:hr>143</ns3:hr>
            <ns3:cad>0</ns3:cad>
          </ns3:TrackPointExtension>
        </extensions>
      </trkpt>
      <trkpt lat="45.344950854778289794921875" lon="-70.8170444704592227935791015625">
        <ele>710.4000244140625</ele>
        <time>2026-08-21T11:33:10.000Z</time>
        <extensions>
          <ns3:TrackPointExtension>
            <ns3:hr>143</ns3:hr>
            <ns3:cad>0</ns3:cad>
          </ns3:TrackPointExtension>
        </extensions>
      </trkpt>
      <trkpt lat="45.3449406288564205169677734375" lon="-70.817062743008136749267578125">
        <ele>710.4000244140625</ele>
        <time>2026-08-21T11:33:11.000Z</time>
        <extensions>
          <ns3:TrackPointExtension>
            <ns3:hr>142</ns3:hr>
            <ns3:cad>0</ns3:cad>
          </ns3:TrackPointExtension>
        </extensions>
      </trkpt>
      <trkpt lat="45.344933755695819854736328125" lon="-70.817078836262226104736328125">
        <ele>710.4000244140625</ele>
        <time>2026-08-21T11:33:12.000Z</time>
        <extensions>
          <ns3:TrackPointExtension>
            <ns3:hr>142</ns3:hr>
            <ns3:cad>0</ns3:cad>
          </ns3:TrackPointExtension>
        </extensions>
      </trkpt>
      <trkpt lat="45.3449225239455699920654296875" lon="-70.81709182821214199066162109375">
        <ele>710.4000244140625</ele>
        <time>2026-08-21T11:33:13.000Z</time>
        <extensions>
          <ns3:TrackPointExtension>
            <ns3:hr>142</ns3:hr>
            <ns3:cad>0</ns3:cad>
          </ns3:TrackPointExtension>
        </extensions>
      </trkpt>
      <trkpt lat="45.344912298023700714111328125" lon="-70.8171028085052967071533203125">
        <ele>710.4000244140625</ele>
        <time>2026-08-21T11:33:14.000Z</time>
        <extensions>
          <ns3:TrackPointExtension>
            <ns3:hr>142</ns3:hr>
            <ns3:cad>57</ns3:cad>
          </ns3:TrackPointExtension>
        </extensions>
      </trkpt>
      <trkpt lat="45.34490324556827545166015625" lon="-70.8171165548264980316162109375">
        <ele>710.4000244140625</ele>
        <time>2026-08-21T11:33:15.000Z</time>
        <extensions>
          <ns3:TrackPointExtension>
            <ns3:hr>141</ns3:hr>
            <ns3:cad>57</ns3:cad>
          </ns3:TrackPointExtension>
        </extensions>
      </trkpt>
      <trkpt lat="45.344894193112850189208984375" lon="-70.8171240985393524169921875">
        <ele>710.4000244140625</ele>
        <time>2026-08-21T11:33:16.000Z</time>
        <extensions>
          <ns3:TrackPointExtension>
            <ns3:hr>141</ns3:hr>
            <ns3:cad>57</ns3:cad>
          </ns3:TrackPointExtension>
        </extensions>
      </trkpt>
      <trkpt lat="45.3448797762393951416015625" lon="-70.8171329833567142486572265625">
        <ele>710.4000244140625</ele>
        <time>2026-08-21T11:33:17.000Z</time>
        <extensions>
          <ns3:TrackPointExtension>
            <ns3:hr>141</ns3:hr>
            <ns3:cad>57</ns3:cad>
          </ns3:TrackPointExtension>
        </extensions>
      </trkpt>
      <trkpt lat="45.3448692150413990020751953125" lon="-70.81714714877307415008544921875">
        <ele>710.4000244140625</ele>
        <time>2026-08-21T11:33:18.000Z</time>
        <extensions>
          <ns3:TrackPointExtension>
            <ns3:hr>140</ns3:hr>
            <ns3:cad>55</ns3:cad>
          </ns3:TrackPointExtension>
        </extensions>
      </trkpt>
      <trkpt lat="45.34486234188079833984375" lon="-70.81716206856071949005126953125">
        <ele>710.4000244140625</ele>
        <time>2026-08-21T11:33:19.000Z</time>
        <extensions>
          <ns3:TrackPointExtension>
            <ns3:hr>140</ns3:hr>
            <ns3:cad>55</ns3:cad>
          </ns3:TrackPointExtension>
        </extensions>
      </trkpt>
      <trkpt lat="45.34484800882637500762939453125" lon="-70.81716860644519329071044921875">
        <ele>710.5999755859375</ele>
        <time>2026-08-21T11:33:20.000Z</time>
        <extensions>
          <ns3:TrackPointExtension>
            <ns3:hr>139</ns3:hr>
            <ns3:cad>56</ns3:cad>
          </ns3:TrackPointExtension>
        </extensions>
      </trkpt>
      <trkpt lat="45.34483443014323711395263671875" lon="-70.81717916764318943023681640625">
        <ele>710.79998779296875</ele>
        <time>2026-08-21T11:33:21.000Z</time>
        <extensions>
          <ns3:TrackPointExtension>
            <ns3:hr>138</ns3:hr>
            <ns3:cad>56</ns3:cad>
          </ns3:TrackPointExtension>
        </extensions>
      </trkpt>
      <trkpt lat="45.34482923336327075958251953125" lon="-70.817187465727329254150390625">
        <ele>711</ele>
        <time>2026-08-21T11:33:22.000Z</time>
        <extensions>
          <ns3:TrackPointExtension>
            <ns3:hr>136</ns3:hr>
            <ns3:cad>56</ns3:cad>
          </ns3:TrackPointExtension>
        </extensions>
      </trkpt>
      <trkpt lat="45.3448276408016681671142578125" lon="-70.8172000385820865631103515625">
        <ele>711.20001220703125</ele>
        <time>2026-08-21T11:33:23.000Z</time>
        <extensions>
          <ns3:TrackPointExtension>
            <ns3:hr>135</ns3:hr>
            <ns3:cad>56</ns3:cad>
          </ns3:TrackPointExtension>
        </extensions>
      </trkpt>
      <trkpt lat="45.344822444021701812744140625" lon="-70.81721990369260311126708984375">
        <ele>711.4000244140625</ele>
        <time>2026-08-21T11:33:24.000Z</time>
        <extensions>
          <ns3:TrackPointExtension>
            <ns3:hr>134</ns3:hr>
            <ns3:cad>56</ns3:cad>
          </ns3:TrackPointExtension>
        </extensions>
      </trkpt>
      <trkpt lat="45.34482068382203578948974609375" lon="-70.81723608076572418212890625">
        <ele>711.5999755859375</ele>
        <time>2026-08-21T11:33:25.000Z</time>
        <extensions>
          <ns3:TrackPointExtension>
            <ns3:hr>133</ns3:hr>
            <ns3:cad>0</ns3:cad>
          </ns3:TrackPointExtension>
        </extensions>
      </trkpt>
      <trkpt lat="45.3448179177939891815185546875" lon="-70.81726114265620708465576171875">
        <ele>711.79998779296875</ele>
        <time>2026-08-21T11:33:26.000Z</time>
        <extensions>
          <ns3:TrackPointExtension>
            <ns3:hr>133</ns3:hr>
            <ns3:cad>0</ns3:cad>
          </ns3:TrackPointExtension>
        </extensions>
      </trkpt>
      <trkpt lat="45.34481783397495746612548828125" lon="-70.81727455370128154754638671875">
        <ele>712</ele>
        <time>2026-08-21T11:33:27.000Z</time>
        <extensions>
          <ns3:TrackPointExtension>
            <ns3:hr>133</ns3:hr>
            <ns3:cad>0</ns3:cad>
          </ns3:TrackPointExtension>
        </extensions>
      </trkpt>
      <trkpt lat="45.344817079603672027587890625" lon="-70.81728980876505374908447265625">
        <ele>712.20001220703125</ele>
        <time>2026-08-21T11:33:28.000Z</time>
        <extensions>
          <ns3:TrackPointExtension>
            <ns3:hr>133</ns3:hr>
            <ns3:cad>0</ns3:cad>
          </ns3:TrackPointExtension>
        </extensions>
      </trkpt>
      <trkpt lat="45.3448182530701160430908203125" lon="-70.81730959005653858184814453125">
        <ele>712.4000244140625</ele>
        <time>2026-08-21T11:33:29.000Z</time>
        <extensions>
          <ns3:TrackPointExtension>
            <ns3:hr>133</ns3:hr>
            <ns3:cad>0</ns3:cad>
          </ns3:TrackPointExtension>
        </extensions>
      </trkpt>
      <trkpt lat="45.344816744327545166015625" lon="-70.81732719205319881439208984375">
        <ele>712.4000244140625</ele>
        <time>2026-08-21T11:33:30.000Z</time>
        <extensions>
          <ns3:TrackPointExtension>
            <ns3:hr>133</ns3:hr>
            <ns3:cad>0</ns3:cad>
          </ns3:TrackPointExtension>
        </extensions>
      </trkpt>
      <trkpt lat="45.3448209352791309356689453125" lon="-70.81735133193433284759521484375">
        <ele>712.5999755859375</ele>
        <time>2026-08-21T11:33:31.000Z</time>
        <extensions>
          <ns3:TrackPointExtension>
            <ns3:hr>133</ns3:hr>
            <ns3:cad>0</ns3:cad>
          </ns3:TrackPointExtension>
        </extensions>
      </trkpt>
      <trkpt lat="45.34482680261135101318359375" lon="-70.817383266985416412353515625">
        <ele>712.5999755859375</ele>
        <time>2026-08-21T11:33:32.000Z</time>
        <extensions>
          <ns3:TrackPointExtension>
            <ns3:hr>133</ns3:hr>
            <ns3:cad>51</ns3:cad>
          </ns3:TrackPointExtension>
        </extensions>
      </trkpt>
      <trkpt lat="45.34483443014323711395263671875" lon="-70.81740715540945529937744140625">
        <ele>712.79998779296875</ele>
        <time>2026-08-21T11:33:33.000Z</time>
        <extensions>
          <ns3:TrackPointExtension>
            <ns3:hr>133</ns3:hr>
            <ns3:cad>48</ns3:cad>
          </ns3:TrackPointExtension>
        </extensions>
      </trkpt>
      <trkpt lat="45.3448407165706157684326171875" lon="-70.81742492504417896270751953125">
        <ele>712.79998779296875</ele>
        <time>2026-08-21T11:33:34.000Z</time>
        <extensions>
          <ns3:TrackPointExtension>
            <ns3:hr>132</ns3:hr>
            <ns3:cad>48</ns3:cad>
          </ns3:TrackPointExtension>
        </extensions>
      </trkpt>
      <trkpt lat="45.34484834410250186920166015625" lon="-70.81744453869760036468505859375">
        <ele>712.79998779296875</ele>
        <time>2026-08-21T11:33:35.000Z</time>
        <extensions>
          <ns3:TrackPointExtension>
            <ns3:hr>132</ns3:hr>
            <ns3:cad>51</ns3:cad>
          </ns3:TrackPointExtension>
        </extensions>
      </trkpt>
      <trkpt lat="45.3448556363582611083984375" lon="-70.8174615539610385894775390625">
        <ele>712.79998779296875</ele>
        <time>2026-08-21T11:33:36.000Z</time>
        <extensions>
          <ns3:TrackPointExtension>
            <ns3:hr>133</ns3:hr>
            <ns3:cad>51</ns3:cad>
          </ns3:TrackPointExtension>
        </extensions>
      </trkpt>
      <trkpt lat="45.3448636829853057861328125" lon="-70.8174759708344936370849609375">
        <ele>713</ele>
        <time>2026-08-21T11:33:37.000Z</time>
        <extensions>
          <ns3:TrackPointExtension>
            <ns3:hr>133</ns3:hr>
            <ns3:cad>51</ns3:cad>
          </ns3:TrackPointExtension>
        </extensions>
      </trkpt>
      <trkpt lat="45.344870053231716156005859375" lon="-70.81749700941145420074462890625">
        <ele>713</ele>
        <time>2026-08-21T11:33:38.000Z</time>
        <extensions>
          <ns3:TrackPointExtension>
            <ns3:hr>133</ns3:hr>
            <ns3:cad>50</ns3:cad>
          </ns3:TrackPointExtension>
        </extensions>
      </trkpt>
      <trkpt lat="45.3448752500116825103759765625" lon="-70.8175125159323215484619140625">
        <ele>713.20001220703125</ele>
        <time>2026-08-21T11:33:39.000Z</time>
        <extensions>
          <ns3:TrackPointExtension>
            <ns3:hr>132</ns3:hr>
            <ns3:cad>50</ns3:cad>
          </ns3:TrackPointExtension>
        </extensions>
      </trkpt>
      <trkpt lat="45.34487952478229999542236328125" lon="-70.81752307713031768798828125">
        <ele>713.20001220703125</ele>
        <time>2026-08-21T11:33:40.000Z</time>
        <extensions>
          <ns3:TrackPointExtension>
            <ns3:hr>132</ns3:hr>
            <ns3:cad>50</ns3:cad>
          </ns3:TrackPointExtension>
        </extensions>
      </trkpt>
      <trkpt lat="45.34488690085709095001220703125" lon="-70.8175329677760601043701171875">
        <ele>713.4000244140625</ele>
        <time>2026-08-21T11:33:41.000Z</time>
        <extensions>
          <ns3:TrackPointExtension>
            <ns3:hr>132</ns3:hr>
            <ns3:cad>50</ns3:cad>
          </ns3:TrackPointExtension>
        </extensions>
      </trkpt>
      <trkpt lat="45.3448923490941524505615234375" lon="-70.81754344515502452850341796875">
        <ele>713.79998779296875</ele>
        <time>2026-08-21T11:33:42.000Z</time>
        <extensions>
          <ns3:TrackPointExtension>
            <ns3:hr>132</ns3:hr>
            <ns3:cad>53</ns3:cad>
          </ns3:TrackPointExtension>
        </extensions>
      </trkpt>
      <trkpt lat="45.34489922225475311279296875" lon="-70.817559622228145599365234375">
        <ele>714</ele>
        <time>2026-08-21T11:33:43.000Z</time>
        <extensions>
          <ns3:TrackPointExtension>
            <ns3:hr>133</ns3:hr>
            <ns3:cad>53</ns3:cad>
          </ns3:TrackPointExtension>
        </extensions>
      </trkpt>
      <trkpt lat="45.3449117951095104217529296875" lon="-70.81757797859609127044677734375">
        <ele>714.4000244140625</ele>
        <time>2026-08-21T11:33:44.000Z</time>
        <extensions>
          <ns3:TrackPointExtension>
            <ns3:hr>132</ns3:hr>
            <ns3:cad>52</ns3:cad>
          </ns3:TrackPointExtension>
        </extensions>
      </trkpt>
      <trkpt lat="45.34491908736526966094970703125" lon="-70.817595161497592926025390625">
        <ele>714.5999755859375</ele>
        <time>2026-08-21T11:33:45.000Z</time>
        <extensions>
          <ns3:TrackPointExtension>
            <ns3:hr>132</ns3:hr>
            <ns3:cad>52</ns3:cad>
          </ns3:TrackPointExtension>
        </extensions>
      </trkpt>
      <trkpt lat="45.34492713399231433868408203125" lon="-70.8176136016845703125">
        <ele>714.5999755859375</ele>
        <time>2026-08-21T11:33:46.000Z</time>
        <extensions>
          <ns3:TrackPointExtension>
            <ns3:hr>132</ns3:hr>
            <ns3:cad>52</ns3:cad>
          </ns3:TrackPointExtension>
        </extensions>
      </trkpt>
      <trkpt lat="45.34493618644773960113525390625" lon="-70.8176325447857379913330078125">
        <ele>714.5999755859375</ele>
        <time>2026-08-21T11:33:47.000Z</time>
        <extensions>
          <ns3:TrackPointExtension>
            <ns3:hr>133</ns3:hr>
            <ns3:cad>51</ns3:cad>
          </ns3:TrackPointExtension>
        </extensions>
      </trkpt>
      <trkpt lat="45.3449396230280399322509765625" lon="-70.81764386035501956939697265625">
        <ele>714.5999755859375</ele>
        <time>2026-08-21T11:33:48.000Z</time>
        <extensions>
          <ns3:TrackPointExtension>
            <ns3:hr>132</ns3:hr>
            <ns3:cad>51</ns3:cad>
          </ns3:TrackPointExtension>
        </extensions>
      </trkpt>
      <trkpt lat="45.34494557417929172515869140625" lon="-70.8176543377339839935302734375">
        <ele>714.5999755859375</ele>
        <time>2026-08-21T11:33:49.000Z</time>
        <extensions>
          <ns3:TrackPointExtension>
            <ns3:hr>132</ns3:hr>
            <ns3:cad>51</ns3:cad>
          </ns3:TrackPointExtension>
        </extensions>
      </trkpt>
      <trkpt lat="45.34495110623538494110107421875" lon="-70.817675292491912841796875">
        <ele>714.4000244140625</ele>
        <time>2026-08-21T11:33:50.000Z</time>
        <extensions>
          <ns3:TrackPointExtension>
            <ns3:hr>133</ns3:hr>
            <ns3:cad>51</ns3:cad>
          </ns3:TrackPointExtension>
        </extensions>
      </trkpt>
      <trkpt lat="45.3449644334614276885986328125" lon="-70.81769918091595172882080078125">
        <ele>714.4000244140625</ele>
        <time>2026-08-21T11:33:51.000Z</time>
        <extensions>
          <ns3:TrackPointExtension>
            <ns3:hr>132</ns3:hr>
            <ns3:cad>51</ns3:cad>
          </ns3:TrackPointExtension>
        </extensions>
      </trkpt>
      <trkpt lat="45.3449785150587558746337890625" lon="-70.81771024502813816070556640625">
        <ele>714.20001220703125</ele>
        <time>2026-08-21T11:33:52.000Z</time>
        <extensions>
          <ns3:TrackPointExtension>
            <ns3:hr>132</ns3:hr>
            <ns3:cad>51</ns3:cad>
          </ns3:TrackPointExtension>
        </extensions>
      </trkpt>
      <trkpt lat="45.3449966199696063995361328125" lon="-70.817720554769039154052734375">
        <ele>714</ele>
        <time>2026-08-21T11:33:53.000Z</time>
        <extensions>
          <ns3:TrackPointExtension>
            <ns3:hr>132</ns3:hr>
            <ns3:cad>51</ns3:cad>
          </ns3:TrackPointExtension>
        </extensions>
      </trkpt>
      <trkpt lat="45.3450096957385540008544921875" lon="-70.8177358098328113555908203125">
        <ele>714</ele>
        <time>2026-08-21T11:33:54.000Z</time>
        <extensions>
          <ns3:TrackPointExtension>
            <ns3:hr>133</ns3:hr>
            <ns3:cad>60</ns3:cad>
          </ns3:TrackPointExtension>
        </extensions>
      </trkpt>
      <trkpt lat="45.34502704627811908721923828125" lon="-70.817759446799755096435546875">
        <ele>713.79998779296875</ele>
        <time>2026-08-21T11:33:55.000Z</time>
        <extensions>
          <ns3:TrackPointExtension>
            <ns3:hr>132</ns3:hr>
            <ns3:cad>60</ns3:cad>
          </ns3:TrackPointExtension>
        </extensions>
      </trkpt>
      <trkpt lat="45.3450407087802886962890625" lon="-70.817771852016448974609375">
        <ele>713.79998779296875</ele>
        <time>2026-08-21T11:33:56.000Z</time>
        <extensions>
          <ns3:TrackPointExtension>
            <ns3:hr>132</ns3:hr>
            <ns3:cad>75</ns3:cad>
          </ns3:TrackPointExtension>
        </extensions>
      </trkpt>
      <trkpt lat="45.3450532816350460052490234375" lon="-70.81778283230960369110107421875">
        <ele>714</ele>
        <time>2026-08-21T11:33:57.000Z</time>
        <extensions>
          <ns3:TrackPointExtension>
            <ns3:hr>132</ns3:hr>
            <ns3:cad>75</ns3:cad>
          </ns3:TrackPointExtension>
        </extensions>
      </trkpt>
      <trkpt lat="45.3450589813292026519775390625" lon="-70.81779289059340953826904296875">
        <ele>714.20001220703125</ele>
        <time>2026-08-21T11:33:58.000Z</time>
        <extensions>
          <ns3:TrackPointExtension>
            <ns3:hr>132</ns3:hr>
            <ns3:cad>75</ns3:cad>
          </ns3:TrackPointExtension>
        </extensions>
      </trkpt>
      <trkpt lat="45.3450623340904712677001953125" lon="-70.81781032495200634002685546875">
        <ele>714.4000244140625</ele>
        <time>2026-08-21T11:33:59.000Z</time>
        <extensions>
          <ns3:TrackPointExtension>
            <ns3:hr>132</ns3:hr>
            <ns3:cad>75</ns3:cad>
          </ns3:TrackPointExtension>
        </extensions>
      </trkpt>
      <trkpt lat="45.345067195594310760498046875" lon="-70.817824490368366241455078125">
        <ele>714.5999755859375</ele>
        <time>2026-08-21T11:34:00.000Z</time>
        <extensions>
          <ns3:TrackPointExtension>
            <ns3:hr>132</ns3:hr>
            <ns3:cad>75</ns3:cad>
          </ns3:TrackPointExtension>
        </extensions>
      </trkpt>
      <trkpt lat="45.34507096745073795318603515625" lon="-70.81784016452729701995849609375">
        <ele>714.79998779296875</ele>
        <time>2026-08-21T11:34:01.000Z</time>
        <extensions>
          <ns3:TrackPointExtension>
            <ns3:hr>132</ns3:hr>
            <ns3:cad>75</ns3:cad>
          </ns3:TrackPointExtension>
        </extensions>
      </trkpt>
      <trkpt lat="45.34507096745073795318603515625" lon="-70.81785558722913265228271484375">
        <ele>714.79998779296875</ele>
        <time>2026-08-21T11:34:02.000Z</time>
        <extensions>
          <ns3:TrackPointExtension>
            <ns3:hr>132</ns3:hr>
            <ns3:cad>51</ns3:cad>
          </ns3:TrackPointExtension>
        </extensions>
      </trkpt>
      <trkpt lat="45.34507314674556255340576171875" lon="-70.817868076264858245849609375">
        <ele>714.79998779296875</ele>
        <time>2026-08-21T11:34:03.000Z</time>
        <extensions>
          <ns3:TrackPointExtension>
            <ns3:hr>133</ns3:hr>
            <ns3:cad>51</ns3:cad>
          </ns3:TrackPointExtension>
        </extensions>
      </trkpt>
      <trkpt lat="45.34507867880165576934814453125" lon="-70.8178804814815521240234375">
        <ele>714.5999755859375</ele>
        <time>2026-08-21T11:34:04.000Z</time>
        <extensions>
          <ns3:TrackPointExtension>
            <ns3:hr>133</ns3:hr>
            <ns3:cad>51</ns3:cad>
          </ns3:TrackPointExtension>
        </extensions>
      </trkpt>
      <trkpt lat="45.34507758915424346923828125" lon="-70.81788995303213596343994140625">
        <ele>714.4000244140625</ele>
        <time>2026-08-21T11:34:05.000Z</time>
        <extensions>
          <ns3:TrackPointExtension>
            <ns3:hr>133</ns3:hr>
            <ns3:cad>51</ns3:cad>
          </ns3:TrackPointExtension>
        </extensions>
      </trkpt>
      <trkpt lat="45.34507465548813343048095703125" lon="-70.8179007656872272491455078125">
        <ele>714</ele>
        <time>2026-08-21T11:34:06.000Z</time>
        <extensions>
          <ns3:TrackPointExtension>
            <ns3:hr>133</ns3:hr>
            <ns3:cad>51</ns3:cad>
          </ns3:TrackPointExtension>
        </extensions>
      </trkpt>
      <trkpt lat="45.3450703807175159454345703125" lon="-70.81791761331260204315185546875">
        <ele>713.5999755859375</ele>
        <time>2026-08-21T11:34:07.000Z</time>
        <extensions>
          <ns3:TrackPointExtension>
            <ns3:hr>134</ns3:hr>
            <ns3:cad>51</ns3:cad>
          </ns3:TrackPointExtension>
        </extensions>
      </trkpt>
      <trkpt lat="45.345067866146564483642578125" lon="-70.81793068908154964447021484375">
        <ele>713</ele>
        <time>2026-08-21T11:34:08.000Z</time>
        <extensions>
          <ns3:TrackPointExtension>
            <ns3:hr>133</ns3:hr>
            <ns3:cad>51</ns3:cad>
          </ns3:TrackPointExtension>
        </extensions>
      </trkpt>
      <trkpt lat="45.34507230855524539947509765625" lon="-70.8179359696805477142333984375">
        <ele>712.5999755859375</ele>
        <time>2026-08-21T11:34:09.000Z</time>
        <extensions>
          <ns3:TrackPointExtension>
            <ns3:hr>133</ns3:hr>
            <ns3:cad>0</ns3:cad>
          </ns3:TrackPointExtension>
        </extensions>
      </trkpt>
      <trkpt lat="45.3450774215161800384521484375" lon="-70.81794963218271732330322265625">
        <ele>712.20001220703125</ele>
        <time>2026-08-21T11:34:10.000Z</time>
        <extensions>
          <ns3:TrackPointExtension>
            <ns3:hr>133</ns3:hr>
            <ns3:cad>0</ns3:cad>
          </ns3:TrackPointExtension>
        </extensions>
      </trkpt>
      <trkpt lat="45.3450804390013217926025390625" lon="-70.817961283028125762939453125">
        <ele>712</ele>
        <time>2026-08-21T11:34:11.000Z</time>
        <extensions>
          <ns3:TrackPointExtension>
            <ns3:hr>134</ns3:hr>
            <ns3:cad>0</ns3:cad>
          </ns3:TrackPointExtension>
        </extensions>
      </trkpt>
      <trkpt lat="45.3450827859342098236083984375" lon="-70.81797813065350055694580078125">
        <ele>711.79998779296875</ele>
        <time>2026-08-21T11:34:12.000Z</time>
        <extensions>
          <ns3:TrackPointExtension>
            <ns3:hr>133</ns3:hr>
            <ns3:cad>0</ns3:cad>
          </ns3:TrackPointExtension>
        </extensions>
      </trkpt>
      <trkpt lat="45.34509091638028621673583984375" lon="-70.81798844039440155029296875">
        <ele>711.79998779296875</ele>
        <time>2026-08-21T11:34:13.000Z</time>
        <extensions>
          <ns3:TrackPointExtension>
            <ns3:hr>133</ns3:hr>
            <ns3:cad>0</ns3:cad>
          </ns3:TrackPointExtension>
        </extensions>
      </trkpt>
      <trkpt lat="45.345095358788967132568359375" lon="-70.81799908541142940521240234375">
        <ele>711.79998779296875</ele>
        <time>2026-08-21T11:34:14.000Z</time>
        <extensions>
          <ns3:TrackPointExtension>
            <ns3:hr>133</ns3:hr>
            <ns3:cad>0</ns3:cad>
          </ns3:TrackPointExtension>
        </extensions>
      </trkpt>
      <trkpt lat="45.3450951911509037017822265625" lon="-70.818009562790393829345703125">
        <ele>712</ele>
        <time>2026-08-21T11:34:15.000Z</time>
        <extensions>
          <ns3:TrackPointExtension>
            <ns3:hr>133</ns3:hr>
            <ns3:cad>0</ns3:cad>
          </ns3:TrackPointExtension>
        </extensions>
      </trkpt>
      <trkpt lat="45.34509577788412570953369140625" lon="-70.8180218003690242767333984375">
        <ele>712.20001220703125</ele>
        <time>2026-08-21T11:34:16.000Z</time>
        <extensions>
          <ns3:TrackPointExtension>
            <ns3:hr>133</ns3:hr>
            <ns3:cad>0</ns3:cad>
          </ns3:TrackPointExtension>
        </extensions>
      </trkpt>
      <trkpt lat="45.345096029341220855712890625" lon="-70.81803261302411556243896484375">
        <ele>712.4000244140625</ele>
        <time>2026-08-21T11:34:17.000Z</time>
        <extensions>
          <ns3:TrackPointExtension>
            <ns3:hr>133</ns3:hr>
            <ns3:cad>0</ns3:cad>
          </ns3:TrackPointExtension>
        </extensions>
      </trkpt>
      <trkpt lat="45.3450988791882991790771484375" lon="-70.818051137030124664306640625">
        <ele>712.4000244140625</ele>
        <time>2026-08-21T11:34:18.000Z</time>
        <extensions>
          <ns3:TrackPointExtension>
            <ns3:hr>133</ns3:hr>
            <ns3:cad>0</ns3:cad>
          </ns3:TrackPointExtension>
        </extensions>
      </trkpt>
      <trkpt lat="45.345102734863758087158203125" lon="-70.8180704154074192047119140625">
        <ele>712.20001220703125</ele>
        <time>2026-08-21T11:34:19.000Z</time>
        <extensions>
          <ns3:TrackPointExtension>
            <ns3:hr>132</ns3:hr>
            <ns3:cad>0</ns3:cad>
          </ns3:TrackPointExtension>
        </extensions>
      </trkpt>
      <trkpt lat="45.34510415978729724884033203125" lon="-70.8180868439376354217529296875">
        <ele>712.20001220703125</ele>
        <time>2026-08-21T11:34:20.000Z</time>
        <extensions>
          <ns3:TrackPointExtension>
            <ns3:hr>132</ns3:hr>
            <ns3:cad>0</ns3:cad>
          </ns3:TrackPointExtension>
        </extensions>
      </trkpt>
      <trkpt lat="45.345106758177280426025390625" lon="-70.81811073236167430877685546875">
        <ele>712</ele>
        <time>2026-08-21T11:34:21.000Z</time>
        <extensions>
          <ns3:TrackPointExtension>
            <ns3:hr>131</ns3:hr>
            <ns3:cad>0</ns3:cad>
          </ns3:TrackPointExtension>
        </extensions>
      </trkpt>
      <trkpt lat="45.3451119549572467803955078125" lon="-70.8181317709386348724365234375">
        <ele>711.79998779296875</ele>
        <time>2026-08-21T11:34:22.000Z</time>
        <extensions>
          <ns3:TrackPointExtension>
            <ns3:hr>131</ns3:hr>
            <ns3:cad>0</ns3:cad>
          </ns3:TrackPointExtension>
        </extensions>
      </trkpt>
      <trkpt lat="45.345115475356578826904296875" lon="-70.8181498758494853973388671875">
        <ele>711.79998779296875</ele>
        <time>2026-08-21T11:34:23.000Z</time>
        <extensions>
          <ns3:TrackPointExtension>
            <ns3:hr>129</ns3:hr>
            <ns3:cad>0</ns3:cad>
          </ns3:TrackPointExtension>
        </extensions>
      </trkpt>
      <trkpt lat="45.345121510326862335205078125" lon="-70.81817024387419223785400390625">
        <ele>712</ele>
        <time>2026-08-21T11:34:24.000Z</time>
        <extensions>
          <ns3:TrackPointExtension>
            <ns3:hr>129</ns3:hr>
            <ns3:cad>0</ns3:cad>
          </ns3:TrackPointExtension>
        </extensions>
      </trkpt>
      <trkpt lat="45.3451300598680973052978515625" lon="-70.81818600185215473175048828125">
        <ele>712</ele>
        <time>2026-08-21T11:34:25.000Z</time>
        <extensions>
          <ns3:TrackPointExtension>
            <ns3:hr>129</ns3:hr>
            <ns3:cad>0</ns3:cad>
          </ns3:TrackPointExtension>
        </extensions>
      </trkpt>
      <trkpt lat="45.3451391123235225677490234375" lon="-70.8182050287723541259765625">
        <ele>712.20001220703125</ele>
        <time>2026-08-21T11:34:26.000Z</time>
        <extensions>
          <ns3:TrackPointExtension>
            <ns3:hr>129</ns3:hr>
            <ns3:cad>0</ns3:cad>
          </ns3:TrackPointExtension>
        </extensions>
      </trkpt>
      <trkpt lat="45.34514472819864749908447265625" lon="-70.8182243071496486663818359375">
        <ele>712.20001220703125</ele>
        <time>2026-08-21T11:34:27.000Z</time>
        <extensions>
          <ns3:TrackPointExtension>
            <ns3:hr>128</ns3:hr>
            <ns3:cad>0</ns3:cad>
          </ns3:TrackPointExtension>
        </extensions>
      </trkpt>
      <trkpt lat="45.3451498411595821380615234375" lon="-70.81823780201375484466552734375">
        <ele>712.20001220703125</ele>
        <time>2026-08-21T11:34:28.000Z</time>
        <extensions>
          <ns3:TrackPointExtension>
            <ns3:hr>128</ns3:hr>
            <ns3:cad>0</ns3:cad>
          </ns3:TrackPointExtension>
        </extensions>
      </trkpt>
      <trkpt lat="45.34515461884438991546630859375" lon="-70.8182481117546558380126953125">
        <ele>712.20001220703125</ele>
        <time>2026-08-21T11:34:29.000Z</time>
        <extensions>
          <ns3:TrackPointExtension>
            <ns3:hr>127</ns3:hr>
            <ns3:cad>0</ns3:cad>
          </ns3:TrackPointExtension>
        </extensions>
      </trkpt>
      <trkpt lat="45.3451533615589141845703125" lon="-70.81825506873428821563720703125">
        <ele>712</ele>
        <time>2026-08-21T11:34:30.000Z</time>
        <extensions>
          <ns3:TrackPointExtension>
            <ns3:hr>126</ns3:hr>
            <ns3:cad>55</ns3:cad>
          </ns3:TrackPointExtension>
        </extensions>
      </trkpt>
      <trkpt lat="45.3451384417712688446044921875" lon="-70.81826043315231800079345703125">
        <ele>712</ele>
        <time>2026-08-21T11:34:31.000Z</time>
        <extensions>
          <ns3:TrackPointExtension>
            <ns3:hr>126</ns3:hr>
            <ns3:cad>55</ns3:cad>
          </ns3:TrackPointExtension>
        </extensions>
      </trkpt>
      <trkpt lat="45.34513114951550960540771484375" lon="-70.81825942732393741607666015625">
        <ele>712</ele>
        <time>2026-08-21T11:34:32.000Z</time>
        <extensions>
          <ns3:TrackPointExtension>
            <ns3:hr>126</ns3:hr>
            <ns3:cad>55</ns3:cad>
          </ns3:TrackPointExtension>
        </extensions>
      </trkpt>
      <trkpt lat="45.3451260365545749664306640625" lon="-70.8182615227997303009033203125">
        <ele>712.20001220703125</ele>
        <time>2026-08-21T11:34:33.000Z</time>
        <extensions>
          <ns3:TrackPointExtension>
            <ns3:hr>126</ns3:hr>
            <ns3:cad>55</ns3:cad>
          </ns3:TrackPointExtension>
        </extensions>
      </trkpt>
      <trkpt lat="45.34512050449848175048828125" lon="-70.8182705752551555633544921875">
        <ele>712.20001220703125</ele>
        <time>2026-08-21T11:34:34.000Z</time>
        <extensions>
          <ns3:TrackPointExtension>
            <ns3:hr>126</ns3:hr>
            <ns3:cad>55</ns3:cad>
          </ns3:TrackPointExtension>
        </extensions>
      </trkpt>
      <trkpt lat="45.34511203877627849578857421875" lon="-70.81827753223478794097900390625">
        <ele>712.4000244140625</ele>
        <time>2026-08-21T11:34:35.000Z</time>
        <extensions>
          <ns3:TrackPointExtension>
            <ns3:hr>125</ns3:hr>
            <ns3:cad>55</ns3:cad>
          </ns3:TrackPointExtension>
        </extensions>
      </trkpt>
      <trkpt lat="45.34510441124439239501953125" lon="-70.81828323192894458770751953125">
        <ele>712.5999755859375</ele>
        <time>2026-08-21T11:34:36.000Z</time>
        <extensions>
          <ns3:TrackPointExtension>
            <ns3:hr>125</ns3:hr>
            <ns3:cad>55</ns3:cad>
          </ns3:TrackPointExtension>
        </extensions>
      </trkpt>
      <trkpt lat="45.34509661607444286346435546875" lon="-70.81829614005982875823974609375">
        <ele>712.5999755859375</ele>
        <time>2026-08-21T11:34:37.000Z</time>
        <extensions>
          <ns3:TrackPointExtension>
            <ns3:hr>125</ns3:hr>
            <ns3:cad>0</ns3:cad>
          </ns3:TrackPointExtension>
        </extensions>
      </trkpt>
      <trkpt lat="45.34509175457060337066650390625" lon="-70.8183084614574909210205078125">
        <ele>712.79998779296875</ele>
        <time>2026-08-21T11:34:38.000Z</time>
        <extensions>
          <ns3:TrackPointExtension>
            <ns3:hr>125</ns3:hr>
            <ns3:cad>50</ns3:cad>
          </ns3:TrackPointExtension>
        </extensions>
      </trkpt>
      <trkpt lat="45.3450925089418888092041015625" lon="-70.81831776537001132965087890625">
        <ele>712.5999755859375</ele>
        <time>2026-08-21T11:34:39.000Z</time>
        <extensions>
          <ns3:TrackPointExtension>
            <ns3:hr>125</ns3:hr>
            <ns3:cad>50</ns3:cad>
          </ns3:TrackPointExtension>
        </extensions>
      </trkpt>
      <trkpt lat="45.3450851328670978546142578125" lon="-70.81832639873027801513671875">
        <ele>712.5999755859375</ele>
        <time>2026-08-21T11:34:40.000Z</time>
        <extensions>
          <ns3:TrackPointExtension>
            <ns3:hr>125</ns3:hr>
            <ns3:cad>50</ns3:cad>
          </ns3:TrackPointExtension>
        </extensions>
      </trkpt>
      <trkpt lat="45.345075912773609161376953125" lon="-70.81833268515765666961669921875">
        <ele>712.4000244140625</ele>
        <time>2026-08-21T11:34:41.000Z</time>
        <extensions>
          <ns3:TrackPointExtension>
            <ns3:hr>125</ns3:hr>
            <ns3:cad>50</ns3:cad>
          </ns3:TrackPointExtension>
        </extensions>
      </trkpt>
      <trkpt lat="45.34506794996559619903564453125" lon="-70.8183409832417964935302734375">
        <ele>712.20001220703125</ele>
        <time>2026-08-21T11:34:42.000Z</time>
        <extensions>
          <ns3:TrackPointExtension>
            <ns3:hr>125</ns3:hr>
            <ns3:cad>50</ns3:cad>
          </ns3:TrackPointExtension>
        </extensions>
      </trkpt>
      <trkpt lat="45.3450643457472324371337890625" lon="-70.8183537237346172332763671875">
        <ele>712</ele>
        <time>2026-08-21T11:34:43.000Z</time>
        <extensions>
          <ns3:TrackPointExtension>
            <ns3:hr>126</ns3:hr>
            <ns3:cad>50</ns3:cad>
          </ns3:TrackPointExtension>
        </extensions>
      </trkpt>
      <trkpt lat="45.3450562991201877593994140625" lon="-70.8183691464364528656005859375">
        <ele>711.79998779296875</ele>
        <time>2026-08-21T11:34:44.000Z</time>
        <extensions>
          <ns3:TrackPointExtension>
            <ns3:hr>126</ns3:hr>
            <ns3:cad>55</ns3:cad>
          </ns3:TrackPointExtension>
        </extensions>
      </trkpt>
      <trkpt lat="45.34505018033087253570556640625" lon="-70.81838280893862247467041015625">
        <ele>711.5999755859375</ele>
        <time>2026-08-21T11:34:45.000Z</time>
        <extensions>
          <ns3:TrackPointExtension>
            <ns3:hr>126</ns3:hr>
            <ns3:cad>55</ns3:cad>
          </ns3:TrackPointExtension>
        </extensions>
      </trkpt>
      <trkpt lat="45.34504163078963756561279296875" lon="-70.818393118679523468017578125">
        <ele>711.5999755859375</ele>
        <time>2026-08-21T11:34:46.000Z</time>
        <extensions>
          <ns3:TrackPointExtension>
            <ns3:hr>126</ns3:hr>
            <ns3:cad>55</ns3:cad>
          </ns3:TrackPointExtension>
        </extensions>
      </trkpt>
      <trkpt lat="45.34503400325775146484375" lon="-70.8184043504297733306884765625">
        <ele>711.5999755859375</ele>
        <time>2026-08-21T11:34:47.000Z</time>
        <extensions>
          <ns3:TrackPointExtension>
            <ns3:hr>125</ns3:hr>
            <ns3:cad>55</ns3:cad>
          </ns3:TrackPointExtension>
        </extensions>
      </trkpt>
      <trkpt lat="45.34502587281167507171630859375" lon="-70.81840745173394680023193359375">
        <ele>711.5999755859375</ele>
        <time>2026-08-21T11:34:48.000Z</time>
        <extensions>
          <ns3:TrackPointExtension>
            <ns3:hr>126</ns3:hr>
            <ns3:cad>55</ns3:cad>
          </ns3:TrackPointExtension>
        </extensions>
      </trkpt>
      <trkpt lat="45.34501313231885433197021484375" lon="-70.818413905799388885498046875">
        <ele>711.79998779296875</ele>
        <time>2026-08-21T11:34:49.000Z</time>
        <extensions>
          <ns3:TrackPointExtension>
            <ns3:hr>126</ns3:hr>
            <ns3:cad>0</ns3:cad>
          </ns3:TrackPointExtension>
        </extensions>
      </trkpt>
      <trkpt lat="45.3450031578540802001953125" lon="-70.818421952426433563232421875">
        <ele>712</ele>
        <time>2026-08-21T11:34:50.000Z</time>
        <extensions>
          <ns3:TrackPointExtension>
            <ns3:hr>126</ns3:hr>
            <ns3:cad>0</ns3:cad>
          </ns3:TrackPointExtension>
        </extensions>
      </trkpt>
      <trkpt lat="45.34499620087444782257080078125" lon="-70.8184278197586536407470703125">
        <ele>712.20001220703125</ele>
        <time>2026-08-21T11:34:51.000Z</time>
        <extensions>
          <ns3:TrackPointExtension>
            <ns3:hr>126</ns3:hr>
            <ns3:cad>0</ns3:cad>
          </ns3:TrackPointExtension>
        </extensions>
      </trkpt>
      <trkpt lat="45.3449843823909759521484375" lon="-70.81843905150890350341796875">
        <ele>712.4000244140625</ele>
        <time>2026-08-21T11:34:52.000Z</time>
        <extensions>
          <ns3:TrackPointExtension>
            <ns3:hr>126</ns3:hr>
            <ns3:cad>0</ns3:cad>
          </ns3:TrackPointExtension>
        </extensions>
      </trkpt>
      <trkpt lat="45.3449754975736141204833984375" lon="-70.81844852305948734283447265625">
        <ele>712.79998779296875</ele>
        <time>2026-08-21T11:34:53.000Z</time>
        <extensions>
          <ns3:TrackPointExtension>
            <ns3:hr>127</ns3:hr>
            <ns3:cad>0</ns3:cad>
          </ns3:TrackPointExtension>
        </extensions>
      </trkpt>
      <trkpt lat="45.344969965517520904541015625" lon="-70.818458832800388336181640625">
        <ele>713</ele>
        <time>2026-08-21T11:34:54.000Z</time>
        <extensions>
          <ns3:TrackPointExtension>
            <ns3:hr>127</ns3:hr>
            <ns3:cad>0</ns3:cad>
          </ns3:TrackPointExtension>
        </extensions>
      </trkpt>
      <trkpt lat="45.3449677862226963043212890625" lon="-70.81846260465681552886962890625">
        <ele>713.4000244140625</ele>
        <time>2026-08-21T11:34:55.000Z</time>
        <extensions>
          <ns3:TrackPointExtension>
            <ns3:hr>127</ns3:hr>
            <ns3:cad>0</ns3:cad>
          </ns3:TrackPointExtension>
        </extensions>
      </trkpt>
      <trkpt lat="45.34496200270950794219970703125" lon="-70.8184720762073993682861328125">
        <ele>713.5999755859375</ele>
        <time>2026-08-21T11:34:56.000Z</time>
        <extensions>
          <ns3:TrackPointExtension>
            <ns3:hr>127</ns3:hr>
            <ns3:cad>0</ns3:cad>
          </ns3:TrackPointExtension>
        </extensions>
      </trkpt>
      <trkpt lat="45.3449587337672710418701171875" lon="-70.81847718916833400726318359375">
        <ele>714</ele>
        <time>2026-08-21T11:34:57.000Z</time>
        <extensions>
          <ns3:TrackPointExtension>
            <ns3:hr>128</ns3:hr>
            <ns3:cad>0</ns3:cad>
          </ns3:TrackPointExtension>
        </extensions>
      </trkpt>
      <trkpt lat="45.34495311789214611053466796875" lon="-70.8184851519763469696044921875">
        <ele>714.20001220703125</ele>
        <time>2026-08-21T11:34:58.000Z</time>
        <extensions>
          <ns3:TrackPointExtension>
            <ns3:hr>128</ns3:hr>
            <ns3:cad>0</ns3:cad>
          </ns3:TrackPointExtension>
        </extensions>
      </trkpt>
      <trkpt lat="45.34494884312152862548828125" lon="-70.818490348756313323974609375">
        <ele>714.4000244140625</ele>
        <time>2026-08-21T11:34:59.000Z</time>
        <extensions>
          <ns3:TrackPointExtension>
            <ns3:hr>127</ns3:hr>
            <ns3:cad>0</ns3:cad>
          </ns3:TrackPointExtension>
        </extensions>
      </trkpt>
      <trkpt lat="45.34494490362703800201416015625" lon="-70.8184978924691677093505859375">
        <ele>714.5999755859375</ele>
        <time>2026-08-21T11:35:00.000Z</time>
        <extensions>
          <ns3:TrackPointExtension>
            <ns3:hr>127</ns3:hr>
            <ns3:cad>0</ns3:cad>
          </ns3:TrackPointExtension>
        </extensions>
      </trkpt>
      <trkpt lat="45.34494808875024318695068359375" lon="-70.81849537789821624755859375">
        <ele>714.79998779296875</ele>
        <time>2026-08-21T11:35:01.000Z</time>
        <extensions>
          <ns3:TrackPointExtension>
            <ns3:hr>128</ns3:hr>
            <ns3:cad>0</ns3:cad>
          </ns3:TrackPointExtension>
        </extensions>
      </trkpt>
      <trkpt lat="45.3449428081512451171875" lon="-70.81849646754562854766845703125">
        <ele>715</ele>
        <time>2026-08-21T11:35:02.000Z</time>
        <extensions>
          <ns3:TrackPointExtension>
            <ns3:hr>128</ns3:hr>
            <ns3:cad>0</ns3:cad>
          </ns3:TrackPointExtension>
        </extensions>
      </trkpt>
      <trkpt lat="45.344938449561595916748046875" lon="-70.81849965266883373260498046875">
        <ele>715.20001220703125</ele>
        <time>2026-08-21T11:35:03.000Z</time>
        <extensions>
          <ns3:TrackPointExtension>
            <ns3:hr>128</ns3:hr>
            <ns3:cad>0</ns3:cad>
          </ns3:TrackPointExtension>
        </extensions>
      </trkpt>
      <trkpt lat="45.34493434242904186248779296875" lon="-70.8185040950775146484375">
        <ele>715.4000244140625</ele>
        <time>2026-08-21T11:35:04.000Z</time>
        <extensions>
          <ns3:TrackPointExtension>
            <ns3:hr>128</ns3:hr>
            <ns3:cad>0</ns3:cad>
          </ns3:TrackPointExtension>
        </extensions>
      </trkpt>
      <trkpt lat="45.34493467770516872406005859375" lon="-70.8185079507529735565185546875">
        <ele>715.5999755859375</ele>
        <time>2026-08-21T11:35:05.000Z</time>
        <extensions>
          <ns3:TrackPointExtension>
            <ns3:hr>129</ns3:hr>
            <ns3:cad>0</ns3:cad>
          </ns3:TrackPointExtension>
        </extensions>
      </trkpt>
      <trkpt lat="45.34494490362703800201416015625" lon="-70.81850082613527774810791015625">
        <ele>715.79998779296875</ele>
        <time>2026-08-21T11:35:06.000Z</time>
        <extensions>
          <ns3:TrackPointExtension>
            <ns3:hr>128</ns3:hr>
            <ns3:cad>0</ns3:cad>
          </ns3:TrackPointExtension>
        </extensions>
      </trkpt>
      <trkpt lat="45.3449349291622638702392578125" lon="-70.8185042627155780792236328125">
        <ele>716</ele>
        <time>2026-08-21T11:35:07.000Z</time>
        <extensions>
          <ns3:TrackPointExtension>
            <ns3:hr>128</ns3:hr>
            <ns3:cad>0</ns3:cad>
          </ns3:TrackPointExtension>
        </extensions>
      </trkpt>
      <trkpt lat="45.34492336213588714599609375" lon="-70.818508453667163848876953125">
        <ele>716.20001220703125</ele>
        <time>2026-08-21T11:35:08.000Z</time>
        <extensions>
          <ns3:TrackPointExtension>
            <ns3:hr>128</ns3:hr>
            <ns3:cad>65</ns3:cad>
          </ns3:TrackPointExtension>
        </extensions>
      </trkpt>
      <trkpt lat="45.3449174948036670684814453125" lon="-70.818514488637447357177734375">
        <ele>716.4000244140625</ele>
        <time>2026-08-21T11:35:09.000Z</time>
        <extensions>
          <ns3:TrackPointExtension>
            <ns3:hr>128</ns3:hr>
            <ns3:cad>65</ns3:cad>
          </ns3:TrackPointExtension>
        </extensions>
      </trkpt>
      <trkpt lat="45.34491305239498615264892578125" lon="-70.81851976923644542694091796875">
        <ele>716.5999755859375</ele>
        <time>2026-08-21T11:35:10.000Z</time>
        <extensions>
          <ns3:TrackPointExtension>
            <ns3:hr>129</ns3:hr>
            <ns3:cad>65</ns3:cad>
          </ns3:TrackPointExtension>
        </extensions>
      </trkpt>
      <trkpt lat="45.34491305239498615264892578125" lon="-70.818521864712238311767578125">
        <ele>716.79998779296875</ele>
        <time>2026-08-21T11:35:11.000Z</time>
        <extensions>
          <ns3:TrackPointExtension>
            <ns3:hr>129</ns3:hr>
            <ns3:cad>0</ns3:cad>
          </ns3:TrackPointExtension>
        </extensions>
      </trkpt>
      <trkpt lat="45.34491129219532012939453125" lon="-70.818521194159984588623046875">
        <ele>717</ele>
        <time>2026-08-21T11:35:12.000Z</time>
        <extensions>
          <ns3:TrackPointExtension>
            <ns3:hr>129</ns3:hr>
            <ns3:cad>0</ns3:cad>
          </ns3:TrackPointExtension>
        </extensions>
      </trkpt>
      <trkpt lat="45.34490584395825862884521484375" lon="-70.81852613948285579681396484375">
        <ele>717.20001220703125</ele>
        <time>2026-08-21T11:35:13.000Z</time>
        <extensions>
          <ns3:TrackPointExtension>
            <ns3:hr>129</ns3:hr>
            <ns3:cad>0</ns3:cad>
          </ns3:TrackPointExtension>
        </extensions>
      </trkpt>
      <trkpt lat="45.34490131773054599761962890625" lon="-70.81852798350155353546142578125">
        <ele>717.4000244140625</ele>
        <time>2026-08-21T11:35:14.000Z</time>
        <extensions>
          <ns3:TrackPointExtension>
            <ns3:hr>129</ns3:hr>
            <ns3:cad>0</ns3:cad>
          </ns3:TrackPointExtension>
        </extensions>
      </trkpt>
      <trkpt lat="45.34489863552153110504150390625" lon="-70.81853200681507587432861328125">
        <ele>717.5999755859375</ele>
        <time>2026-08-21T11:35:15.000Z</time>
        <extensions>
          <ns3:TrackPointExtension>
            <ns3:hr>128</ns3:hr>
            <ns3:cad>0</ns3:cad>
          </ns3:TrackPointExtension>
        </extensions>
      </trkpt>
      <trkpt lat="45.3448980487883090972900390625" lon="-70.81854357384145259857177734375">
        <ele>717.79998779296875</ele>
        <time>2026-08-21T11:35:16.000Z</time>
        <extensions>
          <ns3:TrackPointExtension>
            <ns3:hr>129</ns3:hr>
            <ns3:cad>0</ns3:cad>
          </ns3:TrackPointExtension>
        </extensions>
      </trkpt>
      <trkpt lat="45.3448923490941524505615234375" lon="-70.81854902207851409912109375">
        <ele>718</ele>
        <time>2026-08-21T11:35:17.000Z</time>
        <extensions>
          <ns3:TrackPointExtension>
            <ns3:hr>129</ns3:hr>
            <ns3:cad>0</ns3:cad>
          </ns3:TrackPointExtension>
        </extensions>
      </trkpt>
      <trkpt lat="45.34489176236093044281005859375" lon="-70.81855178810656070709228515625">
        <ele>718.4000244140625</ele>
        <time>2026-08-21T11:35:18.000Z</time>
        <extensions>
          <ns3:TrackPointExtension>
            <ns3:hr>130</ns3:hr>
            <ns3:cad>0</ns3:cad>
          </ns3:TrackPointExtension>
        </extensions>
      </trkpt>
      <trkpt lat="45.3448896668851375579833984375" lon="-70.818554051220417022705078125">
        <ele>718.5999755859375</ele>
        <time>2026-08-21T11:35:19.000Z</time>
        <extensions>
          <ns3:TrackPointExtension>
            <ns3:hr>130</ns3:hr>
            <ns3:cad>0</ns3:cad>
          </ns3:TrackPointExtension>
        </extensions>
      </trkpt>
      <trkpt lat="45.344891510903835296630859375" lon="-70.81855530850589275360107421875">
        <ele>718.79998779296875</ele>
        <time>2026-08-21T11:35:20.000Z</time>
        <extensions>
          <ns3:TrackPointExtension>
            <ns3:hr>131</ns3:hr>
            <ns3:cad>0</ns3:cad>
          </ns3:TrackPointExtension>
        </extensions>
      </trkpt>
      <trkpt lat="45.3448816202580928802490234375" lon="-70.8185609243810176849365234375">
        <ele>719</ele>
        <time>2026-08-21T11:35:21.000Z</time>
        <extensions>
          <ns3:TrackPointExtension>
            <ns3:hr>132</ns3:hr>
            <ns3:cad>0</ns3:cad>
          </ns3:TrackPointExtension>
        </extensions>
      </trkpt>
      <trkpt lat="45.34487449564039707183837890625" lon="-70.8185656182467937469482421875">
        <ele>719.20001220703125</ele>
        <time>2026-08-21T11:35:22.000Z</time>
        <extensions>
          <ns3:TrackPointExtension>
            <ns3:hr>132</ns3:hr>
            <ns3:cad>0</ns3:cad>
          </ns3:TrackPointExtension>
        </extensions>
      </trkpt>
      <trkpt lat="45.344872735440731048583984375" lon="-70.81856553442776203155517578125">
        <ele>719.4000244140625</ele>
        <time>2026-08-21T11:35:23.000Z</time>
        <extensions>
          <ns3:TrackPointExtension>
            <ns3:hr>133</ns3:hr>
            <ns3:cad>0</ns3:cad>
          </ns3:TrackPointExtension>
        </extensions>
      </trkpt>
      <trkpt lat="45.3448625095188617706298828125" lon="-70.81856913864612579345703125">
        <ele>719.79998779296875</ele>
        <time>2026-08-21T11:35:24.000Z</time>
        <extensions>
          <ns3:TrackPointExtension>
            <ns3:hr>133</ns3:hr>
            <ns3:cad>0</ns3:cad>
          </ns3:TrackPointExtension>
        </extensions>
      </trkpt>
      <trkpt lat="45.34486259333789348602294921875" lon="-70.81856670789420604705810546875">
        <ele>720</ele>
        <time>2026-08-21T11:35:25.000Z</time>
        <extensions>
          <ns3:TrackPointExtension>
            <ns3:hr>134</ns3:hr>
            <ns3:cad>0</ns3:cad>
          </ns3:TrackPointExtension>
        </extensions>
      </trkpt>
      <trkpt lat="45.3448588214814662933349609375" lon="-70.818568132817745208740234375">
        <ele>720.20001220703125</ele>
        <time>2026-08-21T11:35:26.000Z</time>
        <extensions>
          <ns3:TrackPointExtension>
            <ns3:hr>134</ns3:hr>
            <ns3:cad>0</ns3:cad>
          </ns3:TrackPointExtension>
        </extensions>
      </trkpt>
      <trkpt lat="45.3448524512350559234619140625" lon="-70.81857056356966495513916015625">
        <ele>720.4000244140625</ele>
        <time>2026-08-21T11:35:27.000Z</time>
        <extensions>
          <ns3:TrackPointExtension>
            <ns3:hr>135</ns3:hr>
            <ns3:cad>0</ns3:cad>
          </ns3:TrackPointExtension>
        </extensions>
      </trkpt>
      <trkpt lat="45.3448502719402313232421875" lon="-70.81857073120772838592529296875">
        <ele>720.79998779296875</ele>
        <time>2026-08-21T11:35:28.000Z</time>
        <extensions>
          <ns3:TrackPointExtension>
            <ns3:hr>135</ns3:hr>
            <ns3:cad>0</ns3:cad>
          </ns3:TrackPointExtension>
        </extensions>
      </trkpt>
      <trkpt lat="45.3448480926454067230224609375" lon="-70.818568132817745208740234375">
        <ele>721</ele>
        <time>2026-08-21T11:35:29.000Z</time>
        <extensions>
          <ns3:TrackPointExtension>
            <ns3:hr>136</ns3:hr>
            <ns3:cad>0</ns3:cad>
          </ns3:TrackPointExtension>
        </extensions>
      </trkpt>
      <trkpt lat="45.34483761526644229888916015625" lon="-70.81856905482709407806396484375">
        <ele>721.20001220703125</ele>
        <time>2026-08-21T11:35:30.000Z</time>
        <extensions>
          <ns3:TrackPointExtension>
            <ns3:hr>138</ns3:hr>
            <ns3:cad>0</ns3:cad>
          </ns3:TrackPointExtension>
        </extensions>
      </trkpt>
      <trkpt lat="45.34483627416193485260009765625" lon="-70.81857374869287014007568359375">
        <ele>721.4000244140625</ele>
        <time>2026-08-21T11:35:31.000Z</time>
        <extensions>
          <ns3:TrackPointExtension>
            <ns3:hr>139</ns3:hr>
            <ns3:cad>0</ns3:cad>
          </ns3:TrackPointExtension>
        </extensions>
      </trkpt>
      <trkpt lat="45.344831161201000213623046875" lon="-70.818580202758312225341796875">
        <ele>721.5999755859375</ele>
        <time>2026-08-21T11:35:32.000Z</time>
        <extensions>
          <ns3:TrackPointExtension>
            <ns3:hr>140</ns3:hr>
            <ns3:cad>0</ns3:cad>
          </ns3:TrackPointExtension>
        </extensions>
      </trkpt>
      <trkpt lat="45.344825796782970428466796875" lon="-70.8185874111950397491455078125">
        <ele>721.79998779296875</ele>
        <time>2026-08-21T11:35:33.000Z</time>
        <extensions>
          <ns3:TrackPointExtension>
            <ns3:hr>141</ns3:hr>
            <ns3:cad>0</ns3:cad>
          </ns3:TrackPointExtension>
        </extensions>
      </trkpt>
      <trkpt lat="45.34482437185943126678466796875" lon="-70.8185894228518009185791015625">
        <ele>722</ele>
        <time>2026-08-21T11:35:34.000Z</time>
        <extensions>
          <ns3:TrackPointExtension>
            <ns3:hr>142</ns3:hr>
            <ns3:cad>0</ns3:cad>
          </ns3:TrackPointExtension>
        </extensions>
      </trkpt>
      <trkpt lat="45.344819091260433197021484375" lon="-70.818592272698879241943359375">
        <ele>722.20001220703125</ele>
        <time>2026-08-21T11:35:35.000Z</time>
        <extensions>
          <ns3:TrackPointExtension>
            <ns3:hr>142</ns3:hr>
            <ns3:cad>0</ns3:cad>
          </ns3:TrackPointExtension>
        </extensions>
      </trkpt>
      <trkpt lat="45.34481716342270374298095703125" lon="-70.8185937814414501190185546875">
        <ele>722.5999755859375</ele>
        <time>2026-08-21T11:35:36.000Z</time>
        <extensions>
          <ns3:TrackPointExtension>
            <ns3:hr>143</ns3:hr>
            <ns3:cad>0</ns3:cad>
          </ns3:TrackPointExtension>
        </extensions>
      </trkpt>
      <trkpt lat="45.3448169119656085968017578125" lon="-70.81859705038368701934814453125">
        <ele>722.79998779296875</ele>
        <time>2026-08-21T11:35:37.000Z</time>
        <extensions>
          <ns3:TrackPointExtension>
            <ns3:hr>143</ns3:hr>
            <ns3:cad>0</ns3:cad>
          </ns3:TrackPointExtension>
        </extensions>
      </trkpt>
      <trkpt lat="45.34481330774724483489990234375" lon="-70.8185993134975433349609375">
        <ele>723.20001220703125</ele>
        <time>2026-08-21T11:35:38.000Z</time>
        <extensions>
          <ns3:TrackPointExtension>
            <ns3:hr>144</ns3:hr>
            <ns3:cad>0</ns3:cad>
          </ns3:TrackPointExtension>
        </extensions>
      </trkpt>
      <trkpt lat="45.344812385737895965576171875" lon="-70.818603336811065673828125">
        <ele>723.4000244140625</ele>
        <time>2026-08-21T11:35:39.000Z</time>
        <extensions>
          <ns3:TrackPointExtension>
            <ns3:hr>144</ns3:hr>
            <ns3:cad>0</ns3:cad>
          </ns3:TrackPointExtension>
        </extensions>
      </trkpt>
      <trkpt lat="45.34480710513889789581298828125" lon="-70.81860392354428768157958984375">
        <ele>723.5999755859375</ele>
        <time>2026-08-21T11:35:40.000Z</time>
        <extensions>
          <ns3:TrackPointExtension>
            <ns3:hr>144</ns3:hr>
            <ns3:cad>0</ns3:cad>
          </ns3:TrackPointExtension>
        </extensions>
      </trkpt>
      <trkpt lat="45.34480526112020015716552734375" lon="-70.818606354296207427978515625">
        <ele>723.79998779296875</ele>
        <time>2026-08-21T11:35:41.000Z</time>
        <extensions>
          <ns3:TrackPointExtension>
            <ns3:hr>144</ns3:hr>
            <ns3:cad>0</ns3:cad>
          </ns3:TrackPointExtension>
        </extensions>
      </trkpt>
      <trkpt lat="45.344800986349582672119140625" lon="-70.81860241480171680450439453125">
        <ele>724</ele>
        <time>2026-08-21T11:35:42.000Z</time>
        <extensions>
          <ns3:TrackPointExtension>
            <ns3:hr>144</ns3:hr>
            <ns3:cad>0</ns3:cad>
          </ns3:TrackPointExtension>
        </extensions>
      </trkpt>
      <trkpt lat="45.3447931073606014251708984375" lon="-70.8186019957065582275390625">
        <ele>724.20001220703125</ele>
        <time>2026-08-21T11:35:43.000Z</time>
        <extensions>
          <ns3:TrackPointExtension>
            <ns3:hr>145</ns3:hr>
            <ns3:cad>0</ns3:cad>
          </ns3:TrackPointExtension>
        </extensions>
      </trkpt>
      <trkpt lat="45.34478849731385707855224609375" lon="-70.81859788857400417327880859375">
        <ele>724.4000244140625</ele>
        <time>2026-08-21T11:35:44.000Z</time>
        <extensions>
          <ns3:TrackPointExtension>
            <ns3:hr>144</ns3:hr>
            <ns3:cad>0</ns3:cad>
          </ns3:TrackPointExtension>
        </extensions>
      </trkpt>
      <trkpt lat="45.3447877429425716400146484375" lon="-70.81859461963176727294921875">
        <ele>724.5999755859375</ele>
        <time>2026-08-21T11:35:45.000Z</time>
        <extensions>
          <ns3:TrackPointExtension>
            <ns3:hr>144</ns3:hr>
            <ns3:cad>0</ns3:cad>
          </ns3:TrackPointExtension>
        </extensions>
      </trkpt>
      <trkpt lat="45.3447818756103515625" lon="-70.8185917697846889495849609375">
        <ele>724.79998779296875</ele>
        <time>2026-08-21T11:35:46.000Z</time>
        <extensions>
          <ns3:TrackPointExtension>
            <ns3:hr>144</ns3:hr>
            <ns3:cad>0</ns3:cad>
          </ns3:TrackPointExtension>
        </extensions>
      </trkpt>
      <trkpt lat="45.34477022476494312286376953125" lon="-70.81858816556632518768310546875">
        <ele>725</ele>
        <time>2026-08-21T11:35:47.000Z</time>
        <extensions>
          <ns3:TrackPointExtension>
            <ns3:hr>144</ns3:hr>
            <ns3:cad>0</ns3:cad>
          </ns3:TrackPointExtension>
        </extensions>
      </trkpt>
      <trkpt lat="45.34476838074624538421630859375" lon="-70.81858598627150058746337890625">
        <ele>725.20001220703125</ele>
        <time>2026-08-21T11:35:48.000Z</time>
        <extensions>
          <ns3:TrackPointExtension>
            <ns3:hr>145</ns3:hr>
            <ns3:cad>0</ns3:cad>
          </ns3:TrackPointExtension>
        </extensions>
      </trkpt>
      <trkpt lat="45.34475882537662982940673828125" lon="-70.8185823820531368255615234375">
        <ele>725.5999755859375</ele>
        <time>2026-08-21T11:35:49.000Z</time>
        <extensions>
          <ns3:TrackPointExtension>
            <ns3:hr>144</ns3:hr>
            <ns3:cad>0</ns3:cad>
          </ns3:TrackPointExtension>
        </extensions>
      </trkpt>
      <trkpt lat="45.3447545506060123443603515625" lon="-70.8185827173292636871337890625">
        <ele>725.79998779296875</ele>
        <time>2026-08-21T11:35:50.000Z</time>
        <extensions>
          <ns3:TrackPointExtension>
            <ns3:hr>144</ns3:hr>
            <ns3:cad>0</ns3:cad>
          </ns3:TrackPointExtension>
        </extensions>
      </trkpt>
      <trkpt lat="45.34475195221602916717529296875" lon="-70.8185813762247562408447265625">
        <ele>726</ele>
        <time>2026-08-21T11:35:51.000Z</time>
        <extensions>
          <ns3:TrackPointExtension>
            <ns3:hr>144</ns3:hr>
            <ns3:cad>0</ns3:cad>
          </ns3:TrackPointExtension>
        </extensions>
      </trkpt>
      <trkpt lat="45.34474658779799938201904296875" lon="-70.81858129240572452545166015625">
        <ele>726.20001220703125</ele>
        <time>2026-08-21T11:35:52.000Z</time>
        <extensions>
          <ns3:TrackPointExtension>
            <ns3:hr>144</ns3:hr>
            <ns3:cad>0</ns3:cad>
          </ns3:TrackPointExtension>
        </extensions>
      </trkpt>
      <trkpt lat="45.3447458334267139434814453125" lon="-70.81857861019670963287353515625">
        <ele>726.5999755859375</ele>
        <time>2026-08-21T11:35:53.000Z</time>
        <extensions>
          <ns3:TrackPointExtension>
            <ns3:hr>145</ns3:hr>
            <ns3:cad>0</ns3:cad>
          </ns3:TrackPointExtension>
        </extensions>
      </trkpt>
      <trkpt lat="45.34473971463739871978759765625" lon="-70.818574167788028717041015625">
        <ele>726.5999755859375</ele>
        <time>2026-08-21T11:35:54.000Z</time>
        <extensions>
          <ns3:TrackPointExtension>
            <ns3:hr>144</ns3:hr>
            <ns3:cad>0</ns3:cad>
          </ns3:TrackPointExtension>
        </extensions>
      </trkpt>
      <trkpt lat="45.344731919467449188232421875" lon="-70.81857106648385524749755859375">
        <ele>727</ele>
        <time>2026-08-21T11:35:55.000Z</time>
        <extensions>
          <ns3:TrackPointExtension>
            <ns3:hr>144</ns3:hr>
            <ns3:cad>0</ns3:cad>
          </ns3:TrackPointExtension>
        </extensions>
      </trkpt>
      <trkpt lat="45.34472479484975337982177734375" lon="-70.81857207231223583221435546875">
        <ele>727.20001220703125</ele>
        <time>2026-08-21T11:35:56.000Z</time>
        <extensions>
          <ns3:TrackPointExtension>
            <ns3:hr>144</ns3:hr>
            <ns3:cad>0</ns3:cad>
          </ns3:TrackPointExtension>
        </extensions>
      </trkpt>
      <trkpt lat="45.34472085535526275634765625" lon="-70.81857207231223583221435546875">
        <ele>727.4000244140625</ele>
        <time>2026-08-21T11:35:57.000Z</time>
        <extensions>
          <ns3:TrackPointExtension>
            <ns3:hr>144</ns3:hr>
            <ns3:cad>0</ns3:cad>
          </ns3:TrackPointExtension>
        </extensions>
      </trkpt>
      <trkpt lat="45.3447149880230426788330078125" lon="-70.81857047975063323974609375">
        <ele>727.5999755859375</ele>
        <time>2026-08-21T11:35:58.000Z</time>
        <extensions>
          <ns3:TrackPointExtension>
            <ns3:hr>145</ns3:hr>
            <ns3:cad>0</ns3:cad>
          </ns3:TrackPointExtension>
        </extensions>
      </trkpt>
      <trkpt lat="45.34470920450985431671142578125" lon="-70.818569473922252655029296875">
        <ele>727.79998779296875</ele>
        <time>2026-08-21T11:35:59.000Z</time>
        <extensions>
          <ns3:TrackPointExtension>
            <ns3:hr>145</ns3:hr>
            <ns3:cad>0</ns3:cad>
          </ns3:TrackPointExtension>
        </extensions>
      </trkpt>
      <trkpt lat="45.3447072766721248626708984375" lon="-70.8185683004558086395263671875">
        <ele>728</ele>
        <time>2026-08-21T11:36:00.000Z</time>
        <extensions>
          <ns3:TrackPointExtension>
            <ns3:hr>146</ns3:hr>
            <ns3:cad>0</ns3:cad>
          </ns3:TrackPointExtension>
        </extensions>
      </trkpt>
      <trkpt lat="45.34470568411052227020263671875" lon="-70.81856385804712772369384765625">
        <ele>728.20001220703125</ele>
        <time>2026-08-21T11:36:01.000Z</time>
        <extensions>
          <ns3:TrackPointExtension>
            <ns3:hr>147</ns3:hr>
            <ns3:cad>0</ns3:cad>
          </ns3:TrackPointExtension>
        </extensions>
      </trkpt>
      <trkpt lat="45.3447002358734607696533203125" lon="-70.8185572363436222076416015625">
        <ele>728.4000244140625</ele>
        <time>2026-08-21T11:36:02.000Z</time>
        <extensions>
          <ns3:TrackPointExtension>
            <ns3:hr>148</ns3:hr>
            <ns3:cad>0</ns3:cad>
          </ns3:TrackPointExtension>
        </extensions>
      </trkpt>
      <trkpt lat="45.34469981677830219268798828125" lon="-70.8185498602688312530517578125">
        <ele>728.5999755859375</ele>
        <time>2026-08-21T11:36:03.000Z</time>
        <extensions>
          <ns3:TrackPointExtension>
            <ns3:hr>148</ns3:hr>
            <ns3:cad>0</ns3:cad>
          </ns3:TrackPointExtension>
        </extensions>
      </trkpt>
      <trkpt lat="45.344690345227718353271484375" lon="-70.8185468427836894989013671875">
        <ele>728.79998779296875</ele>
        <time>2026-08-21T11:36:04.000Z</time>
        <extensions>
          <ns3:TrackPointExtension>
            <ns3:hr>149</ns3:hr>
            <ns3:cad>0</ns3:cad>
          </ns3:TrackPointExtension>
        </extensions>
      </trkpt>
      <trkpt lat="45.34468330442905426025390625" lon="-70.81854642368853092193603515625">
        <ele>729</ele>
        <time>2026-08-21T11:36:05.000Z</time>
        <extensions>
          <ns3:TrackPointExtension>
            <ns3:hr>148</ns3:hr>
            <ns3:cad>0</ns3:cad>
          </ns3:TrackPointExtension>
        </extensions>
      </trkpt>
      <trkpt lat="45.344677604734897613525390625" lon="-70.8185455016791820526123046875">
        <ele>729.4000244140625</ele>
        <time>2026-08-21T11:36:06.000Z</time>
        <extensions>
          <ns3:TrackPointExtension>
            <ns3:hr>148</ns3:hr>
            <ns3:cad>0</ns3:cad>
          </ns3:TrackPointExtension>
        </extensions>
      </trkpt>
      <trkpt lat="45.34466318786144256591796875" lon="-70.81854122690856456756591796875">
        <ele>729.5999755859375</ele>
        <time>2026-08-21T11:36:07.000Z</time>
        <extensions>
          <ns3:TrackPointExtension>
            <ns3:hr>148</ns3:hr>
            <ns3:cad>0</ns3:cad>
          </ns3:TrackPointExtension>
        </extensions>
      </trkpt>
      <trkpt lat="45.34465438686311244964599609375" lon="-70.81853426992893218994140625">
        <ele>729.79998779296875</ele>
        <time>2026-08-21T11:36:08.000Z</time>
        <extensions>
          <ns3:TrackPointExtension>
            <ns3:hr>148</ns3:hr>
            <ns3:cad>77</ns3:cad>
          </ns3:TrackPointExtension>
        </extensions>
      </trkpt>
      <trkpt lat="45.34464667551219463348388671875" lon="-70.81853158771991729736328125">
        <ele>730</ele>
        <time>2026-08-21T11:36:09.000Z</time>
        <extensions>
          <ns3:TrackPointExtension>
            <ns3:hr>149</ns3:hr>
            <ns3:cad>0</ns3:cad>
          </ns3:TrackPointExtension>
        </extensions>
      </trkpt>
      <trkpt lat="45.3446472622454166412353515625" lon="-70.81852613948285579681396484375">
        <ele>730.20001220703125</ele>
        <time>2026-08-21T11:36:10.000Z</time>
        <extensions>
          <ns3:TrackPointExtension>
            <ns3:hr>148</ns3:hr>
            <ns3:cad>0</ns3:cad>
          </ns3:TrackPointExtension>
        </extensions>
      </trkpt>
      <trkpt lat="45.34463963471353054046630859375" lon="-70.8185233734548091888427734375">
        <ele>730.5999755859375</ele>
        <time>2026-08-21T11:36:11.000Z</time>
        <extensions>
          <ns3:TrackPointExtension>
            <ns3:hr>148</ns3:hr>
            <ns3:cad>0</ns3:cad>
          </ns3:TrackPointExtension>
        </extensions>
      </trkpt>
      <trkpt lat="45.3446291573345661163330078125" lon="-70.81852261908352375030517578125">
        <ele>730.79998779296875</ele>
        <time>2026-08-21T11:36:12.000Z</time>
        <extensions>
          <ns3:TrackPointExtension>
            <ns3:hr>148</ns3:hr>
            <ns3:cad>0</ns3:cad>
          </ns3:TrackPointExtension>
        </extensions>
      </trkpt>
      <trkpt lat="45.344622619450092315673828125" lon="-70.81852362491190433502197265625">
        <ele>731</ele>
        <time>2026-08-21T11:36:13.000Z</time>
        <extensions>
          <ns3:TrackPointExtension>
            <ns3:hr>148</ns3:hr>
            <ns3:cad>0</ns3:cad>
          </ns3:TrackPointExtension>
        </extensions>
      </trkpt>
      <trkpt lat="45.34461557865142822265625" lon="-70.81852479837834835052490234375">
        <ele>731.20001220703125</ele>
        <time>2026-08-21T11:36:14.000Z</time>
        <extensions>
          <ns3:TrackPointExtension>
            <ns3:hr>148</ns3:hr>
            <ns3:cad>0</ns3:cad>
          </ns3:TrackPointExtension>
        </extensions>
      </trkpt>
      <trkpt lat="45.3446117229759693145751953125" lon="-70.81852622330188751220703125">
        <ele>731.4000244140625</ele>
        <time>2026-08-21T11:36:15.000Z</time>
        <extensions>
          <ns3:TrackPointExtension>
            <ns3:hr>149</ns3:hr>
            <ns3:cad>0</ns3:cad>
          </ns3:TrackPointExtension>
        </extensions>
      </trkpt>
      <trkpt lat="45.344607532024383544921875" lon="-70.81852756440639495849609375">
        <ele>731.5999755859375</ele>
        <time>2026-08-21T11:36:16.000Z</time>
        <extensions>
          <ns3:TrackPointExtension>
            <ns3:hr>149</ns3:hr>
            <ns3:cad>0</ns3:cad>
          </ns3:TrackPointExtension>
        </extensions>
      </trkpt>
      <trkpt lat="45.34459772519767284393310546875" lon="-70.81852463074028491973876953125">
        <ele>731.79998779296875</ele>
        <time>2026-08-21T11:36:17.000Z</time>
        <extensions>
          <ns3:TrackPointExtension>
            <ns3:hr>148</ns3:hr>
            <ns3:cad>0</ns3:cad>
          </ns3:TrackPointExtension>
        </extensions>
      </trkpt>
      <trkpt lat="45.34459487535059452056884765625" lon="-70.81852245144546031951904296875">
        <ele>732</ele>
        <time>2026-08-21T11:36:18.000Z</time>
        <extensions>
          <ns3:TrackPointExtension>
            <ns3:hr>148</ns3:hr>
            <ns3:cad>0</ns3:cad>
          </ns3:TrackPointExtension>
        </extensions>
      </trkpt>
      <trkpt lat="45.34459319896996021270751953125" lon="-70.81851993687450885772705078125">
        <ele>732.20001220703125</ele>
        <time>2026-08-21T11:36:19.000Z</time>
        <extensions>
          <ns3:TrackPointExtension>
            <ns3:hr>148</ns3:hr>
            <ns3:cad>0</ns3:cad>
          </ns3:TrackPointExtension>
        </extensions>
      </trkpt>
      <trkpt lat="45.34458632580935955047607421875" lon="-70.81851574592292308807373046875">
        <ele>732.4000244140625</ele>
        <time>2026-08-21T11:36:20.000Z</time>
        <extensions>
          <ns3:TrackPointExtension>
            <ns3:hr>149</ns3:hr>
            <ns3:cad>0</ns3:cad>
          </ns3:TrackPointExtension>
        </extensions>
      </trkpt>
      <trkpt lat="45.3445792011916637420654296875" lon="-70.81851390190422534942626953125">
        <ele>732.5999755859375</ele>
        <time>2026-08-21T11:36:21.000Z</time>
        <extensions>
          <ns3:TrackPointExtension>
            <ns3:hr>148</ns3:hr>
            <ns3:cad>0</ns3:cad>
          </ns3:TrackPointExtension>
        </extensions>
      </trkpt>
      <trkpt lat="45.344575345516204833984375" lon="-70.81851272843778133392333984375">
        <ele>732.79998779296875</ele>
        <time>2026-08-21T11:36:22.000Z</time>
        <extensions>
          <ns3:TrackPointExtension>
            <ns3:hr>148</ns3:hr>
            <ns3:cad>0</ns3:cad>
          </ns3:TrackPointExtension>
        </extensions>
      </trkpt>
      <trkpt lat="45.3445694781839847564697265625" lon="-70.818513147532939910888671875">
        <ele>733</ele>
        <time>2026-08-21T11:36:23.000Z</time>
        <extensions>
          <ns3:TrackPointExtension>
            <ns3:hr>149</ns3:hr>
            <ns3:cad>0</ns3:cad>
          </ns3:TrackPointExtension>
        </extensions>
      </trkpt>
      <trkpt lat="45.3445651195943355560302734375" lon="-70.81851281225681304931640625">
        <ele>733.4000244140625</ele>
        <time>2026-08-21T11:36:24.000Z</time>
        <extensions>
          <ns3:TrackPointExtension>
            <ns3:hr>148</ns3:hr>
            <ns3:cad>0</ns3:cad>
          </ns3:TrackPointExtension>
        </extensions>
      </trkpt>
      <trkpt lat="45.34456260502338409423828125" lon="-70.81851356662809848785400390625">
        <ele>733.5999755859375</ele>
        <time>2026-08-21T11:36:25.000Z</time>
        <extensions>
          <ns3:TrackPointExtension>
            <ns3:hr>148</ns3:hr>
            <ns3:cad>68</ns3:cad>
          </ns3:TrackPointExtension>
        </extensions>
      </trkpt>
      <trkpt lat="45.34456017427146434783935546875" lon="-70.81851373426616191864013671875">
        <ele>733.5999755859375</ele>
        <time>2026-08-21T11:36:26.000Z</time>
        <extensions>
          <ns3:TrackPointExtension>
            <ns3:hr>147</ns3:hr>
            <ns3:cad>68</ns3:cad>
          </ns3:TrackPointExtension>
        </extensions>
      </trkpt>
      <trkpt lat="45.34455531276762485504150390625" lon="-70.81851373426616191864013671875">
        <ele>733.79998779296875</ele>
        <time>2026-08-21T11:36:27.000Z</time>
        <extensions>
          <ns3:TrackPointExtension>
            <ns3:hr>147</ns3:hr>
            <ns3:cad>0</ns3:cad>
          </ns3:TrackPointExtension>
        </extensions>
      </trkpt>
      <trkpt lat="45.344552882015705108642578125" lon="-70.81850686110556125640869140625">
        <ele>734</ele>
        <time>2026-08-21T11:36:28.000Z</time>
        <extensions>
          <ns3:TrackPointExtension>
            <ns3:hr>147</ns3:hr>
            <ns3:cad>0</ns3:cad>
          </ns3:TrackPointExtension>
        </extensions>
      </trkpt>
      <trkpt lat="45.3445507027208805084228515625" lon="-70.81850015558302402496337890625">
        <ele>734.20001220703125</ele>
        <time>2026-08-21T11:36:29.000Z</time>
        <extensions>
          <ns3:TrackPointExtension>
            <ns3:hr>148</ns3:hr>
            <ns3:cad>0</ns3:cad>
          </ns3:TrackPointExtension>
        </extensions>
      </trkpt>
      <trkpt lat="45.34455011598765850067138671875" lon="-70.81848909147083759307861328125">
        <ele>734.20001220703125</ele>
        <time>2026-08-21T11:36:30.000Z</time>
        <extensions>
          <ns3:TrackPointExtension>
            <ns3:hr>148</ns3:hr>
            <ns3:cad>41</ns3:cad>
          </ns3:TrackPointExtension>
        </extensions>
      </trkpt>
      <trkpt lat="45.34454877488315105438232421875" lon="-70.8184824697673320770263671875">
        <ele>734.4000244140625</ele>
        <time>2026-08-21T11:36:31.000Z</time>
        <extensions>
          <ns3:TrackPointExtension>
            <ns3:hr>148</ns3:hr>
            <ns3:cad>41</ns3:cad>
          </ns3:TrackPointExtension>
        </extensions>
      </trkpt>
      <trkpt lat="45.34454659558832645416259765625" lon="-70.818471573293209075927734375">
        <ele>734.4000244140625</ele>
        <time>2026-08-21T11:36:32.000Z</time>
        <extensions>
          <ns3:TrackPointExtension>
            <ns3:hr>148</ns3:hr>
            <ns3:cad>41</ns3:cad>
          </ns3:TrackPointExtension>
        </extensions>
      </trkpt>
      <trkpt lat="45.344542153179645538330078125" lon="-70.81846319139003753662109375">
        <ele>734.5999755859375</ele>
        <time>2026-08-21T11:36:33.000Z</time>
        <extensions>
          <ns3:TrackPointExtension>
            <ns3:hr>148</ns3:hr>
            <ns3:cad>41</ns3:cad>
          </ns3:TrackPointExtension>
        </extensions>
      </trkpt>
      <trkpt lat="45.34453846514225006103515625" lon="-70.818453133106231689453125">
        <ele>734.5999755859375</ele>
        <time>2026-08-21T11:36:34.000Z</time>
        <extensions>
          <ns3:TrackPointExtension>
            <ns3:hr>148</ns3:hr>
            <ns3:cad>41</ns3:cad>
          </ns3:TrackPointExtension>
        </extensions>
      </trkpt>
      <trkpt lat="45.34453351981937885284423828125" lon="-70.81844349391758441925048828125">
        <ele>734.79998779296875</ele>
        <time>2026-08-21T11:36:35.000Z</time>
        <extensions>
          <ns3:TrackPointExtension>
            <ns3:hr>148</ns3:hr>
            <ns3:cad>44</ns3:cad>
          </ns3:TrackPointExtension>
        </extensions>
      </trkpt>
      <trkpt lat="45.34452329389750957489013671875" lon="-70.81843025051057338714599609375">
        <ele>734.79998779296875</ele>
        <time>2026-08-21T11:36:36.000Z</time>
        <extensions>
          <ns3:TrackPointExtension>
            <ns3:hr>149</ns3:hr>
            <ns3:cad>44</ns3:cad>
          </ns3:TrackPointExtension>
        </extensions>
      </trkpt>
      <trkpt lat="45.34451826475560665130615234375" lon="-70.81842220388352870941162109375">
        <ele>735</ele>
        <time>2026-08-21T11:36:37.000Z</time>
        <extensions>
          <ns3:TrackPointExtension>
            <ns3:hr>149</ns3:hr>
            <ns3:cad>44</ns3:cad>
          </ns3:TrackPointExtension>
        </extensions>
      </trkpt>
      <trkpt lat="45.34450535662472248077392578125" lon="-70.81840862520039081573486328125">
        <ele>735.20001220703125</ele>
        <time>2026-08-21T11:36:38.000Z</time>
        <extensions>
          <ns3:TrackPointExtension>
            <ns3:hr>149</ns3:hr>
            <ns3:cad>47</ns3:cad>
          </ns3:TrackPointExtension>
        </extensions>
      </trkpt>
      <trkpt lat="45.34449932165443897247314453125" lon="-70.81840510480105876922607421875">
        <ele>735.4000244140625</ele>
        <time>2026-08-21T11:36:39.000Z</time>
        <extensions>
          <ns3:TrackPointExtension>
            <ns3:hr>149</ns3:hr>
            <ns3:cad>47</ns3:cad>
          </ns3:TrackPointExtension>
        </extensions>
      </trkpt>
      <trkpt lat="45.3444908559322357177734375" lon="-70.81839881837368011474609375">
        <ele>735.5999755859375</ele>
        <time>2026-08-21T11:36:40.000Z</time>
        <extensions>
          <ns3:TrackPointExtension>
            <ns3:hr>149</ns3:hr>
            <ns3:cad>47</ns3:cad>
          </ns3:TrackPointExtension>
        </extensions>
      </trkpt>
      <trkpt lat="45.344483815133571624755859375" lon="-70.8183929510414600372314453125">
        <ele>735.79998779296875</ele>
        <time>2026-08-21T11:36:41.000Z</time>
        <extensions>
          <ns3:TrackPointExtension>
            <ns3:hr>148</ns3:hr>
            <ns3:cad>47</ns3:cad>
          </ns3:TrackPointExtension>
        </extensions>
      </trkpt>
      <trkpt lat="45.344475768506526947021484375" lon="-70.81838674843311309814453125">
        <ele>736</ele>
        <time>2026-08-21T11:36:42.000Z</time>
        <extensions>
          <ns3:TrackPointExtension>
            <ns3:hr>147</ns3:hr>
            <ns3:cad>40</ns3:cad>
          </ns3:TrackPointExtension>
        </extensions>
      </trkpt>
      <trkpt lat="45.3444712422788143157958984375" lon="-70.8183838985860347747802734375">
        <ele>736.20001220703125</ele>
        <time>2026-08-21T11:36:43.000Z</time>
        <extensions>
          <ns3:TrackPointExtension>
            <ns3:hr>146</ns3:hr>
            <ns3:cad>40</ns3:cad>
          </ns3:TrackPointExtension>
        </extensions>
      </trkpt>
      <trkpt lat="45.3444628603756427764892578125" lon="-70.8183775283396244049072265625">
        <ele>736.4000244140625</ele>
        <time>2026-08-21T11:36:44.000Z</time>
        <extensions>
          <ns3:TrackPointExtension>
            <ns3:hr>147</ns3:hr>
            <ns3:cad>0</ns3:cad>
          </ns3:TrackPointExtension>
        </extensions>
      </trkpt>
      <trkpt lat="45.34445305354893207550048828125" lon="-70.81836923025548458099365234375">
        <ele>736.5999755859375</ele>
        <time>2026-08-21T11:36:45.000Z</time>
        <extensions>
          <ns3:TrackPointExtension>
            <ns3:hr>147</ns3:hr>
            <ns3:cad>0</ns3:cad>
          </ns3:TrackPointExtension>
        </extensions>
      </trkpt>
      <trkpt lat="45.3444487787783145904541015625" lon="-70.81836638040840625762939453125">
        <ele>736.79998779296875</ele>
        <time>2026-08-21T11:36:46.000Z</time>
        <extensions>
          <ns3:TrackPointExtension>
            <ns3:hr>147</ns3:hr>
            <ns3:cad>0</ns3:cad>
          </ns3:TrackPointExtension>
        </extensions>
      </trkpt>
      <trkpt lat="45.34444366581737995147705078125" lon="-70.81836001016199588775634765625">
        <ele>737</ele>
        <time>2026-08-21T11:36:47.000Z</time>
        <extensions>
          <ns3:TrackPointExtension>
            <ns3:hr>147</ns3:hr>
            <ns3:cad>0</ns3:cad>
          </ns3:TrackPointExtension>
        </extensions>
      </trkpt>
      <trkpt lat="45.34443494863808155059814453125" lon="-70.81835531629621982574462890625">
        <ele>737.20001220703125</ele>
        <time>2026-08-21T11:36:48.000Z</time>
        <extensions>
          <ns3:TrackPointExtension>
            <ns3:hr>147</ns3:hr>
            <ns3:cad>0</ns3:cad>
          </ns3:TrackPointExtension>
        </extensions>
      </trkpt>
      <trkpt lat="45.344427488744258880615234375" lon="-70.8183510415256023406982421875">
        <ele>737.4000244140625</ele>
        <time>2026-08-21T11:36:49.000Z</time>
        <extensions>
          <ns3:TrackPointExtension>
            <ns3:hr>146</ns3:hr>
            <ns3:cad>0</ns3:cad>
          </ns3:TrackPointExtension>
        </extensions>
      </trkpt>
      <trkpt lat="45.3444266505539417266845703125" lon="-70.8183530531823635101318359375">
        <ele>737.5999755859375</ele>
        <time>2026-08-21T11:36:50.000Z</time>
        <extensions>
          <ns3:TrackPointExtension>
            <ns3:hr>146</ns3:hr>
            <ns3:cad>0</ns3:cad>
          </ns3:TrackPointExtension>
        </extensions>
      </trkpt>
      <trkpt lat="45.34442053176462650299072265625" lon="-70.8183525502681732177734375">
        <ele>737.79998779296875</ele>
        <time>2026-08-21T11:36:51.000Z</time>
        <extensions>
          <ns3:TrackPointExtension>
            <ns3:hr>147</ns3:hr>
            <ns3:cad>0</ns3:cad>
          </ns3:TrackPointExtension>
        </extensions>
      </trkpt>
      <trkpt lat="45.3444199450314044952392578125" lon="-70.81835414282977581024169921875">
        <ele>738</ele>
        <time>2026-08-21T11:36:52.000Z</time>
        <extensions>
          <ns3:TrackPointExtension>
            <ns3:hr>145</ns3:hr>
            <ns3:cad>0</ns3:cad>
          </ns3:TrackPointExtension>
        </extensions>
      </trkpt>
      <trkpt lat="45.3444135747849941253662109375" lon="-70.8183517120778560638427734375">
        <ele>738.20001220703125</ele>
        <time>2026-08-21T11:36:53.000Z</time>
        <extensions>
          <ns3:TrackPointExtension>
            <ns3:hr>145</ns3:hr>
            <ns3:cad>0</ns3:cad>
          </ns3:TrackPointExtension>
        </extensions>
      </trkpt>
      <trkpt lat="45.3444103896617889404296875" lon="-70.81834928132593631744384765625">
        <ele>738.4000244140625</ele>
        <time>2026-08-21T11:36:54.000Z</time>
        <extensions>
          <ns3:TrackPointExtension>
            <ns3:hr>144</ns3:hr>
            <ns3:cad>0</ns3:cad>
          </ns3:TrackPointExtension>
        </extensions>
      </trkpt>
      <trkpt lat="45.344404689967632293701171875" lon="-70.818347521126270294189453125">
        <ele>738.5999755859375</ele>
        <time>2026-08-21T11:36:55.000Z</time>
        <extensions>
          <ns3:TrackPointExtension>
            <ns3:hr>143</ns3:hr>
            <ns3:cad>0</ns3:cad>
          </ns3:TrackPointExtension>
        </extensions>
      </trkpt>
      <trkpt lat="45.34439873881638050079345703125" lon="-70.81834576092660427093505859375">
        <ele>738.79998779296875</ele>
        <time>2026-08-21T11:36:56.000Z</time>
        <extensions>
          <ns3:TrackPointExtension>
            <ns3:hr>143</ns3:hr>
            <ns3:cad>0</ns3:cad>
          </ns3:TrackPointExtension>
        </extensions>
      </trkpt>
      <trkpt lat="45.34439555369317531585693359375" lon="-70.81834626384079456329345703125">
        <ele>739.20001220703125</ele>
        <time>2026-08-21T11:36:57.000Z</time>
        <extensions>
          <ns3:TrackPointExtension>
            <ns3:hr>142</ns3:hr>
            <ns3:cad>0</ns3:cad>
          </ns3:TrackPointExtension>
        </extensions>
      </trkpt>
      <trkpt lat="45.34438935108482837677001953125" lon="-70.818343497812747955322265625">
        <ele>739.4000244140625</ele>
        <time>2026-08-21T11:36:58.000Z</time>
        <extensions>
          <ns3:TrackPointExtension>
            <ns3:hr>142</ns3:hr>
            <ns3:cad>0</ns3:cad>
          </ns3:TrackPointExtension>
        </extensions>
      </trkpt>
      <trkpt lat="45.34438465721905231475830078125" lon="-70.81834106706082820892333984375">
        <ele>739.5999755859375</ele>
        <time>2026-08-21T11:36:59.000Z</time>
        <extensions>
          <ns3:TrackPointExtension>
            <ns3:hr>142</ns3:hr>
            <ns3:cad>0</ns3:cad>
          </ns3:TrackPointExtension>
        </extensions>
      </trkpt>
      <trkpt lat="45.34438163973391056060791015625" lon="-70.81834073178470134735107421875">
        <ele>739.79998779296875</ele>
        <time>2026-08-21T11:37:00.000Z</time>
        <extensions>
          <ns3:TrackPointExtension>
            <ns3:hr>142</ns3:hr>
            <ns3:cad>0</ns3:cad>
          </ns3:TrackPointExtension>
        </extensions>
      </trkpt>
      <trkpt lat="45.34437526948750019073486328125" lon="-70.81834115087985992431640625">
        <ele>740</ele>
        <time>2026-08-21T11:37:01.000Z</time>
        <extensions>
          <ns3:TrackPointExtension>
            <ns3:hr>142</ns3:hr>
            <ns3:cad>0</ns3:cad>
          </ns3:TrackPointExtension>
        </extensions>
      </trkpt>
      <trkpt lat="45.344374179840087890625" lon="-70.81834257580339908599853515625">
        <ele>740.20001220703125</ele>
        <time>2026-08-21T11:37:02.000Z</time>
        <extensions>
          <ns3:TrackPointExtension>
            <ns3:hr>142</ns3:hr>
            <ns3:cad>0</ns3:cad>
          </ns3:TrackPointExtension>
        </extensions>
      </trkpt>
      <trkpt lat="45.34437024034559726715087890625" lon="-70.8183436654508113861083984375">
        <ele>740.4000244140625</ele>
        <time>2026-08-21T11:37:03.000Z</time>
        <extensions>
          <ns3:TrackPointExtension>
            <ns3:hr>142</ns3:hr>
            <ns3:cad>0</ns3:cad>
          </ns3:TrackPointExtension>
        </extensions>
      </trkpt>
      <trkpt lat="45.344367139041423797607421875" lon="-70.8183445036411285400390625">
        <ele>740.5999755859375</ele>
        <time>2026-08-21T11:37:04.000Z</time>
        <extensions>
          <ns3:TrackPointExtension>
            <ns3:hr>143</ns3:hr>
            <ns3:cad>0</ns3:cad>
          </ns3:TrackPointExtension>
        </extensions>
      </trkpt>
      <trkpt lat="45.34436370246112346649169921875" lon="-70.8183450065553188323974609375">
        <ele>740.79998779296875</ele>
        <time>2026-08-21T11:37:05.000Z</time>
        <extensions>
          <ns3:TrackPointExtension>
            <ns3:hr>143</ns3:hr>
            <ns3:cad>0</ns3:cad>
          </ns3:TrackPointExtension>
        </extensions>
      </trkpt>
      <trkpt lat="45.34436269663274288177490234375" lon="-70.818342156708240509033203125">
        <ele>741</ele>
        <time>2026-08-21T11:37:06.000Z</time>
        <extensions>
          <ns3:TrackPointExtension>
            <ns3:hr>144</ns3:hr>
            <ns3:cad>0</ns3:cad>
          </ns3:TrackPointExtension>
        </extensions>
      </trkpt>
      <trkpt lat="45.34436085261404514312744140625" lon="-70.818344168365001678466796875">
        <ele>741.20001220703125</ele>
        <time>2026-08-21T11:37:07.000Z</time>
        <extensions>
          <ns3:TrackPointExtension>
            <ns3:hr>144</ns3:hr>
            <ns3:cad>0</ns3:cad>
          </ns3:TrackPointExtension>
        </extensions>
      </trkpt>
      <trkpt lat="45.34435230307281017303466796875" lon="-70.81834592856466770172119140625">
        <ele>741.20001220703125</ele>
        <time>2026-08-21T11:37:08.000Z</time>
        <extensions>
          <ns3:TrackPointExtension>
            <ns3:hr>144</ns3:hr>
            <ns3:cad>79</ns3:cad>
          </ns3:TrackPointExtension>
        </extensions>
      </trkpt>
      <trkpt lat="45.34434610046446323394775390625" lon="-70.81834592856466770172119140625">
        <ele>741.5999755859375</ele>
        <time>2026-08-21T11:37:09.000Z</time>
        <extensions>
          <ns3:TrackPointExtension>
            <ns3:hr>143</ns3:hr>
            <ns3:cad>0</ns3:cad>
          </ns3:TrackPointExtension>
        </extensions>
      </trkpt>
      <trkpt lat="45.34434241242706775665283203125" lon="-70.81834257580339908599853515625">
        <ele>741.79998779296875</ele>
        <time>2026-08-21T11:37:10.000Z</time>
        <extensions>
          <ns3:TrackPointExtension>
            <ns3:hr>143</ns3:hr>
            <ns3:cad>0</ns3:cad>
          </ns3:TrackPointExtension>
        </extensions>
      </trkpt>
      <trkpt lat="45.3443371318280696868896484375" lon="-70.81834316253662109375">
        <ele>742</ele>
        <time>2026-08-21T11:37:11.000Z</time>
        <extensions>
          <ns3:TrackPointExtension>
            <ns3:hr>143</ns3:hr>
            <ns3:cad>0</ns3:cad>
          </ns3:TrackPointExtension>
        </extensions>
      </trkpt>
      <trkpt lat="45.34433235414326190948486328125" lon="-70.818345509469509124755859375">
        <ele>742.20001220703125</ele>
        <time>2026-08-21T11:37:12.000Z</time>
        <extensions>
          <ns3:TrackPointExtension>
            <ns3:hr>143</ns3:hr>
            <ns3:cad>0</ns3:cad>
          </ns3:TrackPointExtension>
        </extensions>
      </trkpt>
      <trkpt lat="45.34432279877364635467529296875" lon="-70.81835246644914150238037109375">
        <ele>742.4000244140625</ele>
        <time>2026-08-21T11:37:13.000Z</time>
        <extensions>
          <ns3:TrackPointExtension>
            <ns3:hr>144</ns3:hr>
            <ns3:cad>0</ns3:cad>
          </ns3:TrackPointExtension>
        </extensions>
      </trkpt>
      <trkpt lat="45.34431944601237773895263671875" lon="-70.81835850141942501068115234375">
        <ele>742.5999755859375</ele>
        <time>2026-08-21T11:37:14.000Z</time>
        <extensions>
          <ns3:TrackPointExtension>
            <ns3:hr>144</ns3:hr>
            <ns3:cad>0</ns3:cad>
          </ns3:TrackPointExtension>
        </extensions>
      </trkpt>
      <trkpt lat="45.34431844018399715423583984375" lon="-70.818363614380359649658203125">
        <ele>742.79998779296875</ele>
        <time>2026-08-21T11:37:15.000Z</time>
        <extensions>
          <ns3:TrackPointExtension>
            <ns3:hr>144</ns3:hr>
            <ns3:cad>0</ns3:cad>
          </ns3:TrackPointExtension>
        </extensions>
      </trkpt>
      <trkpt lat="45.34430913627147674560546875" lon="-70.81837073899805545806884765625">
        <ele>743.20001220703125</ele>
        <time>2026-08-21T11:37:16.000Z</time>
        <extensions>
          <ns3:TrackPointExtension>
            <ns3:hr>143</ns3:hr>
            <ns3:cad>0</ns3:cad>
          </ns3:TrackPointExtension>
        </extensions>
      </trkpt>
      <trkpt lat="45.34430804662406444549560546875" lon="-70.81837124191224575042724609375">
        <ele>743.20001220703125</ele>
        <time>2026-08-21T11:37:17.000Z</time>
        <extensions>
          <ns3:TrackPointExtension>
            <ns3:hr>144</ns3:hr>
            <ns3:cad>0</ns3:cad>
          </ns3:TrackPointExtension>
        </extensions>
      </trkpt>
      <trkpt lat="45.34430243074893951416015625" lon="-70.81837291829288005828857421875">
        <ele>743.4000244140625</ele>
        <time>2026-08-21T11:37:18.000Z</time>
        <extensions>
          <ns3:TrackPointExtension>
            <ns3:hr>144</ns3:hr>
            <ns3:cad>0</ns3:cad>
          </ns3:TrackPointExtension>
        </extensions>
      </trkpt>
      <trkpt lat="45.34429379738867282867431640625" lon="-70.818378031253814697265625">
        <ele>743.79998779296875</ele>
        <time>2026-08-21T11:37:19.000Z</time>
        <extensions>
          <ns3:TrackPointExtension>
            <ns3:hr>144</ns3:hr>
            <ns3:cad>0</ns3:cad>
          </ns3:TrackPointExtension>
        </extensions>
      </trkpt>
      <trkpt lat="45.34428608603775501251220703125" lon="-70.818382389843463897705078125">
        <ele>744</ele>
        <time>2026-08-21T11:37:20.000Z</time>
        <extensions>
          <ns3:TrackPointExtension>
            <ns3:hr>144</ns3:hr>
            <ns3:cad>0</ns3:cad>
          </ns3:TrackPointExtension>
        </extensions>
      </trkpt>
      <trkpt lat="45.3442818112671375274658203125" lon="-70.81838917918503284454345703125">
        <ele>744.20001220703125</ele>
        <time>2026-08-21T11:37:21.000Z</time>
        <extensions>
          <ns3:TrackPointExtension>
            <ns3:hr>144</ns3:hr>
            <ns3:cad>0</ns3:cad>
          </ns3:TrackPointExtension>
        </extensions>
      </trkpt>
      <trkpt lat="45.34427317790687084197998046875" lon="-70.81839202903211116790771484375">
        <ele>744.4000244140625</ele>
        <time>2026-08-21T11:37:22.000Z</time>
        <extensions>
          <ns3:TrackPointExtension>
            <ns3:hr>143</ns3:hr>
            <ns3:cad>0</ns3:cad>
          </ns3:TrackPointExtension>
        </extensions>
      </trkpt>
      <trkpt lat="45.3442667238414287567138671875" lon="-70.818396471440792083740234375">
        <ele>744.5999755859375</ele>
        <time>2026-08-21T11:37:23.000Z</time>
        <extensions>
          <ns3:TrackPointExtension>
            <ns3:hr>144</ns3:hr>
            <ns3:cad>0</ns3:cad>
          </ns3:TrackPointExtension>
        </extensions>
      </trkpt>
      <trkpt lat="45.3442630358040332794189453125" lon="-70.8184008300304412841796875">
        <ele>744.79998779296875</ele>
        <time>2026-08-21T11:37:24.000Z</time>
        <extensions>
          <ns3:TrackPointExtension>
            <ns3:hr>144</ns3:hr>
            <ns3:cad>0</ns3:cad>
          </ns3:TrackPointExtension>
        </extensions>
      </trkpt>
      <trkpt lat="45.3442593477666378021240234375" lon="-70.81840284168720245361328125">
        <ele>745</ele>
        <time>2026-08-21T11:37:25.000Z</time>
        <extensions>
          <ns3:TrackPointExtension>
            <ns3:hr>144</ns3:hr>
            <ns3:cad>0</ns3:cad>
          </ns3:TrackPointExtension>
        </extensions>
      </trkpt>
      <trkpt lat="45.3442539833486080169677734375" lon="-70.81840527243912220001220703125">
        <ele>745.20001220703125</ele>
        <time>2026-08-21T11:37:26.000Z</time>
        <extensions>
          <ns3:TrackPointExtension>
            <ns3:hr>144</ns3:hr>
            <ns3:cad>0</ns3:cad>
          </ns3:TrackPointExtension>
        </extensions>
      </trkpt>
      <trkpt lat="45.344248451292514801025390625" lon="-70.81840611062943935394287109375">
        <ele>745.4000244140625</ele>
        <time>2026-08-21T11:37:27.000Z</time>
        <extensions>
          <ns3:TrackPointExtension>
            <ns3:hr>144</ns3:hr>
            <ns3:cad>0</ns3:cad>
          </ns3:TrackPointExtension>
        </extensions>
      </trkpt>
      <trkpt lat="45.34424568526446819305419921875" lon="-70.8184046857059001922607421875">
        <ele>745.5999755859375</ele>
        <time>2026-08-21T11:37:28.000Z</time>
        <extensions>
          <ns3:TrackPointExtension>
            <ns3:hr>144</ns3:hr>
            <ns3:cad>0</ns3:cad>
          </ns3:TrackPointExtension>
        </extensions>
      </trkpt>
      <trkpt lat="45.34423797391355037689208984375" lon="-70.818407200276851654052734375">
        <ele>745.79998779296875</ele>
        <time>2026-08-21T11:37:29.000Z</time>
        <extensions>
          <ns3:TrackPointExtension>
            <ns3:hr>144</ns3:hr>
            <ns3:cad>0</ns3:cad>
          </ns3:TrackPointExtension>
        </extensions>
      </trkpt>
      <trkpt lat="45.3442335315048694610595703125" lon="-70.81840686500072479248046875">
        <ele>746</ele>
        <time>2026-08-21T11:37:30.000Z</time>
        <extensions>
          <ns3:TrackPointExtension>
            <ns3:hr>144</ns3:hr>
            <ns3:cad>0</ns3:cad>
          </ns3:TrackPointExtension>
        </extensions>
      </trkpt>
      <trkpt lat="45.3442321904003620147705078125" lon="-70.81840627826750278472900390625">
        <ele>746.20001220703125</ele>
        <time>2026-08-21T11:37:31.000Z</time>
        <extensions>
          <ns3:TrackPointExtension>
            <ns3:hr>144</ns3:hr>
            <ns3:cad>0</ns3:cad>
          </ns3:TrackPointExtension>
        </extensions>
      </trkpt>
      <trkpt lat="45.34422355704009532928466796875" lon="-70.818405188620090484619140625">
        <ele>746.4000244140625</ele>
        <time>2026-08-21T11:37:32.000Z</time>
        <extensions>
          <ns3:TrackPointExtension>
            <ns3:hr>144</ns3:hr>
            <ns3:cad>79</ns3:cad>
          </ns3:TrackPointExtension>
        </extensions>
      </trkpt>
      <trkpt lat="45.34421618096530437469482421875" lon="-70.81840359605848789215087890625">
        <ele>746.5999755859375</ele>
        <time>2026-08-21T11:37:33.000Z</time>
        <extensions>
          <ns3:TrackPointExtension>
            <ns3:hr>144</ns3:hr>
            <ns3:cad>79</ns3:cad>
          </ns3:TrackPointExtension>
        </extensions>
      </trkpt>
      <trkpt lat="45.34420997835695743560791015625" lon="-70.81840208731591701507568359375">
        <ele>746.79998779296875</ele>
        <time>2026-08-21T11:37:34.000Z</time>
        <extensions>
          <ns3:TrackPointExtension>
            <ns3:hr>144</ns3:hr>
            <ns3:cad>79</ns3:cad>
          </ns3:TrackPointExtension>
        </extensions>
      </trkpt>
      <trkpt lat="45.3442046977579593658447265625" lon="-70.81839789636433124542236328125">
        <ele>747</ele>
        <time>2026-08-21T11:37:35.000Z</time>
        <extensions>
          <ns3:TrackPointExtension>
            <ns3:hr>145</ns3:hr>
            <ns3:cad>41</ns3:cad>
          </ns3:TrackPointExtension>
        </extensions>
      </trkpt>
      <trkpt lat="45.34419790841639041900634765625" lon="-70.8183885924518108367919921875">
        <ele>747.20001220703125</ele>
        <time>2026-08-21T11:37:36.000Z</time>
        <extensions>
          <ns3:TrackPointExtension>
            <ns3:hr>146</ns3:hr>
            <ns3:cad>41</ns3:cad>
          </ns3:TrackPointExtension>
        </extensions>
      </trkpt>
      <trkpt lat="45.344186760485172271728515625" lon="-70.81838012672960758209228515625">
        <ele>747.20001220703125</ele>
        <time>2026-08-21T11:37:37.000Z</time>
        <extensions>
          <ns3:TrackPointExtension>
            <ns3:hr>146</ns3:hr>
            <ns3:cad>41</ns3:cad>
          </ns3:TrackPointExtension>
        </extensions>
      </trkpt>
      <trkpt lat="45.34417770802974700927734375" lon="-70.81837174482643604278564453125">
        <ele>747.4000244140625</ele>
        <time>2026-08-21T11:37:38.000Z</time>
        <extensions>
          <ns3:TrackPointExtension>
            <ns3:hr>146</ns3:hr>
            <ns3:cad>41</ns3:cad>
          </ns3:TrackPointExtension>
        </extensions>
      </trkpt>
      <trkpt lat="45.344167985022068023681640625" lon="-70.818366967141628265380859375">
        <ele>747.5999755859375</ele>
        <time>2026-08-21T11:37:39.000Z</time>
        <extensions>
          <ns3:TrackPointExtension>
            <ns3:hr>147</ns3:hr>
            <ns3:cad>41</ns3:cad>
          </ns3:TrackPointExtension>
        </extensions>
      </trkpt>
      <trkpt lat="45.344157926738262176513671875" lon="-70.81836319528520107269287109375">
        <ele>747.79998779296875</ele>
        <time>2026-08-21T11:37:40.000Z</time>
        <extensions>
          <ns3:TrackPointExtension>
            <ns3:hr>146</ns3:hr>
            <ns3:cad>41</ns3:cad>
          </ns3:TrackPointExtension>
        </extensions>
      </trkpt>
      <trkpt lat="45.34415214322507381439208984375" lon="-70.81835900433361530303955078125">
        <ele>747.79998779296875</ele>
        <time>2026-08-21T11:37:41.000Z</time>
        <extensions>
          <ns3:TrackPointExtension>
            <ns3:hr>146</ns3:hr>
            <ns3:cad>41</ns3:cad>
          </ns3:TrackPointExtension>
        </extensions>
      </trkpt>
      <trkpt lat="45.34415013156831264495849609375" lon="-70.8183537237346172332763671875">
        <ele>748</ele>
        <time>2026-08-21T11:37:42.000Z</time>
        <extensions>
          <ns3:TrackPointExtension>
            <ns3:hr>147</ns3:hr>
            <ns3:cad>79</ns3:cad>
          </ns3:TrackPointExtension>
        </extensions>
      </trkpt>
      <trkpt lat="45.34415046684443950653076171875" lon="-70.81834291107952594757080078125">
        <ele>748.20001220703125</ele>
        <time>2026-08-21T11:37:43.000Z</time>
        <extensions>
          <ns3:TrackPointExtension>
            <ns3:hr>147</ns3:hr>
            <ns3:cad>79</ns3:cad>
          </ns3:TrackPointExtension>
        </extensions>
      </trkpt>
      <trkpt lat="45.34415029920637607574462890625" lon="-70.8183336071670055389404296875">
        <ele>748.4000244140625</ele>
        <time>2026-08-21T11:37:44.000Z</time>
        <extensions>
          <ns3:TrackPointExtension>
            <ns3:hr>147</ns3:hr>
            <ns3:cad>47</ns3:cad>
          </ns3:TrackPointExtension>
        </extensions>
      </trkpt>
      <trkpt lat="45.34415046684443950653076171875" lon="-70.818324387073516845703125">
        <ele>748.4000244140625</ele>
        <time>2026-08-21T11:37:45.000Z</time>
        <extensions>
          <ns3:TrackPointExtension>
            <ns3:hr>146</ns3:hr>
            <ns3:cad>47</ns3:cad>
          </ns3:TrackPointExtension>
        </extensions>
      </trkpt>
      <trkpt lat="45.34415080212056636810302734375" lon="-70.81831072457134723663330078125">
        <ele>748.4000244140625</ele>
        <time>2026-08-21T11:37:46.000Z</time>
        <extensions>
          <ns3:TrackPointExtension>
            <ns3:hr>147</ns3:hr>
            <ns3:cad>47</ns3:cad>
          </ns3:TrackPointExtension>
        </extensions>
      </trkpt>
      <trkpt lat="45.34414610825479030609130859375" lon="-70.8182943798601627349853515625">
        <ele>748.5999755859375</ele>
        <time>2026-08-21T11:37:47.000Z</time>
        <extensions>
          <ns3:TrackPointExtension>
            <ns3:hr>147</ns3:hr>
            <ns3:cad>47</ns3:cad>
          </ns3:TrackPointExtension>
        </extensions>
      </trkpt>
      <trkpt lat="45.3441396541893482208251953125" lon="-70.81828348338603973388671875">
        <ele>748.5999755859375</ele>
        <time>2026-08-21T11:37:48.000Z</time>
        <extensions>
          <ns3:TrackPointExtension>
            <ns3:hr>146</ns3:hr>
            <ns3:cad>47</ns3:cad>
          </ns3:TrackPointExtension>
        </extensions>
      </trkpt>
      <trkpt lat="45.3441314399242401123046875" lon="-70.81827141344547271728515625">
        <ele>748.79998779296875</ele>
        <time>2026-08-21T11:37:49.000Z</time>
        <extensions>
          <ns3:TrackPointExtension>
            <ns3:hr>147</ns3:hr>
            <ns3:cad>46</ns3:cad>
          </ns3:TrackPointExtension>
        </extensions>
      </trkpt>
      <trkpt lat="45.34412180073559284210205078125" lon="-70.81826630048453807830810546875">
        <ele>749</ele>
        <time>2026-08-21T11:37:50.000Z</time>
        <extensions>
          <ns3:TrackPointExtension>
            <ns3:hr>147</ns3:hr>
            <ns3:cad>46</ns3:cad>
          </ns3:TrackPointExtension>
        </extensions>
      </trkpt>
      <trkpt lat="45.34411157481372356414794921875" lon="-70.81826311536133289337158203125">
        <ele>749.20001220703125</ele>
        <time>2026-08-21T11:37:51.000Z</time>
        <extensions>
          <ns3:TrackPointExtension>
            <ns3:hr>146</ns3:hr>
            <ns3:cad>46</ns3:cad>
          </ns3:TrackPointExtension>
        </extensions>
      </trkpt>
      <trkpt lat="45.344097577035427093505859375" lon="-70.8182598464190959930419921875">
        <ele>749.4000244140625</ele>
        <time>2026-08-21T11:37:52.000Z</time>
        <extensions>
          <ns3:TrackPointExtension>
            <ns3:hr>146</ns3:hr>
            <ns3:cad>47</ns3:cad>
          </ns3:TrackPointExtension>
        </extensions>
      </trkpt>
      <trkpt lat="45.34409053623676300048828125" lon="-70.8182608522474765777587890625">
        <ele>749.5999755859375</ele>
        <time>2026-08-21T11:37:53.000Z</time>
        <extensions>
          <ns3:TrackPointExtension>
            <ns3:hr>146</ns3:hr>
            <ns3:cad>47</ns3:cad>
          </ns3:TrackPointExtension>
        </extensions>
      </trkpt>
      <trkpt lat="45.34408357925713062286376953125" lon="-70.81826110370457172393798828125">
        <ele>750</ele>
        <time>2026-08-21T11:37:54.000Z</time>
        <extensions>
          <ns3:TrackPointExtension>
            <ns3:hr>147</ns3:hr>
            <ns3:cad>47</ns3:cad>
          </ns3:TrackPointExtension>
        </extensions>
      </trkpt>
      <trkpt lat="45.34407712519168853759765625" lon="-70.81826143898069858551025390625">
        <ele>750.20001220703125</ele>
        <time>2026-08-21T11:37:55.000Z</time>
        <extensions>
          <ns3:TrackPointExtension>
            <ns3:hr>146</ns3:hr>
            <ns3:cad>47</ns3:cad>
          </ns3:TrackPointExtension>
        </extensions>
      </trkpt>
      <trkpt lat="45.344064049422740936279296875" lon="-70.818259678781032562255859375">
        <ele>750.4000244140625</ele>
        <time>2026-08-21T11:37:56.000Z</time>
        <extensions>
          <ns3:TrackPointExtension>
            <ns3:hr>146</ns3:hr>
            <ns3:cad>44</ns3:cad>
          </ns3:TrackPointExtension>
        </extensions>
      </trkpt>
      <trkpt lat="45.34405566751956939697265625" lon="-70.818258337676525115966796875">
        <ele>750.5999755859375</ele>
        <time>2026-08-21T11:37:57.000Z</time>
        <extensions>
          <ns3:TrackPointExtension>
            <ns3:hr>147</ns3:hr>
            <ns3:cad>0</ns3:cad>
          </ns3:TrackPointExtension>
        </extensions>
      </trkpt>
      <trkpt lat="45.3440481238067150115966796875" lon="-70.8182605169713497161865234375">
        <ele>750.79998779296875</ele>
        <time>2026-08-21T11:37:58.000Z</time>
        <extensions>
          <ns3:TrackPointExtension>
            <ns3:hr>146</ns3:hr>
            <ns3:cad>0</ns3:cad>
          </ns3:TrackPointExtension>
        </extensions>
      </trkpt>
      <trkpt lat="45.34403957426548004150390625" lon="-70.818259008228778839111328125">
        <ele>751</ele>
        <time>2026-08-21T11:37:59.000Z</time>
        <extensions>
          <ns3:TrackPointExtension>
            <ns3:hr>146</ns3:hr>
            <ns3:cad>0</ns3:cad>
          </ns3:TrackPointExtension>
        </extensions>
      </trkpt>
      <trkpt lat="45.34402809105813503265380859375" lon="-70.8182571642100811004638671875">
        <ele>751.20001220703125</ele>
        <time>2026-08-21T11:38:00.000Z</time>
        <extensions>
          <ns3:TrackPointExtension>
            <ns3:hr>145</ns3:hr>
            <ns3:cad>0</ns3:cad>
          </ns3:TrackPointExtension>
        </extensions>
      </trkpt>
      <trkpt lat="45.34402348101139068603515625" lon="-70.81825733184814453125">
        <ele>751.5999755859375</ele>
        <time>2026-08-21T11:38:01.000Z</time>
        <extensions>
          <ns3:TrackPointExtension>
            <ns3:hr>145</ns3:hr>
            <ns3:cad>0</ns3:cad>
          </ns3:TrackPointExtension>
        </extensions>
      </trkpt>
      <trkpt lat="45.34401836805045604705810546875" lon="-70.8182574994862079620361328125">
        <ele>751.79998779296875</ele>
        <time>2026-08-21T11:38:02.000Z</time>
        <extensions>
          <ns3:TrackPointExtension>
            <ns3:hr>145</ns3:hr>
            <ns3:cad>0</ns3:cad>
          </ns3:TrackPointExtension>
        </extensions>
      </trkpt>
      <trkpt lat="45.34400830976665019989013671875" lon="-70.81825758330523967742919921875">
        <ele>752</ele>
        <time>2026-08-21T11:38:03.000Z</time>
        <extensions>
          <ns3:TrackPointExtension>
            <ns3:hr>145</ns3:hr>
            <ns3:cad>0</ns3:cad>
          </ns3:TrackPointExtension>
        </extensions>
      </trkpt>
      <trkpt lat="45.34400193952023983001708984375" lon="-70.81825490109622478485107421875">
        <ele>752</ele>
        <time>2026-08-21T11:38:04.000Z</time>
        <extensions>
          <ns3:TrackPointExtension>
            <ns3:hr>144</ns3:hr>
            <ns3:cad>0</ns3:cad>
          </ns3:TrackPointExtension>
        </extensions>
      </trkpt>
      <trkpt lat="45.3439974971115589141845703125" lon="-70.8182548172771930694580078125">
        <ele>752.20001220703125</ele>
        <time>2026-08-21T11:38:05.000Z</time>
        <extensions>
          <ns3:TrackPointExtension>
            <ns3:hr>144</ns3:hr>
            <ns3:cad>0</ns3:cad>
          </ns3:TrackPointExtension>
        </extensions>
      </trkpt>
      <trkpt lat="45.34398769028484821319580078125" lon="-70.81825071014463901519775390625">
        <ele>752.4000244140625</ele>
        <time>2026-08-21T11:38:06.000Z</time>
        <extensions>
          <ns3:TrackPointExtension>
            <ns3:hr>144</ns3:hr>
            <ns3:cad>0</ns3:cad>
          </ns3:TrackPointExtension>
        </extensions>
      </trkpt>
      <trkpt lat="45.3439770452678203582763671875" lon="-70.81824584864079952239990234375">
        <ele>752.4000244140625</ele>
        <time>2026-08-21T11:38:07.000Z</time>
        <extensions>
          <ns3:TrackPointExtension>
            <ns3:hr>145</ns3:hr>
            <ns3:cad>0</ns3:cad>
          </ns3:TrackPointExtension>
        </extensions>
      </trkpt>
      <trkpt lat="45.34396581351757049560546875" lon="-70.81824333406984806060791015625">
        <ele>752.5999755859375</ele>
        <time>2026-08-21T11:38:08.000Z</time>
        <extensions>
          <ns3:TrackPointExtension>
            <ns3:hr>145</ns3:hr>
            <ns3:cad>0</ns3:cad>
          </ns3:TrackPointExtension>
        </extensions>
      </trkpt>
      <trkpt lat="45.34395508468151092529296875" lon="-70.818243585526943206787109375">
        <ele>752.79998779296875</ele>
        <time>2026-08-21T11:38:09.000Z</time>
        <extensions>
          <ns3:TrackPointExtension>
            <ns3:hr>145</ns3:hr>
            <ns3:cad>0</ns3:cad>
          </ns3:TrackPointExtension>
        </extensions>
      </trkpt>
      <trkpt lat="45.34394393675029277801513671875" lon="-70.81823947839438915252685546875">
        <ele>752.79998779296875</ele>
        <time>2026-08-21T11:38:10.000Z</time>
        <extensions>
          <ns3:TrackPointExtension>
            <ns3:hr>145</ns3:hr>
            <ns3:cad>0</ns3:cad>
          </ns3:TrackPointExtension>
        </extensions>
      </trkpt>
      <trkpt lat="45.34392935223877429962158203125" lon="-70.8182360418140888214111328125">
        <ele>752.79998779296875</ele>
        <time>2026-08-21T11:38:11.000Z</time>
        <extensions>
          <ns3:TrackPointExtension>
            <ns3:hr>145</ns3:hr>
            <ns3:cad>0</ns3:cad>
          </ns3:TrackPointExtension>
        </extensions>
      </trkpt>
      <trkpt lat="45.343915522098541259765625" lon="-70.818235538899898529052734375">
        <ele>753</ele>
        <time>2026-08-21T11:38:12.000Z</time>
        <extensions>
          <ns3:TrackPointExtension>
            <ns3:hr>144</ns3:hr>
            <ns3:cad>0</ns3:cad>
          </ns3:TrackPointExtension>
        </extensions>
      </trkpt>
      <trkpt lat="45.34390957094728946685791015625" lon="-70.81823050975799560546875">
        <ele>753</ele>
        <time>2026-08-21T11:38:13.000Z</time>
        <extensions>
          <ns3:TrackPointExtension>
            <ns3:hr>144</ns3:hr>
            <ns3:cad>0</ns3:cad>
          </ns3:TrackPointExtension>
        </extensions>
      </trkpt>
      <trkpt lat="45.3439039550721645355224609375" lon="-70.81821936182677745819091796875">
        <ele>753</ele>
        <time>2026-08-21T11:38:14.000Z</time>
        <extensions>
          <ns3:TrackPointExtension>
            <ns3:hr>144</ns3:hr>
            <ns3:cad>0</ns3:cad>
          </ns3:TrackPointExtension>
        </extensions>
      </trkpt>
      <trkpt lat="45.34390219487249851226806640625" lon="-70.81820569932460784912109375">
        <ele>753.20001220703125</ele>
        <time>2026-08-21T11:38:15.000Z</time>
        <extensions>
          <ns3:TrackPointExtension>
            <ns3:hr>144</ns3:hr>
            <ns3:cad>0</ns3:cad>
          </ns3:TrackPointExtension>
        </extensions>
      </trkpt>
      <trkpt lat="45.34390420652925968170166015625" lon="-70.81819689832627773284912109375">
        <ele>753.20001220703125</ele>
        <time>2026-08-21T11:38:16.000Z</time>
        <extensions>
          <ns3:TrackPointExtension>
            <ns3:hr>144</ns3:hr>
            <ns3:cad>57</ns3:cad>
          </ns3:TrackPointExtension>
        </extensions>
      </trkpt>
      <trkpt lat="45.3439046256244182586669921875" lon="-70.8181834034621715545654296875">
        <ele>753.4000244140625</ele>
        <time>2026-08-21T11:38:17.000Z</time>
        <extensions>
          <ns3:TrackPointExtension>
            <ns3:hr>144</ns3:hr>
            <ns3:cad>57</ns3:cad>
          </ns3:TrackPointExtension>
        </extensions>
      </trkpt>
      <trkpt lat="45.34390387125313282012939453125" lon="-70.81817158497869968414306640625">
        <ele>753.4000244140625</ele>
        <time>2026-08-21T11:38:18.000Z</time>
        <extensions>
          <ns3:TrackPointExtension>
            <ns3:hr>145</ns3:hr>
            <ns3:cad>57</ns3:cad>
          </ns3:TrackPointExtension>
        </extensions>
      </trkpt>
      <trkpt lat="45.34390068612992763519287109375" lon="-70.81815415062010288238525390625">
        <ele>753.4000244140625</ele>
        <time>2026-08-21T11:38:19.000Z</time>
        <extensions>
          <ns3:TrackPointExtension>
            <ns3:hr>144</ns3:hr>
            <ns3:cad>57</ns3:cad>
          </ns3:TrackPointExtension>
        </extensions>
      </trkpt>
      <trkpt lat="45.34390001557767391204833984375" lon="-70.8181393146514892578125">
        <ele>753.4000244140625</ele>
        <time>2026-08-21T11:38:20.000Z</time>
        <extensions>
          <ns3:TrackPointExtension>
            <ns3:hr>144</ns3:hr>
            <ns3:cad>57</ns3:cad>
          </ns3:TrackPointExtension>
        </extensions>
      </trkpt>
      <trkpt lat="45.34389716573059558868408203125" lon="-70.81812833435833454132080078125">
        <ele>753.4000244140625</ele>
        <time>2026-08-21T11:38:21.000Z</time>
        <extensions>
          <ns3:TrackPointExtension>
            <ns3:hr>144</ns3:hr>
            <ns3:cad>57</ns3:cad>
          </ns3:TrackPointExtension>
        </extensions>
      </trkpt>
      <trkpt lat="45.3438915498554706573486328125" lon="-70.81812045536935329437255859375">
        <ele>753.4000244140625</ele>
        <time>2026-08-21T11:38:22.000Z</time>
        <extensions>
          <ns3:TrackPointExtension>
            <ns3:hr>144</ns3:hr>
            <ns3:cad>57</ns3:cad>
          </ns3:TrackPointExtension>
        </extensions>
      </trkpt>
      <trkpt lat="45.3438851796090602874755859375" lon="-70.81811358220875263214111328125">
        <ele>753.5999755859375</ele>
        <time>2026-08-21T11:38:23.000Z</time>
        <extensions>
          <ns3:TrackPointExtension>
            <ns3:hr>144</ns3:hr>
            <ns3:cad>52</ns3:cad>
          </ns3:TrackPointExtension>
        </extensions>
      </trkpt>
      <trkpt lat="45.34388157539069652557373046875" lon="-70.8181072957813739776611328125">
        <ele>753.5999755859375</ele>
        <time>2026-08-21T11:38:24.000Z</time>
        <extensions>
          <ns3:TrackPointExtension>
            <ns3:hr>144</ns3:hr>
            <ns3:cad>52</ns3:cad>
          </ns3:TrackPointExtension>
        </extensions>
      </trkpt>
      <trkpt lat="45.34387738443911075592041015625" lon="-70.8180969022214412689208984375">
        <ele>753.79998779296875</ele>
        <time>2026-08-21T11:38:25.000Z</time>
        <extensions>
          <ns3:TrackPointExtension>
            <ns3:hr>144</ns3:hr>
            <ns3:cad>52</ns3:cad>
          </ns3:TrackPointExtension>
        </extensions>
      </trkpt>
      <trkpt lat="45.343874953687191009521484375" lon="-70.818082652986049652099609375">
        <ele>754.20001220703125</ele>
        <time>2026-08-21T11:38:26.000Z</time>
        <extensions>
          <ns3:TrackPointExtension>
            <ns3:hr>144</ns3:hr>
            <ns3:cad>50</ns3:cad>
          </ns3:TrackPointExtension>
        </extensions>
      </trkpt>
      <trkpt lat="45.34387604333460330963134765625" lon="-70.818074606359004974365234375">
        <ele>754.4000244140625</ele>
        <time>2026-08-21T11:38:27.000Z</time>
        <extensions>
          <ns3:TrackPointExtension>
            <ns3:hr>143</ns3:hr>
            <ns3:cad>0</ns3:cad>
          </ns3:TrackPointExtension>
        </extensions>
      </trkpt>
      <trkpt lat="45.34386816434562206268310546875" lon="-70.81805977039039134979248046875">
        <ele>754.5999755859375</ele>
        <time>2026-08-21T11:38:28.000Z</time>
        <extensions>
          <ns3:TrackPointExtension>
            <ns3:hr>142</ns3:hr>
            <ns3:cad>0</ns3:cad>
          </ns3:TrackPointExtension>
        </extensions>
      </trkpt>
      <trkpt lat="45.34386388957500457763671875" lon="-70.81805490888655185699462890625">
        <ele>755</ele>
        <time>2026-08-21T11:38:29.000Z</time>
        <extensions>
          <ns3:TrackPointExtension>
            <ns3:hr>142</ns3:hr>
            <ns3:cad>0</ns3:cad>
          </ns3:TrackPointExtension>
        </extensions>
      </trkpt>
      <trkpt lat="45.343860872089862823486328125" lon="-70.81805306486785411834716796875">
        <ele>755.20001220703125</ele>
        <time>2026-08-21T11:38:30.000Z</time>
        <extensions>
          <ns3:TrackPointExtension>
            <ns3:hr>142</ns3:hr>
            <ns3:cad>0</ns3:cad>
          </ns3:TrackPointExtension>
        </extensions>
      </trkpt>
      <trkpt lat="45.34385525621473789215087890625" lon="-70.8180492930114269256591796875">
        <ele>755.5999755859375</ele>
        <time>2026-08-21T11:38:31.000Z</time>
        <extensions>
          <ns3:TrackPointExtension>
            <ns3:hr>142</ns3:hr>
            <ns3:cad>0</ns3:cad>
          </ns3:TrackPointExtension>
        </extensions>
      </trkpt>
      <trkpt lat="45.3438526578247547149658203125" lon="-70.8180479519069194793701171875">
        <ele>755.79998779296875</ele>
        <time>2026-08-21T11:38:32.000Z</time>
        <extensions>
          <ns3:TrackPointExtension>
            <ns3:hr>142</ns3:hr>
            <ns3:cad>0</ns3:cad>
          </ns3:TrackPointExtension>
        </extensions>
      </trkpt>
      <trkpt lat="45.3438523225486278533935546875" lon="-70.81804552115499973297119140625">
        <ele>756.20001220703125</ele>
        <time>2026-08-21T11:38:33.000Z</time>
        <extensions>
          <ns3:TrackPointExtension>
            <ns3:hr>142</ns3:hr>
            <ns3:cad>0</ns3:cad>
          </ns3:TrackPointExtension>
        </extensions>
      </trkpt>
      <trkpt lat="45.34385542385280132293701171875" lon="-70.8180482871830463409423828125">
        <ele>756.4000244140625</ele>
        <time>2026-08-21T11:38:34.000Z</time>
        <extensions>
          <ns3:TrackPointExtension>
            <ns3:hr>141</ns3:hr>
            <ns3:cad>0</ns3:cad>
          </ns3:TrackPointExtension>
        </extensions>
      </trkpt>
      <trkpt lat="45.34385039471089839935302734375" lon="-70.81804166547954082489013671875">
        <ele>756.5999755859375</ele>
        <time>2026-08-21T11:38:35.000Z</time>
        <extensions>
          <ns3:TrackPointExtension>
            <ns3:hr>141</ns3:hr>
            <ns3:cad>47</ns3:cad>
          </ns3:TrackPointExtension>
        </extensions>
      </trkpt>
      <trkpt lat="45.34384704194962978363037109375" lon="-70.8180378936231136322021484375">
        <ele>756.79998779296875</ele>
        <time>2026-08-21T11:38:36.000Z</time>
        <extensions>
          <ns3:TrackPointExtension>
            <ns3:hr>140</ns3:hr>
            <ns3:cad>47</ns3:cad>
          </ns3:TrackPointExtension>
        </extensions>
      </trkpt>
      <trkpt lat="45.34384511411190032958984375" lon="-70.81803613342344760894775390625">
        <ele>757</ele>
        <time>2026-08-21T11:38:37.000Z</time>
        <extensions>
          <ns3:TrackPointExtension>
            <ns3:hr>140</ns3:hr>
            <ns3:cad>47</ns3:cad>
          </ns3:TrackPointExtension>
        </extensions>
      </trkpt>
      <trkpt lat="45.34384419210255146026611328125" lon="-70.8180375583469867706298828125">
        <ele>757.20001220703125</ele>
        <time>2026-08-21T11:38:38.000Z</time>
        <extensions>
          <ns3:TrackPointExtension>
            <ns3:hr>140</ns3:hr>
            <ns3:cad>0</ns3:cad>
          </ns3:TrackPointExtension>
        </extensions>
      </trkpt>
      <trkpt lat="45.34384268335998058319091796875" lon="-70.81803227774798870086669921875">
        <ele>757.4000244140625</ele>
        <time>2026-08-21T11:38:39.000Z</time>
        <extensions>
          <ns3:TrackPointExtension>
            <ns3:hr>140</ns3:hr>
            <ns3:cad>0</ns3:cad>
          </ns3:TrackPointExtension>
        </extensions>
      </trkpt>
      <trkpt lat="45.3438412584364414215087890625" lon="-70.81802892498672008514404296875">
        <ele>757.5999755859375</ele>
        <time>2026-08-21T11:38:40.000Z</time>
        <extensions>
          <ns3:TrackPointExtension>
            <ns3:hr>140</ns3:hr>
            <ns3:cad>0</ns3:cad>
          </ns3:TrackPointExtension>
        </extensions>
      </trkpt>
      <trkpt lat="45.34383899532258510589599609375" lon="-70.8180241473019123077392578125">
        <ele>757.79998779296875</ele>
        <time>2026-08-21T11:38:41.000Z</time>
        <extensions>
          <ns3:TrackPointExtension>
            <ns3:hr>140</ns3:hr>
            <ns3:cad>0</ns3:cad>
          </ns3:TrackPointExtension>
        </extensions>
      </trkpt>
      <trkpt lat="45.34383572638034820556640625" lon="-70.81801517866551876068115234375">
        <ele>758</ele>
        <time>2026-08-21T11:38:42.000Z</time>
        <extensions>
          <ns3:TrackPointExtension>
            <ns3:hr>139</ns3:hr>
            <ns3:cad>0</ns3:cad>
          </ns3:TrackPointExtension>
        </extensions>
      </trkpt>
      <trkpt lat="45.34383178688585758209228515625" lon="-70.81801098771393299102783203125">
        <ele>758.20001220703125</ele>
        <time>2026-08-21T11:38:43.000Z</time>
        <extensions>
          <ns3:TrackPointExtension>
            <ns3:hr>140</ns3:hr>
            <ns3:cad>0</ns3:cad>
          </ns3:TrackPointExtension>
        </extensions>
      </trkpt>
      <trkpt lat="45.34382357262074947357177734375" lon="-70.8179986663162708282470703125">
        <ele>758.5999755859375</ele>
        <time>2026-08-21T11:38:44.000Z</time>
        <extensions>
          <ns3:TrackPointExtension>
            <ns3:hr>140</ns3:hr>
            <ns3:cad>0</ns3:cad>
          </ns3:TrackPointExtension>
        </extensions>
      </trkpt>
      <trkpt lat="45.34381234087049961090087890625" lon="-70.81799237988889217376708984375">
        <ele>758.79998779296875</ele>
        <time>2026-08-21T11:38:45.000Z</time>
        <extensions>
          <ns3:TrackPointExtension>
            <ns3:hr>140</ns3:hr>
            <ns3:cad>0</ns3:cad>
          </ns3:TrackPointExtension>
        </extensions>
      </trkpt>
      <trkpt lat="45.34380680881440639495849609375" lon="-70.8179936371743679046630859375">
        <ele>759.20001220703125</ele>
        <time>2026-08-21T11:38:46.000Z</time>
        <extensions>
          <ns3:TrackPointExtension>
            <ns3:hr>141</ns3:hr>
            <ns3:cad>0</ns3:cad>
          </ns3:TrackPointExtension>
        </extensions>
      </trkpt>
      <trkpt lat="45.34380211494863033294677734375" lon="-70.8179946430027484893798828125">
        <ele>759.5999755859375</ele>
        <time>2026-08-21T11:38:47.000Z</time>
        <extensions>
          <ns3:TrackPointExtension>
            <ns3:hr>141</ns3:hr>
            <ns3:cad>0</ns3:cad>
          </ns3:TrackPointExtension>
        </extensions>
      </trkpt>
      <trkpt lat="45.343793816864490509033203125" lon="-70.817990787327289581298828125">
        <ele>760</ele>
        <time>2026-08-21T11:38:48.000Z</time>
        <extensions>
          <ns3:TrackPointExtension>
            <ns3:hr>141</ns3:hr>
            <ns3:cad>0</ns3:cad>
          </ns3:TrackPointExtension>
        </extensions>
      </trkpt>
      <trkpt lat="45.34378610551357269287109375" lon="-70.817981399595737457275390625">
        <ele>760.20001220703125</ele>
        <time>2026-08-21T11:38:49.000Z</time>
        <extensions>
          <ns3:TrackPointExtension>
            <ns3:hr>141</ns3:hr>
            <ns3:cad>0</ns3:cad>
          </ns3:TrackPointExtension>
        </extensions>
      </trkpt>
      <trkpt lat="45.3437842614948749542236328125" lon="-70.81797947175800800323486328125">
        <ele>760.4000244140625</ele>
        <time>2026-08-21T11:38:50.000Z</time>
        <extensions>
          <ns3:TrackPointExtension>
            <ns3:hr>141</ns3:hr>
            <ns3:cad>0</ns3:cad>
          </ns3:TrackPointExtension>
        </extensions>
      </trkpt>
      <trkpt lat="45.3437805734574794769287109375" lon="-70.81796824000775814056396484375">
        <ele>760.5999755859375</ele>
        <time>2026-08-21T11:38:51.000Z</time>
        <extensions>
          <ns3:TrackPointExtension>
            <ns3:hr>142</ns3:hr>
            <ns3:cad>0</ns3:cad>
          </ns3:TrackPointExtension>
        </extensions>
      </trkpt>
      <trkpt lat="45.34377831034362316131591796875" lon="-70.817954577505588531494140625">
        <ele>760.79998779296875</ele>
        <time>2026-08-21T11:38:52.000Z</time>
        <extensions>
          <ns3:TrackPointExtension>
            <ns3:hr>142</ns3:hr>
            <ns3:cad>0</ns3:cad>
          </ns3:TrackPointExtension>
        </extensions>
      </trkpt>
      <trkpt lat="45.3437755443155765533447265625" lon="-70.81794477067887783050537109375">
        <ele>761.20001220703125</ele>
        <time>2026-08-21T11:38:53.000Z</time>
        <extensions>
          <ns3:TrackPointExtension>
            <ns3:hr>142</ns3:hr>
            <ns3:cad>0</ns3:cad>
          </ns3:TrackPointExtension>
        </extensions>
      </trkpt>
      <trkpt lat="45.34376774914562702178955078125" lon="-70.81793655641376972198486328125">
        <ele>761.4000244140625</ele>
        <time>2026-08-21T11:38:54.000Z</time>
        <extensions>
          <ns3:TrackPointExtension>
            <ns3:hr>142</ns3:hr>
            <ns3:cad>0</ns3:cad>
          </ns3:TrackPointExtension>
        </extensions>
      </trkpt>
      <trkpt lat="45.34375299699604511260986328125" lon="-70.81792817451059818267822265625">
        <ele>761.5999755859375</ele>
        <time>2026-08-21T11:38:55.000Z</time>
        <extensions>
          <ns3:TrackPointExtension>
            <ns3:hr>144</ns3:hr>
            <ns3:cad>0</ns3:cad>
          </ns3:TrackPointExtension>
        </extensions>
      </trkpt>
      <trkpt lat="45.3437400050461292266845703125" lon="-70.81792633049190044403076171875">
        <ele>761.79998779296875</ele>
        <time>2026-08-21T11:38:56.000Z</time>
        <extensions>
          <ns3:TrackPointExtension>
            <ns3:hr>146</ns3:hr>
            <ns3:cad>43</ns3:cad>
          </ns3:TrackPointExtension>
        </extensions>
      </trkpt>
      <trkpt lat="45.3437289409339427947998046875" lon="-70.8179322816431522369384765625">
        <ele>762</ele>
        <time>2026-08-21T11:38:57.000Z</time>
        <extensions>
          <ns3:TrackPointExtension>
            <ns3:hr>147</ns3:hr>
            <ns3:cad>43</ns3:cad>
          </ns3:TrackPointExtension>
        </extensions>
      </trkpt>
      <trkpt lat="45.343719385564327239990234375" lon="-70.8179349638521671295166015625">
        <ele>762.20001220703125</ele>
        <time>2026-08-21T11:38:58.000Z</time>
        <extensions>
          <ns3:TrackPointExtension>
            <ns3:hr>148</ns3:hr>
            <ns3:cad>43</ns3:cad>
          </ns3:TrackPointExtension>
        </extensions>
      </trkpt>
      <trkpt lat="45.34370907582342624664306640625" lon="-70.81793613731861114501953125">
        <ele>762.4000244140625</ele>
        <time>2026-08-21T11:38:59.000Z</time>
        <extensions>
          <ns3:TrackPointExtension>
            <ns3:hr>148</ns3:hr>
            <ns3:cad>0</ns3:cad>
          </ns3:TrackPointExtension>
        </extensions>
      </trkpt>
      <trkpt lat="45.3436967544257640838623046875" lon="-70.81794560886919498443603515625">
        <ele>762.5999755859375</ele>
        <time>2026-08-21T11:39:00.000Z</time>
        <extensions>
          <ns3:TrackPointExtension>
            <ns3:hr>147</ns3:hr>
            <ns3:cad>0</ns3:cad>
          </ns3:TrackPointExtension>
        </extensions>
      </trkpt>
      <trkpt lat="45.34368359483778476715087890625" lon="-70.8179621212184429168701171875">
        <ele>762.5999755859375</ele>
        <time>2026-08-21T11:39:01.000Z</time>
        <extensions>
          <ns3:TrackPointExtension>
            <ns3:hr>147</ns3:hr>
            <ns3:cad>0</ns3:cad>
          </ns3:TrackPointExtension>
        </extensions>
      </trkpt>
      <trkpt lat="45.343671105802059173583984375" lon="-70.817978382110595703125">
        <ele>762.79998779296875</ele>
        <time>2026-08-21T11:39:02.000Z</time>
        <extensions>
          <ns3:TrackPointExtension>
            <ns3:hr>148</ns3:hr>
            <ns3:cad>0</ns3:cad>
          </ns3:TrackPointExtension>
        </extensions>
      </trkpt>
      <trkpt lat="45.34366213716566562652587890625" lon="-70.8179929666221141815185546875">
        <ele>762.79998779296875</ele>
        <time>2026-08-21T11:39:03.000Z</time>
        <extensions>
          <ns3:TrackPointExtension>
            <ns3:hr>149</ns3:hr>
            <ns3:cad>0</ns3:cad>
          </ns3:TrackPointExtension>
        </extensions>
      </trkpt>
      <trkpt lat="45.34365459345281124114990234375" lon="-70.81800051033496856689453125">
        <ele>762.79998779296875</ele>
        <time>2026-08-21T11:39:04.000Z</time>
        <extensions>
          <ns3:TrackPointExtension>
            <ns3:hr>149</ns3:hr>
            <ns3:cad>47</ns3:cad>
          </ns3:TrackPointExtension>
        </extensions>
      </trkpt>
      <trkpt lat="45.34364394843578338623046875" lon="-70.818008221685886383056640625">
        <ele>762.79998779296875</ele>
        <time>2026-08-21T11:39:05.000Z</time>
        <extensions>
          <ns3:TrackPointExtension>
            <ns3:hr>149</ns3:hr>
            <ns3:cad>47</ns3:cad>
          </ns3:TrackPointExtension>
        </extensions>
      </trkpt>
      <trkpt lat="45.34363456070423126220703125" lon="-70.818012915551662445068359375">
        <ele>763</ele>
        <time>2026-08-21T11:39:06.000Z</time>
        <extensions>
          <ns3:TrackPointExtension>
            <ns3:hr>149</ns3:hr>
            <ns3:cad>49</ns3:cad>
          </ns3:TrackPointExtension>
        </extensions>
      </trkpt>
      <trkpt lat="45.34362542442977428436279296875" lon="-70.81801517866551876068115234375">
        <ele>763.20001220703125</ele>
        <time>2026-08-21T11:39:07.000Z</time>
        <extensions>
          <ns3:TrackPointExtension>
            <ns3:hr>149</ns3:hr>
            <ns3:cad>49</ns3:cad>
          </ns3:TrackPointExtension>
        </extensions>
      </trkpt>
      <trkpt lat="45.34361368976533412933349609375" lon="-70.8180150948464870452880859375">
        <ele>763.20001220703125</ele>
        <time>2026-08-21T11:39:08.000Z</time>
        <extensions>
          <ns3:TrackPointExtension>
            <ns3:hr>148</ns3:hr>
            <ns3:cad>51</ns3:cad>
          </ns3:TrackPointExtension>
        </extensions>
      </trkpt>
      <trkpt lat="45.34360145218670368194580078125" lon="-70.818014256656169891357421875">
        <ele>763.4000244140625</ele>
        <time>2026-08-21T11:39:09.000Z</time>
        <extensions>
          <ns3:TrackPointExtension>
            <ns3:hr>148</ns3:hr>
            <ns3:cad>50</ns3:cad>
          </ns3:TrackPointExtension>
        </extensions>
      </trkpt>
      <trkpt lat="45.34358971752226352691650390625" lon="-70.81801568157970905303955078125">
        <ele>763.5999755859375</ele>
        <time>2026-08-21T11:39:10.000Z</time>
        <extensions>
          <ns3:TrackPointExtension>
            <ns3:hr>148</ns3:hr>
            <ns3:cad>50</ns3:cad>
          </ns3:TrackPointExtension>
        </extensions>
      </trkpt>
      <trkpt lat="45.34357898868620395660400390625" lon="-70.8180201239883899688720703125">
        <ele>763.79998779296875</ele>
        <time>2026-08-21T11:39:11.000Z</time>
        <extensions>
          <ns3:TrackPointExtension>
            <ns3:hr>148</ns3:hr>
            <ns3:cad>50</ns3:cad>
          </ns3:TrackPointExtension>
        </extensions>
      </trkpt>
      <trkpt lat="45.34357295371592044830322265625" lon="-70.8180253207683563232421875">
        <ele>764</ele>
        <time>2026-08-21T11:39:12.000Z</time>
        <extensions>
          <ns3:TrackPointExtension>
            <ns3:hr>149</ns3:hr>
            <ns3:cad>50</ns3:cad>
          </ns3:TrackPointExtension>
        </extensions>
      </trkpt>
      <trkpt lat="45.34355786629021167755126953125" lon="-70.818030349910259246826171875">
        <ele>764.20001220703125</ele>
        <time>2026-08-21T11:39:13.000Z</time>
        <extensions>
          <ns3:TrackPointExtension>
            <ns3:hr>148</ns3:hr>
            <ns3:cad>50</ns3:cad>
          </ns3:TrackPointExtension>
        </extensions>
      </trkpt>
      <trkpt lat="45.3435465507209300994873046875" lon="-70.8180321939289569854736328125">
        <ele>764.4000244140625</ele>
        <time>2026-08-21T11:39:14.000Z</time>
        <extensions>
          <ns3:TrackPointExtension>
            <ns3:hr>148</ns3:hr>
            <ns3:cad>50</ns3:cad>
          </ns3:TrackPointExtension>
        </extensions>
      </trkpt>
      <trkpt lat="45.34353221766650676727294921875" lon="-70.818034373223781585693359375">
        <ele>764.5999755859375</ele>
        <time>2026-08-21T11:39:15.000Z</time>
        <extensions>
          <ns3:TrackPointExtension>
            <ns3:hr>149</ns3:hr>
            <ns3:cad>50</ns3:cad>
          </ns3:TrackPointExtension>
        </extensions>
      </trkpt>
      <trkpt lat="45.3435247577726840972900390625" lon="-70.818040072917938232421875">
        <ele>764.79998779296875</ele>
        <time>2026-08-21T11:39:16.000Z</time>
        <extensions>
          <ns3:TrackPointExtension>
            <ns3:hr>148</ns3:hr>
            <ns3:cad>62</ns3:cad>
          </ns3:TrackPointExtension>
        </extensions>
      </trkpt>
      <trkpt lat="45.3435157053172588348388671875" lon="-70.818046443164348602294921875">
        <ele>764.79998779296875</ele>
        <time>2026-08-21T11:39:17.000Z</time>
        <extensions>
          <ns3:TrackPointExtension>
            <ns3:hr>148</ns3:hr>
            <ns3:cad>62</ns3:cad>
          </ns3:TrackPointExtension>
        </extensions>
      </trkpt>
      <trkpt lat="45.3435093350708484649658203125" lon="-70.81805323250591754913330078125">
        <ele>765</ele>
        <time>2026-08-21T11:39:18.000Z</time>
        <extensions>
          <ns3:TrackPointExtension>
            <ns3:hr>148</ns3:hr>
            <ns3:cad>62</ns3:cad>
          </ns3:TrackPointExtension>
        </extensions>
      </trkpt>
      <trkpt lat="45.34350313246250152587890625" lon="-70.8180610276758670806884765625">
        <ele>765.20001220703125</ele>
        <time>2026-08-21T11:39:19.000Z</time>
        <extensions>
          <ns3:TrackPointExtension>
            <ns3:hr>148</ns3:hr>
            <ns3:cad>62</ns3:cad>
          </ns3:TrackPointExtension>
        </extensions>
      </trkpt>
      <trkpt lat="45.34349500201642513275146484375" lon="-70.8180684037506580352783203125">
        <ele>765.20001220703125</ele>
        <time>2026-08-21T11:39:20.000Z</time>
        <extensions>
          <ns3:TrackPointExtension>
            <ns3:hr>148</ns3:hr>
            <ns3:cad>48</ns3:cad>
          </ns3:TrackPointExtension>
        </extensions>
      </trkpt>
      <trkpt lat="45.34348460845649242401123046875" lon="-70.81807770766317844390869140625">
        <ele>765.4000244140625</ele>
        <time>2026-08-21T11:39:21.000Z</time>
        <extensions>
          <ns3:TrackPointExtension>
            <ns3:hr>148</ns3:hr>
            <ns3:cad>44</ns3:cad>
          </ns3:TrackPointExtension>
        </extensions>
      </trkpt>
      <trkpt lat="45.3434694372117519378662109375" lon="-70.81808273680508136749267578125">
        <ele>765.4000244140625</ele>
        <time>2026-08-21T11:39:22.000Z</time>
        <extensions>
          <ns3:TrackPointExtension>
            <ns3:hr>147</ns3:hr>
            <ns3:cad>44</ns3:cad>
          </ns3:TrackPointExtension>
        </extensions>
      </trkpt>
      <trkpt lat="45.34346021711826324462890625" lon="-70.81809095107018947601318359375">
        <ele>765.4000244140625</ele>
        <time>2026-08-21T11:39:23.000Z</time>
        <extensions>
          <ns3:TrackPointExtension>
            <ns3:hr>147</ns3:hr>
            <ns3:cad>46</ns3:cad>
          </ns3:TrackPointExtension>
        </extensions>
      </trkpt>
      <trkpt lat="45.34344973973929882049560546875" lon="-70.81809899769723415374755859375">
        <ele>765.4000244140625</ele>
        <time>2026-08-21T11:39:24.000Z</time>
        <extensions>
          <ns3:TrackPointExtension>
            <ns3:hr>147</ns3:hr>
            <ns3:cad>46</ns3:cad>
          </ns3:TrackPointExtension>
        </extensions>
      </trkpt>
      <trkpt lat="45.3434392623603343963623046875" lon="-70.8181096427142620086669921875">
        <ele>765.20001220703125</ele>
        <time>2026-08-21T11:39:25.000Z</time>
        <extensions>
          <ns3:TrackPointExtension>
            <ns3:hr>148</ns3:hr>
            <ns3:cad>47</ns3:cad>
          </ns3:TrackPointExtension>
        </extensions>
      </trkpt>
      <trkpt lat="45.3434318862855434417724609375" lon="-70.81812464632093906402587890625">
        <ele>765</ele>
        <time>2026-08-21T11:39:26.000Z</time>
        <extensions>
          <ns3:TrackPointExtension>
            <ns3:hr>148</ns3:hr>
            <ns3:cad>47</ns3:cad>
          </ns3:TrackPointExtension>
        </extensions>
      </trkpt>
      <trkpt lat="45.343423672020435333251953125" lon="-70.81813503988087177276611328125">
        <ele>765</ele>
        <time>2026-08-21T11:39:27.000Z</time>
        <extensions>
          <ns3:TrackPointExtension>
            <ns3:hr>148</ns3:hr>
            <ns3:cad>47</ns3:cad>
          </ns3:TrackPointExtension>
        </extensions>
      </trkpt>
      <trkpt lat="45.343415625393390655517578125" lon="-70.8181505464017391204833984375">
        <ele>764.79998779296875</ele>
        <time>2026-08-21T11:39:28.000Z</time>
        <extensions>
          <ns3:TrackPointExtension>
            <ns3:hr>148</ns3:hr>
            <ns3:cad>56</ns3:cad>
          </ns3:TrackPointExtension>
        </extensions>
      </trkpt>
      <trkpt lat="45.3434072434902191162109375" lon="-70.818167813122272491455078125">
        <ele>764.79998779296875</ele>
        <time>2026-08-21T11:39:29.000Z</time>
        <extensions>
          <ns3:TrackPointExtension>
            <ns3:hr>148</ns3:hr>
            <ns3:cad>56</ns3:cad>
          </ns3:TrackPointExtension>
        </extensions>
      </trkpt>
      <trkpt lat="45.3433976881206035614013671875" lon="-70.81817728467285633087158203125">
        <ele>764.5999755859375</ele>
        <time>2026-08-21T11:39:30.000Z</time>
        <extensions>
          <ns3:TrackPointExtension>
            <ns3:hr>148</ns3:hr>
            <ns3:cad>56</ns3:cad>
          </ns3:TrackPointExtension>
        </extensions>
      </trkpt>
      <trkpt lat="45.34338586963713169097900390625" lon="-70.8181854151189327239990234375">
        <ele>764.5999755859375</ele>
        <time>2026-08-21T11:39:31.000Z</time>
        <extensions>
          <ns3:TrackPointExtension>
            <ns3:hr>147</ns3:hr>
            <ns3:cad>56</ns3:cad>
          </ns3:TrackPointExtension>
        </extensions>
      </trkpt>
      <trkpt lat="45.34336977638304233551025390625" lon="-70.81819103099405765533447265625">
        <ele>764.5999755859375</ele>
        <time>2026-08-21T11:39:32.000Z</time>
        <extensions>
          <ns3:TrackPointExtension>
            <ns3:hr>146</ns3:hr>
            <ns3:cad>0</ns3:cad>
          </ns3:TrackPointExtension>
        </extensions>
      </trkpt>
      <trkpt lat="45.34335820935666561126708984375" lon="-70.8181924559175968170166015625">
        <ele>764.5999755859375</ele>
        <time>2026-08-21T11:39:33.000Z</time>
        <extensions>
          <ns3:TrackPointExtension>
            <ns3:hr>146</ns3:hr>
            <ns3:cad>0</ns3:cad>
          </ns3:TrackPointExtension>
        </extensions>
      </trkpt>
      <trkpt lat="45.34335016272962093353271484375" lon="-70.81819899380207061767578125">
        <ele>764.5999755859375</ele>
        <time>2026-08-21T11:39:34.000Z</time>
        <extensions>
          <ns3:TrackPointExtension>
            <ns3:hr>146</ns3:hr>
            <ns3:cad>0</ns3:cad>
          </ns3:TrackPointExtension>
        </extensions>
      </trkpt>
      <trkpt lat="45.34334328956902027130126953125" lon="-70.81821550615131855010986328125">
        <ele>764.5999755859375</ele>
        <time>2026-08-21T11:39:35.000Z</time>
        <extensions>
          <ns3:TrackPointExtension>
            <ns3:hr>146</ns3:hr>
            <ns3:cad>0</ns3:cad>
          </ns3:TrackPointExtension>
        </extensions>
      </trkpt>
      <trkpt lat="45.343333818018436431884765625" lon="-70.81823595799505710601806640625">
        <ele>764.4000244140625</ele>
        <time>2026-08-21T11:39:36.000Z</time>
        <extensions>
          <ns3:TrackPointExtension>
            <ns3:hr>146</ns3:hr>
            <ns3:cad>0</ns3:cad>
          </ns3:TrackPointExtension>
        </extensions>
      </trkpt>
      <trkpt lat="45.34332836978137493133544921875" lon="-70.8182568289339542388916015625">
        <ele>764.4000244140625</ele>
        <time>2026-08-21T11:39:37.000Z</time>
        <extensions>
          <ns3:TrackPointExtension>
            <ns3:hr>145</ns3:hr>
            <ns3:cad>0</ns3:cad>
          </ns3:TrackPointExtension>
        </extensions>
      </trkpt>
      <trkpt lat="45.34332334063947200775146484375" lon="-70.81827485002577304840087890625">
        <ele>764.4000244140625</ele>
        <time>2026-08-21T11:39:38.000Z</time>
        <extensions>
          <ns3:TrackPointExtension>
            <ns3:hr>145</ns3:hr>
            <ns3:cad>0</ns3:cad>
          </ns3:TrackPointExtension>
        </extensions>
      </trkpt>
      <trkpt lat="45.34331378526985645294189453125" lon="-70.8182873390614986419677734375">
        <ele>764.20001220703125</ele>
        <time>2026-08-21T11:39:39.000Z</time>
        <extensions>
          <ns3:TrackPointExtension>
            <ns3:hr>144</ns3:hr>
            <ns3:cad>0</ns3:cad>
          </ns3:TrackPointExtension>
        </extensions>
      </trkpt>
      <trkpt lat="45.34330330789089202880859375" lon="-70.818299241364002227783203125">
        <ele>764.20001220703125</ele>
        <time>2026-08-21T11:39:40.000Z</time>
        <extensions>
          <ns3:TrackPointExtension>
            <ns3:hr>144</ns3:hr>
            <ns3:cad>55</ns3:cad>
          </ns3:TrackPointExtension>
        </extensions>
      </trkpt>
      <trkpt lat="45.3432914055883884429931640625" lon="-70.818306617438793182373046875">
        <ele>764.4000244140625</ele>
        <time>2026-08-21T11:39:41.000Z</time>
        <extensions>
          <ns3:TrackPointExtension>
            <ns3:hr>143</ns3:hr>
            <ns3:cad>55</ns3:cad>
          </ns3:TrackPointExtension>
        </extensions>
      </trkpt>
      <trkpt lat="45.3432811796665191650390625" lon="-70.81830896437168121337890625">
        <ele>764.4000244140625</ele>
        <time>2026-08-21T11:39:42.000Z</time>
        <extensions>
          <ns3:TrackPointExtension>
            <ns3:hr>143</ns3:hr>
            <ns3:cad>55</ns3:cad>
          </ns3:TrackPointExtension>
        </extensions>
      </trkpt>
      <trkpt lat="45.34327522851526737213134765625" lon="-70.81831139512360095977783203125">
        <ele>764.5999755859375</ele>
        <time>2026-08-21T11:39:43.000Z</time>
        <extensions>
          <ns3:TrackPointExtension>
            <ns3:hr>143</ns3:hr>
            <ns3:cad>53</ns3:cad>
          </ns3:TrackPointExtension>
        </extensions>
      </trkpt>
      <trkpt lat="45.3432632423937320709228515625" lon="-70.81831860356032848358154296875">
        <ele>764.79998779296875</ele>
        <time>2026-08-21T11:39:44.000Z</time>
        <extensions>
          <ns3:TrackPointExtension>
            <ns3:hr>142</ns3:hr>
            <ns3:cad>53</ns3:cad>
          </ns3:TrackPointExtension>
        </extensions>
      </trkpt>
      <trkpt lat="45.34324388019740581512451171875" lon="-70.8183269016444683074951171875">
        <ele>765</ele>
        <time>2026-08-21T11:39:45.000Z</time>
        <extensions>
          <ns3:TrackPointExtension>
            <ns3:hr>142</ns3:hr>
            <ns3:cad>53</ns3:cad>
          </ns3:TrackPointExtension>
        </extensions>
      </trkpt>
      <trkpt lat="45.3432313911616802215576171875" lon="-70.8183322660624980926513671875">
        <ele>765.20001220703125</ele>
        <time>2026-08-21T11:39:46.000Z</time>
        <extensions>
          <ns3:TrackPointExtension>
            <ns3:hr>141</ns3:hr>
            <ns3:cad>53</ns3:cad>
          </ns3:TrackPointExtension>
        </extensions>
      </trkpt>
      <trkpt lat="45.343215800821781158447265625" lon="-70.81833310425281524658203125">
        <ele>765.5999755859375</ele>
        <time>2026-08-21T11:39:47.000Z</time>
        <extensions>
          <ns3:TrackPointExtension>
            <ns3:hr>140</ns3:hr>
            <ns3:cad>53</ns3:cad>
          </ns3:TrackPointExtension>
        </extensions>
      </trkpt>
      <trkpt lat="45.34320381470024585723876953125" lon="-70.8183393068611621856689453125">
        <ele>765.79998779296875</ele>
        <time>2026-08-21T11:39:48.000Z</time>
        <extensions>
          <ns3:TrackPointExtension>
            <ns3:hr>139</ns3:hr>
            <ns3:cad>53</ns3:cad>
          </ns3:TrackPointExtension>
        </extensions>
      </trkpt>
      <trkpt lat="45.3431904874742031097412109375" lon="-70.81834794022142887115478515625">
        <ele>765.79998779296875</ele>
        <time>2026-08-21T11:39:49.000Z</time>
        <extensions>
          <ns3:TrackPointExtension>
            <ns3:hr>138</ns3:hr>
            <ns3:cad>53</ns3:cad>
          </ns3:TrackPointExtension>
        </extensions>
      </trkpt>
      <trkpt lat="45.343177579343318939208984375" lon="-70.8183580823242664337158203125">
        <ele>766</ele>
        <time>2026-08-21T11:39:50.000Z</time>
        <extensions>
          <ns3:TrackPointExtension>
            <ns3:hr>137</ns3:hr>
            <ns3:cad>53</ns3:cad>
          </ns3:TrackPointExtension>
        </extensions>
      </trkpt>
      <trkpt lat="45.343166850507259368896484375" lon="-70.818364284932613372802734375">
        <ele>766.20001220703125</ele>
        <time>2026-08-21T11:39:51.000Z</time>
        <extensions>
          <ns3:TrackPointExtension>
            <ns3:hr>136</ns3:hr>
            <ns3:cad>53</ns3:cad>
          </ns3:TrackPointExtension>
        </extensions>
      </trkpt>
      <trkpt lat="45.34315855242311954498291015625" lon="-70.8183753490447998046875">
        <ele>766.4000244140625</ele>
        <time>2026-08-21T11:39:52.000Z</time>
        <extensions>
          <ns3:TrackPointExtension>
            <ns3:hr>136</ns3:hr>
            <ns3:cad>53</ns3:cad>
          </ns3:TrackPointExtension>
        </extensions>
      </trkpt>
      <trkpt lat="45.34315318800508975982666015625" lon="-70.8183885924518108367919921875">
        <ele>766.4000244140625</ele>
        <time>2026-08-21T11:39:53.000Z</time>
        <extensions>
          <ns3:TrackPointExtension>
            <ns3:hr>135</ns3:hr>
            <ns3:cad>53</ns3:cad>
          </ns3:TrackPointExtension>
        </extensions>
      </trkpt>
      <trkpt lat="45.34314572811126708984375" lon="-70.81840879283845424652099609375">
        <ele>766.5999755859375</ele>
        <time>2026-08-21T11:39:54.000Z</time>
        <extensions>
          <ns3:TrackPointExtension>
            <ns3:hr>135</ns3:hr>
            <ns3:cad>53</ns3:cad>
          </ns3:TrackPointExtension>
        </extensions>
      </trkpt>
      <trkpt lat="45.34314195625483989715576171875" lon="-70.81842035986483097076416015625">
        <ele>766.79998779296875</ele>
        <time>2026-08-21T11:39:55.000Z</time>
        <extensions>
          <ns3:TrackPointExtension>
            <ns3:hr>135</ns3:hr>
            <ns3:cad>53</ns3:cad>
          </ns3:TrackPointExtension>
        </extensions>
      </trkpt>
      <trkpt lat="45.343137681484222412109375" lon="-70.818438716232776641845703125">
        <ele>766.79998779296875</ele>
        <time>2026-08-21T11:39:56.000Z</time>
        <extensions>
          <ns3:TrackPointExtension>
            <ns3:hr>135</ns3:hr>
            <ns3:cad>53</ns3:cad>
          </ns3:TrackPointExtension>
        </extensions>
      </trkpt>
      <trkpt lat="45.34313290379941463470458984375" lon="-70.81845916807651519775390625">
        <ele>767</ele>
        <time>2026-08-21T11:39:57.000Z</time>
        <extensions>
          <ns3:TrackPointExtension>
            <ns3:hr>135</ns3:hr>
            <ns3:cad>0</ns3:cad>
          </ns3:TrackPointExtension>
        </extensions>
      </trkpt>
      <trkpt lat="45.3431251086294651031494140625" lon="-70.818479955196380615234375">
        <ele>767</ele>
        <time>2026-08-21T11:39:58.000Z</time>
        <extensions>
          <ns3:TrackPointExtension>
            <ns3:hr>134</ns3:hr>
            <ns3:cad>0</ns3:cad>
          </ns3:TrackPointExtension>
        </extensions>
      </trkpt>
      <trkpt lat="45.343120582401752471923828125" lon="-70.81850476562976837158203125">
        <ele>767</ele>
        <time>2026-08-21T11:39:59.000Z</time>
        <extensions>
          <ns3:TrackPointExtension>
            <ns3:hr>134</ns3:hr>
            <ns3:cad>0</ns3:cad>
          </ns3:TrackPointExtension>
        </extensions>
      </trkpt>
      <trkpt lat="45.343119241297245025634765625" lon="-70.8185347728431224822998046875">
        <ele>767.20001220703125</ele>
        <time>2026-08-21T11:40:00.000Z</time>
        <extensions>
          <ns3:TrackPointExtension>
            <ns3:hr>135</ns3:hr>
            <ns3:cad>0</ns3:cad>
          </ns3:TrackPointExtension>
        </extensions>
      </trkpt>
      <trkpt lat="45.34312200732529163360595703125" lon="-70.818562768399715423583984375">
        <ele>767.20001220703125</ele>
        <time>2026-08-21T11:40:01.000Z</time>
        <extensions>
          <ns3:TrackPointExtension>
            <ns3:hr>135</ns3:hr>
            <ns3:cad>53</ns3:cad>
          </ns3:TrackPointExtension>
        </extensions>
      </trkpt>
      <trkpt lat="45.34312284551560878753662109375" lon="-70.8185817115008831024169921875">
        <ele>767.20001220703125</ele>
        <time>2026-08-21T11:40:02.000Z</time>
        <extensions>
          <ns3:TrackPointExtension>
            <ns3:hr>136</ns3:hr>
            <ns3:cad>53</ns3:cad>
          </ns3:TrackPointExtension>
        </extensions>
      </trkpt>
      <trkpt lat="45.3431254439055919647216796875" lon="-70.81859822385013103485107421875">
        <ele>767.20001220703125</ele>
        <time>2026-08-21T11:40:03.000Z</time>
        <extensions>
          <ns3:TrackPointExtension>
            <ns3:hr>136</ns3:hr>
            <ns3:cad>53</ns3:cad>
          </ns3:TrackPointExtension>
        </extensions>
      </trkpt>
      <trkpt lat="45.34312753938138484954833984375" lon="-70.81861431710422039031982421875">
        <ele>767.20001220703125</ele>
        <time>2026-08-21T11:40:04.000Z</time>
        <extensions>
          <ns3:TrackPointExtension>
            <ns3:hr>136</ns3:hr>
            <ns3:cad>55</ns3:cad>
          </ns3:TrackPointExtension>
        </extensions>
      </trkpt>
      <trkpt lat="45.34312703646719455718994140625" lon="-70.81863208673894405364990234375">
        <ele>767.20001220703125</ele>
        <time>2026-08-21T11:40:05.000Z</time>
        <extensions>
          <ns3:TrackPointExtension>
            <ns3:hr>136</ns3:hr>
            <ns3:cad>55</ns3:cad>
          </ns3:TrackPointExtension>
        </extensions>
      </trkpt>
      <trkpt lat="45.34312636591494083404541015625" lon="-70.8186467550694942474365234375">
        <ele>767.20001220703125</ele>
        <time>2026-08-21T11:40:06.000Z</time>
        <extensions>
          <ns3:TrackPointExtension>
            <ns3:hr>137</ns3:hr>
            <ns3:cad>51</ns3:cad>
          </ns3:TrackPointExtension>
        </extensions>
      </trkpt>
      <trkpt lat="45.34312217496335506439208984375" lon="-70.8186534605920314788818359375">
        <ele>767.4000244140625</ele>
        <time>2026-08-21T11:40:07.000Z</time>
        <extensions>
          <ns3:TrackPointExtension>
            <ns3:hr>137</ns3:hr>
            <ns3:cad>51</ns3:cad>
          </ns3:TrackPointExtension>
        </extensions>
      </trkpt>
      <trkpt lat="45.34311513416469097137451171875" lon="-70.81867014057934284210205078125">
        <ele>767.5999755859375</ele>
        <time>2026-08-21T11:40:08.000Z</time>
        <extensions>
          <ns3:TrackPointExtension>
            <ns3:hr>137</ns3:hr>
            <ns3:cad>55</ns3:cad>
          </ns3:TrackPointExtension>
        </extensions>
      </trkpt>
      <trkpt lat="45.34310817718505859375" lon="-70.818689167499542236328125">
        <ele>768</ele>
        <time>2026-08-21T11:40:09.000Z</time>
        <extensions>
          <ns3:TrackPointExtension>
            <ns3:hr>138</ns3:hr>
            <ns3:cad>55</ns3:cad>
          </ns3:TrackPointExtension>
        </extensions>
      </trkpt>
      <trkpt lat="45.34310624934732913970947265625" lon="-70.81870500929653644561767578125">
        <ele>768.20001220703125</ele>
        <time>2026-08-21T11:40:10.000Z</time>
        <extensions>
          <ns3:TrackPointExtension>
            <ns3:hr>137</ns3:hr>
            <ns3:cad>55</ns3:cad>
          </ns3:TrackPointExtension>
        </extensions>
      </trkpt>
      <trkpt lat="45.3431056626141071319580078125" lon="-70.8187181688845157623291015625">
        <ele>768.4000244140625</ele>
        <time>2026-08-21T11:40:11.000Z</time>
        <extensions>
          <ns3:TrackPointExtension>
            <ns3:hr>137</ns3:hr>
            <ns3:cad>0</ns3:cad>
          </ns3:TrackPointExtension>
        </extensions>
      </trkpt>
      <trkpt lat="45.343098454177379608154296875" lon="-70.81873007118701934814453125">
        <ele>768.5999755859375</ele>
        <time>2026-08-21T11:40:12.000Z</time>
        <extensions>
          <ns3:TrackPointExtension>
            <ns3:hr>138</ns3:hr>
            <ns3:cad>0</ns3:cad>
          </ns3:TrackPointExtension>
        </extensions>
      </trkpt>
      <trkpt lat="45.34308931790292263031005859375" lon="-70.81874758936464786529541015625">
        <ele>768.79998779296875</ele>
        <time>2026-08-21T11:40:13.000Z</time>
        <extensions>
          <ns3:TrackPointExtension>
            <ns3:hr>138</ns3:hr>
            <ns3:cad>50</ns3:cad>
          </ns3:TrackPointExtension>
        </extensions>
      </trkpt>
      <trkpt lat="45.3430811874568462371826171875" lon="-70.81876401789486408233642578125">
        <ele>769</ele>
        <time>2026-08-21T11:40:14.000Z</time>
        <extensions>
          <ns3:TrackPointExtension>
            <ns3:hr>138</ns3:hr>
            <ns3:cad>50</ns3:cad>
          </ns3:TrackPointExtension>
        </extensions>
      </trkpt>
      <trkpt lat="45.3430744819343090057373046875" lon="-70.818774998188018798828125">
        <ele>769.20001220703125</ele>
        <time>2026-08-21T11:40:15.000Z</time>
        <extensions>
          <ns3:TrackPointExtension>
            <ns3:hr>138</ns3:hr>
            <ns3:cad>50</ns3:cad>
          </ns3:TrackPointExtension>
        </extensions>
      </trkpt>
      <trkpt lat="45.343065597116947174072265625" lon="-70.8187869004905223846435546875">
        <ele>769.20001220703125</ele>
        <time>2026-08-21T11:40:16.000Z</time>
        <extensions>
          <ns3:TrackPointExtension>
            <ns3:hr>138</ns3:hr>
            <ns3:cad>50</ns3:cad>
          </ns3:TrackPointExtension>
        </extensions>
      </trkpt>
      <trkpt lat="45.34305989742279052734375" lon="-70.8187966234982013702392578125">
        <ele>769.4000244140625</ele>
        <time>2026-08-21T11:40:17.000Z</time>
        <extensions>
          <ns3:TrackPointExtension>
            <ns3:hr>137</ns3:hr>
            <ns3:cad>50</ns3:cad>
          </ns3:TrackPointExtension>
        </extensions>
      </trkpt>
      <trkpt lat="45.3430531919002532958984375" lon="-70.8188066817820072174072265625">
        <ele>769.5999755859375</ele>
        <time>2026-08-21T11:40:18.000Z</time>
        <extensions>
          <ns3:TrackPointExtension>
            <ns3:hr>138</ns3:hr>
            <ns3:cad>49</ns3:cad>
          </ns3:TrackPointExtension>
        </extensions>
      </trkpt>
      <trkpt lat="45.34304581582546234130859375" lon="-70.81881187856197357177734375">
        <ele>769.79998779296875</ele>
        <time>2026-08-21T11:40:19.000Z</time>
        <extensions>
          <ns3:TrackPointExtension>
            <ns3:hr>138</ns3:hr>
            <ns3:cad>49</ns3:cad>
          </ns3:TrackPointExtension>
        </extensions>
      </trkpt>
      <trkpt lat="45.34303651191294193267822265625" lon="-70.818810202181339263916015625">
        <ele>770</ele>
        <time>2026-08-21T11:40:20.000Z</time>
        <extensions>
          <ns3:TrackPointExtension>
            <ns3:hr>138</ns3:hr>
            <ns3:cad>50</ns3:cad>
          </ns3:TrackPointExtension>
        </extensions>
      </trkpt>
      <trkpt lat="45.34302427433431148529052734375" lon="-70.8188138902187347412109375">
        <ele>770.20001220703125</ele>
        <time>2026-08-21T11:40:21.000Z</time>
        <extensions>
          <ns3:TrackPointExtension>
            <ns3:hr>138</ns3:hr>
            <ns3:cad>50</ns3:cad>
          </ns3:TrackPointExtension>
        </extensions>
      </trkpt>
      <trkpt lat="45.3430164791643619537353515625" lon="-70.81881632097065448760986328125">
        <ele>770.4000244140625</ele>
        <time>2026-08-21T11:40:22.000Z</time>
        <extensions>
          <ns3:TrackPointExtension>
            <ns3:hr>138</ns3:hr>
            <ns3:cad>50</ns3:cad>
          </ns3:TrackPointExtension>
        </extensions>
      </trkpt>
      <trkpt lat="45.34300382249057292938232421875" lon="-70.81882554106414318084716796875">
        <ele>770.5999755859375</ele>
        <time>2026-08-21T11:40:23.000Z</time>
        <extensions>
          <ns3:TrackPointExtension>
            <ns3:hr>138</ns3:hr>
            <ns3:cad>50</ns3:cad>
          </ns3:TrackPointExtension>
        </extensions>
      </trkpt>
      <trkpt lat="45.34299292601644992828369140625" lon="-70.8188304863870143890380859375">
        <ele>770.79998779296875</ele>
        <time>2026-08-21T11:40:24.000Z</time>
        <extensions>
          <ns3:TrackPointExtension>
            <ns3:hr>138</ns3:hr>
            <ns3:cad>50</ns3:cad>
          </ns3:TrackPointExtension>
        </extensions>
      </trkpt>
      <trkpt lat="45.3429826162755489349365234375" lon="-70.8188326656818389892578125">
        <ele>771</ele>
        <time>2026-08-21T11:40:25.000Z</time>
        <extensions>
          <ns3:TrackPointExtension>
            <ns3:hr>138</ns3:hr>
            <ns3:cad>48</ns3:cad>
          </ns3:TrackPointExtension>
        </extensions>
      </trkpt>
      <trkpt lat="45.34297364763915538787841796875" lon="-70.8188341744244098663330078125">
        <ele>771.20001220703125</ele>
        <time>2026-08-21T11:40:26.000Z</time>
        <extensions>
          <ns3:TrackPointExtension>
            <ns3:hr>138</ns3:hr>
            <ns3:cad>48</ns3:cad>
          </ns3:TrackPointExtension>
        </extensions>
      </trkpt>
      <trkpt lat="45.34296534955501556396484375" lon="-70.818837694823741912841796875">
        <ele>771.4000244140625</ele>
        <time>2026-08-21T11:40:27.000Z</time>
        <extensions>
          <ns3:TrackPointExtension>
            <ns3:hr>138</ns3:hr>
            <ns3:cad>48</ns3:cad>
          </ns3:TrackPointExtension>
        </extensions>
      </trkpt>
      <trkpt lat="45.34295839257538318634033203125" lon="-70.81883962266147136688232421875">
        <ele>771.79998779296875</ele>
        <time>2026-08-21T11:40:28.000Z</time>
        <extensions>
          <ns3:TrackPointExtension>
            <ns3:hr>138</ns3:hr>
            <ns3:cad>50</ns3:cad>
          </ns3:TrackPointExtension>
        </extensions>
      </trkpt>
      <trkpt lat="45.3429517708718776702880859375" lon="-70.81883979029953479766845703125">
        <ele>772</ele>
        <time>2026-08-21T11:40:29.000Z</time>
        <extensions>
          <ns3:TrackPointExtension>
            <ns3:hr>139</ns3:hr>
            <ns3:cad>50</ns3:cad>
          </ns3:TrackPointExtension>
        </extensions>
      </trkpt>
      <trkpt lat="45.34294364042580127716064453125" lon="-70.81883576698601245880126953125">
        <ele>772.4000244140625</ele>
        <time>2026-08-21T11:40:30.000Z</time>
        <extensions>
          <ns3:TrackPointExtension>
            <ns3:hr>139</ns3:hr>
            <ns3:cad>50</ns3:cad>
          </ns3:TrackPointExtension>
        </extensions>
      </trkpt>
      <trkpt lat="45.342937521636486053466796875" lon="-70.818835012614727020263671875">
        <ele>772.5999755859375</ele>
        <time>2026-08-21T11:40:31.000Z</time>
        <extensions>
          <ns3:TrackPointExtension>
            <ns3:hr>139</ns3:hr>
            <ns3:cad>50</ns3:cad>
          </ns3:TrackPointExtension>
        </extensions>
      </trkpt>
      <trkpt lat="45.34293291158974170684814453125" lon="-70.81883425824344158172607421875">
        <ele>773</ele>
        <time>2026-08-21T11:40:32.000Z</time>
        <extensions>
          <ns3:TrackPointExtension>
            <ns3:hr>138</ns3:hr>
            <ns3:cad>50</ns3:cad>
          </ns3:TrackPointExtension>
        </extensions>
      </trkpt>
      <trkpt lat="45.342926122248172760009765625" lon="-70.8188341744244098663330078125">
        <ele>773.20001220703125</ele>
        <time>2026-08-21T11:40:33.000Z</time>
        <extensions>
          <ns3:TrackPointExtension>
            <ns3:hr>138</ns3:hr>
            <ns3:cad>50</ns3:cad>
          </ns3:TrackPointExtension>
        </extensions>
      </trkpt>
      <trkpt lat="45.34291983582079410552978515625" lon="-70.8188288100063800811767578125">
        <ele>773.4000244140625</ele>
        <time>2026-08-21T11:40:34.000Z</time>
        <extensions>
          <ns3:TrackPointExtension>
            <ns3:hr>139</ns3:hr>
            <ns3:cad>50</ns3:cad>
          </ns3:TrackPointExtension>
        </extensions>
      </trkpt>
      <trkpt lat="45.34291841089725494384765625" lon="-70.81881883554160594940185546875">
        <ele>773.4000244140625</ele>
        <time>2026-08-21T11:40:35.000Z</time>
        <extensions>
          <ns3:TrackPointExtension>
            <ns3:hr>139</ns3:hr>
            <ns3:cad>47</ns3:cad>
          </ns3:TrackPointExtension>
        </extensions>
      </trkpt>
      <trkpt lat="45.3429182432591915130615234375" lon="-70.81881397403776645660400390625">
        <ele>773.5999755859375</ele>
        <time>2026-08-21T11:40:36.000Z</time>
        <extensions>
          <ns3:TrackPointExtension>
            <ns3:hr>140</ns3:hr>
            <ns3:cad>47</ns3:cad>
          </ns3:TrackPointExtension>
        </extensions>
      </trkpt>
      <trkpt lat="45.34291765652596950531005859375" lon="-70.81880073063075542449951171875">
        <ele>773.5999755859375</ele>
        <time>2026-08-21T11:40:37.000Z</time>
        <extensions>
          <ns3:TrackPointExtension>
            <ns3:hr>140</ns3:hr>
            <ns3:cad>46</ns3:cad>
          </ns3:TrackPointExtension>
        </extensions>
      </trkpt>
      <trkpt lat="45.3429152257740497589111328125" lon="-70.81878463737666606903076171875">
        <ele>773.5999755859375</ele>
        <time>2026-08-21T11:40:38.000Z</time>
        <extensions>
          <ns3:TrackPointExtension>
            <ns3:hr>141</ns3:hr>
            <ns3:cad>0</ns3:cad>
          </ns3:TrackPointExtension>
        </extensions>
      </trkpt>
      <trkpt lat="45.34290558658540248870849609375" lon="-70.8187694661319255828857421875">
        <ele>773.5999755859375</ele>
        <time>2026-08-21T11:40:39.000Z</time>
        <extensions>
          <ns3:TrackPointExtension>
            <ns3:hr>142</ns3:hr>
            <ns3:cad>0</ns3:cad>
          </ns3:TrackPointExtension>
        </extensions>
      </trkpt>
      <trkpt lat="45.34289921633899211883544921875" lon="-70.81876569427549839019775390625">
        <ele>773.79998779296875</ele>
        <time>2026-08-21T11:40:40.000Z</time>
        <extensions>
          <ns3:TrackPointExtension>
            <ns3:hr>143</ns3:hr>
            <ns3:cad>0</ns3:cad>
          </ns3:TrackPointExtension>
        </extensions>
      </trkpt>
      <trkpt lat="45.34289452247321605682373046875" lon="-70.8187637664377689361572265625">
        <ele>774</ele>
        <time>2026-08-21T11:40:41.000Z</time>
        <extensions>
          <ns3:TrackPointExtension>
            <ns3:hr>143</ns3:hr>
            <ns3:cad>0</ns3:cad>
          </ns3:TrackPointExtension>
        </extensions>
      </trkpt>
      <trkpt lat="45.3428890742361545562744140625" lon="-70.81875697709619998931884765625">
        <ele>774.20001220703125</ele>
        <time>2026-08-21T11:40:42.000Z</time>
        <extensions>
          <ns3:TrackPointExtension>
            <ns3:hr>144</ns3:hr>
            <ns3:cad>0</ns3:cad>
          </ns3:TrackPointExtension>
        </extensions>
      </trkpt>
      <trkpt lat="45.342886559665203094482421875" lon="-70.81875597126781940460205078125">
        <ele>774.5999755859375</ele>
        <time>2026-08-21T11:40:43.000Z</time>
        <extensions>
          <ns3:TrackPointExtension>
            <ns3:hr>144</ns3:hr>
            <ns3:cad>0</ns3:cad>
          </ns3:TrackPointExtension>
        </extensions>
      </trkpt>
      <trkpt lat="45.3428776748478412628173828125" lon="-70.81874976865947246551513671875">
        <ele>774.79998779296875</ele>
        <time>2026-08-21T11:40:44.000Z</time>
        <extensions>
          <ns3:TrackPointExtension>
            <ns3:hr>144</ns3:hr>
            <ns3:cad>0</ns3:cad>
          </ns3:TrackPointExtension>
        </extensions>
      </trkpt>
      <trkpt lat="45.34287272952497005462646484375" lon="-70.81874859519302845001220703125">
        <ele>775.20001220703125</ele>
        <time>2026-08-21T11:40:45.000Z</time>
        <extensions>
          <ns3:TrackPointExtension>
            <ns3:hr>144</ns3:hr>
            <ns3:cad>0</ns3:cad>
          </ns3:TrackPointExtension>
        </extensions>
      </trkpt>
      <trkpt lat="45.34286853857338428497314453125" lon="-70.8187413029372692108154296875">
        <ele>775.4000244140625</ele>
        <time>2026-08-21T11:40:46.000Z</time>
        <extensions>
          <ns3:TrackPointExtension>
            <ns3:hr>144</ns3:hr>
            <ns3:cad>0</ns3:cad>
          </ns3:TrackPointExtension>
        </extensions>
      </trkpt>
      <trkpt lat="45.34286501817405223846435546875" lon="-70.818737111985683441162109375">
        <ele>775.5999755859375</ele>
        <time>2026-08-21T11:40:47.000Z</time>
        <extensions>
          <ns3:TrackPointExtension>
            <ns3:hr>144</ns3:hr>
            <ns3:cad>0</ns3:cad>
          </ns3:TrackPointExtension>
        </extensions>
      </trkpt>
      <trkpt lat="45.34286619164049625396728515625" lon="-70.81873803399503231048583984375">
        <ele>775.79998779296875</ele>
        <time>2026-08-21T11:40:48.000Z</time>
        <extensions>
          <ns3:TrackPointExtension>
            <ns3:hr>144</ns3:hr>
            <ns3:cad>0</ns3:cad>
          </ns3:TrackPointExtension>
        </extensions>
      </trkpt>
      <trkpt lat="45.3428619168698787689208984375" lon="-70.8187361061573028564453125">
        <ele>776</ele>
        <time>2026-08-21T11:40:49.000Z</time>
        <extensions>
          <ns3:TrackPointExtension>
            <ns3:hr>144</ns3:hr>
            <ns3:cad>0</ns3:cad>
          </ns3:TrackPointExtension>
        </extensions>
      </trkpt>
      <trkpt lat="45.3428575582802295684814453125" lon="-70.81873635761439800262451171875">
        <ele>776.20001220703125</ele>
        <time>2026-08-21T11:40:50.000Z</time>
        <extensions>
          <ns3:TrackPointExtension>
            <ns3:hr>144</ns3:hr>
            <ns3:cad>0</ns3:cad>
          </ns3:TrackPointExtension>
        </extensions>
      </trkpt>
      <trkpt lat="45.342851020395755767822265625" lon="-70.81873350776731967926025390625">
        <ele>776.4000244140625</ele>
        <time>2026-08-21T11:40:51.000Z</time>
        <extensions>
          <ns3:TrackPointExtension>
            <ns3:hr>143</ns3:hr>
            <ns3:cad>0</ns3:cad>
          </ns3:TrackPointExtension>
        </extensions>
      </trkpt>
      <trkpt lat="45.34284154884517192840576171875" lon="-70.81873334012925624847412109375">
        <ele>776.79998779296875</ele>
        <time>2026-08-21T11:40:52.000Z</time>
        <extensions>
          <ns3:TrackPointExtension>
            <ns3:hr>144</ns3:hr>
            <ns3:cad>0</ns3:cad>
          </ns3:TrackPointExtension>
        </extensions>
      </trkpt>
      <trkpt lat="45.34283149056136608123779296875" lon="-70.818735770881175994873046875">
        <ele>777</ele>
        <time>2026-08-21T11:40:53.000Z</time>
        <extensions>
          <ns3:TrackPointExtension>
            <ns3:hr>144</ns3:hr>
            <ns3:cad>0</ns3:cad>
          </ns3:TrackPointExtension>
        </extensions>
      </trkpt>
      <trkpt lat="45.342821516096591949462890625" lon="-70.81873903982341289520263671875">
        <ele>777.20001220703125</ele>
        <time>2026-08-21T11:40:54.000Z</time>
        <extensions>
          <ns3:TrackPointExtension>
            <ns3:hr>144</ns3:hr>
            <ns3:cad>0</ns3:cad>
          </ns3:TrackPointExtension>
        </extensions>
      </trkpt>
      <trkpt lat="45.34281321801245212554931640625" lon="-70.81874054856598377227783203125">
        <ele>777.4000244140625</ele>
        <time>2026-08-21T11:40:55.000Z</time>
        <extensions>
          <ns3:TrackPointExtension>
            <ns3:hr>144</ns3:hr>
            <ns3:cad>0</ns3:cad>
          </ns3:TrackPointExtension>
        </extensions>
      </trkpt>
      <trkpt lat="45.3428102843463420867919921875" lon="-70.81874138675630092620849609375">
        <ele>777.5999755859375</ele>
        <time>2026-08-21T11:40:56.000Z</time>
        <extensions>
          <ns3:TrackPointExtension>
            <ns3:hr>144</ns3:hr>
            <ns3:cad>0</ns3:cad>
          </ns3:TrackPointExtension>
        </extensions>
      </trkpt>
      <trkpt lat="45.34280240535736083984375" lon="-70.81874792464077472686767578125">
        <ele>777.79998779296875</ele>
        <time>2026-08-21T11:40:57.000Z</time>
        <extensions>
          <ns3:TrackPointExtension>
            <ns3:hr>143</ns3:hr>
            <ns3:cad>0</ns3:cad>
          </ns3:TrackPointExtension>
        </extensions>
      </trkpt>
      <trkpt lat="45.34279393963515758514404296875" lon="-70.81875513307750225067138671875">
        <ele>778.20001220703125</ele>
        <time>2026-08-21T11:40:58.000Z</time>
        <extensions>
          <ns3:TrackPointExtension>
            <ns3:hr>144</ns3:hr>
            <ns3:cad>0</ns3:cad>
          </ns3:TrackPointExtension>
        </extensions>
      </trkpt>
      <trkpt lat="45.342794023454189300537109375" lon="-70.81875680945813655853271484375">
        <ele>778.4000244140625</ele>
        <time>2026-08-21T11:40:59.000Z</time>
        <extensions>
          <ns3:TrackPointExtension>
            <ns3:hr>144</ns3:hr>
            <ns3:cad>62</ns3:cad>
          </ns3:TrackPointExtension>
        </extensions>
      </trkpt>
      <trkpt lat="45.342786312103271484375" lon="-70.81876887939870357513427734375">
        <ele>778.5999755859375</ele>
        <time>2026-08-21T11:41:00.000Z</time>
        <extensions>
          <ns3:TrackPointExtension>
            <ns3:hr>144</ns3:hr>
            <ns3:cad>62</ns3:cad>
          </ns3:TrackPointExtension>
        </extensions>
      </trkpt>
      <trkpt lat="45.34278337843716144561767578125" lon="-70.81877273507416248321533203125">
        <ele>778.79998779296875</ele>
        <time>2026-08-21T11:41:01.000Z</time>
        <extensions>
          <ns3:TrackPointExtension>
            <ns3:hr>143</ns3:hr>
            <ns3:cad>62</ns3:cad>
          </ns3:TrackPointExtension>
        </extensions>
      </trkpt>
      <trkpt lat="45.34277667291462421417236328125" lon="-70.818778686225414276123046875">
        <ele>779</ele>
        <time>2026-08-21T11:41:02.000Z</time>
        <extensions>
          <ns3:TrackPointExtension>
            <ns3:hr>144</ns3:hr>
            <ns3:cad>0</ns3:cad>
          </ns3:TrackPointExtension>
        </extensions>
      </trkpt>
      <trkpt lat="45.342772901058197021484375" lon="-70.81878044642508029937744140625">
        <ele>779.20001220703125</ele>
        <time>2026-08-21T11:41:03.000Z</time>
        <extensions>
          <ns3:TrackPointExtension>
            <ns3:hr>144</ns3:hr>
            <ns3:cad>0</ns3:cad>
          </ns3:TrackPointExtension>
        </extensions>
      </trkpt>
      <trkpt lat="45.34276661463081836700439453125" lon="-70.81878346391022205352783203125">
        <ele>779.4000244140625</ele>
        <time>2026-08-21T11:41:04.000Z</time>
        <extensions>
          <ns3:TrackPointExtension>
            <ns3:hr>144</ns3:hr>
            <ns3:cad>0</ns3:cad>
          </ns3:TrackPointExtension>
        </extensions>
      </trkpt>
      <trkpt lat="45.34275840036571025848388671875" lon="-70.8187885768711566925048828125">
        <ele>779.5999755859375</ele>
        <time>2026-08-21T11:41:05.000Z</time>
        <extensions>
          <ns3:TrackPointExtension>
            <ns3:hr>143</ns3:hr>
            <ns3:cad>0</ns3:cad>
          </ns3:TrackPointExtension>
        </extensions>
      </trkpt>
      <trkpt lat="45.3427546285092830657958984375" lon="-70.8187932707369327545166015625">
        <ele>779.79998779296875</ele>
        <time>2026-08-21T11:41:06.000Z</time>
        <extensions>
          <ns3:TrackPointExtension>
            <ns3:hr>143</ns3:hr>
            <ns3:cad>0</ns3:cad>
          </ns3:TrackPointExtension>
        </extensions>
      </trkpt>
      <trkpt lat="45.34274884499609470367431640625" lon="-70.81880324520170688629150390625">
        <ele>780</ele>
        <time>2026-08-21T11:41:07.000Z</time>
        <extensions>
          <ns3:TrackPointExtension>
            <ns3:hr>143</ns3:hr>
            <ns3:cad>0</ns3:cad>
          </ns3:TrackPointExtension>
        </extensions>
      </trkpt>
      <trkpt lat="45.342744402587413787841796875" lon="-70.81881229765713214874267578125">
        <ele>780.20001220703125</ele>
        <time>2026-08-21T11:41:08.000Z</time>
        <extensions>
          <ns3:TrackPointExtension>
            <ns3:hr>143</ns3:hr>
            <ns3:cad>0</ns3:cad>
          </ns3:TrackPointExtension>
        </extensions>
      </trkpt>
      <trkpt lat="45.34274213947355747222900390625" lon="-70.81882059574127197265625">
        <ele>780.4000244140625</ele>
        <time>2026-08-21T11:41:09.000Z</time>
        <extensions>
          <ns3:TrackPointExtension>
            <ns3:hr>143</ns3:hr>
            <ns3:cad>0</ns3:cad>
          </ns3:TrackPointExtension>
        </extensions>
      </trkpt>
      <trkpt lat="45.34273627214133739471435546875" lon="-70.818823613226413726806640625">
        <ele>780.5999755859375</ele>
        <time>2026-08-21T11:41:10.000Z</time>
        <extensions>
          <ns3:TrackPointExtension>
            <ns3:hr>144</ns3:hr>
            <ns3:cad>0</ns3:cad>
          </ns3:TrackPointExtension>
        </extensions>
      </trkpt>
      <trkpt lat="45.34272805787622928619384765625" lon="-70.818829648196697235107421875">
        <ele>780.79998779296875</ele>
        <time>2026-08-21T11:41:11.000Z</time>
        <extensions>
          <ns3:TrackPointExtension>
            <ns3:hr>144</ns3:hr>
            <ns3:cad>0</ns3:cad>
          </ns3:TrackPointExtension>
        </extensions>
      </trkpt>
      <trkpt lat="45.3427259624004364013671875" lon="-70.81884180195629596710205078125">
        <ele>781</ele>
        <time>2026-08-21T11:41:12.000Z</time>
        <extensions>
          <ns3:TrackPointExtension>
            <ns3:hr>145</ns3:hr>
            <ns3:cad>0</ns3:cad>
          </ns3:TrackPointExtension>
        </extensions>
      </trkpt>
      <trkpt lat="45.34272151999175548553466796875" lon="-70.81885068677365779876708984375">
        <ele>781.4000244140625</ele>
        <time>2026-08-21T11:41:13.000Z</time>
        <extensions>
          <ns3:TrackPointExtension>
            <ns3:hr>145</ns3:hr>
            <ns3:cad>0</ns3:cad>
          </ns3:TrackPointExtension>
        </extensions>
      </trkpt>
      <trkpt lat="45.34271858632564544677734375" lon="-70.81885345280170440673828125">
        <ele>781.5999755859375</ele>
        <time>2026-08-21T11:41:14.000Z</time>
        <extensions>
          <ns3:TrackPointExtension>
            <ns3:hr>145</ns3:hr>
            <ns3:cad>0</ns3:cad>
          </ns3:TrackPointExtension>
        </extensions>
      </trkpt>
      <trkpt lat="45.34271062351763248443603515625" lon="-70.81885856576263904571533203125">
        <ele>782</ele>
        <time>2026-08-21T11:41:15.000Z</time>
        <extensions>
          <ns3:TrackPointExtension>
            <ns3:hr>144</ns3:hr>
            <ns3:cad>0</ns3:cad>
          </ns3:TrackPointExtension>
        </extensions>
      </trkpt>
      <trkpt lat="45.342707522213459014892578125" lon="-70.81886527128517627716064453125">
        <ele>782.20001220703125</ele>
        <time>2026-08-21T11:41:16.000Z</time>
        <extensions>
          <ns3:TrackPointExtension>
            <ns3:hr>144</ns3:hr>
            <ns3:cad>75</ns3:cad>
          </ns3:TrackPointExtension>
        </extensions>
      </trkpt>
      <trkpt lat="45.34270375035703182220458984375" lon="-70.8188777603209018707275390625">
        <ele>782.4000244140625</ele>
        <time>2026-08-21T11:41:17.000Z</time>
        <extensions>
          <ns3:TrackPointExtension>
            <ns3:hr>143</ns3:hr>
            <ns3:cad>75</ns3:cad>
          </ns3:TrackPointExtension>
        </extensions>
      </trkpt>
      <trkpt lat="45.3427023254334926605224609375" lon="-70.818881951272487640380859375">
        <ele>782.5999755859375</ele>
        <time>2026-08-21T11:41:18.000Z</time>
        <extensions>
          <ns3:TrackPointExtension>
            <ns3:hr>143</ns3:hr>
            <ns3:cad>75</ns3:cad>
          </ns3:TrackPointExtension>
        </extensions>
      </trkpt>
      <trkpt lat="45.3426993079483509063720703125" lon="-70.81888689659535884857177734375">
        <ele>783</ele>
        <time>2026-08-21T11:41:19.000Z</time>
        <extensions>
          <ns3:TrackPointExtension>
            <ns3:hr>143</ns3:hr>
            <ns3:cad>75</ns3:cad>
          </ns3:TrackPointExtension>
        </extensions>
      </trkpt>
      <trkpt lat="45.34269771538674831390380859375" lon="-70.81889829598367214202880859375">
        <ele>783.20001220703125</ele>
        <time>2026-08-21T11:41:20.000Z</time>
        <extensions>
          <ns3:TrackPointExtension>
            <ns3:hr>143</ns3:hr>
            <ns3:cad>75</ns3:cad>
          </ns3:TrackPointExtension>
        </extensions>
      </trkpt>
      <trkpt lat="45.34269603900611400604248046875" lon="-70.8189029060304164886474609375">
        <ele>783.4000244140625</ele>
        <time>2026-08-21T11:41:21.000Z</time>
        <extensions>
          <ns3:TrackPointExtension>
            <ns3:hr>144</ns3:hr>
            <ns3:cad>75</ns3:cad>
          </ns3:TrackPointExtension>
        </extensions>
      </trkpt>
      <trkpt lat="45.34269134514033794403076171875" lon="-70.818916149437427520751953125">
        <ele>783.4000244140625</ele>
        <time>2026-08-21T11:41:22.000Z</time>
        <extensions>
          <ns3:TrackPointExtension>
            <ns3:hr>144</ns3:hr>
            <ns3:cad>75</ns3:cad>
          </ns3:TrackPointExtension>
        </extensions>
      </trkpt>
      <trkpt lat="45.342688076198101043701171875" lon="-70.81893903203308582305908203125">
        <ele>783.5999755859375</ele>
        <time>2026-08-21T11:41:23.000Z</time>
        <extensions>
          <ns3:TrackPointExtension>
            <ns3:hr>145</ns3:hr>
            <ns3:cad>0</ns3:cad>
          </ns3:TrackPointExtension>
        </extensions>
      </trkpt>
      <trkpt lat="45.342687405645847320556640625" lon="-70.81896250136196613311767578125">
        <ele>783.5999755859375</ele>
        <time>2026-08-21T11:41:24.000Z</time>
        <extensions>
          <ns3:TrackPointExtension>
            <ns3:hr>146</ns3:hr>
            <ns3:cad>0</ns3:cad>
          </ns3:TrackPointExtension>
        </extensions>
      </trkpt>
      <trkpt lat="45.34268598072230815887451171875" lon="-70.81897306255996227264404296875">
        <ele>783.5999755859375</ele>
        <time>2026-08-21T11:41:25.000Z</time>
        <extensions>
          <ns3:TrackPointExtension>
            <ns3:hr>146</ns3:hr>
            <ns3:cad>0</ns3:cad>
          </ns3:TrackPointExtension>
        </extensions>
      </trkpt>
      <trkpt lat="45.34268396906554698944091796875" lon="-70.8189873956143856048583984375">
        <ele>783.79998779296875</ele>
        <time>2026-08-21T11:41:26.000Z</time>
        <extensions>
          <ns3:TrackPointExtension>
            <ns3:hr>146</ns3:hr>
            <ns3:cad>0</ns3:cad>
          </ns3:TrackPointExtension>
        </extensions>
      </trkpt>
      <trkpt lat="45.3426830470561981201171875" lon="-70.81900675781071186065673828125">
        <ele>783.79998779296875</ele>
        <time>2026-08-21T11:41:27.000Z</time>
        <extensions>
          <ns3:TrackPointExtension>
            <ns3:hr>147</ns3:hr>
            <ns3:cad>0</ns3:cad>
          </ns3:TrackPointExtension>
        </extensions>
      </trkpt>
      <trkpt lat="45.34268296323716640472412109375" lon="-70.81902670674026012420654296875">
        <ele>784</ele>
        <time>2026-08-21T11:41:28.000Z</time>
        <extensions>
          <ns3:TrackPointExtension>
            <ns3:hr>148</ns3:hr>
            <ns3:cad>0</ns3:cad>
          </ns3:TrackPointExtension>
        </extensions>
      </trkpt>
      <trkpt lat="45.3426830470561981201171875" lon="-70.81903693266212940216064453125">
        <ele>784</ele>
        <time>2026-08-21T11:41:29.000Z</time>
        <extensions>
          <ns3:TrackPointExtension>
            <ns3:hr>149</ns3:hr>
            <ns3:cad>0</ns3:cad>
          </ns3:TrackPointExtension>
        </extensions>
      </trkpt>
      <trkpt lat="45.34268329851329326629638671875" lon="-70.81904933787882328033447265625">
        <ele>784.20001220703125</ele>
        <time>2026-08-21T11:41:30.000Z</time>
        <extensions>
          <ns3:TrackPointExtension>
            <ns3:hr>150</ns3:hr>
            <ns3:cad>0</ns3:cad>
          </ns3:TrackPointExtension>
        </extensions>
      </trkpt>
      <trkpt lat="45.3426803648471832275390625" lon="-70.8190671913325786590576171875">
        <ele>784.20001220703125</ele>
        <time>2026-08-21T11:41:31.000Z</time>
        <extensions>
          <ns3:TrackPointExtension>
            <ns3:hr>150</ns3:hr>
            <ns3:cad>0</ns3:cad>
          </ns3:TrackPointExtension>
        </extensions>
      </trkpt>
      <trkpt lat="45.342678017914295196533203125" lon="-70.819080434739589691162109375">
        <ele>784.4000244140625</ele>
        <time>2026-08-21T11:41:32.000Z</time>
        <extensions>
          <ns3:TrackPointExtension>
            <ns3:hr>151</ns3:hr>
            <ns3:cad>0</ns3:cad>
          </ns3:TrackPointExtension>
        </extensions>
      </trkpt>
      <trkpt lat="45.34267575480043888092041015625" lon="-70.81909158267080783843994140625">
        <ele>784.4000244140625</ele>
        <time>2026-08-21T11:41:33.000Z</time>
        <extensions>
          <ns3:TrackPointExtension>
            <ns3:hr>151</ns3:hr>
            <ns3:cad>0</ns3:cad>
          </ns3:TrackPointExtension>
        </extensions>
      </trkpt>
      <trkpt lat="45.3426741622388362884521484375" lon="-70.819105915725231170654296875">
        <ele>784.5999755859375</ele>
        <time>2026-08-21T11:41:34.000Z</time>
        <extensions>
          <ns3:TrackPointExtension>
            <ns3:hr>151</ns3:hr>
            <ns3:cad>0</ns3:cad>
          </ns3:TrackPointExtension>
        </extensions>
      </trkpt>
      <trkpt lat="45.34267692826688289642333984375" lon="-70.81911102868616580963134765625">
        <ele>784.79998779296875</ele>
        <time>2026-08-21T11:41:35.000Z</time>
        <extensions>
          <ns3:TrackPointExtension>
            <ns3:hr>150</ns3:hr>
            <ns3:cad>0</ns3:cad>
          </ns3:TrackPointExtension>
        </extensions>
      </trkpt>
      <trkpt lat="45.34267567098140716552734375" lon="-70.81912930123507976531982421875">
        <ele>784.79998779296875</ele>
        <time>2026-08-21T11:41:36.000Z</time>
        <extensions>
          <ns3:TrackPointExtension>
            <ns3:hr>151</ns3:hr>
            <ns3:cad>0</ns3:cad>
          </ns3:TrackPointExtension>
        </extensions>
      </trkpt>
      <trkpt lat="45.34267558716237545013427734375" lon="-70.81913885660469532012939453125">
        <ele>785.20001220703125</ele>
        <time>2026-08-21T11:41:37.000Z</time>
        <extensions>
          <ns3:TrackPointExtension>
            <ns3:hr>151</ns3:hr>
            <ns3:cad>49</ns3:cad>
          </ns3:TrackPointExtension>
        </extensions>
      </trkpt>
      <trkpt lat="45.34267902374267578125" lon="-70.81914983689785003662109375">
        <ele>785.4000244140625</ele>
        <time>2026-08-21T11:41:38.000Z</time>
        <extensions>
          <ns3:TrackPointExtension>
            <ns3:hr>150</ns3:hr>
            <ns3:cad>49</ns3:cad>
          </ns3:TrackPointExtension>
        </extensions>
      </trkpt>
      <trkpt lat="45.34268011339008808135986328125" lon="-70.8191679418087005615234375">
        <ele>785.4000244140625</ele>
        <time>2026-08-21T11:41:39.000Z</time>
        <extensions>
          <ns3:TrackPointExtension>
            <ns3:hr>151</ns3:hr>
            <ns3:cad>49</ns3:cad>
          </ns3:TrackPointExtension>
        </extensions>
      </trkpt>
      <trkpt lat="45.34268078394234180450439453125" lon="-70.81918311305344104766845703125">
        <ele>785.5999755859375</ele>
        <time>2026-08-21T11:41:40.000Z</time>
        <extensions>
          <ns3:TrackPointExtension>
            <ns3:hr>150</ns3:hr>
            <ns3:cad>49</ns3:cad>
          </ns3:TrackPointExtension>
        </extensions>
      </trkpt>
      <trkpt lat="45.34268178977072238922119140625" lon="-70.8192016370594501495361328125">
        <ele>785.5999755859375</ele>
        <time>2026-08-21T11:41:41.000Z</time>
        <extensions>
          <ns3:TrackPointExtension>
            <ns3:hr>149</ns3:hr>
            <ns3:cad>49</ns3:cad>
          </ns3:TrackPointExtension>
        </extensions>
      </trkpt>
      <trkpt lat="45.34268178977072238922119140625" lon="-70.81921312026679515838623046875">
        <ele>785.5999755859375</ele>
        <time>2026-08-21T11:41:42.000Z</time>
        <extensions>
          <ns3:TrackPointExtension>
            <ns3:hr>149</ns3:hr>
            <ns3:cad>49</ns3:cad>
          </ns3:TrackPointExtension>
        </extensions>
      </trkpt>
      <trkpt lat="45.3426832146942615509033203125" lon="-70.81922133453190326690673828125">
        <ele>785.5999755859375</ele>
        <time>2026-08-21T11:41:43.000Z</time>
        <extensions>
          <ns3:TrackPointExtension>
            <ns3:hr>148</ns3:hr>
            <ns3:cad>49</ns3:cad>
          </ns3:TrackPointExtension>
        </extensions>
      </trkpt>
      <trkpt lat="45.3426768444478511810302734375" lon="-70.81923524849116802215576171875">
        <ele>785.79998779296875</ele>
        <time>2026-08-21T11:41:44.000Z</time>
        <extensions>
          <ns3:TrackPointExtension>
            <ns3:hr>148</ns3:hr>
            <ns3:cad>49</ns3:cad>
          </ns3:TrackPointExtension>
        </extensions>
      </trkpt>
      <trkpt lat="45.342671312391757965087890625" lon="-70.8192430436611175537109375">
        <ele>786</ele>
        <time>2026-08-21T11:41:45.000Z</time>
        <extensions>
          <ns3:TrackPointExtension>
            <ns3:hr>148</ns3:hr>
            <ns3:cad>49</ns3:cad>
          </ns3:TrackPointExtension>
        </extensions>
      </trkpt>
      <trkpt lat="45.3426661156117916107177734375" lon="-70.819250755012035369873046875">
        <ele>786.20001220703125</ele>
        <time>2026-08-21T11:41:46.000Z</time>
        <extensions>
          <ns3:TrackPointExtension>
            <ns3:hr>149</ns3:hr>
            <ns3:cad>49</ns3:cad>
          </ns3:TrackPointExtension>
        </extensions>
      </trkpt>
      <trkpt lat="45.34265949390828609466552734375" lon="-70.8192639984190464019775390625">
        <ele>786.5999755859375</ele>
        <time>2026-08-21T11:41:47.000Z</time>
        <extensions>
          <ns3:TrackPointExtension>
            <ns3:hr>148</ns3:hr>
            <ns3:cad>0</ns3:cad>
          </ns3:TrackPointExtension>
        </extensions>
      </trkpt>
      <trkpt lat="45.34265412949025630950927734375" lon="-70.81927430815994739532470703125">
        <ele>786.79998779296875</ele>
        <time>2026-08-21T11:41:48.000Z</time>
        <extensions>
          <ns3:TrackPointExtension>
            <ns3:hr>148</ns3:hr>
            <ns3:cad>45</ns3:cad>
          </ns3:TrackPointExtension>
        </extensions>
      </trkpt>
      <trkpt lat="45.34265245310962200164794921875" lon="-70.81927799619734287261962890625">
        <ele>787</ele>
        <time>2026-08-21T11:41:49.000Z</time>
        <extensions>
          <ns3:TrackPointExtension>
            <ns3:hr>147</ns3:hr>
            <ns3:cad>45</ns3:cad>
          </ns3:TrackPointExtension>
        </extensions>
      </trkpt>
      <trkpt lat="45.3426490165293216705322265625" lon="-70.81928520463407039642333984375">
        <ele>787.20001220703125</ele>
        <time>2026-08-21T11:41:50.000Z</time>
        <extensions>
          <ns3:TrackPointExtension>
            <ns3:hr>147</ns3:hr>
            <ns3:cad>45</ns3:cad>
          </ns3:TrackPointExtension>
        </extensions>
      </trkpt>
      <trkpt lat="45.34264457412064075469970703125" lon="-70.8192993700504302978515625">
        <ele>787.4000244140625</ele>
        <time>2026-08-21T11:41:51.000Z</time>
        <extensions>
          <ns3:TrackPointExtension>
            <ns3:hr>147</ns3:hr>
            <ns3:cad>45</ns3:cad>
          </ns3:TrackPointExtension>
        </extensions>
      </trkpt>
      <trkpt lat="45.34264088608324527740478515625" lon="-70.81931303255259990692138671875">
        <ele>787.5999755859375</ele>
        <time>2026-08-21T11:41:52.000Z</time>
        <extensions>
          <ns3:TrackPointExtension>
            <ns3:hr>147</ns3:hr>
            <ns3:cad>45</ns3:cad>
          </ns3:TrackPointExtension>
        </extensions>
      </trkpt>
      <trkpt lat="45.34263904206454753875732421875" lon="-70.81932242028415203094482421875">
        <ele>788</ele>
        <time>2026-08-21T11:41:53.000Z</time>
        <extensions>
          <ns3:TrackPointExtension>
            <ns3:hr>146</ns3:hr>
            <ns3:cad>45</ns3:cad>
          </ns3:TrackPointExtension>
        </extensions>
      </trkpt>
      <trkpt lat="45.34263619221746921539306640625" lon="-70.81933482550084590911865234375">
        <ele>788.20001220703125</ele>
        <time>2026-08-21T11:41:54.000Z</time>
        <extensions>
          <ns3:TrackPointExtension>
            <ns3:hr>146</ns3:hr>
            <ns3:cad>45</ns3:cad>
          </ns3:TrackPointExtension>
        </extensions>
      </trkpt>
      <trkpt lat="45.34263334237039089202880859375" lon="-70.8193508349359035491943359375">
        <ele>788.4000244140625</ele>
        <time>2026-08-21T11:41:55.000Z</time>
        <extensions>
          <ns3:TrackPointExtension>
            <ns3:hr>146</ns3:hr>
            <ns3:cad>45</ns3:cad>
          </ns3:TrackPointExtension>
        </extensions>
      </trkpt>
      <trkpt lat="45.34263099543750286102294921875" lon="-70.8193645812571048736572265625">
        <ele>788.5999755859375</ele>
        <time>2026-08-21T11:41:56.000Z</time>
        <extensions>
          <ns3:TrackPointExtension>
            <ns3:hr>147</ns3:hr>
            <ns3:cad>45</ns3:cad>
          </ns3:TrackPointExtension>
        </extensions>
      </trkpt>
      <trkpt lat="45.34262864850461483001708984375" lon="-70.81937170587480068206787109375">
        <ele>788.79998779296875</ele>
        <time>2026-08-21T11:41:57.000Z</time>
        <extensions>
          <ns3:TrackPointExtension>
            <ns3:hr>146</ns3:hr>
            <ns3:cad>45</ns3:cad>
          </ns3:TrackPointExtension>
        </extensions>
      </trkpt>
      <trkpt lat="45.342625714838504791259765625" lon="-70.81938075833022594451904296875">
        <ele>788.79998779296875</ele>
        <time>2026-08-21T11:41:58.000Z</time>
        <extensions>
          <ns3:TrackPointExtension>
            <ns3:hr>146</ns3:hr>
            <ns3:cad>45</ns3:cad>
          </ns3:TrackPointExtension>
        </extensions>
      </trkpt>
      <trkpt lat="45.34262177534401416778564453125" lon="-70.819390229880809783935546875">
        <ele>789</ele>
        <time>2026-08-21T11:41:59.000Z</time>
        <extensions>
          <ns3:TrackPointExtension>
            <ns3:hr>146</ns3:hr>
            <ns3:cad>44</ns3:cad>
          </ns3:TrackPointExtension>
        </extensions>
      </trkpt>
      <trkpt lat="45.34261909313499927520751953125" lon="-70.819398276507854461669921875">
        <ele>789.4000244140625</ele>
        <time>2026-08-21T11:42:00.000Z</time>
        <extensions>
          <ns3:TrackPointExtension>
            <ns3:hr>146</ns3:hr>
            <ns3:cad>44</ns3:cad>
          </ns3:TrackPointExtension>
        </extensions>
      </trkpt>
      <trkpt lat="45.34261607564985752105712890625" lon="-70.81940506584942340850830078125">
        <ele>789.5999755859375</ele>
        <time>2026-08-21T11:42:01.000Z</time>
        <extensions>
          <ns3:TrackPointExtension>
            <ns3:hr>146</ns3:hr>
            <ns3:cad>44</ns3:cad>
          </ns3:TrackPointExtension>
        </extensions>
      </trkpt>
      <trkpt lat="45.34261557273566722869873046875" lon="-70.8194142021238803863525390625">
        <ele>789.79998779296875</ele>
        <time>2026-08-21T11:42:02.000Z</time>
        <extensions>
          <ns3:TrackPointExtension>
            <ns3:hr>146</ns3:hr>
            <ns3:cad>44</ns3:cad>
          </ns3:TrackPointExtension>
        </extensions>
      </trkpt>
      <trkpt lat="45.342610292136669158935546875" lon="-70.8194259367883205413818359375">
        <ele>790.20001220703125</ele>
        <time>2026-08-21T11:42:03.000Z</time>
        <extensions>
          <ns3:TrackPointExtension>
            <ns3:hr>146</ns3:hr>
            <ns3:cad>44</ns3:cad>
          </ns3:TrackPointExtension>
        </extensions>
      </trkpt>
      <trkpt lat="45.3426097892224788665771484375" lon="-70.819431804120540618896484375">
        <ele>790.4000244140625</ele>
        <time>2026-08-21T11:42:04.000Z</time>
        <extensions>
          <ns3:TrackPointExtension>
            <ns3:hr>145</ns3:hr>
            <ns3:cad>44</ns3:cad>
          </ns3:TrackPointExtension>
        </extensions>
      </trkpt>
      <trkpt lat="45.34260752610862255096435546875" lon="-70.819445550441741943359375">
        <ele>790.5999755859375</ele>
        <time>2026-08-21T11:42:05.000Z</time>
        <extensions>
          <ns3:TrackPointExtension>
            <ns3:hr>145</ns3:hr>
            <ns3:cad>44</ns3:cad>
          </ns3:TrackPointExtension>
        </extensions>
      </trkpt>
      <trkpt lat="45.3425993956625461578369140625" lon="-70.819457285106182098388671875">
        <ele>790.79998779296875</ele>
        <time>2026-08-21T11:42:06.000Z</time>
        <extensions>
          <ns3:TrackPointExtension>
            <ns3:hr>145</ns3:hr>
            <ns3:cad>44</ns3:cad>
          </ns3:TrackPointExtension>
        </extensions>
      </trkpt>
      <trkpt lat="45.34259713254868984222412109375" lon="-70.8194641582667827606201171875">
        <ele>791.20001220703125</ele>
        <time>2026-08-21T11:42:07.000Z</time>
        <extensions>
          <ns3:TrackPointExtension>
            <ns3:hr>145</ns3:hr>
            <ns3:cad>44</ns3:cad>
          </ns3:TrackPointExtension>
        </extensions>
      </trkpt>
      <trkpt lat="45.3425950370728969573974609375" lon="-70.8194722048938274383544921875">
        <ele>791.4000244140625</ele>
        <time>2026-08-21T11:42:08.000Z</time>
        <extensions>
          <ns3:TrackPointExtension>
            <ns3:hr>145</ns3:hr>
            <ns3:cad>44</ns3:cad>
          </ns3:TrackPointExtension>
        </extensions>
      </trkpt>
      <trkpt lat="45.34258942119777202606201171875" lon="-70.8194856159389019012451171875">
        <ele>791.5999755859375</ele>
        <time>2026-08-21T11:42:09.000Z</time>
        <extensions>
          <ns3:TrackPointExtension>
            <ns3:hr>144</ns3:hr>
            <ns3:cad>0</ns3:cad>
          </ns3:TrackPointExtension>
        </extensions>
      </trkpt>
      <trkpt lat="45.34258539788424968719482421875" lon="-70.8194960094988346099853515625">
        <ele>791.79998779296875</ele>
        <time>2026-08-21T11:42:10.000Z</time>
        <extensions>
          <ns3:TrackPointExtension>
            <ns3:hr>144</ns3:hr>
            <ns3:cad>0</ns3:cad>
          </ns3:TrackPointExtension>
        </extensions>
      </trkpt>
      <trkpt lat="45.34258355386555194854736328125" lon="-70.81950346939265727996826171875">
        <ele>792</ele>
        <time>2026-08-21T11:42:11.000Z</time>
        <extensions>
          <ns3:TrackPointExtension>
            <ns3:hr>144</ns3:hr>
            <ns3:cad>0</ns3:cad>
          </ns3:TrackPointExtension>
        </extensions>
      </trkpt>
      <trkpt lat="45.3425806201994419097900390625" lon="-70.81951134838163852691650390625">
        <ele>792.20001220703125</ele>
        <time>2026-08-21T11:42:12.000Z</time>
        <extensions>
          <ns3:TrackPointExtension>
            <ns3:hr>145</ns3:hr>
            <ns3:cad>0</ns3:cad>
          </ns3:TrackPointExtension>
        </extensions>
      </trkpt>
      <trkpt lat="45.3425789438188076019287109375" lon="-70.81951671279966831207275390625">
        <ele>792.4000244140625</ele>
        <time>2026-08-21T11:42:13.000Z</time>
        <extensions>
          <ns3:TrackPointExtension>
            <ns3:hr>145</ns3:hr>
            <ns3:cad>0</ns3:cad>
          </ns3:TrackPointExtension>
        </extensions>
      </trkpt>
      <trkpt lat="45.342570729553699493408203125" lon="-70.8195278607308864593505859375">
        <ele>792.79998779296875</ele>
        <time>2026-08-21T11:42:14.000Z</time>
        <extensions>
          <ns3:TrackPointExtension>
            <ns3:hr>145</ns3:hr>
            <ns3:cad>0</ns3:cad>
          </ns3:TrackPointExtension>
        </extensions>
      </trkpt>
      <trkpt lat="45.3425675444304943084716796875" lon="-70.819538421928882598876953125">
        <ele>793</ele>
        <time>2026-08-21T11:42:15.000Z</time>
        <extensions>
          <ns3:TrackPointExtension>
            <ns3:hr>146</ns3:hr>
            <ns3:cad>0</ns3:cad>
          </ns3:TrackPointExtension>
        </extensions>
      </trkpt>
      <trkpt lat="45.3425668738782405853271484375" lon="-70.819540433585643768310546875">
        <ele>793.4000244140625</ele>
        <time>2026-08-21T11:42:16.000Z</time>
        <extensions>
          <ns3:TrackPointExtension>
            <ns3:hr>146</ns3:hr>
            <ns3:cad>0</ns3:cad>
          </ns3:TrackPointExtension>
        </extensions>
      </trkpt>
      <trkpt lat="45.3425658680498600006103515625" lon="-70.81954638473689556121826171875">
        <ele>793.5999755859375</ele>
        <time>2026-08-21T11:42:17.000Z</time>
        <extensions>
          <ns3:TrackPointExtension>
            <ns3:hr>146</ns3:hr>
            <ns3:cad>0</ns3:cad>
          </ns3:TrackPointExtension>
        </extensions>
      </trkpt>
      <trkpt lat="45.34256092272698879241943359375" lon="-70.81955158151686191558837890625">
        <ele>794</ele>
        <time>2026-08-21T11:42:18.000Z</time>
        <extensions>
          <ns3:TrackPointExtension>
            <ns3:hr>146</ns3:hr>
            <ns3:cad>0</ns3:cad>
          </ns3:TrackPointExtension>
        </extensions>
      </trkpt>
      <trkpt lat="45.342551954090595245361328125" lon="-70.81955216825008392333984375">
        <ele>794.20001220703125</ele>
        <time>2026-08-21T11:42:19.000Z</time>
        <extensions>
          <ns3:TrackPointExtension>
            <ns3:hr>145</ns3:hr>
            <ns3:cad>0</ns3:cad>
          </ns3:TrackPointExtension>
        </extensions>
      </trkpt>
      <trkpt lat="45.34254960715770721435546875" lon="-70.81955350935459136962890625">
        <ele>794.4000244140625</ele>
        <time>2026-08-21T11:42:20.000Z</time>
        <extensions>
          <ns3:TrackPointExtension>
            <ns3:hr>145</ns3:hr>
            <ns3:cad>0</ns3:cad>
          </ns3:TrackPointExtension>
        </extensions>
      </trkpt>
      <trkpt lat="45.3425427339971065521240234375" lon="-70.81956214271485805511474609375">
        <ele>794.5999755859375</ele>
        <time>2026-08-21T11:42:21.000Z</time>
        <extensions>
          <ns3:TrackPointExtension>
            <ns3:hr>145</ns3:hr>
            <ns3:cad>0</ns3:cad>
          </ns3:TrackPointExtension>
        </extensions>
      </trkpt>
      <trkpt lat="45.342533849179744720458984375" lon="-70.81956918351352214813232421875">
        <ele>795</ele>
        <time>2026-08-21T11:42:22.000Z</time>
        <extensions>
          <ns3:TrackPointExtension>
            <ns3:hr>145</ns3:hr>
            <ns3:cad>0</ns3:cad>
          </ns3:TrackPointExtension>
        </extensions>
      </trkpt>
      <trkpt lat="45.342528484761714935302734375" lon="-70.81957362592220306396484375">
        <ele>795.20001220703125</ele>
        <time>2026-08-21T11:42:23.000Z</time>
        <extensions>
          <ns3:TrackPointExtension>
            <ns3:hr>145</ns3:hr>
            <ns3:cad>0</ns3:cad>
          </ns3:TrackPointExtension>
        </extensions>
      </trkpt>
      <trkpt lat="45.34252538345754146575927734375" lon="-70.8195758052170276641845703125">
        <ele>795.4000244140625</ele>
        <time>2026-08-21T11:42:24.000Z</time>
        <extensions>
          <ns3:TrackPointExtension>
            <ns3:hr>146</ns3:hr>
            <ns3:cad>0</ns3:cad>
          </ns3:TrackPointExtension>
        </extensions>
      </trkpt>
      <trkpt lat="45.342522449791431427001953125" lon="-70.81958301365375518798828125">
        <ele>795.5999755859375</ele>
        <time>2026-08-21T11:42:25.000Z</time>
        <extensions>
          <ns3:TrackPointExtension>
            <ns3:hr>146</ns3:hr>
            <ns3:cad>0</ns3:cad>
          </ns3:TrackPointExtension>
        </extensions>
      </trkpt>
      <trkpt lat="45.342520773410797119140625" lon="-70.8195885457098484039306640625">
        <ele>795.79998779296875</ele>
        <time>2026-08-21T11:42:26.000Z</time>
        <extensions>
          <ns3:TrackPointExtension>
            <ns3:hr>146</ns3:hr>
            <ns3:cad>0</ns3:cad>
          </ns3:TrackPointExtension>
        </extensions>
      </trkpt>
      <trkpt lat="45.34251934848725795745849609375" lon="-70.81959365867078304290771484375">
        <ele>796</ele>
        <time>2026-08-21T11:42:27.000Z</time>
        <extensions>
          <ns3:TrackPointExtension>
            <ns3:hr>146</ns3:hr>
            <ns3:cad>0</ns3:cad>
          </ns3:TrackPointExtension>
        </extensions>
      </trkpt>
      <trkpt lat="45.34251465462148189544677734375" lon="-70.81960178911685943603515625">
        <ele>796.20001220703125</ele>
        <time>2026-08-21T11:42:28.000Z</time>
        <extensions>
          <ns3:TrackPointExtension>
            <ns3:hr>146</ns3:hr>
            <ns3:cad>42</ns3:cad>
          </ns3:TrackPointExtension>
        </extensions>
      </trkpt>
      <trkpt lat="45.3425071947276592254638671875" lon="-70.81960824318230152130126953125">
        <ele>796.4000244140625</ele>
        <time>2026-08-21T11:42:29.000Z</time>
        <extensions>
          <ns3:TrackPointExtension>
            <ns3:hr>146</ns3:hr>
            <ns3:cad>42</ns3:cad>
          </ns3:TrackPointExtension>
        </extensions>
      </trkpt>
      <trkpt lat="45.34250023774802684783935546875" lon="-70.819611847400665283203125">
        <ele>796.5999755859375</ele>
        <time>2026-08-21T11:42:30.000Z</time>
        <extensions>
          <ns3:TrackPointExtension>
            <ns3:hr>146</ns3:hr>
            <ns3:cad>42</ns3:cad>
          </ns3:TrackPointExtension>
        </extensions>
      </trkpt>
      <trkpt lat="45.34248649142682552337646484375" lon="-70.819618217647075653076171875">
        <ele>796.5999755859375</ele>
        <time>2026-08-21T11:42:31.000Z</time>
        <extensions>
          <ns3:TrackPointExtension>
            <ns3:hr>146</ns3:hr>
            <ns3:cad>0</ns3:cad>
          </ns3:TrackPointExtension>
        </extensions>
      </trkpt>
      <trkpt lat="45.3424807079136371612548828125" lon="-70.81962249241769313812255859375">
        <ele>796.79998779296875</ele>
        <time>2026-08-21T11:42:32.000Z</time>
        <extensions>
          <ns3:TrackPointExtension>
            <ns3:hr>146</ns3:hr>
            <ns3:cad>0</ns3:cad>
          </ns3:TrackPointExtension>
        </extensions>
      </trkpt>
      <trkpt lat="45.3424790315330028533935546875" lon="-70.81962852738797664642333984375">
        <ele>797</ele>
        <time>2026-08-21T11:42:33.000Z</time>
        <extensions>
          <ns3:TrackPointExtension>
            <ns3:hr>146</ns3:hr>
            <ns3:cad>0</ns3:cad>
          </ns3:TrackPointExtension>
        </extensions>
      </trkpt>
      <trkpt lat="45.342469476163387298583984375" lon="-70.8196346461772918701171875">
        <ele>797.20001220703125</ele>
        <time>2026-08-21T11:42:34.000Z</time>
        <extensions>
          <ns3:TrackPointExtension>
            <ns3:hr>146</ns3:hr>
            <ns3:cad>0</ns3:cad>
          </ns3:TrackPointExtension>
        </extensions>
      </trkpt>
      <trkpt lat="45.34246603958308696746826171875" lon="-70.81963799893856048583984375">
        <ele>797.4000244140625</ele>
        <time>2026-08-21T11:42:35.000Z</time>
        <extensions>
          <ns3:TrackPointExtension>
            <ns3:hr>146</ns3:hr>
            <ns3:cad>0</ns3:cad>
          </ns3:TrackPointExtension>
        </extensions>
      </trkpt>
      <trkpt lat="45.3424612618982791900634765625" lon="-70.8196411840617656707763671875">
        <ele>797.5999755859375</ele>
        <time>2026-08-21T11:42:36.000Z</time>
        <extensions>
          <ns3:TrackPointExtension>
            <ns3:hr>146</ns3:hr>
            <ns3:cad>0</ns3:cad>
          </ns3:TrackPointExtension>
        </extensions>
      </trkpt>
      <trkpt lat="45.34246109426021575927734375" lon="-70.81964160315692424774169921875">
        <ele>797.79998779296875</ele>
        <time>2026-08-21T11:42:37.000Z</time>
        <extensions>
          <ns3:TrackPointExtension>
            <ns3:hr>146</ns3:hr>
            <ns3:cad>0</ns3:cad>
          </ns3:TrackPointExtension>
        </extensions>
      </trkpt>
      <trkpt lat="45.3424572385847568511962890625" lon="-70.81964998506009578704833984375">
        <ele>797.79998779296875</ele>
        <time>2026-08-21T11:42:38.000Z</time>
        <extensions>
          <ns3:TrackPointExtension>
            <ns3:hr>146</ns3:hr>
            <ns3:cad>0</ns3:cad>
          </ns3:TrackPointExtension>
        </extensions>
      </trkpt>
      <trkpt lat="45.3424562327563762664794921875" lon="-70.819657109677791595458984375">
        <ele>798</ele>
        <time>2026-08-21T11:42:39.000Z</time>
        <extensions>
          <ns3:TrackPointExtension>
            <ns3:hr>147</ns3:hr>
            <ns3:cad>0</ns3:cad>
          </ns3:TrackPointExtension>
        </extensions>
      </trkpt>
      <trkpt lat="45.34244709648191928863525390625" lon="-70.819665826857089996337890625">
        <ele>798</ele>
        <time>2026-08-21T11:42:40.000Z</time>
        <extensions>
          <ns3:TrackPointExtension>
            <ns3:hr>146</ns3:hr>
            <ns3:cad>0</ns3:cad>
          </ns3:TrackPointExtension>
        </extensions>
      </trkpt>
      <trkpt lat="45.34244625829160213470458984375" lon="-70.81967311911284923553466796875">
        <ele>798.20001220703125</ele>
        <time>2026-08-21T11:42:41.000Z</time>
        <extensions>
          <ns3:TrackPointExtension>
            <ns3:hr>146</ns3:hr>
            <ns3:cad>0</ns3:cad>
          </ns3:TrackPointExtension>
        </extensions>
      </trkpt>
      <trkpt lat="45.342446006834506988525390625" lon="-70.81967596895992755889892578125">
        <ele>798.4000244140625</ele>
        <time>2026-08-21T11:42:42.000Z</time>
        <extensions>
          <ns3:TrackPointExtension>
            <ns3:hr>146</ns3:hr>
            <ns3:cad>0</ns3:cad>
          </ns3:TrackPointExtension>
        </extensions>
      </trkpt>
      <trkpt lat="45.34243762493133544921875" lon="-70.8196802437305450439453125">
        <ele>798.5999755859375</ele>
        <time>2026-08-21T11:42:43.000Z</time>
        <extensions>
          <ns3:TrackPointExtension>
            <ns3:hr>146</ns3:hr>
            <ns3:cad>0</ns3:cad>
          </ns3:TrackPointExtension>
        </extensions>
      </trkpt>
      <trkpt lat="45.34242798574268817901611328125" lon="-70.81968359649181365966796875">
        <ele>798.79998779296875</ele>
        <time>2026-08-21T11:42:44.000Z</time>
        <extensions>
          <ns3:TrackPointExtension>
            <ns3:hr>146</ns3:hr>
            <ns3:cad>0</ns3:cad>
          </ns3:TrackPointExtension>
        </extensions>
      </trkpt>
      <trkpt lat="45.34242630936205387115478515625" lon="-70.81968334503471851348876953125">
        <ele>799.20001220703125</ele>
        <time>2026-08-21T11:42:45.000Z</time>
        <extensions>
          <ns3:TrackPointExtension>
            <ns3:hr>145</ns3:hr>
            <ns3:cad>0</ns3:cad>
          </ns3:TrackPointExtension>
        </extensions>
      </trkpt>
      <trkpt lat="45.3424243815243244171142578125" lon="-70.81968451850116252899169921875">
        <ele>799.4000244140625</ele>
        <time>2026-08-21T11:42:46.000Z</time>
        <extensions>
          <ns3:TrackPointExtension>
            <ns3:hr>144</ns3:hr>
            <ns3:cad>0</ns3:cad>
          </ns3:TrackPointExtension>
        </extensions>
      </trkpt>
      <trkpt lat="45.3424180112779140472412109375" lon="-70.81968535669147968292236328125">
        <ele>799.5999755859375</ele>
        <time>2026-08-21T11:42:47.000Z</time>
        <extensions>
          <ns3:TrackPointExtension>
            <ns3:hr>144</ns3:hr>
            <ns3:cad>0</ns3:cad>
          </ns3:TrackPointExtension>
        </extensions>
      </trkpt>
      <trkpt lat="45.34241683781147003173828125" lon="-70.81968552432954311370849609375">
        <ele>799.79998779296875</ele>
        <time>2026-08-21T11:42:48.000Z</time>
        <extensions>
          <ns3:TrackPointExtension>
            <ns3:hr>143</ns3:hr>
            <ns3:cad>0</ns3:cad>
          </ns3:TrackPointExtension>
        </extensions>
      </trkpt>
      <trkpt lat="45.34240837208926677703857421875" lon="-70.81968787126243114471435546875">
        <ele>800</ele>
        <time>2026-08-21T11:42:49.000Z</time>
        <extensions>
          <ns3:TrackPointExtension>
            <ns3:hr>143</ns3:hr>
            <ns3:cad>0</ns3:cad>
          </ns3:TrackPointExtension>
        </extensions>
      </trkpt>
      <trkpt lat="45.34240099601447582244873046875" lon="-70.8196874521672725677490234375">
        <ele>800.20001220703125</ele>
        <time>2026-08-21T11:42:50.000Z</time>
        <extensions>
          <ns3:TrackPointExtension>
            <ns3:hr>143</ns3:hr>
            <ns3:cad>0</ns3:cad>
          </ns3:TrackPointExtension>
        </extensions>
      </trkpt>
      <trkpt lat="45.3423982299864292144775390625" lon="-70.8196857757866382598876953125">
        <ele>800.4000244140625</ele>
        <time>2026-08-21T11:42:51.000Z</time>
        <extensions>
          <ns3:TrackPointExtension>
            <ns3:hr>143</ns3:hr>
            <ns3:cad>0</ns3:cad>
          </ns3:TrackPointExtension>
        </extensions>
      </trkpt>
      <trkpt lat="45.34239672124385833740234375" lon="-70.81967948935925960540771484375">
        <ele>800.79998779296875</ele>
        <time>2026-08-21T11:42:52.000Z</time>
        <extensions>
          <ns3:TrackPointExtension>
            <ns3:hr>144</ns3:hr>
            <ns3:cad>0</ns3:cad>
          </ns3:TrackPointExtension>
        </extensions>
      </trkpt>
      <trkpt lat="45.3423893451690673828125" lon="-70.819671191275119781494140625">
        <ele>800.79998779296875</ele>
        <time>2026-08-21T11:42:53.000Z</time>
        <extensions>
          <ns3:TrackPointExtension>
            <ns3:hr>144</ns3:hr>
            <ns3:cad>0</ns3:cad>
          </ns3:TrackPointExtension>
        </extensions>
      </trkpt>
      <trkpt lat="45.34238222055137157440185546875" lon="-70.81966641359031200408935546875">
        <ele>801</ele>
        <time>2026-08-21T11:42:54.000Z</time>
        <extensions>
          <ns3:TrackPointExtension>
            <ns3:hr>144</ns3:hr>
            <ns3:cad>0</ns3:cad>
          </ns3:TrackPointExtension>
        </extensions>
      </trkpt>
      <trkpt lat="45.34237702377140522003173828125" lon="-70.81966356374323368072509765625">
        <ele>801</ele>
        <time>2026-08-21T11:42:55.000Z</time>
        <extensions>
          <ns3:TrackPointExtension>
            <ns3:hr>144</ns3:hr>
            <ns3:cad>0</ns3:cad>
          </ns3:TrackPointExtension>
        </extensions>
      </trkpt>
      <trkpt lat="45.34237124025821685791015625" lon="-70.81965945661067962646484375">
        <ele>801.20001220703125</ele>
        <time>2026-08-21T11:42:56.000Z</time>
        <extensions>
          <ns3:TrackPointExtension>
            <ns3:hr>144</ns3:hr>
            <ns3:cad>0</ns3:cad>
          </ns3:TrackPointExtension>
        </extensions>
      </trkpt>
      <trkpt lat="45.34236914478242397308349609375" lon="-70.81965409219264984130859375">
        <ele>801.4000244140625</ele>
        <time>2026-08-21T11:42:57.000Z</time>
        <extensions>
          <ns3:TrackPointExtension>
            <ns3:hr>144</ns3:hr>
            <ns3:cad>0</ns3:cad>
          </ns3:TrackPointExtension>
        </extensions>
      </trkpt>
      <trkpt lat="45.3423700667917728424072265625" lon="-70.8196472190320491790771484375">
        <ele>801.5999755859375</ele>
        <time>2026-08-21T11:42:58.000Z</time>
        <extensions>
          <ns3:TrackPointExtension>
            <ns3:hr>144</ns3:hr>
            <ns3:cad>0</ns3:cad>
          </ns3:TrackPointExtension>
        </extensions>
      </trkpt>
      <trkpt lat="45.34237115643918514251708984375" lon="-70.81964470446109771728515625">
        <ele>801.79998779296875</ele>
        <time>2026-08-21T11:42:59.000Z</time>
        <extensions>
          <ns3:TrackPointExtension>
            <ns3:hr>144</ns3:hr>
            <ns3:cad>40</ns3:cad>
          </ns3:TrackPointExtension>
        </extensions>
      </trkpt>
      <trkpt lat="45.34237383864820003509521484375" lon="-70.81964059732854366302490234375">
        <ele>801.79998779296875</ele>
        <time>2026-08-21T11:43:00.000Z</time>
        <extensions>
          <ns3:TrackPointExtension>
            <ns3:hr>144</ns3:hr>
            <ns3:cad>41</ns3:cad>
          </ns3:TrackPointExtension>
        </extensions>
      </trkpt>
      <trkpt lat="45.34237551502883434295654296875" lon="-70.81963204778730869293212890625">
        <ele>801.79998779296875</ele>
        <time>2026-08-21T11:43:01.000Z</time>
        <extensions>
          <ns3:TrackPointExtension>
            <ns3:hr>144</ns3:hr>
            <ns3:cad>41</ns3:cad>
          </ns3:TrackPointExtension>
        </extensions>
      </trkpt>
      <trkpt lat="45.34238004125654697418212890625" lon="-70.819624252617359161376953125">
        <ele>801.79998779296875</ele>
        <time>2026-08-21T11:43:02.000Z</time>
        <extensions>
          <ns3:TrackPointExtension>
            <ns3:hr>144</ns3:hr>
            <ns3:cad>42</ns3:cad>
          </ns3:TrackPointExtension>
        </extensions>
      </trkpt>
      <trkpt lat="45.34238188527524471282958984375" lon="-70.8196120150387287139892578125">
        <ele>801.79998779296875</ele>
        <time>2026-08-21T11:43:03.000Z</time>
        <extensions>
          <ns3:TrackPointExtension>
            <ns3:hr>144</ns3:hr>
            <ns3:cad>42</ns3:cad>
          </ns3:TrackPointExtension>
        </extensions>
      </trkpt>
      <trkpt lat="45.34238054417073726654052734375" lon="-70.819594748318195343017578125">
        <ele>801.79998779296875</ele>
        <time>2026-08-21T11:43:04.000Z</time>
        <extensions>
          <ns3:TrackPointExtension>
            <ns3:hr>144</ns3:hr>
            <ns3:cad>42</ns3:cad>
          </ns3:TrackPointExtension>
        </extensions>
      </trkpt>
      <trkpt lat="45.342377610504627227783203125" lon="-70.81957756541669368743896484375">
        <ele>801.79998779296875</ele>
        <time>2026-08-21T11:43:05.000Z</time>
        <extensions>
          <ns3:TrackPointExtension>
            <ns3:hr>144</ns3:hr>
            <ns3:cad>42</ns3:cad>
          </ns3:TrackPointExtension>
        </extensions>
      </trkpt>
      <trkpt lat="45.34237325191497802734375" lon="-70.81955912522971630096435546875">
        <ele>801.79998779296875</ele>
        <time>2026-08-21T11:43:06.000Z</time>
        <extensions>
          <ns3:TrackPointExtension>
            <ns3:hr>144</ns3:hr>
            <ns3:cad>42</ns3:cad>
          </ns3:TrackPointExtension>
        </extensions>
      </trkpt>
      <trkpt lat="45.34236587584018707275390625" lon="-70.8195402659475803375244140625">
        <ele>801.79998779296875</ele>
        <time>2026-08-21T11:43:07.000Z</time>
        <extensions>
          <ns3:TrackPointExtension>
            <ns3:hr>145</ns3:hr>
            <ns3:cad>48</ns3:cad>
          </ns3:TrackPointExtension>
        </extensions>
      </trkpt>
      <trkpt lat="45.34235707484185695648193359375" lon="-70.81952760927379131317138671875">
        <ele>802</ele>
        <time>2026-08-21T11:43:08.000Z</time>
        <extensions>
          <ns3:TrackPointExtension>
            <ns3:hr>145</ns3:hr>
            <ns3:cad>48</ns3:cad>
          </ns3:TrackPointExtension>
        </extensions>
      </trkpt>
      <trkpt lat="45.34234986640512943267822265625" lon="-70.8195154555141925811767578125">
        <ele>802.20001220703125</ele>
        <time>2026-08-21T11:43:09.000Z</time>
        <extensions>
          <ns3:TrackPointExtension>
            <ns3:hr>146</ns3:hr>
            <ns3:cad>50</ns3:cad>
          </ns3:TrackPointExtension>
        </extensions>
      </trkpt>
      <trkpt lat="45.342344082891941070556640625" lon="-70.8195057325065135955810546875">
        <ele>802.4000244140625</ele>
        <time>2026-08-21T11:43:10.000Z</time>
        <extensions>
          <ns3:TrackPointExtension>
            <ns3:hr>146</ns3:hr>
            <ns3:cad>50</ns3:cad>
          </ns3:TrackPointExtension>
        </extensions>
      </trkpt>
      <trkpt lat="45.342338718473911285400390625" lon="-70.81949877552688121795654296875">
        <ele>802.79998779296875</ele>
        <time>2026-08-21T11:43:11.000Z</time>
        <extensions>
          <ns3:TrackPointExtension>
            <ns3:hr>146</ns3:hr>
            <ns3:cad>48</ns3:cad>
          </ns3:TrackPointExtension>
        </extensions>
      </trkpt>
      <trkpt lat="45.34233259968459606170654296875" lon="-70.8194939978420734405517578125">
        <ele>803</ele>
        <time>2026-08-21T11:43:12.000Z</time>
        <extensions>
          <ns3:TrackPointExtension>
            <ns3:hr>146</ns3:hr>
            <ns3:cad>48</ns3:cad>
          </ns3:TrackPointExtension>
        </extensions>
      </trkpt>
      <trkpt lat="45.3423278219997882843017578125" lon="-70.81949139945209026336669921875">
        <ele>803.20001220703125</ele>
        <time>2026-08-21T11:43:13.000Z</time>
        <extensions>
          <ns3:TrackPointExtension>
            <ns3:hr>146</ns3:hr>
            <ns3:cad>48</ns3:cad>
          </ns3:TrackPointExtension>
        </extensions>
      </trkpt>
      <trkpt lat="45.342319943010807037353515625" lon="-70.8194866217672824859619140625">
        <ele>803.4000244140625</ele>
        <time>2026-08-21T11:43:14.000Z</time>
        <extensions>
          <ns3:TrackPointExtension>
            <ns3:hr>145</ns3:hr>
            <ns3:cad>42</ns3:cad>
          </ns3:TrackPointExtension>
        </extensions>
      </trkpt>
      <trkpt lat="45.34231357276439666748046875" lon="-70.8194849453866481781005859375">
        <ele>803.5999755859375</ele>
        <time>2026-08-21T11:43:15.000Z</time>
        <extensions>
          <ns3:TrackPointExtension>
            <ns3:hr>146</ns3:hr>
            <ns3:cad>42</ns3:cad>
          </ns3:TrackPointExtension>
        </extensions>
      </trkpt>
      <trkpt lat="45.34230150282382965087890625" lon="-70.819482766091823577880859375">
        <ele>804</ele>
        <time>2026-08-21T11:43:16.000Z</time>
        <extensions>
          <ns3:TrackPointExtension>
            <ns3:hr>145</ns3:hr>
            <ns3:cad>42</ns3:cad>
          </ns3:TrackPointExtension>
        </extensions>
      </trkpt>
      <trkpt lat="45.3422906063497066497802734375" lon="-70.81948519684374332427978515625">
        <ele>804.20001220703125</ele>
        <time>2026-08-21T11:43:17.000Z</time>
        <extensions>
          <ns3:TrackPointExtension>
            <ns3:hr>145</ns3:hr>
            <ns3:cad>42</ns3:cad>
          </ns3:TrackPointExtension>
        </extensions>
      </trkpt>
      <trkpt lat="45.34228348173201084136962890625" lon="-70.81948720850050449371337890625">
        <ele>804.4000244140625</ele>
        <time>2026-08-21T11:43:18.000Z</time>
        <extensions>
          <ns3:TrackPointExtension>
            <ns3:hr>145</ns3:hr>
            <ns3:cad>42</ns3:cad>
          </ns3:TrackPointExtension>
        </extensions>
      </trkpt>
      <trkpt lat="45.34227074123919010162353515625" lon="-70.81949290819466114044189453125">
        <ele>804.79998779296875</ele>
        <time>2026-08-21T11:43:19.000Z</time>
        <extensions>
          <ns3:TrackPointExtension>
            <ns3:hr>144</ns3:hr>
            <ns3:cad>0</ns3:cad>
          </ns3:TrackPointExtension>
        </extensions>
      </trkpt>
      <trkpt lat="45.342262275516986846923828125" lon="-70.81949626095592975616455078125">
        <ele>805</ele>
        <time>2026-08-21T11:43:20.000Z</time>
        <extensions>
          <ns3:TrackPointExtension>
            <ns3:hr>144</ns3:hr>
            <ns3:cad>0</ns3:cad>
          </ns3:TrackPointExtension>
        </extensions>
      </trkpt>
      <trkpt lat="45.342253558337688446044921875" lon="-70.81949894316494464874267578125">
        <ele>805.20001220703125</ele>
        <time>2026-08-21T11:43:21.000Z</time>
        <extensions>
          <ns3:TrackPointExtension>
            <ns3:hr>144</ns3:hr>
            <ns3:cad>0</ns3:cad>
          </ns3:TrackPointExtension>
        </extensions>
      </trkpt>
      <trkpt lat="45.34224760718643665313720703125" lon="-70.819499194622039794921875">
        <ele>805.5999755859375</ele>
        <time>2026-08-21T11:43:22.000Z</time>
        <extensions>
          <ns3:TrackPointExtension>
            <ns3:hr>144</ns3:hr>
            <ns3:cad>0</ns3:cad>
          </ns3:TrackPointExtension>
        </extensions>
      </trkpt>
      <trkpt lat="45.34224358387291431427001953125" lon="-70.81949927844107151031494140625">
        <ele>805.79998779296875</ele>
        <time>2026-08-21T11:43:23.000Z</time>
        <extensions>
          <ns3:TrackPointExtension>
            <ns3:hr>144</ns3:hr>
            <ns3:cad>0</ns3:cad>
          </ns3:TrackPointExtension>
        </extensions>
      </trkpt>
      <trkpt lat="45.34224106930196285247802734375" lon="-70.81949743442237377166748046875">
        <ele>806.20001220703125</ele>
        <time>2026-08-21T11:43:24.000Z</time>
        <extensions>
          <ns3:TrackPointExtension>
            <ns3:hr>143</ns3:hr>
            <ns3:cad>0</ns3:cad>
          </ns3:TrackPointExtension>
        </extensions>
      </trkpt>
      <trkpt lat="45.34224140457808971405029296875" lon="-70.81949257291853427886962890625">
        <ele>806.5999755859375</ele>
        <time>2026-08-21T11:43:25.000Z</time>
        <extensions>
          <ns3:TrackPointExtension>
            <ns3:hr>143</ns3:hr>
            <ns3:cad>0</ns3:cad>
          </ns3:TrackPointExtension>
        </extensions>
      </trkpt>
      <trkpt lat="45.3422399796545505523681640625" lon="-70.81948637031018733978271484375">
        <ele>806.79998779296875</ele>
        <time>2026-08-21T11:43:26.000Z</time>
        <extensions>
          <ns3:TrackPointExtension>
            <ns3:hr>143</ns3:hr>
            <ns3:cad>0</ns3:cad>
          </ns3:TrackPointExtension>
        </extensions>
      </trkpt>
      <trkpt lat="45.34223042428493499755859375" lon="-70.81947949714958667755126953125">
        <ele>807.20001220703125</ele>
        <time>2026-08-21T11:43:27.000Z</time>
        <extensions>
          <ns3:TrackPointExtension>
            <ns3:hr>143</ns3:hr>
            <ns3:cad>0</ns3:cad>
          </ns3:TrackPointExtension>
        </extensions>
      </trkpt>
      <trkpt lat="45.3422205336391925811767578125" lon="-70.81947346217930316925048828125">
        <ele>807.4000244140625</ele>
        <time>2026-08-21T11:43:28.000Z</time>
        <extensions>
          <ns3:TrackPointExtension>
            <ns3:hr>144</ns3:hr>
            <ns3:cad>0</ns3:cad>
          </ns3:TrackPointExtension>
        </extensions>
      </trkpt>
      <trkpt lat="45.3422121517360210418701171875" lon="-70.81947295926511287689208984375">
        <ele>807.5999755859375</ele>
        <time>2026-08-21T11:43:29.000Z</time>
        <extensions>
          <ns3:TrackPointExtension>
            <ns3:hr>144</ns3:hr>
            <ns3:cad>41</ns3:cad>
          </ns3:TrackPointExtension>
        </extensions>
      </trkpt>
      <trkpt lat="45.3422054462134838104248046875" lon="-70.81947312690317630767822265625">
        <ele>808</ele>
        <time>2026-08-21T11:43:30.000Z</time>
        <extensions>
          <ns3:TrackPointExtension>
            <ns3:hr>145</ns3:hr>
            <ns3:cad>41</ns3:cad>
          </ns3:TrackPointExtension>
        </extensions>
      </trkpt>
      <trkpt lat="45.34219530411064624786376953125" lon="-70.81946876831352710723876953125">
        <ele>808.20001220703125</ele>
        <time>2026-08-21T11:43:31.000Z</time>
        <extensions>
          <ns3:TrackPointExtension>
            <ns3:hr>146</ns3:hr>
            <ns3:cad>41</ns3:cad>
          </ns3:TrackPointExtension>
        </extensions>
      </trkpt>
      <trkpt lat="45.34219195134937763214111328125" lon="-70.81946742720901966094970703125">
        <ele>808.4000244140625</ele>
        <time>2026-08-21T11:43:32.000Z</time>
        <extensions>
          <ns3:TrackPointExtension>
            <ns3:hr>147</ns3:hr>
            <ns3:cad>41</ns3:cad>
          </ns3:TrackPointExtension>
        </extensions>
      </trkpt>
      <trkpt lat="45.342188179492950439453125" lon="-70.81946323625743389129638671875">
        <ele>808.5999755859375</ele>
        <time>2026-08-21T11:43:33.000Z</time>
        <extensions>
          <ns3:TrackPointExtension>
            <ns3:hr>147</ns3:hr>
            <ns3:cad>41</ns3:cad>
          </ns3:TrackPointExtension>
        </extensions>
      </trkpt>
      <trkpt lat="45.34217954613268375396728515625" lon="-70.8194603025913238525390625">
        <ele>809</ele>
        <time>2026-08-21T11:43:34.000Z</time>
        <extensions>
          <ns3:TrackPointExtension>
            <ns3:hr>148</ns3:hr>
            <ns3:cad>41</ns3:cad>
          </ns3:TrackPointExtension>
        </extensions>
      </trkpt>
      <trkpt lat="45.34217409789562225341796875" lon="-70.819457285106182098388671875">
        <ele>809.20001220703125</ele>
        <time>2026-08-21T11:43:35.000Z</time>
        <extensions>
          <ns3:TrackPointExtension>
            <ns3:hr>148</ns3:hr>
            <ns3:cad>0</ns3:cad>
          </ns3:TrackPointExtension>
        </extensions>
      </trkpt>
      <trkpt lat="45.34217141568660736083984375" lon="-70.81945426762104034423828125">
        <ele>809.4000244140625</ele>
        <time>2026-08-21T11:43:36.000Z</time>
        <extensions>
          <ns3:TrackPointExtension>
            <ns3:hr>148</ns3:hr>
            <ns3:cad>0</ns3:cad>
          </ns3:TrackPointExtension>
        </extensions>
      </trkpt>
      <trkpt lat="45.34216512925922870635986328125" lon="-70.81945024430751800537109375">
        <ele>809.5999755859375</ele>
        <time>2026-08-21T11:43:37.000Z</time>
        <extensions>
          <ns3:TrackPointExtension>
            <ns3:hr>148</ns3:hr>
            <ns3:cad>0</ns3:cad>
          </ns3:TrackPointExtension>
        </extensions>
      </trkpt>
      <trkpt lat="45.3421608544886112213134765625" lon="-70.819448567926883697509765625">
        <ele>809.79998779296875</ele>
        <time>2026-08-21T11:43:38.000Z</time>
        <extensions>
          <ns3:TrackPointExtension>
            <ns3:hr>148</ns3:hr>
            <ns3:cad>0</ns3:cad>
          </ns3:TrackPointExtension>
        </extensions>
      </trkpt>
      <trkpt lat="45.342156998813152313232421875" lon="-70.81944814883172512054443359375">
        <ele>810</ele>
        <time>2026-08-21T11:43:39.000Z</time>
        <extensions>
          <ns3:TrackPointExtension>
            <ns3:hr>148</ns3:hr>
            <ns3:cad>0</ns3:cad>
          </ns3:TrackPointExtension>
        </extensions>
      </trkpt>
      <trkpt lat="45.3421467728912830352783203125" lon="-70.8194453828036785125732421875">
        <ele>810.4000244140625</ele>
        <time>2026-08-21T11:43:40.000Z</time>
        <extensions>
          <ns3:TrackPointExtension>
            <ns3:hr>148</ns3:hr>
            <ns3:cad>0</ns3:cad>
          </ns3:TrackPointExtension>
        </extensions>
      </trkpt>
      <trkpt lat="45.3421434201300144195556640625" lon="-70.8194450475275516510009765625">
        <ele>810.5999755859375</ele>
        <time>2026-08-21T11:43:41.000Z</time>
        <extensions>
          <ns3:TrackPointExtension>
            <ns3:hr>148</ns3:hr>
            <ns3:cad>0</ns3:cad>
          </ns3:TrackPointExtension>
        </extensions>
      </trkpt>
      <trkpt lat="45.34213931299746036529541015625" lon="-70.81944295205175876617431640625">
        <ele>810.79998779296875</ele>
        <time>2026-08-21T11:43:42.000Z</time>
        <extensions>
          <ns3:TrackPointExtension>
            <ns3:hr>148</ns3:hr>
            <ns3:cad>0</ns3:cad>
          </ns3:TrackPointExtension>
        </extensions>
      </trkpt>
      <trkpt lat="45.34213579259812831878662109375" lon="-70.81944144330918788909912109375">
        <ele>811</ele>
        <time>2026-08-21T11:43:43.000Z</time>
        <extensions>
          <ns3:TrackPointExtension>
            <ns3:hr>149</ns3:hr>
            <ns3:cad>0</ns3:cad>
          </ns3:TrackPointExtension>
        </extensions>
      </trkpt>
      <trkpt lat="45.34213830716907978057861328125" lon="-70.81944228149950504302978515625">
        <ele>811.4000244140625</ele>
        <time>2026-08-21T11:43:44.000Z</time>
        <extensions>
          <ns3:TrackPointExtension>
            <ns3:hr>148</ns3:hr>
            <ns3:cad>0</ns3:cad>
          </ns3:TrackPointExtension>
        </extensions>
      </trkpt>
      <trkpt lat="45.34213922917842864990234375" lon="-70.8194383420050144195556640625">
        <ele>811.5999755859375</ele>
        <time>2026-08-21T11:43:45.000Z</time>
        <extensions>
          <ns3:TrackPointExtension>
            <ns3:hr>148</ns3:hr>
            <ns3:cad>0</ns3:cad>
          </ns3:TrackPointExtension>
        </extensions>
      </trkpt>
      <trkpt lat="45.34214031882584095001220703125" lon="-70.81943691708147525787353515625">
        <ele>811.79998779296875</ele>
        <time>2026-08-21T11:43:46.000Z</time>
        <extensions>
          <ns3:TrackPointExtension>
            <ns3:hr>148</ns3:hr>
            <ns3:cad>0</ns3:cad>
          </ns3:TrackPointExtension>
        </extensions>
      </trkpt>
      <trkpt lat="45.342141576111316680908203125" lon="-70.81942752934992313385009765625">
        <ele>812</ele>
        <time>2026-08-21T11:43:47.000Z</time>
        <extensions>
          <ns3:TrackPointExtension>
            <ns3:hr>148</ns3:hr>
            <ns3:cad>0</ns3:cad>
          </ns3:TrackPointExtension>
        </extensions>
      </trkpt>
      <trkpt lat="45.34214300103485584259033203125" lon="-70.81942300312221050262451171875">
        <ele>812.20001220703125</ele>
        <time>2026-08-21T11:43:48.000Z</time>
        <extensions>
          <ns3:TrackPointExtension>
            <ns3:hr>148</ns3:hr>
            <ns3:cad>0</ns3:cad>
          </ns3:TrackPointExtension>
        </extensions>
      </trkpt>
      <trkpt lat="45.342139564454555511474609375" lon="-70.8194120228290557861328125">
        <ele>812.4000244140625</ele>
        <time>2026-08-21T11:43:49.000Z</time>
        <extensions>
          <ns3:TrackPointExtension>
            <ns3:hr>149</ns3:hr>
            <ns3:cad>0</ns3:cad>
          </ns3:TrackPointExtension>
        </extensions>
      </trkpt>
      <trkpt lat="45.34214057028293609619140625" lon="-70.81939819268882274627685546875">
        <ele>812.4000244140625</ele>
        <time>2026-08-21T11:43:50.000Z</time>
        <extensions>
          <ns3:TrackPointExtension>
            <ns3:hr>148</ns3:hr>
            <ns3:cad>0</ns3:cad>
          </ns3:TrackPointExtension>
        </extensions>
      </trkpt>
      <trkpt lat="45.3421390615403652191162109375" lon="-70.81938394345343112945556640625">
        <ele>812.4000244140625</ele>
        <time>2026-08-21T11:43:51.000Z</time>
        <extensions>
          <ns3:TrackPointExtension>
            <ns3:hr>148</ns3:hr>
            <ns3:cad>0</ns3:cad>
          </ns3:TrackPointExtension>
        </extensions>
      </trkpt>
      <trkpt lat="45.3421360440552234649658203125" lon="-70.8193691074848175048828125">
        <ele>812.4000244140625</ele>
        <time>2026-08-21T11:43:52.000Z</time>
        <extensions>
          <ns3:TrackPointExtension>
            <ns3:hr>149</ns3:hr>
            <ns3:cad>77</ns3:cad>
          </ns3:TrackPointExtension>
        </extensions>
      </trkpt>
      <trkpt lat="45.34213143400847911834716796875" lon="-70.8193632401525974273681640625">
        <ele>812.5999755859375</ele>
        <time>2026-08-21T11:43:53.000Z</time>
        <extensions>
          <ns3:TrackPointExtension>
            <ns3:hr>149</ns3:hr>
            <ns3:cad>77</ns3:cad>
          </ns3:TrackPointExtension>
        </extensions>
      </trkpt>
      <trkpt lat="45.34212313592433929443359375" lon="-70.8193535171449184417724609375">
        <ele>812.79998779296875</ele>
        <time>2026-08-21T11:43:54.000Z</time>
        <extensions>
          <ns3:TrackPointExtension>
            <ns3:hr>150</ns3:hr>
            <ns3:cad>77</ns3:cad>
          </ns3:TrackPointExtension>
        </extensions>
      </trkpt>
      <trkpt lat="45.34211869351565837860107421875" lon="-70.8193476498126983642578125">
        <ele>813</ele>
        <time>2026-08-21T11:43:55.000Z</time>
        <extensions>
          <ns3:TrackPointExtension>
            <ns3:hr>150</ns3:hr>
            <ns3:cad>77</ns3:cad>
          </ns3:TrackPointExtension>
        </extensions>
      </trkpt>
      <trkpt lat="45.34211668185889720916748046875" lon="-70.81934320740401744842529296875">
        <ele>813.20001220703125</ele>
        <time>2026-08-21T11:43:56.000Z</time>
        <extensions>
          <ns3:TrackPointExtension>
            <ns3:hr>150</ns3:hr>
            <ns3:cad>77</ns3:cad>
          </ns3:TrackPointExtension>
        </extensions>
      </trkpt>
      <trkpt lat="45.3421108983457088470458984375" lon="-70.81933901645243167877197265625">
        <ele>813.4000244140625</ele>
        <time>2026-08-21T11:43:57.000Z</time>
        <extensions>
          <ns3:TrackPointExtension>
            <ns3:hr>150</ns3:hr>
            <ns3:cad>0</ns3:cad>
          </ns3:TrackPointExtension>
        </extensions>
      </trkpt>
      <trkpt lat="45.34210679121315479278564453125" lon="-70.81933449022471904754638671875">
        <ele>813.79998779296875</ele>
        <time>2026-08-21T11:43:58.000Z</time>
        <extensions>
          <ns3:TrackPointExtension>
            <ns3:hr>150</ns3:hr>
            <ns3:cad>0</ns3:cad>
          </ns3:TrackPointExtension>
        </extensions>
      </trkpt>
      <trkpt lat="45.34210561774671077728271484375" lon="-70.81933147273957729339599609375">
        <ele>814</ele>
        <time>2026-08-21T11:43:59.000Z</time>
        <extensions>
          <ns3:TrackPointExtension>
            <ns3:hr>150</ns3:hr>
            <ns3:cad>0</ns3:cad>
          </ns3:TrackPointExtension>
        </extensions>
      </trkpt>
      <trkpt lat="45.342099331319332122802734375" lon="-70.81932459957897663116455078125">
        <ele>814.20001220703125</ele>
        <time>2026-08-21T11:44:00.000Z</time>
        <extensions>
          <ns3:TrackPointExtension>
            <ns3:hr>150</ns3:hr>
            <ns3:cad>0</ns3:cad>
          </ns3:TrackPointExtension>
        </extensions>
      </trkpt>
      <trkpt lat="45.34208700992166996002197265625" lon="-70.819308757781982421875">
        <ele>814.4000244140625</ele>
        <time>2026-08-21T11:44:01.000Z</time>
        <extensions>
          <ns3:TrackPointExtension>
            <ns3:hr>150</ns3:hr>
            <ns3:cad>0</ns3:cad>
          </ns3:TrackPointExtension>
        </extensions>
      </trkpt>
      <trkpt lat="45.3420787118375301361083984375" lon="-70.8193022198975086212158203125">
        <ele>814.5999755859375</ele>
        <time>2026-08-21T11:44:02.000Z</time>
        <extensions>
          <ns3:TrackPointExtension>
            <ns3:hr>150</ns3:hr>
            <ns3:cad>0</ns3:cad>
          </ns3:TrackPointExtension>
        </extensions>
      </trkpt>
      <trkpt lat="45.342070162296295166015625" lon="-70.8192966878414154052734375">
        <ele>814.79998779296875</ele>
        <time>2026-08-21T11:44:03.000Z</time>
        <extensions>
          <ns3:TrackPointExtension>
            <ns3:hr>150</ns3:hr>
            <ns3:cad>0</ns3:cad>
          </ns3:TrackPointExtension>
        </extensions>
      </trkpt>
      <trkpt lat="45.34206169657409191131591796875" lon="-70.819292329251766204833984375">
        <ele>815</ele>
        <time>2026-08-21T11:44:04.000Z</time>
        <extensions>
          <ns3:TrackPointExtension>
            <ns3:hr>150</ns3:hr>
            <ns3:cad>0</ns3:cad>
          </ns3:TrackPointExtension>
        </extensions>
      </trkpt>
      <trkpt lat="45.34205465577542781829833984375" lon="-70.8192938379943370819091796875">
        <ele>815.20001220703125</ele>
        <time>2026-08-21T11:44:05.000Z</time>
        <extensions>
          <ns3:TrackPointExtension>
            <ns3:hr>150</ns3:hr>
            <ns3:cad>0</ns3:cad>
          </ns3:TrackPointExtension>
        </extensions>
      </trkpt>
      <trkpt lat="45.34205138683319091796875" lon="-70.81929878331720829010009765625">
        <ele>815.4000244140625</ele>
        <time>2026-08-21T11:44:06.000Z</time>
        <extensions>
          <ns3:TrackPointExtension>
            <ns3:hr>150</ns3:hr>
            <ns3:cad>0</ns3:cad>
          </ns3:TrackPointExtension>
        </extensions>
      </trkpt>
      <trkpt lat="45.34204694442451000213623046875" lon="-70.81930045969784259796142578125">
        <ele>815.4000244140625</ele>
        <time>2026-08-21T11:44:07.000Z</time>
        <extensions>
          <ns3:TrackPointExtension>
            <ns3:hr>149</ns3:hr>
            <ns3:cad>0</ns3:cad>
          </ns3:TrackPointExtension>
        </extensions>
      </trkpt>
      <trkpt lat="45.34204442985355854034423828125" lon="-70.81930163316428661346435546875">
        <ele>815.5999755859375</ele>
        <time>2026-08-21T11:44:08.000Z</time>
        <extensions>
          <ns3:TrackPointExtension>
            <ns3:hr>149</ns3:hr>
            <ns3:cad>0</ns3:cad>
          </ns3:TrackPointExtension>
        </extensions>
      </trkpt>
      <trkpt lat="45.34203998744487762451171875" lon="-70.81930414773523807525634765625">
        <ele>815.5999755859375</ele>
        <time>2026-08-21T11:44:09.000Z</time>
        <extensions>
          <ns3:TrackPointExtension>
            <ns3:hr>149</ns3:hr>
            <ns3:cad>0</ns3:cad>
          </ns3:TrackPointExtension>
        </extensions>
      </trkpt>
      <trkpt lat="45.34203487448394298553466796875" lon="-70.819314457476139068603515625">
        <ele>815.5999755859375</ele>
        <time>2026-08-21T11:44:10.000Z</time>
        <extensions>
          <ns3:TrackPointExtension>
            <ns3:hr>149</ns3:hr>
            <ns3:cad>0</ns3:cad>
          </ns3:TrackPointExtension>
        </extensions>
      </trkpt>
      <trkpt lat="45.34202992916107177734375" lon="-70.8193261921405792236328125">
        <ele>815.79998779296875</ele>
        <time>2026-08-21T11:44:11.000Z</time>
        <extensions>
          <ns3:TrackPointExtension>
            <ns3:hr>149</ns3:hr>
            <ns3:cad>0</ns3:cad>
          </ns3:TrackPointExtension>
        </extensions>
      </trkpt>
      <trkpt lat="45.34202649258077144622802734375" lon="-70.81933834590017795562744140625">
        <ele>815.79998779296875</ele>
        <time>2026-08-21T11:44:12.000Z</time>
        <extensions>
          <ns3:TrackPointExtension>
            <ns3:hr>149</ns3:hr>
            <ns3:cad>0</ns3:cad>
          </ns3:TrackPointExtension>
        </extensions>
      </trkpt>
      <trkpt lat="45.3420243971049785614013671875" lon="-70.81935158930718898773193359375">
        <ele>815.79998779296875</ele>
        <time>2026-08-21T11:44:13.000Z</time>
        <extensions>
          <ns3:TrackPointExtension>
            <ns3:hr>149</ns3:hr>
            <ns3:cad>0</ns3:cad>
          </ns3:TrackPointExtension>
        </extensions>
      </trkpt>
      <trkpt lat="45.34202112816274166107177734375" lon="-70.81936332397162914276123046875">
        <ele>815.5999755859375</ele>
        <time>2026-08-21T11:44:14.000Z</time>
        <extensions>
          <ns3:TrackPointExtension>
            <ns3:hr>150</ns3:hr>
            <ns3:cad>47</ns3:cad>
          </ns3:TrackPointExtension>
        </extensions>
      </trkpt>
      <trkpt lat="45.34201693721115589141845703125" lon="-70.81937857903540134429931640625">
        <ele>815.4000244140625</ele>
        <time>2026-08-21T11:44:15.000Z</time>
        <extensions>
          <ns3:TrackPointExtension>
            <ns3:hr>149</ns3:hr>
            <ns3:cad>47</ns3:cad>
          </ns3:TrackPointExtension>
        </extensions>
      </trkpt>
      <trkpt lat="45.342013500630855560302734375" lon="-70.81939316354691982269287109375">
        <ele>815.20001220703125</ele>
        <time>2026-08-21T11:44:16.000Z</time>
        <extensions>
          <ns3:TrackPointExtension>
            <ns3:hr>148</ns3:hr>
            <ns3:cad>49</ns3:cad>
          </ns3:TrackPointExtension>
        </extensions>
      </trkpt>
      <trkpt lat="45.34201274625957012176513671875" lon="-70.81940556876361370086669921875">
        <ele>814.79998779296875</ele>
        <time>2026-08-21T11:44:17.000Z</time>
        <extensions>
          <ns3:TrackPointExtension>
            <ns3:hr>148</ns3:hr>
            <ns3:cad>51</ns3:cad>
          </ns3:TrackPointExtension>
        </extensions>
      </trkpt>
      <trkpt lat="45.34200486727058887481689453125" lon="-70.81941965036094188690185546875">
        <ele>814.79998779296875</ele>
        <time>2026-08-21T11:44:18.000Z</time>
        <extensions>
          <ns3:TrackPointExtension>
            <ns3:hr>148</ns3:hr>
            <ns3:cad>51</ns3:cad>
          </ns3:TrackPointExtension>
        </extensions>
      </trkpt>
      <trkpt lat="45.3419955633580684661865234375" lon="-70.8194356597959995269775390625">
        <ele>814.5999755859375</ele>
        <time>2026-08-21T11:44:19.000Z</time>
        <extensions>
          <ns3:TrackPointExtension>
            <ns3:hr>147</ns3:hr>
            <ns3:cad>53</ns3:cad>
          </ns3:TrackPointExtension>
        </extensions>
      </trkpt>
      <trkpt lat="45.34199011512100696563720703125" lon="-70.8194468915462493896484375">
        <ele>814.5999755859375</ele>
        <time>2026-08-21T11:44:20.000Z</time>
        <extensions>
          <ns3:TrackPointExtension>
            <ns3:hr>147</ns3:hr>
            <ns3:cad>53</ns3:cad>
          </ns3:TrackPointExtension>
        </extensions>
      </trkpt>
      <trkpt lat="45.34198701381683349609375" lon="-70.81945602782070636749267578125">
        <ele>814.79998779296875</ele>
        <time>2026-08-21T11:44:21.000Z</time>
        <extensions>
          <ns3:TrackPointExtension>
            <ns3:hr>147</ns3:hr>
            <ns3:cad>53</ns3:cad>
          </ns3:TrackPointExtension>
        </extensions>
      </trkpt>
      <trkpt lat="45.341978631913661956787109375" lon="-70.8194732107222080230712890625">
        <ele>815</ele>
        <time>2026-08-21T11:44:22.000Z</time>
        <extensions>
          <ns3:TrackPointExtension>
            <ns3:hr>147</ns3:hr>
            <ns3:cad>51</ns3:cad>
          </ns3:TrackPointExtension>
        </extensions>
      </trkpt>
      <trkpt lat="45.3419747762382030487060546875" lon="-70.81948737613856792449951171875">
        <ele>815.20001220703125</ele>
        <time>2026-08-21T11:44:23.000Z</time>
        <extensions>
          <ns3:TrackPointExtension>
            <ns3:hr>147</ns3:hr>
            <ns3:cad>51</ns3:cad>
          </ns3:TrackPointExtension>
        </extensions>
      </trkpt>
      <trkpt lat="45.34197025001049041748046875" lon="-70.81949911080300807952880859375">
        <ele>815.20001220703125</ele>
        <time>2026-08-21T11:44:24.000Z</time>
        <extensions>
          <ns3:TrackPointExtension>
            <ns3:hr>146</ns3:hr>
            <ns3:cad>48</ns3:cad>
          </ns3:TrackPointExtension>
        </extensions>
      </trkpt>
      <trkpt lat="45.341962873935699462890625" lon="-70.8195084147155284881591796875">
        <ele>815.4000244140625</ele>
        <time>2026-08-21T11:44:25.000Z</time>
        <extensions>
          <ns3:TrackPointExtension>
            <ns3:hr>146</ns3:hr>
            <ns3:cad>48</ns3:cad>
          </ns3:TrackPointExtension>
        </extensions>
      </trkpt>
      <trkpt lat="45.3419523127377033233642578125" lon="-70.81951553933322429656982421875">
        <ele>815.4000244140625</ele>
        <time>2026-08-21T11:44:26.000Z</time>
        <extensions>
          <ns3:TrackPointExtension>
            <ns3:hr>146</ns3:hr>
            <ns3:cad>48</ns3:cad>
          </ns3:TrackPointExtension>
        </extensions>
      </trkpt>
      <trkpt lat="45.3419412486255168914794921875" lon="-70.819522328674793243408203125">
        <ele>815.4000244140625</ele>
        <time>2026-08-21T11:44:27.000Z</time>
        <extensions>
          <ns3:TrackPointExtension>
            <ns3:hr>146</ns3:hr>
            <ns3:cad>48</ns3:cad>
          </ns3:TrackPointExtension>
        </extensions>
      </trkpt>
      <trkpt lat="45.34193227998912334442138671875" lon="-70.81952442415058612823486328125">
        <ele>815.5999755859375</ele>
        <time>2026-08-21T11:44:28.000Z</time>
        <extensions>
          <ns3:TrackPointExtension>
            <ns3:hr>146</ns3:hr>
            <ns3:cad>48</ns3:cad>
          </ns3:TrackPointExtension>
        </extensions>
      </trkpt>
      <trkpt lat="45.34192943014204502105712890625" lon="-70.81952660344541072845458984375">
        <ele>815.79998779296875</ele>
        <time>2026-08-21T11:44:29.000Z</time>
        <extensions>
          <ns3:TrackPointExtension>
            <ns3:hr>145</ns3:hr>
            <ns3:cad>48</ns3:cad>
          </ns3:TrackPointExtension>
        </extensions>
      </trkpt>
      <trkpt lat="45.3419224731624126434326171875" lon="-70.8195275254547595977783203125">
        <ele>816</ele>
        <time>2026-08-21T11:44:30.000Z</time>
        <extensions>
          <ns3:TrackPointExtension>
            <ns3:hr>144</ns3:hr>
            <ns3:cad>48</ns3:cad>
          </ns3:TrackPointExtension>
        </extensions>
      </trkpt>
      <trkpt lat="45.34191794693470001220703125" lon="-70.81953029148280620574951171875">
        <ele>816.4000244140625</ele>
        <time>2026-08-21T11:44:31.000Z</time>
        <extensions>
          <ns3:TrackPointExtension>
            <ns3:hr>144</ns3:hr>
            <ns3:cad>0</ns3:cad>
          </ns3:TrackPointExtension>
        </extensions>
      </trkpt>
      <trkpt lat="45.34190981648862361907958984375" lon="-70.8195312134921550750732421875">
        <ele>816.79998779296875</ele>
        <time>2026-08-21T11:44:32.000Z</time>
        <extensions>
          <ns3:TrackPointExtension>
            <ns3:hr>144</ns3:hr>
            <ns3:cad>0</ns3:cad>
          </ns3:TrackPointExtension>
        </extensions>
      </trkpt>
      <trkpt lat="45.34190042875707149505615234375" lon="-70.81953448243439197540283203125">
        <ele>817.20001220703125</ele>
        <time>2026-08-21T11:44:33.000Z</time>
        <extensions>
          <ns3:TrackPointExtension>
            <ns3:hr>144</ns3:hr>
            <ns3:cad>0</ns3:cad>
          </ns3:TrackPointExtension>
        </extensions>
      </trkpt>
      <trkpt lat="45.34189045429229736328125" lon="-70.8195349015295505523681640625">
        <ele>817.4000244140625</ele>
        <time>2026-08-21T11:44:34.000Z</time>
        <extensions>
          <ns3:TrackPointExtension>
            <ns3:hr>144</ns3:hr>
            <ns3:cad>0</ns3:cad>
          </ns3:TrackPointExtension>
        </extensions>
      </trkpt>
      <trkpt lat="45.3418837487697601318359375" lon="-70.81953330896794795989990234375">
        <ele>817.79998779296875</ele>
        <time>2026-08-21T11:44:35.000Z</time>
        <extensions>
          <ns3:TrackPointExtension>
            <ns3:hr>143</ns3:hr>
            <ns3:cad>0</ns3:cad>
          </ns3:TrackPointExtension>
        </extensions>
      </trkpt>
      <trkpt lat="45.34187327139079570770263671875" lon="-70.81953397952020168304443359375">
        <ele>818</ele>
        <time>2026-08-21T11:44:36.000Z</time>
        <extensions>
          <ns3:TrackPointExtension>
            <ns3:hr>144</ns3:hr>
            <ns3:cad>47</ns3:cad>
          </ns3:TrackPointExtension>
        </extensions>
      </trkpt>
      <trkpt lat="45.3418614529073238372802734375" lon="-70.81953330896794795989990234375">
        <ele>818.20001220703125</ele>
        <time>2026-08-21T11:44:37.000Z</time>
        <extensions>
          <ns3:TrackPointExtension>
            <ns3:hr>144</ns3:hr>
            <ns3:cad>47</ns3:cad>
          </ns3:TrackPointExtension>
        </extensions>
      </trkpt>
      <trkpt lat="45.34184980206191539764404296875" lon="-70.81952911801636219024658203125">
        <ele>818.4000244140625</ele>
        <time>2026-08-21T11:44:38.000Z</time>
        <extensions>
          <ns3:TrackPointExtension>
            <ns3:hr>143</ns3:hr>
            <ns3:cad>47</ns3:cad>
          </ns3:TrackPointExtension>
        </extensions>
      </trkpt>
      <trkpt lat="45.341839492321014404296875" lon="-70.8195285312831401824951171875">
        <ele>818.79998779296875</ele>
        <time>2026-08-21T11:44:39.000Z</time>
        <extensions>
          <ns3:TrackPointExtension>
            <ns3:hr>143</ns3:hr>
            <ns3:cad>47</ns3:cad>
          </ns3:TrackPointExtension>
        </extensions>
      </trkpt>
      <trkpt lat="45.3418279252946376800537109375" lon="-70.8195288665592670440673828125">
        <ele>818.79998779296875</ele>
        <time>2026-08-21T11:44:40.000Z</time>
        <extensions>
          <ns3:TrackPointExtension>
            <ns3:hr>143</ns3:hr>
            <ns3:cad>47</ns3:cad>
          </ns3:TrackPointExtension>
        </extensions>
      </trkpt>
      <trkpt lat="45.3418188728392124176025390625" lon="-70.819531045854091644287109375">
        <ele>819</ele>
        <time>2026-08-21T11:44:41.000Z</time>
        <extensions>
          <ns3:TrackPointExtension>
            <ns3:hr>142</ns3:hr>
            <ns3:cad>48</ns3:cad>
          </ns3:TrackPointExtension>
        </extensions>
      </trkpt>
      <trkpt lat="45.34181258641183376312255859375" lon="-70.8195332251489162445068359375">
        <ele>819.20001220703125</ele>
        <time>2026-08-21T11:44:42.000Z</time>
        <extensions>
          <ns3:TrackPointExtension>
            <ns3:hr>142</ns3:hr>
            <ns3:cad>48</ns3:cad>
          </ns3:TrackPointExtension>
        </extensions>
      </trkpt>
      <trkpt lat="45.3418021090328693389892578125" lon="-70.81953942775726318359375">
        <ele>819.4000244140625</ele>
        <time>2026-08-21T11:44:43.000Z</time>
        <extensions>
          <ns3:TrackPointExtension>
            <ns3:hr>142</ns3:hr>
            <ns3:cad>48</ns3:cad>
          </ns3:TrackPointExtension>
        </extensions>
      </trkpt>
      <trkpt lat="45.34178945235908031463623046875" lon="-70.81954814493656158447265625">
        <ele>819.5999755859375</ele>
        <time>2026-08-21T11:44:44.000Z</time>
        <extensions>
          <ns3:TrackPointExtension>
            <ns3:hr>142</ns3:hr>
            <ns3:cad>48</ns3:cad>
          </ns3:TrackPointExtension>
        </extensions>
      </trkpt>
      <trkpt lat="45.34178526140749454498291015625" lon="-70.81954973749816417694091796875">
        <ele>819.79998779296875</ele>
        <time>2026-08-21T11:44:45.000Z</time>
        <extensions>
          <ns3:TrackPointExtension>
            <ns3:hr>142</ns3:hr>
            <ns3:cad>49</ns3:cad>
          </ns3:TrackPointExtension>
        </extensions>
      </trkpt>
      <trkpt lat="45.34177972935140132904052734375" lon="-70.81954772584140300750732421875">
        <ele>820</ele>
        <time>2026-08-21T11:44:46.000Z</time>
        <extensions>
          <ns3:TrackPointExtension>
            <ns3:hr>144</ns3:hr>
            <ns3:cad>49</ns3:cad>
          </ns3:TrackPointExtension>
        </extensions>
      </trkpt>
      <trkpt lat="45.34177042543888092041015625" lon="-70.81955476664006710052490234375">
        <ele>820.4000244140625</ele>
        <time>2026-08-21T11:44:47.000Z</time>
        <extensions>
          <ns3:TrackPointExtension>
            <ns3:hr>145</ns3:hr>
            <ns3:cad>49</ns3:cad>
          </ns3:TrackPointExtension>
        </extensions>
      </trkpt>
      <trkpt lat="45.3417615406215190887451171875" lon="-70.81956214271485805511474609375">
        <ele>820.5999755859375</ele>
        <time>2026-08-21T11:44:48.000Z</time>
        <extensions>
          <ns3:TrackPointExtension>
            <ns3:hr>146</ns3:hr>
            <ns3:cad>49</ns3:cad>
          </ns3:TrackPointExtension>
        </extensions>
      </trkpt>
      <trkpt lat="45.341753996908664703369140625" lon="-70.81956633366644382476806640625">
        <ele>820.79998779296875</ele>
        <time>2026-08-21T11:44:49.000Z</time>
        <extensions>
          <ns3:TrackPointExtension>
            <ns3:hr>147</ns3:hr>
            <ns3:cad>49</ns3:cad>
          </ns3:TrackPointExtension>
        </extensions>
      </trkpt>
      <trkpt lat="45.3417444415390491485595703125" lon="-70.81956901587545871734619140625">
        <ele>821.20001220703125</ele>
        <time>2026-08-21T11:44:50.000Z</time>
        <extensions>
          <ns3:TrackPointExtension>
            <ns3:hr>146</ns3:hr>
            <ns3:cad>0</ns3:cad>
          </ns3:TrackPointExtension>
        </extensions>
      </trkpt>
      <trkpt lat="45.34173647873103618621826171875" lon="-70.81957496702671051025390625">
        <ele>821.4000244140625</ele>
        <time>2026-08-21T11:44:51.000Z</time>
        <extensions>
          <ns3:TrackPointExtension>
            <ns3:hr>146</ns3:hr>
            <ns3:cad>0</ns3:cad>
          </ns3:TrackPointExtension>
        </extensions>
      </trkpt>
      <trkpt lat="45.34173312596976757049560546875" lon="-70.819580666720867156982421875">
        <ele>821.79998779296875</ele>
        <time>2026-08-21T11:44:52.000Z</time>
        <extensions>
          <ns3:TrackPointExtension>
            <ns3:hr>146</ns3:hr>
            <ns3:cad>0</ns3:cad>
          </ns3:TrackPointExtension>
        </extensions>
      </trkpt>
      <trkpt lat="45.3417256660759449005126953125" lon="-70.8195895515382289886474609375">
        <ele>822</ele>
        <time>2026-08-21T11:44:53.000Z</time>
        <extensions>
          <ns3:TrackPointExtension>
            <ns3:hr>146</ns3:hr>
            <ns3:cad>0</ns3:cad>
          </ns3:TrackPointExtension>
        </extensions>
      </trkpt>
      <trkpt lat="45.34172273240983486175537109375" lon="-70.81960053183138370513916015625">
        <ele>822.20001220703125</ele>
        <time>2026-08-21T11:44:54.000Z</time>
        <extensions>
          <ns3:TrackPointExtension>
            <ns3:hr>146</ns3:hr>
            <ns3:cad>0</ns3:cad>
          </ns3:TrackPointExtension>
        </extensions>
      </trkpt>
      <trkpt lat="45.34172038547694683074951171875" lon="-70.819610841572284698486328125">
        <ele>822.4000244140625</ele>
        <time>2026-08-21T11:44:55.000Z</time>
        <extensions>
          <ns3:TrackPointExtension>
            <ns3:hr>146</ns3:hr>
            <ns3:cad>0</ns3:cad>
          </ns3:TrackPointExtension>
        </extensions>
      </trkpt>
      <trkpt lat="45.34171736799180507659912109375" lon="-70.819617547094821929931640625">
        <ele>822.5999755859375</ele>
        <time>2026-08-21T11:44:56.000Z</time>
        <extensions>
          <ns3:TrackPointExtension>
            <ns3:hr>147</ns3:hr>
            <ns3:cad>0</ns3:cad>
          </ns3:TrackPointExtension>
        </extensions>
      </trkpt>
      <trkpt lat="45.341713763773441314697265625" lon="-70.8196227438747882843017578125">
        <ele>822.79998779296875</ele>
        <time>2026-08-21T11:44:57.000Z</time>
        <extensions>
          <ns3:TrackPointExtension>
            <ns3:hr>146</ns3:hr>
            <ns3:cad>41</ns3:cad>
          </ns3:TrackPointExtension>
        </extensions>
      </trkpt>
      <trkpt lat="45.34171267412602901458740234375" lon="-70.81962634809315204620361328125">
        <ele>823</ele>
        <time>2026-08-21T11:44:58.000Z</time>
        <extensions>
          <ns3:TrackPointExtension>
            <ns3:hr>146</ns3:hr>
            <ns3:cad>0</ns3:cad>
          </ns3:TrackPointExtension>
        </extensions>
      </trkpt>
      <trkpt lat="45.34171150065958499908447265625" lon="-70.8196294493973255157470703125">
        <ele>823</ele>
        <time>2026-08-21T11:44:59.000Z</time>
        <extensions>
          <ns3:TrackPointExtension>
            <ns3:hr>146</ns3:hr>
            <ns3:cad>0</ns3:cad>
          </ns3:TrackPointExtension>
        </extensions>
      </trkpt>
      <trkpt lat="45.3417065553367137908935546875" lon="-70.81963305361568927764892578125">
        <ele>823.20001220703125</ele>
        <time>2026-08-21T11:45:00.000Z</time>
        <extensions>
          <ns3:TrackPointExtension>
            <ns3:hr>147</ns3:hr>
            <ns3:cad>0</ns3:cad>
          </ns3:TrackPointExtension>
        </extensions>
      </trkpt>
      <trkpt lat="45.3417025320231914520263671875" lon="-70.81962819211184978485107421875">
        <ele>823.4000244140625</ele>
        <time>2026-08-21T11:45:01.000Z</time>
        <extensions>
          <ns3:TrackPointExtension>
            <ns3:hr>147</ns3:hr>
            <ns3:cad>0</ns3:cad>
          </ns3:TrackPointExtension>
        </extensions>
      </trkpt>
      <trkpt lat="45.3417005203664302825927734375" lon="-70.81962861120700836181640625">
        <ele>823.79998779296875</ele>
        <time>2026-08-21T11:45:02.000Z</time>
        <extensions>
          <ns3:TrackPointExtension>
            <ns3:hr>148</ns3:hr>
            <ns3:cad>0</ns3:cad>
          </ns3:TrackPointExtension>
        </extensions>
      </trkpt>
      <trkpt lat="45.3416981734335422515869140625" lon="-70.81962995231151580810546875">
        <ele>824</ele>
        <time>2026-08-21T11:45:03.000Z</time>
        <extensions>
          <ns3:TrackPointExtension>
            <ns3:hr>148</ns3:hr>
            <ns3:cad>0</ns3:cad>
          </ns3:TrackPointExtension>
        </extensions>
      </trkpt>
      <trkpt lat="45.3416961617767810821533203125" lon="-70.81963389180600643157958984375">
        <ele>824.20001220703125</ele>
        <time>2026-08-21T11:45:04.000Z</time>
        <extensions>
          <ns3:TrackPointExtension>
            <ns3:hr>148</ns3:hr>
            <ns3:cad>0</ns3:cad>
          </ns3:TrackPointExtension>
        </extensions>
      </trkpt>
      <trkpt lat="45.34169733524322509765625" lon="-70.819636322557926177978515625">
        <ele>824.20001220703125</ele>
        <time>2026-08-21T11:45:05.000Z</time>
        <extensions>
          <ns3:TrackPointExtension>
            <ns3:hr>148</ns3:hr>
            <ns3:cad>0</ns3:cad>
          </ns3:TrackPointExtension>
        </extensions>
      </trkpt>
      <trkpt lat="45.341695658862590789794921875" lon="-70.81963808275759220123291015625">
        <ele>824.4000244140625</ele>
        <time>2026-08-21T11:45:06.000Z</time>
        <extensions>
          <ns3:TrackPointExtension>
            <ns3:hr>148</ns3:hr>
            <ns3:cad>0</ns3:cad>
          </ns3:TrackPointExtension>
        </extensions>
      </trkpt>
      <trkpt lat="45.3416961617767810821533203125" lon="-70.819643698632717132568359375">
        <ele>824.5999755859375</ele>
        <time>2026-08-21T11:45:07.000Z</time>
        <extensions>
          <ns3:TrackPointExtension>
            <ns3:hr>148</ns3:hr>
            <ns3:cad>0</ns3:cad>
          </ns3:TrackPointExtension>
        </extensions>
      </trkpt>
      <trkpt lat="45.34169373102486133575439453125" lon="-70.819647051393985748291015625">
        <ele>824.79998779296875</ele>
        <time>2026-08-21T11:45:08.000Z</time>
        <extensions>
          <ns3:TrackPointExtension>
            <ns3:hr>148</ns3:hr>
            <ns3:cad>0</ns3:cad>
          </ns3:TrackPointExtension>
        </extensions>
      </trkpt>
      <trkpt lat="45.34168819896876811981201171875" lon="-70.81964897923171520233154296875">
        <ele>825</ele>
        <time>2026-08-21T11:45:09.000Z</time>
        <extensions>
          <ns3:TrackPointExtension>
            <ns3:hr>147</ns3:hr>
            <ns3:cad>0</ns3:cad>
          </ns3:TrackPointExtension>
        </extensions>
      </trkpt>
      <trkpt lat="45.3416850976645946502685546875" lon="-70.8196478895843029022216796875">
        <ele>825.20001220703125</ele>
        <time>2026-08-21T11:45:10.000Z</time>
        <extensions>
          <ns3:TrackPointExtension>
            <ns3:hr>147</ns3:hr>
            <ns3:cad>0</ns3:cad>
          </ns3:TrackPointExtension>
        </extensions>
      </trkpt>
      <trkpt lat="45.34168057143688201904296875" lon="-70.8196505717933177947998046875">
        <ele>825.4000244140625</ele>
        <time>2026-08-21T11:45:11.000Z</time>
        <extensions>
          <ns3:TrackPointExtension>
            <ns3:hr>147</ns3:hr>
            <ns3:cad>0</ns3:cad>
          </ns3:TrackPointExtension>
        </extensions>
      </trkpt>
      <trkpt lat="45.34167109988629817962646484375" lon="-70.81965568475425243377685546875">
        <ele>825.79998779296875</ele>
        <time>2026-08-21T11:45:12.000Z</time>
        <extensions>
          <ns3:TrackPointExtension>
            <ns3:hr>148</ns3:hr>
            <ns3:cad>0</ns3:cad>
          </ns3:TrackPointExtension>
        </extensions>
      </trkpt>
      <trkpt lat="45.3416733630001544952392578125" lon="-70.8196663297712802886962890625">
        <ele>826</ele>
        <time>2026-08-21T11:45:13.000Z</time>
        <extensions>
          <ns3:TrackPointExtension>
            <ns3:hr>147</ns3:hr>
            <ns3:cad>0</ns3:cad>
          </ns3:TrackPointExtension>
        </extensions>
      </trkpt>
      <trkpt lat="45.34167026169598102569580078125" lon="-70.8196716941893100738525390625">
        <ele>826.20001220703125</ele>
        <time>2026-08-21T11:45:14.000Z</time>
        <extensions>
          <ns3:TrackPointExtension>
            <ns3:hr>147</ns3:hr>
            <ns3:cad>0</ns3:cad>
          </ns3:TrackPointExtension>
        </extensions>
      </trkpt>
      <trkpt lat="45.34166774712502956390380859375" lon="-70.81967781297862529754638671875">
        <ele>826.4000244140625</ele>
        <time>2026-08-21T11:45:15.000Z</time>
        <extensions>
          <ns3:TrackPointExtension>
            <ns3:hr>147</ns3:hr>
            <ns3:cad>0</ns3:cad>
          </ns3:TrackPointExtension>
        </extensions>
      </trkpt>
      <trkpt lat="45.3416626341640949249267578125" lon="-70.8196844346821308135986328125">
        <ele>826.5999755859375</ele>
        <time>2026-08-21T11:45:16.000Z</time>
        <extensions>
          <ns3:TrackPointExtension>
            <ns3:hr>146</ns3:hr>
            <ns3:cad>0</ns3:cad>
          </ns3:TrackPointExtension>
        </extensions>
      </trkpt>
      <trkpt lat="45.3416597843170166015625" lon="-70.8196911402046680450439453125">
        <ele>827</ele>
        <time>2026-08-21T11:45:17.000Z</time>
        <extensions>
          <ns3:TrackPointExtension>
            <ns3:hr>146</ns3:hr>
            <ns3:cad>0</ns3:cad>
          </ns3:TrackPointExtension>
        </extensions>
      </trkpt>
      <trkpt lat="45.34165618009865283966064453125" lon="-70.81969675607979297637939453125">
        <ele>827.20001220703125</ele>
        <time>2026-08-21T11:45:18.000Z</time>
        <extensions>
          <ns3:TrackPointExtension>
            <ns3:hr>146</ns3:hr>
            <ns3:cad>0</ns3:cad>
          </ns3:TrackPointExtension>
        </extensions>
      </trkpt>
      <trkpt lat="45.3416549228131771087646484375" lon="-70.81970061175525188446044921875">
        <ele>827.4000244140625</ele>
        <time>2026-08-21T11:45:19.000Z</time>
        <extensions>
          <ns3:TrackPointExtension>
            <ns3:hr>146</ns3:hr>
            <ns3:cad>69</ns3:cad>
          </ns3:TrackPointExtension>
        </extensions>
      </trkpt>
      <trkpt lat="45.34164980985224246978759765625" lon="-70.81970530562102794647216796875">
        <ele>827.5999755859375</ele>
        <time>2026-08-21T11:45:20.000Z</time>
        <extensions>
          <ns3:TrackPointExtension>
            <ns3:hr>146</ns3:hr>
            <ns3:cad>69</ns3:cad>
          </ns3:TrackPointExtension>
        </extensions>
      </trkpt>
      <trkpt lat="45.34164545126259326934814453125" lon="-70.8197075687348842620849609375">
        <ele>827.5999755859375</ele>
        <time>2026-08-21T11:45:21.000Z</time>
        <extensions>
          <ns3:TrackPointExtension>
            <ns3:hr>146</ns3:hr>
            <ns3:cad>0</ns3:cad>
          </ns3:TrackPointExtension>
        </extensions>
      </trkpt>
      <trkpt lat="45.3416405059397220611572265625" lon="-70.81971268169581890106201171875">
        <ele>827.79998779296875</ele>
        <time>2026-08-21T11:45:22.000Z</time>
        <extensions>
          <ns3:TrackPointExtension>
            <ns3:hr>145</ns3:hr>
            <ns3:cad>0</ns3:cad>
          </ns3:TrackPointExtension>
        </extensions>
      </trkpt>
      <trkpt lat="45.34164126031100749969482421875" lon="-70.81971351988613605499267578125">
        <ele>827.79998779296875</ele>
        <time>2026-08-21T11:45:23.000Z</time>
        <extensions>
          <ns3:TrackPointExtension>
            <ns3:hr>146</ns3:hr>
            <ns3:cad>0</ns3:cad>
          </ns3:TrackPointExtension>
        </extensions>
      </trkpt>
      <trkpt lat="45.34163908101618289947509765625" lon="-70.8197176270186901092529296875">
        <ele>828</ele>
        <time>2026-08-21T11:45:24.000Z</time>
        <extensions>
          <ns3:TrackPointExtension>
            <ns3:hr>146</ns3:hr>
            <ns3:cad>0</ns3:cad>
          </ns3:TrackPointExtension>
        </extensions>
      </trkpt>
      <trkpt lat="45.341635309159755706787109375" lon="-70.81972382962703704833984375">
        <ele>828.20001220703125</ele>
        <time>2026-08-21T11:45:25.000Z</time>
        <extensions>
          <ns3:TrackPointExtension>
            <ns3:hr>146</ns3:hr>
            <ns3:cad>0</ns3:cad>
          </ns3:TrackPointExtension>
        </extensions>
      </trkpt>
      <trkpt lat="45.341629274189472198486328125" lon="-70.819725506007671356201171875">
        <ele>828.4000244140625</ele>
        <time>2026-08-21T11:45:26.000Z</time>
        <extensions>
          <ns3:TrackPointExtension>
            <ns3:hr>146</ns3:hr>
            <ns3:cad>0</ns3:cad>
          </ns3:TrackPointExtension>
        </extensions>
      </trkpt>
      <trkpt lat="45.34162835218012332916259765625" lon="-70.81972927786409854888916015625">
        <ele>828.5999755859375</ele>
        <time>2026-08-21T11:45:27.000Z</time>
        <extensions>
          <ns3:TrackPointExtension>
            <ns3:hr>146</ns3:hr>
            <ns3:cad>0</ns3:cad>
          </ns3:TrackPointExtension>
        </extensions>
      </trkpt>
      <trkpt lat="45.341623239219188690185546875" lon="-70.81973246298730373382568359375">
        <ele>828.79998779296875</ele>
        <time>2026-08-21T11:45:28.000Z</time>
        <extensions>
          <ns3:TrackPointExtension>
            <ns3:hr>146</ns3:hr>
            <ns3:cad>0</ns3:cad>
          </ns3:TrackPointExtension>
        </extensions>
      </trkpt>
      <trkpt lat="45.3416160307824611663818359375" lon="-70.81973715685307979583740234375">
        <ele>829</ele>
        <time>2026-08-21T11:45:29.000Z</time>
        <extensions>
          <ns3:TrackPointExtension>
            <ns3:hr>146</ns3:hr>
            <ns3:cad>0</ns3:cad>
          </ns3:TrackPointExtension>
        </extensions>
      </trkpt>
      <trkpt lat="45.3416128456592559814453125" lon="-70.81973858177661895751953125">
        <ele>829.20001220703125</ele>
        <time>2026-08-21T11:45:30.000Z</time>
        <extensions>
          <ns3:TrackPointExtension>
            <ns3:hr>147</ns3:hr>
            <ns3:cad>0</ns3:cad>
          </ns3:TrackPointExtension>
        </extensions>
      </trkpt>
      <trkpt lat="45.34160890616476535797119140625" lon="-70.819746293127536773681640625">
        <ele>829.4000244140625</ele>
        <time>2026-08-21T11:45:31.000Z</time>
        <extensions>
          <ns3:TrackPointExtension>
            <ns3:hr>148</ns3:hr>
            <ns3:cad>0</ns3:cad>
          </ns3:TrackPointExtension>
        </extensions>
      </trkpt>
      <trkpt lat="45.34160505048930644989013671875" lon="-70.81974872387945652008056640625">
        <ele>829.5999755859375</ele>
        <time>2026-08-21T11:45:32.000Z</time>
        <extensions>
          <ns3:TrackPointExtension>
            <ns3:hr>148</ns3:hr>
            <ns3:cad>0</ns3:cad>
          </ns3:TrackPointExtension>
        </extensions>
      </trkpt>
      <trkpt lat="45.3415992669761180877685546875" lon="-70.81975157372653484344482421875">
        <ele>829.79998779296875</ele>
        <time>2026-08-21T11:45:33.000Z</time>
        <extensions>
          <ns3:TrackPointExtension>
            <ns3:hr>148</ns3:hr>
            <ns3:cad>0</ns3:cad>
          </ns3:TrackPointExtension>
        </extensions>
      </trkpt>
      <trkpt lat="45.34158946014940738677978515625" lon="-70.8197565190494060516357421875">
        <ele>830</ele>
        <time>2026-08-21T11:45:34.000Z</time>
        <extensions>
          <ns3:TrackPointExtension>
            <ns3:hr>149</ns3:hr>
            <ns3:cad>0</ns3:cad>
          </ns3:TrackPointExtension>
        </extensions>
      </trkpt>
      <trkpt lat="45.3415851853787899017333984375" lon="-70.81975978799164295196533203125">
        <ele>830.20001220703125</ele>
        <time>2026-08-21T11:45:35.000Z</time>
        <extensions>
          <ns3:TrackPointExtension>
            <ns3:hr>149</ns3:hr>
            <ns3:cad>0</ns3:cad>
          </ns3:TrackPointExtension>
        </extensions>
      </trkpt>
      <trkpt lat="45.34158443100750446319580078125" lon="-70.81977001391351222991943359375">
        <ele>830.4000244140625</ele>
        <time>2026-08-21T11:45:36.000Z</time>
        <extensions>
          <ns3:TrackPointExtension>
            <ns3:hr>149</ns3:hr>
            <ns3:cad>0</ns3:cad>
          </ns3:TrackPointExtension>
        </extensions>
      </trkpt>
      <trkpt lat="45.341585017740726470947265625" lon="-70.81977747380733489990234375">
        <ele>830.4000244140625</ele>
        <time>2026-08-21T11:45:37.000Z</time>
        <extensions>
          <ns3:TrackPointExtension>
            <ns3:hr>149</ns3:hr>
            <ns3:cad>0</ns3:cad>
          </ns3:TrackPointExtension>
        </extensions>
      </trkpt>
      <trkpt lat="45.341585688292980194091796875" lon="-70.81978677771985530853271484375">
        <ele>830.5999755859375</ele>
        <time>2026-08-21T11:45:38.000Z</time>
        <extensions>
          <ns3:TrackPointExtension>
            <ns3:hr>149</ns3:hr>
            <ns3:cad>0</ns3:cad>
          </ns3:TrackPointExtension>
        </extensions>
      </trkpt>
      <trkpt lat="45.34158560447394847869873046875" lon="-70.81980018876492977142333984375">
        <ele>830.79998779296875</ele>
        <time>2026-08-21T11:45:39.000Z</time>
        <extensions>
          <ns3:TrackPointExtension>
            <ns3:hr>149</ns3:hr>
            <ns3:cad>0</ns3:cad>
          </ns3:TrackPointExtension>
        </extensions>
      </trkpt>
      <trkpt lat="45.341586358845233917236328125" lon="-70.81982349045574665069580078125">
        <ele>830.79998779296875</ele>
        <time>2026-08-21T11:45:40.000Z</time>
        <extensions>
          <ns3:TrackPointExtension>
            <ns3:hr>149</ns3:hr>
            <ns3:cad>0</ns3:cad>
          </ns3:TrackPointExtension>
        </extensions>
      </trkpt>
      <trkpt lat="45.341587364673614501953125" lon="-70.81983673386275768280029296875">
        <ele>831</ele>
        <time>2026-08-21T11:45:41.000Z</time>
        <extensions>
          <ns3:TrackPointExtension>
            <ns3:hr>149</ns3:hr>
            <ns3:cad>0</ns3:cad>
          </ns3:TrackPointExtension>
        </extensions>
      </trkpt>
      <trkpt lat="45.34158862195909023284912109375" lon="-70.81984109245240688323974609375">
        <ele>831</ele>
        <time>2026-08-21T11:45:42.000Z</time>
        <extensions>
          <ns3:TrackPointExtension>
            <ns3:hr>149</ns3:hr>
            <ns3:cad>0</ns3:cad>
          </ns3:TrackPointExtension>
        </extensions>
      </trkpt>
      <trkpt lat="45.341585688292980194091796875" lon="-70.81985483877360820770263671875">
        <ele>831.20001220703125</ele>
        <time>2026-08-21T11:45:43.000Z</time>
        <extensions>
          <ns3:TrackPointExtension>
            <ns3:hr>148</ns3:hr>
            <ns3:cad>0</ns3:cad>
          </ns3:TrackPointExtension>
        </extensions>
      </trkpt>
      <trkpt lat="45.341585688292980194091796875" lon="-70.819870345294475555419921875">
        <ele>831.20001220703125</ele>
        <time>2026-08-21T11:45:44.000Z</time>
        <extensions>
          <ns3:TrackPointExtension>
            <ns3:hr>148</ns3:hr>
            <ns3:cad>0</ns3:cad>
          </ns3:TrackPointExtension>
        </extensions>
      </trkpt>
      <trkpt lat="45.34158711321651935577392578125" lon="-70.81988333724439144134521484375">
        <ele>831.4000244140625</ele>
        <time>2026-08-21T11:45:45.000Z</time>
        <extensions>
          <ns3:TrackPointExtension>
            <ns3:hr>148</ns3:hr>
            <ns3:cad>0</ns3:cad>
          </ns3:TrackPointExtension>
        </extensions>
      </trkpt>
      <trkpt lat="45.34158711321651935577392578125" lon="-70.81989674828946590423583984375">
        <ele>831.20001220703125</ele>
        <time>2026-08-21T11:45:46.000Z</time>
        <extensions>
          <ns3:TrackPointExtension>
            <ns3:hr>148</ns3:hr>
            <ns3:cad>0</ns3:cad>
          </ns3:TrackPointExtension>
        </extensions>
      </trkpt>
      <trkpt lat="45.34158895723521709442138671875" lon="-70.81991150043904781341552734375">
        <ele>831.20001220703125</ele>
        <time>2026-08-21T11:45:47.000Z</time>
        <extensions>
          <ns3:TrackPointExtension>
            <ns3:hr>148</ns3:hr>
            <ns3:cad>0</ns3:cad>
          </ns3:TrackPointExtension>
        </extensions>
      </trkpt>
      <trkpt lat="45.34159616567194461822509765625" lon="-70.81993228755891323089599609375">
        <ele>831</ele>
        <time>2026-08-21T11:45:48.000Z</time>
        <extensions>
          <ns3:TrackPointExtension>
            <ns3:hr>148</ns3:hr>
            <ns3:cad>0</ns3:cad>
          </ns3:TrackPointExtension>
        </extensions>
      </trkpt>
      <trkpt lat="45.341593064367771148681640625" lon="-70.8199489675462245941162109375">
        <ele>830.79998779296875</ele>
        <time>2026-08-21T11:45:49.000Z</time>
        <extensions>
          <ns3:TrackPointExtension>
            <ns3:hr>148</ns3:hr>
            <ns3:cad>0</ns3:cad>
          </ns3:TrackPointExtension>
        </extensions>
      </trkpt>
      <trkpt lat="45.3415945731103420257568359375" lon="-70.8199603669345378875732421875">
        <ele>830.79998779296875</ele>
        <time>2026-08-21T11:45:50.000Z</time>
        <extensions>
          <ns3:TrackPointExtension>
            <ns3:hr>148</ns3:hr>
            <ns3:cad>0</ns3:cad>
          </ns3:TrackPointExtension>
        </extensions>
      </trkpt>
      <trkpt lat="45.34159465692937374114990234375" lon="-70.8199714310467243194580078125">
        <ele>831</ele>
        <time>2026-08-21T11:45:51.000Z</time>
        <extensions>
          <ns3:TrackPointExtension>
            <ns3:hr>148</ns3:hr>
            <ns3:cad>0</ns3:cad>
          </ns3:TrackPointExtension>
        </extensions>
      </trkpt>
      <trkpt lat="45.341593064367771148681640625" lon="-70.819982327520847320556640625">
        <ele>831.20001220703125</ele>
        <time>2026-08-21T11:45:52.000Z</time>
        <extensions>
          <ns3:TrackPointExtension>
            <ns3:hr>148</ns3:hr>
            <ns3:cad>0</ns3:cad>
          </ns3:TrackPointExtension>
        </extensions>
      </trkpt>
      <trkpt lat="45.3415939025580883026123046875" lon="-70.81999473273754119873046875">
        <ele>831.4000244140625</ele>
        <time>2026-08-21T11:45:53.000Z</time>
        <extensions>
          <ns3:TrackPointExtension>
            <ns3:hr>148</ns3:hr>
            <ns3:cad>0</ns3:cad>
          </ns3:TrackPointExtension>
        </extensions>
      </trkpt>
      <trkpt lat="45.3415942378342151641845703125" lon="-70.8200022764503955841064453125">
        <ele>831.5999755859375</ele>
        <time>2026-08-21T11:45:54.000Z</time>
        <extensions>
          <ns3:TrackPointExtension>
            <ns3:hr>149</ns3:hr>
            <ns3:cad>0</ns3:cad>
          </ns3:TrackPointExtension>
        </extensions>
      </trkpt>
      <trkpt lat="45.34159080125391483306884765625" lon="-70.8200150169432163238525390625">
        <ele>831.79998779296875</ele>
        <time>2026-08-21T11:45:55.000Z</time>
        <extensions>
          <ns3:TrackPointExtension>
            <ns3:hr>148</ns3:hr>
            <ns3:cad>0</ns3:cad>
          </ns3:TrackPointExtension>
        </extensions>
      </trkpt>
      <trkpt lat="45.34158510155975818634033203125" lon="-70.82002532668411731719970703125">
        <ele>831.79998779296875</ele>
        <time>2026-08-21T11:45:56.000Z</time>
        <extensions>
          <ns3:TrackPointExtension>
            <ns3:hr>148</ns3:hr>
            <ns3:cad>0</ns3:cad>
          </ns3:TrackPointExtension>
        </extensions>
      </trkpt>
      <trkpt lat="45.34158141352236270904541015625" lon="-70.82003303803503513336181640625">
        <ele>832</ele>
        <time>2026-08-21T11:45:57.000Z</time>
        <extensions>
          <ns3:TrackPointExtension>
            <ns3:hr>148</ns3:hr>
            <ns3:cad>0</ns3:cad>
          </ns3:TrackPointExtension>
        </extensions>
      </trkpt>
      <trkpt lat="45.341577641665935516357421875" lon="-70.82004426978528499603271484375">
        <ele>832.20001220703125</ele>
        <time>2026-08-21T11:45:58.000Z</time>
        <extensions>
          <ns3:TrackPointExtension>
            <ns3:hr>148</ns3:hr>
            <ns3:cad>0</ns3:cad>
          </ns3:TrackPointExtension>
        </extensions>
      </trkpt>
      <trkpt lat="45.3415714390575885772705078125" lon="-70.8200575970113277435302734375">
        <ele>832.4000244140625</ele>
        <time>2026-08-21T11:45:59.000Z</time>
        <extensions>
          <ns3:TrackPointExtension>
            <ns3:hr>148</ns3:hr>
            <ns3:cad>0</ns3:cad>
          </ns3:TrackPointExtension>
        </extensions>
      </trkpt>
      <trkpt lat="45.34156448207795619964599609375" lon="-70.82007360644638538360595703125">
        <ele>832.5999755859375</ele>
        <time>2026-08-21T11:46:00.000Z</time>
        <extensions>
          <ns3:TrackPointExtension>
            <ns3:hr>148</ns3:hr>
            <ns3:cad>0</ns3:cad>
          </ns3:TrackPointExtension>
        </extensions>
      </trkpt>
      <trkpt lat="45.34155995585024356842041015625" lon="-70.82008064724504947662353515625">
        <ele>832.79998779296875</ele>
        <time>2026-08-21T11:46:01.000Z</time>
        <extensions>
          <ns3:TrackPointExtension>
            <ns3:hr>147</ns3:hr>
            <ns3:cad>0</ns3:cad>
          </ns3:TrackPointExtension>
        </extensions>
      </trkpt>
      <trkpt lat="45.34155811183154582977294921875" lon="-70.82008190453052520751953125">
        <ele>833</ele>
        <time>2026-08-21T11:46:02.000Z</time>
        <extensions>
          <ns3:TrackPointExtension>
            <ns3:hr>148</ns3:hr>
            <ns3:cad>0</ns3:cad>
          </ns3:TrackPointExtension>
        </extensions>
      </trkpt>
      <trkpt lat="45.341551490128040313720703125" lon="-70.82008601166307926177978515625">
        <ele>833.20001220703125</ele>
        <time>2026-08-21T11:46:03.000Z</time>
        <extensions>
          <ns3:TrackPointExtension>
            <ns3:hr>148</ns3:hr>
            <ns3:cad>44</ns3:cad>
          </ns3:TrackPointExtension>
        </extensions>
      </trkpt>
      <trkpt lat="45.34154520370066165924072265625" lon="-70.8200867660343647003173828125">
        <ele>833.4000244140625</ele>
        <time>2026-08-21T11:46:04.000Z</time>
        <extensions>
          <ns3:TrackPointExtension>
            <ns3:hr>148</ns3:hr>
            <ns3:cad>44</ns3:cad>
          </ns3:TrackPointExtension>
        </extensions>
      </trkpt>
      <trkpt lat="45.34154067747294902801513671875" lon="-70.820083916187286376953125">
        <ele>833.79998779296875</ele>
        <time>2026-08-21T11:46:05.000Z</time>
        <extensions>
          <ns3:TrackPointExtension>
            <ns3:hr>147</ns3:hr>
            <ns3:cad>44</ns3:cad>
          </ns3:TrackPointExtension>
        </extensions>
      </trkpt>
      <trkpt lat="45.34153866581618785858154296875" lon="-70.82008115015923976898193359375">
        <ele>834</ele>
        <time>2026-08-21T11:46:06.000Z</time>
        <extensions>
          <ns3:TrackPointExtension>
            <ns3:hr>147</ns3:hr>
            <ns3:cad>44</ns3:cad>
          </ns3:TrackPointExtension>
        </extensions>
      </trkpt>
      <trkpt lat="45.34153145737946033477783203125" lon="-70.82008056342601776123046875">
        <ele>834.20001220703125</ele>
        <time>2026-08-21T11:46:07.000Z</time>
        <extensions>
          <ns3:TrackPointExtension>
            <ns3:hr>147</ns3:hr>
            <ns3:cad>44</ns3:cad>
          </ns3:TrackPointExtension>
        </extensions>
      </trkpt>
      <trkpt lat="45.34152039326727390289306640625" lon="-70.82007796503603458404541015625">
        <ele>834.4000244140625</ele>
        <time>2026-08-21T11:46:08.000Z</time>
        <extensions>
          <ns3:TrackPointExtension>
            <ns3:hr>146</ns3:hr>
            <ns3:cad>44</ns3:cad>
          </ns3:TrackPointExtension>
        </extensions>
      </trkpt>
      <trkpt lat="45.3415177948772907257080078125" lon="-70.82007964141666889190673828125">
        <ele>834.79998779296875</ele>
        <time>2026-08-21T11:46:09.000Z</time>
        <extensions>
          <ns3:TrackPointExtension>
            <ns3:hr>145</ns3:hr>
            <ns3:cad>0</ns3:cad>
          </ns3:TrackPointExtension>
        </extensions>
      </trkpt>
      <trkpt lat="45.3415082395076751708984375" lon="-70.8200817368924617767333984375">
        <ele>835</ele>
        <time>2026-08-21T11:46:10.000Z</time>
        <extensions>
          <ns3:TrackPointExtension>
            <ns3:hr>145</ns3:hr>
            <ns3:cad>0</ns3:cad>
          </ns3:TrackPointExtension>
        </extensions>
      </trkpt>
      <trkpt lat="45.341505892574787139892578125" lon="-70.820082910358905792236328125">
        <ele>835.4000244140625</ele>
        <time>2026-08-21T11:46:11.000Z</time>
        <extensions>
          <ns3:TrackPointExtension>
            <ns3:hr>144</ns3:hr>
            <ns3:cad>0</ns3:cad>
          </ns3:TrackPointExtension>
        </extensions>
      </trkpt>
      <trkpt lat="45.3415000252425670623779296875" lon="-70.8200834132730960845947265625">
        <ele>835.5999755859375</ele>
        <time>2026-08-21T11:46:12.000Z</time>
        <extensions>
          <ns3:TrackPointExtension>
            <ns3:hr>144</ns3:hr>
            <ns3:cad>0</ns3:cad>
          </ns3:TrackPointExtension>
        </extensions>
      </trkpt>
      <trkpt lat="45.341491140425205230712890625" lon="-70.82008659839630126953125">
        <ele>835.79998779296875</ele>
        <time>2026-08-21T11:46:13.000Z</time>
        <extensions>
          <ns3:TrackPointExtension>
            <ns3:hr>143</ns3:hr>
            <ns3:cad>0</ns3:cad>
          </ns3:TrackPointExtension>
        </extensions>
      </trkpt>
      <trkpt lat="45.3414842672646045684814453125" lon="-70.8200894482433795928955078125">
        <ele>836</ele>
        <time>2026-08-21T11:46:14.000Z</time>
        <extensions>
          <ns3:TrackPointExtension>
            <ns3:hr>143</ns3:hr>
            <ns3:cad>0</ns3:cad>
          </ns3:TrackPointExtension>
        </extensions>
      </trkpt>
      <trkpt lat="45.34147999249398708343505859375" lon="-70.820089280605316162109375">
        <ele>836.20001220703125</ele>
        <time>2026-08-21T11:46:15.000Z</time>
        <extensions>
          <ns3:TrackPointExtension>
            <ns3:hr>142</ns3:hr>
            <ns3:cad>0</ns3:cad>
          </ns3:TrackPointExtension>
        </extensions>
      </trkpt>
      <trkpt lat="45.34147228114306926727294921875" lon="-70.82009171135723590850830078125">
        <ele>836.20001220703125</ele>
        <time>2026-08-21T11:46:16.000Z</time>
        <extensions>
          <ns3:TrackPointExtension>
            <ns3:hr>142</ns3:hr>
            <ns3:cad>0</ns3:cad>
          </ns3:TrackPointExtension>
        </extensions>
      </trkpt>
      <trkpt lat="45.34146088175475597381591796875" lon="-70.8200971595942974090576171875">
        <ele>836.4000244140625</ele>
        <time>2026-08-21T11:46:17.000Z</time>
        <extensions>
          <ns3:TrackPointExtension>
            <ns3:hr>142</ns3:hr>
            <ns3:cad>0</ns3:cad>
          </ns3:TrackPointExtension>
        </extensions>
      </trkpt>
      <trkpt lat="45.34145149402320384979248046875" lon="-70.820095650851726531982421875">
        <ele>836.79998779296875</ele>
        <time>2026-08-21T11:46:18.000Z</time>
        <extensions>
          <ns3:TrackPointExtension>
            <ns3:hr>141</ns3:hr>
            <ns3:cad>0</ns3:cad>
          </ns3:TrackPointExtension>
        </extensions>
      </trkpt>
      <trkpt lat="45.341450907289981842041015625" lon="-70.820094645023345947265625">
        <ele>837</ele>
        <time>2026-08-21T11:46:19.000Z</time>
        <extensions>
          <ns3:TrackPointExtension>
            <ns3:hr>141</ns3:hr>
            <ns3:cad>0</ns3:cad>
          </ns3:TrackPointExtension>
        </extensions>
      </trkpt>
      <trkpt lat="45.34144411794841289520263671875" lon="-70.82009665668010711669921875">
        <ele>837.20001220703125</ele>
        <time>2026-08-21T11:46:20.000Z</time>
        <extensions>
          <ns3:TrackPointExtension>
            <ns3:hr>142</ns3:hr>
            <ns3:cad>0</ns3:cad>
          </ns3:TrackPointExtension>
        </extensions>
      </trkpt>
      <trkpt lat="45.341434478759765625" lon="-70.82009925507009029388427734375">
        <ele>837.5999755859375</ele>
        <time>2026-08-21T11:46:21.000Z</time>
        <extensions>
          <ns3:TrackPointExtension>
            <ns3:hr>142</ns3:hr>
            <ns3:cad>47</ns3:cad>
          </ns3:TrackPointExtension>
        </extensions>
      </trkpt>
      <trkpt lat="45.34142970107495784759521484375" lon="-70.82011735998094081878662109375">
        <ele>837.79998779296875</ele>
        <time>2026-08-21T11:46:22.000Z</time>
        <extensions>
          <ns3:TrackPointExtension>
            <ns3:hr>142</ns3:hr>
            <ns3:cad>47</ns3:cad>
          </ns3:TrackPointExtension>
        </extensions>
      </trkpt>
      <trkpt lat="45.3414272703230381011962890625" lon="-70.820129178464412689208984375">
        <ele>838</ele>
        <time>2026-08-21T11:46:23.000Z</time>
        <extensions>
          <ns3:TrackPointExtension>
            <ns3:hr>142</ns3:hr>
            <ns3:cad>47</ns3:cad>
          </ns3:TrackPointExtension>
        </extensions>
      </trkpt>
      <trkpt lat="45.341430790722370147705078125" lon="-70.82013932056725025177001953125">
        <ele>838.20001220703125</ele>
        <time>2026-08-21T11:46:24.000Z</time>
        <extensions>
          <ns3:TrackPointExtension>
            <ns3:hr>142</ns3:hr>
            <ns3:cad>47</ns3:cad>
          </ns3:TrackPointExtension>
        </extensions>
      </trkpt>
      <trkpt lat="45.34142886288464069366455078125" lon="-70.8201531507074832916259765625">
        <ele>838.4000244140625</ele>
        <time>2026-08-21T11:46:25.000Z</time>
        <extensions>
          <ns3:TrackPointExtension>
            <ns3:hr>142</ns3:hr>
            <ns3:cad>47</ns3:cad>
          </ns3:TrackPointExtension>
        </extensions>
      </trkpt>
      <trkpt lat="45.34142651595175266265869140625" lon="-70.8201675675809383392333984375">
        <ele>838.79998779296875</ele>
        <time>2026-08-21T11:46:26.000Z</time>
        <extensions>
          <ns3:TrackPointExtension>
            <ns3:hr>142</ns3:hr>
            <ns3:cad>45</ns3:cad>
          </ns3:TrackPointExtension>
        </extensions>
      </trkpt>
      <trkpt lat="45.3414188884198665618896484375" lon="-70.82018273882567882537841796875">
        <ele>839</ele>
        <time>2026-08-21T11:46:27.000Z</time>
        <extensions>
          <ns3:TrackPointExtension>
            <ns3:hr>142</ns3:hr>
            <ns3:cad>45</ns3:cad>
          </ns3:TrackPointExtension>
        </extensions>
      </trkpt>
      <trkpt lat="45.34141427837312221527099609375" lon="-70.82018994726240634918212890625">
        <ele>839.20001220703125</ele>
        <time>2026-08-21T11:46:28.000Z</time>
        <extensions>
          <ns3:TrackPointExtension>
            <ns3:hr>142</ns3:hr>
            <ns3:cad>45</ns3:cad>
          </ns3:TrackPointExtension>
        </extensions>
      </trkpt>
      <trkpt lat="45.34140723757445812225341796875" lon="-70.82019397057592868804931640625">
        <ele>839.4000244140625</ele>
        <time>2026-08-21T11:46:29.000Z</time>
        <extensions>
          <ns3:TrackPointExtension>
            <ns3:hr>143</ns3:hr>
            <ns3:cad>45</ns3:cad>
          </ns3:TrackPointExtension>
        </extensions>
      </trkpt>
      <trkpt lat="45.34139893949031829833984375" lon="-70.8201979100704193115234375">
        <ele>839.4000244140625</ele>
        <time>2026-08-21T11:46:30.000Z</time>
        <extensions>
          <ns3:TrackPointExtension>
            <ns3:hr>144</ns3:hr>
            <ns3:cad>45</ns3:cad>
          </ns3:TrackPointExtension>
        </extensions>
      </trkpt>
      <trkpt lat="45.3413907252252101898193359375" lon="-70.820200257003307342529296875">
        <ele>839.4000244140625</ele>
        <time>2026-08-21T11:46:31.000Z</time>
        <extensions>
          <ns3:TrackPointExtension>
            <ns3:hr>145</ns3:hr>
            <ns3:cad>0</ns3:cad>
          </ns3:TrackPointExtension>
        </extensions>
      </trkpt>
      <trkpt lat="45.34138695336878299713134765625" lon="-70.820201933383941650390625">
        <ele>839.5999755859375</ele>
        <time>2026-08-21T11:46:32.000Z</time>
        <extensions>
          <ns3:TrackPointExtension>
            <ns3:hr>145</ns3:hr>
            <ns3:cad>0</ns3:cad>
          </ns3:TrackPointExtension>
        </extensions>
      </trkpt>
      <trkpt lat="45.3413766436278820037841796875" lon="-70.8202054537832736968994140625">
        <ele>839.5999755859375</ele>
        <time>2026-08-21T11:46:33.000Z</time>
        <extensions>
          <ns3:TrackPointExtension>
            <ns3:hr>146</ns3:hr>
            <ns3:cad>45</ns3:cad>
          </ns3:TrackPointExtension>
        </extensions>
      </trkpt>
      <trkpt lat="45.3413726203143596649169921875" lon="-70.820206291973590850830078125">
        <ele>839.79998779296875</ele>
        <time>2026-08-21T11:46:34.000Z</time>
        <extensions>
          <ns3:TrackPointExtension>
            <ns3:hr>146</ns3:hr>
            <ns3:cad>45</ns3:cad>
          </ns3:TrackPointExtension>
        </extensions>
      </trkpt>
      <trkpt lat="45.34136650152504444122314453125" lon="-70.82021056674420833587646484375">
        <ele>840</ele>
        <time>2026-08-21T11:46:35.000Z</time>
        <extensions>
          <ns3:TrackPointExtension>
            <ns3:hr>147</ns3:hr>
            <ns3:cad>45</ns3:cad>
          </ns3:TrackPointExtension>
        </extensions>
      </trkpt>
      <trkpt lat="45.3413615562021732330322265625" lon="-70.8202168531715869903564453125">
        <ele>840</ele>
        <time>2026-08-21T11:46:36.000Z</time>
        <extensions>
          <ns3:TrackPointExtension>
            <ns3:hr>147</ns3:hr>
            <ns3:cad>45</ns3:cad>
          </ns3:TrackPointExtension>
        </extensions>
      </trkpt>
      <trkpt lat="45.34135895781219005584716796875" lon="-70.8202188648283481597900390625">
        <ele>840.20001220703125</ele>
        <time>2026-08-21T11:46:37.000Z</time>
        <extensions>
          <ns3:TrackPointExtension>
            <ns3:hr>147</ns3:hr>
            <ns3:cad>45</ns3:cad>
          </ns3:TrackPointExtension>
        </extensions>
      </trkpt>
      <trkpt lat="45.341350324451923370361328125" lon="-70.82022280432283878326416015625">
        <ele>840.20001220703125</ele>
        <time>2026-08-21T11:46:38.000Z</time>
        <extensions>
          <ns3:TrackPointExtension>
            <ns3:hr>148</ns3:hr>
            <ns3:cad>49</ns3:cad>
          </ns3:TrackPointExtension>
        </extensions>
      </trkpt>
      <trkpt lat="45.34134588204324245452880859375" lon="-70.82022498361766338348388671875">
        <ele>840.4000244140625</ele>
        <time>2026-08-21T11:46:39.000Z</time>
        <extensions>
          <ns3:TrackPointExtension>
            <ns3:hr>148</ns3:hr>
            <ns3:cad>49</ns3:cad>
          </ns3:TrackPointExtension>
        </extensions>
      </trkpt>
      <trkpt lat="45.341332219541072845458984375" lon="-70.8202327787876129150390625">
        <ele>840.5999755859375</ele>
        <time>2026-08-21T11:46:40.000Z</time>
        <extensions>
          <ns3:TrackPointExtension>
            <ns3:hr>148</ns3:hr>
            <ns3:cad>49</ns3:cad>
          </ns3:TrackPointExtension>
        </extensions>
      </trkpt>
      <trkpt lat="45.34132911823689937591552734375" lon="-70.82023437134921550750732421875">
        <ele>840.79998779296875</ele>
        <time>2026-08-21T11:46:41.000Z</time>
        <extensions>
          <ns3:TrackPointExtension>
            <ns3:hr>148</ns3:hr>
            <ns3:cad>0</ns3:cad>
          </ns3:TrackPointExtension>
        </extensions>
      </trkpt>
      <trkpt lat="45.341325514018535614013671875" lon="-70.82023470662534236907958984375">
        <ele>841</ele>
        <time>2026-08-21T11:46:42.000Z</time>
        <extensions>
          <ns3:TrackPointExtension>
            <ns3:hr>148</ns3:hr>
            <ns3:cad>0</ns3:cad>
          </ns3:TrackPointExtension>
        </extensions>
      </trkpt>
      <trkpt lat="45.3413193114101886749267578125" lon="-70.82023588009178638458251953125">
        <ele>841.4000244140625</ele>
        <time>2026-08-21T11:46:43.000Z</time>
        <extensions>
          <ns3:TrackPointExtension>
            <ns3:hr>148</ns3:hr>
            <ns3:cad>0</ns3:cad>
          </ns3:TrackPointExtension>
        </extensions>
      </trkpt>
      <trkpt lat="45.34132006578147411346435546875" lon="-70.82023210823535919189453125">
        <ele>841.5999755859375</ele>
        <time>2026-08-21T11:46:44.000Z</time>
        <extensions>
          <ns3:TrackPointExtension>
            <ns3:hr>147</ns3:hr>
            <ns3:cad>57</ns3:cad>
          </ns3:TrackPointExtension>
        </extensions>
      </trkpt>
      <trkpt lat="45.3413149528205394744873046875" lon="-70.8202292583882808685302734375">
        <ele>842</ele>
        <time>2026-08-21T11:46:45.000Z</time>
        <extensions>
          <ns3:TrackPointExtension>
            <ns3:hr>147</ns3:hr>
            <ns3:cad>57</ns3:cad>
          </ns3:TrackPointExtension>
        </extensions>
      </trkpt>
      <trkpt lat="45.34130883403122425079345703125" lon="-70.820225737988948822021484375">
        <ele>842</ele>
        <time>2026-08-21T11:46:46.000Z</time>
        <extensions>
          <ns3:TrackPointExtension>
            <ns3:hr>147</ns3:hr>
            <ns3:cad>0</ns3:cad>
          </ns3:TrackPointExtension>
        </extensions>
      </trkpt>
      <trkpt lat="45.34130414016544818878173828125" lon="-70.82022330723702907562255859375">
        <ele>842.20001220703125</ele>
        <time>2026-08-21T11:46:47.000Z</time>
        <extensions>
          <ns3:TrackPointExtension>
            <ns3:hr>147</ns3:hr>
            <ns3:cad>0</ns3:cad>
          </ns3:TrackPointExtension>
        </extensions>
      </trkpt>
      <trkpt lat="45.3412998653948307037353515625" lon="-70.8202193677425384521484375">
        <ele>842.20001220703125</ele>
        <time>2026-08-21T11:46:48.000Z</time>
        <extensions>
          <ns3:TrackPointExtension>
            <ns3:hr>146</ns3:hr>
            <ns3:cad>0</ns3:cad>
          </ns3:TrackPointExtension>
        </extensions>
      </trkpt>
      <trkpt lat="45.341288633644580841064453125" lon="-70.82021123729646205902099609375">
        <ele>842.4000244140625</ele>
        <time>2026-08-21T11:46:49.000Z</time>
        <extensions>
          <ns3:TrackPointExtension>
            <ns3:hr>146</ns3:hr>
            <ns3:cad>0</ns3:cad>
          </ns3:TrackPointExtension>
        </extensions>
      </trkpt>
      <trkpt lat="45.34127597697079181671142578125" lon="-70.820208303630352020263671875">
        <ele>842.4000244140625</ele>
        <time>2026-08-21T11:46:50.000Z</time>
        <extensions>
          <ns3:TrackPointExtension>
            <ns3:hr>146</ns3:hr>
            <ns3:cad>0</ns3:cad>
          </ns3:TrackPointExtension>
        </extensions>
      </trkpt>
      <trkpt lat="45.3412670083343982696533203125" lon="-70.82021174021065235137939453125">
        <ele>842.4000244140625</ele>
        <time>2026-08-21T11:46:51.000Z</time>
        <extensions>
          <ns3:TrackPointExtension>
            <ns3:hr>146</ns3:hr>
            <ns3:cad>0</ns3:cad>
          </ns3:TrackPointExtension>
        </extensions>
      </trkpt>
      <trkpt lat="45.3412569500505924224853515625" lon="-70.82021794281899929046630859375">
        <ele>842.5999755859375</ele>
        <time>2026-08-21T11:46:52.000Z</time>
        <extensions>
          <ns3:TrackPointExtension>
            <ns3:hr>146</ns3:hr>
            <ns3:cad>0</ns3:cad>
          </ns3:TrackPointExtension>
        </extensions>
      </trkpt>
      <trkpt lat="45.34124798141419887542724609375" lon="-70.82022448070347309112548828125">
        <ele>842.5999755859375</ele>
        <time>2026-08-21T11:46:53.000Z</time>
        <extensions>
          <ns3:TrackPointExtension>
            <ns3:hr>146</ns3:hr>
            <ns3:cad>0</ns3:cad>
          </ns3:TrackPointExtension>
        </extensions>
      </trkpt>
      <trkpt lat="45.34124194644391536712646484375" lon="-70.82023068331182003021240234375">
        <ele>842.79998779296875</ele>
        <time>2026-08-21T11:46:54.000Z</time>
        <extensions>
          <ns3:TrackPointExtension>
            <ns3:hr>146</ns3:hr>
            <ns3:cad>0</ns3:cad>
          </ns3:TrackPointExtension>
        </extensions>
      </trkpt>
      <trkpt lat="45.34122769720852375030517578125" lon="-70.82023680210113525390625">
        <ele>843</ele>
        <time>2026-08-21T11:46:55.000Z</time>
        <extensions>
          <ns3:TrackPointExtension>
            <ns3:hr>145</ns3:hr>
            <ns3:cad>0</ns3:cad>
          </ns3:TrackPointExtension>
        </extensions>
      </trkpt>
      <trkpt lat="45.3412150405347347259521484375" lon="-70.82024208270013332366943359375">
        <ele>843.20001220703125</ele>
        <time>2026-08-21T11:46:56.000Z</time>
        <extensions>
          <ns3:TrackPointExtension>
            <ns3:hr>146</ns3:hr>
            <ns3:cad>48</ns3:cad>
          </ns3:TrackPointExtension>
        </extensions>
      </trkpt>
      <trkpt lat="45.34120975993573665618896484375" lon="-70.820242501795291900634765625">
        <ele>843.4000244140625</ele>
        <time>2026-08-21T11:46:57.000Z</time>
        <extensions>
          <ns3:TrackPointExtension>
            <ns3:hr>146</ns3:hr>
            <ns3:cad>48</ns3:cad>
          </ns3:TrackPointExtension>
        </extensions>
      </trkpt>
      <trkpt lat="45.341196767985820770263671875" lon="-70.82023906521499156951904296875">
        <ele>843.5999755859375</ele>
        <time>2026-08-21T11:46:58.000Z</time>
        <extensions>
          <ns3:TrackPointExtension>
            <ns3:hr>146</ns3:hr>
            <ns3:cad>50</ns3:cad>
          </ns3:TrackPointExtension>
        </extensions>
      </trkpt>
      <trkpt lat="45.341191403567790985107421875" lon="-70.8202369697391986846923828125">
        <ele>843.79998779296875</ele>
        <time>2026-08-21T11:46:59.000Z</time>
        <extensions>
          <ns3:TrackPointExtension>
            <ns3:hr>147</ns3:hr>
            <ns3:cad>50</ns3:cad>
          </ns3:TrackPointExtension>
        </extensions>
      </trkpt>
      <trkpt lat="45.3411841951310634613037109375" lon="-70.82023588009178638458251953125">
        <ele>844</ele>
        <time>2026-08-21T11:47:00.000Z</time>
        <extensions>
          <ns3:TrackPointExtension>
            <ns3:hr>147</ns3:hr>
            <ns3:cad>50</ns3:cad>
          </ns3:TrackPointExtension>
        </extensions>
      </trkpt>
      <trkpt lat="45.34117924980819225311279296875" lon="-70.820234455168247222900390625">
        <ele>844.20001220703125</ele>
        <time>2026-08-21T11:47:01.000Z</time>
        <extensions>
          <ns3:TrackPointExtension>
            <ns3:hr>148</ns3:hr>
            <ns3:cad>50</ns3:cad>
          </ns3:TrackPointExtension>
        </extensions>
      </trkpt>
      <trkpt lat="45.3411724604666233062744140625" lon="-70.820234455168247222900390625">
        <ele>844.4000244140625</ele>
        <time>2026-08-21T11:47:02.000Z</time>
        <extensions>
          <ns3:TrackPointExtension>
            <ns3:hr>148</ns3:hr>
            <ns3:cad>0</ns3:cad>
          </ns3:TrackPointExtension>
        </extensions>
      </trkpt>
      <trkpt lat="45.34116835333406925201416015625" lon="-70.8202300965785980224609375">
        <ele>844.79998779296875</ele>
        <time>2026-08-21T11:47:03.000Z</time>
        <extensions>
          <ns3:TrackPointExtension>
            <ns3:hr>148</ns3:hr>
            <ns3:cad>0</ns3:cad>
          </ns3:TrackPointExtension>
        </extensions>
      </trkpt>
      <trkpt lat="45.34116215072572231292724609375" lon="-70.82022783346474170684814453125">
        <ele>845</ele>
        <time>2026-08-21T11:47:04.000Z</time>
        <extensions>
          <ns3:TrackPointExtension>
            <ns3:hr>148</ns3:hr>
            <ns3:cad>0</ns3:cad>
          </ns3:TrackPointExtension>
        </extensions>
      </trkpt>
      <trkpt lat="45.34115527756512165069580078125" lon="-70.82022548653185367584228515625">
        <ele>845.20001220703125</ele>
        <time>2026-08-21T11:47:05.000Z</time>
        <extensions>
          <ns3:TrackPointExtension>
            <ns3:hr>148</ns3:hr>
            <ns3:cad>0</ns3:cad>
          </ns3:TrackPointExtension>
        </extensions>
      </trkpt>
      <trkpt lat="45.34114547073841094970703125" lon="-70.82022347487509250640869140625">
        <ele>845.5999755859375</ele>
        <time>2026-08-21T11:47:06.000Z</time>
        <extensions>
          <ns3:TrackPointExtension>
            <ns3:hr>148</ns3:hr>
            <ns3:cad>0</ns3:cad>
          </ns3:TrackPointExtension>
        </extensions>
      </trkpt>
      <trkpt lat="45.3411389328539371490478515625" lon="-70.820223391056060791015625">
        <ele>845.79998779296875</ele>
        <time>2026-08-21T11:47:07.000Z</time>
        <extensions>
          <ns3:TrackPointExtension>
            <ns3:hr>148</ns3:hr>
            <ns3:cad>0</ns3:cad>
          </ns3:TrackPointExtension>
        </extensions>
      </trkpt>
      <trkpt lat="45.34113029949367046356201171875" lon="-70.82022615708410739898681640625">
        <ele>846</ele>
        <time>2026-08-21T11:47:08.000Z</time>
        <extensions>
          <ns3:TrackPointExtension>
            <ns3:hr>148</ns3:hr>
            <ns3:cad>0</ns3:cad>
          </ns3:TrackPointExtension>
        </extensions>
      </trkpt>
      <trkpt lat="45.3411188162863254547119140625" lon="-70.820229090750217437744140625">
        <ele>846.4000244140625</ele>
        <time>2026-08-21T11:47:09.000Z</time>
        <extensions>
          <ns3:TrackPointExtension>
            <ns3:hr>148</ns3:hr>
            <ns3:cad>0</ns3:cad>
          </ns3:TrackPointExtension>
        </extensions>
      </trkpt>
      <trkpt lat="45.341114960610866546630859375" lon="-70.82022967748343944549560546875">
        <ele>846.5999755859375</ele>
        <time>2026-08-21T11:47:10.000Z</time>
        <extensions>
          <ns3:TrackPointExtension>
            <ns3:hr>148</ns3:hr>
            <ns3:cad>0</ns3:cad>
          </ns3:TrackPointExtension>
        </extensions>
      </trkpt>
      <trkpt lat="45.3411070816218852996826171875" lon="-70.82023185677826404571533203125">
        <ele>846.79998779296875</ele>
        <time>2026-08-21T11:47:11.000Z</time>
        <extensions>
          <ns3:TrackPointExtension>
            <ns3:hr>148</ns3:hr>
            <ns3:cad>0</ns3:cad>
          </ns3:TrackPointExtension>
        </extensions>
      </trkpt>
      <trkpt lat="45.34110029228031635284423828125" lon="-70.8202312700450420379638671875">
        <ele>847</ele>
        <time>2026-08-21T11:47:12.000Z</time>
        <extensions>
          <ns3:TrackPointExtension>
            <ns3:hr>148</ns3:hr>
            <ns3:cad>40</ns3:cad>
          </ns3:TrackPointExtension>
        </extensions>
      </trkpt>
      <trkpt lat="45.34109543077647686004638671875" lon="-70.82022783346474170684814453125">
        <ele>847.20001220703125</ele>
        <time>2026-08-21T11:47:13.000Z</time>
        <extensions>
          <ns3:TrackPointExtension>
            <ns3:hr>148</ns3:hr>
            <ns3:cad>40</ns3:cad>
          </ns3:TrackPointExtension>
        </extensions>
      </trkpt>
      <trkpt lat="45.341089479625225067138671875" lon="-70.82022406160831451416015625">
        <ele>847.4000244140625</ele>
        <time>2026-08-21T11:47:14.000Z</time>
        <extensions>
          <ns3:TrackPointExtension>
            <ns3:hr>148</ns3:hr>
            <ns3:cad>40</ns3:cad>
          </ns3:TrackPointExtension>
        </extensions>
      </trkpt>
      <trkpt lat="45.34107883460819721221923828125" lon="-70.8202188648283481597900390625">
        <ele>847.5999755859375</ele>
        <time>2026-08-21T11:47:15.000Z</time>
        <extensions>
          <ns3:TrackPointExtension>
            <ns3:hr>148</ns3:hr>
            <ns3:cad>19</ns3:cad>
          </ns3:TrackPointExtension>
        </extensions>
      </trkpt>
      <trkpt lat="45.3410738892853260040283203125" lon="-70.82021534442901611328125">
        <ele>847.79998779296875</ele>
        <time>2026-08-21T11:47:16.000Z</time>
        <extensions>
          <ns3:TrackPointExtension>
            <ns3:hr>149</ns3:hr>
            <ns3:cad>19</ns3:cad>
          </ns3:TrackPointExtension>
        </extensions>
      </trkpt>
      <trkpt lat="45.3410661779344081878662109375" lon="-70.8202111534774303436279296875">
        <ele>848</ele>
        <time>2026-08-21T11:47:17.000Z</time>
        <extensions>
          <ns3:TrackPointExtension>
            <ns3:hr>149</ns3:hr>
            <ns3:cad>19</ns3:cad>
          </ns3:TrackPointExtension>
        </extensions>
      </trkpt>
      <trkpt lat="45.34106123261153697967529296875" lon="-70.82020989619195461273193359375">
        <ele>848.20001220703125</ele>
        <time>2026-08-21T11:47:18.000Z</time>
        <extensions>
          <ns3:TrackPointExtension>
            <ns3:hr>149</ns3:hr>
            <ns3:cad>19</ns3:cad>
          </ns3:TrackPointExtension>
        </extensions>
      </trkpt>
      <trkpt lat="45.341045558452606201171875" lon="-70.82020218484103679656982421875">
        <ele>848.4000244140625</ele>
        <time>2026-08-21T11:47:19.000Z</time>
        <extensions>
          <ns3:TrackPointExtension>
            <ns3:hr>149</ns3:hr>
            <ns3:cad>0</ns3:cad>
          </ns3:TrackPointExtension>
        </extensions>
      </trkpt>
      <trkpt lat="45.341032482683658599853515625" lon="-70.82019380293786525726318359375">
        <ele>848.5999755859375</ele>
        <time>2026-08-21T11:47:20.000Z</time>
        <extensions>
          <ns3:TrackPointExtension>
            <ns3:hr>148</ns3:hr>
            <ns3:cad>0</ns3:cad>
          </ns3:TrackPointExtension>
        </extensions>
      </trkpt>
      <trkpt lat="45.3410232625901699066162109375" lon="-70.820192880928516387939453125">
        <ele>849</ele>
        <time>2026-08-21T11:47:21.000Z</time>
        <extensions>
          <ns3:TrackPointExtension>
            <ns3:hr>149</ns3:hr>
            <ns3:cad>0</ns3:cad>
          </ns3:TrackPointExtension>
        </extensions>
      </trkpt>
      <trkpt lat="45.341013036668300628662109375" lon="-70.820188857614994049072265625">
        <ele>849.20001220703125</ele>
        <time>2026-08-21T11:47:22.000Z</time>
        <extensions>
          <ns3:TrackPointExtension>
            <ns3:hr>149</ns3:hr>
            <ns3:cad>0</ns3:cad>
          </ns3:TrackPointExtension>
        </extensions>
      </trkpt>
      <trkpt lat="45.34100490622222423553466796875" lon="-70.82019053399562835693359375">
        <ele>849.4000244140625</ele>
        <time>2026-08-21T11:47:23.000Z</time>
        <extensions>
          <ns3:TrackPointExtension>
            <ns3:hr>148</ns3:hr>
            <ns3:cad>0</ns3:cad>
          </ns3:TrackPointExtension>
        </extensions>
      </trkpt>
      <trkpt lat="45.34099853597581386566162109375" lon="-70.8201925456523895263671875">
        <ele>849.79998779296875</ele>
        <time>2026-08-21T11:47:24.000Z</time>
        <extensions>
          <ns3:TrackPointExtension>
            <ns3:hr>149</ns3:hr>
            <ns3:cad>0</ns3:cad>
          </ns3:TrackPointExtension>
        </extensions>
      </trkpt>
      <trkpt lat="45.340994261205196380615234375" lon="-70.82019296474754810333251953125">
        <ele>850</ele>
        <time>2026-08-21T11:47:25.000Z</time>
        <extensions>
          <ns3:TrackPointExtension>
            <ns3:hr>149</ns3:hr>
            <ns3:cad>0</ns3:cad>
          </ns3:TrackPointExtension>
        </extensions>
      </trkpt>
      <trkpt lat="45.3409877233207225799560546875" lon="-70.8201870135962963104248046875">
        <ele>850.20001220703125</ele>
        <time>2026-08-21T11:47:26.000Z</time>
        <extensions>
          <ns3:TrackPointExtension>
            <ns3:hr>148</ns3:hr>
            <ns3:cad>0</ns3:cad>
          </ns3:TrackPointExtension>
        </extensions>
      </trkpt>
      <trkpt lat="45.3409843705594539642333984375" lon="-70.8201829902827739715576171875">
        <ele>850.4000244140625</ele>
        <time>2026-08-21T11:47:27.000Z</time>
        <extensions>
          <ns3:TrackPointExtension>
            <ns3:hr>148</ns3:hr>
            <ns3:cad>0</ns3:cad>
          </ns3:TrackPointExtension>
        </extensions>
      </trkpt>
      <trkpt lat="45.3409825265407562255859375" lon="-70.82017309963703155517578125">
        <ele>850.5999755859375</ele>
        <time>2026-08-21T11:47:28.000Z</time>
        <extensions>
          <ns3:TrackPointExtension>
            <ns3:hr>148</ns3:hr>
            <ns3:cad>0</ns3:cad>
          </ns3:TrackPointExtension>
        </extensions>
      </trkpt>
      <trkpt lat="45.3409780003130435943603515625" lon="-70.82015926949679851531982421875">
        <ele>851</ele>
        <time>2026-08-21T11:47:29.000Z</time>
        <extensions>
          <ns3:TrackPointExtension>
            <ns3:hr>149</ns3:hr>
            <ns3:cad>0</ns3:cad>
          </ns3:TrackPointExtension>
        </extensions>
      </trkpt>
      <trkpt lat="45.34097674302756786346435546875" lon="-70.820154659450054168701171875">
        <ele>851.20001220703125</ele>
        <time>2026-08-21T11:47:30.000Z</time>
        <extensions>
          <ns3:TrackPointExtension>
            <ns3:hr>149</ns3:hr>
            <ns3:cad>0</ns3:cad>
          </ns3:TrackPointExtension>
        </extensions>
      </trkpt>
      <trkpt lat="45.34097288735210895538330078125" lon="-70.82013462670147418975830078125">
        <ele>851.4000244140625</ele>
        <time>2026-08-21T11:47:31.000Z</time>
        <extensions>
          <ns3:TrackPointExtension>
            <ns3:hr>149</ns3:hr>
            <ns3:cad>0</ns3:cad>
          </ns3:TrackPointExtension>
        </extensions>
      </trkpt>
      <trkpt lat="45.34096668474376201629638671875" lon="-70.8201254904270172119140625">
        <ele>851.79998779296875</ele>
        <time>2026-08-21T11:47:32.000Z</time>
        <extensions>
          <ns3:TrackPointExtension>
            <ns3:hr>149</ns3:hr>
            <ns3:cad>0</ns3:cad>
          </ns3:TrackPointExtension>
        </extensions>
      </trkpt>
      <trkpt lat="45.34096383489668369293212890625" lon="-70.82011182792484760284423828125">
        <ele>852</ele>
        <time>2026-08-21T11:47:33.000Z</time>
        <extensions>
          <ns3:TrackPointExtension>
            <ns3:hr>150</ns3:hr>
            <ns3:cad>0</ns3:cad>
          </ns3:TrackPointExtension>
        </extensions>
      </trkpt>
      <trkpt lat="45.3409585542976856231689453125" lon="-70.82010026089847087860107421875">
        <ele>852.20001220703125</ele>
        <time>2026-08-21T11:47:34.000Z</time>
        <extensions>
          <ns3:TrackPointExtension>
            <ns3:hr>150</ns3:hr>
            <ns3:cad>0</ns3:cad>
          </ns3:TrackPointExtension>
        </extensions>
      </trkpt>
      <trkpt lat="45.34094958566129207611083984375" lon="-70.82008400000631809234619140625">
        <ele>852.4000244140625</ele>
        <time>2026-08-21T11:47:35.000Z</time>
        <extensions>
          <ns3:TrackPointExtension>
            <ns3:hr>150</ns3:hr>
            <ns3:cad>0</ns3:cad>
          </ns3:TrackPointExtension>
        </extensions>
      </trkpt>
      <trkpt lat="45.34094036556780338287353515625" lon="-70.8200723491609096527099609375">
        <ele>852.4000244140625</ele>
        <time>2026-08-21T11:47:36.000Z</time>
        <extensions>
          <ns3:TrackPointExtension>
            <ns3:hr>151</ns3:hr>
            <ns3:cad>0</ns3:cad>
          </ns3:TrackPointExtension>
        </extensions>
      </trkpt>
      <trkpt lat="45.3409334085881710052490234375" lon="-70.8200679905712604522705078125">
        <ele>852.5999755859375</ele>
        <time>2026-08-21T11:47:37.000Z</time>
        <extensions>
          <ns3:TrackPointExtension>
            <ns3:hr>150</ns3:hr>
            <ns3:cad>0</ns3:cad>
          </ns3:TrackPointExtension>
        </extensions>
      </trkpt>
      <trkpt lat="45.34092460758984088897705078125" lon="-70.82005701027810573577880859375">
        <ele>852.79998779296875</ele>
        <time>2026-08-21T11:47:38.000Z</time>
        <extensions>
          <ns3:TrackPointExtension>
            <ns3:hr>151</ns3:hr>
            <ns3:cad>0</ns3:cad>
          </ns3:TrackPointExtension>
        </extensions>
      </trkpt>
      <trkpt lat="45.340920500457286834716796875" lon="-70.820046029984951019287109375">
        <ele>852.79998779296875</ele>
        <time>2026-08-21T11:47:39.000Z</time>
        <extensions>
          <ns3:TrackPointExtension>
            <ns3:hr>151</ns3:hr>
            <ns3:cad>0</ns3:cad>
          </ns3:TrackPointExtension>
        </extensions>
      </trkpt>
      <trkpt lat="45.3409203328192234039306640625" lon="-70.8200394921004772186279296875">
        <ele>853</ele>
        <time>2026-08-21T11:47:40.000Z</time>
        <extensions>
          <ns3:TrackPointExtension>
            <ns3:hr>151</ns3:hr>
            <ns3:cad>0</ns3:cad>
          </ns3:TrackPointExtension>
        </extensions>
      </trkpt>
      <trkpt lat="45.340917147696018218994140625" lon="-70.82002297975122928619384765625">
        <ele>853</ele>
        <time>2026-08-21T11:47:41.000Z</time>
        <extensions>
          <ns3:TrackPointExtension>
            <ns3:hr>151</ns3:hr>
            <ns3:cad>0</ns3:cad>
          </ns3:TrackPointExtension>
        </extensions>
      </trkpt>
      <trkpt lat="45.34091974608600139617919921875" lon="-70.820005796849727630615234375">
        <ele>853</ele>
        <time>2026-08-21T11:47:42.000Z</time>
        <extensions>
          <ns3:TrackPointExtension>
            <ns3:hr>150</ns3:hr>
            <ns3:cad>0</ns3:cad>
          </ns3:TrackPointExtension>
        </extensions>
      </trkpt>
      <trkpt lat="45.3409193269908428192138671875" lon="-70.8199848420917987823486328125">
        <ele>853</ele>
        <time>2026-08-21T11:47:43.000Z</time>
        <extensions>
          <ns3:TrackPointExtension>
            <ns3:hr>150</ns3:hr>
            <ns3:cad>47</ns3:cad>
          </ns3:TrackPointExtension>
        </extensions>
      </trkpt>
      <trkpt lat="45.340915136039257049560546875" lon="-70.81996413879096508026123046875">
        <ele>853</ele>
        <time>2026-08-21T11:47:44.000Z</time>
        <extensions>
          <ns3:TrackPointExtension>
            <ns3:hr>150</ns3:hr>
            <ns3:cad>47</ns3:cad>
          </ns3:TrackPointExtension>
        </extensions>
      </trkpt>
      <trkpt lat="45.34091371111571788787841796875" lon="-70.8199710957705974578857421875">
        <ele>853</ele>
        <time>2026-08-21T11:47:45.000Z</time>
        <extensions>
          <ns3:TrackPointExtension>
            <ns3:hr>150</ns3:hr>
            <ns3:cad>47</ns3:cad>
          </ns3:TrackPointExtension>
        </extensions>
      </trkpt>
      <trkpt lat="45.34091077744960784912109375" lon="-70.819962210953235626220703125">
        <ele>853.20001220703125</ele>
        <time>2026-08-21T11:47:46.000Z</time>
        <extensions>
          <ns3:TrackPointExtension>
            <ns3:hr>150</ns3:hr>
            <ns3:cad>0</ns3:cad>
          </ns3:TrackPointExtension>
        </extensions>
      </trkpt>
      <trkpt lat="45.34090650267899036407470703125" lon="-70.81994569860398769378662109375">
        <ele>853.20001220703125</ele>
        <time>2026-08-21T11:47:47.000Z</time>
        <extensions>
          <ns3:TrackPointExtension>
            <ns3:hr>151</ns3:hr>
            <ns3:cad>0</ns3:cad>
          </ns3:TrackPointExtension>
        </extensions>
      </trkpt>
      <trkpt lat="45.34090566448867321014404296875" lon="-70.81992675550282001495361328125">
        <ele>853.4000244140625</ele>
        <time>2026-08-21T11:47:48.000Z</time>
        <extensions>
          <ns3:TrackPointExtension>
            <ns3:hr>150</ns3:hr>
            <ns3:cad>0</ns3:cad>
          </ns3:TrackPointExtension>
        </extensions>
      </trkpt>
      <trkpt lat="45.3409047424793243408203125" lon="-70.8199053816497325897216796875">
        <ele>853.4000244140625</ele>
        <time>2026-08-21T11:47:49.000Z</time>
        <extensions>
          <ns3:TrackPointExtension>
            <ns3:hr>150</ns3:hr>
            <ns3:cad>0</ns3:cad>
          </ns3:TrackPointExtension>
        </extensions>
      </trkpt>
      <trkpt lat="45.3409015573561191558837890625" lon="-70.8198869414627552032470703125">
        <ele>853.4000244140625</ele>
        <time>2026-08-21T11:47:50.000Z</time>
        <extensions>
          <ns3:TrackPointExtension>
            <ns3:hr>150</ns3:hr>
            <ns3:cad>0</ns3:cad>
          </ns3:TrackPointExtension>
        </extensions>
      </trkpt>
      <trkpt lat="45.34090030007064342498779296875" lon="-70.81986590288579463958740234375">
        <ele>853.4000244140625</ele>
        <time>2026-08-21T11:47:51.000Z</time>
        <extensions>
          <ns3:TrackPointExtension>
            <ns3:hr>151</ns3:hr>
            <ns3:cad>0</ns3:cad>
          </ns3:TrackPointExtension>
        </extensions>
      </trkpt>
      <trkpt lat="45.34089242108166217803955078125" lon="-70.819843523204326629638671875">
        <ele>853.4000244140625</ele>
        <time>2026-08-21T11:47:52.000Z</time>
        <extensions>
          <ns3:TrackPointExtension>
            <ns3:hr>150</ns3:hr>
            <ns3:cad>0</ns3:cad>
          </ns3:TrackPointExtension>
        </extensions>
      </trkpt>
      <trkpt lat="45.34087833948433399200439453125" lon="-70.81983656622469425201416015625">
        <ele>853.4000244140625</ele>
        <time>2026-08-21T11:47:53.000Z</time>
        <extensions>
          <ns3:TrackPointExtension>
            <ns3:hr>150</ns3:hr>
            <ns3:cad>57</ns3:cad>
          </ns3:TrackPointExtension>
        </extensions>
      </trkpt>
      <trkpt lat="45.34087230451405048370361328125" lon="-70.81983237527310848236083984375">
        <ele>853.4000244140625</ele>
        <time>2026-08-21T11:47:54.000Z</time>
        <extensions>
          <ns3:TrackPointExtension>
            <ns3:hr>150</ns3:hr>
            <ns3:cad>57</ns3:cad>
          </ns3:TrackPointExtension>
        </extensions>
      </trkpt>
      <trkpt lat="45.34085738472640514373779296875" lon="-70.81982399336993694305419921875">
        <ele>853.5999755859375</ele>
        <time>2026-08-21T11:47:55.000Z</time>
        <extensions>
          <ns3:TrackPointExtension>
            <ns3:hr>149</ns3:hr>
            <ns3:cad>57</ns3:cad>
          </ns3:TrackPointExtension>
        </extensions>
      </trkpt>
      <trkpt lat="45.340848751366138458251953125" lon="-70.81982441246509552001953125">
        <ele>854</ele>
        <time>2026-08-21T11:47:56.000Z</time>
        <extensions>
          <ns3:TrackPointExtension>
            <ns3:hr>149</ns3:hr>
            <ns3:cad>57</ns3:cad>
          </ns3:TrackPointExtension>
        </extensions>
      </trkpt>
      <trkpt lat="45.34084229730069637298583984375" lon="-70.81982986070215702056884765625">
        <ele>854.20001220703125</ele>
        <time>2026-08-21T11:47:57.000Z</time>
        <extensions>
          <ns3:TrackPointExtension>
            <ns3:hr>149</ns3:hr>
            <ns3:cad>57</ns3:cad>
          </ns3:TrackPointExtension>
        </extensions>
      </trkpt>
      <trkpt lat="45.3408341668546199798583984375" lon="-70.8198326267302036285400390625">
        <ele>854.5999755859375</ele>
        <time>2026-08-21T11:47:58.000Z</time>
        <extensions>
          <ns3:TrackPointExtension>
            <ns3:hr>149</ns3:hr>
            <ns3:cad>57</ns3:cad>
          </ns3:TrackPointExtension>
        </extensions>
      </trkpt>
      <trkpt lat="45.34082922153174877166748046875" lon="-70.819832794368267059326171875">
        <ele>854.79998779296875</ele>
        <time>2026-08-21T11:47:59.000Z</time>
        <extensions>
          <ns3:TrackPointExtension>
            <ns3:hr>149</ns3:hr>
            <ns3:cad>57</ns3:cad>
          </ns3:TrackPointExtension>
        </extensions>
      </trkpt>
      <trkpt lat="45.34081782214343547821044921875" lon="-70.8198359794914722442626953125">
        <ele>855.20001220703125</ele>
        <time>2026-08-21T11:48:00.000Z</time>
        <extensions>
          <ns3:TrackPointExtension>
            <ns3:hr>148</ns3:hr>
            <ns3:cad>45</ns3:cad>
          </ns3:TrackPointExtension>
        </extensions>
      </trkpt>
      <trkpt lat="45.34081153571605682373046875" lon="-70.81982977688312530517578125">
        <ele>855.4000244140625</ele>
        <time>2026-08-21T11:48:01.000Z</time>
        <extensions>
          <ns3:TrackPointExtension>
            <ns3:hr>148</ns3:hr>
            <ns3:cad>45</ns3:cad>
          </ns3:TrackPointExtension>
        </extensions>
      </trkpt>
      <trkpt lat="45.3408083505928516387939453125" lon="-70.8198265917599201202392578125">
        <ele>855.5999755859375</ele>
        <time>2026-08-21T11:48:02.000Z</time>
        <extensions>
          <ns3:TrackPointExtension>
            <ns3:hr>148</ns3:hr>
            <ns3:cad>46</ns3:cad>
          </ns3:TrackPointExtension>
        </extensions>
      </trkpt>
      <trkpt lat="45.34080172888934612274169921875" lon="-70.81981829367578029632568359375">
        <ele>855.79998779296875</ele>
        <time>2026-08-21T11:48:03.000Z</time>
        <extensions>
          <ns3:TrackPointExtension>
            <ns3:hr>148</ns3:hr>
            <ns3:cad>46</ns3:cad>
          </ns3:TrackPointExtension>
        </extensions>
      </trkpt>
      <trkpt lat="45.3407905809581279754638671875" lon="-70.8198121748864650726318359375">
        <ele>856</ele>
        <time>2026-08-21T11:48:04.000Z</time>
        <extensions>
          <ns3:TrackPointExtension>
            <ns3:hr>148</ns3:hr>
            <ns3:cad>46</ns3:cad>
          </ns3:TrackPointExtension>
        </extensions>
      </trkpt>
      <trkpt lat="45.3407813608646392822265625" lon="-70.81981276161968708038330078125">
        <ele>856.20001220703125</ele>
        <time>2026-08-21T11:48:05.000Z</time>
        <extensions>
          <ns3:TrackPointExtension>
            <ns3:hr>148</ns3:hr>
            <ns3:cad>47</ns3:cad>
          </ns3:TrackPointExtension>
        </extensions>
      </trkpt>
      <trkpt lat="45.34077624790370464324951171875" lon="-70.819810330867767333984375">
        <ele>856.4000244140625</ele>
        <time>2026-08-21T11:48:06.000Z</time>
        <extensions>
          <ns3:TrackPointExtension>
            <ns3:hr>148</ns3:hr>
            <ns3:cad>47</ns3:cad>
          </ns3:TrackPointExtension>
        </extensions>
      </trkpt>
      <trkpt lat="45.34077138639986515045166015625" lon="-70.81981142051517963409423828125">
        <ele>856.5999755859375</ele>
        <time>2026-08-21T11:48:07.000Z</time>
        <extensions>
          <ns3:TrackPointExtension>
            <ns3:hr>148</ns3:hr>
            <ns3:cad>47</ns3:cad>
          </ns3:TrackPointExtension>
        </extensions>
      </trkpt>
      <trkpt lat="45.34076769836246967315673828125" lon="-70.81980940885841846466064453125">
        <ele>856.79998779296875</ele>
        <time>2026-08-21T11:48:08.000Z</time>
        <extensions>
          <ns3:TrackPointExtension>
            <ns3:hr>148</ns3:hr>
            <ns3:cad>0</ns3:cad>
          </ns3:TrackPointExtension>
        </extensions>
      </trkpt>
      <trkpt lat="45.3407600708305835723876953125" lon="-70.819808654487133026123046875">
        <ele>857</ele>
        <time>2026-08-21T11:48:09.000Z</time>
        <extensions>
          <ns3:TrackPointExtension>
            <ns3:hr>148</ns3:hr>
            <ns3:cad>0</ns3:cad>
          </ns3:TrackPointExtension>
        </extensions>
      </trkpt>
      <trkpt lat="45.3407577238976955413818359375" lon="-70.81980823539197444915771484375">
        <ele>857.4000244140625</ele>
        <time>2026-08-21T11:48:10.000Z</time>
        <extensions>
          <ns3:TrackPointExtension>
            <ns3:hr>148</ns3:hr>
            <ns3:cad>0</ns3:cad>
          </ns3:TrackPointExtension>
        </extensions>
      </trkpt>
      <trkpt lat="45.34074624069035053253173828125" lon="-70.81980370916426181793212890625">
        <ele>857.5999755859375</ele>
        <time>2026-08-21T11:48:11.000Z</time>
        <extensions>
          <ns3:TrackPointExtension>
            <ns3:hr>147</ns3:hr>
            <ns3:cad>0</ns3:cad>
          </ns3:TrackPointExtension>
        </extensions>
      </trkpt>
      <trkpt lat="45.34073601476848125457763671875" lon="-70.819811336696147918701171875">
        <ele>858</ele>
        <time>2026-08-21T11:48:12.000Z</time>
        <extensions>
          <ns3:TrackPointExtension>
            <ns3:hr>148</ns3:hr>
            <ns3:cad>0</ns3:cad>
          </ns3:TrackPointExtension>
        </extensions>
      </trkpt>
      <trkpt lat="45.3407298959791660308837890625" lon="-70.8198151923716068267822265625">
        <ele>858.20001220703125</ele>
        <time>2026-08-21T11:48:13.000Z</time>
        <extensions>
          <ns3:TrackPointExtension>
            <ns3:hr>148</ns3:hr>
            <ns3:cad>0</ns3:cad>
          </ns3:TrackPointExtension>
        </extensions>
      </trkpt>
      <trkpt lat="45.34072972834110260009765625" lon="-70.8198185451328754425048828125">
        <ele>858.5999755859375</ele>
        <time>2026-08-21T11:48:14.000Z</time>
        <extensions>
          <ns3:TrackPointExtension>
            <ns3:hr>148</ns3:hr>
            <ns3:cad>0</ns3:cad>
          </ns3:TrackPointExtension>
        </extensions>
      </trkpt>
      <trkpt lat="45.3407258726656436920166015625" lon="-70.81981636583805084228515625">
        <ele>858.79998779296875</ele>
        <time>2026-08-21T11:48:15.000Z</time>
        <extensions>
          <ns3:TrackPointExtension>
            <ns3:hr>148</ns3:hr>
            <ns3:cad>0</ns3:cad>
          </ns3:TrackPointExtension>
        </extensions>
      </trkpt>
      <trkpt lat="45.34071405418217182159423828125" lon="-70.8198170363903045654296875">
        <ele>859</ele>
        <time>2026-08-21T11:48:16.000Z</time>
        <extensions>
          <ns3:TrackPointExtension>
            <ns3:hr>148</ns3:hr>
            <ns3:cad>0</ns3:cad>
          </ns3:TrackPointExtension>
        </extensions>
      </trkpt>
      <trkpt lat="45.3407117910683155059814453125" lon="-70.81981594674289226531982421875">
        <ele>859.4000244140625</ele>
        <time>2026-08-21T11:48:17.000Z</time>
        <extensions>
          <ns3:TrackPointExtension>
            <ns3:hr>147</ns3:hr>
            <ns3:cad>0</ns3:cad>
          </ns3:TrackPointExtension>
        </extensions>
      </trkpt>
      <trkpt lat="45.34069779329001903533935546875" lon="-70.81981393508613109588623046875">
        <ele>859.5999755859375</ele>
        <time>2026-08-21T11:48:18.000Z</time>
        <extensions>
          <ns3:TrackPointExtension>
            <ns3:hr>148</ns3:hr>
            <ns3:cad>0</ns3:cad>
          </ns3:TrackPointExtension>
        </extensions>
      </trkpt>
      <trkpt lat="45.3406896628439426422119140625" lon="-70.81981225870549678802490234375">
        <ele>859.79998779296875</ele>
        <time>2026-08-21T11:48:19.000Z</time>
        <extensions>
          <ns3:TrackPointExtension>
            <ns3:hr>148</ns3:hr>
            <ns3:cad>0</ns3:cad>
          </ns3:TrackPointExtension>
        </extensions>
      </trkpt>
      <trkpt lat="45.3406806103885173797607421875" lon="-70.81981192342936992645263671875">
        <ele>860</ele>
        <time>2026-08-21T11:48:20.000Z</time>
        <extensions>
          <ns3:TrackPointExtension>
            <ns3:hr>148</ns3:hr>
            <ns3:cad>0</ns3:cad>
          </ns3:TrackPointExtension>
        </extensions>
      </trkpt>
      <trkpt lat="45.34067013300955295562744140625" lon="-70.81981225870549678802490234375">
        <ele>860.20001220703125</ele>
        <time>2026-08-21T11:48:21.000Z</time>
        <extensions>
          <ns3:TrackPointExtension>
            <ns3:hr>148</ns3:hr>
            <ns3:cad>0</ns3:cad>
          </ns3:TrackPointExtension>
        </extensions>
      </trkpt>
      <trkpt lat="45.34065999090671539306640625" lon="-70.819809995591640472412109375">
        <ele>860.20001220703125</ele>
        <time>2026-08-21T11:48:22.000Z</time>
        <extensions>
          <ns3:TrackPointExtension>
            <ns3:hr>149</ns3:hr>
            <ns3:cad>0</ns3:cad>
          </ns3:TrackPointExtension>
        </extensions>
      </trkpt>
      <trkpt lat="45.34064347855746746063232421875" lon="-70.81981309689581394195556640625">
        <ele>860.4000244140625</ele>
        <time>2026-08-21T11:48:23.000Z</time>
        <extensions>
          <ns3:TrackPointExtension>
            <ns3:hr>149</ns3:hr>
            <ns3:cad>0</ns3:cad>
          </ns3:TrackPointExtension>
        </extensions>
      </trkpt>
      <trkpt lat="45.34063073806464672088623046875" lon="-70.81980706192553043365478515625">
        <ele>860.20001220703125</ele>
        <time>2026-08-21T11:48:24.000Z</time>
        <extensions>
          <ns3:TrackPointExtension>
            <ns3:hr>150</ns3:hr>
            <ns3:cad>44</ns3:cad>
          </ns3:TrackPointExtension>
        </extensions>
      </trkpt>
      <trkpt lat="45.3406175784766674041748046875" lon="-70.8198044635355472564697265625">
        <ele>860.20001220703125</ele>
        <time>2026-08-21T11:48:25.000Z</time>
        <extensions>
          <ns3:TrackPointExtension>
            <ns3:hr>150</ns3:hr>
            <ns3:cad>0</ns3:cad>
          </ns3:TrackPointExtension>
        </extensions>
      </trkpt>
      <trkpt lat="45.3406038321554660797119140625" lon="-70.81980831921100616455078125">
        <ele>860.20001220703125</ele>
        <time>2026-08-21T11:48:26.000Z</time>
        <extensions>
          <ns3:TrackPointExtension>
            <ns3:hr>150</ns3:hr>
            <ns3:cad>0</ns3:cad>
          </ns3:TrackPointExtension>
        </extensions>
      </trkpt>
      <trkpt lat="45.34059771336615085601806640625" lon="-70.81981368362903594970703125">
        <ele>860.20001220703125</ele>
        <time>2026-08-21T11:48:27.000Z</time>
        <extensions>
          <ns3:TrackPointExtension>
            <ns3:hr>150</ns3:hr>
            <ns3:cad>0</ns3:cad>
          </ns3:TrackPointExtension>
        </extensions>
      </trkpt>
      <trkpt lat="45.3405775129795074462890625" lon="-70.81982064060866832733154296875">
        <ele>860</ele>
        <time>2026-08-21T11:48:28.000Z</time>
        <extensions>
          <ns3:TrackPointExtension>
            <ns3:hr>150</ns3:hr>
            <ns3:cad>0</ns3:cad>
          </ns3:TrackPointExtension>
        </extensions>
      </trkpt>
      <trkpt lat="45.34056904725730419158935546875" lon="-70.819824077188968658447265625">
        <ele>859.79998779296875</ele>
        <time>2026-08-21T11:48:29.000Z</time>
        <extensions>
          <ns3:TrackPointExtension>
            <ns3:hr>150</ns3:hr>
            <ns3:cad>0</ns3:cad>
          </ns3:TrackPointExtension>
        </extensions>
      </trkpt>
      <trkpt lat="45.34055680967867374420166015625" lon="-70.81982281990349292755126953125">
        <ele>859.5999755859375</ele>
        <time>2026-08-21T11:48:30.000Z</time>
        <extensions>
          <ns3:TrackPointExtension>
            <ns3:hr>150</ns3:hr>
            <ns3:cad>0</ns3:cad>
          </ns3:TrackPointExtension>
        </extensions>
      </trkpt>
      <trkpt lat="45.34054708667099475860595703125" lon="-70.819824077188968658447265625">
        <ele>859.4000244140625</ele>
        <time>2026-08-21T11:48:31.000Z</time>
        <extensions>
          <ns3:TrackPointExtension>
            <ns3:hr>150</ns3:hr>
            <ns3:cad>0</ns3:cad>
          </ns3:TrackPointExtension>
        </extensions>
      </trkpt>
      <trkpt lat="45.34053660929203033447265625" lon="-70.81983354873955249786376953125">
        <ele>859.20001220703125</ele>
        <time>2026-08-21T11:48:32.000Z</time>
        <extensions>
          <ns3:TrackPointExtension>
            <ns3:hr>150</ns3:hr>
            <ns3:cad>0</ns3:cad>
          </ns3:TrackPointExtension>
        </extensions>
      </trkpt>
      <trkpt lat="45.340532250702381134033203125" lon="-70.8198358118534088134765625">
        <ele>859</ele>
        <time>2026-08-21T11:48:33.000Z</time>
        <extensions>
          <ns3:TrackPointExtension>
            <ns3:hr>150</ns3:hr>
            <ns3:cad>0</ns3:cad>
          </ns3:TrackPointExtension>
        </extensions>
      </trkpt>
      <trkpt lat="45.34052663482725620269775390625" lon="-70.81983245909214019775390625">
        <ele>858.79998779296875</ele>
        <time>2026-08-21T11:48:34.000Z</time>
        <extensions>
          <ns3:TrackPointExtension>
            <ns3:hr>150</ns3:hr>
            <ns3:cad>0</ns3:cad>
          </ns3:TrackPointExtension>
        </extensions>
      </trkpt>
      <trkpt lat="45.34051305614411830902099609375" lon="-70.81983254291117191314697265625">
        <ele>858.5999755859375</ele>
        <time>2026-08-21T11:48:35.000Z</time>
        <extensions>
          <ns3:TrackPointExtension>
            <ns3:hr>150</ns3:hr>
            <ns3:cad>0</ns3:cad>
          </ns3:TrackPointExtension>
        </extensions>
      </trkpt>
      <trkpt lat="45.340503416955471038818359375" lon="-70.81983958370983600616455078125">
        <ele>858.20001220703125</ele>
        <time>2026-08-21T11:48:36.000Z</time>
        <extensions>
          <ns3:TrackPointExtension>
            <ns3:hr>150</ns3:hr>
            <ns3:cad>0</ns3:cad>
          </ns3:TrackPointExtension>
        </extensions>
      </trkpt>
      <trkpt lat="45.34049243666231632232666015625" lon="-70.81984276883304119110107421875">
        <ele>858</ele>
        <time>2026-08-21T11:48:37.000Z</time>
        <extensions>
          <ns3:TrackPointExtension>
            <ns3:hr>150</ns3:hr>
            <ns3:cad>0</ns3:cad>
          </ns3:TrackPointExtension>
        </extensions>
      </trkpt>
      <trkpt lat="45.34048858098685741424560546875" lon="-70.8198426850140094757080078125">
        <ele>857.79998779296875</ele>
        <time>2026-08-21T11:48:38.000Z</time>
        <extensions>
          <ns3:TrackPointExtension>
            <ns3:hr>150</ns3:hr>
            <ns3:cad>0</ns3:cad>
          </ns3:TrackPointExtension>
        </extensions>
      </trkpt>
      <trkpt lat="45.3404791094362735748291015625" lon="-70.81984126009047031402587890625">
        <ele>857.4000244140625</ele>
        <time>2026-08-21T11:48:39.000Z</time>
        <extensions>
          <ns3:TrackPointExtension>
            <ns3:hr>149</ns3:hr>
            <ns3:cad>0</ns3:cad>
          </ns3:TrackPointExtension>
        </extensions>
      </trkpt>
      <trkpt lat="45.34046645276248455047607421875" lon="-70.81984126009047031402587890625">
        <ele>857.20001220703125</ele>
        <time>2026-08-21T11:48:40.000Z</time>
        <extensions>
          <ns3:TrackPointExtension>
            <ns3:hr>149</ns3:hr>
            <ns3:cad>0</ns3:cad>
          </ns3:TrackPointExtension>
        </extensions>
      </trkpt>
      <trkpt lat="45.3404479287564754486083984375" lon="-70.81983908079564571380615234375">
        <ele>857</ele>
        <time>2026-08-21T11:48:41.000Z</time>
        <extensions>
          <ns3:TrackPointExtension>
            <ns3:hr>149</ns3:hr>
            <ns3:cad>0</ns3:cad>
          </ns3:TrackPointExtension>
        </extensions>
      </trkpt>
      <trkpt lat="45.34043661318719387054443359375" lon="-70.81984050571918487548828125">
        <ele>856.5999755859375</ele>
        <time>2026-08-21T11:48:42.000Z</time>
        <extensions>
          <ns3:TrackPointExtension>
            <ns3:hr>148</ns3:hr>
            <ns3:cad>0</ns3:cad>
          </ns3:TrackPointExtension>
        </extensions>
      </trkpt>
      <trkpt lat="45.340423285961151123046875" lon="-70.81984461285173892974853515625">
        <ele>856.4000244140625</ele>
        <time>2026-08-21T11:48:43.000Z</time>
        <extensions>
          <ns3:TrackPointExtension>
            <ns3:hr>147</ns3:hr>
            <ns3:cad>0</ns3:cad>
          </ns3:TrackPointExtension>
        </extensions>
      </trkpt>
      <trkpt lat="45.34041398204863071441650390625" lon="-70.819844193756580352783203125">
        <ele>856.20001220703125</ele>
        <time>2026-08-21T11:48:44.000Z</time>
        <extensions>
          <ns3:TrackPointExtension>
            <ns3:hr>147</ns3:hr>
            <ns3:cad>0</ns3:cad>
          </ns3:TrackPointExtension>
        </extensions>
      </trkpt>
      <trkpt lat="45.34039713442325592041015625" lon="-70.8198379911482334136962890625">
        <ele>856</ele>
        <time>2026-08-21T11:48:45.000Z</time>
        <extensions>
          <ns3:TrackPointExtension>
            <ns3:hr>147</ns3:hr>
            <ns3:cad>0</ns3:cad>
          </ns3:TrackPointExtension>
        </extensions>
      </trkpt>
      <trkpt lat="45.3403842262923717498779296875" lon="-70.8198336325585842132568359375">
        <ele>856</ele>
        <time>2026-08-21T11:48:46.000Z</time>
        <extensions>
          <ns3:TrackPointExtension>
            <ns3:hr>147</ns3:hr>
            <ns3:cad>0</ns3:cad>
          </ns3:TrackPointExtension>
        </extensions>
      </trkpt>
      <trkpt lat="45.3403704799711704254150390625" lon="-70.819830112159252166748046875">
        <ele>855.5999755859375</ele>
        <time>2026-08-21T11:48:47.000Z</time>
        <extensions>
          <ns3:TrackPointExtension>
            <ns3:hr>147</ns3:hr>
            <ns3:cad>0</ns3:cad>
          </ns3:TrackPointExtension>
        </extensions>
      </trkpt>
      <trkpt lat="45.3403553925454616546630859375" lon="-70.8198286034166812896728515625">
        <ele>855.4000244140625</ele>
        <time>2026-08-21T11:48:48.000Z</time>
        <extensions>
          <ns3:TrackPointExtension>
            <ns3:hr>147</ns3:hr>
            <ns3:cad>0</ns3:cad>
          </ns3:TrackPointExtension>
        </extensions>
      </trkpt>
      <trkpt lat="45.340341143310070037841796875" lon="-70.81983287818729877471923828125">
        <ele>855.20001220703125</ele>
        <time>2026-08-21T11:48:49.000Z</time>
        <extensions>
          <ns3:TrackPointExtension>
            <ns3:hr>146</ns3:hr>
            <ns3:cad>77</ns3:cad>
          </ns3:TrackPointExtension>
        </extensions>
      </trkpt>
      <trkpt lat="45.34032815136015415191650390625" lon="-70.8198376558721065521240234375">
        <ele>854.79998779296875</ele>
        <time>2026-08-21T11:48:50.000Z</time>
        <extensions>
          <ns3:TrackPointExtension>
            <ns3:hr>145</ns3:hr>
            <ns3:cad>77</ns3:cad>
          </ns3:TrackPointExtension>
        </extensions>
      </trkpt>
      <trkpt lat="45.3403191827237606048583984375" lon="-70.81983924843370914459228515625">
        <ele>854.5999755859375</ele>
        <time>2026-08-21T11:48:51.000Z</time>
        <extensions>
          <ns3:TrackPointExtension>
            <ns3:hr>144</ns3:hr>
            <ns3:cad>77</ns3:cad>
          </ns3:TrackPointExtension>
        </extensions>
      </trkpt>
      <trkpt lat="45.340309627354145050048828125" lon="-70.8198396675288677215576171875">
        <ele>854.4000244140625</ele>
        <time>2026-08-21T11:48:52.000Z</time>
        <extensions>
          <ns3:TrackPointExtension>
            <ns3:hr>144</ns3:hr>
            <ns3:cad>77</ns3:cad>
          </ns3:TrackPointExtension>
        </extensions>
      </trkpt>
      <trkpt lat="45.3402910195291042327880859375" lon="-70.819844193756580352783203125">
        <ele>854.4000244140625</ele>
        <time>2026-08-21T11:48:53.000Z</time>
        <extensions>
          <ns3:TrackPointExtension>
            <ns3:hr>144</ns3:hr>
            <ns3:cad>77</ns3:cad>
          </ns3:TrackPointExtension>
        </extensions>
      </trkpt>
      <trkpt lat="45.34027777612209320068359375" lon="-70.8198450319468975067138671875">
        <ele>854.20001220703125</ele>
        <time>2026-08-21T11:48:54.000Z</time>
        <extensions>
          <ns3:TrackPointExtension>
            <ns3:hr>143</ns3:hr>
            <ns3:cad>77</ns3:cad>
          </ns3:TrackPointExtension>
        </extensions>
      </trkpt>
      <trkpt lat="45.34026310779154300689697265625" lon="-70.81984327174723148345947265625">
        <ele>854.20001220703125</ele>
        <time>2026-08-21T11:48:55.000Z</time>
        <extensions>
          <ns3:TrackPointExtension>
            <ns3:hr>142</ns3:hr>
            <ns3:cad>77</ns3:cad>
          </ns3:TrackPointExtension>
        </extensions>
      </trkpt>
      <trkpt lat="45.3402460925281047821044921875" lon="-70.819844864308834075927734375">
        <ele>854</ele>
        <time>2026-08-21T11:48:56.000Z</time>
        <extensions>
          <ns3:TrackPointExtension>
            <ns3:hr>141</ns3:hr>
            <ns3:cad>77</ns3:cad>
          </ns3:TrackPointExtension>
        </extensions>
      </trkpt>
      <trkpt lat="45.34023343585431575775146484375" lon="-70.8198451995849609375">
        <ele>853.79998779296875</ele>
        <time>2026-08-21T11:48:57.000Z</time>
        <extensions>
          <ns3:TrackPointExtension>
            <ns3:hr>140</ns3:hr>
            <ns3:cad>77</ns3:cad>
          </ns3:TrackPointExtension>
        </extensions>
      </trkpt>
      <trkpt lat="45.34021985717117786407470703125" lon="-70.81984511576592922210693359375">
        <ele>853.5999755859375</ele>
        <time>2026-08-21T11:48:58.000Z</time>
        <extensions>
          <ns3:TrackPointExtension>
            <ns3:hr>139</ns3:hr>
            <ns3:cad>0</ns3:cad>
          </ns3:TrackPointExtension>
        </extensions>
      </trkpt>
      <trkpt lat="45.3402025066316127777099609375" lon="-70.8198530785739421844482421875">
        <ele>853.4000244140625</ele>
        <time>2026-08-21T11:48:59.000Z</time>
        <extensions>
          <ns3:TrackPointExtension>
            <ns3:hr>138</ns3:hr>
            <ns3:cad>0</ns3:cad>
          </ns3:TrackPointExtension>
        </extensions>
      </trkpt>
      <trkpt lat="45.340191610157489776611328125" lon="-70.81986640579998493194580078125">
        <ele>853</ele>
        <time>2026-08-21T11:49:00.000Z</time>
        <extensions>
          <ns3:TrackPointExtension>
            <ns3:hr>137</ns3:hr>
            <ns3:cad>0</ns3:cad>
          </ns3:TrackPointExtension>
        </extensions>
      </trkpt>
      <trkpt lat="45.3401730023324489593505859375" lon="-70.81987931393086910247802734375">
        <ele>852.5999755859375</ele>
        <time>2026-08-21T11:49:01.000Z</time>
        <extensions>
          <ns3:TrackPointExtension>
            <ns3:hr>137</ns3:hr>
            <ns3:cad>0</ns3:cad>
          </ns3:TrackPointExtension>
        </extensions>
      </trkpt>
      <trkpt lat="45.3401602618396282196044921875" lon="-70.8198856003582477569580078125">
        <ele>852.20001220703125</ele>
        <time>2026-08-21T11:49:02.000Z</time>
        <extensions>
          <ns3:TrackPointExtension>
            <ns3:hr>136</ns3:hr>
            <ns3:cad>0</ns3:cad>
          </ns3:TrackPointExtension>
        </extensions>
      </trkpt>
      <trkpt lat="45.34014961682260036468505859375" lon="-70.81989540718495845794677734375">
        <ele>851.79998779296875</ele>
        <time>2026-08-21T11:49:03.000Z</time>
        <extensions>
          <ns3:TrackPointExtension>
            <ns3:hr>136</ns3:hr>
            <ns3:cad>0</ns3:cad>
          </ns3:TrackPointExtension>
        </extensions>
      </trkpt>
      <trkpt lat="45.34014425240457057952880859375" lon="-70.81991158425807952880859375">
        <ele>851.4000244140625</ele>
        <time>2026-08-21T11:49:04.000Z</time>
        <extensions>
          <ns3:TrackPointExtension>
            <ns3:hr>135</ns3:hr>
            <ns3:cad>0</ns3:cad>
          </ns3:TrackPointExtension>
        </extensions>
      </trkpt>
      <trkpt lat="45.3401374630630016326904296875" lon="-70.8199208043515682220458984375">
        <ele>851</ele>
        <time>2026-08-21T11:49:05.000Z</time>
        <extensions>
          <ns3:TrackPointExtension>
            <ns3:hr>135</ns3:hr>
            <ns3:cad>0</ns3:cad>
          </ns3:TrackPointExtension>
        </extensions>
      </trkpt>
      <trkpt lat="45.34013033844530582427978515625" lon="-70.81993178464472293853759765625">
        <ele>850.79998779296875</ele>
        <time>2026-08-21T11:49:06.000Z</time>
        <extensions>
          <ns3:TrackPointExtension>
            <ns3:hr>135</ns3:hr>
            <ns3:cad>0</ns3:cad>
          </ns3:TrackPointExtension>
        </extensions>
      </trkpt>
      <trkpt lat="45.34012212418019771575927734375" lon="-70.8199379034340381622314453125">
        <ele>850.4000244140625</ele>
        <time>2026-08-21T11:49:07.000Z</time>
        <extensions>
          <ns3:TrackPointExtension>
            <ns3:hr>135</ns3:hr>
            <ns3:cad>0</ns3:cad>
          </ns3:TrackPointExtension>
        </extensions>
      </trkpt>
      <trkpt lat="45.34011223353445529937744140625" lon="-70.81994167529046535491943359375">
        <ele>850.20001220703125</ele>
        <time>2026-08-21T11:49:08.000Z</time>
        <extensions>
          <ns3:TrackPointExtension>
            <ns3:hr>135</ns3:hr>
            <ns3:cad>0</ns3:cad>
          </ns3:TrackPointExtension>
        </extensions>
      </trkpt>
      <trkpt lat="45.34010636620223522186279296875" lon="-70.8199439384043216705322265625">
        <ele>849.79998779296875</ele>
        <time>2026-08-21T11:49:09.000Z</time>
        <extensions>
          <ns3:TrackPointExtension>
            <ns3:hr>134</ns3:hr>
            <ns3:cad>0</ns3:cad>
          </ns3:TrackPointExtension>
        </extensions>
      </trkpt>
      <trkpt lat="45.34009748138487339019775390625" lon="-70.8199456147849559783935546875">
        <ele>849.4000244140625</ele>
        <time>2026-08-21T11:49:10.000Z</time>
        <extensions>
          <ns3:TrackPointExtension>
            <ns3:hr>134</ns3:hr>
            <ns3:cad>0</ns3:cad>
          </ns3:TrackPointExtension>
        </extensions>
      </trkpt>
      <trkpt lat="45.3400920331478118896484375" lon="-70.8199479617178440093994140625">
        <ele>849</ele>
        <time>2026-08-21T11:49:11.000Z</time>
        <extensions>
          <ns3:TrackPointExtension>
            <ns3:hr>134</ns3:hr>
            <ns3:cad>0</ns3:cad>
          </ns3:TrackPointExtension>
        </extensions>
      </trkpt>
      <trkpt lat="45.340079963207244873046875" lon="-70.8199489675462245941162109375">
        <ele>848.5999755859375</ele>
        <time>2026-08-21T11:49:12.000Z</time>
        <extensions>
          <ns3:TrackPointExtension>
            <ns3:hr>133</ns3:hr>
            <ns3:cad>0</ns3:cad>
          </ns3:TrackPointExtension>
        </extensions>
      </trkpt>
      <trkpt lat="45.3400747664272785186767578125" lon="-70.819951482117176055908203125">
        <ele>848.4000244140625</ele>
        <time>2026-08-21T11:49:13.000Z</time>
        <extensions>
          <ns3:TrackPointExtension>
            <ns3:hr>133</ns3:hr>
            <ns3:cad>0</ns3:cad>
          </ns3:TrackPointExtension>
        </extensions>
      </trkpt>
      <trkpt lat="45.34006747417151927947998046875" lon="-70.81995139829814434051513671875">
        <ele>848</ele>
        <time>2026-08-21T11:49:14.000Z</time>
        <extensions>
          <ns3:TrackPointExtension>
            <ns3:hr>132</ns3:hr>
            <ns3:cad>0</ns3:cad>
          </ns3:TrackPointExtension>
        </extensions>
      </trkpt>
      <trkpt lat="45.34006026573479175567626953125" lon="-70.8199486322700977325439453125">
        <ele>847.5999755859375</ele>
        <time>2026-08-21T11:49:15.000Z</time>
        <extensions>
          <ns3:TrackPointExtension>
            <ns3:hr>130</ns3:hr>
            <ns3:cad>0</ns3:cad>
          </ns3:TrackPointExtension>
        </extensions>
      </trkpt>
      <trkpt lat="45.34005087800323963165283203125" lon="-70.81994184292852878570556640625">
        <ele>847.4000244140625</ele>
        <time>2026-08-21T11:49:16.000Z</time>
        <extensions>
          <ns3:TrackPointExtension>
            <ns3:hr>130</ns3:hr>
            <ns3:cad>0</ns3:cad>
          </ns3:TrackPointExtension>
        </extensions>
      </trkpt>
      <trkpt lat="45.34004266373813152313232421875" lon="-70.81994050182402133941650390625">
        <ele>847.20001220703125</ele>
        <time>2026-08-21T11:49:17.000Z</time>
        <extensions>
          <ns3:TrackPointExtension>
            <ns3:hr>130</ns3:hr>
            <ns3:cad>0</ns3:cad>
          </ns3:TrackPointExtension>
        </extensions>
      </trkpt>
      <trkpt lat="45.3400362096726894378662109375" lon="-70.819932706654071807861328125">
        <ele>846.79998779296875</ele>
        <time>2026-08-21T11:49:18.000Z</time>
        <extensions>
          <ns3:TrackPointExtension>
            <ns3:hr>130</ns3:hr>
            <ns3:cad>0</ns3:cad>
          </ns3:TrackPointExtension>
        </extensions>
      </trkpt>
      <trkpt lat="45.3400330245494842529296875" lon="-70.81992901861667633056640625">
        <ele>846.5999755859375</ele>
        <time>2026-08-21T11:49:19.000Z</time>
        <extensions>
          <ns3:TrackPointExtension>
            <ns3:hr>129</ns3:hr>
            <ns3:cad>0</ns3:cad>
          </ns3:TrackPointExtension>
        </extensions>
      </trkpt>
      <trkpt lat="45.34002707339823246002197265625" lon="-70.81992658786475658416748046875">
        <ele>846.4000244140625</ele>
        <time>2026-08-21T11:49:20.000Z</time>
        <extensions>
          <ns3:TrackPointExtension>
            <ns3:hr>129</ns3:hr>
            <ns3:cad>52</ns3:cad>
          </ns3:TrackPointExtension>
        </extensions>
      </trkpt>
      <trkpt lat="45.340017266571521759033203125" lon="-70.81992373801767826080322265625">
        <ele>846.20001220703125</ele>
        <time>2026-08-21T11:49:21.000Z</time>
        <extensions>
          <ns3:TrackPointExtension>
            <ns3:hr>129</ns3:hr>
            <ns3:cad>52</ns3:cad>
          </ns3:TrackPointExtension>
        </extensions>
      </trkpt>
      <trkpt lat="45.34001290798187255859375" lon="-70.81993530504405498504638671875">
        <ele>845.79998779296875</ele>
        <time>2026-08-21T11:49:22.000Z</time>
        <extensions>
          <ns3:TrackPointExtension>
            <ns3:hr>129</ns3:hr>
            <ns3:cad>0</ns3:cad>
          </ns3:TrackPointExtension>
        </extensions>
      </trkpt>
      <trkpt lat="45.34000880084931850433349609375" lon="-70.81994301639497280120849609375">
        <ele>845.4000244140625</ele>
        <time>2026-08-21T11:49:23.000Z</time>
        <extensions>
          <ns3:TrackPointExtension>
            <ns3:hr>129</ns3:hr>
            <ns3:cad>0</ns3:cad>
          </ns3:TrackPointExtension>
        </extensions>
      </trkpt>
      <trkpt lat="45.34000276587903499603271484375" lon="-70.81994536332786083221435546875">
        <ele>845.20001220703125</ele>
        <time>2026-08-21T11:49:24.000Z</time>
        <extensions>
          <ns3:TrackPointExtension>
            <ns3:hr>128</ns3:hr>
            <ns3:cad>0</ns3:cad>
          </ns3:TrackPointExtension>
        </extensions>
      </trkpt>
      <trkpt lat="45.33999807201325893402099609375" lon="-70.819940753281116485595703125">
        <ele>844.79998779296875</ele>
        <time>2026-08-21T11:49:25.000Z</time>
        <extensions>
          <ns3:TrackPointExtension>
            <ns3:hr>128</ns3:hr>
            <ns3:cad>0</ns3:cad>
          </ns3:TrackPointExtension>
        </extensions>
      </trkpt>
      <trkpt lat="45.33999354578554630279541015625" lon="-70.81993572413921356201171875">
        <ele>844.5999755859375</ele>
        <time>2026-08-21T11:49:26.000Z</time>
        <extensions>
          <ns3:TrackPointExtension>
            <ns3:hr>128</ns3:hr>
            <ns3:cad>0</ns3:cad>
          </ns3:TrackPointExtension>
        </extensions>
      </trkpt>
      <trkpt lat="45.33998767845332622528076171875" lon="-70.81993094645440578460693359375">
        <ele>844.4000244140625</ele>
        <time>2026-08-21T11:49:27.000Z</time>
        <extensions>
          <ns3:TrackPointExtension>
            <ns3:hr>127</ns3:hr>
            <ns3:cad>0</ns3:cad>
          </ns3:TrackPointExtension>
        </extensions>
      </trkpt>
      <trkpt lat="45.3399748541414737701416015625" lon="-70.819923989474773406982421875">
        <ele>844.4000244140625</ele>
        <time>2026-08-21T11:49:28.000Z</time>
        <extensions>
          <ns3:TrackPointExtension>
            <ns3:hr>127</ns3:hr>
            <ns3:cad>0</ns3:cad>
          </ns3:TrackPointExtension>
        </extensions>
      </trkpt>
      <trkpt lat="45.3399607725441455841064453125" lon="-70.81991963088512420654296875">
        <ele>844.4000244140625</ele>
        <time>2026-08-21T11:49:29.000Z</time>
        <extensions>
          <ns3:TrackPointExtension>
            <ns3:hr>127</ns3:hr>
            <ns3:cad>0</ns3:cad>
          </ns3:TrackPointExtension>
        </extensions>
      </trkpt>
      <trkpt lat="45.3399466909468173980712890625" lon="-70.81991485320031642913818359375">
        <ele>844.5999755859375</ele>
        <time>2026-08-21T11:49:30.000Z</time>
        <extensions>
          <ns3:TrackPointExtension>
            <ns3:hr>128</ns3:hr>
            <ns3:cad>0</ns3:cad>
          </ns3:TrackPointExtension>
        </extensions>
      </trkpt>
      <trkpt lat="45.33993436954915523529052734375" lon="-70.81990621984004974365234375">
        <ele>844.5999755859375</ele>
        <time>2026-08-21T11:49:31.000Z</time>
        <extensions>
          <ns3:TrackPointExtension>
            <ns3:hr>127</ns3:hr>
            <ns3:cad>0</ns3:cad>
          </ns3:TrackPointExtension>
        </extensions>
      </trkpt>
      <trkpt lat="45.3399245627224445343017578125" lon="-70.81989817321300506591796875">
        <ele>844.5999755859375</ele>
        <time>2026-08-21T11:49:32.000Z</time>
        <extensions>
          <ns3:TrackPointExtension>
            <ns3:hr>127</ns3:hr>
            <ns3:cad>0</ns3:cad>
          </ns3:TrackPointExtension>
        </extensions>
      </trkpt>
      <trkpt lat="45.33991090022027492523193359375" lon="-70.819890797138214111328125">
        <ele>844.79998779296875</ele>
        <time>2026-08-21T11:49:33.000Z</time>
        <extensions>
          <ns3:TrackPointExtension>
            <ns3:hr>127</ns3:hr>
            <ns3:cad>0</ns3:cad>
          </ns3:TrackPointExtension>
        </extensions>
      </trkpt>
      <trkpt lat="45.33989564515650272369384765625" lon="-70.81989188678562641143798828125">
        <ele>844.79998779296875</ele>
        <time>2026-08-21T11:49:34.000Z</time>
        <extensions>
          <ns3:TrackPointExtension>
            <ns3:hr>127</ns3:hr>
            <ns3:cad>0</ns3:cad>
          </ns3:TrackPointExtension>
        </extensions>
      </trkpt>
      <trkpt lat="45.33988022245466709136962890625" lon="-70.819899179041385650634765625">
        <ele>844.79998779296875</ele>
        <time>2026-08-21T11:49:35.000Z</time>
        <extensions>
          <ns3:TrackPointExtension>
            <ns3:hr>127</ns3:hr>
            <ns3:cad>0</ns3:cad>
          </ns3:TrackPointExtension>
        </extensions>
      </trkpt>
      <trkpt lat="45.33987100236117839813232421875" lon="-70.8199087344110012054443359375">
        <ele>844.79998779296875</ele>
        <time>2026-08-21T11:49:36.000Z</time>
        <extensions>
          <ns3:TrackPointExtension>
            <ns3:hr>127</ns3:hr>
            <ns3:cad>0</ns3:cad>
          </ns3:TrackPointExtension>
        </extensions>
      </trkpt>
      <trkpt lat="45.33985926769673824310302734375" lon="-70.8199216425418853759765625">
        <ele>845</ele>
        <time>2026-08-21T11:49:37.000Z</time>
        <extensions>
          <ns3:TrackPointExtension>
            <ns3:hr>128</ns3:hr>
            <ns3:cad>0</ns3:cad>
          </ns3:TrackPointExtension>
        </extensions>
      </trkpt>
      <trkpt lat="45.33984954468905925750732421875" lon="-70.8199318684637546539306640625">
        <ele>845</ele>
        <time>2026-08-21T11:49:38.000Z</time>
        <extensions>
          <ns3:TrackPointExtension>
            <ns3:hr>128</ns3:hr>
            <ns3:cad>0</ns3:cad>
          </ns3:TrackPointExtension>
        </extensions>
      </trkpt>
      <trkpt lat="45.3398434258997440338134765625" lon="-70.81994301639497280120849609375">
        <ele>845</ele>
        <time>2026-08-21T11:49:39.000Z</time>
        <extensions>
          <ns3:TrackPointExtension>
            <ns3:hr>128</ns3:hr>
            <ns3:cad>0</ns3:cad>
          </ns3:TrackPointExtension>
        </extensions>
      </trkpt>
      <trkpt lat="45.33983521163463592529296875" lon="-70.81994905136525630950927734375">
        <ele>845</ele>
        <time>2026-08-21T11:49:40.000Z</time>
        <extensions>
          <ns3:TrackPointExtension>
            <ns3:hr>128</ns3:hr>
            <ns3:cad>0</ns3:cad>
          </ns3:TrackPointExtension>
        </extensions>
      </trkpt>
      <trkpt lat="45.33983294852077960968017578125" lon="-70.81994871608912944793701171875">
        <ele>845.20001220703125</ele>
        <time>2026-08-21T11:49:41.000Z</time>
        <extensions>
          <ns3:TrackPointExtension>
            <ns3:hr>127</ns3:hr>
            <ns3:cad>0</ns3:cad>
          </ns3:TrackPointExtension>
        </extensions>
      </trkpt>
      <trkpt lat="45.339825153350830078125" lon="-70.81994972191751003265380859375">
        <ele>845.20001220703125</ele>
        <time>2026-08-21T11:49:42.000Z</time>
        <extensions>
          <ns3:TrackPointExtension>
            <ns3:hr>126</ns3:hr>
            <ns3:cad>0</ns3:cad>
          </ns3:TrackPointExtension>
        </extensions>
      </trkpt>
      <trkpt lat="45.3398122452199459075927734375" lon="-70.81995307467877864837646484375">
        <ele>845.20001220703125</ele>
        <time>2026-08-21T11:49:43.000Z</time>
        <extensions>
          <ns3:TrackPointExtension>
            <ns3:hr>125</ns3:hr>
            <ns3:cad>0</ns3:cad>
          </ns3:TrackPointExtension>
        </extensions>
      </trkpt>
      <trkpt lat="45.3398072160780429840087890625" lon="-70.81994754262268543243408203125">
        <ele>845.4000244140625</ele>
        <time>2026-08-21T11:49:44.000Z</time>
        <extensions>
          <ns3:TrackPointExtension>
            <ns3:hr>125</ns3:hr>
            <ns3:cad>0</ns3:cad>
          </ns3:TrackPointExtension>
        </extensions>
      </trkpt>
      <trkpt lat="45.33980294130742549896240234375" lon="-70.8199439384043216705322265625">
        <ele>845.4000244140625</ele>
        <time>2026-08-21T11:49:45.000Z</time>
        <extensions>
          <ns3:TrackPointExtension>
            <ns3:hr>124</ns3:hr>
            <ns3:cad>0</ns3:cad>
          </ns3:TrackPointExtension>
        </extensions>
      </trkpt>
      <trkpt lat="45.33978969790041446685791015625" lon="-70.81993572413921356201171875">
        <ele>845.5999755859375</ele>
        <time>2026-08-21T11:49:46.000Z</time>
        <extensions>
          <ns3:TrackPointExtension>
            <ns3:hr>123</ns3:hr>
            <ns3:cad>0</ns3:cad>
          </ns3:TrackPointExtension>
        </extensions>
      </trkpt>
      <trkpt lat="45.339787937700748443603515625" lon="-70.81992457620799541473388671875">
        <ele>845.5999755859375</ele>
        <time>2026-08-21T11:49:47.000Z</time>
        <extensions>
          <ns3:TrackPointExtension>
            <ns3:hr>123</ns3:hr>
            <ns3:cad>0</ns3:cad>
          </ns3:TrackPointExtension>
        </extensions>
      </trkpt>
      <trkpt lat="45.33978198654949665069580078125" lon="-70.8199104107916355133056640625">
        <ele>845.79998779296875</ele>
        <time>2026-08-21T11:49:48.000Z</time>
        <extensions>
          <ns3:TrackPointExtension>
            <ns3:hr>122</ns3:hr>
            <ns3:cad>0</ns3:cad>
          </ns3:TrackPointExtension>
        </extensions>
      </trkpt>
      <trkpt lat="45.33977947197854518890380859375" lon="-70.81989540718495845794677734375">
        <ele>845.79998779296875</ele>
        <time>2026-08-21T11:49:49.000Z</time>
        <extensions>
          <ns3:TrackPointExtension>
            <ns3:hr>122</ns3:hr>
            <ns3:cad>0</ns3:cad>
          </ns3:TrackPointExtension>
        </extensions>
      </trkpt>
      <trkpt lat="45.3397783823311328887939453125" lon="-70.8198869414627552032470703125">
        <ele>846</ele>
        <time>2026-08-21T11:49:50.000Z</time>
        <extensions>
          <ns3:TrackPointExtension>
            <ns3:hr>122</ns3:hr>
            <ns3:cad>0</ns3:cad>
          </ns3:TrackPointExtension>
        </extensions>
      </trkpt>
      <trkpt lat="45.339775197207927703857421875" lon="-70.81987478770315647125244140625">
        <ele>846.20001220703125</ele>
        <time>2026-08-21T11:49:51.000Z</time>
        <extensions>
          <ns3:TrackPointExtension>
            <ns3:hr>122</ns3:hr>
            <ns3:cad>55</ns3:cad>
          </ns3:TrackPointExtension>
        </extensions>
      </trkpt>
      <trkpt lat="45.33976622857153415679931640625" lon="-70.81985986791551113128662109375">
        <ele>846.20001220703125</ele>
        <time>2026-08-21T11:49:52.000Z</time>
        <extensions>
          <ns3:TrackPointExtension>
            <ns3:hr>122</ns3:hr>
            <ns3:cad>55</ns3:cad>
          </ns3:TrackPointExtension>
        </extensions>
      </trkpt>
      <trkpt lat="45.3397515602409839630126953125" lon="-70.81984587013721466064453125">
        <ele>846.20001220703125</ele>
        <time>2026-08-21T11:49:53.000Z</time>
        <extensions>
          <ns3:TrackPointExtension>
            <ns3:hr>122</ns3:hr>
            <ns3:cad>55</ns3:cad>
          </ns3:TrackPointExtension>
        </extensions>
      </trkpt>
      <trkpt lat="45.33974259160459041595458984375" lon="-70.81983891315758228302001953125">
        <ele>846.4000244140625</ele>
        <time>2026-08-21T11:49:54.000Z</time>
        <extensions>
          <ns3:TrackPointExtension>
            <ns3:hr>123</ns3:hr>
            <ns3:cad>55</ns3:cad>
          </ns3:TrackPointExtension>
        </extensions>
      </trkpt>
      <trkpt lat="45.3397290967404842376708984375" lon="-70.81983053125441074371337890625">
        <ele>846.4000244140625</ele>
        <time>2026-08-21T11:49:55.000Z</time>
        <extensions>
          <ns3:TrackPointExtension>
            <ns3:hr>124</ns3:hr>
            <ns3:cad>55</ns3:cad>
          </ns3:TrackPointExtension>
        </extensions>
      </trkpt>
      <trkpt lat="45.3397245705127716064453125" lon="-70.8198195509612560272216796875">
        <ele>846.5999755859375</ele>
        <time>2026-08-21T11:49:56.000Z</time>
        <extensions>
          <ns3:TrackPointExtension>
            <ns3:hr>124</ns3:hr>
            <ns3:cad>55</ns3:cad>
          </ns3:TrackPointExtension>
        </extensions>
      </trkpt>
      <trkpt lat="45.33972029574215412139892578125" lon="-70.8198088221251964569091796875">
        <ele>846.5999755859375</ele>
        <time>2026-08-21T11:49:57.000Z</time>
        <extensions>
          <ns3:TrackPointExtension>
            <ns3:hr>126</ns3:hr>
            <ns3:cad>55</ns3:cad>
          </ns3:TrackPointExtension>
        </extensions>
      </trkpt>
      <trkpt lat="45.33971409313380718231201171875" lon="-70.81979583017528057098388671875">
        <ele>846.5999755859375</ele>
        <time>2026-08-21T11:49:58.000Z</time>
        <extensions>
          <ns3:TrackPointExtension>
            <ns3:hr>127</ns3:hr>
            <ns3:cad>50</ns3:cad>
          </ns3:TrackPointExtension>
        </extensions>
      </trkpt>
      <trkpt lat="45.3397031128406524658203125" lon="-70.819788537919521331787109375">
        <ele>846.79998779296875</ele>
        <time>2026-08-21T11:49:59.000Z</time>
        <extensions>
          <ns3:TrackPointExtension>
            <ns3:hr>128</ns3:hr>
            <ns3:cad>0</ns3:cad>
          </ns3:TrackPointExtension>
        </extensions>
      </trkpt>
      <trkpt lat="45.3396965749561786651611328125" lon="-70.819783173501491546630859375">
        <ele>846.79998779296875</ele>
        <time>2026-08-21T11:50:00.000Z</time>
        <extensions>
          <ns3:TrackPointExtension>
            <ns3:hr>129</ns3:hr>
            <ns3:cad>0</ns3:cad>
          </ns3:TrackPointExtension>
        </extensions>
      </trkpt>
      <trkpt lat="45.3396861813962459564208984375" lon="-70.81977772526443004608154296875">
        <ele>847</ele>
        <time>2026-08-21T11:50:01.000Z</time>
        <extensions>
          <ns3:TrackPointExtension>
            <ns3:hr>130</ns3:hr>
            <ns3:cad>0</ns3:cad>
          </ns3:TrackPointExtension>
        </extensions>
      </trkpt>
      <trkpt lat="45.3396724350750446319580078125" lon="-70.8197685889899730682373046875">
        <ele>847.20001220703125</ele>
        <time>2026-08-21T11:50:02.000Z</time>
        <extensions>
          <ns3:TrackPointExtension>
            <ns3:hr>130</ns3:hr>
            <ns3:cad>0</ns3:cad>
          </ns3:TrackPointExtension>
        </extensions>
      </trkpt>
      <trkpt lat="45.33966547809541225433349609375" lon="-70.81976498477160930633544921875">
        <ele>847.4000244140625</ele>
        <time>2026-08-21T11:50:03.000Z</time>
        <extensions>
          <ns3:TrackPointExtension>
            <ns3:hr>130</ns3:hr>
            <ns3:cad>0</ns3:cad>
          </ns3:TrackPointExtension>
        </extensions>
      </trkpt>
      <trkpt lat="45.33965541981160640716552734375" lon="-70.81976280547678470611572265625">
        <ele>847.5999755859375</ele>
        <time>2026-08-21T11:50:04.000Z</time>
        <extensions>
          <ns3:TrackPointExtension>
            <ns3:hr>129</ns3:hr>
            <ns3:cad>0</ns3:cad>
          </ns3:TrackPointExtension>
        </extensions>
      </trkpt>
      <trkpt lat="45.33964217640459537506103515625" lon="-70.81975978799164295196533203125">
        <ele>847.79998779296875</ele>
        <time>2026-08-21T11:50:05.000Z</time>
        <extensions>
          <ns3:TrackPointExtension>
            <ns3:hr>129</ns3:hr>
            <ns3:cad>0</ns3:cad>
          </ns3:TrackPointExtension>
        </extensions>
      </trkpt>
      <trkpt lat="45.339632369577884674072265625" lon="-70.8197571896016597747802734375">
        <ele>848</ele>
        <time>2026-08-21T11:50:06.000Z</time>
        <extensions>
          <ns3:TrackPointExtension>
            <ns3:hr>130</ns3:hr>
            <ns3:cad>41</ns3:cad>
          </ns3:TrackPointExtension>
        </extensions>
      </trkpt>
      <trkpt lat="45.33962273038923740386962890625" lon="-70.81975308246910572052001953125">
        <ele>848.4000244140625</ele>
        <time>2026-08-21T11:50:07.000Z</time>
        <extensions>
          <ns3:TrackPointExtension>
            <ns3:hr>130</ns3:hr>
            <ns3:cad>41</ns3:cad>
          </ns3:TrackPointExtension>
        </extensions>
      </trkpt>
      <trkpt lat="45.33961501903831958770751953125" lon="-70.8197518251836299896240234375">
        <ele>848.5999755859375</ele>
        <time>2026-08-21T11:50:08.000Z</time>
        <extensions>
          <ns3:TrackPointExtension>
            <ns3:hr>130</ns3:hr>
            <ns3:cad>41</ns3:cad>
          </ns3:TrackPointExtension>
        </extensions>
      </trkpt>
      <trkpt lat="45.33960454165935516357421875" lon="-70.81975207664072513580322265625">
        <ele>848.79998779296875</ele>
        <time>2026-08-21T11:50:09.000Z</time>
        <extensions>
          <ns3:TrackPointExtension>
            <ns3:hr>130</ns3:hr>
            <ns3:cad>41</ns3:cad>
          </ns3:TrackPointExtension>
        </extensions>
      </trkpt>
      <trkpt lat="45.339602530002593994140625" lon="-70.81975408829748630523681640625">
        <ele>849</ele>
        <time>2026-08-21T11:50:10.000Z</time>
        <extensions>
          <ns3:TrackPointExtension>
            <ns3:hr>130</ns3:hr>
            <ns3:cad>43</ns3:cad>
          </ns3:TrackPointExtension>
        </extensions>
      </trkpt>
      <trkpt lat="45.33959649503231048583984375" lon="-70.8197508193552494049072265625">
        <ele>849.20001220703125</ele>
        <time>2026-08-21T11:50:11.000Z</time>
        <extensions>
          <ns3:TrackPointExtension>
            <ns3:hr>130</ns3:hr>
            <ns3:cad>43</ns3:cad>
          </ns3:TrackPointExtension>
        </extensions>
      </trkpt>
      <trkpt lat="45.3395943157374858856201171875" lon="-70.819746963679790496826171875">
        <ele>849.4000244140625</ele>
        <time>2026-08-21T11:50:12.000Z</time>
        <extensions>
          <ns3:TrackPointExtension>
            <ns3:hr>131</ns3:hr>
            <ns3:cad>43</ns3:cad>
          </ns3:TrackPointExtension>
        </extensions>
      </trkpt>
      <trkpt lat="45.33959054388105869293212890625" lon="-70.81974520348012447357177734375">
        <ele>849.79998779296875</ele>
        <time>2026-08-21T11:50:13.000Z</time>
        <extensions>
          <ns3:TrackPointExtension>
            <ns3:hr>132</ns3:hr>
            <ns3:cad>0</ns3:cad>
          </ns3:TrackPointExtension>
        </extensions>
      </trkpt>
      <trkpt lat="45.3395933099091053009033203125" lon="-70.81973858177661895751953125">
        <ele>850</ele>
        <time>2026-08-21T11:50:14.000Z</time>
        <extensions>
          <ns3:TrackPointExtension>
            <ns3:hr>132</ns3:hr>
            <ns3:cad>0</ns3:cad>
          </ns3:TrackPointExtension>
        </extensions>
      </trkpt>
      <trkpt lat="45.3395877778530120849609375" lon="-70.81973858177661895751953125">
        <ele>850.20001220703125</ele>
        <time>2026-08-21T11:50:15.000Z</time>
        <extensions>
          <ns3:TrackPointExtension>
            <ns3:hr>132</ns3:hr>
            <ns3:cad>0</ns3:cad>
          </ns3:TrackPointExtension>
        </extensions>
      </trkpt>
      <trkpt lat="45.33958400599658489227294921875" lon="-70.81973480992019176483154296875">
        <ele>850.4000244140625</ele>
        <time>2026-08-21T11:50:16.000Z</time>
        <extensions>
          <ns3:TrackPointExtension>
            <ns3:hr>132</ns3:hr>
            <ns3:cad>0</ns3:cad>
          </ns3:TrackPointExtension>
        </extensions>
      </trkpt>
      <trkpt lat="45.3395705111324787139892578125" lon="-70.81972877494990825653076171875">
        <ele>850.79998779296875</ele>
        <time>2026-08-21T11:50:17.000Z</time>
        <extensions>
          <ns3:TrackPointExtension>
            <ns3:hr>132</ns3:hr>
            <ns3:cad>47</ns3:cad>
          </ns3:TrackPointExtension>
        </extensions>
      </trkpt>
      <trkpt lat="45.33956137485802173614501953125" lon="-70.81972517073154449462890625">
        <ele>851</ele>
        <time>2026-08-21T11:50:18.000Z</time>
        <extensions>
          <ns3:TrackPointExtension>
            <ns3:hr>133</ns3:hr>
            <ns3:cad>47</ns3:cad>
          </ns3:TrackPointExtension>
        </extensions>
      </trkpt>
      <trkpt lat="45.33955181948840618133544921875" lon="-70.81972374580800533294677734375">
        <ele>851.20001220703125</ele>
        <time>2026-08-21T11:50:19.000Z</time>
        <extensions>
          <ns3:TrackPointExtension>
            <ns3:hr>133</ns3:hr>
            <ns3:cad>47</ns3:cad>
          </ns3:TrackPointExtension>
        </extensions>
      </trkpt>
      <trkpt lat="45.3395457006990909576416015625" lon="-70.81972290761768817901611328125">
        <ele>851.4000244140625</ele>
        <time>2026-08-21T11:50:20.000Z</time>
        <extensions>
          <ns3:TrackPointExtension>
            <ns3:hr>133</ns3:hr>
            <ns3:cad>47</ns3:cad>
          </ns3:TrackPointExtension>
        </extensions>
      </trkpt>
      <trkpt lat="45.339532792568206787109375" lon="-70.81973078660666942596435546875">
        <ele>851.5999755859375</ele>
        <time>2026-08-21T11:50:21.000Z</time>
        <extensions>
          <ns3:TrackPointExtension>
            <ns3:hr>133</ns3:hr>
            <ns3:cad>47</ns3:cad>
          </ns3:TrackPointExtension>
        </extensions>
      </trkpt>
      <trkpt lat="45.33953103236854076385498046875" lon="-70.819737575948238372802734375">
        <ele>851.79998779296875</ele>
        <time>2026-08-21T11:50:22.000Z</time>
        <extensions>
          <ns3:TrackPointExtension>
            <ns3:hr>134</ns3:hr>
            <ns3:cad>0</ns3:cad>
          </ns3:TrackPointExtension>
        </extensions>
      </trkpt>
      <trkpt lat="45.339522063732147216796875" lon="-70.81974126398563385009765625">
        <ele>852</ele>
        <time>2026-08-21T11:50:23.000Z</time>
        <extensions>
          <ns3:TrackPointExtension>
            <ns3:hr>135</ns3:hr>
            <ns3:cad>0</ns3:cad>
          </ns3:TrackPointExtension>
        </extensions>
      </trkpt>
      <trkpt lat="45.33951628021895885467529296875" lon="-70.81974620930850505828857421875">
        <ele>852.20001220703125</ele>
        <time>2026-08-21T11:50:24.000Z</time>
        <extensions>
          <ns3:TrackPointExtension>
            <ns3:hr>136</ns3:hr>
            <ns3:cad>0</ns3:cad>
          </ns3:TrackPointExtension>
        </extensions>
      </trkpt>
      <trkpt lat="45.33951443620026111602783203125" lon="-70.81975425593554973602294921875">
        <ele>852.4000244140625</ele>
        <time>2026-08-21T11:50:25.000Z</time>
        <extensions>
          <ns3:TrackPointExtension>
            <ns3:hr>136</ns3:hr>
            <ns3:cad>0</ns3:cad>
          </ns3:TrackPointExtension>
        </extensions>
      </trkpt>
      <trkpt lat="45.33950806595385074615478515625" lon="-70.81975593231618404388427734375">
        <ele>852.5999755859375</ele>
        <time>2026-08-21T11:50:26.000Z</time>
        <extensions>
          <ns3:TrackPointExtension>
            <ns3:hr>136</ns3:hr>
            <ns3:cad>0</ns3:cad>
          </ns3:TrackPointExtension>
        </extensions>
      </trkpt>
      <trkpt lat="45.33949901349842548370361328125" lon="-70.81975928507745265960693359375">
        <ele>852.79998779296875</ele>
        <time>2026-08-21T11:50:27.000Z</time>
        <extensions>
          <ns3:TrackPointExtension>
            <ns3:hr>137</ns3:hr>
            <ns3:cad>73</ns3:cad>
          </ns3:TrackPointExtension>
        </extensions>
      </trkpt>
      <trkpt lat="45.33949633128941059112548828125" lon="-70.81976247020065784454345703125">
        <ele>853.20001220703125</ele>
        <time>2026-08-21T11:50:28.000Z</time>
        <extensions>
          <ns3:TrackPointExtension>
            <ns3:hr>138</ns3:hr>
            <ns3:cad>73</ns3:cad>
          </ns3:TrackPointExtension>
        </extensions>
      </trkpt>
      <trkpt lat="45.3394897095859050750732421875" lon="-70.81976548768579959869384765625">
        <ele>853.4000244140625</ele>
        <time>2026-08-21T11:50:29.000Z</time>
        <extensions>
          <ns3:TrackPointExtension>
            <ns3:hr>139</ns3:hr>
            <ns3:cad>78</ns3:cad>
          </ns3:TrackPointExtension>
        </extensions>
      </trkpt>
      <trkpt lat="45.33948359079658985137939453125" lon="-70.8197662420570850372314453125">
        <ele>853.5999755859375</ele>
        <time>2026-08-21T11:50:30.000Z</time>
        <extensions>
          <ns3:TrackPointExtension>
            <ns3:hr>140</ns3:hr>
            <ns3:cad>78</ns3:cad>
          </ns3:TrackPointExtension>
        </extensions>
      </trkpt>
      <trkpt lat="45.33948116004467010498046875" lon="-70.81976397894322872161865234375">
        <ele>853.79998779296875</ele>
        <time>2026-08-21T11:50:31.000Z</time>
        <extensions>
          <ns3:TrackPointExtension>
            <ns3:hr>140</ns3:hr>
            <ns3:cad>78</ns3:cad>
          </ns3:TrackPointExtension>
        </extensions>
      </trkpt>
      <trkpt lat="45.339474789798259735107421875" lon="-70.8197659067809581756591796875">
        <ele>854</ele>
        <time>2026-08-21T11:50:32.000Z</time>
        <extensions>
          <ns3:TrackPointExtension>
            <ns3:hr>140</ns3:hr>
            <ns3:cad>0</ns3:cad>
          </ns3:TrackPointExtension>
        </extensions>
      </trkpt>
      <trkpt lat="45.339473448693752288818359375" lon="-70.81976280547678470611572265625">
        <ele>854.20001220703125</ele>
        <time>2026-08-21T11:50:33.000Z</time>
        <extensions>
          <ns3:TrackPointExtension>
            <ns3:hr>140</ns3:hr>
            <ns3:cad>0</ns3:cad>
          </ns3:TrackPointExtension>
        </extensions>
      </trkpt>
      <trkpt lat="45.33947051502764225006103515625" lon="-70.81975760869681835174560546875">
        <ele>854.4000244140625</ele>
        <time>2026-08-21T11:50:34.000Z</time>
        <extensions>
          <ns3:TrackPointExtension>
            <ns3:hr>140</ns3:hr>
            <ns3:cad>0</ns3:cad>
          </ns3:TrackPointExtension>
        </extensions>
      </trkpt>
      <trkpt lat="45.33947520889341831207275390625" lon="-70.819752998650074005126953125">
        <ele>854.79998779296875</ele>
        <time>2026-08-21T11:50:35.000Z</time>
        <extensions>
          <ns3:TrackPointExtension>
            <ns3:hr>141</ns3:hr>
            <ns3:cad>0</ns3:cad>
          </ns3:TrackPointExtension>
        </extensions>
      </trkpt>
      <trkpt lat="45.33947571180760860443115234375" lon="-70.8197474665939807891845703125">
        <ele>855</ele>
        <time>2026-08-21T11:50:36.000Z</time>
        <extensions>
          <ns3:TrackPointExtension>
            <ns3:hr>140</ns3:hr>
            <ns3:cad>0</ns3:cad>
          </ns3:TrackPointExtension>
        </extensions>
      </trkpt>
      <trkpt lat="45.33946833573281764984130859375" lon="-70.8197390846908092498779296875">
        <ele>855.20001220703125</ele>
        <time>2026-08-21T11:50:37.000Z</time>
        <extensions>
          <ns3:TrackPointExtension>
            <ns3:hr>140</ns3:hr>
            <ns3:cad>0</ns3:cad>
          </ns3:TrackPointExtension>
        </extensions>
      </trkpt>
      <trkpt lat="45.33946313895285129547119140625" lon="-70.8197364024817943572998046875">
        <ele>855.4000244140625</ele>
        <time>2026-08-21T11:50:38.000Z</time>
        <extensions>
          <ns3:TrackPointExtension>
            <ns3:hr>140</ns3:hr>
            <ns3:cad>0</ns3:cad>
          </ns3:TrackPointExtension>
        </extensions>
      </trkpt>
      <trkpt lat="45.3394563496112823486328125" lon="-70.81973187625408172607421875">
        <ele>855.79998779296875</ele>
        <time>2026-08-21T11:50:39.000Z</time>
        <extensions>
          <ns3:TrackPointExtension>
            <ns3:hr>141</ns3:hr>
            <ns3:cad>0</ns3:cad>
          </ns3:TrackPointExtension>
        </extensions>
      </trkpt>
      <trkpt lat="45.33944251947104930877685546875" lon="-70.81973053514957427978515625">
        <ele>856</ele>
        <time>2026-08-21T11:50:40.000Z</time>
        <extensions>
          <ns3:TrackPointExtension>
            <ns3:hr>141</ns3:hr>
            <ns3:cad>0</ns3:cad>
          </ns3:TrackPointExtension>
        </extensions>
      </trkpt>
      <trkpt lat="45.3394397534430027008056640625" lon="-70.81973128952085971832275390625">
        <ele>856</ele>
        <time>2026-08-21T11:50:41.000Z</time>
        <extensions>
          <ns3:TrackPointExtension>
            <ns3:hr>141</ns3:hr>
            <ns3:cad>0</ns3:cad>
          </ns3:TrackPointExtension>
        </extensions>
      </trkpt>
      <trkpt lat="45.33943816088140010833740234375" lon="-70.81972575746476650238037109375">
        <ele>856.20001220703125</ele>
        <time>2026-08-21T11:50:42.000Z</time>
        <extensions>
          <ns3:TrackPointExtension>
            <ns3:hr>142</ns3:hr>
            <ns3:cad>0</ns3:cad>
          </ns3:TrackPointExtension>
        </extensions>
      </trkpt>
      <trkpt lat="45.33943044953048229217529296875" lon="-70.81972005777060985565185546875">
        <ele>856.5999755859375</ele>
        <time>2026-08-21T11:50:43.000Z</time>
        <extensions>
          <ns3:TrackPointExtension>
            <ns3:hr>141</ns3:hr>
            <ns3:cad>0</ns3:cad>
          </ns3:TrackPointExtension>
        </extensions>
      </trkpt>
      <trkpt lat="45.33942810259759426116943359375" lon="-70.81971846520900726318359375">
        <ele>856.79998779296875</ele>
        <time>2026-08-21T11:50:44.000Z</time>
        <extensions>
          <ns3:TrackPointExtension>
            <ns3:hr>142</ns3:hr>
            <ns3:cad>0</ns3:cad>
          </ns3:TrackPointExtension>
        </extensions>
      </trkpt>
      <trkpt lat="45.33942483365535736083984375" lon="-70.8197186328470706939697265625">
        <ele>857</ele>
        <time>2026-08-21T11:50:45.000Z</time>
        <extensions>
          <ns3:TrackPointExtension>
            <ns3:hr>143</ns3:hr>
            <ns3:cad>0</ns3:cad>
          </ns3:TrackPointExtension>
        </extensions>
      </trkpt>
      <trkpt lat="45.33941653557121753692626953125" lon="-70.8197189681231975555419921875">
        <ele>857.4000244140625</ele>
        <time>2026-08-21T11:50:46.000Z</time>
        <extensions>
          <ns3:TrackPointExtension>
            <ns3:hr>144</ns3:hr>
            <ns3:cad>0</ns3:cad>
          </ns3:TrackPointExtension>
        </extensions>
      </trkpt>
      <trkpt lat="45.3394136019051074981689453125" lon="-70.81971846520900726318359375">
        <ele>857.5999755859375</ele>
        <time>2026-08-21T11:50:47.000Z</time>
        <extensions>
          <ns3:TrackPointExtension>
            <ns3:hr>144</ns3:hr>
            <ns3:cad>0</ns3:cad>
          </ns3:TrackPointExtension>
        </extensions>
      </trkpt>
      <trkpt lat="45.33941301517188549041748046875" lon="-70.81972022540867328643798828125">
        <ele>858</ele>
        <time>2026-08-21T11:50:48.000Z</time>
        <extensions>
          <ns3:TrackPointExtension>
            <ns3:hr>144</ns3:hr>
            <ns3:cad>0</ns3:cad>
          </ns3:TrackPointExtension>
        </extensions>
      </trkpt>
      <trkpt lat="45.33940513618290424346923828125" lon="-70.81972223706543445587158203125">
        <ele>858.20001220703125</ele>
        <time>2026-08-21T11:50:49.000Z</time>
        <extensions>
          <ns3:TrackPointExtension>
            <ns3:hr>144</ns3:hr>
            <ns3:cad>0</ns3:cad>
          </ns3:TrackPointExtension>
        </extensions>
      </trkpt>
      <trkpt lat="45.33940195105969905853271484375" lon="-70.81972072832286357879638671875">
        <ele>858.4000244140625</ele>
        <time>2026-08-21T11:50:50.000Z</time>
        <extensions>
          <ns3:TrackPointExtension>
            <ns3:hr>143</ns3:hr>
            <ns3:cad>0</ns3:cad>
          </ns3:TrackPointExtension>
        </extensions>
      </trkpt>
      <trkpt lat="45.339401029050350189208984375" lon="-70.81971134059131145477294921875">
        <ele>858.79998779296875</ele>
        <time>2026-08-21T11:50:51.000Z</time>
        <extensions>
          <ns3:TrackPointExtension>
            <ns3:hr>144</ns3:hr>
            <ns3:cad>0</ns3:cad>
          </ns3:TrackPointExtension>
        </extensions>
      </trkpt>
      <trkpt lat="45.33939843066036701202392578125" lon="-70.81970396451652050018310546875">
        <ele>859</ele>
        <time>2026-08-21T11:50:52.000Z</time>
        <extensions>
          <ns3:TrackPointExtension>
            <ns3:hr>144</ns3:hr>
            <ns3:cad>0</ns3:cad>
          </ns3:TrackPointExtension>
        </extensions>
      </trkpt>
      <trkpt lat="45.3393944911658763885498046875" lon="-70.81969524733722209930419921875">
        <ele>859.20001220703125</ele>
        <time>2026-08-21T11:50:53.000Z</time>
        <extensions>
          <ns3:TrackPointExtension>
            <ns3:hr>144</ns3:hr>
            <ns3:cad>0</ns3:cad>
          </ns3:TrackPointExtension>
        </extensions>
      </trkpt>
      <trkpt lat="45.3393884561955928802490234375" lon="-70.81967865116894245147705078125">
        <ele>859.4000244140625</ele>
        <time>2026-08-21T11:50:54.000Z</time>
        <extensions>
          <ns3:TrackPointExtension>
            <ns3:hr>144</ns3:hr>
            <ns3:cad>0</ns3:cad>
          </ns3:TrackPointExtension>
        </extensions>
      </trkpt>
      <trkpt lat="45.3393874503672122955322265625" lon="-70.819665826857089996337890625">
        <ele>859.5999755859375</ele>
        <time>2026-08-21T11:50:55.000Z</time>
        <extensions>
          <ns3:TrackPointExtension>
            <ns3:hr>143</ns3:hr>
            <ns3:cad>0</ns3:cad>
          </ns3:TrackPointExtension>
        </extensions>
      </trkpt>
      <trkpt lat="45.33938736654818058013916015625" lon="-70.81965744495391845703125">
        <ele>860</ele>
        <time>2026-08-21T11:50:56.000Z</time>
        <extensions>
          <ns3:TrackPointExtension>
            <ns3:hr>145</ns3:hr>
            <ns3:cad>0</ns3:cad>
          </ns3:TrackPointExtension>
        </extensions>
      </trkpt>
      <trkpt lat="45.33938183449208736419677734375" lon="-70.81964059732854366302490234375">
        <ele>860.20001220703125</ele>
        <time>2026-08-21T11:50:57.000Z</time>
        <extensions>
          <ns3:TrackPointExtension>
            <ns3:hr>145</ns3:hr>
            <ns3:cad>0</ns3:cad>
          </ns3:TrackPointExtension>
        </extensions>
      </trkpt>
      <trkpt lat="45.3393777273595333099365234375" lon="-70.81962886266410350799560546875">
        <ele>860.4000244140625</ele>
        <time>2026-08-21T11:50:58.000Z</time>
        <extensions>
          <ns3:TrackPointExtension>
            <ns3:hr>145</ns3:hr>
            <ns3:cad>45</ns3:cad>
          </ns3:TrackPointExtension>
        </extensions>
      </trkpt>
      <trkpt lat="45.33937177620828151702880859375" lon="-70.81961343996226787567138671875">
        <ele>860.5999755859375</ele>
        <time>2026-08-21T11:50:59.000Z</time>
        <extensions>
          <ns3:TrackPointExtension>
            <ns3:hr>146</ns3:hr>
            <ns3:cad>0</ns3:cad>
          </ns3:TrackPointExtension>
        </extensions>
      </trkpt>
      <trkpt lat="45.33936222083866596221923828125" lon="-70.819596089422702789306640625">
        <ele>860.79998779296875</ele>
        <time>2026-08-21T11:51:00.000Z</time>
        <extensions>
          <ns3:TrackPointExtension>
            <ns3:hr>146</ns3:hr>
            <ns3:cad>0</ns3:cad>
          </ns3:TrackPointExtension>
        </extensions>
      </trkpt>
      <trkpt lat="45.33935652114450931549072265625" lon="-70.81958846189081668853759765625">
        <ele>861</ele>
        <time>2026-08-21T11:51:01.000Z</time>
        <extensions>
          <ns3:TrackPointExtension>
            <ns3:hr>146</ns3:hr>
            <ns3:cad>0</ns3:cad>
          </ns3:TrackPointExtension>
        </extensions>
      </trkpt>
      <trkpt lat="45.33934713341295719146728515625" lon="-70.81957605667412281036376953125">
        <ele>861.20001220703125</ele>
        <time>2026-08-21T11:51:02.000Z</time>
        <extensions>
          <ns3:TrackPointExtension>
            <ns3:hr>147</ns3:hr>
            <ns3:cad>0</ns3:cad>
          </ns3:TrackPointExtension>
        </extensions>
      </trkpt>
      <trkpt lat="45.33934327773749828338623046875" lon="-70.81956817768514156341552734375">
        <ele>861.5999755859375</ele>
        <time>2026-08-21T11:51:03.000Z</time>
        <extensions>
          <ns3:TrackPointExtension>
            <ns3:hr>148</ns3:hr>
            <ns3:cad>0</ns3:cad>
          </ns3:TrackPointExtension>
        </extensions>
      </trkpt>
      <trkpt lat="45.33934545703232288360595703125" lon="-70.81956750713288784027099609375">
        <ele>861.79998779296875</ele>
        <time>2026-08-21T11:51:04.000Z</time>
        <extensions>
          <ns3:TrackPointExtension>
            <ns3:hr>147</ns3:hr>
            <ns3:cad>43</ns3:cad>
          </ns3:TrackPointExtension>
        </extensions>
      </trkpt>
      <trkpt lat="45.3393458761274814605712890625" lon="-70.81956884823739528656005859375">
        <ele>862</ele>
        <time>2026-08-21T11:51:05.000Z</time>
        <extensions>
          <ns3:TrackPointExtension>
            <ns3:hr>148</ns3:hr>
            <ns3:cad>43</ns3:cad>
          </ns3:TrackPointExtension>
        </extensions>
      </trkpt>
      <trkpt lat="45.33933942206203937530517578125" lon="-70.81955753266811370849609375">
        <ele>862.20001220703125</ele>
        <time>2026-08-21T11:51:06.000Z</time>
        <extensions>
          <ns3:TrackPointExtension>
            <ns3:hr>149</ns3:hr>
            <ns3:cad>43</ns3:cad>
          </ns3:TrackPointExtension>
        </extensions>
      </trkpt>
      <trkpt lat="45.33933489583432674407958984375" lon="-70.81954655237495899200439453125">
        <ele>862.4000244140625</ele>
        <time>2026-08-21T11:51:07.000Z</time>
        <extensions>
          <ns3:TrackPointExtension>
            <ns3:hr>149</ns3:hr>
            <ns3:cad>43</ns3:cad>
          </ns3:TrackPointExtension>
        </extensions>
      </trkpt>
      <trkpt lat="45.339333303272724151611328125" lon="-70.8195432834327220916748046875">
        <ele>862.5999755859375</ele>
        <time>2026-08-21T11:51:08.000Z</time>
        <extensions>
          <ns3:TrackPointExtension>
            <ns3:hr>149</ns3:hr>
            <ns3:cad>43</ns3:cad>
          </ns3:TrackPointExtension>
        </extensions>
      </trkpt>
      <trkpt lat="45.33932953141629695892333984375" lon="-70.81953716464340686798095703125">
        <ele>862.79998779296875</ele>
        <time>2026-08-21T11:51:09.000Z</time>
        <extensions>
          <ns3:TrackPointExtension>
            <ns3:hr>148</ns3:hr>
            <ns3:cad>43</ns3:cad>
          </ns3:TrackPointExtension>
        </extensions>
      </trkpt>
      <trkpt lat="45.33931762911379337310791015625" lon="-70.8195322193205356597900390625">
        <ele>863</ele>
        <time>2026-08-21T11:51:10.000Z</time>
        <extensions>
          <ns3:TrackPointExtension>
            <ns3:hr>148</ns3:hr>
            <ns3:cad>0</ns3:cad>
          </ns3:TrackPointExtension>
        </extensions>
      </trkpt>
      <trkpt lat="45.33931612037122249603271484375" lon="-70.8195338957011699676513671875">
        <ele>863.4000244140625</ele>
        <time>2026-08-21T11:51:11.000Z</time>
        <extensions>
          <ns3:TrackPointExtension>
            <ns3:hr>148</ns3:hr>
            <ns3:cad>0</ns3:cad>
          </ns3:TrackPointExtension>
        </extensions>
      </trkpt>
      <trkpt lat="45.33931083977222442626953125" lon="-70.8195271901786327362060546875">
        <ele>863.5999755859375</ele>
        <time>2026-08-21T11:51:12.000Z</time>
        <extensions>
          <ns3:TrackPointExtension>
            <ns3:hr>148</ns3:hr>
            <ns3:cad>0</ns3:cad>
          </ns3:TrackPointExtension>
        </extensions>
      </trkpt>
      <trkpt lat="45.33929751254618167877197265625" lon="-70.81951788626611232757568359375">
        <ele>864</ele>
        <time>2026-08-21T11:51:13.000Z</time>
        <extensions>
          <ns3:TrackPointExtension>
            <ns3:hr>148</ns3:hr>
            <ns3:cad>0</ns3:cad>
          </ns3:TrackPointExtension>
        </extensions>
      </trkpt>
      <trkpt lat="45.3392900526523590087890625" lon="-70.81951654516160488128662109375">
        <ele>864.20001220703125</ele>
        <time>2026-08-21T11:51:14.000Z</time>
        <extensions>
          <ns3:TrackPointExtension>
            <ns3:hr>149</ns3:hr>
            <ns3:cad>0</ns3:cad>
          </ns3:TrackPointExtension>
        </extensions>
      </trkpt>
      <trkpt lat="45.33928477205336093902587890625" lon="-70.81951855681836605072021484375">
        <ele>864.4000244140625</ele>
        <time>2026-08-21T11:51:15.000Z</time>
        <extensions>
          <ns3:TrackPointExtension>
            <ns3:hr>149</ns3:hr>
            <ns3:cad>0</ns3:cad>
          </ns3:TrackPointExtension>
        </extensions>
      </trkpt>
      <trkpt lat="45.33927328884601593017578125" lon="-70.8195261843502521514892578125">
        <ele>864.5999755859375</ele>
        <time>2026-08-21T11:51:16.000Z</time>
        <extensions>
          <ns3:TrackPointExtension>
            <ns3:hr>149</ns3:hr>
            <ns3:cad>0</ns3:cad>
          </ns3:TrackPointExtension>
        </extensions>
      </trkpt>
      <trkpt lat="45.33926465548574924468994140625" lon="-70.819526351988315582275390625">
        <ele>865</ele>
        <time>2026-08-21T11:51:17.000Z</time>
        <extensions>
          <ns3:TrackPointExtension>
            <ns3:hr>149</ns3:hr>
            <ns3:cad>0</ns3:cad>
          </ns3:TrackPointExtension>
        </extensions>
      </trkpt>
      <trkpt lat="45.33926331438124179840087890625" lon="-70.819523669779300689697265625">
        <ele>865.20001220703125</ele>
        <time>2026-08-21T11:51:18.000Z</time>
        <extensions>
          <ns3:TrackPointExtension>
            <ns3:hr>149</ns3:hr>
            <ns3:cad>0</ns3:cad>
          </ns3:TrackPointExtension>
        </extensions>
      </trkpt>
      <trkpt lat="45.33925660885870456695556640625" lon="-70.81951595842838287353515625">
        <ele>865.4000244140625</ele>
        <time>2026-08-21T11:51:19.000Z</time>
        <extensions>
          <ns3:TrackPointExtension>
            <ns3:hr>149</ns3:hr>
            <ns3:cad>0</ns3:cad>
          </ns3:TrackPointExtension>
        </extensions>
      </trkpt>
      <trkpt lat="45.33925476484000682830810546875" lon="-70.81950983963906764984130859375">
        <ele>865.5999755859375</ele>
        <time>2026-08-21T11:51:20.000Z</time>
        <extensions>
          <ns3:TrackPointExtension>
            <ns3:hr>150</ns3:hr>
            <ns3:cad>0</ns3:cad>
          </ns3:TrackPointExtension>
        </extensions>
      </trkpt>
      <trkpt lat="45.33924789167940616607666015625" lon="-70.81950514577329158782958984375">
        <ele>865.79998779296875</ele>
        <time>2026-08-21T11:51:21.000Z</time>
        <extensions>
          <ns3:TrackPointExtension>
            <ns3:hr>150</ns3:hr>
            <ns3:cad>0</ns3:cad>
          </ns3:TrackPointExtension>
        </extensions>
      </trkpt>
      <trkpt lat="45.33924001269042491912841796875" lon="-70.8195007033646106719970703125">
        <ele>866</ele>
        <time>2026-08-21T11:51:22.000Z</time>
        <extensions>
          <ns3:TrackPointExtension>
            <ns3:hr>150</ns3:hr>
            <ns3:cad>0</ns3:cad>
          </ns3:TrackPointExtension>
        </extensions>
      </trkpt>
      <trkpt lat="45.3392416052520275115966796875" lon="-70.81949584186077117919921875">
        <ele>866.20001220703125</ele>
        <time>2026-08-21T11:51:23.000Z</time>
        <extensions>
          <ns3:TrackPointExtension>
            <ns3:hr>150</ns3:hr>
            <ns3:cad>0</ns3:cad>
          </ns3:TrackPointExtension>
        </extensions>
      </trkpt>
      <trkpt lat="45.33923984505236148834228515625" lon="-70.8194896392524242401123046875">
        <ele>866.4000244140625</ele>
        <time>2026-08-21T11:51:24.000Z</time>
        <extensions>
          <ns3:TrackPointExtension>
            <ns3:hr>151</ns3:hr>
            <ns3:cad>0</ns3:cad>
          </ns3:TrackPointExtension>
        </extensions>
      </trkpt>
      <trkpt lat="45.33923397772014141082763671875" lon="-70.8194849453866481781005859375">
        <ele>866.5999755859375</ele>
        <time>2026-08-21T11:51:25.000Z</time>
        <extensions>
          <ns3:TrackPointExtension>
            <ns3:hr>151</ns3:hr>
            <ns3:cad>0</ns3:cad>
          </ns3:TrackPointExtension>
        </extensions>
      </trkpt>
      <trkpt lat="45.33922961913049221038818359375" lon="-70.81948033533990383148193359375">
        <ele>866.79998779296875</ele>
        <time>2026-08-21T11:51:26.000Z</time>
        <extensions>
          <ns3:TrackPointExtension>
            <ns3:hr>151</ns3:hr>
            <ns3:cad>0</ns3:cad>
          </ns3:TrackPointExtension>
        </extensions>
      </trkpt>
      <trkpt lat="45.339219309389591217041015625" lon="-70.819473378360271453857421875">
        <ele>867</ele>
        <time>2026-08-21T11:51:27.000Z</time>
        <extensions>
          <ns3:TrackPointExtension>
            <ns3:hr>150</ns3:hr>
            <ns3:cad>0</ns3:cad>
          </ns3:TrackPointExtension>
        </extensions>
      </trkpt>
      <trkpt lat="45.33921671099960803985595703125" lon="-70.8194755576550960540771484375">
        <ele>867.20001220703125</ele>
        <time>2026-08-21T11:51:28.000Z</time>
        <extensions>
          <ns3:TrackPointExtension>
            <ns3:hr>151</ns3:hr>
            <ns3:cad>0</ns3:cad>
          </ns3:TrackPointExtension>
        </extensions>
      </trkpt>
      <trkpt lat="45.339209251105785369873046875" lon="-70.81947245635092258453369140625">
        <ele>867.5999755859375</ele>
        <time>2026-08-21T11:51:29.000Z</time>
        <extensions>
          <ns3:TrackPointExtension>
            <ns3:hr>151</ns3:hr>
            <ns3:cad>0</ns3:cad>
          </ns3:TrackPointExtension>
        </extensions>
      </trkpt>
      <trkpt lat="45.33920950256288051605224609375" lon="-70.81947161816060543060302734375">
        <ele>867.79998779296875</ele>
        <time>2026-08-21T11:51:30.000Z</time>
        <extensions>
          <ns3:TrackPointExtension>
            <ns3:hr>151</ns3:hr>
            <ns3:cad>0</ns3:cad>
          </ns3:TrackPointExtension>
        </extensions>
      </trkpt>
      <trkpt lat="45.33920698799192905426025390625" lon="-70.8194675110280513763427734375">
        <ele>868</ele>
        <time>2026-08-21T11:51:31.000Z</time>
        <extensions>
          <ns3:TrackPointExtension>
            <ns3:hr>151</ns3:hr>
            <ns3:cad>0</ns3:cad>
          </ns3:TrackPointExtension>
        </extensions>
      </trkpt>
      <trkpt lat="45.33919961191713809967041015625" lon="-70.81945887766778469085693359375">
        <ele>868.20001220703125</ele>
        <time>2026-08-21T11:51:32.000Z</time>
        <extensions>
          <ns3:TrackPointExtension>
            <ns3:hr>151</ns3:hr>
            <ns3:cad>0</ns3:cad>
          </ns3:TrackPointExtension>
        </extensions>
      </trkpt>
      <trkpt lat="45.33919684588909149169921875" lon="-70.81945971585810184478759765625">
        <ele>868.4000244140625</ele>
        <time>2026-08-21T11:51:33.000Z</time>
        <extensions>
          <ns3:TrackPointExtension>
            <ns3:hr>152</ns3:hr>
            <ns3:cad>0</ns3:cad>
          </ns3:TrackPointExtension>
        </extensions>
      </trkpt>
      <trkpt lat="45.33918477594852447509765625" lon="-70.81945401616394519805908203125">
        <ele>868.5999755859375</ele>
        <time>2026-08-21T11:51:34.000Z</time>
        <extensions>
          <ns3:TrackPointExtension>
            <ns3:hr>152</ns3:hr>
            <ns3:cad>0</ns3:cad>
          </ns3:TrackPointExtension>
        </extensions>
      </trkpt>
      <trkpt lat="45.33917807042598724365234375" lon="-70.819446556270122528076171875">
        <ele>868.79998779296875</ele>
        <time>2026-08-21T11:51:35.000Z</time>
        <extensions>
          <ns3:TrackPointExtension>
            <ns3:hr>153</ns3:hr>
            <ns3:cad>0</ns3:cad>
          </ns3:TrackPointExtension>
        </extensions>
      </trkpt>
      <trkpt lat="45.3391701914370059967041015625" lon="-70.81944580189883708953857421875">
        <ele>869</ele>
        <time>2026-08-21T11:51:36.000Z</time>
        <extensions>
          <ns3:TrackPointExtension>
            <ns3:hr>153</ns3:hr>
            <ns3:cad>0</ns3:cad>
          </ns3:TrackPointExtension>
        </extensions>
      </trkpt>
      <trkpt lat="45.3391586244106292724609375" lon="-70.8194400183856487274169921875">
        <ele>869.20001220703125</ele>
        <time>2026-08-21T11:51:37.000Z</time>
        <extensions>
          <ns3:TrackPointExtension>
            <ns3:hr>153</ns3:hr>
            <ns3:cad>0</ns3:cad>
          </ns3:TrackPointExtension>
        </extensions>
      </trkpt>
      <trkpt lat="45.3391547687351703643798828125" lon="-70.81943239085376262664794921875">
        <ele>869.5999755859375</ele>
        <time>2026-08-21T11:51:38.000Z</time>
        <extensions>
          <ns3:TrackPointExtension>
            <ns3:hr>153</ns3:hr>
            <ns3:cad>0</ns3:cad>
          </ns3:TrackPointExtension>
        </extensions>
      </trkpt>
      <trkpt lat="45.33915460109710693359375" lon="-70.81942568533122539520263671875">
        <ele>869.79998779296875</ele>
        <time>2026-08-21T11:51:39.000Z</time>
        <extensions>
          <ns3:TrackPointExtension>
            <ns3:hr>152</ns3:hr>
            <ns3:cad>0</ns3:cad>
          </ns3:TrackPointExtension>
        </extensions>
      </trkpt>
      <trkpt lat="45.3391492366790771484375" lon="-70.81941403448581695556640625">
        <ele>870</ele>
        <time>2026-08-21T11:51:40.000Z</time>
        <extensions>
          <ns3:TrackPointExtension>
            <ns3:hr>153</ns3:hr>
            <ns3:cad>0</ns3:cad>
          </ns3:TrackPointExtension>
        </extensions>
      </trkpt>
      <trkpt lat="45.339141525328159332275390625" lon="-70.8194064907729625701904296875">
        <ele>870.20001220703125</ele>
        <time>2026-08-21T11:51:41.000Z</time>
        <extensions>
          <ns3:TrackPointExtension>
            <ns3:hr>153</ns3:hr>
            <ns3:cad>0</ns3:cad>
          </ns3:TrackPointExtension>
        </extensions>
      </trkpt>
      <trkpt lat="45.3391319699585437774658203125" lon="-70.81940305419266223907470703125">
        <ele>870.20001220703125</ele>
        <time>2026-08-21T11:51:42.000Z</time>
        <extensions>
          <ns3:TrackPointExtension>
            <ns3:hr>152</ns3:hr>
            <ns3:cad>0</ns3:cad>
          </ns3:TrackPointExtension>
        </extensions>
      </trkpt>
      <trkpt lat="45.33912417478859424591064453125" lon="-70.81939567811787128448486328125">
        <ele>870.20001220703125</ele>
        <time>2026-08-21T11:51:43.000Z</time>
        <extensions>
          <ns3:TrackPointExtension>
            <ns3:hr>152</ns3:hr>
            <ns3:cad>0</ns3:cad>
          </ns3:TrackPointExtension>
        </extensions>
      </trkpt>
      <trkpt lat="45.3391178883612155914306640625" lon="-70.8193883858621120452880859375">
        <ele>870.20001220703125</ele>
        <time>2026-08-21T11:51:44.000Z</time>
        <extensions>
          <ns3:TrackPointExtension>
            <ns3:hr>152</ns3:hr>
            <ns3:cad>0</ns3:cad>
          </ns3:TrackPointExtension>
        </extensions>
      </trkpt>
      <trkpt lat="45.3391108475625514984130859375" lon="-70.819378159940242767333984375">
        <ele>870.20001220703125</ele>
        <time>2026-08-21T11:51:45.000Z</time>
        <extensions>
          <ns3:TrackPointExtension>
            <ns3:hr>152</ns3:hr>
            <ns3:cad>0</ns3:cad>
          </ns3:TrackPointExtension>
        </extensions>
      </trkpt>
      <trkpt lat="45.3391078300774097442626953125" lon="-70.81936868838965892791748046875">
        <ele>870.4000244140625</ele>
        <time>2026-08-21T11:51:46.000Z</time>
        <extensions>
          <ns3:TrackPointExtension>
            <ns3:hr>153</ns3:hr>
            <ns3:cad>0</ns3:cad>
          </ns3:TrackPointExtension>
        </extensions>
      </trkpt>
      <trkpt lat="45.33910791389644145965576171875" lon="-70.81936173141002655029296875">
        <ele>870.4000244140625</ele>
        <time>2026-08-21T11:51:47.000Z</time>
        <extensions>
          <ns3:TrackPointExtension>
            <ns3:hr>152</ns3:hr>
            <ns3:cad>0</ns3:cad>
          </ns3:TrackPointExtension>
        </extensions>
      </trkpt>
      <trkpt lat="45.33910137601196765899658203125" lon="-70.8193535171449184417724609375">
        <ele>870.4000244140625</ele>
        <time>2026-08-21T11:51:48.000Z</time>
        <extensions>
          <ns3:TrackPointExtension>
            <ns3:hr>153</ns3:hr>
            <ns3:cad>0</ns3:cad>
          </ns3:TrackPointExtension>
        </extensions>
      </trkpt>
      <trkpt lat="45.3390974365174770355224609375" lon="-70.81934438087046146392822265625">
        <ele>870.4000244140625</ele>
        <time>2026-08-21T11:51:49.000Z</time>
        <extensions>
          <ns3:TrackPointExtension>
            <ns3:hr>153</ns3:hr>
            <ns3:cad>48</ns3:cad>
          </ns3:TrackPointExtension>
        </extensions>
      </trkpt>
      <trkpt lat="45.33909852616488933563232421875" lon="-70.81932845525443553924560546875">
        <ele>870.4000244140625</ele>
        <time>2026-08-21T11:51:50.000Z</time>
        <extensions>
          <ns3:TrackPointExtension>
            <ns3:hr>153</ns3:hr>
            <ns3:cad>48</ns3:cad>
          </ns3:TrackPointExtension>
        </extensions>
      </trkpt>
      <trkpt lat="45.3391001187264919281005859375" lon="-70.81931923516094684600830078125">
        <ele>870.4000244140625</ele>
        <time>2026-08-21T11:51:51.000Z</time>
        <extensions>
          <ns3:TrackPointExtension>
            <ns3:hr>152</ns3:hr>
            <ns3:cad>48</ns3:cad>
          </ns3:TrackPointExtension>
        </extensions>
      </trkpt>
      <trkpt lat="45.3391014598309993743896484375" lon="-70.81930900923907756805419921875">
        <ele>870.4000244140625</ele>
        <time>2026-08-21T11:51:52.000Z</time>
        <extensions>
          <ns3:TrackPointExtension>
            <ns3:hr>153</ns3:hr>
            <ns3:cad>48</ns3:cad>
          </ns3:TrackPointExtension>
        </extensions>
      </trkpt>
      <trkpt lat="45.33910154365003108978271484375" lon="-70.81930138170719146728515625">
        <ele>870.20001220703125</ele>
        <time>2026-08-21T11:51:53.000Z</time>
        <extensions>
          <ns3:TrackPointExtension>
            <ns3:hr>153</ns3:hr>
            <ns3:cad>48</ns3:cad>
          </ns3:TrackPointExtension>
        </extensions>
      </trkpt>
      <trkpt lat="45.33910405822098255157470703125" lon="-70.8192921616137027740478515625">
        <ele>870.20001220703125</ele>
        <time>2026-08-21T11:51:54.000Z</time>
        <extensions>
          <ns3:TrackPointExtension>
            <ns3:hr>153</ns3:hr>
            <ns3:cad>48</ns3:cad>
          </ns3:TrackPointExtension>
        </extensions>
      </trkpt>
      <trkpt lat="45.33909986726939678192138671875" lon="-70.8192797563970088958740234375">
        <ele>870</ele>
        <time>2026-08-21T11:51:55.000Z</time>
        <extensions>
          <ns3:TrackPointExtension>
            <ns3:hr>153</ns3:hr>
            <ns3:cad>48</ns3:cad>
          </ns3:TrackPointExtension>
        </extensions>
      </trkpt>
      <trkpt lat="45.33909668214619159698486328125" lon="-70.8192725479602813720703125">
        <ele>869.79998779296875</ele>
        <time>2026-08-21T11:51:56.000Z</time>
        <extensions>
          <ns3:TrackPointExtension>
            <ns3:hr>153</ns3:hr>
            <ns3:cad>0</ns3:cad>
          </ns3:TrackPointExtension>
        </extensions>
      </trkpt>
      <trkpt lat="45.3390924073755741119384765625" lon="-70.8192609809339046478271484375">
        <ele>869.5999755859375</ele>
        <time>2026-08-21T11:51:57.000Z</time>
        <extensions>
          <ns3:TrackPointExtension>
            <ns3:hr>153</ns3:hr>
            <ns3:cad>0</ns3:cad>
          </ns3:TrackPointExtension>
        </extensions>
      </trkpt>
      <trkpt lat="45.3390848636627197265625" lon="-70.81924748606979846954345703125">
        <ele>869.4000244140625</ele>
        <time>2026-08-21T11:51:58.000Z</time>
        <extensions>
          <ns3:TrackPointExtension>
            <ns3:hr>153</ns3:hr>
            <ns3:cad>0</ns3:cad>
          </ns3:TrackPointExtension>
        </extensions>
      </trkpt>
      <trkpt lat="45.33907136879861354827880859375" lon="-70.819225944578647613525390625">
        <ele>869</ele>
        <time>2026-08-21T11:51:59.000Z</time>
        <extensions>
          <ns3:TrackPointExtension>
            <ns3:hr>152</ns3:hr>
            <ns3:cad>0</ns3:cad>
          </ns3:TrackPointExtension>
        </extensions>
      </trkpt>
      <trkpt lat="45.3390588797628879547119140625" lon="-70.81921613775193691253662109375">
        <ele>868.79998779296875</ele>
        <time>2026-08-21T11:52:00.000Z</time>
        <extensions>
          <ns3:TrackPointExtension>
            <ns3:hr>152</ns3:hr>
            <ns3:cad>0</ns3:cad>
          </ns3:TrackPointExtension>
        </extensions>
      </trkpt>
      <trkpt lat="45.33904588781297206878662109375" lon="-70.81920255906879901885986328125">
        <ele>868.79998779296875</ele>
        <time>2026-08-21T11:52:01.000Z</time>
        <extensions>
          <ns3:TrackPointExtension>
            <ns3:hr>152</ns3:hr>
            <ns3:cad>0</ns3:cad>
          </ns3:TrackPointExtension>
        </extensions>
      </trkpt>
      <trkpt lat="45.339035578072071075439453125" lon="-70.8191962726414203643798828125">
        <ele>868.5999755859375</ele>
        <time>2026-08-21T11:52:02.000Z</time>
        <extensions>
          <ns3:TrackPointExtension>
            <ns3:hr>152</ns3:hr>
            <ns3:cad>0</ns3:cad>
          </ns3:TrackPointExtension>
        </extensions>
      </trkpt>
      <trkpt lat="45.3390230052173137664794921875" lon="-70.81919468007981777191162109375">
        <ele>868.79998779296875</ele>
        <time>2026-08-21T11:52:03.000Z</time>
        <extensions>
          <ns3:TrackPointExtension>
            <ns3:hr>151</ns3:hr>
            <ns3:cad>0</ns3:cad>
          </ns3:TrackPointExtension>
        </extensions>
      </trkpt>
      <trkpt lat="45.33901118673384189605712890625" lon="-70.81919233314692974090576171875">
        <ele>868.79998779296875</ele>
        <time>2026-08-21T11:52:04.000Z</time>
        <extensions>
          <ns3:TrackPointExtension>
            <ns3:hr>151</ns3:hr>
            <ns3:cad>0</ns3:cad>
          </ns3:TrackPointExtension>
        </extensions>
      </trkpt>
      <trkpt lat="45.33899961970746517181396484375" lon="-70.819182693958282470703125">
        <ele>868.79998779296875</ele>
        <time>2026-08-21T11:52:05.000Z</time>
        <extensions>
          <ns3:TrackPointExtension>
            <ns3:hr>150</ns3:hr>
            <ns3:cad>0</ns3:cad>
          </ns3:TrackPointExtension>
        </extensions>
      </trkpt>
      <trkpt lat="45.338985957205295562744140625" lon="-70.8191714622080326080322265625">
        <ele>868.79998779296875</ele>
        <time>2026-08-21T11:52:06.000Z</time>
        <extensions>
          <ns3:TrackPointExtension>
            <ns3:hr>149</ns3:hr>
            <ns3:cad>0</ns3:cad>
          </ns3:TrackPointExtension>
        </extensions>
      </trkpt>
      <trkpt lat="45.3389735519886016845703125" lon="-70.819159559905529022216796875">
        <ele>868.79998779296875</ele>
        <time>2026-08-21T11:52:07.000Z</time>
        <extensions>
          <ns3:TrackPointExtension>
            <ns3:hr>148</ns3:hr>
            <ns3:cad>0</ns3:cad>
          </ns3:TrackPointExtension>
        </extensions>
      </trkpt>
      <trkpt lat="45.33896625973284244537353515625" lon="-70.81914857961237430572509765625">
        <ele>868.5999755859375</ele>
        <time>2026-08-21T11:52:08.000Z</time>
        <extensions>
          <ns3:TrackPointExtension>
            <ns3:hr>147</ns3:hr>
            <ns3:cad>0</ns3:cad>
          </ns3:TrackPointExtension>
        </extensions>
      </trkpt>
      <trkpt lat="45.3389603085815906524658203125" lon="-70.81913374364376068115234375">
        <ele>868.5999755859375</ele>
        <time>2026-08-21T11:52:09.000Z</time>
        <extensions>
          <ns3:TrackPointExtension>
            <ns3:hr>146</ns3:hr>
            <ns3:cad>0</ns3:cad>
          </ns3:TrackPointExtension>
        </extensions>
      </trkpt>
      <trkpt lat="45.33895469270646572113037109375" lon="-70.8191184885799884796142578125">
        <ele>868.4000244140625</ele>
        <time>2026-08-21T11:52:10.000Z</time>
        <extensions>
          <ns3:TrackPointExtension>
            <ns3:hr>145</ns3:hr>
            <ns3:cad>0</ns3:cad>
          </ns3:TrackPointExtension>
        </extensions>
      </trkpt>
      <trkpt lat="45.338948071002960205078125" lon="-70.81910231150686740875244140625">
        <ele>868.20001220703125</ele>
        <time>2026-08-21T11:52:11.000Z</time>
        <extensions>
          <ns3:TrackPointExtension>
            <ns3:hr>144</ns3:hr>
            <ns3:cad>0</ns3:cad>
          </ns3:TrackPointExtension>
        </extensions>
      </trkpt>
      <trkpt lat="45.33894161693751811981201171875" lon="-70.8190836198627948760986328125">
        <ele>868</ele>
        <time>2026-08-21T11:52:12.000Z</time>
        <extensions>
          <ns3:TrackPointExtension>
            <ns3:hr>143</ns3:hr>
            <ns3:cad>0</ns3:cad>
          </ns3:TrackPointExtension>
        </extensions>
      </trkpt>
      <trkpt lat="45.3389287926256656646728515625" lon="-70.81906392239034175872802734375">
        <ele>867.79998779296875</ele>
        <time>2026-08-21T11:52:13.000Z</time>
        <extensions>
          <ns3:TrackPointExtension>
            <ns3:hr>142</ns3:hr>
            <ns3:cad>0</ns3:cad>
          </ns3:TrackPointExtension>
        </extensions>
      </trkpt>
      <trkpt lat="45.33891856670379638671875" lon="-70.8190510980784893035888671875">
        <ele>867.79998779296875</ele>
        <time>2026-08-21T11:52:14.000Z</time>
        <extensions>
          <ns3:TrackPointExtension>
            <ns3:hr>142</ns3:hr>
            <ns3:cad>0</ns3:cad>
          </ns3:TrackPointExtension>
        </extensions>
      </trkpt>
      <trkpt lat="45.33890155144035816192626953125" lon="-70.81903726793825626373291015625">
        <ele>867.5999755859375</ele>
        <time>2026-08-21T11:52:15.000Z</time>
        <extensions>
          <ns3:TrackPointExtension>
            <ns3:hr>141</ns3:hr>
            <ns3:cad>0</ns3:cad>
          </ns3:TrackPointExtension>
        </extensions>
      </trkpt>
      <trkpt lat="45.3388899005949497222900390625" lon="-70.81903592683374881744384765625">
        <ele>867.5999755859375</ele>
        <time>2026-08-21T11:52:16.000Z</time>
        <extensions>
          <ns3:TrackPointExtension>
            <ns3:hr>141</ns3:hr>
            <ns3:cad>0</ns3:cad>
          </ns3:TrackPointExtension>
        </extensions>
      </trkpt>
      <trkpt lat="45.3388769924640655517578125" lon="-70.819031484425067901611328125">
        <ele>867.4000244140625</ele>
        <time>2026-08-21T11:52:17.000Z</time>
        <extensions>
          <ns3:TrackPointExtension>
            <ns3:hr>140</ns3:hr>
            <ns3:cad>0</ns3:cad>
          </ns3:TrackPointExtension>
        </extensions>
      </trkpt>
      <trkpt lat="45.3388587199151515960693359375" lon="-70.81902503035962581634521484375">
        <ele>867.4000244140625</ele>
        <time>2026-08-21T11:52:18.000Z</time>
        <extensions>
          <ns3:TrackPointExtension>
            <ns3:hr>140</ns3:hr>
            <ns3:cad>0</ns3:cad>
          </ns3:TrackPointExtension>
        </extensions>
      </trkpt>
      <trkpt lat="45.3388463146984577178955078125" lon="-70.81902234815061092376708984375">
        <ele>867.20001220703125</ele>
        <time>2026-08-21T11:52:19.000Z</time>
        <extensions>
          <ns3:TrackPointExtension>
            <ns3:hr>139</ns3:hr>
            <ns3:cad>0</ns3:cad>
          </ns3:TrackPointExtension>
        </extensions>
      </trkpt>
      <trkpt lat="45.33883483149111270904541015625" lon="-70.8190168999135494232177734375">
        <ele>866.79998779296875</ele>
        <time>2026-08-21T11:52:20.000Z</time>
        <extensions>
          <ns3:TrackPointExtension>
            <ns3:hr>138</ns3:hr>
            <ns3:cad>0</ns3:cad>
          </ns3:TrackPointExtension>
        </extensions>
      </trkpt>
      <trkpt lat="45.33882812596857547760009765625" lon="-70.8190061710774898529052734375">
        <ele>866.5999755859375</ele>
        <time>2026-08-21T11:52:21.000Z</time>
        <extensions>
          <ns3:TrackPointExtension>
            <ns3:hr>137</ns3:hr>
            <ns3:cad>0</ns3:cad>
          </ns3:TrackPointExtension>
        </extensions>
      </trkpt>
      <trkpt lat="45.3388126194477081298828125" lon="-70.8190004713833332061767578125">
        <ele>866.4000244140625</ele>
        <time>2026-08-21T11:52:22.000Z</time>
        <extensions>
          <ns3:TrackPointExtension>
            <ns3:hr>136</ns3:hr>
            <ns3:cad>0</ns3:cad>
          </ns3:TrackPointExtension>
        </extensions>
      </trkpt>
      <trkpt lat="45.3387987054884433746337890625" lon="-70.81899753771722316741943359375">
        <ele>866.20001220703125</ele>
        <time>2026-08-21T11:52:23.000Z</time>
        <extensions>
          <ns3:TrackPointExtension>
            <ns3:hr>135</ns3:hr>
            <ns3:cad>0</ns3:cad>
          </ns3:TrackPointExtension>
        </extensions>
      </trkpt>
      <trkpt lat="45.33879359252750873565673828125" lon="-70.81899133510887622833251953125">
        <ele>866</ele>
        <time>2026-08-21T11:52:24.000Z</time>
        <extensions>
          <ns3:TrackPointExtension>
            <ns3:hr>135</ns3:hr>
            <ns3:cad>0</ns3:cad>
          </ns3:TrackPointExtension>
        </extensions>
      </trkpt>
      <trkpt lat="45.33878646790981292724609375" lon="-70.81898496486246585845947265625">
        <ele>865.79998779296875</ele>
        <time>2026-08-21T11:52:25.000Z</time>
        <extensions>
          <ns3:TrackPointExtension>
            <ns3:hr>135</ns3:hr>
            <ns3:cad>0</ns3:cad>
          </ns3:TrackPointExtension>
        </extensions>
      </trkpt>
      <trkpt lat="45.33877842128276824951171875" lon="-70.818971134722232818603515625">
        <ele>865.79998779296875</ele>
        <time>2026-08-21T11:52:26.000Z</time>
        <extensions>
          <ns3:TrackPointExtension>
            <ns3:hr>133</ns3:hr>
            <ns3:cad>0</ns3:cad>
          </ns3:TrackPointExtension>
        </extensions>
      </trkpt>
      <trkpt lat="45.33877029083669185638427734375" lon="-70.81895780749619007110595703125">
        <ele>865.5999755859375</ele>
        <time>2026-08-21T11:52:27.000Z</time>
        <extensions>
          <ns3:TrackPointExtension>
            <ns3:hr>132</ns3:hr>
            <ns3:cad>0</ns3:cad>
          </ns3:TrackPointExtension>
        </extensions>
      </trkpt>
      <trkpt lat="45.33875922672450542449951171875" lon="-70.81894037313759326934814453125">
        <ele>865.5999755859375</ele>
        <time>2026-08-21T11:52:28.000Z</time>
        <extensions>
          <ns3:TrackPointExtension>
            <ns3:hr>131</ns3:hr>
            <ns3:cad>0</ns3:cad>
          </ns3:TrackPointExtension>
        </extensions>
      </trkpt>
      <trkpt lat="45.33875159919261932373046875" lon="-70.81892914138734340667724609375">
        <ele>865.4000244140625</ele>
        <time>2026-08-21T11:52:29.000Z</time>
        <extensions>
          <ns3:TrackPointExtension>
            <ns3:hr>130</ns3:hr>
            <ns3:cad>0</ns3:cad>
          </ns3:TrackPointExtension>
        </extensions>
      </trkpt>
      <trkpt lat="45.33874246291816234588623046875" lon="-70.81892050802707672119140625">
        <ele>865.4000244140625</ele>
        <time>2026-08-21T11:52:30.000Z</time>
        <extensions>
          <ns3:TrackPointExtension>
            <ns3:hr>130</ns3:hr>
            <ns3:cad>0</ns3:cad>
          </ns3:TrackPointExtension>
        </extensions>
      </trkpt>
      <trkpt lat="45.3387299738824367523193359375" lon="-70.81891648471355438232421875">
        <ele>865.4000244140625</ele>
        <time>2026-08-21T11:52:31.000Z</time>
        <extensions>
          <ns3:TrackPointExtension>
            <ns3:hr>129</ns3:hr>
            <ns3:cad>0</ns3:cad>
          </ns3:TrackPointExtension>
        </extensions>
      </trkpt>
      <trkpt lat="45.33871698193252086639404296875" lon="-70.81891137175261974334716796875">
        <ele>865.4000244140625</ele>
        <time>2026-08-21T11:52:32.000Z</time>
        <extensions>
          <ns3:TrackPointExtension>
            <ns3:hr>128</ns3:hr>
            <ns3:cad>0</ns3:cad>
          </ns3:TrackPointExtension>
        </extensions>
      </trkpt>
      <trkpt lat="45.33870658837258815765380859375" lon="-70.8189089410006999969482421875">
        <ele>865.4000244140625</ele>
        <time>2026-08-21T11:52:33.000Z</time>
        <extensions>
          <ns3:TrackPointExtension>
            <ns3:hr>128</ns3:hr>
            <ns3:cad>0</ns3:cad>
          </ns3:TrackPointExtension>
        </extensions>
      </trkpt>
      <trkpt lat="45.3386944346129894256591796875" lon="-70.8189075998961925506591796875">
        <ele>865.4000244140625</ele>
        <time>2026-08-21T11:52:34.000Z</time>
        <extensions>
          <ns3:TrackPointExtension>
            <ns3:hr>128</ns3:hr>
            <ns3:cad>0</ns3:cad>
          </ns3:TrackPointExtension>
        </extensions>
      </trkpt>
      <trkpt lat="45.33867926336824893951416015625" lon="-70.81890701316297054290771484375">
        <ele>865.20001220703125</ele>
        <time>2026-08-21T11:52:35.000Z</time>
        <extensions>
          <ns3:TrackPointExtension>
            <ns3:hr>128</ns3:hr>
            <ns3:cad>0</ns3:cad>
          </ns3:TrackPointExtension>
        </extensions>
      </trkpt>
      <trkpt lat="45.3386669419705867767333984375" lon="-70.81890014000236988067626953125">
        <ele>865</ele>
        <time>2026-08-21T11:52:36.000Z</time>
        <extensions>
          <ns3:TrackPointExtension>
            <ns3:hr>127</ns3:hr>
            <ns3:cad>0</ns3:cad>
          </ns3:TrackPointExtension>
        </extensions>
      </trkpt>
      <trkpt lat="45.33865512348711490631103515625" lon="-70.81888924352824687957763671875">
        <ele>864.79998779296875</ele>
        <time>2026-08-21T11:52:37.000Z</time>
        <extensions>
          <ns3:TrackPointExtension>
            <ns3:hr>127</ns3:hr>
            <ns3:cad>0</ns3:cad>
          </ns3:TrackPointExtension>
        </extensions>
      </trkpt>
      <trkpt lat="45.33864925615489482879638671875" lon="-70.81887851469218730926513671875">
        <ele>864.5999755859375</ele>
        <time>2026-08-21T11:52:38.000Z</time>
        <extensions>
          <ns3:TrackPointExtension>
            <ns3:hr>126</ns3:hr>
            <ns3:cad>0</ns3:cad>
          </ns3:TrackPointExtension>
        </extensions>
      </trkpt>
      <trkpt lat="45.3386355936527252197265625" lon="-70.818857140839099884033203125">
        <ele>864.4000244140625</ele>
        <time>2026-08-21T11:52:39.000Z</time>
        <extensions>
          <ns3:TrackPointExtension>
            <ns3:hr>126</ns3:hr>
            <ns3:cad>0</ns3:cad>
          </ns3:TrackPointExtension>
        </extensions>
      </trkpt>
      <trkpt lat="45.33862260170280933380126953125" lon="-70.81884113140404224395751953125">
        <ele>864.4000244140625</ele>
        <time>2026-08-21T11:52:40.000Z</time>
        <extensions>
          <ns3:TrackPointExtension>
            <ns3:hr>126</ns3:hr>
            <ns3:cad>0</ns3:cad>
          </ns3:TrackPointExtension>
        </extensions>
      </trkpt>
      <trkpt lat="45.33861220814287662506103515625" lon="-70.818828642368316650390625">
        <ele>864.4000244140625</ele>
        <time>2026-08-21T11:52:41.000Z</time>
        <extensions>
          <ns3:TrackPointExtension>
            <ns3:hr>125</ns3:hr>
            <ns3:cad>0</ns3:cad>
          </ns3:TrackPointExtension>
        </extensions>
      </trkpt>
      <trkpt lat="45.33860298804938793182373046875" lon="-70.81882135011255741119384765625">
        <ele>864.4000244140625</ele>
        <time>2026-08-21T11:52:42.000Z</time>
        <extensions>
          <ns3:TrackPointExtension>
            <ns3:hr>125</ns3:hr>
            <ns3:cad>0</ns3:cad>
          </ns3:TrackPointExtension>
        </extensions>
      </trkpt>
      <trkpt lat="45.33859460614621639251708984375" lon="-70.818815566599369049072265625">
        <ele>864.4000244140625</ele>
        <time>2026-08-21T11:52:43.000Z</time>
        <extensions>
          <ns3:TrackPointExtension>
            <ns3:hr>125</ns3:hr>
            <ns3:cad>0</ns3:cad>
          </ns3:TrackPointExtension>
        </extensions>
      </trkpt>
      <trkpt lat="45.33858655951917171478271484375" lon="-70.81880525685846805572509765625">
        <ele>864.20001220703125</ele>
        <time>2026-08-21T11:52:44.000Z</time>
        <extensions>
          <ns3:TrackPointExtension>
            <ns3:hr>125</ns3:hr>
            <ns3:cad>54</ns3:cad>
          </ns3:TrackPointExtension>
        </extensions>
      </trkpt>
      <trkpt lat="45.3385814465582370758056640625" lon="-70.81879436038434505462646484375">
        <ele>864.20001220703125</ele>
        <time>2026-08-21T11:52:45.000Z</time>
        <extensions>
          <ns3:TrackPointExtension>
            <ns3:hr>126</ns3:hr>
            <ns3:cad>54</ns3:cad>
          </ns3:TrackPointExtension>
        </extensions>
      </trkpt>
      <trkpt lat="45.33857784233987331390380859375" lon="-70.818781368434429168701171875">
        <ele>864.4000244140625</ele>
        <time>2026-08-21T11:52:46.000Z</time>
        <extensions>
          <ns3:TrackPointExtension>
            <ns3:hr>124</ns3:hr>
            <ns3:cad>54</ns3:cad>
          </ns3:TrackPointExtension>
        </extensions>
      </trkpt>
      <trkpt lat="45.33857247792184352874755859375" lon="-70.8187657780945301055908203125">
        <ele>864.4000244140625</ele>
        <time>2026-08-21T11:52:47.000Z</time>
        <extensions>
          <ns3:TrackPointExtension>
            <ns3:hr>124</ns3:hr>
            <ns3:cad>54</ns3:cad>
          </ns3:TrackPointExtension>
        </extensions>
      </trkpt>
      <trkpt lat="45.33856728114187717437744140625" lon="-70.8187520317733287811279296875">
        <ele>864.4000244140625</ele>
        <time>2026-08-21T11:52:48.000Z</time>
        <extensions>
          <ns3:TrackPointExtension>
            <ns3:hr>123</ns3:hr>
            <ns3:cad>54</ns3:cad>
          </ns3:TrackPointExtension>
        </extensions>
      </trkpt>
      <trkpt lat="45.33856124617159366607666015625" lon="-70.81874054856598377227783203125">
        <ele>864.4000244140625</ele>
        <time>2026-08-21T11:52:49.000Z</time>
        <extensions>
          <ns3:TrackPointExtension>
            <ns3:hr>122</ns3:hr>
            <ns3:cad>51</ns3:cad>
          </ns3:TrackPointExtension>
        </extensions>
      </trkpt>
      <trkpt lat="45.33855571411550045013427734375" lon="-70.8187252096831798553466796875">
        <ele>864.4000244140625</ele>
        <time>2026-08-21T11:52:50.000Z</time>
        <extensions>
          <ns3:TrackPointExtension>
            <ns3:hr>122</ns3:hr>
            <ns3:cad>49</ns3:cad>
          </ns3:TrackPointExtension>
        </extensions>
      </trkpt>
      <trkpt lat="45.3385497629642486572265625" lon="-70.8187084458768367767333984375">
        <ele>864.5999755859375</ele>
        <time>2026-08-21T11:52:51.000Z</time>
        <extensions>
          <ns3:TrackPointExtension>
            <ns3:hr>122</ns3:hr>
            <ns3:cad>49</ns3:cad>
          </ns3:TrackPointExtension>
        </extensions>
      </trkpt>
      <trkpt lat="45.33854305744171142578125" lon="-70.8186970464885234832763671875">
        <ele>864.5999755859375</ele>
        <time>2026-08-21T11:52:52.000Z</time>
        <extensions>
          <ns3:TrackPointExtension>
            <ns3:hr>123</ns3:hr>
            <ns3:cad>55</ns3:cad>
          </ns3:TrackPointExtension>
        </extensions>
      </trkpt>
      <trkpt lat="45.33853677101433277130126953125" lon="-70.81869059242308139801025390625">
        <ele>864.79998779296875</ele>
        <time>2026-08-21T11:52:53.000Z</time>
        <extensions>
          <ns3:TrackPointExtension>
            <ns3:hr>123</ns3:hr>
            <ns3:cad>55</ns3:cad>
          </ns3:TrackPointExtension>
        </extensions>
      </trkpt>
      <trkpt lat="45.3385256230831146240234375" lon="-70.81868170760571956634521484375">
        <ele>864.79998779296875</ele>
        <time>2026-08-21T11:52:54.000Z</time>
        <extensions>
          <ns3:TrackPointExtension>
            <ns3:hr>124</ns3:hr>
            <ns3:cad>50</ns3:cad>
          </ns3:TrackPointExtension>
        </extensions>
      </trkpt>
      <trkpt lat="45.33851413987576961517333984375" lon="-70.81867399625480175018310546875">
        <ele>865</ele>
        <time>2026-08-21T11:52:55.000Z</time>
        <extensions>
          <ns3:TrackPointExtension>
            <ns3:hr>124</ns3:hr>
            <ns3:cad>50</ns3:cad>
          </ns3:TrackPointExtension>
        </extensions>
      </trkpt>
      <trkpt lat="45.33850374631583690643310546875" lon="-70.81866930238902568817138671875">
        <ele>865</ele>
        <time>2026-08-21T11:52:56.000Z</time>
        <extensions>
          <ns3:TrackPointExtension>
            <ns3:hr>124</ns3:hr>
            <ns3:cad>52</ns3:cad>
          </ns3:TrackPointExtension>
        </extensions>
      </trkpt>
      <trkpt lat="45.3384946100413799285888671875" lon="-70.818656645715236663818359375">
        <ele>865.20001220703125</ele>
        <time>2026-08-21T11:52:57.000Z</time>
        <extensions>
          <ns3:TrackPointExtension>
            <ns3:hr>123</ns3:hr>
            <ns3:cad>53</ns3:cad>
          </ns3:TrackPointExtension>
        </extensions>
      </trkpt>
      <trkpt lat="45.33848597668111324310302734375" lon="-70.81864566542208194732666015625">
        <ele>865.4000244140625</ele>
        <time>2026-08-21T11:52:58.000Z</time>
        <extensions>
          <ns3:TrackPointExtension>
            <ns3:hr>124</ns3:hr>
            <ns3:cad>53</ns3:cad>
          </ns3:TrackPointExtension>
        </extensions>
      </trkpt>
      <trkpt lat="45.33846996724605560302734375" lon="-70.81863627769052982330322265625">
        <ele>865.79998779296875</ele>
        <time>2026-08-21T11:52:59.000Z</time>
        <extensions>
          <ns3:TrackPointExtension>
            <ns3:hr>124</ns3:hr>
            <ns3:cad>50</ns3:cad>
          </ns3:TrackPointExtension>
        </extensions>
      </trkpt>
      <trkpt lat="45.33845831640064716339111328125" lon="-70.81862722523510456085205078125">
        <ele>866</ele>
        <time>2026-08-21T11:53:00.000Z</time>
        <extensions>
          <ns3:TrackPointExtension>
            <ns3:hr>123</ns3:hr>
            <ns3:cad>50</ns3:cad>
          </ns3:TrackPointExtension>
        </extensions>
      </trkpt>
      <trkpt lat="45.3384478390216827392578125" lon="-70.818618424236774444580078125">
        <ele>866.4000244140625</ele>
        <time>2026-08-21T11:53:01.000Z</time>
        <extensions>
          <ns3:TrackPointExtension>
            <ns3:hr>124</ns3:hr>
            <ns3:cad>50</ns3:cad>
          </ns3:TrackPointExtension>
        </extensions>
      </trkpt>
      <trkpt lat="45.33844104968011379241943359375" lon="-70.8186219446361064910888671875">
        <ele>866.79998779296875</ele>
        <time>2026-08-21T11:53:02.000Z</time>
        <extensions>
          <ns3:TrackPointExtension>
            <ns3:hr>124</ns3:hr>
            <ns3:cad>0</ns3:cad>
          </ns3:TrackPointExtension>
        </extensions>
      </trkpt>
      <trkpt lat="45.33843082375824451446533203125" lon="-70.8186185918748378753662109375">
        <ele>867.20001220703125</ele>
        <time>2026-08-21T11:53:03.000Z</time>
        <extensions>
          <ns3:TrackPointExtension>
            <ns3:hr>124</ns3:hr>
            <ns3:cad>0</ns3:cad>
          </ns3:TrackPointExtension>
        </extensions>
      </trkpt>
      <trkpt lat="45.3384196758270263671875" lon="-70.81860878504812717437744140625">
        <ele>867.4000244140625</ele>
        <time>2026-08-21T11:53:04.000Z</time>
        <extensions>
          <ns3:TrackPointExtension>
            <ns3:hr>124</ns3:hr>
            <ns3:cad>0</ns3:cad>
          </ns3:TrackPointExtension>
        </extensions>
      </trkpt>
      <trkpt lat="45.33841288648545742034912109375" lon="-70.81859889440238475799560546875">
        <ele>867.79998779296875</ele>
        <time>2026-08-21T11:53:05.000Z</time>
        <extensions>
          <ns3:TrackPointExtension>
            <ns3:hr>125</ns3:hr>
            <ns3:cad>0</ns3:cad>
          </ns3:TrackPointExtension>
        </extensions>
      </trkpt>
      <trkpt lat="45.3384024091064929962158203125" lon="-70.81858146004378795623779296875">
        <ele>868</ele>
        <time>2026-08-21T11:53:06.000Z</time>
        <extensions>
          <ns3:TrackPointExtension>
            <ns3:hr>125</ns3:hr>
            <ns3:cad>0</ns3:cad>
          </ns3:TrackPointExtension>
        </extensions>
      </trkpt>
      <trkpt lat="45.3383926860988140106201171875" lon="-70.81857140175998210906982421875">
        <ele>868.20001220703125</ele>
        <time>2026-08-21T11:53:07.000Z</time>
        <extensions>
          <ns3:TrackPointExtension>
            <ns3:hr>125</ns3:hr>
            <ns3:cad>0</ns3:cad>
          </ns3:TrackPointExtension>
        </extensions>
      </trkpt>
      <trkpt lat="45.338382460176944732666015625" lon="-70.81856335513293743133544921875">
        <ele>868.4000244140625</ele>
        <time>2026-08-21T11:53:08.000Z</time>
        <extensions>
          <ns3:TrackPointExtension>
            <ns3:hr>126</ns3:hr>
            <ns3:cad>43</ns3:cad>
          </ns3:TrackPointExtension>
        </extensions>
      </trkpt>
      <trkpt lat="45.338373742997646331787109375" lon="-70.81854910589754581451416015625">
        <ele>868.5999755859375</ele>
        <time>2026-08-21T11:53:09.000Z</time>
        <extensions>
          <ns3:TrackPointExtension>
            <ns3:hr>127</ns3:hr>
            <ns3:cad>43</ns3:cad>
          </ns3:TrackPointExtension>
        </extensions>
      </trkpt>
      <trkpt lat="45.33836628310382366180419921875" lon="-70.818534605205059051513671875">
        <ele>868.79998779296875</ele>
        <time>2026-08-21T11:53:10.000Z</time>
        <extensions>
          <ns3:TrackPointExtension>
            <ns3:hr>127</ns3:hr>
            <ns3:cad>43</ns3:cad>
          </ns3:TrackPointExtension>
        </extensions>
      </trkpt>
      <trkpt lat="45.3383558057248592376708984375" lon="-70.8185190148651599884033203125">
        <ele>869</ele>
        <time>2026-08-21T11:53:11.000Z</time>
        <extensions>
          <ns3:TrackPointExtension>
            <ns3:hr>129</ns3:hr>
            <ns3:cad>0</ns3:cad>
          </ns3:TrackPointExtension>
        </extensions>
      </trkpt>
      <trkpt lat="45.3383434005081653594970703125" lon="-70.81850568763911724090576171875">
        <ele>869</ele>
        <time>2026-08-21T11:53:12.000Z</time>
        <extensions>
          <ns3:TrackPointExtension>
            <ns3:hr>130</ns3:hr>
            <ns3:cad>0</ns3:cad>
          </ns3:TrackPointExtension>
        </extensions>
      </trkpt>
      <trkpt lat="45.33833577297627925872802734375" lon="-70.8184965513646602630615234375">
        <ele>869.20001220703125</ele>
        <time>2026-08-21T11:53:13.000Z</time>
        <extensions>
          <ns3:TrackPointExtension>
            <ns3:hr>131</ns3:hr>
            <ns3:cad>49</ns3:cad>
          </ns3:TrackPointExtension>
        </extensions>
      </trkpt>
      <trkpt lat="45.33832336775958538055419921875" lon="-70.81848707981407642364501953125">
        <ele>869.4000244140625</ele>
        <time>2026-08-21T11:53:14.000Z</time>
        <extensions>
          <ns3:TrackPointExtension>
            <ns3:hr>132</ns3:hr>
            <ns3:cad>49</ns3:cad>
          </ns3:TrackPointExtension>
        </extensions>
      </trkpt>
      <trkpt lat="45.33831305801868438720703125" lon="-70.8184791170060634613037109375">
        <ele>869.5999755859375</ele>
        <time>2026-08-21T11:53:15.000Z</time>
        <extensions>
          <ns3:TrackPointExtension>
            <ns3:hr>133</ns3:hr>
            <ns3:cad>49</ns3:cad>
          </ns3:TrackPointExtension>
        </extensions>
      </trkpt>
      <trkpt lat="45.3383008204400539398193359375" lon="-70.81847450695931911468505859375">
        <ele>869.5999755859375</ele>
        <time>2026-08-21T11:53:16.000Z</time>
        <extensions>
          <ns3:TrackPointExtension>
            <ns3:hr>133</ns3:hr>
            <ns3:cad>49</ns3:cad>
          </ns3:TrackPointExtension>
        </extensions>
      </trkpt>
      <trkpt lat="45.338289923965930938720703125" lon="-70.818470232188701629638671875">
        <ele>869.5999755859375</ele>
        <time>2026-08-21T11:53:17.000Z</time>
        <extensions>
          <ns3:TrackPointExtension>
            <ns3:hr>134</ns3:hr>
            <ns3:cad>49</ns3:cad>
          </ns3:TrackPointExtension>
        </extensions>
      </trkpt>
      <trkpt lat="45.33828464336693286895751953125" lon="-70.81846964545547962188720703125">
        <ele>869.5999755859375</ele>
        <time>2026-08-21T11:53:18.000Z</time>
        <extensions>
          <ns3:TrackPointExtension>
            <ns3:hr>133</ns3:hr>
            <ns3:cad>50</ns3:cad>
          </ns3:TrackPointExtension>
        </extensions>
      </trkpt>
      <trkpt lat="45.33827257342636585235595703125" lon="-70.8184670470654964447021484375">
        <ele>869.5999755859375</ele>
        <time>2026-08-21T11:53:19.000Z</time>
        <extensions>
          <ns3:TrackPointExtension>
            <ns3:hr>133</ns3:hr>
            <ns3:cad>50</ns3:cad>
          </ns3:TrackPointExtension>
        </extensions>
      </trkpt>
      <trkpt lat="45.33826134167611598968505859375" lon="-70.81846495158970355987548828125">
        <ele>869.5999755859375</ele>
        <time>2026-08-21T11:53:20.000Z</time>
        <extensions>
          <ns3:TrackPointExtension>
            <ns3:hr>134</ns3:hr>
            <ns3:cad>50</ns3:cad>
          </ns3:TrackPointExtension>
        </extensions>
      </trkpt>
      <trkpt lat="45.338254384696483612060546875" lon="-70.818462856113910675048828125">
        <ele>869.79998779296875</ele>
        <time>2026-08-21T11:53:21.000Z</time>
        <extensions>
          <ns3:TrackPointExtension>
            <ns3:hr>134</ns3:hr>
            <ns3:cad>50</ns3:cad>
          </ns3:TrackPointExtension>
        </extensions>
      </trkpt>
      <trkpt lat="45.3382501937448978424072265625" lon="-70.81845506094396114349365234375">
        <ele>869.79998779296875</ele>
        <time>2026-08-21T11:53:22.000Z</time>
        <extensions>
          <ns3:TrackPointExtension>
            <ns3:hr>134</ns3:hr>
            <ns3:cad>50</ns3:cad>
          </ns3:TrackPointExtension>
        </extensions>
      </trkpt>
      <trkpt lat="45.338240303099155426025390625" lon="-70.8184492774307727813720703125">
        <ele>869.79998779296875</ele>
        <time>2026-08-21T11:53:23.000Z</time>
        <extensions>
          <ns3:TrackPointExtension>
            <ns3:hr>135</ns3:hr>
            <ns3:cad>50</ns3:cad>
          </ns3:TrackPointExtension>
        </extensions>
      </trkpt>
      <trkpt lat="45.3382364474236965179443359375" lon="-70.81844550557434558868408203125">
        <ele>869.79998779296875</ele>
        <time>2026-08-21T11:53:24.000Z</time>
        <extensions>
          <ns3:TrackPointExtension>
            <ns3:hr>135</ns3:hr>
            <ns3:cad>50</ns3:cad>
          </ns3:TrackPointExtension>
        </extensions>
      </trkpt>
      <trkpt lat="45.33822722733020782470703125" lon="-70.81843896768987178802490234375">
        <ele>869.79998779296875</ele>
        <time>2026-08-21T11:53:25.000Z</time>
        <extensions>
          <ns3:TrackPointExtension>
            <ns3:hr>135</ns3:hr>
            <ns3:cad>50</ns3:cad>
          </ns3:TrackPointExtension>
        </extensions>
      </trkpt>
      <trkpt lat="45.33822412602603435516357421875" lon="-70.818431340157985687255859375">
        <ele>869.79998779296875</ele>
        <time>2026-08-21T11:53:26.000Z</time>
        <extensions>
          <ns3:TrackPointExtension>
            <ns3:hr>135</ns3:hr>
            <ns3:cad>0</ns3:cad>
          </ns3:TrackPointExtension>
        </extensions>
      </trkpt>
      <trkpt lat="45.3382139839231967926025390625" lon="-70.81842991523444652557373046875">
        <ele>869.79998779296875</ele>
        <time>2026-08-21T11:53:27.000Z</time>
        <extensions>
          <ns3:TrackPointExtension>
            <ns3:hr>135</ns3:hr>
            <ns3:cad>0</ns3:cad>
          </ns3:TrackPointExtension>
        </extensions>
      </trkpt>
      <trkpt lat="45.338200740516185760498046875" lon="-70.818424634635448455810546875">
        <ele>869.79998779296875</ele>
        <time>2026-08-21T11:53:28.000Z</time>
        <extensions>
          <ns3:TrackPointExtension>
            <ns3:hr>135</ns3:hr>
            <ns3:cad>0</ns3:cad>
          </ns3:TrackPointExtension>
        </extensions>
      </trkpt>
      <trkpt lat="45.33819076605141162872314453125" lon="-70.818416588008403778076171875">
        <ele>869.79998779296875</ele>
        <time>2026-08-21T11:53:29.000Z</time>
        <extensions>
          <ns3:TrackPointExtension>
            <ns3:hr>136</ns3:hr>
            <ns3:cad>0</ns3:cad>
          </ns3:TrackPointExtension>
        </extensions>
      </trkpt>
      <trkpt lat="45.33817936666309833526611328125" lon="-70.81841147504746913909912109375">
        <ele>870</ele>
        <time>2026-08-21T11:53:30.000Z</time>
        <extensions>
          <ns3:TrackPointExtension>
            <ns3:hr>136</ns3:hr>
            <ns3:cad>0</ns3:cad>
          </ns3:TrackPointExtension>
        </extensions>
      </trkpt>
      <trkpt lat="45.33816696144640445709228515625" lon="-70.81840627826750278472900390625">
        <ele>870</ele>
        <time>2026-08-21T11:53:31.000Z</time>
        <extensions>
          <ns3:TrackPointExtension>
            <ns3:hr>136</ns3:hr>
            <ns3:cad>0</ns3:cad>
          </ns3:TrackPointExtension>
        </extensions>
      </trkpt>
      <trkpt lat="45.33815640024840831756591796875" lon="-70.818404853343963623046875">
        <ele>870.20001220703125</ele>
        <time>2026-08-21T11:53:32.000Z</time>
        <extensions>
          <ns3:TrackPointExtension>
            <ns3:hr>136</ns3:hr>
            <ns3:cad>48</ns3:cad>
          </ns3:TrackPointExtension>
        </extensions>
      </trkpt>
      <trkpt lat="45.338141731917858123779296875" lon="-70.81840560771524906158447265625">
        <ele>870.20001220703125</ele>
        <time>2026-08-21T11:53:33.000Z</time>
        <extensions>
          <ns3:TrackPointExtension>
            <ns3:hr>136</ns3:hr>
            <ns3:cad>48</ns3:cad>
          </ns3:TrackPointExtension>
        </extensions>
      </trkpt>
      <trkpt lat="45.33813091926276683807373046875" lon="-70.81840552389621734619140625">
        <ele>870.4000244140625</ele>
        <time>2026-08-21T11:53:34.000Z</time>
        <extensions>
          <ns3:TrackPointExtension>
            <ns3:hr>136</ns3:hr>
            <ns3:cad>48</ns3:cad>
          </ns3:TrackPointExtension>
        </extensions>
      </trkpt>
      <trkpt lat="45.3381207771599292755126953125" lon="-70.81840594299137592315673828125">
        <ele>870.4000244140625</ele>
        <time>2026-08-21T11:53:35.000Z</time>
        <extensions>
          <ns3:TrackPointExtension>
            <ns3:hr>136</ns3:hr>
            <ns3:cad>53</ns3:cad>
          </ns3:TrackPointExtension>
        </extensions>
      </trkpt>
      <trkpt lat="45.338110215961933135986328125" lon="-70.8183989860117435455322265625">
        <ele>870.5999755859375</ele>
        <time>2026-08-21T11:53:36.000Z</time>
        <extensions>
          <ns3:TrackPointExtension>
            <ns3:hr>136</ns3:hr>
            <ns3:cad>53</ns3:cad>
          </ns3:TrackPointExtension>
        </extensions>
      </trkpt>
      <trkpt lat="45.33810007385909557342529296875" lon="-70.81838096491992473602294921875">
        <ele>870.79998779296875</ele>
        <time>2026-08-21T11:53:37.000Z</time>
        <extensions>
          <ns3:TrackPointExtension>
            <ns3:hr>136</ns3:hr>
            <ns3:cad>51</ns3:cad>
          </ns3:TrackPointExtension>
        </extensions>
      </trkpt>
      <trkpt lat="45.3380936197936534881591796875" lon="-70.81837258301675319671630859375">
        <ele>871</ele>
        <time>2026-08-21T11:53:38.000Z</time>
        <extensions>
          <ns3:TrackPointExtension>
            <ns3:hr>136</ns3:hr>
            <ns3:cad>51</ns3:cad>
          </ns3:TrackPointExtension>
        </extensions>
      </trkpt>
      <trkpt lat="45.33808431588113307952880859375" lon="-70.81836755387485027313232421875">
        <ele>871.20001220703125</ele>
        <time>2026-08-21T11:53:39.000Z</time>
        <extensions>
          <ns3:TrackPointExtension>
            <ns3:hr>136</ns3:hr>
            <ns3:cad>51</ns3:cad>
          </ns3:TrackPointExtension>
        </extensions>
      </trkpt>
      <trkpt lat="45.33807643689215183258056640625" lon="-70.81836218945682048797607421875">
        <ele>871.20001220703125</ele>
        <time>2026-08-21T11:53:40.000Z</time>
        <extensions>
          <ns3:TrackPointExtension>
            <ns3:hr>136</ns3:hr>
            <ns3:cad>50</ns3:cad>
          </ns3:TrackPointExtension>
        </extensions>
      </trkpt>
      <trkpt lat="45.3380637802183628082275390625" lon="-70.818358920514583587646484375">
        <ele>871.4000244140625</ele>
        <time>2026-08-21T11:53:41.000Z</time>
        <extensions>
          <ns3:TrackPointExtension>
            <ns3:hr>136</ns3:hr>
            <ns3:cad>50</ns3:cad>
          </ns3:TrackPointExtension>
        </extensions>
      </trkpt>
      <trkpt lat="45.33805598504841327667236328125" lon="-70.81835615448653697967529296875">
        <ele>871.4000244140625</ele>
        <time>2026-08-21T11:53:42.000Z</time>
        <extensions>
          <ns3:TrackPointExtension>
            <ns3:hr>136</ns3:hr>
            <ns3:cad>48</ns3:cad>
          </ns3:TrackPointExtension>
        </extensions>
      </trkpt>
      <trkpt lat="45.33804592676460742950439453125" lon="-70.8183533884584903717041015625">
        <ele>871.5999755859375</ele>
        <time>2026-08-21T11:53:43.000Z</time>
        <extensions>
          <ns3:TrackPointExtension>
            <ns3:hr>136</ns3:hr>
            <ns3:cad>48</ns3:cad>
          </ns3:TrackPointExtension>
        </extensions>
      </trkpt>
      <trkpt lat="45.3380347788333892822265625" lon="-70.8183527179062366485595703125">
        <ele>871.79998779296875</ele>
        <time>2026-08-21T11:53:44.000Z</time>
        <extensions>
          <ns3:TrackPointExtension>
            <ns3:hr>136</ns3:hr>
            <ns3:cad>48</ns3:cad>
          </ns3:TrackPointExtension>
        </extensions>
      </trkpt>
      <trkpt lat="45.33802681602537631988525390625" lon="-70.8183517120778560638427734375">
        <ele>872.20001220703125</ele>
        <time>2026-08-21T11:53:45.000Z</time>
        <extensions>
          <ns3:TrackPointExtension>
            <ns3:hr>136</ns3:hr>
            <ns3:cad>49</ns3:cad>
          </ns3:TrackPointExtension>
        </extensions>
      </trkpt>
      <trkpt lat="45.338012985885143280029296875" lon="-70.8183538913726806640625">
        <ele>872.4000244140625</ele>
        <time>2026-08-21T11:53:46.000Z</time>
        <extensions>
          <ns3:TrackPointExtension>
            <ns3:hr>136</ns3:hr>
            <ns3:cad>49</ns3:cad>
          </ns3:TrackPointExtension>
        </extensions>
      </trkpt>
      <trkpt lat="45.3379987366497516632080078125" lon="-70.818356238305568695068359375">
        <ele>872.5999755859375</ele>
        <time>2026-08-21T11:53:47.000Z</time>
        <extensions>
          <ns3:TrackPointExtension>
            <ns3:hr>136</ns3:hr>
            <ns3:cad>48</ns3:cad>
          </ns3:TrackPointExtension>
        </extensions>
      </trkpt>
      <trkpt lat="45.3379870019853115081787109375" lon="-70.818360261619091033935546875">
        <ele>872.79998779296875</ele>
        <time>2026-08-21T11:53:48.000Z</time>
        <extensions>
          <ns3:TrackPointExtension>
            <ns3:hr>135</ns3:hr>
            <ns3:cad>48</ns3:cad>
          </ns3:TrackPointExtension>
        </extensions>
      </trkpt>
      <trkpt lat="45.3379766084253787994384765625" lon="-70.8183674700558185577392578125">
        <ele>872.79998779296875</ele>
        <time>2026-08-21T11:53:49.000Z</time>
        <extensions>
          <ns3:TrackPointExtension>
            <ns3:hr>134</ns3:hr>
            <ns3:cad>46</ns3:cad>
          </ns3:TrackPointExtension>
        </extensions>
      </trkpt>
      <trkpt lat="45.337966047227382659912109375" lon="-70.81837467849254608154296875">
        <ele>873</ele>
        <time>2026-08-21T11:53:50.000Z</time>
        <extensions>
          <ns3:TrackPointExtension>
            <ns3:hr>134</ns3:hr>
            <ns3:cad>46</ns3:cad>
          </ns3:TrackPointExtension>
        </extensions>
      </trkpt>
      <trkpt lat="45.337953306734561920166015625" lon="-70.81838146783411502838134765625">
        <ele>873</ele>
        <time>2026-08-21T11:53:51.000Z</time>
        <extensions>
          <ns3:TrackPointExtension>
            <ns3:hr>134</ns3:hr>
            <ns3:cad>46</ns3:cad>
          </ns3:TrackPointExtension>
        </extensions>
      </trkpt>
      <trkpt lat="45.33794425427913665771484375" lon="-70.818388424813747406005859375">
        <ele>873.20001220703125</ele>
        <time>2026-08-21T11:53:52.000Z</time>
        <extensions>
          <ns3:TrackPointExtension>
            <ns3:hr>134</ns3:hr>
            <ns3:cad>51</ns3:cad>
          </ns3:TrackPointExtension>
        </extensions>
      </trkpt>
      <trkpt lat="45.33793352544307708740234375" lon="-70.81840275786817073822021484375">
        <ele>873.20001220703125</ele>
        <time>2026-08-21T11:53:53.000Z</time>
        <extensions>
          <ns3:TrackPointExtension>
            <ns3:hr>134</ns3:hr>
            <ns3:cad>51</ns3:cad>
          </ns3:TrackPointExtension>
        </extensions>
      </trkpt>
      <trkpt lat="45.3379232995212078094482421875" lon="-70.818411894142627716064453125">
        <ele>873.4000244140625</ele>
        <time>2026-08-21T11:53:54.000Z</time>
        <extensions>
          <ns3:TrackPointExtension>
            <ns3:hr>134</ns3:hr>
            <ns3:cad>52</ns3:cad>
          </ns3:TrackPointExtension>
        </extensions>
      </trkpt>
      <trkpt lat="45.33790963701903820037841796875" lon="-70.81841759383678436279296875">
        <ele>873.5999755859375</ele>
        <time>2026-08-21T11:53:55.000Z</time>
        <extensions>
          <ns3:TrackPointExtension>
            <ns3:hr>134</ns3:hr>
            <ns3:cad>52</ns3:cad>
          </ns3:TrackPointExtension>
        </extensions>
      </trkpt>
      <trkpt lat="45.33789739944040775299072265625" lon="-70.818429328501224517822265625">
        <ele>873.79998779296875</ele>
        <time>2026-08-21T11:53:56.000Z</time>
        <extensions>
          <ns3:TrackPointExtension>
            <ns3:hr>134</ns3:hr>
            <ns3:cad>52</ns3:cad>
          </ns3:TrackPointExtension>
        </extensions>
      </trkpt>
      <trkpt lat="45.33788256347179412841796875" lon="-70.8184397220611572265625">
        <ele>873.79998779296875</ele>
        <time>2026-08-21T11:53:57.000Z</time>
        <extensions>
          <ns3:TrackPointExtension>
            <ns3:hr>135</ns3:hr>
            <ns3:cad>53</ns3:cad>
          </ns3:TrackPointExtension>
        </extensions>
      </trkpt>
      <trkpt lat="45.3378703258931636810302734375" lon="-70.81844265572726726531982421875">
        <ele>873.79998779296875</ele>
        <time>2026-08-21T11:53:58.000Z</time>
        <extensions>
          <ns3:TrackPointExtension>
            <ns3:hr>136</ns3:hr>
            <ns3:cad>53</ns3:cad>
          </ns3:TrackPointExtension>
        </extensions>
      </trkpt>
      <trkpt lat="45.3378609381616115570068359375" lon="-70.818442068994045257568359375">
        <ele>873.79998779296875</ele>
        <time>2026-08-21T11:53:59.000Z</time>
        <extensions>
          <ns3:TrackPointExtension>
            <ns3:hr>136</ns3:hr>
            <ns3:cad>54</ns3:cad>
          </ns3:TrackPointExtension>
        </extensions>
      </trkpt>
      <trkpt lat="45.337848700582981109619140625" lon="-70.818444080650806427001953125">
        <ele>873.79998779296875</ele>
        <time>2026-08-21T11:54:00.000Z</time>
        <extensions>
          <ns3:TrackPointExtension>
            <ns3:hr>136</ns3:hr>
            <ns3:cad>54</ns3:cad>
          </ns3:TrackPointExtension>
        </extensions>
      </trkpt>
      <trkpt lat="45.33783285878598690032958984375" lon="-70.81844718195497989654541015625">
        <ele>873.79998779296875</ele>
        <time>2026-08-21T11:54:01.000Z</time>
        <extensions>
          <ns3:TrackPointExtension>
            <ns3:hr>137</ns3:hr>
            <ns3:cad>54</ns3:cad>
          </ns3:TrackPointExtension>
        </extensions>
      </trkpt>
      <trkpt lat="45.3378200344741344451904296875" lon="-70.81844835542142391204833984375">
        <ele>874</ele>
        <time>2026-08-21T11:54:02.000Z</time>
        <extensions>
          <ns3:TrackPointExtension>
            <ns3:hr>137</ns3:hr>
            <ns3:cad>54</ns3:cad>
          </ns3:TrackPointExtension>
        </extensions>
      </trkpt>
      <trkpt lat="45.33780922181904315948486328125" lon="-70.81845086999237537384033203125">
        <ele>874</ele>
        <time>2026-08-21T11:54:03.000Z</time>
        <extensions>
          <ns3:TrackPointExtension>
            <ns3:hr>138</ns3:hr>
            <ns3:cad>54</ns3:cad>
          </ns3:TrackPointExtension>
        </extensions>
      </trkpt>
      <trkpt lat="45.3378015942871570587158203125" lon="-70.8184543065726757049560546875">
        <ele>874.20001220703125</ele>
        <time>2026-08-21T11:54:04.000Z</time>
        <extensions>
          <ns3:TrackPointExtension>
            <ns3:hr>138</ns3:hr>
            <ns3:cad>51</ns3:cad>
          </ns3:TrackPointExtension>
        </extensions>
      </trkpt>
      <trkpt lat="45.33779136836528778076171875" lon="-70.8184596709907054901123046875">
        <ele>874.20001220703125</ele>
        <time>2026-08-21T11:54:05.000Z</time>
        <extensions>
          <ns3:TrackPointExtension>
            <ns3:hr>138</ns3:hr>
            <ns3:cad>51</ns3:cad>
          </ns3:TrackPointExtension>
        </extensions>
      </trkpt>
      <trkpt lat="45.33778055571019649505615234375" lon="-70.81846159882843494415283203125">
        <ele>874.4000244140625</ele>
        <time>2026-08-21T11:54:06.000Z</time>
        <extensions>
          <ns3:TrackPointExtension>
            <ns3:hr>138</ns3:hr>
            <ns3:cad>49</ns3:cad>
          </ns3:TrackPointExtension>
        </extensions>
      </trkpt>
      <trkpt lat="45.33776798285543918609619140625" lon="-70.81846411339938640594482421875">
        <ele>874.5999755859375</ele>
        <time>2026-08-21T11:54:07.000Z</time>
        <extensions>
          <ns3:TrackPointExtension>
            <ns3:hr>138</ns3:hr>
            <ns3:cad>48</ns3:cad>
          </ns3:TrackPointExtension>
        </extensions>
      </trkpt>
      <trkpt lat="45.337756164371967315673828125" lon="-70.8184650354087352752685546875">
        <ele>874.5999755859375</ele>
        <time>2026-08-21T11:54:08.000Z</time>
        <extensions>
          <ns3:TrackPointExtension>
            <ns3:hr>138</ns3:hr>
            <ns3:cad>48</ns3:cad>
          </ns3:TrackPointExtension>
        </extensions>
      </trkpt>
      <trkpt lat="45.3377462737262248992919921875" lon="-70.8184710703790187835693359375">
        <ele>874.79998779296875</ele>
        <time>2026-08-21T11:54:09.000Z</time>
        <extensions>
          <ns3:TrackPointExtension>
            <ns3:hr>138</ns3:hr>
            <ns3:cad>46</ns3:cad>
          </ns3:TrackPointExtension>
        </extensions>
      </trkpt>
      <trkpt lat="45.33773311413824558258056640625" lon="-70.8184784464538097381591796875">
        <ele>874.79998779296875</ele>
        <time>2026-08-21T11:54:10.000Z</time>
        <extensions>
          <ns3:TrackPointExtension>
            <ns3:hr>138</ns3:hr>
            <ns3:cad>46</ns3:cad>
          </ns3:TrackPointExtension>
        </extensions>
      </trkpt>
      <trkpt lat="45.33772255294024944305419921875" lon="-70.818486325442790985107421875">
        <ele>874.79998779296875</ele>
        <time>2026-08-21T11:54:11.000Z</time>
        <extensions>
          <ns3:TrackPointExtension>
            <ns3:hr>138</ns3:hr>
            <ns3:cad>49</ns3:cad>
          </ns3:TrackPointExtension>
        </extensions>
      </trkpt>
      <trkpt lat="45.33771266229450702667236328125" lon="-70.8184920251369476318359375">
        <ele>874.79998779296875</ele>
        <time>2026-08-21T11:54:12.000Z</time>
        <extensions>
          <ns3:TrackPointExtension>
            <ns3:hr>138</ns3:hr>
            <ns3:cad>49</ns3:cad>
          </ns3:TrackPointExtension>
        </extensions>
      </trkpt>
      <trkpt lat="45.3377016820013523101806640625" lon="-70.81849940121173858642578125">
        <ele>874.79998779296875</ele>
        <time>2026-08-21T11:54:13.000Z</time>
        <extensions>
          <ns3:TrackPointExtension>
            <ns3:hr>138</ns3:hr>
            <ns3:cad>48</ns3:cad>
          </ns3:TrackPointExtension>
        </extensions>
      </trkpt>
      <trkpt lat="45.3376901149749755859375" lon="-70.8185072802007198333740234375">
        <ele>875</ele>
        <time>2026-08-21T11:54:14.000Z</time>
        <extensions>
          <ns3:TrackPointExtension>
            <ns3:hr>138</ns3:hr>
            <ns3:cad>48</ns3:cad>
          </ns3:TrackPointExtension>
        </extensions>
      </trkpt>
      <trkpt lat="45.337680391967296600341796875" lon="-70.8185149915516376495361328125">
        <ele>875</ele>
        <time>2026-08-21T11:54:15.000Z</time>
        <extensions>
          <ns3:TrackPointExtension>
            <ns3:hr>137</ns3:hr>
            <ns3:cad>48</ns3:cad>
          </ns3:TrackPointExtension>
        </extensions>
      </trkpt>
      <trkpt lat="45.3376686573028564453125" lon="-70.81852496601641178131103515625">
        <ele>875</ele>
        <time>2026-08-21T11:54:16.000Z</time>
        <extensions>
          <ns3:TrackPointExtension>
            <ns3:hr>136</ns3:hr>
            <ns3:cad>49</ns3:cad>
          </ns3:TrackPointExtension>
        </extensions>
      </trkpt>
      <trkpt lat="45.3376594372093677520751953125" lon="-70.81853250972926616668701171875">
        <ele>875.20001220703125</ele>
        <time>2026-08-21T11:54:17.000Z</time>
        <extensions>
          <ns3:TrackPointExtension>
            <ns3:hr>136</ns3:hr>
            <ns3:cad>49</ns3:cad>
          </ns3:TrackPointExtension>
        </extensions>
      </trkpt>
      <trkpt lat="45.33765055239200592041015625" lon="-70.8185401372611522674560546875">
        <ele>875.20001220703125</ele>
        <time>2026-08-21T11:54:18.000Z</time>
        <extensions>
          <ns3:TrackPointExtension>
            <ns3:hr>136</ns3:hr>
            <ns3:cad>48</ns3:cad>
          </ns3:TrackPointExtension>
        </extensions>
      </trkpt>
      <trkpt lat="45.33764275722205638885498046875" lon="-70.81854960881173610687255859375">
        <ele>875.4000244140625</ele>
        <time>2026-08-21T11:54:19.000Z</time>
        <extensions>
          <ns3:TrackPointExtension>
            <ns3:hr>136</ns3:hr>
            <ns3:cad>48</ns3:cad>
          </ns3:TrackPointExtension>
        </extensions>
      </trkpt>
      <trkpt lat="45.337636806070804595947265625" lon="-70.81855706870555877685546875">
        <ele>875.4000244140625</ele>
        <time>2026-08-21T11:54:20.000Z</time>
        <extensions>
          <ns3:TrackPointExtension>
            <ns3:hr>136</ns3:hr>
            <ns3:cad>48</ns3:cad>
          </ns3:TrackPointExtension>
        </extensions>
      </trkpt>
      <trkpt lat="45.33763404004275798797607421875" lon="-70.81856268458068370819091796875">
        <ele>875.4000244140625</ele>
        <time>2026-08-21T11:54:21.000Z</time>
        <extensions>
          <ns3:TrackPointExtension>
            <ns3:hr>135</ns3:hr>
            <ns3:cad>0</ns3:cad>
          </ns3:TrackPointExtension>
        </extensions>
      </trkpt>
      <trkpt lat="45.337634794414043426513671875" lon="-70.81857592798769474029541015625">
        <ele>875.4000244140625</ele>
        <time>2026-08-21T11:54:22.000Z</time>
        <extensions>
          <ns3:TrackPointExtension>
            <ns3:hr>135</ns3:hr>
            <ns3:cad>0</ns3:cad>
          </ns3:TrackPointExtension>
        </extensions>
      </trkpt>
      <trkpt lat="45.33763311803340911865234375" lon="-70.81859084777534008026123046875">
        <ele>875.4000244140625</ele>
        <time>2026-08-21T11:54:23.000Z</time>
        <extensions>
          <ns3:TrackPointExtension>
            <ns3:hr>134</ns3:hr>
            <ns3:cad>0</ns3:cad>
          </ns3:TrackPointExtension>
        </extensions>
      </trkpt>
      <trkpt lat="45.33763068728148937225341796875" lon="-70.81860325299203395843505859375">
        <ele>875.4000244140625</ele>
        <time>2026-08-21T11:54:24.000Z</time>
        <extensions>
          <ns3:TrackPointExtension>
            <ns3:hr>134</ns3:hr>
            <ns3:cad>0</ns3:cad>
          </ns3:TrackPointExtension>
        </extensions>
      </trkpt>
      <trkpt lat="45.337625406682491302490234375" lon="-70.81860627047717571258544921875">
        <ele>875.4000244140625</ele>
        <time>2026-08-21T11:54:25.000Z</time>
        <extensions>
          <ns3:TrackPointExtension>
            <ns3:hr>133</ns3:hr>
            <ns3:cad>0</ns3:cad>
          </ns3:TrackPointExtension>
        </extensions>
      </trkpt>
      <trkpt lat="45.33761878497898578643798828125" lon="-70.818603001534938812255859375">
        <ele>875.5999755859375</ele>
        <time>2026-08-21T11:54:26.000Z</time>
        <extensions>
          <ns3:TrackPointExtension>
            <ns3:hr>133</ns3:hr>
            <ns3:cad>0</ns3:cad>
          </ns3:TrackPointExtension>
        </extensions>
      </trkpt>
      <trkpt lat="45.337616018950939178466796875" lon="-70.81860140897333621978759765625">
        <ele>875.5999755859375</ele>
        <time>2026-08-21T11:54:27.000Z</time>
        <extensions>
          <ns3:TrackPointExtension>
            <ns3:hr>133</ns3:hr>
            <ns3:cad>0</ns3:cad>
          </ns3:TrackPointExtension>
        </extensions>
      </trkpt>
      <trkpt lat="45.33761610276997089385986328125" lon="-70.8185921050608158111572265625">
        <ele>875.5999755859375</ele>
        <time>2026-08-21T11:54:28.000Z</time>
        <extensions>
          <ns3:TrackPointExtension>
            <ns3:hr>133</ns3:hr>
            <ns3:cad>0</ns3:cad>
          </ns3:TrackPointExtension>
        </extensions>
      </trkpt>
      <trkpt lat="45.3376138396561145782470703125" lon="-70.8185820467770099639892578125">
        <ele>875.5999755859375</ele>
        <time>2026-08-21T11:54:29.000Z</time>
        <extensions>
          <ns3:TrackPointExtension>
            <ns3:hr>133</ns3:hr>
            <ns3:cad>0</ns3:cad>
          </ns3:TrackPointExtension>
        </extensions>
      </trkpt>
      <trkpt lat="45.3376071341335773468017578125" lon="-70.8185763470828533172607421875">
        <ele>875.79998779296875</ele>
        <time>2026-08-21T11:54:30.000Z</time>
        <extensions>
          <ns3:TrackPointExtension>
            <ns3:hr>133</ns3:hr>
            <ns3:cad>53</ns3:cad>
          </ns3:TrackPointExtension>
        </extensions>
      </trkpt>
      <trkpt lat="45.3376021049916744232177734375" lon="-70.81857047975063323974609375">
        <ele>875.79998779296875</ele>
        <time>2026-08-21T11:54:31.000Z</time>
        <extensions>
          <ns3:TrackPointExtension>
            <ns3:hr>132</ns3:hr>
            <ns3:cad>53</ns3:cad>
          </ns3:TrackPointExtension>
        </extensions>
      </trkpt>
      <trkpt lat="45.3375940583646297454833984375" lon="-70.8185622654855251312255859375">
        <ele>875.79998779296875</ele>
        <time>2026-08-21T11:54:32.000Z</time>
        <extensions>
          <ns3:TrackPointExtension>
            <ns3:hr>132</ns3:hr>
            <ns3:cad>53</ns3:cad>
          </ns3:TrackPointExtension>
        </extensions>
      </trkpt>
      <trkpt lat="45.3375868499279022216796875" lon="-70.81855245865881443023681640625">
        <ele>876</ele>
        <time>2026-08-21T11:54:33.000Z</time>
        <extensions>
          <ns3:TrackPointExtension>
            <ns3:hr>132</ns3:hr>
            <ns3:cad>53</ns3:cad>
          </ns3:TrackPointExtension>
        </extensions>
      </trkpt>
      <trkpt lat="45.3375729359686374664306640625" lon="-70.81854675896465778350830078125">
        <ele>876</ele>
        <time>2026-08-21T11:54:34.000Z</time>
        <extensions>
          <ns3:TrackPointExtension>
            <ns3:hr>132</ns3:hr>
            <ns3:cad>53</ns3:cad>
          </ns3:TrackPointExtension>
        </extensions>
      </trkpt>
      <trkpt lat="45.337561704218387603759765625" lon="-70.8185411430895328521728515625">
        <ele>876</ele>
        <time>2026-08-21T11:54:35.000Z</time>
        <extensions>
          <ns3:TrackPointExtension>
            <ns3:hr>132</ns3:hr>
            <ns3:cad>47</ns3:cad>
          </ns3:TrackPointExtension>
        </extensions>
      </trkpt>
      <trkpt lat="45.3375508077442646026611328125" lon="-70.8185371197760105133056640625">
        <ele>876</ele>
        <time>2026-08-21T11:54:36.000Z</time>
        <extensions>
          <ns3:TrackPointExtension>
            <ns3:hr>132</ns3:hr>
            <ns3:cad>44</ns3:cad>
          </ns3:TrackPointExtension>
        </extensions>
      </trkpt>
      <trkpt lat="45.3375404141843318939208984375" lon="-70.81854055635631084442138671875">
        <ele>876</ele>
        <time>2026-08-21T11:54:37.000Z</time>
        <extensions>
          <ns3:TrackPointExtension>
            <ns3:hr>131</ns3:hr>
            <ns3:cad>44</ns3:cad>
          </ns3:TrackPointExtension>
        </extensions>
      </trkpt>
      <trkpt lat="45.33753245137631893157958984375" lon="-70.81854525022208690643310546875">
        <ele>876.20001220703125</ele>
        <time>2026-08-21T11:54:38.000Z</time>
        <extensions>
          <ns3:TrackPointExtension>
            <ns3:hr>131</ns3:hr>
            <ns3:cad>44</ns3:cad>
          </ns3:TrackPointExtension>
        </extensions>
      </trkpt>
      <trkpt lat="45.3375263325870037078857421875" lon="-70.818543992936611175537109375">
        <ele>876.4000244140625</ele>
        <time>2026-08-21T11:54:39.000Z</time>
        <extensions>
          <ns3:TrackPointExtension>
            <ns3:hr>130</ns3:hr>
            <ns3:cad>44</ns3:cad>
          </ns3:TrackPointExtension>
        </extensions>
      </trkpt>
      <trkpt lat="45.33751820214092731475830078125" lon="-70.81854206509888172149658203125">
        <ele>876.4000244140625</ele>
        <time>2026-08-21T11:54:40.000Z</time>
        <extensions>
          <ns3:TrackPointExtension>
            <ns3:hr>130</ns3:hr>
            <ns3:cad>0</ns3:cad>
          </ns3:TrackPointExtension>
        </extensions>
      </trkpt>
      <trkpt lat="45.3375085629522800445556640625" lon="-70.81853804178535938262939453125">
        <ele>876.4000244140625</ele>
        <time>2026-08-21T11:54:41.000Z</time>
        <extensions>
          <ns3:TrackPointExtension>
            <ns3:hr>130</ns3:hr>
            <ns3:cad>0</ns3:cad>
          </ns3:TrackPointExtension>
        </extensions>
      </trkpt>
      <trkpt lat="45.3375021927058696746826171875" lon="-70.8185341022908687591552734375">
        <ele>876.5999755859375</ele>
        <time>2026-08-21T11:54:42.000Z</time>
        <extensions>
          <ns3:TrackPointExtension>
            <ns3:hr>130</ns3:hr>
            <ns3:cad>47</ns3:cad>
          </ns3:TrackPointExtension>
        </extensions>
      </trkpt>
      <trkpt lat="45.33749355934560298919677734375" lon="-70.81853158771991729736328125">
        <ele>876.4000244140625</ele>
        <time>2026-08-21T11:54:43.000Z</time>
        <extensions>
          <ns3:TrackPointExtension>
            <ns3:hr>130</ns3:hr>
            <ns3:cad>47</ns3:cad>
          </ns3:TrackPointExtension>
        </extensions>
      </trkpt>
      <trkpt lat="45.33748400397598743438720703125" lon="-70.8185277320444583892822265625">
        <ele>876.4000244140625</ele>
        <time>2026-08-21T11:54:44.000Z</time>
        <extensions>
          <ns3:TrackPointExtension>
            <ns3:hr>130</ns3:hr>
            <ns3:cad>47</ns3:cad>
          </ns3:TrackPointExtension>
        </extensions>
      </trkpt>
      <trkpt lat="45.3374760411679744720458984375" lon="-70.818523876368999481201171875">
        <ele>876.4000244140625</ele>
        <time>2026-08-21T11:54:45.000Z</time>
        <extensions>
          <ns3:TrackPointExtension>
            <ns3:hr>130</ns3:hr>
            <ns3:cad>47</ns3:cad>
          </ns3:TrackPointExtension>
        </extensions>
      </trkpt>
      <trkpt lat="45.337467491626739501953125" lon="-70.81852219998836517333984375">
        <ele>876.20001220703125</ele>
        <time>2026-08-21T11:54:46.000Z</time>
        <extensions>
          <ns3:TrackPointExtension>
            <ns3:hr>130</ns3:hr>
            <ns3:cad>47</ns3:cad>
          </ns3:TrackPointExtension>
        </extensions>
      </trkpt>
      <trkpt lat="45.33745600841939449310302734375" lon="-70.81851951777935028076171875">
        <ele>876</ele>
        <time>2026-08-21T11:54:47.000Z</time>
        <extensions>
          <ns3:TrackPointExtension>
            <ns3:hr>130</ns3:hr>
            <ns3:cad>0</ns3:cad>
          </ns3:TrackPointExtension>
        </extensions>
      </trkpt>
      <trkpt lat="45.33744670450687408447265625" lon="-70.81852018833160400390625">
        <ele>875.79998779296875</ele>
        <time>2026-08-21T11:54:48.000Z</time>
        <extensions>
          <ns3:TrackPointExtension>
            <ns3:hr>130</ns3:hr>
            <ns3:cad>0</ns3:cad>
          </ns3:TrackPointExtension>
        </extensions>
      </trkpt>
      <trkpt lat="45.33743471838533878326416015625" lon="-70.8185180090367794036865234375">
        <ele>875.5999755859375</ele>
        <time>2026-08-21T11:54:49.000Z</time>
        <extensions>
          <ns3:TrackPointExtension>
            <ns3:hr>129</ns3:hr>
            <ns3:cad>0</ns3:cad>
          </ns3:TrackPointExtension>
        </extensions>
      </trkpt>
      <trkpt lat="45.33742633648216724395751953125" lon="-70.81851683557033538818359375">
        <ele>875.4000244140625</ele>
        <time>2026-08-21T11:54:50.000Z</time>
        <extensions>
          <ns3:TrackPointExtension>
            <ns3:hr>130</ns3:hr>
            <ns3:cad>52</ns3:cad>
          </ns3:TrackPointExtension>
        </extensions>
      </trkpt>
      <trkpt lat="45.33741476945579051971435546875" lon="-70.81851222552359104156494140625">
        <ele>875.20001220703125</ele>
        <time>2026-08-21T11:54:51.000Z</time>
        <extensions>
          <ns3:TrackPointExtension>
            <ns3:hr>129</ns3:hr>
            <ns3:cad>52</ns3:cad>
          </ns3:TrackPointExtension>
        </extensions>
      </trkpt>
      <trkpt lat="45.33740772865712642669677734375" lon="-70.81850635819137096405029296875">
        <ele>875</ele>
        <time>2026-08-21T11:54:52.000Z</time>
        <extensions>
          <ns3:TrackPointExtension>
            <ns3:hr>129</ns3:hr>
            <ns3:cad>52</ns3:cad>
          </ns3:TrackPointExtension>
        </extensions>
      </trkpt>
      <trkpt lat="45.33739834092557430267333984375" lon="-70.81850032322108745574951171875">
        <ele>875</ele>
        <time>2026-08-21T11:54:53.000Z</time>
        <extensions>
          <ns3:TrackPointExtension>
            <ns3:hr>129</ns3:hr>
            <ns3:cad>54</ns3:cad>
          </ns3:TrackPointExtension>
        </extensions>
      </trkpt>
      <trkpt lat="45.33738928847014904022216796875" lon="-70.8184968866407871246337890625">
        <ele>874.79998779296875</ele>
        <time>2026-08-21T11:54:54.000Z</time>
        <extensions>
          <ns3:TrackPointExtension>
            <ns3:hr>130</ns3:hr>
            <ns3:cad>54</ns3:cad>
          </ns3:TrackPointExtension>
        </extensions>
      </trkpt>
      <trkpt lat="45.337377972900867462158203125" lon="-70.818499065935611724853515625">
        <ele>874.79998779296875</ele>
        <time>2026-08-21T11:54:55.000Z</time>
        <extensions>
          <ns3:TrackPointExtension>
            <ns3:hr>129</ns3:hr>
            <ns3:cad>54</ns3:cad>
          </ns3:TrackPointExtension>
        </extensions>
      </trkpt>
      <trkpt lat="45.3373657353222370147705078125" lon="-70.81850032322108745574951171875">
        <ele>874.79998779296875</ele>
        <time>2026-08-21T11:54:56.000Z</time>
        <extensions>
          <ns3:TrackPointExtension>
            <ns3:hr>129</ns3:hr>
            <ns3:cad>54</ns3:cad>
          </ns3:TrackPointExtension>
        </extensions>
      </trkpt>
      <trkpt lat="45.3373576886951923370361328125" lon="-70.81850686110556125640869140625">
        <ele>874.5999755859375</ele>
        <time>2026-08-21T11:54:57.000Z</time>
        <extensions>
          <ns3:TrackPointExtension>
            <ns3:hr>130</ns3:hr>
            <ns3:cad>53</ns3:cad>
          </ns3:TrackPointExtension>
        </extensions>
      </trkpt>
      <trkpt lat="45.337351150810718536376953125" lon="-70.81851339899003505706787109375">
        <ele>874.4000244140625</ele>
        <time>2026-08-21T11:54:58.000Z</time>
        <extensions>
          <ns3:TrackPointExtension>
            <ns3:hr>129</ns3:hr>
            <ns3:cad>53</ns3:cad>
          </ns3:TrackPointExtension>
        </extensions>
      </trkpt>
      <trkpt lat="45.337341763079166412353515625" lon="-70.81851574592292308807373046875">
        <ele>874.20001220703125</ele>
        <time>2026-08-21T11:54:59.000Z</time>
        <extensions>
          <ns3:TrackPointExtension>
            <ns3:hr>129</ns3:hr>
            <ns3:cad>53</ns3:cad>
          </ns3:TrackPointExtension>
        </extensions>
      </trkpt>
      <trkpt lat="45.3373305313289165496826171875" lon="-70.81851926632225513458251953125">
        <ele>874</ele>
        <time>2026-08-21T11:55:00.000Z</time>
        <extensions>
          <ns3:TrackPointExtension>
            <ns3:hr>129</ns3:hr>
            <ns3:cad>51</ns3:cad>
          </ns3:TrackPointExtension>
        </extensions>
      </trkpt>
      <trkpt lat="45.33732022158801555633544921875" lon="-70.81852463074028491973876953125">
        <ele>873.5999755859375</ele>
        <time>2026-08-21T11:55:01.000Z</time>
        <extensions>
          <ns3:TrackPointExtension>
            <ns3:hr>128</ns3:hr>
            <ns3:cad>51</ns3:cad>
          </ns3:TrackPointExtension>
        </extensions>
      </trkpt>
      <trkpt lat="45.3373114205896854400634765625" lon="-70.8185304142534732818603515625">
        <ele>873.4000244140625</ele>
        <time>2026-08-21T11:55:02.000Z</time>
        <extensions>
          <ns3:TrackPointExtension>
            <ns3:hr>128</ns3:hr>
            <ns3:cad>0</ns3:cad>
          </ns3:TrackPointExtension>
        </extensions>
      </trkpt>
      <trkpt lat="45.33729574643075466156005859375" lon="-70.81853016279637813568115234375">
        <ele>873.4000244140625</ele>
        <time>2026-08-21T11:55:03.000Z</time>
        <extensions>
          <ns3:TrackPointExtension>
            <ns3:hr>127</ns3:hr>
            <ns3:cad>0</ns3:cad>
          </ns3:TrackPointExtension>
        </extensions>
      </trkpt>
      <trkpt lat="45.33728032372891902923583984375" lon="-70.818533934652805328369140625">
        <ele>873.20001220703125</ele>
        <time>2026-08-21T11:55:04.000Z</time>
        <extensions>
          <ns3:TrackPointExtension>
            <ns3:hr>128</ns3:hr>
            <ns3:cad>0</ns3:cad>
          </ns3:TrackPointExtension>
        </extensions>
      </trkpt>
      <trkpt lat="45.3372705169022083282470703125" lon="-70.81854139454662799835205078125">
        <ele>873</ele>
        <time>2026-08-21T11:55:05.000Z</time>
        <extensions>
          <ns3:TrackPointExtension>
            <ns3:hr>128</ns3:hr>
            <ns3:cad>55</ns3:cad>
          </ns3:TrackPointExtension>
        </extensions>
      </trkpt>
      <trkpt lat="45.33725760877132415771484375" lon="-70.81854365766048431396484375">
        <ele>873</ele>
        <time>2026-08-21T11:55:06.000Z</time>
        <extensions>
          <ns3:TrackPointExtension>
            <ns3:hr>128</ns3:hr>
            <ns3:cad>55</ns3:cad>
          </ns3:TrackPointExtension>
        </extensions>
      </trkpt>
      <trkpt lat="45.3372462093830108642578125" lon="-70.8185428194701671600341796875">
        <ele>873</ele>
        <time>2026-08-21T11:55:07.000Z</time>
        <extensions>
          <ns3:TrackPointExtension>
            <ns3:hr>127</ns3:hr>
            <ns3:cad>0</ns3:cad>
          </ns3:TrackPointExtension>
        </extensions>
      </trkpt>
      <trkpt lat="45.3372292779386043548583984375" lon="-70.81855011172592639923095703125">
        <ele>873</ele>
        <time>2026-08-21T11:55:08.000Z</time>
        <extensions>
          <ns3:TrackPointExtension>
            <ns3:hr>128</ns3:hr>
            <ns3:cad>0</ns3:cad>
          </ns3:TrackPointExtension>
        </extensions>
      </trkpt>
      <trkpt lat="45.3372188843786716461181640625" lon="-70.818556733429431915283203125">
        <ele>873.20001220703125</ele>
        <time>2026-08-21T11:55:09.000Z</time>
        <extensions>
          <ns3:TrackPointExtension>
            <ns3:hr>128</ns3:hr>
            <ns3:cad>58</ns3:cad>
          </ns3:TrackPointExtension>
        </extensions>
      </trkpt>
      <trkpt lat="45.3372084908187389373779296875" lon="-70.8185659535229206085205078125">
        <ele>873.20001220703125</ele>
        <time>2026-08-21T11:55:10.000Z</time>
        <extensions>
          <ns3:TrackPointExtension>
            <ns3:hr>128</ns3:hr>
            <ns3:cad>58</ns3:cad>
          </ns3:TrackPointExtension>
        </extensions>
      </trkpt>
      <trkpt lat="45.337198935449123382568359375" lon="-70.8185796998441219329833984375">
        <ele>873.20001220703125</ele>
        <time>2026-08-21T11:55:11.000Z</time>
        <extensions>
          <ns3:TrackPointExtension>
            <ns3:hr>127</ns3:hr>
            <ns3:cad>58</ns3:cad>
          </ns3:TrackPointExtension>
        </extensions>
      </trkpt>
      <trkpt lat="45.33719130791723728179931640625" lon="-70.8185931108891963958740234375">
        <ele>873.20001220703125</ele>
        <time>2026-08-21T11:55:12.000Z</time>
        <extensions>
          <ns3:TrackPointExtension>
            <ns3:hr>126</ns3:hr>
            <ns3:cad>58</ns3:cad>
          </ns3:TrackPointExtension>
        </extensions>
      </trkpt>
      <trkpt lat="45.33718376420438289642333984375" lon="-70.8186028338968753814697265625">
        <ele>873.20001220703125</ele>
        <time>2026-08-21T11:55:13.000Z</time>
        <extensions>
          <ns3:TrackPointExtension>
            <ns3:hr>126</ns3:hr>
            <ns3:cad>58</ns3:cad>
          </ns3:TrackPointExtension>
        </extensions>
      </trkpt>
      <trkpt lat="45.3371711075305938720703125" lon="-70.818609707057476043701171875">
        <ele>873.4000244140625</ele>
        <time>2026-08-21T11:55:14.000Z</time>
        <extensions>
          <ns3:TrackPointExtension>
            <ns3:hr>124</ns3:hr>
            <ns3:cad>58</ns3:cad>
          </ns3:TrackPointExtension>
        </extensions>
      </trkpt>
      <trkpt lat="45.33716046251356601715087890625" lon="-70.81861783750355243682861328125">
        <ele>873.4000244140625</ele>
        <time>2026-08-21T11:55:15.000Z</time>
        <extensions>
          <ns3:TrackPointExtension>
            <ns3:hr>123</ns3:hr>
            <ns3:cad>58</ns3:cad>
          </ns3:TrackPointExtension>
        </extensions>
      </trkpt>
      <trkpt lat="45.33714973367750644683837890625" lon="-70.81862051971256732940673828125">
        <ele>873.4000244140625</ele>
        <time>2026-08-21T11:55:16.000Z</time>
        <extensions>
          <ns3:TrackPointExtension>
            <ns3:hr>122</ns3:hr>
            <ns3:cad>50</ns3:cad>
          </ns3:TrackPointExtension>
        </extensions>
      </trkpt>
      <trkpt lat="45.33714051358401775360107421875" lon="-70.81862638704478740692138671875">
        <ele>873.5999755859375</ele>
        <time>2026-08-21T11:55:17.000Z</time>
        <extensions>
          <ns3:TrackPointExtension>
            <ns3:hr>122</ns3:hr>
            <ns3:cad>48</ns3:cad>
          </ns3:TrackPointExtension>
        </extensions>
      </trkpt>
      <trkpt lat="45.3371290303766727447509765625" lon="-70.81862990744411945343017578125">
        <ele>873.5999755859375</ele>
        <time>2026-08-21T11:55:18.000Z</time>
        <extensions>
          <ns3:TrackPointExtension>
            <ns3:hr>122</ns3:hr>
            <ns3:cad>48</ns3:cad>
          </ns3:TrackPointExtension>
        </extensions>
      </trkpt>
      <trkpt lat="45.337124168872833251953125" lon="-70.81863627769052982330322265625">
        <ele>873.5999755859375</ele>
        <time>2026-08-21T11:55:19.000Z</time>
        <extensions>
          <ns3:TrackPointExtension>
            <ns3:hr>122</ns3:hr>
            <ns3:cad>49</ns3:cad>
          </ns3:TrackPointExtension>
        </extensions>
      </trkpt>
      <trkpt lat="45.33711670897901058197021484375" lon="-70.8186470903456211090087890625">
        <ele>873.79998779296875</ele>
        <time>2026-08-21T11:55:20.000Z</time>
        <extensions>
          <ns3:TrackPointExtension>
            <ns3:hr>122</ns3:hr>
            <ns3:cad>49</ns3:cad>
          </ns3:TrackPointExtension>
        </extensions>
      </trkpt>
      <trkpt lat="45.337108410894870758056640625" lon="-70.81866125576198101043701171875">
        <ele>873.79998779296875</ele>
        <time>2026-08-21T11:55:21.000Z</time>
        <extensions>
          <ns3:TrackPointExtension>
            <ns3:hr>122</ns3:hr>
            <ns3:cad>49</ns3:cad>
          </ns3:TrackPointExtension>
        </extensions>
      </trkpt>
      <trkpt lat="45.33710069954395294189453125" lon="-70.818673074245452880859375">
        <ele>873.79998779296875</ele>
        <time>2026-08-21T11:55:22.000Z</time>
        <extensions>
          <ns3:TrackPointExtension>
            <ns3:hr>122</ns3:hr>
            <ns3:cad>49</ns3:cad>
          </ns3:TrackPointExtension>
        </extensions>
      </trkpt>
      <trkpt lat="45.3370933234691619873046875" lon="-70.8186822943389415740966796875">
        <ele>873.79998779296875</ele>
        <time>2026-08-21T11:55:23.000Z</time>
        <extensions>
          <ns3:TrackPointExtension>
            <ns3:hr>121</ns3:hr>
            <ns3:cad>49</ns3:cad>
          </ns3:TrackPointExtension>
        </extensions>
      </trkpt>
      <trkpt lat="45.33707966096699237823486328125" lon="-70.81868447363376617431640625">
        <ele>873.5999755859375</ele>
        <time>2026-08-21T11:55:24.000Z</time>
        <extensions>
          <ns3:TrackPointExtension>
            <ns3:hr>122</ns3:hr>
            <ns3:cad>49</ns3:cad>
          </ns3:TrackPointExtension>
        </extensions>
      </trkpt>
      <trkpt lat="45.33706842921674251556396484375" lon="-70.81868036650121212005615234375">
        <ele>873.5999755859375</ele>
        <time>2026-08-21T11:55:25.000Z</time>
        <extensions>
          <ns3:TrackPointExtension>
            <ns3:hr>123</ns3:hr>
            <ns3:cad>49</ns3:cad>
          </ns3:TrackPointExtension>
        </extensions>
      </trkpt>
      <trkpt lat="45.33706088550388813018798828125" lon="-70.81867567263543605804443359375">
        <ele>873.79998779296875</ele>
        <time>2026-08-21T11:55:26.000Z</time>
        <extensions>
          <ns3:TrackPointExtension>
            <ns3:hr>123</ns3:hr>
            <ns3:cad>53</ns3:cad>
          </ns3:TrackPointExtension>
        </extensions>
      </trkpt>
      <trkpt lat="45.3370557725429534912109375" lon="-70.81867114640772342681884765625">
        <ele>873.79998779296875</ele>
        <time>2026-08-21T11:55:27.000Z</time>
        <extensions>
          <ns3:TrackPointExtension>
            <ns3:hr>124</ns3:hr>
            <ns3:cad>53</ns3:cad>
          </ns3:TrackPointExtension>
        </extensions>
      </trkpt>
      <trkpt lat="45.33704546280205249786376953125" lon="-70.81866762600839138031005859375">
        <ele>874</ele>
        <time>2026-08-21T11:55:28.000Z</time>
        <extensions>
          <ns3:TrackPointExtension>
            <ns3:hr>124</ns3:hr>
            <ns3:cad>53</ns3:cad>
          </ns3:TrackPointExtension>
        </extensions>
      </trkpt>
      <trkpt lat="45.3370294533669948577880859375" lon="-70.81867039203643798828125">
        <ele>874.20001220703125</ele>
        <time>2026-08-21T11:55:29.000Z</time>
        <extensions>
          <ns3:TrackPointExtension>
            <ns3:hr>124</ns3:hr>
            <ns3:cad>53</ns3:cad>
          </ns3:TrackPointExtension>
        </extensions>
      </trkpt>
      <trkpt lat="45.33701478503644466400146484375" lon="-70.81867969594895839691162109375">
        <ele>874.5999755859375</ele>
        <time>2026-08-21T11:55:30.000Z</time>
        <extensions>
          <ns3:TrackPointExtension>
            <ns3:hr>124</ns3:hr>
            <ns3:cad>53</ns3:cad>
          </ns3:TrackPointExtension>
        </extensions>
      </trkpt>
      <trkpt lat="45.3370049782097339630126953125" lon="-70.81868983805179595947265625">
        <ele>874.79998779296875</ele>
        <time>2026-08-21T11:55:31.000Z</time>
        <extensions>
          <ns3:TrackPointExtension>
            <ns3:hr>123</ns3:hr>
            <ns3:cad>53</ns3:cad>
          </ns3:TrackPointExtension>
        </extensions>
      </trkpt>
      <trkpt lat="45.33699332736432552337646484375" lon="-70.818700902163982391357421875">
        <ele>875</ele>
        <time>2026-08-21T11:55:32.000Z</time>
        <extensions>
          <ns3:TrackPointExtension>
            <ns3:hr>124</ns3:hr>
            <ns3:cad>53</ns3:cad>
          </ns3:TrackPointExtension>
        </extensions>
      </trkpt>
      <trkpt lat="45.33698041923344135284423828125" lon="-70.81870920024812221527099609375">
        <ele>875.20001220703125</ele>
        <time>2026-08-21T11:55:33.000Z</time>
        <extensions>
          <ns3:TrackPointExtension>
            <ns3:hr>124</ns3:hr>
            <ns3:cad>53</ns3:cad>
          </ns3:TrackPointExtension>
        </extensions>
      </trkpt>
      <trkpt lat="45.336970277130603790283203125" lon="-70.8187158219516277313232421875">
        <ele>875.4000244140625</ele>
        <time>2026-08-21T11:55:34.000Z</time>
        <extensions>
          <ns3:TrackPointExtension>
            <ns3:hr>124</ns3:hr>
            <ns3:cad>53</ns3:cad>
          </ns3:TrackPointExtension>
        </extensions>
      </trkpt>
      <trkpt lat="45.33695862628519535064697265625" lon="-70.8187211863696575164794921875">
        <ele>875.4000244140625</ele>
        <time>2026-08-21T11:55:35.000Z</time>
        <extensions>
          <ns3:TrackPointExtension>
            <ns3:hr>125</ns3:hr>
            <ns3:cad>53</ns3:cad>
          </ns3:TrackPointExtension>
        </extensions>
      </trkpt>
      <trkpt lat="45.33694974146783351898193359375" lon="-70.81872412003576755523681640625">
        <ele>875.5999755859375</ele>
        <time>2026-08-21T11:55:36.000Z</time>
        <extensions>
          <ns3:TrackPointExtension>
            <ns3:hr>126</ns3:hr>
            <ns3:cad>53</ns3:cad>
          </ns3:TrackPointExtension>
        </extensions>
      </trkpt>
      <trkpt lat="45.33693649806082248687744140625" lon="-70.8187288977205753326416015625">
        <ele>875.79998779296875</ele>
        <time>2026-08-21T11:55:37.000Z</time>
        <extensions>
          <ns3:TrackPointExtension>
            <ns3:hr>126</ns3:hr>
            <ns3:cad>53</ns3:cad>
          </ns3:TrackPointExtension>
        </extensions>
      </trkpt>
      <trkpt lat="45.33692258410155773162841796875" lon="-70.8187309093773365020751953125">
        <ele>876</ele>
        <time>2026-08-21T11:55:38.000Z</time>
        <extensions>
          <ns3:TrackPointExtension>
            <ns3:hr>127</ns3:hr>
            <ns3:cad>54</ns3:cad>
          </ns3:TrackPointExtension>
        </extensions>
      </trkpt>
      <trkpt lat="45.33691353164613246917724609375" lon="-70.81873275339603424072265625">
        <ele>876.4000244140625</ele>
        <time>2026-08-21T11:55:39.000Z</time>
        <extensions>
          <ns3:TrackPointExtension>
            <ns3:hr>127</ns3:hr>
            <ns3:cad>54</ns3:cad>
          </ns3:TrackPointExtension>
        </extensions>
      </trkpt>
      <trkpt lat="45.33690514974296092987060546875" lon="-70.8187372796237468719482421875">
        <ele>876.5999755859375</ele>
        <time>2026-08-21T11:55:40.000Z</time>
        <extensions>
          <ns3:TrackPointExtension>
            <ns3:hr>128</ns3:hr>
            <ns3:cad>52</ns3:cad>
          </ns3:TrackPointExtension>
        </extensions>
      </trkpt>
      <trkpt lat="45.3368983604013919830322265625" lon="-70.8187413029372692108154296875">
        <ele>877</ele>
        <time>2026-08-21T11:55:41.000Z</time>
        <extensions>
          <ns3:TrackPointExtension>
            <ns3:hr>128</ns3:hr>
            <ns3:cad>52</ns3:cad>
          </ns3:TrackPointExtension>
        </extensions>
      </trkpt>
      <trkpt lat="45.3368883021175861358642578125" lon="-70.8187419734895229339599609375">
        <ele>877.20001220703125</ele>
        <time>2026-08-21T11:55:42.000Z</time>
        <extensions>
          <ns3:TrackPointExtension>
            <ns3:hr>127</ns3:hr>
            <ns3:cad>52</ns3:cad>
          </ns3:TrackPointExtension>
        </extensions>
      </trkpt>
      <trkpt lat="45.3368799202144145965576171875" lon="-70.81874390132725238800048828125">
        <ele>877.5999755859375</ele>
        <time>2026-08-21T11:55:43.000Z</time>
        <extensions>
          <ns3:TrackPointExtension>
            <ns3:hr>127</ns3:hr>
            <ns3:cad>52</ns3:cad>
          </ns3:TrackPointExtension>
        </extensions>
      </trkpt>
      <trkpt lat="45.33687078393995761871337890625" lon="-70.818747840821743011474609375">
        <ele>878</ele>
        <time>2026-08-21T11:55:44.000Z</time>
        <extensions>
          <ns3:TrackPointExtension>
            <ns3:hr>127</ns3:hr>
            <ns3:cad>52</ns3:cad>
          </ns3:TrackPointExtension>
        </extensions>
      </trkpt>
      <trkpt lat="45.33686072565615177154541015625" lon="-70.81875018775463104248046875">
        <ele>878.20001220703125</ele>
        <time>2026-08-21T11:55:45.000Z</time>
        <extensions>
          <ns3:TrackPointExtension>
            <ns3:hr>127</ns3:hr>
            <ns3:cad>0</ns3:cad>
          </ns3:TrackPointExtension>
        </extensions>
      </trkpt>
      <trkpt lat="45.3368467278778553009033203125" lon="-70.8187550492584705352783203125">
        <ele>878.5999755859375</ele>
        <time>2026-08-21T11:55:46.000Z</time>
        <extensions>
          <ns3:TrackPointExtension>
            <ns3:hr>128</ns3:hr>
            <ns3:cad>0</ns3:cad>
          </ns3:TrackPointExtension>
        </extensions>
      </trkpt>
      <trkpt lat="45.33683205954730510711669921875" lon="-70.81875622272491455078125">
        <ele>879</ele>
        <time>2026-08-21T11:55:47.000Z</time>
        <extensions>
          <ns3:TrackPointExtension>
            <ns3:hr>129</ns3:hr>
            <ns3:cad>0</ns3:cad>
          </ns3:TrackPointExtension>
        </extensions>
      </trkpt>
      <trkpt lat="45.336822085082530975341796875" lon="-70.8187627606093883514404296875">
        <ele>879.20001220703125</ele>
        <time>2026-08-21T11:55:48.000Z</time>
        <extensions>
          <ns3:TrackPointExtension>
            <ns3:hr>130</ns3:hr>
            <ns3:cad>50</ns3:cad>
          </ns3:TrackPointExtension>
        </extensions>
      </trkpt>
      <trkpt lat="45.336813367903232574462890625" lon="-70.81876686774194240570068359375">
        <ele>879.4000244140625</ele>
        <time>2026-08-21T11:55:49.000Z</time>
        <extensions>
          <ns3:TrackPointExtension>
            <ns3:hr>133</ns3:hr>
            <ns3:cad>50</ns3:cad>
          </ns3:TrackPointExtension>
        </extensions>
      </trkpt>
      <trkpt lat="45.33679987303912639617919921875" lon="-70.8187657780945301055908203125">
        <ele>879.5999755859375</ele>
        <time>2026-08-21T11:55:50.000Z</time>
        <extensions>
          <ns3:TrackPointExtension>
            <ns3:hr>134</ns3:hr>
            <ns3:cad>50</ns3:cad>
          </ns3:TrackPointExtension>
        </extensions>
      </trkpt>
      <trkpt lat="45.3367836959660053253173828125" lon="-70.81876334734261035919189453125">
        <ele>879.79998779296875</ele>
        <time>2026-08-21T11:55:51.000Z</time>
        <extensions>
          <ns3:TrackPointExtension>
            <ns3:hr>133</ns3:hr>
            <ns3:cad>50</ns3:cad>
          </ns3:TrackPointExtension>
        </extensions>
      </trkpt>
      <trkpt lat="45.3367756493389606475830078125" lon="-70.818767286837100982666015625">
        <ele>880</ele>
        <time>2026-08-21T11:55:52.000Z</time>
        <extensions>
          <ns3:TrackPointExtension>
            <ns3:hr>133</ns3:hr>
            <ns3:cad>50</ns3:cad>
          </ns3:TrackPointExtension>
        </extensions>
      </trkpt>
      <trkpt lat="45.33676064573228359222412109375" lon="-70.81876401789486408233642578125">
        <ele>880.20001220703125</ele>
        <time>2026-08-21T11:55:53.000Z</time>
        <extensions>
          <ns3:TrackPointExtension>
            <ns3:hr>133</ns3:hr>
            <ns3:cad>50</ns3:cad>
          </ns3:TrackPointExtension>
        </extensions>
      </trkpt>
      <trkpt lat="45.33674798905849456787109375" lon="-70.81876100040972232818603515625">
        <ele>880.20001220703125</ele>
        <time>2026-08-21T11:55:54.000Z</time>
        <extensions>
          <ns3:TrackPointExtension>
            <ns3:hr>133</ns3:hr>
            <ns3:cad>50</ns3:cad>
          </ns3:TrackPointExtension>
        </extensions>
      </trkpt>
      <trkpt lat="45.33672896213829517364501953125" lon="-70.8187597431242465972900390625">
        <ele>880.4000244140625</ele>
        <time>2026-08-21T11:55:55.000Z</time>
        <extensions>
          <ns3:TrackPointExtension>
            <ns3:hr>134</ns3:hr>
            <ns3:cad>0</ns3:cad>
          </ns3:TrackPointExtension>
        </extensions>
      </trkpt>
      <trkpt lat="45.33671420998871326446533203125" lon="-70.81875697709619998931884765625">
        <ele>880.5999755859375</ele>
        <time>2026-08-21T11:55:56.000Z</time>
        <extensions>
          <ns3:TrackPointExtension>
            <ns3:hr>135</ns3:hr>
            <ns3:cad>0</ns3:cad>
          </ns3:TrackPointExtension>
        </extensions>
      </trkpt>
      <trkpt lat="45.33670180477201938629150390625" lon="-70.81875982694327831268310546875">
        <ele>880.5999755859375</ele>
        <time>2026-08-21T11:55:57.000Z</time>
        <extensions>
          <ns3:TrackPointExtension>
            <ns3:hr>137</ns3:hr>
            <ns3:cad>0</ns3:cad>
          </ns3:TrackPointExtension>
        </extensions>
      </trkpt>
      <trkpt lat="45.3366945125162601470947265625" lon="-70.81875882111489772796630859375">
        <ele>880.79998779296875</ele>
        <time>2026-08-21T11:55:58.000Z</time>
        <extensions>
          <ns3:TrackPointExtension>
            <ns3:hr>139</ns3:hr>
            <ns3:cad>48</ns3:cad>
          </ns3:TrackPointExtension>
        </extensions>
      </trkpt>
      <trkpt lat="45.33667749725282192230224609375" lon="-70.81876401789486408233642578125">
        <ele>880.79998779296875</ele>
        <time>2026-08-21T11:55:59.000Z</time>
        <extensions>
          <ns3:TrackPointExtension>
            <ns3:hr>140</ns3:hr>
            <ns3:cad>48</ns3:cad>
          </ns3:TrackPointExtension>
        </extensions>
      </trkpt>
      <trkpt lat="45.33666626550257205963134765625" lon="-70.81876804120838642120361328125">
        <ele>881</ele>
        <time>2026-08-21T11:56:00.000Z</time>
        <extensions>
          <ns3:TrackPointExtension>
            <ns3:hr>140</ns3:hr>
            <ns3:cad>48</ns3:cad>
          </ns3:TrackPointExtension>
        </extensions>
      </trkpt>
      <trkpt lat="45.336655788123607635498046875" lon="-70.818780027329921722412109375">
        <ele>881.20001220703125</ele>
        <time>2026-08-21T11:56:01.000Z</time>
        <extensions>
          <ns3:TrackPointExtension>
            <ns3:hr>140</ns3:hr>
            <ns3:cad>48</ns3:cad>
          </ns3:TrackPointExtension>
        </extensions>
      </trkpt>
      <trkpt lat="45.33664338290691375732421875" lon="-70.818786732852458953857421875">
        <ele>881.4000244140625</ele>
        <time>2026-08-21T11:56:02.000Z</time>
        <extensions>
          <ns3:TrackPointExtension>
            <ns3:hr>140</ns3:hr>
            <ns3:cad>0</ns3:cad>
          </ns3:TrackPointExtension>
        </extensions>
      </trkpt>
      <trkpt lat="45.33662888221442699432373046875" lon="-70.81878514029085636138916015625">
        <ele>881.5999755859375</ele>
        <time>2026-08-21T11:56:03.000Z</time>
        <extensions>
          <ns3:TrackPointExtension>
            <ns3:hr>140</ns3:hr>
            <ns3:cad>0</ns3:cad>
          </ns3:TrackPointExtension>
        </extensions>
      </trkpt>
      <trkpt lat="45.3366167284548282623291015625" lon="-70.81878782249987125396728515625">
        <ele>881.79998779296875</ele>
        <time>2026-08-21T11:56:04.000Z</time>
        <extensions>
          <ns3:TrackPointExtension>
            <ns3:hr>141</ns3:hr>
            <ns3:cad>0</ns3:cad>
          </ns3:TrackPointExtension>
        </extensions>
      </trkpt>
      <trkpt lat="45.33660859800875186920166015625" lon="-70.8187969587743282318115234375">
        <ele>882</ele>
        <time>2026-08-21T11:56:05.000Z</time>
        <extensions>
          <ns3:TrackPointExtension>
            <ns3:hr>140</ns3:hr>
            <ns3:cad>0</ns3:cad>
          </ns3:TrackPointExtension>
        </extensions>
      </trkpt>
      <trkpt lat="45.33659753389656543731689453125" lon="-70.81880006007850170135498046875">
        <ele>882.4000244140625</ele>
        <time>2026-08-21T11:56:06.000Z</time>
        <extensions>
          <ns3:TrackPointExtension>
            <ns3:hr>141</ns3:hr>
            <ns3:cad>0</ns3:cad>
          </ns3:TrackPointExtension>
        </extensions>
      </trkpt>
      <trkpt lat="45.336587727069854736328125" lon="-70.81880517303943634033203125">
        <ele>882.5999755859375</ele>
        <time>2026-08-21T11:56:07.000Z</time>
        <extensions>
          <ns3:TrackPointExtension>
            <ns3:hr>141</ns3:hr>
            <ns3:cad>50</ns3:cad>
          </ns3:TrackPointExtension>
        </extensions>
      </trkpt>
      <trkpt lat="45.336576662957668304443359375" lon="-70.8188110403716564178466796875">
        <ele>882.79998779296875</ele>
        <time>2026-08-21T11:56:08.000Z</time>
        <extensions>
          <ns3:TrackPointExtension>
            <ns3:hr>142</ns3:hr>
            <ns3:cad>50</ns3:cad>
          </ns3:TrackPointExtension>
        </extensions>
      </trkpt>
      <trkpt lat="45.336563922464847564697265625" lon="-70.81881531514227390289306640625">
        <ele>882.79998779296875</ele>
        <time>2026-08-21T11:56:09.000Z</time>
        <extensions>
          <ns3:TrackPointExtension>
            <ns3:hr>142</ns3:hr>
            <ns3:cad>52</ns3:cad>
          </ns3:TrackPointExtension>
        </extensions>
      </trkpt>
      <trkpt lat="45.3365530259907245635986328125" lon="-70.8188224397599697113037109375">
        <ele>883</ele>
        <time>2026-08-21T11:56:10.000Z</time>
        <extensions>
          <ns3:TrackPointExtension>
            <ns3:hr>142</ns3:hr>
            <ns3:cad>52</ns3:cad>
          </ns3:TrackPointExtension>
        </extensions>
      </trkpt>
      <trkpt lat="45.3365426324307918548583984375" lon="-70.81882604397833347320556640625">
        <ele>883.20001220703125</ele>
        <time>2026-08-21T11:56:11.000Z</time>
        <extensions>
          <ns3:TrackPointExtension>
            <ns3:hr>143</ns3:hr>
            <ns3:cad>52</ns3:cad>
          </ns3:TrackPointExtension>
        </extensions>
      </trkpt>
      <trkpt lat="45.33653232268989086151123046875" lon="-70.81882931292057037353515625">
        <ele>883.4000244140625</ele>
        <time>2026-08-21T11:56:12.000Z</time>
        <extensions>
          <ns3:TrackPointExtension>
            <ns3:hr>143</ns3:hr>
            <ns3:cad>52</ns3:cad>
          </ns3:TrackPointExtension>
        </extensions>
      </trkpt>
      <trkpt lat="45.3365211747586727142333984375" lon="-70.81883140839636325836181640625">
        <ele>883.5999755859375</ele>
        <time>2026-08-21T11:56:13.000Z</time>
        <extensions>
          <ns3:TrackPointExtension>
            <ns3:hr>143</ns3:hr>
            <ns3:cad>52</ns3:cad>
          </ns3:TrackPointExtension>
        </extensions>
      </trkpt>
      <trkpt lat="45.3365060873329639434814453125" lon="-70.81882570870220661163330078125">
        <ele>883.5999755859375</ele>
        <time>2026-08-21T11:56:14.000Z</time>
        <extensions>
          <ns3:TrackPointExtension>
            <ns3:hr>143</ns3:hr>
            <ns3:cad>50</ns3:cad>
          </ns3:TrackPointExtension>
        </extensions>
      </trkpt>
      <trkpt lat="45.3364909999072551727294921875" lon="-70.8188234455883502960205078125">
        <ele>883.79998779296875</ele>
        <time>2026-08-21T11:56:15.000Z</time>
        <extensions>
          <ns3:TrackPointExtension>
            <ns3:hr>143</ns3:hr>
            <ns3:cad>50</ns3:cad>
          </ns3:TrackPointExtension>
        </extensions>
      </trkpt>
      <trkpt lat="45.33647113479673862457275390625" lon="-70.818825624883174896240234375">
        <ele>884</ele>
        <time>2026-08-21T11:56:16.000Z</time>
        <extensions>
          <ns3:TrackPointExtension>
            <ns3:hr>143</ns3:hr>
            <ns3:cad>50</ns3:cad>
          </ns3:TrackPointExtension>
        </extensions>
      </trkpt>
      <trkpt lat="45.3364574722945690155029296875" lon="-70.81883409060537815093994140625">
        <ele>884</ele>
        <time>2026-08-21T11:56:17.000Z</time>
        <extensions>
          <ns3:TrackPointExtension>
            <ns3:hr>143</ns3:hr>
            <ns3:cad>48</ns3:cad>
          </ns3:TrackPointExtension>
        </extensions>
      </trkpt>
      <trkpt lat="45.3364467434585094451904296875" lon="-70.81883962266147136688232421875">
        <ele>884.20001220703125</ele>
        <time>2026-08-21T11:56:18.000Z</time>
        <extensions>
          <ns3:TrackPointExtension>
            <ns3:hr>144</ns3:hr>
            <ns3:cad>48</ns3:cad>
          </ns3:TrackPointExtension>
        </extensions>
      </trkpt>
      <trkpt lat="45.33644313924014568328857421875" lon="-70.818847753107547760009765625">
        <ele>884.4000244140625</ele>
        <time>2026-08-21T11:56:19.000Z</time>
        <extensions>
          <ns3:TrackPointExtension>
            <ns3:hr>144</ns3:hr>
            <ns3:cad>0</ns3:cad>
          </ns3:TrackPointExtension>
        </extensions>
      </trkpt>
      <trkpt lat="45.3364343382418155670166015625" lon="-70.818853117525577545166015625">
        <ele>884.4000244140625</ele>
        <time>2026-08-21T11:56:20.000Z</time>
        <extensions>
          <ns3:TrackPointExtension>
            <ns3:hr>144</ns3:hr>
            <ns3:cad>0</ns3:cad>
          </ns3:TrackPointExtension>
        </extensions>
      </trkpt>
      <trkpt lat="45.336426794528961181640625" lon="-70.818855464458465576171875">
        <ele>884.5999755859375</ele>
        <time>2026-08-21T11:56:21.000Z</time>
        <extensions>
          <ns3:TrackPointExtension>
            <ns3:hr>144</ns3:hr>
            <ns3:cad>0</ns3:cad>
          </ns3:TrackPointExtension>
        </extensions>
      </trkpt>
      <trkpt lat="45.33641598187386989593505859375" lon="-70.8188630081713199615478515625">
        <ele>884.79998779296875</ele>
        <time>2026-08-21T11:56:22.000Z</time>
        <extensions>
          <ns3:TrackPointExtension>
            <ns3:hr>143</ns3:hr>
            <ns3:cad>0</ns3:cad>
          </ns3:TrackPointExtension>
        </extensions>
      </trkpt>
      <trkpt lat="45.3364091925323009490966796875" lon="-70.81886761821806430816650390625">
        <ele>885</ele>
        <time>2026-08-21T11:56:23.000Z</time>
        <extensions>
          <ns3:TrackPointExtension>
            <ns3:hr>143</ns3:hr>
            <ns3:cad>0</ns3:cad>
          </ns3:TrackPointExtension>
        </extensions>
      </trkpt>
      <trkpt lat="45.3364008106291294097900390625" lon="-70.818873234093189239501953125">
        <ele>885.4000244140625</ele>
        <time>2026-08-21T11:56:24.000Z</time>
        <extensions>
          <ns3:TrackPointExtension>
            <ns3:hr>143</ns3:hr>
            <ns3:cad>0</ns3:cad>
          </ns3:TrackPointExtension>
        </extensions>
      </trkpt>
      <trkpt lat="45.3363897465169429779052734375" lon="-70.8188750781118869781494140625">
        <ele>885.5999755859375</ele>
        <time>2026-08-21T11:56:25.000Z</time>
        <extensions>
          <ns3:TrackPointExtension>
            <ns3:hr>142</ns3:hr>
            <ns3:cad>0</ns3:cad>
          </ns3:TrackPointExtension>
        </extensions>
      </trkpt>
      <trkpt lat="45.336375497281551361083984375" lon="-70.8188807778060436248779296875">
        <ele>885.79998779296875</ele>
        <time>2026-08-21T11:56:26.000Z</time>
        <extensions>
          <ns3:TrackPointExtension>
            <ns3:hr>142</ns3:hr>
            <ns3:cad>0</ns3:cad>
          </ns3:TrackPointExtension>
        </extensions>
      </trkpt>
      <trkpt lat="45.33636183477938175201416015625" lon="-70.8188921771943569183349609375">
        <ele>886</ele>
        <time>2026-08-21T11:56:27.000Z</time>
        <extensions>
          <ns3:TrackPointExtension>
            <ns3:hr>143</ns3:hr>
            <ns3:cad>0</ns3:cad>
          </ns3:TrackPointExtension>
        </extensions>
      </trkpt>
      <trkpt lat="45.3363548777997493743896484375" lon="-70.818904750049114227294921875">
        <ele>886.20001220703125</ele>
        <time>2026-08-21T11:56:28.000Z</time>
        <extensions>
          <ns3:TrackPointExtension>
            <ns3:hr>143</ns3:hr>
            <ns3:cad>0</ns3:cad>
          </ns3:TrackPointExtension>
        </extensions>
      </trkpt>
      <trkpt lat="45.33634590916335582733154296875" lon="-70.81891254521906375885009765625">
        <ele>886.4000244140625</ele>
        <time>2026-08-21T11:56:29.000Z</time>
        <extensions>
          <ns3:TrackPointExtension>
            <ns3:hr>143</ns3:hr>
            <ns3:cad>0</ns3:cad>
          </ns3:TrackPointExtension>
        </extensions>
      </trkpt>
      <trkpt lat="45.3363344259560108184814453125" lon="-70.8189236931502819061279296875">
        <ele>886.5999755859375</ele>
        <time>2026-08-21T11:56:30.000Z</time>
        <extensions>
          <ns3:TrackPointExtension>
            <ns3:hr>142</ns3:hr>
            <ns3:cad>0</ns3:cad>
          </ns3:TrackPointExtension>
        </extensions>
      </trkpt>
      <trkpt lat="45.33632411621510982513427734375" lon="-70.81893215887248516082763671875">
        <ele>886.5999755859375</ele>
        <time>2026-08-21T11:56:31.000Z</time>
        <extensions>
          <ns3:TrackPointExtension>
            <ns3:hr>143</ns3:hr>
            <ns3:cad>0</ns3:cad>
          </ns3:TrackPointExtension>
        </extensions>
      </trkpt>
      <trkpt lat="45.3363109566271305084228515625" lon="-70.818935930728912353515625">
        <ele>886.79998779296875</ele>
        <time>2026-08-21T11:56:32.000Z</time>
        <extensions>
          <ns3:TrackPointExtension>
            <ns3:hr>143</ns3:hr>
            <ns3:cad>0</ns3:cad>
          </ns3:TrackPointExtension>
        </extensions>
      </trkpt>
      <trkpt lat="45.33630073070526123046875" lon="-70.81893366761505603790283203125">
        <ele>886.79998779296875</ele>
        <time>2026-08-21T11:56:33.000Z</time>
        <extensions>
          <ns3:TrackPointExtension>
            <ns3:hr>142</ns3:hr>
            <ns3:cad>0</ns3:cad>
          </ns3:TrackPointExtension>
        </extensions>
      </trkpt>
      <trkpt lat="45.33629628829658031463623046875" lon="-70.81892528571188449859619140625">
        <ele>887</ele>
        <time>2026-08-21T11:56:34.000Z</time>
        <extensions>
          <ns3:TrackPointExtension>
            <ns3:hr>143</ns3:hr>
            <ns3:cad>0</ns3:cad>
          </ns3:TrackPointExtension>
        </extensions>
      </trkpt>
      <trkpt lat="45.33628723584115505218505859375" lon="-70.8189158141613006591796875">
        <ele>887</ele>
        <time>2026-08-21T11:56:35.000Z</time>
        <extensions>
          <ns3:TrackPointExtension>
            <ns3:hr>143</ns3:hr>
            <ns3:cad>0</ns3:cad>
          </ns3:TrackPointExtension>
        </extensions>
      </trkpt>
      <trkpt lat="45.336272232234477996826171875" lon="-70.81891874782741069793701171875">
        <ele>887.20001220703125</ele>
        <time>2026-08-21T11:56:36.000Z</time>
        <extensions>
          <ns3:TrackPointExtension>
            <ns3:hr>143</ns3:hr>
            <ns3:cad>50</ns3:cad>
          </ns3:TrackPointExtension>
        </extensions>
      </trkpt>
      <trkpt lat="45.3362610004842281341552734375" lon="-70.81892612390220165252685546875">
        <ele>887.4000244140625</ele>
        <time>2026-08-21T11:56:37.000Z</time>
        <extensions>
          <ns3:TrackPointExtension>
            <ns3:hr>144</ns3:hr>
            <ns3:cad>50</ns3:cad>
          </ns3:TrackPointExtension>
        </extensions>
      </trkpt>
      <trkpt lat="45.33624884672462940216064453125" lon="-70.8189303986728191375732421875">
        <ele>887.4000244140625</ele>
        <time>2026-08-21T11:56:38.000Z</time>
        <extensions>
          <ns3:TrackPointExtension>
            <ns3:hr>144</ns3:hr>
            <ns3:cad>50</ns3:cad>
          </ns3:TrackPointExtension>
        </extensions>
      </trkpt>
      <trkpt lat="45.33623811788856983184814453125" lon="-70.8189364336431026458740234375">
        <ele>887.5999755859375</ele>
        <time>2026-08-21T11:56:39.000Z</time>
        <extensions>
          <ns3:TrackPointExtension>
            <ns3:hr>145</ns3:hr>
            <ns3:cad>50</ns3:cad>
          </ns3:TrackPointExtension>
        </extensions>
      </trkpt>
      <trkpt lat="45.336223281919956207275390625" lon="-70.81894556991755962371826171875">
        <ele>887.79998779296875</ele>
        <time>2026-08-21T11:56:40.000Z</time>
        <extensions>
          <ns3:TrackPointExtension>
            <ns3:hr>146</ns3:hr>
            <ns3:cad>48</ns3:cad>
          </ns3:TrackPointExtension>
        </extensions>
      </trkpt>
      <trkpt lat="45.336211882531642913818359375" lon="-70.81895671784877777099609375">
        <ele>887.79998779296875</ele>
        <time>2026-08-21T11:56:41.000Z</time>
        <extensions>
          <ns3:TrackPointExtension>
            <ns3:hr>146</ns3:hr>
            <ns3:cad>0</ns3:cad>
          </ns3:TrackPointExtension>
        </extensions>
      </trkpt>
      <trkpt lat="45.336201153695583343505859375" lon="-70.818971805274486541748046875">
        <ele>888</ele>
        <time>2026-08-21T11:56:42.000Z</time>
        <extensions>
          <ns3:TrackPointExtension>
            <ns3:hr>146</ns3:hr>
            <ns3:cad>0</ns3:cad>
          </ns3:TrackPointExtension>
        </extensions>
      </trkpt>
      <trkpt lat="45.3361969627439975738525390625" lon="-70.81898345611989498138427734375">
        <ele>888.20001220703125</ele>
        <time>2026-08-21T11:56:43.000Z</time>
        <extensions>
          <ns3:TrackPointExtension>
            <ns3:hr>145</ns3:hr>
            <ns3:cad>45</ns3:cad>
          </ns3:TrackPointExtension>
        </extensions>
      </trkpt>
      <trkpt lat="45.3361899219453334808349609375" lon="-70.81899200566112995147705078125">
        <ele>888.4000244140625</ele>
        <time>2026-08-21T11:56:44.000Z</time>
        <extensions>
          <ns3:TrackPointExtension>
            <ns3:hr>146</ns3:hr>
            <ns3:cad>45</ns3:cad>
          </ns3:TrackPointExtension>
        </extensions>
      </trkpt>
      <trkpt lat="45.3361795283854007720947265625" lon="-70.8190075121819972991943359375">
        <ele>888.4000244140625</ele>
        <time>2026-08-21T11:56:45.000Z</time>
        <extensions>
          <ns3:TrackPointExtension>
            <ns3:hr>146</ns3:hr>
            <ns3:cad>48</ns3:cad>
          </ns3:TrackPointExtension>
        </extensions>
      </trkpt>
      <trkpt lat="45.33617190085351467132568359375" lon="-70.8190209232270717620849609375">
        <ele>888.5999755859375</ele>
        <time>2026-08-21T11:56:46.000Z</time>
        <extensions>
          <ns3:TrackPointExtension>
            <ns3:hr>146</ns3:hr>
            <ns3:cad>48</ns3:cad>
          </ns3:TrackPointExtension>
        </extensions>
      </trkpt>
      <trkpt lat="45.3361644409596920013427734375" lon="-70.8190299756824970245361328125">
        <ele>888.79998779296875</ele>
        <time>2026-08-21T11:56:47.000Z</time>
        <extensions>
          <ns3:TrackPointExtension>
            <ns3:hr>146</ns3:hr>
            <ns3:cad>48</ns3:cad>
          </ns3:TrackPointExtension>
        </extensions>
      </trkpt>
      <trkpt lat="45.3361520357429981231689453125" lon="-70.8190380223095417022705078125">
        <ele>889</ele>
        <time>2026-08-21T11:56:48.000Z</time>
        <extensions>
          <ns3:TrackPointExtension>
            <ns3:hr>146</ns3:hr>
            <ns3:cad>48</ns3:cad>
          </ns3:TrackPointExtension>
        </extensions>
      </trkpt>
      <trkpt lat="45.336141474545001983642578125" lon="-70.819042213261127471923828125">
        <ele>889.20001220703125</ele>
        <time>2026-08-21T11:56:49.000Z</time>
        <extensions>
          <ns3:TrackPointExtension>
            <ns3:hr>146</ns3:hr>
            <ns3:cad>48</ns3:cad>
          </ns3:TrackPointExtension>
        </extensions>
      </trkpt>
      <trkpt lat="45.33613099716603755950927734375" lon="-70.8190484158694744110107421875">
        <ele>889.20001220703125</ele>
        <time>2026-08-21T11:56:50.000Z</time>
        <extensions>
          <ns3:TrackPointExtension>
            <ns3:hr>146</ns3:hr>
            <ns3:cad>48</ns3:cad>
          </ns3:TrackPointExtension>
        </extensions>
      </trkpt>
      <trkpt lat="45.33611959777772426605224609375" lon="-70.819055624306201934814453125">
        <ele>889.4000244140625</ele>
        <time>2026-08-21T11:56:51.000Z</time>
        <extensions>
          <ns3:TrackPointExtension>
            <ns3:hr>147</ns3:hr>
            <ns3:cad>103</ns3:cad>
          </ns3:TrackPointExtension>
        </extensions>
      </trkpt>
      <trkpt lat="45.33610300160944461822509765625" lon="-70.81906266510486602783203125">
        <ele>889.79998779296875</ele>
        <time>2026-08-21T11:56:52.000Z</time>
        <extensions>
          <ns3:TrackPointExtension>
            <ns3:hr>147</ns3:hr>
            <ns3:cad>103</ns3:cad>
          </ns3:TrackPointExtension>
        </extensions>
      </trkpt>
      <trkpt lat="45.33609084784984588623046875" lon="-70.81906777806580066680908203125">
        <ele>890</ele>
        <time>2026-08-21T11:56:53.000Z</time>
        <extensions>
          <ns3:TrackPointExtension>
            <ns3:hr>146</ns3:hr>
            <ns3:cad>51</ns3:cad>
          </ns3:TrackPointExtension>
        </extensions>
      </trkpt>
      <trkpt lat="45.33607819117605686187744140625" lon="-70.81908152438700199127197265625">
        <ele>890.20001220703125</ele>
        <time>2026-08-21T11:56:54.000Z</time>
        <extensions>
          <ns3:TrackPointExtension>
            <ns3:hr>146</ns3:hr>
            <ns3:cad>51</ns3:cad>
          </ns3:TrackPointExtension>
        </extensions>
      </trkpt>
      <trkpt lat="45.3360658697783946990966796875" lon="-70.81908814609050750732421875">
        <ele>890.4000244140625</ele>
        <time>2026-08-21T11:56:55.000Z</time>
        <extensions>
          <ns3:TrackPointExtension>
            <ns3:hr>146</ns3:hr>
            <ns3:cad>51</ns3:cad>
          </ns3:TrackPointExtension>
        </extensions>
      </trkpt>
      <trkpt lat="45.336051620543003082275390625" lon="-70.8190940134227275848388671875">
        <ele>890.5999755859375</ele>
        <time>2026-08-21T11:56:56.000Z</time>
        <extensions>
          <ns3:TrackPointExtension>
            <ns3:hr>146</ns3:hr>
            <ns3:cad>51</ns3:cad>
          </ns3:TrackPointExtension>
        </extensions>
      </trkpt>
      <trkpt lat="45.3360397182404994964599609375" lon="-70.81910113804042339324951171875">
        <ele>890.79998779296875</ele>
        <time>2026-08-21T11:56:57.000Z</time>
        <extensions>
          <ns3:TrackPointExtension>
            <ns3:hr>146</ns3:hr>
            <ns3:cad>51</ns3:cad>
          </ns3:TrackPointExtension>
        </extensions>
      </trkpt>
      <trkpt lat="45.3360286541283130645751953125" lon="-70.8191127888858318328857421875">
        <ele>891</ele>
        <time>2026-08-21T11:56:58.000Z</time>
        <extensions>
          <ns3:TrackPointExtension>
            <ns3:hr>146</ns3:hr>
            <ns3:cad>48</ns3:cad>
          </ns3:TrackPointExtension>
        </extensions>
      </trkpt>
      <trkpt lat="45.33602186478674411773681640625" lon="-70.8191223442554473876953125">
        <ele>891.20001220703125</ele>
        <time>2026-08-21T11:56:59.000Z</time>
        <extensions>
          <ns3:TrackPointExtension>
            <ns3:hr>146</ns3:hr>
            <ns3:cad>48</ns3:cad>
          </ns3:TrackPointExtension>
        </extensions>
      </trkpt>
      <trkpt lat="45.3360135667026042938232421875" lon="-70.81912913359701633453369140625">
        <ele>891.4000244140625</ele>
        <time>2026-08-21T11:57:00.000Z</time>
        <extensions>
          <ns3:TrackPointExtension>
            <ns3:hr>146</ns3:hr>
            <ns3:cad>50</ns3:cad>
          </ns3:TrackPointExtension>
        </extensions>
      </trkpt>
      <trkpt lat="45.3360016644001007080078125" lon="-70.8191292174160480499267578125">
        <ele>891.5999755859375</ele>
        <time>2026-08-21T11:57:01.000Z</time>
        <extensions>
          <ns3:TrackPointExtension>
            <ns3:hr>146</ns3:hr>
            <ns3:cad>50</ns3:cad>
          </ns3:TrackPointExtension>
        </extensions>
      </trkpt>
      <trkpt lat="45.3359931148588657379150390625" lon="-70.81912913359701633453369140625">
        <ele>891.79998779296875</ele>
        <time>2026-08-21T11:57:02.000Z</time>
        <extensions>
          <ns3:TrackPointExtension>
            <ns3:hr>146</ns3:hr>
            <ns3:cad>50</ns3:cad>
          </ns3:TrackPointExtension>
        </extensions>
      </trkpt>
      <trkpt lat="45.3359877504408359527587890625" lon="-70.8191258646547794342041015625">
        <ele>892</ele>
        <time>2026-08-21T11:57:03.000Z</time>
        <extensions>
          <ns3:TrackPointExtension>
            <ns3:hr>147</ns3:hr>
            <ns3:cad>49</ns3:cad>
          </ns3:TrackPointExtension>
        </extensions>
      </trkpt>
      <trkpt lat="45.3359833918511867523193359375" lon="-70.81912041641771793365478515625">
        <ele>892.20001220703125</ele>
        <time>2026-08-21T11:57:04.000Z</time>
        <extensions>
          <ns3:TrackPointExtension>
            <ns3:hr>146</ns3:hr>
            <ns3:cad>49</ns3:cad>
          </ns3:TrackPointExtension>
        </extensions>
      </trkpt>
      <trkpt lat="45.3359783627092838287353515625" lon="-70.81911538727581501007080078125">
        <ele>892.20001220703125</ele>
        <time>2026-08-21T11:57:05.000Z</time>
        <extensions>
          <ns3:TrackPointExtension>
            <ns3:hr>146</ns3:hr>
            <ns3:cad>47</ns3:cad>
          </ns3:TrackPointExtension>
        </extensions>
      </trkpt>
      <trkpt lat="45.33597006462514400482177734375" lon="-70.8191097714006900787353515625">
        <ele>892.4000244140625</ele>
        <time>2026-08-21T11:57:06.000Z</time>
        <extensions>
          <ns3:TrackPointExtension>
            <ns3:hr>146</ns3:hr>
            <ns3:cad>47</ns3:cad>
          </ns3:TrackPointExtension>
        </extensions>
      </trkpt>
      <trkpt lat="45.33595816232264041900634765625" lon="-70.8191023953258991241455078125">
        <ele>892.5999755859375</ele>
        <time>2026-08-21T11:57:07.000Z</time>
        <extensions>
          <ns3:TrackPointExtension>
            <ns3:hr>146</ns3:hr>
            <ns3:cad>49</ns3:cad>
          </ns3:TrackPointExtension>
        </extensions>
      </trkpt>
      <trkpt lat="45.33594693057239055633544921875" lon="-70.81909644417464733123779296875">
        <ele>892.79998779296875</ele>
        <time>2026-08-21T11:57:08.000Z</time>
        <extensions>
          <ns3:TrackPointExtension>
            <ns3:hr>145</ns3:hr>
            <ns3:cad>49</ns3:cad>
          </ns3:TrackPointExtension>
        </extensions>
      </trkpt>
      <trkpt lat="45.3359377942979335784912109375" lon="-70.81909728236496448516845703125">
        <ele>893</ele>
        <time>2026-08-21T11:57:09.000Z</time>
        <extensions>
          <ns3:TrackPointExtension>
            <ns3:hr>145</ns3:hr>
            <ns3:cad>49</ns3:cad>
          </ns3:TrackPointExtension>
        </extensions>
      </trkpt>
      <trkpt lat="45.33592614345252513885498046875" lon="-70.8190956898033618927001953125">
        <ele>893.20001220703125</ele>
        <time>2026-08-21T11:57:10.000Z</time>
        <extensions>
          <ns3:TrackPointExtension>
            <ns3:hr>145</ns3:hr>
            <ns3:cad>49</ns3:cad>
          </ns3:TrackPointExtension>
        </extensions>
      </trkpt>
      <trkpt lat="45.33590904437005519866943359375" lon="-70.81909812055528163909912109375">
        <ele>893.4000244140625</ele>
        <time>2026-08-21T11:57:11.000Z</time>
        <extensions>
          <ns3:TrackPointExtension>
            <ns3:hr>146</ns3:hr>
            <ns3:cad>49</ns3:cad>
          </ns3:TrackPointExtension>
        </extensions>
      </trkpt>
      <trkpt lat="45.33589898608624935150146484375" lon="-70.8191035687923431396484375">
        <ele>893.5999755859375</ele>
        <time>2026-08-21T11:57:12.000Z</time>
        <extensions>
          <ns3:TrackPointExtension>
            <ns3:hr>146</ns3:hr>
            <ns3:cad>49</ns3:cad>
          </ns3:TrackPointExtension>
        </extensions>
      </trkpt>
      <trkpt lat="45.3358863294124603271484375" lon="-70.81910583190619945526123046875">
        <ele>893.79998779296875</ele>
        <time>2026-08-21T11:57:13.000Z</time>
        <extensions>
          <ns3:TrackPointExtension>
            <ns3:hr>146</ns3:hr>
            <ns3:cad>49</ns3:cad>
          </ns3:TrackPointExtension>
        </extensions>
      </trkpt>
      <trkpt lat="45.33587417565286159515380859375" lon="-70.81910968758165836334228515625">
        <ele>894</ele>
        <time>2026-08-21T11:57:14.000Z</time>
        <extensions>
          <ns3:TrackPointExtension>
            <ns3:hr>147</ns3:hr>
            <ns3:cad>49</ns3:cad>
          </ns3:TrackPointExtension>
        </extensions>
      </trkpt>
      <trkpt lat="45.3358693979680538177490234375" lon="-70.819115303456783294677734375">
        <ele>894</ele>
        <time>2026-08-21T11:57:15.000Z</time>
        <extensions>
          <ns3:TrackPointExtension>
            <ns3:hr>148</ns3:hr>
            <ns3:cad>49</ns3:cad>
          </ns3:TrackPointExtension>
        </extensions>
      </trkpt>
      <trkpt lat="45.33585883677005767822265625" lon="-70.8191235177218914031982421875">
        <ele>894</ele>
        <time>2026-08-21T11:57:16.000Z</time>
        <extensions>
          <ns3:TrackPointExtension>
            <ns3:hr>148</ns3:hr>
            <ns3:cad>49</ns3:cad>
          </ns3:TrackPointExtension>
        </extensions>
      </trkpt>
      <trkpt lat="45.33584810793399810791015625" lon="-70.81912837922573089599609375">
        <ele>894.20001220703125</ele>
        <time>2026-08-21T11:57:17.000Z</time>
        <extensions>
          <ns3:TrackPointExtension>
            <ns3:hr>148</ns3:hr>
            <ns3:cad>49</ns3:cad>
          </ns3:TrackPointExtension>
        </extensions>
      </trkpt>
      <trkpt lat="45.33583746291697025299072265625" lon="-70.81913332454860210418701171875">
        <ele>894.4000244140625</ele>
        <time>2026-08-21T11:57:18.000Z</time>
        <extensions>
          <ns3:TrackPointExtension>
            <ns3:hr>148</ns3:hr>
            <ns3:cad>49</ns3:cad>
          </ns3:TrackPointExtension>
        </extensions>
      </trkpt>
      <trkpt lat="45.33582572825253009796142578125" lon="-70.8191382698714733123779296875">
        <ele>894.5999755859375</ele>
        <time>2026-08-21T11:57:19.000Z</time>
        <extensions>
          <ns3:TrackPointExtension>
            <ns3:hr>148</ns3:hr>
            <ns3:cad>50</ns3:cad>
          </ns3:TrackPointExtension>
        </extensions>
      </trkpt>
      <trkpt lat="45.33581986092031002044677734375" lon="-70.819144137203693389892578125">
        <ele>894.79998779296875</ele>
        <time>2026-08-21T11:57:20.000Z</time>
        <extensions>
          <ns3:TrackPointExtension>
            <ns3:hr>147</ns3:hr>
            <ns3:cad>50</ns3:cad>
          </ns3:TrackPointExtension>
        </extensions>
      </trkpt>
      <trkpt lat="45.33580929972231388092041015625" lon="-70.81915176473557949066162109375">
        <ele>895</ele>
        <time>2026-08-21T11:57:21.000Z</time>
        <extensions>
          <ns3:TrackPointExtension>
            <ns3:hr>147</ns3:hr>
            <ns3:cad>50</ns3:cad>
          </ns3:TrackPointExtension>
        </extensions>
      </trkpt>
      <trkpt lat="45.33579588867723941802978515625" lon="-70.81915880553424358367919921875">
        <ele>895.20001220703125</ele>
        <time>2026-08-21T11:57:22.000Z</time>
        <extensions>
          <ns3:TrackPointExtension>
            <ns3:hr>147</ns3:hr>
            <ns3:cad>50</ns3:cad>
          </ns3:TrackPointExtension>
        </extensions>
      </trkpt>
      <trkpt lat="45.33578365109860897064208984375" lon="-70.81915981136262416839599609375">
        <ele>895.4000244140625</ele>
        <time>2026-08-21T11:57:23.000Z</time>
        <extensions>
          <ns3:TrackPointExtension>
            <ns3:hr>147</ns3:hr>
            <ns3:cad>50</ns3:cad>
          </ns3:TrackPointExtension>
        </extensions>
      </trkpt>
      <trkpt lat="45.33577392809092998504638671875" lon="-70.8191630803048610687255859375">
        <ele>895.4000244140625</ele>
        <time>2026-08-21T11:57:24.000Z</time>
        <extensions>
          <ns3:TrackPointExtension>
            <ns3:hr>147</ns3:hr>
            <ns3:cad>49</ns3:cad>
          </ns3:TrackPointExtension>
        </extensions>
      </trkpt>
      <trkpt lat="45.33576856367290019989013671875" lon="-70.81916551105678081512451171875">
        <ele>895.5999755859375</ele>
        <time>2026-08-21T11:57:25.000Z</time>
        <extensions>
          <ns3:TrackPointExtension>
            <ns3:hr>146</ns3:hr>
            <ns3:cad>49</ns3:cad>
          </ns3:TrackPointExtension>
        </extensions>
      </trkpt>
      <trkpt lat="45.3357627801597118377685546875" lon="-70.8191657625138759613037109375">
        <ele>895.79998779296875</ele>
        <time>2026-08-21T11:57:26.000Z</time>
        <extensions>
          <ns3:TrackPointExtension>
            <ns3:hr>146</ns3:hr>
            <ns3:cad>48</ns3:cad>
          </ns3:TrackPointExtension>
        </extensions>
      </trkpt>
      <trkpt lat="45.3357513807713985443115234375" lon="-70.81916919909417629241943359375">
        <ele>896.20001220703125</ele>
        <time>2026-08-21T11:57:27.000Z</time>
        <extensions>
          <ns3:TrackPointExtension>
            <ns3:hr>146</ns3:hr>
            <ns3:cad>48</ns3:cad>
          </ns3:TrackPointExtension>
        </extensions>
      </trkpt>
      <trkpt lat="45.33574576489627361297607421875" lon="-70.81916819326579570770263671875">
        <ele>896.4000244140625</ele>
        <time>2026-08-21T11:57:28.000Z</time>
        <extensions>
          <ns3:TrackPointExtension>
            <ns3:hr>146</ns3:hr>
            <ns3:cad>48</ns3:cad>
          </ns3:TrackPointExtension>
        </extensions>
      </trkpt>
      <trkpt lat="45.33574107103049755096435546875" lon="-70.81916886381804943084716796875">
        <ele>896.5999755859375</ele>
        <time>2026-08-21T11:57:29.000Z</time>
        <extensions>
          <ns3:TrackPointExtension>
            <ns3:hr>146</ns3:hr>
            <ns3:cad>47</ns3:cad>
          </ns3:TrackPointExtension>
        </extensions>
      </trkpt>
      <trkpt lat="45.3357326053082942962646484375" lon="-70.8191706240177154541015625">
        <ele>896.79998779296875</ele>
        <time>2026-08-21T11:57:30.000Z</time>
        <extensions>
          <ns3:TrackPointExtension>
            <ns3:hr>147</ns3:hr>
            <ns3:cad>47</ns3:cad>
          </ns3:TrackPointExtension>
        </extensions>
      </trkpt>
      <trkpt lat="45.33572883345186710357666015625" lon="-70.81917070783674716949462890625">
        <ele>897</ele>
        <time>2026-08-21T11:57:31.000Z</time>
        <extensions>
          <ns3:TrackPointExtension>
            <ns3:hr>147</ns3:hr>
            <ns3:cad>0</ns3:cad>
          </ns3:TrackPointExtension>
        </extensions>
      </trkpt>
      <trkpt lat="45.33571575768291950225830078125" lon="-70.81917020492255687713623046875">
        <ele>897.20001220703125</ele>
        <time>2026-08-21T11:57:32.000Z</time>
        <extensions>
          <ns3:TrackPointExtension>
            <ns3:hr>147</ns3:hr>
            <ns3:cad>0</ns3:cad>
          </ns3:TrackPointExtension>
        </extensions>
      </trkpt>
      <trkpt lat="45.33570905216038227081298828125" lon="-70.81917154602706432342529296875">
        <ele>897.5999755859375</ele>
        <time>2026-08-21T11:57:33.000Z</time>
        <extensions>
          <ns3:TrackPointExtension>
            <ns3:hr>148</ns3:hr>
            <ns3:cad>0</ns3:cad>
          </ns3:TrackPointExtension>
        </extensions>
      </trkpt>
      <trkpt lat="45.33570150844752788543701171875" lon="-70.81917154602706432342529296875">
        <ele>897.79998779296875</ele>
        <time>2026-08-21T11:57:34.000Z</time>
        <extensions>
          <ns3:TrackPointExtension>
            <ns3:hr>147</ns3:hr>
            <ns3:cad>0</ns3:cad>
          </ns3:TrackPointExtension>
        </extensions>
      </trkpt>
      <trkpt lat="45.33569379709661006927490234375" lon="-70.81918009556829929351806640625">
        <ele>898</ele>
        <time>2026-08-21T11:57:35.000Z</time>
        <extensions>
          <ns3:TrackPointExtension>
            <ns3:hr>147</ns3:hr>
            <ns3:cad>0</ns3:cad>
          </ns3:TrackPointExtension>
        </extensions>
      </trkpt>
      <trkpt lat="45.33568558283150196075439453125" lon="-70.81918261013925075531005859375">
        <ele>898.4000244140625</ele>
        <time>2026-08-21T11:57:36.000Z</time>
        <extensions>
          <ns3:TrackPointExtension>
            <ns3:hr>147</ns3:hr>
            <ns3:cad>0</ns3:cad>
          </ns3:TrackPointExtension>
        </extensions>
      </trkpt>
      <trkpt lat="45.33568055368959903717041015625" lon="-70.8191845379769802093505859375">
        <ele>898.5999755859375</ele>
        <time>2026-08-21T11:57:37.000Z</time>
        <extensions>
          <ns3:TrackPointExtension>
            <ns3:hr>146</ns3:hr>
            <ns3:cad>0</ns3:cad>
          </ns3:TrackPointExtension>
        </extensions>
      </trkpt>
      <trkpt lat="45.33567242324352264404296875" lon="-70.8191867172718048095703125">
        <ele>898.79998779296875</ele>
        <time>2026-08-21T11:57:38.000Z</time>
        <extensions>
          <ns3:TrackPointExtension>
            <ns3:hr>146</ns3:hr>
            <ns3:cad>0</ns3:cad>
          </ns3:TrackPointExtension>
        </extensions>
      </trkpt>
      <trkpt lat="45.33566244877874851226806640625" lon="-70.81918998621404170989990234375">
        <ele>899</ele>
        <time>2026-08-21T11:57:39.000Z</time>
        <extensions>
          <ns3:TrackPointExtension>
            <ns3:hr>146</ns3:hr>
            <ns3:cad>0</ns3:cad>
          </ns3:TrackPointExtension>
        </extensions>
      </trkpt>
      <trkpt lat="45.33565632998943328857421875" lon="-70.81919183023273944854736328125">
        <ele>899.20001220703125</ele>
        <time>2026-08-21T11:57:40.000Z</time>
        <extensions>
          <ns3:TrackPointExtension>
            <ns3:hr>146</ns3:hr>
            <ns3:cad>0</ns3:cad>
          </ns3:TrackPointExtension>
        </extensions>
      </trkpt>
      <trkpt lat="45.3356531448662281036376953125" lon="-70.8191952668130397796630859375">
        <ele>899.4000244140625</ele>
        <time>2026-08-21T11:57:41.000Z</time>
        <extensions>
          <ns3:TrackPointExtension>
            <ns3:hr>146</ns3:hr>
            <ns3:cad>42</ns3:cad>
          </ns3:TrackPointExtension>
        </extensions>
      </trkpt>
      <trkpt lat="45.335643254220485687255859375" lon="-70.81920071505010128021240234375">
        <ele>899.5999755859375</ele>
        <time>2026-08-21T11:57:42.000Z</time>
        <extensions>
          <ns3:TrackPointExtension>
            <ns3:hr>146</ns3:hr>
            <ns3:cad>42</ns3:cad>
          </ns3:TrackPointExtension>
        </extensions>
      </trkpt>
      <trkpt lat="45.33563294447958469390869140625" lon="-70.81920079886913299560546875">
        <ele>899.79998779296875</ele>
        <time>2026-08-21T11:57:43.000Z</time>
        <extensions>
          <ns3:TrackPointExtension>
            <ns3:hr>147</ns3:hr>
            <ns3:cad>42</ns3:cad>
          </ns3:TrackPointExtension>
        </extensions>
      </trkpt>
      <trkpt lat="45.33562590368092060089111328125" lon="-70.81920306198298931121826171875">
        <ele>900</ele>
        <time>2026-08-21T11:57:44.000Z</time>
        <extensions>
          <ns3:TrackPointExtension>
            <ns3:hr>147</ns3:hr>
            <ns3:cad>42</ns3:cad>
          </ns3:TrackPointExtension>
        </extensions>
      </trkpt>
      <trkpt lat="45.3356105647981166839599609375" lon="-70.8192100189626216888427734375">
        <ele>900.20001220703125</ele>
        <time>2026-08-21T11:57:45.000Z</time>
        <extensions>
          <ns3:TrackPointExtension>
            <ns3:hr>146</ns3:hr>
            <ns3:cad>42</ns3:cad>
          </ns3:TrackPointExtension>
        </extensions>
      </trkpt>
      <trkpt lat="45.335606038570404052734375" lon="-70.81920959986746311187744140625">
        <ele>900.4000244140625</ele>
        <time>2026-08-21T11:57:46.000Z</time>
        <extensions>
          <ns3:TrackPointExtension>
            <ns3:hr>146</ns3:hr>
            <ns3:cad>0</ns3:cad>
          </ns3:TrackPointExtension>
        </extensions>
      </trkpt>
      <trkpt lat="45.335594303905963897705078125" lon="-70.8192135393619537353515625">
        <ele>900.5999755859375</ele>
        <time>2026-08-21T11:57:47.000Z</time>
        <extensions>
          <ns3:TrackPointExtension>
            <ns3:hr>146</ns3:hr>
            <ns3:cad>0</ns3:cad>
          </ns3:TrackPointExtension>
        </extensions>
      </trkpt>
      <trkpt lat="45.33558567054569721221923828125" lon="-70.81921379081904888153076171875">
        <ele>901</ele>
        <time>2026-08-21T11:57:48.000Z</time>
        <extensions>
          <ns3:TrackPointExtension>
            <ns3:hr>146</ns3:hr>
            <ns3:cad>0</ns3:cad>
          </ns3:TrackPointExtension>
        </extensions>
      </trkpt>
      <trkpt lat="45.33557812683284282684326171875" lon="-70.8192147128283977508544921875">
        <ele>901.20001220703125</ele>
        <time>2026-08-21T11:57:49.000Z</time>
        <extensions>
          <ns3:TrackPointExtension>
            <ns3:hr>147</ns3:hr>
            <ns3:cad>0</ns3:cad>
          </ns3:TrackPointExtension>
        </extensions>
      </trkpt>
      <trkpt lat="45.3355683200061321258544921875" lon="-70.81921798177063465118408203125">
        <ele>901.4000244140625</ele>
        <time>2026-08-21T11:57:50.000Z</time>
        <extensions>
          <ns3:TrackPointExtension>
            <ns3:hr>147</ns3:hr>
            <ns3:cad>45</ns3:cad>
          </ns3:TrackPointExtension>
        </extensions>
      </trkpt>
      <trkpt lat="45.3355545736849308013916015625" lon="-70.81922284327447414398193359375">
        <ele>901.5999755859375</ele>
        <time>2026-08-21T11:57:51.000Z</time>
        <extensions>
          <ns3:TrackPointExtension>
            <ns3:hr>148</ns3:hr>
            <ns3:cad>45</ns3:cad>
          </ns3:TrackPointExtension>
        </extensions>
      </trkpt>
      <trkpt lat="45.33554728142917156219482421875" lon="-70.81922829151153564453125">
        <ele>902</ele>
        <time>2026-08-21T11:57:52.000Z</time>
        <extensions>
          <ns3:TrackPointExtension>
            <ns3:hr>148</ns3:hr>
            <ns3:cad>45</ns3:cad>
          </ns3:TrackPointExtension>
        </extensions>
      </trkpt>
      <trkpt lat="45.33553873188793659210205078125" lon="-70.81923072226345539093017578125">
        <ele>902.20001220703125</ele>
        <time>2026-08-21T11:57:53.000Z</time>
        <extensions>
          <ns3:TrackPointExtension>
            <ns3:hr>148</ns3:hr>
            <ns3:cad>45</ns3:cad>
          </ns3:TrackPointExtension>
        </extensions>
      </trkpt>
      <trkpt lat="45.33552716486155986785888671875" lon="-70.8192376792430877685546875">
        <ele>902.4000244140625</ele>
        <time>2026-08-21T11:57:54.000Z</time>
        <extensions>
          <ns3:TrackPointExtension>
            <ns3:hr>148</ns3:hr>
            <ns3:cad>45</ns3:cad>
          </ns3:TrackPointExtension>
        </extensions>
      </trkpt>
      <trkpt lat="45.33551626838743686676025390625" lon="-70.81924765370786190032958984375">
        <ele>902.5999755859375</ele>
        <time>2026-08-21T11:57:55.000Z</time>
        <extensions>
          <ns3:TrackPointExtension>
            <ns3:hr>148</ns3:hr>
            <ns3:cad>0</ns3:cad>
          </ns3:TrackPointExtension>
        </extensions>
      </trkpt>
      <trkpt lat="45.3355086408555507659912109375" lon="-70.81925435923039913177490234375">
        <ele>902.79998779296875</ele>
        <time>2026-08-21T11:57:56.000Z</time>
        <extensions>
          <ns3:TrackPointExtension>
            <ns3:hr>148</ns3:hr>
            <ns3:cad>0</ns3:cad>
          </ns3:TrackPointExtension>
        </extensions>
      </trkpt>
      <trkpt lat="45.33550067804753780364990234375" lon="-70.81926248967647552490234375">
        <ele>903</ele>
        <time>2026-08-21T11:57:57.000Z</time>
        <extensions>
          <ns3:TrackPointExtension>
            <ns3:hr>148</ns3:hr>
            <ns3:cad>47</ns3:cad>
          </ns3:TrackPointExtension>
        </extensions>
      </trkpt>
      <trkpt lat="45.33549447543919086456298828125" lon="-70.81926877610385417938232421875">
        <ele>903.20001220703125</ele>
        <time>2026-08-21T11:57:58.000Z</time>
        <extensions>
          <ns3:TrackPointExtension>
            <ns3:hr>149</ns3:hr>
            <ns3:cad>47</ns3:cad>
          </ns3:TrackPointExtension>
        </extensions>
      </trkpt>
      <trkpt lat="45.335487015545368194580078125" lon="-70.81927497871220111846923828125">
        <ele>903.4000244140625</ele>
        <time>2026-08-21T11:57:59.000Z</time>
        <extensions>
          <ns3:TrackPointExtension>
            <ns3:hr>148</ns3:hr>
            <ns3:cad>47</ns3:cad>
          </ns3:TrackPointExtension>
        </extensions>
      </trkpt>
      <trkpt lat="45.33547955565154552459716796875" lon="-70.819280259311199188232421875">
        <ele>903.79998779296875</ele>
        <time>2026-08-21T11:58:00.000Z</time>
        <extensions>
          <ns3:TrackPointExtension>
            <ns3:hr>148</ns3:hr>
            <ns3:cad>47</ns3:cad>
          </ns3:TrackPointExtension>
        </extensions>
      </trkpt>
      <trkpt lat="45.335473604500293731689453125" lon="-70.81928302533924579620361328125">
        <ele>904</ele>
        <time>2026-08-21T11:58:01.000Z</time>
        <extensions>
          <ns3:TrackPointExtension>
            <ns3:hr>149</ns3:hr>
            <ns3:cad>47</ns3:cad>
          </ns3:TrackPointExtension>
        </extensions>
      </trkpt>
      <trkpt lat="45.33546547405421733856201171875" lon="-70.8192834444344043731689453125">
        <ele>904.20001220703125</ele>
        <time>2026-08-21T11:58:02.000Z</time>
        <extensions>
          <ns3:TrackPointExtension>
            <ns3:hr>149</ns3:hr>
            <ns3:cad>46</ns3:cad>
          </ns3:TrackPointExtension>
        </extensions>
      </trkpt>
      <trkpt lat="45.33545541577041149139404296875" lon="-70.81928671337664127349853515625">
        <ele>904.5999755859375</ele>
        <time>2026-08-21T11:58:03.000Z</time>
        <extensions>
          <ns3:TrackPointExtension>
            <ns3:hr>149</ns3:hr>
            <ns3:cad>46</ns3:cad>
          </ns3:TrackPointExtension>
        </extensions>
      </trkpt>
      <trkpt lat="45.3354452736675739288330078125" lon="-70.81928797066211700439453125">
        <ele>904.79998779296875</ele>
        <time>2026-08-21T11:58:04.000Z</time>
        <extensions>
          <ns3:TrackPointExtension>
            <ns3:hr>149</ns3:hr>
            <ns3:cad>46</ns3:cad>
          </ns3:TrackPointExtension>
        </extensions>
      </trkpt>
      <trkpt lat="45.3354419209063053131103515625" lon="-70.819286964833736419677734375">
        <ele>905.20001220703125</ele>
        <time>2026-08-21T11:58:05.000Z</time>
        <extensions>
          <ns3:TrackPointExtension>
            <ns3:hr>149</ns3:hr>
            <ns3:cad>0</ns3:cad>
          </ns3:TrackPointExtension>
        </extensions>
      </trkpt>
      <trkpt lat="45.3354348801076412200927734375" lon="-70.81927992403507232666015625">
        <ele>905.4000244140625</ele>
        <time>2026-08-21T11:58:06.000Z</time>
        <extensions>
          <ns3:TrackPointExtension>
            <ns3:hr>150</ns3:hr>
            <ns3:cad>0</ns3:cad>
          </ns3:TrackPointExtension>
        </extensions>
      </trkpt>
      <trkpt lat="45.3354268334805965423583984375" lon="-70.81927313469350337982177734375">
        <ele>905.5999755859375</ele>
        <time>2026-08-21T11:58:07.000Z</time>
        <extensions>
          <ns3:TrackPointExtension>
            <ns3:hr>150</ns3:hr>
            <ns3:cad>0</ns3:cad>
          </ns3:TrackPointExtension>
        </extensions>
      </trkpt>
      <trkpt lat="45.33541887067258358001708984375" lon="-70.81927062012255191802978515625">
        <ele>905.79998779296875</ele>
        <time>2026-08-21T11:58:08.000Z</time>
        <extensions>
          <ns3:TrackPointExtension>
            <ns3:hr>150</ns3:hr>
            <ns3:cad>0</ns3:cad>
          </ns3:TrackPointExtension>
        </extensions>
      </trkpt>
      <trkpt lat="45.33541627228260040283203125" lon="-70.819271542131900787353515625">
        <ele>906</ele>
        <time>2026-08-21T11:58:09.000Z</time>
        <extensions>
          <ns3:TrackPointExtension>
            <ns3:hr>150</ns3:hr>
            <ns3:cad>0</ns3:cad>
          </ns3:TrackPointExtension>
        </extensions>
      </trkpt>
      <trkpt lat="45.3354053758084774017333984375" lon="-70.81927196122705936431884765625">
        <ele>906.20001220703125</ele>
        <time>2026-08-21T11:58:10.000Z</time>
        <extensions>
          <ns3:TrackPointExtension>
            <ns3:hr>150</ns3:hr>
            <ns3:cad>0</ns3:cad>
          </ns3:TrackPointExtension>
        </extensions>
      </trkpt>
      <trkpt lat="45.33539355732500553131103515625" lon="-70.8192713744938373565673828125">
        <ele>906.4000244140625</ele>
        <time>2026-08-21T11:58:11.000Z</time>
        <extensions>
          <ns3:TrackPointExtension>
            <ns3:hr>150</ns3:hr>
            <ns3:cad>0</ns3:cad>
          </ns3:TrackPointExtension>
        </extensions>
      </trkpt>
      <trkpt lat="45.3353825770318508148193359375" lon="-70.81926559098064899444580078125">
        <ele>906.4000244140625</ele>
        <time>2026-08-21T11:58:12.000Z</time>
        <extensions>
          <ns3:TrackPointExtension>
            <ns3:hr>150</ns3:hr>
            <ns3:cad>56</ns3:cad>
          </ns3:TrackPointExtension>
        </extensions>
      </trkpt>
      <trkpt lat="45.3353715129196643829345703125" lon="-70.81925905309617519378662109375">
        <ele>906.5999755859375</ele>
        <time>2026-08-21T11:58:13.000Z</time>
        <extensions>
          <ns3:TrackPointExtension>
            <ns3:hr>150</ns3:hr>
            <ns3:cad>56</ns3:cad>
          </ns3:TrackPointExtension>
        </extensions>
      </trkpt>
      <trkpt lat="45.33536271192133426666259765625" lon="-70.8192551136016845703125">
        <ele>906.79998779296875</ele>
        <time>2026-08-21T11:58:14.000Z</time>
        <extensions>
          <ns3:TrackPointExtension>
            <ns3:hr>150</ns3:hr>
            <ns3:cad>52</ns3:cad>
          </ns3:TrackPointExtension>
        </extensions>
      </trkpt>
      <trkpt lat="45.3353525698184967041015625" lon="-70.8192522637546062469482421875">
        <ele>907</ele>
        <time>2026-08-21T11:58:15.000Z</time>
        <extensions>
          <ns3:TrackPointExtension>
            <ns3:hr>151</ns3:hr>
            <ns3:cad>52</ns3:cad>
          </ns3:TrackPointExtension>
        </extensions>
      </trkpt>
      <trkpt lat="45.3353420086205005645751953125" lon="-70.819252766668796539306640625">
        <ele>907</ele>
        <time>2026-08-21T11:58:16.000Z</time>
        <extensions>
          <ns3:TrackPointExtension>
            <ns3:hr>150</ns3:hr>
            <ns3:cad>52</ns3:cad>
          </ns3:TrackPointExtension>
        </extensions>
      </trkpt>
      <trkpt lat="45.33533555455505847930908203125" lon="-70.81925100646913051605224609375">
        <ele>907</ele>
        <time>2026-08-21T11:58:17.000Z</time>
        <extensions>
          <ns3:TrackPointExtension>
            <ns3:hr>150</ns3:hr>
            <ns3:cad>52</ns3:cad>
          </ns3:TrackPointExtension>
        </extensions>
      </trkpt>
      <trkpt lat="45.3353235684335231781005859375" lon="-70.819245390594005584716796875">
        <ele>907.20001220703125</ele>
        <time>2026-08-21T11:58:18.000Z</time>
        <extensions>
          <ns3:TrackPointExtension>
            <ns3:hr>150</ns3:hr>
            <ns3:cad>52</ns3:cad>
          </ns3:TrackPointExtension>
        </extensions>
      </trkpt>
      <trkpt lat="45.335312671959400177001953125" lon="-70.819244049489498138427734375">
        <ele>907.20001220703125</ele>
        <time>2026-08-21T11:58:19.000Z</time>
        <extensions>
          <ns3:TrackPointExtension>
            <ns3:hr>149</ns3:hr>
            <ns3:cad>52</ns3:cad>
          </ns3:TrackPointExtension>
        </extensions>
      </trkpt>
      <trkpt lat="45.3353007696568965911865234375" lon="-70.819242037832736968994140625">
        <ele>907.4000244140625</ele>
        <time>2026-08-21T11:58:20.000Z</time>
        <extensions>
          <ns3:TrackPointExtension>
            <ns3:hr>149</ns3:hr>
            <ns3:cad>46</ns3:cad>
          </ns3:TrackPointExtension>
        </extensions>
      </trkpt>
      <trkpt lat="45.33529012463986873626708984375" lon="-70.819244049489498138427734375">
        <ele>907.4000244140625</ele>
        <time>2026-08-21T11:58:21.000Z</time>
        <extensions>
          <ns3:TrackPointExtension>
            <ns3:hr>149</ns3:hr>
            <ns3:cad>46</ns3:cad>
          </ns3:TrackPointExtension>
        </extensions>
      </trkpt>
      <trkpt lat="45.33528056927025318145751953125" lon="-70.81924346275627613067626953125">
        <ele>907.5999755859375</ele>
        <time>2026-08-21T11:58:22.000Z</time>
        <extensions>
          <ns3:TrackPointExtension>
            <ns3:hr>149</ns3:hr>
            <ns3:cad>46</ns3:cad>
          </ns3:TrackPointExtension>
        </extensions>
      </trkpt>
      <trkpt lat="45.33527151681482791900634765625" lon="-70.81923876889050006866455078125">
        <ele>907.5999755859375</ele>
        <time>2026-08-21T11:58:23.000Z</time>
        <extensions>
          <ns3:TrackPointExtension>
            <ns3:hr>148</ns3:hr>
            <ns3:cad>46</ns3:cad>
          </ns3:TrackPointExtension>
        </extensions>
      </trkpt>
      <trkpt lat="45.3352648951113224029541015625" lon="-70.8192294649779796600341796875">
        <ele>907.5999755859375</ele>
        <time>2026-08-21T11:58:24.000Z</time>
        <extensions>
          <ns3:TrackPointExtension>
            <ns3:hr>148</ns3:hr>
            <ns3:cad>49</ns3:cad>
          </ns3:TrackPointExtension>
        </extensions>
      </trkpt>
      <trkpt lat="45.33525911159813404083251953125" lon="-70.81921689212322235107421875">
        <ele>907.5999755859375</ele>
        <time>2026-08-21T11:58:25.000Z</time>
        <extensions>
          <ns3:TrackPointExtension>
            <ns3:hr>148</ns3:hr>
            <ns3:cad>49</ns3:cad>
          </ns3:TrackPointExtension>
        </extensions>
      </trkpt>
      <trkpt lat="45.3352585248649120330810546875" lon="-70.81920079886913299560546875">
        <ele>907.5999755859375</ele>
        <time>2026-08-21T11:58:26.000Z</time>
        <extensions>
          <ns3:TrackPointExtension>
            <ns3:hr>148</ns3:hr>
            <ns3:cad>49</ns3:cad>
          </ns3:TrackPointExtension>
        </extensions>
      </trkpt>
      <trkpt lat="45.335253663361072540283203125" lon="-70.81918579526245594024658203125">
        <ele>907.79998779296875</ele>
        <time>2026-08-21T11:58:27.000Z</time>
        <extensions>
          <ns3:TrackPointExtension>
            <ns3:hr>147</ns3:hr>
            <ns3:cad>49</ns3:cad>
          </ns3:TrackPointExtension>
        </extensions>
      </trkpt>
      <trkpt lat="45.33525022678077220916748046875" lon="-70.81917154602706432342529296875">
        <ele>907.5999755859375</ele>
        <time>2026-08-21T11:58:28.000Z</time>
        <extensions>
          <ns3:TrackPointExtension>
            <ns3:hr>147</ns3:hr>
            <ns3:cad>49</ns3:cad>
          </ns3:TrackPointExtension>
        </extensions>
      </trkpt>
      <trkpt lat="45.33524603582918643951416015625" lon="-70.8191545307636260986328125">
        <ele>907.5999755859375</ele>
        <time>2026-08-21T11:58:29.000Z</time>
        <extensions>
          <ns3:TrackPointExtension>
            <ns3:hr>146</ns3:hr>
            <ns3:cad>53</ns3:cad>
          </ns3:TrackPointExtension>
        </extensions>
      </trkpt>
      <trkpt lat="45.33523748628795146942138671875" lon="-70.81913835369050502777099609375">
        <ele>907.79998779296875</ele>
        <time>2026-08-21T11:58:30.000Z</time>
        <extensions>
          <ns3:TrackPointExtension>
            <ns3:hr>146</ns3:hr>
            <ns3:cad>53</ns3:cad>
          </ns3:TrackPointExtension>
        </extensions>
      </trkpt>
      <trkpt lat="45.33522784709930419921875" lon="-70.81912167370319366455078125">
        <ele>907.79998779296875</ele>
        <time>2026-08-21T11:58:31.000Z</time>
        <extensions>
          <ns3:TrackPointExtension>
            <ns3:hr>146</ns3:hr>
            <ns3:cad>53</ns3:cad>
          </ns3:TrackPointExtension>
        </extensions>
      </trkpt>
      <trkpt lat="45.33521711826324462890625" lon="-70.81910683773458003997802734375">
        <ele>907.79998779296875</ele>
        <time>2026-08-21T11:58:32.000Z</time>
        <extensions>
          <ns3:TrackPointExtension>
            <ns3:hr>146</ns3:hr>
            <ns3:cad>51</ns3:cad>
          </ns3:TrackPointExtension>
        </extensions>
      </trkpt>
      <trkpt lat="45.33520747907459735870361328125" lon="-70.8190960250794887542724609375">
        <ele>907.79998779296875</ele>
        <time>2026-08-21T11:58:33.000Z</time>
        <extensions>
          <ns3:TrackPointExtension>
            <ns3:hr>146</ns3:hr>
            <ns3:cad>51</ns3:cad>
          </ns3:TrackPointExtension>
        </extensions>
      </trkpt>
      <trkpt lat="45.3351975046098232269287109375" lon="-70.81908521242439746856689453125">
        <ele>908</ele>
        <time>2026-08-21T11:58:34.000Z</time>
        <extensions>
          <ns3:TrackPointExtension>
            <ns3:hr>146</ns3:hr>
            <ns3:cad>48</ns3:cad>
          </ns3:TrackPointExtension>
        </extensions>
      </trkpt>
      <trkpt lat="45.33518719486892223358154296875" lon="-70.81907331012189388275146484375">
        <ele>908</ele>
        <time>2026-08-21T11:58:35.000Z</time>
        <extensions>
          <ns3:TrackPointExtension>
            <ns3:hr>146</ns3:hr>
            <ns3:cad>48</ns3:cad>
          </ns3:TrackPointExtension>
        </extensions>
      </trkpt>
      <trkpt lat="45.33517395146191120147705078125" lon="-70.81906224600970745086669921875">
        <ele>908</ele>
        <time>2026-08-21T11:58:36.000Z</time>
        <extensions>
          <ns3:TrackPointExtension>
            <ns3:hr>145</ns3:hr>
            <ns3:cad>49</ns3:cad>
          </ns3:TrackPointExtension>
        </extensions>
      </trkpt>
      <trkpt lat="45.335161127150058746337890625" lon="-70.819053947925567626953125">
        <ele>908</ele>
        <time>2026-08-21T11:58:37.000Z</time>
        <extensions>
          <ns3:TrackPointExtension>
            <ns3:hr>146</ns3:hr>
            <ns3:cad>53</ns3:cad>
          </ns3:TrackPointExtension>
        </extensions>
      </trkpt>
      <trkpt lat="45.33515031449496746063232421875" lon="-70.81904900260269641876220703125">
        <ele>908.20001220703125</ele>
        <time>2026-08-21T11:58:38.000Z</time>
        <extensions>
          <ns3:TrackPointExtension>
            <ns3:hr>146</ns3:hr>
            <ns3:cad>53</ns3:cad>
          </ns3:TrackPointExtension>
        </extensions>
      </trkpt>
      <trkpt lat="45.3351368196308612823486328125" lon="-70.81904196180403232574462890625">
        <ele>908.20001220703125</ele>
        <time>2026-08-21T11:58:39.000Z</time>
        <extensions>
          <ns3:TrackPointExtension>
            <ns3:hr>146</ns3:hr>
            <ns3:cad>53</ns3:cad>
          </ns3:TrackPointExtension>
        </extensions>
      </trkpt>
      <trkpt lat="45.33512600697576999664306640625" lon="-70.81902771256864070892333984375">
        <ele>908.4000244140625</ele>
        <time>2026-08-21T11:58:40.000Z</time>
        <extensions>
          <ns3:TrackPointExtension>
            <ns3:hr>145</ns3:hr>
            <ns3:cad>53</ns3:cad>
          </ns3:TrackPointExtension>
        </extensions>
      </trkpt>
      <trkpt lat="45.335116200149059295654296875" lon="-70.819015391170978546142578125">
        <ele>908.5999755859375</ele>
        <time>2026-08-21T11:58:41.000Z</time>
        <extensions>
          <ns3:TrackPointExtension>
            <ns3:hr>145</ns3:hr>
            <ns3:cad>55</ns3:cad>
          </ns3:TrackPointExtension>
        </extensions>
      </trkpt>
      <trkpt lat="45.33510605804622173309326171875" lon="-70.8190058358013629913330078125">
        <ele>908.5999755859375</ele>
        <time>2026-08-21T11:58:42.000Z</time>
        <extensions>
          <ns3:TrackPointExtension>
            <ns3:hr>144</ns3:hr>
            <ns3:cad>55</ns3:cad>
          </ns3:TrackPointExtension>
        </extensions>
      </trkpt>
      <trkpt lat="45.33509516157209873199462890625" lon="-70.818993262946605682373046875">
        <ele>908.5999755859375</ele>
        <time>2026-08-21T11:58:43.000Z</time>
        <extensions>
          <ns3:TrackPointExtension>
            <ns3:hr>144</ns3:hr>
            <ns3:cad>55</ns3:cad>
          </ns3:TrackPointExtension>
        </extensions>
      </trkpt>
      <trkpt lat="45.33508661203086376190185546875" lon="-70.81897758878767490386962890625">
        <ele>908.5999755859375</ele>
        <time>2026-08-21T11:58:44.000Z</time>
        <extensions>
          <ns3:TrackPointExtension>
            <ns3:hr>144</ns3:hr>
            <ns3:cad>53</ns3:cad>
          </ns3:TrackPointExtension>
        </extensions>
      </trkpt>
      <trkpt lat="45.3350791521370410919189453125" lon="-70.81896476447582244873046875">
        <ele>908.5999755859375</ele>
        <time>2026-08-21T11:58:45.000Z</time>
        <extensions>
          <ns3:TrackPointExtension>
            <ns3:hr>144</ns3:hr>
            <ns3:cad>53</ns3:cad>
          </ns3:TrackPointExtension>
        </extensions>
      </trkpt>
      <trkpt lat="45.3350721113383769989013671875" lon="-70.818952023983001708984375">
        <ele>908.5999755859375</ele>
        <time>2026-08-21T11:58:46.000Z</time>
        <extensions>
          <ns3:TrackPointExtension>
            <ns3:hr>144</ns3:hr>
            <ns3:cad>0</ns3:cad>
          </ns3:TrackPointExtension>
        </extensions>
      </trkpt>
      <trkpt lat="45.33506398089230060577392578125" lon="-70.81894305534660816192626953125">
        <ele>908.5999755859375</ele>
        <time>2026-08-21T11:58:47.000Z</time>
        <extensions>
          <ns3:TrackPointExtension>
            <ns3:hr>144</ns3:hr>
            <ns3:cad>0</ns3:cad>
          </ns3:TrackPointExtension>
        </extensions>
      </trkpt>
      <trkpt lat="45.33505618572235107421875" lon="-70.8189314045011997222900390625">
        <ele>908.5999755859375</ele>
        <time>2026-08-21T11:58:48.000Z</time>
        <extensions>
          <ns3:TrackPointExtension>
            <ns3:hr>144</ns3:hr>
            <ns3:cad>51</ns3:cad>
          </ns3:TrackPointExtension>
        </extensions>
      </trkpt>
      <trkpt lat="45.3350442834198474884033203125" lon="-70.818912796676158905029296875">
        <ele>908.4000244140625</ele>
        <time>2026-08-21T11:58:49.000Z</time>
        <extensions>
          <ns3:TrackPointExtension>
            <ns3:hr>144</ns3:hr>
            <ns3:cad>51</ns3:cad>
          </ns3:TrackPointExtension>
        </extensions>
      </trkpt>
      <trkpt lat="45.33503405749797821044921875" lon="-70.8188988827168941497802734375">
        <ele>908.4000244140625</ele>
        <time>2026-08-21T11:58:50.000Z</time>
        <extensions>
          <ns3:TrackPointExtension>
            <ns3:hr>144</ns3:hr>
            <ns3:cad>51</ns3:cad>
          </ns3:TrackPointExtension>
        </extensions>
      </trkpt>
      <trkpt lat="45.33502056263387203216552734375" lon="-70.818886645138263702392578125">
        <ele>908.20001220703125</ele>
        <time>2026-08-21T11:58:51.000Z</time>
        <extensions>
          <ns3:TrackPointExtension>
            <ns3:hr>144</ns3:hr>
            <ns3:cad>54</ns3:cad>
          </ns3:TrackPointExtension>
        </extensions>
      </trkpt>
      <trkpt lat="45.33500748686492443084716796875" lon="-70.8188740722835063934326171875">
        <ele>908.20001220703125</ele>
        <time>2026-08-21T11:58:52.000Z</time>
        <extensions>
          <ns3:TrackPointExtension>
            <ns3:hr>143</ns3:hr>
            <ns3:cad>54</ns3:cad>
          </ns3:TrackPointExtension>
        </extensions>
      </trkpt>
      <trkpt lat="45.33499591983854770660400390625" lon="-70.8188589848577976226806640625">
        <ele>908</ele>
        <time>2026-08-21T11:58:53.000Z</time>
        <extensions>
          <ns3:TrackPointExtension>
            <ns3:hr>142</ns3:hr>
            <ns3:cad>55</ns3:cad>
          </ns3:TrackPointExtension>
        </extensions>
      </trkpt>
      <trkpt lat="45.3349829278886318206787109375" lon="-70.818851105868816375732421875">
        <ele>907.79998779296875</ele>
        <time>2026-08-21T11:58:54.000Z</time>
        <extensions>
          <ns3:TrackPointExtension>
            <ns3:hr>141</ns3:hr>
            <ns3:cad>55</ns3:cad>
          </ns3:TrackPointExtension>
        </extensions>
      </trkpt>
      <trkpt lat="45.33497110940515995025634765625" lon="-70.81884314306080341339111328125">
        <ele>907.5999755859375</ele>
        <time>2026-08-21T11:58:55.000Z</time>
        <extensions>
          <ns3:TrackPointExtension>
            <ns3:hr>139</ns3:hr>
            <ns3:cad>55</ns3:cad>
          </ns3:TrackPointExtension>
        </extensions>
      </trkpt>
      <trkpt lat="45.3349577821791172027587890625" lon="-70.8188385330140590667724609375">
        <ele>907.4000244140625</ele>
        <time>2026-08-21T11:58:56.000Z</time>
        <extensions>
          <ns3:TrackPointExtension>
            <ns3:hr>138</ns3:hr>
            <ns3:cad>55</ns3:cad>
          </ns3:TrackPointExtension>
        </extensions>
      </trkpt>
      <trkpt lat="45.33494495786726474761962890625" lon="-70.818837024271488189697265625">
        <ele>907.20001220703125</ele>
        <time>2026-08-21T11:58:57.000Z</time>
        <extensions>
          <ns3:TrackPointExtension>
            <ns3:hr>137</ns3:hr>
            <ns3:cad>55</ns3:cad>
          </ns3:TrackPointExtension>
        </extensions>
      </trkpt>
      <trkpt lat="45.33493221737444400787353515625" lon="-70.81883467733860015869140625">
        <ele>907.20001220703125</ele>
        <time>2026-08-21T11:58:58.000Z</time>
        <extensions>
          <ns3:TrackPointExtension>
            <ns3:hr>136</ns3:hr>
            <ns3:cad>54</ns3:cad>
          </ns3:TrackPointExtension>
        </extensions>
      </trkpt>
      <trkpt lat="45.3349185548722743988037109375" lon="-70.81883124075829982757568359375">
        <ele>906.79998779296875</ele>
        <time>2026-08-21T11:58:59.000Z</time>
        <extensions>
          <ns3:TrackPointExtension>
            <ns3:hr>136</ns3:hr>
            <ns3:cad>54</ns3:cad>
          </ns3:TrackPointExtension>
        </extensions>
      </trkpt>
      <trkpt lat="45.33490858040750026702880859375" lon="-70.8188294805586338043212890625">
        <ele>906.5999755859375</ele>
        <time>2026-08-21T11:59:00.000Z</time>
        <extensions>
          <ns3:TrackPointExtension>
            <ns3:hr>135</ns3:hr>
            <ns3:cad>0</ns3:cad>
          </ns3:TrackPointExtension>
        </extensions>
      </trkpt>
      <trkpt lat="45.33490137197077274322509765625" lon="-70.818823613226413726806640625">
        <ele>906.4000244140625</ele>
        <time>2026-08-21T11:59:01.000Z</time>
        <extensions>
          <ns3:TrackPointExtension>
            <ns3:hr>135</ns3:hr>
            <ns3:cad>54</ns3:cad>
          </ns3:TrackPointExtension>
        </extensions>
      </trkpt>
      <trkpt lat="45.3348887152969837188720703125" lon="-70.81881858408451080322265625">
        <ele>906</ele>
        <time>2026-08-21T11:59:02.000Z</time>
        <extensions>
          <ns3:TrackPointExtension>
            <ns3:hr>135</ns3:hr>
            <ns3:cad>54</ns3:cad>
          </ns3:TrackPointExtension>
        </extensions>
      </trkpt>
      <trkpt lat="45.3348783217370510101318359375" lon="-70.81881187856197357177734375">
        <ele>905.5999755859375</ele>
        <time>2026-08-21T11:59:03.000Z</time>
        <extensions>
          <ns3:TrackPointExtension>
            <ns3:hr>135</ns3:hr>
            <ns3:cad>54</ns3:cad>
          </ns3:TrackPointExtension>
        </extensions>
      </trkpt>
      <trkpt lat="45.33487572334706783294677734375" lon="-70.8188076876103878021240234375">
        <ele>905.20001220703125</ele>
        <time>2026-08-21T11:59:04.000Z</time>
        <extensions>
          <ns3:TrackPointExtension>
            <ns3:hr>135</ns3:hr>
            <ns3:cad>54</ns3:cad>
          </ns3:TrackPointExtension>
        </extensions>
      </trkpt>
      <trkpt lat="45.3348659165203571319580078125" lon="-70.81880651414394378662109375">
        <ele>904.79998779296875</ele>
        <time>2026-08-21T11:59:05.000Z</time>
        <extensions>
          <ns3:TrackPointExtension>
            <ns3:hr>136</ns3:hr>
            <ns3:cad>54</ns3:cad>
          </ns3:TrackPointExtension>
        </extensions>
      </trkpt>
      <trkpt lat="45.33485837280750274658203125" lon="-70.81879980862140655517578125">
        <ele>904.4000244140625</ele>
        <time>2026-08-21T11:59:06.000Z</time>
        <extensions>
          <ns3:TrackPointExtension>
            <ns3:hr>136</ns3:hr>
            <ns3:cad>54</ns3:cad>
          </ns3:TrackPointExtension>
        </extensions>
      </trkpt>
      <trkpt lat="45.33484705723822116851806640625" lon="-70.8187832124531269073486328125">
        <ele>904.20001220703125</ele>
        <time>2026-08-21T11:59:07.000Z</time>
        <extensions>
          <ns3:TrackPointExtension>
            <ns3:hr>136</ns3:hr>
            <ns3:cad>54</ns3:cad>
          </ns3:TrackPointExtension>
        </extensions>
      </trkpt>
      <trkpt lat="45.33483959734439849853515625" lon="-70.81877189688384532928466796875">
        <ele>903.79998779296875</ele>
        <time>2026-08-21T11:59:08.000Z</time>
        <extensions>
          <ns3:TrackPointExtension>
            <ns3:hr>136</ns3:hr>
            <ns3:cad>54</ns3:cad>
          </ns3:TrackPointExtension>
        </extensions>
      </trkpt>
      <trkpt lat="45.33483113162219524383544921875" lon="-70.81875580362975597381591796875">
        <ele>903.5999755859375</ele>
        <time>2026-08-21T11:59:09.000Z</time>
        <extensions>
          <ns3:TrackPointExtension>
            <ns3:hr>137</ns3:hr>
            <ns3:cad>54</ns3:cad>
          </ns3:TrackPointExtension>
        </extensions>
      </trkpt>
      <trkpt lat="45.33482459373772144317626953125" lon="-70.81873652525246143341064453125">
        <ele>903.4000244140625</ele>
        <time>2026-08-21T11:59:10.000Z</time>
        <extensions>
          <ns3:TrackPointExtension>
            <ns3:hr>136</ns3:hr>
            <ns3:cad>54</ns3:cad>
          </ns3:TrackPointExtension>
        </extensions>
      </trkpt>
      <trkpt lat="45.33481788821518421173095703125" lon="-70.81871858797967433929443359375">
        <ele>903.4000244140625</ele>
        <time>2026-08-21T11:59:11.000Z</time>
        <extensions>
          <ns3:TrackPointExtension>
            <ns3:hr>133</ns3:hr>
            <ns3:cad>54</ns3:cad>
          </ns3:TrackPointExtension>
        </extensions>
      </trkpt>
      <trkpt lat="45.33481503836810588836669921875" lon="-70.81869964487850666046142578125">
        <ele>903.20001220703125</ele>
        <time>2026-08-21T11:59:12.000Z</time>
        <extensions>
          <ns3:TrackPointExtension>
            <ns3:hr>129</ns3:hr>
            <ns3:cad>54</ns3:cad>
          </ns3:TrackPointExtension>
        </extensions>
      </trkpt>
      <trkpt lat="45.33481269143521785736083984375" lon="-70.81868237815797328948974609375">
        <ele>903.20001220703125</ele>
        <time>2026-08-21T11:59:13.000Z</time>
        <extensions>
          <ns3:TrackPointExtension>
            <ns3:hr>126</ns3:hr>
            <ns3:cad>55</ns3:cad>
          </ns3:TrackPointExtension>
        </extensions>
      </trkpt>
      <trkpt lat="45.3348095901310443878173828125" lon="-70.818667709827423095703125">
        <ele>903.4000244140625</ele>
        <time>2026-08-21T11:59:14.000Z</time>
        <extensions>
          <ns3:TrackPointExtension>
            <ns3:hr>125</ns3:hr>
            <ns3:cad>55</ns3:cad>
          </ns3:TrackPointExtension>
        </extensions>
      </trkpt>
      <trkpt lat="45.33480632118880748748779296875" lon="-70.81864834763109683990478515625">
        <ele>903.4000244140625</ele>
        <time>2026-08-21T11:59:15.000Z</time>
        <extensions>
          <ns3:TrackPointExtension>
            <ns3:hr>124</ns3:hr>
            <ns3:cad>54</ns3:cad>
          </ns3:TrackPointExtension>
        </extensions>
      </trkpt>
      <trkpt lat="45.3348028846085071563720703125" lon="-70.81862387247383594512939453125">
        <ele>903.4000244140625</ele>
        <time>2026-08-21T11:59:16.000Z</time>
        <extensions>
          <ns3:TrackPointExtension>
            <ns3:hr>123</ns3:hr>
            <ns3:cad>54</ns3:cad>
          </ns3:TrackPointExtension>
        </extensions>
      </trkpt>
      <trkpt lat="45.3347995318472385406494140625" lon="-70.8186046779155731201171875">
        <ele>903.4000244140625</ele>
        <time>2026-08-21T11:59:17.000Z</time>
        <extensions>
          <ns3:TrackPointExtension>
            <ns3:hr>123</ns3:hr>
            <ns3:cad>53</ns3:cad>
          </ns3:TrackPointExtension>
        </extensions>
      </trkpt>
      <trkpt lat="45.33478687517344951629638671875" lon="-70.81858816556632518768310546875">
        <ele>903.4000244140625</ele>
        <time>2026-08-21T11:59:18.000Z</time>
        <extensions>
          <ns3:TrackPointExtension>
            <ns3:hr>123</ns3:hr>
            <ns3:cad>53</ns3:cad>
          </ns3:TrackPointExtension>
        </extensions>
      </trkpt>
      <trkpt lat="45.33477296121418476104736328125" lon="-70.81857877783477306365966796875">
        <ele>903.4000244140625</ele>
        <time>2026-08-21T11:59:19.000Z</time>
        <extensions>
          <ns3:TrackPointExtension>
            <ns3:hr>123</ns3:hr>
            <ns3:cad>53</ns3:cad>
          </ns3:TrackPointExtension>
        </extensions>
      </trkpt>
      <trkpt lat="45.334755443036556243896484375" lon="-70.81857274286448955535888671875">
        <ele>903.20001220703125</ele>
        <time>2026-08-21T11:59:20.000Z</time>
        <extensions>
          <ns3:TrackPointExtension>
            <ns3:hr>123</ns3:hr>
            <ns3:cad>53</ns3:cad>
          </ns3:TrackPointExtension>
        </extensions>
      </trkpt>
      <trkpt lat="45.33473792485892772674560546875" lon="-70.81857140175998210906982421875">
        <ele>903.20001220703125</ele>
        <time>2026-08-21T11:59:21.000Z</time>
        <extensions>
          <ns3:TrackPointExtension>
            <ns3:hr>124</ns3:hr>
            <ns3:cad>53</ns3:cad>
          </ns3:TrackPointExtension>
        </extensions>
      </trkpt>
      <trkpt lat="45.33472384326159954071044921875" lon="-70.8185756765305995941162109375">
        <ele>903</ele>
        <time>2026-08-21T11:59:22.000Z</time>
        <extensions>
          <ns3:TrackPointExtension>
            <ns3:hr>124</ns3:hr>
            <ns3:cad>53</ns3:cad>
          </ns3:TrackPointExtension>
        </extensions>
      </trkpt>
      <trkpt lat="45.33470791764557361602783203125" lon="-70.8185800351202487945556640625">
        <ele>903</ele>
        <time>2026-08-21T11:59:23.000Z</time>
        <extensions>
          <ns3:TrackPointExtension>
            <ns3:hr>125</ns3:hr>
            <ns3:cad>53</ns3:cad>
          </ns3:TrackPointExtension>
        </extensions>
      </trkpt>
      <trkpt lat="45.3346932493150234222412109375" lon="-70.81858397461473941802978515625">
        <ele>902.79998779296875</ele>
        <time>2026-08-21T11:59:24.000Z</time>
        <extensions>
          <ns3:TrackPointExtension>
            <ns3:hr>125</ns3:hr>
            <ns3:cad>53</ns3:cad>
          </ns3:TrackPointExtension>
        </extensions>
      </trkpt>
      <trkpt lat="45.334679000079631805419921875" lon="-70.8185810409486293792724609375">
        <ele>902.79998779296875</ele>
        <time>2026-08-21T11:59:25.000Z</time>
        <extensions>
          <ns3:TrackPointExtension>
            <ns3:hr>125</ns3:hr>
            <ns3:cad>53</ns3:cad>
          </ns3:TrackPointExtension>
        </extensions>
      </trkpt>
      <trkpt lat="45.33465921878814697265625" lon="-70.818581543862819671630859375">
        <ele>902.79998779296875</ele>
        <time>2026-08-21T11:59:26.000Z</time>
        <extensions>
          <ns3:TrackPointExtension>
            <ns3:hr>126</ns3:hr>
            <ns3:cad>53</ns3:cad>
          </ns3:TrackPointExtension>
        </extensions>
      </trkpt>
      <trkpt lat="45.334641449153423309326171875" lon="-70.818581543862819671630859375">
        <ele>902.5999755859375</ele>
        <time>2026-08-21T11:59:27.000Z</time>
        <extensions>
          <ns3:TrackPointExtension>
            <ns3:hr>127</ns3:hr>
            <ns3:cad>54</ns3:cad>
          </ns3:TrackPointExtension>
        </extensions>
      </trkpt>
      <trkpt lat="45.33462309278547763824462890625" lon="-70.818576849997043609619140625">
        <ele>902.5999755859375</ele>
        <time>2026-08-21T11:59:28.000Z</time>
        <extensions>
          <ns3:TrackPointExtension>
            <ns3:hr>127</ns3:hr>
            <ns3:cad>54</ns3:cad>
          </ns3:TrackPointExtension>
        </extensions>
      </trkpt>
      <trkpt lat="45.334605909883975982666015625" lon="-70.8185709826648235321044921875">
        <ele>902.5999755859375</ele>
        <time>2026-08-21T11:59:29.000Z</time>
        <extensions>
          <ns3:TrackPointExtension>
            <ns3:hr>127</ns3:hr>
            <ns3:cad>54</ns3:cad>
          </ns3:TrackPointExtension>
        </extensions>
      </trkpt>
      <trkpt lat="45.3345913253724575042724609375" lon="-70.818566121160984039306640625">
        <ele>902.5999755859375</ele>
        <time>2026-08-21T11:59:30.000Z</time>
        <extensions>
          <ns3:TrackPointExtension>
            <ns3:hr>127</ns3:hr>
            <ns3:cad>54</ns3:cad>
          </ns3:TrackPointExtension>
        </extensions>
      </trkpt>
      <trkpt lat="45.33457338809967041015625" lon="-70.818560421466827392578125">
        <ele>902.5999755859375</ele>
        <time>2026-08-21T11:59:31.000Z</time>
        <extensions>
          <ns3:TrackPointExtension>
            <ns3:hr>127</ns3:hr>
            <ns3:cad>54</ns3:cad>
          </ns3:TrackPointExtension>
        </extensions>
      </trkpt>
      <trkpt lat="45.3345584683120250701904296875" lon="-70.81855430267751216888427734375">
        <ele>902.5999755859375</ele>
        <time>2026-08-21T11:59:32.000Z</time>
        <extensions>
          <ns3:TrackPointExtension>
            <ns3:hr>126</ns3:hr>
            <ns3:cad>54</ns3:cad>
          </ns3:TrackPointExtension>
        </extensions>
      </trkpt>
      <trkpt lat="45.3345423750579357147216796875" lon="-70.81854793243110179901123046875">
        <ele>902.5999755859375</ele>
        <time>2026-08-21T11:59:33.000Z</time>
        <extensions>
          <ns3:TrackPointExtension>
            <ns3:hr>126</ns3:hr>
            <ns3:cad>54</ns3:cad>
          </ns3:TrackPointExtension>
        </extensions>
      </trkpt>
      <trkpt lat="45.33452837727963924407958984375" lon="-70.81854659132659435272216796875">
        <ele>902.5999755859375</ele>
        <time>2026-08-21T11:59:34.000Z</time>
        <extensions>
          <ns3:TrackPointExtension>
            <ns3:hr>126</ns3:hr>
            <ns3:cad>64</ns3:cad>
          </ns3:TrackPointExtension>
        </extensions>
      </trkpt>
      <trkpt lat="45.33451429568231105804443359375" lon="-70.818543322384357452392578125">
        <ele>902.79998779296875</ele>
        <time>2026-08-21T11:59:35.000Z</time>
        <extensions>
          <ns3:TrackPointExtension>
            <ns3:hr>126</ns3:hr>
            <ns3:cad>64</ns3:cad>
          </ns3:TrackPointExtension>
        </extensions>
      </trkpt>
      <trkpt lat="45.33450172282755374908447265625" lon="-70.81853619776666164398193359375">
        <ele>902.79998779296875</ele>
        <time>2026-08-21T11:59:36.000Z</time>
        <extensions>
          <ns3:TrackPointExtension>
            <ns3:hr>126</ns3:hr>
            <ns3:cad>64</ns3:cad>
          </ns3:TrackPointExtension>
        </extensions>
      </trkpt>
      <trkpt lat="45.33448797650635242462158203125" lon="-70.8185295760631561279296875">
        <ele>902.79998779296875</ele>
        <time>2026-08-21T11:59:37.000Z</time>
        <extensions>
          <ns3:TrackPointExtension>
            <ns3:hr>126</ns3:hr>
            <ns3:cad>64</ns3:cad>
          </ns3:TrackPointExtension>
        </extensions>
      </trkpt>
      <trkpt lat="45.33447842113673686981201171875" lon="-70.818518511950969696044921875">
        <ele>902.79998779296875</ele>
        <time>2026-08-21T11:59:38.000Z</time>
        <extensions>
          <ns3:TrackPointExtension>
            <ns3:hr>125</ns3:hr>
            <ns3:cad>64</ns3:cad>
          </ns3:TrackPointExtension>
        </extensions>
      </trkpt>
      <trkpt lat="45.334463752806186676025390625" lon="-70.8185040950775146484375">
        <ele>902.79998779296875</ele>
        <time>2026-08-21T11:59:39.000Z</time>
        <extensions>
          <ns3:TrackPointExtension>
            <ns3:hr>125</ns3:hr>
            <ns3:cad>0</ns3:cad>
          </ns3:TrackPointExtension>
        </extensions>
      </trkpt>
      <trkpt lat="45.33444992266595363616943359375" lon="-70.81849663518369197845458984375">
        <ele>902.79998779296875</ele>
        <time>2026-08-21T11:59:40.000Z</time>
        <extensions>
          <ns3:TrackPointExtension>
            <ns3:hr>125</ns3:hr>
            <ns3:cad>0</ns3:cad>
          </ns3:TrackPointExtension>
        </extensions>
      </trkpt>
      <trkpt lat="45.33443148247897624969482421875" lon="-70.81849412061274051666259765625">
        <ele>902.79998779296875</ele>
        <time>2026-08-21T11:59:41.000Z</time>
        <extensions>
          <ns3:TrackPointExtension>
            <ns3:hr>125</ns3:hr>
            <ns3:cad>0</ns3:cad>
          </ns3:TrackPointExtension>
        </extensions>
      </trkpt>
      <trkpt lat="45.334420837461948394775390625" lon="-70.81848942674696445465087890625">
        <ele>902.79998779296875</ele>
        <time>2026-08-21T11:59:42.000Z</time>
        <extensions>
          <ns3:TrackPointExtension>
            <ns3:hr>124</ns3:hr>
            <ns3:cad>40</ns3:cad>
          </ns3:TrackPointExtension>
        </extensions>
      </trkpt>
      <trkpt lat="45.3344082646071910858154296875" lon="-70.818489007651805877685546875">
        <ele>902.79998779296875</ele>
        <time>2026-08-21T11:59:43.000Z</time>
        <extensions>
          <ns3:TrackPointExtension>
            <ns3:hr>125</ns3:hr>
            <ns3:cad>40</ns3:cad>
          </ns3:TrackPointExtension>
        </extensions>
      </trkpt>
      <trkpt lat="45.334396697580814361572265625" lon="-70.81848003901541233062744140625">
        <ele>902.5999755859375</ele>
        <time>2026-08-21T11:59:44.000Z</time>
        <extensions>
          <ns3:TrackPointExtension>
            <ns3:hr>125</ns3:hr>
            <ns3:cad>0</ns3:cad>
          </ns3:TrackPointExtension>
        </extensions>
      </trkpt>
      <trkpt lat="45.33438026905059814453125" lon="-70.81846444867551326751708984375">
        <ele>902.5999755859375</ele>
        <time>2026-08-21T11:59:45.000Z</time>
        <extensions>
          <ns3:TrackPointExtension>
            <ns3:hr>126</ns3:hr>
            <ns3:cad>0</ns3:cad>
          </ns3:TrackPointExtension>
        </extensions>
      </trkpt>
      <trkpt lat="45.3343641757965087890625" lon="-70.8184517920017242431640625">
        <ele>902.5999755859375</ele>
        <time>2026-08-21T11:59:46.000Z</time>
        <extensions>
          <ns3:TrackPointExtension>
            <ns3:hr>127</ns3:hr>
            <ns3:cad>61</ns3:cad>
          </ns3:TrackPointExtension>
        </extensions>
      </trkpt>
      <trkpt lat="45.33435009419918060302734375" lon="-70.81844307482242584228515625">
        <ele>902.4000244140625</ele>
        <time>2026-08-21T11:59:47.000Z</time>
        <extensions>
          <ns3:TrackPointExtension>
            <ns3:hr>127</ns3:hr>
            <ns3:cad>61</ns3:cad>
          </ns3:TrackPointExtension>
        </extensions>
      </trkpt>
      <trkpt lat="45.33433525823056697845458984375" lon="-70.81842890940606594085693359375">
        <ele>902.4000244140625</ele>
        <time>2026-08-21T11:59:48.000Z</time>
        <extensions>
          <ns3:TrackPointExtension>
            <ns3:hr>127</ns3:hr>
            <ns3:cad>61</ns3:cad>
          </ns3:TrackPointExtension>
        </extensions>
      </trkpt>
      <trkpt lat="45.33431782387197017669677734375" lon="-70.8184180967509746551513671875">
        <ele>902.20001220703125</ele>
        <time>2026-08-21T11:59:49.000Z</time>
        <extensions>
          <ns3:TrackPointExtension>
            <ns3:hr>128</ns3:hr>
            <ns3:cad>61</ns3:cad>
          </ns3:TrackPointExtension>
        </extensions>
      </trkpt>
      <trkpt lat="45.3343013115227222442626953125" lon="-70.818411223590373992919921875">
        <ele>902</ele>
        <time>2026-08-21T11:59:50.000Z</time>
        <extensions>
          <ns3:TrackPointExtension>
            <ns3:hr>128</ns3:hr>
            <ns3:cad>61</ns3:cad>
          </ns3:TrackPointExtension>
        </extensions>
      </trkpt>
      <trkpt lat="45.3342858888208866119384765625" lon="-70.8184070326387882232666015625">
        <ele>901.79998779296875</ele>
        <time>2026-08-21T11:59:51.000Z</time>
        <extensions>
          <ns3:TrackPointExtension>
            <ns3:hr>129</ns3:hr>
            <ns3:cad>65</ns3:cad>
          </ns3:TrackPointExtension>
        </extensions>
      </trkpt>
      <trkpt lat="45.33426853828132152557373046875" lon="-70.81840426661074161529541015625">
        <ele>901.5999755859375</ele>
        <time>2026-08-21T11:59:52.000Z</time>
        <extensions>
          <ns3:TrackPointExtension>
            <ns3:hr>130</ns3:hr>
            <ns3:cad>65</ns3:cad>
          </ns3:TrackPointExtension>
        </extensions>
      </trkpt>
      <trkpt lat="45.33424993045628070831298828125" lon="-70.81839521415531635284423828125">
        <ele>901.4000244140625</ele>
        <time>2026-08-21T11:59:53.000Z</time>
        <extensions>
          <ns3:TrackPointExtension>
            <ns3:hr>130</ns3:hr>
            <ns3:cad>65</ns3:cad>
          </ns3:TrackPointExtension>
        </extensions>
      </trkpt>
      <trkpt lat="45.334234423935413360595703125" lon="-70.81838884390890598297119140625">
        <ele>901</ele>
        <time>2026-08-21T11:59:54.000Z</time>
        <extensions>
          <ns3:TrackPointExtension>
            <ns3:hr>131</ns3:hr>
            <ns3:cad>65</ns3:cad>
          </ns3:TrackPointExtension>
        </extensions>
      </trkpt>
      <trkpt lat="45.3342184983193874359130859375" lon="-70.818385742604732513427734375">
        <ele>900.79998779296875</ele>
        <time>2026-08-21T11:59:55.000Z</time>
        <extensions>
          <ns3:TrackPointExtension>
            <ns3:hr>130</ns3:hr>
            <ns3:cad>65</ns3:cad>
          </ns3:TrackPointExtension>
        </extensions>
      </trkpt>
      <trkpt lat="45.33420466817915439605712890625" lon="-70.81837828271090984344482421875">
        <ele>900.4000244140625</ele>
        <time>2026-08-21T11:59:56.000Z</time>
        <extensions>
          <ns3:TrackPointExtension>
            <ns3:hr>130</ns3:hr>
            <ns3:cad>0</ns3:cad>
          </ns3:TrackPointExtension>
        </extensions>
      </trkpt>
      <trkpt lat="45.33419226296246051788330078125" lon="-70.81836990080773830413818359375">
        <ele>900.20001220703125</ele>
        <time>2026-08-21T11:59:57.000Z</time>
        <extensions>
          <ns3:TrackPointExtension>
            <ns3:hr>130</ns3:hr>
            <ns3:cad>0</ns3:cad>
          </ns3:TrackPointExtension>
        </extensions>
      </trkpt>
      <trkpt lat="45.33417499624192714691162109375" lon="-70.8183621056377887725830078125">
        <ele>900</ele>
        <time>2026-08-21T11:59:58.000Z</time>
        <extensions>
          <ns3:TrackPointExtension>
            <ns3:hr>130</ns3:hr>
            <ns3:cad>0</ns3:cad>
          </ns3:TrackPointExtension>
        </extensions>
      </trkpt>
      <trkpt lat="45.3341625072062015533447265625" lon="-70.81835799850523471832275390625">
        <ele>900</ele>
        <time>2026-08-21T11:59:59.000Z</time>
        <extensions>
          <ns3:TrackPointExtension>
            <ns3:hr>129</ns3:hr>
            <ns3:cad>0</ns3:cad>
          </ns3:TrackPointExtension>
        </extensions>
      </trkpt>
      <trkpt lat="45.33414482139050960540771484375" lon="-70.8183594234287738800048828125">
        <ele>899.79998779296875</ele>
        <time>2026-08-21T12:00:00.000Z</time>
        <extensions>
          <ns3:TrackPointExtension>
            <ns3:hr>129</ns3:hr>
            <ns3:cad>0</ns3:cad>
          </ns3:TrackPointExtension>
        </extensions>
      </trkpt>
      <trkpt lat="45.33413283526897430419921875" lon="-70.818362273275852203369140625">
        <ele>899.5999755859375</ele>
        <time>2026-08-21T12:00:01.000Z</time>
        <extensions>
          <ns3:TrackPointExtension>
            <ns3:hr>129</ns3:hr>
            <ns3:cad>0</ns3:cad>
          </ns3:TrackPointExtension>
        </extensions>
      </trkpt>
      <trkpt lat="45.33412017859518527984619140625" lon="-70.818373002111911773681640625">
        <ele>899.20001220703125</ele>
        <time>2026-08-21T12:00:02.000Z</time>
        <extensions>
          <ns3:TrackPointExtension>
            <ns3:hr>129</ns3:hr>
            <ns3:cad>0</ns3:cad>
          </ns3:TrackPointExtension>
        </extensions>
      </trkpt>
      <trkpt lat="45.3341115452349185943603515625" lon="-70.81838917918503284454345703125">
        <ele>899</ele>
        <time>2026-08-21T12:00:03.000Z</time>
        <extensions>
          <ns3:TrackPointExtension>
            <ns3:hr>129</ns3:hr>
            <ns3:cad>0</ns3:cad>
          </ns3:TrackPointExtension>
        </extensions>
      </trkpt>
      <trkpt lat="45.33410157077014446258544921875" lon="-70.81840611062943935394287109375">
        <ele>898.79998779296875</ele>
        <time>2026-08-21T12:00:04.000Z</time>
        <extensions>
          <ns3:TrackPointExtension>
            <ns3:hr>129</ns3:hr>
            <ns3:cad>0</ns3:cad>
          </ns3:TrackPointExtension>
        </extensions>
      </trkpt>
      <trkpt lat="45.33409017138183116912841796875" lon="-70.81841633655130863189697265625">
        <ele>898.4000244140625</ele>
        <time>2026-08-21T12:00:05.000Z</time>
        <extensions>
          <ns3:TrackPointExtension>
            <ns3:hr>129</ns3:hr>
            <ns3:cad>0</ns3:cad>
          </ns3:TrackPointExtension>
        </extensions>
      </trkpt>
      <trkpt lat="45.33407759852707386016845703125" lon="-70.81842253915965557098388671875">
        <ele>898.20001220703125</ele>
        <time>2026-08-21T12:00:06.000Z</time>
        <extensions>
          <ns3:TrackPointExtension>
            <ns3:hr>130</ns3:hr>
            <ns3:cad>0</ns3:cad>
          </ns3:TrackPointExtension>
        </extensions>
      </trkpt>
      <trkpt lat="45.3340642713010311126708984375" lon="-70.81842589192092418670654296875">
        <ele>898</ele>
        <time>2026-08-21T12:00:07.000Z</time>
        <extensions>
          <ns3:TrackPointExtension>
            <ns3:hr>129</ns3:hr>
            <ns3:cad>0</ns3:cad>
          </ns3:TrackPointExtension>
        </extensions>
      </trkpt>
      <trkpt lat="45.33405228517949581146240234375" lon="-70.818430669605731964111328125">
        <ele>898</ele>
        <time>2026-08-21T12:00:08.000Z</time>
        <extensions>
          <ns3:TrackPointExtension>
            <ns3:hr>129</ns3:hr>
            <ns3:cad>0</ns3:cad>
          </ns3:TrackPointExtension>
        </extensions>
      </trkpt>
      <trkpt lat="45.33403350971639156341552734375" lon="-70.81843192689120769500732421875">
        <ele>897.79998779296875</ele>
        <time>2026-08-21T12:00:09.000Z</time>
        <extensions>
          <ns3:TrackPointExtension>
            <ns3:hr>129</ns3:hr>
            <ns3:cad>0</ns3:cad>
          </ns3:TrackPointExtension>
        </extensions>
      </trkpt>
      <trkpt lat="45.33402093686163425445556640625" lon="-70.81842773593962192535400390625">
        <ele>897.5999755859375</ele>
        <time>2026-08-21T12:00:10.000Z</time>
        <extensions>
          <ns3:TrackPointExtension>
            <ns3:hr>128</ns3:hr>
            <ns3:cad>0</ns3:cad>
          </ns3:TrackPointExtension>
        </extensions>
      </trkpt>
      <trkpt lat="45.33400702290236949920654296875" lon="-70.8184328489005565643310546875">
        <ele>897.20001220703125</ele>
        <time>2026-08-21T12:00:11.000Z</time>
        <extensions>
          <ns3:TrackPointExtension>
            <ns3:hr>127</ns3:hr>
            <ns3:cad>0</ns3:cad>
          </ns3:TrackPointExtension>
        </extensions>
      </trkpt>
      <trkpt lat="45.33399579115211963653564453125" lon="-70.81844315864145755767822265625">
        <ele>897</ele>
        <time>2026-08-21T12:00:12.000Z</time>
        <extensions>
          <ns3:TrackPointExtension>
            <ns3:hr>125</ns3:hr>
            <ns3:cad>0</ns3:cad>
          </ns3:TrackPointExtension>
        </extensions>
      </trkpt>
      <trkpt lat="45.3339861519634723663330078125" lon="-70.8184486068785190582275390625">
        <ele>896.79998779296875</ele>
        <time>2026-08-21T12:00:13.000Z</time>
        <extensions>
          <ns3:TrackPointExtension>
            <ns3:hr>125</ns3:hr>
            <ns3:cad>0</ns3:cad>
          </ns3:TrackPointExtension>
        </extensions>
      </trkpt>
      <trkpt lat="45.33397500403225421905517578125" lon="-70.818448103964328765869140625">
        <ele>896.4000244140625</ele>
        <time>2026-08-21T12:00:14.000Z</time>
        <extensions>
          <ns3:TrackPointExtension>
            <ns3:hr>126</ns3:hr>
            <ns3:cad>0</ns3:cad>
          </ns3:TrackPointExtension>
        </extensions>
      </trkpt>
      <trkpt lat="45.33396477811038494110107421875" lon="-70.81844181753695011138916015625">
        <ele>896.20001220703125</ele>
        <time>2026-08-21T12:00:15.000Z</time>
        <extensions>
          <ns3:TrackPointExtension>
            <ns3:hr>127</ns3:hr>
            <ns3:cad>0</ns3:cad>
          </ns3:TrackPointExtension>
        </extensions>
      </trkpt>
      <trkpt lat="45.3339553065598011016845703125" lon="-70.8184271492063999176025390625">
        <ele>896</ele>
        <time>2026-08-21T12:00:16.000Z</time>
        <extensions>
          <ns3:TrackPointExtension>
            <ns3:hr>127</ns3:hr>
            <ns3:cad>0</ns3:cad>
          </ns3:TrackPointExtension>
        </extensions>
      </trkpt>
      <trkpt lat="45.33394684083759784698486328125" lon="-70.818417258560657501220703125">
        <ele>895.5999755859375</ele>
        <time>2026-08-21T12:00:17.000Z</time>
        <extensions>
          <ns3:TrackPointExtension>
            <ns3:hr>126</ns3:hr>
            <ns3:cad>0</ns3:cad>
          </ns3:TrackPointExtension>
        </extensions>
      </trkpt>
      <trkpt lat="45.33393493853509426116943359375" lon="-70.818400494754314422607421875">
        <ele>895.4000244140625</ele>
        <time>2026-08-21T12:00:18.000Z</time>
        <extensions>
          <ns3:TrackPointExtension>
            <ns3:hr>126</ns3:hr>
            <ns3:cad>0</ns3:cad>
          </ns3:TrackPointExtension>
        </extensions>
      </trkpt>
      <trkpt lat="45.3339229524135589599609375" lon="-70.81839035265147686004638671875">
        <ele>895</ele>
        <time>2026-08-21T12:00:19.000Z</time>
        <extensions>
          <ns3:TrackPointExtension>
            <ns3:hr>126</ns3:hr>
            <ns3:cad>0</ns3:cad>
          </ns3:TrackPointExtension>
        </extensions>
      </trkpt>
      <trkpt lat="45.33391079865396022796630859375" lon="-70.8183785341680049896240234375">
        <ele>894.79998779296875</ele>
        <time>2026-08-21T12:00:20.000Z</time>
        <extensions>
          <ns3:TrackPointExtension>
            <ns3:hr>127</ns3:hr>
            <ns3:cad>0</ns3:cad>
          </ns3:TrackPointExtension>
        </extensions>
      </trkpt>
      <trkpt lat="45.33389520831406116485595703125" lon="-70.8183724991977214813232421875">
        <ele>894.5999755859375</ele>
        <time>2026-08-21T12:00:21.000Z</time>
        <extensions>
          <ns3:TrackPointExtension>
            <ns3:hr>127</ns3:hr>
            <ns3:cad>0</ns3:cad>
          </ns3:TrackPointExtension>
        </extensions>
      </trkpt>
      <trkpt lat="45.3338791988790035247802734375" lon="-70.81837006844580173492431640625">
        <ele>894.4000244140625</ele>
        <time>2026-08-21T12:00:22.000Z</time>
        <extensions>
          <ns3:TrackPointExtension>
            <ns3:hr>127</ns3:hr>
            <ns3:cad>0</ns3:cad>
          </ns3:TrackPointExtension>
        </extensions>
      </trkpt>
      <trkpt lat="45.33386687748134136199951171875" lon="-70.81837107427418231964111328125">
        <ele>894.4000244140625</ele>
        <time>2026-08-21T12:00:23.000Z</time>
        <extensions>
          <ns3:TrackPointExtension>
            <ns3:hr>126</ns3:hr>
            <ns3:cad>0</ns3:cad>
          </ns3:TrackPointExtension>
        </extensions>
      </trkpt>
      <trkpt lat="45.3338520415127277374267578125" lon="-70.81836906261742115020751953125">
        <ele>894.20001220703125</ele>
        <time>2026-08-21T12:00:24.000Z</time>
        <extensions>
          <ns3:TrackPointExtension>
            <ns3:hr>126</ns3:hr>
            <ns3:cad>0</ns3:cad>
          </ns3:TrackPointExtension>
        </extensions>
      </trkpt>
      <trkpt lat="45.33384273760020732879638671875" lon="-70.81836872734129428863525390625">
        <ele>894</ele>
        <time>2026-08-21T12:00:25.000Z</time>
        <extensions>
          <ns3:TrackPointExtension>
            <ns3:hr>126</ns3:hr>
            <ns3:cad>0</ns3:cad>
          </ns3:TrackPointExtension>
        </extensions>
      </trkpt>
      <trkpt lat="45.3338208608329296112060546875" lon="-70.8183704875409603118896484375">
        <ele>893.5999755859375</ele>
        <time>2026-08-21T12:00:26.000Z</time>
        <extensions>
          <ns3:TrackPointExtension>
            <ns3:hr>126</ns3:hr>
            <ns3:cad>0</ns3:cad>
          </ns3:TrackPointExtension>
        </extensions>
      </trkpt>
      <trkpt lat="45.33380334265530109405517578125" lon="-70.81837224774062633514404296875">
        <ele>893.20001220703125</ele>
        <time>2026-08-21T12:00:27.000Z</time>
        <extensions>
          <ns3:TrackPointExtension>
            <ns3:hr>125</ns3:hr>
            <ns3:cad>0</ns3:cad>
          </ns3:TrackPointExtension>
        </extensions>
      </trkpt>
      <trkpt lat="45.33378875814378261566162109375" lon="-70.818374343216419219970703125">
        <ele>892.79998779296875</ele>
        <time>2026-08-21T12:00:28.000Z</time>
        <extensions>
          <ns3:TrackPointExtension>
            <ns3:hr>125</ns3:hr>
            <ns3:cad>0</ns3:cad>
          </ns3:TrackPointExtension>
        </extensions>
      </trkpt>
      <trkpt lat="45.33377836458384990692138671875" lon="-70.818373672664165496826171875">
        <ele>892.4000244140625</ele>
        <time>2026-08-21T12:00:29.000Z</time>
        <extensions>
          <ns3:TrackPointExtension>
            <ns3:hr>125</ns3:hr>
            <ns3:cad>0</ns3:cad>
          </ns3:TrackPointExtension>
        </extensions>
      </trkpt>
      <trkpt lat="45.3337672166526317596435546875" lon="-70.8183674700558185577392578125">
        <ele>892.20001220703125</ele>
        <time>2026-08-21T12:00:30.000Z</time>
        <extensions>
          <ns3:TrackPointExtension>
            <ns3:hr>124</ns3:hr>
            <ns3:cad>0</ns3:cad>
          </ns3:TrackPointExtension>
        </extensions>
      </trkpt>
      <trkpt lat="45.33375204540789127349853515625" lon="-70.81836587749421596527099609375">
        <ele>891.79998779296875</ele>
        <time>2026-08-21T12:00:31.000Z</time>
        <extensions>
          <ns3:TrackPointExtension>
            <ns3:hr>124</ns3:hr>
            <ns3:cad>0</ns3:cad>
          </ns3:TrackPointExtension>
        </extensions>
      </trkpt>
      <trkpt lat="45.33374257385730743408203125" lon="-70.81836554221808910369873046875">
        <ele>891.5999755859375</ele>
        <time>2026-08-21T12:00:32.000Z</time>
        <extensions>
          <ns3:TrackPointExtension>
            <ns3:hr>123</ns3:hr>
            <ns3:cad>0</ns3:cad>
          </ns3:TrackPointExtension>
        </extensions>
      </trkpt>
      <trkpt lat="45.33373109064996242523193359375" lon="-70.8183654583990573883056640625">
        <ele>891.4000244140625</ele>
        <time>2026-08-21T12:00:33.000Z</time>
        <extensions>
          <ns3:TrackPointExtension>
            <ns3:hr>123</ns3:hr>
            <ns3:cad>0</ns3:cad>
          </ns3:TrackPointExtension>
        </extensions>
      </trkpt>
      <trkpt lat="45.333716757595539093017578125" lon="-70.818363614380359649658203125">
        <ele>891.20001220703125</ele>
        <time>2026-08-21T12:00:34.000Z</time>
        <extensions>
          <ns3:TrackPointExtension>
            <ns3:hr>122</ns3:hr>
            <ns3:cad>0</ns3:cad>
          </ns3:TrackPointExtension>
        </extensions>
      </trkpt>
      <trkpt lat="45.33370359800755977630615234375" lon="-70.81836151890456676483154296875">
        <ele>891</ele>
        <time>2026-08-21T12:00:35.000Z</time>
        <extensions>
          <ns3:TrackPointExtension>
            <ns3:hr>122</ns3:hr>
            <ns3:cad>0</ns3:cad>
          </ns3:TrackPointExtension>
        </extensions>
      </trkpt>
      <trkpt lat="45.333697982132434844970703125" lon="-70.81835447810590267181396484375">
        <ele>890.5999755859375</ele>
        <time>2026-08-21T12:00:36.000Z</time>
        <extensions>
          <ns3:TrackPointExtension>
            <ns3:hr>122</ns3:hr>
            <ns3:cad>61</ns3:cad>
          </ns3:TrackPointExtension>
        </extensions>
      </trkpt>
      <trkpt lat="45.333689935505390167236328125" lon="-70.81834559328854084014892578125">
        <ele>890.4000244140625</ele>
        <time>2026-08-21T12:00:37.000Z</time>
        <extensions>
          <ns3:TrackPointExtension>
            <ns3:hr>121</ns3:hr>
            <ns3:cad>61</ns3:cad>
          </ns3:TrackPointExtension>
        </extensions>
      </trkpt>
      <trkpt lat="45.33366923220455646514892578125" lon="-70.81834324635565280914306640625">
        <ele>890.20001220703125</ele>
        <time>2026-08-21T12:00:38.000Z</time>
        <extensions>
          <ns3:TrackPointExtension>
            <ns3:hr>121</ns3:hr>
            <ns3:cad>61</ns3:cad>
          </ns3:TrackPointExtension>
        </extensions>
      </trkpt>
      <trkpt lat="45.333651714026927947998046875" lon="-70.81833771429955959320068359375">
        <ele>890</ele>
        <time>2026-08-21T12:00:39.000Z</time>
        <extensions>
          <ns3:TrackPointExtension>
            <ns3:hr>121</ns3:hr>
            <ns3:cad>66</ns3:cad>
          </ns3:TrackPointExtension>
        </extensions>
      </trkpt>
      <trkpt lat="45.33364291302859783172607421875" lon="-70.8183238841593265533447265625">
        <ele>889.79998779296875</ele>
        <time>2026-08-21T12:00:40.000Z</time>
        <extensions>
          <ns3:TrackPointExtension>
            <ns3:hr>121</ns3:hr>
            <ns3:cad>66</ns3:cad>
          </ns3:TrackPointExtension>
        </extensions>
      </trkpt>
      <trkpt lat="45.33363302238285541534423828125" lon="-70.8183096349239349365234375">
        <ele>889.5999755859375</ele>
        <time>2026-08-21T12:00:41.000Z</time>
        <extensions>
          <ns3:TrackPointExtension>
            <ns3:hr>121</ns3:hr>
            <ns3:cad>55</ns3:cad>
          </ns3:TrackPointExtension>
        </extensions>
      </trkpt>
      <trkpt lat="45.3336163423955440521240234375" lon="-70.818293876945972442626953125">
        <ele>889.4000244140625</ele>
        <time>2026-08-21T12:00:42.000Z</time>
        <extensions>
          <ns3:TrackPointExtension>
            <ns3:hr>121</ns3:hr>
            <ns3:cad>0</ns3:cad>
          </ns3:TrackPointExtension>
        </extensions>
      </trkpt>
      <trkpt lat="45.33360050059854984283447265625" lon="-70.8182903565466403961181640625">
        <ele>889.4000244140625</ele>
        <time>2026-08-21T12:00:43.000Z</time>
        <extensions>
          <ns3:TrackPointExtension>
            <ns3:hr>121</ns3:hr>
            <ns3:cad>0</ns3:cad>
          </ns3:TrackPointExtension>
        </extensions>
      </trkpt>
      <trkpt lat="45.33358373679220676422119140625" lon="-70.8182970620691776275634765625">
        <ele>889.20001220703125</ele>
        <time>2026-08-21T12:00:44.000Z</time>
        <extensions>
          <ns3:TrackPointExtension>
            <ns3:hr>122</ns3:hr>
            <ns3:cad>0</ns3:cad>
          </ns3:TrackPointExtension>
        </extensions>
      </trkpt>
      <trkpt lat="45.333565883338451385498046875" lon="-70.81829781644046306610107421875">
        <ele>889</ele>
        <time>2026-08-21T12:00:45.000Z</time>
        <extensions>
          <ns3:TrackPointExtension>
            <ns3:hr>121</ns3:hr>
            <ns3:cad>0</ns3:cad>
          </ns3:TrackPointExtension>
        </extensions>
      </trkpt>
      <trkpt lat="45.33354182727634906768798828125" lon="-70.8182935416698455810546875">
        <ele>888.79998779296875</ele>
        <time>2026-08-21T12:00:46.000Z</time>
        <extensions>
          <ns3:TrackPointExtension>
            <ns3:hr>121</ns3:hr>
            <ns3:cad>0</ns3:cad>
          </ns3:TrackPointExtension>
        </extensions>
      </trkpt>
      <trkpt lat="45.33352171070873737335205078125" lon="-70.81828524358570575714111328125">
        <ele>888.4000244140625</ele>
        <time>2026-08-21T12:00:47.000Z</time>
        <extensions>
          <ns3:TrackPointExtension>
            <ns3:hr>122</ns3:hr>
            <ns3:cad>0</ns3:cad>
          </ns3:TrackPointExtension>
        </extensions>
      </trkpt>
      <trkpt lat="45.333502851426601409912109375" lon="-70.81828021444380283355712890625">
        <ele>888.20001220703125</ele>
        <time>2026-08-21T12:00:48.000Z</time>
        <extensions>
          <ns3:TrackPointExtension>
            <ns3:hr>122</ns3:hr>
            <ns3:cad>0</ns3:cad>
          </ns3:TrackPointExtension>
        </extensions>
      </trkpt>
      <trkpt lat="45.333490110933780670166015625" lon="-70.81827409565448760986328125">
        <ele>888</ele>
        <time>2026-08-21T12:00:49.000Z</time>
        <extensions>
          <ns3:TrackPointExtension>
            <ns3:hr>122</ns3:hr>
            <ns3:cad>0</ns3:cad>
          </ns3:TrackPointExtension>
        </extensions>
      </trkpt>
      <trkpt lat="45.33347225748002529144287109375" lon="-70.81827032379806041717529296875">
        <ele>887.79998779296875</ele>
        <time>2026-08-21T12:00:50.000Z</time>
        <extensions>
          <ns3:TrackPointExtension>
            <ns3:hr>122</ns3:hr>
            <ns3:cad>0</ns3:cad>
          </ns3:TrackPointExtension>
        </extensions>
      </trkpt>
      <trkpt lat="45.3334527276456356048583984375" lon="-70.81826428882777690887451171875">
        <ele>887.5999755859375</ele>
        <time>2026-08-21T12:00:51.000Z</time>
        <extensions>
          <ns3:TrackPointExtension>
            <ns3:hr>123</ns3:hr>
            <ns3:cad>0</ns3:cad>
          </ns3:TrackPointExtension>
        </extensions>
      </trkpt>
      <trkpt lat="45.3334309346973896026611328125" lon="-70.818266384303569793701171875">
        <ele>887.5999755859375</ele>
        <time>2026-08-21T12:00:52.000Z</time>
        <extensions>
          <ns3:TrackPointExtension>
            <ns3:hr>123</ns3:hr>
            <ns3:cad>0</ns3:cad>
          </ns3:TrackPointExtension>
        </extensions>
      </trkpt>
      <trkpt lat="45.3334168531000614166259765625" lon="-70.81826462410390377044677734375">
        <ele>887.5999755859375</ele>
        <time>2026-08-21T12:00:53.000Z</time>
        <extensions>
          <ns3:TrackPointExtension>
            <ns3:hr>123</ns3:hr>
            <ns3:cad>0</ns3:cad>
          </ns3:TrackPointExtension>
        </extensions>
      </trkpt>
      <trkpt lat="45.3333972394466400146484375" lon="-70.81826261244714260101318359375">
        <ele>887.4000244140625</ele>
        <time>2026-08-21T12:00:54.000Z</time>
        <extensions>
          <ns3:TrackPointExtension>
            <ns3:hr>123</ns3:hr>
            <ns3:cad>0</ns3:cad>
          </ns3:TrackPointExtension>
        </extensions>
      </trkpt>
      <trkpt lat="45.33337938599288463592529296875" lon="-70.81825657747685909271240234375">
        <ele>887.4000244140625</ele>
        <time>2026-08-21T12:00:55.000Z</time>
        <extensions>
          <ns3:TrackPointExtension>
            <ns3:hr>122</ns3:hr>
            <ns3:cad>0</ns3:cad>
          </ns3:TrackPointExtension>
        </extensions>
      </trkpt>
      <trkpt lat="45.33336731605231761932373046875" lon="-70.818250291049480438232421875">
        <ele>887.5999755859375</ele>
        <time>2026-08-21T12:00:56.000Z</time>
        <extensions>
          <ns3:TrackPointExtension>
            <ns3:hr>123</ns3:hr>
            <ns3:cad>0</ns3:cad>
          </ns3:TrackPointExtension>
        </extensions>
      </trkpt>
      <trkpt lat="45.333353988826274871826171875" lon="-70.8182417415082454681396484375">
        <ele>887.5999755859375</ele>
        <time>2026-08-21T12:00:57.000Z</time>
        <extensions>
          <ns3:TrackPointExtension>
            <ns3:hr>123</ns3:hr>
            <ns3:cad>0</ns3:cad>
          </ns3:TrackPointExtension>
        </extensions>
      </trkpt>
      <trkpt lat="45.33333496190607547760009765625" lon="-70.8182407356798648834228515625">
        <ele>887.79998779296875</ele>
        <time>2026-08-21T12:00:58.000Z</time>
        <extensions>
          <ns3:TrackPointExtension>
            <ns3:hr>122</ns3:hr>
            <ns3:cad>0</ns3:cad>
          </ns3:TrackPointExtension>
        </extensions>
      </trkpt>
      <trkpt lat="45.3333236463367938995361328125" lon="-70.81824366934597492218017578125">
        <ele>887.79998779296875</ele>
        <time>2026-08-21T12:00:59.000Z</time>
        <extensions>
          <ns3:TrackPointExtension>
            <ns3:hr>122</ns3:hr>
            <ns3:cad>0</ns3:cad>
          </ns3:TrackPointExtension>
        </extensions>
      </trkpt>
      <trkpt lat="45.333311073482036590576171875" lon="-70.81824467517435550689697265625">
        <ele>888</ele>
        <time>2026-08-21T12:01:00.000Z</time>
        <extensions>
          <ns3:TrackPointExtension>
            <ns3:hr>124</ns3:hr>
            <ns3:cad>0</ns3:cad>
          </ns3:TrackPointExtension>
        </extensions>
      </trkpt>
      <trkpt lat="45.33330210484564304351806640625" lon="-70.81824459135532379150390625">
        <ele>888.20001220703125</ele>
        <time>2026-08-21T12:01:01.000Z</time>
        <extensions>
          <ns3:TrackPointExtension>
            <ns3:hr>125</ns3:hr>
            <ns3:cad>0</ns3:cad>
          </ns3:TrackPointExtension>
        </extensions>
      </trkpt>
      <trkpt lat="45.33328852616250514984130859375" lon="-70.818244926631450653076171875">
        <ele>888.4000244140625</ele>
        <time>2026-08-21T12:01:02.000Z</time>
        <extensions>
          <ns3:TrackPointExtension>
            <ns3:hr>124</ns3:hr>
            <ns3:cad>0</ns3:cad>
          </ns3:TrackPointExtension>
        </extensions>
      </trkpt>
      <trkpt lat="45.333274863660335540771484375" lon="-70.81824584864079952239990234375">
        <ele>888.5999755859375</ele>
        <time>2026-08-21T12:01:03.000Z</time>
        <extensions>
          <ns3:TrackPointExtension>
            <ns3:hr>124</ns3:hr>
            <ns3:cad>0</ns3:cad>
          </ns3:TrackPointExtension>
        </extensions>
      </trkpt>
      <trkpt lat="45.3332606144249439239501953125" lon="-70.81824668683111667633056640625">
        <ele>888.79998779296875</ele>
        <time>2026-08-21T12:01:04.000Z</time>
        <extensions>
          <ns3:TrackPointExtension>
            <ns3:hr>124</ns3:hr>
            <ns3:cad>0</ns3:cad>
          </ns3:TrackPointExtension>
        </extensions>
      </trkpt>
      <trkpt lat="45.333246029913425445556640625" lon="-70.81824718974530696868896484375">
        <ele>889</ele>
        <time>2026-08-21T12:01:05.000Z</time>
        <extensions>
          <ns3:TrackPointExtension>
            <ns3:hr>124</ns3:hr>
            <ns3:cad>0</ns3:cad>
          </ns3:TrackPointExtension>
        </extensions>
      </trkpt>
      <trkpt lat="45.33322624862194061279296875" lon="-70.81824635155498981475830078125">
        <ele>889</ele>
        <time>2026-08-21T12:01:06.000Z</time>
        <extensions>
          <ns3:TrackPointExtension>
            <ns3:hr>124</ns3:hr>
            <ns3:cad>0</ns3:cad>
          </ns3:TrackPointExtension>
        </extensions>
      </trkpt>
      <trkpt lat="45.33321015536785125732421875" lon="-70.81824517808854579925537109375">
        <ele>889.20001220703125</ele>
        <time>2026-08-21T12:01:07.000Z</time>
        <extensions>
          <ns3:TrackPointExtension>
            <ns3:hr>123</ns3:hr>
            <ns3:cad>0</ns3:cad>
          </ns3:TrackPointExtension>
        </extensions>
      </trkpt>
      <trkpt lat="45.3332009352743625640869140625" lon="-70.8182414062321186065673828125">
        <ele>889.20001220703125</ele>
        <time>2026-08-21T12:01:08.000Z</time>
        <extensions>
          <ns3:TrackPointExtension>
            <ns3:hr>124</ns3:hr>
            <ns3:cad>0</ns3:cad>
          </ns3:TrackPointExtension>
        </extensions>
      </trkpt>
      <trkpt lat="45.33318526111543178558349609375" lon="-70.81823428161442279815673828125">
        <ele>889.4000244140625</ele>
        <time>2026-08-21T12:01:09.000Z</time>
        <extensions>
          <ns3:TrackPointExtension>
            <ns3:hr>125</ns3:hr>
            <ns3:cad>0</ns3:cad>
          </ns3:TrackPointExtension>
        </extensions>
      </trkpt>
      <trkpt lat="45.33316983841359615325927734375" lon="-70.818232856690883636474609375">
        <ele>889.4000244140625</ele>
        <time>2026-08-21T12:01:10.000Z</time>
        <extensions>
          <ns3:TrackPointExtension>
            <ns3:hr>125</ns3:hr>
            <ns3:cad>63</ns3:cad>
          </ns3:TrackPointExtension>
        </extensions>
      </trkpt>
      <trkpt lat="45.33315776847302913665771484375" lon="-70.8182266540825366973876953125">
        <ele>889.4000244140625</ele>
        <time>2026-08-21T12:01:11.000Z</time>
        <extensions>
          <ns3:TrackPointExtension>
            <ns3:hr>126</ns3:hr>
            <ns3:cad>63</ns3:cad>
          </ns3:TrackPointExtension>
        </extensions>
      </trkpt>
      <trkpt lat="45.33313949592411518096923828125" lon="-70.8182243071496486663818359375">
        <ele>889.4000244140625</ele>
        <time>2026-08-21T12:01:12.000Z</time>
        <extensions>
          <ns3:TrackPointExtension>
            <ns3:hr>126</ns3:hr>
            <ns3:cad>63</ns3:cad>
          </ns3:TrackPointExtension>
        </extensions>
      </trkpt>
      <trkpt lat="45.333124659955501556396484375" lon="-70.81822154112160205841064453125">
        <ele>889.20001220703125</ele>
        <time>2026-08-21T12:01:13.000Z</time>
        <extensions>
          <ns3:TrackPointExtension>
            <ns3:hr>126</ns3:hr>
            <ns3:cad>63</ns3:cad>
          </ns3:TrackPointExtension>
        </extensions>
      </trkpt>
      <trkpt lat="45.333115272223949432373046875" lon="-70.818213410675525665283203125">
        <ele>889</ele>
        <time>2026-08-21T12:01:14.000Z</time>
        <extensions>
          <ns3:TrackPointExtension>
            <ns3:hr>127</ns3:hr>
            <ns3:cad>63</ns3:cad>
          </ns3:TrackPointExtension>
        </extensions>
      </trkpt>
      <trkpt lat="45.33310496248304843902587890625" lon="-70.8182028494775295257568359375">
        <ele>888.5999755859375</ele>
        <time>2026-08-21T12:01:15.000Z</time>
        <extensions>
          <ns3:TrackPointExtension>
            <ns3:hr>127</ns3:hr>
            <ns3:cad>63</ns3:cad>
          </ns3:TrackPointExtension>
        </extensions>
      </trkpt>
      <trkpt lat="45.33309389837086200714111328125" lon="-70.81819002516567707061767578125">
        <ele>888.4000244140625</ele>
        <time>2026-08-21T12:01:16.000Z</time>
        <extensions>
          <ns3:TrackPointExtension>
            <ns3:hr>128</ns3:hr>
            <ns3:cad>63</ns3:cad>
          </ns3:TrackPointExtension>
        </extensions>
      </trkpt>
      <trkpt lat="45.333086438477039337158203125" lon="-70.8181790448725223541259765625">
        <ele>888.20001220703125</ele>
        <time>2026-08-21T12:01:17.000Z</time>
        <extensions>
          <ns3:TrackPointExtension>
            <ns3:hr>128</ns3:hr>
            <ns3:cad>63</ns3:cad>
          </ns3:TrackPointExtension>
        </extensions>
      </trkpt>
      <trkpt lat="45.33307763747870922088623046875" lon="-70.81816948950290679931640625">
        <ele>887.79998779296875</ele>
        <time>2026-08-21T12:01:18.000Z</time>
        <extensions>
          <ns3:TrackPointExtension>
            <ns3:hr>129</ns3:hr>
            <ns3:cad>63</ns3:cad>
          </ns3:TrackPointExtension>
        </extensions>
      </trkpt>
      <trkpt lat="45.33306724391877651214599609375" lon="-70.8181599341332912445068359375">
        <ele>887.5999755859375</ele>
        <time>2026-08-21T12:01:19.000Z</time>
        <extensions>
          <ns3:TrackPointExtension>
            <ns3:hr>129</ns3:hr>
            <ns3:cad>63</ns3:cad>
          </ns3:TrackPointExtension>
        </extensions>
      </trkpt>
      <trkpt lat="45.3330567665398120880126953125" lon="-70.81814803183078765869140625">
        <ele>887.4000244140625</ele>
        <time>2026-08-21T12:01:20.000Z</time>
        <extensions>
          <ns3:TrackPointExtension>
            <ns3:hr>129</ns3:hr>
            <ns3:cad>0</ns3:cad>
          </ns3:TrackPointExtension>
        </extensions>
      </trkpt>
      <trkpt lat="45.33304251730442047119140625" lon="-70.818141661584377288818359375">
        <ele>887</ele>
        <time>2026-08-21T12:01:21.000Z</time>
        <extensions>
          <ns3:TrackPointExtension>
            <ns3:hr>130</ns3:hr>
            <ns3:cad>0</ns3:cad>
          </ns3:TrackPointExtension>
        </extensions>
      </trkpt>
      <trkpt lat="45.33302910625934600830078125" lon="-70.81814073957502841949462890625">
        <ele>886.79998779296875</ele>
        <time>2026-08-21T12:01:22.000Z</time>
        <extensions>
          <ns3:TrackPointExtension>
            <ns3:hr>130</ns3:hr>
            <ns3:cad>0</ns3:cad>
          </ns3:TrackPointExtension>
        </extensions>
      </trkpt>
      <trkpt lat="45.33301343210041522979736328125" lon="-70.81813998520374298095703125">
        <ele>886.4000244140625</ele>
        <time>2026-08-21T12:01:23.000Z</time>
        <extensions>
          <ns3:TrackPointExtension>
            <ns3:hr>130</ns3:hr>
            <ns3:cad>0</ns3:cad>
          </ns3:TrackPointExtension>
        </extensions>
      </trkpt>
      <trkpt lat="45.33299666829407215118408203125" lon="-70.8181394822895526885986328125">
        <ele>886</ele>
        <time>2026-08-21T12:01:24.000Z</time>
        <extensions>
          <ns3:TrackPointExtension>
            <ns3:hr>129</ns3:hr>
            <ns3:cad>0</ns3:cad>
          </ns3:TrackPointExtension>
        </extensions>
      </trkpt>
      <trkpt lat="45.33298124559223651885986328125" lon="-70.8181381411850452423095703125">
        <ele>885.5999755859375</ele>
        <time>2026-08-21T12:01:25.000Z</time>
        <extensions>
          <ns3:TrackPointExtension>
            <ns3:hr>129</ns3:hr>
            <ns3:cad>0</ns3:cad>
          </ns3:TrackPointExtension>
        </extensions>
      </trkpt>
      <trkpt lat="45.33296741545200347900390625" lon="-70.8181331120431423187255859375">
        <ele>885.4000244140625</ele>
        <time>2026-08-21T12:01:26.000Z</time>
        <extensions>
          <ns3:TrackPointExtension>
            <ns3:hr>129</ns3:hr>
            <ns3:cad>0</ns3:cad>
          </ns3:TrackPointExtension>
        </extensions>
      </trkpt>
      <trkpt lat="45.3329491429030895233154296875" lon="-70.818132944405078887939453125">
        <ele>885.20001220703125</ele>
        <time>2026-08-21T12:01:27.000Z</time>
        <extensions>
          <ns3:TrackPointExtension>
            <ns3:hr>130</ns3:hr>
            <ns3:cad>0</ns3:cad>
          </ns3:TrackPointExtension>
        </extensions>
      </trkpt>
      <trkpt lat="45.33292994834482669830322265625" lon="-70.818138979375362396240234375">
        <ele>885</ele>
        <time>2026-08-21T12:01:28.000Z</time>
        <extensions>
          <ns3:TrackPointExtension>
            <ns3:hr>130</ns3:hr>
            <ns3:cad>0</ns3:cad>
          </ns3:TrackPointExtension>
        </extensions>
      </trkpt>
      <trkpt lat="45.332914106547832489013671875" lon="-70.81814794801175594329833984375">
        <ele>885</ele>
        <time>2026-08-21T12:01:29.000Z</time>
        <extensions>
          <ns3:TrackPointExtension>
            <ns3:hr>130</ns3:hr>
            <ns3:cad>0</ns3:cad>
          </ns3:TrackPointExtension>
        </extensions>
      </trkpt>
      <trkpt lat="45.33290010876953601837158203125" lon="-70.8181567490100860595703125">
        <ele>885</ele>
        <time>2026-08-21T12:01:30.000Z</time>
        <extensions>
          <ns3:TrackPointExtension>
            <ns3:hr>130</ns3:hr>
            <ns3:cad>0</ns3:cad>
          </ns3:TrackPointExtension>
        </extensions>
      </trkpt>
      <trkpt lat="45.3328891284763813018798828125" lon="-70.81815968267619609832763671875">
        <ele>885</ele>
        <time>2026-08-21T12:01:31.000Z</time>
        <extensions>
          <ns3:TrackPointExtension>
            <ns3:hr>130</ns3:hr>
            <ns3:cad>0</ns3:cad>
          </ns3:TrackPointExtension>
        </extensions>
      </trkpt>
      <trkpt lat="45.33287764526903629302978515625" lon="-70.81815783865749835968017578125">
        <ele>885.20001220703125</ele>
        <time>2026-08-21T12:01:32.000Z</time>
        <extensions>
          <ns3:TrackPointExtension>
            <ns3:hr>130</ns3:hr>
            <ns3:cad>0</ns3:cad>
          </ns3:TrackPointExtension>
        </extensions>
      </trkpt>
      <trkpt lat="45.33286306075751781463623046875" lon="-70.81815071403980255126953125">
        <ele>885.4000244140625</ele>
        <time>2026-08-21T12:01:33.000Z</time>
        <extensions>
          <ns3:TrackPointExtension>
            <ns3:hr>130</ns3:hr>
            <ns3:cad>0</ns3:cad>
          </ns3:TrackPointExtension>
        </extensions>
      </trkpt>
      <trkpt lat="45.33284931443631649017333984375" lon="-70.818151719868183135986328125">
        <ele>885.4000244140625</ele>
        <time>2026-08-21T12:01:34.000Z</time>
        <extensions>
          <ns3:TrackPointExtension>
            <ns3:hr>130</ns3:hr>
            <ns3:cad>45</ns3:cad>
          </ns3:TrackPointExtension>
        </extensions>
      </trkpt>
      <trkpt lat="45.33283556811511516571044921875" lon="-70.818147026002407073974609375">
        <ele>885.4000244140625</ele>
        <time>2026-08-21T12:01:35.000Z</time>
        <extensions>
          <ns3:TrackPointExtension>
            <ns3:hr>130</ns3:hr>
            <ns3:cad>45</ns3:cad>
          </ns3:TrackPointExtension>
        </extensions>
      </trkpt>
      <trkpt lat="45.33281587064266204833984375" lon="-70.8181458525359630584716796875">
        <ele>885.4000244140625</ele>
        <time>2026-08-21T12:01:36.000Z</time>
        <extensions>
          <ns3:TrackPointExtension>
            <ns3:hr>130</ns3:hr>
            <ns3:cad>45</ns3:cad>
          </ns3:TrackPointExtension>
        </extensions>
      </trkpt>
      <trkpt lat="45.33279717899858951568603515625" lon="-70.818146355450153350830078125">
        <ele>885.20001220703125</ele>
        <time>2026-08-21T12:01:37.000Z</time>
        <extensions>
          <ns3:TrackPointExtension>
            <ns3:hr>131</ns3:hr>
            <ns3:cad>45</ns3:cad>
          </ns3:TrackPointExtension>
        </extensions>
      </trkpt>
      <trkpt lat="45.332782007753849029541015625" lon="-70.81814803183078765869140625">
        <ele>885.20001220703125</ele>
        <time>2026-08-21T12:01:38.000Z</time>
        <extensions>
          <ns3:TrackPointExtension>
            <ns3:hr>131</ns3:hr>
            <ns3:cad>45</ns3:cad>
          </ns3:TrackPointExtension>
        </extensions>
      </trkpt>
      <trkpt lat="45.33277220092713832855224609375" lon="-70.81814643926918506622314453125">
        <ele>885.20001220703125</ele>
        <time>2026-08-21T12:01:39.000Z</time>
        <extensions>
          <ns3:TrackPointExtension>
            <ns3:hr>131</ns3:hr>
            <ns3:cad>45</ns3:cad>
          </ns3:TrackPointExtension>
        </extensions>
      </trkpt>
      <trkpt lat="45.33275728113949298858642578125" lon="-70.81814509816467761993408203125">
        <ele>885.20001220703125</ele>
        <time>2026-08-21T12:01:40.000Z</time>
        <extensions>
          <ns3:TrackPointExtension>
            <ns3:hr>130</ns3:hr>
            <ns3:cad>45</ns3:cad>
          </ns3:TrackPointExtension>
        </extensions>
      </trkpt>
      <trkpt lat="45.33274303190410137176513671875" lon="-70.81814325414597988128662109375">
        <ele>885.20001220703125</ele>
        <time>2026-08-21T12:01:41.000Z</time>
        <extensions>
          <ns3:TrackPointExtension>
            <ns3:hr>131</ns3:hr>
            <ns3:cad>0</ns3:cad>
          </ns3:TrackPointExtension>
        </extensions>
      </trkpt>
      <trkpt lat="45.3327379189431667327880859375" lon="-70.81814040429890155792236328125">
        <ele>885.20001220703125</ele>
        <time>2026-08-21T12:01:42.000Z</time>
        <extensions>
          <ns3:TrackPointExtension>
            <ns3:hr>131</ns3:hr>
            <ns3:cad>0</ns3:cad>
          </ns3:TrackPointExtension>
        </extensions>
      </trkpt>
      <trkpt lat="45.33272895030677318572998046875" lon="-70.81814509816467761993408203125">
        <ele>885.20001220703125</ele>
        <time>2026-08-21T12:01:43.000Z</time>
        <extensions>
          <ns3:TrackPointExtension>
            <ns3:hr>132</ns3:hr>
            <ns3:cad>0</ns3:cad>
          </ns3:TrackPointExtension>
        </extensions>
      </trkpt>
      <trkpt lat="45.33271688036620616912841796875" lon="-70.81814191304147243499755859375">
        <ele>885.20001220703125</ele>
        <time>2026-08-21T12:01:44.000Z</time>
        <extensions>
          <ns3:TrackPointExtension>
            <ns3:hr>132</ns3:hr>
            <ns3:cad>0</ns3:cad>
          </ns3:TrackPointExtension>
        </extensions>
      </trkpt>
      <trkpt lat="45.33269676379859447479248046875" lon="-70.81813520751893520355224609375">
        <ele>885.20001220703125</ele>
        <time>2026-08-21T12:01:45.000Z</time>
        <extensions>
          <ns3:TrackPointExtension>
            <ns3:hr>132</ns3:hr>
            <ns3:cad>0</ns3:cad>
          </ns3:TrackPointExtension>
        </extensions>
      </trkpt>
      <trkpt lat="45.33268117345869541168212890625" lon="-70.81813369877636432647705078125">
        <ele>885.20001220703125</ele>
        <time>2026-08-21T12:01:46.000Z</time>
        <extensions>
          <ns3:TrackPointExtension>
            <ns3:hr>132</ns3:hr>
            <ns3:cad>50</ns3:cad>
          </ns3:TrackPointExtension>
        </extensions>
      </trkpt>
      <trkpt lat="45.3326634876430034637451171875" lon="-70.81812850199639797210693359375">
        <ele>885.20001220703125</ele>
        <time>2026-08-21T12:01:47.000Z</time>
        <extensions>
          <ns3:TrackPointExtension>
            <ns3:hr>131</ns3:hr>
            <ns3:cad>50</ns3:cad>
          </ns3:TrackPointExtension>
        </extensions>
      </trkpt>
      <trkpt lat="45.33265083096921443939208984375" lon="-70.81811861135065555572509765625">
        <ele>885.20001220703125</ele>
        <time>2026-08-21T12:01:48.000Z</time>
        <extensions>
          <ns3:TrackPointExtension>
            <ns3:hr>131</ns3:hr>
            <ns3:cad>50</ns3:cad>
          </ns3:TrackPointExtension>
        </extensions>
      </trkpt>
      <trkpt lat="45.33263457007706165313720703125" lon="-70.818112827837467193603515625">
        <ele>885.20001220703125</ele>
        <time>2026-08-21T12:01:49.000Z</time>
        <extensions>
          <ns3:TrackPointExtension>
            <ns3:hr>131</ns3:hr>
            <ns3:cad>56</ns3:cad>
          </ns3:TrackPointExtension>
        </extensions>
      </trkpt>
      <trkpt lat="45.33261814154684543609619140625" lon="-70.818110145628452301025390625">
        <ele>885.20001220703125</ele>
        <time>2026-08-21T12:01:50.000Z</time>
        <extensions>
          <ns3:TrackPointExtension>
            <ns3:hr>130</ns3:hr>
            <ns3:cad>56</ns3:cad>
          </ns3:TrackPointExtension>
        </extensions>
      </trkpt>
      <trkpt lat="45.3326048143208026885986328125" lon="-70.81810377538204193115234375">
        <ele>885.20001220703125</ele>
        <time>2026-08-21T12:01:51.000Z</time>
        <extensions>
          <ns3:TrackPointExtension>
            <ns3:hr>131</ns3:hr>
            <ns3:cad>56</ns3:cad>
          </ns3:TrackPointExtension>
        </extensions>
      </trkpt>
      <trkpt lat="45.33259098418056964874267578125" lon="-70.81809380091726779937744140625">
        <ele>885.20001220703125</ele>
        <time>2026-08-21T12:01:52.000Z</time>
        <extensions>
          <ns3:TrackPointExtension>
            <ns3:hr>131</ns3:hr>
            <ns3:cad>56</ns3:cad>
          </ns3:TrackPointExtension>
        </extensions>
      </trkpt>
      <trkpt lat="45.33258109353482723236083984375" lon="-70.818077959120273590087890625">
        <ele>885.20001220703125</ele>
        <time>2026-08-21T12:01:53.000Z</time>
        <extensions>
          <ns3:TrackPointExtension>
            <ns3:hr>131</ns3:hr>
            <ns3:cad>58</ns3:cad>
          </ns3:TrackPointExtension>
        </extensions>
      </trkpt>
      <trkpt lat="45.33257036469876766204833984375" lon="-70.81806697882711887359619140625">
        <ele>885.20001220703125</ele>
        <time>2026-08-21T12:01:54.000Z</time>
        <extensions>
          <ns3:TrackPointExtension>
            <ns3:hr>130</ns3:hr>
            <ns3:cad>58</ns3:cad>
          </ns3:TrackPointExtension>
        </extensions>
      </trkpt>
      <trkpt lat="45.33256600610911846160888671875" lon="-70.8180509693920612335205078125">
        <ele>885.4000244140625</ele>
        <time>2026-08-21T12:01:55.000Z</time>
        <extensions>
          <ns3:TrackPointExtension>
            <ns3:hr>130</ns3:hr>
            <ns3:cad>58</ns3:cad>
          </ns3:TrackPointExtension>
        </extensions>
      </trkpt>
      <trkpt lat="45.33256265334784984588623046875" lon="-70.8180318586528301239013671875">
        <ele>885.4000244140625</ele>
        <time>2026-08-21T12:01:56.000Z</time>
        <extensions>
          <ns3:TrackPointExtension>
            <ns3:hr>130</ns3:hr>
            <ns3:cad>58</ns3:cad>
          </ns3:TrackPointExtension>
        </extensions>
      </trkpt>
      <trkpt lat="45.332554019987583160400390625" lon="-70.81801132299005985260009765625">
        <ele>885.4000244140625</ele>
        <time>2026-08-21T12:01:57.000Z</time>
        <extensions>
          <ns3:TrackPointExtension>
            <ns3:hr>129</ns3:hr>
            <ns3:cad>58</ns3:cad>
          </ns3:TrackPointExtension>
        </extensions>
      </trkpt>
      <trkpt lat="45.33255301415920257568359375" lon="-70.8179906196892261505126953125">
        <ele>885.4000244140625</ele>
        <time>2026-08-21T12:01:58.000Z</time>
        <extensions>
          <ns3:TrackPointExtension>
            <ns3:hr>129</ns3:hr>
            <ns3:cad>57</ns3:cad>
          </ns3:TrackPointExtension>
        </extensions>
      </trkpt>
      <trkpt lat="45.3325491584837436676025390625" lon="-70.817980729043483734130859375">
        <ele>885.4000244140625</ele>
        <time>2026-08-21T12:01:59.000Z</time>
        <extensions>
          <ns3:TrackPointExtension>
            <ns3:hr>129</ns3:hr>
            <ns3:cad>57</ns3:cad>
          </ns3:TrackPointExtension>
        </extensions>
      </trkpt>
      <trkpt lat="45.33254739828407764434814453125" lon="-70.817962624132633209228515625">
        <ele>885.20001220703125</ele>
        <time>2026-08-21T12:02:00.000Z</time>
        <extensions>
          <ns3:TrackPointExtension>
            <ns3:hr>130</ns3:hr>
            <ns3:cad>57</ns3:cad>
          </ns3:TrackPointExtension>
        </extensions>
      </trkpt>
      <trkpt lat="45.33254572190344333648681640625" lon="-70.817949883639812469482421875">
        <ele>885.20001220703125</ele>
        <time>2026-08-21T12:02:01.000Z</time>
        <extensions>
          <ns3:TrackPointExtension>
            <ns3:hr>129</ns3:hr>
            <ns3:cad>59</ns3:cad>
          </ns3:TrackPointExtension>
        </extensions>
      </trkpt>
      <trkpt lat="45.3325442969799041748046875" lon="-70.8179349638521671295166015625">
        <ele>884.79998779296875</ele>
        <time>2026-08-21T12:02:02.000Z</time>
        <extensions>
          <ns3:TrackPointExtension>
            <ns3:hr>129</ns3:hr>
            <ns3:cad>59</ns3:cad>
          </ns3:TrackPointExtension>
        </extensions>
      </trkpt>
      <trkpt lat="45.33254320733249187469482421875" lon="-70.81791727803647518157958984375">
        <ele>884.5999755859375</ele>
        <time>2026-08-21T12:02:03.000Z</time>
        <extensions>
          <ns3:TrackPointExtension>
            <ns3:hr>128</ns3:hr>
            <ns3:cad>59</ns3:cad>
          </ns3:TrackPointExtension>
        </extensions>
      </trkpt>
      <trkpt lat="45.332536585628986358642578125" lon="-70.81790051423013210296630859375">
        <ele>884.20001220703125</ele>
        <time>2026-08-21T12:02:04.000Z</time>
        <extensions>
          <ns3:TrackPointExtension>
            <ns3:hr>128</ns3:hr>
            <ns3:cad>59</ns3:cad>
          </ns3:TrackPointExtension>
        </extensions>
      </trkpt>
      <trkpt lat="45.3325273655354976654052734375" lon="-70.81789724528789520263671875">
        <ele>883.79998779296875</ele>
        <time>2026-08-21T12:02:05.000Z</time>
        <extensions>
          <ns3:TrackPointExtension>
            <ns3:hr>128</ns3:hr>
            <ns3:cad>59</ns3:cad>
          </ns3:TrackPointExtension>
        </extensions>
      </trkpt>
      <trkpt lat="45.332520492374897003173828125" lon="-70.81789397634565830230712890625">
        <ele>883.4000244140625</ele>
        <time>2026-08-21T12:02:06.000Z</time>
        <extensions>
          <ns3:TrackPointExtension>
            <ns3:hr>128</ns3:hr>
            <ns3:cad>59</ns3:cad>
          </ns3:TrackPointExtension>
        </extensions>
      </trkpt>
      <trkpt lat="45.332521162927150726318359375" lon="-70.8178876899182796478271484375">
        <ele>883.20001220703125</ele>
        <time>2026-08-21T12:02:07.000Z</time>
        <extensions>
          <ns3:TrackPointExtension>
            <ns3:hr>128</ns3:hr>
            <ns3:cad>59</ns3:cad>
          </ns3:TrackPointExtension>
        </extensions>
      </trkpt>
      <trkpt lat="45.3325220011174678802490234375" lon="-70.81788391806185245513916015625">
        <ele>882.79998779296875</ele>
        <time>2026-08-21T12:02:08.000Z</time>
        <extensions>
          <ns3:TrackPointExtension>
            <ns3:hr>128</ns3:hr>
            <ns3:cad>59</ns3:cad>
          </ns3:TrackPointExtension>
        </extensions>
      </trkpt>
      <trkpt lat="45.332513116300106048583984375" lon="-70.817864723503589630126953125">
        <ele>882.4000244140625</ele>
        <time>2026-08-21T12:02:09.000Z</time>
        <extensions>
          <ns3:TrackPointExtension>
            <ns3:hr>129</ns3:hr>
            <ns3:cad>59</ns3:cad>
          </ns3:TrackPointExtension>
        </extensions>
      </trkpt>
      <trkpt lat="45.33250867389142513275146484375" lon="-70.81785525195300579071044921875">
        <ele>882.20001220703125</ele>
        <time>2026-08-21T12:02:10.000Z</time>
        <extensions>
          <ns3:TrackPointExtension>
            <ns3:hr>128</ns3:hr>
            <ns3:cad>61</ns3:cad>
          </ns3:TrackPointExtension>
        </extensions>
      </trkpt>
      <trkpt lat="45.33250196836888790130615234375" lon="-70.81784334965050220489501953125">
        <ele>881.79998779296875</ele>
        <time>2026-08-21T12:02:11.000Z</time>
        <extensions>
          <ns3:TrackPointExtension>
            <ns3:hr>128</ns3:hr>
            <ns3:cad>61</ns3:cad>
          </ns3:TrackPointExtension>
        </extensions>
      </trkpt>
      <trkpt lat="45.33249258063733577728271484375" lon="-70.81782809458673000335693359375">
        <ele>881.20001220703125</ele>
        <time>2026-08-21T12:02:12.000Z</time>
        <extensions>
          <ns3:TrackPointExtension>
            <ns3:hr>128</ns3:hr>
            <ns3:cad>61</ns3:cad>
          </ns3:TrackPointExtension>
        </extensions>
      </trkpt>
      <trkpt lat="45.3324814327061176300048828125" lon="-70.817798338830471038818359375">
        <ele>880.79998779296875</ele>
        <time>2026-08-21T12:02:13.000Z</time>
        <extensions>
          <ns3:TrackPointExtension>
            <ns3:hr>128</ns3:hr>
            <ns3:cad>61</ns3:cad>
          </ns3:TrackPointExtension>
        </extensions>
      </trkpt>
      <trkpt lat="45.33247648738324642181396484375" lon="-70.81778115592896938323974609375">
        <ele>880.4000244140625</ele>
        <time>2026-08-21T12:02:14.000Z</time>
        <extensions>
          <ns3:TrackPointExtension>
            <ns3:hr>127</ns3:hr>
            <ns3:cad>61</ns3:cad>
          </ns3:TrackPointExtension>
        </extensions>
      </trkpt>
      <trkpt lat="45.33246290870010852813720703125" lon="-70.8177653141319751739501953125">
        <ele>880.20001220703125</ele>
        <time>2026-08-21T12:02:15.000Z</time>
        <extensions>
          <ns3:TrackPointExtension>
            <ns3:hr>127</ns3:hr>
            <ns3:cad>61</ns3:cad>
          </ns3:TrackPointExtension>
        </extensions>
      </trkpt>
      <trkpt lat="45.3324492461979389190673828125" lon="-70.8177522383630275726318359375">
        <ele>879.79998779296875</ele>
        <time>2026-08-21T12:02:16.000Z</time>
        <extensions>
          <ns3:TrackPointExtension>
            <ns3:hr>127</ns3:hr>
            <ns3:cad>61</ns3:cad>
          </ns3:TrackPointExtension>
        </extensions>
      </trkpt>
      <trkpt lat="45.3324328176677227020263671875" lon="-70.81774209626019001007080078125">
        <ele>879.5999755859375</ele>
        <time>2026-08-21T12:02:17.000Z</time>
        <extensions>
          <ns3:TrackPointExtension>
            <ns3:hr>127</ns3:hr>
            <ns3:cad>61</ns3:cad>
          </ns3:TrackPointExtension>
        </extensions>
      </trkpt>
      <trkpt lat="45.3324133716523647308349609375" lon="-70.817737318575382232666015625">
        <ele>879.4000244140625</ele>
        <time>2026-08-21T12:02:18.000Z</time>
        <extensions>
          <ns3:TrackPointExtension>
            <ns3:hr>127</ns3:hr>
            <ns3:cad>61</ns3:cad>
          </ns3:TrackPointExtension>
        </extensions>
      </trkpt>
      <trkpt lat="45.33239669166505336761474609375" lon="-70.81773421727120876312255859375">
        <ele>879.4000244140625</ele>
        <time>2026-08-21T12:02:19.000Z</time>
        <extensions>
          <ns3:TrackPointExtension>
            <ns3:hr>127</ns3:hr>
            <ns3:cad>61</ns3:cad>
          </ns3:TrackPointExtension>
        </extensions>
      </trkpt>
      <trkpt lat="45.33238026313483715057373046875" lon="-70.81772935576736927032470703125">
        <ele>879.20001220703125</ele>
        <time>2026-08-21T12:02:20.000Z</time>
        <extensions>
          <ns3:TrackPointExtension>
            <ns3:hr>127</ns3:hr>
            <ns3:cad>61</ns3:cad>
          </ns3:TrackPointExtension>
        </extensions>
      </trkpt>
      <trkpt lat="45.33237003721296787261962890625" lon="-70.81772482953965663909912109375">
        <ele>879</ele>
        <time>2026-08-21T12:02:21.000Z</time>
        <extensions>
          <ns3:TrackPointExtension>
            <ns3:hr>127</ns3:hr>
            <ns3:cad>61</ns3:cad>
          </ns3:TrackPointExtension>
        </extensions>
      </trkpt>
      <trkpt lat="45.33236299641430377960205078125" lon="-70.81772114150226116180419921875">
        <ele>879</ele>
        <time>2026-08-21T12:02:22.000Z</time>
        <extensions>
          <ns3:TrackPointExtension>
            <ns3:hr>127</ns3:hr>
            <ns3:cad>0</ns3:cad>
          </ns3:TrackPointExtension>
        </extensions>
      </trkpt>
      <trkpt lat="45.3323577158153057098388671875" lon="-70.81771560944616794586181640625">
        <ele>878.79998779296875</ele>
        <time>2026-08-21T12:02:23.000Z</time>
        <extensions>
          <ns3:TrackPointExtension>
            <ns3:hr>126</ns3:hr>
            <ns3:cad>0</ns3:cad>
          </ns3:TrackPointExtension>
        </extensions>
      </trkpt>
      <trkpt lat="45.33234824426472187042236328125" lon="-70.81770722754299640655517578125">
        <ele>878.79998779296875</ele>
        <time>2026-08-21T12:02:24.000Z</time>
        <extensions>
          <ns3:TrackPointExtension>
            <ns3:hr>126</ns3:hr>
            <ns3:cad>0</ns3:cad>
          </ns3:TrackPointExtension>
        </extensions>
      </trkpt>
      <trkpt lat="45.33234782516956329345703125" lon="-70.81769214011728763580322265625">
        <ele>878.5999755859375</ele>
        <time>2026-08-21T12:02:25.000Z</time>
        <extensions>
          <ns3:TrackPointExtension>
            <ns3:hr>126</ns3:hr>
            <ns3:cad>0</ns3:cad>
          </ns3:TrackPointExtension>
        </extensions>
      </trkpt>
      <trkpt lat="45.33234220929443836212158203125" lon="-70.81766791641712188720703125">
        <ele>878.5999755859375</ele>
        <time>2026-08-21T12:02:26.000Z</time>
        <extensions>
          <ns3:TrackPointExtension>
            <ns3:hr>126</ns3:hr>
            <ns3:cad>0</ns3:cad>
          </ns3:TrackPointExtension>
        </extensions>
      </trkpt>
      <trkpt lat="45.33233307301998138427734375" lon="-70.81765358336269855499267578125">
        <ele>878.4000244140625</ele>
        <time>2026-08-21T12:02:27.000Z</time>
        <extensions>
          <ns3:TrackPointExtension>
            <ns3:hr>126</ns3:hr>
            <ns3:cad>17</ns3:cad>
          </ns3:TrackPointExtension>
        </extensions>
      </trkpt>
      <trkpt lat="45.3323285467922687530517578125" lon="-70.81764386035501956939697265625">
        <ele>878.4000244140625</ele>
        <time>2026-08-21T12:02:28.000Z</time>
        <extensions>
          <ns3:TrackPointExtension>
            <ns3:hr>125</ns3:hr>
            <ns3:cad>57</ns3:cad>
          </ns3:TrackPointExtension>
        </extensions>
      </trkpt>
      <trkpt lat="45.33232293091714382171630859375" lon="-70.81762877292931079864501953125">
        <ele>878.20001220703125</ele>
        <time>2026-08-21T12:02:29.000Z</time>
        <extensions>
          <ns3:TrackPointExtension>
            <ns3:hr>124</ns3:hr>
            <ns3:cad>57</ns3:cad>
          </ns3:TrackPointExtension>
        </extensions>
      </trkpt>
      <trkpt lat="45.33231320790946483612060546875" lon="-70.81761033274233341217041015625">
        <ele>878.20001220703125</ele>
        <time>2026-08-21T12:02:30.000Z</time>
        <extensions>
          <ns3:TrackPointExtension>
            <ns3:hr>124</ns3:hr>
            <ns3:cad>55</ns3:cad>
          </ns3:TrackPointExtension>
        </extensions>
      </trkpt>
      <trkpt lat="45.332305915653705596923828125" lon="-70.8175909705460071563720703125">
        <ele>878</ele>
        <time>2026-08-21T12:02:31.000Z</time>
        <extensions>
          <ns3:TrackPointExtension>
            <ns3:hr>123</ns3:hr>
            <ns3:cad>55</ns3:cad>
          </ns3:TrackPointExtension>
        </extensions>
      </trkpt>
      <trkpt lat="45.3323000483214855194091796875" lon="-70.81757395528256893157958984375">
        <ele>877.79998779296875</ele>
        <time>2026-08-21T12:02:32.000Z</time>
        <extensions>
          <ns3:TrackPointExtension>
            <ns3:hr>122</ns3:hr>
            <ns3:cad>55</ns3:cad>
          </ns3:TrackPointExtension>
        </extensions>
      </trkpt>
      <trkpt lat="45.3322936780750751495361328125" lon="-70.8175586163997650146484375">
        <ele>877.79998779296875</ele>
        <time>2026-08-21T12:02:33.000Z</time>
        <extensions>
          <ns3:TrackPointExtension>
            <ns3:hr>122</ns3:hr>
            <ns3:cad>55</ns3:cad>
          </ns3:TrackPointExtension>
        </extensions>
      </trkpt>
      <trkpt lat="45.33229024149477481842041015625" lon="-70.81755048595368862152099609375">
        <ele>877.79998779296875</ele>
        <time>2026-08-21T12:02:34.000Z</time>
        <extensions>
          <ns3:TrackPointExtension>
            <ns3:hr>121</ns3:hr>
            <ns3:cad>55</ns3:cad>
          </ns3:TrackPointExtension>
        </extensions>
      </trkpt>
      <trkpt lat="45.332289151847362518310546875" lon="-70.81754696555435657501220703125">
        <ele>877.79998779296875</ele>
        <time>2026-08-21T12:02:35.000Z</time>
        <extensions>
          <ns3:TrackPointExtension>
            <ns3:hr>121</ns3:hr>
            <ns3:cad>0</ns3:cad>
          </ns3:TrackPointExtension>
        </extensions>
      </trkpt>
      <trkpt lat="45.33228822983801364898681640625" lon="-70.81754495389759540557861328125">
        <ele>877.79998779296875</ele>
        <time>2026-08-21T12:02:36.000Z</time>
        <extensions>
          <ns3:TrackPointExtension>
            <ns3:hr>121</ns3:hr>
            <ns3:cad>0</ns3:cad>
          </ns3:TrackPointExtension>
        </extensions>
      </trkpt>
      <trkpt lat="45.332285463809967041015625" lon="-70.81754378043115139007568359375">
        <ele>878</ele>
        <time>2026-08-21T12:02:37.000Z</time>
        <extensions>
          <ns3:TrackPointExtension>
            <ns3:hr>120</ns3:hr>
            <ns3:cad>0</ns3:cad>
          </ns3:TrackPointExtension>
        </extensions>
      </trkpt>
      <trkpt lat="45.3322819434106349945068359375" lon="-70.81753657199442386627197265625">
        <ele>878</ele>
        <time>2026-08-21T12:02:38.000Z</time>
        <extensions>
          <ns3:TrackPointExtension>
            <ns3:hr>120</ns3:hr>
            <ns3:cad>0</ns3:cad>
          </ns3:TrackPointExtension>
        </extensions>
      </trkpt>
      <trkpt lat="45.3322775848209857940673828125" lon="-70.81752550788223743438720703125">
        <ele>878</ele>
        <time>2026-08-21T12:02:39.000Z</time>
        <extensions>
          <ns3:TrackPointExtension>
            <ns3:hr>120</ns3:hr>
            <ns3:cad>0</ns3:cad>
          </ns3:TrackPointExtension>
        </extensions>
      </trkpt>
      <trkpt lat="45.33227666281163692474365234375" lon="-70.8175168745219707489013671875">
        <ele>877.79998779296875</ele>
        <time>2026-08-21T12:02:40.000Z</time>
        <extensions>
          <ns3:TrackPointExtension>
            <ns3:hr>120</ns3:hr>
            <ns3:cad>0</ns3:cad>
          </ns3:TrackPointExtension>
        </extensions>
      </trkpt>
      <trkpt lat="45.332273058593273162841796875" lon="-70.81750371493399143218994140625">
        <ele>877.79998779296875</ele>
        <time>2026-08-21T12:02:41.000Z</time>
        <extensions>
          <ns3:TrackPointExtension>
            <ns3:hr>120</ns3:hr>
            <ns3:cad>0</ns3:cad>
          </ns3:TrackPointExtension>
        </extensions>
      </trkpt>
      <trkpt lat="45.33226870000362396240234375" lon="-70.81748695112764835357666015625">
        <ele>877.79998779296875</ele>
        <time>2026-08-21T12:02:42.000Z</time>
        <extensions>
          <ns3:TrackPointExtension>
            <ns3:hr>119</ns3:hr>
            <ns3:cad>0</ns3:cad>
          </ns3:TrackPointExtension>
        </extensions>
      </trkpt>
      <trkpt lat="45.33226090483367443084716796875" lon="-70.81747018732130527496337890625">
        <ele>877.79998779296875</ele>
        <time>2026-08-21T12:02:43.000Z</time>
        <extensions>
          <ns3:TrackPointExtension>
            <ns3:hr>119</ns3:hr>
            <ns3:cad>0</ns3:cad>
          </ns3:TrackPointExtension>
        </extensions>
      </trkpt>
      <trkpt lat="45.332251600921154022216796875" lon="-70.81744529306888580322265625">
        <ele>877.79998779296875</ele>
        <time>2026-08-21T12:02:44.000Z</time>
        <extensions>
          <ns3:TrackPointExtension>
            <ns3:hr>119</ns3:hr>
            <ns3:cad>51</ns3:cad>
          </ns3:TrackPointExtension>
        </extensions>
      </trkpt>
      <trkpt lat="45.3322358429431915283203125" lon="-70.8174256794154644012451171875">
        <ele>877.5999755859375</ele>
        <time>2026-08-21T12:02:45.000Z</time>
        <extensions>
          <ns3:TrackPointExtension>
            <ns3:hr>119</ns3:hr>
            <ns3:cad>55</ns3:cad>
          </ns3:TrackPointExtension>
        </extensions>
      </trkpt>
      <trkpt lat="45.33222553320229053497314453125" lon="-70.8174137771129608154296875">
        <ele>877.5999755859375</ele>
        <time>2026-08-21T12:02:46.000Z</time>
        <extensions>
          <ns3:TrackPointExtension>
            <ns3:hr>120</ns3:hr>
            <ns3:cad>55</ns3:cad>
          </ns3:TrackPointExtension>
        </extensions>
      </trkpt>
      <trkpt lat="45.332220084965229034423828125" lon="-70.8174022100865840911865234375">
        <ele>877.4000244140625</ele>
        <time>2026-08-21T12:02:47.000Z</time>
        <extensions>
          <ns3:TrackPointExtension>
            <ns3:hr>120</ns3:hr>
            <ns3:cad>56</ns3:cad>
          </ns3:TrackPointExtension>
        </extensions>
      </trkpt>
      <trkpt lat="45.332218743860721588134765625" lon="-70.81738284789025783538818359375">
        <ele>877.20001220703125</ele>
        <time>2026-08-21T12:02:48.000Z</time>
        <extensions>
          <ns3:TrackPointExtension>
            <ns3:hr>120</ns3:hr>
            <ns3:cad>56</ns3:cad>
          </ns3:TrackPointExtension>
        </extensions>
      </trkpt>
      <trkpt lat="45.3322115354239940643310546875" lon="-70.81736792810261249542236328125">
        <ele>877.20001220703125</ele>
        <time>2026-08-21T12:02:49.000Z</time>
        <extensions>
          <ns3:TrackPointExtension>
            <ns3:hr>120</ns3:hr>
            <ns3:cad>56</ns3:cad>
          </ns3:TrackPointExtension>
        </extensions>
      </trkpt>
      <trkpt lat="45.33220474608242511749267578125" lon="-70.817357785999774932861328125">
        <ele>877.20001220703125</ele>
        <time>2026-08-21T12:02:50.000Z</time>
        <extensions>
          <ns3:TrackPointExtension>
            <ns3:hr>120</ns3:hr>
            <ns3:cad>56</ns3:cad>
          </ns3:TrackPointExtension>
        </extensions>
      </trkpt>
      <trkpt lat="45.33219569362699985504150390625" lon="-70.81734060309827327728271484375">
        <ele>877.20001220703125</ele>
        <time>2026-08-21T12:02:51.000Z</time>
        <extensions>
          <ns3:TrackPointExtension>
            <ns3:hr>120</ns3:hr>
            <ns3:cad>0</ns3:cad>
          </ns3:TrackPointExtension>
        </extensions>
      </trkpt>
      <trkpt lat="45.33219133503735065460205078125" lon="-70.81732501275837421417236328125">
        <ele>877</ele>
        <time>2026-08-21T12:02:52.000Z</time>
        <extensions>
          <ns3:TrackPointExtension>
            <ns3:hr>120</ns3:hr>
            <ns3:cad>0</ns3:cad>
          </ns3:TrackPointExtension>
        </extensions>
      </trkpt>
      <trkpt lat="45.33218211494386196136474609375" lon="-70.81729936413466930389404296875">
        <ele>877.20001220703125</ele>
        <time>2026-08-21T12:02:53.000Z</time>
        <extensions>
          <ns3:TrackPointExtension>
            <ns3:hr>119</ns3:hr>
            <ns3:cad>0</ns3:cad>
          </ns3:TrackPointExtension>
        </extensions>
      </trkpt>
      <trkpt lat="45.33216786570847034454345703125" lon="-70.81727907992899417877197265625">
        <ele>877.20001220703125</ele>
        <time>2026-08-21T12:02:54.000Z</time>
        <extensions>
          <ns3:TrackPointExtension>
            <ns3:hr>120</ns3:hr>
            <ns3:cad>0</ns3:cad>
          </ns3:TrackPointExtension>
        </extensions>
      </trkpt>
      <trkpt lat="45.33215059898793697357177734375" lon="-70.8172582089900970458984375">
        <ele>877</ele>
        <time>2026-08-21T12:02:55.000Z</time>
        <extensions>
          <ns3:TrackPointExtension>
            <ns3:hr>120</ns3:hr>
            <ns3:cad>0</ns3:cad>
          </ns3:TrackPointExtension>
        </extensions>
      </trkpt>
      <trkpt lat="45.3321334160864353179931640625" lon="-70.8172416128218173980712890625">
        <ele>877</ele>
        <time>2026-08-21T12:02:56.000Z</time>
        <extensions>
          <ns3:TrackPointExtension>
            <ns3:hr>120</ns3:hr>
            <ns3:cad>60</ns3:cad>
          </ns3:TrackPointExtension>
        </extensions>
      </trkpt>
      <trkpt lat="45.33211589790880680084228515625" lon="-70.81722308881580829620361328125">
        <ele>877.20001220703125</ele>
        <time>2026-08-21T12:02:57.000Z</time>
        <extensions>
          <ns3:TrackPointExtension>
            <ns3:hr>120</ns3:hr>
            <ns3:cad>60</ns3:cad>
          </ns3:TrackPointExtension>
        </extensions>
      </trkpt>
      <trkpt lat="45.332104079425334930419921875" lon="-70.81720900721848011016845703125">
        <ele>877.20001220703125</ele>
        <time>2026-08-21T12:02:58.000Z</time>
        <extensions>
          <ns3:TrackPointExtension>
            <ns3:hr>120</ns3:hr>
            <ns3:cad>60</ns3:cad>
          </ns3:TrackPointExtension>
        </extensions>
      </trkpt>
      <trkpt lat="45.332091338932514190673828125" lon="-70.81719475798308849334716796875">
        <ele>877.20001220703125</ele>
        <time>2026-08-21T12:02:59.000Z</time>
        <extensions>
          <ns3:TrackPointExtension>
            <ns3:hr>120</ns3:hr>
            <ns3:cad>68</ns3:cad>
          </ns3:TrackPointExtension>
        </extensions>
      </trkpt>
      <trkpt lat="45.33207935281097888946533203125" lon="-70.81717497669160366058349609375">
        <ele>877.20001220703125</ele>
        <time>2026-08-21T12:03:00.000Z</time>
        <extensions>
          <ns3:TrackPointExtension>
            <ns3:hr>120</ns3:hr>
            <ns3:cad>68</ns3:cad>
          </ns3:TrackPointExtension>
        </extensions>
      </trkpt>
      <trkpt lat="45.33206912688910961151123046875" lon="-70.81715452484786510467529296875">
        <ele>877.20001220703125</ele>
        <time>2026-08-21T12:03:01.000Z</time>
        <extensions>
          <ns3:TrackPointExtension>
            <ns3:hr>120</ns3:hr>
            <ns3:cad>68</ns3:cad>
          </ns3:TrackPointExtension>
        </extensions>
      </trkpt>
      <trkpt lat="45.3320556320250034332275390625" lon="-70.8171376772224903106689453125">
        <ele>877.20001220703125</ele>
        <time>2026-08-21T12:03:02.000Z</time>
        <extensions>
          <ns3:TrackPointExtension>
            <ns3:hr>121</ns3:hr>
            <ns3:cad>68</ns3:cad>
          </ns3:TrackPointExtension>
        </extensions>
      </trkpt>
      <trkpt lat="45.3320492617785930633544921875" lon="-70.8171292953193187713623046875">
        <ele>877.20001220703125</ele>
        <time>2026-08-21T12:03:03.000Z</time>
        <extensions>
          <ns3:TrackPointExtension>
            <ns3:hr>120</ns3:hr>
            <ns3:cad>61</ns3:cad>
          </ns3:TrackPointExtension>
        </extensions>
      </trkpt>
      <trkpt lat="45.33203559927642345428466796875" lon="-70.8171249367296695709228515625">
        <ele>877.4000244140625</ele>
        <time>2026-08-21T12:03:04.000Z</time>
        <extensions>
          <ns3:TrackPointExtension>
            <ns3:hr>121</ns3:hr>
            <ns3:cad>61</ns3:cad>
          </ns3:TrackPointExtension>
        </extensions>
      </trkpt>
      <trkpt lat="45.332020260393619537353515625" lon="-70.81712233833968639373779296875">
        <ele>877.4000244140625</ele>
        <time>2026-08-21T12:03:05.000Z</time>
        <extensions>
          <ns3:TrackPointExtension>
            <ns3:hr>121</ns3:hr>
            <ns3:cad>61</ns3:cad>
          </ns3:TrackPointExtension>
        </extensions>
      </trkpt>
      <trkpt lat="45.33201263286173343658447265625" lon="-70.817117393016815185546875">
        <ele>877.4000244140625</ele>
        <time>2026-08-21T12:03:06.000Z</time>
        <extensions>
          <ns3:TrackPointExtension>
            <ns3:hr>121</ns3:hr>
            <ns3:cad>62</ns3:cad>
          </ns3:TrackPointExtension>
        </extensions>
      </trkpt>
      <trkpt lat="45.3320013172924518585205078125" lon="-70.81711345352232456207275390625">
        <ele>877.20001220703125</ele>
        <time>2026-08-21T12:03:07.000Z</time>
        <extensions>
          <ns3:TrackPointExtension>
            <ns3:hr>121</ns3:hr>
            <ns3:cad>62</ns3:cad>
          </ns3:TrackPointExtension>
        </extensions>
      </trkpt>
      <trkpt lat="45.331993438303470611572265625" lon="-70.8171138726174831390380859375">
        <ele>877.20001220703125</ele>
        <time>2026-08-21T12:03:08.000Z</time>
        <extensions>
          <ns3:TrackPointExtension>
            <ns3:hr>122</ns3:hr>
            <ns3:cad>62</ns3:cad>
          </ns3:TrackPointExtension>
        </extensions>
      </trkpt>
      <trkpt lat="45.33199251629412174224853515625" lon="-70.81710976548492908477783203125">
        <ele>877</ele>
        <time>2026-08-21T12:03:09.000Z</time>
        <extensions>
          <ns3:TrackPointExtension>
            <ns3:hr>122</ns3:hr>
            <ns3:cad>62</ns3:cad>
          </ns3:TrackPointExtension>
        </extensions>
      </trkpt>
      <trkpt lat="45.33199670724570751190185546875" lon="-70.8170945942401885986328125">
        <ele>877</ele>
        <time>2026-08-21T12:03:10.000Z</time>
        <extensions>
          <ns3:TrackPointExtension>
            <ns3:hr>122</ns3:hr>
            <ns3:cad>62</ns3:cad>
          </ns3:TrackPointExtension>
        </extensions>
      </trkpt>
      <trkpt lat="45.33199687488377094268798828125" lon="-70.8170865476131439208984375">
        <ele>877</ele>
        <time>2026-08-21T12:03:11.000Z</time>
        <extensions>
          <ns3:TrackPointExtension>
            <ns3:hr>122</ns3:hr>
            <ns3:cad>62</ns3:cad>
          </ns3:TrackPointExtension>
        </extensions>
      </trkpt>
      <trkpt lat="45.3319956175982952117919921875" lon="-70.81707707606256008148193359375">
        <ele>877</ele>
        <time>2026-08-21T12:03:12.000Z</time>
        <extensions>
          <ns3:TrackPointExtension>
            <ns3:hr>122</ns3:hr>
            <ns3:cad>62</ns3:cad>
          </ns3:TrackPointExtension>
        </extensions>
      </trkpt>
      <trkpt lat="45.33198949880897998809814453125" lon="-70.8170649223029613494873046875">
        <ele>877</ele>
        <time>2026-08-21T12:03:13.000Z</time>
        <extensions>
          <ns3:TrackPointExtension>
            <ns3:hr>122</ns3:hr>
            <ns3:cad>0</ns3:cad>
          </ns3:TrackPointExtension>
        </extensions>
      </trkpt>
      <trkpt lat="45.3319842182099819183349609375" lon="-70.8170575462281703948974609375">
        <ele>877.20001220703125</ele>
        <time>2026-08-21T12:03:14.000Z</time>
        <extensions>
          <ns3:TrackPointExtension>
            <ns3:hr>121</ns3:hr>
            <ns3:cad>0</ns3:cad>
          </ns3:TrackPointExtension>
        </extensions>
      </trkpt>
      <trkpt lat="45.33197072334587574005126953125" lon="-70.8170407824218273162841796875">
        <ele>877.20001220703125</ele>
        <time>2026-08-21T12:03:15.000Z</time>
        <extensions>
          <ns3:TrackPointExtension>
            <ns3:hr>122</ns3:hr>
            <ns3:cad>0</ns3:cad>
          </ns3:TrackPointExtension>
        </extensions>
      </trkpt>
      <trkpt lat="45.33196586184203624725341796875" lon="-70.8170156367123126983642578125">
        <ele>877.20001220703125</ele>
        <time>2026-08-21T12:03:16.000Z</time>
        <extensions>
          <ns3:TrackPointExtension>
            <ns3:hr>122</ns3:hr>
            <ns3:cad>0</ns3:cad>
          </ns3:TrackPointExtension>
        </extensions>
      </trkpt>
      <trkpt lat="45.33195622265338897705078125" lon="-70.816999711096286773681640625">
        <ele>877.20001220703125</ele>
        <time>2026-08-21T12:03:17.000Z</time>
        <extensions>
          <ns3:TrackPointExtension>
            <ns3:hr>121</ns3:hr>
            <ns3:cad>0</ns3:cad>
          </ns3:TrackPointExtension>
        </extensions>
      </trkpt>
      <trkpt lat="45.33194775693118572235107421875" lon="-70.8169807679951190948486328125">
        <ele>877.20001220703125</ele>
        <time>2026-08-21T12:03:18.000Z</time>
        <extensions>
          <ns3:TrackPointExtension>
            <ns3:hr>121</ns3:hr>
            <ns3:cad>0</ns3:cad>
          </ns3:TrackPointExtension>
        </extensions>
      </trkpt>
      <trkpt lat="45.331941135227680206298828125" lon="-70.81696920096874237060546875">
        <ele>877.20001220703125</ele>
        <time>2026-08-21T12:03:19.000Z</time>
        <extensions>
          <ns3:TrackPointExtension>
            <ns3:hr>121</ns3:hr>
            <ns3:cad>0</ns3:cad>
          </ns3:TrackPointExtension>
        </extensions>
      </trkpt>
      <trkpt lat="45.3319352678954601287841796875" lon="-70.81695989705622196197509765625">
        <ele>877.20001220703125</ele>
        <time>2026-08-21T12:03:20.000Z</time>
        <extensions>
          <ns3:TrackPointExtension>
            <ns3:hr>121</ns3:hr>
            <ns3:cad>0</ns3:cad>
          </ns3:TrackPointExtension>
        </extensions>
      </trkpt>
      <trkpt lat="45.331928394734859466552734375" lon="-70.81695034168660640716552734375">
        <ele>877.20001220703125</ele>
        <time>2026-08-21T12:03:21.000Z</time>
        <extensions>
          <ns3:TrackPointExtension>
            <ns3:hr>122</ns3:hr>
            <ns3:cad>0</ns3:cad>
          </ns3:TrackPointExtension>
        </extensions>
      </trkpt>
      <trkpt lat="45.33192378468811511993408203125" lon="-70.81694263033568859100341796875">
        <ele>877.20001220703125</ele>
        <time>2026-08-21T12:03:22.000Z</time>
        <extensions>
          <ns3:TrackPointExtension>
            <ns3:hr>121</ns3:hr>
            <ns3:cad>0</ns3:cad>
          </ns3:TrackPointExtension>
        </extensions>
      </trkpt>
      <trkpt lat="45.3319094516336917877197265625" lon="-70.8169231005012989044189453125">
        <ele>877.20001220703125</ele>
        <time>2026-08-21T12:03:23.000Z</time>
        <extensions>
          <ns3:TrackPointExtension>
            <ns3:hr>120</ns3:hr>
            <ns3:cad>40</ns3:cad>
          </ns3:TrackPointExtension>
        </extensions>
      </trkpt>
      <trkpt lat="45.33189897425472736358642578125" lon="-70.81691077910363674163818359375">
        <ele>877.4000244140625</ele>
        <time>2026-08-21T12:03:24.000Z</time>
        <extensions>
          <ns3:TrackPointExtension>
            <ns3:hr>120</ns3:hr>
            <ns3:cad>40</ns3:cad>
          </ns3:TrackPointExtension>
        </extensions>
      </trkpt>
      <trkpt lat="45.33188908360898494720458984375" lon="-70.816903822124004364013671875">
        <ele>877.4000244140625</ele>
        <time>2026-08-21T12:03:25.000Z</time>
        <extensions>
          <ns3:TrackPointExtension>
            <ns3:hr>120</ns3:hr>
            <ns3:cad>50</ns3:cad>
          </ns3:TrackPointExtension>
        </extensions>
      </trkpt>
      <trkpt lat="45.3318745829164981842041015625" lon="-70.81688311882317066192626953125">
        <ele>877.4000244140625</ele>
        <time>2026-08-21T12:03:26.000Z</time>
        <extensions>
          <ns3:TrackPointExtension>
            <ns3:hr>119</ns3:hr>
            <ns3:cad>50</ns3:cad>
          </ns3:TrackPointExtension>
        </extensions>
      </trkpt>
      <trkpt lat="45.33186377026140689849853515625" lon="-70.8168654330074787139892578125">
        <ele>877.4000244140625</ele>
        <time>2026-08-21T12:03:27.000Z</time>
        <extensions>
          <ns3:TrackPointExtension>
            <ns3:hr>119</ns3:hr>
            <ns3:cad>50</ns3:cad>
          </ns3:TrackPointExtension>
        </extensions>
      </trkpt>
      <trkpt lat="45.33185371197760105133056640625" lon="-70.8168518543243408203125">
        <ele>877.4000244140625</ele>
        <time>2026-08-21T12:03:28.000Z</time>
        <extensions>
          <ns3:TrackPointExtension>
            <ns3:hr>119</ns3:hr>
            <ns3:cad>50</ns3:cad>
          </ns3:TrackPointExtension>
        </extensions>
      </trkpt>
      <trkpt lat="45.33184432424604892730712890625" lon="-70.8168345876038074493408203125">
        <ele>877.20001220703125</ele>
        <time>2026-08-21T12:03:29.000Z</time>
        <extensions>
          <ns3:TrackPointExtension>
            <ns3:hr>120</ns3:hr>
            <ns3:cad>50</ns3:cad>
          </ns3:TrackPointExtension>
        </extensions>
      </trkpt>
      <trkpt lat="45.3318377025425434112548828125" lon="-70.81682058982551097869873046875">
        <ele>877.20001220703125</ele>
        <time>2026-08-21T12:03:30.000Z</time>
        <extensions>
          <ns3:TrackPointExtension>
            <ns3:hr>119</ns3:hr>
            <ns3:cad>0</ns3:cad>
          </ns3:TrackPointExtension>
        </extensions>
      </trkpt>
      <trkpt lat="45.33182437531650066375732421875" lon="-70.81681069917976856231689453125">
        <ele>877.20001220703125</ele>
        <time>2026-08-21T12:03:31.000Z</time>
        <extensions>
          <ns3:TrackPointExtension>
            <ns3:hr>119</ns3:hr>
            <ns3:cad>0</ns3:cad>
          </ns3:TrackPointExtension>
        </extensions>
      </trkpt>
      <trkpt lat="45.3318112157285213470458984375" lon="-70.81680558621883392333984375">
        <ele>877.20001220703125</ele>
        <time>2026-08-21T12:03:32.000Z</time>
        <extensions>
          <ns3:TrackPointExtension>
            <ns3:hr>119</ns3:hr>
            <ns3:cad>54</ns3:cad>
          </ns3:TrackPointExtension>
        </extensions>
      </trkpt>
      <trkpt lat="45.33180207945406436920166015625" lon="-70.8167977072298526763916015625">
        <ele>877.20001220703125</ele>
        <time>2026-08-21T12:03:33.000Z</time>
        <extensions>
          <ns3:TrackPointExtension>
            <ns3:hr>119</ns3:hr>
            <ns3:cad>54</ns3:cad>
          </ns3:TrackPointExtension>
        </extensions>
      </trkpt>
      <trkpt lat="45.33178615383803844451904296875" lon="-70.81678815186023712158203125">
        <ele>877.20001220703125</ele>
        <time>2026-08-21T12:03:34.000Z</time>
        <extensions>
          <ns3:TrackPointExtension>
            <ns3:hr>118</ns3:hr>
            <ns3:cad>54</ns3:cad>
          </ns3:TrackPointExtension>
        </extensions>
      </trkpt>
      <trkpt lat="45.33177316188812255859375" lon="-70.8167879842221736907958984375">
        <ele>877.20001220703125</ele>
        <time>2026-08-21T12:03:35.000Z</time>
        <extensions>
          <ns3:TrackPointExtension>
            <ns3:hr>118</ns3:hr>
            <ns3:cad>54</ns3:cad>
          </ns3:TrackPointExtension>
        </extensions>
      </trkpt>
      <trkpt lat="45.3317518718540668487548828125" lon="-70.81678655929863452911376953125">
        <ele>877.20001220703125</ele>
        <time>2026-08-21T12:03:36.000Z</time>
        <extensions>
          <ns3:TrackPointExtension>
            <ns3:hr>117</ns3:hr>
            <ns3:cad>54</ns3:cad>
          </ns3:TrackPointExtension>
        </extensions>
      </trkpt>
      <trkpt lat="45.33173619769513607025146484375" lon="-70.8167920075356960296630859375">
        <ele>877</ele>
        <time>2026-08-21T12:03:37.000Z</time>
        <extensions>
          <ns3:TrackPointExtension>
            <ns3:hr>115</ns3:hr>
            <ns3:cad>54</ns3:cad>
          </ns3:TrackPointExtension>
        </extensions>
      </trkpt>
      <trkpt lat="45.33172479830682277679443359375" lon="-70.81679678522050380706787109375">
        <ele>877</ele>
        <time>2026-08-21T12:03:38.000Z</time>
        <extensions>
          <ns3:TrackPointExtension>
            <ns3:hr>115</ns3:hr>
            <ns3:cad>54</ns3:cad>
          </ns3:TrackPointExtension>
        </extensions>
      </trkpt>
      <trkpt lat="45.33171339891850948333740234375" lon="-70.816804580390453338623046875">
        <ele>877</ele>
        <time>2026-08-21T12:03:39.000Z</time>
        <extensions>
          <ns3:TrackPointExtension>
            <ns3:hr>114</ns3:hr>
            <ns3:cad>54</ns3:cad>
          </ns3:TrackPointExtension>
        </extensions>
      </trkpt>
      <trkpt lat="45.33170602284371852874755859375" lon="-70.81680650822818279266357421875">
        <ele>877</ele>
        <time>2026-08-21T12:03:40.000Z</time>
        <extensions>
          <ns3:TrackPointExtension>
            <ns3:hr>113</ns3:hr>
            <ns3:cad>54</ns3:cad>
          </ns3:TrackPointExtension>
        </extensions>
      </trkpt>
      <trkpt lat="45.33169202506542205810546875" lon="-70.81680826842784881591796875">
        <ele>877</ele>
        <time>2026-08-21T12:03:41.000Z</time>
        <extensions>
          <ns3:TrackPointExtension>
            <ns3:hr>114</ns3:hr>
            <ns3:cad>54</ns3:cad>
          </ns3:TrackPointExtension>
        </extensions>
      </trkpt>
      <trkpt lat="45.33168121241033077239990234375" lon="-70.8168124593794345855712890625">
        <ele>877</ele>
        <time>2026-08-21T12:03:42.000Z</time>
        <extensions>
          <ns3:TrackPointExtension>
            <ns3:hr>115</ns3:hr>
            <ns3:cad>54</ns3:cad>
          </ns3:TrackPointExtension>
        </extensions>
      </trkpt>
      <trkpt lat="45.331670232117176055908203125" lon="-70.816814638674259185791015625">
        <ele>877</ele>
        <time>2026-08-21T12:03:43.000Z</time>
        <extensions>
          <ns3:TrackPointExtension>
            <ns3:hr>116</ns3:hr>
            <ns3:cad>54</ns3:cad>
          </ns3:TrackPointExtension>
        </extensions>
      </trkpt>
      <trkpt lat="45.33165539614856243133544921875" lon="-70.81682176329195499420166015625">
        <ele>877</ele>
        <time>2026-08-21T12:03:44.000Z</time>
        <extensions>
          <ns3:TrackPointExtension>
            <ns3:hr>118</ns3:hr>
            <ns3:cad>0</ns3:cad>
          </ns3:TrackPointExtension>
        </extensions>
      </trkpt>
      <trkpt lat="45.33164315856993198394775390625" lon="-70.8168168179690837860107421875">
        <ele>877.20001220703125</ele>
        <time>2026-08-21T12:03:45.000Z</time>
        <extensions>
          <ns3:TrackPointExtension>
            <ns3:hr>119</ns3:hr>
            <ns3:cad>0</ns3:cad>
          </ns3:TrackPointExtension>
        </extensions>
      </trkpt>
      <trkpt lat="45.3316368721425533294677734375" lon="-70.81680784933269023895263671875">
        <ele>877.20001220703125</ele>
        <time>2026-08-21T12:03:46.000Z</time>
        <extensions>
          <ns3:TrackPointExtension>
            <ns3:hr>121</ns3:hr>
            <ns3:cad>0</ns3:cad>
          </ns3:TrackPointExtension>
        </extensions>
      </trkpt>
      <trkpt lat="45.33163301646709442138671875" lon="-70.81679477356374263763427734375">
        <ele>877.20001220703125</ele>
        <time>2026-08-21T12:03:47.000Z</time>
        <extensions>
          <ns3:TrackPointExtension>
            <ns3:hr>122</ns3:hr>
            <ns3:cad>60</ns3:cad>
          </ns3:TrackPointExtension>
        </extensions>
      </trkpt>
      <trkpt lat="45.331625305116176605224609375" lon="-70.816782452166080474853515625">
        <ele>877.4000244140625</ele>
        <time>2026-08-21T12:03:48.000Z</time>
        <extensions>
          <ns3:TrackPointExtension>
            <ns3:hr>122</ns3:hr>
            <ns3:cad>60</ns3:cad>
          </ns3:TrackPointExtension>
        </extensions>
      </trkpt>
      <trkpt lat="45.33161633647978305816650390625" lon="-70.81677147187292575836181640625">
        <ele>877.5999755859375</ele>
        <time>2026-08-21T12:03:49.000Z</time>
        <extensions>
          <ns3:TrackPointExtension>
            <ns3:hr>122</ns3:hr>
            <ns3:cad>17</ns3:cad>
          </ns3:TrackPointExtension>
        </extensions>
      </trkpt>
      <trkpt lat="45.33160476945340633392333984375" lon="-70.81675604917109012603759765625">
        <ele>877.5999755859375</ele>
        <time>2026-08-21T12:03:50.000Z</time>
        <extensions>
          <ns3:TrackPointExtension>
            <ns3:hr>122</ns3:hr>
            <ns3:cad>17</ns3:cad>
          </ns3:TrackPointExtension>
        </extensions>
      </trkpt>
      <trkpt lat="45.33159387297928333282470703125" lon="-70.81674632616341114044189453125">
        <ele>877.79998779296875</ele>
        <time>2026-08-21T12:03:51.000Z</time>
        <extensions>
          <ns3:TrackPointExtension>
            <ns3:hr>122</ns3:hr>
            <ns3:cad>17</ns3:cad>
          </ns3:TrackPointExtension>
        </extensions>
      </trkpt>
      <trkpt lat="45.33158230595290660858154296875" lon="-70.81673987209796905517578125">
        <ele>877.79998779296875</ele>
        <time>2026-08-21T12:03:52.000Z</time>
        <extensions>
          <ns3:TrackPointExtension>
            <ns3:hr>123</ns3:hr>
            <ns3:cad>0</ns3:cad>
          </ns3:TrackPointExtension>
        </extensions>
      </trkpt>
      <trkpt lat="45.3315721638500690460205078125" lon="-70.81673358567059040069580078125">
        <ele>878</ele>
        <time>2026-08-21T12:03:53.000Z</time>
        <extensions>
          <ns3:TrackPointExtension>
            <ns3:hr>123</ns3:hr>
            <ns3:cad>0</ns3:cad>
          </ns3:TrackPointExtension>
        </extensions>
      </trkpt>
      <trkpt lat="45.33155389130115509033203125" lon="-70.81672403030097484588623046875">
        <ele>878</ele>
        <time>2026-08-21T12:03:54.000Z</time>
        <extensions>
          <ns3:TrackPointExtension>
            <ns3:hr>123</ns3:hr>
            <ns3:cad>0</ns3:cad>
          </ns3:TrackPointExtension>
        </extensions>
      </trkpt>
      <trkpt lat="45.33154324628412723541259765625" lon="-70.81672084517776966094970703125">
        <ele>878.20001220703125</ele>
        <time>2026-08-21T12:03:55.000Z</time>
        <extensions>
          <ns3:TrackPointExtension>
            <ns3:hr>124</ns3:hr>
            <ns3:cad>0</ns3:cad>
          </ns3:TrackPointExtension>
        </extensions>
      </trkpt>
      <trkpt lat="45.33152681775391101837158203125" lon="-70.81670793704688549041748046875">
        <ele>878.4000244140625</ele>
        <time>2026-08-21T12:03:56.000Z</time>
        <extensions>
          <ns3:TrackPointExtension>
            <ns3:hr>124</ns3:hr>
            <ns3:cad>0</ns3:cad>
          </ns3:TrackPointExtension>
        </extensions>
      </trkpt>
      <trkpt lat="45.3315148316323757171630859375" lon="-70.81669829785823822021484375">
        <ele>878.5999755859375</ele>
        <time>2026-08-21T12:03:57.000Z</time>
        <extensions>
          <ns3:TrackPointExtension>
            <ns3:hr>124</ns3:hr>
            <ns3:cad>0</ns3:cad>
          </ns3:TrackPointExtension>
        </extensions>
      </trkpt>
      <trkpt lat="45.331498570740222930908203125" lon="-70.81668932922184467315673828125">
        <ele>878.5999755859375</ele>
        <time>2026-08-21T12:03:58.000Z</time>
        <extensions>
          <ns3:TrackPointExtension>
            <ns3:hr>124</ns3:hr>
            <ns3:cad>0</ns3:cad>
          </ns3:TrackPointExtension>
        </extensions>
      </trkpt>
      <trkpt lat="45.33147501759231090545654296875" lon="-70.81668480299413204193115234375">
        <ele>878.79998779296875</ele>
        <time>2026-08-21T12:03:59.000Z</time>
        <extensions>
          <ns3:TrackPointExtension>
            <ns3:hr>126</ns3:hr>
            <ns3:cad>0</ns3:cad>
          </ns3:TrackPointExtension>
        </extensions>
      </trkpt>
      <trkpt lat="45.331462360918521881103515625" lon="-70.816690586507320404052734375">
        <ele>878.79998779296875</ele>
        <time>2026-08-21T12:04:00.000Z</time>
        <extensions>
          <ns3:TrackPointExtension>
            <ns3:hr>126</ns3:hr>
            <ns3:cad>0</ns3:cad>
          </ns3:TrackPointExtension>
        </extensions>
      </trkpt>
      <trkpt lat="45.33144903369247913360595703125" lon="-70.81669033505022525787353515625">
        <ele>878.79998779296875</ele>
        <time>2026-08-21T12:04:01.000Z</time>
        <extensions>
          <ns3:TrackPointExtension>
            <ns3:hr>126</ns3:hr>
            <ns3:cad>0</ns3:cad>
          </ns3:TrackPointExtension>
        </extensions>
      </trkpt>
      <trkpt lat="45.33143931068480014801025390625" lon="-70.81668756902217864990234375">
        <ele>879</ele>
        <time>2026-08-21T12:04:02.000Z</time>
        <extensions>
          <ns3:TrackPointExtension>
            <ns3:hr>127</ns3:hr>
            <ns3:cad>0</ns3:cad>
          </ns3:TrackPointExtension>
        </extensions>
      </trkpt>
      <trkpt lat="45.33142237924039363861083984375" lon="-70.8166803605854511260986328125">
        <ele>879.20001220703125</ele>
        <time>2026-08-21T12:04:03.000Z</time>
        <extensions>
          <ns3:TrackPointExtension>
            <ns3:hr>127</ns3:hr>
            <ns3:cad>0</ns3:cad>
          </ns3:TrackPointExtension>
        </extensions>
      </trkpt>
      <trkpt lat="45.33141081221401691436767578125" lon="-70.8166766725480556488037109375">
        <ele>879.4000244140625</ele>
        <time>2026-08-21T12:04:04.000Z</time>
        <extensions>
          <ns3:TrackPointExtension>
            <ns3:hr>127</ns3:hr>
            <ns3:cad>0</ns3:cad>
          </ns3:TrackPointExtension>
        </extensions>
      </trkpt>
      <trkpt lat="45.331398658454418182373046875" lon="-70.81666820682585239410400390625">
        <ele>879.5999755859375</ele>
        <time>2026-08-21T12:04:05.000Z</time>
        <extensions>
          <ns3:TrackPointExtension>
            <ns3:hr>127</ns3:hr>
            <ns3:cad>0</ns3:cad>
          </ns3:TrackPointExtension>
        </extensions>
      </trkpt>
      <trkpt lat="45.33138734288513660430908203125" lon="-70.8166532032191753387451171875">
        <ele>879.79998779296875</ele>
        <time>2026-08-21T12:04:06.000Z</time>
        <extensions>
          <ns3:TrackPointExtension>
            <ns3:hr>127</ns3:hr>
            <ns3:cad>52</ns3:cad>
          </ns3:TrackPointExtension>
        </extensions>
      </trkpt>
      <trkpt lat="45.3313748538494110107421875" lon="-70.8166411332786083221435546875">
        <ele>879.79998779296875</ele>
        <time>2026-08-21T12:04:07.000Z</time>
        <extensions>
          <ns3:TrackPointExtension>
            <ns3:hr>127</ns3:hr>
            <ns3:cad>52</ns3:cad>
          </ns3:TrackPointExtension>
        </extensions>
      </trkpt>
      <trkpt lat="45.33136286772787570953369140625" lon="-70.81663015298545360565185546875">
        <ele>880</ele>
        <time>2026-08-21T12:04:08.000Z</time>
        <extensions>
          <ns3:TrackPointExtension>
            <ns3:hr>128</ns3:hr>
            <ns3:cad>52</ns3:cad>
          </ns3:TrackPointExtension>
        </extensions>
      </trkpt>
      <trkpt lat="45.331353731453418731689453125" lon="-70.816623866558074951171875">
        <ele>880.20001220703125</ele>
        <time>2026-08-21T12:04:09.000Z</time>
        <extensions>
          <ns3:TrackPointExtension>
            <ns3:hr>128</ns3:hr>
            <ns3:cad>52</ns3:cad>
          </ns3:TrackPointExtension>
        </extensions>
      </trkpt>
      <trkpt lat="45.33134677447378635406494140625" lon="-70.81662713550031185150146484375">
        <ele>880.20001220703125</ele>
        <time>2026-08-21T12:04:10.000Z</time>
        <extensions>
          <ns3:TrackPointExtension>
            <ns3:hr>129</ns3:hr>
            <ns3:cad>52</ns3:cad>
          </ns3:TrackPointExtension>
        </extensions>
      </trkpt>
      <trkpt lat="45.3313327766954898834228515625" lon="-70.816628895699977874755859375">
        <ele>880.4000244140625</ele>
        <time>2026-08-21T12:04:11.000Z</time>
        <extensions>
          <ns3:TrackPointExtension>
            <ns3:hr>129</ns3:hr>
            <ns3:cad>53</ns3:cad>
          </ns3:TrackPointExtension>
        </extensions>
      </trkpt>
      <trkpt lat="45.33132581971585750579833984375" lon="-70.8166287280619144439697265625">
        <ele>880.79998779296875</ele>
        <time>2026-08-21T12:04:12.000Z</time>
        <extensions>
          <ns3:TrackPointExtension>
            <ns3:hr>130</ns3:hr>
            <ns3:cad>53</ns3:cad>
          </ns3:TrackPointExtension>
        </extensions>
      </trkpt>
      <trkpt lat="45.3313176892697811126708984375" lon="-70.81662185490131378173828125">
        <ele>881</ele>
        <time>2026-08-21T12:04:13.000Z</time>
        <extensions>
          <ns3:TrackPointExtension>
            <ns3:hr>130</ns3:hr>
            <ns3:cad>0</ns3:cad>
          </ns3:TrackPointExtension>
        </extensions>
      </trkpt>
      <trkpt lat="45.331308133900165557861328125" lon="-70.816618166863918304443359375">
        <ele>881.4000244140625</ele>
        <time>2026-08-21T12:04:14.000Z</time>
        <extensions>
          <ns3:TrackPointExtension>
            <ns3:hr>131</ns3:hr>
            <ns3:cad>0</ns3:cad>
          </ns3:TrackPointExtension>
        </extensions>
      </trkpt>
      <trkpt lat="45.33130486495792865753173828125" lon="-70.816614814102649688720703125">
        <ele>881.5999755859375</ele>
        <time>2026-08-21T12:04:15.000Z</time>
        <extensions>
          <ns3:TrackPointExtension>
            <ns3:hr>132</ns3:hr>
            <ns3:cad>0</ns3:cad>
          </ns3:TrackPointExtension>
        </extensions>
      </trkpt>
      <trkpt lat="45.3312895260751247406005859375" lon="-70.81660701893270015716552734375">
        <ele>882</ele>
        <time>2026-08-21T12:04:16.000Z</time>
        <extensions>
          <ns3:TrackPointExtension>
            <ns3:hr>132</ns3:hr>
            <ns3:cad>0</ns3:cad>
          </ns3:TrackPointExtension>
        </extensions>
      </trkpt>
      <trkpt lat="45.33128173090517520904541015625" lon="-70.81660232506692409515380859375">
        <ele>882.20001220703125</ele>
        <time>2026-08-21T12:04:17.000Z</time>
        <extensions>
          <ns3:TrackPointExtension>
            <ns3:hr>133</ns3:hr>
            <ns3:cad>0</ns3:cad>
          </ns3:TrackPointExtension>
        </extensions>
      </trkpt>
      <trkpt lat="45.33126890659332275390625" lon="-70.8165998943150043487548828125">
        <ele>882.5999755859375</ele>
        <time>2026-08-21T12:04:18.000Z</time>
        <extensions>
          <ns3:TrackPointExtension>
            <ns3:hr>133</ns3:hr>
            <ns3:cad>0</ns3:cad>
          </ns3:TrackPointExtension>
        </extensions>
      </trkpt>
      <trkpt lat="45.3312616981565952301025390625" lon="-70.81659930758178234100341796875">
        <ele>882.79998779296875</ele>
        <time>2026-08-21T12:04:19.000Z</time>
        <extensions>
          <ns3:TrackPointExtension>
            <ns3:hr>133</ns3:hr>
            <ns3:cad>0</ns3:cad>
          </ns3:TrackPointExtension>
        </extensions>
      </trkpt>
      <trkpt lat="45.33125490881502628326416015625" lon="-70.81659243442118167877197265625">
        <ele>883.20001220703125</ele>
        <time>2026-08-21T12:04:20.000Z</time>
        <extensions>
          <ns3:TrackPointExtension>
            <ns3:hr>133</ns3:hr>
            <ns3:cad>0</ns3:cad>
          </ns3:TrackPointExtension>
        </extensions>
      </trkpt>
      <trkpt lat="45.3312392346560955047607421875" lon="-70.81658271141350269317626953125">
        <ele>883.4000244140625</ele>
        <time>2026-08-21T12:04:21.000Z</time>
        <extensions>
          <ns3:TrackPointExtension>
            <ns3:hr>134</ns3:hr>
            <ns3:cad>0</ns3:cad>
          </ns3:TrackPointExtension>
        </extensions>
      </trkpt>
      <trkpt lat="45.3312258236110210418701171875" lon="-70.81657416187226772308349609375">
        <ele>883.5999755859375</ele>
        <time>2026-08-21T12:04:22.000Z</time>
        <extensions>
          <ns3:TrackPointExtension>
            <ns3:hr>133</ns3:hr>
            <ns3:cad>0</ns3:cad>
          </ns3:TrackPointExtension>
        </extensions>
      </trkpt>
      <trkpt lat="45.3312107361853122711181640625" lon="-70.8165660314261913299560546875">
        <ele>883.79998779296875</ele>
        <time>2026-08-21T12:04:23.000Z</time>
        <extensions>
          <ns3:TrackPointExtension>
            <ns3:hr>134</ns3:hr>
            <ns3:cad>0</ns3:cad>
          </ns3:TrackPointExtension>
        </extensions>
      </trkpt>
      <trkpt lat="45.33119447529315948486328125" lon="-70.81655991263687610626220703125">
        <ele>884</ele>
        <time>2026-08-21T12:04:24.000Z</time>
        <extensions>
          <ns3:TrackPointExtension>
            <ns3:hr>134</ns3:hr>
            <ns3:cad>0</ns3:cad>
          </ns3:TrackPointExtension>
        </extensions>
      </trkpt>
      <trkpt lat="45.3311832435429096221923828125" lon="-70.8165539614856243133544921875">
        <ele>884</ele>
        <time>2026-08-21T12:04:25.000Z</time>
        <extensions>
          <ns3:TrackPointExtension>
            <ns3:hr>135</ns3:hr>
            <ns3:cad>0</ns3:cad>
          </ns3:TrackPointExtension>
        </extensions>
      </trkpt>
      <trkpt lat="45.33117662183940410614013671875" lon="-70.81655303947627544403076171875">
        <ele>884.20001220703125</ele>
        <time>2026-08-21T12:04:26.000Z</time>
        <extensions>
          <ns3:TrackPointExtension>
            <ns3:hr>136</ns3:hr>
            <ns3:cad>50</ns3:cad>
          </ns3:TrackPointExtension>
        </extensions>
      </trkpt>
      <trkpt lat="45.331163965165615081787109375" lon="-70.81656058318912982940673828125">
        <ele>884.20001220703125</ele>
        <time>2026-08-21T12:04:27.000Z</time>
        <extensions>
          <ns3:TrackPointExtension>
            <ns3:hr>137</ns3:hr>
            <ns3:cad>50</ns3:cad>
          </ns3:TrackPointExtension>
        </extensions>
      </trkpt>
      <trkpt lat="45.33115717582404613494873046875" lon="-70.8165583200752735137939453125">
        <ele>884.4000244140625</ele>
        <time>2026-08-21T12:04:28.000Z</time>
        <extensions>
          <ns3:TrackPointExtension>
            <ns3:hr>138</ns3:hr>
            <ns3:cad>45</ns3:cad>
          </ns3:TrackPointExtension>
        </extensions>
      </trkpt>
      <trkpt lat="45.33114359714090824127197265625" lon="-70.81655538640916347503662109375">
        <ele>884.5999755859375</ele>
        <time>2026-08-21T12:04:29.000Z</time>
        <extensions>
          <ns3:TrackPointExtension>
            <ns3:hr>139</ns3:hr>
            <ns3:cad>45</ns3:cad>
          </ns3:TrackPointExtension>
        </extensions>
      </trkpt>
      <trkpt lat="45.331134796142578125" lon="-70.8165509440004825592041015625">
        <ele>884.5999755859375</ele>
        <time>2026-08-21T12:04:30.000Z</time>
        <extensions>
          <ns3:TrackPointExtension>
            <ns3:hr>139</ns3:hr>
            <ns3:cad>0</ns3:cad>
          </ns3:TrackPointExtension>
        </extensions>
      </trkpt>
      <trkpt lat="45.33112247474491596221923828125" lon="-70.81654599867761135101318359375">
        <ele>884.79998779296875</ele>
        <time>2026-08-21T12:04:31.000Z</time>
        <extensions>
          <ns3:TrackPointExtension>
            <ns3:hr>140</ns3:hr>
            <ns3:cad>0</ns3:cad>
          </ns3:TrackPointExtension>
        </extensions>
      </trkpt>
      <trkpt lat="45.33110688440501689910888671875" lon="-70.81654029898345470428466796875">
        <ele>884.79998779296875</ele>
        <time>2026-08-21T12:04:32.000Z</time>
        <extensions>
          <ns3:TrackPointExtension>
            <ns3:hr>141</ns3:hr>
            <ns3:cad>0</ns3:cad>
          </ns3:TrackPointExtension>
        </extensions>
      </trkpt>
      <trkpt lat="45.3310964070260524749755859375" lon="-70.81652940250933170318603515625">
        <ele>884.79998779296875</ele>
        <time>2026-08-21T12:04:33.000Z</time>
        <extensions>
          <ns3:TrackPointExtension>
            <ns3:hr>141</ns3:hr>
            <ns3:cad>0</ns3:cad>
          </ns3:TrackPointExtension>
        </extensions>
      </trkpt>
      <trkpt lat="45.33108827657997608184814453125" lon="-70.8165157400071620941162109375">
        <ele>884.79998779296875</ele>
        <time>2026-08-21T12:04:34.000Z</time>
        <extensions>
          <ns3:TrackPointExtension>
            <ns3:hr>142</ns3:hr>
            <ns3:cad>0</ns3:cad>
          </ns3:TrackPointExtension>
        </extensions>
      </trkpt>
      <trkpt lat="45.33107251860201358795166015625" lon="-70.8165098726749420166015625">
        <ele>884.79998779296875</ele>
        <time>2026-08-21T12:04:35.000Z</time>
        <extensions>
          <ns3:TrackPointExtension>
            <ns3:hr>142</ns3:hr>
            <ns3:cad>0</ns3:cad>
          </ns3:TrackPointExtension>
        </extensions>
      </trkpt>
      <trkpt lat="45.3310598619282245635986328125" lon="-70.81650358624756336212158203125">
        <ele>884.79998779296875</ele>
        <time>2026-08-21T12:04:36.000Z</time>
        <extensions>
          <ns3:TrackPointExtension>
            <ns3:hr>143</ns3:hr>
            <ns3:cad>0</ns3:cad>
          </ns3:TrackPointExtension>
        </extensions>
      </trkpt>
      <trkpt lat="45.3310498036444187164306640625" lon="-70.8164916001260280609130859375">
        <ele>884.79998779296875</ele>
        <time>2026-08-21T12:04:37.000Z</time>
        <extensions>
          <ns3:TrackPointExtension>
            <ns3:hr>143</ns3:hr>
            <ns3:cad>0</ns3:cad>
          </ns3:TrackPointExtension>
        </extensions>
      </trkpt>
      <trkpt lat="45.33103664405643939971923828125" lon="-70.81648112274706363677978515625">
        <ele>885</ele>
        <time>2026-08-21T12:04:38.000Z</time>
        <extensions>
          <ns3:TrackPointExtension>
            <ns3:hr>144</ns3:hr>
            <ns3:cad>0</ns3:cad>
          </ns3:TrackPointExtension>
        </extensions>
      </trkpt>
      <trkpt lat="45.33102340064942836761474609375" lon="-70.81647391431033611297607421875">
        <ele>885</ele>
        <time>2026-08-21T12:04:39.000Z</time>
        <extensions>
          <ns3:TrackPointExtension>
            <ns3:hr>144</ns3:hr>
            <ns3:cad>0</ns3:cad>
          </ns3:TrackPointExtension>
        </extensions>
      </trkpt>
      <trkpt lat="45.331016443669795989990234375" lon="-70.81646922044456005096435546875">
        <ele>885.20001220703125</ele>
        <time>2026-08-21T12:04:40.000Z</time>
        <extensions>
          <ns3:TrackPointExtension>
            <ns3:hr>144</ns3:hr>
            <ns3:cad>0</ns3:cad>
          </ns3:TrackPointExtension>
        </extensions>
      </trkpt>
      <trkpt lat="45.3309975005686283111572265625" lon="-70.81646402366459369659423828125">
        <ele>885.20001220703125</ele>
        <time>2026-08-21T12:04:41.000Z</time>
        <extensions>
          <ns3:TrackPointExtension>
            <ns3:hr>144</ns3:hr>
            <ns3:cad>0</ns3:cad>
          </ns3:TrackPointExtension>
        </extensions>
      </trkpt>
      <trkpt lat="45.33098836429417133331298828125" lon="-70.8164614252746105194091796875">
        <ele>885.4000244140625</ele>
        <time>2026-08-21T12:04:42.000Z</time>
        <extensions>
          <ns3:TrackPointExtension>
            <ns3:hr>144</ns3:hr>
            <ns3:cad>0</ns3:cad>
          </ns3:TrackPointExtension>
        </extensions>
      </trkpt>
      <trkpt lat="45.33097662962973117828369140625" lon="-70.8164597488939762115478515625">
        <ele>885.5999755859375</ele>
        <time>2026-08-21T12:04:43.000Z</time>
        <extensions>
          <ns3:TrackPointExtension>
            <ns3:hr>145</ns3:hr>
            <ns3:cad>0</ns3:cad>
          </ns3:TrackPointExtension>
        </extensions>
      </trkpt>
      <trkpt lat="45.33096187748014926910400390625" lon="-70.8164607547223567962646484375">
        <ele>886</ele>
        <time>2026-08-21T12:04:44.000Z</time>
        <extensions>
          <ns3:TrackPointExtension>
            <ns3:hr>145</ns3:hr>
            <ns3:cad>0</ns3:cad>
          </ns3:TrackPointExtension>
        </extensions>
      </trkpt>
      <trkpt lat="45.33094863407313823699951171875" lon="-70.81645430065691471099853515625">
        <ele>886.20001220703125</ele>
        <time>2026-08-21T12:04:45.000Z</time>
        <extensions>
          <ns3:TrackPointExtension>
            <ns3:hr>146</ns3:hr>
            <ns3:cad>0</ns3:cad>
          </ns3:TrackPointExtension>
        </extensions>
      </trkpt>
      <trkpt lat="45.33093790523707866668701171875" lon="-70.81644977442920207977294921875">
        <ele>886.4000244140625</ele>
        <time>2026-08-21T12:04:46.000Z</time>
        <extensions>
          <ns3:TrackPointExtension>
            <ns3:hr>146</ns3:hr>
            <ns3:cad>0</ns3:cad>
          </ns3:TrackPointExtension>
        </extensions>
      </trkpt>
      <trkpt lat="45.33092499710619449615478515625" lon="-70.81644357182085514068603515625">
        <ele>886.5999755859375</ele>
        <time>2026-08-21T12:04:47.000Z</time>
        <extensions>
          <ns3:TrackPointExtension>
            <ns3:hr>146</ns3:hr>
            <ns3:cad>55</ns3:cad>
          </ns3:TrackPointExtension>
        </extensions>
      </trkpt>
      <trkpt lat="45.33091418445110321044921875" lon="-70.8164443261921405792236328125">
        <ele>886.79998779296875</ele>
        <time>2026-08-21T12:04:48.000Z</time>
        <extensions>
          <ns3:TrackPointExtension>
            <ns3:hr>147</ns3:hr>
            <ns3:cad>55</ns3:cad>
          </ns3:TrackPointExtension>
        </extensions>
      </trkpt>
      <trkpt lat="45.330906473100185394287109375" lon="-70.81644441001117229461669921875">
        <ele>887</ele>
        <time>2026-08-21T12:04:49.000Z</time>
        <extensions>
          <ns3:TrackPointExtension>
            <ns3:hr>147</ns3:hr>
            <ns3:cad>51</ns3:cad>
          </ns3:TrackPointExtension>
        </extensions>
      </trkpt>
      <trkpt lat="45.3308935649693012237548828125" lon="-70.8164399676024913787841796875">
        <ele>887.20001220703125</ele>
        <time>2026-08-21T12:04:50.000Z</time>
        <extensions>
          <ns3:TrackPointExtension>
            <ns3:hr>147</ns3:hr>
            <ns3:cad>51</ns3:cad>
          </ns3:TrackPointExtension>
        </extensions>
      </trkpt>
      <trkpt lat="45.3308814950287342071533203125" lon="-70.8164372853934764862060546875">
        <ele>887.4000244140625</ele>
        <time>2026-08-21T12:04:51.000Z</time>
        <extensions>
          <ns3:TrackPointExtension>
            <ns3:hr>146</ns3:hr>
            <ns3:cad>51</ns3:cad>
          </ns3:TrackPointExtension>
        </extensions>
      </trkpt>
      <trkpt lat="45.33087017945945262908935546875" lon="-70.816437117755413055419921875">
        <ele>887.5999755859375</ele>
        <time>2026-08-21T12:04:52.000Z</time>
        <extensions>
          <ns3:TrackPointExtension>
            <ns3:hr>147</ns3:hr>
            <ns3:cad>52</ns3:cad>
          </ns3:TrackPointExtension>
        </extensions>
      </trkpt>
      <trkpt lat="45.33085894770920276641845703125" lon="-70.8164258860051631927490234375">
        <ele>887.5999755859375</ele>
        <time>2026-08-21T12:04:53.000Z</time>
        <extensions>
          <ns3:TrackPointExtension>
            <ns3:hr>147</ns3:hr>
            <ns3:cad>52</ns3:cad>
          </ns3:TrackPointExtension>
        </extensions>
      </trkpt>
      <trkpt lat="45.33085073344409465789794921875" lon="-70.81641742028295993804931640625">
        <ele>887.79998779296875</ele>
        <time>2026-08-21T12:04:54.000Z</time>
        <extensions>
          <ns3:TrackPointExtension>
            <ns3:hr>148</ns3:hr>
            <ns3:cad>47</ns3:cad>
          </ns3:TrackPointExtension>
        </extensions>
      </trkpt>
      <trkpt lat="45.33084033988416194915771484375" lon="-70.81640870310366153717041015625">
        <ele>888</ele>
        <time>2026-08-21T12:04:55.000Z</time>
        <extensions>
          <ns3:TrackPointExtension>
            <ns3:hr>148</ns3:hr>
            <ns3:cad>0</ns3:cad>
          </ns3:TrackPointExtension>
        </extensions>
      </trkpt>
      <trkpt lat="45.3308342210948467254638671875" lon="-70.8163993991911411285400390625">
        <ele>888</ele>
        <time>2026-08-21T12:04:56.000Z</time>
        <extensions>
          <ns3:TrackPointExtension>
            <ns3:hr>148</ns3:hr>
            <ns3:cad>0</ns3:cad>
          </ns3:TrackPointExtension>
        </extensions>
      </trkpt>
      <trkpt lat="45.33083011396229267120361328125" lon="-70.8163864910602569580078125">
        <ele>888</ele>
        <time>2026-08-21T12:04:57.000Z</time>
        <extensions>
          <ns3:TrackPointExtension>
            <ns3:hr>147</ns3:hr>
            <ns3:cad>0</ns3:cad>
          </ns3:TrackPointExtension>
        </extensions>
      </trkpt>
      <trkpt lat="45.330821983516216278076171875" lon="-70.81636972725391387939453125">
        <ele>888</ele>
        <time>2026-08-21T12:04:58.000Z</time>
        <extensions>
          <ns3:TrackPointExtension>
            <ns3:hr>147</ns3:hr>
            <ns3:cad>0</ns3:cad>
          </ns3:TrackPointExtension>
        </extensions>
      </trkpt>
      <trkpt lat="45.33081217668950557708740234375" lon="-70.81635640002787113189697265625">
        <ele>888.20001220703125</ele>
        <time>2026-08-21T12:04:59.000Z</time>
        <extensions>
          <ns3:TrackPointExtension>
            <ns3:hr>146</ns3:hr>
            <ns3:cad>0</ns3:cad>
          </ns3:TrackPointExtension>
        </extensions>
      </trkpt>
      <trkpt lat="45.3308035433292388916015625" lon="-70.8163417316973209381103515625">
        <ele>888.20001220703125</ele>
        <time>2026-08-21T12:05:00.000Z</time>
        <extensions>
          <ns3:TrackPointExtension>
            <ns3:hr>146</ns3:hr>
            <ns3:cad>51</ns3:cad>
          </ns3:TrackPointExtension>
        </extensions>
      </trkpt>
      <trkpt lat="45.33079591579735279083251953125" lon="-70.8163283206522464752197265625">
        <ele>888.20001220703125</ele>
        <time>2026-08-21T12:05:01.000Z</time>
        <extensions>
          <ns3:TrackPointExtension>
            <ns3:hr>147</ns3:hr>
            <ns3:cad>51</ns3:cad>
          </ns3:TrackPointExtension>
        </extensions>
      </trkpt>
      <trkpt lat="45.33078803680837154388427734375" lon="-70.81631214357912540435791015625">
        <ele>888.20001220703125</ele>
        <time>2026-08-21T12:05:02.000Z</time>
        <extensions>
          <ns3:TrackPointExtension>
            <ns3:hr>147</ns3:hr>
            <ns3:cad>51</ns3:cad>
          </ns3:TrackPointExtension>
        </extensions>
      </trkpt>
      <trkpt lat="45.3307842649519443511962890625" lon="-70.816298313438892364501953125">
        <ele>888.4000244140625</ele>
        <time>2026-08-21T12:05:03.000Z</time>
        <extensions>
          <ns3:TrackPointExtension>
            <ns3:hr>147</ns3:hr>
            <ns3:cad>51</ns3:cad>
          </ns3:TrackPointExtension>
        </extensions>
      </trkpt>
      <trkpt lat="45.33077470958232879638671875" lon="-70.816274173557758331298828125">
        <ele>888.4000244140625</ele>
        <time>2026-08-21T12:05:04.000Z</time>
        <extensions>
          <ns3:TrackPointExtension>
            <ns3:hr>148</ns3:hr>
            <ns3:cad>51</ns3:cad>
          </ns3:TrackPointExtension>
        </extensions>
      </trkpt>
      <trkpt lat="45.33076976425945758819580078125" lon="-70.8162562362849712371826171875">
        <ele>888.4000244140625</ele>
        <time>2026-08-21T12:05:05.000Z</time>
        <extensions>
          <ns3:TrackPointExtension>
            <ns3:hr>149</ns3:hr>
            <ns3:cad>51</ns3:cad>
          </ns3:TrackPointExtension>
        </extensions>
      </trkpt>
      <trkpt lat="45.33076507039368152618408203125" lon="-70.8162481896579265594482421875">
        <ele>888.5999755859375</ele>
        <time>2026-08-21T12:05:06.000Z</time>
        <extensions>
          <ns3:TrackPointExtension>
            <ns3:hr>150</ns3:hr>
            <ns3:cad>0</ns3:cad>
          </ns3:TrackPointExtension>
        </extensions>
      </trkpt>
      <trkpt lat="45.3307621367275714874267578125" lon="-70.81622765399515628814697265625">
        <ele>888.5999755859375</ele>
        <time>2026-08-21T12:05:07.000Z</time>
        <extensions>
          <ns3:TrackPointExtension>
            <ns3:hr>150</ns3:hr>
            <ns3:cad>0</ns3:cad>
          </ns3:TrackPointExtension>
        </extensions>
      </trkpt>
      <trkpt lat="45.33076087944209575653076171875" lon="-70.816205441951751708984375">
        <ele>888.5999755859375</ele>
        <time>2026-08-21T12:05:08.000Z</time>
        <extensions>
          <ns3:TrackPointExtension>
            <ns3:hr>150</ns3:hr>
            <ns3:cad>0</ns3:cad>
          </ns3:TrackPointExtension>
        </extensions>
      </trkpt>
      <trkpt lat="45.33076121471822261810302734375" lon="-70.81618591211736202239990234375">
        <ele>888.4000244140625</ele>
        <time>2026-08-21T12:05:09.000Z</time>
        <extensions>
          <ns3:TrackPointExtension>
            <ns3:hr>149</ns3:hr>
            <ns3:cad>0</ns3:cad>
          </ns3:TrackPointExtension>
        </extensions>
      </trkpt>
      <trkpt lat="45.33075333572924137115478515625" lon="-70.81616847775876522064208984375">
        <ele>888.4000244140625</ele>
        <time>2026-08-21T12:05:10.000Z</time>
        <extensions>
          <ns3:TrackPointExtension>
            <ns3:hr>149</ns3:hr>
            <ns3:cad>0</ns3:cad>
          </ns3:TrackPointExtension>
        </extensions>
      </trkpt>
      <trkpt lat="45.3307457081973552703857421875" lon="-70.81614953465759754180908203125">
        <ele>888.4000244140625</ele>
        <time>2026-08-21T12:05:11.000Z</time>
        <extensions>
          <ns3:TrackPointExtension>
            <ns3:hr>148</ns3:hr>
            <ns3:cad>0</ns3:cad>
          </ns3:TrackPointExtension>
        </extensions>
      </trkpt>
      <trkpt lat="45.33073313534259796142578125" lon="-70.816125310957431793212890625">
        <ele>888.4000244140625</ele>
        <time>2026-08-21T12:05:12.000Z</time>
        <extensions>
          <ns3:TrackPointExtension>
            <ns3:hr>148</ns3:hr>
            <ns3:cad>0</ns3:cad>
          </ns3:TrackPointExtension>
        </extensions>
      </trkpt>
      <trkpt lat="45.33072081394493579864501953125" lon="-70.816104523837566375732421875">
        <ele>888.4000244140625</ele>
        <time>2026-08-21T12:05:13.000Z</time>
        <extensions>
          <ns3:TrackPointExtension>
            <ns3:hr>149</ns3:hr>
            <ns3:cad>0</ns3:cad>
          </ns3:TrackPointExtension>
        </extensions>
      </trkpt>
      <trkpt lat="45.330714024603366851806640625" lon="-70.8160942979156970977783203125">
        <ele>888.4000244140625</ele>
        <time>2026-08-21T12:05:14.000Z</time>
        <extensions>
          <ns3:TrackPointExtension>
            <ns3:hr>149</ns3:hr>
            <ns3:cad>62</ns3:cad>
          </ns3:TrackPointExtension>
        </extensions>
      </trkpt>
      <trkpt lat="45.33071435987949371337890625" lon="-70.81607745029032230377197265625">
        <ele>888.20001220703125</ele>
        <time>2026-08-21T12:05:15.000Z</time>
        <extensions>
          <ns3:TrackPointExtension>
            <ns3:hr>148</ns3:hr>
            <ns3:cad>62</ns3:cad>
          </ns3:TrackPointExtension>
        </extensions>
      </trkpt>
      <trkpt lat="45.330713689327239990234375" lon="-70.81605859100818634033203125">
        <ele>888.20001220703125</ele>
        <time>2026-08-21T12:05:16.000Z</time>
        <extensions>
          <ns3:TrackPointExtension>
            <ns3:hr>147</ns3:hr>
            <ns3:cad>62</ns3:cad>
          </ns3:TrackPointExtension>
        </extensions>
      </trkpt>
      <trkpt lat="45.33070807345211505889892578125" lon="-70.8160351216793060302734375">
        <ele>888</ele>
        <time>2026-08-21T12:05:17.000Z</time>
        <extensions>
          <ns3:TrackPointExtension>
            <ns3:hr>147</ns3:hr>
            <ns3:cad>62</ns3:cad>
          </ns3:TrackPointExtension>
        </extensions>
      </trkpt>
      <trkpt lat="45.33070304431021213531494140625" lon="-70.816016681492328643798828125">
        <ele>888</ele>
        <time>2026-08-21T12:05:18.000Z</time>
        <extensions>
          <ns3:TrackPointExtension>
            <ns3:hr>146</ns3:hr>
            <ns3:cad>62</ns3:cad>
          </ns3:TrackPointExtension>
        </extensions>
      </trkpt>
      <trkpt lat="45.33069617114961147308349609375" lon="-70.81598759628832340240478515625">
        <ele>887.79998779296875</ele>
        <time>2026-08-21T12:05:19.000Z</time>
        <extensions>
          <ns3:TrackPointExtension>
            <ns3:hr>146</ns3:hr>
            <ns3:cad>62</ns3:cad>
          </ns3:TrackPointExtension>
        </extensions>
      </trkpt>
      <trkpt lat="45.33068611286580562591552734375" lon="-70.81596647389233112335205078125">
        <ele>887.5999755859375</ele>
        <time>2026-08-21T12:05:20.000Z</time>
        <extensions>
          <ns3:TrackPointExtension>
            <ns3:hr>144</ns3:hr>
            <ns3:cad>62</ns3:cad>
          </ns3:TrackPointExtension>
        </extensions>
      </trkpt>
      <trkpt lat="45.3306803293526172637939453125" lon="-70.81594518385827541351318359375">
        <ele>887.4000244140625</ele>
        <time>2026-08-21T12:05:21.000Z</time>
        <extensions>
          <ns3:TrackPointExtension>
            <ns3:hr>142</ns3:hr>
            <ns3:cad>66</ns3:cad>
          </ns3:TrackPointExtension>
        </extensions>
      </trkpt>
      <trkpt lat="45.33067638985812664031982421875" lon="-70.8159259893000125885009765625">
        <ele>887.4000244140625</ele>
        <time>2026-08-21T12:05:22.000Z</time>
        <extensions>
          <ns3:TrackPointExtension>
            <ns3:hr>142</ns3:hr>
            <ns3:cad>66</ns3:cad>
          </ns3:TrackPointExtension>
        </extensions>
      </trkpt>
      <trkpt lat="45.33066867850720882415771484375" lon="-70.815900005400180816650390625">
        <ele>887.20001220703125</ele>
        <time>2026-08-21T12:05:23.000Z</time>
        <extensions>
          <ns3:TrackPointExtension>
            <ns3:hr>142</ns3:hr>
            <ns3:cad>66</ns3:cad>
          </ns3:TrackPointExtension>
        </extensions>
      </trkpt>
      <trkpt lat="45.33066063188016414642333984375" lon="-70.81587796099483966827392578125">
        <ele>887.20001220703125</ele>
        <time>2026-08-21T12:05:24.000Z</time>
        <extensions>
          <ns3:TrackPointExtension>
            <ns3:hr>141</ns3:hr>
            <ns3:cad>0</ns3:cad>
          </ns3:TrackPointExtension>
        </extensions>
      </trkpt>
      <trkpt lat="45.330658368766307830810546875" lon="-70.8158609457314014434814453125">
        <ele>887</ele>
        <time>2026-08-21T12:05:25.000Z</time>
        <extensions>
          <ns3:TrackPointExtension>
            <ns3:hr>141</ns3:hr>
            <ns3:cad>0</ns3:cad>
          </ns3:TrackPointExtension>
        </extensions>
      </trkpt>
      <trkpt lat="45.33065878786146640777587890625" lon="-70.815840996801853179931640625">
        <ele>887</ele>
        <time>2026-08-21T12:05:26.000Z</time>
        <extensions>
          <ns3:TrackPointExtension>
            <ns3:hr>141</ns3:hr>
            <ns3:cad>0</ns3:cad>
          </ns3:TrackPointExtension>
        </extensions>
      </trkpt>
      <trkpt lat="45.330655686557292938232421875" lon="-70.8158217184245586395263671875">
        <ele>887</ele>
        <time>2026-08-21T12:05:27.000Z</time>
        <extensions>
          <ns3:TrackPointExtension>
            <ns3:hr>141</ns3:hr>
            <ns3:cad>0</ns3:cad>
          </ns3:TrackPointExtension>
        </extensions>
      </trkpt>
      <trkpt lat="45.33065669238567352294921875" lon="-70.8158017694950103759765625">
        <ele>887</ele>
        <time>2026-08-21T12:05:28.000Z</time>
        <extensions>
          <ns3:TrackPointExtension>
            <ns3:hr>140</ns3:hr>
            <ns3:cad>62</ns3:cad>
          </ns3:TrackPointExtension>
        </extensions>
      </trkpt>
      <trkpt lat="45.330655686557292938232421875" lon="-70.815773941576480865478515625">
        <ele>887.20001220703125</ele>
        <time>2026-08-21T12:05:29.000Z</time>
        <extensions>
          <ns3:TrackPointExtension>
            <ns3:hr>140</ns3:hr>
            <ns3:cad>62</ns3:cad>
          </ns3:TrackPointExtension>
        </extensions>
      </trkpt>
      <trkpt lat="45.33065811730921268463134765625" lon="-70.815757177770137786865234375">
        <ele>887.4000244140625</ele>
        <time>2026-08-21T12:05:30.000Z</time>
        <extensions>
          <ns3:TrackPointExtension>
            <ns3:hr>140</ns3:hr>
            <ns3:cad>62</ns3:cad>
          </ns3:TrackPointExtension>
        </extensions>
      </trkpt>
      <trkpt lat="45.33065392635762691497802734375" lon="-70.81573194824159145355224609375">
        <ele>887.5999755859375</ele>
        <time>2026-08-21T12:05:31.000Z</time>
        <extensions>
          <ns3:TrackPointExtension>
            <ns3:hr>139</ns3:hr>
            <ns3:cad>62</ns3:cad>
          </ns3:TrackPointExtension>
        </extensions>
      </trkpt>
      <trkpt lat="45.330649651587009429931640625" lon="-70.81570881418883800506591796875">
        <ele>887.5999755859375</ele>
        <time>2026-08-21T12:05:32.000Z</time>
        <extensions>
          <ns3:TrackPointExtension>
            <ns3:hr>139</ns3:hr>
            <ns3:cad>62</ns3:cad>
          </ns3:TrackPointExtension>
        </extensions>
      </trkpt>
      <trkpt lat="45.33064571209251880645751953125" lon="-70.8156889490783214569091796875">
        <ele>887.4000244140625</ele>
        <time>2026-08-21T12:05:33.000Z</time>
        <extensions>
          <ns3:TrackPointExtension>
            <ns3:hr>139</ns3:hr>
            <ns3:cad>0</ns3:cad>
          </ns3:TrackPointExtension>
        </extensions>
      </trkpt>
      <trkpt lat="45.330643616616725921630859375" lon="-70.81566656939685344696044921875">
        <ele>887.20001220703125</ele>
        <time>2026-08-21T12:05:34.000Z</time>
        <extensions>
          <ns3:TrackPointExtension>
            <ns3:hr>138</ns3:hr>
            <ns3:cad>0</ns3:cad>
          </ns3:TrackPointExtension>
        </extensions>
      </trkpt>
      <trkpt lat="45.33063657581806182861328125" lon="-70.81564846448600292205810546875">
        <ele>887.20001220703125</ele>
        <time>2026-08-21T12:05:35.000Z</time>
        <extensions>
          <ns3:TrackPointExtension>
            <ns3:hr>138</ns3:hr>
            <ns3:cad>16</ns3:cad>
          </ns3:TrackPointExtension>
        </extensions>
      </trkpt>
      <trkpt lat="45.330631546676158905029296875" lon="-70.81563069485127925872802734375">
        <ele>887.20001220703125</ele>
        <time>2026-08-21T12:05:36.000Z</time>
        <extensions>
          <ns3:TrackPointExtension>
            <ns3:hr>138</ns3:hr>
            <ns3:cad>16</ns3:cad>
          </ns3:TrackPointExtension>
        </extensions>
      </trkpt>
      <trkpt lat="45.33061989583075046539306640625" lon="-70.81560806371271610260009765625">
        <ele>887.4000244140625</ele>
        <time>2026-08-21T12:05:37.000Z</time>
        <extensions>
          <ns3:TrackPointExtension>
            <ns3:hr>138</ns3:hr>
            <ns3:cad>16</ns3:cad>
          </ns3:TrackPointExtension>
        </extensions>
      </trkpt>
      <trkpt lat="45.33061218447983264923095703125" lon="-70.81559783779084682464599609375">
        <ele>887.5999755859375</ele>
        <time>2026-08-21T12:05:38.000Z</time>
        <extensions>
          <ns3:TrackPointExtension>
            <ns3:hr>137</ns3:hr>
            <ns3:cad>16</ns3:cad>
          </ns3:TrackPointExtension>
        </extensions>
      </trkpt>
      <trkpt lat="45.3306048922240734100341796875" lon="-70.8155846782028675079345703125">
        <ele>887.5999755859375</ele>
        <time>2026-08-21T12:05:39.000Z</time>
        <extensions>
          <ns3:TrackPointExtension>
            <ns3:hr>136</ns3:hr>
            <ns3:cad>16</ns3:cad>
          </ns3:TrackPointExtension>
        </extensions>
      </trkpt>
      <trkpt lat="45.33059634268283843994140625" lon="-70.81556372344493865966796875">
        <ele>887.5999755859375</ele>
        <time>2026-08-21T12:05:40.000Z</time>
        <extensions>
          <ns3:TrackPointExtension>
            <ns3:hr>136</ns3:hr>
            <ns3:cad>0</ns3:cad>
          </ns3:TrackPointExtension>
        </extensions>
      </trkpt>
      <trkpt lat="45.33058871515095233917236328125" lon="-70.8155434392392635345458984375">
        <ele>887.4000244140625</ele>
        <time>2026-08-21T12:05:41.000Z</time>
        <extensions>
          <ns3:TrackPointExtension>
            <ns3:hr>136</ns3:hr>
            <ns3:cad>0</ns3:cad>
          </ns3:TrackPointExtension>
        </extensions>
      </trkpt>
      <trkpt lat="45.3305794112384319305419921875" lon="-70.81552608869969844818115234375">
        <ele>887.20001220703125</ele>
        <time>2026-08-21T12:05:42.000Z</time>
        <extensions>
          <ns3:TrackPointExtension>
            <ns3:hr>135</ns3:hr>
            <ns3:cad>0</ns3:cad>
          </ns3:TrackPointExtension>
        </extensions>
      </trkpt>
      <trkpt lat="45.33057580702006816864013671875" lon="-70.81550781615078449249267578125">
        <ele>887</ele>
        <time>2026-08-21T12:05:43.000Z</time>
        <extensions>
          <ns3:TrackPointExtension>
            <ns3:hr>135</ns3:hr>
            <ns3:cad>0</ns3:cad>
          </ns3:TrackPointExtension>
        </extensions>
      </trkpt>
      <trkpt lat="45.3305703587830066680908203125" lon="-70.815487615764141082763671875">
        <ele>886.79998779296875</ele>
        <time>2026-08-21T12:05:44.000Z</time>
        <extensions>
          <ns3:TrackPointExtension>
            <ns3:hr>136</ns3:hr>
            <ns3:cad>0</ns3:cad>
          </ns3:TrackPointExtension>
        </extensions>
      </trkpt>
      <trkpt lat="45.33056013286113739013671875" lon="-70.81546221859753131866455078125">
        <ele>886.5999755859375</ele>
        <time>2026-08-21T12:05:45.000Z</time>
        <extensions>
          <ns3:TrackPointExtension>
            <ns3:hr>135</ns3:hr>
            <ns3:cad>0</ns3:cad>
          </ns3:TrackPointExtension>
        </extensions>
      </trkpt>
      <trkpt lat="45.33055501990020275115966796875" lon="-70.815445370972156524658203125">
        <ele>886.5999755859375</ele>
        <time>2026-08-21T12:05:46.000Z</time>
        <extensions>
          <ns3:TrackPointExtension>
            <ns3:hr>135</ns3:hr>
            <ns3:cad>0</ns3:cad>
          </ns3:TrackPointExtension>
        </extensions>
      </trkpt>
      <trkpt lat="45.3305489011108875274658203125" lon="-70.8154187165200710296630859375">
        <ele>886.5999755859375</ele>
        <time>2026-08-21T12:05:47.000Z</time>
        <extensions>
          <ns3:TrackPointExtension>
            <ns3:hr>135</ns3:hr>
            <ns3:cad>0</ns3:cad>
          </ns3:TrackPointExtension>
        </extensions>
      </trkpt>
      <trkpt lat="45.33055149950087070465087890625" lon="-70.81540002487599849700927734375">
        <ele>886.5999755859375</ele>
        <time>2026-08-21T12:05:48.000Z</time>
        <extensions>
          <ns3:TrackPointExtension>
            <ns3:hr>136</ns3:hr>
            <ns3:cad>0</ns3:cad>
          </ns3:TrackPointExtension>
        </extensions>
      </trkpt>
      <trkpt lat="45.33055652864277362823486328125" lon="-70.8153761364519596099853515625">
        <ele>886.79998779296875</ele>
        <time>2026-08-21T12:05:49.000Z</time>
        <extensions>
          <ns3:TrackPointExtension>
            <ns3:hr>136</ns3:hr>
            <ns3:cad>0</ns3:cad>
          </ns3:TrackPointExtension>
        </extensions>
      </trkpt>
      <trkpt lat="45.33055971376597881317138671875" lon="-70.815358869731426239013671875">
        <ele>887</ele>
        <time>2026-08-21T12:05:50.000Z</time>
        <extensions>
          <ns3:TrackPointExtension>
            <ns3:hr>137</ns3:hr>
            <ns3:cad>0</ns3:cad>
          </ns3:TrackPointExtension>
        </extensions>
      </trkpt>
      <trkpt lat="45.33056725747883319854736328125" lon="-70.81534218974411487579345703125">
        <ele>887</ele>
        <time>2026-08-21T12:05:51.000Z</time>
        <extensions>
          <ns3:TrackPointExtension>
            <ns3:hr>137</ns3:hr>
            <ns3:cad>0</ns3:cad>
          </ns3:TrackPointExtension>
        </extensions>
      </trkpt>
      <trkpt lat="45.3305673412978649139404296875" lon="-70.815320648252964019775390625">
        <ele>887.20001220703125</ele>
        <time>2026-08-21T12:05:52.000Z</time>
        <extensions>
          <ns3:TrackPointExtension>
            <ns3:hr>137</ns3:hr>
            <ns3:cad>0</ns3:cad>
          </ns3:TrackPointExtension>
        </extensions>
      </trkpt>
      <trkpt lat="45.33056491054594516754150390625" lon="-70.81530799157917499542236328125">
        <ele>887.4000244140625</ele>
        <time>2026-08-21T12:05:53.000Z</time>
        <extensions>
          <ns3:TrackPointExtension>
            <ns3:hr>137</ns3:hr>
            <ns3:cad>0</ns3:cad>
          </ns3:TrackPointExtension>
        </extensions>
      </trkpt>
      <trkpt lat="45.33055837266147136688232421875" lon="-70.81529743038117885589599609375">
        <ele>887.4000244140625</ele>
        <time>2026-08-21T12:05:54.000Z</time>
        <extensions>
          <ns3:TrackPointExtension>
            <ns3:hr>137</ns3:hr>
            <ns3:cad>0</ns3:cad>
          </ns3:TrackPointExtension>
        </extensions>
      </trkpt>
      <trkpt lat="45.33055217005312442779541015625" lon="-70.81529189832508563995361328125">
        <ele>887.5999755859375</ele>
        <time>2026-08-21T12:05:55.000Z</time>
        <extensions>
          <ns3:TrackPointExtension>
            <ns3:hr>137</ns3:hr>
            <ns3:cad>0</ns3:cad>
          </ns3:TrackPointExtension>
        </extensions>
      </trkpt>
      <trkpt lat="45.33054999075829982757568359375" lon="-70.815287791192531585693359375">
        <ele>888</ele>
        <time>2026-08-21T12:05:56.000Z</time>
        <extensions>
          <ns3:TrackPointExtension>
            <ns3:hr>136</ns3:hr>
            <ns3:cad>0</ns3:cad>
          </ns3:TrackPointExtension>
        </extensions>
      </trkpt>
      <trkpt lat="45.33054680563509464263916015625" lon="-70.8152809180319309234619140625">
        <ele>888.20001220703125</ele>
        <time>2026-08-21T12:05:57.000Z</time>
        <extensions>
          <ns3:TrackPointExtension>
            <ns3:hr>136</ns3:hr>
            <ns3:cad>0</ns3:cad>
          </ns3:TrackPointExtension>
        </extensions>
      </trkpt>
      <trkpt lat="45.33054512925446033477783203125" lon="-70.8152745477855205535888671875">
        <ele>888.4000244140625</ele>
        <time>2026-08-21T12:05:58.000Z</time>
        <extensions>
          <ns3:TrackPointExtension>
            <ns3:hr>136</ns3:hr>
            <ns3:cad>0</ns3:cad>
          </ns3:TrackPointExtension>
        </extensions>
      </trkpt>
      <trkpt lat="45.3305465541779994964599609375" lon="-70.8152604661881923675537109375">
        <ele>888.5999755859375</ele>
        <time>2026-08-21T12:05:59.000Z</time>
        <extensions>
          <ns3:TrackPointExtension>
            <ns3:hr>136</ns3:hr>
            <ns3:cad>62</ns3:cad>
          </ns3:TrackPointExtension>
        </extensions>
      </trkpt>
      <trkpt lat="45.33054814673960208892822265625" lon="-70.8152494020760059356689453125">
        <ele>888.5999755859375</ele>
        <time>2026-08-21T12:06:00.000Z</time>
        <extensions>
          <ns3:TrackPointExtension>
            <ns3:hr>136</ns3:hr>
            <ns3:cad>62</ns3:cad>
          </ns3:TrackPointExtension>
        </extensions>
      </trkpt>
      <trkpt lat="45.3305445425212383270263671875" lon="-70.81523741595447063446044921875">
        <ele>888.4000244140625</ele>
        <time>2026-08-21T12:06:01.000Z</time>
        <extensions>
          <ns3:TrackPointExtension>
            <ns3:hr>135</ns3:hr>
            <ns3:cad>62</ns3:cad>
          </ns3:TrackPointExtension>
        </extensions>
      </trkpt>
      <trkpt lat="45.330535657703876495361328125" lon="-70.815230123698711395263671875">
        <ele>888.20001220703125</ele>
        <time>2026-08-21T12:06:02.000Z</time>
        <extensions>
          <ns3:TrackPointExtension>
            <ns3:hr>135</ns3:hr>
            <ns3:cad>62</ns3:cad>
          </ns3:TrackPointExtension>
        </extensions>
      </trkpt>
      <trkpt lat="45.33052735961973667144775390625" lon="-70.81522576510906219482421875">
        <ele>888</ele>
        <time>2026-08-21T12:06:03.000Z</time>
        <extensions>
          <ns3:TrackPointExtension>
            <ns3:hr>135</ns3:hr>
            <ns3:cad>62</ns3:cad>
          </ns3:TrackPointExtension>
        </extensions>
      </trkpt>
      <trkpt lat="45.33051528967916965484619140625" lon="-70.81521210260689258575439453125">
        <ele>887.79998779296875</ele>
        <time>2026-08-21T12:06:04.000Z</time>
        <extensions>
          <ns3:TrackPointExtension>
            <ns3:hr>135</ns3:hr>
            <ns3:cad>60</ns3:cad>
          </ns3:TrackPointExtension>
        </extensions>
      </trkpt>
      <trkpt lat="45.3305085003376007080078125" lon="-70.8151997812092304229736328125">
        <ele>887.79998779296875</ele>
        <time>2026-08-21T12:06:05.000Z</time>
        <extensions>
          <ns3:TrackPointExtension>
            <ns3:hr>136</ns3:hr>
            <ns3:cad>60</ns3:cad>
          </ns3:TrackPointExtension>
        </extensions>
      </trkpt>
      <trkpt lat="45.330498777329921722412109375" lon="-70.81518678925931453704833984375">
        <ele>887.79998779296875</ele>
        <time>2026-08-21T12:06:06.000Z</time>
        <extensions>
          <ns3:TrackPointExtension>
            <ns3:hr>136</ns3:hr>
            <ns3:cad>0</ns3:cad>
          </ns3:TrackPointExtension>
        </extensions>
      </trkpt>
      <trkpt lat="45.33048762939870357513427734375" lon="-70.81517480313777923583984375">
        <ele>887.79998779296875</ele>
        <time>2026-08-21T12:06:07.000Z</time>
        <extensions>
          <ns3:TrackPointExtension>
            <ns3:hr>137</ns3:hr>
            <ns3:cad>0</ns3:cad>
          </ns3:TrackPointExtension>
        </extensions>
      </trkpt>
      <trkpt lat="45.330476649105548858642578125" lon="-70.815162397921085357666015625">
        <ele>887.5999755859375</ele>
        <time>2026-08-21T12:06:08.000Z</time>
        <extensions>
          <ns3:TrackPointExtension>
            <ns3:hr>137</ns3:hr>
            <ns3:cad>0</ns3:cad>
          </ns3:TrackPointExtension>
        </extensions>
      </trkpt>
      <trkpt lat="45.33046365715563297271728515625" lon="-70.81514873541891574859619140625">
        <ele>887.4000244140625</ele>
        <time>2026-08-21T12:06:09.000Z</time>
        <extensions>
          <ns3:TrackPointExtension>
            <ns3:hr>137</ns3:hr>
            <ns3:cad>0</ns3:cad>
          </ns3:TrackPointExtension>
        </extensions>
      </trkpt>
      <trkpt lat="45.33045510761439800262451171875" lon="-70.81513532437384128570556640625">
        <ele>887.20001220703125</ele>
        <time>2026-08-21T12:06:10.000Z</time>
        <extensions>
          <ns3:TrackPointExtension>
            <ns3:hr>137</ns3:hr>
            <ns3:cad>0</ns3:cad>
          </ns3:TrackPointExtension>
        </extensions>
      </trkpt>
      <trkpt lat="45.33044354058802127838134765625" lon="-70.8151116035878658294677734375">
        <ele>886.79998779296875</ele>
        <time>2026-08-21T12:06:11.000Z</time>
        <extensions>
          <ns3:TrackPointExtension>
            <ns3:hr>136</ns3:hr>
            <ns3:cad>0</ns3:cad>
          </ns3:TrackPointExtension>
        </extensions>
      </trkpt>
      <trkpt lat="45.3304374217987060546875" lon="-70.81510062329471111297607421875">
        <ele>886.4000244140625</ele>
        <time>2026-08-21T12:06:12.000Z</time>
        <extensions>
          <ns3:TrackPointExtension>
            <ns3:hr>136</ns3:hr>
            <ns3:cad>0</ns3:cad>
          </ns3:TrackPointExtension>
        </extensions>
      </trkpt>
      <trkpt lat="45.3304308839142322540283203125" lon="-70.81508453004062175750732421875">
        <ele>886.20001220703125</ele>
        <time>2026-08-21T12:06:13.000Z</time>
        <extensions>
          <ns3:TrackPointExtension>
            <ns3:hr>137</ns3:hr>
            <ns3:cad>0</ns3:cad>
          </ns3:TrackPointExtension>
        </extensions>
      </trkpt>
      <trkpt lat="45.330421663820743560791015625" lon="-70.8150596357882022857666015625">
        <ele>885.79998779296875</ele>
        <time>2026-08-21T12:06:14.000Z</time>
        <extensions>
          <ns3:TrackPointExtension>
            <ns3:hr>137</ns3:hr>
            <ns3:cad>0</ns3:cad>
          </ns3:TrackPointExtension>
        </extensions>
      </trkpt>
      <trkpt lat="45.330414287745952606201171875" lon="-70.81504228524863719940185546875">
        <ele>885.5999755859375</ele>
        <time>2026-08-21T12:06:15.000Z</time>
        <extensions>
          <ns3:TrackPointExtension>
            <ns3:hr>137</ns3:hr>
            <ns3:cad>0</ns3:cad>
          </ns3:TrackPointExtension>
        </extensions>
      </trkpt>
      <trkpt lat="45.3304067440330982208251953125" lon="-70.8150261081755161285400390625">
        <ele>885.20001220703125</ele>
        <time>2026-08-21T12:06:16.000Z</time>
        <extensions>
          <ns3:TrackPointExtension>
            <ns3:hr>136</ns3:hr>
            <ns3:cad>46</ns3:cad>
          </ns3:TrackPointExtension>
        </extensions>
      </trkpt>
      <trkpt lat="45.33039785921573638916015625" lon="-70.81500842235982418060302734375">
        <ele>885</ele>
        <time>2026-08-21T12:06:17.000Z</time>
        <extensions>
          <ns3:TrackPointExtension>
            <ns3:hr>137</ns3:hr>
            <ns3:cad>46</ns3:cad>
          </ns3:TrackPointExtension>
        </extensions>
      </trkpt>
      <trkpt lat="45.3303923271596431732177734375" lon="-70.81499534659087657928466796875">
        <ele>884.79998779296875</ele>
        <time>2026-08-21T12:06:18.000Z</time>
        <extensions>
          <ns3:TrackPointExtension>
            <ns3:hr>137</ns3:hr>
            <ns3:cad>46</ns3:cad>
          </ns3:TrackPointExtension>
        </extensions>
      </trkpt>
      <trkpt lat="45.3303839452564716339111328125" lon="-70.8149783313274383544921875">
        <ele>884.5999755859375</ele>
        <time>2026-08-21T12:06:19.000Z</time>
        <extensions>
          <ns3:TrackPointExtension>
            <ns3:hr>137</ns3:hr>
            <ns3:cad>46</ns3:cad>
          </ns3:TrackPointExtension>
        </extensions>
      </trkpt>
      <trkpt lat="45.33037765882909297943115234375" lon="-70.81496936269104480743408203125">
        <ele>884.4000244140625</ele>
        <time>2026-08-21T12:06:20.000Z</time>
        <extensions>
          <ns3:TrackPointExtension>
            <ns3:hr>137</ns3:hr>
            <ns3:cad>46</ns3:cad>
          </ns3:TrackPointExtension>
        </extensions>
      </trkpt>
      <trkpt lat="45.33037028275430202484130859375" lon="-70.81496802158653736114501953125">
        <ele>884.4000244140625</ele>
        <time>2026-08-21T12:06:21.000Z</time>
        <extensions>
          <ns3:TrackPointExtension>
            <ns3:hr>136</ns3:hr>
            <ns3:cad>48</ns3:cad>
          </ns3:TrackPointExtension>
        </extensions>
      </trkpt>
      <trkpt lat="45.33035854808986186981201171875" lon="-70.81495980732142925262451171875">
        <ele>884.5999755859375</ele>
        <time>2026-08-21T12:06:22.000Z</time>
        <extensions>
          <ns3:TrackPointExtension>
            <ns3:hr>136</ns3:hr>
            <ns3:cad>48</ns3:cad>
          </ns3:TrackPointExtension>
        </extensions>
      </trkpt>
      <trkpt lat="45.330343544483184814453125" lon="-70.81496022641658782958984375">
        <ele>884.79998779296875</ele>
        <time>2026-08-21T12:06:23.000Z</time>
        <extensions>
          <ns3:TrackPointExtension>
            <ns3:hr>136</ns3:hr>
            <ns3:cad>48</ns3:cad>
          </ns3:TrackPointExtension>
        </extensions>
      </trkpt>
      <trkpt lat="45.3303323127329349517822265625" lon="-70.81495913676917552947998046875">
        <ele>885</ele>
        <time>2026-08-21T12:06:24.000Z</time>
        <extensions>
          <ns3:TrackPointExtension>
            <ns3:hr>136</ns3:hr>
            <ns3:cad>48</ns3:cad>
          </ns3:TrackPointExtension>
        </extensions>
      </trkpt>
      <trkpt lat="45.330319069325923919677734375" lon="-70.81495544873178005218505859375">
        <ele>885.20001220703125</ele>
        <time>2026-08-21T12:06:25.000Z</time>
        <extensions>
          <ns3:TrackPointExtension>
            <ns3:hr>135</ns3:hr>
            <ns3:cad>48</ns3:cad>
          </ns3:TrackPointExtension>
        </extensions>
      </trkpt>
      <trkpt lat="45.3303004615008831024169921875" lon="-70.81495226360857486724853515625">
        <ele>885.20001220703125</ele>
        <time>2026-08-21T12:06:26.000Z</time>
        <extensions>
          <ns3:TrackPointExtension>
            <ns3:hr>135</ns3:hr>
            <ns3:cad>47</ns3:cad>
          </ns3:TrackPointExtension>
        </extensions>
      </trkpt>
      <trkpt lat="45.3302867151796817779541015625" lon="-70.8149506710469722747802734375">
        <ele>885.20001220703125</ele>
        <time>2026-08-21T12:06:27.000Z</time>
        <extensions>
          <ns3:TrackPointExtension>
            <ns3:hr>135</ns3:hr>
            <ns3:cad>47</ns3:cad>
          </ns3:TrackPointExtension>
        </extensions>
      </trkpt>
      <trkpt lat="45.3302706219255924224853515625" lon="-70.8149456419050693511962890625">
        <ele>885.4000244140625</ele>
        <time>2026-08-21T12:06:28.000Z</time>
        <extensions>
          <ns3:TrackPointExtension>
            <ns3:hr>135</ns3:hr>
            <ns3:cad>47</ns3:cad>
          </ns3:TrackPointExtension>
        </extensions>
      </trkpt>
      <trkpt lat="45.33026265911757946014404296875" lon="-70.8149406127631664276123046875">
        <ele>885.4000244140625</ele>
        <time>2026-08-21T12:06:29.000Z</time>
        <extensions>
          <ns3:TrackPointExtension>
            <ns3:hr>134</ns3:hr>
            <ns3:cad>47</ns3:cad>
          </ns3:TrackPointExtension>
        </extensions>
      </trkpt>
      <trkpt lat="45.3302528522908687591552734375" lon="-70.81493030302226543426513671875">
        <ele>885.5999755859375</ele>
        <time>2026-08-21T12:06:30.000Z</time>
        <extensions>
          <ns3:TrackPointExtension>
            <ns3:hr>134</ns3:hr>
            <ns3:cad>47</ns3:cad>
          </ns3:TrackPointExtension>
        </extensions>
      </trkpt>
      <trkpt lat="45.33024354837834835052490234375" lon="-70.81491622142493724822998046875">
        <ele>885.79998779296875</ele>
        <time>2026-08-21T12:06:31.000Z</time>
        <extensions>
          <ns3:TrackPointExtension>
            <ns3:hr>133</ns3:hr>
            <ns3:cad>47</ns3:cad>
          </ns3:TrackPointExtension>
        </extensions>
      </trkpt>
      <trkpt lat="45.330236591398715972900390625" lon="-70.81489928998053073883056640625">
        <ele>885.79998779296875</ele>
        <time>2026-08-21T12:06:32.000Z</time>
        <extensions>
          <ns3:TrackPointExtension>
            <ns3:hr>133</ns3:hr>
            <ns3:cad>47</ns3:cad>
          </ns3:TrackPointExtension>
        </extensions>
      </trkpt>
      <trkpt lat="45.33022929914295673370361328125" lon="-70.8148916624486446380615234375">
        <ele>886</ele>
        <time>2026-08-21T12:06:33.000Z</time>
        <extensions>
          <ns3:TrackPointExtension>
            <ns3:hr>133</ns3:hr>
            <ns3:cad>47</ns3:cad>
          </ns3:TrackPointExtension>
        </extensions>
      </trkpt>
      <trkpt lat="45.3302159719169139862060546875" lon="-70.8148742280900478363037109375">
        <ele>886.20001220703125</ele>
        <time>2026-08-21T12:06:34.000Z</time>
        <extensions>
          <ns3:TrackPointExtension>
            <ns3:hr>132</ns3:hr>
            <ns3:cad>47</ns3:cad>
          </ns3:TrackPointExtension>
        </extensions>
      </trkpt>
      <trkpt lat="45.33020717091858386993408203125" lon="-70.8148681931197643280029296875">
        <ele>886.4000244140625</ele>
        <time>2026-08-21T12:06:35.000Z</time>
        <extensions>
          <ns3:TrackPointExtension>
            <ns3:hr>131</ns3:hr>
            <ns3:cad>0</ns3:cad>
          </ns3:TrackPointExtension>
        </extensions>
      </trkpt>
      <trkpt lat="45.33019543625414371490478515625" lon="-70.8148514293134212493896484375">
        <ele>886.5999755859375</ele>
        <time>2026-08-21T12:06:36.000Z</time>
        <extensions>
          <ns3:TrackPointExtension>
            <ns3:hr>132</ns3:hr>
            <ns3:cad>0</ns3:cad>
          </ns3:TrackPointExtension>
        </extensions>
      </trkpt>
      <trkpt lat="45.330191664397716522216796875" lon="-70.81484631635248661041259765625">
        <ele>887</ele>
        <time>2026-08-21T12:06:37.000Z</time>
        <extensions>
          <ns3:TrackPointExtension>
            <ns3:hr>132</ns3:hr>
            <ns3:cad>0</ns3:cad>
          </ns3:TrackPointExtension>
        </extensions>
      </trkpt>
      <trkpt lat="45.33017951063811779022216796875" lon="-70.81483005546033382415771484375">
        <ele>887.20001220703125</ele>
        <time>2026-08-21T12:06:38.000Z</time>
        <extensions>
          <ns3:TrackPointExtension>
            <ns3:hr>132</ns3:hr>
            <ns3:cad>0</ns3:cad>
          </ns3:TrackPointExtension>
        </extensions>
      </trkpt>
      <trkpt lat="45.330174230039119720458984375" lon="-70.8148215897381305694580078125">
        <ele>887.4000244140625</ele>
        <time>2026-08-21T12:06:39.000Z</time>
        <extensions>
          <ns3:TrackPointExtension>
            <ns3:hr>131</ns3:hr>
            <ns3:cad>0</ns3:cad>
          </ns3:TrackPointExtension>
        </extensions>
      </trkpt>
      <trkpt lat="45.3301683627068996429443359375" lon="-70.81480197608470916748046875">
        <ele>887.5999755859375</ele>
        <time>2026-08-21T12:06:40.000Z</time>
        <extensions>
          <ns3:TrackPointExtension>
            <ns3:hr>132</ns3:hr>
            <ns3:cad>0</ns3:cad>
          </ns3:TrackPointExtension>
        </extensions>
      </trkpt>
      <trkpt lat="45.3301633335649967193603515625" lon="-70.81479527056217193603515625">
        <ele>888</ele>
        <time>2026-08-21T12:06:41.000Z</time>
        <extensions>
          <ns3:TrackPointExtension>
            <ns3:hr>132</ns3:hr>
            <ns3:cad>0</ns3:cad>
          </ns3:TrackPointExtension>
        </extensions>
      </trkpt>
      <trkpt lat="45.3301606513559818267822265625" lon="-70.81478076986968517303466796875">
        <ele>888.20001220703125</ele>
        <time>2026-08-21T12:06:42.000Z</time>
        <extensions>
          <ns3:TrackPointExtension>
            <ns3:hr>132</ns3:hr>
            <ns3:cad>0</ns3:cad>
          </ns3:TrackPointExtension>
        </extensions>
      </trkpt>
      <trkpt lat="45.330158807337284088134765625" lon="-70.81476316787302494049072265625">
        <ele>888.4000244140625</ele>
        <time>2026-08-21T12:06:43.000Z</time>
        <extensions>
          <ns3:TrackPointExtension>
            <ns3:hr>133</ns3:hr>
            <ns3:cad>0</ns3:cad>
          </ns3:TrackPointExtension>
        </extensions>
      </trkpt>
      <trkpt lat="45.33015134744346141815185546875" lon="-70.8147528581321239471435546875">
        <ele>888.5999755859375</ele>
        <time>2026-08-21T12:06:44.000Z</time>
        <extensions>
          <ns3:TrackPointExtension>
            <ns3:hr>135</ns3:hr>
            <ns3:cad>0</ns3:cad>
          </ns3:TrackPointExtension>
        </extensions>
      </trkpt>
      <trkpt lat="45.33014346845448017120361328125" lon="-70.81473986618220806121826171875">
        <ele>888.79998779296875</ele>
        <time>2026-08-21T12:06:45.000Z</time>
        <extensions>
          <ns3:TrackPointExtension>
            <ns3:hr>136</ns3:hr>
            <ns3:cad>0</ns3:cad>
          </ns3:TrackPointExtension>
        </extensions>
      </trkpt>
      <trkpt lat="45.33013760112226009368896484375" lon="-70.81472595222294330596923828125">
        <ele>889</ele>
        <time>2026-08-21T12:06:46.000Z</time>
        <extensions>
          <ns3:TrackPointExtension>
            <ns3:hr>138</ns3:hr>
            <ns3:cad>0</ns3:cad>
          </ns3:TrackPointExtension>
        </extensions>
      </trkpt>
      <trkpt lat="45.33013039268553256988525390625" lon="-70.81470885314047336578369140625">
        <ele>889.20001220703125</ele>
        <time>2026-08-21T12:06:47.000Z</time>
        <extensions>
          <ns3:TrackPointExtension>
            <ns3:hr>139</ns3:hr>
            <ns3:cad>0</ns3:cad>
          </ns3:TrackPointExtension>
        </extensions>
      </trkpt>
      <trkpt lat="45.3301194123923778533935546875" lon="-70.814694352447986602783203125">
        <ele>889.4000244140625</ele>
        <time>2026-08-21T12:06:48.000Z</time>
        <extensions>
          <ns3:TrackPointExtension>
            <ns3:hr>139</ns3:hr>
            <ns3:cad>0</ns3:cad>
          </ns3:TrackPointExtension>
        </extensions>
      </trkpt>
      <trkpt lat="45.33011279068887233734130859375" lon="-70.81468337215483188629150390625">
        <ele>889.5999755859375</ele>
        <time>2026-08-21T12:06:49.000Z</time>
        <extensions>
          <ns3:TrackPointExtension>
            <ns3:hr>139</ns3:hr>
            <ns3:cad>0</ns3:cad>
          </ns3:TrackPointExtension>
        </extensions>
      </trkpt>
      <trkpt lat="45.330100469291210174560546875" lon="-70.81467566080391407012939453125">
        <ele>889.79998779296875</ele>
        <time>2026-08-21T12:06:50.000Z</time>
        <extensions>
          <ns3:TrackPointExtension>
            <ns3:hr>140</ns3:hr>
            <ns3:cad>50</ns3:cad>
          </ns3:TrackPointExtension>
        </extensions>
      </trkpt>
      <trkpt lat="45.3300865553319454193115234375" lon="-70.81466258503496646881103515625">
        <ele>890</ele>
        <time>2026-08-21T12:06:51.000Z</time>
        <extensions>
          <ns3:TrackPointExtension>
            <ns3:hr>140</ns3:hr>
            <ns3:cad>50</ns3:cad>
          </ns3:TrackPointExtension>
        </extensions>
      </trkpt>
      <trkpt lat="45.33007624559104442596435546875" lon="-70.8146556280553340911865234375">
        <ele>890.4000244140625</ele>
        <time>2026-08-21T12:06:52.000Z</time>
        <extensions>
          <ns3:TrackPointExtension>
            <ns3:hr>141</ns3:hr>
            <ns3:cad>50</ns3:cad>
          </ns3:TrackPointExtension>
        </extensions>
      </trkpt>
      <trkpt lat="45.33006886951625347137451171875" lon="-70.81465185619890689849853515625">
        <ele>890.5999755859375</ele>
        <time>2026-08-21T12:06:53.000Z</time>
        <extensions>
          <ns3:TrackPointExtension>
            <ns3:hr>140</ns3:hr>
            <ns3:cad>50</ns3:cad>
          </ns3:TrackPointExtension>
        </extensions>
      </trkpt>
      <trkpt lat="45.33006400801241397857666015625" lon="-70.814644396305084228515625">
        <ele>890.5999755859375</ele>
        <time>2026-08-21T12:06:54.000Z</time>
        <extensions>
          <ns3:TrackPointExtension>
            <ns3:hr>140</ns3:hr>
            <ns3:cad>50</ns3:cad>
          </ns3:TrackPointExtension>
        </extensions>
      </trkpt>
      <trkpt lat="45.33006015233695507049560546875" lon="-70.81463567912578582763671875">
        <ele>890.79998779296875</ele>
        <time>2026-08-21T12:06:55.000Z</time>
        <extensions>
          <ns3:TrackPointExtension>
            <ns3:hr>140</ns3:hr>
            <ns3:cad>50</ns3:cad>
          </ns3:TrackPointExtension>
        </extensions>
      </trkpt>
      <trkpt lat="45.330053865909576416015625" lon="-70.81461363472044467926025390625">
        <ele>891</ele>
        <time>2026-08-21T12:06:56.000Z</time>
        <extensions>
          <ns3:TrackPointExtension>
            <ns3:hr>140</ns3:hr>
            <ns3:cad>50</ns3:cad>
          </ns3:TrackPointExtension>
        </extensions>
      </trkpt>
      <trkpt lat="45.33005529083311557769775390625" lon="-70.81459854729473590850830078125">
        <ele>891.20001220703125</ele>
        <time>2026-08-21T12:06:57.000Z</time>
        <extensions>
          <ns3:TrackPointExtension>
            <ns3:hr>141</ns3:hr>
            <ns3:cad>50</ns3:cad>
          </ns3:TrackPointExtension>
        </extensions>
      </trkpt>
      <trkpt lat="45.3300547040998935699462890625" lon="-70.8145855553448200225830078125">
        <ele>891.5999755859375</ele>
        <time>2026-08-21T12:06:58.000Z</time>
        <extensions>
          <ns3:TrackPointExtension>
            <ns3:hr>141</ns3:hr>
            <ns3:cad>50</ns3:cad>
          </ns3:TrackPointExtension>
        </extensions>
      </trkpt>
      <trkpt lat="45.33005093224346637725830078125" lon="-70.814564935863018035888671875">
        <ele>891.79998779296875</ele>
        <time>2026-08-21T12:06:59.000Z</time>
        <extensions>
          <ns3:TrackPointExtension>
            <ns3:hr>141</ns3:hr>
            <ns3:cad>49</ns3:cad>
          </ns3:TrackPointExtension>
        </extensions>
      </trkpt>
      <trkpt lat="45.33003869466483592987060546875" lon="-70.8145483396947383880615234375">
        <ele>892.20001220703125</ele>
        <time>2026-08-21T12:07:00.000Z</time>
        <extensions>
          <ns3:TrackPointExtension>
            <ns3:hr>142</ns3:hr>
            <ns3:cad>49</ns3:cad>
          </ns3:TrackPointExtension>
        </extensions>
      </trkpt>
      <trkpt lat="45.33001841045916080474853515625" lon="-70.81454180181026458740234375">
        <ele>892.4000244140625</ele>
        <time>2026-08-21T12:07:01.000Z</time>
        <extensions>
          <ns3:TrackPointExtension>
            <ns3:hr>142</ns3:hr>
            <ns3:cad>49</ns3:cad>
          </ns3:TrackPointExtension>
        </extensions>
      </trkpt>
      <trkpt lat="45.33000684343278408050537109375" lon="-70.81452780403196811676025390625">
        <ele>892.5999755859375</ele>
        <time>2026-08-21T12:07:02.000Z</time>
        <extensions>
          <ns3:TrackPointExtension>
            <ns3:hr>143</ns3:hr>
            <ns3:cad>49</ns3:cad>
          </ns3:TrackPointExtension>
        </extensions>
      </trkpt>
      <trkpt lat="45.32999795861542224884033203125" lon="-70.8145205117762088775634765625">
        <ele>892.79998779296875</ele>
        <time>2026-08-21T12:07:03.000Z</time>
        <extensions>
          <ns3:TrackPointExtension>
            <ns3:hr>143</ns3:hr>
            <ns3:cad>49</ns3:cad>
          </ns3:TrackPointExtension>
        </extensions>
      </trkpt>
      <trkpt lat="45.32998748123645782470703125" lon="-70.8145144768059253692626953125">
        <ele>893</ele>
        <time>2026-08-21T12:07:04.000Z</time>
        <extensions>
          <ns3:TrackPointExtension>
            <ns3:hr>143</ns3:hr>
            <ns3:cad>47</ns3:cad>
          </ns3:TrackPointExtension>
        </extensions>
      </trkpt>
      <trkpt lat="45.3299695439636707305908203125" lon="-70.8145071007311344146728515625">
        <ele>893</ele>
        <time>2026-08-21T12:07:05.000Z</time>
        <extensions>
          <ns3:TrackPointExtension>
            <ns3:hr>143</ns3:hr>
            <ns3:cad>47</ns3:cad>
          </ns3:TrackPointExtension>
        </extensions>
      </trkpt>
      <trkpt lat="45.329956300556659698486328125" lon="-70.81450215540826320648193359375">
        <ele>893.20001220703125</ele>
        <time>2026-08-21T12:07:06.000Z</time>
        <extensions>
          <ns3:TrackPointExtension>
            <ns3:hr>144</ns3:hr>
            <ns3:cad>47</ns3:cad>
          </ns3:TrackPointExtension>
        </extensions>
      </trkpt>
      <trkpt lat="45.32994590699672698974609375" lon="-70.81449075601994991302490234375">
        <ele>893.4000244140625</ele>
        <time>2026-08-21T12:07:07.000Z</time>
        <extensions>
          <ns3:TrackPointExtension>
            <ns3:hr>144</ns3:hr>
            <ns3:cad>47</ns3:cad>
          </ns3:TrackPointExtension>
        </extensions>
      </trkpt>
      <trkpt lat="45.3299363516271114349365234375" lon="-70.81447315402328968048095703125">
        <ele>893.4000244140625</ele>
        <time>2026-08-21T12:07:08.000Z</time>
        <extensions>
          <ns3:TrackPointExtension>
            <ns3:hr>145</ns3:hr>
            <ns3:cad>47</ns3:cad>
          </ns3:TrackPointExtension>
        </extensions>
      </trkpt>
      <trkpt lat="45.329925455152988433837890625" lon="-70.8144655264914035797119140625">
        <ele>893.5999755859375</ele>
        <time>2026-08-21T12:07:09.000Z</time>
        <extensions>
          <ns3:TrackPointExtension>
            <ns3:hr>147</ns3:hr>
            <ns3:cad>47</ns3:cad>
          </ns3:TrackPointExtension>
        </extensions>
      </trkpt>
      <trkpt lat="45.32991279847919940948486328125" lon="-70.81445722840726375579833984375">
        <ele>893.5999755859375</ele>
        <time>2026-08-21T12:07:10.000Z</time>
        <extensions>
          <ns3:TrackPointExtension>
            <ns3:hr>148</ns3:hr>
            <ns3:cad>47</ns3:cad>
          </ns3:TrackPointExtension>
        </extensions>
      </trkpt>
      <trkpt lat="45.3299055062234401702880859375" lon="-70.81445194780826568603515625">
        <ele>893.79998779296875</ele>
        <time>2026-08-21T12:07:11.000Z</time>
        <extensions>
          <ns3:TrackPointExtension>
            <ns3:hr>148</ns3:hr>
            <ns3:cad>47</ns3:cad>
          </ns3:TrackPointExtension>
        </extensions>
      </trkpt>
      <trkpt lat="45.3298924304544925689697265625" lon="-70.81444465555250644683837890625">
        <ele>894</ele>
        <time>2026-08-21T12:07:12.000Z</time>
        <extensions>
          <ns3:TrackPointExtension>
            <ns3:hr>148</ns3:hr>
            <ns3:cad>49</ns3:cad>
          </ns3:TrackPointExtension>
        </extensions>
      </trkpt>
      <trkpt lat="45.32987876795232295989990234375" lon="-70.814437530934810638427734375">
        <ele>894</ele>
        <time>2026-08-21T12:07:13.000Z</time>
        <extensions>
          <ns3:TrackPointExtension>
            <ns3:hr>148</ns3:hr>
            <ns3:cad>49</ns3:cad>
          </ns3:TrackPointExtension>
        </extensions>
      </trkpt>
      <trkpt lat="45.32986946403980255126953125" lon="-70.8144273050129413604736328125">
        <ele>894.20001220703125</ele>
        <time>2026-08-21T12:07:14.000Z</time>
        <extensions>
          <ns3:TrackPointExtension>
            <ns3:hr>148</ns3:hr>
            <ns3:cad>44</ns3:cad>
          </ns3:TrackPointExtension>
        </extensions>
      </trkpt>
      <trkpt lat="45.329857058823108673095703125" lon="-70.81442420370876789093017578125">
        <ele>894.4000244140625</ele>
        <time>2026-08-21T12:07:15.000Z</time>
        <extensions>
          <ns3:TrackPointExtension>
            <ns3:hr>148</ns3:hr>
            <ns3:cad>44</ns3:cad>
          </ns3:TrackPointExtension>
        </extensions>
      </trkpt>
      <trkpt lat="45.32983836717903614044189453125" lon="-70.8144246228039264678955078125">
        <ele>894.5999755859375</ele>
        <time>2026-08-21T12:07:16.000Z</time>
        <extensions>
          <ns3:TrackPointExtension>
            <ns3:hr>148</ns3:hr>
            <ns3:cad>44</ns3:cad>
          </ns3:TrackPointExtension>
        </extensions>
      </trkpt>
      <trkpt lat="45.329828560352325439453125" lon="-70.81442018039524555206298828125">
        <ele>894.79998779296875</ele>
        <time>2026-08-21T12:07:17.000Z</time>
        <extensions>
          <ns3:TrackPointExtension>
            <ns3:hr>148</ns3:hr>
            <ns3:cad>44</ns3:cad>
          </ns3:TrackPointExtension>
        </extensions>
      </trkpt>
      <trkpt lat="45.3298169933259487152099609375" lon="-70.8144142292439937591552734375">
        <ele>895</ele>
        <time>2026-08-21T12:07:18.000Z</time>
        <extensions>
          <ns3:TrackPointExtension>
            <ns3:hr>149</ns3:hr>
            <ns3:cad>44</ns3:cad>
          </ns3:TrackPointExtension>
        </extensions>
      </trkpt>
      <trkpt lat="45.32980031333863735198974609375" lon="-70.814410708844661712646484375">
        <ele>895.20001220703125</ele>
        <time>2026-08-21T12:07:19.000Z</time>
        <extensions>
          <ns3:TrackPointExtension>
            <ns3:hr>149</ns3:hr>
            <ns3:cad>45</ns3:cad>
          </ns3:TrackPointExtension>
        </extensions>
      </trkpt>
      <trkpt lat="45.3297884948551654815673828125" lon="-70.81441112793982028961181640625">
        <ele>895.4000244140625</ele>
        <time>2026-08-21T12:07:20.000Z</time>
        <extensions>
          <ns3:TrackPointExtension>
            <ns3:hr>149</ns3:hr>
            <ns3:cad>45</ns3:cad>
          </ns3:TrackPointExtension>
        </extensions>
      </trkpt>
      <trkpt lat="45.3297814540565013885498046875" lon="-70.81441028974950313568115234375">
        <ele>895.5999755859375</ele>
        <time>2026-08-21T12:07:21.000Z</time>
        <extensions>
          <ns3:TrackPointExtension>
            <ns3:hr>149</ns3:hr>
            <ns3:cad>51</ns3:cad>
          </ns3:TrackPointExtension>
        </extensions>
      </trkpt>
      <trkpt lat="45.32977416180074214935302734375" lon="-70.8144118823111057281494140625">
        <ele>895.79998779296875</ele>
        <time>2026-08-21T12:07:22.000Z</time>
        <extensions>
          <ns3:TrackPointExtension>
            <ns3:hr>149</ns3:hr>
            <ns3:cad>51</ns3:cad>
          </ns3:TrackPointExtension>
        </extensions>
      </trkpt>
      <trkpt lat="45.32976477406919002532958984375" lon="-70.8144055120646953582763671875">
        <ele>895.79998779296875</ele>
        <time>2026-08-21T12:07:23.000Z</time>
        <extensions>
          <ns3:TrackPointExtension>
            <ns3:hr>149</ns3:hr>
            <ns3:cad>51</ns3:cad>
          </ns3:TrackPointExtension>
        </extensions>
      </trkpt>
      <trkpt lat="45.3297563083469867706298828125" lon="-70.81440090201795101165771484375">
        <ele>896</ele>
        <time>2026-08-21T12:07:24.000Z</time>
        <extensions>
          <ns3:TrackPointExtension>
            <ns3:hr>148</ns3:hr>
            <ns3:cad>51</ns3:cad>
          </ns3:TrackPointExtension>
        </extensions>
      </trkpt>
      <trkpt lat="45.32974683679640293121337890625" lon="-70.81439436413347721099853515625">
        <ele>896.20001220703125</ele>
        <time>2026-08-21T12:07:25.000Z</time>
        <extensions>
          <ns3:TrackPointExtension>
            <ns3:hr>149</ns3:hr>
            <ns3:cad>51</ns3:cad>
          </ns3:TrackPointExtension>
        </extensions>
      </trkpt>
      <trkpt lat="45.3297388739883899688720703125" lon="-70.81438464112579822540283203125">
        <ele>896.4000244140625</ele>
        <time>2026-08-21T12:07:26.000Z</time>
        <extensions>
          <ns3:TrackPointExtension>
            <ns3:hr>149</ns3:hr>
            <ns3:cad>51</ns3:cad>
          </ns3:TrackPointExtension>
        </extensions>
      </trkpt>
      <trkpt lat="45.32973292283713817596435546875" lon="-70.814379863440990447998046875">
        <ele>896.5999755859375</ele>
        <time>2026-08-21T12:07:27.000Z</time>
        <extensions>
          <ns3:TrackPointExtension>
            <ns3:hr>149</ns3:hr>
            <ns3:cad>51</ns3:cad>
          </ns3:TrackPointExtension>
        </extensions>
      </trkpt>
      <trkpt lat="45.3297294862568378448486328125" lon="-70.8143736608326435089111328125">
        <ele>897</ele>
        <time>2026-08-21T12:07:28.000Z</time>
        <extensions>
          <ns3:TrackPointExtension>
            <ns3:hr>149</ns3:hr>
            <ns3:cad>50</ns3:cad>
          </ns3:TrackPointExtension>
        </extensions>
      </trkpt>
      <trkpt lat="45.32972018234431743621826171875" lon="-70.814365446567535400390625">
        <ele>897.20001220703125</ele>
        <time>2026-08-21T12:07:29.000Z</time>
        <extensions>
          <ns3:TrackPointExtension>
            <ns3:hr>149</ns3:hr>
            <ns3:cad>50</ns3:cad>
          </ns3:TrackPointExtension>
        </extensions>
      </trkpt>
      <trkpt lat="45.329706855118274688720703125" lon="-70.81435714848339557647705078125">
        <ele>897.4000244140625</ele>
        <time>2026-08-21T12:07:30.000Z</time>
        <extensions>
          <ns3:TrackPointExtension>
            <ns3:hr>149</ns3:hr>
            <ns3:cad>50</ns3:cad>
          </ns3:TrackPointExtension>
        </extensions>
      </trkpt>
      <trkpt lat="45.32969512045383453369140625" lon="-70.81435111351311206817626953125">
        <ele>897.4000244140625</ele>
        <time>2026-08-21T12:07:31.000Z</time>
        <extensions>
          <ns3:TrackPointExtension>
            <ns3:hr>148</ns3:hr>
            <ns3:cad>50</ns3:cad>
          </ns3:TrackPointExtension>
        </extensions>
      </trkpt>
      <trkpt lat="45.3296818770468235015869140625" lon="-70.81435346044600009918212890625">
        <ele>897.5999755859375</ele>
        <time>2026-08-21T12:07:32.000Z</time>
        <extensions>
          <ns3:TrackPointExtension>
            <ns3:hr>149</ns3:hr>
            <ns3:cad>50</ns3:cad>
          </ns3:TrackPointExtension>
        </extensions>
      </trkpt>
      <trkpt lat="45.329671315848827362060546875" lon="-70.81435329280793666839599609375">
        <ele>897.79998779296875</ele>
        <time>2026-08-21T12:07:33.000Z</time>
        <extensions>
          <ns3:TrackPointExtension>
            <ns3:hr>149</ns3:hr>
            <ns3:cad>50</ns3:cad>
          </ns3:TrackPointExtension>
        </extensions>
      </trkpt>
      <trkpt lat="45.32966150902211666107177734375" lon="-70.8143619261682033538818359375">
        <ele>897.79998779296875</ele>
        <time>2026-08-21T12:07:34.000Z</time>
        <extensions>
          <ns3:TrackPointExtension>
            <ns3:hr>149</ns3:hr>
            <ns3:cad>50</ns3:cad>
          </ns3:TrackPointExtension>
        </extensions>
      </trkpt>
      <trkpt lat="45.3296530432999134063720703125" lon="-70.81436603330075740814208984375">
        <ele>898</ele>
        <time>2026-08-21T12:07:35.000Z</time>
        <extensions>
          <ns3:TrackPointExtension>
            <ns3:hr>149</ns3:hr>
            <ns3:cad>51</ns3:cad>
          </ns3:TrackPointExtension>
        </extensions>
      </trkpt>
      <trkpt lat="45.3296423144638538360595703125" lon="-70.81436435692012310028076171875">
        <ele>898.20001220703125</ele>
        <time>2026-08-21T12:07:36.000Z</time>
        <extensions>
          <ns3:TrackPointExtension>
            <ns3:hr>148</ns3:hr>
            <ns3:cad>51</ns3:cad>
          </ns3:TrackPointExtension>
        </extensions>
      </trkpt>
      <trkpt lat="45.3296302445232868194580078125" lon="-70.814359076321125030517578125">
        <ele>898.4000244140625</ele>
        <time>2026-08-21T12:07:37.000Z</time>
        <extensions>
          <ns3:TrackPointExtension>
            <ns3:hr>149</ns3:hr>
            <ns3:cad>51</ns3:cad>
          </ns3:TrackPointExtension>
        </extensions>
      </trkpt>
      <trkpt lat="45.32962177880108356475830078125" lon="-70.8143595792353153228759765625">
        <ele>898.5999755859375</ele>
        <time>2026-08-21T12:07:38.000Z</time>
        <extensions>
          <ns3:TrackPointExtension>
            <ns3:hr>148</ns3:hr>
            <ns3:cad>0</ns3:cad>
          </ns3:TrackPointExtension>
        </extensions>
      </trkpt>
      <trkpt lat="45.329617671668529510498046875" lon="-70.8143592439591884613037109375">
        <ele>898.79998779296875</ele>
        <time>2026-08-21T12:07:39.000Z</time>
        <extensions>
          <ns3:TrackPointExtension>
            <ns3:hr>148</ns3:hr>
            <ns3:cad>0</ns3:cad>
          </ns3:TrackPointExtension>
        </extensions>
      </trkpt>
      <trkpt lat="45.32960887067019939422607421875" lon="-70.81435664556920528411865234375">
        <ele>899</ele>
        <time>2026-08-21T12:07:40.000Z</time>
        <extensions>
          <ns3:TrackPointExtension>
            <ns3:hr>149</ns3:hr>
            <ns3:cad>46</ns3:cad>
          </ns3:TrackPointExtension>
        </extensions>
      </trkpt>
      <trkpt lat="45.3296005725860595703125" lon="-70.8143481798470020294189453125">
        <ele>899.20001220703125</ele>
        <time>2026-08-21T12:07:41.000Z</time>
        <extensions>
          <ns3:TrackPointExtension>
            <ns3:hr>149</ns3:hr>
            <ns3:cad>47</ns3:cad>
          </ns3:TrackPointExtension>
        </extensions>
      </trkpt>
      <trkpt lat="45.32958783209323883056640625" lon="-70.814335606992244720458984375">
        <ele>899.20001220703125</ele>
        <time>2026-08-21T12:07:42.000Z</time>
        <extensions>
          <ns3:TrackPointExtension>
            <ns3:hr>149</ns3:hr>
            <ns3:cad>47</ns3:cad>
          </ns3:TrackPointExtension>
        </extensions>
      </trkpt>
      <trkpt lat="45.32957718707621097564697265625" lon="-70.8143283985555171966552734375">
        <ele>899.4000244140625</ele>
        <time>2026-08-21T12:07:43.000Z</time>
        <extensions>
          <ns3:TrackPointExtension>
            <ns3:hr>149</ns3:hr>
            <ns3:cad>47</ns3:cad>
          </ns3:TrackPointExtension>
        </extensions>
      </trkpt>
      <trkpt lat="45.3295668773353099822998046875" lon="-70.81432160921394824981689453125">
        <ele>899.4000244140625</ele>
        <time>2026-08-21T12:07:44.000Z</time>
        <extensions>
          <ns3:TrackPointExtension>
            <ns3:hr>149</ns3:hr>
            <ns3:cad>47</ns3:cad>
          </ns3:TrackPointExtension>
        </extensions>
      </trkpt>
      <trkpt lat="45.32955656759440898895263671875" lon="-70.81431423313915729522705078125">
        <ele>899.5999755859375</ele>
        <time>2026-08-21T12:07:45.000Z</time>
        <extensions>
          <ns3:TrackPointExtension>
            <ns3:hr>150</ns3:hr>
            <ns3:cad>47</ns3:cad>
          </ns3:TrackPointExtension>
        </extensions>
      </trkpt>
      <trkpt lat="45.329550616443157196044921875" lon="-70.81431440077722072601318359375">
        <ele>899.79998779296875</ele>
        <time>2026-08-21T12:07:46.000Z</time>
        <extensions>
          <ns3:TrackPointExtension>
            <ns3:hr>149</ns3:hr>
            <ns3:cad>0</ns3:cad>
          </ns3:TrackPointExtension>
        </extensions>
      </trkpt>
      <trkpt lat="45.32954164780676364898681640625" lon="-70.81430836580693721771240234375">
        <ele>899.79998779296875</ele>
        <time>2026-08-21T12:07:47.000Z</time>
        <extensions>
          <ns3:TrackPointExtension>
            <ns3:hr>149</ns3:hr>
            <ns3:cad>0</ns3:cad>
          </ns3:TrackPointExtension>
        </extensions>
      </trkpt>
      <trkpt lat="45.3295336849987506866455078125" lon="-70.8143015764653682708740234375">
        <ele>900.20001220703125</ele>
        <time>2026-08-21T12:07:48.000Z</time>
        <extensions>
          <ns3:TrackPointExtension>
            <ns3:hr>149</ns3:hr>
            <ns3:cad>0</ns3:cad>
          </ns3:TrackPointExtension>
        </extensions>
      </trkpt>
      <trkpt lat="45.329527147114276885986328125" lon="-70.814301073551177978515625">
        <ele>900.4000244140625</ele>
        <time>2026-08-21T12:07:49.000Z</time>
        <extensions>
          <ns3:TrackPointExtension>
            <ns3:hr>148</ns3:hr>
            <ns3:cad>0</ns3:cad>
          </ns3:TrackPointExtension>
        </extensions>
      </trkpt>
      <trkpt lat="45.3295132331550121307373046875" lon="-70.81429981626570224761962890625">
        <ele>900.5999755859375</ele>
        <time>2026-08-21T12:07:50.000Z</time>
        <extensions>
          <ns3:TrackPointExtension>
            <ns3:hr>148</ns3:hr>
            <ns3:cad>0</ns3:cad>
          </ns3:TrackPointExtension>
        </extensions>
      </trkpt>
      <trkpt lat="45.32949931919574737548828125" lon="-70.81430233083665370941162109375">
        <ele>900.79998779296875</ele>
        <time>2026-08-21T12:07:51.000Z</time>
        <extensions>
          <ns3:TrackPointExtension>
            <ns3:hr>148</ns3:hr>
            <ns3:cad>0</ns3:cad>
          </ns3:TrackPointExtension>
        </extensions>
      </trkpt>
      <trkpt lat="45.3294921107590198516845703125" lon="-70.81430467776954174041748046875">
        <ele>901.20001220703125</ele>
        <time>2026-08-21T12:07:52.000Z</time>
        <extensions>
          <ns3:TrackPointExtension>
            <ns3:hr>148</ns3:hr>
            <ns3:cad>0</ns3:cad>
          </ns3:TrackPointExtension>
        </extensions>
      </trkpt>
      <trkpt lat="45.32949085347354412078857421875" lon="-70.81430635415017604827880859375">
        <ele>901.4000244140625</ele>
        <time>2026-08-21T12:07:53.000Z</time>
        <extensions>
          <ns3:TrackPointExtension>
            <ns3:hr>149</ns3:hr>
            <ns3:cad>0</ns3:cad>
          </ns3:TrackPointExtension>
        </extensions>
      </trkpt>
      <trkpt lat="45.329488925635814666748046875" lon="-70.81430551595985889434814453125">
        <ele>901.79998779296875</ele>
        <time>2026-08-21T12:07:54.000Z</time>
        <extensions>
          <ns3:TrackPointExtension>
            <ns3:hr>148</ns3:hr>
            <ns3:cad>0</ns3:cad>
          </ns3:TrackPointExtension>
        </extensions>
      </trkpt>
      <trkpt lat="45.32948062755167484283447265625" lon="-70.81430652178823947906494140625">
        <ele>902</ele>
        <time>2026-08-21T12:07:55.000Z</time>
        <extensions>
          <ns3:TrackPointExtension>
            <ns3:hr>148</ns3:hr>
            <ns3:cad>0</ns3:cad>
          </ns3:TrackPointExtension>
        </extensions>
      </trkpt>
      <trkpt lat="45.3294740058481693267822265625" lon="-70.81430719234049320220947265625">
        <ele>902.20001220703125</ele>
        <time>2026-08-21T12:07:56.000Z</time>
        <extensions>
          <ns3:TrackPointExtension>
            <ns3:hr>148</ns3:hr>
            <ns3:cad>0</ns3:cad>
          </ns3:TrackPointExtension>
        </extensions>
      </trkpt>
      <trkpt lat="45.329468809068202972412109375" lon="-70.8143042586743831634521484375">
        <ele>902.4000244140625</ele>
        <time>2026-08-21T12:07:57.000Z</time>
        <extensions>
          <ns3:TrackPointExtension>
            <ns3:hr>148</ns3:hr>
            <ns3:cad>0</ns3:cad>
          </ns3:TrackPointExtension>
        </extensions>
      </trkpt>
      <trkpt lat="45.32946134917438030242919921875" lon="-70.81429772078990936279296875">
        <ele>902.79998779296875</ele>
        <time>2026-08-21T12:07:58.000Z</time>
        <extensions>
          <ns3:TrackPointExtension>
            <ns3:hr>148</ns3:hr>
            <ns3:cad>0</ns3:cad>
          </ns3:TrackPointExtension>
        </extensions>
      </trkpt>
      <trkpt lat="45.3294535540044307708740234375" lon="-70.8142983913421630859375">
        <ele>902.79998779296875</ele>
        <time>2026-08-21T12:07:59.000Z</time>
        <extensions>
          <ns3:TrackPointExtension>
            <ns3:hr>148</ns3:hr>
            <ns3:cad>0</ns3:cad>
          </ns3:TrackPointExtension>
        </extensions>
      </trkpt>
      <trkpt lat="45.3294445015490055084228515625" lon="-70.81429101526737213134765625">
        <ele>903</ele>
        <time>2026-08-21T12:08:00.000Z</time>
        <extensions>
          <ns3:TrackPointExtension>
            <ns3:hr>148</ns3:hr>
            <ns3:cad>0</ns3:cad>
          </ns3:TrackPointExtension>
        </extensions>
      </trkpt>
      <trkpt lat="45.32943787984549999237060546875" lon="-70.81428221426904201507568359375">
        <ele>903.20001220703125</ele>
        <time>2026-08-21T12:08:01.000Z</time>
        <extensions>
          <ns3:TrackPointExtension>
            <ns3:hr>149</ns3:hr>
            <ns3:cad>0</ns3:cad>
          </ns3:TrackPointExtension>
        </extensions>
      </trkpt>
      <trkpt lat="45.32942547462880611419677734375" lon="-70.8142774365842342376708984375">
        <ele>903.20001220703125</ele>
        <time>2026-08-21T12:08:02.000Z</time>
        <extensions>
          <ns3:TrackPointExtension>
            <ns3:hr>148</ns3:hr>
            <ns3:cad>0</ns3:cad>
          </ns3:TrackPointExtension>
        </extensions>
      </trkpt>
      <trkpt lat="45.32941893674433231353759765625" lon="-70.81427299417555332183837890625">
        <ele>903.20001220703125</ele>
        <time>2026-08-21T12:08:03.000Z</time>
        <extensions>
          <ns3:TrackPointExtension>
            <ns3:hr>148</ns3:hr>
            <ns3:cad>0</ns3:cad>
          </ns3:TrackPointExtension>
        </extensions>
      </trkpt>
      <trkpt lat="45.32941080629825592041015625" lon="-70.8142673783004283905029296875">
        <ele>903.20001220703125</ele>
        <time>2026-08-21T12:08:04.000Z</time>
        <extensions>
          <ns3:TrackPointExtension>
            <ns3:hr>148</ns3:hr>
            <ns3:cad>0</ns3:cad>
          </ns3:TrackPointExtension>
        </extensions>
      </trkpt>
      <trkpt lat="45.32940351404249668121337890625" lon="-70.8142675459384918212890625">
        <ele>903.4000244140625</ele>
        <time>2026-08-21T12:08:05.000Z</time>
        <extensions>
          <ns3:TrackPointExtension>
            <ns3:hr>149</ns3:hr>
            <ns3:cad>0</ns3:cad>
          </ns3:TrackPointExtension>
        </extensions>
      </trkpt>
      <trkpt lat="45.32939177937805652618408203125" lon="-70.81426662392914295196533203125">
        <ele>903.5999755859375</ele>
        <time>2026-08-21T12:08:06.000Z</time>
        <extensions>
          <ns3:TrackPointExtension>
            <ns3:hr>149</ns3:hr>
            <ns3:cad>0</ns3:cad>
          </ns3:TrackPointExtension>
        </extensions>
      </trkpt>
      <trkpt lat="45.32938130199909210205078125" lon="-70.81426327116787433624267578125">
        <ele>903.79998779296875</ele>
        <time>2026-08-21T12:08:07.000Z</time>
        <extensions>
          <ns3:TrackPointExtension>
            <ns3:hr>150</ns3:hr>
            <ns3:cad>0</ns3:cad>
          </ns3:TrackPointExtension>
        </extensions>
      </trkpt>
      <trkpt lat="45.3293739259243011474609375" lon="-70.8142596669495105743408203125">
        <ele>904</ele>
        <time>2026-08-21T12:08:08.000Z</time>
        <extensions>
          <ns3:TrackPointExtension>
            <ns3:hr>150</ns3:hr>
            <ns3:cad>0</ns3:cad>
          </ns3:TrackPointExtension>
        </extensions>
      </trkpt>
      <trkpt lat="45.32935992814600467681884765625" lon="-70.81426193006336688995361328125">
        <ele>904.20001220703125</ele>
        <time>2026-08-21T12:08:09.000Z</time>
        <extensions>
          <ns3:TrackPointExtension>
            <ns3:hr>150</ns3:hr>
            <ns3:cad>0</ns3:cad>
          </ns3:TrackPointExtension>
        </extensions>
      </trkpt>
      <trkpt lat="45.329349450767040252685546875" lon="-70.814260505139827728271484375">
        <ele>904.4000244140625</ele>
        <time>2026-08-21T12:08:10.000Z</time>
        <extensions>
          <ns3:TrackPointExtension>
            <ns3:hr>150</ns3:hr>
            <ns3:cad>0</ns3:cad>
          </ns3:TrackPointExtension>
        </extensions>
      </trkpt>
      <trkpt lat="45.32934618182480335235595703125" lon="-70.814258158206939697265625">
        <ele>904.4000244140625</ele>
        <time>2026-08-21T12:08:11.000Z</time>
        <extensions>
          <ns3:TrackPointExtension>
            <ns3:hr>150</ns3:hr>
            <ns3:cad>0</ns3:cad>
          </ns3:TrackPointExtension>
        </extensions>
      </trkpt>
      <trkpt lat="45.32933771610260009765625" lon="-70.81425941549241542816162109375">
        <ele>904.5999755859375</ele>
        <time>2026-08-21T12:08:12.000Z</time>
        <extensions>
          <ns3:TrackPointExtension>
            <ns3:hr>150</ns3:hr>
            <ns3:cad>0</ns3:cad>
          </ns3:TrackPointExtension>
        </extensions>
      </trkpt>
      <trkpt lat="45.329330004751682281494140625" lon="-70.81425773911178112030029296875">
        <ele>904.79998779296875</ele>
        <time>2026-08-21T12:08:13.000Z</time>
        <extensions>
          <ns3:TrackPointExtension>
            <ns3:hr>150</ns3:hr>
            <ns3:cad>0</ns3:cad>
          </ns3:TrackPointExtension>
        </extensions>
      </trkpt>
      <trkpt lat="45.32932556234300136566162109375" lon="-70.8142519555985927581787109375">
        <ele>905.20001220703125</ele>
        <time>2026-08-21T12:08:14.000Z</time>
        <extensions>
          <ns3:TrackPointExtension>
            <ns3:hr>150</ns3:hr>
            <ns3:cad>0</ns3:cad>
          </ns3:TrackPointExtension>
        </extensions>
      </trkpt>
      <trkpt lat="45.32931935973465442657470703125" lon="-70.8142462559044361114501953125">
        <ele>905.4000244140625</ele>
        <time>2026-08-21T12:08:15.000Z</time>
        <extensions>
          <ns3:TrackPointExtension>
            <ns3:hr>151</ns3:hr>
            <ns3:cad>0</ns3:cad>
          </ns3:TrackPointExtension>
        </extensions>
      </trkpt>
      <trkpt lat="45.32931516878306865692138671875" lon="-70.81424483098089694976806640625">
        <ele>905.79998779296875</ele>
        <time>2026-08-21T12:08:16.000Z</time>
        <extensions>
          <ns3:TrackPointExtension>
            <ns3:hr>150</ns3:hr>
            <ns3:cad>0</ns3:cad>
          </ns3:TrackPointExtension>
        </extensions>
      </trkpt>
      <trkpt lat="45.32930494286119937896728515625" lon="-70.81424005329608917236328125">
        <ele>906</ele>
        <time>2026-08-21T12:08:17.000Z</time>
        <extensions>
          <ns3:TrackPointExtension>
            <ns3:hr>150</ns3:hr>
            <ns3:cad>0</ns3:cad>
          </ns3:TrackPointExtension>
        </extensions>
      </trkpt>
      <trkpt lat="45.3292973153293132781982421875" lon="-70.81423829309642314910888671875">
        <ele>906.20001220703125</ele>
        <time>2026-08-21T12:08:18.000Z</time>
        <extensions>
          <ns3:TrackPointExtension>
            <ns3:hr>150</ns3:hr>
            <ns3:cad>0</ns3:cad>
          </ns3:TrackPointExtension>
        </extensions>
      </trkpt>
      <trkpt lat="45.3292869217693805694580078125" lon="-70.8142325095832347869873046875">
        <ele>906.4000244140625</ele>
        <time>2026-08-21T12:08:19.000Z</time>
        <extensions>
          <ns3:TrackPointExtension>
            <ns3:hr>150</ns3:hr>
            <ns3:cad>0</ns3:cad>
          </ns3:TrackPointExtension>
        </extensions>
      </trkpt>
      <trkpt lat="45.329277031123638153076171875" lon="-70.8142328448593616485595703125">
        <ele>906.4000244140625</ele>
        <time>2026-08-21T12:08:20.000Z</time>
        <extensions>
          <ns3:TrackPointExtension>
            <ns3:hr>150</ns3:hr>
            <ns3:cad>0</ns3:cad>
          </ns3:TrackPointExtension>
        </extensions>
      </trkpt>
      <trkpt lat="45.32926823012530803680419921875" lon="-70.81423276104032993316650390625">
        <ele>906.5999755859375</ele>
        <time>2026-08-21T12:08:21.000Z</time>
        <extensions>
          <ns3:TrackPointExtension>
            <ns3:hr>150</ns3:hr>
            <ns3:cad>0</ns3:cad>
          </ns3:TrackPointExtension>
        </extensions>
      </trkpt>
      <trkpt lat="45.3292624466121196746826171875" lon="-70.814226977527141571044921875">
        <ele>906.5999755859375</ele>
        <time>2026-08-21T12:08:22.000Z</time>
        <extensions>
          <ns3:TrackPointExtension>
            <ns3:hr>150</ns3:hr>
            <ns3:cad>48</ns3:cad>
          </ns3:TrackPointExtension>
        </extensions>
      </trkpt>
      <trkpt lat="45.3292527236044406890869140625" lon="-70.81421800889074802398681640625">
        <ele>906.5999755859375</ele>
        <time>2026-08-21T12:08:23.000Z</time>
        <extensions>
          <ns3:TrackPointExtension>
            <ns3:hr>150</ns3:hr>
            <ns3:cad>48</ns3:cad>
          </ns3:TrackPointExtension>
        </extensions>
      </trkpt>
      <trkpt lat="45.3292406536638736724853515625" lon="-70.81420677714049816131591796875">
        <ele>906.5999755859375</ele>
        <time>2026-08-21T12:08:24.000Z</time>
        <extensions>
          <ns3:TrackPointExtension>
            <ns3:hr>149</ns3:hr>
            <ns3:cad>48</ns3:cad>
          </ns3:TrackPointExtension>
        </extensions>
      </trkpt>
      <trkpt lat="45.32923000864684581756591796875" lon="-70.81420040689408779144287109375">
        <ele>906.5999755859375</ele>
        <time>2026-08-21T12:08:25.000Z</time>
        <extensions>
          <ns3:TrackPointExtension>
            <ns3:hr>150</ns3:hr>
            <ns3:cad>48</ns3:cad>
          </ns3:TrackPointExtension>
        </extensions>
      </trkpt>
      <trkpt lat="45.32921659760177135467529296875" lon="-70.81419319845736026763916015625">
        <ele>906.79998779296875</ele>
        <time>2026-08-21T12:08:26.000Z</time>
        <extensions>
          <ns3:TrackPointExtension>
            <ns3:hr>150</ns3:hr>
            <ns3:cad>48</ns3:cad>
          </ns3:TrackPointExtension>
        </extensions>
      </trkpt>
      <trkpt lat="45.3292077966034412384033203125" lon="-70.81418833695352077484130859375">
        <ele>906.79998779296875</ele>
        <time>2026-08-21T12:08:27.000Z</time>
        <extensions>
          <ns3:TrackPointExtension>
            <ns3:hr>150</ns3:hr>
            <ns3:cad>48</ns3:cad>
          </ns3:TrackPointExtension>
        </extensions>
      </trkpt>
      <trkpt lat="45.32919866032898426055908203125" lon="-70.81418867222964763641357421875">
        <ele>907</ele>
        <time>2026-08-21T12:08:28.000Z</time>
        <extensions>
          <ns3:TrackPointExtension>
            <ns3:hr>150</ns3:hr>
            <ns3:cad>50</ns3:cad>
          </ns3:TrackPointExtension>
        </extensions>
      </trkpt>
      <trkpt lat="45.3291903622448444366455078125" lon="-70.81418632529675960540771484375">
        <ele>907.20001220703125</ele>
        <time>2026-08-21T12:08:29.000Z</time>
        <extensions>
          <ns3:TrackPointExtension>
            <ns3:hr>150</ns3:hr>
            <ns3:cad>50</ns3:cad>
          </ns3:TrackPointExtension>
        </extensions>
      </trkpt>
      <trkpt lat="45.32918072305619716644287109375" lon="-70.8141817152500152587890625">
        <ele>907.20001220703125</ele>
        <time>2026-08-21T12:08:30.000Z</time>
        <extensions>
          <ns3:TrackPointExtension>
            <ns3:hr>150</ns3:hr>
            <ns3:cad>50</ns3:cad>
          </ns3:TrackPointExtension>
        </extensions>
      </trkpt>
      <trkpt lat="45.329175777733325958251953125" lon="-70.81417224369943141937255859375">
        <ele>907.4000244140625</ele>
        <time>2026-08-21T12:08:31.000Z</time>
        <extensions>
          <ns3:TrackPointExtension>
            <ns3:hr>150</ns3:hr>
            <ns3:cad>51</ns3:cad>
          </ns3:TrackPointExtension>
        </extensions>
      </trkpt>
      <trkpt lat="45.32916731201112270355224609375" lon="-70.81416117958724498748779296875">
        <ele>907.5999755859375</ele>
        <time>2026-08-21T12:08:32.000Z</time>
        <extensions>
          <ns3:TrackPointExtension>
            <ns3:hr>150</ns3:hr>
            <ns3:cad>51</ns3:cad>
          </ns3:TrackPointExtension>
        </extensions>
      </trkpt>
      <trkpt lat="45.32915960066020488739013671875" lon="-70.814155898988246917724609375">
        <ele>907.79998779296875</ele>
        <time>2026-08-21T12:08:33.000Z</time>
        <extensions>
          <ns3:TrackPointExtension>
            <ns3:hr>150</ns3:hr>
            <ns3:cad>50</ns3:cad>
          </ns3:TrackPointExtension>
        </extensions>
      </trkpt>
      <trkpt lat="45.3291539847850799560546875" lon="-70.81415011547505855560302734375">
        <ele>908</ele>
        <time>2026-08-21T12:08:34.000Z</time>
        <extensions>
          <ns3:TrackPointExtension>
            <ns3:hr>149</ns3:hr>
            <ns3:cad>50</ns3:cad>
          </ns3:TrackPointExtension>
        </extensions>
      </trkpt>
      <trkpt lat="45.32914535142481327056884765625" lon="-70.8141399733722209930419921875">
        <ele>908.20001220703125</ele>
        <time>2026-08-21T12:08:35.000Z</time>
        <extensions>
          <ns3:TrackPointExtension>
            <ns3:hr>149</ns3:hr>
            <ns3:cad>50</ns3:cad>
          </ns3:TrackPointExtension>
        </extensions>
      </trkpt>
      <trkpt lat="45.329136215150356292724609375" lon="-70.81412781961262226104736328125">
        <ele>908.4000244140625</ele>
        <time>2026-08-21T12:08:36.000Z</time>
        <extensions>
          <ns3:TrackPointExtension>
            <ns3:hr>148</ns3:hr>
            <ns3:cad>50</ns3:cad>
          </ns3:TrackPointExtension>
        </extensions>
      </trkpt>
      <trkpt lat="45.32912456430494785308837890625" lon="-70.81411994062364101409912109375">
        <ele>908.5999755859375</ele>
        <time>2026-08-21T12:08:37.000Z</time>
        <extensions>
          <ns3:TrackPointExtension>
            <ns3:hr>148</ns3:hr>
            <ns3:cad>50</ns3:cad>
          </ns3:TrackPointExtension>
        </extensions>
      </trkpt>
      <trkpt lat="45.32911316491663455963134765625" lon="-70.8141175098717212677001953125">
        <ele>908.79998779296875</ele>
        <time>2026-08-21T12:08:38.000Z</time>
        <extensions>
          <ns3:TrackPointExtension>
            <ns3:hr>148</ns3:hr>
            <ns3:cad>0</ns3:cad>
          </ns3:TrackPointExtension>
        </extensions>
      </trkpt>
      <trkpt lat="45.32910612411797046661376953125" lon="-70.8141141571104526519775390625">
        <ele>908.79998779296875</ele>
        <time>2026-08-21T12:08:39.000Z</time>
        <extensions>
          <ns3:TrackPointExtension>
            <ns3:hr>148</ns3:hr>
            <ns3:cad>0</ns3:cad>
          </ns3:TrackPointExtension>
        </extensions>
      </trkpt>
      <trkpt lat="45.32909891568124294281005859375" lon="-70.8141091279685497283935546875">
        <ele>909</ele>
        <time>2026-08-21T12:08:40.000Z</time>
        <extensions>
          <ns3:TrackPointExtension>
            <ns3:hr>148</ns3:hr>
            <ns3:cad>0</ns3:cad>
          </ns3:TrackPointExtension>
        </extensions>
      </trkpt>
      <trkpt lat="45.3290914557874202728271484375" lon="-70.814101584255695343017578125">
        <ele>909</ele>
        <time>2026-08-21T12:08:41.000Z</time>
        <extensions>
          <ns3:TrackPointExtension>
            <ns3:hr>148</ns3:hr>
            <ns3:cad>0</ns3:cad>
          </ns3:TrackPointExtension>
        </extensions>
      </trkpt>
      <trkpt lat="45.329085253179073333740234375" lon="-70.81409211270511150360107421875">
        <ele>909.20001220703125</ele>
        <time>2026-08-21T12:08:42.000Z</time>
        <extensions>
          <ns3:TrackPointExtension>
            <ns3:hr>148</ns3:hr>
            <ns3:cad>0</ns3:cad>
          </ns3:TrackPointExtension>
        </extensions>
      </trkpt>
      <trkpt lat="45.32908282242715358734130859375" lon="-70.8140849880874156951904296875">
        <ele>909.4000244140625</ele>
        <time>2026-08-21T12:08:43.000Z</time>
        <extensions>
          <ns3:TrackPointExtension>
            <ns3:hr>148</ns3:hr>
            <ns3:cad>0</ns3:cad>
          </ns3:TrackPointExtension>
        </extensions>
      </trkpt>
      <trkpt lat="45.329074859619140625" lon="-70.814076103270053863525390625">
        <ele>909.5999755859375</ele>
        <time>2026-08-21T12:08:44.000Z</time>
        <extensions>
          <ns3:TrackPointExtension>
            <ns3:hr>148</ns3:hr>
            <ns3:cad>0</ns3:cad>
          </ns3:TrackPointExtension>
        </extensions>
      </trkpt>
      <trkpt lat="45.3290669806301593780517578125" lon="-70.81407065503299236297607421875">
        <ele>909.79998779296875</ele>
        <time>2026-08-21T12:08:45.000Z</time>
        <extensions>
          <ns3:TrackPointExtension>
            <ns3:hr>148</ns3:hr>
            <ns3:cad>47</ns3:cad>
          </ns3:TrackPointExtension>
        </extensions>
      </trkpt>
      <trkpt lat="45.32906211912631988525390625" lon="-70.81406981684267520904541015625">
        <ele>910</ele>
        <time>2026-08-21T12:08:46.000Z</time>
        <extensions>
          <ns3:TrackPointExtension>
            <ns3:hr>148</ns3:hr>
            <ns3:cad>47</ns3:cad>
          </ns3:TrackPointExtension>
        </extensions>
      </trkpt>
      <trkpt lat="45.32905851490795612335205078125" lon="-70.81406814046204090118408203125">
        <ele>910</ele>
        <time>2026-08-21T12:08:47.000Z</time>
        <extensions>
          <ns3:TrackPointExtension>
            <ns3:hr>148</ns3:hr>
            <ns3:cad>47</ns3:cad>
          </ns3:TrackPointExtension>
        </extensions>
      </trkpt>
      <trkpt lat="45.32905415631830692291259765625" lon="-70.8140521310269832611083984375">
        <ele>910.20001220703125</ele>
        <time>2026-08-21T12:08:48.000Z</time>
        <extensions>
          <ns3:TrackPointExtension>
            <ns3:hr>148</ns3:hr>
            <ns3:cad>43</ns3:cad>
          </ns3:TrackPointExtension>
        </extensions>
      </trkpt>
      <trkpt lat="45.329049713909626007080078125" lon="-70.81404483877122402191162109375">
        <ele>910.4000244140625</ele>
        <time>2026-08-21T12:08:49.000Z</time>
        <extensions>
          <ns3:TrackPointExtension>
            <ns3:hr>147</ns3:hr>
            <ns3:cad>43</ns3:cad>
          </ns3:TrackPointExtension>
        </extensions>
      </trkpt>
      <trkpt lat="45.3290414996445178985595703125" lon="-70.8140414021909236907958984375">
        <ele>910.5999755859375</ele>
        <time>2026-08-21T12:08:50.000Z</time>
        <extensions>
          <ns3:TrackPointExtension>
            <ns3:hr>147</ns3:hr>
            <ns3:cad>0</ns3:cad>
          </ns3:TrackPointExtension>
        </extensions>
      </trkpt>
      <trkpt lat="45.32903135754168033599853515625" lon="-70.814037211239337921142578125">
        <ele>910.79998779296875</ele>
        <time>2026-08-21T12:08:51.000Z</time>
        <extensions>
          <ns3:TrackPointExtension>
            <ns3:hr>146</ns3:hr>
            <ns3:cad>0</ns3:cad>
          </ns3:TrackPointExtension>
        </extensions>
      </trkpt>
      <trkpt lat="45.3290212154388427734375" lon="-70.81402975134551525115966796875">
        <ele>910.79998779296875</ele>
        <time>2026-08-21T12:08:52.000Z</time>
        <extensions>
          <ns3:TrackPointExtension>
            <ns3:hr>146</ns3:hr>
            <ns3:cad>0</ns3:cad>
          </ns3:TrackPointExtension>
        </extensions>
      </trkpt>
      <trkpt lat="45.3290160186588764190673828125" lon="-70.814024470746517181396484375">
        <ele>911</ele>
        <time>2026-08-21T12:08:53.000Z</time>
        <extensions>
          <ns3:TrackPointExtension>
            <ns3:hr>146</ns3:hr>
            <ns3:cad>43</ns3:cad>
          </ns3:TrackPointExtension>
        </extensions>
      </trkpt>
      <trkpt lat="45.3290089778602123260498046875" lon="-70.81401784904301166534423828125">
        <ele>911.20001220703125</ele>
        <time>2026-08-21T12:08:54.000Z</time>
        <extensions>
          <ns3:TrackPointExtension>
            <ns3:hr>146</ns3:hr>
            <ns3:cad>43</ns3:cad>
          </ns3:TrackPointExtension>
        </extensions>
      </trkpt>
      <trkpt lat="45.32899967394769191741943359375" lon="-70.81401198171079158782958984375">
        <ele>911.20001220703125</ele>
        <time>2026-08-21T12:08:55.000Z</time>
        <extensions>
          <ns3:TrackPointExtension>
            <ns3:hr>146</ns3:hr>
            <ns3:cad>45</ns3:cad>
          </ns3:TrackPointExtension>
        </extensions>
      </trkpt>
      <trkpt lat="45.32898760400712490081787109375" lon="-70.81400611437857151031494140625">
        <ele>911.4000244140625</ele>
        <time>2026-08-21T12:08:56.000Z</time>
        <extensions>
          <ns3:TrackPointExtension>
            <ns3:hr>146</ns3:hr>
            <ns3:cad>45</ns3:cad>
          </ns3:TrackPointExtension>
        </extensions>
      </trkpt>
      <trkpt lat="45.32898492179811000823974609375" lon="-70.8140075393021106719970703125">
        <ele>911.5999755859375</ele>
        <time>2026-08-21T12:08:57.000Z</time>
        <extensions>
          <ns3:TrackPointExtension>
            <ns3:hr>146</ns3:hr>
            <ns3:cad>45</ns3:cad>
          </ns3:TrackPointExtension>
        </extensions>
      </trkpt>
      <trkpt lat="45.32897503115236759185791015625" lon="-70.81400812603533267974853515625">
        <ele>911.79998779296875</ele>
        <time>2026-08-21T12:08:58.000Z</time>
        <extensions>
          <ns3:TrackPointExtension>
            <ns3:hr>146</ns3:hr>
            <ns3:cad>46</ns3:cad>
          </ns3:TrackPointExtension>
        </extensions>
      </trkpt>
      <trkpt lat="45.3289700858294963836669921875" lon="-70.8140092156827449798583984375">
        <ele>912</ele>
        <time>2026-08-21T12:08:59.000Z</time>
        <extensions>
          <ns3:TrackPointExtension>
            <ns3:hr>146</ns3:hr>
            <ns3:cad>46</ns3:cad>
          </ns3:TrackPointExtension>
        </extensions>
      </trkpt>
      <trkpt lat="45.3289640508592128753662109375" lon="-70.814005695283412933349609375">
        <ele>912.20001220703125</ele>
        <time>2026-08-21T12:09:00.000Z</time>
        <extensions>
          <ns3:TrackPointExtension>
            <ns3:hr>146</ns3:hr>
            <ns3:cad>46</ns3:cad>
          </ns3:TrackPointExtension>
        </extensions>
      </trkpt>
      <trkpt lat="45.32895910553634166717529296875" lon="-70.81400527618825435638427734375">
        <ele>912.4000244140625</ele>
        <time>2026-08-21T12:09:01.000Z</time>
        <extensions>
          <ns3:TrackPointExtension>
            <ns3:hr>146</ns3:hr>
            <ns3:cad>46</ns3:cad>
          </ns3:TrackPointExtension>
        </extensions>
      </trkpt>
      <trkpt lat="45.32895592041313648223876953125" lon="-70.8140048570930957794189453125">
        <ele>912.79998779296875</ele>
        <time>2026-08-21T12:09:02.000Z</time>
        <extensions>
          <ns3:TrackPointExtension>
            <ns3:hr>147</ns3:hr>
            <ns3:cad>46</ns3:cad>
          </ns3:TrackPointExtension>
        </extensions>
      </trkpt>
      <trkpt lat="45.3289499692618846893310546875" lon="-70.81400678493082523345947265625">
        <ele>913</ele>
        <time>2026-08-21T12:09:03.000Z</time>
        <extensions>
          <ns3:TrackPointExtension>
            <ns3:hr>146</ns3:hr>
            <ns3:cad>46</ns3:cad>
          </ns3:TrackPointExtension>
        </extensions>
      </trkpt>
      <trkpt lat="45.32894083298742771148681640625" lon="-70.81400007940828800201416015625">
        <ele>913.20001220703125</ele>
        <time>2026-08-21T12:09:04.000Z</time>
        <extensions>
          <ns3:TrackPointExtension>
            <ns3:hr>146</ns3:hr>
            <ns3:cad>0</ns3:cad>
          </ns3:TrackPointExtension>
        </extensions>
      </trkpt>
      <trkpt lat="45.32893605530261993408203125" lon="-70.8139974810183048248291015625">
        <ele>913.4000244140625</ele>
        <time>2026-08-21T12:09:05.000Z</time>
        <extensions>
          <ns3:TrackPointExtension>
            <ns3:hr>146</ns3:hr>
            <ns3:cad>0</ns3:cad>
          </ns3:TrackPointExtension>
        </extensions>
      </trkpt>
      <trkpt lat="45.3289308585226535797119140625" lon="-70.8139944635331630706787109375">
        <ele>913.5999755859375</ele>
        <time>2026-08-21T12:09:06.000Z</time>
        <extensions>
          <ns3:TrackPointExtension>
            <ns3:hr>146</ns3:hr>
            <ns3:cad>0</ns3:cad>
          </ns3:TrackPointExtension>
        </extensions>
      </trkpt>
      <trkpt lat="45.32892666757106781005859375" lon="-70.8139870874583721160888671875">
        <ele>913.79998779296875</ele>
        <time>2026-08-21T12:09:07.000Z</time>
        <extensions>
          <ns3:TrackPointExtension>
            <ns3:hr>146</ns3:hr>
            <ns3:cad>0</ns3:cad>
          </ns3:TrackPointExtension>
        </extensions>
      </trkpt>
      <trkpt lat="45.32892557792365550994873046875" lon="-70.81398398615419864654541015625">
        <ele>914</ele>
        <time>2026-08-21T12:09:08.000Z</time>
        <extensions>
          <ns3:TrackPointExtension>
            <ns3:hr>146</ns3:hr>
            <ns3:cad>0</ns3:cad>
          </ns3:TrackPointExtension>
        </extensions>
      </trkpt>
      <trkpt lat="45.3289228118956089019775390625" lon="-70.81398314796388149261474609375">
        <ele>914.4000244140625</ele>
        <time>2026-08-21T12:09:09.000Z</time>
        <extensions>
          <ns3:TrackPointExtension>
            <ns3:hr>146</ns3:hr>
            <ns3:cad>0</ns3:cad>
          </ns3:TrackPointExtension>
        </extensions>
      </trkpt>
      <trkpt lat="45.32891853712499141693115234375" lon="-70.81397728063166141510009765625">
        <ele>914.5999755859375</ele>
        <time>2026-08-21T12:09:10.000Z</time>
        <extensions>
          <ns3:TrackPointExtension>
            <ns3:hr>145</ns3:hr>
            <ns3:cad>0</ns3:cad>
          </ns3:TrackPointExtension>
        </extensions>
      </trkpt>
      <trkpt lat="45.32891250215470790863037109375" lon="-70.81396705470979213714599609375">
        <ele>915</ele>
        <time>2026-08-21T12:09:11.000Z</time>
        <extensions>
          <ns3:TrackPointExtension>
            <ns3:hr>145</ns3:hr>
            <ns3:cad>0</ns3:cad>
          </ns3:TrackPointExtension>
        </extensions>
      </trkpt>
      <trkpt lat="45.32890579663217067718505859375" lon="-70.81394970417022705078125">
        <ele>915.20001220703125</ele>
        <time>2026-08-21T12:09:12.000Z</time>
        <extensions>
          <ns3:TrackPointExtension>
            <ns3:hr>145</ns3:hr>
            <ns3:cad>0</ns3:cad>
          </ns3:TrackPointExtension>
        </extensions>
      </trkpt>
      <trkpt lat="45.32890160568058490753173828125" lon="-70.81394207663834095001220703125">
        <ele>915.4000244140625</ele>
        <time>2026-08-21T12:09:13.000Z</time>
        <extensions>
          <ns3:TrackPointExtension>
            <ns3:hr>145</ns3:hr>
            <ns3:cad>0</ns3:cad>
          </ns3:TrackPointExtension>
        </extensions>
      </trkpt>
      <trkpt lat="45.32889540307223796844482421875" lon="-70.81393151544034481048583984375">
        <ele>915.5999755859375</ele>
        <time>2026-08-21T12:09:14.000Z</time>
        <extensions>
          <ns3:TrackPointExtension>
            <ns3:hr>144</ns3:hr>
            <ns3:cad>43</ns3:cad>
          </ns3:TrackPointExtension>
        </extensions>
      </trkpt>
      <trkpt lat="45.328888110816478729248046875" lon="-70.813920199871063232421875">
        <ele>915.5999755859375</ele>
        <time>2026-08-21T12:09:15.000Z</time>
        <extensions>
          <ns3:TrackPointExtension>
            <ns3:hr>145</ns3:hr>
            <ns3:cad>43</ns3:cad>
          </ns3:TrackPointExtension>
        </extensions>
      </trkpt>
      <trkpt lat="45.3288805671036243438720703125" lon="-70.8139032684266567230224609375">
        <ele>915.5999755859375</ele>
        <time>2026-08-21T12:09:16.000Z</time>
        <extensions>
          <ns3:TrackPointExtension>
            <ns3:hr>146</ns3:hr>
            <ns3:cad>43</ns3:cad>
          </ns3:TrackPointExtension>
        </extensions>
      </trkpt>
      <trkpt lat="45.32887495122849941253662109375" lon="-70.8138811402022838592529296875">
        <ele>915.5999755859375</ele>
        <time>2026-08-21T12:09:17.000Z</time>
        <extensions>
          <ns3:TrackPointExtension>
            <ns3:hr>146</ns3:hr>
            <ns3:cad>43</ns3:cad>
          </ns3:TrackPointExtension>
        </extensions>
      </trkpt>
      <trkpt lat="45.32886497676372528076171875" lon="-70.81386764533817768096923828125">
        <ele>915.79998779296875</ele>
        <time>2026-08-21T12:09:18.000Z</time>
        <extensions>
          <ns3:TrackPointExtension>
            <ns3:hr>146</ns3:hr>
            <ns3:cad>43</ns3:cad>
          </ns3:TrackPointExtension>
        </extensions>
      </trkpt>
      <trkpt lat="45.32885734923183917999267578125" lon="-70.81386010162532329559326171875">
        <ele>915.79998779296875</ele>
        <time>2026-08-21T12:09:19.000Z</time>
        <extensions>
          <ns3:TrackPointExtension>
            <ns3:hr>147</ns3:hr>
            <ns3:cad>0</ns3:cad>
          </ns3:TrackPointExtension>
        </extensions>
      </trkpt>
      <trkpt lat="45.3288497216999530792236328125" lon="-70.81384845077991485595703125">
        <ele>915.79998779296875</ele>
        <time>2026-08-21T12:09:20.000Z</time>
        <extensions>
          <ns3:TrackPointExtension>
            <ns3:hr>146</ns3:hr>
            <ns3:cad>0</ns3:cad>
          </ns3:TrackPointExtension>
        </extensions>
      </trkpt>
      <trkpt lat="45.32884025014936923980712890625" lon="-70.81383747048676013946533203125">
        <ele>916</ele>
        <time>2026-08-21T12:09:21.000Z</time>
        <extensions>
          <ns3:TrackPointExtension>
            <ns3:hr>147</ns3:hr>
            <ns3:cad>0</ns3:cad>
          </ns3:TrackPointExtension>
        </extensions>
      </trkpt>
      <trkpt lat="45.32883035950362682342529296875" lon="-70.81382908858358860015869140625">
        <ele>916</ele>
        <time>2026-08-21T12:09:22.000Z</time>
        <extensions>
          <ns3:TrackPointExtension>
            <ns3:hr>147</ns3:hr>
            <ns3:cad>0</ns3:cad>
          </ns3:TrackPointExtension>
        </extensions>
      </trkpt>
      <trkpt lat="45.3288155235350131988525390625" lon="-70.81381970085203647613525390625">
        <ele>916</ele>
        <time>2026-08-21T12:09:23.000Z</time>
        <extensions>
          <ns3:TrackPointExtension>
            <ns3:hr>147</ns3:hr>
            <ns3:cad>0</ns3:cad>
          </ns3:TrackPointExtension>
        </extensions>
      </trkpt>
      <trkpt lat="45.328800268471240997314453125" lon="-70.81381601281464099884033203125">
        <ele>916.20001220703125</ele>
        <time>2026-08-21T12:09:24.000Z</time>
        <extensions>
          <ns3:TrackPointExtension>
            <ns3:hr>147</ns3:hr>
            <ns3:cad>0</ns3:cad>
          </ns3:TrackPointExtension>
        </extensions>
      </trkpt>
      <trkpt lat="45.3287833370268344879150390625" lon="-70.81380813382565975189208984375">
        <ele>916.20001220703125</ele>
        <time>2026-08-21T12:09:25.000Z</time>
        <extensions>
          <ns3:TrackPointExtension>
            <ns3:hr>147</ns3:hr>
            <ns3:cad>0</ns3:cad>
          </ns3:TrackPointExtension>
        </extensions>
      </trkpt>
      <trkpt lat="45.32877252437174320220947265625" lon="-70.813802517950534820556640625">
        <ele>916.20001220703125</ele>
        <time>2026-08-21T12:09:26.000Z</time>
        <extensions>
          <ns3:TrackPointExtension>
            <ns3:hr>147</ns3:hr>
            <ns3:cad>0</ns3:cad>
          </ns3:TrackPointExtension>
        </extensions>
      </trkpt>
      <trkpt lat="45.32876363955438137054443359375" lon="-70.81378768198192119598388671875">
        <ele>916.20001220703125</ele>
        <time>2026-08-21T12:09:27.000Z</time>
        <extensions>
          <ns3:TrackPointExtension>
            <ns3:hr>146</ns3:hr>
            <ns3:cad>0</ns3:cad>
          </ns3:TrackPointExtension>
        </extensions>
      </trkpt>
      <trkpt lat="45.32875894568860530853271484375" lon="-70.81377812661230564117431640625">
        <ele>916.4000244140625</ele>
        <time>2026-08-21T12:09:28.000Z</time>
        <extensions>
          <ns3:TrackPointExtension>
            <ns3:hr>146</ns3:hr>
            <ns3:cad>0</ns3:cad>
          </ns3:TrackPointExtension>
        </extensions>
      </trkpt>
      <trkpt lat="45.32874486409127712249755859375" lon="-70.813771001994609832763671875">
        <ele>916.4000244140625</ele>
        <time>2026-08-21T12:09:29.000Z</time>
        <extensions>
          <ns3:TrackPointExtension>
            <ns3:hr>146</ns3:hr>
            <ns3:cad>0</ns3:cad>
          </ns3:TrackPointExtension>
        </extensions>
      </trkpt>
      <trkpt lat="45.3287343867123126983642578125" lon="-70.81376639194786548614501953125">
        <ele>916.4000244140625</ele>
        <time>2026-08-21T12:09:30.000Z</time>
        <extensions>
          <ns3:TrackPointExtension>
            <ns3:hr>146</ns3:hr>
            <ns3:cad>0</ns3:cad>
          </ns3:TrackPointExtension>
        </extensions>
      </trkpt>
      <trkpt lat="45.32872525043785572052001953125" lon="-70.81375499255955219268798828125">
        <ele>916.4000244140625</ele>
        <time>2026-08-21T12:09:31.000Z</time>
        <extensions>
          <ns3:TrackPointExtension>
            <ns3:hr>146</ns3:hr>
            <ns3:cad>55</ns3:cad>
          </ns3:TrackPointExtension>
        </extensions>
      </trkpt>
      <trkpt lat="45.328718461096286773681640625" lon="-70.813738815486431121826171875">
        <ele>916.5999755859375</ele>
        <time>2026-08-21T12:09:32.000Z</time>
        <extensions>
          <ns3:TrackPointExtension>
            <ns3:hr>146</ns3:hr>
            <ns3:cad>55</ns3:cad>
          </ns3:TrackPointExtension>
        </extensions>
      </trkpt>
      <trkpt lat="45.32870664261281490325927734375" lon="-70.8137275837361812591552734375">
        <ele>916.5999755859375</ele>
        <time>2026-08-21T12:09:33.000Z</time>
        <extensions>
          <ns3:TrackPointExtension>
            <ns3:hr>147</ns3:hr>
            <ns3:cad>55</ns3:cad>
          </ns3:TrackPointExtension>
        </extensions>
      </trkpt>
      <trkpt lat="45.32869599759578704833984375" lon="-70.813718028366565704345703125">
        <ele>916.79998779296875</ele>
        <time>2026-08-21T12:09:34.000Z</time>
        <extensions>
          <ns3:TrackPointExtension>
            <ns3:hr>146</ns3:hr>
            <ns3:cad>55</ns3:cad>
          </ns3:TrackPointExtension>
        </extensions>
      </trkpt>
      <trkpt lat="45.3286872804164886474609375" lon="-70.81370897591114044189453125">
        <ele>916.79998779296875</ele>
        <time>2026-08-21T12:09:35.000Z</time>
        <extensions>
          <ns3:TrackPointExtension>
            <ns3:hr>146</ns3:hr>
            <ns3:cad>0</ns3:cad>
          </ns3:TrackPointExtension>
        </extensions>
      </trkpt>
      <trkpt lat="45.328678227961063385009765625" lon="-70.8136957325041294097900390625">
        <ele>916.79998779296875</ele>
        <time>2026-08-21T12:09:36.000Z</time>
        <extensions>
          <ns3:TrackPointExtension>
            <ns3:hr>146</ns3:hr>
            <ns3:cad>0</ns3:cad>
          </ns3:TrackPointExtension>
        </extensions>
      </trkpt>
      <trkpt lat="45.32866607420146465301513671875" lon="-70.81368676386773586273193359375">
        <ele>916.79998779296875</ele>
        <time>2026-08-21T12:09:37.000Z</time>
        <extensions>
          <ns3:TrackPointExtension>
            <ns3:hr>145</ns3:hr>
            <ns3:cad>0</ns3:cad>
          </ns3:TrackPointExtension>
        </extensions>
      </trkpt>
      <trkpt lat="45.32865400426089763641357421875" lon="-70.813676454126834869384765625">
        <ele>916.79998779296875</ele>
        <time>2026-08-21T12:09:38.000Z</time>
        <extensions>
          <ns3:TrackPointExtension>
            <ns3:hr>144</ns3:hr>
            <ns3:cad>50</ns3:cad>
          </ns3:TrackPointExtension>
        </extensions>
      </trkpt>
      <trkpt lat="45.32864495180547237396240234375" lon="-70.8136668987572193145751953125">
        <ele>917</ele>
        <time>2026-08-21T12:09:39.000Z</time>
        <extensions>
          <ns3:TrackPointExtension>
            <ns3:hr>144</ns3:hr>
            <ns3:cad>50</ns3:cad>
          </ns3:TrackPointExtension>
        </extensions>
      </trkpt>
      <trkpt lat="45.328634642064571380615234375" lon="-70.81364971585571765899658203125">
        <ele>917</ele>
        <time>2026-08-21T12:09:40.000Z</time>
        <extensions>
          <ns3:TrackPointExtension>
            <ns3:hr>144</ns3:hr>
            <ns3:cad>0</ns3:cad>
          </ns3:TrackPointExtension>
        </extensions>
      </trkpt>
      <trkpt lat="45.3286217339336872100830078125" lon="-70.81363395787775516510009765625">
        <ele>917.20001220703125</ele>
        <time>2026-08-21T12:09:41.000Z</time>
        <extensions>
          <ns3:TrackPointExtension>
            <ns3:hr>144</ns3:hr>
            <ns3:cad>51</ns3:cad>
          </ns3:TrackPointExtension>
        </extensions>
      </trkpt>
      <trkpt lat="45.3286113403737545013427734375" lon="-70.81362155266106128692626953125">
        <ele>917.20001220703125</ele>
        <time>2026-08-21T12:09:42.000Z</time>
        <extensions>
          <ns3:TrackPointExtension>
            <ns3:hr>143</ns3:hr>
            <ns3:cad>51</ns3:cad>
          </ns3:TrackPointExtension>
        </extensions>
      </trkpt>
      <trkpt lat="45.32860212028026580810546875" lon="-70.81360797397792339324951171875">
        <ele>917.20001220703125</ele>
        <time>2026-08-21T12:09:43.000Z</time>
        <extensions>
          <ns3:TrackPointExtension>
            <ns3:hr>143</ns3:hr>
            <ns3:cad>51</ns3:cad>
          </ns3:TrackPointExtension>
        </extensions>
      </trkpt>
      <trkpt lat="45.3285949118435382843017578125" lon="-70.813587941229343414306640625">
        <ele>917.20001220703125</ele>
        <time>2026-08-21T12:09:44.000Z</time>
        <extensions>
          <ns3:TrackPointExtension>
            <ns3:hr>143</ns3:hr>
            <ns3:cad>51</ns3:cad>
          </ns3:TrackPointExtension>
        </extensions>
      </trkpt>
      <trkpt lat="45.328589715063571929931640625" lon="-70.81357260234653949737548828125">
        <ele>917.20001220703125</ele>
        <time>2026-08-21T12:09:45.000Z</time>
        <extensions>
          <ns3:TrackPointExtension>
            <ns3:hr>142</ns3:hr>
            <ns3:cad>51</ns3:cad>
          </ns3:TrackPointExtension>
        </extensions>
      </trkpt>
      <trkpt lat="45.3285808302462100982666015625" lon="-70.8135505579411983489990234375">
        <ele>917.4000244140625</ele>
        <time>2026-08-21T12:09:46.000Z</time>
        <extensions>
          <ns3:TrackPointExtension>
            <ns3:hr>142</ns3:hr>
            <ns3:cad>51</ns3:cad>
          </ns3:TrackPointExtension>
        </extensions>
      </trkpt>
      <trkpt lat="45.32856984995305538177490234375" lon="-70.8135331235826015472412109375">
        <ele>917.4000244140625</ele>
        <time>2026-08-21T12:09:47.000Z</time>
        <extensions>
          <ns3:TrackPointExtension>
            <ns3:hr>142</ns3:hr>
            <ns3:cad>51</ns3:cad>
          </ns3:TrackPointExtension>
        </extensions>
      </trkpt>
      <trkpt lat="45.32855828292667865753173828125" lon="-70.8135192096233367919921875">
        <ele>917.4000244140625</ele>
        <time>2026-08-21T12:09:48.000Z</time>
        <extensions>
          <ns3:TrackPointExtension>
            <ns3:hr>142</ns3:hr>
            <ns3:cad>51</ns3:cad>
          </ns3:TrackPointExtension>
        </extensions>
      </trkpt>
      <trkpt lat="45.32854621298611164093017578125" lon="-70.81351057626307010650634765625">
        <ele>917.5999755859375</ele>
        <time>2026-08-21T12:09:49.000Z</time>
        <extensions>
          <ns3:TrackPointExtension>
            <ns3:hr>142</ns3:hr>
            <ns3:cad>51</ns3:cad>
          </ns3:TrackPointExtension>
        </extensions>
      </trkpt>
      <trkpt lat="45.3285359032452106475830078125" lon="-70.8135019429028034210205078125">
        <ele>917.5999755859375</ele>
        <time>2026-08-21T12:09:50.000Z</time>
        <extensions>
          <ns3:TrackPointExtension>
            <ns3:hr>142</ns3:hr>
            <ns3:cad>51</ns3:cad>
          </ns3:TrackPointExtension>
        </extensions>
      </trkpt>
      <trkpt lat="45.32851855270564556121826171875" lon="-70.81348392181098461151123046875">
        <ele>917.5999755859375</ele>
        <time>2026-08-21T12:09:51.000Z</time>
        <extensions>
          <ns3:TrackPointExtension>
            <ns3:hr>142</ns3:hr>
            <ns3:cad>51</ns3:cad>
          </ns3:TrackPointExtension>
        </extensions>
      </trkpt>
      <trkpt lat="45.3285050578415393829345703125" lon="-70.8134704269468784332275390625">
        <ele>917.5999755859375</ele>
        <time>2026-08-21T12:09:52.000Z</time>
        <extensions>
          <ns3:TrackPointExtension>
            <ns3:hr>142</ns3:hr>
            <ns3:cad>0</ns3:cad>
          </ns3:TrackPointExtension>
        </extensions>
      </trkpt>
      <trkpt lat="45.32849013805389404296875" lon="-70.8134596981108188629150390625">
        <ele>917.5999755859375</ele>
        <time>2026-08-21T12:09:53.000Z</time>
        <extensions>
          <ns3:TrackPointExtension>
            <ns3:hr>142</ns3:hr>
            <ns3:cad>0</ns3:cad>
          </ns3:TrackPointExtension>
        </extensions>
      </trkpt>
      <trkpt lat="45.32847764901816844940185546875" lon="-70.81344905309379100799560546875">
        <ele>917.79998779296875</ele>
        <time>2026-08-21T12:09:54.000Z</time>
        <extensions>
          <ns3:TrackPointExtension>
            <ns3:hr>142</ns3:hr>
            <ns3:cad>0</ns3:cad>
          </ns3:TrackPointExtension>
        </extensions>
      </trkpt>
      <trkpt lat="45.32846004702150821685791015625" lon="-70.8134291879832744598388671875">
        <ele>917.79998779296875</ele>
        <time>2026-08-21T12:09:55.000Z</time>
        <extensions>
          <ns3:TrackPointExtension>
            <ns3:hr>142</ns3:hr>
            <ns3:cad>0</ns3:cad>
          </ns3:TrackPointExtension>
        </extensions>
      </trkpt>
      <trkpt lat="45.32844563014805316925048828125" lon="-70.8134077303111553192138671875">
        <ele>917.79998779296875</ele>
        <time>2026-08-21T12:09:56.000Z</time>
        <extensions>
          <ns3:TrackPointExtension>
            <ns3:hr>142</ns3:hr>
            <ns3:cad>0</ns3:cad>
          </ns3:TrackPointExtension>
        </extensions>
      </trkpt>
      <trkpt lat="45.32843439839780330657958984375" lon="-70.81339205615222454071044921875">
        <ele>917.79998779296875</ele>
        <time>2026-08-21T12:09:57.000Z</time>
        <extensions>
          <ns3:TrackPointExtension>
            <ns3:hr>142</ns3:hr>
            <ns3:cad>0</ns3:cad>
          </ns3:TrackPointExtension>
        </extensions>
      </trkpt>
      <trkpt lat="45.32842014916241168975830078125" lon="-70.81337512470781803131103515625">
        <ele>917.79998779296875</ele>
        <time>2026-08-21T12:09:58.000Z</time>
        <extensions>
          <ns3:TrackPointExtension>
            <ns3:hr>141</ns3:hr>
            <ns3:cad>0</ns3:cad>
          </ns3:TrackPointExtension>
        </extensions>
      </trkpt>
      <trkpt lat="45.32840975560247898101806640625" lon="-70.81335685215890407562255859375">
        <ele>918</ele>
        <time>2026-08-21T12:09:59.000Z</time>
        <extensions>
          <ns3:TrackPointExtension>
            <ns3:hr>141</ns3:hr>
            <ns3:cad>0</ns3:cad>
          </ns3:TrackPointExtension>
        </extensions>
      </trkpt>
      <trkpt lat="45.32840036787092685699462890625" lon="-70.81334226764738559722900390625">
        <ele>918.20001220703125</ele>
        <time>2026-08-21T12:10:00.000Z</time>
        <extensions>
          <ns3:TrackPointExtension>
            <ns3:hr>141</ns3:hr>
            <ns3:cad>0</ns3:cad>
          </ns3:TrackPointExtension>
        </extensions>
      </trkpt>
      <trkpt lat="45.32839382998645305633544921875" lon="-70.81333204172551631927490234375">
        <ele>918.20001220703125</ele>
        <time>2026-08-21T12:10:01.000Z</time>
        <extensions>
          <ns3:TrackPointExtension>
            <ns3:hr>141</ns3:hr>
            <ns3:cad>0</ns3:cad>
          </ns3:TrackPointExtension>
        </extensions>
      </trkpt>
      <trkpt lat="45.32838511280715465545654296875" lon="-70.813313685357570648193359375">
        <ele>918.4000244140625</ele>
        <time>2026-08-21T12:10:02.000Z</time>
        <extensions>
          <ns3:TrackPointExtension>
            <ns3:hr>140</ns3:hr>
            <ns3:cad>0</ns3:cad>
          </ns3:TrackPointExtension>
        </extensions>
      </trkpt>
      <trkpt lat="45.328375138342380523681640625" lon="-70.81330069340765476226806640625">
        <ele>918.4000244140625</ele>
        <time>2026-08-21T12:10:03.000Z</time>
        <extensions>
          <ns3:TrackPointExtension>
            <ns3:hr>140</ns3:hr>
            <ns3:cad>0</ns3:cad>
          </ns3:TrackPointExtension>
        </extensions>
      </trkpt>
      <trkpt lat="45.3283645771443843841552734375" lon="-70.81328946165740489959716796875">
        <ele>918.4000244140625</ele>
        <time>2026-08-21T12:10:04.000Z</time>
        <extensions>
          <ns3:TrackPointExtension>
            <ns3:hr>139</ns3:hr>
            <ns3:cad>0</ns3:cad>
          </ns3:TrackPointExtension>
        </extensions>
      </trkpt>
      <trkpt lat="45.328353010118007659912109375" lon="-70.813271440565586090087890625">
        <ele>918.20001220703125</ele>
        <time>2026-08-21T12:10:05.000Z</time>
        <extensions>
          <ns3:TrackPointExtension>
            <ns3:hr>139</ns3:hr>
            <ns3:cad>0</ns3:cad>
          </ns3:TrackPointExtension>
        </extensions>
      </trkpt>
      <trkpt lat="45.32834085635840892791748046875" lon="-70.8132563531398773193359375">
        <ele>918.20001220703125</ele>
        <time>2026-08-21T12:10:06.000Z</time>
        <extensions>
          <ns3:TrackPointExtension>
            <ns3:hr>139</ns3:hr>
            <ns3:cad>0</ns3:cad>
          </ns3:TrackPointExtension>
        </extensions>
      </trkpt>
      <trkpt lat="45.32833264209330081939697265625" lon="-70.8132424391806125640869140625">
        <ele>918.20001220703125</ele>
        <time>2026-08-21T12:10:07.000Z</time>
        <extensions>
          <ns3:TrackPointExtension>
            <ns3:hr>139</ns3:hr>
            <ns3:cad>0</ns3:cad>
          </ns3:TrackPointExtension>
        </extensions>
      </trkpt>
      <trkpt lat="45.32832509838044643402099609375" lon="-70.8132219873368740081787109375">
        <ele>918.20001220703125</ele>
        <time>2026-08-21T12:10:08.000Z</time>
        <extensions>
          <ns3:TrackPointExtension>
            <ns3:hr>139</ns3:hr>
            <ns3:cad>0</ns3:cad>
          </ns3:TrackPointExtension>
        </extensions>
      </trkpt>
      <trkpt lat="45.32831487245857715606689453125" lon="-70.81320564262568950653076171875">
        <ele>918.20001220703125</ele>
        <time>2026-08-21T12:10:09.000Z</time>
        <extensions>
          <ns3:TrackPointExtension>
            <ns3:hr>139</ns3:hr>
            <ns3:cad>56</ns3:cad>
          </ns3:TrackPointExtension>
        </extensions>
      </trkpt>
      <trkpt lat="45.32830171287059783935546875" lon="-70.81318460404872894287109375">
        <ele>918.4000244140625</ele>
        <time>2026-08-21T12:10:10.000Z</time>
        <extensions>
          <ns3:TrackPointExtension>
            <ns3:hr>140</ns3:hr>
            <ns3:cad>56</ns3:cad>
          </ns3:TrackPointExtension>
        </extensions>
      </trkpt>
      <trkpt lat="45.3282903134822845458984375" lon="-70.81316641531884670257568359375">
        <ele>918.5999755859375</ele>
        <time>2026-08-21T12:10:11.000Z</time>
        <extensions>
          <ns3:TrackPointExtension>
            <ns3:hr>140</ns3:hr>
            <ns3:cad>56</ns3:cad>
          </ns3:TrackPointExtension>
        </extensions>
      </trkpt>
      <trkpt lat="45.3282730467617511749267578125" lon="-70.81314831040799617767333984375">
        <ele>918.79998779296875</ele>
        <time>2026-08-21T12:10:12.000Z</time>
        <extensions>
          <ns3:TrackPointExtension>
            <ns3:hr>140</ns3:hr>
            <ns3:cad>0</ns3:cad>
          </ns3:TrackPointExtension>
        </extensions>
      </trkpt>
      <trkpt lat="45.3282586298882961273193359375" lon="-70.81314009614288806915283203125">
        <ele>919</ele>
        <time>2026-08-21T12:10:13.000Z</time>
        <extensions>
          <ns3:TrackPointExtension>
            <ns3:hr>140</ns3:hr>
            <ns3:cad>0</ns3:cad>
          </ns3:TrackPointExtension>
        </extensions>
      </trkpt>
      <trkpt lat="45.3282462246716022491455078125" lon="-70.8131348155438899993896484375">
        <ele>919.20001220703125</ele>
        <time>2026-08-21T12:10:14.000Z</time>
        <extensions>
          <ns3:TrackPointExtension>
            <ns3:hr>140</ns3:hr>
            <ns3:cad>0</ns3:cad>
          </ns3:TrackPointExtension>
        </extensions>
      </trkpt>
      <trkpt lat="45.32823541201651096343994140625" lon="-70.81312970258295536041259765625">
        <ele>919.4000244140625</ele>
        <time>2026-08-21T12:10:15.000Z</time>
        <extensions>
          <ns3:TrackPointExtension>
            <ns3:hr>139</ns3:hr>
            <ns3:cad>0</ns3:cad>
          </ns3:TrackPointExtension>
        </extensions>
      </trkpt>
      <trkpt lat="45.3282271139323711395263671875" lon="-70.813129954040050506591796875">
        <ele>919.5999755859375</ele>
        <time>2026-08-21T12:10:16.000Z</time>
        <extensions>
          <ns3:TrackPointExtension>
            <ns3:hr>140</ns3:hr>
            <ns3:cad>0</ns3:cad>
          </ns3:TrackPointExtension>
        </extensions>
      </trkpt>
      <trkpt lat="45.3282205760478973388671875" lon="-70.8131247572600841522216796875">
        <ele>919.79998779296875</ele>
        <time>2026-08-21T12:10:17.000Z</time>
        <extensions>
          <ns3:TrackPointExtension>
            <ns3:hr>140</ns3:hr>
            <ns3:cad>0</ns3:cad>
          </ns3:TrackPointExtension>
        </extensions>
      </trkpt>
      <trkpt lat="45.328210853040218353271484375" lon="-70.81311310641467571258544921875">
        <ele>919.79998779296875</ele>
        <time>2026-08-21T12:10:18.000Z</time>
        <extensions>
          <ns3:TrackPointExtension>
            <ns3:hr>140</ns3:hr>
            <ns3:cad>0</ns3:cad>
          </ns3:TrackPointExtension>
        </extensions>
      </trkpt>
      <trkpt lat="45.32820054329931735992431640625" lon="-70.81309969536960124969482421875">
        <ele>920</ele>
        <time>2026-08-21T12:10:19.000Z</time>
        <extensions>
          <ns3:TrackPointExtension>
            <ns3:hr>139</ns3:hr>
            <ns3:cad>0</ns3:cad>
          </ns3:TrackPointExtension>
        </extensions>
      </trkpt>
      <trkpt lat="45.32819132320582866668701171875" lon="-70.8130828477442264556884765625">
        <ele>920</ele>
        <time>2026-08-21T12:10:20.000Z</time>
        <extensions>
          <ns3:TrackPointExtension>
            <ns3:hr>140</ns3:hr>
            <ns3:cad>0</ns3:cad>
          </ns3:TrackPointExtension>
        </extensions>
      </trkpt>
      <trkpt lat="45.32818092964589595794677734375" lon="-70.813067592680454254150390625">
        <ele>920.20001220703125</ele>
        <time>2026-08-21T12:10:21.000Z</time>
        <extensions>
          <ns3:TrackPointExtension>
            <ns3:hr>140</ns3:hr>
            <ns3:cad>0</ns3:cad>
          </ns3:TrackPointExtension>
        </extensions>
      </trkpt>
      <trkpt lat="45.32817162573337554931640625" lon="-70.8130499906837940216064453125">
        <ele>920.5999755859375</ele>
        <time>2026-08-21T12:10:22.000Z</time>
        <extensions>
          <ns3:TrackPointExtension>
            <ns3:hr>140</ns3:hr>
            <ns3:cad>0</ns3:cad>
          </ns3:TrackPointExtension>
        </extensions>
      </trkpt>
      <trkpt lat="45.32816265709698200225830078125" lon="-70.8130416087806224822998046875">
        <ele>920.79998779296875</ele>
        <time>2026-08-21T12:10:23.000Z</time>
        <extensions>
          <ns3:TrackPointExtension>
            <ns3:hr>140</ns3:hr>
            <ns3:cad>0</ns3:cad>
          </ns3:TrackPointExtension>
        </extensions>
      </trkpt>
      <trkpt lat="45.32815243117511272430419921875" lon="-70.81302509643137454986572265625">
        <ele>921.20001220703125</ele>
        <time>2026-08-21T12:10:24.000Z</time>
        <extensions>
          <ns3:TrackPointExtension>
            <ns3:hr>140</ns3:hr>
            <ns3:cad>0</ns3:cad>
          </ns3:TrackPointExtension>
        </extensions>
      </trkpt>
      <trkpt lat="45.3281422890722751617431640625" lon="-70.8130095899105072021484375">
        <ele>921.5999755859375</ele>
        <time>2026-08-21T12:10:25.000Z</time>
        <extensions>
          <ns3:TrackPointExtension>
            <ns3:hr>140</ns3:hr>
            <ns3:cad>0</ns3:cad>
          </ns3:TrackPointExtension>
        </extensions>
      </trkpt>
      <trkpt lat="45.3281362541019916534423828125" lon="-70.8129926584661006927490234375">
        <ele>922</ele>
        <time>2026-08-21T12:10:26.000Z</time>
        <extensions>
          <ns3:TrackPointExtension>
            <ns3:hr>140</ns3:hr>
            <ns3:cad>0</ns3:cad>
          </ns3:TrackPointExtension>
        </extensions>
      </trkpt>
      <trkpt lat="45.32813130877912044525146484375" lon="-70.81297346390783786773681640625">
        <ele>922.4000244140625</ele>
        <time>2026-08-21T12:10:27.000Z</time>
        <extensions>
          <ns3:TrackPointExtension>
            <ns3:hr>140</ns3:hr>
            <ns3:cad>0</ns3:cad>
          </ns3:TrackPointExtension>
        </extensions>
      </trkpt>
      <trkpt lat="45.3281235136091709136962890625" lon="-70.81295569427311420440673828125">
        <ele>922.79998779296875</ele>
        <time>2026-08-21T12:10:28.000Z</time>
        <extensions>
          <ns3:TrackPointExtension>
            <ns3:hr>141</ns3:hr>
            <ns3:cad>0</ns3:cad>
          </ns3:TrackPointExtension>
        </extensions>
      </trkpt>
      <trkpt lat="45.32811538316309452056884765625" lon="-70.81294798292219638824462890625">
        <ele>923</ele>
        <time>2026-08-21T12:10:29.000Z</time>
        <extensions>
          <ns3:TrackPointExtension>
            <ns3:hr>141</ns3:hr>
            <ns3:cad>0</ns3:cad>
          </ns3:TrackPointExtension>
        </extensions>
      </trkpt>
      <trkpt lat="45.32810566015541553497314453125" lon="-70.8129396848380565643310546875">
        <ele>923.20001220703125</ele>
        <time>2026-08-21T12:10:30.000Z</time>
        <extensions>
          <ns3:TrackPointExtension>
            <ns3:hr>141</ns3:hr>
            <ns3:cad>53</ns3:cad>
          </ns3:TrackPointExtension>
        </extensions>
      </trkpt>
      <trkpt lat="45.32809509895741939544677734375" lon="-70.812920741736888885498046875">
        <ele>923.4000244140625</ele>
        <time>2026-08-21T12:10:31.000Z</time>
        <extensions>
          <ns3:TrackPointExtension>
            <ns3:hr>142</ns3:hr>
            <ns3:cad>53</ns3:cad>
          </ns3:TrackPointExtension>
        </extensions>
      </trkpt>
      <trkpt lat="45.3280893154442310333251953125" lon="-70.812905319035053253173828125">
        <ele>923.5999755859375</ele>
        <time>2026-08-21T12:10:32.000Z</time>
        <extensions>
          <ns3:TrackPointExtension>
            <ns3:hr>142</ns3:hr>
            <ns3:cad>53</ns3:cad>
          </ns3:TrackPointExtension>
        </extensions>
      </trkpt>
      <trkpt lat="45.32808219082653522491455078125" lon="-70.81288562156260013580322265625">
        <ele>923.79998779296875</ele>
        <time>2026-08-21T12:10:33.000Z</time>
        <extensions>
          <ns3:TrackPointExtension>
            <ns3:hr>143</ns3:hr>
            <ns3:cad>53</ns3:cad>
          </ns3:TrackPointExtension>
        </extensions>
      </trkpt>
      <trkpt lat="45.32807380892336368560791015625" lon="-70.81286667846143245697021484375">
        <ele>923.79998779296875</ele>
        <time>2026-08-21T12:10:34.000Z</time>
        <extensions>
          <ns3:TrackPointExtension>
            <ns3:hr>143</ns3:hr>
            <ns3:cad>53</ns3:cad>
          </ns3:TrackPointExtension>
        </extensions>
      </trkpt>
      <trkpt lat="45.3280685283243656158447265625" lon="-70.81284656189382076263427734375">
        <ele>924</ele>
        <time>2026-08-21T12:10:35.000Z</time>
        <extensions>
          <ns3:TrackPointExtension>
            <ns3:hr>144</ns3:hr>
            <ns3:cad>53</ns3:cad>
          </ns3:TrackPointExtension>
        </extensions>
      </trkpt>
      <trkpt lat="45.32806240953505039215087890625" lon="-70.812826864421367645263671875">
        <ele>924</ele>
        <time>2026-08-21T12:10:36.000Z</time>
        <extensions>
          <ns3:TrackPointExtension>
            <ns3:hr>145</ns3:hr>
            <ns3:cad>53</ns3:cad>
          </ns3:TrackPointExtension>
        </extensions>
      </trkpt>
      <trkpt lat="45.3280542790889739990234375" lon="-70.8128072507679462432861328125">
        <ele>924</ele>
        <time>2026-08-21T12:10:37.000Z</time>
        <extensions>
          <ns3:TrackPointExtension>
            <ns3:hr>145</ns3:hr>
            <ns3:cad>53</ns3:cad>
          </ns3:TrackPointExtension>
        </extensions>
      </trkpt>
      <trkpt lat="45.32803977839648723602294921875" lon="-70.8127931691706180572509765625">
        <ele>924</ele>
        <time>2026-08-21T12:10:38.000Z</time>
        <extensions>
          <ns3:TrackPointExtension>
            <ns3:hr>146</ns3:hr>
            <ns3:cad>0</ns3:cad>
          </ns3:TrackPointExtension>
        </extensions>
      </trkpt>
      <trkpt lat="45.32803156413137912750244140625" lon="-70.8127827756106853485107421875">
        <ele>923.79998779296875</ele>
        <time>2026-08-21T12:10:39.000Z</time>
        <extensions>
          <ns3:TrackPointExtension>
            <ns3:hr>146</ns3:hr>
            <ns3:cad>0</ns3:cad>
          </ns3:TrackPointExtension>
        </extensions>
      </trkpt>
      <trkpt lat="45.3280236013233661651611328125" lon="-70.81276374869048595428466796875">
        <ele>923.5999755859375</ele>
        <time>2026-08-21T12:10:40.000Z</time>
        <extensions>
          <ns3:TrackPointExtension>
            <ns3:hr>146</ns3:hr>
            <ns3:cad>0</ns3:cad>
          </ns3:TrackPointExtension>
        </extensions>
      </trkpt>
      <trkpt lat="45.32801815308630466461181640625" lon="-70.8127412013709545135498046875">
        <ele>923.4000244140625</ele>
        <time>2026-08-21T12:10:41.000Z</time>
        <extensions>
          <ns3:TrackPointExtension>
            <ns3:hr>147</ns3:hr>
            <ns3:cad>0</ns3:cad>
          </ns3:TrackPointExtension>
        </extensions>
      </trkpt>
      <trkpt lat="45.32800792716443538665771484375" lon="-70.8127197436988353729248046875">
        <ele>923.4000244140625</ele>
        <time>2026-08-21T12:10:42.000Z</time>
        <extensions>
          <ns3:TrackPointExtension>
            <ns3:hr>147</ns3:hr>
            <ns3:cad>0</ns3:cad>
          </ns3:TrackPointExtension>
        </extensions>
      </trkpt>
      <trkpt lat="45.328000970184803009033203125" lon="-70.8127002976834774017333984375">
        <ele>923.20001220703125</ele>
        <time>2026-08-21T12:10:43.000Z</time>
        <extensions>
          <ns3:TrackPointExtension>
            <ns3:hr>147</ns3:hr>
            <ns3:cad>0</ns3:cad>
          </ns3:TrackPointExtension>
        </extensions>
      </trkpt>
      <trkpt lat="45.32799233682453632354736328125" lon="-70.8126761578023433685302734375">
        <ele>923.20001220703125</ele>
        <time>2026-08-21T12:10:44.000Z</time>
        <extensions>
          <ns3:TrackPointExtension>
            <ns3:hr>147</ns3:hr>
            <ns3:cad>0</ns3:cad>
          </ns3:TrackPointExtension>
        </extensions>
      </trkpt>
      <trkpt lat="45.32798429019749164581298828125" lon="-70.81265143118798732757568359375">
        <ele>923.20001220703125</ele>
        <time>2026-08-21T12:10:45.000Z</time>
        <extensions>
          <ns3:TrackPointExtension>
            <ns3:hr>147</ns3:hr>
            <ns3:cad>16</ns3:cad>
          </ns3:TrackPointExtension>
        </extensions>
      </trkpt>
      <trkpt lat="45.327978171408176422119140625" lon="-70.812634415924549102783203125">
        <ele>923.20001220703125</ele>
        <time>2026-08-21T12:10:46.000Z</time>
        <extensions>
          <ns3:TrackPointExtension>
            <ns3:hr>148</ns3:hr>
            <ns3:cad>16</ns3:cad>
          </ns3:TrackPointExtension>
        </extensions>
      </trkpt>
      <trkpt lat="45.32797439955174922943115234375" lon="-70.81261505372822284698486328125">
        <ele>923.4000244140625</ele>
        <time>2026-08-21T12:10:47.000Z</time>
        <extensions>
          <ns3:TrackPointExtension>
            <ns3:hr>148</ns3:hr>
            <ns3:cad>16</ns3:cad>
          </ns3:TrackPointExtension>
        </extensions>
      </trkpt>
      <trkpt lat="45.3279790095984935760498046875" lon="-70.81260080449283123016357421875">
        <ele>923.4000244140625</ele>
        <time>2026-08-21T12:10:48.000Z</time>
        <extensions>
          <ns3:TrackPointExtension>
            <ns3:hr>148</ns3:hr>
            <ns3:cad>16</ns3:cad>
          </ns3:TrackPointExtension>
        </extensions>
      </trkpt>
      <trkpt lat="45.32797490246593952178955078125" lon="-70.812577418982982635498046875">
        <ele>923.4000244140625</ele>
        <time>2026-08-21T12:10:49.000Z</time>
        <extensions>
          <ns3:TrackPointExtension>
            <ns3:hr>148</ns3:hr>
            <ns3:cad>16</ns3:cad>
          </ns3:TrackPointExtension>
        </extensions>
      </trkpt>
      <trkpt lat="45.32796752639114856719970703125" lon="-70.81257062964141368865966796875">
        <ele>923.4000244140625</ele>
        <time>2026-08-21T12:10:50.000Z</time>
        <extensions>
          <ns3:TrackPointExtension>
            <ns3:hr>147</ns3:hr>
            <ns3:cad>16</ns3:cad>
          </ns3:TrackPointExtension>
        </extensions>
      </trkpt>
      <trkpt lat="45.32795998267829418182373046875" lon="-70.81255721859633922576904296875">
        <ele>923.4000244140625</ele>
        <time>2026-08-21T12:10:51.000Z</time>
        <extensions>
          <ns3:TrackPointExtension>
            <ns3:hr>148</ns3:hr>
            <ns3:cad>16</ns3:cad>
          </ns3:TrackPointExtension>
        </extensions>
      </trkpt>
      <trkpt lat="45.32795428298413753509521484375" lon="-70.812545903027057647705078125">
        <ele>923.4000244140625</ele>
        <time>2026-08-21T12:10:52.000Z</time>
        <extensions>
          <ns3:TrackPointExtension>
            <ns3:hr>148</ns3:hr>
            <ns3:cad>16</ns3:cad>
          </ns3:TrackPointExtension>
        </extensions>
      </trkpt>
      <trkpt lat="45.327947996556758880615234375" lon="-70.812527127563953399658203125">
        <ele>923.20001220703125</ele>
        <time>2026-08-21T12:10:53.000Z</time>
        <extensions>
          <ns3:TrackPointExtension>
            <ns3:hr>148</ns3:hr>
            <ns3:cad>16</ns3:cad>
          </ns3:TrackPointExtension>
        </extensions>
      </trkpt>
      <trkpt lat="45.32794472761452198028564453125" lon="-70.8125145547091960906982421875">
        <ele>923</ele>
        <time>2026-08-21T12:10:54.000Z</time>
        <extensions>
          <ns3:TrackPointExtension>
            <ns3:hr>147</ns3:hr>
            <ns3:cad>0</ns3:cad>
          </ns3:TrackPointExtension>
        </extensions>
      </trkpt>
      <trkpt lat="45.32794254831969738006591796875" lon="-70.8124961145222187042236328125">
        <ele>922.79998779296875</ele>
        <time>2026-08-21T12:10:55.000Z</time>
        <extensions>
          <ns3:TrackPointExtension>
            <ns3:hr>147</ns3:hr>
            <ns3:cad>0</ns3:cad>
          </ns3:TrackPointExtension>
        </extensions>
      </trkpt>
      <trkpt lat="45.3279414586722850799560546875" lon="-70.8124793507158756256103515625">
        <ele>922.5999755859375</ele>
        <time>2026-08-21T12:10:56.000Z</time>
        <extensions>
          <ns3:TrackPointExtension>
            <ns3:hr>147</ns3:hr>
            <ns3:cad>0</ns3:cad>
          </ns3:TrackPointExtension>
        </extensions>
      </trkpt>
      <trkpt lat="45.32794171012938022613525390625" lon="-70.812463425099849700927734375">
        <ele>922.4000244140625</ele>
        <time>2026-08-21T12:10:57.000Z</time>
        <extensions>
          <ns3:TrackPointExtension>
            <ns3:hr>147</ns3:hr>
            <ns3:cad>0</ns3:cad>
          </ns3:TrackPointExtension>
        </extensions>
      </trkpt>
      <trkpt lat="45.32793852500617504119873046875" lon="-70.81244506873190402984619140625">
        <ele>922.20001220703125</ele>
        <time>2026-08-21T12:10:58.000Z</time>
        <extensions>
          <ns3:TrackPointExtension>
            <ns3:hr>147</ns3:hr>
            <ns3:cad>0</ns3:cad>
          </ns3:TrackPointExtension>
        </extensions>
      </trkpt>
      <trkpt lat="45.32793299295008182525634765625" lon="-70.81243065185844898223876953125">
        <ele>922.20001220703125</ele>
        <time>2026-08-21T12:10:59.000Z</time>
        <extensions>
          <ns3:TrackPointExtension>
            <ns3:hr>146</ns3:hr>
            <ns3:cad>54</ns3:cad>
          </ns3:TrackPointExtension>
        </extensions>
      </trkpt>
      <trkpt lat="45.32792276702821254730224609375" lon="-70.8124133013188838958740234375">
        <ele>922</ele>
        <time>2026-08-21T12:11:00.000Z</time>
        <extensions>
          <ns3:TrackPointExtension>
            <ns3:hr>146</ns3:hr>
            <ns3:cad>54</ns3:cad>
          </ns3:TrackPointExtension>
        </extensions>
      </trkpt>
      <trkpt lat="45.32791421748697757720947265625" lon="-70.81240617670118808746337890625">
        <ele>921.79998779296875</ele>
        <time>2026-08-21T12:11:01.000Z</time>
        <extensions>
          <ns3:TrackPointExtension>
            <ns3:hr>146</ns3:hr>
            <ns3:cad>54</ns3:cad>
          </ns3:TrackPointExtension>
        </extensions>
      </trkpt>
      <trkpt lat="45.32790382392704486846923828125" lon="-70.81240550614893436431884765625">
        <ele>921.5999755859375</ele>
        <time>2026-08-21T12:11:02.000Z</time>
        <extensions>
          <ns3:TrackPointExtension>
            <ns3:hr>145</ns3:hr>
            <ns3:cad>54</ns3:cad>
          </ns3:TrackPointExtension>
        </extensions>
      </trkpt>
      <trkpt lat="45.32789611257612705230712890625" lon="-70.81240567378699779510498046875">
        <ele>921.4000244140625</ele>
        <time>2026-08-21T12:11:03.000Z</time>
        <extensions>
          <ns3:TrackPointExtension>
            <ns3:hr>145</ns3:hr>
            <ns3:cad>54</ns3:cad>
          </ns3:TrackPointExtension>
        </extensions>
      </trkpt>
      <trkpt lat="45.327893681824207305908203125" lon="-70.8123965375125408172607421875">
        <ele>921.4000244140625</ele>
        <time>2026-08-21T12:11:04.000Z</time>
        <extensions>
          <ns3:TrackPointExtension>
            <ns3:hr>143</ns3:hr>
            <ns3:cad>54</ns3:cad>
          </ns3:TrackPointExtension>
        </extensions>
      </trkpt>
      <trkpt lat="45.327888317406177520751953125" lon="-70.81237935461103916168212890625">
        <ele>921.20001220703125</ele>
        <time>2026-08-21T12:11:05.000Z</time>
        <extensions>
          <ns3:TrackPointExtension>
            <ns3:hr>142</ns3:hr>
            <ns3:cad>54</ns3:cad>
          </ns3:TrackPointExtension>
        </extensions>
      </trkpt>
      <trkpt lat="45.3278931789100170135498046875" lon="-70.8123734034597873687744140625">
        <ele>921.20001220703125</ele>
        <time>2026-08-21T12:11:06.000Z</time>
        <extensions>
          <ns3:TrackPointExtension>
            <ns3:hr>142</ns3:hr>
            <ns3:cad>54</ns3:cad>
          </ns3:TrackPointExtension>
        </extensions>
      </trkpt>
      <trkpt lat="45.32789611257612705230712890625" lon="-70.8123626746237277984619140625">
        <ele>921.20001220703125</ele>
        <time>2026-08-21T12:11:07.000Z</time>
        <extensions>
          <ns3:TrackPointExtension>
            <ns3:hr>141</ns3:hr>
            <ns3:cad>0</ns3:cad>
          </ns3:TrackPointExtension>
        </extensions>
      </trkpt>
      <trkpt lat="45.32789376564323902130126953125" lon="-70.812340043485164642333984375">
        <ele>921.20001220703125</ele>
        <time>2026-08-21T12:11:08.000Z</time>
        <extensions>
          <ns3:TrackPointExtension>
            <ns3:hr>141</ns3:hr>
            <ns3:cad>0</ns3:cad>
          </ns3:TrackPointExtension>
        </extensions>
      </trkpt>
      <trkpt lat="45.3278968669474124908447265625" lon="-70.8123291470110416412353515625">
        <ele>921.20001220703125</ele>
        <time>2026-08-21T12:11:09.000Z</time>
        <extensions>
          <ns3:TrackPointExtension>
            <ns3:hr>141</ns3:hr>
            <ns3:cad>0</ns3:cad>
          </ns3:TrackPointExtension>
        </extensions>
      </trkpt>
      <trkpt lat="45.3279039077460765838623046875" lon="-70.8123234473168849945068359375">
        <ele>921</ele>
        <time>2026-08-21T12:11:10.000Z</time>
        <extensions>
          <ns3:TrackPointExtension>
            <ns3:hr>142</ns3:hr>
            <ns3:cad>0</ns3:cad>
          </ns3:TrackPointExtension>
        </extensions>
      </trkpt>
      <trkpt lat="45.32790902070701122283935546875" lon="-70.81231431104242801666259765625">
        <ele>921</ele>
        <time>2026-08-21T12:11:11.000Z</time>
        <extensions>
          <ns3:TrackPointExtension>
            <ns3:hr>141</ns3:hr>
            <ns3:cad>0</ns3:cad>
          </ns3:TrackPointExtension>
        </extensions>
      </trkpt>
      <trkpt lat="45.32791388221085071563720703125" lon="-70.8123029954731464385986328125">
        <ele>921</ele>
        <time>2026-08-21T12:11:12.000Z</time>
        <extensions>
          <ns3:TrackPointExtension>
            <ns3:hr>141</ns3:hr>
            <ns3:cad>0</ns3:cad>
          </ns3:TrackPointExtension>
        </extensions>
      </trkpt>
      <trkpt lat="45.3279201686382293701171875" lon="-70.81228111870586872100830078125">
        <ele>920.79998779296875</ele>
        <time>2026-08-21T12:11:13.000Z</time>
        <extensions>
          <ns3:TrackPointExtension>
            <ns3:hr>141</ns3:hr>
            <ns3:cad>0</ns3:cad>
          </ns3:TrackPointExtension>
        </extensions>
      </trkpt>
      <trkpt lat="45.32791991718113422393798828125" lon="-70.812262259423732757568359375">
        <ele>920.79998779296875</ele>
        <time>2026-08-21T12:11:14.000Z</time>
        <extensions>
          <ns3:TrackPointExtension>
            <ns3:hr>140</ns3:hr>
            <ns3:cad>53</ns3:cad>
          </ns3:TrackPointExtension>
        </extensions>
      </trkpt>
      <trkpt lat="45.3279193304479122161865234375" lon="-70.81224205903708934783935546875">
        <ele>920.79998779296875</ele>
        <time>2026-08-21T12:11:15.000Z</time>
        <extensions>
          <ns3:TrackPointExtension>
            <ns3:hr>140</ns3:hr>
            <ns3:cad>53</ns3:cad>
          </ns3:TrackPointExtension>
        </extensions>
      </trkpt>
      <trkpt lat="45.32791740261018276214599609375" lon="-70.81222428940236568450927734375">
        <ele>920.79998779296875</ele>
        <time>2026-08-21T12:11:16.000Z</time>
        <extensions>
          <ns3:TrackPointExtension>
            <ns3:hr>140</ns3:hr>
            <ns3:cad>53</ns3:cad>
          </ns3:TrackPointExtension>
        </extensions>
      </trkpt>
      <trkpt lat="45.3279153071343898773193359375" lon="-70.81220702268183231353759765625">
        <ele>920.79998779296875</ele>
        <time>2026-08-21T12:11:17.000Z</time>
        <extensions>
          <ns3:TrackPointExtension>
            <ns3:hr>140</ns3:hr>
            <ns3:cad>53</ns3:cad>
          </ns3:TrackPointExtension>
        </extensions>
      </trkpt>
      <trkpt lat="45.32791840843856334686279296875" lon="-70.81218942068517208099365234375">
        <ele>920.79998779296875</ele>
        <time>2026-08-21T12:11:18.000Z</time>
        <extensions>
          <ns3:TrackPointExtension>
            <ns3:hr>139</ns3:hr>
            <ns3:cad>53</ns3:cad>
          </ns3:TrackPointExtension>
        </extensions>
      </trkpt>
      <trkpt lat="45.32792125828564167022705078125" lon="-70.8121782727539539337158203125">
        <ele>920.5999755859375</ele>
        <time>2026-08-21T12:11:19.000Z</time>
        <extensions>
          <ns3:TrackPointExtension>
            <ns3:hr>138</ns3:hr>
            <ns3:cad>53</ns3:cad>
          </ns3:TrackPointExtension>
        </extensions>
      </trkpt>
      <trkpt lat="45.32792410813271999359130859375" lon="-70.81216444261372089385986328125">
        <ele>920.5999755859375</ele>
        <time>2026-08-21T12:11:20.000Z</time>
        <extensions>
          <ns3:TrackPointExtension>
            <ns3:hr>137</ns3:hr>
            <ns3:cad>53</ns3:cad>
          </ns3:TrackPointExtension>
        </extensions>
      </trkpt>
      <trkpt lat="45.3279267065227031707763671875" lon="-70.8121507801115512847900390625">
        <ele>920.79998779296875</ele>
        <time>2026-08-21T12:11:21.000Z</time>
        <extensions>
          <ns3:TrackPointExtension>
            <ns3:hr>136</ns3:hr>
            <ns3:cad>53</ns3:cad>
          </ns3:TrackPointExtension>
        </extensions>
      </trkpt>
      <trkpt lat="45.32792997546494007110595703125" lon="-70.812130831182003021240234375">
        <ele>920.79998779296875</ele>
        <time>2026-08-21T12:11:22.000Z</time>
        <extensions>
          <ns3:TrackPointExtension>
            <ns3:hr>135</ns3:hr>
            <ns3:cad>53</ns3:cad>
          </ns3:TrackPointExtension>
        </extensions>
      </trkpt>
      <trkpt lat="45.3279280476272106170654296875" lon="-70.81211113370954990386962890625">
        <ele>920.79998779296875</ele>
        <time>2026-08-21T12:11:23.000Z</time>
        <extensions>
          <ns3:TrackPointExtension>
            <ns3:hr>134</ns3:hr>
            <ns3:cad>0</ns3:cad>
          </ns3:TrackPointExtension>
        </extensions>
      </trkpt>
      <trkpt lat="45.32792662270367145538330078125" lon="-70.81209084950387477874755859375">
        <ele>920.79998779296875</ele>
        <time>2026-08-21T12:11:24.000Z</time>
        <extensions>
          <ns3:TrackPointExtension>
            <ns3:hr>133</ns3:hr>
            <ns3:cad>0</ns3:cad>
          </ns3:TrackPointExtension>
        </extensions>
      </trkpt>
      <trkpt lat="45.32792578451335430145263671875" lon="-70.81207073293626308441162109375">
        <ele>920.79998779296875</ele>
        <time>2026-08-21T12:11:25.000Z</time>
        <extensions>
          <ns3:TrackPointExtension>
            <ns3:hr>132</ns3:hr>
            <ns3:cad>0</ns3:cad>
          </ns3:TrackPointExtension>
        </extensions>
      </trkpt>
      <trkpt lat="45.3279255330562591552734375" lon="-70.812055729329586029052734375">
        <ele>920.5999755859375</ele>
        <time>2026-08-21T12:11:26.000Z</time>
        <extensions>
          <ns3:TrackPointExtension>
            <ns3:hr>132</ns3:hr>
            <ns3:cad>52</ns3:cad>
          </ns3:TrackPointExtension>
        </extensions>
      </trkpt>
      <trkpt lat="45.32792494632303714752197265625" lon="-70.81203049980103969573974609375">
        <ele>920.5999755859375</ele>
        <time>2026-08-21T12:11:27.000Z</time>
        <extensions>
          <ns3:TrackPointExtension>
            <ns3:hr>132</ns3:hr>
            <ns3:cad>52</ns3:cad>
          </ns3:TrackPointExtension>
        </extensions>
      </trkpt>
      <trkpt lat="45.32792762853205204010009765625" lon="-70.81202052533626556396484375">
        <ele>920.5999755859375</ele>
        <time>2026-08-21T12:11:28.000Z</time>
        <extensions>
          <ns3:TrackPointExtension>
            <ns3:hr>131</ns3:hr>
            <ns3:cad>52</ns3:cad>
          </ns3:TrackPointExtension>
        </extensions>
      </trkpt>
      <trkpt lat="45.3279290534555912017822265625" lon="-70.811994373798370361328125">
        <ele>920.5999755859375</ele>
        <time>2026-08-21T12:11:29.000Z</time>
        <extensions>
          <ns3:TrackPointExtension>
            <ns3:hr>131</ns3:hr>
            <ns3:cad>52</ns3:cad>
          </ns3:TrackPointExtension>
        </extensions>
      </trkpt>
      <trkpt lat="45.32792829908430576324462890625" lon="-70.8119724132120609283447265625">
        <ele>920.5999755859375</ele>
        <time>2026-08-21T12:11:30.000Z</time>
        <extensions>
          <ns3:TrackPointExtension>
            <ns3:hr>131</ns3:hr>
            <ns3:cad>52</ns3:cad>
          </ns3:TrackPointExtension>
        </extensions>
      </trkpt>
      <trkpt lat="45.3279260359704494476318359375" lon="-70.81195673905313014984130859375">
        <ele>920.5999755859375</ele>
        <time>2026-08-21T12:11:31.000Z</time>
        <extensions>
          <ns3:TrackPointExtension>
            <ns3:hr>131</ns3:hr>
            <ns3:cad>52</ns3:cad>
          </ns3:TrackPointExtension>
        </extensions>
      </trkpt>
      <trkpt lat="45.3279200010001659393310546875" lon="-70.811936371028423309326171875">
        <ele>920.5999755859375</ele>
        <time>2026-08-21T12:11:32.000Z</time>
        <extensions>
          <ns3:TrackPointExtension>
            <ns3:hr>131</ns3:hr>
            <ns3:cad>52</ns3:cad>
          </ns3:TrackPointExtension>
        </extensions>
      </trkpt>
      <trkpt lat="45.32791304402053356170654296875" lon="-70.81192321144044399261474609375">
        <ele>920.5999755859375</ele>
        <time>2026-08-21T12:11:33.000Z</time>
        <extensions>
          <ns3:TrackPointExtension>
            <ns3:hr>131</ns3:hr>
            <ns3:cad>52</ns3:cad>
          </ns3:TrackPointExtension>
        </extensions>
      </trkpt>
      <trkpt lat="45.3279059194028377532958984375" lon="-70.81191080622375011444091796875">
        <ele>920.5999755859375</ele>
        <time>2026-08-21T12:11:34.000Z</time>
        <extensions>
          <ns3:TrackPointExtension>
            <ns3:hr>131</ns3:hr>
            <ns3:cad>52</ns3:cad>
          </ns3:TrackPointExtension>
        </extensions>
      </trkpt>
      <trkpt lat="45.32789594493806362152099609375" lon="-70.8118896000087261199951171875">
        <ele>920.5999755859375</ele>
        <time>2026-08-21T12:11:35.000Z</time>
        <extensions>
          <ns3:TrackPointExtension>
            <ns3:hr>131</ns3:hr>
            <ns3:cad>52</ns3:cad>
          </ns3:TrackPointExtension>
        </extensions>
      </trkpt>
      <trkpt lat="45.32789795659482479095458984375" lon="-70.81187107600271701812744140625">
        <ele>920.5999755859375</ele>
        <time>2026-08-21T12:11:36.000Z</time>
        <extensions>
          <ns3:TrackPointExtension>
            <ns3:hr>132</ns3:hr>
            <ns3:cad>52</ns3:cad>
          </ns3:TrackPointExtension>
        </extensions>
      </trkpt>
      <trkpt lat="45.32790315337479114532470703125" lon="-70.81184978596866130828857421875">
        <ele>920.5999755859375</ele>
        <time>2026-08-21T12:11:37.000Z</time>
        <extensions>
          <ns3:TrackPointExtension>
            <ns3:hr>131</ns3:hr>
            <ns3:cad>52</ns3:cad>
          </ns3:TrackPointExtension>
        </extensions>
      </trkpt>
      <trkpt lat="45.32791103236377239227294921875" lon="-70.811836458742618560791015625">
        <ele>920.4000244140625</ele>
        <time>2026-08-21T12:11:38.000Z</time>
        <extensions>
          <ns3:TrackPointExtension>
            <ns3:hr>132</ns3:hr>
            <ns3:cad>52</ns3:cad>
          </ns3:TrackPointExtension>
        </extensions>
      </trkpt>
      <trkpt lat="45.32791270874440670013427734375" lon="-70.8118160068988800048828125">
        <ele>920.4000244140625</ele>
        <time>2026-08-21T12:11:39.000Z</time>
        <extensions>
          <ns3:TrackPointExtension>
            <ns3:hr>132</ns3:hr>
            <ns3:cad>52</ns3:cad>
          </ns3:TrackPointExtension>
        </extensions>
      </trkpt>
      <trkpt lat="45.32791354693472385406494140625" lon="-70.811801590025424957275390625">
        <ele>920.4000244140625</ele>
        <time>2026-08-21T12:11:40.000Z</time>
        <extensions>
          <ns3:TrackPointExtension>
            <ns3:hr>132</ns3:hr>
            <ns3:cad>0</ns3:cad>
          </ns3:TrackPointExtension>
        </extensions>
      </trkpt>
      <trkpt lat="45.32791120000183582305908203125" lon="-70.81177753396332263946533203125">
        <ele>920.4000244140625</ele>
        <time>2026-08-21T12:11:41.000Z</time>
        <extensions>
          <ns3:TrackPointExtension>
            <ns3:hr>132</ns3:hr>
            <ns3:cad>0</ns3:cad>
          </ns3:TrackPointExtension>
        </extensions>
      </trkpt>
      <trkpt lat="45.3279086016118526458740234375" lon="-70.811760015785694122314453125">
        <ele>920.5999755859375</ele>
        <time>2026-08-21T12:11:42.000Z</time>
        <extensions>
          <ns3:TrackPointExtension>
            <ns3:hr>132</ns3:hr>
            <ns3:cad>0</ns3:cad>
          </ns3:TrackPointExtension>
        </extensions>
      </trkpt>
      <trkpt lat="45.32790399156510829925537109375" lon="-70.81174199469387531280517578125">
        <ele>920.79998779296875</ele>
        <time>2026-08-21T12:11:43.000Z</time>
        <extensions>
          <ns3:TrackPointExtension>
            <ns3:hr>133</ns3:hr>
            <ns3:cad>0</ns3:cad>
          </ns3:TrackPointExtension>
        </extensions>
      </trkpt>
      <trkpt lat="45.3278982080519199371337890625" lon="-70.81172405742108821868896484375">
        <ele>920.79998779296875</ele>
        <time>2026-08-21T12:11:44.000Z</time>
        <extensions>
          <ns3:TrackPointExtension>
            <ns3:hr>133</ns3:hr>
            <ns3:cad>0</ns3:cad>
          </ns3:TrackPointExtension>
        </extensions>
      </trkpt>
      <trkpt lat="45.32789628021419048309326171875" lon="-70.81169539131224155426025390625">
        <ele>921</ele>
        <time>2026-08-21T12:11:45.000Z</time>
        <extensions>
          <ns3:TrackPointExtension>
            <ns3:hr>133</ns3:hr>
            <ns3:cad>0</ns3:cad>
          </ns3:TrackPointExtension>
        </extensions>
      </trkpt>
      <trkpt lat="45.3278960287570953369140625" lon="-70.8116792142391204833984375">
        <ele>921.20001220703125</ele>
        <time>2026-08-21T12:11:46.000Z</time>
        <extensions>
          <ns3:TrackPointExtension>
            <ns3:hr>133</ns3:hr>
            <ns3:cad>0</ns3:cad>
          </ns3:TrackPointExtension>
        </extensions>
      </trkpt>
      <trkpt lat="45.32789678312838077545166015625" lon="-70.8116589300334453582763671875">
        <ele>921.20001220703125</ele>
        <time>2026-08-21T12:11:47.000Z</time>
        <extensions>
          <ns3:TrackPointExtension>
            <ns3:hr>132</ns3:hr>
            <ns3:cad>0</ns3:cad>
          </ns3:TrackPointExtension>
        </extensions>
      </trkpt>
      <trkpt lat="45.32789804041385650634765625" lon="-70.8116357959806919097900390625">
        <ele>921.20001220703125</ele>
        <time>2026-08-21T12:11:48.000Z</time>
        <extensions>
          <ns3:TrackPointExtension>
            <ns3:hr>132</ns3:hr>
            <ns3:cad>55</ns3:cad>
          </ns3:TrackPointExtension>
        </extensions>
      </trkpt>
      <trkpt lat="45.3279005549848079681396484375" lon="-70.81161291338503360748291015625">
        <ele>921.20001220703125</ele>
        <time>2026-08-21T12:11:49.000Z</time>
        <extensions>
          <ns3:TrackPointExtension>
            <ns3:hr>132</ns3:hr>
            <ns3:cad>55</ns3:cad>
          </ns3:TrackPointExtension>
        </extensions>
      </trkpt>
      <trkpt lat="45.32790080644190311431884765625" lon="-70.8115948922932147979736328125">
        <ele>921.4000244140625</ele>
        <time>2026-08-21T12:11:50.000Z</time>
        <extensions>
          <ns3:TrackPointExtension>
            <ns3:hr>132</ns3:hr>
            <ns3:cad>55</ns3:cad>
          </ns3:TrackPointExtension>
        </extensions>
      </trkpt>
      <trkpt lat="45.3278995491564273834228515625" lon="-70.81157385371625423431396484375">
        <ele>921.4000244140625</ele>
        <time>2026-08-21T12:11:51.000Z</time>
        <extensions>
          <ns3:TrackPointExtension>
            <ns3:hr>133</ns3:hr>
            <ns3:cad>55</ns3:cad>
          </ns3:TrackPointExtension>
        </extensions>
      </trkpt>
      <trkpt lat="45.32789996825158596038818359375" lon="-70.81155323423445224761962890625">
        <ele>921.4000244140625</ele>
        <time>2026-08-21T12:11:52.000Z</time>
        <extensions>
          <ns3:TrackPointExtension>
            <ns3:hr>133</ns3:hr>
            <ns3:cad>55</ns3:cad>
          </ns3:TrackPointExtension>
        </extensions>
      </trkpt>
      <trkpt lat="45.32790214754641056060791015625" lon="-70.81152959726750850677490234375">
        <ele>921.4000244140625</ele>
        <time>2026-08-21T12:11:53.000Z</time>
        <extensions>
          <ns3:TrackPointExtension>
            <ns3:hr>133</ns3:hr>
            <ns3:cad>55</ns3:cad>
          </ns3:TrackPointExtension>
        </extensions>
      </trkpt>
      <trkpt lat="45.3279015608131885528564453125" lon="-70.811509229242801666259765625">
        <ele>921.4000244140625</ele>
        <time>2026-08-21T12:11:54.000Z</time>
        <extensions>
          <ns3:TrackPointExtension>
            <ns3:hr>133</ns3:hr>
            <ns3:cad>57</ns3:cad>
          </ns3:TrackPointExtension>
        </extensions>
      </trkpt>
      <trkpt lat="45.32789963297545909881591796875" lon="-70.81149405799806118011474609375">
        <ele>921.4000244140625</ele>
        <time>2026-08-21T12:11:55.000Z</time>
        <extensions>
          <ns3:TrackPointExtension>
            <ns3:hr>133</ns3:hr>
            <ns3:cad>57</ns3:cad>
          </ns3:TrackPointExtension>
        </extensions>
      </trkpt>
      <trkpt lat="45.32789745368063449859619140625" lon="-70.8114835806190967559814453125">
        <ele>921.5999755859375</ele>
        <time>2026-08-21T12:11:56.000Z</time>
        <extensions>
          <ns3:TrackPointExtension>
            <ns3:hr>134</ns3:hr>
            <ns3:cad>57</ns3:cad>
          </ns3:TrackPointExtension>
        </extensions>
      </trkpt>
      <trkpt lat="45.3278961963951587677001953125" lon="-70.8114758692681789398193359375">
        <ele>921.5999755859375</ele>
        <time>2026-08-21T12:11:57.000Z</time>
        <extensions>
          <ns3:TrackPointExtension>
            <ns3:hr>134</ns3:hr>
            <ns3:cad>52</ns3:cad>
          </ns3:TrackPointExtension>
        </extensions>
      </trkpt>
      <trkpt lat="45.32789309509098529815673828125" lon="-70.81146664917469024658203125">
        <ele>921.79998779296875</ele>
        <time>2026-08-21T12:11:58.000Z</time>
        <extensions>
          <ns3:TrackPointExtension>
            <ns3:hr>134</ns3:hr>
            <ns3:cad>52</ns3:cad>
          </ns3:TrackPointExtension>
        </extensions>
      </trkpt>
      <trkpt lat="45.32789158634841442108154296875" lon="-70.81146472133696079254150390625">
        <ele>921.79998779296875</ele>
        <time>2026-08-21T12:11:59.000Z</time>
        <extensions>
          <ns3:TrackPointExtension>
            <ns3:hr>133</ns3:hr>
            <ns3:cad>0</ns3:cad>
          </ns3:TrackPointExtension>
        </extensions>
      </trkpt>
      <trkpt lat="45.32789460383355617523193359375" lon="-70.81146002747118473052978515625">
        <ele>921.79998779296875</ele>
        <time>2026-08-21T12:12:00.000Z</time>
        <extensions>
          <ns3:TrackPointExtension>
            <ns3:hr>133</ns3:hr>
            <ns3:cad>0</ns3:cad>
          </ns3:TrackPointExtension>
        </extensions>
      </trkpt>
      <trkpt lat="45.32789401710033416748046875" lon="-70.8114574290812015533447265625">
        <ele>921.79998779296875</ele>
        <time>2026-08-21T12:12:01.000Z</time>
        <extensions>
          <ns3:TrackPointExtension>
            <ns3:hr>134</ns3:hr>
            <ns3:cad>0</ns3:cad>
          </ns3:TrackPointExtension>
        </extensions>
      </trkpt>
      <trkpt lat="45.32789493910968303680419921875" lon="-70.81145784817636013031005859375">
        <ele>921.79998779296875</ele>
        <time>2026-08-21T12:12:02.000Z</time>
        <extensions>
          <ns3:TrackPointExtension>
            <ns3:hr>134</ns3:hr>
            <ns3:cad>0</ns3:cad>
          </ns3:TrackPointExtension>
        </extensions>
      </trkpt>
      <trkpt lat="45.3278955258429050445556640625" lon="-70.81145784817636013031005859375">
        <ele>921.79998779296875</ele>
        <time>2026-08-21T12:12:03.000Z</time>
        <extensions>
          <ns3:TrackPointExtension>
            <ns3:hr>134</ns3:hr>
            <ns3:cad>0</ns3:cad>
          </ns3:TrackPointExtension>
        </extensions>
      </trkpt>
      <trkpt lat="45.3278955258429050445556640625" lon="-70.81145784817636013031005859375">
        <ele>921.5999755859375</ele>
        <time>2026-08-21T12:12:04.000Z</time>
        <extensions>
          <ns3:TrackPointExtension>
            <ns3:hr>134</ns3:hr>
            <ns3:cad>0</ns3:cad>
          </ns3:TrackPointExtension>
        </extensions>
      </trkpt>
      <trkpt lat="45.3278955258429050445556640625" lon="-70.81145784817636013031005859375">
        <ele>921.5999755859375</ele>
        <time>2026-08-21T12:12:05.000Z</time>
        <extensions>
          <ns3:TrackPointExtension>
            <ns3:hr>134</ns3:hr>
            <ns3:cad>0</ns3:cad>
          </ns3:TrackPointExtension>
        </extensions>
      </trkpt>
      <trkpt lat="45.3278955258429050445556640625" lon="-70.81145784817636013031005859375">
        <ele>921.5999755859375</ele>
        <time>2026-08-21T12:12:06.000Z</time>
        <extensions>
          <ns3:TrackPointExtension>
            <ns3:hr>134</ns3:hr>
            <ns3:cad>0</ns3:cad>
          </ns3:TrackPointExtension>
        </extensions>
      </trkpt>
      <trkpt lat="45.3278955258429050445556640625" lon="-70.81145784817636013031005859375">
        <ele>921.5999755859375</ele>
        <time>2026-08-21T12:12:07.000Z</time>
        <extensions>
          <ns3:TrackPointExtension>
            <ns3:hr>133</ns3:hr>
            <ns3:cad>0</ns3:cad>
          </ns3:TrackPointExtension>
        </extensions>
      </trkpt>
      <trkpt lat="45.3278908319771289825439453125" lon="-70.81145985983312129974365234375">
        <ele>921.5999755859375</ele>
        <time>2026-08-21T12:12:08.000Z</time>
        <extensions>
          <ns3:TrackPointExtension>
            <ns3:hr>134</ns3:hr>
            <ns3:cad>0</ns3:cad>
          </ns3:TrackPointExtension>
        </extensions>
      </trkpt>
      <trkpt lat="45.32788999378681182861328125" lon="-70.8114547468721866607666015625">
        <ele>921.5999755859375</ele>
        <time>2026-08-21T12:12:09.000Z</time>
        <extensions>
          <ns3:TrackPointExtension>
            <ns3:hr>134</ns3:hr>
            <ns3:cad>0</ns3:cad>
          </ns3:TrackPointExtension>
        </extensions>
      </trkpt>
      <trkpt lat="45.3278911672532558441162109375" lon="-70.81144175492227077484130859375">
        <ele>921.4000244140625</ele>
        <time>2026-08-21T12:12:10.000Z</time>
        <extensions>
          <ns3:TrackPointExtension>
            <ns3:hr>133</ns3:hr>
            <ns3:cad>0</ns3:cad>
          </ns3:TrackPointExtension>
        </extensions>
      </trkpt>
      <trkpt lat="45.32789343036711215972900390625" lon="-70.81142515875399112701416015625">
        <ele>921.20001220703125</ele>
        <time>2026-08-21T12:12:11.000Z</time>
        <extensions>
          <ns3:TrackPointExtension>
            <ns3:hr>132</ns3:hr>
            <ns3:cad>0</ns3:cad>
          </ns3:TrackPointExtension>
        </extensions>
      </trkpt>
      <trkpt lat="45.3278975374996662139892578125" lon="-70.811403952538967132568359375">
        <ele>921</ele>
        <time>2026-08-21T12:12:12.000Z</time>
        <extensions>
          <ns3:TrackPointExtension>
            <ns3:hr>132</ns3:hr>
            <ns3:cad>0</ns3:cad>
          </ns3:TrackPointExtension>
        </extensions>
      </trkpt>
      <trkpt lat="45.32789795659482479095458984375" lon="-70.811388529837131500244140625">
        <ele>921</ele>
        <time>2026-08-21T12:12:13.000Z</time>
        <extensions>
          <ns3:TrackPointExtension>
            <ns3:hr>132</ns3:hr>
            <ns3:cad>0</ns3:cad>
          </ns3:TrackPointExtension>
        </extensions>
      </trkpt>
      <trkpt lat="45.32789669930934906005859375" lon="-70.81137168221175670623779296875">
        <ele>920.79998779296875</ele>
        <time>2026-08-21T12:12:14.000Z</time>
        <extensions>
          <ns3:TrackPointExtension>
            <ns3:hr>132</ns3:hr>
            <ns3:cad>59</ns3:cad>
          </ns3:TrackPointExtension>
        </extensions>
      </trkpt>
      <trkpt lat="45.3278985433280467987060546875" lon="-70.8113514818251132965087890625">
        <ele>920.5999755859375</ele>
        <time>2026-08-21T12:12:15.000Z</time>
        <extensions>
          <ns3:TrackPointExtension>
            <ns3:hr>133</ns3:hr>
            <ns3:cad>59</ns3:cad>
          </ns3:TrackPointExtension>
        </extensions>
      </trkpt>
      <trkpt lat="45.3278948552906513214111328125" lon="-70.811339579522609710693359375">
        <ele>920.5999755859375</ele>
        <time>2026-08-21T12:12:16.000Z</time>
        <extensions>
          <ns3:TrackPointExtension>
            <ns3:hr>133</ns3:hr>
            <ns3:cad>59</ns3:cad>
          </ns3:TrackPointExtension>
        </extensions>
      </trkpt>
      <trkpt lat="45.32789192162454128265380859375" lon="-70.8113296888768672943115234375">
        <ele>920.4000244140625</ele>
        <time>2026-08-21T12:12:17.000Z</time>
        <extensions>
          <ns3:TrackPointExtension>
            <ns3:hr>133</ns3:hr>
            <ns3:cad>59</ns3:cad>
          </ns3:TrackPointExtension>
        </extensions>
      </trkpt>
      <trkpt lat="45.32789594493806362152099609375" lon="-70.81132046878337860107421875">
        <ele>920.4000244140625</ele>
        <time>2026-08-21T12:12:18.000Z</time>
        <extensions>
          <ns3:TrackPointExtension>
            <ns3:hr>133</ns3:hr>
            <ns3:cad>0</ns3:cad>
          </ns3:TrackPointExtension>
        </extensions>
      </trkpt>
      <trkpt lat="45.32790214754641056060791015625" lon="-70.81130303442478179931640625">
        <ele>920.20001220703125</ele>
        <time>2026-08-21T12:12:19.000Z</time>
        <extensions>
          <ns3:TrackPointExtension>
            <ns3:hr>133</ns3:hr>
            <ns3:cad>0</ns3:cad>
          </ns3:TrackPointExtension>
        </extensions>
      </trkpt>
      <trkpt lat="45.327908098697662353515625" lon="-70.81128870137035846710205078125">
        <ele>920.20001220703125</ele>
        <time>2026-08-21T12:12:20.000Z</time>
        <extensions>
          <ns3:TrackPointExtension>
            <ns3:hr>133</ns3:hr>
            <ns3:cad>0</ns3:cad>
          </ns3:TrackPointExtension>
        </extensions>
      </trkpt>
      <trkpt lat="45.32791002653539180755615234375" lon="-70.811270177364349365234375">
        <ele>920</ele>
        <time>2026-08-21T12:12:21.000Z</time>
        <extensions>
          <ns3:TrackPointExtension>
            <ns3:hr>133</ns3:hr>
            <ns3:cad>0</ns3:cad>
          </ns3:TrackPointExtension>
        </extensions>
      </trkpt>
      <trkpt lat="45.3279126249253749847412109375" lon="-70.8112552575767040252685546875">
        <ele>919.79998779296875</ele>
        <time>2026-08-21T12:12:22.000Z</time>
        <extensions>
          <ns3:TrackPointExtension>
            <ns3:hr>134</ns3:hr>
            <ns3:cad>0</ns3:cad>
          </ns3:TrackPointExtension>
        </extensions>
      </trkpt>
      <trkpt lat="45.327917821705341339111328125" lon="-70.8112420141696929931640625">
        <ele>919.5999755859375</ele>
        <time>2026-08-21T12:12:23.000Z</time>
        <extensions>
          <ns3:TrackPointExtension>
            <ns3:hr>134</ns3:hr>
            <ns3:cad>0</ns3:cad>
          </ns3:TrackPointExtension>
        </extensions>
      </trkpt>
      <trkpt lat="45.32792360521852970123291015625" lon="-70.81121561117470264434814453125">
        <ele>919.4000244140625</ele>
        <time>2026-08-21T12:12:24.000Z</time>
        <extensions>
          <ns3:TrackPointExtension>
            <ns3:hr>134</ns3:hr>
            <ns3:cad>0</ns3:cad>
          </ns3:TrackPointExtension>
        </extensions>
      </trkpt>
      <trkpt lat="45.3279253654181957244873046875" lon="-70.81119951792061328887939453125">
        <ele>919.4000244140625</ele>
        <time>2026-08-21T12:12:25.000Z</time>
        <extensions>
          <ns3:TrackPointExtension>
            <ns3:hr>134</ns3:hr>
            <ns3:cad>0</ns3:cad>
          </ns3:TrackPointExtension>
        </extensions>
      </trkpt>
      <trkpt lat="45.32792779617011547088623046875" lon="-70.811172612011432647705078125">
        <ele>919.4000244140625</ele>
        <time>2026-08-21T12:12:26.000Z</time>
        <extensions>
          <ns3:TrackPointExtension>
            <ns3:hr>134</ns3:hr>
            <ns3:cad>0</ns3:cad>
          </ns3:TrackPointExtension>
        </extensions>
      </trkpt>
      <trkpt lat="45.32793215475976467132568359375" lon="-70.81115509383380413055419921875">
        <ele>919.4000244140625</ele>
        <time>2026-08-21T12:12:27.000Z</time>
        <extensions>
          <ns3:TrackPointExtension>
            <ns3:hr>134</ns3:hr>
            <ns3:cad>0</ns3:cad>
          </ns3:TrackPointExtension>
        </extensions>
      </trkpt>
      <trkpt lat="45.32792964018881320953369140625" lon="-70.81113145686686038970947265625">
        <ele>919.4000244140625</ele>
        <time>2026-08-21T12:12:28.000Z</time>
        <extensions>
          <ns3:TrackPointExtension>
            <ns3:hr>133</ns3:hr>
            <ns3:cad>0</ns3:cad>
          </ns3:TrackPointExtension>
        </extensions>
      </trkpt>
      <trkpt lat="45.32792611978948116302490234375" lon="-70.8111079037189483642578125">
        <ele>919.4000244140625</ele>
        <time>2026-08-21T12:12:29.000Z</time>
        <extensions>
          <ns3:TrackPointExtension>
            <ns3:hr>133</ns3:hr>
            <ns3:cad>0</ns3:cad>
          </ns3:TrackPointExtension>
        </extensions>
      </trkpt>
      <trkpt lat="45.32793064601719379425048828125" lon="-70.8110923133790493011474609375">
        <ele>919.4000244140625</ele>
        <time>2026-08-21T12:12:30.000Z</time>
        <extensions>
          <ns3:TrackPointExtension>
            <ns3:hr>132</ns3:hr>
            <ns3:cad>0</ns3:cad>
          </ns3:TrackPointExtension>
        </extensions>
      </trkpt>
      <trkpt lat="45.327934920787811279296875" lon="-70.8110822550952434539794921875">
        <ele>919.4000244140625</ele>
        <time>2026-08-21T12:12:31.000Z</time>
        <extensions>
          <ns3:TrackPointExtension>
            <ns3:hr>131</ns3:hr>
            <ns3:cad>0</ns3:cad>
          </ns3:TrackPointExtension>
        </extensions>
      </trkpt>
      <trkpt lat="45.327940620481967926025390625" lon="-70.8110745437443256378173828125">
        <ele>919.4000244140625</ele>
        <time>2026-08-21T12:12:32.000Z</time>
        <extensions>
          <ns3:TrackPointExtension>
            <ns3:hr>131</ns3:hr>
            <ns3:cad>0</ns3:cad>
          </ns3:TrackPointExtension>
        </extensions>
      </trkpt>
      <trkpt lat="45.327945984899997711181640625" lon="-70.81106021068990230560302734375">
        <ele>919.4000244140625</ele>
        <time>2026-08-21T12:12:33.000Z</time>
        <extensions>
          <ns3:TrackPointExtension>
            <ns3:hr>131</ns3:hr>
            <ns3:cad>54</ns3:cad>
          </ns3:TrackPointExtension>
        </extensions>
      </trkpt>
      <trkpt lat="45.3279498405754566192626953125" lon="-70.8110473863780498504638671875">
        <ele>919</ele>
        <time>2026-08-21T12:12:34.000Z</time>
        <extensions>
          <ns3:TrackPointExtension>
            <ns3:hr>130</ns3:hr>
            <ns3:cad>54</ns3:cad>
          </ns3:TrackPointExtension>
        </extensions>
      </trkpt>
      <trkpt lat="45.327954702079296112060546875" lon="-70.81103808246552944183349609375">
        <ele>918.79998779296875</ele>
        <time>2026-08-21T12:12:35.000Z</time>
        <extensions>
          <ns3:TrackPointExtension>
            <ns3:hr>129</ns3:hr>
            <ns3:cad>54</ns3:cad>
          </ns3:TrackPointExtension>
        </extensions>
      </trkpt>
      <trkpt lat="45.327960737049579620361328125" lon="-70.81102115102112293243408203125">
        <ele>918.4000244140625</ele>
        <time>2026-08-21T12:12:36.000Z</time>
        <extensions>
          <ns3:TrackPointExtension>
            <ns3:hr>129</ns3:hr>
            <ns3:cad>55</ns3:cad>
          </ns3:TrackPointExtension>
        </extensions>
      </trkpt>
      <trkpt lat="45.32796232961118221282958984375" lon="-70.81099969334900379180908203125">
        <ele>918</ele>
        <time>2026-08-21T12:12:37.000Z</time>
        <extensions>
          <ns3:TrackPointExtension>
            <ns3:hr>129</ns3:hr>
            <ns3:cad>57</ns3:cad>
          </ns3:TrackPointExtension>
        </extensions>
      </trkpt>
      <trkpt lat="45.327963419258594512939453125" lon="-70.8109840191900730133056640625">
        <ele>917.79998779296875</ele>
        <time>2026-08-21T12:12:38.000Z</time>
        <extensions>
          <ns3:TrackPointExtension>
            <ns3:hr>129</ns3:hr>
            <ns3:cad>57</ns3:cad>
          </ns3:TrackPointExtension>
        </extensions>
      </trkpt>
      <trkpt lat="45.32796383835375308990478515625" lon="-70.8109679259359836578369140625">
        <ele>917.5999755859375</ele>
        <time>2026-08-21T12:12:39.000Z</time>
        <extensions>
          <ns3:TrackPointExtension>
            <ns3:hr>129</ns3:hr>
            <ns3:cad>57</ns3:cad>
          </ns3:TrackPointExtension>
        </extensions>
      </trkpt>
      <trkpt lat="45.32796585001051425933837890625" lon="-70.81095174886286258697509765625">
        <ele>917.4000244140625</ele>
        <time>2026-08-21T12:12:40.000Z</time>
        <extensions>
          <ns3:TrackPointExtension>
            <ns3:hr>129</ns3:hr>
            <ns3:cad>57</ns3:cad>
          </ns3:TrackPointExtension>
        </extensions>
      </trkpt>
      <trkpt lat="45.32796970568597316741943359375" lon="-70.8109377510845661163330078125">
        <ele>917.20001220703125</ele>
        <time>2026-08-21T12:12:41.000Z</time>
        <extensions>
          <ns3:TrackPointExtension>
            <ns3:hr>129</ns3:hr>
            <ns3:cad>57</ns3:cad>
          </ns3:TrackPointExtension>
        </extensions>
      </trkpt>
      <trkpt lat="45.32797222025692462921142578125" lon="-70.81092207692563533782958984375">
        <ele>917</ele>
        <time>2026-08-21T12:12:42.000Z</time>
        <extensions>
          <ns3:TrackPointExtension>
            <ns3:hr>128</ns3:hr>
            <ns3:cad>0</ns3:cad>
          </ns3:TrackPointExtension>
        </extensions>
      </trkpt>
      <trkpt lat="45.3279736451804637908935546875" lon="-70.81090615130960941314697265625">
        <ele>916.79998779296875</ele>
        <time>2026-08-21T12:12:43.000Z</time>
        <extensions>
          <ns3:TrackPointExtension>
            <ns3:hr>126</ns3:hr>
            <ns3:cad>0</ns3:cad>
          </ns3:TrackPointExtension>
        </extensions>
      </trkpt>
      <trkpt lat="45.3279813565313816070556640625" lon="-70.81088083796203136444091796875">
        <ele>916.4000244140625</ele>
        <time>2026-08-21T12:12:44.000Z</time>
        <extensions>
          <ns3:TrackPointExtension>
            <ns3:hr>125</ns3:hr>
            <ns3:cad>0</ns3:cad>
          </ns3:TrackPointExtension>
        </extensions>
      </trkpt>
      <trkpt lat="45.32798127271234989166259765625" lon="-70.8108589611947536468505859375">
        <ele>916.20001220703125</ele>
        <time>2026-08-21T12:12:45.000Z</time>
        <extensions>
          <ns3:TrackPointExtension>
            <ns3:hr>124</ns3:hr>
            <ns3:cad>0</ns3:cad>
          </ns3:TrackPointExtension>
        </extensions>
      </trkpt>
      <trkpt lat="45.32798496074974536895751953125" lon="-70.81083230674266815185546875">
        <ele>916</ele>
        <time>2026-08-21T12:12:46.000Z</time>
        <extensions>
          <ns3:TrackPointExtension>
            <ns3:hr>124</ns3:hr>
            <ns3:cad>0</ns3:cad>
          </ns3:TrackPointExtension>
        </extensions>
      </trkpt>
      <trkpt lat="45.3279847092926502227783203125" lon="-70.8108123578131198883056640625">
        <ele>915.79998779296875</ele>
        <time>2026-08-21T12:12:47.000Z</time>
        <extensions>
          <ns3:TrackPointExtension>
            <ns3:hr>124</ns3:hr>
            <ns3:cad>0</ns3:cad>
          </ns3:TrackPointExtension>
        </extensions>
      </trkpt>
      <trkpt lat="45.32798948697745800018310546875" lon="-70.8107914030551910400390625">
        <ele>915.5999755859375</ele>
        <time>2026-08-21T12:12:48.000Z</time>
        <extensions>
          <ns3:TrackPointExtension>
            <ns3:hr>124</ns3:hr>
            <ns3:cad>0</ns3:cad>
          </ns3:TrackPointExtension>
        </extensions>
      </trkpt>
      <trkpt lat="45.32799384556710720062255859375" lon="-70.810770951211452484130859375">
        <ele>915.4000244140625</ele>
        <time>2026-08-21T12:12:49.000Z</time>
        <extensions>
          <ns3:TrackPointExtension>
            <ns3:hr>124</ns3:hr>
            <ns3:cad>0</ns3:cad>
          </ns3:TrackPointExtension>
        </extensions>
      </trkpt>
      <trkpt lat="45.327994935214519500732421875" lon="-70.81074957735836505889892578125">
        <ele>915.20001220703125</ele>
        <time>2026-08-21T12:12:50.000Z</time>
        <extensions>
          <ns3:TrackPointExtension>
            <ns3:hr>124</ns3:hr>
            <ns3:cad>0</ns3:cad>
          </ns3:TrackPointExtension>
        </extensions>
      </trkpt>
      <trkpt lat="45.3279925882816314697265625" lon="-70.8107245154678821563720703125">
        <ele>915.20001220703125</ele>
        <time>2026-08-21T12:12:51.000Z</time>
        <extensions>
          <ns3:TrackPointExtension>
            <ns3:hr>125</ns3:hr>
            <ns3:cad>0</ns3:cad>
          </ns3:TrackPointExtension>
        </extensions>
      </trkpt>
      <trkpt lat="45.32799166627228260040283203125" lon="-70.81070481799542903900146484375">
        <ele>915</ele>
        <time>2026-08-21T12:12:52.000Z</time>
        <extensions>
          <ns3:TrackPointExtension>
            <ns3:hr>125</ns3:hr>
            <ns3:cad>65</ns3:cad>
          </ns3:TrackPointExtension>
        </extensions>
      </trkpt>
      <trkpt lat="45.32799317501485347747802734375" lon="-70.8106866292655467987060546875">
        <ele>914.79998779296875</ele>
        <time>2026-08-21T12:12:53.000Z</time>
        <extensions>
          <ns3:TrackPointExtension>
            <ns3:hr>125</ns3:hr>
            <ns3:cad>65</ns3:cad>
          </ns3:TrackPointExtension>
        </extensions>
      </trkpt>
      <trkpt lat="45.32799300737679004669189453125" lon="-70.81065905280411243438720703125">
        <ele>914.5999755859375</ele>
        <time>2026-08-21T12:12:54.000Z</time>
        <extensions>
          <ns3:TrackPointExtension>
            <ns3:hr>126</ns3:hr>
            <ns3:cad>0</ns3:cad>
          </ns3:TrackPointExtension>
        </extensions>
      </trkpt>
      <trkpt lat="45.32798479311168193817138671875" lon="-70.81064061261713504791259765625">
        <ele>914.4000244140625</ele>
        <time>2026-08-21T12:12:55.000Z</time>
        <extensions>
          <ns3:TrackPointExtension>
            <ns3:hr>126</ns3:hr>
            <ns3:cad>0</ns3:cad>
          </ns3:TrackPointExtension>
        </extensions>
      </trkpt>
      <trkpt lat="45.327976159751415252685546875" lon="-70.8106277883052825927734375">
        <ele>914.20001220703125</ele>
        <time>2026-08-21T12:12:56.000Z</time>
        <extensions>
          <ns3:TrackPointExtension>
            <ns3:hr>126</ns3:hr>
            <ns3:cad>0</ns3:cad>
          </ns3:TrackPointExtension>
        </extensions>
      </trkpt>
      <trkpt lat="45.3279780037701129913330078125" lon="-70.810605324804782867431640625">
        <ele>914.20001220703125</ele>
        <time>2026-08-21T12:12:57.000Z</time>
        <extensions>
          <ns3:TrackPointExtension>
            <ns3:hr>126</ns3:hr>
            <ns3:cad>0</ns3:cad>
          </ns3:TrackPointExtension>
        </extensions>
      </trkpt>
      <trkpt lat="45.32797825522720813751220703125" lon="-70.81058629788458347320556640625">
        <ele>914</ele>
        <time>2026-08-21T12:12:58.000Z</time>
        <extensions>
          <ns3:TrackPointExtension>
            <ns3:hr>125</ns3:hr>
            <ns3:cad>0</ns3:cad>
          </ns3:TrackPointExtension>
        </extensions>
      </trkpt>
      <trkpt lat="45.32797959633171558380126953125" lon="-70.810567103326320648193359375">
        <ele>913.79998779296875</ele>
        <time>2026-08-21T12:12:59.000Z</time>
        <extensions>
          <ns3:TrackPointExtension>
            <ns3:hr>125</ns3:hr>
            <ns3:cad>57</ns3:cad>
          </ns3:TrackPointExtension>
        </extensions>
      </trkpt>
      <trkpt lat="45.327980853617191314697265625" lon="-70.81054866313934326171875">
        <ele>913.79998779296875</ele>
        <time>2026-08-21T12:13:00.000Z</time>
        <extensions>
          <ns3:TrackPointExtension>
            <ns3:hr>125</ns3:hr>
            <ns3:cad>57</ns3:cad>
          </ns3:TrackPointExtension>
        </extensions>
      </trkpt>
      <trkpt lat="45.327982865273952484130859375" lon="-70.81053231842815876007080078125">
        <ele>913.5999755859375</ele>
        <time>2026-08-21T12:13:01.000Z</time>
        <extensions>
          <ns3:TrackPointExtension>
            <ns3:hr>125</ns3:hr>
            <ns3:cad>49</ns3:cad>
          </ns3:TrackPointExtension>
        </extensions>
      </trkpt>
      <trkpt lat="45.327987559139728546142578125" lon="-70.81051723100244998931884765625">
        <ele>913.4000244140625</ele>
        <time>2026-08-21T12:13:02.000Z</time>
        <extensions>
          <ns3:TrackPointExtension>
            <ns3:hr>125</ns3:hr>
            <ns3:cad>0</ns3:cad>
          </ns3:TrackPointExtension>
        </extensions>
      </trkpt>
      <trkpt lat="45.32799116335809230804443359375" lon="-70.81050365231931209564208984375">
        <ele>913.4000244140625</ele>
        <time>2026-08-21T12:13:03.000Z</time>
        <extensions>
          <ns3:TrackPointExtension>
            <ns3:hr>124</ns3:hr>
            <ns3:cad>0</ns3:cad>
          </ns3:TrackPointExtension>
        </extensions>
      </trkpt>
      <trkpt lat="45.32799317501485347747802734375" lon="-70.8104881457984447479248046875">
        <ele>913.4000244140625</ele>
        <time>2026-08-21T12:13:04.000Z</time>
        <extensions>
          <ns3:TrackPointExtension>
            <ns3:hr>123</ns3:hr>
            <ns3:cad>0</ns3:cad>
          </ns3:TrackPointExtension>
        </extensions>
      </trkpt>
      <trkpt lat="45.327994264662265777587890625" lon="-70.81047532148659229278564453125">
        <ele>913.4000244140625</ele>
        <time>2026-08-21T12:13:05.000Z</time>
        <extensions>
          <ns3:TrackPointExtension>
            <ns3:hr>123</ns3:hr>
            <ns3:cad>0</ns3:cad>
          </ns3:TrackPointExtension>
        </extensions>
      </trkpt>
      <trkpt lat="45.32799535430967807769775390625" lon="-70.810458473861217498779296875">
        <ele>913.4000244140625</ele>
        <time>2026-08-21T12:13:06.000Z</time>
        <extensions>
          <ns3:TrackPointExtension>
            <ns3:hr>122</ns3:hr>
            <ns3:cad>55</ns3:cad>
          </ns3:TrackPointExtension>
        </extensions>
      </trkpt>
      <trkpt lat="45.3279954381287097930908203125" lon="-70.810438692569732666015625">
        <ele>913.20001220703125</ele>
        <time>2026-08-21T12:13:07.000Z</time>
        <extensions>
          <ns3:TrackPointExtension>
            <ns3:hr>122</ns3:hr>
            <ns3:cad>55</ns3:cad>
          </ns3:TrackPointExtension>
        </extensions>
      </trkpt>
      <trkpt lat="45.32799719832837581634521484375" lon="-70.81042637117207050323486328125">
        <ele>913.20001220703125</ele>
        <time>2026-08-21T12:13:08.000Z</time>
        <extensions>
          <ns3:TrackPointExtension>
            <ns3:hr>122</ns3:hr>
            <ns3:cad>55</ns3:cad>
          </ns3:TrackPointExtension>
        </extensions>
      </trkpt>
      <trkpt lat="45.32799736596643924713134765625" lon="-70.81041329540312290191650390625">
        <ele>913.20001220703125</ele>
        <time>2026-08-21T12:13:09.000Z</time>
        <extensions>
          <ns3:TrackPointExtension>
            <ns3:hr>122</ns3:hr>
            <ns3:cad>55</ns3:cad>
          </ns3:TrackPointExtension>
        </extensions>
      </trkpt>
      <trkpt lat="45.32800289802253246307373046875" lon="-70.81040105782449245452880859375">
        <ele>913</ele>
        <time>2026-08-21T12:13:10.000Z</time>
        <extensions>
          <ns3:TrackPointExtension>
            <ns3:hr>122</ns3:hr>
            <ns3:cad>55</ns3:cad>
          </ns3:TrackPointExtension>
        </extensions>
      </trkpt>
      <trkpt lat="45.32800935208797454833984375" lon="-70.8103848807513713836669921875">
        <ele>913</ele>
        <time>2026-08-21T12:13:11.000Z</time>
        <extensions>
          <ns3:TrackPointExtension>
            <ns3:hr>122</ns3:hr>
            <ns3:cad>55</ns3:cad>
          </ns3:TrackPointExtension>
        </extensions>
      </trkpt>
      <trkpt lat="45.328016392886638641357421875" lon="-70.810365267097949981689453125">
        <ele>912.79998779296875</ele>
        <time>2026-08-21T12:13:12.000Z</time>
        <extensions>
          <ns3:TrackPointExtension>
            <ns3:hr>121</ns3:hr>
            <ns3:cad>55</ns3:cad>
          </ns3:TrackPointExtension>
        </extensions>
      </trkpt>
      <trkpt lat="45.3280229307711124420166015625" lon="-70.8103530295193195343017578125">
        <ele>912.79998779296875</ele>
        <time>2026-08-21T12:13:13.000Z</time>
        <extensions>
          <ns3:TrackPointExtension>
            <ns3:hr>122</ns3:hr>
            <ns3:cad>59</ns3:cad>
          </ns3:TrackPointExtension>
        </extensions>
      </trkpt>
      <trkpt lat="45.328031145036220550537109375" lon="-70.81034406088292598724365234375">
        <ele>912.79998779296875</ele>
        <time>2026-08-21T12:13:14.000Z</time>
        <extensions>
          <ns3:TrackPointExtension>
            <ns3:hr>122</ns3:hr>
            <ns3:cad>59</ns3:cad>
          </ns3:TrackPointExtension>
        </extensions>
      </trkpt>
      <trkpt lat="45.32803910784423351287841796875" lon="-70.81032779999077320098876953125">
        <ele>912.79998779296875</ele>
        <time>2026-08-21T12:13:15.000Z</time>
        <extensions>
          <ns3:TrackPointExtension>
            <ns3:hr>122</ns3:hr>
            <ns3:cad>59</ns3:cad>
          </ns3:TrackPointExtension>
        </extensions>
      </trkpt>
      <trkpt lat="45.32804698683321475982666015625" lon="-70.81031070090830326080322265625">
        <ele>912.5999755859375</ele>
        <time>2026-08-21T12:13:16.000Z</time>
        <extensions>
          <ns3:TrackPointExtension>
            <ns3:hr>122</ns3:hr>
            <ns3:cad>59</ns3:cad>
          </ns3:TrackPointExtension>
        </extensions>
      </trkpt>
      <trkpt lat="45.328053273260593414306640625" lon="-70.81029050052165985107421875">
        <ele>912.4000244140625</ele>
        <time>2026-08-21T12:13:17.000Z</time>
        <extensions>
          <ns3:TrackPointExtension>
            <ns3:hr>122</ns3:hr>
            <ns3:cad>59</ns3:cad>
          </ns3:TrackPointExtension>
        </extensions>
      </trkpt>
      <trkpt lat="45.328057967126369476318359375" lon="-70.81027566455304622650146484375">
        <ele>912.4000244140625</ele>
        <time>2026-08-21T12:13:18.000Z</time>
        <extensions>
          <ns3:TrackPointExtension>
            <ns3:hr>122</ns3:hr>
            <ns3:cad>0</ns3:cad>
          </ns3:TrackPointExtension>
        </extensions>
      </trkpt>
      <trkpt lat="45.32806165516376495361328125" lon="-70.8102527819573879241943359375">
        <ele>912.20001220703125</ele>
        <time>2026-08-21T12:13:19.000Z</time>
        <extensions>
          <ns3:TrackPointExtension>
            <ns3:hr>121</ns3:hr>
            <ns3:cad>0</ns3:cad>
          </ns3:TrackPointExtension>
        </extensions>
      </trkpt>
      <trkpt lat="45.3280584700405597686767578125" lon="-70.81024356186389923095703125">
        <ele>911.79998779296875</ele>
        <time>2026-08-21T12:13:20.000Z</time>
        <extensions>
          <ns3:TrackPointExtension>
            <ns3:hr>122</ns3:hr>
            <ns3:cad>0</ns3:cad>
          </ns3:TrackPointExtension>
        </extensions>
      </trkpt>
      <trkpt lat="45.3280618228018283843994140625" lon="-70.8102249540388584136962890625">
        <ele>911.5999755859375</ele>
        <time>2026-08-21T12:13:21.000Z</time>
        <extensions>
          <ns3:TrackPointExtension>
            <ns3:hr>122</ns3:hr>
            <ns3:cad>0</ns3:cad>
          </ns3:TrackPointExtension>
        </extensions>
      </trkpt>
      <trkpt lat="45.32806433737277984619140625" lon="-70.8102061785757541656494140625">
        <ele>911.4000244140625</ele>
        <time>2026-08-21T12:13:22.000Z</time>
        <extensions>
          <ns3:TrackPointExtension>
            <ns3:hr>122</ns3:hr>
            <ns3:cad>0</ns3:cad>
          </ns3:TrackPointExtension>
        </extensions>
      </trkpt>
      <trkpt lat="45.32806567847728729248046875" lon="-70.8101900853216648101806640625">
        <ele>911.20001220703125</ele>
        <time>2026-08-21T12:13:23.000Z</time>
        <extensions>
          <ns3:TrackPointExtension>
            <ns3:hr>123</ns3:hr>
            <ns3:cad>0</ns3:cad>
          </ns3:TrackPointExtension>
        </extensions>
      </trkpt>
      <trkpt lat="45.32806660048663616180419921875" lon="-70.8101592399179935455322265625">
        <ele>911</ele>
        <time>2026-08-21T12:13:24.000Z</time>
        <extensions>
          <ns3:TrackPointExtension>
            <ns3:hr>123</ns3:hr>
            <ns3:cad>0</ns3:cad>
          </ns3:TrackPointExtension>
        </extensions>
      </trkpt>
      <trkpt lat="45.32807012088596820831298828125" lon="-70.8101401291787624359130859375">
        <ele>910.79998779296875</ele>
        <time>2026-08-21T12:13:25.000Z</time>
        <extensions>
          <ns3:TrackPointExtension>
            <ns3:hr>124</ns3:hr>
            <ns3:cad>0</ns3:cad>
          </ns3:TrackPointExtension>
        </extensions>
      </trkpt>
      <trkpt lat="45.32807649113237857818603515625" lon="-70.81012546084821224212646484375">
        <ele>910.79998779296875</ele>
        <time>2026-08-21T12:13:26.000Z</time>
        <extensions>
          <ns3:TrackPointExtension>
            <ns3:hr>125</ns3:hr>
            <ns3:cad>62</ns3:cad>
          </ns3:TrackPointExtension>
        </extensions>
      </trkpt>
      <trkpt lat="45.32807984389364719390869140625" lon="-70.81010249443352222442626953125">
        <ele>910.79998779296875</ele>
        <time>2026-08-21T12:13:27.000Z</time>
        <extensions>
          <ns3:TrackPointExtension>
            <ns3:hr>125</ns3:hr>
            <ns3:cad>62</ns3:cad>
          </ns3:TrackPointExtension>
        </extensions>
      </trkpt>
      <trkpt lat="45.3280832804739475250244140625" lon="-70.81008438952267169952392578125">
        <ele>910.5999755859375</ele>
        <time>2026-08-21T12:13:28.000Z</time>
        <extensions>
          <ns3:TrackPointExtension>
            <ns3:hr>126</ns3:hr>
            <ns3:cad>62</ns3:cad>
          </ns3:TrackPointExtension>
        </extensions>
      </trkpt>
      <trkpt lat="45.32809006981551647186279296875" lon="-70.8100725710391998291015625">
        <ele>910.4000244140625</ele>
        <time>2026-08-21T12:13:29.000Z</time>
        <extensions>
          <ns3:TrackPointExtension>
            <ns3:hr>127</ns3:hr>
            <ns3:cad>62</ns3:cad>
          </ns3:TrackPointExtension>
        </extensions>
      </trkpt>
      <trkpt lat="45.32809644006192684173583984375" lon="-70.81007332541048526763916015625">
        <ele>910.20001220703125</ele>
        <time>2026-08-21T12:13:30.000Z</time>
        <extensions>
          <ns3:TrackPointExtension>
            <ns3:hr>127</ns3:hr>
            <ns3:cad>62</ns3:cad>
          </ns3:TrackPointExtension>
        </extensions>
      </trkpt>
      <trkpt lat="45.3281060792505741119384765625" lon="-70.8100605010986328125">
        <ele>910.20001220703125</ele>
        <time>2026-08-21T12:13:31.000Z</time>
        <extensions>
          <ns3:TrackPointExtension>
            <ns3:hr>126</ns3:hr>
            <ns3:cad>62</ns3:cad>
          </ns3:TrackPointExtension>
        </extensions>
      </trkpt>
      <trkpt lat="45.32810985110700130462646484375" lon="-70.810045413672924041748046875">
        <ele>910</ele>
        <time>2026-08-21T12:13:32.000Z</time>
        <extensions>
          <ns3:TrackPointExtension>
            <ns3:hr>126</ns3:hr>
            <ns3:cad>62</ns3:cad>
          </ns3:TrackPointExtension>
        </extensions>
      </trkpt>
      <trkpt lat="45.32810389995574951171875" lon="-70.81002772785723209381103515625">
        <ele>910</ele>
        <time>2026-08-21T12:13:33.000Z</time>
        <extensions>
          <ns3:TrackPointExtension>
            <ns3:hr>126</ns3:hr>
            <ns3:cad>62</ns3:cad>
          </ns3:TrackPointExtension>
        </extensions>
      </trkpt>
      <trkpt lat="45.3280933387577533721923828125" lon="-70.81001917831599712371826171875">
        <ele>910</ele>
        <time>2026-08-21T12:13:34.000Z</time>
        <extensions>
          <ns3:TrackPointExtension>
            <ns3:hr>126</ns3:hr>
            <ns3:cad>62</ns3:cad>
          </ns3:TrackPointExtension>
        </extensions>
      </trkpt>
      <trkpt lat="45.328086800873279571533203125" lon="-70.8100073598325252532958984375">
        <ele>910</ele>
        <time>2026-08-21T12:13:35.000Z</time>
        <extensions>
          <ns3:TrackPointExtension>
            <ns3:hr>126</ns3:hr>
            <ns3:cad>62</ns3:cad>
          </ns3:TrackPointExtension>
        </extensions>
      </trkpt>
      <trkpt lat="45.3280839510262012481689453125" lon="-70.80999218858778476715087890625">
        <ele>910</ele>
        <time>2026-08-21T12:13:36.000Z</time>
        <extensions>
          <ns3:TrackPointExtension>
            <ns3:hr>126</ns3:hr>
            <ns3:cad>0</ns3:cad>
          </ns3:TrackPointExtension>
        </extensions>
      </trkpt>
      <trkpt lat="45.32808319665491580963134765625" lon="-70.80997207202017307281494140625">
        <ele>910</ele>
        <time>2026-08-21T12:13:37.000Z</time>
        <extensions>
          <ns3:TrackPointExtension>
            <ns3:hr>126</ns3:hr>
            <ns3:cad>0</ns3:cad>
          </ns3:TrackPointExtension>
        </extensions>
      </trkpt>
      <trkpt lat="45.32808453775942325592041015625" lon="-70.8099637739360332489013671875">
        <ele>910.20001220703125</ele>
        <time>2026-08-21T12:13:38.000Z</time>
        <extensions>
          <ns3:TrackPointExtension>
            <ns3:hr>126</ns3:hr>
            <ns3:cad>0</ns3:cad>
          </ns3:TrackPointExtension>
        </extensions>
      </trkpt>
      <trkpt lat="45.32808822579681873321533203125" lon="-70.8099627681076526641845703125">
        <ele>910.20001220703125</ele>
        <time>2026-08-21T12:13:39.000Z</time>
        <extensions>
          <ns3:TrackPointExtension>
            <ns3:hr>126</ns3:hr>
            <ns3:cad>0</ns3:cad>
          </ns3:TrackPointExtension>
        </extensions>
      </trkpt>
      <trkpt lat="45.32809711061418056488037109375" lon="-70.80995715223252773284912109375">
        <ele>910.20001220703125</ele>
        <time>2026-08-21T12:13:40.000Z</time>
        <extensions>
          <ns3:TrackPointExtension>
            <ns3:hr>125</ns3:hr>
            <ns3:cad>57</ns3:cad>
          </ns3:TrackPointExtension>
        </extensions>
      </trkpt>
      <trkpt lat="45.3281067498028278350830078125" lon="-70.80995094962418079376220703125">
        <ele>910.20001220703125</ele>
        <time>2026-08-21T12:13:41.000Z</time>
        <extensions>
          <ns3:TrackPointExtension>
            <ns3:hr>126</ns3:hr>
            <ns3:cad>57</ns3:cad>
          </ns3:TrackPointExtension>
        </extensions>
      </trkpt>
      <trkpt lat="45.32811420969665050506591796875" lon="-70.80994508229196071624755859375">
        <ele>910.20001220703125</ele>
        <time>2026-08-21T12:13:42.000Z</time>
        <extensions>
          <ns3:TrackPointExtension>
            <ns3:hr>126</ns3:hr>
            <ns3:cad>57</ns3:cad>
          </ns3:TrackPointExtension>
        </extensions>
      </trkpt>
      <trkpt lat="45.328117646276950836181640625" lon="-70.8099278993904590606689453125">
        <ele>910.20001220703125</ele>
        <time>2026-08-21T12:13:43.000Z</time>
        <extensions>
          <ns3:TrackPointExtension>
            <ns3:hr>126</ns3:hr>
            <ns3:cad>57</ns3:cad>
          </ns3:TrackPointExtension>
        </extensions>
      </trkpt>
      <trkpt lat="45.32811923883855342864990234375" lon="-70.80990451388061046600341796875">
        <ele>910.20001220703125</ele>
        <time>2026-08-21T12:13:44.000Z</time>
        <extensions>
          <ns3:TrackPointExtension>
            <ns3:hr>126</ns3:hr>
            <ns3:cad>57</ns3:cad>
          </ns3:TrackPointExtension>
        </extensions>
      </trkpt>
      <trkpt lat="45.32812108285725116729736328125" lon="-70.80987819470465183258056640625">
        <ele>910.20001220703125</ele>
        <time>2026-08-21T12:13:45.000Z</time>
        <extensions>
          <ns3:TrackPointExtension>
            <ns3:hr>126</ns3:hr>
            <ns3:cad>57</ns3:cad>
          </ns3:TrackPointExtension>
        </extensions>
      </trkpt>
      <trkpt lat="45.32812661491334438323974609375" lon="-70.809865035116672515869140625">
        <ele>910.4000244140625</ele>
        <time>2026-08-21T12:13:46.000Z</time>
        <extensions>
          <ns3:TrackPointExtension>
            <ns3:hr>125</ns3:hr>
            <ns3:cad>57</ns3:cad>
          </ns3:TrackPointExtension>
        </extensions>
      </trkpt>
      <trkpt lat="45.32813281752169132232666015625" lon="-70.8098336867988109588623046875">
        <ele>910.79998779296875</ele>
        <time>2026-08-21T12:13:47.000Z</time>
        <extensions>
          <ns3:TrackPointExtension>
            <ns3:hr>126</ns3:hr>
            <ns3:cad>0</ns3:cad>
          </ns3:TrackPointExtension>
        </extensions>
      </trkpt>
      <trkpt lat="45.32813818193972110748291015625" lon="-70.8098115585744380950927734375">
        <ele>911</ele>
        <time>2026-08-21T12:13:48.000Z</time>
        <extensions>
          <ns3:TrackPointExtension>
            <ns3:hr>126</ns3:hr>
            <ns3:cad>0</ns3:cad>
          </ns3:TrackPointExtension>
        </extensions>
      </trkpt>
      <trkpt lat="45.32814337871968746185302734375" lon="-70.80979169346392154693603515625">
        <ele>911.4000244140625</ele>
        <time>2026-08-21T12:13:49.000Z</time>
        <extensions>
          <ns3:TrackPointExtension>
            <ns3:hr>126</ns3:hr>
            <ns3:cad>0</ns3:cad>
          </ns3:TrackPointExtension>
        </extensions>
      </trkpt>
      <trkpt lat="45.3281510062515735626220703125" lon="-70.8097760193049907684326171875">
        <ele>911.5999755859375</ele>
        <time>2026-08-21T12:13:50.000Z</time>
        <extensions>
          <ns3:TrackPointExtension>
            <ns3:hr>127</ns3:hr>
            <ns3:cad>0</ns3:cad>
          </ns3:TrackPointExtension>
        </extensions>
      </trkpt>
      <trkpt lat="45.32815595157444477081298828125" lon="-70.8097579143941402435302734375">
        <ele>911.79998779296875</ele>
        <time>2026-08-21T12:13:51.000Z</time>
        <extensions>
          <ns3:TrackPointExtension>
            <ns3:hr>127</ns3:hr>
            <ns3:cad>0</ns3:cad>
          </ns3:TrackPointExtension>
        </extensions>
      </trkpt>
      <trkpt lat="45.3281577117741107940673828125" lon="-70.80974643118679523468017578125">
        <ele>912</ele>
        <time>2026-08-21T12:13:52.000Z</time>
        <extensions>
          <ns3:TrackPointExtension>
            <ns3:hr>128</ns3:hr>
            <ns3:cad>16</ns3:cad>
          </ns3:TrackPointExtension>
        </extensions>
      </trkpt>
      <trkpt lat="45.328158549964427947998046875" lon="-70.80972245894372463226318359375">
        <ele>911.79998779296875</ele>
        <time>2026-08-21T12:13:53.000Z</time>
        <extensions>
          <ns3:TrackPointExtension>
            <ns3:hr>128</ns3:hr>
            <ns3:cad>16</ns3:cad>
          </ns3:TrackPointExtension>
        </extensions>
      </trkpt>
      <trkpt lat="45.32816399820148944854736328125" lon="-70.809703432023525238037109375">
        <ele>911.79998779296875</ele>
        <time>2026-08-21T12:13:54.000Z</time>
        <extensions>
          <ns3:TrackPointExtension>
            <ns3:hr>129</ns3:hr>
            <ns3:cad>16</ns3:cad>
          </ns3:TrackPointExtension>
        </extensions>
      </trkpt>
      <trkpt lat="45.32816986553370952606201171875" lon="-70.80968574620783329010009765625">
        <ele>911.79998779296875</ele>
        <time>2026-08-21T12:13:55.000Z</time>
        <extensions>
          <ns3:TrackPointExtension>
            <ns3:hr>129</ns3:hr>
            <ns3:cad>16</ns3:cad>
          </ns3:TrackPointExtension>
        </extensions>
      </trkpt>
      <trkpt lat="45.328173302114009857177734375" lon="-70.80966898240149021148681640625">
        <ele>911.5999755859375</ele>
        <time>2026-08-21T12:13:56.000Z</time>
        <extensions>
          <ns3:TrackPointExtension>
            <ns3:hr>130</ns3:hr>
            <ns3:cad>16</ns3:cad>
          </ns3:TrackPointExtension>
        </extensions>
      </trkpt>
      <trkpt lat="45.32817774452269077301025390625" lon="-70.809642411768436431884765625">
        <ele>911.5999755859375</ele>
        <time>2026-08-21T12:13:57.000Z</time>
        <extensions>
          <ns3:TrackPointExtension>
            <ns3:hr>130</ns3:hr>
            <ns3:cad>16</ns3:cad>
          </ns3:TrackPointExtension>
        </extensions>
      </trkpt>
      <trkpt lat="45.32818101346492767333984375" lon="-70.8096174336969852447509765625">
        <ele>911.5999755859375</ele>
        <time>2026-08-21T12:13:58.000Z</time>
        <extensions>
          <ns3:TrackPointExtension>
            <ns3:hr>130</ns3:hr>
            <ns3:cad>16</ns3:cad>
          </ns3:TrackPointExtension>
        </extensions>
      </trkpt>
      <trkpt lat="45.328183360397815704345703125" lon="-70.80959287472069263458251953125">
        <ele>911.5999755859375</ele>
        <time>2026-08-21T12:13:59.000Z</time>
        <extensions>
          <ns3:TrackPointExtension>
            <ns3:hr>131</ns3:hr>
            <ns3:cad>16</ns3:cad>
          </ns3:TrackPointExtension>
        </extensions>
      </trkpt>
      <trkpt lat="45.32818461768329143524169921875" lon="-70.8095721714198589324951171875">
        <ele>911.5999755859375</ele>
        <time>2026-08-21T12:14:00.000Z</time>
        <extensions>
          <ns3:TrackPointExtension>
            <ns3:hr>131</ns3:hr>
            <ns3:cad>16</ns3:cad>
          </ns3:TrackPointExtension>
        </extensions>
      </trkpt>
      <trkpt lat="45.32818746753036975860595703125" lon="-70.80954694189131259918212890625">
        <ele>911.5999755859375</ele>
        <time>2026-08-21T12:14:01.000Z</time>
        <extensions>
          <ns3:TrackPointExtension>
            <ns3:hr>131</ns3:hr>
            <ns3:cad>16</ns3:cad>
          </ns3:TrackPointExtension>
        </extensions>
      </trkpt>
      <trkpt lat="45.32819501124322414398193359375" lon="-70.8095307648181915283203125">
        <ele>911.79998779296875</ele>
        <time>2026-08-21T12:14:02.000Z</time>
        <extensions>
          <ns3:TrackPointExtension>
            <ns3:hr>131</ns3:hr>
            <ns3:cad>16</ns3:cad>
          </ns3:TrackPointExtension>
        </extensions>
      </trkpt>
      <trkpt lat="45.3281996212899684906005859375" lon="-70.80951106734573841094970703125">
        <ele>911.79998779296875</ele>
        <time>2026-08-21T12:14:03.000Z</time>
        <extensions>
          <ns3:TrackPointExtension>
            <ns3:hr>132</ns3:hr>
            <ns3:cad>16</ns3:cad>
          </ns3:TrackPointExtension>
        </extensions>
      </trkpt>
      <trkpt lat="45.3282093442976474761962890625" lon="-70.80949061550199985504150390625">
        <ele>911.79998779296875</ele>
        <time>2026-08-21T12:14:04.000Z</time>
        <extensions>
          <ns3:TrackPointExtension>
            <ns3:hr>132</ns3:hr>
            <ns3:cad>0</ns3:cad>
          </ns3:TrackPointExtension>
        </extensions>
      </trkpt>
      <trkpt lat="45.32821663655340671539306640625" lon="-70.8094789646565914154052734375">
        <ele>911.79998779296875</ele>
        <time>2026-08-21T12:14:05.000Z</time>
        <extensions>
          <ns3:TrackPointExtension>
            <ns3:hr>132</ns3:hr>
            <ns3:cad>0</ns3:cad>
          </ns3:TrackPointExtension>
        </extensions>
      </trkpt>
      <trkpt lat="45.328229628503322601318359375" lon="-70.80946094356477260589599609375">
        <ele>911.5999755859375</ele>
        <time>2026-08-21T12:14:06.000Z</time>
        <extensions>
          <ns3:TrackPointExtension>
            <ns3:hr>132</ns3:hr>
            <ns3:cad>0</ns3:cad>
          </ns3:TrackPointExtension>
        </extensions>
      </trkpt>
      <trkpt lat="45.3282415308058261871337890625" lon="-70.80944132991135120391845703125">
        <ele>911.4000244140625</ele>
        <time>2026-08-21T12:14:07.000Z</time>
        <extensions>
          <ns3:TrackPointExtension>
            <ns3:hr>132</ns3:hr>
            <ns3:cad>0</ns3:cad>
          </ns3:TrackPointExtension>
        </extensions>
      </trkpt>
      <trkpt lat="45.32825184054672718048095703125" lon="-70.80942003987729549407958984375">
        <ele>911.20001220703125</ele>
        <time>2026-08-21T12:14:08.000Z</time>
        <extensions>
          <ns3:TrackPointExtension>
            <ns3:hr>132</ns3:hr>
            <ns3:cad>0</ns3:cad>
          </ns3:TrackPointExtension>
        </extensions>
      </trkpt>
      <trkpt lat="45.32825611531734466552734375" lon="-70.80939891748130321502685546875">
        <ele>911</ele>
        <time>2026-08-21T12:14:09.000Z</time>
        <extensions>
          <ns3:TrackPointExtension>
            <ns3:hr>132</ns3:hr>
            <ns3:cad>0</ns3:cad>
          </ns3:TrackPointExtension>
        </extensions>
      </trkpt>
      <trkpt lat="45.328259132802486419677734375" lon="-70.80937578342854976654052734375">
        <ele>910.5999755859375</ele>
        <time>2026-08-21T12:14:10.000Z</time>
        <extensions>
          <ns3:TrackPointExtension>
            <ns3:hr>132</ns3:hr>
            <ns3:cad>0</ns3:cad>
          </ns3:TrackPointExtension>
        </extensions>
      </trkpt>
      <trkpt lat="45.32826592214405536651611328125" lon="-70.80934862606227397918701171875">
        <ele>910.4000244140625</ele>
        <time>2026-08-21T12:14:11.000Z</time>
        <extensions>
          <ns3:TrackPointExtension>
            <ns3:hr>133</ns3:hr>
            <ns3:cad>0</ns3:cad>
          </ns3:TrackPointExtension>
        </extensions>
      </trkpt>
      <trkpt lat="45.32826642505824565887451171875" lon="-70.8093304373323917388916015625">
        <ele>910.4000244140625</ele>
        <time>2026-08-21T12:14:12.000Z</time>
        <extensions>
          <ns3:TrackPointExtension>
            <ns3:hr>132</ns3:hr>
            <ns3:cad>0</ns3:cad>
          </ns3:TrackPointExtension>
        </extensions>
      </trkpt>
      <trkpt lat="45.32826793380081653594970703125" lon="-70.80930688418447971343994140625">
        <ele>910.5999755859375</ele>
        <time>2026-08-21T12:14:13.000Z</time>
        <extensions>
          <ns3:TrackPointExtension>
            <ns3:hr>133</ns3:hr>
            <ns3:cad>0</ns3:cad>
          </ns3:TrackPointExtension>
        </extensions>
      </trkpt>
      <trkpt lat="45.32826994545757770538330078125" lon="-70.80928995274007320404052734375">
        <ele>910.5999755859375</ele>
        <time>2026-08-21T12:14:14.000Z</time>
        <extensions>
          <ns3:TrackPointExtension>
            <ns3:hr>133</ns3:hr>
            <ns3:cad>0</ns3:cad>
          </ns3:TrackPointExtension>
        </extensions>
      </trkpt>
      <trkpt lat="45.32827346585690975189208984375" lon="-70.80927134491503238677978515625">
        <ele>910.79998779296875</ele>
        <time>2026-08-21T12:14:15.000Z</time>
        <extensions>
          <ns3:TrackPointExtension>
            <ns3:hr>132</ns3:hr>
            <ns3:cad>0</ns3:cad>
          </ns3:TrackPointExtension>
        </extensions>
      </trkpt>
      <trkpt lat="45.32827665098011493682861328125" lon="-70.80924770794808864593505859375">
        <ele>910.79998779296875</ele>
        <time>2026-08-21T12:14:16.000Z</time>
        <extensions>
          <ns3:TrackPointExtension>
            <ns3:hr>133</ns3:hr>
            <ns3:cad>0</ns3:cad>
          </ns3:TrackPointExtension>
        </extensions>
      </trkpt>
      <trkpt lat="45.32828100956976413726806640625" lon="-70.80922641791403293609619140625">
        <ele>910.79998779296875</ele>
        <time>2026-08-21T12:14:17.000Z</time>
        <extensions>
          <ns3:TrackPointExtension>
            <ns3:hr>133</ns3:hr>
            <ns3:cad>0</ns3:cad>
          </ns3:TrackPointExtension>
        </extensions>
      </trkpt>
      <trkpt lat="45.32828302122652530670166015625" lon="-70.8092033676803112030029296875">
        <ele>910.79998779296875</ele>
        <time>2026-08-21T12:14:18.000Z</time>
        <extensions>
          <ns3:TrackPointExtension>
            <ns3:hr>133</ns3:hr>
            <ns3:cad>0</ns3:cad>
          </ns3:TrackPointExtension>
        </extensions>
      </trkpt>
      <trkpt lat="45.3282871283590793609619140625" lon="-70.80918584950268268585205078125">
        <ele>910.79998779296875</ele>
        <time>2026-08-21T12:14:19.000Z</time>
        <extensions>
          <ns3:TrackPointExtension>
            <ns3:hr>134</ns3:hr>
            <ns3:cad>51</ns3:cad>
          </ns3:TrackPointExtension>
        </extensions>
      </trkpt>
      <trkpt lat="45.3282854519784450531005859375" lon="-70.80917201936244964599609375">
        <ele>911</ele>
        <time>2026-08-21T12:14:20.000Z</time>
        <extensions>
          <ns3:TrackPointExtension>
            <ns3:hr>134</ns3:hr>
            <ns3:cad>51</ns3:cad>
          </ns3:TrackPointExtension>
        </extensions>
      </trkpt>
      <trkpt lat="45.32828654162585735321044921875" lon="-70.8091554231941699981689453125">
        <ele>911</ele>
        <time>2026-08-21T12:14:21.000Z</time>
        <extensions>
          <ns3:TrackPointExtension>
            <ns3:hr>134</ns3:hr>
            <ns3:cad>51</ns3:cad>
          </ns3:TrackPointExtension>
        </extensions>
      </trkpt>
      <trkpt lat="45.328289307653903961181640625" lon="-70.80912684090435504913330078125">
        <ele>911.20001220703125</ele>
        <time>2026-08-21T12:14:22.000Z</time>
        <extensions>
          <ns3:TrackPointExtension>
            <ns3:hr>134</ns3:hr>
            <ns3:cad>51</ns3:cad>
          </ns3:TrackPointExtension>
        </extensions>
      </trkpt>
      <trkpt lat="45.328291319310665130615234375" lon="-70.8091088198125362396240234375">
        <ele>911.4000244140625</ele>
        <time>2026-08-21T12:14:23.000Z</time>
        <extensions>
          <ns3:TrackPointExtension>
            <ns3:hr>134</ns3:hr>
            <ns3:cad>51</ns3:cad>
          </ns3:TrackPointExtension>
        </extensions>
      </trkpt>
      <trkpt lat="45.3282965160906314849853515625" lon="-70.8090954087674617767333984375">
        <ele>911.5999755859375</ele>
        <time>2026-08-21T12:14:24.000Z</time>
        <extensions>
          <ns3:TrackPointExtension>
            <ns3:hr>134</ns3:hr>
            <ns3:cad>0</ns3:cad>
          </ns3:TrackPointExtension>
        </extensions>
      </trkpt>
      <trkpt lat="45.32829609699547290802001953125" lon="-70.8090716041624546051025390625">
        <ele>911.79998779296875</ele>
        <time>2026-08-21T12:14:25.000Z</time>
        <extensions>
          <ns3:TrackPointExtension>
            <ns3:hr>133</ns3:hr>
            <ns3:cad>0</ns3:cad>
          </ns3:TrackPointExtension>
        </extensions>
      </trkpt>
      <trkpt lat="45.3282951749861240386962890625" lon="-70.80904461443424224853515625">
        <ele>911.79998779296875</ele>
        <time>2026-08-21T12:14:26.000Z</time>
        <extensions>
          <ns3:TrackPointExtension>
            <ns3:hr>133</ns3:hr>
            <ns3:cad>0</ns3:cad>
          </ns3:TrackPointExtension>
        </extensions>
      </trkpt>
      <trkpt lat="45.328298695385456085205078125" lon="-70.80903698690235614776611328125">
        <ele>912</ele>
        <time>2026-08-21T12:14:27.000Z</time>
        <extensions>
          <ns3:TrackPointExtension>
            <ns3:hr>133</ns3:hr>
            <ns3:cad>0</ns3:cad>
          </ns3:TrackPointExtension>
        </extensions>
      </trkpt>
      <trkpt lat="45.3282995335757732391357421875" lon="-70.80902692861855030059814453125">
        <ele>912</ele>
        <time>2026-08-21T12:14:28.000Z</time>
        <extensions>
          <ns3:TrackPointExtension>
            <ns3:hr>134</ns3:hr>
            <ns3:cad>54</ns3:cad>
          </ns3:TrackPointExtension>
        </extensions>
      </trkpt>
      <trkpt lat="45.3283025510609149932861328125" lon="-70.80901242792606353759765625">
        <ele>912.4000244140625</ele>
        <time>2026-08-21T12:14:29.000Z</time>
        <extensions>
          <ns3:TrackPointExtension>
            <ns3:hr>134</ns3:hr>
            <ns3:cad>54</ns3:cad>
          </ns3:TrackPointExtension>
        </extensions>
      </trkpt>
      <trkpt lat="45.3283109329640865325927734375" lon="-70.8089971728622913360595703125">
        <ele>912.5999755859375</ele>
        <time>2026-08-21T12:14:30.000Z</time>
        <extensions>
          <ns3:TrackPointExtension>
            <ns3:hr>134</ns3:hr>
            <ns3:cad>54</ns3:cad>
          </ns3:TrackPointExtension>
        </extensions>
      </trkpt>
      <trkpt lat="45.32831721939146518707275390625" lon="-70.80897546373307704925537109375">
        <ele>913</ele>
        <time>2026-08-21T12:14:31.000Z</time>
        <extensions>
          <ns3:TrackPointExtension>
            <ns3:hr>134</ns3:hr>
            <ns3:cad>54</ns3:cad>
          </ns3:TrackPointExtension>
        </extensions>
      </trkpt>
      <trkpt lat="45.32832182943820953369140625" lon="-70.808956436812877655029296875">
        <ele>913</ele>
        <time>2026-08-21T12:14:32.000Z</time>
        <extensions>
          <ns3:TrackPointExtension>
            <ns3:hr>134</ns3:hr>
            <ns3:cad>54</ns3:cad>
          </ns3:TrackPointExtension>
        </extensions>
      </trkpt>
      <trkpt lat="45.32832174561917781829833984375" lon="-70.80893506295979022979736328125">
        <ele>913</ele>
        <time>2026-08-21T12:14:33.000Z</time>
        <extensions>
          <ns3:TrackPointExtension>
            <ns3:hr>135</ns3:hr>
            <ns3:cad>54</ns3:cad>
          </ns3:TrackPointExtension>
        </extensions>
      </trkpt>
      <trkpt lat="45.3283213265240192413330078125" lon="-70.80891176126897335052490234375">
        <ele>913</ele>
        <time>2026-08-21T12:14:34.000Z</time>
        <extensions>
          <ns3:TrackPointExtension>
            <ns3:hr>134</ns3:hr>
            <ns3:cad>54</ns3:cad>
          </ns3:TrackPointExtension>
        </extensions>
      </trkpt>
      <trkpt lat="45.328321494162082672119140625" lon="-70.8088858611881732940673828125">
        <ele>912.79998779296875</ele>
        <time>2026-08-21T12:14:35.000Z</time>
        <extensions>
          <ns3:TrackPointExtension>
            <ns3:hr>134</ns3:hr>
            <ns3:cad>54</ns3:cad>
          </ns3:TrackPointExtension>
        </extensions>
      </trkpt>
      <trkpt lat="45.32832124270498752593994140625" lon="-70.80886549316346645355224609375">
        <ele>912.79998779296875</ele>
        <time>2026-08-21T12:14:36.000Z</time>
        <extensions>
          <ns3:TrackPointExtension>
            <ns3:hr>134</ns3:hr>
            <ns3:cad>54</ns3:cad>
          </ns3:TrackPointExtension>
        </extensions>
      </trkpt>
      <trkpt lat="45.3283320553600788116455078125" lon="-70.80884939990937709808349609375">
        <ele>912.5999755859375</ele>
        <time>2026-08-21T12:14:37.000Z</time>
        <extensions>
          <ns3:TrackPointExtension>
            <ns3:hr>134</ns3:hr>
            <ns3:cad>54</ns3:cad>
          </ns3:TrackPointExtension>
        </extensions>
      </trkpt>
      <trkpt lat="45.32833792269229888916015625" lon="-70.8088281936943531036376953125">
        <ele>912.5999755859375</ele>
        <time>2026-08-21T12:14:38.000Z</time>
        <extensions>
          <ns3:TrackPointExtension>
            <ns3:hr>134</ns3:hr>
            <ns3:cad>0</ns3:cad>
          </ns3:TrackPointExtension>
        </extensions>
      </trkpt>
      <trkpt lat="45.3283412754535675048828125" lon="-70.80880849622189998626708984375">
        <ele>912.4000244140625</ele>
        <time>2026-08-21T12:14:39.000Z</time>
        <extensions>
          <ns3:TrackPointExtension>
            <ns3:hr>134</ns3:hr>
            <ns3:cad>0</ns3:cad>
          </ns3:TrackPointExtension>
        </extensions>
      </trkpt>
      <trkpt lat="45.32834974117577075958251953125" lon="-70.808779411017894744873046875">
        <ele>912.4000244140625</ele>
        <time>2026-08-21T12:14:40.000Z</time>
        <extensions>
          <ns3:TrackPointExtension>
            <ns3:hr>134</ns3:hr>
            <ns3:cad>0</ns3:cad>
          </ns3:TrackPointExtension>
        </extensions>
      </trkpt>
      <trkpt lat="45.32835862599313259124755859375" lon="-70.80875552259385585784912109375">
        <ele>912.4000244140625</ele>
        <time>2026-08-21T12:14:41.000Z</time>
        <extensions>
          <ns3:TrackPointExtension>
            <ns3:hr>135</ns3:hr>
            <ns3:cad>0</ns3:cad>
          </ns3:TrackPointExtension>
        </extensions>
      </trkpt>
      <trkpt lat="45.3283654153347015380859375" lon="-70.80873305909335613250732421875">
        <ele>912.4000244140625</ele>
        <time>2026-08-21T12:14:42.000Z</time>
        <extensions>
          <ns3:TrackPointExtension>
            <ns3:hr>134</ns3:hr>
            <ns3:cad>0</ns3:cad>
          </ns3:TrackPointExtension>
        </extensions>
      </trkpt>
      <trkpt lat="45.32837287522852420806884765625" lon="-70.808714367449283599853515625">
        <ele>912.4000244140625</ele>
        <time>2026-08-21T12:14:43.000Z</time>
        <extensions>
          <ns3:TrackPointExtension>
            <ns3:hr>134</ns3:hr>
            <ns3:cad>0</ns3:cad>
          </ns3:TrackPointExtension>
        </extensions>
      </trkpt>
      <trkpt lat="45.3283766470849514007568359375" lon="-70.8086950890719890594482421875">
        <ele>912.4000244140625</ele>
        <time>2026-08-21T12:14:44.000Z</time>
        <extensions>
          <ns3:TrackPointExtension>
            <ns3:hr>134</ns3:hr>
            <ns3:cad>0</ns3:cad>
          </ns3:TrackPointExtension>
        </extensions>
      </trkpt>
      <trkpt lat="45.328375808894634246826171875" lon="-70.8086810074746608734130859375">
        <ele>912.79998779296875</ele>
        <time>2026-08-21T12:14:45.000Z</time>
        <extensions>
          <ns3:TrackPointExtension>
            <ns3:hr>134</ns3:hr>
            <ns3:cad>0</ns3:cad>
          </ns3:TrackPointExtension>
        </extensions>
      </trkpt>
      <trkpt lat="45.32837807200849056243896484375" lon="-70.808651335537433624267578125">
        <ele>913</ele>
        <time>2026-08-21T12:14:46.000Z</time>
        <extensions>
          <ns3:TrackPointExtension>
            <ns3:hr>134</ns3:hr>
            <ns3:cad>0</ns3:cad>
          </ns3:TrackPointExtension>
        </extensions>
      </trkpt>
      <trkpt lat="45.328379161655902862548828125" lon="-70.80862912349402904510498046875">
        <ele>913.20001220703125</ele>
        <time>2026-08-21T12:14:47.000Z</time>
        <extensions>
          <ns3:TrackPointExtension>
            <ns3:hr>134</ns3:hr>
            <ns3:cad>0</ns3:cad>
          </ns3:TrackPointExtension>
        </extensions>
      </trkpt>
      <trkpt lat="45.32837874256074428558349609375" lon="-70.80860481597483158111572265625">
        <ele>913.4000244140625</ele>
        <time>2026-08-21T12:14:48.000Z</time>
        <extensions>
          <ns3:TrackPointExtension>
            <ns3:hr>135</ns3:hr>
            <ns3:cad>0</ns3:cad>
          </ns3:TrackPointExtension>
        </extensions>
      </trkpt>
      <trkpt lat="45.3283709473907947540283203125" lon="-70.8085785806179046630859375">
        <ele>913.5999755859375</ele>
        <time>2026-08-21T12:14:49.000Z</time>
        <extensions>
          <ns3:TrackPointExtension>
            <ns3:hr>135</ns3:hr>
            <ns3:cad>0</ns3:cad>
          </ns3:TrackPointExtension>
        </extensions>
      </trkpt>
      <trkpt lat="45.3283602185547351837158203125" lon="-70.808559469878673553466796875">
        <ele>913.5999755859375</ele>
        <time>2026-08-21T12:14:50.000Z</time>
        <extensions>
          <ns3:TrackPointExtension>
            <ns3:hr>135</ns3:hr>
            <ns3:cad>0</ns3:cad>
          </ns3:TrackPointExtension>
        </extensions>
      </trkpt>
      <trkpt lat="45.32834890298545360565185546875" lon="-70.80853893421590328216552734375">
        <ele>913.5999755859375</ele>
        <time>2026-08-21T12:14:51.000Z</time>
        <extensions>
          <ns3:TrackPointExtension>
            <ns3:hr>135</ns3:hr>
            <ns3:cad>0</ns3:cad>
          </ns3:TrackPointExtension>
        </extensions>
      </trkpt>
      <trkpt lat="45.32833498902618885040283203125" lon="-70.80851881764829158782958984375">
        <ele>913.4000244140625</ele>
        <time>2026-08-21T12:14:52.000Z</time>
        <extensions>
          <ns3:TrackPointExtension>
            <ns3:hr>135</ns3:hr>
            <ns3:cad>0</ns3:cad>
          </ns3:TrackPointExtension>
        </extensions>
      </trkpt>
      <trkpt lat="45.32832208089530467987060546875" lon="-70.8085046522319316864013671875">
        <ele>913.4000244140625</ele>
        <time>2026-08-21T12:14:53.000Z</time>
        <extensions>
          <ns3:TrackPointExtension>
            <ns3:hr>135</ns3:hr>
            <ns3:cad>0</ns3:cad>
          </ns3:TrackPointExtension>
        </extensions>
      </trkpt>
      <trkpt lat="45.32831135205924510955810546875" lon="-70.80850104801356792449951171875">
        <ele>913.20001220703125</ele>
        <time>2026-08-21T12:14:54.000Z</time>
        <extensions>
          <ns3:TrackPointExtension>
            <ns3:hr>136</ns3:hr>
            <ns3:cad>0</ns3:cad>
          </ns3:TrackPointExtension>
        </extensions>
      </trkpt>
      <trkpt lat="45.328295342624187469482421875" lon="-70.808494091033935546875">
        <ele>913</ele>
        <time>2026-08-21T12:14:55.000Z</time>
        <extensions>
          <ns3:TrackPointExtension>
            <ns3:hr>136</ns3:hr>
            <ns3:cad>0</ns3:cad>
          </ns3:TrackPointExtension>
        </extensions>
      </trkpt>
      <trkpt lat="45.32828670926392078399658203125" lon="-70.80849166028201580047607421875">
        <ele>912.79998779296875</ele>
        <time>2026-08-21T12:14:56.000Z</time>
        <extensions>
          <ns3:TrackPointExtension>
            <ns3:hr>136</ns3:hr>
            <ns3:cad>0</ns3:cad>
          </ns3:TrackPointExtension>
        </extensions>
      </trkpt>
      <trkpt lat="45.32827480696141719818115234375" lon="-70.8084815181791782379150390625">
        <ele>912.4000244140625</ele>
        <time>2026-08-21T12:14:57.000Z</time>
        <extensions>
          <ns3:TrackPointExtension>
            <ns3:hr>137</ns3:hr>
            <ns3:cad>0</ns3:cad>
          </ns3:TrackPointExtension>
        </extensions>
      </trkpt>
      <trkpt lat="45.328275226056575775146484375" lon="-70.80847070552408695220947265625">
        <ele>912</ele>
        <time>2026-08-21T12:14:58.000Z</time>
        <extensions>
          <ns3:TrackPointExtension>
            <ns3:hr>137</ns3:hr>
            <ns3:cad>0</ns3:cad>
          </ns3:TrackPointExtension>
        </extensions>
      </trkpt>
      <trkpt lat="45.3282720409333705902099609375" lon="-70.80844723619520664215087890625">
        <ele>911.5999755859375</ele>
        <time>2026-08-21T12:14:59.000Z</time>
        <extensions>
          <ns3:TrackPointExtension>
            <ns3:hr>137</ns3:hr>
            <ns3:cad>0</ns3:cad>
          </ns3:TrackPointExtension>
        </extensions>
      </trkpt>
      <trkpt lat="45.328266508877277374267578125" lon="-70.8084285445511341094970703125">
        <ele>911.20001220703125</ele>
        <time>2026-08-21T12:15:00.000Z</time>
        <extensions>
          <ns3:TrackPointExtension>
            <ns3:hr>138</ns3:hr>
            <ns3:cad>0</ns3:cad>
          </ns3:TrackPointExtension>
        </extensions>
      </trkpt>
      <trkpt lat="45.328256450593471527099609375" lon="-70.80840750597417354583740234375">
        <ele>910.79998779296875</ele>
        <time>2026-08-21T12:15:01.000Z</time>
        <extensions>
          <ns3:TrackPointExtension>
            <ns3:hr>138</ns3:hr>
            <ns3:cad>0</ns3:cad>
          </ns3:TrackPointExtension>
        </extensions>
      </trkpt>
      <trkpt lat="45.32824832014739513397216796875" lon="-70.808394514024257659912109375">
        <ele>910.4000244140625</ele>
        <time>2026-08-21T12:15:02.000Z</time>
        <extensions>
          <ns3:TrackPointExtension>
            <ns3:hr>138</ns3:hr>
            <ns3:cad>0</ns3:cad>
          </ns3:TrackPointExtension>
        </extensions>
      </trkpt>
      <trkpt lat="45.32824404537677764892578125" lon="-70.80838143825531005859375">
        <ele>910</ele>
        <time>2026-08-21T12:15:03.000Z</time>
        <extensions>
          <ns3:TrackPointExtension>
            <ns3:hr>138</ns3:hr>
            <ns3:cad>0</ns3:cad>
          </ns3:TrackPointExtension>
        </extensions>
      </trkpt>
      <trkpt lat="45.32823340035974979400634765625" lon="-70.80836241133511066436767578125">
        <ele>909.5999755859375</ele>
        <time>2026-08-21T12:15:04.000Z</time>
        <extensions>
          <ns3:TrackPointExtension>
            <ns3:hr>137</ns3:hr>
            <ns3:cad>0</ns3:cad>
          </ns3:TrackPointExtension>
        </extensions>
      </trkpt>
      <trkpt lat="45.32821781001985073089599609375" lon="-70.80835268832743167877197265625">
        <ele>909.20001220703125</ele>
        <time>2026-08-21T12:15:05.000Z</time>
        <extensions>
          <ns3:TrackPointExtension>
            <ns3:hr>138</ns3:hr>
            <ns3:cad>0</ns3:cad>
          </ns3:TrackPointExtension>
        </extensions>
      </trkpt>
      <trkpt lat="45.32820724882185459136962890625" lon="-70.808342210948467254638671875">
        <ele>908.79998779296875</ele>
        <time>2026-08-21T12:15:06.000Z</time>
        <extensions>
          <ns3:TrackPointExtension>
            <ns3:hr>138</ns3:hr>
            <ns3:cad>0</ns3:cad>
          </ns3:TrackPointExtension>
        </extensions>
      </trkpt>
      <trkpt lat="45.32819869928061962127685546875" lon="-70.80832670442759990692138671875">
        <ele>908.4000244140625</ele>
        <time>2026-08-21T12:15:07.000Z</time>
        <extensions>
          <ns3:TrackPointExtension>
            <ns3:hr>137</ns3:hr>
            <ns3:cad>0</ns3:cad>
          </ns3:TrackPointExtension>
        </extensions>
      </trkpt>
      <trkpt lat="45.328194089233875274658203125" lon="-70.80830189399421215057373046875">
        <ele>908</ele>
        <time>2026-08-21T12:15:08.000Z</time>
        <extensions>
          <ns3:TrackPointExtension>
            <ns3:hr>137</ns3:hr>
            <ns3:cad>0</ns3:cad>
          </ns3:TrackPointExtension>
        </extensions>
      </trkpt>
      <trkpt lat="45.328182019293308258056640625" lon="-70.808281190693378448486328125">
        <ele>907.79998779296875</ele>
        <time>2026-08-21T12:15:09.000Z</time>
        <extensions>
          <ns3:TrackPointExtension>
            <ns3:hr>137</ns3:hr>
            <ns3:cad>0</ns3:cad>
          </ns3:TrackPointExtension>
        </extensions>
      </trkpt>
      <trkpt lat="45.32817422412335872650146484375" lon="-70.8082687854766845703125">
        <ele>907.4000244140625</ele>
        <time>2026-08-21T12:15:10.000Z</time>
        <extensions>
          <ns3:TrackPointExtension>
            <ns3:hr>137</ns3:hr>
            <ns3:cad>0</ns3:cad>
          </ns3:TrackPointExtension>
        </extensions>
      </trkpt>
      <trkpt lat="45.3281696140766143798828125" lon="-70.808248333632946014404296875">
        <ele>907.20001220703125</ele>
        <time>2026-08-21T12:15:11.000Z</time>
        <extensions>
          <ns3:TrackPointExtension>
            <ns3:hr>137</ns3:hr>
            <ns3:cad>0</ns3:cad>
          </ns3:TrackPointExtension>
        </extensions>
      </trkpt>
      <trkpt lat="45.32816450111567974090576171875" lon="-70.8082253672182559967041015625">
        <ele>907</ele>
        <time>2026-08-21T12:15:12.000Z</time>
        <extensions>
          <ns3:TrackPointExtension>
            <ns3:hr>137</ns3:hr>
            <ns3:cad>0</ns3:cad>
          </ns3:TrackPointExtension>
        </extensions>
      </trkpt>
      <trkpt lat="45.32815896905958652496337890625" lon="-70.80820382572710514068603515625">
        <ele>906.79998779296875</ele>
        <time>2026-08-21T12:15:13.000Z</time>
        <extensions>
          <ns3:TrackPointExtension>
            <ns3:hr>137</ns3:hr>
            <ns3:cad>0</ns3:cad>
          </ns3:TrackPointExtension>
        </extensions>
      </trkpt>
      <trkpt lat="45.32814614474773406982421875" lon="-70.808179937303066253662109375">
        <ele>906.5999755859375</ele>
        <time>2026-08-21T12:15:14.000Z</time>
        <extensions>
          <ns3:TrackPointExtension>
            <ns3:hr>137</ns3:hr>
            <ns3:cad>0</ns3:cad>
          </ns3:TrackPointExtension>
        </extensions>
      </trkpt>
      <trkpt lat="45.32812242396175861358642578125" lon="-70.8081666938960552215576171875">
        <ele>906.20001220703125</ele>
        <time>2026-08-21T12:15:15.000Z</time>
        <extensions>
          <ns3:TrackPointExtension>
            <ns3:hr>136</ns3:hr>
            <ns3:cad>0</ns3:cad>
          </ns3:TrackPointExtension>
        </extensions>
      </trkpt>
      <trkpt lat="45.32811219803988933563232421875" lon="-70.808163844048976898193359375">
        <ele>905.5999755859375</ele>
        <time>2026-08-21T12:15:16.000Z</time>
        <extensions>
          <ns3:TrackPointExtension>
            <ns3:hr>136</ns3:hr>
            <ns3:cad>0</ns3:cad>
          </ns3:TrackPointExtension>
        </extensions>
      </trkpt>
      <trkpt lat="45.32810264267027378082275390625" lon="-70.8081529475748538970947265625">
        <ele>905.20001220703125</ele>
        <time>2026-08-21T12:15:17.000Z</time>
        <extensions>
          <ns3:TrackPointExtension>
            <ns3:hr>136</ns3:hr>
            <ns3:cad>0</ns3:cad>
          </ns3:TrackPointExtension>
        </extensions>
      </trkpt>
      <trkpt lat="45.32809241674840450286865234375" lon="-70.80813861452043056488037109375">
        <ele>904.79998779296875</ele>
        <time>2026-08-21T12:15:18.000Z</time>
        <extensions>
          <ns3:TrackPointExtension>
            <ns3:hr>136</ns3:hr>
            <ns3:cad>0</ns3:cad>
          </ns3:TrackPointExtension>
        </extensions>
      </trkpt>
      <trkpt lat="45.32808043062686920166015625" lon="-70.8081207610666751861572265625">
        <ele>904.4000244140625</ele>
        <time>2026-08-21T12:15:19.000Z</time>
        <extensions>
          <ns3:TrackPointExtension>
            <ns3:hr>136</ns3:hr>
            <ns3:cad>0</ns3:cad>
          </ns3:TrackPointExtension>
        </extensions>
      </trkpt>
      <trkpt lat="45.32806592993438243865966796875" lon="-70.80810986459255218505859375">
        <ele>903.79998779296875</ele>
        <time>2026-08-21T12:15:20.000Z</time>
        <extensions>
          <ns3:TrackPointExtension>
            <ns3:hr>136</ns3:hr>
            <ns3:cad>0</ns3:cad>
          </ns3:TrackPointExtension>
        </extensions>
      </trkpt>
      <trkpt lat="45.3280510939657688140869140625" lon="-70.8080982975661754608154296875">
        <ele>903.5999755859375</ele>
        <time>2026-08-21T12:15:21.000Z</time>
        <extensions>
          <ns3:TrackPointExtension>
            <ns3:hr>137</ns3:hr>
            <ns3:cad>0</ns3:cad>
          </ns3:TrackPointExtension>
        </extensions>
      </trkpt>
      <trkpt lat="45.3280353359878063201904296875" lon="-70.80807725898921489715576171875">
        <ele>903</ele>
        <time>2026-08-21T12:15:22.000Z</time>
        <extensions>
          <ns3:TrackPointExtension>
            <ns3:hr>137</ns3:hr>
            <ns3:cad>0</ns3:cad>
          </ns3:TrackPointExtension>
        </extensions>
      </trkpt>
      <trkpt lat="45.3280225954949855804443359375" lon="-70.8080563880503177642822265625">
        <ele>902.4000244140625</ele>
        <time>2026-08-21T12:15:23.000Z</time>
        <extensions>
          <ns3:TrackPointExtension>
            <ns3:hr>136</ns3:hr>
            <ns3:cad>0</ns3:cad>
          </ns3:TrackPointExtension>
        </extensions>
      </trkpt>
      <trkpt lat="45.3280058316886425018310546875" lon="-70.80803602002561092376708984375">
        <ele>902</ele>
        <time>2026-08-21T12:15:24.000Z</time>
        <extensions>
          <ns3:TrackPointExtension>
            <ns3:hr>136</ns3:hr>
            <ns3:cad>0</ns3:cad>
          </ns3:TrackPointExtension>
        </extensions>
      </trkpt>
      <trkpt lat="45.32799719832837581634521484375" lon="-70.80801690928637981414794921875">
        <ele>901.79998779296875</ele>
        <time>2026-08-21T12:15:25.000Z</time>
        <extensions>
          <ns3:TrackPointExtension>
            <ns3:hr>136</ns3:hr>
            <ns3:cad>0</ns3:cad>
          </ns3:TrackPointExtension>
        </extensions>
      </trkpt>
      <trkpt lat="45.3279823623597621917724609375" lon="-70.80799360759556293487548828125">
        <ele>901.5999755859375</ele>
        <time>2026-08-21T12:15:26.000Z</time>
        <extensions>
          <ns3:TrackPointExtension>
            <ns3:hr>136</ns3:hr>
            <ns3:cad>0</ns3:cad>
          </ns3:TrackPointExtension>
        </extensions>
      </trkpt>
      <trkpt lat="45.32797037623822689056396484375" lon="-70.80797684378921985626220703125">
        <ele>901.4000244140625</ele>
        <time>2026-08-21T12:15:27.000Z</time>
        <extensions>
          <ns3:TrackPointExtension>
            <ns3:hr>135</ns3:hr>
            <ns3:cad>0</ns3:cad>
          </ns3:TrackPointExtension>
        </extensions>
      </trkpt>
      <trkpt lat="45.32796509563922882080078125" lon="-70.80796645022928714752197265625">
        <ele>901.4000244140625</ele>
        <time>2026-08-21T12:15:28.000Z</time>
        <extensions>
          <ns3:TrackPointExtension>
            <ns3:hr>135</ns3:hr>
            <ns3:cad>0</ns3:cad>
          </ns3:TrackPointExtension>
        </extensions>
      </trkpt>
      <trkpt lat="45.327954702079296112060546875" lon="-70.8079390414059162139892578125">
        <ele>901.20001220703125</ele>
        <time>2026-08-21T12:15:29.000Z</time>
        <extensions>
          <ns3:TrackPointExtension>
            <ns3:hr>135</ns3:hr>
            <ns3:cad>0</ns3:cad>
          </ns3:TrackPointExtension>
        </extensions>
      </trkpt>
      <trkpt lat="45.327952690422534942626953125" lon="-70.807913728058338165283203125">
        <ele>901.20001220703125</ele>
        <time>2026-08-21T12:15:30.000Z</time>
        <extensions>
          <ns3:TrackPointExtension>
            <ns3:hr>135</ns3:hr>
            <ns3:cad>0</ns3:cad>
          </ns3:TrackPointExtension>
        </extensions>
      </trkpt>
      <trkpt lat="45.32794271595776081085205078125" lon="-70.80789000727236270904541015625">
        <ele>901</ele>
        <time>2026-08-21T12:15:31.000Z</time>
        <extensions>
          <ns3:TrackPointExtension>
            <ns3:hr>135</ns3:hr>
            <ns3:cad>0</ns3:cad>
          </ns3:TrackPointExtension>
        </extensions>
      </trkpt>
      <trkpt lat="45.327924191951751708984375" lon="-70.80787676386535167694091796875">
        <ele>901</ele>
        <time>2026-08-21T12:15:32.000Z</time>
        <extensions>
          <ns3:TrackPointExtension>
            <ns3:hr>134</ns3:hr>
            <ns3:cad>0</ns3:cad>
          </ns3:TrackPointExtension>
        </extensions>
      </trkpt>
      <trkpt lat="45.327911786735057830810546875" lon="-70.807858072221279144287109375">
        <ele>900.79998779296875</ele>
        <time>2026-08-21T12:15:33.000Z</time>
        <extensions>
          <ns3:TrackPointExtension>
            <ns3:hr>134</ns3:hr>
            <ns3:cad>0</ns3:cad>
          </ns3:TrackPointExtension>
        </extensions>
      </trkpt>
      <trkpt lat="45.32790717668831348419189453125" lon="-70.80784541554749011993408203125">
        <ele>900.79998779296875</ele>
        <time>2026-08-21T12:15:34.000Z</time>
        <extensions>
          <ns3:TrackPointExtension>
            <ns3:hr>133</ns3:hr>
            <ns3:cad>0</ns3:cad>
          </ns3:TrackPointExtension>
        </extensions>
      </trkpt>
      <trkpt lat="45.3279022313654422760009765625" lon="-70.8078310824930667877197265625">
        <ele>900.5999755859375</ele>
        <time>2026-08-21T12:15:35.000Z</time>
        <extensions>
          <ns3:TrackPointExtension>
            <ns3:hr>133</ns3:hr>
            <ns3:cad>0</ns3:cad>
          </ns3:TrackPointExtension>
        </extensions>
      </trkpt>
      <trkpt lat="45.3278965316712856292724609375" lon="-70.807819180190563201904296875">
        <ele>900.4000244140625</ele>
        <time>2026-08-21T12:15:36.000Z</time>
        <extensions>
          <ns3:TrackPointExtension>
            <ns3:hr>133</ns3:hr>
            <ns3:cad>0</ns3:cad>
          </ns3:TrackPointExtension>
        </extensions>
      </trkpt>
      <trkpt lat="45.32788806594908237457275390625" lon="-70.80780216492712497711181640625">
        <ele>900</ele>
        <time>2026-08-21T12:15:37.000Z</time>
        <extensions>
          <ns3:TrackPointExtension>
            <ns3:hr>132</ns3:hr>
            <ns3:cad>0</ns3:cad>
          </ns3:TrackPointExtension>
        </extensions>
      </trkpt>
      <trkpt lat="45.32788102515041828155517578125" lon="-70.80779160372912883758544921875">
        <ele>899.5999755859375</ele>
        <time>2026-08-21T12:15:38.000Z</time>
        <extensions>
          <ns3:TrackPointExtension>
            <ns3:hr>132</ns3:hr>
            <ns3:cad>0</ns3:cad>
          </ns3:TrackPointExtension>
        </extensions>
      </trkpt>
      <trkpt lat="45.327870883047580718994140625" lon="-70.80778573639690876007080078125">
        <ele>899.20001220703125</ele>
        <time>2026-08-21T12:15:39.000Z</time>
        <extensions>
          <ns3:TrackPointExtension>
            <ns3:hr>132</ns3:hr>
            <ns3:cad>0</ns3:cad>
          </ns3:TrackPointExtension>
        </extensions>
      </trkpt>
      <trkpt lat="45.32786644063889980316162109375" lon="-70.80777869559824466705322265625">
        <ele>899</ele>
        <time>2026-08-21T12:15:40.000Z</time>
        <extensions>
          <ns3:TrackPointExtension>
            <ns3:hr>132</ns3:hr>
            <ns3:cad>0</ns3:cad>
          </ns3:TrackPointExtension>
        </extensions>
      </trkpt>
      <trkpt lat="45.3278556279838085174560546875" lon="-70.80775958485901355743408203125">
        <ele>898.5999755859375</ele>
        <time>2026-08-21T12:15:41.000Z</time>
        <extensions>
          <ns3:TrackPointExtension>
            <ns3:hr>132</ns3:hr>
            <ns3:cad>0</ns3:cad>
          </ns3:TrackPointExtension>
        </extensions>
      </trkpt>
      <trkpt lat="45.327843390405178070068359375" lon="-70.80774114467203617095947265625">
        <ele>898.20001220703125</ele>
        <time>2026-08-21T12:15:42.000Z</time>
        <extensions>
          <ns3:TrackPointExtension>
            <ns3:hr>132</ns3:hr>
            <ns3:cad>0</ns3:cad>
          </ns3:TrackPointExtension>
        </extensions>
      </trkpt>
      <trkpt lat="45.32783391885459423065185546875" lon="-70.80773259513080120086669921875">
        <ele>897.79998779296875</ele>
        <time>2026-08-21T12:15:43.000Z</time>
        <extensions>
          <ns3:TrackPointExtension>
            <ns3:hr>131</ns3:hr>
            <ns3:cad>0</ns3:cad>
          </ns3:TrackPointExtension>
        </extensions>
      </trkpt>
      <trkpt lat="45.32781832851469516754150390625" lon="-70.807722620666027069091796875">
        <ele>897.4000244140625</ele>
        <time>2026-08-21T12:15:44.000Z</time>
        <extensions>
          <ns3:TrackPointExtension>
            <ns3:hr>131</ns3:hr>
            <ns3:cad>0</ns3:cad>
          </ns3:TrackPointExtension>
        </extensions>
      </trkpt>
      <trkpt lat="45.32781162299215793609619140625" lon="-70.80771633423864841461181640625">
        <ele>897</ele>
        <time>2026-08-21T12:15:45.000Z</time>
        <extensions>
          <ns3:TrackPointExtension>
            <ns3:hr>131</ns3:hr>
            <ns3:cad>0</ns3:cad>
          </ns3:TrackPointExtension>
        </extensions>
      </trkpt>
      <trkpt lat="45.3278021514415740966796875" lon="-70.80770292319357395172119140625">
        <ele>896.79998779296875</ele>
        <time>2026-08-21T12:15:46.000Z</time>
        <extensions>
          <ns3:TrackPointExtension>
            <ns3:hr>130</ns3:hr>
            <ns3:cad>0</ns3:cad>
          </ns3:TrackPointExtension>
        </extensions>
      </trkpt>
      <trkpt lat="45.32779133878648281097412109375" lon="-70.807691775262355804443359375">
        <ele>896.4000244140625</ele>
        <time>2026-08-21T12:15:47.000Z</time>
        <extensions>
          <ns3:TrackPointExtension>
            <ns3:hr>130</ns3:hr>
            <ns3:cad>75</ns3:cad>
          </ns3:TrackPointExtension>
        </extensions>
      </trkpt>
      <trkpt lat="45.32778597436845302581787109375" lon="-70.80768481828272342681884765625">
        <ele>896.20001220703125</ele>
        <time>2026-08-21T12:15:48.000Z</time>
        <extensions>
          <ns3:TrackPointExtension>
            <ns3:hr>129</ns3:hr>
            <ns3:cad>75</ns3:cad>
          </ns3:TrackPointExtension>
        </extensions>
      </trkpt>
      <trkpt lat="45.327772311866283416748046875" lon="-70.8076654560863971710205078125">
        <ele>895.79998779296875</ele>
        <time>2026-08-21T12:15:49.000Z</time>
        <extensions>
          <ns3:TrackPointExtension>
            <ns3:hr>129</ns3:hr>
            <ns3:cad>70</ns3:cad>
          </ns3:TrackPointExtension>
        </extensions>
      </trkpt>
      <trkpt lat="45.32776451669633388519287109375" lon="-70.80765179358422756195068359375">
        <ele>895.4000244140625</ele>
        <time>2026-08-21T12:15:50.000Z</time>
        <extensions>
          <ns3:TrackPointExtension>
            <ns3:hr>129</ns3:hr>
            <ns3:cad>70</ns3:cad>
          </ns3:TrackPointExtension>
        </extensions>
      </trkpt>
      <trkpt lat="45.32775093801319599151611328125" lon="-70.8076302520930767059326171875">
        <ele>894.79998779296875</ele>
        <time>2026-08-21T12:15:51.000Z</time>
        <extensions>
          <ns3:TrackPointExtension>
            <ns3:hr>128</ns3:hr>
            <ns3:cad>70</ns3:cad>
          </ns3:TrackPointExtension>
        </extensions>
      </trkpt>
      <trkpt lat="45.32772847451269626617431640625" lon="-70.80761759541928768157958984375">
        <ele>894.4000244140625</ele>
        <time>2026-08-21T12:15:52.000Z</time>
        <extensions>
          <ns3:TrackPointExtension>
            <ns3:hr>127</ns3:hr>
            <ns3:cad>0</ns3:cad>
          </ns3:TrackPointExtension>
        </extensions>
      </trkpt>
      <trkpt lat="45.32770768739283084869384765625" lon="-70.80761055462062358856201171875">
        <ele>894</ele>
        <time>2026-08-21T12:15:53.000Z</time>
        <extensions>
          <ns3:TrackPointExtension>
            <ns3:hr>128</ns3:hr>
            <ns3:cad>0</ns3:cad>
          </ns3:TrackPointExtension>
        </extensions>
      </trkpt>
      <trkpt lat="45.32769058831036090850830078125" lon="-70.807609297335147857666015625">
        <ele>893.5999755859375</ele>
        <time>2026-08-21T12:15:54.000Z</time>
        <extensions>
          <ns3:TrackPointExtension>
            <ns3:hr>129</ns3:hr>
            <ns3:cad>68</ns3:cad>
          </ns3:TrackPointExtension>
        </extensions>
      </trkpt>
      <trkpt lat="45.32767483033239841461181640625" lon="-70.8076104708015918731689453125">
        <ele>893.5999755859375</ele>
        <time>2026-08-21T12:15:55.000Z</time>
        <extensions>
          <ns3:TrackPointExtension>
            <ns3:hr>128</ns3:hr>
            <ns3:cad>68</ns3:cad>
          </ns3:TrackPointExtension>
        </extensions>
      </trkpt>
      <trkpt lat="45.32765932381153106689453125" lon="-70.807621367275714874267578125">
        <ele>893.5999755859375</ele>
        <time>2026-08-21T12:15:56.000Z</time>
        <extensions>
          <ns3:TrackPointExtension>
            <ns3:hr>128</ns3:hr>
            <ns3:cad>68</ns3:cad>
          </ns3:TrackPointExtension>
        </extensions>
      </trkpt>
      <trkpt lat="45.32764457166194915771484375" lon="-70.80762782134115695953369140625">
        <ele>893.5999755859375</ele>
        <time>2026-08-21T12:15:57.000Z</time>
        <extensions>
          <ns3:TrackPointExtension>
            <ns3:hr>128</ns3:hr>
            <ns3:cad>0</ns3:cad>
          </ns3:TrackPointExtension>
        </extensions>
      </trkpt>
      <trkpt lat="45.32763107679784297943115234375" lon="-70.80762798897922039031982421875">
        <ele>893.4000244140625</ele>
        <time>2026-08-21T12:15:58.000Z</time>
        <extensions>
          <ns3:TrackPointExtension>
            <ns3:hr>128</ns3:hr>
            <ns3:cad>0</ns3:cad>
          </ns3:TrackPointExtension>
        </extensions>
      </trkpt>
      <trkpt lat="45.32761850394308567047119140625" lon="-70.80762396566569805145263671875">
        <ele>893.20001220703125</ele>
        <time>2026-08-21T12:15:59.000Z</time>
        <extensions>
          <ns3:TrackPointExtension>
            <ns3:hr>127</ns3:hr>
            <ns3:cad>0</ns3:cad>
          </ns3:TrackPointExtension>
        </extensions>
      </trkpt>
      <trkpt lat="45.32760710455477237701416015625" lon="-70.80762128345668315887451171875">
        <ele>893</ele>
        <time>2026-08-21T12:16:00.000Z</time>
        <extensions>
          <ns3:TrackPointExtension>
            <ns3:hr>127</ns3:hr>
            <ns3:cad>0</ns3:cad>
          </ns3:TrackPointExtension>
        </extensions>
      </trkpt>
      <trkpt lat="45.327595956623554229736328125" lon="-70.80761625431478023529052734375">
        <ele>892.4000244140625</ele>
        <time>2026-08-21T12:16:01.000Z</time>
        <extensions>
          <ns3:TrackPointExtension>
            <ns3:hr>127</ns3:hr>
            <ns3:cad>0</ns3:cad>
          </ns3:TrackPointExtension>
        </extensions>
      </trkpt>
      <trkpt lat="45.32758816145360469818115234375" lon="-70.80760804004967212677001953125">
        <ele>892</ele>
        <time>2026-08-21T12:16:02.000Z</time>
        <extensions>
          <ns3:TrackPointExtension>
            <ns3:hr>127</ns3:hr>
            <ns3:cad>0</ns3:cad>
          </ns3:TrackPointExtension>
        </extensions>
      </trkpt>
      <trkpt lat="45.3275807015597820281982421875" lon="-70.80760292708873748779296875">
        <ele>891.5999755859375</ele>
        <time>2026-08-21T12:16:03.000Z</time>
        <extensions>
          <ns3:TrackPointExtension>
            <ns3:hr>127</ns3:hr>
            <ns3:cad>0</ns3:cad>
          </ns3:TrackPointExtension>
        </extensions>
      </trkpt>
      <trkpt lat="45.32756787724792957305908203125" lon="-70.80759932287037372589111328125">
        <ele>891.20001220703125</ele>
        <time>2026-08-21T12:16:04.000Z</time>
        <extensions>
          <ns3:TrackPointExtension>
            <ns3:hr>127</ns3:hr>
            <ns3:cad>0</ns3:cad>
          </ns3:TrackPointExtension>
        </extensions>
      </trkpt>
      <trkpt lat="45.3275565616786479949951171875" lon="-70.80760368146002292633056640625">
        <ele>890.79998779296875</ele>
        <time>2026-08-21T12:16:05.000Z</time>
        <extensions>
          <ns3:TrackPointExtension>
            <ns3:hr>127</ns3:hr>
            <ns3:cad>0</ns3:cad>
          </ns3:TrackPointExtension>
        </extensions>
      </trkpt>
      <trkpt lat="45.3275471739470958709716796875" lon="-70.80760133452713489532470703125">
        <ele>890.4000244140625</ele>
        <time>2026-08-21T12:16:06.000Z</time>
        <extensions>
          <ns3:TrackPointExtension>
            <ns3:hr>126</ns3:hr>
            <ns3:cad>0</ns3:cad>
          </ns3:TrackPointExtension>
        </extensions>
      </trkpt>
      <trkpt lat="45.3275404684245586395263671875" lon="-70.80759412609040737152099609375">
        <ele>889.79998779296875</ele>
        <time>2026-08-21T12:16:07.000Z</time>
        <extensions>
          <ns3:TrackPointExtension>
            <ns3:hr>125</ns3:hr>
            <ns3:cad>0</ns3:cad>
          </ns3:TrackPointExtension>
        </extensions>
      </trkpt>
      <trkpt lat="45.32752948813140392303466796875" lon="-70.80759219825267791748046875">
        <ele>889.4000244140625</ele>
        <time>2026-08-21T12:16:08.000Z</time>
        <extensions>
          <ns3:TrackPointExtension>
            <ns3:hr>125</ns3:hr>
            <ns3:cad>0</ns3:cad>
          </ns3:TrackPointExtension>
        </extensions>
      </trkpt>
      <trkpt lat="45.32752655446529388427734375" lon="-70.807593874633312225341796875">
        <ele>889</ele>
        <time>2026-08-21T12:16:09.000Z</time>
        <extensions>
          <ns3:TrackPointExtension>
            <ns3:hr>125</ns3:hr>
            <ns3:cad>0</ns3:cad>
          </ns3:TrackPointExtension>
        </extensions>
      </trkpt>
      <trkpt lat="45.3275193460285663604736328125" lon="-70.80759488046169281005859375">
        <ele>888.5999755859375</ele>
        <time>2026-08-21T12:16:10.000Z</time>
        <extensions>
          <ns3:TrackPointExtension>
            <ns3:hr>126</ns3:hr>
            <ns3:cad>0</ns3:cad>
          </ns3:TrackPointExtension>
        </extensions>
      </trkpt>
      <trkpt lat="45.3275133110582828521728515625" lon="-70.80759219825267791748046875">
        <ele>888.4000244140625</ele>
        <time>2026-08-21T12:16:11.000Z</time>
        <extensions>
          <ns3:TrackPointExtension>
            <ns3:hr>128</ns3:hr>
            <ns3:cad>0</ns3:cad>
          </ns3:TrackPointExtension>
        </extensions>
      </trkpt>
      <trkpt lat="45.32751255668699741363525390625" lon="-70.8075953833758831024169921875">
        <ele>888</ele>
        <time>2026-08-21T12:16:12.000Z</time>
        <extensions>
          <ns3:TrackPointExtension>
            <ns3:hr>131</ns3:hr>
            <ns3:cad>0</ns3:cad>
          </ns3:TrackPointExtension>
        </extensions>
      </trkpt>
      <trkpt lat="45.32750635407865047454833984375" lon="-70.80760016106069087982177734375">
        <ele>887.79998779296875</ele>
        <time>2026-08-21T12:16:13.000Z</time>
        <extensions>
          <ns3:TrackPointExtension>
            <ns3:hr>132</ns3:hr>
            <ns3:cad>0</ns3:cad>
          </ns3:TrackPointExtension>
        </extensions>
      </trkpt>
      <trkpt lat="45.32749830745160579681396484375" lon="-70.8076030947268009185791015625">
        <ele>887.5999755859375</ele>
        <time>2026-08-21T12:16:14.000Z</time>
        <extensions>
          <ns3:TrackPointExtension>
            <ns3:hr>132</ns3:hr>
            <ns3:cad>0</ns3:cad>
          </ns3:TrackPointExtension>
        </extensions>
      </trkpt>
      <trkpt lat="45.32748757861554622650146484375" lon="-70.8076074533164501190185546875">
        <ele>887.20001220703125</ele>
        <time>2026-08-21T12:16:15.000Z</time>
        <extensions>
          <ns3:TrackPointExtension>
            <ns3:hr>132</ns3:hr>
            <ns3:cad>0</ns3:cad>
          </ns3:TrackPointExtension>
        </extensions>
      </trkpt>
      <trkpt lat="45.327478609979152679443359375" lon="-70.807613320648670196533203125">
        <ele>886.79998779296875</ele>
        <time>2026-08-21T12:16:16.000Z</time>
        <extensions>
          <ns3:TrackPointExtension>
            <ns3:hr>132</ns3:hr>
            <ns3:cad>0</ns3:cad>
          </ns3:TrackPointExtension>
        </extensions>
      </trkpt>
      <trkpt lat="45.32746142707765102386474609375" lon="-70.80762798897922039031982421875">
        <ele>886.4000244140625</ele>
        <time>2026-08-21T12:16:17.000Z</time>
        <extensions>
          <ns3:TrackPointExtension>
            <ns3:hr>132</ns3:hr>
            <ns3:cad>0</ns3:cad>
          </ns3:TrackPointExtension>
        </extensions>
      </trkpt>
      <trkpt lat="45.32745405100286006927490234375" lon="-70.8076537214219570159912109375">
        <ele>886.20001220703125</ele>
        <time>2026-08-21T12:16:18.000Z</time>
        <extensions>
          <ns3:TrackPointExtension>
            <ns3:hr>131</ns3:hr>
            <ns3:cad>0</ns3:cad>
          </ns3:TrackPointExtension>
        </extensions>
      </trkpt>
      <trkpt lat="45.32744047231972217559814453125" lon="-70.8076641149818897247314453125">
        <ele>885.79998779296875</ele>
        <time>2026-08-21T12:16:19.000Z</time>
        <extensions>
          <ns3:TrackPointExtension>
            <ns3:hr>131</ns3:hr>
            <ns3:cad>0</ns3:cad>
          </ns3:TrackPointExtension>
        </extensions>
      </trkpt>
      <trkpt lat="45.327426977455615997314453125" lon="-70.8076773583889007568359375">
        <ele>885.4000244140625</ele>
        <time>2026-08-21T12:16:20.000Z</time>
        <extensions>
          <ns3:TrackPointExtension>
            <ns3:hr>131</ns3:hr>
            <ns3:cad>0</ns3:cad>
          </ns3:TrackPointExtension>
        </extensions>
      </trkpt>
      <trkpt lat="45.32741063274443149566650390625" lon="-70.807690434157848358154296875">
        <ele>885</ele>
        <time>2026-08-21T12:16:21.000Z</time>
        <extensions>
          <ns3:TrackPointExtension>
            <ns3:hr>130</ns3:hr>
            <ns3:cad>0</ns3:cad>
          </ns3:TrackPointExtension>
        </extensions>
      </trkpt>
      <trkpt lat="45.3273999877274036407470703125" lon="-70.807685740292072296142578125">
        <ele>884.79998779296875</ele>
        <time>2026-08-21T12:16:22.000Z</time>
        <extensions>
          <ns3:TrackPointExtension>
            <ns3:hr>130</ns3:hr>
            <ns3:cad>0</ns3:cad>
          </ns3:TrackPointExtension>
        </extensions>
      </trkpt>
      <trkpt lat="45.32738531939685344696044921875" lon="-70.8076818846166133880615234375">
        <ele>884.5999755859375</ele>
        <time>2026-08-21T12:16:23.000Z</time>
        <extensions>
          <ns3:TrackPointExtension>
            <ns3:hr>130</ns3:hr>
            <ns3:cad>0</ns3:cad>
          </ns3:TrackPointExtension>
        </extensions>
      </trkpt>
      <trkpt lat="45.32736419700086116790771484375" lon="-70.80768163315951824188232421875">
        <ele>884.4000244140625</ele>
        <time>2026-08-21T12:16:24.000Z</time>
        <extensions>
          <ns3:TrackPointExtension>
            <ns3:hr>130</ns3:hr>
            <ns3:cad>0</ns3:cad>
          </ns3:TrackPointExtension>
        </extensions>
      </trkpt>
      <trkpt lat="45.3273496963083744049072265625" lon="-70.807684399187564849853515625">
        <ele>884.20001220703125</ele>
        <time>2026-08-21T12:16:25.000Z</time>
        <extensions>
          <ns3:TrackPointExtension>
            <ns3:hr>130</ns3:hr>
            <ns3:cad>79</ns3:cad>
          </ns3:TrackPointExtension>
        </extensions>
      </trkpt>
      <trkpt lat="45.3273372910916805267333984375" lon="-70.80769269727170467376708984375">
        <ele>884</ele>
        <time>2026-08-21T12:16:26.000Z</time>
        <extensions>
          <ns3:TrackPointExtension>
            <ns3:hr>130</ns3:hr>
            <ns3:cad>79</ns3:cad>
          </ns3:TrackPointExtension>
        </extensions>
      </trkpt>
      <trkpt lat="45.3273151628673076629638671875" lon="-70.80769839696586132049560546875">
        <ele>883.79998779296875</ele>
        <time>2026-08-21T12:16:27.000Z</time>
        <extensions>
          <ns3:TrackPointExtension>
            <ns3:hr>130</ns3:hr>
            <ns3:cad>79</ns3:cad>
          </ns3:TrackPointExtension>
        </extensions>
      </trkpt>
      <trkpt lat="45.32729814760386943817138671875" lon="-70.8076999895274639129638671875">
        <ele>883.5999755859375</ele>
        <time>2026-08-21T12:16:28.000Z</time>
        <extensions>
          <ns3:TrackPointExtension>
            <ns3:hr>130</ns3:hr>
            <ns3:cad>0</ns3:cad>
          </ns3:TrackPointExtension>
        </extensions>
      </trkpt>
      <trkpt lat="45.327290855348110198974609375" lon="-70.8077130652964115142822265625">
        <ele>883.20001220703125</ele>
        <time>2026-08-21T12:16:29.000Z</time>
        <extensions>
          <ns3:TrackPointExtension>
            <ns3:hr>130</ns3:hr>
            <ns3:cad>0</ns3:cad>
          </ns3:TrackPointExtension>
        </extensions>
      </trkpt>
      <trkpt lat="45.32727668993175029754638671875" lon="-70.807721279561519622802734375">
        <ele>883</ele>
        <time>2026-08-21T12:16:30.000Z</time>
        <extensions>
          <ns3:TrackPointExtension>
            <ns3:hr>130</ns3:hr>
            <ns3:cad>0</ns3:cad>
          </ns3:TrackPointExtension>
        </extensions>
      </trkpt>
      <trkpt lat="45.32726679928600788116455078125" lon="-70.8077311702072620391845703125">
        <ele>882.5999755859375</ele>
        <time>2026-08-21T12:16:31.000Z</time>
        <extensions>
          <ns3:TrackPointExtension>
            <ns3:hr>130</ns3:hr>
            <ns3:cad>62</ns3:cad>
          </ns3:TrackPointExtension>
        </extensions>
      </trkpt>
      <trkpt lat="45.32725892029702663421630859375" lon="-70.8077506162226200103759765625">
        <ele>882.4000244140625</ele>
        <time>2026-08-21T12:16:32.000Z</time>
        <extensions>
          <ns3:TrackPointExtension>
            <ns3:hr>130</ns3:hr>
            <ns3:cad>62</ns3:cad>
          </ns3:TrackPointExtension>
        </extensions>
      </trkpt>
      <trkpt lat="45.32726177014410495758056640625" lon="-70.80778322182595729827880859375">
        <ele>882.20001220703125</ele>
        <time>2026-08-21T12:16:33.000Z</time>
        <extensions>
          <ns3:TrackPointExtension>
            <ns3:hr>130</ns3:hr>
            <ns3:cad>62</ns3:cad>
          </ns3:TrackPointExtension>
        </extensions>
      </trkpt>
      <trkpt lat="45.32726814039051532745361328125" lon="-70.80780132673680782318115234375">
        <ele>882</ele>
        <time>2026-08-21T12:16:34.000Z</time>
        <extensions>
          <ns3:TrackPointExtension>
            <ns3:hr>131</ns3:hr>
            <ns3:cad>62</ns3:cad>
          </ns3:TrackPointExtension>
        </extensions>
      </trkpt>
      <trkpt lat="45.32727266661822795867919921875" lon="-70.8078186772763729095458984375">
        <ele>881.79998779296875</ele>
        <time>2026-08-21T12:16:35.000Z</time>
        <extensions>
          <ns3:TrackPointExtension>
            <ns3:hr>130</ns3:hr>
            <ns3:cad>62</ns3:cad>
          </ns3:TrackPointExtension>
        </extensions>
      </trkpt>
      <trkpt lat="45.327273420989513397216796875" lon="-70.80783166922628879547119140625">
        <ele>881.5999755859375</ele>
        <time>2026-08-21T12:16:36.000Z</time>
        <extensions>
          <ns3:TrackPointExtension>
            <ns3:hr>130</ns3:hr>
            <ns3:cad>62</ns3:cad>
          </ns3:TrackPointExtension>
        </extensions>
      </trkpt>
      <trkpt lat="45.32727635465562343597412109375" lon="-70.80784558318555355072021484375">
        <ele>881.4000244140625</ele>
        <time>2026-08-21T12:16:37.000Z</time>
        <extensions>
          <ns3:TrackPointExtension>
            <ns3:hr>130</ns3:hr>
            <ns3:cad>62</ns3:cad>
          </ns3:TrackPointExtension>
        </extensions>
      </trkpt>
      <trkpt lat="45.32728004269301891326904296875" lon="-70.807857401669025421142578125">
        <ele>881</ele>
        <time>2026-08-21T12:16:38.000Z</time>
        <extensions>
          <ns3:TrackPointExtension>
            <ns3:hr>130</ns3:hr>
            <ns3:cad>62</ns3:cad>
          </ns3:TrackPointExtension>
        </extensions>
      </trkpt>
      <trkpt lat="45.3272816352546215057373046875" lon="-70.80787056125700473785400390625">
        <ele>880.79998779296875</ele>
        <time>2026-08-21T12:16:39.000Z</time>
        <extensions>
          <ns3:TrackPointExtension>
            <ns3:hr>129</ns3:hr>
            <ns3:cad>62</ns3:cad>
          </ns3:TrackPointExtension>
        </extensions>
      </trkpt>
      <trkpt lat="45.32728356309235095977783203125" lon="-70.80787517130374908447265625">
        <ele>880.5999755859375</ele>
        <time>2026-08-21T12:16:40.000Z</time>
        <extensions>
          <ns3:TrackPointExtension>
            <ns3:hr>129</ns3:hr>
            <ns3:cad>52</ns3:cad>
          </ns3:TrackPointExtension>
        </extensions>
      </trkpt>
      <trkpt lat="45.32729328610002994537353515625" lon="-70.8078850619494915008544921875">
        <ele>880.4000244140625</ele>
        <time>2026-08-21T12:16:41.000Z</time>
        <extensions>
          <ns3:TrackPointExtension>
            <ns3:hr>128</ns3:hr>
            <ns3:cad>52</ns3:cad>
          </ns3:TrackPointExtension>
        </extensions>
      </trkpt>
      <trkpt lat="45.32730661332607269287109375" lon="-70.80789771862328052520751953125">
        <ele>880.20001220703125</ele>
        <time>2026-08-21T12:16:42.000Z</time>
        <extensions>
          <ns3:TrackPointExtension>
            <ns3:hr>128</ns3:hr>
            <ns3:cad>52</ns3:cad>
          </ns3:TrackPointExtension>
        </extensions>
      </trkpt>
      <trkpt lat="45.3273235447704792022705078125" lon="-70.80790878273546695709228515625">
        <ele>880</ele>
        <time>2026-08-21T12:16:43.000Z</time>
        <extensions>
          <ns3:TrackPointExtension>
            <ns3:hr>127</ns3:hr>
            <ns3:cad>52</ns3:cad>
          </ns3:TrackPointExtension>
        </extensions>
      </trkpt>
      <trkpt lat="45.32733486033976078033447265625" lon="-70.80791674554347991943359375">
        <ele>880</ele>
        <time>2026-08-21T12:16:44.000Z</time>
        <extensions>
          <ns3:TrackPointExtension>
            <ns3:hr>127</ns3:hr>
            <ns3:cad>0</ns3:cad>
          </ns3:TrackPointExtension>
        </extensions>
      </trkpt>
      <trkpt lat="45.32734014093875885009765625" lon="-70.80792839638888835906982421875">
        <ele>879.79998779296875</ele>
        <time>2026-08-21T12:16:45.000Z</time>
        <extensions>
          <ns3:TrackPointExtension>
            <ns3:hr>126</ns3:hr>
            <ns3:cad>0</ns3:cad>
          </ns3:TrackPointExtension>
        </extensions>
      </trkpt>
      <trkpt lat="45.32735732384026050567626953125" lon="-70.80794264562427997589111328125">
        <ele>879.79998779296875</ele>
        <time>2026-08-21T12:16:46.000Z</time>
        <extensions>
          <ns3:TrackPointExtension>
            <ns3:hr>126</ns3:hr>
            <ns3:cad>0</ns3:cad>
          </ns3:TrackPointExtension>
        </extensions>
      </trkpt>
      <trkpt lat="45.32736503519117832183837890625" lon="-70.807955302298069000244140625">
        <ele>879.5999755859375</ele>
        <time>2026-08-21T12:16:47.000Z</time>
        <extensions>
          <ns3:TrackPointExtension>
            <ns3:hr>125</ns3:hr>
            <ns3:cad>66</ns3:cad>
          </ns3:TrackPointExtension>
        </extensions>
      </trkpt>
      <trkpt lat="45.3273580782115459442138671875" lon="-70.80796678550541400909423828125">
        <ele>879.5999755859375</ele>
        <time>2026-08-21T12:16:48.000Z</time>
        <extensions>
          <ns3:TrackPointExtension>
            <ns3:hr>125</ns3:hr>
            <ns3:cad>66</ns3:cad>
          </ns3:TrackPointExtension>
        </extensions>
      </trkpt>
      <trkpt lat="45.32735078595578670501708984375" lon="-70.8079806156456470489501953125">
        <ele>879.20001220703125</ele>
        <time>2026-08-21T12:16:49.000Z</time>
        <extensions>
          <ns3:TrackPointExtension>
            <ns3:hr>125</ns3:hr>
            <ns3:cad>0</ns3:cad>
          </ns3:TrackPointExtension>
        </extensions>
      </trkpt>
      <trkpt lat="45.327344499528408050537109375" lon="-70.807991512119770050048828125">
        <ele>879</ele>
        <time>2026-08-21T12:16:50.000Z</time>
        <extensions>
          <ns3:TrackPointExtension>
            <ns3:hr>125</ns3:hr>
            <ns3:cad>0</ns3:cad>
          </ns3:TrackPointExtension>
        </extensions>
      </trkpt>
      <trkpt lat="45.32733720727264881134033203125" lon="-70.8080000616610050201416015625">
        <ele>878.4000244140625</ele>
        <time>2026-08-21T12:16:51.000Z</time>
        <extensions>
          <ns3:TrackPointExtension>
            <ns3:hr>125</ns3:hr>
            <ns3:cad>0</ns3:cad>
          </ns3:TrackPointExtension>
        </extensions>
      </trkpt>
      <trkpt lat="45.327330417931079864501953125" lon="-70.80801087431609630584716796875">
        <ele>877.79998779296875</ele>
        <time>2026-08-21T12:16:52.000Z</time>
        <extensions>
          <ns3:TrackPointExtension>
            <ns3:hr>126</ns3:hr>
            <ns3:cad>0</ns3:cad>
          </ns3:TrackPointExtension>
        </extensions>
      </trkpt>
      <trkpt lat="45.32732312567532062530517578125" lon="-70.80802378244698047637939453125">
        <ele>877.4000244140625</ele>
        <time>2026-08-21T12:16:53.000Z</time>
        <extensions>
          <ns3:TrackPointExtension>
            <ns3:hr>126</ns3:hr>
            <ns3:cad>0</ns3:cad>
          </ns3:TrackPointExtension>
        </extensions>
      </trkpt>
      <trkpt lat="45.32731960527598857879638671875" lon="-70.808030404150485992431640625">
        <ele>876.79998779296875</ele>
        <time>2026-08-21T12:16:54.000Z</time>
        <extensions>
          <ns3:TrackPointExtension>
            <ns3:hr>126</ns3:hr>
            <ns3:cad>75</ns3:cad>
          </ns3:TrackPointExtension>
        </extensions>
      </trkpt>
      <trkpt lat="45.32731734216213226318359375" lon="-70.808035098016262054443359375">
        <ele>876.20001220703125</ele>
        <time>2026-08-21T12:16:55.000Z</time>
        <extensions>
          <ns3:TrackPointExtension>
            <ns3:hr>126</ns3:hr>
            <ns3:cad>75</ns3:cad>
          </ns3:TrackPointExtension>
        </extensions>
      </trkpt>
      <trkpt lat="45.32730996608734130859375" lon="-70.8080379478633403778076171875">
        <ele>875.5999755859375</ele>
        <time>2026-08-21T12:16:56.000Z</time>
        <extensions>
          <ns3:TrackPointExtension>
            <ns3:hr>125</ns3:hr>
            <ns3:cad>42</ns3:cad>
          </ns3:TrackPointExtension>
        </extensions>
      </trkpt>
      <trkpt lat="45.32730753533542156219482421875" lon="-70.8080369420349597930908203125">
        <ele>875.20001220703125</ele>
        <time>2026-08-21T12:16:57.000Z</time>
        <extensions>
          <ns3:TrackPointExtension>
            <ns3:hr>126</ns3:hr>
            <ns3:cad>0</ns3:cad>
          </ns3:TrackPointExtension>
        </extensions>
      </trkpt>
      <trkpt lat="45.32730795443058013916015625" lon="-70.80803610384464263916015625">
        <ele>874.79998779296875</ele>
        <time>2026-08-21T12:16:58.000Z</time>
        <extensions>
          <ns3:TrackPointExtension>
            <ns3:hr>127</ns3:hr>
            <ns3:cad>0</ns3:cad>
          </ns3:TrackPointExtension>
        </extensions>
      </trkpt>
      <trkpt lat="45.32730259001255035400390625" lon="-70.80804557539522647857666015625">
        <ele>874.4000244140625</ele>
        <time>2026-08-21T12:16:59.000Z</time>
        <extensions>
          <ns3:TrackPointExtension>
            <ns3:hr>127</ns3:hr>
            <ns3:cad>0</ns3:cad>
          </ns3:TrackPointExtension>
        </extensions>
      </trkpt>
      <trkpt lat="45.32729831524193286895751953125" lon="-70.808053873479366302490234375">
        <ele>874</ele>
        <time>2026-08-21T12:17:00.000Z</time>
        <extensions>
          <ns3:TrackPointExtension>
            <ns3:hr>127</ns3:hr>
            <ns3:cad>0</ns3:cad>
          </ns3:TrackPointExtension>
        </extensions>
      </trkpt>
      <trkpt lat="45.327291190624237060546875" lon="-70.80806133337318897247314453125">
        <ele>873.5999755859375</ele>
        <time>2026-08-21T12:17:01.000Z</time>
        <extensions>
          <ns3:TrackPointExtension>
            <ns3:hr>126</ns3:hr>
            <ns3:cad>0</ns3:cad>
          </ns3:TrackPointExtension>
        </extensions>
      </trkpt>
      <trkpt lat="45.32728842459619045257568359375" lon="-70.80805881880223751068115234375">
        <ele>873.20001220703125</ele>
        <time>2026-08-21T12:17:02.000Z</time>
        <extensions>
          <ns3:TrackPointExtension>
            <ns3:hr>126</ns3:hr>
            <ns3:cad>0</ns3:cad>
          </ns3:TrackPointExtension>
        </extensions>
      </trkpt>
      <trkpt lat="45.32728381454944610595703125" lon="-70.8080637641251087188720703125">
        <ele>872.79998779296875</ele>
        <time>2026-08-21T12:17:03.000Z</time>
        <extensions>
          <ns3:TrackPointExtension>
            <ns3:hr>126</ns3:hr>
            <ns3:cad>0</ns3:cad>
          </ns3:TrackPointExtension>
        </extensions>
      </trkpt>
      <trkpt lat="45.32728021033108234405517578125" lon="-70.8080661110579967498779296875">
        <ele>872.5999755859375</ele>
        <time>2026-08-21T12:17:04.000Z</time>
        <extensions>
          <ns3:TrackPointExtension>
            <ns3:hr>126</ns3:hr>
            <ns3:cad>0</ns3:cad>
          </ns3:TrackPointExtension>
        </extensions>
      </trkpt>
      <trkpt lat="45.3272779472172260284423828125" lon="-70.808069296181201934814453125">
        <ele>872.4000244140625</ele>
        <time>2026-08-21T12:17:05.000Z</time>
        <extensions>
          <ns3:TrackPointExtension>
            <ns3:hr>126</ns3:hr>
            <ns3:cad>0</ns3:cad>
          </ns3:TrackPointExtension>
        </extensions>
      </trkpt>
      <trkpt lat="45.32727853395044803619384765625" lon="-70.80807231366634368896484375">
        <ele>872.20001220703125</ele>
        <time>2026-08-21T12:17:06.000Z</time>
        <extensions>
          <ns3:TrackPointExtension>
            <ns3:hr>126</ns3:hr>
            <ns3:cad>50</ns3:cad>
          </ns3:TrackPointExtension>
        </extensions>
      </trkpt>
      <trkpt lat="45.3272782824933528900146484375" lon="-70.80807457678020000457763671875">
        <ele>872</ele>
        <time>2026-08-21T12:17:07.000Z</time>
        <extensions>
          <ns3:TrackPointExtension>
            <ns3:hr>126</ns3:hr>
            <ns3:cad>50</ns3:cad>
          </ns3:TrackPointExtension>
        </extensions>
      </trkpt>
      <trkpt lat="45.3272791206836700439453125" lon="-70.808073319494724273681640625">
        <ele>871.79998779296875</ele>
        <time>2026-08-21T12:17:08.000Z</time>
        <extensions>
          <ns3:TrackPointExtension>
            <ns3:hr>126</ns3:hr>
            <ns3:cad>50</ns3:cad>
          </ns3:TrackPointExtension>
        </extensions>
      </trkpt>
      <trkpt lat="45.32727015204727649688720703125" lon="-70.80807591788470745086669921875">
        <ele>871.4000244140625</ele>
        <time>2026-08-21T12:17:09.000Z</time>
        <extensions>
          <ns3:TrackPointExtension>
            <ns3:hr>126</ns3:hr>
            <ns3:cad>50</ns3:cad>
          </ns3:TrackPointExtension>
        </extensions>
      </trkpt>
      <trkpt lat="45.327263362705707550048828125" lon="-70.808078683912754058837890625">
        <ele>871</ele>
        <time>2026-08-21T12:17:10.000Z</time>
        <extensions>
          <ns3:TrackPointExtension>
            <ns3:hr>125</ns3:hr>
            <ns3:cad>50</ns3:cad>
          </ns3:TrackPointExtension>
        </extensions>
      </trkpt>
      <trkpt lat="45.32725657336413860321044921875" lon="-70.80808379687368869781494140625">
        <ele>870.5999755859375</ele>
        <time>2026-08-21T12:17:11.000Z</time>
        <extensions>
          <ns3:TrackPointExtension>
            <ns3:hr>125</ns3:hr>
            <ns3:cad>50</ns3:cad>
          </ns3:TrackPointExtension>
        </extensions>
      </trkpt>
      <trkpt lat="45.3272481076419353485107421875" lon="-70.80808304250240325927734375">
        <ele>870.20001220703125</ele>
        <time>2026-08-21T12:17:12.000Z</time>
        <extensions>
          <ns3:TrackPointExtension>
            <ns3:hr>125</ns3:hr>
            <ns3:cad>50</ns3:cad>
          </ns3:TrackPointExtension>
        </extensions>
      </trkpt>
      <trkpt lat="45.3272323496639728546142578125" lon="-70.80807927064597606658935546875">
        <ele>869.5999755859375</ele>
        <time>2026-08-21T12:17:13.000Z</time>
        <extensions>
          <ns3:TrackPointExtension>
            <ns3:hr>125</ns3:hr>
            <ns3:cad>51</ns3:cad>
          </ns3:TrackPointExtension>
        </extensions>
      </trkpt>
      <trkpt lat="45.32721952535212039947509765625" lon="-70.8080751635134220123291015625">
        <ele>869</ele>
        <time>2026-08-21T12:17:14.000Z</time>
        <extensions>
          <ns3:TrackPointExtension>
            <ns3:hr>125</ns3:hr>
            <ns3:cad>51</ns3:cad>
          </ns3:TrackPointExtension>
        </extensions>
      </trkpt>
      <trkpt lat="45.32720577903091907501220703125" lon="-70.80807373858988285064697265625">
        <ele>868.5999755859375</ele>
        <time>2026-08-21T12:17:15.000Z</time>
        <extensions>
          <ns3:TrackPointExtension>
            <ns3:hr>125</ns3:hr>
            <ns3:cad>51</ns3:cad>
          </ns3:TrackPointExtension>
        </extensions>
      </trkpt>
      <trkpt lat="45.32719396054744720458984375" lon="-70.808072984218597412109375">
        <ele>868</ele>
        <time>2026-08-21T12:17:16.000Z</time>
        <extensions>
          <ns3:TrackPointExtension>
            <ns3:hr>125</ns3:hr>
            <ns3:cad>0</ns3:cad>
          </ns3:TrackPointExtension>
        </extensions>
      </trkpt>
      <trkpt lat="45.3271852433681488037109375" lon="-70.80807373858988285064697265625">
        <ele>867.5999755859375</ele>
        <time>2026-08-21T12:17:17.000Z</time>
        <extensions>
          <ns3:TrackPointExtension>
            <ns3:hr>125</ns3:hr>
            <ns3:cad>0</ns3:cad>
          </ns3:TrackPointExtension>
        </extensions>
      </trkpt>
      <trkpt lat="45.32717811875045299530029296875" lon="-70.808078013360500335693359375">
        <ele>867.20001220703125</ele>
        <time>2026-08-21T12:17:18.000Z</time>
        <extensions>
          <ns3:TrackPointExtension>
            <ns3:hr>125</ns3:hr>
            <ns3:cad>0</ns3:cad>
          </ns3:TrackPointExtension>
        </extensions>
      </trkpt>
      <trkpt lat="45.32716889865696430206298828125" lon="-70.80808036029338836669921875">
        <ele>866.79998779296875</ele>
        <time>2026-08-21T12:17:19.000Z</time>
        <extensions>
          <ns3:TrackPointExtension>
            <ns3:hr>124</ns3:hr>
            <ns3:cad>43</ns3:cad>
          </ns3:TrackPointExtension>
        </extensions>
      </trkpt>
      <trkpt lat="45.32716118730604648590087890625" lon="-70.8080791868269443511962890625">
        <ele>866.4000244140625</ele>
        <time>2026-08-21T12:17:20.000Z</time>
        <extensions>
          <ns3:TrackPointExtension>
            <ns3:hr>124</ns3:hr>
            <ns3:cad>43</ns3:cad>
          </ns3:TrackPointExtension>
        </extensions>
      </trkpt>
      <trkpt lat="45.32715179957449436187744140625" lon="-70.80807692371308803558349609375">
        <ele>865.79998779296875</ele>
        <time>2026-08-21T12:17:21.000Z</time>
        <extensions>
          <ns3:TrackPointExtension>
            <ns3:hr>124</ns3:hr>
            <ns3:cad>43</ns3:cad>
          </ns3:TrackPointExtension>
        </extensions>
      </trkpt>
      <trkpt lat="45.32714107073843479156494140625" lon="-70.80808010883629322052001953125">
        <ele>865.4000244140625</ele>
        <time>2026-08-21T12:17:22.000Z</time>
        <extensions>
          <ns3:TrackPointExtension>
            <ns3:hr>124</ns3:hr>
            <ns3:cad>43</ns3:cad>
          </ns3:TrackPointExtension>
        </extensions>
      </trkpt>
      <trkpt lat="45.32713185064494609832763671875" lon="-70.808091424405574798583984375">
        <ele>865</ele>
        <time>2026-08-21T12:17:23.000Z</time>
        <extensions>
          <ns3:TrackPointExtension>
            <ns3:hr>123</ns3:hr>
            <ns3:cad>43</ns3:cad>
          </ns3:TrackPointExtension>
        </extensions>
      </trkpt>
      <trkpt lat="45.32712279818952083587646484375" lon="-70.808102823793888092041015625">
        <ele>864.5999755859375</ele>
        <time>2026-08-21T12:17:24.000Z</time>
        <extensions>
          <ns3:TrackPointExtension>
            <ns3:hr>123</ns3:hr>
            <ns3:cad>43</ns3:cad>
          </ns3:TrackPointExtension>
        </extensions>
      </trkpt>
      <trkpt lat="45.327110476791858673095703125" lon="-70.80811112187802791595458984375">
        <ele>864.20001220703125</ele>
        <time>2026-08-21T12:17:25.000Z</time>
        <extensions>
          <ns3:TrackPointExtension>
            <ns3:hr>122</ns3:hr>
            <ns3:cad>43</ns3:cad>
          </ns3:TrackPointExtension>
        </extensions>
      </trkpt>
      <trkpt lat="45.3270985744893550872802734375" lon="-70.80811849795281887054443359375">
        <ele>863.79998779296875</ele>
        <time>2026-08-21T12:17:26.000Z</time>
        <extensions>
          <ns3:TrackPointExtension>
            <ns3:hr>122</ns3:hr>
            <ns3:cad>43</ns3:cad>
          </ns3:TrackPointExtension>
        </extensions>
      </trkpt>
      <trkpt lat="45.327091701328754425048828125" lon="-70.80811715684831142425537109375">
        <ele>863.4000244140625</ele>
        <time>2026-08-21T12:17:27.000Z</time>
        <extensions>
          <ns3:TrackPointExtension>
            <ns3:hr>122</ns3:hr>
            <ns3:cad>43</ns3:cad>
          </ns3:TrackPointExtension>
        </extensions>
      </trkpt>
      <trkpt lat="45.32707585953176021575927734375" lon="-70.8081180788576602935791015625">
        <ele>863.20001220703125</ele>
        <time>2026-08-21T12:17:28.000Z</time>
        <extensions>
          <ns3:TrackPointExtension>
            <ns3:hr>122</ns3:hr>
            <ns3:cad>43</ns3:cad>
          </ns3:TrackPointExtension>
        </extensions>
      </trkpt>
      <trkpt lat="45.32706320285797119140625" lon="-70.80811698921024799346923828125">
        <ele>863.20001220703125</ele>
        <time>2026-08-21T12:17:29.000Z</time>
        <extensions>
          <ns3:TrackPointExtension>
            <ns3:hr>123</ns3:hr>
            <ns3:cad>43</ns3:cad>
          </ns3:TrackPointExtension>
        </extensions>
      </trkpt>
      <trkpt lat="45.327050127089023590087890625" lon="-70.80811816267669200897216796875">
        <ele>863.20001220703125</ele>
        <time>2026-08-21T12:17:30.000Z</time>
        <extensions>
          <ns3:TrackPointExtension>
            <ns3:hr>123</ns3:hr>
            <ns3:cad>43</ns3:cad>
          </ns3:TrackPointExtension>
        </extensions>
      </trkpt>
      <trkpt lat="45.32703864388167858123779296875" lon="-70.80811522901058197021484375">
        <ele>863.4000244140625</ele>
        <time>2026-08-21T12:17:31.000Z</time>
        <extensions>
          <ns3:TrackPointExtension>
            <ns3:hr>124</ns3:hr>
            <ns3:cad>43</ns3:cad>
          </ns3:TrackPointExtension>
        </extensions>
      </trkpt>
      <trkpt lat="45.32702690921723842620849609375" lon="-70.80810986459255218505859375">
        <ele>863.4000244140625</ele>
        <time>2026-08-21T12:17:32.000Z</time>
        <extensions>
          <ns3:TrackPointExtension>
            <ns3:hr>124</ns3:hr>
            <ns3:cad>61</ns3:cad>
          </ns3:TrackPointExtension>
        </extensions>
      </trkpt>
      <trkpt lat="45.32701165415346622467041015625" lon="-70.80810173414647579193115234375">
        <ele>863.5999755859375</ele>
        <time>2026-08-21T12:17:33.000Z</time>
        <extensions>
          <ns3:TrackPointExtension>
            <ns3:hr>125</ns3:hr>
            <ns3:cad>61</ns3:cad>
          </ns3:TrackPointExtension>
        </extensions>
      </trkpt>
      <trkpt lat="45.32699891366064548492431640625" lon="-70.80810139887034893035888671875">
        <ele>863.5999755859375</ele>
        <time>2026-08-21T12:17:34.000Z</time>
        <extensions>
          <ns3:TrackPointExtension>
            <ns3:hr>125</ns3:hr>
            <ns3:cad>61</ns3:cad>
          </ns3:TrackPointExtension>
        </extensions>
      </trkpt>
      <trkpt lat="45.3269869275391101837158203125" lon="-70.808100141584873199462890625">
        <ele>863.79998779296875</ele>
        <time>2026-08-21T12:17:35.000Z</time>
        <extensions>
          <ns3:TrackPointExtension>
            <ns3:hr>125</ns3:hr>
            <ns3:cad>61</ns3:cad>
          </ns3:TrackPointExtension>
        </extensions>
      </trkpt>
      <trkpt lat="45.32697259448468685150146484375" lon="-70.8080972917377948760986328125">
        <ele>863.79998779296875</ele>
        <time>2026-08-21T12:17:36.000Z</time>
        <extensions>
          <ns3:TrackPointExtension>
            <ns3:hr>125</ns3:hr>
            <ns3:cad>61</ns3:cad>
          </ns3:TrackPointExtension>
        </extensions>
      </trkpt>
      <trkpt lat="45.32695482484996318817138671875" lon="-70.80809653736650943756103515625">
        <ele>863.5999755859375</ele>
        <time>2026-08-21T12:17:37.000Z</time>
        <extensions>
          <ns3:TrackPointExtension>
            <ns3:hr>125</ns3:hr>
            <ns3:cad>62</ns3:cad>
          </ns3:TrackPointExtension>
        </extensions>
      </trkpt>
      <trkpt lat="45.3269406594336032867431640625" lon="-70.80809620209038257598876953125">
        <ele>863.4000244140625</ele>
        <time>2026-08-21T12:17:38.000Z</time>
        <extensions>
          <ns3:TrackPointExtension>
            <ns3:hr>125</ns3:hr>
            <ns3:cad>62</ns3:cad>
          </ns3:TrackPointExtension>
        </extensions>
      </trkpt>
      <trkpt lat="45.326924733817577362060546875" lon="-70.8080949448049068450927734375">
        <ele>863.20001220703125</ele>
        <time>2026-08-21T12:17:39.000Z</time>
        <extensions>
          <ns3:TrackPointExtension>
            <ns3:hr>125</ns3:hr>
            <ns3:cad>62</ns3:cad>
          </ns3:TrackPointExtension>
        </extensions>
      </trkpt>
      <trkpt lat="45.32691291533410549163818359375" lon="-70.80809519626200199127197265625">
        <ele>862.79998779296875</ele>
        <time>2026-08-21T12:17:40.000Z</time>
        <extensions>
          <ns3:TrackPointExtension>
            <ns3:hr>125</ns3:hr>
            <ns3:cad>62</ns3:cad>
          </ns3:TrackPointExtension>
        </extensions>
      </trkpt>
      <trkpt lat="45.32690386287868022918701171875" lon="-70.80810005776584148406982421875">
        <ele>862.4000244140625</ele>
        <time>2026-08-21T12:17:41.000Z</time>
        <extensions>
          <ns3:TrackPointExtension>
            <ns3:hr>125</ns3:hr>
            <ns3:cad>62</ns3:cad>
          </ns3:TrackPointExtension>
        </extensions>
      </trkpt>
      <trkpt lat="45.3268970735371112823486328125" lon="-70.80809989012777805328369140625">
        <ele>862.20001220703125</ele>
        <time>2026-08-21T12:17:42.000Z</time>
        <extensions>
          <ns3:TrackPointExtension>
            <ns3:hr>125</ns3:hr>
            <ns3:cad>0</ns3:cad>
          </ns3:TrackPointExtension>
        </extensions>
      </trkpt>
      <trkpt lat="45.326889194548130035400390625" lon="-70.8081016503274440765380859375">
        <ele>861.79998779296875</ele>
        <time>2026-08-21T12:17:43.000Z</time>
        <extensions>
          <ns3:TrackPointExtension>
            <ns3:hr>125</ns3:hr>
            <ns3:cad>0</ns3:cad>
          </ns3:TrackPointExtension>
        </extensions>
      </trkpt>
      <trkpt lat="45.3268848359584808349609375" lon="-70.8081013150513172149658203125">
        <ele>861.4000244140625</ele>
        <time>2026-08-21T12:17:44.000Z</time>
        <extensions>
          <ns3:TrackPointExtension>
            <ns3:hr>125</ns3:hr>
            <ns3:cad>0</ns3:cad>
          </ns3:TrackPointExtension>
        </extensions>
      </trkpt>
      <trkpt lat="45.32687854953110218048095703125" lon="-70.8080956153571605682373046875">
        <ele>861.20001220703125</ele>
        <time>2026-08-21T12:17:45.000Z</time>
        <extensions>
          <ns3:TrackPointExtension>
            <ns3:hr>125</ns3:hr>
            <ns3:cad>0</ns3:cad>
          </ns3:TrackPointExtension>
        </extensions>
      </trkpt>
      <trkpt lat="45.3268679045140743255615234375" lon="-70.8080931007862091064453125">
        <ele>860.79998779296875</ele>
        <time>2026-08-21T12:17:46.000Z</time>
        <extensions>
          <ns3:TrackPointExtension>
            <ns3:hr>126</ns3:hr>
            <ns3:cad>0</ns3:cad>
          </ns3:TrackPointExtension>
        </extensions>
      </trkpt>
      <trkpt lat="45.32685524784028530120849609375" lon="-70.80808698199689388275146484375">
        <ele>860.4000244140625</ele>
        <time>2026-08-21T12:17:47.000Z</time>
        <extensions>
          <ns3:TrackPointExtension>
            <ns3:hr>126</ns3:hr>
            <ns3:cad>0</ns3:cad>
          </ns3:TrackPointExtension>
        </extensions>
      </trkpt>
      <trkpt lat="45.3268471173942089080810546875" lon="-70.80807189457118511199951171875">
        <ele>860.20001220703125</ele>
        <time>2026-08-21T12:17:48.000Z</time>
        <extensions>
          <ns3:TrackPointExtension>
            <ns3:hr>126</ns3:hr>
            <ns3:cad>0</ns3:cad>
          </ns3:TrackPointExtension>
        </extensions>
      </trkpt>
      <trkpt lat="45.326829850673675537109375" lon="-70.8080555498600006103515625">
        <ele>860</ele>
        <time>2026-08-21T12:17:49.000Z</time>
        <extensions>
          <ns3:TrackPointExtension>
            <ns3:hr>126</ns3:hr>
            <ns3:cad>0</ns3:cad>
          </ns3:TrackPointExtension>
        </extensions>
      </trkpt>
      <trkpt lat="45.3268139250576496124267578125" lon="-70.80805613659322261810302734375">
        <ele>859.79998779296875</ele>
        <time>2026-08-21T12:17:50.000Z</time>
        <extensions>
          <ns3:TrackPointExtension>
            <ns3:hr>126</ns3:hr>
            <ns3:cad>0</ns3:cad>
          </ns3:TrackPointExtension>
        </extensions>
      </trkpt>
      <trkpt lat="45.32679297029972076416015625" lon="-70.80805244855582714080810546875">
        <ele>859.5999755859375</ele>
        <time>2026-08-21T12:17:51.000Z</time>
        <extensions>
          <ns3:TrackPointExtension>
            <ns3:hr>126</ns3:hr>
            <ns3:cad>0</ns3:cad>
          </ns3:TrackPointExtension>
        </extensions>
      </trkpt>
      <trkpt lat="45.3267780505120754241943359375" lon="-70.8080594055354595184326171875">
        <ele>859.4000244140625</ele>
        <time>2026-08-21T12:17:52.000Z</time>
        <extensions>
          <ns3:TrackPointExtension>
            <ns3:hr>126</ns3:hr>
            <ns3:cad>66</ns3:cad>
          </ns3:TrackPointExtension>
        </extensions>
      </trkpt>
      <trkpt lat="45.32676254399120807647705078125" lon="-70.808067955076694488525390625">
        <ele>859</ele>
        <time>2026-08-21T12:17:53.000Z</time>
        <extensions>
          <ns3:TrackPointExtension>
            <ns3:hr>126</ns3:hr>
            <ns3:cad>66</ns3:cad>
          </ns3:TrackPointExtension>
        </extensions>
      </trkpt>
      <trkpt lat="45.32675282098352909088134765625" lon="-70.8080825395882129669189453125">
        <ele>858.79998779296875</ele>
        <time>2026-08-21T12:17:54.000Z</time>
        <extensions>
          <ns3:TrackPointExtension>
            <ns3:hr>126</ns3:hr>
            <ns3:cad>66</ns3:cad>
          </ns3:TrackPointExtension>
        </extensions>
      </trkpt>
      <trkpt lat="45.32674443908035755157470703125" lon="-70.808089077472686767578125">
        <ele>858.5999755859375</ele>
        <time>2026-08-21T12:17:55.000Z</time>
        <extensions>
          <ns3:TrackPointExtension>
            <ns3:hr>126</ns3:hr>
            <ns3:cad>66</ns3:cad>
          </ns3:TrackPointExtension>
        </extensions>
      </trkpt>
      <trkpt lat="45.326735638082027435302734375" lon="-70.80809804610908031463623046875">
        <ele>858.4000244140625</ele>
        <time>2026-08-21T12:17:56.000Z</time>
        <extensions>
          <ns3:TrackPointExtension>
            <ns3:hr>127</ns3:hr>
            <ns3:cad>66</ns3:cad>
          </ns3:TrackPointExtension>
        </extensions>
      </trkpt>
      <trkpt lat="45.32672348432242870330810546875" lon="-70.80810659565031528472900390625">
        <ele>858</ele>
        <time>2026-08-21T12:17:57.000Z</time>
        <extensions>
          <ns3:TrackPointExtension>
            <ns3:hr>127</ns3:hr>
            <ns3:cad>66</ns3:cad>
          </ns3:TrackPointExtension>
        </extensions>
      </trkpt>
      <trkpt lat="45.32670848071575164794921875" lon="-70.8081143908202648162841796875">
        <ele>857.5999755859375</ele>
        <time>2026-08-21T12:17:58.000Z</time>
        <extensions>
          <ns3:TrackPointExtension>
            <ns3:hr>127</ns3:hr>
            <ns3:cad>66</ns3:cad>
          </ns3:TrackPointExtension>
        </extensions>
      </trkpt>
      <trkpt lat="45.32669750042259693145751953125" lon="-70.808127634227275848388671875">
        <ele>857.4000244140625</ele>
        <time>2026-08-21T12:17:59.000Z</time>
        <extensions>
          <ns3:TrackPointExtension>
            <ns3:hr>128</ns3:hr>
            <ns3:cad>66</ns3:cad>
          </ns3:TrackPointExtension>
        </extensions>
      </trkpt>
      <trkpt lat="45.326686017215251922607421875" lon="-70.808136351406574249267578125">
        <ele>857</ele>
        <time>2026-08-21T12:18:00.000Z</time>
        <extensions>
          <ns3:TrackPointExtension>
            <ns3:hr>128</ns3:hr>
            <ns3:cad>66</ns3:cad>
          </ns3:TrackPointExtension>
        </extensions>
      </trkpt>
      <trkpt lat="45.326676629483699798583984375" lon="-70.8081455715000629425048828125">
        <ele>856.4000244140625</ele>
        <time>2026-08-21T12:18:01.000Z</time>
        <extensions>
          <ns3:TrackPointExtension>
            <ns3:hr>128</ns3:hr>
            <ns3:cad>66</ns3:cad>
          </ns3:TrackPointExtension>
        </extensions>
      </trkpt>
      <trkpt lat="45.32666916958987712860107421875" lon="-70.80816409550607204437255859375">
        <ele>856</ele>
        <time>2026-08-21T12:18:02.000Z</time>
        <extensions>
          <ns3:TrackPointExtension>
            <ns3:hr>127</ns3:hr>
            <ns3:cad>66</ns3:cad>
          </ns3:TrackPointExtension>
        </extensions>
      </trkpt>
      <trkpt lat="45.3266633860766887664794921875" lon="-70.80818253569304943084716796875">
        <ele>855.5999755859375</ele>
        <time>2026-08-21T12:18:03.000Z</time>
        <extensions>
          <ns3:TrackPointExtension>
            <ns3:hr>128</ns3:hr>
            <ns3:cad>66</ns3:cad>
          </ns3:TrackPointExtension>
        </extensions>
      </trkpt>
      <trkpt lat="45.3266608715057373046875" lon="-70.8081950247287750244140625">
        <ele>855.20001220703125</ele>
        <time>2026-08-21T12:18:04.000Z</time>
        <extensions>
          <ns3:TrackPointExtension>
            <ns3:hr>128</ns3:hr>
            <ns3:cad>68</ns3:cad>
          </ns3:TrackPointExtension>
        </extensions>
      </trkpt>
      <trkpt lat="45.32666095532476902008056640625" lon="-70.8082143031060695648193359375">
        <ele>854.79998779296875</ele>
        <time>2026-08-21T12:18:05.000Z</time>
        <extensions>
          <ns3:TrackPointExtension>
            <ns3:hr>127</ns3:hr>
            <ns3:cad>68</ns3:cad>
          </ns3:TrackPointExtension>
        </extensions>
      </trkpt>
      <trkpt lat="45.32665760256350040435791015625" lon="-70.80822763033211231231689453125">
        <ele>854.5999755859375</ele>
        <time>2026-08-21T12:18:06.000Z</time>
        <extensions>
          <ns3:TrackPointExtension>
            <ns3:hr>128</ns3:hr>
            <ns3:cad>68</ns3:cad>
          </ns3:TrackPointExtension>
        </extensions>
      </trkpt>
      <trkpt lat="45.32665324397385120391845703125" lon="-70.80823115073144435882568359375">
        <ele>854.20001220703125</ele>
        <time>2026-08-21T12:18:07.000Z</time>
        <extensions>
          <ns3:TrackPointExtension>
            <ns3:hr>127</ns3:hr>
            <ns3:cad>68</ns3:cad>
          </ns3:TrackPointExtension>
        </extensions>
      </trkpt>
      <trkpt lat="45.3266442753374576568603515625" lon="-70.8082352578639984130859375">
        <ele>853.79998779296875</ele>
        <time>2026-08-21T12:18:08.000Z</time>
        <extensions>
          <ns3:TrackPointExtension>
            <ns3:hr>127</ns3:hr>
            <ns3:cad>0</ns3:cad>
          </ns3:TrackPointExtension>
        </extensions>
      </trkpt>
      <trkpt lat="45.32663983292877674102783203125" lon="-70.8082406222820281982421875">
        <ele>853.4000244140625</ele>
        <time>2026-08-21T12:18:09.000Z</time>
        <extensions>
          <ns3:TrackPointExtension>
            <ns3:hr>127</ns3:hr>
            <ns3:cad>0</ns3:cad>
          </ns3:TrackPointExtension>
        </extensions>
      </trkpt>
      <trkpt lat="45.32663497142493724822998046875" lon="-70.8082518540322780609130859375">
        <ele>853</ele>
        <time>2026-08-21T12:18:10.000Z</time>
        <extensions>
          <ns3:TrackPointExtension>
            <ns3:hr>127</ns3:hr>
            <ns3:cad>0</ns3:cad>
          </ns3:TrackPointExtension>
        </extensions>
      </trkpt>
      <trkpt lat="45.3266285173594951629638671875" lon="-70.808258391916751861572265625">
        <ele>852.4000244140625</ele>
        <time>2026-08-21T12:18:11.000Z</time>
        <extensions>
          <ns3:TrackPointExtension>
            <ns3:hr>128</ns3:hr>
            <ns3:cad>61</ns3:cad>
          </ns3:TrackPointExtension>
        </extensions>
      </trkpt>
      <trkpt lat="45.32662533223628997802734375" lon="-70.8082585595548152923583984375">
        <ele>852</ele>
        <time>2026-08-21T12:18:12.000Z</time>
        <extensions>
          <ns3:TrackPointExtension>
            <ns3:hr>127</ns3:hr>
            <ns3:cad>61</ns3:cad>
          </ns3:TrackPointExtension>
        </extensions>
      </trkpt>
      <trkpt lat="45.326620973646640777587890625" lon="-70.808257050812244415283203125">
        <ele>851.5999755859375</ele>
        <time>2026-08-21T12:18:13.000Z</time>
        <extensions>
          <ns3:TrackPointExtension>
            <ns3:hr>127</ns3:hr>
            <ns3:cad>61</ns3:cad>
          </ns3:TrackPointExtension>
        </extensions>
      </trkpt>
      <trkpt lat="45.3266179561614990234375" lon="-70.8082471601665019989013671875">
        <ele>851.4000244140625</ele>
        <time>2026-08-21T12:18:14.000Z</time>
        <extensions>
          <ns3:TrackPointExtension>
            <ns3:hr>127</ns3:hr>
            <ns3:cad>61</ns3:cad>
          </ns3:TrackPointExtension>
        </extensions>
      </trkpt>
      <trkpt lat="45.32661720179021358489990234375" lon="-70.80824104137718677520751953125">
        <ele>851</ele>
        <time>2026-08-21T12:18:15.000Z</time>
        <extensions>
          <ns3:TrackPointExtension>
            <ns3:hr>127</ns3:hr>
            <ns3:cad>61</ns3:cad>
          </ns3:TrackPointExtension>
        </extensions>
      </trkpt>
      <trkpt lat="45.32660898752510547637939453125" lon="-70.80823995172977447509765625">
        <ele>850.79998779296875</ele>
        <time>2026-08-21T12:18:16.000Z</time>
        <extensions>
          <ns3:TrackPointExtension>
            <ns3:hr>127</ns3:hr>
            <ns3:cad>65</ns3:cad>
          </ns3:TrackPointExtension>
        </extensions>
      </trkpt>
      <trkpt lat="45.32660077325999736785888671875" lon="-70.80823316238820552825927734375">
        <ele>850.5999755859375</ele>
        <time>2026-08-21T12:18:17.000Z</time>
        <extensions>
          <ns3:TrackPointExtension>
            <ns3:hr>126</ns3:hr>
            <ns3:cad>65</ns3:cad>
          </ns3:TrackPointExtension>
        </extensions>
      </trkpt>
      <trkpt lat="45.32659742049872875213623046875" lon="-70.80823400057852268218994140625">
        <ele>850.20001220703125</ele>
        <time>2026-08-21T12:18:18.000Z</time>
        <extensions>
          <ns3:TrackPointExtension>
            <ns3:hr>127</ns3:hr>
            <ns3:cad>65</ns3:cad>
          </ns3:TrackPointExtension>
        </extensions>
      </trkpt>
      <trkpt lat="45.32659507356584072113037109375" lon="-70.80823936499655246734619140625">
        <ele>850</ele>
        <time>2026-08-21T12:18:19.000Z</time>
        <extensions>
          <ns3:TrackPointExtension>
            <ns3:hr>127</ns3:hr>
            <ns3:cad>65</ns3:cad>
          </ns3:TrackPointExtension>
        </extensions>
      </trkpt>
      <trkpt lat="45.32659037970006465911865234375" lon="-70.8082414604723453521728515625">
        <ele>849.5999755859375</ele>
        <time>2026-08-21T12:18:20.000Z</time>
        <extensions>
          <ns3:TrackPointExtension>
            <ns3:hr>127</ns3:hr>
            <ns3:cad>59</ns3:cad>
          </ns3:TrackPointExtension>
        </extensions>
      </trkpt>
      <trkpt lat="45.32658400945365428924560546875" lon="-70.80824037082493305206298828125">
        <ele>849.20001220703125</ele>
        <time>2026-08-21T12:18:21.000Z</time>
        <extensions>
          <ns3:TrackPointExtension>
            <ns3:hr>127</ns3:hr>
            <ns3:cad>59</ns3:cad>
          </ns3:TrackPointExtension>
        </extensions>
      </trkpt>
      <trkpt lat="45.3265721909701824188232421875" lon="-70.8082354255020618438720703125">
        <ele>848.79998779296875</ele>
        <time>2026-08-21T12:18:22.000Z</time>
        <extensions>
          <ns3:TrackPointExtension>
            <ns3:hr>128</ns3:hr>
            <ns3:cad>59</ns3:cad>
          </ns3:TrackPointExtension>
        </extensions>
      </trkpt>
      <trkpt lat="45.3265688382089138031005859375" lon="-70.8082340843975543975830078125">
        <ele>848.4000244140625</ele>
        <time>2026-08-21T12:18:23.000Z</time>
        <extensions>
          <ns3:TrackPointExtension>
            <ns3:hr>127</ns3:hr>
            <ns3:cad>59</ns3:cad>
          </ns3:TrackPointExtension>
        </extensions>
      </trkpt>
      <trkpt lat="45.32656825147569179534912109375" lon="-70.80822545103728771209716796875">
        <ele>848.20001220703125</ele>
        <time>2026-08-21T12:18:24.000Z</time>
        <extensions>
          <ns3:TrackPointExtension>
            <ns3:hr>127</ns3:hr>
            <ns3:cad>59</ns3:cad>
          </ns3:TrackPointExtension>
        </extensions>
      </trkpt>
      <trkpt lat="45.32656808383762836456298828125" lon="-70.80822075717151165008544921875">
        <ele>847.79998779296875</ele>
        <time>2026-08-21T12:18:25.000Z</time>
        <extensions>
          <ns3:TrackPointExtension>
            <ns3:hr>127</ns3:hr>
            <ns3:cad>0</ns3:cad>
          </ns3:TrackPointExtension>
        </extensions>
      </trkpt>
      <trkpt lat="45.32656121067702770233154296875" lon="-70.8082189969718456268310546875">
        <ele>847.4000244140625</ele>
        <time>2026-08-21T12:18:26.000Z</time>
        <extensions>
          <ns3:TrackPointExtension>
            <ns3:hr>127</ns3:hr>
            <ns3:cad>0</ns3:cad>
          </ns3:TrackPointExtension>
        </extensions>
      </trkpt>
      <trkpt lat="45.326553918421268463134765625" lon="-70.80821421928703784942626953125">
        <ele>847.20001220703125</ele>
        <time>2026-08-21T12:18:27.000Z</time>
        <extensions>
          <ns3:TrackPointExtension>
            <ns3:hr>126</ns3:hr>
            <ns3:cad>0</ns3:cad>
          </ns3:TrackPointExtension>
        </extensions>
      </trkpt>
      <trkpt lat="45.326549895107746124267578125" lon="-70.8082045800983905792236328125">
        <ele>846.79998779296875</ele>
        <time>2026-08-21T12:18:28.000Z</time>
        <extensions>
          <ns3:TrackPointExtension>
            <ns3:hr>126</ns3:hr>
            <ns3:cad>0</ns3:cad>
          </ns3:TrackPointExtension>
        </extensions>
      </trkpt>
      <trkpt lat="45.32654444687068462371826171875" lon="-70.808196030557155609130859375">
        <ele>846.20001220703125</ele>
        <time>2026-08-21T12:18:29.000Z</time>
        <extensions>
          <ns3:TrackPointExtension>
            <ns3:hr>126</ns3:hr>
            <ns3:cad>0</ns3:cad>
          </ns3:TrackPointExtension>
        </extensions>
      </trkpt>
      <trkpt lat="45.32654059119522571563720703125" lon="-70.80818823538720607757568359375">
        <ele>845.79998779296875</ele>
        <time>2026-08-21T12:18:30.000Z</time>
        <extensions>
          <ns3:TrackPointExtension>
            <ns3:hr>126</ns3:hr>
            <ns3:cad>0</ns3:cad>
          </ns3:TrackPointExtension>
        </extensions>
      </trkpt>
      <trkpt lat="45.32653640024363994598388671875" lon="-70.80817666836082935333251953125">
        <ele>845.20001220703125</ele>
        <time>2026-08-21T12:18:31.000Z</time>
        <extensions>
          <ns3:TrackPointExtension>
            <ns3:hr>127</ns3:hr>
            <ns3:cad>0</ns3:cad>
          </ns3:TrackPointExtension>
        </extensions>
      </trkpt>
      <trkpt lat="45.32653556205332279205322265625" lon="-70.80817029811441898345947265625">
        <ele>844.79998779296875</ele>
        <time>2026-08-21T12:18:32.000Z</time>
        <extensions>
          <ns3:TrackPointExtension>
            <ns3:hr>126</ns3:hr>
            <ns3:cad>0</ns3:cad>
          </ns3:TrackPointExtension>
        </extensions>
      </trkpt>
      <trkpt lat="45.32652935944497585296630859375" lon="-70.80816107802093029022216796875">
        <ele>844.4000244140625</ele>
        <time>2026-08-21T12:18:33.000Z</time>
        <extensions>
          <ns3:TrackPointExtension>
            <ns3:hr>126</ns3:hr>
            <ns3:cad>0</ns3:cad>
          </ns3:TrackPointExtension>
        </extensions>
      </trkpt>
      <trkpt lat="45.326522402465343475341796875" lon="-70.8081492595374584197998046875">
        <ele>844.20001220703125</ele>
        <time>2026-08-21T12:18:34.000Z</time>
        <extensions>
          <ns3:TrackPointExtension>
            <ns3:hr>125</ns3:hr>
            <ns3:cad>0</ns3:cad>
          </ns3:TrackPointExtension>
        </extensions>
      </trkpt>
      <trkpt lat="45.3265135176479816436767578125" lon="-70.808133669197559356689453125">
        <ele>844</ele>
        <time>2026-08-21T12:18:35.000Z</time>
        <extensions>
          <ns3:TrackPointExtension>
            <ns3:hr>125</ns3:hr>
            <ns3:cad>0</ns3:cad>
          </ns3:TrackPointExtension>
        </extensions>
      </trkpt>
      <trkpt lat="45.32650463283061981201171875" lon="-70.80811967141926288604736328125">
        <ele>843.79998779296875</ele>
        <time>2026-08-21T12:18:36.000Z</time>
        <extensions>
          <ns3:TrackPointExtension>
            <ns3:hr>123</ns3:hr>
            <ns3:cad>0</ns3:cad>
          </ns3:TrackPointExtension>
        </extensions>
      </trkpt>
      <trkpt lat="45.326490886509418487548828125" lon="-70.80811933614313602447509765625">
        <ele>843.5999755859375</ele>
        <time>2026-08-21T12:18:37.000Z</time>
        <extensions>
          <ns3:TrackPointExtension>
            <ns3:hr>123</ns3:hr>
            <ns3:cad>0</ns3:cad>
          </ns3:TrackPointExtension>
        </extensions>
      </trkpt>
      <trkpt lat="45.32648728229105472564697265625" lon="-70.80811782740056514739990234375">
        <ele>843.4000244140625</ele>
        <time>2026-08-21T12:18:38.000Z</time>
        <extensions>
          <ns3:TrackPointExtension>
            <ns3:hr>123</ns3:hr>
            <ns3:cad>0</ns3:cad>
          </ns3:TrackPointExtension>
        </extensions>
      </trkpt>
      <trkpt lat="45.3264793194830417633056640625" lon="-70.80812218599021434783935546875">
        <ele>843</ele>
        <time>2026-08-21T12:18:39.000Z</time>
        <extensions>
          <ns3:TrackPointExtension>
            <ns3:hr>123</ns3:hr>
            <ns3:cad>0</ns3:cad>
          </ns3:TrackPointExtension>
        </extensions>
      </trkpt>
      <trkpt lat="45.3264820016920566558837890625" lon="-70.8081174083054065704345703125">
        <ele>842.79998779296875</ele>
        <time>2026-08-21T12:18:40.000Z</time>
        <extensions>
          <ns3:TrackPointExtension>
            <ns3:hr>123</ns3:hr>
            <ns3:cad>0</ns3:cad>
          </ns3:TrackPointExtension>
        </extensions>
      </trkpt>
      <trkpt lat="45.32647311687469482421875" lon="-70.80811413936316967010498046875">
        <ele>842.4000244140625</ele>
        <time>2026-08-21T12:18:41.000Z</time>
        <extensions>
          <ns3:TrackPointExtension>
            <ns3:hr>123</ns3:hr>
            <ns3:cad>0</ns3:cad>
          </ns3:TrackPointExtension>
        </extensions>
      </trkpt>
      <trkpt lat="45.3264637291431427001953125" lon="-70.808113552629947662353515625">
        <ele>842</ele>
        <time>2026-08-21T12:18:42.000Z</time>
        <extensions>
          <ns3:TrackPointExtension>
            <ns3:hr>123</ns3:hr>
            <ns3:cad>0</ns3:cad>
          </ns3:TrackPointExtension>
        </extensions>
      </trkpt>
      <trkpt lat="45.32645459286868572235107421875" lon="-70.8081120438873767852783203125">
        <ele>841.79998779296875</ele>
        <time>2026-08-21T12:18:43.000Z</time>
        <extensions>
          <ns3:TrackPointExtension>
            <ns3:hr>123</ns3:hr>
            <ns3:cad>0</ns3:cad>
          </ns3:TrackPointExtension>
        </extensions>
      </trkpt>
      <trkpt lat="45.326450653374195098876953125" lon="-70.80811212770640850067138671875">
        <ele>841.4000244140625</ele>
        <time>2026-08-21T12:18:44.000Z</time>
        <extensions>
          <ns3:TrackPointExtension>
            <ns3:hr>124</ns3:hr>
            <ns3:cad>0</ns3:cad>
          </ns3:TrackPointExtension>
        </extensions>
      </trkpt>
      <trkpt lat="45.3264488093554973602294921875" lon="-70.80810676328837871551513671875">
        <ele>841</ele>
        <time>2026-08-21T12:18:45.000Z</time>
        <extensions>
          <ns3:TrackPointExtension>
            <ns3:hr>124</ns3:hr>
            <ns3:cad>0</ns3:cad>
          </ns3:TrackPointExtension>
        </extensions>
      </trkpt>
      <trkpt lat="45.32644704915583133697509765625" lon="-70.8081009797751903533935546875">
        <ele>840.5999755859375</ele>
        <time>2026-08-21T12:18:46.000Z</time>
        <extensions>
          <ns3:TrackPointExtension>
            <ns3:hr>123</ns3:hr>
            <ns3:cad>0</ns3:cad>
          </ns3:TrackPointExtension>
        </extensions>
      </trkpt>
      <trkpt lat="45.3264374099671840667724609375" lon="-70.8080971240997314453125">
        <ele>840.4000244140625</ele>
        <time>2026-08-21T12:18:47.000Z</time>
        <extensions>
          <ns3:TrackPointExtension>
            <ns3:hr>123</ns3:hr>
            <ns3:cad>0</ns3:cad>
          </ns3:TrackPointExtension>
        </extensions>
      </trkpt>
      <trkpt lat="45.32643447630107402801513671875" lon="-70.80810307525098323822021484375">
        <ele>840</ele>
        <time>2026-08-21T12:18:48.000Z</time>
        <extensions>
          <ns3:TrackPointExtension>
            <ns3:hr>123</ns3:hr>
            <ns3:cad>0</ns3:cad>
          </ns3:TrackPointExtension>
        </extensions>
      </trkpt>
      <trkpt lat="45.3264246694743633270263671875" lon="-70.80810793675482273101806640625">
        <ele>839.5999755859375</ele>
        <time>2026-08-21T12:18:49.000Z</time>
        <extensions>
          <ns3:TrackPointExtension>
            <ns3:hr>123</ns3:hr>
            <ns3:cad>0</ns3:cad>
          </ns3:TrackPointExtension>
        </extensions>
      </trkpt>
      <trkpt lat="45.3264213167130947113037109375" lon="-70.8081013150513172149658203125">
        <ele>839.20001220703125</ele>
        <time>2026-08-21T12:18:50.000Z</time>
        <extensions>
          <ns3:TrackPointExtension>
            <ns3:hr>123</ns3:hr>
            <ns3:cad>0</ns3:cad>
          </ns3:TrackPointExtension>
        </extensions>
      </trkpt>
      <trkpt lat="45.32641285099089145660400390625" lon="-70.80809955485165119171142578125">
        <ele>838.79998779296875</ele>
        <time>2026-08-21T12:18:51.000Z</time>
        <extensions>
          <ns3:TrackPointExtension>
            <ns3:hr>123</ns3:hr>
            <ns3:cad>0</ns3:cad>
          </ns3:TrackPointExtension>
        </extensions>
      </trkpt>
      <trkpt lat="45.32640463672578334808349609375" lon="-70.80809905193746089935302734375">
        <ele>838.20001220703125</ele>
        <time>2026-08-21T12:18:52.000Z</time>
        <extensions>
          <ns3:TrackPointExtension>
            <ns3:hr>122</ns3:hr>
            <ns3:cad>0</ns3:cad>
          </ns3:TrackPointExtension>
        </extensions>
      </trkpt>
      <trkpt lat="45.3263966739177703857421875" lon="-70.8080956153571605682373046875">
        <ele>837.79998779296875</ele>
        <time>2026-08-21T12:18:53.000Z</time>
        <extensions>
          <ns3:TrackPointExtension>
            <ns3:hr>122</ns3:hr>
            <ns3:cad>0</ns3:cad>
          </ns3:TrackPointExtension>
        </extensions>
      </trkpt>
      <trkpt lat="45.32638929784297943115234375" lon="-70.80808698199689388275146484375">
        <ele>837.20001220703125</ele>
        <time>2026-08-21T12:18:54.000Z</time>
        <extensions>
          <ns3:TrackPointExtension>
            <ns3:hr>122</ns3:hr>
            <ns3:cad>0</ns3:cad>
          </ns3:TrackPointExtension>
        </extensions>
      </trkpt>
      <trkpt lat="45.32638167031109333038330078125" lon="-70.80808161757886409759521484375">
        <ele>836.79998779296875</ele>
        <time>2026-08-21T12:18:55.000Z</time>
        <extensions>
          <ns3:TrackPointExtension>
            <ns3:hr>122</ns3:hr>
            <ns3:cad>0</ns3:cad>
          </ns3:TrackPointExtension>
        </extensions>
      </trkpt>
      <trkpt lat="45.3263659961521625518798828125" lon="-70.8080795221030712127685546875">
        <ele>836.4000244140625</ele>
        <time>2026-08-21T12:18:56.000Z</time>
        <extensions>
          <ns3:TrackPointExtension>
            <ns3:hr>122</ns3:hr>
            <ns3:cad>0</ns3:cad>
          </ns3:TrackPointExtension>
        </extensions>
      </trkpt>
      <trkpt lat="45.32635970972478389739990234375" lon="-70.80807239748537540435791015625">
        <ele>836.20001220703125</ele>
        <time>2026-08-21T12:18:57.000Z</time>
        <extensions>
          <ns3:TrackPointExtension>
            <ns3:hr>123</ns3:hr>
            <ns3:cad>0</ns3:cad>
          </ns3:TrackPointExtension>
        </extensions>
      </trkpt>
      <trkpt lat="45.326358787715435028076171875" lon="-70.80806887708604335784912109375">
        <ele>835.79998779296875</ele>
        <time>2026-08-21T12:18:58.000Z</time>
        <extensions>
          <ns3:TrackPointExtension>
            <ns3:hr>123</ns3:hr>
            <ns3:cad>0</ns3:cad>
          </ns3:TrackPointExtension>
        </extensions>
      </trkpt>
      <trkpt lat="45.3263532556593418121337890625" lon="-70.80806829035282135009765625">
        <ele>835.4000244140625</ele>
        <time>2026-08-21T12:18:59.000Z</time>
        <extensions>
          <ns3:TrackPointExtension>
            <ns3:hr>123</ns3:hr>
            <ns3:cad>0</ns3:cad>
          </ns3:TrackPointExtension>
        </extensions>
      </trkpt>
      <trkpt lat="45.32634696923196315765380859375" lon="-70.80806770361959934234619140625">
        <ele>835.20001220703125</ele>
        <time>2026-08-21T12:19:00.000Z</time>
        <extensions>
          <ns3:TrackPointExtension>
            <ns3:hr>123</ns3:hr>
            <ns3:cad>0</ns3:cad>
          </ns3:TrackPointExtension>
        </extensions>
      </trkpt>
      <trkpt lat="45.3263344801962375640869140625" lon="-70.8080590702593326568603515625">
        <ele>834.79998779296875</ele>
        <time>2026-08-21T12:19:01.000Z</time>
        <extensions>
          <ns3:TrackPointExtension>
            <ns3:hr>123</ns3:hr>
            <ns3:cad>0</ns3:cad>
          </ns3:TrackPointExtension>
        </extensions>
      </trkpt>
      <trkpt lat="45.32632919959723949432373046875" lon="-70.80805261619389057159423828125">
        <ele>834.4000244140625</ele>
        <time>2026-08-21T12:19:02.000Z</time>
        <extensions>
          <ns3:TrackPointExtension>
            <ns3:hr>124</ns3:hr>
            <ns3:cad>0</ns3:cad>
          </ns3:TrackPointExtension>
        </extensions>
      </trkpt>
      <trkpt lat="45.3263160400092601776123046875" lon="-70.808062255382537841796875">
        <ele>834</ele>
        <time>2026-08-21T12:19:03.000Z</time>
        <extensions>
          <ns3:TrackPointExtension>
            <ns3:hr>124</ns3:hr>
            <ns3:cad>0</ns3:cad>
          </ns3:TrackPointExtension>
        </extensions>
      </trkpt>
      <trkpt lat="45.32630656845867633819580078125" lon="-70.80807407386600971221923828125">
        <ele>833.5999755859375</ele>
        <time>2026-08-21T12:19:04.000Z</time>
        <extensions>
          <ns3:TrackPointExtension>
            <ns3:hr>124</ns3:hr>
            <ns3:cad>0</ns3:cad>
          </ns3:TrackPointExtension>
        </extensions>
      </trkpt>
      <trkpt lat="45.32629449851810932159423828125" lon="-70.8080862276256084442138671875">
        <ele>833.20001220703125</ele>
        <time>2026-08-21T12:19:05.000Z</time>
        <extensions>
          <ns3:TrackPointExtension>
            <ns3:hr>124</ns3:hr>
            <ns3:cad>0</ns3:cad>
          </ns3:TrackPointExtension>
        </extensions>
      </trkpt>
      <trkpt lat="45.326289050281047821044921875" lon="-70.80809435807168483734130859375">
        <ele>832.79998779296875</ele>
        <time>2026-08-21T12:19:06.000Z</time>
        <extensions>
          <ns3:TrackPointExtension>
            <ns3:hr>124</ns3:hr>
            <ns3:cad>68</ns3:cad>
          </ns3:TrackPointExtension>
        </extensions>
      </trkpt>
      <trkpt lat="45.32628628425300121307373046875" lon="-70.80810139887034893035888671875">
        <ele>832.20001220703125</ele>
        <time>2026-08-21T12:19:07.000Z</time>
        <extensions>
          <ns3:TrackPointExtension>
            <ns3:hr>124</ns3:hr>
            <ns3:cad>68</ns3:cad>
          </ns3:TrackPointExtension>
        </extensions>
      </trkpt>
      <trkpt lat="45.326279662549495697021484375" lon="-70.8081080205738544464111328125">
        <ele>831.79998779296875</ele>
        <time>2026-08-21T12:19:08.000Z</time>
        <extensions>
          <ns3:TrackPointExtension>
            <ns3:hr>124</ns3:hr>
            <ns3:cad>68</ns3:cad>
          </ns3:TrackPointExtension>
        </extensions>
      </trkpt>
      <trkpt lat="45.326274968683719635009765625" lon="-70.80811145715415477752685546875">
        <ele>831.4000244140625</ele>
        <time>2026-08-21T12:19:09.000Z</time>
        <extensions>
          <ns3:TrackPointExtension>
            <ns3:hr>123</ns3:hr>
            <ns3:cad>68</ns3:cad>
          </ns3:TrackPointExtension>
        </extensions>
      </trkpt>
      <trkpt lat="45.32627086155116558074951171875" lon="-70.8081160672008991241455078125">
        <ele>831</ele>
        <time>2026-08-21T12:19:10.000Z</time>
        <extensions>
          <ns3:TrackPointExtension>
            <ns3:hr>124</ns3:hr>
            <ns3:cad>68</ns3:cad>
          </ns3:TrackPointExtension>
        </extensions>
      </trkpt>
      <trkpt lat="45.32626683823764324188232421875" lon="-70.8081221021711826324462890625">
        <ele>830.79998779296875</ele>
        <time>2026-08-21T12:19:11.000Z</time>
        <extensions>
          <ns3:TrackPointExtension>
            <ns3:hr>123</ns3:hr>
            <ns3:cad>64</ns3:cad>
          </ns3:TrackPointExtension>
        </extensions>
      </trkpt>
      <trkpt lat="45.32626398839056491851806640625" lon="-70.80812403000891208648681640625">
        <ele>830.4000244140625</ele>
        <time>2026-08-21T12:19:12.000Z</time>
        <extensions>
          <ns3:TrackPointExtension>
            <ns3:hr>123</ns3:hr>
            <ns3:cad>64</ns3:cad>
          </ns3:TrackPointExtension>
        </extensions>
      </trkpt>
      <trkpt lat="45.32625996507704257965087890625" lon="-70.8081306517124176025390625">
        <ele>830</ele>
        <time>2026-08-21T12:19:13.000Z</time>
        <extensions>
          <ns3:TrackPointExtension>
            <ns3:hr>123</ns3:hr>
            <ns3:cad>64</ns3:cad>
          </ns3:TrackPointExtension>
        </extensions>
      </trkpt>
      <trkpt lat="45.32625007443130016326904296875" lon="-70.80813744105398654937744140625">
        <ele>829.5999755859375</ele>
        <time>2026-08-21T12:19:14.000Z</time>
        <extensions>
          <ns3:TrackPointExtension>
            <ns3:hr>124</ns3:hr>
            <ns3:cad>64</ns3:cad>
          </ns3:TrackPointExtension>
        </extensions>
      </trkpt>
      <trkpt lat="45.326244123280048370361328125" lon="-70.8081435598433017730712890625">
        <ele>829.20001220703125</ele>
        <time>2026-08-21T12:19:15.000Z</time>
        <extensions>
          <ns3:TrackPointExtension>
            <ns3:hr>123</ns3:hr>
            <ns3:cad>64</ns3:cad>
          </ns3:TrackPointExtension>
        </extensions>
      </trkpt>
      <trkpt lat="45.3262389265000820159912109375" lon="-70.80814632587134838104248046875">
        <ele>828.79998779296875</ele>
        <time>2026-08-21T12:19:16.000Z</time>
        <extensions>
          <ns3:TrackPointExtension>
            <ns3:hr>123</ns3:hr>
            <ns3:cad>64</ns3:cad>
          </ns3:TrackPointExtension>
        </extensions>
      </trkpt>
      <trkpt lat="45.3262317180633544921875" lon="-70.80815135501325130462646484375">
        <ele>828.20001220703125</ele>
        <time>2026-08-21T12:19:17.000Z</time>
        <extensions>
          <ns3:TrackPointExtension>
            <ns3:hr>123</ns3:hr>
            <ns3:cad>64</ns3:cad>
          </ns3:TrackPointExtension>
        </extensions>
      </trkpt>
      <trkpt lat="45.32622492872178554534912109375" lon="-70.808153115212917327880859375">
        <ele>827.79998779296875</ele>
        <time>2026-08-21T12:19:18.000Z</time>
        <extensions>
          <ns3:TrackPointExtension>
            <ns3:hr>123</ns3:hr>
            <ns3:cad>64</ns3:cad>
          </ns3:TrackPointExtension>
        </extensions>
      </trkpt>
      <trkpt lat="45.3262198157608509063720703125" lon="-70.8081462420523166656494140625">
        <ele>827.4000244140625</ele>
        <time>2026-08-21T12:19:19.000Z</time>
        <extensions>
          <ns3:TrackPointExtension>
            <ns3:hr>122</ns3:hr>
            <ns3:cad>64</ns3:cad>
          </ns3:TrackPointExtension>
        </extensions>
      </trkpt>
      <trkpt lat="45.3262169659137725830078125" lon="-70.8081462420523166656494140625">
        <ele>827</ele>
        <time>2026-08-21T12:19:20.000Z</time>
        <extensions>
          <ns3:TrackPointExtension>
            <ns3:hr>122</ns3:hr>
            <ns3:cad>64</ns3:cad>
          </ns3:TrackPointExtension>
        </extensions>
      </trkpt>
      <trkpt lat="45.32621101476252079010009765625" lon="-70.808143056929111480712890625">
        <ele>826.79998779296875</ele>
        <time>2026-08-21T12:19:21.000Z</time>
        <extensions>
          <ns3:TrackPointExtension>
            <ns3:hr>122</ns3:hr>
            <ns3:cad>64</ns3:cad>
          </ns3:TrackPointExtension>
        </extensions>
      </trkpt>
      <trkpt lat="45.32620288431644439697265625" lon="-70.80813802778720855712890625">
        <ele>826.5999755859375</ele>
        <time>2026-08-21T12:19:22.000Z</time>
        <extensions>
          <ns3:TrackPointExtension>
            <ns3:hr>122</ns3:hr>
            <ns3:cad>64</ns3:cad>
          </ns3:TrackPointExtension>
        </extensions>
      </trkpt>
      <trkpt lat="45.32618955709040164947509765625" lon="-70.80814532004296779632568359375">
        <ele>826.4000244140625</ele>
        <time>2026-08-21T12:19:23.000Z</time>
        <extensions>
          <ns3:TrackPointExtension>
            <ns3:hr>122</ns3:hr>
            <ns3:cad>64</ns3:cad>
          </ns3:TrackPointExtension>
        </extensions>
      </trkpt>
      <trkpt lat="45.326179079711437225341796875" lon="-70.80815319903194904327392578125">
        <ele>826</ele>
        <time>2026-08-21T12:19:24.000Z</time>
        <extensions>
          <ns3:TrackPointExtension>
            <ns3:hr>122</ns3:hr>
            <ns3:cad>64</ns3:cad>
          </ns3:TrackPointExtension>
        </extensions>
      </trkpt>
      <trkpt lat="45.32617061398923397064208984375" lon="-70.80816484987735748291015625">
        <ele>825.79998779296875</ele>
        <time>2026-08-21T12:19:25.000Z</time>
        <extensions>
          <ns3:TrackPointExtension>
            <ns3:hr>122</ns3:hr>
            <ns3:cad>64</ns3:cad>
          </ns3:TrackPointExtension>
        </extensions>
      </trkpt>
      <trkpt lat="45.32616357319056987762451171875" lon="-70.80818404443562030792236328125">
        <ele>825.5999755859375</ele>
        <time>2026-08-21T12:19:26.000Z</time>
        <extensions>
          <ns3:TrackPointExtension>
            <ns3:hr>123</ns3:hr>
            <ns3:cad>64</ns3:cad>
          </ns3:TrackPointExtension>
        </extensions>
      </trkpt>
      <trkpt lat="45.32615854404866695404052734375" lon="-70.80819393508136272430419921875">
        <ele>825.20001220703125</ele>
        <time>2026-08-21T12:19:27.000Z</time>
        <extensions>
          <ns3:TrackPointExtension>
            <ns3:hr>124</ns3:hr>
            <ns3:cad>64</ns3:cad>
          </ns3:TrackPointExtension>
        </extensions>
      </trkpt>
      <trkpt lat="45.3261514194309711456298828125" lon="-70.80819846130907535552978515625">
        <ele>825</ele>
        <time>2026-08-21T12:19:28.000Z</time>
        <extensions>
          <ns3:TrackPointExtension>
            <ns3:hr>124</ns3:hr>
            <ns3:cad>64</ns3:cad>
          </ns3:TrackPointExtension>
        </extensions>
      </trkpt>
      <trkpt lat="45.3261410258710384368896484375" lon="-70.80820198170840740203857421875">
        <ele>824.5999755859375</ele>
        <time>2026-08-21T12:19:29.000Z</time>
        <extensions>
          <ns3:TrackPointExtension>
            <ns3:hr>124</ns3:hr>
            <ns3:cad>64</ns3:cad>
          </ns3:TrackPointExtension>
        </extensions>
      </trkpt>
      <trkpt lat="45.3261292912065982818603515625" lon="-70.80820550210773944854736328125">
        <ele>824.4000244140625</ele>
        <time>2026-08-21T12:19:30.000Z</time>
        <extensions>
          <ns3:TrackPointExtension>
            <ns3:hr>124</ns3:hr>
            <ns3:cad>48</ns3:cad>
          </ns3:TrackPointExtension>
        </extensions>
      </trkpt>
      <trkpt lat="45.32611562870442867279052734375" lon="-70.8082119561731815338134765625">
        <ele>824</ele>
        <time>2026-08-21T12:19:31.000Z</time>
        <extensions>
          <ns3:TrackPointExtension>
            <ns3:hr>124</ns3:hr>
            <ns3:cad>48</ns3:cad>
          </ns3:TrackPointExtension>
        </extensions>
      </trkpt>
      <trkpt lat="45.3261038102209568023681640625" lon="-70.8082179911434650421142578125">
        <ele>823.79998779296875</ele>
        <time>2026-08-21T12:19:32.000Z</time>
        <extensions>
          <ns3:TrackPointExtension>
            <ns3:hr>124</ns3:hr>
            <ns3:cad>48</ns3:cad>
          </ns3:TrackPointExtension>
        </extensions>
      </trkpt>
      <trkpt lat="45.3260920755565166473388671875" lon="-70.80822863616049289703369140625">
        <ele>823.4000244140625</ele>
        <time>2026-08-21T12:19:33.000Z</time>
        <extensions>
          <ns3:TrackPointExtension>
            <ns3:hr>124</ns3:hr>
            <ns3:cad>49</ns3:cad>
          </ns3:TrackPointExtension>
        </extensions>
      </trkpt>
      <trkpt lat="45.3260823525488376617431640625" lon="-70.80823936499655246734619140625">
        <ele>823</ele>
        <time>2026-08-21T12:19:34.000Z</time>
        <extensions>
          <ns3:TrackPointExtension>
            <ns3:hr>124</ns3:hr>
            <ns3:cad>49</ns3:cad>
          </ns3:TrackPointExtension>
        </extensions>
      </trkpt>
      <trkpt lat="45.3260706178843975067138671875" lon="-70.80824959091842174530029296875">
        <ele>822.5999755859375</ele>
        <time>2026-08-21T12:19:35.000Z</time>
        <extensions>
          <ns3:TrackPointExtension>
            <ns3:hr>124</ns3:hr>
            <ns3:cad>0</ns3:cad>
          </ns3:TrackPointExtension>
        </extensions>
      </trkpt>
      <trkpt lat="45.32606382854282855987548828125" lon="-70.808260403573513031005859375">
        <ele>822.20001220703125</ele>
        <time>2026-08-21T12:19:36.000Z</time>
        <extensions>
          <ns3:TrackPointExtension>
            <ns3:hr>125</ns3:hr>
            <ns3:cad>0</ns3:cad>
          </ns3:TrackPointExtension>
        </extensions>
      </trkpt>
      <trkpt lat="45.32605594955384731292724609375" lon="-70.8082781732082366943359375">
        <ele>821.79998779296875</ele>
        <time>2026-08-21T12:19:37.000Z</time>
        <extensions>
          <ns3:TrackPointExtension>
            <ns3:hr>124</ns3:hr>
            <ns3:cad>79</ns3:cad>
          </ns3:TrackPointExtension>
        </extensions>
      </trkpt>
      <trkpt lat="45.32604605890810489654541015625" lon="-70.8082944341003894805908203125">
        <ele>821.4000244140625</ele>
        <time>2026-08-21T12:19:38.000Z</time>
        <extensions>
          <ns3:TrackPointExtension>
            <ns3:hr>124</ns3:hr>
            <ns3:cad>79</ns3:cad>
          </ns3:TrackPointExtension>
        </extensions>
      </trkpt>
      <trkpt lat="45.326033569872379302978515625" lon="-70.808306671679019927978515625">
        <ele>821</ele>
        <time>2026-08-21T12:19:39.000Z</time>
        <extensions>
          <ns3:TrackPointExtension>
            <ns3:hr>124</ns3:hr>
            <ns3:cad>60</ns3:cad>
          </ns3:TrackPointExtension>
        </extensions>
      </trkpt>
      <trkpt lat="45.3260240145027637481689453125" lon="-70.8083212561905384063720703125">
        <ele>820.5999755859375</ele>
        <time>2026-08-21T12:19:40.000Z</time>
        <extensions>
          <ns3:TrackPointExtension>
            <ns3:hr>124</ns3:hr>
            <ns3:cad>60</ns3:cad>
          </ns3:TrackPointExtension>
        </extensions>
      </trkpt>
      <trkpt lat="45.32601454295217990875244140625" lon="-70.8083306439220905303955078125">
        <ele>820.20001220703125</ele>
        <time>2026-08-21T12:19:41.000Z</time>
        <extensions>
          <ns3:TrackPointExtension>
            <ns3:hr>124</ns3:hr>
            <ns3:cad>60</ns3:cad>
          </ns3:TrackPointExtension>
        </extensions>
      </trkpt>
      <trkpt lat="45.326003395020961761474609375" lon="-70.80833743326365947723388671875">
        <ele>820</ele>
        <time>2026-08-21T12:19:42.000Z</time>
        <extensions>
          <ns3:TrackPointExtension>
            <ns3:hr>124</ns3:hr>
            <ns3:cad>60</ns3:cad>
          </ns3:TrackPointExtension>
        </extensions>
      </trkpt>
      <trkpt lat="45.32599492929875850677490234375" lon="-70.80834447406232357025146484375">
        <ele>819.79998779296875</ele>
        <time>2026-08-21T12:19:43.000Z</time>
        <extensions>
          <ns3:TrackPointExtension>
            <ns3:hr>124</ns3:hr>
            <ns3:cad>60</ns3:cad>
          </ns3:TrackPointExtension>
        </extensions>
      </trkpt>
      <trkpt lat="45.32598696649074554443359375" lon="-70.8083507604897022247314453125">
        <ele>819.5999755859375</ele>
        <time>2026-08-21T12:19:44.000Z</time>
        <extensions>
          <ns3:TrackPointExtension>
            <ns3:hr>124</ns3:hr>
            <ns3:cad>60</ns3:cad>
          </ns3:TrackPointExtension>
        </extensions>
      </trkpt>
      <trkpt lat="45.3259780816733837127685546875" lon="-70.80835956148803234100341796875">
        <ele>819.4000244140625</ele>
        <time>2026-08-21T12:19:45.000Z</time>
        <extensions>
          <ns3:TrackPointExtension>
            <ns3:hr>124</ns3:hr>
            <ns3:cad>60</ns3:cad>
          </ns3:TrackPointExtension>
        </extensions>
      </trkpt>
      <trkpt lat="45.3259693644940853118896484375" lon="-70.80836601555347442626953125">
        <ele>819</ele>
        <time>2026-08-21T12:19:46.000Z</time>
        <extensions>
          <ns3:TrackPointExtension>
            <ns3:hr>124</ns3:hr>
            <ns3:cad>60</ns3:cad>
          </ns3:TrackPointExtension>
        </extensions>
      </trkpt>
      <trkpt lat="45.325959809124469757080078125" lon="-70.80837297253310680389404296875">
        <ele>818.79998779296875</ele>
        <time>2026-08-21T12:19:47.000Z</time>
        <extensions>
          <ns3:TrackPointExtension>
            <ns3:hr>124</ns3:hr>
            <ns3:cad>60</ns3:cad>
          </ns3:TrackPointExtension>
        </extensions>
      </trkpt>
      <trkpt lat="45.32594983465969562530517578125" lon="-70.80837674438953399658203125">
        <ele>818.5999755859375</ele>
        <time>2026-08-21T12:19:48.000Z</time>
        <extensions>
          <ns3:TrackPointExtension>
            <ns3:hr>124</ns3:hr>
            <ns3:cad>60</ns3:cad>
          </ns3:TrackPointExtension>
        </extensions>
      </trkpt>
      <trkpt lat="45.32594111748039722442626953125" lon="-70.8083862997591495513916015625">
        <ele>818.20001220703125</ele>
        <time>2026-08-21T12:19:49.000Z</time>
        <extensions>
          <ns3:TrackPointExtension>
            <ns3:hr>124</ns3:hr>
            <ns3:cad>60</ns3:cad>
          </ns3:TrackPointExtension>
        </extensions>
      </trkpt>
      <trkpt lat="45.32593667507171630859375" lon="-70.80839728005230426788330078125">
        <ele>818</ele>
        <time>2026-08-21T12:19:50.000Z</time>
        <extensions>
          <ns3:TrackPointExtension>
            <ns3:hr>123</ns3:hr>
            <ns3:cad>60</ns3:cad>
          </ns3:TrackPointExtension>
        </extensions>
      </trkpt>
      <trkpt lat="45.3259277902543544769287109375" lon="-70.80840616486966609954833984375">
        <ele>817.5999755859375</ele>
        <time>2026-08-21T12:19:51.000Z</time>
        <extensions>
          <ns3:TrackPointExtension>
            <ns3:hr>123</ns3:hr>
            <ns3:cad>60</ns3:cad>
          </ns3:TrackPointExtension>
        </extensions>
      </trkpt>
      <trkpt lat="45.3259204141795635223388671875" lon="-70.80841605551540851593017578125">
        <ele>817.4000244140625</ele>
        <time>2026-08-21T12:19:52.000Z</time>
        <extensions>
          <ns3:TrackPointExtension>
            <ns3:hr>123</ns3:hr>
            <ns3:cad>60</ns3:cad>
          </ns3:TrackPointExtension>
        </extensions>
      </trkpt>
      <trkpt lat="45.32590926624834537506103515625" lon="-70.80842879600822925567626953125">
        <ele>817</ele>
        <time>2026-08-21T12:19:53.000Z</time>
        <extensions>
          <ns3:TrackPointExtension>
            <ns3:hr>123</ns3:hr>
            <ns3:cad>60</ns3:cad>
          </ns3:TrackPointExtension>
        </extensions>
      </trkpt>
      <trkpt lat="45.3259031474590301513671875" lon="-70.8084372617304325103759765625">
        <ele>817</ele>
        <time>2026-08-21T12:19:54.000Z</time>
        <extensions>
          <ns3:TrackPointExtension>
            <ns3:hr>123</ns3:hr>
            <ns3:cad>0</ns3:cad>
          </ns3:TrackPointExtension>
        </extensions>
      </trkpt>
      <trkpt lat="45.32589702866971492767333984375" lon="-70.80844589509069919586181640625">
        <ele>816.79998779296875</ele>
        <time>2026-08-21T12:19:55.000Z</time>
        <extensions>
          <ns3:TrackPointExtension>
            <ns3:hr>123</ns3:hr>
            <ns3:cad>0</ns3:cad>
          </ns3:TrackPointExtension>
        </extensions>
      </trkpt>
      <trkpt lat="45.3258878923952579498291015625" lon="-70.80845444463193416595458984375">
        <ele>816.79998779296875</ele>
        <time>2026-08-21T12:19:56.000Z</time>
        <extensions>
          <ns3:TrackPointExtension>
            <ns3:hr>124</ns3:hr>
            <ns3:cad>0</ns3:cad>
          </ns3:TrackPointExtension>
        </extensions>
      </trkpt>
      <trkpt lat="45.32587691210210323333740234375" lon="-70.80846517346799373626708984375">
        <ele>816.5999755859375</ele>
        <time>2026-08-21T12:19:57.000Z</time>
        <extensions>
          <ns3:TrackPointExtension>
            <ns3:hr>124</ns3:hr>
            <ns3:cad>0</ns3:cad>
          </ns3:TrackPointExtension>
        </extensions>
      </trkpt>
      <trkpt lat="45.325867943465709686279296875" lon="-70.808475650846958160400390625">
        <ele>816.5999755859375</ele>
        <time>2026-08-21T12:19:58.000Z</time>
        <extensions>
          <ns3:TrackPointExtension>
            <ns3:hr>124</ns3:hr>
            <ns3:cad>0</ns3:cad>
          </ns3:TrackPointExtension>
        </extensions>
      </trkpt>
      <trkpt lat="45.32586115412414073944091796875" lon="-70.8084855414927005767822265625">
        <ele>816.5999755859375</ele>
        <time>2026-08-21T12:19:59.000Z</time>
        <extensions>
          <ns3:TrackPointExtension>
            <ns3:hr>124</ns3:hr>
            <ns3:cad>0</ns3:cad>
          </ns3:TrackPointExtension>
        </extensions>
      </trkpt>
      <trkpt lat="45.32585746608674526214599609375" lon="-70.80849534831941127777099609375">
        <ele>816.4000244140625</ele>
        <time>2026-08-21T12:20:00.000Z</time>
        <extensions>
          <ns3:TrackPointExtension>
            <ns3:hr>124</ns3:hr>
            <ns3:cad>0</ns3:cad>
          </ns3:TrackPointExtension>
        </extensions>
      </trkpt>
      <trkpt lat="45.3258540295064449310302734375" lon="-70.80850146710872650146484375">
        <ele>816.4000244140625</ele>
        <time>2026-08-21T12:20:01.000Z</time>
        <extensions>
          <ns3:TrackPointExtension>
            <ns3:hr>124</ns3:hr>
            <ns3:cad>0</ns3:cad>
          </ns3:TrackPointExtension>
        </extensions>
      </trkpt>
      <trkpt lat="45.32585361041128635406494140625" lon="-70.8085093460977077484130859375">
        <ele>816.4000244140625</ele>
        <time>2026-08-21T12:20:02.000Z</time>
        <extensions>
          <ns3:TrackPointExtension>
            <ns3:hr>123</ns3:hr>
            <ns3:cad>0</ns3:cad>
          </ns3:TrackPointExtension>
        </extensions>
      </trkpt>
      <trkpt lat="45.32585394568741321563720703125" lon="-70.80851211212575435638427734375">
        <ele>816.4000244140625</ele>
        <time>2026-08-21T12:20:03.000Z</time>
        <extensions>
          <ns3:TrackPointExtension>
            <ns3:hr>123</ns3:hr>
            <ns3:cad>0</ns3:cad>
          </ns3:TrackPointExtension>
        </extensions>
      </trkpt>
      <trkpt lat="45.32585176639258861541748046875" lon="-70.80851479433476924896240234375">
        <ele>816.4000244140625</ele>
        <time>2026-08-21T12:20:04.000Z</time>
        <extensions>
          <ns3:TrackPointExtension>
            <ns3:hr>123</ns3:hr>
            <ns3:cad>0</ns3:cad>
          </ns3:TrackPointExtension>
        </extensions>
      </trkpt>
      <trkpt lat="45.32584975473582744598388671875" lon="-70.80852158367633819580078125">
        <ele>816.5999755859375</ele>
        <time>2026-08-21T12:20:05.000Z</time>
        <extensions>
          <ns3:TrackPointExtension>
            <ns3:hr>122</ns3:hr>
            <ns3:cad>0</ns3:cad>
          </ns3:TrackPointExtension>
        </extensions>
      </trkpt>
      <trkpt lat="45.32584925182163715362548828125" lon="-70.80852954648435115814208984375">
        <ele>816.5999755859375</ele>
        <time>2026-08-21T12:20:06.000Z</time>
        <extensions>
          <ns3:TrackPointExtension>
            <ns3:hr>122</ns3:hr>
            <ns3:cad>0</ns3:cad>
          </ns3:TrackPointExtension>
        </extensions>
      </trkpt>
      <trkpt lat="45.32584774307906627655029296875" lon="-70.80854178406298160552978515625">
        <ele>816.5999755859375</ele>
        <time>2026-08-21T12:20:07.000Z</time>
        <extensions>
          <ns3:TrackPointExtension>
            <ns3:hr>120</ns3:hr>
            <ns3:cad>0</ns3:cad>
          </ns3:TrackPointExtension>
        </extensions>
      </trkpt>
      <trkpt lat="45.3258503414690494537353515625" lon="-70.808550417423248291015625">
        <ele>816.5999755859375</ele>
        <time>2026-08-21T12:20:08.000Z</time>
        <extensions>
          <ns3:TrackPointExtension>
            <ns3:hr>120</ns3:hr>
            <ns3:cad>0</ns3:cad>
          </ns3:TrackPointExtension>
        </extensions>
      </trkpt>
      <trkpt lat="45.32584941945970058441162109375" lon="-70.8085582964122295379638671875">
        <ele>816.5999755859375</ele>
        <time>2026-08-21T12:20:09.000Z</time>
        <extensions>
          <ns3:TrackPointExtension>
            <ns3:hr>119</ns3:hr>
            <ns3:cad>0</ns3:cad>
          </ns3:TrackPointExtension>
        </extensions>
      </trkpt>
      <trkpt lat="45.3258453123271465301513671875" lon="-70.8085683546960353851318359375">
        <ele>816.5999755859375</ele>
        <time>2026-08-21T12:20:10.000Z</time>
        <extensions>
          <ns3:TrackPointExtension>
            <ns3:hr>120</ns3:hr>
            <ns3:cad>0</ns3:cad>
          </ns3:TrackPointExtension>
        </extensions>
      </trkpt>
      <trkpt lat="45.3258446417748928070068359375" lon="-70.80856810323894023895263671875">
        <ele>816.5999755859375</ele>
        <time>2026-08-21T12:20:11.000Z</time>
        <extensions>
          <ns3:TrackPointExtension>
            <ns3:hr>120</ns3:hr>
            <ns3:cad>0</ns3:cad>
          </ns3:TrackPointExtension>
        </extensions>
      </trkpt>
      <trkpt lat="45.3258446417748928070068359375" lon="-70.80856810323894023895263671875">
        <ele>816.5999755859375</ele>
        <time>2026-08-21T12:20:12.000Z</time>
        <extensions>
          <ns3:TrackPointExtension>
            <ns3:hr>120</ns3:hr>
            <ns3:cad>0</ns3:cad>
          </ns3:TrackPointExtension>
        </extensions>
      </trkpt>
      <trkpt lat="45.32584472559392452239990234375" lon="-70.80856877379119396209716796875">
        <ele>816.5999755859375</ele>
        <time>2026-08-21T12:20:13.000Z</time>
        <extensions>
          <ns3:TrackPointExtension>
            <ns3:hr>120</ns3:hr>
            <ns3:cad>0</ns3:cad>
          </ns3:TrackPointExtension>
        </extensions>
      </trkpt>
      <trkpt lat="45.32584338448941707611083984375" lon="-70.80857330001890659332275390625">
        <ele>816.4000244140625</ele>
        <time>2026-08-21T12:20:14.000Z</time>
        <extensions>
          <ns3:TrackPointExtension>
            <ns3:hr>120</ns3:hr>
            <ns3:cad>0</ns3:cad>
          </ns3:TrackPointExtension>
        </extensions>
      </trkpt>
      <trkpt lat="45.32584388740360736846923828125" lon="-70.80857698805630207061767578125">
        <ele>816.4000244140625</ele>
        <time>2026-08-21T12:20:15.000Z</time>
        <extensions>
          <ns3:TrackPointExtension>
            <ns3:hr>120</ns3:hr>
            <ns3:cad>0</ns3:cad>
          </ns3:TrackPointExtension>
        </extensions>
      </trkpt>
      <trkpt lat="45.32584170810878276824951171875" lon="-70.80858084373176097869873046875">
        <ele>816.4000244140625</ele>
        <time>2026-08-21T12:20:16.000Z</time>
        <extensions>
          <ns3:TrackPointExtension>
            <ns3:hr>120</ns3:hr>
            <ns3:cad>0</ns3:cad>
          </ns3:TrackPointExtension>
        </extensions>
      </trkpt>
      <trkpt lat="45.32583986409008502960205078125" lon="-70.8085831068456172943115234375">
        <ele>816.4000244140625</ele>
        <time>2026-08-21T12:20:17.000Z</time>
        <extensions>
          <ns3:TrackPointExtension>
            <ns3:hr>121</ns3:hr>
            <ns3:cad>0</ns3:cad>
          </ns3:TrackPointExtension>
        </extensions>
      </trkpt>
      <trkpt lat="45.3258382715284824371337890625" lon="-70.80858419649302959442138671875">
        <ele>816.20001220703125</ele>
        <time>2026-08-21T12:20:18.000Z</time>
        <extensions>
          <ns3:TrackPointExtension>
            <ns3:hr>121</ns3:hr>
            <ns3:cad>0</ns3:cad>
          </ns3:TrackPointExtension>
        </extensions>
      </trkpt>
      <trkpt lat="45.325832404196262359619140625" lon="-70.8085839450359344482421875">
        <ele>816.4000244140625</ele>
        <time>2026-08-21T12:20:19.000Z</time>
        <extensions>
          <ns3:TrackPointExtension>
            <ns3:hr>121</ns3:hr>
            <ns3:cad>0</ns3:cad>
          </ns3:TrackPointExtension>
        </extensions>
      </trkpt>
      <trkpt lat="45.32582603394985198974609375" lon="-70.8085834421217441558837890625">
        <ele>816.4000244140625</ele>
        <time>2026-08-21T12:20:20.000Z</time>
        <extensions>
          <ns3:TrackPointExtension>
            <ns3:hr>122</ns3:hr>
            <ns3:cad>0</ns3:cad>
          </ns3:TrackPointExtension>
        </extensions>
      </trkpt>
      <trkpt lat="45.325824357569217681884765625" lon="-70.80857866443693637847900390625">
        <ele>816.4000244140625</ele>
        <time>2026-08-21T12:20:21.000Z</time>
        <extensions>
          <ns3:TrackPointExtension>
            <ns3:hr>122</ns3:hr>
            <ns3:cad>0</ns3:cad>
          </ns3:TrackPointExtension>
        </extensions>
      </trkpt>
      <trkpt lat="45.325824357569217681884765625" lon="-70.80857866443693637847900390625">
        <ele>816.4000244140625</ele>
        <time>2026-08-21T12:20:22.000Z</time>
        <extensions>
          <ns3:TrackPointExtension>
            <ns3:hr>122</ns3:hr>
            <ns3:cad>0</ns3:cad>
          </ns3:TrackPointExtension>
        </extensions>
      </trkpt>
      <trkpt lat="45.325824357569217681884765625" lon="-70.80857866443693637847900390625">
        <ele>816.4000244140625</ele>
        <time>2026-08-21T12:20:23.000Z</time>
        <extensions>
          <ns3:TrackPointExtension>
            <ns3:hr>122</ns3:hr>
            <ns3:cad>0</ns3:cad>
          </ns3:TrackPointExtension>
        </extensions>
      </trkpt>
      <trkpt lat="45.325824357569217681884765625" lon="-70.80857866443693637847900390625">
        <ele>816.4000244140625</ele>
        <time>2026-08-21T12:20:24.000Z</time>
        <extensions>
          <ns3:TrackPointExtension>
            <ns3:hr>121</ns3:hr>
            <ns3:cad>0</ns3:cad>
          </ns3:TrackPointExtension>
        </extensions>
      </trkpt>
      <trkpt lat="45.325824357569217681884765625" lon="-70.80857866443693637847900390625">
        <ele>816.4000244140625</ele>
        <time>2026-08-21T12:20:25.000Z</time>
        <extensions>
          <ns3:TrackPointExtension>
            <ns3:hr>121</ns3:hr>
            <ns3:cad>0</ns3:cad>
          </ns3:TrackPointExtension>
        </extensions>
      </trkpt>
      <trkpt lat="45.325824357569217681884765625" lon="-70.80857866443693637847900390625">
        <ele>816.4000244140625</ele>
        <time>2026-08-21T12:20:26.000Z</time>
        <extensions>
          <ns3:TrackPointExtension>
            <ns3:hr>121</ns3:hr>
            <ns3:cad>0</ns3:cad>
          </ns3:TrackPointExtension>
        </extensions>
      </trkpt>
      <trkpt lat="45.325824357569217681884765625" lon="-70.80857866443693637847900390625">
        <ele>816.4000244140625</ele>
        <time>2026-08-21T12:20:27.000Z</time>
        <extensions>
          <ns3:TrackPointExtension>
            <ns3:hr>121</ns3:hr>
            <ns3:cad>0</ns3:cad>
          </ns3:TrackPointExtension>
        </extensions>
      </trkpt>
      <trkpt lat="45.325824357569217681884765625" lon="-70.80857866443693637847900390625">
        <ele>816.4000244140625</ele>
        <time>2026-08-21T12:20:28.000Z</time>
        <extensions>
          <ns3:TrackPointExtension>
            <ns3:hr>121</ns3:hr>
            <ns3:cad>0</ns3:cad>
          </ns3:TrackPointExtension>
        </extensions>
      </trkpt>
      <trkpt lat="45.325824357569217681884765625" lon="-70.80857866443693637847900390625">
        <ele>816.4000244140625</ele>
        <time>2026-08-21T12:20:29.000Z</time>
        <extensions>
          <ns3:TrackPointExtension>
            <ns3:hr>121</ns3:hr>
            <ns3:cad>0</ns3:cad>
          </ns3:TrackPointExtension>
        </extensions>
      </trkpt>
      <trkpt lat="45.325824357569217681884765625" lon="-70.80857866443693637847900390625">
        <ele>816.4000244140625</ele>
        <time>2026-08-21T12:20:30.000Z</time>
        <extensions>
          <ns3:TrackPointExtension>
            <ns3:hr>120</ns3:hr>
            <ns3:cad>0</ns3:cad>
          </ns3:TrackPointExtension>
        </extensions>
      </trkpt>
      <trkpt lat="45.325824357569217681884765625" lon="-70.80857866443693637847900390625">
        <ele>816.4000244140625</ele>
        <time>2026-08-21T12:20:31.000Z</time>
        <extensions>
          <ns3:TrackPointExtension>
            <ns3:hr>120</ns3:hr>
            <ns3:cad>0</ns3:cad>
          </ns3:TrackPointExtension>
        </extensions>
      </trkpt>
      <trkpt lat="45.32581740058958530426025390625" lon="-70.8085673488676548004150390625">
        <ele>816.4000244140625</ele>
        <time>2026-08-21T12:20:32.000Z</time>
        <extensions>
          <ns3:TrackPointExtension>
            <ns3:hr>121</ns3:hr>
            <ns3:cad>0</ns3:cad>
          </ns3:TrackPointExtension>
        </extensions>
      </trkpt>
      <trkpt lat="45.325814299285411834716796875" lon="-70.80856625922024250030517578125">
        <ele>816.4000244140625</ele>
        <time>2026-08-21T12:20:33.000Z</time>
        <extensions>
          <ns3:TrackPointExtension>
            <ns3:hr>122</ns3:hr>
            <ns3:cad>0</ns3:cad>
          </ns3:TrackPointExtension>
        </extensions>
      </trkpt>
      <trkpt lat="45.32581337727606296539306640625" lon="-70.8085656724870204925537109375">
        <ele>816.4000244140625</ele>
        <time>2026-08-21T12:20:34.000Z</time>
        <extensions>
          <ns3:TrackPointExtension>
            <ns3:hr>122</ns3:hr>
            <ns3:cad>0</ns3:cad>
          </ns3:TrackPointExtension>
        </extensions>
      </trkpt>
      <trkpt lat="45.3258134610950946807861328125" lon="-70.80856257118284702301025390625">
        <ele>816.4000244140625</ele>
        <time>2026-08-21T12:20:35.000Z</time>
        <extensions>
          <ns3:TrackPointExtension>
            <ns3:hr>121</ns3:hr>
            <ns3:cad>0</ns3:cad>
          </ns3:TrackPointExtension>
        </extensions>
      </trkpt>
      <trkpt lat="45.3258124552667140960693359375" lon="-70.808562822639942169189453125">
        <ele>816.4000244140625</ele>
        <time>2026-08-21T12:20:36.000Z</time>
        <extensions>
          <ns3:TrackPointExtension>
            <ns3:hr>121</ns3:hr>
            <ns3:cad>0</ns3:cad>
          </ns3:TrackPointExtension>
        </extensions>
      </trkpt>
      <trkpt lat="45.3258087672293186187744140625" lon="-70.80856324173510074615478515625">
        <ele>816.4000244140625</ele>
        <time>2026-08-21T12:20:37.000Z</time>
        <extensions>
          <ns3:TrackPointExtension>
            <ns3:hr>120</ns3:hr>
            <ns3:cad>0</ns3:cad>
          </ns3:TrackPointExtension>
        </extensions>
      </trkpt>
      <trkpt lat="45.325805582106113433837890625" lon="-70.80856257118284702301025390625">
        <ele>816.4000244140625</ele>
        <time>2026-08-21T12:20:38.000Z</time>
        <extensions>
          <ns3:TrackPointExtension>
            <ns3:hr>120</ns3:hr>
            <ns3:cad>0</ns3:cad>
          </ns3:TrackPointExtension>
        </extensions>
      </trkpt>
      <trkpt lat="45.32579694874584674835205078125" lon="-70.80856793560087680816650390625">
        <ele>816.4000244140625</ele>
        <time>2026-08-21T12:20:39.000Z</time>
        <extensions>
          <ns3:TrackPointExtension>
            <ns3:hr>120</ns3:hr>
            <ns3:cad>0</ns3:cad>
          </ns3:TrackPointExtension>
        </extensions>
      </trkpt>
      <trkpt lat="45.325792171061038970947265625" lon="-70.8085690252482891082763671875">
        <ele>816.4000244140625</ele>
        <time>2026-08-21T12:20:40.000Z</time>
        <extensions>
          <ns3:TrackPointExtension>
            <ns3:hr>119</ns3:hr>
            <ns3:cad>0</ns3:cad>
          </ns3:TrackPointExtension>
        </extensions>
      </trkpt>
      <trkpt lat="45.32578588463366031646728515625" lon="-70.808568857610225677490234375">
        <ele>816.4000244140625</ele>
        <time>2026-08-21T12:20:41.000Z</time>
        <extensions>
          <ns3:TrackPointExtension>
            <ns3:hr>119</ns3:hr>
            <ns3:cad>0</ns3:cad>
          </ns3:TrackPointExtension>
        </extensions>
      </trkpt>
      <trkpt lat="45.3257896564900875091552734375" lon="-70.80856718122959136962890625">
        <ele>816.4000244140625</ele>
        <time>2026-08-21T12:20:42.000Z</time>
        <extensions>
          <ns3:TrackPointExtension>
            <ns3:hr>119</ns3:hr>
            <ns3:cad>0</ns3:cad>
          </ns3:TrackPointExtension>
        </extensions>
      </trkpt>
      <trkpt lat="45.3257904946804046630859375" lon="-70.80856676213443279266357421875">
        <ele>816.4000244140625</ele>
        <time>2026-08-21T12:20:43.000Z</time>
        <extensions>
          <ns3:TrackPointExtension>
            <ns3:hr>118</ns3:hr>
            <ns3:cad>0</ns3:cad>
          </ns3:TrackPointExtension>
        </extensions>
      </trkpt>
      <trkpt lat="45.3257909975945949554443359375" lon="-70.80856508575379848480224609375">
        <ele>816.4000244140625</ele>
        <time>2026-08-21T12:20:44.000Z</time>
        <extensions>
          <ns3:TrackPointExtension>
            <ns3:hr>117</ns3:hr>
            <ns3:cad>0</ns3:cad>
          </ns3:TrackPointExtension>
        </extensions>
      </trkpt>
      <trkpt lat="45.32578772865235805511474609375" lon="-70.8085633255541324615478515625">
        <ele>816.4000244140625</ele>
        <time>2026-08-21T12:20:45.000Z</time>
        <extensions>
          <ns3:TrackPointExtension>
            <ns3:hr>117</ns3:hr>
            <ns3:cad>0</ns3:cad>
          </ns3:TrackPointExtension>
        </extensions>
      </trkpt>
      <trkpt lat="45.325784124433994293212890625" lon="-70.8085609786212444305419921875">
        <ele>816.4000244140625</ele>
        <time>2026-08-21T12:20:46.000Z</time>
        <extensions>
          <ns3:TrackPointExtension>
            <ns3:hr>117</ns3:hr>
            <ns3:cad>0</ns3:cad>
          </ns3:TrackPointExtension>
        </extensions>
      </trkpt>
      <trkpt lat="45.3257839567959308624267578125" lon="-70.808560810983180999755859375">
        <ele>816.4000244140625</ele>
        <time>2026-08-21T12:20:47.000Z</time>
        <extensions>
          <ns3:TrackPointExtension>
            <ns3:hr>117</ns3:hr>
            <ns3:cad>0</ns3:cad>
          </ns3:TrackPointExtension>
        </extensions>
      </trkpt>
      <trkpt lat="45.3257839567959308624267578125" lon="-70.808560810983180999755859375">
        <ele>816.4000244140625</ele>
        <time>2026-08-21T12:20:48.000Z</time>
        <extensions>
          <ns3:TrackPointExtension>
            <ns3:hr>114</ns3:hr>
            <ns3:cad>0</ns3:cad>
          </ns3:TrackPointExtension>
        </extensions>
      </trkpt>
      <trkpt lat="45.3257839567959308624267578125" lon="-70.808560810983180999755859375">
        <ele>816.20001220703125</ele>
        <time>2026-08-21T12:20:49.000Z</time>
        <extensions>
          <ns3:TrackPointExtension>
            <ns3:hr>113</ns3:hr>
            <ns3:cad>0</ns3:cad>
          </ns3:TrackPointExtension>
        </extensions>
      </trkpt>
      <trkpt lat="45.32578337006270885467529296875" lon="-70.8085606433451175689697265625">
        <ele>816.20001220703125</ele>
        <time>2026-08-21T12:20:50.000Z</time>
        <extensions>
          <ns3:TrackPointExtension>
            <ns3:hr>114</ns3:hr>
            <ns3:cad>0</ns3:cad>
          </ns3:TrackPointExtension>
        </extensions>
      </trkpt>
      <trkpt lat="45.3257752396166324615478515625" lon="-70.8085633255541324615478515625">
        <ele>816.20001220703125</ele>
        <time>2026-08-21T12:20:51.000Z</time>
        <extensions>
          <ns3:TrackPointExtension>
            <ns3:hr>116</ns3:hr>
            <ns3:cad>0</ns3:cad>
          </ns3:TrackPointExtension>
        </extensions>
      </trkpt>
      <trkpt lat="45.32576761208474636077880859375" lon="-70.8085686899721622467041015625">
        <ele>816.20001220703125</ele>
        <time>2026-08-21T12:20:52.000Z</time>
        <extensions>
          <ns3:TrackPointExtension>
            <ns3:hr>114</ns3:hr>
            <ns3:cad>0</ns3:cad>
          </ns3:TrackPointExtension>
        </extensions>
      </trkpt>
      <trkpt lat="45.32576258294284343719482421875" lon="-70.80856625922024250030517578125">
        <ele>816.20001220703125</ele>
        <time>2026-08-21T12:20:53.000Z</time>
        <extensions>
          <ns3:TrackPointExtension>
            <ns3:hr>115</ns3:hr>
            <ns3:cad>0</ns3:cad>
          </ns3:TrackPointExtension>
        </extensions>
      </trkpt>
      <trkpt lat="45.32575537450611591339111328125" lon="-70.80856240354478359222412109375">
        <ele>816</ele>
        <time>2026-08-21T12:20:54.000Z</time>
        <extensions>
          <ns3:TrackPointExtension>
            <ns3:hr>116</ns3:hr>
            <ns3:cad>0</ns3:cad>
          </ns3:TrackPointExtension>
        </extensions>
      </trkpt>
      <trkpt lat="45.32575084827840328216552734375" lon="-70.80856055952608585357666015625">
        <ele>816</ele>
        <time>2026-08-21T12:20:55.000Z</time>
        <extensions>
          <ns3:TrackPointExtension>
            <ns3:hr>116</ns3:hr>
            <ns3:cad>0</ns3:cad>
          </ns3:TrackPointExtension>
        </extensions>
      </trkpt>
      <trkpt lat="45.3257447294890880584716796875" lon="-70.8085566200315952301025390625">
        <ele>816</ele>
        <time>2026-08-21T12:20:56.000Z</time>
        <extensions>
          <ns3:TrackPointExtension>
            <ns3:hr>116</ns3:hr>
            <ns3:cad>0</ns3:cad>
          </ns3:TrackPointExtension>
        </extensions>
      </trkpt>
      <trkpt lat="45.3257423825562000274658203125" lon="-70.80855536274611949920654296875">
        <ele>815.79998779296875</ele>
        <time>2026-08-21T12:20:57.000Z</time>
        <extensions>
          <ns3:TrackPointExtension>
            <ns3:hr>115</ns3:hr>
            <ns3:cad>0</ns3:cad>
          </ns3:TrackPointExtension>
        </extensions>
      </trkpt>
      <trkpt lat="45.3257403708994388580322265625" lon="-70.8085549436509609222412109375">
        <ele>815.79998779296875</ele>
        <time>2026-08-21T12:20:58.000Z</time>
        <extensions>
          <ns3:TrackPointExtension>
            <ns3:hr>115</ns3:hr>
            <ns3:cad>0</ns3:cad>
          </ns3:TrackPointExtension>
        </extensions>
      </trkpt>
      <trkpt lat="45.32573760487139225006103515625" lon="-70.8085552789270877838134765625">
        <ele>815.79998779296875</ele>
        <time>2026-08-21T12:20:59.000Z</time>
        <extensions>
          <ns3:TrackPointExtension>
            <ns3:hr>113</ns3:hr>
            <ns3:cad>0</ns3:cad>
          </ns3:TrackPointExtension>
        </extensions>
      </trkpt>
      <trkpt lat="45.3257360123097896575927734375" lon="-70.80855586566030979156494140625">
        <ele>815.79998779296875</ele>
        <time>2026-08-21T12:21:00.000Z</time>
        <extensions>
          <ns3:TrackPointExtension>
            <ns3:hr>112</ns3:hr>
            <ns3:cad>0</ns3:cad>
          </ns3:TrackPointExtension>
        </extensions>
      </trkpt>
      <trkpt lat="45.325737185776233673095703125" lon="-70.80855251289904117584228515625">
        <ele>815.79998779296875</ele>
        <time>2026-08-21T12:21:01.000Z</time>
        <extensions>
          <ns3:TrackPointExtension>
            <ns3:hr>111</ns3:hr>
            <ns3:cad>0</ns3:cad>
          </ns3:TrackPointExtension>
        </extensions>
      </trkpt>
      <trkpt lat="45.325737185776233673095703125" lon="-70.80855251289904117584228515625">
        <ele>815.79998779296875</ele>
        <time>2026-08-21T12:21:02.000Z</time>
        <extensions>
          <ns3:TrackPointExtension>
            <ns3:hr>109</ns3:hr>
            <ns3:cad>0</ns3:cad>
          </ns3:TrackPointExtension>
        </extensions>
      </trkpt>
      <trkpt lat="45.325737185776233673095703125" lon="-70.80855251289904117584228515625">
        <ele>815.79998779296875</ele>
        <time>2026-08-21T12:21:03.000Z</time>
        <extensions>
          <ns3:TrackPointExtension>
            <ns3:hr>110</ns3:hr>
            <ns3:cad>0</ns3:cad>
          </ns3:TrackPointExtension>
        </extensions>
      </trkpt>
      <trkpt lat="45.325737185776233673095703125" lon="-70.80855251289904117584228515625">
        <ele>815.79998779296875</ele>
        <time>2026-08-21T12:21:04.000Z</time>
        <extensions>
          <ns3:TrackPointExtension>
            <ns3:hr>110</ns3:hr>
            <ns3:cad>0</ns3:cad>
          </ns3:TrackPointExtension>
        </extensions>
      </trkpt>
      <trkpt lat="45.325737185776233673095703125" lon="-70.80855251289904117584228515625">
        <ele>816</ele>
        <time>2026-08-21T12:21:05.000Z</time>
        <extensions>
          <ns3:TrackPointExtension>
            <ns3:hr>110</ns3:hr>
            <ns3:cad>0</ns3:cad>
          </ns3:TrackPointExtension>
        </extensions>
      </trkpt>
      <trkpt lat="45.325737185776233673095703125" lon="-70.80855251289904117584228515625">
        <ele>816</ele>
        <time>2026-08-21T12:21:06.000Z</time>
        <extensions>
          <ns3:TrackPointExtension>
            <ns3:hr>110</ns3:hr>
            <ns3:cad>0</ns3:cad>
          </ns3:TrackPointExtension>
        </extensions>
      </trkpt>
      <trkpt lat="45.325737185776233673095703125" lon="-70.80855251289904117584228515625">
        <ele>816</ele>
        <time>2026-08-21T12:21:07.000Z</time>
        <extensions>
          <ns3:TrackPointExtension>
            <ns3:hr>110</ns3:hr>
            <ns3:cad>0</ns3:cad>
          </ns3:TrackPointExtension>
        </extensions>
      </trkpt>
      <trkpt lat="45.325737185776233673095703125" lon="-70.80855251289904117584228515625">
        <ele>816</ele>
        <time>2026-08-21T12:21:08.000Z</time>
        <extensions>
          <ns3:TrackPointExtension>
            <ns3:hr>110</ns3:hr>
            <ns3:cad>0</ns3:cad>
          </ns3:TrackPointExtension>
        </extensions>
      </trkpt>
      <trkpt lat="45.325737185776233673095703125" lon="-70.80855251289904117584228515625">
        <ele>816</ele>
        <time>2026-08-21T12:21:09.000Z</time>
        <extensions>
          <ns3:TrackPointExtension>
            <ns3:hr>110</ns3:hr>
            <ns3:cad>0</ns3:cad>
          </ns3:TrackPointExtension>
        </extensions>
      </trkpt>
      <trkpt lat="45.325737185776233673095703125" lon="-70.80855251289904117584228515625">
        <ele>816</ele>
        <time>2026-08-21T12:21:10.000Z</time>
        <extensions>
          <ns3:TrackPointExtension>
            <ns3:hr>110</ns3:hr>
            <ns3:cad>0</ns3:cad>
          </ns3:TrackPointExtension>
        </extensions>
      </trkpt>
      <trkpt lat="45.325737185776233673095703125" lon="-70.80855251289904117584228515625">
        <ele>816</ele>
        <time>2026-08-21T12:21:11.000Z</time>
        <extensions>
          <ns3:TrackPointExtension>
            <ns3:hr>109</ns3:hr>
            <ns3:cad>0</ns3:cad>
          </ns3:TrackPointExtension>
        </extensions>
      </trkpt>
      <trkpt lat="45.325737185776233673095703125" lon="-70.80855251289904117584228515625">
        <ele>816</ele>
        <time>2026-08-21T12:21:12.000Z</time>
        <extensions>
          <ns3:TrackPointExtension>
            <ns3:hr>109</ns3:hr>
            <ns3:cad>0</ns3:cad>
          </ns3:TrackPointExtension>
        </extensions>
      </trkpt>
      <trkpt lat="45.325737185776233673095703125" lon="-70.80855251289904117584228515625">
        <ele>816</ele>
        <time>2026-08-21T12:21:13.000Z</time>
        <extensions>
          <ns3:TrackPointExtension>
            <ns3:hr>108</ns3:hr>
            <ns3:cad>0</ns3:cad>
          </ns3:TrackPointExtension>
        </extensions>
      </trkpt>
      <trkpt lat="45.325740873813629150390625" lon="-70.80854698084294795989990234375">
        <ele>816</ele>
        <time>2026-08-21T12:21:14.000Z</time>
        <extensions>
          <ns3:TrackPointExtension>
            <ns3:hr>108</ns3:hr>
            <ns3:cad>0</ns3:cad>
          </ns3:TrackPointExtension>
        </extensions>
      </trkpt>
      <trkpt lat="45.3257386945188045501708984375" lon="-70.80854010768234729766845703125">
        <ele>816</ele>
        <time>2026-08-21T12:21:15.000Z</time>
        <extensions>
          <ns3:TrackPointExtension>
            <ns3:hr>108</ns3:hr>
            <ns3:cad>0</ns3:cad>
          </ns3:TrackPointExtension>
        </extensions>
      </trkpt>
      <trkpt lat="45.3257373534142971038818359375" lon="-70.80853273160755634307861328125">
        <ele>815.79998779296875</ele>
        <time>2026-08-21T12:21:16.000Z</time>
        <extensions>
          <ns3:TrackPointExtension>
            <ns3:hr>108</ns3:hr>
            <ns3:cad>0</ns3:cad>
          </ns3:TrackPointExtension>
        </extensions>
      </trkpt>
      <trkpt lat="45.32573207281529903411865234375" lon="-70.80852518789470195770263671875">
        <ele>815.79998779296875</ele>
        <time>2026-08-21T12:21:17.000Z</time>
        <extensions>
          <ns3:TrackPointExtension>
            <ns3:hr>108</ns3:hr>
            <ns3:cad>0</ns3:cad>
          </ns3:TrackPointExtension>
        </extensions>
      </trkpt>
      <trkpt lat="45.32572603784501552581787109375" lon="-70.80851261503994464874267578125">
        <ele>815.79998779296875</ele>
        <time>2026-08-21T12:21:18.000Z</time>
        <extensions>
          <ns3:TrackPointExtension>
            <ns3:hr>109</ns3:hr>
            <ns3:cad>0</ns3:cad>
          </ns3:TrackPointExtension>
        </extensions>
      </trkpt>
      <trkpt lat="45.3257192485034465789794921875" lon="-70.80850171856582164764404296875">
        <ele>815.5999755859375</ele>
        <time>2026-08-21T12:21:19.000Z</time>
        <extensions>
          <ns3:TrackPointExtension>
            <ns3:hr>110</ns3:hr>
            <ns3:cad>0</ns3:cad>
          </ns3:TrackPointExtension>
        </extensions>
      </trkpt>
      <trkpt lat="45.3257108666002750396728515625" lon="-70.80849166028201580047607421875">
        <ele>815.5999755859375</ele>
        <time>2026-08-21T12:21:20.000Z</time>
        <extensions>
          <ns3:TrackPointExtension>
            <ns3:hr>111</ns3:hr>
            <ns3:cad>57</ns3:cad>
          </ns3:TrackPointExtension>
        </extensions>
      </trkpt>
      <trkpt lat="45.32570659182965755462646484375" lon="-70.80848805606365203857421875">
        <ele>815.4000244140625</ele>
        <time>2026-08-21T12:21:21.000Z</time>
        <extensions>
          <ns3:TrackPointExtension>
            <ns3:hr>113</ns3:hr>
            <ns3:cad>57</ns3:cad>
          </ns3:TrackPointExtension>
        </extensions>
      </trkpt>
      <trkpt lat="45.32570541836321353912353515625" lon="-70.80847732722759246826171875">
        <ele>815.4000244140625</ele>
        <time>2026-08-21T12:21:22.000Z</time>
        <extensions>
          <ns3:TrackPointExtension>
            <ns3:hr>114</ns3:hr>
            <ns3:cad>57</ns3:cad>
          </ns3:TrackPointExtension>
        </extensions>
      </trkpt>
      <trkpt lat="45.3257075138390064239501953125" lon="-70.80846584402024745941162109375">
        <ele>815.20001220703125</ele>
        <time>2026-08-21T12:21:23.000Z</time>
        <extensions>
          <ns3:TrackPointExtension>
            <ns3:hr>114</ns3:hr>
            <ns3:cad>57</ns3:cad>
          </ns3:TrackPointExtension>
        </extensions>
      </trkpt>
      <trkpt lat="45.32570357434451580047607421875" lon="-70.80845586955547332763671875">
        <ele>815.20001220703125</ele>
        <time>2026-08-21T12:21:24.000Z</time>
        <extensions>
          <ns3:TrackPointExtension>
            <ns3:hr>114</ns3:hr>
            <ns3:cad>57</ns3:cad>
          </ns3:TrackPointExtension>
        </extensions>
      </trkpt>
      <trkpt lat="45.32570139504969120025634765625" lon="-70.808447487652301788330078125">
        <ele>815.20001220703125</ele>
        <time>2026-08-21T12:21:25.000Z</time>
        <extensions>
          <ns3:TrackPointExtension>
            <ns3:hr>113</ns3:hr>
            <ns3:cad>57</ns3:cad>
          </ns3:TrackPointExtension>
        </extensions>
      </trkpt>
      <trkpt lat="45.3257044963538646697998046875" lon="-70.80844706855714321136474609375">
        <ele>815.20001220703125</ele>
        <time>2026-08-21T12:21:26.000Z</time>
        <extensions>
          <ns3:TrackPointExtension>
            <ns3:hr>113</ns3:hr>
            <ns3:cad>57</ns3:cad>
          </ns3:TrackPointExtension>
        </extensions>
      </trkpt>
      <trkpt lat="45.3257046639919281005859375" lon="-70.80844623036682605743408203125">
        <ele>815.20001220703125</ele>
        <time>2026-08-21T12:21:27.000Z</time>
        <extensions>
          <ns3:TrackPointExtension>
            <ns3:hr>112</ns3:hr>
            <ns3:cad>0</ns3:cad>
          </ns3:TrackPointExtension>
        </extensions>
      </trkpt>
      <trkpt lat="45.325704328715801239013671875" lon="-70.808446146547794342041015625">
        <ele>815.20001220703125</ele>
        <time>2026-08-21T12:21:28.000Z</time>
        <extensions>
          <ns3:TrackPointExtension>
            <ns3:hr>112</ns3:hr>
            <ns3:cad>0</ns3:cad>
          </ns3:TrackPointExtension>
        </extensions>
      </trkpt>
      <trkpt lat="45.32570374198257923126220703125" lon="-70.80844656564295291900634765625">
        <ele>815.20001220703125</ele>
        <time>2026-08-21T12:21:29.000Z</time>
        <extensions>
          <ns3:TrackPointExtension>
            <ns3:hr>113</ns3:hr>
            <ns3:cad>0</ns3:cad>
          </ns3:TrackPointExtension>
        </extensions>
      </trkpt>
      <trkpt lat="45.32569904811680316925048828125" lon="-70.80844245851039886474609375">
        <ele>815.20001220703125</ele>
        <time>2026-08-21T12:21:30.000Z</time>
        <extensions>
          <ns3:TrackPointExtension>
            <ns3:hr>115</ns3:hr>
            <ns3:cad>0</ns3:cad>
          </ns3:TrackPointExtension>
        </extensions>
      </trkpt>
      <trkpt lat="45.32569552771747112274169921875" lon="-70.80843466334044933319091796875">
        <ele>815</ele>
        <time>2026-08-21T12:21:31.000Z</time>
        <extensions>
          <ns3:TrackPointExtension>
            <ns3:hr>116</ns3:hr>
            <ns3:cad>0</ns3:cad>
          </ns3:TrackPointExtension>
        </extensions>
      </trkpt>
      <trkpt lat="45.32568848691880702972412109375" lon="-70.80842108465731143951416015625">
        <ele>815</ele>
        <time>2026-08-21T12:21:32.000Z</time>
        <extensions>
          <ns3:TrackPointExtension>
            <ns3:hr>116</ns3:hr>
            <ns3:cad>0</ns3:cad>
          </ns3:TrackPointExtension>
        </extensions>
      </trkpt>
      <trkpt lat="45.32568429596722126007080078125" lon="-70.808409936726093292236328125">
        <ele>814.79998779296875</ele>
        <time>2026-08-21T12:21:33.000Z</time>
        <extensions>
          <ns3:TrackPointExtension>
            <ns3:hr>114</ns3:hr>
            <ns3:cad>0</ns3:cad>
          </ns3:TrackPointExtension>
        </extensions>
      </trkpt>
      <trkpt lat="45.32567742280662059783935546875" lon="-70.80838521011173725128173828125">
        <ele>814.79998779296875</ele>
        <time>2026-08-21T12:21:34.000Z</time>
        <extensions>
          <ns3:TrackPointExtension>
            <ns3:hr>112</ns3:hr>
            <ns3:cad>0</ns3:cad>
          </ns3:TrackPointExtension>
        </extensions>
      </trkpt>
      <trkpt lat="45.325674153864383697509765625" lon="-70.80835771746933460235595703125">
        <ele>814.79998779296875</ele>
        <time>2026-08-21T12:21:35.000Z</time>
        <extensions>
          <ns3:TrackPointExtension>
            <ns3:hr>111</ns3:hr>
            <ns3:cad>0</ns3:cad>
          </ns3:TrackPointExtension>
        </extensions>
      </trkpt>
      <trkpt lat="45.32566870562732219696044921875" lon="-70.808338858187198638916015625">
        <ele>814.79998779296875</ele>
        <time>2026-08-21T12:21:36.000Z</time>
        <extensions>
          <ns3:TrackPointExtension>
            <ns3:hr>109</ns3:hr>
            <ns3:cad>0</ns3:cad>
          </ns3:TrackPointExtension>
        </extensions>
      </trkpt>
      <trkpt lat="45.32566107809543609619140625" lon="-70.80831832252442836761474609375">
        <ele>814.79998779296875</ele>
        <time>2026-08-21T12:21:37.000Z</time>
        <extensions>
          <ns3:TrackPointExtension>
            <ns3:hr>108</ns3:hr>
            <ns3:cad>0</ns3:cad>
          </ns3:TrackPointExtension>
        </extensions>
      </trkpt>
      <trkpt lat="45.325656048953533172607421875" lon="-70.80830591730773448944091796875">
        <ele>814.79998779296875</ele>
        <time>2026-08-21T12:21:38.000Z</time>
        <extensions>
          <ns3:TrackPointExtension>
            <ns3:hr>109</ns3:hr>
            <ns3:cad>0</ns3:cad>
          </ns3:TrackPointExtension>
        </extensions>
      </trkpt>
      <trkpt lat="45.3256518580019474029541015625" lon="-70.80829627811908721923828125">
        <ele>815</ele>
        <time>2026-08-21T12:21:39.000Z</time>
        <extensions>
          <ns3:TrackPointExtension>
            <ns3:hr>109</ns3:hr>
            <ns3:cad>0</ns3:cad>
          </ns3:TrackPointExtension>
        </extensions>
      </trkpt>
      <trkpt lat="45.32564230263233184814453125" lon="-70.8082826994359493255615234375">
        <ele>815</ele>
        <time>2026-08-21T12:21:40.000Z</time>
        <extensions>
          <ns3:TrackPointExtension>
            <ns3:hr>109</ns3:hr>
            <ns3:cad>0</ns3:cad>
          </ns3:TrackPointExtension>
        </extensions>
      </trkpt>
      <trkpt lat="45.32563517801463603973388671875" lon="-70.80827104859054088592529296875">
        <ele>815</ele>
        <time>2026-08-21T12:21:41.000Z</time>
        <extensions>
          <ns3:TrackPointExtension>
            <ns3:hr>110</ns3:hr>
            <ns3:cad>0</ns3:cad>
          </ns3:TrackPointExtension>
        </extensions>
      </trkpt>
      <trkpt lat="45.32562352716922760009765625" lon="-70.80825336277484893798828125">
        <ele>815</ele>
        <time>2026-08-21T12:21:42.000Z</time>
        <extensions>
          <ns3:TrackPointExtension>
            <ns3:hr>111</ns3:hr>
            <ns3:cad>0</ns3:cad>
          </ns3:TrackPointExtension>
        </extensions>
      </trkpt>
      <trkpt lat="45.325617492198944091796875" lon="-70.80823819153010845184326171875">
        <ele>815</ele>
        <time>2026-08-21T12:21:43.000Z</time>
        <extensions>
          <ns3:TrackPointExtension>
            <ns3:hr>113</ns3:hr>
            <ns3:cad>0</ns3:cad>
          </ns3:TrackPointExtension>
        </extensions>
      </trkpt>
      <trkpt lat="45.32561288215219974517822265625" lon="-70.8082243613898754119873046875">
        <ele>815</ele>
        <time>2026-08-21T12:21:44.000Z</time>
        <extensions>
          <ns3:TrackPointExtension>
            <ns3:hr>114</ns3:hr>
            <ns3:cad>48</ns3:cad>
          </ns3:TrackPointExtension>
        </extensions>
      </trkpt>
      <trkpt lat="45.32560198567807674407958984375" lon="-70.80820734612643718719482421875">
        <ele>814.79998779296875</ele>
        <time>2026-08-21T12:21:45.000Z</time>
        <extensions>
          <ns3:TrackPointExtension>
            <ns3:hr>114</ns3:hr>
            <ns3:cad>48</ns3:cad>
          </ns3:TrackPointExtension>
        </extensions>
      </trkpt>
      <trkpt lat="45.32558958046138286590576171875" lon="-70.8081851340830326080322265625">
        <ele>814.79998779296875</ele>
        <time>2026-08-21T12:21:46.000Z</time>
        <extensions>
          <ns3:TrackPointExtension>
            <ns3:hr>113</ns3:hr>
            <ns3:cad>48</ns3:cad>
          </ns3:TrackPointExtension>
        </extensions>
      </trkpt>
      <trkpt lat="45.32558262348175048828125" lon="-70.80816686153411865234375">
        <ele>814.5999755859375</ele>
        <time>2026-08-21T12:21:47.000Z</time>
        <extensions>
          <ns3:TrackPointExtension>
            <ns3:hr>113</ns3:hr>
            <ns3:cad>48</ns3:cad>
          </ns3:TrackPointExtension>
        </extensions>
      </trkpt>
      <trkpt lat="45.325574241578578948974609375" lon="-70.808152444660663604736328125">
        <ele>814.4000244140625</ele>
        <time>2026-08-21T12:21:48.000Z</time>
        <extensions>
          <ns3:TrackPointExtension>
            <ns3:hr>112</ns3:hr>
            <ns3:cad>48</ns3:cad>
          </ns3:TrackPointExtension>
        </extensions>
      </trkpt>
      <trkpt lat="45.32556510530412197113037109375" lon="-70.8081371895968914031982421875">
        <ele>814.20001220703125</ele>
        <time>2026-08-21T12:21:49.000Z</time>
        <extensions>
          <ns3:TrackPointExtension>
            <ns3:hr>112</ns3:hr>
            <ns3:cad>0</ns3:cad>
          </ns3:TrackPointExtension>
        </extensions>
      </trkpt>
      <trkpt lat="45.32555722631514072418212890625" lon="-70.80813341774046421051025390625">
        <ele>813.79998779296875</ele>
        <time>2026-08-21T12:21:50.000Z</time>
        <extensions>
          <ns3:TrackPointExtension>
            <ns3:hr>112</ns3:hr>
            <ns3:cad>0</ns3:cad>
          </ns3:TrackPointExtension>
        </extensions>
      </trkpt>
      <trkpt lat="45.32554096542298793792724609375" lon="-70.8081207610666751861572265625">
        <ele>813.4000244140625</ele>
        <time>2026-08-21T12:21:51.000Z</time>
        <extensions>
          <ns3:TrackPointExtension>
            <ns3:hr>112</ns3:hr>
            <ns3:cad>0</ns3:cad>
          </ns3:TrackPointExtension>
        </extensions>
      </trkpt>
      <trkpt lat="45.3255204297602176666259765625" lon="-70.80811045132577419281005859375">
        <ele>813.20001220703125</ele>
        <time>2026-08-21T12:21:52.000Z</time>
        <extensions>
          <ns3:TrackPointExtension>
            <ns3:hr>113</ns3:hr>
            <ns3:cad>0</ns3:cad>
          </ns3:TrackPointExtension>
        </extensions>
      </trkpt>
      <trkpt lat="45.3255019895732402801513671875" lon="-70.80810927785933017730712890625">
        <ele>812.5999755859375</ele>
        <time>2026-08-21T12:21:53.000Z</time>
        <extensions>
          <ns3:TrackPointExtension>
            <ns3:hr>112</ns3:hr>
            <ns3:cad>0</ns3:cad>
          </ns3:TrackPointExtension>
        </extensions>
      </trkpt>
      <trkpt lat="45.3254825435578823089599609375" lon="-70.8081033267080783843994140625">
        <ele>812</ele>
        <time>2026-08-21T12:21:54.000Z</time>
        <extensions>
          <ns3:TrackPointExtension>
            <ns3:hr>112</ns3:hr>
            <ns3:cad>0</ns3:cad>
          </ns3:TrackPointExtension>
        </extensions>
      </trkpt>
      <trkpt lat="45.325465612113475799560546875" lon="-70.8080984652042388916015625">
        <ele>811.5999755859375</ele>
        <time>2026-08-21T12:21:55.000Z</time>
        <extensions>
          <ns3:TrackPointExtension>
            <ns3:hr>113</ns3:hr>
            <ns3:cad>0</ns3:cad>
          </ns3:TrackPointExtension>
        </extensions>
      </trkpt>
      <trkpt lat="45.325444154441356658935546875" lon="-70.8080939389765262603759765625">
        <ele>811.20001220703125</ele>
        <time>2026-08-21T12:21:56.000Z</time>
        <extensions>
          <ns3:TrackPointExtension>
            <ns3:hr>113</ns3:hr>
            <ns3:cad>0</ns3:cad>
          </ns3:TrackPointExtension>
        </extensions>
      </trkpt>
      <trkpt lat="45.32543300651013851165771484375" lon="-70.80809100531041622161865234375">
        <ele>810.79998779296875</ele>
        <time>2026-08-21T12:21:57.000Z</time>
        <extensions>
          <ns3:TrackPointExtension>
            <ns3:hr>114</ns3:hr>
            <ns3:cad>0</ns3:cad>
          </ns3:TrackPointExtension>
        </extensions>
      </trkpt>
      <trkpt lat="45.32542864792048931121826171875" lon="-70.80808840692043304443359375">
        <ele>810.79998779296875</ele>
        <time>2026-08-21T12:21:58.000Z</time>
        <extensions>
          <ns3:TrackPointExtension>
            <ns3:hr>114</ns3:hr>
            <ns3:cad>0</ns3:cad>
          </ns3:TrackPointExtension>
        </extensions>
      </trkpt>
      <trkpt lat="45.32542328350245952606201171875" lon="-70.80808564089238643646240234375">
        <ele>810.5999755859375</ele>
        <time>2026-08-21T12:21:59.000Z</time>
        <extensions>
          <ns3:TrackPointExtension>
            <ns3:hr>115</ns3:hr>
            <ns3:cad>0</ns3:cad>
          </ns3:TrackPointExtension>
        </extensions>
      </trkpt>
      <trkpt lat="45.32542311586439609527587890625" lon="-70.808086059987545013427734375">
        <ele>810.4000244140625</ele>
        <time>2026-08-21T12:22:00.000Z</time>
        <extensions>
          <ns3:TrackPointExtension>
            <ns3:hr>116</ns3:hr>
            <ns3:cad>0</ns3:cad>
          </ns3:TrackPointExtension>
        </extensions>
      </trkpt>
      <trkpt lat="45.3254230320453643798828125" lon="-70.808086395263671875">
        <ele>810.4000244140625</ele>
        <time>2026-08-21T12:22:01.000Z</time>
        <extensions>
          <ns3:TrackPointExtension>
            <ns3:hr>117</ns3:hr>
            <ns3:cad>62</ns3:cad>
          </ns3:TrackPointExtension>
        </extensions>
      </trkpt>
      <trkpt lat="45.32541087828576564788818359375" lon="-70.80808480270206928253173828125">
        <ele>810.4000244140625</ele>
        <time>2026-08-21T12:22:02.000Z</time>
        <extensions>
          <ns3:TrackPointExtension>
            <ns3:hr>117</ns3:hr>
            <ns3:cad>62</ns3:cad>
          </ns3:TrackPointExtension>
        </extensions>
      </trkpt>
      <trkpt lat="45.3254000656306743621826171875" lon="-70.80808304250240325927734375">
        <ele>810.4000244140625</ele>
        <time>2026-08-21T12:22:03.000Z</time>
        <extensions>
          <ns3:TrackPointExtension>
            <ns3:hr>118</ns3:hr>
            <ns3:cad>0</ns3:cad>
          </ns3:TrackPointExtension>
        </extensions>
      </trkpt>
      <trkpt lat="45.3253900073468685150146484375" lon="-70.80808362923562526702880859375">
        <ele>810.4000244140625</ele>
        <time>2026-08-21T12:22:04.000Z</time>
        <extensions>
          <ns3:TrackPointExtension>
            <ns3:hr>118</ns3:hr>
            <ns3:cad>0</ns3:cad>
          </ns3:TrackPointExtension>
        </extensions>
      </trkpt>
      <trkpt lat="45.32537500374019145965576171875" lon="-70.808092094957828521728515625">
        <ele>810.4000244140625</ele>
        <time>2026-08-21T12:22:05.000Z</time>
        <extensions>
          <ns3:TrackPointExtension>
            <ns3:hr>118</ns3:hr>
            <ns3:cad>59</ns3:cad>
          </ns3:TrackPointExtension>
        </extensions>
      </trkpt>
      <trkpt lat="45.32536310143768787384033203125" lon="-70.80809921957552433013916015625">
        <ele>810.4000244140625</ele>
        <time>2026-08-21T12:22:06.000Z</time>
        <extensions>
          <ns3:TrackPointExtension>
            <ns3:hr>118</ns3:hr>
            <ns3:cad>59</ns3:cad>
          </ns3:TrackPointExtension>
        </extensions>
      </trkpt>
      <trkpt lat="45.3253501094877719879150390625" lon="-70.8081091940402984619140625">
        <ele>810.20001220703125</ele>
        <time>2026-08-21T12:22:07.000Z</time>
        <extensions>
          <ns3:TrackPointExtension>
            <ns3:hr>117</ns3:hr>
            <ns3:cad>59</ns3:cad>
          </ns3:TrackPointExtension>
        </extensions>
      </trkpt>
      <trkpt lat="45.32533787190914154052734375" lon="-70.8081143908202648162841796875">
        <ele>810.20001220703125</ele>
        <time>2026-08-21T12:22:08.000Z</time>
        <extensions>
          <ns3:TrackPointExtension>
            <ns3:hr>117</ns3:hr>
            <ns3:cad>0</ns3:cad>
          </ns3:TrackPointExtension>
        </extensions>
      </trkpt>
      <trkpt lat="45.32533518970012664794921875" lon="-70.8081164024770259857177734375">
        <ele>810.20001220703125</ele>
        <time>2026-08-21T12:22:09.000Z</time>
        <extensions>
          <ns3:TrackPointExtension>
            <ns3:hr>116</ns3:hr>
            <ns3:cad>0</ns3:cad>
          </ns3:TrackPointExtension>
        </extensions>
      </trkpt>
      <trkpt lat="45.32533384859561920166015625" lon="-70.808118246495723724365234375">
        <ele>810.20001220703125</ele>
        <time>2026-08-21T12:22:10.000Z</time>
        <extensions>
          <ns3:TrackPointExtension>
            <ns3:hr>116</ns3:hr>
            <ns3:cad>0</ns3:cad>
          </ns3:TrackPointExtension>
        </extensions>
      </trkpt>
      <trkpt lat="45.3253326751291751861572265625" lon="-70.8081237785518169403076171875">
        <ele>810.20001220703125</ele>
        <time>2026-08-21T12:22:11.000Z</time>
        <extensions>
          <ns3:TrackPointExtension>
            <ns3:hr>116</ns3:hr>
            <ns3:cad>0</ns3:cad>
          </ns3:TrackPointExtension>
        </extensions>
      </trkpt>
      <trkpt lat="45.32532487995922565460205078125" lon="-70.8081298135221004486083984375">
        <ele>810.20001220703125</ele>
        <time>2026-08-21T12:22:12.000Z</time>
        <extensions>
          <ns3:TrackPointExtension>
            <ns3:hr>116</ns3:hr>
            <ns3:cad>0</ns3:cad>
          </ns3:TrackPointExtension>
        </extensions>
      </trkpt>
      <trkpt lat="45.32531716860830783843994140625" lon="-70.808133669197559356689453125">
        <ele>810.4000244140625</ele>
        <time>2026-08-21T12:22:13.000Z</time>
        <extensions>
          <ns3:TrackPointExtension>
            <ns3:hr>116</ns3:hr>
            <ns3:cad>54</ns3:cad>
          </ns3:TrackPointExtension>
        </extensions>
      </trkpt>
      <trkpt lat="45.32530643977224826812744140625" lon="-70.8081371895968914031982421875">
        <ele>810.4000244140625</ele>
        <time>2026-08-21T12:22:14.000Z</time>
        <extensions>
          <ns3:TrackPointExtension>
            <ns3:hr>117</ns3:hr>
            <ns3:cad>54</ns3:cad>
          </ns3:TrackPointExtension>
        </extensions>
      </trkpt>
      <trkpt lat="45.3252944536507129669189453125" lon="-70.80814230255782604217529296875">
        <ele>810.5999755859375</ele>
        <time>2026-08-21T12:22:15.000Z</time>
        <extensions>
          <ns3:TrackPointExtension>
            <ns3:hr>116</ns3:hr>
            <ns3:cad>62</ns3:cad>
          </ns3:TrackPointExtension>
        </extensions>
      </trkpt>
      <trkpt lat="45.3252827189862728118896484375" lon="-70.80813936889171600341796875">
        <ele>810.79998779296875</ele>
        <time>2026-08-21T12:22:16.000Z</time>
        <extensions>
          <ns3:TrackPointExtension>
            <ns3:hr>116</ns3:hr>
            <ns3:cad>0</ns3:cad>
          </ns3:TrackPointExtension>
        </extensions>
      </trkpt>
      <trkpt lat="45.3252755105495452880859375" lon="-70.8081452362239360809326171875">
        <ele>810.79998779296875</ele>
        <time>2026-08-21T12:22:17.000Z</time>
        <extensions>
          <ns3:TrackPointExtension>
            <ns3:hr>116</ns3:hr>
            <ns3:cad>0</ns3:cad>
          </ns3:TrackPointExtension>
        </extensions>
      </trkpt>
      <trkpt lat="45.32525950111448764801025390625" lon="-70.80815755762159824371337890625">
        <ele>810.79998779296875</ele>
        <time>2026-08-21T12:22:18.000Z</time>
        <extensions>
          <ns3:TrackPointExtension>
            <ns3:hr>116</ns3:hr>
            <ns3:cad>0</ns3:cad>
          </ns3:TrackPointExtension>
        </extensions>
      </trkpt>
      <trkpt lat="45.32524533569812774658203125" lon="-70.80816845409572124481201171875">
        <ele>810.79998779296875</ele>
        <time>2026-08-21T12:22:19.000Z</time>
        <extensions>
          <ns3:TrackPointExtension>
            <ns3:hr>117</ns3:hr>
            <ns3:cad>0</ns3:cad>
          </ns3:TrackPointExtension>
        </extensions>
      </trkpt>
      <trkpt lat="45.3252352774143218994140625" lon="-70.80817960202693939208984375">
        <ele>810.5999755859375</ele>
        <time>2026-08-21T12:22:20.000Z</time>
        <extensions>
          <ns3:TrackPointExtension>
            <ns3:hr>117</ns3:hr>
            <ns3:cad>66</ns3:cad>
          </ns3:TrackPointExtension>
        </extensions>
      </trkpt>
      <trkpt lat="45.32522781752049922943115234375" lon="-70.80819158814847469329833984375">
        <ele>810.4000244140625</ele>
        <time>2026-08-21T12:22:21.000Z</time>
        <extensions>
          <ns3:TrackPointExtension>
            <ns3:hr>117</ns3:hr>
            <ns3:cad>66</ns3:cad>
          </ns3:TrackPointExtension>
        </extensions>
      </trkpt>
      <trkpt lat="45.32521759159862995147705078125" lon="-70.80820617265999317169189453125">
        <ele>810.4000244140625</ele>
        <time>2026-08-21T12:22:22.000Z</time>
        <extensions>
          <ns3:TrackPointExtension>
            <ns3:hr>118</ns3:hr>
            <ns3:cad>56</ns3:cad>
          </ns3:TrackPointExtension>
        </extensions>
      </trkpt>
      <trkpt lat="45.32520619221031665802001953125" lon="-70.80821849405765533447265625">
        <ele>810.20001220703125</ele>
        <time>2026-08-21T12:22:23.000Z</time>
        <extensions>
          <ns3:TrackPointExtension>
            <ns3:hr>118</ns3:hr>
            <ns3:cad>56</ns3:cad>
          </ns3:TrackPointExtension>
        </extensions>
      </trkpt>
      <trkpt lat="45.32519412226974964141845703125" lon="-70.80822922289371490478515625">
        <ele>810</ele>
        <time>2026-08-21T12:22:24.000Z</time>
        <extensions>
          <ns3:TrackPointExtension>
            <ns3:hr>118</ns3:hr>
            <ns3:cad>56</ns3:cad>
          </ns3:TrackPointExtension>
        </extensions>
      </trkpt>
      <trkpt lat="45.32518255524337291717529296875" lon="-70.8082360960543155670166015625">
        <ele>809.79998779296875</ele>
        <time>2026-08-21T12:22:25.000Z</time>
        <extensions>
          <ns3:TrackPointExtension>
            <ns3:hr>117</ns3:hr>
            <ns3:cad>56</ns3:cad>
          </ns3:TrackPointExtension>
        </extensions>
      </trkpt>
      <trkpt lat="45.32517098821699619293212890625" lon="-70.80824171192944049835205078125">
        <ele>809.5999755859375</ele>
        <time>2026-08-21T12:22:26.000Z</time>
        <extensions>
          <ns3:TrackPointExtension>
            <ns3:hr>117</ns3:hr>
            <ns3:cad>56</ns3:cad>
          </ns3:TrackPointExtension>
        </extensions>
      </trkpt>
      <trkpt lat="45.3251583315432071685791015625" lon="-70.80824657343327999114990234375">
        <ele>809.4000244140625</ele>
        <time>2026-08-21T12:22:27.000Z</time>
        <extensions>
          <ns3:TrackPointExtension>
            <ns3:hr>116</ns3:hr>
            <ns3:cad>57</ns3:cad>
          </ns3:TrackPointExtension>
        </extensions>
      </trkpt>
      <trkpt lat="45.32514232210814952850341796875" lon="-70.80825562588870525360107421875">
        <ele>809.4000244140625</ele>
        <time>2026-08-21T12:22:28.000Z</time>
        <extensions>
          <ns3:TrackPointExtension>
            <ns3:hr>116</ns3:hr>
            <ns3:cad>57</ns3:cad>
          </ns3:TrackPointExtension>
        </extensions>
      </trkpt>
      <trkpt lat="45.3251306712627410888671875" lon="-70.80826518125832080841064453125">
        <ele>809.4000244140625</ele>
        <time>2026-08-21T12:22:29.000Z</time>
        <extensions>
          <ns3:TrackPointExtension>
            <ns3:hr>116</ns3:hr>
            <ns3:cad>57</ns3:cad>
          </ns3:TrackPointExtension>
        </extensions>
      </trkpt>
      <trkpt lat="45.3251180984079837799072265625" lon="-70.80827255733311176300048828125">
        <ele>809.20001220703125</ele>
        <time>2026-08-21T12:22:30.000Z</time>
        <extensions>
          <ns3:TrackPointExtension>
            <ns3:hr>115</ns3:hr>
            <ns3:cad>57</ns3:cad>
          </ns3:TrackPointExtension>
        </extensions>
      </trkpt>
      <trkpt lat="45.32510443590581417083740234375" lon="-70.80828596837818622589111328125">
        <ele>809.20001220703125</ele>
        <time>2026-08-21T12:22:31.000Z</time>
        <extensions>
          <ns3:TrackPointExtension>
            <ns3:hr>115</ns3:hr>
            <ns3:cad>57</ns3:cad>
          </ns3:TrackPointExtension>
        </extensions>
      </trkpt>
      <trkpt lat="45.32509370706975460052490234375" lon="-70.80829569138586521148681640625">
        <ele>809</ele>
        <time>2026-08-21T12:22:32.000Z</time>
        <extensions>
          <ns3:TrackPointExtension>
            <ns3:hr>116</ns3:hr>
            <ns3:cad>57</ns3:cad>
          </ns3:TrackPointExtension>
        </extensions>
      </trkpt>
      <trkpt lat="45.3250802122056484222412109375" lon="-70.80830222927033901214599609375">
        <ele>809</ele>
        <time>2026-08-21T12:22:33.000Z</time>
        <extensions>
          <ns3:TrackPointExtension>
            <ns3:hr>116</ns3:hr>
            <ns3:cad>57</ns3:cad>
          </ns3:TrackPointExtension>
        </extensions>
      </trkpt>
      <trkpt lat="45.3250657953321933746337890625" lon="-70.80830608494579792022705078125">
        <ele>809</ele>
        <time>2026-08-21T12:22:34.000Z</time>
        <extensions>
          <ns3:TrackPointExtension>
            <ns3:hr>116</ns3:hr>
            <ns3:cad>0</ns3:cad>
          </ns3:TrackPointExtension>
        </extensions>
      </trkpt>
      <trkpt lat="45.32505162991583347320556640625" lon="-70.80831027589738368988037109375">
        <ele>809</ele>
        <time>2026-08-21T12:22:35.000Z</time>
        <extensions>
          <ns3:TrackPointExtension>
            <ns3:hr>116</ns3:hr>
            <ns3:cad>0</ns3:cad>
          </ns3:TrackPointExtension>
        </extensions>
      </trkpt>
      <trkpt lat="45.32503771595656871795654296875" lon="-70.80831597559154033660888671875">
        <ele>809</ele>
        <time>2026-08-21T12:22:36.000Z</time>
        <extensions>
          <ns3:TrackPointExtension>
            <ns3:hr>116</ns3:hr>
            <ns3:cad>0</ns3:cad>
          </ns3:TrackPointExtension>
        </extensions>
      </trkpt>
      <trkpt lat="45.3250279091298580169677734375" lon="-70.80831966362893581390380859375">
        <ele>809.20001220703125</ele>
        <time>2026-08-21T12:22:37.000Z</time>
        <extensions>
          <ns3:TrackPointExtension>
            <ns3:hr>117</ns3:hr>
            <ns3:cad>0</ns3:cad>
          </ns3:TrackPointExtension>
        </extensions>
      </trkpt>
      <trkpt lat="45.325016342103481292724609375" lon="-70.80831781961023807525634765625">
        <ele>809.20001220703125</ele>
        <time>2026-08-21T12:22:38.000Z</time>
        <extensions>
          <ns3:TrackPointExtension>
            <ns3:hr>117</ns3:hr>
            <ns3:cad>0</ns3:cad>
          </ns3:TrackPointExtension>
        </extensions>
      </trkpt>
      <trkpt lat="45.3250072896480560302734375" lon="-70.8083076775074005126953125">
        <ele>809.20001220703125</ele>
        <time>2026-08-21T12:22:39.000Z</time>
        <extensions>
          <ns3:TrackPointExtension>
            <ns3:hr>118</ns3:hr>
            <ns3:cad>0</ns3:cad>
          </ns3:TrackPointExtension>
        </extensions>
      </trkpt>
      <trkpt lat="45.3249957226216793060302734375" lon="-70.808299295604228973388671875">
        <ele>809.20001220703125</ele>
        <time>2026-08-21T12:22:40.000Z</time>
        <extensions>
          <ns3:TrackPointExtension>
            <ns3:hr>119</ns3:hr>
            <ns3:cad>0</ns3:cad>
          </ns3:TrackPointExtension>
        </extensions>
      </trkpt>
      <trkpt lat="45.32498382031917572021484375" lon="-70.80829359591007232666015625">
        <ele>809.4000244140625</ele>
        <time>2026-08-21T12:22:41.000Z</time>
        <extensions>
          <ns3:TrackPointExtension>
            <ns3:hr>119</ns3:hr>
            <ns3:cad>0</ns3:cad>
          </ns3:TrackPointExtension>
        </extensions>
      </trkpt>
      <trkpt lat="45.32497133128345012664794921875" lon="-70.80829200334846973419189453125">
        <ele>809.4000244140625</ele>
        <time>2026-08-21T12:22:42.000Z</time>
        <extensions>
          <ns3:TrackPointExtension>
            <ns3:hr>119</ns3:hr>
            <ns3:cad>0</ns3:cad>
          </ns3:TrackPointExtension>
        </extensions>
      </trkpt>
      <trkpt lat="45.324963368475437164306640625" lon="-70.8082867227494716644287109375">
        <ele>809.5999755859375</ele>
        <time>2026-08-21T12:22:43.000Z</time>
        <extensions>
          <ns3:TrackPointExtension>
            <ns3:hr>119</ns3:hr>
            <ns3:cad>0</ns3:cad>
          </ns3:TrackPointExtension>
        </extensions>
      </trkpt>
      <trkpt lat="45.32495490275323390960693359375" lon="-70.8082810230553150177001953125">
        <ele>809.5999755859375</ele>
        <time>2026-08-21T12:22:44.000Z</time>
        <extensions>
          <ns3:TrackPointExtension>
            <ns3:hr>119</ns3:hr>
            <ns3:cad>55</ns3:cad>
          </ns3:TrackPointExtension>
        </extensions>
      </trkpt>
      <trkpt lat="45.3249464370310306549072265625" lon="-70.8082723058760166168212890625">
        <ele>809.79998779296875</ele>
        <time>2026-08-21T12:22:45.000Z</time>
        <extensions>
          <ns3:TrackPointExtension>
            <ns3:hr>118</ns3:hr>
            <ns3:cad>55</ns3:cad>
          </ns3:TrackPointExtension>
        </extensions>
      </trkpt>
      <trkpt lat="45.32493931241333484649658203125" lon="-70.8082599006593227386474609375">
        <ele>810</ele>
        <time>2026-08-21T12:22:46.000Z</time>
        <extensions>
          <ns3:TrackPointExtension>
            <ns3:hr>119</ns3:hr>
            <ns3:cad>0</ns3:cad>
          </ns3:TrackPointExtension>
        </extensions>
      </trkpt>
      <trkpt lat="45.32493176870048046112060546875" lon="-70.808244645595550537109375">
        <ele>810</ele>
        <time>2026-08-21T12:22:47.000Z</time>
        <extensions>
          <ns3:TrackPointExtension>
            <ns3:hr>119</ns3:hr>
            <ns3:cad>0</ns3:cad>
          </ns3:TrackPointExtension>
        </extensions>
      </trkpt>
      <trkpt lat="45.3249241411685943603515625" lon="-70.80823198892176151275634765625">
        <ele>810.20001220703125</ele>
        <time>2026-08-21T12:22:48.000Z</time>
        <extensions>
          <ns3:TrackPointExtension>
            <ns3:hr>118</ns3:hr>
            <ns3:cad>0</ns3:cad>
          </ns3:TrackPointExtension>
        </extensions>
      </trkpt>
      <trkpt lat="45.32491500489413738250732421875" lon="-70.808217488229274749755859375">
        <ele>810.20001220703125</ele>
        <time>2026-08-21T12:22:49.000Z</time>
        <extensions>
          <ns3:TrackPointExtension>
            <ns3:hr>118</ns3:hr>
            <ns3:cad>53</ns3:cad>
          </ns3:TrackPointExtension>
        </extensions>
      </trkpt>
      <trkpt lat="45.32490544952452182769775390625" lon="-70.808208100497722625732421875">
        <ele>810.20001220703125</ele>
        <time>2026-08-21T12:22:50.000Z</time>
        <extensions>
          <ns3:TrackPointExtension>
            <ns3:hr>118</ns3:hr>
            <ns3:cad>53</ns3:cad>
          </ns3:TrackPointExtension>
        </extensions>
      </trkpt>
      <trkpt lat="45.32489924691617488861083984375" lon="-70.808196701109409332275390625">
        <ele>810</ele>
        <time>2026-08-21T12:22:51.000Z</time>
        <extensions>
          <ns3:TrackPointExtension>
            <ns3:hr>118</ns3:hr>
            <ns3:cad>53</ns3:cad>
          </ns3:TrackPointExtension>
        </extensions>
      </trkpt>
      <trkpt lat="45.32489069737493991851806640625" lon="-70.80818437971174716949462890625">
        <ele>810</ele>
        <time>2026-08-21T12:22:52.000Z</time>
        <extensions>
          <ns3:TrackPointExtension>
            <ns3:hr>119</ns3:hr>
            <ns3:cad>53</ns3:cad>
          </ns3:TrackPointExtension>
        </extensions>
      </trkpt>
      <trkpt lat="45.32487929798662662506103515625" lon="-70.8081744052469730377197265625">
        <ele>809.79998779296875</ele>
        <time>2026-08-21T12:22:53.000Z</time>
        <extensions>
          <ns3:TrackPointExtension>
            <ns3:hr>118</ns3:hr>
            <ns3:cad>57</ns3:cad>
          </ns3:TrackPointExtension>
        </extensions>
      </trkpt>
      <trkpt lat="45.32487125135958194732666015625" lon="-70.8081650175154209136962890625">
        <ele>809.5999755859375</ele>
        <time>2026-08-21T12:22:54.000Z</time>
        <extensions>
          <ns3:TrackPointExtension>
            <ns3:hr>119</ns3:hr>
            <ns3:cad>57</ns3:cad>
          </ns3:TrackPointExtension>
        </extensions>
      </trkpt>
      <trkpt lat="45.32486370764672756195068359375" lon="-70.8081563003361225128173828125">
        <ele>809.4000244140625</ele>
        <time>2026-08-21T12:22:55.000Z</time>
        <extensions>
          <ns3:TrackPointExtension>
            <ns3:hr>119</ns3:hr>
            <ns3:cad>57</ns3:cad>
          </ns3:TrackPointExtension>
        </extensions>
      </trkpt>
      <trkpt lat="45.3248565830290317535400390625" lon="-70.80814381130039691925048828125">
        <ele>809.20001220703125</ele>
        <time>2026-08-21T12:22:56.000Z</time>
        <extensions>
          <ns3:TrackPointExtension>
            <ns3:hr>120</ns3:hr>
            <ns3:cad>56</ns3:cad>
          </ns3:TrackPointExtension>
        </extensions>
      </trkpt>
      <trkpt lat="45.32484409399330615997314453125" lon="-70.80813190899789333343505859375">
        <ele>808.79998779296875</ele>
        <time>2026-08-21T12:22:57.000Z</time>
        <extensions>
          <ns3:TrackPointExtension>
            <ns3:hr>120</ns3:hr>
            <ns3:cad>56</ns3:cad>
          </ns3:TrackPointExtension>
        </extensions>
      </trkpt>
      <trkpt lat="45.3248307667672634124755859375" lon="-70.80812486819922924041748046875">
        <ele>808.4000244140625</ele>
        <time>2026-08-21T12:22:58.000Z</time>
        <extensions>
          <ns3:TrackPointExtension>
            <ns3:hr>120</ns3:hr>
            <ns3:cad>55</ns3:cad>
          </ns3:TrackPointExtension>
        </extensions>
      </trkpt>
      <trkpt lat="45.3248180262744426727294921875" lon="-70.80810743384063243865966796875">
        <ele>808</ele>
        <time>2026-08-21T12:22:59.000Z</time>
        <extensions>
          <ns3:TrackPointExtension>
            <ns3:hr>120</ns3:hr>
            <ns3:cad>55</ns3:cad>
          </ns3:TrackPointExtension>
        </extensions>
      </trkpt>
      <trkpt lat="45.324804782867431640625" lon="-70.80809452570974826812744140625">
        <ele>807.5999755859375</ele>
        <time>2026-08-21T12:23:00.000Z</time>
        <extensions>
          <ns3:TrackPointExtension>
            <ns3:hr>120</ns3:hr>
            <ns3:cad>55</ns3:cad>
          </ns3:TrackPointExtension>
        </extensions>
      </trkpt>
      <trkpt lat="45.32478743232786655426025390625" lon="-70.8080855570733547210693359375">
        <ele>807.20001220703125</ele>
        <time>2026-08-21T12:23:01.000Z</time>
        <extensions>
          <ns3:TrackPointExtension>
            <ns3:hr>120</ns3:hr>
            <ns3:cad>62</ns3:cad>
          </ns3:TrackPointExtension>
        </extensions>
      </trkpt>
      <trkpt lat="45.3247724287211894989013671875" lon="-70.80808438360691070556640625">
        <ele>806.5999755859375</ele>
        <time>2026-08-21T12:23:02.000Z</time>
        <extensions>
          <ns3:TrackPointExtension>
            <ns3:hr>120</ns3:hr>
            <ns3:cad>62</ns3:cad>
          </ns3:TrackPointExtension>
        </extensions>
      </trkpt>
      <trkpt lat="45.3247620351612567901611328125" lon="-70.8080865629017353057861328125">
        <ele>806.4000244140625</ele>
        <time>2026-08-21T12:23:03.000Z</time>
        <extensions>
          <ns3:TrackPointExtension>
            <ns3:hr>120</ns3:hr>
            <ns3:cad>0</ns3:cad>
          </ns3:TrackPointExtension>
        </extensions>
      </trkpt>
      <trkpt lat="45.32475356943905353546142578125" lon="-70.80808664672076702117919921875">
        <ele>806</ele>
        <time>2026-08-21T12:23:04.000Z</time>
        <extensions>
          <ns3:TrackPointExtension>
            <ns3:hr>120</ns3:hr>
            <ns3:cad>0</ns3:cad>
          </ns3:TrackPointExtension>
        </extensions>
      </trkpt>
      <trkpt lat="45.3247409127652645111083984375" lon="-70.808079354465007781982421875">
        <ele>805.79998779296875</ele>
        <time>2026-08-21T12:23:05.000Z</time>
        <extensions>
          <ns3:TrackPointExtension>
            <ns3:hr>120</ns3:hr>
            <ns3:cad>0</ns3:cad>
          </ns3:TrackPointExtension>
        </extensions>
      </trkpt>
      <trkpt lat="45.3247311897575855255126953125" lon="-70.80807474441826343536376953125">
        <ele>805.4000244140625</ele>
        <time>2026-08-21T12:23:06.000Z</time>
        <extensions>
          <ns3:TrackPointExtension>
            <ns3:hr>121</ns3:hr>
            <ns3:cad>65</ns3:cad>
          </ns3:TrackPointExtension>
        </extensions>
      </trkpt>
      <trkpt lat="45.3247194550931453704833984375" lon="-70.80805890262126922607421875">
        <ele>805.20001220703125</ele>
        <time>2026-08-21T12:23:07.000Z</time>
        <extensions>
          <ns3:TrackPointExtension>
            <ns3:hr>121</ns3:hr>
            <ns3:cad>65</ns3:cad>
          </ns3:TrackPointExtension>
        </extensions>
      </trkpt>
      <trkpt lat="45.3247107379138469696044921875" lon="-70.80804741941392421722412109375">
        <ele>804.79998779296875</ele>
        <time>2026-08-21T12:23:08.000Z</time>
        <extensions>
          <ns3:TrackPointExtension>
            <ns3:hr>121</ns3:hr>
            <ns3:cad>65</ns3:cad>
          </ns3:TrackPointExtension>
        </extensions>
      </trkpt>
      <trkpt lat="45.3247010149061679840087890625" lon="-70.80803803168237209320068359375">
        <ele>804.4000244140625</ele>
        <time>2026-08-21T12:23:09.000Z</time>
        <extensions>
          <ns3:TrackPointExtension>
            <ns3:hr>121</ns3:hr>
            <ns3:cad>65</ns3:cad>
          </ns3:TrackPointExtension>
        </extensions>
      </trkpt>
      <trkpt lat="45.324689447879791259765625" lon="-70.80803082324564456939697265625">
        <ele>804.20001220703125</ele>
        <time>2026-08-21T12:23:10.000Z</time>
        <extensions>
          <ns3:TrackPointExtension>
            <ns3:hr>121</ns3:hr>
            <ns3:cad>65</ns3:cad>
          </ns3:TrackPointExtension>
        </extensions>
      </trkpt>
      <trkpt lat="45.32467863522469997406005859375" lon="-70.8080205135047435760498046875">
        <ele>803.79998779296875</ele>
        <time>2026-08-21T12:23:11.000Z</time>
        <extensions>
          <ns3:TrackPointExtension>
            <ns3:hr>121</ns3:hr>
            <ns3:cad>65</ns3:cad>
          </ns3:TrackPointExtension>
        </extensions>
      </trkpt>
      <trkpt lat="45.324668996036052703857421875" lon="-70.8080094493925571441650390625">
        <ele>803.5999755859375</ele>
        <time>2026-08-21T12:23:12.000Z</time>
        <extensions>
          <ns3:TrackPointExtension>
            <ns3:hr>121</ns3:hr>
            <ns3:cad>65</ns3:cad>
          </ns3:TrackPointExtension>
        </extensions>
      </trkpt>
      <trkpt lat="45.324653573334217071533203125" lon="-70.80799930728971958160400390625">
        <ele>803.20001220703125</ele>
        <time>2026-08-21T12:23:13.000Z</time>
        <extensions>
          <ns3:TrackPointExtension>
            <ns3:hr>121</ns3:hr>
            <ns3:cad>65</ns3:cad>
          </ns3:TrackPointExtension>
        </extensions>
      </trkpt>
      <trkpt lat="45.32463655807077884674072265625" lon="-70.8079933561384677886962890625">
        <ele>803</ele>
        <time>2026-08-21T12:23:14.000Z</time>
        <extensions>
          <ns3:TrackPointExtension>
            <ns3:hr>122</ns3:hr>
            <ns3:cad>65</ns3:cad>
          </ns3:TrackPointExtension>
        </extensions>
      </trkpt>
      <trkpt lat="45.3246185369789600372314453125" lon="-70.8079893328249454498291015625">
        <ele>802.5999755859375</ele>
        <time>2026-08-21T12:23:15.000Z</time>
        <extensions>
          <ns3:TrackPointExtension>
            <ns3:hr>120</ns3:hr>
            <ns3:cad>65</ns3:cad>
          </ns3:TrackPointExtension>
        </extensions>
      </trkpt>
      <trkpt lat="45.3246104903519153594970703125" lon="-70.8079853095114231109619140625">
        <ele>802.20001220703125</ele>
        <time>2026-08-21T12:23:16.000Z</time>
        <extensions>
          <ns3:TrackPointExtension>
            <ns3:hr>120</ns3:hr>
            <ns3:cad>0</ns3:cad>
          </ns3:TrackPointExtension>
        </extensions>
      </trkpt>
      <trkpt lat="45.32460621558129787445068359375" lon="-70.80797466449439525604248046875">
        <ele>801.79998779296875</ele>
        <time>2026-08-21T12:23:17.000Z</time>
        <extensions>
          <ns3:TrackPointExtension>
            <ns3:hr>120</ns3:hr>
            <ns3:cad>0</ns3:cad>
          </ns3:TrackPointExtension>
        </extensions>
      </trkpt>
      <trkpt lat="45.32459431327879428863525390625" lon="-70.80796980299055576324462890625">
        <ele>801.4000244140625</ele>
        <time>2026-08-21T12:23:18.000Z</time>
        <extensions>
          <ns3:TrackPointExtension>
            <ns3:hr>119</ns3:hr>
            <ns3:cad>0</ns3:cad>
          </ns3:TrackPointExtension>
        </extensions>
      </trkpt>
      <trkpt lat="45.32458123750984668731689453125" lon="-70.80796494148671627044677734375">
        <ele>801.20001220703125</ele>
        <time>2026-08-21T12:23:19.000Z</time>
        <extensions>
          <ns3:TrackPointExtension>
            <ns3:hr>119</ns3:hr>
            <ns3:cad>0</ns3:cad>
          </ns3:TrackPointExtension>
        </extensions>
      </trkpt>
      <trkpt lat="45.32456715591251850128173828125" lon="-70.8079563081264495849609375">
        <ele>800.5999755859375</ele>
        <time>2026-08-21T12:23:20.000Z</time>
        <extensions>
          <ns3:TrackPointExtension>
            <ns3:hr>119</ns3:hr>
            <ns3:cad>0</ns3:cad>
          </ns3:TrackPointExtension>
        </extensions>
      </trkpt>
      <trkpt lat="45.32455743290483951568603515625" lon="-70.80794868059456348419189453125">
        <ele>800.20001220703125</ele>
        <time>2026-08-21T12:23:21.000Z</time>
        <extensions>
          <ns3:TrackPointExtension>
            <ns3:hr>118</ns3:hr>
            <ns3:cad>0</ns3:cad>
          </ns3:TrackPointExtension>
        </extensions>
      </trkpt>
      <trkpt lat="45.3245508112013339996337890625" lon="-70.80794448964297771453857421875">
        <ele>799.5999755859375</ele>
        <time>2026-08-21T12:23:22.000Z</time>
        <extensions>
          <ns3:TrackPointExtension>
            <ns3:hr>118</ns3:hr>
            <ns3:cad>59</ns3:cad>
          </ns3:TrackPointExtension>
        </extensions>
      </trkpt>
      <trkpt lat="45.32453731633722782135009765625" lon="-70.8079346828162670135498046875">
        <ele>799.20001220703125</ele>
        <time>2026-08-21T12:23:23.000Z</time>
        <extensions>
          <ns3:TrackPointExtension>
            <ns3:hr>118</ns3:hr>
            <ns3:cad>59</ns3:cad>
          </ns3:TrackPointExtension>
        </extensions>
      </trkpt>
      <trkpt lat="45.32452742569148540496826171875" lon="-70.80793024040758609771728515625">
        <ele>798.79998779296875</ele>
        <time>2026-08-21T12:23:24.000Z</time>
        <extensions>
          <ns3:TrackPointExtension>
            <ns3:hr>118</ns3:hr>
            <ns3:cad>59</ns3:cad>
          </ns3:TrackPointExtension>
        </extensions>
      </trkpt>
      <trkpt lat="45.3245258331298828125" lon="-70.8079256303608417510986328125">
        <ele>798.4000244140625</ele>
        <time>2026-08-21T12:23:25.000Z</time>
        <extensions>
          <ns3:TrackPointExtension>
            <ns3:hr>118</ns3:hr>
            <ns3:cad>41</ns3:cad>
          </ns3:TrackPointExtension>
        </extensions>
      </trkpt>
      <trkpt lat="45.32452784478664398193359375" lon="-70.807928144931793212890625">
        <ele>798</ele>
        <time>2026-08-21T12:23:26.000Z</time>
        <extensions>
          <ns3:TrackPointExtension>
            <ns3:hr>118</ns3:hr>
            <ns3:cad>41</ns3:cad>
          </ns3:TrackPointExtension>
        </extensions>
      </trkpt>
      <trkpt lat="45.32452784478664398193359375" lon="-70.80792454071342945098876953125">
        <ele>797.79998779296875</ele>
        <time>2026-08-21T12:23:27.000Z</time>
        <extensions>
          <ns3:TrackPointExtension>
            <ns3:hr>118</ns3:hr>
            <ns3:cad>41</ns3:cad>
          </ns3:TrackPointExtension>
        </extensions>
      </trkpt>
      <trkpt lat="45.324527509510517120361328125" lon="-70.80791800282895565032958984375">
        <ele>797.5999755859375</ele>
        <time>2026-08-21T12:23:28.000Z</time>
        <extensions>
          <ns3:TrackPointExtension>
            <ns3:hr>118</ns3:hr>
            <ns3:cad>41</ns3:cad>
          </ns3:TrackPointExtension>
        </extensions>
      </trkpt>
      <trkpt lat="45.32452658750116825103759765625" lon="-70.80790358595550060272216796875">
        <ele>797.4000244140625</ele>
        <time>2026-08-21T12:23:29.000Z</time>
        <extensions>
          <ns3:TrackPointExtension>
            <ns3:hr>119</ns3:hr>
            <ns3:cad>41</ns3:cad>
          </ns3:TrackPointExtension>
        </extensions>
      </trkpt>
      <trkpt lat="45.3245226480066776275634765625" lon="-70.807890594005584716796875">
        <ele>797.20001220703125</ele>
        <time>2026-08-21T12:23:30.000Z</time>
        <extensions>
          <ns3:TrackPointExtension>
            <ns3:hr>119</ns3:hr>
            <ns3:cad>41</ns3:cad>
          </ns3:TrackPointExtension>
        </extensions>
      </trkpt>
      <trkpt lat="45.32451870851218700408935546875" lon="-70.80787458457052707672119140625">
        <ele>797</ele>
        <time>2026-08-21T12:23:31.000Z</time>
        <extensions>
          <ns3:TrackPointExtension>
            <ns3:hr>119</ns3:hr>
            <ns3:cad>41</ns3:cad>
          </ns3:TrackPointExtension>
        </extensions>
      </trkpt>
      <trkpt lat="45.32451485283672809600830078125" lon="-70.80785765312612056732177734375">
        <ele>796.5999755859375</ele>
        <time>2026-08-21T12:23:32.000Z</time>
        <extensions>
          <ns3:TrackPointExtension>
            <ns3:hr>119</ns3:hr>
            <ns3:cad>41</ns3:cad>
          </ns3:TrackPointExtension>
        </extensions>
      </trkpt>
      <trkpt lat="45.324505381286144256591796875" lon="-70.8078431524336338043212890625">
        <ele>796.4000244140625</ele>
        <time>2026-08-21T12:23:33.000Z</time>
        <extensions>
          <ns3:TrackPointExtension>
            <ns3:hr>118</ns3:hr>
            <ns3:cad>41</ns3:cad>
          </ns3:TrackPointExtension>
        </extensions>
      </trkpt>
      <trkpt lat="45.32449523918330669403076171875" lon="-70.80783703364431858062744140625">
        <ele>796</ele>
        <time>2026-08-21T12:23:34.000Z</time>
        <extensions>
          <ns3:TrackPointExtension>
            <ns3:hr>118</ns3:hr>
            <ns3:cad>41</ns3:cad>
          </ns3:TrackPointExtension>
        </extensions>
      </trkpt>
      <trkpt lat="45.3244894556701183319091796875" lon="-70.80783435143530368804931640625">
        <ele>795.79998779296875</ele>
        <time>2026-08-21T12:23:35.000Z</time>
        <extensions>
          <ns3:TrackPointExtension>
            <ns3:hr>118</ns3:hr>
            <ns3:cad>41</ns3:cad>
          </ns3:TrackPointExtension>
        </extensions>
      </trkpt>
      <trkpt lat="45.32449205406010150909423828125" lon="-70.80784038640558719635009765625">
        <ele>795.4000244140625</ele>
        <time>2026-08-21T12:23:36.000Z</time>
        <extensions>
          <ns3:TrackPointExtension>
            <ns3:hr>119</ns3:hr>
            <ns3:cad>41</ns3:cad>
          </ns3:TrackPointExtension>
        </extensions>
      </trkpt>
      <trkpt lat="45.32449155114591121673583984375" lon="-70.8078356087207794189453125">
        <ele>795</ele>
        <time>2026-08-21T12:23:37.000Z</time>
        <extensions>
          <ns3:TrackPointExtension>
            <ns3:hr>119</ns3:hr>
            <ns3:cad>77</ns3:cad>
          </ns3:TrackPointExtension>
        </extensions>
      </trkpt>
      <trkpt lat="45.32449205406010150909423828125" lon="-70.80781926400959491729736328125">
        <ele>794.5999755859375</ele>
        <time>2026-08-21T12:23:38.000Z</time>
        <extensions>
          <ns3:TrackPointExtension>
            <ns3:hr>118</ns3:hr>
            <ns3:cad>77</ns3:cad>
          </ns3:TrackPointExtension>
        </extensions>
      </trkpt>
      <trkpt lat="45.3244914673268795013427734375" lon="-70.8078109659254550933837890625">
        <ele>794.20001220703125</ele>
        <time>2026-08-21T12:23:39.000Z</time>
        <extensions>
          <ns3:TrackPointExtension>
            <ns3:hr>117</ns3:hr>
            <ns3:cad>0</ns3:cad>
          </ns3:TrackPointExtension>
        </extensions>
      </trkpt>
      <trkpt lat="45.324490964412689208984375" lon="-70.807803757488727569580078125">
        <ele>794</ele>
        <time>2026-08-21T12:23:40.000Z</time>
        <extensions>
          <ns3:TrackPointExtension>
            <ns3:hr>117</ns3:hr>
            <ns3:cad>0</ns3:cad>
          </ns3:TrackPointExtension>
        </extensions>
      </trkpt>
      <trkpt lat="45.32448970712721347808837890625" lon="-70.80779713578522205352783203125">
        <ele>793.5999755859375</ele>
        <time>2026-08-21T12:23:41.000Z</time>
        <extensions>
          <ns3:TrackPointExtension>
            <ns3:hr>117</ns3:hr>
            <ns3:cad>0</ns3:cad>
          </ns3:TrackPointExtension>
        </extensions>
      </trkpt>
      <trkpt lat="45.32448895275592803955078125" lon="-70.80779126845300197601318359375">
        <ele>793.4000244140625</ele>
        <time>2026-08-21T12:23:42.000Z</time>
        <extensions>
          <ns3:TrackPointExtension>
            <ns3:hr>117</ns3:hr>
            <ns3:cad>44</ns3:cad>
          </ns3:TrackPointExtension>
        </extensions>
      </trkpt>
      <trkpt lat="45.32448920421302318572998046875" lon="-70.80778758041560649871826171875">
        <ele>793</ele>
        <time>2026-08-21T12:23:43.000Z</time>
        <extensions>
          <ns3:TrackPointExtension>
            <ns3:hr>118</ns3:hr>
            <ns3:cad>44</ns3:cad>
          </ns3:TrackPointExtension>
        </extensions>
      </trkpt>
      <trkpt lat="45.32449171878397464752197265625" lon="-70.80777936615049839019775390625">
        <ele>792.79998779296875</ele>
        <time>2026-08-21T12:23:44.000Z</time>
        <extensions>
          <ns3:TrackPointExtension>
            <ns3:hr>118</ns3:hr>
            <ns3:cad>79</ns3:cad>
          </ns3:TrackPointExtension>
        </extensions>
      </trkpt>
      <trkpt lat="45.32449339516460895538330078125" lon="-70.80777299590408802032470703125">
        <ele>792.5999755859375</ele>
        <time>2026-08-21T12:23:45.000Z</time>
        <extensions>
          <ns3:TrackPointExtension>
            <ns3:hr>119</ns3:hr>
            <ns3:cad>79</ns3:cad>
          </ns3:TrackPointExtension>
        </extensions>
      </trkpt>
      <trkpt lat="45.324495993554592132568359375" lon="-70.80776520073413848876953125">
        <ele>792.4000244140625</ele>
        <time>2026-08-21T12:23:46.000Z</time>
        <extensions>
          <ns3:TrackPointExtension>
            <ns3:hr>119</ns3:hr>
            <ns3:cad>0</ns3:cad>
          </ns3:TrackPointExtension>
        </extensions>
      </trkpt>
      <trkpt lat="45.3244936466217041015625" lon="-70.80775707028806209564208984375">
        <ele>792</ele>
        <time>2026-08-21T12:23:47.000Z</time>
        <extensions>
          <ns3:TrackPointExtension>
            <ns3:hr>119</ns3:hr>
            <ns3:cad>0</ns3:cad>
          </ns3:TrackPointExtension>
        </extensions>
      </trkpt>
      <trkpt lat="45.32448828220367431640625" lon="-70.8077539689838886260986328125">
        <ele>791.79998779296875</ele>
        <time>2026-08-21T12:23:48.000Z</time>
        <extensions>
          <ns3:TrackPointExtension>
            <ns3:hr>119</ns3:hr>
            <ns3:cad>0</ns3:cad>
          </ns3:TrackPointExtension>
        </extensions>
      </trkpt>
      <trkpt lat="45.32448492944240570068359375" lon="-70.80774701200425624847412109375">
        <ele>791.4000244140625</ele>
        <time>2026-08-21T12:23:49.000Z</time>
        <extensions>
          <ns3:TrackPointExtension>
            <ns3:hr>120</ns3:hr>
            <ns3:cad>60</ns3:cad>
          </ns3:TrackPointExtension>
        </extensions>
      </trkpt>
      <trkpt lat="45.32448291778564453125" lon="-70.807742066681385040283203125">
        <ele>791</ele>
        <time>2026-08-21T12:23:50.000Z</time>
        <extensions>
          <ns3:TrackPointExtension>
            <ns3:hr>120</ns3:hr>
            <ns3:cad>60</ns3:cad>
          </ns3:TrackPointExtension>
        </extensions>
      </trkpt>
      <trkpt lat="45.32448249869048595428466796875" lon="-70.80773158930242061614990234375">
        <ele>790.5999755859375</ele>
        <time>2026-08-21T12:23:51.000Z</time>
        <extensions>
          <ns3:TrackPointExtension>
            <ns3:hr>120</ns3:hr>
            <ns3:cad>0</ns3:cad>
          </ns3:TrackPointExtension>
        </extensions>
      </trkpt>
      <trkpt lat="45.32447822391986846923828125" lon="-70.8077268116176128387451171875">
        <ele>790.20001220703125</ele>
        <time>2026-08-21T12:23:52.000Z</time>
        <extensions>
          <ns3:TrackPointExtension>
            <ns3:hr>120</ns3:hr>
            <ns3:cad>0</ns3:cad>
          </ns3:TrackPointExtension>
        </extensions>
      </trkpt>
      <trkpt lat="45.3244773857295513153076171875" lon="-70.80771432258188724517822265625">
        <ele>789.79998779296875</ele>
        <time>2026-08-21T12:23:53.000Z</time>
        <extensions>
          <ns3:TrackPointExtension>
            <ns3:hr>120</ns3:hr>
            <ns3:cad>0</ns3:cad>
          </ns3:TrackPointExtension>
        </extensions>
      </trkpt>
      <trkpt lat="45.324465818703174591064453125" lon="-70.80769906751811504364013671875">
        <ele>789.4000244140625</ele>
        <time>2026-08-21T12:23:54.000Z</time>
        <extensions>
          <ns3:TrackPointExtension>
            <ns3:hr>120</ns3:hr>
            <ns3:cad>0</ns3:cad>
          </ns3:TrackPointExtension>
        </extensions>
      </trkpt>
      <trkpt lat="45.32445282675325870513916015625" lon="-70.80769889988005161285400390625">
        <ele>789</ele>
        <time>2026-08-21T12:23:55.000Z</time>
        <extensions>
          <ns3:TrackPointExtension>
            <ns3:hr>121</ns3:hr>
            <ns3:cad>0</ns3:cad>
          </ns3:TrackPointExtension>
        </extensions>
      </trkpt>
      <trkpt lat="45.32443941570818424224853515625" lon="-70.8076973073184490203857421875">
        <ele>788.5999755859375</ele>
        <time>2026-08-21T12:23:56.000Z</time>
        <extensions>
          <ns3:TrackPointExtension>
            <ns3:hr>121</ns3:hr>
            <ns3:cad>0</ns3:cad>
          </ns3:TrackPointExtension>
        </extensions>
      </trkpt>
      <trkpt lat="45.32442457973957061767578125" lon="-70.807694457471370697021484375">
        <ele>788.4000244140625</ele>
        <time>2026-08-21T12:23:57.000Z</time>
        <extensions>
          <ns3:TrackPointExtension>
            <ns3:hr>121</ns3:hr>
            <ns3:cad>0</ns3:cad>
          </ns3:TrackPointExtension>
        </extensions>
      </trkpt>
      <trkpt lat="45.3244103305041790008544921875" lon="-70.807699151337146759033203125">
        <ele>788</ele>
        <time>2026-08-21T12:23:58.000Z</time>
        <extensions>
          <ns3:TrackPointExtension>
            <ns3:hr>121</ns3:hr>
            <ns3:cad>0</ns3:cad>
          </ns3:TrackPointExtension>
        </extensions>
      </trkpt>
      <trkpt lat="45.3243975900113582611083984375" lon="-70.80771046690642833709716796875">
        <ele>787.5999755859375</ele>
        <time>2026-08-21T12:23:59.000Z</time>
        <extensions>
          <ns3:TrackPointExtension>
            <ns3:hr>121</ns3:hr>
            <ns3:cad>0</ns3:cad>
          </ns3:TrackPointExtension>
        </extensions>
      </trkpt>
      <trkpt lat="45.32439247705042362213134765625" lon="-70.807716585695743560791015625">
        <ele>787.4000244140625</ele>
        <time>2026-08-21T12:24:00.000Z</time>
        <extensions>
          <ns3:TrackPointExtension>
            <ns3:hr>120</ns3:hr>
            <ns3:cad>0</ns3:cad>
          </ns3:TrackPointExtension>
        </extensions>
      </trkpt>
      <trkpt lat="45.32438627444207668304443359375" lon="-70.8077174238860607147216796875">
        <ele>787.4000244140625</ele>
        <time>2026-08-21T12:24:01.000Z</time>
        <extensions>
          <ns3:TrackPointExtension>
            <ns3:hr>120</ns3:hr>
            <ns3:cad>0</ns3:cad>
          </ns3:TrackPointExtension>
        </extensions>
      </trkpt>
      <trkpt lat="45.32437051646411418914794921875" lon="-70.80772974528372287750244140625">
        <ele>787.20001220703125</ele>
        <time>2026-08-21T12:24:02.000Z</time>
        <extensions>
          <ns3:TrackPointExtension>
            <ns3:hr>120</ns3:hr>
            <ns3:cad>0</ns3:cad>
          </ns3:TrackPointExtension>
        </extensions>
      </trkpt>
      <trkpt lat="45.32435894943773746490478515625" lon="-70.80774935893714427947998046875">
        <ele>787.20001220703125</ele>
        <time>2026-08-21T12:24:03.000Z</time>
        <extensions>
          <ns3:TrackPointExtension>
            <ns3:hr>119</ns3:hr>
            <ns3:cad>0</ns3:cad>
          </ns3:TrackPointExtension>
        </extensions>
      </trkpt>
      <trkpt lat="45.32435257919132709503173828125" lon="-70.80775849521160125732421875">
        <ele>787.20001220703125</ele>
        <time>2026-08-21T12:24:04.000Z</time>
        <extensions>
          <ns3:TrackPointExtension>
            <ns3:hr>119</ns3:hr>
            <ns3:cad>0</ns3:cad>
          </ns3:TrackPointExtension>
        </extensions>
      </trkpt>
      <trkpt lat="45.32434520311653614044189453125" lon="-70.80776997841894626617431640625">
        <ele>787.20001220703125</ele>
        <time>2026-08-21T12:24:05.000Z</time>
        <extensions>
          <ns3:TrackPointExtension>
            <ns3:hr>118</ns3:hr>
            <ns3:cad>0</ns3:cad>
          </ns3:TrackPointExtension>
        </extensions>
      </trkpt>
      <trkpt lat="45.32433740794658660888671875" lon="-70.80778255127370357513427734375">
        <ele>786.79998779296875</ele>
        <time>2026-08-21T12:24:06.000Z</time>
        <extensions>
          <ns3:TrackPointExtension>
            <ns3:hr>118</ns3:hr>
            <ns3:cad>0</ns3:cad>
          </ns3:TrackPointExtension>
        </extensions>
      </trkpt>
      <trkpt lat="45.3243332169950008392333984375" lon="-70.8077925257384777069091796875">
        <ele>786.5999755859375</ele>
        <time>2026-08-21T12:24:07.000Z</time>
        <extensions>
          <ns3:TrackPointExtension>
            <ns3:hr>118</ns3:hr>
            <ns3:cad>0</ns3:cad>
          </ns3:TrackPointExtension>
        </extensions>
      </trkpt>
      <trkpt lat="45.3243340551853179931640625" lon="-70.80779604613780975341796875">
        <ele>786.20001220703125</ele>
        <time>2026-08-21T12:24:08.000Z</time>
        <extensions>
          <ns3:TrackPointExtension>
            <ns3:hr>117</ns3:hr>
            <ns3:cad>0</ns3:cad>
          </ns3:TrackPointExtension>
        </extensions>
      </trkpt>
      <trkpt lat="45.3243275173008441925048828125" lon="-70.80780736170709133148193359375">
        <ele>785.79998779296875</ele>
        <time>2026-08-21T12:24:09.000Z</time>
        <extensions>
          <ns3:TrackPointExtension>
            <ns3:hr>117</ns3:hr>
            <ns3:cad>0</ns3:cad>
          </ns3:TrackPointExtension>
        </extensions>
      </trkpt>
      <trkpt lat="45.3243194706737995147705078125" lon="-70.80781088210642337799072265625">
        <ele>785.20001220703125</ele>
        <time>2026-08-21T12:24:10.000Z</time>
        <extensions>
          <ns3:TrackPointExtension>
            <ns3:hr>117</ns3:hr>
            <ns3:cad>0</ns3:cad>
          </ns3:TrackPointExtension>
        </extensions>
      </trkpt>
      <trkpt lat="45.32431863248348236083984375" lon="-70.8078109659254550933837890625">
        <ele>784.79998779296875</ele>
        <time>2026-08-21T12:24:11.000Z</time>
        <extensions>
          <ns3:TrackPointExtension>
            <ns3:hr>116</ns3:hr>
            <ns3:cad>0</ns3:cad>
          </ns3:TrackPointExtension>
        </extensions>
      </trkpt>
      <trkpt lat="45.3243211470544338226318359375" lon="-70.807809121906757354736328125">
        <ele>784.4000244140625</ele>
        <time>2026-08-21T12:24:12.000Z</time>
        <extensions>
          <ns3:TrackPointExtension>
            <ns3:hr>116</ns3:hr>
            <ns3:cad>0</ns3:cad>
          </ns3:TrackPointExtension>
        </extensions>
      </trkpt>
      <trkpt lat="45.3243265114724636077880859375" lon="-70.8078039251267910003662109375">
        <ele>784</ele>
        <time>2026-08-21T12:24:13.000Z</time>
        <extensions>
          <ns3:TrackPointExtension>
            <ns3:hr>116</ns3:hr>
            <ns3:cad>0</ns3:cad>
          </ns3:TrackPointExtension>
        </extensions>
      </trkpt>
      <trkpt lat="45.324326343834400177001953125" lon="-70.8078029192984104156494140625">
        <ele>783.5999755859375</ele>
        <time>2026-08-21T12:24:14.000Z</time>
        <extensions>
          <ns3:TrackPointExtension>
            <ns3:hr>116</ns3:hr>
            <ns3:cad>0</ns3:cad>
          </ns3:TrackPointExtension>
        </extensions>
      </trkpt>
      <trkpt lat="45.3243278525769710540771484375" lon="-70.807796381413936614990234375">
        <ele>783.20001220703125</ele>
        <time>2026-08-21T12:24:15.000Z</time>
        <extensions>
          <ns3:TrackPointExtension>
            <ns3:hr>116</ns3:hr>
            <ns3:cad>0</ns3:cad>
          </ns3:TrackPointExtension>
        </extensions>
      </trkpt>
      <trkpt lat="45.324329696595668792724609375" lon="-70.8077935315668582916259765625">
        <ele>783</ele>
        <time>2026-08-21T12:24:16.000Z</time>
        <extensions>
          <ns3:TrackPointExtension>
            <ns3:hr>117</ns3:hr>
            <ns3:cad>0</ns3:cad>
          </ns3:TrackPointExtension>
        </extensions>
      </trkpt>
      <trkpt lat="45.3243271820247173309326171875" lon="-70.8077881671488285064697265625">
        <ele>782.5999755859375</ele>
        <time>2026-08-21T12:24:17.000Z</time>
        <extensions>
          <ns3:TrackPointExtension>
            <ns3:hr>117</ns3:hr>
            <ns3:cad>0</ns3:cad>
          </ns3:TrackPointExtension>
        </extensions>
      </trkpt>
      <trkpt lat="45.3243244998157024383544921875" lon="-70.80778623931109905242919921875">
        <ele>782.4000244140625</ele>
        <time>2026-08-21T12:24:18.000Z</time>
        <extensions>
          <ns3:TrackPointExtension>
            <ns3:hr>117</ns3:hr>
            <ns3:cad>0</ns3:cad>
          </ns3:TrackPointExtension>
        </extensions>
      </trkpt>
      <trkpt lat="45.32432290725409984588623046875" lon="-70.80778322182595729827880859375">
        <ele>782</ele>
        <time>2026-08-21T12:24:19.000Z</time>
        <extensions>
          <ns3:TrackPointExtension>
            <ns3:hr>117</ns3:hr>
            <ns3:cad>0</ns3:cad>
          </ns3:TrackPointExtension>
        </extensions>
      </trkpt>
      <trkpt lat="45.32432273961603641510009765625" lon="-70.80777266062796115875244140625">
        <ele>781.5999755859375</ele>
        <time>2026-08-21T12:24:20.000Z</time>
        <extensions>
          <ns3:TrackPointExtension>
            <ns3:hr>116</ns3:hr>
            <ns3:cad>0</ns3:cad>
          </ns3:TrackPointExtension>
        </extensions>
      </trkpt>
      <trkpt lat="45.32432005740702152252197265625" lon="-70.8077650330960750579833984375">
        <ele>781.20001220703125</ele>
        <time>2026-08-21T12:24:21.000Z</time>
        <extensions>
          <ns3:TrackPointExtension>
            <ns3:hr>116</ns3:hr>
            <ns3:cad>0</ns3:cad>
          </ns3:TrackPointExtension>
        </extensions>
      </trkpt>
      <trkpt lat="45.32431460916996002197265625" lon="-70.80775539390742778778076171875">
        <ele>780.79998779296875</ele>
        <time>2026-08-21T12:24:22.000Z</time>
        <extensions>
          <ns3:TrackPointExtension>
            <ns3:hr>116</ns3:hr>
            <ns3:cad>77</ns3:cad>
          </ns3:TrackPointExtension>
        </extensions>
      </trkpt>
      <trkpt lat="45.32431217841804027557373046875" lon="-70.8077412284910678863525390625">
        <ele>780.5999755859375</ele>
        <time>2026-08-21T12:24:23.000Z</time>
        <extensions>
          <ns3:TrackPointExtension>
            <ns3:hr>116</ns3:hr>
            <ns3:cad>77</ns3:cad>
          </ns3:TrackPointExtension>
        </extensions>
      </trkpt>
      <trkpt lat="45.3243077360093593597412109375" lon="-70.80773008055984973907470703125">
        <ele>780.20001220703125</ele>
        <time>2026-08-21T12:24:24.000Z</time>
        <extensions>
          <ns3:TrackPointExtension>
            <ns3:hr>116</ns3:hr>
            <ns3:cad>77</ns3:cad>
          </ns3:TrackPointExtension>
        </extensions>
      </trkpt>
      <trkpt lat="45.32430279068648815155029296875" lon="-70.8077251352369785308837890625">
        <ele>779.79998779296875</ele>
        <time>2026-08-21T12:24:25.000Z</time>
        <extensions>
          <ns3:TrackPointExtension>
            <ns3:hr>117</ns3:hr>
            <ns3:cad>46</ns3:cad>
          </ns3:TrackPointExtension>
        </extensions>
      </trkpt>
      <trkpt lat="45.32429675571620464324951171875" lon="-70.8077184297144412994384765625">
        <ele>779.4000244140625</ele>
        <time>2026-08-21T12:24:26.000Z</time>
        <extensions>
          <ns3:TrackPointExtension>
            <ns3:hr>118</ns3:hr>
            <ns3:cad>46</ns3:cad>
          </ns3:TrackPointExtension>
        </extensions>
      </trkpt>
      <trkpt lat="45.32429222948849201202392578125" lon="-70.80771155655384063720703125">
        <ele>779</ele>
        <time>2026-08-21T12:24:27.000Z</time>
        <extensions>
          <ns3:TrackPointExtension>
            <ns3:hr>119</ns3:hr>
            <ns3:cad>46</ns3:cad>
          </ns3:TrackPointExtension>
        </extensions>
      </trkpt>
      <trkpt lat="45.32429122366011142730712890625" lon="-70.80770627595484256744384765625">
        <ele>778.4000244140625</ele>
        <time>2026-08-21T12:24:28.000Z</time>
        <extensions>
          <ns3:TrackPointExtension>
            <ns3:hr>120</ns3:hr>
            <ns3:cad>46</ns3:cad>
          </ns3:TrackPointExtension>
        </extensions>
      </trkpt>
      <trkpt lat="45.324289798736572265625" lon="-70.80770074389874935150146484375">
        <ele>778</ele>
        <time>2026-08-21T12:24:29.000Z</time>
        <extensions>
          <ns3:TrackPointExtension>
            <ns3:hr>121</ns3:hr>
            <ns3:cad>46</ns3:cad>
          </ns3:TrackPointExtension>
        </extensions>
      </trkpt>
      <trkpt lat="45.3242852725088596343994140625" lon="-70.80769018270075321197509765625">
        <ele>777.79998779296875</ele>
        <time>2026-08-21T12:24:30.000Z</time>
        <extensions>
          <ns3:TrackPointExtension>
            <ns3:hr>121</ns3:hr>
            <ns3:cad>46</ns3:cad>
          </ns3:TrackPointExtension>
        </extensions>
      </trkpt>
      <trkpt lat="45.32428569160401821136474609375" lon="-70.807690434157848358154296875">
        <ele>777.4000244140625</ele>
        <time>2026-08-21T12:24:31.000Z</time>
        <extensions>
          <ns3:TrackPointExtension>
            <ns3:hr>121</ns3:hr>
            <ns3:cad>46</ns3:cad>
          </ns3:TrackPointExtension>
        </extensions>
      </trkpt>
      <trkpt lat="45.3242879547178745269775390625" lon="-70.8076838962733745574951171875">
        <ele>777.4000244140625</ele>
        <time>2026-08-21T12:24:32.000Z</time>
        <extensions>
          <ns3:TrackPointExtension>
            <ns3:hr>121</ns3:hr>
            <ns3:cad>46</ns3:cad>
          </ns3:TrackPointExtension>
        </extensions>
      </trkpt>
      <trkpt lat="45.32428912818431854248046875" lon="-70.807676017284393310546875">
        <ele>777.20001220703125</ele>
        <time>2026-08-21T12:24:33.000Z</time>
        <extensions>
          <ns3:TrackPointExtension>
            <ns3:hr>121</ns3:hr>
            <ns3:cad>46</ns3:cad>
          </ns3:TrackPointExtension>
        </extensions>
      </trkpt>
      <trkpt lat="45.32428803853690624237060546875" lon="-70.80766922794282436370849609375">
        <ele>777</ele>
        <time>2026-08-21T12:24:34.000Z</time>
        <extensions>
          <ns3:TrackPointExtension>
            <ns3:hr>121</ns3:hr>
            <ns3:cad>46</ns3:cad>
          </ns3:TrackPointExtension>
        </extensions>
      </trkpt>
      <trkpt lat="45.324286781251430511474609375" lon="-70.80766101367771625518798828125">
        <ele>777</ele>
        <time>2026-08-21T12:24:35.000Z</time>
        <extensions>
          <ns3:TrackPointExtension>
            <ns3:hr>121</ns3:hr>
            <ns3:cad>0</ns3:cad>
          </ns3:TrackPointExtension>
        </extensions>
      </trkpt>
      <trkpt lat="45.32428066246211528778076171875" lon="-70.80765933729708194732666015625">
        <ele>777</ele>
        <time>2026-08-21T12:24:36.000Z</time>
        <extensions>
          <ns3:TrackPointExtension>
            <ns3:hr>121</ns3:hr>
            <ns3:cad>0</ns3:cad>
          </ns3:TrackPointExtension>
        </extensions>
      </trkpt>
      <trkpt lat="45.32427647151052951812744140625" lon="-70.8076639473438262939453125">
        <ele>777</ele>
        <time>2026-08-21T12:24:37.000Z</time>
        <extensions>
          <ns3:TrackPointExtension>
            <ns3:hr>120</ns3:hr>
            <ns3:cad>0</ns3:cad>
          </ns3:TrackPointExtension>
        </extensions>
      </trkpt>
      <trkpt lat="45.32427563332021236419677734375" lon="-70.80767274834215641021728515625">
        <ele>777</ele>
        <time>2026-08-21T12:24:38.000Z</time>
        <extensions>
          <ns3:TrackPointExtension>
            <ns3:hr>119</ns3:hr>
            <ns3:cad>0</ns3:cad>
          </ns3:TrackPointExtension>
        </extensions>
      </trkpt>
      <trkpt lat="45.32427445985376834869384765625" lon="-70.80768632702529430389404296875">
        <ele>777.20001220703125</ele>
        <time>2026-08-21T12:24:39.000Z</time>
        <extensions>
          <ns3:TrackPointExtension>
            <ns3:hr>119</ns3:hr>
            <ns3:cad>0</ns3:cad>
          </ns3:TrackPointExtension>
        </extensions>
      </trkpt>
      <trkpt lat="45.3242723643779754638671875" lon="-70.80769303254783153533935546875">
        <ele>777.20001220703125</ele>
        <time>2026-08-21T12:24:40.000Z</time>
        <extensions>
          <ns3:TrackPointExtension>
            <ns3:hr>118</ns3:hr>
            <ns3:cad>0</ns3:cad>
          </ns3:TrackPointExtension>
        </extensions>
      </trkpt>
      <trkpt lat="45.32427194528281688690185546875" lon="-70.8077041804790496826171875">
        <ele>777.4000244140625</ele>
        <time>2026-08-21T12:24:41.000Z</time>
        <extensions>
          <ns3:TrackPointExtension>
            <ns3:hr>117</ns3:hr>
            <ns3:cad>0</ns3:cad>
          </ns3:TrackPointExtension>
        </extensions>
      </trkpt>
      <trkpt lat="45.324270687997341156005859375" lon="-70.80770795233547687530517578125">
        <ele>777.5999755859375</ele>
        <time>2026-08-21T12:24:42.000Z</time>
        <extensions>
          <ns3:TrackPointExtension>
            <ns3:hr>117</ns3:hr>
            <ns3:cad>0</ns3:cad>
          </ns3:TrackPointExtension>
        </extensions>
      </trkpt>
      <trkpt lat="45.32426976598799228668212890625" lon="-70.80770979635417461395263671875">
        <ele>777.79998779296875</ele>
        <time>2026-08-21T12:24:43.000Z</time>
        <extensions>
          <ns3:TrackPointExtension>
            <ns3:hr>117</ns3:hr>
            <ns3:cad>0</ns3:cad>
          </ns3:TrackPointExtension>
        </extensions>
      </trkpt>
      <trkpt lat="45.32427479512989521026611328125" lon="-70.80771180801093578338623046875">
        <ele>778</ele>
        <time>2026-08-21T12:24:44.000Z</time>
        <extensions>
          <ns3:TrackPointExtension>
            <ns3:hr>117</ns3:hr>
            <ns3:cad>0</ns3:cad>
          </ns3:TrackPointExtension>
        </extensions>
      </trkpt>
      <trkpt lat="45.324271023273468017578125" lon="-70.80770644359290599822998046875">
        <ele>778.20001220703125</ele>
        <time>2026-08-21T12:24:45.000Z</time>
        <extensions>
          <ns3:TrackPointExtension>
            <ns3:hr>117</ns3:hr>
            <ns3:cad>0</ns3:cad>
          </ns3:TrackPointExtension>
        </extensions>
      </trkpt>
      <trkpt lat="45.32426892779767513275146484375" lon="-70.80770376138389110565185546875">
        <ele>778.20001220703125</ele>
        <time>2026-08-21T12:24:46.000Z</time>
        <extensions>
          <ns3:TrackPointExtension>
            <ns3:hr>118</ns3:hr>
            <ns3:cad>0</ns3:cad>
          </ns3:TrackPointExtension>
        </extensions>
      </trkpt>
      <trkpt lat="45.3242648206651210784912109375" lon="-70.8077020011842250823974609375">
        <ele>778.20001220703125</ele>
        <time>2026-08-21T12:24:47.000Z</time>
        <extensions>
          <ns3:TrackPointExtension>
            <ns3:hr>119</ns3:hr>
            <ns3:cad>0</ns3:cad>
          </ns3:TrackPointExtension>
        </extensions>
      </trkpt>
      <trkpt lat="45.324264653027057647705078125" lon="-70.80770560540258884429931640625">
        <ele>778.20001220703125</ele>
        <time>2026-08-21T12:24:48.000Z</time>
        <extensions>
          <ns3:TrackPointExtension>
            <ns3:hr>120</ns3:hr>
            <ns3:cad>0</ns3:cad>
          </ns3:TrackPointExtension>
        </extensions>
      </trkpt>
      <trkpt lat="45.32426456920802593231201171875" lon="-70.80771155655384063720703125">
        <ele>778.20001220703125</ele>
        <time>2026-08-21T12:24:49.000Z</time>
        <extensions>
          <ns3:TrackPointExtension>
            <ns3:hr>120</ns3:hr>
            <ns3:cad>0</ns3:cad>
          </ns3:TrackPointExtension>
        </extensions>
      </trkpt>
      <trkpt lat="45.32426238991320133209228515625" lon="-70.80771021544933319091796875">
        <ele>778.20001220703125</ele>
        <time>2026-08-21T12:24:50.000Z</time>
        <extensions>
          <ns3:TrackPointExtension>
            <ns3:hr>121</ns3:hr>
            <ns3:cad>0</ns3:cad>
          </ns3:TrackPointExtension>
        </extensions>
      </trkpt>
      <trkpt lat="45.32425937242805957794189453125" lon="-70.80771046690642833709716796875">
        <ele>778.20001220703125</ele>
        <time>2026-08-21T12:24:51.000Z</time>
        <extensions>
          <ns3:TrackPointExtension>
            <ns3:hr>120</ns3:hr>
            <ns3:cad>0</ns3:cad>
          </ns3:TrackPointExtension>
        </extensions>
      </trkpt>
      <trkpt lat="45.3242581151425838470458984375" lon="-70.80771029926836490631103515625">
        <ele>778.4000244140625</ele>
        <time>2026-08-21T12:24:52.000Z</time>
        <extensions>
          <ns3:TrackPointExtension>
            <ns3:hr>119</ns3:hr>
            <ns3:cad>0</ns3:cad>
          </ns3:TrackPointExtension>
        </extensions>
      </trkpt>
      <trkpt lat="45.324256606400012969970703125" lon="-70.80770912580192089080810546875">
        <ele>778.4000244140625</ele>
        <time>2026-08-21T12:24:53.000Z</time>
        <extensions>
          <ns3:TrackPointExtension>
            <ns3:hr>118</ns3:hr>
            <ns3:cad>0</ns3:cad>
          </ns3:TrackPointExtension>
        </extensions>
      </trkpt>
      <trkpt lat="45.3242562711238861083984375" lon="-70.8077087067067623138427734375">
        <ele>778.4000244140625</ele>
        <time>2026-08-21T12:24:54.000Z</time>
        <extensions>
          <ns3:TrackPointExtension>
            <ns3:hr>118</ns3:hr>
            <ns3:cad>0</ns3:cad>
          </ns3:TrackPointExtension>
        </extensions>
      </trkpt>
      <trkpt lat="45.3242557682096958160400390625" lon="-70.80770795233547687530517578125">
        <ele>778.4000244140625</ele>
        <time>2026-08-21T12:24:55.000Z</time>
        <extensions>
          <ns3:TrackPointExtension>
            <ns3:hr>118</ns3:hr>
            <ns3:cad>0</ns3:cad>
          </ns3:TrackPointExtension>
        </extensions>
      </trkpt>
      <trkpt lat="45.32425400801002979278564453125" lon="-70.807705186307430267333984375">
        <ele>778.4000244140625</ele>
        <time>2026-08-21T12:24:56.000Z</time>
        <extensions>
          <ns3:TrackPointExtension>
            <ns3:hr>118</ns3:hr>
            <ns3:cad>0</ns3:cad>
          </ns3:TrackPointExtension>
        </extensions>
      </trkpt>
      <trkpt lat="45.32425585202872753143310546875" lon="-70.8076988160610198974609375">
        <ele>778.4000244140625</ele>
        <time>2026-08-21T12:24:57.000Z</time>
        <extensions>
          <ns3:TrackPointExtension>
            <ns3:hr>118</ns3:hr>
            <ns3:cad>0</ns3:cad>
          </ns3:TrackPointExtension>
        </extensions>
      </trkpt>
      <trkpt lat="45.32425434328615665435791015625" lon="-70.80769487656652927398681640625">
        <ele>778.20001220703125</ele>
        <time>2026-08-21T12:24:58.000Z</time>
        <extensions>
          <ns3:TrackPointExtension>
            <ns3:hr>118</ns3:hr>
            <ns3:cad>0</ns3:cad>
          </ns3:TrackPointExtension>
        </extensions>
      </trkpt>
      <trkpt lat="45.32425417564809322357177734375" lon="-70.80768364481627941131591796875">
        <ele>778.20001220703125</ele>
        <time>2026-08-21T12:24:59.000Z</time>
        <extensions>
          <ns3:TrackPointExtension>
            <ns3:hr>118</ns3:hr>
            <ns3:cad>0</ns3:cad>
          </ns3:TrackPointExtension>
        </extensions>
      </trkpt>
      <trkpt lat="45.32425752840936183929443359375" lon="-70.80768205225467681884765625">
        <ele>778</ele>
        <time>2026-08-21T12:25:00.000Z</time>
        <extensions>
          <ns3:TrackPointExtension>
            <ns3:hr>118</ns3:hr>
            <ns3:cad>0</ns3:cad>
          </ns3:TrackPointExtension>
        </extensions>
      </trkpt>
      <trkpt lat="45.3242589533329010009765625" lon="-70.80767811276018619537353515625">
        <ele>778</ele>
        <time>2026-08-21T12:25:01.000Z</time>
        <extensions>
          <ns3:TrackPointExtension>
            <ns3:hr>119</ns3:hr>
            <ns3:cad>0</ns3:cad>
          </ns3:TrackPointExtension>
        </extensions>
      </trkpt>
      <trkpt lat="45.32425425946712493896484375" lon="-70.807678364217281341552734375">
        <ele>778</ele>
        <time>2026-08-21T12:25:02.000Z</time>
        <extensions>
          <ns3:TrackPointExtension>
            <ns3:hr>119</ns3:hr>
            <ns3:cad>0</ns3:cad>
          </ns3:TrackPointExtension>
        </extensions>
      </trkpt>
      <trkpt lat="45.32425132580101490020751953125" lon="-70.8076880872249603271484375">
        <ele>778</ele>
        <time>2026-08-21T12:25:03.000Z</time>
        <extensions>
          <ns3:TrackPointExtension>
            <ns3:hr>120</ns3:hr>
            <ns3:cad>0</ns3:cad>
          </ns3:TrackPointExtension>
        </extensions>
      </trkpt>
      <trkpt lat="45.32424964942038059234619140625" lon="-70.80768548883497714996337890625">
        <ele>778</ele>
        <time>2026-08-21T12:25:04.000Z</time>
        <extensions>
          <ns3:TrackPointExtension>
            <ns3:hr>124</ns3:hr>
            <ns3:cad>0</ns3:cad>
          </ns3:TrackPointExtension>
        </extensions>
      </trkpt>
      <trkpt lat="45.32424964942038059234619140625" lon="-70.807677023112773895263671875">
        <ele>778.20001220703125</ele>
        <time>2026-08-21T12:25:05.000Z</time>
        <extensions>
          <ns3:TrackPointExtension>
            <ns3:hr>125</ns3:hr>
            <ns3:cad>0</ns3:cad>
          </ns3:TrackPointExtension>
        </extensions>
      </trkpt>
      <trkpt lat="45.3242490626871585845947265625" lon="-70.8076738379895687103271484375">
        <ele>778</ele>
        <time>2026-08-21T12:25:06.000Z</time>
        <extensions>
          <ns3:TrackPointExtension>
            <ns3:hr>126</ns3:hr>
            <ns3:cad>0</ns3:cad>
          </ns3:TrackPointExtension>
        </extensions>
      </trkpt>
      <trkpt lat="45.32424755394458770751953125" lon="-70.80767040140926837921142578125">
        <ele>778</ele>
        <time>2026-08-21T12:25:07.000Z</time>
        <extensions>
          <ns3:TrackPointExtension>
            <ns3:hr>127</ns3:hr>
            <ns3:cad>0</ns3:cad>
          </ns3:TrackPointExtension>
        </extensions>
      </trkpt>
      <trkpt lat="45.32424663193523883819580078125" lon="-70.807668976485729217529296875">
        <ele>778</ele>
        <time>2026-08-21T12:25:08.000Z</time>
        <extensions>
          <ns3:TrackPointExtension>
            <ns3:hr>127</ns3:hr>
            <ns3:cad>0</ns3:cad>
          </ns3:TrackPointExtension>
        </extensions>
      </trkpt>
      <trkpt lat="45.3242527507245540618896484375" lon="-70.80767056904733180999755859375">
        <ele>778</ele>
        <time>2026-08-21T12:25:09.000Z</time>
        <extensions>
          <ns3:TrackPointExtension>
            <ns3:hr>126</ns3:hr>
            <ns3:cad>0</ns3:cad>
          </ns3:TrackPointExtension>
        </extensions>
      </trkpt>
      <trkpt lat="45.32425903715193271636962890625" lon="-70.80766973085701465606689453125">
        <ele>778</ele>
        <time>2026-08-21T12:25:10.000Z</time>
        <extensions>
          <ns3:TrackPointExtension>
            <ns3:hr>127</ns3:hr>
            <ns3:cad>0</ns3:cad>
          </ns3:TrackPointExtension>
        </extensions>
      </trkpt>
      <trkpt lat="45.324257276952266693115234375" lon="-70.807663612067699432373046875">
        <ele>778</ele>
        <time>2026-08-21T12:25:11.000Z</time>
        <extensions>
          <ns3:TrackPointExtension>
            <ns3:hr>126</ns3:hr>
            <ns3:cad>0</ns3:cad>
          </ns3:TrackPointExtension>
        </extensions>
      </trkpt>
      <trkpt lat="45.3242618031799793243408203125" lon="-70.80765699036419391632080078125">
        <ele>777.79998779296875</ele>
        <time>2026-08-21T12:25:12.000Z</time>
        <extensions>
          <ns3:TrackPointExtension>
            <ns3:hr>126</ns3:hr>
            <ns3:cad>0</ns3:cad>
          </ns3:TrackPointExtension>
        </extensions>
      </trkpt>
      <trkpt lat="45.32426591031253337860107421875" lon="-70.80765129067003726959228515625">
        <ele>777.79998779296875</ele>
        <time>2026-08-21T12:25:13.000Z</time>
        <extensions>
          <ns3:TrackPointExtension>
            <ns3:hr>126</ns3:hr>
            <ns3:cad>0</ns3:cad>
          </ns3:TrackPointExtension>
        </extensions>
      </trkpt>
      <trkpt lat="45.32426088117063045501708984375" lon="-70.80765363760292530059814453125">
        <ele>777.79998779296875</ele>
        <time>2026-08-21T12:25:14.000Z</time>
        <extensions>
          <ns3:TrackPointExtension>
            <ns3:hr>125</ns3:hr>
            <ns3:cad>0</ns3:cad>
          </ns3:TrackPointExtension>
        </extensions>
      </trkpt>
      <trkpt lat="45.3242561034858226776123046875" lon="-70.80764894373714923858642578125">
        <ele>777.5999755859375</ele>
        <time>2026-08-21T12:25:15.000Z</time>
        <extensions>
          <ns3:TrackPointExtension>
            <ns3:hr>124</ns3:hr>
            <ns3:cad>0</ns3:cad>
          </ns3:TrackPointExtension>
        </extensions>
      </trkpt>
      <trkpt lat="45.32425384037196636199951171875" lon="-70.80764609389007091522216796875">
        <ele>777.5999755859375</ele>
        <time>2026-08-21T12:25:16.000Z</time>
        <extensions>
          <ns3:TrackPointExtension>
            <ns3:hr>123</ns3:hr>
            <ns3:cad>0</ns3:cad>
          </ns3:TrackPointExtension>
        </extensions>
      </trkpt>
      <trkpt lat="45.324257947504520416259765625" lon="-70.8076436631381511688232421875">
        <ele>777.5999755859375</ele>
        <time>2026-08-21T12:25:17.000Z</time>
        <extensions>
          <ns3:TrackPointExtension>
            <ns3:hr>122</ns3:hr>
            <ns3:cad>0</ns3:cad>
          </ns3:TrackPointExtension>
        </extensions>
      </trkpt>
      <trkpt lat="45.32426238991320133209228515625" lon="-70.80763687379658222198486328125">
        <ele>777.5999755859375</ele>
        <time>2026-08-21T12:25:18.000Z</time>
        <extensions>
          <ns3:TrackPointExtension>
            <ns3:hr>120</ns3:hr>
            <ns3:cad>0</ns3:cad>
          </ns3:TrackPointExtension>
        </extensions>
      </trkpt>
      <trkpt lat="45.32426808960735797882080078125" lon="-70.8076255582273006439208984375">
        <ele>777.5999755859375</ele>
        <time>2026-08-21T12:25:19.000Z</time>
        <extensions>
          <ns3:TrackPointExtension>
            <ns3:hr>118</ns3:hr>
            <ns3:cad>0</ns3:cad>
          </ns3:TrackPointExtension>
        </extensions>
      </trkpt>
      <trkpt lat="45.32426758669316768646240234375" lon="-70.80761759541928768157958984375">
        <ele>777.5999755859375</ele>
        <time>2026-08-21T12:25:20.000Z</time>
        <extensions>
          <ns3:TrackPointExtension>
            <ns3:hr>117</ns3:hr>
            <ns3:cad>0</ns3:cad>
          </ns3:TrackPointExtension>
        </extensions>
      </trkpt>
      <trkpt lat="45.324268341064453125" lon="-70.8076111413538455963134765625">
        <ele>777.5999755859375</ele>
        <time>2026-08-21T12:25:21.000Z</time>
        <extensions>
          <ns3:TrackPointExtension>
            <ns3:hr>117</ns3:hr>
            <ns3:cad>0</ns3:cad>
          </ns3:TrackPointExtension>
        </extensions>
      </trkpt>
      <trkpt lat="45.324265323579311370849609375" lon="-70.8076051063835620880126953125">
        <ele>777.79998779296875</ele>
        <time>2026-08-21T12:25:22.000Z</time>
        <extensions>
          <ns3:TrackPointExtension>
            <ns3:hr>117</ns3:hr>
            <ns3:cad>0</ns3:cad>
          </ns3:TrackPointExtension>
        </extensions>
      </trkpt>
      <trkpt lat="45.3242644853889942169189453125" lon="-70.80759278498589992523193359375">
        <ele>778</ele>
        <time>2026-08-21T12:25:23.000Z</time>
        <extensions>
          <ns3:TrackPointExtension>
            <ns3:hr>117</ns3:hr>
            <ns3:cad>0</ns3:cad>
          </ns3:TrackPointExtension>
        </extensions>
      </trkpt>
      <trkpt lat="45.32426138408482074737548828125" lon="-70.80758876167237758636474609375">
        <ele>778.20001220703125</ele>
        <time>2026-08-21T12:25:24.000Z</time>
        <extensions>
          <ns3:TrackPointExtension>
            <ns3:hr>116</ns3:hr>
            <ns3:cad>0</ns3:cad>
          </ns3:TrackPointExtension>
        </extensions>
      </trkpt>
      <trkpt lat="45.32425316981971263885498046875" lon="-70.80758750438690185546875">
        <ele>778.4000244140625</ele>
        <time>2026-08-21T12:25:25.000Z</time>
        <extensions>
          <ns3:TrackPointExtension>
            <ns3:hr>116</ns3:hr>
            <ns3:cad>0</ns3:cad>
          </ns3:TrackPointExtension>
        </extensions>
      </trkpt>
      <trkpt lat="45.32424814067780971527099609375" lon="-70.8075880073010921478271484375">
        <ele>778.79998779296875</ele>
        <time>2026-08-21T12:25:26.000Z</time>
        <extensions>
          <ns3:TrackPointExtension>
            <ns3:hr>116</ns3:hr>
            <ns3:cad>0</ns3:cad>
          </ns3:TrackPointExtension>
        </extensions>
      </trkpt>
      <trkpt lat="45.3242440335452556610107421875" lon="-70.80758272670209407806396484375">
        <ele>779</ele>
        <time>2026-08-21T12:25:27.000Z</time>
        <extensions>
          <ns3:TrackPointExtension>
            <ns3:hr>117</ns3:hr>
            <ns3:cad>0</ns3:cad>
          </ns3:TrackPointExtension>
        </extensions>
      </trkpt>
      <trkpt lat="45.32423540018498897552490234375" lon="-70.80757400952279567718505859375">
        <ele>779.20001220703125</ele>
        <time>2026-08-21T12:25:28.000Z</time>
        <extensions>
          <ns3:TrackPointExtension>
            <ns3:hr>117</ns3:hr>
            <ns3:cad>0</ns3:cad>
          </ns3:TrackPointExtension>
        </extensions>
      </trkpt>
      <trkpt lat="45.3242339752614498138427734375" lon="-70.8075735904276371002197265625">
        <ele>779.4000244140625</ele>
        <time>2026-08-21T12:25:29.000Z</time>
        <extensions>
          <ns3:TrackPointExtension>
            <ns3:hr>117</ns3:hr>
            <ns3:cad>0</ns3:cad>
          </ns3:TrackPointExtension>
        </extensions>
      </trkpt>
      <trkpt lat="45.324230454862117767333984375" lon="-70.8075700700283050537109375">
        <ele>779.79998779296875</ele>
        <time>2026-08-21T12:25:30.000Z</time>
        <extensions>
          <ns3:TrackPointExtension>
            <ns3:hr>116</ns3:hr>
            <ns3:cad>0</ns3:cad>
          </ns3:TrackPointExtension>
        </extensions>
      </trkpt>
      <trkpt lat="45.32423011958599090576171875" lon="-70.8075673878192901611328125">
        <ele>780.20001220703125</ele>
        <time>2026-08-21T12:25:31.000Z</time>
        <extensions>
          <ns3:TrackPointExtension>
            <ns3:hr>116</ns3:hr>
            <ns3:cad>0</ns3:cad>
          </ns3:TrackPointExtension>
        </extensions>
      </trkpt>
      <trkpt lat="45.32422366552054882049560546875" lon="-70.80756261013448238372802734375">
        <ele>780.5999755859375</ele>
        <time>2026-08-21T12:25:32.000Z</time>
        <extensions>
          <ns3:TrackPointExtension>
            <ns3:hr>116</ns3:hr>
            <ns3:cad>0</ns3:cad>
          </ns3:TrackPointExtension>
        </extensions>
      </trkpt>
      <trkpt lat="45.32422249205410480499267578125" lon="-70.8075673878192901611328125">
        <ele>780.79998779296875</ele>
        <time>2026-08-21T12:25:33.000Z</time>
        <extensions>
          <ns3:TrackPointExtension>
            <ns3:hr>117</ns3:hr>
            <ns3:cad>0</ns3:cad>
          </ns3:TrackPointExtension>
        </extensions>
      </trkpt>
      <trkpt lat="45.3242192231118679046630859375" lon="-70.80756998620927333831787109375">
        <ele>781.20001220703125</ele>
        <time>2026-08-21T12:25:34.000Z</time>
        <extensions>
          <ns3:TrackPointExtension>
            <ns3:hr>117</ns3:hr>
            <ns3:cad>0</ns3:cad>
          </ns3:TrackPointExtension>
        </extensions>
      </trkpt>
      <trkpt lat="45.3242175467312335968017578125" lon="-70.80757074058055877685546875">
        <ele>781.4000244140625</ele>
        <time>2026-08-21T12:25:35.000Z</time>
        <extensions>
          <ns3:TrackPointExtension>
            <ns3:hr>117</ns3:hr>
            <ns3:cad>0</ns3:cad>
          </ns3:TrackPointExtension>
        </extensions>
      </trkpt>
      <trkpt lat="45.32422115094959735870361328125" lon="-70.80757199786603450775146484375">
        <ele>781.79998779296875</ele>
        <time>2026-08-21T12:25:36.000Z</time>
        <extensions>
          <ns3:TrackPointExtension>
            <ns3:hr>117</ns3:hr>
            <ns3:cad>0</ns3:cad>
          </ns3:TrackPointExtension>
        </extensions>
      </trkpt>
      <trkpt lat="45.32421377487480640411376953125" lon="-70.8075766079127788543701171875">
        <ele>782</ele>
        <time>2026-08-21T12:25:37.000Z</time>
        <extensions>
          <ns3:TrackPointExtension>
            <ns3:hr>117</ns3:hr>
            <ns3:cad>0</ns3:cad>
          </ns3:TrackPointExtension>
        </extensions>
      </trkpt>
      <trkpt lat="45.3242061473429203033447265625" lon="-70.807573087513446807861328125">
        <ele>782.4000244140625</ele>
        <time>2026-08-21T12:25:38.000Z</time>
        <extensions>
          <ns3:TrackPointExtension>
            <ns3:hr>116</ns3:hr>
            <ns3:cad>0</ns3:cad>
          </ns3:TrackPointExtension>
        </extensions>
      </trkpt>
      <trkpt lat="45.32421008683741092681884765625" lon="-70.80757283605635166168212890625">
        <ele>782.5999755859375</ele>
        <time>2026-08-21T12:25:39.000Z</time>
        <extensions>
          <ns3:TrackPointExtension>
            <ns3:hr>117</ns3:hr>
            <ns3:cad>0</ns3:cad>
          </ns3:TrackPointExtension>
        </extensions>
      </trkpt>
      <trkpt lat="45.32421075738966464996337890625" lon="-70.8075715787708759307861328125">
        <ele>782.79998779296875</ele>
        <time>2026-08-21T12:25:40.000Z</time>
        <extensions>
          <ns3:TrackPointExtension>
            <ns3:hr>117</ns3:hr>
            <ns3:cad>0</ns3:cad>
          </ns3:TrackPointExtension>
        </extensions>
      </trkpt>
      <trkpt lat="45.3242068178951740264892578125" lon="-70.8075705729424953460693359375">
        <ele>783</ele>
        <time>2026-08-21T12:25:41.000Z</time>
        <extensions>
          <ns3:TrackPointExtension>
            <ns3:hr>117</ns3:hr>
            <ns3:cad>0</ns3:cad>
          </ns3:TrackPointExtension>
        </extensions>
      </trkpt>
      <trkpt lat="45.32420195639133453369140625" lon="-70.807569064199924468994140625">
        <ele>783.20001220703125</ele>
        <time>2026-08-21T12:25:42.000Z</time>
        <extensions>
          <ns3:TrackPointExtension>
            <ns3:hr>118</ns3:hr>
            <ns3:cad>0</ns3:cad>
          </ns3:TrackPointExtension>
        </extensions>
      </trkpt>
      <trkpt lat="45.32419860363006591796875" lon="-70.80757074058055877685546875">
        <ele>783.5999755859375</ele>
        <time>2026-08-21T12:25:43.000Z</time>
        <extensions>
          <ns3:TrackPointExtension>
            <ns3:hr>119</ns3:hr>
            <ns3:cad>0</ns3:cad>
          </ns3:TrackPointExtension>
        </extensions>
      </trkpt>
      <trkpt lat="45.32419533468782901763916015625" lon="-70.80757484771311283111572265625">
        <ele>783.79998779296875</ele>
        <time>2026-08-21T12:25:44.000Z</time>
        <extensions>
          <ns3:TrackPointExtension>
            <ns3:hr>119</ns3:hr>
            <ns3:cad>0</ns3:cad>
          </ns3:TrackPointExtension>
        </extensions>
      </trkpt>
      <trkpt lat="45.3241937421262264251708984375" lon="-70.8075809665024280548095703125">
        <ele>784.20001220703125</ele>
        <time>2026-08-21T12:25:45.000Z</time>
        <extensions>
          <ns3:TrackPointExtension>
            <ns3:hr>119</ns3:hr>
            <ns3:cad>0</ns3:cad>
          </ns3:TrackPointExtension>
        </extensions>
      </trkpt>
      <trkpt lat="45.32419349066913127899169921875" lon="-70.80758691765367984771728515625">
        <ele>784.4000244140625</ele>
        <time>2026-08-21T12:25:46.000Z</time>
        <extensions>
          <ns3:TrackPointExtension>
            <ns3:hr>120</ns3:hr>
            <ns3:cad>0</ns3:cad>
          </ns3:TrackPointExtension>
        </extensions>
      </trkpt>
      <trkpt lat="45.32419164665043354034423828125" lon="-70.80759161151945590972900390625">
        <ele>784.5999755859375</ele>
        <time>2026-08-21T12:25:47.000Z</time>
        <extensions>
          <ns3:TrackPointExtension>
            <ns3:hr>126</ns3:hr>
            <ns3:cad>0</ns3:cad>
          </ns3:TrackPointExtension>
        </extensions>
      </trkpt>
      <trkpt lat="45.324184186756610870361328125" lon="-70.8075933717191219329833984375">
        <ele>784.79998779296875</ele>
        <time>2026-08-21T12:25:48.000Z</time>
        <extensions>
          <ns3:TrackPointExtension>
            <ns3:hr>132</ns3:hr>
            <ns3:cad>0</ns3:cad>
          </ns3:TrackPointExtension>
        </extensions>
      </trkpt>
      <trkpt lat="45.3241830132901668548583984375" lon="-70.80759488046169281005859375">
        <ele>785</ele>
        <time>2026-08-21T12:25:49.000Z</time>
        <extensions>
          <ns3:TrackPointExtension>
            <ns3:hr>132</ns3:hr>
            <ns3:cad>0</ns3:cad>
          </ns3:TrackPointExtension>
        </extensions>
      </trkpt>
      <trkpt lat="45.32418041490018367767333984375" lon="-70.8075984008610248565673828125">
        <ele>785.20001220703125</ele>
        <time>2026-08-21T12:25:50.000Z</time>
        <extensions>
          <ns3:TrackPointExtension>
            <ns3:hr>132</ns3:hr>
            <ns3:cad>0</ns3:cad>
          </ns3:TrackPointExtension>
        </extensions>
      </trkpt>
      <trkpt lat="45.32417706213891506195068359375" lon="-70.80759881995618343353271484375">
        <ele>785.4000244140625</ele>
        <time>2026-08-21T12:25:51.000Z</time>
        <extensions>
          <ns3:TrackPointExtension>
            <ns3:hr>133</ns3:hr>
            <ns3:cad>0</ns3:cad>
          </ns3:TrackPointExtension>
        </extensions>
      </trkpt>
      <trkpt lat="45.32417555339634418487548828125" lon="-70.80759831704199314117431640625">
        <ele>785.5999755859375</ele>
        <time>2026-08-21T12:25:52.000Z</time>
        <extensions>
          <ns3:TrackPointExtension>
            <ns3:hr>133</ns3:hr>
            <ns3:cad>0</ns3:cad>
          </ns3:TrackPointExtension>
        </extensions>
      </trkpt>
      <trkpt lat="45.32417236827313899993896484375" lon="-70.8075980655848979949951171875">
        <ele>785.79998779296875</ele>
        <time>2026-08-21T12:25:53.000Z</time>
        <extensions>
          <ns3:TrackPointExtension>
            <ns3:hr>134</ns3:hr>
            <ns3:cad>0</ns3:cad>
          </ns3:TrackPointExtension>
        </extensions>
      </trkpt>
      <trkpt lat="45.32417337410151958465576171875" lon="-70.8075937069952487945556640625">
        <ele>786</ele>
        <time>2026-08-21T12:25:54.000Z</time>
        <extensions>
          <ns3:TrackPointExtension>
            <ns3:hr>135</ns3:hr>
            <ns3:cad>0</ns3:cad>
          </ns3:TrackPointExtension>
        </extensions>
      </trkpt>
      <trkpt lat="45.3241706080734729766845703125" lon="-70.807588510215282440185546875">
        <ele>786.20001220703125</ele>
        <time>2026-08-21T12:25:55.000Z</time>
        <extensions>
          <ns3:TrackPointExtension>
            <ns3:hr>135</ns3:hr>
            <ns3:cad>0</ns3:cad>
          </ns3:TrackPointExtension>
        </extensions>
      </trkpt>
      <trkpt lat="45.32417018897831439971923828125" lon="-70.80758540891110897064208984375">
        <ele>786.4000244140625</ele>
        <time>2026-08-21T12:25:56.000Z</time>
        <extensions>
          <ns3:TrackPointExtension>
            <ns3:hr>136</ns3:hr>
            <ns3:cad>0</ns3:cad>
          </ns3:TrackPointExtension>
        </extensions>
      </trkpt>
      <trkpt lat="45.3241712786257266998291015625" lon="-70.80758373253047466278076171875">
        <ele>786.5999755859375</ele>
        <time>2026-08-21T12:25:57.000Z</time>
        <extensions>
          <ns3:TrackPointExtension>
            <ns3:hr>137</ns3:hr>
            <ns3:cad>0</ns3:cad>
          </ns3:TrackPointExtension>
        </extensions>
      </trkpt>
      <trkpt lat="45.324166752398014068603515625" lon="-70.8075813017785549163818359375">
        <ele>786.79998779296875</ele>
        <time>2026-08-21T12:25:58.000Z</time>
        <extensions>
          <ns3:TrackPointExtension>
            <ns3:hr>138</ns3:hr>
            <ns3:cad>0</ns3:cad>
          </ns3:TrackPointExtension>
        </extensions>
      </trkpt>
      <trkpt lat="45.3241672553122043609619140625" lon="-70.807584486901760101318359375">
        <ele>787</ele>
        <time>2026-08-21T12:25:59.000Z</time>
        <extensions>
          <ns3:TrackPointExtension>
            <ns3:hr>140</ns3:hr>
            <ns3:cad>0</ns3:cad>
          </ns3:TrackPointExtension>
        </extensions>
      </trkpt>
      <trkpt lat="45.324162058532238006591796875" lon="-70.80758222378790378570556640625">
        <ele>787.20001220703125</ele>
        <time>2026-08-21T12:26:00.000Z</time>
        <extensions>
          <ns3:TrackPointExtension>
            <ns3:hr>141</ns3:hr>
            <ns3:cad>0</ns3:cad>
          </ns3:TrackPointExtension>
        </extensions>
      </trkpt>
      <trkpt lat="45.3241625614464282989501953125" lon="-70.80758155323565006256103515625">
        <ele>787.4000244140625</ele>
        <time>2026-08-21T12:26:01.000Z</time>
        <extensions>
          <ns3:TrackPointExtension>
            <ns3:hr>141</ns3:hr>
            <ns3:cad>0</ns3:cad>
          </ns3:TrackPointExtension>
        </extensions>
      </trkpt>
      <trkpt lat="45.32416306436061859130859375" lon="-70.8075849898159503936767578125">
        <ele>787.79998779296875</ele>
        <time>2026-08-21T12:26:02.000Z</time>
        <extensions>
          <ns3:TrackPointExtension>
            <ns3:hr>140</ns3:hr>
            <ns3:cad>0</ns3:cad>
          </ns3:TrackPointExtension>
        </extensions>
      </trkpt>
      <trkpt lat="45.32416767440736293792724609375" lon="-70.80759328790009021759033203125">
        <ele>788</ele>
        <time>2026-08-21T12:26:03.000Z</time>
        <extensions>
          <ns3:TrackPointExtension>
            <ns3:hr>140</ns3:hr>
            <ns3:cad>0</ns3:cad>
          </ns3:TrackPointExtension>
        </extensions>
      </trkpt>
      <trkpt lat="45.32416750676929950714111328125" lon="-70.80758675001561641693115234375">
        <ele>788.20001220703125</ele>
        <time>2026-08-21T12:26:04.000Z</time>
        <extensions>
          <ns3:TrackPointExtension>
            <ns3:hr>140</ns3:hr>
            <ns3:cad>0</ns3:cad>
          </ns3:TrackPointExtension>
        </extensions>
      </trkpt>
      <trkpt lat="45.32416574656963348388671875" lon="-70.80758624710142612457275390625">
        <ele>788.4000244140625</ele>
        <time>2026-08-21T12:26:05.000Z</time>
        <extensions>
          <ns3:TrackPointExtension>
            <ns3:hr>139</ns3:hr>
            <ns3:cad>0</ns3:cad>
          </ns3:TrackPointExtension>
        </extensions>
      </trkpt>
      <trkpt lat="45.3241565264761447906494140625" lon="-70.8075792901217937469482421875">
        <ele>788.79998779296875</ele>
        <time>2026-08-21T12:26:06.000Z</time>
        <extensions>
          <ns3:TrackPointExtension>
            <ns3:hr>138</ns3:hr>
            <ns3:cad>0</ns3:cad>
          </ns3:TrackPointExtension>
        </extensions>
      </trkpt>
      <trkpt lat="45.3241570293903350830078125" lon="-70.8075819723308086395263671875">
        <ele>789</ele>
        <time>2026-08-21T12:26:07.000Z</time>
        <extensions>
          <ns3:TrackPointExtension>
            <ns3:hr>139</ns3:hr>
            <ns3:cad>0</ns3:cad>
          </ns3:TrackPointExtension>
        </extensions>
      </trkpt>
      <trkpt lat="45.32415828667581081390380859375" lon="-70.80758155323565006256103515625">
        <ele>789.20001220703125</ele>
        <time>2026-08-21T12:26:08.000Z</time>
        <extensions>
          <ns3:TrackPointExtension>
            <ns3:hr>139</ns3:hr>
            <ns3:cad>0</ns3:cad>
          </ns3:TrackPointExtension>
        </extensions>
      </trkpt>
      <trkpt lat="45.32415367662906646728515625" lon="-70.80757937394082546234130859375">
        <ele>789.4000244140625</ele>
        <time>2026-08-21T12:26:09.000Z</time>
        <extensions>
          <ns3:TrackPointExtension>
            <ns3:hr>139</ns3:hr>
            <ns3:cad>0</ns3:cad>
          </ns3:TrackPointExtension>
        </extensions>
      </trkpt>
      <trkpt lat="45.324151329696178436279296875" lon="-70.80757208168506622314453125">
        <ele>789.5999755859375</ele>
        <time>2026-08-21T12:26:10.000Z</time>
        <extensions>
          <ns3:TrackPointExtension>
            <ns3:hr>139</ns3:hr>
            <ns3:cad>0</ns3:cad>
          </ns3:TrackPointExtension>
        </extensions>
      </trkpt>
      <trkpt lat="45.32414940185844898223876953125" lon="-70.80757216550409793853759765625">
        <ele>789.79998779296875</ele>
        <time>2026-08-21T12:26:11.000Z</time>
        <extensions>
          <ns3:TrackPointExtension>
            <ns3:hr>139</ns3:hr>
            <ns3:cad>0</ns3:cad>
          </ns3:TrackPointExtension>
        </extensions>
      </trkpt>
      <trkpt lat="45.32414973713457584381103515625" lon="-70.807573087513446807861328125">
        <ele>790</ele>
        <time>2026-08-21T12:26:12.000Z</time>
        <extensions>
          <ns3:TrackPointExtension>
            <ns3:hr>138</ns3:hr>
            <ns3:cad>0</ns3:cad>
          </ns3:TrackPointExtension>
        </extensions>
      </trkpt>
      <trkpt lat="45.3241481445729732513427734375" lon="-70.80757250078022480010986328125">
        <ele>790</ele>
        <time>2026-08-21T12:26:13.000Z</time>
        <extensions>
          <ns3:TrackPointExtension>
            <ns3:hr>138</ns3:hr>
            <ns3:cad>0</ns3:cad>
          </ns3:TrackPointExtension>
        </extensions>
      </trkpt>
      <trkpt lat="45.32414504326879978179931640625" lon="-70.8075647056102752685546875">
        <ele>790.4000244140625</ele>
        <time>2026-08-21T12:26:14.000Z</time>
        <extensions>
          <ns3:TrackPointExtension>
            <ns3:hr>139</ns3:hr>
            <ns3:cad>0</ns3:cad>
          </ns3:TrackPointExtension>
        </extensions>
      </trkpt>
      <trkpt lat="45.32413833774626255035400390625" lon="-70.80755808390676975250244140625">
        <ele>790.4000244140625</ele>
        <time>2026-08-21T12:26:15.000Z</time>
        <extensions>
          <ns3:TrackPointExtension>
            <ns3:hr>142</ns3:hr>
            <ns3:cad>0</ns3:cad>
          </ns3:TrackPointExtension>
        </extensions>
      </trkpt>
      <trkpt lat="45.32413615845143795013427734375" lon="-70.80755322240293025970458984375">
        <ele>790.5999755859375</ele>
        <time>2026-08-21T12:26:16.000Z</time>
        <extensions>
          <ns3:TrackPointExtension>
            <ns3:hr>146</ns3:hr>
            <ns3:cad>0</ns3:cad>
          </ns3:TrackPointExtension>
        </extensions>
      </trkpt>
      <trkpt lat="45.3241323865950107574462890625" lon="-70.807549618184566497802734375">
        <ele>791</ele>
        <time>2026-08-21T12:26:17.000Z</time>
        <extensions>
          <ns3:TrackPointExtension>
            <ns3:hr>147</ns3:hr>
            <ns3:cad>0</ns3:cad>
          </ns3:TrackPointExtension>
        </extensions>
      </trkpt>
      <trkpt lat="45.32413221895694732666015625" lon="-70.8075481094419956207275390625">
        <ele>791.20001220703125</ele>
        <time>2026-08-21T12:26:18.000Z</time>
        <extensions>
          <ns3:TrackPointExtension>
            <ns3:hr>146</ns3:hr>
            <ns3:cad>0</ns3:cad>
          </ns3:TrackPointExtension>
        </extensions>
      </trkpt>
      <trkpt lat="45.32413079403340816497802734375" lon="-70.8075444214046001434326171875">
        <ele>791.4000244140625</ele>
        <time>2026-08-21T12:26:19.000Z</time>
        <extensions>
          <ns3:TrackPointExtension>
            <ns3:hr>146</ns3:hr>
            <ns3:cad>0</ns3:cad>
          </ns3:TrackPointExtension>
        </extensions>
      </trkpt>
      <trkpt lat="45.32412911765277385711669921875" lon="-70.8075410686433315277099609375">
        <ele>791.5999755859375</ele>
        <time>2026-08-21T12:26:20.000Z</time>
        <extensions>
          <ns3:TrackPointExtension>
            <ns3:hr>145</ns3:hr>
            <ns3:cad>0</ns3:cad>
          </ns3:TrackPointExtension>
        </extensions>
      </trkpt>
      <trkpt lat="45.324121825397014617919921875" lon="-70.807534866034984588623046875">
        <ele>792</ele>
        <time>2026-08-21T12:26:21.000Z</time>
        <extensions>
          <ns3:TrackPointExtension>
            <ns3:hr>145</ns3:hr>
            <ns3:cad>0</ns3:cad>
          </ns3:TrackPointExtension>
        </extensions>
      </trkpt>
      <trkpt lat="45.324116460978984832763671875" lon="-70.8075326867401599884033203125">
        <ele>792.20001220703125</ele>
        <time>2026-08-21T12:26:22.000Z</time>
        <extensions>
          <ns3:TrackPointExtension>
            <ns3:hr>145</ns3:hr>
            <ns3:cad>0</ns3:cad>
          </ns3:TrackPointExtension>
        </extensions>
      </trkpt>
      <trkpt lat="45.32411185093224048614501953125" lon="-70.80752690322697162628173828125">
        <ele>792.4000244140625</ele>
        <time>2026-08-21T12:26:23.000Z</time>
        <extensions>
          <ns3:TrackPointExtension>
            <ns3:hr>145</ns3:hr>
            <ns3:cad>0</ns3:cad>
          </ns3:TrackPointExtension>
        </extensions>
      </trkpt>
      <trkpt lat="45.3241074085235595703125" lon="-70.8075243048369884490966796875">
        <ele>792.79998779296875</ele>
        <time>2026-08-21T12:26:24.000Z</time>
        <extensions>
          <ns3:TrackPointExtension>
            <ns3:hr>146</ns3:hr>
            <ns3:cad>0</ns3:cad>
          </ns3:TrackPointExtension>
        </extensions>
      </trkpt>
      <trkpt lat="45.324111096560955047607421875" lon="-70.80752723850309848785400390625">
        <ele>793</ele>
        <time>2026-08-21T12:26:25.000Z</time>
        <extensions>
          <ns3:TrackPointExtension>
            <ns3:hr>147</ns3:hr>
            <ns3:cad>0</ns3:cad>
          </ns3:TrackPointExtension>
        </extensions>
      </trkpt>
      <trkpt lat="45.32411386258900165557861328125" lon="-70.80752874724566936492919921875">
        <ele>793.20001220703125</ele>
        <time>2026-08-21T12:26:26.000Z</time>
        <extensions>
          <ns3:TrackPointExtension>
            <ns3:hr>147</ns3:hr>
            <ns3:cad>0</ns3:cad>
          </ns3:TrackPointExtension>
        </extensions>
      </trkpt>
      <trkpt lat="45.3241129405796527862548828125" lon="-70.80752053298056125640869140625">
        <ele>793.4000244140625</ele>
        <time>2026-08-21T12:26:27.000Z</time>
        <extensions>
          <ns3:TrackPointExtension>
            <ns3:hr>148</ns3:hr>
            <ns3:cad>0</ns3:cad>
          </ns3:TrackPointExtension>
        </extensions>
      </trkpt>
      <trkpt lat="45.3241092525422573089599609375" lon="-70.8075155876576900482177734375">
        <ele>793.5999755859375</ele>
        <time>2026-08-21T12:26:28.000Z</time>
        <extensions>
          <ns3:TrackPointExtension>
            <ns3:hr>148</ns3:hr>
            <ns3:cad>0</ns3:cad>
          </ns3:TrackPointExtension>
        </extensions>
      </trkpt>
      <trkpt lat="45.3241074085235595703125" lon="-70.80750636756420135498046875">
        <ele>793.79998779296875</ele>
        <time>2026-08-21T12:26:29.000Z</time>
        <extensions>
          <ns3:TrackPointExtension>
            <ns3:hr>148</ns3:hr>
            <ns3:cad>0</ns3:cad>
          </ns3:TrackPointExtension>
        </extensions>
      </trkpt>
      <trkpt lat="45.324102379381656646728515625" lon="-70.8075038529932498931884765625">
        <ele>794</ele>
        <time>2026-08-21T12:26:30.000Z</time>
        <extensions>
          <ns3:TrackPointExtension>
            <ns3:hr>149</ns3:hr>
            <ns3:cad>0</ns3:cad>
          </ns3:TrackPointExtension>
        </extensions>
      </trkpt>
      <trkpt lat="45.32409843988716602325439453125" lon="-70.80750561319291591644287109375">
        <ele>794</ele>
        <time>2026-08-21T12:26:31.000Z</time>
        <extensions>
          <ns3:TrackPointExtension>
            <ns3:hr>149</ns3:hr>
            <ns3:cad>0</ns3:cad>
          </ns3:TrackPointExtension>
        </extensions>
      </trkpt>
      <trkpt lat="45.32409274019300937652587890625" lon="-70.80749823711812496185302734375">
        <ele>794.20001220703125</ele>
        <time>2026-08-21T12:26:32.000Z</time>
        <extensions>
          <ns3:TrackPointExtension>
            <ns3:hr>150</ns3:hr>
            <ns3:cad>0</ns3:cad>
          </ns3:TrackPointExtension>
        </extensions>
      </trkpt>
      <trkpt lat="45.32408921979367733001708984375" lon="-70.80749027431011199951171875">
        <ele>794.4000244140625</ele>
        <time>2026-08-21T12:26:33.000Z</time>
        <extensions>
          <ns3:TrackPointExtension>
            <ns3:hr>150</ns3:hr>
            <ns3:cad>0</ns3:cad>
          </ns3:TrackPointExtension>
        </extensions>
      </trkpt>
      <trkpt lat="45.3240884654223918914794921875" lon="-70.807492621243000030517578125">
        <ele>794.5999755859375</ele>
        <time>2026-08-21T12:26:34.000Z</time>
        <extensions>
          <ns3:TrackPointExtension>
            <ns3:hr>150</ns3:hr>
            <ns3:cad>0</ns3:cad>
          </ns3:TrackPointExtension>
        </extensions>
      </trkpt>
      <trkpt lat="45.32408804632723331451416015625" lon="-70.8074922859668731689453125">
        <ele>794.79998779296875</ele>
        <time>2026-08-21T12:26:35.000Z</time>
        <extensions>
          <ns3:TrackPointExtension>
            <ns3:hr>151</ns3:hr>
            <ns3:cad>0</ns3:cad>
          </ns3:TrackPointExtension>
        </extensions>
      </trkpt>
      <trkpt lat="45.32408385537564754486083984375" lon="-70.80748868174850940704345703125">
        <ele>795</ele>
        <time>2026-08-21T12:26:36.000Z</time>
        <extensions>
          <ns3:TrackPointExtension>
            <ns3:hr>150</ns3:hr>
            <ns3:cad>0</ns3:cad>
          </ns3:TrackPointExtension>
        </extensions>
      </trkpt>
      <trkpt lat="45.32408385537564754486083984375" lon="-70.80748868174850940704345703125">
        <ele>795.20001220703125</ele>
        <time>2026-08-21T12:26:37.000Z</time>
        <extensions>
          <ns3:TrackPointExtension>
            <ns3:hr>151</ns3:hr>
            <ns3:cad>0</ns3:cad>
          </ns3:TrackPointExtension>
        </extensions>
      </trkpt>
      <trkpt lat="45.3240834362804889678955078125" lon="-70.8074884302914142608642578125">
        <ele>795.4000244140625</ele>
        <time>2026-08-21T12:26:38.000Z</time>
        <extensions>
          <ns3:TrackPointExtension>
            <ns3:hr>151</ns3:hr>
            <ns3:cad>0</ns3:cad>
          </ns3:TrackPointExtension>
        </extensions>
      </trkpt>
      <trkpt lat="45.32407430000603199005126953125" lon="-70.80748331733047962188720703125">
        <ele>795.5999755859375</ele>
        <time>2026-08-21T12:26:39.000Z</time>
        <extensions>
          <ns3:TrackPointExtension>
            <ns3:hr>151</ns3:hr>
            <ns3:cad>0</ns3:cad>
          </ns3:TrackPointExtension>
        </extensions>
      </trkpt>
      <trkpt lat="45.32406985759735107421875" lon="-70.80748382024466991424560546875">
        <ele>795.79998779296875</ele>
        <time>2026-08-21T12:26:40.000Z</time>
        <extensions>
          <ns3:TrackPointExtension>
            <ns3:hr>151</ns3:hr>
            <ns3:cad>0</ns3:cad>
          </ns3:TrackPointExtension>
        </extensions>
      </trkpt>
      <trkpt lat="45.324064157903194427490234375" lon="-70.80748432315886020660400390625">
        <ele>796</ele>
        <time>2026-08-21T12:26:41.000Z</time>
        <extensions>
          <ns3:TrackPointExtension>
            <ns3:hr>151</ns3:hr>
            <ns3:cad>0</ns3:cad>
          </ns3:TrackPointExtension>
        </extensions>
      </trkpt>
      <trkpt lat="45.3240559436380863189697265625" lon="-70.8074850775301456451416015625">
        <ele>796.20001220703125</ele>
        <time>2026-08-21T12:26:42.000Z</time>
        <extensions>
          <ns3:TrackPointExtension>
            <ns3:hr>151</ns3:hr>
            <ns3:cad>0</ns3:cad>
          </ns3:TrackPointExtension>
        </extensions>
      </trkpt>
      <trkpt lat="45.3240515850484371185302734375" lon="-70.80748817883431911468505859375">
        <ele>796.4000244140625</ele>
        <time>2026-08-21T12:26:43.000Z</time>
        <extensions>
          <ns3:TrackPointExtension>
            <ns3:hr>151</ns3:hr>
            <ns3:cad>0</ns3:cad>
          </ns3:TrackPointExtension>
        </extensions>
      </trkpt>
      <trkpt lat="45.32404580153524875640869140625" lon="-70.80749119631946086883544921875">
        <ele>796.5999755859375</ele>
        <time>2026-08-21T12:26:44.000Z</time>
        <extensions>
          <ns3:TrackPointExtension>
            <ns3:hr>151</ns3:hr>
            <ns3:cad>0</ns3:cad>
          </ns3:TrackPointExtension>
        </extensions>
      </trkpt>
      <trkpt lat="45.32404429279267787933349609375" lon="-70.80749572254717350006103515625">
        <ele>796.79998779296875</ele>
        <time>2026-08-21T12:26:45.000Z</time>
        <extensions>
          <ns3:TrackPointExtension>
            <ns3:hr>151</ns3:hr>
            <ns3:cad>0</ns3:cad>
          </ns3:TrackPointExtension>
        </extensions>
      </trkpt>
      <trkpt lat="45.3240462206304073333740234375" lon="-70.8074988238513469696044921875">
        <ele>797</ele>
        <time>2026-08-21T12:26:46.000Z</time>
        <extensions>
          <ns3:TrackPointExtension>
            <ns3:hr>150</ns3:hr>
            <ns3:cad>0</ns3:cad>
          </ns3:TrackPointExtension>
        </extensions>
      </trkpt>
      <trkpt lat="45.32404328696429729461669921875" lon="-70.80751030705869197845458984375">
        <ele>797</ele>
        <time>2026-08-21T12:26:47.000Z</time>
        <extensions>
          <ns3:TrackPointExtension>
            <ns3:hr>150</ns3:hr>
            <ns3:cad>0</ns3:cad>
          </ns3:TrackPointExtension>
        </extensions>
      </trkpt>
      <trkpt lat="45.32403775490820407867431640625" lon="-70.807520113885402679443359375">
        <ele>797.20001220703125</ele>
        <time>2026-08-21T12:26:48.000Z</time>
        <extensions>
          <ns3:TrackPointExtension>
            <ns3:hr>150</ns3:hr>
            <ns3:cad>0</ns3:cad>
          </ns3:TrackPointExtension>
        </extensions>
      </trkpt>
      <trkpt lat="45.324031300842761993408203125" lon="-70.807520449161529541015625">
        <ele>797.4000244140625</ele>
        <time>2026-08-21T12:26:49.000Z</time>
        <extensions>
          <ns3:TrackPointExtension>
            <ns3:hr>150</ns3:hr>
            <ns3:cad>0</ns3:cad>
          </ns3:TrackPointExtension>
        </extensions>
      </trkpt>
      <trkpt lat="45.32402484677731990814208984375" lon="-70.80752338282763957977294921875">
        <ele>797.4000244140625</ele>
        <time>2026-08-21T12:26:50.000Z</time>
        <extensions>
          <ns3:TrackPointExtension>
            <ns3:hr>150</ns3:hr>
            <ns3:cad>0</ns3:cad>
          </ns3:TrackPointExtension>
        </extensions>
      </trkpt>
      <trkpt lat="45.3240229189395904541015625" lon="-70.807526148855686187744140625">
        <ele>797.5999755859375</ele>
        <time>2026-08-21T12:26:51.000Z</time>
        <extensions>
          <ns3:TrackPointExtension>
            <ns3:hr>150</ns3:hr>
            <ns3:cad>0</ns3:cad>
          </ns3:TrackPointExtension>
        </extensions>
      </trkpt>
      <trkpt lat="45.32401680015027523040771484375" lon="-70.8075279928743839263916015625">
        <ele>797.79998779296875</ele>
        <time>2026-08-21T12:26:52.000Z</time>
        <extensions>
          <ns3:TrackPointExtension>
            <ns3:hr>151</ns3:hr>
            <ns3:cad>0</ns3:cad>
          </ns3:TrackPointExtension>
        </extensions>
      </trkpt>
      <trkpt lat="45.32401294447481632232666015625" lon="-70.80752790905535221099853515625">
        <ele>798</ele>
        <time>2026-08-21T12:26:53.000Z</time>
        <extensions>
          <ns3:TrackPointExtension>
            <ns3:hr>150</ns3:hr>
            <ns3:cad>0</ns3:cad>
          </ns3:TrackPointExtension>
        </extensions>
      </trkpt>
      <trkpt lat="45.3240116871893405914306640625" lon="-70.807526819407939910888671875">
        <ele>798.20001220703125</ele>
        <time>2026-08-21T12:26:54.000Z</time>
        <extensions>
          <ns3:TrackPointExtension>
            <ns3:hr>150</ns3:hr>
            <ns3:cad>0</ns3:cad>
          </ns3:TrackPointExtension>
        </extensions>
      </trkpt>
      <trkpt lat="45.3240106813609600067138671875" lon="-70.807526148855686187744140625">
        <ele>798.4000244140625</ele>
        <time>2026-08-21T12:26:55.000Z</time>
        <extensions>
          <ns3:TrackPointExtension>
            <ns3:hr>151</ns3:hr>
            <ns3:cad>0</ns3:cad>
          </ns3:TrackPointExtension>
        </extensions>
      </trkpt>
      <trkpt lat="45.32400439493358135223388671875" lon="-70.80752422101795673370361328125">
        <ele>798.5999755859375</ele>
        <time>2026-08-21T12:26:56.000Z</time>
        <extensions>
          <ns3:TrackPointExtension>
            <ns3:hr>150</ns3:hr>
            <ns3:cad>0</ns3:cad>
          </ns3:TrackPointExtension>
        </extensions>
      </trkpt>
      <trkpt lat="45.324001796543598175048828125" lon="-70.807524807751178741455078125">
        <ele>798.79998779296875</ele>
        <time>2026-08-21T12:26:57.000Z</time>
        <extensions>
          <ns3:TrackPointExtension>
            <ns3:hr>150</ns3:hr>
            <ns3:cad>0</ns3:cad>
          </ns3:TrackPointExtension>
        </extensions>
      </trkpt>
      <trkpt lat="45.32400690950453281402587890625" lon="-70.8075222931802272796630859375">
        <ele>799</ele>
        <time>2026-08-21T12:26:58.000Z</time>
        <extensions>
          <ns3:TrackPointExtension>
            <ns3:hr>151</ns3:hr>
            <ns3:cad>0</ns3:cad>
          </ns3:TrackPointExtension>
        </extensions>
      </trkpt>
      <trkpt lat="45.324005819857120513916015625" lon="-70.80752053298056125640869140625">
        <ele>799.20001220703125</ele>
        <time>2026-08-21T12:26:59.000Z</time>
        <extensions>
          <ns3:TrackPointExtension>
            <ns3:hr>150</ns3:hr>
            <ns3:cad>0</ns3:cad>
          </ns3:TrackPointExtension>
        </extensions>
      </trkpt>
      <trkpt lat="45.3240053169429302215576171875" lon="-70.8075202815234661102294921875">
        <ele>799.4000244140625</ele>
        <time>2026-08-21T12:27:00.000Z</time>
        <extensions>
          <ns3:TrackPointExtension>
            <ns3:hr>150</ns3:hr>
            <ns3:cad>0</ns3:cad>
          </ns3:TrackPointExtension>
        </extensions>
      </trkpt>
      <trkpt lat="45.32400489784777164459228515625" lon="-70.80751852132380008697509765625">
        <ele>799.5999755859375</ele>
        <time>2026-08-21T12:27:01.000Z</time>
        <extensions>
          <ns3:TrackPointExtension>
            <ns3:hr>150</ns3:hr>
            <ns3:cad>0</ns3:cad>
          </ns3:TrackPointExtension>
        </extensions>
      </trkpt>
      <trkpt lat="45.32400003634393215179443359375" lon="-70.80751399509608745574951171875">
        <ele>799.79998779296875</ele>
        <time>2026-08-21T12:27:02.000Z</time>
        <extensions>
          <ns3:TrackPointExtension>
            <ns3:hr>150</ns3:hr>
            <ns3:cad>0</ns3:cad>
          </ns3:TrackPointExtension>
        </extensions>
      </trkpt>
      <trkpt lat="45.3239972703158855438232421875" lon="-70.80751148052513599395751953125">
        <ele>800</ele>
        <time>2026-08-21T12:27:03.000Z</time>
        <extensions>
          <ns3:TrackPointExtension>
            <ns3:hr>149</ns3:hr>
            <ns3:cad>0</ns3:cad>
          </ns3:TrackPointExtension>
        </extensions>
      </trkpt>
      <trkpt lat="45.323999114334583282470703125" lon="-70.8075110614299774169921875">
        <ele>800.20001220703125</ele>
        <time>2026-08-21T12:27:04.000Z</time>
        <extensions>
          <ns3:TrackPointExtension>
            <ns3:hr>149</ns3:hr>
            <ns3:cad>0</ns3:cad>
          </ns3:TrackPointExtension>
        </extensions>
      </trkpt>
      <trkpt lat="45.32400104217231273651123046875" lon="-70.80751240253448486328125">
        <ele>800.4000244140625</ele>
        <time>2026-08-21T12:27:05.000Z</time>
        <extensions>
          <ns3:TrackPointExtension>
            <ns3:hr>149</ns3:hr>
            <ns3:cad>0</ns3:cad>
          </ns3:TrackPointExtension>
        </extensions>
      </trkpt>
      <trkpt lat="45.32399500720202922821044921875" lon="-70.80750234425067901611328125">
        <ele>800.5999755859375</ele>
        <time>2026-08-21T12:27:06.000Z</time>
        <extensions>
          <ns3:TrackPointExtension>
            <ns3:hr>149</ns3:hr>
            <ns3:cad>0</ns3:cad>
          </ns3:TrackPointExtension>
        </extensions>
      </trkpt>
      <trkpt lat="45.32399232499301433563232421875" lon="-70.807498656213283538818359375">
        <ele>800.79998779296875</ele>
        <time>2026-08-21T12:27:07.000Z</time>
        <extensions>
          <ns3:TrackPointExtension>
            <ns3:hr>148</ns3:hr>
            <ns3:cad>0</ns3:cad>
          </ns3:TrackPointExtension>
        </extensions>
      </trkpt>
      <trkpt lat="45.3239915706217288970947265625" lon="-70.80749756656587123870849609375">
        <ele>801</ele>
        <time>2026-08-21T12:27:08.000Z</time>
        <extensions>
          <ns3:TrackPointExtension>
            <ns3:hr>148</ns3:hr>
            <ns3:cad>0</ns3:cad>
          </ns3:TrackPointExtension>
        </extensions>
      </trkpt>
      <trkpt lat="45.323990397155284881591796875" lon="-70.8074994944036006927490234375">
        <ele>801.20001220703125</ele>
        <time>2026-08-21T12:27:09.000Z</time>
        <extensions>
          <ns3:TrackPointExtension>
            <ns3:hr>148</ns3:hr>
            <ns3:cad>0</ns3:cad>
          </ns3:TrackPointExtension>
        </extensions>
      </trkpt>
      <trkpt lat="45.32399299554526805877685546875" lon="-70.80749706365168094635009765625">
        <ele>801.4000244140625</ele>
        <time>2026-08-21T12:27:10.000Z</time>
        <extensions>
          <ns3:TrackPointExtension>
            <ns3:hr>148</ns3:hr>
            <ns3:cad>60</ns3:cad>
          </ns3:TrackPointExtension>
        </extensions>
      </trkpt>
      <trkpt lat="45.32399232499301433563232421875" lon="-70.80749563872814178466796875">
        <ele>801.4000244140625</ele>
        <time>2026-08-21T12:27:11.000Z</time>
        <extensions>
          <ns3:TrackPointExtension>
            <ns3:hr>149</ns3:hr>
            <ns3:cad>60</ns3:cad>
          </ns3:TrackPointExtension>
        </extensions>
      </trkpt>
      <trkpt lat="45.323992073535919189453125" lon="-70.80749295651912689208984375">
        <ele>801.5999755859375</ele>
        <time>2026-08-21T12:27:12.000Z</time>
        <extensions>
          <ns3:TrackPointExtension>
            <ns3:hr>148</ns3:hr>
            <ns3:cad>0</ns3:cad>
          </ns3:TrackPointExtension>
        </extensions>
      </trkpt>
      <trkpt lat="45.3239939175546169281005859375" lon="-70.80748583190143108367919921875">
        <ele>801.79998779296875</ele>
        <time>2026-08-21T12:27:13.000Z</time>
        <extensions>
          <ns3:TrackPointExtension>
            <ns3:hr>148</ns3:hr>
            <ns3:cad>0</ns3:cad>
          </ns3:TrackPointExtension>
        </extensions>
      </trkpt>
      <trkpt lat="45.32399031333625316619873046875" lon="-70.8074817247688770294189453125">
        <ele>802</ele>
        <time>2026-08-21T12:27:14.000Z</time>
        <extensions>
          <ns3:TrackPointExtension>
            <ns3:hr>149</ns3:hr>
            <ns3:cad>0</ns3:cad>
          </ns3:TrackPointExtension>
        </extensions>
      </trkpt>
      <trkpt lat="45.3239841945469379425048828125" lon="-70.8074800483882427215576171875">
        <ele>802.20001220703125</ele>
        <time>2026-08-21T12:27:15.000Z</time>
        <extensions>
          <ns3:TrackPointExtension>
            <ns3:hr>148</ns3:hr>
            <ns3:cad>0</ns3:cad>
          </ns3:TrackPointExtension>
        </extensions>
      </trkpt>
      <trkpt lat="45.32398344017565250396728515625" lon="-70.80747418105602264404296875">
        <ele>802.4000244140625</ele>
        <time>2026-08-21T12:27:16.000Z</time>
        <extensions>
          <ns3:TrackPointExtension>
            <ns3:hr>148</ns3:hr>
            <ns3:cad>0</ns3:cad>
          </ns3:TrackPointExtension>
        </extensions>
      </trkpt>
      <trkpt lat="45.32398461364209651947021484375" lon="-70.8074693195521831512451171875">
        <ele>802.5999755859375</ele>
        <time>2026-08-21T12:27:17.000Z</time>
        <extensions>
          <ns3:TrackPointExtension>
            <ns3:hr>148</ns3:hr>
            <ns3:cad>0</ns3:cad>
          </ns3:TrackPointExtension>
        </extensions>
      </trkpt>
      <trkpt lat="45.323985032737255096435546875" lon="-70.80746755935251712799072265625">
        <ele>802.79998779296875</ele>
        <time>2026-08-21T12:27:18.000Z</time>
        <extensions>
          <ns3:TrackPointExtension>
            <ns3:hr>149</ns3:hr>
            <ns3:cad>0</ns3:cad>
          </ns3:TrackPointExtension>
        </extensions>
      </trkpt>
      <trkpt lat="45.32398461364209651947021484375" lon="-70.80746772699058055877685546875">
        <ele>802.79998779296875</ele>
        <time>2026-08-21T12:27:19.000Z</time>
        <extensions>
          <ns3:TrackPointExtension>
            <ns3:hr>148</ns3:hr>
            <ns3:cad>0</ns3:cad>
          </ns3:TrackPointExtension>
        </extensions>
      </trkpt>
      <trkpt lat="45.323984362185001373291015625" lon="-70.807467810809612274169921875">
        <ele>803</ele>
        <time>2026-08-21T12:27:20.000Z</time>
        <extensions>
          <ns3:TrackPointExtension>
            <ns3:hr>148</ns3:hr>
            <ns3:cad>0</ns3:cad>
          </ns3:TrackPointExtension>
        </extensions>
      </trkpt>
      <trkpt lat="45.32398260198533535003662109375" lon="-70.8074619434773921966552734375">
        <ele>803.20001220703125</ele>
        <time>2026-08-21T12:27:21.000Z</time>
        <extensions>
          <ns3:TrackPointExtension>
            <ns3:hr>147</ns3:hr>
            <ns3:cad>0</ns3:cad>
          </ns3:TrackPointExtension>
        </extensions>
      </trkpt>
      <trkpt lat="45.32397530972957611083984375" lon="-70.8074574172496795654296875">
        <ele>803.20001220703125</ele>
        <time>2026-08-21T12:27:22.000Z</time>
        <extensions>
          <ns3:TrackPointExtension>
            <ns3:hr>146</ns3:hr>
            <ns3:cad>0</ns3:cad>
          </ns3:TrackPointExtension>
        </extensions>
      </trkpt>
      <trkpt lat="45.323970615863800048828125" lon="-70.807454399764537811279296875">
        <ele>803.4000244140625</ele>
        <time>2026-08-21T12:27:23.000Z</time>
        <extensions>
          <ns3:TrackPointExtension>
            <ns3:hr>146</ns3:hr>
            <ns3:cad>0</ns3:cad>
          </ns3:TrackPointExtension>
        </extensions>
      </trkpt>
      <trkpt lat="45.3239674307405948638916015625" lon="-70.8074525557458400726318359375">
        <ele>803.79998779296875</ele>
        <time>2026-08-21T12:27:24.000Z</time>
        <extensions>
          <ns3:TrackPointExtension>
            <ns3:hr>146</ns3:hr>
            <ns3:cad>0</ns3:cad>
          </ns3:TrackPointExtension>
        </extensions>
      </trkpt>
      <trkpt lat="45.323964916169643402099609375" lon="-70.80745004117488861083984375">
        <ele>804</ele>
        <time>2026-08-21T12:27:25.000Z</time>
        <extensions>
          <ns3:TrackPointExtension>
            <ns3:hr>146</ns3:hr>
            <ns3:cad>0</ns3:cad>
          </ns3:TrackPointExtension>
        </extensions>
      </trkpt>
      <trkpt lat="45.32396080903708934783935546875" lon="-70.80745272338390350341796875">
        <ele>804.20001220703125</ele>
        <time>2026-08-21T12:27:26.000Z</time>
        <extensions>
          <ns3:TrackPointExtension>
            <ns3:hr>147</ns3:hr>
            <ns3:cad>0</ns3:cad>
          </ns3:TrackPointExtension>
        </extensions>
      </trkpt>
      <trkpt lat="45.3239530138671398162841796875" lon="-70.8074535615742206573486328125">
        <ele>804.4000244140625</ele>
        <time>2026-08-21T12:27:27.000Z</time>
        <extensions>
          <ns3:TrackPointExtension>
            <ns3:hr>146</ns3:hr>
            <ns3:cad>0</ns3:cad>
          </ns3:TrackPointExtension>
        </extensions>
      </trkpt>
      <trkpt lat="45.32395460642874240875244140625" lon="-70.80744844861328601837158203125">
        <ele>804.5999755859375</ele>
        <time>2026-08-21T12:27:28.000Z</time>
        <extensions>
          <ns3:TrackPointExtension>
            <ns3:hr>146</ns3:hr>
            <ns3:cad>0</ns3:cad>
          </ns3:TrackPointExtension>
        </extensions>
      </trkpt>
      <trkpt lat="45.3239536844193935394287109375" lon="-70.80744828097522258758544921875">
        <ele>804.79998779296875</ele>
        <time>2026-08-21T12:27:29.000Z</time>
        <extensions>
          <ns3:TrackPointExtension>
            <ns3:hr>146</ns3:hr>
            <ns3:cad>0</ns3:cad>
          </ns3:TrackPointExtension>
        </extensions>
      </trkpt>
      <trkpt lat="45.323952846229076385498046875" lon="-70.80745079554617404937744140625">
        <ele>805</ele>
        <time>2026-08-21T12:27:30.000Z</time>
        <extensions>
          <ns3:TrackPointExtension>
            <ns3:hr>147</ns3:hr>
            <ns3:cad>0</ns3:cad>
          </ns3:TrackPointExtension>
        </extensions>
      </trkpt>
      <trkpt lat="45.32395259477198123931884765625" lon="-70.80745196901261806488037109375">
        <ele>805.20001220703125</ele>
        <time>2026-08-21T12:27:31.000Z</time>
        <extensions>
          <ns3:TrackPointExtension>
            <ns3:hr>146</ns3:hr>
            <ns3:cad>0</ns3:cad>
          </ns3:TrackPointExtension>
        </extensions>
      </trkpt>
      <trkpt lat="45.32394723035395145416259765625" lon="-70.8074533939361572265625">
        <ele>805.20001220703125</ele>
        <time>2026-08-21T12:27:32.000Z</time>
        <extensions>
          <ns3:TrackPointExtension>
            <ns3:hr>146</ns3:hr>
            <ns3:cad>0</ns3:cad>
          </ns3:TrackPointExtension>
        </extensions>
      </trkpt>
      <trkpt lat="45.32394857145845890045166015625" lon="-70.807450711727142333984375">
        <ele>805.4000244140625</ele>
        <time>2026-08-21T12:27:33.000Z</time>
        <extensions>
          <ns3:TrackPointExtension>
            <ns3:hr>146</ns3:hr>
            <ns3:cad>0</ns3:cad>
          </ns3:TrackPointExtension>
        </extensions>
      </trkpt>
      <trkpt lat="45.32394639216363430023193359375" lon="-70.80744911916553974151611328125">
        <ele>805.5999755859375</ele>
        <time>2026-08-21T12:27:34.000Z</time>
        <extensions>
          <ns3:TrackPointExtension>
            <ns3:hr>146</ns3:hr>
            <ns3:cad>0</ns3:cad>
          </ns3:TrackPointExtension>
        </extensions>
      </trkpt>
      <trkpt lat="45.3239436261355876922607421875" lon="-70.80745364539325237274169921875">
        <ele>805.79998779296875</ele>
        <time>2026-08-21T12:27:35.000Z</time>
        <extensions>
          <ns3:TrackPointExtension>
            <ns3:hr>146</ns3:hr>
            <ns3:cad>0</ns3:cad>
          </ns3:TrackPointExtension>
        </extensions>
      </trkpt>
      <trkpt lat="45.32394111156463623046875" lon="-70.807455070316791534423828125">
        <ele>806</ele>
        <time>2026-08-21T12:27:36.000Z</time>
        <extensions>
          <ns3:TrackPointExtension>
            <ns3:hr>145</ns3:hr>
            <ns3:cad>0</ns3:cad>
          </ns3:TrackPointExtension>
        </extensions>
      </trkpt>
      <trkpt lat="45.3239429555833339691162109375" lon="-70.8074555732309818267822265625">
        <ele>806.20001220703125</ele>
        <time>2026-08-21T12:27:37.000Z</time>
        <extensions>
          <ns3:TrackPointExtension>
            <ns3:hr>146</ns3:hr>
            <ns3:cad>0</ns3:cad>
          </ns3:TrackPointExtension>
        </extensions>
      </trkpt>
      <trkpt lat="45.32394044101238250732421875" lon="-70.80745582468807697296142578125">
        <ele>806.20001220703125</ele>
        <time>2026-08-21T12:27:38.000Z</time>
        <extensions>
          <ns3:TrackPointExtension>
            <ns3:hr>146</ns3:hr>
            <ns3:cad>0</ns3:cad>
          </ns3:TrackPointExtension>
        </extensions>
      </trkpt>
      <trkpt lat="45.32393968664109706878662109375" lon="-70.80745750106871128082275390625">
        <ele>806.4000244140625</ele>
        <time>2026-08-21T12:27:39.000Z</time>
        <extensions>
          <ns3:TrackPointExtension>
            <ns3:hr>146</ns3:hr>
            <ns3:cad>0</ns3:cad>
          </ns3:TrackPointExtension>
        </extensions>
      </trkpt>
      <trkpt lat="45.3239372558891773223876953125" lon="-70.8074616082012653350830078125">
        <ele>806.5999755859375</ele>
        <time>2026-08-21T12:27:40.000Z</time>
        <extensions>
          <ns3:TrackPointExtension>
            <ns3:hr>146</ns3:hr>
            <ns3:cad>0</ns3:cad>
          </ns3:TrackPointExtension>
        </extensions>
      </trkpt>
      <trkpt lat="45.32393532805144786834716796875" lon="-70.80746420659124851226806640625">
        <ele>806.79998779296875</ele>
        <time>2026-08-21T12:27:41.000Z</time>
        <extensions>
          <ns3:TrackPointExtension>
            <ns3:hr>146</ns3:hr>
            <ns3:cad>0</ns3:cad>
          </ns3:TrackPointExtension>
        </extensions>
      </trkpt>
      <trkpt lat="45.323931388556957244873046875" lon="-70.8074666373431682586669921875">
        <ele>807</ele>
        <time>2026-08-21T12:27:42.000Z</time>
        <extensions>
          <ns3:TrackPointExtension>
            <ns3:hr>146</ns3:hr>
            <ns3:cad>0</ns3:cad>
          </ns3:TrackPointExtension>
        </extensions>
      </trkpt>
      <trkpt lat="45.32393038272857666015625" lon="-70.80746789462864398956298828125">
        <ele>807.20001220703125</ele>
        <time>2026-08-21T12:27:43.000Z</time>
        <extensions>
          <ns3:TrackPointExtension>
            <ns3:hr>147</ns3:hr>
            <ns3:cad>0</ns3:cad>
          </ns3:TrackPointExtension>
        </extensions>
      </trkpt>
      <trkpt lat="45.32392426393926143646240234375" lon="-70.80746990628540515899658203125">
        <ele>807.4000244140625</ele>
        <time>2026-08-21T12:27:44.000Z</time>
        <extensions>
          <ns3:TrackPointExtension>
            <ns3:hr>146</ns3:hr>
            <ns3:cad>0</ns3:cad>
          </ns3:TrackPointExtension>
        </extensions>
      </trkpt>
      <trkpt lat="45.32392694614827632904052734375" lon="-70.80746772699058055877685546875">
        <ele>807.4000244140625</ele>
        <time>2026-08-21T12:27:45.000Z</time>
        <extensions>
          <ns3:TrackPointExtension>
            <ns3:hr>146</ns3:hr>
            <ns3:cad>0</ns3:cad>
          </ns3:TrackPointExtension>
        </extensions>
      </trkpt>
      <trkpt lat="45.32392409630119800567626953125" lon="-70.80746303312480449676513671875">
        <ele>807.5999755859375</ele>
        <time>2026-08-21T12:27:46.000Z</time>
        <extensions>
          <ns3:TrackPointExtension>
            <ns3:hr>146</ns3:hr>
            <ns3:cad>0</ns3:cad>
          </ns3:TrackPointExtension>
        </extensions>
      </trkpt>
      <trkpt lat="45.32392057590186595916748046875" lon="-70.8074622787535190582275390625">
        <ele>807.79998779296875</ele>
        <time>2026-08-21T12:27:47.000Z</time>
        <extensions>
          <ns3:TrackPointExtension>
            <ns3:hr>146</ns3:hr>
            <ns3:cad>0</ns3:cad>
          </ns3:TrackPointExtension>
        </extensions>
      </trkpt>
      <trkpt lat="45.32391806133091449737548828125" lon="-70.8074654638767242431640625">
        <ele>808</ele>
        <time>2026-08-21T12:27:48.000Z</time>
        <extensions>
          <ns3:TrackPointExtension>
            <ns3:hr>147</ns3:hr>
            <ns3:cad>0</ns3:cad>
          </ns3:TrackPointExtension>
        </extensions>
      </trkpt>
      <trkpt lat="45.3239181451499462127685546875" lon="-70.8074676431715488433837890625">
        <ele>808.20001220703125</ele>
        <time>2026-08-21T12:27:49.000Z</time>
        <extensions>
          <ns3:TrackPointExtension>
            <ns3:hr>146</ns3:hr>
            <ns3:cad>0</ns3:cad>
          </ns3:TrackPointExtension>
        </extensions>
      </trkpt>
      <trkpt lat="45.32391604967415332794189453125" lon="-70.80746990628540515899658203125">
        <ele>808.4000244140625</ele>
        <time>2026-08-21T12:27:50.000Z</time>
        <extensions>
          <ns3:TrackPointExtension>
            <ns3:hr>146</ns3:hr>
            <ns3:cad>0</ns3:cad>
          </ns3:TrackPointExtension>
        </extensions>
      </trkpt>
      <trkpt lat="45.32391470856964588165283203125" lon="-70.80747124738991260528564453125">
        <ele>808.4000244140625</ele>
        <time>2026-08-21T12:27:51.000Z</time>
        <extensions>
          <ns3:TrackPointExtension>
            <ns3:hr>146</ns3:hr>
            <ns3:cad>0</ns3:cad>
          </ns3:TrackPointExtension>
        </extensions>
      </trkpt>
      <trkpt lat="45.3239142894744873046875" lon="-70.8074713312089443206787109375">
        <ele>808.5999755859375</ele>
        <time>2026-08-21T12:27:52.000Z</time>
        <extensions>
          <ns3:TrackPointExtension>
            <ns3:hr>146</ns3:hr>
            <ns3:cad>0</ns3:cad>
          </ns3:TrackPointExtension>
        </extensions>
      </trkpt>
      <trkpt lat="45.32390850596129894256591796875" lon="-70.807473175227642059326171875">
        <ele>808.5999755859375</ele>
        <time>2026-08-21T12:27:53.000Z</time>
        <extensions>
          <ns3:TrackPointExtension>
            <ns3:hr>147</ns3:hr>
            <ns3:cad>0</ns3:cad>
          </ns3:TrackPointExtension>
        </extensions>
      </trkpt>
      <trkpt lat="45.323904566466808319091796875" lon="-70.80747292377054691314697265625">
        <ele>808.5999755859375</ele>
        <time>2026-08-21T12:27:54.000Z</time>
        <extensions>
          <ns3:TrackPointExtension>
            <ns3:hr>146</ns3:hr>
            <ns3:cad>0</ns3:cad>
          </ns3:TrackPointExtension>
        </extensions>
      </trkpt>
      <trkpt lat="45.32390213571488857269287109375" lon="-70.80747149884700775146484375">
        <ele>808.79998779296875</ele>
        <time>2026-08-21T12:27:55.000Z</time>
        <extensions>
          <ns3:TrackPointExtension>
            <ns3:hr>146</ns3:hr>
            <ns3:cad>0</ns3:cad>
          </ns3:TrackPointExtension>
        </extensions>
      </trkpt>
      <trkpt lat="45.3239013813436031341552734375" lon="-70.80747149884700775146484375">
        <ele>808.79998779296875</ele>
        <time>2026-08-21T12:27:56.000Z</time>
        <extensions>
          <ns3:TrackPointExtension>
            <ns3:hr>146</ns3:hr>
            <ns3:cad>0</ns3:cad>
          </ns3:TrackPointExtension>
        </extensions>
      </trkpt>
      <trkpt lat="45.323903895914554595947265625" lon="-70.8074659667909145355224609375">
        <ele>809</ele>
        <time>2026-08-21T12:27:57.000Z</time>
        <extensions>
          <ns3:TrackPointExtension>
            <ns3:hr>146</ns3:hr>
            <ns3:cad>0</ns3:cad>
          </ns3:TrackPointExtension>
        </extensions>
      </trkpt>
      <trkpt lat="45.3239064104855060577392578125" lon="-70.80746521241962909698486328125">
        <ele>809.20001220703125</ele>
        <time>2026-08-21T12:27:58.000Z</time>
        <extensions>
          <ns3:TrackPointExtension>
            <ns3:hr>146</ns3:hr>
            <ns3:cad>0</ns3:cad>
          </ns3:TrackPointExtension>
        </extensions>
      </trkpt>
      <trkpt lat="45.323906578123569488525390625" lon="-70.80746370367705821990966796875">
        <ele>809.4000244140625</ele>
        <time>2026-08-21T12:27:59.000Z</time>
        <extensions>
          <ns3:TrackPointExtension>
            <ns3:hr>146</ns3:hr>
            <ns3:cad>0</ns3:cad>
          </ns3:TrackPointExtension>
        </extensions>
      </trkpt>
      <trkpt lat="45.32390481792390346527099609375" lon="-70.80746621824800968170166015625">
        <ele>809.5999755859375</ele>
        <time>2026-08-21T12:28:00.000Z</time>
        <extensions>
          <ns3:TrackPointExtension>
            <ns3:hr>145</ns3:hr>
            <ns3:cad>0</ns3:cad>
          </ns3:TrackPointExtension>
        </extensions>
      </trkpt>
      <trkpt lat="45.32390314154326915740966796875" lon="-70.80746672116219997406005859375">
        <ele>809.79998779296875</ele>
        <time>2026-08-21T12:28:01.000Z</time>
        <extensions>
          <ns3:TrackPointExtension>
            <ns3:hr>145</ns3:hr>
            <ns3:cad>0</ns3:cad>
          </ns3:TrackPointExtension>
        </extensions>
      </trkpt>
      <trkpt lat="45.323909930884838104248046875" lon="-70.80746747553348541259765625">
        <ele>810</ele>
        <time>2026-08-21T12:28:02.000Z</time>
        <extensions>
          <ns3:TrackPointExtension>
            <ns3:hr>145</ns3:hr>
            <ns3:cad>0</ns3:cad>
          </ns3:TrackPointExtension>
        </extensions>
      </trkpt>
      <trkpt lat="45.32390959560871124267578125" lon="-70.80746672116219997406005859375">
        <ele>810.20001220703125</ele>
        <time>2026-08-21T12:28:03.000Z</time>
        <extensions>
          <ns3:TrackPointExtension>
            <ns3:hr>145</ns3:hr>
            <ns3:cad>0</ns3:cad>
          </ns3:TrackPointExtension>
        </extensions>
      </trkpt>
      <trkpt lat="45.32391093671321868896484375" lon="-70.80746605060994625091552734375">
        <ele>810.20001220703125</ele>
        <time>2026-08-21T12:28:04.000Z</time>
        <extensions>
          <ns3:TrackPointExtension>
            <ns3:hr>145</ns3:hr>
            <ns3:cad>0</ns3:cad>
          </ns3:TrackPointExtension>
        </extensions>
      </trkpt>
      <trkpt lat="45.323907919228076934814453125" lon="-70.80746638588607311248779296875">
        <ele>810.4000244140625</ele>
        <time>2026-08-21T12:28:05.000Z</time>
        <extensions>
          <ns3:TrackPointExtension>
            <ns3:hr>145</ns3:hr>
            <ns3:cad>0</ns3:cad>
          </ns3:TrackPointExtension>
        </extensions>
      </trkpt>
      <trkpt lat="45.32390750013291835784912109375" lon="-70.8074659667909145355224609375">
        <ele>810.5999755859375</ele>
        <time>2026-08-21T12:28:06.000Z</time>
        <extensions>
          <ns3:TrackPointExtension>
            <ns3:hr>144</ns3:hr>
            <ns3:cad>0</ns3:cad>
          </ns3:TrackPointExtension>
        </extensions>
      </trkpt>
      <trkpt lat="45.32390750013291835784912109375" lon="-70.8074659667909145355224609375">
        <ele>810.79998779296875</ele>
        <time>2026-08-21T12:28:07.000Z</time>
        <extensions>
          <ns3:TrackPointExtension>
            <ns3:hr>144</ns3:hr>
            <ns3:cad>0</ns3:cad>
          </ns3:TrackPointExtension>
        </extensions>
      </trkpt>
      <trkpt lat="45.323907919228076934814453125" lon="-70.80746554769575595855712890625">
        <ele>811</ele>
        <time>2026-08-21T12:28:08.000Z</time>
        <extensions>
          <ns3:TrackPointExtension>
            <ns3:hr>144</ns3:hr>
            <ns3:cad>0</ns3:cad>
          </ns3:TrackPointExtension>
        </extensions>
      </trkpt>
      <trkpt lat="45.3239022195339202880859375" lon="-70.80746613442897796630859375">
        <ele>811.20001220703125</ele>
        <time>2026-08-21T12:28:09.000Z</time>
        <extensions>
          <ns3:TrackPointExtension>
            <ns3:hr>144</ns3:hr>
            <ns3:cad>0</ns3:cad>
          </ns3:TrackPointExtension>
        </extensions>
      </trkpt>
      <trkpt lat="45.323897190392017364501953125" lon="-70.807465128600597381591796875">
        <ele>811.4000244140625</ele>
        <time>2026-08-21T12:28:10.000Z</time>
        <extensions>
          <ns3:TrackPointExtension>
            <ns3:hr>145</ns3:hr>
            <ns3:cad>0</ns3:cad>
          </ns3:TrackPointExtension>
        </extensions>
      </trkpt>
      <trkpt lat="45.32388813793659210205078125" lon="-70.80746722407639026641845703125">
        <ele>811.4000244140625</ele>
        <time>2026-08-21T12:28:11.000Z</time>
        <extensions>
          <ns3:TrackPointExtension>
            <ns3:hr>144</ns3:hr>
            <ns3:cad>0</ns3:cad>
          </ns3:TrackPointExtension>
        </extensions>
      </trkpt>
      <trkpt lat="45.32388453371822834014892578125" lon="-70.80746219493448734283447265625">
        <ele>811.5999755859375</ele>
        <time>2026-08-21T12:28:12.000Z</time>
        <extensions>
          <ns3:TrackPointExtension>
            <ns3:hr>144</ns3:hr>
            <ns3:cad>0</ns3:cad>
          </ns3:TrackPointExtension>
        </extensions>
      </trkpt>
      <trkpt lat="45.3238809294998645782470703125" lon="-70.8074642904102802276611328125">
        <ele>811.79998779296875</ele>
        <time>2026-08-21T12:28:13.000Z</time>
        <extensions>
          <ns3:TrackPointExtension>
            <ns3:hr>144</ns3:hr>
            <ns3:cad>0</ns3:cad>
          </ns3:TrackPointExtension>
        </extensions>
      </trkpt>
      <trkpt lat="45.32387933693826198577880859375" lon="-70.8074666373431682586669921875">
        <ele>812</ele>
        <time>2026-08-21T12:28:14.000Z</time>
        <extensions>
          <ns3:TrackPointExtension>
            <ns3:hr>144</ns3:hr>
            <ns3:cad>0</ns3:cad>
          </ns3:TrackPointExtension>
        </extensions>
      </trkpt>
      <trkpt lat="45.323879420757293701171875" lon="-70.80746521241962909698486328125">
        <ele>812.20001220703125</ele>
        <time>2026-08-21T12:28:15.000Z</time>
        <extensions>
          <ns3:TrackPointExtension>
            <ns3:hr>143</ns3:hr>
            <ns3:cad>0</ns3:cad>
          </ns3:TrackPointExtension>
        </extensions>
      </trkpt>
      <trkpt lat="45.323879420757293701171875" lon="-70.80746487714350223541259765625">
        <ele>812.4000244140625</ele>
        <time>2026-08-21T12:28:16.000Z</time>
        <extensions>
          <ns3:TrackPointExtension>
            <ns3:hr>143</ns3:hr>
            <ns3:cad>0</ns3:cad>
          </ns3:TrackPointExtension>
        </extensions>
      </trkpt>
      <trkpt lat="45.3238785825669765472412109375" lon="-70.8074639551341533660888671875">
        <ele>812.5999755859375</ele>
        <time>2026-08-21T12:28:17.000Z</time>
        <extensions>
          <ns3:TrackPointExtension>
            <ns3:hr>143</ns3:hr>
            <ns3:cad>0</ns3:cad>
          </ns3:TrackPointExtension>
        </extensions>
      </trkpt>
      <trkpt lat="45.32387346960604190826416015625" lon="-70.807464458048343658447265625">
        <ele>812.79998779296875</ele>
        <time>2026-08-21T12:28:18.000Z</time>
        <extensions>
          <ns3:TrackPointExtension>
            <ns3:hr>142</ns3:hr>
            <ns3:cad>0</ns3:cad>
          </ns3:TrackPointExtension>
        </extensions>
      </trkpt>
      <trkpt lat="45.3238752298057079315185546875" lon="-70.8074612729251384735107421875">
        <ele>813</ele>
        <time>2026-08-21T12:28:19.000Z</time>
        <extensions>
          <ns3:TrackPointExtension>
            <ns3:hr>142</ns3:hr>
            <ns3:cad>0</ns3:cad>
          </ns3:TrackPointExtension>
        </extensions>
      </trkpt>
      <trkpt lat="45.32387799583375453948974609375" lon="-70.80745599232614040374755859375">
        <ele>813.20001220703125</ele>
        <time>2026-08-21T12:28:20.000Z</time>
        <extensions>
          <ns3:TrackPointExtension>
            <ns3:hr>141</ns3:hr>
            <ns3:cad>0</ns3:cad>
          </ns3:TrackPointExtension>
        </extensions>
      </trkpt>
      <trkpt lat="45.32387749291956424713134765625" lon="-70.80744509585201740264892578125">
        <ele>813.4000244140625</ele>
        <time>2026-08-21T12:28:21.000Z</time>
        <extensions>
          <ns3:TrackPointExtension>
            <ns3:hr>141</ns3:hr>
            <ns3:cad>0</ns3:cad>
          </ns3:TrackPointExtension>
        </extensions>
      </trkpt>
      <trkpt lat="45.3238765709102153778076171875" lon="-70.80743939615786075592041015625">
        <ele>813.4000244140625</ele>
        <time>2026-08-21T12:28:22.000Z</time>
        <extensions>
          <ns3:TrackPointExtension>
            <ns3:hr>140</ns3:hr>
            <ns3:cad>0</ns3:cad>
          </ns3:TrackPointExtension>
        </extensions>
      </trkpt>
      <trkpt lat="45.32387070357799530029296875" lon="-70.80743218772113323211669921875">
        <ele>813.5999755859375</ele>
        <time>2026-08-21T12:28:23.000Z</time>
        <extensions>
          <ns3:TrackPointExtension>
            <ns3:hr>140</ns3:hr>
            <ns3:cad>0</ns3:cad>
          </ns3:TrackPointExtension>
        </extensions>
      </trkpt>
      <trkpt lat="45.32386793754994869232177734375" lon="-70.80742849968373775482177734375">
        <ele>813.79998779296875</ele>
        <time>2026-08-21T12:28:24.000Z</time>
        <extensions>
          <ns3:TrackPointExtension>
            <ns3:hr>140</ns3:hr>
            <ns3:cad>0</ns3:cad>
          </ns3:TrackPointExtension>
        </extensions>
      </trkpt>
      <trkpt lat="45.32387229613959789276123046875" lon="-70.80743126571178436279296875">
        <ele>813.79998779296875</ele>
        <time>2026-08-21T12:28:25.000Z</time>
        <extensions>
          <ns3:TrackPointExtension>
            <ns3:hr>140</ns3:hr>
            <ns3:cad>0</ns3:cad>
          </ns3:TrackPointExtension>
        </extensions>
      </trkpt>
      <trkpt lat="45.3238738887012004852294921875" lon="-70.807426907122135162353515625">
        <ele>814</ele>
        <time>2026-08-21T12:28:26.000Z</time>
        <extensions>
          <ns3:TrackPointExtension>
            <ns3:hr>141</ns3:hr>
            <ns3:cad>0</ns3:cad>
          </ns3:TrackPointExtension>
        </extensions>
      </trkpt>
      <trkpt lat="45.3238775767385959625244140625" lon="-70.80742724239826202392578125">
        <ele>814.20001220703125</ele>
        <time>2026-08-21T12:28:27.000Z</time>
        <extensions>
          <ns3:TrackPointExtension>
            <ns3:hr>140</ns3:hr>
            <ns3:cad>0</ns3:cad>
          </ns3:TrackPointExtension>
        </extensions>
      </trkpt>
      <trkpt lat="45.32388051040470600128173828125" lon="-70.8074230514466762542724609375">
        <ele>814.20001220703125</ele>
        <time>2026-08-21T12:28:28.000Z</time>
        <extensions>
          <ns3:TrackPointExtension>
            <ns3:hr>140</ns3:hr>
            <ns3:cad>0</ns3:cad>
          </ns3:TrackPointExtension>
        </extensions>
      </trkpt>
      <trkpt lat="45.32387380488216876983642578125" lon="-70.80742648802697658538818359375">
        <ele>814.4000244140625</ele>
        <time>2026-08-21T12:28:29.000Z</time>
        <extensions>
          <ns3:TrackPointExtension>
            <ns3:hr>140</ns3:hr>
            <ns3:cad>0</ns3:cad>
          </ns3:TrackPointExtension>
        </extensions>
      </trkpt>
      <trkpt lat="45.323869027197360992431640625" lon="-70.807422213256359100341796875">
        <ele>814.5999755859375</ele>
        <time>2026-08-21T12:28:30.000Z</time>
        <extensions>
          <ns3:TrackPointExtension>
            <ns3:hr>140</ns3:hr>
            <ns3:cad>0</ns3:cad>
          </ns3:TrackPointExtension>
        </extensions>
      </trkpt>
      <trkpt lat="45.323865674436092376708984375" lon="-70.8074171841144561767578125">
        <ele>814.5999755859375</ele>
        <time>2026-08-21T12:28:31.000Z</time>
        <extensions>
          <ns3:TrackPointExtension>
            <ns3:hr>140</ns3:hr>
            <ns3:cad>0</ns3:cad>
          </ns3:TrackPointExtension>
        </extensions>
      </trkpt>
      <trkpt lat="45.32386391423642635345458984375" lon="-70.8074082992970943450927734375">
        <ele>814.79998779296875</ele>
        <time>2026-08-21T12:28:32.000Z</time>
        <extensions>
          <ns3:TrackPointExtension>
            <ns3:hr>140</ns3:hr>
            <ns3:cad>0</ns3:cad>
          </ns3:TrackPointExtension>
        </extensions>
      </trkpt>
      <trkpt lat="45.3238619863986968994140625" lon="-70.8074039407074451446533203125">
        <ele>815</ele>
        <time>2026-08-21T12:28:33.000Z</time>
        <extensions>
          <ns3:TrackPointExtension>
            <ns3:hr>140</ns3:hr>
            <ns3:cad>0</ns3:cad>
          </ns3:TrackPointExtension>
        </extensions>
      </trkpt>
      <trkpt lat="45.3238608129322528839111328125" lon="-70.80740042030811309814453125">
        <ele>815.20001220703125</ele>
        <time>2026-08-21T12:28:34.000Z</time>
        <extensions>
          <ns3:TrackPointExtension>
            <ns3:hr>141</ns3:hr>
            <ns3:cad>0</ns3:cad>
          </ns3:TrackPointExtension>
        </extensions>
      </trkpt>
      <trkpt lat="45.32385704107582569122314453125" lon="-70.80739731900393962860107421875">
        <ele>815.4000244140625</ele>
        <time>2026-08-21T12:28:35.000Z</time>
        <extensions>
          <ns3:TrackPointExtension>
            <ns3:hr>140</ns3:hr>
            <ns3:cad>0</ns3:cad>
          </ns3:TrackPointExtension>
        </extensions>
      </trkpt>
      <trkpt lat="45.32385670579969882965087890625" lon="-70.80739413388073444366455078125">
        <ele>815.5999755859375</ele>
        <time>2026-08-21T12:28:36.000Z</time>
        <extensions>
          <ns3:TrackPointExtension>
            <ns3:hr>140</ns3:hr>
            <ns3:cad>0</ns3:cad>
          </ns3:TrackPointExtension>
        </extensions>
      </trkpt>
      <trkpt lat="45.3238567896187305450439453125" lon="-70.8073930442333221435546875">
        <ele>815.79998779296875</ele>
        <time>2026-08-21T12:28:37.000Z</time>
        <extensions>
          <ns3:TrackPointExtension>
            <ns3:hr>140</ns3:hr>
            <ns3:cad>0</ns3:cad>
          </ns3:TrackPointExtension>
        </extensions>
      </trkpt>
      <trkpt lat="45.323852263391017913818359375" lon="-70.8073890209197998046875">
        <ele>816</ele>
        <time>2026-08-21T12:28:38.000Z</time>
        <extensions>
          <ns3:TrackPointExtension>
            <ns3:hr>140</ns3:hr>
            <ns3:cad>0</ns3:cad>
          </ns3:TrackPointExtension>
        </extensions>
      </trkpt>
      <trkpt lat="45.3238504193723201751708984375" lon="-70.8073871769011020660400390625">
        <ele>816.20001220703125</ele>
        <time>2026-08-21T12:28:39.000Z</time>
        <extensions>
          <ns3:TrackPointExtension>
            <ns3:hr>140</ns3:hr>
            <ns3:cad>0</ns3:cad>
          </ns3:TrackPointExtension>
        </extensions>
      </trkpt>
      <trkpt lat="45.32385016791522502899169921875" lon="-70.80738474614918231964111328125">
        <ele>816.4000244140625</ele>
        <time>2026-08-21T12:28:40.000Z</time>
        <extensions>
          <ns3:TrackPointExtension>
            <ns3:hr>140</ns3:hr>
            <ns3:cad>0</ns3:cad>
          </ns3:TrackPointExtension>
        </extensions>
      </trkpt>
      <trkpt lat="45.32384849153459072113037109375" lon="-70.80738323740661144256591796875">
        <ele>816.4000244140625</ele>
        <time>2026-08-21T12:28:41.000Z</time>
        <extensions>
          <ns3:TrackPointExtension>
            <ns3:hr>139</ns3:hr>
            <ns3:cad>0</ns3:cad>
          </ns3:TrackPointExtension>
        </extensions>
      </trkpt>
      <trkpt lat="45.323846898972988128662109375" lon="-70.80738105811178684234619140625">
        <ele>816.5999755859375</ele>
        <time>2026-08-21T12:28:42.000Z</time>
        <extensions>
          <ns3:TrackPointExtension>
            <ns3:hr>139</ns3:hr>
            <ns3:cad>0</ns3:cad>
          </ns3:TrackPointExtension>
        </extensions>
      </trkpt>
      <trkpt lat="45.32384748570621013641357421875" lon="-70.80738189630210399627685546875">
        <ele>816.79998779296875</ele>
        <time>2026-08-21T12:28:43.000Z</time>
        <extensions>
          <ns3:TrackPointExtension>
            <ns3:hr>138</ns3:hr>
            <ns3:cad>0</ns3:cad>
          </ns3:TrackPointExtension>
        </extensions>
      </trkpt>
      <trkpt lat="45.3238517604768276214599609375" lon="-70.80738566815853118896484375">
        <ele>817</ele>
        <time>2026-08-21T12:28:44.000Z</time>
        <extensions>
          <ns3:TrackPointExtension>
            <ns3:hr>138</ns3:hr>
            <ns3:cad>0</ns3:cad>
          </ns3:TrackPointExtension>
        </extensions>
      </trkpt>
      <trkpt lat="45.323848240077495574951171875" lon="-70.80738491378724575042724609375">
        <ele>817</ele>
        <time>2026-08-21T12:28:45.000Z</time>
        <extensions>
          <ns3:TrackPointExtension>
            <ns3:hr>138</ns3:hr>
            <ns3:cad>0</ns3:cad>
          </ns3:TrackPointExtension>
        </extensions>
      </trkpt>
      <trkpt lat="45.32384782098233699798583984375" lon="-70.80738223157823085784912109375">
        <ele>817</ele>
        <time>2026-08-21T12:28:46.000Z</time>
        <extensions>
          <ns3:TrackPointExtension>
            <ns3:hr>138</ns3:hr>
            <ns3:cad>0</ns3:cad>
          </ns3:TrackPointExtension>
        </extensions>
      </trkpt>
      <trkpt lat="45.3238484077155590057373046875" lon="-70.80737762153148651123046875">
        <ele>817.20001220703125</ele>
        <time>2026-08-21T12:28:47.000Z</time>
        <extensions>
          <ns3:TrackPointExtension>
            <ns3:hr>138</ns3:hr>
            <ns3:cad>0</ns3:cad>
          </ns3:TrackPointExtension>
        </extensions>
      </trkpt>
      <trkpt lat="45.32384513877332210540771484375" lon="-70.80737435258924961090087890625">
        <ele>817.20001220703125</ele>
        <time>2026-08-21T12:28:48.000Z</time>
        <extensions>
          <ns3:TrackPointExtension>
            <ns3:hr>138</ns3:hr>
            <ns3:cad>0</ns3:cad>
          </ns3:TrackPointExtension>
        </extensions>
      </trkpt>
      <trkpt lat="45.3238443844020366668701171875" lon="-70.80737284384667873382568359375">
        <ele>817.4000244140625</ele>
        <time>2026-08-21T12:28:49.000Z</time>
        <extensions>
          <ns3:TrackPointExtension>
            <ns3:hr>138</ns3:hr>
            <ns3:cad>0</ns3:cad>
          </ns3:TrackPointExtension>
        </extensions>
      </trkpt>
      <trkpt lat="45.3238423727452754974365234375" lon="-70.80736412666738033294677734375">
        <ele>817.79998779296875</ele>
        <time>2026-08-21T12:28:50.000Z</time>
        <extensions>
          <ns3:TrackPointExtension>
            <ns3:hr>138</ns3:hr>
            <ns3:cad>0</ns3:cad>
          </ns3:TrackPointExtension>
        </extensions>
      </trkpt>
      <trkpt lat="45.3238396905362606048583984375" lon="-70.80736211501061916351318359375">
        <ele>818</ele>
        <time>2026-08-21T12:28:51.000Z</time>
        <extensions>
          <ns3:TrackPointExtension>
            <ns3:hr>138</ns3:hr>
            <ns3:cad>0</ns3:cad>
          </ns3:TrackPointExtension>
        </extensions>
      </trkpt>
      <trkpt lat="45.32383809797465801239013671875" lon="-70.8073613606393337249755859375">
        <ele>818.20001220703125</ele>
        <time>2026-08-21T12:28:52.000Z</time>
        <extensions>
          <ns3:TrackPointExtension>
            <ns3:hr>138</ns3:hr>
            <ns3:cad>0</ns3:cad>
          </ns3:TrackPointExtension>
        </extensions>
      </trkpt>
      <trkpt lat="45.3238319791853427886962890625" lon="-70.80735758878290653228759765625">
        <ele>818.4000244140625</ele>
        <time>2026-08-21T12:28:53.000Z</time>
        <extensions>
          <ns3:TrackPointExtension>
            <ns3:hr>138</ns3:hr>
            <ns3:cad>0</ns3:cad>
          </ns3:TrackPointExtension>
        </extensions>
      </trkpt>
      <trkpt lat="45.32383055426180362701416015625" lon="-70.807354487478733062744140625">
        <ele>818.5999755859375</ele>
        <time>2026-08-21T12:28:54.000Z</time>
        <extensions>
          <ns3:TrackPointExtension>
            <ns3:hr>138</ns3:hr>
            <ns3:cad>0</ns3:cad>
          </ns3:TrackPointExtension>
        </extensions>
      </trkpt>
      <trkpt lat="45.323826782405376434326171875" lon="-70.80734853632748126983642578125">
        <ele>818.5999755859375</ele>
        <time>2026-08-21T12:28:55.000Z</time>
        <extensions>
          <ns3:TrackPointExtension>
            <ns3:hr>139</ns3:hr>
            <ns3:cad>0</ns3:cad>
          </ns3:TrackPointExtension>
        </extensions>
      </trkpt>
      <trkpt lat="45.3238266147673130035400390625" lon="-70.80735079944133758544921875">
        <ele>818.79998779296875</ele>
        <time>2026-08-21T12:28:56.000Z</time>
        <extensions>
          <ns3:TrackPointExtension>
            <ns3:hr>139</ns3:hr>
            <ns3:cad>0</ns3:cad>
          </ns3:TrackPointExtension>
        </extensions>
      </trkpt>
      <trkpt lat="45.32382217235863208770751953125" lon="-70.807347781956195831298828125">
        <ele>819</ele>
        <time>2026-08-21T12:28:57.000Z</time>
        <extensions>
          <ns3:TrackPointExtension>
            <ns3:hr>140</ns3:hr>
            <ns3:cad>0</ns3:cad>
          </ns3:TrackPointExtension>
        </extensions>
      </trkpt>
      <trkpt lat="45.3238229267299175262451171875" lon="-70.80734945833683013916015625">
        <ele>819.20001220703125</ele>
        <time>2026-08-21T12:28:58.000Z</time>
        <extensions>
          <ns3:TrackPointExtension>
            <ns3:hr>140</ns3:hr>
            <ns3:cad>0</ns3:cad>
          </ns3:TrackPointExtension>
        </extensions>
      </trkpt>
      <trkpt lat="45.323822088539600372314453125" lon="-70.80734652467072010040283203125">
        <ele>819.20001220703125</ele>
        <time>2026-08-21T12:28:59.000Z</time>
        <extensions>
          <ns3:TrackPointExtension>
            <ns3:hr>140</ns3:hr>
            <ns3:cad>0</ns3:cad>
          </ns3:TrackPointExtension>
        </extensions>
      </trkpt>
      <trkpt lat="45.3238209150731563568115234375" lon="-70.80734350718557834625244140625">
        <ele>819.4000244140625</ele>
        <time>2026-08-21T12:29:00.000Z</time>
        <extensions>
          <ns3:TrackPointExtension>
            <ns3:hr>141</ns3:hr>
            <ns3:cad>0</ns3:cad>
          </ns3:TrackPointExtension>
        </extensions>
      </trkpt>
      <trkpt lat="45.3238165564835071563720703125" lon="-70.8073301799595355987548828125">
        <ele>819.5999755859375</ele>
        <time>2026-08-21T12:29:01.000Z</time>
        <extensions>
          <ns3:TrackPointExtension>
            <ns3:hr>141</ns3:hr>
            <ns3:cad>0</ns3:cad>
          </ns3:TrackPointExtension>
        </extensions>
      </trkpt>
      <trkpt lat="45.323810689151287078857421875" lon="-70.80731458961963653564453125">
        <ele>819.5999755859375</ele>
        <time>2026-08-21T12:29:02.000Z</time>
        <extensions>
          <ns3:TrackPointExtension>
            <ns3:hr>140</ns3:hr>
            <ns3:cad>0</ns3:cad>
          </ns3:TrackPointExtension>
        </extensions>
      </trkpt>
      <trkpt lat="45.3238071687519550323486328125" lon="-70.8073070459067821502685546875">
        <ele>819.79998779296875</ele>
        <time>2026-08-21T12:29:03.000Z</time>
        <extensions>
          <ns3:TrackPointExtension>
            <ns3:hr>140</ns3:hr>
            <ns3:cad>0</ns3:cad>
          </ns3:TrackPointExtension>
        </extensions>
      </trkpt>
      <trkpt lat="45.323801971971988677978515625" lon="-70.80730226822197437286376953125">
        <ele>820</ele>
        <time>2026-08-21T12:29:04.000Z</time>
        <extensions>
          <ns3:TrackPointExtension>
            <ns3:hr>140</ns3:hr>
            <ns3:cad>0</ns3:cad>
          </ns3:TrackPointExtension>
        </extensions>
      </trkpt>
      <trkpt lat="45.32380037941038608551025390625" lon="-70.8073000051081180572509765625">
        <ele>820</ele>
        <time>2026-08-21T12:29:05.000Z</time>
        <extensions>
          <ns3:TrackPointExtension>
            <ns3:hr>140</ns3:hr>
            <ns3:cad>0</ns3:cad>
          </ns3:TrackPointExtension>
        </extensions>
      </trkpt>
      <trkpt lat="45.323798954486846923828125" lon="-70.807300508022308349609375">
        <ele>820.20001220703125</ele>
        <time>2026-08-21T12:29:06.000Z</time>
        <extensions>
          <ns3:TrackPointExtension>
            <ns3:hr>140</ns3:hr>
            <ns3:cad>0</ns3:cad>
          </ns3:TrackPointExtension>
        </extensions>
      </trkpt>
      <trkpt lat="45.3237937577068805694580078125" lon="-70.80729858018457889556884765625">
        <ele>820.4000244140625</ele>
        <time>2026-08-21T12:29:07.000Z</time>
        <extensions>
          <ns3:TrackPointExtension>
            <ns3:hr>140</ns3:hr>
            <ns3:cad>0</ns3:cad>
          </ns3:TrackPointExtension>
        </extensions>
      </trkpt>
      <trkpt lat="45.3237934224307537078857421875" lon="-70.80729975365102291107177734375">
        <ele>820.5999755859375</ele>
        <time>2026-08-21T12:29:08.000Z</time>
        <extensions>
          <ns3:TrackPointExtension>
            <ns3:hr>140</ns3:hr>
            <ns3:cad>0</ns3:cad>
          </ns3:TrackPointExtension>
        </extensions>
      </trkpt>
      <trkpt lat="45.32379032112658023834228515625" lon="-70.807300843298435211181640625">
        <ele>820.79998779296875</ele>
        <time>2026-08-21T12:29:09.000Z</time>
        <extensions>
          <ns3:TrackPointExtension>
            <ns3:hr>141</ns3:hr>
            <ns3:cad>0</ns3:cad>
          </ns3:TrackPointExtension>
        </extensions>
      </trkpt>
      <trkpt lat="45.32378487288951873779296875" lon="-70.80730126239359378814697265625">
        <ele>821.20001220703125</ele>
        <time>2026-08-21T12:29:10.000Z</time>
        <extensions>
          <ns3:TrackPointExtension>
            <ns3:hr>141</ns3:hr>
            <ns3:cad>0</ns3:cad>
          </ns3:TrackPointExtension>
        </extensions>
      </trkpt>
      <trkpt lat="45.32378545962274074554443359375" lon="-70.807304196059703826904296875">
        <ele>821.20001220703125</ele>
        <time>2026-08-21T12:29:11.000Z</time>
        <extensions>
          <ns3:TrackPointExtension>
            <ns3:hr>142</ns3:hr>
            <ns3:cad>0</ns3:cad>
          </ns3:TrackPointExtension>
        </extensions>
      </trkpt>
      <trkpt lat="45.32377950847148895263671875" lon="-70.8073013462126255035400390625">
        <ele>821.4000244140625</ele>
        <time>2026-08-21T12:29:12.000Z</time>
        <extensions>
          <ns3:TrackPointExtension>
            <ns3:hr>142</ns3:hr>
            <ns3:cad>0</ns3:cad>
          </ns3:TrackPointExtension>
        </extensions>
      </trkpt>
      <trkpt lat="45.32377489842474460601806640625" lon="-70.80729841254651546478271484375">
        <ele>821.5999755859375</ele>
        <time>2026-08-21T12:29:13.000Z</time>
        <extensions>
          <ns3:TrackPointExtension>
            <ns3:hr>142</ns3:hr>
            <ns3:cad>0</ns3:cad>
          </ns3:TrackPointExtension>
        </extensions>
      </trkpt>
      <trkpt lat="45.3237759880721569061279296875" lon="-70.80730109475553035736083984375">
        <ele>821.79998779296875</ele>
        <time>2026-08-21T12:29:14.000Z</time>
        <extensions>
          <ns3:TrackPointExtension>
            <ns3:hr>142</ns3:hr>
            <ns3:cad>0</ns3:cad>
          </ns3:TrackPointExtension>
        </extensions>
      </trkpt>
      <trkpt lat="45.32377422787249088287353515625" lon="-70.80730025656521320343017578125">
        <ele>821.79998779296875</ele>
        <time>2026-08-21T12:29:15.000Z</time>
        <extensions>
          <ns3:TrackPointExtension>
            <ns3:hr>143</ns3:hr>
            <ns3:cad>0</ns3:cad>
          </ns3:TrackPointExtension>
        </extensions>
      </trkpt>
      <trkpt lat="45.32377406023442745208740234375" lon="-70.8073060400784015655517578125">
        <ele>822</ele>
        <time>2026-08-21T12:29:16.000Z</time>
        <extensions>
          <ns3:TrackPointExtension>
            <ns3:hr>142</ns3:hr>
            <ns3:cad>0</ns3:cad>
          </ns3:TrackPointExtension>
        </extensions>
      </trkpt>
      <trkpt lat="45.32377355732023715972900390625" lon="-70.8073080517351627349853515625">
        <ele>822</ele>
        <time>2026-08-21T12:29:17.000Z</time>
        <extensions>
          <ns3:TrackPointExtension>
            <ns3:hr>142</ns3:hr>
            <ns3:cad>0</ns3:cad>
          </ns3:TrackPointExtension>
        </extensions>
      </trkpt>
      <trkpt lat="45.32376802526414394378662109375" lon="-70.8073073811829090118408203125">
        <ele>822.20001220703125</ele>
        <time>2026-08-21T12:29:18.000Z</time>
        <extensions>
          <ns3:TrackPointExtension>
            <ns3:hr>142</ns3:hr>
            <ns3:cad>0</ns3:cad>
          </ns3:TrackPointExtension>
        </extensions>
      </trkpt>
      <trkpt lat="45.3237652592360973358154296875" lon="-70.8073067106306552886962890625">
        <ele>822.4000244140625</ele>
        <time>2026-08-21T12:29:19.000Z</time>
        <extensions>
          <ns3:TrackPointExtension>
            <ns3:hr>142</ns3:hr>
            <ns3:cad>0</ns3:cad>
          </ns3:TrackPointExtension>
        </extensions>
      </trkpt>
      <trkpt lat="45.323763079941272735595703125" lon="-70.8073063753545284271240234375">
        <ele>822.4000244140625</ele>
        <time>2026-08-21T12:29:20.000Z</time>
        <extensions>
          <ns3:TrackPointExtension>
            <ns3:hr>142</ns3:hr>
            <ns3:cad>0</ns3:cad>
          </ns3:TrackPointExtension>
        </extensions>
      </trkpt>
      <trkpt lat="45.323756039142608642578125" lon="-70.80730780027806758880615234375">
        <ele>822.5999755859375</ele>
        <time>2026-08-21T12:29:21.000Z</time>
        <extensions>
          <ns3:TrackPointExtension>
            <ns3:hr>142</ns3:hr>
            <ns3:cad>0</ns3:cad>
          </ns3:TrackPointExtension>
        </extensions>
      </trkpt>
      <trkpt lat="45.3237511776387691497802734375" lon="-70.80730654299259185791015625">
        <ele>822.79998779296875</ele>
        <time>2026-08-21T12:29:22.000Z</time>
        <extensions>
          <ns3:TrackPointExtension>
            <ns3:hr>142</ns3:hr>
            <ns3:cad>0</ns3:cad>
          </ns3:TrackPointExtension>
        </extensions>
      </trkpt>
      <trkpt lat="45.32375059090554714202880859375" lon="-70.80730562098324298858642578125">
        <ele>823</ele>
        <time>2026-08-21T12:29:23.000Z</time>
        <extensions>
          <ns3:TrackPointExtension>
            <ns3:hr>142</ns3:hr>
            <ns3:cad>0</ns3:cad>
          </ns3:TrackPointExtension>
        </extensions>
      </trkpt>
      <trkpt lat="45.323751680552959442138671875" lon="-70.8073097281157970428466796875">
        <ele>823.20001220703125</ele>
        <time>2026-08-21T12:29:24.000Z</time>
        <extensions>
          <ns3:TrackPointExtension>
            <ns3:hr>142</ns3:hr>
            <ns3:cad>0</ns3:cad>
          </ns3:TrackPointExtension>
        </extensions>
      </trkpt>
      <trkpt lat="45.3237518481910228729248046875" lon="-70.80731282941997051239013671875">
        <ele>823.20001220703125</ele>
        <time>2026-08-21T12:29:25.000Z</time>
        <extensions>
          <ns3:TrackPointExtension>
            <ns3:hr>142</ns3:hr>
            <ns3:cad>0</ns3:cad>
          </ns3:TrackPointExtension>
        </extensions>
      </trkpt>
      <trkpt lat="45.32374866306781768798828125" lon="-70.80731182359158992767333984375">
        <ele>823.4000244140625</ele>
        <time>2026-08-21T12:29:26.000Z</time>
        <extensions>
          <ns3:TrackPointExtension>
            <ns3:hr>141</ns3:hr>
            <ns3:cad>0</ns3:cad>
          </ns3:TrackPointExtension>
        </extensions>
      </trkpt>
      <trkpt lat="45.32374539412558078765869140625" lon="-70.80730763264000415802001953125">
        <ele>823.5999755859375</ele>
        <time>2026-08-21T12:29:27.000Z</time>
        <extensions>
          <ns3:TrackPointExtension>
            <ns3:hr>141</ns3:hr>
            <ns3:cad>0</ns3:cad>
          </ns3:TrackPointExtension>
        </extensions>
      </trkpt>
      <trkpt lat="45.32374723814427852630615234375" lon="-70.80731056630611419677734375">
        <ele>823.79998779296875</ele>
        <time>2026-08-21T12:29:28.000Z</time>
        <extensions>
          <ns3:TrackPointExtension>
            <ns3:hr>140</ns3:hr>
            <ns3:cad>0</ns3:cad>
          </ns3:TrackPointExtension>
        </extensions>
      </trkpt>
      <trkpt lat="45.3237441368401050567626953125" lon="-70.8073100633919239044189453125">
        <ele>824</ele>
        <time>2026-08-21T12:29:29.000Z</time>
        <extensions>
          <ns3:TrackPointExtension>
            <ns3:hr>140</ns3:hr>
            <ns3:cad>0</ns3:cad>
          </ns3:TrackPointExtension>
        </extensions>
      </trkpt>
      <trkpt lat="45.323743633925914764404296875" lon="-70.80730981193482875823974609375">
        <ele>824.20001220703125</ele>
        <time>2026-08-21T12:29:30.000Z</time>
        <extensions>
          <ns3:TrackPointExtension>
            <ns3:hr>140</ns3:hr>
            <ns3:cad>0</ns3:cad>
          </ns3:TrackPointExtension>
        </extensions>
      </trkpt>
      <trkpt lat="45.323739945888519287109375" lon="-70.80730729736387729644775390625">
        <ele>824.4000244140625</ele>
        <time>2026-08-21T12:29:31.000Z</time>
        <extensions>
          <ns3:TrackPointExtension>
            <ns3:hr>140</ns3:hr>
            <ns3:cad>0</ns3:cad>
          </ns3:TrackPointExtension>
        </extensions>
      </trkpt>
      <trkpt lat="45.3237391076982021331787109375" lon="-70.80730360932648181915283203125">
        <ele>824.5999755859375</ele>
        <time>2026-08-21T12:29:32.000Z</time>
        <extensions>
          <ns3:TrackPointExtension>
            <ns3:hr>140</ns3:hr>
            <ns3:cad>0</ns3:cad>
          </ns3:TrackPointExtension>
        </extensions>
      </trkpt>
      <trkpt lat="45.32373835332691669464111328125" lon="-70.8072953112423419952392578125">
        <ele>824.79998779296875</ele>
        <time>2026-08-21T12:29:33.000Z</time>
        <extensions>
          <ns3:TrackPointExtension>
            <ns3:hr>140</ns3:hr>
            <ns3:cad>0</ns3:cad>
          </ns3:TrackPointExtension>
        </extensions>
      </trkpt>
      <trkpt lat="45.32373801805078983306884765625" lon="-70.80728231929242610931396484375">
        <ele>824.79998779296875</ele>
        <time>2026-08-21T12:29:34.000Z</time>
        <extensions>
          <ns3:TrackPointExtension>
            <ns3:hr>141</ns3:hr>
            <ns3:cad>0</ns3:cad>
          </ns3:TrackPointExtension>
        </extensions>
      </trkpt>
      <trkpt lat="45.32373785041272640228271484375" lon="-70.8072755299508571624755859375">
        <ele>825</ele>
        <time>2026-08-21T12:29:35.000Z</time>
        <extensions>
          <ns3:TrackPointExtension>
            <ns3:hr>141</ns3:hr>
            <ns3:cad>0</ns3:cad>
          </ns3:TrackPointExtension>
        </extensions>
      </trkpt>
      <trkpt lat="45.32373583875596523284912109375" lon="-70.80726228654384613037109375">
        <ele>825.20001220703125</ele>
        <time>2026-08-21T12:29:36.000Z</time>
        <extensions>
          <ns3:TrackPointExtension>
            <ns3:hr>140</ns3:hr>
            <ns3:cad>0</ns3:cad>
          </ns3:TrackPointExtension>
        </extensions>
      </trkpt>
      <trkpt lat="45.3237344138324260711669921875" lon="-70.80725231207907199859619140625">
        <ele>825.4000244140625</ele>
        <time>2026-08-21T12:29:37.000Z</time>
        <extensions>
          <ns3:TrackPointExtension>
            <ns3:hr>141</ns3:hr>
            <ns3:cad>0</ns3:cad>
          </ns3:TrackPointExtension>
        </extensions>
      </trkpt>
      <trkpt lat="45.32373349182307720184326171875" lon="-70.80724644474685192108154296875">
        <ele>825.5999755859375</ele>
        <time>2026-08-21T12:29:38.000Z</time>
        <extensions>
          <ns3:TrackPointExtension>
            <ns3:hr>141</ns3:hr>
            <ns3:cad>0</ns3:cad>
          </ns3:TrackPointExtension>
        </extensions>
      </trkpt>
      <trkpt lat="45.3237332403659820556640625" lon="-70.80723253078758716583251953125">
        <ele>825.79998779296875</ele>
        <time>2026-08-21T12:29:39.000Z</time>
        <extensions>
          <ns3:TrackPointExtension>
            <ns3:hr>141</ns3:hr>
            <ns3:cad>0</ns3:cad>
          </ns3:TrackPointExtension>
        </extensions>
      </trkpt>
      <trkpt lat="45.32373148016631603240966796875" lon="-70.80722213722765445709228515625">
        <ele>826</ele>
        <time>2026-08-21T12:29:40.000Z</time>
        <extensions>
          <ns3:TrackPointExtension>
            <ns3:hr>142</ns3:hr>
            <ns3:cad>0</ns3:cad>
          </ns3:TrackPointExtension>
        </extensions>
      </trkpt>
      <trkpt lat="45.323730222880840301513671875" lon="-70.807217024266719818115234375">
        <ele>826.20001220703125</ele>
        <time>2026-08-21T12:29:41.000Z</time>
        <extensions>
          <ns3:TrackPointExtension>
            <ns3:hr>142</ns3:hr>
            <ns3:cad>0</ns3:cad>
          </ns3:TrackPointExtension>
        </extensions>
      </trkpt>
      <trkpt lat="45.32372728921473026275634765625" lon="-70.8072047866880893707275390625">
        <ele>826.4000244140625</ele>
        <time>2026-08-21T12:29:42.000Z</time>
        <extensions>
          <ns3:TrackPointExtension>
            <ns3:hr>142</ns3:hr>
            <ns3:cad>0</ns3:cad>
          </ns3:TrackPointExtension>
        </extensions>
      </trkpt>
      <trkpt lat="45.3237251937389373779296875" lon="-70.8071967400610446929931640625">
        <ele>826.5999755859375</ele>
        <time>2026-08-21T12:29:43.000Z</time>
        <extensions>
          <ns3:TrackPointExtension>
            <ns3:hr>143</ns3:hr>
            <ns3:cad>0</ns3:cad>
          </ns3:TrackPointExtension>
        </extensions>
      </trkpt>
      <trkpt lat="45.3237211704254150390625" lon="-70.80718575976788997650146484375">
        <ele>826.5999755859375</ele>
        <time>2026-08-21T12:29:44.000Z</time>
        <extensions>
          <ns3:TrackPointExtension>
            <ns3:hr>142</ns3:hr>
            <ns3:cad>75</ns3:cad>
          </ns3:TrackPointExtension>
        </extensions>
      </trkpt>
      <trkpt lat="45.32371153123676776885986328125" lon="-70.80717016942799091339111328125">
        <ele>826.79998779296875</ele>
        <time>2026-08-21T12:29:45.000Z</time>
        <extensions>
          <ns3:TrackPointExtension>
            <ns3:hr>142</ns3:hr>
            <ns3:cad>75</ns3:cad>
          </ns3:TrackPointExtension>
        </extensions>
      </trkpt>
      <trkpt lat="45.32370164059102535247802734375" lon="-70.80716145224869251251220703125">
        <ele>827</ele>
        <time>2026-08-21T12:29:46.000Z</time>
        <extensions>
          <ns3:TrackPointExtension>
            <ns3:hr>142</ns3:hr>
            <ns3:cad>44</ns3:cad>
          </ns3:TrackPointExtension>
        </extensions>
      </trkpt>
      <trkpt lat="45.32369510270655155181884765625" lon="-70.80716111697256565093994140625">
        <ele>827.20001220703125</ele>
        <time>2026-08-21T12:29:47.000Z</time>
        <extensions>
          <ns3:TrackPointExtension>
            <ns3:hr>143</ns3:hr>
            <ns3:cad>0</ns3:cad>
          </ns3:TrackPointExtension>
        </extensions>
      </trkpt>
      <trkpt lat="45.32368353568017482757568359375" lon="-70.8071575127542018890380859375">
        <ele>827.4000244140625</ele>
        <time>2026-08-21T12:29:48.000Z</time>
        <extensions>
          <ns3:TrackPointExtension>
            <ns3:hr>143</ns3:hr>
            <ns3:cad>0</ns3:cad>
          </ns3:TrackPointExtension>
        </extensions>
      </trkpt>
      <trkpt lat="45.32367766834795475006103515625" lon="-70.80715776421129703521728515625">
        <ele>827.5999755859375</ele>
        <time>2026-08-21T12:29:49.000Z</time>
        <extensions>
          <ns3:TrackPointExtension>
            <ns3:hr>144</ns3:hr>
            <ns3:cad>0</ns3:cad>
          </ns3:TrackPointExtension>
        </extensions>
      </trkpt>
      <trkpt lat="45.32366593368351459503173828125" lon="-70.80716463737189769744873046875">
        <ele>827.79998779296875</ele>
        <time>2026-08-21T12:29:50.000Z</time>
        <extensions>
          <ns3:TrackPointExtension>
            <ns3:hr>144</ns3:hr>
            <ns3:cad>0</ns3:cad>
          </ns3:TrackPointExtension>
        </extensions>
      </trkpt>
      <trkpt lat="45.32365520484745502471923828125" lon="-70.807166397571563720703125">
        <ele>828</ele>
        <time>2026-08-21T12:29:51.000Z</time>
        <extensions>
          <ns3:TrackPointExtension>
            <ns3:hr>144</ns3:hr>
            <ns3:cad>0</ns3:cad>
          </ns3:TrackPointExtension>
        </extensions>
      </trkpt>
      <trkpt lat="45.32364497892558574676513671875" lon="-70.80716648139059543609619140625">
        <ele>828.20001220703125</ele>
        <time>2026-08-21T12:29:52.000Z</time>
        <extensions>
          <ns3:TrackPointExtension>
            <ns3:hr>144</ns3:hr>
            <ns3:cad>0</ns3:cad>
          </ns3:TrackPointExtension>
        </extensions>
      </trkpt>
      <trkpt lat="45.32363458536565303802490234375" lon="-70.80716572701930999755859375">
        <ele>828.4000244140625</ele>
        <time>2026-08-21T12:29:53.000Z</time>
        <extensions>
          <ns3:TrackPointExtension>
            <ns3:hr>144</ns3:hr>
            <ns3:cad>0</ns3:cad>
          </ns3:TrackPointExtension>
        </extensions>
      </trkpt>
      <trkpt lat="45.32362704165279865264892578125" lon="-70.80716614611446857452392578125">
        <ele>828.5999755859375</ele>
        <time>2026-08-21T12:29:54.000Z</time>
        <extensions>
          <ns3:TrackPointExtension>
            <ns3:hr>144</ns3:hr>
            <ns3:cad>41</ns3:cad>
          </ns3:TrackPointExtension>
        </extensions>
      </trkpt>
      <trkpt lat="45.32361933030188083648681640625" lon="-70.80716363154351711273193359375">
        <ele>828.79998779296875</ele>
        <time>2026-08-21T12:29:55.000Z</time>
        <extensions>
          <ns3:TrackPointExtension>
            <ns3:hr>145</ns3:hr>
            <ns3:cad>41</ns3:cad>
          </ns3:TrackPointExtension>
        </extensions>
      </trkpt>
      <trkpt lat="45.32361052930355072021484375" lon="-70.80716245807707309722900390625">
        <ele>828.79998779296875</ele>
        <time>2026-08-21T12:29:56.000Z</time>
        <extensions>
          <ns3:TrackPointExtension>
            <ns3:hr>145</ns3:hr>
            <ns3:cad>43</ns3:cad>
          </ns3:TrackPointExtension>
        </extensions>
      </trkpt>
      <trkpt lat="45.3236023150384426116943359375" lon="-70.807164721190929412841796875">
        <ele>829</ele>
        <time>2026-08-21T12:29:57.000Z</time>
        <extensions>
          <ns3:TrackPointExtension>
            <ns3:hr>145</ns3:hr>
            <ns3:cad>43</ns3:cad>
          </ns3:TrackPointExtension>
        </extensions>
      </trkpt>
      <trkpt lat="45.323596112430095672607421875" lon="-70.80715944059193134307861328125">
        <ele>829.20001220703125</ele>
        <time>2026-08-21T12:29:58.000Z</time>
        <extensions>
          <ns3:TrackPointExtension>
            <ns3:hr>145</ns3:hr>
            <ns3:cad>42</ns3:cad>
          </ns3:TrackPointExtension>
        </extensions>
      </trkpt>
      <trkpt lat="45.3235919214785099029541015625" lon="-70.807151980698108673095703125">
        <ele>829.4000244140625</ele>
        <time>2026-08-21T12:29:59.000Z</time>
        <extensions>
          <ns3:TrackPointExtension>
            <ns3:hr>146</ns3:hr>
            <ns3:cad>42</ns3:cad>
          </ns3:TrackPointExtension>
        </extensions>
      </trkpt>
      <trkpt lat="45.32358731143176555633544921875" lon="-70.8071417547762393951416015625">
        <ele>829.4000244140625</ele>
        <time>2026-08-21T12:30:00.000Z</time>
        <extensions>
          <ns3:TrackPointExtension>
            <ns3:hr>146</ns3:hr>
            <ns3:cad>42</ns3:cad>
          </ns3:TrackPointExtension>
        </extensions>
      </trkpt>
      <trkpt lat="45.323581695556640625" lon="-70.807135887444019317626953125">
        <ele>829.5999755859375</ele>
        <time>2026-08-21T12:30:01.000Z</time>
        <extensions>
          <ns3:TrackPointExtension>
            <ns3:hr>146</ns3:hr>
            <ns3:cad>42</ns3:cad>
          </ns3:TrackPointExtension>
        </extensions>
      </trkpt>
      <trkpt lat="45.32357054762542247772216796875" lon="-70.80713211558759212493896484375">
        <ele>829.79998779296875</ele>
        <time>2026-08-21T12:30:02.000Z</time>
        <extensions>
          <ns3:TrackPointExtension>
            <ns3:hr>147</ns3:hr>
            <ns3:cad>42</ns3:cad>
          </ns3:TrackPointExtension>
        </extensions>
      </trkpt>
      <trkpt lat="45.32355948351323604583740234375" lon="-70.80713622272014617919921875">
        <ele>830</ele>
        <time>2026-08-21T12:30:03.000Z</time>
        <extensions>
          <ns3:TrackPointExtension>
            <ns3:hr>147</ns3:hr>
            <ns3:cad>44</ns3:cad>
          </ns3:TrackPointExtension>
        </extensions>
      </trkpt>
      <trkpt lat="45.32354892231523990631103515625" lon="-70.80713697709143161773681640625">
        <ele>830</ele>
        <time>2026-08-21T12:30:04.000Z</time>
        <extensions>
          <ns3:TrackPointExtension>
            <ns3:hr>147</ns3:hr>
            <ns3:cad>44</ns3:cad>
          </ns3:TrackPointExtension>
        </extensions>
      </trkpt>
      <trkpt lat="45.32353802584111690521240234375" lon="-70.80714100040495395660400390625">
        <ele>830.20001220703125</ele>
        <time>2026-08-21T12:30:05.000Z</time>
        <extensions>
          <ns3:TrackPointExtension>
            <ns3:hr>147</ns3:hr>
            <ns3:cad>43</ns3:cad>
          </ns3:TrackPointExtension>
        </extensions>
      </trkpt>
      <trkpt lat="45.32353081740438938140869140625" lon="-70.80713689327239990234375">
        <ele>830.4000244140625</ele>
        <time>2026-08-21T12:30:06.000Z</time>
        <extensions>
          <ns3:TrackPointExtension>
            <ns3:hr>147</ns3:hr>
            <ns3:cad>43</ns3:cad>
          </ns3:TrackPointExtension>
        </extensions>
      </trkpt>
      <trkpt lat="45.3235188312828540802001953125" lon="-70.8071296848356723785400390625">
        <ele>830.4000244140625</ele>
        <time>2026-08-21T12:30:07.000Z</time>
        <extensions>
          <ns3:TrackPointExtension>
            <ns3:hr>147</ns3:hr>
            <ns3:cad>43</ns3:cad>
          </ns3:TrackPointExtension>
        </extensions>
      </trkpt>
      <trkpt lat="45.32350592315196990966796875" lon="-70.80713488161563873291015625">
        <ele>830.5999755859375</ele>
        <time>2026-08-21T12:30:08.000Z</time>
        <extensions>
          <ns3:TrackPointExtension>
            <ns3:hr>147</ns3:hr>
            <ns3:cad>43</ns3:cad>
          </ns3:TrackPointExtension>
        </extensions>
      </trkpt>
      <trkpt lat="45.323488824069499969482421875" lon="-70.80713245086371898651123046875">
        <ele>830.5999755859375</ele>
        <time>2026-08-21T12:30:09.000Z</time>
        <extensions>
          <ns3:TrackPointExtension>
            <ns3:hr>146</ns3:hr>
            <ns3:cad>43</ns3:cad>
          </ns3:TrackPointExtension>
        </extensions>
      </trkpt>
      <trkpt lat="45.32347977161407470703125" lon="-70.8071337081491947174072265625">
        <ele>830.5999755859375</ele>
        <time>2026-08-21T12:30:10.000Z</time>
        <extensions>
          <ns3:TrackPointExtension>
            <ns3:hr>147</ns3:hr>
            <ns3:cad>43</ns3:cad>
          </ns3:TrackPointExtension>
        </extensions>
      </trkpt>
      <trkpt lat="45.32347566448152065277099609375" lon="-70.80712339840829372406005859375">
        <ele>830.5999755859375</ele>
        <time>2026-08-21T12:30:11.000Z</time>
        <extensions>
          <ns3:TrackPointExtension>
            <ns3:hr>147</ns3:hr>
            <ns3:cad>56</ns3:cad>
          </ns3:TrackPointExtension>
        </extensions>
      </trkpt>
      <trkpt lat="45.32346711494028568267822265625" lon="-70.80712147057056427001953125">
        <ele>830.79998779296875</ele>
        <time>2026-08-21T12:30:12.000Z</time>
        <extensions>
          <ns3:TrackPointExtension>
            <ns3:hr>147</ns3:hr>
            <ns3:cad>56</ns3:cad>
          </ns3:TrackPointExtension>
        </extensions>
      </trkpt>
      <trkpt lat="45.32345605082809925079345703125" lon="-70.80712289549410343170166015625">
        <ele>831</ele>
        <time>2026-08-21T12:30:13.000Z</time>
        <extensions>
          <ns3:TrackPointExtension>
            <ns3:hr>146</ns3:hr>
            <ns3:cad>46</ns3:cad>
          </ns3:TrackPointExtension>
        </extensions>
      </trkpt>
      <trkpt lat="45.3234531171619892120361328125" lon="-70.8071286790072917938232421875">
        <ele>831.4000244140625</ele>
        <time>2026-08-21T12:30:14.000Z</time>
        <extensions>
          <ns3:TrackPointExtension>
            <ns3:hr>146</ns3:hr>
            <ns3:cad>46</ns3:cad>
          </ns3:TrackPointExtension>
        </extensions>
      </trkpt>
      <trkpt lat="45.3234397061169147491455078125" lon="-70.807129181921482086181640625">
        <ele>831.5999755859375</ele>
        <time>2026-08-21T12:30:15.000Z</time>
        <extensions>
          <ns3:TrackPointExtension>
            <ns3:hr>147</ns3:hr>
            <ns3:cad>46</ns3:cad>
          </ns3:TrackPointExtension>
        </extensions>
      </trkpt>
      <trkpt lat="45.3234299831092357635498046875" lon="-70.80713865347206592559814453125">
        <ele>831.79998779296875</ele>
        <time>2026-08-21T12:30:16.000Z</time>
        <extensions>
          <ns3:TrackPointExtension>
            <ns3:hr>147</ns3:hr>
            <ns3:cad>46</ns3:cad>
          </ns3:TrackPointExtension>
        </extensions>
      </trkpt>
      <trkpt lat="45.323419757187366485595703125" lon="-70.80714385025203227996826171875">
        <ele>832</ele>
        <time>2026-08-21T12:30:17.000Z</time>
        <extensions>
          <ns3:TrackPointExtension>
            <ns3:hr>146</ns3:hr>
            <ns3:cad>45</ns3:cad>
          </ns3:TrackPointExtension>
        </extensions>
      </trkpt>
      <trkpt lat="45.32340710051357746124267578125" lon="-70.8071454428136348724365234375">
        <ele>832</ele>
        <time>2026-08-21T12:30:18.000Z</time>
        <extensions>
          <ns3:TrackPointExtension>
            <ns3:hr>146</ns3:hr>
            <ns3:cad>45</ns3:cad>
          </ns3:TrackPointExtension>
        </extensions>
      </trkpt>
      <trkpt lat="45.32339804805815219879150390625" lon="-70.80713982693850994110107421875">
        <ele>832</ele>
        <time>2026-08-21T12:30:19.000Z</time>
        <extensions>
          <ns3:TrackPointExtension>
            <ns3:hr>146</ns3:hr>
            <ns3:cad>45</ns3:cad>
          </ns3:TrackPointExtension>
        </extensions>
      </trkpt>
      <trkpt lat="45.32338279299437999725341796875" lon="-70.807140581309795379638671875">
        <ele>832.20001220703125</ele>
        <time>2026-08-21T12:30:20.000Z</time>
        <extensions>
          <ns3:TrackPointExtension>
            <ns3:hr>147</ns3:hr>
            <ns3:cad>45</ns3:cad>
          </ns3:TrackPointExtension>
        </extensions>
      </trkpt>
      <trkpt lat="45.3233719803392887115478515625" lon="-70.80714670009911060333251953125">
        <ele>832.20001220703125</ele>
        <time>2026-08-21T12:30:21.000Z</time>
        <extensions>
          <ns3:TrackPointExtension>
            <ns3:hr>146</ns3:hr>
            <ns3:cad>45</ns3:cad>
          </ns3:TrackPointExtension>
        </extensions>
      </trkpt>
      <trkpt lat="45.3233642689883708953857421875" lon="-70.8071489632129669189453125">
        <ele>832.20001220703125</ele>
        <time>2026-08-21T12:30:22.000Z</time>
        <extensions>
          <ns3:TrackPointExtension>
            <ns3:hr>146</ns3:hr>
            <ns3:cad>45</ns3:cad>
          </ns3:TrackPointExtension>
        </extensions>
      </trkpt>
      <trkpt lat="45.32335228286683559417724609375" lon="-70.8071501366794109344482421875">
        <ele>832.4000244140625</ele>
        <time>2026-08-21T12:30:23.000Z</time>
        <extensions>
          <ns3:TrackPointExtension>
            <ns3:hr>146</ns3:hr>
            <ns3:cad>0</ns3:cad>
          </ns3:TrackPointExtension>
        </extensions>
      </trkpt>
      <trkpt lat="45.32333853654563426971435546875" lon="-70.8071511425077915191650390625">
        <ele>832.5999755859375</ele>
        <time>2026-08-21T12:30:24.000Z</time>
        <extensions>
          <ns3:TrackPointExtension>
            <ns3:hr>146</ns3:hr>
            <ns3:cad>0</ns3:cad>
          </ns3:TrackPointExtension>
        </extensions>
      </trkpt>
      <trkpt lat="45.32333132810890674591064453125" lon="-70.807160697877407073974609375">
        <ele>832.5999755859375</ele>
        <time>2026-08-21T12:30:25.000Z</time>
        <extensions>
          <ns3:TrackPointExtension>
            <ns3:hr>147</ns3:hr>
            <ns3:cad>0</ns3:cad>
          </ns3:TrackPointExtension>
        </extensions>
      </trkpt>
      <trkpt lat="45.32332294620573520660400390625" lon="-70.8071722649037837982177734375">
        <ele>832.79998779296875</ele>
        <time>2026-08-21T12:30:26.000Z</time>
        <extensions>
          <ns3:TrackPointExtension>
            <ns3:hr>146</ns3:hr>
            <ns3:cad>0</ns3:cad>
          </ns3:TrackPointExtension>
        </extensions>
      </trkpt>
      <trkpt lat="45.32331707887351512908935546875" lon="-70.8071766234934329986572265625">
        <ele>833</ele>
        <time>2026-08-21T12:30:27.000Z</time>
        <extensions>
          <ns3:TrackPointExtension>
            <ns3:hr>146</ns3:hr>
            <ns3:cad>0</ns3:cad>
          </ns3:TrackPointExtension>
        </extensions>
      </trkpt>
      <trkpt lat="45.32330970279872417449951171875" lon="-70.80717737786471843719482421875">
        <ele>833.20001220703125</ele>
        <time>2026-08-21T12:30:28.000Z</time>
        <extensions>
          <ns3:TrackPointExtension>
            <ns3:hr>146</ns3:hr>
            <ns3:cad>0</ns3:cad>
          </ns3:TrackPointExtension>
        </extensions>
      </trkpt>
      <trkpt lat="45.32330811023712158203125" lon="-70.80717905424535274505615234375">
        <ele>833.5999755859375</ele>
        <time>2026-08-21T12:30:29.000Z</time>
        <extensions>
          <ns3:TrackPointExtension>
            <ns3:hr>146</ns3:hr>
            <ns3:cad>49</ns3:cad>
          </ns3:TrackPointExtension>
        </extensions>
      </trkpt>
      <trkpt lat="45.32329796813428401947021484375" lon="-70.80718047916889190673828125">
        <ele>833.79998779296875</ele>
        <time>2026-08-21T12:30:30.000Z</time>
        <extensions>
          <ns3:TrackPointExtension>
            <ns3:hr>145</ns3:hr>
            <ns3:cad>49</ns3:cad>
          </ns3:TrackPointExtension>
        </extensions>
      </trkpt>
      <trkpt lat="45.3232941962778568267822265625" lon="-70.8071823231875896453857421875">
        <ele>834</ele>
        <time>2026-08-21T12:30:31.000Z</time>
        <extensions>
          <ns3:TrackPointExtension>
            <ns3:hr>145</ns3:hr>
            <ns3:cad>49</ns3:cad>
          </ns3:TrackPointExtension>
        </extensions>
      </trkpt>
      <trkpt lat="45.32328874804079532623291015625" lon="-70.80718358047306537628173828125">
        <ele>834.20001220703125</ele>
        <time>2026-08-21T12:30:32.000Z</time>
        <extensions>
          <ns3:TrackPointExtension>
            <ns3:hr>145</ns3:hr>
            <ns3:cad>47</ns3:cad>
          </ns3:TrackPointExtension>
        </extensions>
      </trkpt>
      <trkpt lat="45.3232777677476406097412109375" lon="-70.807187519967555999755859375">
        <ele>834.5999755859375</ele>
        <time>2026-08-21T12:30:33.000Z</time>
        <extensions>
          <ns3:TrackPointExtension>
            <ns3:hr>145</ns3:hr>
            <ns3:cad>47</ns3:cad>
          </ns3:TrackPointExtension>
        </extensions>
      </trkpt>
      <trkpt lat="45.3232636861503124237060546875" lon="-70.80719565041363239288330078125">
        <ele>834.79998779296875</ele>
        <time>2026-08-21T12:30:34.000Z</time>
        <extensions>
          <ns3:TrackPointExtension>
            <ns3:hr>144</ns3:hr>
            <ns3:cad>47</ns3:cad>
          </ns3:TrackPointExtension>
        </extensions>
      </trkpt>
      <trkpt lat="45.32325404696166515350341796875" lon="-70.80720461905002593994140625">
        <ele>835</ele>
        <time>2026-08-21T12:30:35.000Z</time>
        <extensions>
          <ns3:TrackPointExtension>
            <ns3:hr>144</ns3:hr>
            <ns3:cad>47</ns3:cad>
          </ns3:TrackPointExtension>
        </extensions>
      </trkpt>
      <trkpt lat="45.323249436914920806884765625" lon="-70.8072118274867534637451171875">
        <ele>835</ele>
        <time>2026-08-21T12:30:36.000Z</time>
        <extensions>
          <ns3:TrackPointExtension>
            <ns3:hr>144</ns3:hr>
            <ns3:cad>47</ns3:cad>
          </ns3:TrackPointExtension>
        </extensions>
      </trkpt>
      <trkpt lat="45.32324214465916156768798828125" lon="-70.80721660517156124114990234375">
        <ele>835.20001220703125</ele>
        <time>2026-08-21T12:30:37.000Z</time>
        <extensions>
          <ns3:TrackPointExtension>
            <ns3:hr>144</ns3:hr>
            <ns3:cad>45</ns3:cad>
          </ns3:TrackPointExtension>
        </extensions>
      </trkpt>
      <trkpt lat="45.32322990708053112030029296875" lon="-70.807221047580242156982421875">
        <ele>835.4000244140625</ele>
        <time>2026-08-21T12:30:38.000Z</time>
        <extensions>
          <ns3:TrackPointExtension>
            <ns3:hr>143</ns3:hr>
            <ns3:cad>45</ns3:cad>
          </ns3:TrackPointExtension>
        </extensions>
      </trkpt>
      <trkpt lat="45.3232204355299472808837890625" lon="-70.807230770587921142578125">
        <ele>835.5999755859375</ele>
        <time>2026-08-21T12:30:39.000Z</time>
        <extensions>
          <ns3:TrackPointExtension>
            <ns3:hr>143</ns3:hr>
            <ns3:cad>47</ns3:cad>
          </ns3:TrackPointExtension>
        </extensions>
      </trkpt>
      <trkpt lat="45.323211885988712310791015625" lon="-70.80724393017590045928955078125">
        <ele>835.79998779296875</ele>
        <time>2026-08-21T12:30:40.000Z</time>
        <extensions>
          <ns3:TrackPointExtension>
            <ns3:hr>142</ns3:hr>
            <ns3:cad>47</ns3:cad>
          </ns3:TrackPointExtension>
        </extensions>
      </trkpt>
      <trkpt lat="45.3231994807720184326171875" lon="-70.80725549720227718353271484375">
        <ele>835.79998779296875</ele>
        <time>2026-08-21T12:30:41.000Z</time>
        <extensions>
          <ns3:TrackPointExtension>
            <ns3:hr>142</ns3:hr>
            <ns3:cad>50</ns3:cad>
          </ns3:TrackPointExtension>
        </extensions>
      </trkpt>
      <trkpt lat="45.32318615354597568511962890625" lon="-70.807264633476734161376953125">
        <ele>835.79998779296875</ele>
        <time>2026-08-21T12:30:42.000Z</time>
        <extensions>
          <ns3:TrackPointExtension>
            <ns3:hr>142</ns3:hr>
            <ns3:cad>50</ns3:cad>
          </ns3:TrackPointExtension>
        </extensions>
      </trkpt>
      <trkpt lat="45.32317207194864749908447265625" lon="-70.80726639367640018463134765625">
        <ele>835.79998779296875</ele>
        <time>2026-08-21T12:30:43.000Z</time>
        <extensions>
          <ns3:TrackPointExtension>
            <ns3:hr>143</ns3:hr>
            <ns3:cad>50</ns3:cad>
          </ns3:TrackPointExtension>
        </extensions>
      </trkpt>
      <trkpt lat="45.3231631033122539520263671875" lon="-70.80726337619125843048095703125">
        <ele>835.79998779296875</ele>
        <time>2026-08-21T12:30:44.000Z</time>
        <extensions>
          <ns3:TrackPointExtension>
            <ns3:hr>143</ns3:hr>
            <ns3:cad>49</ns3:cad>
          </ns3:TrackPointExtension>
        </extensions>
      </trkpt>
      <trkpt lat="45.32315631397068500518798828125" lon="-70.8072503842413425445556640625">
        <ele>835.79998779296875</ele>
        <time>2026-08-21T12:30:45.000Z</time>
        <extensions>
          <ns3:TrackPointExtension>
            <ns3:hr>144</ns3:hr>
            <ns3:cad>49</ns3:cad>
          </ns3:TrackPointExtension>
        </extensions>
      </trkpt>
      <trkpt lat="45.323153547942638397216796875" lon="-70.80724191851913928985595703125">
        <ele>835.79998779296875</ele>
        <time>2026-08-21T12:30:46.000Z</time>
        <extensions>
          <ns3:TrackPointExtension>
            <ns3:hr>144</ns3:hr>
            <ns3:cad>53</ns3:cad>
          </ns3:TrackPointExtension>
        </extensions>
      </trkpt>
      <trkpt lat="45.323150865733623504638671875" lon="-70.80723051913082599639892578125">
        <ele>835.79998779296875</ele>
        <time>2026-08-21T12:30:47.000Z</time>
        <extensions>
          <ns3:TrackPointExtension>
            <ns3:hr>144</ns3:hr>
            <ns3:cad>53</ns3:cad>
          </ns3:TrackPointExtension>
        </extensions>
      </trkpt>
      <trkpt lat="45.32314793206751346588134765625" lon="-70.8072265796363353729248046875">
        <ele>835.79998779296875</ele>
        <time>2026-08-21T12:30:48.000Z</time>
        <extensions>
          <ns3:TrackPointExtension>
            <ns3:hr>144</ns3:hr>
            <ns3:cad>53</ns3:cad>
          </ns3:TrackPointExtension>
        </extensions>
      </trkpt>
      <trkpt lat="45.32313636504113674163818359375" lon="-70.80721199512481689453125">
        <ele>836</ele>
        <time>2026-08-21T12:30:49.000Z</time>
        <extensions>
          <ns3:TrackPointExtension>
            <ns3:hr>143</ns3:hr>
            <ns3:cad>53</ns3:cad>
          </ns3:TrackPointExtension>
        </extensions>
      </trkpt>
      <trkpt lat="45.32312572002410888671875" lon="-70.80719598568975925445556640625">
        <ele>836</ele>
        <time>2026-08-21T12:30:50.000Z</time>
        <extensions>
          <ns3:TrackPointExtension>
            <ns3:hr>144</ns3:hr>
            <ns3:cad>53</ns3:cad>
          </ns3:TrackPointExtension>
        </extensions>
      </trkpt>
      <trkpt lat="45.323112308979034423828125" lon="-70.807192213833332061767578125">
        <ele>836</ele>
        <time>2026-08-21T12:30:51.000Z</time>
        <extensions>
          <ns3:TrackPointExtension>
            <ns3:hr>144</ns3:hr>
            <ns3:cad>53</ns3:cad>
          </ns3:TrackPointExtension>
        </extensions>
      </trkpt>
      <trkpt lat="45.32309998758137226104736328125" lon="-70.80719280056655406951904296875">
        <ele>836.20001220703125</ele>
        <time>2026-08-21T12:30:52.000Z</time>
        <extensions>
          <ns3:TrackPointExtension>
            <ns3:hr>143</ns3:hr>
            <ns3:cad>53</ns3:cad>
          </ns3:TrackPointExtension>
        </extensions>
      </trkpt>
      <trkpt lat="45.32308883965015411376953125" lon="-70.8071940578520298004150390625">
        <ele>836.4000244140625</ele>
        <time>2026-08-21T12:30:53.000Z</time>
        <extensions>
          <ns3:TrackPointExtension>
            <ns3:hr>143</ns3:hr>
            <ns3:cad>53</ns3:cad>
          </ns3:TrackPointExtension>
        </extensions>
      </trkpt>
      <trkpt lat="45.3230814635753631591796875" lon="-70.807195566594600677490234375">
        <ele>836.4000244140625</ele>
        <time>2026-08-21T12:30:54.000Z</time>
        <extensions>
          <ns3:TrackPointExtension>
            <ns3:hr>143</ns3:hr>
            <ns3:cad>53</ns3:cad>
          </ns3:TrackPointExtension>
        </extensions>
      </trkpt>
      <trkpt lat="45.3230675496160984039306640625" lon="-70.80720059573650360107421875">
        <ele>836.5999755859375</ele>
        <time>2026-08-21T12:30:55.000Z</time>
        <extensions>
          <ns3:TrackPointExtension>
            <ns3:hr>142</ns3:hr>
            <ns3:cad>53</ns3:cad>
          </ns3:TrackPointExtension>
        </extensions>
      </trkpt>
      <trkpt lat="45.323058664798736572265625" lon="-70.80720436759293079376220703125">
        <ele>836.79998779296875</ele>
        <time>2026-08-21T12:30:56.000Z</time>
        <extensions>
          <ns3:TrackPointExtension>
            <ns3:hr>142</ns3:hr>
            <ns3:cad>50</ns3:cad>
          </ns3:TrackPointExtension>
        </extensions>
      </trkpt>
      <trkpt lat="45.3230527974665164947509765625" lon="-70.8072074688971042633056640625">
        <ele>837.20001220703125</ele>
        <time>2026-08-21T12:30:57.000Z</time>
        <extensions>
          <ns3:TrackPointExtension>
            <ns3:hr>142</ns3:hr>
            <ns3:cad>50</ns3:cad>
          </ns3:TrackPointExtension>
        </extensions>
      </trkpt>
      <trkpt lat="45.32304148189723491668701171875" lon="-70.80721668899059295654296875">
        <ele>837.4000244140625</ele>
        <time>2026-08-21T12:30:58.000Z</time>
        <extensions>
          <ns3:TrackPointExtension>
            <ns3:hr>142</ns3:hr>
            <ns3:cad>50</ns3:cad>
          </ns3:TrackPointExtension>
        </extensions>
      </trkpt>
      <trkpt lat="45.32303326763212680816650390625" lon="-70.80723018385469913482666015625">
        <ele>837.5999755859375</ele>
        <time>2026-08-21T12:30:59.000Z</time>
        <extensions>
          <ns3:TrackPointExtension>
            <ns3:hr>142</ns3:hr>
            <ns3:cad>48</ns3:cad>
          </ns3:TrackPointExtension>
        </extensions>
      </trkpt>
      <trkpt lat="45.32302312552928924560546875" lon="-70.80724292434751987457275390625">
        <ele>837.79998779296875</ele>
        <time>2026-08-21T12:31:00.000Z</time>
        <extensions>
          <ns3:TrackPointExtension>
            <ns3:hr>142</ns3:hr>
            <ns3:cad>48</ns3:cad>
          </ns3:TrackPointExtension>
        </extensions>
      </trkpt>
      <trkpt lat="45.3230144083499908447265625" lon="-70.80725281499326229095458984375">
        <ele>838</ele>
        <time>2026-08-21T12:31:01.000Z</time>
        <extensions>
          <ns3:TrackPointExtension>
            <ns3:hr>142</ns3:hr>
            <ns3:cad>49</ns3:cad>
          </ns3:TrackPointExtension>
        </extensions>
      </trkpt>
      <trkpt lat="45.3230078704655170440673828125" lon="-70.80726094543933868408203125">
        <ele>838.20001220703125</ele>
        <time>2026-08-21T12:31:02.000Z</time>
        <extensions>
          <ns3:TrackPointExtension>
            <ns3:hr>142</ns3:hr>
            <ns3:cad>49</ns3:cad>
          </ns3:TrackPointExtension>
        </extensions>
      </trkpt>
      <trkpt lat="45.32300057820975780487060546875" lon="-70.80726505257189273834228515625">
        <ele>838.4000244140625</ele>
        <time>2026-08-21T12:31:03.000Z</time>
        <extensions>
          <ns3:TrackPointExtension>
            <ns3:hr>142</ns3:hr>
            <ns3:cad>48</ns3:cad>
          </ns3:TrackPointExtension>
        </extensions>
      </trkpt>
      <trkpt lat="45.32300007529556751251220703125" lon="-70.8072567544877529144287109375">
        <ele>838.5999755859375</ele>
        <time>2026-08-21T12:31:04.000Z</time>
        <extensions>
          <ns3:TrackPointExtension>
            <ns3:hr>142</ns3:hr>
            <ns3:cad>48</ns3:cad>
          </ns3:TrackPointExtension>
        </extensions>
      </trkpt>
      <trkpt lat="45.32300393097102642059326171875" lon="-70.80724812112748622894287109375">
        <ele>838.5999755859375</ele>
        <time>2026-08-21T12:31:05.000Z</time>
        <extensions>
          <ns3:TrackPointExtension>
            <ns3:hr>142</ns3:hr>
            <ns3:cad>49</ns3:cad>
          </ns3:TrackPointExtension>
        </extensions>
      </trkpt>
      <trkpt lat="45.3230075351893901824951171875" lon="-70.8072366379201412200927734375">
        <ele>838.79998779296875</ele>
        <time>2026-08-21T12:31:06.000Z</time>
        <extensions>
          <ns3:TrackPointExtension>
            <ns3:hr>142</ns3:hr>
            <ns3:cad>49</ns3:cad>
          </ns3:TrackPointExtension>
        </extensions>
      </trkpt>
      <trkpt lat="45.32300376333296298980712890625" lon="-70.807224400341510772705078125">
        <ele>839</ele>
        <time>2026-08-21T12:31:07.000Z</time>
        <extensions>
          <ns3:TrackPointExtension>
            <ns3:hr>142</ns3:hr>
            <ns3:cad>49</ns3:cad>
          </ns3:TrackPointExtension>
        </extensions>
      </trkpt>
      <trkpt lat="45.32299898564815521240234375" lon="-70.8072138391435146331787109375">
        <ele>839.20001220703125</ele>
        <time>2026-08-21T12:31:08.000Z</time>
        <extensions>
          <ns3:TrackPointExtension>
            <ns3:hr>141</ns3:hr>
            <ns3:cad>49</ns3:cad>
          </ns3:TrackPointExtension>
        </extensions>
      </trkpt>
      <trkpt lat="45.32299387268722057342529296875" lon="-70.80720973201096057891845703125">
        <ele>839.20001220703125</ele>
        <time>2026-08-21T12:31:09.000Z</time>
        <extensions>
          <ns3:TrackPointExtension>
            <ns3:hr>140</ns3:hr>
            <ns3:cad>49</ns3:cad>
          </ns3:TrackPointExtension>
        </extensions>
      </trkpt>
      <trkpt lat="45.32298968173563480377197265625" lon="-70.80719883553683757781982421875">
        <ele>839.4000244140625</ele>
        <time>2026-08-21T12:31:10.000Z</time>
        <extensions>
          <ns3:TrackPointExtension>
            <ns3:hr>140</ns3:hr>
            <ns3:cad>49</ns3:cad>
          </ns3:TrackPointExtension>
        </extensions>
      </trkpt>
      <trkpt lat="45.32298783771693706512451171875" lon="-70.80719120800495147705078125">
        <ele>839.5999755859375</ele>
        <time>2026-08-21T12:31:11.000Z</time>
        <extensions>
          <ns3:TrackPointExtension>
            <ns3:hr>140</ns3:hr>
            <ns3:cad>49</ns3:cad>
          </ns3:TrackPointExtension>
        </extensions>
      </trkpt>
      <trkpt lat="45.32298364676535129547119140625" lon="-70.80718290992081165313720703125">
        <ele>839.79998779296875</ele>
        <time>2026-08-21T12:31:12.000Z</time>
        <extensions>
          <ns3:TrackPointExtension>
            <ns3:hr>140</ns3:hr>
            <ns3:cad>49</ns3:cad>
          </ns3:TrackPointExtension>
        </extensions>
      </trkpt>
      <trkpt lat="45.32298062928020954132080078125" lon="-70.8071732707321643829345703125">
        <ele>840</ele>
        <time>2026-08-21T12:31:13.000Z</time>
        <extensions>
          <ns3:TrackPointExtension>
            <ns3:hr>141</ns3:hr>
            <ns3:cad>49</ns3:cad>
          </ns3:TrackPointExtension>
        </extensions>
      </trkpt>
      <trkpt lat="45.322977192699909210205078125" lon="-70.8071544952690601348876953125">
        <ele>840.4000244140625</ele>
        <time>2026-08-21T12:31:14.000Z</time>
        <extensions>
          <ns3:TrackPointExtension>
            <ns3:hr>141</ns3:hr>
            <ns3:cad>49</ns3:cad>
          </ns3:TrackPointExtension>
        </extensions>
      </trkpt>
      <trkpt lat="45.3229730017483234405517578125" lon="-70.8071367256343364715576171875">
        <ele>840.5999755859375</ele>
        <time>2026-08-21T12:31:15.000Z</time>
        <extensions>
          <ns3:TrackPointExtension>
            <ns3:hr>142</ns3:hr>
            <ns3:cad>49</ns3:cad>
          </ns3:TrackPointExtension>
        </extensions>
      </trkpt>
      <trkpt lat="45.32296470366418361663818359375" lon="-70.8071221411228179931640625">
        <ele>840.79998779296875</ele>
        <time>2026-08-21T12:31:16.000Z</time>
        <extensions>
          <ns3:TrackPointExtension>
            <ns3:hr>142</ns3:hr>
            <ns3:cad>49</ns3:cad>
          </ns3:TrackPointExtension>
        </extensions>
      </trkpt>
      <trkpt lat="45.32295917160809040069580078125" lon="-70.807109065353870391845703125">
        <ele>841</ele>
        <time>2026-08-21T12:31:17.000Z</time>
        <extensions>
          <ns3:TrackPointExtension>
            <ns3:hr>142</ns3:hr>
            <ns3:cad>49</ns3:cad>
          </ns3:TrackPointExtension>
        </extensions>
      </trkpt>
      <trkpt lat="45.3229555673897266387939453125" lon="-70.8070944808423519134521484375">
        <ele>841.20001220703125</ele>
        <time>2026-08-21T12:31:18.000Z</time>
        <extensions>
          <ns3:TrackPointExtension>
            <ns3:hr>143</ns3:hr>
            <ns3:cad>46</ns3:cad>
          </ns3:TrackPointExtension>
        </extensions>
      </trkpt>
      <trkpt lat="45.32295028679072856903076171875" lon="-70.807080902159214019775390625">
        <ele>841.4000244140625</ele>
        <time>2026-08-21T12:31:19.000Z</time>
        <extensions>
          <ns3:TrackPointExtension>
            <ns3:hr>143</ns3:hr>
            <ns3:cad>46</ns3:cad>
          </ns3:TrackPointExtension>
        </extensions>
      </trkpt>
      <trkpt lat="45.322933606803417205810546875" lon="-70.807077884674072265625">
        <ele>841.5999755859375</ele>
        <time>2026-08-21T12:31:20.000Z</time>
        <extensions>
          <ns3:TrackPointExtension>
            <ns3:hr>143</ns3:hr>
            <ns3:cad>0</ns3:cad>
          </ns3:TrackPointExtension>
        </extensions>
      </trkpt>
      <trkpt lat="45.32291608862578868865966796875" lon="-70.80707595683634281158447265625">
        <ele>841.79998779296875</ele>
        <time>2026-08-21T12:31:21.000Z</time>
        <extensions>
          <ns3:TrackPointExtension>
            <ns3:hr>144</ns3:hr>
            <ns3:cad>0</ns3:cad>
          </ns3:TrackPointExtension>
        </extensions>
      </trkpt>
      <trkpt lat="45.32290854491293430328369140625" lon="-70.8070770464837551116943359375">
        <ele>842</ele>
        <time>2026-08-21T12:31:22.000Z</time>
        <extensions>
          <ns3:TrackPointExtension>
            <ns3:hr>144</ns3:hr>
            <ns3:cad>0</ns3:cad>
          </ns3:TrackPointExtension>
        </extensions>
      </trkpt>
      <trkpt lat="45.3229019232094287872314453125" lon="-70.80706941895186901092529296875">
        <ele>842.20001220703125</ele>
        <time>2026-08-21T12:31:23.000Z</time>
        <extensions>
          <ns3:TrackPointExtension>
            <ns3:hr>144</ns3:hr>
            <ns3:cad>0</ns3:cad>
          </ns3:TrackPointExtension>
        </extensions>
      </trkpt>
      <trkpt lat="45.32289194874465465545654296875" lon="-70.8070626296103000640869140625">
        <ele>842.4000244140625</ele>
        <time>2026-08-21T12:31:24.000Z</time>
        <extensions>
          <ns3:TrackPointExtension>
            <ns3:hr>144</ns3:hr>
            <ns3:cad>0</ns3:cad>
          </ns3:TrackPointExtension>
        </extensions>
      </trkpt>
      <trkpt lat="45.32288205809891223907470703125" lon="-70.80705550499260425567626953125">
        <ele>842.5999755859375</ele>
        <time>2026-08-21T12:31:25.000Z</time>
        <extensions>
          <ns3:TrackPointExtension>
            <ns3:hr>144</ns3:hr>
            <ns3:cad>0</ns3:cad>
          </ns3:TrackPointExtension>
        </extensions>
      </trkpt>
      <trkpt lat="45.322873592376708984375" lon="-70.8070478774607181549072265625">
        <ele>842.79998779296875</ele>
        <time>2026-08-21T12:31:26.000Z</time>
        <extensions>
          <ns3:TrackPointExtension>
            <ns3:hr>144</ns3:hr>
            <ns3:cad>0</ns3:cad>
          </ns3:TrackPointExtension>
        </extensions>
      </trkpt>
      <trkpt lat="45.3228673897683620452880859375" lon="-70.80704242922365665435791015625">
        <ele>843</ele>
        <time>2026-08-21T12:31:27.000Z</time>
        <extensions>
          <ns3:TrackPointExtension>
            <ns3:hr>144</ns3:hr>
            <ns3:cad>42</ns3:cad>
          </ns3:TrackPointExtension>
        </extensions>
      </trkpt>
      <trkpt lat="45.32286076806485652923583984375" lon="-70.80702834762632846832275390625">
        <ele>843.4000244140625</ele>
        <time>2026-08-21T12:31:28.000Z</time>
        <extensions>
          <ns3:TrackPointExtension>
            <ns3:hr>144</ns3:hr>
            <ns3:cad>42</ns3:cad>
          </ns3:TrackPointExtension>
        </extensions>
      </trkpt>
      <trkpt lat="45.32285288907587528228759765625" lon="-70.8070175349712371826171875">
        <ele>843.5999755859375</ele>
        <time>2026-08-21T12:31:29.000Z</time>
        <extensions>
          <ns3:TrackPointExtension>
            <ns3:hr>144</ns3:hr>
            <ns3:cad>42</ns3:cad>
          </ns3:TrackPointExtension>
        </extensions>
      </trkpt>
      <trkpt lat="45.32284341752529144287109375" lon="-70.80700655467808246612548828125">
        <ele>843.79998779296875</ele>
        <time>2026-08-21T12:31:30.000Z</time>
        <extensions>
          <ns3:TrackPointExtension>
            <ns3:hr>144</ns3:hr>
            <ns3:cad>48</ns3:cad>
          </ns3:TrackPointExtension>
        </extensions>
      </trkpt>
      <trkpt lat="45.322837717831134796142578125" lon="-70.8069982565939426422119140625">
        <ele>844</ele>
        <time>2026-08-21T12:31:31.000Z</time>
        <extensions>
          <ns3:TrackPointExtension>
            <ns3:hr>144</ns3:hr>
            <ns3:cad>48</ns3:cad>
          </ns3:TrackPointExtension>
        </extensions>
      </trkpt>
      <trkpt lat="45.322829000651836395263671875" lon="-70.8069925568997859954833984375">
        <ele>844.20001220703125</ele>
        <time>2026-08-21T12:31:32.000Z</time>
        <extensions>
          <ns3:TrackPointExtension>
            <ns3:hr>144</ns3:hr>
            <ns3:cad>49</ns3:cad>
          </ns3:TrackPointExtension>
        </extensions>
      </trkpt>
      <trkpt lat="45.32282422296702861785888671875" lon="-70.806984342634677886962890625">
        <ele>844.4000244140625</ele>
        <time>2026-08-21T12:31:33.000Z</time>
        <extensions>
          <ns3:TrackPointExtension>
            <ns3:hr>144</ns3:hr>
            <ns3:cad>49</ns3:cad>
          </ns3:TrackPointExtension>
        </extensions>
      </trkpt>
      <trkpt lat="45.32281248830258846282958984375" lon="-70.80697285942733287811279296875">
        <ele>844.5999755859375</ele>
        <time>2026-08-21T12:31:34.000Z</time>
        <extensions>
          <ns3:TrackPointExtension>
            <ns3:hr>144</ns3:hr>
            <ns3:cad>51</ns3:cad>
          </ns3:TrackPointExtension>
        </extensions>
      </trkpt>
      <trkpt lat="45.32280477695167064666748046875" lon="-70.8069585263729095458984375">
        <ele>844.79998779296875</ele>
        <time>2026-08-21T12:31:35.000Z</time>
        <extensions>
          <ns3:TrackPointExtension>
            <ns3:hr>145</ns3:hr>
            <ns3:cad>51</ns3:cad>
          </ns3:TrackPointExtension>
        </extensions>
      </trkpt>
      <trkpt lat="45.3227969817817211151123046875" lon="-70.80694821663200855255126953125">
        <ele>845</ele>
        <time>2026-08-21T12:31:36.000Z</time>
        <extensions>
          <ns3:TrackPointExtension>
            <ns3:hr>145</ns3:hr>
            <ns3:cad>51</ns3:cad>
          </ns3:TrackPointExtension>
        </extensions>
      </trkpt>
      <trkpt lat="45.322790443897247314453125" lon="-70.8069375716149806976318359375">
        <ele>845</ele>
        <time>2026-08-21T12:31:37.000Z</time>
        <extensions>
          <ns3:TrackPointExtension>
            <ns3:hr>145</ns3:hr>
            <ns3:cad>51</ns3:cad>
          </ns3:TrackPointExtension>
        </extensions>
      </trkpt>
      <trkpt lat="45.322778038680553436279296875" lon="-70.80692407675087451934814453125">
        <ele>845.20001220703125</ele>
        <time>2026-08-21T12:31:38.000Z</time>
        <extensions>
          <ns3:TrackPointExtension>
            <ns3:hr>146</ns3:hr>
            <ns3:cad>51</ns3:cad>
          </ns3:TrackPointExtension>
        </extensions>
      </trkpt>
      <trkpt lat="45.32276965677738189697265625" lon="-70.80691351555287837982177734375">
        <ele>845.4000244140625</ele>
        <time>2026-08-21T12:31:39.000Z</time>
        <extensions>
          <ns3:TrackPointExtension>
            <ns3:hr>146</ns3:hr>
            <ns3:cad>0</ns3:cad>
          </ns3:TrackPointExtension>
        </extensions>
      </trkpt>
      <trkpt lat="45.32276253215968608856201171875" lon="-70.80689256079494953155517578125">
        <ele>845.4000244140625</ele>
        <time>2026-08-21T12:31:40.000Z</time>
        <extensions>
          <ns3:TrackPointExtension>
            <ns3:hr>146</ns3:hr>
            <ns3:cad>0</ns3:cad>
          </ns3:TrackPointExtension>
        </extensions>
      </trkpt>
      <trkpt lat="45.3227544017136096954345703125" lon="-70.80688367597758769989013671875">
        <ele>845.5999755859375</ele>
        <time>2026-08-21T12:31:41.000Z</time>
        <extensions>
          <ns3:TrackPointExtension>
            <ns3:hr>147</ns3:hr>
            <ns3:cad>0</ns3:cad>
          </ns3:TrackPointExtension>
        </extensions>
      </trkpt>
      <trkpt lat="45.32274685800075531005859375" lon="-70.8068778924643993377685546875">
        <ele>846</ele>
        <time>2026-08-21T12:31:42.000Z</time>
        <extensions>
          <ns3:TrackPointExtension>
            <ns3:hr>147</ns3:hr>
            <ns3:cad>51</ns3:cad>
          </ns3:TrackPointExtension>
        </extensions>
      </trkpt>
      <trkpt lat="45.32273503951728343963623046875" lon="-70.806865990161895751953125">
        <ele>846.20001220703125</ele>
        <time>2026-08-21T12:31:43.000Z</time>
        <extensions>
          <ns3:TrackPointExtension>
            <ns3:hr>147</ns3:hr>
            <ns3:cad>51</ns3:cad>
          </ns3:TrackPointExtension>
        </extensions>
      </trkpt>
      <trkpt lat="45.3227259032428264617919921875" lon="-70.8068587817251682281494140625">
        <ele>846.4000244140625</ele>
        <time>2026-08-21T12:31:44.000Z</time>
        <extensions>
          <ns3:TrackPointExtension>
            <ns3:hr>148</ns3:hr>
            <ns3:cad>0</ns3:cad>
          </ns3:TrackPointExtension>
        </extensions>
      </trkpt>
      <trkpt lat="45.32272112555801868438720703125" lon="-70.80685584805905818939208984375">
        <ele>846.4000244140625</ele>
        <time>2026-08-21T12:31:45.000Z</time>
        <extensions>
          <ns3:TrackPointExtension>
            <ns3:hr>148</ns3:hr>
            <ns3:cad>0</ns3:cad>
          </ns3:TrackPointExtension>
        </extensions>
      </trkpt>
      <trkpt lat="45.32271391712129116058349609375" lon="-70.80684746615588665008544921875">
        <ele>846.5999755859375</ele>
        <time>2026-08-21T12:31:46.000Z</time>
        <extensions>
          <ns3:TrackPointExtension>
            <ns3:hr>148</ns3:hr>
            <ns3:cad>0</ns3:cad>
          </ns3:TrackPointExtension>
        </extensions>
      </trkpt>
      <trkpt lat="45.3227094747126102447509765625" lon="-70.8068383298814296722412109375">
        <ele>846.5999755859375</ele>
        <time>2026-08-21T12:31:47.000Z</time>
        <extensions>
          <ns3:TrackPointExtension>
            <ns3:hr>148</ns3:hr>
            <ns3:cad>0</ns3:cad>
          </ns3:TrackPointExtension>
        </extensions>
      </trkpt>
      <trkpt lat="45.3227054513990879058837890625" lon="-70.8068262599408626556396484375">
        <ele>846.5999755859375</ele>
        <time>2026-08-21T12:31:48.000Z</time>
        <extensions>
          <ns3:TrackPointExtension>
            <ns3:hr>148</ns3:hr>
            <ns3:cad>0</ns3:cad>
          </ns3:TrackPointExtension>
        </extensions>
      </trkpt>
      <trkpt lat="45.3227014280855655670166015625" lon="-70.8068162016570568084716796875">
        <ele>846.79998779296875</ele>
        <time>2026-08-21T12:31:49.000Z</time>
        <extensions>
          <ns3:TrackPointExtension>
            <ns3:hr>149</ns3:hr>
            <ns3:cad>51</ns3:cad>
          </ns3:TrackPointExtension>
        </extensions>
      </trkpt>
      <trkpt lat="45.3226883523166179656982421875" lon="-70.80680186860263347625732421875">
        <ele>846.79998779296875</ele>
        <time>2026-08-21T12:31:50.000Z</time>
        <extensions>
          <ns3:TrackPointExtension>
            <ns3:hr>148</ns3:hr>
            <ns3:cad>51</ns3:cad>
          </ns3:TrackPointExtension>
        </extensions>
      </trkpt>
      <trkpt lat="45.32267603091895580291748046875" lon="-70.80679499544203281402587890625">
        <ele>847</ele>
        <time>2026-08-21T12:31:51.000Z</time>
        <extensions>
          <ns3:TrackPointExtension>
            <ns3:hr>148</ns3:hr>
            <ns3:cad>0</ns3:cad>
          </ns3:TrackPointExtension>
        </extensions>
      </trkpt>
      <trkpt lat="45.32266865484416484832763671875" lon="-70.80679013393819332122802734375">
        <ele>847.4000244140625</ele>
        <time>2026-08-21T12:31:52.000Z</time>
        <extensions>
          <ns3:TrackPointExtension>
            <ns3:hr>148</ns3:hr>
            <ns3:cad>0</ns3:cad>
          </ns3:TrackPointExtension>
        </extensions>
      </trkpt>
      <trkpt lat="45.3226615302264690399169921875" lon="-70.80678242258727550506591796875">
        <ele>847.5999755859375</ele>
        <time>2026-08-21T12:31:53.000Z</time>
        <extensions>
          <ns3:TrackPointExtension>
            <ns3:hr>148</ns3:hr>
            <ns3:cad>0</ns3:cad>
          </ns3:TrackPointExtension>
        </extensions>
      </trkpt>
      <trkpt lat="45.32265088520944118499755859375" lon="-70.8067712746560573577880859375">
        <ele>847.79998779296875</ele>
        <time>2026-08-21T12:31:54.000Z</time>
        <extensions>
          <ns3:TrackPointExtension>
            <ns3:hr>148</ns3:hr>
            <ns3:cad>0</ns3:cad>
          </ns3:TrackPointExtension>
        </extensions>
      </trkpt>
      <trkpt lat="45.32264669425785541534423828125" lon="-70.80676364712417125701904296875">
        <ele>848.20001220703125</ele>
        <time>2026-08-21T12:31:55.000Z</time>
        <extensions>
          <ns3:TrackPointExtension>
            <ns3:hr>148</ns3:hr>
            <ns3:cad>0</ns3:cad>
          </ns3:TrackPointExtension>
        </extensions>
      </trkpt>
      <trkpt lat="45.32264434732496738433837890625" lon="-70.8067519962787628173828125">
        <ele>848.4000244140625</ele>
        <time>2026-08-21T12:31:56.000Z</time>
        <extensions>
          <ns3:TrackPointExtension>
            <ns3:hr>148</ns3:hr>
            <ns3:cad>0</ns3:cad>
          </ns3:TrackPointExtension>
        </extensions>
      </trkpt>
      <trkpt lat="45.32264233566820621490478515625" lon="-70.80674135126173496246337890625">
        <ele>848.5999755859375</ele>
        <time>2026-08-21T12:31:57.000Z</time>
        <extensions>
          <ns3:TrackPointExtension>
            <ns3:hr>148</ns3:hr>
            <ns3:cad>0</ns3:cad>
          </ns3:TrackPointExtension>
        </extensions>
      </trkpt>
      <trkpt lat="45.3226362168788909912109375" lon="-70.80672693438827991485595703125">
        <ele>848.79998779296875</ele>
        <time>2026-08-21T12:31:58.000Z</time>
        <extensions>
          <ns3:TrackPointExtension>
            <ns3:hr>148</ns3:hr>
            <ns3:cad>0</ns3:cad>
          </ns3:TrackPointExtension>
        </extensions>
      </trkpt>
      <trkpt lat="45.322625152766704559326171875" lon="-70.80671436153352260589599609375">
        <ele>849</ele>
        <time>2026-08-21T12:31:59.000Z</time>
        <extensions>
          <ns3:TrackPointExtension>
            <ns3:hr>148</ns3:hr>
            <ns3:cad>47</ns3:cad>
          </ns3:TrackPointExtension>
        </extensions>
      </trkpt>
      <trkpt lat="45.32261417247354984283447265625" lon="-70.806704722344875335693359375">
        <ele>849</ele>
        <time>2026-08-21T12:32:00.000Z</time>
        <extensions>
          <ns3:TrackPointExtension>
            <ns3:hr>148</ns3:hr>
            <ns3:cad>47</ns3:cad>
          </ns3:TrackPointExtension>
        </extensions>
      </trkpt>
      <trkpt lat="45.322605036199092864990234375" lon="-70.80669374205172061920166015625">
        <ele>849.20001220703125</ele>
        <time>2026-08-21T12:32:01.000Z</time>
        <extensions>
          <ns3:TrackPointExtension>
            <ns3:hr>148</ns3:hr>
            <ns3:cad>47</ns3:cad>
          </ns3:TrackPointExtension>
        </extensions>
      </trkpt>
      <trkpt lat="45.3225974924862384796142578125" lon="-70.806680582463741302490234375">
        <ele>849.20001220703125</ele>
        <time>2026-08-21T12:32:02.000Z</time>
        <extensions>
          <ns3:TrackPointExtension>
            <ns3:hr>148</ns3:hr>
            <ns3:cad>47</ns3:cad>
          </ns3:TrackPointExtension>
        </extensions>
      </trkpt>
      <trkpt lat="45.3225874342024326324462890625" lon="-70.80666817724704742431640625">
        <ele>849</ele>
        <time>2026-08-21T12:32:03.000Z</time>
        <extensions>
          <ns3:TrackPointExtension>
            <ns3:hr>148</ns3:hr>
            <ns3:cad>47</ns3:cad>
          </ns3:TrackPointExtension>
        </extensions>
      </trkpt>
      <trkpt lat="45.32257779501378536224365234375" lon="-70.8066592924296855926513671875">
        <ele>849</ele>
        <time>2026-08-21T12:32:04.000Z</time>
        <extensions>
          <ns3:TrackPointExtension>
            <ns3:hr>148</ns3:hr>
            <ns3:cad>0</ns3:cad>
          </ns3:TrackPointExtension>
        </extensions>
      </trkpt>
      <trkpt lat="45.322566144168376922607421875" lon="-70.80665082670748233795166015625">
        <ele>848.79998779296875</ele>
        <time>2026-08-21T12:32:05.000Z</time>
        <extensions>
          <ns3:TrackPointExtension>
            <ns3:hr>148</ns3:hr>
            <ns3:cad>0</ns3:cad>
          </ns3:TrackPointExtension>
        </extensions>
      </trkpt>
      <trkpt lat="45.3225565887987613677978515625" lon="-70.80664495937526226043701171875">
        <ele>848.79998779296875</ele>
        <time>2026-08-21T12:32:06.000Z</time>
        <extensions>
          <ns3:TrackPointExtension>
            <ns3:hr>147</ns3:hr>
            <ns3:cad>0</ns3:cad>
          </ns3:TrackPointExtension>
        </extensions>
      </trkpt>
      <trkpt lat="45.3225423395633697509765625" lon="-70.80663330852985382080078125">
        <ele>848.5999755859375</ele>
        <time>2026-08-21T12:32:07.000Z</time>
        <extensions>
          <ns3:TrackPointExtension>
            <ns3:hr>147</ns3:hr>
            <ns3:cad>0</ns3:cad>
          </ns3:TrackPointExtension>
        </extensions>
      </trkpt>
      <trkpt lat="45.3225240670144557952880859375" lon="-70.80662249587476253509521484375">
        <ele>848.5999755859375</ele>
        <time>2026-08-21T12:32:08.000Z</time>
        <extensions>
          <ns3:TrackPointExtension>
            <ns3:hr>146</ns3:hr>
            <ns3:cad>0</ns3:cad>
          </ns3:TrackPointExtension>
        </extensions>
      </trkpt>
      <trkpt lat="45.322511829435825347900390625" lon="-70.80661428160965442657470703125">
        <ele>848.79998779296875</ele>
        <time>2026-08-21T12:32:09.000Z</time>
        <extensions>
          <ns3:TrackPointExtension>
            <ns3:hr>146</ns3:hr>
            <ns3:cad>0</ns3:cad>
          </ns3:TrackPointExtension>
        </extensions>
      </trkpt>
      <trkpt lat="45.3224994242191314697265625" lon="-70.8066069893538951873779296875">
        <ele>848.79998779296875</ele>
        <time>2026-08-21T12:32:10.000Z</time>
        <extensions>
          <ns3:TrackPointExtension>
            <ns3:hr>146</ns3:hr>
            <ns3:cad>0</ns3:cad>
          </ns3:TrackPointExtension>
        </extensions>
      </trkpt>
      <trkpt lat="45.32248400151729583740234375" lon="-70.8066053129732608795166015625">
        <ele>848.79998779296875</ele>
        <time>2026-08-21T12:32:11.000Z</time>
        <extensions>
          <ns3:TrackPointExtension>
            <ns3:hr>146</ns3:hr>
            <ns3:cad>0</ns3:cad>
          </ns3:TrackPointExtension>
        </extensions>
      </trkpt>
      <trkpt lat="45.32246950082480907440185546875" lon="-70.80661009065806865692138671875">
        <ele>848.79998779296875</ele>
        <time>2026-08-21T12:32:12.000Z</time>
        <extensions>
          <ns3:TrackPointExtension>
            <ns3:hr>146</ns3:hr>
            <ns3:cad>0</ns3:cad>
          </ns3:TrackPointExtension>
        </extensions>
      </trkpt>
      <trkpt lat="45.32245357520878314971923828125" lon="-70.8066120184957981109619140625">
        <ele>848.79998779296875</ele>
        <time>2026-08-21T12:32:13.000Z</time>
        <extensions>
          <ns3:TrackPointExtension>
            <ns3:hr>146</ns3:hr>
            <ns3:cad>47</ns3:cad>
          </ns3:TrackPointExtension>
        </extensions>
      </trkpt>
      <trkpt lat="45.3224442712962627410888671875" lon="-70.80662149004638195037841796875">
        <ele>848.79998779296875</ele>
        <time>2026-08-21T12:32:14.000Z</time>
        <extensions>
          <ns3:TrackPointExtension>
            <ns3:hr>146</ns3:hr>
            <ns3:cad>47</ns3:cad>
          </ns3:TrackPointExtension>
        </extensions>
      </trkpt>
      <trkpt lat="45.32243572175502777099609375" lon="-70.806630291044712066650390625">
        <ele>848.79998779296875</ele>
        <time>2026-08-21T12:32:15.000Z</time>
        <extensions>
          <ns3:TrackPointExtension>
            <ns3:hr>146</ns3:hr>
            <ns3:cad>47</ns3:cad>
          </ns3:TrackPointExtension>
        </extensions>
      </trkpt>
      <trkpt lat="45.3224275074899196624755859375" lon="-70.8066405169665813446044921875">
        <ele>848.79998779296875</ele>
        <time>2026-08-21T12:32:16.000Z</time>
        <extensions>
          <ns3:TrackPointExtension>
            <ns3:hr>146</ns3:hr>
            <ns3:cad>47</ns3:cad>
          </ns3:TrackPointExtension>
        </extensions>
      </trkpt>
      <trkpt lat="45.3224191255867481231689453125" lon="-70.80664847977459430694580078125">
        <ele>849</ele>
        <time>2026-08-21T12:32:17.000Z</time>
        <extensions>
          <ns3:TrackPointExtension>
            <ns3:hr>146</ns3:hr>
            <ns3:cad>47</ns3:cad>
          </ns3:TrackPointExtension>
        </extensions>
      </trkpt>
      <trkpt lat="45.32241116277873516082763671875" lon="-70.80666189081966876983642578125">
        <ele>849</ele>
        <time>2026-08-21T12:32:18.000Z</time>
        <extensions>
          <ns3:TrackPointExtension>
            <ns3:hr>146</ns3:hr>
            <ns3:cad>47</ns3:cad>
          </ns3:TrackPointExtension>
        </extensions>
      </trkpt>
      <trkpt lat="45.322403870522975921630859375" lon="-70.80667622387409210205078125">
        <ele>849</ele>
        <time>2026-08-21T12:32:19.000Z</time>
        <extensions>
          <ns3:TrackPointExtension>
            <ns3:hr>145</ns3:hr>
            <ns3:cad>47</ns3:cad>
          </ns3:TrackPointExtension>
        </extensions>
      </trkpt>
      <trkpt lat="45.3223983384668827056884765625" lon="-70.80669390968978404998779296875">
        <ele>849</ele>
        <time>2026-08-21T12:32:20.000Z</time>
        <extensions>
          <ns3:TrackPointExtension>
            <ns3:hr>145</ns3:hr>
            <ns3:cad>0</ns3:cad>
          </ns3:TrackPointExtension>
        </extensions>
      </trkpt>
      <trkpt lat="45.32239322550594806671142578125" lon="-70.80670681782066822052001953125">
        <ele>849.20001220703125</ele>
        <time>2026-08-21T12:32:21.000Z</time>
        <extensions>
          <ns3:TrackPointExtension>
            <ns3:hr>144</ns3:hr>
            <ns3:cad>0</ns3:cad>
          </ns3:TrackPointExtension>
        </extensions>
      </trkpt>
      <trkpt lat="45.3223849274218082427978515625" lon="-70.8067186363041400909423828125">
        <ele>849.20001220703125</ele>
        <time>2026-08-21T12:32:22.000Z</time>
        <extensions>
          <ns3:TrackPointExtension>
            <ns3:hr>144</ns3:hr>
            <ns3:cad>0</ns3:cad>
          </ns3:TrackPointExtension>
        </extensions>
      </trkpt>
      <trkpt lat="45.32237662933766841888427734375" lon="-70.80673129297792911529541015625">
        <ele>849.20001220703125</ele>
        <time>2026-08-21T12:32:23.000Z</time>
        <extensions>
          <ns3:TrackPointExtension>
            <ns3:hr>143</ns3:hr>
            <ns3:cad>0</ns3:cad>
          </ns3:TrackPointExtension>
        </extensions>
      </trkpt>
      <trkpt lat="45.3223695047199726104736328125" lon="-70.80674462020397186279296875">
        <ele>849.20001220703125</ele>
        <time>2026-08-21T12:32:24.000Z</time>
        <extensions>
          <ns3:TrackPointExtension>
            <ns3:hr>143</ns3:hr>
            <ns3:cad>0</ns3:cad>
          </ns3:TrackPointExtension>
        </extensions>
      </trkpt>
      <trkpt lat="45.32236338593065738677978515625" lon="-70.80675593577325344085693359375">
        <ele>849.4000244140625</ele>
        <time>2026-08-21T12:32:25.000Z</time>
        <extensions>
          <ns3:TrackPointExtension>
            <ns3:hr>142</ns3:hr>
            <ns3:cad>0</ns3:cad>
          </ns3:TrackPointExtension>
        </extensions>
      </trkpt>
      <trkpt lat="45.3223560936748981475830078125" lon="-70.8067645691335201263427734375">
        <ele>849.4000244140625</ele>
        <time>2026-08-21T12:32:26.000Z</time>
        <extensions>
          <ns3:TrackPointExtension>
            <ns3:hr>142</ns3:hr>
            <ns3:cad>0</ns3:cad>
          </ns3:TrackPointExtension>
        </extensions>
      </trkpt>
      <trkpt lat="45.3223463706672191619873046875" lon="-70.806778483092784881591796875">
        <ele>849.4000244140625</ele>
        <time>2026-08-21T12:32:27.000Z</time>
        <extensions>
          <ns3:TrackPointExtension>
            <ns3:hr>142</ns3:hr>
            <ns3:cad>0</ns3:cad>
          </ns3:TrackPointExtension>
        </extensions>
      </trkpt>
      <trkpt lat="45.32233488745987415313720703125" lon="-70.80679365433752536773681640625">
        <ele>849.4000244140625</ele>
        <time>2026-08-21T12:32:28.000Z</time>
        <extensions>
          <ns3:TrackPointExtension>
            <ns3:hr>140</ns3:hr>
            <ns3:cad>55</ns3:cad>
          </ns3:TrackPointExtension>
        </extensions>
      </trkpt>
      <trkpt lat="45.32232617028057575225830078125" lon="-70.80679918639361858367919921875">
        <ele>849.5999755859375</ele>
        <time>2026-08-21T12:32:29.000Z</time>
        <extensions>
          <ns3:TrackPointExtension>
            <ns3:hr>138</ns3:hr>
            <ns3:cad>55</ns3:cad>
          </ns3:TrackPointExtension>
        </extensions>
      </trkpt>
      <trkpt lat="45.32231376506388187408447265625" lon="-70.80680455081164836883544921875">
        <ele>849.5999755859375</ele>
        <time>2026-08-21T12:32:30.000Z</time>
        <extensions>
          <ns3:TrackPointExtension>
            <ns3:hr>136</ns3:hr>
            <ns3:cad>48</ns3:cad>
          </ns3:TrackPointExtension>
        </extensions>
      </trkpt>
      <trkpt lat="45.32231074757874011993408203125" lon="-70.8068121783435344696044921875">
        <ele>849.79998779296875</ele>
        <time>2026-08-21T12:32:31.000Z</time>
        <extensions>
          <ns3:TrackPointExtension>
            <ns3:hr>135</ns3:hr>
            <ns3:cad>48</ns3:cad>
          </ns3:TrackPointExtension>
        </extensions>
      </trkpt>
      <trkpt lat="45.32230337150394916534423828125" lon="-70.80681963823735713958740234375">
        <ele>849.79998779296875</ele>
        <time>2026-08-21T12:32:32.000Z</time>
        <extensions>
          <ns3:TrackPointExtension>
            <ns3:hr>135</ns3:hr>
            <ns3:cad>0</ns3:cad>
          </ns3:TrackPointExtension>
        </extensions>
      </trkpt>
      <trkpt lat="45.32230052165687084197998046875" lon="-70.8068138547241687774658203125">
        <ele>850</ele>
        <time>2026-08-21T12:32:33.000Z</time>
        <extensions>
          <ns3:TrackPointExtension>
            <ns3:hr>135</ns3:hr>
            <ns3:cad>44</ns3:cad>
          </ns3:TrackPointExtension>
        </extensions>
      </trkpt>
      <trkpt lat="45.3222970850765705108642578125" lon="-70.806806981563568115234375">
        <ele>850.4000244140625</ele>
        <time>2026-08-21T12:32:34.000Z</time>
        <extensions>
          <ns3:TrackPointExtension>
            <ns3:hr>134</ns3:hr>
            <ns3:cad>52</ns3:cad>
          </ns3:TrackPointExtension>
        </extensions>
      </trkpt>
      <trkpt lat="45.3222897090017795562744140625" lon="-70.8068048022687435150146484375">
        <ele>850.5999755859375</ele>
        <time>2026-08-21T12:32:35.000Z</time>
        <extensions>
          <ns3:TrackPointExtension>
            <ns3:hr>134</ns3:hr>
            <ns3:cad>52</ns3:cad>
          </ns3:TrackPointExtension>
        </extensions>
      </trkpt>
      <trkpt lat="45.32228476367890834808349609375" lon="-70.806805305182933807373046875">
        <ele>850.79998779296875</ele>
        <time>2026-08-21T12:32:36.000Z</time>
        <extensions>
          <ns3:TrackPointExtension>
            <ns3:hr>134</ns3:hr>
            <ns3:cad>52</ns3:cad>
          </ns3:TrackPointExtension>
        </extensions>
      </trkpt>
      <trkpt lat="45.32228325493633747100830078125" lon="-70.80680429935455322265625">
        <ele>851</ele>
        <time>2026-08-21T12:32:37.000Z</time>
        <extensions>
          <ns3:TrackPointExtension>
            <ns3:hr>133</ns3:hr>
            <ns3:cad>46</ns3:cad>
          </ns3:TrackPointExtension>
        </extensions>
      </trkpt>
      <trkpt lat="45.322275795042514801025390625" lon="-70.80679382197558879852294921875">
        <ele>851.20001220703125</ele>
        <time>2026-08-21T12:32:38.000Z</time>
        <extensions>
          <ns3:TrackPointExtension>
            <ns3:hr>133</ns3:hr>
            <ns3:cad>46</ns3:cad>
          </ns3:TrackPointExtension>
        </extensions>
      </trkpt>
      <trkpt lat="45.32227076590061187744140625" lon="-70.80679298378527164459228515625">
        <ele>851.5999755859375</ele>
        <time>2026-08-21T12:32:39.000Z</time>
        <extensions>
          <ns3:TrackPointExtension>
            <ns3:hr>133</ns3:hr>
            <ns3:cad>53</ns3:cad>
          </ns3:TrackPointExtension>
        </extensions>
      </trkpt>
      <trkpt lat="45.32226783223450183868408203125" lon="-70.80679013393819332122802734375">
        <ele>851.79998779296875</ele>
        <time>2026-08-21T12:32:40.000Z</time>
        <extensions>
          <ns3:TrackPointExtension>
            <ns3:hr>132</ns3:hr>
            <ns3:cad>53</ns3:cad>
          </ns3:TrackPointExtension>
        </extensions>
      </trkpt>
      <trkpt lat="45.32226112671196460723876953125" lon="-70.80677948892116546630859375">
        <ele>852</ele>
        <time>2026-08-21T12:32:41.000Z</time>
        <extensions>
          <ns3:TrackPointExtension>
            <ns3:hr>132</ns3:hr>
            <ns3:cad>53</ns3:cad>
          </ns3:TrackPointExtension>
        </extensions>
      </trkpt>
      <trkpt lat="45.32225358299911022186279296875" lon="-70.80677035264670848846435546875">
        <ele>852.4000244140625</ele>
        <time>2026-08-21T12:32:42.000Z</time>
        <extensions>
          <ns3:TrackPointExtension>
            <ns3:hr>133</ns3:hr>
            <ns3:cad>43</ns3:cad>
          </ns3:TrackPointExtension>
        </extensions>
      </trkpt>
      <trkpt lat="45.322249643504619598388671875" lon="-70.80676699988543987274169921875">
        <ele>852.5999755859375</ele>
        <time>2026-08-21T12:32:43.000Z</time>
        <extensions>
          <ns3:TrackPointExtension>
            <ns3:hr>133</ns3:hr>
            <ns3:cad>43</ns3:cad>
          </ns3:TrackPointExtension>
        </extensions>
      </trkpt>
      <trkpt lat="45.32224318943917751312255859375" lon="-70.80676230601966381072998046875">
        <ele>853</ele>
        <time>2026-08-21T12:32:44.000Z</time>
        <extensions>
          <ns3:TrackPointExtension>
            <ns3:hr>133</ns3:hr>
            <ns3:cad>0</ns3:cad>
          </ns3:TrackPointExtension>
        </extensions>
      </trkpt>
      <trkpt lat="45.32223346643149852752685546875" lon="-70.806758701801300048828125">
        <ele>853.20001220703125</ele>
        <time>2026-08-21T12:32:45.000Z</time>
        <extensions>
          <ns3:TrackPointExtension>
            <ns3:hr>134</ns3:hr>
            <ns3:cad>0</ns3:cad>
          </ns3:TrackPointExtension>
        </extensions>
      </trkpt>
      <trkpt lat="45.3222258388996124267578125" lon="-70.80674956552684307098388671875">
        <ele>853.4000244140625</ele>
        <time>2026-08-21T12:32:46.000Z</time>
        <extensions>
          <ns3:TrackPointExtension>
            <ns3:hr>135</ns3:hr>
            <ns3:cad>0</ns3:cad>
          </ns3:TrackPointExtension>
        </extensions>
      </trkpt>
      <trkpt lat="45.32222089357674121856689453125" lon="-70.80674503929913043975830078125">
        <ele>853.5999755859375</ele>
        <time>2026-08-21T12:32:47.000Z</time>
        <extensions>
          <ns3:TrackPointExtension>
            <ns3:hr>136</ns3:hr>
            <ns3:cad>46</ns3:cad>
          </ns3:TrackPointExtension>
        </extensions>
      </trkpt>
      <trkpt lat="45.32221376895904541015625" lon="-70.806745626032352447509765625">
        <ele>853.79998779296875</ele>
        <time>2026-08-21T12:32:48.000Z</time>
        <extensions>
          <ns3:TrackPointExtension>
            <ns3:hr>136</ns3:hr>
            <ns3:cad>46</ns3:cad>
          </ns3:TrackPointExtension>
        </extensions>
      </trkpt>
      <trkpt lat="45.3222072310745716094970703125" lon="-70.80674001015722751617431640625">
        <ele>854</ele>
        <time>2026-08-21T12:32:49.000Z</time>
        <extensions>
          <ns3:TrackPointExtension>
            <ns3:hr>136</ns3:hr>
            <ns3:cad>46</ns3:cad>
          </ns3:TrackPointExtension>
        </extensions>
      </trkpt>
      <trkpt lat="45.32220127992331981658935546875" lon="-70.80673514865338802337646484375">
        <ele>854.20001220703125</ele>
        <time>2026-08-21T12:32:50.000Z</time>
        <extensions>
          <ns3:TrackPointExtension>
            <ns3:hr>136</ns3:hr>
            <ns3:cad>46</ns3:cad>
          </ns3:TrackPointExtension>
        </extensions>
      </trkpt>
      <trkpt lat="45.32219608314335346221923828125" lon="-70.80673615448176860809326171875">
        <ele>854.4000244140625</ele>
        <time>2026-08-21T12:32:51.000Z</time>
        <extensions>
          <ns3:TrackPointExtension>
            <ns3:hr>136</ns3:hr>
            <ns3:cad>44</ns3:cad>
          </ns3:TrackPointExtension>
        </extensions>
      </trkpt>
      <trkpt lat="45.32219055108726024627685546875" lon="-70.80673615448176860809326171875">
        <ele>854.5999755859375</ele>
        <time>2026-08-21T12:32:52.000Z</time>
        <extensions>
          <ns3:TrackPointExtension>
            <ns3:hr>136</ns3:hr>
            <ns3:cad>44</ns3:cad>
          </ns3:TrackPointExtension>
        </extensions>
      </trkpt>
      <trkpt lat="45.3221827559173107147216796875" lon="-70.80673129297792911529541015625">
        <ele>854.79998779296875</ele>
        <time>2026-08-21T12:32:53.000Z</time>
        <extensions>
          <ns3:TrackPointExtension>
            <ns3:hr>137</ns3:hr>
            <ns3:cad>44</ns3:cad>
          </ns3:TrackPointExtension>
        </extensions>
      </trkpt>
      <trkpt lat="45.3221713565289974212646484375" lon="-70.80671804957091808319091796875">
        <ele>855.20001220703125</ele>
        <time>2026-08-21T12:32:54.000Z</time>
        <extensions>
          <ns3:TrackPointExtension>
            <ns3:hr>138</ns3:hr>
            <ns3:cad>44</ns3:cad>
          </ns3:TrackPointExtension>
        </extensions>
      </trkpt>
      <trkpt lat="45.32216548919677734375" lon="-70.80671519972383975982666015625">
        <ele>855.4000244140625</ele>
        <time>2026-08-21T12:32:55.000Z</time>
        <extensions>
          <ns3:TrackPointExtension>
            <ns3:hr>138</ns3:hr>
            <ns3:cad>44</ns3:cad>
          </ns3:TrackPointExtension>
        </extensions>
      </trkpt>
      <trkpt lat="45.322157442569732666015625" lon="-70.80670631490647792816162109375">
        <ele>855.5999755859375</ele>
        <time>2026-08-21T12:32:56.000Z</time>
        <extensions>
          <ns3:TrackPointExtension>
            <ns3:hr>138</ns3:hr>
            <ns3:cad>44</ns3:cad>
          </ns3:TrackPointExtension>
        </extensions>
      </trkpt>
      <trkpt lat="45.32215048559010028839111328125" lon="-70.80669541843235492706298828125">
        <ele>855.79998779296875</ele>
        <time>2026-08-21T12:32:57.000Z</time>
        <extensions>
          <ns3:TrackPointExtension>
            <ns3:hr>138</ns3:hr>
            <ns3:cad>44</ns3:cad>
          </ns3:TrackPointExtension>
        </extensions>
      </trkpt>
      <trkpt lat="45.32214629463851451873779296875" lon="-70.80669097602367401123046875">
        <ele>856.20001220703125</ele>
        <time>2026-08-21T12:32:58.000Z</time>
        <extensions>
          <ns3:TrackPointExtension>
            <ns3:hr>138</ns3:hr>
            <ns3:cad>44</ns3:cad>
          </ns3:TrackPointExtension>
        </extensions>
      </trkpt>
      <trkpt lat="45.322143025696277618408203125" lon="-70.80668753944337368011474609375">
        <ele>856.4000244140625</ele>
        <time>2026-08-21T12:32:59.000Z</time>
        <extensions>
          <ns3:TrackPointExtension>
            <ns3:hr>139</ns3:hr>
            <ns3:cad>44</ns3:cad>
          </ns3:TrackPointExtension>
        </extensions>
      </trkpt>
      <trkpt lat="45.3221398405730724334716796875" lon="-70.80668292939662933349609375">
        <ele>856.5999755859375</ele>
        <time>2026-08-21T12:33:00.000Z</time>
        <extensions>
          <ns3:TrackPointExtension>
            <ns3:hr>139</ns3:hr>
            <ns3:cad>44</ns3:cad>
          </ns3:TrackPointExtension>
        </extensions>
      </trkpt>
      <trkpt lat="45.32213397324085235595703125" lon="-70.80667362548410892486572265625">
        <ele>857</ele>
        <time>2026-08-21T12:33:01.000Z</time>
        <extensions>
          <ns3:TrackPointExtension>
            <ns3:hr>140</ns3:hr>
            <ns3:cad>0</ns3:cad>
          </ns3:TrackPointExtension>
        </extensions>
      </trkpt>
      <trkpt lat="45.32212852500379085540771484375" lon="-70.80667094327509403228759765625">
        <ele>857.20001220703125</ele>
        <time>2026-08-21T12:33:02.000Z</time>
        <extensions>
          <ns3:TrackPointExtension>
            <ns3:hr>139</ns3:hr>
            <ns3:cad>0</ns3:cad>
          </ns3:TrackPointExtension>
        </extensions>
      </trkpt>
      <trkpt lat="45.32212181948125362396240234375" lon="-70.806667841970920562744140625">
        <ele>857.5999755859375</ele>
        <time>2026-08-21T12:33:03.000Z</time>
        <extensions>
          <ns3:TrackPointExtension>
            <ns3:hr>139</ns3:hr>
            <ns3:cad>0</ns3:cad>
          </ns3:TrackPointExtension>
        </extensions>
      </trkpt>
      <trkpt lat="45.32211276702582836151123046875" lon="-70.80667429603636264801025390625">
        <ele>857.79998779296875</ele>
        <time>2026-08-21T12:33:04.000Z</time>
        <extensions>
          <ns3:TrackPointExtension>
            <ns3:hr>140</ns3:hr>
            <ns3:cad>0</ns3:cad>
          </ns3:TrackPointExtension>
        </extensions>
      </trkpt>
      <trkpt lat="45.322110168635845184326171875" lon="-70.80668183974921703338623046875">
        <ele>858</ele>
        <time>2026-08-21T12:33:05.000Z</time>
        <extensions>
          <ns3:TrackPointExtension>
            <ns3:hr>140</ns3:hr>
            <ns3:cad>0</ns3:cad>
          </ns3:TrackPointExtension>
        </extensions>
      </trkpt>
      <trkpt lat="45.32210438512265682220458984375" lon="-70.80668183974921703338623046875">
        <ele>858.20001220703125</ele>
        <time>2026-08-21T12:33:06.000Z</time>
        <extensions>
          <ns3:TrackPointExtension>
            <ns3:hr>141</ns3:hr>
            <ns3:cad>0</ns3:cad>
          </ns3:TrackPointExtension>
        </extensions>
      </trkpt>
      <trkpt lat="45.32210019417107105255126953125" lon="-70.80668167211115360260009765625">
        <ele>858.20001220703125</ele>
        <time>2026-08-21T12:33:07.000Z</time>
        <extensions>
          <ns3:TrackPointExtension>
            <ns3:hr>140</ns3:hr>
            <ns3:cad>0</ns3:cad>
          </ns3:TrackPointExtension>
        </extensions>
      </trkpt>
      <trkpt lat="45.32209767960011959075927734375" lon="-70.80668116919696331024169921875">
        <ele>858.4000244140625</ele>
        <time>2026-08-21T12:33:08.000Z</time>
        <extensions>
          <ns3:TrackPointExtension>
            <ns3:hr>140</ns3:hr>
            <ns3:cad>0</ns3:cad>
          </ns3:TrackPointExtension>
        </extensions>
      </trkpt>
      <trkpt lat="45.322100780904293060302734375" lon="-70.8066716976463794708251953125">
        <ele>858.5999755859375</ele>
        <time>2026-08-21T12:33:09.000Z</time>
        <extensions>
          <ns3:TrackPointExtension>
            <ns3:hr>141</ns3:hr>
            <ns3:cad>0</ns3:cad>
          </ns3:TrackPointExtension>
        </extensions>
      </trkpt>
      <trkpt lat="45.32209910452365875244140625" lon="-70.80666272900998592376708984375">
        <ele>858.5999755859375</ele>
        <time>2026-08-21T12:33:10.000Z</time>
        <extensions>
          <ns3:TrackPointExtension>
            <ns3:hr>141</ns3:hr>
            <ns3:cad>0</ns3:cad>
          </ns3:TrackPointExtension>
        </extensions>
      </trkpt>
      <trkpt lat="45.32209550030529499053955078125" lon="-70.80664982087910175323486328125">
        <ele>858.79998779296875</ele>
        <time>2026-08-21T12:33:11.000Z</time>
        <extensions>
          <ns3:TrackPointExtension>
            <ns3:hr>141</ns3:hr>
            <ns3:cad>0</ns3:cad>
          </ns3:TrackPointExtension>
        </extensions>
      </trkpt>
      <trkpt lat="45.32209164462983608245849609375" lon="-70.8066421933472156524658203125">
        <ele>858.79998779296875</ele>
        <time>2026-08-21T12:33:12.000Z</time>
        <extensions>
          <ns3:TrackPointExtension>
            <ns3:hr>142</ns3:hr>
            <ns3:cad>0</ns3:cad>
          </ns3:TrackPointExtension>
        </extensions>
      </trkpt>
      <trkpt lat="45.32208829186856746673583984375" lon="-70.80663339234888553619384765625">
        <ele>859</ele>
        <time>2026-08-21T12:33:13.000Z</time>
        <extensions>
          <ns3:TrackPointExtension>
            <ns3:hr>143</ns3:hr>
            <ns3:cad>0</ns3:cad>
          </ns3:TrackPointExtension>
        </extensions>
      </trkpt>
      <trkpt lat="45.322086028754711151123046875" lon="-70.80662123858928680419921875">
        <ele>859</ele>
        <time>2026-08-21T12:33:14.000Z</time>
        <extensions>
          <ns3:TrackPointExtension>
            <ns3:hr>144</ns3:hr>
            <ns3:cad>0</ns3:cad>
          </ns3:TrackPointExtension>
        </extensions>
      </trkpt>
      <trkpt lat="45.32208376564085483551025390625" lon="-70.80661511979997158050537109375">
        <ele>859.20001220703125</ele>
        <time>2026-08-21T12:33:15.000Z</time>
        <extensions>
          <ns3:TrackPointExtension>
            <ns3:hr>144</ns3:hr>
            <ns3:cad>0</ns3:cad>
          </ns3:TrackPointExtension>
        </extensions>
      </trkpt>
      <trkpt lat="45.32207890413701534271240234375" lon="-70.80660707317292690277099609375">
        <ele>859.4000244140625</ele>
        <time>2026-08-21T12:33:16.000Z</time>
        <extensions>
          <ns3:TrackPointExtension>
            <ns3:hr>144</ns3:hr>
            <ns3:cad>0</ns3:cad>
          </ns3:TrackPointExtension>
        </extensions>
      </trkpt>
      <trkpt lat="45.32207421027123928070068359375" lon="-70.8065964281558990478515625">
        <ele>859.5999755859375</ele>
        <time>2026-08-21T12:33:17.000Z</time>
        <extensions>
          <ns3:TrackPointExtension>
            <ns3:hr>144</ns3:hr>
            <ns3:cad>0</ns3:cad>
          </ns3:TrackPointExtension>
        </extensions>
      </trkpt>
      <trkpt lat="45.32206649892032146453857421875" lon="-70.8065815083682537078857421875">
        <ele>859.5999755859375</ele>
        <time>2026-08-21T12:33:18.000Z</time>
        <extensions>
          <ns3:TrackPointExtension>
            <ns3:hr>144</ns3:hr>
            <ns3:cad>0</ns3:cad>
          </ns3:TrackPointExtension>
        </extensions>
      </trkpt>
      <trkpt lat="45.3220617212355136871337890625" lon="-70.806565582752227783203125">
        <ele>859.79998779296875</ele>
        <time>2026-08-21T12:33:19.000Z</time>
        <extensions>
          <ns3:TrackPointExtension>
            <ns3:hr>144</ns3:hr>
            <ns3:cad>0</ns3:cad>
          </ns3:TrackPointExtension>
        </extensions>
      </trkpt>
      <trkpt lat="45.32205828465521335601806640625" lon="-70.80654806457459926605224609375">
        <ele>859.79998779296875</ele>
        <time>2026-08-21T12:33:20.000Z</time>
        <extensions>
          <ns3:TrackPointExtension>
            <ns3:hr>144</ns3:hr>
            <ns3:cad>48</ns3:cad>
          </ns3:TrackPointExtension>
        </extensions>
      </trkpt>
      <trkpt lat="45.3220526687800884246826171875" lon="-70.8065347373485565185546875">
        <ele>860</ele>
        <time>2026-08-21T12:33:21.000Z</time>
        <extensions>
          <ns3:TrackPointExtension>
            <ns3:hr>143</ns3:hr>
            <ns3:cad>49</ns3:cad>
          </ns3:TrackPointExtension>
        </extensions>
      </trkpt>
      <trkpt lat="45.322046466171741485595703125" lon="-70.80652057193219661712646484375">
        <ele>860</ele>
        <time>2026-08-21T12:33:22.000Z</time>
        <extensions>
          <ns3:TrackPointExtension>
            <ns3:hr>144</ns3:hr>
            <ns3:cad>49</ns3:cad>
          </ns3:TrackPointExtension>
        </extensions>
      </trkpt>
      <trkpt lat="45.32203934155404567718505859375" lon="-70.80650456249713897705078125">
        <ele>860.20001220703125</ele>
        <time>2026-08-21T12:33:23.000Z</time>
        <extensions>
          <ns3:TrackPointExtension>
            <ns3:hr>144</ns3:hr>
            <ns3:cad>50</ns3:cad>
          </ns3:TrackPointExtension>
        </extensions>
      </trkpt>
      <trkpt lat="45.3220375813543796539306640625" lon="-70.80649651587009429931640625">
        <ele>860.4000244140625</ele>
        <time>2026-08-21T12:33:24.000Z</time>
        <extensions>
          <ns3:TrackPointExtension>
            <ns3:hr>144</ns3:hr>
            <ns3:cad>50</ns3:cad>
          </ns3:TrackPointExtension>
        </extensions>
      </trkpt>
      <trkpt lat="45.32203347422182559967041015625" lon="-70.80648737959563732147216796875">
        <ele>860.5999755859375</ele>
        <time>2026-08-21T12:33:25.000Z</time>
        <extensions>
          <ns3:TrackPointExtension>
            <ns3:hr>144</ns3:hr>
            <ns3:cad>50</ns3:cad>
          </ns3:TrackPointExtension>
        </extensions>
      </trkpt>
      <trkpt lat="45.3220291994512081146240234375" lon="-70.8064735494554042816162109375">
        <ele>860.79998779296875</ele>
        <time>2026-08-21T12:33:26.000Z</time>
        <extensions>
          <ns3:TrackPointExtension>
            <ns3:hr>145</ns3:hr>
            <ns3:cad>50</ns3:cad>
          </ns3:TrackPointExtension>
        </extensions>
      </trkpt>
      <trkpt lat="45.32202207483351230621337890625" lon="-70.80645938403904438018798828125">
        <ele>861.20001220703125</ele>
        <time>2026-08-21T12:33:27.000Z</time>
        <extensions>
          <ns3:TrackPointExtension>
            <ns3:hr>145</ns3:hr>
            <ns3:cad>0</ns3:cad>
          </ns3:TrackPointExtension>
        </extensions>
      </trkpt>
      <trkpt lat="45.32201369293034076690673828125" lon="-70.80646097660064697265625">
        <ele>861.4000244140625</ele>
        <time>2026-08-21T12:33:28.000Z</time>
        <extensions>
          <ns3:TrackPointExtension>
            <ns3:hr>144</ns3:hr>
            <ns3:cad>0</ns3:cad>
          </ns3:TrackPointExtension>
        </extensions>
      </trkpt>
      <trkpt lat="45.32200698740780353546142578125" lon="-70.806461311876773834228515625">
        <ele>861.5999755859375</ele>
        <time>2026-08-21T12:33:29.000Z</time>
        <extensions>
          <ns3:TrackPointExtension>
            <ns3:hr>144</ns3:hr>
            <ns3:cad>0</ns3:cad>
          </ns3:TrackPointExtension>
        </extensions>
      </trkpt>
      <trkpt lat="45.32200212590396404266357421875" lon="-70.8064571209251880645751953125">
        <ele>861.79998779296875</ele>
        <time>2026-08-21T12:33:30.000Z</time>
        <extensions>
          <ns3:TrackPointExtension>
            <ns3:hr>145</ns3:hr>
            <ns3:cad>0</ns3:cad>
          </ns3:TrackPointExtension>
        </extensions>
      </trkpt>
      <trkpt lat="45.3219953365623950958251953125" lon="-70.8064470626413822174072265625">
        <ele>862.20001220703125</ele>
        <time>2026-08-21T12:33:31.000Z</time>
        <extensions>
          <ns3:TrackPointExtension>
            <ns3:hr>145</ns3:hr>
            <ns3:cad>0</ns3:cad>
          </ns3:TrackPointExtension>
        </extensions>
      </trkpt>
      <trkpt lat="45.3219936601817607879638671875" lon="-70.806445218622684478759765625">
        <ele>862.4000244140625</ele>
        <time>2026-08-21T12:33:32.000Z</time>
        <extensions>
          <ns3:TrackPointExtension>
            <ns3:hr>145</ns3:hr>
            <ns3:cad>0</ns3:cad>
          </ns3:TrackPointExtension>
        </extensions>
      </trkpt>
      <trkpt lat="45.32198720611631870269775390625" lon="-70.8064430393278598785400390625">
        <ele>862.5999755859375</ele>
        <time>2026-08-21T12:33:33.000Z</time>
        <extensions>
          <ns3:TrackPointExtension>
            <ns3:hr>145</ns3:hr>
            <ns3:cad>0</ns3:cad>
          </ns3:TrackPointExtension>
        </extensions>
      </trkpt>
      <trkpt lat="45.3219829313457012176513671875" lon="-70.8064423687756061553955078125">
        <ele>862.79998779296875</ele>
        <time>2026-08-21T12:33:34.000Z</time>
        <extensions>
          <ns3:TrackPointExtension>
            <ns3:hr>145</ns3:hr>
            <ns3:cad>0</ns3:cad>
          </ns3:TrackPointExtension>
        </extensions>
      </trkpt>
      <trkpt lat="45.32197211869060993194580078125" lon="-70.806435830891132354736328125">
        <ele>863.20001220703125</ele>
        <time>2026-08-21T12:33:35.000Z</time>
        <extensions>
          <ns3:TrackPointExtension>
            <ns3:hr>145</ns3:hr>
            <ns3:cad>0</ns3:cad>
          </ns3:TrackPointExtension>
        </extensions>
      </trkpt>
      <trkpt lat="45.321961976587772369384765625" lon="-70.80643256194889545440673828125">
        <ele>863.4000244140625</ele>
        <time>2026-08-21T12:33:36.000Z</time>
        <extensions>
          <ns3:TrackPointExtension>
            <ns3:hr>144</ns3:hr>
            <ns3:cad>0</ns3:cad>
          </ns3:TrackPointExtension>
        </extensions>
      </trkpt>
      <trkpt lat="45.321955271065235137939453125" lon="-70.80643356777727603912353515625">
        <ele>863.5999755859375</ele>
        <time>2026-08-21T12:33:37.000Z</time>
        <extensions>
          <ns3:TrackPointExtension>
            <ns3:hr>144</ns3:hr>
            <ns3:cad>0</ns3:cad>
          </ns3:TrackPointExtension>
        </extensions>
      </trkpt>
      <trkpt lat="45.3219477273523807525634765625" lon="-70.8064319752156734466552734375">
        <ele>863.79998779296875</ele>
        <time>2026-08-21T12:33:38.000Z</time>
        <extensions>
          <ns3:TrackPointExtension>
            <ns3:hr>144</ns3:hr>
            <ns3:cad>0</ns3:cad>
          </ns3:TrackPointExtension>
        </extensions>
      </trkpt>
      <trkpt lat="45.32194278202950954437255859375" lon="-70.80643122084438800811767578125">
        <ele>864</ele>
        <time>2026-08-21T12:33:39.000Z</time>
        <extensions>
          <ns3:TrackPointExtension>
            <ns3:hr>145</ns3:hr>
            <ns3:cad>0</ns3:cad>
          </ns3:TrackPointExtension>
        </extensions>
      </trkpt>
      <trkpt lat="45.32193523831665515899658203125" lon="-70.80643088556826114654541015625">
        <ele>864.20001220703125</ele>
        <time>2026-08-21T12:33:40.000Z</time>
        <extensions>
          <ns3:TrackPointExtension>
            <ns3:hr>145</ns3:hr>
            <ns3:cad>0</ns3:cad>
          </ns3:TrackPointExtension>
        </extensions>
      </trkpt>
      <trkpt lat="45.3219292871654033660888671875" lon="-70.8064370043575763702392578125">
        <ele>864.4000244140625</ele>
        <time>2026-08-21T12:33:41.000Z</time>
        <extensions>
          <ns3:TrackPointExtension>
            <ns3:hr>145</ns3:hr>
            <ns3:cad>0</ns3:cad>
          </ns3:TrackPointExtension>
        </extensions>
      </trkpt>
      <trkpt lat="45.32192501239478588104248046875" lon="-70.80644010566174983978271484375">
        <ele>864.5999755859375</ele>
        <time>2026-08-21T12:33:42.000Z</time>
        <extensions>
          <ns3:TrackPointExtension>
            <ns3:hr>145</ns3:hr>
            <ns3:cad>0</ns3:cad>
          </ns3:TrackPointExtension>
        </extensions>
      </trkpt>
      <trkpt lat="45.32192635349929332733154296875" lon="-70.8064403571188449859619140625">
        <ele>864.79998779296875</ele>
        <time>2026-08-21T12:33:43.000Z</time>
        <extensions>
          <ns3:TrackPointExtension>
            <ns3:hr>145</ns3:hr>
            <ns3:cad>0</ns3:cad>
          </ns3:TrackPointExtension>
        </extensions>
      </trkpt>
      <trkpt lat="45.32192341983318328857421875" lon="-70.80644379369914531707763671875">
        <ele>865</ele>
        <time>2026-08-21T12:33:44.000Z</time>
        <extensions>
          <ns3:TrackPointExtension>
            <ns3:hr>144</ns3:hr>
            <ns3:cad>0</ns3:cad>
          </ns3:TrackPointExtension>
        </extensions>
      </trkpt>
      <trkpt lat="45.321921072900295257568359375" lon="-70.8064380101859569549560546875">
        <ele>865.4000244140625</ele>
        <time>2026-08-21T12:33:45.000Z</time>
        <extensions>
          <ns3:TrackPointExtension>
            <ns3:hr>145</ns3:hr>
            <ns3:cad>0</ns3:cad>
          </ns3:TrackPointExtension>
        </extensions>
      </trkpt>
      <trkpt lat="45.32192484475672245025634765625" lon="-70.806438513100147247314453125">
        <ele>865.5999755859375</ele>
        <time>2026-08-21T12:33:46.000Z</time>
        <extensions>
          <ns3:TrackPointExtension>
            <ns3:hr>145</ns3:hr>
            <ns3:cad>0</ns3:cad>
          </ns3:TrackPointExtension>
        </extensions>
      </trkpt>
      <trkpt lat="45.32192551530897617340087890625" lon="-70.80643088556826114654541015625">
        <ele>865.79998779296875</ele>
        <time>2026-08-21T12:33:47.000Z</time>
        <extensions>
          <ns3:TrackPointExtension>
            <ns3:hr>145</ns3:hr>
            <ns3:cad>0</ns3:cad>
          </ns3:TrackPointExtension>
        </extensions>
      </trkpt>
      <trkpt lat="45.3219266049563884735107421875" lon="-70.8064212463796138763427734375">
        <ele>866</ele>
        <time>2026-08-21T12:33:48.000Z</time>
        <extensions>
          <ns3:TrackPointExtension>
            <ns3:hr>145</ns3:hr>
            <ns3:cad>0</ns3:cad>
          </ns3:TrackPointExtension>
        </extensions>
      </trkpt>
      <trkpt lat="45.3219279460608959197998046875" lon="-70.80642200075089931488037109375">
        <ele>866.20001220703125</ele>
        <time>2026-08-21T12:33:49.000Z</time>
        <extensions>
          <ns3:TrackPointExtension>
            <ns3:hr>146</ns3:hr>
            <ns3:cad>0</ns3:cad>
          </ns3:TrackPointExtension>
        </extensions>
      </trkpt>
      <trkpt lat="45.321926772594451904296875" lon="-70.806416384875774383544921875">
        <ele>866.5999755859375</ele>
        <time>2026-08-21T12:33:50.000Z</time>
        <extensions>
          <ns3:TrackPointExtension>
            <ns3:hr>146</ns3:hr>
            <ns3:cad>0</ns3:cad>
          </ns3:TrackPointExtension>
        </extensions>
      </trkpt>
      <trkpt lat="45.32192618586122989654541015625" lon="-70.806411020457744598388671875">
        <ele>866.79998779296875</ele>
        <time>2026-08-21T12:33:51.000Z</time>
        <extensions>
          <ns3:TrackPointExtension>
            <ns3:hr>146</ns3:hr>
            <ns3:cad>0</ns3:cad>
          </ns3:TrackPointExtension>
        </extensions>
      </trkpt>
      <trkpt lat="45.32192333601415157318115234375" lon="-70.80639861524105072021484375">
        <ele>867</ele>
        <time>2026-08-21T12:33:52.000Z</time>
        <extensions>
          <ns3:TrackPointExtension>
            <ns3:hr>146</ns3:hr>
            <ns3:cad>0</ns3:cad>
          </ns3:TrackPointExtension>
        </extensions>
      </trkpt>
      <trkpt lat="45.3219200670719146728515625" lon="-70.806386210024356842041015625">
        <ele>867.4000244140625</ele>
        <time>2026-08-21T12:33:53.000Z</time>
        <extensions>
          <ns3:TrackPointExtension>
            <ns3:hr>146</ns3:hr>
            <ns3:cad>0</ns3:cad>
          </ns3:TrackPointExtension>
        </extensions>
      </trkpt>
      <trkpt lat="45.321915037930011749267578125" lon="-70.8063711225986480712890625">
        <ele>867.5999755859375</ele>
        <time>2026-08-21T12:33:54.000Z</time>
        <extensions>
          <ns3:TrackPointExtension>
            <ns3:hr>147</ns3:hr>
            <ns3:cad>48</ns3:cad>
          </ns3:TrackPointExtension>
        </extensions>
      </trkpt>
      <trkpt lat="45.32191528938710689544677734375" lon="-70.80636450089514255523681640625">
        <ele>867.79998779296875</ele>
        <time>2026-08-21T12:33:55.000Z</time>
        <extensions>
          <ns3:TrackPointExtension>
            <ns3:hr>147</ns3:hr>
            <ns3:cad>48</ns3:cad>
          </ns3:TrackPointExtension>
        </extensions>
      </trkpt>
      <trkpt lat="45.3219148702919483184814453125" lon="-70.80634857527911663055419921875">
        <ele>868</ele>
        <time>2026-08-21T12:33:56.000Z</time>
        <extensions>
          <ns3:TrackPointExtension>
            <ns3:hr>147</ns3:hr>
            <ns3:cad>0</ns3:cad>
          </ns3:TrackPointExtension>
        </extensions>
      </trkpt>
      <trkpt lat="45.32191176898777484893798828125" lon="-70.8063367567956447601318359375">
        <ele>868.20001220703125</ele>
        <time>2026-08-21T12:33:57.000Z</time>
        <extensions>
          <ns3:TrackPointExtension>
            <ns3:hr>148</ns3:hr>
            <ns3:cad>0</ns3:cad>
          </ns3:TrackPointExtension>
        </extensions>
      </trkpt>
      <trkpt lat="45.3219074942171573638916015625" lon="-70.8063226751983165740966796875">
        <ele>868.4000244140625</ele>
        <time>2026-08-21T12:33:58.000Z</time>
        <extensions>
          <ns3:TrackPointExtension>
            <ns3:hr>148</ns3:hr>
            <ns3:cad>0</ns3:cad>
          </ns3:TrackPointExtension>
        </extensions>
      </trkpt>
      <trkpt lat="45.32190020196139812469482421875" lon="-70.8063082583248615264892578125">
        <ele>868.5999755859375</ele>
        <time>2026-08-21T12:33:59.000Z</time>
        <extensions>
          <ns3:TrackPointExtension>
            <ns3:hr>148</ns3:hr>
            <ns3:cad>0</ns3:cad>
          </ns3:TrackPointExtension>
        </extensions>
      </trkpt>
      <trkpt lat="45.3218905627727508544921875" lon="-70.80630918033421039581298828125">
        <ele>868.5999755859375</ele>
        <time>2026-08-21T12:34:00.000Z</time>
        <extensions>
          <ns3:TrackPointExtension>
            <ns3:hr>148</ns3:hr>
            <ns3:cad>0</ns3:cad>
          </ns3:TrackPointExtension>
        </extensions>
      </trkpt>
      <trkpt lat="45.3218746371567249298095703125" lon="-70.80630683340132236480712890625">
        <ele>868.79998779296875</ele>
        <time>2026-08-21T12:34:01.000Z</time>
        <extensions>
          <ns3:TrackPointExtension>
            <ns3:hr>148</ns3:hr>
            <ns3:cad>0</ns3:cad>
          </ns3:TrackPointExtension>
        </extensions>
      </trkpt>
      <trkpt lat="45.321866758167743682861328125" lon="-70.8063129521906375885009765625">
        <ele>869</ele>
        <time>2026-08-21T12:34:02.000Z</time>
        <extensions>
          <ns3:TrackPointExtension>
            <ns3:hr>148</ns3:hr>
            <ns3:cad>0</ns3:cad>
          </ns3:TrackPointExtension>
        </extensions>
      </trkpt>
      <trkpt lat="45.32186038792133331298828125" lon="-70.8063223399221897125244140625">
        <ele>869.20001220703125</ele>
        <time>2026-08-21T12:34:03.000Z</time>
        <extensions>
          <ns3:TrackPointExtension>
            <ns3:hr>147</ns3:hr>
            <ns3:cad>0</ns3:cad>
          </ns3:TrackPointExtension>
        </extensions>
      </trkpt>
      <trkpt lat="45.321853347122669219970703125" lon="-70.80633248202502727508544921875">
        <ele>869.4000244140625</ele>
        <time>2026-08-21T12:34:04.000Z</time>
        <extensions>
          <ns3:TrackPointExtension>
            <ns3:hr>148</ns3:hr>
            <ns3:cad>0</ns3:cad>
          </ns3:TrackPointExtension>
        </extensions>
      </trkpt>
      <trkpt lat="45.3218461386859416961669921875" lon="-70.80634790472686290740966796875">
        <ele>869.5999755859375</ele>
        <time>2026-08-21T12:34:05.000Z</time>
        <extensions>
          <ns3:TrackPointExtension>
            <ns3:hr>149</ns3:hr>
            <ns3:cad>0</ns3:cad>
          </ns3:TrackPointExtension>
        </extensions>
      </trkpt>
      <trkpt lat="45.32183733768761157989501953125" lon="-70.8063615672290325164794921875">
        <ele>869.5999755859375</ele>
        <time>2026-08-21T12:34:06.000Z</time>
        <extensions>
          <ns3:TrackPointExtension>
            <ns3:hr>149</ns3:hr>
            <ns3:cad>0</ns3:cad>
          </ns3:TrackPointExtension>
        </extensions>
      </trkpt>
      <trkpt lat="45.32182761467993259429931640625" lon="-70.8063776604831218719482421875">
        <ele>869.5999755859375</ele>
        <time>2026-08-21T12:34:07.000Z</time>
        <extensions>
          <ns3:TrackPointExtension>
            <ns3:hr>149</ns3:hr>
            <ns3:cad>0</ns3:cad>
          </ns3:TrackPointExtension>
        </extensions>
      </trkpt>
      <trkpt lat="45.32182007096707820892333984375" lon="-70.806391239166259765625">
        <ele>869.5999755859375</ele>
        <time>2026-08-21T12:34:08.000Z</time>
        <extensions>
          <ns3:TrackPointExtension>
            <ns3:hr>149</ns3:hr>
            <ns3:cad>0</ns3:cad>
          </ns3:TrackPointExtension>
        </extensions>
      </trkpt>
      <trkpt lat="45.32181202434003353118896484375" lon="-70.806400962173938751220703125">
        <ele>869.5999755859375</ele>
        <time>2026-08-21T12:34:09.000Z</time>
        <extensions>
          <ns3:TrackPointExtension>
            <ns3:hr>149</ns3:hr>
            <ns3:cad>0</ns3:cad>
          </ns3:TrackPointExtension>
        </extensions>
      </trkpt>
      <trkpt lat="45.321803390979766845703125" lon="-70.80641043372452259063720703125">
        <ele>869.5999755859375</ele>
        <time>2026-08-21T12:34:10.000Z</time>
        <extensions>
          <ns3:TrackPointExtension>
            <ns3:hr>148</ns3:hr>
            <ns3:cad>0</ns3:cad>
          </ns3:TrackPointExtension>
        </extensions>
      </trkpt>
      <trkpt lat="45.321797691285610198974609375" lon="-70.80641663633286952972412109375">
        <ele>869.79998779296875</ele>
        <time>2026-08-21T12:34:11.000Z</time>
        <extensions>
          <ns3:TrackPointExtension>
            <ns3:hr>149</ns3:hr>
            <ns3:cad>50</ns3:cad>
          </ns3:TrackPointExtension>
        </extensions>
      </trkpt>
      <trkpt lat="45.3217884711921215057373046875" lon="-70.80642216838896274566650390625">
        <ele>869.79998779296875</ele>
        <time>2026-08-21T12:34:12.000Z</time>
        <extensions>
          <ns3:TrackPointExtension>
            <ns3:hr>149</ns3:hr>
            <ns3:cad>50</ns3:cad>
          </ns3:TrackPointExtension>
        </extensions>
      </trkpt>
      <trkpt lat="45.32178017310798168182373046875" lon="-70.8064296282827854156494140625">
        <ele>870</ele>
        <time>2026-08-21T12:34:13.000Z</time>
        <extensions>
          <ns3:TrackPointExtension>
            <ns3:hr>149</ns3:hr>
            <ns3:cad>0</ns3:cad>
          </ns3:TrackPointExtension>
        </extensions>
      </trkpt>
      <trkpt lat="45.32177061773836612701416015625" lon="-70.8064435422420501708984375">
        <ele>870</ele>
        <time>2026-08-21T12:34:14.000Z</time>
        <extensions>
          <ns3:TrackPointExtension>
            <ns3:hr>148</ns3:hr>
            <ns3:cad>0</ns3:cad>
          </ns3:TrackPointExtension>
        </extensions>
      </trkpt>
      <trkpt lat="45.32176240347325801849365234375" lon="-70.80645737238228321075439453125">
        <ele>870</ele>
        <time>2026-08-21T12:34:15.000Z</time>
        <extensions>
          <ns3:TrackPointExtension>
            <ns3:hr>149</ns3:hr>
            <ns3:cad>0</ns3:cad>
          </ns3:TrackPointExtension>
        </extensions>
      </trkpt>
      <trkpt lat="45.32175578176975250244140625" lon="-70.80647229216992855072021484375">
        <ele>870</ele>
        <time>2026-08-21T12:34:16.000Z</time>
        <extensions>
          <ns3:TrackPointExtension>
            <ns3:hr>149</ns3:hr>
            <ns3:cad>0</ns3:cad>
          </ns3:TrackPointExtension>
        </extensions>
      </trkpt>
      <trkpt lat="45.32174848951399326324462890625" lon="-70.80648955889046192169189453125">
        <ele>870</ele>
        <time>2026-08-21T12:34:17.000Z</time>
        <extensions>
          <ns3:TrackPointExtension>
            <ns3:hr>148</ns3:hr>
            <ns3:cad>0</ns3:cad>
          </ns3:TrackPointExtension>
        </extensions>
      </trkpt>
      <trkpt lat="45.32173834741115570068359375" lon="-70.8065040595829486846923828125">
        <ele>870</ele>
        <time>2026-08-21T12:34:18.000Z</time>
        <extensions>
          <ns3:TrackPointExtension>
            <ns3:hr>149</ns3:hr>
            <ns3:cad>50</ns3:cad>
          </ns3:TrackPointExtension>
        </extensions>
      </trkpt>
      <trkpt lat="45.32172493636608123779296875" lon="-70.806516967713832855224609375">
        <ele>870</ele>
        <time>2026-08-21T12:34:19.000Z</time>
        <extensions>
          <ns3:TrackPointExtension>
            <ns3:hr>149</ns3:hr>
            <ns3:cad>50</ns3:cad>
          </ns3:TrackPointExtension>
        </extensions>
      </trkpt>
      <trkpt lat="45.3217133693397045135498046875" lon="-70.80652995966374874114990234375">
        <ele>869.79998779296875</ele>
        <time>2026-08-21T12:34:20.000Z</time>
        <extensions>
          <ns3:TrackPointExtension>
            <ns3:hr>148</ns3:hr>
            <ns3:cad>53</ns3:cad>
          </ns3:TrackPointExtension>
        </extensions>
      </trkpt>
      <trkpt lat="45.32170088030397891998291015625" lon="-70.80654144287109375">
        <ele>869.79998779296875</ele>
        <time>2026-08-21T12:34:21.000Z</time>
        <extensions>
          <ns3:TrackPointExtension>
            <ns3:hr>149</ns3:hr>
            <ns3:cad>53</ns3:cad>
          </ns3:TrackPointExtension>
        </extensions>
      </trkpt>
      <trkpt lat="45.32169006764888763427734375" lon="-70.80654974095523357391357421875">
        <ele>870</ele>
        <time>2026-08-21T12:34:22.000Z</time>
        <extensions>
          <ns3:TrackPointExtension>
            <ns3:hr>149</ns3:hr>
            <ns3:cad>53</ns3:cad>
          </ns3:TrackPointExtension>
        </extensions>
      </trkpt>
      <trkpt lat="45.3216801770031452178955078125" lon="-70.8065561950206756591796875">
        <ele>870</ele>
        <time>2026-08-21T12:34:23.000Z</time>
        <extensions>
          <ns3:TrackPointExtension>
            <ns3:hr>149</ns3:hr>
            <ns3:cad>0</ns3:cad>
          </ns3:TrackPointExtension>
        </extensions>
      </trkpt>
      <trkpt lat="45.32166634686291217803955078125" lon="-70.80656600184738636016845703125">
        <ele>870</ele>
        <time>2026-08-21T12:34:24.000Z</time>
        <extensions>
          <ns3:TrackPointExtension>
            <ns3:hr>148</ns3:hr>
            <ns3:cad>0</ns3:cad>
          </ns3:TrackPointExtension>
        </extensions>
      </trkpt>
      <trkpt lat="45.32165679149329662322998046875" lon="-70.806574635207653045654296875">
        <ele>870</ele>
        <time>2026-08-21T12:34:25.000Z</time>
        <extensions>
          <ns3:TrackPointExtension>
            <ns3:hr>149</ns3:hr>
            <ns3:cad>0</ns3:cad>
          </ns3:TrackPointExtension>
        </extensions>
      </trkpt>
      <trkpt lat="45.3216493315994739532470703125" lon="-70.80658100545406341552734375">
        <ele>870.20001220703125</ele>
        <time>2026-08-21T12:34:26.000Z</time>
        <extensions>
          <ns3:TrackPointExtension>
            <ns3:hr>148</ns3:hr>
            <ns3:cad>0</ns3:cad>
          </ns3:TrackPointExtension>
        </extensions>
      </trkpt>
      <trkpt lat="45.3216412849724292755126953125" lon="-70.80658226273953914642333984375">
        <ele>870.20001220703125</ele>
        <time>2026-08-21T12:34:27.000Z</time>
        <extensions>
          <ns3:TrackPointExtension>
            <ns3:hr>148</ns3:hr>
            <ns3:cad>0</ns3:cad>
          </ns3:TrackPointExtension>
        </extensions>
      </trkpt>
      <trkpt lat="45.32162913121283054351806640625" lon="-70.80658494494855403900146484375">
        <ele>870.20001220703125</ele>
        <time>2026-08-21T12:34:28.000Z</time>
        <extensions>
          <ns3:TrackPointExtension>
            <ns3:hr>144</ns3:hr>
            <ns3:cad>0</ns3:cad>
          </ns3:TrackPointExtension>
        </extensions>
      </trkpt>
      <trkpt lat="45.32161622308194637298583984375" lon="-70.8065902255475521087646484375">
        <ele>870.4000244140625</ele>
        <time>2026-08-21T12:34:29.000Z</time>
        <extensions>
          <ns3:TrackPointExtension>
            <ns3:hr>142</ns3:hr>
            <ns3:cad>0</ns3:cad>
          </ns3:TrackPointExtension>
        </extensions>
      </trkpt>
      <trkpt lat="45.32160817645490169525146484375" lon="-70.8065955899655818939208984375">
        <ele>870.4000244140625</ele>
        <time>2026-08-21T12:34:30.000Z</time>
        <extensions>
          <ns3:TrackPointExtension>
            <ns3:hr>142</ns3:hr>
            <ns3:cad>51</ns3:cad>
          </ns3:TrackPointExtension>
        </extensions>
      </trkpt>
      <trkpt lat="45.32160163857042789459228515625" lon="-70.80660740844905376434326171875">
        <ele>870.5999755859375</ele>
        <time>2026-08-21T12:34:31.000Z</time>
        <extensions>
          <ns3:TrackPointExtension>
            <ns3:hr>141</ns3:hr>
            <ns3:cad>51</ns3:cad>
          </ns3:TrackPointExtension>
        </extensions>
      </trkpt>
      <trkpt lat="45.3215953521430492401123046875" lon="-70.80661495216190814971923828125">
        <ele>870.79998779296875</ele>
        <time>2026-08-21T12:34:32.000Z</time>
        <extensions>
          <ns3:TrackPointExtension>
            <ns3:hr>141</ns3:hr>
            <ns3:cad>51</ns3:cad>
          </ns3:TrackPointExtension>
        </extensions>
      </trkpt>
      <trkpt lat="45.32158554531633853912353515625" lon="-70.8066271059215068817138671875">
        <ele>871</ele>
        <time>2026-08-21T12:34:33.000Z</time>
        <extensions>
          <ns3:TrackPointExtension>
            <ns3:hr>140</ns3:hr>
            <ns3:cad>51</ns3:cad>
          </ns3:TrackPointExtension>
        </extensions>
      </trkpt>
      <trkpt lat="45.32157431356608867645263671875" lon="-70.8066388405859470367431640625">
        <ele>871</ele>
        <time>2026-08-21T12:34:34.000Z</time>
        <extensions>
          <ns3:TrackPointExtension>
            <ns3:hr>140</ns3:hr>
            <ns3:cad>51</ns3:cad>
          </ns3:TrackPointExtension>
        </extensions>
      </trkpt>
      <trkpt lat="45.3215660154819488525390625" lon="-70.806644372642040252685546875">
        <ele>871.20001220703125</ele>
        <time>2026-08-21T12:34:35.000Z</time>
        <extensions>
          <ns3:TrackPointExtension>
            <ns3:hr>139</ns3:hr>
            <ns3:cad>49</ns3:cad>
          </ns3:TrackPointExtension>
        </extensions>
      </trkpt>
      <trkpt lat="45.321557633578777313232421875" lon="-70.806641019880771636962890625">
        <ele>871.4000244140625</ele>
        <time>2026-08-21T12:34:36.000Z</time>
        <extensions>
          <ns3:TrackPointExtension>
            <ns3:hr>138</ns3:hr>
            <ns3:cad>49</ns3:cad>
          </ns3:TrackPointExtension>
        </extensions>
      </trkpt>
      <trkpt lat="45.3215487487614154815673828125" lon="-70.8066435344517230987548828125">
        <ele>871.4000244140625</ele>
        <time>2026-08-21T12:34:37.000Z</time>
        <extensions>
          <ns3:TrackPointExtension>
            <ns3:hr>138</ns3:hr>
            <ns3:cad>49</ns3:cad>
          </ns3:TrackPointExtension>
        </extensions>
      </trkpt>
      <trkpt lat="45.32154413871467113494873046875" lon="-70.80664311535656452178955078125">
        <ele>871.4000244140625</ele>
        <time>2026-08-21T12:34:38.000Z</time>
        <extensions>
          <ns3:TrackPointExtension>
            <ns3:hr>138</ns3:hr>
            <ns3:cad>0</ns3:cad>
          </ns3:TrackPointExtension>
        </extensions>
      </trkpt>
      <trkpt lat="45.3215396963059902191162109375" lon="-70.8066485635936260223388671875">
        <ele>871.5999755859375</ele>
        <time>2026-08-21T12:34:39.000Z</time>
        <extensions>
          <ns3:TrackPointExtension>
            <ns3:hr>138</ns3:hr>
            <ns3:cad>0</ns3:cad>
          </ns3:TrackPointExtension>
        </extensions>
      </trkpt>
      <trkpt lat="45.3215316496789455413818359375" lon="-70.806647054851055145263671875">
        <ele>871.79998779296875</ele>
        <time>2026-08-21T12:34:40.000Z</time>
        <extensions>
          <ns3:TrackPointExtension>
            <ns3:hr>137</ns3:hr>
            <ns3:cad>0</ns3:cad>
          </ns3:TrackPointExtension>
        </extensions>
      </trkpt>
      <trkpt lat="45.321529805660247802734375" lon="-70.80664043314754962921142578125">
        <ele>872</ele>
        <time>2026-08-21T12:34:41.000Z</time>
        <extensions>
          <ns3:TrackPointExtension>
            <ns3:hr>137</ns3:hr>
            <ns3:cad>0</ns3:cad>
          </ns3:TrackPointExtension>
        </extensions>
      </trkpt>
      <trkpt lat="45.321521423757076263427734375" lon="-70.80664210952818393707275390625">
        <ele>872.4000244140625</ele>
        <time>2026-08-21T12:34:42.000Z</time>
        <extensions>
          <ns3:TrackPointExtension>
            <ns3:hr>136</ns3:hr>
            <ns3:cad>50</ns3:cad>
          </ns3:TrackPointExtension>
        </extensions>
      </trkpt>
      <trkpt lat="45.3215138800442218780517578125" lon="-70.8066435344517230987548828125">
        <ele>872.5999755859375</ele>
        <time>2026-08-21T12:34:43.000Z</time>
        <extensions>
          <ns3:TrackPointExtension>
            <ns3:hr>136</ns3:hr>
            <ns3:cad>50</ns3:cad>
          </ns3:TrackPointExtension>
        </extensions>
      </trkpt>
      <trkpt lat="45.3215031512081623077392578125" lon="-70.806650407612323760986328125">
        <ele>873</ele>
        <time>2026-08-21T12:34:44.000Z</time>
        <extensions>
          <ns3:TrackPointExtension>
            <ns3:hr>135</ns3:hr>
            <ns3:cad>0</ns3:cad>
          </ns3:TrackPointExtension>
        </extensions>
      </trkpt>
      <trkpt lat="45.3214880637824535369873046875" lon="-70.8066579513251781463623046875">
        <ele>873.20001220703125</ele>
        <time>2026-08-21T12:34:45.000Z</time>
        <extensions>
          <ns3:TrackPointExtension>
            <ns3:hr>135</ns3:hr>
            <ns3:cad>0</ns3:cad>
          </ns3:TrackPointExtension>
        </extensions>
      </trkpt>
      <trkpt lat="45.32147884368896484375" lon="-70.80666105262935161590576171875">
        <ele>873.5999755859375</ele>
        <time>2026-08-21T12:34:46.000Z</time>
        <extensions>
          <ns3:TrackPointExtension>
            <ns3:hr>135</ns3:hr>
            <ns3:cad>0</ns3:cad>
          </ns3:TrackPointExtension>
        </extensions>
      </trkpt>
      <trkpt lat="45.321471802890300750732421875" lon="-70.80666474066674709320068359375">
        <ele>873.79998779296875</ele>
        <time>2026-08-21T12:34:47.000Z</time>
        <extensions>
          <ns3:TrackPointExtension>
            <ns3:hr>135</ns3:hr>
            <ns3:cad>0</ns3:cad>
          </ns3:TrackPointExtension>
        </extensions>
      </trkpt>
      <trkpt lat="45.32146434299647808074951171875" lon="-70.8066706918179988861083984375">
        <ele>874</ele>
        <time>2026-08-21T12:34:48.000Z</time>
        <extensions>
          <ns3:TrackPointExtension>
            <ns3:hr>135</ns3:hr>
            <ns3:cad>0</ns3:cad>
          </ns3:TrackPointExtension>
        </extensions>
      </trkpt>
      <trkpt lat="45.3214585594832897186279296875" lon="-70.80667664296925067901611328125">
        <ele>874.20001220703125</ele>
        <time>2026-08-21T12:34:49.000Z</time>
        <extensions>
          <ns3:TrackPointExtension>
            <ns3:hr>135</ns3:hr>
            <ns3:cad>0</ns3:cad>
          </ns3:TrackPointExtension>
        </extensions>
      </trkpt>
      <trkpt lat="45.32145311124622821807861328125" lon="-70.80667731352150440216064453125">
        <ele>874.4000244140625</ele>
        <time>2026-08-21T12:34:50.000Z</time>
        <extensions>
          <ns3:TrackPointExtension>
            <ns3:hr>135</ns3:hr>
            <ns3:cad>0</ns3:cad>
          </ns3:TrackPointExtension>
        </extensions>
      </trkpt>
      <trkpt lat="45.3214506804943084716796875" lon="-70.80667949281632900238037109375">
        <ele>874.5999755859375</ele>
        <time>2026-08-21T12:34:51.000Z</time>
        <extensions>
          <ns3:TrackPointExtension>
            <ns3:hr>136</ns3:hr>
            <ns3:cad>0</ns3:cad>
          </ns3:TrackPointExtension>
        </extensions>
      </trkpt>
      <trkpt lat="45.32144389115273952484130859375" lon="-70.80667345784604549407958984375">
        <ele>875</ele>
        <time>2026-08-21T12:34:52.000Z</time>
        <extensions>
          <ns3:TrackPointExtension>
            <ns3:hr>136</ns3:hr>
            <ns3:cad>0</ns3:cad>
          </ns3:TrackPointExtension>
        </extensions>
      </trkpt>
      <trkpt lat="45.32143534161150455474853515625" lon="-70.80666809342801570892333984375">
        <ele>875.20001220703125</ele>
        <time>2026-08-21T12:34:53.000Z</time>
        <extensions>
          <ns3:TrackPointExtension>
            <ns3:hr>136</ns3:hr>
            <ns3:cad>0</ns3:cad>
          </ns3:TrackPointExtension>
        </extensions>
      </trkpt>
      <trkpt lat="45.32142880372703075408935546875" lon="-70.8066690154373645782470703125">
        <ele>875.4000244140625</ele>
        <time>2026-08-21T12:34:54.000Z</time>
        <extensions>
          <ns3:TrackPointExtension>
            <ns3:hr>136</ns3:hr>
            <ns3:cad>0</ns3:cad>
          </ns3:TrackPointExtension>
        </extensions>
      </trkpt>
      <trkpt lat="45.32142427749931812286376953125" lon="-70.80667094327509403228759765625">
        <ele>875.5999755859375</ele>
        <time>2026-08-21T12:34:55.000Z</time>
        <extensions>
          <ns3:TrackPointExtension>
            <ns3:hr>136</ns3:hr>
            <ns3:cad>0</ns3:cad>
          </ns3:TrackPointExtension>
        </extensions>
      </trkpt>
      <trkpt lat="45.3214163146913051605224609375" lon="-70.80666893161833286285400390625">
        <ele>875.79998779296875</ele>
        <time>2026-08-21T12:34:56.000Z</time>
        <extensions>
          <ns3:TrackPointExtension>
            <ns3:hr>135</ns3:hr>
            <ns3:cad>47</ns3:cad>
          </ns3:TrackPointExtension>
        </extensions>
      </trkpt>
      <trkpt lat="45.32140499912202358245849609375" lon="-70.80666641704738140106201171875">
        <ele>876</ele>
        <time>2026-08-21T12:34:57.000Z</time>
        <extensions>
          <ns3:TrackPointExtension>
            <ns3:hr>136</ns3:hr>
            <ns3:cad>47</ns3:cad>
          </ns3:TrackPointExtension>
        </extensions>
      </trkpt>
      <trkpt lat="45.32139276154339313507080078125" lon="-70.80666004680097103118896484375">
        <ele>876.20001220703125</ele>
        <time>2026-08-21T12:34:58.000Z</time>
        <extensions>
          <ns3:TrackPointExtension>
            <ns3:hr>137</ns3:hr>
            <ns3:cad>47</ns3:cad>
          </ns3:TrackPointExtension>
        </extensions>
      </trkpt>
      <trkpt lat="45.321391336619853973388671875" lon="-70.80666038207709789276123046875">
        <ele>876.4000244140625</ele>
        <time>2026-08-21T12:34:59.000Z</time>
        <extensions>
          <ns3:TrackPointExtension>
            <ns3:hr>138</ns3:hr>
            <ns3:cad>47</ns3:cad>
          </ns3:TrackPointExtension>
        </extensions>
      </trkpt>
      <trkpt lat="45.3213858045637607574462890625" lon="-70.8066569454967975616455078125">
        <ele>876.5999755859375</ele>
        <time>2026-08-21T12:35:00.000Z</time>
        <extensions>
          <ns3:TrackPointExtension>
            <ns3:hr>140</ns3:hr>
            <ns3:cad>47</ns3:cad>
          </ns3:TrackPointExtension>
        </extensions>
      </trkpt>
      <trkpt lat="45.3213804401457309722900390625" lon="-70.806649066507816314697265625">
        <ele>876.79998779296875</ele>
        <time>2026-08-21T12:35:01.000Z</time>
        <extensions>
          <ns3:TrackPointExtension>
            <ns3:hr>141</ns3:hr>
            <ns3:cad>20</ns3:cad>
          </ns3:TrackPointExtension>
        </extensions>
      </trkpt>
      <trkpt lat="45.32137985341250896453857421875" lon="-70.8066539280116558074951171875">
        <ele>877</ele>
        <time>2026-08-21T12:35:02.000Z</time>
        <extensions>
          <ns3:TrackPointExtension>
            <ns3:hr>142</ns3:hr>
            <ns3:cad>20</ns3:cad>
          </ns3:TrackPointExtension>
        </extensions>
      </trkpt>
      <trkpt lat="45.32138085924088954925537109375" lon="-70.80665116198360919952392578125">
        <ele>877.20001220703125</ele>
        <time>2026-08-21T12:35:03.000Z</time>
        <extensions>
          <ns3:TrackPointExtension>
            <ns3:hr>142</ns3:hr>
            <ns3:cad>20</ns3:cad>
          </ns3:TrackPointExtension>
        </extensions>
      </trkpt>
      <trkpt lat="45.3213794343173503875732421875" lon="-70.8066478930413722991943359375">
        <ele>877.4000244140625</ele>
        <time>2026-08-21T12:35:04.000Z</time>
        <extensions>
          <ns3:TrackPointExtension>
            <ns3:hr>143</ns3:hr>
            <ns3:cad>20</ns3:cad>
          </ns3:TrackPointExtension>
        </extensions>
      </trkpt>
      <trkpt lat="45.3213764168322086334228515625" lon="-70.8066447079181671142578125">
        <ele>877.5999755859375</ele>
        <time>2026-08-21T12:35:05.000Z</time>
        <extensions>
          <ns3:TrackPointExtension>
            <ns3:hr>143</ns3:hr>
            <ns3:cad>20</ns3:cad>
          </ns3:TrackPointExtension>
        </extensions>
      </trkpt>
      <trkpt lat="45.3213730640709400177001953125" lon="-70.80663423053920269012451171875">
        <ele>877.79998779296875</ele>
        <time>2026-08-21T12:35:06.000Z</time>
        <extensions>
          <ns3:TrackPointExtension>
            <ns3:hr>143</ns3:hr>
            <ns3:cad>0</ns3:cad>
          </ns3:TrackPointExtension>
        </extensions>
      </trkpt>
      <trkpt lat="45.32136962749063968658447265625" lon="-70.806630291044712066650390625">
        <ele>878</ele>
        <time>2026-08-21T12:35:07.000Z</time>
        <extensions>
          <ns3:TrackPointExtension>
            <ns3:hr>143</ns3:hr>
            <ns3:cad>0</ns3:cad>
          </ns3:TrackPointExtension>
        </extensions>
      </trkpt>
      <trkpt lat="45.32136644236743450164794921875" lon="-70.80662366934120655059814453125">
        <ele>878.20001220703125</ele>
        <time>2026-08-21T12:35:08.000Z</time>
        <extensions>
          <ns3:TrackPointExtension>
            <ns3:hr>144</ns3:hr>
            <ns3:cad>18</ns3:cad>
          </ns3:TrackPointExtension>
        </extensions>
      </trkpt>
      <trkpt lat="45.32136149704456329345703125" lon="-70.806617550551891326904296875">
        <ele>878.4000244140625</ele>
        <time>2026-08-21T12:35:09.000Z</time>
        <extensions>
          <ns3:TrackPointExtension>
            <ns3:hr>143</ns3:hr>
            <ns3:cad>0</ns3:cad>
          </ns3:TrackPointExtension>
        </extensions>
      </trkpt>
      <trkpt lat="45.32135319896042346954345703125" lon="-70.80660204403102397918701171875">
        <ele>878.79998779296875</ele>
        <time>2026-08-21T12:35:10.000Z</time>
        <extensions>
          <ns3:TrackPointExtension>
            <ns3:hr>143</ns3:hr>
            <ns3:cad>0</ns3:cad>
          </ns3:TrackPointExtension>
        </extensions>
      </trkpt>
      <trkpt lat="45.321346409618854522705078125" lon="-70.80658896826207637786865234375">
        <ele>879</ele>
        <time>2026-08-21T12:35:11.000Z</time>
        <extensions>
          <ns3:TrackPointExtension>
            <ns3:hr>143</ns3:hr>
            <ns3:cad>0</ns3:cad>
          </ns3:TrackPointExtension>
        </extensions>
      </trkpt>
      <trkpt lat="45.32133894972503185272216796875" lon="-70.80658025108277797698974609375">
        <ele>879.4000244140625</ele>
        <time>2026-08-21T12:35:12.000Z</time>
        <extensions>
          <ns3:TrackPointExtension>
            <ns3:hr>143</ns3:hr>
            <ns3:cad>0</ns3:cad>
          </ns3:TrackPointExtension>
        </extensions>
      </trkpt>
      <trkpt lat="45.321332328021526336669921875" lon="-70.8065764792263507843017578125">
        <ele>879.4000244140625</ele>
        <time>2026-08-21T12:35:13.000Z</time>
        <extensions>
          <ns3:TrackPointExtension>
            <ns3:hr>143</ns3:hr>
            <ns3:cad>0</ns3:cad>
          </ns3:TrackPointExtension>
        </extensions>
      </trkpt>
      <trkpt lat="45.32132704742252826690673828125" lon="-70.8065714500844478607177734375">
        <ele>879.5999755859375</ele>
        <time>2026-08-21T12:35:14.000Z</time>
        <extensions>
          <ns3:TrackPointExtension>
            <ns3:hr>143</ns3:hr>
            <ns3:cad>0</ns3:cad>
          </ns3:TrackPointExtension>
        </extensions>
      </trkpt>
      <trkpt lat="45.32132528722286224365234375" lon="-70.8065697737038135528564453125">
        <ele>879.79998779296875</ele>
        <time>2026-08-21T12:35:15.000Z</time>
        <extensions>
          <ns3:TrackPointExtension>
            <ns3:hr>143</ns3:hr>
            <ns3:cad>0</ns3:cad>
          </ns3:TrackPointExtension>
        </extensions>
      </trkpt>
      <trkpt lat="45.32132620923221111297607421875" lon="-70.80656968988478183746337890625">
        <ele>880</ele>
        <time>2026-08-21T12:35:16.000Z</time>
        <extensions>
          <ns3:TrackPointExtension>
            <ns3:hr>143</ns3:hr>
            <ns3:cad>0</ns3:cad>
          </ns3:TrackPointExtension>
        </extensions>
      </trkpt>
      <trkpt lat="45.32132017426192760467529296875" lon="-70.80655393190681934356689453125">
        <ele>880.20001220703125</ele>
        <time>2026-08-21T12:35:17.000Z</time>
        <extensions>
          <ns3:TrackPointExtension>
            <ns3:hr>142</ns3:hr>
            <ns3:cad>0</ns3:cad>
          </ns3:TrackPointExtension>
        </extensions>
      </trkpt>
      <trkpt lat="45.321314893662929534912109375" lon="-70.80654404126107692718505859375">
        <ele>880.4000244140625</ele>
        <time>2026-08-21T12:35:18.000Z</time>
        <extensions>
          <ns3:TrackPointExtension>
            <ns3:hr>142</ns3:hr>
            <ns3:cad>0</ns3:cad>
          </ns3:TrackPointExtension>
        </extensions>
      </trkpt>
      <trkpt lat="45.32131397165358066558837890625" lon="-70.806541778147220611572265625">
        <ele>880.5999755859375</ele>
        <time>2026-08-21T12:35:19.000Z</time>
        <extensions>
          <ns3:TrackPointExtension>
            <ns3:hr>143</ns3:hr>
            <ns3:cad>0</ns3:cad>
          </ns3:TrackPointExtension>
        </extensions>
      </trkpt>
      <trkpt lat="45.32131078653037548065185546875" lon="-70.8065305463969707489013671875">
        <ele>880.79998779296875</ele>
        <time>2026-08-21T12:35:20.000Z</time>
        <extensions>
          <ns3:TrackPointExtension>
            <ns3:hr>143</ns3:hr>
            <ns3:cad>0</ns3:cad>
          </ns3:TrackPointExtension>
        </extensions>
      </trkpt>
      <trkpt lat="45.3213053382933139801025390625" lon="-70.8065144531428813934326171875">
        <ele>881</ele>
        <time>2026-08-21T12:35:21.000Z</time>
        <extensions>
          <ns3:TrackPointExtension>
            <ns3:hr>143</ns3:hr>
            <ns3:cad>0</ns3:cad>
          </ns3:TrackPointExtension>
        </extensions>
      </trkpt>
      <trkpt lat="45.32130106352269649505615234375" lon="-70.80651168711483478546142578125">
        <ele>881.20001220703125</ele>
        <time>2026-08-21T12:35:22.000Z</time>
        <extensions>
          <ns3:TrackPointExtension>
            <ns3:hr>143</ns3:hr>
            <ns3:cad>0</ns3:cad>
          </ns3:TrackPointExtension>
        </extensions>
      </trkpt>
      <trkpt lat="45.32129586674273014068603515625" lon="-70.80651126801967620849609375">
        <ele>881.4000244140625</ele>
        <time>2026-08-21T12:35:23.000Z</time>
        <extensions>
          <ns3:TrackPointExtension>
            <ns3:hr>143</ns3:hr>
            <ns3:cad>46</ns3:cad>
          </ns3:TrackPointExtension>
        </extensions>
      </trkpt>
      <trkpt lat="45.321291424334049224853515625" lon="-70.80650766380131244659423828125">
        <ele>881.5999755859375</ele>
        <time>2026-08-21T12:35:24.000Z</time>
        <extensions>
          <ns3:TrackPointExtension>
            <ns3:hr>143</ns3:hr>
            <ns3:cad>46</ns3:cad>
          </ns3:TrackPointExtension>
        </extensions>
      </trkpt>
      <trkpt lat="45.32128698192536830902099609375" lon="-70.806496851146221160888671875">
        <ele>881.79998779296875</ele>
        <time>2026-08-21T12:35:25.000Z</time>
        <extensions>
          <ns3:TrackPointExtension>
            <ns3:hr>143</ns3:hr>
            <ns3:cad>42</ns3:cad>
          </ns3:TrackPointExtension>
        </extensions>
      </trkpt>
      <trkpt lat="45.3212822042405605316162109375" lon="-70.80649458803236484527587890625">
        <ele>882</ele>
        <time>2026-08-21T12:35:26.000Z</time>
        <extensions>
          <ns3:TrackPointExtension>
            <ns3:hr>143</ns3:hr>
            <ns3:cad>42</ns3:cad>
          </ns3:TrackPointExtension>
        </extensions>
      </trkpt>
      <trkpt lat="45.3212741576135158538818359375" lon="-70.80648318864405155181884765625">
        <ele>882.20001220703125</ele>
        <time>2026-08-21T12:35:27.000Z</time>
        <extensions>
          <ns3:TrackPointExtension>
            <ns3:hr>143</ns3:hr>
            <ns3:cad>42</ns3:cad>
          </ns3:TrackPointExtension>
        </extensions>
      </trkpt>
      <trkpt lat="45.32126401551067829132080078125" lon="-70.806476064026355743408203125">
        <ele>882.4000244140625</ele>
        <time>2026-08-21T12:35:28.000Z</time>
        <extensions>
          <ns3:TrackPointExtension>
            <ns3:hr>143</ns3:hr>
            <ns3:cad>42</ns3:cad>
          </ns3:TrackPointExtension>
        </extensions>
      </trkpt>
      <trkpt lat="45.32125982455909252166748046875" lon="-70.806477405130863189697265625">
        <ele>882.4000244140625</ele>
        <time>2026-08-21T12:35:29.000Z</time>
        <extensions>
          <ns3:TrackPointExtension>
            <ns3:hr>143</ns3:hr>
            <ns3:cad>42</ns3:cad>
          </ns3:TrackPointExtension>
        </extensions>
      </trkpt>
      <trkpt lat="45.321251191198825836181640625" lon="-70.80646994523704051971435546875">
        <ele>882.5999755859375</ele>
        <time>2026-08-21T12:35:30.000Z</time>
        <extensions>
          <ns3:TrackPointExtension>
            <ns3:hr>143</ns3:hr>
            <ns3:cad>0</ns3:cad>
          </ns3:TrackPointExtension>
        </extensions>
      </trkpt>
      <trkpt lat="45.3212372772395610809326171875" lon="-70.8064587973058223724365234375">
        <ele>882.79998779296875</ele>
        <time>2026-08-21T12:35:31.000Z</time>
        <extensions>
          <ns3:TrackPointExtension>
            <ns3:hr>143</ns3:hr>
            <ns3:cad>0</ns3:cad>
          </ns3:TrackPointExtension>
        </extensions>
      </trkpt>
      <trkpt lat="45.32122327946126461029052734375" lon="-70.80645116977393627166748046875">
        <ele>882.79998779296875</ele>
        <time>2026-08-21T12:35:32.000Z</time>
        <extensions>
          <ns3:TrackPointExtension>
            <ns3:hr>144</ns3:hr>
            <ns3:cad>0</ns3:cad>
          </ns3:TrackPointExtension>
        </extensions>
      </trkpt>
      <trkpt lat="45.32121288590133190155029296875" lon="-70.80644748173654079437255859375">
        <ele>882.79998779296875</ele>
        <time>2026-08-21T12:35:33.000Z</time>
        <extensions>
          <ns3:TrackPointExtension>
            <ns3:hr>144</ns3:hr>
            <ns3:cad>0</ns3:cad>
          </ns3:TrackPointExtension>
        </extensions>
      </trkpt>
      <trkpt lat="45.32119729556143283843994140625" lon="-70.8064460568130016326904296875">
        <ele>882.79998779296875</ele>
        <time>2026-08-21T12:35:34.000Z</time>
        <extensions>
          <ns3:TrackPointExtension>
            <ns3:hr>144</ns3:hr>
            <ns3:cad>0</ns3:cad>
          </ns3:TrackPointExtension>
        </extensions>
      </trkpt>
      <trkpt lat="45.3211806155741214752197265625" lon="-70.806447230279445648193359375">
        <ele>882.79998779296875</ele>
        <time>2026-08-21T12:35:35.000Z</time>
        <extensions>
          <ns3:TrackPointExtension>
            <ns3:hr>144</ns3:hr>
            <ns3:cad>0</ns3:cad>
          </ns3:TrackPointExtension>
        </extensions>
      </trkpt>
      <trkpt lat="45.32116510905325412750244140625" lon="-70.80644957721233367919921875">
        <ele>883</ele>
        <time>2026-08-21T12:35:36.000Z</time>
        <extensions>
          <ns3:TrackPointExtension>
            <ns3:hr>144</ns3:hr>
            <ns3:cad>0</ns3:cad>
          </ns3:TrackPointExtension>
        </extensions>
      </trkpt>
      <trkpt lat="45.32114733941853046417236328125" lon="-70.80646005459129810333251953125">
        <ele>883</ele>
        <time>2026-08-21T12:35:37.000Z</time>
        <extensions>
          <ns3:TrackPointExtension>
            <ns3:hr>145</ns3:hr>
            <ns3:cad>0</ns3:cad>
          </ns3:TrackPointExtension>
        </extensions>
      </trkpt>
      <trkpt lat="45.32113795168697834014892578125" lon="-70.80647346563637256622314453125">
        <ele>883</ele>
        <time>2026-08-21T12:35:38.000Z</time>
        <extensions>
          <ns3:TrackPointExtension>
            <ns3:hr>144</ns3:hr>
            <ns3:cad>50</ns3:cad>
          </ns3:TrackPointExtension>
        </extensions>
      </trkpt>
      <trkpt lat="45.3211353532969951629638671875" lon="-70.80649073235690593719482421875">
        <ele>883</ele>
        <time>2026-08-21T12:35:39.000Z</time>
        <extensions>
          <ns3:TrackPointExtension>
            <ns3:hr>144</ns3:hr>
            <ns3:cad>50</ns3:cad>
          </ns3:TrackPointExtension>
        </extensions>
      </trkpt>
      <trkpt lat="45.3211366944015026092529296875" lon="-70.806508921086788177490234375">
        <ele>883</ele>
        <time>2026-08-21T12:35:40.000Z</time>
        <extensions>
          <ns3:TrackPointExtension>
            <ns3:hr>145</ns3:hr>
            <ns3:cad>50</ns3:cad>
          </ns3:TrackPointExtension>
        </extensions>
      </trkpt>
      <trkpt lat="45.32113459892570972442626953125" lon="-70.8065261878073215484619140625">
        <ele>882.79998779296875</ele>
        <time>2026-08-21T12:35:41.000Z</time>
        <extensions>
          <ns3:TrackPointExtension>
            <ns3:hr>145</ns3:hr>
            <ns3:cad>50</ns3:cad>
          </ns3:TrackPointExtension>
        </extensions>
      </trkpt>
      <trkpt lat="45.3211323358118534088134765625" lon="-70.80654437653720378875732421875">
        <ele>882.79998779296875</ele>
        <time>2026-08-21T12:35:42.000Z</time>
        <extensions>
          <ns3:TrackPointExtension>
            <ns3:hr>145</ns3:hr>
            <ns3:cad>53</ns3:cad>
          </ns3:TrackPointExtension>
        </extensions>
      </trkpt>
      <trkpt lat="45.32113350927829742431640625" lon="-70.80657606013119220733642578125">
        <ele>882.5999755859375</ele>
        <time>2026-08-21T12:35:43.000Z</time>
        <extensions>
          <ns3:TrackPointExtension>
            <ns3:hr>144</ns3:hr>
            <ns3:cad>53</ns3:cad>
          </ns3:TrackPointExtension>
        </extensions>
      </trkpt>
      <trkpt lat="45.32113350927829742431640625" lon="-70.8065999485552310943603515625">
        <ele>882.4000244140625</ele>
        <time>2026-08-21T12:35:44.000Z</time>
        <extensions>
          <ns3:TrackPointExtension>
            <ns3:hr>144</ns3:hr>
            <ns3:cad>68</ns3:cad>
          </ns3:TrackPointExtension>
        </extensions>
      </trkpt>
      <trkpt lat="45.32113091088831424713134765625" lon="-70.80662685446441173553466796875">
        <ele>882.20001220703125</ele>
        <time>2026-08-21T12:35:45.000Z</time>
        <extensions>
          <ns3:TrackPointExtension>
            <ns3:hr>143</ns3:hr>
            <ns3:cad>68</ns3:cad>
          </ns3:TrackPointExtension>
        </extensions>
      </trkpt>
      <trkpt lat="45.3211229480803012847900390625" lon="-70.80664780922234058380126953125">
        <ele>882</ele>
        <time>2026-08-21T12:35:46.000Z</time>
        <extensions>
          <ns3:TrackPointExtension>
            <ns3:hr>144</ns3:hr>
            <ns3:cad>68</ns3:cad>
          </ns3:TrackPointExtension>
        </extensions>
      </trkpt>
      <trkpt lat="45.3211095370352268218994140625" lon="-70.806672871112823486328125">
        <ele>882</ele>
        <time>2026-08-21T12:35:47.000Z</time>
        <extensions>
          <ns3:TrackPointExtension>
            <ns3:hr>144</ns3:hr>
            <ns3:cad>68</ns3:cad>
          </ns3:TrackPointExtension>
        </extensions>
      </trkpt>
      <trkpt lat="45.3210984729230403900146484375" lon="-70.806692652404308319091796875">
        <ele>881.79998779296875</ele>
        <time>2026-08-21T12:35:48.000Z</time>
        <extensions>
          <ns3:TrackPointExtension>
            <ns3:hr>144</ns3:hr>
            <ns3:cad>68</ns3:cad>
          </ns3:TrackPointExtension>
        </extensions>
      </trkpt>
      <trkpt lat="45.32109134830534458160400390625" lon="-70.8067122660577297210693359375">
        <ele>881.79998779296875</ele>
        <time>2026-08-21T12:35:49.000Z</time>
        <extensions>
          <ns3:TrackPointExtension>
            <ns3:hr>144</ns3:hr>
            <ns3:cad>66</ns3:cad>
          </ns3:TrackPointExtension>
        </extensions>
      </trkpt>
      <trkpt lat="45.32109051011502742767333984375" lon="-70.80673648975789546966552734375">
        <ele>881.5999755859375</ele>
        <time>2026-08-21T12:35:50.000Z</time>
        <extensions>
          <ns3:TrackPointExtension>
            <ns3:hr>144</ns3:hr>
            <ns3:cad>66</ns3:cad>
          </ns3:TrackPointExtension>
        </extensions>
      </trkpt>
      <trkpt lat="45.321091599762439727783203125" lon="-70.80676230601966381072998046875">
        <ele>881.5999755859375</ele>
        <time>2026-08-21T12:35:51.000Z</time>
        <extensions>
          <ns3:TrackPointExtension>
            <ns3:hr>143</ns3:hr>
            <ns3:cad>66</ns3:cad>
          </ns3:TrackPointExtension>
        </extensions>
      </trkpt>
      <trkpt lat="45.32108916901051998138427734375" lon="-70.80678259022533893585205078125">
        <ele>881.4000244140625</ele>
        <time>2026-08-21T12:35:52.000Z</time>
        <extensions>
          <ns3:TrackPointExtension>
            <ns3:hr>143</ns3:hr>
            <ns3:cad>65</ns3:cad>
          </ns3:TrackPointExtension>
        </extensions>
      </trkpt>
      <trkpt lat="45.3210870735347270965576171875" lon="-70.80679767765104770660400390625">
        <ele>881.20001220703125</ele>
        <time>2026-08-21T12:35:53.000Z</time>
        <extensions>
          <ns3:TrackPointExtension>
            <ns3:hr>143</ns3:hr>
            <ns3:cad>65</ns3:cad>
          </ns3:TrackPointExtension>
        </extensions>
      </trkpt>
      <trkpt lat="45.32108229584991931915283203125" lon="-70.8068081550300121307373046875">
        <ele>880.79998779296875</ele>
        <time>2026-08-21T12:35:54.000Z</time>
        <extensions>
          <ns3:TrackPointExtension>
            <ns3:hr>142</ns3:hr>
            <ns3:cad>65</ns3:cad>
          </ns3:TrackPointExtension>
        </extensions>
      </trkpt>
      <trkpt lat="45.3210743330419063568115234375" lon="-70.80682248808443546295166015625">
        <ele>880.5999755859375</ele>
        <time>2026-08-21T12:35:55.000Z</time>
        <extensions>
          <ns3:TrackPointExtension>
            <ns3:hr>142</ns3:hr>
            <ns3:cad>65</ns3:cad>
          </ns3:TrackPointExtension>
        </extensions>
      </trkpt>
      <trkpt lat="45.321070142090320587158203125" lon="-70.80684813670814037322998046875">
        <ele>880.5999755859375</ele>
        <time>2026-08-21T12:35:56.000Z</time>
        <extensions>
          <ns3:TrackPointExtension>
            <ns3:hr>141</ns3:hr>
            <ns3:cad>64</ns3:cad>
          </ns3:TrackPointExtension>
        </extensions>
      </trkpt>
      <trkpt lat="45.32106687314808368682861328125" lon="-70.80686221830546855926513671875">
        <ele>880.4000244140625</ele>
        <time>2026-08-21T12:35:57.000Z</time>
        <extensions>
          <ns3:TrackPointExtension>
            <ns3:hr>140</ns3:hr>
            <ns3:cad>64</ns3:cad>
          </ns3:TrackPointExtension>
        </extensions>
      </trkpt>
      <trkpt lat="45.32106234692037105560302734375" lon="-70.806883089244365692138671875">
        <ele>880.4000244140625</ele>
        <time>2026-08-21T12:35:58.000Z</time>
        <extensions>
          <ns3:TrackPointExtension>
            <ns3:hr>139</ns3:hr>
            <ns3:cad>64</ns3:cad>
          </ns3:TrackPointExtension>
        </extensions>
      </trkpt>
      <trkpt lat="45.32105949707329273223876953125" lon="-70.8069080673158168792724609375">
        <ele>880.20001220703125</ele>
        <time>2026-08-21T12:35:59.000Z</time>
        <extensions>
          <ns3:TrackPointExtension>
            <ns3:hr>138</ns3:hr>
            <ns3:cad>54</ns3:cad>
          </ns3:TrackPointExtension>
        </extensions>
      </trkpt>
      <trkpt lat="45.321064777672290802001953125" lon="-70.80692927353084087371826171875">
        <ele>880</ele>
        <time>2026-08-21T12:36:00.000Z</time>
        <extensions>
          <ns3:TrackPointExtension>
            <ns3:hr>137</ns3:hr>
            <ns3:cad>54</ns3:cad>
          </ns3:TrackPointExtension>
        </extensions>
      </trkpt>
      <trkpt lat="45.32107290811836719512939453125" lon="-70.80695173703134059906005859375">
        <ele>880</ele>
        <time>2026-08-21T12:36:01.000Z</time>
        <extensions>
          <ns3:TrackPointExtension>
            <ns3:hr>136</ns3:hr>
            <ns3:cad>54</ns3:cad>
          </ns3:TrackPointExtension>
        </extensions>
      </trkpt>
      <trkpt lat="45.32107844017446041107177734375" lon="-70.806964226067066192626953125">
        <ele>879.79998779296875</ele>
        <time>2026-08-21T12:36:02.000Z</time>
        <extensions>
          <ns3:TrackPointExtension>
            <ns3:hr>135</ns3:hr>
            <ns3:cad>54</ns3:cad>
          </ns3:TrackPointExtension>
        </extensions>
      </trkpt>
      <trkpt lat="45.3210827149450778961181640625" lon="-70.80698275007307529449462890625">
        <ele>879.5999755859375</ele>
        <time>2026-08-21T12:36:03.000Z</time>
        <extensions>
          <ns3:TrackPointExtension>
            <ns3:hr>135</ns3:hr>
            <ns3:cad>54</ns3:cad>
          </ns3:TrackPointExtension>
        </extensions>
      </trkpt>
      <trkpt lat="45.3210890851914882659912109375" lon="-70.8070002682507038116455078125">
        <ele>879.4000244140625</ele>
        <time>2026-08-21T12:36:04.000Z</time>
        <extensions>
          <ns3:TrackPointExtension>
            <ns3:hr>135</ns3:hr>
            <ns3:cad>54</ns3:cad>
          </ns3:TrackPointExtension>
        </extensions>
      </trkpt>
      <trkpt lat="45.321096293628215789794921875" lon="-70.80701828934252262115478515625">
        <ele>879.20001220703125</ele>
        <time>2026-08-21T12:36:05.000Z</time>
        <extensions>
          <ns3:TrackPointExtension>
            <ns3:hr>135</ns3:hr>
            <ns3:cad>54</ns3:cad>
          </ns3:TrackPointExtension>
        </extensions>
      </trkpt>
      <trkpt lat="45.3211055137217044830322265625" lon="-70.80703773535788059234619140625">
        <ele>879</ele>
        <time>2026-08-21T12:36:06.000Z</time>
        <extensions>
          <ns3:TrackPointExtension>
            <ns3:hr>134</ns3:hr>
            <ns3:cad>0</ns3:cad>
          </ns3:TrackPointExtension>
        </extensions>
      </trkpt>
      <trkpt lat="45.32110978849232196807861328125" lon="-70.80705533735454082489013671875">
        <ele>878.5999755859375</ele>
        <time>2026-08-21T12:36:07.000Z</time>
        <extensions>
          <ns3:TrackPointExtension>
            <ns3:hr>134</ns3:hr>
            <ns3:cad>0</ns3:cad>
          </ns3:TrackPointExtension>
        </extensions>
      </trkpt>
      <trkpt lat="45.3211152367293834686279296875" lon="-70.80706941895186901092529296875">
        <ele>878.4000244140625</ele>
        <time>2026-08-21T12:36:08.000Z</time>
        <extensions>
          <ns3:TrackPointExtension>
            <ns3:hr>134</ns3:hr>
            <ns3:cad>0</ns3:cad>
          </ns3:TrackPointExtension>
        </extensions>
      </trkpt>
      <trkpt lat="45.32112319953739643096923828125" lon="-70.80708316527307033538818359375">
        <ele>878.20001220703125</ele>
        <time>2026-08-21T12:36:09.000Z</time>
        <extensions>
          <ns3:TrackPointExtension>
            <ns3:hr>133</ns3:hr>
            <ns3:cad>0</ns3:cad>
          </ns3:TrackPointExtension>
        </extensions>
      </trkpt>
      <trkpt lat="45.321128480136394500732421875" lon="-70.80709925852715969085693359375">
        <ele>878</ele>
        <time>2026-08-21T12:36:10.000Z</time>
        <extensions>
          <ns3:TrackPointExtension>
            <ns3:hr>133</ns3:hr>
            <ns3:cad>0</ns3:cad>
          </ns3:TrackPointExtension>
        </extensions>
      </trkpt>
      <trkpt lat="45.32113409601151943206787109375" lon="-70.80711342394351959228515625">
        <ele>877.79998779296875</ele>
        <time>2026-08-21T12:36:11.000Z</time>
        <extensions>
          <ns3:TrackPointExtension>
            <ns3:hr>133</ns3:hr>
            <ns3:cad>61</ns3:cad>
          </ns3:TrackPointExtension>
        </extensions>
      </trkpt>
      <trkpt lat="45.32114096917212009429931640625" lon="-70.8071248233318328857421875">
        <ele>877.5999755859375</ele>
        <time>2026-08-21T12:36:12.000Z</time>
        <extensions>
          <ns3:TrackPointExtension>
            <ns3:hr>133</ns3:hr>
            <ns3:cad>61</ns3:cad>
          </ns3:TrackPointExtension>
        </extensions>
      </trkpt>
      <trkpt lat="45.3211474232375621795654296875" lon="-70.807138569653034210205078125">
        <ele>877.4000244140625</ele>
        <time>2026-08-21T12:36:13.000Z</time>
        <extensions>
          <ns3:TrackPointExtension>
            <ns3:hr>133</ns3:hr>
            <ns3:cad>61</ns3:cad>
          </ns3:TrackPointExtension>
        </extensions>
      </trkpt>
      <trkpt lat="45.3211487643420696258544921875" lon="-70.8071623742580413818359375">
        <ele>877.20001220703125</ele>
        <time>2026-08-21T12:36:14.000Z</time>
        <extensions>
          <ns3:TrackPointExtension>
            <ns3:hr>133</ns3:hr>
            <ns3:cad>61</ns3:cad>
          </ns3:TrackPointExtension>
        </extensions>
      </trkpt>
      <trkpt lat="45.32115471549332141876220703125" lon="-70.8071883581578731536865234375">
        <ele>877</ele>
        <time>2026-08-21T12:36:15.000Z</time>
        <extensions>
          <ns3:TrackPointExtension>
            <ns3:hr>132</ns3:hr>
            <ns3:cad>61</ns3:cad>
          </ns3:TrackPointExtension>
        </extensions>
      </trkpt>
      <trkpt lat="45.32116343267261981964111328125" lon="-70.80720906145870685577392578125">
        <ele>876.5999755859375</ele>
        <time>2026-08-21T12:36:16.000Z</time>
        <extensions>
          <ns3:TrackPointExtension>
            <ns3:hr>132</ns3:hr>
            <ns3:cad>61</ns3:cad>
          </ns3:TrackPointExtension>
        </extensions>
      </trkpt>
      <trkpt lat="45.3211655281484127044677734375" lon="-70.807223729789257049560546875">
        <ele>876.4000244140625</ele>
        <time>2026-08-21T12:36:17.000Z</time>
        <extensions>
          <ns3:TrackPointExtension>
            <ns3:hr>132</ns3:hr>
            <ns3:cad>61</ns3:cad>
          </ns3:TrackPointExtension>
        </extensions>
      </trkpt>
      <trkpt lat="45.32116569578647613525390625" lon="-70.8072396554052829742431640625">
        <ele>876.20001220703125</ele>
        <time>2026-08-21T12:36:18.000Z</time>
        <extensions>
          <ns3:TrackPointExtension>
            <ns3:hr>131</ns3:hr>
            <ns3:cad>62</ns3:cad>
          </ns3:TrackPointExtension>
        </extensions>
      </trkpt>
      <trkpt lat="45.32117164693772792816162109375" lon="-70.80726169981062412261962890625">
        <ele>876</ele>
        <time>2026-08-21T12:36:19.000Z</time>
        <extensions>
          <ns3:TrackPointExtension>
            <ns3:hr>131</ns3:hr>
            <ns3:cad>62</ns3:cad>
          </ns3:TrackPointExtension>
        </extensions>
      </trkpt>
      <trkpt lat="45.3211769275367259979248046875" lon="-70.8072829060256481170654296875">
        <ele>875.79998779296875</ele>
        <time>2026-08-21T12:36:20.000Z</time>
        <extensions>
          <ns3:TrackPointExtension>
            <ns3:hr>130</ns3:hr>
            <ns3:cad>62</ns3:cad>
          </ns3:TrackPointExtension>
        </extensions>
      </trkpt>
      <trkpt lat="45.32118187285959720611572265625" lon="-70.8072963170707225799560546875">
        <ele>875.5999755859375</ele>
        <time>2026-08-21T12:36:21.000Z</time>
        <extensions>
          <ns3:TrackPointExtension>
            <ns3:hr>130</ns3:hr>
            <ns3:cad>62</ns3:cad>
          </ns3:TrackPointExtension>
        </extensions>
      </trkpt>
      <trkpt lat="45.321186818182468414306640625" lon="-70.80731056630611419677734375">
        <ele>875.4000244140625</ele>
        <time>2026-08-21T12:36:22.000Z</time>
        <extensions>
          <ns3:TrackPointExtension>
            <ns3:hr>129</ns3:hr>
            <ns3:cad>62</ns3:cad>
          </ns3:TrackPointExtension>
        </extensions>
      </trkpt>
      <trkpt lat="45.32119394280016422271728515625" lon="-70.807320959866046905517578125">
        <ele>875.20001220703125</ele>
        <time>2026-08-21T12:36:23.000Z</time>
        <extensions>
          <ns3:TrackPointExtension>
            <ns3:hr>129</ns3:hr>
            <ns3:cad>0</ns3:cad>
          </ns3:TrackPointExtension>
        </extensions>
      </trkpt>
      <trkpt lat="45.321198888123035430908203125" lon="-70.8073221333324909210205078125">
        <ele>875</ele>
        <time>2026-08-21T12:36:24.000Z</time>
        <extensions>
          <ns3:TrackPointExtension>
            <ns3:hr>127</ns3:hr>
            <ns3:cad>0</ns3:cad>
          </ns3:TrackPointExtension>
        </extensions>
      </trkpt>
      <trkpt lat="45.3212012350559234619140625" lon="-70.8073254860937595367431640625">
        <ele>874.79998779296875</ele>
        <time>2026-08-21T12:36:25.000Z</time>
        <extensions>
          <ns3:TrackPointExtension>
            <ns3:hr>124</ns3:hr>
            <ns3:cad>0</ns3:cad>
          </ns3:TrackPointExtension>
        </extensions>
      </trkpt>
      <trkpt lat="45.32120081596076488494873046875" lon="-70.80733479000627994537353515625">
        <ele>874.5999755859375</ele>
        <time>2026-08-21T12:36:26.000Z</time>
        <extensions>
          <ns3:TrackPointExtension>
            <ns3:hr>123</ns3:hr>
            <ns3:cad>0</ns3:cad>
          </ns3:TrackPointExtension>
        </extensions>
      </trkpt>
      <trkpt lat="45.321204923093318939208984375" lon="-70.8073472790420055389404296875">
        <ele>874.4000244140625</ele>
        <time>2026-08-21T12:36:27.000Z</time>
        <extensions>
          <ns3:TrackPointExtension>
            <ns3:hr>123</ns3:hr>
            <ns3:cad>0</ns3:cad>
          </ns3:TrackPointExtension>
        </extensions>
      </trkpt>
      <trkpt lat="45.3212119638919830322265625" lon="-70.80735490657389163970947265625">
        <ele>874.4000244140625</ele>
        <time>2026-08-21T12:36:28.000Z</time>
        <extensions>
          <ns3:TrackPointExtension>
            <ns3:hr>122</ns3:hr>
            <ns3:cad>0</ns3:cad>
          </ns3:TrackPointExtension>
        </extensions>
      </trkpt>
      <trkpt lat="45.32121757976710796356201171875" lon="-70.80736848525702953338623046875">
        <ele>874.20001220703125</ele>
        <time>2026-08-21T12:36:29.000Z</time>
        <extensions>
          <ns3:TrackPointExtension>
            <ns3:hr>122</ns3:hr>
            <ns3:cad>0</ns3:cad>
          </ns3:TrackPointExtension>
        </extensions>
      </trkpt>
      <trkpt lat="45.32122529111802577972412109375" lon="-70.80738642252981662750244140625">
        <ele>874.20001220703125</ele>
        <time>2026-08-21T12:36:30.000Z</time>
        <extensions>
          <ns3:TrackPointExtension>
            <ns3:hr>122</ns3:hr>
            <ns3:cad>0</ns3:cad>
          </ns3:TrackPointExtension>
        </extensions>
      </trkpt>
      <trkpt lat="45.32122981734573841094970703125" lon="-70.8073955588042736053466796875">
        <ele>874</ele>
        <time>2026-08-21T12:36:31.000Z</time>
        <extensions>
          <ns3:TrackPointExtension>
            <ns3:hr>122</ns3:hr>
            <ns3:cad>0</ns3:cad>
          </ns3:TrackPointExtension>
        </extensions>
      </trkpt>
      <trkpt lat="45.32123819924890995025634765625" lon="-70.80741324461996555328369140625">
        <ele>873.5999755859375</ele>
        <time>2026-08-21T12:36:32.000Z</time>
        <extensions>
          <ns3:TrackPointExtension>
            <ns3:hr>123</ns3:hr>
            <ns3:cad>0</ns3:cad>
          </ns3:TrackPointExtension>
        </extensions>
      </trkpt>
      <trkpt lat="45.32124155201017856597900390625" lon="-70.80743755213916301727294921875">
        <ele>873.4000244140625</ele>
        <time>2026-08-21T12:36:33.000Z</time>
        <extensions>
          <ns3:TrackPointExtension>
            <ns3:hr>123</ns3:hr>
            <ns3:cad>0</ns3:cad>
          </ns3:TrackPointExtension>
        </extensions>
      </trkpt>
      <trkpt lat="45.321242809295654296875" lon="-70.80745465122163295745849609375">
        <ele>873</ele>
        <time>2026-08-21T12:36:34.000Z</time>
        <extensions>
          <ns3:TrackPointExtension>
            <ns3:hr>123</ns3:hr>
            <ns3:cad>0</ns3:cad>
          </ns3:TrackPointExtension>
        </extensions>
      </trkpt>
      <trkpt lat="45.3212466649711132049560546875" lon="-70.80746655352413654327392578125">
        <ele>872.79998779296875</ele>
        <time>2026-08-21T12:36:35.000Z</time>
        <extensions>
          <ns3:TrackPointExtension>
            <ns3:hr>123</ns3:hr>
            <ns3:cad>0</ns3:cad>
          </ns3:TrackPointExtension>
        </extensions>
      </trkpt>
      <trkpt lat="45.32124691642820835113525390625" lon="-70.80747686326503753662109375">
        <ele>872.4000244140625</ele>
        <time>2026-08-21T12:36:36.000Z</time>
        <extensions>
          <ns3:TrackPointExtension>
            <ns3:hr>123</ns3:hr>
            <ns3:cad>0</ns3:cad>
          </ns3:TrackPointExtension>
        </extensions>
      </trkpt>
      <trkpt lat="45.3212426416575908660888671875" lon="-70.8074931241571903228759765625">
        <ele>872.20001220703125</ele>
        <time>2026-08-21T12:36:37.000Z</time>
        <extensions>
          <ns3:TrackPointExtension>
            <ns3:hr>123</ns3:hr>
            <ns3:cad>0</ns3:cad>
          </ns3:TrackPointExtension>
        </extensions>
      </trkpt>
      <trkpt lat="45.32124691642820835113525390625" lon="-70.807497985661029815673828125">
        <ele>872</ele>
        <time>2026-08-21T12:36:38.000Z</time>
        <extensions>
          <ns3:TrackPointExtension>
            <ns3:hr>122</ns3:hr>
            <ns3:cad>0</ns3:cad>
          </ns3:TrackPointExtension>
        </extensions>
      </trkpt>
      <trkpt lat="45.32124490477144718170166015625" lon="-70.80750611610710620880126953125">
        <ele>871.79998779296875</ele>
        <time>2026-08-21T12:36:39.000Z</time>
        <extensions>
          <ns3:TrackPointExtension>
            <ns3:hr>122</ns3:hr>
            <ns3:cad>0</ns3:cad>
          </ns3:TrackPointExtension>
        </extensions>
      </trkpt>
      <trkpt lat="45.32123752869665622711181640625" lon="-70.80751382745802402496337890625">
        <ele>871.5999755859375</ele>
        <time>2026-08-21T12:36:40.000Z</time>
        <extensions>
          <ns3:TrackPointExtension>
            <ns3:hr>122</ns3:hr>
            <ns3:cad>0</ns3:cad>
          </ns3:TrackPointExtension>
        </extensions>
      </trkpt>
      <trkpt lat="45.32123635523021221160888671875" lon="-70.8075182698667049407958984375">
        <ele>871.5999755859375</ele>
        <time>2026-08-21T12:36:41.000Z</time>
        <extensions>
          <ns3:TrackPointExtension>
            <ns3:hr>123</ns3:hr>
            <ns3:cad>0</ns3:cad>
          </ns3:TrackPointExtension>
        </extensions>
      </trkpt>
      <trkpt lat="45.32122747041285037994384765625" lon="-70.80752908252179622650146484375">
        <ele>871.5999755859375</ele>
        <time>2026-08-21T12:36:42.000Z</time>
        <extensions>
          <ns3:TrackPointExtension>
            <ns3:hr>122</ns3:hr>
            <ns3:cad>0</ns3:cad>
          </ns3:TrackPointExtension>
        </extensions>
      </trkpt>
      <trkpt lat="45.32122143544256687164306640625" lon="-70.80753746442496776580810546875">
        <ele>871.4000244140625</ele>
        <time>2026-08-21T12:36:43.000Z</time>
        <extensions>
          <ns3:TrackPointExtension>
            <ns3:hr>122</ns3:hr>
            <ns3:cad>0</ns3:cad>
          </ns3:TrackPointExtension>
        </extensions>
      </trkpt>
      <trkpt lat="45.32121992669999599456787109375" lon="-70.80754048191010951995849609375">
        <ele>871.4000244140625</ele>
        <time>2026-08-21T12:36:44.000Z</time>
        <extensions>
          <ns3:TrackPointExtension>
            <ns3:hr>122</ns3:hr>
            <ns3:cad>0</ns3:cad>
          </ns3:TrackPointExtension>
        </extensions>
      </trkpt>
      <trkpt lat="45.32121154479682445526123046875" lon="-70.807544924318790435791015625">
        <ele>871.4000244140625</ele>
        <time>2026-08-21T12:36:45.000Z</time>
        <extensions>
          <ns3:TrackPointExtension>
            <ns3:hr>122</ns3:hr>
            <ns3:cad>0</ns3:cad>
          </ns3:TrackPointExtension>
        </extensions>
      </trkpt>
      <trkpt lat="45.3211997263133525848388671875" lon="-70.80755255185067653656005859375">
        <ele>871.5999755859375</ele>
        <time>2026-08-21T12:36:46.000Z</time>
        <extensions>
          <ns3:TrackPointExtension>
            <ns3:hr>121</ns3:hr>
            <ns3:cad>0</ns3:cad>
          </ns3:TrackPointExtension>
        </extensions>
      </trkpt>
      <trkpt lat="45.32119444571435451507568359375" lon="-70.8075588382780551910400390625">
        <ele>871.79998779296875</ele>
        <time>2026-08-21T12:36:47.000Z</time>
        <extensions>
          <ns3:TrackPointExtension>
            <ns3:hr>121</ns3:hr>
            <ns3:cad>0</ns3:cad>
          </ns3:TrackPointExtension>
        </extensions>
      </trkpt>
      <trkpt lat="45.32119260169565677642822265625" lon="-70.807564370334148406982421875">
        <ele>872</ele>
        <time>2026-08-21T12:36:48.000Z</time>
        <extensions>
          <ns3:TrackPointExtension>
            <ns3:hr>121</ns3:hr>
            <ns3:cad>0</ns3:cad>
          </ns3:TrackPointExtension>
        </extensions>
      </trkpt>
      <trkpt lat="45.3211836330592632293701171875" lon="-70.8075739257037639617919921875">
        <ele>872.20001220703125</ele>
        <time>2026-08-21T12:36:49.000Z</time>
        <extensions>
          <ns3:TrackPointExtension>
            <ns3:hr>121</ns3:hr>
            <ns3:cad>0</ns3:cad>
          </ns3:TrackPointExtension>
        </extensions>
      </trkpt>
      <trkpt lat="45.32117650844156742095947265625" lon="-70.8075816370546817779541015625">
        <ele>872.4000244140625</ele>
        <time>2026-08-21T12:36:50.000Z</time>
        <extensions>
          <ns3:TrackPointExtension>
            <ns3:hr>121</ns3:hr>
            <ns3:cad>0</ns3:cad>
          </ns3:TrackPointExtension>
        </extensions>
      </trkpt>
      <trkpt lat="45.32117030583322048187255859375" lon="-70.80758993513882160186767578125">
        <ele>872.5999755859375</ele>
        <time>2026-08-21T12:36:51.000Z</time>
        <extensions>
          <ns3:TrackPointExtension>
            <ns3:hr>120</ns3:hr>
            <ns3:cad>0</ns3:cad>
          </ns3:TrackPointExtension>
        </extensions>
      </trkpt>
      <trkpt lat="45.32116703689098358154296875" lon="-70.807595215737819671630859375">
        <ele>872.5999755859375</ele>
        <time>2026-08-21T12:36:52.000Z</time>
        <extensions>
          <ns3:TrackPointExtension>
            <ns3:hr>120</ns3:hr>
            <ns3:cad>0</ns3:cad>
          </ns3:TrackPointExtension>
        </extensions>
      </trkpt>
      <trkpt lat="45.3211594931781291961669921875" lon="-70.80759731121361255645751953125">
        <ele>872.79998779296875</ele>
        <time>2026-08-21T12:36:53.000Z</time>
        <extensions>
          <ns3:TrackPointExtension>
            <ns3:hr>119</ns3:hr>
            <ns3:cad>0</ns3:cad>
          </ns3:TrackPointExtension>
        </extensions>
      </trkpt>
      <trkpt lat="45.32115094363689422607421875" lon="-70.80759932287037372589111328125">
        <ele>873</ele>
        <time>2026-08-21T12:36:54.000Z</time>
        <extensions>
          <ns3:TrackPointExtension>
            <ns3:hr>119</ns3:hr>
            <ns3:cad>0</ns3:cad>
          </ns3:TrackPointExtension>
        </extensions>
      </trkpt>
      <trkpt lat="45.3211462497711181640625" lon="-70.80760099925100803375244140625">
        <ele>873.20001220703125</ele>
        <time>2026-08-21T12:36:55.000Z</time>
        <extensions>
          <ns3:TrackPointExtension>
            <ns3:hr>119</ns3:hr>
            <ns3:cad>0</ns3:cad>
          </ns3:TrackPointExtension>
        </extensions>
      </trkpt>
      <trkpt lat="45.3211454115808010101318359375" lon="-70.8075967244803905487060546875">
        <ele>873.4000244140625</ele>
        <time>2026-08-21T12:36:56.000Z</time>
        <extensions>
          <ns3:TrackPointExtension>
            <ns3:hr>120</ns3:hr>
            <ns3:cad>0</ns3:cad>
          </ns3:TrackPointExtension>
        </extensions>
      </trkpt>
      <trkpt lat="45.32113485038280487060546875" lon="-70.80758272670209407806396484375">
        <ele>873.5999755859375</ele>
        <time>2026-08-21T12:36:57.000Z</time>
        <extensions>
          <ns3:TrackPointExtension>
            <ns3:hr>120</ns3:hr>
            <ns3:cad>0</ns3:cad>
          </ns3:TrackPointExtension>
        </extensions>
      </trkpt>
      <trkpt lat="45.321127809584140777587890625" lon="-70.80757803283631801605224609375">
        <ele>874</ele>
        <time>2026-08-21T12:36:58.000Z</time>
        <extensions>
          <ns3:TrackPointExtension>
            <ns3:hr>121</ns3:hr>
            <ns3:cad>0</ns3:cad>
          </ns3:TrackPointExtension>
        </extensions>
      </trkpt>
      <trkpt lat="45.32112353481352329254150390625" lon="-70.8075766079127788543701171875">
        <ele>874.20001220703125</ele>
        <time>2026-08-21T12:36:59.000Z</time>
        <extensions>
          <ns3:TrackPointExtension>
            <ns3:hr>120</ns3:hr>
            <ns3:cad>0</ns3:cad>
          </ns3:TrackPointExtension>
        </extensions>
      </trkpt>
      <trkpt lat="45.3211182542145252227783203125" lon="-70.807575099170207977294921875">
        <ele>874.4000244140625</ele>
        <time>2026-08-21T12:37:00.000Z</time>
        <extensions>
          <ns3:TrackPointExtension>
            <ns3:hr>120</ns3:hr>
            <ns3:cad>0</ns3:cad>
          </ns3:TrackPointExtension>
        </extensions>
      </trkpt>
      <trkpt lat="45.3211105428636074066162109375" lon="-70.8075672201812267303466796875">
        <ele>874.79998779296875</ele>
        <time>2026-08-21T12:37:01.000Z</time>
        <extensions>
          <ns3:TrackPointExtension>
            <ns3:hr>121</ns3:hr>
            <ns3:cad>0</ns3:cad>
          </ns3:TrackPointExtension>
        </extensions>
      </trkpt>
      <trkpt lat="45.32110425643622875213623046875" lon="-70.807560347020626068115234375">
        <ele>875</ele>
        <time>2026-08-21T12:37:02.000Z</time>
        <extensions>
          <ns3:TrackPointExtension>
            <ns3:hr>122</ns3:hr>
            <ns3:cad>47</ns3:cad>
          </ns3:TrackPointExtension>
        </extensions>
      </trkpt>
      <trkpt lat="45.32110526226460933685302734375" lon="-70.8075514622032642364501953125">
        <ele>875.20001220703125</ele>
        <time>2026-08-21T12:37:03.000Z</time>
        <extensions>
          <ns3:TrackPointExtension>
            <ns3:hr>122</ns3:hr>
            <ns3:cad>47</ns3:cad>
          </ns3:TrackPointExtension>
        </extensions>
      </trkpt>
      <trkpt lat="45.32110844738781452178955078125" lon="-70.80754685215651988983154296875">
        <ele>875.4000244140625</ele>
        <time>2026-08-21T12:37:04.000Z</time>
        <extensions>
          <ns3:TrackPointExtension>
            <ns3:hr>123</ns3:hr>
            <ns3:cad>47</ns3:cad>
          </ns3:TrackPointExtension>
        </extensions>
      </trkpt>
      <trkpt lat="45.321105010807514190673828125" lon="-70.80753645859658718109130859375">
        <ele>875.5999755859375</ele>
        <time>2026-08-21T12:37:05.000Z</time>
        <extensions>
          <ns3:TrackPointExtension>
            <ns3:hr>123</ns3:hr>
            <ns3:cad>47</ns3:cad>
          </ns3:TrackPointExtension>
        </extensions>
      </trkpt>
      <trkpt lat="45.321105010807514190673828125" lon="-70.80753059126436710357666015625">
        <ele>875.79998779296875</ele>
        <time>2026-08-21T12:37:06.000Z</time>
        <extensions>
          <ns3:TrackPointExtension>
            <ns3:hr>124</ns3:hr>
            <ns3:cad>43</ns3:cad>
          </ns3:TrackPointExtension>
        </extensions>
      </trkpt>
      <trkpt lat="45.3211004845798015594482421875" lon="-70.80752522684633731842041015625">
        <ele>876</ele>
        <time>2026-08-21T12:37:07.000Z</time>
        <extensions>
          <ns3:TrackPointExtension>
            <ns3:hr>127</ns3:hr>
            <ns3:cad>43</ns3:cad>
          </ns3:TrackPointExtension>
        </extensions>
      </trkpt>
      <trkpt lat="45.321096293628215789794921875" lon="-70.80752204172313213348388671875">
        <ele>876.4000244140625</ele>
        <time>2026-08-21T12:37:08.000Z</time>
        <extensions>
          <ns3:TrackPointExtension>
            <ns3:hr>129</ns3:hr>
            <ns3:cad>43</ns3:cad>
          </ns3:TrackPointExtension>
        </extensions>
      </trkpt>
      <trkpt lat="45.32109059393405914306640625" lon="-70.807509385049343109130859375">
        <ele>876.5999755859375</ele>
        <time>2026-08-21T12:37:09.000Z</time>
        <extensions>
          <ns3:TrackPointExtension>
            <ns3:hr>130</ns3:hr>
            <ns3:cad>0</ns3:cad>
          </ns3:TrackPointExtension>
        </extensions>
      </trkpt>
      <trkpt lat="45.32108615152537822723388671875" lon="-70.80749454908072948455810546875">
        <ele>876.79998779296875</ele>
        <time>2026-08-21T12:37:10.000Z</time>
        <extensions>
          <ns3:TrackPointExtension>
            <ns3:hr>131</ns3:hr>
            <ns3:cad>0</ns3:cad>
          </ns3:TrackPointExtension>
        </extensions>
      </trkpt>
      <trkpt lat="45.32108028419315814971923828125" lon="-70.80749270506203174591064453125">
        <ele>877</ele>
        <time>2026-08-21T12:37:11.000Z</time>
        <extensions>
          <ns3:TrackPointExtension>
            <ns3:hr>131</ns3:hr>
            <ns3:cad>0</ns3:cad>
          </ns3:TrackPointExtension>
        </extensions>
      </trkpt>
      <trkpt lat="45.321076177060604095458984375" lon="-70.80748734064400196075439453125">
        <ele>877.20001220703125</ele>
        <time>2026-08-21T12:37:12.000Z</time>
        <extensions>
          <ns3:TrackPointExtension>
            <ns3:hr>132</ns3:hr>
            <ns3:cad>0</ns3:cad>
          </ns3:TrackPointExtension>
        </extensions>
      </trkpt>
      <trkpt lat="45.321073494851589202880859375" lon="-70.807477198541164398193359375">
        <ele>877.5999755859375</ele>
        <time>2026-08-21T12:37:13.000Z</time>
        <extensions>
          <ns3:TrackPointExtension>
            <ns3:hr>132</ns3:hr>
            <ns3:cad>0</ns3:cad>
          </ns3:TrackPointExtension>
        </extensions>
      </trkpt>
      <trkpt lat="45.3210716508328914642333984375" lon="-70.8074679784476757049560546875">
        <ele>877.79998779296875</ele>
        <time>2026-08-21T12:37:14.000Z</time>
        <extensions>
          <ns3:TrackPointExtension>
            <ns3:hr>132</ns3:hr>
            <ns3:cad>0</ns3:cad>
          </ns3:TrackPointExtension>
        </extensions>
      </trkpt>
      <trkpt lat="45.32106787897646427154541015625" lon="-70.80745800398290157318115234375">
        <ele>878</ele>
        <time>2026-08-21T12:37:15.000Z</time>
        <extensions>
          <ns3:TrackPointExtension>
            <ns3:hr>132</ns3:hr>
            <ns3:cad>0</ns3:cad>
          </ns3:TrackPointExtension>
        </extensions>
      </trkpt>
      <trkpt lat="45.32106335274875164031982421875" lon="-70.80744870007038116455078125">
        <ele>878.20001220703125</ele>
        <time>2026-08-21T12:37:16.000Z</time>
        <extensions>
          <ns3:TrackPointExtension>
            <ns3:hr>133</ns3:hr>
            <ns3:cad>0</ns3:cad>
          </ns3:TrackPointExtension>
        </extensions>
      </trkpt>
      <trkpt lat="45.32105706632137298583984375" lon="-70.80743537284433841705322265625">
        <ele>878.4000244140625</ele>
        <time>2026-08-21T12:37:17.000Z</time>
        <extensions>
          <ns3:TrackPointExtension>
            <ns3:hr>133</ns3:hr>
            <ns3:cad>0</ns3:cad>
          </ns3:TrackPointExtension>
        </extensions>
      </trkpt>
      <trkpt lat="45.3210542164742946624755859375" lon="-70.8074310980737209320068359375">
        <ele>878.5999755859375</ele>
        <time>2026-08-21T12:37:18.000Z</time>
        <extensions>
          <ns3:TrackPointExtension>
            <ns3:hr>134</ns3:hr>
            <ns3:cad>0</ns3:cad>
          </ns3:TrackPointExtension>
        </extensions>
      </trkpt>
      <trkpt lat="45.3210478462278842926025390625" lon="-70.807422213256359100341796875">
        <ele>878.79998779296875</ele>
        <time>2026-08-21T12:37:19.000Z</time>
        <extensions>
          <ns3:TrackPointExtension>
            <ns3:hr>134</ns3:hr>
            <ns3:cad>0</ns3:cad>
          </ns3:TrackPointExtension>
        </extensions>
      </trkpt>
      <trkpt lat="45.3210429847240447998046875" lon="-70.8074198663234710693359375">
        <ele>878.79998779296875</ele>
        <time>2026-08-21T12:37:20.000Z</time>
        <extensions>
          <ns3:TrackPointExtension>
            <ns3:hr>134</ns3:hr>
            <ns3:cad>0</ns3:cad>
          </ns3:TrackPointExtension>
        </extensions>
      </trkpt>
      <trkpt lat="45.321036279201507568359375" lon="-70.80741919577121734619140625">
        <ele>879</ele>
        <time>2026-08-21T12:37:21.000Z</time>
        <extensions>
          <ns3:TrackPointExtension>
            <ns3:hr>134</ns3:hr>
            <ns3:cad>0</ns3:cad>
          </ns3:TrackPointExtension>
        </extensions>
      </trkpt>
      <trkpt lat="45.32103083096444606781005859375" lon="-70.80741777084767818450927734375">
        <ele>879.20001220703125</ele>
        <time>2026-08-21T12:37:22.000Z</time>
        <extensions>
          <ns3:TrackPointExtension>
            <ns3:hr>136</ns3:hr>
            <ns3:cad>0</ns3:cad>
          </ns3:TrackPointExtension>
        </extensions>
      </trkpt>
      <trkpt lat="45.321026556193828582763671875" lon="-70.807420201599597930908203125">
        <ele>879.4000244140625</ele>
        <time>2026-08-21T12:37:23.000Z</time>
        <extensions>
          <ns3:TrackPointExtension>
            <ns3:hr>137</ns3:hr>
            <ns3:cad>0</ns3:cad>
          </ns3:TrackPointExtension>
        </extensions>
      </trkpt>
      <trkpt lat="45.3210126422345638275146484375" lon="-70.80742212943732738494873046875">
        <ele>879.5999755859375</ele>
        <time>2026-08-21T12:37:24.000Z</time>
        <extensions>
          <ns3:TrackPointExtension>
            <ns3:hr>137</ns3:hr>
            <ns3:cad>0</ns3:cad>
          </ns3:TrackPointExtension>
        </extensions>
      </trkpt>
      <trkpt lat="45.32100786454975605010986328125" lon="-70.80742464400827884674072265625">
        <ele>880</ele>
        <time>2026-08-21T12:37:25.000Z</time>
        <extensions>
          <ns3:TrackPointExtension>
            <ns3:hr>138</ns3:hr>
            <ns3:cad>0</ns3:cad>
          </ns3:TrackPointExtension>
        </extensions>
      </trkpt>
      <trkpt lat="45.32100342214107513427734375" lon="-70.8074223808944225311279296875">
        <ele>880.20001220703125</ele>
        <time>2026-08-21T12:37:26.000Z</time>
        <extensions>
          <ns3:TrackPointExtension>
            <ns3:hr>138</ns3:hr>
            <ns3:cad>0</ns3:cad>
          </ns3:TrackPointExtension>
        </extensions>
      </trkpt>
      <trkpt lat="45.32100182957947254180908203125" lon="-70.80742028541862964630126953125">
        <ele>880.4000244140625</ele>
        <time>2026-08-21T12:37:27.000Z</time>
        <extensions>
          <ns3:TrackPointExtension>
            <ns3:hr>138</ns3:hr>
            <ns3:cad>0</ns3:cad>
          </ns3:TrackPointExtension>
        </extensions>
      </trkpt>
      <trkpt lat="45.320989675819873809814453125" lon="-70.80742129124701023101806640625">
        <ele>880.5999755859375</ele>
        <time>2026-08-21T12:37:28.000Z</time>
        <extensions>
          <ns3:TrackPointExtension>
            <ns3:hr>138</ns3:hr>
            <ns3:cad>0</ns3:cad>
          </ns3:TrackPointExtension>
        </extensions>
      </trkpt>
      <trkpt lat="45.3209893405437469482421875" lon="-70.807423889636993408203125">
        <ele>880.79998779296875</ele>
        <time>2026-08-21T12:37:29.000Z</time>
        <extensions>
          <ns3:TrackPointExtension>
            <ns3:hr>139</ns3:hr>
            <ns3:cad>0</ns3:cad>
          </ns3:TrackPointExtension>
        </extensions>
      </trkpt>
      <trkpt lat="45.32098732888698577880859375" lon="-70.8074284158647060394287109375">
        <ele>881</ele>
        <time>2026-08-21T12:37:30.000Z</time>
        <extensions>
          <ns3:TrackPointExtension>
            <ns3:hr>140</ns3:hr>
            <ns3:cad>0</ns3:cad>
          </ns3:TrackPointExtension>
        </extensions>
      </trkpt>
      <trkpt lat="45.32098389230668544769287109375" lon="-70.80743017606437206268310546875">
        <ele>881.20001220703125</ele>
        <time>2026-08-21T12:37:31.000Z</time>
        <extensions>
          <ns3:TrackPointExtension>
            <ns3:hr>141</ns3:hr>
            <ns3:cad>0</ns3:cad>
          </ns3:TrackPointExtension>
        </extensions>
      </trkpt>
      <trkpt lat="45.32098104245960712432861328125" lon="-70.80742866732180118560791015625">
        <ele>881.4000244140625</ele>
        <time>2026-08-21T12:37:32.000Z</time>
        <extensions>
          <ns3:TrackPointExtension>
            <ns3:hr>141</ns3:hr>
            <ns3:cad>0</ns3:cad>
          </ns3:TrackPointExtension>
        </extensions>
      </trkpt>
      <trkpt lat="45.320977605879306793212890625" lon="-70.807425566017627716064453125">
        <ele>881.5999755859375</ele>
        <time>2026-08-21T12:37:33.000Z</time>
        <extensions>
          <ns3:TrackPointExtension>
            <ns3:hr>141</ns3:hr>
            <ns3:cad>0</ns3:cad>
          </ns3:TrackPointExtension>
        </extensions>
      </trkpt>
      <trkpt lat="45.32097383402287960052490234375" lon="-70.8074247278273105621337890625">
        <ele>881.79998779296875</ele>
        <time>2026-08-21T12:37:34.000Z</time>
        <extensions>
          <ns3:TrackPointExtension>
            <ns3:hr>141</ns3:hr>
            <ns3:cad>0</ns3:cad>
          </ns3:TrackPointExtension>
        </extensions>
      </trkpt>
      <trkpt lat="45.32096922397613525390625" lon="-70.80742129124701023101806640625">
        <ele>882</ele>
        <time>2026-08-21T12:37:35.000Z</time>
        <extensions>
          <ns3:TrackPointExtension>
            <ns3:hr>140</ns3:hr>
            <ns3:cad>0</ns3:cad>
          </ns3:TrackPointExtension>
        </extensions>
      </trkpt>
      <trkpt lat="45.320968218147754669189453125" lon="-70.80741793848574161529541015625">
        <ele>882.20001220703125</ele>
        <time>2026-08-21T12:37:36.000Z</time>
        <extensions>
          <ns3:TrackPointExtension>
            <ns3:hr>141</ns3:hr>
            <ns3:cad>0</ns3:cad>
          </ns3:TrackPointExtension>
        </extensions>
      </trkpt>
      <trkpt lat="45.320967547595500946044921875" lon="-70.807419531047344207763671875">
        <ele>882.4000244140625</ele>
        <time>2026-08-21T12:37:37.000Z</time>
        <extensions>
          <ns3:TrackPointExtension>
            <ns3:hr>141</ns3:hr>
            <ns3:cad>0</ns3:cad>
          </ns3:TrackPointExtension>
        </extensions>
      </trkpt>
      <trkpt lat="45.32096645794808864593505859375" lon="-70.80742397345602512359619140625">
        <ele>882.79998779296875</ele>
        <time>2026-08-21T12:37:38.000Z</time>
        <extensions>
          <ns3:TrackPointExtension>
            <ns3:hr>141</ns3:hr>
            <ns3:cad>0</ns3:cad>
          </ns3:TrackPointExtension>
        </extensions>
      </trkpt>
      <trkpt lat="45.320960842072963714599609375" lon="-70.80742363817989826202392578125">
        <ele>883</ele>
        <time>2026-08-21T12:37:39.000Z</time>
        <extensions>
          <ns3:TrackPointExtension>
            <ns3:hr>140</ns3:hr>
            <ns3:cad>0</ns3:cad>
          </ns3:TrackPointExtension>
        </extensions>
      </trkpt>
      <trkpt lat="45.32095321454107761383056640625" lon="-70.80742564983665943145751953125">
        <ele>883.20001220703125</ele>
        <time>2026-08-21T12:37:40.000Z</time>
        <extensions>
          <ns3:TrackPointExtension>
            <ns3:hr>141</ns3:hr>
            <ns3:cad>0</ns3:cad>
          </ns3:TrackPointExtension>
        </extensions>
      </trkpt>
      <trkpt lat="45.3209464251995086669921875" lon="-70.80742145888507366180419921875">
        <ele>883.4000244140625</ele>
        <time>2026-08-21T12:37:41.000Z</time>
        <extensions>
          <ns3:TrackPointExtension>
            <ns3:hr>142</ns3:hr>
            <ns3:cad>0</ns3:cad>
          </ns3:TrackPointExtension>
        </extensions>
      </trkpt>
      <trkpt lat="45.3209445811808109283447265625" lon="-70.80742414109408855438232421875">
        <ele>883.5999755859375</ele>
        <time>2026-08-21T12:37:42.000Z</time>
        <extensions>
          <ns3:TrackPointExtension>
            <ns3:hr>142</ns3:hr>
            <ns3:cad>0</ns3:cad>
          </ns3:TrackPointExtension>
        </extensions>
      </trkpt>
      <trkpt lat="45.3209372051060199737548828125" lon="-70.8074267394840717315673828125">
        <ele>883.79998779296875</ele>
        <time>2026-08-21T12:37:43.000Z</time>
        <extensions>
          <ns3:TrackPointExtension>
            <ns3:hr>143</ns3:hr>
            <ns3:cad>0</ns3:cad>
          </ns3:TrackPointExtension>
        </extensions>
      </trkpt>
      <trkpt lat="45.32093024812638759613037109375" lon="-70.80743151716887950897216796875">
        <ele>883.79998779296875</ele>
        <time>2026-08-21T12:37:44.000Z</time>
        <extensions>
          <ns3:TrackPointExtension>
            <ns3:hr>143</ns3:hr>
            <ns3:cad>0</ns3:cad>
          </ns3:TrackPointExtension>
        </extensions>
      </trkpt>
      <trkpt lat="45.3209264762699604034423828125" lon="-70.80743470229208469390869140625">
        <ele>884</ele>
        <time>2026-08-21T12:37:45.000Z</time>
        <extensions>
          <ns3:TrackPointExtension>
            <ns3:hr>143</ns3:hr>
            <ns3:cad>0</ns3:cad>
          </ns3:TrackPointExtension>
        </extensions>
      </trkpt>
      <trkpt lat="45.3209164179861545562744140625" lon="-70.8074431680142879486083984375">
        <ele>884.20001220703125</ele>
        <time>2026-08-21T12:37:46.000Z</time>
        <extensions>
          <ns3:TrackPointExtension>
            <ns3:hr>143</ns3:hr>
            <ns3:cad>0</ns3:cad>
          </ns3:TrackPointExtension>
        </extensions>
      </trkpt>
      <trkpt lat="45.32091398723423480987548828125" lon="-70.80744643695652484893798828125">
        <ele>884.4000244140625</ele>
        <time>2026-08-21T12:37:47.000Z</time>
        <extensions>
          <ns3:TrackPointExtension>
            <ns3:hr>143</ns3:hr>
            <ns3:cad>0</ns3:cad>
          </ns3:TrackPointExtension>
        </extensions>
      </trkpt>
      <trkpt lat="45.32090996392071247100830078125" lon="-70.8074535615742206573486328125">
        <ele>884.5999755859375</ele>
        <time>2026-08-21T12:37:48.000Z</time>
        <extensions>
          <ns3:TrackPointExtension>
            <ns3:hr>142</ns3:hr>
            <ns3:cad>0</ns3:cad>
          </ns3:TrackPointExtension>
        </extensions>
      </trkpt>
      <trkpt lat="45.32090661115944385528564453125" lon="-70.80745632760226726531982421875">
        <ele>884.79998779296875</ele>
        <time>2026-08-21T12:37:49.000Z</time>
        <extensions>
          <ns3:TrackPointExtension>
            <ns3:hr>142</ns3:hr>
            <ns3:cad>75</ns3:cad>
          </ns3:TrackPointExtension>
        </extensions>
      </trkpt>
      <trkpt lat="45.32090342603623867034912109375" lon="-70.807459093630313873291015625">
        <ele>885.20001220703125</ele>
        <time>2026-08-21T12:37:50.000Z</time>
        <extensions>
          <ns3:TrackPointExtension>
            <ns3:hr>142</ns3:hr>
            <ns3:cad>40</ns3:cad>
          </ns3:TrackPointExtension>
        </extensions>
      </trkpt>
      <trkpt lat="45.32089940272271633148193359375" lon="-70.8074574172496795654296875">
        <ele>885.20001220703125</ele>
        <time>2026-08-21T12:37:51.000Z</time>
        <extensions>
          <ns3:TrackPointExtension>
            <ns3:hr>142</ns3:hr>
            <ns3:cad>40</ns3:cad>
          </ns3:TrackPointExtension>
        </extensions>
      </trkpt>
      <trkpt lat="45.32089202664792537689208984375" lon="-70.80745951272547245025634765625">
        <ele>885.4000244140625</ele>
        <time>2026-08-21T12:37:52.000Z</time>
        <extensions>
          <ns3:TrackPointExtension>
            <ns3:hr>142</ns3:hr>
            <ns3:cad>0</ns3:cad>
          </ns3:TrackPointExtension>
        </extensions>
      </trkpt>
      <trkpt lat="45.32088666222989559173583984375" lon="-70.807461775839328765869140625">
        <ele>885.5999755859375</ele>
        <time>2026-08-21T12:37:53.000Z</time>
        <extensions>
          <ns3:TrackPointExtension>
            <ns3:hr>143</ns3:hr>
            <ns3:cad>0</ns3:cad>
          </ns3:TrackPointExtension>
        </extensions>
      </trkpt>
      <trkpt lat="45.32088347710669040679931640625" lon="-70.80745984800159931182861328125">
        <ele>885.79998779296875</ele>
        <time>2026-08-21T12:37:54.000Z</time>
        <extensions>
          <ns3:TrackPointExtension>
            <ns3:hr>143</ns3:hr>
            <ns3:cad>0</ns3:cad>
          </ns3:TrackPointExtension>
        </extensions>
      </trkpt>
      <trkpt lat="45.32088330946862697601318359375" lon="-70.8074572496116161346435546875">
        <ele>885.79998779296875</ele>
        <time>2026-08-21T12:37:55.000Z</time>
        <extensions>
          <ns3:TrackPointExtension>
            <ns3:hr>144</ns3:hr>
            <ns3:cad>0</ns3:cad>
          </ns3:TrackPointExtension>
        </extensions>
      </trkpt>
      <trkpt lat="45.3208818845450878143310546875" lon="-70.80745582468807697296142578125">
        <ele>886</ele>
        <time>2026-08-21T12:37:56.000Z</time>
        <extensions>
          <ns3:TrackPointExtension>
            <ns3:hr>144</ns3:hr>
            <ns3:cad>0</ns3:cad>
          </ns3:TrackPointExtension>
        </extensions>
      </trkpt>
      <trkpt lat="45.3208815492689609527587890625" lon="-70.80745481885969638824462890625">
        <ele>886.20001220703125</ele>
        <time>2026-08-21T12:37:57.000Z</time>
        <extensions>
          <ns3:TrackPointExtension>
            <ns3:hr>144</ns3:hr>
            <ns3:cad>0</ns3:cad>
          </ns3:TrackPointExtension>
        </extensions>
      </trkpt>
      <trkpt lat="45.3208825550973415374755859375" lon="-70.80745716579258441925048828125">
        <ele>886.20001220703125</ele>
        <time>2026-08-21T12:37:58.000Z</time>
        <extensions>
          <ns3:TrackPointExtension>
            <ns3:hr>144</ns3:hr>
            <ns3:cad>0</ns3:cad>
          </ns3:TrackPointExtension>
        </extensions>
      </trkpt>
      <trkpt lat="45.32088448293507099151611328125" lon="-70.80745699815452098846435546875">
        <ele>886.4000244140625</ele>
        <time>2026-08-21T12:37:59.000Z</time>
        <extensions>
          <ns3:TrackPointExtension>
            <ns3:hr>144</ns3:hr>
            <ns3:cad>0</ns3:cad>
          </ns3:TrackPointExtension>
        </extensions>
      </trkpt>
      <trkpt lat="45.32088180072605609893798828125" lon="-70.8074565790593624114990234375">
        <ele>886.4000244140625</ele>
        <time>2026-08-21T12:38:00.000Z</time>
        <extensions>
          <ns3:TrackPointExtension>
            <ns3:hr>144</ns3:hr>
            <ns3:cad>0</ns3:cad>
          </ns3:TrackPointExtension>
        </extensions>
      </trkpt>
      <trkpt lat="45.3208795376121997833251953125" lon="-70.8074545674026012420654296875">
        <ele>886.5999755859375</ele>
        <time>2026-08-21T12:38:01.000Z</time>
        <extensions>
          <ns3:TrackPointExtension>
            <ns3:hr>144</ns3:hr>
            <ns3:cad>0</ns3:cad>
          </ns3:TrackPointExtension>
        </extensions>
      </trkpt>
      <trkpt lat="45.320877693593502044677734375" lon="-70.80745314247906208038330078125">
        <ele>886.79998779296875</ele>
        <time>2026-08-21T12:38:02.000Z</time>
        <extensions>
          <ns3:TrackPointExtension>
            <ns3:hr>144</ns3:hr>
            <ns3:cad>0</ns3:cad>
          </ns3:TrackPointExtension>
        </extensions>
      </trkpt>
      <trkpt lat="45.3208771906793117523193359375" lon="-70.8074515499174594879150390625">
        <ele>887</ele>
        <time>2026-08-21T12:38:03.000Z</time>
        <extensions>
          <ns3:TrackPointExtension>
            <ns3:hr>144</ns3:hr>
            <ns3:cad>0</ns3:cad>
          </ns3:TrackPointExtension>
        </extensions>
      </trkpt>
      <trkpt lat="45.32087861560285091400146484375" lon="-70.8074518851935863494873046875">
        <ele>887</ele>
        <time>2026-08-21T12:38:04.000Z</time>
        <extensions>
          <ns3:TrackPointExtension>
            <ns3:hr>143</ns3:hr>
            <ns3:cad>0</ns3:cad>
          </ns3:TrackPointExtension>
        </extensions>
      </trkpt>
      <trkpt lat="45.32087844796478748321533203125" lon="-70.80745062790811061859130859375">
        <ele>887.20001220703125</ele>
        <time>2026-08-21T12:38:05.000Z</time>
        <extensions>
          <ns3:TrackPointExtension>
            <ns3:hr>144</ns3:hr>
            <ns3:cad>0</ns3:cad>
          </ns3:TrackPointExtension>
        </extensions>
      </trkpt>
      <trkpt lat="45.32087677158415317535400390625" lon="-70.8074505440890789031982421875">
        <ele>887.4000244140625</ele>
        <time>2026-08-21T12:38:06.000Z</time>
        <extensions>
          <ns3:TrackPointExtension>
            <ns3:hr>144</ns3:hr>
            <ns3:cad>0</ns3:cad>
          </ns3:TrackPointExtension>
        </extensions>
      </trkpt>
      <trkpt lat="45.3208714909851551055908203125" lon="-70.80744777806103229522705078125">
        <ele>887.5999755859375</ele>
        <time>2026-08-21T12:38:07.000Z</time>
        <extensions>
          <ns3:TrackPointExtension>
            <ns3:hr>143</ns3:hr>
            <ns3:cad>0</ns3:cad>
          </ns3:TrackPointExtension>
        </extensions>
      </trkpt>
      <trkpt lat="45.3208714909851551055908203125" lon="-70.8074485324323177337646484375">
        <ele>887.5999755859375</ele>
        <time>2026-08-21T12:38:08.000Z</time>
        <extensions>
          <ns3:TrackPointExtension>
            <ns3:hr>142</ns3:hr>
            <ns3:cad>0</ns3:cad>
          </ns3:TrackPointExtension>
        </extensions>
      </trkpt>
      <trkpt lat="45.32086067833006381988525390625" lon="-70.80745565705001354217529296875">
        <ele>887.79998779296875</ele>
        <time>2026-08-21T12:38:09.000Z</time>
        <extensions>
          <ns3:TrackPointExtension>
            <ns3:hr>141</ns3:hr>
            <ns3:cad>0</ns3:cad>
          </ns3:TrackPointExtension>
        </extensions>
      </trkpt>
      <trkpt lat="45.32085682265460491180419921875" lon="-70.80745683051645755767822265625">
        <ele>888</ele>
        <time>2026-08-21T12:38:10.000Z</time>
        <extensions>
          <ns3:TrackPointExtension>
            <ns3:hr>140</ns3:hr>
            <ns3:cad>0</ns3:cad>
          </ns3:TrackPointExtension>
        </extensions>
      </trkpt>
      <trkpt lat="45.3208520449697971343994140625" lon="-70.80745565705001354217529296875">
        <ele>888.20001220703125</ele>
        <time>2026-08-21T12:38:11.000Z</time>
        <extensions>
          <ns3:TrackPointExtension>
            <ns3:hr>140</ns3:hr>
            <ns3:cad>0</ns3:cad>
          </ns3:TrackPointExtension>
        </extensions>
      </trkpt>
      <trkpt lat="45.32085481099784374237060546875" lon="-70.80745481885969638824462890625">
        <ele>888.4000244140625</ele>
        <time>2026-08-21T12:38:12.000Z</time>
        <extensions>
          <ns3:TrackPointExtension>
            <ns3:hr>140</ns3:hr>
            <ns3:cad>0</ns3:cad>
          </ns3:TrackPointExtension>
        </extensions>
      </trkpt>
      <trkpt lat="45.32085548155009746551513671875" lon="-70.80745615996420383453369140625">
        <ele>888.5999755859375</ele>
        <time>2026-08-21T12:38:13.000Z</time>
        <extensions>
          <ns3:TrackPointExtension>
            <ns3:hr>140</ns3:hr>
            <ns3:cad>0</ns3:cad>
          </ns3:TrackPointExtension>
        </extensions>
      </trkpt>
      <trkpt lat="45.32085481099784374237060546875" lon="-70.80745817162096500396728515625">
        <ele>888.79998779296875</ele>
        <time>2026-08-21T12:38:14.000Z</time>
        <extensions>
          <ns3:TrackPointExtension>
            <ns3:hr>140</ns3:hr>
            <ns3:cad>0</ns3:cad>
          </ns3:TrackPointExtension>
        </extensions>
      </trkpt>
      <trkpt lat="45.3208523802459239959716796875" lon="-70.80745540559291839599609375">
        <ele>889</ele>
        <time>2026-08-21T12:38:15.000Z</time>
        <extensions>
          <ns3:TrackPointExtension>
            <ns3:hr>139</ns3:hr>
            <ns3:cad>0</ns3:cad>
          </ns3:TrackPointExtension>
        </extensions>
      </trkpt>
      <trkpt lat="45.32085548155009746551513671875" lon="-70.8074512146413326263427734375">
        <ele>889</ele>
        <time>2026-08-21T12:38:16.000Z</time>
        <extensions>
          <ns3:TrackPointExtension>
            <ns3:hr>140</ns3:hr>
            <ns3:cad>0</ns3:cad>
          </ns3:TrackPointExtension>
        </extensions>
      </trkpt>
      <trkpt lat="45.32085279934108257293701171875" lon="-70.80744610168039798736572265625">
        <ele>889.20001220703125</ele>
        <time>2026-08-21T12:38:17.000Z</time>
        <extensions>
          <ns3:TrackPointExtension>
            <ns3:hr>140</ns3:hr>
            <ns3:cad>0</ns3:cad>
          </ns3:TrackPointExtension>
        </extensions>
      </trkpt>
      <trkpt lat="45.320852883160114288330078125" lon="-70.8074438385665416717529296875">
        <ele>889.4000244140625</ele>
        <time>2026-08-21T12:38:18.000Z</time>
        <extensions>
          <ns3:TrackPointExtension>
            <ns3:hr>140</ns3:hr>
            <ns3:cad>0</ns3:cad>
          </ns3:TrackPointExtension>
        </extensions>
      </trkpt>
      <trkpt lat="45.3208503685891628265380859375" lon="-70.80744140781462192535400390625">
        <ele>889.5999755859375</ele>
        <time>2026-08-21T12:38:19.000Z</time>
        <extensions>
          <ns3:TrackPointExtension>
            <ns3:hr>140</ns3:hr>
            <ns3:cad>0</ns3:cad>
          </ns3:TrackPointExtension>
        </extensions>
      </trkpt>
      <trkpt lat="45.3208458423614501953125" lon="-70.80744023434817790985107421875">
        <ele>889.79998779296875</ele>
        <time>2026-08-21T12:38:20.000Z</time>
        <extensions>
          <ns3:TrackPointExtension>
            <ns3:hr>141</ns3:hr>
            <ns3:cad>0</ns3:cad>
          </ns3:TrackPointExtension>
        </extensions>
      </trkpt>
      <trkpt lat="45.32084709964692592620849609375" lon="-70.80743839032948017120361328125">
        <ele>890</ele>
        <time>2026-08-21T12:38:21.000Z</time>
        <extensions>
          <ns3:TrackPointExtension>
            <ns3:hr>141</ns3:hr>
            <ns3:cad>0</ns3:cad>
          </ns3:TrackPointExtension>
        </extensions>
      </trkpt>
      <trkpt lat="45.32084324397146701812744140625" lon="-70.807436294853687286376953125">
        <ele>890.20001220703125</ele>
        <time>2026-08-21T12:38:22.000Z</time>
        <extensions>
          <ns3:TrackPointExtension>
            <ns3:hr>141</ns3:hr>
            <ns3:cad>0</ns3:cad>
          </ns3:TrackPointExtension>
        </extensions>
      </trkpt>
      <trkpt lat="45.32084441743791103363037109375" lon="-70.80743604339659214019775390625">
        <ele>890.4000244140625</ele>
        <time>2026-08-21T12:38:23.000Z</time>
        <extensions>
          <ns3:TrackPointExtension>
            <ns3:hr>140</ns3:hr>
            <ns3:cad>0</ns3:cad>
          </ns3:TrackPointExtension>
        </extensions>
      </trkpt>
      <trkpt lat="45.32084341160953044891357421875" lon="-70.80743453465402126312255859375">
        <ele>890.4000244140625</ele>
        <time>2026-08-21T12:38:24.000Z</time>
        <extensions>
          <ns3:TrackPointExtension>
            <ns3:hr>141</ns3:hr>
            <ns3:cad>0</ns3:cad>
          </ns3:TrackPointExtension>
        </extensions>
      </trkpt>
      <trkpt lat="45.3208426572382450103759765625" lon="-70.80743352882564067840576171875">
        <ele>890.5999755859375</ele>
        <time>2026-08-21T12:38:25.000Z</time>
        <extensions>
          <ns3:TrackPointExtension>
            <ns3:hr>141</ns3:hr>
            <ns3:cad>0</ns3:cad>
          </ns3:TrackPointExtension>
        </extensions>
      </trkpt>
      <trkpt lat="45.32083905301988124847412109375" lon="-70.807430259883403778076171875">
        <ele>890.79998779296875</ele>
        <time>2026-08-21T12:38:26.000Z</time>
        <extensions>
          <ns3:TrackPointExtension>
            <ns3:hr>141</ns3:hr>
            <ns3:cad>0</ns3:cad>
          </ns3:TrackPointExtension>
        </extensions>
      </trkpt>
      <trkpt lat="45.32083871774375438690185546875" lon="-70.8074290864169597625732421875">
        <ele>891</ele>
        <time>2026-08-21T12:38:27.000Z</time>
        <extensions>
          <ns3:TrackPointExtension>
            <ns3:hr>140</ns3:hr>
            <ns3:cad>0</ns3:cad>
          </ns3:TrackPointExtension>
        </extensions>
      </trkpt>
      <trkpt lat="45.3208359517157077789306640625" lon="-70.8074297569692134857177734375">
        <ele>891</ele>
        <time>2026-08-21T12:38:28.000Z</time>
        <extensions>
          <ns3:TrackPointExtension>
            <ns3:hr>140</ns3:hr>
            <ns3:cad>0</ns3:cad>
          </ns3:TrackPointExtension>
        </extensions>
      </trkpt>
      <trkpt lat="45.32083301804959774017333984375" lon="-70.80742766149342060089111328125">
        <ele>891.20001220703125</ele>
        <time>2026-08-21T12:38:29.000Z</time>
        <extensions>
          <ns3:TrackPointExtension>
            <ns3:hr>140</ns3:hr>
            <ns3:cad>0</ns3:cad>
          </ns3:TrackPointExtension>
        </extensions>
      </trkpt>
      <trkpt lat="45.320827066898345947265625" lon="-70.80742095597088336944580078125">
        <ele>891.4000244140625</ele>
        <time>2026-08-21T12:38:30.000Z</time>
        <extensions>
          <ns3:TrackPointExtension>
            <ns3:hr>140</ns3:hr>
            <ns3:cad>0</ns3:cad>
          </ns3:TrackPointExtension>
        </extensions>
      </trkpt>
      <trkpt lat="45.3208238817751407623291015625" lon="-70.8074171841144561767578125">
        <ele>891.5999755859375</ele>
        <time>2026-08-21T12:38:31.000Z</time>
        <extensions>
          <ns3:TrackPointExtension>
            <ns3:hr>140</ns3:hr>
            <ns3:cad>0</ns3:cad>
          </ns3:TrackPointExtension>
        </extensions>
      </trkpt>
      <trkpt lat="45.32082245685160160064697265625" lon="-70.80741978250443935394287109375">
        <ele>891.79998779296875</ele>
        <time>2026-08-21T12:38:32.000Z</time>
        <extensions>
          <ns3:TrackPointExtension>
            <ns3:hr>140</ns3:hr>
            <ns3:cad>0</ns3:cad>
          </ns3:TrackPointExtension>
        </extensions>
      </trkpt>
      <trkpt lat="45.32081893645226955413818359375" lon="-70.80742229707539081573486328125">
        <ele>892</ele>
        <time>2026-08-21T12:38:33.000Z</time>
        <extensions>
          <ns3:TrackPointExtension>
            <ns3:hr>140</ns3:hr>
            <ns3:cad>0</ns3:cad>
          </ns3:TrackPointExtension>
        </extensions>
      </trkpt>
      <trkpt lat="45.32081692479550838470458984375" lon="-70.80741919577121734619140625">
        <ele>892</ele>
        <time>2026-08-21T12:38:34.000Z</time>
        <extensions>
          <ns3:TrackPointExtension>
            <ns3:hr>140</ns3:hr>
            <ns3:cad>0</ns3:cad>
          </ns3:TrackPointExtension>
        </extensions>
      </trkpt>
      <trkpt lat="45.320816002786159515380859375" lon="-70.80741626210510730743408203125">
        <ele>892.20001220703125</ele>
        <time>2026-08-21T12:38:35.000Z</time>
        <extensions>
          <ns3:TrackPointExtension>
            <ns3:hr>140</ns3:hr>
            <ns3:cad>0</ns3:cad>
          </ns3:TrackPointExtension>
        </extensions>
      </trkpt>
      <trkpt lat="45.32081675715744495391845703125" lon="-70.8074180223047733306884765625">
        <ele>892.5999755859375</ele>
        <time>2026-08-21T12:38:36.000Z</time>
        <extensions>
          <ns3:TrackPointExtension>
            <ns3:hr>140</ns3:hr>
            <ns3:cad>0</ns3:cad>
          </ns3:TrackPointExtension>
        </extensions>
      </trkpt>
      <trkpt lat="45.320814661681652069091796875" lon="-70.80741760320961475372314453125">
        <ele>892.79998779296875</ele>
        <time>2026-08-21T12:38:37.000Z</time>
        <extensions>
          <ns3:TrackPointExtension>
            <ns3:hr>140</ns3:hr>
            <ns3:cad>0</ns3:cad>
          </ns3:TrackPointExtension>
        </extensions>
      </trkpt>
      <trkpt lat="45.32081088982522487640380859375" lon="-70.80741626210510730743408203125">
        <ele>893</ele>
        <time>2026-08-21T12:38:38.000Z</time>
        <extensions>
          <ns3:TrackPointExtension>
            <ns3:hr>140</ns3:hr>
            <ns3:cad>0</ns3:cad>
          </ns3:TrackPointExtension>
        </extensions>
      </trkpt>
      <trkpt lat="45.3208081237971782684326171875" lon="-70.807416178286075592041015625">
        <ele>893.20001220703125</ele>
        <time>2026-08-21T12:38:39.000Z</time>
        <extensions>
          <ns3:TrackPointExtension>
            <ns3:hr>140</ns3:hr>
            <ns3:cad>0</ns3:cad>
          </ns3:TrackPointExtension>
        </extensions>
      </trkpt>
      <trkpt lat="45.32080627977848052978515625" lon="-70.8074190281331539154052734375">
        <ele>893.4000244140625</ele>
        <time>2026-08-21T12:38:40.000Z</time>
        <extensions>
          <ns3:TrackPointExtension>
            <ns3:hr>140</ns3:hr>
            <ns3:cad>0</ns3:cad>
          </ns3:TrackPointExtension>
        </extensions>
      </trkpt>
      <trkpt lat="45.32080451957881450653076171875" lon="-70.80741659738123416900634765625">
        <ele>893.5999755859375</ele>
        <time>2026-08-21T12:38:41.000Z</time>
        <extensions>
          <ns3:TrackPointExtension>
            <ns3:hr>140</ns3:hr>
            <ns3:cad>0</ns3:cad>
          </ns3:TrackPointExtension>
        </extensions>
      </trkpt>
      <trkpt lat="45.3208020888268947601318359375" lon="-70.80741995014250278472900390625">
        <ele>893.79998779296875</ele>
        <time>2026-08-21T12:38:42.000Z</time>
        <extensions>
          <ns3:TrackPointExtension>
            <ns3:hr>140</ns3:hr>
            <ns3:cad>0</ns3:cad>
          </ns3:TrackPointExtension>
        </extensions>
      </trkpt>
      <trkpt lat="45.32079814933240413665771484375" lon="-70.807420872151851654052734375">
        <ele>893.79998779296875</ele>
        <time>2026-08-21T12:38:43.000Z</time>
        <extensions>
          <ns3:TrackPointExtension>
            <ns3:hr>140</ns3:hr>
            <ns3:cad>0</ns3:cad>
          </ns3:TrackPointExtension>
        </extensions>
      </trkpt>
      <trkpt lat="45.3207950480282306671142578125" lon="-70.8074203692376613616943359375">
        <ele>894</ele>
        <time>2026-08-21T12:38:44.000Z</time>
        <extensions>
          <ns3:TrackPointExtension>
            <ns3:hr>140</ns3:hr>
            <ns3:cad>0</ns3:cad>
          </ns3:TrackPointExtension>
        </extensions>
      </trkpt>
      <trkpt lat="45.32078993506729602813720703125" lon="-70.80741877667605876922607421875">
        <ele>894.20001220703125</ele>
        <time>2026-08-21T12:38:45.000Z</time>
        <extensions>
          <ns3:TrackPointExtension>
            <ns3:hr>140</ns3:hr>
            <ns3:cad>0</ns3:cad>
          </ns3:TrackPointExtension>
        </extensions>
      </trkpt>
      <trkpt lat="45.3207916952669620513916015625" lon="-70.8074156753718852996826171875">
        <ele>894.4000244140625</ele>
        <time>2026-08-21T12:38:46.000Z</time>
        <extensions>
          <ns3:TrackPointExtension>
            <ns3:hr>139</ns3:hr>
            <ns3:cad>0</ns3:cad>
          </ns3:TrackPointExtension>
        </extensions>
      </trkpt>
      <trkpt lat="45.3207916952669620513916015625" lon="-70.80741642974317073822021484375">
        <ele>894.5999755859375</ele>
        <time>2026-08-21T12:38:47.000Z</time>
        <extensions>
          <ns3:TrackPointExtension>
            <ns3:hr>140</ns3:hr>
            <ns3:cad>0</ns3:cad>
          </ns3:TrackPointExtension>
        </extensions>
      </trkpt>
      <trkpt lat="45.32078750431537628173828125" lon="-70.807418525218963623046875">
        <ele>894.79998779296875</ele>
        <time>2026-08-21T12:38:48.000Z</time>
        <extensions>
          <ns3:TrackPointExtension>
            <ns3:hr>140</ns3:hr>
            <ns3:cad>0</ns3:cad>
          </ns3:TrackPointExtension>
        </extensions>
      </trkpt>
      <trkpt lat="45.32078591175377368927001953125" lon="-70.80741592682898044586181640625">
        <ele>895</ele>
        <time>2026-08-21T12:38:49.000Z</time>
        <extensions>
          <ns3:TrackPointExtension>
            <ns3:hr>140</ns3:hr>
            <ns3:cad>0</ns3:cad>
          </ns3:TrackPointExtension>
        </extensions>
      </trkpt>
      <trkpt lat="45.32078348100185394287109375" lon="-70.807397402822971343994140625">
        <ele>895.20001220703125</ele>
        <time>2026-08-21T12:38:50.000Z</time>
        <extensions>
          <ns3:TrackPointExtension>
            <ns3:hr>140</ns3:hr>
            <ns3:cad>0</ns3:cad>
          </ns3:TrackPointExtension>
        </extensions>
      </trkpt>
      <trkpt lat="45.32078348100185394287109375" lon="-70.80739564262330532073974609375">
        <ele>895.4000244140625</ele>
        <time>2026-08-21T12:38:51.000Z</time>
        <extensions>
          <ns3:TrackPointExtension>
            <ns3:hr>140</ns3:hr>
            <ns3:cad>0</ns3:cad>
          </ns3:TrackPointExtension>
        </extensions>
      </trkpt>
      <trkpt lat="45.320784151554107666015625" lon="-70.807399414479732513427734375">
        <ele>895.5999755859375</ele>
        <time>2026-08-21T12:38:52.000Z</time>
        <extensions>
          <ns3:TrackPointExtension>
            <ns3:hr>140</ns3:hr>
            <ns3:cad>0</ns3:cad>
          </ns3:TrackPointExtension>
        </extensions>
      </trkpt>
      <trkpt lat="45.32078222371637821197509765625" lon="-70.8073984086513519287109375">
        <ele>895.79998779296875</ele>
        <time>2026-08-21T12:38:53.000Z</time>
        <extensions>
          <ns3:TrackPointExtension>
            <ns3:hr>140</ns3:hr>
            <ns3:cad>0</ns3:cad>
          </ns3:TrackPointExtension>
        </extensions>
      </trkpt>
      <trkpt lat="45.32077920623123645782470703125" lon="-70.8073861710727214813232421875">
        <ele>896</ele>
        <time>2026-08-21T12:38:54.000Z</time>
        <extensions>
          <ns3:TrackPointExtension>
            <ns3:hr>140</ns3:hr>
            <ns3:cad>0</ns3:cad>
          </ns3:TrackPointExtension>
        </extensions>
      </trkpt>
      <trkpt lat="45.32077652402222156524658203125" lon="-70.80738055519759654998779296875">
        <ele>896.20001220703125</ele>
        <time>2026-08-21T12:38:55.000Z</time>
        <extensions>
          <ns3:TrackPointExtension>
            <ns3:hr>140</ns3:hr>
            <ns3:cad>0</ns3:cad>
          </ns3:TrackPointExtension>
        </extensions>
      </trkpt>
      <trkpt lat="45.320774428546428680419921875" lon="-70.8073747716844081878662109375">
        <ele>896.4000244140625</ele>
        <time>2026-08-21T12:38:56.000Z</time>
        <extensions>
          <ns3:TrackPointExtension>
            <ns3:hr>141</ns3:hr>
            <ns3:cad>0</ns3:cad>
          </ns3:TrackPointExtension>
        </extensions>
      </trkpt>
      <trkpt lat="45.32077149488031864166259765625" lon="-70.80736865289509296417236328125">
        <ele>896.4000244140625</ele>
        <time>2026-08-21T12:38:57.000Z</time>
        <extensions>
          <ns3:TrackPointExtension>
            <ns3:hr>142</ns3:hr>
            <ns3:cad>0</ns3:cad>
          </ns3:TrackPointExtension>
        </extensions>
      </trkpt>
      <trkpt lat="45.320769064128398895263671875" lon="-70.80736043862998485565185546875">
        <ele>896.5999755859375</ele>
        <time>2026-08-21T12:38:58.000Z</time>
        <extensions>
          <ns3:TrackPointExtension>
            <ns3:hr>142</ns3:hr>
            <ns3:cad>0</ns3:cad>
          </ns3:TrackPointExtension>
        </extensions>
      </trkpt>
      <trkpt lat="45.32076872885227203369140625" lon="-70.80734685994684696197509765625">
        <ele>896.5999755859375</ele>
        <time>2026-08-21T12:38:59.000Z</time>
        <extensions>
          <ns3:TrackPointExtension>
            <ns3:hr>142</ns3:hr>
            <ns3:cad>0</ns3:cad>
          </ns3:TrackPointExtension>
        </extensions>
      </trkpt>
      <trkpt lat="45.32076847739517688751220703125" lon="-70.8073469437658786773681640625">
        <ele>896.79998779296875</ele>
        <time>2026-08-21T12:39:00.000Z</time>
        <extensions>
          <ns3:TrackPointExtension>
            <ns3:hr>142</ns3:hr>
            <ns3:cad>0</ns3:cad>
          </ns3:TrackPointExtension>
        </extensions>
      </trkpt>
      <trkpt lat="45.32076780684292316436767578125" lon="-70.8073420822620391845703125">
        <ele>897</ele>
        <time>2026-08-21T12:39:01.000Z</time>
        <extensions>
          <ns3:TrackPointExtension>
            <ns3:hr>142</ns3:hr>
            <ns3:cad>0</ns3:cad>
          </ns3:TrackPointExtension>
        </extensions>
      </trkpt>
      <trkpt lat="45.3207695670425891876220703125" lon="-70.80733110196888446807861328125">
        <ele>897.20001220703125</ele>
        <time>2026-08-21T12:39:02.000Z</time>
        <extensions>
          <ns3:TrackPointExtension>
            <ns3:hr>142</ns3:hr>
            <ns3:cad>0</ns3:cad>
          </ns3:TrackPointExtension>
        </extensions>
      </trkpt>
      <trkpt lat="45.32077006995677947998046875" lon="-70.80732322297990322113037109375">
        <ele>897.4000244140625</ele>
        <time>2026-08-21T12:39:03.000Z</time>
        <extensions>
          <ns3:TrackPointExtension>
            <ns3:hr>142</ns3:hr>
            <ns3:cad>0</ns3:cad>
          </ns3:TrackPointExtension>
        </extensions>
      </trkpt>
      <trkpt lat="45.32076663337647914886474609375" lon="-70.807316936552524566650390625">
        <ele>897.5999755859375</ele>
        <time>2026-08-21T12:39:04.000Z</time>
        <extensions>
          <ns3:TrackPointExtension>
            <ns3:hr>142</ns3:hr>
            <ns3:cad>0</ns3:cad>
          </ns3:TrackPointExtension>
        </extensions>
      </trkpt>
      <trkpt lat="45.32076663337647914886474609375" lon="-70.80731467343866825103759765625">
        <ele>897.79998779296875</ele>
        <time>2026-08-21T12:39:05.000Z</time>
        <extensions>
          <ns3:TrackPointExtension>
            <ns3:hr>142</ns3:hr>
            <ns3:cad>0</ns3:cad>
          </ns3:TrackPointExtension>
        </extensions>
      </trkpt>
      <trkpt lat="45.320767723023891448974609375" lon="-70.807316601276397705078125">
        <ele>897.79998779296875</ele>
        <time>2026-08-21T12:39:06.000Z</time>
        <extensions>
          <ns3:TrackPointExtension>
            <ns3:hr>143</ns3:hr>
            <ns3:cad>0</ns3:cad>
          </ns3:TrackPointExtension>
        </extensions>
      </trkpt>
      <trkpt lat="45.32076864503324031829833984375" lon="-70.8073072135448455810546875">
        <ele>898</ele>
        <time>2026-08-21T12:39:07.000Z</time>
        <extensions>
          <ns3:TrackPointExtension>
            <ns3:hr>143</ns3:hr>
            <ns3:cad>0</ns3:cad>
          </ns3:TrackPointExtension>
        </extensions>
      </trkpt>
      <trkpt lat="45.32077006995677947998046875" lon="-70.80730377696454524993896484375">
        <ele>898.20001220703125</ele>
        <time>2026-08-21T12:39:08.000Z</time>
        <extensions>
          <ns3:TrackPointExtension>
            <ns3:hr>143</ns3:hr>
            <ns3:cad>0</ns3:cad>
          </ns3:TrackPointExtension>
        </extensions>
      </trkpt>
      <trkpt lat="45.32076713629066944122314453125" lon="-70.8072979934513568878173828125">
        <ele>898.4000244140625</ele>
        <time>2026-08-21T12:39:09.000Z</time>
        <extensions>
          <ns3:TrackPointExtension>
            <ns3:hr>143</ns3:hr>
            <ns3:cad>0</ns3:cad>
          </ns3:TrackPointExtension>
        </extensions>
      </trkpt>
      <trkpt lat="45.32076126895844936370849609375" lon="-70.80728583969175815582275390625">
        <ele>898.5999755859375</ele>
        <time>2026-08-21T12:39:10.000Z</time>
        <extensions>
          <ns3:TrackPointExtension>
            <ns3:hr>144</ns3:hr>
            <ns3:cad>0</ns3:cad>
          </ns3:TrackPointExtension>
        </extensions>
      </trkpt>
      <trkpt lat="45.32076110132038593292236328125" lon="-70.80728500150144100189208984375">
        <ele>898.79998779296875</ele>
        <time>2026-08-21T12:39:11.000Z</time>
        <extensions>
          <ns3:TrackPointExtension>
            <ns3:hr>143</ns3:hr>
            <ns3:cad>0</ns3:cad>
          </ns3:TrackPointExtension>
        </extensions>
      </trkpt>
      <trkpt lat="45.32076202332973480224609375" lon="-70.807279050350189208984375">
        <ele>898.79998779296875</ele>
        <time>2026-08-21T12:39:12.000Z</time>
        <extensions>
          <ns3:TrackPointExtension>
            <ns3:hr>143</ns3:hr>
            <ns3:cad>0</ns3:cad>
          </ns3:TrackPointExtension>
        </extensions>
      </trkpt>
      <trkpt lat="45.32076261006295680999755859375" lon="-70.80727829597890377044677734375">
        <ele>899</ele>
        <time>2026-08-21T12:39:13.000Z</time>
        <extensions>
          <ns3:TrackPointExtension>
            <ns3:hr>143</ns3:hr>
            <ns3:cad>0</ns3:cad>
          </ns3:TrackPointExtension>
        </extensions>
      </trkpt>
      <trkpt lat="45.32076244242489337921142578125" lon="-70.807278044521808624267578125">
        <ele>899.20001220703125</ele>
        <time>2026-08-21T12:39:14.000Z</time>
        <extensions>
          <ns3:TrackPointExtension>
            <ns3:hr>143</ns3:hr>
            <ns3:cad>0</ns3:cad>
          </ns3:TrackPointExtension>
        </extensions>
      </trkpt>
      <trkpt lat="45.32075825147330760955810546875" lon="-70.80727033317089080810546875">
        <ele>899.4000244140625</ele>
        <time>2026-08-21T12:39:15.000Z</time>
        <extensions>
          <ns3:TrackPointExtension>
            <ns3:hr>142</ns3:hr>
            <ns3:cad>0</ns3:cad>
          </ns3:TrackPointExtension>
        </extensions>
      </trkpt>
      <trkpt lat="45.32075774855911731719970703125" lon="-70.8072637952864170074462890625">
        <ele>899.5999755859375</ele>
        <time>2026-08-21T12:39:16.000Z</time>
        <extensions>
          <ns3:TrackPointExtension>
            <ns3:hr>142</ns3:hr>
            <ns3:cad>0</ns3:cad>
          </ns3:TrackPointExtension>
        </extensions>
      </trkpt>
      <trkpt lat="45.32075858674943447113037109375" lon="-70.80725834704935550689697265625">
        <ele>900</ele>
        <time>2026-08-21T12:39:17.000Z</time>
        <extensions>
          <ns3:TrackPointExtension>
            <ns3:hr>142</ns3:hr>
            <ns3:cad>0</ns3:cad>
          </ns3:TrackPointExtension>
        </extensions>
      </trkpt>
      <trkpt lat="45.3207568265497684478759765625" lon="-70.8072487078607082366943359375">
        <ele>900.20001220703125</ele>
        <time>2026-08-21T12:39:18.000Z</time>
        <extensions>
          <ns3:TrackPointExtension>
            <ns3:hr>142</ns3:hr>
            <ns3:cad>0</ns3:cad>
          </ns3:TrackPointExtension>
        </extensions>
      </trkpt>
      <trkpt lat="45.32075800001621246337890625" lon="-70.8072413317859172821044921875">
        <ele>900.5999755859375</ele>
        <time>2026-08-21T12:39:19.000Z</time>
        <extensions>
          <ns3:TrackPointExtension>
            <ns3:hr>143</ns3:hr>
            <ns3:cad>0</ns3:cad>
          </ns3:TrackPointExtension>
        </extensions>
      </trkpt>
      <trkpt lat="45.3207571618258953094482421875" lon="-70.80723269842565059661865234375">
        <ele>900.79998779296875</ele>
        <time>2026-08-21T12:39:20.000Z</time>
        <extensions>
          <ns3:TrackPointExtension>
            <ns3:hr>142</ns3:hr>
            <ns3:cad>0</ns3:cad>
          </ns3:TrackPointExtension>
        </extensions>
      </trkpt>
      <trkpt lat="45.320757329463958740234375" lon="-70.80722833983600139617919921875">
        <ele>901</ele>
        <time>2026-08-21T12:39:21.000Z</time>
        <extensions>
          <ns3:TrackPointExtension>
            <ns3:hr>142</ns3:hr>
            <ns3:cad>62</ns3:cad>
          </ns3:TrackPointExtension>
        </extensions>
      </trkpt>
      <trkpt lat="45.32075707800686359405517578125" lon="-70.80721803009510040283203125">
        <ele>901.20001220703125</ele>
        <time>2026-08-21T12:39:22.000Z</time>
        <extensions>
          <ns3:TrackPointExtension>
            <ns3:hr>142</ns3:hr>
            <ns3:cad>62</ns3:cad>
          </ns3:TrackPointExtension>
        </extensions>
      </trkpt>
      <trkpt lat="45.320756994187831878662109375" lon="-70.807212330400943756103515625">
        <ele>901.20001220703125</ele>
        <time>2026-08-21T12:39:23.000Z</time>
        <extensions>
          <ns3:TrackPointExtension>
            <ns3:hr>143</ns3:hr>
            <ns3:cad>62</ns3:cad>
          </ns3:TrackPointExtension>
        </extensions>
      </trkpt>
      <trkpt lat="45.32076043076813220977783203125" lon="-70.80719481222331523895263671875">
        <ele>901.20001220703125</ele>
        <time>2026-08-21T12:39:24.000Z</time>
        <extensions>
          <ns3:TrackPointExtension>
            <ns3:hr>143</ns3:hr>
            <ns3:cad>62</ns3:cad>
          </ns3:TrackPointExtension>
        </extensions>
      </trkpt>
      <trkpt lat="45.3207595087587833404541015625" lon="-70.80717436037957668304443359375">
        <ele>901.20001220703125</ele>
        <time>2026-08-21T12:39:25.000Z</time>
        <extensions>
          <ns3:TrackPointExtension>
            <ns3:hr>144</ns3:hr>
            <ns3:cad>62</ns3:cad>
          </ns3:TrackPointExtension>
        </extensions>
      </trkpt>
      <trkpt lat="45.32075464725494384765625" lon="-70.80716044642031192779541015625">
        <ele>901.20001220703125</ele>
        <time>2026-08-21T12:39:26.000Z</time>
        <extensions>
          <ns3:TrackPointExtension>
            <ns3:hr>144</ns3:hr>
            <ns3:cad>62</ns3:cad>
          </ns3:TrackPointExtension>
        </extensions>
      </trkpt>
      <trkpt lat="45.3207481093704700469970703125" lon="-70.80715524964034557342529296875">
        <ele>901.20001220703125</ele>
        <time>2026-08-21T12:39:27.000Z</time>
        <extensions>
          <ns3:TrackPointExtension>
            <ns3:hr>144</ns3:hr>
            <ns3:cad>62</ns3:cad>
          </ns3:TrackPointExtension>
        </extensions>
      </trkpt>
      <trkpt lat="45.32074391841888427734375" lon="-70.80715139396488666534423828125">
        <ele>901.20001220703125</ele>
        <time>2026-08-21T12:39:28.000Z</time>
        <extensions>
          <ns3:TrackPointExtension>
            <ns3:hr>145</ns3:hr>
            <ns3:cad>0</ns3:cad>
          </ns3:TrackPointExtension>
        </extensions>
      </trkpt>
      <trkpt lat="45.320736877620220184326171875" lon="-70.80714485608041286468505859375">
        <ele>901.4000244140625</ele>
        <time>2026-08-21T12:39:29.000Z</time>
        <extensions>
          <ns3:TrackPointExtension>
            <ns3:hr>145</ns3:hr>
            <ns3:cad>0</ns3:cad>
          </ns3:TrackPointExtension>
        </extensions>
      </trkpt>
      <trkpt lat="45.32073318958282470703125" lon="-70.8071409165859222412109375">
        <ele>901.5999755859375</ele>
        <time>2026-08-21T12:39:30.000Z</time>
        <extensions>
          <ns3:TrackPointExtension>
            <ns3:hr>145</ns3:hr>
            <ns3:cad>0</ns3:cad>
          </ns3:TrackPointExtension>
        </extensions>
      </trkpt>
      <trkpt lat="45.320726819336414337158203125" lon="-70.80714401789009571075439453125">
        <ele>902</ele>
        <time>2026-08-21T12:39:31.000Z</time>
        <extensions>
          <ns3:TrackPointExtension>
            <ns3:hr>145</ns3:hr>
            <ns3:cad>0</ns3:cad>
          </ns3:TrackPointExtension>
        </extensions>
      </trkpt>
      <trkpt lat="45.3207229636609554290771484375" lon="-70.80714670009911060333251953125">
        <ele>902.20001220703125</ele>
        <time>2026-08-21T12:39:32.000Z</time>
        <extensions>
          <ns3:TrackPointExtension>
            <ns3:hr>146</ns3:hr>
            <ns3:cad>0</ns3:cad>
          </ns3:TrackPointExtension>
        </extensions>
      </trkpt>
      <trkpt lat="45.32071969471871852874755859375" lon="-70.80715424381196498870849609375">
        <ele>902.4000244140625</ele>
        <time>2026-08-21T12:39:33.000Z</time>
        <extensions>
          <ns3:TrackPointExtension>
            <ns3:hr>146</ns3:hr>
            <ns3:cad>0</ns3:cad>
          </ns3:TrackPointExtension>
        </extensions>
      </trkpt>
      <trkpt lat="45.32071416266262531280517578125" lon="-70.80715323798358440399169921875">
        <ele>902.5999755859375</ele>
        <time>2026-08-21T12:39:34.000Z</time>
        <extensions>
          <ns3:TrackPointExtension>
            <ns3:hr>146</ns3:hr>
            <ns3:cad>0</ns3:cad>
          </ns3:TrackPointExtension>
        </extensions>
      </trkpt>
      <trkpt lat="45.32070645131170749664306640625" lon="-70.80715633928775787353515625">
        <ele>902.79998779296875</ele>
        <time>2026-08-21T12:39:35.000Z</time>
        <extensions>
          <ns3:TrackPointExtension>
            <ns3:hr>146</ns3:hr>
            <ns3:cad>0</ns3:cad>
          </ns3:TrackPointExtension>
        </extensions>
      </trkpt>
      <trkpt lat="45.3206958062946796417236328125" lon="-70.80716061405837535858154296875">
        <ele>903</ele>
        <time>2026-08-21T12:39:36.000Z</time>
        <extensions>
          <ns3:TrackPointExtension>
            <ns3:hr>145</ns3:hr>
            <ns3:cad>0</ns3:cad>
          </ns3:TrackPointExtension>
        </extensions>
      </trkpt>
      <trkpt lat="45.32069086097180843353271484375" lon="-70.80716061405837535858154296875">
        <ele>903.4000244140625</ele>
        <time>2026-08-21T12:39:37.000Z</time>
        <extensions>
          <ns3:TrackPointExtension>
            <ns3:hr>145</ns3:hr>
            <ns3:cad>0</ns3:cad>
          </ns3:TrackPointExtension>
        </extensions>
      </trkpt>
      <trkpt lat="45.320682227611541748046875" lon="-70.80716480500996112823486328125">
        <ele>903.5999755859375</ele>
        <time>2026-08-21T12:39:38.000Z</time>
        <extensions>
          <ns3:TrackPointExtension>
            <ns3:hr>145</ns3:hr>
            <ns3:cad>0</ns3:cad>
          </ns3:TrackPointExtension>
        </extensions>
      </trkpt>
      <trkpt lat="45.32067946158349514007568359375" lon="-70.8071632124483585357666015625">
        <ele>903.79998779296875</ele>
        <time>2026-08-21T12:39:39.000Z</time>
        <extensions>
          <ns3:TrackPointExtension>
            <ns3:hr>145</ns3:hr>
            <ns3:cad>0</ns3:cad>
          </ns3:TrackPointExtension>
        </extensions>
      </trkpt>
      <trkpt lat="45.32067744992673397064208984375" lon="-70.8071591891348361968994140625">
        <ele>904</ele>
        <time>2026-08-21T12:39:40.000Z</time>
        <extensions>
          <ns3:TrackPointExtension>
            <ns3:hr>144</ns3:hr>
            <ns3:cad>42</ns3:cad>
          </ns3:TrackPointExtension>
        </extensions>
      </trkpt>
      <trkpt lat="45.32067543826997280120849609375" lon="-70.8071544952690601348876953125">
        <ele>904.20001220703125</ele>
        <time>2026-08-21T12:39:41.000Z</time>
        <extensions>
          <ns3:TrackPointExtension>
            <ns3:hr>144</ns3:hr>
            <ns3:cad>42</ns3:cad>
          </ns3:TrackPointExtension>
        </extensions>
      </trkpt>
      <trkpt lat="45.320675186812877655029296875" lon="-70.8071477897465229034423828125">
        <ele>904.4000244140625</ele>
        <time>2026-08-21T12:39:42.000Z</time>
        <extensions>
          <ns3:TrackPointExtension>
            <ns3:hr>145</ns3:hr>
            <ns3:cad>44</ns3:cad>
          </ns3:TrackPointExtension>
        </extensions>
      </trkpt>
      <trkpt lat="45.3206720016896724700927734375" lon="-70.80714150331914424896240234375">
        <ele>904.5999755859375</ele>
        <time>2026-08-21T12:39:43.000Z</time>
        <extensions>
          <ns3:TrackPointExtension>
            <ns3:hr>145</ns3:hr>
            <ns3:cad>44</ns3:cad>
          </ns3:TrackPointExtension>
        </extensions>
      </trkpt>
      <trkpt lat="45.32066722400486469268798828125" lon="-70.8071353845298290252685546875">
        <ele>904.79998779296875</ele>
        <time>2026-08-21T12:39:44.000Z</time>
        <extensions>
          <ns3:TrackPointExtension>
            <ns3:hr>147</ns3:hr>
            <ns3:cad>43</ns3:cad>
          </ns3:TrackPointExtension>
        </extensions>
      </trkpt>
      <trkpt lat="45.3206639550626277923583984375" lon="-70.80713110975921154022216796875">
        <ele>905</ele>
        <time>2026-08-21T12:39:45.000Z</time>
        <extensions>
          <ns3:TrackPointExtension>
            <ns3:hr>147</ns3:hr>
            <ns3:cad>42</ns3:cad>
          </ns3:TrackPointExtension>
        </extensions>
      </trkpt>
      <trkpt lat="45.320661775767803192138671875" lon="-70.8071270026266574859619140625">
        <ele>905</ele>
        <time>2026-08-21T12:39:46.000Z</time>
        <extensions>
          <ns3:TrackPointExtension>
            <ns3:hr>150</ns3:hr>
            <ns3:cad>42</ns3:cad>
          </ns3:TrackPointExtension>
        </extensions>
      </trkpt>
      <trkpt lat="45.32065934501588344573974609375" lon="-70.80712105147540569305419921875">
        <ele>905.20001220703125</ele>
        <time>2026-08-21T12:39:47.000Z</time>
        <extensions>
          <ns3:TrackPointExtension>
            <ns3:hr>151</ns3:hr>
            <ns3:cad>41</ns3:cad>
          </ns3:TrackPointExtension>
        </extensions>
      </trkpt>
      <trkpt lat="45.320657081902027130126953125" lon="-70.8071166090667247772216796875">
        <ele>905.4000244140625</ele>
        <time>2026-08-21T12:39:48.000Z</time>
        <extensions>
          <ns3:TrackPointExtension>
            <ns3:hr>151</ns3:hr>
            <ns3:cad>41</ns3:cad>
          </ns3:TrackPointExtension>
        </extensions>
      </trkpt>
      <trkpt lat="45.32065180130302906036376953125" lon="-70.807112753391265869140625">
        <ele>905.5999755859375</ele>
        <time>2026-08-21T12:39:49.000Z</time>
        <extensions>
          <ns3:TrackPointExtension>
            <ns3:hr>150</ns3:hr>
            <ns3:cad>41</ns3:cad>
          </ns3:TrackPointExtension>
        </extensions>
      </trkpt>
      <trkpt lat="45.3206475265324115753173828125" lon="-70.8071092329919338226318359375">
        <ele>905.79998779296875</ele>
        <time>2026-08-21T12:39:50.000Z</time>
        <extensions>
          <ns3:TrackPointExtension>
            <ns3:hr>150</ns3:hr>
            <ns3:cad>41</ns3:cad>
          </ns3:TrackPointExtension>
        </extensions>
      </trkpt>
      <trkpt lat="45.32064308412373065948486328125" lon="-70.807106383144855499267578125">
        <ele>906</ele>
        <time>2026-08-21T12:39:51.000Z</time>
        <extensions>
          <ns3:TrackPointExtension>
            <ns3:hr>150</ns3:hr>
            <ns3:cad>40</ns3:cad>
          </ns3:TrackPointExtension>
        </extensions>
      </trkpt>
      <trkpt lat="45.32064132392406463623046875" lon="-70.8071038685739040374755859375">
        <ele>906.20001220703125</ele>
        <time>2026-08-21T12:39:52.000Z</time>
        <extensions>
          <ns3:TrackPointExtension>
            <ns3:hr>150</ns3:hr>
            <ns3:cad>40</ns3:cad>
          </ns3:TrackPointExtension>
        </extensions>
      </trkpt>
      <trkpt lat="45.32064266502857208251953125" lon="-70.80709808506071567535400390625">
        <ele>906.20001220703125</ele>
        <time>2026-08-21T12:39:53.000Z</time>
        <extensions>
          <ns3:TrackPointExtension>
            <ns3:hr>148</ns3:hr>
            <ns3:cad>40</ns3:cad>
          </ns3:TrackPointExtension>
        </extensions>
      </trkpt>
      <trkpt lat="45.3206424973905086517333984375" lon="-70.80708936788141727447509765625">
        <ele>906.4000244140625</ele>
        <time>2026-08-21T12:39:54.000Z</time>
        <extensions>
          <ns3:TrackPointExtension>
            <ns3:hr>148</ns3:hr>
            <ns3:cad>0</ns3:cad>
          </ns3:TrackPointExtension>
        </extensions>
      </trkpt>
      <trkpt lat="45.32064073719084262847900390625" lon="-70.80708115361630916595458984375">
        <ele>906.4000244140625</ele>
        <time>2026-08-21T12:39:55.000Z</time>
        <extensions>
          <ns3:TrackPointExtension>
            <ns3:hr>147</ns3:hr>
            <ns3:cad>0</ns3:cad>
          </ns3:TrackPointExtension>
        </extensions>
      </trkpt>
      <trkpt lat="45.320638306438922882080078125" lon="-70.80706841312348842620849609375">
        <ele>906.5999755859375</ele>
        <time>2026-08-21T12:39:56.000Z</time>
        <extensions>
          <ns3:TrackPointExtension>
            <ns3:hr>146</ns3:hr>
            <ns3:cad>0</ns3:cad>
          </ns3:TrackPointExtension>
        </extensions>
      </trkpt>
      <trkpt lat="45.32063168473541736602783203125" lon="-70.80706053413450717926025390625">
        <ele>906.5999755859375</ele>
        <time>2026-08-21T12:39:57.000Z</time>
        <extensions>
          <ns3:TrackPointExtension>
            <ns3:hr>146</ns3:hr>
            <ns3:cad>42</ns3:cad>
          </ns3:TrackPointExtension>
        </extensions>
      </trkpt>
      <trkpt lat="45.3206207044422626495361328125" lon="-70.8070508949458599090576171875">
        <ele>906.5999755859375</ele>
        <time>2026-08-21T12:39:58.000Z</time>
        <extensions>
          <ns3:TrackPointExtension>
            <ns3:hr>146</ns3:hr>
            <ns3:cad>42</ns3:cad>
          </ns3:TrackPointExtension>
        </extensions>
      </trkpt>
      <trkpt lat="45.32061475329101085662841796875" lon="-70.8070451952517032623291015625">
        <ele>906.5999755859375</ele>
        <time>2026-08-21T12:39:59.000Z</time>
        <extensions>
          <ns3:TrackPointExtension>
            <ns3:hr>145</ns3:hr>
            <ns3:cad>0</ns3:cad>
          </ns3:TrackPointExtension>
        </extensions>
      </trkpt>
      <trkpt lat="45.32061257399618625640869140625" lon="-70.8070451952517032623291015625">
        <ele>906.79998779296875</ele>
        <time>2026-08-21T12:40:00.000Z</time>
        <extensions>
          <ns3:TrackPointExtension>
            <ns3:hr>145</ns3:hr>
            <ns3:cad>0</ns3:cad>
          </ns3:TrackPointExtension>
        </extensions>
      </trkpt>
      <trkpt lat="45.32060653902590274810791015625" lon="-70.80704024992883205413818359375">
        <ele>907</ele>
        <time>2026-08-21T12:40:01.000Z</time>
        <extensions>
          <ns3:TrackPointExtension>
            <ns3:hr>146</ns3:hr>
            <ns3:cad>0</ns3:cad>
          </ns3:TrackPointExtension>
        </extensions>
      </trkpt>
      <trkpt lat="45.32059916295111179351806640625" lon="-70.8070374839007854461669921875">
        <ele>907.20001220703125</ele>
        <time>2026-08-21T12:40:02.000Z</time>
        <extensions>
          <ns3:TrackPointExtension>
            <ns3:hr>146</ns3:hr>
            <ns3:cad>0</ns3:cad>
          </ns3:TrackPointExtension>
        </extensions>
      </trkpt>
      <trkpt lat="45.320596396923065185546875" lon="-70.80703957937657833099365234375">
        <ele>907.4000244140625</ele>
        <time>2026-08-21T12:40:03.000Z</time>
        <extensions>
          <ns3:TrackPointExtension>
            <ns3:hr>146</ns3:hr>
            <ns3:cad>0</ns3:cad>
          </ns3:TrackPointExtension>
        </extensions>
      </trkpt>
      <trkpt lat="45.3205962292850017547607421875" lon="-70.80704561434686183929443359375">
        <ele>907.5999755859375</ele>
        <time>2026-08-21T12:40:04.000Z</time>
        <extensions>
          <ns3:TrackPointExtension>
            <ns3:hr>146</ns3:hr>
            <ns3:cad>0</ns3:cad>
          </ns3:TrackPointExtension>
        </extensions>
      </trkpt>
      <trkpt lat="45.3205989114940166473388671875" lon="-70.8070524036884307861328125">
        <ele>907.79998779296875</ele>
        <time>2026-08-21T12:40:05.000Z</time>
        <extensions>
          <ns3:TrackPointExtension>
            <ns3:hr>146</ns3:hr>
            <ns3:cad>0</ns3:cad>
          </ns3:TrackPointExtension>
        </extensions>
      </trkpt>
      <trkpt lat="45.320601761341094970703125" lon="-70.80705617554485797882080078125">
        <ele>908</ele>
        <time>2026-08-21T12:40:06.000Z</time>
        <extensions>
          <ns3:TrackPointExtension>
            <ns3:hr>145</ns3:hr>
            <ns3:cad>0</ns3:cad>
          </ns3:TrackPointExtension>
        </extensions>
      </trkpt>
      <trkpt lat="45.32060083933174610137939453125" lon="-70.80705919302999973297119140625">
        <ele>908</ele>
        <time>2026-08-21T12:40:07.000Z</time>
        <extensions>
          <ns3:TrackPointExtension>
            <ns3:hr>145</ns3:hr>
            <ns3:cad>0</ns3:cad>
          </ns3:TrackPointExtension>
        </extensions>
      </trkpt>
      <trkpt lat="45.3205972351133823394775390625" lon="-70.80706288106739521026611328125">
        <ele>908.20001220703125</ele>
        <time>2026-08-21T12:40:08.000Z</time>
        <extensions>
          <ns3:TrackPointExtension>
            <ns3:hr>146</ns3:hr>
            <ns3:cad>0</ns3:cad>
          </ns3:TrackPointExtension>
        </extensions>
      </trkpt>
      <trkpt lat="45.32058776356279850006103515625" lon="-70.8070572651922702789306640625">
        <ele>908.4000244140625</ele>
        <time>2026-08-21T12:40:09.000Z</time>
        <extensions>
          <ns3:TrackPointExtension>
            <ns3:hr>147</ns3:hr>
            <ns3:cad>0</ns3:cad>
          </ns3:TrackPointExtension>
        </extensions>
      </trkpt>
      <trkpt lat="45.32058541662991046905517578125" lon="-70.80705332569777965545654296875">
        <ele>908.5999755859375</ele>
        <time>2026-08-21T12:40:10.000Z</time>
        <extensions>
          <ns3:TrackPointExtension>
            <ns3:hr>146</ns3:hr>
            <ns3:cad>0</ns3:cad>
          </ns3:TrackPointExtension>
        </extensions>
      </trkpt>
      <trkpt lat="45.32058323733508586883544921875" lon="-70.8070470392704010009765625">
        <ele>908.79998779296875</ele>
        <time>2026-08-21T12:40:11.000Z</time>
        <extensions>
          <ns3:TrackPointExtension>
            <ns3:hr>146</ns3:hr>
            <ns3:cad>43</ns3:cad>
          </ns3:TrackPointExtension>
        </extensions>
      </trkpt>
      <trkpt lat="45.320580303668975830078125" lon="-70.8070368133485317230224609375">
        <ele>909</ele>
        <time>2026-08-21T12:40:12.000Z</time>
        <extensions>
          <ns3:TrackPointExtension>
            <ns3:hr>146</ns3:hr>
            <ns3:cad>43</ns3:cad>
          </ns3:TrackPointExtension>
        </extensions>
      </trkpt>
      <trkpt lat="45.32057560980319976806640625" lon="-70.80702734179794788360595703125">
        <ele>909.20001220703125</ele>
        <time>2026-08-21T12:40:13.000Z</time>
        <extensions>
          <ns3:TrackPointExtension>
            <ns3:hr>147</ns3:hr>
            <ns3:cad>42</ns3:cad>
          </ns3:TrackPointExtension>
        </extensions>
      </trkpt>
      <trkpt lat="45.320571921765804290771484375" lon="-70.80702348612248897552490234375">
        <ele>909.20001220703125</ele>
        <time>2026-08-21T12:40:14.000Z</time>
        <extensions>
          <ns3:TrackPointExtension>
            <ns3:hr>146</ns3:hr>
            <ns3:cad>42</ns3:cad>
          </ns3:TrackPointExtension>
        </extensions>
      </trkpt>
      <trkpt lat="45.32056479714810848236083984375" lon="-70.8070180378854274749755859375">
        <ele>909.4000244140625</ele>
        <time>2026-08-21T12:40:15.000Z</time>
        <extensions>
          <ns3:TrackPointExtension>
            <ns3:hr>146</ns3:hr>
            <ns3:cad>0</ns3:cad>
          </ns3:TrackPointExtension>
        </extensions>
      </trkpt>
      <trkpt lat="45.32055926509201526641845703125" lon="-70.8070146851241588592529296875">
        <ele>909.4000244140625</ele>
        <time>2026-08-21T12:40:16.000Z</time>
        <extensions>
          <ns3:TrackPointExtension>
            <ns3:hr>145</ns3:hr>
            <ns3:cad>0</ns3:cad>
          </ns3:TrackPointExtension>
        </extensions>
      </trkpt>
      <trkpt lat="45.3205536492168903350830078125" lon="-70.80701242201030254364013671875">
        <ele>909.5999755859375</ele>
        <time>2026-08-21T12:40:17.000Z</time>
        <extensions>
          <ns3:TrackPointExtension>
            <ns3:hr>145</ns3:hr>
            <ns3:cad>0</ns3:cad>
          </ns3:TrackPointExtension>
        </extensions>
      </trkpt>
      <trkpt lat="45.32054702751338481903076171875" lon="-70.80701393075287342071533203125">
        <ele>909.79998779296875</ele>
        <time>2026-08-21T12:40:18.000Z</time>
        <extensions>
          <ns3:TrackPointExtension>
            <ns3:hr>144</ns3:hr>
            <ns3:cad>75</ns3:cad>
          </ns3:TrackPointExtension>
        </extensions>
      </trkpt>
      <trkpt lat="45.32053881324827671051025390625" lon="-70.8070133440196514129638671875">
        <ele>910</ele>
        <time>2026-08-21T12:40:19.000Z</time>
        <extensions>
          <ns3:TrackPointExtension>
            <ns3:hr>144</ns3:hr>
            <ns3:cad>75</ns3:cad>
          </ns3:TrackPointExtension>
        </extensions>
      </trkpt>
      <trkpt lat="45.32052925787866115570068359375" lon="-70.807015858590602874755859375">
        <ele>910.4000244140625</ele>
        <time>2026-08-21T12:40:20.000Z</time>
        <extensions>
          <ns3:TrackPointExtension>
            <ns3:hr>144</ns3:hr>
            <ns3:cad>63</ns3:cad>
          </ns3:TrackPointExtension>
        </extensions>
      </trkpt>
      <trkpt lat="45.32052054069936275482177734375" lon="-70.80701426602900028228759765625">
        <ele>910.5999755859375</ele>
        <time>2026-08-21T12:40:21.000Z</time>
        <extensions>
          <ns3:TrackPointExtension>
            <ns3:hr>144</ns3:hr>
            <ns3:cad>63</ns3:cad>
          </ns3:TrackPointExtension>
        </extensions>
      </trkpt>
      <trkpt lat="45.3205171041190624237060546875" lon="-70.8070109970867633819580078125">
        <ele>910.79998779296875</ele>
        <time>2026-08-21T12:40:22.000Z</time>
        <extensions>
          <ns3:TrackPointExtension>
            <ns3:hr>143</ns3:hr>
            <ns3:cad>63</ns3:cad>
          </ns3:TrackPointExtension>
        </extensions>
      </trkpt>
      <trkpt lat="45.320510230958461761474609375" lon="-70.80700655467808246612548828125">
        <ele>911</ele>
        <time>2026-08-21T12:40:23.000Z</time>
        <extensions>
          <ns3:TrackPointExtension>
            <ns3:hr>143</ns3:hr>
            <ns3:cad>63</ns3:cad>
          </ns3:TrackPointExtension>
        </extensions>
      </trkpt>
      <trkpt lat="45.3205073811113834381103515625" lon="-70.80700135789811611175537109375">
        <ele>911.20001220703125</ele>
        <time>2026-08-21T12:40:24.000Z</time>
        <extensions>
          <ns3:TrackPointExtension>
            <ns3:hr>143</ns3:hr>
            <ns3:cad>63</ns3:cad>
          </ns3:TrackPointExtension>
        </extensions>
      </trkpt>
      <trkpt lat="45.32050277106463909149169921875" lon="-70.80699398182332515716552734375">
        <ele>911.4000244140625</ele>
        <time>2026-08-21T12:40:25.000Z</time>
        <extensions>
          <ns3:TrackPointExtension>
            <ns3:hr>143</ns3:hr>
            <ns3:cad>73</ns3:cad>
          </ns3:TrackPointExtension>
        </extensions>
      </trkpt>
      <trkpt lat="45.32049707137048244476318359375" lon="-70.80698895268142223358154296875">
        <ele>911.5999755859375</ele>
        <time>2026-08-21T12:40:26.000Z</time>
        <extensions>
          <ns3:TrackPointExtension>
            <ns3:hr>143</ns3:hr>
            <ns3:cad>78</ns3:cad>
          </ns3:TrackPointExtension>
        </extensions>
      </trkpt>
      <trkpt lat="45.32049187459051609039306640625" lon="-70.80698870122432708740234375">
        <ele>911.79998779296875</ele>
        <time>2026-08-21T12:40:27.000Z</time>
        <extensions>
          <ns3:TrackPointExtension>
            <ns3:hr>142</ns3:hr>
            <ns3:cad>78</ns3:cad>
          </ns3:TrackPointExtension>
        </extensions>
      </trkpt>
      <trkpt lat="45.32048416323959827423095703125" lon="-70.80698811449110507965087890625">
        <ele>912</ele>
        <time>2026-08-21T12:40:28.000Z</time>
        <extensions>
          <ns3:TrackPointExtension>
            <ns3:hr>143</ns3:hr>
            <ns3:cad>77</ns3:cad>
          </ns3:TrackPointExtension>
        </extensions>
      </trkpt>
      <trkpt lat="45.3204770386219024658203125" lon="-70.806990377604961395263671875">
        <ele>912</ele>
        <time>2026-08-21T12:40:29.000Z</time>
        <extensions>
          <ns3:TrackPointExtension>
            <ns3:hr>142</ns3:hr>
            <ns3:cad>77</ns3:cad>
          </ns3:TrackPointExtension>
        </extensions>
      </trkpt>
      <trkpt lat="45.32046698033809661865234375" lon="-70.80699272453784942626953125">
        <ele>912.20001220703125</ele>
        <time>2026-08-21T12:40:30.000Z</time>
        <extensions>
          <ns3:TrackPointExtension>
            <ns3:hr>142</ns3:hr>
            <ns3:cad>43</ns3:cad>
          </ns3:TrackPointExtension>
        </extensions>
      </trkpt>
      <trkpt lat="45.32045465894043445587158203125" lon="-70.8069975860416889190673828125">
        <ele>912.20001220703125</ele>
        <time>2026-08-21T12:40:31.000Z</time>
        <extensions>
          <ns3:TrackPointExtension>
            <ns3:hr>142</ns3:hr>
            <ns3:cad>43</ns3:cad>
          </ns3:TrackPointExtension>
        </extensions>
      </trkpt>
      <trkpt lat="45.32043973915278911590576171875" lon="-70.80700186081230640411376953125">
        <ele>912.20001220703125</ele>
        <time>2026-08-21T12:40:32.000Z</time>
        <extensions>
          <ns3:TrackPointExtension>
            <ns3:hr>143</ns3:hr>
            <ns3:cad>0</ns3:cad>
          </ns3:TrackPointExtension>
        </extensions>
      </trkpt>
      <trkpt lat="45.32043018378317356109619140625" lon="-70.80700621940195560455322265625">
        <ele>912.20001220703125</ele>
        <time>2026-08-21T12:40:33.000Z</time>
        <extensions>
          <ns3:TrackPointExtension>
            <ns3:hr>142</ns3:hr>
            <ns3:cad>0</ns3:cad>
          </ns3:TrackPointExtension>
        </extensions>
      </trkpt>
      <trkpt lat="45.32042205333709716796875" lon="-70.807009153068065643310546875">
        <ele>912.4000244140625</ele>
        <time>2026-08-21T12:40:34.000Z</time>
        <extensions>
          <ns3:TrackPointExtension>
            <ns3:hr>142</ns3:hr>
            <ns3:cad>0</ns3:cad>
          </ns3:TrackPointExtension>
        </extensions>
      </trkpt>
      <trkpt lat="45.32041191123425960540771484375" lon="-70.80701418220996856689453125">
        <ele>912.4000244140625</ele>
        <time>2026-08-21T12:40:35.000Z</time>
        <extensions>
          <ns3:TrackPointExtension>
            <ns3:hr>143</ns3:hr>
            <ns3:cad>0</ns3:cad>
          </ns3:TrackPointExtension>
        </extensions>
      </trkpt>
      <trkpt lat="45.32040051184594631195068359375" lon="-70.80702180974185466766357421875">
        <ele>912.5999755859375</ele>
        <time>2026-08-21T12:40:36.000Z</time>
        <extensions>
          <ns3:TrackPointExtension>
            <ns3:hr>143</ns3:hr>
            <ns3:cad>0</ns3:cad>
          </ns3:TrackPointExtension>
        </extensions>
      </trkpt>
      <trkpt lat="45.320392884314060211181640625" lon="-70.80703488551080226898193359375">
        <ele>912.79998779296875</ele>
        <time>2026-08-21T12:40:37.000Z</time>
        <extensions>
          <ns3:TrackPointExtension>
            <ns3:hr>143</ns3:hr>
            <ns3:cad>0</ns3:cad>
          </ns3:TrackPointExtension>
        </extensions>
      </trkpt>
      <trkpt lat="45.3203885257244110107421875" lon="-70.8070505596697330474853515625">
        <ele>912.79998779296875</ele>
        <time>2026-08-21T12:40:38.000Z</time>
        <extensions>
          <ns3:TrackPointExtension>
            <ns3:hr>143</ns3:hr>
            <ns3:cad>45</ns3:cad>
          </ns3:TrackPointExtension>
        </extensions>
      </trkpt>
      <trkpt lat="45.32038140110671520233154296875" lon="-70.80706204287707805633544921875">
        <ele>912.79998779296875</ele>
        <time>2026-08-21T12:40:39.000Z</time>
        <extensions>
          <ns3:TrackPointExtension>
            <ns3:hr>142</ns3:hr>
            <ns3:cad>48</ns3:cad>
          </ns3:TrackPointExtension>
        </extensions>
      </trkpt>
      <trkpt lat="45.32037117518484592437744140625" lon="-70.8070819079875946044921875">
        <ele>912.79998779296875</ele>
        <time>2026-08-21T12:40:40.000Z</time>
        <extensions>
          <ns3:TrackPointExtension>
            <ns3:hr>142</ns3:hr>
            <ns3:cad>50</ns3:cad>
          </ns3:TrackPointExtension>
        </extensions>
      </trkpt>
      <trkpt lat="45.320362709462642669677734375" lon="-70.80709288828074932098388671875">
        <ele>912.79998779296875</ele>
        <time>2026-08-21T12:40:41.000Z</time>
        <extensions>
          <ns3:TrackPointExtension>
            <ns3:hr>142</ns3:hr>
            <ns3:cad>50</ns3:cad>
          </ns3:TrackPointExtension>
        </extensions>
      </trkpt>
      <trkpt lat="45.32035508193075656890869140625" lon="-70.807096995413303375244140625">
        <ele>912.79998779296875</ele>
        <time>2026-08-21T12:40:42.000Z</time>
        <extensions>
          <ns3:TrackPointExtension>
            <ns3:hr>142</ns3:hr>
            <ns3:cad>50</ns3:cad>
          </ns3:TrackPointExtension>
        </extensions>
      </trkpt>
      <trkpt lat="45.32034787349402904510498046875" lon="-70.80709774978458881378173828125">
        <ele>913</ele>
        <time>2026-08-21T12:40:43.000Z</time>
        <extensions>
          <ns3:TrackPointExtension>
            <ns3:hr>142</ns3:hr>
            <ns3:cad>50</ns3:cad>
          </ns3:TrackPointExtension>
        </extensions>
      </trkpt>
      <trkpt lat="45.32034133560955524444580078125" lon="-70.8071005158126354217529296875">
        <ele>913.20001220703125</ele>
        <time>2026-08-21T12:40:44.000Z</time>
        <extensions>
          <ns3:TrackPointExtension>
            <ns3:hr>143</ns3:hr>
            <ns3:cad>52</ns3:cad>
          </ns3:TrackPointExtension>
        </extensions>
      </trkpt>
      <trkpt lat="45.3203296847641468048095703125" lon="-70.80710177309811115264892578125">
        <ele>913.5999755859375</ele>
        <time>2026-08-21T12:40:45.000Z</time>
        <extensions>
          <ns3:TrackPointExtension>
            <ns3:hr>143</ns3:hr>
            <ns3:cad>52</ns3:cad>
          </ns3:TrackPointExtension>
        </extensions>
      </trkpt>
      <trkpt lat="45.3203236497938632965087890625" lon="-70.8071018569171428680419921875">
        <ele>913.79998779296875</ele>
        <time>2026-08-21T12:40:46.000Z</time>
        <extensions>
          <ns3:TrackPointExtension>
            <ns3:hr>143</ns3:hr>
            <ns3:cad>52</ns3:cad>
          </ns3:TrackPointExtension>
        </extensions>
      </trkpt>
      <trkpt lat="45.32031468115746974945068359375" lon="-70.8071060478687286376953125">
        <ele>913.79998779296875</ele>
        <time>2026-08-21T12:40:47.000Z</time>
        <extensions>
          <ns3:TrackPointExtension>
            <ns3:hr>143</ns3:hr>
            <ns3:cad>48</ns3:cad>
          </ns3:TrackPointExtension>
        </extensions>
      </trkpt>
      <trkpt lat="45.32030462287366390228271484375" lon="-70.8071122504770755767822265625">
        <ele>913.79998779296875</ele>
        <time>2026-08-21T12:40:48.000Z</time>
        <extensions>
          <ns3:TrackPointExtension>
            <ns3:hr>142</ns3:hr>
            <ns3:cad>48</ns3:cad>
          </ns3:TrackPointExtension>
        </extensions>
      </trkpt>
      <trkpt lat="45.32029255293309688568115234375" lon="-70.80711484886705875396728515625">
        <ele>914</ele>
        <time>2026-08-21T12:40:49.000Z</time>
        <extensions>
          <ns3:TrackPointExtension>
            <ns3:hr>140</ns3:hr>
            <ns3:cad>48</ns3:cad>
          </ns3:TrackPointExtension>
        </extensions>
      </trkpt>
      <trkpt lat="45.3202827461063861846923828125" lon="-70.80711551941931247711181640625">
        <ele>914</ele>
        <time>2026-08-21T12:40:50.000Z</time>
        <extensions>
          <ns3:TrackPointExtension>
            <ns3:hr>139</ns3:hr>
            <ns3:cad>48</ns3:cad>
          </ns3:TrackPointExtension>
        </extensions>
      </trkpt>
      <trkpt lat="45.32027176581323146820068359375" lon="-70.80711769871413707733154296875">
        <ele>914</ele>
        <time>2026-08-21T12:40:51.000Z</time>
        <extensions>
          <ns3:TrackPointExtension>
            <ns3:hr>139</ns3:hr>
            <ns3:cad>49</ns3:cad>
          </ns3:TrackPointExtension>
        </extensions>
      </trkpt>
      <trkpt lat="45.320264138281345367431640625" lon="-70.8071246556937694549560546875">
        <ele>914</ele>
        <time>2026-08-21T12:40:52.000Z</time>
        <extensions>
          <ns3:TrackPointExtension>
            <ns3:hr>139</ns3:hr>
            <ns3:cad>49</ns3:cad>
          </ns3:TrackPointExtension>
        </extensions>
      </trkpt>
      <trkpt lat="45.3202639706432819366455078125" lon="-70.80712121911346912384033203125">
        <ele>914</ele>
        <time>2026-08-21T12:40:53.000Z</time>
        <extensions>
          <ns3:TrackPointExtension>
            <ns3:hr>140</ns3:hr>
            <ns3:cad>49</ns3:cad>
          </ns3:TrackPointExtension>
        </extensions>
      </trkpt>
      <trkpt lat="45.32026036642491817474365234375" lon="-70.807115770876407623291015625">
        <ele>914.4000244140625</ele>
        <time>2026-08-21T12:40:54.000Z</time>
        <extensions>
          <ns3:TrackPointExtension>
            <ns3:hr>141</ns3:hr>
            <ns3:cad>0</ns3:cad>
          </ns3:TrackPointExtension>
        </extensions>
      </trkpt>
      <trkpt lat="45.32025449909269809722900390625" lon="-70.8071129210293292999267578125">
        <ele>914.5999755859375</ele>
        <time>2026-08-21T12:40:55.000Z</time>
        <extensions>
          <ns3:TrackPointExtension>
            <ns3:hr>142</ns3:hr>
            <ns3:cad>0</ns3:cad>
          </ns3:TrackPointExtension>
        </extensions>
      </trkpt>
      <trkpt lat="45.3202495537698268890380859375" lon="-70.8071119152009487152099609375">
        <ele>914.79998779296875</ele>
        <time>2026-08-21T12:40:56.000Z</time>
        <extensions>
          <ns3:TrackPointExtension>
            <ns3:hr>142</ns3:hr>
            <ns3:cad>0</ns3:cad>
          </ns3:TrackPointExtension>
        </extensions>
      </trkpt>
      <trkpt lat="45.32024108804762363433837890625" lon="-70.8071058802306652069091796875">
        <ele>915</ele>
        <time>2026-08-21T12:40:57.000Z</time>
        <extensions>
          <ns3:TrackPointExtension>
            <ns3:hr>142</ns3:hr>
            <ns3:cad>0</ns3:cad>
          </ns3:TrackPointExtension>
        </extensions>
      </trkpt>
      <trkpt lat="45.32023555599153041839599609375" lon="-70.80710470676422119140625">
        <ele>915.4000244140625</ele>
        <time>2026-08-21T12:40:58.000Z</time>
        <extensions>
          <ns3:TrackPointExtension>
            <ns3:hr>142</ns3:hr>
            <ns3:cad>0</ns3:cad>
          </ns3:TrackPointExtension>
        </extensions>
      </trkpt>
      <trkpt lat="45.3202280960977077484130859375" lon="-70.80710445530712604522705078125">
        <ele>915.5999755859375</ele>
        <time>2026-08-21T12:40:59.000Z</time>
        <extensions>
          <ns3:TrackPointExtension>
            <ns3:hr>142</ns3:hr>
            <ns3:cad>0</ns3:cad>
          </ns3:TrackPointExtension>
        </extensions>
      </trkpt>
      <trkpt lat="45.320218540728092193603515625" lon="-70.8071028627455234527587890625">
        <ele>915.79998779296875</ele>
        <time>2026-08-21T12:41:00.000Z</time>
        <extensions>
          <ns3:TrackPointExtension>
            <ns3:hr>142</ns3:hr>
            <ns3:cad>0</ns3:cad>
          </ns3:TrackPointExtension>
        </extensions>
      </trkpt>
      <trkpt lat="45.32020990736782550811767578125" lon="-70.80710613168776035308837890625">
        <ele>916.20001220703125</ele>
        <time>2026-08-21T12:41:01.000Z</time>
        <extensions>
          <ns3:TrackPointExtension>
            <ns3:hr>142</ns3:hr>
            <ns3:cad>0</ns3:cad>
          </ns3:TrackPointExtension>
        </extensions>
      </trkpt>
      <trkpt lat="45.32020320184528827667236328125" lon="-70.80710730515420436859130859375">
        <ele>916.4000244140625</ele>
        <time>2026-08-21T12:41:02.000Z</time>
        <extensions>
          <ns3:TrackPointExtension>
            <ns3:hr>142</ns3:hr>
            <ns3:cad>0</ns3:cad>
          </ns3:TrackPointExtension>
        </extensions>
      </trkpt>
      <trkpt lat="45.320194400846958160400390625" lon="-70.8071088977158069610595703125">
        <ele>916.79998779296875</ele>
        <time>2026-08-21T12:41:03.000Z</time>
        <extensions>
          <ns3:TrackPointExtension>
            <ns3:hr>142</ns3:hr>
            <ns3:cad>0</ns3:cad>
          </ns3:TrackPointExtension>
        </extensions>
      </trkpt>
      <trkpt lat="45.32018534839153289794921875" lon="-70.807104371488094329833984375">
        <ele>917</ele>
        <time>2026-08-21T12:41:04.000Z</time>
        <extensions>
          <ns3:TrackPointExtension>
            <ns3:hr>142</ns3:hr>
            <ns3:cad>0</ns3:cad>
          </ns3:TrackPointExtension>
        </extensions>
      </trkpt>
      <trkpt lat="45.32018073834478855133056640625" lon="-70.80710043199360370635986328125">
        <ele>917.4000244140625</ele>
        <time>2026-08-21T12:41:05.000Z</time>
        <extensions>
          <ns3:TrackPointExtension>
            <ns3:hr>142</ns3:hr>
            <ns3:cad>0</ns3:cad>
          </ns3:TrackPointExtension>
        </extensions>
      </trkpt>
      <trkpt lat="45.32017596065998077392578125" lon="-70.8070954866707324981689453125">
        <ele>917.5999755859375</ele>
        <time>2026-08-21T12:41:06.000Z</time>
        <extensions>
          <ns3:TrackPointExtension>
            <ns3:hr>142</ns3:hr>
            <ns3:cad>0</ns3:cad>
          </ns3:TrackPointExtension>
        </extensions>
      </trkpt>
      <trkpt lat="45.32016799785196781158447265625" lon="-70.8070871047675609588623046875">
        <ele>917.79998779296875</ele>
        <time>2026-08-21T12:41:07.000Z</time>
        <extensions>
          <ns3:TrackPointExtension>
            <ns3:hr>141</ns3:hr>
            <ns3:cad>0</ns3:cad>
          </ns3:TrackPointExtension>
        </extensions>
      </trkpt>
      <trkpt lat="45.32016699202358722686767578125" lon="-70.80708467401564121246337890625">
        <ele>918</ele>
        <time>2026-08-21T12:41:08.000Z</time>
        <extensions>
          <ns3:TrackPointExtension>
            <ns3:hr>142</ns3:hr>
            <ns3:cad>0</ns3:cad>
          </ns3:TrackPointExtension>
        </extensions>
      </trkpt>
      <trkpt lat="45.3201640583574771881103515625" lon="-70.80707461573183536529541015625">
        <ele>918.20001220703125</ele>
        <time>2026-08-21T12:41:09.000Z</time>
        <extensions>
          <ns3:TrackPointExtension>
            <ns3:hr>142</ns3:hr>
            <ns3:cad>0</ns3:cad>
          </ns3:TrackPointExtension>
        </extensions>
      </trkpt>
      <trkpt lat="45.32016145996749401092529296875" lon="-70.80706506036221981048583984375">
        <ele>918.4000244140625</ele>
        <time>2026-08-21T12:41:10.000Z</time>
        <extensions>
          <ns3:TrackPointExtension>
            <ns3:hr>142</ns3:hr>
            <ns3:cad>0</ns3:cad>
          </ns3:TrackPointExtension>
        </extensions>
      </trkpt>
      <trkpt lat="45.32015374861657619476318359375" lon="-70.807056427001953125">
        <ele>918.4000244140625</ele>
        <time>2026-08-21T12:41:11.000Z</time>
        <extensions>
          <ns3:TrackPointExtension>
            <ns3:hr>142</ns3:hr>
            <ns3:cad>46</ns3:cad>
          </ns3:TrackPointExtension>
        </extensions>
      </trkpt>
      <trkpt lat="45.32014779746532440185546875" lon="-70.80704377032816410064697265625">
        <ele>918.5999755859375</ele>
        <time>2026-08-21T12:41:12.000Z</time>
        <extensions>
          <ns3:TrackPointExtension>
            <ns3:hr>142</ns3:hr>
            <ns3:cad>46</ns3:cad>
          </ns3:TrackPointExtension>
        </extensions>
      </trkpt>
      <trkpt lat="45.32014184631407260894775390625" lon="-70.80702885054051876068115234375">
        <ele>918.79998779296875</ele>
        <time>2026-08-21T12:41:13.000Z</time>
        <extensions>
          <ns3:TrackPointExtension>
            <ns3:hr>143</ns3:hr>
            <ns3:cad>46</ns3:cad>
          </ns3:TrackPointExtension>
        </extensions>
      </trkpt>
      <trkpt lat="45.32013262622058391571044921875" lon="-70.80702080391347408294677734375">
        <ele>919</ele>
        <time>2026-08-21T12:41:14.000Z</time>
        <extensions>
          <ns3:TrackPointExtension>
            <ns3:hr>144</ns3:hr>
            <ns3:cad>46</ns3:cad>
          </ns3:TrackPointExtension>
        </extensions>
      </trkpt>
      <trkpt lat="45.3201258368790149688720703125" lon="-70.8070133440196514129638671875">
        <ele>919.20001220703125</ele>
        <time>2026-08-21T12:41:15.000Z</time>
        <extensions>
          <ns3:TrackPointExtension>
            <ns3:hr>145</ns3:hr>
            <ns3:cad>0</ns3:cad>
          </ns3:TrackPointExtension>
        </extensions>
      </trkpt>
      <trkpt lat="45.32012022100389003753662109375" lon="-70.80700705759227275848388671875">
        <ele>919.4000244140625</ele>
        <time>2026-08-21T12:41:16.000Z</time>
        <extensions>
          <ns3:TrackPointExtension>
            <ns3:hr>145</ns3:hr>
            <ns3:cad>0</ns3:cad>
          </ns3:TrackPointExtension>
        </extensions>
      </trkpt>
      <trkpt lat="45.3201147727668285369873046875" lon="-70.80700253136456012725830078125">
        <ele>919.5999755859375</ele>
        <time>2026-08-21T12:41:17.000Z</time>
        <extensions>
          <ns3:TrackPointExtension>
            <ns3:hr>146</ns3:hr>
            <ns3:cad>0</ns3:cad>
          </ns3:TrackPointExtension>
        </extensions>
      </trkpt>
      <trkpt lat="45.3201043792068958282470703125" lon="-70.80699515528976917266845703125">
        <ele>919.5999755859375</ele>
        <time>2026-08-21T12:41:18.000Z</time>
        <extensions>
          <ns3:TrackPointExtension>
            <ns3:hr>146</ns3:hr>
            <ns3:cad>0</ns3:cad>
          </ns3:TrackPointExtension>
        </extensions>
      </trkpt>
      <trkpt lat="45.32009876333177089691162109375" lon="-70.80699079670011997222900390625">
        <ele>919.79998779296875</ele>
        <time>2026-08-21T12:41:19.000Z</time>
        <extensions>
          <ns3:TrackPointExtension>
            <ns3:hr>146</ns3:hr>
            <ns3:cad>0</ns3:cad>
          </ns3:TrackPointExtension>
        </extensions>
      </trkpt>
      <trkpt lat="45.320094488561153411865234375" lon="-70.8069835044443607330322265625">
        <ele>920</ele>
        <time>2026-08-21T12:41:20.000Z</time>
        <extensions>
          <ns3:TrackPointExtension>
            <ns3:hr>147</ns3:hr>
            <ns3:cad>0</ns3:cad>
          </ns3:TrackPointExtension>
        </extensions>
      </trkpt>
      <trkpt lat="45.32008904032409191131591796875" lon="-70.80697637982666492462158203125">
        <ele>920.20001220703125</ele>
        <time>2026-08-21T12:41:21.000Z</time>
        <extensions>
          <ns3:TrackPointExtension>
            <ns3:hr>147</ns3:hr>
            <ns3:cad>0</ns3:cad>
          </ns3:TrackPointExtension>
        </extensions>
      </trkpt>
      <trkpt lat="45.320084430277347564697265625" lon="-70.8069731108844280242919921875">
        <ele>920.4000244140625</ele>
        <time>2026-08-21T12:41:22.000Z</time>
        <extensions>
          <ns3:TrackPointExtension>
            <ns3:hr>146</ns3:hr>
            <ns3:cad>0</ns3:cad>
          </ns3:TrackPointExtension>
        </extensions>
      </trkpt>
      <trkpt lat="45.32008132897317409515380859375" lon="-70.80697126686573028564453125">
        <ele>920.5999755859375</ele>
        <time>2026-08-21T12:41:23.000Z</time>
        <extensions>
          <ns3:TrackPointExtension>
            <ns3:hr>147</ns3:hr>
            <ns3:cad>0</ns3:cad>
          </ns3:TrackPointExtension>
        </extensions>
      </trkpt>
      <trkpt lat="45.32007613219320774078369140625" lon="-70.80696724355220794677734375">
        <ele>920.79998779296875</ele>
        <time>2026-08-21T12:41:24.000Z</time>
        <extensions>
          <ns3:TrackPointExtension>
            <ns3:hr>147</ns3:hr>
            <ns3:cad>0</ns3:cad>
          </ns3:TrackPointExtension>
        </extensions>
      </trkpt>
      <trkpt lat="45.32007261179387569427490234375" lon="-70.806961543858051300048828125">
        <ele>921.20001220703125</ele>
        <time>2026-08-21T12:41:25.000Z</time>
        <extensions>
          <ns3:TrackPointExtension>
            <ns3:hr>147</ns3:hr>
            <ns3:cad>0</ns3:cad>
          </ns3:TrackPointExtension>
        </extensions>
      </trkpt>
      <trkpt lat="45.3200718574225902557373046875" lon="-70.8069563470780849456787109375">
        <ele>921.4000244140625</ele>
        <time>2026-08-21T12:41:26.000Z</time>
        <extensions>
          <ns3:TrackPointExtension>
            <ns3:hr>148</ns3:hr>
            <ns3:cad>0</ns3:cad>
          </ns3:TrackPointExtension>
        </extensions>
      </trkpt>
      <trkpt lat="45.3200617991387844085693359375" lon="-70.80695240758359432220458984375">
        <ele>921.5999755859375</ele>
        <time>2026-08-21T12:41:27.000Z</time>
        <extensions>
          <ns3:TrackPointExtension>
            <ns3:hr>148</ns3:hr>
            <ns3:cad>0</ns3:cad>
          </ns3:TrackPointExtension>
        </extensions>
      </trkpt>
      <trkpt lat="45.3200577758252620697021484375" lon="-70.80695542506873607635498046875">
        <ele>921.79998779296875</ele>
        <time>2026-08-21T12:41:28.000Z</time>
        <extensions>
          <ns3:TrackPointExtension>
            <ns3:hr>148</ns3:hr>
            <ns3:cad>0</ns3:cad>
          </ns3:TrackPointExtension>
        </extensions>
      </trkpt>
      <trkpt lat="45.32005065120756626129150390625" lon="-70.8069627173244953155517578125">
        <ele>922</ele>
        <time>2026-08-21T12:41:29.000Z</time>
        <extensions>
          <ns3:TrackPointExtension>
            <ns3:hr>148</ns3:hr>
            <ns3:cad>0</ns3:cad>
          </ns3:TrackPointExtension>
        </extensions>
      </trkpt>
      <trkpt lat="45.320044867694377899169921875" lon="-70.80697084777057170867919921875">
        <ele>922.20001220703125</ele>
        <time>2026-08-21T12:41:30.000Z</time>
        <extensions>
          <ns3:TrackPointExtension>
            <ns3:hr>148</ns3:hr>
            <ns3:cad>0</ns3:cad>
          </ns3:TrackPointExtension>
        </extensions>
      </trkpt>
      <trkpt lat="45.32003908418118953704833984375" lon="-70.80697034485638141632080078125">
        <ele>922.4000244140625</ele>
        <time>2026-08-21T12:41:31.000Z</time>
        <extensions>
          <ns3:TrackPointExtension>
            <ns3:hr>148</ns3:hr>
            <ns3:cad>0</ns3:cad>
          </ns3:TrackPointExtension>
        </extensions>
      </trkpt>
      <trkpt lat="45.32003137283027172088623046875" lon="-70.8069784753024578094482421875">
        <ele>922.4000244140625</ele>
        <time>2026-08-21T12:41:32.000Z</time>
        <extensions>
          <ns3:TrackPointExtension>
            <ns3:hr>148</ns3:hr>
            <ns3:cad>0</ns3:cad>
          </ns3:TrackPointExtension>
        </extensions>
      </trkpt>
      <trkpt lat="45.320024080574512481689453125" lon="-70.80698065459728240966796875">
        <ele>922.5999755859375</ele>
        <time>2026-08-21T12:41:33.000Z</time>
        <extensions>
          <ns3:TrackPointExtension>
            <ns3:hr>148</ns3:hr>
            <ns3:cad>73</ns3:cad>
          </ns3:TrackPointExtension>
        </extensions>
      </trkpt>
      <trkpt lat="45.320015363395214080810546875" lon="-70.80698291771113872528076171875">
        <ele>922.79998779296875</ele>
        <time>2026-08-21T12:41:34.000Z</time>
        <extensions>
          <ns3:TrackPointExtension>
            <ns3:hr>148</ns3:hr>
            <ns3:cad>73</ns3:cad>
          </ns3:TrackPointExtension>
        </extensions>
      </trkpt>
      <trkpt lat="45.32000698149204254150390625" lon="-70.8069838397204875946044921875">
        <ele>923</ele>
        <time>2026-08-21T12:41:35.000Z</time>
        <extensions>
          <ns3:TrackPointExtension>
            <ns3:hr>148</ns3:hr>
            <ns3:cad>76</ns3:cad>
          </ns3:TrackPointExtension>
        </extensions>
      </trkpt>
      <trkpt lat="45.3199954144656658172607421875" lon="-70.80698710866272449493408203125">
        <ele>923.20001220703125</ele>
        <time>2026-08-21T12:41:36.000Z</time>
        <extensions>
          <ns3:TrackPointExtension>
            <ns3:hr>148</ns3:hr>
            <ns3:cad>76</ns3:cad>
          </ns3:TrackPointExtension>
        </extensions>
      </trkpt>
      <trkpt lat="45.31998761929571628570556640625" lon="-70.8069902099668979644775390625">
        <ele>923.4000244140625</ele>
        <time>2026-08-21T12:41:37.000Z</time>
        <extensions>
          <ns3:TrackPointExtension>
            <ns3:hr>149</ns3:hr>
            <ns3:cad>77</ns3:cad>
          </ns3:TrackPointExtension>
        </extensions>
      </trkpt>
      <trkpt lat="45.319984517991542816162109375" lon="-70.80699213780462741851806640625">
        <ele>923.5999755859375</ele>
        <time>2026-08-21T12:41:38.000Z</time>
        <extensions>
          <ns3:TrackPointExtension>
            <ns3:hr>148</ns3:hr>
            <ns3:cad>77</ns3:cad>
          </ns3:TrackPointExtension>
        </extensions>
      </trkpt>
      <trkpt lat="45.3199789859354496002197265625" lon="-70.80699004232883453369140625">
        <ele>923.79998779296875</ele>
        <time>2026-08-21T12:41:39.000Z</time>
        <extensions>
          <ns3:TrackPointExtension>
            <ns3:hr>148</ns3:hr>
            <ns3:cad>0</ns3:cad>
          </ns3:TrackPointExtension>
        </extensions>
      </trkpt>
      <trkpt lat="45.3199754655361175537109375" lon="-70.80698459409177303314208984375">
        <ele>924</ele>
        <time>2026-08-21T12:41:40.000Z</time>
        <extensions>
          <ns3:TrackPointExtension>
            <ns3:hr>148</ns3:hr>
            <ns3:cad>0</ns3:cad>
          </ns3:TrackPointExtension>
        </extensions>
      </trkpt>
      <trkpt lat="45.319970436394214630126953125" lon="-70.80698333680629730224609375">
        <ele>924.20001220703125</ele>
        <time>2026-08-21T12:41:41.000Z</time>
        <extensions>
          <ns3:TrackPointExtension>
            <ns3:hr>148</ns3:hr>
            <ns3:cad>0</ns3:cad>
          </ns3:TrackPointExtension>
        </extensions>
      </trkpt>
      <trkpt lat="45.31996616162359714508056640625" lon="-70.80698157660663127899169921875">
        <ele>924.4000244140625</ele>
        <time>2026-08-21T12:41:42.000Z</time>
        <extensions>
          <ns3:TrackPointExtension>
            <ns3:hr>148</ns3:hr>
            <ns3:cad>0</ns3:cad>
          </ns3:TrackPointExtension>
        </extensions>
      </trkpt>
      <trkpt lat="45.31996138393878936767578125" lon="-70.80698174424469470977783203125">
        <ele>924.5999755859375</ele>
        <time>2026-08-21T12:41:43.000Z</time>
        <extensions>
          <ns3:TrackPointExtension>
            <ns3:hr>148</ns3:hr>
            <ns3:cad>0</ns3:cad>
          </ns3:TrackPointExtension>
        </extensions>
      </trkpt>
      <trkpt lat="45.31996071338653564453125" lon="-70.80698392353951930999755859375">
        <ele>924.79998779296875</ele>
        <time>2026-08-21T12:41:44.000Z</time>
        <extensions>
          <ns3:TrackPointExtension>
            <ns3:hr>148</ns3:hr>
            <ns3:cad>0</ns3:cad>
          </ns3:TrackPointExtension>
        </extensions>
      </trkpt>
      <trkpt lat="45.31996138393878936767578125" lon="-70.806982330977916717529296875">
        <ele>925</ele>
        <time>2026-08-21T12:41:45.000Z</time>
        <extensions>
          <ns3:TrackPointExtension>
            <ns3:hr>149</ns3:hr>
            <ns3:cad>0</ns3:cad>
          </ns3:TrackPointExtension>
        </extensions>
      </trkpt>
      <trkpt lat="45.3199649043381214141845703125" lon="-70.80698241479694843292236328125">
        <ele>925.20001220703125</ele>
        <time>2026-08-21T12:41:46.000Z</time>
        <extensions>
          <ns3:TrackPointExtension>
            <ns3:hr>148</ns3:hr>
            <ns3:cad>0</ns3:cad>
          </ns3:TrackPointExtension>
        </extensions>
      </trkpt>
      <trkpt lat="45.31995358876883983612060546875" lon="-70.80699138343334197998046875">
        <ele>925.4000244140625</ele>
        <time>2026-08-21T12:41:47.000Z</time>
        <extensions>
          <ns3:TrackPointExtension>
            <ns3:hr>148</ns3:hr>
            <ns3:cad>0</ns3:cad>
          </ns3:TrackPointExtension>
        </extensions>
      </trkpt>
      <trkpt lat="45.3199481405317783355712890625" lon="-70.80699901096522808074951171875">
        <ele>925.5999755859375</ele>
        <time>2026-08-21T12:41:48.000Z</time>
        <extensions>
          <ns3:TrackPointExtension>
            <ns3:hr>148</ns3:hr>
            <ns3:cad>0</ns3:cad>
          </ns3:TrackPointExtension>
        </extensions>
      </trkpt>
      <trkpt lat="45.3199484758079051971435546875" lon="-70.80700236372649669647216796875">
        <ele>925.79998779296875</ele>
        <time>2026-08-21T12:41:49.000Z</time>
        <extensions>
          <ns3:TrackPointExtension>
            <ns3:hr>148</ns3:hr>
            <ns3:cad>55</ns3:cad>
          </ns3:TrackPointExtension>
        </extensions>
      </trkpt>
      <trkpt lat="45.319946296513080596923828125" lon="-70.80700119026005268096923828125">
        <ele>926</ele>
        <time>2026-08-21T12:41:50.000Z</time>
        <extensions>
          <ns3:TrackPointExtension>
            <ns3:hr>148</ns3:hr>
            <ns3:cad>55</ns3:cad>
          </ns3:TrackPointExtension>
        </extensions>
      </trkpt>
      <trkpt lat="45.31994520686566829681396484375" lon="-70.80700102262198925018310546875">
        <ele>926.20001220703125</ele>
        <time>2026-08-21T12:41:51.000Z</time>
        <extensions>
          <ns3:TrackPointExtension>
            <ns3:hr>148</ns3:hr>
            <ns3:cad>0</ns3:cad>
          </ns3:TrackPointExtension>
        </extensions>
      </trkpt>
      <trkpt lat="45.31994168646633625030517578125" lon="-70.8070002682507038116455078125">
        <ele>926.4000244140625</ele>
        <time>2026-08-21T12:41:52.000Z</time>
        <extensions>
          <ns3:TrackPointExtension>
            <ns3:hr>148</ns3:hr>
            <ns3:cad>0</ns3:cad>
          </ns3:TrackPointExtension>
        </extensions>
      </trkpt>
      <trkpt lat="45.319938249886035919189453125" lon="-70.80700211226940155029296875">
        <ele>926.5999755859375</ele>
        <time>2026-08-21T12:41:53.000Z</time>
        <extensions>
          <ns3:TrackPointExtension>
            <ns3:hr>148</ns3:hr>
            <ns3:cad>0</ns3:cad>
          </ns3:TrackPointExtension>
        </extensions>
      </trkpt>
      <trkpt lat="45.31993665732443332672119140625" lon="-70.8070026151835918426513671875">
        <ele>927</ele>
        <time>2026-08-21T12:41:54.000Z</time>
        <extensions>
          <ns3:TrackPointExtension>
            <ns3:hr>149</ns3:hr>
            <ns3:cad>0</ns3:cad>
          </ns3:TrackPointExtension>
        </extensions>
      </trkpt>
      <trkpt lat="45.31993263401091098785400390625" lon="-70.8070063032209873199462890625">
        <ele>927.20001220703125</ele>
        <time>2026-08-21T12:41:55.000Z</time>
        <extensions>
          <ns3:TrackPointExtension>
            <ns3:hr>148</ns3:hr>
            <ns3:cad>0</ns3:cad>
          </ns3:TrackPointExtension>
        </extensions>
      </trkpt>
      <trkpt lat="45.319937579333782196044921875" lon="-70.8070079796016216278076171875">
        <ele>927.4000244140625</ele>
        <time>2026-08-21T12:41:56.000Z</time>
        <extensions>
          <ns3:TrackPointExtension>
            <ns3:hr>148</ns3:hr>
            <ns3:cad>0</ns3:cad>
          </ns3:TrackPointExtension>
        </extensions>
      </trkpt>
      <trkpt lat="45.319936908781528472900390625" lon="-70.80700856633484363555908203125">
        <ele>927.5999755859375</ele>
        <time>2026-08-21T12:41:57.000Z</time>
        <extensions>
          <ns3:TrackPointExtension>
            <ns3:hr>148</ns3:hr>
            <ns3:cad>0</ns3:cad>
          </ns3:TrackPointExtension>
        </extensions>
      </trkpt>
      <trkpt lat="45.3199290297925472259521484375" lon="-70.8070123381912708282470703125">
        <ele>927.79998779296875</ele>
        <time>2026-08-21T12:41:58.000Z</time>
        <extensions>
          <ns3:TrackPointExtension>
            <ns3:hr>148</ns3:hr>
            <ns3:cad>0</ns3:cad>
          </ns3:TrackPointExtension>
        </extensions>
      </trkpt>
      <trkpt lat="45.31992676667869091033935546875" lon="-70.8070163615047931671142578125">
        <ele>928</ele>
        <time>2026-08-21T12:41:59.000Z</time>
        <extensions>
          <ns3:TrackPointExtension>
            <ns3:hr>148</ns3:hr>
            <ns3:cad>0</ns3:cad>
          </ns3:TrackPointExtension>
        </extensions>
      </trkpt>
      <trkpt lat="45.3199231624603271484375" lon="-70.807021558284759521484375">
        <ele>928.20001220703125</ele>
        <time>2026-08-21T12:42:00.000Z</time>
        <extensions>
          <ns3:TrackPointExtension>
            <ns3:hr>148</ns3:hr>
            <ns3:cad>0</ns3:cad>
          </ns3:TrackPointExtension>
        </extensions>
      </trkpt>
      <trkpt lat="45.31992249190807342529296875" lon="-70.8070250786840915679931640625">
        <ele>928.4000244140625</ele>
        <time>2026-08-21T12:42:01.000Z</time>
        <extensions>
          <ns3:TrackPointExtension>
            <ns3:hr>149</ns3:hr>
            <ns3:cad>0</ns3:cad>
          </ns3:TrackPointExtension>
        </extensions>
      </trkpt>
      <trkpt lat="45.319919474422931671142578125" lon="-70.80702893435955047607421875">
        <ele>928.5999755859375</ele>
        <time>2026-08-21T12:42:02.000Z</time>
        <extensions>
          <ns3:TrackPointExtension>
            <ns3:hr>148</ns3:hr>
            <ns3:cad>0</ns3:cad>
          </ns3:TrackPointExtension>
        </extensions>
      </trkpt>
      <trkpt lat="45.3199246712028980255126953125" lon="-70.80702491104602813720703125">
        <ele>928.79998779296875</ele>
        <time>2026-08-21T12:42:03.000Z</time>
        <extensions>
          <ns3:TrackPointExtension>
            <ns3:hr>148</ns3:hr>
            <ns3:cad>0</ns3:cad>
          </ns3:TrackPointExtension>
        </extensions>
      </trkpt>
      <trkpt lat="45.31991980969905853271484375" lon="-70.80702683888375759124755859375">
        <ele>929</ele>
        <time>2026-08-21T12:42:04.000Z</time>
        <extensions>
          <ns3:TrackPointExtension>
            <ns3:hr>148</ns3:hr>
            <ns3:cad>0</ns3:cad>
          </ns3:TrackPointExtension>
        </extensions>
      </trkpt>
      <trkpt lat="45.31992542557418346405029296875" lon="-70.80702180974185466766357421875">
        <ele>929.20001220703125</ele>
        <time>2026-08-21T12:42:05.000Z</time>
        <extensions>
          <ns3:TrackPointExtension>
            <ns3:hr>149</ns3:hr>
            <ns3:cad>0</ns3:cad>
          </ns3:TrackPointExtension>
        </extensions>
      </trkpt>
      <trkpt lat="45.31992710195481777191162109375" lon="-70.807019211351871490478515625">
        <ele>929.4000244140625</ele>
        <time>2026-08-21T12:42:06.000Z</time>
        <extensions>
          <ns3:TrackPointExtension>
            <ns3:hr>148</ns3:hr>
            <ns3:cad>0</ns3:cad>
          </ns3:TrackPointExtension>
        </extensions>
      </trkpt>
      <trkpt lat="45.31992852687835693359375" lon="-70.80701711587607860565185546875">
        <ele>929.5999755859375</ele>
        <time>2026-08-21T12:42:07.000Z</time>
        <extensions>
          <ns3:TrackPointExtension>
            <ns3:hr>148</ns3:hr>
            <ns3:cad>0</ns3:cad>
          </ns3:TrackPointExtension>
        </extensions>
      </trkpt>
      <trkpt lat="45.31992383301258087158203125" lon="-70.80701954662799835205078125">
        <ele>929.79998779296875</ele>
        <time>2026-08-21T12:42:08.000Z</time>
        <extensions>
          <ns3:TrackPointExtension>
            <ns3:hr>148</ns3:hr>
            <ns3:cad>0</ns3:cad>
          </ns3:TrackPointExtension>
        </extensions>
      </trkpt>
      <trkpt lat="45.3199223242700099945068359375" lon="-70.80701778642833232879638671875">
        <ele>930</ele>
        <time>2026-08-21T12:42:09.000Z</time>
        <extensions>
          <ns3:TrackPointExtension>
            <ns3:hr>149</ns3:hr>
            <ns3:cad>0</ns3:cad>
          </ns3:TrackPointExtension>
        </extensions>
      </trkpt>
      <trkpt lat="45.31992341391742229461669921875" lon="-70.80701476894319057464599609375">
        <ele>930</ele>
        <time>2026-08-21T12:42:10.000Z</time>
        <extensions>
          <ns3:TrackPointExtension>
            <ns3:hr>148</ns3:hr>
            <ns3:cad>0</ns3:cad>
          </ns3:TrackPointExtension>
        </extensions>
      </trkpt>
      <trkpt lat="45.319916121661663055419921875" lon="-70.8070150204002857208251953125">
        <ele>930.20001220703125</ele>
        <time>2026-08-21T12:42:11.000Z</time>
        <extensions>
          <ns3:TrackPointExtension>
            <ns3:hr>148</ns3:hr>
            <ns3:cad>0</ns3:cad>
          </ns3:TrackPointExtension>
        </extensions>
      </trkpt>
      <trkpt lat="45.3199149481952190399169921875" lon="-70.807017199695110321044921875">
        <ele>930.4000244140625</ele>
        <time>2026-08-21T12:42:12.000Z</time>
        <extensions>
          <ns3:TrackPointExtension>
            <ns3:hr>148</ns3:hr>
            <ns3:cad>0</ns3:cad>
          </ns3:TrackPointExtension>
        </extensions>
      </trkpt>
      <trkpt lat="45.3199084103107452392578125" lon="-70.8070180378854274749755859375">
        <ele>930.5999755859375</ele>
        <time>2026-08-21T12:42:13.000Z</time>
        <extensions>
          <ns3:TrackPointExtension>
            <ns3:hr>148</ns3:hr>
            <ns3:cad>0</ns3:cad>
          </ns3:TrackPointExtension>
        </extensions>
      </trkpt>
      <trkpt lat="45.31989776529371738433837890625" lon="-70.80702298320829868316650390625">
        <ele>930.79998779296875</ele>
        <time>2026-08-21T12:42:14.000Z</time>
        <extensions>
          <ns3:TrackPointExtension>
            <ns3:hr>148</ns3:hr>
            <ns3:cad>0</ns3:cad>
          </ns3:TrackPointExtension>
        </extensions>
      </trkpt>
      <trkpt lat="45.31989055685698986053466796875" lon="-70.80702801235020160675048828125">
        <ele>931</ele>
        <time>2026-08-21T12:42:15.000Z</time>
        <extensions>
          <ns3:TrackPointExtension>
            <ns3:hr>148</ns3:hr>
            <ns3:cad>0</ns3:cad>
          </ns3:TrackPointExtension>
        </extensions>
      </trkpt>
      <trkpt lat="45.3198877908289432525634765625" lon="-70.80702985636889934539794921875">
        <ele>931.4000244140625</ele>
        <time>2026-08-21T12:42:16.000Z</time>
        <extensions>
          <ns3:TrackPointExtension>
            <ns3:hr>148</ns3:hr>
            <ns3:cad>0</ns3:cad>
          </ns3:TrackPointExtension>
        </extensions>
      </trkpt>
      <trkpt lat="45.31988619826734066009521484375" lon="-70.80702465958893299102783203125">
        <ele>931.5999755859375</ele>
        <time>2026-08-21T12:42:17.000Z</time>
        <extensions>
          <ns3:TrackPointExtension>
            <ns3:hr>148</ns3:hr>
            <ns3:cad>0</ns3:cad>
          </ns3:TrackPointExtension>
        </extensions>
      </trkpt>
      <trkpt lat="45.31988183967769145965576171875" lon="-70.80702331848442554473876953125">
        <ele>931.79998779296875</ele>
        <time>2026-08-21T12:42:18.000Z</time>
        <extensions>
          <ns3:TrackPointExtension>
            <ns3:hr>148</ns3:hr>
            <ns3:cad>0</ns3:cad>
          </ns3:TrackPointExtension>
        </extensions>
      </trkpt>
      <trkpt lat="45.31987714581191539764404296875" lon="-70.807034969329833984375">
        <ele>932</ele>
        <time>2026-08-21T12:42:19.000Z</time>
        <extensions>
          <ns3:TrackPointExtension>
            <ns3:hr>147</ns3:hr>
            <ns3:cad>0</ns3:cad>
          </ns3:TrackPointExtension>
        </extensions>
      </trkpt>
      <trkpt lat="45.31987152993679046630859375" lon="-70.80704209394752979278564453125">
        <ele>932.4000244140625</ele>
        <time>2026-08-21T12:42:20.000Z</time>
        <extensions>
          <ns3:TrackPointExtension>
            <ns3:hr>148</ns3:hr>
            <ns3:cad>0</ns3:cad>
          </ns3:TrackPointExtension>
        </extensions>
      </trkpt>
      <trkpt lat="45.31987312249839305877685546875" lon="-70.80704377032816410064697265625">
        <ele>932.5999755859375</ele>
        <time>2026-08-21T12:42:21.000Z</time>
        <extensions>
          <ns3:TrackPointExtension>
            <ns3:hr>148</ns3:hr>
            <ns3:cad>0</ns3:cad>
          </ns3:TrackPointExtension>
        </extensions>
      </trkpt>
      <trkpt lat="45.31987194903194904327392578125" lon="-70.807046703994274139404296875">
        <ele>932.79998779296875</ele>
        <time>2026-08-21T12:42:22.000Z</time>
        <extensions>
          <ns3:TrackPointExtension>
            <ns3:hr>147</ns3:hr>
            <ns3:cad>0</ns3:cad>
          </ns3:TrackPointExtension>
        </extensions>
      </trkpt>
      <trkpt lat="45.31986415386199951171875" lon="-70.80705299042165279388427734375">
        <ele>933</ele>
        <time>2026-08-21T12:42:23.000Z</time>
        <extensions>
          <ns3:TrackPointExtension>
            <ns3:hr>148</ns3:hr>
            <ns3:cad>0</ns3:cad>
          </ns3:TrackPointExtension>
        </extensions>
      </trkpt>
      <trkpt lat="45.31985434703528881072998046875" lon="-70.80706514418125152587890625">
        <ele>933.20001220703125</ele>
        <time>2026-08-21T12:42:24.000Z</time>
        <extensions>
          <ns3:TrackPointExtension>
            <ns3:hr>148</ns3:hr>
            <ns3:cad>0</ns3:cad>
          </ns3:TrackPointExtension>
        </extensions>
      </trkpt>
      <trkpt lat="45.31984873116016387939453125" lon="-70.8070730231702327728271484375">
        <ele>933.4000244140625</ele>
        <time>2026-08-21T12:42:25.000Z</time>
        <extensions>
          <ns3:TrackPointExtension>
            <ns3:hr>147</ns3:hr>
            <ns3:cad>0</ns3:cad>
          </ns3:TrackPointExtension>
        </extensions>
      </trkpt>
      <trkpt lat="45.31984345056116580963134765625" lon="-70.80708584748208522796630859375">
        <ele>933.5999755859375</ele>
        <time>2026-08-21T12:42:26.000Z</time>
        <extensions>
          <ns3:TrackPointExtension>
            <ns3:hr>148</ns3:hr>
            <ns3:cad>0</ns3:cad>
          </ns3:TrackPointExtension>
        </extensions>
      </trkpt>
      <trkpt lat="45.3198395110666751861572265625" lon="-70.80710001289844512939453125">
        <ele>933.79998779296875</ele>
        <time>2026-08-21T12:42:27.000Z</time>
        <extensions>
          <ns3:TrackPointExtension>
            <ns3:hr>148</ns3:hr>
            <ns3:cad>0</ns3:cad>
          </ns3:TrackPointExtension>
        </extensions>
      </trkpt>
      <trkpt lat="45.31984244473278522491455078125" lon="-70.80711568705737590789794921875">
        <ele>934</ele>
        <time>2026-08-21T12:42:28.000Z</time>
        <extensions>
          <ns3:TrackPointExtension>
            <ns3:hr>147</ns3:hr>
            <ns3:cad>0</ns3:cad>
          </ns3:TrackPointExtension>
        </extensions>
      </trkpt>
      <trkpt lat="45.319844372570514678955078125" lon="-70.807123817503452301025390625">
        <ele>934</ele>
        <time>2026-08-21T12:42:29.000Z</time>
        <extensions>
          <ns3:TrackPointExtension>
            <ns3:hr>148</ns3:hr>
            <ns3:cad>0</ns3:cad>
          </ns3:TrackPointExtension>
        </extensions>
      </trkpt>
      <trkpt lat="45.31984194181859493255615234375" lon="-70.8071360550820827484130859375">
        <ele>934.20001220703125</ele>
        <time>2026-08-21T12:42:30.000Z</time>
        <extensions>
          <ns3:TrackPointExtension>
            <ns3:hr>148</ns3:hr>
            <ns3:cad>0</ns3:cad>
          </ns3:TrackPointExtension>
        </extensions>
      </trkpt>
      <trkpt lat="45.31983724795281887054443359375" lon="-70.80714720301330089569091796875">
        <ele>934.4000244140625</ele>
        <time>2026-08-21T12:42:31.000Z</time>
        <extensions>
          <ns3:TrackPointExtension>
            <ns3:hr>147</ns3:hr>
            <ns3:cad>0</ns3:cad>
          </ns3:TrackPointExtension>
        </extensions>
      </trkpt>
      <trkpt lat="45.31982953660190105438232421875" lon="-70.80715072341263294219970703125">
        <ele>934.4000244140625</ele>
        <time>2026-08-21T12:42:32.000Z</time>
        <extensions>
          <ns3:TrackPointExtension>
            <ns3:hr>148</ns3:hr>
            <ns3:cad>0</ns3:cad>
          </ns3:TrackPointExtension>
        </extensions>
      </trkpt>
      <trkpt lat="45.319823920726776123046875" lon="-70.8071565069258213043212890625">
        <ele>934.5999755859375</ele>
        <time>2026-08-21T12:42:33.000Z</time>
        <extensions>
          <ns3:TrackPointExtension>
            <ns3:hr>148</ns3:hr>
            <ns3:cad>0</ns3:cad>
          </ns3:TrackPointExtension>
        </extensions>
      </trkpt>
      <trkpt lat="45.31982459127902984619140625" lon="-70.8071588538587093353271484375">
        <ele>934.79998779296875</ele>
        <time>2026-08-21T12:42:34.000Z</time>
        <extensions>
          <ns3:TrackPointExtension>
            <ns3:hr>148</ns3:hr>
            <ns3:cad>0</ns3:cad>
          </ns3:TrackPointExtension>
        </extensions>
      </trkpt>
      <trkpt lat="45.31981864012777805328369140625" lon="-70.80716463737189769744873046875">
        <ele>935</ele>
        <time>2026-08-21T12:42:35.000Z</time>
        <extensions>
          <ns3:TrackPointExtension>
            <ns3:hr>149</ns3:hr>
            <ns3:cad>0</ns3:cad>
          </ns3:TrackPointExtension>
        </extensions>
      </trkpt>
      <trkpt lat="45.3198096714913845062255859375" lon="-70.80716681666672229766845703125">
        <ele>935.20001220703125</ele>
        <time>2026-08-21T12:42:36.000Z</time>
        <extensions>
          <ns3:TrackPointExtension>
            <ns3:hr>149</ns3:hr>
            <ns3:cad>0</ns3:cad>
          </ns3:TrackPointExtension>
        </extensions>
      </trkpt>
      <trkpt lat="45.31980657018721103668212890625" lon="-70.80716346390545368194580078125">
        <ele>935.4000244140625</ele>
        <time>2026-08-21T12:42:37.000Z</time>
        <extensions>
          <ns3:TrackPointExtension>
            <ns3:hr>150</ns3:hr>
            <ns3:cad>0</ns3:cad>
          </ns3:TrackPointExtension>
        </extensions>
      </trkpt>
      <trkpt lat="45.31980187632143497467041015625" lon="-70.807163715362548828125">
        <ele>935.5999755859375</ele>
        <time>2026-08-21T12:42:38.000Z</time>
        <extensions>
          <ns3:TrackPointExtension>
            <ns3:hr>150</ns3:hr>
            <ns3:cad>0</ns3:cad>
          </ns3:TrackPointExtension>
        </extensions>
      </trkpt>
      <trkpt lat="45.3198009543120861053466796875" lon="-70.80716849304735660552978515625">
        <ele>935.79998779296875</ele>
        <time>2026-08-21T12:42:39.000Z</time>
        <extensions>
          <ns3:TrackPointExtension>
            <ns3:hr>150</ns3:hr>
            <ns3:cad>0</ns3:cad>
          </ns3:TrackPointExtension>
        </extensions>
      </trkpt>
      <trkpt lat="45.3197986073791980743408203125" lon="-70.8071652241051197052001953125">
        <ele>936</ele>
        <time>2026-08-21T12:42:40.000Z</time>
        <extensions>
          <ns3:TrackPointExtension>
            <ns3:hr>149</ns3:hr>
            <ns3:cad>0</ns3:cad>
          </ns3:TrackPointExtension>
        </extensions>
      </trkpt>
      <trkpt lat="45.319796763360500335693359375" lon="-70.8071612007915973663330078125">
        <ele>936.20001220703125</ele>
        <time>2026-08-21T12:42:41.000Z</time>
        <extensions>
          <ns3:TrackPointExtension>
            <ns3:hr>150</ns3:hr>
            <ns3:cad>0</ns3:cad>
          </ns3:TrackPointExtension>
        </extensions>
      </trkpt>
      <trkpt lat="45.319789387285709381103515625" lon="-70.807157345116138458251953125">
        <ele>936.5999755859375</ele>
        <time>2026-08-21T12:42:42.000Z</time>
        <extensions>
          <ns3:TrackPointExtension>
            <ns3:hr>150</ns3:hr>
            <ns3:cad>0</ns3:cad>
          </ns3:TrackPointExtension>
        </extensions>
      </trkpt>
      <trkpt lat="45.3197808377444744110107421875" lon="-70.8071543276309967041015625">
        <ele>936.79998779296875</ele>
        <time>2026-08-21T12:42:43.000Z</time>
        <extensions>
          <ns3:TrackPointExtension>
            <ns3:hr>150</ns3:hr>
            <ns3:cad>0</ns3:cad>
          </ns3:TrackPointExtension>
        </extensions>
      </trkpt>
      <trkpt lat="45.31977740116417407989501953125" lon="-70.80715709365904331207275390625">
        <ele>937</ele>
        <time>2026-08-21T12:42:44.000Z</time>
        <extensions>
          <ns3:TrackPointExtension>
            <ns3:hr>150</ns3:hr>
            <ns3:cad>0</ns3:cad>
          </ns3:TrackPointExtension>
        </extensions>
      </trkpt>
      <trkpt lat="45.319774635136127471923828125" lon="-70.8071541599929332733154296875">
        <ele>937.20001220703125</ele>
        <time>2026-08-21T12:42:45.000Z</time>
        <extensions>
          <ns3:TrackPointExtension>
            <ns3:hr>150</ns3:hr>
            <ns3:cad>0</ns3:cad>
          </ns3:TrackPointExtension>
        </extensions>
      </trkpt>
      <trkpt lat="45.31976968981325626373291015625" lon="-70.80715323798358440399169921875">
        <ele>937.4000244140625</ele>
        <time>2026-08-21T12:42:46.000Z</time>
        <extensions>
          <ns3:TrackPointExtension>
            <ns3:hr>150</ns3:hr>
            <ns3:cad>0</ns3:cad>
          </ns3:TrackPointExtension>
        </extensions>
      </trkpt>
      <trkpt lat="45.3197623975574970245361328125" lon="-70.80715189687907695770263671875">
        <ele>937.5999755859375</ele>
        <time>2026-08-21T12:42:47.000Z</time>
        <extensions>
          <ns3:TrackPointExtension>
            <ns3:hr>150</ns3:hr>
            <ns3:cad>0</ns3:cad>
          </ns3:TrackPointExtension>
        </extensions>
      </trkpt>
      <trkpt lat="45.319760553538799285888671875" lon="-70.80715902149677276611328125">
        <ele>938</ele>
        <time>2026-08-21T12:42:48.000Z</time>
        <extensions>
          <ns3:TrackPointExtension>
            <ns3:hr>149</ns3:hr>
            <ns3:cad>0</ns3:cad>
          </ns3:TrackPointExtension>
        </extensions>
      </trkpt>
      <trkpt lat="45.31975594349205493927001953125" lon="-70.807161033153533935546875">
        <ele>938</ele>
        <time>2026-08-21T12:42:49.000Z</time>
        <extensions>
          <ns3:TrackPointExtension>
            <ns3:hr>150</ns3:hr>
            <ns3:cad>0</ns3:cad>
          </ns3:TrackPointExtension>
        </extensions>
      </trkpt>
      <trkpt lat="45.31974680721759796142578125" lon="-70.80716430209577083587646484375">
        <ele>938.4000244140625</ele>
        <time>2026-08-21T12:42:50.000Z</time>
        <extensions>
          <ns3:TrackPointExtension>
            <ns3:hr>150</ns3:hr>
            <ns3:cad>0</ns3:cad>
          </ns3:TrackPointExtension>
        </extensions>
      </trkpt>
      <trkpt lat="45.3197392635047435760498046875" lon="-70.8071658946573734283447265625">
        <ele>938.4000244140625</ele>
        <time>2026-08-21T12:42:51.000Z</time>
        <extensions>
          <ns3:TrackPointExtension>
            <ns3:hr>151</ns3:hr>
            <ns3:cad>0</ns3:cad>
          </ns3:TrackPointExtension>
        </extensions>
      </trkpt>
      <trkpt lat="45.31973205506801605224609375" lon="-70.80716530792415142059326171875">
        <ele>938.5999755859375</ele>
        <time>2026-08-21T12:42:52.000Z</time>
        <extensions>
          <ns3:TrackPointExtension>
            <ns3:hr>152</ns3:hr>
            <ns3:cad>0</ns3:cad>
          </ns3:TrackPointExtension>
        </extensions>
      </trkpt>
      <trkpt lat="45.31972593627870082855224609375" lon="-70.80716262571513652801513671875">
        <ele>938.79998779296875</ele>
        <time>2026-08-21T12:42:53.000Z</time>
        <extensions>
          <ns3:TrackPointExtension>
            <ns3:hr>152</ns3:hr>
            <ns3:cad>0</ns3:cad>
          </ns3:TrackPointExtension>
        </extensions>
      </trkpt>
      <trkpt lat="45.319723673164844512939453125" lon="-70.80715768039226531982421875">
        <ele>939</ele>
        <time>2026-08-21T12:42:54.000Z</time>
        <extensions>
          <ns3:TrackPointExtension>
            <ns3:hr>152</ns3:hr>
            <ns3:cad>0</ns3:cad>
          </ns3:TrackPointExtension>
        </extensions>
      </trkpt>
      <trkpt lat="45.3197168000042438507080078125" lon="-70.80714804120361804962158203125">
        <ele>939.20001220703125</ele>
        <time>2026-08-21T12:42:55.000Z</time>
        <extensions>
          <ns3:TrackPointExtension>
            <ns3:hr>152</ns3:hr>
            <ns3:cad>0</ns3:cad>
          </ns3:TrackPointExtension>
        </extensions>
      </trkpt>
      <trkpt lat="45.31970665790140628814697265625" lon="-70.80714301206171512603759765625">
        <ele>939.4000244140625</ele>
        <time>2026-08-21T12:42:56.000Z</time>
        <extensions>
          <ns3:TrackPointExtension>
            <ns3:hr>153</ns3:hr>
            <ns3:cad>0</ns3:cad>
          </ns3:TrackPointExtension>
        </extensions>
      </trkpt>
      <trkpt lat="45.3196973539888858795166015625" lon="-70.80712926574051380157470703125">
        <ele>939.5999755859375</ele>
        <time>2026-08-21T12:42:57.000Z</time>
        <extensions>
          <ns3:TrackPointExtension>
            <ns3:hr>152</ns3:hr>
            <ns3:cad>0</ns3:cad>
          </ns3:TrackPointExtension>
        </extensions>
      </trkpt>
      <trkpt lat="45.3196950070559978485107421875" lon="-70.8071280084550380706787109375">
        <ele>939.79998779296875</ele>
        <time>2026-08-21T12:42:58.000Z</time>
        <extensions>
          <ns3:TrackPointExtension>
            <ns3:hr>152</ns3:hr>
            <ns3:cad>0</ns3:cad>
          </ns3:TrackPointExtension>
        </extensions>
      </trkpt>
      <trkpt lat="45.31968989409506320953369140625" lon="-70.8071270026266574859619140625">
        <ele>939.79998779296875</ele>
        <time>2026-08-21T12:42:59.000Z</time>
        <extensions>
          <ns3:TrackPointExtension>
            <ns3:hr>153</ns3:hr>
            <ns3:cad>0</ns3:cad>
          </ns3:TrackPointExtension>
        </extensions>
      </trkpt>
      <trkpt lat="45.3196826018393039703369140625" lon="-70.807124488055706024169921875">
        <ele>940</ele>
        <time>2026-08-21T12:43:00.000Z</time>
        <extensions>
          <ns3:TrackPointExtension>
            <ns3:hr>153</ns3:hr>
            <ns3:cad>0</ns3:cad>
          </ns3:TrackPointExtension>
        </extensions>
      </trkpt>
      <trkpt lat="45.3196785785257816314697265625" lon="-70.80712323077023029327392578125">
        <ele>940.4000244140625</ele>
        <time>2026-08-21T12:43:01.000Z</time>
        <extensions>
          <ns3:TrackPointExtension>
            <ns3:hr>153</ns3:hr>
            <ns3:cad>0</ns3:cad>
          </ns3:TrackPointExtension>
        </extensions>
      </trkpt>
      <trkpt lat="45.31967363320291042327880859375" lon="-70.807120800018310546875">
        <ele>940.5999755859375</ele>
        <time>2026-08-21T12:43:02.000Z</time>
        <extensions>
          <ns3:TrackPointExtension>
            <ns3:hr>152</ns3:hr>
            <ns3:cad>0</ns3:cad>
          </ns3:TrackPointExtension>
        </extensions>
      </trkpt>
      <trkpt lat="45.319666676223278045654296875" lon="-70.80711610615253448486328125">
        <ele>940.79998779296875</ele>
        <time>2026-08-21T12:43:03.000Z</time>
        <extensions>
          <ns3:TrackPointExtension>
            <ns3:hr>153</ns3:hr>
            <ns3:cad>0</ns3:cad>
          </ns3:TrackPointExtension>
        </extensions>
      </trkpt>
      <trkpt lat="45.31965804286301136016845703125" lon="-70.80711283721029758453369140625">
        <ele>941</ele>
        <time>2026-08-21T12:43:04.000Z</time>
        <extensions>
          <ns3:TrackPointExtension>
            <ns3:hr>153</ns3:hr>
            <ns3:cad>0</ns3:cad>
          </ns3:TrackPointExtension>
        </extensions>
      </trkpt>
      <trkpt lat="45.319652259349822998046875" lon="-70.80711032263934612274169921875">
        <ele>941.20001220703125</ele>
        <time>2026-08-21T12:43:05.000Z</time>
        <extensions>
          <ns3:TrackPointExtension>
            <ns3:hr>152</ns3:hr>
            <ns3:cad>0</ns3:cad>
          </ns3:TrackPointExtension>
        </extensions>
      </trkpt>
      <trkpt lat="45.31964614056050777435302734375" lon="-70.8071060478687286376953125">
        <ele>941.4000244140625</ele>
        <time>2026-08-21T12:43:06.000Z</time>
        <extensions>
          <ns3:TrackPointExtension>
            <ns3:hr>153</ns3:hr>
            <ns3:cad>0</ns3:cad>
          </ns3:TrackPointExtension>
        </extensions>
      </trkpt>
      <trkpt lat="45.31963549554347991943359375" lon="-70.80709892325103282928466796875">
        <ele>941.5999755859375</ele>
        <time>2026-08-21T12:43:07.000Z</time>
        <extensions>
          <ns3:TrackPointExtension>
            <ns3:hr>153</ns3:hr>
            <ns3:cad>0</ns3:cad>
          </ns3:TrackPointExtension>
        </extensions>
      </trkpt>
      <trkpt lat="45.31962753273546695709228515625" lon="-70.8070941455662250518798828125">
        <ele>941.79998779296875</ele>
        <time>2026-08-21T12:43:08.000Z</time>
        <extensions>
          <ns3:TrackPointExtension>
            <ns3:hr>152</ns3:hr>
            <ns3:cad>0</ns3:cad>
          </ns3:TrackPointExtension>
        </extensions>
      </trkpt>
      <trkpt lat="45.31962015666067600250244140625" lon="-70.8070941455662250518798828125">
        <ele>942.20001220703125</ele>
        <time>2026-08-21T12:43:09.000Z</time>
        <extensions>
          <ns3:TrackPointExtension>
            <ns3:hr>152</ns3:hr>
            <ns3:cad>0</ns3:cad>
          </ns3:TrackPointExtension>
        </extensions>
      </trkpt>
      <trkpt lat="45.3196098469197750091552734375" lon="-70.8070887811481952667236328125">
        <ele>942.4000244140625</ele>
        <time>2026-08-21T12:43:10.000Z</time>
        <extensions>
          <ns3:TrackPointExtension>
            <ns3:hr>152</ns3:hr>
            <ns3:cad>0</ns3:cad>
          </ns3:TrackPointExtension>
        </extensions>
      </trkpt>
      <trkpt lat="45.31959568150341510772705078125" lon="-70.8070847578346729278564453125">
        <ele>942.5999755859375</ele>
        <time>2026-08-21T12:43:11.000Z</time>
        <extensions>
          <ns3:TrackPointExtension>
            <ns3:hr>151</ns3:hr>
            <ns3:cad>0</ns3:cad>
          </ns3:TrackPointExtension>
        </extensions>
      </trkpt>
      <trkpt lat="45.31958327628672122955322265625" lon="-70.80708433873951435089111328125">
        <ele>942.79998779296875</ele>
        <time>2026-08-21T12:43:12.000Z</time>
        <extensions>
          <ns3:TrackPointExtension>
            <ns3:hr>150</ns3:hr>
            <ns3:cad>0</ns3:cad>
          </ns3:TrackPointExtension>
        </extensions>
      </trkpt>
      <trkpt lat="45.3195729665458202362060546875" lon="-70.80708668567240238189697265625">
        <ele>943</ele>
        <time>2026-08-21T12:43:13.000Z</time>
        <extensions>
          <ns3:TrackPointExtension>
            <ns3:hr>150</ns3:hr>
            <ns3:cad>44</ns3:cad>
          </ns3:TrackPointExtension>
        </extensions>
      </trkpt>
      <trkpt lat="45.31956483609974384307861328125" lon="-70.8070864342153072357177734375">
        <ele>943.20001220703125</ele>
        <time>2026-08-21T12:43:14.000Z</time>
        <extensions>
          <ns3:TrackPointExtension>
            <ns3:hr>150</ns3:hr>
            <ns3:cad>44</ns3:cad>
          </ns3:TrackPointExtension>
        </extensions>
      </trkpt>
      <trkpt lat="45.3195598907768726348876953125" lon="-70.80708869732916355133056640625">
        <ele>943.4000244140625</ele>
        <time>2026-08-21T12:43:15.000Z</time>
        <extensions>
          <ns3:TrackPointExtension>
            <ns3:hr>150</ns3:hr>
            <ns3:cad>44</ns3:cad>
          </ns3:TrackPointExtension>
        </extensions>
      </trkpt>
      <trkpt lat="45.3195508383214473724365234375" lon="-70.80709707923233509063720703125">
        <ele>943.5999755859375</ele>
        <time>2026-08-21T12:43:16.000Z</time>
        <extensions>
          <ns3:TrackPointExtension>
            <ns3:hr>150</ns3:hr>
            <ns3:cad>44</ns3:cad>
          </ns3:TrackPointExtension>
        </extensions>
      </trkpt>
      <trkpt lat="45.31954438425600528717041015625" lon="-70.80710110254585742950439453125">
        <ele>943.79998779296875</ele>
        <time>2026-08-21T12:43:17.000Z</time>
        <extensions>
          <ns3:TrackPointExtension>
            <ns3:hr>150</ns3:hr>
            <ns3:cad>44</ns3:cad>
          </ns3:TrackPointExtension>
        </extensions>
      </trkpt>
      <trkpt lat="45.319538600742816925048828125" lon="-70.80710261128842830657958984375">
        <ele>944</ele>
        <time>2026-08-21T12:43:18.000Z</time>
        <extensions>
          <ns3:TrackPointExtension>
            <ns3:hr>150</ns3:hr>
            <ns3:cad>44</ns3:cad>
          </ns3:TrackPointExtension>
        </extensions>
      </trkpt>
      <trkpt lat="45.31953197903931140899658203125" lon="-70.807097665965557098388671875">
        <ele>944.4000244140625</ele>
        <time>2026-08-21T12:43:19.000Z</time>
        <extensions>
          <ns3:TrackPointExtension>
            <ns3:hr>150</ns3:hr>
            <ns3:cad>44</ns3:cad>
          </ns3:TrackPointExtension>
        </extensions>
      </trkpt>
      <trkpt lat="45.31952410005033016204833984375" lon="-70.80709875561296939849853515625">
        <ele>944.5999755859375</ele>
        <time>2026-08-21T12:43:20.000Z</time>
        <extensions>
          <ns3:TrackPointExtension>
            <ns3:hr>150</ns3:hr>
            <ns3:cad>44</ns3:cad>
          </ns3:TrackPointExtension>
        </extensions>
      </trkpt>
      <trkpt lat="45.3195179812610149383544921875" lon="-70.8070991747081279754638671875">
        <ele>944.79998779296875</ele>
        <time>2026-08-21T12:43:21.000Z</time>
        <extensions>
          <ns3:TrackPointExtension>
            <ns3:hr>149</ns3:hr>
            <ns3:cad>44</ns3:cad>
          </ns3:TrackPointExtension>
        </extensions>
      </trkpt>
      <trkpt lat="45.3195069171488285064697265625" lon="-70.8071006834506988525390625">
        <ele>945</ele>
        <time>2026-08-21T12:43:22.000Z</time>
        <extensions>
          <ns3:TrackPointExtension>
            <ns3:hr>149</ns3:hr>
            <ns3:cad>44</ns3:cad>
          </ns3:TrackPointExtension>
        </extensions>
      </trkpt>
      <trkpt lat="45.3194968588650226593017578125" lon="-70.80710294656455516815185546875">
        <ele>945.20001220703125</ele>
        <time>2026-08-21T12:43:23.000Z</time>
        <extensions>
          <ns3:TrackPointExtension>
            <ns3:hr>149</ns3:hr>
            <ns3:cad>44</ns3:cad>
          </ns3:TrackPointExtension>
        </extensions>
      </trkpt>
      <trkpt lat="45.3194891475141048431396484375" lon="-70.80710579641163349151611328125">
        <ele>945.4000244140625</ele>
        <time>2026-08-21T12:43:24.000Z</time>
        <extensions>
          <ns3:TrackPointExtension>
            <ns3:hr>148</ns3:hr>
            <ns3:cad>44</ns3:cad>
          </ns3:TrackPointExtension>
        </extensions>
      </trkpt>
      <trkpt lat="45.3194811008870601654052734375" lon="-70.80710747279226779937744140625">
        <ele>945.5999755859375</ele>
        <time>2026-08-21T12:43:25.000Z</time>
        <extensions>
          <ns3:TrackPointExtension>
            <ns3:hr>148</ns3:hr>
            <ns3:cad>44</ns3:cad>
          </ns3:TrackPointExtension>
        </extensions>
      </trkpt>
      <trkpt lat="45.319474227726459503173828125" lon="-70.80711208283901214599609375">
        <ele>945.5999755859375</ele>
        <time>2026-08-21T12:43:26.000Z</time>
        <extensions>
          <ns3:TrackPointExtension>
            <ns3:hr>148</ns3:hr>
            <ns3:cad>44</ns3:cad>
          </ns3:TrackPointExtension>
        </extensions>
      </trkpt>
      <trkpt lat="45.3194700367748737335205078125" lon="-70.807121805846691131591796875">
        <ele>945.79998779296875</ele>
        <time>2026-08-21T12:43:27.000Z</time>
        <extensions>
          <ns3:TrackPointExtension>
            <ns3:hr>149</ns3:hr>
            <ns3:cad>44</ns3:cad>
          </ns3:TrackPointExtension>
        </extensions>
      </trkpt>
      <trkpt lat="45.319460816681385040283203125" lon="-70.807135216891765594482421875">
        <ele>945.79998779296875</ele>
        <time>2026-08-21T12:43:28.000Z</time>
        <extensions>
          <ns3:TrackPointExtension>
            <ns3:hr>149</ns3:hr>
            <ns3:cad>41</ns3:cad>
          </ns3:TrackPointExtension>
        </extensions>
      </trkpt>
      <trkpt lat="45.3194542787969112396240234375" lon="-70.807141251862049102783203125">
        <ele>946</ele>
        <time>2026-08-21T12:43:29.000Z</time>
        <extensions>
          <ns3:TrackPointExtension>
            <ns3:hr>149</ns3:hr>
            <ns3:cad>41</ns3:cad>
          </ns3:TrackPointExtension>
        </extensions>
      </trkpt>
      <trkpt lat="45.319446735084056854248046875" lon="-70.807148627936840057373046875">
        <ele>946</ele>
        <time>2026-08-21T12:43:30.000Z</time>
        <extensions>
          <ns3:TrackPointExtension>
            <ns3:hr>149</ns3:hr>
            <ns3:cad>0</ns3:cad>
          </ns3:TrackPointExtension>
        </extensions>
      </trkpt>
      <trkpt lat="45.31944178976118564605712890625" lon="-70.80715659074485301971435546875">
        <ele>946.20001220703125</ele>
        <time>2026-08-21T12:43:31.000Z</time>
        <extensions>
          <ns3:TrackPointExtension>
            <ns3:hr>150</ns3:hr>
            <ns3:cad>0</ns3:cad>
          </ns3:TrackPointExtension>
        </extensions>
      </trkpt>
      <trkpt lat="45.31943793408572673797607421875" lon="-70.8071655593812465667724609375">
        <ele>946.4000244140625</ele>
        <time>2026-08-21T12:43:32.000Z</time>
        <extensions>
          <ns3:TrackPointExtension>
            <ns3:hr>150</ns3:hr>
            <ns3:cad>0</ns3:cad>
          </ns3:TrackPointExtension>
        </extensions>
      </trkpt>
      <trkpt lat="45.3194296360015869140625" lon="-70.8071759529411792755126953125">
        <ele>946.5999755859375</ele>
        <time>2026-08-21T12:43:33.000Z</time>
        <extensions>
          <ns3:TrackPointExtension>
            <ns3:hr>150</ns3:hr>
            <ns3:cad>0</ns3:cad>
          </ns3:TrackPointExtension>
        </extensions>
      </trkpt>
      <trkpt lat="45.3194251097738742828369140625" lon="-70.80718961544334888458251953125">
        <ele>946.79998779296875</ele>
        <time>2026-08-21T12:43:34.000Z</time>
        <extensions>
          <ns3:TrackPointExtension>
            <ns3:hr>150</ns3:hr>
            <ns3:cad>0</ns3:cad>
          </ns3:TrackPointExtension>
        </extensions>
      </trkpt>
      <trkpt lat="45.3194282948970794677734375" lon="-70.8072017692029476165771484375">
        <ele>947</ele>
        <time>2026-08-21T12:43:35.000Z</time>
        <extensions>
          <ns3:TrackPointExtension>
            <ns3:hr>150</ns3:hr>
            <ns3:cad>0</ns3:cad>
          </ns3:TrackPointExtension>
        </extensions>
      </trkpt>
      <trkpt lat="45.3194274567067623138427734375" lon="-70.807230435311794281005859375">
        <ele>947</ele>
        <time>2026-08-21T12:43:36.000Z</time>
        <extensions>
          <ns3:TrackPointExtension>
            <ns3:hr>150</ns3:hr>
            <ns3:cad>0</ns3:cad>
          </ns3:TrackPointExtension>
        </extensions>
      </trkpt>
      <trkpt lat="45.3194282948970794677734375" lon="-70.8072564192116260528564453125">
        <ele>947</ele>
        <time>2026-08-21T12:43:37.000Z</time>
        <extensions>
          <ns3:TrackPointExtension>
            <ns3:hr>150</ns3:hr>
            <ns3:cad>0</ns3:cad>
          </ns3:TrackPointExtension>
        </extensions>
      </trkpt>
      <trkpt lat="45.3194311447441577911376953125" lon="-70.807278715074062347412109375">
        <ele>946.79998779296875</ele>
        <time>2026-08-21T12:43:38.000Z</time>
        <extensions>
          <ns3:TrackPointExtension>
            <ns3:hr>150</ns3:hr>
            <ns3:cad>0</ns3:cad>
          </ns3:TrackPointExtension>
        </extensions>
      </trkpt>
      <trkpt lat="45.31942888163030147552490234375" lon="-70.807289443910121917724609375">
        <ele>946.79998779296875</ele>
        <time>2026-08-21T12:43:39.000Z</time>
        <extensions>
          <ns3:TrackPointExtension>
            <ns3:hr>150</ns3:hr>
            <ns3:cad>0</ns3:cad>
          </ns3:TrackPointExtension>
        </extensions>
      </trkpt>
      <trkpt lat="45.31942251138389110565185546875" lon="-70.807297490537166595458984375">
        <ele>946.5999755859375</ele>
        <time>2026-08-21T12:43:40.000Z</time>
        <extensions>
          <ns3:TrackPointExtension>
            <ns3:hr>149</ns3:hr>
            <ns3:cad>51</ns3:cad>
          </ns3:TrackPointExtension>
        </extensions>
      </trkpt>
      <trkpt lat="45.31941429711878299713134765625" lon="-70.8073087222874164581298828125">
        <ele>946.5999755859375</ele>
        <time>2026-08-21T12:43:41.000Z</time>
        <extensions>
          <ns3:TrackPointExtension>
            <ns3:hr>150</ns3:hr>
            <ns3:cad>51</ns3:cad>
          </ns3:TrackPointExtension>
        </extensions>
      </trkpt>
      <trkpt lat="45.31940826214849948883056640625" lon="-70.807318277657032012939453125">
        <ele>946.5999755859375</ele>
        <time>2026-08-21T12:43:42.000Z</time>
        <extensions>
          <ns3:TrackPointExtension>
            <ns3:hr>150</ns3:hr>
            <ns3:cad>51</ns3:cad>
          </ns3:TrackPointExtension>
        </extensions>
      </trkpt>
      <trkpt lat="45.319401808083057403564453125" lon="-70.8073224686086177825927734375">
        <ele>946.5999755859375</ele>
        <time>2026-08-21T12:43:43.000Z</time>
        <extensions>
          <ns3:TrackPointExtension>
            <ns3:hr>150</ns3:hr>
            <ns3:cad>51</ns3:cad>
          </ns3:TrackPointExtension>
        </extensions>
      </trkpt>
      <trkpt lat="45.3193956054747104644775390625" lon="-70.80732707865536212921142578125">
        <ele>946.79998779296875</ele>
        <time>2026-08-21T12:43:44.000Z</time>
        <extensions>
          <ns3:TrackPointExtension>
            <ns3:hr>150</ns3:hr>
            <ns3:cad>53</ns3:cad>
          </ns3:TrackPointExtension>
        </extensions>
      </trkpt>
      <trkpt lat="45.3193892352283000946044921875" lon="-70.80732909031212329864501953125">
        <ele>947.20001220703125</ele>
        <time>2026-08-21T12:43:45.000Z</time>
        <extensions>
          <ns3:TrackPointExtension>
            <ns3:hr>149</ns3:hr>
            <ns3:cad>54</ns3:cad>
          </ns3:TrackPointExtension>
        </extensions>
      </trkpt>
      <trkpt lat="45.31938529573380947113037109375" lon="-70.80732875503599643707275390625">
        <ele>947.4000244140625</ele>
        <time>2026-08-21T12:43:46.000Z</time>
        <extensions>
          <ns3:TrackPointExtension>
            <ns3:hr>150</ns3:hr>
            <ns3:cad>54</ns3:cad>
          </ns3:TrackPointExtension>
        </extensions>
      </trkpt>
      <trkpt lat="45.319377668201923370361328125" lon="-70.80732976086437702178955078125">
        <ele>947.5999755859375</ele>
        <time>2026-08-21T12:43:47.000Z</time>
        <extensions>
          <ns3:TrackPointExtension>
            <ns3:hr>150</ns3:hr>
            <ns3:cad>50</ns3:cad>
          </ns3:TrackPointExtension>
        </extensions>
      </trkpt>
      <trkpt lat="45.319366939365863800048828125" lon="-70.8073295094072818756103515625">
        <ele>948</ele>
        <time>2026-08-21T12:43:48.000Z</time>
        <extensions>
          <ns3:TrackPointExtension>
            <ns3:hr>149</ns3:hr>
            <ns3:cad>50</ns3:cad>
          </ns3:TrackPointExtension>
        </extensions>
      </trkpt>
      <trkpt lat="45.3193570487201213836669921875" lon="-70.80732909031212329864501953125">
        <ele>948.20001220703125</ele>
        <time>2026-08-21T12:43:49.000Z</time>
        <extensions>
          <ns3:TrackPointExtension>
            <ns3:hr>150</ns3:hr>
            <ns3:cad>49</ns3:cad>
          </ns3:TrackPointExtension>
        </extensions>
      </trkpt>
      <trkpt lat="45.31934891827404499053955078125" lon="-70.80732657574117183685302734375">
        <ele>948.4000244140625</ele>
        <time>2026-08-21T12:43:50.000Z</time>
        <extensions>
          <ns3:TrackPointExtension>
            <ns3:hr>150</ns3:hr>
            <ns3:cad>49</ns3:cad>
          </ns3:TrackPointExtension>
        </extensions>
      </trkpt>
      <trkpt lat="45.319340787827968597412109375" lon="-70.80732221715152263641357421875">
        <ele>948.5999755859375</ele>
        <time>2026-08-21T12:43:51.000Z</time>
        <extensions>
          <ns3:TrackPointExtension>
            <ns3:hr>149</ns3:hr>
            <ns3:cad>49</ns3:cad>
          </ns3:TrackPointExtension>
        </extensions>
      </trkpt>
      <trkpt lat="45.31933098100125789642333984375" lon="-70.8073197863996028900146484375">
        <ele>948.5999755859375</ele>
        <time>2026-08-21T12:43:52.000Z</time>
        <extensions>
          <ns3:TrackPointExtension>
            <ns3:hr>147</ns3:hr>
            <ns3:cad>49</ns3:cad>
          </ns3:TrackPointExtension>
        </extensions>
      </trkpt>
      <trkpt lat="45.31932259909808635711669921875" lon="-70.8073181100189685821533203125">
        <ele>948.79998779296875</ele>
        <time>2026-08-21T12:43:53.000Z</time>
        <extensions>
          <ns3:TrackPointExtension>
            <ns3:hr>146</ns3:hr>
            <ns3:cad>49</ns3:cad>
          </ns3:TrackPointExtension>
        </extensions>
      </trkpt>
      <trkpt lat="45.31930918805301189422607421875" lon="-70.8073179423809051513671875">
        <ele>949</ele>
        <time>2026-08-21T12:43:54.000Z</time>
        <extensions>
          <ns3:TrackPointExtension>
            <ns3:hr>146</ns3:hr>
            <ns3:cad>0</ns3:cad>
          </ns3:TrackPointExtension>
        </extensions>
      </trkpt>
      <trkpt lat="45.3192943520843982696533203125" lon="-70.80732003785669803619384765625">
        <ele>949.20001220703125</ele>
        <time>2026-08-21T12:43:55.000Z</time>
        <extensions>
          <ns3:TrackPointExtension>
            <ns3:hr>146</ns3:hr>
            <ns3:cad>0</ns3:cad>
          </ns3:TrackPointExtension>
        </extensions>
      </trkpt>
      <trkpt lat="45.31928370706737041473388671875" lon="-70.80732171423733234405517578125">
        <ele>949.4000244140625</ele>
        <time>2026-08-21T12:43:56.000Z</time>
        <extensions>
          <ns3:TrackPointExtension>
            <ns3:hr>146</ns3:hr>
            <ns3:cad>50</ns3:cad>
          </ns3:TrackPointExtension>
        </extensions>
      </trkpt>
      <trkpt lat="45.3192688710987567901611328125" lon="-70.80732439644634723663330078125">
        <ele>949.4000244140625</ele>
        <time>2026-08-21T12:43:57.000Z</time>
        <extensions>
          <ns3:TrackPointExtension>
            <ns3:hr>146</ns3:hr>
            <ns3:cad>50</ns3:cad>
          </ns3:TrackPointExtension>
        </extensions>
      </trkpt>
      <trkpt lat="45.3192566335201263427734375" lon="-70.807327330112457275390625">
        <ele>949.5999755859375</ele>
        <time>2026-08-21T12:43:58.000Z</time>
        <extensions>
          <ns3:TrackPointExtension>
            <ns3:hr>146</ns3:hr>
            <ns3:cad>50</ns3:cad>
          </ns3:TrackPointExtension>
        </extensions>
      </trkpt>
      <trkpt lat="45.3192405402660369873046875" lon="-70.8073295094072818756103515625">
        <ele>949.5999755859375</ele>
        <time>2026-08-21T12:43:59.000Z</time>
        <extensions>
          <ns3:TrackPointExtension>
            <ns3:hr>146</ns3:hr>
            <ns3:cad>54</ns3:cad>
          </ns3:TrackPointExtension>
        </extensions>
      </trkpt>
      <trkpt lat="45.31922386027872562408447265625" lon="-70.8073285035789012908935546875">
        <ele>949.5999755859375</ele>
        <time>2026-08-21T12:44:00.000Z</time>
        <extensions>
          <ns3:TrackPointExtension>
            <ns3:hr>147</ns3:hr>
            <ns3:cad>54</ns3:cad>
          </ns3:TrackPointExtension>
        </extensions>
      </trkpt>
      <trkpt lat="45.31920927576720714569091796875" lon="-70.80733177252113819122314453125">
        <ele>949.5999755859375</ele>
        <time>2026-08-21T12:44:01.000Z</time>
        <extensions>
          <ns3:TrackPointExtension>
            <ns3:hr>148</ns3:hr>
            <ns3:cad>54</ns3:cad>
          </ns3:TrackPointExtension>
        </extensions>
      </trkpt>
      <trkpt lat="45.319195277988910675048828125" lon="-70.80734250135719776153564453125">
        <ele>949.5999755859375</ele>
        <time>2026-08-21T12:44:02.000Z</time>
        <extensions>
          <ns3:TrackPointExtension>
            <ns3:hr>148</ns3:hr>
            <ns3:cad>54</ns3:cad>
          </ns3:TrackPointExtension>
        </extensions>
      </trkpt>
      <trkpt lat="45.31918756663799285888671875" lon="-70.80736613832414150238037109375">
        <ele>949.5999755859375</ele>
        <time>2026-08-21T12:44:03.000Z</time>
        <extensions>
          <ns3:TrackPointExtension>
            <ns3:hr>148</ns3:hr>
            <ns3:cad>54</ns3:cad>
          </ns3:TrackPointExtension>
        </extensions>
      </trkpt>
      <trkpt lat="45.3191870637238025665283203125" lon="-70.80738692544400691986083984375">
        <ele>949.5999755859375</ele>
        <time>2026-08-21T12:44:04.000Z</time>
        <extensions>
          <ns3:TrackPointExtension>
            <ns3:hr>148</ns3:hr>
            <ns3:cad>55</ns3:cad>
          </ns3:TrackPointExtension>
        </extensions>
      </trkpt>
      <trkpt lat="45.31918731518089771270751953125" lon="-70.80740754492580890655517578125">
        <ele>949.5999755859375</ele>
        <time>2026-08-21T12:44:05.000Z</time>
        <extensions>
          <ns3:TrackPointExtension>
            <ns3:hr>148</ns3:hr>
            <ns3:cad>55</ns3:cad>
          </ns3:TrackPointExtension>
        </extensions>
      </trkpt>
      <trkpt lat="45.31918798573315143585205078125" lon="-70.80742724239826202392578125">
        <ele>949.5999755859375</ele>
        <time>2026-08-21T12:44:06.000Z</time>
        <extensions>
          <ns3:TrackPointExtension>
            <ns3:hr>148</ns3:hr>
            <ns3:cad>57</ns3:cad>
          </ns3:TrackPointExtension>
        </extensions>
      </trkpt>
      <trkpt lat="45.3191867284476757049560546875" lon="-70.80743889324367046356201171875">
        <ele>949.79998779296875</ele>
        <time>2026-08-21T12:44:07.000Z</time>
        <extensions>
          <ns3:TrackPointExtension>
            <ns3:hr>147</ns3:hr>
            <ns3:cad>57</ns3:cad>
          </ns3:TrackPointExtension>
        </extensions>
      </trkpt>
      <trkpt lat="45.31918211840093135833740234375" lon="-70.807451047003269195556640625">
        <ele>949.79998779296875</ele>
        <time>2026-08-21T12:44:08.000Z</time>
        <extensions>
          <ns3:TrackPointExtension>
            <ns3:hr>146</ns3:hr>
            <ns3:cad>57</ns3:cad>
          </ns3:TrackPointExtension>
        </extensions>
      </trkpt>
      <trkpt lat="45.31917826272547245025634765625" lon="-70.80745884217321872711181640625">
        <ele>949.79998779296875</ele>
        <time>2026-08-21T12:44:09.000Z</time>
        <extensions>
          <ns3:TrackPointExtension>
            <ns3:hr>145</ns3:hr>
            <ns3:cad>57</ns3:cad>
          </ns3:TrackPointExtension>
        </extensions>
      </trkpt>
      <trkpt lat="45.31917021609842777252197265625" lon="-70.80747024156153202056884765625">
        <ele>949.79998779296875</ele>
        <time>2026-08-21T12:44:10.000Z</time>
        <extensions>
          <ns3:TrackPointExtension>
            <ns3:hr>145</ns3:hr>
            <ns3:cad>57</ns3:cad>
          </ns3:TrackPointExtension>
        </extensions>
      </trkpt>
      <trkpt lat="45.3191627562046051025390625" lon="-70.8074827305972576141357421875">
        <ele>949.79998779296875</ele>
        <time>2026-08-21T12:44:11.000Z</time>
        <extensions>
          <ns3:TrackPointExtension>
            <ns3:hr>144</ns3:hr>
            <ns3:cad>47</ns3:cad>
          </ns3:TrackPointExtension>
        </extensions>
      </trkpt>
      <trkpt lat="45.3191538713872432708740234375" lon="-70.80750360153615474700927734375">
        <ele>949.5999755859375</ele>
        <time>2026-08-21T12:44:12.000Z</time>
        <extensions>
          <ns3:TrackPointExtension>
            <ns3:hr>144</ns3:hr>
            <ns3:cad>47</ns3:cad>
          </ns3:TrackPointExtension>
        </extensions>
      </trkpt>
      <trkpt lat="45.31914339400827884674072265625" lon="-70.80752271227538585662841796875">
        <ele>949.4000244140625</ele>
        <time>2026-08-21T12:44:13.000Z</time>
        <extensions>
          <ns3:TrackPointExtension>
            <ns3:hr>143</ns3:hr>
            <ns3:cad>47</ns3:cad>
          </ns3:TrackPointExtension>
        </extensions>
      </trkpt>
      <trkpt lat="45.31913819722831249237060546875" lon="-70.8075397275388240814208984375">
        <ele>949.4000244140625</ele>
        <time>2026-08-21T12:44:14.000Z</time>
        <extensions>
          <ns3:TrackPointExtension>
            <ns3:hr>143</ns3:hr>
            <ns3:cad>47</ns3:cad>
          </ns3:TrackPointExtension>
        </extensions>
      </trkpt>
      <trkpt lat="45.319131910800933837890625" lon="-70.807548277080059051513671875">
        <ele>949.20001220703125</ele>
        <time>2026-08-21T12:44:15.000Z</time>
        <extensions>
          <ns3:TrackPointExtension>
            <ns3:hr>143</ns3:hr>
            <ns3:cad>53</ns3:cad>
          </ns3:TrackPointExtension>
        </extensions>
      </trkpt>
      <trkpt lat="45.3191252052783966064453125" lon="-70.80753880552947521209716796875">
        <ele>949.20001220703125</ele>
        <time>2026-08-21T12:44:16.000Z</time>
        <extensions>
          <ns3:TrackPointExtension>
            <ns3:hr>142</ns3:hr>
            <ns3:cad>53</ns3:cad>
          </ns3:TrackPointExtension>
        </extensions>
      </trkpt>
      <trkpt lat="45.31912093050777912139892578125" lon="-70.80753243528306484222412109375">
        <ele>949.20001220703125</ele>
        <time>2026-08-21T12:44:17.000Z</time>
        <extensions>
          <ns3:TrackPointExtension>
            <ns3:hr>141</ns3:hr>
            <ns3:cad>53</ns3:cad>
          </ns3:TrackPointExtension>
        </extensions>
      </trkpt>
      <trkpt lat="45.31912109814584255218505859375" lon="-70.80752941779792308807373046875">
        <ele>949.20001220703125</ele>
        <time>2026-08-21T12:44:18.000Z</time>
        <extensions>
          <ns3:TrackPointExtension>
            <ns3:hr>140</ns3:hr>
            <ns3:cad>0</ns3:cad>
          </ns3:TrackPointExtension>
        </extensions>
      </trkpt>
      <trkpt lat="45.31911858357489109039306640625" lon="-70.80751441419124603271484375">
        <ele>949.20001220703125</ele>
        <time>2026-08-21T12:44:19.000Z</time>
        <extensions>
          <ns3:TrackPointExtension>
            <ns3:hr>140</ns3:hr>
            <ns3:cad>0</ns3:cad>
          </ns3:TrackPointExtension>
        </extensions>
      </trkpt>
      <trkpt lat="45.3191186673939228057861328125" lon="-70.80750167369842529296875">
        <ele>949.4000244140625</ele>
        <time>2026-08-21T12:44:20.000Z</time>
        <extensions>
          <ns3:TrackPointExtension>
            <ns3:hr>139</ns3:hr>
            <ns3:cad>0</ns3:cad>
          </ns3:TrackPointExtension>
        </extensions>
      </trkpt>
      <trkpt lat="45.31911606900393962860107421875" lon="-70.8074901066720485687255859375">
        <ele>949.4000244140625</ele>
        <time>2026-08-21T12:44:21.000Z</time>
        <extensions>
          <ns3:TrackPointExtension>
            <ns3:hr>139</ns3:hr>
            <ns3:cad>0</ns3:cad>
          </ns3:TrackPointExtension>
        </extensions>
      </trkpt>
      <trkpt lat="45.31911858357489109039306640625" lon="-70.80746957100927829742431640625">
        <ele>949.4000244140625</ele>
        <time>2026-08-21T12:44:22.000Z</time>
        <extensions>
          <ns3:TrackPointExtension>
            <ns3:hr>139</ns3:hr>
            <ns3:cad>0</ns3:cad>
          </ns3:TrackPointExtension>
        </extensions>
      </trkpt>
      <trkpt lat="45.3191193379461765289306640625" lon="-70.8074522204697132110595703125">
        <ele>949.4000244140625</ele>
        <time>2026-08-21T12:44:23.000Z</time>
        <extensions>
          <ns3:TrackPointExtension>
            <ns3:hr>139</ns3:hr>
            <ns3:cad>0</ns3:cad>
          </ns3:TrackPointExtension>
        </extensions>
      </trkpt>
      <trkpt lat="45.31911439262330532073974609375" lon="-70.80743554048240184783935546875">
        <ele>949.4000244140625</ele>
        <time>2026-08-21T12:44:24.000Z</time>
        <extensions>
          <ns3:TrackPointExtension>
            <ns3:hr>139</ns3:hr>
            <ns3:cad>0</ns3:cad>
          </ns3:TrackPointExtension>
        </extensions>
      </trkpt>
      <trkpt lat="45.31910575926303863525390625" lon="-70.80741391517221927642822265625">
        <ele>949.4000244140625</ele>
        <time>2026-08-21T12:44:25.000Z</time>
        <extensions>
          <ns3:TrackPointExtension>
            <ns3:hr>139</ns3:hr>
            <ns3:cad>0</ns3:cad>
          </ns3:TrackPointExtension>
        </extensions>
      </trkpt>
      <trkpt lat="45.3190958686172962188720703125" lon="-70.8073930442333221435546875">
        <ele>949.4000244140625</ele>
        <time>2026-08-21T12:44:26.000Z</time>
        <extensions>
          <ns3:TrackPointExtension>
            <ns3:hr>139</ns3:hr>
            <ns3:cad>0</ns3:cad>
          </ns3:TrackPointExtension>
        </extensions>
      </trkpt>
      <trkpt lat="45.3190822899341583251953125" lon="-70.80737552605569362640380859375">
        <ele>949.4000244140625</ele>
        <time>2026-08-21T12:44:27.000Z</time>
        <extensions>
          <ns3:TrackPointExtension>
            <ns3:hr>139</ns3:hr>
            <ns3:cad>0</ns3:cad>
          </ns3:TrackPointExtension>
        </extensions>
      </trkpt>
      <trkpt lat="45.3190660290420055389404296875" lon="-70.80735708586871623992919921875">
        <ele>949.4000244140625</ele>
        <time>2026-08-21T12:44:28.000Z</time>
        <extensions>
          <ns3:TrackPointExtension>
            <ns3:hr>138</ns3:hr>
            <ns3:cad>0</ns3:cad>
          </ns3:TrackPointExtension>
        </extensions>
      </trkpt>
      <trkpt lat="45.3190546296536922454833984375" lon="-70.80734350718557834625244140625">
        <ele>949.4000244140625</ele>
        <time>2026-08-21T12:44:29.000Z</time>
        <extensions>
          <ns3:TrackPointExtension>
            <ns3:hr>138</ns3:hr>
            <ns3:cad>0</ns3:cad>
          </ns3:TrackPointExtension>
        </extensions>
      </trkpt>
      <trkpt lat="45.31904230825603008270263671875" lon="-70.807338394224643707275390625">
        <ele>949.4000244140625</ele>
        <time>2026-08-21T12:44:30.000Z</time>
        <extensions>
          <ns3:TrackPointExtension>
            <ns3:hr>137</ns3:hr>
            <ns3:cad>0</ns3:cad>
          </ns3:TrackPointExtension>
        </extensions>
      </trkpt>
      <trkpt lat="45.31902118586003780364990234375" lon="-70.80732925795018672943115234375">
        <ele>949.5999755859375</ele>
        <time>2026-08-21T12:44:31.000Z</time>
        <extensions>
          <ns3:TrackPointExtension>
            <ns3:hr>136</ns3:hr>
            <ns3:cad>0</ns3:cad>
          </ns3:TrackPointExtension>
        </extensions>
      </trkpt>
      <trkpt lat="45.31900492496788501739501953125" lon="-70.80732758156955242156982421875">
        <ele>949.79998779296875</ele>
        <time>2026-08-21T12:44:32.000Z</time>
        <extensions>
          <ns3:TrackPointExtension>
            <ns3:hr>135</ns3:hr>
            <ns3:cad>0</ns3:cad>
          </ns3:TrackPointExtension>
        </extensions>
      </trkpt>
      <trkpt lat="45.31899050809442996978759765625" lon="-70.80732154659926891326904296875">
        <ele>950.20001220703125</ele>
        <time>2026-08-21T12:44:33.000Z</time>
        <extensions>
          <ns3:TrackPointExtension>
            <ns3:hr>134</ns3:hr>
            <ns3:cad>0</ns3:cad>
          </ns3:TrackPointExtension>
        </extensions>
      </trkpt>
      <trkpt lat="45.31897324137389659881591796875" lon="-70.8073140867054462432861328125">
        <ele>950.4000244140625</ele>
        <time>2026-08-21T12:44:34.000Z</time>
        <extensions>
          <ns3:TrackPointExtension>
            <ns3:hr>134</ns3:hr>
            <ns3:cad>0</ns3:cad>
          </ns3:TrackPointExtension>
        </extensions>
      </trkpt>
      <trkpt lat="45.31895823776721954345703125" lon="-70.80731433816254138946533203125">
        <ele>950.5999755859375</ele>
        <time>2026-08-21T12:44:35.000Z</time>
        <extensions>
          <ns3:TrackPointExtension>
            <ns3:hr>134</ns3:hr>
            <ns3:cad>0</ns3:cad>
          </ns3:TrackPointExtension>
        </extensions>
      </trkpt>
      <trkpt lat="45.31894482672214508056640625" lon="-70.80731366761028766632080078125">
        <ele>950.5999755859375</ele>
        <time>2026-08-21T12:44:36.000Z</time>
        <extensions>
          <ns3:TrackPointExtension>
            <ns3:hr>133</ns3:hr>
            <ns3:cad>0</ns3:cad>
          </ns3:TrackPointExtension>
        </extensions>
      </trkpt>
      <trkpt lat="45.3189305774867534637451171875" lon="-70.807311572134494781494140625">
        <ele>950.5999755859375</ele>
        <time>2026-08-21T12:44:37.000Z</time>
        <extensions>
          <ns3:TrackPointExtension>
            <ns3:hr>134</ns3:hr>
            <ns3:cad>0</ns3:cad>
          </ns3:TrackPointExtension>
        </extensions>
      </trkpt>
      <trkpt lat="45.31892060302197933197021484375" lon="-70.8073179423809051513671875">
        <ele>950.5999755859375</ele>
        <time>2026-08-21T12:44:38.000Z</time>
        <extensions>
          <ns3:TrackPointExtension>
            <ns3:hr>134</ns3:hr>
            <ns3:cad>0</ns3:cad>
          </ns3:TrackPointExtension>
        </extensions>
      </trkpt>
      <trkpt lat="45.31890383921563625335693359375" lon="-70.80732531845569610595703125">
        <ele>950.5999755859375</ele>
        <time>2026-08-21T12:44:39.000Z</time>
        <extensions>
          <ns3:TrackPointExtension>
            <ns3:hr>135</ns3:hr>
            <ns3:cad>0</ns3:cad>
          </ns3:TrackPointExtension>
        </extensions>
      </trkpt>
      <trkpt lat="45.3188931941986083984375" lon="-70.80731819383800029754638671875">
        <ele>950.79998779296875</ele>
        <time>2026-08-21T12:44:40.000Z</time>
        <extensions>
          <ns3:TrackPointExtension>
            <ns3:hr>135</ns3:hr>
            <ns3:cad>0</ns3:cad>
          </ns3:TrackPointExtension>
        </extensions>
      </trkpt>
      <trkpt lat="45.3188809566199779510498046875" lon="-70.80731366761028766632080078125">
        <ele>951</ele>
        <time>2026-08-21T12:44:41.000Z</time>
        <extensions>
          <ns3:TrackPointExtension>
            <ns3:hr>135</ns3:hr>
            <ns3:cad>0</ns3:cad>
          </ns3:TrackPointExtension>
        </extensions>
      </trkpt>
      <trkpt lat="45.318864695727825164794921875" lon="-70.80731165595352649688720703125">
        <ele>951.20001220703125</ele>
        <time>2026-08-21T12:44:42.000Z</time>
        <extensions>
          <ns3:TrackPointExtension>
            <ns3:hr>136</ns3:hr>
            <ns3:cad>0</ns3:cad>
          </ns3:TrackPointExtension>
        </extensions>
      </trkpt>
      <trkpt lat="45.31885036267340183258056640625" lon="-70.80731484107673168182373046875">
        <ele>951.20001220703125</ele>
        <time>2026-08-21T12:44:43.000Z</time>
        <extensions>
          <ns3:TrackPointExtension>
            <ns3:hr>136</ns3:hr>
            <ns3:cad>0</ns3:cad>
          </ns3:TrackPointExtension>
        </extensions>
      </trkpt>
      <trkpt lat="45.3188383765518665313720703125" lon="-70.80732272006571292877197265625">
        <ele>951.4000244140625</ele>
        <time>2026-08-21T12:44:44.000Z</time>
        <extensions>
          <ns3:TrackPointExtension>
            <ns3:hr>136</ns3:hr>
            <ns3:cad>0</ns3:cad>
          </ns3:TrackPointExtension>
        </extensions>
      </trkpt>
      <trkpt lat="45.31883418560028076171875" lon="-70.807331018149852752685546875">
        <ele>951.4000244140625</ele>
        <time>2026-08-21T12:44:45.000Z</time>
        <extensions>
          <ns3:TrackPointExtension>
            <ns3:hr>137</ns3:hr>
            <ns3:cad>0</ns3:cad>
          </ns3:TrackPointExtension>
        </extensions>
      </trkpt>
      <trkpt lat="45.318823792040348052978515625" lon="-70.80733344890177249908447265625">
        <ele>951.4000244140625</ele>
        <time>2026-08-21T12:44:46.000Z</time>
        <extensions>
          <ns3:TrackPointExtension>
            <ns3:hr>138</ns3:hr>
            <ns3:cad>0</ns3:cad>
          </ns3:TrackPointExtension>
        </extensions>
      </trkpt>
      <trkpt lat="45.31881398521363735198974609375" lon="-70.80732657574117183685302734375">
        <ele>951.4000244140625</ele>
        <time>2026-08-21T12:44:47.000Z</time>
        <extensions>
          <ns3:TrackPointExtension>
            <ns3:hr>140</ns3:hr>
            <ns3:cad>40</ns3:cad>
          </ns3:TrackPointExtension>
        </extensions>
      </trkpt>
      <trkpt lat="45.31880308873951435089111328125" lon="-70.80732439644634723663330078125">
        <ele>951.4000244140625</ele>
        <time>2026-08-21T12:44:48.000Z</time>
        <extensions>
          <ns3:TrackPointExtension>
            <ns3:hr>140</ns3:hr>
            <ns3:cad>40</ns3:cad>
          </ns3:TrackPointExtension>
        </extensions>
      </trkpt>
      <trkpt lat="45.3187944553792476654052734375" lon="-70.80732397735118865966796875">
        <ele>951.4000244140625</ele>
        <time>2026-08-21T12:44:49.000Z</time>
        <extensions>
          <ns3:TrackPointExtension>
            <ns3:hr>141</ns3:hr>
            <ns3:cad>0</ns3:cad>
          </ns3:TrackPointExtension>
        </extensions>
      </trkpt>
      <trkpt lat="45.31878121197223663330078125" lon="-70.80732154659926891326904296875">
        <ele>951.5999755859375</ele>
        <time>2026-08-21T12:44:50.000Z</time>
        <extensions>
          <ns3:TrackPointExtension>
            <ns3:hr>141</ns3:hr>
            <ns3:cad>0</ns3:cad>
          </ns3:TrackPointExtension>
        </extensions>
      </trkpt>
      <trkpt lat="45.318775512278079986572265625" lon="-70.8073231391608715057373046875">
        <ele>951.79998779296875</ele>
        <time>2026-08-21T12:44:51.000Z</time>
        <extensions>
          <ns3:TrackPointExtension>
            <ns3:hr>141</ns3:hr>
            <ns3:cad>0</ns3:cad>
          </ns3:TrackPointExtension>
        </extensions>
      </trkpt>
      <trkpt lat="45.3187713213264942169189453125" lon="-70.807323642075061798095703125">
        <ele>951.79998779296875</ele>
        <time>2026-08-21T12:44:52.000Z</time>
        <extensions>
          <ns3:TrackPointExtension>
            <ns3:hr>141</ns3:hr>
            <ns3:cad>0</ns3:cad>
          </ns3:TrackPointExtension>
        </extensions>
      </trkpt>
      <trkpt lat="45.31876687891781330108642578125" lon="-70.8073211275041103363037109375">
        <ele>952.20001220703125</ele>
        <time>2026-08-21T12:44:53.000Z</time>
        <extensions>
          <ns3:TrackPointExtension>
            <ns3:hr>140</ns3:hr>
            <ns3:cad>0</ns3:cad>
          </ns3:TrackPointExtension>
        </extensions>
      </trkpt>
      <trkpt lat="45.318762771785259246826171875" lon="-70.80732238478958606719970703125">
        <ele>952.5999755859375</ele>
        <time>2026-08-21T12:44:54.000Z</time>
        <extensions>
          <ns3:TrackPointExtension>
            <ns3:hr>140</ns3:hr>
            <ns3:cad>0</ns3:cad>
          </ns3:TrackPointExtension>
        </extensions>
      </trkpt>
      <trkpt lat="45.31875648535788059234619140625" lon="-70.8073214627802371978759765625">
        <ele>952.79998779296875</ele>
        <time>2026-08-21T12:44:55.000Z</time>
        <extensions>
          <ns3:TrackPointExtension>
            <ns3:hr>140</ns3:hr>
            <ns3:cad>0</ns3:cad>
          </ns3:TrackPointExtension>
        </extensions>
      </trkpt>
      <trkpt lat="45.318748019635677337646484375" lon="-70.80732573755085468292236328125">
        <ele>953.20001220703125</ele>
        <time>2026-08-21T12:44:56.000Z</time>
        <extensions>
          <ns3:TrackPointExtension>
            <ns3:hr>139</ns3:hr>
            <ns3:cad>0</ns3:cad>
          </ns3:TrackPointExtension>
        </extensions>
      </trkpt>
      <trkpt lat="45.31874206848442554473876953125" lon="-70.8073301799595355987548828125">
        <ele>953.4000244140625</ele>
        <time>2026-08-21T12:44:57.000Z</time>
        <extensions>
          <ns3:TrackPointExtension>
            <ns3:hr>138</ns3:hr>
            <ns3:cad>0</ns3:cad>
          </ns3:TrackPointExtension>
        </extensions>
      </trkpt>
      <trkpt lat="45.31873217783868312835693359375" lon="-70.807333700358867645263671875">
        <ele>953.5999755859375</ele>
        <time>2026-08-21T12:44:58.000Z</time>
        <extensions>
          <ns3:TrackPointExtension>
            <ns3:hr>138</ns3:hr>
            <ns3:cad>0</ns3:cad>
          </ns3:TrackPointExtension>
        </extensions>
      </trkpt>
      <trkpt lat="45.31872010789811611175537109375" lon="-70.8073342032730579376220703125">
        <ele>953.79998779296875</ele>
        <time>2026-08-21T12:44:59.000Z</time>
        <extensions>
          <ns3:TrackPointExtension>
            <ns3:hr>137</ns3:hr>
            <ns3:cad>0</ns3:cad>
          </ns3:TrackPointExtension>
        </extensions>
      </trkpt>
      <trkpt lat="45.3187139891088008880615234375" lon="-70.80732774920761585235595703125">
        <ele>953.79998779296875</ele>
        <time>2026-08-21T12:45:00.000Z</time>
        <extensions>
          <ns3:TrackPointExtension>
            <ns3:hr>137</ns3:hr>
            <ns3:cad>0</ns3:cad>
          </ns3:TrackPointExtension>
        </extensions>
      </trkpt>
      <trkpt lat="45.31870476901531219482421875" lon="-70.8073321916162967681884765625">
        <ele>954</ele>
        <time>2026-08-21T12:45:01.000Z</time>
        <extensions>
          <ns3:TrackPointExtension>
            <ns3:hr>137</ns3:hr>
            <ns3:cad>0</ns3:cad>
          </ns3:TrackPointExtension>
        </extensions>
      </trkpt>
      <trkpt lat="45.3186985664069652557373046875" lon="-70.80733311362564563751220703125">
        <ele>954</ele>
        <time>2026-08-21T12:45:02.000Z</time>
        <extensions>
          <ns3:TrackPointExtension>
            <ns3:hr>137</ns3:hr>
            <ns3:cad>0</ns3:cad>
          </ns3:TrackPointExtension>
        </extensions>
      </trkpt>
      <trkpt lat="45.31869596801698207855224609375" lon="-70.80733663402497768402099609375">
        <ele>954</ele>
        <time>2026-08-21T12:45:03.000Z</time>
        <extensions>
          <ns3:TrackPointExtension>
            <ns3:hr>137</ns3:hr>
            <ns3:cad>0</ns3:cad>
          </ns3:TrackPointExtension>
        </extensions>
      </trkpt>
      <trkpt lat="45.31869395636022090911865234375" lon="-70.807335376739501953125">
        <ele>954.20001220703125</ele>
        <time>2026-08-21T12:45:04.000Z</time>
        <extensions>
          <ns3:TrackPointExtension>
            <ns3:hr>138</ns3:hr>
            <ns3:cad>0</ns3:cad>
          </ns3:TrackPointExtension>
        </extensions>
      </trkpt>
      <trkpt lat="45.3186915256083011627197265625" lon="-70.807335376739501953125">
        <ele>954.20001220703125</ele>
        <time>2026-08-21T12:45:05.000Z</time>
        <extensions>
          <ns3:TrackPointExtension>
            <ns3:hr>138</ns3:hr>
            <ns3:cad>0</ns3:cad>
          </ns3:TrackPointExtension>
        </extensions>
      </trkpt>
      <trkpt lat="45.31869135797023773193359375" lon="-70.80733160488307476043701171875">
        <ele>954</ele>
        <time>2026-08-21T12:45:06.000Z</time>
        <extensions>
          <ns3:TrackPointExtension>
            <ns3:hr>139</ns3:hr>
            <ns3:cad>0</ns3:cad>
          </ns3:TrackPointExtension>
        </extensions>
      </trkpt>
      <trkpt lat="45.31869135797023773193359375" lon="-70.80733160488307476043701171875">
        <ele>954</ele>
        <time>2026-08-21T12:45:07.000Z</time>
        <extensions>
          <ns3:TrackPointExtension>
            <ns3:hr>140</ns3:hr>
            <ns3:cad>0</ns3:cad>
          </ns3:TrackPointExtension>
        </extensions>
      </trkpt>
      <trkpt lat="45.31869135797023773193359375" lon="-70.80733160488307476043701171875">
        <ele>954</ele>
        <time>2026-08-21T12:45:08.000Z</time>
        <extensions>
          <ns3:TrackPointExtension>
            <ns3:hr>140</ns3:hr>
            <ns3:cad>0</ns3:cad>
          </ns3:TrackPointExtension>
        </extensions>
      </trkpt>
      <trkpt lat="45.31869135797023773193359375" lon="-70.80733160488307476043701171875">
        <ele>954</ele>
        <time>2026-08-21T12:45:09.000Z</time>
        <extensions>
          <ns3:TrackPointExtension>
            <ns3:hr>140</ns3:hr>
            <ns3:cad>0</ns3:cad>
          </ns3:TrackPointExtension>
        </extensions>
      </trkpt>
      <trkpt lat="45.31869135797023773193359375" lon="-70.80733160488307476043701171875">
        <ele>954</ele>
        <time>2026-08-21T12:45:10.000Z</time>
        <extensions>
          <ns3:TrackPointExtension>
            <ns3:hr>141</ns3:hr>
            <ns3:cad>0</ns3:cad>
          </ns3:TrackPointExtension>
        </extensions>
      </trkpt>
      <trkpt lat="45.31869135797023773193359375" lon="-70.80733160488307476043701171875">
        <ele>954.20001220703125</ele>
        <time>2026-08-21T12:45:11.000Z</time>
        <extensions>
          <ns3:TrackPointExtension>
            <ns3:hr>141</ns3:hr>
            <ns3:cad>0</ns3:cad>
          </ns3:TrackPointExtension>
        </extensions>
      </trkpt>
      <trkpt lat="45.31869135797023773193359375" lon="-70.80733160488307476043701171875">
        <ele>954.20001220703125</ele>
        <time>2026-08-21T12:45:12.000Z</time>
        <extensions>
          <ns3:TrackPointExtension>
            <ns3:hr>140</ns3:hr>
            <ns3:cad>0</ns3:cad>
          </ns3:TrackPointExtension>
        </extensions>
      </trkpt>
      <trkpt lat="45.31869135797023773193359375" lon="-70.80733160488307476043701171875">
        <ele>954.4000244140625</ele>
        <time>2026-08-21T12:45:13.000Z</time>
        <extensions>
          <ns3:TrackPointExtension>
            <ns3:hr>140</ns3:hr>
            <ns3:cad>0</ns3:cad>
          </ns3:TrackPointExtension>
        </extensions>
      </trkpt>
      <trkpt lat="45.31869135797023773193359375" lon="-70.80733160488307476043701171875">
        <ele>954.4000244140625</ele>
        <time>2026-08-21T12:45:14.000Z</time>
        <extensions>
          <ns3:TrackPointExtension>
            <ns3:hr>140</ns3:hr>
            <ns3:cad>0</ns3:cad>
          </ns3:TrackPointExtension>
        </extensions>
      </trkpt>
      <trkpt lat="45.31869135797023773193359375" lon="-70.80733160488307476043701171875">
        <ele>954.4000244140625</ele>
        <time>2026-08-21T12:45:15.000Z</time>
        <extensions>
          <ns3:TrackPointExtension>
            <ns3:hr>140</ns3:hr>
            <ns3:cad>0</ns3:cad>
          </ns3:TrackPointExtension>
        </extensions>
      </trkpt>
      <trkpt lat="45.31869135797023773193359375" lon="-70.80733160488307476043701171875">
        <ele>954.4000244140625</ele>
        <time>2026-08-21T12:45:16.000Z</time>
        <extensions>
          <ns3:TrackPointExtension>
            <ns3:hr>139</ns3:hr>
            <ns3:cad>0</ns3:cad>
          </ns3:TrackPointExtension>
        </extensions>
      </trkpt>
      <trkpt lat="45.3186905197799205780029296875" lon="-70.80732875503599643707275390625">
        <ele>954.4000244140625</ele>
        <time>2026-08-21T12:45:17.000Z</time>
        <extensions>
          <ns3:TrackPointExtension>
            <ns3:hr>139</ns3:hr>
            <ns3:cad>0</ns3:cad>
          </ns3:TrackPointExtension>
        </extensions>
      </trkpt>
      <trkpt lat="45.31868741847574710845947265625" lon="-70.80733445473015308380126953125">
        <ele>954.20001220703125</ele>
        <time>2026-08-21T12:45:18.000Z</time>
        <extensions>
          <ns3:TrackPointExtension>
            <ns3:hr>139</ns3:hr>
            <ns3:cad>0</ns3:cad>
          </ns3:TrackPointExtension>
        </extensions>
      </trkpt>
      <trkpt lat="45.31868574209511280059814453125" lon="-70.80733629874885082244873046875">
        <ele>954</ele>
        <time>2026-08-21T12:45:19.000Z</time>
        <extensions>
          <ns3:TrackPointExtension>
            <ns3:hr>140</ns3:hr>
            <ns3:cad>0</ns3:cad>
          </ns3:TrackPointExtension>
        </extensions>
      </trkpt>
      <trkpt lat="45.3186797909438610076904296875" lon="-70.80735146999359130859375">
        <ele>953.79998779296875</ele>
        <time>2026-08-21T12:45:20.000Z</time>
        <extensions>
          <ns3:TrackPointExtension>
            <ns3:hr>139</ns3:hr>
            <ns3:cad>47</ns3:cad>
          </ns3:TrackPointExtension>
        </extensions>
      </trkpt>
      <trkpt lat="45.318676941096782684326171875" lon="-70.80736161209642887115478515625">
        <ele>953.5999755859375</ele>
        <time>2026-08-21T12:45:21.000Z</time>
        <extensions>
          <ns3:TrackPointExtension>
            <ns3:hr>139</ns3:hr>
            <ns3:cad>47</ns3:cad>
          </ns3:TrackPointExtension>
        </extensions>
      </trkpt>
      <trkpt lat="45.31867392361164093017578125" lon="-70.80736446194350719451904296875">
        <ele>953.4000244140625</ele>
        <time>2026-08-21T12:45:22.000Z</time>
        <extensions>
          <ns3:TrackPointExtension>
            <ns3:hr>138</ns3:hr>
            <ns3:cad>47</ns3:cad>
          </ns3:TrackPointExtension>
        </extensions>
      </trkpt>
      <trkpt lat="45.31867132522165775299072265625" lon="-70.80736898817121982574462890625">
        <ele>953.20001220703125</ele>
        <time>2026-08-21T12:45:23.000Z</time>
        <extensions>
          <ns3:TrackPointExtension>
            <ns3:hr>138</ns3:hr>
            <ns3:cad>0</ns3:cad>
          </ns3:TrackPointExtension>
        </extensions>
      </trkpt>
      <trkpt lat="45.31866931356489658355712890625" lon="-70.807369239628314971923828125">
        <ele>953</ele>
        <time>2026-08-21T12:45:24.000Z</time>
        <extensions>
          <ns3:TrackPointExtension>
            <ns3:hr>137</ns3:hr>
            <ns3:cad>0</ns3:cad>
          </ns3:TrackPointExtension>
        </extensions>
      </trkpt>
      <trkpt lat="45.318662859499454498291015625" lon="-70.80737636424601078033447265625">
        <ele>952.79998779296875</ele>
        <time>2026-08-21T12:45:25.000Z</time>
        <extensions>
          <ns3:TrackPointExtension>
            <ns3:hr>137</ns3:hr>
            <ns3:cad>0</ns3:cad>
          </ns3:TrackPointExtension>
        </extensions>
      </trkpt>
      <trkpt lat="45.31865925528109073638916015625" lon="-70.80738700926303863525390625">
        <ele>952.5999755859375</ele>
        <time>2026-08-21T12:45:26.000Z</time>
        <extensions>
          <ns3:TrackPointExtension>
            <ns3:hr>138</ns3:hr>
            <ns3:cad>0</ns3:cad>
          </ns3:TrackPointExtension>
        </extensions>
      </trkpt>
      <trkpt lat="45.3186573274433612823486328125" lon="-70.80739178694784641265869140625">
        <ele>952.4000244140625</ele>
        <time>2026-08-21T12:45:27.000Z</time>
        <extensions>
          <ns3:TrackPointExtension>
            <ns3:hr>138</ns3:hr>
            <ns3:cad>0</ns3:cad>
          </ns3:TrackPointExtension>
        </extensions>
      </trkpt>
      <trkpt lat="45.31865657307207584381103515625" lon="-70.80740402452647686004638671875">
        <ele>952.20001220703125</ele>
        <time>2026-08-21T12:45:28.000Z</time>
        <extensions>
          <ns3:TrackPointExtension>
            <ns3:hr>138</ns3:hr>
            <ns3:cad>0</ns3:cad>
          </ns3:TrackPointExtension>
        </extensions>
      </trkpt>
      <trkpt lat="45.3186573274433612823486328125" lon="-70.8074099756777286529541015625">
        <ele>952</ele>
        <time>2026-08-21T12:45:29.000Z</time>
        <extensions>
          <ns3:TrackPointExtension>
            <ns3:hr>137</ns3:hr>
            <ns3:cad>0</ns3:cad>
          </ns3:TrackPointExtension>
        </extensions>
      </trkpt>
      <trkpt lat="45.31865439377725124359130859375" lon="-70.8074180223047733306884765625">
        <ele>951.5999755859375</ele>
        <time>2026-08-21T12:45:30.000Z</time>
        <extensions>
          <ns3:TrackPointExtension>
            <ns3:hr>136</ns3:hr>
            <ns3:cad>0</ns3:cad>
          </ns3:TrackPointExtension>
        </extensions>
      </trkpt>
      <trkpt lat="45.3186509571969509124755859375" lon="-70.80740888603031635284423828125">
        <ele>951.20001220703125</ele>
        <time>2026-08-21T12:45:31.000Z</time>
        <extensions>
          <ns3:TrackPointExtension>
            <ns3:hr>135</ns3:hr>
            <ns3:cad>0</ns3:cad>
          </ns3:TrackPointExtension>
        </extensions>
      </trkpt>
      <trkpt lat="45.31864500604569911956787109375" lon="-70.80740570090711116790771484375">
        <ele>950.79998779296875</ele>
        <time>2026-08-21T12:45:32.000Z</time>
        <extensions>
          <ns3:TrackPointExtension>
            <ns3:hr>134</ns3:hr>
            <ns3:cad>0</ns3:cad>
          </ns3:TrackPointExtension>
        </extensions>
      </trkpt>
      <trkpt lat="45.31863964162766933441162109375" lon="-70.80740469507873058319091796875">
        <ele>950.4000244140625</ele>
        <time>2026-08-21T12:45:33.000Z</time>
        <extensions>
          <ns3:TrackPointExtension>
            <ns3:hr>133</ns3:hr>
            <ns3:cad>0</ns3:cad>
          </ns3:TrackPointExtension>
        </extensions>
      </trkpt>
      <trkpt lat="45.31863444484770298004150390625" lon="-70.80740083940327167510986328125">
        <ele>950.20001220703125</ele>
        <time>2026-08-21T12:45:34.000Z</time>
        <extensions>
          <ns3:TrackPointExtension>
            <ns3:hr>132</ns3:hr>
            <ns3:cad>0</ns3:cad>
          </ns3:TrackPointExtension>
        </extensions>
      </trkpt>
      <trkpt lat="45.318627655506134033203125" lon="-70.8073999173939228057861328125">
        <ele>949.79998779296875</ele>
        <time>2026-08-21T12:45:35.000Z</time>
        <extensions>
          <ns3:TrackPointExtension>
            <ns3:hr>131</ns3:hr>
            <ns3:cad>46</ns3:cad>
          </ns3:TrackPointExtension>
        </extensions>
      </trkpt>
      <trkpt lat="45.31861868686974048614501953125" lon="-70.80740176141262054443359375">
        <ele>949.5999755859375</ele>
        <time>2026-08-21T12:45:36.000Z</time>
        <extensions>
          <ns3:TrackPointExtension>
            <ns3:hr>131</ns3:hr>
            <ns3:cad>46</ns3:cad>
          </ns3:TrackPointExtension>
        </extensions>
      </trkpt>
      <trkpt lat="45.318613909184932708740234375" lon="-70.807409472763538360595703125">
        <ele>949.20001220703125</ele>
        <time>2026-08-21T12:45:37.000Z</time>
        <extensions>
          <ns3:TrackPointExtension>
            <ns3:hr>131</ns3:hr>
            <ns3:cad>46</ns3:cad>
          </ns3:TrackPointExtension>
        </extensions>
      </trkpt>
      <trkpt lat="45.3186102211475372314453125" lon="-70.80741575919091701507568359375">
        <ele>948.79998779296875</ele>
        <time>2026-08-21T12:45:38.000Z</time>
        <extensions>
          <ns3:TrackPointExtension>
            <ns3:hr>130</ns3:hr>
            <ns3:cad>46</ns3:cad>
          </ns3:TrackPointExtension>
        </extensions>
      </trkpt>
      <trkpt lat="45.3186050243675708770751953125" lon="-70.80741458572447299957275390625">
        <ele>948.5999755859375</ele>
        <time>2026-08-21T12:45:39.000Z</time>
        <extensions>
          <ns3:TrackPointExtension>
            <ns3:hr>130</ns3:hr>
            <ns3:cad>46</ns3:cad>
          </ns3:TrackPointExtension>
        </extensions>
      </trkpt>
      <trkpt lat="45.3185993246734142303466796875" lon="-70.807424224913120269775390625">
        <ele>948.20001220703125</ele>
        <time>2026-08-21T12:45:40.000Z</time>
        <extensions>
          <ns3:TrackPointExtension>
            <ns3:hr>130</ns3:hr>
            <ns3:cad>0</ns3:cad>
          </ns3:TrackPointExtension>
        </extensions>
      </trkpt>
      <trkpt lat="45.3185963071882724761962890625" lon="-70.807426907122135162353515625">
        <ele>947.79998779296875</ele>
        <time>2026-08-21T12:45:41.000Z</time>
        <extensions>
          <ns3:TrackPointExtension>
            <ns3:hr>129</ns3:hr>
            <ns3:cad>0</ns3:cad>
          </ns3:TrackPointExtension>
        </extensions>
      </trkpt>
      <trkpt lat="45.31859253533184528350830078125" lon="-70.80742849968373775482177734375">
        <ele>947.5999755859375</ele>
        <time>2026-08-21T12:45:42.000Z</time>
        <extensions>
          <ns3:TrackPointExtension>
            <ns3:hr>128</ns3:hr>
            <ns3:cad>0</ns3:cad>
          </ns3:TrackPointExtension>
        </extensions>
      </trkpt>
      <trkpt lat="45.31859169714152812957763671875" lon="-70.80743520520627498626708984375">
        <ele>947.20001220703125</ele>
        <time>2026-08-21T12:45:43.000Z</time>
        <extensions>
          <ns3:TrackPointExtension>
            <ns3:hr>128</ns3:hr>
            <ns3:cad>0</ns3:cad>
          </ns3:TrackPointExtension>
        </extensions>
      </trkpt>
      <trkpt lat="45.31858733855187892913818359375" lon="-70.807438306510448455810546875">
        <ele>947</ele>
        <time>2026-08-21T12:45:44.000Z</time>
        <extensions>
          <ns3:TrackPointExtension>
            <ns3:hr>127</ns3:hr>
            <ns3:cad>0</ns3:cad>
          </ns3:TrackPointExtension>
        </extensions>
      </trkpt>
      <trkpt lat="45.31858633272349834442138671875" lon="-70.807438977062702178955078125">
        <ele>946.5999755859375</ele>
        <time>2026-08-21T12:45:45.000Z</time>
        <extensions>
          <ns3:TrackPointExtension>
            <ns3:hr>127</ns3:hr>
            <ns3:cad>0</ns3:cad>
          </ns3:TrackPointExtension>
        </extensions>
      </trkpt>
      <trkpt lat="45.31858650036156177520751953125" lon="-70.807440988719463348388671875">
        <ele>946.4000244140625</ele>
        <time>2026-08-21T12:45:46.000Z</time>
        <extensions>
          <ns3:TrackPointExtension>
            <ns3:hr>127</ns3:hr>
            <ns3:cad>0</ns3:cad>
          </ns3:TrackPointExtension>
        </extensions>
      </trkpt>
      <trkpt lat="45.318584404885768890380859375" lon="-70.80744576640427112579345703125">
        <ele>946.20001220703125</ele>
        <time>2026-08-21T12:45:47.000Z</time>
        <extensions>
          <ns3:TrackPointExtension>
            <ns3:hr>127</ns3:hr>
            <ns3:cad>0</ns3:cad>
          </ns3:TrackPointExtension>
        </extensions>
      </trkpt>
      <trkpt lat="45.3185792081058025360107421875" lon="-70.8074547350406646728515625">
        <ele>946</ele>
        <time>2026-08-21T12:45:48.000Z</time>
        <extensions>
          <ns3:TrackPointExtension>
            <ns3:hr>127</ns3:hr>
            <ns3:cad>0</ns3:cad>
          </ns3:TrackPointExtension>
        </extensions>
      </trkpt>
      <trkpt lat="45.31857510097324848175048828125" lon="-70.8074547350406646728515625">
        <ele>945.79998779296875</ele>
        <time>2026-08-21T12:45:49.000Z</time>
        <extensions>
          <ns3:TrackPointExtension>
            <ns3:hr>127</ns3:hr>
            <ns3:cad>0</ns3:cad>
          </ns3:TrackPointExtension>
        </extensions>
      </trkpt>
      <trkpt lat="45.31857644207775592803955078125" lon="-70.80745733343064785003662109375">
        <ele>945.5999755859375</ele>
        <time>2026-08-21T12:45:50.000Z</time>
        <extensions>
          <ns3:TrackPointExtension>
            <ns3:hr>127</ns3:hr>
            <ns3:cad>0</ns3:cad>
          </ns3:TrackPointExtension>
        </extensions>
      </trkpt>
      <trkpt lat="45.31857677735388278961181640625" lon="-70.8074549026787281036376953125">
        <ele>945.4000244140625</ele>
        <time>2026-08-21T12:45:51.000Z</time>
        <extensions>
          <ns3:TrackPointExtension>
            <ns3:hr>128</ns3:hr>
            <ns3:cad>0</ns3:cad>
          </ns3:TrackPointExtension>
        </extensions>
      </trkpt>
      <trkpt lat="45.31857602298259735107421875" lon="-70.8074545674026012420654296875">
        <ele>945.20001220703125</ele>
        <time>2026-08-21T12:45:52.000Z</time>
        <extensions>
          <ns3:TrackPointExtension>
            <ns3:hr>127</ns3:hr>
            <ns3:cad>0</ns3:cad>
          </ns3:TrackPointExtension>
        </extensions>
      </trkpt>
      <trkpt lat="45.31857325695455074310302734375" lon="-70.80745230428874492645263671875">
        <ele>945</ele>
        <time>2026-08-21T12:45:53.000Z</time>
        <extensions>
          <ns3:TrackPointExtension>
            <ns3:hr>127</ns3:hr>
            <ns3:cad>0</ns3:cad>
          </ns3:TrackPointExtension>
        </extensions>
      </trkpt>
      <trkpt lat="45.31856940127909183502197265625" lon="-70.80745213665068149566650390625">
        <ele>944.79998779296875</ele>
        <time>2026-08-21T12:45:54.000Z</time>
        <extensions>
          <ns3:TrackPointExtension>
            <ns3:hr>127</ns3:hr>
            <ns3:cad>0</ns3:cad>
          </ns3:TrackPointExtension>
        </extensions>
      </trkpt>
      <trkpt lat="45.318568311631679534912109375" lon="-70.8074505440890789031982421875">
        <ele>944.4000244140625</ele>
        <time>2026-08-21T12:45:55.000Z</time>
        <extensions>
          <ns3:TrackPointExtension>
            <ns3:hr>128</ns3:hr>
            <ns3:cad>0</ns3:cad>
          </ns3:TrackPointExtension>
        </extensions>
      </trkpt>
      <trkpt lat="45.3185657970607280731201171875" lon="-70.8074505440890789031982421875">
        <ele>944.20001220703125</ele>
        <time>2026-08-21T12:45:56.000Z</time>
        <extensions>
          <ns3:TrackPointExtension>
            <ns3:hr>127</ns3:hr>
            <ns3:cad>0</ns3:cad>
          </ns3:TrackPointExtension>
        </extensions>
      </trkpt>
      <trkpt lat="45.31855850480496883392333984375" lon="-70.80745230428874492645263671875">
        <ele>944</ele>
        <time>2026-08-21T12:45:57.000Z</time>
        <extensions>
          <ns3:TrackPointExtension>
            <ns3:hr>127</ns3:hr>
            <ns3:cad>0</ns3:cad>
          </ns3:TrackPointExtension>
        </extensions>
      </trkpt>
      <trkpt lat="45.3185460157692432403564453125" lon="-70.80745850689709186553955078125">
        <ele>943.5999755859375</ele>
        <time>2026-08-21T12:45:58.000Z</time>
        <extensions>
          <ns3:TrackPointExtension>
            <ns3:hr>125</ns3:hr>
            <ns3:cad>0</ns3:cad>
          </ns3:TrackPointExtension>
        </extensions>
      </trkpt>
      <trkpt lat="45.31853218562901020050048828125" lon="-70.807468481361865997314453125">
        <ele>943.20001220703125</ele>
        <time>2026-08-21T12:45:59.000Z</time>
        <extensions>
          <ns3:TrackPointExtension>
            <ns3:hr>125</ns3:hr>
            <ns3:cad>0</ns3:cad>
          </ns3:TrackPointExtension>
        </extensions>
      </trkpt>
      <trkpt lat="45.318524055182933807373046875" lon="-70.807475857436656951904296875">
        <ele>943</ele>
        <time>2026-08-21T12:46:00.000Z</time>
        <extensions>
          <ns3:TrackPointExtension>
            <ns3:hr>124</ns3:hr>
            <ns3:cad>0</ns3:cad>
          </ns3:TrackPointExtension>
        </extensions>
      </trkpt>
      <trkpt lat="45.31850838102400302886962890625" lon="-70.8074840717017650604248046875">
        <ele>942.79998779296875</ele>
        <time>2026-08-21T12:46:01.000Z</time>
        <extensions>
          <ns3:TrackPointExtension>
            <ns3:hr>124</ns3:hr>
            <ns3:cad>0</ns3:cad>
          </ns3:TrackPointExtension>
        </extensions>
      </trkpt>
      <trkpt lat="45.3185044415295124053955078125" lon="-70.80748465843498706817626953125">
        <ele>942.79998779296875</ele>
        <time>2026-08-21T12:46:02.000Z</time>
        <extensions>
          <ns3:TrackPointExtension>
            <ns3:hr>126</ns3:hr>
            <ns3:cad>0</ns3:cad>
          </ns3:TrackPointExtension>
        </extensions>
      </trkpt>
      <trkpt lat="45.3185091353952884674072265625" lon="-70.807493291795253753662109375">
        <ele>942.79998779296875</ele>
        <time>2026-08-21T12:46:03.000Z</time>
        <extensions>
          <ns3:TrackPointExtension>
            <ns3:hr>126</ns3:hr>
            <ns3:cad>0</ns3:cad>
          </ns3:TrackPointExtension>
        </extensions>
      </trkpt>
      <trkpt lat="45.318505279719829559326171875" lon="-70.8074927888810634613037109375">
        <ele>943</ele>
        <time>2026-08-21T12:46:04.000Z</time>
        <extensions>
          <ns3:TrackPointExtension>
            <ns3:hr>125</ns3:hr>
            <ns3:cad>79</ns3:cad>
          </ns3:TrackPointExtension>
        </extensions>
      </trkpt>
      <trkpt lat="45.3184950537979602813720703125" lon="-70.807497985661029815673828125">
        <ele>943.4000244140625</ele>
        <time>2026-08-21T12:46:05.000Z</time>
        <extensions>
          <ns3:TrackPointExtension>
            <ns3:hr>120</ns3:hr>
            <ns3:cad>79</ns3:cad>
          </ns3:TrackPointExtension>
        </extensions>
      </trkpt>
      <trkpt lat="45.31849295832216739654541015625" lon="-70.80750008113682270050048828125">
        <ele>943.5999755859375</ele>
        <time>2026-08-21T12:46:06.000Z</time>
        <extensions>
          <ns3:TrackPointExtension>
            <ns3:hr>118</ns3:hr>
            <ns3:cad>0</ns3:cad>
          </ns3:TrackPointExtension>
        </extensions>
      </trkpt>
      <trkpt lat="45.31848323531448841094970703125" lon="-70.8075061999261379241943359375">
        <ele>944</ele>
        <time>2026-08-21T12:46:07.000Z</time>
        <extensions>
          <ns3:TrackPointExtension>
            <ns3:hr>117</ns3:hr>
            <ns3:cad>0</ns3:cad>
          </ns3:TrackPointExtension>
        </extensions>
      </trkpt>
      <trkpt lat="45.318469740450382232666015625" lon="-70.80751751549541950225830078125">
        <ele>944.20001220703125</ele>
        <time>2026-08-21T12:46:08.000Z</time>
        <extensions>
          <ns3:TrackPointExtension>
            <ns3:hr>117</ns3:hr>
            <ns3:cad>0</ns3:cad>
          </ns3:TrackPointExtension>
        </extensions>
      </trkpt>
      <trkpt lat="45.31846161000430583953857421875" lon="-70.8075239695608615875244140625">
        <ele>944.20001220703125</ele>
        <time>2026-08-21T12:46:09.000Z</time>
        <extensions>
          <ns3:TrackPointExtension>
            <ns3:hr>117</ns3:hr>
            <ns3:cad>0</ns3:cad>
          </ns3:TrackPointExtension>
        </extensions>
      </trkpt>
      <trkpt lat="45.31844987533986568450927734375" lon="-70.80752824433147907257080078125">
        <ele>944.4000244140625</ele>
        <time>2026-08-21T12:46:10.000Z</time>
        <extensions>
          <ns3:TrackPointExtension>
            <ns3:hr>117</ns3:hr>
            <ns3:cad>0</ns3:cad>
          </ns3:TrackPointExtension>
        </extensions>
      </trkpt>
      <trkpt lat="45.318439900875091552734375" lon="-70.807531177997589111328125">
        <ele>944.4000244140625</ele>
        <time>2026-08-21T12:46:11.000Z</time>
        <extensions>
          <ns3:TrackPointExtension>
            <ns3:hr>118</ns3:hr>
            <ns3:cad>52</ns3:cad>
          </ns3:TrackPointExtension>
        </extensions>
      </trkpt>
      <trkpt lat="45.31843244098126888275146484375" lon="-70.8075346983969211578369140625">
        <ele>944.4000244140625</ele>
        <time>2026-08-21T12:46:12.000Z</time>
        <extensions>
          <ns3:TrackPointExtension>
            <ns3:hr>119</ns3:hr>
            <ns3:cad>52</ns3:cad>
          </ns3:TrackPointExtension>
        </extensions>
      </trkpt>
      <trkpt lat="45.31842405907809734344482421875" lon="-70.8075316809117794036865234375">
        <ele>944.4000244140625</ele>
        <time>2026-08-21T12:46:13.000Z</time>
        <extensions>
          <ns3:TrackPointExtension>
            <ns3:hr>123</ns3:hr>
            <ns3:cad>0</ns3:cad>
          </ns3:TrackPointExtension>
        </extensions>
      </trkpt>
      <trkpt lat="45.3184088878333568572998046875" lon="-70.80753126181662082672119140625">
        <ele>944.20001220703125</ele>
        <time>2026-08-21T12:46:14.000Z</time>
        <extensions>
          <ns3:TrackPointExtension>
            <ns3:hr>125</ns3:hr>
            <ns3:cad>0</ns3:cad>
          </ns3:TrackPointExtension>
        </extensions>
      </trkpt>
      <trkpt lat="45.31839639879763126373291015625" lon="-70.80754098482429981231689453125">
        <ele>944</ele>
        <time>2026-08-21T12:46:15.000Z</time>
        <extensions>
          <ns3:TrackPointExtension>
            <ns3:hr>125</ns3:hr>
            <ns3:cad>0</ns3:cad>
          </ns3:TrackPointExtension>
        </extensions>
      </trkpt>
      <trkpt lat="45.3183877654373645782470703125" lon="-70.8075558207929134368896484375">
        <ele>944</ele>
        <time>2026-08-21T12:46:16.000Z</time>
        <extensions>
          <ns3:TrackPointExtension>
            <ns3:hr>126</ns3:hr>
            <ns3:cad>0</ns3:cad>
          </ns3:TrackPointExtension>
        </extensions>
      </trkpt>
      <trkpt lat="45.31837779097259044647216796875" lon="-70.80756797455251216888427734375">
        <ele>943.79998779296875</ele>
        <time>2026-08-21T12:46:17.000Z</time>
        <extensions>
          <ns3:TrackPointExtension>
            <ns3:hr>126</ns3:hr>
            <ns3:cad>0</ns3:cad>
          </ns3:TrackPointExtension>
        </extensions>
      </trkpt>
      <trkpt lat="45.31837125308811664581298828125" lon="-70.80757970921695232391357421875">
        <ele>943.5999755859375</ele>
        <time>2026-08-21T12:46:18.000Z</time>
        <extensions>
          <ns3:TrackPointExtension>
            <ns3:hr>126</ns3:hr>
            <ns3:cad>0</ns3:cad>
          </ns3:TrackPointExtension>
        </extensions>
      </trkpt>
      <trkpt lat="45.318364463746547698974609375" lon="-70.80759177915751934051513671875">
        <ele>943.5999755859375</ele>
        <time>2026-08-21T12:46:19.000Z</time>
        <extensions>
          <ns3:TrackPointExtension>
            <ns3:hr>126</ns3:hr>
            <ns3:cad>0</ns3:cad>
          </ns3:TrackPointExtension>
        </extensions>
      </trkpt>
      <trkpt lat="45.3183512203395366668701171875" lon="-70.8076024241745471954345703125">
        <ele>943.4000244140625</ele>
        <time>2026-08-21T12:46:20.000Z</time>
        <extensions>
          <ns3:TrackPointExtension>
            <ns3:hr>125</ns3:hr>
            <ns3:cad>0</ns3:cad>
          </ns3:TrackPointExtension>
        </extensions>
      </trkpt>
      <trkpt lat="45.3183441795408725738525390625" lon="-70.80760887823998928070068359375">
        <ele>943.4000244140625</ele>
        <time>2026-08-21T12:46:21.000Z</time>
        <extensions>
          <ns3:TrackPointExtension>
            <ns3:hr>125</ns3:hr>
            <ns3:cad>0</ns3:cad>
          </ns3:TrackPointExtension>
        </extensions>
      </trkpt>
      <trkpt lat="45.31832967884838581085205078125" lon="-70.80761441029608249664306640625">
        <ele>943.20001220703125</ele>
        <time>2026-08-21T12:46:22.000Z</time>
        <extensions>
          <ns3:TrackPointExtension>
            <ns3:hr>125</ns3:hr>
            <ns3:cad>0</ns3:cad>
          </ns3:TrackPointExtension>
        </extensions>
      </trkpt>
      <trkpt lat="45.31831559725105762481689453125" lon="-70.807627402245998382568359375">
        <ele>943</ele>
        <time>2026-08-21T12:46:23.000Z</time>
        <extensions>
          <ns3:TrackPointExtension>
            <ns3:hr>125</ns3:hr>
            <ns3:cad>0</ns3:cad>
          </ns3:TrackPointExtension>
        </extensions>
      </trkpt>
      <trkpt lat="45.31831123866140842437744140625" lon="-70.807643495500087738037109375">
        <ele>943</ele>
        <time>2026-08-21T12:46:24.000Z</time>
        <extensions>
          <ns3:TrackPointExtension>
            <ns3:hr>124</ns3:hr>
            <ns3:cad>0</ns3:cad>
          </ns3:TrackPointExtension>
        </extensions>
      </trkpt>
      <trkpt lat="45.31831174157559871673583984375" lon="-70.80765380524098873138427734375">
        <ele>942.79998779296875</ele>
        <time>2026-08-21T12:46:25.000Z</time>
        <extensions>
          <ns3:TrackPointExtension>
            <ns3:hr>124</ns3:hr>
            <ns3:cad>48</ns3:cad>
          </ns3:TrackPointExtension>
        </extensions>
      </trkpt>
      <trkpt lat="45.31831174157559871673583984375" lon="-70.80765816383063793182373046875">
        <ele>942.79998779296875</ele>
        <time>2026-08-21T12:46:26.000Z</time>
        <extensions>
          <ns3:TrackPointExtension>
            <ns3:hr>125</ns3:hr>
            <ns3:cad>0</ns3:cad>
          </ns3:TrackPointExtension>
        </extensions>
      </trkpt>
      <trkpt lat="45.318311490118503570556640625" lon="-70.807660259306430816650390625">
        <ele>942.79998779296875</ele>
        <time>2026-08-21T12:46:27.000Z</time>
        <extensions>
          <ns3:TrackPointExtension>
            <ns3:hr>125</ns3:hr>
            <ns3:cad>0</ns3:cad>
          </ns3:TrackPointExtension>
        </extensions>
      </trkpt>
      <trkpt lat="45.3183124959468841552734375" lon="-70.80766034312546253204345703125">
        <ele>942.79998779296875</ele>
        <time>2026-08-21T12:46:28.000Z</time>
        <extensions>
          <ns3:TrackPointExtension>
            <ns3:hr>125</ns3:hr>
            <ns3:cad>0</ns3:cad>
          </ns3:TrackPointExtension>
        </extensions>
      </trkpt>
      <trkpt lat="45.31831257976591587066650390625" lon="-70.807660259306430816650390625">
        <ele>942.5999755859375</ele>
        <time>2026-08-21T12:46:29.000Z</time>
        <extensions>
          <ns3:TrackPointExtension>
            <ns3:hr>126</ns3:hr>
            <ns3:cad>0</ns3:cad>
          </ns3:TrackPointExtension>
        </extensions>
      </trkpt>
      <trkpt lat="45.31831257976591587066650390625" lon="-70.807660259306430816650390625">
        <ele>942.5999755859375</ele>
        <time>2026-08-21T12:46:30.000Z</time>
        <extensions>
          <ns3:TrackPointExtension>
            <ns3:hr>125</ns3:hr>
            <ns3:cad>0</ns3:cad>
          </ns3:TrackPointExtension>
        </extensions>
      </trkpt>
      <trkpt lat="45.31831257976591587066650390625" lon="-70.807660259306430816650390625">
        <ele>942.5999755859375</ele>
        <time>2026-08-21T12:46:31.000Z</time>
        <extensions>
          <ns3:TrackPointExtension>
            <ns3:hr>125</ns3:hr>
            <ns3:cad>0</ns3:cad>
          </ns3:TrackPointExtension>
        </extensions>
      </trkpt>
      <trkpt lat="45.31831257976591587066650390625" lon="-70.807660259306430816650390625">
        <ele>942.5999755859375</ele>
        <time>2026-08-21T12:46:32.000Z</time>
        <extensions>
          <ns3:TrackPointExtension>
            <ns3:hr>126</ns3:hr>
            <ns3:cad>0</ns3:cad>
          </ns3:TrackPointExtension>
        </extensions>
      </trkpt>
      <trkpt lat="45.31831257976591587066650390625" lon="-70.807660259306430816650390625">
        <ele>942.5999755859375</ele>
        <time>2026-08-21T12:46:33.000Z</time>
        <extensions>
          <ns3:TrackPointExtension>
            <ns3:hr>126</ns3:hr>
            <ns3:cad>0</ns3:cad>
          </ns3:TrackPointExtension>
        </extensions>
      </trkpt>
      <trkpt lat="45.31831257976591587066650390625" lon="-70.807660259306430816650390625">
        <ele>942.5999755859375</ele>
        <time>2026-08-21T12:46:34.000Z</time>
        <extensions>
          <ns3:TrackPointExtension>
            <ns3:hr>126</ns3:hr>
            <ns3:cad>0</ns3:cad>
          </ns3:TrackPointExtension>
        </extensions>
      </trkpt>
      <trkpt lat="45.31831257976591587066650390625" lon="-70.807660259306430816650390625">
        <ele>942.5999755859375</ele>
        <time>2026-08-21T12:46:35.000Z</time>
        <extensions>
          <ns3:TrackPointExtension>
            <ns3:hr>125</ns3:hr>
            <ns3:cad>0</ns3:cad>
          </ns3:TrackPointExtension>
        </extensions>
      </trkpt>
      <trkpt lat="45.31831257976591587066650390625" lon="-70.807660259306430816650390625">
        <ele>942.5999755859375</ele>
        <time>2026-08-21T12:46:36.000Z</time>
        <extensions>
          <ns3:TrackPointExtension>
            <ns3:hr>125</ns3:hr>
            <ns3:cad>0</ns3:cad>
          </ns3:TrackPointExtension>
        </extensions>
      </trkpt>
      <trkpt lat="45.31831257976591587066650390625" lon="-70.807660259306430816650390625">
        <ele>942.5999755859375</ele>
        <time>2026-08-21T12:46:37.000Z</time>
        <extensions>
          <ns3:TrackPointExtension>
            <ns3:hr>125</ns3:hr>
            <ns3:cad>0</ns3:cad>
          </ns3:TrackPointExtension>
        </extensions>
      </trkpt>
      <trkpt lat="45.31831257976591587066650390625" lon="-70.807660259306430816650390625">
        <ele>942.5999755859375</ele>
        <time>2026-08-21T12:46:38.000Z</time>
        <extensions>
          <ns3:TrackPointExtension>
            <ns3:hr>125</ns3:hr>
            <ns3:cad>0</ns3:cad>
          </ns3:TrackPointExtension>
        </extensions>
      </trkpt>
      <trkpt lat="45.31831257976591587066650390625" lon="-70.807660259306430816650390625">
        <ele>942.5999755859375</ele>
        <time>2026-08-21T12:46:39.000Z</time>
        <extensions>
          <ns3:TrackPointExtension>
            <ns3:hr>125</ns3:hr>
            <ns3:cad>0</ns3:cad>
          </ns3:TrackPointExtension>
        </extensions>
      </trkpt>
      <trkpt lat="45.31831257976591587066650390625" lon="-70.807660259306430816650390625">
        <ele>942.5999755859375</ele>
        <time>2026-08-21T12:46:40.000Z</time>
        <extensions>
          <ns3:TrackPointExtension>
            <ns3:hr>125</ns3:hr>
            <ns3:cad>0</ns3:cad>
          </ns3:TrackPointExtension>
        </extensions>
      </trkpt>
      <trkpt lat="45.31831257976591587066650390625" lon="-70.807660259306430816650390625">
        <ele>942.5999755859375</ele>
        <time>2026-08-21T12:46:41.000Z</time>
        <extensions>
          <ns3:TrackPointExtension>
            <ns3:hr>126</ns3:hr>
            <ns3:cad>0</ns3:cad>
          </ns3:TrackPointExtension>
        </extensions>
      </trkpt>
      <trkpt lat="45.31831257976591587066650390625" lon="-70.807660259306430816650390625">
        <ele>942.5999755859375</ele>
        <time>2026-08-21T12:46:42.000Z</time>
        <extensions>
          <ns3:TrackPointExtension>
            <ns3:hr>126</ns3:hr>
            <ns3:cad>0</ns3:cad>
          </ns3:TrackPointExtension>
        </extensions>
      </trkpt>
      <trkpt lat="45.31831257976591587066650390625" lon="-70.807660259306430816650390625">
        <ele>942.5999755859375</ele>
        <time>2026-08-21T12:46:43.000Z</time>
        <extensions>
          <ns3:TrackPointExtension>
            <ns3:hr>126</ns3:hr>
            <ns3:cad>0</ns3:cad>
          </ns3:TrackPointExtension>
        </extensions>
      </trkpt>
      <trkpt lat="45.31831257976591587066650390625" lon="-70.807660259306430816650390625">
        <ele>942.5999755859375</ele>
        <time>2026-08-21T12:46:44.000Z</time>
        <extensions>
          <ns3:TrackPointExtension>
            <ns3:hr>126</ns3:hr>
            <ns3:cad>0</ns3:cad>
          </ns3:TrackPointExtension>
        </extensions>
      </trkpt>
      <trkpt lat="45.3183109872043132781982421875" lon="-70.8076617680490016937255859375">
        <ele>942.5999755859375</ele>
        <time>2026-08-21T12:46:45.000Z</time>
        <extensions>
          <ns3:TrackPointExtension>
            <ns3:hr>126</ns3:hr>
            <ns3:cad>0</ns3:cad>
          </ns3:TrackPointExtension>
        </extensions>
      </trkpt>
      <trkpt lat="45.3183046169579029083251953125" lon="-70.8076691441237926483154296875">
        <ele>942.5999755859375</ele>
        <time>2026-08-21T12:46:46.000Z</time>
        <extensions>
          <ns3:TrackPointExtension>
            <ns3:hr>126</ns3:hr>
            <ns3:cad>0</ns3:cad>
          </ns3:TrackPointExtension>
        </extensions>
      </trkpt>
      <trkpt lat="45.3182992525398731231689453125" lon="-70.8076714910566806793212890625">
        <ele>942.4000244140625</ele>
        <time>2026-08-21T12:46:47.000Z</time>
        <extensions>
          <ns3:TrackPointExtension>
            <ns3:hr>125</ns3:hr>
            <ns3:cad>0</ns3:cad>
          </ns3:TrackPointExtension>
        </extensions>
      </trkpt>
      <trkpt lat="45.318289361894130706787109375" lon="-70.80767861567437648773193359375">
        <ele>942.4000244140625</ele>
        <time>2026-08-21T12:46:48.000Z</time>
        <extensions>
          <ns3:TrackPointExtension>
            <ns3:hr>126</ns3:hr>
            <ns3:cad>0</ns3:cad>
          </ns3:TrackPointExtension>
        </extensions>
      </trkpt>
      <trkpt lat="45.3182784654200077056884765625" lon="-70.80768884159624576568603515625">
        <ele>942.4000244140625</ele>
        <time>2026-08-21T12:46:49.000Z</time>
        <extensions>
          <ns3:TrackPointExtension>
            <ns3:hr>126</ns3:hr>
            <ns3:cad>51</ns3:cad>
          </ns3:TrackPointExtension>
        </extensions>
      </trkpt>
      <trkpt lat="45.318268574774265289306640625" lon="-70.80769948661327362060546875">
        <ele>942.4000244140625</ele>
        <time>2026-08-21T12:46:50.000Z</time>
        <extensions>
          <ns3:TrackPointExtension>
            <ns3:hr>126</ns3:hr>
            <ns3:cad>51</ns3:cad>
          </ns3:TrackPointExtension>
        </extensions>
      </trkpt>
      <trkpt lat="45.31826111488044261932373046875" lon="-70.80770325846970081329345703125">
        <ele>942.4000244140625</ele>
        <time>2026-08-21T12:46:51.000Z</time>
        <extensions>
          <ns3:TrackPointExtension>
            <ns3:hr>126</ns3:hr>
            <ns3:cad>51</ns3:cad>
          </ns3:TrackPointExtension>
        </extensions>
      </trkpt>
      <trkpt lat="45.318252146244049072265625" lon="-70.807712562382221221923828125">
        <ele>942.4000244140625</ele>
        <time>2026-08-21T12:46:52.000Z</time>
        <extensions>
          <ns3:TrackPointExtension>
            <ns3:hr>126</ns3:hr>
            <ns3:cad>0</ns3:cad>
          </ns3:TrackPointExtension>
        </extensions>
      </trkpt>
      <trkpt lat="45.3182425908744335174560546875" lon="-70.80771784298121929168701171875">
        <ele>942.4000244140625</ele>
        <time>2026-08-21T12:46:53.000Z</time>
        <extensions>
          <ns3:TrackPointExtension>
            <ns3:hr>126</ns3:hr>
            <ns3:cad>0</ns3:cad>
          </ns3:TrackPointExtension>
        </extensions>
      </trkpt>
      <trkpt lat="45.3182281740009784698486328125" lon="-70.8077187649905681610107421875">
        <ele>942.4000244140625</ele>
        <time>2026-08-21T12:46:54.000Z</time>
        <extensions>
          <ns3:TrackPointExtension>
            <ns3:hr>127</ns3:hr>
            <ns3:cad>100</ns3:cad>
          </ns3:TrackPointExtension>
        </extensions>
      </trkpt>
      <trkpt lat="45.31821928918361663818359375" lon="-70.80771826207637786865234375">
        <ele>942.20001220703125</ele>
        <time>2026-08-21T12:46:55.000Z</time>
        <extensions>
          <ns3:TrackPointExtension>
            <ns3:hr>126</ns3:hr>
            <ns3:cad>100</ns3:cad>
          </ns3:TrackPointExtension>
        </extensions>
      </trkpt>
      <trkpt lat="45.318210907280445098876953125" lon="-70.80771516077220439910888671875">
        <ele>942.20001220703125</ele>
        <time>2026-08-21T12:46:56.000Z</time>
        <extensions>
          <ns3:TrackPointExtension>
            <ns3:hr>126</ns3:hr>
            <ns3:cad>100</ns3:cad>
          </ns3:TrackPointExtension>
        </extensions>
      </trkpt>
      <trkpt lat="45.3182077221572399139404296875" lon="-70.807713232934474945068359375">
        <ele>942</ele>
        <time>2026-08-21T12:46:57.000Z</time>
        <extensions>
          <ns3:TrackPointExtension>
            <ns3:hr>127</ns3:hr>
            <ns3:cad>0</ns3:cad>
          </ns3:TrackPointExtension>
        </extensions>
      </trkpt>
      <trkpt lat="45.318198837339878082275390625" lon="-70.80771130509674549102783203125">
        <ele>941.5999755859375</ele>
        <time>2026-08-21T12:46:58.000Z</time>
        <extensions>
          <ns3:TrackPointExtension>
            <ns3:hr>127</ns3:hr>
            <ns3:cad>0</ns3:cad>
          </ns3:TrackPointExtension>
        </extensions>
      </trkpt>
      <trkpt lat="45.31819221563637256622314453125" lon="-70.807709209620952606201171875">
        <ele>941.4000244140625</ele>
        <time>2026-08-21T12:46:59.000Z</time>
        <extensions>
          <ns3:TrackPointExtension>
            <ns3:hr>127</ns3:hr>
            <ns3:cad>0</ns3:cad>
          </ns3:TrackPointExtension>
        </extensions>
      </trkpt>
      <trkpt lat="45.31818115152418613433837890625" lon="-70.80771214328706264495849609375">
        <ele>941.20001220703125</ele>
        <time>2026-08-21T12:47:00.000Z</time>
        <extensions>
          <ns3:TrackPointExtension>
            <ns3:hr>127</ns3:hr>
            <ns3:cad>0</ns3:cad>
          </ns3:TrackPointExtension>
        </extensions>
      </trkpt>
      <trkpt lat="45.31817092560231685638427734375" lon="-70.8077107183635234832763671875">
        <ele>940.79998779296875</ele>
        <time>2026-08-21T12:47:01.000Z</time>
        <extensions>
          <ns3:TrackPointExtension>
            <ns3:hr>127</ns3:hr>
            <ns3:cad>0</ns3:cad>
          </ns3:TrackPointExtension>
        </extensions>
      </trkpt>
      <trkpt lat="45.3181614540517330169677734375" lon="-70.80770359374582767486572265625">
        <ele>940.4000244140625</ele>
        <time>2026-08-21T12:47:02.000Z</time>
        <extensions>
          <ns3:TrackPointExtension>
            <ns3:hr>127</ns3:hr>
            <ns3:cad>0</ns3:cad>
          </ns3:TrackPointExtension>
        </extensions>
      </trkpt>
      <trkpt lat="45.31815198250114917755126953125" lon="-70.807701162993907928466796875">
        <ele>940</ele>
        <time>2026-08-21T12:47:03.000Z</time>
        <extensions>
          <ns3:TrackPointExtension>
            <ns3:hr>127</ns3:hr>
            <ns3:cad>0</ns3:cad>
          </ns3:TrackPointExtension>
        </extensions>
      </trkpt>
      <trkpt lat="45.3181406669318675994873046875" lon="-70.8077043481171131134033203125">
        <ele>939.79998779296875</ele>
        <time>2026-08-21T12:47:04.000Z</time>
        <extensions>
          <ns3:TrackPointExtension>
            <ns3:hr>127</ns3:hr>
            <ns3:cad>40</ns3:cad>
          </ns3:TrackPointExtension>
        </extensions>
      </trkpt>
      <trkpt lat="45.31813320703804492950439453125" lon="-70.807711221277713775634765625">
        <ele>939.4000244140625</ele>
        <time>2026-08-21T12:47:05.000Z</time>
        <extensions>
          <ns3:TrackPointExtension>
            <ns3:hr>128</ns3:hr>
            <ns3:cad>40</ns3:cad>
          </ns3:TrackPointExtension>
        </extensions>
      </trkpt>
      <trkpt lat="45.31812063418328762054443359375" lon="-70.8077110536396503448486328125">
        <ele>939</ele>
        <time>2026-08-21T12:47:06.000Z</time>
        <extensions>
          <ns3:TrackPointExtension>
            <ns3:hr>128</ns3:hr>
            <ns3:cad>41</ns3:cad>
          </ns3:TrackPointExtension>
        </extensions>
      </trkpt>
      <trkpt lat="45.318115018308162689208984375" lon="-70.80770325846970081329345703125">
        <ele>938.5999755859375</ele>
        <time>2026-08-21T12:47:07.000Z</time>
        <extensions>
          <ns3:TrackPointExtension>
            <ns3:hr>128</ns3:hr>
            <ns3:cad>73</ns3:cad>
          </ns3:TrackPointExtension>
        </extensions>
      </trkpt>
      <trkpt lat="45.3181054629385471343994140625" lon="-70.80769135616719722747802734375">
        <ele>938.20001220703125</ele>
        <time>2026-08-21T12:47:08.000Z</time>
        <extensions>
          <ns3:TrackPointExtension>
            <ns3:hr>130</ns3:hr>
            <ns3:cad>73</ns3:cad>
          </ns3:TrackPointExtension>
        </extensions>
      </trkpt>
      <trkpt lat="45.3180967457592487335205078125" lon="-70.807684399187564849853515625">
        <ele>938</ele>
        <time>2026-08-21T12:47:09.000Z</time>
        <extensions>
          <ns3:TrackPointExtension>
            <ns3:hr>131</ns3:hr>
            <ns3:cad>73</ns3:cad>
          </ns3:TrackPointExtension>
        </extensions>
      </trkpt>
      <trkpt lat="45.31808945350348949432373046875" lon="-70.80767677165567874908447265625">
        <ele>937.79998779296875</ele>
        <time>2026-08-21T12:47:10.000Z</time>
        <extensions>
          <ns3:TrackPointExtension>
            <ns3:hr>131</ns3:hr>
            <ns3:cad>73</ns3:cad>
          </ns3:TrackPointExtension>
        </extensions>
      </trkpt>
      <trkpt lat="45.31808660365641117095947265625" lon="-70.807675011456012725830078125">
        <ele>937.5999755859375</ele>
        <time>2026-08-21T12:47:11.000Z</time>
        <extensions>
          <ns3:TrackPointExtension>
            <ns3:hr>130</ns3:hr>
            <ns3:cad>73</ns3:cad>
          </ns3:TrackPointExtension>
        </extensions>
      </trkpt>
      <trkpt lat="45.31808325089514255523681640625" lon="-70.80767333507537841796875">
        <ele>937.4000244140625</ele>
        <time>2026-08-21T12:47:12.000Z</time>
        <extensions>
          <ns3:TrackPointExtension>
            <ns3:hr>126</ns3:hr>
            <ns3:cad>73</ns3:cad>
          </ns3:TrackPointExtension>
        </extensions>
      </trkpt>
      <trkpt lat="45.31807386316359043121337890625" lon="-70.80766989849507808685302734375">
        <ele>937.20001220703125</ele>
        <time>2026-08-21T12:47:13.000Z</time>
        <extensions>
          <ns3:TrackPointExtension>
            <ns3:hr>122</ns3:hr>
            <ns3:cad>73</ns3:cad>
          </ns3:TrackPointExtension>
        </extensions>
      </trkpt>
      <trkpt lat="45.3180685825645923614501953125" lon="-70.8076738379895687103271484375">
        <ele>936.79998779296875</ele>
        <time>2026-08-21T12:47:14.000Z</time>
        <extensions>
          <ns3:TrackPointExtension>
            <ns3:hr>120</ns3:hr>
            <ns3:cad>73</ns3:cad>
          </ns3:TrackPointExtension>
        </extensions>
      </trkpt>
      <trkpt lat="45.31805726699531078338623046875" lon="-70.80767140723764896392822265625">
        <ele>936.4000244140625</ele>
        <time>2026-08-21T12:47:15.000Z</time>
        <extensions>
          <ns3:TrackPointExtension>
            <ns3:hr>119</ns3:hr>
            <ns3:cad>73</ns3:cad>
          </ns3:TrackPointExtension>
        </extensions>
      </trkpt>
      <trkpt lat="45.31805274076759815216064453125" lon="-70.80767794512212276458740234375">
        <ele>936</ele>
        <time>2026-08-21T12:47:16.000Z</time>
        <extensions>
          <ns3:TrackPointExtension>
            <ns3:hr>118</ns3:hr>
            <ns3:cad>45</ns3:cad>
          </ns3:TrackPointExtension>
        </extensions>
      </trkpt>
      <trkpt lat="45.3180474601686000823974609375" lon="-70.80767844803631305694580078125">
        <ele>935.5999755859375</ele>
        <time>2026-08-21T12:47:17.000Z</time>
        <extensions>
          <ns3:TrackPointExtension>
            <ns3:hr>118</ns3:hr>
            <ns3:cad>45</ns3:cad>
          </ns3:TrackPointExtension>
        </extensions>
      </trkpt>
      <trkpt lat="45.31803983263671398162841796875" lon="-70.80767777748405933380126953125">
        <ele>935.20001220703125</ele>
        <time>2026-08-21T12:47:18.000Z</time>
        <extensions>
          <ns3:TrackPointExtension>
            <ns3:hr>117</ns3:hr>
            <ns3:cad>0</ns3:cad>
          </ns3:TrackPointExtension>
        </extensions>
      </trkpt>
      <trkpt lat="45.3180350549519062042236328125" lon="-70.80767978914082050323486328125">
        <ele>935</ele>
        <time>2026-08-21T12:47:19.000Z</time>
        <extensions>
          <ns3:TrackPointExtension>
            <ns3:hr>117</ns3:hr>
            <ns3:cad>0</ns3:cad>
          </ns3:TrackPointExtension>
        </extensions>
      </trkpt>
      <trkpt lat="45.3180300258100032806396484375" lon="-70.807687081396579742431640625">
        <ele>934.5999755859375</ele>
        <time>2026-08-21T12:47:20.000Z</time>
        <extensions>
          <ns3:TrackPointExtension>
            <ns3:hr>117</ns3:hr>
            <ns3:cad>0</ns3:cad>
          </ns3:TrackPointExtension>
        </extensions>
      </trkpt>
      <trkpt lat="45.3180223144590854644775390625" lon="-70.80769680440425872802734375">
        <ele>934.20001220703125</ele>
        <time>2026-08-21T12:47:21.000Z</time>
        <extensions>
          <ns3:TrackPointExtension>
            <ns3:hr>118</ns3:hr>
            <ns3:cad>0</ns3:cad>
          </ns3:TrackPointExtension>
        </extensions>
      </trkpt>
      <trkpt lat="45.31801217235624790191650390625" lon="-70.80770485103130340576171875">
        <ele>933.79998779296875</ele>
        <time>2026-08-21T12:47:22.000Z</time>
        <extensions>
          <ns3:TrackPointExtension>
            <ns3:hr>119</ns3:hr>
            <ns3:cad>0</ns3:cad>
          </ns3:TrackPointExtension>
        </extensions>
      </trkpt>
      <trkpt lat="45.31800295226275920867919921875" lon="-70.80771164037287235260009765625">
        <ele>933.4000244140625</ele>
        <time>2026-08-21T12:47:23.000Z</time>
        <extensions>
          <ns3:TrackPointExtension>
            <ns3:hr>119</ns3:hr>
            <ns3:cad>0</ns3:cad>
          </ns3:TrackPointExtension>
        </extensions>
      </trkpt>
      <trkpt lat="45.31799666583538055419921875" lon="-70.8077154122292995452880859375">
        <ele>933</ele>
        <time>2026-08-21T12:47:24.000Z</time>
        <extensions>
          <ns3:TrackPointExtension>
            <ns3:hr>120</ns3:hr>
            <ns3:cad>0</ns3:cad>
          </ns3:TrackPointExtension>
        </extensions>
      </trkpt>
      <trkpt lat="45.3179874457418918609619140625" lon="-70.80772387795150279998779296875">
        <ele>932.5999755859375</ele>
        <time>2026-08-21T12:47:25.000Z</time>
        <extensions>
          <ns3:TrackPointExtension>
            <ns3:hr>120</ns3:hr>
            <ns3:cad>0</ns3:cad>
          </ns3:TrackPointExtension>
        </extensions>
      </trkpt>
      <trkpt lat="45.31797654926776885986328125" lon="-70.807730667293071746826171875">
        <ele>932.20001220703125</ele>
        <time>2026-08-21T12:47:26.000Z</time>
        <extensions>
          <ns3:TrackPointExtension>
            <ns3:hr>120</ns3:hr>
            <ns3:cad>0</ns3:cad>
          </ns3:TrackPointExtension>
        </extensions>
      </trkpt>
      <trkpt lat="45.31797076575458049774169921875" lon="-70.8077412284910678863525390625">
        <ele>931.79998779296875</ele>
        <time>2026-08-21T12:47:27.000Z</time>
        <extensions>
          <ns3:TrackPointExtension>
            <ns3:hr>119</ns3:hr>
            <ns3:cad>0</ns3:cad>
          </ns3:TrackPointExtension>
        </extensions>
      </trkpt>
      <trkpt lat="45.3179616294801235198974609375" lon="-70.8077512867748737335205078125">
        <ele>931.4000244140625</ele>
        <time>2026-08-21T12:47:28.000Z</time>
        <extensions>
          <ns3:TrackPointExtension>
            <ns3:hr>119</ns3:hr>
            <ns3:cad>0</ns3:cad>
          </ns3:TrackPointExtension>
        </extensions>
      </trkpt>
      <trkpt lat="45.317952074110507965087890625" lon="-70.80775723792612552642822265625">
        <ele>931</ele>
        <time>2026-08-21T12:47:29.000Z</time>
        <extensions>
          <ns3:TrackPointExtension>
            <ns3:hr>119</ns3:hr>
            <ns3:cad>0</ns3:cad>
          </ns3:TrackPointExtension>
        </extensions>
      </trkpt>
      <trkpt lat="45.3179401718080043792724609375" lon="-70.80776176415383815765380859375">
        <ele>930.5999755859375</ele>
        <time>2026-08-21T12:47:30.000Z</time>
        <extensions>
          <ns3:TrackPointExtension>
            <ns3:hr>120</ns3:hr>
            <ns3:cad>0</ns3:cad>
          </ns3:TrackPointExtension>
        </extensions>
      </trkpt>
      <trkpt lat="45.317936651408672332763671875" lon="-70.80777727067470550537109375">
        <ele>930.20001220703125</ele>
        <time>2026-08-21T12:47:31.000Z</time>
        <extensions>
          <ns3:TrackPointExtension>
            <ns3:hr>120</ns3:hr>
            <ns3:cad>0</ns3:cad>
          </ns3:TrackPointExtension>
        </extensions>
      </trkpt>
      <trkpt lat="45.3179317899048328399658203125" lon="-70.80778531730175018310546875">
        <ele>929.5999755859375</ele>
        <time>2026-08-21T12:47:32.000Z</time>
        <extensions>
          <ns3:TrackPointExtension>
            <ns3:hr>120</ns3:hr>
            <ns3:cad>0</ns3:cad>
          </ns3:TrackPointExtension>
        </extensions>
      </trkpt>
      <trkpt lat="45.3179262578487396240234375" lon="-70.8077885024249553680419921875">
        <ele>929.20001220703125</ele>
        <time>2026-08-21T12:47:33.000Z</time>
        <extensions>
          <ns3:TrackPointExtension>
            <ns3:hr>121</ns3:hr>
            <ns3:cad>0</ns3:cad>
          </ns3:TrackPointExtension>
        </extensions>
      </trkpt>
      <trkpt lat="45.31791745685040950775146484375" lon="-70.80779579468071460723876953125">
        <ele>928.79998779296875</ele>
        <time>2026-08-21T12:47:34.000Z</time>
        <extensions>
          <ns3:TrackPointExtension>
            <ns3:hr>121</ns3:hr>
            <ns3:cad>0</ns3:cad>
          </ns3:TrackPointExtension>
        </extensions>
      </trkpt>
      <trkpt lat="45.3179059736430644989013671875" lon="-70.8077968843281269073486328125">
        <ele>928.4000244140625</ele>
        <time>2026-08-21T12:47:35.000Z</time>
        <extensions>
          <ns3:TrackPointExtension>
            <ns3:hr>121</ns3:hr>
            <ns3:cad>0</ns3:cad>
          </ns3:TrackPointExtension>
        </extensions>
      </trkpt>
      <trkpt lat="45.317899771034717559814453125" lon="-70.80779110081493854522705078125">
        <ele>927.79998779296875</ele>
        <time>2026-08-21T12:47:36.000Z</time>
        <extensions>
          <ns3:TrackPointExtension>
            <ns3:hr>122</ns3:hr>
            <ns3:cad>0</ns3:cad>
          </ns3:TrackPointExtension>
        </extensions>
      </trkpt>
      <trkpt lat="45.3178888745605945587158203125" lon="-70.80779177136719226837158203125">
        <ele>927.4000244140625</ele>
        <time>2026-08-21T12:47:37.000Z</time>
        <extensions>
          <ns3:TrackPointExtension>
            <ns3:hr>122</ns3:hr>
            <ns3:cad>0</ns3:cad>
          </ns3:TrackPointExtension>
        </extensions>
      </trkpt>
      <trkpt lat="45.3178806602954864501953125" lon="-70.8077980577945709228515625">
        <ele>926.79998779296875</ele>
        <time>2026-08-21T12:47:38.000Z</time>
        <extensions>
          <ns3:TrackPointExtension>
            <ns3:hr>122</ns3:hr>
            <ns3:cad>0</ns3:cad>
          </ns3:TrackPointExtension>
        </extensions>
      </trkpt>
      <trkpt lat="45.3178704343736171722412109375" lon="-70.80779897980391979217529296875">
        <ele>926.4000244140625</ele>
        <time>2026-08-21T12:47:39.000Z</time>
        <extensions>
          <ns3:TrackPointExtension>
            <ns3:hr>121</ns3:hr>
            <ns3:cad>0</ns3:cad>
          </ns3:TrackPointExtension>
        </extensions>
      </trkpt>
      <trkpt lat="45.31786515377461910247802734375" lon="-70.80778372474014759063720703125">
        <ele>926</ele>
        <time>2026-08-21T12:47:40.000Z</time>
        <extensions>
          <ns3:TrackPointExtension>
            <ns3:hr>121</ns3:hr>
            <ns3:cad>0</ns3:cad>
          </ns3:TrackPointExtension>
        </extensions>
      </trkpt>
      <trkpt lat="45.31785945408046245574951171875" lon="-70.807780288159847259521484375">
        <ele>925.4000244140625</ele>
        <time>2026-08-21T12:47:41.000Z</time>
        <extensions>
          <ns3:TrackPointExtension>
            <ns3:hr>121</ns3:hr>
            <ns3:cad>0</ns3:cad>
          </ns3:TrackPointExtension>
        </extensions>
      </trkpt>
      <trkpt lat="45.31784637831151485443115234375" lon="-70.8077740855515003204345703125">
        <ele>925</ele>
        <time>2026-08-21T12:47:42.000Z</time>
        <extensions>
          <ns3:TrackPointExtension>
            <ns3:hr>120</ns3:hr>
            <ns3:cad>0</ns3:cad>
          </ns3:TrackPointExtension>
        </extensions>
      </trkpt>
      <trkpt lat="45.3178426064550876617431640625" lon="-70.80777500756084918975830078125">
        <ele>924.4000244140625</ele>
        <time>2026-08-21T12:47:43.000Z</time>
        <extensions>
          <ns3:TrackPointExtension>
            <ns3:hr>121</ns3:hr>
            <ns3:cad>0</ns3:cad>
          </ns3:TrackPointExtension>
        </extensions>
      </trkpt>
      <trkpt lat="45.31783841550350189208984375" lon="-70.80777282826602458953857421875">
        <ele>924</ele>
        <time>2026-08-21T12:47:44.000Z</time>
        <extensions>
          <ns3:TrackPointExtension>
            <ns3:hr>121</ns3:hr>
            <ns3:cad>0</ns3:cad>
          </ns3:TrackPointExtension>
        </extensions>
      </trkpt>
      <trkpt lat="45.317838080227375030517578125" lon="-70.8077683858573436737060546875">
        <ele>923.5999755859375</ele>
        <time>2026-08-21T12:47:45.000Z</time>
        <extensions>
          <ns3:TrackPointExtension>
            <ns3:hr>121</ns3:hr>
            <ns3:cad>0</ns3:cad>
          </ns3:TrackPointExtension>
        </extensions>
      </trkpt>
      <trkpt lat="45.317830704152584075927734375" lon="-70.80775790847837924957275390625">
        <ele>923.20001220703125</ele>
        <time>2026-08-21T12:47:46.000Z</time>
        <extensions>
          <ns3:TrackPointExtension>
            <ns3:hr>122</ns3:hr>
            <ns3:cad>0</ns3:cad>
          </ns3:TrackPointExtension>
        </extensions>
      </trkpt>
      <trkpt lat="45.317823998630046844482421875" lon="-70.80775338225066661834716796875">
        <ele>923</ele>
        <time>2026-08-21T12:47:47.000Z</time>
        <extensions>
          <ns3:TrackPointExtension>
            <ns3:hr>122</ns3:hr>
            <ns3:cad>69</ns3:cad>
          </ns3:TrackPointExtension>
        </extensions>
      </trkpt>
      <trkpt lat="45.3178161196410655975341796875" lon="-70.80775036476552486419677734375">
        <ele>922.5999755859375</ele>
        <time>2026-08-21T12:47:48.000Z</time>
        <extensions>
          <ns3:TrackPointExtension>
            <ns3:hr>122</ns3:hr>
            <ns3:cad>0</ns3:cad>
          </ns3:TrackPointExtension>
        </extensions>
      </trkpt>
      <trkpt lat="45.31780849210917949676513671875" lon="-70.80774432979524135589599609375">
        <ele>922.4000244140625</ele>
        <time>2026-08-21T12:47:49.000Z</time>
        <extensions>
          <ns3:TrackPointExtension>
            <ns3:hr>122</ns3:hr>
            <ns3:cad>0</ns3:cad>
          </ns3:TrackPointExtension>
        </extensions>
      </trkpt>
      <trkpt lat="45.3177939914166927337646484375" lon="-70.8077439107000827789306640625">
        <ele>922</ele>
        <time>2026-08-21T12:47:50.000Z</time>
        <extensions>
          <ns3:TrackPointExtension>
            <ns3:hr>122</ns3:hr>
            <ns3:cad>0</ns3:cad>
          </ns3:TrackPointExtension>
        </extensions>
      </trkpt>
      <trkpt lat="45.31778653152287006378173828125" lon="-70.807753466069698333740234375">
        <ele>921.79998779296875</ele>
        <time>2026-08-21T12:47:51.000Z</time>
        <extensions>
          <ns3:TrackPointExtension>
            <ns3:hr>122</ns3:hr>
            <ns3:cad>0</ns3:cad>
          </ns3:TrackPointExtension>
        </extensions>
      </trkpt>
      <trkpt lat="45.3177778981626033782958984375" lon="-70.807769559323787689208984375">
        <ele>921.4000244140625</ele>
        <time>2026-08-21T12:47:52.000Z</time>
        <extensions>
          <ns3:TrackPointExtension>
            <ns3:hr>122</ns3:hr>
            <ns3:cad>0</ns3:cad>
          </ns3:TrackPointExtension>
        </extensions>
      </trkpt>
      <trkpt lat="45.3177755512297153472900390625" lon="-70.8077727444469928741455078125">
        <ele>921</ele>
        <time>2026-08-21T12:47:53.000Z</time>
        <extensions>
          <ns3:TrackPointExtension>
            <ns3:hr>122</ns3:hr>
            <ns3:cad>0</ns3:cad>
          </ns3:TrackPointExtension>
        </extensions>
      </trkpt>
      <trkpt lat="45.31777043826878070831298828125" lon="-70.80777768976986408233642578125">
        <ele>920.5999755859375</ele>
        <time>2026-08-21T12:47:54.000Z</time>
        <extensions>
          <ns3:TrackPointExtension>
            <ns3:hr>122</ns3:hr>
            <ns3:cad>0</ns3:cad>
          </ns3:TrackPointExtension>
        </extensions>
      </trkpt>
      <trkpt lat="45.3177567757666110992431640625" lon="-70.8077895082533359527587890625">
        <ele>920.20001220703125</ele>
        <time>2026-08-21T12:47:55.000Z</time>
        <extensions>
          <ns3:TrackPointExtension>
            <ns3:hr>122</ns3:hr>
            <ns3:cad>0</ns3:cad>
          </ns3:TrackPointExtension>
        </extensions>
      </trkpt>
      <trkpt lat="45.317747555673122406005859375" lon="-70.80780250020325183868408203125">
        <ele>919.5999755859375</ele>
        <time>2026-08-21T12:47:56.000Z</time>
        <extensions>
          <ns3:TrackPointExtension>
            <ns3:hr>122</ns3:hr>
            <ns3:cad>0</ns3:cad>
          </ns3:TrackPointExtension>
        </extensions>
      </trkpt>
      <trkpt lat="45.31774411909282207489013671875" lon="-70.80781524069607257843017578125">
        <ele>919.20001220703125</ele>
        <time>2026-08-21T12:47:57.000Z</time>
        <extensions>
          <ns3:TrackPointExtension>
            <ns3:hr>121</ns3:hr>
            <ns3:cad>0</ns3:cad>
          </ns3:TrackPointExtension>
        </extensions>
      </trkpt>
      <trkpt lat="45.3177336417138576507568359375" lon="-70.8078275620937347412109375">
        <ele>918.5999755859375</ele>
        <time>2026-08-21T12:47:58.000Z</time>
        <extensions>
          <ns3:TrackPointExtension>
            <ns3:hr>121</ns3:hr>
            <ns3:cad>0</ns3:cad>
          </ns3:TrackPointExtension>
        </extensions>
      </trkpt>
      <trkpt lat="45.3177277743816375732421875" lon="-70.80783854238688945770263671875">
        <ele>918.20001220703125</ele>
        <time>2026-08-21T12:47:59.000Z</time>
        <extensions>
          <ns3:TrackPointExtension>
            <ns3:hr>121</ns3:hr>
            <ns3:cad>0</ns3:cad>
          </ns3:TrackPointExtension>
        </extensions>
      </trkpt>
      <trkpt lat="45.3177242539823055267333984375" lon="-70.80784742720425128936767578125">
        <ele>918</ele>
        <time>2026-08-21T12:48:00.000Z</time>
        <extensions>
          <ns3:TrackPointExtension>
            <ns3:hr>121</ns3:hr>
            <ns3:cad>0</ns3:cad>
          </ns3:TrackPointExtension>
        </extensions>
      </trkpt>
      <trkpt lat="45.31771746464073657989501953125" lon="-70.8078518696129322052001953125">
        <ele>917.5999755859375</ele>
        <time>2026-08-21T12:48:01.000Z</time>
        <extensions>
          <ns3:TrackPointExtension>
            <ns3:hr>122</ns3:hr>
            <ns3:cad>0</ns3:cad>
          </ns3:TrackPointExtension>
        </extensions>
      </trkpt>
      <trkpt lat="45.31771092675626277923583984375" lon="-70.807855390012264251708984375">
        <ele>917.4000244140625</ele>
        <time>2026-08-21T12:48:02.000Z</time>
        <extensions>
          <ns3:TrackPointExtension>
            <ns3:hr>121</ns3:hr>
            <ns3:cad>0</ns3:cad>
          </ns3:TrackPointExtension>
        </extensions>
      </trkpt>
      <trkpt lat="45.3177041374146938323974609375" lon="-70.80785832367837429046630859375">
        <ele>917</ele>
        <time>2026-08-21T12:48:03.000Z</time>
        <extensions>
          <ns3:TrackPointExtension>
            <ns3:hr>121</ns3:hr>
            <ns3:cad>0</ns3:cad>
          </ns3:TrackPointExtension>
        </extensions>
      </trkpt>
      <trkpt lat="45.31769768334925174713134765625" lon="-70.80786938779056072235107421875">
        <ele>916.5999755859375</ele>
        <time>2026-08-21T12:48:04.000Z</time>
        <extensions>
          <ns3:TrackPointExtension>
            <ns3:hr>122</ns3:hr>
            <ns3:cad>0</ns3:cad>
          </ns3:TrackPointExtension>
        </extensions>
      </trkpt>
      <trkpt lat="45.31769357621669769287109375" lon="-70.807872153818607330322265625">
        <ele>916.20001220703125</ele>
        <time>2026-08-21T12:48:05.000Z</time>
        <extensions>
          <ns3:TrackPointExtension>
            <ns3:hr>122</ns3:hr>
            <ns3:cad>0</ns3:cad>
          </ns3:TrackPointExtension>
        </extensions>
      </trkpt>
      <trkpt lat="45.317685864865779876708984375" lon="-70.8078853972256183624267578125">
        <ele>915.79998779296875</ele>
        <time>2026-08-21T12:48:06.000Z</time>
        <extensions>
          <ns3:TrackPointExtension>
            <ns3:hr>122</ns3:hr>
            <ns3:cad>0</ns3:cad>
          </ns3:TrackPointExtension>
        </extensions>
      </trkpt>
      <trkpt lat="45.31768360175192356109619140625" lon="-70.8079008199274539947509765625">
        <ele>915.20001220703125</ele>
        <time>2026-08-21T12:48:07.000Z</time>
        <extensions>
          <ns3:TrackPointExtension>
            <ns3:hr>121</ns3:hr>
            <ns3:cad>0</ns3:cad>
          </ns3:TrackPointExtension>
        </extensions>
      </trkpt>
      <trkpt lat="45.31768393702805042266845703125" lon="-70.807909704744815826416015625">
        <ele>915</ele>
        <time>2026-08-21T12:48:08.000Z</time>
        <extensions>
          <ns3:TrackPointExtension>
            <ns3:hr>120</ns3:hr>
            <ns3:cad>0</ns3:cad>
          </ns3:TrackPointExtension>
        </extensions>
      </trkpt>
      <trkpt lat="45.31768293119966983795166015625" lon="-70.80792236141860485076904296875">
        <ele>914.5999755859375</ele>
        <time>2026-08-21T12:48:09.000Z</time>
        <extensions>
          <ns3:TrackPointExtension>
            <ns3:hr>120</ns3:hr>
            <ns3:cad>0</ns3:cad>
          </ns3:TrackPointExtension>
        </extensions>
      </trkpt>
      <trkpt lat="45.317681171000003814697265625" lon="-70.807938873767852783203125">
        <ele>914.20001220703125</ele>
        <time>2026-08-21T12:48:10.000Z</time>
        <extensions>
          <ns3:TrackPointExtension>
            <ns3:hr>120</ns3:hr>
            <ns3:cad>0</ns3:cad>
          </ns3:TrackPointExtension>
        </extensions>
      </trkpt>
      <trkpt lat="45.3176810033619403839111328125" lon="-70.8079534582793712615966796875">
        <ele>914</ele>
        <time>2026-08-21T12:48:11.000Z</time>
        <extensions>
          <ns3:TrackPointExtension>
            <ns3:hr>121</ns3:hr>
            <ns3:cad>0</ns3:cad>
          </ns3:TrackPointExtension>
        </extensions>
      </trkpt>
      <trkpt lat="45.31768058426678180694580078125" lon="-70.80796326510608196258544921875">
        <ele>913.79998779296875</ele>
        <time>2026-08-21T12:48:12.000Z</time>
        <extensions>
          <ns3:TrackPointExtension>
            <ns3:hr>121</ns3:hr>
            <ns3:cad>0</ns3:cad>
          </ns3:TrackPointExtension>
        </extensions>
      </trkpt>
      <trkpt lat="45.31768091954290866851806640625" lon="-70.807974077761173248291015625">
        <ele>913.4000244140625</ele>
        <time>2026-08-21T12:48:13.000Z</time>
        <extensions>
          <ns3:TrackPointExtension>
            <ns3:hr>121</ns3:hr>
            <ns3:cad>0</ns3:cad>
          </ns3:TrackPointExtension>
        </extensions>
      </trkpt>
      <trkpt lat="45.3176742978394031524658203125" lon="-70.807987153530120849609375">
        <ele>913.20001220703125</ele>
        <time>2026-08-21T12:48:14.000Z</time>
        <extensions>
          <ns3:TrackPointExtension>
            <ns3:hr>122</ns3:hr>
            <ns3:cad>0</ns3:cad>
          </ns3:TrackPointExtension>
        </extensions>
      </trkpt>
      <trkpt lat="45.31766516156494617462158203125" lon="-70.80799712799489498138427734375">
        <ele>912.79998779296875</ele>
        <time>2026-08-21T12:48:15.000Z</time>
        <extensions>
          <ns3:TrackPointExtension>
            <ns3:hr>121</ns3:hr>
            <ns3:cad>0</ns3:cad>
          </ns3:TrackPointExtension>
        </extensions>
      </trkpt>
      <trkpt lat="45.3176607191562652587890625" lon="-70.80800953321158885955810546875">
        <ele>912.4000244140625</ele>
        <time>2026-08-21T12:48:16.000Z</time>
        <extensions>
          <ns3:TrackPointExtension>
            <ns3:hr>121</ns3:hr>
            <ns3:cad>0</ns3:cad>
          </ns3:TrackPointExtension>
        </extensions>
      </trkpt>
      <trkpt lat="45.31765761785209178924560546875" lon="-70.80801657401025295257568359375">
        <ele>912</ele>
        <time>2026-08-21T12:48:17.000Z</time>
        <extensions>
          <ns3:TrackPointExtension>
            <ns3:hr>122</ns3:hr>
            <ns3:cad>0</ns3:cad>
          </ns3:TrackPointExtension>
        </extensions>
      </trkpt>
      <trkpt lat="45.31765510328114032745361328125" lon="-70.8080191724002361297607421875">
        <ele>911.5999755859375</ele>
        <time>2026-08-21T12:48:18.000Z</time>
        <extensions>
          <ns3:TrackPointExtension>
            <ns3:hr>121</ns3:hr>
            <ns3:cad>0</ns3:cad>
          </ns3:TrackPointExtension>
        </extensions>
      </trkpt>
      <trkpt lat="45.31764395534992218017578125" lon="-70.80802797339856624603271484375">
        <ele>911.20001220703125</ele>
        <time>2026-08-21T12:48:19.000Z</time>
        <extensions>
          <ns3:TrackPointExtension>
            <ns3:hr>121</ns3:hr>
            <ns3:cad>0</ns3:cad>
          </ns3:TrackPointExtension>
        </extensions>
      </trkpt>
      <trkpt lat="45.3176343999803066253662109375" lon="-70.80804054625332355499267578125">
        <ele>910.79998779296875</ele>
        <time>2026-08-21T12:48:20.000Z</time>
        <extensions>
          <ns3:TrackPointExtension>
            <ns3:hr>120</ns3:hr>
            <ns3:cad>0</ns3:cad>
          </ns3:TrackPointExtension>
        </extensions>
      </trkpt>
      <trkpt lat="45.31762509606778621673583984375" lon="-70.80804741941392421722412109375">
        <ele>910.4000244140625</ele>
        <time>2026-08-21T12:48:21.000Z</time>
        <extensions>
          <ns3:TrackPointExtension>
            <ns3:hr>118</ns3:hr>
            <ns3:cad>0</ns3:cad>
          </ns3:TrackPointExtension>
        </extensions>
      </trkpt>
      <trkpt lat="45.31761989928781986236572265625" lon="-70.8080496825277805328369140625">
        <ele>910</ele>
        <time>2026-08-21T12:48:22.000Z</time>
        <extensions>
          <ns3:TrackPointExtension>
            <ns3:hr>117</ns3:hr>
            <ns3:cad>0</ns3:cad>
          </ns3:TrackPointExtension>
        </extensions>
      </trkpt>
      <trkpt lat="45.31761704944074153900146484375" lon="-70.80804054625332355499267578125">
        <ele>910</ele>
        <time>2026-08-21T12:48:23.000Z</time>
        <extensions>
          <ns3:TrackPointExtension>
            <ns3:hr>117</ns3:hr>
            <ns3:cad>0</ns3:cad>
          </ns3:TrackPointExtension>
        </extensions>
      </trkpt>
      <trkpt lat="45.3176176361739635467529296875" lon="-70.80803182907402515411376953125">
        <ele>910</ele>
        <time>2026-08-21T12:48:24.000Z</time>
        <extensions>
          <ns3:TrackPointExtension>
            <ns3:hr>116</ns3:hr>
            <ns3:cad>0</ns3:cad>
          </ns3:TrackPointExtension>
        </extensions>
      </trkpt>
      <trkpt lat="45.31761637888848781585693359375" lon="-70.808019340038299560546875">
        <ele>910</ele>
        <time>2026-08-21T12:48:25.000Z</time>
        <extensions>
          <ns3:TrackPointExtension>
            <ns3:hr>115</ns3:hr>
            <ns3:cad>0</ns3:cad>
          </ns3:TrackPointExtension>
        </extensions>
      </trkpt>
      <trkpt lat="45.31761352904140949249267578125" lon="-70.80800886265933513641357421875">
        <ele>910.20001220703125</ele>
        <time>2026-08-21T12:48:26.000Z</time>
        <extensions>
          <ns3:TrackPointExtension>
            <ns3:hr>113</ns3:hr>
            <ns3:cad>0</ns3:cad>
          </ns3:TrackPointExtension>
        </extensions>
      </trkpt>
      <trkpt lat="45.31760833226144313812255859375" lon="-70.807992853224277496337890625">
        <ele>910.4000244140625</ele>
        <time>2026-08-21T12:48:27.000Z</time>
        <extensions>
          <ns3:TrackPointExtension>
            <ns3:hr>112</ns3:hr>
            <ns3:cad>0</ns3:cad>
          </ns3:TrackPointExtension>
        </extensions>
      </trkpt>
      <trkpt lat="45.31760313548147678375244140625" lon="-70.807988159358501434326171875">
        <ele>910.5999755859375</ele>
        <time>2026-08-21T12:48:28.000Z</time>
        <extensions>
          <ns3:TrackPointExtension>
            <ns3:hr>111</ns3:hr>
            <ns3:cad>0</ns3:cad>
          </ns3:TrackPointExtension>
        </extensions>
      </trkpt>
      <trkpt lat="45.31759777106344699859619140625" lon="-70.80797374248504638671875">
        <ele>910.79998779296875</ele>
        <time>2026-08-21T12:48:29.000Z</time>
        <extensions>
          <ns3:TrackPointExtension>
            <ns3:hr>110</ns3:hr>
            <ns3:cad>0</ns3:cad>
          </ns3:TrackPointExtension>
        </extensions>
      </trkpt>
      <trkpt lat="45.31759140081703662872314453125" lon="-70.807964690029621124267578125">
        <ele>911</ele>
        <time>2026-08-21T12:48:30.000Z</time>
        <extensions>
          <ns3:TrackPointExtension>
            <ns3:hr>109</ns3:hr>
            <ns3:cad>0</ns3:cad>
          </ns3:TrackPointExtension>
        </extensions>
      </trkpt>
      <trkpt lat="45.31758620403707027435302734375" lon="-70.80795438028872013092041015625">
        <ele>911</ele>
        <time>2026-08-21T12:48:31.000Z</time>
        <extensions>
          <ns3:TrackPointExtension>
            <ns3:hr>108</ns3:hr>
            <ns3:cad>0</ns3:cad>
          </ns3:TrackPointExtension>
        </extensions>
      </trkpt>
      <trkpt lat="45.317583940923213958740234375" lon="-70.8079444058239459991455078125">
        <ele>911.20001220703125</ele>
        <time>2026-08-21T12:48:32.000Z</time>
        <extensions>
          <ns3:TrackPointExtension>
            <ns3:hr>109</ns3:hr>
            <ns3:cad>0</ns3:cad>
          </ns3:TrackPointExtension>
        </extensions>
      </trkpt>
      <trkpt lat="45.31757958233356475830078125" lon="-70.80792135559022426605224609375">
        <ele>911</ele>
        <time>2026-08-21T12:48:33.000Z</time>
        <extensions>
          <ns3:TrackPointExtension>
            <ns3:hr>110</ns3:hr>
            <ns3:cad>0</ns3:cad>
          </ns3:TrackPointExtension>
        </extensions>
      </trkpt>
      <trkpt lat="45.31757363118231296539306640625" lon="-70.80790190957486629486083984375">
        <ele>911</ele>
        <time>2026-08-21T12:48:34.000Z</time>
        <extensions>
          <ns3:TrackPointExtension>
            <ns3:hr>111</ns3:hr>
            <ns3:cad>0</ns3:cad>
          </ns3:TrackPointExtension>
        </extensions>
      </trkpt>
      <trkpt lat="45.31756348907947540283203125" lon="-70.80787274055182933807373046875">
        <ele>911</ele>
        <time>2026-08-21T12:48:35.000Z</time>
        <extensions>
          <ns3:TrackPointExtension>
            <ns3:hr>111</ns3:hr>
            <ns3:cad>0</ns3:cad>
          </ns3:TrackPointExtension>
        </extensions>
      </trkpt>
      <trkpt lat="45.317547731101512908935546875" lon="-70.8078535459935665130615234375">
        <ele>910.79998779296875</ele>
        <time>2026-08-21T12:48:36.000Z</time>
        <extensions>
          <ns3:TrackPointExtension>
            <ns3:hr>111</ns3:hr>
            <ns3:cad>0</ns3:cad>
          </ns3:TrackPointExtension>
        </extensions>
      </trkpt>
      <trkpt lat="45.31753356568515300750732421875" lon="-70.8078391291201114654541015625">
        <ele>910.79998779296875</ele>
        <time>2026-08-21T12:48:37.000Z</time>
        <extensions>
          <ns3:TrackPointExtension>
            <ns3:hr>110</ns3:hr>
            <ns3:cad>0</ns3:cad>
          </ns3:TrackPointExtension>
        </extensions>
      </trkpt>
      <trkpt lat="45.31750104390084743499755859375" lon="-70.80783468671143054962158203125">
        <ele>911</ele>
        <time>2026-08-21T12:48:38.000Z</time>
        <extensions>
          <ns3:TrackPointExtension>
            <ns3:hr>111</ns3:hr>
            <ns3:cad>68</ns3:cad>
          </ns3:TrackPointExtension>
        </extensions>
      </trkpt>
      <trkpt lat="45.31748302280902862548828125" lon="-70.8078411407768726348876953125">
        <ele>911</ele>
        <time>2026-08-21T12:48:39.000Z</time>
        <extensions>
          <ns3:TrackPointExtension>
            <ns3:hr>112</ns3:hr>
            <ns3:cad>68</ns3:cad>
          </ns3:TrackPointExtension>
        </extensions>
      </trkpt>
      <trkpt lat="45.31746533699333667755126953125" lon="-70.8078448288142681121826171875">
        <ele>911</ele>
        <time>2026-08-21T12:48:40.000Z</time>
        <extensions>
          <ns3:TrackPointExtension>
            <ns3:hr>113</ns3:hr>
            <ns3:cad>68</ns3:cad>
          </ns3:TrackPointExtension>
        </extensions>
      </trkpt>
      <trkpt lat="45.31744572333991527557373046875" lon="-70.8078431524336338043212890625">
        <ele>911</ele>
        <time>2026-08-21T12:48:41.000Z</time>
        <extensions>
          <ns3:TrackPointExtension>
            <ns3:hr>115</ns3:hr>
            <ns3:cad>68</ns3:cad>
          </ns3:TrackPointExtension>
        </extensions>
      </trkpt>
      <trkpt lat="45.31742342747747898101806640625" lon="-70.80783854238688945770263671875">
        <ele>911</ele>
        <time>2026-08-21T12:48:42.000Z</time>
        <extensions>
          <ns3:TrackPointExtension>
            <ns3:hr>117</ns3:hr>
            <ns3:cad>68</ns3:cad>
          </ns3:TrackPointExtension>
        </extensions>
      </trkpt>
      <trkpt lat="45.3174074180424213409423828125" lon="-70.807841308414936065673828125">
        <ele>911.20001220703125</ele>
        <time>2026-08-21T12:48:43.000Z</time>
        <extensions>
          <ns3:TrackPointExtension>
            <ns3:hr>118</ns3:hr>
            <ns3:cad>16</ns3:cad>
          </ns3:TrackPointExtension>
        </extensions>
      </trkpt>
      <trkpt lat="45.3173950128257274627685546875" lon="-70.8078394643962383270263671875">
        <ele>911.20001220703125</ele>
        <time>2026-08-21T12:48:44.000Z</time>
        <extensions>
          <ns3:TrackPointExtension>
            <ns3:hr>119</ns3:hr>
            <ns3:cad>16</ns3:cad>
          </ns3:TrackPointExtension>
        </extensions>
      </trkpt>
      <trkpt lat="45.3173812665045261383056640625" lon="-70.807837955653667449951171875">
        <ele>911.20001220703125</ele>
        <time>2026-08-21T12:48:45.000Z</time>
        <extensions>
          <ns3:TrackPointExtension>
            <ns3:hr>119</ns3:hr>
            <ns3:cad>16</ns3:cad>
          </ns3:TrackPointExtension>
        </extensions>
      </trkpt>
      <trkpt lat="45.3173712082207202911376953125" lon="-70.80783686600625514984130859375">
        <ele>911.20001220703125</ele>
        <time>2026-08-21T12:48:46.000Z</time>
        <extensions>
          <ns3:TrackPointExtension>
            <ns3:hr>120</ns3:hr>
            <ns3:cad>61</ns3:cad>
          </ns3:TrackPointExtension>
        </extensions>
      </trkpt>
      <trkpt lat="45.317349918186664581298828125" lon="-70.80784273333847522735595703125">
        <ele>911.20001220703125</ele>
        <time>2026-08-21T12:48:47.000Z</time>
        <extensions>
          <ns3:TrackPointExtension>
            <ns3:hr>120</ns3:hr>
            <ns3:cad>61</ns3:cad>
          </ns3:TrackPointExtension>
        </extensions>
      </trkpt>
      <trkpt lat="45.3173353336751461029052734375" lon="-70.80784373916685581207275390625">
        <ele>911.20001220703125</ele>
        <time>2026-08-21T12:48:48.000Z</time>
        <extensions>
          <ns3:TrackPointExtension>
            <ns3:hr>119</ns3:hr>
            <ns3:cad>61</ns3:cad>
          </ns3:TrackPointExtension>
        </extensions>
      </trkpt>
      <trkpt lat="45.31732074916362762451171875" lon="-70.80783988349139690399169921875">
        <ele>911.20001220703125</ele>
        <time>2026-08-21T12:48:49.000Z</time>
        <extensions>
          <ns3:TrackPointExtension>
            <ns3:hr>116</ns3:hr>
            <ns3:cad>61</ns3:cad>
          </ns3:TrackPointExtension>
        </extensions>
      </trkpt>
      <trkpt lat="45.317313708364963531494140625" lon="-70.807829238474369049072265625">
        <ele>911.20001220703125</ele>
        <time>2026-08-21T12:48:50.000Z</time>
        <extensions>
          <ns3:TrackPointExtension>
            <ns3:hr>115</ns3:hr>
            <ns3:cad>61</ns3:cad>
          </ns3:TrackPointExtension>
        </extensions>
      </trkpt>
      <trkpt lat="45.3173048235476016998291015625" lon="-70.80782127566635608673095703125">
        <ele>911.20001220703125</ele>
        <time>2026-08-21T12:48:51.000Z</time>
        <extensions>
          <ns3:TrackPointExtension>
            <ns3:hr>114</ns3:hr>
            <ns3:cad>61</ns3:cad>
          </ns3:TrackPointExtension>
        </extensions>
      </trkpt>
      <trkpt lat="45.317291915416717529296875" lon="-70.807819850742816925048828125">
        <ele>911.20001220703125</ele>
        <time>2026-08-21T12:48:52.000Z</time>
        <extensions>
          <ns3:TrackPointExtension>
            <ns3:hr>114</ns3:hr>
            <ns3:cad>0</ns3:cad>
          </ns3:TrackPointExtension>
        </extensions>
      </trkpt>
      <trkpt lat="45.31727917492389678955078125" lon="-70.80781943164765834808349609375">
        <ele>911</ele>
        <time>2026-08-21T12:48:53.000Z</time>
        <extensions>
          <ns3:TrackPointExtension>
            <ns3:hr>113</ns3:hr>
            <ns3:cad>0</ns3:cad>
          </ns3:TrackPointExtension>
        </extensions>
      </trkpt>
      <trkpt lat="45.317267440259456634521484375" lon="-70.80781809054315090179443359375">
        <ele>911.20001220703125</ele>
        <time>2026-08-21T12:48:54.000Z</time>
        <extensions>
          <ns3:TrackPointExtension>
            <ns3:hr>113</ns3:hr>
            <ns3:cad>0</ns3:cad>
          </ns3:TrackPointExtension>
        </extensions>
      </trkpt>
      <trkpt lat="45.31725025735795497894287109375" lon="-70.80782714299857616424560546875">
        <ele>911.20001220703125</ele>
        <time>2026-08-21T12:48:55.000Z</time>
        <extensions>
          <ns3:TrackPointExtension>
            <ns3:hr>113</ns3:hr>
            <ns3:cad>0</ns3:cad>
          </ns3:TrackPointExtension>
        </extensions>
      </trkpt>
      <trkpt lat="45.3172303922474384307861328125" lon="-70.8078377880156040191650390625">
        <ele>911.20001220703125</ele>
        <time>2026-08-21T12:48:56.000Z</time>
        <extensions>
          <ns3:TrackPointExtension>
            <ns3:hr>113</ns3:hr>
            <ns3:cad>0</ns3:cad>
          </ns3:TrackPointExtension>
        </extensions>
      </trkpt>
      <trkpt lat="45.31721480190753936767578125" lon="-70.80784591846168041229248046875">
        <ele>911</ele>
        <time>2026-08-21T12:48:57.000Z</time>
        <extensions>
          <ns3:TrackPointExtension>
            <ns3:hr>113</ns3:hr>
            <ns3:cad>0</ns3:cad>
          </ns3:TrackPointExtension>
        </extensions>
      </trkpt>
      <trkpt lat="45.31719527207314968109130859375" lon="-70.807849355041980743408203125">
        <ele>911</ele>
        <time>2026-08-21T12:48:58.000Z</time>
        <extensions>
          <ns3:TrackPointExtension>
            <ns3:hr>113</ns3:hr>
            <ns3:cad>0</ns3:cad>
          </ns3:TrackPointExtension>
        </extensions>
      </trkpt>
      <trkpt lat="45.31718336977064609527587890625" lon="-70.8078528754413127899169921875">
        <ele>910.79998779296875</ele>
        <time>2026-08-21T12:48:59.000Z</time>
        <extensions>
          <ns3:TrackPointExtension>
            <ns3:hr>113</ns3:hr>
            <ns3:cad>0</ns3:cad>
          </ns3:TrackPointExtension>
        </extensions>
      </trkpt>
      <trkpt lat="45.31716459430754184722900390625" lon="-70.807860083878040313720703125">
        <ele>910.4000244140625</ele>
        <time>2026-08-21T12:49:00.000Z</time>
        <extensions>
          <ns3:TrackPointExtension>
            <ns3:hr>113</ns3:hr>
            <ns3:cad>0</ns3:cad>
          </ns3:TrackPointExtension>
        </extensions>
      </trkpt>
      <trkpt lat="45.3171485848724842071533203125" lon="-70.80786645412445068359375">
        <ele>910</ele>
        <time>2026-08-21T12:49:01.000Z</time>
        <extensions>
          <ns3:TrackPointExtension>
            <ns3:hr>114</ns3:hr>
            <ns3:cad>0</ns3:cad>
          </ns3:TrackPointExtension>
        </extensions>
      </trkpt>
      <trkpt lat="45.317131318151950836181640625" lon="-70.80786569975316524505615234375">
        <ele>909.5999755859375</ele>
        <time>2026-08-21T12:49:02.000Z</time>
        <extensions>
          <ns3:TrackPointExtension>
            <ns3:hr>113</ns3:hr>
            <ns3:cad>75</ns3:cad>
          </ns3:TrackPointExtension>
        </extensions>
      </trkpt>
      <trkpt lat="45.317116566002368927001953125" lon="-70.807858742773532867431640625">
        <ele>909.20001220703125</ele>
        <time>2026-08-21T12:49:03.000Z</time>
        <extensions>
          <ns3:TrackPointExtension>
            <ns3:hr>113</ns3:hr>
            <ns3:cad>75</ns3:cad>
          </ns3:TrackPointExtension>
        </extensions>
      </trkpt>
      <trkpt lat="45.31710424460470676422119140625" lon="-70.80785899423062801361083984375">
        <ele>909</ele>
        <time>2026-08-21T12:49:04.000Z</time>
        <extensions>
          <ns3:TrackPointExtension>
            <ns3:hr>114</ns3:hr>
            <ns3:cad>75</ns3:cad>
          </ns3:TrackPointExtension>
        </extensions>
      </trkpt>
      <trkpt lat="45.3170892409980297088623046875" lon="-70.80785907804965972900390625">
        <ele>908.79998779296875</ele>
        <time>2026-08-21T12:49:05.000Z</time>
        <extensions>
          <ns3:TrackPointExtension>
            <ns3:hr>113</ns3:hr>
            <ns3:cad>68</ns3:cad>
          </ns3:TrackPointExtension>
        </extensions>
      </trkpt>
      <trkpt lat="45.317079685628414154052734375" lon="-70.8078565634787082672119140625">
        <ele>908.79998779296875</ele>
        <time>2026-08-21T12:49:06.000Z</time>
        <extensions>
          <ns3:TrackPointExtension>
            <ns3:hr>113</ns3:hr>
            <ns3:cad>68</ns3:cad>
          </ns3:TrackPointExtension>
        </extensions>
      </trkpt>
      <trkpt lat="45.317069627344608306884765625" lon="-70.80785195343196392059326171875">
        <ele>909</ele>
        <time>2026-08-21T12:49:07.000Z</time>
        <extensions>
          <ns3:TrackPointExtension>
            <ns3:hr>113</ns3:hr>
            <ns3:cad>0</ns3:cad>
          </ns3:TrackPointExtension>
        </extensions>
      </trkpt>
      <trkpt lat="45.31705680303275585174560546875" lon="-70.80784591846168041229248046875">
        <ele>909.20001220703125</ele>
        <time>2026-08-21T12:49:08.000Z</time>
        <extensions>
          <ns3:TrackPointExtension>
            <ns3:hr>114</ns3:hr>
            <ns3:cad>0</ns3:cad>
          </ns3:TrackPointExtension>
        </extensions>
      </trkpt>
      <trkpt lat="45.3170476667582988739013671875" lon="-70.80784860067069530487060546875">
        <ele>909.4000244140625</ele>
        <time>2026-08-21T12:49:09.000Z</time>
        <extensions>
          <ns3:TrackPointExtension>
            <ns3:hr>114</ns3:hr>
            <ns3:cad>65</ns3:cad>
          </ns3:TrackPointExtension>
        </extensions>
      </trkpt>
      <trkpt lat="45.31703551299870014190673828125" lon="-70.80785647965967655181884765625">
        <ele>909.79998779296875</ele>
        <time>2026-08-21T12:49:10.000Z</time>
        <extensions>
          <ns3:TrackPointExtension>
            <ns3:hr>113</ns3:hr>
            <ns3:cad>65</ns3:cad>
          </ns3:TrackPointExtension>
        </extensions>
      </trkpt>
      <trkpt lat="45.31702436506748199462890625" lon="-70.80786284990608692169189453125">
        <ele>910</ele>
        <time>2026-08-21T12:49:11.000Z</time>
        <extensions>
          <ns3:TrackPointExtension>
            <ns3:hr>113</ns3:hr>
            <ns3:cad>65</ns3:cad>
          </ns3:TrackPointExtension>
        </extensions>
      </trkpt>
      <trkpt lat="45.3170127980411052703857421875" lon="-70.80786838196218013763427734375">
        <ele>910.4000244140625</ele>
        <time>2026-08-21T12:49:12.000Z</time>
        <extensions>
          <ns3:TrackPointExtension>
            <ns3:hr>113</ns3:hr>
            <ns3:cad>58</ns3:cad>
          </ns3:TrackPointExtension>
        </extensions>
      </trkpt>
      <trkpt lat="45.31700332649052143096923828125" lon="-70.80786854960024356842041015625">
        <ele>910.5999755859375</ele>
        <time>2026-08-21T12:49:13.000Z</time>
        <extensions>
          <ns3:TrackPointExtension>
            <ns3:hr>113</ns3:hr>
            <ns3:cad>58</ns3:cad>
          </ns3:TrackPointExtension>
        </extensions>
      </trkpt>
      <trkpt lat="45.31699142418801784515380859375" lon="-70.807874500751495361328125">
        <ele>910.79998779296875</ele>
        <time>2026-08-21T12:49:14.000Z</time>
        <extensions>
          <ns3:TrackPointExtension>
            <ns3:hr>112</ns3:hr>
            <ns3:cad>58</ns3:cad>
          </ns3:TrackPointExtension>
        </extensions>
      </trkpt>
      <trkpt lat="45.31698069535195827484130859375" lon="-70.8078766800463199615478515625">
        <ele>911</ele>
        <time>2026-08-21T12:49:15.000Z</time>
        <extensions>
          <ns3:TrackPointExtension>
            <ns3:hr>112</ns3:hr>
            <ns3:cad>58</ns3:cad>
          </ns3:TrackPointExtension>
        </extensions>
      </trkpt>
      <trkpt lat="45.3169745765626430511474609375" lon="-70.807874165475368499755859375">
        <ele>911.20001220703125</ele>
        <time>2026-08-21T12:49:16.000Z</time>
        <extensions>
          <ns3:TrackPointExtension>
            <ns3:hr>112</ns3:hr>
            <ns3:cad>0</ns3:cad>
          </ns3:TrackPointExtension>
        </extensions>
      </trkpt>
      <trkpt lat="45.31696292571723461151123046875" lon="-70.80787114799022674560546875">
        <ele>911.5999755859375</ele>
        <time>2026-08-21T12:49:17.000Z</time>
        <extensions>
          <ns3:TrackPointExtension>
            <ns3:hr>112</ns3:hr>
            <ns3:cad>0</ns3:cad>
          </ns3:TrackPointExtension>
        </extensions>
      </trkpt>
      <trkpt lat="45.31695018522441387176513671875" lon="-70.8078731596469879150390625">
        <ele>911.79998779296875</ele>
        <time>2026-08-21T12:49:18.000Z</time>
        <extensions>
          <ns3:TrackPointExtension>
            <ns3:hr>112</ns3:hr>
            <ns3:cad>0</ns3:cad>
          </ns3:TrackPointExtension>
        </extensions>
      </trkpt>
      <trkpt lat="45.31694297678768634796142578125" lon="-70.8078770153224468231201171875">
        <ele>912.20001220703125</ele>
        <time>2026-08-21T12:49:19.000Z</time>
        <extensions>
          <ns3:TrackPointExtension>
            <ns3:hr>113</ns3:hr>
            <ns3:cad>0</ns3:cad>
          </ns3:TrackPointExtension>
        </extensions>
      </trkpt>
      <trkpt lat="45.31693643890321254730224609375" lon="-70.807880870997905731201171875">
        <ele>912.5999755859375</ele>
        <time>2026-08-21T12:49:20.000Z</time>
        <extensions>
          <ns3:TrackPointExtension>
            <ns3:hr>113</ns3:hr>
            <ns3:cad>0</ns3:cad>
          </ns3:TrackPointExtension>
        </extensions>
      </trkpt>
      <trkpt lat="45.3169189207255840301513671875" lon="-70.807881541550159454345703125">
        <ele>913</ele>
        <time>2026-08-21T12:49:21.000Z</time>
        <extensions>
          <ns3:TrackPointExtension>
            <ns3:hr>114</ns3:hr>
            <ns3:cad>0</ns3:cad>
          </ns3:TrackPointExtension>
        </extensions>
      </trkpt>
      <trkpt lat="45.31690374948084354400634765625" lon="-70.807884894311428070068359375">
        <ele>913.4000244140625</ele>
        <time>2026-08-21T12:49:22.000Z</time>
        <extensions>
          <ns3:TrackPointExtension>
            <ns3:hr>115</ns3:hr>
            <ns3:cad>0</ns3:cad>
          </ns3:TrackPointExtension>
        </extensions>
      </trkpt>
      <trkpt lat="45.3168907575309276580810546875" lon="-70.807892940938472747802734375">
        <ele>913.5999755859375</ele>
        <time>2026-08-21T12:49:23.000Z</time>
        <extensions>
          <ns3:TrackPointExtension>
            <ns3:hr>116</ns3:hr>
            <ns3:cad>0</ns3:cad>
          </ns3:TrackPointExtension>
        </extensions>
      </trkpt>
      <trkpt lat="45.31687625683844089508056640625" lon="-70.8079001493752002716064453125">
        <ele>913.5999755859375</ele>
        <time>2026-08-21T12:49:24.000Z</time>
        <extensions>
          <ns3:TrackPointExtension>
            <ns3:hr>116</ns3:hr>
            <ns3:cad>49</ns3:cad>
          </ns3:TrackPointExtension>
        </extensions>
      </trkpt>
      <trkpt lat="45.3168592415750026702880859375" lon="-70.80790827982127666473388671875">
        <ele>913.5999755859375</ele>
        <time>2026-08-21T12:49:25.000Z</time>
        <extensions>
          <ns3:TrackPointExtension>
            <ns3:hr>117</ns3:hr>
            <ns3:cad>49</ns3:cad>
          </ns3:TrackPointExtension>
        </extensions>
      </trkpt>
      <trkpt lat="45.31684608198702335357666015625" lon="-70.8079133927822113037109375">
        <ele>913.5999755859375</ele>
        <time>2026-08-21T12:49:26.000Z</time>
        <extensions>
          <ns3:TrackPointExtension>
            <ns3:hr>118</ns3:hr>
            <ns3:cad>0</ns3:cad>
          </ns3:TrackPointExtension>
        </extensions>
      </trkpt>
      <trkpt lat="45.3168357722461223602294921875" lon="-70.80792236141860485076904296875">
        <ele>913.4000244140625</ele>
        <time>2026-08-21T12:49:27.000Z</time>
        <extensions>
          <ns3:TrackPointExtension>
            <ns3:hr>119</ns3:hr>
            <ns3:cad>0</ns3:cad>
          </ns3:TrackPointExtension>
        </extensions>
      </trkpt>
      <trkpt lat="45.3168237023055553436279296875" lon="-70.80793543718755245208740234375">
        <ele>913.4000244140625</ele>
        <time>2026-08-21T12:49:28.000Z</time>
        <extensions>
          <ns3:TrackPointExtension>
            <ns3:hr>120</ns3:hr>
            <ns3:cad>0</ns3:cad>
          </ns3:TrackPointExtension>
        </extensions>
      </trkpt>
      <trkpt lat="45.3168102912604808807373046875" lon="-70.80794415436685085296630859375">
        <ele>913.4000244140625</ele>
        <time>2026-08-21T12:49:29.000Z</time>
        <extensions>
          <ns3:TrackPointExtension>
            <ns3:hr>121</ns3:hr>
            <ns3:cad>0</ns3:cad>
          </ns3:TrackPointExtension>
        </extensions>
      </trkpt>
      <trkpt lat="45.31679579056799411773681640625" lon="-70.80794801004230976104736328125">
        <ele>913.4000244140625</ele>
        <time>2026-08-21T12:49:30.000Z</time>
        <extensions>
          <ns3:TrackPointExtension>
            <ns3:hr>122</ns3:hr>
            <ns3:cad>0</ns3:cad>
          </ns3:TrackPointExtension>
        </extensions>
      </trkpt>
      <trkpt lat="45.31678028404712677001953125" lon="-70.80795488320291042327880859375">
        <ele>913.4000244140625</ele>
        <time>2026-08-21T12:49:31.000Z</time>
        <extensions>
          <ns3:TrackPointExtension>
            <ns3:hr>122</ns3:hr>
            <ns3:cad>53</ns3:cad>
          </ns3:TrackPointExtension>
        </extensions>
      </trkpt>
      <trkpt lat="45.3167690522968769073486328125" lon="-70.807957313954830169677734375">
        <ele>913.4000244140625</ele>
        <time>2026-08-21T12:49:32.000Z</time>
        <extensions>
          <ns3:TrackPointExtension>
            <ns3:hr>123</ns3:hr>
            <ns3:cad>53</ns3:cad>
          </ns3:TrackPointExtension>
        </extensions>
      </trkpt>
      <trkpt lat="45.31676092185080051422119140625" lon="-70.8079604990780353546142578125">
        <ele>913.20001220703125</ele>
        <time>2026-08-21T12:49:33.000Z</time>
        <extensions>
          <ns3:TrackPointExtension>
            <ns3:hr>124</ns3:hr>
            <ns3:cad>53</ns3:cad>
          </ns3:TrackPointExtension>
        </extensions>
      </trkpt>
      <trkpt lat="45.316747762262821197509765625" lon="-70.80796427093446254730224609375">
        <ele>913.20001220703125</ele>
        <time>2026-08-21T12:49:34.000Z</time>
        <extensions>
          <ns3:TrackPointExtension>
            <ns3:hr>125</ns3:hr>
            <ns3:cad>53</ns3:cad>
          </ns3:TrackPointExtension>
        </extensions>
      </trkpt>
      <trkpt lat="45.3167380392551422119140625" lon="-70.80797131173312664031982421875">
        <ele>913.20001220703125</ele>
        <time>2026-08-21T12:49:35.000Z</time>
        <extensions>
          <ns3:TrackPointExtension>
            <ns3:hr>126</ns3:hr>
            <ns3:cad>53</ns3:cad>
          </ns3:TrackPointExtension>
        </extensions>
      </trkpt>
      <trkpt lat="45.31672454439103603363037109375" lon="-70.8079762570559978485107421875">
        <ele>913</ele>
        <time>2026-08-21T12:49:36.000Z</time>
        <extensions>
          <ns3:TrackPointExtension>
            <ns3:hr>128</ns3:hr>
            <ns3:cad>53</ns3:cad>
          </ns3:TrackPointExtension>
        </extensions>
      </trkpt>
      <trkpt lat="45.316713564097881317138671875" lon="-70.80797768197953701019287109375">
        <ele>913</ele>
        <time>2026-08-21T12:49:37.000Z</time>
        <extensions>
          <ns3:TrackPointExtension>
            <ns3:hr>131</ns3:hr>
            <ns3:cad>53</ns3:cad>
          </ns3:TrackPointExtension>
        </extensions>
      </trkpt>
      <trkpt lat="45.31669721938669681549072265625" lon="-70.8079732395708560943603515625">
        <ele>913</ele>
        <time>2026-08-21T12:49:38.000Z</time>
        <extensions>
          <ns3:TrackPointExtension>
            <ns3:hr>133</ns3:hr>
            <ns3:cad>53</ns3:cad>
          </ns3:TrackPointExtension>
        </extensions>
      </trkpt>
      <trkpt lat="45.31668280251324176788330078125" lon="-70.80797717906534671783447265625">
        <ele>913</ele>
        <time>2026-08-21T12:49:39.000Z</time>
        <extensions>
          <ns3:TrackPointExtension>
            <ns3:hr>135</ns3:hr>
            <ns3:cad>56</ns3:cad>
          </ns3:TrackPointExtension>
        </extensions>
      </trkpt>
      <trkpt lat="45.31666629016399383544921875" lon="-70.807979106903076171875">
        <ele>913</ele>
        <time>2026-08-21T12:49:40.000Z</time>
        <extensions>
          <ns3:TrackPointExtension>
            <ns3:hr>136</ns3:hr>
            <ns3:cad>58</ns3:cad>
          </ns3:TrackPointExtension>
        </extensions>
      </trkpt>
      <trkpt lat="45.3166533820331096649169921875" lon="-70.80798111855983734130859375">
        <ele>913</ele>
        <time>2026-08-21T12:49:41.000Z</time>
        <extensions>
          <ns3:TrackPointExtension>
            <ns3:hr>137</ns3:hr>
            <ns3:cad>59</ns3:cad>
          </ns3:TrackPointExtension>
        </extensions>
      </trkpt>
      <trkpt lat="45.3166403062641620635986328125" lon="-70.80797567032277584075927734375">
        <ele>913</ele>
        <time>2026-08-21T12:49:42.000Z</time>
        <extensions>
          <ns3:TrackPointExtension>
            <ns3:hr>137</ns3:hr>
            <ns3:cad>59</ns3:cad>
          </ns3:TrackPointExtension>
        </extensions>
      </trkpt>
      <trkpt lat="45.316626392304897308349609375" lon="-70.807965695858001708984375">
        <ele>912.79998779296875</ele>
        <time>2026-08-21T12:49:43.000Z</time>
        <extensions>
          <ns3:TrackPointExtension>
            <ns3:hr>138</ns3:hr>
            <ns3:cad>59</ns3:cad>
          </ns3:TrackPointExtension>
        </extensions>
      </trkpt>
      <trkpt lat="45.3166108019649982452392578125" lon="-70.80796091817319393157958984375">
        <ele>912.79998779296875</ele>
        <time>2026-08-21T12:49:44.000Z</time>
        <extensions>
          <ns3:TrackPointExtension>
            <ns3:hr>138</ns3:hr>
            <ns3:cad>59</ns3:cad>
          </ns3:TrackPointExtension>
        </extensions>
      </trkpt>
      <trkpt lat="45.3165990673005580902099609375" lon="-70.80795588903129100799560546875">
        <ele>912.79998779296875</ele>
        <time>2026-08-21T12:49:45.000Z</time>
        <extensions>
          <ns3:TrackPointExtension>
            <ns3:hr>138</ns3:hr>
            <ns3:cad>59</ns3:cad>
          </ns3:TrackPointExtension>
        </extensions>
      </trkpt>
      <trkpt lat="45.31658858992159366607666015625" lon="-70.80795303918421268463134765625">
        <ele>912.79998779296875</ele>
        <time>2026-08-21T12:49:46.000Z</time>
        <extensions>
          <ns3:TrackPointExtension>
            <ns3:hr>138</ns3:hr>
            <ns3:cad>59</ns3:cad>
          </ns3:TrackPointExtension>
        </extensions>
      </trkpt>
      <trkpt lat="45.3165799565613269805908203125" lon="-70.8079484291374683380126953125">
        <ele>912.79998779296875</ele>
        <time>2026-08-21T12:49:47.000Z</time>
        <extensions>
          <ns3:TrackPointExtension>
            <ns3:hr>138</ns3:hr>
            <ns3:cad>59</ns3:cad>
          </ns3:TrackPointExtension>
        </extensions>
      </trkpt>
      <trkpt lat="45.3165702335536479949951171875" lon="-70.807938873767852783203125">
        <ele>912.79998779296875</ele>
        <time>2026-08-21T12:49:48.000Z</time>
        <extensions>
          <ns3:TrackPointExtension>
            <ns3:hr>138</ns3:hr>
            <ns3:cad>57</ns3:cad>
          </ns3:TrackPointExtension>
        </extensions>
      </trkpt>
      <trkpt lat="45.31655238009989261627197265625" lon="-70.8079256303608417510986328125">
        <ele>912.79998779296875</ele>
        <time>2026-08-21T12:49:49.000Z</time>
        <extensions>
          <ns3:TrackPointExtension>
            <ns3:hr>138</ns3:hr>
            <ns3:cad>57</ns3:cad>
          </ns3:TrackPointExtension>
        </extensions>
      </trkpt>
      <trkpt lat="45.31654466874897480010986328125" lon="-70.8079209364950656890869140625">
        <ele>912.79998779296875</ele>
        <time>2026-08-21T12:49:50.000Z</time>
        <extensions>
          <ns3:TrackPointExtension>
            <ns3:hr>138</ns3:hr>
            <ns3:cad>56</ns3:cad>
          </ns3:TrackPointExtension>
        </extensions>
      </trkpt>
      <trkpt lat="45.31653159298002719879150390625" lon="-70.80791498534381389617919921875">
        <ele>912.5999755859375</ele>
        <time>2026-08-21T12:49:51.000Z</time>
        <extensions>
          <ns3:TrackPointExtension>
            <ns3:hr>138</ns3:hr>
            <ns3:cad>55</ns3:cad>
          </ns3:TrackPointExtension>
        </extensions>
      </trkpt>
      <trkpt lat="45.3165196068584918975830078125" lon="-70.807913057506084442138671875">
        <ele>912.5999755859375</ele>
        <time>2026-08-21T12:49:52.000Z</time>
        <extensions>
          <ns3:TrackPointExtension>
            <ns3:hr>137</ns3:hr>
            <ns3:cad>55</ns3:cad>
          </ns3:TrackPointExtension>
        </extensions>
      </trkpt>
      <trkpt lat="45.3165125660598278045654296875" lon="-70.80791431479156017303466796875">
        <ele>912.5999755859375</ele>
        <time>2026-08-21T12:49:53.000Z</time>
        <extensions>
          <ns3:TrackPointExtension>
            <ns3:hr>137</ns3:hr>
            <ns3:cad>55</ns3:cad>
          </ns3:TrackPointExtension>
        </extensions>
      </trkpt>
      <trkpt lat="45.31650242395699024200439453125" lon="-70.80791850574314594268798828125">
        <ele>912.4000244140625</ele>
        <time>2026-08-21T12:49:54.000Z</time>
        <extensions>
          <ns3:TrackPointExtension>
            <ns3:hr>137</ns3:hr>
            <ns3:cad>55</ns3:cad>
          </ns3:TrackPointExtension>
        </extensions>
      </trkpt>
      <trkpt lat="45.316492952406406402587890625" lon="-70.80792454071342945098876953125">
        <ele>912.20001220703125</ele>
        <time>2026-08-21T12:49:55.000Z</time>
        <extensions>
          <ns3:TrackPointExtension>
            <ns3:hr>137</ns3:hr>
            <ns3:cad>59</ns3:cad>
          </ns3:TrackPointExtension>
        </extensions>
      </trkpt>
      <trkpt lat="45.316482894122600555419921875" lon="-70.8079316653311252593994140625">
        <ele>912.20001220703125</ele>
        <time>2026-08-21T12:49:56.000Z</time>
        <extensions>
          <ns3:TrackPointExtension>
            <ns3:hr>137</ns3:hr>
            <ns3:cad>59</ns3:cad>
          </ns3:TrackPointExtension>
        </extensions>
      </trkpt>
      <trkpt lat="45.3164750151336193084716796875" lon="-70.80793417990207672119140625">
        <ele>912</ele>
        <time>2026-08-21T12:49:57.000Z</time>
        <extensions>
          <ns3:TrackPointExtension>
            <ns3:hr>136</ns3:hr>
            <ns3:cad>0</ns3:cad>
          </ns3:TrackPointExtension>
        </extensions>
      </trkpt>
      <trkpt lat="45.3164569102227687835693359375" lon="-70.807934515178203582763671875">
        <ele>911.79998779296875</ele>
        <time>2026-08-21T12:49:58.000Z</time>
        <extensions>
          <ns3:TrackPointExtension>
            <ns3:hr>136</ns3:hr>
            <ns3:cad>0</ns3:cad>
          </ns3:TrackPointExtension>
        </extensions>
      </trkpt>
      <trkpt lat="45.3164403140544891357421875" lon="-70.80793174915015697479248046875">
        <ele>911.4000244140625</ele>
        <time>2026-08-21T12:49:59.000Z</time>
        <extensions>
          <ns3:TrackPointExtension>
            <ns3:hr>136</ns3:hr>
            <ns3:cad>0</ns3:cad>
          </ns3:TrackPointExtension>
        </extensions>
      </trkpt>
      <trkpt lat="45.3164327703416347503662109375" lon="-70.8079222775995731353759765625">
        <ele>911.20001220703125</ele>
        <time>2026-08-21T12:50:00.000Z</time>
        <extensions>
          <ns3:TrackPointExtension>
            <ns3:hr>136</ns3:hr>
            <ns3:cad>0</ns3:cad>
          </ns3:TrackPointExtension>
        </extensions>
      </trkpt>
      <trkpt lat="45.31642346642911434173583984375" lon="-70.80791582353413105010986328125">
        <ele>911</ele>
        <time>2026-08-21T12:50:01.000Z</time>
        <extensions>
          <ns3:TrackPointExtension>
            <ns3:hr>136</ns3:hr>
            <ns3:cad>0</ns3:cad>
          </ns3:TrackPointExtension>
        </extensions>
      </trkpt>
      <trkpt lat="45.31640972010791301727294921875" lon="-70.80790677107870578765869140625">
        <ele>910.79998779296875</ele>
        <time>2026-08-21T12:50:02.000Z</time>
        <extensions>
          <ns3:TrackPointExtension>
            <ns3:hr>136</ns3:hr>
            <ns3:cad>0</ns3:cad>
          </ns3:TrackPointExtension>
        </extensions>
      </trkpt>
      <trkpt lat="45.3163968957960605621337890625" lon="-70.80790358595550060272216796875">
        <ele>910.5999755859375</ele>
        <time>2026-08-21T12:50:03.000Z</time>
        <extensions>
          <ns3:TrackPointExtension>
            <ns3:hr>136</ns3:hr>
            <ns3:cad>0</ns3:cad>
          </ns3:TrackPointExtension>
        </extensions>
      </trkpt>
      <trkpt lat="45.31637585721909999847412109375" lon="-70.8079035021364688873291015625">
        <ele>910.5999755859375</ele>
        <time>2026-08-21T12:50:04.000Z</time>
        <extensions>
          <ns3:TrackPointExtension>
            <ns3:hr>136</ns3:hr>
            <ns3:cad>0</ns3:cad>
          </ns3:TrackPointExtension>
        </extensions>
      </trkpt>
      <trkpt lat="45.31636244617402553558349609375" lon="-70.8079058490693569183349609375">
        <ele>910.5999755859375</ele>
        <time>2026-08-21T12:50:05.000Z</time>
        <extensions>
          <ns3:TrackPointExtension>
            <ns3:hr>135</ns3:hr>
            <ns3:cad>0</ns3:cad>
          </ns3:TrackPointExtension>
        </extensions>
      </trkpt>
      <trkpt lat="45.31634987331926822662353515625" lon="-70.80789755098521709442138671875">
        <ele>910.5999755859375</ele>
        <time>2026-08-21T12:50:06.000Z</time>
        <extensions>
          <ns3:TrackPointExtension>
            <ns3:hr>135</ns3:hr>
            <ns3:cad>0</ns3:cad>
          </ns3:TrackPointExtension>
        </extensions>
      </trkpt>
      <trkpt lat="45.3163397312164306640625" lon="-70.8078931085765361785888671875">
        <ele>910.5999755859375</ele>
        <time>2026-08-21T12:50:07.000Z</time>
        <extensions>
          <ns3:TrackPointExtension>
            <ns3:hr>134</ns3:hr>
            <ns3:cad>0</ns3:cad>
          </ns3:TrackPointExtension>
        </extensions>
      </trkpt>
      <trkpt lat="45.3163191117346286773681640625" lon="-70.80788950435817241668701171875">
        <ele>910.5999755859375</ele>
        <time>2026-08-21T12:50:08.000Z</time>
        <extensions>
          <ns3:TrackPointExtension>
            <ns3:hr>134</ns3:hr>
            <ns3:cad>0</ns3:cad>
          </ns3:TrackPointExtension>
        </extensions>
      </trkpt>
      <trkpt lat="45.31630645506083965301513671875" lon="-70.80789218656718730926513671875">
        <ele>910.5999755859375</ele>
        <time>2026-08-21T12:50:09.000Z</time>
        <extensions>
          <ns3:TrackPointExtension>
            <ns3:hr>133</ns3:hr>
            <ns3:cad>0</ns3:cad>
          </ns3:TrackPointExtension>
        </extensions>
      </trkpt>
      <trkpt lat="45.316293798387050628662109375" lon="-70.80790827982127666473388671875">
        <ele>910.79998779296875</ele>
        <time>2026-08-21T12:50:10.000Z</time>
        <extensions>
          <ns3:TrackPointExtension>
            <ns3:hr>133</ns3:hr>
            <ns3:cad>0</ns3:cad>
          </ns3:TrackPointExtension>
        </extensions>
      </trkpt>
      <trkpt lat="45.31628130935132503509521484375" lon="-70.807919763028621673583984375">
        <ele>910.79998779296875</ele>
        <time>2026-08-21T12:50:11.000Z</time>
        <extensions>
          <ns3:TrackPointExtension>
            <ns3:hr>133</ns3:hr>
            <ns3:cad>0</ns3:cad>
          </ns3:TrackPointExtension>
        </extensions>
      </trkpt>
      <trkpt lat="45.31627007760107517242431640625" lon="-70.80791942775249481201171875">
        <ele>911</ele>
        <time>2026-08-21T12:50:12.000Z</time>
        <extensions>
          <ns3:TrackPointExtension>
            <ns3:hr>132</ns3:hr>
            <ns3:cad>0</ns3:cad>
          </ns3:TrackPointExtension>
        </extensions>
      </trkpt>
      <trkpt lat="45.31626052223145961761474609375" lon="-70.80792345106601715087890625">
        <ele>911.20001220703125</ele>
        <time>2026-08-21T12:50:13.000Z</time>
        <extensions>
          <ns3:TrackPointExtension>
            <ns3:hr>132</ns3:hr>
            <ns3:cad>0</ns3:cad>
          </ns3:TrackPointExtension>
        </extensions>
      </trkpt>
      <trkpt lat="45.31625046394765377044677734375" lon="-70.8079187572002410888671875">
        <ele>911.4000244140625</ele>
        <time>2026-08-21T12:50:14.000Z</time>
        <extensions>
          <ns3:TrackPointExtension>
            <ns3:hr>132</ns3:hr>
            <ns3:cad>0</ns3:cad>
          </ns3:TrackPointExtension>
        </extensions>
      </trkpt>
      <trkpt lat="45.31623772345483303070068359375" lon="-70.80790794454514980316162109375">
        <ele>911.5999755859375</ele>
        <time>2026-08-21T12:50:15.000Z</time>
        <extensions>
          <ns3:TrackPointExtension>
            <ns3:hr>132</ns3:hr>
            <ns3:cad>0</ns3:cad>
          </ns3:TrackPointExtension>
        </extensions>
      </trkpt>
      <trkpt lat="45.3162228874862194061279296875" lon="-70.80790375359356403350830078125">
        <ele>912</ele>
        <time>2026-08-21T12:50:16.000Z</time>
        <extensions>
          <ns3:TrackPointExtension>
            <ns3:hr>131</ns3:hr>
            <ns3:cad>0</ns3:cad>
          </ns3:TrackPointExtension>
        </extensions>
      </trkpt>
      <trkpt lat="45.31620419584214687347412109375" lon="-70.80790375359356403350830078125">
        <ele>912.20001220703125</ele>
        <time>2026-08-21T12:50:17.000Z</time>
        <extensions>
          <ns3:TrackPointExtension>
            <ns3:hr>131</ns3:hr>
            <ns3:cad>0</ns3:cad>
          </ns3:TrackPointExtension>
        </extensions>
      </trkpt>
      <trkpt lat="45.31618927605450153350830078125" lon="-70.8079055137932300567626953125">
        <ele>912.5999755859375</ele>
        <time>2026-08-21T12:50:18.000Z</time>
        <extensions>
          <ns3:TrackPointExtension>
            <ns3:hr>131</ns3:hr>
            <ns3:cad>0</ns3:cad>
          </ns3:TrackPointExtension>
        </extensions>
      </trkpt>
      <trkpt lat="45.3161739371716976165771484375" lon="-70.807906351983547210693359375">
        <ele>912.5999755859375</ele>
        <time>2026-08-21T12:50:19.000Z</time>
        <extensions>
          <ns3:TrackPointExtension>
            <ns3:hr>130</ns3:hr>
            <ns3:cad>0</ns3:cad>
          </ns3:TrackPointExtension>
        </extensions>
      </trkpt>
      <trkpt lat="45.31616111285984516143798828125" lon="-70.8079040050506591796875">
        <ele>912.79998779296875</ele>
        <time>2026-08-21T12:50:20.000Z</time>
        <extensions>
          <ns3:TrackPointExtension>
            <ns3:hr>130</ns3:hr>
            <ns3:cad>0</ns3:cad>
          </ns3:TrackPointExtension>
        </extensions>
      </trkpt>
      <trkpt lat="45.31614728271961212158203125" lon="-70.80790425650775432586669921875">
        <ele>913</ele>
        <time>2026-08-21T12:50:21.000Z</time>
        <extensions>
          <ns3:TrackPointExtension>
            <ns3:hr>130</ns3:hr>
            <ns3:cad>0</ns3:cad>
          </ns3:TrackPointExtension>
        </extensions>
      </trkpt>
      <trkpt lat="45.31613043509423732757568359375" lon="-70.80790735781192779541015625">
        <ele>913.20001220703125</ele>
        <time>2026-08-21T12:50:22.000Z</time>
        <extensions>
          <ns3:TrackPointExtension>
            <ns3:hr>130</ns3:hr>
            <ns3:cad>0</ns3:cad>
          </ns3:TrackPointExtension>
        </extensions>
      </trkpt>
      <trkpt lat="45.31611853279173374176025390625" lon="-70.80791247077286243438720703125">
        <ele>913.4000244140625</ele>
        <time>2026-08-21T12:50:23.000Z</time>
        <extensions>
          <ns3:TrackPointExtension>
            <ns3:hr>130</ns3:hr>
            <ns3:cad>0</ns3:cad>
          </ns3:TrackPointExtension>
        </extensions>
      </trkpt>
      <trkpt lat="45.316110737621784210205078125" lon="-70.80791230313479900360107421875">
        <ele>913.5999755859375</ele>
        <time>2026-08-21T12:50:24.000Z</time>
        <extensions>
          <ns3:TrackPointExtension>
            <ns3:hr>131</ns3:hr>
            <ns3:cad>48</ns3:cad>
          </ns3:TrackPointExtension>
        </extensions>
      </trkpt>
      <trkpt lat="45.31610042788088321685791015625" lon="-70.8079092018306255340576171875">
        <ele>913.79998779296875</ele>
        <time>2026-08-21T12:50:25.000Z</time>
        <extensions>
          <ns3:TrackPointExtension>
            <ns3:hr>132</ns3:hr>
            <ns3:cad>48</ns3:cad>
          </ns3:TrackPointExtension>
        </extensions>
      </trkpt>
      <trkpt lat="45.31608936376869678497314453125" lon="-70.80790911801159381866455078125">
        <ele>914</ele>
        <time>2026-08-21T12:50:26.000Z</time>
        <extensions>
          <ns3:TrackPointExtension>
            <ns3:hr>132</ns3:hr>
            <ns3:cad>0</ns3:cad>
          </ns3:TrackPointExtension>
        </extensions>
      </trkpt>
      <trkpt lat="45.3160797245800495147705078125" lon="-70.80790065228939056396484375">
        <ele>914.20001220703125</ele>
        <time>2026-08-21T12:50:27.000Z</time>
        <extensions>
          <ns3:TrackPointExtension>
            <ns3:hr>133</ns3:hr>
            <ns3:cad>0</ns3:cad>
          </ns3:TrackPointExtension>
        </extensions>
      </trkpt>
      <trkpt lat="45.316062457859516143798828125" lon="-70.80789587460458278656005859375">
        <ele>914.5999755859375</ele>
        <time>2026-08-21T12:50:28.000Z</time>
        <extensions>
          <ns3:TrackPointExtension>
            <ns3:hr>134</ns3:hr>
            <ns3:cad>0</ns3:cad>
          </ns3:TrackPointExtension>
        </extensions>
      </trkpt>
      <trkpt lat="45.31604862771928310394287109375" lon="-70.8078919351100921630859375">
        <ele>915</ele>
        <time>2026-08-21T12:50:29.000Z</time>
        <extensions>
          <ns3:TrackPointExtension>
            <ns3:hr>134</ns3:hr>
            <ns3:cad>0</ns3:cad>
          </ns3:TrackPointExtension>
        </extensions>
      </trkpt>
      <trkpt lat="45.3160331211984157562255859375" lon="-70.80788950435817241668701171875">
        <ele>915.4000244140625</ele>
        <time>2026-08-21T12:50:30.000Z</time>
        <extensions>
          <ns3:TrackPointExtension>
            <ns3:hr>135</ns3:hr>
            <ns3:cad>0</ns3:cad>
          </ns3:TrackPointExtension>
        </extensions>
      </trkpt>
      <trkpt lat="45.31601040624082088470458984375" lon="-70.8078887499868869781494140625">
        <ele>915.79998779296875</ele>
        <time>2026-08-21T12:50:31.000Z</time>
        <extensions>
          <ns3:TrackPointExtension>
            <ns3:hr>135</ns3:hr>
            <ns3:cad>0</ns3:cad>
          </ns3:TrackPointExtension>
        </extensions>
      </trkpt>
      <trkpt lat="45.31599498353898525238037109375" lon="-70.80788581632077693939208984375">
        <ele>916</ele>
        <time>2026-08-21T12:50:32.000Z</time>
        <extensions>
          <ns3:TrackPointExtension>
            <ns3:hr>136</ns3:hr>
            <ns3:cad>0</ns3:cad>
          </ns3:TrackPointExtension>
        </extensions>
      </trkpt>
      <trkpt lat="45.31597570516169071197509765625" lon="-70.80788263119757175445556640625">
        <ele>916</ele>
        <time>2026-08-21T12:50:33.000Z</time>
        <extensions>
          <ns3:TrackPointExtension>
            <ns3:hr>137</ns3:hr>
            <ns3:cad>0</ns3:cad>
          </ns3:TrackPointExtension>
        </extensions>
      </trkpt>
      <trkpt lat="45.315966568887233734130859375" lon="-70.80788187682628631591796875">
        <ele>915.79998779296875</ele>
        <time>2026-08-21T12:50:34.000Z</time>
        <extensions>
          <ns3:TrackPointExtension>
            <ns3:hr>137</ns3:hr>
            <ns3:cad>0</ns3:cad>
          </ns3:TrackPointExtension>
        </extensions>
      </trkpt>
      <trkpt lat="45.315951146185398101806640625" lon="-70.80787978135049343109130859375">
        <ele>915.79998779296875</ele>
        <time>2026-08-21T12:50:35.000Z</time>
        <extensions>
          <ns3:TrackPointExtension>
            <ns3:hr>138</ns3:hr>
            <ns3:cad>0</ns3:cad>
          </ns3:TrackPointExtension>
        </extensions>
      </trkpt>
      <trkpt lat="45.315940417349338531494140625" lon="-70.8078807033598423004150390625">
        <ele>915.5999755859375</ele>
        <time>2026-08-21T12:50:36.000Z</time>
        <extensions>
          <ns3:TrackPointExtension>
            <ns3:hr>138</ns3:hr>
            <ns3:cad>0</ns3:cad>
          </ns3:TrackPointExtension>
        </extensions>
      </trkpt>
      <trkpt lat="45.3159278444945812225341796875" lon="-70.807885564863681793212890625">
        <ele>915.4000244140625</ele>
        <time>2026-08-21T12:50:37.000Z</time>
        <extensions>
          <ns3:TrackPointExtension>
            <ns3:hr>139</ns3:hr>
            <ns3:cad>0</ns3:cad>
          </ns3:TrackPointExtension>
        </extensions>
      </trkpt>
      <trkpt lat="45.315920971333980560302734375" lon="-70.80788187682628631591796875">
        <ele>915.20001220703125</ele>
        <time>2026-08-21T12:50:38.000Z</time>
        <extensions>
          <ns3:TrackPointExtension>
            <ns3:hr>139</ns3:hr>
            <ns3:cad>0</ns3:cad>
          </ns3:TrackPointExtension>
        </extensions>
      </trkpt>
      <trkpt lat="45.31590630300343036651611328125" lon="-70.807875506579875946044921875">
        <ele>915.20001220703125</ele>
        <time>2026-08-21T12:50:39.000Z</time>
        <extensions>
          <ns3:TrackPointExtension>
            <ns3:hr>139</ns3:hr>
            <ns3:cad>0</ns3:cad>
          </ns3:TrackPointExtension>
        </extensions>
      </trkpt>
      <trkpt lat="45.31588635407388210296630859375" lon="-70.8078760094940662384033203125">
        <ele>915</ele>
        <time>2026-08-21T12:50:40.000Z</time>
        <extensions>
          <ns3:TrackPointExtension>
            <ns3:hr>139</ns3:hr>
            <ns3:cad>0</ns3:cad>
          </ns3:TrackPointExtension>
        </extensions>
      </trkpt>
      <trkpt lat="45.31587193720042705535888671875" lon="-70.8078750036656856536865234375">
        <ele>914.5999755859375</ele>
        <time>2026-08-21T12:50:41.000Z</time>
        <extensions>
          <ns3:TrackPointExtension>
            <ns3:hr>140</ns3:hr>
            <ns3:cad>0</ns3:cad>
          </ns3:TrackPointExtension>
        </extensions>
      </trkpt>
      <trkpt lat="45.3158577717840671539306640625" lon="-70.807875506579875946044921875">
        <ele>914.4000244140625</ele>
        <time>2026-08-21T12:50:42.000Z</time>
        <extensions>
          <ns3:TrackPointExtension>
            <ns3:hr>140</ns3:hr>
            <ns3:cad>0</ns3:cad>
          </ns3:TrackPointExtension>
        </extensions>
      </trkpt>
      <trkpt lat="45.3158389963209629058837890625" lon="-70.80787206999957561492919921875">
        <ele>914</ele>
        <time>2026-08-21T12:50:43.000Z</time>
        <extensions>
          <ns3:TrackPointExtension>
            <ns3:hr>140</ns3:hr>
            <ns3:cad>0</ns3:cad>
          </ns3:TrackPointExtension>
        </extensions>
      </trkpt>
      <trkpt lat="45.31582114286720752716064453125" lon="-70.8078696392476558685302734375">
        <ele>913.79998779296875</ele>
        <time>2026-08-21T12:50:44.000Z</time>
        <extensions>
          <ns3:TrackPointExtension>
            <ns3:hr>140</ns3:hr>
            <ns3:cad>0</ns3:cad>
          </ns3:TrackPointExtension>
        </extensions>
      </trkpt>
      <trkpt lat="45.315805971622467041015625" lon="-70.8078706450760364532470703125">
        <ele>913.5999755859375</ele>
        <time>2026-08-21T12:50:45.000Z</time>
        <extensions>
          <ns3:TrackPointExtension>
            <ns3:hr>140</ns3:hr>
            <ns3:cad>0</ns3:cad>
          </ns3:TrackPointExtension>
        </extensions>
      </trkpt>
      <trkpt lat="45.31579264439642429351806640625" lon="-70.807871483266353607177734375">
        <ele>913.5999755859375</ele>
        <time>2026-08-21T12:50:46.000Z</time>
        <extensions>
          <ns3:TrackPointExtension>
            <ns3:hr>140</ns3:hr>
            <ns3:cad>0</ns3:cad>
          </ns3:TrackPointExtension>
        </extensions>
      </trkpt>
      <trkpt lat="45.31578325666487216949462890625" lon="-70.80786569975316524505615234375">
        <ele>913.5999755859375</ele>
        <time>2026-08-21T12:50:47.000Z</time>
        <extensions>
          <ns3:TrackPointExtension>
            <ns3:hr>140</ns3:hr>
            <ns3:cad>0</ns3:cad>
          </ns3:TrackPointExtension>
        </extensions>
      </trkpt>
      <trkpt lat="45.31577588059008121490478515625" lon="-70.80785513855516910552978515625">
        <ele>913.5999755859375</ele>
        <time>2026-08-21T12:50:48.000Z</time>
        <extensions>
          <ns3:TrackPointExtension>
            <ns3:hr>140</ns3:hr>
            <ns3:cad>0</ns3:cad>
          </ns3:TrackPointExtension>
        </extensions>
      </trkpt>
      <trkpt lat="45.31575945205986499786376953125" lon="-70.80785262398421764373779296875">
        <ele>913.5999755859375</ele>
        <time>2026-08-21T12:50:49.000Z</time>
        <extensions>
          <ns3:TrackPointExtension>
            <ns3:hr>139</ns3:hr>
            <ns3:cad>0</ns3:cad>
          </ns3:TrackPointExtension>
        </extensions>
      </trkpt>
      <trkpt lat="45.3157437779009342193603515625" lon="-70.8078491874039173126220703125">
        <ele>913.5999755859375</ele>
        <time>2026-08-21T12:50:50.000Z</time>
        <extensions>
          <ns3:TrackPointExtension>
            <ns3:hr>139</ns3:hr>
            <ns3:cad>0</ns3:cad>
          </ns3:TrackPointExtension>
        </extensions>
      </trkpt>
      <trkpt lat="45.31573145650327205657958984375" lon="-70.8078438229858875274658203125">
        <ele>913.5999755859375</ele>
        <time>2026-08-21T12:50:51.000Z</time>
        <extensions>
          <ns3:TrackPointExtension>
            <ns3:hr>138</ns3:hr>
            <ns3:cad>0</ns3:cad>
          </ns3:TrackPointExtension>
        </extensions>
      </trkpt>
      <trkpt lat="45.31571201048791408538818359375" lon="-70.80783837474882602691650390625">
        <ele>913.79998779296875</ele>
        <time>2026-08-21T12:50:52.000Z</time>
        <extensions>
          <ns3:TrackPointExtension>
            <ns3:hr>137</ns3:hr>
            <ns3:cad>0</ns3:cad>
          </ns3:TrackPointExtension>
        </extensions>
      </trkpt>
      <trkpt lat="45.31569667160511016845703125" lon="-70.807838626205921173095703125">
        <ele>914</ele>
        <time>2026-08-21T12:50:53.000Z</time>
        <extensions>
          <ns3:TrackPointExtension>
            <ns3:hr>137</ns3:hr>
            <ns3:cad>0</ns3:cad>
          </ns3:TrackPointExtension>
        </extensions>
      </trkpt>
      <trkpt lat="45.3156834281980991363525390625" lon="-70.80783686600625514984130859375">
        <ele>914</ele>
        <time>2026-08-21T12:50:54.000Z</time>
        <extensions>
          <ns3:TrackPointExtension>
            <ns3:hr>136</ns3:hr>
            <ns3:cad>0</ns3:cad>
          </ns3:TrackPointExtension>
        </extensions>
      </trkpt>
      <trkpt lat="45.3156716935336589813232421875" lon="-70.80783887766301631927490234375">
        <ele>914.20001220703125</ele>
        <time>2026-08-21T12:50:55.000Z</time>
        <extensions>
          <ns3:TrackPointExtension>
            <ns3:hr>135</ns3:hr>
            <ns3:cad>55</ns3:cad>
          </ns3:TrackPointExtension>
        </extensions>
      </trkpt>
      <trkpt lat="45.3156592883169651031494140625" lon="-70.80784189514815807342529296875">
        <ele>914.4000244140625</ele>
        <time>2026-08-21T12:50:56.000Z</time>
        <extensions>
          <ns3:TrackPointExtension>
            <ns3:hr>135</ns3:hr>
            <ns3:cad>55</ns3:cad>
          </ns3:TrackPointExtension>
        </extensions>
      </trkpt>
      <trkpt lat="45.3156495653092861175537109375" lon="-70.80784524790942668914794921875">
        <ele>914.79998779296875</ele>
        <time>2026-08-21T12:50:57.000Z</time>
        <extensions>
          <ns3:TrackPointExtension>
            <ns3:hr>135</ns3:hr>
            <ns3:cad>53</ns3:cad>
          </ns3:TrackPointExtension>
        </extensions>
      </trkpt>
      <trkpt lat="45.31563271768391132354736328125" lon="-70.8078525401651859283447265625">
        <ele>915</ele>
        <time>2026-08-21T12:50:58.000Z</time>
        <extensions>
          <ns3:TrackPointExtension>
            <ns3:hr>135</ns3:hr>
            <ns3:cad>53</ns3:cad>
          </ns3:TrackPointExtension>
        </extensions>
      </trkpt>
      <trkpt lat="45.315623916685581207275390625" lon="-70.80785916186869144439697265625">
        <ele>915.4000244140625</ele>
        <time>2026-08-21T12:50:59.000Z</time>
        <extensions>
          <ns3:TrackPointExtension>
            <ns3:hr>136</ns3:hr>
            <ns3:cad>53</ns3:cad>
          </ns3:TrackPointExtension>
        </extensions>
      </trkpt>
      <trkpt lat="45.31561628915369510650634765625" lon="-70.80786318518221378326416015625">
        <ele>915.5999755859375</ele>
        <time>2026-08-21T12:51:00.000Z</time>
        <extensions>
          <ns3:TrackPointExtension>
            <ns3:hr>135</ns3:hr>
            <ns3:cad>53</ns3:cad>
          </ns3:TrackPointExtension>
        </extensions>
      </trkpt>
      <trkpt lat="45.31560958363115787506103515625" lon="-70.80786670558154582977294921875">
        <ele>916</ele>
        <time>2026-08-21T12:51:01.000Z</time>
        <extensions>
          <ns3:TrackPointExtension>
            <ns3:hr>135</ns3:hr>
            <ns3:cad>53</ns3:cad>
          </ns3:TrackPointExtension>
        </extensions>
      </trkpt>
      <trkpt lat="45.3155932389199733734130859375" lon="-70.80787022598087787628173828125">
        <ele>916.20001220703125</ele>
        <time>2026-08-21T12:51:02.000Z</time>
        <extensions>
          <ns3:TrackPointExtension>
            <ns3:hr>135</ns3:hr>
            <ns3:cad>51</ns3:cad>
          </ns3:TrackPointExtension>
        </extensions>
      </trkpt>
      <trkpt lat="45.315582342445850372314453125" lon="-70.80787374638020992279052734375">
        <ele>916.5999755859375</ele>
        <time>2026-08-21T12:51:03.000Z</time>
        <extensions>
          <ns3:TrackPointExtension>
            <ns3:hr>136</ns3:hr>
            <ns3:cad>51</ns3:cad>
          </ns3:TrackPointExtension>
        </extensions>
      </trkpt>
      <trkpt lat="45.3155761398375034332275390625" lon="-70.80787173472344875335693359375">
        <ele>916.79998779296875</ele>
        <time>2026-08-21T12:51:04.000Z</time>
        <extensions>
          <ns3:TrackPointExtension>
            <ns3:hr>136</ns3:hr>
            <ns3:cad>51</ns3:cad>
          </ns3:TrackPointExtension>
        </extensions>
      </trkpt>
      <trkpt lat="45.3155657462775707244873046875" lon="-70.80787156708538532257080078125">
        <ele>917.20001220703125</ele>
        <time>2026-08-21T12:51:05.000Z</time>
        <extensions>
          <ns3:TrackPointExtension>
            <ns3:hr>136</ns3:hr>
            <ns3:cad>51</ns3:cad>
          </ns3:TrackPointExtension>
        </extensions>
      </trkpt>
      <trkpt lat="45.31555795110762119293212890625" lon="-70.8078760094940662384033203125">
        <ele>917.4000244140625</ele>
        <time>2026-08-21T12:51:06.000Z</time>
        <extensions>
          <ns3:TrackPointExtension>
            <ns3:hr>137</ns3:hr>
            <ns3:cad>51</ns3:cad>
          </ns3:TrackPointExtension>
        </extensions>
      </trkpt>
      <trkpt lat="45.3155498206615447998046875" lon="-70.8078770153224468231201171875">
        <ele>917.79998779296875</ele>
        <time>2026-08-21T12:51:07.000Z</time>
        <extensions>
          <ns3:TrackPointExtension>
            <ns3:hr>138</ns3:hr>
            <ns3:cad>48</ns3:cad>
          </ns3:TrackPointExtension>
        </extensions>
      </trkpt>
      <trkpt lat="45.31554454006254673004150390625" lon="-70.80787877552211284637451171875">
        <ele>918</ele>
        <time>2026-08-21T12:51:08.000Z</time>
        <extensions>
          <ns3:TrackPointExtension>
            <ns3:hr>138</ns3:hr>
            <ns3:cad>48</ns3:cad>
          </ns3:TrackPointExtension>
        </extensions>
      </trkpt>
      <trkpt lat="45.31553230248391628265380859375" lon="-70.8078813739120960235595703125">
        <ele>918.4000244140625</ele>
        <time>2026-08-21T12:51:09.000Z</time>
        <extensions>
          <ns3:TrackPointExtension>
            <ns3:hr>139</ns3:hr>
            <ns3:cad>48</ns3:cad>
          </ns3:TrackPointExtension>
        </extensions>
      </trkpt>
      <trkpt lat="45.3155181370675563812255859375" lon="-70.8078850619494915008544921875">
        <ele>918.79998779296875</ele>
        <time>2026-08-21T12:51:10.000Z</time>
        <extensions>
          <ns3:TrackPointExtension>
            <ns3:hr>140</ns3:hr>
            <ns3:cad>48</ns3:cad>
          </ns3:TrackPointExtension>
        </extensions>
      </trkpt>
      <trkpt lat="45.315506570041179656982421875" lon="-70.807885229587554931640625">
        <ele>919</ele>
        <time>2026-08-21T12:51:11.000Z</time>
        <extensions>
          <ns3:TrackPointExtension>
            <ns3:hr>140</ns3:hr>
            <ns3:cad>48</ns3:cad>
          </ns3:TrackPointExtension>
        </extensions>
      </trkpt>
      <trkpt lat="45.3154970146715641021728515625" lon="-70.807884894311428070068359375">
        <ele>919.20001220703125</ele>
        <time>2026-08-21T12:51:12.000Z</time>
        <extensions>
          <ns3:TrackPointExtension>
            <ns3:hr>141</ns3:hr>
            <ns3:cad>50</ns3:cad>
          </ns3:TrackPointExtension>
        </extensions>
      </trkpt>
      <trkpt lat="45.31548737548291683197021484375" lon="-70.8078796975314617156982421875">
        <ele>919.20001220703125</ele>
        <time>2026-08-21T12:51:13.000Z</time>
        <extensions>
          <ns3:TrackPointExtension>
            <ns3:hr>142</ns3:hr>
            <ns3:cad>50</ns3:cad>
          </ns3:TrackPointExtension>
        </extensions>
      </trkpt>
      <trkpt lat="45.3154800832271575927734375" lon="-70.80787491984665393829345703125">
        <ele>919.4000244140625</ele>
        <time>2026-08-21T12:51:14.000Z</time>
        <extensions>
          <ns3:TrackPointExtension>
            <ns3:hr>143</ns3:hr>
            <ns3:cad>50</ns3:cad>
          </ns3:TrackPointExtension>
        </extensions>
      </trkpt>
      <trkpt lat="45.31546826474368572235107421875" lon="-70.8078716509044170379638671875">
        <ele>919.5999755859375</ele>
        <time>2026-08-21T12:51:15.000Z</time>
        <extensions>
          <ns3:TrackPointExtension>
            <ns3:hr>143</ns3:hr>
            <ns3:cad>50</ns3:cad>
          </ns3:TrackPointExtension>
        </extensions>
      </trkpt>
      <trkpt lat="45.31545527279376983642578125" lon="-70.8078677952289581298828125">
        <ele>919.79998779296875</ele>
        <time>2026-08-21T12:51:16.000Z</time>
        <extensions>
          <ns3:TrackPointExtension>
            <ns3:hr>144</ns3:hr>
            <ns3:cad>51</ns3:cad>
          </ns3:TrackPointExtension>
        </extensions>
      </trkpt>
      <trkpt lat="45.315444879233837127685546875" lon="-70.8078595809638500213623046875">
        <ele>920</ele>
        <time>2026-08-21T12:51:17.000Z</time>
        <extensions>
          <ns3:TrackPointExtension>
            <ns3:hr>144</ns3:hr>
            <ns3:cad>52</ns3:cad>
          </ns3:TrackPointExtension>
        </extensions>
      </trkpt>
      <trkpt lat="45.31543456949293613433837890625" lon="-70.8078592456877231597900390625">
        <ele>920.20001220703125</ele>
        <time>2026-08-21T12:51:18.000Z</time>
        <extensions>
          <ns3:TrackPointExtension>
            <ns3:hr>144</ns3:hr>
            <ns3:cad>52</ns3:cad>
          </ns3:TrackPointExtension>
        </extensions>
      </trkpt>
      <trkpt lat="45.315420739352703094482421875" lon="-70.807861424982547760009765625">
        <ele>920.4000244140625</ele>
        <time>2026-08-21T12:51:19.000Z</time>
        <extensions>
          <ns3:TrackPointExtension>
            <ns3:hr>145</ns3:hr>
            <ns3:cad>52</ns3:cad>
          </ns3:TrackPointExtension>
        </extensions>
      </trkpt>
      <trkpt lat="45.31540825031697750091552734375" lon="-70.807863436639308929443359375">
        <ele>920.5999755859375</ele>
        <time>2026-08-21T12:51:20.000Z</time>
        <extensions>
          <ns3:TrackPointExtension>
            <ns3:hr>145</ns3:hr>
            <ns3:cad>52</ns3:cad>
          </ns3:TrackPointExtension>
        </extensions>
      </trkpt>
      <trkpt lat="45.31539634801447391510009765625" lon="-70.80786989070475101470947265625">
        <ele>920.4000244140625</ele>
        <time>2026-08-21T12:51:21.000Z</time>
        <extensions>
          <ns3:TrackPointExtension>
            <ns3:hr>146</ns3:hr>
            <ns3:cad>52</ns3:cad>
          </ns3:TrackPointExtension>
        </extensions>
      </trkpt>
      <trkpt lat="45.31538394279778003692626953125" lon="-70.80787642858922481536865234375">
        <ele>920.4000244140625</ele>
        <time>2026-08-21T12:51:22.000Z</time>
        <extensions>
          <ns3:TrackPointExtension>
            <ns3:hr>146</ns3:hr>
            <ns3:cad>52</ns3:cad>
          </ns3:TrackPointExtension>
        </extensions>
      </trkpt>
      <trkpt lat="45.315371789038181304931640625" lon="-70.80788229592144489288330078125">
        <ele>920.20001220703125</ele>
        <time>2026-08-21T12:51:23.000Z</time>
        <extensions>
          <ns3:TrackPointExtension>
            <ns3:hr>146</ns3:hr>
            <ns3:cad>52</ns3:cad>
          </ns3:TrackPointExtension>
        </extensions>
      </trkpt>
      <trkpt lat="45.31535737216472625732421875" lon="-70.8078880794346332550048828125">
        <ele>920</ele>
        <time>2026-08-21T12:51:24.000Z</time>
        <extensions>
          <ns3:TrackPointExtension>
            <ns3:hr>146</ns3:hr>
            <ns3:cad>52</ns3:cad>
          </ns3:TrackPointExtension>
        </extensions>
      </trkpt>
      <trkpt lat="45.31534136272966861724853515625" lon="-70.80789268948137760162353515625">
        <ele>919.79998779296875</ele>
        <time>2026-08-21T12:51:25.000Z</time>
        <extensions>
          <ns3:TrackPointExtension>
            <ns3:hr>145</ns3:hr>
            <ns3:cad>52</ns3:cad>
          </ns3:TrackPointExtension>
        </extensions>
      </trkpt>
      <trkpt lat="45.31532652676105499267578125" lon="-70.8078981377184391021728515625">
        <ele>919.4000244140625</ele>
        <time>2026-08-21T12:51:26.000Z</time>
        <extensions>
          <ns3:TrackPointExtension>
            <ns3:hr>145</ns3:hr>
            <ns3:cad>52</ns3:cad>
          </ns3:TrackPointExtension>
        </extensions>
      </trkpt>
      <trkpt lat="45.31531353481113910675048828125" lon="-70.80790291540324687957763671875">
        <ele>919.4000244140625</ele>
        <time>2026-08-21T12:51:27.000Z</time>
        <extensions>
          <ns3:TrackPointExtension>
            <ns3:hr>145</ns3:hr>
            <ns3:cad>52</ns3:cad>
          </ns3:TrackPointExtension>
        </extensions>
      </trkpt>
      <trkpt lat="45.31529744155704975128173828125" lon="-70.8079071901738643646240234375">
        <ele>919.4000244140625</ele>
        <time>2026-08-21T12:51:28.000Z</time>
        <extensions>
          <ns3:TrackPointExtension>
            <ns3:hr>145</ns3:hr>
            <ns3:cad>52</ns3:cad>
          </ns3:TrackPointExtension>
        </extensions>
      </trkpt>
      <trkpt lat="45.3152834437787532806396484375" lon="-70.8079159073531627655029296875">
        <ele>919.4000244140625</ele>
        <time>2026-08-21T12:51:29.000Z</time>
        <extensions>
          <ns3:TrackPointExtension>
            <ns3:hr>146</ns3:hr>
            <ns3:cad>52</ns3:cad>
          </ns3:TrackPointExtension>
        </extensions>
      </trkpt>
      <trkpt lat="45.315272547304630279541015625" lon="-70.80792018212378025054931640625">
        <ele>919.4000244140625</ele>
        <time>2026-08-21T12:51:30.000Z</time>
        <extensions>
          <ns3:TrackPointExtension>
            <ns3:hr>146</ns3:hr>
            <ns3:cad>52</ns3:cad>
          </ns3:TrackPointExtension>
        </extensions>
      </trkpt>
      <trkpt lat="45.3152572922408580780029296875" lon="-70.80791749991476535797119140625">
        <ele>919.5999755859375</ele>
        <time>2026-08-21T12:51:31.000Z</time>
        <extensions>
          <ns3:TrackPointExtension>
            <ns3:hr>146</ns3:hr>
            <ns3:cad>61</ns3:cad>
          </ns3:TrackPointExtension>
        </extensions>
      </trkpt>
      <trkpt lat="45.315243043005466461181640625" lon="-70.8079209364950656890869140625">
        <ele>919.5999755859375</ele>
        <time>2026-08-21T12:51:32.000Z</time>
        <extensions>
          <ns3:TrackPointExtension>
            <ns3:hr>147</ns3:hr>
            <ns3:cad>61</ns3:cad>
          </ns3:TrackPointExtension>
        </extensions>
      </trkpt>
      <trkpt lat="45.31523038633167743682861328125" lon="-70.80792521126568317413330078125">
        <ele>919.5999755859375</ele>
        <time>2026-08-21T12:51:33.000Z</time>
        <extensions>
          <ns3:TrackPointExtension>
            <ns3:hr>148</ns3:hr>
            <ns3:cad>55</ns3:cad>
          </ns3:TrackPointExtension>
        </extensions>
      </trkpt>
      <trkpt lat="45.31522083096206188201904296875" lon="-70.807923115789890289306640625">
        <ele>919.5999755859375</ele>
        <time>2026-08-21T12:51:34.000Z</time>
        <extensions>
          <ns3:TrackPointExtension>
            <ns3:hr>147</ns3:hr>
            <ns3:cad>55</ns3:cad>
          </ns3:TrackPointExtension>
        </extensions>
      </trkpt>
      <trkpt lat="45.31521110795438289642333984375" lon="-70.8079189248383045196533203125">
        <ele>919.5999755859375</ele>
        <time>2026-08-21T12:51:35.000Z</time>
        <extensions>
          <ns3:TrackPointExtension>
            <ns3:hr>147</ns3:hr>
            <ns3:cad>55</ns3:cad>
          </ns3:TrackPointExtension>
        </extensions>
      </trkpt>
      <trkpt lat="45.31519501470029354095458984375" lon="-70.807921104133129119873046875">
        <ele>919.79998779296875</ele>
        <time>2026-08-21T12:51:36.000Z</time>
        <extensions>
          <ns3:TrackPointExtension>
            <ns3:hr>146</ns3:hr>
            <ns3:cad>52</ns3:cad>
          </ns3:TrackPointExtension>
        </extensions>
      </trkpt>
      <trkpt lat="45.31518277712166309356689453125" lon="-70.807920433580875396728515625">
        <ele>920</ele>
        <time>2026-08-21T12:51:37.000Z</time>
        <extensions>
          <ns3:TrackPointExtension>
            <ns3:hr>146</ns3:hr>
            <ns3:cad>52</ns3:cad>
          </ns3:TrackPointExtension>
        </extensions>
      </trkpt>
      <trkpt lat="45.3151689469814300537109375" lon="-70.8079175837337970733642578125">
        <ele>920</ele>
        <time>2026-08-21T12:51:38.000Z</time>
        <extensions>
          <ns3:TrackPointExtension>
            <ns3:hr>147</ns3:hr>
            <ns3:cad>52</ns3:cad>
          </ns3:TrackPointExtension>
        </extensions>
      </trkpt>
      <trkpt lat="45.315157212316989898681640625" lon="-70.8079199306666851043701171875">
        <ele>920.20001220703125</ele>
        <time>2026-08-21T12:51:39.000Z</time>
        <extensions>
          <ns3:TrackPointExtension>
            <ns3:hr>146</ns3:hr>
            <ns3:cad>52</ns3:cad>
          </ns3:TrackPointExtension>
        </extensions>
      </trkpt>
      <trkpt lat="45.3151436336338520050048828125" lon="-70.80792001448571681976318359375">
        <ele>920.4000244140625</ele>
        <time>2026-08-21T12:51:40.000Z</time>
        <extensions>
          <ns3:TrackPointExtension>
            <ns3:hr>146</ns3:hr>
            <ns3:cad>52</ns3:cad>
          </ns3:TrackPointExtension>
        </extensions>
      </trkpt>
      <trkpt lat="45.3151315636932849884033203125" lon="-70.80792185850441455841064453125">
        <ele>920.4000244140625</ele>
        <time>2026-08-21T12:51:41.000Z</time>
        <extensions>
          <ns3:TrackPointExtension>
            <ns3:hr>146</ns3:hr>
            <ns3:cad>52</ns3:cad>
          </ns3:TrackPointExtension>
        </extensions>
      </trkpt>
      <trkpt lat="45.31511999666690826416015625" lon="-70.80792336724698543548583984375">
        <ele>920.5999755859375</ele>
        <time>2026-08-21T12:51:42.000Z</time>
        <extensions>
          <ns3:TrackPointExtension>
            <ns3:hr>146</ns3:hr>
            <ns3:cad>52</ns3:cad>
          </ns3:TrackPointExtension>
        </extensions>
      </trkpt>
      <trkpt lat="45.31511337496340274810791015625" lon="-70.80792252905666828155517578125">
        <ele>920.5999755859375</ele>
        <time>2026-08-21T12:51:43.000Z</time>
        <extensions>
          <ns3:TrackPointExtension>
            <ns3:hr>146</ns3:hr>
            <ns3:cad>49</ns3:cad>
          </ns3:TrackPointExtension>
        </extensions>
      </trkpt>
      <trkpt lat="45.31510381959378719329833984375" lon="-70.8079254627227783203125">
        <ele>920.79998779296875</ele>
        <time>2026-08-21T12:51:44.000Z</time>
        <extensions>
          <ns3:TrackPointExtension>
            <ns3:hr>145</ns3:hr>
            <ns3:cad>49</ns3:cad>
          </ns3:TrackPointExtension>
        </extensions>
      </trkpt>
      <trkpt lat="45.3150930069386959075927734375" lon="-70.80792856402695178985595703125">
        <ele>921</ele>
        <time>2026-08-21T12:51:45.000Z</time>
        <extensions>
          <ns3:TrackPointExtension>
            <ns3:hr>145</ns3:hr>
            <ns3:cad>50</ns3:cad>
          </ns3:TrackPointExtension>
        </extensions>
      </trkpt>
      <trkpt lat="45.3150829486548900604248046875" lon="-70.80793342553079128265380859375">
        <ele>921.20001220703125</ele>
        <time>2026-08-21T12:51:46.000Z</time>
        <extensions>
          <ns3:TrackPointExtension>
            <ns3:hr>144</ns3:hr>
            <ns3:cad>50</ns3:cad>
          </ns3:TrackPointExtension>
        </extensions>
      </trkpt>
      <trkpt lat="45.31507532112300395965576171875" lon="-70.807935856282711029052734375">
        <ele>921.4000244140625</ele>
        <time>2026-08-21T12:51:47.000Z</time>
        <extensions>
          <ns3:TrackPointExtension>
            <ns3:hr>144</ns3:hr>
            <ns3:cad>50</ns3:cad>
          </ns3:TrackPointExtension>
        </extensions>
      </trkpt>
      <trkpt lat="45.3150668554008007049560546875" lon="-70.807939209043979644775390625">
        <ele>921.79998779296875</ele>
        <time>2026-08-21T12:51:48.000Z</time>
        <extensions>
          <ns3:TrackPointExtension>
            <ns3:hr>144</ns3:hr>
            <ns3:cad>50</ns3:cad>
          </ns3:TrackPointExtension>
        </extensions>
      </trkpt>
      <trkpt lat="45.31506207771599292755126953125" lon="-70.80794381909072399139404296875">
        <ele>922</ele>
        <time>2026-08-21T12:51:49.000Z</time>
        <extensions>
          <ns3:TrackPointExtension>
            <ns3:hr>143</ns3:hr>
            <ns3:cad>50</ns3:cad>
          </ns3:TrackPointExtension>
        </extensions>
      </trkpt>
      <trkpt lat="45.31504715792834758758544921875" lon="-70.80795186571776866912841796875">
        <ele>922.20001220703125</ele>
        <time>2026-08-21T12:51:50.000Z</time>
        <extensions>
          <ns3:TrackPointExtension>
            <ns3:hr>143</ns3:hr>
            <ns3:cad>50</ns3:cad>
          </ns3:TrackPointExtension>
        </extensions>
      </trkpt>
      <trkpt lat="45.3150321543216705322265625" lon="-70.80795370973646640777587890625">
        <ele>922.4000244140625</ele>
        <time>2026-08-21T12:51:51.000Z</time>
        <extensions>
          <ns3:TrackPointExtension>
            <ns3:hr>143</ns3:hr>
            <ns3:cad>50</ns3:cad>
          </ns3:TrackPointExtension>
        </extensions>
      </trkpt>
      <trkpt lat="45.315021760761737823486328125" lon="-70.80795639194548130035400390625">
        <ele>922.79998779296875</ele>
        <time>2026-08-21T12:51:52.000Z</time>
        <extensions>
          <ns3:TrackPointExtension>
            <ns3:hr>143</ns3:hr>
            <ns3:cad>50</ns3:cad>
          </ns3:TrackPointExtension>
        </extensions>
      </trkpt>
      <trkpt lat="45.315017066895961761474609375" lon="-70.80795672722160816192626953125">
        <ele>923</ele>
        <time>2026-08-21T12:51:53.000Z</time>
        <extensions>
          <ns3:TrackPointExtension>
            <ns3:hr>143</ns3:hr>
            <ns3:cad>50</ns3:cad>
          </ns3:TrackPointExtension>
        </extensions>
      </trkpt>
      <trkpt lat="45.31501161865890026092529296875" lon="-70.8079581521451473236083984375">
        <ele>923.20001220703125</ele>
        <time>2026-08-21T12:51:54.000Z</time>
        <extensions>
          <ns3:TrackPointExtension>
            <ns3:hr>143</ns3:hr>
            <ns3:cad>50</ns3:cad>
          </ns3:TrackPointExtension>
        </extensions>
      </trkpt>
      <trkpt lat="45.31500441022217273712158203125" lon="-70.80796024762094020843505859375">
        <ele>923.5999755859375</ele>
        <time>2026-08-21T12:51:55.000Z</time>
        <extensions>
          <ns3:TrackPointExtension>
            <ns3:hr>143</ns3:hr>
            <ns3:cad>0</ns3:cad>
          </ns3:TrackPointExtension>
        </extensions>
      </trkpt>
      <trkpt lat="45.31499502249062061309814453125" lon="-70.8079618401825428009033203125">
        <ele>923.79998779296875</ele>
        <time>2026-08-21T12:51:56.000Z</time>
        <extensions>
          <ns3:TrackPointExtension>
            <ns3:hr>142</ns3:hr>
            <ns3:cad>0</ns3:cad>
          </ns3:TrackPointExtension>
        </extensions>
      </trkpt>
      <trkpt lat="45.31499016098678112030029296875" lon="-70.8079625107347965240478515625">
        <ele>924</ele>
        <time>2026-08-21T12:51:57.000Z</time>
        <extensions>
          <ns3:TrackPointExtension>
            <ns3:hr>142</ns3:hr>
            <ns3:cad>48</ns3:cad>
          </ns3:TrackPointExtension>
        </extensions>
      </trkpt>
      <trkpt lat="45.31498320400714874267578125" lon="-70.8079631812870502471923828125">
        <ele>924.20001220703125</ele>
        <time>2026-08-21T12:51:58.000Z</time>
        <extensions>
          <ns3:TrackPointExtension>
            <ns3:hr>143</ns3:hr>
            <ns3:cad>48</ns3:cad>
          </ns3:TrackPointExtension>
        </extensions>
      </trkpt>
      <trkpt lat="45.31498094089329242706298828125" lon="-70.8079661987721920013427734375">
        <ele>924.5999755859375</ele>
        <time>2026-08-21T12:51:59.000Z</time>
        <extensions>
          <ns3:TrackPointExtension>
            <ns3:hr>144</ns3:hr>
            <ns3:cad>48</ns3:cad>
          </ns3:TrackPointExtension>
        </extensions>
      </trkpt>
      <trkpt lat="45.31497071497142314910888671875" lon="-70.80796762369573116302490234375">
        <ele>924.79998779296875</ele>
        <time>2026-08-21T12:52:00.000Z</time>
        <extensions>
          <ns3:TrackPointExtension>
            <ns3:hr>144</ns3:hr>
            <ns3:cad>0</ns3:cad>
          </ns3:TrackPointExtension>
        </extensions>
      </trkpt>
      <trkpt lat="45.314966104924678802490234375" lon="-70.80796980299055576324462890625">
        <ele>925</ele>
        <time>2026-08-21T12:52:01.000Z</time>
        <extensions>
          <ns3:TrackPointExtension>
            <ns3:hr>144</ns3:hr>
            <ns3:cad>0</ns3:cad>
          </ns3:TrackPointExtension>
        </extensions>
      </trkpt>
      <trkpt lat="45.3149629198014736175537109375" lon="-70.80797080881893634796142578125">
        <ele>925.20001220703125</ele>
        <time>2026-08-21T12:52:02.000Z</time>
        <extensions>
          <ns3:TrackPointExtension>
            <ns3:hr>144</ns3:hr>
            <ns3:cad>0</ns3:cad>
          </ns3:TrackPointExtension>
        </extensions>
      </trkpt>
      <trkpt lat="45.3149568848311901092529296875" lon="-70.80797282047569751739501953125">
        <ele>925.5999755859375</ele>
        <time>2026-08-21T12:52:03.000Z</time>
        <extensions>
          <ns3:TrackPointExtension>
            <ns3:hr>143</ns3:hr>
            <ns3:cad>0</ns3:cad>
          </ns3:TrackPointExtension>
        </extensions>
      </trkpt>
      <trkpt lat="45.31495143659412860870361328125" lon="-70.80797634087502956390380859375">
        <ele>925.79998779296875</ele>
        <time>2026-08-21T12:52:04.000Z</time>
        <extensions>
          <ns3:TrackPointExtension>
            <ns3:hr>143</ns3:hr>
            <ns3:cad>0</ns3:cad>
          </ns3:TrackPointExtension>
        </extensions>
      </trkpt>
      <trkpt lat="45.3149449825286865234375" lon="-70.80797349102795124053955078125">
        <ele>926</ele>
        <time>2026-08-21T12:52:05.000Z</time>
        <extensions>
          <ns3:TrackPointExtension>
            <ns3:hr>144</ns3:hr>
            <ns3:cad>0</ns3:cad>
          </ns3:TrackPointExtension>
        </extensions>
      </trkpt>
      <trkpt lat="45.314936935901641845703125" lon="-70.80797432921826839447021484375">
        <ele>926.20001220703125</ele>
        <time>2026-08-21T12:52:06.000Z</time>
        <extensions>
          <ns3:TrackPointExtension>
            <ns3:hr>144</ns3:hr>
            <ns3:cad>0</ns3:cad>
          </ns3:TrackPointExtension>
        </extensions>
      </trkpt>
      <trkpt lat="45.3149243630468845367431640625" lon="-70.807977430522441864013671875">
        <ele>926.5999755859375</ele>
        <time>2026-08-21T12:52:07.000Z</time>
        <extensions>
          <ns3:TrackPointExtension>
            <ns3:hr>145</ns3:hr>
            <ns3:cad>0</ns3:cad>
          </ns3:TrackPointExtension>
        </extensions>
      </trkpt>
      <trkpt lat="45.314914472401142120361328125" lon="-70.80797784961760044097900390625">
        <ele>926.79998779296875</ele>
        <time>2026-08-21T12:52:08.000Z</time>
        <extensions>
          <ns3:TrackPointExtension>
            <ns3:hr>145</ns3:hr>
            <ns3:cad>0</ns3:cad>
          </ns3:TrackPointExtension>
        </extensions>
      </trkpt>
      <trkpt lat="45.314904749393463134765625" lon="-70.80797835253179073333740234375">
        <ele>927</ele>
        <time>2026-08-21T12:52:09.000Z</time>
        <extensions>
          <ns3:TrackPointExtension>
            <ns3:hr>145</ns3:hr>
            <ns3:cad>0</ns3:cad>
          </ns3:TrackPointExtension>
        </extensions>
      </trkpt>
      <trkpt lat="45.31489075161516666412353515625" lon="-70.80798354931175708770751953125">
        <ele>927.20001220703125</ele>
        <time>2026-08-21T12:52:10.000Z</time>
        <extensions>
          <ns3:TrackPointExtension>
            <ns3:hr>145</ns3:hr>
            <ns3:cad>0</ns3:cad>
          </ns3:TrackPointExtension>
        </extensions>
      </trkpt>
      <trkpt lat="45.31488002277910709381103515625" lon="-70.80799226649105548858642578125">
        <ele>927.4000244140625</ele>
        <time>2026-08-21T12:52:11.000Z</time>
        <extensions>
          <ns3:TrackPointExtension>
            <ns3:hr>144</ns3:hr>
            <ns3:cad>0</ns3:cad>
          </ns3:TrackPointExtension>
        </extensions>
      </trkpt>
      <trkpt lat="45.31486786901950836181640625" lon="-70.8079980500042438507080078125">
        <ele>927.5999755859375</ele>
        <time>2026-08-21T12:52:12.000Z</time>
        <extensions>
          <ns3:TrackPointExtension>
            <ns3:hr>145</ns3:hr>
            <ns3:cad>50</ns3:cad>
          </ns3:TrackPointExtension>
        </extensions>
      </trkpt>
      <trkpt lat="45.31485521234571933746337890625" lon="-70.8080030791461467742919921875">
        <ele>927.79998779296875</ele>
        <time>2026-08-21T12:52:13.000Z</time>
        <extensions>
          <ns3:TrackPointExtension>
            <ns3:hr>145</ns3:hr>
            <ns3:cad>50</ns3:cad>
          </ns3:TrackPointExtension>
        </extensions>
      </trkpt>
      <trkpt lat="45.31484507024288177490234375" lon="-70.80800903029739856719970703125">
        <ele>927.79998779296875</ele>
        <time>2026-08-21T12:52:14.000Z</time>
        <extensions>
          <ns3:TrackPointExtension>
            <ns3:hr>146</ns3:hr>
            <ns3:cad>50</ns3:cad>
          </ns3:TrackPointExtension>
        </extensions>
      </trkpt>
      <trkpt lat="45.3148388676345348358154296875" lon="-70.80801456235349178314208984375">
        <ele>928</ele>
        <time>2026-08-21T12:52:15.000Z</time>
        <extensions>
          <ns3:TrackPointExtension>
            <ns3:hr>146</ns3:hr>
            <ns3:cad>50</ns3:cad>
          </ns3:TrackPointExtension>
        </extensions>
      </trkpt>
      <trkpt lat="45.31483107246458530426025390625" lon="-70.808019340038299560546875">
        <ele>928.20001220703125</ele>
        <time>2026-08-21T12:52:16.000Z</time>
        <extensions>
          <ns3:TrackPointExtension>
            <ns3:hr>147</ns3:hr>
            <ns3:cad>47</ns3:cad>
          </ns3:TrackPointExtension>
        </extensions>
      </trkpt>
      <trkpt lat="45.31482067890465259552001953125" lon="-70.80802679993212223052978515625">
        <ele>928.4000244140625</ele>
        <time>2026-08-21T12:52:17.000Z</time>
        <extensions>
          <ns3:TrackPointExtension>
            <ns3:hr>147</ns3:hr>
            <ns3:cad>47</ns3:cad>
          </ns3:TrackPointExtension>
        </extensions>
      </trkpt>
      <trkpt lat="45.314809866249561309814453125" lon="-70.808040797710418701171875">
        <ele>928.5999755859375</ele>
        <time>2026-08-21T12:52:18.000Z</time>
        <extensions>
          <ns3:TrackPointExtension>
            <ns3:hr>147</ns3:hr>
            <ns3:cad>47</ns3:cad>
          </ns3:TrackPointExtension>
        </extensions>
      </trkpt>
      <trkpt lat="45.31479788012802600860595703125" lon="-70.8080563880503177642822265625">
        <ele>928.79998779296875</ele>
        <time>2026-08-21T12:52:19.000Z</time>
        <extensions>
          <ns3:TrackPointExtension>
            <ns3:hr>148</ns3:hr>
            <ns3:cad>48</ns3:cad>
          </ns3:TrackPointExtension>
        </extensions>
      </trkpt>
      <trkpt lat="45.31478606164455413818359375" lon="-70.8080609142780303955078125">
        <ele>929</ele>
        <time>2026-08-21T12:52:20.000Z</time>
        <extensions>
          <ns3:TrackPointExtension>
            <ns3:hr>149</ns3:hr>
            <ns3:cad>48</ns3:cad>
          </ns3:TrackPointExtension>
        </extensions>
      </trkpt>
      <trkpt lat="45.31477491371333599090576171875" lon="-70.80805630423128604888916015625">
        <ele>929.20001220703125</ele>
        <time>2026-08-21T12:52:21.000Z</time>
        <extensions>
          <ns3:TrackPointExtension>
            <ns3:hr>149</ns3:hr>
            <ns3:cad>50</ns3:cad>
          </ns3:TrackPointExtension>
        </extensions>
      </trkpt>
      <trkpt lat="45.3147585690021514892578125" lon="-70.8080550469458103179931640625">
        <ele>929.4000244140625</ele>
        <time>2026-08-21T12:52:22.000Z</time>
        <extensions>
          <ns3:TrackPointExtension>
            <ns3:hr>149</ns3:hr>
            <ns3:cad>50</ns3:cad>
          </ns3:TrackPointExtension>
        </extensions>
      </trkpt>
      <trkpt lat="45.314748175442218780517578125" lon="-70.80805890262126922607421875">
        <ele>929.5999755859375</ele>
        <time>2026-08-21T12:52:23.000Z</time>
        <extensions>
          <ns3:TrackPointExtension>
            <ns3:hr>150</ns3:hr>
            <ns3:cad>50</ns3:cad>
          </ns3:TrackPointExtension>
        </extensions>
      </trkpt>
      <trkpt lat="45.31474021263420581817626953125" lon="-70.80806426703929901123046875">
        <ele>929.5999755859375</ele>
        <time>2026-08-21T12:52:24.000Z</time>
        <extensions>
          <ns3:TrackPointExtension>
            <ns3:hr>150</ns3:hr>
            <ns3:cad>0</ns3:cad>
          </ns3:TrackPointExtension>
        </extensions>
      </trkpt>
      <trkpt lat="45.3147268854081630706787109375" lon="-70.80805957317352294921875">
        <ele>929.79998779296875</ele>
        <time>2026-08-21T12:52:25.000Z</time>
        <extensions>
          <ns3:TrackPointExtension>
            <ns3:hr>149</ns3:hr>
            <ns3:cad>0</ns3:cad>
          </ns3:TrackPointExtension>
        </extensions>
      </trkpt>
      <trkpt lat="45.31471288762986660003662109375" lon="-70.80805948935449123382568359375">
        <ele>929.79998779296875</ele>
        <time>2026-08-21T12:52:26.000Z</time>
        <extensions>
          <ns3:TrackPointExtension>
            <ns3:hr>149</ns3:hr>
            <ns3:cad>48</ns3:cad>
          </ns3:TrackPointExtension>
        </extensions>
      </trkpt>
      <trkpt lat="45.31470182351768016815185546875" lon="-70.80806560814380645751953125">
        <ele>929.79998779296875</ele>
        <time>2026-08-21T12:52:27.000Z</time>
        <extensions>
          <ns3:TrackPointExtension>
            <ns3:hr>149</ns3:hr>
            <ns3:cad>48</ns3:cad>
          </ns3:TrackPointExtension>
        </extensions>
      </trkpt>
      <trkpt lat="45.314687155187129974365234375" lon="-70.80807499587535858154296875">
        <ele>929.79998779296875</ele>
        <time>2026-08-21T12:52:28.000Z</time>
        <extensions>
          <ns3:TrackPointExtension>
            <ns3:hr>149</ns3:hr>
            <ns3:cad>48</ns3:cad>
          </ns3:TrackPointExtension>
        </extensions>
      </trkpt>
      <trkpt lat="45.31467433087527751922607421875" lon="-70.808084048330783843994140625">
        <ele>930</ele>
        <time>2026-08-21T12:52:29.000Z</time>
        <extensions>
          <ns3:TrackPointExtension>
            <ns3:hr>150</ns3:hr>
            <ns3:cad>52</ns3:cad>
          </ns3:TrackPointExtension>
        </extensions>
      </trkpt>
      <trkpt lat="45.3146638534963130950927734375" lon="-70.80809050239622592926025390625">
        <ele>930</ele>
        <time>2026-08-21T12:52:30.000Z</time>
        <extensions>
          <ns3:TrackPointExtension>
            <ns3:hr>149</ns3:hr>
            <ns3:cad>52</ns3:cad>
          </ns3:TrackPointExtension>
        </extensions>
      </trkpt>
      <trkpt lat="45.3146527893841266632080078125" lon="-70.808091424405574798583984375">
        <ele>930</ele>
        <time>2026-08-21T12:52:31.000Z</time>
        <extensions>
          <ns3:TrackPointExtension>
            <ns3:hr>150</ns3:hr>
            <ns3:cad>53</ns3:cad>
          </ns3:TrackPointExtension>
        </extensions>
      </trkpt>
      <trkpt lat="45.314640887081623077392578125" lon="-70.80809234641492366790771484375">
        <ele>930</ele>
        <time>2026-08-21T12:52:32.000Z</time>
        <extensions>
          <ns3:TrackPointExtension>
            <ns3:hr>150</ns3:hr>
            <ns3:cad>53</ns3:cad>
          </ns3:TrackPointExtension>
        </extensions>
      </trkpt>
      <trkpt lat="45.314628817141056060791015625" lon="-70.80809754319489002227783203125">
        <ele>930</ele>
        <time>2026-08-21T12:52:33.000Z</time>
        <extensions>
          <ns3:TrackPointExtension>
            <ns3:hr>150</ns3:hr>
            <ns3:cad>54</ns3:cad>
          </ns3:TrackPointExtension>
        </extensions>
      </trkpt>
      <trkpt lat="45.314618758857250213623046875" lon="-70.80810039304196834564208984375">
        <ele>930.20001220703125</ele>
        <time>2026-08-21T12:52:34.000Z</time>
        <extensions>
          <ns3:TrackPointExtension>
            <ns3:hr>150</ns3:hr>
            <ns3:cad>54</ns3:cad>
          </ns3:TrackPointExtension>
        </extensions>
      </trkpt>
      <trkpt lat="45.3146071918308734893798828125" lon="-70.80810709856450557708740234375">
        <ele>930.4000244140625</ele>
        <time>2026-08-21T12:52:35.000Z</time>
        <extensions>
          <ns3:TrackPointExtension>
            <ns3:hr>150</ns3:hr>
            <ns3:cad>54</ns3:cad>
          </ns3:TrackPointExtension>
        </extensions>
      </trkpt>
      <trkpt lat="45.3145927749574184417724609375" lon="-70.80811648629605770111083984375">
        <ele>930.4000244140625</ele>
        <time>2026-08-21T12:52:36.000Z</time>
        <extensions>
          <ns3:TrackPointExtension>
            <ns3:hr>150</ns3:hr>
            <ns3:cad>53</ns3:cad>
          </ns3:TrackPointExtension>
        </extensions>
      </trkpt>
      <trkpt lat="45.31458581797778606414794921875" lon="-70.808132328093051910400390625">
        <ele>930.5999755859375</ele>
        <time>2026-08-21T12:52:37.000Z</time>
        <extensions>
          <ns3:TrackPointExtension>
            <ns3:hr>150</ns3:hr>
            <ns3:cad>53</ns3:cad>
          </ns3:TrackPointExtension>
        </extensions>
      </trkpt>
      <trkpt lat="45.314573161303997039794921875" lon="-70.80814179964363574981689453125">
        <ele>930.5999755859375</ele>
        <time>2026-08-21T12:52:38.000Z</time>
        <extensions>
          <ns3:TrackPointExtension>
            <ns3:hr>150</ns3:hr>
            <ns3:cad>53</ns3:cad>
          </ns3:TrackPointExtension>
        </extensions>
      </trkpt>
      <trkpt lat="45.3145627677440643310546875" lon="-70.80815085209906101226806640625">
        <ele>930.79998779296875</ele>
        <time>2026-08-21T12:52:39.000Z</time>
        <extensions>
          <ns3:TrackPointExtension>
            <ns3:hr>149</ns3:hr>
            <ns3:cad>53</ns3:cad>
          </ns3:TrackPointExtension>
        </extensions>
      </trkpt>
      <trkpt lat="45.314553715288639068603515625" lon="-70.80816082656383514404296875">
        <ele>930.79998779296875</ele>
        <time>2026-08-21T12:52:40.000Z</time>
        <extensions>
          <ns3:TrackPointExtension>
            <ns3:hr>149</ns3:hr>
            <ns3:cad>53</ns3:cad>
          </ns3:TrackPointExtension>
        </extensions>
      </trkpt>
      <trkpt lat="45.31454357318580150604248046875" lon="-70.80817113630473613739013671875">
        <ele>930.79998779296875</ele>
        <time>2026-08-21T12:52:41.000Z</time>
        <extensions>
          <ns3:TrackPointExtension>
            <ns3:hr>149</ns3:hr>
            <ns3:cad>54</ns3:cad>
          </ns3:TrackPointExtension>
        </extensions>
      </trkpt>
      <trkpt lat="45.31453401781618595123291015625" lon="-70.80817549489438533782958984375">
        <ele>930.79998779296875</ele>
        <time>2026-08-21T12:52:42.000Z</time>
        <extensions>
          <ns3:TrackPointExtension>
            <ns3:hr>149</ns3:hr>
            <ns3:cad>54</ns3:cad>
          </ns3:TrackPointExtension>
        </extensions>
      </trkpt>
      <trkpt lat="45.314523875713348388671875" lon="-70.80817784182727336883544921875">
        <ele>931</ele>
        <time>2026-08-21T12:52:43.000Z</time>
        <extensions>
          <ns3:TrackPointExtension>
            <ns3:hr>148</ns3:hr>
            <ns3:cad>55</ns3:cad>
          </ns3:TrackPointExtension>
        </extensions>
      </trkpt>
      <trkpt lat="45.3145037591457366943359375" lon="-70.8081842958927154541015625">
        <ele>931.20001220703125</ele>
        <time>2026-08-21T12:52:44.000Z</time>
        <extensions>
          <ns3:TrackPointExtension>
            <ns3:hr>148</ns3:hr>
            <ns3:cad>55</ns3:cad>
          </ns3:TrackPointExtension>
        </extensions>
      </trkpt>
      <trkpt lat="45.31449143774807453155517578125" lon="-70.8081948570907115936279296875">
        <ele>931.4000244140625</ele>
        <time>2026-08-21T12:52:45.000Z</time>
        <extensions>
          <ns3:TrackPointExtension>
            <ns3:hr>148</ns3:hr>
            <ns3:cad>54</ns3:cad>
          </ns3:TrackPointExtension>
        </extensions>
      </trkpt>
      <trkpt lat="45.31448028981685638427734375" lon="-70.80820181407034397125244140625">
        <ele>931.5999755859375</ele>
        <time>2026-08-21T12:52:46.000Z</time>
        <extensions>
          <ns3:TrackPointExtension>
            <ns3:hr>148</ns3:hr>
            <ns3:cad>54</ns3:cad>
          </ns3:TrackPointExtension>
        </extensions>
      </trkpt>
      <trkpt lat="45.31446495093405246734619140625" lon="-70.8082057535648345947265625">
        <ele>931.79998779296875</ele>
        <time>2026-08-21T12:52:47.000Z</time>
        <extensions>
          <ns3:TrackPointExtension>
            <ns3:hr>148</ns3:hr>
            <ns3:cad>54</ns3:cad>
          </ns3:TrackPointExtension>
        </extensions>
      </trkpt>
      <trkpt lat="45.314453132450580596923828125" lon="-70.80821103416383266448974609375">
        <ele>932</ele>
        <time>2026-08-21T12:52:48.000Z</time>
        <extensions>
          <ns3:TrackPointExtension>
            <ns3:hr>148</ns3:hr>
            <ns3:cad>53</ns3:cad>
          </ns3:TrackPointExtension>
        </extensions>
      </trkpt>
      <trkpt lat="45.31443879939615726470947265625" lon="-70.808219499886035919189453125">
        <ele>932</ele>
        <time>2026-08-21T12:52:49.000Z</time>
        <extensions>
          <ns3:TrackPointExtension>
            <ns3:hr>148</ns3:hr>
            <ns3:cad>53</ns3:cad>
          </ns3:TrackPointExtension>
        </extensions>
      </trkpt>
      <trkpt lat="45.31442890875041484832763671875" lon="-70.808223187923431396484375">
        <ele>932.20001220703125</ele>
        <time>2026-08-21T12:52:50.000Z</time>
        <extensions>
          <ns3:TrackPointExtension>
            <ns3:hr>148</ns3:hr>
            <ns3:cad>52</ns3:cad>
          </ns3:TrackPointExtension>
        </extensions>
      </trkpt>
      <trkpt lat="45.31441868282854557037353515625" lon="-70.8082245290279388427734375">
        <ele>932.20001220703125</ele>
        <time>2026-08-21T12:52:51.000Z</time>
        <extensions>
          <ns3:TrackPointExtension>
            <ns3:hr>147</ns3:hr>
            <ns3:cad>52</ns3:cad>
          </ns3:TrackPointExtension>
        </extensions>
      </trkpt>
      <trkpt lat="45.314410217106342315673828125" lon="-70.80822461284697055816650390625">
        <ele>932.20001220703125</ele>
        <time>2026-08-21T12:52:52.000Z</time>
        <extensions>
          <ns3:TrackPointExtension>
            <ns3:hr>147</ns3:hr>
            <ns3:cad>52</ns3:cad>
          </ns3:TrackPointExtension>
        </extensions>
      </trkpt>
      <trkpt lat="45.314394794404506683349609375" lon="-70.8082327432930469512939453125">
        <ele>932</ele>
        <time>2026-08-21T12:52:53.000Z</time>
        <extensions>
          <ns3:TrackPointExtension>
            <ns3:hr>146</ns3:hr>
            <ns3:cad>53</ns3:cad>
          </ns3:TrackPointExtension>
        </extensions>
      </trkpt>
      <trkpt lat="45.31438599340617656707763671875" lon="-70.80823953263461589813232421875">
        <ele>932</ele>
        <time>2026-08-21T12:52:54.000Z</time>
        <extensions>
          <ns3:TrackPointExtension>
            <ns3:hr>146</ns3:hr>
            <ns3:cad>53</ns3:cad>
          </ns3:TrackPointExtension>
        </extensions>
      </trkpt>
      <trkpt lat="45.31437409110367298126220703125" lon="-70.8082473278045654296875">
        <ele>932</ele>
        <time>2026-08-21T12:52:55.000Z</time>
        <extensions>
          <ns3:TrackPointExtension>
            <ns3:hr>146</ns3:hr>
            <ns3:cad>52</ns3:cad>
          </ns3:TrackPointExtension>
        </extensions>
      </trkpt>
      <trkpt lat="45.3143604286015033721923828125" lon="-70.8082575537264347076416015625">
        <ele>932</ele>
        <time>2026-08-21T12:52:56.000Z</time>
        <extensions>
          <ns3:TrackPointExtension>
            <ns3:hr>146</ns3:hr>
            <ns3:cad>52</ns3:cad>
          </ns3:TrackPointExtension>
        </extensions>
      </trkpt>
      <trkpt lat="45.31434911303222179412841796875" lon="-70.8082659356296062469482421875">
        <ele>932</ele>
        <time>2026-08-21T12:52:57.000Z</time>
        <extensions>
          <ns3:TrackPointExtension>
            <ns3:hr>147</ns3:hr>
            <ns3:cad>52</ns3:cad>
          </ns3:TrackPointExtension>
        </extensions>
      </trkpt>
      <trkpt lat="45.31433654017746448516845703125" lon="-70.80827440135180950164794921875">
        <ele>932</ele>
        <time>2026-08-21T12:52:58.000Z</time>
        <extensions>
          <ns3:TrackPointExtension>
            <ns3:hr>147</ns3:hr>
            <ns3:cad>52</ns3:cad>
          </ns3:TrackPointExtension>
        </extensions>
      </trkpt>
      <trkpt lat="45.31432597897946834564208984375" lon="-70.8082887344062328338623046875">
        <ele>932</ele>
        <time>2026-08-21T12:52:59.000Z</time>
        <extensions>
          <ns3:TrackPointExtension>
            <ns3:hr>147</ns3:hr>
            <ns3:cad>53</ns3:cad>
          </ns3:TrackPointExtension>
        </extensions>
      </trkpt>
      <trkpt lat="45.3143165074288845062255859375" lon="-70.8083023130893707275390625">
        <ele>932</ele>
        <time>2026-08-21T12:53:00.000Z</time>
        <extensions>
          <ns3:TrackPointExtension>
            <ns3:hr>147</ns3:hr>
            <ns3:cad>53</ns3:cad>
          </ns3:TrackPointExtension>
        </extensions>
      </trkpt>
      <trkpt lat="45.31430586241185665130615234375" lon="-70.80830826424062252044677734375">
        <ele>931.79998779296875</ele>
        <time>2026-08-21T12:53:01.000Z</time>
        <extensions>
          <ns3:TrackPointExtension>
            <ns3:hr>147</ns3:hr>
            <ns3:cad>53</ns3:cad>
          </ns3:TrackPointExtension>
        </extensions>
      </trkpt>
      <trkpt lat="45.3142906911671161651611328125" lon="-70.8083168976008892059326171875">
        <ele>931.79998779296875</ele>
        <time>2026-08-21T12:53:02.000Z</time>
        <extensions>
          <ns3:TrackPointExtension>
            <ns3:hr>147</ns3:hr>
            <ns3:cad>53</ns3:cad>
          </ns3:TrackPointExtension>
        </extensions>
      </trkpt>
      <trkpt lat="45.31427443027496337890625" lon="-70.80832016654312610626220703125">
        <ele>931.79998779296875</ele>
        <time>2026-08-21T12:53:03.000Z</time>
        <extensions>
          <ns3:TrackPointExtension>
            <ns3:hr>146</ns3:hr>
            <ns3:cad>53</ns3:cad>
          </ns3:TrackPointExtension>
        </extensions>
      </trkpt>
      <trkpt lat="45.31426143832504749298095703125" lon="-70.80832402221858501434326171875">
        <ele>931.79998779296875</ele>
        <time>2026-08-21T12:53:04.000Z</time>
        <extensions>
          <ns3:TrackPointExtension>
            <ns3:hr>146</ns3:hr>
            <ns3:cad>54</ns3:cad>
          </ns3:TrackPointExtension>
        </extensions>
      </trkpt>
      <trkpt lat="45.314248614013195037841796875" lon="-70.8083296380937099456787109375">
        <ele>932</ele>
        <time>2026-08-21T12:53:05.000Z</time>
        <extensions>
          <ns3:TrackPointExtension>
            <ns3:hr>146</ns3:hr>
            <ns3:cad>54</ns3:cad>
          </ns3:TrackPointExtension>
        </extensions>
      </trkpt>
      <trkpt lat="45.3142383880913257598876953125" lon="-70.80834179185330867767333984375">
        <ele>932</ele>
        <time>2026-08-21T12:53:06.000Z</time>
        <extensions>
          <ns3:TrackPointExtension>
            <ns3:hr>147</ns3:hr>
            <ns3:cad>54</ns3:cad>
          </ns3:TrackPointExtension>
        </extensions>
      </trkpt>
      <trkpt lat="45.31422682106494903564453125" lon="-70.80834866501390933990478515625">
        <ele>932.20001220703125</ele>
        <time>2026-08-21T12:53:07.000Z</time>
        <extensions>
          <ns3:TrackPointExtension>
            <ns3:hr>143</ns3:hr>
            <ns3:cad>54</ns3:cad>
          </ns3:TrackPointExtension>
        </extensions>
      </trkpt>
      <trkpt lat="45.31421265564858913421630859375" lon="-70.80835905857384204864501953125">
        <ele>932.20001220703125</ele>
        <time>2026-08-21T12:53:08.000Z</time>
        <extensions>
          <ns3:TrackPointExtension>
            <ns3:hr>141</ns3:hr>
            <ns3:cad>54</ns3:cad>
          </ns3:TrackPointExtension>
        </extensions>
      </trkpt>
      <trkpt lat="45.31419932842254638671875" lon="-70.808365680277347564697265625">
        <ele>932.4000244140625</ele>
        <time>2026-08-21T12:53:09.000Z</time>
        <extensions>
          <ns3:TrackPointExtension>
            <ns3:hr>140</ns3:hr>
            <ns3:cad>0</ns3:cad>
          </ns3:TrackPointExtension>
        </extensions>
      </trkpt>
      <trkpt lat="45.31418717466294765472412109375" lon="-70.8083765767514705657958984375">
        <ele>932.5999755859375</ele>
        <time>2026-08-21T12:53:10.000Z</time>
        <extensions>
          <ns3:TrackPointExtension>
            <ns3:hr>140</ns3:hr>
            <ns3:cad>0</ns3:cad>
          </ns3:TrackPointExtension>
        </extensions>
      </trkpt>
      <trkpt lat="45.31417912803590297698974609375" lon="-70.80838856287300586700439453125">
        <ele>932.5999755859375</ele>
        <time>2026-08-21T12:53:11.000Z</time>
        <extensions>
          <ns3:TrackPointExtension>
            <ns3:hr>139</ns3:hr>
            <ns3:cad>0</ns3:cad>
          </ns3:TrackPointExtension>
        </extensions>
      </trkpt>
      <trkpt lat="45.31416420824825763702392578125" lon="-70.8084000460803508758544921875">
        <ele>932.79998779296875</ele>
        <time>2026-08-21T12:53:12.000Z</time>
        <extensions>
          <ns3:TrackPointExtension>
            <ns3:hr>139</ns3:hr>
            <ns3:cad>52</ns3:cad>
          </ns3:TrackPointExtension>
        </extensions>
      </trkpt>
      <trkpt lat="45.31415683217346668243408203125" lon="-70.808408595621585845947265625">
        <ele>932.79998779296875</ele>
        <time>2026-08-21T12:53:13.000Z</time>
        <extensions>
          <ns3:TrackPointExtension>
            <ns3:hr>139</ns3:hr>
            <ns3:cad>52</ns3:cad>
          </ns3:TrackPointExtension>
        </extensions>
      </trkpt>
      <trkpt lat="45.31414660625159740447998046875" lon="-70.80841672606766223907470703125">
        <ele>933</ele>
        <time>2026-08-21T12:53:14.000Z</time>
        <extensions>
          <ns3:TrackPointExtension>
            <ns3:hr>138</ns3:hr>
            <ns3:cad>53</ns3:cad>
          </ns3:TrackPointExtension>
        </extensions>
      </trkpt>
      <trkpt lat="45.31413026154041290283203125" lon="-70.80842711962759494781494140625">
        <ele>933.20001220703125</ele>
        <time>2026-08-21T12:53:15.000Z</time>
        <extensions>
          <ns3:TrackPointExtension>
            <ns3:hr>138</ns3:hr>
            <ns3:cad>53</ns3:cad>
          </ns3:TrackPointExtension>
        </extensions>
      </trkpt>
      <trkpt lat="45.3141175210475921630859375" lon="-70.80843751318752765655517578125">
        <ele>933.4000244140625</ele>
        <time>2026-08-21T12:53:16.000Z</time>
        <extensions>
          <ns3:TrackPointExtension>
            <ns3:hr>138</ns3:hr>
            <ns3:cad>0</ns3:cad>
          </ns3:TrackPointExtension>
        </extensions>
      </trkpt>
      <trkpt lat="45.31410318799316883087158203125" lon="-70.8084493316709995269775390625">
        <ele>933.4000244140625</ele>
        <time>2026-08-21T12:53:17.000Z</time>
        <extensions>
          <ns3:TrackPointExtension>
            <ns3:hr>138</ns3:hr>
            <ns3:cad>0</ns3:cad>
          </ns3:TrackPointExtension>
        </extensions>
      </trkpt>
      <trkpt lat="45.3140925429761409759521484375" lon="-70.80845612101256847381591796875">
        <ele>933.5999755859375</ele>
        <time>2026-08-21T12:53:18.000Z</time>
        <extensions>
          <ns3:TrackPointExtension>
            <ns3:hr>138</ns3:hr>
            <ns3:cad>0</ns3:cad>
          </ns3:TrackPointExtension>
        </extensions>
      </trkpt>
      <trkpt lat="45.3140808083117008209228515625" lon="-70.8084587194025516510009765625">
        <ele>933.79998779296875</ele>
        <time>2026-08-21T12:53:19.000Z</time>
        <extensions>
          <ns3:TrackPointExtension>
            <ns3:hr>138</ns3:hr>
            <ns3:cad>0</ns3:cad>
          </ns3:TrackPointExtension>
        </extensions>
      </trkpt>
      <trkpt lat="45.314070917665958404541015625" lon="-70.80846500582993030548095703125">
        <ele>933.79998779296875</ele>
        <time>2026-08-21T12:53:20.000Z</time>
        <extensions>
          <ns3:TrackPointExtension>
            <ns3:hr>138</ns3:hr>
            <ns3:cad>0</ns3:cad>
          </ns3:TrackPointExtension>
        </extensions>
      </trkpt>
      <trkpt lat="45.314055494964122772216796875" lon="-70.808472968637943267822265625">
        <ele>934</ele>
        <time>2026-08-21T12:53:21.000Z</time>
        <extensions>
          <ns3:TrackPointExtension>
            <ns3:hr>139</ns3:hr>
            <ns3:cad>0</ns3:cad>
          </ns3:TrackPointExtension>
        </extensions>
      </trkpt>
      <trkpt lat="45.3140425868332386016845703125" lon="-70.8084758184850215911865234375">
        <ele>934.20001220703125</ele>
        <time>2026-08-21T12:53:22.000Z</time>
        <extensions>
          <ns3:TrackPointExtension>
            <ns3:hr>139</ns3:hr>
            <ns3:cad>0</ns3:cad>
          </ns3:TrackPointExtension>
        </extensions>
      </trkpt>
      <trkpt lat="45.31402942724525928497314453125" lon="-70.80847690813243389129638671875">
        <ele>934.4000244140625</ele>
        <time>2026-08-21T12:53:23.000Z</time>
        <extensions>
          <ns3:TrackPointExtension>
            <ns3:hr>138</ns3:hr>
            <ns3:cad>54</ns3:cad>
          </ns3:TrackPointExtension>
        </extensions>
      </trkpt>
      <trkpt lat="45.31401693820953369140625" lon="-70.80847858451306819915771484375">
        <ele>934.4000244140625</ele>
        <time>2026-08-21T12:53:24.000Z</time>
        <extensions>
          <ns3:TrackPointExtension>
            <ns3:hr>138</ns3:hr>
            <ns3:cad>54</ns3:cad>
          </ns3:TrackPointExtension>
        </extensions>
      </trkpt>
      <trkpt lat="45.3140090592205524444580078125" lon="-70.8084899000823497772216796875">
        <ele>934.5999755859375</ele>
        <time>2026-08-21T12:53:25.000Z</time>
        <extensions>
          <ns3:TrackPointExtension>
            <ns3:hr>138</ns3:hr>
            <ns3:cad>54</ns3:cad>
          </ns3:TrackPointExtension>
        </extensions>
      </trkpt>
      <trkpt lat="45.31400419771671295166015625" lon="-70.8084986172616481781005859375">
        <ele>934.79998779296875</ele>
        <time>2026-08-21T12:53:26.000Z</time>
        <extensions>
          <ns3:TrackPointExtension>
            <ns3:hr>137</ns3:hr>
            <ns3:cad>54</ns3:cad>
          </ns3:TrackPointExtension>
        </extensions>
      </trkpt>
      <trkpt lat="45.3139969892799854278564453125" lon="-70.80850507132709026336669921875">
        <ele>934.79998779296875</ele>
        <time>2026-08-21T12:53:27.000Z</time>
        <extensions>
          <ns3:TrackPointExtension>
            <ns3:hr>137</ns3:hr>
            <ns3:cad>54</ns3:cad>
          </ns3:TrackPointExtension>
        </extensions>
      </trkpt>
      <trkpt lat="45.31398148275911808013916015625" lon="-70.808510519564151763916015625">
        <ele>935</ele>
        <time>2026-08-21T12:53:28.000Z</time>
        <extensions>
          <ns3:TrackPointExtension>
            <ns3:hr>137</ns3:hr>
            <ns3:cad>51</ns3:cad>
          </ns3:TrackPointExtension>
        </extensions>
      </trkpt>
      <trkpt lat="45.31397025100886821746826171875" lon="-70.80852233804762363433837890625">
        <ele>935</ele>
        <time>2026-08-21T12:53:29.000Z</time>
        <extensions>
          <ns3:TrackPointExtension>
            <ns3:hr>137</ns3:hr>
            <ns3:cad>51</ns3:cad>
          </ns3:TrackPointExtension>
        </extensions>
      </trkpt>
      <trkpt lat="45.31395851634442806243896484375" lon="-70.8085371740162372589111328125">
        <ele>935</ele>
        <time>2026-08-21T12:53:30.000Z</time>
        <extensions>
          <ns3:TrackPointExtension>
            <ns3:hr>138</ns3:hr>
            <ns3:cad>51</ns3:cad>
          </ns3:TrackPointExtension>
        </extensions>
      </trkpt>
      <trkpt lat="45.3139473684132099151611328125" lon="-70.80854396335780620574951171875">
        <ele>935</ele>
        <time>2026-08-21T12:53:31.000Z</time>
        <extensions>
          <ns3:TrackPointExtension>
            <ns3:hr>137</ns3:hr>
            <ns3:cad>51</ns3:cad>
          </ns3:TrackPointExtension>
        </extensions>
      </trkpt>
      <trkpt lat="45.31393580138683319091796875" lon="-70.8085463941097259521484375">
        <ele>935</ele>
        <time>2026-08-21T12:53:32.000Z</time>
        <extensions>
          <ns3:TrackPointExtension>
            <ns3:hr>137</ns3:hr>
            <ns3:cad>51</ns3:cad>
          </ns3:TrackPointExtension>
        </extensions>
      </trkpt>
      <trkpt lat="45.31392431817948818206787109375" lon="-70.80854237079620361328125">
        <ele>935</ele>
        <time>2026-08-21T12:53:33.000Z</time>
        <extensions>
          <ns3:TrackPointExtension>
            <ns3:hr>137</ns3:hr>
            <ns3:cad>0</ns3:cad>
          </ns3:TrackPointExtension>
        </extensions>
      </trkpt>
      <trkpt lat="45.31391157768666744232177734375" lon="-70.80854061059653759002685546875">
        <ele>935</ele>
        <time>2026-08-21T12:53:34.000Z</time>
        <extensions>
          <ns3:TrackPointExtension>
            <ns3:hr>137</ns3:hr>
            <ns3:cad>0</ns3:cad>
          </ns3:TrackPointExtension>
        </extensions>
      </trkpt>
      <trkpt lat="45.313897244632244110107421875" lon="-70.8085452206432819366455078125">
        <ele>935.20001220703125</ele>
        <time>2026-08-21T12:53:35.000Z</time>
        <extensions>
          <ns3:TrackPointExtension>
            <ns3:hr>137</ns3:hr>
            <ns3:cad>0</ns3:cad>
          </ns3:TrackPointExtension>
        </extensions>
      </trkpt>
      <trkpt lat="45.313889868557453155517578125" lon="-70.8085512556135654449462890625">
        <ele>935.4000244140625</ele>
        <time>2026-08-21T12:53:36.000Z</time>
        <extensions>
          <ns3:TrackPointExtension>
            <ns3:hr>137</ns3:hr>
            <ns3:cad>0</ns3:cad>
          </ns3:TrackPointExtension>
        </extensions>
      </trkpt>
      <trkpt lat="45.31387721188366413116455078125" lon="-70.808561481535434722900390625">
        <ele>935.79998779296875</ele>
        <time>2026-08-21T12:53:37.000Z</time>
        <extensions>
          <ns3:TrackPointExtension>
            <ns3:hr>137</ns3:hr>
            <ns3:cad>0</ns3:cad>
          </ns3:TrackPointExtension>
        </extensions>
      </trkpt>
      <trkpt lat="45.31386145390570163726806640625" lon="-70.808568857610225677490234375">
        <ele>936</ele>
        <time>2026-08-21T12:53:38.000Z</time>
        <extensions>
          <ns3:TrackPointExtension>
            <ns3:hr>138</ns3:hr>
            <ns3:cad>47</ns3:cad>
          </ns3:TrackPointExtension>
        </extensions>
      </trkpt>
      <trkpt lat="45.3138464502990245819091796875" lon="-70.8085733838379383087158203125">
        <ele>936</ele>
        <time>2026-08-21T12:53:39.000Z</time>
        <extensions>
          <ns3:TrackPointExtension>
            <ns3:hr>138</ns3:hr>
            <ns3:cad>47</ns3:cad>
          </ns3:TrackPointExtension>
        </extensions>
      </trkpt>
      <trkpt lat="45.3138357214629650115966796875" lon="-70.8085767365992069244384765625">
        <ele>936.20001220703125</ele>
        <time>2026-08-21T12:53:40.000Z</time>
        <extensions>
          <ns3:TrackPointExtension>
            <ns3:hr>138</ns3:hr>
            <ns3:cad>47</ns3:cad>
          </ns3:TrackPointExtension>
        </extensions>
      </trkpt>
      <trkpt lat="45.31382373534142971038818359375" lon="-70.808577574789524078369140625">
        <ele>936.20001220703125</ele>
        <time>2026-08-21T12:53:41.000Z</time>
        <extensions>
          <ns3:TrackPointExtension>
            <ns3:hr>138</ns3:hr>
            <ns3:cad>47</ns3:cad>
          </ns3:TrackPointExtension>
        </extensions>
      </trkpt>
      <trkpt lat="45.3138058818876743316650390625" lon="-70.80858553759753704071044921875">
        <ele>936.20001220703125</ele>
        <time>2026-08-21T12:53:42.000Z</time>
        <extensions>
          <ns3:TrackPointExtension>
            <ns3:hr>137</ns3:hr>
            <ns3:cad>53</ns3:cad>
          </ns3:TrackPointExtension>
        </extensions>
      </trkpt>
      <trkpt lat="45.3137938119471073150634765625" lon="-70.8085928298532962799072265625">
        <ele>936.20001220703125</ele>
        <time>2026-08-21T12:53:43.000Z</time>
        <extensions>
          <ns3:TrackPointExtension>
            <ns3:hr>138</ns3:hr>
            <ns3:cad>55</ns3:cad>
          </ns3:TrackPointExtension>
        </extensions>
      </trkpt>
      <trkpt lat="45.31377763487398624420166015625" lon="-70.8086005412042140960693359375">
        <ele>936</ele>
        <time>2026-08-21T12:53:44.000Z</time>
        <extensions>
          <ns3:TrackPointExtension>
            <ns3:hr>138</ns3:hr>
            <ns3:cad>55</ns3:cad>
          </ns3:TrackPointExtension>
        </extensions>
      </trkpt>
      <trkpt lat="45.3137626312673091888427734375" lon="-70.8086072467267513275146484375">
        <ele>936</ele>
        <time>2026-08-21T12:53:45.000Z</time>
        <extensions>
          <ns3:TrackPointExtension>
            <ns3:hr>138</ns3:hr>
            <ns3:cad>61</ns3:cad>
          </ns3:TrackPointExtension>
        </extensions>
      </trkpt>
      <trkpt lat="45.3137473762035369873046875" lon="-70.80860833637416362762451171875">
        <ele>936</ele>
        <time>2026-08-21T12:53:46.000Z</time>
        <extensions>
          <ns3:TrackPointExtension>
            <ns3:hr>138</ns3:hr>
            <ns3:cad>61</ns3:cad>
          </ns3:TrackPointExtension>
        </extensions>
      </trkpt>
      <trkpt lat="45.313730277121067047119140625" lon="-70.80862711183726787567138671875">
        <ele>935.79998779296875</ele>
        <time>2026-08-21T12:53:47.000Z</time>
        <extensions>
          <ns3:TrackPointExtension>
            <ns3:hr>138</ns3:hr>
            <ns3:cad>61</ns3:cad>
          </ns3:TrackPointExtension>
        </extensions>
      </trkpt>
      <trkpt lat="45.3137183748185634613037109375" lon="-70.808638595044612884521484375">
        <ele>935.79998779296875</ele>
        <time>2026-08-21T12:53:48.000Z</time>
        <extensions>
          <ns3:TrackPointExtension>
            <ns3:hr>137</ns3:hr>
            <ns3:cad>61</ns3:cad>
          </ns3:TrackPointExtension>
        </extensions>
      </trkpt>
      <trkpt lat="45.313702784478664398193359375" lon="-70.80865569412708282470703125">
        <ele>935.79998779296875</ele>
        <time>2026-08-21T12:53:49.000Z</time>
        <extensions>
          <ns3:TrackPointExtension>
            <ns3:hr>137</ns3:hr>
            <ns3:cad>61</ns3:cad>
          </ns3:TrackPointExtension>
        </extensions>
      </trkpt>
      <trkpt lat="45.3136885352432727813720703125" lon="-70.80866617150604724884033203125">
        <ele>935.79998779296875</ele>
        <time>2026-08-21T12:53:50.000Z</time>
        <extensions>
          <ns3:TrackPointExtension>
            <ns3:hr>137</ns3:hr>
            <ns3:cad>61</ns3:cad>
          </ns3:TrackPointExtension>
        </extensions>
      </trkpt>
      <trkpt lat="45.3136781416833400726318359375" lon="-70.8086719550192356109619140625">
        <ele>935.79998779296875</ele>
        <time>2026-08-21T12:53:51.000Z</time>
        <extensions>
          <ns3:TrackPointExtension>
            <ns3:hr>137</ns3:hr>
            <ns3:cad>61</ns3:cad>
          </ns3:TrackPointExtension>
        </extensions>
      </trkpt>
      <trkpt lat="45.31367160379886627197265625" lon="-70.80868209712207317352294921875">
        <ele>936</ele>
        <time>2026-08-21T12:53:52.000Z</time>
        <extensions>
          <ns3:TrackPointExtension>
            <ns3:hr>137</ns3:hr>
            <ns3:cad>0</ns3:cad>
          </ns3:TrackPointExtension>
        </extensions>
      </trkpt>
      <trkpt lat="45.31366380862891674041748046875" lon="-70.80869114957749843597412109375">
        <ele>936.20001220703125</ele>
        <time>2026-08-21T12:53:53.000Z</time>
        <extensions>
          <ns3:TrackPointExtension>
            <ns3:hr>138</ns3:hr>
            <ns3:cad>0</ns3:cad>
          </ns3:TrackPointExtension>
        </extensions>
      </trkpt>
      <trkpt lat="45.31365224160254001617431640625" lon="-70.80870036967098712921142578125">
        <ele>936.4000244140625</ele>
        <time>2026-08-21T12:53:54.000Z</time>
        <extensions>
          <ns3:TrackPointExtension>
            <ns3:hr>138</ns3:hr>
            <ns3:cad>0</ns3:cad>
          </ns3:TrackPointExtension>
        </extensions>
      </trkpt>
      <trkpt lat="45.31364134512841701507568359375" lon="-70.808711014688014984130859375">
        <ele>936.4000244140625</ele>
        <time>2026-08-21T12:53:55.000Z</time>
        <extensions>
          <ns3:TrackPointExtension>
            <ns3:hr>138</ns3:hr>
            <ns3:cad>0</ns3:cad>
          </ns3:TrackPointExtension>
        </extensions>
      </trkpt>
      <trkpt lat="45.3136332146823406219482421875" lon="-70.8087153732776641845703125">
        <ele>936.5999755859375</ele>
        <time>2026-08-21T12:53:56.000Z</time>
        <extensions>
          <ns3:TrackPointExtension>
            <ns3:hr>139</ns3:hr>
            <ns3:cad>0</ns3:cad>
          </ns3:TrackPointExtension>
        </extensions>
      </trkpt>
      <trkpt lat="45.3136137686669826507568359375" lon="-70.80871998332440853118896484375">
        <ele>936.79998779296875</ele>
        <time>2026-08-21T12:53:57.000Z</time>
        <extensions>
          <ns3:TrackPointExtension>
            <ns3:hr>139</ns3:hr>
            <ns3:cad>52</ns3:cad>
          </ns3:TrackPointExtension>
        </extensions>
      </trkpt>
      <trkpt lat="45.31360396184027194976806640625" lon="-70.80872199498116970062255859375">
        <ele>936.79998779296875</ele>
        <time>2026-08-21T12:53:58.000Z</time>
        <extensions>
          <ns3:TrackPointExtension>
            <ns3:hr>138</ns3:hr>
            <ns3:cad>52</ns3:cad>
          </ns3:TrackPointExtension>
        </extensions>
      </trkpt>
      <trkpt lat="45.3135909698903560638427734375" lon="-70.80872165970504283905029296875">
        <ele>936.79998779296875</ele>
        <time>2026-08-21T12:53:59.000Z</time>
        <extensions>
          <ns3:TrackPointExtension>
            <ns3:hr>138</ns3:hr>
            <ns3:cad>51</ns3:cad>
          </ns3:TrackPointExtension>
        </extensions>
      </trkpt>
      <trkpt lat="45.31358485110104084014892578125" lon="-70.8087202347815036773681640625">
        <ele>937</ele>
        <time>2026-08-21T12:54:00.000Z</time>
        <extensions>
          <ns3:TrackPointExtension>
            <ns3:hr>138</ns3:hr>
            <ns3:cad>51</ns3:cad>
          </ns3:TrackPointExtension>
        </extensions>
      </trkpt>
      <trkpt lat="45.3135708533227443695068359375" lon="-70.80872098915278911590576171875">
        <ele>937</ele>
        <time>2026-08-21T12:54:01.000Z</time>
        <extensions>
          <ns3:TrackPointExtension>
            <ns3:hr>138</ns3:hr>
            <ns3:cad>51</ns3:cad>
          </ns3:TrackPointExtension>
        </extensions>
      </trkpt>
      <trkpt lat="45.3135594539344310760498046875" lon="-70.80871780402958393096923828125">
        <ele>937</ele>
        <time>2026-08-21T12:54:02.000Z</time>
        <extensions>
          <ns3:TrackPointExtension>
            <ns3:hr>137</ns3:hr>
            <ns3:cad>56</ns3:cad>
          </ns3:TrackPointExtension>
        </extensions>
      </trkpt>
      <trkpt lat="45.3135477192699909210205078125" lon="-70.80871478654444217681884765625">
        <ele>937</ele>
        <time>2026-08-21T12:54:03.000Z</time>
        <extensions>
          <ns3:TrackPointExtension>
            <ns3:hr>137</ns3:hr>
            <ns3:cad>56</ns3:cad>
          </ns3:TrackPointExtension>
        </extensions>
      </trkpt>
      <trkpt lat="45.31353875063359737396240234375" lon="-70.80871461890637874603271484375">
        <ele>937.20001220703125</ele>
        <time>2026-08-21T12:54:04.000Z</time>
        <extensions>
          <ns3:TrackPointExtension>
            <ns3:hr>137</ns3:hr>
            <ns3:cad>56</ns3:cad>
          </ns3:TrackPointExtension>
        </extensions>
      </trkpt>
      <trkpt lat="45.31352341175079345703125" lon="-70.80871931277215480804443359375">
        <ele>937.20001220703125</ele>
        <time>2026-08-21T12:54:05.000Z</time>
        <extensions>
          <ns3:TrackPointExtension>
            <ns3:hr>136</ns3:hr>
            <ns3:cad>56</ns3:cad>
          </ns3:TrackPointExtension>
        </extensions>
      </trkpt>
      <trkpt lat="45.31351494602859020233154296875" lon="-70.80871897749602794647216796875">
        <ele>937.4000244140625</ele>
        <time>2026-08-21T12:54:06.000Z</time>
        <extensions>
          <ns3:TrackPointExtension>
            <ns3:hr>136</ns3:hr>
            <ns3:cad>0</ns3:cad>
          </ns3:TrackPointExtension>
        </extensions>
      </trkpt>
      <trkpt lat="45.31350304372608661651611328125" lon="-70.80871797166764736175537109375">
        <ele>937.5999755859375</ele>
        <time>2026-08-21T12:54:07.000Z</time>
        <extensions>
          <ns3:TrackPointExtension>
            <ns3:hr>136</ns3:hr>
            <ns3:cad>0</ns3:cad>
          </ns3:TrackPointExtension>
        </extensions>
      </trkpt>
      <trkpt lat="45.31349617056548595428466796875" lon="-70.80872216261923313140869140625">
        <ele>937.79998779296875</ele>
        <time>2026-08-21T12:54:08.000Z</time>
        <extensions>
          <ns3:TrackPointExtension>
            <ns3:hr>136</ns3:hr>
            <ns3:cad>0</ns3:cad>
          </ns3:TrackPointExtension>
        </extensions>
      </trkpt>
      <trkpt lat="45.3134883753955364227294921875" lon="-70.80872199498116970062255859375">
        <ele>938</ele>
        <time>2026-08-21T12:54:09.000Z</time>
        <extensions>
          <ns3:TrackPointExtension>
            <ns3:hr>136</ns3:hr>
            <ns3:cad>0</ns3:cad>
          </ns3:TrackPointExtension>
        </extensions>
      </trkpt>
      <trkpt lat="45.3134739585220813751220703125" lon="-70.8087235875427722930908203125">
        <ele>938.20001220703125</ele>
        <time>2026-08-21T12:54:10.000Z</time>
        <extensions>
          <ns3:TrackPointExtension>
            <ns3:hr>136</ns3:hr>
            <ns3:cad>0</ns3:cad>
          </ns3:TrackPointExtension>
        </extensions>
      </trkpt>
      <trkpt lat="45.31346666626632213592529296875" lon="-70.808725096285343170166015625">
        <ele>938.20001220703125</ele>
        <time>2026-08-21T12:54:11.000Z</time>
        <extensions>
          <ns3:TrackPointExtension>
            <ns3:hr>135</ns3:hr>
            <ns3:cad>0</ns3:cad>
          </ns3:TrackPointExtension>
        </extensions>
      </trkpt>
      <trkpt lat="45.31345409341156482696533203125" lon="-70.80871738493442535400390625">
        <ele>938.4000244140625</ele>
        <time>2026-08-21T12:54:12.000Z</time>
        <extensions>
          <ns3:TrackPointExtension>
            <ns3:hr>135</ns3:hr>
            <ns3:cad>0</ns3:cad>
          </ns3:TrackPointExtension>
        </extensions>
      </trkpt>
      <trkpt lat="45.31343850307166576385498046875" lon="-70.8087138645350933074951171875">
        <ele>938.5999755859375</ele>
        <time>2026-08-21T12:54:13.000Z</time>
        <extensions>
          <ns3:TrackPointExtension>
            <ns3:hr>135</ns3:hr>
            <ns3:cad>0</ns3:cad>
          </ns3:TrackPointExtension>
        </extensions>
      </trkpt>
      <trkpt lat="45.313425846397876739501953125" lon="-70.8087101764976978302001953125">
        <ele>938.5999755859375</ele>
        <time>2026-08-21T12:54:14.000Z</time>
        <extensions>
          <ns3:TrackPointExtension>
            <ns3:hr>135</ns3:hr>
            <ns3:cad>0</ns3:cad>
          </ns3:TrackPointExtension>
        </extensions>
      </trkpt>
      <trkpt lat="45.313414447009563446044921875" lon="-70.8087101764976978302001953125">
        <ele>938.79998779296875</ele>
        <time>2026-08-21T12:54:15.000Z</time>
        <extensions>
          <ns3:TrackPointExtension>
            <ns3:hr>136</ns3:hr>
            <ns3:cad>0</ns3:cad>
          </ns3:TrackPointExtension>
        </extensions>
      </trkpt>
      <trkpt lat="45.31340246088802814483642578125" lon="-70.8087118528783321380615234375">
        <ele>939</ele>
        <time>2026-08-21T12:54:16.000Z</time>
        <extensions>
          <ns3:TrackPointExtension>
            <ns3:hr>136</ns3:hr>
            <ns3:cad>53</ns3:cad>
          </ns3:TrackPointExtension>
        </extensions>
      </trkpt>
      <trkpt lat="45.31339055858552455902099609375" lon="-70.80871126614511013031005859375">
        <ele>939.20001220703125</ele>
        <time>2026-08-21T12:54:17.000Z</time>
        <extensions>
          <ns3:TrackPointExtension>
            <ns3:hr>136</ns3:hr>
            <ns3:cad>53</ns3:cad>
          </ns3:TrackPointExtension>
        </extensions>
      </trkpt>
      <trkpt lat="45.313375554978847503662109375" lon="-70.8087074942886829376220703125">
        <ele>939.20001220703125</ele>
        <time>2026-08-21T12:54:18.000Z</time>
        <extensions>
          <ns3:TrackPointExtension>
            <ns3:hr>136</ns3:hr>
            <ns3:cad>0</ns3:cad>
          </ns3:TrackPointExtension>
        </extensions>
      </trkpt>
      <trkpt lat="45.31336440704762935638427734375" lon="-70.80870070494711399078369140625">
        <ele>939.4000244140625</ele>
        <time>2026-08-21T12:54:19.000Z</time>
        <extensions>
          <ns3:TrackPointExtension>
            <ns3:hr>136</ns3:hr>
            <ns3:cad>0</ns3:cad>
          </ns3:TrackPointExtension>
        </extensions>
      </trkpt>
      <trkpt lat="45.31335552223026752471923828125" lon="-70.80870338715612888336181640625">
        <ele>939.4000244140625</ele>
        <time>2026-08-21T12:54:20.000Z</time>
        <extensions>
          <ns3:TrackPointExtension>
            <ns3:hr>136</ns3:hr>
            <ns3:cad>0</ns3:cad>
          </ns3:TrackPointExtension>
        </extensions>
      </trkpt>
      <trkpt lat="45.3133334778249263763427734375" lon="-70.80870036967098712921142578125">
        <ele>939.5999755859375</ele>
        <time>2026-08-21T12:54:21.000Z</time>
        <extensions>
          <ns3:TrackPointExtension>
            <ns3:hr>136</ns3:hr>
            <ns3:cad>52</ns3:cad>
          </ns3:TrackPointExtension>
        </extensions>
      </trkpt>
      <trkpt lat="45.3133210726082324981689453125" lon="-70.808702297508716583251953125">
        <ele>939.5999755859375</ele>
        <time>2026-08-21T12:54:22.000Z</time>
        <extensions>
          <ns3:TrackPointExtension>
            <ns3:hr>136</ns3:hr>
            <ns3:cad>52</ns3:cad>
          </ns3:TrackPointExtension>
        </extensions>
      </trkpt>
      <trkpt lat="45.3133074939250946044921875" lon="-70.8086991123855113983154296875">
        <ele>939.5999755859375</ele>
        <time>2026-08-21T12:54:23.000Z</time>
        <extensions>
          <ns3:TrackPointExtension>
            <ns3:hr>136</ns3:hr>
            <ns3:cad>52</ns3:cad>
          </ns3:TrackPointExtension>
        </extensions>
      </trkpt>
      <trkpt lat="45.31329534016549587249755859375" lon="-70.80869936384260654449462890625">
        <ele>939.79998779296875</ele>
        <time>2026-08-21T12:54:24.000Z</time>
        <extensions>
          <ns3:TrackPointExtension>
            <ns3:hr>136</ns3:hr>
            <ns3:cad>52</ns3:cad>
          </ns3:TrackPointExtension>
        </extensions>
      </trkpt>
      <trkpt lat="45.31328327022492885589599609375" lon="-70.80868930555880069732666015625">
        <ele>939.79998779296875</ele>
        <time>2026-08-21T12:54:25.000Z</time>
        <extensions>
          <ns3:TrackPointExtension>
            <ns3:hr>137</ns3:hr>
            <ns3:cad>52</ns3:cad>
          </ns3:TrackPointExtension>
        </extensions>
      </trkpt>
      <trkpt lat="45.31326617114245891571044921875" lon="-70.80867991782724857330322265625">
        <ele>939.79998779296875</ele>
        <time>2026-08-21T12:54:26.000Z</time>
        <extensions>
          <ns3:TrackPointExtension>
            <ns3:hr>137</ns3:hr>
            <ns3:cad>52</ns3:cad>
          </ns3:TrackPointExtension>
        </extensions>
      </trkpt>
      <trkpt lat="45.31325276009738445281982421875" lon="-70.80867170356214046478271484375">
        <ele>939.79998779296875</ele>
        <time>2026-08-21T12:54:27.000Z</time>
        <extensions>
          <ns3:TrackPointExtension>
            <ns3:hr>137</ns3:hr>
            <ns3:cad>52</ns3:cad>
          </ns3:TrackPointExtension>
        </extensions>
      </trkpt>
      <trkpt lat="45.313238091766834259033203125" lon="-70.80866700969636440277099609375">
        <ele>939.79998779296875</ele>
        <time>2026-08-21T12:54:28.000Z</time>
        <extensions>
          <ns3:TrackPointExtension>
            <ns3:hr>138</ns3:hr>
            <ns3:cad>52</ns3:cad>
          </ns3:TrackPointExtension>
        </extensions>
      </trkpt>
      <trkpt lat="45.313230715692043304443359375" lon="-70.80866164527833461761474609375">
        <ele>940</ele>
        <time>2026-08-21T12:54:29.000Z</time>
        <extensions>
          <ns3:TrackPointExtension>
            <ns3:hr>138</ns3:hr>
            <ns3:cad>52</ns3:cad>
          </ns3:TrackPointExtension>
        </extensions>
      </trkpt>
      <trkpt lat="45.31321587972342967987060546875" lon="-70.8086598850786685943603515625">
        <ele>940</ele>
        <time>2026-08-21T12:54:30.000Z</time>
        <extensions>
          <ns3:TrackPointExtension>
            <ns3:hr>139</ns3:hr>
            <ns3:cad>52</ns3:cad>
          </ns3:TrackPointExtension>
        </extensions>
      </trkpt>
      <trkpt lat="45.3131983615458011627197265625" lon="-70.80865359865128993988037109375">
        <ele>940</ele>
        <time>2026-08-21T12:54:31.000Z</time>
        <extensions>
          <ns3:TrackPointExtension>
            <ns3:hr>139</ns3:hr>
            <ns3:cad>48</ns3:cad>
          </ns3:TrackPointExtension>
        </extensions>
      </trkpt>
      <trkpt lat="45.313182771205902099609375" lon="-70.8086550235748291015625">
        <ele>940</ele>
        <time>2026-08-21T12:54:32.000Z</time>
        <extensions>
          <ns3:TrackPointExtension>
            <ns3:hr>139</ns3:hr>
            <ns3:cad>48</ns3:cad>
          </ns3:TrackPointExtension>
        </extensions>
      </trkpt>
      <trkpt lat="45.31317078508436679840087890625" lon="-70.8086565323173999786376953125">
        <ele>940</ele>
        <time>2026-08-21T12:54:33.000Z</time>
        <extensions>
          <ns3:TrackPointExtension>
            <ns3:hr>139</ns3:hr>
            <ns3:cad>48</ns3:cad>
          </ns3:TrackPointExtension>
        </extensions>
      </trkpt>
      <trkpt lat="45.3131655044853687286376953125" lon="-70.80864639021456241607666015625">
        <ele>940</ele>
        <time>2026-08-21T12:54:34.000Z</time>
        <extensions>
          <ns3:TrackPointExtension>
            <ns3:hr>139</ns3:hr>
            <ns3:cad>48</ns3:cad>
          </ns3:TrackPointExtension>
        </extensions>
      </trkpt>
      <trkpt lat="45.31315452419221401214599609375" lon="-70.8086417801678180694580078125">
        <ele>940</ele>
        <time>2026-08-21T12:54:35.000Z</time>
        <extensions>
          <ns3:TrackPointExtension>
            <ns3:hr>139</ns3:hr>
            <ns3:cad>0</ns3:cad>
          </ns3:TrackPointExtension>
        </extensions>
      </trkpt>
      <trkpt lat="45.31313650310039520263671875" lon="-70.80863784067332744598388671875">
        <ele>940</ele>
        <time>2026-08-21T12:54:36.000Z</time>
        <extensions>
          <ns3:TrackPointExtension>
            <ns3:hr>138</ns3:hr>
            <ns3:cad>0</ns3:cad>
          </ns3:TrackPointExtension>
        </extensions>
      </trkpt>
      <trkpt lat="45.313123762607574462890625" lon="-70.8086335659027099609375">
        <ele>940</ele>
        <time>2026-08-21T12:54:37.000Z</time>
        <extensions>
          <ns3:TrackPointExtension>
            <ns3:hr>138</ns3:hr>
            <ns3:cad>0</ns3:cad>
          </ns3:TrackPointExtension>
        </extensions>
      </trkpt>
      <trkpt lat="45.31311127357184886932373046875" lon="-70.80862912349402904510498046875">
        <ele>940</ele>
        <time>2026-08-21T12:54:38.000Z</time>
        <extensions>
          <ns3:TrackPointExtension>
            <ns3:hr>138</ns3:hr>
            <ns3:cad>0</ns3:cad>
          </ns3:TrackPointExtension>
        </extensions>
      </trkpt>
      <trkpt lat="45.31309702433645725250244140625" lon="-70.80862811766564846038818359375">
        <ele>940</ele>
        <time>2026-08-21T12:54:39.000Z</time>
        <extensions>
          <ns3:TrackPointExtension>
            <ns3:hr>138</ns3:hr>
            <ns3:cad>0</ns3:cad>
          </ns3:TrackPointExtension>
        </extensions>
      </trkpt>
      <trkpt lat="45.31308420002460479736328125" lon="-70.808621831238269805908203125">
        <ele>940</ele>
        <time>2026-08-21T12:54:40.000Z</time>
        <extensions>
          <ns3:TrackPointExtension>
            <ns3:hr>138</ns3:hr>
            <ns3:cad>0</ns3:cad>
          </ns3:TrackPointExtension>
        </extensions>
      </trkpt>
      <trkpt lat="45.31307405792176723480224609375" lon="-70.80861504189670085906982421875">
        <ele>940</ele>
        <time>2026-08-21T12:54:41.000Z</time>
        <extensions>
          <ns3:TrackPointExtension>
            <ns3:hr>137</ns3:hr>
            <ns3:cad>0</ns3:cad>
          </ns3:TrackPointExtension>
        </extensions>
      </trkpt>
      <trkpt lat="45.31306249089539051055908203125" lon="-70.80861252732574939727783203125">
        <ele>940.20001220703125</ele>
        <time>2026-08-21T12:54:42.000Z</time>
        <extensions>
          <ns3:TrackPointExtension>
            <ns3:hr>137</ns3:hr>
            <ns3:cad>53</ns3:cad>
          </ns3:TrackPointExtension>
        </extensions>
      </trkpt>
      <trkpt lat="45.3130511753261089324951171875" lon="-70.8086116053164005279541015625">
        <ele>940.20001220703125</ele>
        <time>2026-08-21T12:54:43.000Z</time>
        <extensions>
          <ns3:TrackPointExtension>
            <ns3:hr>137</ns3:hr>
            <ns3:cad>53</ns3:cad>
          </ns3:TrackPointExtension>
        </extensions>
      </trkpt>
      <trkpt lat="45.31304128468036651611328125" lon="-70.80861001275479793548583984375">
        <ele>940.20001220703125</ele>
        <time>2026-08-21T12:54:44.000Z</time>
        <extensions>
          <ns3:TrackPointExtension>
            <ns3:hr>137</ns3:hr>
            <ns3:cad>53</ns3:cad>
          </ns3:TrackPointExtension>
        </extensions>
      </trkpt>
      <trkpt lat="45.3130327351391315460205078125" lon="-70.8086134493350982666015625">
        <ele>940.4000244140625</ele>
        <time>2026-08-21T12:54:45.000Z</time>
        <extensions>
          <ns3:TrackPointExtension>
            <ns3:hr>136</ns3:hr>
            <ns3:cad>49</ns3:cad>
          </ns3:TrackPointExtension>
        </extensions>
      </trkpt>
      <trkpt lat="45.31302519142627716064453125" lon="-70.808613784611225128173828125">
        <ele>940.4000244140625</ele>
        <time>2026-08-21T12:54:46.000Z</time>
        <extensions>
          <ns3:TrackPointExtension>
            <ns3:hr>135</ns3:hr>
            <ns3:cad>49</ns3:cad>
          </ns3:TrackPointExtension>
        </extensions>
      </trkpt>
      <trkpt lat="45.31301689334213733673095703125" lon="-70.808610431849956512451171875">
        <ele>940.4000244140625</ele>
        <time>2026-08-21T12:54:47.000Z</time>
        <extensions>
          <ns3:TrackPointExtension>
            <ns3:hr>134</ns3:hr>
            <ns3:cad>49</ns3:cad>
          </ns3:TrackPointExtension>
        </extensions>
      </trkpt>
      <trkpt lat="45.313008092343807220458984375" lon="-70.80861085094511508941650390625">
        <ele>940.4000244140625</ele>
        <time>2026-08-21T12:54:48.000Z</time>
        <extensions>
          <ns3:TrackPointExtension>
            <ns3:hr>133</ns3:hr>
            <ns3:cad>49</ns3:cad>
          </ns3:TrackPointExtension>
        </extensions>
      </trkpt>
      <trkpt lat="45.313001386821269989013671875" lon="-70.8086089231073856353759765625">
        <ele>940.5999755859375</ele>
        <time>2026-08-21T12:54:49.000Z</time>
        <extensions>
          <ns3:TrackPointExtension>
            <ns3:hr>132</ns3:hr>
            <ns3:cad>0</ns3:cad>
          </ns3:TrackPointExtension>
        </extensions>
      </trkpt>
      <trkpt lat="45.31299409456551074981689453125" lon="-70.8086038939654827117919921875">
        <ele>940.5999755859375</ele>
        <time>2026-08-21T12:54:50.000Z</time>
        <extensions>
          <ns3:TrackPointExtension>
            <ns3:hr>131</ns3:hr>
            <ns3:cad>43</ns3:cad>
          </ns3:TrackPointExtension>
        </extensions>
      </trkpt>
      <trkpt lat="45.3129898197948932647705078125" lon="-70.80860096029937267303466796875">
        <ele>940.79998779296875</ele>
        <time>2026-08-21T12:54:51.000Z</time>
        <extensions>
          <ns3:TrackPointExtension>
            <ns3:hr>131</ns3:hr>
            <ns3:cad>43</ns3:cad>
          </ns3:TrackPointExtension>
        </extensions>
      </trkpt>
      <trkpt lat="45.31298898160457611083984375" lon="-70.80859995447099208831787109375">
        <ele>941</ele>
        <time>2026-08-21T12:54:52.000Z</time>
        <extensions>
          <ns3:TrackPointExtension>
            <ns3:hr>130</ns3:hr>
            <ns3:cad>41</ns3:cad>
          </ns3:TrackPointExtension>
        </extensions>
      </trkpt>
      <trkpt lat="45.3129861317574977874755859375" lon="-70.80859936773777008056640625">
        <ele>941.20001220703125</ele>
        <time>2026-08-21T12:54:53.000Z</time>
        <extensions>
          <ns3:TrackPointExtension>
            <ns3:hr>130</ns3:hr>
            <ns3:cad>41</ns3:cad>
          </ns3:TrackPointExtension>
        </extensions>
      </trkpt>
      <trkpt lat="45.31297984533011913299560546875" lon="-70.8085901476442813873291015625">
        <ele>941.4000244140625</ele>
        <time>2026-08-21T12:54:54.000Z</time>
        <extensions>
          <ns3:TrackPointExtension>
            <ns3:hr>129</ns3:hr>
            <ns3:cad>41</ns3:cad>
          </ns3:TrackPointExtension>
        </extensions>
      </trkpt>
      <trkpt lat="45.31297565437853336334228515625" lon="-70.80858654342591762542724609375">
        <ele>941.5999755859375</ele>
        <time>2026-08-21T12:54:55.000Z</time>
        <extensions>
          <ns3:TrackPointExtension>
            <ns3:hr>129</ns3:hr>
            <ns3:cad>44</ns3:cad>
          </ns3:TrackPointExtension>
        </extensions>
      </trkpt>
      <trkpt lat="45.31296886503696441650390625" lon="-70.808581598103046417236328125">
        <ele>941.79998779296875</ele>
        <time>2026-08-21T12:54:56.000Z</time>
        <extensions>
          <ns3:TrackPointExtension>
            <ns3:hr>128</ns3:hr>
            <ns3:cad>44</ns3:cad>
          </ns3:TrackPointExtension>
        </extensions>
      </trkpt>
      <trkpt lat="45.3129599802196025848388671875" lon="-70.80857598222792148590087890625">
        <ele>942</ele>
        <time>2026-08-21T12:54:57.000Z</time>
        <extensions>
          <ns3:TrackPointExtension>
            <ns3:hr>128</ns3:hr>
            <ns3:cad>44</ns3:cad>
          </ns3:TrackPointExtension>
        </extensions>
      </trkpt>
      <trkpt lat="45.312954448163509368896484375" lon="-70.80857262946665287017822265625">
        <ele>942.20001220703125</ele>
        <time>2026-08-21T12:54:58.000Z</time>
        <extensions>
          <ns3:TrackPointExtension>
            <ns3:hr>128</ns3:hr>
            <ns3:cad>44</ns3:cad>
          </ns3:TrackPointExtension>
        </extensions>
      </trkpt>
      <trkpt lat="45.31295252032577991485595703125" lon="-70.808569528162479400634765625">
        <ele>942.5999755859375</ele>
        <time>2026-08-21T12:54:59.000Z</time>
        <extensions>
          <ns3:TrackPointExtension>
            <ns3:hr>128</ns3:hr>
            <ns3:cad>44</ns3:cad>
          </ns3:TrackPointExtension>
        </extensions>
      </trkpt>
      <trkpt lat="45.312940366566181182861328125" lon="-70.80856089480221271514892578125">
        <ele>942.79998779296875</ele>
        <time>2026-08-21T12:55:00.000Z</time>
        <extensions>
          <ns3:TrackPointExtension>
            <ns3:hr>129</ns3:hr>
            <ns3:cad>44</ns3:cad>
          </ns3:TrackPointExtension>
        </extensions>
      </trkpt>
      <trkpt lat="45.3129385225474834442138671875" lon="-70.80855921842157840728759765625">
        <ele>943.20001220703125</ele>
        <time>2026-08-21T12:55:01.000Z</time>
        <extensions>
          <ns3:TrackPointExtension>
            <ns3:hr>129</ns3:hr>
            <ns3:cad>43</ns3:cad>
          </ns3:TrackPointExtension>
        </extensions>
      </trkpt>
      <trkpt lat="45.31292821280658245086669921875" lon="-70.80855309963226318359375">
        <ele>943.5999755859375</ele>
        <time>2026-08-21T12:55:02.000Z</time>
        <extensions>
          <ns3:TrackPointExtension>
            <ns3:hr>130</ns3:hr>
            <ns3:cad>43</ns3:cad>
          </ns3:TrackPointExtension>
        </extensions>
      </trkpt>
      <trkpt lat="45.3129239380359649658203125" lon="-70.8085529319941997528076171875">
        <ele>943.79998779296875</ele>
        <time>2026-08-21T12:55:03.000Z</time>
        <extensions>
          <ns3:TrackPointExtension>
            <ns3:hr>130</ns3:hr>
            <ns3:cad>43</ns3:cad>
          </ns3:TrackPointExtension>
        </extensions>
      </trkpt>
      <trkpt lat="45.3129160590469837188720703125" lon="-70.80854304134845733642578125">
        <ele>944.20001220703125</ele>
        <time>2026-08-21T12:55:04.000Z</time>
        <extensions>
          <ns3:TrackPointExtension>
            <ns3:hr>131</ns3:hr>
            <ns3:cad>43</ns3:cad>
          </ns3:TrackPointExtension>
        </extensions>
      </trkpt>
      <trkpt lat="45.3129103593528270721435546875" lon="-70.8085398562252521514892578125">
        <ele>944.4000244140625</ele>
        <time>2026-08-21T12:55:05.000Z</time>
        <extensions>
          <ns3:TrackPointExtension>
            <ns3:hr>132</ns3:hr>
            <ns3:cad>43</ns3:cad>
          </ns3:TrackPointExtension>
        </extensions>
      </trkpt>
      <trkpt lat="45.31290046870708465576171875" lon="-70.80854111351072788238525390625">
        <ele>944.79998779296875</ele>
        <time>2026-08-21T12:55:06.000Z</time>
        <extensions>
          <ns3:TrackPointExtension>
            <ns3:hr>134</ns3:hr>
            <ns3:cad>0</ns3:cad>
          </ns3:TrackPointExtension>
        </extensions>
      </trkpt>
      <trkpt lat="45.31288814730942249298095703125" lon="-70.808537006378173828125">
        <ele>945</ele>
        <time>2026-08-21T12:55:07.000Z</time>
        <extensions>
          <ns3:TrackPointExtension>
            <ns3:hr>134</ns3:hr>
            <ns3:cad>0</ns3:cad>
          </ns3:TrackPointExtension>
        </extensions>
      </trkpt>
      <trkpt lat="45.31288093887269496917724609375" lon="-70.8085331507027149200439453125">
        <ele>945.4000244140625</ele>
        <time>2026-08-21T12:55:08.000Z</time>
        <extensions>
          <ns3:TrackPointExtension>
            <ns3:hr>135</ns3:hr>
            <ns3:cad>0</ns3:cad>
          </ns3:TrackPointExtension>
        </extensions>
      </trkpt>
      <trkpt lat="45.31287473626434803009033203125" lon="-70.808528624475002288818359375">
        <ele>945.5999755859375</ele>
        <time>2026-08-21T12:55:09.000Z</time>
        <extensions>
          <ns3:TrackPointExtension>
            <ns3:hr>136</ns3:hr>
            <ns3:cad>0</ns3:cad>
          </ns3:TrackPointExtension>
        </extensions>
      </trkpt>
      <trkpt lat="45.3128635883331298828125" lon="-70.8085207454860210418701171875">
        <ele>945.79998779296875</ele>
        <time>2026-08-21T12:55:10.000Z</time>
        <extensions>
          <ns3:TrackPointExtension>
            <ns3:hr>137</ns3:hr>
            <ns3:cad>0</ns3:cad>
          </ns3:TrackPointExtension>
        </extensions>
      </trkpt>
      <trkpt lat="45.31285822391510009765625" lon="-70.808515883982181549072265625">
        <ele>946</ele>
        <time>2026-08-21T12:55:11.000Z</time>
        <extensions>
          <ns3:TrackPointExtension>
            <ns3:hr>138</ns3:hr>
            <ns3:cad>0</ns3:cad>
          </ns3:TrackPointExtension>
        </extensions>
      </trkpt>
      <trkpt lat="45.31284154392778873443603515625" lon="-70.808509849011898040771484375">
        <ele>946.20001220703125</ele>
        <time>2026-08-21T12:55:12.000Z</time>
        <extensions>
          <ns3:TrackPointExtension>
            <ns3:hr>139</ns3:hr>
            <ns3:cad>0</ns3:cad>
          </ns3:TrackPointExtension>
        </extensions>
      </trkpt>
      <trkpt lat="45.312829725444316864013671875" lon="-70.8085059933364391326904296875">
        <ele>946.5999755859375</ele>
        <time>2026-08-21T12:55:13.000Z</time>
        <extensions>
          <ns3:TrackPointExtension>
            <ns3:hr>139</ns3:hr>
            <ns3:cad>51</ns3:cad>
          </ns3:TrackPointExtension>
        </extensions>
      </trkpt>
      <trkpt lat="45.3128168173134326934814453125" lon="-70.8085073344409465789794921875">
        <ele>946.79998779296875</ele>
        <time>2026-08-21T12:55:14.000Z</time>
        <extensions>
          <ns3:TrackPointExtension>
            <ns3:hr>140</ns3:hr>
            <ns3:cad>51</ns3:cad>
          </ns3:TrackPointExtension>
        </extensions>
      </trkpt>
      <trkpt lat="45.31280449591577053070068359375" lon="-70.80850037746131420135498046875">
        <ele>947</ele>
        <time>2026-08-21T12:55:15.000Z</time>
        <extensions>
          <ns3:TrackPointExtension>
            <ns3:hr>141</ns3:hr>
            <ns3:cad>51</ns3:cad>
          </ns3:TrackPointExtension>
        </extensions>
      </trkpt>
      <trkpt lat="45.3127920068800449371337890625" lon="-70.80850012600421905517578125">
        <ele>947.20001220703125</ele>
        <time>2026-08-21T12:55:16.000Z</time>
        <extensions>
          <ns3:TrackPointExtension>
            <ns3:hr>141</ns3:hr>
            <ns3:cad>47</ns3:cad>
          </ns3:TrackPointExtension>
        </extensions>
      </trkpt>
      <trkpt lat="45.31277834437787532806396484375" lon="-70.80850088037550449371337890625">
        <ele>947.4000244140625</ele>
        <time>2026-08-21T12:55:17.000Z</time>
        <extensions>
          <ns3:TrackPointExtension>
            <ns3:hr>142</ns3:hr>
            <ns3:cad>47</ns3:cad>
          </ns3:TrackPointExtension>
        </extensions>
      </trkpt>
      <trkpt lat="45.31276560388505458831787109375" lon="-70.8085006289184093475341796875">
        <ele>947.4000244140625</ele>
        <time>2026-08-21T12:55:18.000Z</time>
        <extensions>
          <ns3:TrackPointExtension>
            <ns3:hr>142</ns3:hr>
            <ns3:cad>51</ns3:cad>
          </ns3:TrackPointExtension>
        </extensions>
      </trkpt>
      <trkpt lat="45.31275353394448757171630859375" lon="-70.80849744379520416259765625">
        <ele>947.5999755859375</ele>
        <time>2026-08-21T12:55:19.000Z</time>
        <extensions>
          <ns3:TrackPointExtension>
            <ns3:hr>142</ns3:hr>
            <ns3:cad>51</ns3:cad>
          </ns3:TrackPointExtension>
        </extensions>
      </trkpt>
      <trkpt lat="45.31274129636585712432861328125" lon="-70.8084900677204132080078125">
        <ele>947.79998779296875</ele>
        <time>2026-08-21T12:55:20.000Z</time>
        <extensions>
          <ns3:TrackPointExtension>
            <ns3:hr>142</ns3:hr>
            <ns3:cad>51</ns3:cad>
          </ns3:TrackPointExtension>
        </extensions>
      </trkpt>
      <trkpt lat="45.312732160091400146484375" lon="-70.80848562531173229217529296875">
        <ele>948</ele>
        <time>2026-08-21T12:55:21.000Z</time>
        <extensions>
          <ns3:TrackPointExtension>
            <ns3:hr>143</ns3:hr>
            <ns3:cad>50</ns3:cad>
          </ns3:TrackPointExtension>
        </extensions>
      </trkpt>
      <trkpt lat="45.3127212636172771453857421875" lon="-70.80848109908401966094970703125">
        <ele>948.4000244140625</ele>
        <time>2026-08-21T12:55:22.000Z</time>
        <extensions>
          <ns3:TrackPointExtension>
            <ns3:hr>144</ns3:hr>
            <ns3:cad>50</ns3:cad>
          </ns3:TrackPointExtension>
        </extensions>
      </trkpt>
      <trkpt lat="45.3127158991992473602294921875" lon="-70.8084774948656558990478515625">
        <ele>948.79998779296875</ele>
        <time>2026-08-21T12:55:23.000Z</time>
        <extensions>
          <ns3:TrackPointExtension>
            <ns3:hr>144</ns3:hr>
            <ns3:cad>0</ns3:cad>
          </ns3:TrackPointExtension>
        </extensions>
      </trkpt>
      <trkpt lat="45.3127101995050907135009765625" lon="-70.80847464501857757568359375">
        <ele>949</ele>
        <time>2026-08-21T12:55:24.000Z</time>
        <extensions>
          <ns3:TrackPointExtension>
            <ns3:hr>145</ns3:hr>
            <ns3:cad>0</ns3:cad>
          </ns3:TrackPointExtension>
        </extensions>
      </trkpt>
      <trkpt lat="45.312701649963855743408203125" lon="-70.80847087316215038299560546875">
        <ele>949.4000244140625</ele>
        <time>2026-08-21T12:55:25.000Z</time>
        <extensions>
          <ns3:TrackPointExtension>
            <ns3:hr>145</ns3:hr>
            <ns3:cad>50</ns3:cad>
          </ns3:TrackPointExtension>
        </extensions>
      </trkpt>
      <trkpt lat="45.31268932856619358062744140625" lon="-70.80846215598285198211669921875">
        <ele>949.5999755859375</ele>
        <time>2026-08-21T12:55:26.000Z</time>
        <extensions>
          <ns3:TrackPointExtension>
            <ns3:hr>145</ns3:hr>
            <ns3:cad>50</ns3:cad>
          </ns3:TrackPointExtension>
        </extensions>
      </trkpt>
      <trkpt lat="45.31267977319657802581787109375" lon="-70.8084600605070590972900390625">
        <ele>950</ele>
        <time>2026-08-21T12:55:27.000Z</time>
        <extensions>
          <ns3:TrackPointExtension>
            <ns3:hr>146</ns3:hr>
            <ns3:cad>50</ns3:cad>
          </ns3:TrackPointExtension>
        </extensions>
      </trkpt>
      <trkpt lat="45.3126719780266284942626953125" lon="-70.80845997668802738189697265625">
        <ele>950.20001220703125</ele>
        <time>2026-08-21T12:55:28.000Z</time>
        <extensions>
          <ns3:TrackPointExtension>
            <ns3:hr>146</ns3:hr>
            <ns3:cad>50</ns3:cad>
          </ns3:TrackPointExtension>
        </extensions>
      </trkpt>
      <trkpt lat="45.31266418285667896270751953125" lon="-70.8084597252309322357177734375">
        <ele>950.4000244140625</ele>
        <time>2026-08-21T12:55:29.000Z</time>
        <extensions>
          <ns3:TrackPointExtension>
            <ns3:hr>146</ns3:hr>
            <ns3:cad>50</ns3:cad>
          </ns3:TrackPointExtension>
        </extensions>
      </trkpt>
      <trkpt lat="45.31265228055417537689208984375" lon="-70.80845511518418788909912109375">
        <ele>950.79998779296875</ele>
        <time>2026-08-21T12:55:30.000Z</time>
        <extensions>
          <ns3:TrackPointExtension>
            <ns3:hr>146</ns3:hr>
            <ns3:cad>48</ns3:cad>
          </ns3:TrackPointExtension>
        </extensions>
      </trkpt>
      <trkpt lat="45.31264406628906726837158203125" lon="-70.808448828756809234619140625">
        <ele>951</ele>
        <time>2026-08-21T12:55:31.000Z</time>
        <extensions>
          <ns3:TrackPointExtension>
            <ns3:hr>147</ns3:hr>
            <ns3:cad>48</ns3:cad>
          </ns3:TrackPointExtension>
        </extensions>
      </trkpt>
      <trkpt lat="45.31263618730008602142333984375" lon="-70.80844338051974773406982421875">
        <ele>951.20001220703125</ele>
        <time>2026-08-21T12:55:32.000Z</time>
        <extensions>
          <ns3:TrackPointExtension>
            <ns3:hr>147</ns3:hr>
            <ns3:cad>48</ns3:cad>
          </ns3:TrackPointExtension>
        </extensions>
      </trkpt>
      <trkpt lat="45.31262286007404327392578125" lon="-70.80844287760555744171142578125">
        <ele>951.4000244140625</ele>
        <time>2026-08-21T12:55:33.000Z</time>
        <extensions>
          <ns3:TrackPointExtension>
            <ns3:hr>148</ns3:hr>
            <ns3:cad>47</ns3:cad>
          </ns3:TrackPointExtension>
        </extensions>
      </trkpt>
      <trkpt lat="45.312615148723125457763671875" lon="-70.8084432967007160186767578125">
        <ele>951.5999755859375</ele>
        <time>2026-08-21T12:55:34.000Z</time>
        <extensions>
          <ns3:TrackPointExtension>
            <ns3:hr>149</ns3:hr>
            <ns3:cad>47</ns3:cad>
          </ns3:TrackPointExtension>
        </extensions>
      </trkpt>
      <trkpt lat="45.3126012347638607025146484375" lon="-70.808445475995540618896484375">
        <ele>951.79998779296875</ele>
        <time>2026-08-21T12:55:35.000Z</time>
        <extensions>
          <ns3:TrackPointExtension>
            <ns3:hr>149</ns3:hr>
            <ns3:cad>44</ns3:cad>
          </ns3:TrackPointExtension>
        </extensions>
      </trkpt>
      <trkpt lat="45.31258874572813510894775390625" lon="-70.808441452682018280029296875">
        <ele>952</ele>
        <time>2026-08-21T12:55:36.000Z</time>
        <extensions>
          <ns3:TrackPointExtension>
            <ns3:hr>149</ns3:hr>
            <ns3:cad>44</ns3:cad>
          </ns3:TrackPointExtension>
        </extensions>
      </trkpt>
      <trkpt lat="45.31257726252079010009765625" lon="-70.8084369264543056488037109375">
        <ele>952.20001220703125</ele>
        <time>2026-08-21T12:55:37.000Z</time>
        <extensions>
          <ns3:TrackPointExtension>
            <ns3:hr>149</ns3:hr>
            <ns3:cad>45</ns3:cad>
          </ns3:TrackPointExtension>
        </extensions>
      </trkpt>
      <trkpt lat="45.31256577931344509124755859375" lon="-70.80843885429203510284423828125">
        <ele>952.4000244140625</ele>
        <time>2026-08-21T12:55:38.000Z</time>
        <extensions>
          <ns3:TrackPointExtension>
            <ns3:hr>149</ns3:hr>
            <ns3:cad>45</ns3:cad>
          </ns3:TrackPointExtension>
        </extensions>
      </trkpt>
      <trkpt lat="45.312555469572544097900390625" lon="-70.8084426261484622955322265625">
        <ele>952.5999755859375</ele>
        <time>2026-08-21T12:55:39.000Z</time>
        <extensions>
          <ns3:TrackPointExtension>
            <ns3:hr>149</ns3:hr>
            <ns3:cad>45</ns3:cad>
          </ns3:TrackPointExtension>
        </extensions>
      </trkpt>
      <trkpt lat="45.31254398636519908905029296875" lon="-70.80844623036682605743408203125">
        <ele>952.79998779296875</ele>
        <time>2026-08-21T12:55:40.000Z</time>
        <extensions>
          <ns3:TrackPointExtension>
            <ns3:hr>148</ns3:hr>
            <ns3:cad>0</ns3:cad>
          </ns3:TrackPointExtension>
        </extensions>
      </trkpt>
      <trkpt lat="45.3125278092920780181884765625" lon="-70.80844773910939693450927734375">
        <ele>953</ele>
        <time>2026-08-21T12:55:41.000Z</time>
        <extensions>
          <ns3:TrackPointExtension>
            <ns3:hr>149</ns3:hr>
            <ns3:cad>0</ns3:cad>
          </ns3:TrackPointExtension>
        </extensions>
      </trkpt>
      <trkpt lat="45.31251817010343074798583984375" lon="-70.8084453083574771881103515625">
        <ele>953.20001220703125</ele>
        <time>2026-08-21T12:55:42.000Z</time>
        <extensions>
          <ns3:TrackPointExtension>
            <ns3:hr>149</ns3:hr>
            <ns3:cad>48</ns3:cad>
          </ns3:TrackPointExtension>
        </extensions>
      </trkpt>
      <trkpt lat="45.31250928528606891632080078125" lon="-70.80844840966165065765380859375">
        <ele>953.20001220703125</ele>
        <time>2026-08-21T12:55:43.000Z</time>
        <extensions>
          <ns3:TrackPointExtension>
            <ns3:hr>150</ns3:hr>
            <ns3:cad>48</ns3:cad>
          </ns3:TrackPointExtension>
        </extensions>
      </trkpt>
      <trkpt lat="45.31249972991645336151123046875" lon="-70.80844958312809467315673828125">
        <ele>953.4000244140625</ele>
        <time>2026-08-21T12:55:44.000Z</time>
        <extensions>
          <ns3:TrackPointExtension>
            <ns3:hr>150</ns3:hr>
            <ns3:cad>48</ns3:cad>
          </ns3:TrackPointExtension>
        </extensions>
      </trkpt>
      <trkpt lat="45.3124894201755523681640625" lon="-70.808446146547794342041015625">
        <ele>953.5999755859375</ele>
        <time>2026-08-21T12:55:45.000Z</time>
        <extensions>
          <ns3:TrackPointExtension>
            <ns3:hr>150</ns3:hr>
            <ns3:cad>48</ns3:cad>
          </ns3:TrackPointExtension>
        </extensions>
      </trkpt>
      <trkpt lat="45.31248212791979312896728515625" lon="-70.808451175689697265625">
        <ele>953.79998779296875</ele>
        <time>2026-08-21T12:55:46.000Z</time>
        <extensions>
          <ns3:TrackPointExtension>
            <ns3:hr>150</ns3:hr>
            <ns3:cad>48</ns3:cad>
          </ns3:TrackPointExtension>
        </extensions>
      </trkpt>
      <trkpt lat="45.3124714829027652740478515625" lon="-70.80844773910939693450927734375">
        <ele>953.79998779296875</ele>
        <time>2026-08-21T12:55:47.000Z</time>
        <extensions>
          <ns3:TrackPointExtension>
            <ns3:hr>151</ns3:hr>
            <ns3:cad>50</ns3:cad>
          </ns3:TrackPointExtension>
        </extensions>
      </trkpt>
      <trkpt lat="45.31246234662830829620361328125" lon="-70.80844555981457233428955078125">
        <ele>954.20001220703125</ele>
        <time>2026-08-21T12:55:48.000Z</time>
        <extensions>
          <ns3:TrackPointExtension>
            <ns3:hr>150</ns3:hr>
            <ns3:cad>50</ns3:cad>
          </ns3:TrackPointExtension>
        </extensions>
      </trkpt>
      <trkpt lat="45.312452204525470733642578125" lon="-70.80844572745263576507568359375">
        <ele>954.4000244140625</ele>
        <time>2026-08-21T12:55:49.000Z</time>
        <extensions>
          <ns3:TrackPointExtension>
            <ns3:hr>150</ns3:hr>
            <ns3:cad>50</ns3:cad>
          </ns3:TrackPointExtension>
        </extensions>
      </trkpt>
      <trkpt lat="45.3124396316707134246826171875" lon="-70.80844857729971408843994140625">
        <ele>954.5999755859375</ele>
        <time>2026-08-21T12:55:50.000Z</time>
        <extensions>
          <ns3:TrackPointExtension>
            <ns3:hr>151</ns3:hr>
            <ns3:cad>50</ns3:cad>
          </ns3:TrackPointExtension>
        </extensions>
      </trkpt>
      <trkpt lat="45.31242881901562213897705078125" lon="-70.80845008604228496551513671875">
        <ele>954.5999755859375</ele>
        <time>2026-08-21T12:55:51.000Z</time>
        <extensions>
          <ns3:TrackPointExtension>
            <ns3:hr>150</ns3:hr>
            <ns3:cad>50</ns3:cad>
          </ns3:TrackPointExtension>
        </extensions>
      </trkpt>
      <trkpt lat="45.31241943128407001495361328125" lon="-70.80844874493777751922607421875">
        <ele>954.79998779296875</ele>
        <time>2026-08-21T12:55:52.000Z</time>
        <extensions>
          <ns3:TrackPointExtension>
            <ns3:hr>150</ns3:hr>
            <ns3:cad>48</ns3:cad>
          </ns3:TrackPointExtension>
        </extensions>
      </trkpt>
      <trkpt lat="45.31241071410477161407470703125" lon="-70.80844706855714321136474609375">
        <ele>955</ele>
        <time>2026-08-21T12:55:53.000Z</time>
        <extensions>
          <ns3:TrackPointExtension>
            <ns3:hr>151</ns3:hr>
            <ns3:cad>48</ns3:cad>
          </ns3:TrackPointExtension>
        </extensions>
      </trkpt>
      <trkpt lat="45.31240551732480525970458984375" lon="-70.8084335736930370330810546875">
        <ele>955.20001220703125</ele>
        <time>2026-08-21T12:55:54.000Z</time>
        <extensions>
          <ns3:TrackPointExtension>
            <ns3:hr>150</ns3:hr>
            <ns3:cad>48</ns3:cad>
          </ns3:TrackPointExtension>
        </extensions>
      </trkpt>
      <trkpt lat="45.312397219240665435791015625" lon="-70.808427035808563232421875">
        <ele>955.4000244140625</ele>
        <time>2026-08-21T12:55:55.000Z</time>
        <extensions>
          <ns3:TrackPointExtension>
            <ns3:hr>150</ns3:hr>
            <ns3:cad>48</ns3:cad>
          </ns3:TrackPointExtension>
        </extensions>
      </trkpt>
      <trkpt lat="45.3123903460800647735595703125" lon="-70.80842343159019947052001953125">
        <ele>955.5999755859375</ele>
        <time>2026-08-21T12:55:56.000Z</time>
        <extensions>
          <ns3:TrackPointExtension>
            <ns3:hr>150</ns3:hr>
            <ns3:cad>47</ns3:cad>
          </ns3:TrackPointExtension>
        </extensions>
      </trkpt>
      <trkpt lat="45.31238003633916378021240234375" lon="-70.8084117807447910308837890625">
        <ele>955.79998779296875</ele>
        <time>2026-08-21T12:55:57.000Z</time>
        <extensions>
          <ns3:TrackPointExtension>
            <ns3:hr>151</ns3:hr>
            <ns3:cad>47</ns3:cad>
          </ns3:TrackPointExtension>
        </extensions>
      </trkpt>
      <trkpt lat="45.312364362180233001708984375" lon="-70.80841035582125186920166015625">
        <ele>956</ele>
        <time>2026-08-21T12:55:58.000Z</time>
        <extensions>
          <ns3:TrackPointExtension>
            <ns3:hr>150</ns3:hr>
            <ns3:cad>47</ns3:cad>
          </ns3:TrackPointExtension>
        </extensions>
      </trkpt>
      <trkpt lat="45.31235572881996631622314453125" lon="-70.808407925069332122802734375">
        <ele>956.20001220703125</ele>
        <time>2026-08-21T12:55:59.000Z</time>
        <extensions>
          <ns3:TrackPointExtension>
            <ns3:hr>150</ns3:hr>
            <ns3:cad>47</ns3:cad>
          </ns3:TrackPointExtension>
        </extensions>
      </trkpt>
      <trkpt lat="45.312344245612621307373046875" lon="-70.8084064163267612457275390625">
        <ele>956.4000244140625</ele>
        <time>2026-08-21T12:56:00.000Z</time>
        <extensions>
          <ns3:TrackPointExtension>
            <ns3:hr>151</ns3:hr>
            <ns3:cad>47</ns3:cad>
          </ns3:TrackPointExtension>
        </extensions>
      </trkpt>
      <trkpt lat="45.31232873909175395965576171875" lon="-70.808409936726093292236328125">
        <ele>956.5999755859375</ele>
        <time>2026-08-21T12:56:01.000Z</time>
        <extensions>
          <ns3:TrackPointExtension>
            <ns3:hr>150</ns3:hr>
            <ns3:cad>48</ns3:cad>
          </ns3:TrackPointExtension>
        </extensions>
      </trkpt>
      <trkpt lat="45.31231499277055263519287109375" lon="-70.80841136164963245391845703125">
        <ele>956.79998779296875</ele>
        <time>2026-08-21T12:56:02.000Z</time>
        <extensions>
          <ns3:TrackPointExtension>
            <ns3:hr>150</ns3:hr>
            <ns3:cad>48</ns3:cad>
          </ns3:TrackPointExtension>
        </extensions>
      </trkpt>
      <trkpt lat="45.31230309046804904937744140625" lon="-70.80841303803026676177978515625">
        <ele>957</ele>
        <time>2026-08-21T12:56:03.000Z</time>
        <extensions>
          <ns3:TrackPointExtension>
            <ns3:hr>150</ns3:hr>
            <ns3:cad>48</ns3:cad>
          </ns3:TrackPointExtension>
        </extensions>
      </trkpt>
      <trkpt lat="45.31229185871779918670654296875" lon="-70.8084114454686641693115234375">
        <ele>957</ele>
        <time>2026-08-21T12:56:04.000Z</time>
        <extensions>
          <ns3:TrackPointExtension>
            <ns3:hr>151</ns3:hr>
            <ns3:cad>48</ns3:cad>
          </ns3:TrackPointExtension>
        </extensions>
      </trkpt>
      <trkpt lat="45.31227878294885158538818359375" lon="-70.8084090985357761383056640625">
        <ele>957.20001220703125</ele>
        <time>2026-08-21T12:56:05.000Z</time>
        <extensions>
          <ns3:TrackPointExtension>
            <ns3:hr>150</ns3:hr>
            <ns3:cad>48</ns3:cad>
          </ns3:TrackPointExtension>
        </extensions>
      </trkpt>
      <trkpt lat="45.31226855702698230743408203125" lon="-70.80840532667934894561767578125">
        <ele>957.20001220703125</ele>
        <time>2026-08-21T12:56:06.000Z</time>
        <extensions>
          <ns3:TrackPointExtension>
            <ns3:hr>150</ns3:hr>
            <ns3:cad>48</ns3:cad>
          </ns3:TrackPointExtension>
        </extensions>
      </trkpt>
      <trkpt lat="45.31225883401930332183837890625" lon="-70.80839979462325572967529296875">
        <ele>957.4000244140625</ele>
        <time>2026-08-21T12:56:07.000Z</time>
        <extensions>
          <ns3:TrackPointExtension>
            <ns3:hr>150</ns3:hr>
            <ns3:cad>48</ns3:cad>
          </ns3:TrackPointExtension>
        </extensions>
      </trkpt>
      <trkpt lat="45.31224776990711688995361328125" lon="-70.8083993755280971527099609375">
        <ele>957.5999755859375</ele>
        <time>2026-08-21T12:56:08.000Z</time>
        <extensions>
          <ns3:TrackPointExtension>
            <ns3:hr>150</ns3:hr>
            <ns3:cad>47</ns3:cad>
          </ns3:TrackPointExtension>
        </extensions>
      </trkpt>
      <trkpt lat="45.312231592833995819091796875" lon="-70.8083987049758434295654296875">
        <ele>957.5999755859375</ele>
        <time>2026-08-21T12:56:09.000Z</time>
        <extensions>
          <ns3:TrackPointExtension>
            <ns3:hr>150</ns3:hr>
            <ns3:cad>48</ns3:cad>
          </ns3:TrackPointExtension>
        </extensions>
      </trkpt>
      <trkpt lat="45.31221918761730194091796875" lon="-70.80839728005230426788330078125">
        <ele>957.79998779296875</ele>
        <time>2026-08-21T12:56:10.000Z</time>
        <extensions>
          <ns3:TrackPointExtension>
            <ns3:hr>150</ns3:hr>
            <ns3:cad>48</ns3:cad>
          </ns3:TrackPointExtension>
        </extensions>
      </trkpt>
      <trkpt lat="45.31220904551446437835693359375" lon="-70.8083950169384479522705078125">
        <ele>958</ele>
        <time>2026-08-21T12:56:11.000Z</time>
        <extensions>
          <ns3:TrackPointExtension>
            <ns3:hr>150</ns3:hr>
            <ns3:cad>48</ns3:cad>
          </ns3:TrackPointExtension>
        </extensions>
      </trkpt>
      <trkpt lat="45.31219244934618473052978515625" lon="-70.80839728005230426788330078125">
        <ele>958.20001220703125</ele>
        <time>2026-08-21T12:56:12.000Z</time>
        <extensions>
          <ns3:TrackPointExtension>
            <ns3:hr>150</ns3:hr>
            <ns3:cad>48</ns3:cad>
          </ns3:TrackPointExtension>
        </extensions>
      </trkpt>
      <trkpt lat="45.3121851570904254913330078125" lon="-70.80840356647968292236328125">
        <ele>958.4000244140625</ele>
        <time>2026-08-21T12:56:13.000Z</time>
        <extensions>
          <ns3:TrackPointExtension>
            <ns3:hr>149</ns3:hr>
            <ns3:cad>51</ns3:cad>
          </ns3:TrackPointExtension>
        </extensions>
      </trkpt>
      <trkpt lat="45.31216797418892383575439453125" lon="-70.8084117807447910308837890625">
        <ele>958.5999755859375</ele>
        <time>2026-08-21T12:56:14.000Z</time>
        <extensions>
          <ns3:TrackPointExtension>
            <ns3:hr>149</ns3:hr>
            <ns3:cad>51</ns3:cad>
          </ns3:TrackPointExtension>
        </extensions>
      </trkpt>
      <trkpt lat="45.31215615570545196533203125" lon="-70.8084164746105670928955078125">
        <ele>958.79998779296875</ele>
        <time>2026-08-21T12:56:15.000Z</time>
        <extensions>
          <ns3:TrackPointExtension>
            <ns3:hr>148</ns3:hr>
            <ns3:cad>51</ns3:cad>
          </ns3:TrackPointExtension>
        </extensions>
      </trkpt>
      <trkpt lat="45.31214886344969272613525390625" lon="-70.80841035582125186920166015625">
        <ele>959</ele>
        <time>2026-08-21T12:56:16.000Z</time>
        <extensions>
          <ns3:TrackPointExtension>
            <ns3:hr>148</ns3:hr>
            <ns3:cad>51</ns3:cad>
          </ns3:TrackPointExtension>
        </extensions>
      </trkpt>
      <trkpt lat="45.3121355362236499786376953125" lon="-70.808405578136444091796875">
        <ele>959.4000244140625</ele>
        <time>2026-08-21T12:56:17.000Z</time>
        <extensions>
          <ns3:TrackPointExtension>
            <ns3:hr>147</ns3:hr>
            <ns3:cad>51</ns3:cad>
          </ns3:TrackPointExtension>
        </extensions>
      </trkpt>
      <trkpt lat="45.3121254779398441314697265625" lon="-70.80840222537517547607421875">
        <ele>959.5999755859375</ele>
        <time>2026-08-21T12:56:18.000Z</time>
        <extensions>
          <ns3:TrackPointExtension>
            <ns3:hr>147</ns3:hr>
            <ns3:cad>51</ns3:cad>
          </ns3:TrackPointExtension>
        </extensions>
      </trkpt>
      <trkpt lat="45.312116257846355438232421875" lon="-70.808399207890033721923828125">
        <ele>959.79998779296875</ele>
        <time>2026-08-21T12:56:19.000Z</time>
        <extensions>
          <ns3:TrackPointExtension>
            <ns3:hr>147</ns3:hr>
            <ns3:cad>51</ns3:cad>
          </ns3:TrackPointExtension>
        </extensions>
      </trkpt>
      <trkpt lat="45.312105529010295867919921875" lon="-70.80840096808969974517822265625">
        <ele>960</ele>
        <time>2026-08-21T12:56:20.000Z</time>
        <extensions>
          <ns3:TrackPointExtension>
            <ns3:hr>147</ns3:hr>
            <ns3:cad>0</ns3:cad>
          </ns3:TrackPointExtension>
        </extensions>
      </trkpt>
      <trkpt lat="45.3120922856032848358154296875" lon="-70.80839845351874828338623046875">
        <ele>960</ele>
        <time>2026-08-21T12:56:21.000Z</time>
        <extensions>
          <ns3:TrackPointExtension>
            <ns3:hr>148</ns3:hr>
            <ns3:cad>0</ns3:cad>
          </ns3:TrackPointExtension>
        </extensions>
      </trkpt>
      <trkpt lat="45.31207845546305179595947265625" lon="-70.8083976991474628448486328125">
        <ele>960</ele>
        <time>2026-08-21T12:56:22.000Z</time>
        <extensions>
          <ns3:TrackPointExtension>
            <ns3:hr>147</ns3:hr>
            <ns3:cad>0</ns3:cad>
          </ns3:TrackPointExtension>
        </extensions>
      </trkpt>
      <trkpt lat="45.312066972255706787109375" lon="-70.808403901755809783935546875">
        <ele>960</ele>
        <time>2026-08-21T12:56:23.000Z</time>
        <extensions>
          <ns3:TrackPointExtension>
            <ns3:hr>148</ns3:hr>
            <ns3:cad>49</ns3:cad>
          </ns3:TrackPointExtension>
        </extensions>
      </trkpt>
      <trkpt lat="45.3120537288486957550048828125" lon="-70.8084074221551418304443359375">
        <ele>959.79998779296875</ele>
        <time>2026-08-21T12:56:24.000Z</time>
        <extensions>
          <ns3:TrackPointExtension>
            <ns3:hr>148</ns3:hr>
            <ns3:cad>49</ns3:cad>
          </ns3:TrackPointExtension>
        </extensions>
      </trkpt>
      <trkpt lat="45.31203654594719409942626953125" lon="-70.8084107749164104461669921875">
        <ele>959.5999755859375</ele>
        <time>2026-08-21T12:56:25.000Z</time>
        <extensions>
          <ns3:TrackPointExtension>
            <ns3:hr>148</ns3:hr>
            <ns3:cad>49</ns3:cad>
          </ns3:TrackPointExtension>
        </extensions>
      </trkpt>
      <trkpt lat="45.31202011741697788238525390625" lon="-70.80841085873544216156005859375">
        <ele>959.5999755859375</ele>
        <time>2026-08-21T12:56:26.000Z</time>
        <extensions>
          <ns3:TrackPointExtension>
            <ns3:hr>148</ns3:hr>
            <ns3:cad>49</ns3:cad>
          </ns3:TrackPointExtension>
        </extensions>
      </trkpt>
      <trkpt lat="45.3120054490864276885986328125" lon="-70.80841186456382274627685546875">
        <ele>959.4000244140625</ele>
        <time>2026-08-21T12:56:27.000Z</time>
        <extensions>
          <ns3:TrackPointExtension>
            <ns3:hr>148</ns3:hr>
            <ns3:cad>54</ns3:cad>
          </ns3:TrackPointExtension>
        </extensions>
      </trkpt>
      <trkpt lat="45.311990864574909210205078125" lon="-70.80841027200222015380859375">
        <ele>959.4000244140625</ele>
        <time>2026-08-21T12:56:28.000Z</time>
        <extensions>
          <ns3:TrackPointExtension>
            <ns3:hr>148</ns3:hr>
            <ns3:cad>54</ns3:cad>
          </ns3:TrackPointExtension>
        </extensions>
      </trkpt>
      <trkpt lat="45.31197502277791500091552734375" lon="-70.80841069109737873077392578125">
        <ele>959.4000244140625</ele>
        <time>2026-08-21T12:56:29.000Z</time>
        <extensions>
          <ns3:TrackPointExtension>
            <ns3:hr>148</ns3:hr>
            <ns3:cad>54</ns3:cad>
          </ns3:TrackPointExtension>
        </extensions>
      </trkpt>
      <trkpt lat="45.3119595162570476531982421875" lon="-70.8084042370319366455078125">
        <ele>959.5999755859375</ele>
        <time>2026-08-21T12:56:30.000Z</time>
        <extensions>
          <ns3:TrackPointExtension>
            <ns3:hr>147</ns3:hr>
            <ns3:cad>54</ns3:cad>
          </ns3:TrackPointExtension>
        </extensions>
      </trkpt>
      <trkpt lat="45.311943590641021728515625" lon="-70.80840029753744602203369140625">
        <ele>959.5999755859375</ele>
        <time>2026-08-21T12:56:31.000Z</time>
        <extensions>
          <ns3:TrackPointExtension>
            <ns3:hr>148</ns3:hr>
            <ns3:cad>54</ns3:cad>
          </ns3:TrackPointExtension>
        </extensions>
      </trkpt>
      <trkpt lat="45.31192825175821781158447265625" lon="-70.808391161262989044189453125">
        <ele>959.5999755859375</ele>
        <time>2026-08-21T12:56:32.000Z</time>
        <extensions>
          <ns3:TrackPointExtension>
            <ns3:hr>148</ns3:hr>
            <ns3:cad>0</ns3:cad>
          </ns3:TrackPointExtension>
        </extensions>
      </trkpt>
      <trkpt lat="45.3119109012186527252197265625" lon="-70.80838655121624469757080078125">
        <ele>959.79998779296875</ele>
        <time>2026-08-21T12:56:33.000Z</time>
        <extensions>
          <ns3:TrackPointExtension>
            <ns3:hr>148</ns3:hr>
            <ns3:cad>0</ns3:cad>
          </ns3:TrackPointExtension>
        </extensions>
      </trkpt>
      <trkpt lat="45.31189103610813617706298828125" lon="-70.80839057452976703643798828125">
        <ele>959.79998779296875</ele>
        <time>2026-08-21T12:56:34.000Z</time>
        <extensions>
          <ns3:TrackPointExtension>
            <ns3:hr>148</ns3:hr>
            <ns3:cad>0</ns3:cad>
          </ns3:TrackPointExtension>
        </extensions>
      </trkpt>
      <trkpt lat="45.31187360174953937530517578125" lon="-70.8083960227668285369873046875">
        <ele>960</ele>
        <time>2026-08-21T12:56:35.000Z</time>
        <extensions>
          <ns3:TrackPointExtension>
            <ns3:hr>148</ns3:hr>
            <ns3:cad>0</ns3:cad>
          </ns3:TrackPointExtension>
        </extensions>
      </trkpt>
      <trkpt lat="45.31186035834252834320068359375" lon="-70.8084040693938732147216796875">
        <ele>960</ele>
        <time>2026-08-21T12:56:36.000Z</time>
        <extensions>
          <ns3:TrackPointExtension>
            <ns3:hr>148</ns3:hr>
            <ns3:cad>0</ns3:cad>
          </ns3:TrackPointExtension>
        </extensions>
      </trkpt>
      <trkpt lat="45.311843343079090118408203125" lon="-70.8084164746105670928955078125">
        <ele>960</ele>
        <time>2026-08-21T12:56:37.000Z</time>
        <extensions>
          <ns3:TrackPointExtension>
            <ns3:hr>147</ns3:hr>
            <ns3:cad>0</ns3:cad>
          </ns3:TrackPointExtension>
        </extensions>
      </trkpt>
      <trkpt lat="45.3118264116346836090087890625" lon="-70.808428041636943817138671875">
        <ele>960</ele>
        <time>2026-08-21T12:56:38.000Z</time>
        <extensions>
          <ns3:TrackPointExtension>
            <ns3:hr>148</ns3:hr>
            <ns3:cad>0</ns3:cad>
          </ns3:TrackPointExtension>
        </extensions>
      </trkpt>
      <trkpt lat="45.3118133358657360076904296875" lon="-70.808437429368495941162109375">
        <ele>960</ele>
        <time>2026-08-21T12:56:39.000Z</time>
        <extensions>
          <ns3:TrackPointExtension>
            <ns3:hr>147</ns3:hr>
            <ns3:cad>0</ns3:cad>
          </ns3:TrackPointExtension>
        </extensions>
      </trkpt>
      <trkpt lat="45.31180252321064472198486328125" lon="-70.8084466494619846343994140625">
        <ele>960</ele>
        <time>2026-08-21T12:56:40.000Z</time>
        <extensions>
          <ns3:TrackPointExtension>
            <ns3:hr>146</ns3:hr>
            <ns3:cad>55</ns3:cad>
          </ns3:TrackPointExtension>
        </extensions>
      </trkpt>
      <trkpt lat="45.31179129146039485931396484375" lon="-70.808455534279346466064453125">
        <ele>960</ele>
        <time>2026-08-21T12:56:41.000Z</time>
        <extensions>
          <ns3:TrackPointExtension>
            <ns3:hr>145</ns3:hr>
            <ns3:cad>55</ns3:cad>
          </ns3:TrackPointExtension>
        </extensions>
      </trkpt>
      <trkpt lat="45.311780981719493865966796875" lon="-70.80846659839153289794921875">
        <ele>960</ele>
        <time>2026-08-21T12:56:42.000Z</time>
        <extensions>
          <ns3:TrackPointExtension>
            <ns3:hr>144</ns3:hr>
            <ns3:cad>57</ns3:cad>
          </ns3:TrackPointExtension>
        </extensions>
      </trkpt>
      <trkpt lat="45.31176614575088024139404296875" lon="-70.8084820210933685302734375">
        <ele>960</ele>
        <time>2026-08-21T12:56:43.000Z</time>
        <extensions>
          <ns3:TrackPointExtension>
            <ns3:hr>143</ns3:hr>
            <ns3:cad>57</ns3:cad>
          </ns3:TrackPointExtension>
        </extensions>
      </trkpt>
      <trkpt lat="45.31175575219094753265380859375" lon="-70.8084922470152378082275390625">
        <ele>960</ele>
        <time>2026-08-21T12:56:44.000Z</time>
        <extensions>
          <ns3:TrackPointExtension>
            <ns3:hr>142</ns3:hr>
            <ns3:cad>55</ns3:cad>
          </ns3:TrackPointExtension>
        </extensions>
      </trkpt>
      <trkpt lat="45.3117469511926174163818359375" lon="-70.80850222148001194000244140625">
        <ele>960</ele>
        <time>2026-08-21T12:56:45.000Z</time>
        <extensions>
          <ns3:TrackPointExtension>
            <ns3:hr>141</ns3:hr>
            <ns3:cad>55</ns3:cad>
          </ns3:TrackPointExtension>
        </extensions>
      </trkpt>
      <trkpt lat="45.31173638999462127685546875" lon="-70.8085106872022151947021484375">
        <ele>960</ele>
        <time>2026-08-21T12:56:46.000Z</time>
        <extensions>
          <ns3:TrackPointExtension>
            <ns3:hr>140</ns3:hr>
            <ns3:cad>55</ns3:cad>
          </ns3:TrackPointExtension>
        </extensions>
      </trkpt>
      <trkpt lat="45.31173110939562320709228515625" lon="-70.80851345323026180267333984375">
        <ele>960</ele>
        <time>2026-08-21T12:56:47.000Z</time>
        <extensions>
          <ns3:TrackPointExtension>
            <ns3:hr>140</ns3:hr>
            <ns3:cad>0</ns3:cad>
          </ns3:TrackPointExtension>
        </extensions>
      </trkpt>
      <trkpt lat="45.31172842718660831451416015625" lon="-70.8085173927247524261474609375">
        <ele>960</ele>
        <time>2026-08-21T12:56:48.000Z</time>
        <extensions>
          <ns3:TrackPointExtension>
            <ns3:hr>139</ns3:hr>
            <ns3:cad>0</ns3:cad>
          </ns3:TrackPointExtension>
        </extensions>
      </trkpt>
      <trkpt lat="45.3117288462817668914794921875" lon="-70.808518566191196441650390625">
        <ele>960</ele>
        <time>2026-08-21T12:56:49.000Z</time>
        <extensions>
          <ns3:TrackPointExtension>
            <ns3:hr>138</ns3:hr>
            <ns3:cad>0</ns3:cad>
          </ns3:TrackPointExtension>
        </extensions>
      </trkpt>
      <trkpt lat="45.311729013919830322265625" lon="-70.80851881764829158782958984375">
        <ele>960</ele>
        <time>2026-08-21T12:56:50.000Z</time>
        <extensions>
          <ns3:TrackPointExtension>
            <ns3:hr>138</ns3:hr>
            <ns3:cad>0</ns3:cad>
          </ns3:TrackPointExtension>
        </extensions>
      </trkpt>
      <trkpt lat="45.31171971000730991363525390625" lon="-70.8085321448743343353271484375">
        <ele>960</ele>
        <time>2026-08-21T12:56:51.000Z</time>
        <extensions>
          <ns3:TrackPointExtension>
            <ns3:hr>137</ns3:hr>
            <ns3:cad>52</ns3:cad>
          </ns3:TrackPointExtension>
        </extensions>
      </trkpt>
      <trkpt lat="45.31170663423836231231689453125" lon="-70.80854128114879131317138671875">
        <ele>960.20001220703125</ele>
        <time>2026-08-21T12:56:52.000Z</time>
        <extensions>
          <ns3:TrackPointExtension>
            <ns3:hr>137</ns3:hr>
            <ns3:cad>0</ns3:cad>
          </ns3:TrackPointExtension>
        </extensions>
      </trkpt>
      <trkpt lat="45.31169615685939788818359375" lon="-70.80854748375713825225830078125">
        <ele>960.20001220703125</ele>
        <time>2026-08-21T12:56:53.000Z</time>
        <extensions>
          <ns3:TrackPointExtension>
            <ns3:hr>137</ns3:hr>
            <ns3:cad>0</ns3:cad>
          </ns3:TrackPointExtension>
        </extensions>
      </trkpt>
      <trkpt lat="45.311683751642704010009765625" lon="-70.80855720676481723785400390625">
        <ele>960.20001220703125</ele>
        <time>2026-08-21T12:56:54.000Z</time>
        <extensions>
          <ns3:TrackPointExtension>
            <ns3:hr>136</ns3:hr>
            <ns3:cad>0</ns3:cad>
          </ns3:TrackPointExtension>
        </extensions>
      </trkpt>
      <trkpt lat="45.3116681613028049468994140625" lon="-70.8085707016289234161376953125">
        <ele>960</ele>
        <time>2026-08-21T12:56:55.000Z</time>
        <extensions>
          <ns3:TrackPointExtension>
            <ns3:hr>136</ns3:hr>
            <ns3:cad>0</ns3:cad>
          </ns3:TrackPointExtension>
        </extensions>
      </trkpt>
      <trkpt lat="45.311651565134525299072265625" lon="-70.8085893094539642333984375">
        <ele>960</ele>
        <time>2026-08-21T12:56:56.000Z</time>
        <extensions>
          <ns3:TrackPointExtension>
            <ns3:hr>135</ns3:hr>
            <ns3:cad>0</ns3:cad>
          </ns3:TrackPointExtension>
        </extensions>
      </trkpt>
      <trkpt lat="45.31163488514721393585205078125" lon="-70.8086055703461170196533203125">
        <ele>959.79998779296875</ele>
        <time>2026-08-21T12:56:57.000Z</time>
        <extensions>
          <ns3:TrackPointExtension>
            <ns3:hr>134</ns3:hr>
            <ns3:cad>0</ns3:cad>
          </ns3:TrackPointExtension>
        </extensions>
      </trkpt>
      <trkpt lat="45.31162641942501068115234375" lon="-70.80861948430538177490234375">
        <ele>959.79998779296875</ele>
        <time>2026-08-21T12:56:58.000Z</time>
        <extensions>
          <ns3:TrackPointExtension>
            <ns3:hr>134</ns3:hr>
            <ns3:cad>0</ns3:cad>
          </ns3:TrackPointExtension>
        </extensions>
      </trkpt>
      <trkpt lat="45.31160856597125530242919921875" lon="-70.8086447976529598236083984375">
        <ele>959.79998779296875</ele>
        <time>2026-08-21T12:56:59.000Z</time>
        <extensions>
          <ns3:TrackPointExtension>
            <ns3:hr>134</ns3:hr>
            <ns3:cad>0</ns3:cad>
          </ns3:TrackPointExtension>
        </extensions>
      </trkpt>
      <trkpt lat="45.31159884296357631683349609375" lon="-70.80867019481956958770751953125">
        <ele>959.5999755859375</ele>
        <time>2026-08-21T12:57:00.000Z</time>
        <extensions>
          <ns3:TrackPointExtension>
            <ns3:hr>134</ns3:hr>
            <ns3:cad>0</ns3:cad>
          </ns3:TrackPointExtension>
        </extensions>
      </trkpt>
      <trkpt lat="45.3115930594503879547119140625" lon="-70.80869232304394245147705078125">
        <ele>959.4000244140625</ele>
        <time>2026-08-21T12:57:01.000Z</time>
        <extensions>
          <ns3:TrackPointExtension>
            <ns3:hr>134</ns3:hr>
            <ns3:cad>69</ns3:cad>
          </ns3:TrackPointExtension>
        </extensions>
      </trkpt>
      <trkpt lat="45.311576463282108306884765625" lon="-70.80871336162090301513671875">
        <ele>959.20001220703125</ele>
        <time>2026-08-21T12:57:02.000Z</time>
        <extensions>
          <ns3:TrackPointExtension>
            <ns3:hr>134</ns3:hr>
            <ns3:cad>69</ns3:cad>
          </ns3:TrackPointExtension>
        </extensions>
      </trkpt>
      <trkpt lat="45.31156313605606555938720703125" lon="-70.80872953869402408599853515625">
        <ele>959.20001220703125</ele>
        <time>2026-08-21T12:57:03.000Z</time>
        <extensions>
          <ns3:TrackPointExtension>
            <ns3:hr>134</ns3:hr>
            <ns3:cad>69</ns3:cad>
          </ns3:TrackPointExtension>
        </extensions>
      </trkpt>
      <trkpt lat="45.3115471266210079193115234375" lon="-70.80875066109001636505126953125">
        <ele>959</ele>
        <time>2026-08-21T12:57:04.000Z</time>
        <extensions>
          <ns3:TrackPointExtension>
            <ns3:hr>134</ns3:hr>
            <ns3:cad>69</ns3:cad>
          </ns3:TrackPointExtension>
        </extensions>
      </trkpt>
      <trkpt lat="45.3115330450236797332763671875" lon="-70.80877237021923065185546875">
        <ele>958.79998779296875</ele>
        <time>2026-08-21T12:57:05.000Z</time>
        <extensions>
          <ns3:TrackPointExtension>
            <ns3:hr>135</ns3:hr>
            <ns3:cad>69</ns3:cad>
          </ns3:TrackPointExtension>
        </extensions>
      </trkpt>
      <trkpt lat="45.31152659095823764801025390625" lon="-70.80879726447165012359619140625">
        <ele>958.79998779296875</ele>
        <time>2026-08-21T12:57:06.000Z</time>
        <extensions>
          <ns3:TrackPointExtension>
            <ns3:hr>135</ns3:hr>
            <ns3:cad>69</ns3:cad>
          </ns3:TrackPointExtension>
        </extensions>
      </trkpt>
      <trkpt lat="45.3115199692547321319580078125" lon="-70.80881738103926181793212890625">
        <ele>958.5999755859375</ele>
        <time>2026-08-21T12:57:07.000Z</time>
        <extensions>
          <ns3:TrackPointExtension>
            <ns3:hr>134</ns3:hr>
            <ns3:cad>69</ns3:cad>
          </ns3:TrackPointExtension>
        </extensions>
      </trkpt>
      <trkpt lat="45.3115139342844486236572265625" lon="-70.80884286202490329742431640625">
        <ele>958.5999755859375</ele>
        <time>2026-08-21T12:57:08.000Z</time>
        <extensions>
          <ns3:TrackPointExtension>
            <ns3:hr>134</ns3:hr>
            <ns3:cad>69</ns3:cad>
          </ns3:TrackPointExtension>
        </extensions>
      </trkpt>
      <trkpt lat="45.31150496564805507659912109375" lon="-70.8088654093444347381591796875">
        <ele>958.4000244140625</ele>
        <time>2026-08-21T12:57:09.000Z</time>
        <extensions>
          <ns3:TrackPointExtension>
            <ns3:hr>134</ns3:hr>
            <ns3:cad>69</ns3:cad>
          </ns3:TrackPointExtension>
        </extensions>
      </trkpt>
      <trkpt lat="45.31149541027843952178955078125" lon="-70.80888343043625354766845703125">
        <ele>958.4000244140625</ele>
        <time>2026-08-21T12:57:10.000Z</time>
        <extensions>
          <ns3:TrackPointExtension>
            <ns3:hr>131</ns3:hr>
            <ns3:cad>69</ns3:cad>
          </ns3:TrackPointExtension>
        </extensions>
      </trkpt>
      <trkpt lat="45.31148652546107769012451171875" lon="-70.80891075544059276580810546875">
        <ele>958.20001220703125</ele>
        <time>2026-08-21T12:57:11.000Z</time>
        <extensions>
          <ns3:TrackPointExtension>
            <ns3:hr>130</ns3:hr>
            <ns3:cad>69</ns3:cad>
          </ns3:TrackPointExtension>
        </extensions>
      </trkpt>
      <trkpt lat="45.3114817477762699127197265625" lon="-70.8089339733123779296875">
        <ele>958</ele>
        <time>2026-08-21T12:57:12.000Z</time>
        <extensions>
          <ns3:TrackPointExtension>
            <ns3:hr>130</ns3:hr>
            <ns3:cad>69</ns3:cad>
          </ns3:TrackPointExtension>
        </extensions>
      </trkpt>
      <trkpt lat="45.31147562898695468902587890625" lon="-70.8089586161077022552490234375">
        <ele>957.79998779296875</ele>
        <time>2026-08-21T12:57:13.000Z</time>
        <extensions>
          <ns3:TrackPointExtension>
            <ns3:hr>129</ns3:hr>
            <ns3:cad>0</ns3:cad>
          </ns3:TrackPointExtension>
        </extensions>
      </trkpt>
      <trkpt lat="45.31146322377026081085205078125" lon="-70.80898367799818515777587890625">
        <ele>957.79998779296875</ele>
        <time>2026-08-21T12:57:14.000Z</time>
        <extensions>
          <ns3:TrackPointExtension>
            <ns3:hr>129</ns3:hr>
            <ns3:cad>0</ns3:cad>
          </ns3:TrackPointExtension>
        </extensions>
      </trkpt>
      <trkpt lat="45.31145475804805755615234375" lon="-70.80901100300252437591552734375">
        <ele>957.5999755859375</ele>
        <time>2026-08-21T12:57:15.000Z</time>
        <extensions>
          <ns3:TrackPointExtension>
            <ns3:hr>129</ns3:hr>
            <ns3:cad>0</ns3:cad>
          </ns3:TrackPointExtension>
        </extensions>
      </trkpt>
      <trkpt lat="45.311452411115169525146484375" lon="-70.8090412616729736328125">
        <ele>957.20001220703125</ele>
        <time>2026-08-21T12:57:16.000Z</time>
        <extensions>
          <ns3:TrackPointExtension>
            <ns3:hr>128</ns3:hr>
            <ns3:cad>0</ns3:cad>
          </ns3:TrackPointExtension>
        </extensions>
      </trkpt>
      <trkpt lat="45.3114549256861209869384765625" lon="-70.809065401554107666015625">
        <ele>957</ele>
        <time>2026-08-21T12:57:17.000Z</time>
        <extensions>
          <ns3:TrackPointExtension>
            <ns3:hr>128</ns3:hr>
            <ns3:cad>0</ns3:cad>
          </ns3:TrackPointExtension>
        </extensions>
      </trkpt>
      <trkpt lat="45.31145836226642131805419921875" lon="-70.80909146927297115325927734375">
        <ele>957</ele>
        <time>2026-08-21T12:57:18.000Z</time>
        <extensions>
          <ns3:TrackPointExtension>
            <ns3:hr>128</ns3:hr>
            <ns3:cad>0</ns3:cad>
          </ns3:TrackPointExtension>
        </extensions>
      </trkpt>
      <trkpt lat="45.3114567697048187255859375" lon="-70.80911435186862945556640625">
        <ele>956.79998779296875</ele>
        <time>2026-08-21T12:57:19.000Z</time>
        <extensions>
          <ns3:TrackPointExtension>
            <ns3:hr>128</ns3:hr>
            <ns3:cad>0</ns3:cad>
          </ns3:TrackPointExtension>
        </extensions>
      </trkpt>
      <trkpt lat="45.3114566020667552947998046875" lon="-70.80913824029266834259033203125">
        <ele>956.5999755859375</ele>
        <time>2026-08-21T12:57:20.000Z</time>
        <extensions>
          <ns3:TrackPointExtension>
            <ns3:hr>129</ns3:hr>
            <ns3:cad>0</ns3:cad>
          </ns3:TrackPointExtension>
        </extensions>
      </trkpt>
      <trkpt lat="45.31145852990448474884033203125" lon="-70.80916271544992923736572265625">
        <ele>956.4000244140625</ele>
        <time>2026-08-21T12:57:21.000Z</time>
        <extensions>
          <ns3:TrackPointExtension>
            <ns3:hr>129</ns3:hr>
            <ns3:cad>0</ns3:cad>
          </ns3:TrackPointExtension>
        </extensions>
      </trkpt>
      <trkpt lat="45.311455763876438140869140625" lon="-70.80918199382722377777099609375">
        <ele>956.4000244140625</ele>
        <time>2026-08-21T12:57:22.000Z</time>
        <extensions>
          <ns3:TrackPointExtension>
            <ns3:hr>129</ns3:hr>
            <ns3:cad>0</ns3:cad>
          </ns3:TrackPointExtension>
        </extensions>
      </trkpt>
      <trkpt lat="45.31144981272518634796142578125" lon="-70.809209905564785003662109375">
        <ele>956.20001220703125</ele>
        <time>2026-08-21T12:57:23.000Z</time>
        <extensions>
          <ns3:TrackPointExtension>
            <ns3:hr>129</ns3:hr>
            <ns3:cad>0</ns3:cad>
          </ns3:TrackPointExtension>
        </extensions>
      </trkpt>
      <trkpt lat="45.31144780106842517852783203125" lon="-70.8092305250465869903564453125">
        <ele>956.20001220703125</ele>
        <time>2026-08-21T12:57:24.000Z</time>
        <extensions>
          <ns3:TrackPointExtension>
            <ns3:hr>129</ns3:hr>
            <ns3:cad>0</ns3:cad>
          </ns3:TrackPointExtension>
        </extensions>
      </trkpt>
      <trkpt lat="45.31144444830715656280517578125" lon="-70.80925248563289642333984375">
        <ele>956</ele>
        <time>2026-08-21T12:57:25.000Z</time>
        <extensions>
          <ns3:TrackPointExtension>
            <ns3:hr>130</ns3:hr>
            <ns3:cad>0</ns3:cad>
          </ns3:TrackPointExtension>
        </extensions>
      </trkpt>
      <trkpt lat="45.311440341174602508544921875" lon="-70.80927905626595020294189453125">
        <ele>955.5999755859375</ele>
        <time>2026-08-21T12:57:26.000Z</time>
        <extensions>
          <ns3:TrackPointExtension>
            <ns3:hr>130</ns3:hr>
            <ns3:cad>0</ns3:cad>
          </ns3:TrackPointExtension>
        </extensions>
      </trkpt>
      <trkpt lat="45.311436317861080169677734375" lon="-70.80930286087095737457275390625">
        <ele>955.4000244140625</ele>
        <time>2026-08-21T12:57:27.000Z</time>
        <extensions>
          <ns3:TrackPointExtension>
            <ns3:hr>130</ns3:hr>
            <ns3:cad>0</ns3:cad>
          </ns3:TrackPointExtension>
        </extensions>
      </trkpt>
      <trkpt lat="45.3114353120326995849609375" lon="-70.80932046286761760711669921875">
        <ele>955</ele>
        <time>2026-08-21T12:57:28.000Z</time>
        <extensions>
          <ns3:TrackPointExtension>
            <ns3:hr>130</ns3:hr>
            <ns3:cad>0</ns3:cad>
          </ns3:TrackPointExtension>
        </extensions>
      </trkpt>
      <trkpt lat="45.31143472529947757720947265625" lon="-70.80934225581586360931396484375">
        <ele>954.5999755859375</ele>
        <time>2026-08-21T12:57:29.000Z</time>
        <extensions>
          <ns3:TrackPointExtension>
            <ns3:hr>131</ns3:hr>
            <ns3:cad>0</ns3:cad>
          </ns3:TrackPointExtension>
        </extensions>
      </trkpt>
      <trkpt lat="45.31143103726208209991455078125" lon="-70.80936840735375881195068359375">
        <ele>954.20001220703125</ele>
        <time>2026-08-21T12:57:30.000Z</time>
        <extensions>
          <ns3:TrackPointExtension>
            <ns3:hr>131</ns3:hr>
            <ns3:cad>0</ns3:cad>
          </ns3:TrackPointExtension>
        </extensions>
      </trkpt>
      <trkpt lat="45.31142382882535457611083984375" lon="-70.80939891748130321502685546875">
        <ele>953.79998779296875</ele>
        <time>2026-08-21T12:57:31.000Z</time>
        <extensions>
          <ns3:TrackPointExtension>
            <ns3:hr>132</ns3:hr>
            <ns3:cad>0</ns3:cad>
          </ns3:TrackPointExtension>
        </extensions>
      </trkpt>
      <trkpt lat="45.3114180453121662139892578125" lon="-70.809430181980133056640625">
        <ele>953.5999755859375</ele>
        <time>2026-08-21T12:57:32.000Z</time>
        <extensions>
          <ns3:TrackPointExtension>
            <ns3:hr>132</ns3:hr>
            <ns3:cad>0</ns3:cad>
          </ns3:TrackPointExtension>
        </extensions>
      </trkpt>
      <trkpt lat="45.31141326762735843658447265625" lon="-70.80946127884089946746826171875">
        <ele>953.4000244140625</ele>
        <time>2026-08-21T12:57:33.000Z</time>
        <extensions>
          <ns3:TrackPointExtension>
            <ns3:hr>132</ns3:hr>
            <ns3:cad>0</ns3:cad>
          </ns3:TrackPointExtension>
        </extensions>
      </trkpt>
      <trkpt lat="45.3114069811999797821044921875" lon="-70.80948877148330211639404296875">
        <ele>953.4000244140625</ele>
        <time>2026-08-21T12:57:34.000Z</time>
        <extensions>
          <ns3:TrackPointExtension>
            <ns3:hr>131</ns3:hr>
            <ns3:cad>0</ns3:cad>
          </ns3:TrackPointExtension>
        </extensions>
      </trkpt>
      <trkpt lat="45.3114059753715991973876953125" lon="-70.80952699296176433563232421875">
        <ele>953.4000244140625</ele>
        <time>2026-08-21T12:57:35.000Z</time>
        <extensions>
          <ns3:TrackPointExtension>
            <ns3:hr>132</ns3:hr>
            <ns3:cad>0</ns3:cad>
          </ns3:TrackPointExtension>
        </extensions>
      </trkpt>
      <trkpt lat="45.31140756793320178985595703125" lon="-70.8095540665090084075927734375">
        <ele>953.5999755859375</ele>
        <time>2026-08-21T12:57:36.000Z</time>
        <extensions>
          <ns3:TrackPointExtension>
            <ns3:hr>132</ns3:hr>
            <ns3:cad>0</ns3:cad>
          </ns3:TrackPointExtension>
        </extensions>
      </trkpt>
      <trkpt lat="45.31140404753386974334716796875" lon="-70.809578038752079010009765625">
        <ele>953.79998779296875</ele>
        <time>2026-08-21T12:57:37.000Z</time>
        <extensions>
          <ns3:TrackPointExtension>
            <ns3:hr>131</ns3:hr>
            <ns3:cad>0</ns3:cad>
          </ns3:TrackPointExtension>
        </extensions>
      </trkpt>
      <trkpt lat="45.31140245497226715087890625" lon="-70.80959983170032501220703125">
        <ele>953.79998779296875</ele>
        <time>2026-08-21T12:57:38.000Z</time>
        <extensions>
          <ns3:TrackPointExtension>
            <ns3:hr>132</ns3:hr>
            <ns3:cad>0</ns3:cad>
          </ns3:TrackPointExtension>
        </extensions>
      </trkpt>
      <trkpt lat="45.3114026226103305816650390625" lon="-70.80961500294506549835205078125">
        <ele>954</ele>
        <time>2026-08-21T12:57:39.000Z</time>
        <extensions>
          <ns3:TrackPointExtension>
            <ns3:hr>131</ns3:hr>
            <ns3:cad>70</ns3:cad>
          </ns3:TrackPointExtension>
        </extensions>
      </trkpt>
      <trkpt lat="45.3113975934684276580810546875" lon="-70.80963344313204288482666015625">
        <ele>954</ele>
        <time>2026-08-21T12:57:40.000Z</time>
        <extensions>
          <ns3:TrackPointExtension>
            <ns3:hr>131</ns3:hr>
            <ns3:cad>76</ns3:cad>
          </ns3:TrackPointExtension>
        </extensions>
      </trkpt>
      <trkpt lat="45.31139700673520565032958984375" lon="-70.8096553198993206024169921875">
        <ele>954</ele>
        <time>2026-08-21T12:57:41.000Z</time>
        <extensions>
          <ns3:TrackPointExtension>
            <ns3:hr>131</ns3:hr>
            <ns3:cad>76</ns3:cad>
          </ns3:TrackPointExtension>
        </extensions>
      </trkpt>
      <trkpt lat="45.31139901839196681976318359375" lon="-70.809677951037883758544921875">
        <ele>954</ele>
        <time>2026-08-21T12:57:42.000Z</time>
        <extensions>
          <ns3:TrackPointExtension>
            <ns3:hr>131</ns3:hr>
            <ns3:cad>76</ns3:cad>
          </ns3:TrackPointExtension>
        </extensions>
      </trkpt>
      <trkpt lat="45.31139843165874481201171875" lon="-70.80969773232936859130859375">
        <ele>954</ele>
        <time>2026-08-21T12:57:43.000Z</time>
        <extensions>
          <ns3:TrackPointExtension>
            <ns3:hr>131</ns3:hr>
            <ns3:cad>76</ns3:cad>
          </ns3:TrackPointExtension>
        </extensions>
      </trkpt>
      <trkpt lat="45.31140471808612346649169921875" lon="-70.80972447060048580169677734375">
        <ele>953.79998779296875</ele>
        <time>2026-08-21T12:57:44.000Z</time>
        <extensions>
          <ns3:TrackPointExtension>
            <ns3:hr>131</ns3:hr>
            <ns3:cad>76</ns3:cad>
          </ns3:TrackPointExtension>
        </extensions>
      </trkpt>
      <trkpt lat="45.31140572391450405120849609375" lon="-70.809746347367763519287109375">
        <ele>953.79998779296875</ele>
        <time>2026-08-21T12:57:45.000Z</time>
        <extensions>
          <ns3:TrackPointExtension>
            <ns3:hr>131</ns3:hr>
            <ns3:cad>76</ns3:cad>
          </ns3:TrackPointExtension>
        </extensions>
      </trkpt>
      <trkpt lat="45.31139717437326908111572265625" lon="-70.80976545810699462890625">
        <ele>953.79998779296875</ele>
        <time>2026-08-21T12:57:46.000Z</time>
        <extensions>
          <ns3:TrackPointExtension>
            <ns3:hr>131</ns3:hr>
            <ns3:cad>76</ns3:cad>
          </ns3:TrackPointExtension>
        </extensions>
      </trkpt>
      <trkpt lat="45.31139281578361988067626953125" lon="-70.8097909390926361083984375">
        <ele>953.5999755859375</ele>
        <time>2026-08-21T12:57:47.000Z</time>
        <extensions>
          <ns3:TrackPointExtension>
            <ns3:hr>131</ns3:hr>
            <ns3:cad>57</ns3:cad>
          </ns3:TrackPointExtension>
        </extensions>
      </trkpt>
      <trkpt lat="45.311389379203319549560546875" lon="-70.8098070323467254638671875">
        <ele>953.5999755859375</ele>
        <time>2026-08-21T12:57:48.000Z</time>
        <extensions>
          <ns3:TrackPointExtension>
            <ns3:hr>131</ns3:hr>
            <ns3:cad>57</ns3:cad>
          </ns3:TrackPointExtension>
        </extensions>
      </trkpt>
      <trkpt lat="45.31137974001467227935791015625" lon="-70.80982471816241741180419921875">
        <ele>953.5999755859375</ele>
        <time>2026-08-21T12:57:49.000Z</time>
        <extensions>
          <ns3:TrackPointExtension>
            <ns3:hr>131</ns3:hr>
            <ns3:cad>57</ns3:cad>
          </ns3:TrackPointExtension>
        </extensions>
      </trkpt>
      <trkpt lat="45.3113724477589130401611328125" lon="-70.80984181724488735198974609375">
        <ele>953.5999755859375</ele>
        <time>2026-08-21T12:57:50.000Z</time>
        <extensions>
          <ns3:TrackPointExtension>
            <ns3:hr>131</ns3:hr>
            <ns3:cad>57</ns3:cad>
          </ns3:TrackPointExtension>
        </extensions>
      </trkpt>
      <trkpt lat="45.31136834062635898590087890625" lon="-70.809859335422515869140625">
        <ele>953.4000244140625</ele>
        <time>2026-08-21T12:57:51.000Z</time>
        <extensions>
          <ns3:TrackPointExtension>
            <ns3:hr>131</ns3:hr>
            <ns3:cad>0</ns3:cad>
          </ns3:TrackPointExtension>
        </extensions>
      </trkpt>
      <trkpt lat="45.31136624515056610107421875" lon="-70.80987065099179744720458984375">
        <ele>953.4000244140625</ele>
        <time>2026-08-21T12:57:52.000Z</time>
        <extensions>
          <ns3:TrackPointExtension>
            <ns3:hr>132</ns3:hr>
            <ns3:cad>0</ns3:cad>
          </ns3:TrackPointExtension>
        </extensions>
      </trkpt>
      <trkpt lat="45.3113640658557415008544921875" lon="-70.80989755690097808837890625">
        <ele>953.20001220703125</ele>
        <time>2026-08-21T12:57:53.000Z</time>
        <extensions>
          <ns3:TrackPointExtension>
            <ns3:hr>132</ns3:hr>
            <ns3:cad>0</ns3:cad>
          </ns3:TrackPointExtension>
        </extensions>
      </trkpt>
      <trkpt lat="45.31136029399931430816650390625" lon="-70.80992094241082668304443359375">
        <ele>953.20001220703125</ele>
        <time>2026-08-21T12:57:54.000Z</time>
        <extensions>
          <ns3:TrackPointExtension>
            <ns3:hr>132</ns3:hr>
            <ns3:cad>57</ns3:cad>
          </ns3:TrackPointExtension>
        </extensions>
      </trkpt>
      <trkpt lat="45.31135610304772853851318359375" lon="-70.80993820913136005401611328125">
        <ele>953.20001220703125</ele>
        <time>2026-08-21T12:57:55.000Z</time>
        <extensions>
          <ns3:TrackPointExtension>
            <ns3:hr>133</ns3:hr>
            <ns3:cad>57</ns3:cad>
          </ns3:TrackPointExtension>
        </extensions>
      </trkpt>
      <trkpt lat="45.31135057099163532257080078125" lon="-70.80995648168027400970458984375">
        <ele>953</ele>
        <time>2026-08-21T12:57:56.000Z</time>
        <extensions>
          <ns3:TrackPointExtension>
            <ns3:hr>133</ns3:hr>
            <ns3:cad>59</ns3:cad>
          </ns3:TrackPointExtension>
        </extensions>
      </trkpt>
      <trkpt lat="45.3113456256687641143798828125" lon="-70.809975676238536834716796875">
        <ele>953</ele>
        <time>2026-08-21T12:57:57.000Z</time>
        <extensions>
          <ns3:TrackPointExtension>
            <ns3:hr>133</ns3:hr>
            <ns3:cad>59</ns3:cad>
          </ns3:TrackPointExtension>
        </extensions>
      </trkpt>
      <trkpt lat="45.311345793306827545166015625" lon="-70.80999855883419513702392578125">
        <ele>952.79998779296875</ele>
        <time>2026-08-21T12:57:58.000Z</time>
        <extensions>
          <ns3:TrackPointExtension>
            <ns3:hr>132</ns3:hr>
            <ns3:cad>59</ns3:cad>
          </ns3:TrackPointExtension>
        </extensions>
      </trkpt>
      <trkpt lat="45.3113416023552417755126953125" lon="-70.8100189268589019775390625">
        <ele>952.79998779296875</ele>
        <time>2026-08-21T12:57:59.000Z</time>
        <extensions>
          <ns3:TrackPointExtension>
            <ns3:hr>132</ns3:hr>
            <ns3:cad>59</ns3:cad>
          </ns3:TrackPointExtension>
        </extensions>
      </trkpt>
      <trkpt lat="45.31133699230849742889404296875" lon="-70.81004197709262371063232421875">
        <ele>952.79998779296875</ele>
        <time>2026-08-21T12:58:00.000Z</time>
        <extensions>
          <ns3:TrackPointExtension>
            <ns3:hr>132</ns3:hr>
            <ns3:cad>59</ns3:cad>
          </ns3:TrackPointExtension>
        </extensions>
      </trkpt>
      <trkpt lat="45.3113307058811187744140625" lon="-70.81006259657442569732666015625">
        <ele>953</ele>
        <time>2026-08-21T12:58:01.000Z</time>
        <extensions>
          <ns3:TrackPointExtension>
            <ns3:hr>131</ns3:hr>
            <ns3:cad>56</ns3:cad>
          </ns3:TrackPointExtension>
        </extensions>
      </trkpt>
      <trkpt lat="45.31132274307310581207275390625" lon="-70.81008975394070148468017578125">
        <ele>952.79998779296875</ele>
        <time>2026-08-21T12:58:02.000Z</time>
        <extensions>
          <ns3:TrackPointExtension>
            <ns3:hr>131</ns3:hr>
            <ns3:cad>56</ns3:cad>
          </ns3:TrackPointExtension>
        </extensions>
      </trkpt>
      <trkpt lat="45.31131704337894916534423828125" lon="-70.81011347472667694091796875">
        <ele>952.79998779296875</ele>
        <time>2026-08-21T12:58:03.000Z</time>
        <extensions>
          <ns3:TrackPointExtension>
            <ns3:hr>131</ns3:hr>
            <ns3:cad>75</ns3:cad>
          </ns3:TrackPointExtension>
        </extensions>
      </trkpt>
      <trkpt lat="45.31130614690482616424560546875" lon="-70.81013359129428863525390625">
        <ele>952.79998779296875</ele>
        <time>2026-08-21T12:58:04.000Z</time>
        <extensions>
          <ns3:TrackPointExtension>
            <ns3:hr>131</ns3:hr>
            <ns3:cad>75</ns3:cad>
          </ns3:TrackPointExtension>
        </extensions>
      </trkpt>
      <trkpt lat="45.31129558570683002471923828125" lon="-70.81015178002417087554931640625">
        <ele>952.79998779296875</ele>
        <time>2026-08-21T12:58:05.000Z</time>
        <extensions>
          <ns3:TrackPointExtension>
            <ns3:hr>131</ns3:hr>
            <ns3:cad>75</ns3:cad>
          </ns3:TrackPointExtension>
        </extensions>
      </trkpt>
      <trkpt lat="45.31127848662436008453369140625" lon="-70.81017575226724147796630859375">
        <ele>952.5999755859375</ele>
        <time>2026-08-21T12:58:06.000Z</time>
        <extensions>
          <ns3:TrackPointExtension>
            <ns3:hr>131</ns3:hr>
            <ns3:cad>75</ns3:cad>
          </ns3:TrackPointExtension>
        </extensions>
      </trkpt>
      <trkpt lat="45.3112634830176830291748046875" lon="-70.81020207144320011138916015625">
        <ele>952.79998779296875</ele>
        <time>2026-08-21T12:58:07.000Z</time>
        <extensions>
          <ns3:TrackPointExtension>
            <ns3:hr>131</ns3:hr>
            <ns3:cad>75</ns3:cad>
          </ns3:TrackPointExtension>
        </extensions>
      </trkpt>
      <trkpt lat="45.31124797649681568145751953125" lon="-70.8102200925350189208984375">
        <ele>952.79998779296875</ele>
        <time>2026-08-21T12:58:08.000Z</time>
        <extensions>
          <ns3:TrackPointExtension>
            <ns3:hr>131</ns3:hr>
            <ns3:cad>74</ns3:cad>
          </ns3:TrackPointExtension>
        </extensions>
      </trkpt>
      <trkpt lat="45.311234481632709503173828125" lon="-70.81023593433201313018798828125">
        <ele>953</ele>
        <time>2026-08-21T12:58:09.000Z</time>
        <extensions>
          <ns3:TrackPointExtension>
            <ns3:hr>131</ns3:hr>
            <ns3:cad>74</ns3:cad>
          </ns3:TrackPointExtension>
        </extensions>
      </trkpt>
      <trkpt lat="45.3112205676734447479248046875" lon="-70.81026460044085979461669921875">
        <ele>953</ele>
        <time>2026-08-21T12:58:10.000Z</time>
        <extensions>
          <ns3:TrackPointExtension>
            <ns3:hr>131</ns3:hr>
            <ns3:cad>74</ns3:cad>
          </ns3:TrackPointExtension>
        </extensions>
      </trkpt>
      <trkpt lat="45.31120673753321170806884765625" lon="-70.810286812484264373779296875">
        <ele>953</ele>
        <time>2026-08-21T12:58:11.000Z</time>
        <extensions>
          <ns3:TrackPointExtension>
            <ns3:hr>131</ns3:hr>
            <ns3:cad>74</ns3:cad>
          </ns3:TrackPointExtension>
        </extensions>
      </trkpt>
      <trkpt lat="45.3111967630684375762939453125" lon="-70.81030391156673431396484375">
        <ele>953</ele>
        <time>2026-08-21T12:58:12.000Z</time>
        <extensions>
          <ns3:TrackPointExtension>
            <ns3:hr>131</ns3:hr>
            <ns3:cad>74</ns3:cad>
          </ns3:TrackPointExtension>
        </extensions>
      </trkpt>
      <trkpt lat="45.311180166900157928466796875" lon="-70.8103195019066333770751953125">
        <ele>953</ele>
        <time>2026-08-21T12:58:13.000Z</time>
        <extensions>
          <ns3:TrackPointExtension>
            <ns3:hr>131</ns3:hr>
            <ns3:cad>74</ns3:cad>
          </ns3:TrackPointExtension>
        </extensions>
      </trkpt>
      <trkpt lat="45.31116583384573459625244140625" lon="-70.81033752299845218658447265625">
        <ele>953</ele>
        <time>2026-08-21T12:58:14.000Z</time>
        <extensions>
          <ns3:TrackPointExtension>
            <ns3:hr>131</ns3:hr>
            <ns3:cad>74</ns3:cad>
          </ns3:TrackPointExtension>
        </extensions>
      </trkpt>
      <trkpt lat="45.31115544028580188751220703125" lon="-70.810356549918651580810546875">
        <ele>953</ele>
        <time>2026-08-21T12:58:15.000Z</time>
        <extensions>
          <ns3:TrackPointExtension>
            <ns3:hr>131</ns3:hr>
            <ns3:cad>74</ns3:cad>
          </ns3:TrackPointExtension>
        </extensions>
      </trkpt>
      <trkpt lat="45.31114186160266399383544921875" lon="-70.8103811927139759063720703125">
        <ele>953.20001220703125</ele>
        <time>2026-08-21T12:58:16.000Z</time>
        <extensions>
          <ns3:TrackPointExtension>
            <ns3:hr>130</ns3:hr>
            <ns3:cad>73</ns3:cad>
          </ns3:TrackPointExtension>
        </extensions>
      </trkpt>
      <trkpt lat="45.31113012693822383880615234375" lon="-70.8103971183300018310546875">
        <ele>953</ele>
        <time>2026-08-21T12:58:17.000Z</time>
        <extensions>
          <ns3:TrackPointExtension>
            <ns3:hr>130</ns3:hr>
            <ns3:cad>73</ns3:cad>
          </ns3:TrackPointExtension>
        </extensions>
      </trkpt>
      <trkpt lat="45.31111403368413448333740234375" lon="-70.81041212193667888641357421875">
        <ele>953</ele>
        <time>2026-08-21T12:58:18.000Z</time>
        <extensions>
          <ns3:TrackPointExtension>
            <ns3:hr>131</ns3:hr>
            <ns3:cad>73</ns3:cad>
          </ns3:TrackPointExtension>
        </extensions>
      </trkpt>
      <trkpt lat="45.31109928153455257415771484375" lon="-70.8104264549911022186279296875">
        <ele>953</ele>
        <time>2026-08-21T12:58:19.000Z</time>
        <extensions>
          <ns3:TrackPointExtension>
            <ns3:hr>131</ns3:hr>
            <ns3:cad>73</ns3:cad>
          </ns3:TrackPointExtension>
        </extensions>
      </trkpt>
      <trkpt lat="45.3110831044614315032958984375" lon="-70.8104519359767436981201171875">
        <ele>953</ele>
        <time>2026-08-21T12:58:20.000Z</time>
        <extensions>
          <ns3:TrackPointExtension>
            <ns3:hr>132</ns3:hr>
            <ns3:cad>73</ns3:cad>
          </ns3:TrackPointExtension>
        </extensions>
      </trkpt>
      <trkpt lat="45.3110705316066741943359375" lon="-70.810470879077911376953125">
        <ele>953</ele>
        <time>2026-08-21T12:58:21.000Z</time>
        <extensions>
          <ns3:TrackPointExtension>
            <ns3:hr>132</ns3:hr>
            <ns3:cad>73</ns3:cad>
          </ns3:TrackPointExtension>
        </extensions>
      </trkpt>
      <trkpt lat="45.3110592998564243316650390625" lon="-70.81049208529293537139892578125">
        <ele>953</ele>
        <time>2026-08-21T12:58:22.000Z</time>
        <extensions>
          <ns3:TrackPointExtension>
            <ns3:hr>133</ns3:hr>
            <ns3:cad>73</ns3:cad>
          </ns3:TrackPointExtension>
        </extensions>
      </trkpt>
      <trkpt lat="45.3110458888113498687744140625" lon="-70.8105102740228176116943359375">
        <ele>953</ele>
        <time>2026-08-21T12:58:23.000Z</time>
        <extensions>
          <ns3:TrackPointExtension>
            <ns3:hr>133</ns3:hr>
            <ns3:cad>73</ns3:cad>
          </ns3:TrackPointExtension>
        </extensions>
      </trkpt>
      <trkpt lat="45.311034657061100006103515625" lon="-70.81052578054368495941162109375">
        <ele>953.20001220703125</ele>
        <time>2026-08-21T12:58:24.000Z</time>
        <extensions>
          <ns3:TrackPointExtension>
            <ns3:hr>133</ns3:hr>
            <ns3:cad>73</ns3:cad>
          </ns3:TrackPointExtension>
        </extensions>
      </trkpt>
      <trkpt lat="45.31102426350116729736328125" lon="-70.810540951788425445556640625">
        <ele>953.4000244140625</ele>
        <time>2026-08-21T12:58:25.000Z</time>
        <extensions>
          <ns3:TrackPointExtension>
            <ns3:hr>133</ns3:hr>
            <ns3:cad>73</ns3:cad>
          </ns3:TrackPointExtension>
        </extensions>
      </trkpt>
      <trkpt lat="45.31102267093956470489501953125" lon="-70.8105552010238170623779296875">
        <ele>953.5999755859375</ele>
        <time>2026-08-21T12:58:26.000Z</time>
        <extensions>
          <ns3:TrackPointExtension>
            <ns3:hr>133</ns3:hr>
            <ns3:cad>73</ns3:cad>
          </ns3:TrackPointExtension>
        </extensions>
      </trkpt>
      <trkpt lat="45.31101428903639316558837890625" lon="-70.81057556904852390289306640625">
        <ele>954</ele>
        <time>2026-08-21T12:58:27.000Z</time>
        <extensions>
          <ns3:TrackPointExtension>
            <ns3:hr>133</ns3:hr>
            <ns3:cad>73</ns3:cad>
          </ns3:TrackPointExtension>
        </extensions>
      </trkpt>
      <trkpt lat="45.3110049851238727569580078125" lon="-70.81059082411229610443115234375">
        <ele>954.4000244140625</ele>
        <time>2026-08-21T12:58:28.000Z</time>
        <extensions>
          <ns3:TrackPointExtension>
            <ns3:hr>133</ns3:hr>
            <ns3:cad>79</ns3:cad>
          </ns3:TrackPointExtension>
        </extensions>
      </trkpt>
      <trkpt lat="45.31099417246878147125244140625" lon="-70.8106088452041149139404296875">
        <ele>954.79998779296875</ele>
        <time>2026-08-21T12:58:29.000Z</time>
        <extensions>
          <ns3:TrackPointExtension>
            <ns3:hr>133</ns3:hr>
            <ns3:cad>79</ns3:cad>
          </ns3:TrackPointExtension>
        </extensions>
      </trkpt>
      <trkpt lat="45.31098444946110248565673828125" lon="-70.81062083132565021514892578125">
        <ele>955</ele>
        <time>2026-08-21T12:58:30.000Z</time>
        <extensions>
          <ns3:TrackPointExtension>
            <ns3:hr>134</ns3:hr>
            <ns3:cad>79</ns3:cad>
          </ns3:TrackPointExtension>
        </extensions>
      </trkpt>
      <trkpt lat="45.310975648462772369384765625" lon="-70.81063424237072467803955078125">
        <ele>955.20001220703125</ele>
        <time>2026-08-21T12:58:31.000Z</time>
        <extensions>
          <ns3:TrackPointExtension>
            <ns3:hr>134</ns3:hr>
            <ns3:cad>79</ns3:cad>
          </ns3:TrackPointExtension>
        </extensions>
      </trkpt>
      <trkpt lat="45.31096651218831539154052734375" lon="-70.81064597703516483306884765625">
        <ele>955.20001220703125</ele>
        <time>2026-08-21T12:58:32.000Z</time>
        <extensions>
          <ns3:TrackPointExtension>
            <ns3:hr>133</ns3:hr>
            <ns3:cad>79</ns3:cad>
          </ns3:TrackPointExtension>
        </extensions>
      </trkpt>
      <trkpt lat="45.31095259822905063629150390625" lon="-70.81066441722214221954345703125">
        <ele>955.4000244140625</ele>
        <time>2026-08-21T12:58:33.000Z</time>
        <extensions>
          <ns3:TrackPointExtension>
            <ns3:hr>133</ns3:hr>
            <ns3:cad>79</ns3:cad>
          </ns3:TrackPointExtension>
        </extensions>
      </trkpt>
      <trkpt lat="45.31094287522137165069580078125" lon="-70.81068201921880245208740234375">
        <ele>955.4000244140625</ele>
        <time>2026-08-21T12:58:34.000Z</time>
        <extensions>
          <ns3:TrackPointExtension>
            <ns3:hr>133</ns3:hr>
            <ns3:cad>56</ns3:cad>
          </ns3:TrackPointExtension>
        </extensions>
      </trkpt>
      <trkpt lat="45.3109337389469146728515625" lon="-70.81069819629192352294921875">
        <ele>955.20001220703125</ele>
        <time>2026-08-21T12:58:35.000Z</time>
        <extensions>
          <ns3:TrackPointExtension>
            <ns3:hr>134</ns3:hr>
            <ns3:cad>56</ns3:cad>
          </ns3:TrackPointExtension>
        </extensions>
      </trkpt>
      <trkpt lat="45.3109251894056797027587890625" lon="-70.81071152351796627044677734375">
        <ele>955.20001220703125</ele>
        <time>2026-08-21T12:58:36.000Z</time>
        <extensions>
          <ns3:TrackPointExtension>
            <ns3:hr>135</ns3:hr>
            <ns3:cad>56</ns3:cad>
          </ns3:TrackPointExtension>
        </extensions>
      </trkpt>
      <trkpt lat="45.31091320328414440155029296875" lon="-70.8107258565723896026611328125">
        <ele>955</ele>
        <time>2026-08-21T12:58:37.000Z</time>
        <extensions>
          <ns3:TrackPointExtension>
            <ns3:hr>137</ns3:hr>
            <ns3:cad>54</ns3:cad>
          </ns3:TrackPointExtension>
        </extensions>
      </trkpt>
      <trkpt lat="45.3109054081141948699951171875" lon="-70.81073448993265628814697265625">
        <ele>955</ele>
        <time>2026-08-21T12:58:38.000Z</time>
        <extensions>
          <ns3:TrackPointExtension>
            <ns3:hr>138</ns3:hr>
            <ns3:cad>54</ns3:cad>
          </ns3:TrackPointExtension>
        </extensions>
      </trkpt>
      <trkpt lat="45.3108956851065158843994140625" lon="-70.810746811330318450927734375">
        <ele>955</ele>
        <time>2026-08-21T12:58:39.000Z</time>
        <extensions>
          <ns3:TrackPointExtension>
            <ns3:hr>138</ns3:hr>
            <ns3:cad>54</ns3:cad>
          </ns3:TrackPointExtension>
        </extensions>
      </trkpt>
      <trkpt lat="45.310886465013027191162109375" lon="-70.81075913272798061370849609375">
        <ele>954.79998779296875</ele>
        <time>2026-08-21T12:58:40.000Z</time>
        <extensions>
          <ns3:TrackPointExtension>
            <ns3:hr>138</ns3:hr>
            <ns3:cad>0</ns3:cad>
          </ns3:TrackPointExtension>
        </extensions>
      </trkpt>
      <trkpt lat="45.31087464652955532073974609375" lon="-70.81076617352664470672607421875">
        <ele>954.79998779296875</ele>
        <time>2026-08-21T12:58:41.000Z</time>
        <extensions>
          <ns3:TrackPointExtension>
            <ns3:hr>138</ns3:hr>
            <ns3:cad>0</ns3:cad>
          </ns3:TrackPointExtension>
        </extensions>
      </trkpt>
      <trkpt lat="45.3108624927699565887451171875" lon="-70.810777656733989715576171875">
        <ele>954.5999755859375</ele>
        <time>2026-08-21T12:58:42.000Z</time>
        <extensions>
          <ns3:TrackPointExtension>
            <ns3:hr>139</ns3:hr>
            <ns3:cad>0</ns3:cad>
          </ns3:TrackPointExtension>
        </extensions>
      </trkpt>
      <trkpt lat="45.31085486523807048797607421875" lon="-70.81078964285552501678466796875">
        <ele>954.20001220703125</ele>
        <time>2026-08-21T12:58:43.000Z</time>
        <extensions>
          <ns3:TrackPointExtension>
            <ns3:hr>139</ns3:hr>
            <ns3:cad>0</ns3:cad>
          </ns3:TrackPointExtension>
        </extensions>
      </trkpt>
      <trkpt lat="45.31084514223039150238037109375" lon="-70.81080590374767780303955078125">
        <ele>953.79998779296875</ele>
        <time>2026-08-21T12:58:44.000Z</time>
        <extensions>
          <ns3:TrackPointExtension>
            <ns3:hr>140</ns3:hr>
            <ns3:cad>0</ns3:cad>
          </ns3:TrackPointExtension>
        </extensions>
      </trkpt>
      <trkpt lat="45.31084028072655200958251953125" lon="-70.81081931479275226593017578125">
        <ele>953.20001220703125</ele>
        <time>2026-08-21T12:58:45.000Z</time>
        <extensions>
          <ns3:TrackPointExtension>
            <ns3:hr>140</ns3:hr>
            <ns3:cad>0</ns3:cad>
          </ns3:TrackPointExtension>
        </extensions>
      </trkpt>
      <trkpt lat="45.31082971952855587005615234375" lon="-70.81084378995001316070556640625">
        <ele>952.79998779296875</ele>
        <time>2026-08-21T12:58:46.000Z</time>
        <extensions>
          <ns3:TrackPointExtension>
            <ns3:hr>140</ns3:hr>
            <ns3:cad>0</ns3:cad>
          </ns3:TrackPointExtension>
        </extensions>
      </trkpt>
      <trkpt lat="45.3108199127018451690673828125" lon="-70.8108703605830669403076171875">
        <ele>952.4000244140625</ele>
        <time>2026-08-21T12:58:47.000Z</time>
        <extensions>
          <ns3:TrackPointExtension>
            <ns3:hr>139</ns3:hr>
            <ns3:cad>0</ns3:cad>
          </ns3:TrackPointExtension>
        </extensions>
      </trkpt>
      <trkpt lat="45.31080993823707103729248046875" lon="-70.81089206971228122711181640625">
        <ele>952</ele>
        <time>2026-08-21T12:58:48.000Z</time>
        <extensions>
          <ns3:TrackPointExtension>
            <ns3:hr>139</ns3:hr>
            <ns3:cad>0</ns3:cad>
          </ns3:TrackPointExtension>
        </extensions>
      </trkpt>
      <trkpt lat="45.310799963772296905517578125" lon="-70.81091302447021007537841796875">
        <ele>951.79998779296875</ele>
        <time>2026-08-21T12:58:49.000Z</time>
        <extensions>
          <ns3:TrackPointExtension>
            <ns3:hr>139</ns3:hr>
            <ns3:cad>0</ns3:cad>
          </ns3:TrackPointExtension>
        </extensions>
      </trkpt>
      <trkpt lat="45.31079518608748912811279296875" lon="-70.81093481741845607757568359375">
        <ele>951.79998779296875</ele>
        <time>2026-08-21T12:58:50.000Z</time>
        <extensions>
          <ns3:TrackPointExtension>
            <ns3:hr>139</ns3:hr>
            <ns3:cad>0</ns3:cad>
          </ns3:TrackPointExtension>
        </extensions>
      </trkpt>
      <trkpt lat="45.3107890672981739044189453125" lon="-70.81095627509057521820068359375">
        <ele>951.5999755859375</ele>
        <time>2026-08-21T12:58:51.000Z</time>
        <extensions>
          <ns3:TrackPointExtension>
            <ns3:hr>139</ns3:hr>
            <ns3:cad>0</ns3:cad>
          </ns3:TrackPointExtension>
        </extensions>
      </trkpt>
      <trkpt lat="45.31077406369149684906005859375" lon="-70.81097052432596683502197265625">
        <ele>951.5999755859375</ele>
        <time>2026-08-21T12:58:52.000Z</time>
        <extensions>
          <ns3:TrackPointExtension>
            <ns3:hr>140</ns3:hr>
            <ns3:cad>0</ns3:cad>
          </ns3:TrackPointExtension>
        </extensions>
      </trkpt>
      <trkpt lat="45.31076417304575443267822265625" lon="-70.81098477356135845184326171875">
        <ele>951.5999755859375</ele>
        <time>2026-08-21T12:58:53.000Z</time>
        <extensions>
          <ns3:TrackPointExtension>
            <ns3:hr>140</ns3:hr>
            <ns3:cad>0</ns3:cad>
          </ns3:TrackPointExtension>
        </extensions>
      </trkpt>
      <trkpt lat="45.3107545338571071624755859375" lon="-70.811015032231807708740234375">
        <ele>951.5999755859375</ele>
        <time>2026-08-21T12:58:54.000Z</time>
        <extensions>
          <ns3:TrackPointExtension>
            <ns3:hr>140</ns3:hr>
            <ns3:cad>0</ns3:cad>
          </ns3:TrackPointExtension>
        </extensions>
      </trkpt>
      <trkpt lat="45.3107511810958385467529296875" lon="-70.81103825010359287261962890625">
        <ele>951.5999755859375</ele>
        <time>2026-08-21T12:58:55.000Z</time>
        <extensions>
          <ns3:TrackPointExtension>
            <ns3:hr>139</ns3:hr>
            <ns3:cad>0</ns3:cad>
          </ns3:TrackPointExtension>
        </extensions>
      </trkpt>
      <trkpt lat="45.31074657104909420013427734375" lon="-70.811057947576045989990234375">
        <ele>951.5999755859375</ele>
        <time>2026-08-21T12:58:56.000Z</time>
        <extensions>
          <ns3:TrackPointExtension>
            <ns3:hr>139</ns3:hr>
            <ns3:cad>0</ns3:cad>
          </ns3:TrackPointExtension>
        </extensions>
      </trkpt>
      <trkpt lat="45.3107407875359058380126953125" lon="-70.8110711909830570220947265625">
        <ele>951.5999755859375</ele>
        <time>2026-08-21T12:58:57.000Z</time>
        <extensions>
          <ns3:TrackPointExtension>
            <ns3:hr>139</ns3:hr>
            <ns3:cad>0</ns3:cad>
          </ns3:TrackPointExtension>
        </extensions>
      </trkpt>
      <trkpt lat="45.310726203024387359619140625" lon="-70.81109139136970043182373046875">
        <ele>951.5999755859375</ele>
        <time>2026-08-21T12:58:58.000Z</time>
        <extensions>
          <ns3:TrackPointExtension>
            <ns3:hr>138</ns3:hr>
            <ns3:cad>62</ns3:cad>
          </ns3:TrackPointExtension>
        </extensions>
      </trkpt>
      <trkpt lat="45.310709774494171142578125" lon="-70.811107568442821502685546875">
        <ele>951.5999755859375</ele>
        <time>2026-08-21T12:58:59.000Z</time>
        <extensions>
          <ns3:TrackPointExtension>
            <ns3:hr>138</ns3:hr>
            <ns3:cad>62</ns3:cad>
          </ns3:TrackPointExtension>
        </extensions>
      </trkpt>
      <trkpt lat="45.31069837510585784912109375" lon="-70.81110832281410694122314453125">
        <ele>951.79998779296875</ele>
        <time>2026-08-21T12:59:00.000Z</time>
        <extensions>
          <ns3:TrackPointExtension>
            <ns3:hr>138</ns3:hr>
            <ns3:cad>62</ns3:cad>
          </ns3:TrackPointExtension>
        </extensions>
      </trkpt>
      <trkpt lat="45.3106757439672946929931640625" lon="-70.8111238293349742889404296875">
        <ele>952</ele>
        <time>2026-08-21T12:59:01.000Z</time>
        <extensions>
          <ns3:TrackPointExtension>
            <ns3:hr>137</ns3:hr>
            <ns3:cad>62</ns3:cad>
          </ns3:TrackPointExtension>
        </extensions>
      </trkpt>
      <trkpt lat="45.31066224910318851470947265625" lon="-70.811137072741985321044921875">
        <ele>952.20001220703125</ele>
        <time>2026-08-21T12:59:02.000Z</time>
        <extensions>
          <ns3:TrackPointExtension>
            <ns3:hr>137</ns3:hr>
            <ns3:cad>62</ns3:cad>
          </ns3:TrackPointExtension>
        </extensions>
      </trkpt>
      <trkpt lat="45.31065017916262149810791015625" lon="-70.811149142682552337646484375">
        <ele>952.20001220703125</ele>
        <time>2026-08-21T12:59:03.000Z</time>
        <extensions>
          <ns3:TrackPointExtension>
            <ns3:hr>136</ns3:hr>
            <ns3:cad>62</ns3:cad>
          </ns3:TrackPointExtension>
        </extensions>
      </trkpt>
      <trkpt lat="45.3106355108320713043212890625" lon="-70.8111588656902313232421875">
        <ele>952.20001220703125</ele>
        <time>2026-08-21T12:59:04.000Z</time>
        <extensions>
          <ns3:TrackPointExtension>
            <ns3:hr>136</ns3:hr>
            <ns3:cad>62</ns3:cad>
          </ns3:TrackPointExtension>
        </extensions>
      </trkpt>
      <trkpt lat="45.3106210939586162567138671875" lon="-70.81117655150592327117919921875">
        <ele>952.20001220703125</ele>
        <time>2026-08-21T12:59:05.000Z</time>
        <extensions>
          <ns3:TrackPointExtension>
            <ns3:hr>136</ns3:hr>
            <ns3:cad>0</ns3:cad>
          </ns3:TrackPointExtension>
        </extensions>
      </trkpt>
      <trkpt lat="45.31060877256095409393310546875" lon="-70.8111982606351375579833984375">
        <ele>952</ele>
        <time>2026-08-21T12:59:06.000Z</time>
        <extensions>
          <ns3:TrackPointExtension>
            <ns3:hr>136</ns3:hr>
            <ns3:cad>0</ns3:cad>
          </ns3:TrackPointExtension>
        </extensions>
      </trkpt>
      <trkpt lat="45.310602821409702301025390625" lon="-70.81122030504047870635986328125">
        <ele>952</ele>
        <time>2026-08-21T12:59:07.000Z</time>
        <extensions>
          <ns3:TrackPointExtension>
            <ns3:hr>136</ns3:hr>
            <ns3:cad>0</ns3:cad>
          </ns3:TrackPointExtension>
        </extensions>
      </trkpt>
      <trkpt lat="45.31059318222105503082275390625" lon="-70.811240673065185546875">
        <ele>951.79998779296875</ele>
        <time>2026-08-21T12:59:08.000Z</time>
        <extensions>
          <ns3:TrackPointExtension>
            <ns3:hr>136</ns3:hr>
            <ns3:cad>0</ns3:cad>
          </ns3:TrackPointExtension>
        </extensions>
      </trkpt>
      <trkpt lat="45.31058438122272491455078125" lon="-70.811257772147655487060546875">
        <ele>951.79998779296875</ele>
        <time>2026-08-21T12:59:09.000Z</time>
        <extensions>
          <ns3:TrackPointExtension>
            <ns3:hr>135</ns3:hr>
            <ns3:cad>0</ns3:cad>
          </ns3:TrackPointExtension>
        </extensions>
      </trkpt>
      <trkpt lat="45.3105748258531093597412109375" lon="-70.81127621233463287353515625">
        <ele>952</ele>
        <time>2026-08-21T12:59:10.000Z</time>
        <extensions>
          <ns3:TrackPointExtension>
            <ns3:hr>135</ns3:hr>
            <ns3:cad>0</ns3:cad>
          </ns3:TrackPointExtension>
        </extensions>
      </trkpt>
      <trkpt lat="45.31056870706379413604736328125" lon="-70.81130479462444782257080078125">
        <ele>952</ele>
        <time>2026-08-21T12:59:11.000Z</time>
        <extensions>
          <ns3:TrackPointExtension>
            <ns3:hr>135</ns3:hr>
            <ns3:cad>0</ns3:cad>
          </ns3:TrackPointExtension>
        </extensions>
      </trkpt>
      <trkpt lat="45.3105635941028594970703125" lon="-70.81132675521075725555419921875">
        <ele>952.20001220703125</ele>
        <time>2026-08-21T12:59:12.000Z</time>
        <extensions>
          <ns3:TrackPointExtension>
            <ns3:hr>135</ns3:hr>
            <ns3:cad>0</ns3:cad>
          </ns3:TrackPointExtension>
        </extensions>
      </trkpt>
      <trkpt lat="45.31055378727614879608154296875" lon="-70.8113412559032440185546875">
        <ele>952.20001220703125</ele>
        <time>2026-08-21T12:59:13.000Z</time>
        <extensions>
          <ns3:TrackPointExtension>
            <ns3:hr>135</ns3:hr>
            <ns3:cad>0</ns3:cad>
          </ns3:TrackPointExtension>
        </extensions>
      </trkpt>
      <trkpt lat="45.31053501181304454803466796875" lon="-70.8113534934818744659423828125">
        <ele>952</ele>
        <time>2026-08-21T12:59:14.000Z</time>
        <extensions>
          <ns3:TrackPointExtension>
            <ns3:hr>135</ns3:hr>
            <ns3:cad>0</ns3:cad>
          </ns3:TrackPointExtension>
        </extensions>
      </trkpt>
      <trkpt lat="45.3105258755385875701904296875" lon="-70.811361037194728851318359375">
        <ele>951.79998779296875</ele>
        <time>2026-08-21T12:59:15.000Z</time>
        <extensions>
          <ns3:TrackPointExtension>
            <ns3:hr>135</ns3:hr>
            <ns3:cad>0</ns3:cad>
          </ns3:TrackPointExtension>
        </extensions>
      </trkpt>
      <trkpt lat="45.31051087193191051483154296875" lon="-70.81137411296367645263671875">
        <ele>951.5999755859375</ele>
        <time>2026-08-21T12:59:16.000Z</time>
        <extensions>
          <ns3:TrackPointExtension>
            <ns3:hr>134</ns3:hr>
            <ns3:cad>0</ns3:cad>
          </ns3:TrackPointExtension>
        </extensions>
      </trkpt>
      <trkpt lat="45.31049226410686969757080078125" lon="-70.81138760782778263092041015625">
        <ele>951.4000244140625</ele>
        <time>2026-08-21T12:59:17.000Z</time>
        <extensions>
          <ns3:TrackPointExtension>
            <ns3:hr>134</ns3:hr>
            <ns3:cad>0</ns3:cad>
          </ns3:TrackPointExtension>
        </extensions>
      </trkpt>
      <trkpt lat="45.31047709286212921142578125" lon="-70.811403952538967132568359375">
        <ele>951.20001220703125</ele>
        <time>2026-08-21T12:59:18.000Z</time>
        <extensions>
          <ns3:TrackPointExtension>
            <ns3:hr>134</ns3:hr>
            <ns3:cad>0</ns3:cad>
          </ns3:TrackPointExtension>
        </extensions>
      </trkpt>
      <trkpt lat="45.31046560965478420257568359375" lon="-70.81141141243278980255126953125">
        <ele>951</ele>
        <time>2026-08-21T12:59:19.000Z</time>
        <extensions>
          <ns3:TrackPointExtension>
            <ns3:hr>135</ns3:hr>
            <ns3:cad>0</ns3:cad>
          </ns3:TrackPointExtension>
        </extensions>
      </trkpt>
      <trkpt lat="45.310452282428741455078125" lon="-70.811425745487213134765625">
        <ele>950.79998779296875</ele>
        <time>2026-08-21T12:59:20.000Z</time>
        <extensions>
          <ns3:TrackPointExtension>
            <ns3:hr>135</ns3:hr>
            <ns3:cad>0</ns3:cad>
          </ns3:TrackPointExtension>
        </extensions>
      </trkpt>
      <trkpt lat="45.3104356862604618072509765625" lon="-70.811438150703907012939453125">
        <ele>950.4000244140625</ele>
        <time>2026-08-21T12:59:21.000Z</time>
        <extensions>
          <ns3:TrackPointExtension>
            <ns3:hr>135</ns3:hr>
            <ns3:cad>0</ns3:cad>
          </ns3:TrackPointExtension>
        </extensions>
      </trkpt>
      <trkpt lat="45.3104214370250701904296875" lon="-70.8114507235586643218994140625">
        <ele>950.20001220703125</ele>
        <time>2026-08-21T12:59:22.000Z</time>
        <extensions>
          <ns3:TrackPointExtension>
            <ns3:hr>135</ns3:hr>
            <ns3:cad>0</ns3:cad>
          </ns3:TrackPointExtension>
        </extensions>
      </trkpt>
      <trkpt lat="45.31040073372423648834228515625" lon="-70.8114591054618358612060546875">
        <ele>949.79998779296875</ele>
        <time>2026-08-21T12:59:23.000Z</time>
        <extensions>
          <ns3:TrackPointExtension>
            <ns3:hr>135</ns3:hr>
            <ns3:cad>0</ns3:cad>
          </ns3:TrackPointExtension>
        </extensions>
      </trkpt>
      <trkpt lat="45.31038480810821056365966796875" lon="-70.81146455369889736175537109375">
        <ele>949.5999755859375</ele>
        <time>2026-08-21T12:59:24.000Z</time>
        <extensions>
          <ns3:TrackPointExtension>
            <ns3:hr>135</ns3:hr>
            <ns3:cad>0</ns3:cad>
          </ns3:TrackPointExtension>
        </extensions>
      </trkpt>
      <trkpt lat="45.31036670319736003875732421875" lon="-70.81147394143044948577880859375">
        <ele>949.20001220703125</ele>
        <time>2026-08-21T12:59:25.000Z</time>
        <extensions>
          <ns3:TrackPointExtension>
            <ns3:hr>136</ns3:hr>
            <ns3:cad>72</ns3:cad>
          </ns3:TrackPointExtension>
        </extensions>
      </trkpt>
      <trkpt lat="45.31035010702908039093017578125" lon="-70.81148467026650905609130859375">
        <ele>949.20001220703125</ele>
        <time>2026-08-21T12:59:26.000Z</time>
        <extensions>
          <ns3:TrackPointExtension>
            <ns3:hr>135</ns3:hr>
            <ns3:cad>72</ns3:cad>
          </ns3:TrackPointExtension>
        </extensions>
      </trkpt>
      <trkpt lat="45.31032982282340526580810546875" lon="-70.8114969916641712188720703125">
        <ele>949</ele>
        <time>2026-08-21T12:59:27.000Z</time>
        <extensions>
          <ns3:TrackPointExtension>
            <ns3:hr>135</ns3:hr>
            <ns3:cad>73</ns3:cad>
          </ns3:TrackPointExtension>
        </extensions>
      </trkpt>
      <trkpt lat="45.3103102929890155792236328125" lon="-70.81151182763278484344482421875">
        <ele>948.79998779296875</ele>
        <time>2026-08-21T12:59:28.000Z</time>
        <extensions>
          <ns3:TrackPointExtension>
            <ns3:hr>136</ns3:hr>
            <ns3:cad>73</ns3:cad>
          </ns3:TrackPointExtension>
        </extensions>
      </trkpt>
      <trkpt lat="45.3102962113916873931884765625" lon="-70.8115285076200962066650390625">
        <ele>948.5999755859375</ele>
        <time>2026-08-21T12:59:29.000Z</time>
        <extensions>
          <ns3:TrackPointExtension>
            <ns3:hr>136</ns3:hr>
            <ns3:cad>74</ns3:cad>
          </ns3:TrackPointExtension>
        </extensions>
      </trkpt>
      <trkpt lat="45.310278274118900299072265625" lon="-70.81154636107385158538818359375">
        <ele>948.5999755859375</ele>
        <time>2026-08-21T12:59:30.000Z</time>
        <extensions>
          <ns3:TrackPointExtension>
            <ns3:hr>136</ns3:hr>
            <ns3:cad>74</ns3:cad>
          </ns3:TrackPointExtension>
        </extensions>
      </trkpt>
      <trkpt lat="45.3102640248835086822509765625" lon="-70.81157125532627105712890625">
        <ele>948.5999755859375</ele>
        <time>2026-08-21T12:59:31.000Z</time>
        <extensions>
          <ns3:TrackPointExtension>
            <ns3:hr>136</ns3:hr>
            <ns3:cad>74</ns3:cad>
          </ns3:TrackPointExtension>
        </extensions>
      </trkpt>
      <trkpt lat="45.31025287695229053497314453125" lon="-70.8115905337035655975341796875">
        <ele>948.4000244140625</ele>
        <time>2026-08-21T12:59:32.000Z</time>
        <extensions>
          <ns3:TrackPointExtension>
            <ns3:hr>136</ns3:hr>
            <ns3:cad>74</ns3:cad>
          </ns3:TrackPointExtension>
        </extensions>
      </trkpt>
      <trkpt lat="45.31023410148918628692626953125" lon="-70.81161492504179477691650390625">
        <ele>948.4000244140625</ele>
        <time>2026-08-21T12:59:33.000Z</time>
        <extensions>
          <ns3:TrackPointExtension>
            <ns3:hr>137</ns3:hr>
            <ns3:cad>74</ns3:cad>
          </ns3:TrackPointExtension>
        </extensions>
      </trkpt>
      <trkpt lat="45.310221947729587554931640625" lon="-70.811625905334949493408203125">
        <ele>948.4000244140625</ele>
        <time>2026-08-21T12:59:34.000Z</time>
        <extensions>
          <ns3:TrackPointExtension>
            <ns3:hr>137</ns3:hr>
            <ns3:cad>74</ns3:cad>
          </ns3:TrackPointExtension>
        </extensions>
      </trkpt>
      <trkpt lat="45.31020610593259334564208984375" lon="-70.81163738854229450225830078125">
        <ele>948.5999755859375</ele>
        <time>2026-08-21T12:59:35.000Z</time>
        <extensions>
          <ns3:TrackPointExtension>
            <ns3:hr>137</ns3:hr>
            <ns3:cad>74</ns3:cad>
          </ns3:TrackPointExtension>
        </extensions>
      </trkpt>
      <trkpt lat="45.31019152142107486724853515625" lon="-70.81165842711925506591796875">
        <ele>948.5999755859375</ele>
        <time>2026-08-21T12:59:36.000Z</time>
        <extensions>
          <ns3:TrackPointExtension>
            <ns3:hr>137</ns3:hr>
            <ns3:cad>74</ns3:cad>
          </ns3:TrackPointExtension>
        </extensions>
      </trkpt>
      <trkpt lat="45.31018339097499847412109375" lon="-70.81167586147785186767578125">
        <ele>948.5999755859375</ele>
        <time>2026-08-21T12:59:37.000Z</time>
        <extensions>
          <ns3:TrackPointExtension>
            <ns3:hr>137</ns3:hr>
            <ns3:cad>74</ns3:cad>
          </ns3:TrackPointExtension>
        </extensions>
      </trkpt>
      <trkpt lat="45.31017006374895572662353515625" lon="-70.81168633885681629180908203125">
        <ele>948.5999755859375</ele>
        <time>2026-08-21T12:59:38.000Z</time>
        <extensions>
          <ns3:TrackPointExtension>
            <ns3:hr>137</ns3:hr>
            <ns3:cad>74</ns3:cad>
          </ns3:TrackPointExtension>
        </extensions>
      </trkpt>
      <trkpt lat="45.310148186981678009033203125" lon="-70.81169329583644866943359375">
        <ele>948.4000244140625</ele>
        <time>2026-08-21T12:59:39.000Z</time>
        <extensions>
          <ns3:TrackPointExtension>
            <ns3:hr>137</ns3:hr>
            <ns3:cad>71</ns3:cad>
          </ns3:TrackPointExtension>
        </extensions>
      </trkpt>
      <trkpt lat="45.3101317584514617919921875" lon="-70.811698324978351593017578125">
        <ele>948.20001220703125</ele>
        <time>2026-08-21T12:59:40.000Z</time>
        <extensions>
          <ns3:TrackPointExtension>
            <ns3:hr>136</ns3:hr>
            <ns3:cad>71</ns3:cad>
          </ns3:TrackPointExtension>
        </extensions>
      </trkpt>
      <trkpt lat="45.31010937876999378204345703125" lon="-70.81170544959604740142822265625">
        <ele>948.20001220703125</ele>
        <time>2026-08-21T12:59:41.000Z</time>
        <extensions>
          <ns3:TrackPointExtension>
            <ns3:hr>136</ns3:hr>
            <ns3:cad>71</ns3:cad>
          </ns3:TrackPointExtension>
        </extensions>
      </trkpt>
      <trkpt lat="45.3100903518497943878173828125" lon="-70.811708383262157440185546875">
        <ele>948</ele>
        <time>2026-08-21T12:59:42.000Z</time>
        <extensions>
          <ns3:TrackPointExtension>
            <ns3:hr>136</ns3:hr>
            <ns3:cad>68</ns3:cad>
          </ns3:TrackPointExtension>
        </extensions>
      </trkpt>
      <trkpt lat="45.310073085129261016845703125" lon="-70.81171768717467784881591796875">
        <ele>947.79998779296875</ele>
        <time>2026-08-21T12:59:43.000Z</time>
        <extensions>
          <ns3:TrackPointExtension>
            <ns3:hr>136</ns3:hr>
            <ns3:cad>68</ns3:cad>
          </ns3:TrackPointExtension>
        </extensions>
      </trkpt>
      <trkpt lat="45.3100541420280933380126953125" lon="-70.81173160113394260406494140625">
        <ele>947.5999755859375</ele>
        <time>2026-08-21T12:59:44.000Z</time>
        <extensions>
          <ns3:TrackPointExtension>
            <ns3:hr>136</ns3:hr>
            <ns3:cad>0</ns3:cad>
          </ns3:TrackPointExtension>
        </extensions>
      </trkpt>
      <trkpt lat="45.3100390546023845672607421875" lon="-70.8117457665503025054931640625">
        <ele>947.20001220703125</ele>
        <time>2026-08-21T12:59:45.000Z</time>
        <extensions>
          <ns3:TrackPointExtension>
            <ns3:hr>136</ns3:hr>
            <ns3:cad>0</ns3:cad>
          </ns3:TrackPointExtension>
        </extensions>
      </trkpt>
      <trkpt lat="45.31002740375697612762451171875" lon="-70.81177116371691226959228515625">
        <ele>947</ele>
        <time>2026-08-21T12:59:46.000Z</time>
        <extensions>
          <ns3:TrackPointExtension>
            <ns3:hr>136</ns3:hr>
            <ns3:cad>0</ns3:cad>
          </ns3:TrackPointExtension>
        </extensions>
      </trkpt>
      <trkpt lat="45.31001307070255279541015625" lon="-70.8117883466184139251708984375">
        <ele>946.79998779296875</ele>
        <time>2026-08-21T12:59:47.000Z</time>
        <extensions>
          <ns3:TrackPointExtension>
            <ns3:hr>136</ns3:hr>
            <ns3:cad>0</ns3:cad>
          </ns3:TrackPointExtension>
        </extensions>
      </trkpt>
      <trkpt lat="45.3099998272955417633056640625" lon="-70.811814330518245697021484375">
        <ele>946.79998779296875</ele>
        <time>2026-08-21T12:59:48.000Z</time>
        <extensions>
          <ns3:TrackPointExtension>
            <ns3:hr>136</ns3:hr>
            <ns3:cad>0</ns3:cad>
          </ns3:TrackPointExtension>
        </extensions>
      </trkpt>
      <trkpt lat="45.30998666770756244659423828125" lon="-70.8118372969329357147216796875">
        <ele>946.5999755859375</ele>
        <time>2026-08-21T12:59:49.000Z</time>
        <extensions>
          <ns3:TrackPointExtension>
            <ns3:hr>136</ns3:hr>
            <ns3:cad>0</ns3:cad>
          </ns3:TrackPointExtension>
        </extensions>
      </trkpt>
      <trkpt lat="45.30997459776699542999267578125" lon="-70.8118557371199131011962890625">
        <ele>946.4000244140625</ele>
        <time>2026-08-21T12:59:50.000Z</time>
        <extensions>
          <ns3:TrackPointExtension>
            <ns3:hr>135</ns3:hr>
            <ns3:cad>0</ns3:cad>
          </ns3:TrackPointExtension>
        </extensions>
      </trkpt>
      <trkpt lat="45.30996437184512615203857421875" lon="-70.81187074072659015655517578125">
        <ele>946.20001220703125</ele>
        <time>2026-08-21T12:59:51.000Z</time>
        <extensions>
          <ns3:TrackPointExtension>
            <ns3:hr>135</ns3:hr>
            <ns3:cad>72</ns3:cad>
          </ns3:TrackPointExtension>
        </extensions>
      </trkpt>
      <trkpt lat="45.309953056275844573974609375" lon="-70.8118828944861888885498046875">
        <ele>946</ele>
        <time>2026-08-21T12:59:52.000Z</time>
        <extensions>
          <ns3:TrackPointExtension>
            <ns3:hr>135</ns3:hr>
            <ns3:cad>72</ns3:cad>
          </ns3:TrackPointExtension>
        </extensions>
      </trkpt>
      <trkpt lat="45.309944339096546173095703125" lon="-70.81190393306314945220947265625">
        <ele>945.79998779296875</ele>
        <time>2026-08-21T12:59:53.000Z</time>
        <extensions>
          <ns3:TrackPointExtension>
            <ns3:hr>135</ns3:hr>
            <ns3:cad>0</ns3:cad>
          </ns3:TrackPointExtension>
        </extensions>
      </trkpt>
      <trkpt lat="45.30993453226983547210693359375" lon="-70.8119100518524646759033203125">
        <ele>945.4000244140625</ele>
        <time>2026-08-21T12:59:54.000Z</time>
        <extensions>
          <ns3:TrackPointExtension>
            <ns3:hr>135</ns3:hr>
            <ns3:cad>0</ns3:cad>
          </ns3:TrackPointExtension>
        </extensions>
      </trkpt>
      <trkpt lat="45.30992179177701473236083984375" lon="-70.81191516481339931488037109375">
        <ele>945.20001220703125</ele>
        <time>2026-08-21T12:59:55.000Z</time>
        <extensions>
          <ns3:TrackPointExtension>
            <ns3:hr>135</ns3:hr>
            <ns3:cad>0</ns3:cad>
          </ns3:TrackPointExtension>
        </extensions>
      </trkpt>
      <trkpt lat="45.30991290695965290069580078125" lon="-70.8119286596775054931640625">
        <ele>944.79998779296875</ele>
        <time>2026-08-21T12:59:56.000Z</time>
        <extensions>
          <ns3:TrackPointExtension>
            <ns3:hr>136</ns3:hr>
            <ns3:cad>0</ns3:cad>
          </ns3:TrackPointExtension>
        </extensions>
      </trkpt>
      <trkpt lat="45.30990980565547943115234375" lon="-70.81193880178034305572509765625">
        <ele>944.5999755859375</ele>
        <time>2026-08-21T12:59:57.000Z</time>
        <extensions>
          <ns3:TrackPointExtension>
            <ns3:hr>135</ns3:hr>
            <ns3:cad>0</ns3:cad>
          </ns3:TrackPointExtension>
        </extensions>
      </trkpt>
      <trkpt lat="45.3099056147038936614990234375" lon="-70.81194701604545116424560546875">
        <ele>944.20001220703125</ele>
        <time>2026-08-21T12:59:58.000Z</time>
        <extensions>
          <ns3:TrackPointExtension>
            <ns3:hr>134</ns3:hr>
            <ns3:cad>0</ns3:cad>
          </ns3:TrackPointExtension>
        </extensions>
      </trkpt>
      <trkpt lat="45.309900753200054168701171875" lon="-70.81194676458835601806640625">
        <ele>943.79998779296875</ele>
        <time>2026-08-21T12:59:59.000Z</time>
        <extensions>
          <ns3:TrackPointExtension>
            <ns3:hr>134</ns3:hr>
            <ns3:cad>0</ns3:cad>
          </ns3:TrackPointExtension>
        </extensions>
      </trkpt>
      <trkpt lat="45.30988943763077259063720703125" lon="-70.81195640377700328826904296875">
        <ele>943.4000244140625</ele>
        <time>2026-08-21T13:00:00.000Z</time>
        <extensions>
          <ns3:TrackPointExtension>
            <ns3:hr>133</ns3:hr>
            <ns3:cad>0</ns3:cad>
          </ns3:TrackPointExtension>
        </extensions>
      </trkpt>
      <trkpt lat="45.3098824806511402130126953125" lon="-70.8119643665850162506103515625">
        <ele>943</ele>
        <time>2026-08-21T13:00:01.000Z</time>
        <extensions>
          <ns3:TrackPointExtension>
            <ns3:hr>133</ns3:hr>
            <ns3:cad>0</ns3:cad>
          </ns3:TrackPointExtension>
        </extensions>
      </trkpt>
      <trkpt lat="45.3098761104047298431396484375" lon="-70.81197702325880527496337890625">
        <ele>942.5999755859375</ele>
        <time>2026-08-21T13:00:02.000Z</time>
        <extensions>
          <ns3:TrackPointExtension>
            <ns3:hr>132</ns3:hr>
            <ns3:cad>0</ns3:cad>
          </ns3:TrackPointExtension>
        </extensions>
      </trkpt>
      <trkpt lat="45.30986043624579906463623046875" lon="-70.81198791973292827606201171875">
        <ele>942.20001220703125</ele>
        <time>2026-08-21T13:00:03.000Z</time>
        <extensions>
          <ns3:TrackPointExtension>
            <ns3:hr>132</ns3:hr>
            <ns3:cad>0</ns3:cad>
          </ns3:TrackPointExtension>
        </extensions>
      </trkpt>
      <trkpt lat="45.30984811484813690185546875" lon="-70.811999738216400146484375">
        <ele>941.79998779296875</ele>
        <time>2026-08-21T13:00:04.000Z</time>
        <extensions>
          <ns3:TrackPointExtension>
            <ns3:hr>132</ns3:hr>
            <ns3:cad>0</ns3:cad>
          </ns3:TrackPointExtension>
        </extensions>
      </trkpt>
      <trkpt lat="45.3098285011947154998779296875" lon="-70.812014155089855194091796875">
        <ele>941.4000244140625</ele>
        <time>2026-08-21T13:00:05.000Z</time>
        <extensions>
          <ns3:TrackPointExtension>
            <ns3:hr>132</ns3:hr>
            <ns3:cad>68</ns3:cad>
          </ns3:TrackPointExtension>
        </extensions>
      </trkpt>
      <trkpt lat="45.3098125755786895751953125" lon="-70.8120300807058811187744140625">
        <ele>941.20001220703125</ele>
        <time>2026-08-21T13:00:06.000Z</time>
        <extensions>
          <ns3:TrackPointExtension>
            <ns3:hr>132</ns3:hr>
            <ns3:cad>68</ns3:cad>
          </ns3:TrackPointExtension>
        </extensions>
      </trkpt>
      <trkpt lat="45.30980092473328113555908203125" lon="-70.81205229274928569793701171875">
        <ele>941</ele>
        <time>2026-08-21T13:00:07.000Z</time>
        <extensions>
          <ns3:TrackPointExtension>
            <ns3:hr>132</ns3:hr>
            <ns3:cad>68</ns3:cad>
          </ns3:TrackPointExtension>
        </extensions>
      </trkpt>
      <trkpt lat="45.3097842447459697723388671875" lon="-70.81207626499235630035400390625">
        <ele>940.79998779296875</ele>
        <time>2026-08-21T13:00:08.000Z</time>
        <extensions>
          <ns3:TrackPointExtension>
            <ns3:hr>132</ns3:hr>
            <ns3:cad>68</ns3:cad>
          </ns3:TrackPointExtension>
        </extensions>
      </trkpt>
      <trkpt lat="45.30977167189121246337890625" lon="-70.81209889613091945648193359375">
        <ele>940.5999755859375</ele>
        <time>2026-08-21T13:00:09.000Z</time>
        <extensions>
          <ns3:TrackPointExtension>
            <ns3:hr>132</ns3:hr>
            <ns3:cad>68</ns3:cad>
          </ns3:TrackPointExtension>
        </extensions>
      </trkpt>
      <trkpt lat="45.30975935049355030059814453125" lon="-70.8121095411479473114013671875">
        <ele>940.4000244140625</ele>
        <time>2026-08-21T13:00:10.000Z</time>
        <extensions>
          <ns3:TrackPointExtension>
            <ns3:hr>132</ns3:hr>
            <ns3:cad>71</ns3:cad>
          </ns3:TrackPointExtension>
        </extensions>
      </trkpt>
      <trkpt lat="45.30974124558269977569580078125" lon="-70.8121320046484470367431640625">
        <ele>940.4000244140625</ele>
        <time>2026-08-21T13:00:11.000Z</time>
        <extensions>
          <ns3:TrackPointExtension>
            <ns3:hr>131</ns3:hr>
            <ns3:cad>71</ns3:cad>
          </ns3:TrackPointExtension>
        </extensions>
      </trkpt>
      <trkpt lat="45.3097332827746868133544921875" lon="-70.81215086393058300018310546875">
        <ele>940.20001220703125</ele>
        <time>2026-08-21T13:00:12.000Z</time>
        <extensions>
          <ns3:TrackPointExtension>
            <ns3:hr>131</ns3:hr>
            <ns3:cad>71</ns3:cad>
          </ns3:TrackPointExtension>
        </extensions>
      </trkpt>
      <trkpt lat="45.3097252361476421356201171875" lon="-70.81217215396463871002197265625">
        <ele>940</ele>
        <time>2026-08-21T13:00:13.000Z</time>
        <extensions>
          <ns3:TrackPointExtension>
            <ns3:hr>131</ns3:hr>
            <ns3:cad>72</ns3:cad>
          </ns3:TrackPointExtension>
        </extensions>
      </trkpt>
      <trkpt lat="45.30971727333962917327880859375" lon="-70.81218548119068145751953125">
        <ele>939.79998779296875</ele>
        <time>2026-08-21T13:00:14.000Z</time>
        <extensions>
          <ns3:TrackPointExtension>
            <ns3:hr>131</ns3:hr>
            <ns3:cad>72</ns3:cad>
          </ns3:TrackPointExtension>
        </extensions>
      </trkpt>
      <trkpt lat="45.309702940285205841064453125" lon="-70.81220568157732486724853515625">
        <ele>939.5999755859375</ele>
        <time>2026-08-21T13:00:15.000Z</time>
        <extensions>
          <ns3:TrackPointExtension>
            <ns3:hr>130</ns3:hr>
            <ns3:cad>72</ns3:cad>
          </ns3:TrackPointExtension>
        </extensions>
      </trkpt>
      <trkpt lat="45.3096865117549896240234375" lon="-70.812222026288509368896484375">
        <ele>939.4000244140625</ele>
        <time>2026-08-21T13:00:16.000Z</time>
        <extensions>
          <ns3:TrackPointExtension>
            <ns3:hr>130</ns3:hr>
            <ns3:cad>72</ns3:cad>
          </ns3:TrackPointExtension>
        </extensions>
      </trkpt>
      <trkpt lat="45.3096786327660083770751953125" lon="-70.812234766781330108642578125">
        <ele>939.4000244140625</ele>
        <time>2026-08-21T13:00:17.000Z</time>
        <extensions>
          <ns3:TrackPointExtension>
            <ns3:hr>130</ns3:hr>
            <ns3:cad>72</ns3:cad>
          </ns3:TrackPointExtension>
        </extensions>
      </trkpt>
      <trkpt lat="45.309667401015758514404296875" lon="-70.81225949339568614959716796875">
        <ele>939.4000244140625</ele>
        <time>2026-08-21T13:00:18.000Z</time>
        <extensions>
          <ns3:TrackPointExtension>
            <ns3:hr>130</ns3:hr>
            <ns3:cad>72</ns3:cad>
          </ns3:TrackPointExtension>
        </extensions>
      </trkpt>
      <trkpt lat="45.309654660522937774658203125" lon="-70.81227810122072696685791015625">
        <ele>939.20001220703125</ele>
        <time>2026-08-21T13:00:19.000Z</time>
        <extensions>
          <ns3:TrackPointExtension>
            <ns3:hr>129</ns3:hr>
            <ns3:cad>72</ns3:cad>
          </ns3:TrackPointExtension>
        </extensions>
      </trkpt>
      <trkpt lat="45.30964024364948272705078125" lon="-70.812292434275150299072265625">
        <ele>939.20001220703125</ele>
        <time>2026-08-21T13:00:20.000Z</time>
        <extensions>
          <ns3:TrackPointExtension>
            <ns3:hr>129</ns3:hr>
            <ns3:cad>68</ns3:cad>
          </ns3:TrackPointExtension>
        </extensions>
      </trkpt>
      <trkpt lat="45.30962792225182056427001953125" lon="-70.812301822006702423095703125">
        <ele>939.20001220703125</ele>
        <time>2026-08-21T13:00:21.000Z</time>
        <extensions>
          <ns3:TrackPointExtension>
            <ns3:hr>129</ns3:hr>
            <ns3:cad>68</ns3:cad>
          </ns3:TrackPointExtension>
        </extensions>
      </trkpt>
      <trkpt lat="45.30961283482611179351806640625" lon="-70.81232671625912189483642578125">
        <ele>939.20001220703125</ele>
        <time>2026-08-21T13:00:22.000Z</time>
        <extensions>
          <ns3:TrackPointExtension>
            <ns3:hr>129</ns3:hr>
            <ns3:cad>68</ns3:cad>
          </ns3:TrackPointExtension>
        </extensions>
      </trkpt>
      <trkpt lat="45.309603027999401092529296875" lon="-70.81234775483608245849609375">
        <ele>939</ele>
        <time>2026-08-21T13:00:23.000Z</time>
        <extensions>
          <ns3:TrackPointExtension>
            <ns3:hr>128</ns3:hr>
            <ns3:cad>68</ns3:cad>
          </ns3:TrackPointExtension>
        </extensions>
      </trkpt>
      <trkpt lat="45.30959070660173892974853515625" lon="-70.8123666979372501373291015625">
        <ele>939</ele>
        <time>2026-08-21T13:00:24.000Z</time>
        <extensions>
          <ns3:TrackPointExtension>
            <ns3:hr>127</ns3:hr>
            <ns3:cad>68</ns3:cad>
          </ns3:TrackPointExtension>
        </extensions>
      </trkpt>
      <trkpt lat="45.30958115123212337493896484375" lon="-70.81237901933491230010986328125">
        <ele>939</ele>
        <time>2026-08-21T13:00:25.000Z</time>
        <extensions>
          <ns3:TrackPointExtension>
            <ns3:hr>126</ns3:hr>
            <ns3:cad>69</ns3:cad>
          </ns3:TrackPointExtension>
        </extensions>
      </trkpt>
      <trkpt lat="45.3095658123493194580078125" lon="-70.8123935200273990631103515625">
        <ele>939</ele>
        <time>2026-08-21T13:00:26.000Z</time>
        <extensions>
          <ns3:TrackPointExtension>
            <ns3:hr>126</ns3:hr>
            <ns3:cad>69</ns3:cad>
          </ns3:TrackPointExtension>
        </extensions>
      </trkpt>
      <trkpt lat="45.3095525689423084259033203125" lon="-70.81241346895694732666015625">
        <ele>939</ele>
        <time>2026-08-21T13:00:27.000Z</time>
        <extensions>
          <ns3:TrackPointExtension>
            <ns3:hr>125</ns3:hr>
            <ns3:cad>69</ns3:cad>
          </ns3:TrackPointExtension>
        </extensions>
      </trkpt>
      <trkpt lat="45.3095421753823757171630859375" lon="-70.81243199296295642852783203125">
        <ele>939</ele>
        <time>2026-08-21T13:00:28.000Z</time>
        <extensions>
          <ns3:TrackPointExtension>
            <ns3:hr>126</ns3:hr>
            <ns3:cad>69</ns3:cad>
          </ns3:TrackPointExtension>
        </extensions>
      </trkpt>
      <trkpt lat="45.309527255594730377197265625" lon="-70.81245009787380695343017578125">
        <ele>939</ele>
        <time>2026-08-21T13:00:29.000Z</time>
        <extensions>
          <ns3:TrackPointExtension>
            <ns3:hr>126</ns3:hr>
            <ns3:cad>69</ns3:cad>
          </ns3:TrackPointExtension>
        </extensions>
      </trkpt>
      <trkpt lat="45.30951728112995624542236328125" lon="-70.81246250309050083160400390625">
        <ele>939</ele>
        <time>2026-08-21T13:00:30.000Z</time>
        <extensions>
          <ns3:TrackPointExtension>
            <ns3:hr>126</ns3:hr>
            <ns3:cad>69</ns3:cad>
          </ns3:TrackPointExtension>
        </extensions>
      </trkpt>
      <trkpt lat="45.3095032833516597747802734375" lon="-70.8124776743352413177490234375">
        <ele>938.79998779296875</ele>
        <time>2026-08-21T13:00:31.000Z</time>
        <extensions>
          <ns3:TrackPointExtension>
            <ns3:hr>126</ns3:hr>
            <ns3:cad>69</ns3:cad>
          </ns3:TrackPointExtension>
        </extensions>
      </trkpt>
      <trkpt lat="45.309492386877536773681640625" lon="-70.81249167211353778839111328125">
        <ele>938.79998779296875</ele>
        <time>2026-08-21T13:00:32.000Z</time>
        <extensions>
          <ns3:TrackPointExtension>
            <ns3:hr>126</ns3:hr>
            <ns3:cad>69</ns3:cad>
          </ns3:TrackPointExtension>
        </extensions>
      </trkpt>
      <trkpt lat="45.309482999145984649658203125" lon="-70.81251212395727634429931640625">
        <ele>938.5999755859375</ele>
        <time>2026-08-21T13:00:33.000Z</time>
        <extensions>
          <ns3:TrackPointExtension>
            <ns3:hr>126</ns3:hr>
            <ns3:cad>69</ns3:cad>
          </ns3:TrackPointExtension>
        </extensions>
      </trkpt>
      <trkpt lat="45.3094707615673542022705078125" lon="-70.812522433698177337646484375">
        <ele>938.20001220703125</ele>
        <time>2026-08-21T13:00:34.000Z</time>
        <extensions>
          <ns3:TrackPointExtension>
            <ns3:hr>127</ns3:hr>
            <ns3:cad>69</ns3:cad>
          </ns3:TrackPointExtension>
        </extensions>
      </trkpt>
      <trkpt lat="45.30945894308388233184814453125" lon="-70.812533162534236907958984375">
        <ele>938</ele>
        <time>2026-08-21T13:00:35.000Z</time>
        <extensions>
          <ns3:TrackPointExtension>
            <ns3:hr>127</ns3:hr>
            <ns3:cad>69</ns3:cad>
          </ns3:TrackPointExtension>
        </extensions>
      </trkpt>
      <trkpt lat="45.3094419278204441070556640625" lon="-70.81254514865577220916748046875">
        <ele>937.79998779296875</ele>
        <time>2026-08-21T13:00:36.000Z</time>
        <extensions>
          <ns3:TrackPointExtension>
            <ns3:hr>127</ns3:hr>
            <ns3:cad>69</ns3:cad>
          </ns3:TrackPointExtension>
        </extensions>
      </trkpt>
      <trkpt lat="45.30943513847887516021728515625" lon="-70.812555961310863494873046875">
        <ele>937.5999755859375</ele>
        <time>2026-08-21T13:00:37.000Z</time>
        <extensions>
          <ns3:TrackPointExtension>
            <ns3:hr>127</ns3:hr>
            <ns3:cad>0</ns3:cad>
          </ns3:TrackPointExtension>
        </extensions>
      </trkpt>
      <trkpt lat="45.3094254992902278900146484375" lon="-70.812568031251430511474609375">
        <ele>937.20001220703125</ele>
        <time>2026-08-21T13:00:38.000Z</time>
        <extensions>
          <ns3:TrackPointExtension>
            <ns3:hr>126</ns3:hr>
            <ns3:cad>0</ns3:cad>
          </ns3:TrackPointExtension>
        </extensions>
      </trkpt>
      <trkpt lat="45.30942105688154697418212890625" lon="-70.81257415004074573516845703125">
        <ele>937</ele>
        <time>2026-08-21T13:00:39.000Z</time>
        <extensions>
          <ns3:TrackPointExtension>
            <ns3:hr>126</ns3:hr>
            <ns3:cad>0</ns3:cad>
          </ns3:TrackPointExtension>
        </extensions>
      </trkpt>
      <trkpt lat="45.30941602773964405059814453125" lon="-70.81257901154458522796630859375">
        <ele>936.5999755859375</ele>
        <time>2026-08-21T13:00:40.000Z</time>
        <extensions>
          <ns3:TrackPointExtension>
            <ns3:hr>126</ns3:hr>
            <ns3:cad>0</ns3:cad>
          </ns3:TrackPointExtension>
        </extensions>
      </trkpt>
      <trkpt lat="45.309409908950328826904296875" lon="-70.81258320249617099761962890625">
        <ele>936.4000244140625</ele>
        <time>2026-08-21T13:00:41.000Z</time>
        <extensions>
          <ns3:TrackPointExtension>
            <ns3:hr>127</ns3:hr>
            <ns3:cad>0</ns3:cad>
          </ns3:TrackPointExtension>
        </extensions>
      </trkpt>
      <trkpt lat="45.30940353870391845703125" lon="-70.81258856691420078277587890625">
        <ele>936</ele>
        <time>2026-08-21T13:00:42.000Z</time>
        <extensions>
          <ns3:TrackPointExtension>
            <ns3:hr>129</ns3:hr>
            <ns3:cad>0</ns3:cad>
          </ns3:TrackPointExtension>
        </extensions>
      </trkpt>
      <trkpt lat="45.3093976713716983795166015625" lon="-70.8125980384647846221923828125">
        <ele>935.5999755859375</ele>
        <time>2026-08-21T13:00:43.000Z</time>
        <extensions>
          <ns3:TrackPointExtension>
            <ns3:hr>130</ns3:hr>
            <ns3:cad>0</ns3:cad>
          </ns3:TrackPointExtension>
        </extensions>
      </trkpt>
      <trkpt lat="45.309392474591732025146484375" lon="-70.812609605491161346435546875">
        <ele>935.20001220703125</ele>
        <time>2026-08-21T13:00:44.000Z</time>
        <extensions>
          <ns3:TrackPointExtension>
            <ns3:hr>130</ns3:hr>
            <ns3:cad>0</ns3:cad>
          </ns3:TrackPointExtension>
        </extensions>
      </trkpt>
      <trkpt lat="45.30938887037336826324462890625" lon="-70.81262142397463321685791015625">
        <ele>934.79998779296875</ele>
        <time>2026-08-21T13:00:45.000Z</time>
        <extensions>
          <ns3:TrackPointExtension>
            <ns3:hr>130</ns3:hr>
            <ns3:cad>0</ns3:cad>
          </ns3:TrackPointExtension>
        </extensions>
      </trkpt>
      <trkpt lat="45.3093886189162731170654296875" lon="-70.8126319013535976409912109375">
        <ele>934.4000244140625</ele>
        <time>2026-08-21T13:00:46.000Z</time>
        <extensions>
          <ns3:TrackPointExtension>
            <ns3:hr>130</ns3:hr>
            <ns3:cad>52</ns3:cad>
          </ns3:TrackPointExtension>
        </extensions>
      </trkpt>
      <trkpt lat="45.309386439621448516845703125" lon="-70.81263902597129344940185546875">
        <ele>934</ele>
        <time>2026-08-21T13:00:47.000Z</time>
        <extensions>
          <ns3:TrackPointExtension>
            <ns3:hr>130</ns3:hr>
            <ns3:cad>52</ns3:cad>
          </ns3:TrackPointExtension>
        </extensions>
      </trkpt>
      <trkpt lat="45.30938501469790935516357421875" lon="-70.81264589913189411163330078125">
        <ele>933.5999755859375</ele>
        <time>2026-08-21T13:00:48.000Z</time>
        <extensions>
          <ns3:TrackPointExtension>
            <ns3:hr>129</ns3:hr>
            <ns3:cad>52</ns3:cad>
          </ns3:TrackPointExtension>
        </extensions>
      </trkpt>
      <trkpt lat="45.309379398822784423828125" lon="-70.81265009008347988128662109375">
        <ele>933.4000244140625</ele>
        <time>2026-08-21T13:00:49.000Z</time>
        <extensions>
          <ns3:TrackPointExtension>
            <ns3:hr>129</ns3:hr>
            <ns3:cad>0</ns3:cad>
          </ns3:TrackPointExtension>
        </extensions>
      </trkpt>
      <trkpt lat="45.309374034404754638671875" lon="-70.81265243701636791229248046875">
        <ele>933.20001220703125</ele>
        <time>2026-08-21T13:00:50.000Z</time>
        <extensions>
          <ns3:TrackPointExtension>
            <ns3:hr>128</ns3:hr>
            <ns3:cad>0</ns3:cad>
          </ns3:TrackPointExtension>
        </extensions>
      </trkpt>
      <trkpt lat="45.3093765489757061004638671875" lon="-70.81265889108180999755859375">
        <ele>933.20001220703125</ele>
        <time>2026-08-21T13:00:51.000Z</time>
        <extensions>
          <ns3:TrackPointExtension>
            <ns3:hr>128</ns3:hr>
            <ns3:cad>0</ns3:cad>
          </ns3:TrackPointExtension>
        </extensions>
      </trkpt>
      <trkpt lat="45.30937780626118183135986328125" lon="-70.81267355941236019134521484375">
        <ele>933</ele>
        <time>2026-08-21T13:00:52.000Z</time>
        <extensions>
          <ns3:TrackPointExtension>
            <ns3:hr>127</ns3:hr>
            <ns3:cad>0</ns3:cad>
          </ns3:TrackPointExtension>
        </extensions>
      </trkpt>
      <trkpt lat="45.3093812428414821624755859375" lon="-70.8126738108694553375244140625">
        <ele>933</ele>
        <time>2026-08-21T13:00:53.000Z</time>
        <extensions>
          <ns3:TrackPointExtension>
            <ns3:hr>127</ns3:hr>
            <ns3:cad>0</ns3:cad>
          </ns3:TrackPointExtension>
        </extensions>
      </trkpt>
      <trkpt lat="45.309384763240814208984375" lon="-70.812673978507518768310546875">
        <ele>932.79998779296875</ele>
        <time>2026-08-21T13:00:54.000Z</time>
        <extensions>
          <ns3:TrackPointExtension>
            <ns3:hr>127</ns3:hr>
            <ns3:cad>0</ns3:cad>
          </ns3:TrackPointExtension>
        </extensions>
      </trkpt>
      <trkpt lat="45.3093876130878925323486328125" lon="-70.81268445588648319244384765625">
        <ele>932.5999755859375</ele>
        <time>2026-08-21T13:00:55.000Z</time>
        <extensions>
          <ns3:TrackPointExtension>
            <ns3:hr>127</ns3:hr>
            <ns3:cad>0</ns3:cad>
          </ns3:TrackPointExtension>
        </extensions>
      </trkpt>
      <trkpt lat="45.30939239077270030975341796875" lon="-70.81269702874124050140380859375">
        <ele>932.20001220703125</ele>
        <time>2026-08-21T13:00:56.000Z</time>
        <extensions>
          <ns3:TrackPointExtension>
            <ns3:hr>128</ns3:hr>
            <ns3:cad>0</ns3:cad>
          </ns3:TrackPointExtension>
        </extensions>
      </trkpt>
      <trkpt lat="45.30939423479139804840087890625" lon="-70.81269971095025539398193359375">
        <ele>931.79998779296875</ele>
        <time>2026-08-21T13:00:57.000Z</time>
        <extensions>
          <ns3:TrackPointExtension>
            <ns3:hr>127</ns3:hr>
            <ns3:cad>0</ns3:cad>
          </ns3:TrackPointExtension>
        </extensions>
      </trkpt>
      <trkpt lat="45.30939213931560516357421875" lon="-70.812713205814361572265625">
        <ele>931.4000244140625</ele>
        <time>2026-08-21T13:00:58.000Z</time>
        <extensions>
          <ns3:TrackPointExtension>
            <ns3:hr>127</ns3:hr>
            <ns3:cad>0</ns3:cad>
          </ns3:TrackPointExtension>
        </extensions>
      </trkpt>
      <trkpt lat="45.30938853509724140167236328125" lon="-70.81272996962070465087890625">
        <ele>931</ele>
        <time>2026-08-21T13:00:59.000Z</time>
        <extensions>
          <ns3:TrackPointExtension>
            <ns3:hr>126</ns3:hr>
            <ns3:cad>0</ns3:cad>
          </ns3:TrackPointExtension>
        </extensions>
      </trkpt>
      <trkpt lat="45.3093805722892284393310546875" lon="-70.81273810006678104400634765625">
        <ele>930.5999755859375</ele>
        <time>2026-08-21T13:01:00.000Z</time>
        <extensions>
          <ns3:TrackPointExtension>
            <ns3:hr>126</ns3:hr>
            <ns3:cad>0</ns3:cad>
          </ns3:TrackPointExtension>
        </extensions>
      </trkpt>
      <trkpt lat="45.30937227420508861541748046875" lon="-70.81274413503706455230712890625">
        <ele>930.20001220703125</ele>
        <time>2026-08-21T13:01:01.000Z</time>
        <extensions>
          <ns3:TrackPointExtension>
            <ns3:hr>126</ns3:hr>
            <ns3:cad>0</ns3:cad>
          </ns3:TrackPointExtension>
        </extensions>
      </trkpt>
      <trkpt lat="45.309362970292568206787109375" lon="-70.81275184638798236846923828125">
        <ele>929.79998779296875</ele>
        <time>2026-08-21T13:01:02.000Z</time>
        <extensions>
          <ns3:TrackPointExtension>
            <ns3:hr>126</ns3:hr>
            <ns3:cad>0</ns3:cad>
          </ns3:TrackPointExtension>
        </extensions>
      </trkpt>
      <trkpt lat="45.30935802496969699859619140625" lon="-70.812757126986980438232421875">
        <ele>929.4000244140625</ele>
        <time>2026-08-21T13:01:03.000Z</time>
        <extensions>
          <ns3:TrackPointExtension>
            <ns3:hr>126</ns3:hr>
            <ns3:cad>0</ns3:cad>
          </ns3:TrackPointExtension>
        </extensions>
      </trkpt>
      <trkpt lat="45.309354923665523529052734375" lon="-70.8127640001475811004638671875">
        <ele>929.20001220703125</ele>
        <time>2026-08-21T13:01:04.000Z</time>
        <extensions>
          <ns3:TrackPointExtension>
            <ns3:hr>126</ns3:hr>
            <ns3:cad>0</ns3:cad>
          </ns3:TrackPointExtension>
        </extensions>
      </trkpt>
      <trkpt lat="45.30934654176235198974609375" lon="-70.81277481280267238616943359375">
        <ele>928.79998779296875</ele>
        <time>2026-08-21T13:01:05.000Z</time>
        <extensions>
          <ns3:TrackPointExtension>
            <ns3:hr>126</ns3:hr>
            <ns3:cad>0</ns3:cad>
          </ns3:TrackPointExtension>
        </extensions>
      </trkpt>
      <trkpt lat="45.30934226699173450469970703125" lon="-70.812776573002338409423828125">
        <ele>928.4000244140625</ele>
        <time>2026-08-21T13:01:06.000Z</time>
        <extensions>
          <ns3:TrackPointExtension>
            <ns3:hr>126</ns3:hr>
            <ns3:cad>0</ns3:cad>
          </ns3:TrackPointExtension>
        </extensions>
      </trkpt>
      <trkpt lat="45.30934209935367107391357421875" lon="-70.81279912032186985015869140625">
        <ele>928.20001220703125</ele>
        <time>2026-08-21T13:01:07.000Z</time>
        <extensions>
          <ns3:TrackPointExtension>
            <ns3:hr>126</ns3:hr>
            <ns3:cad>40</ns3:cad>
          </ns3:TrackPointExtension>
        </extensions>
      </trkpt>
      <trkpt lat="45.3093460388481616973876953125" lon="-70.8128176443278789520263671875">
        <ele>927.79998779296875</ele>
        <time>2026-08-21T13:01:08.000Z</time>
        <extensions>
          <ns3:TrackPointExtension>
            <ns3:hr>127</ns3:hr>
            <ns3:cad>40</ns3:cad>
          </ns3:TrackPointExtension>
        </extensions>
      </trkpt>
      <trkpt lat="45.3093430213630199432373046875" lon="-70.8128293789923191070556640625">
        <ele>927.4000244140625</ele>
        <time>2026-08-21T13:01:09.000Z</time>
        <extensions>
          <ns3:TrackPointExtension>
            <ns3:hr>127</ns3:hr>
            <ns3:cad>40</ns3:cad>
          </ns3:TrackPointExtension>
        </extensions>
      </trkpt>
      <trkpt lat="45.30933857895433902740478515625" lon="-70.81283952109515666961669921875">
        <ele>927</ele>
        <time>2026-08-21T13:01:10.000Z</time>
        <extensions>
          <ns3:TrackPointExtension>
            <ns3:hr>127</ns3:hr>
            <ns3:cad>0</ns3:cad>
          </ns3:TrackPointExtension>
        </extensions>
      </trkpt>
      <trkpt lat="45.3093212284147739410400390625" lon="-70.8128629066050052642822265625">
        <ele>926.4000244140625</ele>
        <time>2026-08-21T13:01:11.000Z</time>
        <extensions>
          <ns3:TrackPointExtension>
            <ns3:hr>128</ns3:hr>
            <ns3:cad>0</ns3:cad>
          </ns3:TrackPointExtension>
        </extensions>
      </trkpt>
      <trkpt lat="45.30930689536035060882568359375" lon="-70.81287589855492115020751953125">
        <ele>926</ele>
        <time>2026-08-21T13:01:12.000Z</time>
        <extensions>
          <ns3:TrackPointExtension>
            <ns3:hr>128</ns3:hr>
            <ns3:cad>0</ns3:cad>
          </ns3:TrackPointExtension>
        </extensions>
      </trkpt>
      <trkpt lat="45.309297926723957061767578125" lon="-70.81288008950650691986083984375">
        <ele>925.5999755859375</ele>
        <time>2026-08-21T13:01:13.000Z</time>
        <extensions>
          <ns3:TrackPointExtension>
            <ns3:hr>128</ns3:hr>
            <ns3:cad>0</ns3:cad>
          </ns3:TrackPointExtension>
        </extensions>
      </trkpt>
      <trkpt lat="45.30928208492696285247802734375" lon="-70.81289182417094707489013671875">
        <ele>925.20001220703125</ele>
        <time>2026-08-21T13:01:14.000Z</time>
        <extensions>
          <ns3:TrackPointExtension>
            <ns3:hr>128</ns3:hr>
            <ns3:cad>0</ns3:cad>
          </ns3:TrackPointExtension>
        </extensions>
      </trkpt>
      <trkpt lat="45.30926917679607868194580078125" lon="-70.81291093491017818450927734375">
        <ele>924.79998779296875</ele>
        <time>2026-08-21T13:01:15.000Z</time>
        <extensions>
          <ns3:TrackPointExtension>
            <ns3:hr>127</ns3:hr>
            <ns3:cad>0</ns3:cad>
          </ns3:TrackPointExtension>
        </extensions>
      </trkpt>
      <trkpt lat="45.30926381237804889678955078125" lon="-70.81293406896293163299560546875">
        <ele>924.4000244140625</ele>
        <time>2026-08-21T13:01:16.000Z</time>
        <extensions>
          <ns3:TrackPointExtension>
            <ns3:hr>128</ns3:hr>
            <ns3:cad>0</ns3:cad>
          </ns3:TrackPointExtension>
        </extensions>
      </trkpt>
      <trkpt lat="45.30925995670258998870849609375" lon="-70.81296692602336406707763671875">
        <ele>924.20001220703125</ele>
        <time>2026-08-21T13:01:17.000Z</time>
        <extensions>
          <ns3:TrackPointExtension>
            <ns3:hr>128</ns3:hr>
            <ns3:cad>0</ns3:cad>
          </ns3:TrackPointExtension>
        </extensions>
      </trkpt>
      <trkpt lat="45.30925727449357509613037109375" lon="-70.81298234872519969940185546875">
        <ele>924</ele>
        <time>2026-08-21T13:01:18.000Z</time>
        <extensions>
          <ns3:TrackPointExtension>
            <ns3:hr>128</ns3:hr>
            <ns3:cad>0</ns3:cad>
          </ns3:TrackPointExtension>
        </extensions>
      </trkpt>
      <trkpt lat="45.3092508204281330108642578125" lon="-70.81300514750182628631591796875">
        <ele>923.79998779296875</ele>
        <time>2026-08-21T13:01:19.000Z</time>
        <extensions>
          <ns3:TrackPointExtension>
            <ns3:hr>128</ns3:hr>
            <ns3:cad>0</ns3:cad>
          </ns3:TrackPointExtension>
        </extensions>
      </trkpt>
      <trkpt lat="45.3092535026371479034423828125" lon="-70.8130323886871337890625">
        <ele>923.5999755859375</ele>
        <time>2026-08-21T13:01:20.000Z</time>
        <extensions>
          <ns3:TrackPointExtension>
            <ns3:hr>128</ns3:hr>
            <ns3:cad>0</ns3:cad>
          </ns3:TrackPointExtension>
        </extensions>
      </trkpt>
      <trkpt lat="45.309254340827465057373046875" lon="-70.81305258907377719879150390625">
        <ele>923.4000244140625</ele>
        <time>2026-08-21T13:01:21.000Z</time>
        <extensions>
          <ns3:TrackPointExtension>
            <ns3:hr>128</ns3:hr>
            <ns3:cad>0</ns3:cad>
          </ns3:TrackPointExtension>
        </extensions>
      </trkpt>
      <trkpt lat="45.30925559811294078826904296875" lon="-70.8130714483559131622314453125">
        <ele>923.4000244140625</ele>
        <time>2026-08-21T13:01:22.000Z</time>
        <extensions>
          <ns3:TrackPointExtension>
            <ns3:hr>128</ns3:hr>
            <ns3:cad>0</ns3:cad>
          </ns3:TrackPointExtension>
        </extensions>
      </trkpt>
      <trkpt lat="45.30925668776035308837890625" lon="-70.813087709248065948486328125">
        <ele>923.4000244140625</ele>
        <time>2026-08-21T13:01:23.000Z</time>
        <extensions>
          <ns3:TrackPointExtension>
            <ns3:hr>128</ns3:hr>
            <ns3:cad>0</ns3:cad>
          </ns3:TrackPointExtension>
        </extensions>
      </trkpt>
      <trkpt lat="45.30925878323614597320556640625" lon="-70.81310656853020191192626953125">
        <ele>923.20001220703125</ele>
        <time>2026-08-21T13:01:24.000Z</time>
        <extensions>
          <ns3:TrackPointExtension>
            <ns3:hr>128</ns3:hr>
            <ns3:cad>0</ns3:cad>
          </ns3:TrackPointExtension>
        </extensions>
      </trkpt>
      <trkpt lat="45.3092627227306365966796875" lon="-70.81311813555657863616943359375">
        <ele>923.20001220703125</ele>
        <time>2026-08-21T13:01:25.000Z</time>
        <extensions>
          <ns3:TrackPointExtension>
            <ns3:hr>127</ns3:hr>
            <ns3:cad>0</ns3:cad>
          </ns3:TrackPointExtension>
        </extensions>
      </trkpt>
      <trkpt lat="45.3092635609209537506103515625" lon="-70.8131294511258602142333984375">
        <ele>923</ele>
        <time>2026-08-21T13:01:26.000Z</time>
        <extensions>
          <ns3:TrackPointExtension>
            <ns3:hr>127</ns3:hr>
            <ns3:cad>0</ns3:cad>
          </ns3:TrackPointExtension>
        </extensions>
      </trkpt>
      <trkpt lat="45.309261381626129150390625" lon="-70.8131438679993152618408203125">
        <ele>923</ele>
        <time>2026-08-21T13:01:27.000Z</time>
        <extensions>
          <ns3:TrackPointExtension>
            <ns3:hr>126</ns3:hr>
            <ns3:cad>0</ns3:cad>
          </ns3:TrackPointExtension>
        </extensions>
      </trkpt>
      <trkpt lat="45.30925844796001911163330078125" lon="-70.8131670020520687103271484375">
        <ele>922.79998779296875</ele>
        <time>2026-08-21T13:01:28.000Z</time>
        <extensions>
          <ns3:TrackPointExtension>
            <ns3:hr>126</ns3:hr>
            <ns3:cad>0</ns3:cad>
          </ns3:TrackPointExtension>
        </extensions>
      </trkpt>
      <trkpt lat="45.3092555142939090728759765625" lon="-70.8131847716867923736572265625">
        <ele>922.79998779296875</ele>
        <time>2026-08-21T13:01:29.000Z</time>
        <extensions>
          <ns3:TrackPointExtension>
            <ns3:hr>126</ns3:hr>
            <ns3:cad>0</ns3:cad>
          </ns3:TrackPointExtension>
        </extensions>
      </trkpt>
      <trkpt lat="45.30925543047487735748291015625" lon="-70.81320337951183319091796875">
        <ele>922.79998779296875</ele>
        <time>2026-08-21T13:01:30.000Z</time>
        <extensions>
          <ns3:TrackPointExtension>
            <ns3:hr>126</ns3:hr>
            <ns3:cad>0</ns3:cad>
          </ns3:TrackPointExtension>
        </extensions>
      </trkpt>
      <trkpt lat="45.309255681931972503662109375" lon="-70.81323011778295040130615234375">
        <ele>922.5999755859375</ele>
        <time>2026-08-21T13:01:31.000Z</time>
        <extensions>
          <ns3:TrackPointExtension>
            <ns3:hr>126</ns3:hr>
            <ns3:cad>0</ns3:cad>
          </ns3:TrackPointExtension>
        </extensions>
      </trkpt>
      <trkpt lat="45.3092538379132747650146484375" lon="-70.81325895152986049652099609375">
        <ele>922.4000244140625</ele>
        <time>2026-08-21T13:01:32.000Z</time>
        <extensions>
          <ns3:TrackPointExtension>
            <ns3:hr>126</ns3:hr>
            <ns3:cad>0</ns3:cad>
          </ns3:TrackPointExtension>
        </extensions>
      </trkpt>
      <trkpt lat="45.3092538379132747650146484375" lon="-70.8132826723158359527587890625">
        <ele>922</ele>
        <time>2026-08-21T13:01:33.000Z</time>
        <extensions>
          <ns3:TrackPointExtension>
            <ns3:hr>125</ns3:hr>
            <ns3:cad>0</ns3:cad>
          </ns3:TrackPointExtension>
        </extensions>
      </trkpt>
      <trkpt lat="45.30925710685551166534423828125" lon="-70.81330798566341400146484375">
        <ele>921.5999755859375</ele>
        <time>2026-08-21T13:01:34.000Z</time>
        <extensions>
          <ns3:TrackPointExtension>
            <ns3:hr>125</ns3:hr>
            <ns3:cad>0</ns3:cad>
          </ns3:TrackPointExtension>
        </extensions>
      </trkpt>
      <trkpt lat="45.30925861559808254241943359375" lon="-70.8133359812200069427490234375">
        <ele>921</ele>
        <time>2026-08-21T13:01:35.000Z</time>
        <extensions>
          <ns3:TrackPointExtension>
            <ns3:hr>125</ns3:hr>
            <ns3:cad>0</ns3:cad>
          </ns3:TrackPointExtension>
        </extensions>
      </trkpt>
      <trkpt lat="45.30925962142646312713623046875" lon="-70.8133594505488872528076171875">
        <ele>920.20001220703125</ele>
        <time>2026-08-21T13:01:36.000Z</time>
        <extensions>
          <ns3:TrackPointExtension>
            <ns3:hr>125</ns3:hr>
            <ns3:cad>0</ns3:cad>
          </ns3:TrackPointExtension>
        </extensions>
      </trkpt>
      <trkpt lat="45.30925962142646312713623046875" lon="-70.81337898038327693939208984375">
        <ele>919.5999755859375</ele>
        <time>2026-08-21T13:01:37.000Z</time>
        <extensions>
          <ns3:TrackPointExtension>
            <ns3:hr>125</ns3:hr>
            <ns3:cad>0</ns3:cad>
          </ns3:TrackPointExtension>
        </extensions>
      </trkpt>
      <trkpt lat="45.30925710685551166534423828125" lon="-70.81338870339095592498779296875">
        <ele>919.20001220703125</ele>
        <time>2026-08-21T13:01:38.000Z</time>
        <extensions>
          <ns3:TrackPointExtension>
            <ns3:hr>125</ns3:hr>
            <ns3:cad>40</ns3:cad>
          </ns3:TrackPointExtension>
        </extensions>
      </trkpt>
      <trkpt lat="45.30925811268389225006103515625" lon="-70.81341334618628025054931640625">
        <ele>918.79998779296875</ele>
        <time>2026-08-21T13:01:39.000Z</time>
        <extensions>
          <ns3:TrackPointExtension>
            <ns3:hr>125</ns3:hr>
            <ns3:cad>40</ns3:cad>
          </ns3:TrackPointExtension>
        </extensions>
      </trkpt>
      <trkpt lat="45.309256352484226226806640625" lon="-70.813437402248382568359375">
        <ele>918.4000244140625</ele>
        <time>2026-08-21T13:01:40.000Z</time>
        <extensions>
          <ns3:TrackPointExtension>
            <ns3:hr>125</ns3:hr>
            <ns3:cad>40</ns3:cad>
          </ns3:TrackPointExtension>
        </extensions>
      </trkpt>
      <trkpt lat="45.30925962142646312713623046875" lon="-70.81345609389245510101318359375">
        <ele>918.20001220703125</ele>
        <time>2026-08-21T13:01:41.000Z</time>
        <extensions>
          <ns3:TrackPointExtension>
            <ns3:hr>125</ns3:hr>
            <ns3:cad>40</ns3:cad>
          </ns3:TrackPointExtension>
        </extensions>
      </trkpt>
      <trkpt lat="45.3092682547867298126220703125" lon="-70.813472270965576171875">
        <ele>918</ele>
        <time>2026-08-21T13:01:42.000Z</time>
        <extensions>
          <ns3:TrackPointExtension>
            <ns3:hr>124</ns3:hr>
            <ns3:cad>40</ns3:cad>
          </ns3:TrackPointExtension>
        </extensions>
      </trkpt>
      <trkpt lat="45.3092783130705356597900390625" lon="-70.81349574029445648193359375">
        <ele>917.79998779296875</ele>
        <time>2026-08-21T13:01:43.000Z</time>
        <extensions>
          <ns3:TrackPointExtension>
            <ns3:hr>125</ns3:hr>
            <ns3:cad>0</ns3:cad>
          </ns3:TrackPointExtension>
        </extensions>
      </trkpt>
      <trkpt lat="45.3092877008020877838134765625" lon="-70.81352465786039829254150390625">
        <ele>917.5999755859375</ele>
        <time>2026-08-21T13:01:44.000Z</time>
        <extensions>
          <ns3:TrackPointExtension>
            <ns3:hr>125</ns3:hr>
            <ns3:cad>0</ns3:cad>
          </ns3:TrackPointExtension>
        </extensions>
      </trkpt>
      <trkpt lat="45.309291221201419830322265625" lon="-70.81354293040931224822998046875">
        <ele>917.4000244140625</ele>
        <time>2026-08-21T13:01:45.000Z</time>
        <extensions>
          <ns3:TrackPointExtension>
            <ns3:hr>124</ns3:hr>
            <ns3:cad>0</ns3:cad>
          </ns3:TrackPointExtension>
        </extensions>
      </trkpt>
      <trkpt lat="45.3092977590858936309814453125" lon="-70.81356204114854335784912109375">
        <ele>917</ele>
        <time>2026-08-21T13:01:46.000Z</time>
        <extensions>
          <ns3:TrackPointExtension>
            <ns3:hr>125</ns3:hr>
            <ns3:cad>0</ns3:cad>
          </ns3:TrackPointExtension>
        </extensions>
      </trkpt>
      <trkpt lat="45.30930404551327228546142578125" lon="-70.8135862648487091064453125">
        <ele>916.5999755859375</ele>
        <time>2026-08-21T13:01:47.000Z</time>
        <extensions>
          <ns3:TrackPointExtension>
            <ns3:hr>125</ns3:hr>
            <ns3:cad>0</ns3:cad>
          </ns3:TrackPointExtension>
        </extensions>
      </trkpt>
      <trkpt lat="45.3093094937503337860107421875" lon="-70.81361149437725543975830078125">
        <ele>916.20001220703125</ele>
        <time>2026-08-21T13:01:48.000Z</time>
        <extensions>
          <ns3:TrackPointExtension>
            <ns3:hr>125</ns3:hr>
            <ns3:cad>0</ns3:cad>
          </ns3:TrackPointExtension>
        </extensions>
      </trkpt>
      <trkpt lat="45.30931242741644382476806640625" lon="-70.81362440250813961029052734375">
        <ele>916</ele>
        <time>2026-08-21T13:01:49.000Z</time>
        <extensions>
          <ns3:TrackPointExtension>
            <ns3:hr>126</ns3:hr>
            <ns3:cad>0</ns3:cad>
          </ns3:TrackPointExtension>
        </extensions>
      </trkpt>
      <trkpt lat="45.3093104995787143707275390625" lon="-70.81364057958126068115234375">
        <ele>915.79998779296875</ele>
        <time>2026-08-21T13:01:50.000Z</time>
        <extensions>
          <ns3:TrackPointExtension>
            <ns3:hr>126</ns3:hr>
            <ns3:cad>0</ns3:cad>
          </ns3:TrackPointExtension>
        </extensions>
      </trkpt>
      <trkpt lat="45.30930354259908199310302734375" lon="-70.813652984797954559326171875">
        <ele>915.79998779296875</ele>
        <time>2026-08-21T13:01:51.000Z</time>
        <extensions>
          <ns3:TrackPointExtension>
            <ns3:hr>127</ns3:hr>
            <ns3:cad>0</ns3:cad>
          </ns3:TrackPointExtension>
        </extensions>
      </trkpt>
      <trkpt lat="45.3092949092388153076171875" lon="-70.81366279162466526031494140625">
        <ele>915.79998779296875</ele>
        <time>2026-08-21T13:01:52.000Z</time>
        <extensions>
          <ns3:TrackPointExtension>
            <ns3:hr>127</ns3:hr>
            <ns3:cad>0</ns3:cad>
          </ns3:TrackPointExtension>
        </extensions>
      </trkpt>
      <trkpt lat="45.3092826716601848602294921875" lon="-70.8136709220707416534423828125">
        <ele>915.79998779296875</ele>
        <time>2026-08-21T13:01:53.000Z</time>
        <extensions>
          <ns3:TrackPointExtension>
            <ns3:hr>127</ns3:hr>
            <ns3:cad>0</ns3:cad>
          </ns3:TrackPointExtension>
        </extensions>
      </trkpt>
      <trkpt lat="45.3092736192047595977783203125" lon="-70.81368609331548213958740234375">
        <ele>916.20001220703125</ele>
        <time>2026-08-21T13:01:54.000Z</time>
        <extensions>
          <ns3:TrackPointExtension>
            <ns3:hr>126</ns3:hr>
            <ns3:cad>0</ns3:cad>
          </ns3:TrackPointExtension>
        </extensions>
      </trkpt>
      <trkpt lat="45.3092632256448268890380859375" lon="-70.813702605664730072021484375">
        <ele>916.4000244140625</ele>
        <time>2026-08-21T13:01:55.000Z</time>
        <extensions>
          <ns3:TrackPointExtension>
            <ns3:hr>127</ns3:hr>
            <ns3:cad>0</ns3:cad>
          </ns3:TrackPointExtension>
        </extensions>
      </trkpt>
      <trkpt lat="45.30925073660910129547119140625" lon="-70.81371568143367767333984375">
        <ele>916.79998779296875</ele>
        <time>2026-08-21T13:01:56.000Z</time>
        <extensions>
          <ns3:TrackPointExtension>
            <ns3:hr>127</ns3:hr>
            <ns3:cad>0</ns3:cad>
          </ns3:TrackPointExtension>
        </extensions>
      </trkpt>
      <trkpt lat="45.30923900194466114044189453125" lon="-70.81372347660362720489501953125">
        <ele>917</ele>
        <time>2026-08-21T13:01:57.000Z</time>
        <extensions>
          <ns3:TrackPointExtension>
            <ns3:hr>126</ns3:hr>
            <ns3:cad>0</ns3:cad>
          </ns3:TrackPointExtension>
        </extensions>
      </trkpt>
      <trkpt lat="45.3092198073863983154296875" lon="-70.81373688764870166778564453125">
        <ele>917.4000244140625</ele>
        <time>2026-08-21T13:01:58.000Z</time>
        <extensions>
          <ns3:TrackPointExtension>
            <ns3:hr>126</ns3:hr>
            <ns3:cad>0</ns3:cad>
          </ns3:TrackPointExtension>
        </extensions>
      </trkpt>
      <trkpt lat="45.309211425483226776123046875" lon="-70.8137470297515392303466796875">
        <ele>917.79998779296875</ele>
        <time>2026-08-21T13:01:59.000Z</time>
        <extensions>
          <ns3:TrackPointExtension>
            <ns3:hr>126</ns3:hr>
            <ns3:cad>0</ns3:cad>
          </ns3:TrackPointExtension>
        </extensions>
      </trkpt>
      <trkpt lat="45.30920111574232578277587890625" lon="-70.8137552440166473388671875">
        <ele>918.20001220703125</ele>
        <time>2026-08-21T13:02:00.000Z</time>
        <extensions>
          <ns3:TrackPointExtension>
            <ns3:hr>126</ns3:hr>
            <ns3:cad>0</ns3:cad>
          </ns3:TrackPointExtension>
        </extensions>
      </trkpt>
      <trkpt lat="45.30918535776436328887939453125" lon="-70.813762955367565155029296875">
        <ele>918.4000244140625</ele>
        <time>2026-08-21T13:02:01.000Z</time>
        <extensions>
          <ns3:TrackPointExtension>
            <ns3:hr>127</ns3:hr>
            <ns3:cad>0</ns3:cad>
          </ns3:TrackPointExtension>
        </extensions>
      </trkpt>
      <trkpt lat="45.3091700188815593719482421875" lon="-70.8137698285281658172607421875">
        <ele>918.79998779296875</ele>
        <time>2026-08-21T13:02:02.000Z</time>
        <extensions>
          <ns3:TrackPointExtension>
            <ns3:hr>126</ns3:hr>
            <ns3:cad>0</ns3:cad>
          </ns3:TrackPointExtension>
        </extensions>
      </trkpt>
      <trkpt lat="45.30915685929358005523681640625" lon="-70.813779048621654510498046875">
        <ele>919</ele>
        <time>2026-08-21T13:02:03.000Z</time>
        <extensions>
          <ns3:TrackPointExtension>
            <ns3:hr>126</ns3:hr>
            <ns3:cad>0</ns3:cad>
          </ns3:TrackPointExtension>
        </extensions>
      </trkpt>
      <trkpt lat="45.309149734675884246826171875" lon="-70.81378684379160404205322265625">
        <ele>919.20001220703125</ele>
        <time>2026-08-21T13:02:04.000Z</time>
        <extensions>
          <ns3:TrackPointExtension>
            <ns3:hr>126</ns3:hr>
            <ns3:cad>0</ns3:cad>
          </ns3:TrackPointExtension>
        </extensions>
      </trkpt>
      <trkpt lat="45.30913791619241237640380859375" lon="-70.81379078328609466552734375">
        <ele>919.4000244140625</ele>
        <time>2026-08-21T13:02:05.000Z</time>
        <extensions>
          <ns3:TrackPointExtension>
            <ns3:hr>125</ns3:hr>
            <ns3:cad>0</ns3:cad>
          </ns3:TrackPointExtension>
        </extensions>
      </trkpt>
      <trkpt lat="45.30912458896636962890625" lon="-70.81379539333283901214599609375">
        <ele>919.5999755859375</ele>
        <time>2026-08-21T13:02:06.000Z</time>
        <extensions>
          <ns3:TrackPointExtension>
            <ns3:hr>125</ns3:hr>
            <ns3:cad>0</ns3:cad>
          </ns3:TrackPointExtension>
        </extensions>
      </trkpt>
      <trkpt lat="45.30911008827388286590576171875" lon="-70.81380151212215423583984375">
        <ele>919.79998779296875</ele>
        <time>2026-08-21T13:02:07.000Z</time>
        <extensions>
          <ns3:TrackPointExtension>
            <ns3:hr>125</ns3:hr>
            <ns3:cad>0</ns3:cad>
          </ns3:TrackPointExtension>
        </extensions>
      </trkpt>
      <trkpt lat="45.30909969471395015716552734375" lon="-70.81380880437791347503662109375">
        <ele>920</ele>
        <time>2026-08-21T13:02:08.000Z</time>
        <extensions>
          <ns3:TrackPointExtension>
            <ns3:hr>124</ns3:hr>
            <ns3:cad>0</ns3:cad>
          </ns3:TrackPointExtension>
        </extensions>
      </trkpt>
      <trkpt lat="45.30908779241144657135009765625" lon="-70.81381400115787982940673828125">
        <ele>920.20001220703125</ele>
        <time>2026-08-21T13:02:09.000Z</time>
        <extensions>
          <ns3:TrackPointExtension>
            <ns3:hr>125</ns3:hr>
            <ns3:cad>0</ns3:cad>
          </ns3:TrackPointExtension>
        </extensions>
      </trkpt>
      <trkpt lat="45.309069268405437469482421875" lon="-70.81381785683333873748779296875">
        <ele>920.20001220703125</ele>
        <time>2026-08-21T13:02:10.000Z</time>
        <extensions>
          <ns3:TrackPointExtension>
            <ns3:hr>125</ns3:hr>
            <ns3:cad>0</ns3:cad>
          </ns3:TrackPointExtension>
        </extensions>
      </trkpt>
      <trkpt lat="45.30904990620911121368408203125" lon="-70.8138274960219860076904296875">
        <ele>920.20001220703125</ele>
        <time>2026-08-21T13:02:11.000Z</time>
        <extensions>
          <ns3:TrackPointExtension>
            <ns3:hr>126</ns3:hr>
            <ns3:cad>0</ns3:cad>
          </ns3:TrackPointExtension>
        </extensions>
      </trkpt>
      <trkpt lat="45.30903213657438755035400390625" lon="-70.81384845077991485595703125">
        <ele>920</ele>
        <time>2026-08-21T13:02:12.000Z</time>
        <extensions>
          <ns3:TrackPointExtension>
            <ns3:hr>127</ns3:hr>
            <ns3:cad>0</ns3:cad>
          </ns3:TrackPointExtension>
        </extensions>
      </trkpt>
      <trkpt lat="45.309023000299930572509765625" lon="-70.81386429257690906524658203125">
        <ele>919.79998779296875</ele>
        <time>2026-08-21T13:02:13.000Z</time>
        <extensions>
          <ns3:TrackPointExtension>
            <ns3:hr>127</ns3:hr>
            <ns3:cad>0</ns3:cad>
          </ns3:TrackPointExtension>
        </extensions>
      </trkpt>
      <trkpt lat="45.30900992453098297119140625" lon="-70.81389379687607288360595703125">
        <ele>919.79998779296875</ele>
        <time>2026-08-21T13:02:14.000Z</time>
        <extensions>
          <ns3:TrackPointExtension>
            <ns3:hr>128</ns3:hr>
            <ns3:cad>0</ns3:cad>
          </ns3:TrackPointExtension>
        </extensions>
      </trkpt>
      <trkpt lat="45.3090027160942554473876953125" lon="-70.8139210380613803863525390625">
        <ele>919.5999755859375</ele>
        <time>2026-08-21T13:02:15.000Z</time>
        <extensions>
          <ns3:TrackPointExtension>
            <ns3:hr>130</ns3:hr>
            <ns3:cad>65</ns3:cad>
          </ns3:TrackPointExtension>
        </extensions>
      </trkpt>
      <trkpt lat="45.30899777077138423919677734375" lon="-70.81395171582698822021484375">
        <ele>919.4000244140625</ele>
        <time>2026-08-21T13:02:16.000Z</time>
        <extensions>
          <ns3:TrackPointExtension>
            <ns3:hr>131</ns3:hr>
            <ns3:cad>65</ns3:cad>
          </ns3:TrackPointExtension>
        </extensions>
      </trkpt>
      <trkpt lat="45.3089980222284793853759765625" lon="-70.81397141329944133758544921875">
        <ele>919.20001220703125</ele>
        <time>2026-08-21T13:02:17.000Z</time>
        <extensions>
          <ns3:TrackPointExtension>
            <ns3:hr>132</ns3:hr>
            <ns3:cad>65</ns3:cad>
          </ns3:TrackPointExtension>
        </extensions>
      </trkpt>
      <trkpt lat="45.3090010397136211395263671875" lon="-70.813984237611293792724609375">
        <ele>919</ele>
        <time>2026-08-21T13:02:18.000Z</time>
        <extensions>
          <ns3:TrackPointExtension>
            <ns3:hr>132</ns3:hr>
            <ns3:cad>65</ns3:cad>
          </ns3:TrackPointExtension>
        </extensions>
      </trkpt>
      <trkpt lat="45.30898888595402240753173828125" lon="-70.81399924121797084808349609375">
        <ele>918.5999755859375</ele>
        <time>2026-08-21T13:02:19.000Z</time>
        <extensions>
          <ns3:TrackPointExtension>
            <ns3:hr>132</ns3:hr>
            <ns3:cad>65</ns3:cad>
          </ns3:TrackPointExtension>
        </extensions>
      </trkpt>
      <trkpt lat="45.30897916294634342193603515625" lon="-70.8140068687498569488525390625">
        <ele>918.4000244140625</ele>
        <time>2026-08-21T13:02:20.000Z</time>
        <extensions>
          <ns3:TrackPointExtension>
            <ns3:hr>134</ns3:hr>
            <ns3:cad>65</ns3:cad>
          </ns3:TrackPointExtension>
        </extensions>
      </trkpt>
      <trkpt lat="45.3089685179293155670166015625" lon="-70.81401952542364597320556640625">
        <ele>918.4000244140625</ele>
        <time>2026-08-21T13:02:21.000Z</time>
        <extensions>
          <ns3:TrackPointExtension>
            <ns3:hr>136</ns3:hr>
            <ns3:cad>57</ns3:cad>
          </ns3:TrackPointExtension>
        </extensions>
      </trkpt>
      <trkpt lat="45.30895954929292201995849609375" lon="-70.8140283264219760894775390625">
        <ele>918.20001220703125</ele>
        <time>2026-08-21T13:02:22.000Z</time>
        <extensions>
          <ns3:TrackPointExtension>
            <ns3:hr>138</ns3:hr>
            <ns3:cad>57</ns3:cad>
          </ns3:TrackPointExtension>
        </extensions>
      </trkpt>
      <trkpt lat="45.3089515864849090576171875" lon="-70.8140377141535282135009765625">
        <ele>917.79998779296875</ele>
        <time>2026-08-21T13:02:23.000Z</time>
        <extensions>
          <ns3:TrackPointExtension>
            <ns3:hr>138</ns3:hr>
            <ns3:cad>57</ns3:cad>
          </ns3:TrackPointExtension>
        </extensions>
      </trkpt>
      <trkpt lat="45.30894060619175434112548828125" lon="-70.8140548132359981536865234375">
        <ele>917.5999755859375</ele>
        <time>2026-08-21T13:02:24.000Z</time>
        <extensions>
          <ns3:TrackPointExtension>
            <ns3:hr>138</ns3:hr>
            <ns3:cad>57</ns3:cad>
          </ns3:TrackPointExtension>
        </extensions>
      </trkpt>
      <trkpt lat="45.3089262731373310089111328125" lon="-70.81406311132013797760009765625">
        <ele>917.4000244140625</ele>
        <time>2026-08-21T13:02:25.000Z</time>
        <extensions>
          <ns3:TrackPointExtension>
            <ns3:hr>139</ns3:hr>
            <ns3:cad>57</ns3:cad>
          </ns3:TrackPointExtension>
        </extensions>
      </trkpt>
      <trkpt lat="45.3089091740548610687255859375" lon="-70.81407736055552959442138671875">
        <ele>917</ele>
        <time>2026-08-21T13:02:26.000Z</time>
        <extensions>
          <ns3:TrackPointExtension>
            <ns3:hr>139</ns3:hr>
            <ns3:cad>0</ns3:cad>
          </ns3:TrackPointExtension>
        </extensions>
      </trkpt>
      <trkpt lat="45.30889735557138919830322265625" lon="-70.8140880055725574493408203125">
        <ele>916.79998779296875</ele>
        <time>2026-08-21T13:02:27.000Z</time>
        <extensions>
          <ns3:TrackPointExtension>
            <ns3:hr>139</ns3:hr>
            <ns3:cad>0</ns3:cad>
          </ns3:TrackPointExtension>
        </extensions>
      </trkpt>
      <trkpt lat="45.308886207640171051025390625" lon="-70.81408984959125518798828125">
        <ele>916.5999755859375</ele>
        <time>2026-08-21T13:02:28.000Z</time>
        <extensions>
          <ns3:TrackPointExtension>
            <ns3:hr>139</ns3:hr>
            <ns3:cad>0</ns3:cad>
          </ns3:TrackPointExtension>
        </extensions>
      </trkpt>
      <trkpt lat="45.3088736347854137420654296875" lon="-70.81408842466771602630615234375">
        <ele>916.5999755859375</ele>
        <time>2026-08-21T13:02:29.000Z</time>
        <extensions>
          <ns3:TrackPointExtension>
            <ns3:hr>139</ns3:hr>
            <ns3:cad>0</ns3:cad>
          </ns3:TrackPointExtension>
        </extensions>
      </trkpt>
      <trkpt lat="45.3088551945984363555908203125" lon="-70.81408792175352573394775390625">
        <ele>916.4000244140625</ele>
        <time>2026-08-21T13:02:30.000Z</time>
        <extensions>
          <ns3:TrackPointExtension>
            <ns3:hr>138</ns3:hr>
            <ns3:cad>0</ns3:cad>
          </ns3:TrackPointExtension>
        </extensions>
      </trkpt>
      <trkpt lat="45.30884404666721820831298828125" lon="-70.8140856586396694183349609375">
        <ele>916.20001220703125</ele>
        <time>2026-08-21T13:02:31.000Z</time>
        <extensions>
          <ns3:TrackPointExtension>
            <ns3:hr>139</ns3:hr>
            <ns3:cad>0</ns3:cad>
          </ns3:TrackPointExtension>
        </extensions>
      </trkpt>
      <trkpt lat="45.30882485210895538330078125" lon="-70.8140849880874156951904296875">
        <ele>916</ele>
        <time>2026-08-21T13:02:32.000Z</time>
        <extensions>
          <ns3:TrackPointExtension>
            <ns3:hr>138</ns3:hr>
            <ns3:cad>0</ns3:cad>
          </ns3:TrackPointExtension>
        </extensions>
      </trkpt>
      <trkpt lat="45.3088149614632129669189453125" lon="-70.8140853233635425567626953125">
        <ele>915.5999755859375</ele>
        <time>2026-08-21T13:02:33.000Z</time>
        <extensions>
          <ns3:TrackPointExtension>
            <ns3:hr>138</ns3:hr>
            <ns3:cad>0</ns3:cad>
          </ns3:TrackPointExtension>
        </extensions>
      </trkpt>
      <trkpt lat="45.30880012549459934234619140625" lon="-70.8140920288860797882080078125">
        <ele>915.4000244140625</ele>
        <time>2026-08-21T13:02:34.000Z</time>
        <extensions>
          <ns3:TrackPointExtension>
            <ns3:hr>139</ns3:hr>
            <ns3:cad>0</ns3:cad>
          </ns3:TrackPointExtension>
        </extensions>
      </trkpt>
      <trkpt lat="45.30879559926688671112060546875" lon="-70.81409613601863384246826171875">
        <ele>915.20001220703125</ele>
        <time>2026-08-21T13:02:35.000Z</time>
        <extensions>
          <ns3:TrackPointExtension>
            <ns3:hr>139</ns3:hr>
            <ns3:cad>0</ns3:cad>
          </ns3:TrackPointExtension>
        </extensions>
      </trkpt>
      <trkpt lat="45.3087874688208103179931640625" lon="-70.81410200335085391998291015625">
        <ele>914.79998779296875</ele>
        <time>2026-08-21T13:02:36.000Z</time>
        <extensions>
          <ns3:TrackPointExtension>
            <ns3:hr>138</ns3:hr>
            <ns3:cad>0</ns3:cad>
          </ns3:TrackPointExtension>
        </extensions>
      </trkpt>
      <trkpt lat="45.3087747283279895782470703125" lon="-70.81411055289208889007568359375">
        <ele>914.5999755859375</ele>
        <time>2026-08-21T13:02:37.000Z</time>
        <extensions>
          <ns3:TrackPointExtension>
            <ns3:hr>137</ns3:hr>
            <ns3:cad>0</ns3:cad>
          </ns3:TrackPointExtension>
        </extensions>
      </trkpt>
      <trkpt lat="45.3087670169770717620849609375" lon="-70.8141218684613704681396484375">
        <ele>914.20001220703125</ele>
        <time>2026-08-21T13:02:38.000Z</time>
        <extensions>
          <ns3:TrackPointExtension>
            <ns3:hr>137</ns3:hr>
            <ns3:cad>0</ns3:cad>
          </ns3:TrackPointExtension>
        </extensions>
      </trkpt>
      <trkpt lat="45.308769531548023223876953125" lon="-70.81412916071712970733642578125">
        <ele>913.79998779296875</ele>
        <time>2026-08-21T13:02:39.000Z</time>
        <extensions>
          <ns3:TrackPointExtension>
            <ns3:hr>138</ns3:hr>
            <ns3:cad>0</ns3:cad>
          </ns3:TrackPointExtension>
        </extensions>
      </trkpt>
      <trkpt lat="45.30876441858708858489990234375" lon="-70.814135782420635223388671875">
        <ele>913.4000244140625</ele>
        <time>2026-08-21T13:02:40.000Z</time>
        <extensions>
          <ns3:TrackPointExtension>
            <ns3:hr>138</ns3:hr>
            <ns3:cad>0</ns3:cad>
          </ns3:TrackPointExtension>
        </extensions>
      </trkpt>
      <trkpt lat="45.308755449950695037841796875" lon="-70.8141429908573627471923828125">
        <ele>913</ele>
        <time>2026-08-21T13:02:41.000Z</time>
        <extensions>
          <ns3:TrackPointExtension>
            <ns3:hr>138</ns3:hr>
            <ns3:cad>0</ns3:cad>
          </ns3:TrackPointExtension>
        </extensions>
      </trkpt>
      <trkpt lat="45.30874170362949371337890625" lon="-70.81415346823632717132568359375">
        <ele>912.4000244140625</ele>
        <time>2026-08-21T13:02:42.000Z</time>
        <extensions>
          <ns3:TrackPointExtension>
            <ns3:hr>137</ns3:hr>
            <ns3:cad>0</ns3:cad>
          </ns3:TrackPointExtension>
        </extensions>
      </trkpt>
      <trkpt lat="45.3087324835360050201416015625" lon="-70.81416687928140163421630859375">
        <ele>912</ele>
        <time>2026-08-21T13:02:43.000Z</time>
        <extensions>
          <ns3:TrackPointExtension>
            <ns3:hr>137</ns3:hr>
            <ns3:cad>0</ns3:cad>
          </ns3:TrackPointExtension>
        </extensions>
      </trkpt>
      <trkpt lat="45.3087235987186431884765625" lon="-70.8141681365668773651123046875">
        <ele>911.5999755859375</ele>
        <time>2026-08-21T13:02:44.000Z</time>
        <extensions>
          <ns3:TrackPointExtension>
            <ns3:hr>137</ns3:hr>
            <ns3:cad>0</ns3:cad>
          </ns3:TrackPointExtension>
        </extensions>
      </trkpt>
      <trkpt lat="45.3087128698825836181640625" lon="-70.8141709864139556884765625">
        <ele>911</ele>
        <time>2026-08-21T13:02:45.000Z</time>
        <extensions>
          <ns3:TrackPointExtension>
            <ns3:hr>138</ns3:hr>
            <ns3:cad>0</ns3:cad>
          </ns3:TrackPointExtension>
        </extensions>
      </trkpt>
      <trkpt lat="45.30870339833199977874755859375" lon="-70.81417299807071685791015625">
        <ele>910.5999755859375</ele>
        <time>2026-08-21T13:02:46.000Z</time>
        <extensions>
          <ns3:TrackPointExtension>
            <ns3:hr>137</ns3:hr>
            <ns3:cad>0</ns3:cad>
          </ns3:TrackPointExtension>
        </extensions>
      </trkpt>
      <trkpt lat="45.30869417823851108551025390625" lon="-70.81418179906904697418212890625">
        <ele>910</ele>
        <time>2026-08-21T13:02:47.000Z</time>
        <extensions>
          <ns3:TrackPointExtension>
            <ns3:hr>137</ns3:hr>
            <ns3:cad>0</ns3:cad>
          </ns3:TrackPointExtension>
        </extensions>
      </trkpt>
      <trkpt lat="45.30868671834468841552734375" lon="-70.81418934278190135955810546875">
        <ele>909.5999755859375</ele>
        <time>2026-08-21T13:02:48.000Z</time>
        <extensions>
          <ns3:TrackPointExtension>
            <ns3:hr>136</ns3:hr>
            <ns3:cad>0</ns3:cad>
          </ns3:TrackPointExtension>
        </extensions>
      </trkpt>
      <trkpt lat="45.30867557041347026824951171875" lon="-70.8141969703137874603271484375">
        <ele>909.20001220703125</ele>
        <time>2026-08-21T13:02:49.000Z</time>
        <extensions>
          <ns3:TrackPointExtension>
            <ns3:hr>136</ns3:hr>
            <ns3:cad>0</ns3:cad>
          </ns3:TrackPointExtension>
        </extensions>
      </trkpt>
      <trkpt lat="45.308665931224822998046875" lon="-70.81420225091278553009033203125">
        <ele>908.79998779296875</ele>
        <time>2026-08-21T13:02:50.000Z</time>
        <extensions>
          <ns3:TrackPointExtension>
            <ns3:hr>136</ns3:hr>
            <ns3:cad>76</ns3:cad>
          </ns3:TrackPointExtension>
        </extensions>
      </trkpt>
      <trkpt lat="45.3086597286164760589599609375" lon="-70.81420962698757648468017578125">
        <ele>908.20001220703125</ele>
        <time>2026-08-21T13:02:51.000Z</time>
        <extensions>
          <ns3:TrackPointExtension>
            <ns3:hr>136</ns3:hr>
            <ns3:cad>76</ns3:cad>
          </ns3:TrackPointExtension>
        </extensions>
      </trkpt>
      <trkpt lat="45.30865696258842945098876953125" lon="-70.81420996226370334625244140625">
        <ele>907.79998779296875</ele>
        <time>2026-08-21T13:02:52.000Z</time>
        <extensions>
          <ns3:TrackPointExtension>
            <ns3:hr>135</ns3:hr>
            <ns3:cad>76</ns3:cad>
          </ns3:TrackPointExtension>
        </extensions>
      </trkpt>
      <trkpt lat="45.308649502694606781005859375" lon="-70.81420761533081531524658203125">
        <ele>907.4000244140625</ele>
        <time>2026-08-21T13:02:53.000Z</time>
        <extensions>
          <ns3:TrackPointExtension>
            <ns3:hr>135</ns3:hr>
            <ns3:cad>76</ns3:cad>
          </ns3:TrackPointExtension>
        </extensions>
      </trkpt>
      <trkpt lat="45.30863869003951549530029296875" lon="-70.81421163864433765411376953125">
        <ele>907</ele>
        <time>2026-08-21T13:02:54.000Z</time>
        <extensions>
          <ns3:TrackPointExtension>
            <ns3:hr>135</ns3:hr>
            <ns3:cad>76</ns3:cad>
          </ns3:TrackPointExtension>
        </extensions>
      </trkpt>
      <trkpt lat="45.3086308948695659637451171875" lon="-70.81422119401395320892333984375">
        <ele>906.5999755859375</ele>
        <time>2026-08-21T13:02:55.000Z</time>
        <extensions>
          <ns3:TrackPointExtension>
            <ns3:hr>135</ns3:hr>
            <ns3:cad>76</ns3:cad>
          </ns3:TrackPointExtension>
        </extensions>
      </trkpt>
      <trkpt lat="45.3086262010037899017333984375" lon="-70.8142299950122833251953125">
        <ele>906.20001220703125</ele>
        <time>2026-08-21T13:02:56.000Z</time>
        <extensions>
          <ns3:TrackPointExtension>
            <ns3:hr>135</ns3:hr>
            <ns3:cad>76</ns3:cad>
          </ns3:TrackPointExtension>
        </extensions>
      </trkpt>
      <trkpt lat="45.30862309969961643218994140625" lon="-70.8142407238483428955078125">
        <ele>905.79998779296875</ele>
        <time>2026-08-21T13:02:57.000Z</time>
        <extensions>
          <ns3:TrackPointExtension>
            <ns3:hr>134</ns3:hr>
            <ns3:cad>76</ns3:cad>
          </ns3:TrackPointExtension>
        </extensions>
      </trkpt>
      <trkpt lat="45.3086168132722377777099609375" lon="-70.81426042132079601287841796875">
        <ele>905.4000244140625</ele>
        <time>2026-08-21T13:02:58.000Z</time>
        <extensions>
          <ns3:TrackPointExtension>
            <ns3:hr>133</ns3:hr>
            <ns3:cad>76</ns3:cad>
          </ns3:TrackPointExtension>
        </extensions>
      </trkpt>
      <trkpt lat="45.30860985629260540008544921875" lon="-70.814279280602931976318359375">
        <ele>904.79998779296875</ele>
        <time>2026-08-21T13:02:59.000Z</time>
        <extensions>
          <ns3:TrackPointExtension>
            <ns3:hr>132</ns3:hr>
            <ns3:cad>76</ns3:cad>
          </ns3:TrackPointExtension>
        </extensions>
      </trkpt>
      <trkpt lat="45.3086034022271633148193359375" lon="-70.81428824923932552337646484375">
        <ele>904.5999755859375</ele>
        <time>2026-08-21T13:03:00.000Z</time>
        <extensions>
          <ns3:TrackPointExtension>
            <ns3:hr>132</ns3:hr>
            <ns3:cad>77</ns3:cad>
          </ns3:TrackPointExtension>
        </extensions>
      </trkpt>
      <trkpt lat="45.30859694816172122955322265625" lon="-70.81429730169475078582763671875">
        <ele>904.20001220703125</ele>
        <time>2026-08-21T13:03:01.000Z</time>
        <extensions>
          <ns3:TrackPointExtension>
            <ns3:hr>132</ns3:hr>
            <ns3:cad>77</ns3:cad>
          </ns3:TrackPointExtension>
        </extensions>
      </trkpt>
      <trkpt lat="45.30859342776238918304443359375" lon="-70.81430886872112751007080078125">
        <ele>904</ele>
        <time>2026-08-21T13:03:02.000Z</time>
        <extensions>
          <ns3:TrackPointExtension>
            <ns3:hr>131</ns3:hr>
            <ns3:cad>0</ns3:cad>
          </ns3:TrackPointExtension>
        </extensions>
      </trkpt>
      <trkpt lat="45.3085841238498687744140625" lon="-70.81431708298623561859130859375">
        <ele>903.5999755859375</ele>
        <time>2026-08-21T13:03:03.000Z</time>
        <extensions>
          <ns3:TrackPointExtension>
            <ns3:hr>132</ns3:hr>
            <ns3:cad>0</ns3:cad>
          </ns3:TrackPointExtension>
        </extensions>
      </trkpt>
      <trkpt lat="45.30857448466122150421142578125" lon="-70.81432831473648548126220703125">
        <ele>903.20001220703125</ele>
        <time>2026-08-21T13:03:04.000Z</time>
        <extensions>
          <ns3:TrackPointExtension>
            <ns3:hr>132</ns3:hr>
            <ns3:cad>0</ns3:cad>
          </ns3:TrackPointExtension>
        </extensions>
      </trkpt>
      <trkpt lat="45.30856627039611339569091796875" lon="-70.8143270574510097503662109375">
        <ele>902.79998779296875</ele>
        <time>2026-08-21T13:03:05.000Z</time>
        <extensions>
          <ns3:TrackPointExtension>
            <ns3:hr>132</ns3:hr>
            <ns3:cad>0</ns3:cad>
          </ns3:TrackPointExtension>
        </extensions>
      </trkpt>
      <trkpt lat="45.30855671502649784088134765625" lon="-70.8143330924212932586669921875">
        <ele>902.20001220703125</ele>
        <time>2026-08-21T13:03:06.000Z</time>
        <extensions>
          <ns3:TrackPointExtension>
            <ns3:hr>133</ns3:hr>
            <ns3:cad>0</ns3:cad>
          </ns3:TrackPointExtension>
        </extensions>
      </trkpt>
      <trkpt lat="45.308547914028167724609375" lon="-70.8143364451825618743896484375">
        <ele>901.5999755859375</ele>
        <time>2026-08-21T13:03:07.000Z</time>
        <extensions>
          <ns3:TrackPointExtension>
            <ns3:hr>133</ns3:hr>
            <ns3:cad>0</ns3:cad>
          </ns3:TrackPointExtension>
        </extensions>
      </trkpt>
      <trkpt lat="45.30853995122015476226806640625" lon="-70.8143413066864013671875">
        <ele>901.20001220703125</ele>
        <time>2026-08-21T13:03:08.000Z</time>
        <extensions>
          <ns3:TrackPointExtension>
            <ns3:hr>133</ns3:hr>
            <ns3:cad>0</ns3:cad>
          </ns3:TrackPointExtension>
        </extensions>
      </trkpt>
      <trkpt lat="45.30852721072733402252197265625" lon="-70.8143426477909088134765625">
        <ele>900.5999755859375</ele>
        <time>2026-08-21T13:03:09.000Z</time>
        <extensions>
          <ns3:TrackPointExtension>
            <ns3:hr>133</ns3:hr>
            <ns3:cad>0</ns3:cad>
          </ns3:TrackPointExtension>
        </extensions>
      </trkpt>
      <trkpt lat="45.3085142187774181365966796875" lon="-70.81434457562863826751708984375">
        <ele>900.20001220703125</ele>
        <time>2026-08-21T13:03:10.000Z</time>
        <extensions>
          <ns3:TrackPointExtension>
            <ns3:hr>132</ns3:hr>
            <ns3:cad>0</ns3:cad>
          </ns3:TrackPointExtension>
        </extensions>
      </trkpt>
      <trkpt lat="45.30851145274937152862548828125" lon="-70.8143364451825618743896484375">
        <ele>899.79998779296875</ele>
        <time>2026-08-21T13:03:11.000Z</time>
        <extensions>
          <ns3:TrackPointExtension>
            <ns3:hr>132</ns3:hr>
            <ns3:cad>0</ns3:cad>
          </ns3:TrackPointExtension>
        </extensions>
      </trkpt>
      <trkpt lat="45.3085024841129779815673828125" lon="-70.81432697363197803497314453125">
        <ele>899.4000244140625</ele>
        <time>2026-08-21T13:03:12.000Z</time>
        <extensions>
          <ns3:TrackPointExtension>
            <ns3:hr>132</ns3:hr>
            <ns3:cad>17</ns3:cad>
          </ns3:TrackPointExtension>
        </extensions>
      </trkpt>
      <trkpt lat="45.30849116854369640350341796875" lon="-70.81432512961328029632568359375">
        <ele>899.20001220703125</ele>
        <time>2026-08-21T13:03:13.000Z</time>
        <extensions>
          <ns3:TrackPointExtension>
            <ns3:hr>131</ns3:hr>
            <ns3:cad>17</ns3:cad>
          </ns3:TrackPointExtension>
        </extensions>
      </trkpt>
      <trkpt lat="45.30847474001348018646240234375" lon="-70.81432680599391460418701171875">
        <ele>899</ele>
        <time>2026-08-21T13:03:14.000Z</time>
        <extensions>
          <ns3:TrackPointExtension>
            <ns3:hr>131</ns3:hr>
            <ns3:cad>0</ns3:cad>
          </ns3:TrackPointExtension>
        </extensions>
      </trkpt>
      <trkpt lat="45.3084632568061351776123046875" lon="-70.81433552317321300506591796875">
        <ele>898.79998779296875</ele>
        <time>2026-08-21T13:03:15.000Z</time>
        <extensions>
          <ns3:TrackPointExtension>
            <ns3:hr>130</ns3:hr>
            <ns3:cad>0</ns3:cad>
          </ns3:TrackPointExtension>
        </extensions>
      </trkpt>
      <trkpt lat="45.30845738947391510009765625" lon="-70.81433468498289585113525390625">
        <ele>898.5999755859375</ele>
        <time>2026-08-21T13:03:16.000Z</time>
        <extensions>
          <ns3:TrackPointExtension>
            <ns3:hr>130</ns3:hr>
            <ns3:cad>0</ns3:cad>
          </ns3:TrackPointExtension>
        </extensions>
      </trkpt>
      <trkpt lat="45.308446995913982391357421875" lon="-70.81433602608740329742431640625">
        <ele>898.4000244140625</ele>
        <time>2026-08-21T13:03:17.000Z</time>
        <extensions>
          <ns3:TrackPointExtension>
            <ns3:hr>130</ns3:hr>
            <ns3:cad>0</ns3:cad>
          </ns3:TrackPointExtension>
        </extensions>
      </trkpt>
      <trkpt lat="45.30842511914670467376708984375" lon="-70.81434474326670169830322265625">
        <ele>898.20001220703125</ele>
        <time>2026-08-21T13:03:18.000Z</time>
        <extensions>
          <ns3:TrackPointExtension>
            <ns3:hr>130</ns3:hr>
            <ns3:cad>0</ns3:cad>
          </ns3:TrackPointExtension>
        </extensions>
      </trkpt>
      <trkpt lat="45.30841120518743991851806640625" lon="-70.81435270607471466064453125">
        <ele>897.79998779296875</ele>
        <time>2026-08-21T13:03:19.000Z</time>
        <extensions>
          <ns3:TrackPointExtension>
            <ns3:hr>130</ns3:hr>
            <ns3:cad>0</ns3:cad>
          </ns3:TrackPointExtension>
        </extensions>
      </trkpt>
      <trkpt lat="45.3083995543420314788818359375" lon="-70.81437123008072376251220703125">
        <ele>897.5999755859375</ele>
        <time>2026-08-21T13:03:20.000Z</time>
        <extensions>
          <ns3:TrackPointExtension>
            <ns3:hr>130</ns3:hr>
            <ns3:cad>0</ns3:cad>
          </ns3:TrackPointExtension>
        </extensions>
      </trkpt>
      <trkpt lat="45.3083881549537181854248046875" lon="-70.81437961198389530181884765625">
        <ele>897.4000244140625</ele>
        <time>2026-08-21T13:03:21.000Z</time>
        <extensions>
          <ns3:TrackPointExtension>
            <ns3:hr>130</ns3:hr>
            <ns3:cad>0</ns3:cad>
          </ns3:TrackPointExtension>
        </extensions>
      </trkpt>
      <trkpt lat="45.3083740733563899993896484375" lon="-70.81438899971544742584228515625">
        <ele>897.20001220703125</ele>
        <time>2026-08-21T13:03:22.000Z</time>
        <extensions>
          <ns3:TrackPointExtension>
            <ns3:hr>129</ns3:hr>
            <ns3:cad>0</ns3:cad>
          </ns3:TrackPointExtension>
        </extensions>
      </trkpt>
      <trkpt lat="45.30836795456707477569580078125" lon="-70.81440643407404422760009765625">
        <ele>897</ele>
        <time>2026-08-21T13:03:23.000Z</time>
        <extensions>
          <ns3:TrackPointExtension>
            <ns3:hr>130</ns3:hr>
            <ns3:cad>0</ns3:cad>
          </ns3:TrackPointExtension>
        </extensions>
      </trkpt>
      <trkpt lat="45.30836275778710842132568359375" lon="-70.8144165761768817901611328125">
        <ele>897</ele>
        <time>2026-08-21T13:03:24.000Z</time>
        <extensions>
          <ns3:TrackPointExtension>
            <ns3:hr>130</ns3:hr>
            <ns3:cad>0</ns3:cad>
          </ns3:TrackPointExtension>
        </extensions>
      </trkpt>
      <trkpt lat="45.3083588182926177978515625" lon="-70.8144333399832248687744140625">
        <ele>897</ele>
        <time>2026-08-21T13:03:25.000Z</time>
        <extensions>
          <ns3:TrackPointExtension>
            <ns3:hr>130</ns3:hr>
            <ns3:cad>0</ns3:cad>
          </ns3:TrackPointExtension>
        </extensions>
      </trkpt>
      <trkpt lat="45.30835806392133235931396484375" lon="-70.814455635845661163330078125">
        <ele>897</ele>
        <time>2026-08-21T13:03:26.000Z</time>
        <extensions>
          <ns3:TrackPointExtension>
            <ns3:hr>130</ns3:hr>
            <ns3:cad>0</ns3:cad>
          </ns3:TrackPointExtension>
        </extensions>
      </trkpt>
      <trkpt lat="45.30835814774036407470703125" lon="-70.81446804106235504150390625">
        <ele>897</ele>
        <time>2026-08-21T13:03:27.000Z</time>
        <extensions>
          <ns3:TrackPointExtension>
            <ns3:hr>131</ns3:hr>
            <ns3:cad>0</ns3:cad>
          </ns3:TrackPointExtension>
        </extensions>
      </trkpt>
      <trkpt lat="45.30835722573101520538330078125" lon="-70.81448505632579326629638671875">
        <ele>897</ele>
        <time>2026-08-21T13:03:28.000Z</time>
        <extensions>
          <ns3:TrackPointExtension>
            <ns3:hr>131</ns3:hr>
            <ns3:cad>0</ns3:cad>
          </ns3:TrackPointExtension>
        </extensions>
      </trkpt>
      <trkpt lat="45.30835052020847797393798828125" lon="-70.81449595279991626739501953125">
        <ele>897</ele>
        <time>2026-08-21T13:03:29.000Z</time>
        <extensions>
          <ns3:TrackPointExtension>
            <ns3:hr>130</ns3:hr>
            <ns3:cad>55</ns3:cad>
          </ns3:TrackPointExtension>
        </extensions>
      </trkpt>
      <trkpt lat="45.3083435632288455963134765625" lon="-70.8145047537982463836669921875">
        <ele>897.20001220703125</ele>
        <time>2026-08-21T13:03:30.000Z</time>
        <extensions>
          <ns3:TrackPointExtension>
            <ns3:hr>130</ns3:hr>
            <ns3:cad>55</ns3:cad>
          </ns3:TrackPointExtension>
        </extensions>
      </trkpt>
      <trkpt lat="45.3083345107734203338623046875" lon="-70.81451774574816226959228515625">
        <ele>897.4000244140625</ele>
        <time>2026-08-21T13:03:31.000Z</time>
        <extensions>
          <ns3:TrackPointExtension>
            <ns3:hr>129</ns3:hr>
            <ns3:cad>55</ns3:cad>
          </ns3:TrackPointExtension>
        </extensions>
      </trkpt>
      <trkpt lat="45.30832772143185138702392578125" lon="-70.8145201765000820159912109375">
        <ele>897.79998779296875</ele>
        <time>2026-08-21T13:03:32.000Z</time>
        <extensions>
          <ns3:TrackPointExtension>
            <ns3:hr>129</ns3:hr>
            <ns3:cad>55</ns3:cad>
          </ns3:TrackPointExtension>
        </extensions>
      </trkpt>
      <trkpt lat="45.30832269228994846343994140625" lon="-70.8145221881568431854248046875">
        <ele>898</ele>
        <time>2026-08-21T13:03:33.000Z</time>
        <extensions>
          <ns3:TrackPointExtension>
            <ns3:hr>129</ns3:hr>
            <ns3:cad>55</ns3:cad>
          </ns3:TrackPointExtension>
        </extensions>
      </trkpt>
      <trkpt lat="45.30830525793135166168212890625" lon="-70.81452847458422183990478515625">
        <ele>898.4000244140625</ele>
        <time>2026-08-21T13:03:34.000Z</time>
        <extensions>
          <ns3:TrackPointExtension>
            <ns3:hr>129</ns3:hr>
            <ns3:cad>55</ns3:cad>
          </ns3:TrackPointExtension>
        </extensions>
      </trkpt>
      <trkpt lat="45.3082998096942901611328125" lon="-70.81452763639390468597412109375">
        <ele>898.79998779296875</ele>
        <time>2026-08-21T13:03:35.000Z</time>
        <extensions>
          <ns3:TrackPointExtension>
            <ns3:hr>128</ns3:hr>
            <ns3:cad>55</ns3:cad>
          </ns3:TrackPointExtension>
        </extensions>
      </trkpt>
      <trkpt lat="45.308285057544708251953125" lon="-70.81453484483063220977783203125">
        <ele>899</ele>
        <time>2026-08-21T13:03:36.000Z</time>
        <extensions>
          <ns3:TrackPointExtension>
            <ns3:hr>128</ns3:hr>
            <ns3:cad>55</ns3:cad>
          </ns3:TrackPointExtension>
        </extensions>
      </trkpt>
      <trkpt lat="45.308279693126678466796875" lon="-70.8145416341722011566162109375">
        <ele>899.20001220703125</ele>
        <time>2026-08-21T13:03:37.000Z</time>
        <extensions>
          <ns3:TrackPointExtension>
            <ns3:hr>127</ns3:hr>
            <ns3:cad>55</ns3:cad>
          </ns3:TrackPointExtension>
        </extensions>
      </trkpt>
      <trkpt lat="45.3082756698131561279296875" lon="-70.814546160399913787841796875">
        <ele>899.5999755859375</ele>
        <time>2026-08-21T13:03:38.000Z</time>
        <extensions>
          <ns3:TrackPointExtension>
            <ns3:hr>127</ns3:hr>
            <ns3:cad>0</ns3:cad>
          </ns3:TrackPointExtension>
        </extensions>
      </trkpt>
      <trkpt lat="45.30826619826257228851318359375" lon="-70.8145577274262905120849609375">
        <ele>899.79998779296875</ele>
        <time>2026-08-21T13:03:39.000Z</time>
        <extensions>
          <ns3:TrackPointExtension>
            <ns3:hr>126</ns3:hr>
            <ns3:cad>0</ns3:cad>
          </ns3:TrackPointExtension>
        </extensions>
      </trkpt>
      <trkpt lat="45.308258235454559326171875" lon="-70.81456594169139862060546875">
        <ele>900.20001220703125</ele>
        <time>2026-08-21T13:03:40.000Z</time>
        <extensions>
          <ns3:TrackPointExtension>
            <ns3:hr>126</ns3:hr>
            <ns3:cad>0</ns3:cad>
          </ns3:TrackPointExtension>
        </extensions>
      </trkpt>
      <trkpt lat="45.308251865208148956298828125" lon="-70.8145694620907306671142578125">
        <ele>900.5999755859375</ele>
        <time>2026-08-21T13:03:41.000Z</time>
        <extensions>
          <ns3:TrackPointExtension>
            <ns3:hr>126</ns3:hr>
            <ns3:cad>48</ns3:cad>
          </ns3:TrackPointExtension>
        </extensions>
      </trkpt>
      <trkpt lat="45.308245830237865447998046875" lon="-70.81457130610942840576171875">
        <ele>901</ele>
        <time>2026-08-21T13:03:42.000Z</time>
        <extensions>
          <ns3:TrackPointExtension>
            <ns3:hr>126</ns3:hr>
            <ns3:cad>48</ns3:cad>
          </ns3:TrackPointExtension>
        </extensions>
      </trkpt>
      <trkpt lat="45.3082309104502201080322265625" lon="-70.81457641907036304473876953125">
        <ele>901.4000244140625</ele>
        <time>2026-08-21T13:03:43.000Z</time>
        <extensions>
          <ns3:TrackPointExtension>
            <ns3:hr>127</ns3:hr>
            <ns3:cad>48</ns3:cad>
          </ns3:TrackPointExtension>
        </extensions>
      </trkpt>
      <trkpt lat="45.30822546221315860748291015625" lon="-70.81458270549774169921875">
        <ele>901.5999755859375</ele>
        <time>2026-08-21T13:03:44.000Z</time>
        <extensions>
          <ns3:TrackPointExtension>
            <ns3:hr>127</ns3:hr>
            <ns3:cad>48</ns3:cad>
          </ns3:TrackPointExtension>
        </extensions>
      </trkpt>
      <trkpt lat="45.3082144819200038909912109375" lon="-70.8145912550389766693115234375">
        <ele>901.79998779296875</ele>
        <time>2026-08-21T13:03:45.000Z</time>
        <extensions>
          <ns3:TrackPointExtension>
            <ns3:hr>127</ns3:hr>
            <ns3:cad>0</ns3:cad>
          </ns3:TrackPointExtension>
        </extensions>
      </trkpt>
      <trkpt lat="45.30820953659713268280029296875" lon="-70.81459812819957733154296875">
        <ele>902</ele>
        <time>2026-08-21T13:03:46.000Z</time>
        <extensions>
          <ns3:TrackPointExtension>
            <ns3:hr>128</ns3:hr>
            <ns3:cad>0</ns3:cad>
          </ns3:TrackPointExtension>
        </extensions>
      </trkpt>
      <trkpt lat="45.308198891580104827880859375" lon="-70.8146019838750362396240234375">
        <ele>902.20001220703125</ele>
        <time>2026-08-21T13:03:47.000Z</time>
        <extensions>
          <ns3:TrackPointExtension>
            <ns3:hr>129</ns3:hr>
            <ns3:cad>0</ns3:cad>
          </ns3:TrackPointExtension>
        </extensions>
      </trkpt>
      <trkpt lat="45.3081817924976348876953125" lon="-70.81460349261760711669921875">
        <ele>902.4000244140625</ele>
        <time>2026-08-21T13:03:48.000Z</time>
        <extensions>
          <ns3:TrackPointExtension>
            <ns3:hr>130</ns3:hr>
            <ns3:cad>0</ns3:cad>
          </ns3:TrackPointExtension>
        </extensions>
      </trkpt>
      <trkpt lat="45.30817651189863681793212890625" lon="-70.8146120421588420867919921875">
        <ele>902.5999755859375</ele>
        <time>2026-08-21T13:03:49.000Z</time>
        <extensions>
          <ns3:TrackPointExtension>
            <ns3:hr>131</ns3:hr>
            <ns3:cad>0</ns3:cad>
          </ns3:TrackPointExtension>
        </extensions>
      </trkpt>
      <trkpt lat="45.30817600898444652557373046875" lon="-70.8146096952259540557861328125">
        <ele>902.79998779296875</ele>
        <time>2026-08-21T13:03:50.000Z</time>
        <extensions>
          <ns3:TrackPointExtension>
            <ns3:hr>132</ns3:hr>
            <ns3:cad>0</ns3:cad>
          </ns3:TrackPointExtension>
        </extensions>
      </trkpt>
      <trkpt lat="45.30817709863185882568359375" lon="-70.81461262889206409454345703125">
        <ele>903.20001220703125</ele>
        <time>2026-08-21T13:03:51.000Z</time>
        <extensions>
          <ns3:TrackPointExtension>
            <ns3:hr>134</ns3:hr>
            <ns3:cad>0</ns3:cad>
          </ns3:TrackPointExtension>
        </extensions>
      </trkpt>
      <trkpt lat="45.30816905200481414794921875" lon="-70.81460307352244853973388671875">
        <ele>903.5999755859375</ele>
        <time>2026-08-21T13:03:52.000Z</time>
        <extensions>
          <ns3:TrackPointExtension>
            <ns3:hr>135</ns3:hr>
            <ns3:cad>0</ns3:cad>
          </ns3:TrackPointExtension>
        </extensions>
      </trkpt>
      <trkpt lat="45.308164022862911224365234375" lon="-70.8145947754383087158203125">
        <ele>903.79998779296875</ele>
        <time>2026-08-21T13:03:53.000Z</time>
        <extensions>
          <ns3:TrackPointExtension>
            <ns3:hr>137</ns3:hr>
            <ns3:cad>0</ns3:cad>
          </ns3:TrackPointExtension>
        </extensions>
      </trkpt>
      <trkpt lat="45.30815455131232738494873046875" lon="-70.8145956136286258697509765625">
        <ele>904.20001220703125</ele>
        <time>2026-08-21T13:03:54.000Z</time>
        <extensions>
          <ns3:TrackPointExtension>
            <ns3:hr>138</ns3:hr>
            <ns3:cad>0</ns3:cad>
          </ns3:TrackPointExtension>
        </extensions>
      </trkpt>
      <trkpt lat="45.30814181081950664520263671875" lon="-70.81460156477987766265869140625">
        <ele>904.4000244140625</ele>
        <time>2026-08-21T13:03:55.000Z</time>
        <extensions>
          <ns3:TrackPointExtension>
            <ns3:hr>139</ns3:hr>
            <ns3:cad>0</ns3:cad>
          </ns3:TrackPointExtension>
        </extensions>
      </trkpt>
      <trkpt lat="45.3081353567540645599365234375" lon="-70.814611874520778656005859375">
        <ele>904.4000244140625</ele>
        <time>2026-08-21T13:03:56.000Z</time>
        <extensions>
          <ns3:TrackPointExtension>
            <ns3:hr>139</ns3:hr>
            <ns3:cad>0</ns3:cad>
          </ns3:TrackPointExtension>
        </extensions>
      </trkpt>
      <trkpt lat="45.30812680721282958984375" lon="-70.8146184124052524566650390625">
        <ele>904.4000244140625</ele>
        <time>2026-08-21T13:03:57.000Z</time>
        <extensions>
          <ns3:TrackPointExtension>
            <ns3:hr>139</ns3:hr>
            <ns3:cad>0</ns3:cad>
          </ns3:TrackPointExtension>
        </extensions>
      </trkpt>
      <trkpt lat="45.30812471173703670501708984375" lon="-70.81462352536618709564208984375">
        <ele>904.5999755859375</ele>
        <time>2026-08-21T13:03:58.000Z</time>
        <extensions>
          <ns3:TrackPointExtension>
            <ns3:hr>139</ns3:hr>
            <ns3:cad>0</ns3:cad>
          </ns3:TrackPointExtension>
        </extensions>
      </trkpt>
      <trkpt lat="45.308118425309658050537109375" lon="-70.8146321587264537811279296875">
        <ele>904.5999755859375</ele>
        <time>2026-08-21T13:03:59.000Z</time>
        <extensions>
          <ns3:TrackPointExtension>
            <ns3:hr>139</ns3:hr>
            <ns3:cad>0</ns3:cad>
          </ns3:TrackPointExtension>
        </extensions>
      </trkpt>
      <trkpt lat="45.308110378682613372802734375" lon="-70.81463207490742206573486328125">
        <ele>904.5999755859375</ele>
        <time>2026-08-21T13:04:00.000Z</time>
        <extensions>
          <ns3:TrackPointExtension>
            <ns3:hr>139</ns3:hr>
            <ns3:cad>0</ns3:cad>
          </ns3:TrackPointExtension>
        </extensions>
      </trkpt>
      <trkpt lat="45.3081041760742664337158203125" lon="-70.8146281354129314422607421875">
        <ele>904.79998779296875</ele>
        <time>2026-08-21T13:04:01.000Z</time>
        <extensions>
          <ns3:TrackPointExtension>
            <ns3:hr>139</ns3:hr>
            <ns3:cad>0</ns3:cad>
          </ns3:TrackPointExtension>
        </extensions>
      </trkpt>
      <trkpt lat="45.30810090713202953338623046875" lon="-70.81462771631777286529541015625">
        <ele>905</ele>
        <time>2026-08-21T13:04:02.000Z</time>
        <extensions>
          <ns3:TrackPointExtension>
            <ns3:hr>140</ns3:hr>
            <ns3:cad>0</ns3:cad>
          </ns3:TrackPointExtension>
        </extensions>
      </trkpt>
      <trkpt lat="45.30809755437076091766357421875" lon="-70.81461866386234760284423828125">
        <ele>905.20001220703125</ele>
        <time>2026-08-21T13:04:03.000Z</time>
        <extensions>
          <ns3:TrackPointExtension>
            <ns3:hr>140</ns3:hr>
            <ns3:cad>0</ns3:cad>
          </ns3:TrackPointExtension>
        </extensions>
      </trkpt>
      <trkpt lat="45.30809034593403339385986328125" lon="-70.81461497582495212554931640625">
        <ele>905.4000244140625</ele>
        <time>2026-08-21T13:04:04.000Z</time>
        <extensions>
          <ns3:TrackPointExtension>
            <ns3:hr>141</ns3:hr>
            <ns3:cad>53</ns3:cad>
          </ns3:TrackPointExtension>
        </extensions>
      </trkpt>
      <trkpt lat="45.308082886040210723876953125" lon="-70.81460927613079547882080078125">
        <ele>905.5999755859375</ele>
        <time>2026-08-21T13:04:05.000Z</time>
        <extensions>
          <ns3:TrackPointExtension>
            <ns3:hr>142</ns3:hr>
            <ns3:cad>53</ns3:cad>
          </ns3:TrackPointExtension>
        </extensions>
      </trkpt>
      <trkpt lat="45.30806855298578739166259765625" lon="-70.8146162331104278564453125">
        <ele>906</ele>
        <time>2026-08-21T13:04:06.000Z</time>
        <extensions>
          <ns3:TrackPointExtension>
            <ns3:hr>143</ns3:hr>
            <ns3:cad>49</ns3:cad>
          </ns3:TrackPointExtension>
        </extensions>
      </trkpt>
      <trkpt lat="45.30805245973169803619384765625" lon="-70.8146177418529987335205078125">
        <ele>906.20001220703125</ele>
        <time>2026-08-21T13:04:07.000Z</time>
        <extensions>
          <ns3:TrackPointExtension>
            <ns3:hr>144</ns3:hr>
            <ns3:cad>49</ns3:cad>
          </ns3:TrackPointExtension>
        </extensions>
      </trkpt>
      <trkpt lat="45.30804432928562164306640625" lon="-70.814614556729793548583984375">
        <ele>906.4000244140625</ele>
        <time>2026-08-21T13:04:08.000Z</time>
        <extensions>
          <ns3:TrackPointExtension>
            <ns3:hr>145</ns3:hr>
            <ns3:cad>49</ns3:cad>
          </ns3:TrackPointExtension>
        </extensions>
      </trkpt>
      <trkpt lat="45.30803494155406951904296875" lon="-70.81460927613079547882080078125">
        <ele>906.4000244140625</ele>
        <time>2026-08-21T13:04:09.000Z</time>
        <extensions>
          <ns3:TrackPointExtension>
            <ns3:hr>146</ns3:hr>
            <ns3:cad>51</ns3:cad>
          </ns3:TrackPointExtension>
        </extensions>
      </trkpt>
      <trkpt lat="45.3080190159380435943603515625" lon="-70.814608521759510040283203125">
        <ele>906.5999755859375</ele>
        <time>2026-08-21T13:04:10.000Z</time>
        <extensions>
          <ns3:TrackPointExtension>
            <ns3:hr>147</ns3:hr>
            <ns3:cad>51</ns3:cad>
          </ns3:TrackPointExtension>
        </extensions>
      </trkpt>
      <trkpt lat="45.3080062754452228546142578125" lon="-70.81461044959723949432373046875">
        <ele>906.5999755859375</ele>
        <time>2026-08-21T13:04:11.000Z</time>
        <extensions>
          <ns3:TrackPointExtension>
            <ns3:hr>147</ns3:hr>
            <ns3:cad>51</ns3:cad>
          </ns3:TrackPointExtension>
        </extensions>
      </trkpt>
      <trkpt lat="45.30799328349530696868896484375" lon="-70.8146127127110958099365234375">
        <ele>906.5999755859375</ele>
        <time>2026-08-21T13:04:12.000Z</time>
        <extensions>
          <ns3:TrackPointExtension>
            <ns3:hr>148</ns3:hr>
            <ns3:cad>51</ns3:cad>
          </ns3:TrackPointExtension>
        </extensions>
      </trkpt>
      <trkpt lat="45.307984985411167144775390625" lon="-70.8146117068827152252197265625">
        <ele>906.5999755859375</ele>
        <time>2026-08-21T13:04:13.000Z</time>
        <extensions>
          <ns3:TrackPointExtension>
            <ns3:hr>149</ns3:hr>
            <ns3:cad>51</ns3:cad>
          </ns3:TrackPointExtension>
        </extensions>
      </trkpt>
      <trkpt lat="45.30797886662185192108154296875" lon="-70.81461028195917606353759765625">
        <ele>906.5999755859375</ele>
        <time>2026-08-21T13:04:14.000Z</time>
        <extensions>
          <ns3:TrackPointExtension>
            <ns3:hr>149</ns3:hr>
            <ns3:cad>51</ns3:cad>
          </ns3:TrackPointExtension>
        </extensions>
      </trkpt>
      <trkpt lat="45.30796545557677745819091796875" lon="-70.81460977904498577117919921875">
        <ele>906.5999755859375</ele>
        <time>2026-08-21T13:04:15.000Z</time>
        <extensions>
          <ns3:TrackPointExtension>
            <ns3:hr>150</ns3:hr>
            <ns3:cad>51</ns3:cad>
          </ns3:TrackPointExtension>
        </extensions>
      </trkpt>
      <trkpt lat="45.30795179307460784912109375" lon="-70.81460659392178058624267578125">
        <ele>906.79998779296875</ele>
        <time>2026-08-21T13:04:16.000Z</time>
        <extensions>
          <ns3:TrackPointExtension>
            <ns3:hr>150</ns3:hr>
            <ns3:cad>60</ns3:cad>
          </ns3:TrackPointExtension>
        </extensions>
      </trkpt>
      <trkpt lat="45.30793008394539356231689453125" lon="-70.81460751593112945556640625">
        <ele>906.79998779296875</ele>
        <time>2026-08-21T13:04:17.000Z</time>
        <extensions>
          <ns3:TrackPointExtension>
            <ns3:hr>151</ns3:hr>
            <ns3:cad>60</ns3:cad>
          </ns3:TrackPointExtension>
        </extensions>
      </trkpt>
      <trkpt lat="45.30791365541517734527587890625" lon="-70.81461195833981037139892578125">
        <ele>907</ele>
        <time>2026-08-21T13:04:18.000Z</time>
        <extensions>
          <ns3:TrackPointExtension>
            <ns3:hr>151</ns3:hr>
            <ns3:cad>60</ns3:cad>
          </ns3:TrackPointExtension>
        </extensions>
      </trkpt>
      <trkpt lat="45.3079001605510711669921875" lon="-70.81461564637720584869384765625">
        <ele>907.20001220703125</ele>
        <time>2026-08-21T13:04:19.000Z</time>
        <extensions>
          <ns3:TrackPointExtension>
            <ns3:hr>150</ns3:hr>
            <ns3:cad>60</ns3:cad>
          </ns3:TrackPointExtension>
        </extensions>
      </trkpt>
      <trkpt lat="45.30788867734372615814208984375" lon="-70.81461288034915924072265625">
        <ele>907.20001220703125</ele>
        <time>2026-08-21T13:04:20.000Z</time>
        <extensions>
          <ns3:TrackPointExtension>
            <ns3:hr>150</ns3:hr>
            <ns3:cad>60</ns3:cad>
          </ns3:TrackPointExtension>
        </extensions>
      </trkpt>
      <trkpt lat="45.30787878669798374176025390625" lon="-70.81460843794047832489013671875">
        <ele>907.20001220703125</ele>
        <time>2026-08-21T13:04:21.000Z</time>
        <extensions>
          <ns3:TrackPointExtension>
            <ns3:hr>150</ns3:hr>
            <ns3:cad>60</ns3:cad>
          </ns3:TrackPointExtension>
        </extensions>
      </trkpt>
      <trkpt lat="45.307863615453243255615234375" lon="-70.81461212597787380218505859375">
        <ele>907.20001220703125</ele>
        <time>2026-08-21T13:04:22.000Z</time>
        <extensions>
          <ns3:TrackPointExtension>
            <ns3:hr>149</ns3:hr>
            <ns3:cad>60</ns3:cad>
          </ns3:TrackPointExtension>
        </extensions>
      </trkpt>
      <trkpt lat="45.30785716138780117034912109375" lon="-70.8146133832633495330810546875">
        <ele>907.20001220703125</ele>
        <time>2026-08-21T13:04:23.000Z</time>
        <extensions>
          <ns3:TrackPointExtension>
            <ns3:hr>149</ns3:hr>
            <ns3:cad>51</ns3:cad>
          </ns3:TrackPointExtension>
        </extensions>
      </trkpt>
      <trkpt lat="45.30784877948462963104248046875" lon="-70.81461489200592041015625">
        <ele>907.4000244140625</ele>
        <time>2026-08-21T13:04:24.000Z</time>
        <extensions>
          <ns3:TrackPointExtension>
            <ns3:hr>149</ns3:hr>
            <ns3:cad>19</ns3:cad>
          </ns3:TrackPointExtension>
        </extensions>
      </trkpt>
      <trkpt lat="45.307845510542392730712890625" lon="-70.8146110363304615020751953125">
        <ele>907.5999755859375</ele>
        <time>2026-08-21T13:04:25.000Z</time>
        <extensions>
          <ns3:TrackPointExtension>
            <ns3:hr>149</ns3:hr>
            <ns3:cad>19</ns3:cad>
          </ns3:TrackPointExtension>
        </extensions>
      </trkpt>
      <trkpt lat="45.30784307979047298431396484375" lon="-70.8146073482930660247802734375">
        <ele>907.5999755859375</ele>
        <time>2026-08-21T13:04:26.000Z</time>
        <extensions>
          <ns3:TrackPointExtension>
            <ns3:hr>148</ns3:hr>
            <ns3:cad>19</ns3:cad>
          </ns3:TrackPointExtension>
        </extensions>
      </trkpt>
      <trkpt lat="45.3078356198966503143310546875" lon="-70.81460005603730678558349609375">
        <ele>907.79998779296875</ele>
        <time>2026-08-21T13:04:27.000Z</time>
        <extensions>
          <ns3:TrackPointExtension>
            <ns3:hr>148</ns3:hr>
            <ns3:cad>19</ns3:cad>
          </ns3:TrackPointExtension>
        </extensions>
      </trkpt>
      <trkpt lat="45.30782916583120822906494140625" lon="-70.81458848901093006134033203125">
        <ele>908</ele>
        <time>2026-08-21T13:04:28.000Z</time>
        <extensions>
          <ns3:TrackPointExtension>
            <ns3:hr>148</ns3:hr>
            <ns3:cad>19</ns3:cad>
          </ns3:TrackPointExtension>
        </extensions>
      </trkpt>
      <trkpt lat="45.30781860463321208953857421875" lon="-70.81458161585032939910888671875">
        <ele>908.20001220703125</ele>
        <time>2026-08-21T13:04:29.000Z</time>
        <extensions>
          <ns3:TrackPointExtension>
            <ns3:hr>147</ns3:hr>
            <ns3:cad>19</ns3:cad>
          </ns3:TrackPointExtension>
        </extensions>
      </trkpt>
      <trkpt lat="45.30780636705458164215087890625" lon="-70.8145775087177753448486328125">
        <ele>908.20001220703125</ele>
        <time>2026-08-21T13:04:30.000Z</time>
        <extensions>
          <ns3:TrackPointExtension>
            <ns3:hr>147</ns3:hr>
            <ns3:cad>50</ns3:cad>
          </ns3:TrackPointExtension>
        </extensions>
      </trkpt>
      <trkpt lat="45.307796895503997802734375" lon="-70.81457197666168212890625">
        <ele>908.20001220703125</ele>
        <time>2026-08-21T13:04:31.000Z</time>
        <extensions>
          <ns3:TrackPointExtension>
            <ns3:hr>147</ns3:hr>
            <ns3:cad>62</ns3:cad>
          </ns3:TrackPointExtension>
        </extensions>
      </trkpt>
      <trkpt lat="45.3077893517911434173583984375" lon="-70.81456200219690799713134765625">
        <ele>908</ele>
        <time>2026-08-21T13:04:32.000Z</time>
        <extensions>
          <ns3:TrackPointExtension>
            <ns3:hr>147</ns3:hr>
            <ns3:cad>62</ns3:cad>
          </ns3:TrackPointExtension>
        </extensions>
      </trkpt>
      <trkpt lat="45.30778524465858936309814453125" lon="-70.8145446516573429107666015625">
        <ele>907.79998779296875</ele>
        <time>2026-08-21T13:04:33.000Z</time>
        <extensions>
          <ns3:TrackPointExtension>
            <ns3:hr>146</ns3:hr>
            <ns3:cad>62</ns3:cad>
          </ns3:TrackPointExtension>
        </extensions>
      </trkpt>
      <trkpt lat="45.30778122134506702423095703125" lon="-70.81453233025968074798583984375">
        <ele>907.4000244140625</ele>
        <time>2026-08-21T13:04:34.000Z</time>
        <extensions>
          <ns3:TrackPointExtension>
            <ns3:hr>146</ns3:hr>
            <ns3:cad>62</ns3:cad>
          </ns3:TrackPointExtension>
        </extensions>
      </trkpt>
      <trkpt lat="45.307785160839557647705078125" lon="-70.8145255409181118011474609375">
        <ele>907.4000244140625</ele>
        <time>2026-08-21T13:04:35.000Z</time>
        <extensions>
          <ns3:TrackPointExtension>
            <ns3:hr>146</ns3:hr>
            <ns3:cad>62</ns3:cad>
          </ns3:TrackPointExtension>
        </extensions>
      </trkpt>
      <trkpt lat="45.3077893517911434173583984375" lon="-70.81450425088405609130859375">
        <ele>907.20001220703125</ele>
        <time>2026-08-21T13:04:36.000Z</time>
        <extensions>
          <ns3:TrackPointExtension>
            <ns3:hr>146</ns3:hr>
            <ns3:cad>62</ns3:cad>
          </ns3:TrackPointExtension>
        </extensions>
      </trkpt>
      <trkpt lat="45.30778658576309680938720703125" lon="-70.81449192948639392852783203125">
        <ele>907.20001220703125</ele>
        <time>2026-08-21T13:04:37.000Z</time>
        <extensions>
          <ns3:TrackPointExtension>
            <ns3:hr>146</ns3:hr>
            <ns3:cad>62</ns3:cad>
          </ns3:TrackPointExtension>
        </extensions>
      </trkpt>
      <trkpt lat="45.3077781200408935546875" lon="-70.8144806139171123504638671875">
        <ele>907.20001220703125</ele>
        <time>2026-08-21T13:04:38.000Z</time>
        <extensions>
          <ns3:TrackPointExtension>
            <ns3:hr>147</ns3:hr>
            <ns3:cad>53</ns3:cad>
          </ns3:TrackPointExtension>
        </extensions>
      </trkpt>
      <trkpt lat="45.307770408689975738525390625" lon="-70.81446343101561069488525390625">
        <ele>907.20001220703125</ele>
        <time>2026-08-21T13:04:39.000Z</time>
        <extensions>
          <ns3:TrackPointExtension>
            <ns3:hr>146</ns3:hr>
            <ns3:cad>53</ns3:cad>
          </ns3:TrackPointExtension>
        </extensions>
      </trkpt>
      <trkpt lat="45.30776361934840679168701171875" lon="-70.814449600875377655029296875">
        <ele>907.20001220703125</ele>
        <time>2026-08-21T13:04:40.000Z</time>
        <extensions>
          <ns3:TrackPointExtension>
            <ns3:hr>146</ns3:hr>
            <ns3:cad>53</ns3:cad>
          </ns3:TrackPointExtension>
        </extensions>
      </trkpt>
      <trkpt lat="45.30775641091167926788330078125" lon="-70.81444264389574527740478515625">
        <ele>907</ele>
        <time>2026-08-21T13:04:41.000Z</time>
        <extensions>
          <ns3:TrackPointExtension>
            <ns3:hr>146</ns3:hr>
            <ns3:cad>53</ns3:cad>
          </ns3:TrackPointExtension>
        </extensions>
      </trkpt>
      <trkpt lat="45.30774593353271484375" lon="-70.8144205994904041290283203125">
        <ele>906.5999755859375</ele>
        <time>2026-08-21T13:04:42.000Z</time>
        <extensions>
          <ns3:TrackPointExtension>
            <ns3:hr>146</ns3:hr>
            <ns3:cad>53</ns3:cad>
          </ns3:TrackPointExtension>
        </extensions>
      </trkpt>
      <trkpt lat="45.307744257152080535888671875" lon="-70.81440341658890247344970703125">
        <ele>906.4000244140625</ele>
        <time>2026-08-21T13:04:43.000Z</time>
        <extensions>
          <ns3:TrackPointExtension>
            <ns3:hr>145</ns3:hr>
            <ns3:cad>53</ns3:cad>
          </ns3:TrackPointExtension>
        </extensions>
      </trkpt>
      <trkpt lat="45.3077407367527484893798828125" lon="-70.814392268657684326171875">
        <ele>906</ele>
        <time>2026-08-21T13:04:44.000Z</time>
        <extensions>
          <ns3:TrackPointExtension>
            <ns3:hr>145</ns3:hr>
            <ns3:cad>53</ns3:cad>
          </ns3:TrackPointExtension>
        </extensions>
      </trkpt>
      <trkpt lat="45.3077380545437335968017578125" lon="-70.81438765861093997955322265625">
        <ele>905.5999755859375</ele>
        <time>2026-08-21T13:04:45.000Z</time>
        <extensions>
          <ns3:TrackPointExtension>
            <ns3:hr>144</ns3:hr>
            <ns3:cad>53</ns3:cad>
          </ns3:TrackPointExtension>
        </extensions>
      </trkpt>
      <trkpt lat="45.30773377977311611175537109375" lon="-70.81437860615551471710205078125">
        <ele>905.4000244140625</ele>
        <time>2026-08-21T13:04:46.000Z</time>
        <extensions>
          <ns3:TrackPointExtension>
            <ns3:hr>143</ns3:hr>
            <ns3:cad>53</ns3:cad>
          </ns3:TrackPointExtension>
        </extensions>
      </trkpt>
      <trkpt lat="45.307732187211513519287109375" lon="-70.81436787731945514678955078125">
        <ele>905.20001220703125</ele>
        <time>2026-08-21T13:04:47.000Z</time>
        <extensions>
          <ns3:TrackPointExtension>
            <ns3:hr>143</ns3:hr>
            <ns3:cad>53</ns3:cad>
          </ns3:TrackPointExtension>
        </extensions>
      </trkpt>
      <trkpt lat="45.3077310137450695037841796875" lon="-70.814357735216617584228515625">
        <ele>905</ele>
        <time>2026-08-21T13:04:48.000Z</time>
        <extensions>
          <ns3:TrackPointExtension>
            <ns3:hr>143</ns3:hr>
            <ns3:cad>53</ns3:cad>
          </ns3:TrackPointExtension>
        </extensions>
      </trkpt>
      <trkpt lat="45.30773042701184749603271484375" lon="-70.81434960477054119110107421875">
        <ele>904.79998779296875</ele>
        <time>2026-08-21T13:04:49.000Z</time>
        <extensions>
          <ns3:TrackPointExtension>
            <ns3:hr>142</ns3:hr>
            <ns3:cad>53</ns3:cad>
          </ns3:TrackPointExtension>
        </extensions>
      </trkpt>
      <trkpt lat="45.307732187211513519287109375" lon="-70.81433594226837158203125">
        <ele>904.5999755859375</ele>
        <time>2026-08-21T13:04:50.000Z</time>
        <extensions>
          <ns3:TrackPointExtension>
            <ns3:hr>142</ns3:hr>
            <ns3:cad>53</ns3:cad>
          </ns3:TrackPointExtension>
        </extensions>
      </trkpt>
      <trkpt lat="45.30773461796343326568603515625" lon="-70.814328230917453765869140625">
        <ele>904.5999755859375</ele>
        <time>2026-08-21T13:04:51.000Z</time>
        <extensions>
          <ns3:TrackPointExtension>
            <ns3:hr>142</ns3:hr>
            <ns3:cad>53</ns3:cad>
          </ns3:TrackPointExtension>
        </extensions>
      </trkpt>
      <trkpt lat="45.30774132348597049713134765625" lon="-70.81430979073047637939453125">
        <ele>904.5999755859375</ele>
        <time>2026-08-21T13:04:52.000Z</time>
        <extensions>
          <ns3:TrackPointExtension>
            <ns3:hr>142</ns3:hr>
            <ns3:cad>0</ns3:cad>
          </ns3:TrackPointExtension>
        </extensions>
      </trkpt>
      <trkpt lat="45.30774199403822422027587890625" lon="-70.81429931335151195526123046875">
        <ele>904.5999755859375</ele>
        <time>2026-08-21T13:04:53.000Z</time>
        <extensions>
          <ns3:TrackPointExtension>
            <ns3:hr>141</ns3:hr>
            <ns3:cad>0</ns3:cad>
          </ns3:TrackPointExtension>
        </extensions>
      </trkpt>
      <trkpt lat="45.30774182640016078948974609375" lon="-70.81428925506770610809326171875">
        <ele>904.5999755859375</ele>
        <time>2026-08-21T13:04:54.000Z</time>
        <extensions>
          <ns3:TrackPointExtension>
            <ns3:hr>141</ns3:hr>
            <ns3:cad>0</ns3:cad>
          </ns3:TrackPointExtension>
        </extensions>
      </trkpt>
      <trkpt lat="45.3077417425811290740966796875" lon="-70.814277268946170806884765625">
        <ele>904.5999755859375</ele>
        <time>2026-08-21T13:04:55.000Z</time>
        <extensions>
          <ns3:TrackPointExtension>
            <ns3:hr>140</ns3:hr>
            <ns3:cad>0</ns3:cad>
          </ns3:TrackPointExtension>
        </extensions>
      </trkpt>
      <trkpt lat="45.30773587524890899658203125" lon="-70.81426410935819149017333984375">
        <ele>904.4000244140625</ele>
        <time>2026-08-21T13:04:56.000Z</time>
        <extensions>
          <ns3:TrackPointExtension>
            <ns3:hr>139</ns3:hr>
            <ns3:cad>0</ns3:cad>
          </ns3:TrackPointExtension>
        </extensions>
      </trkpt>
      <trkpt lat="45.30773009173572063446044921875" lon="-70.8142506144940853118896484375">
        <ele>904.4000244140625</ele>
        <time>2026-08-21T13:04:57.000Z</time>
        <extensions>
          <ns3:TrackPointExtension>
            <ns3:hr>139</ns3:hr>
            <ns3:cad>0</ns3:cad>
          </ns3:TrackPointExtension>
        </extensions>
      </trkpt>
      <trkpt lat="45.30772120691835880279541015625" lon="-70.81423779018223285675048828125">
        <ele>904.20001220703125</ele>
        <time>2026-08-21T13:04:58.000Z</time>
        <extensions>
          <ns3:TrackPointExtension>
            <ns3:hr>139</ns3:hr>
            <ns3:cad>0</ns3:cad>
          </ns3:TrackPointExtension>
        </extensions>
      </trkpt>
      <trkpt lat="45.3077105619013309478759765625" lon="-70.8142301626503467559814453125">
        <ele>904</ele>
        <time>2026-08-21T13:04:59.000Z</time>
        <extensions>
          <ns3:TrackPointExtension>
            <ns3:hr>139</ns3:hr>
            <ns3:cad>51</ns3:cad>
          </ns3:TrackPointExtension>
        </extensions>
      </trkpt>
      <trkpt lat="45.307705365121364593505859375" lon="-70.814224295318126678466796875">
        <ele>904</ele>
        <time>2026-08-21T13:05:00.000Z</time>
        <extensions>
          <ns3:TrackPointExtension>
            <ns3:hr>139</ns3:hr>
            <ns3:cad>51</ns3:cad>
          </ns3:TrackPointExtension>
        </extensions>
      </trkpt>
      <trkpt lat="45.30770058743655681610107421875" lon="-70.814218260347843170166015625">
        <ele>903.79998779296875</ele>
        <time>2026-08-21T13:05:01.000Z</time>
        <extensions>
          <ns3:TrackPointExtension>
            <ns3:hr>139</ns3:hr>
            <ns3:cad>51</ns3:cad>
          </ns3:TrackPointExtension>
        </extensions>
      </trkpt>
      <trkpt lat="45.307700671255588531494140625" lon="-70.814209878444671630859375">
        <ele>903.79998779296875</ele>
        <time>2026-08-21T13:05:02.000Z</time>
        <extensions>
          <ns3:TrackPointExtension>
            <ns3:hr>139</ns3:hr>
            <ns3:cad>51</ns3:cad>
          </ns3:TrackPointExtension>
        </extensions>
      </trkpt>
      <trkpt lat="45.30770477838814258575439453125" lon="-70.81421365030109882354736328125">
        <ele>903.5999755859375</ele>
        <time>2026-08-21T13:05:03.000Z</time>
        <extensions>
          <ns3:TrackPointExtension>
            <ns3:hr>139</ns3:hr>
            <ns3:cad>51</ns3:cad>
          </ns3:TrackPointExtension>
        </extensions>
      </trkpt>
      <trkpt lat="45.30770930461585521697998046875" lon="-70.81420828588306903839111328125">
        <ele>903.20001220703125</ele>
        <time>2026-08-21T13:05:04.000Z</time>
        <extensions>
          <ns3:TrackPointExtension>
            <ns3:hr>139</ns3:hr>
            <ns3:cad>51</ns3:cad>
          </ns3:TrackPointExtension>
        </extensions>
      </trkpt>
      <trkpt lat="45.3077085502445697784423828125" lon="-70.81420292146503925323486328125">
        <ele>903</ele>
        <time>2026-08-21T13:05:05.000Z</time>
        <extensions>
          <ns3:TrackPointExtension>
            <ns3:hr>139</ns3:hr>
            <ns3:cad>51</ns3:cad>
          </ns3:TrackPointExtension>
        </extensions>
      </trkpt>
      <trkpt lat="45.30770502984523773193359375" lon="-70.81420158036053180694580078125">
        <ele>902.5999755859375</ele>
        <time>2026-08-21T13:05:06.000Z</time>
        <extensions>
          <ns3:TrackPointExtension>
            <ns3:hr>138</ns3:hr>
            <ns3:cad>51</ns3:cad>
          </ns3:TrackPointExtension>
        </extensions>
      </trkpt>
      <trkpt lat="45.30769656412303447723388671875" lon="-70.8141969703137874603271484375">
        <ele>902.20001220703125</ele>
        <time>2026-08-21T13:05:07.000Z</time>
        <extensions>
          <ns3:TrackPointExtension>
            <ns3:hr>138</ns3:hr>
            <ns3:cad>51</ns3:cad>
          </ns3:TrackPointExtension>
        </extensions>
      </trkpt>
      <trkpt lat="45.3076944686472415924072265625" lon="-70.81419051624834537506103515625">
        <ele>901.5999755859375</ele>
        <time>2026-08-21T13:05:08.000Z</time>
        <extensions>
          <ns3:TrackPointExtension>
            <ns3:hr>137</ns3:hr>
            <ns3:cad>51</ns3:cad>
          </ns3:TrackPointExtension>
        </extensions>
      </trkpt>
      <trkpt lat="45.3076911158859729766845703125" lon="-70.81418775022029876708984375">
        <ele>901.20001220703125</ele>
        <time>2026-08-21T13:05:09.000Z</time>
        <extensions>
          <ns3:TrackPointExtension>
            <ns3:hr>137</ns3:hr>
            <ns3:cad>51</ns3:cad>
          </ns3:TrackPointExtension>
        </extensions>
      </trkpt>
      <trkpt lat="45.30768625438213348388671875" lon="-70.8141795359551906585693359375">
        <ele>901</ele>
        <time>2026-08-21T13:05:10.000Z</time>
        <extensions>
          <ns3:TrackPointExtension>
            <ns3:hr>136</ns3:hr>
            <ns3:cad>51</ns3:cad>
          </ns3:TrackPointExtension>
        </extensions>
      </trkpt>
      <trkpt lat="45.3076870925724506378173828125" lon="-70.81417341716587543487548828125">
        <ele>900.5999755859375</ele>
        <time>2026-08-21T13:05:11.000Z</time>
        <extensions>
          <ns3:TrackPointExtension>
            <ns3:hr>135</ns3:hr>
            <ns3:cad>0</ns3:cad>
          </ns3:TrackPointExtension>
        </extensions>
      </trkpt>
      <trkpt lat="45.30768466182053089141845703125" lon="-70.8141631074249744415283203125">
        <ele>900.20001220703125</ele>
        <time>2026-08-21T13:05:12.000Z</time>
        <extensions>
          <ns3:TrackPointExtension>
            <ns3:hr>134</ns3:hr>
            <ns3:cad>0</ns3:cad>
          </ns3:TrackPointExtension>
        </extensions>
      </trkpt>
      <trkpt lat="45.30768214724957942962646484375" lon="-70.81415849737823009490966796875">
        <ele>900</ele>
        <time>2026-08-21T13:05:13.000Z</time>
        <extensions>
          <ns3:TrackPointExtension>
            <ns3:hr>133</ns3:hr>
            <ns3:cad>0</ns3:cad>
          </ns3:TrackPointExtension>
        </extensions>
      </trkpt>
      <trkpt lat="45.30767980031669139862060546875" lon="-70.8141520433127880096435546875">
        <ele>899.5999755859375</ele>
        <time>2026-08-21T13:05:14.000Z</time>
        <extensions>
          <ns3:TrackPointExtension>
            <ns3:hr>132</ns3:hr>
            <ns3:cad>0</ns3:cad>
          </ns3:TrackPointExtension>
        </extensions>
      </trkpt>
      <trkpt lat="45.30767577700316905975341796875" lon="-70.8141493611037731170654296875">
        <ele>899.20001220703125</ele>
        <time>2026-08-21T13:05:15.000Z</time>
        <extensions>
          <ns3:TrackPointExtension>
            <ns3:hr>132</ns3:hr>
            <ns3:cad>0</ns3:cad>
          </ns3:TrackPointExtension>
        </extensions>
      </trkpt>
      <trkpt lat="45.30766890384256839752197265625" lon="-70.8141280710697174072265625">
        <ele>898.79998779296875</ele>
        <time>2026-08-21T13:05:16.000Z</time>
        <extensions>
          <ns3:TrackPointExtension>
            <ns3:hr>132</ns3:hr>
            <ns3:cad>0</ns3:cad>
          </ns3:TrackPointExtension>
        </extensions>
      </trkpt>
      <trkpt lat="45.3076708316802978515625" lon="-70.814115665853023529052734375">
        <ele>898.4000244140625</ele>
        <time>2026-08-21T13:05:17.000Z</time>
        <extensions>
          <ns3:TrackPointExtension>
            <ns3:hr>132</ns3:hr>
            <ns3:cad>0</ns3:cad>
          </ns3:TrackPointExtension>
        </extensions>
      </trkpt>
      <trkpt lat="45.3076699934899806976318359375" lon="-70.814098902046680450439453125">
        <ele>897.79998779296875</ele>
        <time>2026-08-21T13:05:18.000Z</time>
        <extensions>
          <ns3:TrackPointExtension>
            <ns3:hr>131</ns3:hr>
            <ns3:cad>42</ns3:cad>
          </ns3:TrackPointExtension>
        </extensions>
      </trkpt>
      <trkpt lat="45.3076656349003314971923828125" lon="-70.81408448517322540283203125">
        <ele>897.20001220703125</ele>
        <time>2026-08-21T13:05:19.000Z</time>
        <extensions>
          <ns3:TrackPointExtension>
            <ns3:hr>130</ns3:hr>
            <ns3:cad>42</ns3:cad>
          </ns3:TrackPointExtension>
        </extensions>
      </trkpt>
      <trkpt lat="45.3076575882732868194580078125" lon="-70.81407115794718265533447265625">
        <ele>896.5999755859375</ele>
        <time>2026-08-21T13:05:20.000Z</time>
        <extensions>
          <ns3:TrackPointExtension>
            <ns3:hr>130</ns3:hr>
            <ns3:cad>42</ns3:cad>
          </ns3:TrackPointExtension>
        </extensions>
      </trkpt>
      <trkpt lat="45.3076542355120182037353515625" lon="-70.8140615187585353851318359375">
        <ele>896</ele>
        <time>2026-08-21T13:05:21.000Z</time>
        <extensions>
          <ns3:TrackPointExtension>
            <ns3:hr>130</ns3:hr>
            <ns3:cad>42</ns3:cad>
          </ns3:TrackPointExtension>
        </extensions>
      </trkpt>
      <trkpt lat="45.3076545707881450653076171875" lon="-70.81405288539826869964599609375">
        <ele>895.4000244140625</ele>
        <time>2026-08-21T13:05:22.000Z</time>
        <extensions>
          <ns3:TrackPointExtension>
            <ns3:hr>130</ns3:hr>
            <ns3:cad>42</ns3:cad>
          </ns3:TrackPointExtension>
        </extensions>
      </trkpt>
      <trkpt lat="45.3076565824449062347412109375" lon="-70.8140561543405055999755859375">
        <ele>895</ele>
        <time>2026-08-21T13:05:23.000Z</time>
        <extensions>
          <ns3:TrackPointExtension>
            <ns3:hr>130</ns3:hr>
            <ns3:cad>42</ns3:cad>
          </ns3:TrackPointExtension>
        </extensions>
      </trkpt>
      <trkpt lat="45.30766035430133342742919921875" lon="-70.81404919736087322235107421875">
        <ele>894.5999755859375</ele>
        <time>2026-08-21T13:05:24.000Z</time>
        <extensions>
          <ns3:TrackPointExtension>
            <ns3:hr>131</ns3:hr>
            <ns3:cad>42</ns3:cad>
          </ns3:TrackPointExtension>
        </extensions>
      </trkpt>
      <trkpt lat="45.3076619468629360198974609375" lon="-70.81403109245002269744873046875">
        <ele>894.20001220703125</ele>
        <time>2026-08-21T13:05:25.000Z</time>
        <extensions>
          <ns3:TrackPointExtension>
            <ns3:hr>130</ns3:hr>
            <ns3:cad>42</ns3:cad>
          </ns3:TrackPointExtension>
        </extensions>
      </trkpt>
      <trkpt lat="45.3076652996242046356201171875" lon="-70.8140159212052822113037109375">
        <ele>893.79998779296875</ele>
        <time>2026-08-21T13:05:26.000Z</time>
        <extensions>
          <ns3:TrackPointExtension>
            <ns3:hr>130</ns3:hr>
            <ns3:cad>41</ns3:cad>
          </ns3:TrackPointExtension>
        </extensions>
      </trkpt>
      <trkpt lat="45.30766605399549007415771484375" lon="-70.81400309689342975616455078125">
        <ele>893.5999755859375</ele>
        <time>2026-08-21T13:05:27.000Z</time>
        <extensions>
          <ns3:TrackPointExtension>
            <ns3:hr>129</ns3:hr>
            <ns3:cad>41</ns3:cad>
          </ns3:TrackPointExtension>
        </extensions>
      </trkpt>
      <trkpt lat="45.3076619468629360198974609375" lon="-70.81398901529610157012939453125">
        <ele>893.20001220703125</ele>
        <time>2026-08-21T13:05:28.000Z</time>
        <extensions>
          <ns3:TrackPointExtension>
            <ns3:hr>129</ns3:hr>
            <ns3:cad>41</ns3:cad>
          </ns3:TrackPointExtension>
        </extensions>
      </trkpt>
      <trkpt lat="45.30765540897846221923828125" lon="-70.81398365087807178497314453125">
        <ele>892.79998779296875</ele>
        <time>2026-08-21T13:05:29.000Z</time>
        <extensions>
          <ns3:TrackPointExtension>
            <ns3:hr>129</ns3:hr>
            <ns3:cad>41</ns3:cad>
          </ns3:TrackPointExtension>
        </extensions>
      </trkpt>
      <trkpt lat="45.3076525591313838958740234375" lon="-70.813978202641010284423828125">
        <ele>892.4000244140625</ele>
        <time>2026-08-21T13:05:30.000Z</time>
        <extensions>
          <ns3:TrackPointExtension>
            <ns3:hr>130</ns3:hr>
            <ns3:cad>71</ns3:cad>
          </ns3:TrackPointExtension>
        </extensions>
      </trkpt>
      <trkpt lat="45.30764828436076641082763671875" lon="-70.813969485461711883544921875">
        <ele>892</ele>
        <time>2026-08-21T13:05:31.000Z</time>
        <extensions>
          <ns3:TrackPointExtension>
            <ns3:hr>129</ns3:hr>
            <ns3:cad>71</ns3:cad>
          </ns3:TrackPointExtension>
        </extensions>
      </trkpt>
      <trkpt lat="45.30764325521886348724365234375" lon="-70.81395917572081089019775390625">
        <ele>891.5999755859375</ele>
        <time>2026-08-21T13:05:32.000Z</time>
        <extensions>
          <ns3:TrackPointExtension>
            <ns3:hr>129</ns3:hr>
            <ns3:cad>71</ns3:cad>
          </ns3:TrackPointExtension>
        </extensions>
      </trkpt>
      <trkpt lat="45.30764711089432239532470703125" lon="-70.81395263783633708953857421875">
        <ele>891.20001220703125</ele>
        <time>2026-08-21T13:05:33.000Z</time>
        <extensions>
          <ns3:TrackPointExtension>
            <ns3:hr>128</ns3:hr>
            <ns3:cad>71</ns3:cad>
          </ns3:TrackPointExtension>
        </extensions>
      </trkpt>
      <trkpt lat="45.30764660798013210296630859375" lon="-70.8139421604573726654052734375">
        <ele>890.79998779296875</ele>
        <time>2026-08-21T13:05:34.000Z</time>
        <extensions>
          <ns3:TrackPointExtension>
            <ns3:hr>127</ns3:hr>
            <ns3:cad>71</ns3:cad>
          </ns3:TrackPointExtension>
        </extensions>
      </trkpt>
      <trkpt lat="45.307639651000499725341796875" lon="-70.81393470056354999542236328125">
        <ele>890.4000244140625</ele>
        <time>2026-08-21T13:05:35.000Z</time>
        <extensions>
          <ns3:TrackPointExtension>
            <ns3:hr>125</ns3:hr>
            <ns3:cad>71</ns3:cad>
          </ns3:TrackPointExtension>
        </extensions>
      </trkpt>
      <trkpt lat="45.30763118527829647064208984375" lon="-70.8139207027852535247802734375">
        <ele>890</ele>
        <time>2026-08-21T13:05:36.000Z</time>
        <extensions>
          <ns3:TrackPointExtension>
            <ns3:hr>125</ns3:hr>
            <ns3:cad>71</ns3:cad>
          </ns3:TrackPointExtension>
        </extensions>
      </trkpt>
      <trkpt lat="45.307629592716693878173828125" lon="-70.81391391344368457794189453125">
        <ele>889.5999755859375</ele>
        <time>2026-08-21T13:05:37.000Z</time>
        <extensions>
          <ns3:TrackPointExtension>
            <ns3:hr>125</ns3:hr>
            <ns3:cad>71</ns3:cad>
          </ns3:TrackPointExtension>
        </extensions>
      </trkpt>
      <trkpt lat="45.30762364156544208526611328125" lon="-70.81389765255153179168701171875">
        <ele>889</ele>
        <time>2026-08-21T13:05:38.000Z</time>
        <extensions>
          <ns3:TrackPointExtension>
            <ns3:hr>124</ns3:hr>
            <ns3:cad>71</ns3:cad>
          </ns3:TrackPointExtension>
        </extensions>
      </trkpt>
      <trkpt lat="45.30762255191802978515625" lon="-70.81387770362198352813720703125">
        <ele>888.4000244140625</ele>
        <time>2026-08-21T13:05:39.000Z</time>
        <extensions>
          <ns3:TrackPointExtension>
            <ns3:hr>125</ns3:hr>
            <ns3:cad>71</ns3:cad>
          </ns3:TrackPointExtension>
        </extensions>
      </trkpt>
      <trkpt lat="45.30761777423322200775146484375" lon="-70.81386328674852848052978515625">
        <ele>887.5999755859375</ele>
        <time>2026-08-21T13:05:40.000Z</time>
        <extensions>
          <ns3:TrackPointExtension>
            <ns3:hr>125</ns3:hr>
            <ns3:cad>71</ns3:cad>
          </ns3:TrackPointExtension>
        </extensions>
      </trkpt>
      <trkpt lat="45.30760754831135272979736328125" lon="-70.81385071389377117156982421875">
        <ele>887</ele>
        <time>2026-08-21T13:05:41.000Z</time>
        <extensions>
          <ns3:TrackPointExtension>
            <ns3:hr>125</ns3:hr>
            <ns3:cad>71</ns3:cad>
          </ns3:TrackPointExtension>
        </extensions>
      </trkpt>
      <trkpt lat="45.3075989149510860443115234375" lon="-70.8138415776193141937255859375">
        <ele>886.5999755859375</ele>
        <time>2026-08-21T13:05:42.000Z</time>
        <extensions>
          <ns3:TrackPointExtension>
            <ns3:hr>125</ns3:hr>
            <ns3:cad>0</ns3:cad>
          </ns3:TrackPointExtension>
        </extensions>
      </trkpt>
      <trkpt lat="45.307595394551753997802734375" lon="-70.81383311189711093902587890625">
        <ele>886</ele>
        <time>2026-08-21T13:05:43.000Z</time>
        <extensions>
          <ns3:TrackPointExtension>
            <ns3:hr>126</ns3:hr>
            <ns3:cad>0</ns3:cad>
          </ns3:TrackPointExtension>
        </extensions>
      </trkpt>
      <trkpt lat="45.30759095214307308197021484375" lon="-70.813823975622653961181640625">
        <ele>885.79998779296875</ele>
        <time>2026-08-21T13:05:44.000Z</time>
        <extensions>
          <ns3:TrackPointExtension>
            <ns3:hr>125</ns3:hr>
            <ns3:cad>0</ns3:cad>
          </ns3:TrackPointExtension>
        </extensions>
      </trkpt>
      <trkpt lat="45.30758072622120380401611328125" lon="-70.813800506293773651123046875">
        <ele>885.5999755859375</ele>
        <time>2026-08-21T13:05:45.000Z</time>
        <extensions>
          <ns3:TrackPointExtension>
            <ns3:hr>125</ns3:hr>
            <ns3:cad>0</ns3:cad>
          </ns3:TrackPointExtension>
        </extensions>
      </trkpt>
      <trkpt lat="45.3075818158686161041259765625" lon="-70.8137818984687328338623046875">
        <ele>885.4000244140625</ele>
        <time>2026-08-21T13:05:46.000Z</time>
        <extensions>
          <ns3:TrackPointExtension>
            <ns3:hr>126</ns3:hr>
            <ns3:cad>0</ns3:cad>
          </ns3:TrackPointExtension>
        </extensions>
      </trkpt>
      <trkpt lat="45.307579301297664642333984375" lon="-70.81375784240663051605224609375">
        <ele>885.20001220703125</ele>
        <time>2026-08-21T13:05:47.000Z</time>
        <extensions>
          <ns3:TrackPointExtension>
            <ns3:hr>126</ns3:hr>
            <ns3:cad>0</ns3:cad>
          </ns3:TrackPointExtension>
        </extensions>
      </trkpt>
      <trkpt lat="45.3075720928609371185302734375" lon="-70.81373454071581363677978515625">
        <ele>885.20001220703125</ele>
        <time>2026-08-21T13:05:48.000Z</time>
        <extensions>
          <ns3:TrackPointExtension>
            <ns3:hr>126</ns3:hr>
            <ns3:cad>0</ns3:cad>
          </ns3:TrackPointExtension>
        </extensions>
      </trkpt>
      <trkpt lat="45.30756463296711444854736328125" lon="-70.81370352767407894134521484375">
        <ele>885.20001220703125</ele>
        <time>2026-08-21T13:05:49.000Z</time>
        <extensions>
          <ns3:TrackPointExtension>
            <ns3:hr>126</ns3:hr>
            <ns3:cad>0</ns3:cad>
          </ns3:TrackPointExtension>
        </extensions>
      </trkpt>
      <trkpt lat="45.30755809508264064788818359375" lon="-70.8136896975338459014892578125">
        <ele>885.20001220703125</ele>
        <time>2026-08-21T13:05:50.000Z</time>
        <extensions>
          <ns3:TrackPointExtension>
            <ns3:hr>126</ns3:hr>
            <ns3:cad>0</ns3:cad>
          </ns3:TrackPointExtension>
        </extensions>
      </trkpt>
      <trkpt lat="45.3075479529798030853271484375" lon="-70.81367284990847110748291015625">
        <ele>885</ele>
        <time>2026-08-21T13:05:51.000Z</time>
        <extensions>
          <ns3:TrackPointExtension>
            <ns3:hr>126</ns3:hr>
            <ns3:cad>0</ns3:cad>
          </ns3:TrackPointExtension>
        </extensions>
      </trkpt>
      <trkpt lat="45.30753915198147296905517578125" lon="-70.81366203725337982177734375">
        <ele>885</ele>
        <time>2026-08-21T13:05:52.000Z</time>
        <extensions>
          <ns3:TrackPointExtension>
            <ns3:hr>126</ns3:hr>
            <ns3:cad>0</ns3:cad>
          </ns3:TrackPointExtension>
        </extensions>
      </trkpt>
      <trkpt lat="45.30753278173506259918212890625" lon="-70.813652314245700836181640625">
        <ele>885</ele>
        <time>2026-08-21T13:05:53.000Z</time>
        <extensions>
          <ns3:TrackPointExtension>
            <ns3:hr>127</ns3:hr>
            <ns3:cad>0</ns3:cad>
          </ns3:TrackPointExtension>
        </extensions>
      </trkpt>
      <trkpt lat="45.30752507038414478302001953125" lon="-70.8136417530477046966552734375">
        <ele>885.20001220703125</ele>
        <time>2026-08-21T13:05:54.000Z</time>
        <extensions>
          <ns3:TrackPointExtension>
            <ns3:hr>127</ns3:hr>
            <ns3:cad>0</ns3:cad>
          </ns3:TrackPointExtension>
        </extensions>
      </trkpt>
      <trkpt lat="45.30752289108932018280029296875" lon="-70.813632197678089141845703125">
        <ele>885.4000244140625</ele>
        <time>2026-08-21T13:05:55.000Z</time>
        <extensions>
          <ns3:TrackPointExtension>
            <ns3:hr>127</ns3:hr>
            <ns3:cad>0</ns3:cad>
          </ns3:TrackPointExtension>
        </extensions>
      </trkpt>
      <trkpt lat="45.30751685611903667449951171875" lon="-70.81362876109778881072998046875">
        <ele>885.5999755859375</ele>
        <time>2026-08-21T13:05:56.000Z</time>
        <extensions>
          <ns3:TrackPointExtension>
            <ns3:hr>128</ns3:hr>
            <ns3:cad>0</ns3:cad>
          </ns3:TrackPointExtension>
        </extensions>
      </trkpt>
      <trkpt lat="45.30751283280551433563232421875" lon="-70.813623480498790740966796875">
        <ele>885.79998779296875</ele>
        <time>2026-08-21T13:05:57.000Z</time>
        <extensions>
          <ns3:TrackPointExtension>
            <ns3:hr>128</ns3:hr>
            <ns3:cad>53</ns3:cad>
          </ns3:TrackPointExtension>
        </extensions>
      </trkpt>
      <trkpt lat="45.30750998295843601226806640625" lon="-70.81362071447074413299560546875">
        <ele>886</ele>
        <time>2026-08-21T13:05:58.000Z</time>
        <extensions>
          <ns3:TrackPointExtension>
            <ns3:hr>129</ns3:hr>
            <ns3:cad>53</ns3:cad>
          </ns3:TrackPointExtension>
        </extensions>
      </trkpt>
      <trkpt lat="45.30751459300518035888671875" lon="-70.81361819989979267120361328125">
        <ele>886.20001220703125</ele>
        <time>2026-08-21T13:05:59.000Z</time>
        <extensions>
          <ns3:TrackPointExtension>
            <ns3:hr>129</ns3:hr>
            <ns3:cad>47</ns3:cad>
          </ns3:TrackPointExtension>
        </extensions>
      </trkpt>
      <trkpt lat="45.3075140900909900665283203125" lon="-70.81360629759728908538818359375">
        <ele>886.4000244140625</ele>
        <time>2026-08-21T13:06:00.000Z</time>
        <extensions>
          <ns3:TrackPointExtension>
            <ns3:hr>129</ns3:hr>
            <ns3:cad>47</ns3:cad>
          </ns3:TrackPointExtension>
        </extensions>
      </trkpt>
      <trkpt lat="45.30751526355743408203125" lon="-70.8136021904647350311279296875">
        <ele>886.79998779296875</ele>
        <time>2026-08-21T13:06:01.000Z</time>
        <extensions>
          <ns3:TrackPointExtension>
            <ns3:hr>129</ns3:hr>
            <ns3:cad>47</ns3:cad>
          </ns3:TrackPointExtension>
        </extensions>
      </trkpt>
      <trkpt lat="45.3075070492923259735107421875" lon="-70.81359724514186382293701171875">
        <ele>887</ele>
        <time>2026-08-21T13:06:02.000Z</time>
        <extensions>
          <ns3:TrackPointExtension>
            <ns3:hr>129</ns3:hr>
            <ns3:cad>47</ns3:cad>
          </ns3:TrackPointExtension>
        </extensions>
      </trkpt>
      <trkpt lat="45.30750411562621593475341796875" lon="-70.813585259020328521728515625">
        <ele>887.4000244140625</ele>
        <time>2026-08-21T13:06:03.000Z</time>
        <extensions>
          <ns3:TrackPointExtension>
            <ns3:hr>129</ns3:hr>
            <ns3:cad>47</ns3:cad>
          </ns3:TrackPointExtension>
        </extensions>
      </trkpt>
      <trkpt lat="45.30750294215977191925048828125" lon="-70.8135773800313472747802734375">
        <ele>887.79998779296875</ele>
        <time>2026-08-21T13:06:04.000Z</time>
        <extensions>
          <ns3:TrackPointExtension>
            <ns3:hr>129</ns3:hr>
            <ns3:cad>0</ns3:cad>
          </ns3:TrackPointExtension>
        </extensions>
      </trkpt>
      <trkpt lat="45.3075060434639453887939453125" lon="-70.81356606446206569671630859375">
        <ele>888</ele>
        <time>2026-08-21T13:06:05.000Z</time>
        <extensions>
          <ns3:TrackPointExtension>
            <ns3:hr>128</ns3:hr>
            <ns3:cad>0</ns3:cad>
          </ns3:TrackPointExtension>
        </extensions>
      </trkpt>
      <trkpt lat="45.3075077198445796966552734375" lon="-70.8135460317134857177734375">
        <ele>888.4000244140625</ele>
        <time>2026-08-21T13:06:06.000Z</time>
        <extensions>
          <ns3:TrackPointExtension>
            <ns3:hr>128</ns3:hr>
            <ns3:cad>0</ns3:cad>
          </ns3:TrackPointExtension>
        </extensions>
      </trkpt>
      <trkpt lat="45.30750730074942111968994140625" lon="-70.81353999674320220947265625">
        <ele>888.79998779296875</ele>
        <time>2026-08-21T13:06:07.000Z</time>
        <extensions>
          <ns3:TrackPointExtension>
            <ns3:hr>128</ns3:hr>
            <ns3:cad>0</ns3:cad>
          </ns3:TrackPointExtension>
        </extensions>
      </trkpt>
      <trkpt lat="45.30750042758882045745849609375" lon="-70.81352834589779376983642578125">
        <ele>889</ele>
        <time>2026-08-21T13:06:08.000Z</time>
        <extensions>
          <ns3:TrackPointExtension>
            <ns3:hr>128</ns3:hr>
            <ns3:cad>0</ns3:cad>
          </ns3:TrackPointExtension>
        </extensions>
      </trkpt>
      <trkpt lat="45.3075000084936618804931640625" lon="-70.81352122128009796142578125">
        <ele>889.4000244140625</ele>
        <time>2026-08-21T13:06:09.000Z</time>
        <extensions>
          <ns3:TrackPointExtension>
            <ns3:hr>128</ns3:hr>
            <ns3:cad>0</ns3:cad>
          </ns3:TrackPointExtension>
        </extensions>
      </trkpt>
      <trkpt lat="45.3074953146278858184814453125" lon="-70.81350789405405521392822265625">
        <ele>889.5999755859375</ele>
        <time>2026-08-21T13:06:10.000Z</time>
        <extensions>
          <ns3:TrackPointExtension>
            <ns3:hr>129</ns3:hr>
            <ns3:cad>0</ns3:cad>
          </ns3:TrackPointExtension>
        </extensions>
      </trkpt>
      <trkpt lat="45.307485759258270263671875" lon="-70.81349079497158527374267578125">
        <ele>889.79998779296875</ele>
        <time>2026-08-21T13:06:11.000Z</time>
        <extensions>
          <ns3:TrackPointExtension>
            <ns3:hr>132</ns3:hr>
            <ns3:cad>0</ns3:cad>
          </ns3:TrackPointExtension>
        </extensions>
      </trkpt>
      <trkpt lat="45.3074778802692890167236328125" lon="-70.81348367035388946533203125">
        <ele>889.79998779296875</ele>
        <time>2026-08-21T13:06:12.000Z</time>
        <extensions>
          <ns3:TrackPointExtension>
            <ns3:hr>133</ns3:hr>
            <ns3:cad>0</ns3:cad>
          </ns3:TrackPointExtension>
        </extensions>
      </trkpt>
      <trkpt lat="45.307468660175800323486328125" lon="-70.81347025930881500244140625">
        <ele>890</ele>
        <time>2026-08-21T13:06:13.000Z</time>
        <extensions>
          <ns3:TrackPointExtension>
            <ns3:hr>134</ns3:hr>
            <ns3:cad>40</ns3:cad>
          </ns3:TrackPointExtension>
        </extensions>
      </trkpt>
      <trkpt lat="45.3074617870151996612548828125" lon="-70.81346346996724605560302734375">
        <ele>890.20001220703125</ele>
        <time>2026-08-21T13:06:14.000Z</time>
        <extensions>
          <ns3:TrackPointExtension>
            <ns3:hr>135</ns3:hr>
            <ns3:cad>40</ns3:cad>
          </ns3:TrackPointExtension>
        </extensions>
      </trkpt>
      <trkpt lat="45.30745826661586761474609375" lon="-70.8134563453495502471923828125">
        <ele>890.20001220703125</ele>
        <time>2026-08-21T13:06:15.000Z</time>
        <extensions>
          <ns3:TrackPointExtension>
            <ns3:hr>136</ns3:hr>
            <ns3:cad>40</ns3:cad>
          </ns3:TrackPointExtension>
        </extensions>
      </trkpt>
      <trkpt lat="45.3074624575674533843994140625" lon="-70.81344570033252239227294921875">
        <ele>890.4000244140625</ele>
        <time>2026-08-21T13:06:16.000Z</time>
        <extensions>
          <ns3:TrackPointExtension>
            <ns3:hr>138</ns3:hr>
            <ns3:cad>40</ns3:cad>
          </ns3:TrackPointExtension>
        </extensions>
      </trkpt>
      <trkpt lat="45.3074567578732967376708984375" lon="-70.81343731842935085296630859375">
        <ele>890.5999755859375</ele>
        <time>2026-08-21T13:06:17.000Z</time>
        <extensions>
          <ns3:TrackPointExtension>
            <ns3:hr>139</ns3:hr>
            <ns3:cad>40</ns3:cad>
          </ns3:TrackPointExtension>
        </extensions>
      </trkpt>
      <trkpt lat="45.30745198018848896026611328125" lon="-70.81343212164938449859619140625">
        <ele>890.79998779296875</ele>
        <time>2026-08-21T13:06:18.000Z</time>
        <extensions>
          <ns3:TrackPointExtension>
            <ns3:hr>140</ns3:hr>
            <ns3:cad>0</ns3:cad>
          </ns3:TrackPointExtension>
        </extensions>
      </trkpt>
      <trkpt lat="45.3074549138545989990234375" lon="-70.8134439401328563690185546875">
        <ele>891</ele>
        <time>2026-08-21T13:06:19.000Z</time>
        <extensions>
          <ns3:TrackPointExtension>
            <ns3:hr>140</ns3:hr>
            <ns3:cad>0</ns3:cad>
          </ns3:TrackPointExtension>
        </extensions>
      </trkpt>
      <trkpt lat="45.30745298601686954498291015625" lon="-70.81343597732484340667724609375">
        <ele>891.20001220703125</ele>
        <time>2026-08-21T13:06:20.000Z</time>
        <extensions>
          <ns3:TrackPointExtension>
            <ns3:hr>141</ns3:hr>
            <ns3:cad>0</ns3:cad>
          </ns3:TrackPointExtension>
        </extensions>
      </trkpt>
      <trkpt lat="45.3074517287313938140869140625" lon="-70.813430361449718475341796875">
        <ele>891.5999755859375</ele>
        <time>2026-08-21T13:06:21.000Z</time>
        <extensions>
          <ns3:TrackPointExtension>
            <ns3:hr>141</ns3:hr>
            <ns3:cad>0</ns3:cad>
          </ns3:TrackPointExtension>
        </extensions>
      </trkpt>
      <trkpt lat="45.30744862742722034454345703125" lon="-70.81343212164938449859619140625">
        <ele>891.79998779296875</ele>
        <time>2026-08-21T13:06:22.000Z</time>
        <extensions>
          <ns3:TrackPointExtension>
            <ns3:hr>141</ns3:hr>
            <ns3:cad>0</ns3:cad>
          </ns3:TrackPointExtension>
        </extensions>
      </trkpt>
      <trkpt lat="45.3074443526566028594970703125" lon="-70.813427679240703582763671875">
        <ele>892</ele>
        <time>2026-08-21T13:06:23.000Z</time>
        <extensions>
          <ns3:TrackPointExtension>
            <ns3:hr>141</ns3:hr>
            <ns3:cad>0</ns3:cad>
          </ns3:TrackPointExtension>
        </extensions>
      </trkpt>
      <trkpt lat="45.3074413351714611053466796875" lon="-70.81341653130948543548583984375">
        <ele>892.20001220703125</ele>
        <time>2026-08-21T13:06:24.000Z</time>
        <extensions>
          <ns3:TrackPointExtension>
            <ns3:hr>141</ns3:hr>
            <ns3:cad>0</ns3:cad>
          </ns3:TrackPointExtension>
        </extensions>
      </trkpt>
      <trkpt lat="45.307438485324382781982421875" lon="-70.8134117536246776580810546875">
        <ele>892.4000244140625</ele>
        <time>2026-08-21T13:06:25.000Z</time>
        <extensions>
          <ns3:TrackPointExtension>
            <ns3:hr>139</ns3:hr>
            <ns3:cad>0</ns3:cad>
          </ns3:TrackPointExtension>
        </extensions>
      </trkpt>
      <trkpt lat="45.307440496981143951416015625" lon="-70.813404880464076995849609375">
        <ele>892.5999755859375</ele>
        <time>2026-08-21T13:06:26.000Z</time>
        <extensions>
          <ns3:TrackPointExtension>
            <ns3:hr>132</ns3:hr>
            <ns3:cad>0</ns3:cad>
          </ns3:TrackPointExtension>
        </extensions>
      </trkpt>
      <trkpt lat="45.3074441850185394287109375" lon="-70.8134117536246776580810546875">
        <ele>892.79998779296875</ele>
        <time>2026-08-21T13:06:27.000Z</time>
        <extensions>
          <ns3:TrackPointExtension>
            <ns3:hr>131</ns3:hr>
            <ns3:cad>0</ns3:cad>
          </ns3:TrackPointExtension>
        </extensions>
      </trkpt>
      <trkpt lat="45.30744661577045917510986328125" lon="-70.81339809112250804901123046875">
        <ele>893</ele>
        <time>2026-08-21T13:06:28.000Z</time>
        <extensions>
          <ns3:TrackPointExtension>
            <ns3:hr>131</ns3:hr>
            <ns3:cad>0</ns3:cad>
          </ns3:TrackPointExtension>
        </extensions>
      </trkpt>
      <trkpt lat="45.30744326300919055938720703125" lon="-70.81339021213352680206298828125">
        <ele>893.20001220703125</ele>
        <time>2026-08-21T13:06:29.000Z</time>
        <extensions>
          <ns3:TrackPointExtension>
            <ns3:hr>131</ns3:hr>
            <ns3:cad>0</ns3:cad>
          </ns3:TrackPointExtension>
        </extensions>
      </trkpt>
      <trkpt lat="45.3074423409998416900634765625" lon="-70.8133919723331928253173828125">
        <ele>893.4000244140625</ele>
        <time>2026-08-21T13:06:30.000Z</time>
        <extensions>
          <ns3:TrackPointExtension>
            <ns3:hr>133</ns3:hr>
            <ns3:cad>0</ns3:cad>
          </ns3:TrackPointExtension>
        </extensions>
      </trkpt>
      <trkpt lat="45.3074309416115283966064453125" lon="-70.8133799023926258087158203125">
        <ele>893.79998779296875</ele>
        <time>2026-08-21T13:06:31.000Z</time>
        <extensions>
          <ns3:TrackPointExtension>
            <ns3:hr>137</ns3:hr>
            <ns3:cad>0</ns3:cad>
          </ns3:TrackPointExtension>
        </extensions>
      </trkpt>
      <trkpt lat="45.30742314644157886505126953125" lon="-70.81336825154721736907958984375">
        <ele>894</ele>
        <time>2026-08-21T13:06:32.000Z</time>
        <extensions>
          <ns3:TrackPointExtension>
            <ns3:hr>142</ns3:hr>
            <ns3:cad>0</ns3:cad>
          </ns3:TrackPointExtension>
        </extensions>
      </trkpt>
      <trkpt lat="45.30742364935576915740966796875" lon="-70.81336506642401218414306640625">
        <ele>894.20001220703125</ele>
        <time>2026-08-21T13:06:33.000Z</time>
        <extensions>
          <ns3:TrackPointExtension>
            <ns3:hr>145</ns3:hr>
            <ns3:cad>0</ns3:cad>
          </ns3:TrackPointExtension>
        </extensions>
      </trkpt>
      <trkpt lat="45.30742398463189601898193359375" lon="-70.81336431205272674560546875">
        <ele>894.5999755859375</ele>
        <time>2026-08-21T13:06:34.000Z</time>
        <extensions>
          <ns3:TrackPointExtension>
            <ns3:hr>146</ns3:hr>
            <ns3:cad>0</ns3:cad>
          </ns3:TrackPointExtension>
        </extensions>
      </trkpt>
      <trkpt lat="45.30741727910935878753662109375" lon="-70.813354589045047760009765625">
        <ele>894.79998779296875</ele>
        <time>2026-08-21T13:06:35.000Z</time>
        <extensions>
          <ns3:TrackPointExtension>
            <ns3:hr>147</ns3:hr>
            <ns3:cad>0</ns3:cad>
          </ns3:TrackPointExtension>
        </extensions>
      </trkpt>
      <trkpt lat="45.3074138425290584564208984375" lon="-70.81333572976291179656982421875">
        <ele>895.20001220703125</ele>
        <time>2026-08-21T13:06:36.000Z</time>
        <extensions>
          <ns3:TrackPointExtension>
            <ns3:hr>147</ns3:hr>
            <ns3:cad>0</ns3:cad>
          </ns3:TrackPointExtension>
        </extensions>
      </trkpt>
      <trkpt lat="45.3074171952903270721435546875" lon="-70.81332751549780368804931640625">
        <ele>895.4000244140625</ele>
        <time>2026-08-21T13:06:37.000Z</time>
        <extensions>
          <ns3:TrackPointExtension>
            <ns3:hr>147</ns3:hr>
            <ns3:cad>0</ns3:cad>
          </ns3:TrackPointExtension>
        </extensions>
      </trkpt>
      <trkpt lat="45.307415015995502471923828125" lon="-70.81331427209079265594482421875">
        <ele>895.5999755859375</ele>
        <time>2026-08-21T13:06:38.000Z</time>
        <extensions>
          <ns3:TrackPointExtension>
            <ns3:hr>147</ns3:hr>
            <ns3:cad>0</ns3:cad>
          </ns3:TrackPointExtension>
        </extensions>
      </trkpt>
      <trkpt lat="45.3074145130813121795654296875" lon="-70.81330354325473308563232421875">
        <ele>896</ele>
        <time>2026-08-21T13:06:39.000Z</time>
        <extensions>
          <ns3:TrackPointExtension>
            <ns3:hr>147</ns3:hr>
            <ns3:cad>0</ns3:cad>
          </ns3:TrackPointExtension>
        </extensions>
      </trkpt>
      <trkpt lat="45.30740772373974323272705078125" lon="-70.813287198543548583984375">
        <ele>896.20001220703125</ele>
        <time>2026-08-21T13:06:40.000Z</time>
        <extensions>
          <ns3:TrackPointExtension>
            <ns3:hr>147</ns3:hr>
            <ns3:cad>0</ns3:cad>
          </ns3:TrackPointExtension>
        </extensions>
      </trkpt>
      <trkpt lat="45.30740235932171344757080078125" lon="-70.81327973864972591400146484375">
        <ele>896.4000244140625</ele>
        <time>2026-08-21T13:06:41.000Z</time>
        <extensions>
          <ns3:TrackPointExtension>
            <ns3:hr>147</ns3:hr>
            <ns3:cad>0</ns3:cad>
          </ns3:TrackPointExtension>
        </extensions>
      </trkpt>
      <trkpt lat="45.307396240532398223876953125" lon="-70.81326984800398349761962890625">
        <ele>896.5999755859375</ele>
        <time>2026-08-21T13:06:42.000Z</time>
        <extensions>
          <ns3:TrackPointExtension>
            <ns3:hr>148</ns3:hr>
            <ns3:cad>0</ns3:cad>
          </ns3:TrackPointExtension>
        </extensions>
      </trkpt>
      <trkpt lat="45.3073932230472564697265625" lon="-70.81327605061233043670654296875">
        <ele>896.79998779296875</ele>
        <time>2026-08-21T13:06:43.000Z</time>
        <extensions>
          <ns3:TrackPointExtension>
            <ns3:hr>148</ns3:hr>
            <ns3:cad>0</ns3:cad>
          </ns3:TrackPointExtension>
        </extensions>
      </trkpt>
      <trkpt lat="45.30738995410501956939697265625" lon="-70.813260041177272796630859375">
        <ele>897</ele>
        <time>2026-08-21T13:06:44.000Z</time>
        <extensions>
          <ns3:TrackPointExtension>
            <ns3:hr>149</ns3:hr>
            <ns3:cad>0</ns3:cad>
          </ns3:TrackPointExtension>
        </extensions>
      </trkpt>
      <trkpt lat="45.3073870204389095306396484375" lon="-70.81323866732418537139892578125">
        <ele>897.20001220703125</ele>
        <time>2026-08-21T13:06:45.000Z</time>
        <extensions>
          <ns3:TrackPointExtension>
            <ns3:hr>150</ns3:hr>
            <ns3:cad>0</ns3:cad>
          </ns3:TrackPointExtension>
        </extensions>
      </trkpt>
      <trkpt lat="45.30738794244825839996337890625" lon="-70.81323816440999507904052734375">
        <ele>897.5999755859375</ele>
        <time>2026-08-21T13:06:46.000Z</time>
        <extensions>
          <ns3:TrackPointExtension>
            <ns3:hr>150</ns3:hr>
            <ns3:cad>0</ns3:cad>
          </ns3:TrackPointExtension>
        </extensions>
      </trkpt>
      <trkpt lat="45.3073883615434169769287109375" lon="-70.81322458572685718536376953125">
        <ele>897.79998779296875</ele>
        <time>2026-08-21T13:06:47.000Z</time>
        <extensions>
          <ns3:TrackPointExtension>
            <ns3:hr>150</ns3:hr>
            <ns3:cad>0</ns3:cad>
          </ns3:TrackPointExtension>
        </extensions>
      </trkpt>
      <trkpt lat="45.30738777481019496917724609375" lon="-70.8132082410156726837158203125">
        <ele>898</ele>
        <time>2026-08-21T13:06:48.000Z</time>
        <extensions>
          <ns3:TrackPointExtension>
            <ns3:hr>151</ns3:hr>
            <ns3:cad>0</ns3:cad>
          </ns3:TrackPointExtension>
        </extensions>
      </trkpt>
      <trkpt lat="45.30739246867597103118896484375" lon="-70.813209079205989837646484375">
        <ele>898.20001220703125</ele>
        <time>2026-08-21T13:06:49.000Z</time>
        <extensions>
          <ns3:TrackPointExtension>
            <ns3:hr>151</ns3:hr>
            <ns3:cad>0</ns3:cad>
          </ns3:TrackPointExtension>
        </extensions>
      </trkpt>
      <trkpt lat="45.307388193905353546142578125" lon="-70.81321150995790958404541015625">
        <ele>898.4000244140625</ele>
        <time>2026-08-21T13:06:50.000Z</time>
        <extensions>
          <ns3:TrackPointExtension>
            <ns3:hr>151</ns3:hr>
            <ns3:cad>0</ns3:cad>
          </ns3:TrackPointExtension>
        </extensions>
      </trkpt>
      <trkpt lat="45.30738576315343379974365234375" lon="-70.8131965063512325286865234375">
        <ele>898.5999755859375</ele>
        <time>2026-08-21T13:06:51.000Z</time>
        <extensions>
          <ns3:TrackPointExtension>
            <ns3:hr>152</ns3:hr>
            <ns3:cad>0</ns3:cad>
          </ns3:TrackPointExtension>
        </extensions>
      </trkpt>
      <trkpt lat="45.3073829971253871917724609375" lon="-70.81318904645740985870361328125">
        <ele>898.79998779296875</ele>
        <time>2026-08-21T13:06:52.000Z</time>
        <extensions>
          <ns3:TrackPointExtension>
            <ns3:hr>152</ns3:hr>
            <ns3:cad>0</ns3:cad>
          </ns3:TrackPointExtension>
        </extensions>
      </trkpt>
      <trkpt lat="45.30737872235476970672607421875" lon="-70.81318317912518978118896484375">
        <ele>899</ele>
        <time>2026-08-21T13:06:53.000Z</time>
        <extensions>
          <ns3:TrackPointExtension>
            <ns3:hr>152</ns3:hr>
            <ns3:cad>0</ns3:cad>
          </ns3:TrackPointExtension>
        </extensions>
      </trkpt>
      <trkpt lat="45.30737386085093021392822265625" lon="-70.81317379139363765716552734375">
        <ele>899.20001220703125</ele>
        <time>2026-08-21T13:06:54.000Z</time>
        <extensions>
          <ns3:TrackPointExtension>
            <ns3:hr>152</ns3:hr>
            <ns3:cad>0</ns3:cad>
          </ns3:TrackPointExtension>
        </extensions>
      </trkpt>
      <trkpt lat="45.307369418442249298095703125" lon="-70.81316859461367130279541015625">
        <ele>899.4000244140625</ele>
        <time>2026-08-21T13:06:55.000Z</time>
        <extensions>
          <ns3:TrackPointExtension>
            <ns3:hr>152</ns3:hr>
            <ns3:cad>0</ns3:cad>
          </ns3:TrackPointExtension>
        </extensions>
      </trkpt>
      <trkpt lat="45.307364724576473236083984375" lon="-70.8131623081862926483154296875">
        <ele>899.5999755859375</ele>
        <time>2026-08-21T13:06:56.000Z</time>
        <extensions>
          <ns3:TrackPointExtension>
            <ns3:hr>152</ns3:hr>
            <ns3:cad>57</ns3:cad>
          </ns3:TrackPointExtension>
        </extensions>
      </trkpt>
      <trkpt lat="45.307357013225555419921875" lon="-70.813150070607662200927734375">
        <ele>900</ele>
        <time>2026-08-21T13:06:57.000Z</time>
        <extensions>
          <ns3:TrackPointExtension>
            <ns3:hr>152</ns3:hr>
            <ns3:cad>57</ns3:cad>
          </ns3:TrackPointExtension>
        </extensions>
      </trkpt>
      <trkpt lat="45.3073487989604473114013671875" lon="-70.81314504146575927734375">
        <ele>900.20001220703125</ele>
        <time>2026-08-21T13:06:58.000Z</time>
        <extensions>
          <ns3:TrackPointExtension>
            <ns3:hr>152</ns3:hr>
            <ns3:cad>57</ns3:cad>
          </ns3:TrackPointExtension>
        </extensions>
      </trkpt>
      <trkpt lat="45.3073404170572757720947265625" lon="-70.81314210779964923858642578125">
        <ele>900.4000244140625</ele>
        <time>2026-08-21T13:06:59.000Z</time>
        <extensions>
          <ns3:TrackPointExtension>
            <ns3:hr>153</ns3:hr>
            <ns3:cad>57</ns3:cad>
          </ns3:TrackPointExtension>
        </extensions>
      </trkpt>
      <trkpt lat="45.3073387406766414642333984375" lon="-70.81313573755323886871337890625">
        <ele>900.5999755859375</ele>
        <time>2026-08-21T13:07:00.000Z</time>
        <extensions>
          <ns3:TrackPointExtension>
            <ns3:hr>152</ns3:hr>
            <ns3:cad>57</ns3:cad>
          </ns3:TrackPointExtension>
        </extensions>
      </trkpt>
      <trkpt lat="45.30733245424926280975341796875" lon="-70.8131260983645915985107421875">
        <ele>900.79998779296875</ele>
        <time>2026-08-21T13:07:01.000Z</time>
        <extensions>
          <ns3:TrackPointExtension>
            <ns3:hr>152</ns3:hr>
            <ns3:cad>57</ns3:cad>
          </ns3:TrackPointExtension>
        </extensions>
      </trkpt>
      <trkpt lat="45.3073275089263916015625" lon="-70.81312232650816440582275390625">
        <ele>901.20001220703125</ele>
        <time>2026-08-21T13:07:02.000Z</time>
        <extensions>
          <ns3:TrackPointExtension>
            <ns3:hr>153</ns3:hr>
            <ns3:cad>57</ns3:cad>
          </ns3:TrackPointExtension>
        </extensions>
      </trkpt>
      <trkpt lat="45.3073209710419178009033203125" lon="-70.81311143003404140472412109375">
        <ele>901.4000244140625</ele>
        <time>2026-08-21T13:07:03.000Z</time>
        <extensions>
          <ns3:TrackPointExtension>
            <ns3:hr>153</ns3:hr>
            <ns3:cad>0</ns3:cad>
          </ns3:TrackPointExtension>
        </extensions>
      </trkpt>
      <trkpt lat="45.3073162771761417388916015625" lon="-70.81311218440532684326171875">
        <ele>901.5999755859375</ele>
        <time>2026-08-21T13:07:04.000Z</time>
        <extensions>
          <ns3:TrackPointExtension>
            <ns3:hr>153</ns3:hr>
            <ns3:cad>0</ns3:cad>
          </ns3:TrackPointExtension>
        </extensions>
      </trkpt>
      <trkpt lat="45.30731686390936374664306640625" lon="-70.81310405395925045013427734375">
        <ele>901.79998779296875</ele>
        <time>2026-08-21T13:07:05.000Z</time>
        <extensions>
          <ns3:TrackPointExtension>
            <ns3:hr>153</ns3:hr>
            <ns3:cad>0</ns3:cad>
          </ns3:TrackPointExtension>
        </extensions>
      </trkpt>
      <trkpt lat="45.30731518752872943878173828125" lon="-70.81310187466442584991455078125">
        <ele>902</ele>
        <time>2026-08-21T13:07:06.000Z</time>
        <extensions>
          <ns3:TrackPointExtension>
            <ns3:hr>154</ns3:hr>
            <ns3:cad>0</ns3:cad>
          </ns3:TrackPointExtension>
        </extensions>
      </trkpt>
      <trkpt lat="45.30730831436812877655029296875" lon="-70.81308796070516109466552734375">
        <ele>902.20001220703125</ele>
        <time>2026-08-21T13:07:07.000Z</time>
        <extensions>
          <ns3:TrackPointExtension>
            <ns3:hr>154</ns3:hr>
            <ns3:cad>0</ns3:cad>
          </ns3:TrackPointExtension>
        </extensions>
      </trkpt>
      <trkpt lat="45.3073020279407501220703125" lon="-70.8130835182964801788330078125">
        <ele>902.4000244140625</ele>
        <time>2026-08-21T13:07:08.000Z</time>
        <extensions>
          <ns3:TrackPointExtension>
            <ns3:hr>154</ns3:hr>
            <ns3:cad>0</ns3:cad>
          </ns3:TrackPointExtension>
        </extensions>
      </trkpt>
      <trkpt lat="45.30729490332305431365966796875" lon="-70.81306717358529567718505859375">
        <ele>902.5999755859375</ele>
        <time>2026-08-21T13:07:09.000Z</time>
        <extensions>
          <ns3:TrackPointExtension>
            <ns3:hr>155</ns3:hr>
            <ns3:cad>0</ns3:cad>
          </ns3:TrackPointExtension>
        </extensions>
      </trkpt>
      <trkpt lat="45.30728249810636043548583984375" lon="-70.81305258907377719879150390625">
        <ele>902.79998779296875</ele>
        <time>2026-08-21T13:07:10.000Z</time>
        <extensions>
          <ns3:TrackPointExtension>
            <ns3:hr>155</ns3:hr>
            <ns3:cad>0</ns3:cad>
          </ns3:TrackPointExtension>
        </extensions>
      </trkpt>
      <trkpt lat="45.30726389028131961822509765625" lon="-70.8130551874637603759765625">
        <ele>903</ele>
        <time>2026-08-21T13:07:11.000Z</time>
        <extensions>
          <ns3:TrackPointExtension>
            <ns3:hr>154</ns3:hr>
            <ns3:cad>46</ns3:cad>
          </ns3:TrackPointExtension>
        </extensions>
      </trkpt>
      <trkpt lat="45.30725265853106975555419921875" lon="-70.81305560655891895294189453125">
        <ele>903</ele>
        <time>2026-08-21T13:07:12.000Z</time>
        <extensions>
          <ns3:TrackPointExtension>
            <ns3:hr>155</ns3:hr>
            <ns3:cad>46</ns3:cad>
          </ns3:TrackPointExtension>
        </extensions>
      </trkpt>
      <trkpt lat="45.30723723582923412322998046875" lon="-70.81305543892085552215576171875">
        <ele>903.20001220703125</ele>
        <time>2026-08-21T13:07:13.000Z</time>
        <extensions>
          <ns3:TrackPointExtension>
            <ns3:hr>155</ns3:hr>
            <ns3:cad>46</ns3:cad>
          </ns3:TrackPointExtension>
        </extensions>
      </trkpt>
      <trkpt lat="45.307224579155445098876953125" lon="-70.81305057741701602935791015625">
        <ele>903.20001220703125</ele>
        <time>2026-08-21T13:07:14.000Z</time>
        <extensions>
          <ns3:TrackPointExtension>
            <ns3:hr>154</ns3:hr>
            <ns3:cad>46</ns3:cad>
          </ns3:TrackPointExtension>
        </extensions>
      </trkpt>
      <trkpt lat="45.30721091665327548980712890625" lon="-70.81305275671184062957763671875">
        <ele>903.20001220703125</ele>
        <time>2026-08-21T13:07:15.000Z</time>
        <extensions>
          <ns3:TrackPointExtension>
            <ns3:hr>155</ns3:hr>
            <ns3:cad>47</ns3:cad>
          </ns3:TrackPointExtension>
        </extensions>
      </trkpt>
      <trkpt lat="45.30720052309334278106689453125" lon="-70.81305594183504581451416015625">
        <ele>903.20001220703125</ele>
        <time>2026-08-21T13:07:16.000Z</time>
        <extensions>
          <ns3:TrackPointExtension>
            <ns3:hr>155</ns3:hr>
            <ns3:cad>47</ns3:cad>
          </ns3:TrackPointExtension>
        </extensions>
      </trkpt>
      <trkpt lat="45.30718870460987091064453125" lon="-70.81305325962603092193603515625">
        <ele>903.20001220703125</ele>
        <time>2026-08-21T13:07:17.000Z</time>
        <extensions>
          <ns3:TrackPointExtension>
            <ns3:hr>155</ns3:hr>
            <ns3:cad>47</ns3:cad>
          </ns3:TrackPointExtension>
        </extensions>
      </trkpt>
      <trkpt lat="45.3071778081357479095458984375" lon="-70.813051499426364898681640625">
        <ele>903</ele>
        <time>2026-08-21T13:07:18.000Z</time>
        <extensions>
          <ns3:TrackPointExtension>
            <ns3:hr>155</ns3:hr>
            <ns3:cad>48</ns3:cad>
          </ns3:TrackPointExtension>
        </extensions>
      </trkpt>
      <trkpt lat="45.30716724693775177001953125" lon="-70.81305242143571376800537109375">
        <ele>903</ele>
        <time>2026-08-21T13:07:19.000Z</time>
        <extensions>
          <ns3:TrackPointExtension>
            <ns3:hr>155</ns3:hr>
            <ns3:cad>48</ns3:cad>
          </ns3:TrackPointExtension>
        </extensions>
      </trkpt>
      <trkpt lat="45.30715274624526500701904296875" lon="-70.8130553551018238067626953125">
        <ele>902.79998779296875</ele>
        <time>2026-08-21T13:07:20.000Z</time>
        <extensions>
          <ns3:TrackPointExtension>
            <ns3:hr>156</ns3:hr>
            <ns3:cad>0</ns3:cad>
          </ns3:TrackPointExtension>
        </extensions>
      </trkpt>
      <trkpt lat="45.30714402906596660614013671875" lon="-70.81305242143571376800537109375">
        <ele>902.5999755859375</ele>
        <time>2026-08-21T13:07:21.000Z</time>
        <extensions>
          <ns3:TrackPointExtension>
            <ns3:hr>156</ns3:hr>
            <ns3:cad>0</ns3:cad>
          </ns3:TrackPointExtension>
        </extensions>
      </trkpt>
      <trkpt lat="45.30713371932506561279296875" lon="-70.8130466379225254058837890625">
        <ele>902.20001220703125</ele>
        <time>2026-08-21T13:07:22.000Z</time>
        <extensions>
          <ns3:TrackPointExtension>
            <ns3:hr>156</ns3:hr>
            <ns3:cad>0</ns3:cad>
          </ns3:TrackPointExtension>
        </extensions>
      </trkpt>
      <trkpt lat="45.30712659470736980438232421875" lon="-70.81304420717060565948486328125">
        <ele>902</ele>
        <time>2026-08-21T13:07:23.000Z</time>
        <extensions>
          <ns3:TrackPointExtension>
            <ns3:hr>156</ns3:hr>
            <ns3:cad>0</ns3:cad>
          </ns3:TrackPointExtension>
        </extensions>
      </trkpt>
      <trkpt lat="45.3071214817464351654052734375" lon="-70.8130422793328762054443359375">
        <ele>901.5999755859375</ele>
        <time>2026-08-21T13:07:24.000Z</time>
        <extensions>
          <ns3:TrackPointExtension>
            <ns3:hr>156</ns3:hr>
            <ns3:cad>0</ns3:cad>
          </ns3:TrackPointExtension>
        </extensions>
      </trkpt>
      <trkpt lat="45.307115949690341949462890625" lon="-70.81303750164806842803955078125">
        <ele>901.20001220703125</ele>
        <time>2026-08-21T13:07:25.000Z</time>
        <extensions>
          <ns3:TrackPointExtension>
            <ns3:hr>155</ns3:hr>
            <ns3:cad>0</ns3:cad>
          </ns3:TrackPointExtension>
        </extensions>
      </trkpt>
      <trkpt lat="45.30711150728166103363037109375" lon="-70.813030712306499481201171875">
        <ele>901</ele>
        <time>2026-08-21T13:07:26.000Z</time>
        <extensions>
          <ns3:TrackPointExtension>
            <ns3:hr>155</ns3:hr>
            <ns3:cad>0</ns3:cad>
          </ns3:TrackPointExtension>
        </extensions>
      </trkpt>
      <trkpt lat="45.30710513703525066375732421875" lon="-70.813024342060089111328125">
        <ele>900.79998779296875</ele>
        <time>2026-08-21T13:07:27.000Z</time>
        <extensions>
          <ns3:TrackPointExtension>
            <ns3:hr>155</ns3:hr>
            <ns3:cad>62</ns3:cad>
          </ns3:TrackPointExtension>
        </extensions>
      </trkpt>
      <trkpt lat="45.30710044316947460174560546875" lon="-70.81302057020366191864013671875">
        <ele>900.5999755859375</ele>
        <time>2026-08-21T13:07:28.000Z</time>
        <extensions>
          <ns3:TrackPointExtension>
            <ns3:hr>155</ns3:hr>
            <ns3:cad>62</ns3:cad>
          </ns3:TrackPointExtension>
        </extensions>
      </trkpt>
      <trkpt lat="45.307100526988506317138671875" lon="-70.8130188100039958953857421875">
        <ele>900.4000244140625</ele>
        <time>2026-08-21T13:07:29.000Z</time>
        <extensions>
          <ns3:TrackPointExtension>
            <ns3:hr>154</ns3:hr>
            <ns3:cad>59</ns3:cad>
          </ns3:TrackPointExtension>
        </extensions>
      </trkpt>
      <trkpt lat="45.30709658749401569366455078125" lon="-70.8130107633769512176513671875">
        <ele>900.20001220703125</ele>
        <time>2026-08-21T13:07:30.000Z</time>
        <extensions>
          <ns3:TrackPointExtension>
            <ns3:hr>154</ns3:hr>
            <ns3:cad>59</ns3:cad>
          </ns3:TrackPointExtension>
        </extensions>
      </trkpt>
      <trkpt lat="45.30709189362823963165283203125" lon="-70.8130023814737796783447265625">
        <ele>899.79998779296875</ele>
        <time>2026-08-21T13:07:31.000Z</time>
        <extensions>
          <ns3:TrackPointExtension>
            <ns3:hr>154</ns3:hr>
            <ns3:cad>59</ns3:cad>
          </ns3:TrackPointExtension>
        </extensions>
      </trkpt>
      <trkpt lat="45.30708652921020984649658203125" lon="-70.812995843589305877685546875">
        <ele>899.5999755859375</ele>
        <time>2026-08-21T13:07:32.000Z</time>
        <extensions>
          <ns3:TrackPointExtension>
            <ns3:hr>153</ns3:hr>
            <ns3:cad>59</ns3:cad>
          </ns3:TrackPointExtension>
        </extensions>
      </trkpt>
      <trkpt lat="45.30707697384059429168701171875" lon="-70.8129839412868022918701171875">
        <ele>899.4000244140625</ele>
        <time>2026-08-21T13:07:33.000Z</time>
        <extensions>
          <ns3:TrackPointExtension>
            <ns3:hr>153</ns3:hr>
            <ns3:cad>59</ns3:cad>
          </ns3:TrackPointExtension>
        </extensions>
      </trkpt>
      <trkpt lat="45.30707010067999362945556640625" lon="-70.81296994350850582122802734375">
        <ele>899</ele>
        <time>2026-08-21T13:07:34.000Z</time>
        <extensions>
          <ns3:TrackPointExtension>
            <ns3:hr>153</ns3:hr>
            <ns3:cad>59</ns3:cad>
          </ns3:TrackPointExtension>
        </extensions>
      </trkpt>
      <trkpt lat="45.30706255696713924407958984375" lon="-70.8129651658236980438232421875">
        <ele>898.5999755859375</ele>
        <time>2026-08-21T13:07:35.000Z</time>
        <extensions>
          <ns3:TrackPointExtension>
            <ns3:hr>152</ns3:hr>
            <ns3:cad>59</ns3:cad>
          </ns3:TrackPointExtension>
        </extensions>
      </trkpt>
      <trkpt lat="45.30704730190336704254150390625" lon="-70.81295971758663654327392578125">
        <ele>898.4000244140625</ele>
        <time>2026-08-21T13:07:36.000Z</time>
        <extensions>
          <ns3:TrackPointExtension>
            <ns3:hr>152</ns3:hr>
            <ns3:cad>68</ns3:cad>
          </ns3:TrackPointExtension>
        </extensions>
      </trkpt>
      <trkpt lat="45.307039506733417510986328125" lon="-70.812952928245067596435546875">
        <ele>898.20001220703125</ele>
        <time>2026-08-21T13:07:37.000Z</time>
        <extensions>
          <ns3:TrackPointExtension>
            <ns3:hr>151</ns3:hr>
            <ns3:cad>68</ns3:cad>
          </ns3:TrackPointExtension>
        </extensions>
      </trkpt>
      <trkpt lat="45.30702282674610614776611328125" lon="-70.8129437081515789031982421875">
        <ele>898</ele>
        <time>2026-08-21T13:07:38.000Z</time>
        <extensions>
          <ns3:TrackPointExtension>
            <ns3:hr>151</ns3:hr>
            <ns3:cad>68</ns3:cad>
          </ns3:TrackPointExtension>
        </extensions>
      </trkpt>
      <trkpt lat="45.30700363218784332275390625" lon="-70.81294714473187923431396484375">
        <ele>897.5999755859375</ele>
        <time>2026-08-21T13:07:39.000Z</time>
        <extensions>
          <ns3:TrackPointExtension>
            <ns3:hr>150</ns3:hr>
            <ns3:cad>75</ns3:cad>
          </ns3:TrackPointExtension>
        </extensions>
      </trkpt>
      <trkpt lat="45.306987874209880828857421875" lon="-70.81294991075992584228515625">
        <ele>897.4000244140625</ele>
        <time>2026-08-21T13:07:40.000Z</time>
        <extensions>
          <ns3:TrackPointExtension>
            <ns3:hr>150</ns3:hr>
            <ns3:cad>75</ns3:cad>
          </ns3:TrackPointExtension>
        </extensions>
      </trkpt>
      <trkpt lat="45.306970775127410888671875" lon="-70.8129559457302093505859375">
        <ele>897.20001220703125</ele>
        <time>2026-08-21T13:07:41.000Z</time>
        <extensions>
          <ns3:TrackPointExtension>
            <ns3:hr>149</ns3:hr>
            <ns3:cad>75</ns3:cad>
          </ns3:TrackPointExtension>
        </extensions>
      </trkpt>
      <trkpt lat="45.3069545142352581024169921875" lon="-70.81296223215758800506591796875">
        <ele>896.79998779296875</ele>
        <time>2026-08-21T13:07:42.000Z</time>
        <extensions>
          <ns3:TrackPointExtension>
            <ns3:hr>148</ns3:hr>
            <ns3:cad>75</ns3:cad>
          </ns3:TrackPointExtension>
        </extensions>
      </trkpt>
      <trkpt lat="45.3069394268095493316650390625" lon="-70.812967680394649505615234375">
        <ele>896.4000244140625</ele>
        <time>2026-08-21T13:07:43.000Z</time>
        <extensions>
          <ns3:TrackPointExtension>
            <ns3:hr>147</ns3:hr>
            <ns3:cad>0</ns3:cad>
          </ns3:TrackPointExtension>
        </extensions>
      </trkpt>
      <trkpt lat="45.30692693777382373809814453125" lon="-70.81296776421368122100830078125">
        <ele>896</ele>
        <time>2026-08-21T13:07:44.000Z</time>
        <extensions>
          <ns3:TrackPointExtension>
            <ns3:hr>146</ns3:hr>
            <ns3:cad>0</ns3:cad>
          </ns3:TrackPointExtension>
        </extensions>
      </trkpt>
      <trkpt lat="45.3069132752716541290283203125" lon="-70.812958963215351104736328125">
        <ele>895.5999755859375</ele>
        <time>2026-08-21T13:07:45.000Z</time>
        <extensions>
          <ns3:TrackPointExtension>
            <ns3:hr>145</ns3:hr>
            <ns3:cad>0</ns3:cad>
          </ns3:TrackPointExtension>
        </extensions>
      </trkpt>
      <trkpt lat="45.3069001995027065277099609375" lon="-70.8129561133682727813720703125">
        <ele>895.4000244140625</ele>
        <time>2026-08-21T13:07:46.000Z</time>
        <extensions>
          <ns3:TrackPointExtension>
            <ns3:hr>144</ns3:hr>
            <ns3:cad>0</ns3:cad>
          </ns3:TrackPointExtension>
        </extensions>
      </trkpt>
      <trkpt lat="45.30689156614243984222412109375" lon="-70.812957286834716796875">
        <ele>895</ele>
        <time>2026-08-21T13:07:47.000Z</time>
        <extensions>
          <ns3:TrackPointExtension>
            <ns3:hr>143</ns3:hr>
            <ns3:cad>0</ns3:cad>
          </ns3:TrackPointExtension>
        </extensions>
      </trkpt>
      <trkpt lat="45.3068780712783336639404296875" lon="-70.81296374090015888214111328125">
        <ele>894.5999755859375</ele>
        <time>2026-08-21T13:07:48.000Z</time>
        <extensions>
          <ns3:TrackPointExtension>
            <ns3:hr>143</ns3:hr>
            <ns3:cad>0</ns3:cad>
          </ns3:TrackPointExtension>
        </extensions>
      </trkpt>
      <trkpt lat="45.30685837380588054656982421875" lon="-70.81297463737428188323974609375">
        <ele>894</ele>
        <time>2026-08-21T13:07:49.000Z</time>
        <extensions>
          <ns3:TrackPointExtension>
            <ns3:hr>142</ns3:hr>
            <ns3:cad>0</ns3:cad>
          </ns3:TrackPointExtension>
        </extensions>
      </trkpt>
      <trkpt lat="45.30684932135045528411865234375" lon="-70.8129856176674365997314453125">
        <ele>893.5999755859375</ele>
        <time>2026-08-21T13:07:50.000Z</time>
        <extensions>
          <ns3:TrackPointExtension>
            <ns3:hr>141</ns3:hr>
            <ns3:cad>0</ns3:cad>
          </ns3:TrackPointExtension>
        </extensions>
      </trkpt>
      <trkpt lat="45.3068465553224086761474609375" lon="-70.81299827434122562408447265625">
        <ele>893.20001220703125</ele>
        <time>2026-08-21T13:07:51.000Z</time>
        <extensions>
          <ns3:TrackPointExtension>
            <ns3:hr>139</ns3:hr>
            <ns3:cad>0</ns3:cad>
          </ns3:TrackPointExtension>
        </extensions>
      </trkpt>
      <trkpt lat="45.30684806406497955322265625" lon="-70.8129986934363842010498046875">
        <ele>892.79998779296875</ele>
        <time>2026-08-21T13:07:52.000Z</time>
        <extensions>
          <ns3:TrackPointExtension>
            <ns3:hr>136</ns3:hr>
            <ns3:cad>0</ns3:cad>
          </ns3:TrackPointExtension>
        </extensions>
      </trkpt>
      <trkpt lat="45.30684345401823520660400390625" lon="-70.81298285163938999176025390625">
        <ele>892.4000244140625</ele>
        <time>2026-08-21T13:07:53.000Z</time>
        <extensions>
          <ns3:TrackPointExtension>
            <ns3:hr>136</ns3:hr>
            <ns3:cad>0</ns3:cad>
          </ns3:TrackPointExtension>
        </extensions>
      </trkpt>
      <trkpt lat="45.30684010125696659088134765625" lon="-70.81297178752720355987548828125">
        <ele>892</ele>
        <time>2026-08-21T13:07:54.000Z</time>
        <extensions>
          <ns3:TrackPointExtension>
            <ns3:hr>135</ns3:hr>
            <ns3:cad>0</ns3:cad>
          </ns3:TrackPointExtension>
        </extensions>
      </trkpt>
      <trkpt lat="45.30683741904795169830322265625" lon="-70.81296156160533428192138671875">
        <ele>891.5999755859375</ele>
        <time>2026-08-21T13:07:55.000Z</time>
        <extensions>
          <ns3:TrackPointExtension>
            <ns3:hr>135</ns3:hr>
            <ns3:cad>0</ns3:cad>
          </ns3:TrackPointExtension>
        </extensions>
      </trkpt>
      <trkpt lat="45.30683607794344425201416015625" lon="-70.8129541017115116119384765625">
        <ele>891.20001220703125</ele>
        <time>2026-08-21T13:07:56.000Z</time>
        <extensions>
          <ns3:TrackPointExtension>
            <ns3:hr>134</ns3:hr>
            <ns3:cad>0</ns3:cad>
          </ns3:TrackPointExtension>
        </extensions>
      </trkpt>
      <trkpt lat="45.3068294562399387359619140625" lon="-70.81294027157127857208251953125">
        <ele>890.79998779296875</ele>
        <time>2026-08-21T13:07:57.000Z</time>
        <extensions>
          <ns3:TrackPointExtension>
            <ns3:hr>133</ns3:hr>
            <ns3:cad>0</ns3:cad>
          </ns3:TrackPointExtension>
        </extensions>
      </trkpt>
      <trkpt lat="45.3068180568516254425048828125" lon="-70.8129245974123477935791015625">
        <ele>890.20001220703125</ele>
        <time>2026-08-21T13:07:58.000Z</time>
        <extensions>
          <ns3:TrackPointExtension>
            <ns3:hr>132</ns3:hr>
            <ns3:cad>0</ns3:cad>
          </ns3:TrackPointExtension>
        </extensions>
      </trkpt>
      <trkpt lat="45.30681579373776912689208984375" lon="-70.8129118569195270538330078125">
        <ele>889.79998779296875</ele>
        <time>2026-08-21T13:07:59.000Z</time>
        <extensions>
          <ns3:TrackPointExtension>
            <ns3:hr>133</ns3:hr>
            <ns3:cad>0</ns3:cad>
          </ns3:TrackPointExtension>
        </extensions>
      </trkpt>
      <trkpt lat="45.30681495554745197296142578125" lon="-70.81290422938764095306396484375">
        <ele>889.20001220703125</ele>
        <time>2026-08-21T13:08:00.000Z</time>
        <extensions>
          <ns3:TrackPointExtension>
            <ns3:hr>132</ns3:hr>
            <ns3:cad>0</ns3:cad>
          </ns3:TrackPointExtension>
        </extensions>
      </trkpt>
      <trkpt lat="45.30681478790938854217529296875" lon="-70.81289115361869335174560546875">
        <ele>888.79998779296875</ele>
        <time>2026-08-21T13:08:01.000Z</time>
        <extensions>
          <ns3:TrackPointExtension>
            <ns3:hr>132</ns3:hr>
            <ns3:cad>0</ns3:cad>
          </ns3:TrackPointExtension>
        </extensions>
      </trkpt>
      <trkpt lat="45.3068173862993717193603515625" lon="-70.81288914196193218231201171875">
        <ele>888.4000244140625</ele>
        <time>2026-08-21T13:08:02.000Z</time>
        <extensions>
          <ns3:TrackPointExtension>
            <ns3:hr>131</ns3:hr>
            <ns3:cad>0</ns3:cad>
          </ns3:TrackPointExtension>
        </extensions>
      </trkpt>
      <trkpt lat="45.30681445263326168060302734375" lon="-70.8128897286951541900634765625">
        <ele>888</ele>
        <time>2026-08-21T13:08:03.000Z</time>
        <extensions>
          <ns3:TrackPointExtension>
            <ns3:hr>131</ns3:hr>
            <ns3:cad>0</ns3:cad>
          </ns3:TrackPointExtension>
        </extensions>
      </trkpt>
      <trkpt lat="45.30681277625262737274169921875" lon="-70.81288344226777553558349609375">
        <ele>887.5999755859375</ele>
        <time>2026-08-21T13:08:04.000Z</time>
        <extensions>
          <ns3:TrackPointExtension>
            <ns3:hr>131</ns3:hr>
            <ns3:cad>0</ns3:cad>
          </ns3:TrackPointExtension>
        </extensions>
      </trkpt>
      <trkpt lat="45.306809842586517333984375" lon="-70.812881179153919219970703125">
        <ele>887.20001220703125</ele>
        <time>2026-08-21T13:08:05.000Z</time>
        <extensions>
          <ns3:TrackPointExtension>
            <ns3:hr>131</ns3:hr>
            <ns3:cad>71</ns3:cad>
          </ns3:TrackPointExtension>
        </extensions>
      </trkpt>
      <trkpt lat="45.30681076459586620330810546875" lon="-70.81287321634590625762939453125">
        <ele>887</ele>
        <time>2026-08-21T13:08:06.000Z</time>
        <extensions>
          <ns3:TrackPointExtension>
            <ns3:hr>131</ns3:hr>
            <ns3:cad>71</ns3:cad>
          </ns3:TrackPointExtension>
        </extensions>
      </trkpt>
      <trkpt lat="45.30680892057716846466064453125" lon="-70.8128672651946544647216796875">
        <ele>886.5999755859375</ele>
        <time>2026-08-21T13:08:07.000Z</time>
        <extensions>
          <ns3:TrackPointExtension>
            <ns3:hr>131</ns3:hr>
            <ns3:cad>71</ns3:cad>
          </ns3:TrackPointExtension>
        </extensions>
      </trkpt>
      <trkpt lat="45.30680841766297817230224609375" lon="-70.81286651082336902618408203125">
        <ele>886.20001220703125</ele>
        <time>2026-08-21T13:08:08.000Z</time>
        <extensions>
          <ns3:TrackPointExtension>
            <ns3:hr>132</ns3:hr>
            <ns3:cad>0</ns3:cad>
          </ns3:TrackPointExtension>
        </extensions>
      </trkpt>
      <trkpt lat="45.30680858530104160308837890625" lon="-70.812858045101165771484375">
        <ele>885.79998779296875</ele>
        <time>2026-08-21T13:08:09.000Z</time>
        <extensions>
          <ns3:TrackPointExtension>
            <ns3:hr>131</ns3:hr>
            <ns3:cad>0</ns3:cad>
          </ns3:TrackPointExtension>
        </extensions>
      </trkpt>
      <trkpt lat="45.3068100102245807647705078125" lon="-70.8128531835973262786865234375">
        <ele>885.20001220703125</ele>
        <time>2026-08-21T13:08:10.000Z</time>
        <extensions>
          <ns3:TrackPointExtension>
            <ns3:hr>131</ns3:hr>
            <ns3:cad>0</ns3:cad>
          </ns3:TrackPointExtension>
        </extensions>
      </trkpt>
      <trkpt lat="45.30681495554745197296142578125" lon="-70.81283885054290294647216796875">
        <ele>884.79998779296875</ele>
        <time>2026-08-21T13:08:11.000Z</time>
        <extensions>
          <ns3:TrackPointExtension>
            <ns3:hr>130</ns3:hr>
            <ns3:cad>0</ns3:cad>
          </ns3:TrackPointExtension>
        </extensions>
      </trkpt>
      <trkpt lat="45.3068234212696552276611328125" lon="-70.812816806137561798095703125">
        <ele>884.20001220703125</ele>
        <time>2026-08-21T13:08:12.000Z</time>
        <extensions>
          <ns3:TrackPointExtension>
            <ns3:hr>130</ns3:hr>
            <ns3:cad>0</ns3:cad>
          </ns3:TrackPointExtension>
        </extensions>
      </trkpt>
      <trkpt lat="45.306825600564479827880859375" lon="-70.81280146725475788116455078125">
        <ele>883.79998779296875</ele>
        <time>2026-08-21T13:08:13.000Z</time>
        <extensions>
          <ns3:TrackPointExtension>
            <ns3:hr>130</ns3:hr>
            <ns3:cad>0</ns3:cad>
          </ns3:TrackPointExtension>
        </extensions>
      </trkpt>
      <trkpt lat="45.306822918355464935302734375" lon="-70.81278629601001739501953125">
        <ele>883.4000244140625</ele>
        <time>2026-08-21T13:08:14.000Z</time>
        <extensions>
          <ns3:TrackPointExtension>
            <ns3:hr>130</ns3:hr>
            <ns3:cad>0</ns3:cad>
          </ns3:TrackPointExtension>
        </extensions>
      </trkpt>
      <trkpt lat="45.3068147040903568267822265625" lon="-70.81277732737362384796142578125">
        <ele>883.20001220703125</ele>
        <time>2026-08-21T13:08:15.000Z</time>
        <extensions>
          <ns3:TrackPointExtension>
            <ns3:hr>130</ns3:hr>
            <ns3:cad>0</ns3:cad>
          </ns3:TrackPointExtension>
        </extensions>
      </trkpt>
      <trkpt lat="45.30680707655847072601318359375" lon="-70.81276324577629566192626953125">
        <ele>883</ele>
        <time>2026-08-21T13:08:16.000Z</time>
        <extensions>
          <ns3:TrackPointExtension>
            <ns3:hr>131</ns3:hr>
            <ns3:cad>0</ns3:cad>
          </ns3:TrackPointExtension>
        </extensions>
      </trkpt>
      <trkpt lat="45.30679785646498203277587890625" lon="-70.81275134347379207611083984375">
        <ele>882.79998779296875</ele>
        <time>2026-08-21T13:08:17.000Z</time>
        <extensions>
          <ns3:TrackPointExtension>
            <ns3:hr>131</ns3:hr>
            <ns3:cad>0</ns3:cad>
          </ns3:TrackPointExtension>
        </extensions>
      </trkpt>
      <trkpt lat="45.30678947456181049346923828125" lon="-70.8127432130277156829833984375">
        <ele>882.5999755859375</ele>
        <time>2026-08-21T13:08:18.000Z</time>
        <extensions>
          <ns3:TrackPointExtension>
            <ns3:hr>131</ns3:hr>
            <ns3:cad>0</ns3:cad>
          </ns3:TrackPointExtension>
        </extensions>
      </trkpt>
      <trkpt lat="45.30678511597216129302978515625" lon="-70.81273843534290790557861328125">
        <ele>882.4000244140625</ele>
        <time>2026-08-21T13:08:19.000Z</time>
        <extensions>
          <ns3:TrackPointExtension>
            <ns3:hr>131</ns3:hr>
            <ns3:cad>0</ns3:cad>
          </ns3:TrackPointExtension>
        </extensions>
      </trkpt>
      <trkpt lat="45.30678293667733669281005859375" lon="-70.81273525021970272064208984375">
        <ele>882.20001220703125</ele>
        <time>2026-08-21T13:08:20.000Z</time>
        <extensions>
          <ns3:TrackPointExtension>
            <ns3:hr>130</ns3:hr>
            <ns3:cad>0</ns3:cad>
          </ns3:TrackPointExtension>
        </extensions>
      </trkpt>
      <trkpt lat="45.30677824281156063079833984375" lon="-70.8127217553555965423583984375">
        <ele>881.79998779296875</ele>
        <time>2026-08-21T13:08:21.000Z</time>
        <extensions>
          <ns3:TrackPointExtension>
            <ns3:hr>131</ns3:hr>
            <ns3:cad>0</ns3:cad>
          </ns3:TrackPointExtension>
        </extensions>
      </trkpt>
      <trkpt lat="45.30677204020321369171142578125" lon="-70.81271119415760040283203125">
        <ele>881.5999755859375</ele>
        <time>2026-08-21T13:08:22.000Z</time>
        <extensions>
          <ns3:TrackPointExtension>
            <ns3:hr>131</ns3:hr>
            <ns3:cad>53</ns3:cad>
          </ns3:TrackPointExtension>
        </extensions>
      </trkpt>
      <trkpt lat="45.3067751415073871612548828125" lon="-70.81269501708447933197021484375">
        <ele>881.20001220703125</ele>
        <time>2026-08-21T13:08:23.000Z</time>
        <extensions>
          <ns3:TrackPointExtension>
            <ns3:hr>131</ns3:hr>
            <ns3:cad>53</ns3:cad>
          </ns3:TrackPointExtension>
        </extensions>
      </trkpt>
      <trkpt lat="45.3067709505558013916015625" lon="-70.81268797628581523895263671875">
        <ele>880.79998779296875</ele>
        <time>2026-08-21T13:08:24.000Z</time>
        <extensions>
          <ns3:TrackPointExtension>
            <ns3:hr>132</ns3:hr>
            <ns3:cad>53</ns3:cad>
          </ns3:TrackPointExtension>
        </extensions>
      </trkpt>
      <trkpt lat="45.30676952563226222991943359375" lon="-70.81267406232655048370361328125">
        <ele>880.4000244140625</ele>
        <time>2026-08-21T13:08:25.000Z</time>
        <extensions>
          <ns3:TrackPointExtension>
            <ns3:hr>131</ns3:hr>
            <ns3:cad>53</ns3:cad>
          </ns3:TrackPointExtension>
        </extensions>
      </trkpt>
      <trkpt lat="45.30676650814712047576904296875" lon="-70.812663249671459197998046875">
        <ele>880</ele>
        <time>2026-08-21T13:08:26.000Z</time>
        <extensions>
          <ns3:TrackPointExtension>
            <ns3:hr>131</ns3:hr>
            <ns3:cad>53</ns3:cad>
          </ns3:TrackPointExtension>
        </extensions>
      </trkpt>
      <trkpt lat="45.3067634068429470062255859375" lon="-70.8126533590257167816162109375">
        <ele>879.5999755859375</ele>
        <time>2026-08-21T13:08:27.000Z</time>
        <extensions>
          <ns3:TrackPointExtension>
            <ns3:hr>131</ns3:hr>
            <ns3:cad>42</ns3:cad>
          </ns3:TrackPointExtension>
        </extensions>
      </trkpt>
      <trkpt lat="45.30675879679620265960693359375" lon="-70.81264187581837177276611328125">
        <ele>879.4000244140625</ele>
        <time>2026-08-21T13:08:28.000Z</time>
        <extensions>
          <ns3:TrackPointExtension>
            <ns3:hr>131</ns3:hr>
            <ns3:cad>42</ns3:cad>
          </ns3:TrackPointExtension>
        </extensions>
      </trkpt>
      <trkpt lat="45.30675108544528484344482421875" lon="-70.81262092106044292449951171875">
        <ele>879</ele>
        <time>2026-08-21T13:08:29.000Z</time>
        <extensions>
          <ns3:TrackPointExtension>
            <ns3:hr>131</ns3:hr>
            <ns3:cad>42</ns3:cad>
          </ns3:TrackPointExtension>
        </extensions>
      </trkpt>
      <trkpt lat="45.3067406080663204193115234375" lon="-70.81260985694825649261474609375">
        <ele>878.5999755859375</ele>
        <time>2026-08-21T13:08:30.000Z</time>
        <extensions>
          <ns3:TrackPointExtension>
            <ns3:hr>132</ns3:hr>
            <ns3:cad>42</ns3:cad>
          </ns3:TrackPointExtension>
        </extensions>
      </trkpt>
      <trkpt lat="45.30672912485897541046142578125" lon="-70.81259929575026035308837890625">
        <ele>878.4000244140625</ele>
        <time>2026-08-21T13:08:31.000Z</time>
        <extensions>
          <ns3:TrackPointExtension>
            <ns3:hr>131</ns3:hr>
            <ns3:cad>0</ns3:cad>
          </ns3:TrackPointExtension>
        </extensions>
      </trkpt>
      <trkpt lat="45.3067194856703281402587890625" lon="-70.812592171132564544677734375">
        <ele>878.20001220703125</ele>
        <time>2026-08-21T13:08:32.000Z</time>
        <extensions>
          <ns3:TrackPointExtension>
            <ns3:hr>131</ns3:hr>
            <ns3:cad>45</ns3:cad>
          </ns3:TrackPointExtension>
        </extensions>
      </trkpt>
      <trkpt lat="45.30671001411974430084228515625" lon="-70.81258990801870822906494140625">
        <ele>878</ele>
        <time>2026-08-21T13:08:33.000Z</time>
        <extensions>
          <ns3:TrackPointExtension>
            <ns3:hr>130</ns3:hr>
            <ns3:cad>45</ns3:cad>
          </ns3:TrackPointExtension>
        </extensions>
      </trkpt>
      <trkpt lat="45.3066980279982089996337890625" lon="-70.81259024329483509063720703125">
        <ele>878</ele>
        <time>2026-08-21T13:08:34.000Z</time>
        <extensions>
          <ns3:TrackPointExtension>
            <ns3:hr>130</ns3:hr>
            <ns3:cad>75</ns3:cad>
          </ns3:TrackPointExtension>
        </extensions>
      </trkpt>
      <trkpt lat="45.30668671242892742156982421875" lon="-70.81258772872388362884521484375">
        <ele>877.79998779296875</ele>
        <time>2026-08-21T13:08:35.000Z</time>
        <extensions>
          <ns3:TrackPointExtension>
            <ns3:hr>130</ns3:hr>
            <ns3:cad>75</ns3:cad>
          </ns3:TrackPointExtension>
        </extensions>
      </trkpt>
      <trkpt lat="45.30667900107800960540771484375" lon="-70.81257515586912631988525390625">
        <ele>877.5999755859375</ele>
        <time>2026-08-21T13:08:36.000Z</time>
        <extensions>
          <ns3:TrackPointExtension>
            <ns3:hr>130</ns3:hr>
            <ns3:cad>0</ns3:cad>
          </ns3:TrackPointExtension>
        </extensions>
      </trkpt>
      <trkpt lat="45.3066698648035526275634765625" lon="-70.81256492994725704193115234375">
        <ele>877.5999755859375</ele>
        <time>2026-08-21T13:08:37.000Z</time>
        <extensions>
          <ns3:TrackPointExtension>
            <ns3:hr>129</ns3:hr>
            <ns3:cad>0</ns3:cad>
          </ns3:TrackPointExtension>
        </extensions>
      </trkpt>
      <trkpt lat="45.30665754340589046478271484375" lon="-70.81255772151052951812744140625">
        <ele>877.4000244140625</ele>
        <time>2026-08-21T13:08:38.000Z</time>
        <extensions>
          <ns3:TrackPointExtension>
            <ns3:hr>130</ns3:hr>
            <ns3:cad>0</ns3:cad>
          </ns3:TrackPointExtension>
        </extensions>
      </trkpt>
      <trkpt lat="45.3066490776836872100830078125" lon="-70.81255956552922725677490234375">
        <ele>877.20001220703125</ele>
        <time>2026-08-21T13:08:39.000Z</time>
        <extensions>
          <ns3:TrackPointExtension>
            <ns3:hr>130</ns3:hr>
            <ns3:cad>0</ns3:cad>
          </ns3:TrackPointExtension>
        </extensions>
      </trkpt>
      <trkpt lat="45.30663910321891307830810546875" lon="-70.812557302415370941162109375">
        <ele>876.79998779296875</ele>
        <time>2026-08-21T13:08:40.000Z</time>
        <extensions>
          <ns3:TrackPointExtension>
            <ns3:hr>130</ns3:hr>
            <ns3:cad>0</ns3:cad>
          </ns3:TrackPointExtension>
        </extensions>
      </trkpt>
      <trkpt lat="45.306631810963153839111328125" lon="-70.81255235709249973297119140625">
        <ele>876.5999755859375</ele>
        <time>2026-08-21T13:08:41.000Z</time>
        <extensions>
          <ns3:TrackPointExtension>
            <ns3:hr>129</ns3:hr>
            <ns3:cad>0</ns3:cad>
          </ns3:TrackPointExtension>
        </extensions>
      </trkpt>
      <trkpt lat="45.306622087955474853515625" lon="-70.8125527761876583099365234375">
        <ele>876.4000244140625</ele>
        <time>2026-08-21T13:08:42.000Z</time>
        <extensions>
          <ns3:TrackPointExtension>
            <ns3:hr>128</ns3:hr>
            <ns3:cad>0</ns3:cad>
          </ns3:TrackPointExtension>
        </extensions>
      </trkpt>
      <trkpt lat="45.306615047156810760498046875" lon="-70.8125536143779754638671875">
        <ele>876.20001220703125</ele>
        <time>2026-08-21T13:08:43.000Z</time>
        <extensions>
          <ns3:TrackPointExtension>
            <ns3:hr>127</ns3:hr>
            <ns3:cad>0</ns3:cad>
          </ns3:TrackPointExtension>
        </extensions>
      </trkpt>
      <trkpt lat="45.3066075034439563751220703125" lon="-70.81254665739834308624267578125">
        <ele>875.79998779296875</ele>
        <time>2026-08-21T13:08:44.000Z</time>
        <extensions>
          <ns3:TrackPointExtension>
            <ns3:hr>126</ns3:hr>
            <ns3:cad>0</ns3:cad>
          </ns3:TrackPointExtension>
        </extensions>
      </trkpt>
      <trkpt lat="45.30659451149404048919677734375" lon="-70.812534503638744354248046875">
        <ele>875.5999755859375</ele>
        <time>2026-08-21T13:08:45.000Z</time>
        <extensions>
          <ns3:TrackPointExtension>
            <ns3:hr>127</ns3:hr>
            <ns3:cad>0</ns3:cad>
          </ns3:TrackPointExtension>
        </extensions>
      </trkpt>
      <trkpt lat="45.30658529140055179595947265625" lon="-70.81252939067780971527099609375">
        <ele>875.20001220703125</ele>
        <time>2026-08-21T13:08:46.000Z</time>
        <extensions>
          <ns3:TrackPointExtension>
            <ns3:hr>127</ns3:hr>
            <ns3:cad>0</ns3:cad>
          </ns3:TrackPointExtension>
        </extensions>
      </trkpt>
      <trkpt lat="45.3065743111073970794677734375" lon="-70.81251782365143299102783203125">
        <ele>874.79998779296875</ele>
        <time>2026-08-21T13:08:47.000Z</time>
        <extensions>
          <ns3:TrackPointExtension>
            <ns3:hr>128</ns3:hr>
            <ns3:cad>0</ns3:cad>
          </ns3:TrackPointExtension>
        </extensions>
      </trkpt>
      <trkpt lat="45.306563414633274078369140625" lon="-70.81251413561403751373291015625">
        <ele>874.4000244140625</ele>
        <time>2026-08-21T13:08:48.000Z</time>
        <extensions>
          <ns3:TrackPointExtension>
            <ns3:hr>128</ns3:hr>
            <ns3:cad>0</ns3:cad>
          </ns3:TrackPointExtension>
        </extensions>
      </trkpt>
      <trkpt lat="45.306550674140453338623046875" lon="-70.81251296214759349822998046875">
        <ele>874</ele>
        <time>2026-08-21T13:08:49.000Z</time>
        <extensions>
          <ns3:TrackPointExtension>
            <ns3:hr>128</ns3:hr>
            <ns3:cad>0</ns3:cad>
          </ns3:TrackPointExtension>
        </extensions>
      </trkpt>
      <trkpt lat="45.3065431304275989532470703125" lon="-70.81250474788248538970947265625">
        <ele>873.5999755859375</ele>
        <time>2026-08-21T13:08:50.000Z</time>
        <extensions>
          <ns3:TrackPointExtension>
            <ns3:hr>128</ns3:hr>
            <ns3:cad>0</ns3:cad>
          </ns3:TrackPointExtension>
        </extensions>
      </trkpt>
      <trkpt lat="45.3065397776663303375244140625" lon="-70.81249737180769443511962890625">
        <ele>873.4000244140625</ele>
        <time>2026-08-21T13:08:51.000Z</time>
        <extensions>
          <ns3:TrackPointExtension>
            <ns3:hr>127</ns3:hr>
            <ns3:cad>0</ns3:cad>
          </ns3:TrackPointExtension>
        </extensions>
      </trkpt>
      <trkpt lat="45.306535251438617706298828125" lon="-70.81248614005744457244873046875">
        <ele>873.20001220703125</ele>
        <time>2026-08-21T13:08:52.000Z</time>
        <extensions>
          <ns3:TrackPointExtension>
            <ns3:hr>127</ns3:hr>
            <ns3:cad>0</ns3:cad>
          </ns3:TrackPointExtension>
        </extensions>
      </trkpt>
      <trkpt lat="45.30652888119220733642578125" lon="-70.8124743215739727020263671875">
        <ele>872.79998779296875</ele>
        <time>2026-08-21T13:08:53.000Z</time>
        <extensions>
          <ns3:TrackPointExtension>
            <ns3:hr>126</ns3:hr>
            <ns3:cad>0</ns3:cad>
          </ns3:TrackPointExtension>
        </extensions>
      </trkpt>
      <trkpt lat="45.30652527697384357452392578125" lon="-70.812458731234073638916015625">
        <ele>872.5999755859375</ele>
        <time>2026-08-21T13:08:54.000Z</time>
        <extensions>
          <ns3:TrackPointExtension>
            <ns3:hr>126</ns3:hr>
            <ns3:cad>0</ns3:cad>
          </ns3:TrackPointExtension>
        </extensions>
      </trkpt>
      <trkpt lat="45.306519828736782073974609375" lon="-70.81244657747447490692138671875">
        <ele>872.4000244140625</ele>
        <time>2026-08-21T13:08:55.000Z</time>
        <extensions>
          <ns3:TrackPointExtension>
            <ns3:hr>126</ns3:hr>
            <ns3:cad>0</ns3:cad>
          </ns3:TrackPointExtension>
        </extensions>
      </trkpt>
      <trkpt lat="45.30650817789137363433837890625" lon="-70.8124324120581150054931640625">
        <ele>872</ele>
        <time>2026-08-21T13:08:56.000Z</time>
        <extensions>
          <ns3:TrackPointExtension>
            <ns3:hr>126</ns3:hr>
            <ns3:cad>0</ns3:cad>
          </ns3:TrackPointExtension>
        </extensions>
      </trkpt>
      <trkpt lat="45.30649845488369464874267578125" lon="-70.8124290592968463897705078125">
        <ele>871.79998779296875</ele>
        <time>2026-08-21T13:08:57.000Z</time>
        <extensions>
          <ns3:TrackPointExtension>
            <ns3:hr>126</ns3:hr>
            <ns3:cad>0</ns3:cad>
          </ns3:TrackPointExtension>
        </extensions>
      </trkpt>
      <trkpt lat="45.3064884804189205169677734375" lon="-70.81241874955594539642333984375">
        <ele>871.5999755859375</ele>
        <time>2026-08-21T13:08:58.000Z</time>
        <extensions>
          <ns3:TrackPointExtension>
            <ns3:hr>126</ns3:hr>
            <ns3:cad>0</ns3:cad>
          </ns3:TrackPointExtension>
        </extensions>
      </trkpt>
      <trkpt lat="45.30647599138319492340087890625" lon="-70.81240450032055377960205078125">
        <ele>871.5999755859375</ele>
        <time>2026-08-21T13:08:59.000Z</time>
        <extensions>
          <ns3:TrackPointExtension>
            <ns3:hr>126</ns3:hr>
            <ns3:cad>0</ns3:cad>
          </ns3:TrackPointExtension>
        </extensions>
      </trkpt>
      <trkpt lat="45.30646325089037418365478515625" lon="-70.8123955316841602325439453125">
        <ele>871.20001220703125</ele>
        <time>2026-08-21T13:09:00.000Z</time>
        <extensions>
          <ns3:TrackPointExtension>
            <ns3:hr>126</ns3:hr>
            <ns3:cad>0</ns3:cad>
          </ns3:TrackPointExtension>
        </extensions>
      </trkpt>
      <trkpt lat="45.30645235441625118255615234375" lon="-70.8123898319900035858154296875">
        <ele>871.20001220703125</ele>
        <time>2026-08-21T13:09:01.000Z</time>
        <extensions>
          <ns3:TrackPointExtension>
            <ns3:hr>126</ns3:hr>
            <ns3:cad>0</ns3:cad>
          </ns3:TrackPointExtension>
        </extensions>
      </trkpt>
      <trkpt lat="45.3064422123134136199951171875" lon="-70.81237348727881908416748046875">
        <ele>871</ele>
        <time>2026-08-21T13:09:02.000Z</time>
        <extensions>
          <ns3:TrackPointExtension>
            <ns3:hr>125</ns3:hr>
            <ns3:cad>0</ns3:cad>
          </ns3:TrackPointExtension>
        </extensions>
      </trkpt>
      <trkpt lat="45.30643156729638576507568359375" lon="-70.81236057914793491363525390625">
        <ele>870.79998779296875</ele>
        <time>2026-08-21T13:09:03.000Z</time>
        <extensions>
          <ns3:TrackPointExtension>
            <ns3:hr>124</ns3:hr>
            <ns3:cad>0</ns3:cad>
          </ns3:TrackPointExtension>
        </extensions>
      </trkpt>
      <trkpt lat="45.306422598659992218017578125" lon="-70.81234498880803585052490234375">
        <ele>870.79998779296875</ele>
        <time>2026-08-21T13:09:04.000Z</time>
        <extensions>
          <ns3:TrackPointExtension>
            <ns3:hr>123</ns3:hr>
            <ns3:cad>0</ns3:cad>
          </ns3:TrackPointExtension>
        </extensions>
      </trkpt>
      <trkpt lat="45.30640960671007633209228515625" lon="-70.81233141012489795684814453125">
        <ele>871</ele>
        <time>2026-08-21T13:09:05.000Z</time>
        <extensions>
          <ns3:TrackPointExtension>
            <ns3:hr>122</ns3:hr>
            <ns3:cad>0</ns3:cad>
          </ns3:TrackPointExtension>
        </extensions>
      </trkpt>
      <trkpt lat="45.306393764913082122802734375" lon="-70.8123274706304073333740234375">
        <ele>871</ele>
        <time>2026-08-21T13:09:06.000Z</time>
        <extensions>
          <ns3:TrackPointExtension>
            <ns3:hr>122</ns3:hr>
            <ns3:cad>0</ns3:cad>
          </ns3:TrackPointExtension>
        </extensions>
      </trkpt>
      <trkpt lat="45.30637800693511962890625" lon="-70.81231833435595035552978515625">
        <ele>871.20001220703125</ele>
        <time>2026-08-21T13:09:07.000Z</time>
        <extensions>
          <ns3:TrackPointExtension>
            <ns3:hr>122</ns3:hr>
            <ns3:cad>0</ns3:cad>
          </ns3:TrackPointExtension>
        </extensions>
      </trkpt>
      <trkpt lat="45.3063701279461383819580078125" lon="-70.81230810843408107757568359375">
        <ele>871.20001220703125</ele>
        <time>2026-08-21T13:09:08.000Z</time>
        <extensions>
          <ns3:TrackPointExtension>
            <ns3:hr>123</ns3:hr>
            <ns3:cad>0</ns3:cad>
          </ns3:TrackPointExtension>
        </extensions>
      </trkpt>
      <trkpt lat="45.30636836774647235870361328125" lon="-70.81230106763541698455810546875">
        <ele>871.4000244140625</ele>
        <time>2026-08-21T13:09:09.000Z</time>
        <extensions>
          <ns3:TrackPointExtension>
            <ns3:hr>123</ns3:hr>
            <ns3:cad>0</ns3:cad>
          </ns3:TrackPointExtension>
        </extensions>
      </trkpt>
      <trkpt lat="45.30636233277618885040283203125" lon="-70.812289081513881683349609375">
        <ele>871.79998779296875</ele>
        <time>2026-08-21T13:09:10.000Z</time>
        <extensions>
          <ns3:TrackPointExtension>
            <ns3:hr>123</ns3:hr>
            <ns3:cad>0</ns3:cad>
          </ns3:TrackPointExtension>
        </extensions>
      </trkpt>
      <trkpt lat="45.306359231472015380859375" lon="-70.8122812025249004364013671875">
        <ele>872</ele>
        <time>2026-08-21T13:09:11.000Z</time>
        <extensions>
          <ns3:TrackPointExtension>
            <ns3:hr>123</ns3:hr>
            <ns3:cad>0</ns3:cad>
          </ns3:TrackPointExtension>
        </extensions>
      </trkpt>
      <trkpt lat="45.3063543699681758880615234375" lon="-70.81226871348917484283447265625">
        <ele>872.4000244140625</ele>
        <time>2026-08-21T13:09:12.000Z</time>
        <extensions>
          <ns3:TrackPointExtension>
            <ns3:hr>123</ns3:hr>
            <ns3:cad>0</ns3:cad>
          </ns3:TrackPointExtension>
        </extensions>
      </trkpt>
      <trkpt lat="45.30634582042694091796875" lon="-70.8122558891773223876953125">
        <ele>872.5999755859375</ele>
        <time>2026-08-21T13:09:13.000Z</time>
        <extensions>
          <ns3:TrackPointExtension>
            <ns3:hr>123</ns3:hr>
            <ns3:cad>0</ns3:cad>
          </ns3:TrackPointExtension>
        </extensions>
      </trkpt>
      <trkpt lat="45.3063369356095790863037109375" lon="-70.8122473396360874176025390625">
        <ele>873</ele>
        <time>2026-08-21T13:09:14.000Z</time>
        <extensions>
          <ns3:TrackPointExtension>
            <ns3:hr>122</ns3:hr>
            <ns3:cad>0</ns3:cad>
          </ns3:TrackPointExtension>
        </extensions>
      </trkpt>
      <trkpt lat="45.30632846988737583160400390625" lon="-70.81223736517131328582763671875">
        <ele>873.20001220703125</ele>
        <time>2026-08-21T13:09:15.000Z</time>
        <extensions>
          <ns3:TrackPointExtension>
            <ns3:hr>122</ns3:hr>
            <ns3:cad>0</ns3:cad>
          </ns3:TrackPointExtension>
        </extensions>
      </trkpt>
      <trkpt lat="45.30631388537585735321044921875" lon="-70.81223376095294952392578125">
        <ele>873.4000244140625</ele>
        <time>2026-08-21T13:09:16.000Z</time>
        <extensions>
          <ns3:TrackPointExtension>
            <ns3:hr>122</ns3:hr>
            <ns3:cad>0</ns3:cad>
          </ns3:TrackPointExtension>
        </extensions>
      </trkpt>
      <trkpt lat="45.30629879795014858245849609375" lon="-70.81223015673458576202392578125">
        <ele>873.5999755859375</ele>
        <time>2026-08-21T13:09:17.000Z</time>
        <extensions>
          <ns3:TrackPointExtension>
            <ns3:hr>123</ns3:hr>
            <ns3:cad>0</ns3:cad>
          </ns3:TrackPointExtension>
        </extensions>
      </trkpt>
      <trkpt lat="45.30628773383796215057373046875" lon="-70.81222563050687313079833984375">
        <ele>873.79998779296875</ele>
        <time>2026-08-21T13:09:18.000Z</time>
        <extensions>
          <ns3:TrackPointExtension>
            <ns3:hr>123</ns3:hr>
            <ns3:cad>0</ns3:cad>
          </ns3:TrackPointExtension>
        </extensions>
      </trkpt>
      <trkpt lat="45.30628144741058349609375" lon="-70.8122156560420989990234375">
        <ele>874</ele>
        <time>2026-08-21T13:09:19.000Z</time>
        <extensions>
          <ns3:TrackPointExtension>
            <ns3:hr>124</ns3:hr>
            <ns3:cad>0</ns3:cad>
          </ns3:TrackPointExtension>
        </extensions>
      </trkpt>
      <trkpt lat="45.30627935193479061126708984375" lon="-70.8122124709188938140869140625">
        <ele>874.20001220703125</ele>
        <time>2026-08-21T13:09:20.000Z</time>
        <extensions>
          <ns3:TrackPointExtension>
            <ns3:hr>124</ns3:hr>
            <ns3:cad>0</ns3:cad>
          </ns3:TrackPointExtension>
        </extensions>
      </trkpt>
      <trkpt lat="45.30627700500190258026123046875" lon="-70.81219713203608989715576171875">
        <ele>874.20001220703125</ele>
        <time>2026-08-21T13:09:21.000Z</time>
        <extensions>
          <ns3:TrackPointExtension>
            <ns3:hr>126</ns3:hr>
            <ns3:cad>0</ns3:cad>
          </ns3:TrackPointExtension>
        </extensions>
      </trkpt>
      <trkpt lat="45.3062720596790313720703125" lon="-70.812179110944271087646484375">
        <ele>874.20001220703125</ele>
        <time>2026-08-21T13:09:22.000Z</time>
        <extensions>
          <ns3:TrackPointExtension>
            <ns3:hr>126</ns3:hr>
            <ns3:cad>0</ns3:cad>
          </ns3:TrackPointExtension>
        </extensions>
      </trkpt>
      <trkpt lat="45.3062625043094158172607421875" lon="-70.81215865910053253173828125">
        <ele>874.20001220703125</ele>
        <time>2026-08-21T13:09:23.000Z</time>
        <extensions>
          <ns3:TrackPointExtension>
            <ns3:hr>126</ns3:hr>
            <ns3:cad>0</ns3:cad>
          </ns3:TrackPointExtension>
        </extensions>
      </trkpt>
      <trkpt lat="45.3062532842159271240234375" lon="-70.81214332021772861480712890625">
        <ele>874</ele>
        <time>2026-08-21T13:09:24.000Z</time>
        <extensions>
          <ns3:TrackPointExtension>
            <ns3:hr>128</ns3:hr>
            <ns3:cad>0</ns3:cad>
          </ns3:TrackPointExtension>
        </extensions>
      </trkpt>
      <trkpt lat="45.30624884180724620819091796875" lon="-70.812133848667144775390625">
        <ele>873.79998779296875</ele>
        <time>2026-08-21T13:09:25.000Z</time>
        <extensions>
          <ns3:TrackPointExtension>
            <ns3:hr>129</ns3:hr>
            <ns3:cad>0</ns3:cad>
          </ns3:TrackPointExtension>
        </extensions>
      </trkpt>
      <trkpt lat="45.30624129809439182281494140625" lon="-70.81211683340370655059814453125">
        <ele>873.5999755859375</ele>
        <time>2026-08-21T13:09:26.000Z</time>
        <extensions>
          <ns3:TrackPointExtension>
            <ns3:hr>130</ns3:hr>
            <ns3:cad>0</ns3:cad>
          </ns3:TrackPointExtension>
        </extensions>
      </trkpt>
      <trkpt lat="45.30623643659055233001708984375" lon="-70.81210342235863208770751953125">
        <ele>873.4000244140625</ele>
        <time>2026-08-21T13:09:27.000Z</time>
        <extensions>
          <ns3:TrackPointExtension>
            <ns3:hr>131</ns3:hr>
            <ns3:cad>0</ns3:cad>
          </ns3:TrackPointExtension>
        </extensions>
      </trkpt>
      <trkpt lat="45.306226797401905059814453125" lon="-70.81208984367549419403076171875">
        <ele>873.4000244140625</ele>
        <time>2026-08-21T13:09:28.000Z</time>
        <extensions>
          <ns3:TrackPointExtension>
            <ns3:hr>132</ns3:hr>
            <ns3:cad>0</ns3:cad>
          </ns3:TrackPointExtension>
        </extensions>
      </trkpt>
      <trkpt lat="45.30621883459389209747314453125" lon="-70.8120820485055446624755859375">
        <ele>873.4000244140625</ele>
        <time>2026-08-21T13:09:29.000Z</time>
        <extensions>
          <ns3:TrackPointExtension>
            <ns3:hr>133</ns3:hr>
            <ns3:cad>0</ns3:cad>
          </ns3:TrackPointExtension>
        </extensions>
      </trkpt>
      <trkpt lat="45.30621103942394256591796875" lon="-70.81207492388784885406494140625">
        <ele>873.4000244140625</ele>
        <time>2026-08-21T13:09:30.000Z</time>
        <extensions>
          <ns3:TrackPointExtension>
            <ns3:hr>133</ns3:hr>
            <ns3:cad>0</ns3:cad>
          </ns3:TrackPointExtension>
        </extensions>
      </trkpt>
      <trkpt lat="45.30620701611042022705078125" lon="-70.8120672963559627532958984375">
        <ele>873.4000244140625</ele>
        <time>2026-08-21T13:09:31.000Z</time>
        <extensions>
          <ns3:TrackPointExtension>
            <ns3:hr>134</ns3:hr>
            <ns3:cad>0</ns3:cad>
          </ns3:TrackPointExtension>
        </extensions>
      </trkpt>
      <trkpt lat="45.3062050044536590576171875" lon="-70.81206503324210643768310546875">
        <ele>873.20001220703125</ele>
        <time>2026-08-21T13:09:32.000Z</time>
        <extensions>
          <ns3:TrackPointExtension>
            <ns3:hr>134</ns3:hr>
            <ns3:cad>0</ns3:cad>
          </ns3:TrackPointExtension>
        </extensions>
      </trkpt>
      <trkpt lat="45.30620165169239044189453125" lon="-70.812060423195362091064453125">
        <ele>873</ele>
        <time>2026-08-21T13:09:33.000Z</time>
        <extensions>
          <ns3:TrackPointExtension>
            <ns3:hr>134</ns3:hr>
            <ns3:cad>0</ns3:cad>
          </ns3:TrackPointExtension>
        </extensions>
      </trkpt>
      <trkpt lat="45.3062023222446441650390625" lon="-70.81205531023442745208740234375">
        <ele>872.5999755859375</ele>
        <time>2026-08-21T13:09:34.000Z</time>
        <extensions>
          <ns3:TrackPointExtension>
            <ns3:hr>134</ns3:hr>
            <ns3:cad>0</ns3:cad>
          </ns3:TrackPointExtension>
        </extensions>
      </trkpt>
      <trkpt lat="45.306195281445980072021484375" lon="-70.8120461739599704742431640625">
        <ele>872.20001220703125</ele>
        <time>2026-08-21T13:09:35.000Z</time>
        <extensions>
          <ns3:TrackPointExtension>
            <ns3:hr>134</ns3:hr>
            <ns3:cad>0</ns3:cad>
          </ns3:TrackPointExtension>
        </extensions>
      </trkpt>
      <trkpt lat="45.30618555843830108642578125" lon="-70.8120441623032093048095703125">
        <ele>871.79998779296875</ele>
        <time>2026-08-21T13:09:36.000Z</time>
        <extensions>
          <ns3:TrackPointExtension>
            <ns3:hr>135</ns3:hr>
            <ns3:cad>0</ns3:cad>
          </ns3:TrackPointExtension>
        </extensions>
      </trkpt>
      <trkpt lat="45.30617751181125640869140625" lon="-70.8120421506464481353759765625">
        <ele>871.5999755859375</ele>
        <time>2026-08-21T13:09:37.000Z</time>
        <extensions>
          <ns3:TrackPointExtension>
            <ns3:hr>134</ns3:hr>
            <ns3:cad>0</ns3:cad>
          </ns3:TrackPointExtension>
        </extensions>
      </trkpt>
      <trkpt lat="45.30617340467870235443115234375" lon="-70.81203854642808437347412109375">
        <ele>871.20001220703125</ele>
        <time>2026-08-21T13:09:38.000Z</time>
        <extensions>
          <ns3:TrackPointExtension>
            <ns3:hr>134</ns3:hr>
            <ns3:cad>0</ns3:cad>
          </ns3:TrackPointExtension>
        </extensions>
      </trkpt>
      <trkpt lat="45.3061679564416408538818359375" lon="-70.812034271657466888427734375">
        <ele>870.79998779296875</ele>
        <time>2026-08-21T13:09:39.000Z</time>
        <extensions>
          <ns3:TrackPointExtension>
            <ns3:hr>134</ns3:hr>
            <ns3:cad>0</ns3:cad>
          </ns3:TrackPointExtension>
        </extensions>
      </trkpt>
      <trkpt lat="45.30615764670073986053466796875" lon="-70.81202614121139049530029296875">
        <ele>870.4000244140625</ele>
        <time>2026-08-21T13:09:40.000Z</time>
        <extensions>
          <ns3:TrackPointExtension>
            <ns3:hr>134</ns3:hr>
            <ns3:cad>0</ns3:cad>
          </ns3:TrackPointExtension>
        </extensions>
      </trkpt>
      <trkpt lat="45.30614188872277736663818359375" lon="-70.81202446483075618743896484375">
        <ele>870.20001220703125</ele>
        <time>2026-08-21T13:09:41.000Z</time>
        <extensions>
          <ns3:TrackPointExtension>
            <ns3:hr>134</ns3:hr>
            <ns3:cad>0</ns3:cad>
          </ns3:TrackPointExtension>
        </extensions>
      </trkpt>
      <trkpt lat="45.3061374463140964508056640625" lon="-70.81202245317399501800537109375">
        <ele>869.79998779296875</ele>
        <time>2026-08-21T13:09:42.000Z</time>
        <extensions>
          <ns3:TrackPointExtension>
            <ns3:hr>134</ns3:hr>
            <ns3:cad>0</ns3:cad>
          </ns3:TrackPointExtension>
        </extensions>
      </trkpt>
      <trkpt lat="45.306130237877368927001953125" lon="-70.81201055087149143218994140625">
        <ele>869.4000244140625</ele>
        <time>2026-08-21T13:09:43.000Z</time>
        <extensions>
          <ns3:TrackPointExtension>
            <ns3:hr>135</ns3:hr>
            <ns3:cad>0</ns3:cad>
          </ns3:TrackPointExtension>
        </extensions>
      </trkpt>
      <trkpt lat="45.30612294562160968780517578125" lon="-70.8119992353022098541259765625">
        <ele>868.79998779296875</ele>
        <time>2026-08-21T13:09:44.000Z</time>
        <extensions>
          <ns3:TrackPointExtension>
            <ns3:hr>135</ns3:hr>
            <ns3:cad>0</ns3:cad>
          </ns3:TrackPointExtension>
        </extensions>
      </trkpt>
      <trkpt lat="45.306112132966518402099609375" lon="-70.81199462525546550750732421875">
        <ele>868.4000244140625</ele>
        <time>2026-08-21T13:09:45.000Z</time>
        <extensions>
          <ns3:TrackPointExtension>
            <ns3:hr>136</ns3:hr>
            <ns3:cad>0</ns3:cad>
          </ns3:TrackPointExtension>
        </extensions>
      </trkpt>
      <trkpt lat="45.30610299669206142425537109375" lon="-70.8119965530931949615478515625">
        <ele>868</ele>
        <time>2026-08-21T13:09:46.000Z</time>
        <extensions>
          <ns3:TrackPointExtension>
            <ns3:hr>136</ns3:hr>
            <ns3:cad>0</ns3:cad>
          </ns3:TrackPointExtension>
        </extensions>
      </trkpt>
      <trkpt lat="45.3060898371040821075439453125" lon="-70.81199781037867069244384765625">
        <ele>867.5999755859375</ele>
        <time>2026-08-21T13:09:47.000Z</time>
        <extensions>
          <ns3:TrackPointExtension>
            <ns3:hr>136</ns3:hr>
            <ns3:cad>0</ns3:cad>
          </ns3:TrackPointExtension>
        </extensions>
      </trkpt>
      <trkpt lat="45.3060814552009105682373046875" lon="-70.81199563108384609222412109375">
        <ele>867.20001220703125</ele>
        <time>2026-08-21T13:09:48.000Z</time>
        <extensions>
          <ns3:TrackPointExtension>
            <ns3:hr>136</ns3:hr>
            <ns3:cad>0</ns3:cad>
          </ns3:TrackPointExtension>
        </extensions>
      </trkpt>
      <trkpt lat="45.30607148073613643646240234375" lon="-70.8120037615299224853515625">
        <ele>866.79998779296875</ele>
        <time>2026-08-21T13:09:49.000Z</time>
        <extensions>
          <ns3:TrackPointExtension>
            <ns3:hr>136</ns3:hr>
            <ns3:cad>0</ns3:cad>
          </ns3:TrackPointExtension>
        </extensions>
      </trkpt>
      <trkpt lat="45.3060646913945674896240234375" lon="-70.8119983971118927001953125">
        <ele>866.5999755859375</ele>
        <time>2026-08-21T13:09:50.000Z</time>
        <extensions>
          <ns3:TrackPointExtension>
            <ns3:hr>136</ns3:hr>
            <ns3:cad>0</ns3:cad>
          </ns3:TrackPointExtension>
        </extensions>
      </trkpt>
      <trkpt lat="45.30605320818722248077392578125" lon="-70.81199546344578266143798828125">
        <ele>866</ele>
        <time>2026-08-21T13:09:51.000Z</time>
        <extensions>
          <ns3:TrackPointExtension>
            <ns3:hr>136</ns3:hr>
            <ns3:cad>0</ns3:cad>
          </ns3:TrackPointExtension>
        </extensions>
      </trkpt>
      <trkpt lat="45.30604465864598751068115234375" lon="-70.81198607571423053741455078125">
        <ele>865.5999755859375</ele>
        <time>2026-08-21T13:09:52.000Z</time>
        <extensions>
          <ns3:TrackPointExtension>
            <ns3:hr>136</ns3:hr>
            <ns3:cad>0</ns3:cad>
          </ns3:TrackPointExtension>
        </extensions>
      </trkpt>
      <trkpt lat="45.30602999031543731689453125" lon="-70.81198758445680141448974609375">
        <ele>865.20001220703125</ele>
        <time>2026-08-21T13:09:53.000Z</time>
        <extensions>
          <ns3:TrackPointExtension>
            <ns3:hr>136</ns3:hr>
            <ns3:cad>0</ns3:cad>
          </ns3:TrackPointExtension>
        </extensions>
      </trkpt>
      <trkpt lat="45.3060172498226165771484375" lon="-70.811996050179004669189453125">
        <ele>864.5999755859375</ele>
        <time>2026-08-21T13:09:54.000Z</time>
        <extensions>
          <ns3:TrackPointExtension>
            <ns3:hr>136</ns3:hr>
            <ns3:cad>0</ns3:cad>
          </ns3:TrackPointExtension>
        </extensions>
      </trkpt>
      <trkpt lat="45.3060016594827175140380859375" lon="-70.8119972236454486846923828125">
        <ele>864.20001220703125</ele>
        <time>2026-08-21T13:09:55.000Z</time>
        <extensions>
          <ns3:TrackPointExtension>
            <ns3:hr>136</ns3:hr>
            <ns3:cad>0</ns3:cad>
          </ns3:TrackPointExtension>
        </extensions>
      </trkpt>
      <trkpt lat="45.30598900280892848968505859375" lon="-70.81199278123676776885986328125">
        <ele>864</ele>
        <time>2026-08-21T13:09:56.000Z</time>
        <extensions>
          <ns3:TrackPointExtension>
            <ns3:hr>135</ns3:hr>
            <ns3:cad>79</ns3:cad>
          </ns3:TrackPointExtension>
        </extensions>
      </trkpt>
      <trkpt lat="45.30597441829741001129150390625" lon="-70.81198632717132568359375">
        <ele>863.79998779296875</ele>
        <time>2026-08-21T13:09:57.000Z</time>
        <extensions>
          <ns3:TrackPointExtension>
            <ns3:hr>135</ns3:hr>
            <ns3:cad>79</ns3:cad>
          </ns3:TrackPointExtension>
        </extensions>
      </trkpt>
      <trkpt lat="45.305960588157176971435546875" lon="-70.81198238767683506011962890625">
        <ele>863.5999755859375</ele>
        <time>2026-08-21T13:09:58.000Z</time>
        <extensions>
          <ns3:TrackPointExtension>
            <ns3:hr>134</ns3:hr>
            <ns3:cad>79</ns3:cad>
          </ns3:TrackPointExtension>
        </extensions>
      </trkpt>
      <trkpt lat="45.30594625510275363922119140625" lon="-70.8119797892868518829345703125">
        <ele>863.5999755859375</ele>
        <time>2026-08-21T13:09:59.000Z</time>
        <extensions>
          <ns3:TrackPointExtension>
            <ns3:hr>131</ns3:hr>
            <ns3:cad>79</ns3:cad>
          </ns3:TrackPointExtension>
        </extensions>
      </trkpt>
      <trkpt lat="45.305938459932804107666015625" lon="-70.81196662969887256622314453125">
        <ele>863.5999755859375</ele>
        <time>2026-08-21T13:10:00.000Z</time>
        <extensions>
          <ns3:TrackPointExtension>
            <ns3:hr>129</ns3:hr>
            <ns3:cad>0</ns3:cad>
          </ns3:TrackPointExtension>
        </extensions>
      </trkpt>
      <trkpt lat="45.30593619681894779205322265625" lon="-70.8119608461856842041015625">
        <ele>863.79998779296875</ele>
        <time>2026-08-21T13:10:01.000Z</time>
        <extensions>
          <ns3:TrackPointExtension>
            <ns3:hr>130</ns3:hr>
            <ns3:cad>0</ns3:cad>
          </ns3:TrackPointExtension>
        </extensions>
      </trkpt>
      <trkpt lat="45.3059327602386474609375" lon="-70.81195673905313014984130859375">
        <ele>864</ele>
        <time>2026-08-21T13:10:02.000Z</time>
        <extensions>
          <ns3:TrackPointExtension>
            <ns3:hr>130</ns3:hr>
            <ns3:cad>0</ns3:cad>
          </ns3:TrackPointExtension>
        </extensions>
      </trkpt>
      <trkpt lat="45.30592806637287139892578125" lon="-70.81195707432925701141357421875">
        <ele>864.4000244140625</ele>
        <time>2026-08-21T13:10:03.000Z</time>
        <extensions>
          <ns3:TrackPointExtension>
            <ns3:hr>129</ns3:hr>
            <ns3:cad>0</ns3:cad>
          </ns3:TrackPointExtension>
        </extensions>
      </trkpt>
      <trkpt lat="45.30592664144933223724365234375" lon="-70.81195405684411525726318359375">
        <ele>864.5999755859375</ele>
        <time>2026-08-21T13:10:04.000Z</time>
        <extensions>
          <ns3:TrackPointExtension>
            <ns3:hr>128</ns3:hr>
            <ns3:cad>0</ns3:cad>
          </ns3:TrackPointExtension>
        </extensions>
      </trkpt>
      <trkpt lat="45.30592429451644420623779296875" lon="-70.81194433383643627166748046875">
        <ele>865</ele>
        <time>2026-08-21T13:10:05.000Z</time>
        <extensions>
          <ns3:TrackPointExtension>
            <ns3:hr>128</ns3:hr>
            <ns3:cad>0</ns3:cad>
          </ns3:TrackPointExtension>
        </extensions>
      </trkpt>
      <trkpt lat="45.3059141524136066436767578125" lon="-70.81194383092224597930908203125">
        <ele>865.4000244140625</ele>
        <time>2026-08-21T13:10:06.000Z</time>
        <extensions>
          <ns3:TrackPointExtension>
            <ns3:hr>128</ns3:hr>
            <ns3:cad>0</ns3:cad>
          </ns3:TrackPointExtension>
        </extensions>
      </trkpt>
      <trkpt lat="45.305904932320117950439453125" lon="-70.81194533966481685638427734375">
        <ele>865.5999755859375</ele>
        <time>2026-08-21T13:10:07.000Z</time>
        <extensions>
          <ns3:TrackPointExtension>
            <ns3:hr>128</ns3:hr>
            <ns3:cad>0</ns3:cad>
          </ns3:TrackPointExtension>
        </extensions>
      </trkpt>
      <trkpt lat="45.3058990649878978729248046875" lon="-70.811941064894199371337890625">
        <ele>866</ele>
        <time>2026-08-21T13:10:08.000Z</time>
        <extensions>
          <ns3:TrackPointExtension>
            <ns3:hr>127</ns3:hr>
            <ns3:cad>0</ns3:cad>
          </ns3:TrackPointExtension>
        </extensions>
      </trkpt>
      <trkpt lat="45.30589185655117034912109375" lon="-70.8119298331439495086669921875">
        <ele>866.4000244140625</ele>
        <time>2026-08-21T13:10:09.000Z</time>
        <extensions>
          <ns3:TrackPointExtension>
            <ns3:hr>127</ns3:hr>
            <ns3:cad>0</ns3:cad>
          </ns3:TrackPointExtension>
        </extensions>
      </trkpt>
      <trkpt lat="45.30588070861995220184326171875" lon="-70.8119234628975391387939453125">
        <ele>866.79998779296875</ele>
        <time>2026-08-21T13:10:10.000Z</time>
        <extensions>
          <ns3:TrackPointExtension>
            <ns3:hr>126</ns3:hr>
            <ns3:cad>0</ns3:cad>
          </ns3:TrackPointExtension>
        </extensions>
      </trkpt>
      <trkpt lat="45.3058755956590175628662109375" lon="-70.8119184337556362152099609375">
        <ele>867</ele>
        <time>2026-08-21T13:10:11.000Z</time>
        <extensions>
          <ns3:TrackPointExtension>
            <ns3:hr>126</ns3:hr>
            <ns3:cad>0</ns3:cad>
          </ns3:TrackPointExtension>
        </extensions>
      </trkpt>
      <trkpt lat="45.30587400309741497039794921875" lon="-70.8119107224047183990478515625">
        <ele>867.4000244140625</ele>
        <time>2026-08-21T13:10:12.000Z</time>
        <extensions>
          <ns3:TrackPointExtension>
            <ns3:hr>126</ns3:hr>
            <ns3:cad>0</ns3:cad>
          </ns3:TrackPointExtension>
        </extensions>
      </trkpt>
      <trkpt lat="45.30586813576519489288330078125" lon="-70.81189957447350025177001953125">
        <ele>867.5999755859375</ele>
        <time>2026-08-21T13:10:13.000Z</time>
        <extensions>
          <ns3:TrackPointExtension>
            <ns3:hr>127</ns3:hr>
            <ns3:cad>0</ns3:cad>
          </ns3:TrackPointExtension>
        </extensions>
      </trkpt>
      <trkpt lat="45.305859334766864776611328125" lon="-70.811883397400379180908203125">
        <ele>868</ele>
        <time>2026-08-21T13:10:14.000Z</time>
        <extensions>
          <ns3:TrackPointExtension>
            <ns3:hr>126</ns3:hr>
            <ns3:cad>0</ns3:cad>
          </ns3:TrackPointExtension>
        </extensions>
      </trkpt>
      <trkpt lat="45.30585388652980327606201171875" lon="-70.81187644042074680328369140625">
        <ele>868.20001220703125</ele>
        <time>2026-08-21T13:10:15.000Z</time>
        <extensions>
          <ns3:TrackPointExtension>
            <ns3:hr>127</ns3:hr>
            <ns3:cad>0</ns3:cad>
          </ns3:TrackPointExtension>
        </extensions>
      </trkpt>
      <trkpt lat="45.3058437444269657135009765625" lon="-70.8118627779185771942138671875">
        <ele>868.4000244140625</ele>
        <time>2026-08-21T13:10:16.000Z</time>
        <extensions>
          <ns3:TrackPointExtension>
            <ns3:hr>127</ns3:hr>
            <ns3:cad>0</ns3:cad>
          </ns3:TrackPointExtension>
        </extensions>
      </trkpt>
      <trkpt lat="45.30583578161895275115966796875" lon="-70.81185934133827686309814453125">
        <ele>868.79998779296875</ele>
        <time>2026-08-21T13:10:17.000Z</time>
        <extensions>
          <ns3:TrackPointExtension>
            <ns3:hr>129</ns3:hr>
            <ns3:cad>0</ns3:cad>
          </ns3:TrackPointExtension>
        </extensions>
      </trkpt>
      <trkpt lat="45.30582572333514690399169921875" lon="-70.81185313872992992401123046875">
        <ele>869</ele>
        <time>2026-08-21T13:10:18.000Z</time>
        <extensions>
          <ns3:TrackPointExtension>
            <ns3:hr>131</ns3:hr>
            <ns3:cad>0</ns3:cad>
          </ns3:TrackPointExtension>
        </extensions>
      </trkpt>
      <trkpt lat="45.30581382103264331817626953125" lon="-70.81185112707316875457763671875">
        <ele>869.20001220703125</ele>
        <time>2026-08-21T13:10:19.000Z</time>
        <extensions>
          <ns3:TrackPointExtension>
            <ns3:hr>132</ns3:hr>
            <ns3:cad>0</ns3:cad>
          </ns3:TrackPointExtension>
        </extensions>
      </trkpt>
      <trkpt lat="45.305805690586566925048828125" lon="-70.811851881444454193115234375">
        <ele>869.4000244140625</ele>
        <time>2026-08-21T13:10:20.000Z</time>
        <extensions>
          <ns3:TrackPointExtension>
            <ns3:hr>133</ns3:hr>
            <ns3:cad>0</ns3:cad>
          </ns3:TrackPointExtension>
        </extensions>
      </trkpt>
      <trkpt lat="45.30580024234950542449951171875" lon="-70.81185095943510532379150390625">
        <ele>869.79998779296875</ele>
        <time>2026-08-21T13:10:21.000Z</time>
        <extensions>
          <ns3:TrackPointExtension>
            <ns3:hr>134</ns3:hr>
            <ns3:cad>0</ns3:cad>
          </ns3:TrackPointExtension>
        </extensions>
      </trkpt>
      <trkpt lat="45.30578817240893840789794921875" lon="-70.8118554018437862396240234375">
        <ele>870</ele>
        <time>2026-08-21T13:10:22.000Z</time>
        <extensions>
          <ns3:TrackPointExtension>
            <ns3:hr>134</ns3:hr>
            <ns3:cad>0</ns3:cad>
          </ns3:TrackPointExtension>
        </extensions>
      </trkpt>
      <trkpt lat="45.3057726658880710601806640625" lon="-70.81185691058635711669921875">
        <ele>870.4000244140625</ele>
        <time>2026-08-21T13:10:23.000Z</time>
        <extensions>
          <ns3:TrackPointExtension>
            <ns3:hr>135</ns3:hr>
            <ns3:cad>0</ns3:cad>
          </ns3:TrackPointExtension>
        </extensions>
      </trkpt>
      <trkpt lat="45.305764786899089813232421875" lon="-70.811855234205722808837890625">
        <ele>870.79998779296875</ele>
        <time>2026-08-21T13:10:24.000Z</time>
        <extensions>
          <ns3:TrackPointExtension>
            <ns3:hr>136</ns3:hr>
            <ns3:cad>0</ns3:cad>
          </ns3:TrackPointExtension>
        </extensions>
      </trkpt>
      <trkpt lat="45.30575699172914028167724609375" lon="-70.81185196526348590850830078125">
        <ele>871</ele>
        <time>2026-08-21T13:10:25.000Z</time>
        <extensions>
          <ns3:TrackPointExtension>
            <ns3:hr>137</ns3:hr>
            <ns3:cad>0</ns3:cad>
          </ns3:TrackPointExtension>
        </extensions>
      </trkpt>
      <trkpt lat="45.3057478554546833038330078125" lon="-70.81184576265513896942138671875">
        <ele>871.20001220703125</ele>
        <time>2026-08-21T13:10:26.000Z</time>
        <extensions>
          <ns3:TrackPointExtension>
            <ns3:hr>138</ns3:hr>
            <ns3:cad>51</ns3:cad>
          </ns3:TrackPointExtension>
        </extensions>
      </trkpt>
      <trkpt lat="45.305736958980560302734375" lon="-70.81184081733226776123046875">
        <ele>871.4000244140625</ele>
        <time>2026-08-21T13:10:27.000Z</time>
        <extensions>
          <ns3:TrackPointExtension>
            <ns3:hr>140</ns3:hr>
            <ns3:cad>51</ns3:cad>
          </ns3:TrackPointExtension>
        </extensions>
      </trkpt>
      <trkpt lat="45.30572162009775638580322265625" lon="-70.81183905713260173797607421875">
        <ele>871.5999755859375</ele>
        <time>2026-08-21T13:10:28.000Z</time>
        <extensions>
          <ns3:TrackPointExtension>
            <ns3:hr>140</ns3:hr>
            <ns3:cad>51</ns3:cad>
          </ns3:TrackPointExtension>
        </extensions>
      </trkpt>
      <trkpt lat="45.30571441166102886199951171875" lon="-70.81183671019971370697021484375">
        <ele>871.79998779296875</ele>
        <time>2026-08-21T13:10:29.000Z</time>
        <extensions>
          <ns3:TrackPointExtension>
            <ns3:hr>141</ns3:hr>
            <ns3:cad>47</ns3:cad>
          </ns3:TrackPointExtension>
        </extensions>
      </trkpt>
      <trkpt lat="45.3057079575955867767333984375" lon="-70.8118255622684955596923828125">
        <ele>872</ele>
        <time>2026-08-21T13:10:30.000Z</time>
        <extensions>
          <ns3:TrackPointExtension>
            <ns3:hr>141</ns3:hr>
            <ns3:cad>47</ns3:cad>
          </ns3:TrackPointExtension>
        </extensions>
      </trkpt>
      <trkpt lat="45.3056975640356540679931640625" lon="-70.81181257031857967376708984375">
        <ele>872</ele>
        <time>2026-08-21T13:10:31.000Z</time>
        <extensions>
          <ns3:TrackPointExtension>
            <ns3:hr>141</ns3:hr>
            <ns3:cad>50</ns3:cad>
          </ns3:TrackPointExtension>
        </extensions>
      </trkpt>
      <trkpt lat="45.30568708665668964385986328125" lon="-70.81180469132959842681884765625">
        <ele>872.20001220703125</ele>
        <time>2026-08-21T13:10:32.000Z</time>
        <extensions>
          <ns3:TrackPointExtension>
            <ns3:hr>142</ns3:hr>
            <ns3:cad>50</ns3:cad>
          </ns3:TrackPointExtension>
        </extensions>
      </trkpt>
      <trkpt lat="45.30567862093448638916015625" lon="-70.8117999136447906494140625">
        <ele>872.4000244140625</ele>
        <time>2026-08-21T13:10:33.000Z</time>
        <extensions>
          <ns3:TrackPointExtension>
            <ns3:hr>142</ns3:hr>
            <ns3:cad>50</ns3:cad>
          </ns3:TrackPointExtension>
        </extensions>
      </trkpt>
      <trkpt lat="45.3056631982326507568359375" lon="-70.8117950521409511566162109375">
        <ele>872.5999755859375</ele>
        <time>2026-08-21T13:10:34.000Z</time>
        <extensions>
          <ns3:TrackPointExtension>
            <ns3:hr>142</ns3:hr>
            <ns3:cad>50</ns3:cad>
          </ns3:TrackPointExtension>
        </extensions>
      </trkpt>
      <trkpt lat="45.305652134120464324951171875" lon="-70.811790861189365386962890625">
        <ele>872.5999755859375</ele>
        <time>2026-08-21T13:10:35.000Z</time>
        <extensions>
          <ns3:TrackPointExtension>
            <ns3:hr>143</ns3:hr>
            <ns3:cad>50</ns3:cad>
          </ns3:TrackPointExtension>
        </extensions>
      </trkpt>
      <trkpt lat="45.3056395612657070159912109375" lon="-70.81178876571357250213623046875">
        <ele>872.79998779296875</ele>
        <time>2026-08-21T13:10:36.000Z</time>
        <extensions>
          <ns3:TrackPointExtension>
            <ns3:hr>143</ns3:hr>
            <ns3:cad>50</ns3:cad>
          </ns3:TrackPointExtension>
        </extensions>
      </trkpt>
      <trkpt lat="45.30562824569642543792724609375" lon="-70.8117878437042236328125">
        <ele>872.79998779296875</ele>
        <time>2026-08-21T13:10:37.000Z</time>
        <extensions>
          <ns3:TrackPointExtension>
            <ns3:hr>144</ns3:hr>
            <ns3:cad>50</ns3:cad>
          </ns3:TrackPointExtension>
        </extensions>
      </trkpt>
      <trkpt lat="45.30562229454517364501953125" lon="-70.81179278902709484100341796875">
        <ele>872.79998779296875</ele>
        <time>2026-08-21T13:10:38.000Z</time>
        <extensions>
          <ns3:TrackPointExtension>
            <ns3:hr>145</ns3:hr>
            <ns3:cad>50</ns3:cad>
          </ns3:TrackPointExtension>
        </extensions>
      </trkpt>
      <trkpt lat="45.3056103922426700592041015625" lon="-70.81180066801607608795166015625">
        <ele>873</ele>
        <time>2026-08-21T13:10:39.000Z</time>
        <extensions>
          <ns3:TrackPointExtension>
            <ns3:hr>146</ns3:hr>
            <ns3:cad>0</ns3:cad>
          </ns3:TrackPointExtension>
        </extensions>
      </trkpt>
      <trkpt lat="45.305602848529815673828125" lon="-70.81180301494896411895751953125">
        <ele>873.20001220703125</ele>
        <time>2026-08-21T13:10:40.000Z</time>
        <extensions>
          <ns3:TrackPointExtension>
            <ns3:hr>147</ns3:hr>
            <ns3:cad>0</ns3:cad>
          </ns3:TrackPointExtension>
        </extensions>
      </trkpt>
      <trkpt lat="45.30560092069208621978759765625" lon="-70.8117937110364437103271484375">
        <ele>873.4000244140625</ele>
        <time>2026-08-21T13:10:41.000Z</time>
        <extensions>
          <ns3:TrackPointExtension>
            <ns3:hr>147</ns3:hr>
            <ns3:cad>0</ns3:cad>
          </ns3:TrackPointExtension>
        </extensions>
      </trkpt>
      <trkpt lat="45.305589102208614349365234375" lon="-70.811795555055141448974609375">
        <ele>873.5999755859375</ele>
        <time>2026-08-21T13:10:42.000Z</time>
        <extensions>
          <ns3:TrackPointExtension>
            <ns3:hr>147</ns3:hr>
            <ns3:cad>0</ns3:cad>
          </ns3:TrackPointExtension>
        </extensions>
      </trkpt>
      <trkpt lat="45.30557996593415737152099609375" lon="-70.81179924309253692626953125">
        <ele>873.79998779296875</ele>
        <time>2026-08-21T13:10:43.000Z</time>
        <extensions>
          <ns3:TrackPointExtension>
            <ns3:hr>148</ns3:hr>
            <ns3:cad>0</ns3:cad>
          </ns3:TrackPointExtension>
        </extensions>
      </trkpt>
      <trkpt lat="45.30557258985936641693115234375" lon="-70.81179664470255374908447265625">
        <ele>874</ele>
        <time>2026-08-21T13:10:44.000Z</time>
        <extensions>
          <ns3:TrackPointExtension>
            <ns3:hr>148</ns3:hr>
            <ns3:cad>0</ns3:cad>
          </ns3:TrackPointExtension>
        </extensions>
      </trkpt>
      <trkpt lat="45.3055634535849094390869140625" lon="-70.8117880113422870635986328125">
        <ele>874.20001220703125</ele>
        <time>2026-08-21T13:10:45.000Z</time>
        <extensions>
          <ns3:TrackPointExtension>
            <ns3:hr>149</ns3:hr>
            <ns3:cad>0</ns3:cad>
          </ns3:TrackPointExtension>
        </extensions>
      </trkpt>
      <trkpt lat="45.3055530600249767303466796875" lon="-70.81178088672459125518798828125">
        <ele>874.20001220703125</ele>
        <time>2026-08-21T13:10:46.000Z</time>
        <extensions>
          <ns3:TrackPointExtension>
            <ns3:hr>149</ns3:hr>
            <ns3:cad>0</ns3:cad>
          </ns3:TrackPointExtension>
        </extensions>
      </trkpt>
      <trkpt lat="45.30553688295185565948486328125" lon="-70.81178105436265468597412109375">
        <ele>874.4000244140625</ele>
        <time>2026-08-21T13:10:47.000Z</time>
        <extensions>
          <ns3:TrackPointExtension>
            <ns3:hr>150</ns3:hr>
            <ns3:cad>0</ns3:cad>
          </ns3:TrackPointExtension>
        </extensions>
      </trkpt>
      <trkpt lat="45.30552816577255725860595703125" lon="-70.8117816410958766937255859375">
        <ele>874.5999755859375</ele>
        <time>2026-08-21T13:10:48.000Z</time>
        <extensions>
          <ns3:TrackPointExtension>
            <ns3:hr>150</ns3:hr>
            <ns3:cad>53</ns3:cad>
          </ns3:TrackPointExtension>
        </extensions>
      </trkpt>
      <trkpt lat="45.3055228851735591888427734375" lon="-70.81177300773561000823974609375">
        <ele>874.79998779296875</ele>
        <time>2026-08-21T13:10:49.000Z</time>
        <extensions>
          <ns3:TrackPointExtension>
            <ns3:hr>150</ns3:hr>
            <ns3:cad>53</ns3:cad>
          </ns3:TrackPointExtension>
        </extensions>
      </trkpt>
      <trkpt lat="45.30551173724234104156494140625" lon="-70.81176915206015110015869140625">
        <ele>875</ele>
        <time>2026-08-21T13:10:50.000Z</time>
        <extensions>
          <ns3:TrackPointExtension>
            <ns3:hr>150</ns3:hr>
            <ns3:cad>53</ns3:cad>
          </ns3:TrackPointExtension>
        </extensions>
      </trkpt>
      <trkpt lat="45.3054994158446788787841796875" lon="-70.81177216954529285430908203125">
        <ele>875.20001220703125</ele>
        <time>2026-08-21T13:10:51.000Z</time>
        <extensions>
          <ns3:TrackPointExtension>
            <ns3:hr>150</ns3:hr>
            <ns3:cad>0</ns3:cad>
          </ns3:TrackPointExtension>
        </extensions>
      </trkpt>
      <trkpt lat="45.30549078248441219329833984375" lon="-70.81177015788853168487548828125">
        <ele>875.4000244140625</ele>
        <time>2026-08-21T13:10:52.000Z</time>
        <extensions>
          <ns3:TrackPointExtension>
            <ns3:hr>150</ns3:hr>
            <ns3:cad>0</ns3:cad>
          </ns3:TrackPointExtension>
        </extensions>
      </trkpt>
      <trkpt lat="45.3054829873144626617431640625" lon="-70.81176680512726306915283203125">
        <ele>875.5999755859375</ele>
        <time>2026-08-21T13:10:53.000Z</time>
        <extensions>
          <ns3:TrackPointExtension>
            <ns3:hr>150</ns3:hr>
            <ns3:cad>0</ns3:cad>
          </ns3:TrackPointExtension>
        </extensions>
      </trkpt>
      <trkpt lat="45.30547016300261020660400390625" lon="-70.8117648772895336151123046875">
        <ele>875.79998779296875</ele>
        <time>2026-08-21T13:10:54.000Z</time>
        <extensions>
          <ns3:TrackPointExtension>
            <ns3:hr>151</ns3:hr>
            <ns3:cad>0</ns3:cad>
          </ns3:TrackPointExtension>
        </extensions>
      </trkpt>
      <trkpt lat="45.30546312220394611358642578125" lon="-70.81176747567951679229736328125">
        <ele>876</ele>
        <time>2026-08-21T13:10:55.000Z</time>
        <extensions>
          <ns3:TrackPointExtension>
            <ns3:hr>151</ns3:hr>
            <ns3:cad>0</ns3:cad>
          </ns3:TrackPointExtension>
        </extensions>
      </trkpt>
      <trkpt lat="45.305454321205615997314453125" lon="-70.811770074069499969482421875">
        <ele>876</ele>
        <time>2026-08-21T13:10:56.000Z</time>
        <extensions>
          <ns3:TrackPointExtension>
            <ns3:hr>151</ns3:hr>
            <ns3:cad>0</ns3:cad>
          </ns3:TrackPointExtension>
        </extensions>
      </trkpt>
      <trkpt lat="45.305447280406951904296875" lon="-70.81176948733627796173095703125">
        <ele>876.20001220703125</ele>
        <time>2026-08-21T13:10:57.000Z</time>
        <extensions>
          <ns3:TrackPointExtension>
            <ns3:hr>151</ns3:hr>
            <ns3:cad>0</ns3:cad>
          </ns3:TrackPointExtension>
        </extensions>
      </trkpt>
      <trkpt lat="45.30543856322765350341796875" lon="-70.81176839768886566162109375">
        <ele>876.4000244140625</ele>
        <time>2026-08-21T13:10:58.000Z</time>
        <extensions>
          <ns3:TrackPointExtension>
            <ns3:hr>150</ns3:hr>
            <ns3:cad>0</ns3:cad>
          </ns3:TrackPointExtension>
        </extensions>
      </trkpt>
      <trkpt lat="45.3054263256490230560302734375" lon="-70.81176898442208766937255859375">
        <ele>876.5999755859375</ele>
        <time>2026-08-21T13:10:59.000Z</time>
        <extensions>
          <ns3:TrackPointExtension>
            <ns3:hr>151</ns3:hr>
            <ns3:cad>0</ns3:cad>
          </ns3:TrackPointExtension>
        </extensions>
      </trkpt>
      <trkpt lat="45.30541668646037578582763671875" lon="-70.81177636049687862396240234375">
        <ele>876.79998779296875</ele>
        <time>2026-08-21T13:11:00.000Z</time>
        <extensions>
          <ns3:TrackPointExtension>
            <ns3:hr>151</ns3:hr>
            <ns3:cad>0</ns3:cad>
          </ns3:TrackPointExtension>
        </extensions>
      </trkpt>
      <trkpt lat="45.30541098676621913909912109375" lon="-70.81178993918001651763916015625">
        <ele>877.20001220703125</ele>
        <time>2026-08-21T13:11:01.000Z</time>
        <extensions>
          <ns3:TrackPointExtension>
            <ns3:hr>150</ns3:hr>
            <ns3:cad>0</ns3:cad>
          </ns3:TrackPointExtension>
        </extensions>
      </trkpt>
      <trkpt lat="45.3054048679769039154052734375" lon="-70.81180351786315441131591796875">
        <ele>877.4000244140625</ele>
        <time>2026-08-21T13:11:02.000Z</time>
        <extensions>
          <ns3:TrackPointExtension>
            <ns3:hr>151</ns3:hr>
            <ns3:cad>0</ns3:cad>
          </ns3:TrackPointExtension>
        </extensions>
      </trkpt>
      <trkpt lat="45.305393636226654052734375" lon="-70.81181592307984828948974609375">
        <ele>877.5999755859375</ele>
        <time>2026-08-21T13:11:03.000Z</time>
        <extensions>
          <ns3:TrackPointExtension>
            <ns3:hr>150</ns3:hr>
            <ns3:cad>0</ns3:cad>
          </ns3:TrackPointExtension>
        </extensions>
      </trkpt>
      <trkpt lat="45.30538433231413364410400390625" lon="-70.811816342175006866455078125">
        <ele>877.79998779296875</ele>
        <time>2026-08-21T13:11:04.000Z</time>
        <extensions>
          <ns3:TrackPointExtension>
            <ns3:hr>151</ns3:hr>
            <ns3:cad>0</ns3:cad>
          </ns3:TrackPointExtension>
        </extensions>
      </trkpt>
      <trkpt lat="45.30537595041096210479736328125" lon="-70.8118195272982120513916015625">
        <ele>878</ele>
        <time>2026-08-21T13:11:05.000Z</time>
        <extensions>
          <ns3:TrackPointExtension>
            <ns3:hr>151</ns3:hr>
            <ns3:cad>0</ns3:cad>
          </ns3:TrackPointExtension>
        </extensions>
      </trkpt>
      <trkpt lat="45.305366478860378265380859375" lon="-70.81182883121073246002197265625">
        <ele>878.20001220703125</ele>
        <time>2026-08-21T13:11:06.000Z</time>
        <extensions>
          <ns3:TrackPointExtension>
            <ns3:hr>151</ns3:hr>
            <ns3:cad>46</ns3:cad>
          </ns3:TrackPointExtension>
        </extensions>
      </trkpt>
      <trkpt lat="45.30536220408976078033447265625" lon="-70.8118336088955402374267578125">
        <ele>878.4000244140625</ele>
        <time>2026-08-21T13:11:07.000Z</time>
        <extensions>
          <ns3:TrackPointExtension>
            <ns3:hr>151</ns3:hr>
            <ns3:cad>46</ns3:cad>
          </ns3:TrackPointExtension>
        </extensions>
      </trkpt>
      <trkpt lat="45.305347032845020294189453125" lon="-70.811837129294872283935546875">
        <ele>878.5999755859375</ele>
        <time>2026-08-21T13:11:08.000Z</time>
        <extensions>
          <ns3:TrackPointExtension>
            <ns3:hr>151</ns3:hr>
            <ns3:cad>46</ns3:cad>
          </ns3:TrackPointExtension>
        </extensions>
      </trkpt>
      <trkpt lat="45.305336974561214447021484375" lon="-70.8118396438658237457275390625">
        <ele>879</ele>
        <time>2026-08-21T13:11:09.000Z</time>
        <extensions>
          <ns3:TrackPointExtension>
            <ns3:hr>151</ns3:hr>
            <ns3:cad>46</ns3:cad>
          </ns3:TrackPointExtension>
        </extensions>
      </trkpt>
      <trkpt lat="45.30532725155353546142578125" lon="-70.81184106878936290740966796875">
        <ele>879.20001220703125</ele>
        <time>2026-08-21T13:11:10.000Z</time>
        <extensions>
          <ns3:TrackPointExtension>
            <ns3:hr>151</ns3:hr>
            <ns3:cad>46</ns3:cad>
          </ns3:TrackPointExtension>
        </extensions>
      </trkpt>
      <trkpt lat="45.305316857993602752685546875" lon="-70.81184224225580692291259765625">
        <ele>879.4000244140625</ele>
        <time>2026-08-21T13:11:11.000Z</time>
        <extensions>
          <ns3:TrackPointExtension>
            <ns3:hr>150</ns3:hr>
            <ns3:cad>46</ns3:cad>
          </ns3:TrackPointExtension>
        </extensions>
      </trkpt>
      <trkpt lat="45.30531023629009723663330078125" lon="-70.81184643320739269256591796875">
        <ele>879.79998779296875</ele>
        <time>2026-08-21T13:11:12.000Z</time>
        <extensions>
          <ns3:TrackPointExtension>
            <ns3:hr>151</ns3:hr>
            <ns3:cad>46</ns3:cad>
          </ns3:TrackPointExtension>
        </extensions>
      </trkpt>
      <trkpt lat="45.30530202202498912811279296875" lon="-70.81184945069253444671630859375">
        <ele>880</ele>
        <time>2026-08-21T13:11:13.000Z</time>
        <extensions>
          <ns3:TrackPointExtension>
            <ns3:hr>151</ns3:hr>
            <ns3:cad>47</ns3:cad>
          </ns3:TrackPointExtension>
        </extensions>
      </trkpt>
      <trkpt lat="45.30529565177857875823974609375" lon="-70.81185062415897846221923828125">
        <ele>880.20001220703125</ele>
        <time>2026-08-21T13:11:14.000Z</time>
        <extensions>
          <ns3:TrackPointExtension>
            <ns3:hr>151</ns3:hr>
            <ns3:cad>47</ns3:cad>
          </ns3:TrackPointExtension>
        </extensions>
      </trkpt>
      <trkpt lat="45.30528911389410495758056640625" lon="-70.81185280345380306243896484375">
        <ele>880.4000244140625</ele>
        <time>2026-08-21T13:11:15.000Z</time>
        <extensions>
          <ns3:TrackPointExtension>
            <ns3:hr>151</ns3:hr>
            <ns3:cad>48</ns3:cad>
          </ns3:TrackPointExtension>
        </extensions>
      </trkpt>
      <trkpt lat="45.30527897179126739501953125" lon="-70.8118537254631519317626953125">
        <ele>880.5999755859375</ele>
        <time>2026-08-21T13:11:16.000Z</time>
        <extensions>
          <ns3:TrackPointExtension>
            <ns3:hr>151</ns3:hr>
            <ns3:cad>48</ns3:cad>
          </ns3:TrackPointExtension>
        </extensions>
      </trkpt>
      <trkpt lat="45.305273272097110748291015625" lon="-70.8118644542992115020751953125">
        <ele>880.79998779296875</ele>
        <time>2026-08-21T13:11:17.000Z</time>
        <extensions>
          <ns3:TrackPointExtension>
            <ns3:hr>150</ns3:hr>
            <ns3:cad>0</ns3:cad>
          </ns3:TrackPointExtension>
        </extensions>
      </trkpt>
      <trkpt lat="45.305259861052036285400390625" lon="-70.81187224946916103363037109375">
        <ele>881.20001220703125</ele>
        <time>2026-08-21T13:11:18.000Z</time>
        <extensions>
          <ns3:TrackPointExtension>
            <ns3:hr>151</ns3:hr>
            <ns3:cad>0</ns3:cad>
          </ns3:TrackPointExtension>
        </extensions>
      </trkpt>
      <trkpt lat="45.305245108902454376220703125" lon="-70.81187878735363483428955078125">
        <ele>881.4000244140625</ele>
        <time>2026-08-21T13:11:19.000Z</time>
        <extensions>
          <ns3:TrackPointExtension>
            <ns3:hr>151</ns3:hr>
            <ns3:cad>0</ns3:cad>
          </ns3:TrackPointExtension>
        </extensions>
      </trkpt>
      <trkpt lat="45.30523748137056827545166015625" lon="-70.8118852414190769195556640625">
        <ele>881.5999755859375</ele>
        <time>2026-08-21T13:11:20.000Z</time>
        <extensions>
          <ns3:TrackPointExtension>
            <ns3:hr>150</ns3:hr>
            <ns3:cad>0</ns3:cad>
          </ns3:TrackPointExtension>
        </extensions>
      </trkpt>
      <trkpt lat="45.3052291832864284515380859375" lon="-70.81188817508518695831298828125">
        <ele>881.79998779296875</ele>
        <time>2026-08-21T13:11:21.000Z</time>
        <extensions>
          <ns3:TrackPointExtension>
            <ns3:hr>151</ns3:hr>
            <ns3:cad>0</ns3:cad>
          </ns3:TrackPointExtension>
        </extensions>
      </trkpt>
      <trkpt lat="45.30521552078425884246826171875" lon="-70.81189136020839214324951171875">
        <ele>882</ele>
        <time>2026-08-21T13:11:22.000Z</time>
        <extensions>
          <ns3:TrackPointExtension>
            <ns3:hr>151</ns3:hr>
            <ns3:cad>0</ns3:cad>
          </ns3:TrackPointExtension>
        </extensions>
      </trkpt>
      <trkpt lat="45.3052043728530406951904296875" lon="-70.81188968382775783538818359375">
        <ele>882.20001220703125</ele>
        <time>2026-08-21T13:11:23.000Z</time>
        <extensions>
          <ns3:TrackPointExtension>
            <ns3:hr>151</ns3:hr>
            <ns3:cad>0</ns3:cad>
          </ns3:TrackPointExtension>
        </extensions>
      </trkpt>
      <trkpt lat="45.30519850552082061767578125" lon="-70.811884403228759765625">
        <ele>882.4000244140625</ele>
        <time>2026-08-21T13:11:24.000Z</time>
        <extensions>
          <ns3:TrackPointExtension>
            <ns3:hr>151</ns3:hr>
            <ns3:cad>50</ns3:cad>
          </ns3:TrackPointExtension>
        </extensions>
      </trkpt>
      <trkpt lat="45.30518710613250732421875" lon="-70.81187979318201541900634765625">
        <ele>882.5999755859375</ele>
        <time>2026-08-21T13:11:25.000Z</time>
        <extensions>
          <ns3:TrackPointExtension>
            <ns3:hr>151</ns3:hr>
            <ns3:cad>48</ns3:cad>
          </ns3:TrackPointExtension>
        </extensions>
      </trkpt>
      <trkpt lat="45.30517813749611377716064453125" lon="-70.81187836825847625732421875">
        <ele>882.79998779296875</ele>
        <time>2026-08-21T13:11:26.000Z</time>
        <extensions>
          <ns3:TrackPointExtension>
            <ns3:hr>151</ns3:hr>
            <ns3:cad>48</ns3:cad>
          </ns3:TrackPointExtension>
        </extensions>
      </trkpt>
      <trkpt lat="45.30516522936522960662841796875" lon="-70.8118750154972076416015625">
        <ele>883</ele>
        <time>2026-08-21T13:11:27.000Z</time>
        <extensions>
          <ns3:TrackPointExtension>
            <ns3:hr>150</ns3:hr>
            <ns3:cad>48</ns3:cad>
          </ns3:TrackPointExtension>
        </extensions>
      </trkpt>
      <trkpt lat="45.3051557578146457672119140625" lon="-70.8118761889636516571044921875">
        <ele>883</ele>
        <time>2026-08-21T13:11:28.000Z</time>
        <extensions>
          <ns3:TrackPointExtension>
            <ns3:hr>151</ns3:hr>
            <ns3:cad>48</ns3:cad>
          </ns3:TrackPointExtension>
        </extensions>
      </trkpt>
      <trkpt lat="45.30514125712215900421142578125" lon="-70.81187828443944454193115234375">
        <ele>883.20001220703125</ele>
        <time>2026-08-21T13:11:29.000Z</time>
        <extensions>
          <ns3:TrackPointExtension>
            <ns3:hr>151</ns3:hr>
            <ns3:cad>48</ns3:cad>
          </ns3:TrackPointExtension>
        </extensions>
      </trkpt>
      <trkpt lat="45.30513471923768520355224609375" lon="-70.81188348121941089630126953125">
        <ele>883.20001220703125</ele>
        <time>2026-08-21T13:11:30.000Z</time>
        <extensions>
          <ns3:TrackPointExtension>
            <ns3:hr>151</ns3:hr>
            <ns3:cad>48</ns3:cad>
          </ns3:TrackPointExtension>
        </extensions>
      </trkpt>
      <trkpt lat="45.3051239065825939178466796875" lon="-70.8118899352848529815673828125">
        <ele>883.4000244140625</ele>
        <time>2026-08-21T13:11:31.000Z</time>
        <extensions>
          <ns3:TrackPointExtension>
            <ns3:hr>151</ns3:hr>
            <ns3:cad>48</ns3:cad>
          </ns3:TrackPointExtension>
        </extensions>
      </trkpt>
      <trkpt lat="45.30511912889778614044189453125" lon="-70.81189052201807498931884765625">
        <ele>883.5999755859375</ele>
        <time>2026-08-21T13:11:32.000Z</time>
        <extensions>
          <ns3:TrackPointExtension>
            <ns3:hr>151</ns3:hr>
            <ns3:cad>0</ns3:cad>
          </ns3:TrackPointExtension>
        </extensions>
      </trkpt>
      <trkpt lat="45.3051037900149822235107421875" lon="-70.81189312040805816650390625">
        <ele>883.79998779296875</ele>
        <time>2026-08-21T13:11:33.000Z</time>
        <extensions>
          <ns3:TrackPointExtension>
            <ns3:hr>151</ns3:hr>
            <ns3:cad>0</ns3:cad>
          </ns3:TrackPointExtension>
        </extensions>
      </trkpt>
      <trkpt lat="45.3050959110260009765625" lon="-70.811894796788692474365234375">
        <ele>884.20001220703125</ele>
        <time>2026-08-21T13:11:34.000Z</time>
        <extensions>
          <ns3:TrackPointExtension>
            <ns3:hr>151</ns3:hr>
            <ns3:cad>0</ns3:cad>
          </ns3:TrackPointExtension>
        </extensions>
      </trkpt>
      <trkpt lat="45.305087864398956298828125" lon="-70.81189739517867565155029296875">
        <ele>884.20001220703125</ele>
        <time>2026-08-21T13:11:35.000Z</time>
        <extensions>
          <ns3:TrackPointExtension>
            <ns3:hr>151</ns3:hr>
            <ns3:cad>0</ns3:cad>
          </ns3:TrackPointExtension>
        </extensions>
      </trkpt>
      <trkpt lat="45.30508291907608509063720703125" lon="-70.81189907155930995941162109375">
        <ele>884.4000244140625</ele>
        <time>2026-08-21T13:11:36.000Z</time>
        <extensions>
          <ns3:TrackPointExtension>
            <ns3:hr>151</ns3:hr>
            <ns3:cad>47</ns3:cad>
          </ns3:TrackPointExtension>
        </extensions>
      </trkpt>
      <trkpt lat="45.3050784766674041748046875" lon="-70.8118966408073902130126953125">
        <ele>884.20001220703125</ele>
        <time>2026-08-21T13:11:37.000Z</time>
        <extensions>
          <ns3:TrackPointExtension>
            <ns3:hr>151</ns3:hr>
            <ns3:cad>48</ns3:cad>
          </ns3:TrackPointExtension>
        </extensions>
      </trkpt>
      <trkpt lat="45.30506665818393230438232421875" lon="-70.811894796788692474365234375">
        <ele>883.79998779296875</ele>
        <time>2026-08-21T13:11:38.000Z</time>
        <extensions>
          <ns3:TrackPointExtension>
            <ns3:hr>152</ns3:hr>
            <ns3:cad>48</ns3:cad>
          </ns3:TrackPointExtension>
        </extensions>
      </trkpt>
      <trkpt lat="45.30505894683301448822021484375" lon="-70.81189672462642192840576171875">
        <ele>883.5999755859375</ele>
        <time>2026-08-21T13:11:39.000Z</time>
        <extensions>
          <ns3:TrackPointExtension>
            <ns3:hr>152</ns3:hr>
            <ns3:cad>48</ns3:cad>
          </ns3:TrackPointExtension>
        </extensions>
      </trkpt>
      <trkpt lat="45.305042266845703125" lon="-70.81189270131289958953857421875">
        <ele>883.4000244140625</ele>
        <time>2026-08-21T13:11:40.000Z</time>
        <extensions>
          <ns3:TrackPointExtension>
            <ns3:hr>152</ns3:hr>
            <ns3:cad>48</ns3:cad>
          </ns3:TrackPointExtension>
        </extensions>
      </trkpt>
      <trkpt lat="45.305028855800628662109375" lon="-70.8118926174938678741455078125">
        <ele>883.20001220703125</ele>
        <time>2026-08-21T13:11:41.000Z</time>
        <extensions>
          <ns3:TrackPointExtension>
            <ns3:hr>152</ns3:hr>
            <ns3:cad>0</ns3:cad>
          </ns3:TrackPointExtension>
        </extensions>
      </trkpt>
      <trkpt lat="45.3050125949084758758544921875" lon="-70.8118952997028827667236328125">
        <ele>883</ele>
        <time>2026-08-21T13:11:42.000Z</time>
        <extensions>
          <ns3:TrackPointExtension>
            <ns3:hr>152</ns3:hr>
            <ns3:cad>0</ns3:cad>
          </ns3:TrackPointExtension>
        </extensions>
      </trkpt>
      <trkpt lat="45.30499591492116451263427734375" lon="-70.8119026757776737213134765625">
        <ele>882.79998779296875</ele>
        <time>2026-08-21T13:11:43.000Z</time>
        <extensions>
          <ns3:TrackPointExtension>
            <ns3:hr>152</ns3:hr>
            <ns3:cad>55</ns3:cad>
          </ns3:TrackPointExtension>
        </extensions>
      </trkpt>
      <trkpt lat="45.30498585663735866546630859375" lon="-70.81191382370889186859130859375">
        <ele>882.79998779296875</ele>
        <time>2026-08-21T13:11:44.000Z</time>
        <extensions>
          <ns3:TrackPointExtension>
            <ns3:hr>151</ns3:hr>
            <ns3:cad>55</ns3:cad>
          </ns3:TrackPointExtension>
        </extensions>
      </trkpt>
      <trkpt lat="45.3049738705158233642578125" lon="-70.81192153505980968475341796875">
        <ele>882.79998779296875</ele>
        <time>2026-08-21T13:11:45.000Z</time>
        <extensions>
          <ns3:TrackPointExtension>
            <ns3:hr>151</ns3:hr>
            <ns3:cad>55</ns3:cad>
          </ns3:TrackPointExtension>
        </extensions>
      </trkpt>
      <trkpt lat="45.30496180057525634765625" lon="-70.8119144104421138763427734375">
        <ele>883</ele>
        <time>2026-08-21T13:11:46.000Z</time>
        <extensions>
          <ns3:TrackPointExtension>
            <ns3:hr>151</ns3:hr>
            <ns3:cad>55</ns3:cad>
          </ns3:TrackPointExtension>
        </extensions>
      </trkpt>
      <trkpt lat="45.30495048500597476959228515625" lon="-70.81190879456698894500732421875">
        <ele>883</ele>
        <time>2026-08-21T13:11:47.000Z</time>
        <extensions>
          <ns3:TrackPointExtension>
            <ns3:hr>151</ns3:hr>
            <ns3:cad>55</ns3:cad>
          </ns3:TrackPointExtension>
        </extensions>
      </trkpt>
      <trkpt lat="45.304946042597293853759765625" lon="-70.81190359778702259063720703125">
        <ele>883.20001220703125</ele>
        <time>2026-08-21T13:11:48.000Z</time>
        <extensions>
          <ns3:TrackPointExtension>
            <ns3:hr>151</ns3:hr>
            <ns3:cad>55</ns3:cad>
          </ns3:TrackPointExtension>
        </extensions>
      </trkpt>
      <trkpt lat="45.30493824742734432220458984375" lon="-70.81189739517867565155029296875">
        <ele>883.20001220703125</ele>
        <time>2026-08-21T13:11:49.000Z</time>
        <extensions>
          <ns3:TrackPointExtension>
            <ns3:hr>151</ns3:hr>
            <ns3:cad>55</ns3:cad>
          </ns3:TrackPointExtension>
        </extensions>
      </trkpt>
      <trkpt lat="45.30492651276290416717529296875" lon="-70.81189236603677272796630859375">
        <ele>883</ele>
        <time>2026-08-21T13:11:50.000Z</time>
        <extensions>
          <ns3:TrackPointExtension>
            <ns3:hr>150</ns3:hr>
            <ns3:cad>55</ns3:cad>
          </ns3:TrackPointExtension>
        </extensions>
      </trkpt>
      <trkpt lat="45.30491829849779605865478515625" lon="-70.8118932880461215972900390625">
        <ele>883</ele>
        <time>2026-08-21T13:11:51.000Z</time>
        <extensions>
          <ns3:TrackPointExtension>
            <ns3:hr>150</ns3:hr>
            <ns3:cad>0</ns3:cad>
          </ns3:TrackPointExtension>
        </extensions>
      </trkpt>
      <trkpt lat="45.30491092242300510406494140625" lon="-70.81189286895096302032470703125">
        <ele>882.79998779296875</ele>
        <time>2026-08-21T13:11:52.000Z</time>
        <extensions>
          <ns3:TrackPointExtension>
            <ns3:hr>149</ns3:hr>
            <ns3:cad>0</ns3:cad>
          </ns3:TrackPointExtension>
        </extensions>
      </trkpt>
      <trkpt lat="45.30490052886307239532470703125" lon="-70.81189169548451900482177734375">
        <ele>882.5999755859375</ele>
        <time>2026-08-21T13:11:53.000Z</time>
        <extensions>
          <ns3:TrackPointExtension>
            <ns3:hr>149</ns3:hr>
            <ns3:cad>49</ns3:cad>
          </ns3:TrackPointExtension>
        </extensions>
      </trkpt>
      <trkpt lat="45.3048935718834400177001953125" lon="-70.81189018674194812774658203125">
        <ele>882.5999755859375</ele>
        <time>2026-08-21T13:11:54.000Z</time>
        <extensions>
          <ns3:TrackPointExtension>
            <ns3:hr>148</ns3:hr>
            <ns3:cad>49</ns3:cad>
          </ns3:TrackPointExtension>
        </extensions>
      </trkpt>
      <trkpt lat="45.3048841841518878936767578125" lon="-70.8118926174938678741455078125">
        <ele>882.5999755859375</ele>
        <time>2026-08-21T13:11:55.000Z</time>
        <extensions>
          <ns3:TrackPointExtension>
            <ns3:hr>147</ns3:hr>
            <ns3:cad>49</ns3:cad>
          </ns3:TrackPointExtension>
        </extensions>
      </trkpt>
      <trkpt lat="45.30487320385873317718505859375" lon="-70.8118916116654872894287109375">
        <ele>882.4000244140625</ele>
        <time>2026-08-21T13:11:56.000Z</time>
        <extensions>
          <ns3:TrackPointExtension>
            <ns3:hr>147</ns3:hr>
            <ns3:cad>0</ns3:cad>
          </ns3:TrackPointExtension>
        </extensions>
      </trkpt>
      <trkpt lat="45.30486113391816616058349609375" lon="-70.8118899352848529815673828125">
        <ele>882.4000244140625</ele>
        <time>2026-08-21T13:11:57.000Z</time>
        <extensions>
          <ns3:TrackPointExtension>
            <ns3:hr>146</ns3:hr>
            <ns3:cad>0</ns3:cad>
          </ns3:TrackPointExtension>
        </extensions>
      </trkpt>
      <trkpt lat="45.304850824177265167236328125" lon="-70.8118832297623157501220703125">
        <ele>882.4000244140625</ele>
        <time>2026-08-21T13:11:58.000Z</time>
        <extensions>
          <ns3:TrackPointExtension>
            <ns3:hr>144</ns3:hr>
            <ns3:cad>47</ns3:cad>
          </ns3:TrackPointExtension>
        </extensions>
      </trkpt>
      <trkpt lat="45.30483950860798358917236328125" lon="-70.811878032982349395751953125">
        <ele>882.20001220703125</ele>
        <time>2026-08-21T13:11:59.000Z</time>
        <extensions>
          <ns3:TrackPointExtension>
            <ns3:hr>143</ns3:hr>
            <ns3:cad>47</ns3:cad>
          </ns3:TrackPointExtension>
        </extensions>
      </trkpt>
      <trkpt lat="45.30482961796224117279052734375" lon="-70.81187224946916103363037109375">
        <ele>882.20001220703125</ele>
        <time>2026-08-21T13:12:00.000Z</time>
        <extensions>
          <ns3:TrackPointExtension>
            <ns3:hr>142</ns3:hr>
            <ns3:cad>47</ns3:cad>
          </ns3:TrackPointExtension>
        </extensions>
      </trkpt>
      <trkpt lat="45.304817296564579010009765625" lon="-70.8118668012320995330810546875">
        <ele>882.4000244140625</ele>
        <time>2026-08-21T13:12:01.000Z</time>
        <extensions>
          <ns3:TrackPointExtension>
            <ns3:hr>141</ns3:hr>
            <ns3:cad>50</ns3:cad>
          </ns3:TrackPointExtension>
        </extensions>
      </trkpt>
      <trkpt lat="45.3048050589859485626220703125" lon="-70.81186085008084774017333984375">
        <ele>882.4000244140625</ele>
        <time>2026-08-21T13:12:02.000Z</time>
        <extensions>
          <ns3:TrackPointExtension>
            <ns3:hr>140</ns3:hr>
            <ns3:cad>50</ns3:cad>
          </ns3:TrackPointExtension>
        </extensions>
      </trkpt>
      <trkpt lat="45.3047936595976352691650390625" lon="-70.8118587546050548553466796875">
        <ele>882.4000244140625</ele>
        <time>2026-08-21T13:12:03.000Z</time>
        <extensions>
          <ns3:TrackPointExtension>
            <ns3:hr>140</ns3:hr>
            <ns3:cad>52</ns3:cad>
          </ns3:TrackPointExtension>
        </extensions>
      </trkpt>
      <trkpt lat="45.304783098399639129638671875" lon="-70.81185649149119853973388671875">
        <ele>882.4000244140625</ele>
        <time>2026-08-21T13:12:04.000Z</time>
        <extensions>
          <ns3:TrackPointExtension>
            <ns3:hr>139</ns3:hr>
            <ns3:cad>52</ns3:cad>
          </ns3:TrackPointExtension>
        </extensions>
      </trkpt>
      <trkpt lat="45.30476876534521579742431640625" lon="-70.81185582093894481658935546875">
        <ele>882.5999755859375</ele>
        <time>2026-08-21T13:12:05.000Z</time>
        <extensions>
          <ns3:TrackPointExtension>
            <ns3:hr>139</ns3:hr>
            <ns3:cad>53</ns3:cad>
          </ns3:TrackPointExtension>
        </extensions>
      </trkpt>
      <trkpt lat="45.30475728213787078857421875" lon="-70.81185615621507167816162109375">
        <ele>882.5999755859375</ele>
        <time>2026-08-21T13:12:06.000Z</time>
        <extensions>
          <ns3:TrackPointExtension>
            <ns3:hr>139</ns3:hr>
            <ns3:cad>53</ns3:cad>
          </ns3:TrackPointExtension>
        </extensions>
      </trkpt>
      <trkpt lat="45.30474412254989147186279296875" lon="-70.81185246817767620086669921875">
        <ele>882.5999755859375</ele>
        <time>2026-08-21T13:12:07.000Z</time>
        <extensions>
          <ns3:TrackPointExtension>
            <ns3:hr>138</ns3:hr>
            <ns3:cad>53</ns3:cad>
          </ns3:TrackPointExtension>
        </extensions>
      </trkpt>
      <trkpt lat="45.3047324717044830322265625" lon="-70.81184484064579010009765625">
        <ele>882.5999755859375</ele>
        <time>2026-08-21T13:12:08.000Z</time>
        <extensions>
          <ns3:TrackPointExtension>
            <ns3:hr>138</ns3:hr>
            <ns3:cad>50</ns3:cad>
          </ns3:TrackPointExtension>
        </extensions>
      </trkpt>
      <trkpt lat="45.30472082085907459259033203125" lon="-70.81183838658034801483154296875">
        <ele>882.79998779296875</ele>
        <time>2026-08-21T13:12:09.000Z</time>
        <extensions>
          <ns3:TrackPointExtension>
            <ns3:hr>138</ns3:hr>
            <ns3:cad>50</ns3:cad>
          </ns3:TrackPointExtension>
        </extensions>
      </trkpt>
      <trkpt lat="45.304714702069759368896484375" lon="-70.8118319325149059295654296875">
        <ele>882.79998779296875</ele>
        <time>2026-08-21T13:12:10.000Z</time>
        <extensions>
          <ns3:TrackPointExtension>
            <ns3:hr>137</ns3:hr>
            <ns3:cad>52</ns3:cad>
          </ns3:TrackPointExtension>
        </extensions>
      </trkpt>
      <trkpt lat="45.3047034703195095062255859375" lon="-70.81182396970689296722412109375">
        <ele>883</ele>
        <time>2026-08-21T13:12:11.000Z</time>
        <extensions>
          <ns3:TrackPointExtension>
            <ns3:hr>137</ns3:hr>
            <ns3:cad>52</ns3:cad>
          </ns3:TrackPointExtension>
        </extensions>
      </trkpt>
      <trkpt lat="45.3046887181699275970458984375" lon="-70.81182078458368778228759765625">
        <ele>883</ele>
        <time>2026-08-21T13:12:12.000Z</time>
        <extensions>
          <ns3:TrackPointExtension>
            <ns3:hr>136</ns3:hr>
            <ns3:cad>53</ns3:cad>
          </ns3:TrackPointExtension>
        </extensions>
      </trkpt>
      <trkpt lat="45.30467237345874309539794921875" lon="-70.811821036040782928466796875">
        <ele>883.20001220703125</ele>
        <time>2026-08-21T13:12:13.000Z</time>
        <extensions>
          <ns3:TrackPointExtension>
            <ns3:hr>136</ns3:hr>
            <ns3:cad>53</ns3:cad>
          </ns3:TrackPointExtension>
        </extensions>
      </trkpt>
      <trkpt lat="45.3046622313559055328369140625" lon="-70.81181910820305347442626953125">
        <ele>883.20001220703125</ele>
        <time>2026-08-21T13:12:14.000Z</time>
        <extensions>
          <ns3:TrackPointExtension>
            <ns3:hr>135</ns3:hr>
            <ns3:cad>53</ns3:cad>
          </ns3:TrackPointExtension>
        </extensions>
      </trkpt>
      <trkpt lat="45.30465141870081424713134765625" lon="-70.81182111985981464385986328125">
        <ele>883.20001220703125</ele>
        <time>2026-08-21T13:12:15.000Z</time>
        <extensions>
          <ns3:TrackPointExtension>
            <ns3:hr>135</ns3:hr>
            <ns3:cad>55</ns3:cad>
          </ns3:TrackPointExtension>
        </extensions>
      </trkpt>
      <trkpt lat="45.30464286915957927703857421875" lon="-70.8118141628801822662353515625">
        <ele>883.20001220703125</ele>
        <time>2026-08-21T13:12:16.000Z</time>
        <extensions>
          <ns3:TrackPointExtension>
            <ns3:hr>135</ns3:hr>
            <ns3:cad>55</ns3:cad>
          </ns3:TrackPointExtension>
        </extensions>
      </trkpt>
      <trkpt lat="45.30463716946542263031005859375" lon="-70.81181039102375507354736328125">
        <ele>883.4000244140625</ele>
        <time>2026-08-21T13:12:17.000Z</time>
        <extensions>
          <ns3:TrackPointExtension>
            <ns3:hr>135</ns3:hr>
            <ns3:cad>55</ns3:cad>
          </ns3:TrackPointExtension>
        </extensions>
      </trkpt>
      <trkpt lat="45.30462644062936305999755859375" lon="-70.81180234439671039581298828125">
        <ele>883.5999755859375</ele>
        <time>2026-08-21T13:12:18.000Z</time>
        <extensions>
          <ns3:TrackPointExtension>
            <ns3:hr>136</ns3:hr>
            <ns3:cad>55</ns3:cad>
          </ns3:TrackPointExtension>
        </extensions>
      </trkpt>
      <trkpt lat="45.30462208203971385955810546875" lon="-70.8118014223873615264892578125">
        <ele>884</ele>
        <time>2026-08-21T13:12:19.000Z</time>
        <extensions>
          <ns3:TrackPointExtension>
            <ns3:hr>135</ns3:hr>
            <ns3:cad>55</ns3:cad>
          </ns3:TrackPointExtension>
        </extensions>
      </trkpt>
      <trkpt lat="45.3046132810413837432861328125" lon="-70.81179949454963207244873046875">
        <ele>884.20001220703125</ele>
        <time>2026-08-21T13:12:20.000Z</time>
        <extensions>
          <ns3:TrackPointExtension>
            <ns3:hr>134</ns3:hr>
            <ns3:cad>55</ns3:cad>
          </ns3:TrackPointExtension>
        </extensions>
      </trkpt>
      <trkpt lat="45.3045998699963092803955078125" lon="-70.8118041045963764190673828125">
        <ele>884.4000244140625</ele>
        <time>2026-08-21T13:12:21.000Z</time>
        <extensions>
          <ns3:TrackPointExtension>
            <ns3:hr>134</ns3:hr>
            <ns3:cad>55</ns3:cad>
          </ns3:TrackPointExtension>
        </extensions>
      </trkpt>
      <trkpt lat="45.30458972789347171783447265625" lon="-70.811806283891201019287109375">
        <ele>884.5999755859375</ele>
        <time>2026-08-21T13:12:22.000Z</time>
        <extensions>
          <ns3:TrackPointExtension>
            <ns3:hr>133</ns3:hr>
            <ns3:cad>53</ns3:cad>
          </ns3:TrackPointExtension>
        </extensions>
      </trkpt>
      <trkpt lat="45.3045797534286975860595703125" lon="-70.81180787645280361175537109375">
        <ele>884.79998779296875</ele>
        <time>2026-08-21T13:12:23.000Z</time>
        <extensions>
          <ns3:TrackPointExtension>
            <ns3:hr>133</ns3:hr>
            <ns3:cad>53</ns3:cad>
          </ns3:TrackPointExtension>
        </extensions>
      </trkpt>
      <trkpt lat="45.30456810258328914642333984375" lon="-70.81181257031857967376708984375">
        <ele>885</ele>
        <time>2026-08-21T13:12:24.000Z</time>
        <extensions>
          <ns3:TrackPointExtension>
            <ns3:hr>133</ns3:hr>
            <ns3:cad>53</ns3:cad>
          </ns3:TrackPointExtension>
        </extensions>
      </trkpt>
      <trkpt lat="45.30455821193754673004150390625" lon="-70.81181659363210201263427734375">
        <ele>885.20001220703125</ele>
        <time>2026-08-21T13:12:25.000Z</time>
        <extensions>
          <ns3:TrackPointExtension>
            <ns3:hr>133</ns3:hr>
            <ns3:cad>53</ns3:cad>
          </ns3:TrackPointExtension>
        </extensions>
      </trkpt>
      <trkpt lat="45.30454396270215511322021484375" lon="-70.81182070076465606689453125">
        <ele>885.4000244140625</ele>
        <time>2026-08-21T13:12:26.000Z</time>
        <extensions>
          <ns3:TrackPointExtension>
            <ns3:hr>133</ns3:hr>
            <ns3:cad>53</ns3:cad>
          </ns3:TrackPointExtension>
        </extensions>
      </trkpt>
      <trkpt lat="45.3045311383903026580810546875" lon="-70.8118225447833538055419921875">
        <ele>885.5999755859375</ele>
        <time>2026-08-21T13:12:27.000Z</time>
        <extensions>
          <ns3:TrackPointExtension>
            <ns3:hr>133</ns3:hr>
            <ns3:cad>53</ns3:cad>
          </ns3:TrackPointExtension>
        </extensions>
      </trkpt>
      <trkpt lat="45.3045173920691013336181640625" lon="-70.81182296387851238250732421875">
        <ele>885.79998779296875</ele>
        <time>2026-08-21T13:12:28.000Z</time>
        <extensions>
          <ns3:TrackPointExtension>
            <ns3:hr>134</ns3:hr>
            <ns3:cad>53</ns3:cad>
          </ns3:TrackPointExtension>
        </extensions>
      </trkpt>
      <trkpt lat="45.30450783669948577880859375" lon="-70.8118161745369434356689453125">
        <ele>885.79998779296875</ele>
        <time>2026-08-21T13:12:29.000Z</time>
        <extensions>
          <ns3:TrackPointExtension>
            <ns3:hr>135</ns3:hr>
            <ns3:cad>53</ns3:cad>
          </ns3:TrackPointExtension>
        </extensions>
      </trkpt>
      <trkpt lat="45.30449903570115566253662109375" lon="-70.8118118159472942352294921875">
        <ele>886</ele>
        <time>2026-08-21T13:12:30.000Z</time>
        <extensions>
          <ns3:TrackPointExtension>
            <ns3:hr>135</ns3:hr>
            <ns3:cad>53</ns3:cad>
          </ns3:TrackPointExtension>
        </extensions>
      </trkpt>
      <trkpt lat="45.3044875524938106536865234375" lon="-70.81180653534829616546630859375">
        <ele>886.20001220703125</ele>
        <time>2026-08-21T13:12:31.000Z</time>
        <extensions>
          <ns3:TrackPointExtension>
            <ns3:hr>135</ns3:hr>
            <ns3:cad>53</ns3:cad>
          </ns3:TrackPointExtension>
        </extensions>
      </trkpt>
      <trkpt lat="45.30448277480900287628173828125" lon="-70.811800248920917510986328125">
        <ele>886.4000244140625</ele>
        <time>2026-08-21T13:12:32.000Z</time>
        <extensions>
          <ns3:TrackPointExtension>
            <ns3:hr>135</ns3:hr>
            <ns3:cad>53</ns3:cad>
          </ns3:TrackPointExtension>
        </extensions>
      </trkpt>
      <trkpt lat="45.30447422526776790618896484375" lon="-70.81179848872125148773193359375">
        <ele>886.79998779296875</ele>
        <time>2026-08-21T13:12:33.000Z</time>
        <extensions>
          <ns3:TrackPointExtension>
            <ns3:hr>136</ns3:hr>
            <ns3:cad>53</ns3:cad>
          </ns3:TrackPointExtension>
        </extensions>
      </trkpt>
      <trkpt lat="45.3044650889933109283447265625" lon="-70.8118000812828540802001953125">
        <ele>887</ele>
        <time>2026-08-21T13:12:34.000Z</time>
        <extensions>
          <ns3:TrackPointExtension>
            <ns3:hr>136</ns3:hr>
            <ns3:cad>47</ns3:cad>
          </ns3:TrackPointExtension>
        </extensions>
      </trkpt>
      <trkpt lat="45.30445846728980541229248046875" lon="-70.8117980696260929107666015625">
        <ele>887.20001220703125</ele>
        <time>2026-08-21T13:12:35.000Z</time>
        <extensions>
          <ns3:TrackPointExtension>
            <ns3:hr>136</ns3:hr>
            <ns3:cad>47</ns3:cad>
          </ns3:TrackPointExtension>
        </extensions>
      </trkpt>
      <trkpt lat="45.30444740317761898040771484375" lon="-70.81179664470255374908447265625">
        <ele>887.5999755859375</ele>
        <time>2026-08-21T13:12:36.000Z</time>
        <extensions>
          <ns3:TrackPointExtension>
            <ns3:hr>136</ns3:hr>
            <ns3:cad>47</ns3:cad>
          </ns3:TrackPointExtension>
        </extensions>
      </trkpt>
      <trkpt lat="45.3044426254928112030029296875" lon="-70.81179848872125148773193359375">
        <ele>887.79998779296875</ele>
        <time>2026-08-21T13:12:37.000Z</time>
        <extensions>
          <ns3:TrackPointExtension>
            <ns3:hr>135</ns3:hr>
            <ns3:cad>47</ns3:cad>
          </ns3:TrackPointExtension>
        </extensions>
      </trkpt>
      <trkpt lat="45.30444254167377948760986328125" lon="-70.81180234439671039581298828125">
        <ele>888</ele>
        <time>2026-08-21T13:12:38.000Z</time>
        <extensions>
          <ns3:TrackPointExtension>
            <ns3:hr>135</ns3:hr>
            <ns3:cad>47</ns3:cad>
          </ns3:TrackPointExtension>
        </extensions>
      </trkpt>
      <trkpt lat="45.30443734489381313323974609375" lon="-70.81180167384445667266845703125">
        <ele>888.20001220703125</ele>
        <time>2026-08-21T13:12:39.000Z</time>
        <extensions>
          <ns3:TrackPointExtension>
            <ns3:hr>136</ns3:hr>
            <ns3:cad>44</ns3:cad>
          </ns3:TrackPointExtension>
        </extensions>
      </trkpt>
      <trkpt lat="45.30443667434155941009521484375" lon="-70.811799578368663787841796875">
        <ele>888.5999755859375</ele>
        <time>2026-08-21T13:12:40.000Z</time>
        <extensions>
          <ns3:TrackPointExtension>
            <ns3:hr>136</ns3:hr>
            <ns3:cad>44</ns3:cad>
          </ns3:TrackPointExtension>
        </extensions>
      </trkpt>
      <trkpt lat="45.30442913062870502471923828125" lon="-70.81178993918001651763916015625">
        <ele>888.79998779296875</ele>
        <time>2026-08-21T13:12:41.000Z</time>
        <extensions>
          <ns3:TrackPointExtension>
            <ns3:hr>136</ns3:hr>
            <ns3:cad>0</ns3:cad>
          </ns3:TrackPointExtension>
        </extensions>
      </trkpt>
      <trkpt lat="45.30442493967711925506591796875" lon="-70.81178239546716213226318359375">
        <ele>889</ele>
        <time>2026-08-21T13:12:42.000Z</time>
        <extensions>
          <ns3:TrackPointExtension>
            <ns3:hr>136</ns3:hr>
            <ns3:cad>0</ns3:cad>
          </ns3:TrackPointExtension>
        </extensions>
      </trkpt>
      <trkpt lat="45.30441387556493282318115234375" lon="-70.81177870742976665496826171875">
        <ele>889.20001220703125</ele>
        <time>2026-08-21T13:12:43.000Z</time>
        <extensions>
          <ns3:TrackPointExtension>
            <ns3:hr>138</ns3:hr>
            <ns3:cad>0</ns3:cad>
          </ns3:TrackPointExtension>
        </extensions>
      </trkpt>
      <trkpt lat="45.30440750531852245330810546875" lon="-70.81177921034395694732666015625">
        <ele>889.4000244140625</ele>
        <time>2026-08-21T13:12:44.000Z</time>
        <extensions>
          <ns3:TrackPointExtension>
            <ns3:hr>138</ns3:hr>
            <ns3:cad>42</ns3:cad>
          </ns3:TrackPointExtension>
        </extensions>
      </trkpt>
      <trkpt lat="45.3044067509472370147705078125" lon="-70.8117769472301006317138671875">
        <ele>889.5999755859375</ele>
        <time>2026-08-21T13:12:45.000Z</time>
        <extensions>
          <ns3:TrackPointExtension>
            <ns3:hr>138</ns3:hr>
            <ns3:cad>42</ns3:cad>
          </ns3:TrackPointExtension>
        </extensions>
      </trkpt>
      <trkpt lat="45.3043923340737819671630859375" lon="-70.81176881678402423858642578125">
        <ele>889.79998779296875</ele>
        <time>2026-08-21T13:12:46.000Z</time>
        <extensions>
          <ns3:TrackPointExtension>
            <ns3:hr>139</ns3:hr>
            <ns3:cad>0</ns3:cad>
          </ns3:TrackPointExtension>
        </extensions>
      </trkpt>
      <trkpt lat="45.304388813674449920654296875" lon="-70.81176797859370708465576171875">
        <ele>890.20001220703125</ele>
        <time>2026-08-21T13:12:47.000Z</time>
        <extensions>
          <ns3:TrackPointExtension>
            <ns3:hr>138</ns3:hr>
            <ns3:cad>0</ns3:cad>
          </ns3:TrackPointExtension>
        </extensions>
      </trkpt>
      <trkpt lat="45.30438101850450038909912109375" lon="-70.81176429055631160736083984375">
        <ele>890.4000244140625</ele>
        <time>2026-08-21T13:12:48.000Z</time>
        <extensions>
          <ns3:TrackPointExtension>
            <ns3:hr>139</ns3:hr>
            <ns3:cad>41</ns3:cad>
          </ns3:TrackPointExtension>
        </extensions>
      </trkpt>
      <trkpt lat="45.30437096022069454193115234375" lon="-70.81175255589187145233154296875">
        <ele>890.79998779296875</ele>
        <time>2026-08-21T13:12:49.000Z</time>
        <extensions>
          <ns3:TrackPointExtension>
            <ns3:hr>140</ns3:hr>
            <ns3:cad>41</ns3:cad>
          </ns3:TrackPointExtension>
        </extensions>
      </trkpt>
      <trkpt lat="45.30436702072620391845703125" lon="-70.81175490282475948333740234375">
        <ele>891</ele>
        <time>2026-08-21T13:12:50.000Z</time>
        <extensions>
          <ns3:TrackPointExtension>
            <ns3:hr>140</ns3:hr>
            <ns3:cad>41</ns3:cad>
          </ns3:TrackPointExtension>
        </extensions>
      </trkpt>
      <trkpt lat="45.30435771681368350982666015625" lon="-70.81175456754863262176513671875">
        <ele>891.20001220703125</ele>
        <time>2026-08-21T13:12:51.000Z</time>
        <extensions>
          <ns3:TrackPointExtension>
            <ns3:hr>141</ns3:hr>
            <ns3:cad>0</ns3:cad>
          </ns3:TrackPointExtension>
        </extensions>
      </trkpt>
      <trkpt lat="45.30434732325375080108642578125" lon="-70.81175741739571094512939453125">
        <ele>891.4000244140625</ele>
        <time>2026-08-21T13:12:52.000Z</time>
        <extensions>
          <ns3:TrackPointExtension>
            <ns3:hr>141</ns3:hr>
            <ns3:cad>0</ns3:cad>
          </ns3:TrackPointExtension>
        </extensions>
      </trkpt>
      <trkpt lat="45.30434019863605499267578125" lon="-70.811758674681186676025390625">
        <ele>891.5999755859375</ele>
        <time>2026-08-21T13:12:53.000Z</time>
        <extensions>
          <ns3:TrackPointExtension>
            <ns3:hr>142</ns3:hr>
            <ns3:cad>0</ns3:cad>
          </ns3:TrackPointExtension>
        </extensions>
      </trkpt>
      <trkpt lat="45.3043336607515811920166015625" lon="-70.81176144070923328399658203125">
        <ele>891.79998779296875</ele>
        <time>2026-08-21T13:12:54.000Z</time>
        <extensions>
          <ns3:TrackPointExtension>
            <ns3:hr>143</ns3:hr>
            <ns3:cad>40</ns3:cad>
          </ns3:TrackPointExtension>
        </extensions>
      </trkpt>
      <trkpt lat="45.30432921834290027618408203125" lon="-70.811767391860485076904296875">
        <ele>892</ele>
        <time>2026-08-21T13:12:55.000Z</time>
        <extensions>
          <ns3:TrackPointExtension>
            <ns3:hr>144</ns3:hr>
            <ns3:cad>40</ns3:cad>
          </ns3:TrackPointExtension>
        </extensions>
      </trkpt>
      <trkpt lat="45.3043249435722827911376953125" lon="-70.81176982261240482330322265625">
        <ele>892.20001220703125</ele>
        <time>2026-08-21T13:12:56.000Z</time>
        <extensions>
          <ns3:TrackPointExtension>
            <ns3:hr>144</ns3:hr>
            <ns3:cad>40</ns3:cad>
          </ns3:TrackPointExtension>
        </extensions>
      </trkpt>
      <trkpt lat="45.30431337654590606689453125" lon="-70.81177736632525920867919921875">
        <ele>892.4000244140625</ele>
        <time>2026-08-21T13:12:57.000Z</time>
        <extensions>
          <ns3:TrackPointExtension>
            <ns3:hr>144</ns3:hr>
            <ns3:cad>40</ns3:cad>
          </ns3:TrackPointExtension>
        </extensions>
      </trkpt>
      <trkpt lat="45.3043068386614322662353515625" lon="-70.8117771148681640625">
        <ele>892.5999755859375</ele>
        <time>2026-08-21T13:12:58.000Z</time>
        <extensions>
          <ns3:TrackPointExtension>
            <ns3:hr>145</ns3:hr>
            <ns3:cad>0</ns3:cad>
          </ns3:TrackPointExtension>
        </extensions>
      </trkpt>
      <trkpt lat="45.30430491082370281219482421875" lon="-70.81177937798202037811279296875">
        <ele>892.79998779296875</ele>
        <time>2026-08-21T13:12:59.000Z</time>
        <extensions>
          <ns3:TrackPointExtension>
            <ns3:hr>145</ns3:hr>
            <ns3:cad>0</ns3:cad>
          </ns3:TrackPointExtension>
        </extensions>
      </trkpt>
      <trkpt lat="45.3042937628924846649169921875" lon="-70.811782814562320709228515625">
        <ele>893.20001220703125</ele>
        <time>2026-08-21T13:13:00.000Z</time>
        <extensions>
          <ns3:TrackPointExtension>
            <ns3:hr>145</ns3:hr>
            <ns3:cad>0</ns3:cad>
          </ns3:TrackPointExtension>
        </extensions>
      </trkpt>
      <trkpt lat="45.30429133214056491851806640625" lon="-70.81178046762943267822265625">
        <ele>893.4000244140625</ele>
        <time>2026-08-21T13:13:01.000Z</time>
        <extensions>
          <ns3:TrackPointExtension>
            <ns3:hr>145</ns3:hr>
            <ns3:cad>0</ns3:cad>
          </ns3:TrackPointExtension>
        </extensions>
      </trkpt>
      <trkpt lat="45.30428898520767688751220703125" lon="-70.811782814562320709228515625">
        <ele>893.5999755859375</ele>
        <time>2026-08-21T13:13:02.000Z</time>
        <extensions>
          <ns3:TrackPointExtension>
            <ns3:hr>145</ns3:hr>
            <ns3:cad>0</ns3:cad>
          </ns3:TrackPointExtension>
        </extensions>
      </trkpt>
      <trkpt lat="45.30428588390350341796875" lon="-70.8117829822003841400146484375">
        <ele>893.5999755859375</ele>
        <time>2026-08-21T13:13:03.000Z</time>
        <extensions>
          <ns3:TrackPointExtension>
            <ns3:hr>145</ns3:hr>
            <ns3:cad>0</ns3:cad>
          </ns3:TrackPointExtension>
        </extensions>
      </trkpt>
      <trkpt lat="45.30428596772253513336181640625" lon="-70.81178306601941585540771484375">
        <ele>893.5999755859375</ele>
        <time>2026-08-21T13:13:04.000Z</time>
        <extensions>
          <ns3:TrackPointExtension>
            <ns3:hr>145</ns3:hr>
            <ns3:cad>0</ns3:cad>
          </ns3:TrackPointExtension>
        </extensions>
      </trkpt>
      <trkpt lat="45.30428596772253513336181640625" lon="-70.81178306601941585540771484375">
        <ele>893.5999755859375</ele>
        <time>2026-08-21T13:13:05.000Z</time>
        <extensions>
          <ns3:TrackPointExtension>
            <ns3:hr>146</ns3:hr>
            <ns3:cad>0</ns3:cad>
          </ns3:TrackPointExtension>
        </extensions>
      </trkpt>
      <trkpt lat="45.30428596772253513336181640625" lon="-70.81178306601941585540771484375">
        <ele>893.5999755859375</ele>
        <time>2026-08-21T13:13:06.000Z</time>
        <extensions>
          <ns3:TrackPointExtension>
            <ns3:hr>146</ns3:hr>
            <ns3:cad>0</ns3:cad>
          </ns3:TrackPointExtension>
        </extensions>
      </trkpt>
      <trkpt lat="45.30428596772253513336181640625" lon="-70.81178306601941585540771484375">
        <ele>893.5999755859375</ele>
        <time>2026-08-21T13:13:07.000Z</time>
        <extensions>
          <ns3:TrackPointExtension>
            <ns3:hr>145</ns3:hr>
            <ns3:cad>0</ns3:cad>
          </ns3:TrackPointExtension>
        </extensions>
      </trkpt>
      <trkpt lat="45.30428596772253513336181640625" lon="-70.81178306601941585540771484375">
        <ele>893.5999755859375</ele>
        <time>2026-08-21T13:13:08.000Z</time>
        <extensions>
          <ns3:TrackPointExtension>
            <ns3:hr>144</ns3:hr>
            <ns3:cad>0</ns3:cad>
          </ns3:TrackPointExtension>
        </extensions>
      </trkpt>
      <trkpt lat="45.30428596772253513336181640625" lon="-70.81178306601941585540771484375">
        <ele>893.5999755859375</ele>
        <time>2026-08-21T13:13:09.000Z</time>
        <extensions>
          <ns3:TrackPointExtension>
            <ns3:hr>143</ns3:hr>
            <ns3:cad>0</ns3:cad>
          </ns3:TrackPointExtension>
        </extensions>
      </trkpt>
      <trkpt lat="45.30428546480834484100341796875" lon="-70.811783485114574432373046875">
        <ele>893.79998779296875</ele>
        <time>2026-08-21T13:13:10.000Z</time>
        <extensions>
          <ns3:TrackPointExtension>
            <ns3:hr>143</ns3:hr>
            <ns3:cad>0</ns3:cad>
          </ns3:TrackPointExtension>
        </extensions>
      </trkpt>
      <trkpt lat="45.30427515506744384765625" lon="-70.8117927052080631256103515625">
        <ele>894</ele>
        <time>2026-08-21T13:13:11.000Z</time>
        <extensions>
          <ns3:TrackPointExtension>
            <ns3:hr>143</ns3:hr>
            <ns3:cad>0</ns3:cad>
          </ns3:TrackPointExtension>
        </extensions>
      </trkpt>
      <trkpt lat="45.30426870100200176239013671875" lon="-70.81179848872125148773193359375">
        <ele>894.20001220703125</ele>
        <time>2026-08-21T13:13:12.000Z</time>
        <extensions>
          <ns3:TrackPointExtension>
            <ns3:hr>143</ns3:hr>
            <ns3:cad>0</ns3:cad>
          </ns3:TrackPointExtension>
        </extensions>
      </trkpt>
      <trkpt lat="45.30426098965108394622802734375" lon="-70.81180728971958160400390625">
        <ele>894.5999755859375</ele>
        <time>2026-08-21T13:13:13.000Z</time>
        <extensions>
          <ns3:TrackPointExtension>
            <ns3:hr>143</ns3:hr>
            <ns3:cad>41</ns3:cad>
          </ns3:TrackPointExtension>
        </extensions>
      </trkpt>
      <trkpt lat="45.30425730161368846893310546875" lon="-70.8118155039846897125244140625">
        <ele>894.79998779296875</ele>
        <time>2026-08-21T13:13:14.000Z</time>
        <extensions>
          <ns3:TrackPointExtension>
            <ns3:hr>142</ns3:hr>
            <ns3:cad>41</ns3:cad>
          </ns3:TrackPointExtension>
        </extensions>
      </trkpt>
      <trkpt lat="45.3042528592050075531005859375" lon="-70.811825729906558990478515625">
        <ele>895</ele>
        <time>2026-08-21T13:13:15.000Z</time>
        <extensions>
          <ns3:TrackPointExtension>
            <ns3:hr>142</ns3:hr>
            <ns3:cad>41</ns3:cad>
          </ns3:TrackPointExtension>
        </extensions>
      </trkpt>
      <trkpt lat="45.30424891971051692962646484375" lon="-70.81183008849620819091796875">
        <ele>895.20001220703125</ele>
        <time>2026-08-21T13:13:16.000Z</time>
        <extensions>
          <ns3:TrackPointExtension>
            <ns3:hr>142</ns3:hr>
            <ns3:cad>41</ns3:cad>
          </ns3:TrackPointExtension>
        </extensions>
      </trkpt>
      <trkpt lat="45.30424288474023342132568359375" lon="-70.81183386035263538360595703125">
        <ele>895.4000244140625</ele>
        <time>2026-08-21T13:13:17.000Z</time>
        <extensions>
          <ns3:TrackPointExtension>
            <ns3:hr>143</ns3:hr>
            <ns3:cad>45</ns3:cad>
          </ns3:TrackPointExtension>
        </extensions>
      </trkpt>
      <trkpt lat="45.30423693358898162841796875" lon="-70.81183738075196743011474609375">
        <ele>895.5999755859375</ele>
        <time>2026-08-21T13:13:18.000Z</time>
        <extensions>
          <ns3:TrackPointExtension>
            <ns3:hr>143</ns3:hr>
            <ns3:cad>0</ns3:cad>
          </ns3:TrackPointExtension>
        </extensions>
      </trkpt>
      <trkpt lat="45.30423047952353954315185546875" lon="-70.8118401467800140380859375">
        <ele>896</ele>
        <time>2026-08-21T13:13:19.000Z</time>
        <extensions>
          <ns3:TrackPointExtension>
            <ns3:hr>144</ns3:hr>
            <ns3:cad>0</ns3:cad>
          </ns3:TrackPointExtension>
        </extensions>
      </trkpt>
      <trkpt lat="45.30422779731452465057373046875" lon="-70.81184425391256809234619140625">
        <ele>896.20001220703125</ele>
        <time>2026-08-21T13:13:20.000Z</time>
        <extensions>
          <ns3:TrackPointExtension>
            <ns3:hr>144</ns3:hr>
            <ns3:cad>0</ns3:cad>
          </ns3:TrackPointExtension>
        </extensions>
      </trkpt>
      <trkpt lat="45.30421815812587738037109375" lon="-70.811846517026424407958984375">
        <ele>896.4000244140625</ele>
        <time>2026-08-21T13:13:21.000Z</time>
        <extensions>
          <ns3:TrackPointExtension>
            <ns3:hr>144</ns3:hr>
            <ns3:cad>0</ns3:cad>
          </ns3:TrackPointExtension>
        </extensions>
      </trkpt>
      <trkpt lat="45.3042065910995006561279296875" lon="-70.8118507079780101776123046875">
        <ele>896.5999755859375</ele>
        <time>2026-08-21T13:13:22.000Z</time>
        <extensions>
          <ns3:TrackPointExtension>
            <ns3:hr>145</ns3:hr>
            <ns3:cad>0</ns3:cad>
          </ns3:TrackPointExtension>
        </extensions>
      </trkpt>
      <trkpt lat="45.304205082356929779052734375" lon="-70.81185263581573963165283203125">
        <ele>897</ele>
        <time>2026-08-21T13:13:23.000Z</time>
        <extensions>
          <ns3:TrackPointExtension>
            <ns3:hr>146</ns3:hr>
            <ns3:cad>0</ns3:cad>
          </ns3:TrackPointExtension>
        </extensions>
      </trkpt>
      <trkpt lat="45.30419711954891681671142578125" lon="-70.81185959279537200927734375">
        <ele>897.20001220703125</ele>
        <time>2026-08-21T13:13:24.000Z</time>
        <extensions>
          <ns3:TrackPointExtension>
            <ns3:hr>146</ns3:hr>
            <ns3:cad>0</ns3:cad>
          </ns3:TrackPointExtension>
        </extensions>
      </trkpt>
      <trkpt lat="45.30418957583606243133544921875" lon="-70.81186168827116489410400390625">
        <ele>897.4000244140625</ele>
        <time>2026-08-21T13:13:25.000Z</time>
        <extensions>
          <ns3:TrackPointExtension>
            <ns3:hr>147</ns3:hr>
            <ns3:cad>0</ns3:cad>
          </ns3:TrackPointExtension>
        </extensions>
      </trkpt>
      <trkpt lat="45.3041861392557621002197265625" lon="-70.81186034716665744781494140625">
        <ele>897.79998779296875</ele>
        <time>2026-08-21T13:13:26.000Z</time>
        <extensions>
          <ns3:TrackPointExtension>
            <ns3:hr>147</ns3:hr>
            <ns3:cad>0</ns3:cad>
          </ns3:TrackPointExtension>
        </extensions>
      </trkpt>
      <trkpt lat="45.30418002046644687652587890625" lon="-70.8118664659559726715087890625">
        <ele>898</ele>
        <time>2026-08-21T13:13:27.000Z</time>
        <extensions>
          <ns3:TrackPointExtension>
            <ns3:hr>148</ns3:hr>
            <ns3:cad>0</ns3:cad>
          </ns3:TrackPointExtension>
        </extensions>
      </trkpt>
      <trkpt lat="45.30417599715292453765869140625" lon="-70.8118735067546367645263671875">
        <ele>898.20001220703125</ele>
        <time>2026-08-21T13:13:28.000Z</time>
        <extensions>
          <ns3:TrackPointExtension>
            <ns3:hr>148</ns3:hr>
            <ns3:cad>0</ns3:cad>
          </ns3:TrackPointExtension>
        </extensions>
      </trkpt>
      <trkpt lat="45.3041718900203704833984375" lon="-70.8118761889636516571044921875">
        <ele>898.4000244140625</ele>
        <time>2026-08-21T13:13:29.000Z</time>
        <extensions>
          <ns3:TrackPointExtension>
            <ns3:hr>148</ns3:hr>
            <ns3:cad>0</ns3:cad>
          </ns3:TrackPointExtension>
        </extensions>
      </trkpt>
      <trkpt lat="45.30417046509683132171630859375" lon="-70.81187660805881023406982421875">
        <ele>898.5999755859375</ele>
        <time>2026-08-21T13:13:30.000Z</time>
        <extensions>
          <ns3:TrackPointExtension>
            <ns3:hr>148</ns3:hr>
            <ns3:cad>0</ns3:cad>
          </ns3:TrackPointExtension>
        </extensions>
      </trkpt>
      <trkpt lat="45.30416225083172321319580078125" lon="-70.81188096664845943450927734375">
        <ele>898.79998779296875</ele>
        <time>2026-08-21T13:13:31.000Z</time>
        <extensions>
          <ns3:TrackPointExtension>
            <ns3:hr>148</ns3:hr>
            <ns3:cad>0</ns3:cad>
          </ns3:TrackPointExtension>
        </extensions>
      </trkpt>
      <trkpt lat="45.3041557967662811279296875" lon="-70.8118803799152374267578125">
        <ele>899</ele>
        <time>2026-08-21T13:13:32.000Z</time>
        <extensions>
          <ns3:TrackPointExtension>
            <ns3:hr>147</ns3:hr>
            <ns3:cad>0</ns3:cad>
          </ns3:TrackPointExtension>
        </extensions>
      </trkpt>
      <trkpt lat="45.30415604822337627410888671875" lon="-70.81188105046749114990234375">
        <ele>899.20001220703125</ele>
        <time>2026-08-21T13:13:33.000Z</time>
        <extensions>
          <ns3:TrackPointExtension>
            <ns3:hr>147</ns3:hr>
            <ns3:cad>0</ns3:cad>
          </ns3:TrackPointExtension>
        </extensions>
      </trkpt>
      <trkpt lat="45.3041499294340610504150390625" lon="-70.811888091266155242919921875">
        <ele>899.4000244140625</ele>
        <time>2026-08-21T13:13:34.000Z</time>
        <extensions>
          <ns3:TrackPointExtension>
            <ns3:hr>147</ns3:hr>
            <ns3:cad>0</ns3:cad>
          </ns3:TrackPointExtension>
        </extensions>
      </trkpt>
      <trkpt lat="45.30414414592087268829345703125" lon="-70.8118964731693267822265625">
        <ele>899.5999755859375</ele>
        <time>2026-08-21T13:13:35.000Z</time>
        <extensions>
          <ns3:TrackPointExtension>
            <ns3:hr>147</ns3:hr>
            <ns3:cad>0</ns3:cad>
          </ns3:TrackPointExtension>
        </extensions>
      </trkpt>
      <trkpt lat="45.3041375242173671722412109375" lon="-70.81190041266381740570068359375">
        <ele>899.79998779296875</ele>
        <time>2026-08-21T13:13:36.000Z</time>
        <extensions>
          <ns3:TrackPointExtension>
            <ns3:hr>147</ns3:hr>
            <ns3:cad>0</ns3:cad>
          </ns3:TrackPointExtension>
        </extensions>
      </trkpt>
      <trkpt lat="45.3041294775903224945068359375" lon="-70.81190711818635463714599609375">
        <ele>900</ele>
        <time>2026-08-21T13:13:37.000Z</time>
        <extensions>
          <ns3:TrackPointExtension>
            <ns3:hr>148</ns3:hr>
            <ns3:cad>0</ns3:cad>
          </ns3:TrackPointExtension>
        </extensions>
      </trkpt>
      <trkpt lat="45.30412453226745128631591796875" lon="-70.8119174279272556304931640625">
        <ele>900.20001220703125</ele>
        <time>2026-08-21T13:13:38.000Z</time>
        <extensions>
          <ns3:TrackPointExtension>
            <ns3:hr>148</ns3:hr>
            <ns3:cad>0</ns3:cad>
          </ns3:TrackPointExtension>
        </extensions>
      </trkpt>
      <trkpt lat="45.30412268824875354766845703125" lon="-70.811928994953632354736328125">
        <ele>900.4000244140625</ele>
        <time>2026-08-21T13:13:39.000Z</time>
        <extensions>
          <ns3:TrackPointExtension>
            <ns3:hr>148</ns3:hr>
            <ns3:cad>47</ns3:cad>
          </ns3:TrackPointExtension>
        </extensions>
      </trkpt>
      <trkpt lat="45.30411380343139171600341796875" lon="-70.811943747103214263916015625">
        <ele>900.4000244140625</ele>
        <time>2026-08-21T13:13:40.000Z</time>
        <extensions>
          <ns3:TrackPointExtension>
            <ns3:hr>148</ns3:hr>
            <ns3:cad>47</ns3:cad>
          </ns3:TrackPointExtension>
        </extensions>
      </trkpt>
      <trkpt lat="45.3041090257465839385986328125" lon="-70.81195615231990814208984375">
        <ele>900.4000244140625</ele>
        <time>2026-08-21T13:13:41.000Z</time>
        <extensions>
          <ns3:TrackPointExtension>
            <ns3:hr>147</ns3:hr>
            <ns3:cad>47</ns3:cad>
          </ns3:TrackPointExtension>
        </extensions>
      </trkpt>
      <trkpt lat="45.30410273931920528411865234375" lon="-70.8119710721075534820556640625">
        <ele>900.4000244140625</ele>
        <time>2026-08-21T13:13:42.000Z</time>
        <extensions>
          <ns3:TrackPointExtension>
            <ns3:hr>147</ns3:hr>
            <ns3:cad>47</ns3:cad>
          </ns3:TrackPointExtension>
        </extensions>
      </trkpt>
      <trkpt lat="45.304099135100841522216796875" lon="-70.81198238767683506011962890625">
        <ele>900.20001220703125</ele>
        <time>2026-08-21T13:13:43.000Z</time>
        <extensions>
          <ns3:TrackPointExtension>
            <ns3:hr>147</ns3:hr>
            <ns3:cad>47</ns3:cad>
          </ns3:TrackPointExtension>
        </extensions>
      </trkpt>
      <trkpt lat="45.3040956147015094757080078125" lon="-70.81200283952057361602783203125">
        <ele>900.20001220703125</ele>
        <time>2026-08-21T13:13:44.000Z</time>
        <extensions>
          <ns3:TrackPointExtension>
            <ns3:hr>147</ns3:hr>
            <ns3:cad>47</ns3:cad>
          </ns3:TrackPointExtension>
        </extensions>
      </trkpt>
      <trkpt lat="45.30409536324441432952880859375" lon="-70.812020860612392425537109375">
        <ele>900</ele>
        <time>2026-08-21T13:13:45.000Z</time>
        <extensions>
          <ns3:TrackPointExtension>
            <ns3:hr>148</ns3:hr>
            <ns3:cad>47</ns3:cad>
          </ns3:TrackPointExtension>
        </extensions>
      </trkpt>
      <trkpt lat="45.30409402213990688323974609375" lon="-70.81204122863709926605224609375">
        <ele>899.79998779296875</ele>
        <time>2026-08-21T13:13:46.000Z</time>
        <extensions>
          <ns3:TrackPointExtension>
            <ns3:hr>148</ns3:hr>
            <ns3:cad>47</ns3:cad>
          </ns3:TrackPointExtension>
        </extensions>
      </trkpt>
      <trkpt lat="45.3040929324924945831298828125" lon="-70.81205782480537891387939453125">
        <ele>899.5999755859375</ele>
        <time>2026-08-21T13:13:47.000Z</time>
        <extensions>
          <ns3:TrackPointExtension>
            <ns3:hr>148</ns3:hr>
            <ns3:cad>55</ns3:cad>
          </ns3:TrackPointExtension>
        </extensions>
      </trkpt>
      <trkpt lat="45.30409209430217742919921875" lon="-70.812065117061138153076171875">
        <ele>899.5999755859375</ele>
        <time>2026-08-21T13:13:48.000Z</time>
        <extensions>
          <ns3:TrackPointExtension>
            <ns3:hr>148</ns3:hr>
            <ns3:cad>55</ns3:cad>
          </ns3:TrackPointExtension>
        </extensions>
      </trkpt>
      <trkpt lat="45.304088406264781951904296875" lon="-70.8120786957442760467529296875">
        <ele>899.5999755859375</ele>
        <time>2026-08-21T13:13:49.000Z</time>
        <extensions>
          <ns3:TrackPointExtension>
            <ns3:hr>147</ns3:hr>
            <ns3:cad>52</ns3:cad>
          </ns3:TrackPointExtension>
        </extensions>
      </trkpt>
      <trkpt lat="45.30408413149416446685791015625" lon="-70.812091939151287078857421875">
        <ele>899.5999755859375</ele>
        <time>2026-08-21T13:13:50.000Z</time>
        <extensions>
          <ns3:TrackPointExtension>
            <ns3:hr>147</ns3:hr>
            <ns3:cad>52</ns3:cad>
          </ns3:TrackPointExtension>
        </extensions>
      </trkpt>
      <trkpt lat="45.30408136546611785888671875" lon="-70.8120949566364288330078125">
        <ele>899.79998779296875</ele>
        <time>2026-08-21T13:13:51.000Z</time>
        <extensions>
          <ns3:TrackPointExtension>
            <ns3:hr>147</ns3:hr>
            <ns3:cad>52</ns3:cad>
          </ns3:TrackPointExtension>
        </extensions>
      </trkpt>
      <trkpt lat="45.304076671600341796875" lon="-70.81210124306380748748779296875">
        <ele>900.20001220703125</ele>
        <time>2026-08-21T13:13:52.000Z</time>
        <extensions>
          <ns3:TrackPointExtension>
            <ns3:hr>147</ns3:hr>
            <ns3:cad>52</ns3:cad>
          </ns3:TrackPointExtension>
        </extensions>
      </trkpt>
      <trkpt lat="45.3040694631636142730712890625" lon="-70.8121128939092159271240234375">
        <ele>900.4000244140625</ele>
        <time>2026-08-21T13:13:53.000Z</time>
        <extensions>
          <ns3:TrackPointExtension>
            <ns3:hr>147</ns3:hr>
            <ns3:cad>51</ns3:cad>
          </ns3:TrackPointExtension>
        </extensions>
      </trkpt>
      <trkpt lat="45.30406887643039226531982421875" lon="-70.812123455107212066650390625">
        <ele>900.79998779296875</ele>
        <time>2026-08-21T13:13:54.000Z</time>
        <extensions>
          <ns3:TrackPointExtension>
            <ns3:hr>146</ns3:hr>
            <ns3:cad>51</ns3:cad>
          </ns3:TrackPointExtension>
        </extensions>
      </trkpt>
      <trkpt lat="45.30406870879232883453369140625" lon="-70.812129490077495574951171875">
        <ele>901</ele>
        <time>2026-08-21T13:13:55.000Z</time>
        <extensions>
          <ns3:TrackPointExtension>
            <ns3:hr>146</ns3:hr>
            <ns3:cad>51</ns3:cad>
          </ns3:TrackPointExtension>
        </extensions>
      </trkpt>
      <trkpt lat="45.30406233854591846466064453125" lon="-70.8121450804173946380615234375">
        <ele>901.4000244140625</ele>
        <time>2026-08-21T13:13:56.000Z</time>
        <extensions>
          <ns3:TrackPointExtension>
            <ns3:hr>146</ns3:hr>
            <ns3:cad>50</ns3:cad>
          </ns3:TrackPointExtension>
        </extensions>
      </trkpt>
      <trkpt lat="45.3040570579469203948974609375" lon="-70.8121574856340885162353515625">
        <ele>901.5999755859375</ele>
        <time>2026-08-21T13:13:57.000Z</time>
        <extensions>
          <ns3:TrackPointExtension>
            <ns3:hr>147</ns3:hr>
            <ns3:cad>50</ns3:cad>
          </ns3:TrackPointExtension>
        </extensions>
      </trkpt>
      <trkpt lat="45.3040493465960025787353515625" lon="-70.81217098049819469451904296875">
        <ele>901.79998779296875</ele>
        <time>2026-08-21T13:13:58.000Z</time>
        <extensions>
          <ns3:TrackPointExtension>
            <ns3:hr>146</ns3:hr>
            <ns3:cad>51</ns3:cad>
          </ns3:TrackPointExtension>
        </extensions>
      </trkpt>
      <trkpt lat="45.30404247343540191650390625" lon="-70.812180452048778533935546875">
        <ele>902</ele>
        <time>2026-08-21T13:13:59.000Z</time>
        <extensions>
          <ns3:TrackPointExtension>
            <ns3:hr>145</ns3:hr>
            <ns3:cad>51</ns3:cad>
          </ns3:TrackPointExtension>
        </extensions>
      </trkpt>
      <trkpt lat="45.30403987504541873931884765625" lon="-70.81218548119068145751953125">
        <ele>902.20001220703125</ele>
        <time>2026-08-21T13:14:00.000Z</time>
        <extensions>
          <ns3:TrackPointExtension>
            <ns3:hr>145</ns3:hr>
            <ns3:cad>48</ns3:cad>
          </ns3:TrackPointExtension>
        </extensions>
      </trkpt>
      <trkpt lat="45.30403434298932552337646484375" lon="-70.81219176761806011199951171875">
        <ele>902.4000244140625</ele>
        <time>2026-08-21T13:14:01.000Z</time>
        <extensions>
          <ns3:TrackPointExtension>
            <ns3:hr>145</ns3:hr>
            <ns3:cad>48</ns3:cad>
          </ns3:TrackPointExtension>
        </extensions>
      </trkpt>
      <trkpt lat="45.304027386009693145751953125" lon="-70.8121943660080432891845703125">
        <ele>902.5999755859375</ele>
        <time>2026-08-21T13:14:02.000Z</time>
        <extensions>
          <ns3:TrackPointExtension>
            <ns3:hr>145</ns3:hr>
            <ns3:cad>48</ns3:cad>
          </ns3:TrackPointExtension>
        </extensions>
      </trkpt>
      <trkpt lat="45.3040230274200439453125" lon="-70.81219444982707500457763671875">
        <ele>902.5999755859375</ele>
        <time>2026-08-21T13:14:03.000Z</time>
        <extensions>
          <ns3:TrackPointExtension>
            <ns3:hr>144</ns3:hr>
            <ns3:cad>48</ns3:cad>
          </ns3:TrackPointExtension>
        </extensions>
      </trkpt>
      <trkpt lat="45.3040185011923313140869140625" lon="-70.8121968805789947509765625">
        <ele>902.79998779296875</ele>
        <time>2026-08-21T13:14:04.000Z</time>
        <extensions>
          <ns3:TrackPointExtension>
            <ns3:hr>145</ns3:hr>
            <ns3:cad>48</ns3:cad>
          </ns3:TrackPointExtension>
        </extensions>
      </trkpt>
      <trkpt lat="45.30401506461203098297119140625" lon="-70.8121987245976924896240234375">
        <ele>903</ele>
        <time>2026-08-21T13:14:05.000Z</time>
        <extensions>
          <ns3:TrackPointExtension>
            <ns3:hr>145</ns3:hr>
            <ns3:cad>46</ns3:cad>
          </ns3:TrackPointExtension>
        </extensions>
      </trkpt>
      <trkpt lat="45.30400919727981090545654296875" lon="-70.8122020773589611053466796875">
        <ele>903.20001220703125</ele>
        <time>2026-08-21T13:14:06.000Z</time>
        <extensions>
          <ns3:TrackPointExtension>
            <ns3:hr>145</ns3:hr>
            <ns3:cad>46</ns3:cad>
          </ns3:TrackPointExtension>
        </extensions>
      </trkpt>
      <trkpt lat="45.30400634743273258209228515625" lon="-70.81220584921538829803466796875">
        <ele>903.5999755859375</ele>
        <time>2026-08-21T13:14:07.000Z</time>
        <extensions>
          <ns3:TrackPointExtension>
            <ns3:hr>145</ns3:hr>
            <ns3:cad>46</ns3:cad>
          </ns3:TrackPointExtension>
        </extensions>
      </trkpt>
      <trkpt lat="45.303998887538909912109375" lon="-70.81220735795795917510986328125">
        <ele>903.79998779296875</ele>
        <time>2026-08-21T13:14:08.000Z</time>
        <extensions>
          <ns3:TrackPointExtension>
            <ns3:hr>145</ns3:hr>
            <ns3:cad>0</ns3:cad>
          </ns3:TrackPointExtension>
        </extensions>
      </trkpt>
      <trkpt lat="45.30399176292121410369873046875" lon="-70.81221054308116436004638671875">
        <ele>904</ele>
        <time>2026-08-21T13:14:09.000Z</time>
        <extensions>
          <ns3:TrackPointExtension>
            <ns3:hr>146</ns3:hr>
            <ns3:cad>0</ns3:cad>
          </ns3:TrackPointExtension>
        </extensions>
      </trkpt>
      <trkpt lat="45.30398807488381862640380859375" lon="-70.81221188418567180633544921875">
        <ele>904.20001220703125</ele>
        <time>2026-08-21T13:14:10.000Z</time>
        <extensions>
          <ns3:TrackPointExtension>
            <ns3:hr>146</ns3:hr>
            <ns3:cad>0</ns3:cad>
          </ns3:TrackPointExtension>
        </extensions>
      </trkpt>
      <trkpt lat="45.30398271046578884124755859375" lon="-70.812207274138927459716796875">
        <ele>904.4000244140625</ele>
        <time>2026-08-21T13:14:11.000Z</time>
        <extensions>
          <ns3:TrackPointExtension>
            <ns3:hr>146</ns3:hr>
            <ns3:cad>0</ns3:cad>
          </ns3:TrackPointExtension>
        </extensions>
      </trkpt>
      <trkpt lat="45.30397483147680759429931640625" lon="-70.812205933034420013427734375">
        <ele>904.5999755859375</ele>
        <time>2026-08-21T13:14:12.000Z</time>
        <extensions>
          <ns3:TrackPointExtension>
            <ns3:hr>146</ns3:hr>
            <ns3:cad>0</ns3:cad>
          </ns3:TrackPointExtension>
        </extensions>
      </trkpt>
      <trkpt lat="45.3039668686687946319580078125" lon="-70.81220283173024654388427734375">
        <ele>904.79998779296875</ele>
        <time>2026-08-21T13:14:13.000Z</time>
        <extensions>
          <ns3:TrackPointExtension>
            <ns3:hr>146</ns3:hr>
            <ns3:cad>0</ns3:cad>
          </ns3:TrackPointExtension>
        </extensions>
      </trkpt>
      <trkpt lat="45.303961336612701416015625" lon="-70.8122007362544536590576171875">
        <ele>905</ele>
        <time>2026-08-21T13:14:14.000Z</time>
        <extensions>
          <ns3:TrackPointExtension>
            <ns3:hr>146</ns3:hr>
            <ns3:cad>0</ns3:cad>
          </ns3:TrackPointExtension>
        </extensions>
      </trkpt>
      <trkpt lat="45.303955972194671630859375" lon="-70.812200568616390228271484375">
        <ele>905.4000244140625</ele>
        <time>2026-08-21T13:14:15.000Z</time>
        <extensions>
          <ns3:TrackPointExtension>
            <ns3:hr>145</ns3:hr>
            <ns3:cad>43</ns3:cad>
          </ns3:TrackPointExtension>
        </extensions>
      </trkpt>
      <trkpt lat="45.30394859611988067626953125" lon="-70.8122064359486103057861328125">
        <ele>905.5999755859375</ele>
        <time>2026-08-21T13:14:16.000Z</time>
        <extensions>
          <ns3:TrackPointExtension>
            <ns3:hr>145</ns3:hr>
            <ns3:cad>43</ns3:cad>
          </ns3:TrackPointExtension>
        </extensions>
      </trkpt>
      <trkpt lat="45.30393443070352077484130859375" lon="-70.81220836378633975982666015625">
        <ele>905.79998779296875</ele>
        <time>2026-08-21T13:14:17.000Z</time>
        <extensions>
          <ns3:TrackPointExtension>
            <ns3:hr>145</ns3:hr>
            <ns3:cad>43</ns3:cad>
          </ns3:TrackPointExtension>
        </extensions>
      </trkpt>
      <trkpt lat="45.3039259649813175201416015625" lon="-70.81220819614827632904052734375">
        <ele>906</ele>
        <time>2026-08-21T13:14:18.000Z</time>
        <extensions>
          <ns3:TrackPointExtension>
            <ns3:hr>146</ns3:hr>
            <ns3:cad>43</ns3:cad>
          </ns3:TrackPointExtension>
        </extensions>
      </trkpt>
      <trkpt lat="45.30391850508749485015869140625" lon="-70.8122054301202297210693359375">
        <ele>906.20001220703125</ele>
        <time>2026-08-21T13:14:19.000Z</time>
        <extensions>
          <ns3:TrackPointExtension>
            <ns3:hr>146</ns3:hr>
            <ns3:cad>43</ns3:cad>
          </ns3:TrackPointExtension>
        </extensions>
      </trkpt>
      <trkpt lat="45.3039143979549407958984375" lon="-70.8122030831873416900634765625">
        <ele>906.4000244140625</ele>
        <time>2026-08-21T13:14:20.000Z</time>
        <extensions>
          <ns3:TrackPointExtension>
            <ns3:hr>147</ns3:hr>
            <ns3:cad>0</ns3:cad>
          </ns3:TrackPointExtension>
        </extensions>
      </trkpt>
      <trkpt lat="45.303906016051769256591796875" lon="-70.81220501102507114410400390625">
        <ele>906.79998779296875</ele>
        <time>2026-08-21T13:14:21.000Z</time>
        <extensions>
          <ns3:TrackPointExtension>
            <ns3:hr>147</ns3:hr>
            <ns3:cad>0</ns3:cad>
          </ns3:TrackPointExtension>
        </extensions>
      </trkpt>
      <trkpt lat="45.3038957901298999786376953125" lon="-70.8122097887098789215087890625">
        <ele>907</ele>
        <time>2026-08-21T13:14:22.000Z</time>
        <extensions>
          <ns3:TrackPointExtension>
            <ns3:hr>148</ns3:hr>
            <ns3:cad>0</ns3:cad>
          </ns3:TrackPointExtension>
        </extensions>
      </trkpt>
      <trkpt lat="45.30388263054192066192626953125" lon="-70.81221825443208217620849609375">
        <ele>907.20001220703125</ele>
        <time>2026-08-21T13:14:23.000Z</time>
        <extensions>
          <ns3:TrackPointExtension>
            <ns3:hr>147</ns3:hr>
            <ns3:cad>0</ns3:cad>
          </ns3:TrackPointExtension>
        </extensions>
      </trkpt>
      <trkpt lat="45.3038709796965122222900390625" lon="-70.812229402363300323486328125">
        <ele>907.5999755859375</ele>
        <time>2026-08-21T13:14:24.000Z</time>
        <extensions>
          <ns3:TrackPointExtension>
            <ns3:hr>147</ns3:hr>
            <ns3:cad>0</ns3:cad>
          </ns3:TrackPointExtension>
        </extensions>
      </trkpt>
      <trkpt lat="45.30386486090719699859619140625" lon="-70.812238790094852447509765625">
        <ele>907.79998779296875</ele>
        <time>2026-08-21T13:14:25.000Z</time>
        <extensions>
          <ns3:TrackPointExtension>
            <ns3:hr>147</ns3:hr>
            <ns3:cad>0</ns3:cad>
          </ns3:TrackPointExtension>
        </extensions>
      </trkpt>
      <trkpt lat="45.3038527071475982666015625" lon="-70.81224524416029453277587890625">
        <ele>908</ele>
        <time>2026-08-21T13:14:26.000Z</time>
        <extensions>
          <ns3:TrackPointExtension>
            <ns3:hr>147</ns3:hr>
            <ns3:cad>0</ns3:cad>
          </ns3:TrackPointExtension>
        </extensions>
      </trkpt>
      <trkpt lat="45.3038461692631244659423828125" lon="-70.812255553901195526123046875">
        <ele>908.20001220703125</ele>
        <time>2026-08-21T13:14:27.000Z</time>
        <extensions>
          <ns3:TrackPointExtension>
            <ns3:hr>146</ns3:hr>
            <ns3:cad>0</ns3:cad>
          </ns3:TrackPointExtension>
        </extensions>
      </trkpt>
      <trkpt lat="45.303834937512874603271484375" lon="-70.81226888112723827362060546875">
        <ele>908.4000244140625</ele>
        <time>2026-08-21T13:14:28.000Z</time>
        <extensions>
          <ns3:TrackPointExtension>
            <ns3:hr>147</ns3:hr>
            <ns3:cad>0</ns3:cad>
          </ns3:TrackPointExtension>
        </extensions>
      </trkpt>
      <trkpt lat="45.3038230352103710174560546875" lon="-70.812281034886837005615234375">
        <ele>908.5999755859375</ele>
        <time>2026-08-21T13:14:29.000Z</time>
        <extensions>
          <ns3:TrackPointExtension>
            <ns3:hr>147</ns3:hr>
            <ns3:cad>0</ns3:cad>
          </ns3:TrackPointExtension>
        </extensions>
      </trkpt>
      <trkpt lat="45.303814820945262908935546875" lon="-70.81229620613157749176025390625">
        <ele>908.5999755859375</ele>
        <time>2026-08-21T13:14:30.000Z</time>
        <extensions>
          <ns3:TrackPointExtension>
            <ns3:hr>147</ns3:hr>
            <ns3:cad>0</ns3:cad>
          </ns3:TrackPointExtension>
        </extensions>
      </trkpt>
      <trkpt lat="45.3038056008517742156982421875" lon="-70.81230710260570049285888671875">
        <ele>908.5999755859375</ele>
        <time>2026-08-21T13:14:31.000Z</time>
        <extensions>
          <ns3:TrackPointExtension>
            <ns3:hr>148</ns3:hr>
            <ns3:cad>0</ns3:cad>
          </ns3:TrackPointExtension>
        </extensions>
      </trkpt>
      <trkpt lat="45.30379612930119037628173828125" lon="-70.81232202239334583282470703125">
        <ele>908.5999755859375</ele>
        <time>2026-08-21T13:14:32.000Z</time>
        <extensions>
          <ns3:TrackPointExtension>
            <ns3:hr>149</ns3:hr>
            <ns3:cad>0</ns3:cad>
          </ns3:TrackPointExtension>
        </extensions>
      </trkpt>
      <trkpt lat="45.30379110015928745269775390625" lon="-70.8123418875038623809814453125">
        <ele>908.4000244140625</ele>
        <time>2026-08-21T13:14:33.000Z</time>
        <extensions>
          <ns3:TrackPointExtension>
            <ns3:hr>149</ns3:hr>
            <ns3:cad>0</ns3:cad>
          </ns3:TrackPointExtension>
        </extensions>
      </trkpt>
      <trkpt lat="45.303784646093845367431640625" lon="-70.812359489500522613525390625">
        <ele>908.4000244140625</ele>
        <time>2026-08-21T13:14:34.000Z</time>
        <extensions>
          <ns3:TrackPointExtension>
            <ns3:hr>149</ns3:hr>
            <ns3:cad>0</ns3:cad>
          </ns3:TrackPointExtension>
        </extensions>
      </trkpt>
      <trkpt lat="45.303779952228069305419921875" lon="-70.8123700506985187530517578125">
        <ele>908.20001220703125</ele>
        <time>2026-08-21T13:14:35.000Z</time>
        <extensions>
          <ns3:TrackPointExtension>
            <ns3:hr>150</ns3:hr>
            <ns3:cad>0</ns3:cad>
          </ns3:TrackPointExtension>
        </extensions>
      </trkpt>
      <trkpt lat="45.3037747554481029510498046875" lon="-70.8123846352100372314453125">
        <ele>908</ele>
        <time>2026-08-21T13:14:36.000Z</time>
        <extensions>
          <ns3:TrackPointExtension>
            <ns3:hr>150</ns3:hr>
            <ns3:cad>0</ns3:cad>
          </ns3:TrackPointExtension>
        </extensions>
      </trkpt>
      <trkpt lat="45.30377265997231006622314453125" lon="-70.8124139718711376190185546875">
        <ele>907.79998779296875</ele>
        <time>2026-08-21T13:14:37.000Z</time>
        <extensions>
          <ns3:TrackPointExtension>
            <ns3:hr>150</ns3:hr>
            <ns3:cad>0</ns3:cad>
          </ns3:TrackPointExtension>
        </extensions>
      </trkpt>
      <trkpt lat="45.30376897193491458892822265625" lon="-70.81243132241070270538330078125">
        <ele>907.79998779296875</ele>
        <time>2026-08-21T13:14:38.000Z</time>
        <extensions>
          <ns3:TrackPointExtension>
            <ns3:hr>150</ns3:hr>
            <ns3:cad>0</ns3:cad>
          </ns3:TrackPointExtension>
        </extensions>
      </trkpt>
      <trkpt lat="45.30376276932656764984130859375" lon="-70.81244967877864837646484375">
        <ele>907.5999755859375</ele>
        <time>2026-08-21T13:14:39.000Z</time>
        <extensions>
          <ns3:TrackPointExtension>
            <ns3:hr>151</ns3:hr>
            <ns3:cad>61</ns3:cad>
          </ns3:TrackPointExtension>
        </extensions>
      </trkpt>
      <trkpt lat="45.30376620590686798095703125" lon="-70.81247574649751186370849609375">
        <ele>907.5999755859375</ele>
        <time>2026-08-21T13:14:40.000Z</time>
        <extensions>
          <ns3:TrackPointExtension>
            <ns3:hr>150</ns3:hr>
            <ns3:cad>61</ns3:cad>
          </ns3:TrackPointExtension>
        </extensions>
      </trkpt>
      <trkpt lat="45.30376327224075794219970703125" lon="-70.8125065080821514129638671875">
        <ele>907.5999755859375</ele>
        <time>2026-08-21T13:14:41.000Z</time>
        <extensions>
          <ns3:TrackPointExtension>
            <ns3:hr>150</ns3:hr>
            <ns3:cad>55</ns3:cad>
          </ns3:TrackPointExtension>
        </extensions>
      </trkpt>
      <trkpt lat="45.30376059003174304962158203125" lon="-70.812533833086490631103515625">
        <ele>907.4000244140625</ele>
        <time>2026-08-21T13:14:42.000Z</time>
        <extensions>
          <ns3:TrackPointExtension>
            <ns3:hr>149</ns3:hr>
            <ns3:cad>55</ns3:cad>
          </ns3:TrackPointExtension>
        </extensions>
      </trkpt>
      <trkpt lat="45.30375547707080841064453125" lon="-70.81256241537630558013916015625">
        <ele>907.4000244140625</ele>
        <time>2026-08-21T13:14:43.000Z</time>
        <extensions>
          <ns3:TrackPointExtension>
            <ns3:hr>149</ns3:hr>
            <ns3:cad>55</ns3:cad>
          </ns3:TrackPointExtension>
        </extensions>
      </trkpt>
      <trkpt lat="45.30375354923307895660400390625" lon="-70.81258647143840789794921875">
        <ele>907.20001220703125</ele>
        <time>2026-08-21T13:14:44.000Z</time>
        <extensions>
          <ns3:TrackPointExtension>
            <ns3:hr>148</ns3:hr>
            <ns3:cad>57</ns3:cad>
          </ns3:TrackPointExtension>
        </extensions>
      </trkpt>
      <trkpt lat="45.30374944210052490234375" lon="-70.812614969909191131591796875">
        <ele>907.20001220703125</ele>
        <time>2026-08-21T13:14:45.000Z</time>
        <extensions>
          <ns3:TrackPointExtension>
            <ns3:hr>148</ns3:hr>
            <ns3:cad>57</ns3:cad>
          </ns3:TrackPointExtension>
        </extensions>
      </trkpt>
      <trkpt lat="45.303748436272144317626953125" lon="-70.812644474208354949951171875">
        <ele>907.20001220703125</ele>
        <time>2026-08-21T13:14:46.000Z</time>
        <extensions>
          <ns3:TrackPointExtension>
            <ns3:hr>147</ns3:hr>
            <ns3:cad>57</ns3:cad>
          </ns3:TrackPointExtension>
        </extensions>
      </trkpt>
      <trkpt lat="45.30374600552022457122802734375" lon="-70.81267188303172588348388671875">
        <ele>907.20001220703125</ele>
        <time>2026-08-21T13:14:47.000Z</time>
        <extensions>
          <ns3:TrackPointExtension>
            <ns3:hr>147</ns3:hr>
            <ns3:cad>57</ns3:cad>
          </ns3:TrackPointExtension>
        </extensions>
      </trkpt>
      <trkpt lat="45.3037475980818271636962890625" lon="-70.812692753970623016357421875">
        <ele>907</ele>
        <time>2026-08-21T13:14:48.000Z</time>
        <extensions>
          <ns3:TrackPointExtension>
            <ns3:hr>146</ns3:hr>
            <ns3:cad>57</ns3:cad>
          </ns3:TrackPointExtension>
        </extensions>
      </trkpt>
      <trkpt lat="45.3037455864250659942626953125" lon="-70.812713205814361572265625">
        <ele>907</ele>
        <time>2026-08-21T13:14:49.000Z</time>
        <extensions>
          <ns3:TrackPointExtension>
            <ns3:hr>146</ns3:hr>
            <ns3:cad>57</ns3:cad>
          </ns3:TrackPointExtension>
        </extensions>
      </trkpt>
      <trkpt lat="45.303735025227069854736328125" lon="-70.81274497322738170623779296875">
        <ele>907</ele>
        <time>2026-08-21T13:14:50.000Z</time>
        <extensions>
          <ns3:TrackPointExtension>
            <ns3:hr>145</ns3:hr>
            <ns3:cad>57</ns3:cad>
          </ns3:TrackPointExtension>
        </extensions>
      </trkpt>
      <trkpt lat="45.3037304989993572235107421875" lon="-70.81276592798531055450439453125">
        <ele>906.79998779296875</ele>
        <time>2026-08-21T13:14:51.000Z</time>
        <extensions>
          <ns3:TrackPointExtension>
            <ns3:hr>144</ns3:hr>
            <ns3:cad>66</ns3:cad>
          </ns3:TrackPointExtension>
        </extensions>
      </trkpt>
      <trkpt lat="45.30372521840035915374755859375" lon="-70.812776573002338409423828125">
        <ele>907</ele>
        <time>2026-08-21T13:14:52.000Z</time>
        <extensions>
          <ns3:TrackPointExtension>
            <ns3:hr>143</ns3:hr>
            <ns3:cad>66</ns3:cad>
          </ns3:TrackPointExtension>
        </extensions>
      </trkpt>
      <trkpt lat="45.30372236855328083038330078125" lon="-70.8127770759165287017822265625">
        <ele>907</ele>
        <time>2026-08-21T13:14:53.000Z</time>
        <extensions>
          <ns3:TrackPointExtension>
            <ns3:hr>143</ns3:hr>
            <ns3:cad>60</ns3:cad>
          </ns3:TrackPointExtension>
        </extensions>
      </trkpt>
      <trkpt lat="45.303721614181995391845703125" lon="-70.81277581863105297088623046875">
        <ele>907.4000244140625</ele>
        <time>2026-08-21T13:14:54.000Z</time>
        <extensions>
          <ns3:TrackPointExtension>
            <ns3:hr>142</ns3:hr>
            <ns3:cad>59</ns3:cad>
          </ns3:TrackPointExtension>
        </extensions>
      </trkpt>
      <trkpt lat="45.30371800996363162994384765625" lon="-70.812775231897830963134765625">
        <ele>907.5999755859375</ele>
        <time>2026-08-21T13:14:55.000Z</time>
        <extensions>
          <ns3:TrackPointExtension>
            <ns3:hr>141</ns3:hr>
            <ns3:cad>59</ns3:cad>
          </ns3:TrackPointExtension>
        </extensions>
      </trkpt>
      <trkpt lat="45.3037132322788238525390625" lon="-70.8127753995358943939208984375">
        <ele>907.79998779296875</ele>
        <time>2026-08-21T13:14:56.000Z</time>
        <extensions>
          <ns3:TrackPointExtension>
            <ns3:hr>140</ns3:hr>
            <ns3:cad>59</ns3:cad>
          </ns3:TrackPointExtension>
        </extensions>
      </trkpt>
      <trkpt lat="45.30370342545211315155029296875" lon="-70.81277699209749698638916015625">
        <ele>908.20001220703125</ele>
        <time>2026-08-21T13:14:57.000Z</time>
        <extensions>
          <ns3:TrackPointExtension>
            <ns3:hr>138</ns3:hr>
            <ns3:cad>59</ns3:cad>
          </ns3:TrackPointExtension>
        </extensions>
      </trkpt>
      <trkpt lat="45.3036932833492755889892578125" lon="-70.81278151832520961761474609375">
        <ele>908.5999755859375</ele>
        <time>2026-08-21T13:14:58.000Z</time>
        <extensions>
          <ns3:TrackPointExtension>
            <ns3:hr>137</ns3:hr>
            <ns3:cad>59</ns3:cad>
          </ns3:TrackPointExtension>
        </extensions>
      </trkpt>
      <trkpt lat="45.30368565581738948822021484375" lon="-70.8127878047525882720947265625">
        <ele>908.79998779296875</ele>
        <time>2026-08-21T13:14:59.000Z</time>
        <extensions>
          <ns3:TrackPointExtension>
            <ns3:hr>135</ns3:hr>
            <ns3:cad>0</ns3:cad>
          </ns3:TrackPointExtension>
        </extensions>
      </trkpt>
      <trkpt lat="45.30367962084710597991943359375" lon="-70.812794677913188934326171875">
        <ele>909.20001220703125</ele>
        <time>2026-08-21T13:15:00.000Z</time>
        <extensions>
          <ns3:TrackPointExtension>
            <ns3:hr>134</ns3:hr>
            <ns3:cad>0</ns3:cad>
          </ns3:TrackPointExtension>
        </extensions>
      </trkpt>
      <trkpt lat="45.30367559753358364105224609375" lon="-70.81280297599732875823974609375">
        <ele>909.4000244140625</ele>
        <time>2026-08-21T13:15:01.000Z</time>
        <extensions>
          <ns3:TrackPointExtension>
            <ns3:hr>134</ns3:hr>
            <ns3:cad>0</ns3:cad>
          </ns3:TrackPointExtension>
        </extensions>
      </trkpt>
      <trkpt lat="45.30367040075361728668212890625" lon="-70.8128136210143566131591796875">
        <ele>909.79998779296875</ele>
        <time>2026-08-21T13:15:02.000Z</time>
        <extensions>
          <ns3:TrackPointExtension>
            <ns3:hr>134</ns3:hr>
            <ns3:cad>0</ns3:cad>
          </ns3:TrackPointExtension>
        </extensions>
      </trkpt>
      <trkpt lat="45.30366185121238231658935546875" lon="-70.81282476894557476043701171875">
        <ele>910</ele>
        <time>2026-08-21T13:15:03.000Z</time>
        <extensions>
          <ns3:TrackPointExtension>
            <ns3:hr>134</ns3:hr>
            <ns3:cad>0</ns3:cad>
          </ns3:TrackPointExtension>
        </extensions>
      </trkpt>
      <trkpt lat="45.30365380458533763885498046875" lon="-70.81283482722938060760498046875">
        <ele>910.20001220703125</ele>
        <time>2026-08-21T13:15:04.000Z</time>
        <extensions>
          <ns3:TrackPointExtension>
            <ns3:hr>135</ns3:hr>
            <ns3:cad>0</ns3:cad>
          </ns3:TrackPointExtension>
        </extensions>
      </trkpt>
      <trkpt lat="45.30364416539669036865234375" lon="-70.81284555606544017791748046875">
        <ele>910.4000244140625</ele>
        <time>2026-08-21T13:15:05.000Z</time>
        <extensions>
          <ns3:TrackPointExtension>
            <ns3:hr>136</ns3:hr>
            <ns3:cad>48</ns3:cad>
          </ns3:TrackPointExtension>
        </extensions>
      </trkpt>
      <trkpt lat="45.30363553203642368316650390625" lon="-70.81285326741635799407958984375">
        <ele>910.5999755859375</ele>
        <time>2026-08-21T13:15:06.000Z</time>
        <extensions>
          <ns3:TrackPointExtension>
            <ns3:hr>136</ns3:hr>
            <ns3:cad>48</ns3:cad>
          </ns3:TrackPointExtension>
        </extensions>
      </trkpt>
      <trkpt lat="45.3036262281239032745361328125" lon="-70.81285536289215087890625">
        <ele>910.79998779296875</ele>
        <time>2026-08-21T13:15:07.000Z</time>
        <extensions>
          <ns3:TrackPointExtension>
            <ns3:hr>136</ns3:hr>
            <ns3:cad>48</ns3:cad>
          </ns3:TrackPointExtension>
        </extensions>
      </trkpt>
      <trkpt lat="45.30361876823008060455322265625" lon="-70.81285343505442142486572265625">
        <ele>911</ele>
        <time>2026-08-21T13:15:08.000Z</time>
        <extensions>
          <ns3:TrackPointExtension>
            <ns3:hr>136</ns3:hr>
            <ns3:cad>47</ns3:cad>
          </ns3:TrackPointExtension>
        </extensions>
      </trkpt>
      <trkpt lat="45.30361331999301910400390625" lon="-70.81285201013088226318359375">
        <ele>911.20001220703125</ele>
        <time>2026-08-21T13:15:09.000Z</time>
        <extensions>
          <ns3:TrackPointExtension>
            <ns3:hr>136</ns3:hr>
            <ns3:cad>47</ns3:cad>
          </ns3:TrackPointExtension>
        </extensions>
      </trkpt>
      <trkpt lat="45.303605608642101287841796875" lon="-70.8128498308360576629638671875">
        <ele>911.4000244140625</ele>
        <time>2026-08-21T13:15:10.000Z</time>
        <extensions>
          <ns3:TrackPointExtension>
            <ns3:hr>136</ns3:hr>
            <ns3:cad>48</ns3:cad>
          </ns3:TrackPointExtension>
        </extensions>
      </trkpt>
      <trkpt lat="45.303600244224071502685546875" lon="-70.81284857355058193206787109375">
        <ele>911.5999755859375</ele>
        <time>2026-08-21T13:15:11.000Z</time>
        <extensions>
          <ns3:TrackPointExtension>
            <ns3:hr>137</ns3:hr>
            <ns3:cad>49</ns3:cad>
          </ns3:TrackPointExtension>
        </extensions>
      </trkpt>
      <trkpt lat="45.30358918011188507080078125" lon="-70.8128427900373935699462890625">
        <ele>911.79998779296875</ele>
        <time>2026-08-21T13:15:12.000Z</time>
        <extensions>
          <ns3:TrackPointExtension>
            <ns3:hr>138</ns3:hr>
            <ns3:cad>49</ns3:cad>
          </ns3:TrackPointExtension>
        </extensions>
      </trkpt>
      <trkpt lat="45.3035737574100494384765625" lon="-70.8128434605896472930908203125">
        <ele>912</ele>
        <time>2026-08-21T13:15:13.000Z</time>
        <extensions>
          <ns3:TrackPointExtension>
            <ns3:hr>139</ns3:hr>
            <ns3:cad>49</ns3:cad>
          </ns3:TrackPointExtension>
        </extensions>
      </trkpt>
      <trkpt lat="45.3035658784210681915283203125" lon="-70.81284622661769390106201171875">
        <ele>912.20001220703125</ele>
        <time>2026-08-21T13:15:14.000Z</time>
        <extensions>
          <ns3:TrackPointExtension>
            <ns3:hr>140</ns3:hr>
            <ns3:cad>49</ns3:cad>
          </ns3:TrackPointExtension>
        </extensions>
      </trkpt>
      <trkpt lat="45.3035598434507846832275390625" lon="-70.8128471486270427703857421875">
        <ele>912.5999755859375</ele>
        <time>2026-08-21T13:15:15.000Z</time>
        <extensions>
          <ns3:TrackPointExtension>
            <ns3:hr>140</ns3:hr>
            <ns3:cad>48</ns3:cad>
          </ns3:TrackPointExtension>
        </extensions>
      </trkpt>
      <trkpt lat="45.30354836024343967437744140625" lon="-70.8128458075225353240966796875">
        <ele>912.79998779296875</ele>
        <time>2026-08-21T13:15:16.000Z</time>
        <extensions>
          <ns3:TrackPointExtension>
            <ns3:hr>140</ns3:hr>
            <ns3:cad>48</ns3:cad>
          </ns3:TrackPointExtension>
        </extensions>
      </trkpt>
      <trkpt lat="45.30354282818734645843505859375" lon="-70.81284706480801105499267578125">
        <ele>913</ele>
        <time>2026-08-21T13:15:17.000Z</time>
        <extensions>
          <ns3:TrackPointExtension>
            <ns3:hr>140</ns3:hr>
            <ns3:cad>48</ns3:cad>
          </ns3:TrackPointExtension>
        </extensions>
      </trkpt>
      <trkpt lat="45.30352908186614513397216796875" lon="-70.81285075284540653228759765625">
        <ele>913.4000244140625</ele>
        <time>2026-08-21T13:15:18.000Z</time>
        <extensions>
          <ns3:TrackPointExtension>
            <ns3:hr>140</ns3:hr>
            <ns3:cad>48</ns3:cad>
          </ns3:TrackPointExtension>
        </extensions>
      </trkpt>
      <trkpt lat="45.30351541936397552490234375" lon="-70.8128540217876434326171875">
        <ele>913.5999755859375</ele>
        <time>2026-08-21T13:15:19.000Z</time>
        <extensions>
          <ns3:TrackPointExtension>
            <ns3:hr>140</ns3:hr>
            <ns3:cad>48</ns3:cad>
          </ns3:TrackPointExtension>
        </extensions>
      </trkpt>
      <trkpt lat="45.3035040199756622314453125" lon="-70.8128562010824680328369140625">
        <ele>913.79998779296875</ele>
        <time>2026-08-21T13:15:20.000Z</time>
        <extensions>
          <ns3:TrackPointExtension>
            <ns3:hr>141</ns3:hr>
            <ns3:cad>50</ns3:cad>
          </ns3:TrackPointExtension>
        </extensions>
      </trkpt>
      <trkpt lat="45.303494967520236968994140625" lon="-70.81285460852086544036865234375">
        <ele>914</ele>
        <time>2026-08-21T13:15:21.000Z</time>
        <extensions>
          <ns3:TrackPointExtension>
            <ns3:hr>141</ns3:hr>
            <ns3:cad>50</ns3:cad>
          </ns3:TrackPointExtension>
        </extensions>
      </trkpt>
      <trkpt lat="45.30348381958901882171630859375" lon="-70.81285377033054828643798828125">
        <ele>914.20001220703125</ele>
        <time>2026-08-21T13:15:22.000Z</time>
        <extensions>
          <ns3:TrackPointExtension>
            <ns3:hr>142</ns3:hr>
            <ns3:cad>50</ns3:cad>
          </ns3:TrackPointExtension>
        </extensions>
      </trkpt>
      <trkpt lat="45.30347644351422786712646484375" lon="-70.81285259686410427093505859375">
        <ele>914.4000244140625</ele>
        <time>2026-08-21T13:15:23.000Z</time>
        <extensions>
          <ns3:TrackPointExtension>
            <ns3:hr>142</ns3:hr>
            <ns3:cad>50</ns3:cad>
          </ns3:TrackPointExtension>
        </extensions>
      </trkpt>
      <trkpt lat="45.30346554704010486602783203125" lon="-70.81285527907311916351318359375">
        <ele>914.5999755859375</ele>
        <time>2026-08-21T13:15:24.000Z</time>
        <extensions>
          <ns3:TrackPointExtension>
            <ns3:hr>142</ns3:hr>
            <ns3:cad>50</ns3:cad>
          </ns3:TrackPointExtension>
        </extensions>
      </trkpt>
      <trkpt lat="45.30345582403242588043212890625" lon="-70.81285628490149974822998046875">
        <ele>914.79998779296875</ele>
        <time>2026-08-21T13:15:25.000Z</time>
        <extensions>
          <ns3:TrackPointExtension>
            <ns3:hr>143</ns3:hr>
            <ns3:cad>50</ns3:cad>
          </ns3:TrackPointExtension>
        </extensions>
      </trkpt>
      <trkpt lat="45.30344425700604915618896484375" lon="-70.812855698168277740478515625">
        <ele>915</ele>
        <time>2026-08-21T13:15:26.000Z</time>
        <extensions>
          <ns3:TrackPointExtension>
            <ns3:hr>143</ns3:hr>
            <ns3:cad>50</ns3:cad>
          </ns3:TrackPointExtension>
        </extensions>
      </trkpt>
      <trkpt lat="45.3034401498734951019287109375" lon="-70.81285192631185054779052734375">
        <ele>915.20001220703125</ele>
        <time>2026-08-21T13:15:27.000Z</time>
        <extensions>
          <ns3:TrackPointExtension>
            <ns3:hr>144</ns3:hr>
            <ns3:cad>0</ns3:cad>
          </ns3:TrackPointExtension>
        </extensions>
      </trkpt>
      <trkpt lat="45.30343034304678440093994140625" lon="-70.81285226158797740936279296875">
        <ele>915.4000244140625</ele>
        <time>2026-08-21T13:15:28.000Z</time>
        <extensions>
          <ns3:TrackPointExtension>
            <ns3:hr>144</ns3:hr>
            <ns3:cad>0</ns3:cad>
          </ns3:TrackPointExtension>
        </extensions>
      </trkpt>
      <trkpt lat="45.30342145822942256927490234375" lon="-70.81285360269248485565185546875">
        <ele>915.5999755859375</ele>
        <time>2026-08-21T13:15:29.000Z</time>
        <extensions>
          <ns3:TrackPointExtension>
            <ns3:hr>144</ns3:hr>
            <ns3:cad>0</ns3:cad>
          </ns3:TrackPointExtension>
        </extensions>
      </trkpt>
      <trkpt lat="45.30341290868818759918212890625" lon="-70.81285544671118259429931640625">
        <ele>915.79998779296875</ele>
        <time>2026-08-21T13:15:30.000Z</time>
        <extensions>
          <ns3:TrackPointExtension>
            <ns3:hr>145</ns3:hr>
            <ns3:cad>0</ns3:cad>
          </ns3:TrackPointExtension>
        </extensions>
      </trkpt>
      <trkpt lat="45.30339983291923999786376953125" lon="-70.812860392034053802490234375">
        <ele>916</ele>
        <time>2026-08-21T13:15:31.000Z</time>
        <extensions>
          <ns3:TrackPointExtension>
            <ns3:hr>145</ns3:hr>
            <ns3:cad>0</ns3:cad>
          </ns3:TrackPointExtension>
        </extensions>
      </trkpt>
      <trkpt lat="45.3033844940364360809326171875" lon="-70.81286408007144927978515625">
        <ele>916.20001220703125</ele>
        <time>2026-08-21T13:15:32.000Z</time>
        <extensions>
          <ns3:TrackPointExtension>
            <ns3:hr>145</ns3:hr>
            <ns3:cad>0</ns3:cad>
          </ns3:TrackPointExtension>
        </extensions>
      </trkpt>
      <trkpt lat="45.3033697418868541717529296875" lon="-70.81287422217428684234619140625">
        <ele>916.20001220703125</ele>
        <time>2026-08-21T13:15:33.000Z</time>
        <extensions>
          <ns3:TrackPointExtension>
            <ns3:hr>146</ns3:hr>
            <ns3:cad>0</ns3:cad>
          </ns3:TrackPointExtension>
        </extensions>
      </trkpt>
      <trkpt lat="45.3033596836030483245849609375" lon="-70.81288159824907779693603515625">
        <ele>916.4000244140625</ele>
        <time>2026-08-21T13:15:34.000Z</time>
        <extensions>
          <ns3:TrackPointExtension>
            <ns3:hr>146</ns3:hr>
            <ns3:cad>48</ns3:cad>
          </ns3:TrackPointExtension>
        </extensions>
      </trkpt>
      <trkpt lat="45.30334987677633762359619140625" lon="-70.8128873817622661590576171875">
        <ele>916.4000244140625</ele>
        <time>2026-08-21T13:15:35.000Z</time>
        <extensions>
          <ns3:TrackPointExtension>
            <ns3:hr>146</ns3:hr>
            <ns3:cad>48</ns3:cad>
          </ns3:TrackPointExtension>
        </extensions>
      </trkpt>
      <trkpt lat="45.3033377230167388916015625" lon="-70.81289500929415225982666015625">
        <ele>916.5999755859375</ele>
        <time>2026-08-21T13:15:36.000Z</time>
        <extensions>
          <ns3:TrackPointExtension>
            <ns3:hr>146</ns3:hr>
            <ns3:cad>48</ns3:cad>
          </ns3:TrackPointExtension>
        </extensions>
      </trkpt>
      <trkpt lat="45.30332632362842559814453125" lon="-70.8129049837589263916015625">
        <ele>916.5999755859375</ele>
        <time>2026-08-21T13:15:37.000Z</time>
        <extensions>
          <ns3:TrackPointExtension>
            <ns3:hr>146</ns3:hr>
            <ns3:cad>49</ns3:cad>
          </ns3:TrackPointExtension>
        </extensions>
      </trkpt>
      <trkpt lat="45.30331425368785858154296875" lon="-70.812918059527873992919921875">
        <ele>916.5999755859375</ele>
        <time>2026-08-21T13:15:38.000Z</time>
        <extensions>
          <ns3:TrackPointExtension>
            <ns3:hr>146</ns3:hr>
            <ns3:cad>49</ns3:cad>
          </ns3:TrackPointExtension>
        </extensions>
      </trkpt>
      <trkpt lat="45.303306542336940765380859375" lon="-70.81292786635458469390869140625">
        <ele>916.79998779296875</ele>
        <time>2026-08-21T13:15:39.000Z</time>
        <extensions>
          <ns3:TrackPointExtension>
            <ns3:hr>147</ns3:hr>
            <ns3:cad>50</ns3:cad>
          </ns3:TrackPointExtension>
        </extensions>
      </trkpt>
      <trkpt lat="45.30329874716699123382568359375" lon="-70.8129380084574222564697265625">
        <ele>916.79998779296875</ele>
        <time>2026-08-21T13:15:40.000Z</time>
        <extensions>
          <ns3:TrackPointExtension>
            <ns3:hr>146</ns3:hr>
            <ns3:cad>50</ns3:cad>
          </ns3:TrackPointExtension>
        </extensions>
      </trkpt>
      <trkpt lat="45.3032899461686611175537109375" lon="-70.81295133568346500396728515625">
        <ele>916.79998779296875</ele>
        <time>2026-08-21T13:15:41.000Z</time>
        <extensions>
          <ns3:TrackPointExtension>
            <ns3:hr>146</ns3:hr>
            <ns3:cad>50</ns3:cad>
          </ns3:TrackPointExtension>
        </extensions>
      </trkpt>
      <trkpt lat="45.303280055522918701171875" lon="-70.8129618130624294281005859375">
        <ele>917</ele>
        <time>2026-08-21T13:15:42.000Z</time>
        <extensions>
          <ns3:TrackPointExtension>
            <ns3:hr>146</ns3:hr>
            <ns3:cad>49</ns3:cad>
          </ns3:TrackPointExtension>
        </extensions>
      </trkpt>
      <trkpt lat="45.30326840467751026153564453125" lon="-70.8129671774804592132568359375">
        <ele>917</ele>
        <time>2026-08-21T13:15:43.000Z</time>
        <extensions>
          <ns3:TrackPointExtension>
            <ns3:hr>147</ns3:hr>
            <ns3:cad>49</ns3:cad>
          </ns3:TrackPointExtension>
        </extensions>
      </trkpt>
      <trkpt lat="45.30326354317367076873779296875" lon="-70.81296910531818866729736328125">
        <ele>917.20001220703125</ele>
        <time>2026-08-21T13:15:44.000Z</time>
        <extensions>
          <ns3:TrackPointExtension>
            <ns3:hr>146</ns3:hr>
            <ns3:cad>48</ns3:cad>
          </ns3:TrackPointExtension>
        </extensions>
      </trkpt>
      <trkpt lat="45.3032557480037212371826171875" lon="-70.8129698596894741058349609375">
        <ele>917.5999755859375</ele>
        <time>2026-08-21T13:15:45.000Z</time>
        <extensions>
          <ns3:TrackPointExtension>
            <ns3:hr>146</ns3:hr>
            <ns3:cad>48</ns3:cad>
          </ns3:TrackPointExtension>
        </extensions>
      </trkpt>
      <trkpt lat="45.30324644409120082855224609375" lon="-70.8129715360701084136962890625">
        <ele>917.79998779296875</ele>
        <time>2026-08-21T13:15:46.000Z</time>
        <extensions>
          <ns3:TrackPointExtension>
            <ns3:hr>145</ns3:hr>
            <ns3:cad>50</ns3:cad>
          </ns3:TrackPointExtension>
        </extensions>
      </trkpt>
      <trkpt lat="45.3032383136451244354248046875" lon="-70.81297128461301326751708984375">
        <ele>918</ele>
        <time>2026-08-21T13:15:47.000Z</time>
        <extensions>
          <ns3:TrackPointExtension>
            <ns3:hr>146</ns3:hr>
            <ns3:cad>49</ns3:cad>
          </ns3:TrackPointExtension>
        </extensions>
      </trkpt>
      <trkpt lat="45.3032290935516357421875" lon="-70.81297262571752071380615234375">
        <ele>918.4000244140625</ele>
        <time>2026-08-21T13:15:48.000Z</time>
        <extensions>
          <ns3:TrackPointExtension>
            <ns3:hr>146</ns3:hr>
            <ns3:cad>49</ns3:cad>
          </ns3:TrackPointExtension>
        </extensions>
      </trkpt>
      <trkpt lat="45.303218699991703033447265625" lon="-70.812972374260425567626953125">
        <ele>918.5999755859375</ele>
        <time>2026-08-21T13:15:49.000Z</time>
        <extensions>
          <ns3:TrackPointExtension>
            <ns3:hr>146</ns3:hr>
            <ns3:cad>47</ns3:cad>
          </ns3:TrackPointExtension>
        </extensions>
      </trkpt>
      <trkpt lat="45.30321459285914897918701171875" lon="-70.8129712007939815521240234375">
        <ele>919</ele>
        <time>2026-08-21T13:15:50.000Z</time>
        <extensions>
          <ns3:TrackPointExtension>
            <ns3:hr>145</ns3:hr>
            <ns3:cad>47</ns3:cad>
          </ns3:TrackPointExtension>
        </extensions>
      </trkpt>
      <trkpt lat="45.30321023426949977874755859375" lon="-70.812969021499156951904296875">
        <ele>919.20001220703125</ele>
        <time>2026-08-21T13:15:51.000Z</time>
        <extensions>
          <ns3:TrackPointExtension>
            <ns3:hr>146</ns3:hr>
            <ns3:cad>47</ns3:cad>
          </ns3:TrackPointExtension>
        </extensions>
      </trkpt>
      <trkpt lat="45.303200595080852508544921875" lon="-70.8129748888313770294189453125">
        <ele>919.4000244140625</ele>
        <time>2026-08-21T13:15:52.000Z</time>
        <extensions>
          <ns3:TrackPointExtension>
            <ns3:hr>146</ns3:hr>
            <ns3:cad>47</ns3:cad>
          </ns3:TrackPointExtension>
        </extensions>
      </trkpt>
      <trkpt lat="45.30319514684379100799560546875" lon="-70.81297664903104305267333984375">
        <ele>919.5999755859375</ele>
        <time>2026-08-21T13:15:53.000Z</time>
        <extensions>
          <ns3:TrackPointExtension>
            <ns3:hr>146</ns3:hr>
            <ns3:cad>48</ns3:cad>
          </ns3:TrackPointExtension>
        </extensions>
      </trkpt>
      <trkpt lat="45.30318290926516056060791015625" lon="-70.8129862882196903228759765625">
        <ele>919.79998779296875</ele>
        <time>2026-08-21T13:15:54.000Z</time>
        <extensions>
          <ns3:TrackPointExtension>
            <ns3:hr>145</ns3:hr>
            <ns3:cad>48</ns3:cad>
          </ns3:TrackPointExtension>
        </extensions>
      </trkpt>
      <trkpt lat="45.30317368917167186737060546875" lon="-70.81299475394189357757568359375">
        <ele>920.20001220703125</ele>
        <time>2026-08-21T13:15:55.000Z</time>
        <extensions>
          <ns3:TrackPointExtension>
            <ns3:hr>145</ns3:hr>
            <ns3:cad>48</ns3:cad>
          </ns3:TrackPointExtension>
        </extensions>
      </trkpt>
      <trkpt lat="45.30316312797367572784423828125" lon="-70.813003890216350555419921875">
        <ele>920.4000244140625</ele>
        <time>2026-08-21T13:15:56.000Z</time>
        <extensions>
          <ns3:TrackPointExtension>
            <ns3:hr>145</ns3:hr>
            <ns3:cad>47</ns3:cad>
          </ns3:TrackPointExtension>
        </extensions>
      </trkpt>
      <trkpt lat="45.3031467832624912261962890625" lon="-70.813012607395648956298828125">
        <ele>920.5999755859375</ele>
        <time>2026-08-21T13:15:57.000Z</time>
        <extensions>
          <ns3:TrackPointExtension>
            <ns3:hr>145</ns3:hr>
            <ns3:cad>47</ns3:cad>
          </ns3:TrackPointExtension>
        </extensions>
      </trkpt>
      <trkpt lat="45.303135216236114501953125" lon="-70.81302157603204250335693359375">
        <ele>920.79998779296875</ele>
        <time>2026-08-21T13:15:58.000Z</time>
        <extensions>
          <ns3:TrackPointExtension>
            <ns3:hr>145</ns3:hr>
            <ns3:cad>47</ns3:cad>
          </ns3:TrackPointExtension>
        </extensions>
      </trkpt>
      <trkpt lat="45.30312842689454555511474609375" lon="-70.813032053411006927490234375">
        <ele>921</ele>
        <time>2026-08-21T13:15:59.000Z</time>
        <extensions>
          <ns3:TrackPointExtension>
            <ns3:hr>145</ns3:hr>
            <ns3:cad>47</ns3:cad>
          </ns3:TrackPointExtension>
        </extensions>
      </trkpt>
      <trkpt lat="45.30312038026750087738037109375" lon="-70.81304135732352733612060546875">
        <ele>921.20001220703125</ele>
        <time>2026-08-21T13:16:00.000Z</time>
        <extensions>
          <ns3:TrackPointExtension>
            <ns3:hr>145</ns3:hr>
            <ns3:cad>47</ns3:cad>
          </ns3:TrackPointExtension>
        </extensions>
      </trkpt>
      <trkpt lat="45.30311015434563159942626953125" lon="-70.81305728293955326080322265625">
        <ele>921.4000244140625</ele>
        <time>2026-08-21T13:16:01.000Z</time>
        <extensions>
          <ns3:TrackPointExtension>
            <ns3:hr>145</ns3:hr>
            <ns3:cad>48</ns3:cad>
          </ns3:TrackPointExtension>
        </extensions>
      </trkpt>
      <trkpt lat="45.30309741385281085968017578125" lon="-70.8130727894604206085205078125">
        <ele>921.4000244140625</ele>
        <time>2026-08-21T13:16:02.000Z</time>
        <extensions>
          <ns3:TrackPointExtension>
            <ns3:hr>145</ns3:hr>
            <ns3:cad>48</ns3:cad>
          </ns3:TrackPointExtension>
        </extensions>
      </trkpt>
      <trkpt lat="45.30308718793094158172607421875" lon="-70.81308402121067047119140625">
        <ele>921.4000244140625</ele>
        <time>2026-08-21T13:16:03.000Z</time>
        <extensions>
          <ns3:TrackPointExtension>
            <ns3:hr>145</ns3:hr>
            <ns3:cad>51</ns3:cad>
          </ns3:TrackPointExtension>
        </extensions>
      </trkpt>
      <trkpt lat="45.3030775487422943115234375" lon="-70.81309315748512744903564453125">
        <ele>921.4000244140625</ele>
        <time>2026-08-21T13:16:04.000Z</time>
        <extensions>
          <ns3:TrackPointExtension>
            <ns3:hr>144</ns3:hr>
            <ns3:cad>51</ns3:cad>
          </ns3:TrackPointExtension>
        </extensions>
      </trkpt>
      <trkpt lat="45.3030659817159175872802734375" lon="-70.8131007850170135498046875">
        <ele>921.4000244140625</ele>
        <time>2026-08-21T13:16:05.000Z</time>
        <extensions>
          <ns3:TrackPointExtension>
            <ns3:hr>145</ns3:hr>
            <ns3:cad>51</ns3:cad>
          </ns3:TrackPointExtension>
        </extensions>
      </trkpt>
      <trkpt lat="45.303056426346302032470703125" lon="-70.81310749053955078125">
        <ele>921.5999755859375</ele>
        <time>2026-08-21T13:16:06.000Z</time>
        <extensions>
          <ns3:TrackPointExtension>
            <ns3:hr>145</ns3:hr>
            <ns3:cad>55</ns3:cad>
          </ns3:TrackPointExtension>
        </extensions>
      </trkpt>
      <trkpt lat="45.303050391376018524169921875" lon="-70.8131093345582485198974609375">
        <ele>921.5999755859375</ele>
        <time>2026-08-21T13:16:07.000Z</time>
        <extensions>
          <ns3:TrackPointExtension>
            <ns3:hr>145</ns3:hr>
            <ns3:cad>55</ns3:cad>
          </ns3:TrackPointExtension>
        </extensions>
      </trkpt>
      <trkpt lat="45.30304661951959133148193359375" lon="-70.8131096698343753814697265625">
        <ele>921.79998779296875</ele>
        <time>2026-08-21T13:16:08.000Z</time>
        <extensions>
          <ns3:TrackPointExtension>
            <ns3:hr>145</ns3:hr>
            <ns3:cad>55</ns3:cad>
          </ns3:TrackPointExtension>
        </extensions>
      </trkpt>
      <trkpt lat="45.30303932726383209228515625" lon="-70.8131126873195171356201171875">
        <ele>922</ele>
        <time>2026-08-21T13:16:09.000Z</time>
        <extensions>
          <ns3:TrackPointExtension>
            <ns3:hr>145</ns3:hr>
            <ns3:cad>55</ns3:cad>
          </ns3:TrackPointExtension>
        </extensions>
      </trkpt>
      <trkpt lat="45.3030314482748508453369140625" lon="-70.81311126239597797393798828125">
        <ele>922.4000244140625</ele>
        <time>2026-08-21T13:16:10.000Z</time>
        <extensions>
          <ns3:TrackPointExtension>
            <ns3:hr>146</ns3:hr>
            <ns3:cad>51</ns3:cad>
          </ns3:TrackPointExtension>
        </extensions>
      </trkpt>
      <trkpt lat="45.30302683822810649871826171875" lon="-70.81311243586242198944091796875">
        <ele>922.5999755859375</ele>
        <time>2026-08-21T13:16:11.000Z</time>
        <extensions>
          <ns3:TrackPointExtension>
            <ns3:hr>146</ns3:hr>
            <ns3:cad>48</ns3:cad>
          </ns3:TrackPointExtension>
        </extensions>
      </trkpt>
      <trkpt lat="45.303021557629108428955078125" lon="-70.81310891546308994293212890625">
        <ele>923</ele>
        <time>2026-08-21T13:16:12.000Z</time>
        <extensions>
          <ns3:TrackPointExtension>
            <ns3:hr>146</ns3:hr>
            <ns3:cad>48</ns3:cad>
          </ns3:TrackPointExtension>
        </extensions>
      </trkpt>
      <trkpt lat="45.30301988124847412109375" lon="-70.81310086883604526519775390625">
        <ele>923.20001220703125</ele>
        <time>2026-08-21T13:16:13.000Z</time>
        <extensions>
          <ns3:TrackPointExtension>
            <ns3:hr>146</ns3:hr>
            <ns3:cad>48</ns3:cad>
          </ns3:TrackPointExtension>
        </extensions>
      </trkpt>
      <trkpt lat="45.3030197136104106903076171875" lon="-70.8130999468266963958740234375">
        <ele>923.5999755859375</ele>
        <time>2026-08-21T13:16:14.000Z</time>
        <extensions>
          <ns3:TrackPointExtension>
            <ns3:hr>146</ns3:hr>
            <ns3:cad>48</ns3:cad>
          </ns3:TrackPointExtension>
        </extensions>
      </trkpt>
      <trkpt lat="45.303020216524600982666015625" lon="-70.813098438084125518798828125">
        <ele>924</ele>
        <time>2026-08-21T13:16:15.000Z</time>
        <extensions>
          <ns3:TrackPointExtension>
            <ns3:hr>146</ns3:hr>
            <ns3:cad>48</ns3:cad>
          </ns3:TrackPointExtension>
        </extensions>
      </trkpt>
      <trkpt lat="45.3030197136104106903076171875" lon="-70.81309583969414234161376953125">
        <ele>924.20001220703125</ele>
        <time>2026-08-21T13:16:16.000Z</time>
        <extensions>
          <ns3:TrackPointExtension>
            <ns3:hr>145</ns3:hr>
            <ns3:cad>48</ns3:cad>
          </ns3:TrackPointExtension>
        </extensions>
      </trkpt>
      <trkpt lat="45.3030177019536495208740234375" lon="-70.813087709248065948486328125">
        <ele>924.4000244140625</ele>
        <time>2026-08-21T13:16:17.000Z</time>
        <extensions>
          <ns3:TrackPointExtension>
            <ns3:hr>145</ns3:hr>
            <ns3:cad>48</ns3:cad>
          </ns3:TrackPointExtension>
        </extensions>
      </trkpt>
      <trkpt lat="45.3030156902968883514404296875" lon="-70.8130798302590847015380859375">
        <ele>924.5999755859375</ele>
        <time>2026-08-21T13:16:18.000Z</time>
        <extensions>
          <ns3:TrackPointExtension>
            <ns3:hr>144</ns3:hr>
            <ns3:cad>48</ns3:cad>
          </ns3:TrackPointExtension>
        </extensions>
      </trkpt>
      <trkpt lat="45.30301074497401714324951171875" lon="-70.81307404674589633941650390625">
        <ele>925</ele>
        <time>2026-08-21T13:16:19.000Z</time>
        <extensions>
          <ns3:TrackPointExtension>
            <ns3:hr>144</ns3:hr>
            <ns3:cad>48</ns3:cad>
          </ns3:TrackPointExtension>
        </extensions>
      </trkpt>
      <trkpt lat="45.30300538055598735809326171875" lon="-70.81306616775691509246826171875">
        <ele>925</ele>
        <time>2026-08-21T13:16:20.000Z</time>
        <extensions>
          <ns3:TrackPointExtension>
            <ns3:hr>145</ns3:hr>
            <ns3:cad>44</ns3:cad>
          </ns3:TrackPointExtension>
        </extensions>
      </trkpt>
      <trkpt lat="45.30300135724246501922607421875" lon="-70.81305510364472866058349609375">
        <ele>925.20001220703125</ele>
        <time>2026-08-21T13:16:21.000Z</time>
        <extensions>
          <ns3:TrackPointExtension>
            <ns3:hr>145</ns3:hr>
            <ns3:cad>44</ns3:cad>
          </ns3:TrackPointExtension>
        </extensions>
      </trkpt>
      <trkpt lat="45.3029944002628326416015625" lon="-70.81304487772285938262939453125">
        <ele>925.4000244140625</ele>
        <time>2026-08-21T13:16:22.000Z</time>
        <extensions>
          <ns3:TrackPointExtension>
            <ns3:hr>145</ns3:hr>
            <ns3:cad>47</ns3:cad>
          </ns3:TrackPointExtension>
        </extensions>
      </trkpt>
      <trkpt lat="45.3029925562441349029541015625" lon="-70.813035070896148681640625">
        <ele>925.5999755859375</ele>
        <time>2026-08-21T13:16:23.000Z</time>
        <extensions>
          <ns3:TrackPointExtension>
            <ns3:hr>146</ns3:hr>
            <ns3:cad>47</ns3:cad>
          </ns3:TrackPointExtension>
        </extensions>
      </trkpt>
      <trkpt lat="45.30298492871224880218505859375" lon="-70.813020654022693634033203125">
        <ele>925.79998779296875</ele>
        <time>2026-08-21T13:16:24.000Z</time>
        <extensions>
          <ns3:TrackPointExtension>
            <ns3:hr>146</ns3:hr>
            <ns3:cad>47</ns3:cad>
          </ns3:TrackPointExtension>
        </extensions>
      </trkpt>
      <trkpt lat="45.302980653941631317138671875" lon="-70.81300917081534862518310546875">
        <ele>926</ele>
        <time>2026-08-21T13:16:25.000Z</time>
        <extensions>
          <ns3:TrackPointExtension>
            <ns3:hr>146</ns3:hr>
            <ns3:cad>47</ns3:cad>
          </ns3:TrackPointExtension>
        </extensions>
      </trkpt>
      <trkpt lat="45.30297269113361835479736328125" lon="-70.81299391575157642364501953125">
        <ele>926.20001220703125</ele>
        <time>2026-08-21T13:16:26.000Z</time>
        <extensions>
          <ns3:TrackPointExtension>
            <ns3:hr>146</ns3:hr>
            <ns3:cad>47</ns3:cad>
          </ns3:TrackPointExtension>
        </extensions>
      </trkpt>
      <trkpt lat="45.302965901792049407958984375" lon="-70.81297983415424823760986328125">
        <ele>926.5999755859375</ele>
        <time>2026-08-21T13:16:27.000Z</time>
        <extensions>
          <ns3:TrackPointExtension>
            <ns3:hr>146</ns3:hr>
            <ns3:cad>0</ns3:cad>
          </ns3:TrackPointExtension>
        </extensions>
      </trkpt>
      <trkpt lat="45.302959196269512176513671875" lon="-70.8129651658236980438232421875">
        <ele>926.79998779296875</ele>
        <time>2026-08-21T13:16:28.000Z</time>
        <extensions>
          <ns3:TrackPointExtension>
            <ns3:hr>146</ns3:hr>
            <ns3:cad>0</ns3:cad>
          </ns3:TrackPointExtension>
        </extensions>
      </trkpt>
      <trkpt lat="45.302947461605072021484375" lon="-70.8129517547786235809326171875">
        <ele>927.20001220703125</ele>
        <time>2026-08-21T13:16:29.000Z</time>
        <extensions>
          <ns3:TrackPointExtension>
            <ns3:hr>147</ns3:hr>
            <ns3:cad>0</ns3:cad>
          </ns3:TrackPointExtension>
        </extensions>
      </trkpt>
      <trkpt lat="45.30293949879705905914306640625" lon="-70.81294379197061061859130859375">
        <ele>927.4000244140625</ele>
        <time>2026-08-21T13:16:30.000Z</time>
        <extensions>
          <ns3:TrackPointExtension>
            <ns3:hr>148</ns3:hr>
            <ns3:cad>48</ns3:cad>
          </ns3:TrackPointExtension>
        </extensions>
      </trkpt>
      <trkpt lat="45.302931703627109527587890625" lon="-70.81293859519064426422119140625">
        <ele>927.5999755859375</ele>
        <time>2026-08-21T13:16:31.000Z</time>
        <extensions>
          <ns3:TrackPointExtension>
            <ns3:hr>148</ns3:hr>
            <ns3:cad>48</ns3:cad>
          </ns3:TrackPointExtension>
        </extensions>
      </trkpt>
      <trkpt lat="45.3029201366007328033447265625" lon="-70.8129306323826313018798828125">
        <ele>927.79998779296875</ele>
        <time>2026-08-21T13:16:32.000Z</time>
        <extensions>
          <ns3:TrackPointExtension>
            <ns3:hr>150</ns3:hr>
            <ns3:cad>49</ns3:cad>
          </ns3:TrackPointExtension>
        </extensions>
      </trkpt>
      <trkpt lat="45.30291083268821239471435546875" lon="-70.81291906535625457763671875">
        <ele>928</ele>
        <time>2026-08-21T13:16:33.000Z</time>
        <extensions>
          <ns3:TrackPointExtension>
            <ns3:hr>151</ns3:hr>
            <ns3:cad>49</ns3:cad>
          </ns3:TrackPointExtension>
        </extensions>
      </trkpt>
      <trkpt lat="45.30290379188954830169677734375" lon="-70.81290439702570438385009765625">
        <ele>928.20001220703125</ele>
        <time>2026-08-21T13:16:34.000Z</time>
        <extensions>
          <ns3:TrackPointExtension>
            <ns3:hr>151</ns3:hr>
            <ns3:cad>49</ns3:cad>
          </ns3:TrackPointExtension>
        </extensions>
      </trkpt>
      <trkpt lat="45.3028970025479793548583984375" lon="-70.81289492547512054443359375">
        <ele>928.4000244140625</ele>
        <time>2026-08-21T13:16:35.000Z</time>
        <extensions>
          <ns3:TrackPointExtension>
            <ns3:hr>151</ns3:hr>
            <ns3:cad>48</ns3:cad>
          </ns3:TrackPointExtension>
        </extensions>
      </trkpt>
      <trkpt lat="45.3028933145105838775634765625" lon="-70.8128836937248706817626953125">
        <ele>928.5999755859375</ele>
        <time>2026-08-21T13:16:36.000Z</time>
        <extensions>
          <ns3:TrackPointExtension>
            <ns3:hr>150</ns3:hr>
            <ns3:cad>47</ns3:cad>
          </ns3:TrackPointExtension>
        </extensions>
      </trkpt>
      <trkpt lat="45.30288669280707836151123046875" lon="-70.81287271343171596527099609375">
        <ele>928.79998779296875</ele>
        <time>2026-08-21T13:16:37.000Z</time>
        <extensions>
          <ns3:TrackPointExtension>
            <ns3:hr>151</ns3:hr>
            <ns3:cad>47</ns3:cad>
          </ns3:TrackPointExtension>
        </extensions>
      </trkpt>
      <trkpt lat="45.30287646688520908355712890625" lon="-70.81285662017762660980224609375">
        <ele>929</ele>
        <time>2026-08-21T13:16:38.000Z</time>
        <extensions>
          <ns3:TrackPointExtension>
            <ns3:hr>151</ns3:hr>
            <ns3:cad>47</ns3:cad>
          </ns3:TrackPointExtension>
        </extensions>
      </trkpt>
      <trkpt lat="45.3028594516217708587646484375" lon="-70.81283968873322010040283203125">
        <ele>929.20001220703125</ele>
        <time>2026-08-21T13:16:39.000Z</time>
        <extensions>
          <ns3:TrackPointExtension>
            <ns3:hr>151</ns3:hr>
            <ns3:cad>47</ns3:cad>
          </ns3:TrackPointExtension>
        </extensions>
      </trkpt>
      <trkpt lat="45.3028480522334575653076171875" lon="-70.812832228839397430419921875">
        <ele>929.20001220703125</ele>
        <time>2026-08-21T13:16:40.000Z</time>
        <extensions>
          <ns3:TrackPointExtension>
            <ns3:hr>152</ns3:hr>
            <ns3:cad>47</ns3:cad>
          </ns3:TrackPointExtension>
        </extensions>
      </trkpt>
      <trkpt lat="45.30283547937870025634765625" lon="-70.81282460130751132965087890625">
        <ele>929.4000244140625</ele>
        <time>2026-08-21T13:16:41.000Z</time>
        <extensions>
          <ns3:TrackPointExtension>
            <ns3:hr>154</ns3:hr>
            <ns3:cad>49</ns3:cad>
          </ns3:TrackPointExtension>
        </extensions>
      </trkpt>
      <trkpt lat="45.30282349325716495513916015625" lon="-70.8128166384994983673095703125">
        <ele>929.5999755859375</ele>
        <time>2026-08-21T13:16:42.000Z</time>
        <extensions>
          <ns3:TrackPointExtension>
            <ns3:hr>154</ns3:hr>
            <ns3:cad>49</ns3:cad>
          </ns3:TrackPointExtension>
        </extensions>
      </trkpt>
      <trkpt lat="45.30281444080173969268798828125" lon="-70.8128082565963268280029296875">
        <ele>929.79998779296875</ele>
        <time>2026-08-21T13:16:43.000Z</time>
        <extensions>
          <ns3:TrackPointExtension>
            <ns3:hr>154</ns3:hr>
            <ns3:cad>49</ns3:cad>
          </ns3:TrackPointExtension>
        </extensions>
      </trkpt>
      <trkpt lat="45.30280756764113903045654296875" lon="-70.81279459409415721893310546875">
        <ele>930</ele>
        <time>2026-08-21T13:16:44.000Z</time>
        <extensions>
          <ns3:TrackPointExtension>
            <ns3:hr>154</ns3:hr>
            <ns3:cad>50</ns3:cad>
          </ns3:TrackPointExtension>
        </extensions>
      </trkpt>
      <trkpt lat="45.30279583297669887542724609375" lon="-70.812781266868114471435546875">
        <ele>930.20001220703125</ele>
        <time>2026-08-21T13:16:45.000Z</time>
        <extensions>
          <ns3:TrackPointExtension>
            <ns3:hr>154</ns3:hr>
            <ns3:cad>50</ns3:cad>
          </ns3:TrackPointExtension>
        </extensions>
      </trkpt>
      <trkpt lat="45.30278510414063930511474609375" lon="-70.81276953220367431640625">
        <ele>930.4000244140625</ele>
        <time>2026-08-21T13:16:46.000Z</time>
        <extensions>
          <ns3:TrackPointExtension>
            <ns3:hr>154</ns3:hr>
            <ns3:cad>50</ns3:cad>
          </ns3:TrackPointExtension>
        </extensions>
      </trkpt>
      <trkpt lat="45.30277806334197521209716796875" lon="-70.81276324577629566192626953125">
        <ele>930.5999755859375</ele>
        <time>2026-08-21T13:16:47.000Z</time>
        <extensions>
          <ns3:TrackPointExtension>
            <ns3:hr>153</ns3:hr>
            <ns3:cad>50</ns3:cad>
          </ns3:TrackPointExtension>
        </extensions>
      </trkpt>
      <trkpt lat="45.302772782742977142333984375" lon="-70.812757126986980438232421875">
        <ele>930.79998779296875</ele>
        <time>2026-08-21T13:16:48.000Z</time>
        <extensions>
          <ns3:TrackPointExtension>
            <ns3:hr>153</ns3:hr>
            <ns3:cad>50</ns3:cad>
          </ns3:TrackPointExtension>
        </extensions>
      </trkpt>
      <trkpt lat="45.30276481993496417999267578125" lon="-70.81274472177028656005859375">
        <ele>931</ele>
        <time>2026-08-21T13:16:49.000Z</time>
        <extensions>
          <ns3:TrackPointExtension>
            <ns3:hr>152</ns3:hr>
            <ns3:cad>50</ns3:cad>
          </ns3:TrackPointExtension>
        </extensions>
      </trkpt>
      <trkpt lat="45.3027608804404735565185546875" lon="-70.812729299068450927734375">
        <ele>931.20001220703125</ele>
        <time>2026-08-21T13:16:50.000Z</time>
        <extensions>
          <ns3:TrackPointExtension>
            <ns3:hr>152</ns3:hr>
            <ns3:cad>50</ns3:cad>
          </ns3:TrackPointExtension>
        </extensions>
      </trkpt>
      <trkpt lat="45.3027528338134288787841796875" lon="-70.81271588802337646484375">
        <ele>931.4000244140625</ele>
        <time>2026-08-21T13:16:51.000Z</time>
        <extensions>
          <ns3:TrackPointExtension>
            <ns3:hr>152</ns3:hr>
            <ns3:cad>50</ns3:cad>
          </ns3:TrackPointExtension>
        </extensions>
      </trkpt>
      <trkpt lat="45.30274587683379650115966796875" lon="-70.81270691938698291778564453125">
        <ele>931.5999755859375</ele>
        <time>2026-08-21T13:16:52.000Z</time>
        <extensions>
          <ns3:TrackPointExtension>
            <ns3:hr>152</ns3:hr>
            <ns3:cad>50</ns3:cad>
          </ns3:TrackPointExtension>
        </extensions>
      </trkpt>
      <trkpt lat="45.30273917131125926971435546875" lon="-70.81269920803606510162353515625">
        <ele>932</ele>
        <time>2026-08-21T13:16:53.000Z</time>
        <extensions>
          <ns3:TrackPointExtension>
            <ns3:hr>152</ns3:hr>
            <ns3:cad>49</ns3:cad>
          </ns3:TrackPointExtension>
        </extensions>
      </trkpt>
      <trkpt lat="45.3027330525219440460205078125" lon="-70.8126865513622760772705078125">
        <ele>932.20001220703125</ele>
        <time>2026-08-21T13:16:54.000Z</time>
        <extensions>
          <ns3:TrackPointExtension>
            <ns3:hr>153</ns3:hr>
            <ns3:cad>49</ns3:cad>
          </ns3:TrackPointExtension>
        </extensions>
      </trkpt>
      <trkpt lat="45.30272559262812137603759765625" lon="-70.81267171539366245269775390625">
        <ele>932.4000244140625</ele>
        <time>2026-08-21T13:16:55.000Z</time>
        <extensions>
          <ns3:TrackPointExtension>
            <ns3:hr>152</ns3:hr>
            <ns3:cad>49</ns3:cad>
          </ns3:TrackPointExtension>
        </extensions>
      </trkpt>
      <trkpt lat="45.30271804891526699066162109375" lon="-70.8126573823392391204833984375">
        <ele>932.4000244140625</ele>
        <time>2026-08-21T13:16:56.000Z</time>
        <extensions>
          <ns3:TrackPointExtension>
            <ns3:hr>152</ns3:hr>
            <ns3:cad>49</ns3:cad>
          </ns3:TrackPointExtension>
        </extensions>
      </trkpt>
      <trkpt lat="45.302709750831127166748046875" lon="-70.8126394450664520263671875">
        <ele>932.5999755859375</ele>
        <time>2026-08-21T13:16:57.000Z</time>
        <extensions>
          <ns3:TrackPointExtension>
            <ns3:hr>152</ns3:hr>
            <ns3:cad>49</ns3:cad>
          </ns3:TrackPointExtension>
        </extensions>
      </trkpt>
      <trkpt lat="45.30270195566117763519287109375" lon="-70.8126265369355678558349609375">
        <ele>932.79998779296875</ele>
        <time>2026-08-21T13:16:58.000Z</time>
        <extensions>
          <ns3:TrackPointExtension>
            <ns3:hr>152</ns3:hr>
            <ns3:cad>47</ns3:cad>
          </ns3:TrackPointExtension>
        </extensions>
      </trkpt>
      <trkpt lat="45.30269659124314785003662109375" lon="-70.8126168139278888702392578125">
        <ele>933</ele>
        <time>2026-08-21T13:16:59.000Z</time>
        <extensions>
          <ns3:TrackPointExtension>
            <ns3:hr>151</ns3:hr>
            <ns3:cad>47</ns3:cad>
          </ns3:TrackPointExtension>
        </extensions>
      </trkpt>
      <trkpt lat="45.3026891313493251800537109375" lon="-70.81260298378765583038330078125">
        <ele>933.20001220703125</ele>
        <time>2026-08-21T13:17:00.000Z</time>
        <extensions>
          <ns3:TrackPointExtension>
            <ns3:hr>151</ns3:hr>
            <ns3:cad>49</ns3:cad>
          </ns3:TrackPointExtension>
        </extensions>
      </trkpt>
      <trkpt lat="45.30268569476902484893798828125" lon="-70.8125920034945011138916015625">
        <ele>933.4000244140625</ele>
        <time>2026-08-21T13:17:01.000Z</time>
        <extensions>
          <ns3:TrackPointExtension>
            <ns3:hr>150</ns3:hr>
            <ns3:cad>49</ns3:cad>
          </ns3:TrackPointExtension>
        </extensions>
      </trkpt>
      <trkpt lat="45.302683599293231964111328125" lon="-70.812580101191997528076171875">
        <ele>933.5999755859375</ele>
        <time>2026-08-21T13:17:02.000Z</time>
        <extensions>
          <ns3:TrackPointExtension>
            <ns3:hr>150</ns3:hr>
            <ns3:cad>49</ns3:cad>
          </ns3:TrackPointExtension>
        </extensions>
      </trkpt>
      <trkpt lat="45.3026800788938999176025390625" lon="-70.8125618286430835723876953125">
        <ele>933.79998779296875</ele>
        <time>2026-08-21T13:17:03.000Z</time>
        <extensions>
          <ns3:TrackPointExtension>
            <ns3:hr>150</ns3:hr>
            <ns3:cad>49</ns3:cad>
          </ns3:TrackPointExtension>
        </extensions>
      </trkpt>
      <trkpt lat="45.3026743791997432708740234375" lon="-70.81254431046545505523681640625">
        <ele>934</ele>
        <time>2026-08-21T13:17:04.000Z</time>
        <extensions>
          <ns3:TrackPointExtension>
            <ns3:hr>150</ns3:hr>
            <ns3:cad>49</ns3:cad>
          </ns3:TrackPointExtension>
        </extensions>
      </trkpt>
      <trkpt lat="45.302668511867523193359375" lon="-70.812529809772968292236328125">
        <ele>934.20001220703125</ele>
        <time>2026-08-21T13:17:05.000Z</time>
        <extensions>
          <ns3:TrackPointExtension>
            <ns3:hr>151</ns3:hr>
            <ns3:cad>47</ns3:cad>
          </ns3:TrackPointExtension>
        </extensions>
      </trkpt>
      <trkpt lat="45.302660465240478515625" lon="-70.81251162104308605194091796875">
        <ele>934.20001220703125</ele>
        <time>2026-08-21T13:17:06.000Z</time>
        <extensions>
          <ns3:TrackPointExtension>
            <ns3:hr>150</ns3:hr>
            <ns3:cad>47</ns3:cad>
          </ns3:TrackPointExtension>
        </extensions>
      </trkpt>
      <trkpt lat="45.30265443027019500732421875" lon="-70.81249795854091644287109375">
        <ele>934.4000244140625</ele>
        <time>2026-08-21T13:17:07.000Z</time>
        <extensions>
          <ns3:TrackPointExtension>
            <ns3:hr>150</ns3:hr>
            <ns3:cad>47</ns3:cad>
          </ns3:TrackPointExtension>
        </extensions>
      </trkpt>
      <trkpt lat="45.30264495871961116790771484375" lon="-70.8124843798577785491943359375">
        <ele>934.4000244140625</ele>
        <time>2026-08-21T13:17:08.000Z</time>
        <extensions>
          <ns3:TrackPointExtension>
            <ns3:hr>150</ns3:hr>
            <ns3:cad>50</ns3:cad>
          </ns3:TrackPointExtension>
        </extensions>
      </trkpt>
      <trkpt lat="45.30263565480709075927734375" lon="-70.81246954388916492462158203125">
        <ele>934.4000244140625</ele>
        <time>2026-08-21T13:17:09.000Z</time>
        <extensions>
          <ns3:TrackPointExtension>
            <ns3:hr>149</ns3:hr>
            <ns3:cad>50</ns3:cad>
          </ns3:TrackPointExtension>
        </extensions>
      </trkpt>
      <trkpt lat="45.30262635089457035064697265625" lon="-70.81245479173958301544189453125">
        <ele>934.4000244140625</ele>
        <time>2026-08-21T13:17:10.000Z</time>
        <extensions>
          <ns3:TrackPointExtension>
            <ns3:hr>149</ns3:hr>
            <ns3:cad>52</ns3:cad>
          </ns3:TrackPointExtension>
        </extensions>
      </trkpt>
      <trkpt lat="45.30262031592428684234619140625" lon="-70.81244163215160369873046875">
        <ele>934.5999755859375</ele>
        <time>2026-08-21T13:17:11.000Z</time>
        <extensions>
          <ns3:TrackPointExtension>
            <ns3:hr>148</ns3:hr>
            <ns3:cad>52</ns3:cad>
          </ns3:TrackPointExtension>
        </extensions>
      </trkpt>
      <trkpt lat="45.30261646024882793426513671875" lon="-70.81242780201137065887451171875">
        <ele>934.79998779296875</ele>
        <time>2026-08-21T13:17:12.000Z</time>
        <extensions>
          <ns3:TrackPointExtension>
            <ns3:hr>148</ns3:hr>
            <ns3:cad>52</ns3:cad>
          </ns3:TrackPointExtension>
        </extensions>
      </trkpt>
      <trkpt lat="45.30261193402111530303955078125" lon="-70.81241321749985218048095703125">
        <ele>935</ele>
        <time>2026-08-21T13:17:13.000Z</time>
        <extensions>
          <ns3:TrackPointExtension>
            <ns3:hr>147</ns3:hr>
            <ns3:cad>53</ns3:cad>
          </ns3:TrackPointExtension>
        </extensions>
      </trkpt>
      <trkpt lat="45.30260623432695865631103515625" lon="-70.81239360384643077850341796875">
        <ele>935.20001220703125</ele>
        <time>2026-08-21T13:17:14.000Z</time>
        <extensions>
          <ns3:TrackPointExtension>
            <ns3:hr>147</ns3:hr>
            <ns3:cad>53</ns3:cad>
          </ns3:TrackPointExtension>
        </extensions>
      </trkpt>
      <trkpt lat="45.3025969304144382476806640625" lon="-70.81237533129751682281494140625">
        <ele>935.20001220703125</ele>
        <time>2026-08-21T13:17:15.000Z</time>
        <extensions>
          <ns3:TrackPointExtension>
            <ns3:hr>147</ns3:hr>
            <ns3:cad>53</ns3:cad>
          </ns3:TrackPointExtension>
        </extensions>
      </trkpt>
      <trkpt lat="45.30259164981544017791748046875" lon="-70.81235437653958797454833984375">
        <ele>935.20001220703125</ele>
        <time>2026-08-21T13:17:16.000Z</time>
        <extensions>
          <ns3:TrackPointExtension>
            <ns3:hr>148</ns3:hr>
            <ns3:cad>53</ns3:cad>
          </ns3:TrackPointExtension>
        </extensions>
      </trkpt>
      <trkpt lat="45.3025855310261249542236328125" lon="-70.81233358941972255706787109375">
        <ele>935.20001220703125</ele>
        <time>2026-08-21T13:17:17.000Z</time>
        <extensions>
          <ns3:TrackPointExtension>
            <ns3:hr>148</ns3:hr>
            <ns3:cad>50</ns3:cad>
          </ns3:TrackPointExtension>
        </extensions>
      </trkpt>
      <trkpt lat="45.302579663693904876708984375" lon="-70.81231498159468173980712890625">
        <ele>935</ele>
        <time>2026-08-21T13:17:18.000Z</time>
        <extensions>
          <ns3:TrackPointExtension>
            <ns3:hr>148</ns3:hr>
            <ns3:cad>50</ns3:cad>
          </ns3:TrackPointExtension>
        </extensions>
      </trkpt>
      <trkpt lat="45.302571617066860198974609375" lon="-70.8122961223125457763671875">
        <ele>934.79998779296875</ele>
        <time>2026-08-21T13:17:19.000Z</time>
        <extensions>
          <ns3:TrackPointExtension>
            <ns3:hr>148</ns3:hr>
            <ns3:cad>50</ns3:cad>
          </ns3:TrackPointExtension>
        </extensions>
      </trkpt>
      <trkpt lat="45.3025625646114349365234375" lon="-70.812272988259792327880859375">
        <ele>934.79998779296875</ele>
        <time>2026-08-21T13:17:20.000Z</time>
        <extensions>
          <ns3:TrackPointExtension>
            <ns3:hr>148</ns3:hr>
            <ns3:cad>50</ns3:cad>
          </ns3:TrackPointExtension>
        </extensions>
      </trkpt>
      <trkpt lat="45.3025506623089313507080078125" lon="-70.81225379370152950286865234375">
        <ele>934.5999755859375</ele>
        <time>2026-08-21T13:17:21.000Z</time>
        <extensions>
          <ns3:TrackPointExtension>
            <ns3:hr>148</ns3:hr>
            <ns3:cad>50</ns3:cad>
          </ns3:TrackPointExtension>
        </extensions>
      </trkpt>
      <trkpt lat="45.302534401416778564453125" lon="-70.8122345991432666778564453125">
        <ele>934.5999755859375</ele>
        <time>2026-08-21T13:17:22.000Z</time>
        <extensions>
          <ns3:TrackPointExtension>
            <ns3:hr>148</ns3:hr>
            <ns3:cad>50</ns3:cad>
          </ns3:TrackPointExtension>
        </extensions>
      </trkpt>
      <trkpt lat="45.30251001007854938507080078125" lon="-70.812224708497524261474609375">
        <ele>934.5999755859375</ele>
        <time>2026-08-21T13:17:23.000Z</time>
        <extensions>
          <ns3:TrackPointExtension>
            <ns3:hr>148</ns3:hr>
            <ns3:cad>50</ns3:cad>
          </ns3:TrackPointExtension>
        </extensions>
      </trkpt>
      <trkpt lat="45.3024929948151111602783203125" lon="-70.81222211010754108428955078125">
        <ele>934.5999755859375</ele>
        <time>2026-08-21T13:17:24.000Z</time>
        <extensions>
          <ns3:TrackPointExtension>
            <ns3:hr>148</ns3:hr>
            <ns3:cad>50</ns3:cad>
          </ns3:TrackPointExtension>
        </extensions>
      </trkpt>
      <trkpt lat="45.30247581191360950469970703125" lon="-70.8122205175459384918212890625">
        <ele>934.4000244140625</ele>
        <time>2026-08-21T13:17:25.000Z</time>
        <extensions>
          <ns3:TrackPointExtension>
            <ns3:hr>148</ns3:hr>
            <ns3:cad>58</ns3:cad>
          </ns3:TrackPointExtension>
        </extensions>
      </trkpt>
      <trkpt lat="45.30246122740209102630615234375" lon="-70.81222596578299999237060546875">
        <ele>934.4000244140625</ele>
        <time>2026-08-21T13:17:26.000Z</time>
        <extensions>
          <ns3:TrackPointExtension>
            <ns3:hr>147</ns3:hr>
            <ns3:cad>58</ns3:cad>
          </ns3:TrackPointExtension>
        </extensions>
      </trkpt>
      <trkpt lat="45.30244748108088970184326171875" lon="-70.81223250366747379302978515625">
        <ele>934.4000244140625</ele>
        <time>2026-08-21T13:17:27.000Z</time>
        <extensions>
          <ns3:TrackPointExtension>
            <ns3:hr>148</ns3:hr>
            <ns3:cad>58</ns3:cad>
          </ns3:TrackPointExtension>
        </extensions>
      </trkpt>
      <trkpt lat="45.30243105255067348480224609375" lon="-70.81224448978900909423828125">
        <ele>934.20001220703125</ele>
        <time>2026-08-21T13:17:28.000Z</time>
        <extensions>
          <ns3:TrackPointExtension>
            <ns3:hr>148</ns3:hr>
            <ns3:cad>58</ns3:cad>
          </ns3:TrackPointExtension>
        </extensions>
      </trkpt>
      <trkpt lat="45.3024152107536792755126953125" lon="-70.8122516982257366180419921875">
        <ele>934.20001220703125</ele>
        <time>2026-08-21T13:17:29.000Z</time>
        <extensions>
          <ns3:TrackPointExtension>
            <ns3:hr>147</ns3:hr>
            <ns3:cad>58</ns3:cad>
          </ns3:TrackPointExtension>
        </extensions>
      </trkpt>
      <trkpt lat="45.3024069964885711669921875" lon="-70.8122423104941844940185546875">
        <ele>934.20001220703125</ele>
        <time>2026-08-21T13:17:30.000Z</time>
        <extensions>
          <ns3:TrackPointExtension>
            <ns3:hr>145</ns3:hr>
            <ns3:cad>58</ns3:cad>
          </ns3:TrackPointExtension>
        </extensions>
      </trkpt>
      <trkpt lat="45.302397273480892181396484375" lon="-70.81223887391388416290283203125">
        <ele>934.20001220703125</ele>
        <time>2026-08-21T13:17:31.000Z</time>
        <extensions>
          <ns3:TrackPointExtension>
            <ns3:hr>144</ns3:hr>
            <ns3:cad>58</ns3:cad>
          </ns3:TrackPointExtension>
        </extensions>
      </trkpt>
      <trkpt lat="45.3023863770067691802978515625" lon="-70.81224759109318256378173828125">
        <ele>934</ele>
        <time>2026-08-21T13:17:32.000Z</time>
        <extensions>
          <ns3:TrackPointExtension>
            <ns3:hr>143</ns3:hr>
            <ns3:cad>58</ns3:cad>
          </ns3:TrackPointExtension>
        </extensions>
      </trkpt>
      <trkpt lat="45.30237724073231220245361328125" lon="-70.81225781701505184173583984375">
        <ele>934</ele>
        <time>2026-08-21T13:17:33.000Z</time>
        <extensions>
          <ns3:TrackPointExtension>
            <ns3:hr>142</ns3:hr>
            <ns3:cad>58</ns3:cad>
          </ns3:TrackPointExtension>
        </extensions>
      </trkpt>
      <trkpt lat="45.3023719601333141326904296875" lon="-70.8122644387185573577880859375">
        <ele>934</ele>
        <time>2026-08-21T13:17:34.000Z</time>
        <extensions>
          <ns3:TrackPointExtension>
            <ns3:hr>142</ns3:hr>
            <ns3:cad>44</ns3:cad>
          </ns3:TrackPointExtension>
        </extensions>
      </trkpt>
      <trkpt lat="45.30236617662012577056884765625" lon="-70.812272317707538604736328125">
        <ele>934</ele>
        <time>2026-08-21T13:17:35.000Z</time>
        <extensions>
          <ns3:TrackPointExtension>
            <ns3:hr>141</ns3:hr>
            <ns3:cad>44</ns3:cad>
          </ns3:TrackPointExtension>
        </extensions>
      </trkpt>
      <trkpt lat="45.30235276557505130767822265625" lon="-70.812278352677822113037109375">
        <ele>934</ele>
        <time>2026-08-21T13:17:36.000Z</time>
        <extensions>
          <ns3:TrackPointExtension>
            <ns3:hr>141</ns3:hr>
            <ns3:cad>44</ns3:cad>
          </ns3:TrackPointExtension>
        </extensions>
      </trkpt>
      <trkpt lat="45.30234103091061115264892578125" lon="-70.8122926019132137298583984375">
        <ele>934.20001220703125</ele>
        <time>2026-08-21T13:17:37.000Z</time>
        <extensions>
          <ns3:TrackPointExtension>
            <ns3:hr>140</ns3:hr>
            <ns3:cad>44</ns3:cad>
          </ns3:TrackPointExtension>
        </extensions>
      </trkpt>
      <trkpt lat="45.30232158489525318145751953125" lon="-70.81231598742306232452392578125">
        <ele>934.20001220703125</ele>
        <time>2026-08-21T13:17:38.000Z</time>
        <extensions>
          <ns3:TrackPointExtension>
            <ns3:hr>140</ns3:hr>
            <ns3:cad>44</ns3:cad>
          </ns3:TrackPointExtension>
        </extensions>
      </trkpt>
      <trkpt lat="45.30231437645852565765380859375" lon="-70.81234037876129150390625">
        <ele>934.4000244140625</ele>
        <time>2026-08-21T13:17:39.000Z</time>
        <extensions>
          <ns3:TrackPointExtension>
            <ns3:hr>139</ns3:hr>
            <ns3:cad>0</ns3:cad>
          </ns3:TrackPointExtension>
        </extensions>
      </trkpt>
      <trkpt lat="45.30231202952563762664794921875" lon="-70.81236225552856922149658203125">
        <ele>934.4000244140625</ele>
        <time>2026-08-21T13:17:40.000Z</time>
        <extensions>
          <ns3:TrackPointExtension>
            <ns3:hr>138</ns3:hr>
            <ns3:cad>0</ns3:cad>
          </ns3:TrackPointExtension>
        </extensions>
      </trkpt>
      <trkpt lat="45.30230683274567127227783203125" lon="-70.8123871497809886932373046875">
        <ele>934.4000244140625</ele>
        <time>2026-08-21T13:17:41.000Z</time>
        <extensions>
          <ns3:TrackPointExtension>
            <ns3:hr>138</ns3:hr>
            <ns3:cad>0</ns3:cad>
          </ns3:TrackPointExtension>
        </extensions>
      </trkpt>
      <trkpt lat="45.30230264179408550262451171875" lon="-70.8124052546918392181396484375">
        <ele>934.4000244140625</ele>
        <time>2026-08-21T13:17:42.000Z</time>
        <extensions>
          <ns3:TrackPointExtension>
            <ns3:hr>138</ns3:hr>
            <ns3:cad>0</ns3:cad>
          </ns3:TrackPointExtension>
        </extensions>
      </trkpt>
      <trkpt lat="45.30230549164116382598876953125" lon="-70.8124221861362457275390625">
        <ele>934.4000244140625</ele>
        <time>2026-08-21T13:17:43.000Z</time>
        <extensions>
          <ns3:TrackPointExtension>
            <ns3:hr>138</ns3:hr>
            <ns3:cad>0</ns3:cad>
          </ns3:TrackPointExtension>
        </extensions>
      </trkpt>
      <trkpt lat="45.30230884440243244171142578125" lon="-70.81244766712188720703125">
        <ele>934.4000244140625</ele>
        <time>2026-08-21T13:17:44.000Z</time>
        <extensions>
          <ns3:TrackPointExtension>
            <ns3:hr>137</ns3:hr>
            <ns3:cad>59</ns3:cad>
          </ns3:TrackPointExtension>
        </extensions>
      </trkpt>
      <trkpt lat="45.3023109398782253265380859375" lon="-70.8124746568500995635986328125">
        <ele>934.4000244140625</ele>
        <time>2026-08-21T13:17:45.000Z</time>
        <extensions>
          <ns3:TrackPointExtension>
            <ns3:hr>136</ns3:hr>
            <ns3:cad>59</ns3:cad>
          </ns3:TrackPointExtension>
        </extensions>
      </trkpt>
      <trkpt lat="45.3023092634975910186767578125" lon="-70.81249854527413845062255859375">
        <ele>934.4000244140625</ele>
        <time>2026-08-21T13:17:46.000Z</time>
        <extensions>
          <ns3:TrackPointExtension>
            <ns3:hr>136</ns3:hr>
            <ns3:cad>56</ns3:cad>
          </ns3:TrackPointExtension>
        </extensions>
      </trkpt>
      <trkpt lat="45.30230867676436901092529296875" lon="-70.812521092593669891357421875">
        <ele>934.5999755859375</ele>
        <time>2026-08-21T13:17:47.000Z</time>
        <extensions>
          <ns3:TrackPointExtension>
            <ns3:hr>136</ns3:hr>
            <ns3:cad>56</ns3:cad>
          </ns3:TrackPointExtension>
        </extensions>
      </trkpt>
      <trkpt lat="45.30230599455535411834716796875" lon="-70.81254648976027965545654296875">
        <ele>934.4000244140625</ele>
        <time>2026-08-21T13:17:48.000Z</time>
        <extensions>
          <ns3:TrackPointExtension>
            <ns3:hr>135</ns3:hr>
            <ns3:cad>56</ns3:cad>
          </ns3:TrackPointExtension>
        </extensions>
      </trkpt>
      <trkpt lat="45.3023023903369903564453125" lon="-70.8125772513449192047119140625">
        <ele>934.4000244140625</ele>
        <time>2026-08-21T13:17:49.000Z</time>
        <extensions>
          <ns3:TrackPointExtension>
            <ns3:hr>135</ns3:hr>
            <ns3:cad>0</ns3:cad>
          </ns3:TrackPointExtension>
        </extensions>
      </trkpt>
      <trkpt lat="45.302302055060863494873046875" lon="-70.81260859966278076171875">
        <ele>934.4000244140625</ele>
        <time>2026-08-21T13:17:50.000Z</time>
        <extensions>
          <ns3:TrackPointExtension>
            <ns3:hr>135</ns3:hr>
            <ns3:cad>0</ns3:cad>
          </ns3:TrackPointExtension>
        </extensions>
      </trkpt>
      <trkpt lat="45.3023028932511806488037109375" lon="-70.81263181753456592559814453125">
        <ele>934.20001220703125</ele>
        <time>2026-08-21T13:17:51.000Z</time>
        <extensions>
          <ns3:TrackPointExtension>
            <ns3:hr>134</ns3:hr>
            <ns3:cad>0</ns3:cad>
          </ns3:TrackPointExtension>
        </extensions>
      </trkpt>
      <trkpt lat="45.30229610390961170196533203125" lon="-70.81266735680401325225830078125">
        <ele>934.20001220703125</ele>
        <time>2026-08-21T13:17:52.000Z</time>
        <extensions>
          <ns3:TrackPointExtension>
            <ns3:hr>134</ns3:hr>
            <ns3:cad>0</ns3:cad>
          </ns3:TrackPointExtension>
        </extensions>
      </trkpt>
      <trkpt lat="45.3022889792919158935546875" lon="-70.81269233487546443939208984375">
        <ele>934.4000244140625</ele>
        <time>2026-08-21T13:17:53.000Z</time>
        <extensions>
          <ns3:TrackPointExtension>
            <ns3:hr>134</ns3:hr>
            <ns3:cad>0</ns3:cad>
          </ns3:TrackPointExtension>
        </extensions>
      </trkpt>
      <trkpt lat="45.302282273769378662109375" lon="-70.8127163909375667572021484375">
        <ele>934.4000244140625</ele>
        <time>2026-08-21T13:17:54.000Z</time>
        <extensions>
          <ns3:TrackPointExtension>
            <ns3:hr>134</ns3:hr>
            <ns3:cad>75</ns3:cad>
          </ns3:TrackPointExtension>
        </extensions>
      </trkpt>
      <trkpt lat="45.3022764064371585845947265625" lon="-70.81275017000734806060791015625">
        <ele>934.5999755859375</ele>
        <time>2026-08-21T13:17:55.000Z</time>
        <extensions>
          <ns3:TrackPointExtension>
            <ns3:hr>134</ns3:hr>
            <ns3:cad>75</ns3:cad>
          </ns3:TrackPointExtension>
        </extensions>
      </trkpt>
      <trkpt lat="45.30226861126720905303955078125" lon="-70.81277984194457530975341796875">
        <ele>934.79998779296875</ele>
        <time>2026-08-21T13:17:56.000Z</time>
        <extensions>
          <ns3:TrackPointExtension>
            <ns3:hr>133</ns3:hr>
            <ns3:cad>75</ns3:cad>
          </ns3:TrackPointExtension>
        </extensions>
      </trkpt>
      <trkpt lat="45.30225587077438831329345703125" lon="-70.81281169317662715911865234375">
        <ele>934.79998779296875</ele>
        <time>2026-08-21T13:17:57.000Z</time>
        <extensions>
          <ns3:TrackPointExtension>
            <ns3:hr>133</ns3:hr>
            <ns3:cad>75</ns3:cad>
          </ns3:TrackPointExtension>
        </extensions>
      </trkpt>
      <trkpt lat="45.3022536076605319976806640625" lon="-70.812842287123203277587890625">
        <ele>935</ele>
        <time>2026-08-21T13:17:58.000Z</time>
        <extensions>
          <ns3:TrackPointExtension>
            <ns3:hr>133</ns3:hr>
            <ns3:cad>75</ns3:cad>
          </ns3:TrackPointExtension>
        </extensions>
      </trkpt>
      <trkpt lat="45.3022485785186290740966796875" lon="-70.81287615001201629638671875">
        <ele>935.20001220703125</ele>
        <time>2026-08-21T13:17:59.000Z</time>
        <extensions>
          <ns3:TrackPointExtension>
            <ns3:hr>134</ns3:hr>
            <ns3:cad>75</ns3:cad>
          </ns3:TrackPointExtension>
        </extensions>
      </trkpt>
      <trkpt lat="45.3022460639476776123046875" lon="-70.8129121921956539154052734375">
        <ele>935.20001220703125</ele>
        <time>2026-08-21T13:18:00.000Z</time>
        <extensions>
          <ns3:TrackPointExtension>
            <ns3:hr>134</ns3:hr>
            <ns3:cad>75</ns3:cad>
          </ns3:TrackPointExtension>
        </extensions>
      </trkpt>
      <trkpt lat="45.30224430374801158905029296875" lon="-70.81294110976159572601318359375">
        <ele>935.4000244140625</ele>
        <time>2026-08-21T13:18:01.000Z</time>
        <extensions>
          <ns3:TrackPointExtension>
            <ns3:hr>134</ns3:hr>
            <ns3:cad>75</ns3:cad>
          </ns3:TrackPointExtension>
        </extensions>
      </trkpt>
      <trkpt lat="45.3022442199289798736572265625" lon="-70.81296809948980808258056640625">
        <ele>935.5999755859375</ele>
        <time>2026-08-21T13:18:02.000Z</time>
        <extensions>
          <ns3:TrackPointExtension>
            <ns3:hr>134</ns3:hr>
            <ns3:cad>75</ns3:cad>
          </ns3:TrackPointExtension>
        </extensions>
      </trkpt>
      <trkpt lat="45.30224530957639217376708984375" lon="-70.8129926584661006927490234375">
        <ele>935.5999755859375</ele>
        <time>2026-08-21T13:18:03.000Z</time>
        <extensions>
          <ns3:TrackPointExtension>
            <ns3:hr>134</ns3:hr>
            <ns3:cad>75</ns3:cad>
          </ns3:TrackPointExtension>
        </extensions>
      </trkpt>
      <trkpt lat="45.302241034805774688720703125" lon="-70.81302140839397907257080078125">
        <ele>935.79998779296875</ele>
        <time>2026-08-21T13:18:04.000Z</time>
        <extensions>
          <ns3:TrackPointExtension>
            <ns3:hr>135</ns3:hr>
            <ns3:cad>75</ns3:cad>
          </ns3:TrackPointExtension>
        </extensions>
      </trkpt>
      <trkpt lat="45.302234329283237457275390625" lon="-70.813040435314178466796875">
        <ele>936</ele>
        <time>2026-08-21T13:18:05.000Z</time>
        <extensions>
          <ns3:TrackPointExtension>
            <ns3:hr>135</ns3:hr>
            <ns3:cad>77</ns3:cad>
          </ns3:TrackPointExtension>
        </extensions>
      </trkpt>
      <trkpt lat="45.30222401954233646392822265625" lon="-70.8130644075572490692138671875">
        <ele>936.20001220703125</ele>
        <time>2026-08-21T13:18:06.000Z</time>
        <extensions>
          <ns3:TrackPointExtension>
            <ns3:hr>135</ns3:hr>
            <ns3:cad>77</ns3:cad>
          </ns3:TrackPointExtension>
        </extensions>
      </trkpt>
      <trkpt lat="45.302214212715625762939453125" lon="-70.8130855299532413482666015625">
        <ele>936.4000244140625</ele>
        <time>2026-08-21T13:18:07.000Z</time>
        <extensions>
          <ns3:TrackPointExtension>
            <ns3:hr>135</ns3:hr>
            <ns3:cad>77</ns3:cad>
          </ns3:TrackPointExtension>
        </extensions>
      </trkpt>
      <trkpt lat="45.30220222659409046173095703125" lon="-70.81311352550983428955078125">
        <ele>936.79998779296875</ele>
        <time>2026-08-21T13:18:08.000Z</time>
        <extensions>
          <ns3:TrackPointExtension>
            <ns3:hr>136</ns3:hr>
            <ns3:cad>75</ns3:cad>
          </ns3:TrackPointExtension>
        </extensions>
      </trkpt>
      <trkpt lat="45.302186720073223114013671875" lon="-70.81313171423971652984619140625">
        <ele>937</ele>
        <time>2026-08-21T13:18:09.000Z</time>
        <extensions>
          <ns3:TrackPointExtension>
            <ns3:hr>137</ns3:hr>
            <ns3:cad>75</ns3:cad>
          </ns3:TrackPointExtension>
        </extensions>
      </trkpt>
      <trkpt lat="45.30217557214200496673583984375" lon="-70.81315099261701107025146484375">
        <ele>937.20001220703125</ele>
        <time>2026-08-21T13:18:10.000Z</time>
        <extensions>
          <ns3:TrackPointExtension>
            <ns3:hr>137</ns3:hr>
            <ns3:cad>0</ns3:cad>
          </ns3:TrackPointExtension>
        </extensions>
      </trkpt>
      <trkpt lat="45.30216953717172145843505859375" lon="-70.8131706900894641876220703125">
        <ele>937.4000244140625</ele>
        <time>2026-08-21T13:18:11.000Z</time>
        <extensions>
          <ns3:TrackPointExtension>
            <ns3:hr>137</ns3:hr>
            <ns3:cad>0</ns3:cad>
          </ns3:TrackPointExtension>
        </extensions>
      </trkpt>
      <trkpt lat="45.3021640889346599578857421875" lon="-70.8131830953061580657958984375">
        <ele>937.5999755859375</ele>
        <time>2026-08-21T13:18:12.000Z</time>
        <extensions>
          <ns3:TrackPointExtension>
            <ns3:hr>138</ns3:hr>
            <ns3:cad>0</ns3:cad>
          </ns3:TrackPointExtension>
        </extensions>
      </trkpt>
      <trkpt lat="45.30215512029826641082763671875" lon="-70.81319675780832767486572265625">
        <ele>937.5999755859375</ele>
        <time>2026-08-21T13:18:13.000Z</time>
        <extensions>
          <ns3:TrackPointExtension>
            <ns3:hr>138</ns3:hr>
            <ns3:cad>0</ns3:cad>
          </ns3:TrackPointExtension>
        </extensions>
      </trkpt>
      <trkpt lat="45.30214824713766574859619140625" lon="-70.8132085762917995452880859375">
        <ele>937.79998779296875</ele>
        <time>2026-08-21T13:18:14.000Z</time>
        <extensions>
          <ns3:TrackPointExtension>
            <ns3:hr>138</ns3:hr>
            <ns3:cad>0</ns3:cad>
          </ns3:TrackPointExtension>
        </extensions>
      </trkpt>
      <trkpt lat="45.302143804728984832763671875" lon="-70.81321838311851024627685546875">
        <ele>938</ele>
        <time>2026-08-21T13:18:15.000Z</time>
        <extensions>
          <ns3:TrackPointExtension>
            <ns3:hr>139</ns3:hr>
            <ns3:cad>0</ns3:cad>
          </ns3:TrackPointExtension>
        </extensions>
      </trkpt>
      <trkpt lat="45.3021372668445110321044921875" lon="-70.8132300339639186859130859375">
        <ele>938.20001220703125</ele>
        <time>2026-08-21T13:18:16.000Z</time>
        <extensions>
          <ns3:TrackPointExtension>
            <ns3:hr>140</ns3:hr>
            <ns3:cad>0</ns3:cad>
          </ns3:TrackPointExtension>
        </extensions>
      </trkpt>
      <trkpt lat="45.3021292202174663543701171875" lon="-70.8132437802851200103759765625">
        <ele>938.4000244140625</ele>
        <time>2026-08-21T13:18:17.000Z</time>
        <extensions>
          <ns3:TrackPointExtension>
            <ns3:hr>141</ns3:hr>
            <ns3:cad>0</ns3:cad>
          </ns3:TrackPointExtension>
        </extensions>
      </trkpt>
      <trkpt lat="45.30212360434234142303466796875" lon="-70.81325962208211421966552734375">
        <ele>938.79998779296875</ele>
        <time>2026-08-21T13:18:18.000Z</time>
        <extensions>
          <ns3:TrackPointExtension>
            <ns3:hr>142</ns3:hr>
            <ns3:cad>52</ns3:cad>
          </ns3:TrackPointExtension>
        </extensions>
      </trkpt>
      <trkpt lat="45.302119664847850799560546875" lon="-70.8132699318230152130126953125">
        <ele>939</ele>
        <time>2026-08-21T13:18:19.000Z</time>
        <extensions>
          <ns3:TrackPointExtension>
            <ns3:hr>143</ns3:hr>
            <ns3:cad>52</ns3:cad>
          </ns3:TrackPointExtension>
        </extensions>
      </trkpt>
      <trkpt lat="45.3021132946014404296875" lon="-70.813280828297138214111328125">
        <ele>939.4000244140625</ele>
        <time>2026-08-21T13:18:20.000Z</time>
        <extensions>
          <ns3:TrackPointExtension>
            <ns3:hr>143</ns3:hr>
            <ns3:cad>51</ns3:cad>
          </ns3:TrackPointExtension>
        </extensions>
      </trkpt>
      <trkpt lat="45.30210751108825206756591796875" lon="-70.81328862346708774566650390625">
        <ele>939.5999755859375</ele>
        <time>2026-08-21T13:18:21.000Z</time>
        <extensions>
          <ns3:TrackPointExtension>
            <ns3:hr>144</ns3:hr>
            <ns3:cad>51</ns3:cad>
          </ns3:TrackPointExtension>
        </extensions>
      </trkpt>
      <trkpt lat="45.30210063792765140533447265625" lon="-70.81329717300832271575927734375">
        <ele>939.79998779296875</ele>
        <time>2026-08-21T13:18:22.000Z</time>
        <extensions>
          <ns3:TrackPointExtension>
            <ns3:hr>145</ns3:hr>
            <ns3:cad>51</ns3:cad>
          </ns3:TrackPointExtension>
        </extensions>
      </trkpt>
      <trkpt lat="45.30209359712898731231689453125" lon="-70.81330136395990848541259765625">
        <ele>940.20001220703125</ele>
        <time>2026-08-21T13:18:23.000Z</time>
        <extensions>
          <ns3:TrackPointExtension>
            <ns3:hr>145</ns3:hr>
            <ns3:cad>51</ns3:cad>
          </ns3:TrackPointExtension>
        </extensions>
      </trkpt>
      <trkpt lat="45.30208756215870380401611328125" lon="-70.813309662044048309326171875">
        <ele>940.4000244140625</ele>
        <time>2026-08-21T13:18:24.000Z</time>
        <extensions>
          <ns3:TrackPointExtension>
            <ns3:hr>145</ns3:hr>
            <ns3:cad>51</ns3:cad>
          </ns3:TrackPointExtension>
        </extensions>
      </trkpt>
      <trkpt lat="45.30207934789359569549560546875" lon="-70.81331091932952404022216796875">
        <ele>940.5999755859375</ele>
        <time>2026-08-21T13:18:25.000Z</time>
        <extensions>
          <ns3:TrackPointExtension>
            <ns3:hr>145</ns3:hr>
            <ns3:cad>51</ns3:cad>
          </ns3:TrackPointExtension>
        </extensions>
      </trkpt>
      <trkpt lat="45.30207507312297821044921875" lon="-70.813308991491794586181640625">
        <ele>941</ele>
        <time>2026-08-21T13:18:26.000Z</time>
        <extensions>
          <ns3:TrackPointExtension>
            <ns3:hr>144</ns3:hr>
            <ns3:cad>51</ns3:cad>
          </ns3:TrackPointExtension>
        </extensions>
      </trkpt>
      <trkpt lat="45.30206945724785327911376953125" lon="-70.8133148588240146636962890625">
        <ele>941.20001220703125</ele>
        <time>2026-08-21T13:18:27.000Z</time>
        <extensions>
          <ns3:TrackPointExtension>
            <ns3:hr>144</ns3:hr>
            <ns3:cad>51</ns3:cad>
          </ns3:TrackPointExtension>
        </extensions>
      </trkpt>
      <trkpt lat="45.3020601533353328704833984375" lon="-70.81332550384104251861572265625">
        <ele>941.4000244140625</ele>
        <time>2026-08-21T13:18:28.000Z</time>
        <extensions>
          <ns3:TrackPointExtension>
            <ns3:hr>145</ns3:hr>
            <ns3:cad>51</ns3:cad>
          </ns3:TrackPointExtension>
        </extensions>
      </trkpt>
      <trkpt lat="45.30205537565052509307861328125" lon="-70.81333489157259464263916015625">
        <ele>941.5999755859375</ele>
        <time>2026-08-21T13:18:29.000Z</time>
        <extensions>
          <ns3:TrackPointExtension>
            <ns3:hr>145</ns3:hr>
            <ns3:cad>0</ns3:cad>
          </ns3:TrackPointExtension>
        </extensions>
      </trkpt>
      <trkpt lat="45.3020440600812435150146484375" lon="-70.813344530761241912841796875">
        <ele>941.79998779296875</ele>
        <time>2026-08-21T13:18:30.000Z</time>
        <extensions>
          <ns3:TrackPointExtension>
            <ns3:hr>146</ns3:hr>
            <ns3:cad>47</ns3:cad>
          </ns3:TrackPointExtension>
        </extensions>
      </trkpt>
      <trkpt lat="45.30203190632164478302001953125" lon="-70.8133577741682529449462890625">
        <ele>942</ele>
        <time>2026-08-21T13:18:31.000Z</time>
        <extensions>
          <ns3:TrackPointExtension>
            <ns3:hr>146</ns3:hr>
            <ns3:cad>47</ns3:cad>
          </ns3:TrackPointExtension>
        </extensions>
      </trkpt>
      <trkpt lat="45.30202100984752178192138671875" lon="-70.81336875446140766143798828125">
        <ele>942.20001220703125</ele>
        <time>2026-08-21T13:18:32.000Z</time>
        <extensions>
          <ns3:TrackPointExtension>
            <ns3:hr>147</ns3:hr>
            <ns3:cad>47</ns3:cad>
          </ns3:TrackPointExtension>
        </extensions>
      </trkpt>
      <trkpt lat="45.30201078392565250396728515625" lon="-70.8133755438029766082763671875">
        <ele>942.4000244140625</ele>
        <time>2026-08-21T13:18:33.000Z</time>
        <extensions>
          <ns3:TrackPointExtension>
            <ns3:hr>147</ns3:hr>
            <ns3:cad>47</ns3:cad>
          </ns3:TrackPointExtension>
        </extensions>
      </trkpt>
      <trkpt lat="45.30200022272765636444091796875" lon="-70.81338166259229183197021484375">
        <ele>942.5999755859375</ele>
        <time>2026-08-21T13:18:34.000Z</time>
        <extensions>
          <ns3:TrackPointExtension>
            <ns3:hr>148</ns3:hr>
            <ns3:cad>50</ns3:cad>
          </ns3:TrackPointExtension>
        </extensions>
      </trkpt>
      <trkpt lat="45.3019920922815799713134765625" lon="-70.81338602118194103240966796875">
        <ele>942.79998779296875</ele>
        <time>2026-08-21T13:18:35.000Z</time>
        <extensions>
          <ns3:TrackPointExtension>
            <ns3:hr>148</ns3:hr>
            <ns3:cad>50</ns3:cad>
          </ns3:TrackPointExtension>
        </extensions>
      </trkpt>
      <trkpt lat="45.3019790165126323699951171875" lon="-70.813394486904144287109375">
        <ele>943.20001220703125</ele>
        <time>2026-08-21T13:18:36.000Z</time>
        <extensions>
          <ns3:TrackPointExtension>
            <ns3:hr>148</ns3:hr>
            <ns3:cad>50</ns3:cad>
          </ns3:TrackPointExtension>
        </extensions>
      </trkpt>
      <trkpt lat="45.3019672818481922149658203125" lon="-70.81340328790247440338134765625">
        <ele>943.4000244140625</ele>
        <time>2026-08-21T13:18:37.000Z</time>
        <extensions>
          <ns3:TrackPointExtension>
            <ns3:hr>148</ns3:hr>
            <ns3:cad>50</ns3:cad>
          </ns3:TrackPointExtension>
        </extensions>
      </trkpt>
      <trkpt lat="45.30195998959243297576904296875" lon="-70.813410580158233642578125">
        <ele>943.5999755859375</ele>
        <time>2026-08-21T13:18:38.000Z</time>
        <extensions>
          <ns3:TrackPointExtension>
            <ns3:hr>148</ns3:hr>
            <ns3:cad>50</ns3:cad>
          </ns3:TrackPointExtension>
        </extensions>
      </trkpt>
      <trkpt lat="45.3019471652805805206298828125" lon="-70.81342088989913463592529296875">
        <ele>943.79998779296875</ele>
        <time>2026-08-21T13:18:39.000Z</time>
        <extensions>
          <ns3:TrackPointExtension>
            <ns3:hr>147</ns3:hr>
            <ns3:cad>50</ns3:cad>
          </ns3:TrackPointExtension>
        </extensions>
      </trkpt>
      <trkpt lat="45.30193584971129894256591796875" lon="-70.81343363039195537567138671875">
        <ele>944</ele>
        <time>2026-08-21T13:18:40.000Z</time>
        <extensions>
          <ns3:TrackPointExtension>
            <ns3:hr>148</ns3:hr>
            <ns3:cad>50</ns3:cad>
          </ns3:TrackPointExtension>
        </extensions>
      </trkpt>
      <trkpt lat="45.30192730017006397247314453125" lon="-70.81343916244804859161376953125">
        <ele>944.20001220703125</ele>
        <time>2026-08-21T13:18:41.000Z</time>
        <extensions>
          <ns3:TrackPointExtension>
            <ns3:hr>148</ns3:hr>
            <ns3:cad>0</ns3:cad>
          </ns3:TrackPointExtension>
        </extensions>
      </trkpt>
      <trkpt lat="45.30191321857273578643798828125" lon="-70.8134452812373638153076171875">
        <ele>944.4000244140625</ele>
        <time>2026-08-21T13:18:42.000Z</time>
        <extensions>
          <ns3:TrackPointExtension>
            <ns3:hr>147</ns3:hr>
            <ns3:cad>0</ns3:cad>
          </ns3:TrackPointExtension>
        </extensions>
      </trkpt>
      <trkpt lat="45.3019027411937713623046875" lon="-70.8134493045508861541748046875">
        <ele>944.5999755859375</ele>
        <time>2026-08-21T13:18:43.000Z</time>
        <extensions>
          <ns3:TrackPointExtension>
            <ns3:hr>147</ns3:hr>
            <ns3:cad>0</ns3:cad>
          </ns3:TrackPointExtension>
        </extensions>
      </trkpt>
      <trkpt lat="45.30188673175871372222900390625" lon="-70.8134603686630725860595703125">
        <ele>944.79998779296875</ele>
        <time>2026-08-21T13:18:44.000Z</time>
        <extensions>
          <ns3:TrackPointExtension>
            <ns3:hr>147</ns3:hr>
            <ns3:cad>52</ns3:cad>
          </ns3:TrackPointExtension>
        </extensions>
      </trkpt>
      <trkpt lat="45.3018764220178127288818359375" lon="-70.8134684152901172637939453125">
        <ele>945</ele>
        <time>2026-08-21T13:18:45.000Z</time>
        <extensions>
          <ns3:TrackPointExtension>
            <ns3:hr>148</ns3:hr>
            <ns3:cad>52</ns3:cad>
          </ns3:TrackPointExtension>
        </extensions>
      </trkpt>
      <trkpt lat="45.3018656931817531585693359375" lon="-70.81347017548978328704833984375">
        <ele>945.20001220703125</ele>
        <time>2026-08-21T13:18:46.000Z</time>
        <extensions>
          <ns3:TrackPointExtension>
            <ns3:hr>148</ns3:hr>
            <ns3:cad>53</ns3:cad>
          </ns3:TrackPointExtension>
        </extensions>
      </trkpt>
      <trkpt lat="45.301850102841854095458984375" lon="-70.8134762942790985107421875">
        <ele>945.4000244140625</ele>
        <time>2026-08-21T13:18:47.000Z</time>
        <extensions>
          <ns3:TrackPointExtension>
            <ns3:hr>149</ns3:hr>
            <ns3:cad>53</ns3:cad>
          </ns3:TrackPointExtension>
        </extensions>
      </trkpt>
      <trkpt lat="45.30183660797774791717529296875" lon="-70.81348476000130176544189453125">
        <ele>945.4000244140625</ele>
        <time>2026-08-21T13:18:48.000Z</time>
        <extensions>
          <ns3:TrackPointExtension>
            <ns3:hr>149</ns3:hr>
            <ns3:cad>53</ns3:cad>
          </ns3:TrackPointExtension>
        </extensions>
      </trkpt>
      <trkpt lat="45.30182386748492717742919921875" lon="-70.8134923875331878662109375">
        <ele>945.5999755859375</ele>
        <time>2026-08-21T13:18:49.000Z</time>
        <extensions>
          <ns3:TrackPointExtension>
            <ns3:hr>150</ns3:hr>
            <ns3:cad>53</ns3:cad>
          </ns3:TrackPointExtension>
        </extensions>
      </trkpt>
      <trkpt lat="45.30181146226823329925537109375" lon="-70.81349934451282024383544921875">
        <ele>945.79998779296875</ele>
        <time>2026-08-21T13:18:50.000Z</time>
        <extensions>
          <ns3:TrackPointExtension>
            <ns3:hr>150</ns3:hr>
            <ns3:cad>53</ns3:cad>
          </ns3:TrackPointExtension>
        </extensions>
      </trkpt>
      <trkpt lat="45.30179880559444427490234375" lon="-70.8135079778730869293212890625">
        <ele>945.79998779296875</ele>
        <time>2026-08-21T13:18:51.000Z</time>
        <extensions>
          <ns3:TrackPointExtension>
            <ns3:hr>149</ns3:hr>
            <ns3:cad>52</ns3:cad>
          </ns3:TrackPointExtension>
        </extensions>
      </trkpt>
      <trkpt lat="45.30178614892065525054931640625" lon="-70.81351342611014842987060546875">
        <ele>945.79998779296875</ele>
        <time>2026-08-21T13:18:52.000Z</time>
        <extensions>
          <ns3:TrackPointExtension>
            <ns3:hr>149</ns3:hr>
            <ns3:cad>52</ns3:cad>
          </ns3:TrackPointExtension>
        </extensions>
      </trkpt>
      <trkpt lat="45.30177106149494647979736328125" lon="-70.8135180361568927764892578125">
        <ele>946</ele>
        <time>2026-08-21T13:18:53.000Z</time>
        <extensions>
          <ns3:TrackPointExtension>
            <ns3:hr>149</ns3:hr>
            <ns3:cad>52</ns3:cad>
          </ns3:TrackPointExtension>
        </extensions>
      </trkpt>
      <trkpt lat="45.30175580643117427825927734375" lon="-70.81352499313652515411376953125">
        <ele>946</ele>
        <time>2026-08-21T13:18:54.000Z</time>
        <extensions>
          <ns3:TrackPointExtension>
            <ns3:hr>150</ns3:hr>
            <ns3:cad>52</ns3:cad>
          </ns3:TrackPointExtension>
        </extensions>
      </trkpt>
      <trkpt lat="45.30173845589160919189453125" lon="-70.813534967601299285888671875">
        <ele>946.20001220703125</ele>
        <time>2026-08-21T13:18:55.000Z</time>
        <extensions>
          <ns3:TrackPointExtension>
            <ns3:hr>151</ns3:hr>
            <ns3:cad>52</ns3:cad>
          </ns3:TrackPointExtension>
        </extensions>
      </trkpt>
      <trkpt lat="45.3017232008278369903564453125" lon="-70.81354661844670772552490234375">
        <ele>946.20001220703125</ele>
        <time>2026-08-21T13:18:56.000Z</time>
        <extensions>
          <ns3:TrackPointExtension>
            <ns3:hr>152</ns3:hr>
            <ns3:cad>52</ns3:cad>
          </ns3:TrackPointExtension>
        </extensions>
      </trkpt>
      <trkpt lat="45.30171054415404796600341796875" lon="-70.81356723792850971221923828125">
        <ele>946.20001220703125</ele>
        <time>2026-08-21T13:18:57.000Z</time>
        <extensions>
          <ns3:TrackPointExtension>
            <ns3:hr>152</ns3:hr>
            <ns3:cad>52</ns3:cad>
          </ns3:TrackPointExtension>
        </extensions>
      </trkpt>
      <trkpt lat="45.3016950376331806182861328125" lon="-70.81358567811548709869384765625">
        <ele>946.20001220703125</ele>
        <time>2026-08-21T13:18:58.000Z</time>
        <extensions>
          <ns3:TrackPointExtension>
            <ns3:hr>152</ns3:hr>
            <ns3:cad>52</ns3:cad>
          </ns3:TrackPointExtension>
        </extensions>
      </trkpt>
      <trkpt lat="45.3016819618642330169677734375" lon="-70.81360193900763988494873046875">
        <ele>946.20001220703125</ele>
        <time>2026-08-21T13:18:59.000Z</time>
        <extensions>
          <ns3:TrackPointExtension>
            <ns3:hr>152</ns3:hr>
            <ns3:cad>52</ns3:cad>
          </ns3:TrackPointExtension>
        </extensions>
      </trkpt>
      <trkpt lat="45.30167215503752231597900390625" lon="-70.8136256597936153411865234375">
        <ele>946.20001220703125</ele>
        <time>2026-08-21T13:19:00.000Z</time>
        <extensions>
          <ns3:TrackPointExtension>
            <ns3:hr>152</ns3:hr>
            <ns3:cad>73</ns3:cad>
          </ns3:TrackPointExtension>
        </extensions>
      </trkpt>
      <trkpt lat="45.30165002681314945220947265625" lon="-70.81365290097892284393310546875">
        <ele>946.20001220703125</ele>
        <time>2026-08-21T13:19:01.000Z</time>
        <extensions>
          <ns3:TrackPointExtension>
            <ns3:hr>152</ns3:hr>
            <ns3:cad>0</ns3:cad>
          </ns3:TrackPointExtension>
        </extensions>
      </trkpt>
      <trkpt lat="45.3016343526542186737060546875" lon="-70.81367083825170993804931640625">
        <ele>946.20001220703125</ele>
        <time>2026-08-21T13:19:02.000Z</time>
        <extensions>
          <ns3:TrackPointExtension>
            <ns3:hr>152</ns3:hr>
            <ns3:cad>0</ns3:cad>
          </ns3:TrackPointExtension>
        </extensions>
      </trkpt>
      <trkpt lat="45.30161666683852672576904296875" lon="-70.81369279883801937103271484375">
        <ele>946.20001220703125</ele>
        <time>2026-08-21T13:19:03.000Z</time>
        <extensions>
          <ns3:TrackPointExtension>
            <ns3:hr>152</ns3:hr>
            <ns3:cad>0</ns3:cad>
          </ns3:TrackPointExtension>
        </extensions>
      </trkpt>
      <trkpt lat="45.3016025014221668243408203125" lon="-70.81370973028242588043212890625">
        <ele>946.20001220703125</ele>
        <time>2026-08-21T13:19:04.000Z</time>
        <extensions>
          <ns3:TrackPointExtension>
            <ns3:hr>152</ns3:hr>
            <ns3:cad>0</ns3:cad>
          </ns3:TrackPointExtension>
        </extensions>
      </trkpt>
      <trkpt lat="45.3015874139964580535888671875" lon="-70.8137230575084686279296875">
        <ele>946</ele>
        <time>2026-08-21T13:19:05.000Z</time>
        <extensions>
          <ns3:TrackPointExtension>
            <ns3:hr>152</ns3:hr>
            <ns3:cad>0</ns3:cad>
          </ns3:TrackPointExtension>
        </extensions>
      </trkpt>
      <trkpt lat="45.3015733323991298675537109375" lon="-70.8137349598109722137451171875">
        <ele>946</ele>
        <time>2026-08-21T13:19:06.000Z</time>
        <extensions>
          <ns3:TrackPointExtension>
            <ns3:hr>153</ns3:hr>
            <ns3:cad>0</ns3:cad>
          </ns3:TrackPointExtension>
        </extensions>
      </trkpt>
      <trkpt lat="45.30155212618410587310791015625" lon="-70.81374929286539554595947265625">
        <ele>946</ele>
        <time>2026-08-21T13:19:07.000Z</time>
        <extensions>
          <ns3:TrackPointExtension>
            <ns3:hr>153</ns3:hr>
            <ns3:cad>0</ns3:cad>
          </ns3:TrackPointExtension>
        </extensions>
      </trkpt>
      <trkpt lat="45.30153066851198673248291015625" lon="-70.81376622430980205535888671875">
        <ele>946.20001220703125</ele>
        <time>2026-08-21T13:19:08.000Z</time>
        <extensions>
          <ns3:TrackPointExtension>
            <ns3:hr>154</ns3:hr>
            <ns3:cad>0</ns3:cad>
          </ns3:TrackPointExtension>
        </extensions>
      </trkpt>
      <trkpt lat="45.3015146590769290924072265625" lon="-70.81377862952649593353271484375">
        <ele>946.20001220703125</ele>
        <time>2026-08-21T13:19:09.000Z</time>
        <extensions>
          <ns3:TrackPointExtension>
            <ns3:hr>155</ns3:hr>
            <ns3:cad>0</ns3:cad>
          </ns3:TrackPointExtension>
        </extensions>
      </trkpt>
      <trkpt lat="45.3014923632144927978515625" lon="-70.8137822337448596954345703125">
        <ele>946.20001220703125</ele>
        <time>2026-08-21T13:19:10.000Z</time>
        <extensions>
          <ns3:TrackPointExtension>
            <ns3:hr>155</ns3:hr>
            <ns3:cad>0</ns3:cad>
          </ns3:TrackPointExtension>
        </extensions>
      </trkpt>
      <trkpt lat="45.301477275788784027099609375" lon="-70.81378248520195484161376953125">
        <ele>946.20001220703125</ele>
        <time>2026-08-21T13:19:11.000Z</time>
        <extensions>
          <ns3:TrackPointExtension>
            <ns3:hr>155</ns3:hr>
            <ns3:cad>0</ns3:cad>
          </ns3:TrackPointExtension>
        </extensions>
      </trkpt>
      <trkpt lat="45.30146260745823383331298828125" lon="-70.8137869276106357574462890625">
        <ele>946</ele>
        <time>2026-08-21T13:19:12.000Z</time>
        <extensions>
          <ns3:TrackPointExtension>
            <ns3:hr>155</ns3:hr>
            <ns3:cad>73</ns3:cad>
          </ns3:TrackPointExtension>
        </extensions>
      </trkpt>
      <trkpt lat="45.30145120806992053985595703125" lon="-70.81378667615354061126708984375">
        <ele>946</ele>
        <time>2026-08-21T13:19:13.000Z</time>
        <extensions>
          <ns3:TrackPointExtension>
            <ns3:hr>154</ns3:hr>
            <ns3:cad>73</ns3:cad>
          </ns3:TrackPointExtension>
        </extensions>
      </trkpt>
      <trkpt lat="45.30143545009195804595947265625" lon="-70.8137812279164791107177734375">
        <ele>945.79998779296875</ele>
        <time>2026-08-21T13:19:14.000Z</time>
        <extensions>
          <ns3:TrackPointExtension>
            <ns3:hr>154</ns3:hr>
            <ns3:cad>73</ns3:cad>
          </ns3:TrackPointExtension>
        </extensions>
      </trkpt>
      <trkpt lat="45.301414914429187774658203125" lon="-70.8137765340507030487060546875">
        <ele>945.79998779296875</ele>
        <time>2026-08-21T13:19:15.000Z</time>
        <extensions>
          <ns3:TrackPointExtension>
            <ns3:hr>154</ns3:hr>
            <ns3:cad>72</ns3:cad>
          </ns3:TrackPointExtension>
        </extensions>
      </trkpt>
      <trkpt lat="45.301402844488620758056640625" lon="-70.8137728460133075714111328125">
        <ele>945.79998779296875</ele>
        <time>2026-08-21T13:19:16.000Z</time>
        <extensions>
          <ns3:TrackPointExtension>
            <ns3:hr>154</ns3:hr>
            <ns3:cad>72</ns3:cad>
          </ns3:TrackPointExtension>
        </extensions>
      </trkpt>
      <trkpt lat="45.3013899363577365875244140625" lon="-70.813766308128833770751953125">
        <ele>945.79998779296875</ele>
        <time>2026-08-21T13:19:17.000Z</time>
        <extensions>
          <ns3:TrackPointExtension>
            <ns3:hr>154</ns3:hr>
            <ns3:cad>18</ns3:cad>
          </ns3:TrackPointExtension>
        </extensions>
      </trkpt>
      <trkpt lat="45.30137769877910614013671875" lon="-70.81376370973885059356689453125">
        <ele>945.79998779296875</ele>
        <time>2026-08-21T13:19:18.000Z</time>
        <extensions>
          <ns3:TrackPointExtension>
            <ns3:hr>153</ns3:hr>
            <ns3:cad>18</ns3:cad>
          </ns3:TrackPointExtension>
        </extensions>
      </trkpt>
      <trkpt lat="45.3013555705547332763671875" lon="-70.81375298090279102325439453125">
        <ele>946</ele>
        <time>2026-08-21T13:19:19.000Z</time>
        <extensions>
          <ns3:TrackPointExtension>
            <ns3:hr>152</ns3:hr>
            <ns3:cad>0</ns3:cad>
          </ns3:TrackPointExtension>
        </extensions>
      </trkpt>
      <trkpt lat="45.30134257860481739044189453125" lon="-70.81374912522733211517333984375">
        <ele>946</ele>
        <time>2026-08-21T13:19:20.000Z</time>
        <extensions>
          <ns3:TrackPointExtension>
            <ns3:hr>150</ns3:hr>
            <ns3:cad>0</ns3:cad>
          </ns3:TrackPointExtension>
        </extensions>
      </trkpt>
      <trkpt lat="45.3013255633413791656494140625" lon="-70.81374627538025379180908203125">
        <ele>946.20001220703125</ele>
        <time>2026-08-21T13:19:21.000Z</time>
        <extensions>
          <ns3:TrackPointExtension>
            <ns3:hr>148</ns3:hr>
            <ns3:cad>0</ns3:cad>
          </ns3:TrackPointExtension>
        </extensions>
      </trkpt>
      <trkpt lat="45.30130972154438495635986328125" lon="-70.81373789347708225250244140625">
        <ele>946.4000244140625</ele>
        <time>2026-08-21T13:19:22.000Z</time>
        <extensions>
          <ns3:TrackPointExtension>
            <ns3:hr>147</ns3:hr>
            <ns3:cad>0</ns3:cad>
          </ns3:TrackPointExtension>
        </extensions>
      </trkpt>
      <trkpt lat="45.30129111371934413909912109375" lon="-70.8137284219264984130859375">
        <ele>946.5999755859375</ele>
        <time>2026-08-21T13:19:23.000Z</time>
        <extensions>
          <ns3:TrackPointExtension>
            <ns3:hr>146</ns3:hr>
            <ns3:cad>0</ns3:cad>
          </ns3:TrackPointExtension>
        </extensions>
      </trkpt>
      <trkpt lat="45.30126412399113178253173828125" lon="-70.81372129730880260467529296875">
        <ele>946.79998779296875</ele>
        <time>2026-08-21T13:19:24.000Z</time>
        <extensions>
          <ns3:TrackPointExtension>
            <ns3:hr>146</ns3:hr>
            <ns3:cad>0</ns3:cad>
          </ns3:TrackPointExtension>
        </extensions>
      </trkpt>
      <trkpt lat="45.30124803073704242706298828125" lon="-70.81371911801397800445556640625">
        <ele>946.79998779296875</ele>
        <time>2026-08-21T13:19:25.000Z</time>
        <extensions>
          <ns3:TrackPointExtension>
            <ns3:hr>146</ns3:hr>
            <ns3:cad>0</ns3:cad>
          </ns3:TrackPointExtension>
        </extensions>
      </trkpt>
      <trkpt lat="45.30123847536742687225341796875" lon="-70.8137150108814239501953125">
        <ele>947</ele>
        <time>2026-08-21T13:19:26.000Z</time>
        <extensions>
          <ns3:TrackPointExtension>
            <ns3:hr>146</ns3:hr>
            <ns3:cad>0</ns3:cad>
          </ns3:TrackPointExtension>
        </extensions>
      </trkpt>
      <trkpt lat="45.30122615396976470947265625" lon="-70.813708640635013580322265625">
        <ele>947.20001220703125</ele>
        <time>2026-08-21T13:19:27.000Z</time>
        <extensions>
          <ns3:TrackPointExtension>
            <ns3:hr>145</ns3:hr>
            <ns3:cad>0</ns3:cad>
          </ns3:TrackPointExtension>
        </extensions>
      </trkpt>
      <trkpt lat="45.30121517367660999298095703125" lon="-70.813711322844028472900390625">
        <ele>947.4000244140625</ele>
        <time>2026-08-21T13:19:28.000Z</time>
        <extensions>
          <ns3:TrackPointExtension>
            <ns3:hr>146</ns3:hr>
            <ns3:cad>0</ns3:cad>
          </ns3:TrackPointExtension>
        </extensions>
      </trkpt>
      <trkpt lat="45.301201678812503814697265625" lon="-70.81371165812015533447265625">
        <ele>947.4000244140625</ele>
        <time>2026-08-21T13:19:29.000Z</time>
        <extensions>
          <ns3:TrackPointExtension>
            <ns3:hr>145</ns3:hr>
            <ns3:cad>0</ns3:cad>
          </ns3:TrackPointExtension>
        </extensions>
      </trkpt>
      <trkpt lat="45.301182568073272705078125" lon="-70.81370671279728412628173828125">
        <ele>947.4000244140625</ele>
        <time>2026-08-21T13:19:30.000Z</time>
        <extensions>
          <ns3:TrackPointExtension>
            <ns3:hr>145</ns3:hr>
            <ns3:cad>0</ns3:cad>
          </ns3:TrackPointExtension>
        </extensions>
      </trkpt>
      <trkpt lat="45.30116739682853221893310546875" lon="-70.81370403058826923370361328125">
        <ele>947.5999755859375</ele>
        <time>2026-08-21T13:19:31.000Z</time>
        <extensions>
          <ns3:TrackPointExtension>
            <ns3:hr>145</ns3:hr>
            <ns3:cad>0</ns3:cad>
          </ns3:TrackPointExtension>
        </extensions>
      </trkpt>
      <trkpt lat="45.30114409513771533966064453125" lon="-70.81369698978960514068603515625">
        <ele>947.5999755859375</ele>
        <time>2026-08-21T13:19:32.000Z</time>
        <extensions>
          <ns3:TrackPointExtension>
            <ns3:hr>145</ns3:hr>
            <ns3:cad>0</ns3:cad>
          </ns3:TrackPointExtension>
        </extensions>
      </trkpt>
      <trkpt lat="45.30111894942820072174072265625" lon="-70.8136913739144802093505859375">
        <ele>947.79998779296875</ele>
        <time>2026-08-21T13:19:33.000Z</time>
        <extensions>
          <ns3:TrackPointExtension>
            <ns3:hr>144</ns3:hr>
            <ns3:cad>0</ns3:cad>
          </ns3:TrackPointExtension>
        </extensions>
      </trkpt>
      <trkpt lat="45.30110067687928676605224609375" lon="-70.8136883564293384552001953125">
        <ele>947.79998779296875</ele>
        <time>2026-08-21T13:19:34.000Z</time>
        <extensions>
          <ns3:TrackPointExtension>
            <ns3:hr>144</ns3:hr>
            <ns3:cad>0</ns3:cad>
          </ns3:TrackPointExtension>
        </extensions>
      </trkpt>
      <trkpt lat="45.30107955448329448699951171875" lon="-70.81368676386773586273193359375">
        <ele>947.79998779296875</ele>
        <time>2026-08-21T13:19:35.000Z</time>
        <extensions>
          <ns3:TrackPointExtension>
            <ns3:hr>144</ns3:hr>
            <ns3:cad>0</ns3:cad>
          </ns3:TrackPointExtension>
        </extensions>
      </trkpt>
      <trkpt lat="45.3010566718876361846923828125" lon="-70.813687853515148162841796875">
        <ele>947.5999755859375</ele>
        <time>2026-08-21T13:19:36.000Z</time>
        <extensions>
          <ns3:TrackPointExtension>
            <ns3:hr>143</ns3:hr>
            <ns3:cad>0</ns3:cad>
          </ns3:TrackPointExtension>
        </extensions>
      </trkpt>
      <trkpt lat="45.3010338731110095977783203125" lon="-70.8136927150189876556396484375">
        <ele>947.5999755859375</ele>
        <time>2026-08-21T13:19:37.000Z</time>
        <extensions>
          <ns3:TrackPointExtension>
            <ns3:hr>144</ns3:hr>
            <ns3:cad>0</ns3:cad>
          </ns3:TrackPointExtension>
        </extensions>
      </trkpt>
      <trkpt lat="45.3010110743343830108642578125" lon="-70.8136990852653980255126953125">
        <ele>947.5999755859375</ele>
        <time>2026-08-21T13:19:38.000Z</time>
        <extensions>
          <ns3:TrackPointExtension>
            <ns3:hr>144</ns3:hr>
            <ns3:cad>0</ns3:cad>
          </ns3:TrackPointExtension>
        </extensions>
      </trkpt>
      <trkpt lat="45.30099405907094478607177734375" lon="-70.81370470114052295684814453125">
        <ele>947.5999755859375</ele>
        <time>2026-08-21T13:19:39.000Z</time>
        <extensions>
          <ns3:TrackPointExtension>
            <ns3:hr>144</ns3:hr>
            <ns3:cad>0</ns3:cad>
          </ns3:TrackPointExtension>
        </extensions>
      </trkpt>
      <trkpt lat="45.3009684942662715911865234375" lon="-70.81371576525270938873291015625">
        <ele>947.79998779296875</ele>
        <time>2026-08-21T13:19:40.000Z</time>
        <extensions>
          <ns3:TrackPointExtension>
            <ns3:hr>144</ns3:hr>
            <ns3:cad>0</ns3:cad>
          </ns3:TrackPointExtension>
        </extensions>
      </trkpt>
      <trkpt lat="45.30095030553638935089111328125" lon="-70.81372641026973724365234375">
        <ele>947.79998779296875</ele>
        <time>2026-08-21T13:19:41.000Z</time>
        <extensions>
          <ns3:TrackPointExtension>
            <ns3:hr>144</ns3:hr>
            <ns3:cad>0</ns3:cad>
          </ns3:TrackPointExtension>
        </extensions>
      </trkpt>
      <trkpt lat="45.30093153007328510284423828125" lon="-70.81374124623835086822509765625">
        <ele>948</ele>
        <time>2026-08-21T13:19:42.000Z</time>
        <extensions>
          <ns3:TrackPointExtension>
            <ns3:hr>145</ns3:hr>
            <ns3:cad>0</ns3:cad>
          </ns3:TrackPointExtension>
        </extensions>
      </trkpt>
      <trkpt lat="45.30091501772403717041015625" lon="-70.81375113688409328460693359375">
        <ele>948</ele>
        <time>2026-08-21T13:19:43.000Z</time>
        <extensions>
          <ns3:TrackPointExtension>
            <ns3:hr>145</ns3:hr>
            <ns3:cad>75</ns3:cad>
          </ns3:TrackPointExtension>
        </extensions>
      </trkpt>
      <trkpt lat="45.300899259746074676513671875" lon="-70.81376706250011920928955078125">
        <ele>948</ele>
        <time>2026-08-21T13:19:44.000Z</time>
        <extensions>
          <ns3:TrackPointExtension>
            <ns3:hr>145</ns3:hr>
            <ns3:cad>75</ns3:cad>
          </ns3:TrackPointExtension>
        </extensions>
      </trkpt>
      <trkpt lat="45.3008799813687801361083984375" lon="-70.81377737224102020263671875">
        <ele>948.20001220703125</ele>
        <time>2026-08-21T13:19:45.000Z</time>
        <extensions>
          <ns3:TrackPointExtension>
            <ns3:hr>145</ns3:hr>
            <ns3:cad>75</ns3:cad>
          </ns3:TrackPointExtension>
        </extensions>
      </trkpt>
      <trkpt lat="45.30086405575275421142578125" lon="-70.81378315575420856475830078125">
        <ele>948.20001220703125</ele>
        <time>2026-08-21T13:19:46.000Z</time>
        <extensions>
          <ns3:TrackPointExtension>
            <ns3:hr>145</ns3:hr>
            <ns3:cad>75</ns3:cad>
          </ns3:TrackPointExtension>
        </extensions>
      </trkpt>
      <trkpt lat="45.3008434362709522247314453125" lon="-70.81378499977290630340576171875">
        <ele>948.20001220703125</ele>
        <time>2026-08-21T13:19:47.000Z</time>
        <extensions>
          <ns3:TrackPointExtension>
            <ns3:hr>145</ns3:hr>
            <ns3:cad>75</ns3:cad>
          </ns3:TrackPointExtension>
        </extensions>
      </trkpt>
      <trkpt lat="45.30082575045526027679443359375" lon="-70.813797824084758758544921875">
        <ele>948.20001220703125</ele>
        <time>2026-08-21T13:19:48.000Z</time>
        <extensions>
          <ns3:TrackPointExtension>
            <ns3:hr>145</ns3:hr>
            <ns3:cad>75</ns3:cad>
          </ns3:TrackPointExtension>
        </extensions>
      </trkpt>
      <trkpt lat="45.30080580152571201324462890625" lon="-70.8138087205588817596435546875">
        <ele>948.4000244140625</ele>
        <time>2026-08-21T13:19:49.000Z</time>
        <extensions>
          <ns3:TrackPointExtension>
            <ns3:hr>145</ns3:hr>
            <ns3:cad>75</ns3:cad>
          </ns3:TrackPointExtension>
        </extensions>
      </trkpt>
      <trkpt lat="45.30079540796577930450439453125" lon="-70.8138194493949413299560546875">
        <ele>948.4000244140625</ele>
        <time>2026-08-21T13:19:50.000Z</time>
        <extensions>
          <ns3:TrackPointExtension>
            <ns3:hr>146</ns3:hr>
            <ns3:cad>75</ns3:cad>
          </ns3:TrackPointExtension>
        </extensions>
      </trkpt>
      <trkpt lat="45.30078115873038768768310546875" lon="-70.813822634518146514892578125">
        <ele>948.5999755859375</ele>
        <time>2026-08-21T13:19:51.000Z</time>
        <extensions>
          <ns3:TrackPointExtension>
            <ns3:hr>146</ns3:hr>
            <ns3:cad>75</ns3:cad>
          </ns3:TrackPointExtension>
        </extensions>
      </trkpt>
      <trkpt lat="45.30077026225626468658447265625" lon="-70.813834369182586669921875">
        <ele>948.5999755859375</ele>
        <time>2026-08-21T13:19:52.000Z</time>
        <extensions>
          <ns3:TrackPointExtension>
            <ns3:hr>145</ns3:hr>
            <ns3:cad>75</ns3:cad>
          </ns3:TrackPointExtension>
        </extensions>
      </trkpt>
      <trkpt lat="45.30075768940150737762451171875" lon="-70.813842080533504486083984375">
        <ele>948.79998779296875</ele>
        <time>2026-08-21T13:19:53.000Z</time>
        <extensions>
          <ns3:TrackPointExtension>
            <ns3:hr>145</ns3:hr>
            <ns3:cad>0</ns3:cad>
          </ns3:TrackPointExtension>
        </extensions>
      </trkpt>
      <trkpt lat="45.30074595473706722259521484375" lon="-70.813849456608295440673828125">
        <ele>949</ele>
        <time>2026-08-21T13:19:54.000Z</time>
        <extensions>
          <ns3:TrackPointExtension>
            <ns3:hr>144</ns3:hr>
            <ns3:cad>0</ns3:cad>
          </ns3:TrackPointExtension>
        </extensions>
      </trkpt>
      <trkpt lat="45.3007324598729610443115234375" lon="-70.8138580061495304107666015625">
        <ele>949</ele>
        <time>2026-08-21T13:19:55.000Z</time>
        <extensions>
          <ns3:TrackPointExtension>
            <ns3:hr>144</ns3:hr>
            <ns3:cad>0</ns3:cad>
          </ns3:TrackPointExtension>
        </extensions>
      </trkpt>
      <trkpt lat="45.30072449706494808197021484375" lon="-70.81386320292949676513671875">
        <ele>949.20001220703125</ele>
        <time>2026-08-21T13:19:56.000Z</time>
        <extensions>
          <ns3:TrackPointExtension>
            <ns3:hr>143</ns3:hr>
            <ns3:cad>0</ns3:cad>
          </ns3:TrackPointExtension>
        </extensions>
      </trkpt>
      <trkpt lat="45.30071443878114223480224609375" lon="-70.813868232071399688720703125">
        <ele>949.5999755859375</ele>
        <time>2026-08-21T13:19:57.000Z</time>
        <extensions>
          <ns3:TrackPointExtension>
            <ns3:hr>143</ns3:hr>
            <ns3:cad>0</ns3:cad>
          </ns3:TrackPointExtension>
        </extensions>
      </trkpt>
      <trkpt lat="45.3007053025066852569580078125" lon="-70.81386915408074855804443359375">
        <ele>949.79998779296875</ele>
        <time>2026-08-21T13:19:58.000Z</time>
        <extensions>
          <ns3:TrackPointExtension>
            <ns3:hr>143</ns3:hr>
            <ns3:cad>0</ns3:cad>
          </ns3:TrackPointExtension>
        </extensions>
      </trkpt>
      <trkpt lat="45.30069231055676937103271484375" lon="-70.81387569196522235870361328125">
        <ele>950.20001220703125</ele>
        <time>2026-08-21T13:19:59.000Z</time>
        <extensions>
          <ns3:TrackPointExtension>
            <ns3:hr>143</ns3:hr>
            <ns3:cad>0</ns3:cad>
          </ns3:TrackPointExtension>
        </extensions>
      </trkpt>
      <trkpt lat="45.3006764687597751617431640625" lon="-70.8138841576874256134033203125">
        <ele>950.4000244140625</ele>
        <time>2026-08-21T13:20:00.000Z</time>
        <extensions>
          <ns3:TrackPointExtension>
            <ns3:hr>143</ns3:hr>
            <ns3:cad>0</ns3:cad>
          </ns3:TrackPointExtension>
        </extensions>
      </trkpt>
      <trkpt lat="45.30066599138081073760986328125" lon="-70.81389731727540493011474609375">
        <ele>950.79998779296875</ele>
        <time>2026-08-21T13:20:01.000Z</time>
        <extensions>
          <ns3:TrackPointExtension>
            <ns3:hr>144</ns3:hr>
            <ns3:cad>0</ns3:cad>
          </ns3:TrackPointExtension>
        </extensions>
      </trkpt>
      <trkpt lat="45.3006523288786411285400390625" lon="-70.8139082975685596466064453125">
        <ele>951.20001220703125</ele>
        <time>2026-08-21T13:20:02.000Z</time>
        <extensions>
          <ns3:TrackPointExtension>
            <ns3:hr>144</ns3:hr>
            <ns3:cad>0</ns3:cad>
          </ns3:TrackPointExtension>
        </extensions>
      </trkpt>
      <trkpt lat="45.30063615180552005767822265625" lon="-70.81391961313784122467041015625">
        <ele>951.4000244140625</ele>
        <time>2026-08-21T13:20:03.000Z</time>
        <extensions>
          <ns3:TrackPointExtension>
            <ns3:hr>144</ns3:hr>
            <ns3:cad>0</ns3:cad>
          </ns3:TrackPointExtension>
        </extensions>
      </trkpt>
      <trkpt lat="45.300624333322048187255859375" lon="-70.81393319182097911834716796875">
        <ele>951.79998779296875</ele>
        <time>2026-08-21T13:20:04.000Z</time>
        <extensions>
          <ns3:TrackPointExtension>
            <ns3:hr>144</ns3:hr>
            <ns3:cad>0</ns3:cad>
          </ns3:TrackPointExtension>
        </extensions>
      </trkpt>
      <trkpt lat="45.300618968904018402099609375" lon="-70.8139411546289920806884765625">
        <ele>952.20001220703125</ele>
        <time>2026-08-21T13:20:05.000Z</time>
        <extensions>
          <ns3:TrackPointExtension>
            <ns3:hr>144</ns3:hr>
            <ns3:cad>0</ns3:cad>
          </ns3:TrackPointExtension>
        </extensions>
      </trkpt>
      <trkpt lat="45.3006090782582759857177734375" lon="-70.81394911743700504302978515625">
        <ele>952.4000244140625</ele>
        <time>2026-08-21T13:20:06.000Z</time>
        <extensions>
          <ns3:TrackPointExtension>
            <ns3:hr>145</ns3:hr>
            <ns3:cad>0</ns3:cad>
          </ns3:TrackPointExtension>
        </extensions>
      </trkpt>
      <trkpt lat="45.3005993552505970001220703125" lon="-70.8139535598456859588623046875">
        <ele>952.5999755859375</ele>
        <time>2026-08-21T13:20:07.000Z</time>
        <extensions>
          <ns3:TrackPointExtension>
            <ns3:hr>145</ns3:hr>
            <ns3:cad>0</ns3:cad>
          </ns3:TrackPointExtension>
        </extensions>
      </trkpt>
      <trkpt lat="45.3005876205861568450927734375" lon="-70.81396386958658695220947265625">
        <ele>952.79998779296875</ele>
        <time>2026-08-21T13:20:08.000Z</time>
        <extensions>
          <ns3:TrackPointExtension>
            <ns3:hr>145</ns3:hr>
            <ns3:cad>0</ns3:cad>
          </ns3:TrackPointExtension>
        </extensions>
      </trkpt>
      <trkpt lat="45.3005755506455898284912109375" lon="-70.81396722234785556793212890625">
        <ele>953</ele>
        <time>2026-08-21T13:20:09.000Z</time>
        <extensions>
          <ns3:TrackPointExtension>
            <ns3:hr>145</ns3:hr>
            <ns3:cad>0</ns3:cad>
          </ns3:TrackPointExtension>
        </extensions>
      </trkpt>
      <trkpt lat="45.30056507326662540435791015625" lon="-70.81397459842264652252197265625">
        <ele>953.20001220703125</ele>
        <time>2026-08-21T13:20:10.000Z</time>
        <extensions>
          <ns3:TrackPointExtension>
            <ns3:hr>146</ns3:hr>
            <ns3:cad>0</ns3:cad>
          </ns3:TrackPointExtension>
        </extensions>
      </trkpt>
      <trkpt lat="45.3005537576973438262939453125" lon="-70.81398524343967437744140625">
        <ele>953.4000244140625</ele>
        <time>2026-08-21T13:20:11.000Z</time>
        <extensions>
          <ns3:TrackPointExtension>
            <ns3:hr>145</ns3:hr>
            <ns3:cad>0</ns3:cad>
          </ns3:TrackPointExtension>
        </extensions>
      </trkpt>
      <trkpt lat="45.30054344795644283294677734375" lon="-70.813996978104114532470703125">
        <ele>953.5999755859375</ele>
        <time>2026-08-21T13:20:12.000Z</time>
        <extensions>
          <ns3:TrackPointExtension>
            <ns3:hr>145</ns3:hr>
            <ns3:cad>0</ns3:cad>
          </ns3:TrackPointExtension>
        </extensions>
      </trkpt>
      <trkpt lat="45.30053079128265380859375" lon="-70.81401013769209384918212890625">
        <ele>953.79998779296875</ele>
        <time>2026-08-21T13:20:13.000Z</time>
        <extensions>
          <ns3:TrackPointExtension>
            <ns3:hr>145</ns3:hr>
            <ns3:cad>0</ns3:cad>
          </ns3:TrackPointExtension>
        </extensions>
      </trkpt>
      <trkpt lat="45.30052651651203632354736328125" lon="-70.8140118978917598724365234375">
        <ele>954.20001220703125</ele>
        <time>2026-08-21T13:20:14.000Z</time>
        <extensions>
          <ns3:TrackPointExtension>
            <ns3:hr>146</ns3:hr>
            <ns3:cad>0</ns3:cad>
          </ns3:TrackPointExtension>
        </extensions>
      </trkpt>
      <trkpt lat="45.30051746405661106109619140625" lon="-70.81401851959526538848876953125">
        <ele>954.4000244140625</ele>
        <time>2026-08-21T13:20:15.000Z</time>
        <extensions>
          <ns3:TrackPointExtension>
            <ns3:hr>146</ns3:hr>
            <ns3:cad>0</ns3:cad>
          </ns3:TrackPointExtension>
        </extensions>
      </trkpt>
      <trkpt lat="45.30051008798182010650634765625" lon="-70.814030170440673828125">
        <ele>954.79998779296875</ele>
        <time>2026-08-21T13:20:16.000Z</time>
        <extensions>
          <ns3:TrackPointExtension>
            <ns3:hr>147</ns3:hr>
            <ns3:cad>0</ns3:cad>
          </ns3:TrackPointExtension>
        </extensions>
      </trkpt>
      <trkpt lat="45.300503633916378021240234375" lon="-70.81404316239058971405029296875">
        <ele>955.20001220703125</ele>
        <time>2026-08-21T13:20:17.000Z</time>
        <extensions>
          <ns3:TrackPointExtension>
            <ns3:hr>147</ns3:hr>
            <ns3:cad>0</ns3:cad>
          </ns3:TrackPointExtension>
        </extensions>
      </trkpt>
      <trkpt lat="45.3005034662783145904541015625" lon="-70.81406193785369396209716796875">
        <ele>955.4000244140625</ele>
        <time>2026-08-21T13:20:18.000Z</time>
        <extensions>
          <ns3:TrackPointExtension>
            <ns3:hr>148</ns3:hr>
            <ns3:cad>0</ns3:cad>
          </ns3:TrackPointExtension>
        </extensions>
      </trkpt>
      <trkpt lat="45.30050187371671199798583984375" lon="-70.8140813000500202178955078125">
        <ele>955.79998779296875</ele>
        <time>2026-08-21T13:20:19.000Z</time>
        <extensions>
          <ns3:TrackPointExtension>
            <ns3:hr>147</ns3:hr>
            <ns3:cad>0</ns3:cad>
          </ns3:TrackPointExtension>
        </extensions>
      </trkpt>
      <trkpt lat="45.30050153844058513641357421875" lon="-70.8140977285802364349365234375">
        <ele>956</ele>
        <time>2026-08-21T13:20:20.000Z</time>
        <extensions>
          <ns3:TrackPointExtension>
            <ns3:hr>148</ns3:hr>
            <ns3:cad>51</ns3:cad>
          </ns3:TrackPointExtension>
        </extensions>
      </trkpt>
      <trkpt lat="45.300500951707363128662109375" lon="-70.8141141571104526519775390625">
        <ele>956</ele>
        <time>2026-08-21T13:20:21.000Z</time>
        <extensions>
          <ns3:TrackPointExtension>
            <ns3:hr>148</ns3:hr>
            <ns3:cad>51</ns3:cad>
          </ns3:TrackPointExtension>
        </extensions>
      </trkpt>
      <trkpt lat="45.30050036497414112091064453125" lon="-70.8141429908573627471923828125">
        <ele>956.20001220703125</ele>
        <time>2026-08-21T13:20:22.000Z</time>
        <extensions>
          <ns3:TrackPointExtension>
            <ns3:hr>148</ns3:hr>
            <ns3:cad>50</ns3:cad>
          </ns3:TrackPointExtension>
        </extensions>
      </trkpt>
      <trkpt lat="45.300501286983489990234375" lon="-70.8141661249101161956787109375">
        <ele>956.20001220703125</ele>
        <time>2026-08-21T13:20:23.000Z</time>
        <extensions>
          <ns3:TrackPointExtension>
            <ns3:hr>148</ns3:hr>
            <ns3:cad>50</ns3:cad>
          </ns3:TrackPointExtension>
        </extensions>
      </trkpt>
      <trkpt lat="45.3005014546215534210205078125" lon="-70.8141916058957576751708984375">
        <ele>956</ele>
        <time>2026-08-21T13:20:24.000Z</time>
        <extensions>
          <ns3:TrackPointExtension>
            <ns3:hr>148</ns3:hr>
            <ns3:cad>50</ns3:cad>
          </ns3:TrackPointExtension>
        </extensions>
      </trkpt>
      <trkpt lat="45.3005021251738071441650390625" lon="-70.8142137341201305389404296875">
        <ele>956</ele>
        <time>2026-08-21T13:20:25.000Z</time>
        <extensions>
          <ns3:TrackPointExtension>
            <ns3:hr>149</ns3:hr>
            <ns3:cad>50</ns3:cad>
          </ns3:TrackPointExtension>
        </extensions>
      </trkpt>
      <trkpt lat="45.3005017898976802825927734375" lon="-70.814240388572216033935546875">
        <ele>955.79998779296875</ele>
        <time>2026-08-21T13:20:26.000Z</time>
        <extensions>
          <ns3:TrackPointExtension>
            <ns3:hr>150</ns3:hr>
            <ns3:cad>50</ns3:cad>
          </ns3:TrackPointExtension>
        </extensions>
      </trkpt>
      <trkpt lat="45.3005031310021877288818359375" lon="-70.81427182070910930633544921875">
        <ele>955.79998779296875</ele>
        <time>2026-08-21T13:20:27.000Z</time>
        <extensions>
          <ns3:TrackPointExtension>
            <ns3:hr>150</ns3:hr>
            <ns3:cad>50</ns3:cad>
          </ns3:TrackPointExtension>
        </extensions>
      </trkpt>
      <trkpt lat="45.3005027957260608673095703125" lon="-70.81429629586637020111083984375">
        <ele>955.5999755859375</ele>
        <time>2026-08-21T13:20:28.000Z</time>
        <extensions>
          <ns3:TrackPointExtension>
            <ns3:hr>150</ns3:hr>
            <ns3:cad>50</ns3:cad>
          </ns3:TrackPointExtension>
        </extensions>
      </trkpt>
      <trkpt lat="45.300500951707363128662109375" lon="-70.8143220283091068267822265625">
        <ele>955.5999755859375</ele>
        <time>2026-08-21T13:20:29.000Z</time>
        <extensions>
          <ns3:TrackPointExtension>
            <ns3:hr>150</ns3:hr>
            <ns3:cad>50</ns3:cad>
          </ns3:TrackPointExtension>
        </extensions>
      </trkpt>
      <trkpt lat="45.3004887141287326812744140625" lon="-70.81434222869575023651123046875">
        <ele>955.5999755859375</ele>
        <time>2026-08-21T13:20:30.000Z</time>
        <extensions>
          <ns3:TrackPointExtension>
            <ns3:hr>151</ns3:hr>
            <ns3:cad>50</ns3:cad>
          </ns3:TrackPointExtension>
        </extensions>
      </trkpt>
      <trkpt lat="45.30047186650335788726806640625" lon="-70.81436268053948879241943359375">
        <ele>955.5999755859375</ele>
        <time>2026-08-21T13:20:31.000Z</time>
        <extensions>
          <ns3:TrackPointExtension>
            <ns3:hr>150</ns3:hr>
            <ns3:cad>50</ns3:cad>
          </ns3:TrackPointExtension>
        </extensions>
      </trkpt>
      <trkpt lat="45.30045627616345882415771484375" lon="-70.814367793500423431396484375">
        <ele>955.5999755859375</ele>
        <time>2026-08-21T13:20:32.000Z</time>
        <extensions>
          <ns3:TrackPointExtension>
            <ns3:hr>151</ns3:hr>
            <ns3:cad>50</ns3:cad>
          </ns3:TrackPointExtension>
        </extensions>
      </trkpt>
      <trkpt lat="45.30044051818549633026123046875" lon="-70.81437022425234317779541015625">
        <ele>955.79998779296875</ele>
        <time>2026-08-21T13:20:33.000Z</time>
        <extensions>
          <ns3:TrackPointExtension>
            <ns3:hr>151</ns3:hr>
            <ns3:cad>50</ns3:cad>
          </ns3:TrackPointExtension>
        </extensions>
      </trkpt>
      <trkpt lat="45.3004246763885021209716796875" lon="-70.8143716491758823394775390625">
        <ele>955.79998779296875</ele>
        <time>2026-08-21T13:20:34.000Z</time>
        <extensions>
          <ns3:TrackPointExtension>
            <ns3:hr>151</ns3:hr>
            <ns3:cad>50</ns3:cad>
          </ns3:TrackPointExtension>
        </extensions>
      </trkpt>
      <trkpt lat="45.30041185207664966583251953125" lon="-70.8143726550042629241943359375">
        <ele>956</ele>
        <time>2026-08-21T13:20:35.000Z</time>
        <extensions>
          <ns3:TrackPointExtension>
            <ns3:hr>150</ns3:hr>
            <ns3:cad>50</ns3:cad>
          </ns3:TrackPointExtension>
        </extensions>
      </trkpt>
      <trkpt lat="45.30039207078516483306884765625" lon="-70.81437022425234317779541015625">
        <ele>956</ele>
        <time>2026-08-21T13:20:36.000Z</time>
        <extensions>
          <ns3:TrackPointExtension>
            <ns3:hr>150</ns3:hr>
            <ns3:cad>50</ns3:cad>
          </ns3:TrackPointExtension>
        </extensions>
      </trkpt>
      <trkpt lat="45.3003774024546146392822265625" lon="-70.81436536274850368499755859375">
        <ele>956.20001220703125</ele>
        <time>2026-08-21T13:20:37.000Z</time>
        <extensions>
          <ns3:TrackPointExtension>
            <ns3:hr>150</ns3:hr>
            <ns3:cad>50</ns3:cad>
          </ns3:TrackPointExtension>
        </extensions>
      </trkpt>
      <trkpt lat="45.30036189593374729156494140625" lon="-70.81436033360660076141357421875">
        <ele>956.4000244140625</ele>
        <time>2026-08-21T13:20:38.000Z</time>
        <extensions>
          <ns3:TrackPointExtension>
            <ns3:hr>150</ns3:hr>
            <ns3:cad>50</ns3:cad>
          </ns3:TrackPointExtension>
        </extensions>
      </trkpt>
      <trkpt lat="45.300346724689006805419921875" lon="-70.81435798667371273040771484375">
        <ele>956.5999755859375</ele>
        <time>2026-08-21T13:20:39.000Z</time>
        <extensions>
          <ns3:TrackPointExtension>
            <ns3:hr>150</ns3:hr>
            <ns3:cad>50</ns3:cad>
          </ns3:TrackPointExtension>
        </extensions>
      </trkpt>
      <trkpt lat="45.300331301987171173095703125" lon="-70.8143558911979198455810546875">
        <ele>956.79998779296875</ele>
        <time>2026-08-21T13:20:40.000Z</time>
        <extensions>
          <ns3:TrackPointExtension>
            <ns3:hr>150</ns3:hr>
            <ns3:cad>50</ns3:cad>
          </ns3:TrackPointExtension>
        </extensions>
      </trkpt>
      <trkpt lat="45.30031311325728893280029296875" lon="-70.814354717731475830078125">
        <ele>956.79998779296875</ele>
        <time>2026-08-21T13:20:41.000Z</time>
        <extensions>
          <ns3:TrackPointExtension>
            <ns3:hr>150</ns3:hr>
            <ns3:cad>72</ns3:cad>
          </ns3:TrackPointExtension>
        </extensions>
      </trkpt>
      <trkpt lat="45.30029383487999439239501953125" lon="-70.81436234526336193084716796875">
        <ele>956.79998779296875</ele>
        <time>2026-08-21T13:20:42.000Z</time>
        <extensions>
          <ns3:TrackPointExtension>
            <ns3:hr>150</ns3:hr>
            <ns3:cad>72</ns3:cad>
          </ns3:TrackPointExtension>
        </extensions>
      </trkpt>
      <trkpt lat="45.30027355067431926727294921875" lon="-70.81436854787170886993408203125">
        <ele>956.79998779296875</ele>
        <time>2026-08-21T13:20:43.000Z</time>
        <extensions>
          <ns3:TrackPointExtension>
            <ns3:hr>150</ns3:hr>
            <ns3:cad>68</ns3:cad>
          </ns3:TrackPointExtension>
        </extensions>
      </trkpt>
      <trkpt lat="45.30025653541088104248046875" lon="-70.81438598223030567169189453125">
        <ele>957</ele>
        <time>2026-08-21T13:20:44.000Z</time>
        <extensions>
          <ns3:TrackPointExtension>
            <ns3:hr>150</ns3:hr>
            <ns3:cad>68</ns3:cad>
          </ns3:TrackPointExtension>
        </extensions>
      </trkpt>
      <trkpt lat="45.30023910105228424072265625" lon="-70.814420096576213836669921875">
        <ele>957</ele>
        <time>2026-08-21T13:20:45.000Z</time>
        <extensions>
          <ns3:TrackPointExtension>
            <ns3:hr>150</ns3:hr>
            <ns3:cad>0</ns3:cad>
          </ns3:TrackPointExtension>
        </extensions>
      </trkpt>
      <trkpt lat="45.300229378044605255126953125" lon="-70.814439542591571807861328125">
        <ele>957</ele>
        <time>2026-08-21T13:20:46.000Z</time>
        <extensions>
          <ns3:TrackPointExtension>
            <ns3:hr>150</ns3:hr>
            <ns3:cad>0</ns3:cad>
          </ns3:TrackPointExtension>
        </extensions>
      </trkpt>
      <trkpt lat="45.3002181462943553924560546875" lon="-70.814456976950168609619140625">
        <ele>957</ele>
        <time>2026-08-21T13:20:47.000Z</time>
        <extensions>
          <ns3:TrackPointExtension>
            <ns3:hr>150</ns3:hr>
            <ns3:cad>0</ns3:cad>
          </ns3:TrackPointExtension>
        </extensions>
      </trkpt>
      <trkpt lat="45.30020548962056636810302734375" lon="-70.81448036246001720428466796875">
        <ele>957</ele>
        <time>2026-08-21T13:20:48.000Z</time>
        <extensions>
          <ns3:TrackPointExtension>
            <ns3:hr>150</ns3:hr>
            <ns3:cad>0</ns3:cad>
          </ns3:TrackPointExtension>
        </extensions>
      </trkpt>
      <trkpt lat="45.300190486013889312744140625" lon="-70.8145003952085971832275390625">
        <ele>957.20001220703125</ele>
        <time>2026-08-21T13:20:49.000Z</time>
        <extensions>
          <ns3:TrackPointExtension>
            <ns3:hr>150</ns3:hr>
            <ns3:cad>0</ns3:cad>
          </ns3:TrackPointExtension>
        </extensions>
      </trkpt>
      <trkpt lat="45.300179421901702880859375" lon="-70.8145218528807163238525390625">
        <ele>957.20001220703125</ele>
        <time>2026-08-21T13:20:50.000Z</time>
        <extensions>
          <ns3:TrackPointExtension>
            <ns3:hr>150</ns3:hr>
            <ns3:cad>0</ns3:cad>
          </ns3:TrackPointExtension>
        </extensions>
      </trkpt>
      <trkpt lat="45.3001745603978633880615234375" lon="-70.81453937105834484100341796875">
        <ele>957.4000244140625</ele>
        <time>2026-08-21T13:20:51.000Z</time>
        <extensions>
          <ns3:TrackPointExtension>
            <ns3:hr>150</ns3:hr>
            <ns3:cad>0</ns3:cad>
          </ns3:TrackPointExtension>
        </extensions>
      </trkpt>
      <trkpt lat="45.30016827397048473358154296875" lon="-70.81455412320792675018310546875">
        <ele>957.4000244140625</ele>
        <time>2026-08-21T13:20:52.000Z</time>
        <extensions>
          <ns3:TrackPointExtension>
            <ns3:hr>150</ns3:hr>
            <ns3:cad>0</ns3:cad>
          </ns3:TrackPointExtension>
        </extensions>
      </trkpt>
      <trkpt lat="45.30015855096280574798583984375" lon="-70.81456837244331836700439453125">
        <ele>957.4000244140625</ele>
        <time>2026-08-21T13:20:53.000Z</time>
        <extensions>
          <ns3:TrackPointExtension>
            <ns3:hr>150</ns3:hr>
            <ns3:cad>0</ns3:cad>
          </ns3:TrackPointExtension>
        </extensions>
      </trkpt>
      <trkpt lat="45.3001477383077144622802734375" lon="-70.81458480097353458404541015625">
        <ele>957.4000244140625</ele>
        <time>2026-08-21T13:20:54.000Z</time>
        <extensions>
          <ns3:TrackPointExtension>
            <ns3:hr>149</ns3:hr>
            <ns3:cad>0</ns3:cad>
          </ns3:TrackPointExtension>
        </extensions>
      </trkpt>
      <trkpt lat="45.300138853490352630615234375" lon="-70.81460022367537021636962890625">
        <ele>957.4000244140625</ele>
        <time>2026-08-21T13:20:55.000Z</time>
        <extensions>
          <ns3:TrackPointExtension>
            <ns3:hr>150</ns3:hr>
            <ns3:cad>0</ns3:cad>
          </ns3:TrackPointExtension>
        </extensions>
      </trkpt>
      <trkpt lat="45.30013223178684711456298828125" lon="-70.81461061723530292510986328125">
        <ele>957.5999755859375</ele>
        <time>2026-08-21T13:20:56.000Z</time>
        <extensions>
          <ns3:TrackPointExtension>
            <ns3:hr>150</ns3:hr>
            <ns3:cad>0</ns3:cad>
          </ns3:TrackPointExtension>
        </extensions>
      </trkpt>
      <trkpt lat="45.3001246042549610137939453125" lon="-70.81461715511977672576904296875">
        <ele>957.5999755859375</ele>
        <time>2026-08-21T13:20:57.000Z</time>
        <extensions>
          <ns3:TrackPointExtension>
            <ns3:hr>149</ns3:hr>
            <ns3:cad>53</ns3:cad>
          </ns3:TrackPointExtension>
        </extensions>
      </trkpt>
      <trkpt lat="45.3001135401427745819091796875" lon="-70.81462117843329906463623046875">
        <ele>957.79998779296875</ele>
        <time>2026-08-21T13:20:58.000Z</time>
        <extensions>
          <ns3:TrackPointExtension>
            <ns3:hr>150</ns3:hr>
            <ns3:cad>55</ns3:cad>
          </ns3:TrackPointExtension>
        </extensions>
      </trkpt>
      <trkpt lat="45.300099961459636688232421875" lon="-70.81462369300425052642822265625">
        <ele>957.79998779296875</ele>
        <time>2026-08-21T13:20:59.000Z</time>
        <extensions>
          <ns3:TrackPointExtension>
            <ns3:hr>150</ns3:hr>
            <ns3:cad>55</ns3:cad>
          </ns3:TrackPointExtension>
        </extensions>
      </trkpt>
      <trkpt lat="45.3000937588512897491455078125" lon="-70.8146269619464874267578125">
        <ele>958</ele>
        <time>2026-08-21T13:21:00.000Z</time>
        <extensions>
          <ns3:TrackPointExtension>
            <ns3:hr>149</ns3:hr>
            <ns3:cad>55</ns3:cad>
          </ns3:TrackPointExtension>
        </extensions>
      </trkpt>
      <trkpt lat="45.30008596368134021759033203125" lon="-70.8146321587264537811279296875">
        <ele>958</ele>
        <time>2026-08-21T13:21:01.000Z</time>
        <extensions>
          <ns3:TrackPointExtension>
            <ns3:hr>150</ns3:hr>
            <ns3:cad>55</ns3:cad>
          </ns3:TrackPointExtension>
        </extensions>
      </trkpt>
      <trkpt lat="45.30007741414010524749755859375" lon="-70.81463810987770557403564453125">
        <ele>958.20001220703125</ele>
        <time>2026-08-21T13:21:02.000Z</time>
        <extensions>
          <ns3:TrackPointExtension>
            <ns3:hr>149</ns3:hr>
            <ns3:cad>53</ns3:cad>
          </ns3:TrackPointExtension>
        </extensions>
      </trkpt>
      <trkpt lat="45.300072133541107177734375" lon="-70.81464649178087711334228515625">
        <ele>958.20001220703125</ele>
        <time>2026-08-21T13:21:03.000Z</time>
        <extensions>
          <ns3:TrackPointExtension>
            <ns3:hr>149</ns3:hr>
            <ns3:cad>53</ns3:cad>
          </ns3:TrackPointExtension>
        </extensions>
      </trkpt>
      <trkpt lat="45.3000655956566333770751953125" lon="-70.81465604715049266815185546875">
        <ele>958.4000244140625</ele>
        <time>2026-08-21T13:21:04.000Z</time>
        <extensions>
          <ns3:TrackPointExtension>
            <ns3:hr>148</ns3:hr>
            <ns3:cad>53</ns3:cad>
          </ns3:TrackPointExtension>
        </extensions>
      </trkpt>
      <trkpt lat="45.3000585548579692840576171875" lon="-70.81466258503496646881103515625">
        <ele>958.5999755859375</ele>
        <time>2026-08-21T13:21:05.000Z</time>
        <extensions>
          <ns3:TrackPointExtension>
            <ns3:hr>148</ns3:hr>
            <ns3:cad>52</ns3:cad>
          </ns3:TrackPointExtension>
        </extensions>
      </trkpt>
      <trkpt lat="45.3000575490295886993408203125" lon="-70.8146670274436473846435546875">
        <ele>958.79998779296875</ele>
        <time>2026-08-21T13:21:06.000Z</time>
        <extensions>
          <ns3:TrackPointExtension>
            <ns3:hr>148</ns3:hr>
            <ns3:cad>52</ns3:cad>
          </ns3:TrackPointExtension>
        </extensions>
      </trkpt>
      <trkpt lat="45.3000491671264171600341796875" lon="-70.8146814443171024322509765625">
        <ele>959.20001220703125</ele>
        <time>2026-08-21T13:21:07.000Z</time>
        <extensions>
          <ns3:TrackPointExtension>
            <ns3:hr>148</ns3:hr>
            <ns3:cad>51</ns3:cad>
          </ns3:TrackPointExtension>
        </extensions>
      </trkpt>
      <trkpt lat="45.30004539526998996734619140625" lon="-70.81468664109706878662109375">
        <ele>959.4000244140625</ele>
        <time>2026-08-21T13:21:08.000Z</time>
        <extensions>
          <ns3:TrackPointExtension>
            <ns3:hr>148</ns3:hr>
            <ns3:cad>51</ns3:cad>
          </ns3:TrackPointExtension>
        </extensions>
      </trkpt>
      <trkpt lat="45.3000344149768352508544921875" lon="-70.81470298580825328826904296875">
        <ele>959.79998779296875</ele>
        <time>2026-08-21T13:21:09.000Z</time>
        <extensions>
          <ns3:TrackPointExtension>
            <ns3:hr>148</ns3:hr>
            <ns3:cad>51</ns3:cad>
          </ns3:TrackPointExtension>
        </extensions>
      </trkpt>
      <trkpt lat="45.30002997256815433502197265625" lon="-70.8147074282169342041015625">
        <ele>960</ele>
        <time>2026-08-21T13:21:10.000Z</time>
        <extensions>
          <ns3:TrackPointExtension>
            <ns3:hr>147</ns3:hr>
            <ns3:cad>0</ns3:cad>
          </ns3:TrackPointExtension>
        </extensions>
      </trkpt>
      <trkpt lat="45.30002209357917308807373046875" lon="-70.8147243596613407135009765625">
        <ele>960.4000244140625</ele>
        <time>2026-08-21T13:21:11.000Z</time>
        <extensions>
          <ns3:TrackPointExtension>
            <ns3:hr>147</ns3:hr>
            <ns3:cad>0</ns3:cad>
          </ns3:TrackPointExtension>
        </extensions>
      </trkpt>
      <trkpt lat="45.30001890845596790313720703125" lon="-70.81473768688738346099853515625">
        <ele>960.5999755859375</ele>
        <time>2026-08-21T13:21:12.000Z</time>
        <extensions>
          <ns3:TrackPointExtension>
            <ns3:hr>147</ns3:hr>
            <ns3:cad>0</ns3:cad>
          </ns3:TrackPointExtension>
        </extensions>
      </trkpt>
      <trkpt lat="45.30001580715179443359375" lon="-70.81474774517118930816650390625">
        <ele>960.79998779296875</ele>
        <time>2026-08-21T13:21:13.000Z</time>
        <extensions>
          <ns3:TrackPointExtension>
            <ns3:hr>147</ns3:hr>
            <ns3:cad>0</ns3:cad>
          </ns3:TrackPointExtension>
        </extensions>
      </trkpt>
      <trkpt lat="45.300016142427921295166015625" lon="-70.81475227139890193939208984375">
        <ele>961</ele>
        <time>2026-08-21T13:21:14.000Z</time>
        <extensions>
          <ns3:TrackPointExtension>
            <ns3:hr>146</ns3:hr>
            <ns3:cad>0</ns3:cad>
          </ns3:TrackPointExtension>
        </extensions>
      </trkpt>
      <trkpt lat="45.3000106103718280792236328125" lon="-70.8147691190242767333984375">
        <ele>961.4000244140625</ele>
        <time>2026-08-21T13:21:15.000Z</time>
        <extensions>
          <ns3:TrackPointExtension>
            <ns3:hr>147</ns3:hr>
            <ns3:cad>0</ns3:cad>
          </ns3:TrackPointExtension>
        </extensions>
      </trkpt>
      <trkpt lat="45.30000868253409862518310546875" lon="-70.8147776685655117034912109375">
        <ele>961.5999755859375</ele>
        <time>2026-08-21T13:21:16.000Z</time>
        <extensions>
          <ns3:TrackPointExtension>
            <ns3:hr>147</ns3:hr>
            <ns3:cad>0</ns3:cad>
          </ns3:TrackPointExtension>
        </extensions>
      </trkpt>
      <trkpt lat="45.3000065870583057403564453125" lon="-70.81478546373546123504638671875">
        <ele>961.79998779296875</ele>
        <time>2026-08-21T13:21:17.000Z</time>
        <extensions>
          <ns3:TrackPointExtension>
            <ns3:hr>148</ns3:hr>
            <ns3:cad>0</ns3:cad>
          </ns3:TrackPointExtension>
        </extensions>
      </trkpt>
      <trkpt lat="45.30000616796314716339111328125" lon="-70.81478831358253955841064453125">
        <ele>962</ele>
        <time>2026-08-21T13:21:18.000Z</time>
        <extensions>
          <ns3:TrackPointExtension>
            <ns3:hr>148</ns3:hr>
            <ns3:cad>0</ns3:cad>
          </ns3:TrackPointExtension>
        </extensions>
      </trkpt>
      <trkpt lat="45.30000038444995880126953125" lon="-70.81479929387569427490234375">
        <ele>962.20001220703125</ele>
        <time>2026-08-21T13:21:19.000Z</time>
        <extensions>
          <ns3:TrackPointExtension>
            <ns3:hr>148</ns3:hr>
            <ns3:cad>0</ns3:cad>
          </ns3:TrackPointExtension>
        </extensions>
      </trkpt>
      <trkpt lat="45.2999968640506267547607421875" lon="-70.8148108609020709991455078125">
        <ele>962.4000244140625</ele>
        <time>2026-08-21T13:21:20.000Z</time>
        <extensions>
          <ns3:TrackPointExtension>
            <ns3:hr>149</ns3:hr>
            <ns3:cad>0</ns3:cad>
          </ns3:TrackPointExtension>
        </extensions>
      </trkpt>
      <trkpt lat="45.29999367892742156982421875" lon="-70.8148128725588321685791015625">
        <ele>962.5999755859375</ele>
        <time>2026-08-21T13:21:21.000Z</time>
        <extensions>
          <ns3:TrackPointExtension>
            <ns3:hr>148</ns3:hr>
            <ns3:cad>0</ns3:cad>
          </ns3:TrackPointExtension>
        </extensions>
      </trkpt>
      <trkpt lat="45.2999914996325969696044921875" lon="-70.81481815315783023834228515625">
        <ele>963</ele>
        <time>2026-08-21T13:21:22.000Z</time>
        <extensions>
          <ns3:TrackPointExtension>
            <ns3:hr>148</ns3:hr>
            <ns3:cad>0</ns3:cad>
          </ns3:TrackPointExtension>
        </extensions>
      </trkpt>
      <trkpt lat="45.29998563230037689208984375" lon="-70.8148313127458095550537109375">
        <ele>963.20001220703125</ele>
        <time>2026-08-21T13:21:23.000Z</time>
        <extensions>
          <ns3:TrackPointExtension>
            <ns3:hr>148</ns3:hr>
            <ns3:cad>0</ns3:cad>
          </ns3:TrackPointExtension>
        </extensions>
      </trkpt>
      <trkpt lat="45.29998563230037689208984375" lon="-70.81483927555382251739501953125">
        <ele>963.4000244140625</ele>
        <time>2026-08-21T13:21:24.000Z</time>
        <extensions>
          <ns3:TrackPointExtension>
            <ns3:hr>148</ns3:hr>
            <ns3:cad>0</ns3:cad>
          </ns3:TrackPointExtension>
        </extensions>
      </trkpt>
      <trkpt lat="45.29998756013810634613037109375" lon="-70.81484489142894744873046875">
        <ele>963.5999755859375</ele>
        <time>2026-08-21T13:21:25.000Z</time>
        <extensions>
          <ns3:TrackPointExtension>
            <ns3:hr>148</ns3:hr>
            <ns3:cad>0</ns3:cad>
          </ns3:TrackPointExtension>
        </extensions>
      </trkpt>
      <trkpt lat="45.2999854646623134613037109375" lon="-70.8148576319217681884765625">
        <ele>963.79998779296875</ele>
        <time>2026-08-21T13:21:26.000Z</time>
        <extensions>
          <ns3:TrackPointExtension>
            <ns3:hr>149</ns3:hr>
            <ns3:cad>0</ns3:cad>
          </ns3:TrackPointExtension>
        </extensions>
      </trkpt>
      <trkpt lat="45.29998320154845714569091796875" lon="-70.81487171351909637451171875">
        <ele>964</ele>
        <time>2026-08-21T13:21:27.000Z</time>
        <extensions>
          <ns3:TrackPointExtension>
            <ns3:hr>149</ns3:hr>
            <ns3:cad>0</ns3:cad>
          </ns3:TrackPointExtension>
        </extensions>
      </trkpt>
      <trkpt lat="45.29998295009136199951171875" lon="-70.8148621581494808197021484375">
        <ele>964.4000244140625</ele>
        <time>2026-08-21T13:21:28.000Z</time>
        <extensions>
          <ns3:TrackPointExtension>
            <ns3:hr>149</ns3:hr>
            <ns3:cad>0</ns3:cad>
          </ns3:TrackPointExtension>
        </extensions>
      </trkpt>
      <trkpt lat="45.299976579844951629638671875" lon="-70.81486727111041545867919921875">
        <ele>964.5999755859375</ele>
        <time>2026-08-21T13:21:29.000Z</time>
        <extensions>
          <ns3:TrackPointExtension>
            <ns3:hr>149</ns3:hr>
            <ns3:cad>0</ns3:cad>
          </ns3:TrackPointExtension>
        </extensions>
      </trkpt>
      <trkpt lat="45.299966521561145782470703125" lon="-70.8148737251758575439453125">
        <ele>965</ele>
        <time>2026-08-21T13:21:30.000Z</time>
        <extensions>
          <ns3:TrackPointExtension>
            <ns3:hr>150</ns3:hr>
            <ns3:cad>0</ns3:cad>
          </ns3:TrackPointExtension>
        </extensions>
      </trkpt>
      <trkpt lat="45.29995881021022796630859375" lon="-70.81487707793712615966796875">
        <ele>965.20001220703125</ele>
        <time>2026-08-21T13:21:31.000Z</time>
        <extensions>
          <ns3:TrackPointExtension>
            <ns3:hr>150</ns3:hr>
            <ns3:cad>0</ns3:cad>
          </ns3:TrackPointExtension>
        </extensions>
      </trkpt>
      <trkpt lat="45.299955792725086212158203125" lon="-70.81487498246133327484130859375">
        <ele>965.4000244140625</ele>
        <time>2026-08-21T13:21:32.000Z</time>
        <extensions>
          <ns3:TrackPointExtension>
            <ns3:hr>150</ns3:hr>
            <ns3:cad>0</ns3:cad>
          </ns3:TrackPointExtension>
        </extensions>
      </trkpt>
      <trkpt lat="45.299942381680011749267578125" lon="-70.814882777631282806396484375">
        <ele>965.5999755859375</ele>
        <time>2026-08-21T13:21:33.000Z</time>
        <extensions>
          <ns3:TrackPointExtension>
            <ns3:hr>150</ns3:hr>
            <ns3:cad>45</ns3:cad>
          </ns3:TrackPointExtension>
        </extensions>
      </trkpt>
      <trkpt lat="45.29993693344295024871826171875" lon="-70.81489476375281810760498046875">
        <ele>965.79998779296875</ele>
        <time>2026-08-21T13:21:34.000Z</time>
        <extensions>
          <ns3:TrackPointExtension>
            <ns3:hr>150</ns3:hr>
            <ns3:cad>45</ns3:cad>
          </ns3:TrackPointExtension>
        </extensions>
      </trkpt>
      <trkpt lat="45.2999286353588104248046875" lon="-70.814908258616924285888671875">
        <ele>966</ele>
        <time>2026-08-21T13:21:35.000Z</time>
        <extensions>
          <ns3:TrackPointExtension>
            <ns3:hr>151</ns3:hr>
            <ns3:cad>45</ns3:cad>
          </ns3:TrackPointExtension>
        </extensions>
      </trkpt>
      <trkpt lat="45.299920253455638885498046875" lon="-70.81492644734680652618408203125">
        <ele>966</ele>
        <time>2026-08-21T13:21:36.000Z</time>
        <extensions>
          <ns3:TrackPointExtension>
            <ns3:hr>151</ns3:hr>
            <ns3:cad>43</ns3:cad>
          </ns3:TrackPointExtension>
        </extensions>
      </trkpt>
      <trkpt lat="45.29991430230438709259033203125" lon="-70.81493767909705638885498046875">
        <ele>966.20001220703125</ele>
        <time>2026-08-21T13:21:37.000Z</time>
        <extensions>
          <ns3:TrackPointExtension>
            <ns3:hr>152</ns3:hr>
            <ns3:cad>43</ns3:cad>
          </ns3:TrackPointExtension>
        </extensions>
      </trkpt>
      <trkpt lat="45.29990441165864467620849609375" lon="-70.8149526827037334442138671875">
        <ele>966</ele>
        <time>2026-08-21T13:21:38.000Z</time>
        <extensions>
          <ns3:TrackPointExtension>
            <ns3:hr>152</ns3:hr>
            <ns3:cad>43</ns3:cad>
          </ns3:TrackPointExtension>
        </extensions>
      </trkpt>
      <trkpt lat="45.29989250935614109039306640625" lon="-70.8149674348533153533935546875">
        <ele>966</ele>
        <time>2026-08-21T13:21:39.000Z</time>
        <extensions>
          <ns3:TrackPointExtension>
            <ns3:hr>152</ns3:hr>
            <ns3:cad>43</ns3:cad>
          </ns3:TrackPointExtension>
        </extensions>
      </trkpt>
      <trkpt lat="45.29988647438585758209228515625" lon="-70.81497925333678722381591796875">
        <ele>966.20001220703125</ele>
        <time>2026-08-21T13:21:40.000Z</time>
        <extensions>
          <ns3:TrackPointExtension>
            <ns3:hr>152</ns3:hr>
            <ns3:cad>43</ns3:cad>
          </ns3:TrackPointExtension>
        </extensions>
      </trkpt>
      <trkpt lat="45.29987993650138378143310546875" lon="-70.81499031744897365570068359375">
        <ele>966.20001220703125</ele>
        <time>2026-08-21T13:21:41.000Z</time>
        <extensions>
          <ns3:TrackPointExtension>
            <ns3:hr>152</ns3:hr>
            <ns3:cad>0</ns3:cad>
          </ns3:TrackPointExtension>
        </extensions>
      </trkpt>
      <trkpt lat="45.29987624846398830413818359375" lon="-70.81500272266566753387451171875">
        <ele>966.4000244140625</ele>
        <time>2026-08-21T13:21:42.000Z</time>
        <extensions>
          <ns3:TrackPointExtension>
            <ns3:hr>152</ns3:hr>
            <ns3:cad>0</ns3:cad>
          </ns3:TrackPointExtension>
        </extensions>
      </trkpt>
      <trkpt lat="45.2998661063611507415771484375" lon="-70.81501496024429798126220703125">
        <ele>966.5999755859375</ele>
        <time>2026-08-21T13:21:43.000Z</time>
        <extensions>
          <ns3:TrackPointExtension>
            <ns3:hr>152</ns3:hr>
            <ns3:cad>0</ns3:cad>
          </ns3:TrackPointExtension>
        </extensions>
      </trkpt>
      <trkpt lat="45.29985847882926464080810546875" lon="-70.81502820365130901336669921875">
        <ele>966.79998779296875</ele>
        <time>2026-08-21T13:21:44.000Z</time>
        <extensions>
          <ns3:TrackPointExtension>
            <ns3:hr>153</ns3:hr>
            <ns3:cad>0</ns3:cad>
          </ns3:TrackPointExtension>
        </extensions>
      </trkpt>
      <trkpt lat="45.2998480014503002166748046875" lon="-70.8150427043437957763671875">
        <ele>966.79998779296875</ele>
        <time>2026-08-21T13:21:45.000Z</time>
        <extensions>
          <ns3:TrackPointExtension>
            <ns3:hr>153</ns3:hr>
            <ns3:cad>0</ns3:cad>
          </ns3:TrackPointExtension>
        </extensions>
      </trkpt>
      <trkpt lat="45.29984104447066783905029296875" lon="-70.815059803426265716552734375">
        <ele>967</ele>
        <time>2026-08-21T13:21:46.000Z</time>
        <extensions>
          <ns3:TrackPointExtension>
            <ns3:hr>152</ns3:hr>
            <ns3:cad>0</ns3:cad>
          </ns3:TrackPointExtension>
        </extensions>
      </trkpt>
      <trkpt lat="45.2998295612633228302001953125" lon="-70.81507296301424503326416015625">
        <ele>967</ele>
        <time>2026-08-21T13:21:47.000Z</time>
        <extensions>
          <ns3:TrackPointExtension>
            <ns3:hr>152</ns3:hr>
            <ns3:cad>0</ns3:cad>
          </ns3:TrackPointExtension>
        </extensions>
      </trkpt>
      <trkpt lat="45.29981858097016811370849609375" lon="-70.81508620642125606536865234375">
        <ele>967.20001220703125</ele>
        <time>2026-08-21T13:21:48.000Z</time>
        <extensions>
          <ns3:TrackPointExtension>
            <ns3:hr>152</ns3:hr>
            <ns3:cad>52</ns3:cad>
          </ns3:TrackPointExtension>
        </extensions>
      </trkpt>
      <trkpt lat="45.2998148091137409210205078125" lon="-70.81510062329471111297607421875">
        <ele>967.20001220703125</ele>
        <time>2026-08-21T13:21:49.000Z</time>
        <extensions>
          <ns3:TrackPointExtension>
            <ns3:hr>152</ns3:hr>
            <ns3:cad>52</ns3:cad>
          </ns3:TrackPointExtension>
        </extensions>
      </trkpt>
      <trkpt lat="45.29980734921991825103759765625" lon="-70.81511504016816616058349609375">
        <ele>967.20001220703125</ele>
        <time>2026-08-21T13:21:50.000Z</time>
        <extensions>
          <ns3:TrackPointExtension>
            <ns3:hr>152</ns3:hr>
            <ns3:cad>52</ns3:cad>
          </ns3:TrackPointExtension>
        </extensions>
      </trkpt>
      <trkpt lat="45.29980097897350788116455078125" lon="-70.81512627191841602325439453125">
        <ele>967.4000244140625</ele>
        <time>2026-08-21T13:21:51.000Z</time>
        <extensions>
          <ns3:TrackPointExtension>
            <ns3:hr>152</ns3:hr>
            <ns3:cad>52</ns3:cad>
          </ns3:TrackPointExtension>
        </extensions>
      </trkpt>
      <trkpt lat="45.29979695565998554229736328125" lon="-70.81513850949704647064208984375">
        <ele>967.4000244140625</ele>
        <time>2026-08-21T13:21:52.000Z</time>
        <extensions>
          <ns3:TrackPointExtension>
            <ns3:hr>153</ns3:hr>
            <ns3:cad>52</ns3:cad>
          </ns3:TrackPointExtension>
        </extensions>
      </trkpt>
      <trkpt lat="45.299790166318416595458984375" lon="-70.81515359692275524139404296875">
        <ele>967.5999755859375</ele>
        <time>2026-08-21T13:21:53.000Z</time>
        <extensions>
          <ns3:TrackPointExtension>
            <ns3:hr>154</ns3:hr>
            <ns3:cad>54</ns3:cad>
          </ns3:TrackPointExtension>
        </extensions>
      </trkpt>
      <trkpt lat="45.2997802756726741790771484375" lon="-70.81516667269170284271240234375">
        <ele>967.79998779296875</ele>
        <time>2026-08-21T13:21:54.000Z</time>
        <extensions>
          <ns3:TrackPointExtension>
            <ns3:hr>154</ns3:hr>
            <ns3:cad>54</ns3:cad>
          </ns3:TrackPointExtension>
        </extensions>
      </trkpt>
      <trkpt lat="45.2997698821127414703369140625" lon="-70.815181843936443328857421875">
        <ele>968</ele>
        <time>2026-08-21T13:21:55.000Z</time>
        <extensions>
          <ns3:TrackPointExtension>
            <ns3:hr>154</ns3:hr>
            <ns3:cad>51</ns3:cad>
          </ns3:TrackPointExtension>
        </extensions>
      </trkpt>
      <trkpt lat="45.2997665293514728546142578125" lon="-70.815177150070667266845703125">
        <ele>968.20001220703125</ele>
        <time>2026-08-21T13:21:56.000Z</time>
        <extensions>
          <ns3:TrackPointExtension>
            <ns3:hr>154</ns3:hr>
            <ns3:cad>51</ns3:cad>
          </ns3:TrackPointExtension>
        </extensions>
      </trkpt>
      <trkpt lat="45.299755632877349853515625" lon="-70.8151850290596485137939453125">
        <ele>968.20001220703125</ele>
        <time>2026-08-21T13:21:57.000Z</time>
        <extensions>
          <ns3:TrackPointExtension>
            <ns3:hr>154</ns3:hr>
            <ns3:cad>0</ns3:cad>
          </ns3:TrackPointExtension>
        </extensions>
      </trkpt>
      <trkpt lat="45.29974280856549739837646484375" lon="-70.81519785337150096893310546875">
        <ele>968.4000244140625</ele>
        <time>2026-08-21T13:21:58.000Z</time>
        <extensions>
          <ns3:TrackPointExtension>
            <ns3:hr>153</ns3:hr>
            <ns3:cad>0</ns3:cad>
          </ns3:TrackPointExtension>
        </extensions>
      </trkpt>
      <trkpt lat="45.299741216003894805908203125" lon="-70.815205313265323638916015625">
        <ele>968.5999755859375</ele>
        <time>2026-08-21T13:21:59.000Z</time>
        <extensions>
          <ns3:TrackPointExtension>
            <ns3:hr>153</ns3:hr>
            <ns3:cad>0</ns3:cad>
          </ns3:TrackPointExtension>
        </extensions>
      </trkpt>
      <trkpt lat="45.299735851585865020751953125" lon="-70.815217383205890655517578125">
        <ele>968.79998779296875</ele>
        <time>2026-08-21T13:22:00.000Z</time>
        <extensions>
          <ns3:TrackPointExtension>
            <ns3:hr>152</ns3:hr>
            <ns3:cad>0</ns3:cad>
          </ns3:TrackPointExtension>
        </extensions>
      </trkpt>
      <trkpt lat="45.29973509721457958221435546875" lon="-70.8152302913367748260498046875">
        <ele>969.20001220703125</ele>
        <time>2026-08-21T13:22:01.000Z</time>
        <extensions>
          <ns3:TrackPointExtension>
            <ns3:hr>152</ns3:hr>
            <ns3:cad>0</ns3:cad>
          </ns3:TrackPointExtension>
        </extensions>
      </trkpt>
      <trkpt lat="45.29973425902426242828369140625" lon="-70.815254263579845428466796875">
        <ele>969.4000244140625</ele>
        <time>2026-08-21T13:22:02.000Z</time>
        <extensions>
          <ns3:TrackPointExtension>
            <ns3:hr>152</ns3:hr>
            <ns3:cad>0</ns3:cad>
          </ns3:TrackPointExtension>
        </extensions>
      </trkpt>
      <trkpt lat="45.29973492957651615142822265625" lon="-70.8152680099010467529296875">
        <ele>969.5999755859375</ele>
        <time>2026-08-21T13:22:03.000Z</time>
        <extensions>
          <ns3:TrackPointExtension>
            <ns3:hr>152</ns3:hr>
            <ns3:cad>0</ns3:cad>
          </ns3:TrackPointExtension>
        </extensions>
      </trkpt>
      <trkpt lat="45.2997355163097381591796875" lon="-70.81527295522391796112060546875">
        <ele>970</ele>
        <time>2026-08-21T13:22:04.000Z</time>
        <extensions>
          <ns3:TrackPointExtension>
            <ns3:hr>152</ns3:hr>
            <ns3:cad>0</ns3:cad>
          </ns3:TrackPointExtension>
        </extensions>
      </trkpt>
      <trkpt lat="45.2997293137013912200927734375" lon="-70.81529139541089534759521484375">
        <ele>970.20001220703125</ele>
        <time>2026-08-21T13:22:05.000Z</time>
        <extensions>
          <ns3:TrackPointExtension>
            <ns3:hr>152</ns3:hr>
            <ns3:cad>0</ns3:cad>
          </ns3:TrackPointExtension>
        </extensions>
      </trkpt>
      <trkpt lat="45.2997236140072345733642578125" lon="-70.815303213894367218017578125">
        <ele>970.5999755859375</ele>
        <time>2026-08-21T13:22:06.000Z</time>
        <extensions>
          <ns3:TrackPointExtension>
            <ns3:hr>152</ns3:hr>
            <ns3:cad>0</ns3:cad>
          </ns3:TrackPointExtension>
        </extensions>
      </trkpt>
      <trkpt lat="45.29972017742693424224853515625" lon="-70.81530882976949214935302734375">
        <ele>970.79998779296875</ele>
        <time>2026-08-21T13:22:07.000Z</time>
        <extensions>
          <ns3:TrackPointExtension>
            <ns3:hr>152</ns3:hr>
            <ns3:cad>0</ns3:cad>
          </ns3:TrackPointExtension>
        </extensions>
      </trkpt>
      <trkpt lat="45.299719087779521942138671875" lon="-70.81532056443393230438232421875">
        <ele>971.20001220703125</ele>
        <time>2026-08-21T13:22:08.000Z</time>
        <extensions>
          <ns3:TrackPointExtension>
            <ns3:hr>151</ns3:hr>
            <ns3:cad>0</ns3:cad>
          </ns3:TrackPointExtension>
        </extensions>
      </trkpt>
      <trkpt lat="45.2997175790369510650634765625" lon="-70.81533011980354785919189453125">
        <ele>971.4000244140625</ele>
        <time>2026-08-21T13:22:09.000Z</time>
        <extensions>
          <ns3:TrackPointExtension>
            <ns3:hr>151</ns3:hr>
            <ns3:cad>0</ns3:cad>
          </ns3:TrackPointExtension>
        </extensions>
      </trkpt>
      <trkpt lat="45.2997199259698390960693359375" lon="-70.8153385855257511138916015625">
        <ele>971.5999755859375</ele>
        <time>2026-08-21T13:22:10.000Z</time>
        <extensions>
          <ns3:TrackPointExtension>
            <ns3:hr>151</ns3:hr>
            <ns3:cad>0</ns3:cad>
          </ns3:TrackPointExtension>
        </extensions>
      </trkpt>
      <trkpt lat="45.29971699230372905731201171875" lon="-70.8153405971825122833251953125">
        <ele>971.79998779296875</ele>
        <time>2026-08-21T13:22:11.000Z</time>
        <extensions>
          <ns3:TrackPointExtension>
            <ns3:hr>150</ns3:hr>
            <ns3:cad>0</ns3:cad>
          </ns3:TrackPointExtension>
        </extensions>
      </trkpt>
      <trkpt lat="45.29971397481858730316162109375" lon="-70.81534788943827152252197265625">
        <ele>972.20001220703125</ele>
        <time>2026-08-21T13:22:12.000Z</time>
        <extensions>
          <ns3:TrackPointExtension>
            <ns3:hr>150</ns3:hr>
            <ns3:cad>0</ns3:cad>
          </ns3:TrackPointExtension>
        </extensions>
      </trkpt>
      <trkpt lat="45.2997075207531452178955078125" lon="-70.815347135066986083984375">
        <ele>972.4000244140625</ele>
        <time>2026-08-21T13:22:13.000Z</time>
        <extensions>
          <ns3:TrackPointExtension>
            <ns3:hr>150</ns3:hr>
            <ns3:cad>0</ns3:cad>
          </ns3:TrackPointExtension>
        </extensions>
      </trkpt>
      <trkpt lat="45.29969972558319568634033203125" lon="-70.81535610370337963104248046875">
        <ele>972.79998779296875</ele>
        <time>2026-08-21T13:22:14.000Z</time>
        <extensions>
          <ns3:TrackPointExtension>
            <ns3:hr>150</ns3:hr>
            <ns3:cad>0</ns3:cad>
          </ns3:TrackPointExtension>
        </extensions>
      </trkpt>
      <trkpt lat="45.29970022849738597869873046875" lon="-70.81536113284528255462646484375">
        <ele>973</ele>
        <time>2026-08-21T13:22:15.000Z</time>
        <extensions>
          <ns3:TrackPointExtension>
            <ns3:hr>150</ns3:hr>
            <ns3:cad>0</ns3:cad>
          </ns3:TrackPointExtension>
        </extensions>
      </trkpt>
      <trkpt lat="45.29969670809805393218994140625" lon="-70.8153707720339298248291015625">
        <ele>973.4000244140625</ele>
        <time>2026-08-21T13:22:16.000Z</time>
        <extensions>
          <ns3:TrackPointExtension>
            <ns3:hr>151</ns3:hr>
            <ns3:cad>0</ns3:cad>
          </ns3:TrackPointExtension>
        </extensions>
      </trkpt>
      <trkpt lat="45.29969503171741962432861328125" lon="-70.8153806626796722412109375">
        <ele>973.79998779296875</ele>
        <time>2026-08-21T13:22:17.000Z</time>
        <extensions>
          <ns3:TrackPointExtension>
            <ns3:hr>150</ns3:hr>
            <ns3:cad>0</ns3:cad>
          </ns3:TrackPointExtension>
        </extensions>
      </trkpt>
      <trkpt lat="45.299699641764163970947265625" lon="-70.815395079553127288818359375">
        <ele>974</ele>
        <time>2026-08-21T13:22:18.000Z</time>
        <extensions>
          <ns3:TrackPointExtension>
            <ns3:hr>150</ns3:hr>
            <ns3:cad>0</ns3:cad>
          </ns3:TrackPointExtension>
        </extensions>
      </trkpt>
      <trkpt lat="45.299705676734447479248046875" lon="-70.81540622748434543609619140625">
        <ele>974.20001220703125</ele>
        <time>2026-08-21T13:22:19.000Z</time>
        <extensions>
          <ns3:TrackPointExtension>
            <ns3:hr>150</ns3:hr>
            <ns3:cad>0</ns3:cad>
          </ns3:TrackPointExtension>
        </extensions>
      </trkpt>
      <trkpt lat="45.29971070587635040283203125" lon="-70.81541276536881923675537109375">
        <ele>974.4000244140625</ele>
        <time>2026-08-21T13:22:20.000Z</time>
        <extensions>
          <ns3:TrackPointExtension>
            <ns3:hr>150</ns3:hr>
            <ns3:cad>0</ns3:cad>
          </ns3:TrackPointExtension>
        </extensions>
      </trkpt>
      <trkpt lat="45.29971833340823650360107421875" lon="-70.81541829742491245269775390625">
        <ele>974.5999755859375</ele>
        <time>2026-08-21T13:22:21.000Z</time>
        <extensions>
          <ns3:TrackPointExtension>
            <ns3:hr>151</ns3:hr>
            <ns3:cad>0</ns3:cad>
          </ns3:TrackPointExtension>
        </extensions>
      </trkpt>
      <trkpt lat="45.29972487129271030426025390625" lon="-70.8154240809381008148193359375">
        <ele>974.79998779296875</ele>
        <time>2026-08-21T13:22:22.000Z</time>
        <extensions>
          <ns3:TrackPointExtension>
            <ns3:hr>150</ns3:hr>
            <ns3:cad>0</ns3:cad>
          </ns3:TrackPointExtension>
        </extensions>
      </trkpt>
      <trkpt lat="45.29972470365464687347412109375" lon="-70.8154307864606380462646484375">
        <ele>975</ele>
        <time>2026-08-21T13:22:23.000Z</time>
        <extensions>
          <ns3:TrackPointExtension>
            <ns3:hr>150</ns3:hr>
            <ns3:cad>0</ns3:cad>
          </ns3:TrackPointExtension>
        </extensions>
      </trkpt>
      <trkpt lat="45.2997194230556488037109375" lon="-70.81543556414544582366943359375">
        <ele>975.20001220703125</ele>
        <time>2026-08-21T13:22:24.000Z</time>
        <extensions>
          <ns3:TrackPointExtension>
            <ns3:hr>150</ns3:hr>
            <ns3:cad>0</ns3:cad>
          </ns3:TrackPointExtension>
        </extensions>
      </trkpt>
      <trkpt lat="45.2997216023504734039306640625" lon="-70.81543958745896816253662109375">
        <ele>975.20001220703125</ele>
        <time>2026-08-21T13:22:25.000Z</time>
        <extensions>
          <ns3:TrackPointExtension>
            <ns3:hr>151</ns3:hr>
            <ns3:cad>0</ns3:cad>
          </ns3:TrackPointExtension>
        </extensions>
      </trkpt>
      <trkpt lat="45.29972353018820285797119140625" lon="-70.81544847227632999420166015625">
        <ele>975.4000244140625</ele>
        <time>2026-08-21T13:22:26.000Z</time>
        <extensions>
          <ns3:TrackPointExtension>
            <ns3:hr>150</ns3:hr>
            <ns3:cad>0</ns3:cad>
          </ns3:TrackPointExtension>
        </extensions>
      </trkpt>
      <trkpt lat="45.29972470365464687347412109375" lon="-70.81545886583626270294189453125">
        <ele>975.79998779296875</ele>
        <time>2026-08-21T13:22:27.000Z</time>
        <extensions>
          <ns3:TrackPointExtension>
            <ns3:hr>150</ns3:hr>
            <ns3:cad>0</ns3:cad>
          </ns3:TrackPointExtension>
        </extensions>
      </trkpt>
      <trkpt lat="45.29972353018820285797119140625" lon="-70.8154676668345928192138671875">
        <ele>976</ele>
        <time>2026-08-21T13:22:28.000Z</time>
        <extensions>
          <ns3:TrackPointExtension>
            <ns3:hr>150</ns3:hr>
            <ns3:cad>0</ns3:cad>
          </ns3:TrackPointExtension>
        </extensions>
      </trkpt>
      <trkpt lat="45.29972420074045658111572265625" lon="-70.81547881476581096649169921875">
        <ele>976.20001220703125</ele>
        <time>2026-08-21T13:22:29.000Z</time>
        <extensions>
          <ns3:TrackPointExtension>
            <ns3:hr>150</ns3:hr>
            <ns3:cad>0</ns3:cad>
          </ns3:TrackPointExtension>
        </extensions>
      </trkpt>
      <trkpt lat="45.2997226081788539886474609375" lon="-70.81548996269702911376953125">
        <ele>976.4000244140625</ele>
        <time>2026-08-21T13:22:30.000Z</time>
        <extensions>
          <ns3:TrackPointExtension>
            <ns3:hr>151</ns3:hr>
            <ns3:cad>0</ns3:cad>
          </ns3:TrackPointExtension>
        </extensions>
      </trkpt>
      <trkpt lat="45.29972269199788570404052734375" lon="-70.81549004651606082916259765625">
        <ele>976.79998779296875</ele>
        <time>2026-08-21T13:22:31.000Z</time>
        <extensions>
          <ns3:TrackPointExtension>
            <ns3:hr>151</ns3:hr>
            <ns3:cad>0</ns3:cad>
          </ns3:TrackPointExtension>
        </extensions>
      </trkpt>
      <trkpt lat="45.2997222729027271270751953125" lon="-70.8154981769621372222900390625">
        <ele>977</ele>
        <time>2026-08-21T13:22:32.000Z</time>
        <extensions>
          <ns3:TrackPointExtension>
            <ns3:hr>150</ns3:hr>
            <ns3:cad>0</ns3:cad>
          </ns3:TrackPointExtension>
        </extensions>
      </trkpt>
      <trkpt lat="45.2997221052646636962890625" lon="-70.81550915725529193878173828125">
        <ele>977.4000244140625</ele>
        <time>2026-08-21T13:22:33.000Z</time>
        <extensions>
          <ns3:TrackPointExtension>
            <ns3:hr>150</ns3:hr>
            <ns3:cad>0</ns3:cad>
          </ns3:TrackPointExtension>
        </extensions>
      </trkpt>
      <trkpt lat="45.29972403310239315032958984375" lon="-70.81551586277782917022705078125">
        <ele>977.5999755859375</ele>
        <time>2026-08-21T13:22:34.000Z</time>
        <extensions>
          <ns3:TrackPointExtension>
            <ns3:hr>150</ns3:hr>
            <ns3:cad>0</ns3:cad>
          </ns3:TrackPointExtension>
        </extensions>
      </trkpt>
      <trkpt lat="45.29972436837852001190185546875" lon="-70.81551904790103435516357421875">
        <ele>977.79998779296875</ele>
        <time>2026-08-21T13:22:35.000Z</time>
        <extensions>
          <ns3:TrackPointExtension>
            <ns3:hr>150</ns3:hr>
            <ns3:cad>0</ns3:cad>
          </ns3:TrackPointExtension>
        </extensions>
      </trkpt>
      <trkpt lat="45.299723111093044281005859375" lon="-70.81552960909903049468994140625">
        <ele>978.20001220703125</ele>
        <time>2026-08-21T13:22:36.000Z</time>
        <extensions>
          <ns3:TrackPointExtension>
            <ns3:hr>150</ns3:hr>
            <ns3:cad>0</ns3:cad>
          </ns3:TrackPointExtension>
        </extensions>
      </trkpt>
      <trkpt lat="45.29972411692142486572265625" lon="-70.81553765572607517242431640625">
        <ele>978.4000244140625</ele>
        <time>2026-08-21T13:22:37.000Z</time>
        <extensions>
          <ns3:TrackPointExtension>
            <ns3:hr>149</ns3:hr>
            <ns3:cad>0</ns3:cad>
          </ns3:TrackPointExtension>
        </extensions>
      </trkpt>
      <trkpt lat="45.2997247874736785888671875" lon="-70.815543271601200103759765625">
        <ele>978.5999755859375</ele>
        <time>2026-08-21T13:22:38.000Z</time>
        <extensions>
          <ns3:TrackPointExtension>
            <ns3:hr>150</ns3:hr>
            <ns3:cad>0</ns3:cad>
          </ns3:TrackPointExtension>
        </extensions>
      </trkpt>
      <trkpt lat="45.29972135089337825775146484375" lon="-70.81555592827498912811279296875">
        <ele>979</ele>
        <time>2026-08-21T13:22:39.000Z</time>
        <extensions>
          <ns3:TrackPointExtension>
            <ns3:hr>150</ns3:hr>
            <ns3:cad>0</ns3:cad>
          </ns3:TrackPointExtension>
        </extensions>
      </trkpt>
      <trkpt lat="45.2997185848653316497802734375" lon="-70.81556682474911212921142578125">
        <ele>979.20001220703125</ele>
        <time>2026-08-21T13:22:40.000Z</time>
        <extensions>
          <ns3:TrackPointExtension>
            <ns3:hr>150</ns3:hr>
            <ns3:cad>0</ns3:cad>
          </ns3:TrackPointExtension>
        </extensions>
      </trkpt>
      <trkpt lat="45.29971648938953876495361328125" lon="-70.81557579338550567626953125">
        <ele>979.4000244140625</ele>
        <time>2026-08-21T13:22:41.000Z</time>
        <extensions>
          <ns3:TrackPointExtension>
            <ns3:hr>150</ns3:hr>
            <ns3:cad>0</ns3:cad>
          </ns3:TrackPointExtension>
        </extensions>
      </trkpt>
      <trkpt lat="45.29971296899020671844482421875" lon="-70.815581493079662322998046875">
        <ele>979.79998779296875</ele>
        <time>2026-08-21T13:22:42.000Z</time>
        <extensions>
          <ns3:TrackPointExtension>
            <ns3:hr>151</ns3:hr>
            <ns3:cad>0</ns3:cad>
          </ns3:TrackPointExtension>
        </extensions>
      </trkpt>
      <trkpt lat="45.29970844276249408721923828125" lon="-70.815593563020229339599609375">
        <ele>980</ele>
        <time>2026-08-21T13:22:43.000Z</time>
        <extensions>
          <ns3:TrackPointExtension>
            <ns3:hr>151</ns3:hr>
            <ns3:cad>0</ns3:cad>
          </ns3:TrackPointExtension>
        </extensions>
      </trkpt>
      <trkpt lat="45.29970894567668437957763671875" lon="-70.81560655497014522552490234375">
        <ele>980.20001220703125</ele>
        <time>2026-08-21T13:22:44.000Z</time>
        <extensions>
          <ns3:TrackPointExtension>
            <ns3:hr>152</ns3:hr>
            <ns3:cad>0</ns3:cad>
          </ns3:TrackPointExtension>
        </extensions>
      </trkpt>
      <trkpt lat="45.29970877803862094879150390625" lon="-70.815618373453617095947265625">
        <ele>980.4000244140625</ele>
        <time>2026-08-21T13:22:45.000Z</time>
        <extensions>
          <ns3:TrackPointExtension>
            <ns3:hr>153</ns3:hr>
            <ns3:cad>0</ns3:cad>
          </ns3:TrackPointExtension>
        </extensions>
      </trkpt>
      <trkpt lat="45.29970576055347919464111328125" lon="-70.815627090632915496826171875">
        <ele>980.79998779296875</ele>
        <time>2026-08-21T13:22:46.000Z</time>
        <extensions>
          <ns3:TrackPointExtension>
            <ns3:hr>154</ns3:hr>
            <ns3:cad>0</ns3:cad>
          </ns3:TrackPointExtension>
        </extensions>
      </trkpt>
      <trkpt lat="45.29970207251608371734619140625" lon="-70.8156336285173892974853515625">
        <ele>981</ele>
        <time>2026-08-21T13:22:47.000Z</time>
        <extensions>
          <ns3:TrackPointExtension>
            <ns3:hr>154</ns3:hr>
            <ns3:cad>42</ns3:cad>
          </ns3:TrackPointExtension>
        </extensions>
      </trkpt>
      <trkpt lat="45.29969503171741962432861328125" lon="-70.81563203595578670501708984375">
        <ele>981.20001220703125</ele>
        <time>2026-08-21T13:22:48.000Z</time>
        <extensions>
          <ns3:TrackPointExtension>
            <ns3:hr>154</ns3:hr>
            <ns3:cad>42</ns3:cad>
          </ns3:TrackPointExtension>
        </extensions>
      </trkpt>
      <trkpt lat="45.2996944449841976165771484375" lon="-70.81563622690737247467041015625">
        <ele>981.20001220703125</ele>
        <time>2026-08-21T13:22:49.000Z</time>
        <extensions>
          <ns3:TrackPointExtension>
            <ns3:hr>153</ns3:hr>
            <ns3:cad>42</ns3:cad>
          </ns3:TrackPointExtension>
        </extensions>
      </trkpt>
      <trkpt lat="45.299692265689373016357421875" lon="-70.81563840620219707489013671875">
        <ele>981.4000244140625</ele>
        <time>2026-08-21T13:22:50.000Z</time>
        <extensions>
          <ns3:TrackPointExtension>
            <ns3:hr>153</ns3:hr>
            <ns3:cad>0</ns3:cad>
          </ns3:TrackPointExtension>
        </extensions>
      </trkpt>
      <trkpt lat="45.29969184659421443939208984375" lon="-70.81563538871705532073974609375">
        <ele>981.5999755859375</ele>
        <time>2026-08-21T13:22:51.000Z</time>
        <extensions>
          <ns3:TrackPointExtension>
            <ns3:hr>153</ns3:hr>
            <ns3:cad>0</ns3:cad>
          </ns3:TrackPointExtension>
        </extensions>
      </trkpt>
      <trkpt lat="45.2996840514242649078369140625" lon="-70.8156376518309116363525390625">
        <ele>981.5999755859375</ele>
        <time>2026-08-21T13:22:52.000Z</time>
        <extensions>
          <ns3:TrackPointExtension>
            <ns3:hr>153</ns3:hr>
            <ns3:cad>0</ns3:cad>
          </ns3:TrackPointExtension>
        </extensions>
      </trkpt>
      <trkpt lat="45.2996770106256008148193359375" lon="-70.815637148916721343994140625">
        <ele>981.79998779296875</ele>
        <time>2026-08-21T13:22:53.000Z</time>
        <extensions>
          <ns3:TrackPointExtension>
            <ns3:hr>152</ns3:hr>
            <ns3:cad>0</ns3:cad>
          </ns3:TrackPointExtension>
        </extensions>
      </trkpt>
      <trkpt lat="45.29967089183628559112548828125" lon="-70.81563421525061130523681640625">
        <ele>982</ele>
        <time>2026-08-21T13:22:54.000Z</time>
        <extensions>
          <ns3:TrackPointExtension>
            <ns3:hr>152</ns3:hr>
            <ns3:cad>0</ns3:cad>
          </ns3:TrackPointExtension>
        </extensions>
      </trkpt>
      <trkpt lat="45.29966603033244609832763671875" lon="-70.81563220359385013580322265625">
        <ele>982.20001220703125</ele>
        <time>2026-08-21T13:22:55.000Z</time>
        <extensions>
          <ns3:TrackPointExtension>
            <ns3:hr>152</ns3:hr>
            <ns3:cad>43</ns3:cad>
          </ns3:TrackPointExtension>
        </extensions>
      </trkpt>
      <trkpt lat="45.299656726419925689697265625" lon="-70.81562901847064495086669921875">
        <ele>982.4000244140625</ele>
        <time>2026-08-21T13:22:56.000Z</time>
        <extensions>
          <ns3:TrackPointExtension>
            <ns3:hr>152</ns3:hr>
            <ns3:cad>43</ns3:cad>
          </ns3:TrackPointExtension>
        </extensions>
      </trkpt>
      <trkpt lat="45.29965010471642017364501953125" lon="-70.8156279288232326507568359375">
        <ele>982.79998779296875</ele>
        <time>2026-08-21T13:22:57.000Z</time>
        <extensions>
          <ns3:TrackPointExtension>
            <ns3:hr>153</ns3:hr>
            <ns3:cad>43</ns3:cad>
          </ns3:TrackPointExtension>
        </extensions>
      </trkpt>
      <trkpt lat="45.29964239336550235748291015625" lon="-70.81562097184360027313232421875">
        <ele>983</ele>
        <time>2026-08-21T13:22:58.000Z</time>
        <extensions>
          <ns3:TrackPointExtension>
            <ns3:hr>153</ns3:hr>
            <ns3:cad>43</ns3:cad>
          </ns3:TrackPointExtension>
        </extensions>
      </trkpt>
      <trkpt lat="45.29963300563395023345947265625" lon="-70.8156140148639678955078125">
        <ele>983.4000244140625</ele>
        <time>2026-08-21T13:22:59.000Z</time>
        <extensions>
          <ns3:TrackPointExtension>
            <ns3:hr>153</ns3:hr>
            <ns3:cad>50</ns3:cad>
          </ns3:TrackPointExtension>
        </extensions>
      </trkpt>
      <trkpt lat="45.29961951076984405517578125" lon="-70.8156121708452701568603515625">
        <ele>983.5999755859375</ele>
        <time>2026-08-21T13:23:00.000Z</time>
        <extensions>
          <ns3:TrackPointExtension>
            <ns3:hr>154</ns3:hr>
            <ns3:cad>50</ns3:cad>
          </ns3:TrackPointExtension>
        </extensions>
      </trkpt>
      <trkpt lat="45.299601741135120391845703125" lon="-70.81561493687331676483154296875">
        <ele>983.5999755859375</ele>
        <time>2026-08-21T13:23:01.000Z</time>
        <extensions>
          <ns3:TrackPointExtension>
            <ns3:hr>154</ns3:hr>
            <ns3:cad>50</ns3:cad>
          </ns3:TrackPointExtension>
        </extensions>
      </trkpt>
      <trkpt lat="45.29958740808069705963134765625" lon="-70.815622396767139434814453125">
        <ele>983.79998779296875</ele>
        <time>2026-08-21T13:23:02.000Z</time>
        <extensions>
          <ns3:TrackPointExtension>
            <ns3:hr>154</ns3:hr>
            <ns3:cad>50</ns3:cad>
          </ns3:TrackPointExtension>
        </extensions>
      </trkpt>
      <trkpt lat="45.29957785271108150482177734375" lon="-70.81562130711972713470458984375">
        <ele>984</ele>
        <time>2026-08-21T13:23:03.000Z</time>
        <extensions>
          <ns3:TrackPointExtension>
            <ns3:hr>154</ns3:hr>
            <ns3:cad>50</ns3:cad>
          </ns3:TrackPointExtension>
        </extensions>
      </trkpt>
      <trkpt lat="45.29956427402794361114501953125" lon="-70.81562968902289867401123046875">
        <ele>984</ele>
        <time>2026-08-21T13:23:04.000Z</time>
        <extensions>
          <ns3:TrackPointExtension>
            <ns3:hr>154</ns3:hr>
            <ns3:cad>50</ns3:cad>
          </ns3:TrackPointExtension>
        </extensions>
      </trkpt>
      <trkpt lat="45.29955136589705944061279296875" lon="-70.815641842782497406005859375">
        <ele>984.20001220703125</ele>
        <time>2026-08-21T13:23:05.000Z</time>
        <extensions>
          <ns3:TrackPointExtension>
            <ns3:hr>154</ns3:hr>
            <ns3:cad>50</ns3:cad>
          </ns3:TrackPointExtension>
        </extensions>
      </trkpt>
      <trkpt lat="45.2995485998690128326416015625" lon="-70.81564947031438350677490234375">
        <ele>984.5999755859375</ele>
        <time>2026-08-21T13:23:06.000Z</time>
        <extensions>
          <ns3:TrackPointExtension>
            <ns3:hr>154</ns3:hr>
            <ns3:cad>0</ns3:cad>
          </ns3:TrackPointExtension>
        </extensions>
      </trkpt>
      <trkpt lat="45.299547426402568817138671875" lon="-70.81565869040787220001220703125">
        <ele>984.79998779296875</ele>
        <time>2026-08-21T13:23:07.000Z</time>
        <extensions>
          <ns3:TrackPointExtension>
            <ns3:hr>154</ns3:hr>
            <ns3:cad>0</ns3:cad>
          </ns3:TrackPointExtension>
        </extensions>
      </trkpt>
      <trkpt lat="45.2995465882122516632080078125" lon="-70.81565902568399906158447265625">
        <ele>985</ele>
        <time>2026-08-21T13:23:08.000Z</time>
        <extensions>
          <ns3:TrackPointExtension>
            <ns3:hr>155</ns3:hr>
            <ns3:cad>0</ns3:cad>
          </ns3:TrackPointExtension>
        </extensions>
      </trkpt>
      <trkpt lat="45.2995472587645053863525390625" lon="-70.8156676590442657470703125">
        <ele>985.20001220703125</ele>
        <time>2026-08-21T13:23:09.000Z</time>
        <extensions>
          <ns3:TrackPointExtension>
            <ns3:hr>155</ns3:hr>
            <ns3:cad>0</ns3:cad>
          </ns3:TrackPointExtension>
        </extensions>
      </trkpt>
      <trkpt lat="45.29954315163195133209228515625" lon="-70.8156758733093738555908203125">
        <ele>985.4000244140625</ele>
        <time>2026-08-21T13:23:10.000Z</time>
        <extensions>
          <ns3:TrackPointExtension>
            <ns3:hr>155</ns3:hr>
            <ns3:cad>0</ns3:cad>
          </ns3:TrackPointExtension>
        </extensions>
      </trkpt>
      <trkpt lat="45.2995397150516510009765625" lon="-70.81568165682256221771240234375">
        <ele>985.79998779296875</ele>
        <time>2026-08-21T13:23:11.000Z</time>
        <extensions>
          <ns3:TrackPointExtension>
            <ns3:hr>154</ns3:hr>
            <ns3:cad>0</ns3:cad>
          </ns3:TrackPointExtension>
        </extensions>
      </trkpt>
      <trkpt lat="45.2995338477194309234619140625" lon="-70.81569355912506580352783203125">
        <ele>986</ele>
        <time>2026-08-21T13:23:12.000Z</time>
        <extensions>
          <ns3:TrackPointExtension>
            <ns3:hr>154</ns3:hr>
            <ns3:cad>0</ns3:cad>
          </ns3:TrackPointExtension>
        </extensions>
      </trkpt>
      <trkpt lat="45.29953946359455585479736328125" lon="-70.8156864345073699951171875">
        <ele>986.20001220703125</ele>
        <time>2026-08-21T13:23:13.000Z</time>
        <extensions>
          <ns3:TrackPointExtension>
            <ns3:hr>154</ns3:hr>
            <ns3:cad>0</ns3:cad>
          </ns3:TrackPointExtension>
        </extensions>
      </trkpt>
      <trkpt lat="45.299535691738128662109375" lon="-70.8156909607350826263427734375">
        <ele>986.4000244140625</ele>
        <time>2026-08-21T13:23:14.000Z</time>
        <extensions>
          <ns3:TrackPointExtension>
            <ns3:hr>154</ns3:hr>
            <ns3:cad>0</ns3:cad>
          </ns3:TrackPointExtension>
        </extensions>
      </trkpt>
      <trkpt lat="45.2995281480252742767333984375" lon="-70.815699510276317596435546875">
        <ele>986.5999755859375</ele>
        <time>2026-08-21T13:23:15.000Z</time>
        <extensions>
          <ns3:TrackPointExtension>
            <ns3:hr>155</ns3:hr>
            <ns3:cad>0</ns3:cad>
          </ns3:TrackPointExtension>
        </extensions>
      </trkpt>
      <trkpt lat="45.29952295124530792236328125" lon="-70.81569624133408069610595703125">
        <ele>986.79998779296875</ele>
        <time>2026-08-21T13:23:16.000Z</time>
        <extensions>
          <ns3:TrackPointExtension>
            <ns3:hr>154</ns3:hr>
            <ns3:cad>0</ns3:cad>
          </ns3:TrackPointExtension>
        </extensions>
      </trkpt>
      <trkpt lat="45.2995204366743564605712890625" lon="-70.81570244394242763519287109375">
        <ele>987</ele>
        <time>2026-08-21T13:23:17.000Z</time>
        <extensions>
          <ns3:TrackPointExtension>
            <ns3:hr>153</ns3:hr>
            <ns3:cad>0</ns3:cad>
          </ns3:TrackPointExtension>
        </extensions>
      </trkpt>
      <trkpt lat="45.2995154075324535369873046875" lon="-70.8157140947878360748291015625">
        <ele>987.20001220703125</ele>
        <time>2026-08-21T13:23:18.000Z</time>
        <extensions>
          <ns3:TrackPointExtension>
            <ns3:hr>152</ns3:hr>
            <ns3:cad>0</ns3:cad>
          </ns3:TrackPointExtension>
        </extensions>
      </trkpt>
      <trkpt lat="45.29951599426567554473876953125" lon="-70.81571937538683414459228515625">
        <ele>987.5999755859375</ele>
        <time>2026-08-21T13:23:19.000Z</time>
        <extensions>
          <ns3:TrackPointExtension>
            <ns3:hr>152</ns3:hr>
            <ns3:cad>0</ns3:cad>
          </ns3:TrackPointExtension>
        </extensions>
      </trkpt>
      <trkpt lat="45.2995164133608341217041015625" lon="-70.8157258294522762298583984375">
        <ele>987.79998779296875</ele>
        <time>2026-08-21T13:23:20.000Z</time>
        <extensions>
          <ns3:TrackPointExtension>
            <ns3:hr>152</ns3:hr>
            <ns3:cad>0</ns3:cad>
          </ns3:TrackPointExtension>
        </extensions>
      </trkpt>
      <trkpt lat="45.29951549135148525238037109375" lon="-70.815733037889003753662109375">
        <ele>988</ele>
        <time>2026-08-21T13:23:21.000Z</time>
        <extensions>
          <ns3:TrackPointExtension>
            <ns3:hr>151</ns3:hr>
            <ns3:cad>0</ns3:cad>
          </ns3:TrackPointExtension>
        </extensions>
      </trkpt>
      <trkpt lat="45.2995155751705169677734375" lon="-70.81573949195444583892822265625">
        <ele>988.20001220703125</ele>
        <time>2026-08-21T13:23:22.000Z</time>
        <extensions>
          <ns3:TrackPointExtension>
            <ns3:hr>151</ns3:hr>
            <ns3:cad>0</ns3:cad>
          </ns3:TrackPointExtension>
        </extensions>
      </trkpt>
      <trkpt lat="45.29951096512377262115478515625" lon="-70.8157452754676342010498046875">
        <ele>988.4000244140625</ele>
        <time>2026-08-21T13:23:23.000Z</time>
        <extensions>
          <ns3:TrackPointExtension>
            <ns3:hr>150</ns3:hr>
            <ns3:cad>41</ns3:cad>
          </ns3:TrackPointExtension>
        </extensions>
      </trkpt>
      <trkpt lat="45.2995090372860431671142578125" lon="-70.81574904732406139373779296875">
        <ele>988.5999755859375</ele>
        <time>2026-08-21T13:23:24.000Z</time>
        <extensions>
          <ns3:TrackPointExtension>
            <ns3:hr>150</ns3:hr>
            <ns3:cad>43</ns3:cad>
          </ns3:TrackPointExtension>
        </extensions>
      </trkpt>
      <trkpt lat="45.2995053492486476898193359375" lon="-70.8157556690275669097900390625">
        <ele>988.79998779296875</ele>
        <time>2026-08-21T13:23:25.000Z</time>
        <extensions>
          <ns3:TrackPointExtension>
            <ns3:hr>150</ns3:hr>
            <ns3:cad>43</ns3:cad>
          </ns3:TrackPointExtension>
        </extensions>
      </trkpt>
      <trkpt lat="45.2995026670396327972412109375" lon="-70.81575910560786724090576171875">
        <ele>989</ele>
        <time>2026-08-21T13:23:26.000Z</time>
        <extensions>
          <ns3:TrackPointExtension>
            <ns3:hr>150</ns3:hr>
            <ns3:cad>43</ns3:cad>
          </ns3:TrackPointExtension>
        </extensions>
      </trkpt>
      <trkpt lat="45.29949084855616092681884765625" lon="-70.8157650567591190338134765625">
        <ele>989.20001220703125</ele>
        <time>2026-08-21T13:23:27.000Z</time>
        <extensions>
          <ns3:TrackPointExtension>
            <ns3:hr>151</ns3:hr>
            <ns3:cad>43</ns3:cad>
          </ns3:TrackPointExtension>
        </extensions>
      </trkpt>
      <trkpt lat="45.2994835563004016876220703125" lon="-70.81577503122389316558837890625">
        <ele>989.4000244140625</ele>
        <time>2026-08-21T13:23:28.000Z</time>
        <extensions>
          <ns3:TrackPointExtension>
            <ns3:hr>151</ns3:hr>
            <ns3:cad>0</ns3:cad>
          </ns3:TrackPointExtension>
        </extensions>
      </trkpt>
      <trkpt lat="45.29947374947369098663330078125" lon="-70.81578877754509449005126953125">
        <ele>989.5999755859375</ele>
        <time>2026-08-21T13:23:29.000Z</time>
        <extensions>
          <ns3:TrackPointExtension>
            <ns3:hr>152</ns3:hr>
            <ns3:cad>0</ns3:cad>
          </ns3:TrackPointExtension>
        </extensions>
      </trkpt>
      <trkpt lat="45.29946687631309032440185546875" lon="-70.81579967401921749114990234375">
        <ele>989.5999755859375</ele>
        <time>2026-08-21T13:23:30.000Z</time>
        <extensions>
          <ns3:TrackPointExtension>
            <ns3:hr>152</ns3:hr>
            <ns3:cad>0</ns3:cad>
          </ns3:TrackPointExtension>
        </extensions>
      </trkpt>
      <trkpt lat="45.2994617633521556854248046875" lon="-70.8158111572265625">
        <ele>989.79998779296875</ele>
        <time>2026-08-21T13:23:31.000Z</time>
        <extensions>
          <ns3:TrackPointExtension>
            <ns3:hr>152</ns3:hr>
            <ns3:cad>0</ns3:cad>
          </ns3:TrackPointExtension>
        </extensions>
      </trkpt>
      <trkpt lat="45.29945380054414272308349609375" lon="-70.81582657992839813232421875">
        <ele>989.79998779296875</ele>
        <time>2026-08-21T13:23:32.000Z</time>
        <extensions>
          <ns3:TrackPointExtension>
            <ns3:hr>152</ns3:hr>
            <ns3:cad>0</ns3:cad>
          </ns3:TrackPointExtension>
        </extensions>
      </trkpt>
      <trkpt lat="45.2994480170309543609619140625" lon="-70.8158358000218868255615234375">
        <ele>989.79998779296875</ele>
        <time>2026-08-21T13:23:33.000Z</time>
        <extensions>
          <ns3:TrackPointExtension>
            <ns3:hr>151</ns3:hr>
            <ns3:cad>0</ns3:cad>
          </ns3:TrackPointExtension>
        </extensions>
      </trkpt>
      <trkpt lat="45.2994379587471485137939453125" lon="-70.81585063599050045013427734375">
        <ele>990</ele>
        <time>2026-08-21T13:23:34.000Z</time>
        <extensions>
          <ns3:TrackPointExtension>
            <ns3:hr>152</ns3:hr>
            <ns3:cad>0</ns3:cad>
          </ns3:TrackPointExtension>
        </extensions>
      </trkpt>
      <trkpt lat="45.2994310855865478515625" lon="-70.815860442817211151123046875">
        <ele>990</ele>
        <time>2026-08-21T13:23:35.000Z</time>
        <extensions>
          <ns3:TrackPointExtension>
            <ns3:hr>152</ns3:hr>
            <ns3:cad>0</ns3:cad>
          </ns3:TrackPointExtension>
        </extensions>
      </trkpt>
      <trkpt lat="45.29942446388304233551025390625" lon="-70.81587863154709339141845703125">
        <ele>990.20001220703125</ele>
        <time>2026-08-21T13:23:36.000Z</time>
        <extensions>
          <ns3:TrackPointExtension>
            <ns3:hr>153</ns3:hr>
            <ns3:cad>50</ns3:cad>
          </ns3:TrackPointExtension>
        </extensions>
      </trkpt>
      <trkpt lat="45.29941960237920284271240234375" lon="-70.815897993743419647216796875">
        <ele>990.20001220703125</ele>
        <time>2026-08-21T13:23:37.000Z</time>
        <extensions>
          <ns3:TrackPointExtension>
            <ns3:hr>153</ns3:hr>
            <ns3:cad>49</ns3:cad>
          </ns3:TrackPointExtension>
        </extensions>
      </trkpt>
      <trkpt lat="45.29941105283796787261962890625" lon="-70.81591215915977954864501953125">
        <ele>990.4000244140625</ele>
        <time>2026-08-21T13:23:38.000Z</time>
        <extensions>
          <ns3:TrackPointExtension>
            <ns3:hr>153</ns3:hr>
            <ns3:cad>49</ns3:cad>
          </ns3:TrackPointExtension>
        </extensions>
      </trkpt>
      <trkpt lat="45.2994014136493206024169921875" lon="-70.815928839147090911865234375">
        <ele>990.4000244140625</ele>
        <time>2026-08-21T13:23:39.000Z</time>
        <extensions>
          <ns3:TrackPointExtension>
            <ns3:hr>154</ns3:hr>
            <ns3:cad>49</ns3:cad>
          </ns3:TrackPointExtension>
        </extensions>
      </trkpt>
      <trkpt lat="45.2993980608880519866943359375" lon="-70.81593680195510387420654296875">
        <ele>990.5999755859375</ele>
        <time>2026-08-21T13:23:40.000Z</time>
        <extensions>
          <ns3:TrackPointExtension>
            <ns3:hr>153</ns3:hr>
            <ns3:cad>49</ns3:cad>
          </ns3:TrackPointExtension>
        </extensions>
      </trkpt>
      <trkpt lat="45.29939286410808563232421875" lon="-70.8159451000392436981201171875">
        <ele>990.5999755859375</ele>
        <time>2026-08-21T13:23:41.000Z</time>
        <extensions>
          <ns3:TrackPointExtension>
            <ns3:hr>153</ns3:hr>
            <ns3:cad>49</ns3:cad>
          </ns3:TrackPointExtension>
        </extensions>
      </trkpt>
      <trkpt lat="45.29939278028905391693115234375" lon="-70.81595105119049549102783203125">
        <ele>990.79998779296875</ele>
        <time>2026-08-21T13:23:42.000Z</time>
        <extensions>
          <ns3:TrackPointExtension>
            <ns3:hr>153</ns3:hr>
            <ns3:cad>0</ns3:cad>
          </ns3:TrackPointExtension>
        </extensions>
      </trkpt>
      <trkpt lat="45.29938339255750179290771484375" lon="-70.8159558288753032684326171875">
        <ele>991</ele>
        <time>2026-08-21T13:23:43.000Z</time>
        <extensions>
          <ns3:TrackPointExtension>
            <ns3:hr>153</ns3:hr>
            <ns3:cad>0</ns3:cad>
          </ns3:TrackPointExtension>
        </extensions>
      </trkpt>
      <trkpt lat="45.29937551356852054595947265625" lon="-70.81595876254141330718994140625">
        <ele>991.4000244140625</ele>
        <time>2026-08-21T13:23:44.000Z</time>
        <extensions>
          <ns3:TrackPointExtension>
            <ns3:hr>153</ns3:hr>
            <ns3:cad>0</ns3:cad>
          </ns3:TrackPointExtension>
        </extensions>
      </trkpt>
      <trkpt lat="45.29937048442661762237548828125" lon="-70.8159627020359039306640625">
        <ele>991.5999755859375</ele>
        <time>2026-08-21T13:23:45.000Z</time>
        <extensions>
          <ns3:TrackPointExtension>
            <ns3:hr>153</ns3:hr>
            <ns3:cad>0</ns3:cad>
          </ns3:TrackPointExtension>
        </extensions>
      </trkpt>
      <trkpt lat="45.29935933649539947509765625" lon="-70.81597167067229747772216796875">
        <ele>991.5999755859375</ele>
        <time>2026-08-21T13:23:46.000Z</time>
        <extensions>
          <ns3:TrackPointExtension>
            <ns3:hr>153</ns3:hr>
            <ns3:cad>0</ns3:cad>
          </ns3:TrackPointExtension>
        </extensions>
      </trkpt>
      <trkpt lat="45.2993450872600078582763671875" lon="-70.8159789629280567169189453125">
        <ele>991.79998779296875</ele>
        <time>2026-08-21T13:23:47.000Z</time>
        <extensions>
          <ns3:TrackPointExtension>
            <ns3:hr>152</ns3:hr>
            <ns3:cad>0</ns3:cad>
          </ns3:TrackPointExtension>
        </extensions>
      </trkpt>
      <trkpt lat="45.29933695681393146514892578125" lon="-70.8159803040325641632080078125">
        <ele>992</ele>
        <time>2026-08-21T13:23:48.000Z</time>
        <extensions>
          <ns3:TrackPointExtension>
            <ns3:hr>152</ns3:hr>
            <ns3:cad>0</ns3:cad>
          </ns3:TrackPointExtension>
        </extensions>
      </trkpt>
      <trkpt lat="45.29933058656752109527587890625" lon="-70.815979130566120147705078125">
        <ele>992</ele>
        <time>2026-08-21T13:23:49.000Z</time>
        <extensions>
          <ns3:TrackPointExtension>
            <ns3:hr>151</ns3:hr>
            <ns3:cad>45</ns3:cad>
          </ns3:TrackPointExtension>
        </extensions>
      </trkpt>
      <trkpt lat="45.29931868426501750946044921875" lon="-70.81598022021353244781494140625">
        <ele>992.20001220703125</ele>
        <time>2026-08-21T13:23:50.000Z</time>
        <extensions>
          <ns3:TrackPointExtension>
            <ns3:hr>151</ns3:hr>
            <ns3:cad>46</ns3:cad>
          </ns3:TrackPointExtension>
        </extensions>
      </trkpt>
      <trkpt lat="45.2993102185428142547607421875" lon="-70.81598508171737194061279296875">
        <ele>992.20001220703125</ele>
        <time>2026-08-21T13:23:51.000Z</time>
        <extensions>
          <ns3:TrackPointExtension>
            <ns3:hr>150</ns3:hr>
            <ns3:cad>46</ns3:cad>
          </ns3:TrackPointExtension>
        </extensions>
      </trkpt>
      <trkpt lat="45.29930041171610355377197265625" lon="-70.81599078141152858734130859375">
        <ele>992.20001220703125</ele>
        <time>2026-08-21T13:23:52.000Z</time>
        <extensions>
          <ns3:TrackPointExtension>
            <ns3:hr>150</ns3:hr>
            <ns3:cad>50</ns3:cad>
          </ns3:TrackPointExtension>
        </extensions>
      </trkpt>
      <trkpt lat="45.2992916107177734375" lon="-70.8159960620105266571044921875">
        <ele>992.4000244140625</ele>
        <time>2026-08-21T13:23:53.000Z</time>
        <extensions>
          <ns3:TrackPointExtension>
            <ns3:hr>150</ns3:hr>
            <ns3:cad>50</ns3:cad>
          </ns3:TrackPointExtension>
        </extensions>
      </trkpt>
      <trkpt lat="45.29928565956652164459228515625" lon="-70.81600218079984188079833984375">
        <ele>992.4000244140625</ele>
        <time>2026-08-21T13:23:54.000Z</time>
        <extensions>
          <ns3:TrackPointExtension>
            <ns3:hr>151</ns3:hr>
            <ns3:cad>50</ns3:cad>
          </ns3:TrackPointExtension>
        </extensions>
      </trkpt>
      <trkpt lat="45.29927627183496952056884765625" lon="-70.81600620411336421966552734375">
        <ele>992.4000244140625</ele>
        <time>2026-08-21T13:23:55.000Z</time>
        <extensions>
          <ns3:TrackPointExtension>
            <ns3:hr>151</ns3:hr>
            <ns3:cad>50</ns3:cad>
          </ns3:TrackPointExtension>
        </extensions>
      </trkpt>
      <trkpt lat="45.2992662973701953887939453125" lon="-70.81600871868431568145751953125">
        <ele>992.4000244140625</ele>
        <time>2026-08-21T13:23:56.000Z</time>
        <extensions>
          <ns3:TrackPointExtension>
            <ns3:hr>151</ns3:hr>
            <ns3:cad>50</ns3:cad>
          </ns3:TrackPointExtension>
        </extensions>
      </trkpt>
      <trkpt lat="45.299258418381214141845703125" lon="-70.8160195313394069671630859375">
        <ele>992.4000244140625</ele>
        <time>2026-08-21T13:23:57.000Z</time>
        <extensions>
          <ns3:TrackPointExtension>
            <ns3:hr>150</ns3:hr>
            <ns3:cad>51</ns3:cad>
          </ns3:TrackPointExtension>
        </extensions>
      </trkpt>
      <trkpt lat="45.29924928210675716400146484375" lon="-70.8160295896232128143310546875">
        <ele>992.5999755859375</ele>
        <time>2026-08-21T13:23:58.000Z</time>
        <extensions>
          <ns3:TrackPointExtension>
            <ns3:hr>150</ns3:hr>
            <ns3:cad>51</ns3:cad>
          </ns3:TrackPointExtension>
        </extensions>
      </trkpt>
      <trkpt lat="45.29924039728939533233642578125" lon="-70.81603637896478176116943359375">
        <ele>992.5999755859375</ele>
        <time>2026-08-21T13:23:59.000Z</time>
        <extensions>
          <ns3:TrackPointExtension>
            <ns3:hr>150</ns3:hr>
            <ns3:cad>49</ns3:cad>
          </ns3:TrackPointExtension>
        </extensions>
      </trkpt>
      <trkpt lat="45.29922656714916229248046875" lon="-70.81603654660284519195556640625">
        <ele>992.79998779296875</ele>
        <time>2026-08-21T13:24:00.000Z</time>
        <extensions>
          <ns3:TrackPointExtension>
            <ns3:hr>150</ns3:hr>
            <ns3:cad>49</ns3:cad>
          </ns3:TrackPointExtension>
        </extensions>
      </trkpt>
      <trkpt lat="45.29921726323664188385009765625" lon="-70.8160436712205410003662109375">
        <ele>993</ele>
        <time>2026-08-21T13:24:01.000Z</time>
        <extensions>
          <ns3:TrackPointExtension>
            <ns3:hr>148</ns3:hr>
            <ns3:cad>51</ns3:cad>
          </ns3:TrackPointExtension>
        </extensions>
      </trkpt>
      <trkpt lat="45.2992103062570095062255859375" lon="-70.81604777835309505462646484375">
        <ele>993</ele>
        <time>2026-08-21T13:24:02.000Z</time>
        <extensions>
          <ns3:TrackPointExtension>
            <ns3:hr>147</ns3:hr>
            <ns3:cad>51</ns3:cad>
          </ns3:TrackPointExtension>
        </extensions>
      </trkpt>
      <trkpt lat="45.29920234344899654388427734375" lon="-70.81605230458080768585205078125">
        <ele>993.20001220703125</ele>
        <time>2026-08-21T13:24:03.000Z</time>
        <extensions>
          <ns3:TrackPointExtension>
            <ns3:hr>147</ns3:hr>
            <ns3:cad>51</ns3:cad>
          </ns3:TrackPointExtension>
        </extensions>
      </trkpt>
      <trkpt lat="45.29919731430709362030029296875" lon="-70.81605599261820316314697265625">
        <ele>993.20001220703125</ele>
        <time>2026-08-21T13:24:04.000Z</time>
        <extensions>
          <ns3:TrackPointExtension>
            <ns3:hr>147</ns3:hr>
            <ns3:cad>0</ns3:cad>
          </ns3:TrackPointExtension>
        </extensions>
      </trkpt>
      <trkpt lat="45.2991935424506664276123046875" lon="-70.8160565793514251708984375">
        <ele>993.20001220703125</ele>
        <time>2026-08-21T13:24:05.000Z</time>
        <extensions>
          <ns3:TrackPointExtension>
            <ns3:hr>146</ns3:hr>
            <ns3:cad>0</ns3:cad>
          </ns3:TrackPointExtension>
        </extensions>
      </trkpt>
      <trkpt lat="45.299185998737812042236328125" lon="-70.81605850718915462493896484375">
        <ele>993.20001220703125</ele>
        <time>2026-08-21T13:24:06.000Z</time>
        <extensions>
          <ns3:TrackPointExtension>
            <ns3:hr>146</ns3:hr>
            <ns3:cad>48</ns3:cad>
          </ns3:TrackPointExtension>
        </extensions>
      </trkpt>
      <trkpt lat="45.2991851605474948883056640625" lon="-70.81606370396912097930908203125">
        <ele>993.20001220703125</ele>
        <time>2026-08-21T13:24:07.000Z</time>
        <extensions>
          <ns3:TrackPointExtension>
            <ns3:hr>146</ns3:hr>
            <ns3:cad>48</ns3:cad>
          </ns3:TrackPointExtension>
        </extensions>
      </trkpt>
      <trkpt lat="45.29918289743363857269287109375" lon="-70.816066302359104156494140625">
        <ele>993.20001220703125</ele>
        <time>2026-08-21T13:24:08.000Z</time>
        <extensions>
          <ns3:TrackPointExtension>
            <ns3:hr>147</ns3:hr>
            <ns3:cad>0</ns3:cad>
          </ns3:TrackPointExtension>
        </extensions>
      </trkpt>
      <trkpt lat="45.299181304872035980224609375" lon="-70.81607066094875335693359375">
        <ele>993.20001220703125</ele>
        <time>2026-08-21T13:24:09.000Z</time>
        <extensions>
          <ns3:TrackPointExtension>
            <ns3:hr>146</ns3:hr>
            <ns3:cad>0</ns3:cad>
          </ns3:TrackPointExtension>
        </extensions>
      </trkpt>
      <trkpt lat="45.29917904175817966461181640625" lon="-70.8160684816539287567138671875">
        <ele>993.20001220703125</ele>
        <time>2026-08-21T13:24:10.000Z</time>
        <extensions>
          <ns3:TrackPointExtension>
            <ns3:hr>145</ns3:hr>
            <ns3:cad>0</ns3:cad>
          </ns3:TrackPointExtension>
        </extensions>
      </trkpt>
      <trkpt lat="45.2991771139204502105712890625" lon="-70.81607258878648281097412109375">
        <ele>993.20001220703125</ele>
        <time>2026-08-21T13:24:11.000Z</time>
        <extensions>
          <ns3:TrackPointExtension>
            <ns3:hr>145</ns3:hr>
            <ns3:cad>0</ns3:cad>
          </ns3:TrackPointExtension>
        </extensions>
      </trkpt>
      <trkpt lat="45.2991722524166107177734375" lon="-70.8160771988332271575927734375">
        <ele>993</ele>
        <time>2026-08-21T13:24:12.000Z</time>
        <extensions>
          <ns3:TrackPointExtension>
            <ns3:hr>144</ns3:hr>
            <ns3:cad>0</ns3:cad>
          </ns3:TrackPointExtension>
        </extensions>
      </trkpt>
      <trkpt lat="45.2991663850843906402587890625" lon="-70.81608147360384464263916015625">
        <ele>993</ele>
        <time>2026-08-21T13:24:13.000Z</time>
        <extensions>
          <ns3:TrackPointExtension>
            <ns3:hr>144</ns3:hr>
            <ns3:cad>0</ns3:cad>
          </ns3:TrackPointExtension>
        </extensions>
      </trkpt>
      <trkpt lat="45.299161858856678009033203125" lon="-70.81608549691736698150634765625">
        <ele>992.79998779296875</ele>
        <time>2026-08-21T13:24:14.000Z</time>
        <extensions>
          <ns3:TrackPointExtension>
            <ns3:hr>144</ns3:hr>
            <ns3:cad>55</ns3:cad>
          </ns3:TrackPointExtension>
        </extensions>
      </trkpt>
      <trkpt lat="45.2991534769535064697265625" lon="-70.81609203480184078216552734375">
        <ele>992.79998779296875</ele>
        <time>2026-08-21T13:24:15.000Z</time>
        <extensions>
          <ns3:TrackPointExtension>
            <ns3:hr>143</ns3:hr>
            <ns3:cad>55</ns3:cad>
          </ns3:TrackPointExtension>
        </extensions>
      </trkpt>
      <trkpt lat="45.29914584942162036895751953125" lon="-70.81609387882053852081298828125">
        <ele>992.79998779296875</ele>
        <time>2026-08-21T13:24:16.000Z</time>
        <extensions>
          <ns3:TrackPointExtension>
            <ns3:hr>143</ns3:hr>
            <ns3:cad>52</ns3:cad>
          </ns3:TrackPointExtension>
        </extensions>
      </trkpt>
      <trkpt lat="45.29913931153714656829833984375" lon="-70.81609052605926990509033203125">
        <ele>992.79998779296875</ele>
        <time>2026-08-21T13:24:17.000Z</time>
        <extensions>
          <ns3:TrackPointExtension>
            <ns3:hr>143</ns3:hr>
            <ns3:cad>52</ns3:cad>
          </ns3:TrackPointExtension>
        </extensions>
      </trkpt>
      <trkpt lat="45.2991311810910701751708984375" lon="-70.81609069369733333587646484375">
        <ele>992.79998779296875</ele>
        <time>2026-08-21T13:24:18.000Z</time>
        <extensions>
          <ns3:TrackPointExtension>
            <ns3:hr>143</ns3:hr>
            <ns3:cad>52</ns3:cad>
          </ns3:TrackPointExtension>
        </extensions>
      </trkpt>
      <trkpt lat="45.29911869205534458160400390625" lon="-70.816090106964111328125">
        <ele>992.79998779296875</ele>
        <time>2026-08-21T13:24:19.000Z</time>
        <extensions>
          <ns3:TrackPointExtension>
            <ns3:hr>142</ns3:hr>
            <ns3:cad>52</ns3:cad>
          </ns3:TrackPointExtension>
        </extensions>
      </trkpt>
      <trkpt lat="45.29911215417087078094482421875" lon="-70.81608583219349384307861328125">
        <ele>993</ele>
        <time>2026-08-21T13:24:20.000Z</time>
        <extensions>
          <ns3:TrackPointExtension>
            <ns3:hr>142</ns3:hr>
            <ns3:cad>52</ns3:cad>
          </ns3:TrackPointExtension>
        </extensions>
      </trkpt>
      <trkpt lat="45.29910410754382610321044921875" lon="-70.81608281470835208892822265625">
        <ele>993.20001220703125</ele>
        <time>2026-08-21T13:24:21.000Z</time>
        <extensions>
          <ns3:TrackPointExtension>
            <ns3:hr>141</ns3:hr>
            <ns3:cad>52</ns3:cad>
          </ns3:TrackPointExtension>
        </extensions>
      </trkpt>
      <trkpt lat="45.29908969067037105560302734375" lon="-70.8160805515944957733154296875">
        <ele>993.20001220703125</ele>
        <time>2026-08-21T13:24:22.000Z</time>
        <extensions>
          <ns3:TrackPointExtension>
            <ns3:hr>141</ns3:hr>
            <ns3:cad>52</ns3:cad>
          </ns3:TrackPointExtension>
        </extensions>
      </trkpt>
      <trkpt lat="45.2990802191197872161865234375" lon="-70.81608004868030548095703125">
        <ele>993.4000244140625</ele>
        <time>2026-08-21T13:24:23.000Z</time>
        <extensions>
          <ns3:TrackPointExtension>
            <ns3:hr>141</ns3:hr>
            <ns3:cad>52</ns3:cad>
          </ns3:TrackPointExtension>
        </extensions>
      </trkpt>
      <trkpt lat="45.29906907118856906890869140625" lon="-70.8160808868706226348876953125">
        <ele>993.5999755859375</ele>
        <time>2026-08-21T13:24:24.000Z</time>
        <extensions>
          <ns3:TrackPointExtension>
            <ns3:hr>141</ns3:hr>
            <ns3:cad>52</ns3:cad>
          </ns3:TrackPointExtension>
        </extensions>
      </trkpt>
      <trkpt lat="45.29905649833381175994873046875" lon="-70.8160879276692867279052734375">
        <ele>993.79998779296875</ele>
        <time>2026-08-21T13:24:25.000Z</time>
        <extensions>
          <ns3:TrackPointExtension>
            <ns3:hr>141</ns3:hr>
            <ns3:cad>52</ns3:cad>
          </ns3:TrackPointExtension>
        </extensions>
      </trkpt>
      <trkpt lat="45.2990440092980861663818359375" lon="-70.816089771687984466552734375">
        <ele>993.79998779296875</ele>
        <time>2026-08-21T13:24:26.000Z</time>
        <extensions>
          <ns3:TrackPointExtension>
            <ns3:hr>141</ns3:hr>
            <ns3:cad>52</ns3:cad>
          </ns3:TrackPointExtension>
        </extensions>
      </trkpt>
      <trkpt lat="45.299033112823963165283203125" lon="-70.81608884967863559722900390625">
        <ele>994</ele>
        <time>2026-08-21T13:24:27.000Z</time>
        <extensions>
          <ns3:TrackPointExtension>
            <ns3:hr>140</ns3:hr>
            <ns3:cad>52</ns3:cad>
          </ns3:TrackPointExtension>
        </extensions>
      </trkpt>
      <trkpt lat="45.29902313835918903350830078125" lon="-70.8160879276692867279052734375">
        <ele>994.20001220703125</ele>
        <time>2026-08-21T13:24:28.000Z</time>
        <extensions>
          <ns3:TrackPointExtension>
            <ns3:hr>139</ns3:hr>
            <ns3:cad>50</ns3:cad>
          </ns3:TrackPointExtension>
        </extensions>
      </trkpt>
      <trkpt lat="45.29901006259024143218994140625" lon="-70.81608164124190807342529296875">
        <ele>994.4000244140625</ele>
        <time>2026-08-21T13:24:29.000Z</time>
        <extensions>
          <ns3:TrackPointExtension>
            <ns3:hr>139</ns3:hr>
            <ns3:cad>50</ns3:cad>
          </ns3:TrackPointExtension>
        </extensions>
      </trkpt>
      <trkpt lat="45.2989984117448329925537109375" lon="-70.81607761792838573455810546875">
        <ele>994.5999755859375</ele>
        <time>2026-08-21T13:24:30.000Z</time>
        <extensions>
          <ns3:TrackPointExtension>
            <ns3:hr>139</ns3:hr>
            <ns3:cad>50</ns3:cad>
          </ns3:TrackPointExtension>
        </extensions>
      </trkpt>
      <trkpt lat="45.2989893592894077301025390625" lon="-70.81607401371002197265625">
        <ele>995</ele>
        <time>2026-08-21T13:24:31.000Z</time>
        <extensions>
          <ns3:TrackPointExtension>
            <ns3:hr>139</ns3:hr>
            <ns3:cad>50</ns3:cad>
          </ns3:TrackPointExtension>
        </extensions>
      </trkpt>
      <trkpt lat="45.29897334985435009002685546875" lon="-70.81607191823422908782958984375">
        <ele>995</ele>
        <time>2026-08-21T13:24:32.000Z</time>
        <extensions>
          <ns3:TrackPointExtension>
            <ns3:hr>139</ns3:hr>
            <ns3:cad>48</ns3:cad>
          </ns3:TrackPointExtension>
        </extensions>
      </trkpt>
      <trkpt lat="45.2989598549902439117431640625" lon="-70.81607602536678314208984375">
        <ele>995.20001220703125</ele>
        <time>2026-08-21T13:24:33.000Z</time>
        <extensions>
          <ns3:TrackPointExtension>
            <ns3:hr>139</ns3:hr>
            <ns3:cad>48</ns3:cad>
          </ns3:TrackPointExtension>
        </extensions>
      </trkpt>
      <trkpt lat="45.2989504672586917877197265625" lon="-70.81607828848063945770263671875">
        <ele>995.4000244140625</ele>
        <time>2026-08-21T13:24:34.000Z</time>
        <extensions>
          <ns3:TrackPointExtension>
            <ns3:hr>138</ns3:hr>
            <ns3:cad>48</ns3:cad>
          </ns3:TrackPointExtension>
        </extensions>
      </trkpt>
      <trkpt lat="45.2989410795271396636962890625" lon="-70.8160761930048465728759765625">
        <ele>995.5999755859375</ele>
        <time>2026-08-21T13:24:35.000Z</time>
        <extensions>
          <ns3:TrackPointExtension>
            <ns3:hr>138</ns3:hr>
            <ns3:cad>50</ns3:cad>
          </ns3:TrackPointExtension>
        </extensions>
      </trkpt>
      <trkpt lat="45.298928506672382354736328125" lon="-70.8160785399377346038818359375">
        <ele>995.79998779296875</ele>
        <time>2026-08-21T13:24:36.000Z</time>
        <extensions>
          <ns3:TrackPointExtension>
            <ns3:hr>138</ns3:hr>
            <ns3:cad>50</ns3:cad>
          </ns3:TrackPointExtension>
        </extensions>
      </trkpt>
      <trkpt lat="45.29891719110310077667236328125" lon="-70.81608449108898639678955078125">
        <ele>996</ele>
        <time>2026-08-21T13:24:37.000Z</time>
        <extensions>
          <ns3:TrackPointExtension>
            <ns3:hr>138</ns3:hr>
            <ns3:cad>52</ns3:cad>
          </ns3:TrackPointExtension>
        </extensions>
      </trkpt>
      <trkpt lat="45.29891165904700756072998046875" lon="-70.816091783344745635986328125">
        <ele>996.20001220703125</ele>
        <time>2026-08-21T13:24:38.000Z</time>
        <extensions>
          <ns3:TrackPointExtension>
            <ns3:hr>137</ns3:hr>
            <ns3:cad>52</ns3:cad>
          </ns3:TrackPointExtension>
        </extensions>
      </trkpt>
      <trkpt lat="45.298899002373218536376953125" lon="-70.816084407269954681396484375">
        <ele>996.4000244140625</ele>
        <time>2026-08-21T13:24:39.000Z</time>
        <extensions>
          <ns3:TrackPointExtension>
            <ns3:hr>137</ns3:hr>
            <ns3:cad>52</ns3:cad>
          </ns3:TrackPointExtension>
        </extensions>
      </trkpt>
      <trkpt lat="45.29888802208006381988525390625" lon="-70.81609404645860195159912109375">
        <ele>996.79998779296875</ele>
        <time>2026-08-21T13:24:40.000Z</time>
        <extensions>
          <ns3:TrackPointExtension>
            <ns3:hr>137</ns3:hr>
            <ns3:cad>52</ns3:cad>
          </ns3:TrackPointExtension>
        </extensions>
      </trkpt>
      <trkpt lat="45.2988807298243045806884765625" lon="-70.816091783344745635986328125">
        <ele>997</ele>
        <time>2026-08-21T13:24:41.000Z</time>
        <extensions>
          <ns3:TrackPointExtension>
            <ns3:hr>136</ns3:hr>
            <ns3:cad>52</ns3:cad>
          </ns3:TrackPointExtension>
        </extensions>
      </trkpt>
      <trkpt lat="45.29886639676988124847412109375" lon="-70.81609136424958705902099609375">
        <ele>997</ele>
        <time>2026-08-21T13:24:42.000Z</time>
        <extensions>
          <ns3:TrackPointExtension>
            <ns3:hr>136</ns3:hr>
            <ns3:cad>49</ns3:cad>
          </ns3:TrackPointExtension>
        </extensions>
      </trkpt>
      <trkpt lat="45.29886178672313690185546875" lon="-70.8160835690796375274658203125">
        <ele>997</ele>
        <time>2026-08-21T13:24:43.000Z</time>
        <extensions>
          <ns3:TrackPointExtension>
            <ns3:hr>136</ns3:hr>
            <ns3:cad>49</ns3:cad>
          </ns3:TrackPointExtension>
        </extensions>
      </trkpt>
      <trkpt lat="45.29885030351579189300537109375" lon="-70.8160825632512569427490234375">
        <ele>996.79998779296875</ele>
        <time>2026-08-21T13:24:44.000Z</time>
        <extensions>
          <ns3:TrackPointExtension>
            <ns3:hr>137</ns3:hr>
            <ns3:cad>49</ns3:cad>
          </ns3:TrackPointExtension>
        </extensions>
      </trkpt>
      <trkpt lat="45.2988368086516857147216796875" lon="-70.8160872571170330047607421875">
        <ele>996.4000244140625</ele>
        <time>2026-08-21T13:24:45.000Z</time>
        <extensions>
          <ns3:TrackPointExtension>
            <ns3:hr>137</ns3:hr>
            <ns3:cad>50</ns3:cad>
          </ns3:TrackPointExtension>
        </extensions>
      </trkpt>
      <trkpt lat="45.2988267503678798675537109375" lon="-70.81609220243990421295166015625">
        <ele>996.20001220703125</ele>
        <time>2026-08-21T13:24:46.000Z</time>
        <extensions>
          <ns3:TrackPointExtension>
            <ns3:hr>138</ns3:hr>
            <ns3:cad>50</ns3:cad>
          </ns3:TrackPointExtension>
        </extensions>
      </trkpt>
      <trkpt lat="45.2988052926957607269287109375" lon="-70.8161016739904880523681640625">
        <ele>995.79998779296875</ele>
        <time>2026-08-21T13:24:47.000Z</time>
        <extensions>
          <ns3:TrackPointExtension>
            <ns3:hr>138</ns3:hr>
            <ns3:cad>50</ns3:cad>
          </ns3:TrackPointExtension>
        </extensions>
      </trkpt>
      <trkpt lat="45.2987848408520221710205078125" lon="-70.81610611639916896820068359375">
        <ele>995.4000244140625</ele>
        <time>2026-08-21T13:24:48.000Z</time>
        <extensions>
          <ns3:TrackPointExtension>
            <ns3:hr>138</ns3:hr>
            <ns3:cad>50</ns3:cad>
          </ns3:TrackPointExtension>
        </extensions>
      </trkpt>
      <trkpt lat="45.29877201654016971588134765625" lon="-70.81611265428364276885986328125">
        <ele>995</ele>
        <time>2026-08-21T13:24:49.000Z</time>
        <extensions>
          <ns3:TrackPointExtension>
            <ns3:hr>138</ns3:hr>
            <ns3:cad>50</ns3:cad>
          </ns3:TrackPointExtension>
        </extensions>
      </trkpt>
      <trkpt lat="45.29876053333282470703125" lon="-70.81611366011202335357666015625">
        <ele>994.5999755859375</ele>
        <time>2026-08-21T13:24:50.000Z</time>
        <extensions>
          <ns3:TrackPointExtension>
            <ns3:hr>138</ns3:hr>
            <ns3:cad>77</ns3:cad>
          </ns3:TrackPointExtension>
        </extensions>
      </trkpt>
      <trkpt lat="45.2987503074109554290771484375" lon="-70.81610309891402721405029296875">
        <ele>994.4000244140625</ele>
        <time>2026-08-21T13:24:51.000Z</time>
        <extensions>
          <ns3:TrackPointExtension>
            <ns3:hr>139</ns3:hr>
            <ns3:cad>77</ns3:cad>
          </ns3:TrackPointExtension>
        </extensions>
      </trkpt>
      <trkpt lat="45.298731364309787750244140625" lon="-70.81610418856143951416015625">
        <ele>994.4000244140625</ele>
        <time>2026-08-21T13:24:52.000Z</time>
        <extensions>
          <ns3:TrackPointExtension>
            <ns3:hr>139</ns3:hr>
            <ns3:cad>74</ns3:cad>
          </ns3:TrackPointExtension>
        </extensions>
      </trkpt>
      <trkpt lat="45.29871652834117412567138671875" lon="-70.81611215136945247650146484375">
        <ele>994.4000244140625</ele>
        <time>2026-08-21T13:24:53.000Z</time>
        <extensions>
          <ns3:TrackPointExtension>
            <ns3:hr>139</ns3:hr>
            <ns3:cad>74</ns3:cad>
          </ns3:TrackPointExtension>
        </extensions>
      </trkpt>
      <trkpt lat="45.2986976690590381622314453125" lon="-70.81611567176878452301025390625">
        <ele>994.4000244140625</ele>
        <time>2026-08-21T13:24:54.000Z</time>
        <extensions>
          <ns3:TrackPointExtension>
            <ns3:hr>139</ns3:hr>
            <ns3:cad>74</ns3:cad>
          </ns3:TrackPointExtension>
        </extensions>
      </trkpt>
      <trkpt lat="45.29867797158658504486083984375" lon="-70.816121958196163177490234375">
        <ele>994.4000244140625</ele>
        <time>2026-08-21T13:24:55.000Z</time>
        <extensions>
          <ns3:TrackPointExtension>
            <ns3:hr>139</ns3:hr>
            <ns3:cad>74</ns3:cad>
          </ns3:TrackPointExtension>
        </extensions>
      </trkpt>
      <trkpt lat="45.2986614592373371124267578125" lon="-70.8161211200058460235595703125">
        <ele>994.5999755859375</ele>
        <time>2026-08-21T13:24:56.000Z</time>
        <extensions>
          <ns3:TrackPointExtension>
            <ns3:hr>140</ns3:hr>
            <ns3:cad>74</ns3:cad>
          </ns3:TrackPointExtension>
        </extensions>
      </trkpt>
      <trkpt lat="45.29864645563066005706787109375" lon="-70.816119611263275146484375">
        <ele>994.79998779296875</ele>
        <time>2026-08-21T13:24:57.000Z</time>
        <extensions>
          <ns3:TrackPointExtension>
            <ns3:hr>139</ns3:hr>
            <ns3:cad>74</ns3:cad>
          </ns3:TrackPointExtension>
        </extensions>
      </trkpt>
      <trkpt lat="45.29862835071980953216552734375" lon="-70.816117934882640838623046875">
        <ele>995.20001220703125</ele>
        <time>2026-08-21T13:24:58.000Z</time>
        <extensions>
          <ns3:TrackPointExtension>
            <ns3:hr>139</ns3:hr>
            <ns3:cad>74</ns3:cad>
          </ns3:TrackPointExtension>
        </extensions>
      </trkpt>
      <trkpt lat="45.29861502349376678466796875" lon="-70.81611399538815021514892578125">
        <ele>995.4000244140625</ele>
        <time>2026-08-21T13:24:59.000Z</time>
        <extensions>
          <ns3:TrackPointExtension>
            <ns3:hr>139</ns3:hr>
            <ns3:cad>71</ns3:cad>
          </ns3:TrackPointExtension>
        </extensions>
      </trkpt>
      <trkpt lat="45.29859985224902629852294921875" lon="-70.81611089408397674560546875">
        <ele>995.5999755859375</ele>
        <time>2026-08-21T13:25:00.000Z</time>
        <extensions>
          <ns3:TrackPointExtension>
            <ns3:hr>138</ns3:hr>
            <ns3:cad>71</ns3:cad>
          </ns3:TrackPointExtension>
        </extensions>
      </trkpt>
      <trkpt lat="45.29858828522264957427978515625" lon="-70.81611315719783306121826171875">
        <ele>996</ele>
        <time>2026-08-21T13:25:01.000Z</time>
        <extensions>
          <ns3:TrackPointExtension>
            <ns3:hr>138</ns3:hr>
            <ns3:cad>72</ns3:cad>
          </ns3:TrackPointExtension>
        </extensions>
      </trkpt>
      <trkpt lat="45.29857638292014598846435546875" lon="-70.81611198373138904571533203125">
        <ele>996</ele>
        <time>2026-08-21T13:25:02.000Z</time>
        <extensions>
          <ns3:TrackPointExtension>
            <ns3:hr>138</ns3:hr>
            <ns3:cad>72</ns3:cad>
          </ns3:TrackPointExtension>
        </extensions>
      </trkpt>
      <trkpt lat="45.2985655702650547027587890625" lon="-70.81611013971269130706787109375">
        <ele>996</ele>
        <time>2026-08-21T13:25:03.000Z</time>
        <extensions>
          <ns3:TrackPointExtension>
            <ns3:hr>138</ns3:hr>
            <ns3:cad>72</ns3:cad>
          </ns3:TrackPointExtension>
        </extensions>
      </trkpt>
      <trkpt lat="45.2985461242496967315673828125" lon="-70.81611382775008678436279296875">
        <ele>996</ele>
        <time>2026-08-21T13:25:04.000Z</time>
        <extensions>
          <ns3:TrackPointExtension>
            <ns3:hr>139</ns3:hr>
            <ns3:cad>64</ns3:cad>
          </ns3:TrackPointExtension>
        </extensions>
      </trkpt>
      <trkpt lat="45.29853212647140026092529296875" lon="-70.81612170673906803131103515625">
        <ele>996</ele>
        <time>2026-08-21T13:25:05.000Z</time>
        <extensions>
          <ns3:TrackPointExtension>
            <ns3:hr>141</ns3:hr>
            <ns3:cad>64</ns3:cad>
          </ns3:TrackPointExtension>
        </extensions>
      </trkpt>
      <trkpt lat="45.2985199727118015289306640625" lon="-70.816125981509685516357421875">
        <ele>996</ele>
        <time>2026-08-21T13:25:06.000Z</time>
        <extensions>
          <ns3:TrackPointExtension>
            <ns3:hr>142</ns3:hr>
            <ns3:cad>64</ns3:cad>
          </ns3:TrackPointExtension>
        </extensions>
      </trkpt>
      <trkpt lat="45.29850765131413936614990234375" lon="-70.81613008864223957061767578125">
        <ele>996.20001220703125</ele>
        <time>2026-08-21T13:25:07.000Z</time>
        <extensions>
          <ns3:TrackPointExtension>
            <ns3:hr>143</ns3:hr>
            <ns3:cad>64</ns3:cad>
          </ns3:TrackPointExtension>
        </extensions>
      </trkpt>
      <trkpt lat="45.2984918095171451568603515625" lon="-70.81613142974674701690673828125">
        <ele>996.20001220703125</ele>
        <time>2026-08-21T13:25:08.000Z</time>
        <extensions>
          <ns3:TrackPointExtension>
            <ns3:hr>143</ns3:hr>
            <ns3:cad>59</ns3:cad>
          </ns3:TrackPointExtension>
        </extensions>
      </trkpt>
      <trkpt lat="45.29847714118659496307373046875" lon="-70.81611701287329196929931640625">
        <ele>996.4000244140625</ele>
        <time>2026-08-21T13:25:09.000Z</time>
        <extensions>
          <ns3:TrackPointExtension>
            <ns3:hr>143</ns3:hr>
            <ns3:cad>59</ns3:cad>
          </ns3:TrackPointExtension>
        </extensions>
      </trkpt>
      <trkpt lat="45.2984654903411865234375" lon="-70.81610879860818386077880859375">
        <ele>996.5999755859375</ele>
        <time>2026-08-21T13:25:10.000Z</time>
        <extensions>
          <ns3:TrackPointExtension>
            <ns3:hr>142</ns3:hr>
            <ns3:cad>59</ns3:cad>
          </ns3:TrackPointExtension>
        </extensions>
      </trkpt>
      <trkpt lat="45.29845383949577808380126953125" lon="-70.81610393710434436798095703125">
        <ele>996.79998779296875</ele>
        <time>2026-08-21T13:25:11.000Z</time>
        <extensions>
          <ns3:TrackPointExtension>
            <ns3:hr>142</ns3:hr>
            <ns3:cad>59</ns3:cad>
          </ns3:TrackPointExtension>
        </extensions>
      </trkpt>
      <trkpt lat="45.2984499000012874603271484375" lon="-70.81610544584691524505615234375">
        <ele>997</ele>
        <time>2026-08-21T13:25:12.000Z</time>
        <extensions>
          <ns3:TrackPointExtension>
            <ns3:hr>143</ns3:hr>
            <ns3:cad>59</ns3:cad>
          </ns3:TrackPointExtension>
        </extensions>
      </trkpt>
      <trkpt lat="45.2984411828219890594482421875" lon="-70.816117264330387115478515625">
        <ele>997.20001220703125</ele>
        <time>2026-08-21T13:25:13.000Z</time>
        <extensions>
          <ns3:TrackPointExtension>
            <ns3:hr>143</ns3:hr>
            <ns3:cad>59</ns3:cad>
          </ns3:TrackPointExtension>
        </extensions>
      </trkpt>
      <trkpt lat="45.29843397438526153564453125" lon="-70.8161177672445774078369140625">
        <ele>997.20001220703125</ele>
        <time>2026-08-21T13:25:14.000Z</time>
        <extensions>
          <ns3:TrackPointExtension>
            <ns3:hr>143</ns3:hr>
            <ns3:cad>59</ns3:cad>
          </ns3:TrackPointExtension>
        </extensions>
      </trkpt>
      <trkpt lat="45.298421569168567657470703125" lon="-70.81611902453005313873291015625">
        <ele>997.4000244140625</ele>
        <time>2026-08-21T13:25:15.000Z</time>
        <extensions>
          <ns3:TrackPointExtension>
            <ns3:hr>144</ns3:hr>
            <ns3:cad>0</ns3:cad>
          </ns3:TrackPointExtension>
        </extensions>
      </trkpt>
      <trkpt lat="45.298406817018985748291015625" lon="-70.81612489186227321624755859375">
        <ele>997.4000244140625</ele>
        <time>2026-08-21T13:25:16.000Z</time>
        <extensions>
          <ns3:TrackPointExtension>
            <ns3:hr>144</ns3:hr>
            <ns3:cad>0</ns3:cad>
          </ns3:TrackPointExtension>
        </extensions>
      </trkpt>
      <trkpt lat="45.29839550144970417022705078125" lon="-70.816130340099334716796875">
        <ele>997.4000244140625</ele>
        <time>2026-08-21T13:25:17.000Z</time>
        <extensions>
          <ns3:TrackPointExtension>
            <ns3:hr>144</ns3:hr>
            <ns3:cad>0</ns3:cad>
          </ns3:TrackPointExtension>
        </extensions>
      </trkpt>
      <trkpt lat="45.2983794920146465301513671875" lon="-70.81613495014607906341552734375">
        <ele>997.20001220703125</ele>
        <time>2026-08-21T13:25:18.000Z</time>
        <extensions>
          <ns3:TrackPointExtension>
            <ns3:hr>144</ns3:hr>
            <ns3:cad>55</ns3:cad>
          </ns3:TrackPointExtension>
        </extensions>
      </trkpt>
      <trkpt lat="45.29836826026439666748046875" lon="-70.81615691073238849639892578125">
        <ele>997</ele>
        <time>2026-08-21T13:25:19.000Z</time>
        <extensions>
          <ns3:TrackPointExtension>
            <ns3:hr>144</ns3:hr>
            <ns3:cad>55</ns3:cad>
          </ns3:TrackPointExtension>
        </extensions>
      </trkpt>
      <trkpt lat="45.2983563579618930816650390625" lon="-70.81616965122520923614501953125">
        <ele>997</ele>
        <time>2026-08-21T13:25:20.000Z</time>
        <extensions>
          <ns3:TrackPointExtension>
            <ns3:hr>144</ns3:hr>
            <ns3:cad>54</ns3:cad>
          </ns3:TrackPointExtension>
        </extensions>
      </trkpt>
      <trkpt lat="45.29834470711648464202880859375" lon="-70.81618406809866428375244140625">
        <ele>996.79998779296875</ele>
        <time>2026-08-21T13:25:21.000Z</time>
        <extensions>
          <ns3:TrackPointExtension>
            <ns3:hr>144</ns3:hr>
            <ns3:cad>54</ns3:cad>
          </ns3:TrackPointExtension>
        </extensions>
      </trkpt>
      <trkpt lat="45.29833473265171051025390625" lon="-70.81619798205792903900146484375">
        <ele>996.5999755859375</ele>
        <time>2026-08-21T13:25:22.000Z</time>
        <extensions>
          <ns3:TrackPointExtension>
            <ns3:hr>144</ns3:hr>
            <ns3:cad>54</ns3:cad>
          </ns3:TrackPointExtension>
        </extensions>
      </trkpt>
      <trkpt lat="45.2983221597969532012939453125" lon="-70.8162086270749568939208984375">
        <ele>996.4000244140625</ele>
        <time>2026-08-21T13:25:23.000Z</time>
        <extensions>
          <ns3:TrackPointExtension>
            <ns3:hr>144</ns3:hr>
            <ns3:cad>53</ns3:cad>
          </ns3:TrackPointExtension>
        </extensions>
      </trkpt>
      <trkpt lat="45.29831235297024250030517578125" lon="-70.81622011028230190277099609375">
        <ele>996.20001220703125</ele>
        <time>2026-08-21T13:25:24.000Z</time>
        <extensions>
          <ns3:TrackPointExtension>
            <ns3:hr>144</ns3:hr>
            <ns3:cad>53</ns3:cad>
          </ns3:TrackPointExtension>
        </extensions>
      </trkpt>
      <trkpt lat="45.298302210867404937744140625" lon="-70.8162260614335536956787109375">
        <ele>995.79998779296875</ele>
        <time>2026-08-21T13:25:25.000Z</time>
        <extensions>
          <ns3:TrackPointExtension>
            <ns3:hr>144</ns3:hr>
            <ns3:cad>53</ns3:cad>
          </ns3:TrackPointExtension>
        </extensions>
      </trkpt>
      <trkpt lat="45.2982906438410282135009765625" lon="-70.8162277378141880035400390625">
        <ele>995.4000244140625</ele>
        <time>2026-08-21T13:25:26.000Z</time>
        <extensions>
          <ns3:TrackPointExtension>
            <ns3:hr>144</ns3:hr>
            <ns3:cad>53</ns3:cad>
          </ns3:TrackPointExtension>
        </extensions>
      </trkpt>
      <trkpt lat="45.2982768975198268890380859375" lon="-70.81622765399515628814697265625">
        <ele>995</ele>
        <time>2026-08-21T13:25:27.000Z</time>
        <extensions>
          <ns3:TrackPointExtension>
            <ns3:hr>144</ns3:hr>
            <ns3:cad>59</ns3:cad>
          </ns3:TrackPointExtension>
        </extensions>
      </trkpt>
      <trkpt lat="45.2982616424560546875" lon="-70.81623586826026439666748046875">
        <ele>994.79998779296875</ele>
        <time>2026-08-21T13:25:28.000Z</time>
        <extensions>
          <ns3:TrackPointExtension>
            <ns3:hr>144</ns3:hr>
            <ns3:cad>59</ns3:cad>
          </ns3:TrackPointExtension>
        </extensions>
      </trkpt>
      <trkpt lat="45.29824647121131420135498046875" lon="-70.8162488602101802825927734375">
        <ele>994.4000244140625</ele>
        <time>2026-08-21T13:25:29.000Z</time>
        <extensions>
          <ns3:TrackPointExtension>
            <ns3:hr>144</ns3:hr>
            <ns3:cad>59</ns3:cad>
          </ns3:TrackPointExtension>
        </extensions>
      </trkpt>
      <trkpt lat="45.29823339544236660003662109375" lon="-70.81625799648463726043701171875">
        <ele>994</ele>
        <time>2026-08-21T13:25:30.000Z</time>
        <extensions>
          <ns3:TrackPointExtension>
            <ns3:hr>144</ns3:hr>
            <ns3:cad>61</ns3:cad>
          </ns3:TrackPointExtension>
        </extensions>
      </trkpt>
      <trkpt lat="45.2982178889214992523193359375" lon="-70.81626453436911106109619140625">
        <ele>993.79998779296875</ele>
        <time>2026-08-21T13:25:31.000Z</time>
        <extensions>
          <ns3:TrackPointExtension>
            <ns3:hr>144</ns3:hr>
            <ns3:cad>61</ns3:cad>
          </ns3:TrackPointExtension>
        </extensions>
      </trkpt>
      <trkpt lat="45.298206321895122528076171875" lon="-70.81627962179481983184814453125">
        <ele>993.5999755859375</ele>
        <time>2026-08-21T13:25:32.000Z</time>
        <extensions>
          <ns3:TrackPointExtension>
            <ns3:hr>144</ns3:hr>
            <ns3:cad>62</ns3:cad>
          </ns3:TrackPointExtension>
        </extensions>
      </trkpt>
      <trkpt lat="45.2981984429061412811279296875" lon="-70.81629018299281597137451171875">
        <ele>993.4000244140625</ele>
        <time>2026-08-21T13:25:33.000Z</time>
        <extensions>
          <ns3:TrackPointExtension>
            <ns3:hr>143</ns3:hr>
            <ns3:cad>64</ns3:cad>
          </ns3:TrackPointExtension>
        </extensions>
      </trkpt>
      <trkpt lat="45.29818117618560791015625" lon="-70.816302336752414703369140625">
        <ele>993.4000244140625</ele>
        <time>2026-08-21T13:25:34.000Z</time>
        <extensions>
          <ns3:TrackPointExtension>
            <ns3:hr>143</ns3:hr>
            <ns3:cad>64</ns3:cad>
          </ns3:TrackPointExtension>
        </extensions>
      </trkpt>
      <trkpt lat="45.29816952534019947052001953125" lon="-70.81631214357912540435791015625">
        <ele>993.4000244140625</ele>
        <time>2026-08-21T13:25:35.000Z</time>
        <extensions>
          <ns3:TrackPointExtension>
            <ns3:hr>142</ns3:hr>
            <ns3:cad>64</ns3:cad>
          </ns3:TrackPointExtension>
        </extensions>
      </trkpt>
      <trkpt lat="45.29815795831382274627685546875" lon="-70.81632438115775585174560546875">
        <ele>993.4000244140625</ele>
        <time>2026-08-21T13:25:36.000Z</time>
        <extensions>
          <ns3:TrackPointExtension>
            <ns3:hr>142</ns3:hr>
            <ns3:cad>64</ns3:cad>
          </ns3:TrackPointExtension>
        </extensions>
      </trkpt>
      <trkpt lat="45.29815561138093471527099609375" lon="-70.81634231843054294586181640625">
        <ele>993.4000244140625</ele>
        <time>2026-08-21T13:25:37.000Z</time>
        <extensions>
          <ns3:TrackPointExtension>
            <ns3:hr>141</ns3:hr>
            <ns3:cad>56</ns3:cad>
          </ns3:TrackPointExtension>
        </extensions>
      </trkpt>
      <trkpt lat="45.2981484867632389068603515625" lon="-70.81635170616209506988525390625">
        <ele>993.5999755859375</ele>
        <time>2026-08-21T13:25:38.000Z</time>
        <extensions>
          <ns3:TrackPointExtension>
            <ns3:hr>141</ns3:hr>
            <ns3:cad>56</ns3:cad>
          </ns3:TrackPointExtension>
        </extensions>
      </trkpt>
      <trkpt lat="45.2981447987258434295654296875" lon="-70.81636696122586727142333984375">
        <ele>993.5999755859375</ele>
        <time>2026-08-21T13:25:39.000Z</time>
        <extensions>
          <ns3:TrackPointExtension>
            <ns3:hr>140</ns3:hr>
            <ns3:cad>55</ns3:cad>
          </ns3:TrackPointExtension>
        </extensions>
      </trkpt>
      <trkpt lat="45.29813867993652820587158203125" lon="-70.81638338975608348846435546875">
        <ele>993.5999755859375</ele>
        <time>2026-08-21T13:25:40.000Z</time>
        <extensions>
          <ns3:TrackPointExtension>
            <ns3:hr>140</ns3:hr>
            <ns3:cad>55</ns3:cad>
          </ns3:TrackPointExtension>
        </extensions>
      </trkpt>
      <trkpt lat="45.2981340698897838592529296875" lon="-70.81639914773404598236083984375">
        <ele>993.5999755859375</ele>
        <time>2026-08-21T13:25:41.000Z</time>
        <extensions>
          <ns3:TrackPointExtension>
            <ns3:hr>140</ns3:hr>
            <ns3:cad>55</ns3:cad>
          </ns3:TrackPointExtension>
        </extensions>
      </trkpt>
      <trkpt lat="45.2981290407478809356689453125" lon="-70.81640954129397869110107421875">
        <ele>993.79998779296875</ele>
        <time>2026-08-21T13:25:42.000Z</time>
        <extensions>
          <ns3:TrackPointExtension>
            <ns3:hr>139</ns3:hr>
            <ns3:cad>55</ns3:cad>
          </ns3:TrackPointExtension>
        </extensions>
      </trkpt>
      <trkpt lat="45.298121832311153411865234375" lon="-70.81641490571200847625732421875">
        <ele>994</ele>
        <time>2026-08-21T13:25:43.000Z</time>
        <extensions>
          <ns3:TrackPointExtension>
            <ns3:hr>139</ns3:hr>
            <ns3:cad>55</ns3:cad>
          </ns3:TrackPointExtension>
        </extensions>
      </trkpt>
      <trkpt lat="45.29811940155923366546630859375" lon="-70.81642898730933666229248046875">
        <ele>994.20001220703125</ele>
        <time>2026-08-21T13:25:44.000Z</time>
        <extensions>
          <ns3:TrackPointExtension>
            <ns3:hr>139</ns3:hr>
            <ns3:cad>48</ns3:cad>
          </ns3:TrackPointExtension>
        </extensions>
      </trkpt>
      <trkpt lat="45.29811889864504337310791015625" lon="-70.81644105724990367889404296875">
        <ele>994.20001220703125</ele>
        <time>2026-08-21T13:25:45.000Z</time>
        <extensions>
          <ns3:TrackPointExtension>
            <ns3:hr>139</ns3:hr>
            <ns3:cad>48</ns3:cad>
          </ns3:TrackPointExtension>
        </extensions>
      </trkpt>
      <trkpt lat="45.2981154620647430419921875" lon="-70.81645497120916843414306640625">
        <ele>994.5999755859375</ele>
        <time>2026-08-21T13:25:46.000Z</time>
        <extensions>
          <ns3:TrackPointExtension>
            <ns3:hr>138</ns3:hr>
            <ns3:cad>48</ns3:cad>
          </ns3:TrackPointExtension>
        </extensions>
      </trkpt>
      <trkpt lat="45.298109091818332672119140625" lon="-70.81645798869431018829345703125">
        <ele>994.79998779296875</ele>
        <time>2026-08-21T13:25:47.000Z</time>
        <extensions>
          <ns3:TrackPointExtension>
            <ns3:hr>138</ns3:hr>
            <ns3:cad>48</ns3:cad>
          </ns3:TrackPointExtension>
        </extensions>
      </trkpt>
      <trkpt lat="45.29810666106641292572021484375" lon="-70.8164627663791179656982421875">
        <ele>995.20001220703125</ele>
        <time>2026-08-21T13:25:48.000Z</time>
        <extensions>
          <ns3:TrackPointExtension>
            <ns3:hr>138</ns3:hr>
            <ns3:cad>48</ns3:cad>
          </ns3:TrackPointExtension>
        </extensions>
      </trkpt>
      <trkpt lat="45.29810397885739803314208984375" lon="-70.81646922044456005096435546875">
        <ele>995.4000244140625</ele>
        <time>2026-08-21T13:25:49.000Z</time>
        <extensions>
          <ns3:TrackPointExtension>
            <ns3:hr>137</ns3:hr>
            <ns3:cad>49</ns3:cad>
          </ns3:TrackPointExtension>
        </extensions>
      </trkpt>
      <trkpt lat="45.29810498468577861785888671875" lon="-70.81646854989230632781982421875">
        <ele>995.5999755859375</ele>
        <time>2026-08-21T13:25:50.000Z</time>
        <extensions>
          <ns3:TrackPointExtension>
            <ns3:hr>137</ns3:hr>
            <ns3:cad>49</ns3:cad>
          </ns3:TrackPointExtension>
        </extensions>
      </trkpt>
      <trkpt lat="45.29810448177158832550048828125" lon="-70.81647022627294063568115234375">
        <ele>995.79998779296875</ele>
        <time>2026-08-21T13:25:51.000Z</time>
        <extensions>
          <ns3:TrackPointExtension>
            <ns3:hr>138</ns3:hr>
            <ns3:cad>0</ns3:cad>
          </ns3:TrackPointExtension>
        </extensions>
      </trkpt>
      <trkpt lat="45.2980998717248439788818359375" lon="-70.81647844053804874420166015625">
        <ele>996</ele>
        <time>2026-08-21T13:25:52.000Z</time>
        <extensions>
          <ns3:TrackPointExtension>
            <ns3:hr>138</ns3:hr>
            <ns3:cad>0</ns3:cad>
          </ns3:TrackPointExtension>
        </extensions>
      </trkpt>
      <trkpt lat="45.2980931662023067474365234375" lon="-70.8164768479764461517333984375">
        <ele>996.20001220703125</ele>
        <time>2026-08-21T13:25:53.000Z</time>
        <extensions>
          <ns3:TrackPointExtension>
            <ns3:hr>138</ns3:hr>
            <ns3:cad>0</ns3:cad>
          </ns3:TrackPointExtension>
        </extensions>
      </trkpt>
      <trkpt lat="45.29807858169078826904296875" lon="-70.8164926059544086456298828125">
        <ele>996.5999755859375</ele>
        <time>2026-08-21T13:25:54.000Z</time>
        <extensions>
          <ns3:TrackPointExtension>
            <ns3:hr>137</ns3:hr>
            <ns3:cad>53</ns3:cad>
          </ns3:TrackPointExtension>
        </extensions>
      </trkpt>
      <trkpt lat="45.29807849787175655364990234375" lon="-70.81649470143020153045654296875">
        <ele>996.79998779296875</ele>
        <time>2026-08-21T13:25:55.000Z</time>
        <extensions>
          <ns3:TrackPointExtension>
            <ns3:hr>138</ns3:hr>
            <ns3:cad>53</ns3:cad>
          </ns3:TrackPointExtension>
        </extensions>
      </trkpt>
      <trkpt lat="45.2980780787765979766845703125" lon="-70.81649486906826496124267578125">
        <ele>997.20001220703125</ele>
        <time>2026-08-21T13:25:56.000Z</time>
        <extensions>
          <ns3:TrackPointExtension>
            <ns3:hr>138</ns3:hr>
            <ns3:cad>50</ns3:cad>
          </ns3:TrackPointExtension>
        </extensions>
      </trkpt>
      <trkpt lat="45.29807464219629764556884765625" lon="-70.816497802734375">
        <ele>997.4000244140625</ele>
        <time>2026-08-21T13:25:57.000Z</time>
        <extensions>
          <ns3:TrackPointExtension>
            <ns3:hr>137</ns3:hr>
            <ns3:cad>50</ns3:cad>
          </ns3:TrackPointExtension>
        </extensions>
      </trkpt>
      <trkpt lat="45.29807179234921932220458984375" lon="-70.81650341860949993133544921875">
        <ele>997.79998779296875</ele>
        <time>2026-08-21T13:25:58.000Z</time>
        <extensions>
          <ns3:TrackPointExtension>
            <ns3:hr>138</ns3:hr>
            <ns3:cad>50</ns3:cad>
          </ns3:TrackPointExtension>
        </extensions>
      </trkpt>
      <trkpt lat="45.298069529235363006591796875" lon="-70.81651397980749607086181640625">
        <ele>998</ele>
        <time>2026-08-21T13:25:59.000Z</time>
        <extensions>
          <ns3:TrackPointExtension>
            <ns3:hr>138</ns3:hr>
            <ns3:cad>50</ns3:cad>
          </ns3:TrackPointExtension>
        </extensions>
      </trkpt>
      <trkpt lat="45.29806843958795070648193359375" lon="-70.81652797758579254150390625">
        <ele>998.20001220703125</ele>
        <time>2026-08-21T13:26:00.000Z</time>
        <extensions>
          <ns3:TrackPointExtension>
            <ns3:hr>138</ns3:hr>
            <ns3:cad>50</ns3:cad>
          </ns3:TrackPointExtension>
        </extensions>
      </trkpt>
      <trkpt lat="45.2980653382837772369384765625" lon="-70.81653493456542491912841796875">
        <ele>998.4000244140625</ele>
        <time>2026-08-21T13:26:01.000Z</time>
        <extensions>
          <ns3:TrackPointExtension>
            <ns3:hr>139</ns3:hr>
            <ns3:cad>48</ns3:cad>
          </ns3:TrackPointExtension>
        </extensions>
      </trkpt>
      <trkpt lat="45.2980656735599040985107421875" lon="-70.81653761677443981170654296875">
        <ele>998.79998779296875</ele>
        <time>2026-08-21T13:26:02.000Z</time>
        <extensions>
          <ns3:TrackPointExtension>
            <ns3:hr>140</ns3:hr>
            <ns3:cad>48</ns3:cad>
          </ns3:TrackPointExtension>
        </extensions>
      </trkpt>
      <trkpt lat="45.298066176474094390869140625" lon="-70.8165485970675945281982421875">
        <ele>999</ele>
        <time>2026-08-21T13:26:03.000Z</time>
        <extensions>
          <ns3:TrackPointExtension>
            <ns3:hr>141</ns3:hr>
            <ns3:cad>0</ns3:cad>
          </ns3:TrackPointExtension>
        </extensions>
      </trkpt>
      <trkpt lat="45.29806642793118953704833984375" lon="-70.81654096953570842742919921875">
        <ele>999.4000244140625</ele>
        <time>2026-08-21T13:26:04.000Z</time>
        <extensions>
          <ns3:TrackPointExtension>
            <ns3:hr>142</ns3:hr>
            <ns3:cad>0</ns3:cad>
          </ns3:TrackPointExtension>
        </extensions>
      </trkpt>
      <trkpt lat="45.298062823712825775146484375" lon="-70.8165475912392139434814453125">
        <ele>999.5999755859375</ele>
        <time>2026-08-21T13:26:05.000Z</time>
        <extensions>
          <ns3:TrackPointExtension>
            <ns3:hr>144</ns3:hr>
            <ns3:cad>0</ns3:cad>
          </ns3:TrackPointExtension>
        </extensions>
      </trkpt>
      <trkpt lat="45.2980596385896205902099609375" lon="-70.816559493541717529296875">
        <ele>999.79998779296875</ele>
        <time>2026-08-21T13:26:06.000Z</time>
        <extensions>
          <ns3:TrackPointExtension>
            <ns3:hr>145</ns3:hr>
            <ns3:cad>0</ns3:cad>
          </ns3:TrackPointExtension>
        </extensions>
      </trkpt>
      <trkpt lat="45.29806408099830150604248046875" lon="-70.816560499370098114013671875">
        <ele>1000</ele>
        <time>2026-08-21T13:26:07.000Z</time>
        <extensions>
          <ns3:TrackPointExtension>
            <ns3:hr>145</ns3:hr>
            <ns3:cad>0</ns3:cad>
          </ns3:TrackPointExtension>
        </extensions>
      </trkpt>
      <trkpt lat="45.29806558974087238311767578125" lon="-70.8165688812732696533203125">
        <ele>1000.4000244140625</ele>
        <time>2026-08-21T13:26:08.000Z</time>
        <extensions>
          <ns3:TrackPointExtension>
            <ns3:hr>145</ns3:hr>
            <ns3:cad>0</ns3:cad>
          </ns3:TrackPointExtension>
        </extensions>
      </trkpt>
      <trkpt lat="45.29806374572217464447021484375" lon="-70.816579274833202362060546875">
        <ele>1000.5999755859375</ele>
        <time>2026-08-21T13:26:09.000Z</time>
        <extensions>
          <ns3:TrackPointExtension>
            <ns3:hr>145</ns3:hr>
            <ns3:cad>0</ns3:cad>
          </ns3:TrackPointExtension>
        </extensions>
      </trkpt>
      <trkpt lat="45.29806525446474552154541015625" lon="-70.81658690236508846282958984375">
        <ele>1001</ele>
        <time>2026-08-21T13:26:10.000Z</time>
        <extensions>
          <ns3:TrackPointExtension>
            <ns3:hr>146</ns3:hr>
            <ns3:cad>0</ns3:cad>
          </ns3:TrackPointExtension>
        </extensions>
      </trkpt>
      <trkpt lat="45.2980629913508892059326171875" lon="-70.816592015326023101806640625">
        <ele>1001.4000244140625</ele>
        <time>2026-08-21T13:26:11.000Z</time>
        <extensions>
          <ns3:TrackPointExtension>
            <ns3:hr>146</ns3:hr>
            <ns3:cad>0</ns3:cad>
          </ns3:TrackPointExtension>
        </extensions>
      </trkpt>
      <trkpt lat="45.2980639971792697906494140625" lon="-70.8165945298969745635986328125">
        <ele>1001.5999755859375</ele>
        <time>2026-08-21T13:26:12.000Z</time>
        <extensions>
          <ns3:TrackPointExtension>
            <ns3:hr>146</ns3:hr>
            <ns3:cad>0</ns3:cad>
          </ns3:TrackPointExtension>
        </extensions>
      </trkpt>
      <trkpt lat="45.29806156642735004425048828125" lon="-70.81659528426826000213623046875">
        <ele>1002</ele>
        <time>2026-08-21T13:26:13.000Z</time>
        <extensions>
          <ns3:TrackPointExtension>
            <ns3:hr>147</ns3:hr>
            <ns3:cad>0</ns3:cad>
          </ns3:TrackPointExtension>
        </extensions>
      </trkpt>
      <trkpt lat="45.29805704019963741302490234375" lon="-70.81659595482051372528076171875">
        <ele>1002.20001220703125</ele>
        <time>2026-08-21T13:26:14.000Z</time>
        <extensions>
          <ns3:TrackPointExtension>
            <ns3:hr>148</ns3:hr>
            <ns3:cad>0</ns3:cad>
          </ns3:TrackPointExtension>
        </extensions>
      </trkpt>
      <trkpt lat="45.29805041849613189697265625" lon="-70.81659771502017974853515625">
        <ele>1002.4000244140625</ele>
        <time>2026-08-21T13:26:15.000Z</time>
        <extensions>
          <ns3:TrackPointExtension>
            <ns3:hr>148</ns3:hr>
            <ns3:cad>0</ns3:cad>
          </ns3:TrackPointExtension>
        </extensions>
      </trkpt>
      <trkpt lat="45.29804061166942119598388671875" lon="-70.81659947521984577178955078125">
        <ele>1002.5999755859375</ele>
        <time>2026-08-21T13:26:16.000Z</time>
        <extensions>
          <ns3:TrackPointExtension>
            <ns3:hr>148</ns3:hr>
            <ns3:cad>0</ns3:cad>
          </ns3:TrackPointExtension>
        </extensions>
      </trkpt>
      <trkpt lat="45.2980341576039791107177734375" lon="-70.8165988884866237640380859375">
        <ele>1002.79998779296875</ele>
        <time>2026-08-21T13:26:17.000Z</time>
        <extensions>
          <ns3:TrackPointExtension>
            <ns3:hr>148</ns3:hr>
            <ns3:cad>0</ns3:cad>
          </ns3:TrackPointExtension>
        </extensions>
      </trkpt>
      <trkpt lat="45.29802736826241016387939453125" lon="-70.81659930758178234100341796875">
        <ele>1003</ele>
        <time>2026-08-21T13:26:18.000Z</time>
        <extensions>
          <ns3:TrackPointExtension>
            <ns3:hr>149</ns3:hr>
            <ns3:cad>0</ns3:cad>
          </ns3:TrackPointExtension>
        </extensions>
      </trkpt>
      <trkpt lat="45.2980177290737628936767578125" lon="-70.8165978826582431793212890625">
        <ele>1003</ele>
        <time>2026-08-21T13:26:19.000Z</time>
        <extensions>
          <ns3:TrackPointExtension>
            <ns3:hr>149</ns3:hr>
            <ns3:cad>0</ns3:cad>
          </ns3:TrackPointExtension>
        </extensions>
      </trkpt>
      <trkpt lat="45.29800213873386383056640625" lon="-70.81660031341016292572021484375">
        <ele>1003.20001220703125</ele>
        <time>2026-08-21T13:26:20.000Z</time>
        <extensions>
          <ns3:TrackPointExtension>
            <ns3:hr>150</ns3:hr>
            <ns3:cad>0</ns3:cad>
          </ns3:TrackPointExtension>
        </extensions>
      </trkpt>
      <trkpt lat="45.298004485666751861572265625" lon="-70.81660685129463672637939453125">
        <ele>1003.4000244140625</ele>
        <time>2026-08-21T13:26:21.000Z</time>
        <extensions>
          <ns3:TrackPointExtension>
            <ns3:hr>150</ns3:hr>
            <ns3:cad>0</ns3:cad>
          </ns3:TrackPointExtension>
        </extensions>
      </trkpt>
      <trkpt lat="45.2980053238570690155029296875" lon="-70.81661204807460308074951171875">
        <ele>1003.4000244140625</ele>
        <time>2026-08-21T13:26:22.000Z</time>
        <extensions>
          <ns3:TrackPointExtension>
            <ns3:hr>150</ns3:hr>
            <ns3:cad>0</ns3:cad>
          </ns3:TrackPointExtension>
        </extensions>
      </trkpt>
      <trkpt lat="45.2980054914951324462890625" lon="-70.81662721931934356689453125">
        <ele>1003.5999755859375</ele>
        <time>2026-08-21T13:26:23.000Z</time>
        <extensions>
          <ns3:TrackPointExtension>
            <ns3:hr>150</ns3:hr>
            <ns3:cad>0</ns3:cad>
          </ns3:TrackPointExtension>
        </extensions>
      </trkpt>
      <trkpt lat="45.298009179532527923583984375" lon="-70.81663752906024456024169921875">
        <ele>1003.79998779296875</ele>
        <time>2026-08-21T13:26:24.000Z</time>
        <extensions>
          <ns3:TrackPointExtension>
            <ns3:hr>150</ns3:hr>
            <ns3:cad>0</ns3:cad>
          </ns3:TrackPointExtension>
        </extensions>
      </trkpt>
      <trkpt lat="45.2980116941034793853759765625" lon="-70.8166441507637500762939453125">
        <ele>1003.79998779296875</ele>
        <time>2026-08-21T13:26:25.000Z</time>
        <extensions>
          <ns3:TrackPointExtension>
            <ns3:hr>149</ns3:hr>
            <ns3:cad>0</ns3:cad>
          </ns3:TrackPointExtension>
        </extensions>
      </trkpt>
      <trkpt lat="45.29801261611282825469970703125" lon="-70.816661752760410308837890625">
        <ele>1004</ele>
        <time>2026-08-21T13:26:26.000Z</time>
        <extensions>
          <ns3:TrackPointExtension>
            <ns3:hr>150</ns3:hr>
            <ns3:cad>0</ns3:cad>
          </ns3:TrackPointExtension>
        </extensions>
      </trkpt>
      <trkpt lat="45.29801010154187679290771484375" lon="-70.81667021848261356353759765625">
        <ele>1004</ele>
        <time>2026-08-21T13:26:27.000Z</time>
        <extensions>
          <ns3:TrackPointExtension>
            <ns3:hr>150</ns3:hr>
            <ns3:cad>0</ns3:cad>
          </ns3:TrackPointExtension>
        </extensions>
      </trkpt>
      <trkpt lat="45.2980083413422107696533203125" lon="-70.81667281687259674072265625">
        <ele>1004.20001220703125</ele>
        <time>2026-08-21T13:26:28.000Z</time>
        <extensions>
          <ns3:TrackPointExtension>
            <ns3:hr>150</ns3:hr>
            <ns3:cad>0</ns3:cad>
          </ns3:TrackPointExtension>
        </extensions>
      </trkpt>
      <trkpt lat="45.298002474009990692138671875" lon="-70.816681869328022003173828125">
        <ele>1004.20001220703125</ele>
        <time>2026-08-21T13:26:29.000Z</time>
        <extensions>
          <ns3:TrackPointExtension>
            <ns3:hr>150</ns3:hr>
            <ns3:cad>0</ns3:cad>
          </ns3:TrackPointExtension>
        </extensions>
      </trkpt>
      <trkpt lat="45.298001803457736968994140625" lon="-70.8166857250034809112548828125">
        <ele>1004.5999755859375</ele>
        <time>2026-08-21T13:26:30.000Z</time>
        <extensions>
          <ns3:TrackPointExtension>
            <ns3:hr>150</ns3:hr>
            <ns3:cad>0</ns3:cad>
          </ns3:TrackPointExtension>
        </extensions>
      </trkpt>
      <trkpt lat="45.29799618758261203765869140625" lon="-70.81670098006725311279296875">
        <ele>1004.79998779296875</ele>
        <time>2026-08-21T13:26:31.000Z</time>
        <extensions>
          <ns3:TrackPointExtension>
            <ns3:hr>150</ns3:hr>
            <ns3:cad>0</ns3:cad>
          </ns3:TrackPointExtension>
        </extensions>
      </trkpt>
      <trkpt lat="45.297991745173931121826171875" lon="-70.81671715714037418365478515625">
        <ele>1005</ele>
        <time>2026-08-21T13:26:32.000Z</time>
        <extensions>
          <ns3:TrackPointExtension>
            <ns3:hr>151</ns3:hr>
            <ns3:cad>0</ns3:cad>
          </ns3:TrackPointExtension>
        </extensions>
      </trkpt>
      <trkpt lat="45.29799275100231170654296875" lon="-70.81672470085322856903076171875">
        <ele>1005.20001220703125</ele>
        <time>2026-08-21T13:26:33.000Z</time>
        <extensions>
          <ns3:TrackPointExtension>
            <ns3:hr>151</ns3:hr>
            <ns3:cad>0</ns3:cad>
          </ns3:TrackPointExtension>
        </extensions>
      </trkpt>
      <trkpt lat="45.2979956008493900299072265625" lon="-70.8167299814522266387939453125">
        <ele>1005.4000244140625</ele>
        <time>2026-08-21T13:26:34.000Z</time>
        <extensions>
          <ns3:TrackPointExtension>
            <ns3:hr>152</ns3:hr>
            <ns3:cad>0</ns3:cad>
          </ns3:TrackPointExtension>
        </extensions>
      </trkpt>
      <trkpt lat="45.2979919128119945526123046875" lon="-70.81673308275640010833740234375">
        <ele>1005.5999755859375</ele>
        <time>2026-08-21T13:26:35.000Z</time>
        <extensions>
          <ns3:TrackPointExtension>
            <ns3:hr>152</ns3:hr>
            <ns3:cad>0</ns3:cad>
          </ns3:TrackPointExtension>
        </extensions>
      </trkpt>
      <trkpt lat="45.2979919128119945526123046875" lon="-70.8167437277734279632568359375">
        <ele>1005.79998779296875</ele>
        <time>2026-08-21T13:26:36.000Z</time>
        <extensions>
          <ns3:TrackPointExtension>
            <ns3:hr>152</ns3:hr>
            <ns3:cad>0</ns3:cad>
          </ns3:TrackPointExtension>
        </extensions>
      </trkpt>
      <trkpt lat="45.2979899011552333831787109375" lon="-70.81675051711499691009521484375">
        <ele>1006</ele>
        <time>2026-08-21T13:26:37.000Z</time>
        <extensions>
          <ns3:TrackPointExtension>
            <ns3:hr>152</ns3:hr>
            <ns3:cad>0</ns3:cad>
          </ns3:TrackPointExtension>
        </extensions>
      </trkpt>
      <trkpt lat="45.29798663221299648284912109375" lon="-70.8167618326842784881591796875">
        <ele>1006.20001220703125</ele>
        <time>2026-08-21T13:26:38.000Z</time>
        <extensions>
          <ns3:TrackPointExtension>
            <ns3:hr>152</ns3:hr>
            <ns3:cad>0</ns3:cad>
          </ns3:TrackPointExtension>
        </extensions>
      </trkpt>
      <trkpt lat="45.29798210598528385162353515625" lon="-70.81677163951098918914794921875">
        <ele>1006.20001220703125</ele>
        <time>2026-08-21T13:26:39.000Z</time>
        <extensions>
          <ns3:TrackPointExtension>
            <ns3:hr>152</ns3:hr>
            <ns3:cad>0</ns3:cad>
          </ns3:TrackPointExtension>
        </extensions>
      </trkpt>
      <trkpt lat="45.29798227362334728240966796875" lon="-70.816778428852558135986328125">
        <ele>1006.4000244140625</ele>
        <time>2026-08-21T13:26:40.000Z</time>
        <extensions>
          <ns3:TrackPointExtension>
            <ns3:hr>152</ns3:hr>
            <ns3:cad>0</ns3:cad>
          </ns3:TrackPointExtension>
        </extensions>
      </trkpt>
      <trkpt lat="45.29798260889947414398193359375" lon="-70.81679242663085460662841796875">
        <ele>1006.5999755859375</ele>
        <time>2026-08-21T13:26:41.000Z</time>
        <extensions>
          <ns3:TrackPointExtension>
            <ns3:hr>152</ns3:hr>
            <ns3:cad>0</ns3:cad>
          </ns3:TrackPointExtension>
        </extensions>
      </trkpt>
      <trkpt lat="45.297985039651393890380859375" lon="-70.81680357456207275390625">
        <ele>1006.5999755859375</ele>
        <time>2026-08-21T13:26:42.000Z</time>
        <extensions>
          <ns3:TrackPointExtension>
            <ns3:hr>151</ns3:hr>
            <ns3:cad>0</ns3:cad>
          </ns3:TrackPointExtension>
        </extensions>
      </trkpt>
      <trkpt lat="45.2979888953268527984619140625" lon="-70.81681204028427600860595703125">
        <ele>1006.79998779296875</ele>
        <time>2026-08-21T13:26:43.000Z</time>
        <extensions>
          <ns3:TrackPointExtension>
            <ns3:hr>152</ns3:hr>
            <ns3:cad>0</ns3:cad>
          </ns3:TrackPointExtension>
        </extensions>
      </trkpt>
      <trkpt lat="45.29799367301166057586669921875" lon="-70.816816650331020355224609375">
        <ele>1007</ele>
        <time>2026-08-21T13:26:44.000Z</time>
        <extensions>
          <ns3:TrackPointExtension>
            <ns3:hr>151</ns3:hr>
            <ns3:cad>0</ns3:cad>
          </ns3:TrackPointExtension>
        </extensions>
      </trkpt>
      <trkpt lat="45.2979966066777706146240234375" lon="-70.8168188296258449554443359375">
        <ele>1007</ele>
        <time>2026-08-21T13:26:45.000Z</time>
        <extensions>
          <ns3:TrackPointExtension>
            <ns3:hr>151</ns3:hr>
            <ns3:cad>0</ns3:cad>
          </ns3:TrackPointExtension>
        </extensions>
      </trkpt>
      <trkpt lat="45.29800490476191043853759765625" lon="-70.81682394258677959442138671875">
        <ele>1007.20001220703125</ele>
        <time>2026-08-21T13:26:46.000Z</time>
        <extensions>
          <ns3:TrackPointExtension>
            <ns3:hr>151</ns3:hr>
            <ns3:cad>0</ns3:cad>
          </ns3:TrackPointExtension>
        </extensions>
      </trkpt>
      <trkpt lat="45.29800741933286190032958984375" lon="-70.81682612188160419464111328125">
        <ele>1007.4000244140625</ele>
        <time>2026-08-21T13:26:47.000Z</time>
        <extensions>
          <ns3:TrackPointExtension>
            <ns3:hr>152</ns3:hr>
            <ns3:cad>0</ns3:cad>
          </ns3:TrackPointExtension>
        </extensions>
      </trkpt>
      <trkpt lat="45.2980023063719272613525390625" lon="-70.81683148629963397979736328125">
        <ele>1007.5999755859375</ele>
        <time>2026-08-21T13:26:48.000Z</time>
        <extensions>
          <ns3:TrackPointExtension>
            <ns3:hr>152</ns3:hr>
            <ns3:cad>0</ns3:cad>
          </ns3:TrackPointExtension>
        </extensions>
      </trkpt>
      <trkpt lat="45.2980036474764347076416015625" lon="-70.81683685071766376495361328125">
        <ele>1008</ele>
        <time>2026-08-21T13:26:49.000Z</time>
        <extensions>
          <ns3:TrackPointExtension>
            <ns3:hr>152</ns3:hr>
            <ns3:cad>0</ns3:cad>
          </ns3:TrackPointExtension>
        </extensions>
      </trkpt>
      <trkpt lat="45.2980053238570690155029296875" lon="-70.81683819182217121124267578125">
        <ele>1008.20001220703125</ele>
        <time>2026-08-21T13:26:50.000Z</time>
        <extensions>
          <ns3:TrackPointExtension>
            <ns3:hr>152</ns3:hr>
            <ns3:cad>0</ns3:cad>
          </ns3:TrackPointExtension>
        </extensions>
      </trkpt>
      <trkpt lat="45.29800071381032466888427734375" lon="-70.81684447824954986572265625">
        <ele>1008.4000244140625</ele>
        <time>2026-08-21T13:26:51.000Z</time>
        <extensions>
          <ns3:TrackPointExtension>
            <ns3:hr>152</ns3:hr>
            <ns3:cad>0</ns3:cad>
          </ns3:TrackPointExtension>
        </extensions>
      </trkpt>
      <trkpt lat="45.2979922480881214141845703125" lon="-70.816844142973423004150390625">
        <ele>1008.5999755859375</ele>
        <time>2026-08-21T13:26:52.000Z</time>
        <extensions>
          <ns3:TrackPointExtension>
            <ns3:hr>152</ns3:hr>
            <ns3:cad>0</ns3:cad>
          </ns3:TrackPointExtension>
        </extensions>
      </trkpt>
      <trkpt lat="45.297983027994632720947265625" lon="-70.8168453164398670196533203125">
        <ele>1008.79998779296875</ele>
        <time>2026-08-21T13:26:53.000Z</time>
        <extensions>
          <ns3:TrackPointExtension>
            <ns3:hr>152</ns3:hr>
            <ns3:cad>0</ns3:cad>
          </ns3:TrackPointExtension>
        </extensions>
      </trkpt>
      <trkpt lat="45.297980345785617828369140625" lon="-70.8168476633727550506591796875">
        <ele>1009</ele>
        <time>2026-08-21T13:26:54.000Z</time>
        <extensions>
          <ns3:TrackPointExtension>
            <ns3:hr>151</ns3:hr>
            <ns3:cad>0</ns3:cad>
          </ns3:TrackPointExtension>
        </extensions>
      </trkpt>
      <trkpt lat="45.29797841794788837432861328125" lon="-70.8168630860745906829833984375">
        <ele>1009.20001220703125</ele>
        <time>2026-08-21T13:26:55.000Z</time>
        <extensions>
          <ns3:TrackPointExtension>
            <ns3:hr>151</ns3:hr>
            <ns3:cad>0</ns3:cad>
          </ns3:TrackPointExtension>
        </extensions>
      </trkpt>
      <trkpt lat="45.2979781664907932281494140625" lon="-70.81686518155038356781005859375">
        <ele>1009.4000244140625</ele>
        <time>2026-08-21T13:26:56.000Z</time>
        <extensions>
          <ns3:TrackPointExtension>
            <ns3:hr>151</ns3:hr>
            <ns3:cad>0</ns3:cad>
          </ns3:TrackPointExtension>
        </extensions>
      </trkpt>
      <trkpt lat="45.297976993024349212646484375" lon="-70.81687255762517452239990234375">
        <ele>1009.5999755859375</ele>
        <time>2026-08-21T13:26:57.000Z</time>
        <extensions>
          <ns3:TrackPointExtension>
            <ns3:hr>151</ns3:hr>
            <ns3:cad>0</ns3:cad>
          </ns3:TrackPointExtension>
        </extensions>
      </trkpt>
      <trkpt lat="45.2979788370430469512939453125" lon="-70.8168764971196651458740234375">
        <ele>1009.79998779296875</ele>
        <time>2026-08-21T13:26:58.000Z</time>
        <extensions>
          <ns3:TrackPointExtension>
            <ns3:hr>152</ns3:hr>
            <ns3:cad>0</ns3:cad>
          </ns3:TrackPointExtension>
        </extensions>
      </trkpt>
      <trkpt lat="45.2979761548340320587158203125" lon="-70.81688010133802890777587890625">
        <ele>1010</ele>
        <time>2026-08-21T13:26:59.000Z</time>
        <extensions>
          <ns3:TrackPointExtension>
            <ns3:hr>151</ns3:hr>
            <ns3:cad>0</ns3:cad>
          </ns3:TrackPointExtension>
        </extensions>
      </trkpt>
      <trkpt lat="45.297976322472095489501953125" lon="-70.816883035004138946533203125">
        <ele>1010.20001220703125</ele>
        <time>2026-08-21T13:27:00.000Z</time>
        <extensions>
          <ns3:TrackPointExtension>
            <ns3:hr>151</ns3:hr>
            <ns3:cad>0</ns3:cad>
          </ns3:TrackPointExtension>
        </extensions>
      </trkpt>
      <trkpt lat="45.29797875322401523590087890625" lon="-70.81689007580280303955078125">
        <ele>1010.20001220703125</ele>
        <time>2026-08-21T13:27:01.000Z</time>
        <extensions>
          <ns3:TrackPointExtension>
            <ns3:hr>151</ns3:hr>
            <ns3:cad>0</ns3:cad>
          </ns3:TrackPointExtension>
        </extensions>
      </trkpt>
      <trkpt lat="45.29798545874655246734619140625" lon="-70.8168939314782619476318359375">
        <ele>1010.4000244140625</ele>
        <time>2026-08-21T13:27:02.000Z</time>
        <extensions>
          <ns3:TrackPointExtension>
            <ns3:hr>151</ns3:hr>
            <ns3:cad>0</ns3:cad>
          </ns3:TrackPointExtension>
        </extensions>
      </trkpt>
      <trkpt lat="45.29798931442201137542724609375" lon="-70.8169039897620677947998046875">
        <ele>1010.4000244140625</ele>
        <time>2026-08-21T13:27:03.000Z</time>
        <extensions>
          <ns3:TrackPointExtension>
            <ns3:hr>151</ns3:hr>
            <ns3:cad>0</ns3:cad>
          </ns3:TrackPointExtension>
        </extensions>
      </trkpt>
      <trkpt lat="45.29799006879329681396484375" lon="-70.8169068396091461181640625">
        <ele>1010.5999755859375</ele>
        <time>2026-08-21T13:27:04.000Z</time>
        <extensions>
          <ns3:TrackPointExtension>
            <ns3:hr>151</ns3:hr>
            <ns3:cad>0</ns3:cad>
          </ns3:TrackPointExtension>
        </extensions>
      </trkpt>
      <trkpt lat="45.29798998497426509857177734375" lon="-70.816908515989780426025390625">
        <ele>1010.79998779296875</ele>
        <time>2026-08-21T13:27:05.000Z</time>
        <extensions>
          <ns3:TrackPointExtension>
            <ns3:hr>151</ns3:hr>
            <ns3:cad>0</ns3:cad>
          </ns3:TrackPointExtension>
        </extensions>
      </trkpt>
      <trkpt lat="45.2979912422597408294677734375" lon="-70.8169162273406982421875">
        <ele>1011.20001220703125</ele>
        <time>2026-08-21T13:27:06.000Z</time>
        <extensions>
          <ns3:TrackPointExtension>
            <ns3:hr>151</ns3:hr>
            <ns3:cad>0</ns3:cad>
          </ns3:TrackPointExtension>
        </extensions>
      </trkpt>
      <trkpt lat="45.297994427382946014404296875" lon="-70.81692134030163288116455078125">
        <ele>1011.4000244140625</ele>
        <time>2026-08-21T13:27:07.000Z</time>
        <extensions>
          <ns3:TrackPointExtension>
            <ns3:hr>150</ns3:hr>
            <ns3:cad>0</ns3:cad>
          </ns3:TrackPointExtension>
        </extensions>
      </trkpt>
      <trkpt lat="45.29799233190715312957763671875" lon="-70.816926620900630950927734375">
        <ele>1011.79998779296875</ele>
        <time>2026-08-21T13:27:08.000Z</time>
        <extensions>
          <ns3:TrackPointExtension>
            <ns3:hr>150</ns3:hr>
            <ns3:cad>0</ns3:cad>
          </ns3:TrackPointExtension>
        </extensions>
      </trkpt>
      <trkpt lat="45.297991745173931121826171875" lon="-70.8169398643076419830322265625">
        <ele>1012</ele>
        <time>2026-08-21T13:27:09.000Z</time>
        <extensions>
          <ns3:TrackPointExtension>
            <ns3:hr>150</ns3:hr>
            <ns3:cad>0</ns3:cad>
          </ns3:TrackPointExtension>
        </extensions>
      </trkpt>
      <trkpt lat="45.2979934215545654296875" lon="-70.81695503555238246917724609375">
        <ele>1012.20001220703125</ele>
        <time>2026-08-21T13:27:10.000Z</time>
        <extensions>
          <ns3:TrackPointExtension>
            <ns3:hr>150</ns3:hr>
            <ns3:cad>42</ns3:cad>
          </ns3:TrackPointExtension>
        </extensions>
      </trkpt>
      <trkpt lat="45.297997109591960906982421875" lon="-70.8169631659984588623046875">
        <ele>1012.5999755859375</ele>
        <time>2026-08-21T13:27:11.000Z</time>
        <extensions>
          <ns3:TrackPointExtension>
            <ns3:hr>150</ns3:hr>
            <ns3:cad>42</ns3:cad>
          </ns3:TrackPointExtension>
        </extensions>
      </trkpt>
      <trkpt lat="45.2980054914951324462890625" lon="-70.81697414629161357879638671875">
        <ele>1012.79998779296875</ele>
        <time>2026-08-21T13:27:12.000Z</time>
        <extensions>
          <ns3:TrackPointExtension>
            <ns3:hr>150</ns3:hr>
            <ns3:cad>42</ns3:cad>
          </ns3:TrackPointExtension>
        </extensions>
      </trkpt>
      <trkpt lat="45.29800859279930591583251953125" lon="-70.81698395311832427978515625">
        <ele>1013</ele>
        <time>2026-08-21T13:27:13.000Z</time>
        <extensions>
          <ns3:TrackPointExtension>
            <ns3:hr>150</ns3:hr>
            <ns3:cad>42</ns3:cad>
          </ns3:TrackPointExtension>
        </extensions>
      </trkpt>
      <trkpt lat="45.29801077209413051605224609375" lon="-70.81698973663151264190673828125">
        <ele>1013.20001220703125</ele>
        <time>2026-08-21T13:27:14.000Z</time>
        <extensions>
          <ns3:TrackPointExtension>
            <ns3:hr>149</ns3:hr>
            <ns3:cad>42</ns3:cad>
          </ns3:TrackPointExtension>
        </extensions>
      </trkpt>
      <trkpt lat="45.298011861741542816162109375" lon="-70.816999711096286773681640625">
        <ele>1013.20001220703125</ele>
        <time>2026-08-21T13:27:15.000Z</time>
        <extensions>
          <ns3:TrackPointExtension>
            <ns3:hr>150</ns3:hr>
            <ns3:cad>0</ns3:cad>
          </ns3:TrackPointExtension>
        </extensions>
      </trkpt>
      <trkpt lat="45.29801412485539913177490234375" lon="-70.8170049078762531280517578125">
        <ele>1013.20001220703125</ele>
        <time>2026-08-21T13:27:16.000Z</time>
        <extensions>
          <ns3:TrackPointExtension>
            <ns3:hr>150</ns3:hr>
            <ns3:cad>0</ns3:cad>
          </ns3:TrackPointExtension>
        </extensions>
      </trkpt>
      <trkpt lat="45.29801697470247745513916015625" lon="-70.81701102666556835174560546875">
        <ele>1013.4000244140625</ele>
        <time>2026-08-21T13:27:17.000Z</time>
        <extensions>
          <ns3:TrackPointExtension>
            <ns3:hr>150</ns3:hr>
            <ns3:cad>0</ns3:cad>
          </ns3:TrackPointExtension>
        </extensions>
      </trkpt>
      <trkpt lat="45.29802024364471435546875" lon="-70.81702242605388164520263671875">
        <ele>1013.5999755859375</ele>
        <time>2026-08-21T13:27:18.000Z</time>
        <extensions>
          <ns3:TrackPointExtension>
            <ns3:hr>150</ns3:hr>
            <ns3:cad>0</ns3:cad>
          </ns3:TrackPointExtension>
        </extensions>
      </trkpt>
      <trkpt lat="45.2980190701782703399658203125" lon="-70.8170313946902751922607421875">
        <ele>1013.79998779296875</ele>
        <time>2026-08-21T13:27:19.000Z</time>
        <extensions>
          <ns3:TrackPointExtension>
            <ns3:hr>151</ns3:hr>
            <ns3:cad>0</ns3:cad>
          </ns3:TrackPointExtension>
        </extensions>
      </trkpt>
      <trkpt lat="45.29801345430314540863037109375" lon="-70.8170458115637302398681640625">
        <ele>1014</ele>
        <time>2026-08-21T13:27:20.000Z</time>
        <extensions>
          <ns3:TrackPointExtension>
            <ns3:hr>152</ns3:hr>
            <ns3:cad>0</ns3:cad>
          </ns3:TrackPointExtension>
        </extensions>
      </trkpt>
      <trkpt lat="45.29800674878060817718505859375" lon="-70.81705545075237751007080078125">
        <ele>1014.20001220703125</ele>
        <time>2026-08-21T13:27:21.000Z</time>
        <extensions>
          <ns3:TrackPointExtension>
            <ns3:hr>152</ns3:hr>
            <ns3:cad>0</ns3:cad>
          </ns3:TrackPointExtension>
        </extensions>
      </trkpt>
      <trkpt lat="45.298009179532527923583984375" lon="-70.81707179546356201171875">
        <ele>1014.4000244140625</ele>
        <time>2026-08-21T13:27:22.000Z</time>
        <extensions>
          <ns3:TrackPointExtension>
            <ns3:hr>152</ns3:hr>
            <ns3:cad>0</ns3:cad>
          </ns3:TrackPointExtension>
        </extensions>
      </trkpt>
      <trkpt lat="45.29801546595990657806396484375" lon="-70.81709031946957111358642578125">
        <ele>1014.5999755859375</ele>
        <time>2026-08-21T13:27:23.000Z</time>
        <extensions>
          <ns3:TrackPointExtension>
            <ns3:hr>152</ns3:hr>
            <ns3:cad>0</ns3:cad>
          </ns3:TrackPointExtension>
        </extensions>
      </trkpt>
      <trkpt lat="45.29802233912050724029541015625" lon="-70.817096270620822906494140625">
        <ele>1014.79998779296875</ele>
        <time>2026-08-21T13:27:24.000Z</time>
        <extensions>
          <ns3:TrackPointExtension>
            <ns3:hr>152</ns3:hr>
            <ns3:cad>0</ns3:cad>
          </ns3:TrackPointExtension>
        </extensions>
      </trkpt>
      <trkpt lat="45.2980294637382030487060546875" lon="-70.81710590980947017669677734375">
        <ele>1015</ele>
        <time>2026-08-21T13:27:25.000Z</time>
        <extensions>
          <ns3:TrackPointExtension>
            <ns3:hr>152</ns3:hr>
            <ns3:cad>0</ns3:cad>
          </ns3:TrackPointExtension>
        </extensions>
      </trkpt>
      <trkpt lat="45.2980344928801059722900390625" lon="-70.81711378879845142364501953125">
        <ele>1015</ele>
        <time>2026-08-21T13:27:26.000Z</time>
        <extensions>
          <ns3:TrackPointExtension>
            <ns3:hr>152</ns3:hr>
            <ns3:cad>0</ns3:cad>
          </ns3:TrackPointExtension>
        </extensions>
      </trkpt>
      <trkpt lat="45.29803097248077392578125" lon="-70.817125104367733001708984375">
        <ele>1015</ele>
        <time>2026-08-21T13:27:27.000Z</time>
        <extensions>
          <ns3:TrackPointExtension>
            <ns3:hr>152</ns3:hr>
            <ns3:cad>0</ns3:cad>
          </ns3:TrackPointExtension>
        </extensions>
      </trkpt>
      <trkpt lat="45.29803709127008914947509765625" lon="-70.81714086234569549560546875">
        <ele>1015</ele>
        <time>2026-08-21T13:27:28.000Z</time>
        <extensions>
          <ns3:TrackPointExtension>
            <ns3:hr>152</ns3:hr>
            <ns3:cad>0</ns3:cad>
          </ns3:TrackPointExtension>
        </extensions>
      </trkpt>
      <trkpt lat="45.29804597608745098114013671875" lon="-70.81714622676372528076171875">
        <ele>1014.79998779296875</ele>
        <time>2026-08-21T13:27:29.000Z</time>
        <extensions>
          <ns3:TrackPointExtension>
            <ns3:hr>152</ns3:hr>
            <ns3:cad>0</ns3:cad>
          </ns3:TrackPointExtension>
        </extensions>
      </trkpt>
      <trkpt lat="45.29805419035255908966064453125" lon="-70.817153267562389373779296875">
        <ele>1014.5999755859375</ele>
        <time>2026-08-21T13:27:30.000Z</time>
        <extensions>
          <ns3:TrackPointExtension>
            <ns3:hr>152</ns3:hr>
            <ns3:cad>0</ns3:cad>
          </ns3:TrackPointExtension>
        </extensions>
      </trkpt>
      <trkpt lat="45.29805838130414485931396484375" lon="-70.81716097891330718994140625">
        <ele>1014.20001220703125</ele>
        <time>2026-08-21T13:27:31.000Z</time>
        <extensions>
          <ns3:TrackPointExtension>
            <ns3:hr>152</ns3:hr>
            <ns3:cad>0</ns3:cad>
          </ns3:TrackPointExtension>
        </extensions>
      </trkpt>
      <trkpt lat="45.298060141503810882568359375" lon="-70.817172043025493621826171875">
        <ele>1013.79998779296875</ele>
        <time>2026-08-21T13:27:32.000Z</time>
        <extensions>
          <ns3:TrackPointExtension>
            <ns3:hr>151</ns3:hr>
            <ns3:cad>0</ns3:cad>
          </ns3:TrackPointExtension>
        </extensions>
      </trkpt>
      <trkpt lat="45.2980633266270160675048828125" lon="-70.8171836100518703460693359375">
        <ele>1013.5999755859375</ele>
        <time>2026-08-21T13:27:33.000Z</time>
        <extensions>
          <ns3:TrackPointExtension>
            <ns3:hr>152</ns3:hr>
            <ns3:cad>0</ns3:cad>
          </ns3:TrackPointExtension>
        </extensions>
      </trkpt>
      <trkpt lat="45.298071205615997314453125" lon="-70.8172045648097991943359375">
        <ele>1013.20001220703125</ele>
        <time>2026-08-21T13:27:34.000Z</time>
        <extensions>
          <ns3:TrackPointExtension>
            <ns3:hr>152</ns3:hr>
            <ns3:cad>57</ns3:cad>
          </ns3:TrackPointExtension>
        </extensions>
      </trkpt>
      <trkpt lat="45.29808268882334232330322265625" lon="-70.8172225020825862884521484375">
        <ele>1013</ele>
        <time>2026-08-21T13:27:35.000Z</time>
        <extensions>
          <ns3:TrackPointExtension>
            <ns3:hr>153</ns3:hr>
            <ns3:cad>57</ns3:cad>
          </ns3:TrackPointExtension>
        </extensions>
      </trkpt>
      <trkpt lat="45.298094339668750762939453125" lon="-70.81723784096539020538330078125">
        <ele>1012.5999755859375</ele>
        <time>2026-08-21T13:27:36.000Z</time>
        <extensions>
          <ns3:TrackPointExtension>
            <ns3:hr>153</ns3:hr>
            <ns3:cad>72</ns3:cad>
          </ns3:TrackPointExtension>
        </extensions>
      </trkpt>
      <trkpt lat="45.298106409609317779541015625" lon="-70.8172516711056232452392578125">
        <ele>1012.4000244140625</ele>
        <time>2026-08-21T13:27:37.000Z</time>
        <extensions>
          <ns3:TrackPointExtension>
            <ns3:hr>153</ns3:hr>
            <ns3:cad>72</ns3:cad>
          </ns3:TrackPointExtension>
        </extensions>
      </trkpt>
      <trkpt lat="45.29812241904437541961669921875" lon="-70.817262232303619384765625">
        <ele>1012.20001220703125</ele>
        <time>2026-08-21T13:27:38.000Z</time>
        <extensions>
          <ns3:TrackPointExtension>
            <ns3:hr>153</ns3:hr>
            <ns3:cad>72</ns3:cad>
          </ns3:TrackPointExtension>
        </extensions>
      </trkpt>
      <trkpt lat="45.29814018867909908294677734375" lon="-70.81727488897740840911865234375">
        <ele>1012.20001220703125</ele>
        <time>2026-08-21T13:27:39.000Z</time>
        <extensions>
          <ns3:TrackPointExtension>
            <ns3:hr>152</ns3:hr>
            <ns3:cad>72</ns3:cad>
          </ns3:TrackPointExtension>
        </extensions>
      </trkpt>
      <trkpt lat="45.29814957641065120697021484375" lon="-70.81728343851864337921142578125">
        <ele>1012.20001220703125</ele>
        <time>2026-08-21T13:27:40.000Z</time>
        <extensions>
          <ns3:TrackPointExtension>
            <ns3:hr>152</ns3:hr>
            <ns3:cad>72</ns3:cad>
          </ns3:TrackPointExtension>
        </extensions>
      </trkpt>
      <trkpt lat="45.298157036304473876953125" lon="-70.81730087287724018096923828125">
        <ele>1012.20001220703125</ele>
        <time>2026-08-21T13:27:41.000Z</time>
        <extensions>
          <ns3:TrackPointExtension>
            <ns3:hr>152</ns3:hr>
            <ns3:cad>72</ns3:cad>
          </ns3:TrackPointExtension>
        </extensions>
      </trkpt>
      <trkpt lat="45.2981615625321865081787109375" lon="-70.81732266582548618316650390625">
        <ele>1012.20001220703125</ele>
        <time>2026-08-21T13:27:42.000Z</time>
        <extensions>
          <ns3:TrackPointExtension>
            <ns3:hr>151</ns3:hr>
            <ns3:cad>57</ns3:cad>
          </ns3:TrackPointExtension>
        </extensions>
      </trkpt>
      <trkpt lat="45.29816449619829654693603515625" lon="-70.817339010536670684814453125">
        <ele>1012.20001220703125</ele>
        <time>2026-08-21T13:27:43.000Z</time>
        <extensions>
          <ns3:TrackPointExtension>
            <ns3:hr>150</ns3:hr>
            <ns3:cad>57</ns3:cad>
          </ns3:TrackPointExtension>
        </extensions>
      </trkpt>
      <trkpt lat="45.29816533438861370086669921875" lon="-70.81735569052398204803466796875">
        <ele>1012.4000244140625</ele>
        <time>2026-08-21T13:27:44.000Z</time>
        <extensions>
          <ns3:TrackPointExtension>
            <ns3:hr>148</ns3:hr>
            <ns3:cad>57</ns3:cad>
          </ns3:TrackPointExtension>
        </extensions>
      </trkpt>
      <trkpt lat="45.2981652505695819854736328125" lon="-70.81736943684518337249755859375">
        <ele>1012.4000244140625</ele>
        <time>2026-08-21T13:27:45.000Z</time>
        <extensions>
          <ns3:TrackPointExtension>
            <ns3:hr>147</ns3:hr>
            <ns3:cad>57</ns3:cad>
          </ns3:TrackPointExtension>
        </extensions>
      </trkpt>
      <trkpt lat="45.298170782625675201416015625" lon="-70.8173931576311588287353515625">
        <ele>1012.4000244140625</ele>
        <time>2026-08-21T13:27:46.000Z</time>
        <extensions>
          <ns3:TrackPointExtension>
            <ns3:hr>146</ns3:hr>
            <ns3:cad>0</ns3:cad>
          </ns3:TrackPointExtension>
        </extensions>
      </trkpt>
      <trkpt lat="45.29817975126206874847412109375" lon="-70.817403383553028106689453125">
        <ele>1012.5999755859375</ele>
        <time>2026-08-21T13:27:47.000Z</time>
        <extensions>
          <ns3:TrackPointExtension>
            <ns3:hr>145</ns3:hr>
            <ns3:cad>0</ns3:cad>
          </ns3:TrackPointExtension>
        </extensions>
      </trkpt>
      <trkpt lat="45.2981910668313503265380859375" lon="-70.81741469912230968475341796875">
        <ele>1012.5999755859375</ele>
        <time>2026-08-21T13:27:48.000Z</time>
        <extensions>
          <ns3:TrackPointExtension>
            <ns3:hr>144</ns3:hr>
            <ns3:cad>0</ns3:cad>
          </ns3:TrackPointExtension>
        </extensions>
      </trkpt>
      <trkpt lat="45.29820070601999759674072265625" lon="-70.81742291338741779327392578125">
        <ele>1012.5999755859375</ele>
        <time>2026-08-21T13:27:49.000Z</time>
        <extensions>
          <ns3:TrackPointExtension>
            <ns3:hr>144</ns3:hr>
            <ns3:cad>0</ns3:cad>
          </ns3:TrackPointExtension>
        </extensions>
      </trkpt>
      <trkpt lat="45.2982118539512157440185546875" lon="-70.81743380986154079437255859375">
        <ele>1012.5999755859375</ele>
        <time>2026-08-21T13:27:50.000Z</time>
        <extensions>
          <ns3:TrackPointExtension>
            <ns3:hr>144</ns3:hr>
            <ns3:cad>0</ns3:cad>
          </ns3:TrackPointExtension>
        </extensions>
      </trkpt>
      <trkpt lat="45.29822316952049732208251953125" lon="-70.81744722090661525726318359375">
        <ele>1012.5999755859375</ele>
        <time>2026-08-21T13:27:51.000Z</time>
        <extensions>
          <ns3:TrackPointExtension>
            <ns3:hr>144</ns3:hr>
            <ns3:cad>0</ns3:cad>
          </ns3:TrackPointExtension>
        </extensions>
      </trkpt>
      <trkpt lat="45.298232473433017730712890625" lon="-70.81745577044785022735595703125">
        <ele>1012.5999755859375</ele>
        <time>2026-08-21T13:27:52.000Z</time>
        <extensions>
          <ns3:TrackPointExtension>
            <ns3:hr>143</ns3:hr>
            <ns3:cad>0</ns3:cad>
          </ns3:TrackPointExtension>
        </extensions>
      </trkpt>
      <trkpt lat="45.29824110679328441619873046875" lon="-70.81746264360845088958740234375">
        <ele>1012.5999755859375</ele>
        <time>2026-08-21T13:27:53.000Z</time>
        <extensions>
          <ns3:TrackPointExtension>
            <ns3:hr>143</ns3:hr>
            <ns3:cad>51</ns3:cad>
          </ns3:TrackPointExtension>
        </extensions>
      </trkpt>
      <trkpt lat="45.29824898578226566314697265625" lon="-70.8174732886254787445068359375">
        <ele>1012.79998779296875</ele>
        <time>2026-08-21T13:27:54.000Z</time>
        <extensions>
          <ns3:TrackPointExtension>
            <ns3:hr>143</ns3:hr>
            <ns3:cad>50</ns3:cad>
          </ns3:TrackPointExtension>
        </extensions>
      </trkpt>
      <trkpt lat="45.29826155863702297210693359375" lon="-70.81748225726187229156494140625">
        <ele>1012.79998779296875</ele>
        <time>2026-08-21T13:27:55.000Z</time>
        <extensions>
          <ns3:TrackPointExtension>
            <ns3:hr>142</ns3:hr>
            <ns3:cad>50</ns3:cad>
          </ns3:TrackPointExtension>
        </extensions>
      </trkpt>
      <trkpt lat="45.29827262274920940399169921875" lon="-70.81749089062213897705078125">
        <ele>1013</ele>
        <time>2026-08-21T13:27:56.000Z</time>
        <extensions>
          <ns3:TrackPointExtension>
            <ns3:hr>142</ns3:hr>
            <ns3:cad>51</ns3:cad>
          </ns3:TrackPointExtension>
        </extensions>
      </trkpt>
      <trkpt lat="45.2982889674603939056396484375" lon="-70.81748493947088718414306640625">
        <ele>1013.20001220703125</ele>
        <time>2026-08-21T13:27:57.000Z</time>
        <extensions>
          <ns3:TrackPointExtension>
            <ns3:hr>141</ns3:hr>
            <ns3:cad>51</ns3:cad>
          </ns3:TrackPointExtension>
        </extensions>
      </trkpt>
      <trkpt lat="45.29830162413418292999267578125" lon="-70.8174763061106204986572265625">
        <ele>1013.20001220703125</ele>
        <time>2026-08-21T13:27:58.000Z</time>
        <extensions>
          <ns3:TrackPointExtension>
            <ns3:hr>141</ns3:hr>
            <ns3:cad>50</ns3:cad>
          </ns3:TrackPointExtension>
        </extensions>
      </trkpt>
      <trkpt lat="45.29831520281732082366943359375" lon="-70.8174773119390010833740234375">
        <ele>1013.20001220703125</ele>
        <time>2026-08-21T13:27:59.000Z</time>
        <extensions>
          <ns3:TrackPointExtension>
            <ns3:hr>140</ns3:hr>
            <ns3:cad>50</ns3:cad>
          </ns3:TrackPointExtension>
        </extensions>
      </trkpt>
      <trkpt lat="45.2983235009014606475830078125" lon="-70.81747991032898426055908203125">
        <ele>1013.20001220703125</ele>
        <time>2026-08-21T13:28:00.000Z</time>
        <extensions>
          <ns3:TrackPointExtension>
            <ns3:hr>139</ns3:hr>
            <ns3:cad>50</ns3:cad>
          </ns3:TrackPointExtension>
        </extensions>
      </trkpt>
      <trkpt lat="45.298337750136852264404296875" lon="-70.81748493947088718414306640625">
        <ele>1013.20001220703125</ele>
        <time>2026-08-21T13:28:01.000Z</time>
        <extensions>
          <ns3:TrackPointExtension>
            <ns3:hr>139</ns3:hr>
            <ns3:cad>51</ns3:cad>
          </ns3:TrackPointExtension>
        </extensions>
      </trkpt>
      <trkpt lat="45.29835074208676815032958984375" lon="-70.8174873702228069305419921875">
        <ele>1013</ele>
        <time>2026-08-21T13:28:02.000Z</time>
        <extensions>
          <ns3:TrackPointExtension>
            <ns3:hr>140</ns3:hr>
            <ns3:cad>51</ns3:cad>
          </ns3:TrackPointExtension>
        </extensions>
      </trkpt>
      <trkpt lat="45.29836381785571575164794921875" lon="-70.81748778931796550750732421875">
        <ele>1013</ele>
        <time>2026-08-21T13:28:03.000Z</time>
        <extensions>
          <ns3:TrackPointExtension>
            <ns3:hr>140</ns3:hr>
            <ns3:cad>51</ns3:cad>
          </ns3:TrackPointExtension>
        </extensions>
      </trkpt>
      <trkpt lat="45.2983804978430271148681640625" lon="-70.8174813352525234222412109375">
        <ele>1012.79998779296875</ele>
        <time>2026-08-21T13:28:04.000Z</time>
        <extensions>
          <ns3:TrackPointExtension>
            <ns3:hr>140</ns3:hr>
            <ns3:cad>51</ns3:cad>
          </ns3:TrackPointExtension>
        </extensions>
      </trkpt>
      <trkpt lat="45.2983929030597209930419921875" lon="-70.8174836821854114532470703125">
        <ele>1012.5999755859375</ele>
        <time>2026-08-21T13:28:05.000Z</time>
        <extensions>
          <ns3:TrackPointExtension>
            <ns3:hr>140</ns3:hr>
            <ns3:cad>51</ns3:cad>
          </ns3:TrackPointExtension>
        </extensions>
      </trkpt>
      <trkpt lat="45.2984089963138103485107421875" lon="-70.81749164499342441558837890625">
        <ele>1012.4000244140625</ele>
        <time>2026-08-21T13:28:06.000Z</time>
        <extensions>
          <ns3:TrackPointExtension>
            <ns3:hr>139</ns3:hr>
            <ns3:cad>51</ns3:cad>
          </ns3:TrackPointExtension>
        </extensions>
      </trkpt>
      <trkpt lat="45.2984225749969482421875" lon="-70.81750086508691310882568359375">
        <ele>1012.20001220703125</ele>
        <time>2026-08-21T13:28:07.000Z</time>
        <extensions>
          <ns3:TrackPointExtension>
            <ns3:hr>140</ns3:hr>
            <ns3:cad>57</ns3:cad>
          </ns3:TrackPointExtension>
        </extensions>
      </trkpt>
      <trkpt lat="45.298435650765895843505859375" lon="-70.8175098337233066558837890625">
        <ele>1012</ele>
        <time>2026-08-21T13:28:08.000Z</time>
        <extensions>
          <ns3:TrackPointExtension>
            <ns3:hr>140</ns3:hr>
            <ns3:cad>57</ns3:cad>
          </ns3:TrackPointExtension>
        </extensions>
      </trkpt>
      <trkpt lat="45.2984561026096343994140625" lon="-70.81752483732998371124267578125">
        <ele>1011.79998779296875</ele>
        <time>2026-08-21T13:28:09.000Z</time>
        <extensions>
          <ns3:TrackPointExtension>
            <ns3:hr>140</ns3:hr>
            <ns3:cad>57</ns3:cad>
          </ns3:TrackPointExtension>
        </extensions>
      </trkpt>
      <trkpt lat="45.298475883901119232177734375" lon="-70.817523412406444549560546875">
        <ele>1011.79998779296875</ele>
        <time>2026-08-21T13:28:10.000Z</time>
        <extensions>
          <ns3:TrackPointExtension>
            <ns3:hr>139</ns3:hr>
            <ns3:cad>64</ns3:cad>
          </ns3:TrackPointExtension>
        </extensions>
      </trkpt>
      <trkpt lat="45.298489630222320556640625" lon="-70.81752785481512546539306640625">
        <ele>1011.79998779296875</ele>
        <time>2026-08-21T13:28:11.000Z</time>
        <extensions>
          <ns3:TrackPointExtension>
            <ns3:hr>140</ns3:hr>
            <ns3:cad>64</ns3:cad>
          </ns3:TrackPointExtension>
        </extensions>
      </trkpt>
      <trkpt lat="45.29850639402866363525390625" lon="-70.81753942184150218963623046875">
        <ele>1011.5999755859375</ele>
        <time>2026-08-21T13:28:12.000Z</time>
        <extensions>
          <ns3:TrackPointExtension>
            <ns3:hr>140</ns3:hr>
            <ns3:cad>64</ns3:cad>
          </ns3:TrackPointExtension>
        </extensions>
      </trkpt>
      <trkpt lat="45.29852424748241901397705078125" lon="-70.8175490610301494598388671875">
        <ele>1011.5999755859375</ele>
        <time>2026-08-21T13:28:13.000Z</time>
        <extensions>
          <ns3:TrackPointExtension>
            <ns3:hr>139</ns3:hr>
            <ns3:cad>64</ns3:cad>
          </ns3:TrackPointExtension>
        </extensions>
      </trkpt>
      <trkpt lat="45.298538915812969207763671875" lon="-70.81755400635302066802978515625">
        <ele>1011.5999755859375</ele>
        <time>2026-08-21T13:28:14.000Z</time>
        <extensions>
          <ns3:TrackPointExtension>
            <ns3:hr>138</ns3:hr>
            <ns3:cad>64</ns3:cad>
          </ns3:TrackPointExtension>
        </extensions>
      </trkpt>
      <trkpt lat="45.29855475760996341705322265625" lon="-70.81755501218140125274658203125">
        <ele>1011.5999755859375</ele>
        <time>2026-08-21T13:28:15.000Z</time>
        <extensions>
          <ns3:TrackPointExtension>
            <ns3:hr>138</ns3:hr>
            <ns3:cad>64</ns3:cad>
          </ns3:TrackPointExtension>
        </extensions>
      </trkpt>
      <trkpt lat="45.29856699518859386444091796875" lon="-70.81756305880844593048095703125">
        <ele>1011.5999755859375</ele>
        <time>2026-08-21T13:28:16.000Z</time>
        <extensions>
          <ns3:TrackPointExtension>
            <ns3:hr>137</ns3:hr>
            <ns3:cad>64</ns3:cad>
          </ns3:TrackPointExtension>
        </extensions>
      </trkpt>
      <trkpt lat="45.29857822693884372711181640625" lon="-70.817573703825473785400390625">
        <ele>1011.4000244140625</ele>
        <time>2026-08-21T13:28:17.000Z</time>
        <extensions>
          <ns3:TrackPointExtension>
            <ns3:hr>137</ns3:hr>
            <ns3:cad>64</ns3:cad>
          </ns3:TrackPointExtension>
        </extensions>
      </trkpt>
      <trkpt lat="45.2985920570790767669677734375" lon="-70.81758351065218448638916015625">
        <ele>1011.4000244140625</ele>
        <time>2026-08-21T13:28:18.000Z</time>
        <extensions>
          <ns3:TrackPointExtension>
            <ns3:hr>137</ns3:hr>
            <ns3:cad>64</ns3:cad>
          </ns3:TrackPointExtension>
        </extensions>
      </trkpt>
      <trkpt lat="45.29860739596188068389892578125" lon="-70.81758753396570682525634765625">
        <ele>1011.4000244140625</ele>
        <time>2026-08-21T13:28:19.000Z</time>
        <extensions>
          <ns3:TrackPointExtension>
            <ns3:hr>137</ns3:hr>
            <ns3:cad>0</ns3:cad>
          </ns3:TrackPointExtension>
        </extensions>
      </trkpt>
      <trkpt lat="45.2986128441989421844482421875" lon="-70.817597843706607818603515625">
        <ele>1011.20001220703125</ele>
        <time>2026-08-21T13:28:20.000Z</time>
        <extensions>
          <ns3:TrackPointExtension>
            <ns3:hr>138</ns3:hr>
            <ns3:cad>0</ns3:cad>
          </ns3:TrackPointExtension>
        </extensions>
      </trkpt>
      <trkpt lat="45.2986178733408451080322265625" lon="-70.817603878676891326904296875">
        <ele>1011</ele>
        <time>2026-08-21T13:28:21.000Z</time>
        <extensions>
          <ns3:TrackPointExtension>
            <ns3:hr>138</ns3:hr>
            <ns3:cad>0</ns3:cad>
          </ns3:TrackPointExtension>
        </extensions>
      </trkpt>
      <trkpt lat="45.2986272610723972320556640625" lon="-70.81761050038039684295654296875">
        <ele>1011</ele>
        <time>2026-08-21T13:28:22.000Z</time>
        <extensions>
          <ns3:TrackPointExtension>
            <ns3:hr>137</ns3:hr>
            <ns3:cad>0</ns3:cad>
          </ns3:TrackPointExtension>
        </extensions>
      </trkpt>
      <trkpt lat="45.298634134232997894287109375" lon="-70.81761687062680721282958984375">
        <ele>1010.79998779296875</ele>
        <time>2026-08-21T13:28:23.000Z</time>
        <extensions>
          <ns3:TrackPointExtension>
            <ns3:hr>137</ns3:hr>
            <ns3:cad>0</ns3:cad>
          </ns3:TrackPointExtension>
        </extensions>
      </trkpt>
      <trkpt lat="45.29864192940294742584228515625" lon="-70.81762039102613925933837890625">
        <ele>1010.5999755859375</ele>
        <time>2026-08-21T13:28:24.000Z</time>
        <extensions>
          <ns3:TrackPointExtension>
            <ns3:hr>137</ns3:hr>
            <ns3:cad>59</ns3:cad>
          </ns3:TrackPointExtension>
        </extensions>
      </trkpt>
      <trkpt lat="45.2986465394496917724609375" lon="-70.81762474961578845977783203125">
        <ele>1010.4000244140625</ele>
        <time>2026-08-21T13:28:25.000Z</time>
        <extensions>
          <ns3:TrackPointExtension>
            <ns3:hr>138</ns3:hr>
            <ns3:cad>58</ns3:cad>
          </ns3:TrackPointExtension>
        </extensions>
      </trkpt>
      <trkpt lat="45.29865098185837268829345703125" lon="-70.81763296388089656829833984375">
        <ele>1010.20001220703125</ele>
        <time>2026-08-21T13:28:26.000Z</time>
        <extensions>
          <ns3:TrackPointExtension>
            <ns3:hr>138</ns3:hr>
            <ns3:cad>58</ns3:cad>
          </ns3:TrackPointExtension>
        </extensions>
      </trkpt>
      <trkpt lat="45.29865148477256298065185546875" lon="-70.81763975322246551513671875">
        <ele>1010</ele>
        <time>2026-08-21T13:28:27.000Z</time>
        <extensions>
          <ns3:TrackPointExtension>
            <ns3:hr>138</ns3:hr>
            <ns3:cad>58</ns3:cad>
          </ns3:TrackPointExtension>
        </extensions>
      </trkpt>
      <trkpt lat="45.2986527420580387115478515625" lon="-70.8176472969353199005126953125">
        <ele>1009.79998779296875</ele>
        <time>2026-08-21T13:28:28.000Z</time>
        <extensions>
          <ns3:TrackPointExtension>
            <ns3:hr>137</ns3:hr>
            <ns3:cad>58</ns3:cad>
          </ns3:TrackPointExtension>
        </extensions>
      </trkpt>
      <trkpt lat="45.2986514009535312652587890625" lon="-70.81765048205852508544921875">
        <ele>1009.5999755859375</ele>
        <time>2026-08-21T13:28:29.000Z</time>
        <extensions>
          <ns3:TrackPointExtension>
            <ns3:hr>137</ns3:hr>
            <ns3:cad>52</ns3:cad>
          </ns3:TrackPointExtension>
        </extensions>
      </trkpt>
      <trkpt lat="45.2986446954309940338134765625" lon="-70.81764721311628818511962890625">
        <ele>1009.5999755859375</ele>
        <time>2026-08-21T13:28:30.000Z</time>
        <extensions>
          <ns3:TrackPointExtension>
            <ns3:hr>136</ns3:hr>
            <ns3:cad>52</ns3:cad>
          </ns3:TrackPointExtension>
        </extensions>
      </trkpt>
      <trkpt lat="45.298641510307788848876953125" lon="-70.81765006296336650848388671875">
        <ele>1009.4000244140625</ele>
        <time>2026-08-21T13:28:31.000Z</time>
        <extensions>
          <ns3:TrackPointExtension>
            <ns3:hr>136</ns3:hr>
            <ns3:cad>0</ns3:cad>
          </ns3:TrackPointExtension>
        </extensions>
      </trkpt>
      <trkpt lat="45.29863782227039337158203125" lon="-70.81765492446720600128173828125">
        <ele>1009.4000244140625</ele>
        <time>2026-08-21T13:28:32.000Z</time>
        <extensions>
          <ns3:TrackPointExtension>
            <ns3:hr>135</ns3:hr>
            <ns3:cad>0</ns3:cad>
          </ns3:TrackPointExtension>
        </extensions>
      </trkpt>
      <trkpt lat="45.29863488860428333282470703125" lon="-70.8176714368164539337158203125">
        <ele>1009.20001220703125</ele>
        <time>2026-08-21T13:28:33.000Z</time>
        <extensions>
          <ns3:TrackPointExtension>
            <ns3:hr>135</ns3:hr>
            <ns3:cad>0</ns3:cad>
          </ns3:TrackPointExtension>
        </extensions>
      </trkpt>
      <trkpt lat="45.2986423484981060028076171875" lon="-70.81767034716904163360595703125">
        <ele>1009</ele>
        <time>2026-08-21T13:28:34.000Z</time>
        <extensions>
          <ns3:TrackPointExtension>
            <ns3:hr>134</ns3:hr>
            <ns3:cad>48</ns3:cad>
          </ns3:TrackPointExtension>
        </extensions>
      </trkpt>
      <trkpt lat="45.29864511452615261077880859375" lon="-70.8176751248538494110107421875">
        <ele>1008.79998779296875</ele>
        <time>2026-08-21T13:28:35.000Z</time>
        <extensions>
          <ns3:TrackPointExtension>
            <ns3:hr>133</ns3:hr>
            <ns3:cad>48</ns3:cad>
          </ns3:TrackPointExtension>
        </extensions>
      </trkpt>
      <trkpt lat="45.2986366488039493560791015625" lon="-70.81767420284450054168701171875">
        <ele>1008.4000244140625</ele>
        <time>2026-08-21T13:28:36.000Z</time>
        <extensions>
          <ns3:TrackPointExtension>
            <ns3:hr>133</ns3:hr>
            <ns3:cad>48</ns3:cad>
          </ns3:TrackPointExtension>
        </extensions>
      </trkpt>
      <trkpt lat="45.2986343018710613250732421875" lon="-70.8176818303763866424560546875">
        <ele>1008</ele>
        <time>2026-08-21T13:28:37.000Z</time>
        <extensions>
          <ns3:TrackPointExtension>
            <ns3:hr>133</ns3:hr>
            <ns3:cad>0</ns3:cad>
          </ns3:TrackPointExtension>
        </extensions>
      </trkpt>
      <trkpt lat="45.2986304461956024169921875" lon="-70.817685686051845550537109375">
        <ele>1007.5999755859375</ele>
        <time>2026-08-21T13:28:38.000Z</time>
        <extensions>
          <ns3:TrackPointExtension>
            <ns3:hr>132</ns3:hr>
            <ns3:cad>0</ns3:cad>
          </ns3:TrackPointExtension>
        </extensions>
      </trkpt>
      <trkpt lat="45.29862633906304836273193359375" lon="-70.81769649870693683624267578125">
        <ele>1007.20001220703125</ele>
        <time>2026-08-21T13:28:39.000Z</time>
        <extensions>
          <ns3:TrackPointExtension>
            <ns3:hr>132</ns3:hr>
            <ns3:cad>0</ns3:cad>
          </ns3:TrackPointExtension>
        </extensions>
      </trkpt>
      <trkpt lat="45.29862801544368267059326171875" lon="-70.8177113346755504608154296875">
        <ele>1007</ele>
        <time>2026-08-21T13:28:40.000Z</time>
        <extensions>
          <ns3:TrackPointExtension>
            <ns3:hr>133</ns3:hr>
            <ns3:cad>0</ns3:cad>
          </ns3:TrackPointExtension>
        </extensions>
      </trkpt>
      <trkpt lat="45.29862843453884124755859375" lon="-70.81773069687187671661376953125">
        <ele>1006.5999755859375</ele>
        <time>2026-08-21T13:28:41.000Z</time>
        <extensions>
          <ns3:TrackPointExtension>
            <ns3:hr>133</ns3:hr>
            <ns3:cad>0</ns3:cad>
          </ns3:TrackPointExtension>
        </extensions>
      </trkpt>
      <trkpt lat="45.2986359782516956329345703125" lon="-70.8177472092211246490478515625">
        <ele>1006.20001220703125</ele>
        <time>2026-08-21T13:28:42.000Z</time>
        <extensions>
          <ns3:TrackPointExtension>
            <ns3:hr>132</ns3:hr>
            <ns3:cad>0</ns3:cad>
          </ns3:TrackPointExtension>
        </extensions>
      </trkpt>
      <trkpt lat="45.2986423484981060028076171875" lon="-70.8177562616765499114990234375">
        <ele>1006</ele>
        <time>2026-08-21T13:28:43.000Z</time>
        <extensions>
          <ns3:TrackPointExtension>
            <ns3:hr>132</ns3:hr>
            <ns3:cad>64</ns3:cad>
          </ns3:TrackPointExtension>
        </extensions>
      </trkpt>
      <trkpt lat="45.298641510307788848876953125" lon="-70.81776288338005542755126953125">
        <ele>1005.79998779296875</ele>
        <time>2026-08-21T13:28:44.000Z</time>
        <extensions>
          <ns3:TrackPointExtension>
            <ns3:hr>131</ns3:hr>
            <ns3:cad>43</ns3:cad>
          </ns3:TrackPointExtension>
        </extensions>
      </trkpt>
      <trkpt lat="45.29863975010812282562255859375" lon="-70.81777998246252536773681640625">
        <ele>1005.4000244140625</ele>
        <time>2026-08-21T13:28:45.000Z</time>
        <extensions>
          <ns3:TrackPointExtension>
            <ns3:hr>131</ns3:hr>
            <ns3:cad>43</ns3:cad>
          </ns3:TrackPointExtension>
        </extensions>
      </trkpt>
      <trkpt lat="45.2986379899084568023681640625" lon="-70.81779456697404384613037109375">
        <ele>1005.20001220703125</ele>
        <time>2026-08-21T13:28:46.000Z</time>
        <extensions>
          <ns3:TrackPointExtension>
            <ns3:hr>131</ns3:hr>
            <ns3:cad>0</ns3:cad>
          </ns3:TrackPointExtension>
        </extensions>
      </trkpt>
      <trkpt lat="45.298630110919475555419921875" lon="-70.817808397114276885986328125">
        <ele>1004.79998779296875</ele>
        <time>2026-08-21T13:28:47.000Z</time>
        <extensions>
          <ns3:TrackPointExtension>
            <ns3:hr>132</ns3:hr>
            <ns3:cad>0</ns3:cad>
          </ns3:TrackPointExtension>
        </extensions>
      </trkpt>
      <trkpt lat="45.29862063936889171600341796875" lon="-70.8178266696631908416748046875">
        <ele>1004.4000244140625</ele>
        <time>2026-08-21T13:28:48.000Z</time>
        <extensions>
          <ns3:TrackPointExtension>
            <ns3:hr>131</ns3:hr>
            <ns3:cad>0</ns3:cad>
          </ns3:TrackPointExtension>
        </extensions>
      </trkpt>
      <trkpt lat="45.29861846007406711578369140625" lon="-70.817851312458515167236328125">
        <ele>1004.20001220703125</ele>
        <time>2026-08-21T13:28:49.000Z</time>
        <extensions>
          <ns3:TrackPointExtension>
            <ns3:hr>131</ns3:hr>
            <ns3:cad>0</ns3:cad>
          </ns3:TrackPointExtension>
        </extensions>
      </trkpt>
      <trkpt lat="45.29861913062632083892822265625" lon="-70.81787151284515857696533203125">
        <ele>1004</ele>
        <time>2026-08-21T13:28:50.000Z</time>
        <extensions>
          <ns3:TrackPointExtension>
            <ns3:hr>132</ns3:hr>
            <ns3:cad>0</ns3:cad>
          </ns3:TrackPointExtension>
        </extensions>
      </trkpt>
      <trkpt lat="45.29862047173082828521728515625" lon="-70.8178965747356414794921875">
        <ele>1004</ele>
        <time>2026-08-21T13:28:51.000Z</time>
        <extensions>
          <ns3:TrackPointExtension>
            <ns3:hr>131</ns3:hr>
            <ns3:cad>0</ns3:cad>
          </ns3:TrackPointExtension>
        </extensions>
      </trkpt>
      <trkpt lat="45.29862449504435062408447265625" lon="-70.81791778095066547393798828125">
        <ele>1003.79998779296875</ele>
        <time>2026-08-21T13:28:52.000Z</time>
        <extensions>
          <ns3:TrackPointExtension>
            <ns3:hr>132</ns3:hr>
            <ns3:cad>0</ns3:cad>
          </ns3:TrackPointExtension>
        </extensions>
      </trkpt>
      <trkpt lat="45.29862751252949237823486328125" lon="-70.8179346285760402679443359375">
        <ele>1003.5999755859375</ele>
        <time>2026-08-21T13:28:53.000Z</time>
        <extensions>
          <ns3:TrackPointExtension>
            <ns3:hr>132</ns3:hr>
            <ns3:cad>77</ns3:cad>
          </ns3:TrackPointExtension>
        </extensions>
      </trkpt>
      <trkpt lat="45.298626758158206939697265625" lon="-70.817949883639812469482421875">
        <ele>1003.4000244140625</ele>
        <time>2026-08-21T13:28:54.000Z</time>
        <extensions>
          <ns3:TrackPointExtension>
            <ns3:hr>132</ns3:hr>
            <ns3:cad>77</ns3:cad>
          </ns3:TrackPointExtension>
        </extensions>
      </trkpt>
      <trkpt lat="45.29863421805202960968017578125" lon="-70.8179792203009128570556640625">
        <ele>1003.20001220703125</ele>
        <time>2026-08-21T13:28:55.000Z</time>
        <extensions>
          <ns3:TrackPointExtension>
            <ns3:hr>131</ns3:hr>
            <ns3:cad>77</ns3:cad>
          </ns3:TrackPointExtension>
        </extensions>
      </trkpt>
      <trkpt lat="45.29863773845136165618896484375" lon="-70.817997492849826812744140625">
        <ele>1003</ele>
        <time>2026-08-21T13:28:56.000Z</time>
        <extensions>
          <ns3:TrackPointExtension>
            <ns3:hr>131</ns3:hr>
            <ns3:cad>77</ns3:cad>
          </ns3:TrackPointExtension>
        </extensions>
      </trkpt>
      <trkpt lat="45.2986306138336658477783203125" lon="-70.8180224709212779998779296875">
        <ele>1003</ele>
        <time>2026-08-21T13:28:57.000Z</time>
        <extensions>
          <ns3:TrackPointExtension>
            <ns3:hr>131</ns3:hr>
            <ns3:cad>77</ns3:cad>
          </ns3:TrackPointExtension>
        </extensions>
      </trkpt>
      <trkpt lat="45.29862550087273120880126953125" lon="-70.81804317422211170196533203125">
        <ele>1002.79998779296875</ele>
        <time>2026-08-21T13:28:58.000Z</time>
        <extensions>
          <ns3:TrackPointExtension>
            <ns3:hr>131</ns3:hr>
            <ns3:cad>0</ns3:cad>
          </ns3:TrackPointExtension>
        </extensions>
      </trkpt>
      <trkpt lat="45.29862550087273120880126953125" lon="-70.8180647157132625579833984375">
        <ele>1002.79998779296875</ele>
        <time>2026-08-21T13:28:59.000Z</time>
        <extensions>
          <ns3:TrackPointExtension>
            <ns3:hr>131</ns3:hr>
            <ns3:cad>0</ns3:cad>
          </ns3:TrackPointExtension>
        </extensions>
      </trkpt>
      <trkpt lat="45.29863069765269756317138671875" lon="-70.8180787973105907440185546875">
        <ele>1002.79998779296875</ele>
        <time>2026-08-21T13:29:00.000Z</time>
        <extensions>
          <ns3:TrackPointExtension>
            <ns3:hr>131</ns3:hr>
            <ns3:cad>61</ns3:cad>
          </ns3:TrackPointExtension>
        </extensions>
      </trkpt>
      <trkpt lat="45.29863958247005939483642578125" lon="-70.81808994524180889129638671875">
        <ele>1002.79998779296875</ele>
        <time>2026-08-21T13:29:01.000Z</time>
        <extensions>
          <ns3:TrackPointExtension>
            <ns3:hr>130</ns3:hr>
            <ns3:cad>61</ns3:cad>
          </ns3:TrackPointExtension>
        </extensions>
      </trkpt>
      <trkpt lat="45.2986463718116283416748046875" lon="-70.81810654141008853912353515625">
        <ele>1002.79998779296875</ele>
        <time>2026-08-21T13:29:02.000Z</time>
        <extensions>
          <ns3:TrackPointExtension>
            <ns3:hr>130</ns3:hr>
            <ns3:cad>61</ns3:cad>
          </ns3:TrackPointExtension>
        </extensions>
      </trkpt>
      <trkpt lat="45.29864746145904064178466796875" lon="-70.81812816672027111053466796875">
        <ele>1002.79998779296875</ele>
        <time>2026-08-21T13:29:03.000Z</time>
        <extensions>
          <ns3:TrackPointExtension>
            <ns3:hr>129</ns3:hr>
            <ns3:cad>61</ns3:cad>
          </ns3:TrackPointExtension>
        </extensions>
      </trkpt>
      <trkpt lat="45.2986540831625461578369140625" lon="-70.81814660690724849700927734375">
        <ele>1003</ele>
        <time>2026-08-21T13:29:04.000Z</time>
        <extensions>
          <ns3:TrackPointExtension>
            <ns3:hr>129</ns3:hr>
            <ns3:cad>61</ns3:cad>
          </ns3:TrackPointExtension>
        </extensions>
      </trkpt>
      <trkpt lat="45.29865659773349761962890625" lon="-70.81816546618938446044921875">
        <ele>1003.20001220703125</ele>
        <time>2026-08-21T13:29:05.000Z</time>
        <extensions>
          <ns3:TrackPointExtension>
            <ns3:hr>129</ns3:hr>
            <ns3:cad>0</ns3:cad>
          </ns3:TrackPointExtension>
        </extensions>
      </trkpt>
      <trkpt lat="45.298657603561878204345703125" lon="-70.818176530301570892333984375">
        <ele>1003.4000244140625</ele>
        <time>2026-08-21T13:29:06.000Z</time>
        <extensions>
          <ns3:TrackPointExtension>
            <ns3:hr>130</ns3:hr>
            <ns3:cad>0</ns3:cad>
          </ns3:TrackPointExtension>
        </extensions>
      </trkpt>
      <trkpt lat="45.2986584417521953582763671875" lon="-70.8181996643543243408203125">
        <ele>1003.4000244140625</ele>
        <time>2026-08-21T13:29:07.000Z</time>
        <extensions>
          <ns3:TrackPointExtension>
            <ns3:hr>130</ns3:hr>
            <ns3:cad>0</ns3:cad>
          </ns3:TrackPointExtension>
        </extensions>
      </trkpt>
      <trkpt lat="45.29866154305636882781982421875" lon="-70.818214081227779388427734375">
        <ele>1003.4000244140625</ele>
        <time>2026-08-21T13:29:08.000Z</time>
        <extensions>
          <ns3:TrackPointExtension>
            <ns3:hr>130</ns3:hr>
            <ns3:cad>0</ns3:cad>
          </ns3:TrackPointExtension>
        </extensions>
      </trkpt>
      <trkpt lat="45.298664309084415435791015625" lon="-70.8182326890528202056884765625">
        <ele>1003.4000244140625</ele>
        <time>2026-08-21T13:29:09.000Z</time>
        <extensions>
          <ns3:TrackPointExtension>
            <ns3:hr>130</ns3:hr>
            <ns3:cad>0</ns3:cad>
          </ns3:TrackPointExtension>
        </extensions>
      </trkpt>
      <trkpt lat="45.29866355471312999725341796875" lon="-70.8182574994862079620361328125">
        <ele>1003.4000244140625</ele>
        <time>2026-08-21T13:29:10.000Z</time>
        <extensions>
          <ns3:TrackPointExtension>
            <ns3:hr>131</ns3:hr>
            <ns3:cad>0</ns3:cad>
          </ns3:TrackPointExtension>
        </extensions>
      </trkpt>
      <trkpt lat="45.29866875149309635162353515625" lon="-70.8182774484157562255859375">
        <ele>1003.4000244140625</ele>
        <time>2026-08-21T13:29:11.000Z</time>
        <extensions>
          <ns3:TrackPointExtension>
            <ns3:hr>131</ns3:hr>
            <ns3:cad>0</ns3:cad>
          </ns3:TrackPointExtension>
        </extensions>
      </trkpt>
      <trkpt lat="45.29866757802665233612060546875" lon="-70.8182940445840358734130859375">
        <ele>1003.5999755859375</ele>
        <time>2026-08-21T13:29:12.000Z</time>
        <extensions>
          <ns3:TrackPointExtension>
            <ns3:hr>131</ns3:hr>
            <ns3:cad>0</ns3:cad>
          </ns3:TrackPointExtension>
        </extensions>
      </trkpt>
      <trkpt lat="45.2986634708940982818603515625" lon="-70.8183121494948863983154296875">
        <ele>1003.5999755859375</ele>
        <time>2026-08-21T13:29:13.000Z</time>
        <extensions>
          <ns3:TrackPointExtension>
            <ns3:hr>132</ns3:hr>
            <ns3:cad>0</ns3:cad>
          </ns3:TrackPointExtension>
        </extensions>
      </trkpt>
      <trkpt lat="45.29866422526538372039794921875" lon="-70.81832908093929290771484375">
        <ele>1003.79998779296875</ele>
        <time>2026-08-21T13:29:14.000Z</time>
        <extensions>
          <ns3:TrackPointExtension>
            <ns3:hr>132</ns3:hr>
            <ns3:cad>0</ns3:cad>
          </ns3:TrackPointExtension>
        </extensions>
      </trkpt>
      <trkpt lat="45.29866875149309635162353515625" lon="-70.818346180021762847900390625">
        <ele>1003.79998779296875</ele>
        <time>2026-08-21T13:29:15.000Z</time>
        <extensions>
          <ns3:TrackPointExtension>
            <ns3:hr>132</ns3:hr>
            <ns3:cad>0</ns3:cad>
          </ns3:TrackPointExtension>
        </extensions>
      </trkpt>
      <trkpt lat="45.29867009259760379791259765625" lon="-70.81835866905748844146728515625">
        <ele>1003.79998779296875</ele>
        <time>2026-08-21T13:29:16.000Z</time>
        <extensions>
          <ns3:TrackPointExtension>
            <ns3:hr>132</ns3:hr>
            <ns3:cad>0</ns3:cad>
          </ns3:TrackPointExtension>
        </extensions>
      </trkpt>
      <trkpt lat="45.29866791330277919769287109375" lon="-70.81837057135999202728271484375">
        <ele>1004</ele>
        <time>2026-08-21T13:29:17.000Z</time>
        <extensions>
          <ns3:TrackPointExtension>
            <ns3:hr>132</ns3:hr>
            <ns3:cad>0</ns3:cad>
          </ns3:TrackPointExtension>
        </extensions>
      </trkpt>
      <trkpt lat="45.298670344054698944091796875" lon="-70.81838917918503284454345703125">
        <ele>1004</ele>
        <time>2026-08-21T13:29:18.000Z</time>
        <extensions>
          <ns3:TrackPointExtension>
            <ns3:hr>132</ns3:hr>
            <ns3:cad>0</ns3:cad>
          </ns3:TrackPointExtension>
        </extensions>
      </trkpt>
      <trkpt lat="45.298672020435333251953125" lon="-70.81840242259204387664794921875">
        <ele>1004</ele>
        <time>2026-08-21T13:29:19.000Z</time>
        <extensions>
          <ns3:TrackPointExtension>
            <ns3:hr>132</ns3:hr>
            <ns3:cad>0</ns3:cad>
          </ns3:TrackPointExtension>
        </extensions>
      </trkpt>
      <trkpt lat="45.29866908676922321319580078125" lon="-70.81841231323778629302978515625">
        <ele>1004</ele>
        <time>2026-08-21T13:29:20.000Z</time>
        <extensions>
          <ns3:TrackPointExtension>
            <ns3:hr>132</ns3:hr>
            <ns3:cad>0</ns3:cad>
          </ns3:TrackPointExtension>
        </extensions>
      </trkpt>
      <trkpt lat="45.29866657219827175140380859375" lon="-70.81842136569321155548095703125">
        <ele>1004</ele>
        <time>2026-08-21T13:29:21.000Z</time>
        <extensions>
          <ns3:TrackPointExtension>
            <ns3:hr>131</ns3:hr>
            <ns3:cad>0</ns3:cad>
          </ns3:TrackPointExtension>
        </extensions>
      </trkpt>
      <trkpt lat="45.2986611239612102508544921875" lon="-70.81843812949955463409423828125">
        <ele>1004</ele>
        <time>2026-08-21T13:29:22.000Z</time>
        <extensions>
          <ns3:TrackPointExtension>
            <ns3:hr>131</ns3:hr>
            <ns3:cad>0</ns3:cad>
          </ns3:TrackPointExtension>
        </extensions>
      </trkpt>
      <trkpt lat="45.2986544184386730194091796875" lon="-70.8184543065726757049560546875">
        <ele>1004.20001220703125</ele>
        <time>2026-08-21T13:29:23.000Z</time>
        <extensions>
          <ns3:TrackPointExtension>
            <ns3:hr>131</ns3:hr>
            <ns3:cad>0</ns3:cad>
          </ns3:TrackPointExtension>
        </extensions>
      </trkpt>
      <trkpt lat="45.298657603561878204345703125" lon="-70.8184623531997203826904296875">
        <ele>1004.20001220703125</ele>
        <time>2026-08-21T13:29:24.000Z</time>
        <extensions>
          <ns3:TrackPointExtension>
            <ns3:hr>132</ns3:hr>
            <ns3:cad>0</ns3:cad>
          </ns3:TrackPointExtension>
        </extensions>
      </trkpt>
      <trkpt lat="45.2986581064760684967041015625" lon="-70.81846076063811779022216796875">
        <ele>1004.4000244140625</ele>
        <time>2026-08-21T13:29:25.000Z</time>
        <extensions>
          <ns3:TrackPointExtension>
            <ns3:hr>131</ns3:hr>
            <ns3:cad>0</ns3:cad>
          </ns3:TrackPointExtension>
        </extensions>
      </trkpt>
      <trkpt lat="45.2986554242670536041259765625" lon="-70.8184643648564815521240234375">
        <ele>1004.4000244140625</ele>
        <time>2026-08-21T13:29:26.000Z</time>
        <extensions>
          <ns3:TrackPointExtension>
            <ns3:hr>132</ns3:hr>
            <ns3:cad>0</ns3:cad>
          </ns3:TrackPointExtension>
        </extensions>
      </trkpt>
      <trkpt lat="45.29865768738090991973876953125" lon="-70.8184714056551456451416015625">
        <ele>1004.5999755859375</ele>
        <time>2026-08-21T13:29:27.000Z</time>
        <extensions>
          <ns3:TrackPointExtension>
            <ns3:hr>132</ns3:hr>
            <ns3:cad>0</ns3:cad>
          </ns3:TrackPointExtension>
        </extensions>
      </trkpt>
      <trkpt lat="45.2986586093902587890625" lon="-70.818475596606731414794921875">
        <ele>1004.5999755859375</ele>
        <time>2026-08-21T13:29:28.000Z</time>
        <extensions>
          <ns3:TrackPointExtension>
            <ns3:hr>132</ns3:hr>
            <ns3:cad>0</ns3:cad>
          </ns3:TrackPointExtension>
        </extensions>
      </trkpt>
      <trkpt lat="45.29866053722798824310302734375" lon="-70.8184786140918731689453125">
        <ele>1004.5999755859375</ele>
        <time>2026-08-21T13:29:29.000Z</time>
        <extensions>
          <ns3:TrackPointExtension>
            <ns3:hr>132</ns3:hr>
            <ns3:cad>0</ns3:cad>
          </ns3:TrackPointExtension>
        </extensions>
      </trkpt>
      <trkpt lat="45.2986607886850833892822265625" lon="-70.818479955196380615234375">
        <ele>1004.5999755859375</ele>
        <time>2026-08-21T13:29:30.000Z</time>
        <extensions>
          <ns3:TrackPointExtension>
            <ns3:hr>132</ns3:hr>
            <ns3:cad>0</ns3:cad>
          </ns3:TrackPointExtension>
        </extensions>
      </trkpt>
      <trkpt lat="45.29865986667573451995849609375" lon="-70.81848171539604663848876953125">
        <ele>1004.5999755859375</ele>
        <time>2026-08-21T13:29:31.000Z</time>
        <extensions>
          <ns3:TrackPointExtension>
            <ns3:hr>132</ns3:hr>
            <ns3:cad>0</ns3:cad>
          </ns3:TrackPointExtension>
        </extensions>
      </trkpt>
      <trkpt lat="45.29865986667573451995849609375" lon="-70.81848171539604663848876953125">
        <ele>1004.5999755859375</ele>
        <time>2026-08-21T13:29:32.000Z</time>
        <extensions>
          <ns3:TrackPointExtension>
            <ns3:hr>132</ns3:hr>
            <ns3:cad>0</ns3:cad>
          </ns3:TrackPointExtension>
        </extensions>
      </trkpt>
      <trkpt lat="45.29865986667573451995849609375" lon="-70.81848171539604663848876953125">
        <ele>1004.5999755859375</ele>
        <time>2026-08-21T13:29:33.000Z</time>
        <extensions>
          <ns3:TrackPointExtension>
            <ns3:hr>132</ns3:hr>
            <ns3:cad>0</ns3:cad>
          </ns3:TrackPointExtension>
        </extensions>
      </trkpt>
      <trkpt lat="45.29865986667573451995849609375" lon="-70.81848171539604663848876953125">
        <ele>1004.5999755859375</ele>
        <time>2026-08-21T13:29:34.000Z</time>
        <extensions>
          <ns3:TrackPointExtension>
            <ns3:hr>131</ns3:hr>
            <ns3:cad>0</ns3:cad>
          </ns3:TrackPointExtension>
        </extensions>
      </trkpt>
      <trkpt lat="45.29865986667573451995849609375" lon="-70.81848171539604663848876953125">
        <ele>1004.5999755859375</ele>
        <time>2026-08-21T13:29:35.000Z</time>
        <extensions>
          <ns3:TrackPointExtension>
            <ns3:hr>132</ns3:hr>
            <ns3:cad>0</ns3:cad>
          </ns3:TrackPointExtension>
        </extensions>
      </trkpt>
      <trkpt lat="45.29865986667573451995849609375" lon="-70.81848171539604663848876953125">
        <ele>1004.5999755859375</ele>
        <time>2026-08-21T13:29:36.000Z</time>
        <extensions>
          <ns3:TrackPointExtension>
            <ns3:hr>132</ns3:hr>
            <ns3:cad>0</ns3:cad>
          </ns3:TrackPointExtension>
        </extensions>
      </trkpt>
      <trkpt lat="45.29865986667573451995849609375" lon="-70.81848171539604663848876953125">
        <ele>1004.5999755859375</ele>
        <time>2026-08-21T13:29:37.000Z</time>
        <extensions>
          <ns3:TrackPointExtension>
            <ns3:hr>132</ns3:hr>
            <ns3:cad>0</ns3:cad>
          </ns3:TrackPointExtension>
        </extensions>
      </trkpt>
      <trkpt lat="45.29865986667573451995849609375" lon="-70.81848171539604663848876953125">
        <ele>1004.5999755859375</ele>
        <time>2026-08-21T13:29:38.000Z</time>
        <extensions>
          <ns3:TrackPointExtension>
            <ns3:hr>132</ns3:hr>
            <ns3:cad>0</ns3:cad>
          </ns3:TrackPointExtension>
        </extensions>
      </trkpt>
      <trkpt lat="45.29865986667573451995849609375" lon="-70.81848171539604663848876953125">
        <ele>1004.5999755859375</ele>
        <time>2026-08-21T13:29:39.000Z</time>
        <extensions>
          <ns3:TrackPointExtension>
            <ns3:hr>132</ns3:hr>
            <ns3:cad>0</ns3:cad>
          </ns3:TrackPointExtension>
        </extensions>
      </trkpt>
      <trkpt lat="45.29865986667573451995849609375" lon="-70.81848171539604663848876953125">
        <ele>1004.5999755859375</ele>
        <time>2026-08-21T13:29:40.000Z</time>
        <extensions>
          <ns3:TrackPointExtension>
            <ns3:hr>132</ns3:hr>
            <ns3:cad>0</ns3:cad>
          </ns3:TrackPointExtension>
        </extensions>
      </trkpt>
      <trkpt lat="45.29865986667573451995849609375" lon="-70.81848171539604663848876953125">
        <ele>1004.5999755859375</ele>
        <time>2026-08-21T13:29:41.000Z</time>
        <extensions>
          <ns3:TrackPointExtension>
            <ns3:hr>131</ns3:hr>
            <ns3:cad>0</ns3:cad>
          </ns3:TrackPointExtension>
        </extensions>
      </trkpt>
      <trkpt lat="45.29865986667573451995849609375" lon="-70.81848171539604663848876953125">
        <ele>1004.5999755859375</ele>
        <time>2026-08-21T13:29:42.000Z</time>
        <extensions>
          <ns3:TrackPointExtension>
            <ns3:hr>130</ns3:hr>
            <ns3:cad>0</ns3:cad>
          </ns3:TrackPointExtension>
        </extensions>
      </trkpt>
      <trkpt lat="45.29865986667573451995849609375" lon="-70.81848171539604663848876953125">
        <ele>1004.5999755859375</ele>
        <time>2026-08-21T13:29:43.000Z</time>
        <extensions>
          <ns3:TrackPointExtension>
            <ns3:hr>129</ns3:hr>
            <ns3:cad>0</ns3:cad>
          </ns3:TrackPointExtension>
        </extensions>
      </trkpt>
      <trkpt lat="45.29865986667573451995849609375" lon="-70.81848171539604663848876953125">
        <ele>1004.5999755859375</ele>
        <time>2026-08-21T13:29:44.000Z</time>
        <extensions>
          <ns3:TrackPointExtension>
            <ns3:hr>129</ns3:hr>
            <ns3:cad>0</ns3:cad>
          </ns3:TrackPointExtension>
        </extensions>
      </trkpt>
      <trkpt lat="45.29865986667573451995849609375" lon="-70.81848171539604663848876953125">
        <ele>1004.5999755859375</ele>
        <time>2026-08-21T13:29:45.000Z</time>
        <extensions>
          <ns3:TrackPointExtension>
            <ns3:hr>130</ns3:hr>
            <ns3:cad>0</ns3:cad>
          </ns3:TrackPointExtension>
        </extensions>
      </trkpt>
      <trkpt lat="45.2986654825508594512939453125" lon="-70.8184794522821903228759765625">
        <ele>1004.5999755859375</ele>
        <time>2026-08-21T13:29:46.000Z</time>
        <extensions>
          <ns3:TrackPointExtension>
            <ns3:hr>129</ns3:hr>
            <ns3:cad>0</ns3:cad>
          </ns3:TrackPointExtension>
        </extensions>
      </trkpt>
      <trkpt lat="45.2986587770283222198486328125" lon="-70.81848825328052043914794921875">
        <ele>1004.5999755859375</ele>
        <time>2026-08-21T13:29:47.000Z</time>
        <extensions>
          <ns3:TrackPointExtension>
            <ns3:hr>128</ns3:hr>
            <ns3:cad>0</ns3:cad>
          </ns3:TrackPointExtension>
        </extensions>
      </trkpt>
      <trkpt lat="45.29865081422030925750732421875" lon="-70.8185029216110706329345703125">
        <ele>1004.79998779296875</ele>
        <time>2026-08-21T13:29:48.000Z</time>
        <extensions>
          <ns3:TrackPointExtension>
            <ns3:hr>128</ns3:hr>
            <ns3:cad>0</ns3:cad>
          </ns3:TrackPointExtension>
        </extensions>
      </trkpt>
      <trkpt lat="45.2986554242670536041259765625" lon="-70.81850434653460979461669921875">
        <ele>1005</ele>
        <time>2026-08-21T13:29:49.000Z</time>
        <extensions>
          <ns3:TrackPointExtension>
            <ns3:hr>128</ns3:hr>
            <ns3:cad>0</ns3:cad>
          </ns3:TrackPointExtension>
        </extensions>
      </trkpt>
      <trkpt lat="45.2986586093902587890625" lon="-70.8184978924691677093505859375">
        <ele>1005.20001220703125</ele>
        <time>2026-08-21T13:29:50.000Z</time>
        <extensions>
          <ns3:TrackPointExtension>
            <ns3:hr>129</ns3:hr>
            <ns3:cad>0</ns3:cad>
          </ns3:TrackPointExtension>
        </extensions>
      </trkpt>
      <trkpt lat="45.29865986667573451995849609375" lon="-70.81848171539604663848876953125">
        <ele>1005.20001220703125</ele>
        <time>2026-08-21T13:29:51.000Z</time>
        <extensions>
          <ns3:TrackPointExtension>
            <ns3:hr>129</ns3:hr>
            <ns3:cad>0</ns3:cad>
          </ns3:TrackPointExtension>
        </extensions>
      </trkpt>
      <trkpt lat="45.29865986667573451995849609375" lon="-70.81848171539604663848876953125">
        <ele>1005.4000244140625</ele>
        <time>2026-08-21T13:29:52.000Z</time>
        <extensions>
          <ns3:TrackPointExtension>
            <ns3:hr>130</ns3:hr>
            <ns3:cad>0</ns3:cad>
          </ns3:TrackPointExtension>
        </extensions>
      </trkpt>
      <trkpt lat="45.29865986667573451995849609375" lon="-70.81848171539604663848876953125">
        <ele>1005.4000244140625</ele>
        <time>2026-08-21T13:29:53.000Z</time>
        <extensions>
          <ns3:TrackPointExtension>
            <ns3:hr>132</ns3:hr>
            <ns3:cad>0</ns3:cad>
          </ns3:TrackPointExtension>
        </extensions>
      </trkpt>
      <trkpt lat="45.29865986667573451995849609375" lon="-70.81848171539604663848876953125">
        <ele>1005.4000244140625</ele>
        <time>2026-08-21T13:29:54.000Z</time>
        <extensions>
          <ns3:TrackPointExtension>
            <ns3:hr>133</ns3:hr>
            <ns3:cad>0</ns3:cad>
          </ns3:TrackPointExtension>
        </extensions>
      </trkpt>
      <trkpt lat="45.29865986667573451995849609375" lon="-70.81849730573594570159912109375">
        <ele>1005.4000244140625</ele>
        <time>2026-08-21T13:29:55.000Z</time>
        <extensions>
          <ns3:TrackPointExtension>
            <ns3:hr>133</ns3:hr>
            <ns3:cad>0</ns3:cad>
          </ns3:TrackPointExtension>
        </extensions>
      </trkpt>
      <trkpt lat="45.2986626327037811279296875" lon="-70.81850619055330753326416015625">
        <ele>1005.4000244140625</ele>
        <time>2026-08-21T13:29:56.000Z</time>
        <extensions>
          <ns3:TrackPointExtension>
            <ns3:hr>133</ns3:hr>
            <ns3:cad>0</ns3:cad>
          </ns3:TrackPointExtension>
        </extensions>
      </trkpt>
      <trkpt lat="45.29866464436054229736328125" lon="-70.818519182503223419189453125">
        <ele>1005.4000244140625</ele>
        <time>2026-08-21T13:29:57.000Z</time>
        <extensions>
          <ns3:TrackPointExtension>
            <ns3:hr>134</ns3:hr>
            <ns3:cad>0</ns3:cad>
          </ns3:TrackPointExtension>
        </extensions>
      </trkpt>
      <trkpt lat="45.2986678294837474822998046875" lon="-70.81853167153894901275634765625">
        <ele>1005.5999755859375</ele>
        <time>2026-08-21T13:29:58.000Z</time>
        <extensions>
          <ns3:TrackPointExtension>
            <ns3:hr>134</ns3:hr>
            <ns3:cad>0</ns3:cad>
          </ns3:TrackPointExtension>
        </extensions>
      </trkpt>
      <trkpt lat="45.29867042787373065948486328125" lon="-70.8185351081192493438720703125">
        <ele>1005.79998779296875</ele>
        <time>2026-08-21T13:29:59.000Z</time>
        <extensions>
          <ns3:TrackPointExtension>
            <ns3:hr>134</ns3:hr>
            <ns3:cad>0</ns3:cad>
          </ns3:TrackPointExtension>
        </extensions>
      </trkpt>
      <trkpt lat="45.29867260716855525970458984375" lon="-70.818536616861820220947265625">
        <ele>1006</ele>
        <time>2026-08-21T13:30:00.000Z</time>
        <extensions>
          <ns3:TrackPointExtension>
            <ns3:hr>134</ns3:hr>
            <ns3:cad>0</ns3:cad>
          </ns3:TrackPointExtension>
        </extensions>
      </trkpt>
      <trkpt lat="45.29867663048207759857177734375" lon="-70.81853737123310565948486328125">
        <ele>1006.20001220703125</ele>
        <time>2026-08-21T13:30:01.000Z</time>
        <extensions>
          <ns3:TrackPointExtension>
            <ns3:hr>134</ns3:hr>
            <ns3:cad>0</ns3:cad>
          </ns3:TrackPointExtension>
        </extensions>
      </trkpt>
      <trkpt lat="45.298681072890758514404296875" lon="-70.81853502430021762847900390625">
        <ele>1006.4000244140625</ele>
        <time>2026-08-21T13:30:02.000Z</time>
        <extensions>
          <ns3:TrackPointExtension>
            <ns3:hr>133</ns3:hr>
            <ns3:cad>0</ns3:cad>
          </ns3:TrackPointExtension>
        </extensions>
      </trkpt>
      <trkpt lat="45.29868450947105884552001953125" lon="-70.818534605205059051513671875">
        <ele>1006.5999755859375</ele>
        <time>2026-08-21T13:30:03.000Z</time>
        <extensions>
          <ns3:TrackPointExtension>
            <ns3:hr>134</ns3:hr>
            <ns3:cad>0</ns3:cad>
          </ns3:TrackPointExtension>
        </extensions>
      </trkpt>
      <trkpt lat="45.29868450947105884552001953125" lon="-70.8185297437012195587158203125">
        <ele>1006.5999755859375</ele>
        <time>2026-08-21T13:30:04.000Z</time>
        <extensions>
          <ns3:TrackPointExtension>
            <ns3:hr>133</ns3:hr>
            <ns3:cad>0</ns3:cad>
          </ns3:TrackPointExtension>
        </extensions>
      </trkpt>
      <trkpt lat="45.298689119517803192138671875" lon="-70.8185247145593166351318359375">
        <ele>1006.79998779296875</ele>
        <time>2026-08-21T13:30:05.000Z</time>
        <extensions>
          <ns3:TrackPointExtension>
            <ns3:hr>133</ns3:hr>
            <ns3:cad>0</ns3:cad>
          </ns3:TrackPointExtension>
        </extensions>
      </trkpt>
      <trkpt lat="45.298694483935832977294921875" lon="-70.81851993687450885772705078125">
        <ele>1007</ele>
        <time>2026-08-21T13:30:06.000Z</time>
        <extensions>
          <ns3:TrackPointExtension>
            <ns3:hr>131</ns3:hr>
            <ns3:cad>0</ns3:cad>
          </ns3:TrackPointExtension>
        </extensions>
      </trkpt>
      <trkpt lat="45.2986993454396724700927734375" lon="-70.8185176737606525421142578125">
        <ele>1007</ele>
        <time>2026-08-21T13:30:07.000Z</time>
        <extensions>
          <ns3:TrackPointExtension>
            <ns3:hr>130</ns3:hr>
            <ns3:cad>60</ns3:cad>
          </ns3:TrackPointExtension>
        </extensions>
      </trkpt>
      <trkpt lat="45.29870177619159221649169921875" lon="-70.81851507537066936492919921875">
        <ele>1007.20001220703125</ele>
        <time>2026-08-21T13:30:08.000Z</time>
        <extensions>
          <ns3:TrackPointExtension>
            <ns3:hr>129</ns3:hr>
            <ns3:cad>60</ns3:cad>
          </ns3:TrackPointExtension>
        </extensions>
      </trkpt>
      <trkpt lat="45.2987023629248142242431640625" lon="-70.81851289607584476470947265625">
        <ele>1007.20001220703125</ele>
        <time>2026-08-21T13:30:09.000Z</time>
        <extensions>
          <ns3:TrackPointExtension>
            <ns3:hr>128</ns3:hr>
            <ns3:cad>60</ns3:cad>
          </ns3:TrackPointExtension>
        </extensions>
      </trkpt>
      <trkpt lat="45.298701189458370208740234375" lon="-70.8185099624097347259521484375">
        <ele>1007.4000244140625</ele>
        <time>2026-08-21T13:30:10.000Z</time>
        <extensions>
          <ns3:TrackPointExtension>
            <ns3:hr>128</ns3:hr>
            <ns3:cad>0</ns3:cad>
          </ns3:TrackPointExtension>
        </extensions>
      </trkpt>
      <trkpt lat="45.29870755970478057861328125" lon="-70.81850065849721431732177734375">
        <ele>1007.4000244140625</ele>
        <time>2026-08-21T13:30:11.000Z</time>
        <extensions>
          <ns3:TrackPointExtension>
            <ns3:hr>128</ns3:hr>
            <ns3:cad>0</ns3:cad>
          </ns3:TrackPointExtension>
        </extensions>
      </trkpt>
      <trkpt lat="45.29870663769543170928955078125" lon="-70.81849806010723114013671875">
        <ele>1007.5999755859375</ele>
        <time>2026-08-21T13:30:12.000Z</time>
        <extensions>
          <ns3:TrackPointExtension>
            <ns3:hr>128</ns3:hr>
            <ns3:cad>0</ns3:cad>
          </ns3:TrackPointExtension>
        </extensions>
      </trkpt>
      <trkpt lat="45.29870848171412944793701171875" lon="-70.8185082860291004180908203125">
        <ele>1007.79998779296875</ele>
        <time>2026-08-21T13:30:13.000Z</time>
        <extensions>
          <ns3:TrackPointExtension>
            <ns3:hr>127</ns3:hr>
            <ns3:cad>0</ns3:cad>
          </ns3:TrackPointExtension>
        </extensions>
      </trkpt>
      <trkpt lat="45.29870328493416309356689453125" lon="-70.81851222552359104156494140625">
        <ele>1008</ele>
        <time>2026-08-21T13:30:14.000Z</time>
        <extensions>
          <ns3:TrackPointExtension>
            <ns3:hr>126</ns3:hr>
            <ns3:cad>0</ns3:cad>
          </ns3:TrackPointExtension>
        </extensions>
      </trkpt>
      <trkpt lat="45.2986966632306575775146484375" lon="-70.8185133151710033416748046875">
        <ele>1008.4000244140625</ele>
        <time>2026-08-21T13:30:15.000Z</time>
        <extensions>
          <ns3:TrackPointExtension>
            <ns3:hr>126</ns3:hr>
            <ns3:cad>0</ns3:cad>
          </ns3:TrackPointExtension>
        </extensions>
      </trkpt>
      <trkpt lat="45.29869071207940578460693359375" lon="-70.8185243792831897735595703125">
        <ele>1008.5999755859375</ele>
        <time>2026-08-21T13:30:16.000Z</time>
        <extensions>
          <ns3:TrackPointExtension>
            <ns3:hr>126</ns3:hr>
            <ns3:cad>0</ns3:cad>
          </ns3:TrackPointExtension>
        </extensions>
      </trkpt>
      <trkpt lat="45.29868434183299541473388671875" lon="-70.81852915696799755096435546875">
        <ele>1008.79998779296875</ele>
        <time>2026-08-21T13:30:17.000Z</time>
        <extensions>
          <ns3:TrackPointExtension>
            <ns3:hr>126</ns3:hr>
            <ns3:cad>0</ns3:cad>
          </ns3:TrackPointExtension>
        </extensions>
      </trkpt>
      <trkpt lat="45.29867663048207759857177734375" lon="-70.81854390911757946014404296875">
        <ele>1009.20001220703125</ele>
        <time>2026-08-21T13:30:18.000Z</time>
        <extensions>
          <ns3:TrackPointExtension>
            <ns3:hr>125</ns3:hr>
            <ns3:cad>0</ns3:cad>
          </ns3:TrackPointExtension>
        </extensions>
      </trkpt>
      <trkpt lat="45.29868182726204395294189453125" lon="-70.81854357384145259857177734375">
        <ele>1009.5999755859375</ele>
        <time>2026-08-21T13:30:19.000Z</time>
        <extensions>
          <ns3:TrackPointExtension>
            <ns3:hr>126</ns3:hr>
            <ns3:cad>0</ns3:cad>
          </ns3:TrackPointExtension>
        </extensions>
      </trkpt>
      <trkpt lat="45.298677720129489898681640625" lon="-70.81856201402842998504638671875">
        <ele>1009.79998779296875</ele>
        <time>2026-08-21T13:30:20.000Z</time>
        <extensions>
          <ns3:TrackPointExtension>
            <ns3:hr>126</ns3:hr>
            <ns3:cad>0</ns3:cad>
          </ns3:TrackPointExtension>
        </extensions>
      </trkpt>
      <trkpt lat="45.298677384853363037109375" lon="-70.8185713179409503936767578125">
        <ele>1010.20001220703125</ele>
        <time>2026-08-21T13:30:21.000Z</time>
        <extensions>
          <ns3:TrackPointExtension>
            <ns3:hr>125</ns3:hr>
            <ns3:cad>0</ns3:cad>
          </ns3:TrackPointExtension>
        </extensions>
      </trkpt>
      <trkpt lat="45.298683755099773406982421875" lon="-70.81858045421540737152099609375">
        <ele>1010.5999755859375</ele>
        <time>2026-08-21T13:30:22.000Z</time>
        <extensions>
          <ns3:TrackPointExtension>
            <ns3:hr>127</ns3:hr>
            <ns3:cad>0</ns3:cad>
          </ns3:TrackPointExtension>
        </extensions>
      </trkpt>
      <trkpt lat="45.2986866049468517303466796875" lon="-70.81858883611857891082763671875">
        <ele>1011</ele>
        <time>2026-08-21T13:30:23.000Z</time>
        <extensions>
          <ns3:TrackPointExtension>
            <ns3:hr>128</ns3:hr>
            <ns3:cad>0</ns3:cad>
          </ns3:TrackPointExtension>
        </extensions>
      </trkpt>
      <trkpt lat="45.29868853278458118438720703125" lon="-70.818596296012401580810546875">
        <ele>1011.20001220703125</ele>
        <time>2026-08-21T13:30:24.000Z</time>
        <extensions>
          <ns3:TrackPointExtension>
            <ns3:hr>129</ns3:hr>
            <ns3:cad>0</ns3:cad>
          </ns3:TrackPointExtension>
        </extensions>
      </trkpt>
      <trkpt lat="45.29868937097489833831787109375" lon="-70.81859671510756015777587890625">
        <ele>1011.5999755859375</ele>
        <time>2026-08-21T13:30:25.000Z</time>
        <extensions>
          <ns3:TrackPointExtension>
            <ns3:hr>130</ns3:hr>
            <ns3:cad>0</ns3:cad>
          </ns3:TrackPointExtension>
        </extensions>
      </trkpt>
      <trkpt lat="45.2986948192119598388671875" lon="-70.81859755329787731170654296875">
        <ele>1011.79998779296875</ele>
        <time>2026-08-21T13:30:26.000Z</time>
        <extensions>
          <ns3:TrackPointExtension>
            <ns3:hr>130</ns3:hr>
            <ns3:cad>93</ns3:cad>
          </ns3:TrackPointExtension>
        </extensions>
      </trkpt>
      <trkpt lat="45.2987001836299896240234375" lon="-70.81859855912625789642333984375">
        <ele>1012.20001220703125</ele>
        <time>2026-08-21T13:30:27.000Z</time>
        <extensions>
          <ns3:TrackPointExtension>
            <ns3:hr>131</ns3:hr>
            <ns3:cad>93</ns3:cad>
          </ns3:TrackPointExtension>
        </extensions>
      </trkpt>
      <trkpt lat="45.29869808815419673919677734375" lon="-70.81859973259270191192626953125">
        <ele>1012.4000244140625</ele>
        <time>2026-08-21T13:30:28.000Z</time>
        <extensions>
          <ns3:TrackPointExtension>
            <ns3:hr>132</ns3:hr>
            <ns3:cad>0</ns3:cad>
          </ns3:TrackPointExtension>
        </extensions>
      </trkpt>
      <trkpt lat="45.29868543148040771484375" lon="-70.81859855912625789642333984375">
        <ele>1012.5999755859375</ele>
        <time>2026-08-21T13:30:29.000Z</time>
        <extensions>
          <ns3:TrackPointExtension>
            <ns3:hr>132</ns3:hr>
            <ns3:cad>0</ns3:cad>
          </ns3:TrackPointExtension>
        </extensions>
      </trkpt>
      <trkpt lat="45.29869054444134235382080078125" lon="-70.8186018280684947967529296875">
        <ele>1012.79998779296875</ele>
        <time>2026-08-21T13:30:30.000Z</time>
        <extensions>
          <ns3:TrackPointExtension>
            <ns3:hr>132</ns3:hr>
            <ns3:cad>0</ns3:cad>
          </ns3:TrackPointExtension>
        </extensions>
      </trkpt>
      <trkpt lat="45.298686437308788299560546875" lon="-70.81860945560038089752197265625">
        <ele>1013</ele>
        <time>2026-08-21T13:30:31.000Z</time>
        <extensions>
          <ns3:TrackPointExtension>
            <ns3:hr>133</ns3:hr>
            <ns3:cad>15</ns3:cad>
          </ns3:TrackPointExtension>
        </extensions>
      </trkpt>
      <trkpt lat="45.29868668876588344573974609375" lon="-70.818611718714237213134765625">
        <ele>1013.20001220703125</ele>
        <time>2026-08-21T13:30:32.000Z</time>
        <extensions>
          <ns3:TrackPointExtension>
            <ns3:hr>134</ns3:hr>
            <ns3:cad>15</ns3:cad>
          </ns3:TrackPointExtension>
        </extensions>
      </trkpt>
      <trkpt lat="45.29869842343032360076904296875" lon="-70.81861213780939579010009765625">
        <ele>1013.4000244140625</ele>
        <time>2026-08-21T13:30:33.000Z</time>
        <extensions>
          <ns3:TrackPointExtension>
            <ns3:hr>135</ns3:hr>
            <ns3:cad>0</ns3:cad>
          </ns3:TrackPointExtension>
        </extensions>
      </trkpt>
      <trkpt lat="45.2987010218203067779541015625" lon="-70.81861129961907863616943359375">
        <ele>1013.79998779296875</ele>
        <time>2026-08-21T13:30:34.000Z</time>
        <extensions>
          <ns3:TrackPointExtension>
            <ns3:hr>136</ns3:hr>
            <ns3:cad>0</ns3:cad>
          </ns3:TrackPointExtension>
        </extensions>
      </trkpt>
      <trkpt lat="45.2987097389996051788330078125" lon="-70.8186316676437854766845703125">
        <ele>1014</ele>
        <time>2026-08-21T13:30:35.000Z</time>
        <extensions>
          <ns3:TrackPointExtension>
            <ns3:hr>136</ns3:hr>
            <ns3:cad>0</ns3:cad>
          </ns3:TrackPointExtension>
        </extensions>
      </trkpt>
      <trkpt lat="45.29871468432247638702392578125" lon="-70.81864734180271625518798828125">
        <ele>1014.4000244140625</ele>
        <time>2026-08-21T13:30:36.000Z</time>
        <extensions>
          <ns3:TrackPointExtension>
            <ns3:hr>137</ns3:hr>
            <ns3:cad>0</ns3:cad>
          </ns3:TrackPointExtension>
        </extensions>
      </trkpt>
      <trkpt lat="45.298711918294429779052734375" lon="-70.81864650361239910125732421875">
        <ele>1014.5999755859375</ele>
        <time>2026-08-21T13:30:37.000Z</time>
        <extensions>
          <ns3:TrackPointExtension>
            <ns3:hr>138</ns3:hr>
            <ns3:cad>0</ns3:cad>
          </ns3:TrackPointExtension>
        </extensions>
      </trkpt>
      <trkpt lat="45.2987114153802394866943359375" lon="-70.81865002401173114776611328125">
        <ele>1014.79998779296875</ele>
        <time>2026-08-21T13:30:38.000Z</time>
        <extensions>
          <ns3:TrackPointExtension>
            <ns3:hr>139</ns3:hr>
            <ns3:cad>0</ns3:cad>
          </ns3:TrackPointExtension>
        </extensions>
      </trkpt>
      <trkpt lat="45.29871158301830291748046875" lon="-70.81864985637366771697998046875">
        <ele>1015</ele>
        <time>2026-08-21T13:30:39.000Z</time>
        <extensions>
          <ns3:TrackPointExtension>
            <ns3:hr>140</ns3:hr>
            <ns3:cad>0</ns3:cad>
          </ns3:TrackPointExtension>
        </extensions>
      </trkpt>
      <trkpt lat="45.29871158301830291748046875" lon="-70.81864985637366771697998046875">
        <ele>1015</ele>
        <time>2026-08-21T13:30:40.000Z</time>
        <extensions>
          <ns3:TrackPointExtension>
            <ns3:hr>140</ns3:hr>
            <ns3:cad>0</ns3:cad>
          </ns3:TrackPointExtension>
        </extensions>
      </trkpt>
      <trkpt lat="45.29871292412281036376953125" lon="-70.81864935345947742462158203125">
        <ele>1015.20001220703125</ele>
        <time>2026-08-21T13:30:41.000Z</time>
        <extensions>
          <ns3:TrackPointExtension>
            <ns3:hr>140</ns3:hr>
            <ns3:cad>0</ns3:cad>
          </ns3:TrackPointExtension>
        </extensions>
      </trkpt>
      <trkpt lat="45.29871703125536441802978515625" lon="-70.81864901818335056304931640625">
        <ele>1015.4000244140625</ele>
        <time>2026-08-21T13:30:42.000Z</time>
        <extensions>
          <ns3:TrackPointExtension>
            <ns3:hr>141</ns3:hr>
            <ns3:cad>0</ns3:cad>
          </ns3:TrackPointExtension>
        </extensions>
      </trkpt>
      <trkpt lat="45.29871602542698383331298828125" lon="-70.8186564780771732330322265625">
        <ele>1015.5999755859375</ele>
        <time>2026-08-21T13:30:43.000Z</time>
        <extensions>
          <ns3:TrackPointExtension>
            <ns3:hr>142</ns3:hr>
            <ns3:cad>0</ns3:cad>
          </ns3:TrackPointExtension>
        </extensions>
      </trkpt>
      <trkpt lat="45.298715941607952117919921875" lon="-70.81867282278835773468017578125">
        <ele>1016</ele>
        <time>2026-08-21T13:30:44.000Z</time>
        <extensions>
          <ns3:TrackPointExtension>
            <ns3:hr>143</ns3:hr>
            <ns3:cad>0</ns3:cad>
          </ns3:TrackPointExtension>
        </extensions>
      </trkpt>
      <trkpt lat="45.298714600503444671630859375" lon="-70.81868656910955905914306640625">
        <ele>1016</ele>
        <time>2026-08-21T13:30:45.000Z</time>
        <extensions>
          <ns3:TrackPointExtension>
            <ns3:hr>143</ns3:hr>
            <ns3:cad>0</ns3:cad>
          </ns3:TrackPointExtension>
        </extensions>
      </trkpt>
      <trkpt lat="45.29871585778892040252685546875" lon="-70.818700902163982391357421875">
        <ele>1016.20001220703125</ele>
        <time>2026-08-21T13:30:46.000Z</time>
        <extensions>
          <ns3:TrackPointExtension>
            <ns3:hr>144</ns3:hr>
            <ns3:cad>0</ns3:cad>
          </ns3:TrackPointExtension>
        </extensions>
      </trkpt>
      <trkpt lat="45.298716612160205841064453125" lon="-70.8187027461826801300048828125">
        <ele>1016.20001220703125</ele>
        <time>2026-08-21T13:30:47.000Z</time>
        <extensions>
          <ns3:TrackPointExtension>
            <ns3:hr>144</ns3:hr>
            <ns3:cad>0</ns3:cad>
          </ns3:TrackPointExtension>
        </extensions>
      </trkpt>
      <trkpt lat="45.2987231500446796417236328125" lon="-70.818712972104549407958984375">
        <ele>1016.20001220703125</ele>
        <time>2026-08-21T13:30:48.000Z</time>
        <extensions>
          <ns3:TrackPointExtension>
            <ns3:hr>144</ns3:hr>
            <ns3:cad>0</ns3:cad>
          </ns3:TrackPointExtension>
        </extensions>
      </trkpt>
      <trkpt lat="45.298724658787250518798828125" lon="-70.818711631000041961669921875">
        <ele>1016.20001220703125</ele>
        <time>2026-08-21T13:30:49.000Z</time>
        <extensions>
          <ns3:TrackPointExtension>
            <ns3:hr>145</ns3:hr>
            <ns3:cad>0</ns3:cad>
          </ns3:TrackPointExtension>
        </extensions>
      </trkpt>
      <trkpt lat="45.29872558079659938812255859375" lon="-70.81871540285646915435791015625">
        <ele>1016.4000244140625</ele>
        <time>2026-08-21T13:30:50.000Z</time>
        <extensions>
          <ns3:TrackPointExtension>
            <ns3:hr>144</ns3:hr>
            <ns3:cad>0</ns3:cad>
          </ns3:TrackPointExtension>
        </extensions>
      </trkpt>
      <trkpt lat="45.2987216413021087646484375" lon="-70.81872068345546722412109375">
        <ele>1016.5999755859375</ele>
        <time>2026-08-21T13:30:51.000Z</time>
        <extensions>
          <ns3:TrackPointExtension>
            <ns3:hr>145</ns3:hr>
            <ns3:cad>0</ns3:cad>
          </ns3:TrackPointExtension>
        </extensions>
      </trkpt>
      <trkpt lat="45.2987268380820751190185546875" lon="-70.81873476505279541015625">
        <ele>1016.79998779296875</ele>
        <time>2026-08-21T13:30:52.000Z</time>
        <extensions>
          <ns3:TrackPointExtension>
            <ns3:hr>145</ns3:hr>
            <ns3:cad>0</ns3:cad>
          </ns3:TrackPointExtension>
        </extensions>
      </trkpt>
      <trkpt lat="45.2987258322536945343017578125" lon="-70.818752534687519073486328125">
        <ele>1017</ele>
        <time>2026-08-21T13:30:53.000Z</time>
        <extensions>
          <ns3:TrackPointExtension>
            <ns3:hr>146</ns3:hr>
            <ns3:cad>0</ns3:cad>
          </ns3:TrackPointExtension>
        </extensions>
      </trkpt>
      <trkpt lat="45.29872071929275989532470703125" lon="-70.81876083277165889739990234375">
        <ele>1017.20001220703125</ele>
        <time>2026-08-21T13:30:54.000Z</time>
        <extensions>
          <ns3:TrackPointExtension>
            <ns3:hr>148</ns3:hr>
            <ns3:cad>0</ns3:cad>
          </ns3:TrackPointExtension>
        </extensions>
      </trkpt>
      <trkpt lat="45.298720300197601318359375" lon="-70.8187709748744964599609375">
        <ele>1017.5999755859375</ele>
        <time>2026-08-21T13:30:55.000Z</time>
        <extensions>
          <ns3:TrackPointExtension>
            <ns3:hr>149</ns3:hr>
            <ns3:cad>79</ns3:cad>
          </ns3:TrackPointExtension>
        </extensions>
      </trkpt>
      <trkpt lat="45.29871786944568157196044921875" lon="-70.81877826713025569915771484375">
        <ele>1017.79998779296875</ele>
        <time>2026-08-21T13:30:56.000Z</time>
        <extensions>
          <ns3:TrackPointExtension>
            <ns3:hr>150</ns3:hr>
            <ns3:cad>79</ns3:cad>
          </ns3:TrackPointExtension>
        </extensions>
      </trkpt>
      <trkpt lat="45.29872172512114048004150390625" lon="-70.81879444420337677001953125">
        <ele>1017.79998779296875</ele>
        <time>2026-08-21T13:30:57.000Z</time>
        <extensions>
          <ns3:TrackPointExtension>
            <ns3:hr>149</ns3:hr>
            <ns3:cad>51</ns3:cad>
          </ns3:TrackPointExtension>
        </extensions>
      </trkpt>
      <trkpt lat="45.29873027466237545013427734375" lon="-70.8187999762594699859619140625">
        <ele>1018</ele>
        <time>2026-08-21T13:30:58.000Z</time>
        <extensions>
          <ns3:TrackPointExtension>
            <ns3:hr>149</ns3:hr>
            <ns3:cad>51</ns3:cad>
          </ns3:TrackPointExtension>
        </extensions>
      </trkpt>
      <trkpt lat="45.29872725717723369598388671875" lon="-70.81880559213459491729736328125">
        <ele>1018</ele>
        <time>2026-08-21T13:30:59.000Z</time>
        <extensions>
          <ns3:TrackPointExtension>
            <ns3:hr>149</ns3:hr>
            <ns3:cad>51</ns3:cad>
          </ns3:TrackPointExtension>
        </extensions>
      </trkpt>
      <trkpt lat="45.29872742481529712677001953125" lon="-70.81881481222808361053466796875">
        <ele>1018</ele>
        <time>2026-08-21T13:31:00.000Z</time>
        <extensions>
          <ns3:TrackPointExtension>
            <ns3:hr>148</ns3:hr>
            <ns3:cad>51</ns3:cad>
          </ns3:TrackPointExtension>
        </extensions>
      </trkpt>
      <trkpt lat="45.29872591607272624969482421875" lon="-70.8188281394541263580322265625">
        <ele>1018</ele>
        <time>2026-08-21T13:31:01.000Z</time>
        <extensions>
          <ns3:TrackPointExtension>
            <ns3:hr>148</ns3:hr>
            <ns3:cad>51</ns3:cad>
          </ns3:TrackPointExtension>
        </extensions>
      </trkpt>
      <trkpt lat="45.2987229824066162109375" lon="-70.81884632818400859832763671875">
        <ele>1017.79998779296875</ele>
        <time>2026-08-21T13:31:02.000Z</time>
        <extensions>
          <ns3:TrackPointExtension>
            <ns3:hr>148</ns3:hr>
            <ns3:cad>0</ns3:cad>
          </ns3:TrackPointExtension>
        </extensions>
      </trkpt>
      <trkpt lat="45.29872776009142398834228515625" lon="-70.81887046806514263153076171875">
        <ele>1017.79998779296875</ele>
        <time>2026-08-21T13:31:03.000Z</time>
        <extensions>
          <ns3:TrackPointExtension>
            <ns3:hr>148</ns3:hr>
            <ns3:cad>0</ns3:cad>
          </ns3:TrackPointExtension>
        </extensions>
      </trkpt>
      <trkpt lat="45.29873798601329326629638671875" lon="-70.81889259628951549530029296875">
        <ele>1017.79998779296875</ele>
        <time>2026-08-21T13:31:04.000Z</time>
        <extensions>
          <ns3:TrackPointExtension>
            <ns3:hr>148</ns3:hr>
            <ns3:cad>0</ns3:cad>
          </ns3:TrackPointExtension>
        </extensions>
      </trkpt>
      <trkpt lat="45.29874754138290882110595703125" lon="-70.81890215165913105010986328125">
        <ele>1017.79998779296875</ele>
        <time>2026-08-21T13:31:05.000Z</time>
        <extensions>
          <ns3:TrackPointExtension>
            <ns3:hr>149</ns3:hr>
            <ns3:cad>60</ns3:cad>
          </ns3:TrackPointExtension>
        </extensions>
      </trkpt>
      <trkpt lat="45.298756174743175506591796875" lon="-70.81891472451388835906982421875">
        <ele>1017.79998779296875</ele>
        <time>2026-08-21T13:31:06.000Z</time>
        <extensions>
          <ns3:TrackPointExtension>
            <ns3:hr>149</ns3:hr>
            <ns3:cad>60</ns3:cad>
          </ns3:TrackPointExtension>
        </extensions>
      </trkpt>
      <trkpt lat="45.2987714298069477081298828125" lon="-70.81892629154026508331298828125">
        <ele>1017.79998779296875</ele>
        <time>2026-08-21T13:31:07.000Z</time>
        <extensions>
          <ns3:TrackPointExtension>
            <ns3:hr>149</ns3:hr>
            <ns3:cad>60</ns3:cad>
          </ns3:TrackPointExtension>
        </extensions>
      </trkpt>
      <trkpt lat="45.29877821914851665496826171875" lon="-70.81893785856664180755615234375">
        <ele>1017.79998779296875</ele>
        <time>2026-08-21T13:31:08.000Z</time>
        <extensions>
          <ns3:TrackPointExtension>
            <ns3:hr>150</ns3:hr>
            <ns3:cad>60</ns3:cad>
          </ns3:TrackPointExtension>
        </extensions>
      </trkpt>
      <trkpt lat="45.2987871877849102020263671875" lon="-70.81894942559301853179931640625">
        <ele>1017.79998779296875</ele>
        <time>2026-08-21T13:31:09.000Z</time>
        <extensions>
          <ns3:TrackPointExtension>
            <ns3:hr>150</ns3:hr>
            <ns3:cad>60</ns3:cad>
          </ns3:TrackPointExtension>
        </extensions>
      </trkpt>
      <trkpt lat="45.29879062436521053314208984375" lon="-70.81896602176129817962646484375">
        <ele>1017.79998779296875</ele>
        <time>2026-08-21T13:31:10.000Z</time>
        <extensions>
          <ns3:TrackPointExtension>
            <ns3:hr>150</ns3:hr>
            <ns3:cad>60</ns3:cad>
          </ns3:TrackPointExtension>
        </extensions>
      </trkpt>
      <trkpt lat="45.29879347421228885650634765625" lon="-70.81897390075027942657470703125">
        <ele>1018</ele>
        <time>2026-08-21T13:31:11.000Z</time>
        <extensions>
          <ns3:TrackPointExtension>
            <ns3:hr>151</ns3:hr>
            <ns3:cad>0</ns3:cad>
          </ns3:TrackPointExtension>
        </extensions>
      </trkpt>
      <trkpt lat="45.2988002635538578033447265625" lon="-70.81896920688450336456298828125">
        <ele>1018</ele>
        <time>2026-08-21T13:31:12.000Z</time>
        <extensions>
          <ns3:TrackPointExtension>
            <ns3:hr>151</ns3:hr>
            <ns3:cad>0</ns3:cad>
          </ns3:TrackPointExtension>
        </extensions>
      </trkpt>
      <trkpt lat="45.2988039515912532806396484375" lon="-70.81897507421672344207763671875">
        <ele>1018.20001220703125</ele>
        <time>2026-08-21T13:31:13.000Z</time>
        <extensions>
          <ns3:TrackPointExtension>
            <ns3:hr>150</ns3:hr>
            <ns3:cad>0</ns3:cad>
          </ns3:TrackPointExtension>
        </extensions>
      </trkpt>
      <trkpt lat="45.298805125057697296142578125" lon="-70.81898152828216552734375">
        <ele>1018.5999755859375</ele>
        <time>2026-08-21T13:31:14.000Z</time>
        <extensions>
          <ns3:TrackPointExtension>
            <ns3:hr>150</ns3:hr>
            <ns3:cad>0</ns3:cad>
          </ns3:TrackPointExtension>
        </extensions>
      </trkpt>
      <trkpt lat="45.29880956746637821197509765625" lon="-70.81897859461605548858642578125">
        <ele>1018.79998779296875</ele>
        <time>2026-08-21T13:31:15.000Z</time>
        <extensions>
          <ns3:TrackPointExtension>
            <ns3:hr>149</ns3:hr>
            <ns3:cad>0</ns3:cad>
          </ns3:TrackPointExtension>
        </extensions>
      </trkpt>
      <trkpt lat="45.29881778173148632049560546875" lon="-70.81897817552089691162109375">
        <ele>1019.20001220703125</ele>
        <time>2026-08-21T13:31:16.000Z</time>
        <extensions>
          <ns3:TrackPointExtension>
            <ns3:hr>149</ns3:hr>
            <ns3:cad>0</ns3:cad>
          </ns3:TrackPointExtension>
        </extensions>
      </trkpt>
      <trkpt lat="45.2988277561962604522705078125" lon="-70.81898680888116359710693359375">
        <ele>1019.4000244140625</ele>
        <time>2026-08-21T13:31:17.000Z</time>
        <extensions>
          <ns3:TrackPointExtension>
            <ns3:hr>149</ns3:hr>
            <ns3:cad>0</ns3:cad>
          </ns3:TrackPointExtension>
        </extensions>
      </trkpt>
      <trkpt lat="45.29882960021495819091796875" lon="-70.8189954422414302825927734375">
        <ele>1019.79998779296875</ele>
        <time>2026-08-21T13:31:18.000Z</time>
        <extensions>
          <ns3:TrackPointExtension>
            <ns3:hr>149</ns3:hr>
            <ns3:cad>0</ns3:cad>
          </ns3:TrackPointExtension>
        </extensions>
      </trkpt>
      <trkpt lat="45.2988304384052753448486328125" lon="-70.81899871118366718292236328125">
        <ele>1020</ele>
        <time>2026-08-21T13:31:19.000Z</time>
        <extensions>
          <ns3:TrackPointExtension>
            <ns3:hr>149</ns3:hr>
            <ns3:cad>0</ns3:cad>
          </ns3:TrackPointExtension>
        </extensions>
      </trkpt>
      <trkpt lat="45.29882985167205333709716796875" lon="-70.81901430152356624603271484375">
        <ele>1020.20001220703125</ele>
        <time>2026-08-21T13:31:20.000Z</time>
        <extensions>
          <ns3:TrackPointExtension>
            <ns3:hr>149</ns3:hr>
            <ns3:cad>0</ns3:cad>
          </ns3:TrackPointExtension>
        </extensions>
      </trkpt>
      <trkpt lat="45.298825912177562713623046875" lon="-70.81901731900870800018310546875">
        <ele>1020.4000244140625</ele>
        <time>2026-08-21T13:31:21.000Z</time>
        <extensions>
          <ns3:TrackPointExtension>
            <ns3:hr>149</ns3:hr>
            <ns3:cad>0</ns3:cad>
          </ns3:TrackPointExtension>
        </extensions>
      </trkpt>
      <trkpt lat="45.29882666654884815216064453125" lon="-70.81903357990086078643798828125">
        <ele>1020.5999755859375</ele>
        <time>2026-08-21T13:31:22.000Z</time>
        <extensions>
          <ns3:TrackPointExtension>
            <ns3:hr>148</ns3:hr>
            <ns3:cad>0</ns3:cad>
          </ns3:TrackPointExtension>
        </extensions>
      </trkpt>
      <trkpt lat="45.298827923834323883056640625" lon="-70.8190418779850006103515625">
        <ele>1020.79998779296875</ele>
        <time>2026-08-21T13:31:23.000Z</time>
        <extensions>
          <ns3:TrackPointExtension>
            <ns3:hr>148</ns3:hr>
            <ns3:cad>0</ns3:cad>
          </ns3:TrackPointExtension>
        </extensions>
      </trkpt>
      <trkpt lat="45.29883094131946563720703125" lon="-70.8190507628023624420166015625">
        <ele>1021</ele>
        <time>2026-08-21T13:31:24.000Z</time>
        <extensions>
          <ns3:TrackPointExtension>
            <ns3:hr>148</ns3:hr>
            <ns3:cad>0</ns3:cad>
          </ns3:TrackPointExtension>
        </extensions>
      </trkpt>
      <trkpt lat="45.2988316118717193603515625" lon="-70.81905352883040904998779296875">
        <ele>1021.20001220703125</ele>
        <time>2026-08-21T13:31:25.000Z</time>
        <extensions>
          <ns3:TrackPointExtension>
            <ns3:hr>148</ns3:hr>
            <ns3:cad>0</ns3:cad>
          </ns3:TrackPointExtension>
        </extensions>
      </trkpt>
      <trkpt lat="45.29883286915719509124755859375" lon="-70.819063670933246612548828125">
        <ele>1021.4000244140625</ele>
        <time>2026-08-21T13:31:26.000Z</time>
        <extensions>
          <ns3:TrackPointExtension>
            <ns3:hr>148</ns3:hr>
            <ns3:cad>0</ns3:cad>
          </ns3:TrackPointExtension>
        </extensions>
      </trkpt>
      <trkpt lat="45.2988354675471782684326171875" lon="-70.81907247193157672882080078125">
        <ele>1021.5999755859375</ele>
        <time>2026-08-21T13:31:27.000Z</time>
        <extensions>
          <ns3:TrackPointExtension>
            <ns3:hr>148</ns3:hr>
            <ns3:cad>0</ns3:cad>
          </ns3:TrackPointExtension>
        </extensions>
      </trkpt>
      <trkpt lat="45.29883638955652713775634765625" lon="-70.8190752379596233367919921875">
        <ele>1022</ele>
        <time>2026-08-21T13:31:28.000Z</time>
        <extensions>
          <ns3:TrackPointExtension>
            <ns3:hr>148</ns3:hr>
            <ns3:cad>0</ns3:cad>
          </ns3:TrackPointExtension>
        </extensions>
      </trkpt>
      <trkpt lat="45.29884208925068378448486328125" lon="-70.819081775844097137451171875">
        <ele>1022.20001220703125</ele>
        <time>2026-08-21T13:31:29.000Z</time>
        <extensions>
          <ns3:TrackPointExtension>
            <ns3:hr>148</ns3:hr>
            <ns3:cad>0</ns3:cad>
          </ns3:TrackPointExtension>
        </extensions>
      </trkpt>
      <trkpt lat="45.29884376563131809234619140625" lon="-70.8190829493105411529541015625">
        <ele>1022.4000244140625</ele>
        <time>2026-08-21T13:31:30.000Z</time>
        <extensions>
          <ns3:TrackPointExtension>
            <ns3:hr>148</ns3:hr>
            <ns3:cad>0</ns3:cad>
          </ns3:TrackPointExtension>
        </extensions>
      </trkpt>
      <trkpt lat="45.29884896241128444671630859375" lon="-70.81908521242439746856689453125">
        <ele>1022.5999755859375</ele>
        <time>2026-08-21T13:31:31.000Z</time>
        <extensions>
          <ns3:TrackPointExtension>
            <ns3:hr>148</ns3:hr>
            <ns3:cad>0</ns3:cad>
          </ns3:TrackPointExtension>
        </extensions>
      </trkpt>
      <trkpt lat="45.2988584339618682861328125" lon="-70.8190983720123767852783203125">
        <ele>1022.79998779296875</ele>
        <time>2026-08-21T13:31:32.000Z</time>
        <extensions>
          <ns3:TrackPointExtension>
            <ns3:hr>148</ns3:hr>
            <ns3:cad>0</ns3:cad>
          </ns3:TrackPointExtension>
        </extensions>
      </trkpt>
      <trkpt lat="45.29885667376220226287841796875" lon="-70.8191091008484363555908203125">
        <ele>1023</ele>
        <time>2026-08-21T13:31:33.000Z</time>
        <extensions>
          <ns3:TrackPointExtension>
            <ns3:hr>148</ns3:hr>
            <ns3:cad>0</ns3:cad>
          </ns3:TrackPointExtension>
        </extensions>
      </trkpt>
      <trkpt lat="45.298859775066375732421875" lon="-70.8191114477813243865966796875">
        <ele>1023.4000244140625</ele>
        <time>2026-08-21T13:31:34.000Z</time>
        <extensions>
          <ns3:TrackPointExtension>
            <ns3:hr>148</ns3:hr>
            <ns3:cad>0</ns3:cad>
          </ns3:TrackPointExtension>
        </extensions>
      </trkpt>
      <trkpt lat="45.2988663129508495330810546875" lon="-70.81912578083574771881103515625">
        <ele>1023.5999755859375</ele>
        <time>2026-08-21T13:31:35.000Z</time>
        <extensions>
          <ns3:TrackPointExtension>
            <ns3:hr>148</ns3:hr>
            <ns3:cad>0</ns3:cad>
          </ns3:TrackPointExtension>
        </extensions>
      </trkpt>
      <trkpt lat="45.29887109063565731048583984375" lon="-70.819129049777984619140625">
        <ele>1023.79998779296875</ele>
        <time>2026-08-21T13:31:36.000Z</time>
        <extensions>
          <ns3:TrackPointExtension>
            <ns3:hr>149</ns3:hr>
            <ns3:cad>0</ns3:cad>
          </ns3:TrackPointExtension>
        </extensions>
      </trkpt>
      <trkpt lat="45.29887980781495571136474609375" lon="-70.81913785077631473541259765625">
        <ele>1024</ele>
        <time>2026-08-21T13:31:37.000Z</time>
        <extensions>
          <ns3:TrackPointExtension>
            <ns3:hr>149</ns3:hr>
            <ns3:cad>0</ns3:cad>
          </ns3:TrackPointExtension>
        </extensions>
      </trkpt>
      <trkpt lat="45.2988847531378269195556640625" lon="-70.81913835369050502777099609375">
        <ele>1024.199951171875</ele>
        <time>2026-08-21T13:31:38.000Z</time>
        <extensions>
          <ns3:TrackPointExtension>
            <ns3:hr>150</ns3:hr>
            <ns3:cad>0</ns3:cad>
          </ns3:TrackPointExtension>
        </extensions>
      </trkpt>
      <trkpt lat="45.29889388941228389739990234375" lon="-70.81913718022406101226806640625">
        <ele>1024.4000244140625</ele>
        <time>2026-08-21T13:31:39.000Z</time>
        <extensions>
          <ns3:TrackPointExtension>
            <ns3:hr>150</ns3:hr>
            <ns3:cad>0</ns3:cad>
          </ns3:TrackPointExtension>
        </extensions>
      </trkpt>
      <trkpt lat="45.2989025227725505828857421875" lon="-70.81914179027080535888671875">
        <ele>1024.5999755859375</ele>
        <time>2026-08-21T13:31:40.000Z</time>
        <extensions>
          <ns3:TrackPointExtension>
            <ns3:hr>150</ns3:hr>
            <ns3:cad>0</ns3:cad>
          </ns3:TrackPointExtension>
        </extensions>
      </trkpt>
      <trkpt lat="45.29890746809542179107666015625" lon="-70.81914941780269145965576171875">
        <ele>1024.800048828125</ele>
        <time>2026-08-21T13:31:41.000Z</time>
        <extensions>
          <ns3:TrackPointExtension>
            <ns3:hr>150</ns3:hr>
            <ns3:cad>0</ns3:cad>
          </ns3:TrackPointExtension>
        </extensions>
      </trkpt>
      <trkpt lat="45.2989058755338191986083984375" lon="-70.8191543631255626678466796875">
        <ele>1025.199951171875</ele>
        <time>2026-08-21T13:31:42.000Z</time>
        <extensions>
          <ns3:TrackPointExtension>
            <ns3:hr>151</ns3:hr>
            <ns3:cad>0</ns3:cad>
          </ns3:TrackPointExtension>
        </extensions>
      </trkpt>
      <trkpt lat="45.2989125810563564300537109375" lon="-70.8191647566854953765869140625">
        <ele>1025.4000244140625</ele>
        <time>2026-08-21T13:31:43.000Z</time>
        <extensions>
          <ns3:TrackPointExtension>
            <ns3:hr>151</ns3:hr>
            <ns3:cad>0</ns3:cad>
          </ns3:TrackPointExtension>
        </extensions>
      </trkpt>
      <trkpt lat="45.2989105693995952606201171875" lon="-70.8191610686480998992919921875">
        <ele>1025.5999755859375</ele>
        <time>2026-08-21T13:31:44.000Z</time>
        <extensions>
          <ns3:TrackPointExtension>
            <ns3:hr>151</ns3:hr>
            <ns3:cad>0</ns3:cad>
          </ns3:TrackPointExtension>
        </extensions>
      </trkpt>
      <trkpt lat="45.2989088930189609527587890625" lon="-70.81916484050452709197998046875">
        <ele>1025.800048828125</ele>
        <time>2026-08-21T13:31:45.000Z</time>
        <extensions>
          <ns3:TrackPointExtension>
            <ns3:hr>152</ns3:hr>
            <ns3:cad>0</ns3:cad>
          </ns3:TrackPointExtension>
        </extensions>
      </trkpt>
      <trkpt lat="45.29891082085669040679931640625" lon="-70.81916014663875102996826171875">
        <ele>1026</ele>
        <time>2026-08-21T13:31:46.000Z</time>
        <extensions>
          <ns3:TrackPointExtension>
            <ns3:hr>152</ns3:hr>
            <ns3:cad>0</ns3:cad>
          </ns3:TrackPointExtension>
        </extensions>
      </trkpt>
      <trkpt lat="45.2989098988473415374755859375" lon="-70.819159559905529022216796875">
        <ele>1026.199951171875</ele>
        <time>2026-08-21T13:31:47.000Z</time>
        <extensions>
          <ns3:TrackPointExtension>
            <ns3:hr>152</ns3:hr>
            <ns3:cad>0</ns3:cad>
          </ns3:TrackPointExtension>
        </extensions>
      </trkpt>
      <trkpt lat="45.29890629462897777557373046875" lon="-70.81917204894125461578369140625">
        <ele>1026.4000244140625</ele>
        <time>2026-08-21T13:31:48.000Z</time>
        <extensions>
          <ns3:TrackPointExtension>
            <ns3:hr>152</ns3:hr>
            <ns3:cad>0</ns3:cad>
          </ns3:TrackPointExtension>
        </extensions>
      </trkpt>
      <trkpt lat="45.298905707895755767822265625" lon="-70.819182358682155609130859375">
        <ele>1026.800048828125</ele>
        <time>2026-08-21T13:31:49.000Z</time>
        <extensions>
          <ns3:TrackPointExtension>
            <ns3:hr>152</ns3:hr>
            <ns3:cad>0</ns3:cad>
          </ns3:TrackPointExtension>
        </extensions>
      </trkpt>
      <trkpt lat="45.298908054828643798828125" lon="-70.81918914802372455596923828125">
        <ele>1027</ele>
        <time>2026-08-21T13:31:50.000Z</time>
        <extensions>
          <ns3:TrackPointExtension>
            <ns3:hr>152</ns3:hr>
            <ns3:cad>0</ns3:cad>
          </ns3:TrackPointExtension>
        </extensions>
      </trkpt>
      <trkpt lat="45.29890880919992923736572265625" lon="-70.819190405309200286865234375">
        <ele>1027.199951171875</ele>
        <time>2026-08-21T13:31:51.000Z</time>
        <extensions>
          <ns3:TrackPointExtension>
            <ns3:hr>152</ns3:hr>
            <ns3:cad>0</ns3:cad>
          </ns3:TrackPointExtension>
        </extensions>
      </trkpt>
      <trkpt lat="45.29891082085669040679931640625" lon="-70.81920172087848186492919921875">
        <ele>1027.4000244140625</ele>
        <time>2026-08-21T13:31:52.000Z</time>
        <extensions>
          <ns3:TrackPointExtension>
            <ns3:hr>152</ns3:hr>
            <ns3:cad>0</ns3:cad>
          </ns3:TrackPointExtension>
        </extensions>
      </trkpt>
      <trkpt lat="45.29891266487538814544677734375" lon="-70.81920624710619449615478515625">
        <ele>1027.800048828125</ele>
        <time>2026-08-21T13:31:53.000Z</time>
        <extensions>
          <ns3:TrackPointExtension>
            <ns3:hr>152</ns3:hr>
            <ns3:cad>0</ns3:cad>
          </ns3:TrackPointExtension>
        </extensions>
      </trkpt>
      <trkpt lat="45.29891543090343475341796875" lon="-70.8192241005599498748779296875">
        <ele>1028</ele>
        <time>2026-08-21T13:31:54.000Z</time>
        <extensions>
          <ns3:TrackPointExtension>
            <ns3:hr>152</ns3:hr>
            <ns3:cad>48</ns3:cad>
          </ns3:TrackPointExtension>
        </extensions>
      </trkpt>
      <trkpt lat="45.2989129163324832916259765625" lon="-70.819232650101184844970703125">
        <ele>1028.199951171875</ele>
        <time>2026-08-21T13:31:55.000Z</time>
        <extensions>
          <ns3:TrackPointExtension>
            <ns3:hr>153</ns3:hr>
            <ns3:cad>0</ns3:cad>
          </ns3:TrackPointExtension>
        </extensions>
      </trkpt>
      <trkpt lat="45.2989152632653713226318359375" lon="-70.8192445524036884307861328125">
        <ele>1028.5999755859375</ele>
        <time>2026-08-21T13:31:56.000Z</time>
        <extensions>
          <ns3:TrackPointExtension>
            <ns3:hr>153</ns3:hr>
            <ns3:cad>0</ns3:cad>
          </ns3:TrackPointExtension>
        </extensions>
      </trkpt>
      <trkpt lat="45.298917107284069061279296875" lon="-70.8192579634487628936767578125">
        <ele>1028.5999755859375</ele>
        <time>2026-08-21T13:31:57.000Z</time>
        <extensions>
          <ns3:TrackPointExtension>
            <ns3:hr>154</ns3:hr>
            <ns3:cad>0</ns3:cad>
          </ns3:TrackPointExtension>
        </extensions>
      </trkpt>
      <trkpt lat="45.29892154969274997711181640625" lon="-70.819273553788661956787109375">
        <ele>1028.800048828125</ele>
        <time>2026-08-21T13:31:58.000Z</time>
        <extensions>
          <ns3:TrackPointExtension>
            <ns3:hr>154</ns3:hr>
            <ns3:cad>0</ns3:cad>
          </ns3:TrackPointExtension>
        </extensions>
      </trkpt>
      <trkpt lat="45.2989219687879085540771484375" lon="-70.8192867971956729888916015625">
        <ele>1028.800048828125</ele>
        <time>2026-08-21T13:31:59.000Z</time>
        <extensions>
          <ns3:TrackPointExtension>
            <ns3:hr>154</ns3:hr>
            <ns3:cad>0</ns3:cad>
          </ns3:TrackPointExtension>
        </extensions>
      </trkpt>
      <trkpt lat="45.29892372898757457733154296875" lon="-70.81929869949817657470703125">
        <ele>1029</ele>
        <time>2026-08-21T13:32:00.000Z</time>
        <extensions>
          <ns3:TrackPointExtension>
            <ns3:hr>154</ns3:hr>
            <ns3:cad>0</ns3:cad>
          </ns3:TrackPointExtension>
        </extensions>
      </trkpt>
      <trkpt lat="45.298927836120128631591796875" lon="-70.819313116371631622314453125">
        <ele>1029</ele>
        <time>2026-08-21T13:32:01.000Z</time>
        <extensions>
          <ns3:TrackPointExtension>
            <ns3:hr>154</ns3:hr>
            <ns3:cad>0</ns3:cad>
          </ns3:TrackPointExtension>
        </extensions>
      </trkpt>
      <trkpt lat="45.298933871090412139892578125" lon="-70.819327533245086669921875">
        <ele>1029.199951171875</ele>
        <time>2026-08-21T13:32:02.000Z</time>
        <extensions>
          <ns3:TrackPointExtension>
            <ns3:hr>154</ns3:hr>
            <ns3:cad>0</ns3:cad>
          </ns3:TrackPointExtension>
        </extensions>
      </trkpt>
      <trkpt lat="45.298943258821964263916015625" lon="-70.8193447999656200408935546875">
        <ele>1029.199951171875</ele>
        <time>2026-08-21T13:32:03.000Z</time>
        <extensions>
          <ns3:TrackPointExtension>
            <ns3:hr>154</ns3:hr>
            <ns3:cad>0</ns3:cad>
          </ns3:TrackPointExtension>
        </extensions>
      </trkpt>
      <trkpt lat="45.2989389002323150634765625" lon="-70.81934941001236438751220703125">
        <ele>1029.199951171875</ele>
        <time>2026-08-21T13:32:04.000Z</time>
        <extensions>
          <ns3:TrackPointExtension>
            <ns3:hr>154</ns3:hr>
            <ns3:cad>0</ns3:cad>
          </ns3:TrackPointExtension>
        </extensions>
      </trkpt>
      <trkpt lat="45.29893395490944385528564453125" lon="-70.8193598873913288116455078125">
        <ele>1029.4000244140625</ele>
        <time>2026-08-21T13:32:05.000Z</time>
        <extensions>
          <ns3:TrackPointExtension>
            <ns3:hr>154</ns3:hr>
            <ns3:cad>0</ns3:cad>
          </ns3:TrackPointExtension>
        </extensions>
      </trkpt>
      <trkpt lat="45.29892657883465290069580078125" lon="-70.81936550326645374298095703125">
        <ele>1029.4000244140625</ele>
        <time>2026-08-21T13:32:06.000Z</time>
        <extensions>
          <ns3:TrackPointExtension>
            <ns3:hr>155</ns3:hr>
            <ns3:cad>40</ns3:cad>
          </ns3:TrackPointExtension>
        </extensions>
      </trkpt>
      <trkpt lat="45.2989212982356548309326171875" lon="-70.81937455572187900543212890625">
        <ele>1029.4000244140625</ele>
        <time>2026-08-21T13:32:07.000Z</time>
        <extensions>
          <ns3:TrackPointExtension>
            <ns3:hr>154</ns3:hr>
            <ns3:cad>40</ns3:cad>
          </ns3:TrackPointExtension>
        </extensions>
      </trkpt>
      <trkpt lat="45.29891677200794219970703125" lon="-70.819376818835735321044921875">
        <ele>1029.199951171875</ele>
        <time>2026-08-21T13:32:08.000Z</time>
        <extensions>
          <ns3:TrackPointExtension>
            <ns3:hr>154</ns3:hr>
            <ns3:cad>40</ns3:cad>
          </ns3:TrackPointExtension>
        </extensions>
      </trkpt>
      <trkpt lat="45.298911742866039276123046875" lon="-70.81938276998698711395263671875">
        <ele>1028.800048828125</ele>
        <time>2026-08-21T13:32:09.000Z</time>
        <extensions>
          <ns3:TrackPointExtension>
            <ns3:hr>154</ns3:hr>
            <ns3:cad>40</ns3:cad>
          </ns3:TrackPointExtension>
        </extensions>
      </trkpt>
      <trkpt lat="45.298903025686740875244140625" lon="-70.81939131952822208404541015625">
        <ele>1028.5999755859375</ele>
        <time>2026-08-21T13:32:10.000Z</time>
        <extensions>
          <ns3:TrackPointExtension>
            <ns3:hr>154</ns3:hr>
            <ns3:cad>40</ns3:cad>
          </ns3:TrackPointExtension>
        </extensions>
      </trkpt>
      <trkpt lat="45.298893637955188751220703125" lon="-70.819409675896167755126953125">
        <ele>1028.199951171875</ele>
        <time>2026-08-21T13:32:11.000Z</time>
        <extensions>
          <ns3:TrackPointExtension>
            <ns3:hr>154</ns3:hr>
            <ns3:cad>79</ns3:cad>
          </ns3:TrackPointExtension>
        </extensions>
      </trkpt>
      <trkpt lat="45.2988961525261402130126953125" lon="-70.81943138502538204193115234375">
        <ele>1027.800048828125</ele>
        <time>2026-08-21T13:32:12.000Z</time>
        <extensions>
          <ns3:TrackPointExtension>
            <ns3:hr>154</ns3:hr>
            <ns3:cad>79</ns3:cad>
          </ns3:TrackPointExtension>
        </extensions>
      </trkpt>
      <trkpt lat="45.29889942146837711334228515625" lon="-70.8194510824978351593017578125">
        <ele>1027.5999755859375</ele>
        <time>2026-08-21T13:32:13.000Z</time>
        <extensions>
          <ns3:TrackPointExtension>
            <ns3:hr>154</ns3:hr>
            <ns3:cad>79</ns3:cad>
          </ns3:TrackPointExtension>
        </extensions>
      </trkpt>
      <trkpt lat="45.298899672925472259521484375" lon="-70.81946357153356075286865234375">
        <ele>1027.4000244140625</ele>
        <time>2026-08-21T13:32:14.000Z</time>
        <extensions>
          <ns3:TrackPointExtension>
            <ns3:hr>154</ns3:hr>
            <ns3:cad>79</ns3:cad>
          </ns3:TrackPointExtension>
        </extensions>
      </trkpt>
      <trkpt lat="45.29889958910644054412841796875" lon="-70.819474719464778900146484375">
        <ele>1027.4000244140625</ele>
        <time>2026-08-21T13:32:15.000Z</time>
        <extensions>
          <ns3:TrackPointExtension>
            <ns3:hr>155</ns3:hr>
            <ns3:cad>79</ns3:cad>
          </ns3:TrackPointExtension>
        </extensions>
      </trkpt>
      <trkpt lat="45.298899002373218536376953125" lon="-70.81948754377663135528564453125">
        <ele>1027.199951171875</ele>
        <time>2026-08-21T13:32:16.000Z</time>
        <extensions>
          <ns3:TrackPointExtension>
            <ns3:hr>155</ns3:hr>
            <ns3:cad>79</ns3:cad>
          </ns3:TrackPointExtension>
        </extensions>
      </trkpt>
      <trkpt lat="45.29889791272580623626708984375" lon="-70.819499529898166656494140625">
        <ele>1027</ele>
        <time>2026-08-21T13:32:17.000Z</time>
        <extensions>
          <ns3:TrackPointExtension>
            <ns3:hr>154</ns3:hr>
            <ns3:cad>79</ns3:cad>
          </ns3:TrackPointExtension>
        </extensions>
      </trkpt>
      <trkpt lat="45.29889590106904506683349609375" lon="-70.81951788626611232757568359375">
        <ele>1026.800048828125</ele>
        <time>2026-08-21T13:32:18.000Z</time>
        <extensions>
          <ns3:TrackPointExtension>
            <ns3:hr>154</ns3:hr>
            <ns3:cad>79</ns3:cad>
          </ns3:TrackPointExtension>
        </extensions>
      </trkpt>
      <trkpt lat="45.298892967402935028076171875" lon="-70.81952040083706378936767578125">
        <ele>1026.5999755859375</ele>
        <time>2026-08-21T13:32:19.000Z</time>
        <extensions>
          <ns3:TrackPointExtension>
            <ns3:hr>153</ns3:hr>
            <ns3:cad>79</ns3:cad>
          </ns3:TrackPointExtension>
        </extensions>
      </trkpt>
      <trkpt lat="45.298876203596591949462890625" lon="-70.8195174671709537506103515625">
        <ele>1026.199951171875</ele>
        <time>2026-08-21T13:32:20.000Z</time>
        <extensions>
          <ns3:TrackPointExtension>
            <ns3:hr>153</ns3:hr>
            <ns3:cad>79</ns3:cad>
          </ns3:TrackPointExtension>
        </extensions>
      </trkpt>
      <trkpt lat="45.29886103235185146331787109375" lon="-70.8195305429399013519287109375">
        <ele>1026</ele>
        <time>2026-08-21T13:32:21.000Z</time>
        <extensions>
          <ns3:TrackPointExtension>
            <ns3:hr>152</ns3:hr>
            <ns3:cad>79</ns3:cad>
          </ns3:TrackPointExtension>
        </extensions>
      </trkpt>
      <trkpt lat="45.2988508902490139007568359375" lon="-70.8195429481565952301025390625">
        <ele>1025.800048828125</ele>
        <time>2026-08-21T13:32:22.000Z</time>
        <extensions>
          <ns3:TrackPointExtension>
            <ns3:hr>151</ns3:hr>
            <ns3:cad>79</ns3:cad>
          </ns3:TrackPointExtension>
        </extensions>
      </trkpt>
      <trkpt lat="45.2988475374877452850341796875" lon="-70.81955862231552600860595703125">
        <ele>1025.800048828125</ele>
        <time>2026-08-21T13:32:23.000Z</time>
        <extensions>
          <ns3:TrackPointExtension>
            <ns3:hr>150</ns3:hr>
            <ns3:cad>79</ns3:cad>
          </ns3:TrackPointExtension>
        </extensions>
      </trkpt>
      <trkpt lat="45.2988512255251407623291015625" lon="-70.81958192400634288787841796875">
        <ele>1025.800048828125</ele>
        <time>2026-08-21T13:32:24.000Z</time>
        <extensions>
          <ns3:TrackPointExtension>
            <ns3:hr>149</ns3:hr>
            <ns3:cad>79</ns3:cad>
          </ns3:TrackPointExtension>
        </extensions>
      </trkpt>
      <trkpt lat="45.29885281808674335479736328125" lon="-70.81959910690784454345703125">
        <ele>1025.800048828125</ele>
        <time>2026-08-21T13:32:25.000Z</time>
        <extensions>
          <ns3:TrackPointExtension>
            <ns3:hr>148</ns3:hr>
            <ns3:cad>42</ns3:cad>
          </ns3:TrackPointExtension>
        </extensions>
      </trkpt>
      <trkpt lat="45.29885265044867992401123046875" lon="-70.8196136914193630218505859375">
        <ele>1025.800048828125</ele>
        <time>2026-08-21T13:32:26.000Z</time>
        <extensions>
          <ns3:TrackPointExtension>
            <ns3:hr>148</ns3:hr>
            <ns3:cad>42</ns3:cad>
          </ns3:TrackPointExtension>
        </extensions>
      </trkpt>
      <trkpt lat="45.2988545782864093780517578125" lon="-70.81963690929114818572998046875">
        <ele>1025.800048828125</ele>
        <time>2026-08-21T13:32:27.000Z</time>
        <extensions>
          <ns3:TrackPointExtension>
            <ns3:hr>148</ns3:hr>
            <ns3:cad>42</ns3:cad>
          </ns3:TrackPointExtension>
        </extensions>
      </trkpt>
      <trkpt lat="45.298859775066375732421875" lon="-70.8196569420397281646728515625">
        <ele>1025.800048828125</ele>
        <time>2026-08-21T13:32:28.000Z</time>
        <extensions>
          <ns3:TrackPointExtension>
            <ns3:hr>148</ns3:hr>
            <ns3:cad>42</ns3:cad>
          </ns3:TrackPointExtension>
        </extensions>
      </trkpt>
      <trkpt lat="45.29886782169342041015625" lon="-70.8196668326854705810546875">
        <ele>1025.800048828125</ele>
        <time>2026-08-21T13:32:29.000Z</time>
        <extensions>
          <ns3:TrackPointExtension>
            <ns3:hr>148</ns3:hr>
            <ns3:cad>42</ns3:cad>
          </ns3:TrackPointExtension>
        </extensions>
      </trkpt>
      <trkpt lat="45.29887653887271881103515625" lon="-70.81968669779598712921142578125">
        <ele>1025.800048828125</ele>
        <time>2026-08-21T13:32:30.000Z</time>
        <extensions>
          <ns3:TrackPointExtension>
            <ns3:hr>149</ns3:hr>
            <ns3:cad>0</ns3:cad>
          </ns3:TrackPointExtension>
        </extensions>
      </trkpt>
      <trkpt lat="45.29888349585235118865966796875" lon="-70.819711424410343170166015625">
        <ele>1025.800048828125</ele>
        <time>2026-08-21T13:32:31.000Z</time>
        <extensions>
          <ns3:TrackPointExtension>
            <ns3:hr>148</ns3:hr>
            <ns3:cad>0</ns3:cad>
          </ns3:TrackPointExtension>
        </extensions>
      </trkpt>
      <trkpt lat="45.29888416640460491180419921875" lon="-70.81972223706543445587158203125">
        <ele>1025.5999755859375</ele>
        <time>2026-08-21T13:32:32.000Z</time>
        <extensions>
          <ns3:TrackPointExtension>
            <ns3:hr>150</ns3:hr>
            <ns3:cad>0</ns3:cad>
          </ns3:TrackPointExtension>
        </extensions>
      </trkpt>
      <trkpt lat="45.2988884411752223968505859375" lon="-70.8197410963475704193115234375">
        <ele>1025.5999755859375</ele>
        <time>2026-08-21T13:32:33.000Z</time>
        <extensions>
          <ns3:TrackPointExtension>
            <ns3:hr>152</ns3:hr>
            <ns3:cad>0</ns3:cad>
          </ns3:TrackPointExtension>
        </extensions>
      </trkpt>
      <trkpt lat="45.29889439232647418975830078125" lon="-70.81975677050650119781494140625">
        <ele>1025.5999755859375</ele>
        <time>2026-08-21T13:32:34.000Z</time>
        <extensions>
          <ns3:TrackPointExtension>
            <ns3:hr>152</ns3:hr>
            <ns3:cad>0</ns3:cad>
          </ns3:TrackPointExtension>
        </extensions>
      </trkpt>
      <trkpt lat="45.29889590106904506683349609375" lon="-70.81976297311484813690185546875">
        <ele>1025.4000244140625</ele>
        <time>2026-08-21T13:32:35.000Z</time>
        <extensions>
          <ns3:TrackPointExtension>
            <ns3:hr>151</ns3:hr>
            <ns3:cad>0</ns3:cad>
          </ns3:TrackPointExtension>
        </extensions>
      </trkpt>
      <trkpt lat="45.29889799654483795166015625" lon="-70.81976783461868762969970703125">
        <ele>1025.5999755859375</ele>
        <time>2026-08-21T13:32:36.000Z</time>
        <extensions>
          <ns3:TrackPointExtension>
            <ns3:hr>149</ns3:hr>
            <ns3:cad>0</ns3:cad>
          </ns3:TrackPointExtension>
        </extensions>
      </trkpt>
      <trkpt lat="45.298902355134487152099609375" lon="-70.81977671943604946136474609375">
        <ele>1025.5999755859375</ele>
        <time>2026-08-21T13:32:37.000Z</time>
        <extensions>
          <ns3:TrackPointExtension>
            <ns3:hr>146</ns3:hr>
            <ns3:cad>0</ns3:cad>
          </ns3:TrackPointExtension>
        </extensions>
      </trkpt>
      <trkpt lat="45.2989040315151214599609375" lon="-70.81977839581668376922607421875">
        <ele>1025.800048828125</ele>
        <time>2026-08-21T13:32:38.000Z</time>
        <extensions>
          <ns3:TrackPointExtension>
            <ns3:hr>143</ns3:hr>
            <ns3:cad>0</ns3:cad>
          </ns3:TrackPointExtension>
        </extensions>
      </trkpt>
      <trkpt lat="45.298907719552516937255859375" lon="-70.81977722235023975372314453125">
        <ele>1026</ele>
        <time>2026-08-21T13:32:39.000Z</time>
        <extensions>
          <ns3:TrackPointExtension>
            <ns3:hr>142</ns3:hr>
            <ns3:cad>0</ns3:cad>
          </ns3:TrackPointExtension>
        </extensions>
      </trkpt>
      <trkpt lat="45.29890880919992923736572265625" lon="-70.819787867367267608642578125">
        <ele>1026.199951171875</ele>
        <time>2026-08-21T13:32:40.000Z</time>
        <extensions>
          <ns3:TrackPointExtension>
            <ns3:hr>141</ns3:hr>
            <ns3:cad>0</ns3:cad>
          </ns3:TrackPointExtension>
        </extensions>
      </trkpt>
      <trkpt lat="45.298910401761531829833984375" lon="-70.81979868002235889434814453125">
        <ele>1026.4000244140625</ele>
        <time>2026-08-21T13:32:41.000Z</time>
        <extensions>
          <ns3:TrackPointExtension>
            <ns3:hr>141</ns3:hr>
            <ns3:cad>0</ns3:cad>
          </ns3:TrackPointExtension>
        </extensions>
      </trkpt>
      <trkpt lat="45.298907719552516937255859375" lon="-70.8197967521846294403076171875">
        <ele>1026.5999755859375</ele>
        <time>2026-08-21T13:32:42.000Z</time>
        <extensions>
          <ns3:TrackPointExtension>
            <ns3:hr>141</ns3:hr>
            <ns3:cad>0</ns3:cad>
          </ns3:TrackPointExtension>
        </extensions>
      </trkpt>
      <trkpt lat="45.29890830628573894500732421875" lon="-70.81979784183204174041748046875">
        <ele>1026.800048828125</ele>
        <time>2026-08-21T13:32:43.000Z</time>
        <extensions>
          <ns3:TrackPointExtension>
            <ns3:hr>140</ns3:hr>
            <ns3:cad>0</ns3:cad>
          </ns3:TrackPointExtension>
        </extensions>
      </trkpt>
      <trkpt lat="45.29890713281929492950439453125" lon="-70.8198009431362152099609375">
        <ele>1027</ele>
        <time>2026-08-21T13:32:44.000Z</time>
        <extensions>
          <ns3:TrackPointExtension>
            <ns3:hr>140</ns3:hr>
            <ns3:cad>0</ns3:cad>
          </ns3:TrackPointExtension>
        </extensions>
      </trkpt>
      <trkpt lat="45.298907049000263214111328125" lon="-70.81980002112686634063720703125">
        <ele>1027</ele>
        <time>2026-08-21T13:32:45.000Z</time>
        <extensions>
          <ns3:TrackPointExtension>
            <ns3:hr>141</ns3:hr>
            <ns3:cad>0</ns3:cad>
          </ns3:TrackPointExtension>
        </extensions>
      </trkpt>
      <trkpt lat="45.29890847392380237579345703125" lon="-70.81979800947010517120361328125">
        <ele>1027</ele>
        <time>2026-08-21T13:32:46.000Z</time>
        <extensions>
          <ns3:TrackPointExtension>
            <ns3:hr>141</ns3:hr>
            <ns3:cad>0</ns3:cad>
          </ns3:TrackPointExtension>
        </extensions>
      </trkpt>
      <trkpt lat="45.2989109046757221221923828125" lon="-70.81979281269013881683349609375">
        <ele>1027.199951171875</ele>
        <time>2026-08-21T13:32:47.000Z</time>
        <extensions>
          <ns3:TrackPointExtension>
            <ns3:hr>141</ns3:hr>
            <ns3:cad>0</ns3:cad>
          </ns3:TrackPointExtension>
        </extensions>
      </trkpt>
      <trkpt lat="45.29891266487538814544677734375" lon="-70.819792561233043670654296875">
        <ele>1027.4000244140625</ele>
        <time>2026-08-21T13:32:48.000Z</time>
        <extensions>
          <ns3:TrackPointExtension>
            <ns3:hr>138</ns3:hr>
            <ns3:cad>0</ns3:cad>
          </ns3:TrackPointExtension>
        </extensions>
      </trkpt>
      <trkpt lat="45.29891098849475383758544921875" lon="-70.81979281269013881683349609375">
        <ele>1027.5999755859375</ele>
        <time>2026-08-21T13:32:49.000Z</time>
        <extensions>
          <ns3:TrackPointExtension>
            <ns3:hr>136</ns3:hr>
            <ns3:cad>0</ns3:cad>
          </ns3:TrackPointExtension>
        </extensions>
      </trkpt>
      <trkpt lat="45.29891249723732471466064453125" lon="-70.819794572889804840087890625">
        <ele>1027.800048828125</ele>
        <time>2026-08-21T13:32:50.000Z</time>
        <extensions>
          <ns3:TrackPointExtension>
            <ns3:hr>136</ns3:hr>
            <ns3:cad>0</ns3:cad>
          </ns3:TrackPointExtension>
        </extensions>
      </trkpt>
      <trkpt lat="45.2989149279892444610595703125" lon="-70.81979767419397830963134765625">
        <ele>1028</ele>
        <time>2026-08-21T13:32:51.000Z</time>
        <extensions>
          <ns3:TrackPointExtension>
            <ns3:hr>136</ns3:hr>
            <ns3:cad>0</ns3:cad>
          </ns3:TrackPointExtension>
        </extensions>
      </trkpt>
      <trkpt lat="45.29891685582697391510009765625" lon="-70.81980295479297637939453125">
        <ele>1028.199951171875</ele>
        <time>2026-08-21T13:32:52.000Z</time>
        <extensions>
          <ns3:TrackPointExtension>
            <ns3:hr>135</ns3:hr>
            <ns3:cad>0</ns3:cad>
          </ns3:TrackPointExtension>
        </extensions>
      </trkpt>
      <trkpt lat="45.29891685582697391510009765625" lon="-70.81981108523905277252197265625">
        <ele>1028.4000244140625</ele>
        <time>2026-08-21T13:32:53.000Z</time>
        <extensions>
          <ns3:TrackPointExtension>
            <ns3:hr>135</ns3:hr>
            <ns3:cad>0</ns3:cad>
          </ns3:TrackPointExtension>
        </extensions>
      </trkpt>
      <trkpt lat="45.29891853220760822296142578125" lon="-70.8198155276477336883544921875">
        <ele>1028.5999755859375</ele>
        <time>2026-08-21T13:32:54.000Z</time>
        <extensions>
          <ns3:TrackPointExtension>
            <ns3:hr>136</ns3:hr>
            <ns3:cad>0</ns3:cad>
          </ns3:TrackPointExtension>
        </extensions>
      </trkpt>
      <trkpt lat="45.29891836456954479217529296875" lon="-70.8198161981999874114990234375">
        <ele>1028.5999755859375</ele>
        <time>2026-08-21T13:32:55.000Z</time>
        <extensions>
          <ns3:TrackPointExtension>
            <ns3:hr>136</ns3:hr>
            <ns3:cad>0</ns3:cad>
          </ns3:TrackPointExtension>
        </extensions>
      </trkpt>
      <trkpt lat="45.29891836456954479217529296875" lon="-70.8198161981999874114990234375">
        <ele>1028.800048828125</ele>
        <time>2026-08-21T13:32:56.000Z</time>
        <extensions>
          <ns3:TrackPointExtension>
            <ns3:hr>136</ns3:hr>
            <ns3:cad>0</ns3:cad>
          </ns3:TrackPointExtension>
        </extensions>
      </trkpt>
      <trkpt lat="45.298919118940830230712890625" lon="-70.81981745548546314239501953125">
        <ele>1029</ele>
        <time>2026-08-21T13:32:57.000Z</time>
        <extensions>
          <ns3:TrackPointExtension>
            <ns3:hr>136</ns3:hr>
            <ns3:cad>0</ns3:cad>
          </ns3:TrackPointExtension>
        </extensions>
      </trkpt>
      <trkpt lat="45.29891945421695709228515625" lon="-70.8198250830173492431640625">
        <ele>1029.199951171875</ele>
        <time>2026-08-21T13:32:58.000Z</time>
        <extensions>
          <ns3:TrackPointExtension>
            <ns3:hr>136</ns3:hr>
            <ns3:cad>0</ns3:cad>
          </ns3:TrackPointExtension>
        </extensions>
      </trkpt>
      <trkpt lat="45.29891945421695709228515625" lon="-70.81982801668345928192138671875">
        <ele>1029.4000244140625</ele>
        <time>2026-08-21T13:32:59.000Z</time>
        <extensions>
          <ns3:TrackPointExtension>
            <ns3:hr>136</ns3:hr>
            <ns3:cad>0</ns3:cad>
          </ns3:TrackPointExtension>
        </extensions>
      </trkpt>
      <trkpt lat="45.29891685582697391510009765625" lon="-70.819834135472774505615234375">
        <ele>1029.800048828125</ele>
        <time>2026-08-21T13:33:00.000Z</time>
        <extensions>
          <ns3:TrackPointExtension>
            <ns3:hr>135</ns3:hr>
            <ns3:cad>0</ns3:cad>
          </ns3:TrackPointExtension>
        </extensions>
      </trkpt>
      <trkpt lat="45.298908390104770660400390625" lon="-70.81983371637761592864990234375">
        <ele>1030.199951171875</ele>
        <time>2026-08-21T13:33:01.000Z</time>
        <extensions>
          <ns3:TrackPointExtension>
            <ns3:hr>136</ns3:hr>
            <ns3:cad>0</ns3:cad>
          </ns3:TrackPointExtension>
        </extensions>
      </trkpt>
      <trkpt lat="45.2989041991531848907470703125" lon="-70.819830782711505889892578125">
        <ele>1030.4000244140625</ele>
        <time>2026-08-21T13:33:02.000Z</time>
        <extensions>
          <ns3:TrackPointExtension>
            <ns3:hr>137</ns3:hr>
            <ns3:cad>0</ns3:cad>
          </ns3:TrackPointExtension>
        </extensions>
      </trkpt>
      <trkpt lat="45.29891031794250011444091796875" lon="-70.819822736084461212158203125">
        <ele>1030.5999755859375</ele>
        <time>2026-08-21T13:33:03.000Z</time>
        <extensions>
          <ns3:TrackPointExtension>
            <ns3:hr>137</ns3:hr>
            <ns3:cad>0</ns3:cad>
          </ns3:TrackPointExtension>
        </extensions>
      </trkpt>
      <trkpt lat="45.29890595935285091400146484375" lon="-70.81981779076159000396728515625">
        <ele>1030.800048828125</ele>
        <time>2026-08-21T13:33:04.000Z</time>
        <extensions>
          <ns3:TrackPointExtension>
            <ns3:hr>138</ns3:hr>
            <ns3:cad>0</ns3:cad>
          </ns3:TrackPointExtension>
        </extensions>
      </trkpt>
      <trkpt lat="45.29890260659158229827880859375" lon="-70.81981225870549678802490234375">
        <ele>1030.800048828125</ele>
        <time>2026-08-21T13:33:05.000Z</time>
        <extensions>
          <ns3:TrackPointExtension>
            <ns3:hr>139</ns3:hr>
            <ns3:cad>0</ns3:cad>
          </ns3:TrackPointExtension>
        </extensions>
      </trkpt>
      <trkpt lat="45.29890000820159912109375" lon="-70.819809995591640472412109375">
        <ele>1030.800048828125</ele>
        <time>2026-08-21T13:33:06.000Z</time>
        <extensions>
          <ns3:TrackPointExtension>
            <ns3:hr>139</ns3:hr>
            <ns3:cad>0</ns3:cad>
          </ns3:TrackPointExtension>
        </extensions>
      </trkpt>
      <trkpt lat="45.298892967402935028076171875" lon="-70.81981158815324306488037109375">
        <ele>1031</ele>
        <time>2026-08-21T13:33:07.000Z</time>
        <extensions>
          <ns3:TrackPointExtension>
            <ns3:hr>139</ns3:hr>
            <ns3:cad>0</ns3:cad>
          </ns3:TrackPointExtension>
        </extensions>
      </trkpt>
      <trkpt lat="45.298885591328144073486328125" lon="-70.81981158815324306488037109375">
        <ele>1031.199951171875</ele>
        <time>2026-08-21T13:33:08.000Z</time>
        <extensions>
          <ns3:TrackPointExtension>
            <ns3:hr>139</ns3:hr>
            <ns3:cad>0</ns3:cad>
          </ns3:TrackPointExtension>
        </extensions>
      </trkpt>
      <trkpt lat="45.29888332821428775787353515625" lon="-70.81981007941067218780517578125">
        <ele>1031.4000244140625</ele>
        <time>2026-08-21T13:33:09.000Z</time>
        <extensions>
          <ns3:TrackPointExtension>
            <ns3:hr>139</ns3:hr>
            <ns3:cad>0</ns3:cad>
          </ns3:TrackPointExtension>
        </extensions>
      </trkpt>
      <trkpt lat="45.29887410812079906463623046875" lon="-70.81980337388813495635986328125">
        <ele>1031.800048828125</ele>
        <time>2026-08-21T13:33:10.000Z</time>
        <extensions>
          <ns3:TrackPointExtension>
            <ns3:hr>140</ns3:hr>
            <ns3:cad>0</ns3:cad>
          </ns3:TrackPointExtension>
        </extensions>
      </trkpt>
      <trkpt lat="45.29885902069509029388427734375" lon="-70.8198037929832935333251953125">
        <ele>1032.199951171875</ele>
        <time>2026-08-21T13:33:11.000Z</time>
        <extensions>
          <ns3:TrackPointExtension>
            <ns3:hr>141</ns3:hr>
            <ns3:cad>0</ns3:cad>
          </ns3:TrackPointExtension>
        </extensions>
      </trkpt>
      <trkpt lat="45.29885080642998218536376953125" lon="-70.8198108337819576263427734375">
        <ele>1032.4000244140625</ele>
        <time>2026-08-21T13:33:12.000Z</time>
        <extensions>
          <ns3:TrackPointExtension>
            <ns3:hr>141</ns3:hr>
            <ns3:cad>0</ns3:cad>
          </ns3:TrackPointExtension>
        </extensions>
      </trkpt>
      <trkpt lat="45.29884435236454010009765625" lon="-70.81981225870549678802490234375">
        <ele>1032.5999755859375</ele>
        <time>2026-08-21T13:33:13.000Z</time>
        <extensions>
          <ns3:TrackPointExtension>
            <ns3:hr>142</ns3:hr>
            <ns3:cad>0</ns3:cad>
          </ns3:TrackPointExtension>
        </extensions>
      </trkpt>
      <trkpt lat="45.2988411672413349151611328125" lon="-70.81981695257127285003662109375">
        <ele>1032.800048828125</ele>
        <time>2026-08-21T13:33:14.000Z</time>
        <extensions>
          <ns3:TrackPointExtension>
            <ns3:hr>144</ns3:hr>
            <ns3:cad>0</ns3:cad>
          </ns3:TrackPointExtension>
        </extensions>
      </trkpt>
      <trkpt lat="45.2988304384052753448486328125" lon="-70.8198232389986515045166015625">
        <ele>1033</ele>
        <time>2026-08-21T13:33:15.000Z</time>
        <extensions>
          <ns3:TrackPointExtension>
            <ns3:hr>145</ns3:hr>
            <ns3:cad>0</ns3:cad>
          </ns3:TrackPointExtension>
        </extensions>
      </trkpt>
      <trkpt lat="45.29881861992180347442626953125" lon="-70.81982198171317577362060546875">
        <ele>1033.199951171875</ele>
        <time>2026-08-21T13:33:16.000Z</time>
        <extensions>
          <ns3:TrackPointExtension>
            <ns3:hr>145</ns3:hr>
            <ns3:cad>0</ns3:cad>
          </ns3:TrackPointExtension>
        </extensions>
      </trkpt>
      <trkpt lat="45.2988123334944248199462890625" lon="-70.81982449628412723541259765625">
        <ele>1033.5999755859375</ele>
        <time>2026-08-21T13:33:17.000Z</time>
        <extensions>
          <ns3:TrackPointExtension>
            <ns3:hr>145</ns3:hr>
            <ns3:cad>0</ns3:cad>
          </ns3:TrackPointExtension>
        </extensions>
      </trkpt>
      <trkpt lat="45.29880370013415813446044921875" lon="-70.81982717849314212799072265625">
        <ele>1033.800048828125</ele>
        <time>2026-08-21T13:33:18.000Z</time>
        <extensions>
          <ns3:TrackPointExtension>
            <ns3:hr>146</ns3:hr>
            <ns3:cad>0</ns3:cad>
          </ns3:TrackPointExtension>
        </extensions>
      </trkpt>
      <trkpt lat="45.29879179783165454864501953125" lon="-70.8198346383869647979736328125">
        <ele>1034</ele>
        <time>2026-08-21T13:33:19.000Z</time>
        <extensions>
          <ns3:TrackPointExtension>
            <ns3:hr>146</ns3:hr>
            <ns3:cad>0</ns3:cad>
          </ns3:TrackPointExtension>
        </extensions>
      </trkpt>
      <trkpt lat="45.29877637512981891632080078125" lon="-70.81984997726976871490478515625">
        <ele>1034</ele>
        <time>2026-08-21T13:33:20.000Z</time>
        <extensions>
          <ns3:TrackPointExtension>
            <ns3:hr>146</ns3:hr>
            <ns3:cad>45</ns3:cad>
          </ns3:TrackPointExtension>
        </extensions>
      </trkpt>
      <trkpt lat="45.2987623773515224456787109375" lon="-70.8198604546487331390380859375">
        <ele>1034.199951171875</ele>
        <time>2026-08-21T13:33:21.000Z</time>
        <extensions>
          <ns3:TrackPointExtension>
            <ns3:hr>147</ns3:hr>
            <ns3:cad>0</ns3:cad>
          </ns3:TrackPointExtension>
        </extensions>
      </trkpt>
      <trkpt lat="45.298755168914794921875" lon="-70.81986824981868267059326171875">
        <ele>1034.199951171875</ele>
        <time>2026-08-21T13:33:22.000Z</time>
        <extensions>
          <ns3:TrackPointExtension>
            <ns3:hr>147</ns3:hr>
            <ns3:cad>0</ns3:cad>
          </ns3:TrackPointExtension>
        </extensions>
      </trkpt>
      <trkpt lat="45.29874418862164020538330078125" lon="-70.81988199613988399505615234375">
        <ele>1034.4000244140625</ele>
        <time>2026-08-21T13:33:23.000Z</time>
        <extensions>
          <ns3:TrackPointExtension>
            <ns3:hr>148</ns3:hr>
            <ns3:cad>0</ns3:cad>
          </ns3:TrackPointExtension>
        </extensions>
      </trkpt>
      <trkpt lat="45.2987355552613735198974609375" lon="-70.81988953985273838043212890625">
        <ele>1034.4000244140625</ele>
        <time>2026-08-21T13:33:24.000Z</time>
        <extensions>
          <ns3:TrackPointExtension>
            <ns3:hr>149</ns3:hr>
            <ns3:cad>0</ns3:cad>
          </ns3:TrackPointExtension>
        </extensions>
      </trkpt>
      <trkpt lat="45.29872558079659938812255859375" lon="-70.819904543459415435791015625">
        <ele>1034.5999755859375</ele>
        <time>2026-08-21T13:33:25.000Z</time>
        <extensions>
          <ns3:TrackPointExtension>
            <ns3:hr>149</ns3:hr>
            <ns3:cad>0</ns3:cad>
          </ns3:TrackPointExtension>
        </extensions>
      </trkpt>
      <trkpt lat="45.298714600503444671630859375" lon="-70.8199147693812847137451171875">
        <ele>1034.5999755859375</ele>
        <time>2026-08-21T13:33:26.000Z</time>
        <extensions>
          <ns3:TrackPointExtension>
            <ns3:hr>150</ns3:hr>
            <ns3:cad>0</ns3:cad>
          </ns3:TrackPointExtension>
        </extensions>
      </trkpt>
      <trkpt lat="45.29871149919927120208740234375" lon="-70.8199271745979785919189453125">
        <ele>1034.800048828125</ele>
        <time>2026-08-21T13:33:27.000Z</time>
        <extensions>
          <ns3:TrackPointExtension>
            <ns3:hr>150</ns3:hr>
            <ns3:cad>0</ns3:cad>
          </ns3:TrackPointExtension>
        </extensions>
      </trkpt>
      <trkpt lat="45.2987053804099559783935546875" lon="-70.8199402503669261932373046875">
        <ele>1034.800048828125</ele>
        <time>2026-08-21T13:33:28.000Z</time>
        <extensions>
          <ns3:TrackPointExtension>
            <ns3:hr>151</ns3:hr>
            <ns3:cad>0</ns3:cad>
          </ns3:TrackPointExtension>
        </extensions>
      </trkpt>
      <trkpt lat="45.29869473539292812347412109375" lon="-70.81995609216392040252685546875">
        <ele>1034.800048828125</ele>
        <time>2026-08-21T13:33:29.000Z</time>
        <extensions>
          <ns3:TrackPointExtension>
            <ns3:hr>151</ns3:hr>
            <ns3:cad>0</ns3:cad>
          </ns3:TrackPointExtension>
        </extensions>
      </trkpt>
      <trkpt lat="45.29869071207940578460693359375" lon="-70.8199727721512317657470703125">
        <ele>1034.800048828125</ele>
        <time>2026-08-21T13:33:30.000Z</time>
        <extensions>
          <ns3:TrackPointExtension>
            <ns3:hr>151</ns3:hr>
            <ns3:cad>48</ns3:cad>
          </ns3:TrackPointExtension>
        </extensions>
      </trkpt>
      <trkpt lat="45.29868870042264461517333984375" lon="-70.81998861394822597503662109375">
        <ele>1035</ele>
        <time>2026-08-21T13:33:31.000Z</time>
        <extensions>
          <ns3:TrackPointExtension>
            <ns3:hr>151</ns3:hr>
            <ns3:cad>49</ns3:cad>
          </ns3:TrackPointExtension>
        </extensions>
      </trkpt>
      <trkpt lat="45.29868635348975658416748046875" lon="-70.82001090981066226959228515625">
        <ele>1035</ele>
        <time>2026-08-21T13:33:32.000Z</time>
        <extensions>
          <ns3:TrackPointExtension>
            <ns3:hr>152</ns3:hr>
            <ns3:cad>50</ns3:cad>
          </ns3:TrackPointExtension>
        </extensions>
      </trkpt>
      <trkpt lat="45.29868702404201030731201171875" lon="-70.82002197392284870147705078125">
        <ele>1035</ele>
        <time>2026-08-21T13:33:33.000Z</time>
        <extensions>
          <ns3:TrackPointExtension>
            <ns3:hr>152</ns3:hr>
            <ns3:cad>50</ns3:cad>
          </ns3:TrackPointExtension>
        </extensions>
      </trkpt>
      <trkpt lat="45.29868819750845432281494140625" lon="-70.82003974355757236480712890625">
        <ele>1035.199951171875</ele>
        <time>2026-08-21T13:33:34.000Z</time>
        <extensions>
          <ns3:TrackPointExtension>
            <ns3:hr>152</ns3:hr>
            <ns3:cad>50</ns3:cad>
          </ns3:TrackPointExtension>
        </extensions>
      </trkpt>
      <trkpt lat="45.298689119517803192138671875" lon="-70.82005684264004230499267578125">
        <ele>1035.199951171875</ele>
        <time>2026-08-21T13:33:35.000Z</time>
        <extensions>
          <ns3:TrackPointExtension>
            <ns3:hr>151</ns3:hr>
            <ns3:cad>47</ns3:cad>
          </ns3:TrackPointExtension>
        </extensions>
      </trkpt>
      <trkpt lat="45.2986956574022769927978515625" lon="-70.82006304524838924407958984375">
        <ele>1035.4000244140625</ele>
        <time>2026-08-21T13:33:36.000Z</time>
        <extensions>
          <ns3:TrackPointExtension>
            <ns3:hr>151</ns3:hr>
            <ns3:cad>47</ns3:cad>
          </ns3:TrackPointExtension>
        </extensions>
      </trkpt>
      <trkpt lat="45.298697836697101593017578125" lon="-70.820072852075099945068359375">
        <ele>1035.5999755859375</ele>
        <time>2026-08-21T13:33:37.000Z</time>
        <extensions>
          <ns3:TrackPointExtension>
            <ns3:hr>150</ns3:hr>
            <ns3:cad>46</ns3:cad>
          </ns3:TrackPointExtension>
        </extensions>
      </trkpt>
      <trkpt lat="45.298700518906116485595703125" lon="-70.8200852572917938232421875">
        <ele>1035.800048828125</ele>
        <time>2026-08-21T13:33:38.000Z</time>
        <extensions>
          <ns3:TrackPointExtension>
            <ns3:hr>149</ns3:hr>
            <ns3:cad>45</ns3:cad>
          </ns3:TrackPointExtension>
        </extensions>
      </trkpt>
      <trkpt lat="45.298705212771892547607421875" lon="-70.82008483819663524627685546875">
        <ele>1036</ele>
        <time>2026-08-21T13:33:39.000Z</time>
        <extensions>
          <ns3:TrackPointExtension>
            <ns3:hr>149</ns3:hr>
            <ns3:cad>45</ns3:cad>
          </ns3:TrackPointExtension>
        </extensions>
      </trkpt>
      <trkpt lat="45.2987083978950977325439453125" lon="-70.8200928010046482086181640625">
        <ele>1036.4000244140625</ele>
        <time>2026-08-21T13:33:40.000Z</time>
        <extensions>
          <ns3:TrackPointExtension>
            <ns3:hr>149</ns3:hr>
            <ns3:cad>41</ns3:cad>
          </ns3:TrackPointExtension>
        </extensions>
      </trkpt>
      <trkpt lat="45.2987073920667171478271484375" lon="-70.8200986683368682861328125">
        <ele>1036.5999755859375</ele>
        <time>2026-08-21T13:33:41.000Z</time>
        <extensions>
          <ns3:TrackPointExtension>
            <ns3:hr>149</ns3:hr>
            <ns3:cad>41</ns3:cad>
          </ns3:TrackPointExtension>
        </extensions>
      </trkpt>
      <trkpt lat="45.2987107448279857635498046875" lon="-70.82010327838361263275146484375">
        <ele>1036.800048828125</ele>
        <time>2026-08-21T13:33:42.000Z</time>
        <extensions>
          <ns3:TrackPointExtension>
            <ns3:hr>149</ns3:hr>
            <ns3:cad>0</ns3:cad>
          </ns3:TrackPointExtension>
        </extensions>
      </trkpt>
      <trkpt lat="45.2987162768840789794921875" lon="-70.8201119117438793182373046875">
        <ele>1037</ele>
        <time>2026-08-21T13:33:43.000Z</time>
        <extensions>
          <ns3:TrackPointExtension>
            <ns3:hr>148</ns3:hr>
            <ns3:cad>0</ns3:cad>
          </ns3:TrackPointExtension>
        </extensions>
      </trkpt>
      <trkpt lat="45.2987177856266498565673828125" lon="-70.82011601887643337249755859375">
        <ele>1037.199951171875</ele>
        <time>2026-08-21T13:33:44.000Z</time>
        <extensions>
          <ns3:TrackPointExtension>
            <ns3:hr>148</ns3:hr>
            <ns3:cad>0</ns3:cad>
          </ns3:TrackPointExtension>
        </extensions>
      </trkpt>
      <trkpt lat="45.29871200211346149444580078125" lon="-70.82011543214321136474609375">
        <ele>1037.4000244140625</ele>
        <time>2026-08-21T13:33:45.000Z</time>
        <extensions>
          <ns3:TrackPointExtension>
            <ns3:hr>147</ns3:hr>
            <ns3:cad>0</ns3:cad>
          </ns3:TrackPointExtension>
        </extensions>
      </trkpt>
      <trkpt lat="45.29870797879993915557861328125" lon="-70.82012607716023921966552734375">
        <ele>1037.4000244140625</ele>
        <time>2026-08-21T13:33:46.000Z</time>
        <extensions>
          <ns3:TrackPointExtension>
            <ns3:hr>147</ns3:hr>
            <ns3:cad>0</ns3:cad>
          </ns3:TrackPointExtension>
        </extensions>
      </trkpt>
      <trkpt lat="45.29871183447539806365966796875" lon="-70.82012523896992206573486328125">
        <ele>1037.5999755859375</ele>
        <time>2026-08-21T13:33:47.000Z</time>
        <extensions>
          <ns3:TrackPointExtension>
            <ns3:hr>146</ns3:hr>
            <ns3:cad>0</ns3:cad>
          </ns3:TrackPointExtension>
        </extensions>
      </trkpt>
      <trkpt lat="45.29871334321796894073486328125" lon="-70.8201330341398715972900390625">
        <ele>1037.800048828125</ele>
        <time>2026-08-21T13:33:48.000Z</time>
        <extensions>
          <ns3:TrackPointExtension>
            <ns3:hr>146</ns3:hr>
            <ns3:cad>0</ns3:cad>
          </ns3:TrackPointExtension>
        </extensions>
      </trkpt>
      <trkpt lat="45.29871024191379547119140625" lon="-70.82013982348144054412841796875">
        <ele>1038</ele>
        <time>2026-08-21T13:33:49.000Z</time>
        <extensions>
          <ns3:TrackPointExtension>
            <ns3:hr>146</ns3:hr>
            <ns3:cad>0</ns3:cad>
          </ns3:TrackPointExtension>
        </extensions>
      </trkpt>
      <trkpt lat="45.2987015247344970703125" lon="-70.8201454393565654754638671875">
        <ele>1038.199951171875</ele>
        <time>2026-08-21T13:33:50.000Z</time>
        <extensions>
          <ns3:TrackPointExtension>
            <ns3:hr>146</ns3:hr>
            <ns3:cad>0</ns3:cad>
          </ns3:TrackPointExtension>
        </extensions>
      </trkpt>
      <trkpt lat="45.29869951307773590087890625" lon="-70.82015155814588069915771484375">
        <ele>1038.4000244140625</ele>
        <time>2026-08-21T13:33:51.000Z</time>
        <extensions>
          <ns3:TrackPointExtension>
            <ns3:hr>147</ns3:hr>
            <ns3:cad>0</ns3:cad>
          </ns3:TrackPointExtension>
        </extensions>
      </trkpt>
      <trkpt lat="45.2986926399171352386474609375" lon="-70.8201598562300205230712890625">
        <ele>1038.5999755859375</ele>
        <time>2026-08-21T13:33:52.000Z</time>
        <extensions>
          <ns3:TrackPointExtension>
            <ns3:hr>146</ns3:hr>
            <ns3:cad>51</ns3:cad>
          </ns3:TrackPointExtension>
        </extensions>
      </trkpt>
      <trkpt lat="45.298691131174564361572265625" lon="-70.820169746875762939453125">
        <ele>1038.800048828125</ele>
        <time>2026-08-21T13:33:53.000Z</time>
        <extensions>
          <ns3:TrackPointExtension>
            <ns3:hr>145</ns3:hr>
            <ns3:cad>51</ns3:cad>
          </ns3:TrackPointExtension>
        </extensions>
      </trkpt>
      <trkpt lat="45.29869205318391323089599609375" lon="-70.8201806433498859405517578125">
        <ele>1039.199951171875</ele>
        <time>2026-08-21T13:33:54.000Z</time>
        <extensions>
          <ns3:TrackPointExtension>
            <ns3:hr>145</ns3:hr>
            <ns3:cad>51</ns3:cad>
          </ns3:TrackPointExtension>
        </extensions>
      </trkpt>
      <trkpt lat="45.29869423247873783111572265625" lon="-70.8201913721859455108642578125">
        <ele>1039.4000244140625</ele>
        <time>2026-08-21T13:33:55.000Z</time>
        <extensions>
          <ns3:TrackPointExtension>
            <ns3:hr>145</ns3:hr>
            <ns3:cad>51</ns3:cad>
          </ns3:TrackPointExtension>
        </extensions>
      </trkpt>
      <trkpt lat="45.2986879460513591766357421875" lon="-70.82019514404237270355224609375">
        <ele>1039.5999755859375</ele>
        <time>2026-08-21T13:33:56.000Z</time>
        <extensions>
          <ns3:TrackPointExtension>
            <ns3:hr>145</ns3:hr>
            <ns3:cad>51</ns3:cad>
          </ns3:TrackPointExtension>
        </extensions>
      </trkpt>
      <trkpt lat="45.29868618585169315338134765625" lon="-70.82020268775522708892822265625">
        <ele>1039.800048828125</ele>
        <time>2026-08-21T13:33:57.000Z</time>
        <extensions>
          <ns3:TrackPointExtension>
            <ns3:hr>146</ns3:hr>
            <ns3:cad>51</ns3:cad>
          </ns3:TrackPointExtension>
        </extensions>
      </trkpt>
      <trkpt lat="45.2986849285662174224853515625" lon="-70.82021039910614490509033203125">
        <ele>1040</ele>
        <time>2026-08-21T13:33:58.000Z</time>
        <extensions>
          <ns3:TrackPointExtension>
            <ns3:hr>146</ns3:hr>
            <ns3:cad>51</ns3:cad>
          </ns3:TrackPointExtension>
        </extensions>
      </trkpt>
      <trkpt lat="45.29868082143366336822509765625" lon="-70.8202215470373630523681640625">
        <ele>1040.4000244140625</ele>
        <time>2026-08-21T13:33:59.000Z</time>
        <extensions>
          <ns3:TrackPointExtension>
            <ns3:hr>146</ns3:hr>
            <ns3:cad>0</ns3:cad>
          </ns3:TrackPointExtension>
        </extensions>
      </trkpt>
      <trkpt lat="45.29867797158658504486083984375" lon="-70.82023143768310546875">
        <ele>1040.5999755859375</ele>
        <time>2026-08-21T13:34:00.000Z</time>
        <extensions>
          <ns3:TrackPointExtension>
            <ns3:hr>146</ns3:hr>
            <ns3:cad>0</ns3:cad>
          </ns3:TrackPointExtension>
        </extensions>
      </trkpt>
      <trkpt lat="45.298677720129489898681640625" lon="-70.82024174742400646209716796875">
        <ele>1040.800048828125</ele>
        <time>2026-08-21T13:34:01.000Z</time>
        <extensions>
          <ns3:TrackPointExtension>
            <ns3:hr>146</ns3:hr>
            <ns3:cad>0</ns3:cad>
          </ns3:TrackPointExtension>
        </extensions>
      </trkpt>
      <trkpt lat="45.29867562465369701385498046875" lon="-70.82025482319295406341552734375">
        <ele>1041</ele>
        <time>2026-08-21T13:34:02.000Z</time>
        <extensions>
          <ns3:TrackPointExtension>
            <ns3:hr>146</ns3:hr>
            <ns3:cad>0</ns3:cad>
          </ns3:TrackPointExtension>
        </extensions>
      </trkpt>
      <trkpt lat="45.29867528937757015228271484375" lon="-70.82026504911482334136962890625">
        <ele>1041</ele>
        <time>2026-08-21T13:34:03.000Z</time>
        <extensions>
          <ns3:TrackPointExtension>
            <ns3:hr>146</ns3:hr>
            <ns3:cad>0</ns3:cad>
          </ns3:TrackPointExtension>
        </extensions>
      </trkpt>
      <trkpt lat="45.29867327772080898284912109375" lon="-70.82027510739862918853759765625">
        <ele>1041.199951171875</ele>
        <time>2026-08-21T13:34:04.000Z</time>
        <extensions>
          <ns3:TrackPointExtension>
            <ns3:hr>145</ns3:hr>
            <ns3:cad>44</ns3:cad>
          </ns3:TrackPointExtension>
        </extensions>
      </trkpt>
      <trkpt lat="45.29867411591112613677978515625" lon="-70.8202845789492130279541015625">
        <ele>1041.4000244140625</ele>
        <time>2026-08-21T13:34:05.000Z</time>
        <extensions>
          <ns3:TrackPointExtension>
            <ns3:hr>145</ns3:hr>
            <ns3:cad>44</ns3:cad>
          </ns3:TrackPointExtension>
        </extensions>
      </trkpt>
      <trkpt lat="45.29867361299693584442138671875" lon="-70.82030779682099819183349609375">
        <ele>1041.4000244140625</ele>
        <time>2026-08-21T13:34:06.000Z</time>
        <extensions>
          <ns3:TrackPointExtension>
            <ns3:hr>145</ns3:hr>
            <ns3:cad>44</ns3:cad>
          </ns3:TrackPointExtension>
        </extensions>
      </trkpt>
      <trkpt lat="45.29867663048207759857177734375" lon="-70.820317603647708892822265625">
        <ele>1041.5999755859375</ele>
        <time>2026-08-21T13:34:07.000Z</time>
        <extensions>
          <ns3:TrackPointExtension>
            <ns3:hr>145</ns3:hr>
            <ns3:cad>44</ns3:cad>
          </ns3:TrackPointExtension>
        </extensions>
      </trkpt>
      <trkpt lat="45.29867612756788730621337890625" lon="-70.820325650274753570556640625">
        <ele>1041.800048828125</ele>
        <time>2026-08-21T13:34:08.000Z</time>
        <extensions>
          <ns3:TrackPointExtension>
            <ns3:hr>145</ns3:hr>
            <ns3:cad>44</ns3:cad>
          </ns3:TrackPointExtension>
        </extensions>
      </trkpt>
      <trkpt lat="45.29866556636989116668701171875" lon="-70.82033939659595489501953125">
        <ele>1042</ele>
        <time>2026-08-21T13:34:09.000Z</time>
        <extensions>
          <ns3:TrackPointExtension>
            <ns3:hr>146</ns3:hr>
            <ns3:cad>44</ns3:cad>
          </ns3:TrackPointExtension>
        </extensions>
      </trkpt>
      <trkpt lat="45.2986557595431804656982421875" lon="-70.82034744322299957275390625">
        <ele>1042</ele>
        <time>2026-08-21T13:34:10.000Z</time>
        <extensions>
          <ns3:TrackPointExtension>
            <ns3:hr>146</ns3:hr>
            <ns3:cad>44</ns3:cad>
          </ns3:TrackPointExtension>
        </extensions>
      </trkpt>
      <trkpt lat="45.29864855110645294189453125" lon="-70.8203546516597270965576171875">
        <ele>1042</ele>
        <time>2026-08-21T13:34:11.000Z</time>
        <extensions>
          <ns3:TrackPointExtension>
            <ns3:hr>146</ns3:hr>
            <ns3:cad>44</ns3:cad>
          </ns3:TrackPointExtension>
        </extensions>
      </trkpt>
      <trkpt lat="45.29864444397389888763427734375" lon="-70.82036311738193035125732421875">
        <ele>1042</ele>
        <time>2026-08-21T13:34:12.000Z</time>
        <extensions>
          <ns3:TrackPointExtension>
            <ns3:hr>146</ns3:hr>
            <ns3:cad>44</ns3:cad>
          </ns3:TrackPointExtension>
        </extensions>
      </trkpt>
      <trkpt lat="45.29864058829843997955322265625" lon="-70.82037518732249736785888671875">
        <ele>1042.199951171875</ele>
        <time>2026-08-21T13:34:13.000Z</time>
        <extensions>
          <ns3:TrackPointExtension>
            <ns3:hr>146</ns3:hr>
            <ns3:cad>50</ns3:cad>
          </ns3:TrackPointExtension>
        </extensions>
      </trkpt>
      <trkpt lat="45.29863388277590274810791015625" lon="-70.82038499414920806884765625">
        <ele>1042.4000244140625</ele>
        <time>2026-08-21T13:34:14.000Z</time>
        <extensions>
          <ns3:TrackPointExtension>
            <ns3:hr>146</ns3:hr>
            <ns3:cad>50</ns3:cad>
          </ns3:TrackPointExtension>
        </extensions>
      </trkpt>
      <trkpt lat="45.298628099262714385986328125" lon="-70.820398069918155670166015625">
        <ele>1042.5999755859375</ele>
        <time>2026-08-21T13:34:15.000Z</time>
        <extensions>
          <ns3:TrackPointExtension>
            <ns3:hr>146</ns3:hr>
            <ns3:cad>50</ns3:cad>
          </ns3:TrackPointExtension>
        </extensions>
      </trkpt>
      <trkpt lat="45.29862382449209690093994140625" lon="-70.82041089423000812530517578125">
        <ele>1042.800048828125</ele>
        <time>2026-08-21T13:34:16.000Z</time>
        <extensions>
          <ns3:TrackPointExtension>
            <ns3:hr>146</ns3:hr>
            <ns3:cad>47</ns3:cad>
          </ns3:TrackPointExtension>
        </extensions>
      </trkpt>
      <trkpt lat="45.29862047173082828521728515625" lon="-70.820430926978588104248046875">
        <ele>1042.800048828125</ele>
        <time>2026-08-21T13:34:17.000Z</time>
        <extensions>
          <ns3:TrackPointExtension>
            <ns3:hr>146</ns3:hr>
            <ns3:cad>47</ns3:cad>
          </ns3:TrackPointExtension>
        </extensions>
      </trkpt>
      <trkpt lat="45.298616699874401092529296875" lon="-70.82044727168977260589599609375">
        <ele>1042.5999755859375</ele>
        <time>2026-08-21T13:34:18.000Z</time>
        <extensions>
          <ns3:TrackPointExtension>
            <ns3:hr>146</ns3:hr>
            <ns3:cad>0</ns3:cad>
          </ns3:TrackPointExtension>
        </extensions>
      </trkpt>
      <trkpt lat="45.2986108325421810150146484375" lon="-70.82045699469745159149169921875">
        <ele>1042.5999755859375</ele>
        <time>2026-08-21T13:34:19.000Z</time>
        <extensions>
          <ns3:TrackPointExtension>
            <ns3:hr>146</ns3:hr>
            <ns3:cad>0</ns3:cad>
          </ns3:TrackPointExtension>
        </extensions>
      </trkpt>
      <trkpt lat="45.2986031211912631988525390625" lon="-70.820463784039020538330078125">
        <ele>1042.4000244140625</ele>
        <time>2026-08-21T13:34:20.000Z</time>
        <extensions>
          <ns3:TrackPointExtension>
            <ns3:hr>147</ns3:hr>
            <ns3:cad>42</ns3:cad>
          </ns3:TrackPointExtension>
        </extensions>
      </trkpt>
      <trkpt lat="45.2985955774784088134765625" lon="-70.82047275267541408538818359375">
        <ele>1042.4000244140625</ele>
        <time>2026-08-21T13:34:21.000Z</time>
        <extensions>
          <ns3:TrackPointExtension>
            <ns3:hr>147</ns3:hr>
            <ns3:cad>55</ns3:cad>
          </ns3:TrackPointExtension>
        </extensions>
      </trkpt>
      <trkpt lat="45.29858887195587158203125" lon="-70.820467472076416015625">
        <ele>1042.199951171875</ele>
        <time>2026-08-21T13:34:22.000Z</time>
        <extensions>
          <ns3:TrackPointExtension>
            <ns3:hr>148</ns3:hr>
            <ns3:cad>55</ns3:cad>
          </ns3:TrackPointExtension>
        </extensions>
      </trkpt>
      <trkpt lat="45.29858426190912723541259765625" lon="-70.82046185620129108428955078125">
        <ele>1042.199951171875</ele>
        <time>2026-08-21T13:34:23.000Z</time>
        <extensions>
          <ns3:TrackPointExtension>
            <ns3:hr>148</ns3:hr>
            <ns3:cad>55</ns3:cad>
          </ns3:TrackPointExtension>
        </extensions>
      </trkpt>
      <trkpt lat="45.2985806576907634735107421875" lon="-70.82046051509678363800048828125">
        <ele>1042.199951171875</ele>
        <time>2026-08-21T13:34:24.000Z</time>
        <extensions>
          <ns3:TrackPointExtension>
            <ns3:hr>147</ns3:hr>
            <ns3:cad>55</ns3:cad>
          </ns3:TrackPointExtension>
        </extensions>
      </trkpt>
      <trkpt lat="45.29857479035854339599609375" lon="-70.8204580843448638916015625">
        <ele>1042</ele>
        <time>2026-08-21T13:34:25.000Z</time>
        <extensions>
          <ns3:TrackPointExtension>
            <ns3:hr>147</ns3:hr>
            <ns3:cad>52</ns3:cad>
          </ns3:TrackPointExtension>
        </extensions>
      </trkpt>
      <trkpt lat="45.2985633909702301025390625" lon="-70.820459760725498199462890625">
        <ele>1042</ele>
        <time>2026-08-21T13:34:26.000Z</time>
        <extensions>
          <ns3:TrackPointExtension>
            <ns3:hr>147</ns3:hr>
            <ns3:cad>51</ns3:cad>
          </ns3:TrackPointExtension>
        </extensions>
      </trkpt>
      <trkpt lat="45.29854637570679187774658203125" lon="-70.82045741379261016845703125">
        <ele>1042</ele>
        <time>2026-08-21T13:34:27.000Z</time>
        <extensions>
          <ns3:TrackPointExtension>
            <ns3:hr>147</ns3:hr>
            <ns3:cad>51</ns3:cad>
          </ns3:TrackPointExtension>
        </extensions>
      </trkpt>
      <trkpt lat="45.29853665269911289215087890625" lon="-70.82044526003301143646240234375">
        <ele>1042</ele>
        <time>2026-08-21T13:34:28.000Z</time>
        <extensions>
          <ns3:TrackPointExtension>
            <ns3:hr>147</ns3:hr>
            <ns3:cad>0</ns3:cad>
          </ns3:TrackPointExtension>
        </extensions>
      </trkpt>
      <trkpt lat="45.2985239960253238677978515625" lon="-70.82045146264135837554931640625">
        <ele>1042</ele>
        <time>2026-08-21T13:34:29.000Z</time>
        <extensions>
          <ns3:TrackPointExtension>
            <ns3:hr>147</ns3:hr>
            <ns3:cad>0</ns3:cad>
          </ns3:TrackPointExtension>
        </extensions>
      </trkpt>
      <trkpt lat="45.29851620085537433624267578125" lon="-70.8204666338860988616943359375">
        <ele>1042</ele>
        <time>2026-08-21T13:34:30.000Z</time>
        <extensions>
          <ns3:TrackPointExtension>
            <ns3:hr>147</ns3:hr>
            <ns3:cad>0</ns3:cad>
          </ns3:TrackPointExtension>
        </extensions>
      </trkpt>
      <trkpt lat="45.2985125966370105743408203125" lon="-70.82047644071280956268310546875">
        <ele>1042</ele>
        <time>2026-08-21T13:34:31.000Z</time>
        <extensions>
          <ns3:TrackPointExtension>
            <ns3:hr>147</ns3:hr>
            <ns3:cad>0</ns3:cad>
          </ns3:TrackPointExtension>
        </extensions>
      </trkpt>
      <trkpt lat="45.298505388200283050537109375" lon="-70.820498652756214141845703125">
        <ele>1042</ele>
        <time>2026-08-21T13:34:32.000Z</time>
        <extensions>
          <ns3:TrackPointExtension>
            <ns3:hr>148</ns3:hr>
            <ns3:cad>0</ns3:cad>
          </ns3:TrackPointExtension>
        </extensions>
      </trkpt>
      <trkpt lat="45.29850061051547527313232421875" lon="-70.8205212838947772979736328125">
        <ele>1042.199951171875</ele>
        <time>2026-08-21T13:34:33.000Z</time>
        <extensions>
          <ns3:TrackPointExtension>
            <ns3:hr>148</ns3:hr>
            <ns3:cad>0</ns3:cad>
          </ns3:TrackPointExtension>
        </extensions>
      </trkpt>
      <trkpt lat="45.29849675484001636505126953125" lon="-70.8205385506153106689453125">
        <ele>1042.199951171875</ele>
        <time>2026-08-21T13:34:34.000Z</time>
        <extensions>
          <ns3:TrackPointExtension>
            <ns3:hr>147</ns3:hr>
            <ns3:cad>0</ns3:cad>
          </ns3:TrackPointExtension>
        </extensions>
      </trkpt>
      <trkpt lat="45.2984901331365108489990234375" lon="-70.8205521292984485626220703125">
        <ele>1042.4000244140625</ele>
        <time>2026-08-21T13:34:35.000Z</time>
        <extensions>
          <ns3:TrackPointExtension>
            <ns3:hr>146</ns3:hr>
            <ns3:cad>0</ns3:cad>
          </ns3:TrackPointExtension>
        </extensions>
      </trkpt>
      <trkpt lat="45.29847932048141956329345703125" lon="-70.820565707981586456298828125">
        <ele>1042.4000244140625</ele>
        <time>2026-08-21T13:34:36.000Z</time>
        <extensions>
          <ns3:TrackPointExtension>
            <ns3:hr>146</ns3:hr>
            <ns3:cad>0</ns3:cad>
          </ns3:TrackPointExtension>
        </extensions>
      </trkpt>
      <trkpt lat="45.29847085475921630859375" lon="-70.82057886756956577301025390625">
        <ele>1042.4000244140625</ele>
        <time>2026-08-21T13:34:37.000Z</time>
        <extensions>
          <ns3:TrackPointExtension>
            <ns3:hr>145</ns3:hr>
            <ns3:cad>0</ns3:cad>
          </ns3:TrackPointExtension>
        </extensions>
      </trkpt>
      <trkpt lat="45.29846289195120334625244140625" lon="-70.82058657892048358917236328125">
        <ele>1042.199951171875</ele>
        <time>2026-08-21T13:34:38.000Z</time>
        <extensions>
          <ns3:TrackPointExtension>
            <ns3:hr>145</ns3:hr>
            <ns3:cad>0</ns3:cad>
          </ns3:TrackPointExtension>
        </extensions>
      </trkpt>
      <trkpt lat="45.29845266602933406829833984375" lon="-70.82059596665203571319580078125">
        <ele>1042.199951171875</ele>
        <time>2026-08-21T13:34:39.000Z</time>
        <extensions>
          <ns3:TrackPointExtension>
            <ns3:hr>145</ns3:hr>
            <ns3:cad>0</ns3:cad>
          </ns3:TrackPointExtension>
        </extensions>
      </trkpt>
      <trkpt lat="45.29844067990779876708984375" lon="-70.82060770131647586822509765625">
        <ele>1041.800048828125</ele>
        <time>2026-08-21T13:34:40.000Z</time>
        <extensions>
          <ns3:TrackPointExtension>
            <ns3:hr>144</ns3:hr>
            <ns3:cad>0</ns3:cad>
          </ns3:TrackPointExtension>
        </extensions>
      </trkpt>
      <trkpt lat="45.29843120835721492767333984375" lon="-70.8206198550760746002197265625">
        <ele>1041.5999755859375</ele>
        <time>2026-08-21T13:34:41.000Z</time>
        <extensions>
          <ns3:TrackPointExtension>
            <ns3:hr>144</ns3:hr>
            <ns3:cad>0</ns3:cad>
          </ns3:TrackPointExtension>
        </extensions>
      </trkpt>
      <trkpt lat="45.29842483811080455780029296875" lon="-70.82063804380595684051513671875">
        <ele>1041.4000244140625</ele>
        <time>2026-08-21T13:34:42.000Z</time>
        <extensions>
          <ns3:TrackPointExtension>
            <ns3:hr>144</ns3:hr>
            <ns3:cad>0</ns3:cad>
          </ns3:TrackPointExtension>
        </extensions>
      </trkpt>
      <trkpt lat="45.2984214015305042266845703125" lon="-70.82064877264201641082763671875">
        <ele>1041.199951171875</ele>
        <time>2026-08-21T13:34:43.000Z</time>
        <extensions>
          <ns3:TrackPointExtension>
            <ns3:hr>143</ns3:hr>
            <ns3:cad>0</ns3:cad>
          </ns3:TrackPointExtension>
        </extensions>
      </trkpt>
      <trkpt lat="45.29841327108442783355712890625" lon="-70.82065950147807598114013671875">
        <ele>1041</ele>
        <time>2026-08-21T13:34:44.000Z</time>
        <extensions>
          <ns3:TrackPointExtension>
            <ns3:hr>143</ns3:hr>
            <ns3:cad>0</ns3:cad>
          </ns3:TrackPointExtension>
        </extensions>
      </trkpt>
      <trkpt lat="45.298404134809970855712890625" lon="-70.82067542709410190582275390625">
        <ele>1040.800048828125</ele>
        <time>2026-08-21T13:34:45.000Z</time>
        <extensions>
          <ns3:TrackPointExtension>
            <ns3:hr>143</ns3:hr>
            <ns3:cad>0</ns3:cad>
          </ns3:TrackPointExtension>
        </extensions>
      </trkpt>
      <trkpt lat="45.29839969240128993988037109375" lon="-70.8206895925104618072509765625">
        <ele>1040.800048828125</ele>
        <time>2026-08-21T13:34:46.000Z</time>
        <extensions>
          <ns3:TrackPointExtension>
            <ns3:hr>142</ns3:hr>
            <ns3:cad>0</ns3:cad>
          </ns3:TrackPointExtension>
        </extensions>
      </trkpt>
      <trkpt lat="45.29839365743100643157958984375" lon="-70.82070174627006053924560546875">
        <ele>1040.800048828125</ele>
        <time>2026-08-21T13:34:47.000Z</time>
        <extensions>
          <ns3:TrackPointExtension>
            <ns3:hr>141</ns3:hr>
            <ns3:cad>0</ns3:cad>
          </ns3:TrackPointExtension>
        </extensions>
      </trkpt>
      <trkpt lat="45.29838494025170803070068359375" lon="-70.82071230746805667877197265625">
        <ele>1040.800048828125</ele>
        <time>2026-08-21T13:34:48.000Z</time>
        <extensions>
          <ns3:TrackPointExtension>
            <ns3:hr>140</ns3:hr>
            <ns3:cad>0</ns3:cad>
          </ns3:TrackPointExtension>
        </extensions>
      </trkpt>
      <trkpt lat="45.29837773181498050689697265625" lon="-70.82072957418859004974365234375">
        <ele>1040.800048828125</ele>
        <time>2026-08-21T13:34:49.000Z</time>
        <extensions>
          <ns3:TrackPointExtension>
            <ns3:hr>140</ns3:hr>
            <ns3:cad>0</ns3:cad>
          </ns3:TrackPointExtension>
        </extensions>
      </trkpt>
      <trkpt lat="45.2983734570443630218505859375" lon="-70.820747427642345428466796875">
        <ele>1040.5999755859375</ele>
        <time>2026-08-21T13:34:50.000Z</time>
        <extensions>
          <ns3:TrackPointExtension>
            <ns3:hr>139</ns3:hr>
            <ns3:cad>0</ns3:cad>
          </ns3:TrackPointExtension>
        </extensions>
      </trkpt>
      <trkpt lat="45.29836918227374553680419921875" lon="-70.82076326943933963775634765625">
        <ele>1040.199951171875</ele>
        <time>2026-08-21T13:34:51.000Z</time>
        <extensions>
          <ns3:TrackPointExtension>
            <ns3:hr>139</ns3:hr>
            <ns3:cad>0</ns3:cad>
          </ns3:TrackPointExtension>
        </extensions>
      </trkpt>
      <trkpt lat="45.2983617223799228668212890625" lon="-70.8207853138446807861328125">
        <ele>1040</ele>
        <time>2026-08-21T13:34:52.000Z</time>
        <extensions>
          <ns3:TrackPointExtension>
            <ns3:hr>139</ns3:hr>
            <ns3:cad>0</ns3:cad>
          </ns3:TrackPointExtension>
        </extensions>
      </trkpt>
      <trkpt lat="45.29835887253284454345703125" lon="-70.820804424583911895751953125">
        <ele>1039.800048828125</ele>
        <time>2026-08-21T13:34:53.000Z</time>
        <extensions>
          <ns3:TrackPointExtension>
            <ns3:hr>140</ns3:hr>
            <ns3:cad>0</ns3:cad>
          </ns3:TrackPointExtension>
        </extensions>
      </trkpt>
      <trkpt lat="45.2983556874096393585205078125" lon="-70.82083133049309253692626953125">
        <ele>1039.800048828125</ele>
        <time>2026-08-21T13:34:54.000Z</time>
        <extensions>
          <ns3:TrackPointExtension>
            <ns3:hr>139</ns3:hr>
            <ns3:cad>0</ns3:cad>
          </ns3:TrackPointExtension>
        </extensions>
      </trkpt>
      <trkpt lat="45.2983488142490386962890625" lon="-70.8208508603274822235107421875">
        <ele>1039.5999755859375</ele>
        <time>2026-08-21T13:34:55.000Z</time>
        <extensions>
          <ns3:TrackPointExtension>
            <ns3:hr>139</ns3:hr>
            <ns3:cad>0</ns3:cad>
          </ns3:TrackPointExtension>
        </extensions>
      </trkpt>
      <trkpt lat="45.2983365766704082489013671875" lon="-70.82086485810577869415283203125">
        <ele>1039.4000244140625</ele>
        <time>2026-08-21T13:34:56.000Z</time>
        <extensions>
          <ns3:TrackPointExtension>
            <ns3:hr>138</ns3:hr>
            <ns3:cad>0</ns3:cad>
          </ns3:TrackPointExtension>
        </extensions>
      </trkpt>
      <trkpt lat="45.2983295358717441558837890625" lon="-70.82088631577789783477783203125">
        <ele>1039.199951171875</ele>
        <time>2026-08-21T13:34:57.000Z</time>
        <extensions>
          <ns3:TrackPointExtension>
            <ns3:hr>138</ns3:hr>
            <ns3:cad>0</ns3:cad>
          </ns3:TrackPointExtension>
        </extensions>
      </trkpt>
      <trkpt lat="45.29832693748176097869873046875" lon="-70.82090324722230434417724609375">
        <ele>1039</ele>
        <time>2026-08-21T13:34:58.000Z</time>
        <extensions>
          <ns3:TrackPointExtension>
            <ns3:hr>138</ns3:hr>
            <ns3:cad>0</ns3:cad>
          </ns3:TrackPointExtension>
        </extensions>
      </trkpt>
      <trkpt lat="45.298323668539524078369140625" lon="-70.8209212683141231536865234375">
        <ele>1039</ele>
        <time>2026-08-21T13:34:59.000Z</time>
        <extensions>
          <ns3:TrackPointExtension>
            <ns3:hr>137</ns3:hr>
            <ns3:cad>0</ns3:cad>
          </ns3:TrackPointExtension>
        </extensions>
      </trkpt>
      <trkpt lat="45.29832132160663604736328125" lon="-70.82094381563365459442138671875">
        <ele>1039.199951171875</ele>
        <time>2026-08-21T13:35:00.000Z</time>
        <extensions>
          <ns3:TrackPointExtension>
            <ns3:hr>137</ns3:hr>
            <ns3:cad>0</ns3:cad>
          </ns3:TrackPointExtension>
        </extensions>
      </trkpt>
      <trkpt lat="45.298314951360225677490234375" lon="-70.82096560858190059661865234375">
        <ele>1039.199951171875</ele>
        <time>2026-08-21T13:35:01.000Z</time>
        <extensions>
          <ns3:TrackPointExtension>
            <ns3:hr>137</ns3:hr>
            <ns3:cad>73</ns3:cad>
          </ns3:TrackPointExtension>
        </extensions>
      </trkpt>
      <trkpt lat="45.2983121015131473541259765625" lon="-70.82098622806370258331298828125">
        <ele>1039.199951171875</ele>
        <time>2026-08-21T13:35:02.000Z</time>
        <extensions>
          <ns3:TrackPointExtension>
            <ns3:hr>137</ns3:hr>
            <ns3:cad>73</ns3:cad>
          </ns3:TrackPointExtension>
        </extensions>
      </trkpt>
      <trkpt lat="45.298311598598957061767578125" lon="-70.82100835628807544708251953125">
        <ele>1039.199951171875</ele>
        <time>2026-08-21T13:35:03.000Z</time>
        <extensions>
          <ns3:TrackPointExtension>
            <ns3:hr>136</ns3:hr>
            <ns3:cad>73</ns3:cad>
          </ns3:TrackPointExtension>
        </extensions>
      </trkpt>
      <trkpt lat="45.29831671155989170074462890625" lon="-70.82102042622864246368408203125">
        <ele>1039</ele>
        <time>2026-08-21T13:35:04.000Z</time>
        <extensions>
          <ns3:TrackPointExtension>
            <ns3:hr>136</ns3:hr>
            <ns3:cad>73</ns3:cad>
          </ns3:TrackPointExtension>
        </extensions>
      </trkpt>
      <trkpt lat="45.29832274653017520904541015625" lon="-70.821025706827640533447265625">
        <ele>1038.800048828125</ele>
        <time>2026-08-21T13:35:05.000Z</time>
        <extensions>
          <ns3:TrackPointExtension>
            <ns3:hr>136</ns3:hr>
            <ns3:cad>73</ns3:cad>
          </ns3:TrackPointExtension>
        </extensions>
      </trkpt>
      <trkpt lat="45.2983275242149829864501953125" lon="-70.82103199325501918792724609375">
        <ele>1038.4000244140625</ele>
        <time>2026-08-21T13:35:06.000Z</time>
        <extensions>
          <ns3:TrackPointExtension>
            <ns3:hr>135</ns3:hr>
            <ns3:cad>0</ns3:cad>
          </ns3:TrackPointExtension>
        </extensions>
      </trkpt>
      <trkpt lat="45.29833607375621795654296875" lon="-70.82103970460593700408935546875">
        <ele>1038.199951171875</ele>
        <time>2026-08-21T13:35:07.000Z</time>
        <extensions>
          <ns3:TrackPointExtension>
            <ns3:hr>135</ns3:hr>
            <ns3:cad>0</ns3:cad>
          </ns3:TrackPointExtension>
        </extensions>
      </trkpt>
      <trkpt lat="45.2983342297375202178955078125" lon="-70.8210454881191253662109375">
        <ele>1038</ele>
        <time>2026-08-21T13:35:08.000Z</time>
        <extensions>
          <ns3:TrackPointExtension>
            <ns3:hr>135</ns3:hr>
            <ns3:cad>0</ns3:cad>
          </ns3:TrackPointExtension>
        </extensions>
      </trkpt>
      <trkpt lat="45.29832878150045871734619140625" lon="-70.82106401212513446807861328125">
        <ele>1037.800048828125</ele>
        <time>2026-08-21T13:35:09.000Z</time>
        <extensions>
          <ns3:TrackPointExtension>
            <ns3:hr>136</ns3:hr>
            <ns3:cad>0</ns3:cad>
          </ns3:TrackPointExtension>
        </extensions>
      </trkpt>
      <trkpt lat="45.298325680196285247802734375" lon="-70.8210758306086063385009765625">
        <ele>1037.5999755859375</ele>
        <time>2026-08-21T13:35:10.000Z</time>
        <extensions>
          <ns3:TrackPointExtension>
            <ns3:hr>136</ns3:hr>
            <ns3:cad>0</ns3:cad>
          </ns3:TrackPointExtension>
        </extensions>
      </trkpt>
      <trkpt lat="45.29831218533217906951904296875" lon="-70.82108773291110992431640625">
        <ele>1037.4000244140625</ele>
        <time>2026-08-21T13:35:11.000Z</time>
        <extensions>
          <ns3:TrackPointExtension>
            <ns3:hr>136</ns3:hr>
            <ns3:cad>0</ns3:cad>
          </ns3:TrackPointExtension>
        </extensions>
      </trkpt>
      <trkpt lat="45.29830581508576869964599609375" lon="-70.82110390998423099517822265625">
        <ele>1037.199951171875</ele>
        <time>2026-08-21T13:35:12.000Z</time>
        <extensions>
          <ns3:TrackPointExtension>
            <ns3:hr>135</ns3:hr>
            <ns3:cad>0</ns3:cad>
          </ns3:TrackPointExtension>
        </extensions>
      </trkpt>
      <trkpt lat="45.29830698855221271514892578125" lon="-70.82112100906670093536376953125">
        <ele>1036.800048828125</ele>
        <time>2026-08-21T13:35:13.000Z</time>
        <extensions>
          <ns3:TrackPointExtension>
            <ns3:hr>134</ns3:hr>
            <ns3:cad>0</ns3:cad>
          </ns3:TrackPointExtension>
        </extensions>
      </trkpt>
      <trkpt lat="45.2983147837221622467041015625" lon="-70.82113324664533138275146484375">
        <ele>1036.5999755859375</ele>
        <time>2026-08-21T13:35:14.000Z</time>
        <extensions>
          <ns3:TrackPointExtension>
            <ns3:hr>134</ns3:hr>
            <ns3:cad>0</ns3:cad>
          </ns3:TrackPointExtension>
        </extensions>
      </trkpt>
      <trkpt lat="45.298308245837688446044921875" lon="-70.82115202210843563079833984375">
        <ele>1036.4000244140625</ele>
        <time>2026-08-21T13:35:15.000Z</time>
        <extensions>
          <ns3:TrackPointExtension>
            <ns3:hr>134</ns3:hr>
            <ns3:cad>0</ns3:cad>
          </ns3:TrackPointExtension>
        </extensions>
      </trkpt>
      <trkpt lat="45.298304222524166107177734375" lon="-70.82117985002696514129638671875">
        <ele>1036.199951171875</ele>
        <time>2026-08-21T13:35:16.000Z</time>
        <extensions>
          <ns3:TrackPointExtension>
            <ns3:hr>134</ns3:hr>
            <ns3:cad>0</ns3:cad>
          </ns3:TrackPointExtension>
        </extensions>
      </trkpt>
      <trkpt lat="45.29830665327608585357666015625" lon="-70.8212045766413211822509765625">
        <ele>1036.199951171875</ele>
        <time>2026-08-21T13:35:17.000Z</time>
        <extensions>
          <ns3:TrackPointExtension>
            <ns3:hr>133</ns3:hr>
            <ns3:cad>0</ns3:cad>
          </ns3:TrackPointExtension>
        </extensions>
      </trkpt>
      <trkpt lat="45.29830967076122760772705078125" lon="-70.82122318446636199951171875">
        <ele>1036</ele>
        <time>2026-08-21T13:35:18.000Z</time>
        <extensions>
          <ns3:TrackPointExtension>
            <ns3:hr>133</ns3:hr>
            <ns3:cad>60</ns3:cad>
          </ns3:TrackPointExtension>
        </extensions>
      </trkpt>
      <trkpt lat="45.29831193387508392333984375" lon="-70.82125109620392322540283203125">
        <ele>1036</ele>
        <time>2026-08-21T13:35:19.000Z</time>
        <extensions>
          <ns3:TrackPointExtension>
            <ns3:hr>131</ns3:hr>
            <ns3:cad>60</ns3:cad>
          </ns3:TrackPointExtension>
        </extensions>
      </trkpt>
      <trkpt lat="45.29831319116055965423583984375" lon="-70.8212783373892307281494140625">
        <ele>1035.800048828125</ele>
        <time>2026-08-21T13:35:20.000Z</time>
        <extensions>
          <ns3:TrackPointExtension>
            <ns3:hr>131</ns3:hr>
            <ns3:cad>65</ns3:cad>
          </ns3:TrackPointExtension>
        </extensions>
      </trkpt>
      <trkpt lat="45.29831537045538425445556640625" lon="-70.821290910243988037109375">
        <ele>1035.5999755859375</ele>
        <time>2026-08-21T13:35:21.000Z</time>
        <extensions>
          <ns3:TrackPointExtension>
            <ns3:hr>132</ns3:hr>
            <ns3:cad>0</ns3:cad>
          </ns3:TrackPointExtension>
        </extensions>
      </trkpt>
      <trkpt lat="45.29830967076122760772705078125" lon="-70.8213051594793796539306640625">
        <ele>1035.5999755859375</ele>
        <time>2026-08-21T13:35:22.000Z</time>
        <extensions>
          <ns3:TrackPointExtension>
            <ns3:hr>131</ns3:hr>
            <ns3:cad>0</ns3:cad>
          </ns3:TrackPointExtension>
        </extensions>
      </trkpt>
      <trkpt lat="45.2983030490577220916748046875" lon="-70.8213155530393123626708984375">
        <ele>1035.5999755859375</ele>
        <time>2026-08-21T13:35:23.000Z</time>
        <extensions>
          <ns3:TrackPointExtension>
            <ns3:hr>130</ns3:hr>
            <ns3:cad>0</ns3:cad>
          </ns3:TrackPointExtension>
        </extensions>
      </trkpt>
      <trkpt lat="45.2983058989048004150390625" lon="-70.8213376812636852264404296875">
        <ele>1035.5999755859375</ele>
        <time>2026-08-21T13:35:24.000Z</time>
        <extensions>
          <ns3:TrackPointExtension>
            <ns3:hr>130</ns3:hr>
            <ns3:cad>0</ns3:cad>
          </ns3:TrackPointExtension>
        </extensions>
      </trkpt>
      <trkpt lat="45.29831185005605220794677734375" lon="-70.8213437162339687347412109375">
        <ele>1035.4000244140625</ele>
        <time>2026-08-21T13:35:25.000Z</time>
        <extensions>
          <ns3:TrackPointExtension>
            <ns3:hr>130</ns3:hr>
            <ns3:cad>0</ns3:cad>
          </ns3:TrackPointExtension>
        </extensions>
      </trkpt>
      <trkpt lat="45.29831252060830593109130859375" lon="-70.8213539421558380126953125">
        <ele>1035.199951171875</ele>
        <time>2026-08-21T13:35:26.000Z</time>
        <extensions>
          <ns3:TrackPointExtension>
            <ns3:hr>131</ns3:hr>
            <ns3:cad>0</ns3:cad>
          </ns3:TrackPointExtension>
        </extensions>
      </trkpt>
      <trkpt lat="45.2983154542744159698486328125" lon="-70.82136911340057849884033203125">
        <ele>1035</ele>
        <time>2026-08-21T13:35:27.000Z</time>
        <extensions>
          <ns3:TrackPointExtension>
            <ns3:hr>131</ns3:hr>
            <ns3:cad>0</ns3:cad>
          </ns3:TrackPointExtension>
        </extensions>
      </trkpt>
      <trkpt lat="45.29831788502633571624755859375" lon="-70.82138285972177982330322265625">
        <ele>1034.5999755859375</ele>
        <time>2026-08-21T13:35:28.000Z</time>
        <extensions>
          <ns3:TrackPointExtension>
            <ns3:hr>130</ns3:hr>
            <ns3:cad>0</ns3:cad>
          </ns3:TrackPointExtension>
        </extensions>
      </trkpt>
      <trkpt lat="45.29831972904503345489501953125" lon="-70.82139291800558567047119140625">
        <ele>1034.199951171875</ele>
        <time>2026-08-21T13:35:29.000Z</time>
        <extensions>
          <ns3:TrackPointExtension>
            <ns3:hr>130</ns3:hr>
            <ns3:cad>0</ns3:cad>
          </ns3:TrackPointExtension>
        </extensions>
      </trkpt>
      <trkpt lat="45.2983198128640651702880859375" lon="-70.82139945589005947113037109375">
        <ele>1033.5999755859375</ele>
        <time>2026-08-21T13:35:30.000Z</time>
        <extensions>
          <ns3:TrackPointExtension>
            <ns3:hr>131</ns3:hr>
            <ns3:cad>0</ns3:cad>
          </ns3:TrackPointExtension>
        </extensions>
      </trkpt>
      <trkpt lat="45.29831838794052600860595703125" lon="-70.82140515558421611785888671875">
        <ele>1033.199951171875</ele>
        <time>2026-08-21T13:35:31.000Z</time>
        <extensions>
          <ns3:TrackPointExtension>
            <ns3:hr>131</ns3:hr>
            <ns3:cad>0</ns3:cad>
          </ns3:TrackPointExtension>
        </extensions>
      </trkpt>
      <trkpt lat="45.29831302352249622344970703125" lon="-70.8214156329631805419921875">
        <ele>1032.800048828125</ele>
        <time>2026-08-21T13:35:32.000Z</time>
        <extensions>
          <ns3:TrackPointExtension>
            <ns3:hr>130</ns3:hr>
            <ns3:cad>0</ns3:cad>
          </ns3:TrackPointExtension>
        </extensions>
      </trkpt>
      <trkpt lat="45.29830765910446643829345703125" lon="-70.82142560742795467376708984375">
        <ele>1032.4000244140625</ele>
        <time>2026-08-21T13:35:33.000Z</time>
        <extensions>
          <ns3:TrackPointExtension>
            <ns3:hr>129</ns3:hr>
            <ns3:cad>0</ns3:cad>
          </ns3:TrackPointExtension>
        </extensions>
      </trkpt>
      <trkpt lat="45.298302210867404937744140625" lon="-70.82144186832010746002197265625">
        <ele>1032</ele>
        <time>2026-08-21T13:35:34.000Z</time>
        <extensions>
          <ns3:TrackPointExtension>
            <ns3:hr>128</ns3:hr>
            <ns3:cad>0</ns3:cad>
          </ns3:TrackPointExtension>
        </extensions>
      </trkpt>
      <trkpt lat="45.29830045066773891448974609375" lon="-70.82145846448838710784912109375">
        <ele>1031.5999755859375</ele>
        <time>2026-08-21T13:35:35.000Z</time>
        <extensions>
          <ns3:TrackPointExtension>
            <ns3:hr>128</ns3:hr>
            <ns3:cad>0</ns3:cad>
          </ns3:TrackPointExtension>
        </extensions>
      </trkpt>
      <trkpt lat="45.29830061830580234527587890625" lon="-70.8214721269905567169189453125">
        <ele>1031.199951171875</ele>
        <time>2026-08-21T13:35:36.000Z</time>
        <extensions>
          <ns3:TrackPointExtension>
            <ns3:hr>128</ns3:hr>
            <ns3:cad>0</ns3:cad>
          </ns3:TrackPointExtension>
        </extensions>
      </trkpt>
      <trkpt lat="45.29829718172550201416015625" lon="-70.8214826881885528564453125">
        <ele>1030.800048828125</ele>
        <time>2026-08-21T13:35:37.000Z</time>
        <extensions>
          <ns3:TrackPointExtension>
            <ns3:hr>127</ns3:hr>
            <ns3:cad>51</ns3:cad>
          </ns3:TrackPointExtension>
        </extensions>
      </trkpt>
      <trkpt lat="45.2982943318784236907958984375" lon="-70.82150573842227458953857421875">
        <ele>1030.5999755859375</ele>
        <time>2026-08-21T13:35:38.000Z</time>
        <extensions>
          <ns3:TrackPointExtension>
            <ns3:hr>127</ns3:hr>
            <ns3:cad>51</ns3:cad>
          </ns3:TrackPointExtension>
        </extensions>
      </trkpt>
      <trkpt lat="45.2982913143932819366455078125" lon="-70.82152484916150569915771484375">
        <ele>1030.4000244140625</ele>
        <time>2026-08-21T13:35:39.000Z</time>
        <extensions>
          <ns3:TrackPointExtension>
            <ns3:hr>127</ns3:hr>
            <ns3:cad>51</ns3:cad>
          </ns3:TrackPointExtension>
        </extensions>
      </trkpt>
      <trkpt lat="45.29829240404069423675537109375" lon="-70.821537673473358154296875">
        <ele>1030</ele>
        <time>2026-08-21T13:35:40.000Z</time>
        <extensions>
          <ns3:TrackPointExtension>
            <ns3:hr>127</ns3:hr>
            <ns3:cad>0</ns3:cad>
          </ns3:TrackPointExtension>
        </extensions>
      </trkpt>
      <trkpt lat="45.2982929907739162445068359375" lon="-70.82155435346066951751708984375">
        <ele>1029.800048828125</ele>
        <time>2026-08-21T13:35:41.000Z</time>
        <extensions>
          <ns3:TrackPointExtension>
            <ns3:hr>127</ns3:hr>
            <ns3:cad>0</ns3:cad>
          </ns3:TrackPointExtension>
        </extensions>
      </trkpt>
      <trkpt lat="45.298292152583599090576171875" lon="-70.82157128490507602691650390625">
        <ele>1029.5999755859375</ele>
        <time>2026-08-21T13:35:42.000Z</time>
        <extensions>
          <ns3:TrackPointExtension>
            <ns3:hr>127</ns3:hr>
            <ns3:cad>0</ns3:cad>
          </ns3:TrackPointExtension>
        </extensions>
      </trkpt>
      <trkpt lat="45.2982903085649013519287109375" lon="-70.821586288511753082275390625">
        <ele>1029.5999755859375</ele>
        <time>2026-08-21T13:35:43.000Z</time>
        <extensions>
          <ns3:TrackPointExtension>
            <ns3:hr>127</ns3:hr>
            <ns3:cad>0</ns3:cad>
          </ns3:TrackPointExtension>
        </extensions>
      </trkpt>
      <trkpt lat="45.29828846454620361328125" lon="-70.82160213030874729156494140625">
        <ele>1029.5999755859375</ele>
        <time>2026-08-21T13:35:44.000Z</time>
        <extensions>
          <ns3:TrackPointExtension>
            <ns3:hr>126</ns3:hr>
            <ns3:cad>0</ns3:cad>
          </ns3:TrackPointExtension>
        </extensions>
      </trkpt>
      <trkpt lat="45.298278741538524627685546875" lon="-70.82161470316350460052490234375">
        <ele>1029.800048828125</ele>
        <time>2026-08-21T13:35:45.000Z</time>
        <extensions>
          <ns3:TrackPointExtension>
            <ns3:hr>126</ns3:hr>
            <ns3:cad>0</ns3:cad>
          </ns3:TrackPointExtension>
        </extensions>
      </trkpt>
      <trkpt lat="45.2982772327959537506103515625" lon="-70.82162308506667613983154296875">
        <ele>1030.199951171875</ele>
        <time>2026-08-21T13:35:46.000Z</time>
        <extensions>
          <ns3:TrackPointExtension>
            <ns3:hr>126</ns3:hr>
            <ns3:cad>0</ns3:cad>
          </ns3:TrackPointExtension>
        </extensions>
      </trkpt>
      <trkpt lat="45.29827572405338287353515625" lon="-70.82163532264530658721923828125">
        <ele>1030.4000244140625</ele>
        <time>2026-08-21T13:35:47.000Z</time>
        <extensions>
          <ns3:TrackPointExtension>
            <ns3:hr>125</ns3:hr>
            <ns3:cad>59</ns3:cad>
          </ns3:TrackPointExtension>
        </extensions>
      </trkpt>
      <trkpt lat="45.29827094636857509613037109375" lon="-70.82165300846099853515625">
        <ele>1030.800048828125</ele>
        <time>2026-08-21T13:35:48.000Z</time>
        <extensions>
          <ns3:TrackPointExtension>
            <ns3:hr>125</ns3:hr>
            <ns3:cad>59</ns3:cad>
          </ns3:TrackPointExtension>
        </extensions>
      </trkpt>
      <trkpt lat="45.29826591722667217254638671875" lon="-70.82167111337184906005859375">
        <ele>1031</ele>
        <time>2026-08-21T13:35:49.000Z</time>
        <extensions>
          <ns3:TrackPointExtension>
            <ns3:hr>125</ns3:hr>
            <ns3:cad>51</ns3:cad>
          </ns3:TrackPointExtension>
        </extensions>
      </trkpt>
      <trkpt lat="45.2982648275792598724365234375" lon="-70.82168427295982837677001953125">
        <ele>1031.199951171875</ele>
        <time>2026-08-21T13:35:50.000Z</time>
        <extensions>
          <ns3:TrackPointExtension>
            <ns3:hr>125</ns3:hr>
            <ns3:cad>51</ns3:cad>
          </ns3:TrackPointExtension>
        </extensions>
      </trkpt>
      <trkpt lat="45.29826826415956020355224609375" lon="-70.821696929633617401123046875">
        <ele>1031.4000244140625</ele>
        <time>2026-08-21T13:35:51.000Z</time>
        <extensions>
          <ns3:TrackPointExtension>
            <ns3:hr>125</ns3:hr>
            <ns3:cad>0</ns3:cad>
          </ns3:TrackPointExtension>
        </extensions>
      </trkpt>
      <trkpt lat="45.2982708625495433807373046875" lon="-70.82170975394546985626220703125">
        <ele>1031.5999755859375</ele>
        <time>2026-08-21T13:35:52.000Z</time>
        <extensions>
          <ns3:TrackPointExtension>
            <ns3:hr>125</ns3:hr>
            <ns3:cad>0</ns3:cad>
          </ns3:TrackPointExtension>
        </extensions>
      </trkpt>
      <trkpt lat="45.2982695214450359344482421875" lon="-70.82172836177051067352294921875">
        <ele>1032</ele>
        <time>2026-08-21T13:35:53.000Z</time>
        <extensions>
          <ns3:TrackPointExtension>
            <ns3:hr>125</ns3:hr>
            <ns3:cad>0</ns3:cad>
          </ns3:TrackPointExtension>
        </extensions>
      </trkpt>
      <trkpt lat="45.29826759360730648040771484375" lon="-70.82174730487167835235595703125">
        <ele>1032</ele>
        <time>2026-08-21T13:35:54.000Z</time>
        <extensions>
          <ns3:TrackPointExtension>
            <ns3:hr>124</ns3:hr>
            <ns3:cad>50</ns3:cad>
          </ns3:TrackPointExtension>
        </extensions>
      </trkpt>
      <trkpt lat="45.29827044345438480377197265625" lon="-70.8217611350119113922119140625">
        <ele>1032.199951171875</ele>
        <time>2026-08-21T13:35:55.000Z</time>
        <extensions>
          <ns3:TrackPointExtension>
            <ns3:hr>124</ns3:hr>
            <ns3:cad>50</ns3:cad>
          </ns3:TrackPointExtension>
        </extensions>
      </trkpt>
      <trkpt lat="45.29827304184436798095703125" lon="-70.82177228294312953948974609375">
        <ele>1032.199951171875</ele>
        <time>2026-08-21T13:35:56.000Z</time>
        <extensions>
          <ns3:TrackPointExtension>
            <ns3:hr>124</ns3:hr>
            <ns3:cad>50</ns3:cad>
          </ns3:TrackPointExtension>
        </extensions>
      </trkpt>
      <trkpt lat="45.29827362857758998870849609375" lon="-70.82178753800690174102783203125">
        <ele>1032.199951171875</ele>
        <time>2026-08-21T13:35:57.000Z</time>
        <extensions>
          <ns3:TrackPointExtension>
            <ns3:hr>124</ns3:hr>
            <ns3:cad>52</ns3:cad>
          </ns3:TrackPointExtension>
        </extensions>
      </trkpt>
      <trkpt lat="45.29827178455889225006103515625" lon="-70.82180949859321117401123046875">
        <ele>1032.199951171875</ele>
        <time>2026-08-21T13:35:58.000Z</time>
        <extensions>
          <ns3:TrackPointExtension>
            <ns3:hr>124</ns3:hr>
            <ns3:cad>52</ns3:cad>
          </ns3:TrackPointExtension>
        </extensions>
      </trkpt>
      <trkpt lat="45.29826943762600421905517578125" lon="-70.8218288607895374298095703125">
        <ele>1032.4000244140625</ele>
        <time>2026-08-21T13:35:59.000Z</time>
        <extensions>
          <ns3:TrackPointExtension>
            <ns3:hr>124</ns3:hr>
            <ns3:cad>52</ns3:cad>
          </ns3:TrackPointExtension>
        </extensions>
      </trkpt>
      <trkpt lat="45.29826499521732330322265625" lon="-70.82184621132910251617431640625">
        <ele>1032.4000244140625</ele>
        <time>2026-08-21T13:36:00.000Z</time>
        <extensions>
          <ns3:TrackPointExtension>
            <ns3:hr>124</ns3:hr>
            <ns3:cad>52</ns3:cad>
          </ns3:TrackPointExtension>
        </extensions>
      </trkpt>
      <trkpt lat="45.2982594631612300872802734375" lon="-70.821863226592540740966796875">
        <ele>1032.4000244140625</ele>
        <time>2026-08-21T13:36:01.000Z</time>
        <extensions>
          <ns3:TrackPointExtension>
            <ns3:hr>125</ns3:hr>
            <ns3:cad>52</ns3:cad>
          </ns3:TrackPointExtension>
        </extensions>
      </trkpt>
      <trkpt lat="45.2982480637729167938232421875" lon="-70.82188024185597896575927734375">
        <ele>1032.4000244140625</ele>
        <time>2026-08-21T13:36:02.000Z</time>
        <extensions>
          <ns3:TrackPointExtension>
            <ns3:hr>124</ns3:hr>
            <ns3:cad>52</ns3:cad>
          </ns3:TrackPointExtension>
        </extensions>
      </trkpt>
      <trkpt lat="45.29824621975421905517578125" lon="-70.82189918495714664459228515625">
        <ele>1032.4000244140625</ele>
        <time>2026-08-21T13:36:03.000Z</time>
        <extensions>
          <ns3:TrackPointExtension>
            <ns3:hr>124</ns3:hr>
            <ns3:cad>49</ns3:cad>
          </ns3:TrackPointExtension>
        </extensions>
      </trkpt>
      <trkpt lat="45.29824127443134784698486328125" lon="-70.82191527821123600006103515625">
        <ele>1032.4000244140625</ele>
        <time>2026-08-21T13:36:04.000Z</time>
        <extensions>
          <ns3:TrackPointExtension>
            <ns3:hr>124</ns3:hr>
            <ns3:cad>49</ns3:cad>
          </ns3:TrackPointExtension>
        </extensions>
      </trkpt>
      <trkpt lat="45.2982376702129840850830078125" lon="-70.82192835398018360137939453125">
        <ele>1032.4000244140625</ele>
        <time>2026-08-21T13:36:05.000Z</time>
        <extensions>
          <ns3:TrackPointExtension>
            <ns3:hr>124</ns3:hr>
            <ns3:cad>49</ns3:cad>
          </ns3:TrackPointExtension>
        </extensions>
      </trkpt>
      <trkpt lat="45.2982413582503795623779296875" lon="-70.821947716176509857177734375">
        <ele>1032.5999755859375</ele>
        <time>2026-08-21T13:36:06.000Z</time>
        <extensions>
          <ns3:TrackPointExtension>
            <ns3:hr>124</ns3:hr>
            <ns3:cad>49</ns3:cad>
          </ns3:TrackPointExtension>
        </extensions>
      </trkpt>
      <trkpt lat="45.2982497401535511016845703125" lon="-70.82195341587066650390625">
        <ele>1032.5999755859375</ele>
        <time>2026-08-21T13:36:07.000Z</time>
        <extensions>
          <ns3:TrackPointExtension>
            <ns3:hr>124</ns3:hr>
            <ns3:cad>49</ns3:cad>
          </ns3:TrackPointExtension>
        </extensions>
      </trkpt>
      <trkpt lat="45.29824730940163135528564453125" lon="-70.8219654858112335205078125">
        <ele>1032.5999755859375</ele>
        <time>2026-08-21T13:36:08.000Z</time>
        <extensions>
          <ns3:TrackPointExtension>
            <ns3:hr>124</ns3:hr>
            <ns3:cad>49</ns3:cad>
          </ns3:TrackPointExtension>
        </extensions>
      </trkpt>
      <trkpt lat="45.29823741875588893890380859375" lon="-70.821985937654972076416015625">
        <ele>1032.800048828125</ele>
        <time>2026-08-21T13:36:09.000Z</time>
        <extensions>
          <ns3:TrackPointExtension>
            <ns3:hr>125</ns3:hr>
            <ns3:cad>49</ns3:cad>
          </ns3:TrackPointExtension>
        </extensions>
      </trkpt>
      <trkpt lat="45.29823456890881061553955078125" lon="-70.821994654834270477294921875">
        <ele>1032.800048828125</ele>
        <time>2026-08-21T13:36:10.000Z</time>
        <extensions>
          <ns3:TrackPointExtension>
            <ns3:hr>127</ns3:hr>
            <ns3:cad>49</ns3:cad>
          </ns3:TrackPointExtension>
        </extensions>
      </trkpt>
      <trkpt lat="45.2982215769588947296142578125" lon="-70.8220011927187442779541015625">
        <ele>1032.5999755859375</ele>
        <time>2026-08-21T13:36:11.000Z</time>
        <extensions>
          <ns3:TrackPointExtension>
            <ns3:hr>128</ns3:hr>
            <ns3:cad>55</ns3:cad>
          </ns3:TrackPointExtension>
        </extensions>
      </trkpt>
      <trkpt lat="45.29821336269378662109375" lon="-70.822002030909061431884765625">
        <ele>1032.4000244140625</ele>
        <time>2026-08-21T13:36:12.000Z</time>
        <extensions>
          <ns3:TrackPointExtension>
            <ns3:hr>129</ns3:hr>
            <ns3:cad>55</ns3:cad>
          </ns3:TrackPointExtension>
        </extensions>
      </trkpt>
      <trkpt lat="45.298200957477092742919921875" lon="-70.82200798206031322479248046875">
        <ele>1032.199951171875</ele>
        <time>2026-08-21T13:36:13.000Z</time>
        <extensions>
          <ns3:TrackPointExtension>
            <ns3:hr>130</ns3:hr>
            <ns3:cad>55</ns3:cad>
          </ns3:TrackPointExtension>
        </extensions>
      </trkpt>
      <trkpt lat="45.2981934137642383575439453125" lon="-70.8220244944095611572265625">
        <ele>1032.199951171875</ele>
        <time>2026-08-21T13:36:14.000Z</time>
        <extensions>
          <ns3:TrackPointExtension>
            <ns3:hr>131</ns3:hr>
            <ns3:cad>55</ns3:cad>
          </ns3:TrackPointExtension>
        </extensions>
      </trkpt>
      <trkpt lat="45.2981883846223354339599609375" lon="-70.82203748635947704315185546875">
        <ele>1032</ele>
        <time>2026-08-21T13:36:15.000Z</time>
        <extensions>
          <ns3:TrackPointExtension>
            <ns3:hr>131</ns3:hr>
            <ns3:cad>55</ns3:cad>
          </ns3:TrackPointExtension>
        </extensions>
      </trkpt>
      <trkpt lat="45.298188887536525726318359375" lon="-70.82205257378518581390380859375">
        <ele>1031.800048828125</ele>
        <time>2026-08-21T13:36:16.000Z</time>
        <extensions>
          <ns3:TrackPointExtension>
            <ns3:hr>132</ns3:hr>
            <ns3:cad>55</ns3:cad>
          </ns3:TrackPointExtension>
        </extensions>
      </trkpt>
      <trkpt lat="45.29819282703101634979248046875" lon="-70.8220675773918628692626953125">
        <ele>1031.800048828125</ele>
        <time>2026-08-21T13:36:17.000Z</time>
        <extensions>
          <ns3:TrackPointExtension>
            <ns3:hr>132</ns3:hr>
            <ns3:cad>55</ns3:cad>
          </ns3:TrackPointExtension>
        </extensions>
      </trkpt>
      <trkpt lat="45.2981950901448726654052734375" lon="-70.82206942141056060791015625">
        <ele>1031.800048828125</ele>
        <time>2026-08-21T13:36:18.000Z</time>
        <extensions>
          <ns3:TrackPointExtension>
            <ns3:hr>132</ns3:hr>
            <ns3:cad>0</ns3:cad>
          </ns3:TrackPointExtension>
        </extensions>
      </trkpt>
      <trkpt lat="45.29819299466907978057861328125" lon="-70.82207218743860721588134765625">
        <ele>1031.800048828125</ele>
        <time>2026-08-21T13:36:19.000Z</time>
        <extensions>
          <ns3:TrackPointExtension>
            <ns3:hr>132</ns3:hr>
            <ns3:cad>0</ns3:cad>
          </ns3:TrackPointExtension>
        </extensions>
      </trkpt>
      <trkpt lat="45.298190899193286895751953125" lon="-70.82208274863660335540771484375">
        <ele>1032</ele>
        <time>2026-08-21T13:36:20.000Z</time>
        <extensions>
          <ns3:TrackPointExtension>
            <ns3:hr>131</ns3:hr>
            <ns3:cad>0</ns3:cad>
          </ns3:TrackPointExtension>
        </extensions>
      </trkpt>
      <trkpt lat="45.29818343929946422576904296875" lon="-70.82208174280822277069091796875">
        <ele>1032.4000244140625</ele>
        <time>2026-08-21T13:36:21.000Z</time>
        <extensions>
          <ns3:TrackPointExtension>
            <ns3:hr>132</ns3:hr>
            <ns3:cad>0</ns3:cad>
          </ns3:TrackPointExtension>
        </extensions>
      </trkpt>
      <trkpt lat="45.298182182013988494873046875" lon="-70.82207746803760528564453125">
        <ele>1032.5999755859375</ele>
        <time>2026-08-21T13:36:22.000Z</time>
        <extensions>
          <ns3:TrackPointExtension>
            <ns3:hr>132</ns3:hr>
            <ns3:cad>0</ns3:cad>
          </ns3:TrackPointExtension>
        </extensions>
      </trkpt>
      <trkpt lat="45.298172794282436370849609375" lon="-70.82208459265530109405517578125">
        <ele>1033</ele>
        <time>2026-08-21T13:36:23.000Z</time>
        <extensions>
          <ns3:TrackPointExtension>
            <ns3:hr>132</ns3:hr>
            <ns3:cad>0</ns3:cad>
          </ns3:TrackPointExtension>
        </extensions>
      </trkpt>
      <trkpt lat="45.29816298745572566986083984375" lon="-70.82209615968167781829833984375">
        <ele>1033.199951171875</ele>
        <time>2026-08-21T13:36:24.000Z</time>
        <extensions>
          <ns3:TrackPointExtension>
            <ns3:hr>132</ns3:hr>
            <ns3:cad>0</ns3:cad>
          </ns3:TrackPointExtension>
        </extensions>
      </trkpt>
      <trkpt lat="45.29815477319061756134033203125" lon="-70.82210957072675228118896484375">
        <ele>1033.4000244140625</ele>
        <time>2026-08-21T13:36:25.000Z</time>
        <extensions>
          <ns3:TrackPointExtension>
            <ns3:hr>132</ns3:hr>
            <ns3:cad>0</ns3:cad>
          </ns3:TrackPointExtension>
        </extensions>
      </trkpt>
      <trkpt lat="45.29815276153385639190673828125" lon="-70.82211711443960666656494140625">
        <ele>1033.800048828125</ele>
        <time>2026-08-21T13:36:26.000Z</time>
        <extensions>
          <ns3:TrackPointExtension>
            <ns3:hr>132</ns3:hr>
            <ns3:cad>0</ns3:cad>
          </ns3:TrackPointExtension>
        </extensions>
      </trkpt>
      <trkpt lat="45.29815074987709522247314453125" lon="-70.82213890738785266876220703125">
        <ele>1034</ele>
        <time>2026-08-21T13:36:27.000Z</time>
        <extensions>
          <ns3:TrackPointExtension>
            <ns3:hr>132</ns3:hr>
            <ns3:cad>0</ns3:cad>
          </ns3:TrackPointExtension>
        </extensions>
      </trkpt>
      <trkpt lat="45.2981407754123210906982421875" lon="-70.82215265370905399322509765625">
        <ele>1034</ele>
        <time>2026-08-21T13:36:28.000Z</time>
        <extensions>
          <ns3:TrackPointExtension>
            <ns3:hr>132</ns3:hr>
            <ns3:cad>0</ns3:cad>
          </ns3:TrackPointExtension>
        </extensions>
      </trkpt>
      <trkpt lat="45.2981340698897838592529296875" lon="-70.82216237671673297882080078125">
        <ele>1034.199951171875</ele>
        <time>2026-08-21T13:36:29.000Z</time>
        <extensions>
          <ns3:TrackPointExtension>
            <ns3:hr>133</ns3:hr>
            <ns3:cad>0</ns3:cad>
          </ns3:TrackPointExtension>
        </extensions>
      </trkpt>
      <trkpt lat="45.29812476597726345062255859375" lon="-70.82217796705663204193115234375">
        <ele>1034.199951171875</ele>
        <time>2026-08-21T13:36:30.000Z</time>
        <extensions>
          <ns3:TrackPointExtension>
            <ns3:hr>133</ns3:hr>
            <ns3:cad>0</ns3:cad>
          </ns3:TrackPointExtension>
        </extensions>
      </trkpt>
      <trkpt lat="45.29812007211148738861083984375" lon="-70.82219020463526248931884765625">
        <ele>1034.199951171875</ele>
        <time>2026-08-21T13:36:31.000Z</time>
        <extensions>
          <ns3:TrackPointExtension>
            <ns3:hr>133</ns3:hr>
            <ns3:cad>0</ns3:cad>
          </ns3:TrackPointExtension>
        </extensions>
      </trkpt>
      <trkpt lat="45.298115797340869903564453125" lon="-70.822203196585178375244140625">
        <ele>1034</ele>
        <time>2026-08-21T13:36:32.000Z</time>
        <extensions>
          <ns3:TrackPointExtension>
            <ns3:hr>132</ns3:hr>
            <ns3:cad>0</ns3:cad>
          </ns3:TrackPointExtension>
        </extensions>
      </trkpt>
      <trkpt lat="45.2981176413595676422119140625" lon="-70.82220830954611301422119140625">
        <ele>1033.800048828125</ele>
        <time>2026-08-21T13:36:33.000Z</time>
        <extensions>
          <ns3:TrackPointExtension>
            <ns3:hr>133</ns3:hr>
            <ns3:cad>0</ns3:cad>
          </ns3:TrackPointExtension>
        </extensions>
      </trkpt>
      <trkpt lat="45.29811068437993526458740234375" lon="-70.82221652381122112274169921875">
        <ele>1033.5999755859375</ele>
        <time>2026-08-21T13:36:34.000Z</time>
        <extensions>
          <ns3:TrackPointExtension>
            <ns3:hr>133</ns3:hr>
            <ns3:cad>0</ns3:cad>
          </ns3:TrackPointExtension>
        </extensions>
      </trkpt>
      <trkpt lat="45.298103056848049163818359375" lon="-70.82222557626664638519287109375">
        <ele>1033.5999755859375</ele>
        <time>2026-08-21T13:36:35.000Z</time>
        <extensions>
          <ns3:TrackPointExtension>
            <ns3:hr>133</ns3:hr>
            <ns3:cad>0</ns3:cad>
          </ns3:TrackPointExtension>
        </extensions>
      </trkpt>
      <trkpt lat="45.29809777624905109405517578125" lon="-70.822238735854625701904296875">
        <ele>1033.5999755859375</ele>
        <time>2026-08-21T13:36:36.000Z</time>
        <extensions>
          <ns3:TrackPointExtension>
            <ns3:hr>133</ns3:hr>
            <ns3:cad>0</ns3:cad>
          </ns3:TrackPointExtension>
        </extensions>
      </trkpt>
      <trkpt lat="45.29808931052684783935546875" lon="-70.8222492970526218414306640625">
        <ele>1033.5999755859375</ele>
        <time>2026-08-21T13:36:37.000Z</time>
        <extensions>
          <ns3:TrackPointExtension>
            <ns3:hr>134</ns3:hr>
            <ns3:cad>0</ns3:cad>
          </ns3:TrackPointExtension>
        </extensions>
      </trkpt>
      <trkpt lat="45.29808084480464458465576171875" lon="-70.82226329483091831207275390625">
        <ele>1033.800048828125</ele>
        <time>2026-08-21T13:36:38.000Z</time>
        <extensions>
          <ns3:TrackPointExtension>
            <ns3:hr>134</ns3:hr>
            <ns3:cad>0</ns3:cad>
          </ns3:TrackPointExtension>
        </extensions>
      </trkpt>
      <trkpt lat="45.2980750612914562225341796875" lon="-70.822272598743438720703125">
        <ele>1033.800048828125</ele>
        <time>2026-08-21T13:36:39.000Z</time>
        <extensions>
          <ns3:TrackPointExtension>
            <ns3:hr>135</ns3:hr>
            <ns3:cad>0</ns3:cad>
          </ns3:TrackPointExtension>
        </extensions>
      </trkpt>
      <trkpt lat="45.298066176474094390869140625" lon="-70.82228307612240314483642578125">
        <ele>1034</ele>
        <time>2026-08-21T13:36:40.000Z</time>
        <extensions>
          <ns3:TrackPointExtension>
            <ns3:hr>135</ns3:hr>
            <ns3:cad>0</ns3:cad>
          </ns3:TrackPointExtension>
        </extensions>
      </trkpt>
      <trkpt lat="45.298058800399303436279296875" lon="-70.822290368378162384033203125">
        <ele>1034</ele>
        <time>2026-08-21T13:36:41.000Z</time>
        <extensions>
          <ns3:TrackPointExtension>
            <ns3:hr>136</ns3:hr>
            <ns3:cad>0</ns3:cad>
          </ns3:TrackPointExtension>
        </extensions>
      </trkpt>
      <trkpt lat="45.29804731719195842742919921875" lon="-70.82230403088033199310302734375">
        <ele>1034.199951171875</ele>
        <time>2026-08-21T13:36:42.000Z</time>
        <extensions>
          <ns3:TrackPointExtension>
            <ns3:hr>136</ns3:hr>
            <ns3:cad>0</ns3:cad>
          </ns3:TrackPointExtension>
        </extensions>
      </trkpt>
      <trkpt lat="45.29804463498294353485107421875" lon="-70.82231308333575725555419921875">
        <ele>1034.4000244140625</ele>
        <time>2026-08-21T13:36:43.000Z</time>
        <extensions>
          <ns3:TrackPointExtension>
            <ns3:hr>136</ns3:hr>
            <ns3:cad>0</ns3:cad>
          </ns3:TrackPointExtension>
        </extensions>
      </trkpt>
      <trkpt lat="45.29803960584104061126708984375" lon="-70.82233487628400325775146484375">
        <ele>1034.5999755859375</ele>
        <time>2026-08-21T13:36:44.000Z</time>
        <extensions>
          <ns3:TrackPointExtension>
            <ns3:hr>136</ns3:hr>
            <ns3:cad>0</ns3:cad>
          </ns3:TrackPointExtension>
        </extensions>
      </trkpt>
      <trkpt lat="45.29803725890815258026123046875" lon="-70.822347700595855712890625">
        <ele>1034.800048828125</ele>
        <time>2026-08-21T13:36:45.000Z</time>
        <extensions>
          <ns3:TrackPointExtension>
            <ns3:hr>136</ns3:hr>
            <ns3:cad>0</ns3:cad>
          </ns3:TrackPointExtension>
        </extensions>
      </trkpt>
      <trkpt lat="45.2980368398129940032958984375" lon="-70.82235884852707386016845703125">
        <ele>1034.800048828125</ele>
        <time>2026-08-21T13:36:46.000Z</time>
        <extensions>
          <ns3:TrackPointExtension>
            <ns3:hr>137</ns3:hr>
            <ns3:cad>0</ns3:cad>
          </ns3:TrackPointExtension>
        </extensions>
      </trkpt>
      <trkpt lat="45.2980257757008075714111328125" lon="-70.82236756570637226104736328125">
        <ele>1034.5999755859375</ele>
        <time>2026-08-21T13:36:47.000Z</time>
        <extensions>
          <ns3:TrackPointExtension>
            <ns3:hr>138</ns3:hr>
            <ns3:cad>60</ns3:cad>
          </ns3:TrackPointExtension>
        </extensions>
      </trkpt>
      <trkpt lat="45.2980194054543972015380859375" lon="-70.82237225957214832305908203125">
        <ele>1034.4000244140625</ele>
        <time>2026-08-21T13:36:48.000Z</time>
        <extensions>
          <ns3:TrackPointExtension>
            <ns3:hr>138</ns3:hr>
            <ns3:cad>60</ns3:cad>
          </ns3:TrackPointExtension>
        </extensions>
      </trkpt>
      <trkpt lat="45.29801412485539913177490234375" lon="-70.82238734699785709381103515625">
        <ele>1034</ele>
        <time>2026-08-21T13:36:49.000Z</time>
        <extensions>
          <ns3:TrackPointExtension>
            <ns3:hr>138</ns3:hr>
            <ns3:cad>0</ns3:cad>
          </ns3:TrackPointExtension>
        </extensions>
      </trkpt>
      <trkpt lat="45.2980133704841136932373046875" lon="-70.82239489071071147918701171875">
        <ele>1033.5999755859375</ele>
        <time>2026-08-21T13:36:50.000Z</time>
        <extensions>
          <ns3:TrackPointExtension>
            <ns3:hr>138</ns3:hr>
            <ns3:cad>0</ns3:cad>
          </ns3:TrackPointExtension>
        </extensions>
      </trkpt>
      <trkpt lat="45.2980100177228450775146484375" lon="-70.82240679301321506500244140625">
        <ele>1033.199951171875</ele>
        <time>2026-08-21T13:36:51.000Z</time>
        <extensions>
          <ns3:TrackPointExtension>
            <ns3:hr>138</ns3:hr>
            <ns3:cad>0</ns3:cad>
          </ns3:TrackPointExtension>
        </extensions>
      </trkpt>
      <trkpt lat="45.29800482094287872314453125" lon="-70.8224202878773212432861328125">
        <ele>1033</ele>
        <time>2026-08-21T13:36:52.000Z</time>
        <extensions>
          <ns3:TrackPointExtension>
            <ns3:hr>139</ns3:hr>
            <ns3:cad>0</ns3:cad>
          </ns3:TrackPointExtension>
        </extensions>
      </trkpt>
      <trkpt lat="45.298001132905483245849609375" lon="-70.82243042998015880584716796875">
        <ele>1032.800048828125</ele>
        <time>2026-08-21T13:36:53.000Z</time>
        <extensions>
          <ns3:TrackPointExtension>
            <ns3:hr>139</ns3:hr>
            <ns3:cad>0</ns3:cad>
          </ns3:TrackPointExtension>
        </extensions>
      </trkpt>
      <trkpt lat="45.29799006879329681396484375" lon="-70.82244887016713619232177734375">
        <ele>1032.4000244140625</ele>
        <time>2026-08-21T13:36:54.000Z</time>
        <extensions>
          <ns3:TrackPointExtension>
            <ns3:hr>139</ns3:hr>
            <ns3:cad>0</ns3:cad>
          </ns3:TrackPointExtension>
        </extensions>
      </trkpt>
      <trkpt lat="45.29798462055623531341552734375" lon="-70.822462700307369232177734375">
        <ele>1032.199951171875</ele>
        <time>2026-08-21T13:36:55.000Z</time>
        <extensions>
          <ns3:TrackPointExtension>
            <ns3:hr>139</ns3:hr>
            <ns3:cad>0</ns3:cad>
          </ns3:TrackPointExtension>
        </extensions>
      </trkpt>
      <trkpt lat="45.29797338880598545074462890625" lon="-70.822492875158786773681640625">
        <ele>1031.800048828125</ele>
        <time>2026-08-21T13:36:56.000Z</time>
        <extensions>
          <ns3:TrackPointExtension>
            <ns3:hr>139</ns3:hr>
            <ns3:cad>0</ns3:cad>
          </ns3:TrackPointExtension>
        </extensions>
      </trkpt>
      <trkpt lat="45.2979674376547336578369140625" lon="-70.82250452600419521331787109375">
        <ele>1031.4000244140625</ele>
        <time>2026-08-21T13:36:57.000Z</time>
        <extensions>
          <ns3:TrackPointExtension>
            <ns3:hr>139</ns3:hr>
            <ns3:cad>0</ns3:cad>
          </ns3:TrackPointExtension>
        </extensions>
      </trkpt>
      <trkpt lat="45.29796467162668704986572265625" lon="-70.82251843996345996856689453125">
        <ele>1031</ele>
        <time>2026-08-21T13:36:58.000Z</time>
        <extensions>
          <ns3:TrackPointExtension>
            <ns3:hr>139</ns3:hr>
            <ns3:cad>0</ns3:cad>
          </ns3:TrackPointExtension>
        </extensions>
      </trkpt>
      <trkpt lat="45.29796333052217960357666015625" lon="-70.822526402771472930908203125">
        <ele>1030.5999755859375</ele>
        <time>2026-08-21T13:36:59.000Z</time>
        <extensions>
          <ns3:TrackPointExtension>
            <ns3:hr>139</ns3:hr>
            <ns3:cad>0</ns3:cad>
          </ns3:TrackPointExtension>
        </extensions>
      </trkpt>
      <trkpt lat="45.2979610674083232879638671875" lon="-70.82253344357013702392578125">
        <ele>1030.4000244140625</ele>
        <time>2026-08-21T13:37:00.000Z</time>
        <extensions>
          <ns3:TrackPointExtension>
            <ns3:hr>139</ns3:hr>
            <ns3:cad>0</ns3:cad>
          </ns3:TrackPointExtension>
        </extensions>
      </trkpt>
      <trkpt lat="45.29796056449413299560546875" lon="-70.82253319211304187774658203125">
        <ele>1030.199951171875</ele>
        <time>2026-08-21T13:37:01.000Z</time>
        <extensions>
          <ns3:TrackPointExtension>
            <ns3:hr>139</ns3:hr>
            <ns3:cad>0</ns3:cad>
          </ns3:TrackPointExtension>
        </extensions>
      </trkpt>
      <trkpt lat="45.29796056449413299560546875" lon="-70.82253319211304187774658203125">
        <ele>1030.199951171875</ele>
        <time>2026-08-21T13:37:02.000Z</time>
        <extensions>
          <ns3:TrackPointExtension>
            <ns3:hr>139</ns3:hr>
            <ns3:cad>0</ns3:cad>
          </ns3:TrackPointExtension>
        </extensions>
      </trkpt>
      <trkpt lat="45.2979610674083232879638671875" lon="-70.82253403030335903167724609375">
        <ele>1030</ele>
        <time>2026-08-21T13:37:03.000Z</time>
        <extensions>
          <ns3:TrackPointExtension>
            <ns3:hr>138</ns3:hr>
            <ns3:cad>0</ns3:cad>
          </ns3:TrackPointExtension>
        </extensions>
      </trkpt>
      <trkpt lat="45.297956876456737518310546875" lon="-70.82253771834075450897216796875">
        <ele>1030</ele>
        <time>2026-08-21T13:37:04.000Z</time>
        <extensions>
          <ns3:TrackPointExtension>
            <ns3:hr>140</ns3:hr>
            <ns3:cad>0</ns3:cad>
          </ns3:TrackPointExtension>
        </extensions>
      </trkpt>
      <trkpt lat="45.297950841486454010009765625" lon="-70.82254417240619659423828125">
        <ele>1029.800048828125</ele>
        <time>2026-08-21T13:37:05.000Z</time>
        <extensions>
          <ns3:TrackPointExtension>
            <ns3:hr>141</ns3:hr>
            <ns3:cad>0</ns3:cad>
          </ns3:TrackPointExtension>
        </extensions>
      </trkpt>
      <trkpt lat="45.297944135963916778564453125" lon="-70.82255280576646327972412109375">
        <ele>1029.4000244140625</ele>
        <time>2026-08-21T13:37:06.000Z</time>
        <extensions>
          <ns3:TrackPointExtension>
            <ns3:hr>141</ns3:hr>
            <ns3:cad>0</ns3:cad>
          </ns3:TrackPointExtension>
        </extensions>
      </trkpt>
      <trkpt lat="45.29794388450682163238525390625" lon="-70.82256085239350795745849609375">
        <ele>1029</ele>
        <time>2026-08-21T13:37:07.000Z</time>
        <extensions>
          <ns3:TrackPointExtension>
            <ns3:hr>140</ns3:hr>
            <ns3:cad>0</ns3:cad>
          </ns3:TrackPointExtension>
        </extensions>
      </trkpt>
      <trkpt lat="45.2979439683258533477783203125" lon="-70.82257124595344066619873046875">
        <ele>1028.5999755859375</ele>
        <time>2026-08-21T13:37:08.000Z</time>
        <extensions>
          <ns3:TrackPointExtension>
            <ns3:hr>139</ns3:hr>
            <ns3:cad>0</ns3:cad>
          </ns3:TrackPointExtension>
        </extensions>
      </trkpt>
      <trkpt lat="45.29794204048812389373779296875" lon="-70.8225802145898342132568359375">
        <ele>1028</ele>
        <time>2026-08-21T13:37:09.000Z</time>
        <extensions>
          <ns3:TrackPointExtension>
            <ns3:hr>138</ns3:hr>
            <ns3:cad>0</ns3:cad>
          </ns3:TrackPointExtension>
        </extensions>
      </trkpt>
      <trkpt lat="45.29793298803269863128662109375" lon="-70.8225976489484310150146484375">
        <ele>1027.800048828125</ele>
        <time>2026-08-21T13:37:10.000Z</time>
        <extensions>
          <ns3:TrackPointExtension>
            <ns3:hr>137</ns3:hr>
            <ns3:cad>0</ns3:cad>
          </ns3:TrackPointExtension>
        </extensions>
      </trkpt>
      <trkpt lat="45.29793935827910900115966796875" lon="-70.822631008923053741455078125">
        <ele>1027.5999755859375</ele>
        <time>2026-08-21T13:37:11.000Z</time>
        <extensions>
          <ns3:TrackPointExtension>
            <ns3:hr>137</ns3:hr>
            <ns3:cad>0</ns3:cad>
          </ns3:TrackPointExtension>
        </extensions>
      </trkpt>
      <trkpt lat="45.2979406155645847320556640625" lon="-70.82264986820518970489501953125">
        <ele>1027.5999755859375</ele>
        <time>2026-08-21T13:37:12.000Z</time>
        <extensions>
          <ns3:TrackPointExtension>
            <ns3:hr>137</ns3:hr>
            <ns3:cad>0</ns3:cad>
          </ns3:TrackPointExtension>
        </extensions>
      </trkpt>
      <trkpt lat="45.29793734662234783172607421875" lon="-70.82265003584325313568115234375">
        <ele>1027.5999755859375</ele>
        <time>2026-08-21T13:37:13.000Z</time>
        <extensions>
          <ns3:TrackPointExtension>
            <ns3:hr>137</ns3:hr>
            <ns3:cad>0</ns3:cad>
          </ns3:TrackPointExtension>
        </extensions>
      </trkpt>
      <trkpt lat="45.29793567024171352386474609375" lon="-70.8226762712001800537109375">
        <ele>1027.800048828125</ele>
        <time>2026-08-21T13:37:14.000Z</time>
        <extensions>
          <ns3:TrackPointExtension>
            <ns3:hr>136</ns3:hr>
            <ns3:cad>0</ns3:cad>
          </ns3:TrackPointExtension>
        </extensions>
      </trkpt>
      <trkpt lat="45.2979402802884578704833984375" lon="-70.82268725149333477020263671875">
        <ele>1028</ele>
        <time>2026-08-21T13:37:15.000Z</time>
        <extensions>
          <ns3:TrackPointExtension>
            <ns3:hr>136</ns3:hr>
            <ns3:cad>0</ns3:cad>
          </ns3:TrackPointExtension>
        </extensions>
      </trkpt>
      <trkpt lat="45.2979438006877899169921875" lon="-70.82270133309066295623779296875">
        <ele>1028.199951171875</ele>
        <time>2026-08-21T13:37:16.000Z</time>
        <extensions>
          <ns3:TrackPointExtension>
            <ns3:hr>136</ns3:hr>
            <ns3:cad>0</ns3:cad>
          </ns3:TrackPointExtension>
        </extensions>
      </trkpt>
      <trkpt lat="45.29794556088745594024658203125" lon="-70.8227123133838176727294921875">
        <ele>1028.4000244140625</ele>
        <time>2026-08-21T13:37:17.000Z</time>
        <extensions>
          <ns3:TrackPointExtension>
            <ns3:hr>136</ns3:hr>
            <ns3:cad>0</ns3:cad>
          </ns3:TrackPointExtension>
        </extensions>
      </trkpt>
      <trkpt lat="45.297952853143215179443359375" lon="-70.822733938694000244140625">
        <ele>1028.4000244140625</ele>
        <time>2026-08-21T13:37:18.000Z</time>
        <extensions>
          <ns3:TrackPointExtension>
            <ns3:hr>135</ns3:hr>
            <ns3:cad>0</ns3:cad>
          </ns3:TrackPointExtension>
        </extensions>
      </trkpt>
      <trkpt lat="45.297959558665752410888671875" lon="-70.8227498643100261688232421875">
        <ele>1028.199951171875</ele>
        <time>2026-08-21T13:37:19.000Z</time>
        <extensions>
          <ns3:TrackPointExtension>
            <ns3:hr>135</ns3:hr>
            <ns3:cad>0</ns3:cad>
          </ns3:TrackPointExtension>
        </extensions>
      </trkpt>
      <trkpt lat="45.29796400107443332672119140625" lon="-70.82276989705860614776611328125">
        <ele>1027.800048828125</ele>
        <time>2026-08-21T13:37:20.000Z</time>
        <extensions>
          <ns3:TrackPointExtension>
            <ns3:hr>134</ns3:hr>
            <ns3:cad>0</ns3:cad>
          </ns3:TrackPointExtension>
        </extensions>
      </trkpt>
      <trkpt lat="45.297964923083782196044921875" lon="-70.8227823860943317413330078125">
        <ele>1027.5999755859375</ele>
        <time>2026-08-21T13:37:21.000Z</time>
        <extensions>
          <ns3:TrackPointExtension>
            <ns3:hr>134</ns3:hr>
            <ns3:cad>0</ns3:cad>
          </ns3:TrackPointExtension>
        </extensions>
      </trkpt>
      <trkpt lat="45.297962911427021026611328125" lon="-70.8227914385497570037841796875">
        <ele>1027.4000244140625</ele>
        <time>2026-08-21T13:37:22.000Z</time>
        <extensions>
          <ns3:TrackPointExtension>
            <ns3:hr>134</ns3:hr>
            <ns3:cad>0</ns3:cad>
          </ns3:TrackPointExtension>
        </extensions>
      </trkpt>
      <trkpt lat="45.29795763082802295684814453125" lon="-70.82280778326094150543212890625">
        <ele>1027.4000244140625</ele>
        <time>2026-08-21T13:37:23.000Z</time>
        <extensions>
          <ns3:TrackPointExtension>
            <ns3:hr>134</ns3:hr>
            <ns3:cad>0</ns3:cad>
          </ns3:TrackPointExtension>
        </extensions>
      </trkpt>
      <trkpt lat="45.2979543618857860565185546875" lon="-70.82281532697379589080810546875">
        <ele>1027.199951171875</ele>
        <time>2026-08-21T13:37:24.000Z</time>
        <extensions>
          <ns3:TrackPointExtension>
            <ns3:hr>134</ns3:hr>
            <ns3:cad>0</ns3:cad>
          </ns3:TrackPointExtension>
        </extensions>
      </trkpt>
      <trkpt lat="45.29795578680932521820068359375" lon="-70.8228219486773014068603515625">
        <ele>1027.199951171875</ele>
        <time>2026-08-21T13:37:25.000Z</time>
        <extensions>
          <ns3:TrackPointExtension>
            <ns3:hr>133</ns3:hr>
            <ns3:cad>0</ns3:cad>
          </ns3:TrackPointExtension>
        </extensions>
      </trkpt>
      <trkpt lat="45.2979550324380397796630859375" lon="-70.8228306658565998077392578125">
        <ele>1026.800048828125</ele>
        <time>2026-08-21T13:37:26.000Z</time>
        <extensions>
          <ns3:TrackPointExtension>
            <ns3:hr>133</ns3:hr>
            <ns3:cad>0</ns3:cad>
          </ns3:TrackPointExtension>
        </extensions>
      </trkpt>
      <trkpt lat="45.29795226640999317169189453125" lon="-70.8228393830358982086181640625">
        <ele>1026.4000244140625</ele>
        <time>2026-08-21T13:37:27.000Z</time>
        <extensions>
          <ns3:TrackPointExtension>
            <ns3:hr>133</ns3:hr>
            <ns3:cad>0</ns3:cad>
          </ns3:TrackPointExtension>
        </extensions>
      </trkpt>
      <trkpt lat="45.2979496680200099945068359375" lon="-70.8228467591106891632080078125">
        <ele>1026</ele>
        <time>2026-08-21T13:37:28.000Z</time>
        <extensions>
          <ns3:TrackPointExtension>
            <ns3:hr>133</ns3:hr>
            <ns3:cad>52</ns3:cad>
          </ns3:TrackPointExtension>
        </extensions>
      </trkpt>
      <trkpt lat="45.29794774018228054046630859375" lon="-70.822857320308685302734375">
        <ele>1025.5999755859375</ele>
        <time>2026-08-21T13:37:29.000Z</time>
        <extensions>
          <ns3:TrackPointExtension>
            <ns3:hr>133</ns3:hr>
            <ns3:cad>52</ns3:cad>
          </ns3:TrackPointExtension>
        </extensions>
      </trkpt>
      <trkpt lat="45.2979449741542339324951171875" lon="-70.82286327145993709564208984375">
        <ele>1025</ele>
        <time>2026-08-21T13:37:30.000Z</time>
        <extensions>
          <ns3:TrackPointExtension>
            <ns3:hr>133</ns3:hr>
            <ns3:cad>59</ns3:cad>
          </ns3:TrackPointExtension>
        </extensions>
      </trkpt>
      <trkpt lat="45.2979411184787750244140625" lon="-70.82287006080150604248046875">
        <ele>1024.5999755859375</ele>
        <time>2026-08-21T13:37:31.000Z</time>
        <extensions>
          <ns3:TrackPointExtension>
            <ns3:hr>133</ns3:hr>
            <ns3:cad>59</ns3:cad>
          </ns3:TrackPointExtension>
        </extensions>
      </trkpt>
      <trkpt lat="45.2979409508407115936279296875" lon="-70.822869054973125457763671875">
        <ele>1024.4000244140625</ele>
        <time>2026-08-21T13:37:32.000Z</time>
        <extensions>
          <ns3:TrackPointExtension>
            <ns3:hr>133</ns3:hr>
            <ns3:cad>59</ns3:cad>
          </ns3:TrackPointExtension>
        </extensions>
      </trkpt>
      <trkpt lat="45.2979339100420475006103515625" lon="-70.822866372764110565185546875">
        <ele>1024</ele>
        <time>2026-08-21T13:37:33.000Z</time>
        <extensions>
          <ns3:TrackPointExtension>
            <ns3:hr>132</ns3:hr>
            <ns3:cad>0</ns3:cad>
          </ns3:TrackPointExtension>
        </extensions>
      </trkpt>
      <trkpt lat="45.2979268692433834075927734375" lon="-70.82286612130701541900634765625">
        <ele>1023.5999755859375</ele>
        <time>2026-08-21T13:37:34.000Z</time>
        <extensions>
          <ns3:TrackPointExtension>
            <ns3:hr>132</ns3:hr>
            <ns3:cad>0</ns3:cad>
          </ns3:TrackPointExtension>
        </extensions>
      </trkpt>
      <trkpt lat="45.29792242683470249176025390625" lon="-70.82286897115409374237060546875">
        <ele>1023.20001220703125</ele>
        <time>2026-08-21T13:37:35.000Z</time>
        <extensions>
          <ns3:TrackPointExtension>
            <ns3:hr>132</ns3:hr>
            <ns3:cad>0</ns3:cad>
          </ns3:TrackPointExtension>
        </extensions>
      </trkpt>
      <trkpt lat="45.2979151345789432525634765625" lon="-70.822875089943408966064453125">
        <ele>1023</ele>
        <time>2026-08-21T13:37:36.000Z</time>
        <extensions>
          <ns3:TrackPointExtension>
            <ns3:hr>132</ns3:hr>
            <ns3:cad>0</ns3:cad>
          </ns3:TrackPointExtension>
        </extensions>
      </trkpt>
      <trkpt lat="45.29790557920932769775390625" lon="-70.8228836394846439361572265625">
        <ele>1022.5999755859375</ele>
        <time>2026-08-21T13:37:37.000Z</time>
        <extensions>
          <ns3:TrackPointExtension>
            <ns3:hr>132</ns3:hr>
            <ns3:cad>0</ns3:cad>
          </ns3:TrackPointExtension>
        </extensions>
      </trkpt>
      <trkpt lat="45.29790096916258335113525390625" lon="-70.82288975827395915985107421875">
        <ele>1022.20001220703125</ele>
        <time>2026-08-21T13:37:38.000Z</time>
        <extensions>
          <ns3:TrackPointExtension>
            <ns3:hr>132</ns3:hr>
            <ns3:cad>0</ns3:cad>
          </ns3:TrackPointExtension>
        </extensions>
      </trkpt>
      <trkpt lat="45.29789560474455356597900390625" lon="-70.8228973858058452606201171875">
        <ele>1021.79998779296875</ele>
        <time>2026-08-21T13:37:39.000Z</time>
        <extensions>
          <ns3:TrackPointExtension>
            <ns3:hr>132</ns3:hr>
            <ns3:cad>0</ns3:cad>
          </ns3:TrackPointExtension>
        </extensions>
      </trkpt>
      <trkpt lat="45.29788688756525516510009765625" lon="-70.8229084499180316925048828125">
        <ele>1021.4000244140625</ele>
        <time>2026-08-21T13:37:40.000Z</time>
        <extensions>
          <ns3:TrackPointExtension>
            <ns3:hr>132</ns3:hr>
            <ns3:cad>0</ns3:cad>
          </ns3:TrackPointExtension>
        </extensions>
      </trkpt>
      <trkpt lat="45.2978802658617496490478515625" lon="-70.82292714156210422515869140625">
        <ele>1021</ele>
        <time>2026-08-21T13:37:41.000Z</time>
        <extensions>
          <ns3:TrackPointExtension>
            <ns3:hr>132</ns3:hr>
            <ns3:cad>0</ns3:cad>
          </ns3:TrackPointExtension>
        </extensions>
      </trkpt>
      <trkpt lat="45.2978749014437198638916015625" lon="-70.82294516265392303466796875">
        <ele>1020.79998779296875</ele>
        <time>2026-08-21T13:37:42.000Z</time>
        <extensions>
          <ns3:TrackPointExtension>
            <ns3:hr>132</ns3:hr>
            <ns3:cad>0</ns3:cad>
          </ns3:TrackPointExtension>
        </extensions>
      </trkpt>
      <trkpt lat="45.2978745661675930023193359375" lon="-70.82295245490968227386474609375">
        <ele>1020.5999755859375</ele>
        <time>2026-08-21T13:37:43.000Z</time>
        <extensions>
          <ns3:TrackPointExtension>
            <ns3:hr>132</ns3:hr>
            <ns3:cad>0</ns3:cad>
          </ns3:TrackPointExtension>
        </extensions>
      </trkpt>
      <trkpt lat="45.29787012375891208648681640625" lon="-70.82295991480350494384765625">
        <ele>1020.5999755859375</ele>
        <time>2026-08-21T13:37:44.000Z</time>
        <extensions>
          <ns3:TrackPointExtension>
            <ns3:hr>131</ns3:hr>
            <ns3:cad>0</ns3:cad>
          </ns3:TrackPointExtension>
        </extensions>
      </trkpt>
      <trkpt lat="45.29786207713186740875244140625" lon="-70.8229667879641056060791015625">
        <ele>1020.4000244140625</ele>
        <time>2026-08-21T13:37:45.000Z</time>
        <extensions>
          <ns3:TrackPointExtension>
            <ns3:hr>132</ns3:hr>
            <ns3:cad>0</ns3:cad>
          </ns3:TrackPointExtension>
        </extensions>
      </trkpt>
      <trkpt lat="45.2978527732193470001220703125" lon="-70.8229694701731204986572265625">
        <ele>1020.20001220703125</ele>
        <time>2026-08-21T13:37:46.000Z</time>
        <extensions>
          <ns3:TrackPointExtension>
            <ns3:hr>132</ns3:hr>
            <ns3:cad>0</ns3:cad>
          </ns3:TrackPointExtension>
        </extensions>
      </trkpt>
      <trkpt lat="45.2978440560400485992431640625" lon="-70.82296586595475673675537109375">
        <ele>1020</ele>
        <time>2026-08-21T13:37:47.000Z</time>
        <extensions>
          <ns3:TrackPointExtension>
            <ns3:hr>132</ns3:hr>
            <ns3:cad>0</ns3:cad>
          </ns3:TrackPointExtension>
        </extensions>
      </trkpt>
      <trkpt lat="45.29783559031784534454345703125" lon="-70.82296066917479038238525390625">
        <ele>1020</ele>
        <time>2026-08-21T13:37:48.000Z</time>
        <extensions>
          <ns3:TrackPointExtension>
            <ns3:hr>131</ns3:hr>
            <ns3:cad>0</ns3:cad>
          </ns3:TrackPointExtension>
        </extensions>
      </trkpt>
      <trkpt lat="45.2978225983679294586181640625" lon="-70.82296150736510753631591796875">
        <ele>1019.79998779296875</ele>
        <time>2026-08-21T13:37:49.000Z</time>
        <extensions>
          <ns3:TrackPointExtension>
            <ns3:hr>131</ns3:hr>
            <ns3:cad>0</ns3:cad>
          </ns3:TrackPointExtension>
        </extensions>
      </trkpt>
      <trkpt lat="45.29781681485474109649658203125" lon="-70.82296670414507389068603515625">
        <ele>1019.79998779296875</ele>
        <time>2026-08-21T13:37:50.000Z</time>
        <extensions>
          <ns3:TrackPointExtension>
            <ns3:hr>131</ns3:hr>
            <ns3:cad>56</ns3:cad>
          </ns3:TrackPointExtension>
        </extensions>
      </trkpt>
      <trkpt lat="45.29780591838061809539794921875" lon="-70.82297475077211856842041015625">
        <ele>1019.79998779296875</ele>
        <time>2026-08-21T13:37:51.000Z</time>
        <extensions>
          <ns3:TrackPointExtension>
            <ns3:hr>131</ns3:hr>
            <ns3:cad>56</ns3:cad>
          </ns3:TrackPointExtension>
        </extensions>
      </trkpt>
      <trkpt lat="45.29779619537293910980224609375" lon="-70.8229838870465755462646484375">
        <ele>1019.5999755859375</ele>
        <time>2026-08-21T13:37:52.000Z</time>
        <extensions>
          <ns3:TrackPointExtension>
            <ns3:hr>131</ns3:hr>
            <ns3:cad>56</ns3:cad>
          </ns3:TrackPointExtension>
        </extensions>
      </trkpt>
      <trkpt lat="45.29778747819364070892333984375" lon="-70.8229976333677768707275390625">
        <ele>1019.4000244140625</ele>
        <time>2026-08-21T13:37:53.000Z</time>
        <extensions>
          <ns3:TrackPointExtension>
            <ns3:hr>130</ns3:hr>
            <ns3:cad>56</ns3:cad>
          </ns3:TrackPointExtension>
        </extensions>
      </trkpt>
      <trkpt lat="45.29778814874589443206787109375" lon="-70.82300391979515552520751953125">
        <ele>1019.20001220703125</ele>
        <time>2026-08-21T13:37:54.000Z</time>
        <extensions>
          <ns3:TrackPointExtension>
            <ns3:hr>129</ns3:hr>
            <ns3:cad>56</ns3:cad>
          </ns3:TrackPointExtension>
        </extensions>
      </trkpt>
      <trkpt lat="45.2977873943746089935302734375" lon="-70.82300744019448757171630859375">
        <ele>1018.79998779296875</ele>
        <time>2026-08-21T13:37:55.000Z</time>
        <extensions>
          <ns3:TrackPointExtension>
            <ns3:hr>128</ns3:hr>
            <ns3:cad>56</ns3:cad>
          </ns3:TrackPointExtension>
        </extensions>
      </trkpt>
      <trkpt lat="45.297781862318515777587890625" lon="-70.82301565445959568023681640625">
        <ele>1018.4000244140625</ele>
        <time>2026-08-21T13:37:56.000Z</time>
        <extensions>
          <ns3:TrackPointExtension>
            <ns3:hr>128</ns3:hr>
            <ns3:cad>56</ns3:cad>
          </ns3:TrackPointExtension>
        </extensions>
      </trkpt>
      <trkpt lat="45.2977796830236911773681640625" lon="-70.82302202470600605010986328125">
        <ele>1018</ele>
        <time>2026-08-21T13:37:57.000Z</time>
        <extensions>
          <ns3:TrackPointExtension>
            <ns3:hr>127</ns3:hr>
            <ns3:cad>0</ns3:cad>
          </ns3:TrackPointExtension>
        </extensions>
      </trkpt>
      <trkpt lat="45.2977801859378814697265625" lon="-70.82302621565759181976318359375">
        <ele>1017.5999755859375</ele>
        <time>2026-08-21T13:37:58.000Z</time>
        <extensions>
          <ns3:TrackPointExtension>
            <ns3:hr>127</ns3:hr>
            <ns3:cad>0</ns3:cad>
          </ns3:TrackPointExtension>
        </extensions>
      </trkpt>
      <trkpt lat="45.29777373187243938446044921875" lon="-70.8230395428836345672607421875">
        <ele>1017.20001220703125</ele>
        <time>2026-08-21T13:37:59.000Z</time>
        <extensions>
          <ns3:TrackPointExtension>
            <ns3:hr>127</ns3:hr>
            <ns3:cad>0</ns3:cad>
          </ns3:TrackPointExtension>
        </extensions>
      </trkpt>
      <trkpt lat="45.2977709658443927764892578125" lon="-70.8230606652796268463134765625">
        <ele>1016.79998779296875</ele>
        <time>2026-08-21T13:38:00.000Z</time>
        <extensions>
          <ns3:TrackPointExtension>
            <ns3:hr>127</ns3:hr>
            <ns3:cad>0</ns3:cad>
          </ns3:TrackPointExtension>
        </extensions>
      </trkpt>
      <trkpt lat="45.29776937328279018402099609375" lon="-70.82307298667728900909423828125">
        <ele>1016.4000244140625</ele>
        <time>2026-08-21T13:38:01.000Z</time>
        <extensions>
          <ns3:TrackPointExtension>
            <ns3:hr>127</ns3:hr>
            <ns3:cad>0</ns3:cad>
          </ns3:TrackPointExtension>
        </extensions>
      </trkpt>
      <trkpt lat="45.29776702634990215301513671875" lon="-70.82307449541985988616943359375">
        <ele>1016</ele>
        <time>2026-08-21T13:38:02.000Z</time>
        <extensions>
          <ns3:TrackPointExtension>
            <ns3:hr>126</ns3:hr>
            <ns3:cad>0</ns3:cad>
          </ns3:TrackPointExtension>
        </extensions>
      </trkpt>
      <trkpt lat="45.29775897972285747528076171875" lon="-70.8230871520936489105224609375">
        <ele>1015.79998779296875</ele>
        <time>2026-08-21T13:38:03.000Z</time>
        <extensions>
          <ns3:TrackPointExtension>
            <ns3:hr>126</ns3:hr>
            <ns3:cad>0</ns3:cad>
          </ns3:TrackPointExtension>
        </extensions>
      </trkpt>
      <trkpt lat="45.29775403439998626708984375" lon="-70.82309930585324764251708984375">
        <ele>1015.4000244140625</ele>
        <time>2026-08-21T13:38:04.000Z</time>
        <extensions>
          <ns3:TrackPointExtension>
            <ns3:hr>127</ns3:hr>
            <ns3:cad>0</ns3:cad>
          </ns3:TrackPointExtension>
        </extensions>
      </trkpt>
      <trkpt lat="45.29775009490549564361572265625" lon="-70.8231069333851337432861328125">
        <ele>1015.20001220703125</ele>
        <time>2026-08-21T13:38:05.000Z</time>
        <extensions>
          <ns3:TrackPointExtension>
            <ns3:hr>127</ns3:hr>
            <ns3:cad>0</ns3:cad>
          </ns3:TrackPointExtension>
        </extensions>
      </trkpt>
      <trkpt lat="45.2977458201348781585693359375" lon="-70.823107101023197174072265625">
        <ele>1014.79998779296875</ele>
        <time>2026-08-21T13:38:06.000Z</time>
        <extensions>
          <ns3:TrackPointExtension>
            <ns3:hr>127</ns3:hr>
            <ns3:cad>0</ns3:cad>
          </ns3:TrackPointExtension>
        </extensions>
      </trkpt>
      <trkpt lat="45.297742299735546112060546875" lon="-70.82310752011835575103759765625">
        <ele>1014.5999755859375</ele>
        <time>2026-08-21T13:38:07.000Z</time>
        <extensions>
          <ns3:TrackPointExtension>
            <ns3:hr>127</ns3:hr>
            <ns3:cad>0</ns3:cad>
          </ns3:TrackPointExtension>
        </extensions>
      </trkpt>
      <trkpt lat="45.2977421320974826812744140625" lon="-70.82310668192803859710693359375">
        <ele>1014.4000244140625</ele>
        <time>2026-08-21T13:38:08.000Z</time>
        <extensions>
          <ns3:TrackPointExtension>
            <ns3:hr>127</ns3:hr>
            <ns3:cad>0</ns3:cad>
          </ns3:TrackPointExtension>
        </extensions>
      </trkpt>
      <trkpt lat="45.29774473048746585845947265625" lon="-70.82310902886092662811279296875">
        <ele>1014.20001220703125</ele>
        <time>2026-08-21T13:38:09.000Z</time>
        <extensions>
          <ns3:TrackPointExtension>
            <ns3:hr>128</ns3:hr>
            <ns3:cad>0</ns3:cad>
          </ns3:TrackPointExtension>
        </extensions>
      </trkpt>
      <trkpt lat="45.2977466583251953125" lon="-70.82310584373772144317626953125">
        <ele>1014.20001220703125</ele>
        <time>2026-08-21T13:38:10.000Z</time>
        <extensions>
          <ns3:TrackPointExtension>
            <ns3:hr>127</ns3:hr>
            <ns3:cad>0</ns3:cad>
          </ns3:TrackPointExtension>
        </extensions>
      </trkpt>
      <trkpt lat="45.2977481670677661895751953125" lon="-70.8231079392135143280029296875">
        <ele>1014</ele>
        <time>2026-08-21T13:38:11.000Z</time>
        <extensions>
          <ns3:TrackPointExtension>
            <ns3:hr>127</ns3:hr>
            <ns3:cad>0</ns3:cad>
          </ns3:TrackPointExtension>
        </extensions>
      </trkpt>
      <trkpt lat="45.2977434732019901275634765625" lon="-70.823114812374114990234375">
        <ele>1014</ele>
        <time>2026-08-21T13:38:12.000Z</time>
        <extensions>
          <ns3:TrackPointExtension>
            <ns3:hr>127</ns3:hr>
            <ns3:cad>0</ns3:cad>
          </ns3:TrackPointExtension>
        </extensions>
      </trkpt>
      <trkpt lat="45.2977421320974826812744140625" lon="-70.8231173269450664520263671875">
        <ele>1013.79998779296875</ele>
        <time>2026-08-21T13:38:13.000Z</time>
        <extensions>
          <ns3:TrackPointExtension>
            <ns3:hr>127</ns3:hr>
            <ns3:cad>0</ns3:cad>
          </ns3:TrackPointExtension>
        </extensions>
      </trkpt>
      <trkpt lat="45.29774137772619724273681640625" lon="-70.82312076352536678314208984375">
        <ele>1013.4000244140625</ele>
        <time>2026-08-21T13:38:14.000Z</time>
        <extensions>
          <ns3:TrackPointExtension>
            <ns3:hr>127</ns3:hr>
            <ns3:cad>0</ns3:cad>
          </ns3:TrackPointExtension>
        </extensions>
      </trkpt>
      <trkpt lat="45.2977399528026580810546875" lon="-70.82312445156276226043701171875">
        <ele>1013.20001220703125</ele>
        <time>2026-08-21T13:38:15.000Z</time>
        <extensions>
          <ns3:TrackPointExtension>
            <ns3:hr>128</ns3:hr>
            <ns3:cad>0</ns3:cad>
          </ns3:TrackPointExtension>
        </extensions>
      </trkpt>
      <trkpt lat="45.29773869551718235015869140625" lon="-70.82312210462987422943115234375">
        <ele>1013</ele>
        <time>2026-08-21T13:38:16.000Z</time>
        <extensions>
          <ns3:TrackPointExtension>
            <ns3:hr>128</ns3:hr>
            <ns3:cad>0</ns3:cad>
          </ns3:TrackPointExtension>
        </extensions>
      </trkpt>
      <trkpt lat="45.297734253108501434326171875" lon="-70.82312084734439849853515625">
        <ele>1012.79998779296875</ele>
        <time>2026-08-21T13:38:17.000Z</time>
        <extensions>
          <ns3:TrackPointExtension>
            <ns3:hr>128</ns3:hr>
            <ns3:cad>0</ns3:cad>
          </ns3:TrackPointExtension>
        </extensions>
      </trkpt>
      <trkpt lat="45.29772989451885223388671875" lon="-70.8231242001056671142578125">
        <ele>1012.79998779296875</ele>
        <time>2026-08-21T13:38:18.000Z</time>
        <extensions>
          <ns3:TrackPointExtension>
            <ns3:hr>128</ns3:hr>
            <ns3:cad>0</ns3:cad>
          </ns3:TrackPointExtension>
        </extensions>
      </trkpt>
      <trkpt lat="45.297727547585964202880859375" lon="-70.82312746904790401458740234375">
        <ele>1012.5999755859375</ele>
        <time>2026-08-21T13:38:19.000Z</time>
        <extensions>
          <ns3:TrackPointExtension>
            <ns3:hr>127</ns3:hr>
            <ns3:cad>0</ns3:cad>
          </ns3:TrackPointExtension>
        </extensions>
      </trkpt>
      <trkpt lat="45.2977257035672664642333984375" lon="-70.82312881015241146087646484375">
        <ele>1012.5999755859375</ele>
        <time>2026-08-21T13:38:20.000Z</time>
        <extensions>
          <ns3:TrackPointExtension>
            <ns3:hr>127</ns3:hr>
            <ns3:cad>0</ns3:cad>
          </ns3:TrackPointExtension>
        </extensions>
      </trkpt>
      <trkpt lat="45.2977265417575836181640625" lon="-70.82313015125691890716552734375">
        <ele>1012.4000244140625</ele>
        <time>2026-08-21T13:38:21.000Z</time>
        <extensions>
          <ns3:TrackPointExtension>
            <ns3:hr>126</ns3:hr>
            <ns3:cad>0</ns3:cad>
          </ns3:TrackPointExtension>
        </extensions>
      </trkpt>
      <trkpt lat="45.2977265417575836181640625" lon="-70.82313015125691890716552734375">
        <ele>1012.20001220703125</ele>
        <time>2026-08-21T13:38:22.000Z</time>
        <extensions>
          <ns3:TrackPointExtension>
            <ns3:hr>126</ns3:hr>
            <ns3:cad>0</ns3:cad>
          </ns3:TrackPointExtension>
        </extensions>
      </trkpt>
      <trkpt lat="45.2977265417575836181640625" lon="-70.82313015125691890716552734375">
        <ele>1012.20001220703125</ele>
        <time>2026-08-21T13:38:23.000Z</time>
        <extensions>
          <ns3:TrackPointExtension>
            <ns3:hr>125</ns3:hr>
            <ns3:cad>0</ns3:cad>
          </ns3:TrackPointExtension>
        </extensions>
      </trkpt>
      <trkpt lat="45.29772595502436161041259765625" lon="-70.82312964834272861480712890625">
        <ele>1012</ele>
        <time>2026-08-21T13:38:24.000Z</time>
        <extensions>
          <ns3:TrackPointExtension>
            <ns3:hr>125</ns3:hr>
            <ns3:cad>0</ns3:cad>
          </ns3:TrackPointExtension>
        </extensions>
      </trkpt>
      <trkpt lat="45.2977169863879680633544921875" lon="-70.82313400693237781524658203125">
        <ele>1012</ele>
        <time>2026-08-21T13:38:25.000Z</time>
        <extensions>
          <ns3:TrackPointExtension>
            <ns3:hr>125</ns3:hr>
            <ns3:cad>0</ns3:cad>
          </ns3:TrackPointExtension>
        </extensions>
      </trkpt>
      <trkpt lat="45.29770734719932079315185546875" lon="-70.82313786260783672332763671875">
        <ele>1011.79998779296875</ele>
        <time>2026-08-21T13:38:26.000Z</time>
        <extensions>
          <ns3:TrackPointExtension>
            <ns3:hr>124</ns3:hr>
            <ns3:cad>0</ns3:cad>
          </ns3:TrackPointExtension>
        </extensions>
      </trkpt>
      <trkpt lat="45.2976961992681026458740234375" lon="-70.823149345815181732177734375">
        <ele>1011.5999755859375</ele>
        <time>2026-08-21T13:38:27.000Z</time>
        <extensions>
          <ns3:TrackPointExtension>
            <ns3:hr>124</ns3:hr>
            <ns3:cad>0</ns3:cad>
          </ns3:TrackPointExtension>
        </extensions>
      </trkpt>
      <trkpt lat="45.29768354259431362152099609375" lon="-70.823159404098987579345703125">
        <ele>1011.20001220703125</ele>
        <time>2026-08-21T13:38:28.000Z</time>
        <extensions>
          <ns3:TrackPointExtension>
            <ns3:hr>124</ns3:hr>
            <ns3:cad>57</ns3:cad>
          </ns3:TrackPointExtension>
        </extensions>
      </trkpt>
      <trkpt lat="45.29767180792987346649169921875" lon="-70.823168791830539703369140625">
        <ele>1010.79998779296875</ele>
        <time>2026-08-21T13:38:29.000Z</time>
        <extensions>
          <ns3:TrackPointExtension>
            <ns3:hr>123</ns3:hr>
            <ns3:cad>57</ns3:cad>
          </ns3:TrackPointExtension>
        </extensions>
      </trkpt>
      <trkpt lat="45.29766359366476535797119140625" lon="-70.823192931711673736572265625">
        <ele>1010.4000244140625</ele>
        <time>2026-08-21T13:38:30.000Z</time>
        <extensions>
          <ns3:TrackPointExtension>
            <ns3:hr>123</ns3:hr>
            <ns3:cad>57</ns3:cad>
          </ns3:TrackPointExtension>
        </extensions>
      </trkpt>
      <trkpt lat="45.29764951206743717193603515625" lon="-70.8232155628502368927001953125">
        <ele>1010</ele>
        <time>2026-08-21T13:38:31.000Z</time>
        <extensions>
          <ns3:TrackPointExtension>
            <ns3:hr>123</ns3:hr>
            <ns3:cad>66</ns3:cad>
          </ns3:TrackPointExtension>
        </extensions>
      </trkpt>
      <trkpt lat="45.29764045961201190948486328125" lon="-70.82323492504656314849853515625">
        <ele>1009.79998779296875</ele>
        <time>2026-08-21T13:38:32.000Z</time>
        <extensions>
          <ns3:TrackPointExtension>
            <ns3:hr>123</ns3:hr>
            <ns3:cad>66</ns3:cad>
          </ns3:TrackPointExtension>
        </extensions>
      </trkpt>
      <trkpt lat="45.29763207770884037017822265625" lon="-70.82325227558612823486328125">
        <ele>1009.5999755859375</ele>
        <time>2026-08-21T13:38:33.000Z</time>
        <extensions>
          <ns3:TrackPointExtension>
            <ns3:hr>124</ns3:hr>
            <ns3:cad>68</ns3:cad>
          </ns3:TrackPointExtension>
        </extensions>
      </trkpt>
      <trkpt lat="45.29762587510049343109130859375" lon="-70.823280103504657745361328125">
        <ele>1009.5999755859375</ele>
        <time>2026-08-21T13:38:34.000Z</time>
        <extensions>
          <ns3:TrackPointExtension>
            <ns3:hr>125</ns3:hr>
            <ns3:cad>68</ns3:cad>
          </ns3:TrackPointExtension>
        </extensions>
      </trkpt>
      <trkpt lat="45.2976117096841335296630859375" lon="-70.82330365665256977081298828125">
        <ele>1009.5999755859375</ele>
        <time>2026-08-21T13:38:35.000Z</time>
        <extensions>
          <ns3:TrackPointExtension>
            <ns3:hr>125</ns3:hr>
            <ns3:cad>68</ns3:cad>
          </ns3:TrackPointExtension>
        </extensions>
      </trkpt>
      <trkpt lat="45.29760844074189662933349609375" lon="-70.82332980819046497344970703125">
        <ele>1009.79998779296875</ele>
        <time>2026-08-21T13:38:36.000Z</time>
        <extensions>
          <ns3:TrackPointExtension>
            <ns3:hr>125</ns3:hr>
            <ns3:cad>68</ns3:cad>
          </ns3:TrackPointExtension>
        </extensions>
      </trkpt>
      <trkpt lat="45.297618247568607330322265625" lon="-70.8233479969203472137451171875">
        <ele>1009.79998779296875</ele>
        <time>2026-08-21T13:38:37.000Z</time>
        <extensions>
          <ns3:TrackPointExtension>
            <ns3:hr>124</ns3:hr>
            <ns3:cad>68</ns3:cad>
          </ns3:TrackPointExtension>
        </extensions>
      </trkpt>
      <trkpt lat="45.29762436635792255401611328125" lon="-70.8233691193163394927978515625">
        <ele>1009.79998779296875</ele>
        <time>2026-08-21T13:38:38.000Z</time>
        <extensions>
          <ns3:TrackPointExtension>
            <ns3:hr>125</ns3:hr>
            <ns3:cad>68</ns3:cad>
          </ns3:TrackPointExtension>
        </extensions>
      </trkpt>
      <trkpt lat="45.2976273000240325927734375" lon="-70.82338613457977771759033203125">
        <ele>1009.79998779296875</ele>
        <time>2026-08-21T13:38:39.000Z</time>
        <extensions>
          <ns3:TrackPointExtension>
            <ns3:hr>125</ns3:hr>
            <ns3:cad>68</ns3:cad>
          </ns3:TrackPointExtension>
        </extensions>
      </trkpt>
      <trkpt lat="45.29763073660433292388916015625" lon="-70.82340717315673828125">
        <ele>1010</ele>
        <time>2026-08-21T13:38:40.000Z</time>
        <extensions>
          <ns3:TrackPointExtension>
            <ns3:hr>124</ns3:hr>
            <ns3:cad>0</ns3:cad>
          </ns3:TrackPointExtension>
        </extensions>
      </trkpt>
      <trkpt lat="45.29763911850750446319580078125" lon="-70.82342393696308135986328125">
        <ele>1010</ele>
        <time>2026-08-21T13:38:41.000Z</time>
        <extensions>
          <ns3:TrackPointExtension>
            <ns3:hr>123</ns3:hr>
            <ns3:cad>0</ns3:cad>
          </ns3:TrackPointExtension>
        </extensions>
      </trkpt>
      <trkpt lat="45.297651775181293487548828125" lon="-70.82344011403620243072509765625">
        <ele>1010.20001220703125</ele>
        <time>2026-08-21T13:38:42.000Z</time>
        <extensions>
          <ns3:TrackPointExtension>
            <ns3:hr>124</ns3:hr>
            <ns3:cad>0</ns3:cad>
          </ns3:TrackPointExtension>
        </extensions>
      </trkpt>
      <trkpt lat="45.297665856778621673583984375" lon="-70.82344665192067623138427734375">
        <ele>1010.20001220703125</ele>
        <time>2026-08-21T13:38:43.000Z</time>
        <extensions>
          <ns3:TrackPointExtension>
            <ns3:hr>124</ns3:hr>
            <ns3:cad>0</ns3:cad>
          </ns3:TrackPointExtension>
        </extensions>
      </trkpt>
      <trkpt lat="45.297673903405666351318359375" lon="-70.82345821894705295562744140625">
        <ele>1010.20001220703125</ele>
        <time>2026-08-21T13:38:44.000Z</time>
        <extensions>
          <ns3:TrackPointExtension>
            <ns3:hr>124</ns3:hr>
            <ns3:cad>0</ns3:cad>
          </ns3:TrackPointExtension>
        </extensions>
      </trkpt>
      <trkpt lat="45.29768371023237705230712890625" lon="-70.82347179763019084930419921875">
        <ele>1010</ele>
        <time>2026-08-21T13:38:45.000Z</time>
        <extensions>
          <ns3:TrackPointExtension>
            <ns3:hr>124</ns3:hr>
            <ns3:cad>0</ns3:cad>
          </ns3:TrackPointExtension>
        </extensions>
      </trkpt>
      <trkpt lat="45.2976884879171848297119140625" lon="-70.82347850315272808074951171875">
        <ele>1009.79998779296875</ele>
        <time>2026-08-21T13:38:46.000Z</time>
        <extensions>
          <ns3:TrackPointExtension>
            <ns3:hr>124</ns3:hr>
            <ns3:cad>0</ns3:cad>
          </ns3:TrackPointExtension>
        </extensions>
      </trkpt>
      <trkpt lat="45.2976898290216922760009765625" lon="-70.82348017953336238861083984375">
        <ele>1009.5999755859375</ele>
        <time>2026-08-21T13:38:47.000Z</time>
        <extensions>
          <ns3:TrackPointExtension>
            <ns3:hr>124</ns3:hr>
            <ns3:cad>53</ns3:cad>
          </ns3:TrackPointExtension>
        </extensions>
      </trkpt>
      <trkpt lat="45.297690331935882568359375" lon="-70.8234891481697559356689453125">
        <ele>1009.5999755859375</ele>
        <time>2026-08-21T13:38:48.000Z</time>
        <extensions>
          <ns3:TrackPointExtension>
            <ns3:hr>124</ns3:hr>
            <ns3:cad>0</ns3:cad>
          </ns3:TrackPointExtension>
        </extensions>
      </trkpt>
      <trkpt lat="45.29769326560199260711669921875" lon="-70.82349241711199283599853515625">
        <ele>1009.4000244140625</ele>
        <time>2026-08-21T13:38:49.000Z</time>
        <extensions>
          <ns3:TrackPointExtension>
            <ns3:hr>124</ns3:hr>
            <ns3:cad>0</ns3:cad>
          </ns3:TrackPointExtension>
        </extensions>
      </trkpt>
      <trkpt lat="45.2976955287158489227294921875" lon="-70.82349861972033977508544921875">
        <ele>1009</ele>
        <time>2026-08-21T13:38:50.000Z</time>
        <extensions>
          <ns3:TrackPointExtension>
            <ns3:hr>124</ns3:hr>
            <ns3:cad>0</ns3:cad>
          </ns3:TrackPointExtension>
        </extensions>
      </trkpt>
      <trkpt lat="45.29769527725875377655029296875" lon="-70.82352074794471263885498046875">
        <ele>1008.79998779296875</ele>
        <time>2026-08-21T13:38:51.000Z</time>
        <extensions>
          <ns3:TrackPointExtension>
            <ns3:hr>124</ns3:hr>
            <ns3:cad>0</ns3:cad>
          </ns3:TrackPointExtension>
        </extensions>
      </trkpt>
      <trkpt lat="45.297698043286800384521484375" lon="-70.82353818230330944061279296875">
        <ele>1008.20001220703125</ele>
        <time>2026-08-21T13:38:52.000Z</time>
        <extensions>
          <ns3:TrackPointExtension>
            <ns3:hr>124</ns3:hr>
            <ns3:cad>0</ns3:cad>
          </ns3:TrackPointExtension>
        </extensions>
      </trkpt>
      <trkpt lat="45.297704748809337615966796875" lon="-70.8235541917383670806884765625">
        <ele>1008</ele>
        <time>2026-08-21T13:38:53.000Z</time>
        <extensions>
          <ns3:TrackPointExtension>
            <ns3:hr>124</ns3:hr>
            <ns3:cad>0</ns3:cad>
          </ns3:TrackPointExtension>
        </extensions>
      </trkpt>
      <trkpt lat="45.2977143041789531707763671875" lon="-70.82357271574437618255615234375">
        <ele>1007.5999755859375</ele>
        <time>2026-08-21T13:38:54.000Z</time>
        <extensions>
          <ns3:TrackPointExtension>
            <ns3:hr>124</ns3:hr>
            <ns3:cad>0</ns3:cad>
          </ns3:TrackPointExtension>
        </extensions>
      </trkpt>
      <trkpt lat="45.2977220155298709869384765625" lon="-70.823588557541370391845703125">
        <ele>1007.4000244140625</ele>
        <time>2026-08-21T13:38:55.000Z</time>
        <extensions>
          <ns3:TrackPointExtension>
            <ns3:hr>123</ns3:hr>
            <ns3:cad>0</ns3:cad>
          </ns3:TrackPointExtension>
        </extensions>
      </trkpt>
      <trkpt lat="45.2977401204407215118408203125" lon="-70.823608003556728363037109375">
        <ele>1007.4000244140625</ele>
        <time>2026-08-21T13:38:56.000Z</time>
        <extensions>
          <ns3:TrackPointExtension>
            <ns3:hr>124</ns3:hr>
            <ns3:cad>0</ns3:cad>
          </ns3:TrackPointExtension>
        </extensions>
      </trkpt>
      <trkpt lat="45.297755710780620574951171875" lon="-70.8236276172101497650146484375">
        <ele>1007.5999755859375</ele>
        <time>2026-08-21T13:38:57.000Z</time>
        <extensions>
          <ns3:TrackPointExtension>
            <ns3:hr>124</ns3:hr>
            <ns3:cad>0</ns3:cad>
          </ns3:TrackPointExtension>
        </extensions>
      </trkpt>
      <trkpt lat="45.29777373187243938446044921875" lon="-70.82364882342517375946044921875">
        <ele>1007.79998779296875</ele>
        <time>2026-08-21T13:38:58.000Z</time>
        <extensions>
          <ns3:TrackPointExtension>
            <ns3:hr>125</ns3:hr>
            <ns3:cad>0</ns3:cad>
          </ns3:TrackPointExtension>
        </extensions>
      </trkpt>
      <trkpt lat="45.297793932259082794189453125" lon="-70.82366458140313625335693359375">
        <ele>1008</ele>
        <time>2026-08-21T13:38:59.000Z</time>
        <extensions>
          <ns3:TrackPointExtension>
            <ns3:hr>126</ns3:hr>
            <ns3:cad>0</ns3:cad>
          </ns3:TrackPointExtension>
        </extensions>
      </trkpt>
      <trkpt lat="45.29780239798128604888916015625" lon="-70.82367816008627414703369140625">
        <ele>1008.20001220703125</ele>
        <time>2026-08-21T13:39:00.000Z</time>
        <extensions>
          <ns3:TrackPointExtension>
            <ns3:hr>126</ns3:hr>
            <ns3:cad>0</ns3:cad>
          </ns3:TrackPointExtension>
        </extensions>
      </trkpt>
      <trkpt lat="45.29781195335090160369873046875" lon="-70.82370146177709102630615234375">
        <ele>1008.4000244140625</ele>
        <time>2026-08-21T13:39:01.000Z</time>
        <extensions>
          <ns3:TrackPointExtension>
            <ns3:hr>127</ns3:hr>
            <ns3:cad>0</ns3:cad>
          </ns3:TrackPointExtension>
        </extensions>
      </trkpt>
      <trkpt lat="45.29782067053020000457763671875" lon="-70.82371403463184833526611328125">
        <ele>1008.5999755859375</ele>
        <time>2026-08-21T13:39:02.000Z</time>
        <extensions>
          <ns3:TrackPointExtension>
            <ns3:hr>127</ns3:hr>
            <ns3:cad>0</ns3:cad>
          </ns3:TrackPointExtension>
        </extensions>
      </trkpt>
      <trkpt lat="45.2978293038904666900634765625" lon="-70.82373012788593769073486328125">
        <ele>1008.79998779296875</ele>
        <time>2026-08-21T13:39:03.000Z</time>
        <extensions>
          <ns3:TrackPointExtension>
            <ns3:hr>127</ns3:hr>
            <ns3:cad>0</ns3:cad>
          </ns3:TrackPointExtension>
        </extensions>
      </trkpt>
      <trkpt lat="45.29783944599330425262451171875" lon="-70.8237399347126483917236328125">
        <ele>1009</ele>
        <time>2026-08-21T13:39:04.000Z</time>
        <extensions>
          <ns3:TrackPointExtension>
            <ns3:hr>127</ns3:hr>
            <ns3:cad>0</ns3:cad>
          </ns3:TrackPointExtension>
        </extensions>
      </trkpt>
      <trkpt lat="45.29785067774355411529541015625" lon="-70.8237506635487079620361328125">
        <ele>1009.20001220703125</ele>
        <time>2026-08-21T13:39:05.000Z</time>
        <extensions>
          <ns3:TrackPointExtension>
            <ns3:hr>127</ns3:hr>
            <ns3:cad>0</ns3:cad>
          </ns3:TrackPointExtension>
        </extensions>
      </trkpt>
      <trkpt lat="45.297856628894805908203125" lon="-70.82376063801348209381103515625">
        <ele>1009.4000244140625</ele>
        <time>2026-08-21T13:39:06.000Z</time>
        <extensions>
          <ns3:TrackPointExtension>
            <ns3:hr>128</ns3:hr>
            <ns3:cad>0</ns3:cad>
          </ns3:TrackPointExtension>
        </extensions>
      </trkpt>
      <trkpt lat="45.2978608198463916778564453125" lon="-70.8237660862505435943603515625">
        <ele>1009.5999755859375</ele>
        <time>2026-08-21T13:39:07.000Z</time>
        <extensions>
          <ns3:TrackPointExtension>
            <ns3:hr>127</ns3:hr>
            <ns3:cad>0</ns3:cad>
          </ns3:TrackPointExtension>
        </extensions>
      </trkpt>
      <trkpt lat="45.2978581376373767852783203125" lon="-70.82377371378242969512939453125">
        <ele>1009.5999755859375</ele>
        <time>2026-08-21T13:39:08.000Z</time>
        <extensions>
          <ns3:TrackPointExtension>
            <ns3:hr>127</ns3:hr>
            <ns3:cad>0</ns3:cad>
          </ns3:TrackPointExtension>
        </extensions>
      </trkpt>
      <trkpt lat="45.2978641726076602935791015625" lon="-70.8237841911613941192626953125">
        <ele>1009.79998779296875</ele>
        <time>2026-08-21T13:39:09.000Z</time>
        <extensions>
          <ns3:TrackPointExtension>
            <ns3:hr>128</ns3:hr>
            <ns3:cad>0</ns3:cad>
          </ns3:TrackPointExtension>
        </extensions>
      </trkpt>
      <trkpt lat="45.29786668717861175537109375" lon="-70.82379139959812164306640625">
        <ele>1009.5999755859375</ele>
        <time>2026-08-21T13:39:10.000Z</time>
        <extensions>
          <ns3:TrackPointExtension>
            <ns3:hr>128</ns3:hr>
            <ns3:cad>0</ns3:cad>
          </ns3:TrackPointExtension>
        </extensions>
      </trkpt>
      <trkpt lat="45.29787045903503894805908203125" lon="-70.82379617728292942047119140625">
        <ele>1009.4000244140625</ele>
        <time>2026-08-21T13:39:11.000Z</time>
        <extensions>
          <ns3:TrackPointExtension>
            <ns3:hr>127</ns3:hr>
            <ns3:cad>0</ns3:cad>
          </ns3:TrackPointExtension>
        </extensions>
      </trkpt>
      <trkpt lat="45.297868363559246063232421875" lon="-70.82380405627191066741943359375">
        <ele>1009.4000244140625</ele>
        <time>2026-08-21T13:39:12.000Z</time>
        <extensions>
          <ns3:TrackPointExtension>
            <ns3:hr>127</ns3:hr>
            <ns3:cad>0</ns3:cad>
          </ns3:TrackPointExtension>
        </extensions>
      </trkpt>
      <trkpt lat="45.29786936938762664794921875" lon="-70.82381260581314563751220703125">
        <ele>1009</ele>
        <time>2026-08-21T13:39:13.000Z</time>
        <extensions>
          <ns3:TrackPointExtension>
            <ns3:hr>128</ns3:hr>
            <ns3:cad>0</ns3:cad>
          </ns3:TrackPointExtension>
        </extensions>
      </trkpt>
      <trkpt lat="45.2978732250630855560302734375" lon="-70.82381880842149257659912109375">
        <ele>1008.79998779296875</ele>
        <time>2026-08-21T13:39:14.000Z</time>
        <extensions>
          <ns3:TrackPointExtension>
            <ns3:hr>128</ns3:hr>
            <ns3:cad>0</ns3:cad>
          </ns3:TrackPointExtension>
        </extensions>
      </trkpt>
      <trkpt lat="45.29787884093821048736572265625" lon="-70.8238254301249980926513671875">
        <ele>1008.4000244140625</ele>
        <time>2026-08-21T13:39:15.000Z</time>
        <extensions>
          <ns3:TrackPointExtension>
            <ns3:hr>128</ns3:hr>
            <ns3:cad>0</ns3:cad>
          </ns3:TrackPointExtension>
        </extensions>
      </trkpt>
      <trkpt lat="45.29788806103169918060302734375" lon="-70.82383037544786930084228515625">
        <ele>1008</ele>
        <time>2026-08-21T13:39:16.000Z</time>
        <extensions>
          <ns3:TrackPointExtension>
            <ns3:hr>128</ns3:hr>
            <ns3:cad>0</ns3:cad>
          </ns3:TrackPointExtension>
        </extensions>
      </trkpt>
      <trkpt lat="45.29789342544972896575927734375" lon="-70.82383506931364536285400390625">
        <ele>1007.5999755859375</ele>
        <time>2026-08-21T13:39:17.000Z</time>
        <extensions>
          <ns3:TrackPointExtension>
            <ns3:hr>128</ns3:hr>
            <ns3:cad>0</ns3:cad>
          </ns3:TrackPointExtension>
        </extensions>
      </trkpt>
      <trkpt lat="45.29790264554321765899658203125" lon="-70.823846720159053802490234375">
        <ele>1007.20001220703125</ele>
        <time>2026-08-21T13:39:18.000Z</time>
        <extensions>
          <ns3:TrackPointExtension>
            <ns3:hr>129</ns3:hr>
            <ns3:cad>0</ns3:cad>
          </ns3:TrackPointExtension>
        </extensions>
      </trkpt>
      <trkpt lat="45.29790951870381832122802734375" lon="-70.8238596282899379730224609375">
        <ele>1006.79998779296875</ele>
        <time>2026-08-21T13:39:19.000Z</time>
        <extensions>
          <ns3:TrackPointExtension>
            <ns3:hr>129</ns3:hr>
            <ns3:cad>0</ns3:cad>
          </ns3:TrackPointExtension>
        </extensions>
      </trkpt>
      <trkpt lat="45.29791655950248241424560546875" lon="-70.82387815229594707489013671875">
        <ele>1006.4000244140625</ele>
        <time>2026-08-21T13:39:20.000Z</time>
        <extensions>
          <ns3:TrackPointExtension>
            <ns3:hr>130</ns3:hr>
            <ns3:cad>0</ns3:cad>
          </ns3:TrackPointExtension>
        </extensions>
      </trkpt>
      <trkpt lat="45.29792728833854198455810546875" lon="-70.8238921500742435455322265625">
        <ele>1006</ele>
        <time>2026-08-21T13:39:21.000Z</time>
        <extensions>
          <ns3:TrackPointExtension>
            <ns3:hr>130</ns3:hr>
            <ns3:cad>0</ns3:cad>
          </ns3:TrackPointExtension>
        </extensions>
      </trkpt>
      <trkpt lat="45.2979352511465549468994140625" lon="-70.82390715368092060089111328125">
        <ele>1005.79998779296875</ele>
        <time>2026-08-21T13:39:22.000Z</time>
        <extensions>
          <ns3:TrackPointExtension>
            <ns3:hr>130</ns3:hr>
            <ns3:cad>0</ns3:cad>
          </ns3:TrackPointExtension>
        </extensions>
      </trkpt>
      <trkpt lat="45.2979453094303607940673828125" lon="-70.823917798697948455810546875">
        <ele>1005.79998779296875</ele>
        <time>2026-08-21T13:39:23.000Z</time>
        <extensions>
          <ns3:TrackPointExtension>
            <ns3:hr>130</ns3:hr>
            <ns3:cad>0</ns3:cad>
          </ns3:TrackPointExtension>
        </extensions>
      </trkpt>
      <trkpt lat="45.29795612208545207977294921875" lon="-70.82392643205821514129638671875">
        <ele>1005.79998779296875</ele>
        <time>2026-08-21T13:39:24.000Z</time>
        <extensions>
          <ns3:TrackPointExtension>
            <ns3:hr>130</ns3:hr>
            <ns3:cad>0</ns3:cad>
          </ns3:TrackPointExtension>
        </extensions>
      </trkpt>
      <trkpt lat="45.29796014539897441864013671875" lon="-70.82393565215170383453369140625">
        <ele>1005.79998779296875</ele>
        <time>2026-08-21T13:39:25.000Z</time>
        <extensions>
          <ns3:TrackPointExtension>
            <ns3:hr>130</ns3:hr>
            <ns3:cad>0</ns3:cad>
          </ns3:TrackPointExtension>
        </extensions>
      </trkpt>
      <trkpt lat="45.29796500690281391143798828125" lon="-70.823946297168731689453125">
        <ele>1006</ele>
        <time>2026-08-21T13:39:26.000Z</time>
        <extensions>
          <ns3:TrackPointExtension>
            <ns3:hr>130</ns3:hr>
            <ns3:cad>0</ns3:cad>
          </ns3:TrackPointExtension>
        </extensions>
      </trkpt>
      <trkpt lat="45.2979704551398754119873046875" lon="-70.823961384594440460205078125">
        <ele>1006</ele>
        <time>2026-08-21T13:39:27.000Z</time>
        <extensions>
          <ns3:TrackPointExtension>
            <ns3:hr>130</ns3:hr>
            <ns3:cad>0</ns3:cad>
          </ns3:TrackPointExtension>
        </extensions>
      </trkpt>
      <trkpt lat="45.29797439463436603546142578125" lon="-70.82396968267858028411865234375">
        <ele>1006.20001220703125</ele>
        <time>2026-08-21T13:39:28.000Z</time>
        <extensions>
          <ns3:TrackPointExtension>
            <ns3:hr>130</ns3:hr>
            <ns3:cad>0</ns3:cad>
          </ns3:TrackPointExtension>
        </extensions>
      </trkpt>
      <trkpt lat="45.29798981733620166778564453125" lon="-70.8239759691059589385986328125">
        <ele>1006.20001220703125</ele>
        <time>2026-08-21T13:39:29.000Z</time>
        <extensions>
          <ns3:TrackPointExtension>
            <ns3:hr>130</ns3:hr>
            <ns3:cad>0</ns3:cad>
          </ns3:TrackPointExtension>
        </extensions>
      </trkpt>
      <trkpt lat="45.297996439039707183837890625" lon="-70.8239840157330036163330078125">
        <ele>1006.20001220703125</ele>
        <time>2026-08-21T13:39:30.000Z</time>
        <extensions>
          <ns3:TrackPointExtension>
            <ns3:hr>129</ns3:hr>
            <ns3:cad>0</ns3:cad>
          </ns3:TrackPointExtension>
        </extensions>
      </trkpt>
      <trkpt lat="45.2980033122003078460693359375" lon="-70.82400438375771045684814453125">
        <ele>1006.20001220703125</ele>
        <time>2026-08-21T13:39:31.000Z</time>
        <extensions>
          <ns3:TrackPointExtension>
            <ns3:hr>129</ns3:hr>
            <ns3:cad>48</ns3:cad>
          </ns3:TrackPointExtension>
        </extensions>
      </trkpt>
      <trkpt lat="45.2980023063719272613525390625" lon="-70.82401712425053119659423828125">
        <ele>1006.20001220703125</ele>
        <time>2026-08-21T13:39:32.000Z</time>
        <extensions>
          <ns3:TrackPointExtension>
            <ns3:hr>129</ns3:hr>
            <ns3:cad>48</ns3:cad>
          </ns3:TrackPointExtension>
        </extensions>
      </trkpt>
      <trkpt lat="45.29800473712384700775146484375" lon="-70.824029445648193359375">
        <ele>1006.20001220703125</ele>
        <time>2026-08-21T13:39:33.000Z</time>
        <extensions>
          <ns3:TrackPointExtension>
            <ns3:hr>129</ns3:hr>
            <ns3:cad>53</ns3:cad>
          </ns3:TrackPointExtension>
        </extensions>
      </trkpt>
      <trkpt lat="45.29800071381032466888427734375" lon="-70.824037156999111175537109375">
        <ele>1006.20001220703125</ele>
        <time>2026-08-21T13:39:34.000Z</time>
        <extensions>
          <ns3:TrackPointExtension>
            <ns3:hr>130</ns3:hr>
            <ns3:cad>53</ns3:cad>
          </ns3:TrackPointExtension>
        </extensions>
      </trkpt>
      <trkpt lat="45.29800054617226123809814453125" lon="-70.82405501045286655426025390625">
        <ele>1006</ele>
        <time>2026-08-21T13:39:35.000Z</time>
        <extensions>
          <ns3:TrackPointExtension>
            <ns3:hr>130</ns3:hr>
            <ns3:cad>53</ns3:cad>
          </ns3:TrackPointExtension>
        </extensions>
      </trkpt>
      <trkpt lat="45.29800557531416416168212890625" lon="-70.824075378477573394775390625">
        <ele>1006</ele>
        <time>2026-08-21T13:39:36.000Z</time>
        <extensions>
          <ns3:TrackPointExtension>
            <ns3:hr>130</ns3:hr>
            <ns3:cad>53</ns3:cad>
          </ns3:TrackPointExtension>
        </extensions>
      </trkpt>
      <trkpt lat="45.29800708405673503875732421875" lon="-70.82408853806555271148681640625">
        <ele>1005.79998779296875</ele>
        <time>2026-08-21T13:39:37.000Z</time>
        <extensions>
          <ns3:TrackPointExtension>
            <ns3:hr>131</ns3:hr>
            <ns3:cad>53</ns3:cad>
          </ns3:TrackPointExtension>
        </extensions>
      </trkpt>
      <trkpt lat="45.29800616204738616943359375" lon="-70.824104212224483489990234375">
        <ele>1005.79998779296875</ele>
        <time>2026-08-21T13:39:38.000Z</time>
        <extensions>
          <ns3:TrackPointExtension>
            <ns3:hr>132</ns3:hr>
            <ns3:cad>53</ns3:cad>
          </ns3:TrackPointExtension>
        </extensions>
      </trkpt>
      <trkpt lat="45.29800607822835445404052734375" lon="-70.8241258375346660614013671875">
        <ele>1005.79998779296875</ele>
        <time>2026-08-21T13:39:39.000Z</time>
        <extensions>
          <ns3:TrackPointExtension>
            <ns3:hr>132</ns3:hr>
            <ns3:cad>53</ns3:cad>
          </ns3:TrackPointExtension>
        </extensions>
      </trkpt>
      <trkpt lat="45.29801060445606708526611328125" lon="-70.82414687611162662506103515625">
        <ele>1006</ele>
        <time>2026-08-21T13:39:40.000Z</time>
        <extensions>
          <ns3:TrackPointExtension>
            <ns3:hr>133</ns3:hr>
            <ns3:cad>53</ns3:cad>
          </ns3:TrackPointExtension>
        </extensions>
      </trkpt>
      <trkpt lat="45.2980137057602405548095703125" lon="-70.82415173761546611785888671875">
        <ele>1006.20001220703125</ele>
        <time>2026-08-21T13:39:41.000Z</time>
        <extensions>
          <ns3:TrackPointExtension>
            <ns3:hr>133</ns3:hr>
            <ns3:cad>53</ns3:cad>
          </ns3:TrackPointExtension>
        </extensions>
      </trkpt>
      <trkpt lat="45.29802233912050724029541015625" lon="-70.824163891375064849853515625">
        <ele>1006.4000244140625</ele>
        <time>2026-08-21T13:39:42.000Z</time>
        <extensions>
          <ns3:TrackPointExtension>
            <ns3:hr>133</ns3:hr>
            <ns3:cad>53</ns3:cad>
          </ns3:TrackPointExtension>
        </extensions>
      </trkpt>
      <trkpt lat="45.29802435077726840972900390625" lon="-70.82417470403015613555908203125">
        <ele>1006.5999755859375</ele>
        <time>2026-08-21T13:39:43.000Z</time>
        <extensions>
          <ns3:TrackPointExtension>
            <ns3:hr>134</ns3:hr>
            <ns3:cad>60</ns3:cad>
          </ns3:TrackPointExtension>
        </extensions>
      </trkpt>
      <trkpt lat="45.2980210818350315093994140625" lon="-70.8241788111627101898193359375">
        <ele>1006.79998779296875</ele>
        <time>2026-08-21T13:39:44.000Z</time>
        <extensions>
          <ns3:TrackPointExtension>
            <ns3:hr>134</ns3:hr>
            <ns3:cad>60</ns3:cad>
          </ns3:TrackPointExtension>
        </extensions>
      </trkpt>
      <trkpt lat="45.2980207465589046478271484375" lon="-70.8241841755807399749755859375">
        <ele>1007</ele>
        <time>2026-08-21T13:39:45.000Z</time>
        <extensions>
          <ns3:TrackPointExtension>
            <ns3:hr>134</ns3:hr>
            <ns3:cad>60</ns3:cad>
          </ns3:TrackPointExtension>
        </extensions>
      </trkpt>
      <trkpt lat="45.29801831580698490142822265625" lon="-70.82418945617973804473876953125">
        <ele>1007.4000244140625</ele>
        <time>2026-08-21T13:39:46.000Z</time>
        <extensions>
          <ns3:TrackPointExtension>
            <ns3:hr>135</ns3:hr>
            <ns3:cad>0</ns3:cad>
          </ns3:TrackPointExtension>
        </extensions>
      </trkpt>
      <trkpt lat="45.2980135381221771240234375" lon="-70.82419800572097301483154296875">
        <ele>1007.5999755859375</ele>
        <time>2026-08-21T13:39:47.000Z</time>
        <extensions>
          <ns3:TrackPointExtension>
            <ns3:hr>136</ns3:hr>
            <ns3:cad>0</ns3:cad>
          </ns3:TrackPointExtension>
        </extensions>
      </trkpt>
      <trkpt lat="45.2980106882750988006591796875" lon="-70.824198424816131591796875">
        <ele>1008</ele>
        <time>2026-08-21T13:39:48.000Z</time>
        <extensions>
          <ns3:TrackPointExtension>
            <ns3:hr>136</ns3:hr>
            <ns3:cad>0</ns3:cad>
          </ns3:TrackPointExtension>
        </extensions>
      </trkpt>
      <trkpt lat="45.29800306074321269989013671875" lon="-70.82421828992664813995361328125">
        <ele>1008.4000244140625</ele>
        <time>2026-08-21T13:39:49.000Z</time>
        <extensions>
          <ns3:TrackPointExtension>
            <ns3:hr>136</ns3:hr>
            <ns3:cad>0</ns3:cad>
          </ns3:TrackPointExtension>
        </extensions>
      </trkpt>
      <trkpt lat="45.29800389893352985382080078125" lon="-70.824229605495929718017578125">
        <ele>1008.5999755859375</ele>
        <time>2026-08-21T13:39:50.000Z</time>
        <extensions>
          <ns3:TrackPointExtension>
            <ns3:hr>135</ns3:hr>
            <ns3:cad>0</ns3:cad>
          </ns3:TrackPointExtension>
        </extensions>
      </trkpt>
      <trkpt lat="45.29800691641867160797119140625" lon="-70.82423262298107147216796875">
        <ele>1008.79998779296875</ele>
        <time>2026-08-21T13:39:51.000Z</time>
        <extensions>
          <ns3:TrackPointExtension>
            <ns3:hr>135</ns3:hr>
            <ns3:cad>0</ns3:cad>
          </ns3:TrackPointExtension>
        </extensions>
      </trkpt>
      <trkpt lat="45.298006832599639892578125" lon="-70.8242492191493511199951171875">
        <ele>1009</ele>
        <time>2026-08-21T13:39:52.000Z</time>
        <extensions>
          <ns3:TrackPointExtension>
            <ns3:hr>134</ns3:hr>
            <ns3:cad>0</ns3:cad>
          </ns3:TrackPointExtension>
        </extensions>
      </trkpt>
      <trkpt lat="45.2980070002377033233642578125" lon="-70.82426757551729679107666015625">
        <ele>1009.20001220703125</ele>
        <time>2026-08-21T13:39:53.000Z</time>
        <extensions>
          <ns3:TrackPointExtension>
            <ns3:hr>134</ns3:hr>
            <ns3:cad>0</ns3:cad>
          </ns3:TrackPointExtension>
        </extensions>
      </trkpt>
      <trkpt lat="45.29800557531416416168212890625" lon="-70.82427964545786380767822265625">
        <ele>1009.20001220703125</ele>
        <time>2026-08-21T13:39:54.000Z</time>
        <extensions>
          <ns3:TrackPointExtension>
            <ns3:hr>134</ns3:hr>
            <ns3:cad>0</ns3:cad>
          </ns3:TrackPointExtension>
        </extensions>
      </trkpt>
      <trkpt lat="45.29800104908645153045654296875" lon="-70.8242944814264774322509765625">
        <ele>1009.20001220703125</ele>
        <time>2026-08-21T13:39:55.000Z</time>
        <extensions>
          <ns3:TrackPointExtension>
            <ns3:hr>134</ns3:hr>
            <ns3:cad>0</ns3:cad>
          </ns3:TrackPointExtension>
        </extensions>
      </trkpt>
      <trkpt lat="45.29799534939229488372802734375" lon="-70.82430546171963214874267578125">
        <ele>1009.20001220703125</ele>
        <time>2026-08-21T13:39:56.000Z</time>
        <extensions>
          <ns3:TrackPointExtension>
            <ns3:hr>135</ns3:hr>
            <ns3:cad>0</ns3:cad>
          </ns3:TrackPointExtension>
        </extensions>
      </trkpt>
      <trkpt lat="45.29800004325807094573974609375" lon="-70.82432457245886325836181640625">
        <ele>1009.20001220703125</ele>
        <time>2026-08-21T13:39:57.000Z</time>
        <extensions>
          <ns3:TrackPointExtension>
            <ns3:hr>136</ns3:hr>
            <ns3:cad>65</ns3:cad>
          </ns3:TrackPointExtension>
        </extensions>
      </trkpt>
      <trkpt lat="45.29800071381032466888427734375" lon="-70.824339576065540313720703125">
        <ele>1009.20001220703125</ele>
        <time>2026-08-21T13:39:58.000Z</time>
        <extensions>
          <ns3:TrackPointExtension>
            <ns3:hr>137</ns3:hr>
            <ns3:cad>0</ns3:cad>
          </ns3:TrackPointExtension>
        </extensions>
      </trkpt>
      <trkpt lat="45.297997780144214630126953125" lon="-70.8243571780622005462646484375">
        <ele>1009.20001220703125</ele>
        <time>2026-08-21T13:39:59.000Z</time>
        <extensions>
          <ns3:TrackPointExtension>
            <ns3:hr>138</ns3:hr>
            <ns3:cad>0</ns3:cad>
          </ns3:TrackPointExtension>
        </extensions>
      </trkpt>
      <trkpt lat="45.29799367301166057586669921875" lon="-70.82436983473598957061767578125">
        <ele>1009.20001220703125</ele>
        <time>2026-08-21T13:40:00.000Z</time>
        <extensions>
          <ns3:TrackPointExtension>
            <ns3:hr>140</ns3:hr>
            <ns3:cad>0</ns3:cad>
          </ns3:TrackPointExtension>
        </extensions>
      </trkpt>
      <trkpt lat="45.2979888953268527984619140625" lon="-70.82437000237405300140380859375">
        <ele>1009.20001220703125</ele>
        <time>2026-08-21T13:40:01.000Z</time>
        <extensions>
          <ns3:TrackPointExtension>
            <ns3:hr>140</ns3:hr>
            <ns3:cad>0</ns3:cad>
          </ns3:TrackPointExtension>
        </extensions>
      </trkpt>
      <trkpt lat="45.29798260889947414398193359375" lon="-70.82437318749725818634033203125">
        <ele>1009.20001220703125</ele>
        <time>2026-08-21T13:40:02.000Z</time>
        <extensions>
          <ns3:TrackPointExtension>
            <ns3:hr>141</ns3:hr>
            <ns3:cad>0</ns3:cad>
          </ns3:TrackPointExtension>
        </extensions>
      </trkpt>
      <trkpt lat="45.297983027994632720947265625" lon="-70.824395902454853057861328125">
        <ele>1009.20001220703125</ele>
        <time>2026-08-21T13:40:03.000Z</time>
        <extensions>
          <ns3:TrackPointExtension>
            <ns3:hr>141</ns3:hr>
            <ns3:cad>0</ns3:cad>
          </ns3:TrackPointExtension>
        </extensions>
      </trkpt>
      <trkpt lat="45.2979842014610767364501953125" lon="-70.8244114927947521209716796875">
        <ele>1009</ele>
        <time>2026-08-21T13:40:04.000Z</time>
        <extensions>
          <ns3:TrackPointExtension>
            <ns3:hr>141</ns3:hr>
            <ns3:cad>0</ns3:cad>
          </ns3:TrackPointExtension>
        </extensions>
      </trkpt>
      <trkpt lat="45.29798143543303012847900390625" lon="-70.82441912032663822174072265625">
        <ele>1008.79998779296875</ele>
        <time>2026-08-21T13:40:05.000Z</time>
        <extensions>
          <ns3:TrackPointExtension>
            <ns3:hr>141</ns3:hr>
            <ns3:cad>0</ns3:cad>
          </ns3:TrackPointExtension>
        </extensions>
      </trkpt>
      <trkpt lat="45.2979882247745990753173828125" lon="-70.8244342915713787078857421875">
        <ele>1008.79998779296875</ele>
        <time>2026-08-21T13:40:06.000Z</time>
        <extensions>
          <ns3:TrackPointExtension>
            <ns3:hr>140</ns3:hr>
            <ns3:cad>0</ns3:cad>
          </ns3:TrackPointExtension>
        </extensions>
      </trkpt>
      <trkpt lat="45.2979835309088230133056640625" lon="-70.82444250583648681640625">
        <ele>1008.5999755859375</ele>
        <time>2026-08-21T13:40:07.000Z</time>
        <extensions>
          <ns3:TrackPointExtension>
            <ns3:hr>140</ns3:hr>
            <ns3:cad>0</ns3:cad>
          </ns3:TrackPointExtension>
        </extensions>
      </trkpt>
      <trkpt lat="45.29798311181366443634033203125" lon="-70.82445616833865642547607421875">
        <ele>1008.5999755859375</ele>
        <time>2026-08-21T13:40:08.000Z</time>
        <extensions>
          <ns3:TrackPointExtension>
            <ns3:hr>140</ns3:hr>
            <ns3:cad>0</ns3:cad>
          </ns3:TrackPointExtension>
        </extensions>
      </trkpt>
      <trkpt lat="45.2979838661849498748779296875" lon="-70.82446195185184478759765625">
        <ele>1008.4000244140625</ele>
        <time>2026-08-21T13:40:09.000Z</time>
        <extensions>
          <ns3:TrackPointExtension>
            <ns3:hr>141</ns3:hr>
            <ns3:cad>0</ns3:cad>
          </ns3:TrackPointExtension>
        </extensions>
      </trkpt>
      <trkpt lat="45.297988392412662506103515625" lon="-70.8244681544601917266845703125">
        <ele>1008.20001220703125</ele>
        <time>2026-08-21T13:40:10.000Z</time>
        <extensions>
          <ns3:TrackPointExtension>
            <ns3:hr>140</ns3:hr>
            <ns3:cad>0</ns3:cad>
          </ns3:TrackPointExtension>
        </extensions>
      </trkpt>
      <trkpt lat="45.2979865483939647674560546875" lon="-70.82447343505918979644775390625">
        <ele>1007.79998779296875</ele>
        <time>2026-08-21T13:40:11.000Z</time>
        <extensions>
          <ns3:TrackPointExtension>
            <ns3:hr>140</ns3:hr>
            <ns3:cad>0</ns3:cad>
          </ns3:TrackPointExtension>
        </extensions>
      </trkpt>
      <trkpt lat="45.29798696748912334442138671875" lon="-70.8244840800762176513671875">
        <ele>1007.4000244140625</ele>
        <time>2026-08-21T13:40:12.000Z</time>
        <extensions>
          <ns3:TrackPointExtension>
            <ns3:hr>140</ns3:hr>
            <ns3:cad>0</ns3:cad>
          </ns3:TrackPointExtension>
        </extensions>
      </trkpt>
      <trkpt lat="45.297981686890125274658203125" lon="-70.82449070177972316741943359375">
        <ele>1007.20001220703125</ele>
        <time>2026-08-21T13:40:13.000Z</time>
        <extensions>
          <ns3:TrackPointExtension>
            <ns3:hr>139</ns3:hr>
            <ns3:cad>0</ns3:cad>
          </ns3:TrackPointExtension>
        </extensions>
      </trkpt>
      <trkpt lat="45.2979815192520618438720703125" lon="-70.82449539564549922943115234375">
        <ele>1006.79998779296875</ele>
        <time>2026-08-21T13:40:14.000Z</time>
        <extensions>
          <ns3:TrackPointExtension>
            <ns3:hr>139</ns3:hr>
            <ns3:cad>0</ns3:cad>
          </ns3:TrackPointExtension>
        </extensions>
      </trkpt>
      <trkpt lat="45.297980345785617828369140625" lon="-70.82450394518673419952392578125">
        <ele>1006.5999755859375</ele>
        <time>2026-08-21T13:40:15.000Z</time>
        <extensions>
          <ns3:TrackPointExtension>
            <ns3:hr>139</ns3:hr>
            <ns3:cad>0</ns3:cad>
          </ns3:TrackPointExtension>
        </extensions>
      </trkpt>
      <trkpt lat="45.29797791503369808197021484375" lon="-70.82451283000409603118896484375">
        <ele>1006.4000244140625</ele>
        <time>2026-08-21T13:40:16.000Z</time>
        <extensions>
          <ns3:TrackPointExtension>
            <ns3:hr>139</ns3:hr>
            <ns3:cad>0</ns3:cad>
          </ns3:TrackPointExtension>
        </extensions>
      </trkpt>
      <trkpt lat="45.2979738079011440277099609375" lon="-70.82452121190726757049560546875">
        <ele>1006.20001220703125</ele>
        <time>2026-08-21T13:40:17.000Z</time>
        <extensions>
          <ns3:TrackPointExtension>
            <ns3:hr>139</ns3:hr>
            <ns3:cad>0</ns3:cad>
          </ns3:TrackPointExtension>
        </extensions>
      </trkpt>
      <trkpt lat="45.297968946397304534912109375" lon="-70.8245318569242954254150390625">
        <ele>1005.79998779296875</ele>
        <time>2026-08-21T13:40:18.000Z</time>
        <extensions>
          <ns3:TrackPointExtension>
            <ns3:hr>139</ns3:hr>
            <ns3:cad>0</ns3:cad>
          </ns3:TrackPointExtension>
        </extensions>
      </trkpt>
      <trkpt lat="45.297963581979274749755859375" lon="-70.8245442621409893035888671875">
        <ele>1005.5999755859375</ele>
        <time>2026-08-21T13:40:19.000Z</time>
        <extensions>
          <ns3:TrackPointExtension>
            <ns3:hr>139</ns3:hr>
            <ns3:cad>0</ns3:cad>
          </ns3:TrackPointExtension>
        </extensions>
      </trkpt>
      <trkpt lat="45.29795897193253040313720703125" lon="-70.82456052303314208984375">
        <ele>1005.20001220703125</ele>
        <time>2026-08-21T13:40:20.000Z</time>
        <extensions>
          <ns3:TrackPointExtension>
            <ns3:hr>139</ns3:hr>
            <ns3:cad>0</ns3:cad>
          </ns3:TrackPointExtension>
        </extensions>
      </trkpt>
      <trkpt lat="45.29795494861900806427001953125" lon="-70.82456965930759906768798828125">
        <ele>1005</ele>
        <time>2026-08-21T13:40:21.000Z</time>
        <extensions>
          <ns3:TrackPointExtension>
            <ns3:hr>138</ns3:hr>
            <ns3:cad>53</ns3:cad>
          </ns3:TrackPointExtension>
        </extensions>
      </trkpt>
      <trkpt lat="45.29795159585773944854736328125" lon="-70.82457569427788257598876953125">
        <ele>1005</ele>
        <time>2026-08-21T13:40:22.000Z</time>
        <extensions>
          <ns3:TrackPointExtension>
            <ns3:hr>138</ns3:hr>
            <ns3:cad>53</ns3:cad>
          </ns3:TrackPointExtension>
        </extensions>
      </trkpt>
      <trkpt lat="45.297947824001312255859375" lon="-70.82457996904850006103515625">
        <ele>1004.79998779296875</ele>
        <time>2026-08-21T13:40:23.000Z</time>
        <extensions>
          <ns3:TrackPointExtension>
            <ns3:hr>137</ns3:hr>
            <ns3:cad>53</ns3:cad>
          </ns3:TrackPointExtension>
        </extensions>
      </trkpt>
      <trkpt lat="45.29794455505907535552978515625" lon="-70.82457887940108776092529296875">
        <ele>1004.79998779296875</ele>
        <time>2026-08-21T13:40:24.000Z</time>
        <extensions>
          <ns3:TrackPointExtension>
            <ns3:hr>137</ns3:hr>
            <ns3:cad>52</ns3:cad>
          </ns3:TrackPointExtension>
        </extensions>
      </trkpt>
      <trkpt lat="45.2979438006877899169921875" lon="-70.824587009847164154052734375">
        <ele>1004.79998779296875</ele>
        <time>2026-08-21T13:40:25.000Z</time>
        <extensions>
          <ns3:TrackPointExtension>
            <ns3:hr>137</ns3:hr>
            <ns3:cad>52</ns3:cad>
          </ns3:TrackPointExtension>
        </extensions>
      </trkpt>
      <trkpt lat="45.29794472269713878631591796875" lon="-70.82459463737905025482177734375">
        <ele>1004.79998779296875</ele>
        <time>2026-08-21T13:40:26.000Z</time>
        <extensions>
          <ns3:TrackPointExtension>
            <ns3:hr>137</ns3:hr>
            <ns3:cad>0</ns3:cad>
          </ns3:TrackPointExtension>
        </extensions>
      </trkpt>
      <trkpt lat="45.297944135963916778564453125" lon="-70.82459631375968456268310546875">
        <ele>1004.5999755859375</ele>
        <time>2026-08-21T13:40:27.000Z</time>
        <extensions>
          <ns3:TrackPointExtension>
            <ns3:hr>136</ns3:hr>
            <ns3:cad>0</ns3:cad>
          </ns3:TrackPointExtension>
        </extensions>
      </trkpt>
      <trkpt lat="45.29794774018228054046630859375" lon="-70.8246039412915706634521484375">
        <ele>1004.5999755859375</ele>
        <time>2026-08-21T13:40:28.000Z</time>
        <extensions>
          <ns3:TrackPointExtension>
            <ns3:hr>136</ns3:hr>
            <ns3:cad>0</ns3:cad>
          </ns3:TrackPointExtension>
        </extensions>
      </trkpt>
      <trkpt lat="45.29795377515256404876708984375" lon="-70.82461140118539333343505859375">
        <ele>1004.4000244140625</ele>
        <time>2026-08-21T13:40:29.000Z</time>
        <extensions>
          <ns3:TrackPointExtension>
            <ns3:hr>135</ns3:hr>
            <ns3:cad>0</ns3:cad>
          </ns3:TrackPointExtension>
        </extensions>
      </trkpt>
      <trkpt lat="45.2979500032961368560791015625" lon="-70.824609808623790740966796875">
        <ele>1004.20001220703125</ele>
        <time>2026-08-21T13:40:30.000Z</time>
        <extensions>
          <ns3:TrackPointExtension>
            <ns3:hr>134</ns3:hr>
            <ns3:cad>0</ns3:cad>
          </ns3:TrackPointExtension>
        </extensions>
      </trkpt>
      <trkpt lat="45.2979449741542339324951171875" lon="-70.82460838370025157928466796875">
        <ele>1004</ele>
        <time>2026-08-21T13:40:31.000Z</time>
        <extensions>
          <ns3:TrackPointExtension>
            <ns3:hr>134</ns3:hr>
            <ns3:cad>0</ns3:cad>
          </ns3:TrackPointExtension>
        </extensions>
      </trkpt>
      <trkpt lat="45.2979411184787750244140625" lon="-70.82461349666118621826171875">
        <ele>1003.5999755859375</ele>
        <time>2026-08-21T13:40:32.000Z</time>
        <extensions>
          <ns3:TrackPointExtension>
            <ns3:hr>133</ns3:hr>
            <ns3:cad>0</ns3:cad>
          </ns3:TrackPointExtension>
        </extensions>
      </trkpt>
      <trkpt lat="45.297936759889125823974609375" lon="-70.8246230520308017730712890625">
        <ele>1003.4000244140625</ele>
        <time>2026-08-21T13:40:33.000Z</time>
        <extensions>
          <ns3:TrackPointExtension>
            <ns3:hr>132</ns3:hr>
            <ns3:cad>60</ns3:cad>
          </ns3:TrackPointExtension>
        </extensions>
      </trkpt>
      <trkpt lat="45.2979318983852863311767578125" lon="-70.824640654027462005615234375">
        <ele>1003</ele>
        <time>2026-08-21T13:40:34.000Z</time>
        <extensions>
          <ns3:TrackPointExtension>
            <ns3:hr>132</ns3:hr>
            <ns3:cad>60</ns3:cad>
          </ns3:TrackPointExtension>
        </extensions>
      </trkpt>
      <trkpt lat="45.297926031053066253662109375" lon="-70.82465372979640960693359375">
        <ele>1002.79998779296875</ele>
        <time>2026-08-21T13:40:35.000Z</time>
        <extensions>
          <ns3:TrackPointExtension>
            <ns3:hr>131</ns3:hr>
            <ns3:cad>60</ns3:cad>
          </ns3:TrackPointExtension>
        </extensions>
      </trkpt>
      <trkpt lat="45.297926031053066253662109375" lon="-70.8246686495840549468994140625">
        <ele>1002.79998779296875</ele>
        <time>2026-08-21T13:40:36.000Z</time>
        <extensions>
          <ns3:TrackPointExtension>
            <ns3:hr>131</ns3:hr>
            <ns3:cad>55</ns3:cad>
          </ns3:TrackPointExtension>
        </extensions>
      </trkpt>
      <trkpt lat="45.29793600551784038543701171875" lon="-70.82469371147453784942626953125">
        <ele>1002.79998779296875</ele>
        <time>2026-08-21T13:40:37.000Z</time>
        <extensions>
          <ns3:TrackPointExtension>
            <ns3:hr>131</ns3:hr>
            <ns3:cad>55</ns3:cad>
          </ns3:TrackPointExtension>
        </extensions>
      </trkpt>
      <trkpt lat="45.29794187285006046295166015625" lon="-70.82470871508121490478515625">
        <ele>1002.79998779296875</ele>
        <time>2026-08-21T13:40:38.000Z</time>
        <extensions>
          <ns3:TrackPointExtension>
            <ns3:hr>131</ns3:hr>
            <ns3:cad>55</ns3:cad>
          </ns3:TrackPointExtension>
        </extensions>
      </trkpt>
      <trkpt lat="45.297939777374267578125" lon="-70.82472019828855991363525390625">
        <ele>1002.79998779296875</ele>
        <time>2026-08-21T13:40:39.000Z</time>
        <extensions>
          <ns3:TrackPointExtension>
            <ns3:hr>131</ns3:hr>
            <ns3:cad>0</ns3:cad>
          </ns3:TrackPointExtension>
        </extensions>
      </trkpt>
      <trkpt lat="45.29793818481266498565673828125" lon="-70.8247481100261211395263671875">
        <ele>1003</ele>
        <time>2026-08-21T13:40:40.000Z</time>
        <extensions>
          <ns3:TrackPointExtension>
            <ns3:hr>131</ns3:hr>
            <ns3:cad>0</ns3:cad>
          </ns3:TrackPointExtension>
        </extensions>
      </trkpt>
      <trkpt lat="45.29794069938361644744873046875" lon="-70.82476235926151275634765625">
        <ele>1003</ele>
        <time>2026-08-21T13:40:41.000Z</time>
        <extensions>
          <ns3:TrackPointExtension>
            <ns3:hr>132</ns3:hr>
            <ns3:cad>48</ns3:cad>
          </ns3:TrackPointExtension>
        </extensions>
      </trkpt>
      <trkpt lat="45.2979443036019802093505859375" lon="-70.8247796259820461273193359375">
        <ele>1003.20001220703125</ele>
        <time>2026-08-21T13:40:42.000Z</time>
        <extensions>
          <ns3:TrackPointExtension>
            <ns3:hr>133</ns3:hr>
            <ns3:cad>48</ns3:cad>
          </ns3:TrackPointExtension>
        </extensions>
      </trkpt>
      <trkpt lat="45.29794447124004364013671875" lon="-70.8247963897883892059326171875">
        <ele>1003.4000244140625</ele>
        <time>2026-08-21T13:40:43.000Z</time>
        <extensions>
          <ns3:TrackPointExtension>
            <ns3:hr>132</ns3:hr>
            <ns3:cad>48</ns3:cad>
          </ns3:TrackPointExtension>
        </extensions>
      </trkpt>
      <trkpt lat="45.29794153757393360137939453125" lon="-70.82480393350124359130859375">
        <ele>1003.79998779296875</ele>
        <time>2026-08-21T13:40:44.000Z</time>
        <extensions>
          <ns3:TrackPointExtension>
            <ns3:hr>132</ns3:hr>
            <ns3:cad>48</ns3:cad>
          </ns3:TrackPointExtension>
        </extensions>
      </trkpt>
      <trkpt lat="45.29794019646942615509033203125" lon="-70.82481474615633487701416015625">
        <ele>1004</ele>
        <time>2026-08-21T13:40:45.000Z</time>
        <extensions>
          <ns3:TrackPointExtension>
            <ns3:hr>132</ns3:hr>
            <ns3:cad>48</ns3:cad>
          </ns3:TrackPointExtension>
        </extensions>
      </trkpt>
      <trkpt lat="45.2979422919452190399169921875" lon="-70.82482547499239444732666015625">
        <ele>1004.20001220703125</ele>
        <time>2026-08-21T13:40:46.000Z</time>
        <extensions>
          <ns3:TrackPointExtension>
            <ns3:hr>132</ns3:hr>
            <ns3:cad>48</ns3:cad>
          </ns3:TrackPointExtension>
        </extensions>
      </trkpt>
      <trkpt lat="45.2979464828968048095703125" lon="-70.82482849247753620147705078125">
        <ele>1004.4000244140625</ele>
        <time>2026-08-21T13:40:47.000Z</time>
        <extensions>
          <ns3:TrackPointExtension>
            <ns3:hr>132</ns3:hr>
            <ns3:cad>48</ns3:cad>
          </ns3:TrackPointExtension>
        </extensions>
      </trkpt>
      <trkpt lat="45.2979505062103271484375" lon="-70.8248322643339633941650390625">
        <ele>1004.79998779296875</ele>
        <time>2026-08-21T13:40:48.000Z</time>
        <extensions>
          <ns3:TrackPointExtension>
            <ns3:hr>131</ns3:hr>
            <ns3:cad>0</ns3:cad>
          </ns3:TrackPointExtension>
        </extensions>
      </trkpt>
      <trkpt lat="45.2979523502290248870849609375" lon="-70.824835114181041717529296875">
        <ele>1005</ele>
        <time>2026-08-21T13:40:49.000Z</time>
        <extensions>
          <ns3:TrackPointExtension>
            <ns3:hr>131</ns3:hr>
            <ns3:cad>0</ns3:cad>
          </ns3:TrackPointExtension>
        </extensions>
      </trkpt>
      <trkpt lat="45.29794002883136272430419921875" lon="-70.82484123297035694122314453125">
        <ele>1005.20001220703125</ele>
        <time>2026-08-21T13:40:50.000Z</time>
        <extensions>
          <ns3:TrackPointExtension>
            <ns3:hr>130</ns3:hr>
            <ns3:cad>0</ns3:cad>
          </ns3:TrackPointExtension>
        </extensions>
      </trkpt>
      <trkpt lat="45.29793642461299896240234375" lon="-70.824857912957668304443359375">
        <ele>1005.4000244140625</ele>
        <time>2026-08-21T13:40:51.000Z</time>
        <extensions>
          <ns3:TrackPointExtension>
            <ns3:hr>130</ns3:hr>
            <ns3:cad>0</ns3:cad>
          </ns3:TrackPointExtension>
        </extensions>
      </trkpt>
      <trkpt lat="45.29793910682201385498046875" lon="-70.8248657919466495513916015625">
        <ele>1005.5999755859375</ele>
        <time>2026-08-21T13:40:52.000Z</time>
        <extensions>
          <ns3:TrackPointExtension>
            <ns3:hr>129</ns3:hr>
            <ns3:cad>0</ns3:cad>
          </ns3:TrackPointExtension>
        </extensions>
      </trkpt>
      <trkpt lat="45.2979409508407115936279296875" lon="-70.8248783648014068603515625">
        <ele>1005.79998779296875</ele>
        <time>2026-08-21T13:40:53.000Z</time>
        <extensions>
          <ns3:TrackPointExtension>
            <ns3:hr>128</ns3:hr>
            <ns3:cad>0</ns3:cad>
          </ns3:TrackPointExtension>
        </extensions>
      </trkpt>
      <trkpt lat="45.29793784953653812408447265625" lon="-70.82489672116935253143310546875">
        <ele>1006</ele>
        <time>2026-08-21T13:40:54.000Z</time>
        <extensions>
          <ns3:TrackPointExtension>
            <ns3:hr>128</ns3:hr>
            <ns3:cad>0</ns3:cad>
          </ns3:TrackPointExtension>
        </extensions>
      </trkpt>
      <trkpt lat="45.2979399450123310089111328125" lon="-70.8249199390411376953125">
        <ele>1006</ele>
        <time>2026-08-21T13:40:55.000Z</time>
        <extensions>
          <ns3:TrackPointExtension>
            <ns3:hr>129</ns3:hr>
            <ns3:cad>0</ns3:cad>
          </ns3:TrackPointExtension>
        </extensions>
      </trkpt>
      <trkpt lat="45.2979409508407115936279296875" lon="-70.82493695430457592010498046875">
        <ele>1006</ele>
        <time>2026-08-21T13:40:56.000Z</time>
        <extensions>
          <ns3:TrackPointExtension>
            <ns3:hr>129</ns3:hr>
            <ns3:cad>0</ns3:cad>
          </ns3:TrackPointExtension>
        </extensions>
      </trkpt>
      <trkpt lat="45.29793902300298213958740234375" lon="-70.82494902424514293670654296875">
        <ele>1006</ele>
        <time>2026-08-21T13:40:57.000Z</time>
        <extensions>
          <ns3:TrackPointExtension>
            <ns3:hr>129</ns3:hr>
            <ns3:cad>0</ns3:cad>
          </ns3:TrackPointExtension>
        </extensions>
      </trkpt>
      <trkpt lat="45.29793667607009410858154296875" lon="-70.824959166347980499267578125">
        <ele>1005.79998779296875</ele>
        <time>2026-08-21T13:40:58.000Z</time>
        <extensions>
          <ns3:TrackPointExtension>
            <ns3:hr>129</ns3:hr>
            <ns3:cad>0</ns3:cad>
          </ns3:TrackPointExtension>
        </extensions>
      </trkpt>
      <trkpt lat="45.29792837798595428466796875" lon="-70.8249703980982303619384765625">
        <ele>1005.5999755859375</ele>
        <time>2026-08-21T13:40:59.000Z</time>
        <extensions>
          <ns3:TrackPointExtension>
            <ns3:hr>129</ns3:hr>
            <ns3:cad>0</ns3:cad>
          </ns3:TrackPointExtension>
        </extensions>
      </trkpt>
      <trkpt lat="45.2979208342730998992919921875" lon="-70.824974589049816131591796875">
        <ele>1005.4000244140625</ele>
        <time>2026-08-21T13:41:00.000Z</time>
        <extensions>
          <ns3:TrackPointExtension>
            <ns3:hr>130</ns3:hr>
            <ns3:cad>0</ns3:cad>
          </ns3:TrackPointExtension>
        </extensions>
      </trkpt>
      <trkpt lat="45.29790549539029598236083984375" lon="-70.824983306229114532470703125">
        <ele>1005.20001220703125</ele>
        <time>2026-08-21T13:41:01.000Z</time>
        <extensions>
          <ns3:TrackPointExtension>
            <ns3:hr>131</ns3:hr>
            <ns3:cad>0</ns3:cad>
          </ns3:TrackPointExtension>
        </extensions>
      </trkpt>
      <trkpt lat="45.29790096916258335113525390625" lon="-70.82499210722744464874267578125">
        <ele>1005</ele>
        <time>2026-08-21T13:41:02.000Z</time>
        <extensions>
          <ns3:TrackPointExtension>
            <ns3:hr>131</ns3:hr>
            <ns3:cad>0</ns3:cad>
          </ns3:TrackPointExtension>
        </extensions>
      </trkpt>
      <trkpt lat="45.29789510183036327362060546875" lon="-70.8250056020915508270263671875">
        <ele>1004.79998779296875</ele>
        <time>2026-08-21T13:41:03.000Z</time>
        <extensions>
          <ns3:TrackPointExtension>
            <ns3:hr>132</ns3:hr>
            <ns3:cad>0</ns3:cad>
          </ns3:TrackPointExtension>
        </extensions>
      </trkpt>
      <trkpt lat="45.2979035675525665283203125" lon="-70.82502999342978000640869140625">
        <ele>1004.5999755859375</ele>
        <time>2026-08-21T13:41:04.000Z</time>
        <extensions>
          <ns3:TrackPointExtension>
            <ns3:hr>133</ns3:hr>
            <ns3:cad>0</ns3:cad>
          </ns3:TrackPointExtension>
        </extensions>
      </trkpt>
      <trkpt lat="45.29790113680064678192138671875" lon="-70.8250451646745204925537109375">
        <ele>1004.4000244140625</ele>
        <time>2026-08-21T13:41:05.000Z</time>
        <extensions>
          <ns3:TrackPointExtension>
            <ns3:hr>134</ns3:hr>
            <ns3:cad>0</ns3:cad>
          </ns3:TrackPointExtension>
        </extensions>
      </trkpt>
      <trkpt lat="45.29788940213620662689208984375" lon="-70.825055725872516632080078125">
        <ele>1004.20001220703125</ele>
        <time>2026-08-21T13:41:06.000Z</time>
        <extensions>
          <ns3:TrackPointExtension>
            <ns3:hr>134</ns3:hr>
            <ns3:cad>0</ns3:cad>
          </ns3:TrackPointExtension>
        </extensions>
      </trkpt>
      <trkpt lat="45.29787850566208362579345703125" lon="-70.82507022656500339508056640625">
        <ele>1004</ele>
        <time>2026-08-21T13:41:07.000Z</time>
        <extensions>
          <ns3:TrackPointExtension>
            <ns3:hr>135</ns3:hr>
            <ns3:cad>0</ns3:cad>
          </ns3:TrackPointExtension>
        </extensions>
      </trkpt>
      <trkpt lat="45.2978705428540706634521484375" lon="-70.82508690655231475830078125">
        <ele>1003.79998779296875</ele>
        <time>2026-08-21T13:41:08.000Z</time>
        <extensions>
          <ns3:TrackPointExtension>
            <ns3:hr>136</ns3:hr>
            <ns3:cad>52</ns3:cad>
          </ns3:TrackPointExtension>
        </extensions>
      </trkpt>
      <trkpt lat="45.297864340245723724365234375" lon="-70.82510006614029407501220703125">
        <ele>1003.5999755859375</ele>
        <time>2026-08-21T13:41:09.000Z</time>
        <extensions>
          <ns3:TrackPointExtension>
            <ns3:hr>135</ns3:hr>
            <ns3:cad>52</ns3:cad>
          </ns3:TrackPointExtension>
        </extensions>
      </trkpt>
      <trkpt lat="45.2978581376373767852783203125" lon="-70.82509939558804035186767578125">
        <ele>1003.5999755859375</ele>
        <time>2026-08-21T13:41:10.000Z</time>
        <extensions>
          <ns3:TrackPointExtension>
            <ns3:hr>135</ns3:hr>
            <ns3:cad>0</ns3:cad>
          </ns3:TrackPointExtension>
        </extensions>
      </trkpt>
      <trkpt lat="45.29784363694489002227783203125" lon="-70.825108028948307037353515625">
        <ele>1003.4000244140625</ele>
        <time>2026-08-21T13:41:11.000Z</time>
        <extensions>
          <ns3:TrackPointExtension>
            <ns3:hr>136</ns3:hr>
            <ns3:cad>0</ns3:cad>
          </ns3:TrackPointExtension>
        </extensions>
      </trkpt>
      <trkpt lat="45.297831483185291290283203125" lon="-70.82512001506984233856201171875">
        <ele>1003.20001220703125</ele>
        <time>2026-08-21T13:41:12.000Z</time>
        <extensions>
          <ns3:TrackPointExtension>
            <ns3:hr>136</ns3:hr>
            <ns3:cad>0</ns3:cad>
          </ns3:TrackPointExtension>
        </extensions>
      </trkpt>
      <trkpt lat="45.2978239394724369049072265625" lon="-70.825126804411411285400390625">
        <ele>1003.20001220703125</ele>
        <time>2026-08-21T13:41:13.000Z</time>
        <extensions>
          <ns3:TrackPointExtension>
            <ns3:hr>136</ns3:hr>
            <ns3:cad>0</ns3:cad>
          </ns3:TrackPointExtension>
        </extensions>
      </trkpt>
      <trkpt lat="45.2978155575692653656005859375" lon="-70.82513074390590190887451171875">
        <ele>1003</ele>
        <time>2026-08-21T13:41:14.000Z</time>
        <extensions>
          <ns3:TrackPointExtension>
            <ns3:hr>137</ns3:hr>
            <ns3:cad>0</ns3:cad>
          </ns3:TrackPointExtension>
        </extensions>
      </trkpt>
      <trkpt lat="45.297805331647396087646484375" lon="-70.82513040862977504730224609375">
        <ele>1002.79998779296875</ele>
        <time>2026-08-21T13:41:15.000Z</time>
        <extensions>
          <ns3:TrackPointExtension>
            <ns3:hr>137</ns3:hr>
            <ns3:cad>0</ns3:cad>
          </ns3:TrackPointExtension>
        </extensions>
      </trkpt>
      <trkpt lat="45.29779636301100254058837890625" lon="-70.82512789405882358551025390625">
        <ele>1002.5999755859375</ele>
        <time>2026-08-21T13:41:16.000Z</time>
        <extensions>
          <ns3:TrackPointExtension>
            <ns3:hr>138</ns3:hr>
            <ns3:cad>0</ns3:cad>
          </ns3:TrackPointExtension>
        </extensions>
      </trkpt>
      <trkpt lat="45.29778697527945041656494140625" lon="-70.82513694651424884796142578125">
        <ele>1002.4000244140625</ele>
        <time>2026-08-21T13:41:17.000Z</time>
        <extensions>
          <ns3:TrackPointExtension>
            <ns3:hr>138</ns3:hr>
            <ns3:cad>0</ns3:cad>
          </ns3:TrackPointExtension>
        </extensions>
      </trkpt>
      <trkpt lat="45.2977863885462284088134765625" lon="-70.8251484297215938568115234375">
        <ele>1002</ele>
        <time>2026-08-21T13:41:18.000Z</time>
        <extensions>
          <ns3:TrackPointExtension>
            <ns3:hr>138</ns3:hr>
            <ns3:cad>0</ns3:cad>
          </ns3:TrackPointExtension>
        </extensions>
      </trkpt>
      <trkpt lat="45.2977837063372135162353515625" lon="-70.8251601643860340118408203125">
        <ele>1001.5999755859375</ele>
        <time>2026-08-21T13:41:19.000Z</time>
        <extensions>
          <ns3:TrackPointExtension>
            <ns3:hr>138</ns3:hr>
            <ns3:cad>0</ns3:cad>
          </ns3:TrackPointExtension>
        </extensions>
      </trkpt>
      <trkpt lat="45.29777423478662967681884765625" lon="-70.825174413621425628662109375">
        <ele>1001.20001220703125</ele>
        <time>2026-08-21T13:41:20.000Z</time>
        <extensions>
          <ns3:TrackPointExtension>
            <ns3:hr>137</ns3:hr>
            <ns3:cad>0</ns3:cad>
          </ns3:TrackPointExtension>
        </extensions>
      </trkpt>
      <trkpt lat="45.29777155257761478424072265625" lon="-70.82517541944980621337890625">
        <ele>1000.79998779296875</ele>
        <time>2026-08-21T13:41:21.000Z</time>
        <extensions>
          <ns3:TrackPointExtension>
            <ns3:hr>137</ns3:hr>
            <ns3:cad>0</ns3:cad>
          </ns3:TrackPointExtension>
        </extensions>
      </trkpt>
      <trkpt lat="45.297768451273441314697265625" lon="-70.82518237642943859100341796875">
        <ele>1000.5999755859375</ele>
        <time>2026-08-21T13:41:22.000Z</time>
        <extensions>
          <ns3:TrackPointExtension>
            <ns3:hr>136</ns3:hr>
            <ns3:cad>0</ns3:cad>
          </ns3:TrackPointExtension>
        </extensions>
      </trkpt>
      <trkpt lat="45.2977622486650943756103515625" lon="-70.82519142888486385345458984375">
        <ele>1000.20001220703125</ele>
        <time>2026-08-21T13:41:23.000Z</time>
        <extensions>
          <ns3:TrackPointExtension>
            <ns3:hr>136</ns3:hr>
            <ns3:cad>0</ns3:cad>
          </ns3:TrackPointExtension>
        </extensions>
      </trkpt>
      <trkpt lat="45.29775998555123805999755859375" lon="-70.82520299591124057769775390625">
        <ele>999.79998779296875</ele>
        <time>2026-08-21T13:41:24.000Z</time>
        <extensions>
          <ns3:TrackPointExtension>
            <ns3:hr>136</ns3:hr>
            <ns3:cad>0</ns3:cad>
          </ns3:TrackPointExtension>
        </extensions>
      </trkpt>
      <trkpt lat="45.29775881208479404449462890625" lon="-70.82521372474730014801025390625">
        <ele>999.4000244140625</ele>
        <time>2026-08-21T13:41:25.000Z</time>
        <extensions>
          <ns3:TrackPointExtension>
            <ns3:hr>136</ns3:hr>
            <ns3:cad>0</ns3:cad>
          </ns3:TrackPointExtension>
        </extensions>
      </trkpt>
      <trkpt lat="45.29775512404739856719970703125" lon="-70.82521925680339336395263671875">
        <ele>999</ele>
        <time>2026-08-21T13:41:26.000Z</time>
        <extensions>
          <ns3:TrackPointExtension>
            <ns3:hr>136</ns3:hr>
            <ns3:cad>0</ns3:cad>
          </ns3:TrackPointExtension>
        </extensions>
      </trkpt>
      <trkpt lat="45.29774405993521213531494140625" lon="-70.82523300312459468841552734375">
        <ele>998.79998779296875</ele>
        <time>2026-08-21T13:41:27.000Z</time>
        <extensions>
          <ns3:TrackPointExtension>
            <ns3:hr>136</ns3:hr>
            <ns3:cad>0</ns3:cad>
          </ns3:TrackPointExtension>
        </extensions>
      </trkpt>
      <trkpt lat="45.29774791561067104339599609375" lon="-70.8252418041229248046875">
        <ele>998.4000244140625</ele>
        <time>2026-08-21T13:41:28.000Z</time>
        <extensions>
          <ns3:TrackPointExtension>
            <ns3:hr>136</ns3:hr>
            <ns3:cad>0</ns3:cad>
          </ns3:TrackPointExtension>
        </extensions>
      </trkpt>
      <trkpt lat="45.2977464906871318817138671875" lon="-70.8252557180821895599365234375">
        <ele>998.20001220703125</ele>
        <time>2026-08-21T13:41:29.000Z</time>
        <extensions>
          <ns3:TrackPointExtension>
            <ns3:hr>135</ns3:hr>
            <ns3:cad>0</ns3:cad>
          </ns3:TrackPointExtension>
        </extensions>
      </trkpt>
      <trkpt lat="45.29774221591651439666748046875" lon="-70.82527239806950092315673828125">
        <ele>998</ele>
        <time>2026-08-21T13:41:30.000Z</time>
        <extensions>
          <ns3:TrackPointExtension>
            <ns3:hr>135</ns3:hr>
            <ns3:cad>0</ns3:cad>
          </ns3:TrackPointExtension>
        </extensions>
      </trkpt>
      <trkpt lat="45.29774238355457782745361328125" lon="-70.82528312690556049346923828125">
        <ele>997.79998779296875</ele>
        <time>2026-08-21T13:41:31.000Z</time>
        <extensions>
          <ns3:TrackPointExtension>
            <ns3:hr>136</ns3:hr>
            <ns3:cad>0</ns3:cad>
          </ns3:TrackPointExtension>
        </extensions>
      </trkpt>
      <trkpt lat="45.29773785732686519622802734375" lon="-70.82529452629387378692626953125">
        <ele>997.5999755859375</ele>
        <time>2026-08-21T13:41:32.000Z</time>
        <extensions>
          <ns3:TrackPointExtension>
            <ns3:hr>136</ns3:hr>
            <ns3:cad>0</ns3:cad>
          </ns3:TrackPointExtension>
        </extensions>
      </trkpt>
      <trkpt lat="45.29772796668112277984619140625" lon="-70.825299136340618133544921875">
        <ele>997.4000244140625</ele>
        <time>2026-08-21T13:41:33.000Z</time>
        <extensions>
          <ns3:TrackPointExtension>
            <ns3:hr>135</ns3:hr>
            <ns3:cad>0</ns3:cad>
          </ns3:TrackPointExtension>
        </extensions>
      </trkpt>
      <trkpt lat="45.2977203391492366790771484375" lon="-70.8252989687025547027587890625">
        <ele>997</ele>
        <time>2026-08-21T13:41:34.000Z</time>
        <extensions>
          <ns3:TrackPointExtension>
            <ns3:hr>135</ns3:hr>
            <ns3:cad>0</ns3:cad>
          </ns3:TrackPointExtension>
        </extensions>
      </trkpt>
      <trkpt lat="45.29771254397928714752197265625" lon="-70.82529611885547637939453125">
        <ele>996.79998779296875</ele>
        <time>2026-08-21T13:41:35.000Z</time>
        <extensions>
          <ns3:TrackPointExtension>
            <ns3:hr>134</ns3:hr>
            <ns3:cad>0</ns3:cad>
          </ns3:TrackPointExtension>
        </extensions>
      </trkpt>
      <trkpt lat="45.297700725495815277099609375" lon="-70.82529209554195404052734375">
        <ele>996.4000244140625</ele>
        <time>2026-08-21T13:41:36.000Z</time>
        <extensions>
          <ns3:TrackPointExtension>
            <ns3:hr>133</ns3:hr>
            <ns3:cad>0</ns3:cad>
          </ns3:TrackPointExtension>
        </extensions>
      </trkpt>
      <trkpt lat="45.297690667212009429931640625" lon="-70.8252932690083980560302734375">
        <ele>995.79998779296875</ele>
        <time>2026-08-21T13:41:37.000Z</time>
        <extensions>
          <ns3:TrackPointExtension>
            <ns3:hr>133</ns3:hr>
            <ns3:cad>0</ns3:cad>
          </ns3:TrackPointExtension>
        </extensions>
      </trkpt>
      <trkpt lat="45.29767834581434726715087890625" lon="-70.8252967894077301025390625">
        <ele>995.4000244140625</ele>
        <time>2026-08-21T13:41:38.000Z</time>
        <extensions>
          <ns3:TrackPointExtension>
            <ns3:hr>132</ns3:hr>
            <ns3:cad>0</ns3:cad>
          </ns3:TrackPointExtension>
        </extensions>
      </trkpt>
      <trkpt lat="45.2976734004914760589599609375" lon="-70.82530424930155277252197265625">
        <ele>995</ele>
        <time>2026-08-21T13:41:39.000Z</time>
        <extensions>
          <ns3:TrackPointExtension>
            <ns3:hr>132</ns3:hr>
            <ns3:cad>0</ns3:cad>
          </ns3:TrackPointExtension>
        </extensions>
      </trkpt>
      <trkpt lat="45.29766862280666828155517578125" lon="-70.82531346939504146575927734375">
        <ele>994.5999755859375</ele>
        <time>2026-08-21T13:41:40.000Z</time>
        <extensions>
          <ns3:TrackPointExtension>
            <ns3:hr>131</ns3:hr>
            <ns3:cad>0</ns3:cad>
          </ns3:TrackPointExtension>
        </extensions>
      </trkpt>
      <trkpt lat="45.297657139599323272705078125" lon="-70.82532201893627643585205078125">
        <ele>994.20001220703125</ele>
        <time>2026-08-21T13:41:41.000Z</time>
        <extensions>
          <ns3:TrackPointExtension>
            <ns3:hr>131</ns3:hr>
            <ns3:cad>0</ns3:cad>
          </ns3:TrackPointExtension>
        </extensions>
      </trkpt>
      <trkpt lat="45.29764850623905658721923828125" lon="-70.8253274671733379364013671875">
        <ele>993.5999755859375</ele>
        <time>2026-08-21T13:41:42.000Z</time>
        <extensions>
          <ns3:TrackPointExtension>
            <ns3:hr>131</ns3:hr>
            <ns3:cad>0</ns3:cad>
          </ns3:TrackPointExtension>
        </extensions>
      </trkpt>
      <trkpt lat="45.29764599166810512542724609375" lon="-70.825329981744289398193359375">
        <ele>993.20001220703125</ele>
        <time>2026-08-21T13:41:43.000Z</time>
        <extensions>
          <ns3:TrackPointExtension>
            <ns3:hr>130</ns3:hr>
            <ns3:cad>0</ns3:cad>
          </ns3:TrackPointExtension>
        </extensions>
      </trkpt>
      <trkpt lat="45.2976392023265361785888671875" lon="-70.825338028371334075927734375">
        <ele>992.79998779296875</ele>
        <time>2026-08-21T13:41:44.000Z</time>
        <extensions>
          <ns3:TrackPointExtension>
            <ns3:hr>130</ns3:hr>
            <ns3:cad>0</ns3:cad>
          </ns3:TrackPointExtension>
        </extensions>
      </trkpt>
      <trkpt lat="45.2976355142891407012939453125" lon="-70.825342051684856414794921875">
        <ele>992.4000244140625</ele>
        <time>2026-08-21T13:41:45.000Z</time>
        <extensions>
          <ns3:TrackPointExtension>
            <ns3:hr>130</ns3:hr>
            <ns3:cad>0</ns3:cad>
          </ns3:TrackPointExtension>
        </extensions>
      </trkpt>
      <trkpt lat="45.2976335026323795318603515625" lon="-70.82535169087350368499755859375">
        <ele>992</ele>
        <time>2026-08-21T13:41:46.000Z</time>
        <extensions>
          <ns3:TrackPointExtension>
            <ns3:hr>130</ns3:hr>
            <ns3:cad>0</ns3:cad>
          </ns3:TrackPointExtension>
        </extensions>
      </trkpt>
      <trkpt lat="45.2976331673562526702880859375" lon="-70.82536644302308559417724609375">
        <ele>991.5999755859375</ele>
        <time>2026-08-21T13:41:47.000Z</time>
        <extensions>
          <ns3:TrackPointExtension>
            <ns3:hr>130</ns3:hr>
            <ns3:cad>0</ns3:cad>
          </ns3:TrackPointExtension>
        </extensions>
      </trkpt>
      <trkpt lat="45.29763274826109409332275390625" lon="-70.8253747411072254180908203125">
        <ele>991.4000244140625</ele>
        <time>2026-08-21T13:41:48.000Z</time>
        <extensions>
          <ns3:TrackPointExtension>
            <ns3:hr>130</ns3:hr>
            <ns3:cad>0</ns3:cad>
          </ns3:TrackPointExtension>
        </extensions>
      </trkpt>
      <trkpt lat="45.29763006605207920074462890625" lon="-70.8253804408013820648193359375">
        <ele>991</ele>
        <time>2026-08-21T13:41:49.000Z</time>
        <extensions>
          <ns3:TrackPointExtension>
            <ns3:hr>131</ns3:hr>
            <ns3:cad>0</ns3:cad>
          </ns3:TrackPointExtension>
        </extensions>
      </trkpt>
      <trkpt lat="45.29762771911919116973876953125" lon="-70.8253871463239192962646484375">
        <ele>990.5999755859375</ele>
        <time>2026-08-21T13:41:50.000Z</time>
        <extensions>
          <ns3:TrackPointExtension>
            <ns3:hr>131</ns3:hr>
            <ns3:cad>0</ns3:cad>
          </ns3:TrackPointExtension>
        </extensions>
      </trkpt>
      <trkpt lat="45.29762319289147853851318359375" lon="-70.825394690036773681640625">
        <ele>990.20001220703125</ele>
        <time>2026-08-21T13:41:51.000Z</time>
        <extensions>
          <ns3:TrackPointExtension>
            <ns3:hr>131</ns3:hr>
            <ns3:cad>0</ns3:cad>
          </ns3:TrackPointExtension>
        </extensions>
      </trkpt>
      <trkpt lat="45.297621600329875946044921875" lon="-70.82540097646415233612060546875">
        <ele>989.79998779296875</ele>
        <time>2026-08-21T13:41:52.000Z</time>
        <extensions>
          <ns3:TrackPointExtension>
            <ns3:hr>132</ns3:hr>
            <ns3:cad>0</ns3:cad>
          </ns3:TrackPointExtension>
        </extensions>
      </trkpt>
      <trkpt lat="45.2976180799305438995361328125" lon="-70.825405083596706390380859375">
        <ele>989.4000244140625</ele>
        <time>2026-08-21T13:41:53.000Z</time>
        <extensions>
          <ns3:TrackPointExtension>
            <ns3:hr>132</ns3:hr>
            <ns3:cad>0</ns3:cad>
          </ns3:TrackPointExtension>
        </extensions>
      </trkpt>
      <trkpt lat="45.2976113744080066680908203125" lon="-70.825410448014736175537109375">
        <ele>989.20001220703125</ele>
        <time>2026-08-21T13:41:54.000Z</time>
        <extensions>
          <ns3:TrackPointExtension>
            <ns3:hr>132</ns3:hr>
            <ns3:cad>0</ns3:cad>
          </ns3:TrackPointExtension>
        </extensions>
      </trkpt>
      <trkpt lat="45.297604165971279144287109375" lon="-70.82542813383042812347412109375">
        <ele>988.79998779296875</ele>
        <time>2026-08-21T13:41:55.000Z</time>
        <extensions>
          <ns3:TrackPointExtension>
            <ns3:hr>132</ns3:hr>
            <ns3:cad>0</ns3:cad>
          </ns3:TrackPointExtension>
        </extensions>
      </trkpt>
      <trkpt lat="45.29759980738162994384765625" lon="-70.825441963970661163330078125">
        <ele>988.4000244140625</ele>
        <time>2026-08-21T13:41:56.000Z</time>
        <extensions>
          <ns3:TrackPointExtension>
            <ns3:hr>131</ns3:hr>
            <ns3:cad>0</ns3:cad>
          </ns3:TrackPointExtension>
        </extensions>
      </trkpt>
      <trkpt lat="45.297598131000995635986328125" lon="-70.82544741220772266387939453125">
        <ele>988.20001220703125</ele>
        <time>2026-08-21T13:41:57.000Z</time>
        <extensions>
          <ns3:TrackPointExtension>
            <ns3:hr>132</ns3:hr>
            <ns3:cad>0</ns3:cad>
          </ns3:TrackPointExtension>
        </extensions>
      </trkpt>
      <trkpt lat="45.29759737662971019744873046875" lon="-70.8254474960267543792724609375">
        <ele>988</ele>
        <time>2026-08-21T13:41:58.000Z</time>
        <extensions>
          <ns3:TrackPointExtension>
            <ns3:hr>132</ns3:hr>
            <ns3:cad>0</ns3:cad>
          </ns3:TrackPointExtension>
        </extensions>
      </trkpt>
      <trkpt lat="45.29759720899164676666259765625" lon="-70.8254523575305938720703125">
        <ele>987.79998779296875</ele>
        <time>2026-08-21T13:41:59.000Z</time>
        <extensions>
          <ns3:TrackPointExtension>
            <ns3:hr>131</ns3:hr>
            <ns3:cad>0</ns3:cad>
          </ns3:TrackPointExtension>
        </extensions>
      </trkpt>
      <trkpt lat="45.297599136829376220703125" lon="-70.82545428536832332611083984375">
        <ele>987.79998779296875</ele>
        <time>2026-08-21T13:42:00.000Z</time>
        <extensions>
          <ns3:TrackPointExtension>
            <ns3:hr>132</ns3:hr>
            <ns3:cad>0</ns3:cad>
          </ns3:TrackPointExtension>
        </extensions>
      </trkpt>
      <trkpt lat="45.29759586788713932037353515625" lon="-70.82545814104378223419189453125">
        <ele>987.5999755859375</ele>
        <time>2026-08-21T13:42:01.000Z</time>
        <extensions>
          <ns3:TrackPointExtension>
            <ns3:hr>132</ns3:hr>
            <ns3:cad>0</ns3:cad>
          </ns3:TrackPointExtension>
        </extensions>
      </trkpt>
      <trkpt lat="45.29759109020233154296875" lon="-70.825462080538272857666015625">
        <ele>987.5999755859375</ele>
        <time>2026-08-21T13:42:02.000Z</time>
        <extensions>
          <ns3:TrackPointExtension>
            <ns3:hr>131</ns3:hr>
            <ns3:cad>0</ns3:cad>
          </ns3:TrackPointExtension>
        </extensions>
      </trkpt>
      <trkpt lat="45.29758363030850887298583984375" lon="-70.8254666067659854888916015625">
        <ele>987.4000244140625</ele>
        <time>2026-08-21T13:42:03.000Z</time>
        <extensions>
          <ns3:TrackPointExtension>
            <ns3:hr>131</ns3:hr>
            <ns3:cad>0</ns3:cad>
          </ns3:TrackPointExtension>
        </extensions>
      </trkpt>
      <trkpt lat="45.29757541604340076446533203125" lon="-70.8254764974117279052734375">
        <ele>987.20001220703125</ele>
        <time>2026-08-21T13:42:04.000Z</time>
        <extensions>
          <ns3:TrackPointExtension>
            <ns3:hr>130</ns3:hr>
            <ns3:cad>0</ns3:cad>
          </ns3:TrackPointExtension>
        </extensions>
      </trkpt>
      <trkpt lat="45.29757038690149784088134765625" lon="-70.82548747770488262176513671875">
        <ele>987.20001220703125</ele>
        <time>2026-08-21T13:42:05.000Z</time>
        <extensions>
          <ns3:TrackPointExtension>
            <ns3:hr>130</ns3:hr>
            <ns3:cad>0</ns3:cad>
          </ns3:TrackPointExtension>
        </extensions>
      </trkpt>
      <trkpt lat="45.297563262283802032470703125" lon="-70.82549468614161014556884765625">
        <ele>986.79998779296875</ele>
        <time>2026-08-21T13:42:06.000Z</time>
        <extensions>
          <ns3:TrackPointExtension>
            <ns3:hr>130</ns3:hr>
            <ns3:cad>0</ns3:cad>
          </ns3:TrackPointExtension>
        </extensions>
      </trkpt>
      <trkpt lat="45.2975563891232013702392578125" lon="-70.82550927065312862396240234375">
        <ele>986.5999755859375</ele>
        <time>2026-08-21T13:42:07.000Z</time>
        <extensions>
          <ns3:TrackPointExtension>
            <ns3:hr>130</ns3:hr>
            <ns3:cad>0</ns3:cad>
          </ns3:TrackPointExtension>
        </extensions>
      </trkpt>
      <trkpt lat="45.29755211435258388519287109375" lon="-70.82552167586982250213623046875">
        <ele>986.4000244140625</ele>
        <time>2026-08-21T13:42:08.000Z</time>
        <extensions>
          <ns3:TrackPointExtension>
            <ns3:hr>130</ns3:hr>
            <ns3:cad>0</ns3:cad>
          </ns3:TrackPointExtension>
        </extensions>
      </trkpt>
      <trkpt lat="45.2975476719439029693603515625" lon="-70.825536511838436126708984375">
        <ele>986.20001220703125</ele>
        <time>2026-08-21T13:42:09.000Z</time>
        <extensions>
          <ns3:TrackPointExtension>
            <ns3:hr>130</ns3:hr>
            <ns3:cad>0</ns3:cad>
          </ns3:TrackPointExtension>
        </extensions>
      </trkpt>
      <trkpt lat="45.297540128231048583984375" lon="-70.8255510963499546051025390625">
        <ele>985.79998779296875</ele>
        <time>2026-08-21T13:42:10.000Z</time>
        <extensions>
          <ns3:TrackPointExtension>
            <ns3:hr>129</ns3:hr>
            <ns3:cad>0</ns3:cad>
          </ns3:TrackPointExtension>
        </extensions>
      </trkpt>
      <trkpt lat="45.29753417707979679107666015625" lon="-70.8255557902157306671142578125">
        <ele>985.5999755859375</ele>
        <time>2026-08-21T13:42:11.000Z</time>
        <extensions>
          <ns3:TrackPointExtension>
            <ns3:hr>129</ns3:hr>
            <ns3:cad>0</ns3:cad>
          </ns3:TrackPointExtension>
        </extensions>
      </trkpt>
      <trkpt lat="45.29752202332019805908203125" lon="-70.82557297311723232269287109375">
        <ele>985.4000244140625</ele>
        <time>2026-08-21T13:42:12.000Z</time>
        <extensions>
          <ns3:TrackPointExtension>
            <ns3:hr>129</ns3:hr>
            <ns3:cad>0</ns3:cad>
          </ns3:TrackPointExtension>
        </extensions>
      </trkpt>
      <trkpt lat="45.29751439578831195831298828125" lon="-70.8255903236567974090576171875">
        <ele>985.20001220703125</ele>
        <time>2026-08-21T13:42:13.000Z</time>
        <extensions>
          <ns3:TrackPointExtension>
            <ns3:hr>128</ns3:hr>
            <ns3:cad>0</ns3:cad>
          </ns3:TrackPointExtension>
        </extensions>
      </trkpt>
      <trkpt lat="45.29750752262771129608154296875" lon="-70.82559945993125438690185546875">
        <ele>985</ele>
        <time>2026-08-21T13:42:14.000Z</time>
        <extensions>
          <ns3:TrackPointExtension>
            <ns3:hr>128</ns3:hr>
            <ns3:cad>0</ns3:cad>
          </ns3:TrackPointExtension>
        </extensions>
      </trkpt>
      <trkpt lat="45.2974943630397319793701171875" lon="-70.82560834474861621856689453125">
        <ele>985</ele>
        <time>2026-08-21T13:42:15.000Z</time>
        <extensions>
          <ns3:TrackPointExtension>
            <ns3:hr>128</ns3:hr>
            <ns3:cad>0</ns3:cad>
          </ns3:TrackPointExtension>
        </extensions>
      </trkpt>
      <trkpt lat="45.297482125461101531982421875" lon="-70.82562510855495929718017578125">
        <ele>985</ele>
        <time>2026-08-21T13:42:16.000Z</time>
        <extensions>
          <ns3:TrackPointExtension>
            <ns3:hr>128</ns3:hr>
            <ns3:cad>0</ns3:cad>
          </ns3:TrackPointExtension>
        </extensions>
      </trkpt>
      <trkpt lat="45.297470055520534515380859375" lon="-70.82563717849552631378173828125">
        <ele>985.20001220703125</ele>
        <time>2026-08-21T13:42:17.000Z</time>
        <extensions>
          <ns3:TrackPointExtension>
            <ns3:hr>128</ns3:hr>
            <ns3:cad>0</ns3:cad>
          </ns3:TrackPointExtension>
        </extensions>
      </trkpt>
      <trkpt lat="45.297458656132221221923828125" lon="-70.82565695978701114654541015625">
        <ele>985.20001220703125</ele>
        <time>2026-08-21T13:42:18.000Z</time>
        <extensions>
          <ns3:TrackPointExtension>
            <ns3:hr>128</ns3:hr>
            <ns3:cad>0</ns3:cad>
          </ns3:TrackPointExtension>
        </extensions>
      </trkpt>
      <trkpt lat="45.29745102860033512115478515625" lon="-70.82567070610821247100830078125">
        <ele>985.20001220703125</ele>
        <time>2026-08-21T13:42:19.000Z</time>
        <extensions>
          <ns3:TrackPointExtension>
            <ns3:hr>128</ns3:hr>
            <ns3:cad>0</ns3:cad>
          </ns3:TrackPointExtension>
        </extensions>
      </trkpt>
      <trkpt lat="45.29744382016360759735107421875" lon="-70.82568009383976459503173828125">
        <ele>985.20001220703125</ele>
        <time>2026-08-21T13:42:20.000Z</time>
        <extensions>
          <ns3:TrackPointExtension>
            <ns3:hr>128</ns3:hr>
            <ns3:cad>0</ns3:cad>
          </ns3:TrackPointExtension>
        </extensions>
      </trkpt>
      <trkpt lat="45.29743426479399204254150390625" lon="-70.82569015212357044219970703125">
        <ele>985</ele>
        <time>2026-08-21T13:42:21.000Z</time>
        <extensions>
          <ns3:TrackPointExtension>
            <ns3:hr>128</ns3:hr>
            <ns3:cad>0</ns3:cad>
          </ns3:TrackPointExtension>
        </extensions>
      </trkpt>
      <trkpt lat="45.2974279783666133880615234375" lon="-70.8257043175399303436279296875">
        <ele>985</ele>
        <time>2026-08-21T13:42:22.000Z</time>
        <extensions>
          <ns3:TrackPointExtension>
            <ns3:hr>127</ns3:hr>
            <ns3:cad>55</ns3:cad>
          </ns3:TrackPointExtension>
        </extensions>
      </trkpt>
      <trkpt lat="45.29741699807345867156982421875" lon="-70.82572317682206630706787109375">
        <ele>984.79998779296875</ele>
        <time>2026-08-21T13:42:23.000Z</time>
        <extensions>
          <ns3:TrackPointExtension>
            <ns3:hr>126</ns3:hr>
            <ns3:cad>55</ns3:cad>
          </ns3:TrackPointExtension>
        </extensions>
      </trkpt>
      <trkpt lat="45.2974095381796360015869140625" lon="-70.82574061118066310882568359375">
        <ele>984.79998779296875</ele>
        <time>2026-08-21T13:42:24.000Z</time>
        <extensions>
          <ns3:TrackPointExtension>
            <ns3:hr>126</ns3:hr>
            <ns3:cad>55</ns3:cad>
          </ns3:TrackPointExtension>
        </extensions>
      </trkpt>
      <trkpt lat="45.29740308411419391632080078125" lon="-70.825751088559627532958984375">
        <ele>984.5999755859375</ele>
        <time>2026-08-21T13:42:25.000Z</time>
        <extensions>
          <ns3:TrackPointExtension>
            <ns3:hr>126</ns3:hr>
            <ns3:cad>55</ns3:cad>
          </ns3:TrackPointExtension>
        </extensions>
      </trkpt>
      <trkpt lat="45.2973993122577667236328125" lon="-70.8257616497576236724853515625">
        <ele>984.5999755859375</ele>
        <time>2026-08-21T13:42:26.000Z</time>
        <extensions>
          <ns3:TrackPointExtension>
            <ns3:hr>126</ns3:hr>
            <ns3:cad>55</ns3:cad>
          </ns3:TrackPointExtension>
        </extensions>
      </trkpt>
      <trkpt lat="45.29739537276327610015869140625" lon="-70.825771875679492950439453125">
        <ele>984.5999755859375</ele>
        <time>2026-08-21T13:42:27.000Z</time>
        <extensions>
          <ns3:TrackPointExtension>
            <ns3:hr>127</ns3:hr>
            <ns3:cad>56</ns3:cad>
          </ns3:TrackPointExtension>
        </extensions>
      </trkpt>
      <trkpt lat="45.297389924526214599609375" lon="-70.825779922306537628173828125">
        <ele>984.5999755859375</ele>
        <time>2026-08-21T13:42:28.000Z</time>
        <extensions>
          <ns3:TrackPointExtension>
            <ns3:hr>126</ns3:hr>
            <ns3:cad>56</ns3:cad>
          </ns3:TrackPointExtension>
        </extensions>
      </trkpt>
      <trkpt lat="45.29738615266978740692138671875" lon="-70.82578587345778942108154296875">
        <ele>984.4000244140625</ele>
        <time>2026-08-21T13:42:29.000Z</time>
        <extensions>
          <ns3:TrackPointExtension>
            <ns3:hr>126</ns3:hr>
            <ns3:cad>56</ns3:cad>
          </ns3:TrackPointExtension>
        </extensions>
      </trkpt>
      <trkpt lat="45.29737995006144046783447265625" lon="-70.82579542882740497589111328125">
        <ele>984.4000244140625</ele>
        <time>2026-08-21T13:42:30.000Z</time>
        <extensions>
          <ns3:TrackPointExtension>
            <ns3:hr>126</ns3:hr>
            <ns3:cad>53</ns3:cad>
          </ns3:TrackPointExtension>
        </extensions>
      </trkpt>
      <trkpt lat="45.29737810604274272918701171875" lon="-70.825809426605701446533203125">
        <ele>984.20001220703125</ele>
        <time>2026-08-21T13:42:31.000Z</time>
        <extensions>
          <ns3:TrackPointExtension>
            <ns3:hr>126</ns3:hr>
            <ns3:cad>53</ns3:cad>
          </ns3:TrackPointExtension>
        </extensions>
      </trkpt>
      <trkpt lat="45.29737450182437896728515625" lon="-70.825816802680492401123046875">
        <ele>984</ele>
        <time>2026-08-21T13:42:32.000Z</time>
        <extensions>
          <ns3:TrackPointExtension>
            <ns3:hr>126</ns3:hr>
            <ns3:cad>54</ns3:cad>
          </ns3:TrackPointExtension>
        </extensions>
      </trkpt>
      <trkpt lat="45.297364108264446258544921875" lon="-70.82582225091755390167236328125">
        <ele>983.79998779296875</ele>
        <time>2026-08-21T13:42:33.000Z</time>
        <extensions>
          <ns3:TrackPointExtension>
            <ns3:hr>126</ns3:hr>
            <ns3:cad>54</ns3:cad>
          </ns3:TrackPointExtension>
        </extensions>
      </trkpt>
      <trkpt lat="45.29736033640801906585693359375" lon="-70.82583163864910602569580078125">
        <ele>983.5999755859375</ele>
        <time>2026-08-21T13:42:34.000Z</time>
        <extensions>
          <ns3:TrackPointExtension>
            <ns3:hr>126</ns3:hr>
            <ns3:cad>54</ns3:cad>
          </ns3:TrackPointExtension>
        </extensions>
      </trkpt>
      <trkpt lat="45.297356732189655303955078125" lon="-70.82584421150386333465576171875">
        <ele>983.4000244140625</ele>
        <time>2026-08-21T13:42:35.000Z</time>
        <extensions>
          <ns3:TrackPointExtension>
            <ns3:hr>126</ns3:hr>
            <ns3:cad>54</ns3:cad>
          </ns3:TrackPointExtension>
        </extensions>
      </trkpt>
      <trkpt lat="45.29734776355326175689697265625" lon="-70.82585561089217662811279296875">
        <ele>983.4000244140625</ele>
        <time>2026-08-21T13:42:36.000Z</time>
        <extensions>
          <ns3:TrackPointExtension>
            <ns3:hr>126</ns3:hr>
            <ns3:cad>54</ns3:cad>
          </ns3:TrackPointExtension>
        </extensions>
      </trkpt>
      <trkpt lat="45.29734809882938861846923828125" lon="-70.82586952485144138336181640625">
        <ele>983.4000244140625</ele>
        <time>2026-08-21T13:42:37.000Z</time>
        <extensions>
          <ns3:TrackPointExtension>
            <ns3:hr>126</ns3:hr>
            <ns3:cad>52</ns3:cad>
          </ns3:TrackPointExtension>
        </extensions>
      </trkpt>
      <trkpt lat="45.29734457843005657196044921875" lon="-70.82587840966880321502685546875">
        <ele>983.20001220703125</ele>
        <time>2026-08-21T13:42:38.000Z</time>
        <extensions>
          <ns3:TrackPointExtension>
            <ns3:hr>126</ns3:hr>
            <ns3:cad>52</ns3:cad>
          </ns3:TrackPointExtension>
        </extensions>
      </trkpt>
      <trkpt lat="45.29734055511653423309326171875" lon="-70.8258887194097042083740234375">
        <ele>983.20001220703125</ele>
        <time>2026-08-21T13:42:39.000Z</time>
        <extensions>
          <ns3:TrackPointExtension>
            <ns3:hr>127</ns3:hr>
            <ns3:cad>52</ns3:cad>
          </ns3:TrackPointExtension>
        </extensions>
      </trkpt>
      <trkpt lat="45.2973377890884876251220703125" lon="-70.8258981071412563323974609375">
        <ele>983.20001220703125</ele>
        <time>2026-08-21T13:42:40.000Z</time>
        <extensions>
          <ns3:TrackPointExtension>
            <ns3:hr>126</ns3:hr>
            <ns3:cad>52</ns3:cad>
          </ns3:TrackPointExtension>
        </extensions>
      </trkpt>
      <trkpt lat="45.29733485542237758636474609375" lon="-70.82590372301638126373291015625">
        <ele>983.20001220703125</ele>
        <time>2026-08-21T13:42:41.000Z</time>
        <extensions>
          <ns3:TrackPointExtension>
            <ns3:hr>126</ns3:hr>
            <ns3:cad>52</ns3:cad>
          </ns3:TrackPointExtension>
        </extensions>
      </trkpt>
      <trkpt lat="45.2973317541182041168212890625" lon="-70.82590288482606410980224609375">
        <ele>983.20001220703125</ele>
        <time>2026-08-21T13:42:42.000Z</time>
        <extensions>
          <ns3:TrackPointExtension>
            <ns3:hr>126</ns3:hr>
            <ns3:cad>52</ns3:cad>
          </ns3:TrackPointExtension>
        </extensions>
      </trkpt>
      <trkpt lat="45.2973310835659503936767578125" lon="-70.82590363919734954833984375">
        <ele>983.20001220703125</ele>
        <time>2026-08-21T13:42:43.000Z</time>
        <extensions>
          <ns3:TrackPointExtension>
            <ns3:hr>126</ns3:hr>
            <ns3:cad>52</ns3:cad>
          </ns3:TrackPointExtension>
        </extensions>
      </trkpt>
      <trkpt lat="45.2973295748233795166015625" lon="-70.8259029686450958251953125">
        <ele>983.20001220703125</ele>
        <time>2026-08-21T13:42:44.000Z</time>
        <extensions>
          <ns3:TrackPointExtension>
            <ns3:hr>126</ns3:hr>
            <ns3:cad>0</ns3:cad>
          </ns3:TrackPointExtension>
        </extensions>
      </trkpt>
      <trkpt lat="45.2973297424614429473876953125" lon="-70.82590322010219097137451171875">
        <ele>983.20001220703125</ele>
        <time>2026-08-21T13:42:45.000Z</time>
        <extensions>
          <ns3:TrackPointExtension>
            <ns3:hr>126</ns3:hr>
            <ns3:cad>0</ns3:cad>
          </ns3:TrackPointExtension>
        </extensions>
      </trkpt>
      <trkpt lat="45.2973297424614429473876953125" lon="-70.82590322010219097137451171875">
        <ele>983</ele>
        <time>2026-08-21T13:42:46.000Z</time>
        <extensions>
          <ns3:TrackPointExtension>
            <ns3:hr>126</ns3:hr>
            <ns3:cad>0</ns3:cad>
          </ns3:TrackPointExtension>
        </extensions>
      </trkpt>
      <trkpt lat="45.2973297424614429473876953125" lon="-70.82590322010219097137451171875">
        <ele>983</ele>
        <time>2026-08-21T13:42:47.000Z</time>
        <extensions>
          <ns3:TrackPointExtension>
            <ns3:hr>126</ns3:hr>
            <ns3:cad>0</ns3:cad>
          </ns3:TrackPointExtension>
        </extensions>
      </trkpt>
      <trkpt lat="45.2973297424614429473876953125" lon="-70.82590322010219097137451171875">
        <ele>983</ele>
        <time>2026-08-21T13:42:48.000Z</time>
        <extensions>
          <ns3:TrackPointExtension>
            <ns3:hr>126</ns3:hr>
            <ns3:cad>0</ns3:cad>
          </ns3:TrackPointExtension>
        </extensions>
      </trkpt>
      <trkpt lat="45.2973297424614429473876953125" lon="-70.82590322010219097137451171875">
        <ele>983</ele>
        <time>2026-08-21T13:42:49.000Z</time>
        <extensions>
          <ns3:TrackPointExtension>
            <ns3:hr>126</ns3:hr>
            <ns3:cad>0</ns3:cad>
          </ns3:TrackPointExtension>
        </extensions>
      </trkpt>
      <trkpt lat="45.2973297424614429473876953125" lon="-70.82590322010219097137451171875">
        <ele>983</ele>
        <time>2026-08-21T13:42:50.000Z</time>
        <extensions>
          <ns3:TrackPointExtension>
            <ns3:hr>125</ns3:hr>
            <ns3:cad>0</ns3:cad>
          </ns3:TrackPointExtension>
        </extensions>
      </trkpt>
      <trkpt lat="45.2973297424614429473876953125" lon="-70.82590322010219097137451171875">
        <ele>983.20001220703125</ele>
        <time>2026-08-21T13:42:51.000Z</time>
        <extensions>
          <ns3:TrackPointExtension>
            <ns3:hr>125</ns3:hr>
            <ns3:cad>0</ns3:cad>
          </ns3:TrackPointExtension>
        </extensions>
      </trkpt>
      <trkpt lat="45.2973297424614429473876953125" lon="-70.82590322010219097137451171875">
        <ele>983.20001220703125</ele>
        <time>2026-08-21T13:42:52.000Z</time>
        <extensions>
          <ns3:TrackPointExtension>
            <ns3:hr>124</ns3:hr>
            <ns3:cad>0</ns3:cad>
          </ns3:TrackPointExtension>
        </extensions>
      </trkpt>
      <trkpt lat="45.2973297424614429473876953125" lon="-70.82590322010219097137451171875">
        <ele>983.20001220703125</ele>
        <time>2026-08-21T13:42:53.000Z</time>
        <extensions>
          <ns3:TrackPointExtension>
            <ns3:hr>124</ns3:hr>
            <ns3:cad>0</ns3:cad>
          </ns3:TrackPointExtension>
        </extensions>
      </trkpt>
      <trkpt lat="45.2973297424614429473876953125" lon="-70.82590322010219097137451171875">
        <ele>983.20001220703125</ele>
        <time>2026-08-21T13:42:54.000Z</time>
        <extensions>
          <ns3:TrackPointExtension>
            <ns3:hr>124</ns3:hr>
            <ns3:cad>0</ns3:cad>
          </ns3:TrackPointExtension>
        </extensions>
      </trkpt>
      <trkpt lat="45.2973297424614429473876953125" lon="-70.82590322010219097137451171875">
        <ele>983.20001220703125</ele>
        <time>2026-08-21T13:42:55.000Z</time>
        <extensions>
          <ns3:TrackPointExtension>
            <ns3:hr>124</ns3:hr>
            <ns3:cad>0</ns3:cad>
          </ns3:TrackPointExtension>
        </extensions>
      </trkpt>
      <trkpt lat="45.2973297424614429473876953125" lon="-70.82590322010219097137451171875">
        <ele>983.20001220703125</ele>
        <time>2026-08-21T13:42:56.000Z</time>
        <extensions>
          <ns3:TrackPointExtension>
            <ns3:hr>124</ns3:hr>
            <ns3:cad>0</ns3:cad>
          </ns3:TrackPointExtension>
        </extensions>
      </trkpt>
      <trkpt lat="45.2973297424614429473876953125" lon="-70.82590322010219097137451171875">
        <ele>983.20001220703125</ele>
        <time>2026-08-21T13:42:57.000Z</time>
        <extensions>
          <ns3:TrackPointExtension>
            <ns3:hr>124</ns3:hr>
            <ns3:cad>0</ns3:cad>
          </ns3:TrackPointExtension>
        </extensions>
      </trkpt>
      <trkpt lat="45.2973297424614429473876953125" lon="-70.82590322010219097137451171875">
        <ele>983.20001220703125</ele>
        <time>2026-08-21T13:42:58.000Z</time>
        <extensions>
          <ns3:TrackPointExtension>
            <ns3:hr>124</ns3:hr>
            <ns3:cad>0</ns3:cad>
          </ns3:TrackPointExtension>
        </extensions>
      </trkpt>
      <trkpt lat="45.2973297424614429473876953125" lon="-70.82590322010219097137451171875">
        <ele>983.20001220703125</ele>
        <time>2026-08-21T13:42:59.000Z</time>
        <extensions>
          <ns3:TrackPointExtension>
            <ns3:hr>124</ns3:hr>
            <ns3:cad>0</ns3:cad>
          </ns3:TrackPointExtension>
        </extensions>
      </trkpt>
      <trkpt lat="45.2973297424614429473876953125" lon="-70.82590322010219097137451171875">
        <ele>983.4000244140625</ele>
        <time>2026-08-21T13:43:00.000Z</time>
        <extensions>
          <ns3:TrackPointExtension>
            <ns3:hr>124</ns3:hr>
            <ns3:cad>0</ns3:cad>
          </ns3:TrackPointExtension>
        </extensions>
      </trkpt>
      <trkpt lat="45.2973297424614429473876953125" lon="-70.82590322010219097137451171875">
        <ele>983.4000244140625</ele>
        <time>2026-08-21T13:43:01.000Z</time>
        <extensions>
          <ns3:TrackPointExtension>
            <ns3:hr>124</ns3:hr>
            <ns3:cad>0</ns3:cad>
          </ns3:TrackPointExtension>
        </extensions>
      </trkpt>
      <trkpt lat="45.2973297424614429473876953125" lon="-70.82590322010219097137451171875">
        <ele>983.4000244140625</ele>
        <time>2026-08-21T13:43:02.000Z</time>
        <extensions>
          <ns3:TrackPointExtension>
            <ns3:hr>124</ns3:hr>
            <ns3:cad>0</ns3:cad>
          </ns3:TrackPointExtension>
        </extensions>
      </trkpt>
      <trkpt lat="45.2973297424614429473876953125" lon="-70.82590322010219097137451171875">
        <ele>983.4000244140625</ele>
        <time>2026-08-21T13:43:03.000Z</time>
        <extensions>
          <ns3:TrackPointExtension>
            <ns3:hr>124</ns3:hr>
            <ns3:cad>0</ns3:cad>
          </ns3:TrackPointExtension>
        </extensions>
      </trkpt>
      <trkpt lat="45.2973297424614429473876953125" lon="-70.82590322010219097137451171875">
        <ele>983.4000244140625</ele>
        <time>2026-08-21T13:43:04.000Z</time>
        <extensions>
          <ns3:TrackPointExtension>
            <ns3:hr>125</ns3:hr>
            <ns3:cad>0</ns3:cad>
          </ns3:TrackPointExtension>
        </extensions>
      </trkpt>
      <trkpt lat="45.2973297424614429473876953125" lon="-70.82590322010219097137451171875">
        <ele>983.4000244140625</ele>
        <time>2026-08-21T13:43:05.000Z</time>
        <extensions>
          <ns3:TrackPointExtension>
            <ns3:hr>125</ns3:hr>
            <ns3:cad>0</ns3:cad>
          </ns3:TrackPointExtension>
        </extensions>
      </trkpt>
      <trkpt lat="45.2973297424614429473876953125" lon="-70.82590322010219097137451171875">
        <ele>983.4000244140625</ele>
        <time>2026-08-21T13:43:06.000Z</time>
        <extensions>
          <ns3:TrackPointExtension>
            <ns3:hr>125</ns3:hr>
            <ns3:cad>0</ns3:cad>
          </ns3:TrackPointExtension>
        </extensions>
      </trkpt>
      <trkpt lat="45.29733183793723583221435546875" lon="-70.825907997786998748779296875">
        <ele>983.4000244140625</ele>
        <time>2026-08-21T13:43:07.000Z</time>
        <extensions>
          <ns3:TrackPointExtension>
            <ns3:hr>125</ns3:hr>
            <ns3:cad>0</ns3:cad>
          </ns3:TrackPointExtension>
        </extensions>
      </trkpt>
      <trkpt lat="45.29732882045209407806396484375" lon="-70.8259190618991851806640625">
        <ele>983.4000244140625</ele>
        <time>2026-08-21T13:43:08.000Z</time>
        <extensions>
          <ns3:TrackPointExtension>
            <ns3:hr>125</ns3:hr>
            <ns3:cad>0</ns3:cad>
          </ns3:TrackPointExtension>
        </extensions>
      </trkpt>
      <trkpt lat="45.2973257191479206085205078125" lon="-70.82592534832656383514404296875">
        <ele>983.4000244140625</ele>
        <time>2026-08-21T13:43:09.000Z</time>
        <extensions>
          <ns3:TrackPointExtension>
            <ns3:hr>125</ns3:hr>
            <ns3:cad>0</ns3:cad>
          </ns3:TrackPointExtension>
        </extensions>
      </trkpt>
      <trkpt lat="45.29732219874858856201171875" lon="-70.82593590952455997467041015625">
        <ele>983.20001220703125</ele>
        <time>2026-08-21T13:43:10.000Z</time>
        <extensions>
          <ns3:TrackPointExtension>
            <ns3:hr>125</ns3:hr>
            <ns3:cad>0</ns3:cad>
          </ns3:TrackPointExtension>
        </extensions>
      </trkpt>
      <trkpt lat="45.29732085764408111572265625" lon="-70.8259423635900020599365234375">
        <ele>983.20001220703125</ele>
        <time>2026-08-21T13:43:11.000Z</time>
        <extensions>
          <ns3:TrackPointExtension>
            <ns3:hr>125</ns3:hr>
            <ns3:cad>52</ns3:cad>
          </ns3:TrackPointExtension>
        </extensions>
      </trkpt>
      <trkpt lat="45.2973200194537639617919921875" lon="-70.8259551040828227996826171875">
        <ele>983</ele>
        <time>2026-08-21T13:43:12.000Z</time>
        <extensions>
          <ns3:TrackPointExtension>
            <ns3:hr>124</ns3:hr>
            <ns3:cad>52</ns3:cad>
          </ns3:TrackPointExtension>
        </extensions>
      </trkpt>
      <trkpt lat="45.29731339775025844573974609375" lon="-70.82596222870051860809326171875">
        <ele>983</ele>
        <time>2026-08-21T13:43:13.000Z</time>
        <extensions>
          <ns3:TrackPointExtension>
            <ns3:hr>125</ns3:hr>
            <ns3:cad>47</ns3:cad>
          </ns3:TrackPointExtension>
        </extensions>
      </trkpt>
      <trkpt lat="45.2973134815692901611328125" lon="-70.82596667110919952392578125">
        <ele>982.79998779296875</ele>
        <time>2026-08-21T13:43:14.000Z</time>
        <extensions>
          <ns3:TrackPointExtension>
            <ns3:hr>124</ns3:hr>
            <ns3:cad>47</ns3:cad>
          </ns3:TrackPointExtension>
        </extensions>
      </trkpt>
      <trkpt lat="45.297309458255767822265625" lon="-70.8259725384414196014404296875">
        <ele>982.79998779296875</ele>
        <time>2026-08-21T13:43:15.000Z</time>
        <extensions>
          <ns3:TrackPointExtension>
            <ns3:hr>123</ns3:hr>
            <ns3:cad>47</ns3:cad>
          </ns3:TrackPointExtension>
        </extensions>
      </trkpt>
      <trkpt lat="45.2973035909235477447509765625" lon="-70.82598276436328887939453125">
        <ele>983</ele>
        <time>2026-08-21T13:43:16.000Z</time>
        <extensions>
          <ns3:TrackPointExtension>
            <ns3:hr>121</ns3:hr>
            <ns3:cad>47</ns3:cad>
          </ns3:TrackPointExtension>
        </extensions>
      </trkpt>
      <trkpt lat="45.29729663394391536712646484375" lon="-70.8259893022477626800537109375">
        <ele>982.79998779296875</ele>
        <time>2026-08-21T13:43:17.000Z</time>
        <extensions>
          <ns3:TrackPointExtension>
            <ns3:hr>120</ns3:hr>
            <ns3:cad>47</ns3:cad>
          </ns3:TrackPointExtension>
        </extensions>
      </trkpt>
      <trkpt lat="45.2972866594791412353515625" lon="-70.825997181236743927001953125">
        <ele>982.79998779296875</ele>
        <time>2026-08-21T13:43:18.000Z</time>
        <extensions>
          <ns3:TrackPointExtension>
            <ns3:hr>119</ns3:hr>
            <ns3:cad>47</ns3:cad>
          </ns3:TrackPointExtension>
        </extensions>
      </trkpt>
      <trkpt lat="45.29728020541369915008544921875" lon="-70.8260013721883296966552734375">
        <ele>982.79998779296875</ele>
        <time>2026-08-21T13:43:19.000Z</time>
        <extensions>
          <ns3:TrackPointExtension>
            <ns3:hr>119</ns3:hr>
            <ns3:cad>47</ns3:cad>
          </ns3:TrackPointExtension>
        </extensions>
      </trkpt>
      <trkpt lat="45.29727282933890819549560546875" lon="-70.82601000554859638214111328125">
        <ele>982.79998779296875</ele>
        <time>2026-08-21T13:43:20.000Z</time>
        <extensions>
          <ns3:TrackPointExtension>
            <ns3:hr>119</ns3:hr>
            <ns3:cad>47</ns3:cad>
          </ns3:TrackPointExtension>
        </extensions>
      </trkpt>
      <trkpt lat="45.297266878187656402587890625" lon="-70.82601419650018215179443359375">
        <ele>982.79998779296875</ele>
        <time>2026-08-21T13:43:21.000Z</time>
        <extensions>
          <ns3:TrackPointExtension>
            <ns3:hr>119</ns3:hr>
            <ns3:cad>47</ns3:cad>
          </ns3:TrackPointExtension>
        </extensions>
      </trkpt>
      <trkpt lat="45.29725874774158000946044921875" lon="-70.8260167948901653289794921875">
        <ele>982.79998779296875</ele>
        <time>2026-08-21T13:43:22.000Z</time>
        <extensions>
          <ns3:TrackPointExtension>
            <ns3:hr>124</ns3:hr>
            <ns3:cad>47</ns3:cad>
          </ns3:TrackPointExtension>
        </extensions>
      </trkpt>
      <trkpt lat="45.2972546406090259552001953125" lon="-70.82603263668715953826904296875">
        <ele>982.79998779296875</ele>
        <time>2026-08-21T13:43:23.000Z</time>
        <extensions>
          <ns3:TrackPointExtension>
            <ns3:hr>126</ns3:hr>
            <ns3:cad>47</ns3:cad>
          </ns3:TrackPointExtension>
        </extensions>
      </trkpt>
      <trkpt lat="45.2972472645342350006103515625" lon="-70.82604504190385341644287109375">
        <ele>983</ele>
        <time>2026-08-21T13:43:24.000Z</time>
        <extensions>
          <ns3:TrackPointExtension>
            <ns3:hr>126</ns3:hr>
            <ns3:cad>47</ns3:cad>
          </ns3:TrackPointExtension>
        </extensions>
      </trkpt>
      <trkpt lat="45.29724332503974437713623046875" lon="-70.8260556869208812713623046875">
        <ele>983</ele>
        <time>2026-08-21T13:43:25.000Z</time>
        <extensions>
          <ns3:TrackPointExtension>
            <ns3:hr>126</ns3:hr>
            <ns3:cad>0</ns3:cad>
          </ns3:TrackPointExtension>
        </extensions>
      </trkpt>
      <trkpt lat="45.29723661951720714569091796875" lon="-70.82606649957597255706787109375">
        <ele>983.20001220703125</ele>
        <time>2026-08-21T13:43:26.000Z</time>
        <extensions>
          <ns3:TrackPointExtension>
            <ns3:hr>125</ns3:hr>
            <ns3:cad>0</ns3:cad>
          </ns3:TrackPointExtension>
        </extensions>
      </trkpt>
      <trkpt lat="45.29723360203206539154052734375" lon="-70.82607387565076351165771484375">
        <ele>983.20001220703125</ele>
        <time>2026-08-21T13:43:27.000Z</time>
        <extensions>
          <ns3:TrackPointExtension>
            <ns3:hr>125</ns3:hr>
            <ns3:cad>0</ns3:cad>
          </ns3:TrackPointExtension>
        </extensions>
      </trkpt>
      <trkpt lat="45.2972284890711307525634765625" lon="-70.82607991062104701995849609375">
        <ele>983.4000244140625</ele>
        <time>2026-08-21T13:43:28.000Z</time>
        <extensions>
          <ns3:TrackPointExtension>
            <ns3:hr>125</ns3:hr>
            <ns3:cad>0</ns3:cad>
          </ns3:TrackPointExtension>
        </extensions>
      </trkpt>
      <trkpt lat="45.29722689650952816009521484375" lon="-70.82608795724809169769287109375">
        <ele>983.79998779296875</ele>
        <time>2026-08-21T13:43:29.000Z</time>
        <extensions>
          <ns3:TrackPointExtension>
            <ns3:hr>125</ns3:hr>
            <ns3:cad>0</ns3:cad>
          </ns3:TrackPointExtension>
        </extensions>
      </trkpt>
      <trkpt lat="45.2972271479666233062744140625" lon="-70.826095081865787506103515625">
        <ele>983.79998779296875</ele>
        <time>2026-08-21T13:43:30.000Z</time>
        <extensions>
          <ns3:TrackPointExtension>
            <ns3:hr>125</ns3:hr>
            <ns3:cad>0</ns3:cad>
          </ns3:TrackPointExtension>
        </extensions>
      </trkpt>
      <trkpt lat="45.29722429811954498291015625" lon="-70.82610354758799076080322265625">
        <ele>984</ele>
        <time>2026-08-21T13:43:31.000Z</time>
        <extensions>
          <ns3:TrackPointExtension>
            <ns3:hr>124</ns3:hr>
            <ns3:cad>43</ns3:cad>
          </ns3:TrackPointExtension>
        </extensions>
      </trkpt>
      <trkpt lat="45.29721985571086406707763671875" lon="-70.82611377350986003875732421875">
        <ele>984.20001220703125</ele>
        <time>2026-08-21T13:43:32.000Z</time>
        <extensions>
          <ns3:TrackPointExtension>
            <ns3:hr>124</ns3:hr>
            <ns3:cad>43</ns3:cad>
          </ns3:TrackPointExtension>
        </extensions>
      </trkpt>
      <trkpt lat="45.297214575111865997314453125" lon="-70.826119221746921539306640625">
        <ele>984.4000244140625</ele>
        <time>2026-08-21T13:43:33.000Z</time>
        <extensions>
          <ns3:TrackPointExtension>
            <ns3:hr>124</ns3:hr>
            <ns3:cad>43</ns3:cad>
          </ns3:TrackPointExtension>
        </extensions>
      </trkpt>
      <trkpt lat="45.29721298255026340484619140625" lon="-70.82612215541303157806396484375">
        <ele>984.5999755859375</ele>
        <time>2026-08-21T13:43:34.000Z</time>
        <extensions>
          <ns3:TrackPointExtension>
            <ns3:hr>124</ns3:hr>
            <ns3:cad>43</ns3:cad>
          </ns3:TrackPointExtension>
        </extensions>
      </trkpt>
      <trkpt lat="45.29720954596996307373046875" lon="-70.82612215541303157806396484375">
        <ele>984.5999755859375</ele>
        <time>2026-08-21T13:43:35.000Z</time>
        <extensions>
          <ns3:TrackPointExtension>
            <ns3:hr>124</ns3:hr>
            <ns3:cad>0</ns3:cad>
          </ns3:TrackPointExtension>
        </extensions>
      </trkpt>
      <trkpt lat="45.29721088707447052001953125" lon="-70.8261220715939998626708984375">
        <ele>984.79998779296875</ele>
        <time>2026-08-21T13:43:36.000Z</time>
        <extensions>
          <ns3:TrackPointExtension>
            <ns3:hr>124</ns3:hr>
            <ns3:cad>0</ns3:cad>
          </ns3:TrackPointExtension>
        </extensions>
      </trkpt>
      <trkpt lat="45.29721030034124851226806640625" lon="-70.8261217363178730010986328125">
        <ele>984.79998779296875</ele>
        <time>2026-08-21T13:43:37.000Z</time>
        <extensions>
          <ns3:TrackPointExtension>
            <ns3:hr>123</ns3:hr>
            <ns3:cad>0</ns3:cad>
          </ns3:TrackPointExtension>
        </extensions>
      </trkpt>
      <trkpt lat="45.29721030034124851226806640625" lon="-70.8261217363178730010986328125">
        <ele>984.79998779296875</ele>
        <time>2026-08-21T13:43:38.000Z</time>
        <extensions>
          <ns3:TrackPointExtension>
            <ns3:hr>123</ns3:hr>
            <ns3:cad>0</ns3:cad>
          </ns3:TrackPointExtension>
        </extensions>
      </trkpt>
      <trkpt lat="45.29721030034124851226806640625" lon="-70.8261217363178730010986328125">
        <ele>984.79998779296875</ele>
        <time>2026-08-21T13:43:39.000Z</time>
        <extensions>
          <ns3:TrackPointExtension>
            <ns3:hr>123</ns3:hr>
            <ns3:cad>0</ns3:cad>
          </ns3:TrackPointExtension>
        </extensions>
      </trkpt>
      <trkpt lat="45.29721030034124851226806640625" lon="-70.8261217363178730010986328125">
        <ele>984.79998779296875</ele>
        <time>2026-08-21T13:43:40.000Z</time>
        <extensions>
          <ns3:TrackPointExtension>
            <ns3:hr>122</ns3:hr>
            <ns3:cad>0</ns3:cad>
          </ns3:TrackPointExtension>
        </extensions>
      </trkpt>
      <trkpt lat="45.29721030034124851226806640625" lon="-70.8261217363178730010986328125">
        <ele>984.79998779296875</ele>
        <time>2026-08-21T13:43:41.000Z</time>
        <extensions>
          <ns3:TrackPointExtension>
            <ns3:hr>123</ns3:hr>
            <ns3:cad>0</ns3:cad>
          </ns3:TrackPointExtension>
        </extensions>
      </trkpt>
      <trkpt lat="45.29721030034124851226806640625" lon="-70.8261217363178730010986328125">
        <ele>984.79998779296875</ele>
        <time>2026-08-21T13:43:42.000Z</time>
        <extensions>
          <ns3:TrackPointExtension>
            <ns3:hr>123</ns3:hr>
            <ns3:cad>0</ns3:cad>
          </ns3:TrackPointExtension>
        </extensions>
      </trkpt>
      <trkpt lat="45.29721030034124851226806640625" lon="-70.8261217363178730010986328125">
        <ele>984.79998779296875</ele>
        <time>2026-08-21T13:43:43.000Z</time>
        <extensions>
          <ns3:TrackPointExtension>
            <ns3:hr>122</ns3:hr>
            <ns3:cad>0</ns3:cad>
          </ns3:TrackPointExtension>
        </extensions>
      </trkpt>
      <trkpt lat="45.29721030034124851226806640625" lon="-70.8261217363178730010986328125">
        <ele>984.79998779296875</ele>
        <time>2026-08-21T13:43:44.000Z</time>
        <extensions>
          <ns3:TrackPointExtension>
            <ns3:hr>123</ns3:hr>
            <ns3:cad>0</ns3:cad>
          </ns3:TrackPointExtension>
        </extensions>
      </trkpt>
      <trkpt lat="45.29720476828515529632568359375" lon="-70.8261183835566043853759765625">
        <ele>984.79998779296875</ele>
        <time>2026-08-21T13:43:45.000Z</time>
        <extensions>
          <ns3:TrackPointExtension>
            <ns3:hr>123</ns3:hr>
            <ns3:cad>0</ns3:cad>
          </ns3:TrackPointExtension>
        </extensions>
      </trkpt>
      <trkpt lat="45.297197811305522918701171875" lon="-70.8261291123926639556884765625">
        <ele>984.79998779296875</ele>
        <time>2026-08-21T13:43:46.000Z</time>
        <extensions>
          <ns3:TrackPointExtension>
            <ns3:hr>124</ns3:hr>
            <ns3:cad>0</ns3:cad>
          </ns3:TrackPointExtension>
        </extensions>
      </trkpt>
      <trkpt lat="45.29719202779233455657958984375" lon="-70.82613992504775524139404296875">
        <ele>985</ele>
        <time>2026-08-21T13:43:47.000Z</time>
        <extensions>
          <ns3:TrackPointExtension>
            <ns3:hr>124</ns3:hr>
            <ns3:cad>0</ns3:cad>
          </ns3:TrackPointExtension>
        </extensions>
      </trkpt>
      <trkpt lat="45.2971832267940044403076171875" lon="-70.82614772021770477294921875">
        <ele>985.20001220703125</ele>
        <time>2026-08-21T13:43:48.000Z</time>
        <extensions>
          <ns3:TrackPointExtension>
            <ns3:hr>124</ns3:hr>
            <ns3:cad>45</ns3:cad>
          </ns3:TrackPointExtension>
        </extensions>
      </trkpt>
      <trkpt lat="45.2971761859953403472900390625" lon="-70.826154761016368865966796875">
        <ele>985.20001220703125</ele>
        <time>2026-08-21T13:43:49.000Z</time>
        <extensions>
          <ns3:TrackPointExtension>
            <ns3:hr>127</ns3:hr>
            <ns3:cad>46</ns3:cad>
          </ns3:TrackPointExtension>
        </extensions>
      </trkpt>
      <trkpt lat="45.29716671444475650787353515625" lon="-70.826164148747920989990234375">
        <ele>985.4000244140625</ele>
        <time>2026-08-21T13:43:50.000Z</time>
        <extensions>
          <ns3:TrackPointExtension>
            <ns3:hr>128</ns3:hr>
            <ns3:cad>46</ns3:cad>
          </ns3:TrackPointExtension>
        </extensions>
      </trkpt>
      <trkpt lat="45.29716034419834613800048828125" lon="-70.82617378793656826019287109375">
        <ele>985.5999755859375</ele>
        <time>2026-08-21T13:43:51.000Z</time>
        <extensions>
          <ns3:TrackPointExtension>
            <ns3:hr>128</ns3:hr>
            <ns3:cad>46</ns3:cad>
          </ns3:TrackPointExtension>
        </extensions>
      </trkpt>
      <trkpt lat="45.29715162701904773712158203125" lon="-70.82618393003940582275390625">
        <ele>985.5999755859375</ele>
        <time>2026-08-21T13:43:52.000Z</time>
        <extensions>
          <ns3:TrackPointExtension>
            <ns3:hr>129</ns3:hr>
            <ns3:cad>50</ns3:cad>
          </ns3:TrackPointExtension>
        </extensions>
      </trkpt>
      <trkpt lat="45.29714458622038364410400390625" lon="-70.82619541324675083160400390625">
        <ele>985.79998779296875</ele>
        <time>2026-08-21T13:43:53.000Z</time>
        <extensions>
          <ns3:TrackPointExtension>
            <ns3:hr>130</ns3:hr>
            <ns3:cad>50</ns3:cad>
          </ns3:TrackPointExtension>
        </extensions>
      </trkpt>
      <trkpt lat="45.29713838361203670501708984375" lon="-70.82620345987379550933837890625">
        <ele>986</ele>
        <time>2026-08-21T13:43:54.000Z</time>
        <extensions>
          <ns3:TrackPointExtension>
            <ns3:hr>132</ns3:hr>
            <ns3:cad>47</ns3:cad>
          </ns3:TrackPointExtension>
        </extensions>
      </trkpt>
      <trkpt lat="45.297131426632404327392578125" lon="-70.82621184177696704864501953125">
        <ele>986.20001220703125</ele>
        <time>2026-08-21T13:43:55.000Z</time>
        <extensions>
          <ns3:TrackPointExtension>
            <ns3:hr>133</ns3:hr>
            <ns3:cad>47</ns3:cad>
          </ns3:TrackPointExtension>
        </extensions>
      </trkpt>
      <trkpt lat="45.2971272356808185577392578125" lon="-70.82622072659432888031005859375">
        <ele>986.4000244140625</ele>
        <time>2026-08-21T13:43:56.000Z</time>
        <extensions>
          <ns3:TrackPointExtension>
            <ns3:hr>134</ns3:hr>
            <ns3:cad>47</ns3:cad>
          </ns3:TrackPointExtension>
        </extensions>
      </trkpt>
      <trkpt lat="45.29712446965277194976806640625" lon="-70.826229862868785858154296875">
        <ele>986.5999755859375</ele>
        <time>2026-08-21T13:43:57.000Z</time>
        <extensions>
          <ns3:TrackPointExtension>
            <ns3:hr>134</ns3:hr>
            <ns3:cad>50</ns3:cad>
          </ns3:TrackPointExtension>
        </extensions>
      </trkpt>
      <trkpt lat="45.2971203625202178955078125" lon="-70.82623816095292568206787109375">
        <ele>986.79998779296875</ele>
        <time>2026-08-21T13:43:58.000Z</time>
        <extensions>
          <ns3:TrackPointExtension>
            <ns3:hr>134</ns3:hr>
            <ns3:cad>50</ns3:cad>
          </ns3:TrackPointExtension>
        </extensions>
      </trkpt>
      <trkpt lat="45.29711432754993438720703125" lon="-70.82624520175158977508544921875">
        <ele>987</ele>
        <time>2026-08-21T13:43:59.000Z</time>
        <extensions>
          <ns3:TrackPointExtension>
            <ns3:hr>134</ns3:hr>
            <ns3:cad>49</ns3:cad>
          </ns3:TrackPointExtension>
        </extensions>
      </trkpt>
      <trkpt lat="45.29710468836128711700439453125" lon="-70.8262524940073490142822265625">
        <ele>987.20001220703125</ele>
        <time>2026-08-21T13:44:00.000Z</time>
        <extensions>
          <ns3:TrackPointExtension>
            <ns3:hr>134</ns3:hr>
            <ns3:cad>48</ns3:cad>
          </ns3:TrackPointExtension>
        </extensions>
      </trkpt>
      <trkpt lat="45.29709328897297382354736328125" lon="-70.82625224255025386810302734375">
        <ele>987.20001220703125</ele>
        <time>2026-08-21T13:44:01.000Z</time>
        <extensions>
          <ns3:TrackPointExtension>
            <ns3:hr>135</ns3:hr>
            <ns3:cad>48</ns3:cad>
          </ns3:TrackPointExtension>
        </extensions>
      </trkpt>
      <trkpt lat="45.29707903973758220672607421875" lon="-70.82626548595726490020751953125">
        <ele>987.4000244140625</ele>
        <time>2026-08-21T13:44:02.000Z</time>
        <extensions>
          <ns3:TrackPointExtension>
            <ns3:hr>135</ns3:hr>
            <ns3:cad>47</ns3:cad>
          </ns3:TrackPointExtension>
        </extensions>
      </trkpt>
      <trkpt lat="45.2970702387392520904541015625" lon="-70.8262716047465801239013671875">
        <ele>987.5999755859375</ele>
        <time>2026-08-21T13:44:03.000Z</time>
        <extensions>
          <ns3:TrackPointExtension>
            <ns3:hr>135</ns3:hr>
            <ns3:cad>47</ns3:cad>
          </ns3:TrackPointExtension>
        </extensions>
      </trkpt>
      <trkpt lat="45.29706311412155628204345703125" lon="-70.82626984454691410064697265625">
        <ele>987.5999755859375</ele>
        <time>2026-08-21T13:44:04.000Z</time>
        <extensions>
          <ns3:TrackPointExtension>
            <ns3:hr>136</ns3:hr>
            <ns3:cad>47</ns3:cad>
          </ns3:TrackPointExtension>
        </extensions>
      </trkpt>
      <trkpt lat="45.2970506250858306884765625" lon="-70.82627512514591217041015625">
        <ele>987.79998779296875</ele>
        <time>2026-08-21T13:44:05.000Z</time>
        <extensions>
          <ns3:TrackPointExtension>
            <ns3:hr>137</ns3:hr>
            <ns3:cad>47</ns3:cad>
          </ns3:TrackPointExtension>
        </extensions>
      </trkpt>
      <trkpt lat="45.29704282991588115692138671875" lon="-70.82628258503973484039306640625">
        <ele>987.79998779296875</ele>
        <time>2026-08-21T13:44:06.000Z</time>
        <extensions>
          <ns3:TrackPointExtension>
            <ns3:hr>137</ns3:hr>
            <ns3:cad>47</ns3:cad>
          </ns3:TrackPointExtension>
        </extensions>
      </trkpt>
      <trkpt lat="45.297035872936248779296875" lon="-70.8262932300567626953125">
        <ele>988</ele>
        <time>2026-08-21T13:44:07.000Z</time>
        <extensions>
          <ns3:TrackPointExtension>
            <ns3:hr>137</ns3:hr>
            <ns3:cad>0</ns3:cad>
          </ns3:TrackPointExtension>
        </extensions>
      </trkpt>
      <trkpt lat="45.2970310114324092864990234375" lon="-70.8263034559786319732666015625">
        <ele>988</ele>
        <time>2026-08-21T13:44:08.000Z</time>
        <extensions>
          <ns3:TrackPointExtension>
            <ns3:hr>137</ns3:hr>
            <ns3:cad>0</ns3:cad>
          </ns3:TrackPointExtension>
        </extensions>
      </trkpt>
      <trkpt lat="45.29702606610953807830810546875" lon="-70.8263133466243743896484375">
        <ele>988.20001220703125</ele>
        <time>2026-08-21T13:44:09.000Z</time>
        <extensions>
          <ns3:TrackPointExtension>
            <ns3:hr>137</ns3:hr>
            <ns3:cad>0</ns3:cad>
          </ns3:TrackPointExtension>
        </extensions>
      </trkpt>
      <trkpt lat="45.297020785510540008544921875" lon="-70.82633522339165210723876953125">
        <ele>988.20001220703125</ele>
        <time>2026-08-21T13:44:10.000Z</time>
        <extensions>
          <ns3:TrackPointExtension>
            <ns3:hr>137</ns3:hr>
            <ns3:cad>0</ns3:cad>
          </ns3:TrackPointExtension>
        </extensions>
      </trkpt>
      <trkpt lat="45.2970145829021930694580078125" lon="-70.826349891722202301025390625">
        <ele>988.4000244140625</ele>
        <time>2026-08-21T13:44:11.000Z</time>
        <extensions>
          <ns3:TrackPointExtension>
            <ns3:hr>137</ns3:hr>
            <ns3:cad>45</ns3:cad>
          </ns3:TrackPointExtension>
        </extensions>
      </trkpt>
      <trkpt lat="45.2970077097415924072265625" lon="-70.82636187784373760223388671875">
        <ele>988.5999755859375</ele>
        <time>2026-08-21T13:44:12.000Z</time>
        <extensions>
          <ns3:TrackPointExtension>
            <ns3:hr>137</ns3:hr>
            <ns3:cad>48</ns3:cad>
          </ns3:TrackPointExtension>
        </extensions>
      </trkpt>
      <trkpt lat="45.2969996631145477294921875" lon="-70.8263755403459072113037109375">
        <ele>988.79998779296875</ele>
        <time>2026-08-21T13:44:13.000Z</time>
        <extensions>
          <ns3:TrackPointExtension>
            <ns3:hr>138</ns3:hr>
            <ns3:cad>48</ns3:cad>
          </ns3:TrackPointExtension>
        </extensions>
      </trkpt>
      <trkpt lat="45.29699538834393024444580078125" lon="-70.82638652063906192779541015625">
        <ele>989</ele>
        <time>2026-08-21T13:44:14.000Z</time>
        <extensions>
          <ns3:TrackPointExtension>
            <ns3:hr>137</ns3:hr>
            <ns3:cad>52</ns3:cad>
          </ns3:TrackPointExtension>
        </extensions>
      </trkpt>
      <trkpt lat="45.29699035920202732086181640625" lon="-70.82639976404607295989990234375">
        <ele>989</ele>
        <time>2026-08-21T13:44:15.000Z</time>
        <extensions>
          <ns3:TrackPointExtension>
            <ns3:hr>138</ns3:hr>
            <ns3:cad>52</ns3:cad>
          </ns3:TrackPointExtension>
        </extensions>
      </trkpt>
      <trkpt lat="45.29698566533625125885009765625" lon="-70.82641367800533771514892578125">
        <ele>989.20001220703125</ele>
        <time>2026-08-21T13:44:16.000Z</time>
        <extensions>
          <ns3:TrackPointExtension>
            <ns3:hr>139</ns3:hr>
            <ns3:cad>53</ns3:cad>
          </ns3:TrackPointExtension>
        </extensions>
      </trkpt>
      <trkpt lat="45.296983905136585235595703125" lon="-70.82642608322203159332275390625">
        <ele>989.20001220703125</ele>
        <time>2026-08-21T13:44:17.000Z</time>
        <extensions>
          <ns3:TrackPointExtension>
            <ns3:hr>139</ns3:hr>
            <ns3:cad>51</ns3:cad>
          </ns3:TrackPointExtension>
        </extensions>
      </trkpt>
      <trkpt lat="45.296981893479824066162109375" lon="-70.82643211819231510162353515625">
        <ele>989.4000244140625</ele>
        <time>2026-08-21T13:44:18.000Z</time>
        <extensions>
          <ns3:TrackPointExtension>
            <ns3:hr>140</ns3:hr>
            <ns3:cad>51</ns3:cad>
          </ns3:TrackPointExtension>
        </extensions>
      </trkpt>
      <trkpt lat="45.29697460122406482696533203125" lon="-70.8264389075338840484619140625">
        <ele>989.5999755859375</ele>
        <time>2026-08-21T13:44:19.000Z</time>
        <extensions>
          <ns3:TrackPointExtension>
            <ns3:hr>139</ns3:hr>
            <ns3:cad>51</ns3:cad>
          </ns3:TrackPointExtension>
        </extensions>
      </trkpt>
      <trkpt lat="45.296973846852779388427734375" lon="-70.82644552923738956451416015625">
        <ele>989.79998779296875</ele>
        <time>2026-08-21T13:44:20.000Z</time>
        <extensions>
          <ns3:TrackPointExtension>
            <ns3:hr>139</ns3:hr>
            <ns3:cad>51</ns3:cad>
          </ns3:TrackPointExtension>
        </extensions>
      </trkpt>
      <trkpt lat="45.29696018435060977935791015625" lon="-70.82645357586443424224853515625">
        <ele>990.20001220703125</ele>
        <time>2026-08-21T13:44:21.000Z</time>
        <extensions>
          <ns3:TrackPointExtension>
            <ns3:hr>140</ns3:hr>
            <ns3:cad>48</ns3:cad>
          </ns3:TrackPointExtension>
        </extensions>
      </trkpt>
      <trkpt lat="45.29695062898099422454833984375" lon="-70.82646430470049381256103515625">
        <ele>990.4000244140625</ele>
        <time>2026-08-21T13:44:22.000Z</time>
        <extensions>
          <ns3:TrackPointExtension>
            <ns3:hr>139</ns3:hr>
            <ns3:cad>48</ns3:cad>
          </ns3:TrackPointExtension>
        </extensions>
      </trkpt>
      <trkpt lat="45.2969465218484401702880859375" lon="-70.826473273336887359619140625">
        <ele>990.79998779296875</ele>
        <time>2026-08-21T13:44:23.000Z</time>
        <extensions>
          <ns3:TrackPointExtension>
            <ns3:hr>139</ns3:hr>
            <ns3:cad>48</ns3:cad>
          </ns3:TrackPointExtension>
        </extensions>
      </trkpt>
      <trkpt lat="45.2969406545162200927734375" lon="-70.8264784701168537139892578125">
        <ele>991</ele>
        <time>2026-08-21T13:44:24.000Z</time>
        <extensions>
          <ns3:TrackPointExtension>
            <ns3:hr>139</ns3:hr>
            <ns3:cad>48</ns3:cad>
          </ns3:TrackPointExtension>
        </extensions>
      </trkpt>
      <trkpt lat="45.29693487100303173065185546875" lon="-70.82648794166743755340576171875">
        <ele>991.4000244140625</ele>
        <time>2026-08-21T13:44:25.000Z</time>
        <extensions>
          <ns3:TrackPointExtension>
            <ns3:hr>140</ns3:hr>
            <ns3:cad>48</ns3:cad>
          </ns3:TrackPointExtension>
        </extensions>
      </trkpt>
      <trkpt lat="45.296928919851779937744140625" lon="-70.82648861221969127655029296875">
        <ele>991.5999755859375</ele>
        <time>2026-08-21T13:44:26.000Z</time>
        <extensions>
          <ns3:TrackPointExtension>
            <ns3:hr>140</ns3:hr>
            <ns3:cad>48</ns3:cad>
          </ns3:TrackPointExtension>
        </extensions>
      </trkpt>
      <trkpt lat="45.29692129231989383697509765625" lon="-70.8264925517141819000244140625">
        <ele>991.79998779296875</ele>
        <time>2026-08-21T13:44:27.000Z</time>
        <extensions>
          <ns3:TrackPointExtension>
            <ns3:hr>140</ns3:hr>
            <ns3:cad>48</ns3:cad>
          </ns3:TrackPointExtension>
        </extensions>
      </trkpt>
      <trkpt lat="45.2969136647880077362060546875" lon="-70.8264957368373870849609375">
        <ele>992</ele>
        <time>2026-08-21T13:44:28.000Z</time>
        <extensions>
          <ns3:TrackPointExtension>
            <ns3:hr>140</ns3:hr>
            <ns3:cad>48</ns3:cad>
          </ns3:TrackPointExtension>
        </extensions>
      </trkpt>
      <trkpt lat="45.2969046123325824737548828125" lon="-70.82649732939898967742919921875">
        <ele>992.20001220703125</ele>
        <time>2026-08-21T13:44:29.000Z</time>
        <extensions>
          <ns3:TrackPointExtension>
            <ns3:hr>139</ns3:hr>
            <ns3:cad>47</ns3:cad>
          </ns3:TrackPointExtension>
        </extensions>
      </trkpt>
      <trkpt lat="45.2968972362577915191650390625" lon="-70.82650001160800457000732421875">
        <ele>992.4000244140625</ele>
        <time>2026-08-21T13:44:30.000Z</time>
        <extensions>
          <ns3:TrackPointExtension>
            <ns3:hr>139</ns3:hr>
            <ns3:cad>47</ns3:cad>
          </ns3:TrackPointExtension>
        </extensions>
      </trkpt>
      <trkpt lat="45.29688776470720767974853515625" lon="-70.82650319673120975494384765625">
        <ele>992.5999755859375</ele>
        <time>2026-08-21T13:44:31.000Z</time>
        <extensions>
          <ns3:TrackPointExtension>
            <ns3:hr>139</ns3:hr>
            <ns3:cad>46</ns3:cad>
          </ns3:TrackPointExtension>
        </extensions>
      </trkpt>
      <trkpt lat="45.29687820933759212493896484375" lon="-70.8265064656734466552734375">
        <ele>992.79998779296875</ele>
        <time>2026-08-21T13:44:32.000Z</time>
        <extensions>
          <ns3:TrackPointExtension>
            <ns3:hr>139</ns3:hr>
            <ns3:cad>46</ns3:cad>
          </ns3:TrackPointExtension>
        </extensions>
      </trkpt>
      <trkpt lat="45.29686999507248401641845703125" lon="-70.82651526667177677154541015625">
        <ele>992.79998779296875</ele>
        <time>2026-08-21T13:44:33.000Z</time>
        <extensions>
          <ns3:TrackPointExtension>
            <ns3:hr>139</ns3:hr>
            <ns3:cad>45</ns3:cad>
          </ns3:TrackPointExtension>
        </extensions>
      </trkpt>
      <trkpt lat="45.29686496593058109283447265625" lon="-70.82652247510850429534912109375">
        <ele>993</ele>
        <time>2026-08-21T13:44:34.000Z</time>
        <extensions>
          <ns3:TrackPointExtension>
            <ns3:hr>140</ns3:hr>
            <ns3:cad>49</ns3:cad>
          </ns3:TrackPointExtension>
        </extensions>
      </trkpt>
      <trkpt lat="45.29686261899769306182861328125" lon="-70.82653571851551532745361328125">
        <ele>993</ele>
        <time>2026-08-21T13:44:35.000Z</time>
        <extensions>
          <ns3:TrackPointExtension>
            <ns3:hr>140</ns3:hr>
            <ns3:cad>49</ns3:cad>
          </ns3:TrackPointExtension>
        </extensions>
      </trkpt>
      <trkpt lat="45.296857841312885284423828125" lon="-70.82655399106442928314208984375">
        <ele>993.20001220703125</ele>
        <time>2026-08-21T13:44:36.000Z</time>
        <extensions>
          <ns3:TrackPointExtension>
            <ns3:hr>140</ns3:hr>
            <ns3:cad>49</ns3:cad>
          </ns3:TrackPointExtension>
        </extensions>
      </trkpt>
      <trkpt lat="45.296854488551616668701171875" lon="-70.82656689919531345367431640625">
        <ele>993.4000244140625</ele>
        <time>2026-08-21T13:44:37.000Z</time>
        <extensions>
          <ns3:TrackPointExtension>
            <ns3:hr>141</ns3:hr>
            <ns3:cad>49</ns3:cad>
          </ns3:TrackPointExtension>
        </extensions>
      </trkpt>
      <trkpt lat="45.29686010442674160003662109375" lon="-70.82658399827778339385986328125">
        <ele>993.4000244140625</ele>
        <time>2026-08-21T13:44:38.000Z</time>
        <extensions>
          <ns3:TrackPointExtension>
            <ns3:hr>141</ns3:hr>
            <ns3:cad>48</ns3:cad>
          </ns3:TrackPointExtension>
        </extensions>
      </trkpt>
      <trkpt lat="45.29685951769351959228515625" lon="-70.826590955257415771484375">
        <ele>993.5999755859375</ele>
        <time>2026-08-21T13:44:39.000Z</time>
        <extensions>
          <ns3:TrackPointExtension>
            <ns3:hr>141</ns3:hr>
            <ns3:cad>48</ns3:cad>
          </ns3:TrackPointExtension>
        </extensions>
      </trkpt>
      <trkpt lat="45.29685708694159984588623046875" lon="-70.82660528831183910369873046875">
        <ele>993.79998779296875</ele>
        <time>2026-08-21T13:44:40.000Z</time>
        <extensions>
          <ns3:TrackPointExtension>
            <ns3:hr>142</ns3:hr>
            <ns3:cad>48</ns3:cad>
          </ns3:TrackPointExtension>
        </extensions>
      </trkpt>
      <trkpt lat="45.29685809276998043060302734375" lon="-70.82659707404673099517822265625">
        <ele>994</ele>
        <time>2026-08-21T13:44:41.000Z</time>
        <extensions>
          <ns3:TrackPointExtension>
            <ns3:hr>143</ns3:hr>
            <ns3:cad>46</ns3:cad>
          </ns3:TrackPointExtension>
        </extensions>
      </trkpt>
      <trkpt lat="45.2968496270477771759033203125" lon="-70.82659833133220672607421875">
        <ele>994.20001220703125</ele>
        <time>2026-08-21T13:44:42.000Z</time>
        <extensions>
          <ns3:TrackPointExtension>
            <ns3:hr>143</ns3:hr>
            <ns3:cad>46</ns3:cad>
          </ns3:TrackPointExtension>
        </extensions>
      </trkpt>
      <trkpt lat="45.2968392334878444671630859375" lon="-70.826607383787631988525390625">
        <ele>994.4000244140625</ele>
        <time>2026-08-21T13:44:43.000Z</time>
        <extensions>
          <ns3:TrackPointExtension>
            <ns3:hr>143</ns3:hr>
            <ns3:cad>0</ns3:cad>
          </ns3:TrackPointExtension>
        </extensions>
      </trkpt>
      <trkpt lat="45.29683671891689300537109375" lon="-70.82661065272986888885498046875">
        <ele>994.5999755859375</ele>
        <time>2026-08-21T13:44:44.000Z</time>
        <extensions>
          <ns3:TrackPointExtension>
            <ns3:hr>143</ns3:hr>
            <ns3:cad>0</ns3:cad>
          </ns3:TrackPointExtension>
        </extensions>
      </trkpt>
      <trkpt lat="45.29683596454560756683349609375" lon="-70.8266189508140087127685546875">
        <ele>994.79998779296875</ele>
        <time>2026-08-21T13:44:45.000Z</time>
        <extensions>
          <ns3:TrackPointExtension>
            <ns3:hr>143</ns3:hr>
            <ns3:cad>0</ns3:cad>
          </ns3:TrackPointExtension>
        </extensions>
      </trkpt>
      <trkpt lat="45.2968305163085460662841796875" lon="-70.8266298472881317138671875">
        <ele>995.20001220703125</ele>
        <time>2026-08-21T13:44:46.000Z</time>
        <extensions>
          <ns3:TrackPointExtension>
            <ns3:hr>144</ns3:hr>
            <ns3:cad>0</ns3:cad>
          </ns3:TrackPointExtension>
        </extensions>
      </trkpt>
      <trkpt lat="45.2968251518905162811279296875" lon="-70.82662959583103656768798828125">
        <ele>995.4000244140625</ele>
        <time>2026-08-21T13:44:47.000Z</time>
        <extensions>
          <ns3:TrackPointExtension>
            <ns3:hr>144</ns3:hr>
            <ns3:cad>0</ns3:cad>
          </ns3:TrackPointExtension>
        </extensions>
      </trkpt>
      <trkpt lat="45.2968194521963596343994140625" lon="-70.82663596607744693756103515625">
        <ele>995.79998779296875</ele>
        <time>2026-08-21T13:44:48.000Z</time>
        <extensions>
          <ns3:TrackPointExtension>
            <ns3:hr>144</ns3:hr>
            <ns3:cad>0</ns3:cad>
          </ns3:TrackPointExtension>
        </extensions>
      </trkpt>
      <trkpt lat="45.2968145906925201416015625" lon="-70.82663848064839839935302734375">
        <ele>996</ele>
        <time>2026-08-21T13:44:49.000Z</time>
        <extensions>
          <ns3:TrackPointExtension>
            <ns3:hr>145</ns3:hr>
            <ns3:cad>0</ns3:cad>
          </ns3:TrackPointExtension>
        </extensions>
      </trkpt>
      <trkpt lat="45.2968090586364269256591796875" lon="-70.826642252504825592041015625">
        <ele>996.4000244140625</ele>
        <time>2026-08-21T13:44:50.000Z</time>
        <extensions>
          <ns3:TrackPointExtension>
            <ns3:hr>145</ns3:hr>
            <ns3:cad>0</ns3:cad>
          </ns3:TrackPointExtension>
        </extensions>
      </trkpt>
      <trkpt lat="45.29680461622774600982666015625" lon="-70.82665809430181980133056640625">
        <ele>996.5999755859375</ele>
        <time>2026-08-21T13:44:51.000Z</time>
        <extensions>
          <ns3:TrackPointExtension>
            <ns3:hr>145</ns3:hr>
            <ns3:cad>0</ns3:cad>
          </ns3:TrackPointExtension>
        </extensions>
      </trkpt>
      <trkpt lat="45.2967996709048748016357421875" lon="-70.826675780117511749267578125">
        <ele>996.79998779296875</ele>
        <time>2026-08-21T13:44:52.000Z</time>
        <extensions>
          <ns3:TrackPointExtension>
            <ns3:hr>146</ns3:hr>
            <ns3:cad>0</ns3:cad>
          </ns3:TrackPointExtension>
        </extensions>
      </trkpt>
      <trkpt lat="45.296797491610050201416015625" lon="-70.82669489085674285888671875">
        <ele>997</ele>
        <time>2026-08-21T13:44:53.000Z</time>
        <extensions>
          <ns3:TrackPointExtension>
            <ns3:hr>146</ns3:hr>
            <ns3:cad>0</ns3:cad>
          </ns3:TrackPointExtension>
        </extensions>
      </trkpt>
      <trkpt lat="45.29679623432457447052001953125" lon="-70.82670989446341991424560546875">
        <ele>997</ele>
        <time>2026-08-21T13:44:54.000Z</time>
        <extensions>
          <ns3:TrackPointExtension>
            <ns3:hr>147</ns3:hr>
            <ns3:cad>0</ns3:cad>
          </ns3:TrackPointExtension>
        </extensions>
      </trkpt>
      <trkpt lat="45.2967936359345912933349609375" lon="-70.82672632299363613128662109375">
        <ele>997</ele>
        <time>2026-08-21T13:44:55.000Z</time>
        <extensions>
          <ns3:TrackPointExtension>
            <ns3:hr>147</ns3:hr>
            <ns3:cad>0</ns3:cad>
          </ns3:TrackPointExtension>
        </extensions>
      </trkpt>
      <trkpt lat="45.29678852297365665435791015625" lon="-70.82673738710582256317138671875">
        <ele>997.20001220703125</ele>
        <time>2026-08-21T13:44:56.000Z</time>
        <extensions>
          <ns3:TrackPointExtension>
            <ns3:hr>147</ns3:hr>
            <ns3:cad>0</ns3:cad>
          </ns3:TrackPointExtension>
        </extensions>
      </trkpt>
      <trkpt lat="45.296781063079833984375" lon="-70.82674853503704071044921875">
        <ele>997.20001220703125</ele>
        <time>2026-08-21T13:44:57.000Z</time>
        <extensions>
          <ns3:TrackPointExtension>
            <ns3:hr>147</ns3:hr>
            <ns3:cad>0</ns3:cad>
          </ns3:TrackPointExtension>
        </extensions>
      </trkpt>
      <trkpt lat="45.296776033937931060791015625" lon="-70.8267647959291934967041015625">
        <ele>997.20001220703125</ele>
        <time>2026-08-21T13:44:58.000Z</time>
        <extensions>
          <ns3:TrackPointExtension>
            <ns3:hr>146</ns3:hr>
            <ns3:cad>0</ns3:cad>
          </ns3:TrackPointExtension>
        </extensions>
      </trkpt>
      <trkpt lat="45.296772681176662445068359375" lon="-70.82677778787910938262939453125">
        <ele>997.20001220703125</ele>
        <time>2026-08-21T13:44:59.000Z</time>
        <extensions>
          <ns3:TrackPointExtension>
            <ns3:hr>147</ns3:hr>
            <ns3:cad>0</ns3:cad>
          </ns3:TrackPointExtension>
        </extensions>
      </trkpt>
      <trkpt lat="45.29677008278667926788330078125" lon="-70.826784409582614898681640625">
        <ele>997.20001220703125</ele>
        <time>2026-08-21T13:45:00.000Z</time>
        <extensions>
          <ns3:TrackPointExtension>
            <ns3:hr>147</ns3:hr>
            <ns3:cad>0</ns3:cad>
          </ns3:TrackPointExtension>
        </extensions>
      </trkpt>
      <trkpt lat="45.2967637963593006134033203125" lon="-70.82679958082735538482666015625">
        <ele>997.20001220703125</ele>
        <time>2026-08-21T13:45:01.000Z</time>
        <extensions>
          <ns3:TrackPointExtension>
            <ns3:hr>148</ns3:hr>
            <ns3:cad>0</ns3:cad>
          </ns3:TrackPointExtension>
        </extensions>
      </trkpt>
      <trkpt lat="45.2967564202845096588134765625" lon="-70.8268214575946331024169921875">
        <ele>997.4000244140625</ele>
        <time>2026-08-21T13:45:02.000Z</time>
        <extensions>
          <ns3:TrackPointExtension>
            <ns3:hr>149</ns3:hr>
            <ns3:cad>0</ns3:cad>
          </ns3:TrackPointExtension>
        </extensions>
      </trkpt>
      <trkpt lat="45.29675197787582874298095703125" lon="-70.82683411426842212677001953125">
        <ele>997.5999755859375</ele>
        <time>2026-08-21T13:45:03.000Z</time>
        <extensions>
          <ns3:TrackPointExtension>
            <ns3:hr>149</ns3:hr>
            <ns3:cad>0</ns3:cad>
          </ns3:TrackPointExtension>
        </extensions>
      </trkpt>
      <trkpt lat="45.29674912802875041961669921875" lon="-70.826847441494464874267578125">
        <ele>997.79998779296875</ele>
        <time>2026-08-21T13:45:04.000Z</time>
        <extensions>
          <ns3:TrackPointExtension>
            <ns3:hr>149</ns3:hr>
            <ns3:cad>0</ns3:cad>
          </ns3:TrackPointExtension>
        </extensions>
      </trkpt>
      <trkpt lat="45.2967463620007038116455078125" lon="-70.82686110399663448333740234375">
        <ele>997.79998779296875</ele>
        <time>2026-08-21T13:45:05.000Z</time>
        <extensions>
          <ns3:TrackPointExtension>
            <ns3:hr>148</ns3:hr>
            <ns3:cad>0</ns3:cad>
          </ns3:TrackPointExtension>
        </extensions>
      </trkpt>
      <trkpt lat="45.29674443416297435760498046875" lon="-70.82687795162200927734375">
        <ele>997.79998779296875</ele>
        <time>2026-08-21T13:45:06.000Z</time>
        <extensions>
          <ns3:TrackPointExtension>
            <ns3:hr>148</ns3:hr>
            <ns3:cad>0</ns3:cad>
          </ns3:TrackPointExtension>
        </extensions>
      </trkpt>
      <trkpt lat="45.29674309305846691131591796875" lon="-70.82689312286674976348876953125">
        <ele>997.79998779296875</ele>
        <time>2026-08-21T13:45:07.000Z</time>
        <extensions>
          <ns3:TrackPointExtension>
            <ns3:hr>148</ns3:hr>
            <ns3:cad>52</ns3:cad>
          </ns3:TrackPointExtension>
        </extensions>
      </trkpt>
      <trkpt lat="45.296735465526580810546875" lon="-70.8269042707979679107666015625">
        <ele>997.79998779296875</ele>
        <time>2026-08-21T13:45:08.000Z</time>
        <extensions>
          <ns3:TrackPointExtension>
            <ns3:hr>149</ns3:hr>
            <ns3:cad>52</ns3:cad>
          </ns3:TrackPointExtension>
        </extensions>
      </trkpt>
      <trkpt lat="45.2967252396047115325927734375" lon="-70.826924555003643035888671875">
        <ele>997.79998779296875</ele>
        <time>2026-08-21T13:45:09.000Z</time>
        <extensions>
          <ns3:TrackPointExtension>
            <ns3:hr>148</ns3:hr>
            <ns3:cad>52</ns3:cad>
          </ns3:TrackPointExtension>
        </extensions>
      </trkpt>
      <trkpt lat="45.29672062955796718597412109375" lon="-70.826935283839702606201171875">
        <ele>998</ele>
        <time>2026-08-21T13:45:10.000Z</time>
        <extensions>
          <ns3:TrackPointExtension>
            <ns3:hr>148</ns3:hr>
            <ns3:cad>0</ns3:cad>
          </ns3:TrackPointExtension>
        </extensions>
      </trkpt>
      <trkpt lat="45.29671476222574710845947265625" lon="-70.82695045508444309234619140625">
        <ele>998.20001220703125</ele>
        <time>2026-08-21T13:45:11.000Z</time>
        <extensions>
          <ns3:TrackPointExtension>
            <ns3:hr>148</ns3:hr>
            <ns3:cad>0</ns3:cad>
          </ns3:TrackPointExtension>
        </extensions>
      </trkpt>
      <trkpt lat="45.29671065509319305419921875" lon="-70.826973505318164825439453125">
        <ele>998.4000244140625</ele>
        <time>2026-08-21T13:45:12.000Z</time>
        <extensions>
          <ns3:TrackPointExtension>
            <ns3:hr>148</ns3:hr>
            <ns3:cad>0</ns3:cad>
          </ns3:TrackPointExtension>
        </extensions>
      </trkpt>
      <trkpt lat="45.29670621268451213836669921875" lon="-70.82699269987642765045166015625">
        <ele>998.5999755859375</ele>
        <time>2026-08-21T13:45:13.000Z</time>
        <extensions>
          <ns3:TrackPointExtension>
            <ns3:hr>149</ns3:hr>
            <ns3:cad>0</ns3:cad>
          </ns3:TrackPointExtension>
        </extensions>
      </trkpt>
      <trkpt lat="45.296708308160305023193359375" lon="-70.82699253223836421966552734375">
        <ele>999</ele>
        <time>2026-08-21T13:45:14.000Z</time>
        <extensions>
          <ns3:TrackPointExtension>
            <ns3:hr>148</ns3:hr>
            <ns3:cad>52</ns3:cad>
          </ns3:TrackPointExtension>
        </extensions>
      </trkpt>
      <trkpt lat="45.29671199619770050048828125" lon="-70.82701348699629306793212890625">
        <ele>999.20001220703125</ele>
        <time>2026-08-21T13:45:15.000Z</time>
        <extensions>
          <ns3:TrackPointExtension>
            <ns3:hr>148</ns3:hr>
            <ns3:cad>52</ns3:cad>
          </ns3:TrackPointExtension>
        </extensions>
      </trkpt>
      <trkpt lat="45.29671627096831798553466796875" lon="-70.82703578285872936248779296875">
        <ele>999.4000244140625</ele>
        <time>2026-08-21T13:45:16.000Z</time>
        <extensions>
          <ns3:TrackPointExtension>
            <ns3:hr>148</ns3:hr>
            <ns3:cad>52</ns3:cad>
          </ns3:TrackPointExtension>
        </extensions>
      </trkpt>
      <trkpt lat="45.296715684235095977783203125" lon="-70.82704785279929637908935546875">
        <ele>999.5999755859375</ele>
        <time>2026-08-21T13:45:17.000Z</time>
        <extensions>
          <ns3:TrackPointExtension>
            <ns3:hr>147</ns3:hr>
            <ns3:cad>52</ns3:cad>
          </ns3:TrackPointExtension>
        </extensions>
      </trkpt>
      <trkpt lat="45.29671710915863513946533203125" lon="-70.82706964574754238128662109375">
        <ele>999.4000244140625</ele>
        <time>2026-08-21T13:45:18.000Z</time>
        <extensions>
          <ns3:TrackPointExtension>
            <ns3:hr>147</ns3:hr>
            <ns3:cad>52</ns3:cad>
          </ns3:TrackPointExtension>
        </extensions>
      </trkpt>
      <trkpt lat="45.29672046191990375518798828125" lon="-70.82708003930747509002685546875">
        <ele>999.4000244140625</ele>
        <time>2026-08-21T13:45:19.000Z</time>
        <extensions>
          <ns3:TrackPointExtension>
            <ns3:hr>148</ns3:hr>
            <ns3:cad>52</ns3:cad>
          </ns3:TrackPointExtension>
        </extensions>
      </trkpt>
      <trkpt lat="45.2967205457389354705810546875" lon="-70.827089510858058929443359375">
        <ele>999.20001220703125</ele>
        <time>2026-08-21T13:45:20.000Z</time>
        <extensions>
          <ns3:TrackPointExtension>
            <ns3:hr>148</ns3:hr>
            <ns3:cad>52</ns3:cad>
          </ns3:TrackPointExtension>
        </extensions>
      </trkpt>
      <trkpt lat="45.29672046191990375518798828125" lon="-70.8271051011979579925537109375">
        <ele>999</ele>
        <time>2026-08-21T13:45:21.000Z</time>
        <extensions>
          <ns3:TrackPointExtension>
            <ns3:hr>149</ns3:hr>
            <ns3:cad>52</ns3:cad>
          </ns3:TrackPointExtension>
        </extensions>
      </trkpt>
      <trkpt lat="45.2967158518731594085693359375" lon="-70.82712630741298198699951171875">
        <ele>998.79998779296875</ele>
        <time>2026-08-21T13:45:22.000Z</time>
        <extensions>
          <ns3:TrackPointExtension>
            <ns3:hr>149</ns3:hr>
            <ns3:cad>52</ns3:cad>
          </ns3:TrackPointExtension>
        </extensions>
      </trkpt>
      <trkpt lat="45.29671425931155681610107421875" lon="-70.82713904790580272674560546875">
        <ele>998.79998779296875</ele>
        <time>2026-08-21T13:45:23.000Z</time>
        <extensions>
          <ns3:TrackPointExtension>
            <ns3:hr>149</ns3:hr>
            <ns3:cad>52</ns3:cad>
          </ns3:TrackPointExtension>
        </extensions>
      </trkpt>
      <trkpt lat="45.29671107418835163116455078125" lon="-70.82715966738760471343994140625">
        <ele>998.79998779296875</ele>
        <time>2026-08-21T13:45:24.000Z</time>
        <extensions>
          <ns3:TrackPointExtension>
            <ns3:hr>149</ns3:hr>
            <ns3:cad>0</ns3:cad>
          </ns3:TrackPointExtension>
        </extensions>
      </trkpt>
      <trkpt lat="45.29671023599803447723388671875" lon="-70.82717634737491607666015625">
        <ele>998.79998779296875</ele>
        <time>2026-08-21T13:45:25.000Z</time>
        <extensions>
          <ns3:TrackPointExtension>
            <ns3:hr>148</ns3:hr>
            <ns3:cad>0</ns3:cad>
          </ns3:TrackPointExtension>
        </extensions>
      </trkpt>
      <trkpt lat="45.2967064641416072845458984375" lon="-70.827195458114147186279296875">
        <ele>998.79998779296875</ele>
        <time>2026-08-21T13:45:26.000Z</time>
        <extensions>
          <ns3:TrackPointExtension>
            <ns3:hr>147</ns3:hr>
            <ns3:cad>0</ns3:cad>
          </ns3:TrackPointExtension>
        </extensions>
      </trkpt>
      <trkpt lat="45.2967145107686519622802734375" lon="-70.82720861770212650299072265625">
        <ele>999</ele>
        <time>2026-08-21T13:45:27.000Z</time>
        <extensions>
          <ns3:TrackPointExtension>
            <ns3:hr>147</ns3:hr>
            <ns3:cad>0</ns3:cad>
          </ns3:TrackPointExtension>
        </extensions>
      </trkpt>
      <trkpt lat="45.29672004282474517822265625" lon="-70.827221609652042388916015625">
        <ele>999</ele>
        <time>2026-08-21T13:45:28.000Z</time>
        <extensions>
          <ns3:TrackPointExtension>
            <ns3:hr>147</ns3:hr>
            <ns3:cad>0</ns3:cad>
          </ns3:TrackPointExtension>
        </extensions>
      </trkpt>
      <trkpt lat="45.2967245690524578094482421875" lon="-70.827232338488101959228515625">
        <ele>999.20001220703125</ele>
        <time>2026-08-21T13:45:29.000Z</time>
        <extensions>
          <ns3:TrackPointExtension>
            <ns3:hr>147</ns3:hr>
            <ns3:cad>47</ns3:cad>
          </ns3:TrackPointExtension>
        </extensions>
      </trkpt>
      <trkpt lat="45.296727754175662994384765625" lon="-70.82724206149578094482421875">
        <ele>999.20001220703125</ele>
        <time>2026-08-21T13:45:30.000Z</time>
        <extensions>
          <ns3:TrackPointExtension>
            <ns3:hr>147</ns3:hr>
            <ns3:cad>47</ns3:cad>
          </ns3:TrackPointExtension>
        </extensions>
      </trkpt>
      <trkpt lat="45.2967319451272487640380859375" lon="-70.8272583223879337310791015625">
        <ele>999.20001220703125</ele>
        <time>2026-08-21T13:45:31.000Z</time>
        <extensions>
          <ns3:TrackPointExtension>
            <ns3:hr>147</ns3:hr>
            <ns3:cad>47</ns3:cad>
          </ns3:TrackPointExtension>
        </extensions>
      </trkpt>
      <trkpt lat="45.2967383153736591339111328125" lon="-70.827273912727832794189453125">
        <ele>999.20001220703125</ele>
        <time>2026-08-21T13:45:32.000Z</time>
        <extensions>
          <ns3:TrackPointExtension>
            <ns3:hr>147</ns3:hr>
            <ns3:cad>47</ns3:cad>
          </ns3:TrackPointExtension>
        </extensions>
      </trkpt>
      <trkpt lat="45.29673722572624683380126953125" lon="-70.82728036679327487945556640625">
        <ele>999.20001220703125</ele>
        <time>2026-08-21T13:45:33.000Z</time>
        <extensions>
          <ns3:TrackPointExtension>
            <ns3:hr>146</ns3:hr>
            <ns3:cad>47</ns3:cad>
          </ns3:TrackPointExtension>
        </extensions>
      </trkpt>
      <trkpt lat="45.2967396564781665802001953125" lon="-70.8272938616573810577392578125">
        <ele>999.20001220703125</ele>
        <time>2026-08-21T13:45:34.000Z</time>
        <extensions>
          <ns3:TrackPointExtension>
            <ns3:hr>146</ns3:hr>
            <ns3:cad>47</ns3:cad>
          </ns3:TrackPointExtension>
        </extensions>
      </trkpt>
      <trkpt lat="45.29673974029719829559326171875" lon="-70.82731238566339015960693359375">
        <ele>999.20001220703125</ele>
        <time>2026-08-21T13:45:35.000Z</time>
        <extensions>
          <ns3:TrackPointExtension>
            <ns3:hr>146</ns3:hr>
            <ns3:cad>47</ns3:cad>
          </ns3:TrackPointExtension>
        </extensions>
      </trkpt>
      <trkpt lat="45.29673881828784942626953125" lon="-70.827321521937847137451171875">
        <ele>999.20001220703125</ele>
        <time>2026-08-21T13:45:36.000Z</time>
        <extensions>
          <ns3:TrackPointExtension>
            <ns3:hr>146</ns3:hr>
            <ns3:cad>50</ns3:cad>
          </ns3:TrackPointExtension>
        </extensions>
      </trkpt>
      <trkpt lat="45.29674686491489410400390625" lon="-70.82733862102031707763671875">
        <ele>999.4000244140625</ele>
        <time>2026-08-21T13:45:37.000Z</time>
        <extensions>
          <ns3:TrackPointExtension>
            <ns3:hr>146</ns3:hr>
            <ns3:cad>50</ns3:cad>
          </ns3:TrackPointExtension>
        </extensions>
      </trkpt>
      <trkpt lat="45.29674678109586238861083984375" lon="-70.827351026237010955810546875">
        <ele>999.4000244140625</ele>
        <time>2026-08-21T13:45:38.000Z</time>
        <extensions>
          <ns3:TrackPointExtension>
            <ns3:hr>146</ns3:hr>
            <ns3:cad>50</ns3:cad>
          </ns3:TrackPointExtension>
        </extensions>
      </trkpt>
      <trkpt lat="45.29674963094294071197509765625" lon="-70.827359072864055633544921875">
        <ele>999.5999755859375</ele>
        <time>2026-08-21T13:45:39.000Z</time>
        <extensions>
          <ns3:TrackPointExtension>
            <ns3:hr>146</ns3:hr>
            <ns3:cad>50</ns3:cad>
          </ns3:TrackPointExtension>
        </extensions>
      </trkpt>
      <trkpt lat="45.29675080440938472747802734375" lon="-70.82736946642398834228515625">
        <ele>999.79998779296875</ele>
        <time>2026-08-21T13:45:40.000Z</time>
        <extensions>
          <ns3:TrackPointExtension>
            <ns3:hr>146</ns3:hr>
            <ns3:cad>50</ns3:cad>
          </ns3:TrackPointExtension>
        </extensions>
      </trkpt>
      <trkpt lat="45.296745188534259796142578125" lon="-70.82738212309777736663818359375">
        <ele>1000.20001220703125</ele>
        <time>2026-08-21T13:45:41.000Z</time>
        <extensions>
          <ns3:TrackPointExtension>
            <ns3:hr>145</ns3:hr>
            <ns3:cad>0</ns3:cad>
          </ns3:TrackPointExtension>
        </extensions>
      </trkpt>
      <trkpt lat="45.29674108140170574188232421875" lon="-70.82738514058291912078857421875">
        <ele>1000.4000244140625</ele>
        <time>2026-08-21T13:45:42.000Z</time>
        <extensions>
          <ns3:TrackPointExtension>
            <ns3:hr>145</ns3:hr>
            <ns3:cad>0</ns3:cad>
          </ns3:TrackPointExtension>
        </extensions>
      </trkpt>
      <trkpt lat="45.29674091376364231109619140625" lon="-70.82739352248609066009521484375">
        <ele>1000.5999755859375</ele>
        <time>2026-08-21T13:45:43.000Z</time>
        <extensions>
          <ns3:TrackPointExtension>
            <ns3:hr>144</ns3:hr>
            <ns3:cad>0</ns3:cad>
          </ns3:TrackPointExtension>
        </extensions>
      </trkpt>
      <trkpt lat="45.2967413328588008880615234375" lon="-70.8274021558463573455810546875">
        <ele>1000.79998779296875</ele>
        <time>2026-08-21T13:45:44.000Z</time>
        <extensions>
          <ns3:TrackPointExtension>
            <ns3:hr>143</ns3:hr>
            <ns3:cad>0</ns3:cad>
          </ns3:TrackPointExtension>
        </extensions>
      </trkpt>
      <trkpt lat="45.2967399917542934417724609375" lon="-70.82740693353116512298583984375">
        <ele>1001</ele>
        <time>2026-08-21T13:45:45.000Z</time>
        <extensions>
          <ns3:TrackPointExtension>
            <ns3:hr>143</ns3:hr>
            <ns3:cad>0</ns3:cad>
          </ns3:TrackPointExtension>
        </extensions>
      </trkpt>
      <trkpt lat="45.29674275778234004974365234375" lon="-70.8274108730256557464599609375">
        <ele>1001.20001220703125</ele>
        <time>2026-08-21T13:45:46.000Z</time>
        <extensions>
          <ns3:TrackPointExtension>
            <ns3:hr>143</ns3:hr>
            <ns3:cad>0</ns3:cad>
          </ns3:TrackPointExtension>
        </extensions>
      </trkpt>
      <trkpt lat="45.29673974029719829559326171875" lon="-70.82741883583366870880126953125">
        <ele>1001.4000244140625</ele>
        <time>2026-08-21T13:45:47.000Z</time>
        <extensions>
          <ns3:TrackPointExtension>
            <ns3:hr>142</ns3:hr>
            <ns3:cad>0</ns3:cad>
          </ns3:TrackPointExtension>
        </extensions>
      </trkpt>
      <trkpt lat="45.2967376448214054107666015625" lon="-70.8274239487946033477783203125">
        <ele>1001.5999755859375</ele>
        <time>2026-08-21T13:45:48.000Z</time>
        <extensions>
          <ns3:TrackPointExtension>
            <ns3:hr>142</ns3:hr>
            <ns3:cad>0</ns3:cad>
          </ns3:TrackPointExtension>
        </extensions>
      </trkpt>
      <trkpt lat="45.296738147735595703125" lon="-70.82742981612682342529296875">
        <ele>1001.5999755859375</ele>
        <time>2026-08-21T13:45:49.000Z</time>
        <extensions>
          <ns3:TrackPointExtension>
            <ns3:hr>142</ns3:hr>
            <ns3:cad>0</ns3:cad>
          </ns3:TrackPointExtension>
        </extensions>
      </trkpt>
      <trkpt lat="45.2967383153736591339111328125" lon="-70.8274370245635509490966796875">
        <ele>1001.79998779296875</ele>
        <time>2026-08-21T13:45:50.000Z</time>
        <extensions>
          <ns3:TrackPointExtension>
            <ns3:hr>142</ns3:hr>
            <ns3:cad>0</ns3:cad>
          </ns3:TrackPointExtension>
        </extensions>
      </trkpt>
      <trkpt lat="45.296735800802707672119140625" lon="-70.82744565792381763458251953125">
        <ele>1002</ele>
        <time>2026-08-21T13:45:51.000Z</time>
        <extensions>
          <ns3:TrackPointExtension>
            <ns3:hr>142</ns3:hr>
            <ns3:cad>0</ns3:cad>
          </ns3:TrackPointExtension>
        </extensions>
      </trkpt>
      <trkpt lat="45.29673152603209018707275390625" lon="-70.82745303399860858917236328125">
        <ele>1002</ele>
        <time>2026-08-21T13:45:52.000Z</time>
        <extensions>
          <ns3:TrackPointExtension>
            <ns3:hr>142</ns3:hr>
            <ns3:cad>0</ns3:cad>
          </ns3:TrackPointExtension>
        </extensions>
      </trkpt>
      <trkpt lat="45.29673077166080474853515625" lon="-70.8274594880640506744384765625">
        <ele>1002</ele>
        <time>2026-08-21T13:45:53.000Z</time>
        <extensions>
          <ns3:TrackPointExtension>
            <ns3:hr>142</ns3:hr>
            <ns3:cad>72</ns3:cad>
          </ns3:TrackPointExtension>
        </extensions>
      </trkpt>
      <trkpt lat="45.29672951437532901763916015625" lon="-70.8274685405194759368896484375">
        <ele>1002.20001220703125</ele>
        <time>2026-08-21T13:45:54.000Z</time>
        <extensions>
          <ns3:TrackPointExtension>
            <ns3:hr>142</ns3:hr>
            <ns3:cad>72</ns3:cad>
          </ns3:TrackPointExtension>
        </extensions>
      </trkpt>
      <trkpt lat="45.29672800563275814056396484375" lon="-70.827476084232330322265625">
        <ele>1002.4000244140625</ele>
        <time>2026-08-21T13:45:55.000Z</time>
        <extensions>
          <ns3:TrackPointExtension>
            <ns3:hr>142</ns3:hr>
            <ns3:cad>0</ns3:cad>
          </ns3:TrackPointExtension>
        </extensions>
      </trkpt>
      <trkpt lat="45.29672817327082157135009765625" lon="-70.827485136687755584716796875">
        <ele>1002.5999755859375</ele>
        <time>2026-08-21T13:45:56.000Z</time>
        <extensions>
          <ns3:TrackPointExtension>
            <ns3:hr>142</ns3:hr>
            <ns3:cad>0</ns3:cad>
          </ns3:TrackPointExtension>
        </extensions>
      </trkpt>
      <trkpt lat="45.29672683216631412506103515625" lon="-70.82749712280929088592529296875">
        <ele>1003</ele>
        <time>2026-08-21T13:45:57.000Z</time>
        <extensions>
          <ns3:TrackPointExtension>
            <ns3:hr>142</ns3:hr>
            <ns3:cad>0</ns3:cad>
          </ns3:TrackPointExtension>
        </extensions>
      </trkpt>
      <trkpt lat="45.29672482050955295562744140625" lon="-70.8275101147592067718505859375">
        <ele>1003.20001220703125</ele>
        <time>2026-08-21T13:45:58.000Z</time>
        <extensions>
          <ns3:TrackPointExtension>
            <ns3:hr>142</ns3:hr>
            <ns3:cad>0</ns3:cad>
          </ns3:TrackPointExtension>
        </extensions>
      </trkpt>
      <trkpt lat="45.29671878553926944732666015625" lon="-70.8275285549461841583251953125">
        <ele>1003.4000244140625</ele>
        <time>2026-08-21T13:45:59.000Z</time>
        <extensions>
          <ns3:TrackPointExtension>
            <ns3:hr>142</ns3:hr>
            <ns3:cad>0</ns3:cad>
          </ns3:TrackPointExtension>
        </extensions>
      </trkpt>
      <trkpt lat="45.29671358875930309295654296875" lon="-70.8275376074016094207763671875">
        <ele>1003.4000244140625</ele>
        <time>2026-08-21T13:46:00.000Z</time>
        <extensions>
          <ns3:TrackPointExtension>
            <ns3:hr>142</ns3:hr>
            <ns3:cad>0</ns3:cad>
          </ns3:TrackPointExtension>
        </extensions>
      </trkpt>
      <trkpt lat="45.29672029428184032440185546875" lon="-70.82754372619092464447021484375">
        <ele>1003.5999755859375</ele>
        <time>2026-08-21T13:46:01.000Z</time>
        <extensions>
          <ns3:TrackPointExtension>
            <ns3:hr>142</ns3:hr>
            <ns3:cad>0</ns3:cad>
          </ns3:TrackPointExtension>
        </extensions>
      </trkpt>
      <trkpt lat="45.29672565869987010955810546875" lon="-70.82754741422832012176513671875">
        <ele>1003.79998779296875</ele>
        <time>2026-08-21T13:46:02.000Z</time>
        <extensions>
          <ns3:TrackPointExtension>
            <ns3:hr>142</ns3:hr>
            <ns3:cad>0</ns3:cad>
          </ns3:TrackPointExtension>
        </extensions>
      </trkpt>
      <trkpt lat="45.29672968201339244842529296875" lon="-70.82755210809409618377685546875">
        <ele>1004</ele>
        <time>2026-08-21T13:46:03.000Z</time>
        <extensions>
          <ns3:TrackPointExtension>
            <ns3:hr>142</ns3:hr>
            <ns3:cad>45</ns3:cad>
          </ns3:TrackPointExtension>
        </extensions>
      </trkpt>
      <trkpt lat="45.29672943055629730224609375" lon="-70.8275604061782360076904296875">
        <ele>1004.4000244140625</ele>
        <time>2026-08-21T13:46:04.000Z</time>
        <extensions>
          <ns3:TrackPointExtension>
            <ns3:hr>142</ns3:hr>
            <ns3:cad>45</ns3:cad>
          </ns3:TrackPointExtension>
        </extensions>
      </trkpt>
      <trkpt lat="45.29672943055629730224609375" lon="-70.827572979032993316650390625">
        <ele>1004.5999755859375</ele>
        <time>2026-08-21T13:46:05.000Z</time>
        <extensions>
          <ns3:TrackPointExtension>
            <ns3:hr>142</ns3:hr>
            <ns3:cad>45</ns3:cad>
          </ns3:TrackPointExtension>
        </extensions>
      </trkpt>
      <trkpt lat="45.2967249043285846710205078125" lon="-70.82757960073649883270263671875">
        <ele>1004.79998779296875</ele>
        <time>2026-08-21T13:46:06.000Z</time>
        <extensions>
          <ns3:TrackPointExtension>
            <ns3:hr>142</ns3:hr>
            <ns3:cad>45</ns3:cad>
          </ns3:TrackPointExtension>
        </extensions>
      </trkpt>
      <trkpt lat="45.29672180302441120147705078125" lon="-70.82759066484868526458740234375">
        <ele>1004.79998779296875</ele>
        <time>2026-08-21T13:46:07.000Z</time>
        <extensions>
          <ns3:TrackPointExtension>
            <ns3:hr>141</ns3:hr>
            <ns3:cad>43</ns3:cad>
          </ns3:TrackPointExtension>
        </extensions>
      </trkpt>
      <trkpt lat="45.296718366444110870361328125" lon="-70.827583707869052886962890625">
        <ele>1005</ele>
        <time>2026-08-21T13:46:08.000Z</time>
        <extensions>
          <ns3:TrackPointExtension>
            <ns3:hr>142</ns3:hr>
            <ns3:cad>43</ns3:cad>
          </ns3:TrackPointExtension>
        </extensions>
      </trkpt>
      <trkpt lat="45.296715684235095977783203125" lon="-70.8275875635445117950439453125">
        <ele>1004.79998779296875</ele>
        <time>2026-08-21T13:46:09.000Z</time>
        <extensions>
          <ns3:TrackPointExtension>
            <ns3:hr>142</ns3:hr>
            <ns3:cad>43</ns3:cad>
          </ns3:TrackPointExtension>
        </extensions>
      </trkpt>
      <trkpt lat="45.29671023599803447723388671875" lon="-70.8275820314884185791015625">
        <ele>1004.79998779296875</ele>
        <time>2026-08-21T13:46:10.000Z</time>
        <extensions>
          <ns3:TrackPointExtension>
            <ns3:hr>143</ns3:hr>
            <ns3:cad>0</ns3:cad>
          </ns3:TrackPointExtension>
        </extensions>
      </trkpt>
      <trkpt lat="45.2967034466564655303955078125" lon="-70.82758580334484577178955078125">
        <ele>1004.79998779296875</ele>
        <time>2026-08-21T13:46:11.000Z</time>
        <extensions>
          <ns3:TrackPointExtension>
            <ns3:hr>144</ns3:hr>
            <ns3:cad>0</ns3:cad>
          </ns3:TrackPointExtension>
        </extensions>
      </trkpt>
      <trkpt lat="45.29669749550521373748779296875" lon="-70.82759334705770015716552734375">
        <ele>1004.79998779296875</ele>
        <time>2026-08-21T13:46:12.000Z</time>
        <extensions>
          <ns3:TrackPointExtension>
            <ns3:hr>144</ns3:hr>
            <ns3:cad>46</ns3:cad>
          </ns3:TrackPointExtension>
        </extensions>
      </trkpt>
      <trkpt lat="45.2966950647532939910888671875" lon="-70.82760977558791637420654296875">
        <ele>1004.5999755859375</ele>
        <time>2026-08-21T13:46:13.000Z</time>
        <extensions>
          <ns3:TrackPointExtension>
            <ns3:hr>144</ns3:hr>
            <ns3:cad>46</ns3:cad>
          </ns3:TrackPointExtension>
        </extensions>
      </trkpt>
      <trkpt lat="45.29669648967683315277099609375" lon="-70.8276187442243099212646484375">
        <ele>1004.4000244140625</ele>
        <time>2026-08-21T13:46:14.000Z</time>
        <extensions>
          <ns3:TrackPointExtension>
            <ns3:hr>144</ns3:hr>
            <ns3:cad>46</ns3:cad>
          </ns3:TrackPointExtension>
        </extensions>
      </trkpt>
      <trkpt lat="45.29669179581105709075927734375" lon="-70.82762687467038631439208984375">
        <ele>1004</ele>
        <time>2026-08-21T13:46:15.000Z</time>
        <extensions>
          <ns3:TrackPointExtension>
            <ns3:hr>144</ns3:hr>
            <ns3:cad>46</ns3:cad>
          </ns3:TrackPointExtension>
        </extensions>
      </trkpt>
      <trkpt lat="45.29668919742107391357421875" lon="-70.82762888632714748382568359375">
        <ele>1003.79998779296875</ele>
        <time>2026-08-21T13:46:16.000Z</time>
        <extensions>
          <ns3:TrackPointExtension>
            <ns3:hr>144</ns3:hr>
            <ns3:cad>46</ns3:cad>
          </ns3:TrackPointExtension>
        </extensions>
      </trkpt>
      <trkpt lat="45.29668458737432956695556640625" lon="-70.82763156853616237640380859375">
        <ele>1003.4000244140625</ele>
        <time>2026-08-21T13:46:17.000Z</time>
        <extensions>
          <ns3:TrackPointExtension>
            <ns3:hr>145</ns3:hr>
            <ns3:cad>0</ns3:cad>
          </ns3:TrackPointExtension>
        </extensions>
      </trkpt>
      <trkpt lat="45.2966749481856822967529296875" lon="-70.82765051163733005523681640625">
        <ele>1003.20001220703125</ele>
        <time>2026-08-21T13:46:18.000Z</time>
        <extensions>
          <ns3:TrackPointExtension>
            <ns3:hr>145</ns3:hr>
            <ns3:cad>0</ns3:cad>
          </ns3:TrackPointExtension>
        </extensions>
      </trkpt>
      <trkpt lat="45.29666916467249393463134765625" lon="-70.8276663534343242645263671875">
        <ele>1003</ele>
        <time>2026-08-21T13:46:19.000Z</time>
        <extensions>
          <ns3:TrackPointExtension>
            <ns3:hr>146</ns3:hr>
            <ns3:cad>0</ns3:cad>
          </ns3:TrackPointExtension>
        </extensions>
      </trkpt>
      <trkpt lat="45.2966612018644809722900390625" lon="-70.82767934538424015045166015625">
        <ele>1003</ele>
        <time>2026-08-21T13:46:20.000Z</time>
        <extensions>
          <ns3:TrackPointExtension>
            <ns3:hr>146</ns3:hr>
            <ns3:cad>0</ns3:cad>
          </ns3:TrackPointExtension>
        </extensions>
      </trkpt>
      <trkpt lat="45.296652317047119140625" lon="-70.8276992104947566986083984375">
        <ele>1002.79998779296875</ele>
        <time>2026-08-21T13:46:21.000Z</time>
        <extensions>
          <ns3:TrackPointExtension>
            <ns3:hr>146</ns3:hr>
            <ns3:cad>0</ns3:cad>
          </ns3:TrackPointExtension>
        </extensions>
      </trkpt>
      <trkpt lat="45.296640582382678985595703125" lon="-70.82771019078791141510009765625">
        <ele>1002.79998779296875</ele>
        <time>2026-08-21T13:46:22.000Z</time>
        <extensions>
          <ns3:TrackPointExtension>
            <ns3:hr>146</ns3:hr>
            <ns3:cad>0</ns3:cad>
          </ns3:TrackPointExtension>
        </extensions>
      </trkpt>
      <trkpt lat="45.29663044027984142303466796875" lon="-70.8277241885662078857421875">
        <ele>1002.5999755859375</ele>
        <time>2026-08-21T13:46:23.000Z</time>
        <extensions>
          <ns3:TrackPointExtension>
            <ns3:hr>145</ns3:hr>
            <ns3:cad>0</ns3:cad>
          </ns3:TrackPointExtension>
        </extensions>
      </trkpt>
      <trkpt lat="45.2966214716434478759765625" lon="-70.82773785106837749481201171875">
        <ele>1002.5999755859375</ele>
        <time>2026-08-21T13:46:24.000Z</time>
        <extensions>
          <ns3:TrackPointExtension>
            <ns3:hr>145</ns3:hr>
            <ns3:cad>0</ns3:cad>
          </ns3:TrackPointExtension>
        </extensions>
      </trkpt>
      <trkpt lat="45.29661183245480060577392578125" lon="-70.8277510106563568115234375">
        <ele>1002.4000244140625</ele>
        <time>2026-08-21T13:46:25.000Z</time>
        <extensions>
          <ns3:TrackPointExtension>
            <ns3:hr>145</ns3:hr>
            <ns3:cad>54</ns3:cad>
          </ns3:TrackPointExtension>
        </extensions>
      </trkpt>
      <trkpt lat="45.296601355075836181640625" lon="-70.82776375114917755126953125">
        <ele>1002.4000244140625</ele>
        <time>2026-08-21T13:46:26.000Z</time>
        <extensions>
          <ns3:TrackPointExtension>
            <ns3:hr>144</ns3:hr>
            <ns3:cad>54</ns3:cad>
          </ns3:TrackPointExtension>
        </extensions>
      </trkpt>
      <trkpt lat="45.29659397900104522705078125" lon="-70.827771462500095367431640625">
        <ele>1002.4000244140625</ele>
        <time>2026-08-21T13:46:27.000Z</time>
        <extensions>
          <ns3:TrackPointExtension>
            <ns3:hr>144</ns3:hr>
            <ns3:cad>49</ns3:cad>
          </ns3:TrackPointExtension>
        </extensions>
      </trkpt>
      <trkpt lat="45.29658400453627109527587890625" lon="-70.82777942530810832977294921875">
        <ele>1002.5999755859375</ele>
        <time>2026-08-21T13:46:28.000Z</time>
        <extensions>
          <ns3:TrackPointExtension>
            <ns3:hr>143</ns3:hr>
            <ns3:cad>49</ns3:cad>
          </ns3:TrackPointExtension>
        </extensions>
      </trkpt>
      <trkpt lat="45.29657411389052867889404296875" lon="-70.82778898067772388458251953125">
        <ele>1002.5999755859375</ele>
        <time>2026-08-21T13:46:29.000Z</time>
        <extensions>
          <ns3:TrackPointExtension>
            <ns3:hr>143</ns3:hr>
            <ns3:cad>49</ns3:cad>
          </ns3:TrackPointExtension>
        </extensions>
      </trkpt>
      <trkpt lat="45.296566821634769439697265625" lon="-70.8278021402657032012939453125">
        <ele>1002.5999755859375</ele>
        <time>2026-08-21T13:46:30.000Z</time>
        <extensions>
          <ns3:TrackPointExtension>
            <ns3:hr>143</ns3:hr>
            <ns3:cad>49</ns3:cad>
          </ns3:TrackPointExtension>
        </extensions>
      </trkpt>
      <trkpt lat="45.296560116112232208251953125" lon="-70.82781395874917507171630859375">
        <ele>1002.5999755859375</ele>
        <time>2026-08-21T13:46:31.000Z</time>
        <extensions>
          <ns3:TrackPointExtension>
            <ns3:hr>142</ns3:hr>
            <ns3:cad>49</ns3:cad>
          </ns3:TrackPointExtension>
        </extensions>
      </trkpt>
      <trkpt lat="45.29655081219971179962158203125" lon="-70.827824436128139495849609375">
        <ele>1002.5999755859375</ele>
        <time>2026-08-21T13:46:32.000Z</time>
        <extensions>
          <ns3:TrackPointExtension>
            <ns3:hr>142</ns3:hr>
            <ns3:cad>53</ns3:cad>
          </ns3:TrackPointExtension>
        </extensions>
      </trkpt>
      <trkpt lat="45.296546034514904022216796875" lon="-70.8278400264680385589599609375">
        <ele>1002.79998779296875</ele>
        <time>2026-08-21T13:46:33.000Z</time>
        <extensions>
          <ns3:TrackPointExtension>
            <ns3:hr>142</ns3:hr>
            <ns3:cad>53</ns3:cad>
          </ns3:TrackPointExtension>
        </extensions>
      </trkpt>
      <trkpt lat="45.296550057828426361083984375" lon="-70.8278556168079376220703125">
        <ele>1003</ele>
        <time>2026-08-21T13:46:34.000Z</time>
        <extensions>
          <ns3:TrackPointExtension>
            <ns3:hr>141</ns3:hr>
            <ns3:cad>53</ns3:cad>
          </ns3:TrackPointExtension>
        </extensions>
      </trkpt>
      <trkpt lat="45.296552740037441253662109375" lon="-70.8278668485581874847412109375">
        <ele>1003.20001220703125</ele>
        <time>2026-08-21T13:46:35.000Z</time>
        <extensions>
          <ns3:TrackPointExtension>
            <ns3:hr>140</ns3:hr>
            <ns3:cad>53</ns3:cad>
          </ns3:TrackPointExtension>
        </extensions>
      </trkpt>
      <trkpt lat="45.29655466787517070770263671875" lon="-70.82789023406803607940673828125">
        <ele>1003.4000244140625</ele>
        <time>2026-08-21T13:46:36.000Z</time>
        <extensions>
          <ns3:TrackPointExtension>
            <ns3:hr>140</ns3:hr>
            <ns3:cad>53</ns3:cad>
          </ns3:TrackPointExtension>
        </extensions>
      </trkpt>
      <trkpt lat="45.296558439731597900390625" lon="-70.82790012471377849578857421875">
        <ele>1003.79998779296875</ele>
        <time>2026-08-21T13:46:37.000Z</time>
        <extensions>
          <ns3:TrackPointExtension>
            <ns3:hr>140</ns3:hr>
            <ns3:cad>0</ns3:cad>
          </ns3:TrackPointExtension>
        </extensions>
      </trkpt>
      <trkpt lat="45.296563468873500823974609375" lon="-70.827907584607601165771484375">
        <ele>1004</ele>
        <time>2026-08-21T13:46:38.000Z</time>
        <extensions>
          <ns3:TrackPointExtension>
            <ns3:hr>140</ns3:hr>
            <ns3:cad>0</ns3:cad>
          </ns3:TrackPointExtension>
        </extensions>
      </trkpt>
      <trkpt lat="45.296563468873500823974609375" lon="-70.8279253542423248291015625">
        <ele>1004.20001220703125</ele>
        <time>2026-08-21T13:46:39.000Z</time>
        <extensions>
          <ns3:TrackPointExtension>
            <ns3:hr>140</ns3:hr>
            <ns3:cad>0</ns3:cad>
          </ns3:TrackPointExtension>
        </extensions>
      </trkpt>
      <trkpt lat="45.29656103812158107757568359375" lon="-70.82793231122195720672607421875">
        <ele>1004.4000244140625</ele>
        <time>2026-08-21T13:46:40.000Z</time>
        <extensions>
          <ns3:TrackPointExtension>
            <ns3:hr>140</ns3:hr>
            <ns3:cad>0</ns3:cad>
          </ns3:TrackPointExtension>
        </extensions>
      </trkpt>
      <trkpt lat="45.296554081141948699951171875" lon="-70.82794538699090480804443359375">
        <ele>1004.5999755859375</ele>
        <time>2026-08-21T13:46:41.000Z</time>
        <extensions>
          <ns3:TrackPointExtension>
            <ns3:hr>139</ns3:hr>
            <ns3:cad>0</ns3:cad>
          </ns3:TrackPointExtension>
        </extensions>
      </trkpt>
      <trkpt lat="45.2965463697910308837890625" lon="-70.827953852713108062744140625">
        <ele>1004.5999755859375</ele>
        <time>2026-08-21T13:46:42.000Z</time>
        <extensions>
          <ns3:TrackPointExtension>
            <ns3:hr>139</ns3:hr>
            <ns3:cad>0</ns3:cad>
          </ns3:TrackPointExtension>
        </extensions>
      </trkpt>
      <trkpt lat="45.29654611833393573760986328125" lon="-70.82795561291277408599853515625">
        <ele>1004.5999755859375</ele>
        <time>2026-08-21T13:46:43.000Z</time>
        <extensions>
          <ns3:TrackPointExtension>
            <ns3:hr>140</ns3:hr>
            <ns3:cad>0</ns3:cad>
          </ns3:TrackPointExtension>
        </extensions>
      </trkpt>
      <trkpt lat="45.29653471894562244415283203125" lon="-70.8279650844633579254150390625">
        <ele>1004.4000244140625</ele>
        <time>2026-08-21T13:46:44.000Z</time>
        <extensions>
          <ns3:TrackPointExtension>
            <ns3:hr>140</ns3:hr>
            <ns3:cad>46</ns3:cad>
          </ns3:TrackPointExtension>
        </extensions>
      </trkpt>
      <trkpt lat="45.2965240739285945892333984375" lon="-70.8279717899858951568603515625">
        <ele>1004.20001220703125</ele>
        <time>2026-08-21T13:46:45.000Z</time>
        <extensions>
          <ns3:TrackPointExtension>
            <ns3:hr>140</ns3:hr>
            <ns3:cad>46</ns3:cad>
          </ns3:TrackPointExtension>
        </extensions>
      </trkpt>
      <trkpt lat="45.2965141832828521728515625" lon="-70.8279888890683650970458984375">
        <ele>1004</ele>
        <time>2026-08-21T13:46:46.000Z</time>
        <extensions>
          <ns3:TrackPointExtension>
            <ns3:hr>139</ns3:hr>
            <ns3:cad>46</ns3:cad>
          </ns3:TrackPointExtension>
        </extensions>
      </trkpt>
      <trkpt lat="45.296504460275173187255859375" lon="-70.82800271920859813690185546875">
        <ele>1003.79998779296875</ele>
        <time>2026-08-21T13:46:47.000Z</time>
        <extensions>
          <ns3:TrackPointExtension>
            <ns3:hr>138</ns3:hr>
            <ns3:cad>46</ns3:cad>
          </ns3:TrackPointExtension>
        </extensions>
      </trkpt>
      <trkpt lat="45.29649532400071620941162109375" lon="-70.82801830954849720001220703125">
        <ele>1003.5999755859375</ele>
        <time>2026-08-21T13:46:48.000Z</time>
        <extensions>
          <ns3:TrackPointExtension>
            <ns3:hr>139</ns3:hr>
            <ns3:cad>46</ns3:cad>
          </ns3:TrackPointExtension>
        </extensions>
      </trkpt>
      <trkpt lat="45.29648845084011554718017578125" lon="-70.828027613461017608642578125">
        <ele>1003.5999755859375</ele>
        <time>2026-08-21T13:46:49.000Z</time>
        <extensions>
          <ns3:TrackPointExtension>
            <ns3:hr>139</ns3:hr>
            <ns3:cad>0</ns3:cad>
          </ns3:TrackPointExtension>
        </extensions>
      </trkpt>
      <trkpt lat="45.296477973461151123046875" lon="-70.8280415274202823638916015625">
        <ele>1003.5999755859375</ele>
        <time>2026-08-21T13:46:50.000Z</time>
        <extensions>
          <ns3:TrackPointExtension>
            <ns3:hr>139</ns3:hr>
            <ns3:cad>0</ns3:cad>
          </ns3:TrackPointExtension>
        </extensions>
      </trkpt>
      <trkpt lat="45.29647286050021648406982421875" lon="-70.828060805797576904296875">
        <ele>1003.79998779296875</ele>
        <time>2026-08-21T13:46:51.000Z</time>
        <extensions>
          <ns3:TrackPointExtension>
            <ns3:hr>138</ns3:hr>
            <ns3:cad>0</ns3:cad>
          </ns3:TrackPointExtension>
        </extensions>
      </trkpt>
      <trkpt lat="45.2964685857295989990234375" lon="-70.8280790783464908599853515625">
        <ele>1003.79998779296875</ele>
        <time>2026-08-21T13:46:52.000Z</time>
        <extensions>
          <ns3:TrackPointExtension>
            <ns3:hr>138</ns3:hr>
            <ns3:cad>0</ns3:cad>
          </ns3:TrackPointExtension>
        </extensions>
      </trkpt>
      <trkpt lat="45.2964747883379459381103515625" lon="-70.82810564897954463958740234375">
        <ele>1004</ele>
        <time>2026-08-21T13:46:53.000Z</time>
        <extensions>
          <ns3:TrackPointExtension>
            <ns3:hr>139</ns3:hr>
            <ns3:cad>0</ns3:cad>
          </ns3:TrackPointExtension>
        </extensions>
      </trkpt>
      <trkpt lat="45.2964845113456249237060546875" lon="-70.8281243406236171722412109375">
        <ele>1004</ele>
        <time>2026-08-21T13:46:54.000Z</time>
        <extensions>
          <ns3:TrackPointExtension>
            <ns3:hr>139</ns3:hr>
            <ns3:cad>0</ns3:cad>
          </ns3:TrackPointExtension>
        </extensions>
      </trkpt>
      <trkpt lat="45.296484343707561492919921875" lon="-70.82813297398388385772705078125">
        <ele>1004.20001220703125</ele>
        <time>2026-08-21T13:46:55.000Z</time>
        <extensions>
          <ns3:TrackPointExtension>
            <ns3:hr>140</ns3:hr>
            <ns3:cad>0</ns3:cad>
          </ns3:TrackPointExtension>
        </extensions>
      </trkpt>
      <trkpt lat="45.29648174531757831573486328125" lon="-70.82814722321927547454833984375">
        <ele>1004.20001220703125</ele>
        <time>2026-08-21T13:46:56.000Z</time>
        <extensions>
          <ns3:TrackPointExtension>
            <ns3:hr>140</ns3:hr>
            <ns3:cad>55</ns3:cad>
          </ns3:TrackPointExtension>
        </extensions>
      </trkpt>
      <trkpt lat="45.29647805728018283843994140625" lon="-70.82815174944698810577392578125">
        <ele>1004.20001220703125</ele>
        <time>2026-08-21T13:46:57.000Z</time>
        <extensions>
          <ns3:TrackPointExtension>
            <ns3:hr>140</ns3:hr>
            <ns3:cad>55</ns3:cad>
          </ns3:TrackPointExtension>
        </extensions>
      </trkpt>
      <trkpt lat="45.29647621326148509979248046875" lon="-70.8281709440052509307861328125">
        <ele>1004.4000244140625</ele>
        <time>2026-08-21T13:46:58.000Z</time>
        <extensions>
          <ns3:TrackPointExtension>
            <ns3:hr>140</ns3:hr>
            <ns3:cad>55</ns3:cad>
          </ns3:TrackPointExtension>
        </extensions>
      </trkpt>
      <trkpt lat="45.29647554270923137664794921875" lon="-70.82818125374615192413330078125">
        <ele>1004.4000244140625</ele>
        <time>2026-08-21T13:46:59.000Z</time>
        <extensions>
          <ns3:TrackPointExtension>
            <ns3:hr>141</ns3:hr>
            <ns3:cad>0</ns3:cad>
          </ns3:TrackPointExtension>
        </extensions>
      </trkpt>
      <trkpt lat="45.2964754588901996612548828125" lon="-70.8281867019832134246826171875">
        <ele>1004.5999755859375</ele>
        <time>2026-08-21T13:47:00.000Z</time>
        <extensions>
          <ns3:TrackPointExtension>
            <ns3:hr>141</ns3:hr>
            <ns3:cad>0</ns3:cad>
          </ns3:TrackPointExtension>
        </extensions>
      </trkpt>
      <trkpt lat="45.2964757941663265228271484375" lon="-70.8281974308192729949951171875">
        <ele>1004.79998779296875</ele>
        <time>2026-08-21T13:47:01.000Z</time>
        <extensions>
          <ns3:TrackPointExtension>
            <ns3:hr>141</ns3:hr>
            <ns3:cad>0</ns3:cad>
          </ns3:TrackPointExtension>
        </extensions>
      </trkpt>
      <trkpt lat="45.29647453688085079193115234375" lon="-70.82821075804531574249267578125">
        <ele>1005</ele>
        <time>2026-08-21T13:47:02.000Z</time>
        <extensions>
          <ns3:TrackPointExtension>
            <ns3:hr>141</ns3:hr>
            <ns3:cad>0</ns3:cad>
          </ns3:TrackPointExtension>
        </extensions>
      </trkpt>
      <trkpt lat="45.29647420160472393035888671875" lon="-70.82821662537753582000732421875">
        <ele>1005.4000244140625</ele>
        <time>2026-08-21T13:47:03.000Z</time>
        <extensions>
          <ns3:TrackPointExtension>
            <ns3:hr>141</ns3:hr>
            <ns3:cad>0</ns3:cad>
          </ns3:TrackPointExtension>
        </extensions>
      </trkpt>
      <trkpt lat="45.29647604562342166900634765625" lon="-70.8282232470810413360595703125">
        <ele>1005.5999755859375</ele>
        <time>2026-08-21T13:47:04.000Z</time>
        <extensions>
          <ns3:TrackPointExtension>
            <ns3:hr>141</ns3:hr>
            <ns3:cad>0</ns3:cad>
          </ns3:TrackPointExtension>
        </extensions>
      </trkpt>
      <trkpt lat="45.2964764647185802459716796875" lon="-70.8282319642603397369384765625">
        <ele>1005.79998779296875</ele>
        <time>2026-08-21T13:47:05.000Z</time>
        <extensions>
          <ns3:TrackPointExtension>
            <ns3:hr>141</ns3:hr>
            <ns3:cad>0</ns3:cad>
          </ns3:TrackPointExtension>
        </extensions>
      </trkpt>
      <trkpt lat="45.29647755436599254608154296875" lon="-70.82823774777352809906005859375">
        <ele>1006.20001220703125</ele>
        <time>2026-08-21T13:47:06.000Z</time>
        <extensions>
          <ns3:TrackPointExtension>
            <ns3:hr>141</ns3:hr>
            <ns3:cad>0</ns3:cad>
          </ns3:TrackPointExtension>
        </extensions>
      </trkpt>
      <trkpt lat="45.2964798174798488616943359375" lon="-70.8282443694770336151123046875">
        <ele>1006.4000244140625</ele>
        <time>2026-08-21T13:47:07.000Z</time>
        <extensions>
          <ns3:TrackPointExtension>
            <ns3:hr>140</ns3:hr>
            <ns3:cad>0</ns3:cad>
          </ns3:TrackPointExtension>
        </extensions>
      </trkpt>
      <trkpt lat="45.296481661498546600341796875" lon="-70.82825325429439544677734375">
        <ele>1006.5999755859375</ele>
        <time>2026-08-21T13:47:08.000Z</time>
        <extensions>
          <ns3:TrackPointExtension>
            <ns3:hr>140</ns3:hr>
            <ns3:cad>0</ns3:cad>
          </ns3:TrackPointExtension>
        </extensions>
      </trkpt>
      <trkpt lat="45.2964831702411174774169921875" lon="-70.828257612884044647216796875">
        <ele>1006.79998779296875</ele>
        <time>2026-08-21T13:47:09.000Z</time>
        <extensions>
          <ns3:TrackPointExtension>
            <ns3:hr>140</ns3:hr>
            <ns3:cad>0</ns3:cad>
          </ns3:TrackPointExtension>
        </extensions>
      </trkpt>
      <trkpt lat="45.2964846789836883544921875" lon="-70.8282849378883838653564453125">
        <ele>1006.79998779296875</ele>
        <time>2026-08-21T13:47:10.000Z</time>
        <extensions>
          <ns3:TrackPointExtension>
            <ns3:hr>140</ns3:hr>
            <ns3:cad>0</ns3:cad>
          </ns3:TrackPointExtension>
        </extensions>
      </trkpt>
      <trkpt lat="45.2964824996888637542724609375" lon="-70.82829843275249004364013671875">
        <ele>1007</ele>
        <time>2026-08-21T13:47:11.000Z</time>
        <extensions>
          <ns3:TrackPointExtension>
            <ns3:hr>140</ns3:hr>
            <ns3:cad>0</ns3:cad>
          </ns3:TrackPointExtension>
        </extensions>
      </trkpt>
      <trkpt lat="45.296481661498546600341796875" lon="-70.82830530591309070587158203125">
        <ele>1007.20001220703125</ele>
        <time>2026-08-21T13:47:12.000Z</time>
        <extensions>
          <ns3:TrackPointExtension>
            <ns3:hr>140</ns3:hr>
            <ns3:cad>0</ns3:cad>
          </ns3:TrackPointExtension>
        </extensions>
      </trkpt>
      <trkpt lat="45.2964858524501323699951171875" lon="-70.828304551541805267333984375">
        <ele>1007.5999755859375</ele>
        <time>2026-08-21T13:47:13.000Z</time>
        <extensions>
          <ns3:TrackPointExtension>
            <ns3:hr>140</ns3:hr>
            <ns3:cad>0</ns3:cad>
          </ns3:TrackPointExtension>
        </extensions>
      </trkpt>
      <trkpt lat="45.29648266732692718505859375" lon="-70.8283090777695178985595703125">
        <ele>1007.79998779296875</ele>
        <time>2026-08-21T13:47:14.000Z</time>
        <extensions>
          <ns3:TrackPointExtension>
            <ns3:hr>140</ns3:hr>
            <ns3:cad>0</ns3:cad>
          </ns3:TrackPointExtension>
        </extensions>
      </trkpt>
      <trkpt lat="45.2964741177856922149658203125" lon="-70.828307569026947021484375">
        <ele>1008.20001220703125</ele>
        <time>2026-08-21T13:47:15.000Z</time>
        <extensions>
          <ns3:TrackPointExtension>
            <ns3:hr>140</ns3:hr>
            <ns3:cad>0</ns3:cad>
          </ns3:TrackPointExtension>
        </extensions>
      </trkpt>
      <trkpt lat="45.29647017829120159149169921875" lon="-70.8283037133514881134033203125">
        <ele>1008.4000244140625</ele>
        <time>2026-08-21T13:47:16.000Z</time>
        <extensions>
          <ns3:TrackPointExtension>
            <ns3:hr>140</ns3:hr>
            <ns3:cad>0</ns3:cad>
          </ns3:TrackPointExtension>
        </extensions>
      </trkpt>
      <trkpt lat="45.29646699316799640655517578125" lon="-70.82829323597252368927001953125">
        <ele>1008.79998779296875</ele>
        <time>2026-08-21T13:47:17.000Z</time>
        <extensions>
          <ns3:TrackPointExtension>
            <ns3:hr>140</ns3:hr>
            <ns3:cad>0</ns3:cad>
          </ns3:TrackPointExtension>
        </extensions>
      </trkpt>
      <trkpt lat="45.29645877890288829803466796875" lon="-70.82828342914581298828125">
        <ele>1009</ele>
        <time>2026-08-21T13:47:18.000Z</time>
        <extensions>
          <ns3:TrackPointExtension>
            <ns3:hr>140</ns3:hr>
            <ns3:cad>0</ns3:cad>
          </ns3:TrackPointExtension>
        </extensions>
      </trkpt>
      <trkpt lat="45.2964489720761775970458984375" lon="-70.8282822556793689727783203125">
        <ele>1009.20001220703125</ele>
        <time>2026-08-21T13:47:19.000Z</time>
        <extensions>
          <ns3:TrackPointExtension>
            <ns3:hr>140</ns3:hr>
            <ns3:cad>0</ns3:cad>
          </ns3:TrackPointExtension>
        </extensions>
      </trkpt>
      <trkpt lat="45.29643966816365718841552734375" lon="-70.82827999256551265716552734375">
        <ele>1009.4000244140625</ele>
        <time>2026-08-21T13:47:20.000Z</time>
        <extensions>
          <ns3:TrackPointExtension>
            <ns3:hr>141</ns3:hr>
            <ns3:cad>0</ns3:cad>
          </ns3:TrackPointExtension>
        </extensions>
      </trkpt>
      <trkpt lat="45.2964325435459613800048828125" lon="-70.82827747799456119537353515625">
        <ele>1009.5999755859375</ele>
        <time>2026-08-21T13:47:21.000Z</time>
        <extensions>
          <ns3:TrackPointExtension>
            <ns3:hr>141</ns3:hr>
            <ns3:cad>0</ns3:cad>
          </ns3:TrackPointExtension>
        </extensions>
      </trkpt>
      <trkpt lat="45.29641829431056976318359375" lon="-70.82827881909906864166259765625">
        <ele>1009.79998779296875</ele>
        <time>2026-08-21T13:47:22.000Z</time>
        <extensions>
          <ns3:TrackPointExtension>
            <ns3:hr>142</ns3:hr>
            <ns3:cad>0</ns3:cad>
          </ns3:TrackPointExtension>
        </extensions>
      </trkpt>
      <trkpt lat="45.2964090742170810699462890625" lon="-70.82828686572611331939697265625">
        <ele>1010</ele>
        <time>2026-08-21T13:47:23.000Z</time>
        <extensions>
          <ns3:TrackPointExtension>
            <ns3:hr>142</ns3:hr>
            <ns3:cad>40</ns3:cad>
          </ns3:TrackPointExtension>
        </extensions>
      </trkpt>
      <trkpt lat="45.29640429653227329254150390625" lon="-70.82829357124865055084228515625">
        <ele>1010</ele>
        <time>2026-08-21T13:47:24.000Z</time>
        <extensions>
          <ns3:TrackPointExtension>
            <ns3:hr>142</ns3:hr>
            <ns3:cad>40</ns3:cad>
          </ns3:TrackPointExtension>
        </extensions>
      </trkpt>
      <trkpt lat="45.2964040450751781463623046875" lon="-70.82829658873379230499267578125">
        <ele>1010.20001220703125</ele>
        <time>2026-08-21T13:47:25.000Z</time>
        <extensions>
          <ns3:TrackPointExtension>
            <ns3:hr>144</ns3:hr>
            <ns3:cad>0</ns3:cad>
          </ns3:TrackPointExtension>
        </extensions>
      </trkpt>
      <trkpt lat="45.29640463180840015411376953125" lon="-70.8282983489334583282470703125">
        <ele>1010.4000244140625</ele>
        <time>2026-08-21T13:47:26.000Z</time>
        <extensions>
          <ns3:TrackPointExtension>
            <ns3:hr>144</ns3:hr>
            <ns3:cad>0</ns3:cad>
          </ns3:TrackPointExtension>
        </extensions>
      </trkpt>
      <trkpt lat="45.2964015305042266845703125" lon="-70.82830245606601238250732421875">
        <ele>1010.4000244140625</ele>
        <time>2026-08-21T13:47:27.000Z</time>
        <extensions>
          <ns3:TrackPointExtension>
            <ns3:hr>145</ns3:hr>
            <ns3:cad>0</ns3:cad>
          </ns3:TrackPointExtension>
        </extensions>
      </trkpt>
      <trkpt lat="45.2964016981422901153564453125" lon="-70.8283043839037418365478515625">
        <ele>1010.5999755859375</ele>
        <time>2026-08-21T13:47:28.000Z</time>
        <extensions>
          <ns3:TrackPointExtension>
            <ns3:hr>146</ns3:hr>
            <ns3:cad>71</ns3:cad>
          </ns3:TrackPointExtension>
        </extensions>
      </trkpt>
      <trkpt lat="45.296400524675846099853515625" lon="-70.828307233750820159912109375">
        <ele>1011</ele>
        <time>2026-08-21T13:47:29.000Z</time>
        <extensions>
          <ns3:TrackPointExtension>
            <ns3:hr>146</ns3:hr>
            <ns3:cad>71</ns3:cad>
          </ns3:TrackPointExtension>
        </extensions>
      </trkpt>
      <trkpt lat="45.29639407061040401458740234375" lon="-70.82831586711108684539794921875">
        <ele>1011.20001220703125</ele>
        <time>2026-08-21T13:47:30.000Z</time>
        <extensions>
          <ns3:TrackPointExtension>
            <ns3:hr>146</ns3:hr>
            <ns3:cad>71</ns3:cad>
          </ns3:TrackPointExtension>
        </extensions>
      </trkpt>
      <trkpt lat="45.29639004729688167572021484375" lon="-70.828323327004909515380859375">
        <ele>1011.4000244140625</ele>
        <time>2026-08-21T13:47:31.000Z</time>
        <extensions>
          <ns3:TrackPointExtension>
            <ns3:hr>146</ns3:hr>
            <ns3:cad>71</ns3:cad>
          </ns3:TrackPointExtension>
        </extensions>
      </trkpt>
      <trkpt lat="45.29638619162142276763916015625" lon="-70.8283342234790325164794921875">
        <ele>1011.79998779296875</ele>
        <time>2026-08-21T13:47:32.000Z</time>
        <extensions>
          <ns3:TrackPointExtension>
            <ns3:hr>146</ns3:hr>
            <ns3:cad>0</ns3:cad>
          </ns3:TrackPointExtension>
        </extensions>
      </trkpt>
      <trkpt lat="45.29638200066983699798583984375" lon="-70.82834352739155292510986328125">
        <ele>1012</ele>
        <time>2026-08-21T13:47:33.000Z</time>
        <extensions>
          <ns3:TrackPointExtension>
            <ns3:hr>146</ns3:hr>
            <ns3:cad>0</ns3:cad>
          </ns3:TrackPointExtension>
        </extensions>
      </trkpt>
      <trkpt lat="45.296381078660488128662109375" lon="-70.82835375331342220306396484375">
        <ele>1012.4000244140625</ele>
        <time>2026-08-21T13:47:34.000Z</time>
        <extensions>
          <ns3:TrackPointExtension>
            <ns3:hr>146</ns3:hr>
            <ns3:cad>0</ns3:cad>
          </ns3:TrackPointExtension>
        </extensions>
      </trkpt>
      <trkpt lat="45.296382419764995574951171875" lon="-70.82836322486400604248046875">
        <ele>1012.5999755859375</ele>
        <time>2026-08-21T13:47:35.000Z</time>
        <extensions>
          <ns3:TrackPointExtension>
            <ns3:hr>146</ns3:hr>
            <ns3:cad>0</ns3:cad>
          </ns3:TrackPointExtension>
        </extensions>
      </trkpt>
      <trkpt lat="45.2963778935372829437255859375" lon="-70.82838024012744426727294921875">
        <ele>1012.79998779296875</ele>
        <time>2026-08-21T13:47:36.000Z</time>
        <extensions>
          <ns3:TrackPointExtension>
            <ns3:hr>146</ns3:hr>
            <ns3:cad>0</ns3:cad>
          </ns3:TrackPointExtension>
        </extensions>
      </trkpt>
      <trkpt lat="45.296378396451473236083984375" lon="-70.82838996313512325286865234375">
        <ele>1013</ele>
        <time>2026-08-21T13:47:37.000Z</time>
        <extensions>
          <ns3:TrackPointExtension>
            <ns3:hr>146</ns3:hr>
            <ns3:cad>0</ns3:cad>
          </ns3:TrackPointExtension>
        </extensions>
      </trkpt>
      <trkpt lat="45.2963825874030590057373046875" lon="-70.82840588875114917755126953125">
        <ele>1013.20001220703125</ele>
        <time>2026-08-21T13:47:38.000Z</time>
        <extensions>
          <ns3:TrackPointExtension>
            <ns3:hr>146</ns3:hr>
            <ns3:cad>0</ns3:cad>
          </ns3:TrackPointExtension>
        </extensions>
      </trkpt>
      <trkpt lat="45.29638820327818393707275390625" lon="-70.82841762341558933258056640625">
        <ele>1013.20001220703125</ele>
        <time>2026-08-21T13:47:39.000Z</time>
        <extensions>
          <ns3:TrackPointExtension>
            <ns3:hr>146</ns3:hr>
            <ns3:cad>0</ns3:cad>
          </ns3:TrackPointExtension>
        </extensions>
      </trkpt>
      <trkpt lat="45.2963892929255962371826171875" lon="-70.8284230716526508331298828125">
        <ele>1013.4000244140625</ele>
        <time>2026-08-21T13:47:40.000Z</time>
        <extensions>
          <ns3:TrackPointExtension>
            <ns3:hr>146</ns3:hr>
            <ns3:cad>0</ns3:cad>
          </ns3:TrackPointExtension>
        </extensions>
      </trkpt>
      <trkpt lat="45.29639138840138912200927734375" lon="-70.82843204028904438018798828125">
        <ele>1013.5999755859375</ele>
        <time>2026-08-21T13:47:41.000Z</time>
        <extensions>
          <ns3:TrackPointExtension>
            <ns3:hr>146</ns3:hr>
            <ns3:cad>0</ns3:cad>
          </ns3:TrackPointExtension>
        </extensions>
      </trkpt>
      <trkpt lat="45.296393819153308868408203125" lon="-70.8284405060112476348876953125">
        <ele>1013.5999755859375</ele>
        <time>2026-08-21T13:47:42.000Z</time>
        <extensions>
          <ns3:TrackPointExtension>
            <ns3:hr>146</ns3:hr>
            <ns3:cad>0</ns3:cad>
          </ns3:TrackPointExtension>
        </extensions>
      </trkpt>
      <trkpt lat="45.29639415442943572998046875" lon="-70.82844980992376804351806640625">
        <ele>1013.79998779296875</ele>
        <time>2026-08-21T13:47:43.000Z</time>
        <extensions>
          <ns3:TrackPointExtension>
            <ns3:hr>146</ns3:hr>
            <ns3:cad>0</ns3:cad>
          </ns3:TrackPointExtension>
        </extensions>
      </trkpt>
      <trkpt lat="45.2963902987539768218994140625" lon="-70.82845986820757389068603515625">
        <ele>1014</ele>
        <time>2026-08-21T13:47:44.000Z</time>
        <extensions>
          <ns3:TrackPointExtension>
            <ns3:hr>147</ns3:hr>
            <ns3:cad>0</ns3:cad>
          </ns3:TrackPointExtension>
        </extensions>
      </trkpt>
      <trkpt lat="45.29638417996466159820556640625" lon="-70.82846581935882568359375">
        <ele>1014.20001220703125</ele>
        <time>2026-08-21T13:47:45.000Z</time>
        <extensions>
          <ns3:TrackPointExtension>
            <ns3:hr>147</ns3:hr>
            <ns3:cad>0</ns3:cad>
          </ns3:TrackPointExtension>
        </extensions>
      </trkpt>
      <trkpt lat="45.29637814499437808990478515625" lon="-70.828463137149810791015625">
        <ele>1014.5999755859375</ele>
        <time>2026-08-21T13:47:46.000Z</time>
        <extensions>
          <ns3:TrackPointExtension>
            <ns3:hr>148</ns3:hr>
            <ns3:cad>0</ns3:cad>
          </ns3:TrackPointExtension>
        </extensions>
      </trkpt>
      <trkpt lat="45.296369679272174835205078125" lon="-70.82846380770206451416015625">
        <ele>1014.79998779296875</ele>
        <time>2026-08-21T13:47:47.000Z</time>
        <extensions>
          <ns3:TrackPointExtension>
            <ns3:hr>149</ns3:hr>
            <ns3:cad>0</ns3:cad>
          </ns3:TrackPointExtension>
        </extensions>
      </trkpt>
      <trkpt lat="45.29636372812092304229736328125" lon="-70.82846858538687229156494140625">
        <ele>1015</ele>
        <time>2026-08-21T13:47:48.000Z</time>
        <extensions>
          <ns3:TrackPointExtension>
            <ns3:hr>149</ns3:hr>
            <ns3:cad>0</ns3:cad>
          </ns3:TrackPointExtension>
        </extensions>
      </trkpt>
      <trkpt lat="45.296358950436115264892578125" lon="-70.828469507396221160888671875">
        <ele>1015.20001220703125</ele>
        <time>2026-08-21T13:47:49.000Z</time>
        <extensions>
          <ns3:TrackPointExtension>
            <ns3:hr>150</ns3:hr>
            <ns3:cad>0</ns3:cad>
          </ns3:TrackPointExtension>
        </extensions>
      </trkpt>
      <trkpt lat="45.29635584913194179534912109375" lon="-70.8284750394523143768310546875">
        <ele>1015.4000244140625</ele>
        <time>2026-08-21T13:47:50.000Z</time>
        <extensions>
          <ns3:TrackPointExtension>
            <ns3:hr>150</ns3:hr>
            <ns3:cad>0</ns3:cad>
          </ns3:TrackPointExtension>
        </extensions>
      </trkpt>
      <trkpt lat="45.29635216109454631805419921875" lon="-70.8284763805568218231201171875">
        <ele>1015.5999755859375</ele>
        <time>2026-08-21T13:47:51.000Z</time>
        <extensions>
          <ns3:TrackPointExtension>
            <ns3:hr>150</ns3:hr>
            <ns3:cad>0</ns3:cad>
          </ns3:TrackPointExtension>
        </extensions>
      </trkpt>
      <trkpt lat="45.29634176753461360931396484375" lon="-70.82847797311842441558837890625">
        <ele>1015.5999755859375</ele>
        <time>2026-08-21T13:47:52.000Z</time>
        <extensions>
          <ns3:TrackPointExtension>
            <ns3:hr>150</ns3:hr>
            <ns3:cad>0</ns3:cad>
          </ns3:TrackPointExtension>
        </extensions>
      </trkpt>
      <trkpt lat="45.29633221216499805450439453125" lon="-70.82848400808870792388916015625">
        <ele>1015.79998779296875</ele>
        <time>2026-08-21T13:47:53.000Z</time>
        <extensions>
          <ns3:TrackPointExtension>
            <ns3:hr>150</ns3:hr>
            <ns3:cad>0</ns3:cad>
          </ns3:TrackPointExtension>
        </extensions>
      </trkpt>
      <trkpt lat="45.29632441699504852294921875" lon="-70.82850135862827301025390625">
        <ele>1016</ele>
        <time>2026-08-21T13:47:54.000Z</time>
        <extensions>
          <ns3:TrackPointExtension>
            <ns3:hr>151</ns3:hr>
            <ns3:cad>0</ns3:cad>
          </ns3:TrackPointExtension>
        </extensions>
      </trkpt>
      <trkpt lat="45.29631796292960643768310546875" lon="-70.8285156078636646270751953125">
        <ele>1016.20001220703125</ele>
        <time>2026-08-21T13:47:55.000Z</time>
        <extensions>
          <ns3:TrackPointExtension>
            <ns3:hr>150</ns3:hr>
            <ns3:cad>0</ns3:cad>
          </ns3:TrackPointExtension>
        </extensions>
      </trkpt>
      <trkpt lat="45.29631125740706920623779296875" lon="-70.82852910272777080535888671875">
        <ele>1016.20001220703125</ele>
        <time>2026-08-21T13:47:56.000Z</time>
        <extensions>
          <ns3:TrackPointExtension>
            <ns3:hr>150</ns3:hr>
            <ns3:cad>0</ns3:cad>
          </ns3:TrackPointExtension>
        </extensions>
      </trkpt>
      <trkpt lat="45.29631368815898895263671875" lon="-70.8285337127745151519775390625">
        <ele>1016.4000244140625</ele>
        <time>2026-08-21T13:47:57.000Z</time>
        <extensions>
          <ns3:TrackPointExtension>
            <ns3:hr>150</ns3:hr>
            <ns3:cad>0</ns3:cad>
          </ns3:TrackPointExtension>
        </extensions>
      </trkpt>
      <trkpt lat="45.29631058685481548309326171875" lon="-70.82854217849671840667724609375">
        <ele>1016.5999755859375</ele>
        <time>2026-08-21T13:47:58.000Z</time>
        <extensions>
          <ns3:TrackPointExtension>
            <ns3:hr>151</ns3:hr>
            <ns3:cad>0</ns3:cad>
          </ns3:TrackPointExtension>
        </extensions>
      </trkpt>
      <trkpt lat="45.29630698263645172119140625" lon="-70.82855441607534885406494140625">
        <ele>1016.79998779296875</ele>
        <time>2026-08-21T13:47:59.000Z</time>
        <extensions>
          <ns3:TrackPointExtension>
            <ns3:hr>150</ns3:hr>
            <ns3:cad>0</ns3:cad>
          </ns3:TrackPointExtension>
        </extensions>
      </trkpt>
      <trkpt lat="45.2963031269609928131103515625" lon="-70.82856866531074047088623046875">
        <ele>1016.79998779296875</ele>
        <time>2026-08-21T13:48:00.000Z</time>
        <extensions>
          <ns3:TrackPointExtension>
            <ns3:hr>150</ns3:hr>
            <ns3:cad>0</ns3:cad>
          </ns3:TrackPointExtension>
        </extensions>
      </trkpt>
      <trkpt lat="45.2963001094758510589599609375" lon="-70.82858853042125701904296875">
        <ele>1017</ele>
        <time>2026-08-21T13:48:01.000Z</time>
        <extensions>
          <ns3:TrackPointExtension>
            <ns3:hr>151</ns3:hr>
            <ns3:cad>0</ns3:cad>
          </ns3:TrackPointExtension>
        </extensions>
      </trkpt>
      <trkpt lat="45.29629985801875591278076171875" lon="-70.82859364338219165802001953125">
        <ele>1017.20001220703125</ele>
        <time>2026-08-21T13:48:02.000Z</time>
        <extensions>
          <ns3:TrackPointExtension>
            <ns3:hr>151</ns3:hr>
            <ns3:cad>0</ns3:cad>
          </ns3:TrackPointExtension>
        </extensions>
      </trkpt>
      <trkpt lat="45.2962967567145824432373046875" lon="-70.828617028892040252685546875">
        <ele>1017.4000244140625</ele>
        <time>2026-08-21T13:48:03.000Z</time>
        <extensions>
          <ns3:TrackPointExtension>
            <ns3:hr>152</ns3:hr>
            <ns3:cad>0</ns3:cad>
          </ns3:TrackPointExtension>
        </extensions>
      </trkpt>
      <trkpt lat="45.29629566706717014312744140625" lon="-70.82863454706966876983642578125">
        <ele>1017.5999755859375</ele>
        <time>2026-08-21T13:48:04.000Z</time>
        <extensions>
          <ns3:TrackPointExtension>
            <ns3:hr>152</ns3:hr>
            <ns3:cad>0</ns3:cad>
          </ns3:TrackPointExtension>
        </extensions>
      </trkpt>
      <trkpt lat="45.29629063792526721954345703125" lon="-70.8286420069634914398193359375">
        <ele>1017.79998779296875</ele>
        <time>2026-08-21T13:48:05.000Z</time>
        <extensions>
          <ns3:TrackPointExtension>
            <ns3:hr>152</ns3:hr>
            <ns3:cad>0</ns3:cad>
          </ns3:TrackPointExtension>
        </extensions>
      </trkpt>
      <trkpt lat="45.29629063792526721954345703125" lon="-70.82865533418953418731689453125">
        <ele>1018</ele>
        <time>2026-08-21T13:48:06.000Z</time>
        <extensions>
          <ns3:TrackPointExtension>
            <ns3:hr>151</ns3:hr>
            <ns3:cad>0</ns3:cad>
          </ns3:TrackPointExtension>
        </extensions>
      </trkpt>
      <trkpt lat="45.2962940745055675506591796875" lon="-70.828666649758815765380859375">
        <ele>1018.20001220703125</ele>
        <time>2026-08-21T13:48:07.000Z</time>
        <extensions>
          <ns3:TrackPointExtension>
            <ns3:hr>152</ns3:hr>
            <ns3:cad>0</ns3:cad>
          </ns3:TrackPointExtension>
        </extensions>
      </trkpt>
      <trkpt lat="45.29629633761942386627197265625" lon="-70.82866631448268890380859375">
        <ele>1018.20001220703125</ele>
        <time>2026-08-21T13:48:08.000Z</time>
        <extensions>
          <ns3:TrackPointExtension>
            <ns3:hr>152</ns3:hr>
            <ns3:cad>0</ns3:cad>
          </ns3:TrackPointExtension>
        </extensions>
      </trkpt>
      <trkpt lat="45.29629348777234554290771484375" lon="-70.828674025833606719970703125">
        <ele>1018.4000244140625</ele>
        <time>2026-08-21T13:48:09.000Z</time>
        <extensions>
          <ns3:TrackPointExtension>
            <ns3:hr>152</ns3:hr>
            <ns3:cad>0</ns3:cad>
          </ns3:TrackPointExtension>
        </extensions>
      </trkpt>
      <trkpt lat="45.29629784636199474334716796875" lon="-70.82868098281323909759521484375">
        <ele>1018.5999755859375</ele>
        <time>2026-08-21T13:48:10.000Z</time>
        <extensions>
          <ns3:TrackPointExtension>
            <ns3:hr>152</ns3:hr>
            <ns3:cad>0</ns3:cad>
          </ns3:TrackPointExtension>
        </extensions>
      </trkpt>
      <trkpt lat="45.29629834927618503570556640625" lon="-70.82867033779621124267578125">
        <ele>1018.79998779296875</ele>
        <time>2026-08-21T13:48:11.000Z</time>
        <extensions>
          <ns3:TrackPointExtension>
            <ns3:hr>152</ns3:hr>
            <ns3:cad>0</ns3:cad>
          </ns3:TrackPointExtension>
        </extensions>
      </trkpt>
      <trkpt lat="45.29629885219037532806396484375" lon="-70.82867545075714588165283203125">
        <ele>1019</ele>
        <time>2026-08-21T13:48:12.000Z</time>
        <extensions>
          <ns3:TrackPointExtension>
            <ns3:hr>152</ns3:hr>
            <ns3:cad>0</ns3:cad>
          </ns3:TrackPointExtension>
        </extensions>
      </trkpt>
      <trkpt lat="45.296302624046802520751953125" lon="-70.8286819048225879669189453125">
        <ele>1019.4000244140625</ele>
        <time>2026-08-21T13:48:13.000Z</time>
        <extensions>
          <ns3:TrackPointExtension>
            <ns3:hr>152</ns3:hr>
            <ns3:cad>0</ns3:cad>
          </ns3:TrackPointExtension>
        </extensions>
      </trkpt>
      <trkpt lat="45.29631142504513263702392578125" lon="-70.8287023566663265228271484375">
        <ele>1019.5999755859375</ele>
        <time>2026-08-21T13:48:14.000Z</time>
        <extensions>
          <ns3:TrackPointExtension>
            <ns3:hr>152</ns3:hr>
            <ns3:cad>0</ns3:cad>
          </ns3:TrackPointExtension>
        </extensions>
      </trkpt>
      <trkpt lat="45.296313352882862091064453125" lon="-70.8287058770656585693359375">
        <ele>1020</ele>
        <time>2026-08-21T13:48:15.000Z</time>
        <extensions>
          <ns3:TrackPointExtension>
            <ns3:hr>153</ns3:hr>
            <ns3:cad>0</ns3:cad>
          </ns3:TrackPointExtension>
        </extensions>
      </trkpt>
      <trkpt lat="45.29631628654897212982177734375" lon="-70.82871534861624240875244140625">
        <ele>1020</ele>
        <time>2026-08-21T13:48:16.000Z</time>
        <extensions>
          <ns3:TrackPointExtension>
            <ns3:hr>152</ns3:hr>
            <ns3:cad>0</ns3:cad>
          </ns3:TrackPointExtension>
        </extensions>
      </trkpt>
      <trkpt lat="45.2963103353977203369140625" lon="-70.82873010076582431793212890625">
        <ele>1020.20001220703125</ele>
        <time>2026-08-21T13:48:17.000Z</time>
        <extensions>
          <ns3:TrackPointExtension>
            <ns3:hr>152</ns3:hr>
            <ns3:cad>0</ns3:cad>
          </ns3:TrackPointExtension>
        </extensions>
      </trkpt>
      <trkpt lat="45.29630823992192745208740234375" lon="-70.82875088788568973541259765625">
        <ele>1020.4000244140625</ele>
        <time>2026-08-21T13:48:18.000Z</time>
        <extensions>
          <ns3:TrackPointExtension>
            <ns3:hr>152</ns3:hr>
            <ns3:cad>0</ns3:cad>
          </ns3:TrackPointExtension>
        </extensions>
      </trkpt>
      <trkpt lat="45.29630354605615139007568359375" lon="-70.8287660591304302215576171875">
        <ele>1020.4000244140625</ele>
        <time>2026-08-21T13:48:19.000Z</time>
        <extensions>
          <ns3:TrackPointExtension>
            <ns3:hr>152</ns3:hr>
            <ns3:cad>54</ns3:cad>
          </ns3:TrackPointExtension>
        </extensions>
      </trkpt>
      <trkpt lat="45.2963041327893733978271484375" lon="-70.828780643641948699951171875">
        <ele>1020.5999755859375</ele>
        <time>2026-08-21T13:48:20.000Z</time>
        <extensions>
          <ns3:TrackPointExtension>
            <ns3:hr>152</ns3:hr>
            <ns3:cad>54</ns3:cad>
          </ns3:TrackPointExtension>
        </extensions>
      </trkpt>
      <trkpt lat="45.296298600733280181884765625" lon="-70.8288036100566387176513671875">
        <ele>1020.79998779296875</ele>
        <time>2026-08-21T13:48:21.000Z</time>
        <extensions>
          <ns3:TrackPointExtension>
            <ns3:hr>152</ns3:hr>
            <ns3:cad>41</ns3:cad>
          </ns3:TrackPointExtension>
        </extensions>
      </trkpt>
      <trkpt lat="45.29630027711391448974609375" lon="-70.828819535672664642333984375">
        <ele>1020.79998779296875</ele>
        <time>2026-08-21T13:48:22.000Z</time>
        <extensions>
          <ns3:TrackPointExtension>
            <ns3:hr>151</ns3:hr>
            <ns3:cad>41</ns3:cad>
          </ns3:TrackPointExtension>
        </extensions>
      </trkpt>
      <trkpt lat="45.296302624046802520751953125" lon="-70.82883403636515140533447265625">
        <ele>1020.79998779296875</ele>
        <time>2026-08-21T13:48:23.000Z</time>
        <extensions>
          <ns3:TrackPointExtension>
            <ns3:hr>151</ns3:hr>
            <ns3:cad>41</ns3:cad>
          </ns3:TrackPointExtension>
        </extensions>
      </trkpt>
      <trkpt lat="45.29630404897034168243408203125" lon="-70.82884225063025951385498046875">
        <ele>1020.79998779296875</ele>
        <time>2026-08-21T13:48:24.000Z</time>
        <extensions>
          <ns3:TrackPointExtension>
            <ns3:hr>151</ns3:hr>
            <ns3:cad>41</ns3:cad>
          </ns3:TrackPointExtension>
        </extensions>
      </trkpt>
      <trkpt lat="45.2963041327893733978271484375" lon="-70.8288612775504589080810546875">
        <ele>1020.79998779296875</ele>
        <time>2026-08-21T13:48:25.000Z</time>
        <extensions>
          <ns3:TrackPointExtension>
            <ns3:hr>152</ns3:hr>
            <ns3:cad>41</ns3:cad>
          </ns3:TrackPointExtension>
        </extensions>
      </trkpt>
      <trkpt lat="45.2963058091700077056884765625" lon="-70.82887561060488224029541015625">
        <ele>1020.79998779296875</ele>
        <time>2026-08-21T13:48:26.000Z</time>
        <extensions>
          <ns3:TrackPointExtension>
            <ns3:hr>152</ns3:hr>
            <ns3:cad>41</ns3:cad>
          </ns3:TrackPointExtension>
        </extensions>
      </trkpt>
      <trkpt lat="45.2963074855506420135498046875" lon="-70.8288884349167346954345703125">
        <ele>1021</ele>
        <time>2026-08-21T13:48:27.000Z</time>
        <extensions>
          <ns3:TrackPointExtension>
            <ns3:hr>152</ns3:hr>
            <ns3:cad>41</ns3:cad>
          </ns3:TrackPointExtension>
        </extensions>
      </trkpt>
      <trkpt lat="45.29630891047418117523193359375" lon="-70.82890025340020656585693359375">
        <ele>1021</ele>
        <time>2026-08-21T13:48:28.000Z</time>
        <extensions>
          <ns3:TrackPointExtension>
            <ns3:hr>153</ns3:hr>
            <ns3:cad>41</ns3:cad>
          </ns3:TrackPointExtension>
        </extensions>
      </trkpt>
      <trkpt lat="45.2963088266551494598388671875" lon="-70.82890570163726806640625">
        <ele>1021.20001220703125</ele>
        <time>2026-08-21T13:48:29.000Z</time>
        <extensions>
          <ns3:TrackPointExtension>
            <ns3:hr>153</ns3:hr>
            <ns3:cad>41</ns3:cad>
          </ns3:TrackPointExtension>
        </extensions>
      </trkpt>
      <trkpt lat="45.2963091619312763214111328125" lon="-70.82891710102558135986328125">
        <ele>1021.5999755859375</ele>
        <time>2026-08-21T13:48:30.000Z</time>
        <extensions>
          <ns3:TrackPointExtension>
            <ns3:hr>153</ns3:hr>
            <ns3:cad>41</ns3:cad>
          </ns3:TrackPointExtension>
        </extensions>
      </trkpt>
      <trkpt lat="45.29630773700773715972900390625" lon="-70.82893260754644870758056640625">
        <ele>1021.79998779296875</ele>
        <time>2026-08-21T13:48:31.000Z</time>
        <extensions>
          <ns3:TrackPointExtension>
            <ns3:hr>152</ns3:hr>
            <ns3:cad>0</ns3:cad>
          </ns3:TrackPointExtension>
        </extensions>
      </trkpt>
      <trkpt lat="45.29630840755999088287353515625" lon="-70.8289365470409393310546875">
        <ele>1022</ele>
        <time>2026-08-21T13:48:32.000Z</time>
        <extensions>
          <ns3:TrackPointExtension>
            <ns3:hr>152</ns3:hr>
            <ns3:cad>0</ns3:cad>
          </ns3:TrackPointExtension>
        </extensions>
      </trkpt>
      <trkpt lat="45.29630958102643489837646484375" lon="-70.82894652150571346282958984375">
        <ele>1022.4000244140625</ele>
        <time>2026-08-21T13:48:33.000Z</time>
        <extensions>
          <ns3:TrackPointExtension>
            <ns3:hr>152</ns3:hr>
            <ns3:cad>0</ns3:cad>
          </ns3:TrackPointExtension>
        </extensions>
      </trkpt>
      <trkpt lat="45.29630430042743682861328125" lon="-70.82895356230437755584716796875">
        <ele>1022.5999755859375</ele>
        <time>2026-08-21T13:48:34.000Z</time>
        <extensions>
          <ns3:TrackPointExtension>
            <ns3:hr>151</ns3:hr>
            <ns3:cad>0</ns3:cad>
          </ns3:TrackPointExtension>
        </extensions>
      </trkpt>
      <trkpt lat="45.2962984330952167510986328125" lon="-70.82897317595779895782470703125">
        <ele>1022.79998779296875</ele>
        <time>2026-08-21T13:48:35.000Z</time>
        <extensions>
          <ns3:TrackPointExtension>
            <ns3:hr>152</ns3:hr>
            <ns3:cad>0</ns3:cad>
          </ns3:TrackPointExtension>
        </extensions>
      </trkpt>
      <trkpt lat="45.2962947450578212738037109375" lon="-70.82899220287799835205078125">
        <ele>1023</ele>
        <time>2026-08-21T13:48:36.000Z</time>
        <extensions>
          <ns3:TrackPointExtension>
            <ns3:hr>152</ns3:hr>
            <ns3:cad>0</ns3:cad>
          </ns3:TrackPointExtension>
        </extensions>
      </trkpt>
      <trkpt lat="45.2962937392294406890869140625" lon="-70.82900301553308963775634765625">
        <ele>1023.20001220703125</ele>
        <time>2026-08-21T13:48:37.000Z</time>
        <extensions>
          <ns3:TrackPointExtension>
            <ns3:hr>152</ns3:hr>
            <ns3:cad>0</ns3:cad>
          </ns3:TrackPointExtension>
        </extensions>
      </trkpt>
      <trkpt lat="45.29629223048686981201171875" lon="-70.82901726476848125457763671875">
        <ele>1023.5999755859375</ele>
        <time>2026-08-21T13:48:38.000Z</time>
        <extensions>
          <ns3:TrackPointExtension>
            <ns3:hr>151</ns3:hr>
            <ns3:cad>47</ns3:cad>
          </ns3:TrackPointExtension>
        </extensions>
      </trkpt>
      <trkpt lat="45.2962850220501422882080078125" lon="-70.8290292508900165557861328125">
        <ele>1023.79998779296875</ele>
        <time>2026-08-21T13:48:39.000Z</time>
        <extensions>
          <ns3:TrackPointExtension>
            <ns3:hr>151</ns3:hr>
            <ns3:cad>47</ns3:cad>
          </ns3:TrackPointExtension>
        </extensions>
      </trkpt>
      <trkpt lat="45.29628946445882320404052734375" lon="-70.82904894836246967315673828125">
        <ele>1023.79998779296875</ele>
        <time>2026-08-21T13:48:40.000Z</time>
        <extensions>
          <ns3:TrackPointExtension>
            <ns3:hr>152</ns3:hr>
            <ns3:cad>47</ns3:cad>
          </ns3:TrackPointExtension>
        </extensions>
      </trkpt>
      <trkpt lat="45.29628661461174488067626953125" lon="-70.829063616693019866943359375">
        <ele>1024</ele>
        <time>2026-08-21T13:48:41.000Z</time>
        <extensions>
          <ns3:TrackPointExtension>
            <ns3:hr>153</ns3:hr>
            <ns3:cad>47</ns3:cad>
          </ns3:TrackPointExtension>
        </extensions>
      </trkpt>
      <trkpt lat="45.29628041200339794158935546875" lon="-70.8290782012045383453369140625">
        <ele>1024.199951171875</ele>
        <time>2026-08-21T13:48:42.000Z</time>
        <extensions>
          <ns3:TrackPointExtension>
            <ns3:hr>153</ns3:hr>
            <ns3:cad>47</ns3:cad>
          </ns3:TrackPointExtension>
        </extensions>
      </trkpt>
      <trkpt lat="45.296275131404399871826171875" lon="-70.82908876240253448486328125">
        <ele>1024.4000244140625</ele>
        <time>2026-08-21T13:48:43.000Z</time>
        <extensions>
          <ns3:TrackPointExtension>
            <ns3:hr>153</ns3:hr>
            <ns3:cad>47</ns3:cad>
          </ns3:TrackPointExtension>
        </extensions>
      </trkpt>
      <trkpt lat="45.296267084777355194091796875" lon="-70.829101838171482086181640625">
        <ele>1024.5999755859375</ele>
        <time>2026-08-21T13:48:44.000Z</time>
        <extensions>
          <ns3:TrackPointExtension>
            <ns3:hr>153</ns3:hr>
            <ns3:cad>47</ns3:cad>
          </ns3:TrackPointExtension>
        </extensions>
      </trkpt>
      <trkpt lat="45.296263732016086578369140625" lon="-70.82911290228366851806640625">
        <ele>1024.5999755859375</ele>
        <time>2026-08-21T13:48:45.000Z</time>
        <extensions>
          <ns3:TrackPointExtension>
            <ns3:hr>152</ns3:hr>
            <ns3:cad>50</ns3:cad>
          </ns3:TrackPointExtension>
        </extensions>
      </trkpt>
      <trkpt lat="45.29625845141708850860595703125" lon="-70.82912472076714038848876953125">
        <ele>1024.800048828125</ele>
        <time>2026-08-21T13:48:46.000Z</time>
        <extensions>
          <ns3:TrackPointExtension>
            <ns3:hr>153</ns3:hr>
            <ns3:cad>48</ns3:cad>
          </ns3:TrackPointExtension>
        </extensions>
      </trkpt>
      <trkpt lat="45.296250991523265838623046875" lon="-70.82913444377481937408447265625">
        <ele>1024.800048828125</ele>
        <time>2026-08-21T13:48:47.000Z</time>
        <extensions>
          <ns3:TrackPointExtension>
            <ns3:hr>153</ns3:hr>
            <ns3:cad>48</ns3:cad>
          </ns3:TrackPointExtension>
        </extensions>
      </trkpt>
      <trkpt lat="45.29624462127685546875" lon="-70.82914969883859157562255859375">
        <ele>1024.800048828125</ele>
        <time>2026-08-21T13:48:48.000Z</time>
        <extensions>
          <ns3:TrackPointExtension>
            <ns3:hr>153</ns3:hr>
            <ns3:cad>49</ns3:cad>
          </ns3:TrackPointExtension>
        </extensions>
      </trkpt>
      <trkpt lat="45.29624369926750659942626953125" lon="-70.82916260696947574615478515625">
        <ele>1024.800048828125</ele>
        <time>2026-08-21T13:48:49.000Z</time>
        <extensions>
          <ns3:TrackPointExtension>
            <ns3:hr>153</ns3:hr>
            <ns3:cad>49</ns3:cad>
          </ns3:TrackPointExtension>
        </extensions>
      </trkpt>
      <trkpt lat="45.29624084942042827606201171875" lon="-70.82917450927197933197021484375">
        <ele>1025</ele>
        <time>2026-08-21T13:48:50.000Z</time>
        <extensions>
          <ns3:TrackPointExtension>
            <ns3:hr>153</ns3:hr>
            <ns3:cad>50</ns3:cad>
          </ns3:TrackPointExtension>
        </extensions>
      </trkpt>
      <trkpt lat="45.296238251030445098876953125" lon="-70.82918859086930751800537109375">
        <ele>1025</ele>
        <time>2026-08-21T13:48:51.000Z</time>
        <extensions>
          <ns3:TrackPointExtension>
            <ns3:hr>153</ns3:hr>
            <ns3:cad>50</ns3:cad>
          </ns3:TrackPointExtension>
        </extensions>
      </trkpt>
      <trkpt lat="45.2962303720414638519287109375" lon="-70.829199068248271942138671875">
        <ele>1025</ele>
        <time>2026-08-21T13:48:52.000Z</time>
        <extensions>
          <ns3:TrackPointExtension>
            <ns3:hr>153</ns3:hr>
            <ns3:cad>50</ns3:cad>
          </ns3:TrackPointExtension>
        </extensions>
      </trkpt>
      <trkpt lat="45.296223498880863189697265625" lon="-70.82921474240720272064208984375">
        <ele>1025</ele>
        <time>2026-08-21T13:48:53.000Z</time>
        <extensions>
          <ns3:TrackPointExtension>
            <ns3:hr>153</ns3:hr>
            <ns3:cad>51</ns3:cad>
          </ns3:TrackPointExtension>
        </extensions>
      </trkpt>
      <trkpt lat="45.2962176315486431121826171875" lon="-70.829232595860958099365234375">
        <ele>1025</ele>
        <time>2026-08-21T13:48:54.000Z</time>
        <extensions>
          <ns3:TrackPointExtension>
            <ns3:hr>153</ns3:hr>
            <ns3:cad>51</ns3:cad>
          </ns3:TrackPointExtension>
        </extensions>
      </trkpt>
      <trkpt lat="45.29621654190123081207275390625" lon="-70.8292428217828273773193359375">
        <ele>1025.199951171875</ele>
        <time>2026-08-21T13:48:55.000Z</time>
        <extensions>
          <ns3:TrackPointExtension>
            <ns3:hr>153</ns3:hr>
            <ns3:cad>51</ns3:cad>
          </ns3:TrackPointExtension>
        </extensions>
      </trkpt>
      <trkpt lat="45.2962176315486431121826171875" lon="-70.82924910821020603179931640625">
        <ele>1025.199951171875</ele>
        <time>2026-08-21T13:48:56.000Z</time>
        <extensions>
          <ns3:TrackPointExtension>
            <ns3:hr>152</ns3:hr>
            <ns3:cad>55</ns3:cad>
          </ns3:TrackPointExtension>
        </extensions>
      </trkpt>
      <trkpt lat="45.29621838591992855072021484375" lon="-70.82925975322723388671875">
        <ele>1025.4000244140625</ele>
        <time>2026-08-21T13:48:57.000Z</time>
        <extensions>
          <ns3:TrackPointExtension>
            <ns3:hr>152</ns3:hr>
            <ns3:cad>55</ns3:cad>
          </ns3:TrackPointExtension>
        </extensions>
      </trkpt>
      <trkpt lat="45.296216793358325958251953125" lon="-70.82927391864359378814697265625">
        <ele>1025.5999755859375</ele>
        <time>2026-08-21T13:48:58.000Z</time>
        <extensions>
          <ns3:TrackPointExtension>
            <ns3:hr>152</ns3:hr>
            <ns3:cad>55</ns3:cad>
          </ns3:TrackPointExtension>
        </extensions>
      </trkpt>
      <trkpt lat="45.29621235094964504241943359375" lon="-70.829289257526397705078125">
        <ele>1025.800048828125</ele>
        <time>2026-08-21T13:48:59.000Z</time>
        <extensions>
          <ns3:TrackPointExtension>
            <ns3:hr>153</ns3:hr>
            <ns3:cad>55</ns3:cad>
          </ns3:TrackPointExtension>
        </extensions>
      </trkpt>
      <trkpt lat="45.29620983637869358062744140625" lon="-70.829303674399852752685546875">
        <ele>1025.800048828125</ele>
        <time>2026-08-21T13:49:00.000Z</time>
        <extensions>
          <ns3:TrackPointExtension>
            <ns3:hr>153</ns3:hr>
            <ns3:cad>55</ns3:cad>
          </ns3:TrackPointExtension>
        </extensions>
      </trkpt>
      <trkpt lat="45.2962048910558223724365234375" lon="-70.8293125592172145843505859375">
        <ele>1026</ele>
        <time>2026-08-21T13:49:01.000Z</time>
        <extensions>
          <ns3:TrackPointExtension>
            <ns3:hr>152</ns3:hr>
            <ns3:cad>55</ns3:cad>
          </ns3:TrackPointExtension>
        </extensions>
      </trkpt>
      <trkpt lat="45.29619726352393627166748046875" lon="-70.8293239586055278778076171875">
        <ele>1026</ele>
        <time>2026-08-21T13:49:02.000Z</time>
        <extensions>
          <ns3:TrackPointExtension>
            <ns3:hr>151</ns3:hr>
            <ns3:cad>0</ns3:cad>
          </ns3:TrackPointExtension>
        </extensions>
      </trkpt>
      <trkpt lat="45.29619030654430389404296875" lon="-70.82933954894542694091796875">
        <ele>1026.199951171875</ele>
        <time>2026-08-21T13:49:03.000Z</time>
        <extensions>
          <ns3:TrackPointExtension>
            <ns3:hr>151</ns3:hr>
            <ns3:cad>0</ns3:cad>
          </ns3:TrackPointExtension>
        </extensions>
      </trkpt>
      <trkpt lat="45.29619030654430389404296875" lon="-70.8293527923524379730224609375">
        <ele>1026.199951171875</ele>
        <time>2026-08-21T13:49:04.000Z</time>
        <extensions>
          <ns3:TrackPointExtension>
            <ns3:hr>151</ns3:hr>
            <ns3:cad>0</ns3:cad>
          </ns3:TrackPointExtension>
        </extensions>
      </trkpt>
      <trkpt lat="45.296184606850147247314453125" lon="-70.82936360500752925872802734375">
        <ele>1026.4000244140625</ele>
        <time>2026-08-21T13:49:05.000Z</time>
        <extensions>
          <ns3:TrackPointExtension>
            <ns3:hr>151</ns3:hr>
            <ns3:cad>0</ns3:cad>
          </ns3:TrackPointExtension>
        </extensions>
      </trkpt>
      <trkpt lat="45.2961804158985614776611328125" lon="-70.82936771214008331298828125">
        <ele>1026.5999755859375</ele>
        <time>2026-08-21T13:49:06.000Z</time>
        <extensions>
          <ns3:TrackPointExtension>
            <ns3:hr>150</ns3:hr>
            <ns3:cad>0</ns3:cad>
          </ns3:TrackPointExtension>
        </extensions>
      </trkpt>
      <trkpt lat="45.2961656637489795684814453125" lon="-70.8293745853006839752197265625">
        <ele>1026.800048828125</ele>
        <time>2026-08-21T13:49:07.000Z</time>
        <extensions>
          <ns3:TrackPointExtension>
            <ns3:hr>150</ns3:hr>
            <ns3:cad>0</ns3:cad>
          </ns3:TrackPointExtension>
        </extensions>
      </trkpt>
      <trkpt lat="45.2961572818458080291748046875" lon="-70.829387493431568145751953125">
        <ele>1027</ele>
        <time>2026-08-21T13:49:08.000Z</time>
        <extensions>
          <ns3:TrackPointExtension>
            <ns3:hr>150</ns3:hr>
            <ns3:cad>0</ns3:cad>
          </ns3:TrackPointExtension>
        </extensions>
      </trkpt>
      <trkpt lat="45.2961502410471439361572265625" lon="-70.82939847372472286224365234375">
        <ele>1027.4000244140625</ele>
        <time>2026-08-21T13:49:09.000Z</time>
        <extensions>
          <ns3:TrackPointExtension>
            <ns3:hr>150</ns3:hr>
            <ns3:cad>0</ns3:cad>
          </ns3:TrackPointExtension>
        </extensions>
      </trkpt>
      <trkpt lat="45.29614177532494068145751953125" lon="-70.82941255532205104827880859375">
        <ele>1027.5999755859375</ele>
        <time>2026-08-21T13:49:10.000Z</time>
        <extensions>
          <ns3:TrackPointExtension>
            <ns3:hr>150</ns3:hr>
            <ns3:cad>50</ns3:cad>
          </ns3:TrackPointExtension>
        </extensions>
      </trkpt>
      <trkpt lat="45.29613138176500797271728515625" lon="-70.82942412234842777252197265625">
        <ele>1027.800048828125</ele>
        <time>2026-08-21T13:49:11.000Z</time>
        <extensions>
          <ns3:TrackPointExtension>
            <ns3:hr>150</ns3:hr>
            <ns3:cad>50</ns3:cad>
          </ns3:TrackPointExtension>
        </extensions>
      </trkpt>
      <trkpt lat="45.29612568207085132598876953125" lon="-70.8294325880706310272216796875">
        <ele>1028</ele>
        <time>2026-08-21T13:49:12.000Z</time>
        <extensions>
          <ns3:TrackPointExtension>
            <ns3:hr>150</ns3:hr>
            <ns3:cad>0</ns3:cad>
          </ns3:TrackPointExtension>
        </extensions>
      </trkpt>
      <trkpt lat="45.296118557453155517578125" lon="-70.829441808164119720458984375">
        <ele>1028</ele>
        <time>2026-08-21T13:49:13.000Z</time>
        <extensions>
          <ns3:TrackPointExtension>
            <ns3:hr>150</ns3:hr>
            <ns3:cad>49</ns3:cad>
          </ns3:TrackPointExtension>
        </extensions>
      </trkpt>
      <trkpt lat="45.29610984027385711669921875" lon="-70.82945278845727443695068359375">
        <ele>1028</ele>
        <time>2026-08-21T13:49:14.000Z</time>
        <extensions>
          <ns3:TrackPointExtension>
            <ns3:hr>150</ns3:hr>
            <ns3:cad>49</ns3:cad>
          </ns3:TrackPointExtension>
        </extensions>
      </trkpt>
      <trkpt lat="45.29610187746584415435791015625" lon="-70.82946083508431911468505859375">
        <ele>1028</ele>
        <time>2026-08-21T13:49:15.000Z</time>
        <extensions>
          <ns3:TrackPointExtension>
            <ns3:hr>150</ns3:hr>
            <ns3:cad>49</ns3:cad>
          </ns3:TrackPointExtension>
        </extensions>
      </trkpt>
      <trkpt lat="45.296094082295894622802734375" lon="-70.82948497496545314788818359375">
        <ele>1028</ele>
        <time>2026-08-21T13:49:16.000Z</time>
        <extensions>
          <ns3:TrackPointExtension>
            <ns3:hr>150</ns3:hr>
            <ns3:cad>49</ns3:cad>
          </ns3:TrackPointExtension>
        </extensions>
      </trkpt>
      <trkpt lat="45.296090058982372283935546875" lon="-70.82950609736144542694091796875">
        <ele>1028</ele>
        <time>2026-08-21T13:49:17.000Z</time>
        <extensions>
          <ns3:TrackPointExtension>
            <ns3:hr>150</ns3:hr>
            <ns3:cad>0</ns3:cad>
          </ns3:TrackPointExtension>
        </extensions>
      </trkpt>
      <trkpt lat="45.2960862033069133758544921875" lon="-70.829521603882312774658203125">
        <ele>1028</ele>
        <time>2026-08-21T13:49:18.000Z</time>
        <extensions>
          <ns3:TrackPointExtension>
            <ns3:hr>150</ns3:hr>
            <ns3:cad>0</ns3:cad>
          </ns3:TrackPointExtension>
        </extensions>
      </trkpt>
      <trkpt lat="45.29608159326016902923583984375" lon="-70.8295338414609432220458984375">
        <ele>1028</ele>
        <time>2026-08-21T13:49:19.000Z</time>
        <extensions>
          <ns3:TrackPointExtension>
            <ns3:hr>150</ns3:hr>
            <ns3:cad>50</ns3:cad>
          </ns3:TrackPointExtension>
        </extensions>
      </trkpt>
      <trkpt lat="45.29607874341309070587158203125" lon="-70.82954247482120990753173828125">
        <ele>1028</ele>
        <time>2026-08-21T13:49:20.000Z</time>
        <extensions>
          <ns3:TrackPointExtension>
            <ns3:hr>150</ns3:hr>
            <ns3:cad>50</ns3:cad>
          </ns3:TrackPointExtension>
        </extensions>
      </trkpt>
      <trkpt lat="45.29607321135699748992919921875" lon="-70.8295526169240474700927734375">
        <ele>1027.800048828125</ele>
        <time>2026-08-21T13:49:21.000Z</time>
        <extensions>
          <ns3:TrackPointExtension>
            <ns3:hr>150</ns3:hr>
            <ns3:cad>50</ns3:cad>
          </ns3:TrackPointExtension>
        </extensions>
      </trkpt>
      <trkpt lat="45.29606650583446025848388671875" lon="-70.82956426776945590972900390625">
        <ele>1027.800048828125</ele>
        <time>2026-08-21T13:49:22.000Z</time>
        <extensions>
          <ns3:TrackPointExtension>
            <ns3:hr>149</ns3:hr>
            <ns3:cad>51</ns3:cad>
          </ns3:TrackPointExtension>
        </extensions>
      </trkpt>
      <trkpt lat="45.296060554683208465576171875" lon="-70.8295770920813083648681640625">
        <ele>1027.800048828125</ele>
        <time>2026-08-21T13:49:23.000Z</time>
        <extensions>
          <ns3:TrackPointExtension>
            <ns3:hr>150</ns3:hr>
            <ns3:cad>51</ns3:cad>
          </ns3:TrackPointExtension>
        </extensions>
      </trkpt>
      <trkpt lat="45.29605125077068805694580078125" lon="-70.8295918442308902740478515625">
        <ele>1027.800048828125</ele>
        <time>2026-08-21T13:49:24.000Z</time>
        <extensions>
          <ns3:TrackPointExtension>
            <ns3:hr>150</ns3:hr>
            <ns3:cad>51</ns3:cad>
          </ns3:TrackPointExtension>
        </extensions>
      </trkpt>
      <trkpt lat="45.29604320414364337921142578125" lon="-70.8296039141714572906494140625">
        <ele>1027.800048828125</ele>
        <time>2026-08-21T13:49:25.000Z</time>
        <extensions>
          <ns3:TrackPointExtension>
            <ns3:hr>150</ns3:hr>
            <ns3:cad>57</ns3:cad>
          </ns3:TrackPointExtension>
        </extensions>
      </trkpt>
      <trkpt lat="45.2960313856601715087890625" lon="-70.8296143077313899993896484375">
        <ele>1027.5999755859375</ele>
        <time>2026-08-21T13:49:26.000Z</time>
        <extensions>
          <ns3:TrackPointExtension>
            <ns3:hr>149</ns3:hr>
            <ns3:cad>57</ns3:cad>
          </ns3:TrackPointExtension>
        </extensions>
      </trkpt>
      <trkpt lat="45.2960214950144290924072265625" lon="-70.82962444983422756195068359375">
        <ele>1027.4000244140625</ele>
        <time>2026-08-21T13:49:27.000Z</time>
        <extensions>
          <ns3:TrackPointExtension>
            <ns3:hr>149</ns3:hr>
            <ns3:cad>57</ns3:cad>
          </ns3:TrackPointExtension>
        </extensions>
      </trkpt>
      <trkpt lat="45.29601017944514751434326171875" lon="-70.8296387828886508941650390625">
        <ele>1027.199951171875</ele>
        <time>2026-08-21T13:49:28.000Z</time>
        <extensions>
          <ns3:TrackPointExtension>
            <ns3:hr>147</ns3:hr>
            <ns3:cad>57</ns3:cad>
          </ns3:TrackPointExtension>
        </extensions>
      </trkpt>
      <trkpt lat="45.2960000373423099517822265625" lon="-70.82965060137212276458740234375">
        <ele>1027</ele>
        <time>2026-08-21T13:49:29.000Z</time>
        <extensions>
          <ns3:TrackPointExtension>
            <ns3:hr>147</ns3:hr>
            <ns3:cad>0</ns3:cad>
          </ns3:TrackPointExtension>
        </extensions>
      </trkpt>
      <trkpt lat="45.2959869615733623504638671875" lon="-70.82965672016143798828125">
        <ele>1026.800048828125</ele>
        <time>2026-08-21T13:49:30.000Z</time>
        <extensions>
          <ns3:TrackPointExtension>
            <ns3:hr>147</ns3:hr>
            <ns3:cad>0</ns3:cad>
          </ns3:TrackPointExtension>
        </extensions>
      </trkpt>
      <trkpt lat="45.29596944339573383331298828125" lon="-70.82965998910367488861083984375">
        <ele>1026.5999755859375</ele>
        <time>2026-08-21T13:49:31.000Z</time>
        <extensions>
          <ns3:TrackPointExtension>
            <ns3:hr>146</ns3:hr>
            <ns3:cad>0</ns3:cad>
          </ns3:TrackPointExtension>
        </extensions>
      </trkpt>
      <trkpt lat="45.2959561161696910858154296875" lon="-70.8296625874936580657958984375">
        <ele>1026.199951171875</ele>
        <time>2026-08-21T13:49:32.000Z</time>
        <extensions>
          <ns3:TrackPointExtension>
            <ns3:hr>146</ns3:hr>
            <ns3:cad>0</ns3:cad>
          </ns3:TrackPointExtension>
        </extensions>
      </trkpt>
      <trkpt lat="45.29594010673463344573974609375" lon="-70.82966116257011890411376953125">
        <ele>1026</ele>
        <time>2026-08-21T13:49:33.000Z</time>
        <extensions>
          <ns3:TrackPointExtension>
            <ns3:hr>146</ns3:hr>
            <ns3:cad>0</ns3:cad>
          </ns3:TrackPointExtension>
        </extensions>
      </trkpt>
      <trkpt lat="45.29592342674732208251953125" lon="-70.8296726457774639129638671875">
        <ele>1025.5999755859375</ele>
        <time>2026-08-21T13:49:34.000Z</time>
        <extensions>
          <ns3:TrackPointExtension>
            <ns3:hr>146</ns3:hr>
            <ns3:cad>0</ns3:cad>
          </ns3:TrackPointExtension>
        </extensions>
      </trkpt>
      <trkpt lat="45.2959095127880573272705078125" lon="-70.8296810276806354522705078125">
        <ele>1025.199951171875</ele>
        <time>2026-08-21T13:49:35.000Z</time>
        <extensions>
          <ns3:TrackPointExtension>
            <ns3:hr>146</ns3:hr>
            <ns3:cad>0</ns3:cad>
          </ns3:TrackPointExtension>
        </extensions>
      </trkpt>
      <trkpt lat="45.295898616313934326171875" lon="-70.82969100214540958404541015625">
        <ele>1024.800048828125</ele>
        <time>2026-08-21T13:49:36.000Z</time>
        <extensions>
          <ns3:TrackPointExtension>
            <ns3:hr>146</ns3:hr>
            <ns3:cad>0</ns3:cad>
          </ns3:TrackPointExtension>
        </extensions>
      </trkpt>
      <trkpt lat="45.2958873845636844635009765625" lon="-70.8296917565166950225830078125">
        <ele>1024.5999755859375</ele>
        <time>2026-08-21T13:49:37.000Z</time>
        <extensions>
          <ns3:TrackPointExtension>
            <ns3:hr>145</ns3:hr>
            <ns3:cad>0</ns3:cad>
          </ns3:TrackPointExtension>
        </extensions>
      </trkpt>
      <trkpt lat="45.29586919583380222320556640625" lon="-70.8297075144946575164794921875">
        <ele>1024</ele>
        <time>2026-08-21T13:49:38.000Z</time>
        <extensions>
          <ns3:TrackPointExtension>
            <ns3:hr>145</ns3:hr>
            <ns3:cad>0</ns3:cad>
          </ns3:TrackPointExtension>
        </extensions>
      </trkpt>
      <trkpt lat="45.29585578478872776031494140625" lon="-70.82972352392971515655517578125">
        <ele>1023.5999755859375</ele>
        <time>2026-08-21T13:49:39.000Z</time>
        <extensions>
          <ns3:TrackPointExtension>
            <ns3:hr>145</ns3:hr>
            <ns3:cad>0</ns3:cad>
          </ns3:TrackPointExtension>
        </extensions>
      </trkpt>
      <trkpt lat="45.29584656469523906707763671875" lon="-70.8297376893460750579833984375">
        <ele>1023.20001220703125</ele>
        <time>2026-08-21T13:49:40.000Z</time>
        <extensions>
          <ns3:TrackPointExtension>
            <ns3:hr>144</ns3:hr>
            <ns3:cad>0</ns3:cad>
          </ns3:TrackPointExtension>
        </extensions>
      </trkpt>
      <trkpt lat="45.29583281837403774261474609375" lon="-70.82974883727729320526123046875">
        <ele>1022.79998779296875</ele>
        <time>2026-08-21T13:49:41.000Z</time>
        <extensions>
          <ns3:TrackPointExtension>
            <ns3:hr>144</ns3:hr>
            <ns3:cad>0</ns3:cad>
          </ns3:TrackPointExtension>
        </extensions>
      </trkpt>
      <trkpt lat="45.29581739567220211029052734375" lon="-70.82976333796977996826171875">
        <ele>1022.4000244140625</ele>
        <time>2026-08-21T13:49:42.000Z</time>
        <extensions>
          <ns3:TrackPointExtension>
            <ns3:hr>144</ns3:hr>
            <ns3:cad>0</ns3:cad>
          </ns3:TrackPointExtension>
        </extensions>
      </trkpt>
      <trkpt lat="45.295803733170032501220703125" lon="-70.82977666519582271575927734375">
        <ele>1022.20001220703125</ele>
        <time>2026-08-21T13:49:43.000Z</time>
        <extensions>
          <ns3:TrackPointExtension>
            <ns3:hr>144</ns3:hr>
            <ns3:cad>0</ns3:cad>
          </ns3:TrackPointExtension>
        </extensions>
      </trkpt>
      <trkpt lat="45.29578805901110172271728515625" lon="-70.829790495336055755615234375">
        <ele>1021.79998779296875</ele>
        <time>2026-08-21T13:49:44.000Z</time>
        <extensions>
          <ns3:TrackPointExtension>
            <ns3:hr>144</ns3:hr>
            <ns3:cad>0</ns3:cad>
          </ns3:TrackPointExtension>
        </extensions>
      </trkpt>
      <trkpt lat="45.2957777492702007293701171875" lon="-70.82980399020016193389892578125">
        <ele>1021.79998779296875</ele>
        <time>2026-08-21T13:49:45.000Z</time>
        <extensions>
          <ns3:TrackPointExtension>
            <ns3:hr>144</ns3:hr>
            <ns3:cad>0</ns3:cad>
          </ns3:TrackPointExtension>
        </extensions>
      </trkpt>
      <trkpt lat="45.29577112756669521331787109375" lon="-70.829823017120361328125">
        <ele>1021.5999755859375</ele>
        <time>2026-08-21T13:49:46.000Z</time>
        <extensions>
          <ns3:TrackPointExtension>
            <ns3:hr>143</ns3:hr>
            <ns3:cad>0</ns3:cad>
          </ns3:TrackPointExtension>
        </extensions>
      </trkpt>
      <trkpt lat="45.295760147273540496826171875" lon="-70.82985059358179569244384765625">
        <ele>1021.4000244140625</ele>
        <time>2026-08-21T13:49:47.000Z</time>
        <extensions>
          <ns3:TrackPointExtension>
            <ns3:hr>143</ns3:hr>
            <ns3:cad>0</ns3:cad>
          </ns3:TrackPointExtension>
        </extensions>
      </trkpt>
      <trkpt lat="45.29575251974165439605712890625" lon="-70.82987221889197826385498046875">
        <ele>1021.20001220703125</ele>
        <time>2026-08-21T13:49:48.000Z</time>
        <extensions>
          <ns3:TrackPointExtension>
            <ns3:hr>142</ns3:hr>
            <ns3:cad>0</ns3:cad>
          </ns3:TrackPointExtension>
        </extensions>
      </trkpt>
      <trkpt lat="45.2957469038665294647216796875" lon="-70.8298922516405582427978515625">
        <ele>1021.20001220703125</ele>
        <time>2026-08-21T13:49:49.000Z</time>
        <extensions>
          <ns3:TrackPointExtension>
            <ns3:hr>142</ns3:hr>
            <ns3:cad>0</ns3:cad>
          </ns3:TrackPointExtension>
        </extensions>
      </trkpt>
      <trkpt lat="45.29574128799140453338623046875" lon="-70.82990549504756927490234375">
        <ele>1021</ele>
        <time>2026-08-21T13:49:50.000Z</time>
        <extensions>
          <ns3:TrackPointExtension>
            <ns3:hr>141</ns3:hr>
            <ns3:cad>0</ns3:cad>
          </ns3:TrackPointExtension>
        </extensions>
      </trkpt>
      <trkpt lat="45.29573357664048671722412109375" lon="-70.82992552779614925384521484375">
        <ele>1021</ele>
        <time>2026-08-21T13:49:51.000Z</time>
        <extensions>
          <ns3:TrackPointExtension>
            <ns3:hr>141</ns3:hr>
            <ns3:cad>68</ns3:cad>
          </ns3:TrackPointExtension>
        </extensions>
      </trkpt>
      <trkpt lat="45.29572787694633007049560546875" lon="-70.82993759773671627044677734375">
        <ele>1021</ele>
        <time>2026-08-21T13:49:52.000Z</time>
        <extensions>
          <ns3:TrackPointExtension>
            <ns3:hr>141</ns3:hr>
            <ns3:cad>68</ns3:cad>
          </ns3:TrackPointExtension>
        </extensions>
      </trkpt>
      <trkpt lat="45.2957180701196193695068359375" lon="-70.82995486445724964141845703125">
        <ele>1021</ele>
        <time>2026-08-21T13:49:53.000Z</time>
        <extensions>
          <ns3:TrackPointExtension>
            <ns3:hr>140</ns3:hr>
            <ns3:cad>68</ns3:cad>
          </ns3:TrackPointExtension>
        </extensions>
      </trkpt>
      <trkpt lat="45.29571178369224071502685546875" lon="-70.8299666829407215118408203125">
        <ele>1020.79998779296875</ele>
        <time>2026-08-21T13:49:54.000Z</time>
        <extensions>
          <ns3:TrackPointExtension>
            <ns3:hr>140</ns3:hr>
            <ns3:cad>68</ns3:cad>
          </ns3:TrackPointExtension>
        </extensions>
      </trkpt>
      <trkpt lat="45.2957036532461643218994140625" lon="-70.8299797587096691131591796875">
        <ele>1021</ele>
        <time>2026-08-21T13:49:55.000Z</time>
        <extensions>
          <ns3:TrackPointExtension>
            <ns3:hr>140</ns3:hr>
            <ns3:cad>68</ns3:cad>
          </ns3:TrackPointExtension>
        </extensions>
      </trkpt>
      <trkpt lat="45.29569434933364391326904296875" lon="-70.8299898169934749603271484375">
        <ele>1021</ele>
        <time>2026-08-21T13:49:56.000Z</time>
        <extensions>
          <ns3:TrackPointExtension>
            <ns3:hr>140</ns3:hr>
            <ns3:cad>68</ns3:cad>
          </ns3:TrackPointExtension>
        </extensions>
      </trkpt>
      <trkpt lat="45.2956842072308063507080078125" lon="-70.83000197075307369232177734375">
        <ele>1021</ele>
        <time>2026-08-21T13:49:57.000Z</time>
        <extensions>
          <ns3:TrackPointExtension>
            <ns3:hr>139</ns3:hr>
            <ns3:cad>0</ns3:cad>
          </ns3:TrackPointExtension>
        </extensions>
      </trkpt>
      <trkpt lat="45.29567398130893707275390625" lon="-70.830013118684291839599609375">
        <ele>1021.20001220703125</ele>
        <time>2026-08-21T13:49:58.000Z</time>
        <extensions>
          <ns3:TrackPointExtension>
            <ns3:hr>137</ns3:hr>
            <ns3:cad>0</ns3:cad>
          </ns3:TrackPointExtension>
        </extensions>
      </trkpt>
      <trkpt lat="45.29566601850092411041259765625" lon="-70.830026529729366302490234375">
        <ele>1021.20001220703125</ele>
        <time>2026-08-21T13:49:59.000Z</time>
        <extensions>
          <ns3:TrackPointExtension>
            <ns3:hr>137</ns3:hr>
            <ns3:cad>0</ns3:cad>
          </ns3:TrackPointExtension>
        </extensions>
      </trkpt>
      <trkpt lat="45.2956610731780529022216796875" lon="-70.8300458081066608428955078125">
        <ele>1021.4000244140625</ele>
        <time>2026-08-21T13:50:00.000Z</time>
        <extensions>
          <ns3:TrackPointExtension>
            <ns3:hr>137</ns3:hr>
            <ns3:cad>0</ns3:cad>
          </ns3:TrackPointExtension>
        </extensions>
      </trkpt>
      <trkpt lat="45.2956547029316425323486328125" lon="-70.8300612308084964752197265625">
        <ele>1021.5999755859375</ele>
        <time>2026-08-21T13:50:01.000Z</time>
        <extensions>
          <ns3:TrackPointExtension>
            <ns3:hr>137</ns3:hr>
            <ns3:cad>0</ns3:cad>
          </ns3:TrackPointExtension>
        </extensions>
      </trkpt>
      <trkpt lat="45.2956479974091053009033203125" lon="-70.83007237873971462249755859375">
        <ele>1021.79998779296875</ele>
        <time>2026-08-21T13:50:02.000Z</time>
        <extensions>
          <ns3:TrackPointExtension>
            <ns3:hr>137</ns3:hr>
            <ns3:cad>52</ns3:cad>
          </ns3:TrackPointExtension>
        </extensions>
      </trkpt>
      <trkpt lat="45.2956451475620269775390625" lon="-70.8300840295851230621337890625">
        <ele>1022</ele>
        <time>2026-08-21T13:50:03.000Z</time>
        <extensions>
          <ns3:TrackPointExtension>
            <ns3:hr>136</ns3:hr>
            <ns3:cad>52</ns3:cad>
          </ns3:TrackPointExtension>
        </extensions>
      </trkpt>
      <trkpt lat="45.29563768766820430755615234375" lon="-70.83009819500148296356201171875">
        <ele>1022</ele>
        <time>2026-08-21T13:50:04.000Z</time>
        <extensions>
          <ns3:TrackPointExtension>
            <ns3:hr>135</ns3:hr>
            <ns3:cad>52</ns3:cad>
          </ns3:TrackPointExtension>
        </extensions>
      </trkpt>
      <trkpt lat="45.29562930576503276824951171875" lon="-70.83011026494204998016357421875">
        <ele>1022.20001220703125</ele>
        <time>2026-08-21T13:50:05.000Z</time>
        <extensions>
          <ns3:TrackPointExtension>
            <ns3:hr>136</ns3:hr>
            <ns3:cad>52</ns3:cad>
          </ns3:TrackPointExtension>
        </extensions>
      </trkpt>
      <trkpt lat="45.295621342957019805908203125" lon="-70.8301229216158390045166015625">
        <ele>1022.4000244140625</ele>
        <time>2026-08-21T13:50:06.000Z</time>
        <extensions>
          <ns3:TrackPointExtension>
            <ns3:hr>136</ns3:hr>
            <ns3:cad>52</ns3:cad>
          </ns3:TrackPointExtension>
        </extensions>
      </trkpt>
      <trkpt lat="45.2956127934157848358154296875" lon="-70.830141864717006683349609375">
        <ele>1022.4000244140625</ele>
        <time>2026-08-21T13:50:07.000Z</time>
        <extensions>
          <ns3:TrackPointExtension>
            <ns3:hr>136</ns3:hr>
            <ns3:cad>52</ns3:cad>
          </ns3:TrackPointExtension>
        </extensions>
      </trkpt>
      <trkpt lat="45.29560483060777187347412109375" lon="-70.8301520906388759613037109375">
        <ele>1022.4000244140625</ele>
        <time>2026-08-21T13:50:08.000Z</time>
        <extensions>
          <ns3:TrackPointExtension>
            <ns3:hr>136</ns3:hr>
            <ns3:cad>53</ns3:cad>
          </ns3:TrackPointExtension>
        </extensions>
      </trkpt>
      <trkpt lat="45.29559544287621974945068359375" lon="-70.83017027936875820159912109375">
        <ele>1022.5999755859375</ele>
        <time>2026-08-21T13:50:09.000Z</time>
        <extensions>
          <ns3:TrackPointExtension>
            <ns3:hr>136</ns3:hr>
            <ns3:cad>53</ns3:cad>
          </ns3:TrackPointExtension>
        </extensions>
      </trkpt>
      <trkpt lat="45.2955888211727142333984375" lon="-70.83018536679446697235107421875">
        <ele>1022.5999755859375</ele>
        <time>2026-08-21T13:50:10.000Z</time>
        <extensions>
          <ns3:TrackPointExtension>
            <ns3:hr>136</ns3:hr>
            <ns3:cad>53</ns3:cad>
          </ns3:TrackPointExtension>
        </extensions>
      </trkpt>
      <trkpt lat="45.29558144509792327880859375" lon="-70.83020263351500034332275390625">
        <ele>1022.5999755859375</ele>
        <time>2026-08-21T13:50:11.000Z</time>
        <extensions>
          <ns3:TrackPointExtension>
            <ns3:hr>136</ns3:hr>
            <ns3:cad>0</ns3:cad>
          </ns3:TrackPointExtension>
        </extensions>
      </trkpt>
      <trkpt lat="45.29557616449892520904541015625" lon="-70.8302218280732631683349609375">
        <ele>1022.79998779296875</ele>
        <time>2026-08-21T13:50:12.000Z</time>
        <extensions>
          <ns3:TrackPointExtension>
            <ns3:hr>137</ns3:hr>
            <ns3:cad>0</ns3:cad>
          </ns3:TrackPointExtension>
        </extensions>
      </trkpt>
      <trkpt lat="45.2955705486238002777099609375" lon="-70.83023498766124248504638671875">
        <ele>1022.79998779296875</ele>
        <time>2026-08-21T13:50:13.000Z</time>
        <extensions>
          <ns3:TrackPointExtension>
            <ns3:hr>137</ns3:hr>
            <ns3:cad>0</ns3:cad>
          </ns3:TrackPointExtension>
        </extensions>
      </trkpt>
      <trkpt lat="45.2955675311386585235595703125" lon="-70.83024336956441402435302734375">
        <ele>1022.79998779296875</ele>
        <time>2026-08-21T13:50:14.000Z</time>
        <extensions>
          <ns3:TrackPointExtension>
            <ns3:hr>137</ns3:hr>
            <ns3:cad>0</ns3:cad>
          </ns3:TrackPointExtension>
        </extensions>
      </trkpt>
      <trkpt lat="45.2955658547580242156982421875" lon="-70.8302593789994716644287109375">
        <ele>1023</ele>
        <time>2026-08-21T13:50:15.000Z</time>
        <extensions>
          <ns3:TrackPointExtension>
            <ns3:hr>138</ns3:hr>
            <ns3:cad>0</ns3:cad>
          </ns3:TrackPointExtension>
        </extensions>
      </trkpt>
      <trkpt lat="45.29556334018707275390625" lon="-70.8302734605967998504638671875">
        <ele>1023.20001220703125</ele>
        <time>2026-08-21T13:50:16.000Z</time>
        <extensions>
          <ns3:TrackPointExtension>
            <ns3:hr>138</ns3:hr>
            <ns3:cad>0</ns3:cad>
          </ns3:TrackPointExtension>
        </extensions>
      </trkpt>
      <trkpt lat="45.2955611608922481536865234375" lon="-70.83027832210063934326171875">
        <ele>1023.5999755859375</ele>
        <time>2026-08-21T13:50:17.000Z</time>
        <extensions>
          <ns3:TrackPointExtension>
            <ns3:hr>138</ns3:hr>
            <ns3:cad>0</ns3:cad>
          </ns3:TrackPointExtension>
        </extensions>
      </trkpt>
      <trkpt lat="45.2955584786832332611083984375" lon="-70.83029265515506267547607421875">
        <ele>1023.79998779296875</ele>
        <time>2026-08-21T13:50:18.000Z</time>
        <extensions>
          <ns3:TrackPointExtension>
            <ns3:hr>138</ns3:hr>
            <ns3:cad>0</ns3:cad>
          </ns3:TrackPointExtension>
        </extensions>
      </trkpt>
      <trkpt lat="45.29555998742580413818359375" lon="-70.83031184971332550048828125">
        <ele>1024</ele>
        <time>2026-08-21T13:50:19.000Z</time>
        <extensions>
          <ns3:TrackPointExtension>
            <ns3:hr>139</ns3:hr>
            <ns3:cad>0</ns3:cad>
          </ns3:TrackPointExtension>
        </extensions>
      </trkpt>
      <trkpt lat="45.295561663806438446044921875" lon="-70.83031662739813327789306640625">
        <ele>1024.199951171875</ele>
        <time>2026-08-21T13:50:20.000Z</time>
        <extensions>
          <ns3:TrackPointExtension>
            <ns3:hr>139</ns3:hr>
            <ns3:cad>0</ns3:cad>
          </ns3:TrackPointExtension>
        </extensions>
      </trkpt>
      <trkpt lat="45.29556074179708957672119140625" lon="-70.8303287811577320098876953125">
        <ele>1024.5999755859375</ele>
        <time>2026-08-21T13:50:21.000Z</time>
        <extensions>
          <ns3:TrackPointExtension>
            <ns3:hr>139</ns3:hr>
            <ns3:cad>0</ns3:cad>
          </ns3:TrackPointExtension>
        </extensions>
      </trkpt>
      <trkpt lat="45.29556334018707275390625" lon="-70.8303391747176647186279296875">
        <ele>1024.800048828125</ele>
        <time>2026-08-21T13:50:22.000Z</time>
        <extensions>
          <ns3:TrackPointExtension>
            <ns3:hr>140</ns3:hr>
            <ns3:cad>0</ns3:cad>
          </ns3:TrackPointExtension>
        </extensions>
      </trkpt>
      <trkpt lat="45.29556560330092906951904296875" lon="-70.8303488977253437042236328125">
        <ele>1024.800048828125</ele>
        <time>2026-08-21T13:50:23.000Z</time>
        <extensions>
          <ns3:TrackPointExtension>
            <ns3:hr>140</ns3:hr>
            <ns3:cad>0</ns3:cad>
          </ns3:TrackPointExtension>
        </extensions>
      </trkpt>
      <trkpt lat="45.29556526802480220794677734375" lon="-70.83035476505756378173828125">
        <ele>1025</ele>
        <time>2026-08-21T13:50:24.000Z</time>
        <extensions>
          <ns3:TrackPointExtension>
            <ns3:hr>140</ns3:hr>
            <ns3:cad>0</ns3:cad>
          </ns3:TrackPointExtension>
        </extensions>
      </trkpt>
      <trkpt lat="45.29556526802480220794677734375" lon="-70.8303670026361942291259765625">
        <ele>1025.199951171875</ele>
        <time>2026-08-21T13:50:25.000Z</time>
        <extensions>
          <ns3:TrackPointExtension>
            <ns3:hr>140</ns3:hr>
            <ns3:cad>0</ns3:cad>
          </ns3:TrackPointExtension>
        </extensions>
      </trkpt>
      <trkpt lat="45.295565016567707061767578125" lon="-70.8303767256438732147216796875">
        <ele>1025.4000244140625</ele>
        <time>2026-08-21T13:50:26.000Z</time>
        <extensions>
          <ns3:TrackPointExtension>
            <ns3:hr>140</ns3:hr>
            <ns3:cad>0</ns3:cad>
          </ns3:TrackPointExtension>
        </extensions>
      </trkpt>
      <trkpt lat="45.29556711204349994659423828125" lon="-70.83038024604320526123046875">
        <ele>1025.4000244140625</ele>
        <time>2026-08-21T13:50:27.000Z</time>
        <extensions>
          <ns3:TrackPointExtension>
            <ns3:hr>140</ns3:hr>
            <ns3:cad>0</ns3:cad>
          </ns3:TrackPointExtension>
        </extensions>
      </trkpt>
      <trkpt lat="45.29556442983448505401611328125" lon="-70.83039005286991596221923828125">
        <ele>1025.5999755859375</ele>
        <time>2026-08-21T13:50:28.000Z</time>
        <extensions>
          <ns3:TrackPointExtension>
            <ns3:hr>140</ns3:hr>
            <ns3:cad>0</ns3:cad>
          </ns3:TrackPointExtension>
        </extensions>
      </trkpt>
      <trkpt lat="45.2955641783773899078369140625" lon="-70.8303898014128208160400390625">
        <ele>1025.5999755859375</ele>
        <time>2026-08-21T13:50:29.000Z</time>
        <extensions>
          <ns3:TrackPointExtension>
            <ns3:hr>140</ns3:hr>
            <ns3:cad>0</ns3:cad>
          </ns3:TrackPointExtension>
        </extensions>
      </trkpt>
      <trkpt lat="45.29556342400610446929931640625" lon="-70.83038854412734508514404296875">
        <ele>1025.5999755859375</ele>
        <time>2026-08-21T13:50:30.000Z</time>
        <extensions>
          <ns3:TrackPointExtension>
            <ns3:hr>140</ns3:hr>
            <ns3:cad>0</ns3:cad>
          </ns3:TrackPointExtension>
        </extensions>
      </trkpt>
      <trkpt lat="45.29556325636804103851318359375" lon="-70.8303891308605670928955078125">
        <ele>1025.5999755859375</ele>
        <time>2026-08-21T13:50:31.000Z</time>
        <extensions>
          <ns3:TrackPointExtension>
            <ns3:hr>139</ns3:hr>
            <ns3:cad>0</ns3:cad>
          </ns3:TrackPointExtension>
        </extensions>
      </trkpt>
      <trkpt lat="45.29556308872997760772705078125" lon="-70.83038971759378910064697265625">
        <ele>1025.800048828125</ele>
        <time>2026-08-21T13:50:32.000Z</time>
        <extensions>
          <ns3:TrackPointExtension>
            <ns3:hr>140</ns3:hr>
            <ns3:cad>0</ns3:cad>
          </ns3:TrackPointExtension>
        </extensions>
      </trkpt>
      <trkpt lat="45.2955628372728824615478515625" lon="-70.8303894661366939544677734375">
        <ele>1026</ele>
        <time>2026-08-21T13:50:33.000Z</time>
        <extensions>
          <ns3:TrackPointExtension>
            <ns3:hr>140</ns3:hr>
            <ns3:cad>0</ns3:cad>
          </ns3:TrackPointExtension>
        </extensions>
      </trkpt>
      <trkpt lat="45.29556694440543651580810546875" lon="-70.83039172925055027008056640625">
        <ele>1026</ele>
        <time>2026-08-21T13:50:34.000Z</time>
        <extensions>
          <ns3:TrackPointExtension>
            <ns3:hr>140</ns3:hr>
            <ns3:cad>0</ns3:cad>
          </ns3:TrackPointExtension>
        </extensions>
      </trkpt>
      <trkpt lat="45.29556308872997760772705078125" lon="-70.83038971759378910064697265625">
        <ele>1026.199951171875</ele>
        <time>2026-08-21T13:50:35.000Z</time>
        <extensions>
          <ns3:TrackPointExtension>
            <ns3:hr>140</ns3:hr>
            <ns3:cad>0</ns3:cad>
          </ns3:TrackPointExtension>
        </extensions>
      </trkpt>
      <trkpt lat="45.29556308872997760772705078125" lon="-70.83038971759378910064697265625">
        <ele>1026.4000244140625</ele>
        <time>2026-08-21T13:50:36.000Z</time>
        <extensions>
          <ns3:TrackPointExtension>
            <ns3:hr>140</ns3:hr>
            <ns3:cad>0</ns3:cad>
          </ns3:TrackPointExtension>
        </extensions>
      </trkpt>
      <trkpt lat="45.29556308872997760772705078125" lon="-70.83038971759378910064697265625">
        <ele>1026.4000244140625</ele>
        <time>2026-08-21T13:50:37.000Z</time>
        <extensions>
          <ns3:TrackPointExtension>
            <ns3:hr>141</ns3:hr>
            <ns3:cad>0</ns3:cad>
          </ns3:TrackPointExtension>
        </extensions>
      </trkpt>
      <trkpt lat="45.29556308872997760772705078125" lon="-70.83038971759378910064697265625">
        <ele>1026.5999755859375</ele>
        <time>2026-08-21T13:50:38.000Z</time>
        <extensions>
          <ns3:TrackPointExtension>
            <ns3:hr>141</ns3:hr>
            <ns3:cad>0</ns3:cad>
          </ns3:TrackPointExtension>
        </extensions>
      </trkpt>
      <trkpt lat="45.29556308872997760772705078125" lon="-70.83038971759378910064697265625">
        <ele>1026.5999755859375</ele>
        <time>2026-08-21T13:50:39.000Z</time>
        <extensions>
          <ns3:TrackPointExtension>
            <ns3:hr>141</ns3:hr>
            <ns3:cad>0</ns3:cad>
          </ns3:TrackPointExtension>
        </extensions>
      </trkpt>
      <trkpt lat="45.29556132853031158447265625" lon="-70.83038753829896450042724609375">
        <ele>1027</ele>
        <time>2026-08-21T13:50:40.000Z</time>
        <extensions>
          <ns3:TrackPointExtension>
            <ns3:hr>141</ns3:hr>
            <ns3:cad>0</ns3:cad>
          </ns3:TrackPointExtension>
        </extensions>
      </trkpt>
      <trkpt lat="45.29555906541645526885986328125" lon="-70.83039424382150173187255859375">
        <ele>1027.199951171875</ele>
        <time>2026-08-21T13:50:41.000Z</time>
        <extensions>
          <ns3:TrackPointExtension>
            <ns3:hr>141</ns3:hr>
            <ns3:cad>0</ns3:cad>
          </ns3:TrackPointExtension>
        </extensions>
      </trkpt>
      <trkpt lat="45.2955564670264720916748046875" lon="-70.8303941600024700164794921875">
        <ele>1027.4000244140625</ele>
        <time>2026-08-21T13:50:42.000Z</time>
        <extensions>
          <ns3:TrackPointExtension>
            <ns3:hr>141</ns3:hr>
            <ns3:cad>0</ns3:cad>
          </ns3:TrackPointExtension>
        </extensions>
      </trkpt>
      <trkpt lat="45.2955557964742183685302734375" lon="-70.8303924836218357086181640625">
        <ele>1027.5999755859375</ele>
        <time>2026-08-21T13:50:43.000Z</time>
        <extensions>
          <ns3:TrackPointExtension>
            <ns3:hr>141</ns3:hr>
            <ns3:cad>0</ns3:cad>
          </ns3:TrackPointExtension>
        </extensions>
      </trkpt>
      <trkpt lat="45.2955544553697109222412109375" lon="-70.83040036261081695556640625">
        <ele>1027.800048828125</ele>
        <time>2026-08-21T13:50:44.000Z</time>
        <extensions>
          <ns3:TrackPointExtension>
            <ns3:hr>141</ns3:hr>
            <ns3:cad>0</ns3:cad>
          </ns3:TrackPointExtension>
        </extensions>
      </trkpt>
      <trkpt lat="45.29555319808423519134521484375" lon="-70.830410085618495941162109375">
        <ele>1028</ele>
        <time>2026-08-21T13:50:45.000Z</time>
        <extensions>
          <ns3:TrackPointExtension>
            <ns3:hr>141</ns3:hr>
            <ns3:cad>0</ns3:cad>
          </ns3:TrackPointExtension>
        </extensions>
      </trkpt>
      <trkpt lat="45.29555269517004489898681640625" lon="-70.830412767827510833740234375">
        <ele>1028.199951171875</ele>
        <time>2026-08-21T13:50:46.000Z</time>
        <extensions>
          <ns3:TrackPointExtension>
            <ns3:hr>141</ns3:hr>
            <ns3:cad>0</ns3:cad>
          </ns3:TrackPointExtension>
        </extensions>
      </trkpt>
      <trkpt lat="45.2955534495413303375244140625" lon="-70.83041570149362087249755859375">
        <ele>1028.4000244140625</ele>
        <time>2026-08-21T13:50:47.000Z</time>
        <extensions>
          <ns3:TrackPointExtension>
            <ns3:hr>141</ns3:hr>
            <ns3:cad>0</ns3:cad>
          </ns3:TrackPointExtension>
        </extensions>
      </trkpt>
      <trkpt lat="45.2955484203994274139404296875" lon="-70.8304149471223354339599609375">
        <ele>1028.5999755859375</ele>
        <time>2026-08-21T13:50:48.000Z</time>
        <extensions>
          <ns3:TrackPointExtension>
            <ns3:hr>141</ns3:hr>
            <ns3:cad>0</ns3:cad>
          </ns3:TrackPointExtension>
        </extensions>
      </trkpt>
      <trkpt lat="45.2955470792949199676513671875" lon="-70.83041452802717685699462890625">
        <ele>1028.5999755859375</ele>
        <time>2026-08-21T13:50:49.000Z</time>
        <extensions>
          <ns3:TrackPointExtension>
            <ns3:hr>140</ns3:hr>
            <ns3:cad>0</ns3:cad>
          </ns3:TrackPointExtension>
        </extensions>
      </trkpt>
      <trkpt lat="45.29554850421845912933349609375" lon="-70.83041436038911342620849609375">
        <ele>1028.800048828125</ele>
        <time>2026-08-21T13:50:50.000Z</time>
        <extensions>
          <ns3:TrackPointExtension>
            <ns3:hr>140</ns3:hr>
            <ns3:cad>0</ns3:cad>
          </ns3:TrackPointExtension>
        </extensions>
      </trkpt>
      <trkpt lat="45.29554246924817562103271484375" lon="-70.83042525686323642730712890625">
        <ele>1029</ele>
        <time>2026-08-21T13:50:51.000Z</time>
        <extensions>
          <ns3:TrackPointExtension>
            <ns3:hr>140</ns3:hr>
            <ns3:cad>0</ns3:cad>
          </ns3:TrackPointExtension>
        </extensions>
      </trkpt>
      <trkpt lat="45.29554297216236591339111328125" lon="-70.830437578260898590087890625">
        <ele>1029.199951171875</ele>
        <time>2026-08-21T13:50:52.000Z</time>
        <extensions>
          <ns3:TrackPointExtension>
            <ns3:hr>140</ns3:hr>
            <ns3:cad>0</ns3:cad>
          </ns3:TrackPointExtension>
        </extensions>
      </trkpt>
      <trkpt lat="45.29554255306720733642578125" lon="-70.83044721744954586029052734375">
        <ele>1029.4000244140625</ele>
        <time>2026-08-21T13:50:53.000Z</time>
        <extensions>
          <ns3:TrackPointExtension>
            <ns3:hr>140</ns3:hr>
            <ns3:cad>0</ns3:cad>
          </ns3:TrackPointExtension>
        </extensions>
      </trkpt>
      <trkpt lat="45.29554364271461963653564453125" lon="-70.83044688217341899871826171875">
        <ele>1029.5999755859375</ele>
        <time>2026-08-21T13:50:54.000Z</time>
        <extensions>
          <ns3:TrackPointExtension>
            <ns3:hr>140</ns3:hr>
            <ns3:cad>0</ns3:cad>
          </ns3:TrackPointExtension>
        </extensions>
      </trkpt>
      <trkpt lat="45.29554347507655620574951171875" lon="-70.830447971820831298828125">
        <ele>1029.800048828125</ele>
        <time>2026-08-21T13:50:55.000Z</time>
        <extensions>
          <ns3:TrackPointExtension>
            <ns3:hr>140</ns3:hr>
            <ns3:cad>0</ns3:cad>
          </ns3:TrackPointExtension>
        </extensions>
      </trkpt>
      <trkpt lat="45.29554213397204875946044921875" lon="-70.830460377037525177001953125">
        <ele>1030</ele>
        <time>2026-08-21T13:50:56.000Z</time>
        <extensions>
          <ns3:TrackPointExtension>
            <ns3:hr>140</ns3:hr>
            <ns3:cad>0</ns3:cad>
          </ns3:TrackPointExtension>
        </extensions>
      </trkpt>
      <trkpt lat="45.295538865029811859130859375" lon="-70.8304729498922824859619140625">
        <ele>1030.199951171875</ele>
        <time>2026-08-21T13:50:57.000Z</time>
        <extensions>
          <ns3:TrackPointExtension>
            <ns3:hr>140</ns3:hr>
            <ns3:cad>0</ns3:cad>
          </ns3:TrackPointExtension>
        </extensions>
      </trkpt>
      <trkpt lat="45.295538865029811859130859375" lon="-70.83047990687191486358642578125">
        <ele>1030.4000244140625</ele>
        <time>2026-08-21T13:50:58.000Z</time>
        <extensions>
          <ns3:TrackPointExtension>
            <ns3:hr>141</ns3:hr>
            <ns3:cad>0</ns3:cad>
          </ns3:TrackPointExtension>
        </extensions>
      </trkpt>
      <trkpt lat="45.2955370210111141204833984375" lon="-70.83049155771732330322265625">
        <ele>1030.4000244140625</ele>
        <time>2026-08-21T13:50:59.000Z</time>
        <extensions>
          <ns3:TrackPointExtension>
            <ns3:hr>142</ns3:hr>
            <ns3:cad>0</ns3:cad>
          </ns3:TrackPointExtension>
        </extensions>
      </trkpt>
      <trkpt lat="45.29553777538239955902099609375" lon="-70.83049382083117961883544921875">
        <ele>1030.5999755859375</ele>
        <time>2026-08-21T13:51:00.000Z</time>
        <extensions>
          <ns3:TrackPointExtension>
            <ns3:hr>142</ns3:hr>
            <ns3:cad>0</ns3:cad>
          </ns3:TrackPointExtension>
        </extensions>
      </trkpt>
      <trkpt lat="45.29553408734500408172607421875" lon="-70.83049063570797443389892578125">
        <ele>1030.800048828125</ele>
        <time>2026-08-21T13:51:01.000Z</time>
        <extensions>
          <ns3:TrackPointExtension>
            <ns3:hr>144</ns3:hr>
            <ns3:cad>0</ns3:cad>
          </ns3:TrackPointExtension>
        </extensions>
      </trkpt>
      <trkpt lat="45.2955333329737186431884765625" lon="-70.83048376254737377166748046875">
        <ele>1031</ele>
        <time>2026-08-21T13:51:02.000Z</time>
        <extensions>
          <ns3:TrackPointExtension>
            <ns3:hr>144</ns3:hr>
            <ns3:cad>0</ns3:cad>
          </ns3:TrackPointExtension>
        </extensions>
      </trkpt>
      <trkpt lat="45.29553324915468692779541015625" lon="-70.8304870314896106719970703125">
        <ele>1031</ele>
        <time>2026-08-21T13:51:03.000Z</time>
        <extensions>
          <ns3:TrackPointExtension>
            <ns3:hr>145</ns3:hr>
            <ns3:cad>0</ns3:cad>
          </ns3:TrackPointExtension>
        </extensions>
      </trkpt>
      <trkpt lat="45.29553576372563838958740234375" lon="-70.8304853551089763641357421875">
        <ele>1031.199951171875</ele>
        <time>2026-08-21T13:51:04.000Z</time>
        <extensions>
          <ns3:TrackPointExtension>
            <ns3:hr>147</ns3:hr>
            <ns3:cad>0</ns3:cad>
          </ns3:TrackPointExtension>
        </extensions>
      </trkpt>
      <trkpt lat="45.295536853373050689697265625" lon="-70.83048359490931034088134765625">
        <ele>1031.199951171875</ele>
        <time>2026-08-21T13:51:05.000Z</time>
        <extensions>
          <ns3:TrackPointExtension>
            <ns3:hr>147</ns3:hr>
            <ns3:cad>0</ns3:cad>
          </ns3:TrackPointExtension>
        </extensions>
      </trkpt>
      <trkpt lat="45.2955356799066066741943359375" lon="-70.83048284053802490234375">
        <ele>1031.199951171875</ele>
        <time>2026-08-21T13:51:06.000Z</time>
        <extensions>
          <ns3:TrackPointExtension>
            <ns3:hr>148</ns3:hr>
            <ns3:cad>0</ns3:cad>
          </ns3:TrackPointExtension>
        </extensions>
      </trkpt>
      <trkpt lat="45.29553316533565521240234375" lon="-70.83048351109027862548828125">
        <ele>1031.4000244140625</ele>
        <time>2026-08-21T13:51:07.000Z</time>
        <extensions>
          <ns3:TrackPointExtension>
            <ns3:hr>148</ns3:hr>
            <ns3:cad>0</ns3:cad>
          </ns3:TrackPointExtension>
        </extensions>
      </trkpt>
      <trkpt lat="45.29553291387856006622314453125" lon="-70.83048510365188121795654296875">
        <ele>1031.5999755859375</ele>
        <time>2026-08-21T13:51:08.000Z</time>
        <extensions>
          <ns3:TrackPointExtension>
            <ns3:hr>148</ns3:hr>
            <ns3:cad>0</ns3:cad>
          </ns3:TrackPointExtension>
        </extensions>
      </trkpt>
      <trkpt lat="45.29553207568824291229248046875" lon="-70.83049130626022815704345703125">
        <ele>1031.800048828125</ele>
        <time>2026-08-21T13:51:09.000Z</time>
        <extensions>
          <ns3:TrackPointExtension>
            <ns3:hr>148</ns3:hr>
            <ns3:cad>0</ns3:cad>
          </ns3:TrackPointExtension>
        </extensions>
      </trkpt>
      <trkpt lat="45.29553023166954517364501953125" lon="-70.83049532957375049591064453125">
        <ele>1032.199951171875</ele>
        <time>2026-08-21T13:51:10.000Z</time>
        <extensions>
          <ns3:TrackPointExtension>
            <ns3:hr>148</ns3:hr>
            <ns3:cad>0</ns3:cad>
          </ns3:TrackPointExtension>
        </extensions>
      </trkpt>
      <trkpt lat="45.295530147850513458251953125" lon="-70.83049583248794078826904296875">
        <ele>1032.4000244140625</ele>
        <time>2026-08-21T13:51:11.000Z</time>
        <extensions>
          <ns3:TrackPointExtension>
            <ns3:hr>148</ns3:hr>
            <ns3:cad>0</ns3:cad>
          </ns3:TrackPointExtension>
        </extensions>
      </trkpt>
      <trkpt lat="45.29552922584116458892822265625" lon="-70.83050153218209743499755859375">
        <ele>1032.5999755859375</ele>
        <time>2026-08-21T13:51:12.000Z</time>
        <extensions>
          <ns3:TrackPointExtension>
            <ns3:hr>148</ns3:hr>
            <ns3:cad>0</ns3:cad>
          </ns3:TrackPointExtension>
        </extensions>
      </trkpt>
      <trkpt lat="45.2955271303653717041015625" lon="-70.83050957880914211273193359375">
        <ele>1032.800048828125</ele>
        <time>2026-08-21T13:51:13.000Z</time>
        <extensions>
          <ns3:TrackPointExtension>
            <ns3:hr>148</ns3:hr>
            <ns3:cad>0</ns3:cad>
          </ns3:TrackPointExtension>
        </extensions>
      </trkpt>
      <trkpt lat="45.2955296449363231658935546875" lon="-70.830516703426837921142578125">
        <ele>1033</ele>
        <time>2026-08-21T13:51:14.000Z</time>
        <extensions>
          <ns3:TrackPointExtension>
            <ns3:hr>148</ns3:hr>
            <ns3:cad>0</ns3:cad>
          </ns3:TrackPointExtension>
        </extensions>
      </trkpt>
      <trkpt lat="45.2955309860408306121826171875" lon="-70.83052433095872402191162109375">
        <ele>1033.199951171875</ele>
        <time>2026-08-21T13:51:15.000Z</time>
        <extensions>
          <ns3:TrackPointExtension>
            <ns3:hr>148</ns3:hr>
            <ns3:cad>0</ns3:cad>
          </ns3:TrackPointExtension>
        </extensions>
      </trkpt>
      <trkpt lat="45.29553291387856006622314453125" lon="-70.8305405080318450927734375">
        <ele>1033.4000244140625</ele>
        <time>2026-08-21T13:51:16.000Z</time>
        <extensions>
          <ns3:TrackPointExtension>
            <ns3:hr>148</ns3:hr>
            <ns3:cad>0</ns3:cad>
          </ns3:TrackPointExtension>
        </extensions>
      </trkpt>
      <trkpt lat="45.2955343388020992279052734375" lon="-70.83054981194436550140380859375">
        <ele>1033.5999755859375</ele>
        <time>2026-08-21T13:51:17.000Z</time>
        <extensions>
          <ns3:TrackPointExtension>
            <ns3:hr>148</ns3:hr>
            <ns3:cad>0</ns3:cad>
          </ns3:TrackPointExtension>
        </extensions>
      </trkpt>
      <trkpt lat="45.29553358443081378936767578125" lon="-70.8305591158568859100341796875">
        <ele>1033.800048828125</ele>
        <time>2026-08-21T13:51:18.000Z</time>
        <extensions>
          <ns3:TrackPointExtension>
            <ns3:hr>148</ns3:hr>
            <ns3:cad>0</ns3:cad>
          </ns3:TrackPointExtension>
        </extensions>
      </trkpt>
      <trkpt lat="45.295532830059528350830078125" lon="-70.83056808449327945709228515625">
        <ele>1034</ele>
        <time>2026-08-21T13:51:19.000Z</time>
        <extensions>
          <ns3:TrackPointExtension>
            <ns3:hr>148</ns3:hr>
            <ns3:cad>0</ns3:cad>
          </ns3:TrackPointExtension>
        </extensions>
      </trkpt>
      <trkpt lat="45.29553676955401897430419921875" lon="-70.8305852673947811126708984375">
        <ele>1034.4000244140625</ele>
        <time>2026-08-21T13:51:20.000Z</time>
        <extensions>
          <ns3:TrackPointExtension>
            <ns3:hr>148</ns3:hr>
            <ns3:cad>0</ns3:cad>
          </ns3:TrackPointExtension>
        </extensions>
      </trkpt>
      <trkpt lat="45.2955386973917484283447265625" lon="-70.8305859379470348358154296875">
        <ele>1034.5999755859375</ele>
        <time>2026-08-21T13:51:21.000Z</time>
        <extensions>
          <ns3:TrackPointExtension>
            <ns3:hr>148</ns3:hr>
            <ns3:cad>0</ns3:cad>
          </ns3:TrackPointExtension>
        </extensions>
      </trkpt>
      <trkpt lat="45.29553894884884357452392578125" lon="-70.83059155382215976715087890625">
        <ele>1034.800048828125</ele>
        <time>2026-08-21T13:51:22.000Z</time>
        <extensions>
          <ns3:TrackPointExtension>
            <ns3:hr>149</ns3:hr>
            <ns3:cad>0</ns3:cad>
          </ns3:TrackPointExtension>
        </extensions>
      </trkpt>
      <trkpt lat="45.29553978703916072845458984375" lon="-70.83059909753501415252685546875">
        <ele>1035</ele>
        <time>2026-08-21T13:51:23.000Z</time>
        <extensions>
          <ns3:TrackPointExtension>
            <ns3:hr>148</ns3:hr>
            <ns3:cad>0</ns3:cad>
          </ns3:TrackPointExtension>
        </extensions>
      </trkpt>
      <trkpt lat="45.29553928412497043609619140625" lon="-70.8305970020592212677001953125">
        <ele>1035.199951171875</ele>
        <time>2026-08-21T13:51:24.000Z</time>
        <extensions>
          <ns3:TrackPointExtension>
            <ns3:hr>148</ns3:hr>
            <ns3:cad>0</ns3:cad>
          </ns3:TrackPointExtension>
        </extensions>
      </trkpt>
      <trkpt lat="45.29553928412497043609619140625" lon="-70.83059909753501415252685546875">
        <ele>1035.4000244140625</ele>
        <time>2026-08-21T13:51:25.000Z</time>
        <extensions>
          <ns3:TrackPointExtension>
            <ns3:hr>148</ns3:hr>
            <ns3:cad>0</ns3:cad>
          </ns3:TrackPointExtension>
        </extensions>
      </trkpt>
      <trkpt lat="45.29553878121078014373779296875" lon="-70.83059960044920444488525390625">
        <ele>1035.5999755859375</ele>
        <time>2026-08-21T13:51:26.000Z</time>
        <extensions>
          <ns3:TrackPointExtension>
            <ns3:hr>148</ns3:hr>
            <ns3:cad>0</ns3:cad>
          </ns3:TrackPointExtension>
        </extensions>
      </trkpt>
      <trkpt lat="45.2955383621156215667724609375" lon="-70.8306097425520420074462890625">
        <ele>1035.800048828125</ele>
        <time>2026-08-21T13:51:27.000Z</time>
        <extensions>
          <ns3:TrackPointExtension>
            <ns3:hr>148</ns3:hr>
            <ns3:cad>0</ns3:cad>
          </ns3:TrackPointExtension>
        </extensions>
      </trkpt>
      <trkpt lat="45.295537523925304412841796875" lon="-70.8306114189326763153076171875">
        <ele>1036</ele>
        <time>2026-08-21T13:51:28.000Z</time>
        <extensions>
          <ns3:TrackPointExtension>
            <ns3:hr>149</ns3:hr>
            <ns3:cad>0</ns3:cad>
          </ns3:TrackPointExtension>
        </extensions>
      </trkpt>
      <trkpt lat="45.295536853373050689697265625" lon="-70.83061452023684978485107421875">
        <ele>1036.199951171875</ele>
        <time>2026-08-21T13:51:29.000Z</time>
        <extensions>
          <ns3:TrackPointExtension>
            <ns3:hr>149</ns3:hr>
            <ns3:cad>0</ns3:cad>
          </ns3:TrackPointExtension>
        </extensions>
      </trkpt>
      <trkpt lat="45.29553660191595554351806640625" lon="-70.83061452023684978485107421875">
        <ele>1036.4000244140625</ele>
        <time>2026-08-21T13:51:30.000Z</time>
        <extensions>
          <ns3:TrackPointExtension>
            <ns3:hr>150</ns3:hr>
            <ns3:cad>0</ns3:cad>
          </ns3:TrackPointExtension>
        </extensions>
      </trkpt>
      <trkpt lat="45.29553660191595554351806640625" lon="-70.83061435259878635406494140625">
        <ele>1036.5999755859375</ele>
        <time>2026-08-21T13:51:31.000Z</time>
        <extensions>
          <ns3:TrackPointExtension>
            <ns3:hr>150</ns3:hr>
            <ns3:cad>0</ns3:cad>
          </ns3:TrackPointExtension>
        </extensions>
      </trkpt>
      <trkpt lat="45.29553375206887722015380859375" lon="-70.83061552606523036956787109375">
        <ele>1036.5999755859375</ele>
        <time>2026-08-21T13:51:32.000Z</time>
        <extensions>
          <ns3:TrackPointExtension>
            <ns3:hr>150</ns3:hr>
            <ns3:cad>0</ns3:cad>
          </ns3:TrackPointExtension>
        </extensions>
      </trkpt>
      <trkpt lat="45.29552922584116458892822265625" lon="-70.83061452023684978485107421875">
        <ele>1036.800048828125</ele>
        <time>2026-08-21T13:51:33.000Z</time>
        <extensions>
          <ns3:TrackPointExtension>
            <ns3:hr>150</ns3:hr>
            <ns3:cad>0</ns3:cad>
          </ns3:TrackPointExtension>
        </extensions>
      </trkpt>
      <trkpt lat="45.29552704654633998870849609375" lon="-70.83061887882649898529052734375">
        <ele>1037</ele>
        <time>2026-08-21T13:51:34.000Z</time>
        <extensions>
          <ns3:TrackPointExtension>
            <ns3:hr>150</ns3:hr>
            <ns3:cad>0</ns3:cad>
          </ns3:TrackPointExtension>
        </extensions>
      </trkpt>
      <trkpt lat="45.2955271303653717041015625" lon="-70.83062164485454559326171875">
        <ele>1037</ele>
        <time>2026-08-21T13:51:35.000Z</time>
        <extensions>
          <ns3:TrackPointExtension>
            <ns3:hr>150</ns3:hr>
            <ns3:cad>0</ns3:cad>
          </ns3:TrackPointExtension>
        </extensions>
      </trkpt>
      <trkpt lat="45.2955283038318157196044921875" lon="-70.8306208066642284393310546875">
        <ele>1037.199951171875</ele>
        <time>2026-08-21T13:51:36.000Z</time>
        <extensions>
          <ns3:TrackPointExtension>
            <ns3:hr>150</ns3:hr>
            <ns3:cad>0</ns3:cad>
          </ns3:TrackPointExtension>
        </extensions>
      </trkpt>
      <trkpt lat="45.295528471469879150390625" lon="-70.83062206394970417022705078125">
        <ele>1037.4000244140625</ele>
        <time>2026-08-21T13:51:37.000Z</time>
        <extensions>
          <ns3:TrackPointExtension>
            <ns3:hr>150</ns3:hr>
            <ns3:cad>0</ns3:cad>
          </ns3:TrackPointExtension>
        </extensions>
      </trkpt>
      <trkpt lat="45.29553660191595554351806640625" lon="-70.83061452023684978485107421875">
        <ele>1037.4000244140625</ele>
        <time>2026-08-21T13:51:38.000Z</time>
        <extensions>
          <ns3:TrackPointExtension>
            <ns3:hr>150</ns3:hr>
            <ns3:cad>0</ns3:cad>
          </ns3:TrackPointExtension>
        </extensions>
      </trkpt>
      <trkpt lat="45.29553660191595554351806640625" lon="-70.83061452023684978485107421875">
        <ele>1037.4000244140625</ele>
        <time>2026-08-21T13:51:39.000Z</time>
        <extensions>
          <ns3:TrackPointExtension>
            <ns3:hr>150</ns3:hr>
            <ns3:cad>0</ns3:cad>
          </ns3:TrackPointExtension>
        </extensions>
      </trkpt>
      <trkpt lat="45.29553660191595554351806640625" lon="-70.83061452023684978485107421875">
        <ele>1037.5999755859375</ele>
        <time>2026-08-21T13:51:40.000Z</time>
        <extensions>
          <ns3:TrackPointExtension>
            <ns3:hr>151</ns3:hr>
            <ns3:cad>0</ns3:cad>
          </ns3:TrackPointExtension>
        </extensions>
      </trkpt>
      <trkpt lat="45.29553660191595554351806640625" lon="-70.83061452023684978485107421875">
        <ele>1037.800048828125</ele>
        <time>2026-08-21T13:51:41.000Z</time>
        <extensions>
          <ns3:TrackPointExtension>
            <ns3:hr>151</ns3:hr>
            <ns3:cad>0</ns3:cad>
          </ns3:TrackPointExtension>
        </extensions>
      </trkpt>
      <trkpt lat="45.29553660191595554351806640625" lon="-70.83061452023684978485107421875">
        <ele>1038.199951171875</ele>
        <time>2026-08-21T13:51:42.000Z</time>
        <extensions>
          <ns3:TrackPointExtension>
            <ns3:hr>151</ns3:hr>
            <ns3:cad>0</ns3:cad>
          </ns3:TrackPointExtension>
        </extensions>
      </trkpt>
      <trkpt lat="45.29553660191595554351806640625" lon="-70.83061452023684978485107421875">
        <ele>1038.4000244140625</ele>
        <time>2026-08-21T13:51:43.000Z</time>
        <extensions>
          <ns3:TrackPointExtension>
            <ns3:hr>152</ns3:hr>
            <ns3:cad>0</ns3:cad>
          </ns3:TrackPointExtension>
        </extensions>
      </trkpt>
      <trkpt lat="45.29553660191595554351806640625" lon="-70.83061452023684978485107421875">
        <ele>1038.5999755859375</ele>
        <time>2026-08-21T13:51:44.000Z</time>
        <extensions>
          <ns3:TrackPointExtension>
            <ns3:hr>152</ns3:hr>
            <ns3:cad>0</ns3:cad>
          </ns3:TrackPointExtension>
        </extensions>
      </trkpt>
      <trkpt lat="45.29552989639341831207275390625" lon="-70.83062876947224140167236328125">
        <ele>1038.800048828125</ele>
        <time>2026-08-21T13:51:45.000Z</time>
        <extensions>
          <ns3:TrackPointExtension>
            <ns3:hr>152</ns3:hr>
            <ns3:cad>0</ns3:cad>
          </ns3:TrackPointExtension>
        </extensions>
      </trkpt>
      <trkpt lat="45.29552780091762542724609375" lon="-70.8306345529854297637939453125">
        <ele>1038.800048828125</ele>
        <time>2026-08-21T13:51:46.000Z</time>
        <extensions>
          <ns3:TrackPointExtension>
            <ns3:hr>151</ns3:hr>
            <ns3:cad>0</ns3:cad>
          </ns3:TrackPointExtension>
        </extensions>
      </trkpt>
      <trkpt lat="45.29552604071795940399169921875" lon="-70.830645449459552764892578125">
        <ele>1039</ele>
        <time>2026-08-21T13:51:47.000Z</time>
        <extensions>
          <ns3:TrackPointExtension>
            <ns3:hr>151</ns3:hr>
            <ns3:cad>0</ns3:cad>
          </ns3:TrackPointExtension>
        </extensions>
      </trkpt>
      <trkpt lat="45.29552570544183254241943359375" lon="-70.83065106533467769622802734375">
        <ele>1039.199951171875</ele>
        <time>2026-08-21T13:51:48.000Z</time>
        <extensions>
          <ns3:TrackPointExtension>
            <ns3:hr>151</ns3:hr>
            <ns3:cad>0</ns3:cad>
          </ns3:TrackPointExtension>
        </extensions>
      </trkpt>
      <trkpt lat="45.29552872292697429656982421875" lon="-70.830653496086597442626953125">
        <ele>1039.199951171875</ele>
        <time>2026-08-21T13:51:49.000Z</time>
        <extensions>
          <ns3:TrackPointExtension>
            <ns3:hr>150</ns3:hr>
            <ns3:cad>0</ns3:cad>
          </ns3:TrackPointExtension>
        </extensions>
      </trkpt>
      <trkpt lat="45.2955299802124500274658203125" lon="-70.83066414110362529754638671875">
        <ele>1039.4000244140625</ele>
        <time>2026-08-21T13:51:50.000Z</time>
        <extensions>
          <ns3:TrackPointExtension>
            <ns3:hr>150</ns3:hr>
            <ns3:cad>0</ns3:cad>
          </ns3:TrackPointExtension>
        </extensions>
      </trkpt>
      <trkpt lat="45.295530818402767181396484375" lon="-70.8306714333593845367431640625">
        <ele>1039.5999755859375</ele>
        <time>2026-08-21T13:51:51.000Z</time>
        <extensions>
          <ns3:TrackPointExtension>
            <ns3:hr>150</ns3:hr>
            <ns3:cad>0</ns3:cad>
          </ns3:TrackPointExtension>
        </extensions>
      </trkpt>
      <trkpt lat="45.29552889056503772735595703125" lon="-70.8306744508445262908935546875">
        <ele>1039.800048828125</ele>
        <time>2026-08-21T13:51:52.000Z</time>
        <extensions>
          <ns3:TrackPointExtension>
            <ns3:hr>150</ns3:hr>
            <ns3:cad>0</ns3:cad>
          </ns3:TrackPointExtension>
        </extensions>
      </trkpt>
      <trkpt lat="45.29552822001278400421142578125" lon="-70.83068056963384151458740234375">
        <ele>1040</ele>
        <time>2026-08-21T13:51:53.000Z</time>
        <extensions>
          <ns3:TrackPointExtension>
            <ns3:hr>150</ns3:hr>
            <ns3:cad>0</ns3:cad>
          </ns3:TrackPointExtension>
        </extensions>
      </trkpt>
      <trkpt lat="45.29552570544183254241943359375" lon="-70.830678641796112060546875">
        <ele>1040.199951171875</ele>
        <time>2026-08-21T13:51:54.000Z</time>
        <extensions>
          <ns3:TrackPointExtension>
            <ns3:hr>151</ns3:hr>
            <ns3:cad>0</ns3:cad>
          </ns3:TrackPointExtension>
        </extensions>
      </trkpt>
      <trkpt lat="45.295524783432483673095703125" lon="-70.8306764625012874603271484375">
        <ele>1040.4000244140625</ele>
        <time>2026-08-21T13:51:55.000Z</time>
        <extensions>
          <ns3:TrackPointExtension>
            <ns3:hr>150</ns3:hr>
            <ns3:cad>0</ns3:cad>
          </ns3:TrackPointExtension>
        </extensions>
      </trkpt>
      <trkpt lat="45.295521430671215057373046875" lon="-70.8306848444044589996337890625">
        <ele>1040.5999755859375</ele>
        <time>2026-08-21T13:51:56.000Z</time>
        <extensions>
          <ns3:TrackPointExtension>
            <ns3:hr>150</ns3:hr>
            <ns3:cad>0</ns3:cad>
          </ns3:TrackPointExtension>
        </extensions>
      </trkpt>
      <trkpt lat="45.2955189161002635955810546875" lon="-70.83068995736539363861083984375">
        <ele>1040.800048828125</ele>
        <time>2026-08-21T13:51:57.000Z</time>
        <extensions>
          <ns3:TrackPointExtension>
            <ns3:hr>152</ns3:hr>
            <ns3:cad>0</ns3:cad>
          </ns3:TrackPointExtension>
        </extensions>
      </trkpt>
      <trkpt lat="45.29551983810961246490478515625" lon="-70.8306826651096343994140625">
        <ele>1041</ele>
        <time>2026-08-21T13:51:58.000Z</time>
        <extensions>
          <ns3:TrackPointExtension>
            <ns3:hr>152</ns3:hr>
            <ns3:cad>0</ns3:cad>
          </ns3:TrackPointExtension>
        </extensions>
      </trkpt>
      <trkpt lat="45.29551648534834384918212890625" lon="-70.83068325184285640716552734375">
        <ele>1041.199951171875</ele>
        <time>2026-08-21T13:51:59.000Z</time>
        <extensions>
          <ns3:TrackPointExtension>
            <ns3:hr>152</ns3:hr>
            <ns3:cad>0</ns3:cad>
          </ns3:TrackPointExtension>
        </extensions>
      </trkpt>
      <trkpt lat="45.29551179148256778717041015625" lon="-70.8306826651096343994140625">
        <ele>1041.4000244140625</ele>
        <time>2026-08-21T13:52:00.000Z</time>
        <extensions>
          <ns3:TrackPointExtension>
            <ns3:hr>152</ns3:hr>
            <ns3:cad>0</ns3:cad>
          </ns3:TrackPointExtension>
        </extensions>
      </trkpt>
      <trkpt lat="45.29551078565418720245361328125" lon="-70.83067989908158779144287109375">
        <ele>1041.4000244140625</ele>
        <time>2026-08-21T13:52:01.000Z</time>
        <extensions>
          <ns3:TrackPointExtension>
            <ns3:hr>153</ns3:hr>
            <ns3:cad>0</ns3:cad>
          </ns3:TrackPointExtension>
        </extensions>
      </trkpt>
      <trkpt lat="45.29550894163548946380615234375" lon="-70.8306808210909366607666015625">
        <ele>1041.5999755859375</ele>
        <time>2026-08-21T13:52:02.000Z</time>
        <extensions>
          <ns3:TrackPointExtension>
            <ns3:hr>152</ns3:hr>
            <ns3:cad>0</ns3:cad>
          </ns3:TrackPointExtension>
        </extensions>
      </trkpt>
      <trkpt lat="45.295510701835155487060546875" lon="-70.830679647624492645263671875">
        <ele>1041.800048828125</ele>
        <time>2026-08-21T13:52:03.000Z</time>
        <extensions>
          <ns3:TrackPointExtension>
            <ns3:hr>152</ns3:hr>
            <ns3:cad>0</ns3:cad>
          </ns3:TrackPointExtension>
        </extensions>
      </trkpt>
      <trkpt lat="45.29551011510193347930908203125" lon="-70.83067470230162143707275390625">
        <ele>1042</ele>
        <time>2026-08-21T13:52:04.000Z</time>
        <extensions>
          <ns3:TrackPointExtension>
            <ns3:hr>152</ns3:hr>
            <ns3:cad>0</ns3:cad>
          </ns3:TrackPointExtension>
        </extensions>
      </trkpt>
      <trkpt lat="45.29550927691161632537841796875" lon="-70.83067721687257289886474609375">
        <ele>1042</ele>
        <time>2026-08-21T13:52:05.000Z</time>
        <extensions>
          <ns3:TrackPointExtension>
            <ns3:hr>152</ns3:hr>
            <ns3:cad>0</ns3:cad>
          </ns3:TrackPointExtension>
        </extensions>
      </trkpt>
      <trkpt lat="45.29550877399742603302001953125" lon="-70.83068626932799816131591796875">
        <ele>1042.199951171875</ele>
        <time>2026-08-21T13:52:06.000Z</time>
        <extensions>
          <ns3:TrackPointExtension>
            <ns3:hr>153</ns3:hr>
            <ns3:cad>0</ns3:cad>
          </ns3:TrackPointExtension>
        </extensions>
      </trkpt>
      <trkpt lat="45.29550609178841114044189453125" lon="-70.83069046027958393096923828125">
        <ele>1042.4000244140625</ele>
        <time>2026-08-21T13:52:07.000Z</time>
        <extensions>
          <ns3:TrackPointExtension>
            <ns3:hr>153</ns3:hr>
            <ns3:cad>0</ns3:cad>
          </ns3:TrackPointExtension>
        </extensions>
      </trkpt>
      <trkpt lat="45.29550642706453800201416015625" lon="-70.83068870007991790771484375">
        <ele>1042.4000244140625</ele>
        <time>2026-08-21T13:52:08.000Z</time>
        <extensions>
          <ns3:TrackPointExtension>
            <ns3:hr>153</ns3:hr>
            <ns3:cad>0</ns3:cad>
          </ns3:TrackPointExtension>
        </extensions>
      </trkpt>
      <trkpt lat="45.29550575651228427886962890625" lon="-70.83068911917507648468017578125">
        <ele>1042.5999755859375</ele>
        <time>2026-08-21T13:52:09.000Z</time>
        <extensions>
          <ns3:TrackPointExtension>
            <ns3:hr>152</ns3:hr>
            <ns3:cad>0</ns3:cad>
          </ns3:TrackPointExtension>
        </extensions>
      </trkpt>
      <trkpt lat="45.295507013797760009765625" lon="-70.830683670938014984130859375">
        <ele>1042.800048828125</ele>
        <time>2026-08-21T13:52:10.000Z</time>
        <extensions>
          <ns3:TrackPointExtension>
            <ns3:hr>152</ns3:hr>
            <ns3:cad>0</ns3:cad>
          </ns3:TrackPointExtension>
        </extensions>
      </trkpt>
      <trkpt lat="45.2955078519880771636962890625" lon="-70.83068073727190494537353515625">
        <ele>1043</ele>
        <time>2026-08-21T13:52:11.000Z</time>
        <extensions>
          <ns3:TrackPointExtension>
            <ns3:hr>152</ns3:hr>
            <ns3:cad>0</ns3:cad>
          </ns3:TrackPointExtension>
        </extensions>
      </trkpt>
      <trkpt lat="45.29550894163548946380615234375" lon="-70.83068442530930042266845703125">
        <ele>1043.199951171875</ele>
        <time>2026-08-21T13:52:12.000Z</time>
        <extensions>
          <ns3:TrackPointExtension>
            <ns3:hr>152</ns3:hr>
            <ns3:cad>0</ns3:cad>
          </ns3:TrackPointExtension>
        </extensions>
      </trkpt>
      <trkpt lat="45.29550642706453800201416015625" lon="-70.83068467676639556884765625">
        <ele>1043.4000244140625</ele>
        <time>2026-08-21T13:52:13.000Z</time>
        <extensions>
          <ns3:TrackPointExtension>
            <ns3:hr>152</ns3:hr>
            <ns3:cad>0</ns3:cad>
          </ns3:TrackPointExtension>
        </extensions>
      </trkpt>
      <trkpt lat="45.2955004759132862091064453125" lon="-70.8306841738522052764892578125">
        <ele>1043.5999755859375</ele>
        <time>2026-08-21T13:52:14.000Z</time>
        <extensions>
          <ns3:TrackPointExtension>
            <ns3:hr>152</ns3:hr>
            <ns3:cad>0</ns3:cad>
          </ns3:TrackPointExtension>
        </extensions>
      </trkpt>
      <trkpt lat="45.295494608581066131591796875" lon="-70.8306845091283321380615234375">
        <ele>1043.5999755859375</ele>
        <time>2026-08-21T13:52:15.000Z</time>
        <extensions>
          <ns3:TrackPointExtension>
            <ns3:hr>152</ns3:hr>
            <ns3:cad>0</ns3:cad>
          </ns3:TrackPointExtension>
        </extensions>
      </trkpt>
      <trkpt lat="45.29549402184784412384033203125" lon="-70.83068744279444217681884765625">
        <ele>1043.800048828125</ele>
        <time>2026-08-21T13:52:16.000Z</time>
        <extensions>
          <ns3:TrackPointExtension>
            <ns3:hr>153</ns3:hr>
            <ns3:cad>0</ns3:cad>
          </ns3:TrackPointExtension>
        </extensions>
      </trkpt>
      <trkpt lat="45.295490920543670654296875" lon="-70.83068794570863246917724609375">
        <ele>1044</ele>
        <time>2026-08-21T13:52:17.000Z</time>
        <extensions>
          <ns3:TrackPointExtension>
            <ns3:hr>153</ns3:hr>
            <ns3:cad>0</ns3:cad>
          </ns3:TrackPointExtension>
        </extensions>
      </trkpt>
      <trkpt lat="45.2954867295920848846435546875" lon="-70.830690376460552215576171875">
        <ele>1044.199951171875</ele>
        <time>2026-08-21T13:52:18.000Z</time>
        <extensions>
          <ns3:TrackPointExtension>
            <ns3:hr>153</ns3:hr>
            <ns3:cad>0</ns3:cad>
          </ns3:TrackPointExtension>
        </extensions>
      </trkpt>
      <trkpt lat="45.29548077844083309173583984375" lon="-70.8306932263076305389404296875">
        <ele>1044.4000244140625</ele>
        <time>2026-08-21T13:52:19.000Z</time>
        <extensions>
          <ns3:TrackPointExtension>
            <ns3:hr>153</ns3:hr>
            <ns3:cad>0</ns3:cad>
          </ns3:TrackPointExtension>
        </extensions>
      </trkpt>
      <trkpt lat="45.29548010788857936859130859375" lon="-70.83068962208926677703857421875">
        <ele>1044.5999755859375</ele>
        <time>2026-08-21T13:52:20.000Z</time>
        <extensions>
          <ns3:TrackPointExtension>
            <ns3:hr>153</ns3:hr>
            <ns3:cad>0</ns3:cad>
          </ns3:TrackPointExtension>
        </extensions>
      </trkpt>
      <trkpt lat="45.29547952115535736083984375" lon="-70.8306975848972797393798828125">
        <ele>1045</ele>
        <time>2026-08-21T13:52:21.000Z</time>
        <extensions>
          <ns3:TrackPointExtension>
            <ns3:hr>153</ns3:hr>
            <ns3:cad>0</ns3:cad>
          </ns3:TrackPointExtension>
        </extensions>
      </trkpt>
      <trkpt lat="45.2954749949276447296142578125" lon="-70.83070571534335613250732421875">
        <ele>1045.199951171875</ele>
        <time>2026-08-21T13:52:22.000Z</time>
        <extensions>
          <ns3:TrackPointExtension>
            <ns3:hr>152</ns3:hr>
            <ns3:cad>0</ns3:cad>
          </ns3:TrackPointExtension>
        </extensions>
      </trkpt>
      <trkpt lat="45.2954749949276447296142578125" lon="-70.8307056315243244171142578125">
        <ele>1045.5999755859375</ele>
        <time>2026-08-21T13:52:23.000Z</time>
        <extensions>
          <ns3:TrackPointExtension>
            <ns3:hr>152</ns3:hr>
            <ns3:cad>0</ns3:cad>
          </ns3:TrackPointExtension>
        </extensions>
      </trkpt>
      <trkpt lat="45.295474492013454437255859375" lon="-70.83070077002048492431640625">
        <ele>1045.800048828125</ele>
        <time>2026-08-21T13:52:24.000Z</time>
        <extensions>
          <ns3:TrackPointExtension>
            <ns3:hr>152</ns3:hr>
            <ns3:cad>0</ns3:cad>
          </ns3:TrackPointExtension>
        </extensions>
      </trkpt>
      <trkpt lat="45.295477844774723052978515625" lon="-70.830696411430835723876953125">
        <ele>1046</ele>
        <time>2026-08-21T13:52:25.000Z</time>
        <extensions>
          <ns3:TrackPointExtension>
            <ns3:hr>152</ns3:hr>
            <ns3:cad>0</ns3:cad>
          </ns3:TrackPointExtension>
        </extensions>
      </trkpt>
      <trkpt lat="45.29547574929893016815185546875" lon="-70.83069113083183765411376953125">
        <ele>1046.199951171875</ele>
        <time>2026-08-21T13:52:26.000Z</time>
        <extensions>
          <ns3:TrackPointExtension>
            <ns3:hr>152</ns3:hr>
            <ns3:cad>0</ns3:cad>
          </ns3:TrackPointExtension>
        </extensions>
      </trkpt>
      <trkpt lat="45.2954706363379955291748046875" lon="-70.83069263957440853118896484375">
        <ele>1046.4000244140625</ele>
        <time>2026-08-21T13:52:27.000Z</time>
        <extensions>
          <ns3:TrackPointExtension>
            <ns3:hr>152</ns3:hr>
            <ns3:cad>0</ns3:cad>
          </ns3:TrackPointExtension>
        </extensions>
      </trkpt>
      <trkpt lat="45.2954629249870777130126953125" lon="-70.8306925557553768157958984375">
        <ele>1046.5999755859375</ele>
        <time>2026-08-21T13:52:28.000Z</time>
        <extensions>
          <ns3:TrackPointExtension>
            <ns3:hr>153</ns3:hr>
            <ns3:cad>0</ns3:cad>
          </ns3:TrackPointExtension>
        </extensions>
      </trkpt>
      <trkpt lat="45.295454375445842742919921875" lon="-70.83069498650729656219482421875">
        <ele>1047</ele>
        <time>2026-08-21T13:52:29.000Z</time>
        <extensions>
          <ns3:TrackPointExtension>
            <ns3:hr>152</ns3:hr>
            <ns3:cad>0</ns3:cad>
          </ns3:TrackPointExtension>
        </extensions>
      </trkpt>
      <trkpt lat="45.29544599354267120361328125" lon="-70.83069884218275547027587890625">
        <ele>1047.199951171875</ele>
        <time>2026-08-21T13:52:30.000Z</time>
        <extensions>
          <ns3:TrackPointExtension>
            <ns3:hr>152</ns3:hr>
            <ns3:cad>0</ns3:cad>
          </ns3:TrackPointExtension>
        </extensions>
      </trkpt>
      <trkpt lat="45.2954414673149585723876953125" lon="-70.83070479333400726318359375">
        <ele>1047.4000244140625</ele>
        <time>2026-08-21T13:52:31.000Z</time>
        <extensions>
          <ns3:TrackPointExtension>
            <ns3:hr>152</ns3:hr>
            <ns3:cad>0</ns3:cad>
          </ns3:TrackPointExtension>
        </extensions>
      </trkpt>
      <trkpt lat="45.29544867575168609619140625" lon="-70.83070051856338977813720703125">
        <ele>1047.5999755859375</ele>
        <time>2026-08-21T13:52:32.000Z</time>
        <extensions>
          <ns3:TrackPointExtension>
            <ns3:hr>152</ns3:hr>
            <ns3:cad>0</ns3:cad>
          </ns3:TrackPointExtension>
        </extensions>
      </trkpt>
      <trkpt lat="45.29544943012297153472900390625" lon="-70.8306982554495334625244140625">
        <ele>1047.800048828125</ele>
        <time>2026-08-21T13:52:33.000Z</time>
        <extensions>
          <ns3:TrackPointExtension>
            <ns3:hr>152</ns3:hr>
            <ns3:cad>0</ns3:cad>
          </ns3:TrackPointExtension>
        </extensions>
      </trkpt>
      <trkpt lat="45.29543568380177021026611328125" lon="-70.830713845789432525634765625">
        <ele>1048</ele>
        <time>2026-08-21T13:52:34.000Z</time>
        <extensions>
          <ns3:TrackPointExtension>
            <ns3:hr>152</ns3:hr>
            <ns3:cad>0</ns3:cad>
          </ns3:TrackPointExtension>
        </extensions>
      </trkpt>
      <trkpt lat="45.295426882803440093994140625" lon="-70.83071627654135227203369140625">
        <ele>1048.199951171875</ele>
        <time>2026-08-21T13:52:35.000Z</time>
        <extensions>
          <ns3:TrackPointExtension>
            <ns3:hr>152</ns3:hr>
            <ns3:cad>0</ns3:cad>
          </ns3:TrackPointExtension>
        </extensions>
      </trkpt>
      <trkpt lat="45.2954277209937572479248046875" lon="-70.83073371089994907379150390625">
        <ele>1048.4000244140625</ele>
        <time>2026-08-21T13:52:36.000Z</time>
        <extensions>
          <ns3:TrackPointExtension>
            <ns3:hr>152</ns3:hr>
            <ns3:cad>0</ns3:cad>
          </ns3:TrackPointExtension>
        </extensions>
      </trkpt>
      <trkpt lat="45.29542797245085239410400390625" lon="-70.83074527792632579803466796875">
        <ele>1048.5999755859375</ele>
        <time>2026-08-21T13:52:37.000Z</time>
        <extensions>
          <ns3:TrackPointExtension>
            <ns3:hr>152</ns3:hr>
            <ns3:cad>0</ns3:cad>
          </ns3:TrackPointExtension>
        </extensions>
      </trkpt>
      <trkpt lat="45.2954304032027721405029296875" lon="-70.83075349219143390655517578125">
        <ele>1048.800048828125</ele>
        <time>2026-08-21T13:52:38.000Z</time>
        <extensions>
          <ns3:TrackPointExtension>
            <ns3:hr>152</ns3:hr>
            <ns3:cad>0</ns3:cad>
          </ns3:TrackPointExtension>
        </extensions>
      </trkpt>
      <trkpt lat="45.29542990028858184814453125" lon="-70.830753408372402191162109375">
        <ele>1049</ele>
        <time>2026-08-21T13:52:39.000Z</time>
        <extensions>
          <ns3:TrackPointExtension>
            <ns3:hr>153</ns3:hr>
            <ns3:cad>0</ns3:cad>
          </ns3:TrackPointExtension>
        </extensions>
      </trkpt>
      <trkpt lat="45.29542386531829833984375" lon="-70.83076472394168376922607421875">
        <ele>1049.199951171875</ele>
        <time>2026-08-21T13:52:40.000Z</time>
        <extensions>
          <ns3:TrackPointExtension>
            <ns3:hr>152</ns3:hr>
            <ns3:cad>48</ns3:cad>
          </ns3:TrackPointExtension>
        </extensions>
      </trkpt>
      <trkpt lat="45.29542185366153717041015625" lon="-70.8307673223316669464111328125">
        <ele>1049.199951171875</ele>
        <time>2026-08-21T13:52:41.000Z</time>
        <extensions>
          <ns3:TrackPointExtension>
            <ns3:hr>152</ns3:hr>
            <ns3:cad>48</ns3:cad>
          </ns3:TrackPointExtension>
        </extensions>
      </trkpt>
      <trkpt lat="45.2954185009002685546875" lon="-70.8307850919663906097412109375">
        <ele>1049.4000244140625</ele>
        <time>2026-08-21T13:52:42.000Z</time>
        <extensions>
          <ns3:TrackPointExtension>
            <ns3:hr>152</ns3:hr>
            <ns3:cad>0</ns3:cad>
          </ns3:TrackPointExtension>
        </extensions>
      </trkpt>
      <trkpt lat="45.2954200096428394317626953125" lon="-70.8307887800037860870361328125">
        <ele>1049.800048828125</ele>
        <time>2026-08-21T13:52:43.000Z</time>
        <extensions>
          <ns3:TrackPointExtension>
            <ns3:hr>152</ns3:hr>
            <ns3:cad>0</ns3:cad>
          </ns3:TrackPointExtension>
        </extensions>
      </trkpt>
      <trkpt lat="45.295418165624141693115234375" lon="-70.83079674281179904937744140625">
        <ele>1050</ele>
        <time>2026-08-21T13:52:44.000Z</time>
        <extensions>
          <ns3:TrackPointExtension>
            <ns3:hr>152</ns3:hr>
            <ns3:cad>0</ns3:cad>
          </ns3:TrackPointExtension>
        </extensions>
      </trkpt>
      <trkpt lat="45.29541607014834880828857421875" lon="-70.8308033645153045654296875">
        <ele>1050.199951171875</ele>
        <time>2026-08-21T13:52:45.000Z</time>
        <extensions>
          <ns3:TrackPointExtension>
            <ns3:hr>152</ns3:hr>
            <ns3:cad>0</ns3:cad>
          </ns3:TrackPointExtension>
        </extensions>
      </trkpt>
      <trkpt lat="45.2954096160829067230224609375" lon="-70.83081074059009552001953125">
        <ele>1050.5999755859375</ele>
        <time>2026-08-21T13:52:46.000Z</time>
        <extensions>
          <ns3:TrackPointExtension>
            <ns3:hr>152</ns3:hr>
            <ns3:cad>0</ns3:cad>
          </ns3:TrackPointExtension>
        </extensions>
      </trkpt>
      <trkpt lat="45.29540265910327434539794921875" lon="-70.8308229781687259674072265625">
        <ele>1050.800048828125</ele>
        <time>2026-08-21T13:52:47.000Z</time>
        <extensions>
          <ns3:TrackPointExtension>
            <ns3:hr>152</ns3:hr>
            <ns3:cad>0</ns3:cad>
          </ns3:TrackPointExtension>
        </extensions>
      </trkpt>
      <trkpt lat="45.29539771378040313720703125" lon="-70.830823481082916259765625">
        <ele>1051</ele>
        <time>2026-08-21T13:52:48.000Z</time>
        <extensions>
          <ns3:TrackPointExtension>
            <ns3:hr>153</ns3:hr>
            <ns3:cad>0</ns3:cad>
          </ns3:TrackPointExtension>
        </extensions>
      </trkpt>
      <trkpt lat="45.2953958697617053985595703125" lon="-70.8308353833854198455810546875">
        <ele>1051.199951171875</ele>
        <time>2026-08-21T13:52:49.000Z</time>
        <extensions>
          <ns3:TrackPointExtension>
            <ns3:hr>152</ns3:hr>
            <ns3:cad>0</ns3:cad>
          </ns3:TrackPointExtension>
        </extensions>
      </trkpt>
      <trkpt lat="45.2953965403139591217041015625" lon="-70.83084502257406711578369140625">
        <ele>1051.4000244140625</ele>
        <time>2026-08-21T13:52:50.000Z</time>
        <extensions>
          <ns3:TrackPointExtension>
            <ns3:hr>152</ns3:hr>
            <ns3:cad>0</ns3:cad>
          </ns3:TrackPointExtension>
        </extensions>
      </trkpt>
      <trkpt lat="45.29539503157138824462890625" lon="-70.83085156045854091644287109375">
        <ele>1051.5999755859375</ele>
        <time>2026-08-21T13:52:51.000Z</time>
        <extensions>
          <ns3:TrackPointExtension>
            <ns3:hr>154</ns3:hr>
            <ns3:cad>0</ns3:cad>
          </ns3:TrackPointExtension>
        </extensions>
      </trkpt>
      <trkpt lat="45.29538908042013645172119140625" lon="-70.83086078055202960968017578125">
        <ele>1051.800048828125</ele>
        <time>2026-08-21T13:52:52.000Z</time>
        <extensions>
          <ns3:TrackPointExtension>
            <ns3:hr>155</ns3:hr>
            <ns3:cad>0</ns3:cad>
          </ns3:TrackPointExtension>
        </extensions>
      </trkpt>
      <trkpt lat="45.2953844703733921051025390625" lon="-70.83086262457072734832763671875">
        <ele>1052</ele>
        <time>2026-08-21T13:52:53.000Z</time>
        <extensions>
          <ns3:TrackPointExtension>
            <ns3:hr>155</ns3:hr>
            <ns3:cad>0</ns3:cad>
          </ns3:TrackPointExtension>
        </extensions>
      </trkpt>
      <trkpt lat="45.29538639821112155914306640625" lon="-70.830874778330326080322265625">
        <ele>1052.199951171875</ele>
        <time>2026-08-21T13:52:54.000Z</time>
        <extensions>
          <ns3:TrackPointExtension>
            <ns3:hr>155</ns3:hr>
            <ns3:cad>0</ns3:cad>
          </ns3:TrackPointExtension>
        </extensions>
      </trkpt>
      <trkpt lat="45.295385308563709259033203125" lon="-70.8308811485767364501953125">
        <ele>1052.4000244140625</ele>
        <time>2026-08-21T13:52:55.000Z</time>
        <extensions>
          <ns3:TrackPointExtension>
            <ns3:hr>156</ns3:hr>
            <ns3:cad>0</ns3:cad>
          </ns3:TrackPointExtension>
        </extensions>
      </trkpt>
      <trkpt lat="45.29538438655436038970947265625" lon="-70.830886848270893096923828125">
        <ele>1052.5999755859375</ele>
        <time>2026-08-21T13:52:56.000Z</time>
        <extensions>
          <ns3:TrackPointExtension>
            <ns3:hr>156</ns3:hr>
            <ns3:cad>0</ns3:cad>
          </ns3:TrackPointExtension>
        </extensions>
      </trkpt>
      <trkpt lat="45.29537935741245746612548828125" lon="-70.8308987505733966827392578125">
        <ele>1052.800048828125</ele>
        <time>2026-08-21T13:52:57.000Z</time>
        <extensions>
          <ns3:TrackPointExtension>
            <ns3:hr>156</ns3:hr>
            <ns3:cad>0</ns3:cad>
          </ns3:TrackPointExtension>
        </extensions>
      </trkpt>
      <trkpt lat="45.29537617228925228118896484375" lon="-70.83091794513165950775146484375">
        <ele>1053</ele>
        <time>2026-08-21T13:52:58.000Z</time>
        <extensions>
          <ns3:TrackPointExtension>
            <ns3:hr>157</ns3:hr>
            <ns3:cad>0</ns3:cad>
          </ns3:TrackPointExtension>
        </extensions>
      </trkpt>
      <trkpt lat="45.29537298716604709625244140625" lon="-70.8309245668351650238037109375">
        <ele>1053.4000244140625</ele>
        <time>2026-08-21T13:52:59.000Z</time>
        <extensions>
          <ns3:TrackPointExtension>
            <ns3:hr>157</ns3:hr>
            <ns3:cad>0</ns3:cad>
          </ns3:TrackPointExtension>
        </extensions>
      </trkpt>
      <trkpt lat="45.29537030495703220367431640625" lon="-70.83093035034835338592529296875">
        <ele>1053.4000244140625</ele>
        <time>2026-08-21T13:53:00.000Z</time>
        <extensions>
          <ns3:TrackPointExtension>
            <ns3:hr>158</ns3:hr>
            <ns3:cad>0</ns3:cad>
          </ns3:TrackPointExtension>
        </extensions>
      </trkpt>
      <trkpt lat="45.29537181369960308074951171875" lon="-70.83094208501279354095458984375">
        <ele>1053.5999755859375</ele>
        <time>2026-08-21T13:53:01.000Z</time>
        <extensions>
          <ns3:TrackPointExtension>
            <ns3:hr>158</ns3:hr>
            <ns3:cad>0</ns3:cad>
          </ns3:TrackPointExtension>
        </extensions>
      </trkpt>
      <trkpt lat="45.29537214897572994232177734375" lon="-70.8309497125446796417236328125">
        <ele>1053.800048828125</ele>
        <time>2026-08-21T13:53:02.000Z</time>
        <extensions>
          <ns3:TrackPointExtension>
            <ns3:hr>158</ns3:hr>
            <ns3:cad>0</ns3:cad>
          </ns3:TrackPointExtension>
        </extensions>
      </trkpt>
      <trkpt lat="45.29536929912865161895751953125" lon="-70.83095650188624858856201171875">
        <ele>1054.199951171875</ele>
        <time>2026-08-21T13:53:03.000Z</time>
        <extensions>
          <ns3:TrackPointExtension>
            <ns3:hr>158</ns3:hr>
            <ns3:cad>0</ns3:cad>
          </ns3:TrackPointExtension>
        </extensions>
      </trkpt>
      <trkpt lat="45.29537013731896877288818359375" lon="-70.8309594355523586273193359375">
        <ele>1054.4000244140625</ele>
        <time>2026-08-21T13:53:04.000Z</time>
        <extensions>
          <ns3:TrackPointExtension>
            <ns3:hr>158</ns3:hr>
            <ns3:cad>0</ns3:cad>
          </ns3:TrackPointExtension>
        </extensions>
      </trkpt>
      <trkpt lat="45.29536913149058818817138671875" lon="-70.830968320369720458984375">
        <ele>1054.5999755859375</ele>
        <time>2026-08-21T13:53:05.000Z</time>
        <extensions>
          <ns3:TrackPointExtension>
            <ns3:hr>158</ns3:hr>
            <ns3:cad>0</ns3:cad>
          </ns3:TrackPointExtension>
        </extensions>
      </trkpt>
      <trkpt lat="45.29536879621446132659912109375" lon="-70.83097628317773342132568359375">
        <ele>1054.800048828125</ele>
        <time>2026-08-21T13:53:06.000Z</time>
        <extensions>
          <ns3:TrackPointExtension>
            <ns3:hr>158</ns3:hr>
            <ns3:cad>0</ns3:cad>
          </ns3:TrackPointExtension>
        </extensions>
      </trkpt>
      <trkpt lat="45.29536996968090534210205078125" lon="-70.83097569644451141357421875">
        <ele>1055</ele>
        <time>2026-08-21T13:53:07.000Z</time>
        <extensions>
          <ns3:TrackPointExtension>
            <ns3:hr>158</ns3:hr>
            <ns3:cad>0</ns3:cad>
          </ns3:TrackPointExtension>
        </extensions>
      </trkpt>
      <trkpt lat="45.29536443762481212615966796875" lon="-70.83098064176738262176513671875">
        <ele>1055.199951171875</ele>
        <time>2026-08-21T13:53:08.000Z</time>
        <extensions>
          <ns3:TrackPointExtension>
            <ns3:hr>159</ns3:hr>
            <ns3:cad>0</ns3:cad>
          </ns3:TrackPointExtension>
        </extensions>
      </trkpt>
      <trkpt lat="45.29535949230194091796875" lon="-70.83099170587956905364990234375">
        <ele>1055.4000244140625</ele>
        <time>2026-08-21T13:53:09.000Z</time>
        <extensions>
          <ns3:TrackPointExtension>
            <ns3:hr>159</ns3:hr>
            <ns3:cad>0</ns3:cad>
          </ns3:TrackPointExtension>
        </extensions>
      </trkpt>
      <trkpt lat="45.29535052366554737091064453125" lon="-70.83098885603249073028564453125">
        <ele>1055.5999755859375</ele>
        <time>2026-08-21T13:53:10.000Z</time>
        <extensions>
          <ns3:TrackPointExtension>
            <ns3:hr>159</ns3:hr>
            <ns3:cad>0</ns3:cad>
          </ns3:TrackPointExtension>
        </extensions>
      </trkpt>
      <trkpt lat="45.2953479252755641937255859375" lon="-70.83098776638507843017578125">
        <ele>1055.800048828125</ele>
        <time>2026-08-21T13:53:11.000Z</time>
        <extensions>
          <ns3:TrackPointExtension>
            <ns3:hr>159</ns3:hr>
            <ns3:cad>0</ns3:cad>
          </ns3:TrackPointExtension>
        </extensions>
      </trkpt>
      <trkpt lat="45.295336358249187469482421875" lon="-70.8309956453740596771240234375">
        <ele>1056</ele>
        <time>2026-08-21T13:53:12.000Z</time>
        <extensions>
          <ns3:TrackPointExtension>
            <ns3:hr>159</ns3:hr>
            <ns3:cad>0</ns3:cad>
          </ns3:TrackPointExtension>
        </extensions>
      </trkpt>
      <trkpt lat="45.29532889835536479949951171875" lon="-70.83099908195436000823974609375">
        <ele>1056</ele>
        <time>2026-08-21T13:53:13.000Z</time>
        <extensions>
          <ns3:TrackPointExtension>
            <ns3:hr>158</ns3:hr>
            <ns3:cad>0</ns3:cad>
          </ns3:TrackPointExtension>
        </extensions>
      </trkpt>
      <trkpt lat="45.2953259646892547607421875" lon="-70.831000842154026031494140625">
        <ele>1056.199951171875</ele>
        <time>2026-08-21T13:53:14.000Z</time>
        <extensions>
          <ns3:TrackPointExtension>
            <ns3:hr>158</ns3:hr>
            <ns3:cad>0</ns3:cad>
          </ns3:TrackPointExtension>
        </extensions>
      </trkpt>
      <trkpt lat="45.29531599022448062896728515625" lon="-70.8310050331056118011474609375">
        <ele>1056.4000244140625</ele>
        <time>2026-08-21T13:53:15.000Z</time>
        <extensions>
          <ns3:TrackPointExtension>
            <ns3:hr>158</ns3:hr>
            <ns3:cad>0</ns3:cad>
          </ns3:TrackPointExtension>
        </extensions>
      </trkpt>
      <trkpt lat="45.29531179927289485931396484375" lon="-70.83100662566721439361572265625">
        <ele>1056.5999755859375</ele>
        <time>2026-08-21T13:53:16.000Z</time>
        <extensions>
          <ns3:TrackPointExtension>
            <ns3:hr>158</ns3:hr>
            <ns3:cad>0</ns3:cad>
          </ns3:TrackPointExtension>
        </extensions>
      </trkpt>
      <trkpt lat="45.2953066863119602203369140625" lon="-70.83101199008524417877197265625">
        <ele>1056.5999755859375</ele>
        <time>2026-08-21T13:53:17.000Z</time>
        <extensions>
          <ns3:TrackPointExtension>
            <ns3:hr>158</ns3:hr>
            <ns3:cad>71</ns3:cad>
          </ns3:TrackPointExtension>
        </extensions>
      </trkpt>
      <trkpt lat="45.29529939405620098114013671875" lon="-70.8310204558074474334716796875">
        <ele>1056.800048828125</ele>
        <time>2026-08-21T13:53:18.000Z</time>
        <extensions>
          <ns3:TrackPointExtension>
            <ns3:hr>159</ns3:hr>
            <ns3:cad>71</ns3:cad>
          </ns3:TrackPointExtension>
        </extensions>
      </trkpt>
      <trkpt lat="45.2952949516475200653076171875" lon="-70.831028334796428680419921875">
        <ele>1056.800048828125</ele>
        <time>2026-08-21T13:53:19.000Z</time>
        <extensions>
          <ns3:TrackPointExtension>
            <ns3:hr>158</ns3:hr>
            <ns3:cad>44</ns3:cad>
          </ns3:TrackPointExtension>
        </extensions>
      </trkpt>
      <trkpt lat="45.29529352672398090362548828125" lon="-70.8310288377106189727783203125">
        <ele>1057</ele>
        <time>2026-08-21T13:53:20.000Z</time>
        <extensions>
          <ns3:TrackPointExtension>
            <ns3:hr>158</ns3:hr>
            <ns3:cad>44</ns3:cad>
          </ns3:TrackPointExtension>
        </extensions>
      </trkpt>
      <trkpt lat="45.295290090143680572509765625" lon="-70.831033028662204742431640625">
        <ele>1057.199951171875</ele>
        <time>2026-08-21T13:53:21.000Z</time>
        <extensions>
          <ns3:TrackPointExtension>
            <ns3:hr>158</ns3:hr>
            <ns3:cad>0</ns3:cad>
          </ns3:TrackPointExtension>
        </extensions>
      </trkpt>
      <trkpt lat="45.29528229497373104095458984375" lon="-70.83104677498340606689453125">
        <ele>1057.4000244140625</ele>
        <time>2026-08-21T13:53:22.000Z</time>
        <extensions>
          <ns3:TrackPointExtension>
            <ns3:hr>158</ns3:hr>
            <ns3:cad>0</ns3:cad>
          </ns3:TrackPointExtension>
        </extensions>
      </trkpt>
      <trkpt lat="45.2952830493450164794921875" lon="-70.83105205558240413665771484375">
        <ele>1057.5999755859375</ele>
        <time>2026-08-21T13:53:23.000Z</time>
        <extensions>
          <ns3:TrackPointExtension>
            <ns3:hr>158</ns3:hr>
            <ns3:cad>0</ns3:cad>
          </ns3:TrackPointExtension>
        </extensions>
      </trkpt>
      <trkpt lat="45.29528263024985790252685546875" lon="-70.8310593478381633758544921875">
        <ele>1058</ele>
        <time>2026-08-21T13:53:24.000Z</time>
        <extensions>
          <ns3:TrackPointExtension>
            <ns3:hr>158</ns3:hr>
            <ns3:cad>0</ns3:cad>
          </ns3:TrackPointExtension>
        </extensions>
      </trkpt>
      <trkpt lat="45.29527969658374786376953125" lon="-70.83106831647455692291259765625">
        <ele>1058.199951171875</ele>
        <time>2026-08-21T13:53:25.000Z</time>
        <extensions>
          <ns3:TrackPointExtension>
            <ns3:hr>158</ns3:hr>
            <ns3:cad>0</ns3:cad>
          </ns3:TrackPointExtension>
        </extensions>
      </trkpt>
      <trkpt lat="45.2952721528708934783935546875" lon="-70.83107359707355499267578125">
        <ele>1058.4000244140625</ele>
        <time>2026-08-21T13:53:26.000Z</time>
        <extensions>
          <ns3:TrackPointExtension>
            <ns3:hr>158</ns3:hr>
            <ns3:cad>0</ns3:cad>
          </ns3:TrackPointExtension>
        </extensions>
      </trkpt>
      <trkpt lat="45.2952642738819122314453125" lon="-70.8310782909393310546875">
        <ele>1058.5999755859375</ele>
        <time>2026-08-21T13:53:27.000Z</time>
        <extensions>
          <ns3:TrackPointExtension>
            <ns3:hr>157</ns3:hr>
            <ns3:cad>0</ns3:cad>
          </ns3:TrackPointExtension>
        </extensions>
      </trkpt>
      <trkpt lat="45.29526419006288051605224609375" lon="-70.83107753656804561614990234375">
        <ele>1058.800048828125</ele>
        <time>2026-08-21T13:53:28.000Z</time>
        <extensions>
          <ns3:TrackPointExtension>
            <ns3:hr>156</ns3:hr>
            <ns3:cad>0</ns3:cad>
          </ns3:TrackPointExtension>
        </extensions>
      </trkpt>
      <trkpt lat="45.29525698162615299224853515625" lon="-70.83108105696737766265869140625">
        <ele>1059.199951171875</ele>
        <time>2026-08-21T13:53:29.000Z</time>
        <extensions>
          <ns3:TrackPointExtension>
            <ns3:hr>156</ns3:hr>
            <ns3:cad>0</ns3:cad>
          </ns3:TrackPointExtension>
        </extensions>
      </trkpt>
      <trkpt lat="45.295255221426486968994140625" lon="-70.831086002290248870849609375">
        <ele>1059.4000244140625</ele>
        <time>2026-08-21T13:53:30.000Z</time>
        <extensions>
          <ns3:TrackPointExtension>
            <ns3:hr>156</ns3:hr>
            <ns3:cad>0</ns3:cad>
          </ns3:TrackPointExtension>
        </extensions>
      </trkpt>
      <trkpt lat="45.29525446705520153045654296875" lon="-70.83109379746019840240478515625">
        <ele>1059.5999755859375</ele>
        <time>2026-08-21T13:53:31.000Z</time>
        <extensions>
          <ns3:TrackPointExtension>
            <ns3:hr>156</ns3:hr>
            <ns3:cad>0</ns3:cad>
          </ns3:TrackPointExtension>
        </extensions>
      </trkpt>
      <trkpt lat="45.295248515903949737548828125" lon="-70.83111374638974666595458984375">
        <ele>1059.800048828125</ele>
        <time>2026-08-21T13:53:32.000Z</time>
        <extensions>
          <ns3:TrackPointExtension>
            <ns3:hr>156</ns3:hr>
            <ns3:cad>0</ns3:cad>
          </ns3:TrackPointExtension>
        </extensions>
      </trkpt>
      <trkpt lat="45.2952463366091251373291015625" lon="-70.8311146683990955352783203125">
        <ele>1060</ele>
        <time>2026-08-21T13:53:33.000Z</time>
        <extensions>
          <ns3:TrackPointExtension>
            <ns3:hr>156</ns3:hr>
            <ns3:cad>0</ns3:cad>
          </ns3:TrackPointExtension>
        </extensions>
      </trkpt>
      <trkpt lat="45.29524541459977626800537109375" lon="-70.83112363703548908233642578125">
        <ele>1060.199951171875</ele>
        <time>2026-08-21T13:53:34.000Z</time>
        <extensions>
          <ns3:TrackPointExtension>
            <ns3:hr>157</ns3:hr>
            <ns3:cad>0</ns3:cad>
          </ns3:TrackPointExtension>
        </extensions>
      </trkpt>
      <trkpt lat="45.29524482786655426025390625" lon="-70.831129252910614013671875">
        <ele>1060.4000244140625</ele>
        <time>2026-08-21T13:53:35.000Z</time>
        <extensions>
          <ns3:TrackPointExtension>
            <ns3:hr>156</ns3:hr>
            <ns3:cad>0</ns3:cad>
          </ns3:TrackPointExtension>
        </extensions>
      </trkpt>
      <trkpt lat="45.2952429838478565216064453125" lon="-70.83114995621144771575927734375">
        <ele>1060.5999755859375</ele>
        <time>2026-08-21T13:53:36.000Z</time>
        <extensions>
          <ns3:TrackPointExtension>
            <ns3:hr>156</ns3:hr>
            <ns3:cad>0</ns3:cad>
          </ns3:TrackPointExtension>
        </extensions>
      </trkpt>
      <trkpt lat="45.29524616897106170654296875" lon="-70.83115481771528720855712890625">
        <ele>1060.800048828125</ele>
        <time>2026-08-21T13:53:37.000Z</time>
        <extensions>
          <ns3:TrackPointExtension>
            <ns3:hr>155</ns3:hr>
            <ns3:cad>0</ns3:cad>
          </ns3:TrackPointExtension>
        </extensions>
      </trkpt>
      <trkpt lat="45.29524474404752254486083984375" lon="-70.83116319961845874786376953125">
        <ele>1061</ele>
        <time>2026-08-21T13:53:38.000Z</time>
        <extensions>
          <ns3:TrackPointExtension>
            <ns3:hr>155</ns3:hr>
            <ns3:cad>0</ns3:cad>
          </ns3:TrackPointExtension>
        </extensions>
      </trkpt>
      <trkpt lat="45.2952416427433490753173828125" lon="-70.8311663009226322174072265625">
        <ele>1061.199951171875</ele>
        <time>2026-08-21T13:53:39.000Z</time>
        <extensions>
          <ns3:TrackPointExtension>
            <ns3:hr>155</ns3:hr>
            <ns3:cad>0</ns3:cad>
          </ns3:TrackPointExtension>
        </extensions>
      </trkpt>
      <trkpt lat="45.2952416427433490753173828125" lon="-70.8311696536839008331298828125">
        <ele>1061.4000244140625</ele>
        <time>2026-08-21T13:53:40.000Z</time>
        <extensions>
          <ns3:TrackPointExtension>
            <ns3:hr>156</ns3:hr>
            <ns3:cad>0</ns3:cad>
          </ns3:TrackPointExtension>
        </extensions>
      </trkpt>
      <trkpt lat="45.29524541459977626800537109375" lon="-70.831176526844501495361328125">
        <ele>1061.5999755859375</ele>
        <time>2026-08-21T13:53:41.000Z</time>
        <extensions>
          <ns3:TrackPointExtension>
            <ns3:hr>156</ns3:hr>
            <ns3:cad>0</ns3:cad>
          </ns3:TrackPointExtension>
        </extensions>
      </trkpt>
      <trkpt lat="45.29524616897106170654296875" lon="-70.83118448965251445770263671875">
        <ele>1061.800048828125</ele>
        <time>2026-08-21T13:53:42.000Z</time>
        <extensions>
          <ns3:TrackPointExtension>
            <ns3:hr>156</ns3:hr>
            <ns3:cad>0</ns3:cad>
          </ns3:TrackPointExtension>
        </extensions>
      </trkpt>
      <trkpt lat="45.29524625279009342193603515625" lon="-70.83120628260076045989990234375">
        <ele>1062</ele>
        <time>2026-08-21T13:53:43.000Z</time>
        <extensions>
          <ns3:TrackPointExtension>
            <ns3:hr>156</ns3:hr>
            <ns3:cad>0</ns3:cad>
          </ns3:TrackPointExtension>
        </extensions>
      </trkpt>
      <trkpt lat="45.29524616897106170654296875" lon="-70.831215083599090576171875">
        <ele>1062.199951171875</ele>
        <time>2026-08-21T13:53:44.000Z</time>
        <extensions>
          <ns3:TrackPointExtension>
            <ns3:hr>156</ns3:hr>
            <ns3:cad>0</ns3:cad>
          </ns3:TrackPointExtension>
        </extensions>
      </trkpt>
      <trkpt lat="45.29524323530495166778564453125" lon="-70.8312276564538478851318359375">
        <ele>1062.199951171875</ele>
        <time>2026-08-21T13:53:45.000Z</time>
        <extensions>
          <ns3:TrackPointExtension>
            <ns3:hr>156</ns3:hr>
            <ns3:cad>0</ns3:cad>
          </ns3:TrackPointExtension>
        </extensions>
      </trkpt>
      <trkpt lat="45.29523812234401702880859375" lon="-70.831242240965366363525390625">
        <ele>1062.4000244140625</ele>
        <time>2026-08-21T13:53:46.000Z</time>
        <extensions>
          <ns3:TrackPointExtension>
            <ns3:hr>156</ns3:hr>
            <ns3:cad>0</ns3:cad>
          </ns3:TrackPointExtension>
        </extensions>
      </trkpt>
      <trkpt lat="45.2952347695827484130859375" lon="-70.8312539756298065185546875">
        <ele>1062.5999755859375</ele>
        <time>2026-08-21T13:53:47.000Z</time>
        <extensions>
          <ns3:TrackPointExtension>
            <ns3:hr>156</ns3:hr>
            <ns3:cad>0</ns3:cad>
          </ns3:TrackPointExtension>
        </extensions>
      </trkpt>
      <trkpt lat="45.29523736797273159027099609375" lon="-70.83125657401978969573974609375">
        <ele>1062.800048828125</ele>
        <time>2026-08-21T13:53:48.000Z</time>
        <extensions>
          <ns3:TrackPointExtension>
            <ns3:hr>156</ns3:hr>
            <ns3:cad>0</ns3:cad>
          </ns3:TrackPointExtension>
        </extensions>
      </trkpt>
      <trkpt lat="45.29523300938308238983154296875" lon="-70.83127249963581562042236328125">
        <ele>1063</ele>
        <time>2026-08-21T13:53:49.000Z</time>
        <extensions>
          <ns3:TrackPointExtension>
            <ns3:hr>156</ns3:hr>
            <ns3:cad>0</ns3:cad>
          </ns3:TrackPointExtension>
        </extensions>
      </trkpt>
      <trkpt lat="45.29523049481213092803955078125" lon="-70.83128440193831920623779296875">
        <ele>1063.199951171875</ele>
        <time>2026-08-21T13:53:50.000Z</time>
        <extensions>
          <ns3:TrackPointExtension>
            <ns3:hr>156</ns3:hr>
            <ns3:cad>0</ns3:cad>
          </ns3:TrackPointExtension>
        </extensions>
      </trkpt>
      <trkpt lat="45.295229069888591766357421875" lon="-70.83129890263080596923828125">
        <ele>1063.4000244140625</ele>
        <time>2026-08-21T13:53:51.000Z</time>
        <extensions>
          <ns3:TrackPointExtension>
            <ns3:hr>155</ns3:hr>
            <ns3:cad>0</ns3:cad>
          </ns3:TrackPointExtension>
        </extensions>
      </trkpt>
      <trkpt lat="45.29523049481213092803955078125" lon="-70.83130837418138980865478515625">
        <ele>1063.4000244140625</ele>
        <time>2026-08-21T13:53:52.000Z</time>
        <extensions>
          <ns3:TrackPointExtension>
            <ns3:hr>156</ns3:hr>
            <ns3:cad>0</ns3:cad>
          </ns3:TrackPointExtension>
        </extensions>
      </trkpt>
      <trkpt lat="45.295230410993099212646484375" lon="-70.83132312633097171783447265625">
        <ele>1063.5999755859375</ele>
        <time>2026-08-21T13:53:53.000Z</time>
        <extensions>
          <ns3:TrackPointExtension>
            <ns3:hr>156</ns3:hr>
            <ns3:cad>0</ns3:cad>
          </ns3:TrackPointExtension>
        </extensions>
      </trkpt>
      <trkpt lat="45.2952295728027820587158203125" lon="-70.83134307526051998138427734375">
        <ele>1063.5999755859375</ele>
        <time>2026-08-21T13:53:54.000Z</time>
        <extensions>
          <ns3:TrackPointExtension>
            <ns3:hr>156</ns3:hr>
            <ns3:cad>0</ns3:cad>
          </ns3:TrackPointExtension>
        </extensions>
      </trkpt>
      <trkpt lat="45.29523275792598724365234375" lon="-70.83136000670492649078369140625">
        <ele>1063.800048828125</ele>
        <time>2026-08-21T13:53:55.000Z</time>
        <extensions>
          <ns3:TrackPointExtension>
            <ns3:hr>155</ns3:hr>
            <ns3:cad>0</ns3:cad>
          </ns3:TrackPointExtension>
        </extensions>
      </trkpt>
      <trkpt lat="45.295233093202114105224609375" lon="-70.83137710578739643096923828125">
        <ele>1063.5999755859375</ele>
        <time>2026-08-21T13:53:56.000Z</time>
        <extensions>
          <ns3:TrackPointExtension>
            <ns3:hr>155</ns3:hr>
            <ns3:cad>0</ns3:cad>
          </ns3:TrackPointExtension>
        </extensions>
      </trkpt>
      <trkpt lat="45.29523485340178012847900390625" lon="-70.8313788659870624542236328125">
        <ele>1063.800048828125</ele>
        <time>2026-08-21T13:53:57.000Z</time>
        <extensions>
          <ns3:TrackPointExtension>
            <ns3:hr>155</ns3:hr>
            <ns3:cad>0</ns3:cad>
          </ns3:TrackPointExtension>
        </extensions>
      </trkpt>
      <trkpt lat="45.29523921199142932891845703125" lon="-70.831391103565692901611328125">
        <ele>1063.800048828125</ele>
        <time>2026-08-21T13:53:58.000Z</time>
        <extensions>
          <ns3:TrackPointExtension>
            <ns3:hr>155</ns3:hr>
            <ns3:cad>0</ns3:cad>
          </ns3:TrackPointExtension>
        </extensions>
      </trkpt>
      <trkpt lat="45.29523787088692188262939453125" lon="-70.83140753209590911865234375">
        <ele>1064</ele>
        <time>2026-08-21T13:53:59.000Z</time>
        <extensions>
          <ns3:TrackPointExtension>
            <ns3:hr>155</ns3:hr>
            <ns3:cad>0</ns3:cad>
          </ns3:TrackPointExtension>
        </extensions>
      </trkpt>
      <trkpt lat="45.29524088837206363677978515625" lon="-70.83141767419874668121337890625">
        <ele>1064</ele>
        <time>2026-08-21T13:54:00.000Z</time>
        <extensions>
          <ns3:TrackPointExtension>
            <ns3:hr>155</ns3:hr>
            <ns3:cad>0</ns3:cad>
          </ns3:TrackPointExtension>
        </extensions>
      </trkpt>
      <trkpt lat="45.29524214565753936767578125" lon="-70.83142287097871303558349609375">
        <ele>1064.199951171875</ele>
        <time>2026-08-21T13:54:01.000Z</time>
        <extensions>
          <ns3:TrackPointExtension>
            <ns3:hr>154</ns3:hr>
            <ns3:cad>0</ns3:cad>
          </ns3:TrackPointExtension>
        </extensions>
      </trkpt>
      <trkpt lat="45.2952406369149684906005859375" lon="-70.831433348357677459716796875">
        <ele>1064.4000244140625</ele>
        <time>2026-08-21T13:54:02.000Z</time>
        <extensions>
          <ns3:TrackPointExtension>
            <ns3:hr>154</ns3:hr>
            <ns3:cad>0</ns3:cad>
          </ns3:TrackPointExtension>
        </extensions>
      </trkpt>
      <trkpt lat="45.29524088837206363677978515625" lon="-70.83144784905016422271728515625">
        <ele>1064.4000244140625</ele>
        <time>2026-08-21T13:54:03.000Z</time>
        <extensions>
          <ns3:TrackPointExtension>
            <ns3:hr>154</ns3:hr>
            <ns3:cad>0</ns3:cad>
          </ns3:TrackPointExtension>
        </extensions>
      </trkpt>
      <trkpt lat="45.29523770324885845184326171875" lon="-70.83145606331527233123779296875">
        <ele>1064.4000244140625</ele>
        <time>2026-08-21T13:54:04.000Z</time>
        <extensions>
          <ns3:TrackPointExtension>
            <ns3:hr>154</ns3:hr>
            <ns3:cad>0</ns3:cad>
          </ns3:TrackPointExtension>
        </extensions>
      </trkpt>
      <trkpt lat="45.29523300938308238983154296875" lon="-70.8314683847129344940185546875">
        <ele>1064.5999755859375</ele>
        <time>2026-08-21T13:54:05.000Z</time>
        <extensions>
          <ns3:TrackPointExtension>
            <ns3:hr>154</ns3:hr>
            <ns3:cad>0</ns3:cad>
          </ns3:TrackPointExtension>
        </extensions>
      </trkpt>
      <trkpt lat="45.2952285669744014739990234375" lon="-70.83148397505283355712890625">
        <ele>1064.5999755859375</ele>
        <time>2026-08-21T13:54:06.000Z</time>
        <extensions>
          <ns3:TrackPointExtension>
            <ns3:hr>154</ns3:hr>
            <ns3:cad>0</ns3:cad>
          </ns3:TrackPointExtension>
        </extensions>
      </trkpt>
      <trkpt lat="45.29522697441279888153076171875" lon="-70.83148129284381866455078125">
        <ele>1064.800048828125</ele>
        <time>2026-08-21T13:54:07.000Z</time>
        <extensions>
          <ns3:TrackPointExtension>
            <ns3:hr>154</ns3:hr>
            <ns3:cad>0</ns3:cad>
          </ns3:TrackPointExtension>
        </extensions>
      </trkpt>
      <trkpt lat="45.29522496275603771209716796875" lon="-70.83148933947086334228515625">
        <ele>1065</ele>
        <time>2026-08-21T13:54:08.000Z</time>
        <extensions>
          <ns3:TrackPointExtension>
            <ns3:hr>154</ns3:hr>
            <ns3:cad>42</ns3:cad>
          </ns3:TrackPointExtension>
        </extensions>
      </trkpt>
      <trkpt lat="45.2952188439667224884033203125" lon="-70.83150769583880901336669921875">
        <ele>1065.199951171875</ele>
        <time>2026-08-21T13:54:09.000Z</time>
        <extensions>
          <ns3:TrackPointExtension>
            <ns3:hr>153</ns3:hr>
            <ns3:cad>42</ns3:cad>
          </ns3:TrackPointExtension>
        </extensions>
      </trkpt>
      <trkpt lat="45.29521792195737361907958984375" lon="-70.83151138387620449066162109375">
        <ele>1065.5999755859375</ele>
        <time>2026-08-21T13:54:10.000Z</time>
        <extensions>
          <ns3:TrackPointExtension>
            <ns3:hr>152</ns3:hr>
            <ns3:cad>0</ns3:cad>
          </ns3:TrackPointExtension>
        </extensions>
      </trkpt>
      <trkpt lat="45.29521490447223186492919921875" lon="-70.83152144216001033782958984375">
        <ele>1065.800048828125</ele>
        <time>2026-08-21T13:54:11.000Z</time>
        <extensions>
          <ns3:TrackPointExtension>
            <ns3:hr>152</ns3:hr>
            <ns3:cad>0</ns3:cad>
          </ns3:TrackPointExtension>
        </extensions>
      </trkpt>
      <trkpt lat="45.29521373100578784942626953125" lon="-70.8315344341099262237548828125">
        <ele>1066</ele>
        <time>2026-08-21T13:54:12.000Z</time>
        <extensions>
          <ns3:TrackPointExtension>
            <ns3:hr>152</ns3:hr>
            <ns3:cad>76</ns3:cad>
          </ns3:TrackPointExtension>
        </extensions>
      </trkpt>
      <trkpt lat="45.2952181734144687652587890625" lon="-70.83154164254665374755859375">
        <ele>1066</ele>
        <time>2026-08-21T13:54:13.000Z</time>
        <extensions>
          <ns3:TrackPointExtension>
            <ns3:hr>151</ns3:hr>
            <ns3:cad>76</ns3:cad>
          </ns3:TrackPointExtension>
        </extensions>
      </trkpt>
      <trkpt lat="45.29522202908992767333984375" lon="-70.83155103027820587158203125">
        <ele>1066.199951171875</ele>
        <time>2026-08-21T13:54:14.000Z</time>
        <extensions>
          <ns3:TrackPointExtension>
            <ns3:hr>151</ns3:hr>
            <ns3:cad>76</ns3:cad>
          </ns3:TrackPointExtension>
        </extensions>
      </trkpt>
      <trkpt lat="45.29522261582314968109130859375" lon="-70.8315636031329631805419921875">
        <ele>1066.199951171875</ele>
        <time>2026-08-21T13:54:15.000Z</time>
        <extensions>
          <ns3:TrackPointExtension>
            <ns3:hr>151</ns3:hr>
            <ns3:cad>0</ns3:cad>
          </ns3:TrackPointExtension>
        </extensions>
      </trkpt>
      <trkpt lat="45.2952272258698940277099609375" lon="-70.83158128894865512847900390625">
        <ele>1066.4000244140625</ele>
        <time>2026-08-21T13:54:16.000Z</time>
        <extensions>
          <ns3:TrackPointExtension>
            <ns3:hr>150</ns3:hr>
            <ns3:cad>0</ns3:cad>
          </ns3:TrackPointExtension>
        </extensions>
      </trkpt>
      <trkpt lat="45.295231752097606658935546875" lon="-70.83159126341342926025390625">
        <ele>1066.4000244140625</ele>
        <time>2026-08-21T13:54:17.000Z</time>
        <extensions>
          <ns3:TrackPointExtension>
            <ns3:hr>150</ns3:hr>
            <ns3:cad>0</ns3:cad>
          </ns3:TrackPointExtension>
        </extensions>
      </trkpt>
      <trkpt lat="45.2952346019446849822998046875" lon="-70.8316008187830448150634765625">
        <ele>1066.4000244140625</ele>
        <time>2026-08-21T13:54:18.000Z</time>
        <extensions>
          <ns3:TrackPointExtension>
            <ns3:hr>151</ns3:hr>
            <ns3:cad>0</ns3:cad>
          </ns3:TrackPointExtension>
        </extensions>
      </trkpt>
      <trkpt lat="45.29522814787924289703369140625" lon="-70.8316128887236118316650390625">
        <ele>1066.5999755859375</ele>
        <time>2026-08-21T13:54:19.000Z</time>
        <extensions>
          <ns3:TrackPointExtension>
            <ns3:hr>151</ns3:hr>
            <ns3:cad>0</ns3:cad>
          </ns3:TrackPointExtension>
        </extensions>
      </trkpt>
      <trkpt lat="45.29522781260311603546142578125" lon="-70.83161967806518077850341796875">
        <ele>1066.800048828125</ele>
        <time>2026-08-21T13:54:20.000Z</time>
        <extensions>
          <ns3:TrackPointExtension>
            <ns3:hr>151</ns3:hr>
            <ns3:cad>0</ns3:cad>
          </ns3:TrackPointExtension>
        </extensions>
      </trkpt>
      <trkpt lat="45.295224376022815704345703125" lon="-70.83163443021476268768310546875">
        <ele>1067</ele>
        <time>2026-08-21T13:54:21.000Z</time>
        <extensions>
          <ns3:TrackPointExtension>
            <ns3:hr>151</ns3:hr>
            <ns3:cad>0</ns3:cad>
          </ns3:TrackPointExtension>
        </extensions>
      </trkpt>
      <trkpt lat="45.29522412456572055816650390625" lon="-70.831645242869853973388671875">
        <ele>1067.199951171875</ele>
        <time>2026-08-21T13:54:22.000Z</time>
        <extensions>
          <ns3:TrackPointExtension>
            <ns3:hr>151</ns3:hr>
            <ns3:cad>0</ns3:cad>
          </ns3:TrackPointExtension>
        </extensions>
      </trkpt>
      <trkpt lat="45.29522244818508625030517578125" lon="-70.83164951764047145843505859375">
        <ele>1067.4000244140625</ele>
        <time>2026-08-21T13:54:23.000Z</time>
        <extensions>
          <ns3:TrackPointExtension>
            <ns3:hr>151</ns3:hr>
            <ns3:cad>0</ns3:cad>
          </ns3:TrackPointExtension>
        </extensions>
      </trkpt>
      <trkpt lat="45.2952198497951030731201171875" lon="-70.8316527865827083587646484375">
        <ele>1067.4000244140625</ele>
        <time>2026-08-21T13:54:24.000Z</time>
        <extensions>
          <ns3:TrackPointExtension>
            <ns3:hr>150</ns3:hr>
            <ns3:cad>0</ns3:cad>
          </ns3:TrackPointExtension>
        </extensions>
      </trkpt>
      <trkpt lat="45.2952164970338344573974609375" lon="-70.83165940828621387481689453125">
        <ele>1067.4000244140625</ele>
        <time>2026-08-21T13:54:25.000Z</time>
        <extensions>
          <ns3:TrackPointExtension>
            <ns3:hr>150</ns3:hr>
            <ns3:cad>0</ns3:cad>
          </ns3:TrackPointExtension>
        </extensions>
      </trkpt>
      <trkpt lat="45.29521557502448558807373046875" lon="-70.83166502416133880615234375">
        <ele>1067.4000244140625</ele>
        <time>2026-08-21T13:54:26.000Z</time>
        <extensions>
          <ns3:TrackPointExtension>
            <ns3:hr>150</ns3:hr>
            <ns3:cad>0</ns3:cad>
          </ns3:TrackPointExtension>
        </extensions>
      </trkpt>
      <trkpt lat="45.29521289281547069549560546875" lon="-70.8316712267696857452392578125">
        <ele>1067.199951171875</ele>
        <time>2026-08-21T13:54:27.000Z</time>
        <extensions>
          <ns3:TrackPointExtension>
            <ns3:hr>150</ns3:hr>
            <ns3:cad>0</ns3:cad>
          </ns3:TrackPointExtension>
        </extensions>
      </trkpt>
      <trkpt lat="45.29521255753934383392333984375" lon="-70.83166846074163913726806640625">
        <ele>1066.800048828125</ele>
        <time>2026-08-21T13:54:28.000Z</time>
        <extensions>
          <ns3:TrackPointExtension>
            <ns3:hr>150</ns3:hr>
            <ns3:cad>0</ns3:cad>
          </ns3:TrackPointExtension>
        </extensions>
      </trkpt>
      <trkpt lat="45.29521289281547069549560546875" lon="-70.83166904747486114501953125">
        <ele>1066.5999755859375</ele>
        <time>2026-08-21T13:54:29.000Z</time>
        <extensions>
          <ns3:TrackPointExtension>
            <ns3:hr>150</ns3:hr>
            <ns3:cad>0</ns3:cad>
          </ns3:TrackPointExtension>
        </extensions>
      </trkpt>
      <trkpt lat="45.295208282768726348876953125" lon="-70.83168019540607929229736328125">
        <ele>1066.199951171875</ele>
        <time>2026-08-21T13:54:30.000Z</time>
        <extensions>
          <ns3:TrackPointExtension>
            <ns3:hr>150</ns3:hr>
            <ns3:cad>0</ns3:cad>
          </ns3:TrackPointExtension>
        </extensions>
      </trkpt>
      <trkpt lat="45.295198224484920501708984375" lon="-70.83169712685048580169677734375">
        <ele>1065.800048828125</ele>
        <time>2026-08-21T13:54:31.000Z</time>
        <extensions>
          <ns3:TrackPointExtension>
            <ns3:hr>151</ns3:hr>
            <ns3:cad>0</ns3:cad>
          </ns3:TrackPointExtension>
        </extensions>
      </trkpt>
      <trkpt lat="45.2951953746378421783447265625" lon="-70.8316987194120883941650390625">
        <ele>1065.5999755859375</ele>
        <time>2026-08-21T13:54:32.000Z</time>
        <extensions>
          <ns3:TrackPointExtension>
            <ns3:hr>151</ns3:hr>
            <ns3:cad>0</ns3:cad>
          </ns3:TrackPointExtension>
        </extensions>
      </trkpt>
      <trkpt lat="45.29519118368625640869140625" lon="-70.83170123398303985595703125">
        <ele>1065.4000244140625</ele>
        <time>2026-08-21T13:54:33.000Z</time>
        <extensions>
          <ns3:TrackPointExtension>
            <ns3:hr>150</ns3:hr>
            <ns3:cad>0</ns3:cad>
          </ns3:TrackPointExtension>
        </extensions>
      </trkpt>
      <trkpt lat="45.29518674127757549285888671875" lon="-70.83170232363045215606689453125">
        <ele>1065</ele>
        <time>2026-08-21T13:54:34.000Z</time>
        <extensions>
          <ns3:TrackPointExtension>
            <ns3:hr>149</ns3:hr>
            <ns3:cad>0</ns3:cad>
          </ns3:TrackPointExtension>
        </extensions>
      </trkpt>
      <trkpt lat="45.2951816283166408538818359375" lon="-70.8317220211029052734375">
        <ele>1064.800048828125</ele>
        <time>2026-08-21T13:54:35.000Z</time>
        <extensions>
          <ns3:TrackPointExtension>
            <ns3:hr>149</ns3:hr>
            <ns3:cad>0</ns3:cad>
          </ns3:TrackPointExtension>
        </extensions>
      </trkpt>
      <trkpt lat="45.29518774710595607757568359375" lon="-70.83173283375799655914306640625">
        <ele>1064.800048828125</ele>
        <time>2026-08-21T13:54:36.000Z</time>
        <extensions>
          <ns3:TrackPointExtension>
            <ns3:hr>148</ns3:hr>
            <ns3:cad>0</ns3:cad>
          </ns3:TrackPointExtension>
        </extensions>
      </trkpt>
      <trkpt lat="45.29518959112465381622314453125" lon="-70.83173073828220367431640625">
        <ele>1064.4000244140625</ele>
        <time>2026-08-21T13:54:37.000Z</time>
        <extensions>
          <ns3:TrackPointExtension>
            <ns3:hr>148</ns3:hr>
            <ns3:cad>0</ns3:cad>
          </ns3:TrackPointExtension>
        </extensions>
      </trkpt>
      <trkpt lat="45.29519252479076385498046875" lon="-70.83173702470958232879638671875">
        <ele>1064.199951171875</ele>
        <time>2026-08-21T13:54:38.000Z</time>
        <extensions>
          <ns3:TrackPointExtension>
            <ns3:hr>148</ns3:hr>
            <ns3:cad>0</ns3:cad>
          </ns3:TrackPointExtension>
        </extensions>
      </trkpt>
      <trkpt lat="45.29519562609493732452392578125" lon="-70.83174959756433963775634765625">
        <ele>1064</ele>
        <time>2026-08-21T13:54:39.000Z</time>
        <extensions>
          <ns3:TrackPointExtension>
            <ns3:hr>147</ns3:hr>
            <ns3:cad>0</ns3:cad>
          </ns3:TrackPointExtension>
        </extensions>
      </trkpt>
      <trkpt lat="45.29519663192331790924072265625" lon="-70.831756554543972015380859375">
        <ele>1063.5999755859375</ele>
        <time>2026-08-21T13:54:40.000Z</time>
        <extensions>
          <ns3:TrackPointExtension>
            <ns3:hr>146</ns3:hr>
            <ns3:cad>0</ns3:cad>
          </ns3:TrackPointExtension>
        </extensions>
      </trkpt>
      <trkpt lat="45.2951972186565399169921875" lon="-70.83176024258136749267578125">
        <ele>1063.4000244140625</ele>
        <time>2026-08-21T13:54:41.000Z</time>
        <extensions>
          <ns3:TrackPointExtension>
            <ns3:hr>145</ns3:hr>
            <ns3:cad>0</ns3:cad>
          </ns3:TrackPointExtension>
        </extensions>
      </trkpt>
      <trkpt lat="45.29519964940845966339111328125" lon="-70.8317630924284458160400390625">
        <ele>1063</ele>
        <time>2026-08-21T13:54:42.000Z</time>
        <extensions>
          <ns3:TrackPointExtension>
            <ns3:hr>145</ns3:hr>
            <ns3:cad>0</ns3:cad>
          </ns3:TrackPointExtension>
        </extensions>
      </trkpt>
      <trkpt lat="45.29519788920879364013671875" lon="-70.83176770247519016265869140625">
        <ele>1062.800048828125</ele>
        <time>2026-08-21T13:54:43.000Z</time>
        <extensions>
          <ns3:TrackPointExtension>
            <ns3:hr>145</ns3:hr>
            <ns3:cad>0</ns3:cad>
          </ns3:TrackPointExtension>
        </extensions>
      </trkpt>
      <trkpt lat="45.2951918542385101318359375" lon="-70.8317741565406322479248046875">
        <ele>1062.4000244140625</ele>
        <time>2026-08-21T13:54:44.000Z</time>
        <extensions>
          <ns3:TrackPointExtension>
            <ns3:hr>144</ns3:hr>
            <ns3:cad>47</ns3:cad>
          </ns3:TrackPointExtension>
        </extensions>
      </trkpt>
      <trkpt lat="45.295187495648860931396484375" lon="-70.8317823708057403564453125">
        <ele>1062.199951171875</ele>
        <time>2026-08-21T13:54:45.000Z</time>
        <extensions>
          <ns3:TrackPointExtension>
            <ns3:hr>143</ns3:hr>
            <ns3:cad>47</ns3:cad>
          </ns3:TrackPointExtension>
        </extensions>
      </trkpt>
      <trkpt lat="45.295187495648860931396484375" lon="-70.8317838795483112335205078125">
        <ele>1061.800048828125</ele>
        <time>2026-08-21T13:54:46.000Z</time>
        <extensions>
          <ns3:TrackPointExtension>
            <ns3:hr>142</ns3:hr>
            <ns3:cad>47</ns3:cad>
          </ns3:TrackPointExtension>
        </extensions>
      </trkpt>
      <trkpt lat="45.29518405906856060028076171875" lon="-70.83179972134530544281005859375">
        <ele>1061.5999755859375</ele>
        <time>2026-08-21T13:54:47.000Z</time>
        <extensions>
          <ns3:TrackPointExtension>
            <ns3:hr>142</ns3:hr>
            <ns3:cad>47</ns3:cad>
          </ns3:TrackPointExtension>
        </extensions>
      </trkpt>
      <trkpt lat="45.29518372379243373870849609375" lon="-70.8318009786307811737060546875">
        <ele>1061.4000244140625</ele>
        <time>2026-08-21T13:54:48.000Z</time>
        <extensions>
          <ns3:TrackPointExtension>
            <ns3:hr>141</ns3:hr>
            <ns3:cad>47</ns3:cad>
          </ns3:TrackPointExtension>
        </extensions>
      </trkpt>
      <trkpt lat="45.29518020339310169219970703125" lon="-70.83181321620941162109375">
        <ele>1061.199951171875</ele>
        <time>2026-08-21T13:54:49.000Z</time>
        <extensions>
          <ns3:TrackPointExtension>
            <ns3:hr>140</ns3:hr>
            <ns3:cad>0</ns3:cad>
          </ns3:TrackPointExtension>
        </extensions>
      </trkpt>
      <trkpt lat="45.29517634771764278411865234375" lon="-70.83182821981608867645263671875">
        <ele>1061</ele>
        <time>2026-08-21T13:54:50.000Z</time>
        <extensions>
          <ns3:TrackPointExtension>
            <ns3:hr>140</ns3:hr>
            <ns3:cad>0</ns3:cad>
          </ns3:TrackPointExtension>
        </extensions>
      </trkpt>
      <trkpt lat="45.2951712347567081451416015625" lon="-70.8318467438220977783203125">
        <ele>1060.800048828125</ele>
        <time>2026-08-21T13:54:51.000Z</time>
        <extensions>
          <ns3:TrackPointExtension>
            <ns3:hr>140</ns3:hr>
            <ns3:cad>0</ns3:cad>
          </ns3:TrackPointExtension>
        </extensions>
      </trkpt>
      <trkpt lat="45.29517148621380329132080078125" lon="-70.8318601548671722412109375">
        <ele>1060.5999755859375</ele>
        <time>2026-08-21T13:54:52.000Z</time>
        <extensions>
          <ns3:TrackPointExtension>
            <ns3:hr>140</ns3:hr>
            <ns3:cad>0</ns3:cad>
          </ns3:TrackPointExtension>
        </extensions>
      </trkpt>
      <trkpt lat="45.29516838490962982177734375" lon="-70.83187130279839038848876953125">
        <ele>1060.5999755859375</ele>
        <time>2026-08-21T13:54:53.000Z</time>
        <extensions>
          <ns3:TrackPointExtension>
            <ns3:hr>140</ns3:hr>
            <ns3:cad>0</ns3:cad>
          </ns3:TrackPointExtension>
        </extensions>
      </trkpt>
      <trkpt lat="45.29516176320612430572509765625" lon="-70.8318841271102428436279296875">
        <ele>1060.5999755859375</ele>
        <time>2026-08-21T13:54:54.000Z</time>
        <extensions>
          <ns3:TrackPointExtension>
            <ns3:hr>139</ns3:hr>
            <ns3:cad>0</ns3:cad>
          </ns3:TrackPointExtension>
        </extensions>
      </trkpt>
      <trkpt lat="45.2951569855213165283203125" lon="-70.83189510740339756011962890625">
        <ele>1060.4000244140625</ele>
        <time>2026-08-21T13:54:55.000Z</time>
        <extensions>
          <ns3:TrackPointExtension>
            <ns3:hr>138</ns3:hr>
            <ns3:cad>0</ns3:cad>
          </ns3:TrackPointExtension>
        </extensions>
      </trkpt>
      <trkpt lat="45.29515120200812816619873046875" lon="-70.8319116197526454925537109375">
        <ele>1060.5999755859375</ele>
        <time>2026-08-21T13:54:56.000Z</time>
        <extensions>
          <ns3:TrackPointExtension>
            <ns3:hr>138</ns3:hr>
            <ns3:cad>0</ns3:cad>
          </ns3:TrackPointExtension>
        </extensions>
      </trkpt>
      <trkpt lat="45.2951504476368427276611328125" lon="-70.83192679099738597869873046875">
        <ele>1060.5999755859375</ele>
        <time>2026-08-21T13:54:57.000Z</time>
        <extensions>
          <ns3:TrackPointExtension>
            <ns3:hr>137</ns3:hr>
            <ns3:cad>55</ns3:cad>
          </ns3:TrackPointExtension>
        </extensions>
      </trkpt>
      <trkpt lat="45.295151285827159881591796875" lon="-70.83194673992693424224853515625">
        <ele>1060.5999755859375</ele>
        <time>2026-08-21T13:54:58.000Z</time>
        <extensions>
          <ns3:TrackPointExtension>
            <ns3:hr>134</ns3:hr>
            <ns3:cad>55</ns3:cad>
          </ns3:TrackPointExtension>
        </extensions>
      </trkpt>
      <trkpt lat="45.29514851979911327362060546875" lon="-70.8319632522761821746826171875">
        <ele>1060.800048828125</ele>
        <time>2026-08-21T13:54:59.000Z</time>
        <extensions>
          <ns3:TrackPointExtension>
            <ns3:hr>134</ns3:hr>
            <ns3:cad>55</ns3:cad>
          </ns3:TrackPointExtension>
        </extensions>
      </trkpt>
      <trkpt lat="45.295146591961383819580078125" lon="-70.83197372965514659881591796875">
        <ele>1060.800048828125</ele>
        <time>2026-08-21T13:55:00.000Z</time>
        <extensions>
          <ns3:TrackPointExtension>
            <ns3:hr>134</ns3:hr>
            <ns3:cad>55</ns3:cad>
          </ns3:TrackPointExtension>
        </extensions>
      </trkpt>
      <trkpt lat="45.29514499939978122711181640625" lon="-70.83198278211057186126708984375">
        <ele>1060.800048828125</ele>
        <time>2026-08-21T13:55:01.000Z</time>
        <extensions>
          <ns3:TrackPointExtension>
            <ns3:hr>133</ns3:hr>
            <ns3:cad>55</ns3:cad>
          </ns3:TrackPointExtension>
        </extensions>
      </trkpt>
      <trkpt lat="45.29514416120946407318115234375" lon="-70.83199954591691493988037109375">
        <ele>1061</ele>
        <time>2026-08-21T13:55:02.000Z</time>
        <extensions>
          <ns3:TrackPointExtension>
            <ns3:hr>133</ns3:hr>
            <ns3:cad>50</ns3:cad>
          </ns3:TrackPointExtension>
        </extensions>
      </trkpt>
      <trkpt lat="45.29513611458241939544677734375" lon="-70.83201128058135509490966796875">
        <ele>1061</ele>
        <time>2026-08-21T13:55:03.000Z</time>
        <extensions>
          <ns3:TrackPointExtension>
            <ns3:hr>133</ns3:hr>
            <ns3:cad>50</ns3:cad>
          </ns3:TrackPointExtension>
        </extensions>
      </trkpt>
      <trkpt lat="45.29513125307857990264892578125" lon="-70.83201848901808261871337890625">
        <ele>1061.199951171875</ele>
        <time>2026-08-21T13:55:04.000Z</time>
        <extensions>
          <ns3:TrackPointExtension>
            <ns3:hr>133</ns3:hr>
            <ns3:cad>53</ns3:cad>
          </ns3:TrackPointExtension>
        </extensions>
      </trkpt>
      <trkpt lat="45.29512823559343814849853515625" lon="-70.83202854730188846588134765625">
        <ele>1061.4000244140625</ele>
        <time>2026-08-21T13:55:05.000Z</time>
        <extensions>
          <ns3:TrackPointExtension>
            <ns3:hr>133</ns3:hr>
            <ns3:cad>53</ns3:cad>
          </ns3:TrackPointExtension>
        </extensions>
      </trkpt>
      <trkpt lat="45.295123122632503509521484375" lon="-70.83204313181340694427490234375">
        <ele>1061.5999755859375</ele>
        <time>2026-08-21T13:55:06.000Z</time>
        <extensions>
          <ns3:TrackPointExtension>
            <ns3:hr>133</ns3:hr>
            <ns3:cad>44</ns3:cad>
          </ns3:TrackPointExtension>
        </extensions>
      </trkpt>
      <trkpt lat="45.2951229549944400787353515625" lon="-70.83205184899270534515380859375">
        <ele>1061.800048828125</ele>
        <time>2026-08-21T13:55:07.000Z</time>
        <extensions>
          <ns3:TrackPointExtension>
            <ns3:hr>133</ns3:hr>
            <ns3:cad>42</ns3:cad>
          </ns3:TrackPointExtension>
        </extensions>
      </trkpt>
      <trkpt lat="45.29512622393667697906494140625" lon="-70.8320722170174121856689453125">
        <ele>1062.199951171875</ele>
        <time>2026-08-21T13:55:08.000Z</time>
        <extensions>
          <ns3:TrackPointExtension>
            <ns3:hr>132</ns3:hr>
            <ns3:cad>42</ns3:cad>
          </ns3:TrackPointExtension>
        </extensions>
      </trkpt>
      <trkpt lat="45.2951283194124698638916015625" lon="-70.83208478987216949462890625">
        <ele>1062.5999755859375</ele>
        <time>2026-08-21T13:55:09.000Z</time>
        <extensions>
          <ns3:TrackPointExtension>
            <ns3:hr>132</ns3:hr>
            <ns3:cad>42</ns3:cad>
          </ns3:TrackPointExtension>
        </extensions>
      </trkpt>
      <trkpt lat="45.295133180916309356689453125" lon="-70.832087807357311248779296875">
        <ele>1062.800048828125</ele>
        <time>2026-08-21T13:55:10.000Z</time>
        <extensions>
          <ns3:TrackPointExtension>
            <ns3:hr>133</ns3:hr>
            <ns3:cad>42</ns3:cad>
          </ns3:TrackPointExtension>
        </extensions>
      </trkpt>
      <trkpt lat="45.2951326780021190643310546875" lon="-70.83209157921373844146728515625">
        <ele>1063.199951171875</ele>
        <time>2026-08-21T13:55:11.000Z</time>
        <extensions>
          <ns3:TrackPointExtension>
            <ns3:hr>132</ns3:hr>
            <ns3:cad>0</ns3:cad>
          </ns3:TrackPointExtension>
        </extensions>
      </trkpt>
      <trkpt lat="45.29513360001146793365478515625" lon="-70.8320983685553073883056640625">
        <ele>1063.4000244140625</ele>
        <time>2026-08-21T13:55:12.000Z</time>
        <extensions>
          <ns3:TrackPointExtension>
            <ns3:hr>133</ns3:hr>
            <ns3:cad>0</ns3:cad>
          </ns3:TrackPointExtension>
        </extensions>
      </trkpt>
      <trkpt lat="45.29513460583984851837158203125" lon="-70.8321015536785125732421875">
        <ele>1063.5999755859375</ele>
        <time>2026-08-21T13:55:13.000Z</time>
        <extensions>
          <ns3:TrackPointExtension>
            <ns3:hr>134</ns3:hr>
            <ns3:cad>0</ns3:cad>
          </ns3:TrackPointExtension>
        </extensions>
      </trkpt>
      <trkpt lat="45.2951323427259922027587890625" lon="-70.8321104384958744049072265625">
        <ele>1063.800048828125</ele>
        <time>2026-08-21T13:55:14.000Z</time>
        <extensions>
          <ns3:TrackPointExtension>
            <ns3:hr>134</ns3:hr>
            <ns3:cad>0</ns3:cad>
          </ns3:TrackPointExtension>
        </extensions>
      </trkpt>
      <trkpt lat="45.29512756504118442535400390625" lon="-70.83210918121039867401123046875">
        <ele>1064</ele>
        <time>2026-08-21T13:55:15.000Z</time>
        <extensions>
          <ns3:TrackPointExtension>
            <ns3:hr>135</ns3:hr>
            <ns3:cad>0</ns3:cad>
          </ns3:TrackPointExtension>
        </extensions>
      </trkpt>
      <trkpt lat="45.29512622393667697906494140625" lon="-70.8321067504584789276123046875">
        <ele>1064.4000244140625</ele>
        <time>2026-08-21T13:55:16.000Z</time>
        <extensions>
          <ns3:TrackPointExtension>
            <ns3:hr>136</ns3:hr>
            <ns3:cad>0</ns3:cad>
          </ns3:TrackPointExtension>
        </extensions>
      </trkpt>
      <trkpt lat="45.295125134289264678955078125" lon="-70.83211337216198444366455078125">
        <ele>1064.5999755859375</ele>
        <time>2026-08-21T13:55:17.000Z</time>
        <extensions>
          <ns3:TrackPointExtension>
            <ns3:hr>136</ns3:hr>
            <ns3:cad>0</ns3:cad>
          </ns3:TrackPointExtension>
        </extensions>
      </trkpt>
      <trkpt lat="45.29512681066989898681640625" lon="-70.8321178145706653594970703125">
        <ele>1065</ele>
        <time>2026-08-21T13:55:18.000Z</time>
        <extensions>
          <ns3:TrackPointExtension>
            <ns3:hr>136</ns3:hr>
            <ns3:cad>0</ns3:cad>
          </ns3:TrackPointExtension>
        </extensions>
      </trkpt>
      <trkpt lat="45.2951283194124698638916015625" lon="-70.83212678320705890655517578125">
        <ele>1065.199951171875</ele>
        <time>2026-08-21T13:55:19.000Z</time>
        <extensions>
          <ns3:TrackPointExtension>
            <ns3:hr>137</ns3:hr>
            <ns3:cad>0</ns3:cad>
          </ns3:TrackPointExtension>
        </extensions>
      </trkpt>
      <trkpt lat="45.29512907378375530242919921875" lon="-70.8321466483175754547119140625">
        <ele>1065.4000244140625</ele>
        <time>2026-08-21T13:55:20.000Z</time>
        <extensions>
          <ns3:TrackPointExtension>
            <ns3:hr>138</ns3:hr>
            <ns3:cad>0</ns3:cad>
          </ns3:TrackPointExtension>
        </extensions>
      </trkpt>
      <trkpt lat="45.29512907378375530242919921875" lon="-70.8321553654968738555908203125">
        <ele>1065.5999755859375</ele>
        <time>2026-08-21T13:55:21.000Z</time>
        <extensions>
          <ns3:TrackPointExtension>
            <ns3:hr>138</ns3:hr>
            <ns3:cad>0</ns3:cad>
          </ns3:TrackPointExtension>
        </extensions>
      </trkpt>
      <trkpt lat="45.29513142071664333343505859375" lon="-70.83217673934996128082275390625">
        <ele>1066</ele>
        <time>2026-08-21T13:55:22.000Z</time>
        <extensions>
          <ns3:TrackPointExtension>
            <ns3:hr>139</ns3:hr>
            <ns3:cad>0</ns3:cad>
          </ns3:TrackPointExtension>
        </extensions>
      </trkpt>
      <trkpt lat="45.295130498707294464111328125" lon="-70.8321929164230823516845703125">
        <ele>1066.199951171875</ele>
        <time>2026-08-21T13:55:23.000Z</time>
        <extensions>
          <ns3:TrackPointExtension>
            <ns3:hr>139</ns3:hr>
            <ns3:cad>0</ns3:cad>
          </ns3:TrackPointExtension>
        </extensions>
      </trkpt>
      <trkpt lat="45.29513443820178508758544921875" lon="-70.83220339380204677581787109375">
        <ele>1066.4000244140625</ele>
        <time>2026-08-21T13:55:24.000Z</time>
        <extensions>
          <ns3:TrackPointExtension>
            <ns3:hr>139</ns3:hr>
            <ns3:cad>0</ns3:cad>
          </ns3:TrackPointExtension>
        </extensions>
      </trkpt>
      <trkpt lat="45.29513351619243621826171875" lon="-70.832217223942279815673828125">
        <ele>1066.5999755859375</ele>
        <time>2026-08-21T13:55:25.000Z</time>
        <extensions>
          <ns3:TrackPointExtension>
            <ns3:hr>140</ns3:hr>
            <ns3:cad>0</ns3:cad>
          </ns3:TrackPointExtension>
        </extensions>
      </trkpt>
      <trkpt lat="45.29512320645153522491455078125" lon="-70.8322318084537982940673828125">
        <ele>1066.800048828125</ele>
        <time>2026-08-21T13:55:26.000Z</time>
        <extensions>
          <ns3:TrackPointExtension>
            <ns3:hr>140</ns3:hr>
            <ns3:cad>0</ns3:cad>
          </ns3:TrackPointExtension>
        </extensions>
      </trkpt>
      <trkpt lat="45.29511851258575916290283203125" lon="-70.8322405256330966949462890625">
        <ele>1066.800048828125</ele>
        <time>2026-08-21T13:55:27.000Z</time>
        <extensions>
          <ns3:TrackPointExtension>
            <ns3:hr>140</ns3:hr>
            <ns3:cad>0</ns3:cad>
          </ns3:TrackPointExtension>
        </extensions>
      </trkpt>
      <trkpt lat="45.29511264525353908538818359375" lon="-70.83225452341139316558837890625">
        <ele>1066.800048828125</ele>
        <time>2026-08-21T13:55:28.000Z</time>
        <extensions>
          <ns3:TrackPointExtension>
            <ns3:hr>140</ns3:hr>
            <ns3:cad>0</ns3:cad>
          </ns3:TrackPointExtension>
        </extensions>
      </trkpt>
      <trkpt lat="45.2951065264642238616943359375" lon="-70.8322747237980365753173828125">
        <ele>1067</ele>
        <time>2026-08-21T13:55:29.000Z</time>
        <extensions>
          <ns3:TrackPointExtension>
            <ns3:hr>140</ns3:hr>
            <ns3:cad>0</ns3:cad>
          </ns3:TrackPointExtension>
        </extensions>
      </trkpt>
      <trkpt lat="45.295100994408130645751953125" lon="-70.832291655242443084716796875">
        <ele>1067</ele>
        <time>2026-08-21T13:55:30.000Z</time>
        <extensions>
          <ns3:TrackPointExtension>
            <ns3:hr>141</ns3:hr>
            <ns3:cad>0</ns3:cad>
          </ns3:TrackPointExtension>
        </extensions>
      </trkpt>
      <trkpt lat="45.29510074295103549957275390625" lon="-70.83231009542942047119140625">
        <ele>1067</ele>
        <time>2026-08-21T13:55:31.000Z</time>
        <extensions>
          <ns3:TrackPointExtension>
            <ns3:hr>140</ns3:hr>
            <ns3:cad>60</ns3:cad>
          </ns3:TrackPointExtension>
        </extensions>
      </trkpt>
      <trkpt lat="45.2950979769229888916015625" lon="-70.83232610486447811126708984375">
        <ele>1067</ele>
        <time>2026-08-21T13:55:32.000Z</time>
        <extensions>
          <ns3:TrackPointExtension>
            <ns3:hr>140</ns3:hr>
            <ns3:cad>60</ns3:cad>
          </ns3:TrackPointExtension>
        </extensions>
      </trkpt>
      <trkpt lat="45.29509328305721282958984375" lon="-70.83233817480504512786865234375">
        <ele>1067</ele>
        <time>2026-08-21T13:55:33.000Z</time>
        <extensions>
          <ns3:TrackPointExtension>
            <ns3:hr>141</ns3:hr>
            <ns3:cad>0</ns3:cad>
          </ns3:TrackPointExtension>
        </extensions>
      </trkpt>
      <trkpt lat="45.295086242258548736572265625" lon="-70.83234990946948528289794921875">
        <ele>1067.199951171875</ele>
        <time>2026-08-21T13:55:34.000Z</time>
        <extensions>
          <ns3:TrackPointExtension>
            <ns3:hr>143</ns3:hr>
            <ns3:cad>0</ns3:cad>
          </ns3:TrackPointExtension>
        </extensions>
      </trkpt>
      <trkpt lat="45.29508163221180438995361328125" lon="-70.83235996775329113006591796875">
        <ele>1067.199951171875</ele>
        <time>2026-08-21T13:55:35.000Z</time>
        <extensions>
          <ns3:TrackPointExtension>
            <ns3:hr>143</ns3:hr>
            <ns3:cad>0</ns3:cad>
          </ns3:TrackPointExtension>
        </extensions>
      </trkpt>
      <trkpt lat="45.2950807102024555206298828125" lon="-70.8323699422180652618408203125">
        <ele>1067.4000244140625</ele>
        <time>2026-08-21T13:55:36.000Z</time>
        <extensions>
          <ns3:TrackPointExtension>
            <ns3:hr>144</ns3:hr>
            <ns3:cad>0</ns3:cad>
          </ns3:TrackPointExtension>
        </extensions>
      </trkpt>
      <trkpt lat="45.29507844708859920501708984375" lon="-70.83238393999636173248291015625">
        <ele>1067.4000244140625</ele>
        <time>2026-08-21T13:55:37.000Z</time>
        <extensions>
          <ns3:TrackPointExtension>
            <ns3:hr>145</ns3:hr>
            <ns3:cad>0</ns3:cad>
          </ns3:TrackPointExtension>
        </extensions>
      </trkpt>
      <trkpt lat="45.29507853090763092041015625" lon="-70.83239584229886531829833984375">
        <ele>1067.5999755859375</ele>
        <time>2026-08-21T13:55:38.000Z</time>
        <extensions>
          <ns3:TrackPointExtension>
            <ns3:hr>145</ns3:hr>
            <ns3:cad>0</ns3:cad>
          </ns3:TrackPointExtension>
        </extensions>
      </trkpt>
      <trkpt lat="45.2950756810605525970458984375" lon="-70.83240791223943233489990234375">
        <ele>1067.5999755859375</ele>
        <time>2026-08-21T13:55:39.000Z</time>
        <extensions>
          <ns3:TrackPointExtension>
            <ns3:hr>146</ns3:hr>
            <ns3:cad>0</ns3:cad>
          </ns3:TrackPointExtension>
        </extensions>
      </trkpt>
      <trkpt lat="45.29507492668926715850830078125" lon="-70.83241428248584270477294921875">
        <ele>1067.800048828125</ele>
        <time>2026-08-21T13:55:40.000Z</time>
        <extensions>
          <ns3:TrackPointExtension>
            <ns3:hr>146</ns3:hr>
            <ns3:cad>0</ns3:cad>
          </ns3:TrackPointExtension>
        </extensions>
      </trkpt>
      <trkpt lat="45.29507584869861602783203125" lon="-70.8324276097118854522705078125">
        <ele>1067.800048828125</ele>
        <time>2026-08-21T13:55:41.000Z</time>
        <extensions>
          <ns3:TrackPointExtension>
            <ns3:hr>146</ns3:hr>
            <ns3:cad>0</ns3:cad>
          </ns3:TrackPointExtension>
        </extensions>
      </trkpt>
      <trkpt lat="45.2950797043740749359130859375" lon="-70.832432806491851806640625">
        <ele>1068.199951171875</ele>
        <time>2026-08-21T13:55:42.000Z</time>
        <extensions>
          <ns3:TrackPointExtension>
            <ns3:hr>146</ns3:hr>
            <ns3:cad>0</ns3:cad>
          </ns3:TrackPointExtension>
        </extensions>
      </trkpt>
      <trkpt lat="45.29508255422115325927734375" lon="-70.83244018256664276123046875">
        <ele>1068.4000244140625</ele>
        <time>2026-08-21T13:55:43.000Z</time>
        <extensions>
          <ns3:TrackPointExtension>
            <ns3:hr>146</ns3:hr>
            <ns3:cad>0</ns3:cad>
          </ns3:TrackPointExtension>
        </extensions>
      </trkpt>
      <trkpt lat="45.29508791863918304443359375" lon="-70.83245485089719295501708984375">
        <ele>1068.5999755859375</ele>
        <time>2026-08-21T13:55:44.000Z</time>
        <extensions>
          <ns3:TrackPointExtension>
            <ns3:hr>146</ns3:hr>
            <ns3:cad>0</ns3:cad>
          </ns3:TrackPointExtension>
        </extensions>
      </trkpt>
      <trkpt lat="45.29508749954402446746826171875" lon="-70.83246164023876190185546875">
        <ele>1068.800048828125</ele>
        <time>2026-08-21T13:55:45.000Z</time>
        <extensions>
          <ns3:TrackPointExtension>
            <ns3:hr>145</ns3:hr>
            <ns3:cad>0</ns3:cad>
          </ns3:TrackPointExtension>
        </extensions>
      </trkpt>
      <trkpt lat="45.29509194195270538330078125" lon="-70.83247899077832698822021484375">
        <ele>1069</ele>
        <time>2026-08-21T13:55:46.000Z</time>
        <extensions>
          <ns3:TrackPointExtension>
            <ns3:hr>146</ns3:hr>
            <ns3:cad>0</ns3:cad>
          </ns3:TrackPointExtension>
        </extensions>
      </trkpt>
      <trkpt lat="45.29509487561881542205810546875" lon="-70.83248536102473735809326171875">
        <ele>1069.199951171875</ele>
        <time>2026-08-21T13:55:47.000Z</time>
        <extensions>
          <ns3:TrackPointExtension>
            <ns3:hr>146</ns3:hr>
            <ns3:cad>0</ns3:cad>
          </ns3:TrackPointExtension>
        </extensions>
      </trkpt>
      <trkpt lat="45.2951038442552089691162109375" lon="-70.83248955197632312774658203125">
        <ele>1069.5999755859375</ele>
        <time>2026-08-21T13:55:48.000Z</time>
        <extensions>
          <ns3:TrackPointExtension>
            <ns3:hr>146</ns3:hr>
            <ns3:cad>0</ns3:cad>
          </ns3:TrackPointExtension>
        </extensions>
      </trkpt>
      <trkpt lat="45.295109041035175323486328125" lon="-70.83249961026012897491455078125">
        <ele>1069.800048828125</ele>
        <time>2026-08-21T13:55:49.000Z</time>
        <extensions>
          <ns3:TrackPointExtension>
            <ns3:hr>146</ns3:hr>
            <ns3:cad>0</ns3:cad>
          </ns3:TrackPointExtension>
        </extensions>
      </trkpt>
      <trkpt lat="45.29511448927223682403564453125" lon="-70.832507908344268798828125">
        <ele>1069.800048828125</ele>
        <time>2026-08-21T13:55:50.000Z</time>
        <extensions>
          <ns3:TrackPointExtension>
            <ns3:hr>146</ns3:hr>
            <ns3:cad>0</ns3:cad>
          </ns3:TrackPointExtension>
        </extensions>
      </trkpt>
      <trkpt lat="45.29512454755604267120361328125" lon="-70.83252157084643840789794921875">
        <ele>1070</ele>
        <time>2026-08-21T13:55:51.000Z</time>
        <extensions>
          <ns3:TrackPointExtension>
            <ns3:hr>146</ns3:hr>
            <ns3:cad>0</ns3:cad>
          </ns3:TrackPointExtension>
        </extensions>
      </trkpt>
      <trkpt lat="45.29513075016438961029052734375" lon="-70.83253213204443454742431640625">
        <ele>1070</ele>
        <time>2026-08-21T13:55:52.000Z</time>
        <extensions>
          <ns3:TrackPointExtension>
            <ns3:hr>146</ns3:hr>
            <ns3:cad>0</ns3:cad>
          </ns3:TrackPointExtension>
        </extensions>
      </trkpt>
      <trkpt lat="45.2951330132782459259033203125" lon="-70.83254084922373294830322265625">
        <ele>1070</ele>
        <time>2026-08-21T13:55:53.000Z</time>
        <extensions>
          <ns3:TrackPointExtension>
            <ns3:hr>146</ns3:hr>
            <ns3:cad>0</ns3:cad>
          </ns3:TrackPointExtension>
        </extensions>
      </trkpt>
      <trkpt lat="45.2951367013156414031982421875" lon="-70.8325483091175556182861328125">
        <ele>1070.199951171875</ele>
        <time>2026-08-21T13:55:54.000Z</time>
        <extensions>
          <ns3:TrackPointExtension>
            <ns3:hr>146</ns3:hr>
            <ns3:cad>0</ns3:cad>
          </ns3:TrackPointExtension>
        </extensions>
      </trkpt>
      <trkpt lat="45.2951440773904323577880859375" lon="-70.8325580321252346038818359375">
        <ele>1070.199951171875</ele>
        <time>2026-08-21T13:55:55.000Z</time>
        <extensions>
          <ns3:TrackPointExtension>
            <ns3:hr>146</ns3:hr>
            <ns3:cad>0</ns3:cad>
          </ns3:TrackPointExtension>
        </extensions>
      </trkpt>
      <trkpt lat="45.29515220783650875091552734375" lon="-70.832571946084499359130859375">
        <ele>1070.199951171875</ele>
        <time>2026-08-21T13:55:56.000Z</time>
        <extensions>
          <ns3:TrackPointExtension>
            <ns3:hr>146</ns3:hr>
            <ns3:cad>0</ns3:cad>
          </ns3:TrackPointExtension>
        </extensions>
      </trkpt>
      <trkpt lat="45.29515363276004791259765625" lon="-70.832586027681827545166015625">
        <ele>1070.199951171875</ele>
        <time>2026-08-21T13:55:57.000Z</time>
        <extensions>
          <ns3:TrackPointExtension>
            <ns3:hr>146</ns3:hr>
            <ns3:cad>0</ns3:cad>
          </ns3:TrackPointExtension>
        </extensions>
      </trkpt>
      <trkpt lat="45.29515497386455535888671875" lon="-70.83259918726980686187744140625">
        <ele>1070.4000244140625</ele>
        <time>2026-08-21T13:55:58.000Z</time>
        <extensions>
          <ns3:TrackPointExtension>
            <ns3:hr>146</ns3:hr>
            <ns3:cad>0</ns3:cad>
          </ns3:TrackPointExtension>
        </extensions>
      </trkpt>
      <trkpt lat="45.29515790753066539764404296875" lon="-70.83261477760970592498779296875">
        <ele>1070.4000244140625</ele>
        <time>2026-08-21T13:55:59.000Z</time>
        <extensions>
          <ns3:TrackPointExtension>
            <ns3:hr>146</ns3:hr>
            <ns3:cad>0</ns3:cad>
          </ns3:TrackPointExtension>
        </extensions>
      </trkpt>
      <trkpt lat="45.29516109265387058258056640625" lon="-70.83263237960636615753173828125">
        <ele>1070.4000244140625</ele>
        <time>2026-08-21T13:56:00.000Z</time>
        <extensions>
          <ns3:TrackPointExtension>
            <ns3:hr>146</ns3:hr>
            <ns3:cad>0</ns3:cad>
          </ns3:TrackPointExtension>
        </extensions>
      </trkpt>
      <trkpt lat="45.29516276903450489044189453125" lon="-70.8326465450227260589599609375">
        <ele>1070.4000244140625</ele>
        <time>2026-08-21T13:56:01.000Z</time>
        <extensions>
          <ns3:TrackPointExtension>
            <ns3:hr>147</ns3:hr>
            <ns3:cad>0</ns3:cad>
          </ns3:TrackPointExtension>
        </extensions>
      </trkpt>
      <trkpt lat="45.29516025446355342864990234375" lon="-70.83266121335327625274658203125">
        <ele>1070.5999755859375</ele>
        <time>2026-08-21T13:56:02.000Z</time>
        <extensions>
          <ns3:TrackPointExtension>
            <ns3:hr>147</ns3:hr>
            <ns3:cad>0</ns3:cad>
          </ns3:TrackPointExtension>
        </extensions>
      </trkpt>
      <trkpt lat="45.29516042210161685943603515625" lon="-70.8326777257025241851806640625">
        <ele>1070.5999755859375</ele>
        <time>2026-08-21T13:56:03.000Z</time>
        <extensions>
          <ns3:TrackPointExtension>
            <ns3:hr>147</ns3:hr>
            <ns3:cad>60</ns3:cad>
          </ns3:TrackPointExtension>
        </extensions>
      </trkpt>
      <trkpt lat="45.2951621823012828826904296875" lon="-70.832697339355945587158203125">
        <ele>1070.4000244140625</ele>
        <time>2026-08-21T13:56:04.000Z</time>
        <extensions>
          <ns3:TrackPointExtension>
            <ns3:hr>146</ns3:hr>
            <ns3:cad>60</ns3:cad>
          </ns3:TrackPointExtension>
        </extensions>
      </trkpt>
      <trkpt lat="45.29516025446355342864990234375" lon="-70.83271636627614498138427734375">
        <ele>1070.5999755859375</ele>
        <time>2026-08-21T13:56:05.000Z</time>
        <extensions>
          <ns3:TrackPointExtension>
            <ns3:hr>146</ns3:hr>
            <ns3:cad>0</ns3:cad>
          </ns3:TrackPointExtension>
        </extensions>
      </trkpt>
      <trkpt lat="45.2951531298458576202392578125" lon="-70.83273111842572689056396484375">
        <ele>1070.5999755859375</ele>
        <time>2026-08-21T13:56:06.000Z</time>
        <extensions>
          <ns3:TrackPointExtension>
            <ns3:hr>146</ns3:hr>
            <ns3:cad>0</ns3:cad>
          </ns3:TrackPointExtension>
        </extensions>
      </trkpt>
      <trkpt lat="45.29515136964619159698486328125" lon="-70.832741260528564453125">
        <ele>1070.800048828125</ele>
        <time>2026-08-21T13:56:07.000Z</time>
        <extensions>
          <ns3:TrackPointExtension>
            <ns3:hr>147</ns3:hr>
            <ns3:cad>0</ns3:cad>
          </ns3:TrackPointExtension>
        </extensions>
      </trkpt>
      <trkpt lat="45.2951511181890964508056640625" lon="-70.8327494747936725616455078125">
        <ele>1071.199951171875</ele>
        <time>2026-08-21T13:56:08.000Z</time>
        <extensions>
          <ns3:TrackPointExtension>
            <ns3:hr>147</ns3:hr>
            <ns3:cad>0</ns3:cad>
          </ns3:TrackPointExtension>
        </extensions>
      </trkpt>
      <trkpt lat="45.29514818452298641204833984375" lon="-70.8327598683536052703857421875">
        <ele>1071.5999755859375</ele>
        <time>2026-08-21T13:56:09.000Z</time>
        <extensions>
          <ns3:TrackPointExtension>
            <ns3:hr>146</ns3:hr>
            <ns3:cad>0</ns3:cad>
          </ns3:TrackPointExtension>
        </extensions>
      </trkpt>
      <trkpt lat="45.29514650814235210418701171875" lon="-70.83276950754225254058837890625">
        <ele>1072</ele>
        <time>2026-08-21T13:56:10.000Z</time>
        <extensions>
          <ns3:TrackPointExtension>
            <ns3:hr>146</ns3:hr>
            <ns3:cad>0</ns3:cad>
          </ns3:TrackPointExtension>
        </extensions>
      </trkpt>
      <trkpt lat="45.295147597789764404296875" lon="-70.83277671597898006439208984375">
        <ele>1072.199951171875</ele>
        <time>2026-08-21T13:56:11.000Z</time>
        <extensions>
          <ns3:TrackPointExtension>
            <ns3:hr>146</ns3:hr>
            <ns3:cad>0</ns3:cad>
          </ns3:TrackPointExtension>
        </extensions>
      </trkpt>
      <trkpt lat="45.29514634050428867340087890625" lon="-70.8327793143689632415771484375">
        <ele>1072.4000244140625</ele>
        <time>2026-08-21T13:56:12.000Z</time>
        <extensions>
          <ns3:TrackPointExtension>
            <ns3:hr>146</ns3:hr>
            <ns3:cad>0</ns3:cad>
          </ns3:TrackPointExtension>
        </extensions>
      </trkpt>
      <trkpt lat="45.29514483176171779632568359375" lon="-70.8327783085405826568603515625">
        <ele>1072.5999755859375</ele>
        <time>2026-08-21T13:56:13.000Z</time>
        <extensions>
          <ns3:TrackPointExtension>
            <ns3:hr>146</ns3:hr>
            <ns3:cad>0</ns3:cad>
          </ns3:TrackPointExtension>
        </extensions>
      </trkpt>
      <trkpt lat="45.29514533467590808868408203125" lon="-70.83277545869350433349609375">
        <ele>1073</ele>
        <time>2026-08-21T13:56:14.000Z</time>
        <extensions>
          <ns3:TrackPointExtension>
            <ns3:hr>146</ns3:hr>
            <ns3:cad>0</ns3:cad>
          </ns3:TrackPointExtension>
        </extensions>
      </trkpt>
      <trkpt lat="45.29514156281948089599609375" lon="-70.83278560079634189605712890625">
        <ele>1073.199951171875</ele>
        <time>2026-08-21T13:56:15.000Z</time>
        <extensions>
          <ns3:TrackPointExtension>
            <ns3:hr>145</ns3:hr>
            <ns3:cad>0</ns3:cad>
          </ns3:TrackPointExtension>
        </extensions>
      </trkpt>
      <trkpt lat="45.29514231719076633453369140625" lon="-70.832803957164287567138671875">
        <ele>1073.4000244140625</ele>
        <time>2026-08-21T13:56:16.000Z</time>
        <extensions>
          <ns3:TrackPointExtension>
            <ns3:hr>145</ns3:hr>
            <ns3:cad>0</ns3:cad>
          </ns3:TrackPointExtension>
        </extensions>
      </trkpt>
      <trkpt lat="45.29514667578041553497314453125" lon="-70.83282315172255039215087890625">
        <ele>1073.5999755859375</ele>
        <time>2026-08-21T13:56:17.000Z</time>
        <extensions>
          <ns3:TrackPointExtension>
            <ns3:hr>145</ns3:hr>
            <ns3:cad>0</ns3:cad>
          </ns3:TrackPointExtension>
        </extensions>
      </trkpt>
      <trkpt lat="45.29514566995203495025634765625" lon="-70.8328292705118656158447265625">
        <ele>1073.800048828125</ele>
        <time>2026-08-21T13:56:18.000Z</time>
        <extensions>
          <ns3:TrackPointExtension>
            <ns3:hr>145</ns3:hr>
            <ns3:cad>0</ns3:cad>
          </ns3:TrackPointExtension>
        </extensions>
      </trkpt>
      <trkpt lat="45.2951393835246562957763671875" lon="-70.8328346349298954010009765625">
        <ele>1074</ele>
        <time>2026-08-21T13:56:19.000Z</time>
        <extensions>
          <ns3:TrackPointExtension>
            <ns3:hr>146</ns3:hr>
            <ns3:cad>0</ns3:cad>
          </ns3:TrackPointExtension>
        </extensions>
      </trkpt>
      <trkpt lat="45.29514047317206859588623046875" lon="-70.8328413404524326324462890625">
        <ele>1074</ele>
        <time>2026-08-21T13:56:20.000Z</time>
        <extensions>
          <ns3:TrackPointExtension>
            <ns3:hr>146</ns3:hr>
            <ns3:cad>0</ns3:cad>
          </ns3:TrackPointExtension>
        </extensions>
      </trkpt>
      <trkpt lat="45.295135863125324249267578125" lon="-70.8328379876911640167236328125">
        <ele>1074.199951171875</ele>
        <time>2026-08-21T13:56:21.000Z</time>
        <extensions>
          <ns3:TrackPointExtension>
            <ns3:hr>146</ns3:hr>
            <ns3:cad>0</ns3:cad>
          </ns3:TrackPointExtension>
        </extensions>
      </trkpt>
      <trkpt lat="45.2951301634311676025390625" lon="-70.8328376524150371551513671875">
        <ele>1074.199951171875</ele>
        <time>2026-08-21T13:56:22.000Z</time>
        <extensions>
          <ns3:TrackPointExtension>
            <ns3:hr>146</ns3:hr>
            <ns3:cad>0</ns3:cad>
          </ns3:TrackPointExtension>
        </extensions>
      </trkpt>
      <trkpt lat="45.29512706212699413299560546875" lon="-70.83284444175660610198974609375">
        <ele>1074.4000244140625</ele>
        <time>2026-08-21T13:56:23.000Z</time>
        <extensions>
          <ns3:TrackPointExtension>
            <ns3:hr>146</ns3:hr>
            <ns3:cad>0</ns3:cad>
          </ns3:TrackPointExtension>
        </extensions>
      </trkpt>
      <trkpt lat="45.29512857086956501007080078125" lon="-70.83285215310752391815185546875">
        <ele>1074.800048828125</ele>
        <time>2026-08-21T13:56:24.000Z</time>
        <extensions>
          <ns3:TrackPointExtension>
            <ns3:hr>146</ns3:hr>
            <ns3:cad>0</ns3:cad>
          </ns3:TrackPointExtension>
        </extensions>
      </trkpt>
      <trkpt lat="45.29513075016438961029052734375" lon="-70.83286019973456859588623046875">
        <ele>1075</ele>
        <time>2026-08-21T13:56:25.000Z</time>
        <extensions>
          <ns3:TrackPointExtension>
            <ns3:hr>146</ns3:hr>
            <ns3:cad>0</ns3:cad>
          </ns3:TrackPointExtension>
        </extensions>
      </trkpt>
      <trkpt lat="45.29512756504118442535400390625" lon="-70.83286707289516925811767578125">
        <ele>1075.4000244140625</ele>
        <time>2026-08-21T13:56:26.000Z</time>
        <extensions>
          <ns3:TrackPointExtension>
            <ns3:hr>146</ns3:hr>
            <ns3:cad>0</ns3:cad>
          </ns3:TrackPointExtension>
        </extensions>
      </trkpt>
      <trkpt lat="45.29513041488826274871826171875" lon="-70.832872353494167327880859375">
        <ele>1075.800048828125</ele>
        <time>2026-08-21T13:56:27.000Z</time>
        <extensions>
          <ns3:TrackPointExtension>
            <ns3:hr>146</ns3:hr>
            <ns3:cad>0</ns3:cad>
          </ns3:TrackPointExtension>
        </extensions>
      </trkpt>
      <trkpt lat="45.2951330132782459259033203125" lon="-70.83286992274224758148193359375">
        <ele>1076.199951171875</ele>
        <time>2026-08-21T13:56:28.000Z</time>
        <extensions>
          <ns3:TrackPointExtension>
            <ns3:hr>146</ns3:hr>
            <ns3:cad>0</ns3:cad>
          </ns3:TrackPointExtension>
        </extensions>
      </trkpt>
      <trkpt lat="45.295133180916309356689453125" lon="-70.8328738622367382049560546875">
        <ele>1076.4000244140625</ele>
        <time>2026-08-21T13:56:29.000Z</time>
        <extensions>
          <ns3:TrackPointExtension>
            <ns3:hr>146</ns3:hr>
            <ns3:cad>0</ns3:cad>
          </ns3:TrackPointExtension>
        </extensions>
      </trkpt>
      <trkpt lat="45.2951263077557086944580078125" lon="-70.83287428133189678192138671875">
        <ele>1076.800048828125</ele>
        <time>2026-08-21T13:56:30.000Z</time>
        <extensions>
          <ns3:TrackPointExtension>
            <ns3:hr>146</ns3:hr>
            <ns3:cad>0</ns3:cad>
          </ns3:TrackPointExtension>
        </extensions>
      </trkpt>
      <trkpt lat="45.29512069188058376312255859375" lon="-70.832874365150928497314453125">
        <ele>1077</ele>
        <time>2026-08-21T13:56:31.000Z</time>
        <extensions>
          <ns3:TrackPointExtension>
            <ns3:hr>146</ns3:hr>
            <ns3:cad>0</ns3:cad>
          </ns3:TrackPointExtension>
        </extensions>
      </trkpt>
      <trkpt lat="45.2951194345951080322265625" lon="-70.83288132213056087493896484375">
        <ele>1077.199951171875</ele>
        <time>2026-08-21T13:56:32.000Z</time>
        <extensions>
          <ns3:TrackPointExtension>
            <ns3:hr>146</ns3:hr>
            <ns3:cad>0</ns3:cad>
          </ns3:TrackPointExtension>
        </extensions>
      </trkpt>
      <trkpt lat="45.29511767439544200897216796875" lon="-70.83288283087313175201416015625">
        <ele>1077.5999755859375</ele>
        <time>2026-08-21T13:56:33.000Z</time>
        <extensions>
          <ns3:TrackPointExtension>
            <ns3:hr>146</ns3:hr>
            <ns3:cad>0</ns3:cad>
          </ns3:TrackPointExtension>
        </extensions>
      </trkpt>
      <trkpt lat="45.29511205852031707763671875" lon="-70.83288517780601978302001953125">
        <ele>1077.800048828125</ele>
        <time>2026-08-21T13:56:34.000Z</time>
        <extensions>
          <ns3:TrackPointExtension>
            <ns3:hr>146</ns3:hr>
            <ns3:cad>0</ns3:cad>
          </ns3:TrackPointExtension>
        </extensions>
      </trkpt>
      <trkpt lat="45.29510979540646076202392578125" lon="-70.83288618363440036773681640625">
        <ele>1078</ele>
        <time>2026-08-21T13:56:35.000Z</time>
        <extensions>
          <ns3:TrackPointExtension>
            <ns3:hr>146</ns3:hr>
            <ns3:cad>0</ns3:cad>
          </ns3:TrackPointExtension>
        </extensions>
      </trkpt>
      <trkpt lat="45.29511339962482452392578125" lon="-70.83289003930985927581787109375">
        <ele>1078</ele>
        <time>2026-08-21T13:56:36.000Z</time>
        <extensions>
          <ns3:TrackPointExtension>
            <ns3:hr>146</ns3:hr>
            <ns3:cad>0</ns3:cad>
          </ns3:TrackPointExtension>
        </extensions>
      </trkpt>
      <trkpt lat="45.29511432163417339324951171875" lon="-70.832885093986988067626953125">
        <ele>1078.199951171875</ele>
        <time>2026-08-21T13:56:37.000Z</time>
        <extensions>
          <ns3:TrackPointExtension>
            <ns3:hr>145</ns3:hr>
            <ns3:cad>0</ns3:cad>
          </ns3:TrackPointExtension>
        </extensions>
      </trkpt>
      <trkpt lat="45.29511717148125171661376953125" lon="-70.8328805677592754364013671875">
        <ele>1078.199951171875</ele>
        <time>2026-08-21T13:56:38.000Z</time>
        <extensions>
          <ns3:TrackPointExtension>
            <ns3:hr>145</ns3:hr>
            <ns3:cad>0</ns3:cad>
          </ns3:TrackPointExtension>
        </extensions>
      </trkpt>
      <trkpt lat="45.29512102715671062469482421875" lon="-70.83287210203707218170166015625">
        <ele>1078.199951171875</ele>
        <time>2026-08-21T13:56:39.000Z</time>
        <extensions>
          <ns3:TrackPointExtension>
            <ns3:hr>146</ns3:hr>
            <ns3:cad>0</ns3:cad>
          </ns3:TrackPointExtension>
        </extensions>
      </trkpt>
      <trkpt lat="45.29512136243283748626708984375" lon="-70.83286237902939319610595703125">
        <ele>1078.4000244140625</ele>
        <time>2026-08-21T13:56:40.000Z</time>
        <extensions>
          <ns3:TrackPointExtension>
            <ns3:hr>145</ns3:hr>
            <ns3:cad>0</ns3:cad>
          </ns3:TrackPointExtension>
        </extensions>
      </trkpt>
      <trkpt lat="45.29512018896639347076416015625" lon="-70.83285726606845855712890625">
        <ele>1078.5999755859375</ele>
        <time>2026-08-21T13:56:41.000Z</time>
        <extensions>
          <ns3:TrackPointExtension>
            <ns3:hr>145</ns3:hr>
            <ns3:cad>0</ns3:cad>
          </ns3:TrackPointExtension>
        </extensions>
      </trkpt>
      <trkpt lat="45.29510677792131900787353515625" lon="-70.83285391330718994140625">
        <ele>1078.800048828125</ele>
        <time>2026-08-21T13:56:42.000Z</time>
        <extensions>
          <ns3:TrackPointExtension>
            <ns3:hr>146</ns3:hr>
            <ns3:cad>0</ns3:cad>
          </ns3:TrackPointExtension>
        </extensions>
      </trkpt>
      <trkpt lat="45.29510057531297206878662109375" lon="-70.83284863270819187164306640625">
        <ele>1079</ele>
        <time>2026-08-21T13:56:43.000Z</time>
        <extensions>
          <ns3:TrackPointExtension>
            <ns3:hr>146</ns3:hr>
            <ns3:cad>0</ns3:cad>
          </ns3:TrackPointExtension>
        </extensions>
      </trkpt>
      <trkpt lat="45.29509420506656169891357421875" lon="-70.8328413404524326324462890625">
        <ele>1079.4000244140625</ele>
        <time>2026-08-21T13:56:44.000Z</time>
        <extensions>
          <ns3:TrackPointExtension>
            <ns3:hr>146</ns3:hr>
            <ns3:cad>0</ns3:cad>
          </ns3:TrackPointExtension>
        </extensions>
      </trkpt>
      <trkpt lat="45.29508850537240505218505859375" lon="-70.8328353054821491241455078125">
        <ele>1079.5999755859375</ele>
        <time>2026-08-21T13:56:45.000Z</time>
        <extensions>
          <ns3:TrackPointExtension>
            <ns3:hr>146</ns3:hr>
            <ns3:cad>0</ns3:cad>
          </ns3:TrackPointExtension>
        </extensions>
      </trkpt>
      <trkpt lat="45.29508314095437526702880859375" lon="-70.83282566629350185394287109375">
        <ele>1079.800048828125</ele>
        <time>2026-08-21T13:56:46.000Z</time>
        <extensions>
          <ns3:TrackPointExtension>
            <ns3:hr>147</ns3:hr>
            <ns3:cad>0</ns3:cad>
          </ns3:TrackPointExtension>
        </extensions>
      </trkpt>
      <trkpt lat="45.2950709871947765350341796875" lon="-70.83281711675226688385009765625">
        <ele>1079.800048828125</ele>
        <time>2026-08-21T13:56:47.000Z</time>
        <extensions>
          <ns3:TrackPointExtension>
            <ns3:hr>147</ns3:hr>
            <ns3:cad>0</ns3:cad>
          </ns3:TrackPointExtension>
        </extensions>
      </trkpt>
      <trkpt lat="45.29505933634936809539794921875" lon="-70.83282239735126495361328125">
        <ele>1080</ele>
        <time>2026-08-21T13:56:48.000Z</time>
        <extensions>
          <ns3:TrackPointExtension>
            <ns3:hr>148</ns3:hr>
            <ns3:cad>0</ns3:cad>
          </ns3:TrackPointExtension>
        </extensions>
      </trkpt>
      <trkpt lat="45.29504877515137195587158203125" lon="-70.83283103071153163909912109375">
        <ele>1080</ele>
        <time>2026-08-21T13:56:49.000Z</time>
        <extensions>
          <ns3:TrackPointExtension>
            <ns3:hr>148</ns3:hr>
            <ns3:cad>0</ns3:cad>
          </ns3:TrackPointExtension>
        </extensions>
      </trkpt>
      <trkpt lat="45.29503838159143924713134765625" lon="-70.83284318447113037109375">
        <ele>1080</ele>
        <time>2026-08-21T13:56:50.000Z</time>
        <extensions>
          <ns3:TrackPointExtension>
            <ns3:hr>148</ns3:hr>
            <ns3:cad>0</ns3:cad>
          </ns3:TrackPointExtension>
        </extensions>
      </trkpt>
      <trkpt lat="45.29502999968826770782470703125" lon="-70.8328534103929996490478515625">
        <ele>1080.199951171875</ele>
        <time>2026-08-21T13:56:51.000Z</time>
        <extensions>
          <ns3:TrackPointExtension>
            <ns3:hr>147</ns3:hr>
            <ns3:cad>0</ns3:cad>
          </ns3:TrackPointExtension>
        </extensions>
      </trkpt>
      <trkpt lat="45.29502010904252529144287109375" lon="-70.8328658156096935272216796875">
        <ele>1080.199951171875</ele>
        <time>2026-08-21T13:56:52.000Z</time>
        <extensions>
          <ns3:TrackPointExtension>
            <ns3:hr>147</ns3:hr>
            <ns3:cad>0</ns3:cad>
          </ns3:TrackPointExtension>
        </extensions>
      </trkpt>
      <trkpt lat="45.295009128749370574951171875" lon="-70.8328793942928314208984375">
        <ele>1080.199951171875</ele>
        <time>2026-08-21T13:56:53.000Z</time>
        <extensions>
          <ns3:TrackPointExtension>
            <ns3:hr>147</ns3:hr>
            <ns3:cad>0</ns3:cad>
          </ns3:TrackPointExtension>
        </extensions>
      </trkpt>
      <trkpt lat="45.29500016011297702789306640625" lon="-70.832891799509525299072265625">
        <ele>1080</ele>
        <time>2026-08-21T13:56:54.000Z</time>
        <extensions>
          <ns3:TrackPointExtension>
            <ns3:hr>148</ns3:hr>
            <ns3:cad>0</ns3:cad>
          </ns3:TrackPointExtension>
        </extensions>
      </trkpt>
      <trkpt lat="45.2949958853423595428466796875" lon="-70.83290311507880687713623046875">
        <ele>1080</ele>
        <time>2026-08-21T13:56:55.000Z</time>
        <extensions>
          <ns3:TrackPointExtension>
            <ns3:hr>148</ns3:hr>
            <ns3:cad>0</ns3:cad>
          </ns3:TrackPointExtension>
        </extensions>
      </trkpt>
      <trkpt lat="45.2949905209243297576904296875" lon="-70.83291920833289623260498046875">
        <ele>1080</ele>
        <time>2026-08-21T13:56:56.000Z</time>
        <extensions>
          <ns3:TrackPointExtension>
            <ns3:hr>148</ns3:hr>
            <ns3:cad>0</ns3:cad>
          </ns3:TrackPointExtension>
        </extensions>
      </trkpt>
      <trkpt lat="45.2949858270585536956787109375" lon="-70.83293496631085872650146484375">
        <ele>1079.800048828125</ele>
        <time>2026-08-21T13:56:57.000Z</time>
        <extensions>
          <ns3:TrackPointExtension>
            <ns3:hr>148</ns3:hr>
            <ns3:cad>47</ns3:cad>
          </ns3:TrackPointExtension>
        </extensions>
      </trkpt>
      <trkpt lat="45.2949895150959491729736328125" lon="-70.832947790622711181640625">
        <ele>1079.800048828125</ele>
        <time>2026-08-21T13:56:58.000Z</time>
        <extensions>
          <ns3:TrackPointExtension>
            <ns3:hr>149</ns3:hr>
            <ns3:cad>47</ns3:cad>
          </ns3:TrackPointExtension>
        </extensions>
      </trkpt>
      <trkpt lat="45.29499647207558155059814453125" lon="-70.83294921554625034332275390625">
        <ele>1079.5999755859375</ele>
        <time>2026-08-21T13:56:59.000Z</time>
        <extensions>
          <ns3:TrackPointExtension>
            <ns3:hr>149</ns3:hr>
            <ns3:cad>47</ns3:cad>
          </ns3:TrackPointExtension>
        </extensions>
      </trkpt>
      <trkpt lat="45.2950072847306728363037109375" lon="-70.83296597935259342193603515625">
        <ele>1079.5999755859375</ele>
        <time>2026-08-21T13:57:00.000Z</time>
        <extensions>
          <ns3:TrackPointExtension>
            <ns3:hr>149</ns3:hr>
            <ns3:cad>52</ns3:cad>
          </ns3:TrackPointExtension>
        </extensions>
      </trkpt>
      <trkpt lat="45.295013487339019775390625" lon="-70.83298073150217533111572265625">
        <ele>1079.4000244140625</ele>
        <time>2026-08-21T13:57:01.000Z</time>
        <extensions>
          <ns3:TrackPointExtension>
            <ns3:hr>148</ns3:hr>
            <ns3:cad>52</ns3:cad>
          </ns3:TrackPointExtension>
        </extensions>
      </trkpt>
      <trkpt lat="45.29501290060579776763916015625" lon="-70.83298525772988796234130859375">
        <ele>1079.4000244140625</ele>
        <time>2026-08-21T13:57:02.000Z</time>
        <extensions>
          <ns3:TrackPointExtension>
            <ns3:hr>148</ns3:hr>
            <ns3:cad>53</ns3:cad>
          </ns3:TrackPointExtension>
        </extensions>
      </trkpt>
      <trkpt lat="45.2950082905590534210205078125" lon="-70.8329858444631099700927734375">
        <ele>1079.199951171875</ele>
        <time>2026-08-21T13:57:03.000Z</time>
        <extensions>
          <ns3:TrackPointExtension>
            <ns3:hr>149</ns3:hr>
            <ns3:cad>53</ns3:cad>
          </ns3:TrackPointExtension>
        </extensions>
      </trkpt>
      <trkpt lat="45.29500477015972137451171875" lon="-70.83298743702471256256103515625">
        <ele>1079.199951171875</ele>
        <time>2026-08-21T13:57:04.000Z</time>
        <extensions>
          <ns3:TrackPointExtension>
            <ns3:hr>149</ns3:hr>
            <ns3:cad>53</ns3:cad>
          </ns3:TrackPointExtension>
        </extensions>
      </trkpt>
      <trkpt lat="45.2950094640254974365234375" lon="-70.83299632184207439422607421875">
        <ele>1079.199951171875</ele>
        <time>2026-08-21T13:57:05.000Z</time>
        <extensions>
          <ns3:TrackPointExtension>
            <ns3:hr>148</ns3:hr>
            <ns3:cad>51</ns3:cad>
          </ns3:TrackPointExtension>
        </extensions>
      </trkpt>
      <trkpt lat="45.29501088894903659820556640625" lon="-70.83300218917429447174072265625">
        <ele>1079.4000244140625</ele>
        <time>2026-08-21T13:57:06.000Z</time>
        <extensions>
          <ns3:TrackPointExtension>
            <ns3:hr>148</ns3:hr>
            <ns3:cad>51</ns3:cad>
          </ns3:TrackPointExtension>
        </extensions>
      </trkpt>
      <trkpt lat="45.2950126491487026214599609375" lon="-70.83300336264073848724365234375">
        <ele>1079.5999755859375</ele>
        <time>2026-08-21T13:57:07.000Z</time>
        <extensions>
          <ns3:TrackPointExtension>
            <ns3:hr>148</ns3:hr>
            <ns3:cad>0</ns3:cad>
          </ns3:TrackPointExtension>
        </extensions>
      </trkpt>
      <trkpt lat="45.2950146608054637908935546875" lon="-70.833000428974628448486328125">
        <ele>1079.800048828125</ele>
        <time>2026-08-21T13:57:08.000Z</time>
        <extensions>
          <ns3:TrackPointExtension>
            <ns3:hr>148</ns3:hr>
            <ns3:cad>0</ns3:cad>
          </ns3:TrackPointExtension>
        </extensions>
      </trkpt>
      <trkpt lat="45.29501658864319324493408203125" lon="-70.8330027759075164794921875">
        <ele>1080</ele>
        <time>2026-08-21T13:57:09.000Z</time>
        <extensions>
          <ns3:TrackPointExtension>
            <ns3:hr>148</ns3:hr>
            <ns3:cad>0</ns3:cad>
          </ns3:TrackPointExtension>
        </extensions>
      </trkpt>
      <trkpt lat="45.29501415789127349853515625" lon="-70.83300705067813396453857421875">
        <ele>1080.199951171875</ele>
        <time>2026-08-21T13:57:10.000Z</time>
        <extensions>
          <ns3:TrackPointExtension>
            <ns3:hr>148</ns3:hr>
            <ns3:cad>0</ns3:cad>
          </ns3:TrackPointExtension>
        </extensions>
      </trkpt>
      <trkpt lat="45.29501340351998805999755859375" lon="-70.833019204437732696533203125">
        <ele>1080.4000244140625</ele>
        <time>2026-08-21T13:57:11.000Z</time>
        <extensions>
          <ns3:TrackPointExtension>
            <ns3:hr>148</ns3:hr>
            <ns3:cad>0</ns3:cad>
          </ns3:TrackPointExtension>
        </extensions>
      </trkpt>
      <trkpt lat="45.29501684010028839111328125" lon="-70.833028256893157958984375">
        <ele>1080.5999755859375</ele>
        <time>2026-08-21T13:57:12.000Z</time>
        <extensions>
          <ns3:TrackPointExtension>
            <ns3:hr>147</ns3:hr>
            <ns3:cad>0</ns3:cad>
          </ns3:TrackPointExtension>
        </extensions>
      </trkpt>
      <trkpt lat="45.2950180135667324066162109375" lon="-70.83302867598831653594970703125">
        <ele>1080.5999755859375</ele>
        <time>2026-08-21T13:57:13.000Z</time>
        <extensions>
          <ns3:TrackPointExtension>
            <ns3:hr>147</ns3:hr>
            <ns3:cad>0</ns3:cad>
          </ns3:TrackPointExtension>
        </extensions>
      </trkpt>
      <trkpt lat="45.2950201928615570068359375" lon="-70.83303571678698062896728515625">
        <ele>1081</ele>
        <time>2026-08-21T13:57:14.000Z</time>
        <extensions>
          <ns3:TrackPointExtension>
            <ns3:hr>146</ns3:hr>
            <ns3:cad>0</ns3:cad>
          </ns3:TrackPointExtension>
        </extensions>
      </trkpt>
      <trkpt lat="45.295021869242191314697265625" lon="-70.83303404040634632110595703125">
        <ele>1081.199951171875</ele>
        <time>2026-08-21T13:57:15.000Z</time>
        <extensions>
          <ns3:TrackPointExtension>
            <ns3:hr>143</ns3:hr>
            <ns3:cad>0</ns3:cad>
          </ns3:TrackPointExtension>
        </extensions>
      </trkpt>
      <trkpt lat="45.29502228833734989166259765625" lon="-70.83303789608180522918701171875">
        <ele>1081.4000244140625</ele>
        <time>2026-08-21T13:57:16.000Z</time>
        <extensions>
          <ns3:TrackPointExtension>
            <ns3:hr>142</ns3:hr>
            <ns3:cad>0</ns3:cad>
          </ns3:TrackPointExtension>
        </extensions>
      </trkpt>
      <trkpt lat="45.29501843266189098358154296875" lon="-70.8330364711582660675048828125">
        <ele>1081.4000244140625</ele>
        <time>2026-08-21T13:57:17.000Z</time>
        <extensions>
          <ns3:TrackPointExtension>
            <ns3:hr>141</ns3:hr>
            <ns3:cad>0</ns3:cad>
          </ns3:TrackPointExtension>
        </extensions>
      </trkpt>
      <trkpt lat="45.29501357115805149078369140625" lon="-70.8330425061285495758056640625">
        <ele>1081.5999755859375</ele>
        <time>2026-08-21T13:57:18.000Z</time>
        <extensions>
          <ns3:TrackPointExtension>
            <ns3:hr>140</ns3:hr>
            <ns3:cad>0</ns3:cad>
          </ns3:TrackPointExtension>
        </extensions>
      </trkpt>
      <trkpt lat="45.29501013457775115966796875" lon="-70.83303940482437610626220703125">
        <ele>1081.800048828125</ele>
        <time>2026-08-21T13:57:19.000Z</time>
        <extensions>
          <ns3:TrackPointExtension>
            <ns3:hr>140</ns3:hr>
            <ns3:cad>0</ns3:cad>
          </ns3:TrackPointExtension>
        </extensions>
      </trkpt>
      <trkpt lat="45.29501021839678287506103515625" lon="-70.83303772844374179840087890625">
        <ele>1082</ele>
        <time>2026-08-21T13:57:20.000Z</time>
        <extensions>
          <ns3:TrackPointExtension>
            <ns3:hr>140</ns3:hr>
            <ns3:cad>0</ns3:cad>
          </ns3:TrackPointExtension>
        </extensions>
      </trkpt>
      <trkpt lat="45.29501021839678287506103515625" lon="-70.83303722552955150604248046875">
        <ele>1082.4000244140625</ele>
        <time>2026-08-21T13:57:21.000Z</time>
        <extensions>
          <ns3:TrackPointExtension>
            <ns3:hr>140</ns3:hr>
            <ns3:cad>0</ns3:cad>
          </ns3:TrackPointExtension>
        </extensions>
      </trkpt>
      <trkpt lat="45.29500803910195827484130859375" lon="-70.833038650453090667724609375">
        <ele>1082.5999755859375</ele>
        <time>2026-08-21T13:57:22.000Z</time>
        <extensions>
          <ns3:TrackPointExtension>
            <ns3:hr>140</ns3:hr>
            <ns3:cad>0</ns3:cad>
          </ns3:TrackPointExtension>
        </extensions>
      </trkpt>
      <trkpt lat="45.29501072131097316741943359375" lon="-70.83303420804440975189208984375">
        <ele>1082.800048828125</ele>
        <time>2026-08-21T13:57:23.000Z</time>
        <extensions>
          <ns3:TrackPointExtension>
            <ns3:hr>139</ns3:hr>
            <ns3:cad>0</ns3:cad>
          </ns3:TrackPointExtension>
        </extensions>
      </trkpt>
      <trkpt lat="45.29500686563551425933837890625" lon="-70.833036638796329498291015625">
        <ele>1083</ele>
        <time>2026-08-21T13:57:24.000Z</time>
        <extensions>
          <ns3:TrackPointExtension>
            <ns3:hr>139</ns3:hr>
            <ns3:cad>0</ns3:cad>
          </ns3:TrackPointExtension>
        </extensions>
      </trkpt>
      <trkpt lat="45.29500200413167476654052734375" lon="-70.83304208703339099884033203125">
        <ele>1083.199951171875</ele>
        <time>2026-08-21T13:57:25.000Z</time>
        <extensions>
          <ns3:TrackPointExtension>
            <ns3:hr>139</ns3:hr>
            <ns3:cad>0</ns3:cad>
          </ns3:TrackPointExtension>
        </extensions>
      </trkpt>
      <trkpt lat="45.29499596916139125823974609375" lon="-70.8330418355762958526611328125">
        <ele>1083.199951171875</ele>
        <time>2026-08-21T13:57:26.000Z</time>
        <extensions>
          <ns3:TrackPointExtension>
            <ns3:hr>139</ns3:hr>
            <ns3:cad>0</ns3:cad>
          </ns3:TrackPointExtension>
        </extensions>
      </trkpt>
      <trkpt lat="45.2949945442378520965576171875" lon="-70.833041332662105560302734375">
        <ele>1083.4000244140625</ele>
        <time>2026-08-21T13:57:27.000Z</time>
        <extensions>
          <ns3:TrackPointExtension>
            <ns3:hr>139</ns3:hr>
            <ns3:cad>0</ns3:cad>
          </ns3:TrackPointExtension>
        </extensions>
      </trkpt>
      <trkpt lat="45.29499429278075695037841796875" lon="-70.83304879255592823028564453125">
        <ele>1083.5999755859375</ele>
        <time>2026-08-21T13:57:28.000Z</time>
        <extensions>
          <ns3:TrackPointExtension>
            <ns3:hr>139</ns3:hr>
            <ns3:cad>0</ns3:cad>
          </ns3:TrackPointExtension>
        </extensions>
      </trkpt>
      <trkpt lat="45.29499647207558155059814453125" lon="-70.8330518938601016998291015625">
        <ele>1083.800048828125</ele>
        <time>2026-08-21T13:57:29.000Z</time>
        <extensions>
          <ns3:TrackPointExtension>
            <ns3:hr>139</ns3:hr>
            <ns3:cad>0</ns3:cad>
          </ns3:TrackPointExtension>
        </extensions>
      </trkpt>
      <trkpt lat="45.29499814845621585845947265625" lon="-70.83306170068681240081787109375">
        <ele>1084</ele>
        <time>2026-08-21T13:57:30.000Z</time>
        <extensions>
          <ns3:TrackPointExtension>
            <ns3:hr>139</ns3:hr>
            <ns3:cad>0</ns3:cad>
          </ns3:TrackPointExtension>
        </extensions>
      </trkpt>
      <trkpt lat="45.29499982483685016632080078125" lon="-70.83306723274290561676025390625">
        <ele>1084.4000244140625</ele>
        <time>2026-08-21T13:57:31.000Z</time>
        <extensions>
          <ns3:TrackPointExtension>
            <ns3:hr>140</ns3:hr>
            <ns3:cad>0</ns3:cad>
          </ns3:TrackPointExtension>
        </extensions>
      </trkpt>
      <trkpt lat="45.29499932192265987396240234375" lon="-70.83307050168514251708984375">
        <ele>1084.5999755859375</ele>
        <time>2026-08-21T13:57:32.000Z</time>
        <extensions>
          <ns3:TrackPointExtension>
            <ns3:hr>140</ns3:hr>
            <ns3:cad>0</ns3:cad>
          </ns3:TrackPointExtension>
        </extensions>
      </trkpt>
      <trkpt lat="45.29499831609427928924560546875" lon="-70.8330703340470790863037109375">
        <ele>1084.800048828125</ele>
        <time>2026-08-21T13:57:33.000Z</time>
        <extensions>
          <ns3:TrackPointExtension>
            <ns3:hr>140</ns3:hr>
            <ns3:cad>0</ns3:cad>
          </ns3:TrackPointExtension>
        </extensions>
      </trkpt>
      <trkpt lat="45.2949932031333446502685546875" lon="-70.83308148197829723358154296875">
        <ele>1085</ele>
        <time>2026-08-21T13:57:34.000Z</time>
        <extensions>
          <ns3:TrackPointExtension>
            <ns3:hr>140</ns3:hr>
            <ns3:cad>0</ns3:cad>
          </ns3:TrackPointExtension>
        </extensions>
      </trkpt>
      <trkpt lat="45.2949932031333446502685546875" lon="-70.83308651112020015716552734375">
        <ele>1085.199951171875</ele>
        <time>2026-08-21T13:57:35.000Z</time>
        <extensions>
          <ns3:TrackPointExtension>
            <ns3:hr>140</ns3:hr>
            <ns3:cad>0</ns3:cad>
          </ns3:TrackPointExtension>
        </extensions>
      </trkpt>
      <trkpt lat="45.29498976655304431915283203125" lon="-70.833091624081134796142578125">
        <ele>1085.199951171875</ele>
        <time>2026-08-21T13:57:36.000Z</time>
        <extensions>
          <ns3:TrackPointExtension>
            <ns3:hr>140</ns3:hr>
            <ns3:cad>0</ns3:cad>
          </ns3:TrackPointExtension>
        </extensions>
      </trkpt>
      <trkpt lat="45.29498607851564884185791015625" lon="-70.83310059271752834320068359375">
        <ele>1085.4000244140625</ele>
        <time>2026-08-21T13:57:37.000Z</time>
        <extensions>
          <ns3:TrackPointExtension>
            <ns3:hr>140</ns3:hr>
            <ns3:cad>0</ns3:cad>
          </ns3:TrackPointExtension>
        </extensions>
      </trkpt>
      <trkpt lat="45.29498473741114139556884765625" lon="-70.83311500959098339080810546875">
        <ele>1085.5999755859375</ele>
        <time>2026-08-21T13:57:38.000Z</time>
        <extensions>
          <ns3:TrackPointExtension>
            <ns3:hr>140</ns3:hr>
            <ns3:cad>0</ns3:cad>
          </ns3:TrackPointExtension>
        </extensions>
      </trkpt>
      <trkpt lat="45.2949854917824268341064453125" lon="-70.83312758244574069976806640625">
        <ele>1085.800048828125</ele>
        <time>2026-08-21T13:57:39.000Z</time>
        <extensions>
          <ns3:TrackPointExtension>
            <ns3:hr>140</ns3:hr>
            <ns3:cad>0</ns3:cad>
          </ns3:TrackPointExtension>
        </extensions>
      </trkpt>
      <trkpt lat="45.29498943127691745758056640625" lon="-70.83313495852053165435791015625">
        <ele>1086.199951171875</ele>
        <time>2026-08-21T13:57:40.000Z</time>
        <extensions>
          <ns3:TrackPointExtension>
            <ns3:hr>140</ns3:hr>
            <ns3:cad>0</ns3:cad>
          </ns3:TrackPointExtension>
        </extensions>
      </trkpt>
      <trkpt lat="45.2949915267527103424072265625" lon="-70.83315088413655757904052734375">
        <ele>1086.4000244140625</ele>
        <time>2026-08-21T13:57:41.000Z</time>
        <extensions>
          <ns3:TrackPointExtension>
            <ns3:hr>141</ns3:hr>
            <ns3:cad>0</ns3:cad>
          </ns3:TrackPointExtension>
        </extensions>
      </trkpt>
      <trkpt lat="45.29498825781047344207763671875" lon="-70.83316546864807605743408203125">
        <ele>1086.5999755859375</ele>
        <time>2026-08-21T13:57:42.000Z</time>
        <extensions>
          <ns3:TrackPointExtension>
            <ns3:hr>142</ns3:hr>
            <ns3:cad>0</ns3:cad>
          </ns3:TrackPointExtension>
        </extensions>
      </trkpt>
      <trkpt lat="45.29498289339244365692138671875" lon="-70.83318206481635570526123046875">
        <ele>1086.5999755859375</ele>
        <time>2026-08-21T13:57:43.000Z</time>
        <extensions>
          <ns3:TrackPointExtension>
            <ns3:hr>142</ns3:hr>
            <ns3:cad>0</ns3:cad>
          </ns3:TrackPointExtension>
        </extensions>
      </trkpt>
      <trkpt lat="45.29497928917407989501953125" lon="-70.83319388329982757568359375">
        <ele>1086.5999755859375</ele>
        <time>2026-08-21T13:57:44.000Z</time>
        <extensions>
          <ns3:TrackPointExtension>
            <ns3:hr>142</ns3:hr>
            <ns3:cad>0</ns3:cad>
          </ns3:TrackPointExtension>
        </extensions>
      </trkpt>
      <trkpt lat="45.29497166164219379425048828125" lon="-70.83321307785809040069580078125">
        <ele>1086.5999755859375</ele>
        <time>2026-08-21T13:57:45.000Z</time>
        <extensions>
          <ns3:TrackPointExtension>
            <ns3:hr>142</ns3:hr>
            <ns3:cad>0</ns3:cad>
          </ns3:TrackPointExtension>
        </extensions>
      </trkpt>
      <trkpt lat="45.29496881179511547088623046875" lon="-70.83322732709348201751708984375">
        <ele>1086.4000244140625</ele>
        <time>2026-08-21T13:57:46.000Z</time>
        <extensions>
          <ns3:TrackPointExtension>
            <ns3:hr>143</ns3:hr>
            <ns3:cad>0</ns3:cad>
          </ns3:TrackPointExtension>
        </extensions>
      </trkpt>
      <trkpt lat="45.2949754334986209869384765625" lon="-70.83322514779865741729736328125">
        <ele>1086.199951171875</ele>
        <time>2026-08-21T13:57:47.000Z</time>
        <extensions>
          <ns3:TrackPointExtension>
            <ns3:hr>144</ns3:hr>
            <ns3:cad>0</ns3:cad>
          </ns3:TrackPointExtension>
        </extensions>
      </trkpt>
      <trkpt lat="45.29498121701180934906005859375" lon="-70.83322632126510143280029296875">
        <ele>1086</ele>
        <time>2026-08-21T13:57:48.000Z</time>
        <extensions>
          <ns3:TrackPointExtension>
            <ns3:hr>144</ns3:hr>
            <ns3:cad>0</ns3:cad>
          </ns3:TrackPointExtension>
        </extensions>
      </trkpt>
      <trkpt lat="45.29497887007892131805419921875" lon="-70.83323503844439983367919921875">
        <ele>1085.800048828125</ele>
        <time>2026-08-21T13:57:49.000Z</time>
        <extensions>
          <ns3:TrackPointExtension>
            <ns3:hr>145</ns3:hr>
            <ns3:cad>0</ns3:cad>
          </ns3:TrackPointExtension>
        </extensions>
      </trkpt>
      <trkpt lat="45.29497199691832065582275390625" lon="-70.83324241451919078826904296875">
        <ele>1085.800048828125</ele>
        <time>2026-08-21T13:57:50.000Z</time>
        <extensions>
          <ns3:TrackPointExtension>
            <ns3:hr>145</ns3:hr>
            <ns3:cad>0</ns3:cad>
          </ns3:TrackPointExtension>
        </extensions>
      </trkpt>
      <trkpt lat="45.2949633635580539703369140625" lon="-70.83325766958296298980712890625">
        <ele>1085.5999755859375</ele>
        <time>2026-08-21T13:57:51.000Z</time>
        <extensions>
          <ns3:TrackPointExtension>
            <ns3:hr>145</ns3:hr>
            <ns3:cad>0</ns3:cad>
          </ns3:TrackPointExtension>
        </extensions>
      </trkpt>
      <trkpt lat="45.29495825059711933135986328125" lon="-70.8332688175141811370849609375">
        <ele>1085.5999755859375</ele>
        <time>2026-08-21T13:57:52.000Z</time>
        <extensions>
          <ns3:TrackPointExtension>
            <ns3:hr>146</ns3:hr>
            <ns3:cad>0</ns3:cad>
          </ns3:TrackPointExtension>
        </extensions>
      </trkpt>
      <trkpt lat="45.29495104216039180755615234375" lon="-70.833278037607669830322265625">
        <ele>1085.5999755859375</ele>
        <time>2026-08-21T13:57:53.000Z</time>
        <extensions>
          <ns3:TrackPointExtension>
            <ns3:hr>146</ns3:hr>
            <ns3:cad>0</ns3:cad>
          </ns3:TrackPointExtension>
        </extensions>
      </trkpt>
      <trkpt lat="45.2949449233710765838623046875" lon="-70.8332839049398899078369140625">
        <ele>1085.800048828125</ele>
        <time>2026-08-21T13:57:54.000Z</time>
        <extensions>
          <ns3:TrackPointExtension>
            <ns3:hr>146</ns3:hr>
            <ns3:cad>0</ns3:cad>
          </ns3:TrackPointExtension>
        </extensions>
      </trkpt>
      <trkpt lat="45.294936709105968475341796875" lon="-70.83329714834690093994140625">
        <ele>1085.800048828125</ele>
        <time>2026-08-21T13:57:55.000Z</time>
        <extensions>
          <ns3:TrackPointExtension>
            <ns3:hr>146</ns3:hr>
            <ns3:cad>0</ns3:cad>
          </ns3:TrackPointExtension>
        </extensions>
      </trkpt>
      <trkpt lat="45.2949368767440319061279296875" lon="-70.83331047557294368743896484375">
        <ele>1085.5999755859375</ele>
        <time>2026-08-21T13:57:56.000Z</time>
        <extensions>
          <ns3:TrackPointExtension>
            <ns3:hr>145</ns3:hr>
            <ns3:cad>0</ns3:cad>
          </ns3:TrackPointExtension>
        </extensions>
      </trkpt>
      <trkpt lat="45.29493260197341442108154296875" lon="-70.8333231322467327117919921875">
        <ele>1085.5999755859375</ele>
        <time>2026-08-21T13:57:57.000Z</time>
        <extensions>
          <ns3:TrackPointExtension>
            <ns3:hr>145</ns3:hr>
            <ns3:cad>0</ns3:cad>
          </ns3:TrackPointExtension>
        </extensions>
      </trkpt>
      <trkpt lat="45.29491868801414966583251953125" lon="-70.83333109505474567413330078125">
        <ele>1085.4000244140625</ele>
        <time>2026-08-21T13:57:58.000Z</time>
        <extensions>
          <ns3:TrackPointExtension>
            <ns3:hr>146</ns3:hr>
            <ns3:cad>51</ns3:cad>
          </ns3:TrackPointExtension>
        </extensions>
      </trkpt>
      <trkpt lat="45.29491382651031017303466796875" lon="-70.83334668539464473724365234375">
        <ele>1085.4000244140625</ele>
        <time>2026-08-21T13:57:59.000Z</time>
        <extensions>
          <ns3:TrackPointExtension>
            <ns3:hr>146</ns3:hr>
            <ns3:cad>51</ns3:cad>
          </ns3:TrackPointExtension>
        </extensions>
      </trkpt>
      <trkpt lat="45.29490527696907520294189453125" lon="-70.83335657604038715362548828125">
        <ele>1085.4000244140625</ele>
        <time>2026-08-21T13:58:00.000Z</time>
        <extensions>
          <ns3:TrackPointExtension>
            <ns3:hr>146</ns3:hr>
            <ns3:cad>51</ns3:cad>
          </ns3:TrackPointExtension>
        </extensions>
      </trkpt>
      <trkpt lat="45.294900834560394287109375" lon="-70.83336898125708103179931640625">
        <ele>1085.4000244140625</ele>
        <time>2026-08-21T13:58:01.000Z</time>
        <extensions>
          <ns3:TrackPointExtension>
            <ns3:hr>146</ns3:hr>
            <ns3:cad>52</ns3:cad>
          </ns3:TrackPointExtension>
        </extensions>
      </trkpt>
      <trkpt lat="45.2948989905416965484619140625" lon="-70.83337702788412570953369140625">
        <ele>1085.4000244140625</ele>
        <time>2026-08-21T13:58:02.000Z</time>
        <extensions>
          <ns3:TrackPointExtension>
            <ns3:hr>146</ns3:hr>
            <ns3:cad>52</ns3:cad>
          </ns3:TrackPointExtension>
        </extensions>
      </trkpt>
      <trkpt lat="45.29489236883819103240966796875" lon="-70.83338968455791473388671875">
        <ele>1085.5999755859375</ele>
        <time>2026-08-21T13:58:03.000Z</time>
        <extensions>
          <ns3:TrackPointExtension>
            <ns3:hr>146</ns3:hr>
            <ns3:cad>52</ns3:cad>
          </ns3:TrackPointExtension>
        </extensions>
      </trkpt>
      <trkpt lat="45.294885076582431793212890625" lon="-70.83339781500399112701416015625">
        <ele>1085.800048828125</ele>
        <time>2026-08-21T13:58:04.000Z</time>
        <extensions>
          <ns3:TrackPointExtension>
            <ns3:hr>146</ns3:hr>
            <ns3:cad>49</ns3:cad>
          </ns3:TrackPointExtension>
        </extensions>
      </trkpt>
      <trkpt lat="45.29487560503184795379638671875" lon="-70.8334086276590824127197265625">
        <ele>1086</ele>
        <time>2026-08-21T13:58:05.000Z</time>
        <extensions>
          <ns3:TrackPointExtension>
            <ns3:hr>146</ns3:hr>
            <ns3:cad>49</ns3:cad>
          </ns3:TrackPointExtension>
        </extensions>
      </trkpt>
      <trkpt lat="45.2948708273470401763916015625" lon="-70.833414159715175628662109375">
        <ele>1086.199951171875</ele>
        <time>2026-08-21T13:58:06.000Z</time>
        <extensions>
          <ns3:TrackPointExtension>
            <ns3:hr>146</ns3:hr>
            <ns3:cad>49</ns3:cad>
          </ns3:TrackPointExtension>
        </extensions>
      </trkpt>
      <trkpt lat="45.2948641218245029449462890625" lon="-70.8334200270473957061767578125">
        <ele>1086.4000244140625</ele>
        <time>2026-08-21T13:58:07.000Z</time>
        <extensions>
          <ns3:TrackPointExtension>
            <ns3:hr>146</ns3:hr>
            <ns3:cad>49</ns3:cad>
          </ns3:TrackPointExtension>
        </extensions>
      </trkpt>
      <trkpt lat="45.29485599137842655181884765625" lon="-70.8334257267415523529052734375">
        <ele>1086.5999755859375</ele>
        <time>2026-08-21T13:58:08.000Z</time>
        <extensions>
          <ns3:TrackPointExtension>
            <ns3:hr>146</ns3:hr>
            <ns3:cad>49</ns3:cad>
          </ns3:TrackPointExtension>
        </extensions>
      </trkpt>
      <trkpt lat="45.294852890074253082275390625" lon="-70.833436287939548492431640625">
        <ele>1086.800048828125</ele>
        <time>2026-08-21T13:58:09.000Z</time>
        <extensions>
          <ns3:TrackPointExtension>
            <ns3:hr>146</ns3:hr>
            <ns3:cad>49</ns3:cad>
          </ns3:TrackPointExtension>
        </extensions>
      </trkpt>
      <trkpt lat="45.29484911821782588958740234375" lon="-70.8334505371749401092529296875">
        <ele>1087</ele>
        <time>2026-08-21T13:58:10.000Z</time>
        <extensions>
          <ns3:TrackPointExtension>
            <ns3:hr>146</ns3:hr>
            <ns3:cad>49</ns3:cad>
          </ns3:TrackPointExtension>
        </extensions>
      </trkpt>
      <trkpt lat="45.2948557399213314056396484375" lon="-70.8334560692310333251953125">
        <ele>1087.199951171875</ele>
        <time>2026-08-21T13:58:11.000Z</time>
        <extensions>
          <ns3:TrackPointExtension>
            <ns3:hr>147</ns3:hr>
            <ns3:cad>0</ns3:cad>
          </ns3:TrackPointExtension>
        </extensions>
      </trkpt>
      <trkpt lat="45.2948557399213314056396484375" lon="-70.83346872590482234954833984375">
        <ele>1087.4000244140625</ele>
        <time>2026-08-21T13:58:12.000Z</time>
        <extensions>
          <ns3:TrackPointExtension>
            <ns3:hr>148</ns3:hr>
            <ns3:cad>0</ns3:cad>
          </ns3:TrackPointExtension>
        </extensions>
      </trkpt>
      <trkpt lat="45.294852890074253082275390625" lon="-70.8334743417799472808837890625">
        <ele>1087.5999755859375</ele>
        <time>2026-08-21T13:58:13.000Z</time>
        <extensions>
          <ns3:TrackPointExtension>
            <ns3:hr>148</ns3:hr>
            <ns3:cad>0</ns3:cad>
          </ns3:TrackPointExtension>
        </extensions>
      </trkpt>
      <trkpt lat="45.29484911821782588958740234375" lon="-70.8334833942353725433349609375">
        <ele>1087.800048828125</ele>
        <time>2026-08-21T13:58:14.000Z</time>
        <extensions>
          <ns3:TrackPointExtension>
            <ns3:hr>148</ns3:hr>
            <ns3:cad>0</ns3:cad>
          </ns3:TrackPointExtension>
        </extensions>
      </trkpt>
      <trkpt lat="45.294844843447208404541015625" lon="-70.8334947936236858367919921875">
        <ele>1088</ele>
        <time>2026-08-21T13:58:15.000Z</time>
        <extensions>
          <ns3:TrackPointExtension>
            <ns3:hr>147</ns3:hr>
            <ns3:cad>0</ns3:cad>
          </ns3:TrackPointExtension>
        </extensions>
      </trkpt>
      <trkpt lat="45.294845513999462127685546875" lon="-70.83349990658462047576904296875">
        <ele>1088.199951171875</ele>
        <time>2026-08-21T13:58:16.000Z</time>
        <extensions>
          <ns3:TrackPointExtension>
            <ns3:hr>147</ns3:hr>
            <ns3:cad>0</ns3:cad>
          </ns3:TrackPointExtension>
        </extensions>
      </trkpt>
      <trkpt lat="45.29484341852366924285888671875" lon="-70.8335075341165065765380859375">
        <ele>1088.4000244140625</ele>
        <time>2026-08-21T13:58:17.000Z</time>
        <extensions>
          <ns3:TrackPointExtension>
            <ns3:hr>143</ns3:hr>
            <ns3:cad>0</ns3:cad>
          </ns3:TrackPointExtension>
        </extensions>
      </trkpt>
      <trkpt lat="45.29483654536306858062744140625" lon="-70.833518765866756439208984375">
        <ele>1088.800048828125</ele>
        <time>2026-08-21T13:58:18.000Z</time>
        <extensions>
          <ns3:TrackPointExtension>
            <ns3:hr>142</ns3:hr>
            <ns3:cad>0</ns3:cad>
          </ns3:TrackPointExtension>
        </extensions>
      </trkpt>
      <trkpt lat="45.29482908546924591064453125" lon="-70.83352756686508655548095703125">
        <ele>1089</ele>
        <time>2026-08-21T13:58:19.000Z</time>
        <extensions>
          <ns3:TrackPointExtension>
            <ns3:hr>141</ns3:hr>
            <ns3:cad>0</ns3:cad>
          </ns3:TrackPointExtension>
        </extensions>
      </trkpt>
      <trkpt lat="45.294824056327342987060546875" lon="-70.83353477530181407928466796875">
        <ele>1089.199951171875</ele>
        <time>2026-08-21T13:58:20.000Z</time>
        <extensions>
          <ns3:TrackPointExtension>
            <ns3:hr>140</ns3:hr>
            <ns3:cad>0</ns3:cad>
          </ns3:TrackPointExtension>
        </extensions>
      </trkpt>
      <trkpt lat="45.2948215417563915252685546875" lon="-70.83353988826274871826171875">
        <ele>1089.4000244140625</ele>
        <time>2026-08-21T13:58:21.000Z</time>
        <extensions>
          <ns3:TrackPointExtension>
            <ns3:hr>140</ns3:hr>
            <ns3:cad>0</ns3:cad>
          </ns3:TrackPointExtension>
        </extensions>
      </trkpt>
      <trkpt lat="45.2948121540248394012451171875" lon="-70.83354659378528594970703125">
        <ele>1089.5999755859375</ele>
        <time>2026-08-21T13:58:22.000Z</time>
        <extensions>
          <ns3:TrackPointExtension>
            <ns3:hr>140</ns3:hr>
            <ns3:cad>0</ns3:cad>
          </ns3:TrackPointExtension>
        </extensions>
      </trkpt>
      <trkpt lat="45.294807963073253631591796875" lon="-70.8335477672517299652099609375">
        <ele>1089.5999755859375</ele>
        <time>2026-08-21T13:58:23.000Z</time>
        <extensions>
          <ns3:TrackPointExtension>
            <ns3:hr>140</ns3:hr>
            <ns3:cad>0</ns3:cad>
          </ns3:TrackPointExtension>
        </extensions>
      </trkpt>
      <trkpt lat="45.29480771161615848541259765625" lon="-70.83353678695857524871826171875">
        <ele>1089.800048828125</ele>
        <time>2026-08-21T13:58:24.000Z</time>
        <extensions>
          <ns3:TrackPointExtension>
            <ns3:hr>141</ns3:hr>
            <ns3:cad>0</ns3:cad>
          </ns3:TrackPointExtension>
        </extensions>
      </trkpt>
      <trkpt lat="45.294804275035858154296875" lon="-70.83353075198829174041748046875">
        <ele>1090</ele>
        <time>2026-08-21T13:58:25.000Z</time>
        <extensions>
          <ns3:TrackPointExtension>
            <ns3:hr>141</ns3:hr>
            <ns3:cad>0</ns3:cad>
          </ns3:TrackPointExtension>
        </extensions>
      </trkpt>
      <trkpt lat="45.29479530639946460723876953125" lon="-70.83353728987276554107666015625">
        <ele>1090.199951171875</ele>
        <time>2026-08-21T13:58:26.000Z</time>
        <extensions>
          <ns3:TrackPointExtension>
            <ns3:hr>140</ns3:hr>
            <ns3:cad>0</ns3:cad>
          </ns3:TrackPointExtension>
        </extensions>
      </trkpt>
      <trkpt lat="45.2947846613824367523193359375" lon="-70.83353796042501926422119140625">
        <ele>1090.4000244140625</ele>
        <time>2026-08-21T13:58:27.000Z</time>
        <extensions>
          <ns3:TrackPointExtension>
            <ns3:hr>140</ns3:hr>
            <ns3:cad>0</ns3:cad>
          </ns3:TrackPointExtension>
        </extensions>
      </trkpt>
      <trkpt lat="45.2947846613824367523193359375" lon="-70.8335377089679241180419921875">
        <ele>1090.5999755859375</ele>
        <time>2026-08-21T13:58:28.000Z</time>
        <extensions>
          <ns3:TrackPointExtension>
            <ns3:hr>141</ns3:hr>
            <ns3:cad>0</ns3:cad>
          </ns3:TrackPointExtension>
        </extensions>
      </trkpt>
      <trkpt lat="45.2947739325463771820068359375" lon="-70.83353728987276554107666015625">
        <ele>1090.800048828125</ele>
        <time>2026-08-21T13:58:29.000Z</time>
        <extensions>
          <ns3:TrackPointExtension>
            <ns3:hr>140</ns3:hr>
            <ns3:cad>0</ns3:cad>
          </ns3:TrackPointExtension>
        </extensions>
      </trkpt>
      <trkpt lat="45.29476261697709560394287109375" lon="-70.83353854715824127197265625">
        <ele>1091</ele>
        <time>2026-08-21T13:58:30.000Z</time>
        <extensions>
          <ns3:TrackPointExtension>
            <ns3:hr>140</ns3:hr>
            <ns3:cad>0</ns3:cad>
          </ns3:TrackPointExtension>
        </extensions>
      </trkpt>
      <trkpt lat="45.2947578392922878265380859375" lon="-70.833542235195636749267578125">
        <ele>1091.199951171875</ele>
        <time>2026-08-21T13:58:31.000Z</time>
        <extensions>
          <ns3:TrackPointExtension>
            <ns3:hr>140</ns3:hr>
            <ns3:cad>0</ns3:cad>
          </ns3:TrackPointExtension>
        </extensions>
      </trkpt>
      <trkpt lat="45.29475398361682891845703125" lon="-70.833545587956905364990234375">
        <ele>1091.4000244140625</ele>
        <time>2026-08-21T13:58:32.000Z</time>
        <extensions>
          <ns3:TrackPointExtension>
            <ns3:hr>141</ns3:hr>
            <ns3:cad>0</ns3:cad>
          </ns3:TrackPointExtension>
        </extensions>
      </trkpt>
      <trkpt lat="45.29475557617843151092529296875" lon="-70.8335499465465545654296875">
        <ele>1091.800048828125</ele>
        <time>2026-08-21T13:58:33.000Z</time>
        <extensions>
          <ns3:TrackPointExtension>
            <ns3:hr>140</ns3:hr>
            <ns3:cad>0</ns3:cad>
          </ns3:TrackPointExtension>
        </extensions>
      </trkpt>
      <trkpt lat="45.29474853537976741790771484375" lon="-70.833563022315502166748046875">
        <ele>1092</ele>
        <time>2026-08-21T13:58:34.000Z</time>
        <extensions>
          <ns3:TrackPointExtension>
            <ns3:hr>140</ns3:hr>
            <ns3:cad>0</ns3:cad>
          </ns3:TrackPointExtension>
        </extensions>
      </trkpt>
      <trkpt lat="45.29473797418177127838134765625" lon="-70.83357802592217922210693359375">
        <ele>1092.199951171875</ele>
        <time>2026-08-21T13:58:35.000Z</time>
        <extensions>
          <ns3:TrackPointExtension>
            <ns3:hr>140</ns3:hr>
            <ns3:cad>0</ns3:cad>
          </ns3:TrackPointExtension>
        </extensions>
      </trkpt>
      <trkpt lat="45.29473948292434215545654296875" lon="-70.83359395153820514678955078125">
        <ele>1092.199951171875</ele>
        <time>2026-08-21T13:58:36.000Z</time>
        <extensions>
          <ns3:TrackPointExtension>
            <ns3:hr>141</ns3:hr>
            <ns3:cad>0</ns3:cad>
          </ns3:TrackPointExtension>
        </extensions>
      </trkpt>
      <trkpt lat="45.29473898001015186309814453125" lon="-70.8336064405739307403564453125">
        <ele>1092.4000244140625</ele>
        <time>2026-08-21T13:58:37.000Z</time>
        <extensions>
          <ns3:TrackPointExtension>
            <ns3:hr>140</ns3:hr>
            <ns3:cad>0</ns3:cad>
          </ns3:TrackPointExtension>
        </extensions>
      </trkpt>
      <trkpt lat="45.294736884534358978271484375" lon="-70.8336181752383708953857421875">
        <ele>1092.5999755859375</ele>
        <time>2026-08-21T13:58:38.000Z</time>
        <extensions>
          <ns3:TrackPointExtension>
            <ns3:hr>140</ns3:hr>
            <ns3:cad>0</ns3:cad>
          </ns3:TrackPointExtension>
        </extensions>
      </trkpt>
      <trkpt lat="45.29473059810698032379150390625" lon="-70.833630748093128204345703125">
        <ele>1092.800048828125</ele>
        <time>2026-08-21T13:58:39.000Z</time>
        <extensions>
          <ns3:TrackPointExtension>
            <ns3:hr>141</ns3:hr>
            <ns3:cad>0</ns3:cad>
          </ns3:TrackPointExtension>
        </extensions>
      </trkpt>
      <trkpt lat="45.29472623951733112335205078125" lon="-70.83363636396825313568115234375">
        <ele>1093</ele>
        <time>2026-08-21T13:58:40.000Z</time>
        <extensions>
          <ns3:TrackPointExtension>
            <ns3:hr>142</ns3:hr>
            <ns3:cad>0</ns3:cad>
          </ns3:TrackPointExtension>
        </extensions>
      </trkpt>
      <trkpt lat="45.29472322203218936920166015625" lon="-70.8336438238620758056640625">
        <ele>1093</ele>
        <time>2026-08-21T13:58:41.000Z</time>
        <extensions>
          <ns3:TrackPointExtension>
            <ns3:hr>142</ns3:hr>
            <ns3:cad>0</ns3:cad>
          </ns3:TrackPointExtension>
        </extensions>
      </trkpt>
      <trkpt lat="45.294720120728015899658203125" lon="-70.833644829690456390380859375">
        <ele>1093.199951171875</ele>
        <time>2026-08-21T13:58:42.000Z</time>
        <extensions>
          <ns3:TrackPointExtension>
            <ns3:hr>142</ns3:hr>
            <ns3:cad>0</ns3:cad>
          </ns3:TrackPointExtension>
        </extensions>
      </trkpt>
      <trkpt lat="45.2947182767093181610107421875" lon="-70.8336500264704227447509765625">
        <ele>1093.4000244140625</ele>
        <time>2026-08-21T13:58:43.000Z</time>
        <extensions>
          <ns3:TrackPointExtension>
            <ns3:hr>142</ns3:hr>
            <ns3:cad>0</ns3:cad>
          </ns3:TrackPointExtension>
        </extensions>
      </trkpt>
      <trkpt lat="45.29471500776708126068115234375" lon="-70.83364943973720073699951171875">
        <ele>1093.4000244140625</ele>
        <time>2026-08-21T13:58:44.000Z</time>
        <extensions>
          <ns3:TrackPointExtension>
            <ns3:hr>142</ns3:hr>
            <ns3:cad>0</ns3:cad>
          </ns3:TrackPointExtension>
        </extensions>
      </trkpt>
      <trkpt lat="45.294703356921672821044921875" lon="-70.833655893802642822265625">
        <ele>1093.800048828125</ele>
        <time>2026-08-21T13:58:45.000Z</time>
        <extensions>
          <ns3:TrackPointExtension>
            <ns3:hr>142</ns3:hr>
            <ns3:cad>0</ns3:cad>
          </ns3:TrackPointExtension>
        </extensions>
      </trkpt>
      <trkpt lat="45.29470193199813365936279296875" lon="-70.83366704173386096954345703125">
        <ele>1094</ele>
        <time>2026-08-21T13:58:46.000Z</time>
        <extensions>
          <ns3:TrackPointExtension>
            <ns3:hr>143</ns3:hr>
            <ns3:cad>0</ns3:cad>
          </ns3:TrackPointExtension>
        </extensions>
      </trkpt>
      <trkpt lat="45.29470327310264110565185546875" lon="-70.8336724899709224700927734375">
        <ele>1094.199951171875</ele>
        <time>2026-08-21T13:58:47.000Z</time>
        <extensions>
          <ns3:TrackPointExtension>
            <ns3:hr>142</ns3:hr>
            <ns3:cad>0</ns3:cad>
          </ns3:TrackPointExtension>
        </extensions>
      </trkpt>
      <trkpt lat="45.29470444656908512115478515625" lon="-70.83367911167442798614501953125">
        <ele>1094.5999755859375</ele>
        <time>2026-08-21T13:58:48.000Z</time>
        <extensions>
          <ns3:TrackPointExtension>
            <ns3:hr>143</ns3:hr>
            <ns3:cad>0</ns3:cad>
          </ns3:TrackPointExtension>
        </extensions>
      </trkpt>
      <trkpt lat="45.29470981098711490631103515625" lon="-70.8336828835308551788330078125">
        <ele>1094.800048828125</ele>
        <time>2026-08-21T13:58:49.000Z</time>
        <extensions>
          <ns3:TrackPointExtension>
            <ns3:hr>143</ns3:hr>
            <ns3:cad>0</ns3:cad>
          </ns3:TrackPointExtension>
        </extensions>
      </trkpt>
      <trkpt lat="45.29470947571098804473876953125" lon="-70.83369009196758270263671875">
        <ele>1095.199951171875</ele>
        <time>2026-08-21T13:58:50.000Z</time>
        <extensions>
          <ns3:TrackPointExtension>
            <ns3:hr>143</ns3:hr>
            <ns3:cad>0</ns3:cad>
          </ns3:TrackPointExtension>
        </extensions>
      </trkpt>
      <trkpt lat="45.29471098445355892181396484375" lon="-70.83369537256658077239990234375">
        <ele>1095.4000244140625</ele>
        <time>2026-08-21T13:58:51.000Z</time>
        <extensions>
          <ns3:TrackPointExtension>
            <ns3:hr>144</ns3:hr>
            <ns3:cad>0</ns3:cad>
          </ns3:TrackPointExtension>
        </extensions>
      </trkpt>
      <trkpt lat="45.2947145886719226837158203125" lon="-70.83370744250714778900146484375">
        <ele>1095.5999755859375</ele>
        <time>2026-08-21T13:58:52.000Z</time>
        <extensions>
          <ns3:TrackPointExtension>
            <ns3:hr>144</ns3:hr>
            <ns3:cad>0</ns3:cad>
          </ns3:TrackPointExtension>
        </extensions>
      </trkpt>
      <trkpt lat="45.29471668414771556854248046875" lon="-70.833710543811321258544921875">
        <ele>1095.800048828125</ele>
        <time>2026-08-21T13:58:53.000Z</time>
        <extensions>
          <ns3:TrackPointExtension>
            <ns3:hr>144</ns3:hr>
            <ns3:cad>0</ns3:cad>
          </ns3:TrackPointExtension>
        </extensions>
      </trkpt>
      <trkpt lat="45.29471316374838352203369140625" lon="-70.833709873259067535400390625">
        <ele>1096</ele>
        <time>2026-08-21T13:58:54.000Z</time>
        <extensions>
          <ns3:TrackPointExtension>
            <ns3:hr>144</ns3:hr>
            <ns3:cad>0</ns3:cad>
          </ns3:TrackPointExtension>
        </extensions>
      </trkpt>
      <trkpt lat="45.2947122417390346527099609375" lon="-70.833713226020336151123046875">
        <ele>1096.199951171875</ele>
        <time>2026-08-21T13:58:55.000Z</time>
        <extensions>
          <ns3:TrackPointExtension>
            <ns3:hr>144</ns3:hr>
            <ns3:cad>0</ns3:cad>
          </ns3:TrackPointExtension>
        </extensions>
      </trkpt>
      <trkpt lat="45.29471282847225666046142578125" lon="-70.833725631237030029296875">
        <ele>1096.4000244140625</ele>
        <time>2026-08-21T13:58:56.000Z</time>
        <extensions>
          <ns3:TrackPointExtension>
            <ns3:hr>144</ns3:hr>
            <ns3:cad>0</ns3:cad>
          </ns3:TrackPointExtension>
        </extensions>
      </trkpt>
      <trkpt lat="45.294710732996463775634765625" lon="-70.8337288163602352142333984375">
        <ele>1096.5999755859375</ele>
        <time>2026-08-21T13:58:57.000Z</time>
        <extensions>
          <ns3:TrackPointExtension>
            <ns3:hr>144</ns3:hr>
            <ns3:cad>0</ns3:cad>
          </ns3:TrackPointExtension>
        </extensions>
      </trkpt>
      <trkpt lat="45.29471098445355892181396484375" lon="-70.83373711444437503814697265625">
        <ele>1096.800048828125</ele>
        <time>2026-08-21T13:58:58.000Z</time>
        <extensions>
          <ns3:TrackPointExtension>
            <ns3:hr>144</ns3:hr>
            <ns3:cad>0</ns3:cad>
          </ns3:TrackPointExtension>
        </extensions>
      </trkpt>
      <trkpt lat="45.2947102300822734832763671875" lon="-70.83375823684036731719970703125">
        <ele>1097.199951171875</ele>
        <time>2026-08-21T13:58:59.000Z</time>
        <extensions>
          <ns3:TrackPointExtension>
            <ns3:hr>144</ns3:hr>
            <ns3:cad>0</ns3:cad>
          </ns3:TrackPointExtension>
        </extensions>
      </trkpt>
      <trkpt lat="45.2947119064629077911376953125" lon="-70.83377148024737834930419921875">
        <ele>1097.4000244140625</ele>
        <time>2026-08-21T13:59:00.000Z</time>
        <extensions>
          <ns3:TrackPointExtension>
            <ns3:hr>144</ns3:hr>
            <ns3:cad>0</ns3:cad>
          </ns3:TrackPointExtension>
        </extensions>
      </trkpt>
      <trkpt lat="45.29471333138644695281982421875" lon="-70.833776257932186126708984375">
        <ele>1097.5999755859375</ele>
        <time>2026-08-21T13:59:01.000Z</time>
        <extensions>
          <ns3:TrackPointExtension>
            <ns3:hr>144</ns3:hr>
            <ns3:cad>0</ns3:cad>
          </ns3:TrackPointExtension>
        </extensions>
      </trkpt>
      <trkpt lat="45.2947135828435420989990234375" lon="-70.83377785049378871917724609375">
        <ele>1097.800048828125</ele>
        <time>2026-08-21T13:59:02.000Z</time>
        <extensions>
          <ns3:TrackPointExtension>
            <ns3:hr>144</ns3:hr>
            <ns3:cad>0</ns3:cad>
          </ns3:TrackPointExtension>
        </extensions>
      </trkpt>
      <trkpt lat="45.29470746405422687530517578125" lon="-70.83378589712083339691162109375">
        <ele>1098</ele>
        <time>2026-08-21T13:59:03.000Z</time>
        <extensions>
          <ns3:TrackPointExtension>
            <ns3:hr>145</ns3:hr>
            <ns3:cad>0</ns3:cad>
          </ns3:TrackPointExtension>
        </extensions>
      </trkpt>
      <trkpt lat="45.2947045303881168365478515625" lon="-70.83379411138594150543212890625">
        <ele>1098</ele>
        <time>2026-08-21T13:59:04.000Z</time>
        <extensions>
          <ns3:TrackPointExtension>
            <ns3:hr>145</ns3:hr>
            <ns3:cad>0</ns3:cad>
          </ns3:TrackPointExtension>
        </extensions>
      </trkpt>
      <trkpt lat="45.29470411129295825958251953125" lon="-70.8338045887649059295654296875">
        <ele>1098.199951171875</ele>
        <time>2026-08-21T13:59:05.000Z</time>
        <extensions>
          <ns3:TrackPointExtension>
            <ns3:hr>145</ns3:hr>
            <ns3:cad>0</ns3:cad>
          </ns3:TrackPointExtension>
        </extensions>
      </trkpt>
      <trkpt lat="45.29470243491232395172119140625" lon="-70.83380601368844509124755859375">
        <ele>1098.4000244140625</ele>
        <time>2026-08-21T13:59:06.000Z</time>
        <extensions>
          <ns3:TrackPointExtension>
            <ns3:hr>144</ns3:hr>
            <ns3:cad>0</ns3:cad>
          </ns3:TrackPointExtension>
        </extensions>
      </trkpt>
      <trkpt lat="45.2946964837610721588134765625" lon="-70.83380819298326969146728515625">
        <ele>1098.5999755859375</ele>
        <time>2026-08-21T13:59:07.000Z</time>
        <extensions>
          <ns3:TrackPointExtension>
            <ns3:hr>144</ns3:hr>
            <ns3:cad>0</ns3:cad>
          </ns3:TrackPointExtension>
        </extensions>
      </trkpt>
      <trkpt lat="45.294693969190120697021484375" lon="-70.833813808858394622802734375">
        <ele>1098.5999755859375</ele>
        <time>2026-08-21T13:59:08.000Z</time>
        <extensions>
          <ns3:TrackPointExtension>
            <ns3:hr>144</ns3:hr>
            <ns3:cad>77</ns3:cad>
          </ns3:TrackPointExtension>
        </extensions>
      </trkpt>
      <trkpt lat="45.294689945876598358154296875" lon="-70.83381942473351955413818359375">
        <ele>1098.800048828125</ele>
        <time>2026-08-21T13:59:09.000Z</time>
        <extensions>
          <ns3:TrackPointExtension>
            <ns3:hr>143</ns3:hr>
            <ns3:cad>77</ns3:cad>
          </ns3:TrackPointExtension>
        </extensions>
      </trkpt>
      <trkpt lat="45.294686593115329742431640625" lon="-70.83382512442767620086669921875">
        <ele>1099</ele>
        <time>2026-08-21T13:59:10.000Z</time>
        <extensions>
          <ns3:TrackPointExtension>
            <ns3:hr>143</ns3:hr>
            <ns3:cad>77</ns3:cad>
          </ns3:TrackPointExtension>
        </extensions>
      </trkpt>
      <trkpt lat="45.2946783788502216339111328125" lon="-70.8338310755789279937744140625">
        <ele>1099</ele>
        <time>2026-08-21T13:59:11.000Z</time>
        <extensions>
          <ns3:TrackPointExtension>
            <ns3:hr>144</ns3:hr>
            <ns3:cad>77</ns3:cad>
          </ns3:TrackPointExtension>
        </extensions>
      </trkpt>
      <trkpt lat="45.29467309825122356414794921875" lon="-70.83383233286440372467041015625">
        <ele>1099.199951171875</ele>
        <time>2026-08-21T13:59:12.000Z</time>
        <extensions>
          <ns3:TrackPointExtension>
            <ns3:hr>144</ns3:hr>
            <ns3:cad>0</ns3:cad>
          </ns3:TrackPointExtension>
        </extensions>
      </trkpt>
      <trkpt lat="45.29467075131833553314208984375" lon="-70.83383551798760890960693359375">
        <ele>1099.4000244140625</ele>
        <time>2026-08-21T13:59:13.000Z</time>
        <extensions>
          <ns3:TrackPointExtension>
            <ns3:hr>144</ns3:hr>
            <ns3:cad>0</ns3:cad>
          </ns3:TrackPointExtension>
        </extensions>
      </trkpt>
      <trkpt lat="45.2946688234806060791015625" lon="-70.8338396251201629638671875">
        <ele>1099.5999755859375</ele>
        <time>2026-08-21T13:59:14.000Z</time>
        <extensions>
          <ns3:TrackPointExtension>
            <ns3:hr>144</ns3:hr>
            <ns3:cad>0</ns3:cad>
          </ns3:TrackPointExtension>
        </extensions>
      </trkpt>
      <trkpt lat="45.2946706674993038177490234375" lon="-70.83384172059595584869384765625">
        <ele>1100</ele>
        <time>2026-08-21T13:59:15.000Z</time>
        <extensions>
          <ns3:TrackPointExtension>
            <ns3:hr>144</ns3:hr>
            <ns3:cad>0</ns3:cad>
          </ns3:TrackPointExtension>
        </extensions>
      </trkpt>
      <trkpt lat="45.2946746908128261566162109375" lon="-70.8338384516537189483642578125">
        <ele>1100.199951171875</ele>
        <time>2026-08-21T13:59:16.000Z</time>
        <extensions>
          <ns3:TrackPointExtension>
            <ns3:hr>146</ns3:hr>
            <ns3:cad>0</ns3:cad>
          </ns3:TrackPointExtension>
        </extensions>
      </trkpt>
      <trkpt lat="45.29467041604220867156982421875" lon="-70.8338404633104801177978515625">
        <ele>1100.4000244140625</ele>
        <time>2026-08-21T13:59:17.000Z</time>
        <extensions>
          <ns3:TrackPointExtension>
            <ns3:hr>146</ns3:hr>
            <ns3:cad>0</ns3:cad>
          </ns3:TrackPointExtension>
        </extensions>
      </trkpt>
      <trkpt lat="45.29467142187058925628662109375" lon="-70.83384096622467041015625">
        <ele>1100.5999755859375</ele>
        <time>2026-08-21T13:59:18.000Z</time>
        <extensions>
          <ns3:TrackPointExtension>
            <ns3:hr>145</ns3:hr>
            <ns3:cad>0</ns3:cad>
          </ns3:TrackPointExtension>
        </extensions>
      </trkpt>
      <trkpt lat="45.29467226006090641021728515625" lon="-70.8338374458253383636474609375">
        <ele>1100.5999755859375</ele>
        <time>2026-08-21T13:59:19.000Z</time>
        <extensions>
          <ns3:TrackPointExtension>
            <ns3:hr>145</ns3:hr>
            <ns3:cad>0</ns3:cad>
          </ns3:TrackPointExtension>
        </extensions>
      </trkpt>
      <trkpt lat="45.29466857202351093292236328125" lon="-70.83383786492049694061279296875">
        <ele>1100.5999755859375</ele>
        <time>2026-08-21T13:59:20.000Z</time>
        <extensions>
          <ns3:TrackPointExtension>
            <ns3:hr>144</ns3:hr>
            <ns3:cad>0</ns3:cad>
          </ns3:TrackPointExtension>
        </extensions>
      </trkpt>
      <trkpt lat="45.29466790147125720977783203125" lon="-70.83383761346340179443359375">
        <ele>1100.800048828125</ele>
        <time>2026-08-21T13:59:21.000Z</time>
        <extensions>
          <ns3:TrackPointExtension>
            <ns3:hr>144</ns3:hr>
            <ns3:cad>0</ns3:cad>
          </ns3:TrackPointExtension>
        </extensions>
      </trkpt>
      <trkpt lat="45.29466387815773487091064453125" lon="-70.833837948739528656005859375">
        <ele>1101</ele>
        <time>2026-08-21T13:59:22.000Z</time>
        <extensions>
          <ns3:TrackPointExtension>
            <ns3:hr>144</ns3:hr>
            <ns3:cad>0</ns3:cad>
          </ns3:TrackPointExtension>
        </extensions>
      </trkpt>
      <trkpt lat="45.2946639619767665863037109375" lon="-70.83384138531982898712158203125">
        <ele>1101.199951171875</ele>
        <time>2026-08-21T13:59:23.000Z</time>
        <extensions>
          <ns3:TrackPointExtension>
            <ns3:hr>144</ns3:hr>
            <ns3:cad>0</ns3:cad>
          </ns3:TrackPointExtension>
        </extensions>
      </trkpt>
      <trkpt lat="45.294660441577434539794921875" lon="-70.8338476717472076416015625">
        <ele>1101.4000244140625</ele>
        <time>2026-08-21T13:59:24.000Z</time>
        <extensions>
          <ns3:TrackPointExtension>
            <ns3:hr>144</ns3:hr>
            <ns3:cad>0</ns3:cad>
          </ns3:TrackPointExtension>
        </extensions>
      </trkpt>
      <trkpt lat="45.29466169886291027069091796875" lon="-70.8338552154600620269775390625">
        <ele>1101.800048828125</ele>
        <time>2026-08-21T13:59:25.000Z</time>
        <extensions>
          <ns3:TrackPointExtension>
            <ns3:hr>144</ns3:hr>
            <ns3:cad>0</ns3:cad>
          </ns3:TrackPointExtension>
        </extensions>
      </trkpt>
      <trkpt lat="45.29466303996741771697998046875" lon="-70.83386384882032871246337890625">
        <ele>1102</ele>
        <time>2026-08-21T13:59:26.000Z</time>
        <extensions>
          <ns3:TrackPointExtension>
            <ns3:hr>143</ns3:hr>
            <ns3:cad>0</ns3:cad>
          </ns3:TrackPointExtension>
        </extensions>
      </trkpt>
      <trkpt lat="45.2946636267006397247314453125" lon="-70.83387516438961029052734375">
        <ele>1102.199951171875</ele>
        <time>2026-08-21T13:59:27.000Z</time>
        <extensions>
          <ns3:TrackPointExtension>
            <ns3:hr>143</ns3:hr>
            <ns3:cad>0</ns3:cad>
          </ns3:TrackPointExtension>
        </extensions>
      </trkpt>
      <trkpt lat="45.2946639619767665863037109375" lon="-70.83388161845505237579345703125">
        <ele>1102.4000244140625</ele>
        <time>2026-08-21T13:59:28.000Z</time>
        <extensions>
          <ns3:TrackPointExtension>
            <ns3:hr>143</ns3:hr>
            <ns3:cad>0</ns3:cad>
          </ns3:TrackPointExtension>
        </extensions>
      </trkpt>
      <trkpt lat="45.2946632914245128631591796875" lon="-70.8338944427669048309326171875">
        <ele>1102.5999755859375</ele>
        <time>2026-08-21T13:59:29.000Z</time>
        <extensions>
          <ns3:TrackPointExtension>
            <ns3:hr>143</ns3:hr>
            <ns3:cad>0</ns3:cad>
          </ns3:TrackPointExtension>
        </extensions>
      </trkpt>
      <trkpt lat="45.2946634590625762939453125" lon="-70.83390290848910808563232421875">
        <ele>1102.800048828125</ele>
        <time>2026-08-21T13:59:30.000Z</time>
        <extensions>
          <ns3:TrackPointExtension>
            <ns3:hr>142</ns3:hr>
            <ns3:cad>0</ns3:cad>
          </ns3:TrackPointExtension>
        </extensions>
      </trkpt>
      <trkpt lat="45.2946688234806060791015625" lon="-70.8339075185358524322509765625">
        <ele>1103</ele>
        <time>2026-08-21T13:59:31.000Z</time>
        <extensions>
          <ns3:TrackPointExtension>
            <ns3:hr>143</ns3:hr>
            <ns3:cad>0</ns3:cad>
          </ns3:TrackPointExtension>
        </extensions>
      </trkpt>
      <trkpt lat="45.29467108659446239471435546875" lon="-70.83391799591481685638427734375">
        <ele>1103.199951171875</ele>
        <time>2026-08-21T13:59:32.000Z</time>
        <extensions>
          <ns3:TrackPointExtension>
            <ns3:hr>143</ns3:hr>
            <ns3:cad>0</ns3:cad>
          </ns3:TrackPointExtension>
        </extensions>
      </trkpt>
      <trkpt lat="45.2946730144321918487548828125" lon="-70.8339239470660686492919921875">
        <ele>1103.199951171875</ele>
        <time>2026-08-21T13:59:33.000Z</time>
        <extensions>
          <ns3:TrackPointExtension>
            <ns3:hr>144</ns3:hr>
            <ns3:cad>0</ns3:cad>
          </ns3:TrackPointExtension>
        </extensions>
      </trkpt>
      <trkpt lat="45.29467276297509670257568359375" lon="-70.83393073640763759613037109375">
        <ele>1103.4000244140625</ele>
        <time>2026-08-21T13:59:34.000Z</time>
        <extensions>
          <ns3:TrackPointExtension>
            <ns3:hr>144</ns3:hr>
            <ns3:cad>0</ns3:cad>
          </ns3:TrackPointExtension>
        </extensions>
      </trkpt>
      <trkpt lat="45.29467276297509670257568359375" lon="-70.83393693901598453521728515625">
        <ele>1103.5999755859375</ele>
        <time>2026-08-21T13:59:35.000Z</time>
        <extensions>
          <ns3:TrackPointExtension>
            <ns3:hr>144</ns3:hr>
            <ns3:cad>0</ns3:cad>
          </ns3:TrackPointExtension>
        </extensions>
      </trkpt>
      <trkpt lat="45.29467226006090641021728515625" lon="-70.8339386992156505584716796875">
        <ele>1103.800048828125</ele>
        <time>2026-08-21T13:59:36.000Z</time>
        <extensions>
          <ns3:TrackPointExtension>
            <ns3:hr>144</ns3:hr>
            <ns3:cad>0</ns3:cad>
          </ns3:TrackPointExtension>
        </extensions>
      </trkpt>
      <trkpt lat="45.29466873966157436370849609375" lon="-70.83393978886306285858154296875">
        <ele>1104</ele>
        <time>2026-08-21T13:59:37.000Z</time>
        <extensions>
          <ns3:TrackPointExtension>
            <ns3:hr>143</ns3:hr>
            <ns3:cad>0</ns3:cad>
          </ns3:TrackPointExtension>
        </extensions>
      </trkpt>
      <trkpt lat="45.29466840438544750213623046875" lon="-70.83393953740596771240234375">
        <ele>1104.199951171875</ele>
        <time>2026-08-21T13:59:38.000Z</time>
        <extensions>
          <ns3:TrackPointExtension>
            <ns3:hr>144</ns3:hr>
            <ns3:cad>0</ns3:cad>
          </ns3:TrackPointExtension>
        </extensions>
      </trkpt>
      <trkpt lat="45.29466521926224231719970703125" lon="-70.833936519920825958251953125">
        <ele>1104.5999755859375</ele>
        <time>2026-08-21T13:59:39.000Z</time>
        <extensions>
          <ns3:TrackPointExtension>
            <ns3:hr>144</ns3:hr>
            <ns3:cad>0</ns3:cad>
          </ns3:TrackPointExtension>
        </extensions>
      </trkpt>
      <trkpt lat="45.2946622855961322784423828125" lon="-70.83393844775855541229248046875">
        <ele>1104.800048828125</ele>
        <time>2026-08-21T13:59:40.000Z</time>
        <extensions>
          <ns3:TrackPointExtension>
            <ns3:hr>143</ns3:hr>
            <ns3:cad>0</ns3:cad>
          </ns3:TrackPointExtension>
        </extensions>
      </trkpt>
      <trkpt lat="45.29465734027326107025146484375" lon="-70.8339454047381877899169921875">
        <ele>1105</ele>
        <time>2026-08-21T13:59:41.000Z</time>
        <extensions>
          <ns3:TrackPointExtension>
            <ns3:hr>144</ns3:hr>
            <ns3:cad>0</ns3:cad>
          </ns3:TrackPointExtension>
        </extensions>
      </trkpt>
      <trkpt lat="45.294657759368419647216796875" lon="-70.833954624831676483154296875">
        <ele>1105.199951171875</ele>
        <time>2026-08-21T13:59:42.000Z</time>
        <extensions>
          <ns3:TrackPointExtension>
            <ns3:hr>144</ns3:hr>
            <ns3:cad>0</ns3:cad>
          </ns3:TrackPointExtension>
        </extensions>
      </trkpt>
      <trkpt lat="45.29465415515005588531494140625" lon="-70.83395940251648426055908203125">
        <ele>1105.4000244140625</ele>
        <time>2026-08-21T13:59:43.000Z</time>
        <extensions>
          <ns3:TrackPointExtension>
            <ns3:hr>143</ns3:hr>
            <ns3:cad>0</ns3:cad>
          </ns3:TrackPointExtension>
        </extensions>
      </trkpt>
      <trkpt lat="45.29465499334037303924560546875" lon="-70.83396610803902149200439453125">
        <ele>1105.4000244140625</ele>
        <time>2026-08-21T13:59:44.000Z</time>
        <extensions>
          <ns3:TrackPointExtension>
            <ns3:hr>144</ns3:hr>
            <ns3:cad>0</ns3:cad>
          </ns3:TrackPointExtension>
        </extensions>
      </trkpt>
      <trkpt lat="45.29465700499713420867919921875" lon="-70.833968035876750946044921875">
        <ele>1105.5999755859375</ele>
        <time>2026-08-21T13:59:45.000Z</time>
        <extensions>
          <ns3:TrackPointExtension>
            <ns3:hr>143</ns3:hr>
            <ns3:cad>0</ns3:cad>
          </ns3:TrackPointExtension>
        </extensions>
      </trkpt>
      <trkpt lat="45.29465784318745136260986328125" lon="-70.83397013135254383087158203125">
        <ele>1105.800048828125</ele>
        <time>2026-08-21T13:59:46.000Z</time>
        <extensions>
          <ns3:TrackPointExtension>
            <ns3:hr>143</ns3:hr>
            <ns3:cad>0</ns3:cad>
          </ns3:TrackPointExtension>
        </extensions>
      </trkpt>
      <trkpt lat="45.2946565859019756317138671875" lon="-70.83397164009511470794677734375">
        <ele>1106</ele>
        <time>2026-08-21T13:59:47.000Z</time>
        <extensions>
          <ns3:TrackPointExtension>
            <ns3:hr>144</ns3:hr>
            <ns3:cad>0</ns3:cad>
          </ns3:TrackPointExtension>
        </extensions>
      </trkpt>
      <trkpt lat="45.294652394950389862060546875" lon="-70.83397801034152507781982421875">
        <ele>1106</ele>
        <time>2026-08-21T13:59:48.000Z</time>
        <extensions>
          <ns3:TrackPointExtension>
            <ns3:hr>144</ns3:hr>
            <ns3:cad>0</ns3:cad>
          </ns3:TrackPointExtension>
        </extensions>
      </trkpt>
      <trkpt lat="45.2946508862078189849853515625" lon="-70.833980776369571685791015625">
        <ele>1106.199951171875</ele>
        <time>2026-08-21T13:59:49.000Z</time>
        <extensions>
          <ns3:TrackPointExtension>
            <ns3:hr>143</ns3:hr>
            <ns3:cad>0</ns3:cad>
          </ns3:TrackPointExtension>
        </extensions>
      </trkpt>
      <trkpt lat="45.2946468628942966461181640625" lon="-70.8339893259108066558837890625">
        <ele>1106.4000244140625</ele>
        <time>2026-08-21T13:59:50.000Z</time>
        <extensions>
          <ns3:TrackPointExtension>
            <ns3:hr>143</ns3:hr>
            <ns3:cad>0</ns3:cad>
          </ns3:TrackPointExtension>
        </extensions>
      </trkpt>
      <trkpt lat="45.2946471981704235076904296875" lon="-70.83399443887174129486083984375">
        <ele>1106.5999755859375</ele>
        <time>2026-08-21T13:59:51.000Z</time>
        <extensions>
          <ns3:TrackPointExtension>
            <ns3:hr>143</ns3:hr>
            <ns3:cad>0</ns3:cad>
          </ns3:TrackPointExtension>
        </extensions>
      </trkpt>
      <trkpt lat="45.2946460247039794921875" lon="-70.83400114439427852630615234375">
        <ele>1106.800048828125</ele>
        <time>2026-08-21T13:59:52.000Z</time>
        <extensions>
          <ns3:TrackPointExtension>
            <ns3:hr>143</ns3:hr>
            <ns3:cad>0</ns3:cad>
          </ns3:TrackPointExtension>
        </extensions>
      </trkpt>
      <trkpt lat="45.29464392922818660736083984375" lon="-70.8340081013739109039306640625">
        <ele>1107.199951171875</ele>
        <time>2026-08-21T13:59:53.000Z</time>
        <extensions>
          <ns3:TrackPointExtension>
            <ns3:hr>144</ns3:hr>
            <ns3:cad>0</ns3:cad>
          </ns3:TrackPointExtension>
        </extensions>
      </trkpt>
      <trkpt lat="45.29464267194271087646484375" lon="-70.8340174891054630279541015625">
        <ele>1107.4000244140625</ele>
        <time>2026-08-21T13:59:54.000Z</time>
        <extensions>
          <ns3:TrackPointExtension>
            <ns3:hr>144</ns3:hr>
            <ns3:cad>0</ns3:cad>
          </ns3:TrackPointExtension>
        </extensions>
      </trkpt>
      <trkpt lat="45.29463906772434711456298828125" lon="-70.8340235240757465362548828125">
        <ele>1107.800048828125</ele>
        <time>2026-08-21T13:59:55.000Z</time>
        <extensions>
          <ns3:TrackPointExtension>
            <ns3:hr>144</ns3:hr>
            <ns3:cad>0</ns3:cad>
          </ns3:TrackPointExtension>
        </extensions>
      </trkpt>
      <trkpt lat="45.29463705606758594512939453125" lon="-70.834021009504795074462890625">
        <ele>1108</ele>
        <time>2026-08-21T13:59:56.000Z</time>
        <extensions>
          <ns3:TrackPointExtension>
            <ns3:hr>144</ns3:hr>
            <ns3:cad>0</ns3:cad>
          </ns3:TrackPointExtension>
        </extensions>
      </trkpt>
      <trkpt lat="45.29463998973369598388671875" lon="-70.83401472307741641998291015625">
        <ele>1108.199951171875</ele>
        <time>2026-08-21T13:59:57.000Z</time>
        <extensions>
          <ns3:TrackPointExtension>
            <ns3:hr>144</ns3:hr>
            <ns3:cad>0</ns3:cad>
          </ns3:TrackPointExtension>
        </extensions>
      </trkpt>
      <trkpt lat="45.2946366369724273681640625" lon="-70.83402126096189022064208984375">
        <ele>1108.4000244140625</ele>
        <time>2026-08-21T13:59:58.000Z</time>
        <extensions>
          <ns3:TrackPointExtension>
            <ns3:hr>144</ns3:hr>
            <ns3:cad>0</ns3:cad>
          </ns3:TrackPointExtension>
        </extensions>
      </trkpt>
      <trkpt lat="45.29463554732501506805419921875" lon="-70.83401941694319248199462890625">
        <ele>1108.5999755859375</ele>
        <time>2026-08-21T13:59:59.000Z</time>
        <extensions>
          <ns3:TrackPointExtension>
            <ns3:hr>145</ns3:hr>
            <ns3:cad>0</ns3:cad>
          </ns3:TrackPointExtension>
        </extensions>
      </trkpt>
      <trkpt lat="45.294631607830524444580078125" lon="-70.8340178243815898895263671875">
        <ele>1108.800048828125</ele>
        <time>2026-08-21T14:00:00.000Z</time>
        <extensions>
          <ns3:TrackPointExtension>
            <ns3:hr>144</ns3:hr>
            <ns3:cad>0</ns3:cad>
          </ns3:TrackPointExtension>
        </extensions>
      </trkpt>
      <trkpt lat="45.29462657868862152099609375" lon="-70.83401187323033809661865234375">
        <ele>1109.199951171875</ele>
        <time>2026-08-21T14:00:01.000Z</time>
        <extensions>
          <ns3:TrackPointExtension>
            <ns3:hr>144</ns3:hr>
            <ns3:cad>0</ns3:cad>
          </ns3:TrackPointExtension>
        </extensions>
      </trkpt>
      <trkpt lat="45.29462582431733608245849609375" lon="-70.83400751464068889617919921875">
        <ele>1109.4000244140625</ele>
        <time>2026-08-21T14:00:02.000Z</time>
        <extensions>
          <ns3:TrackPointExtension>
            <ns3:hr>144</ns3:hr>
            <ns3:cad>0</ns3:cad>
          </ns3:TrackPointExtension>
        </extensions>
      </trkpt>
      <trkpt lat="45.29462515376508235931396484375" lon="-70.83400583826005458831787109375">
        <ele>1109.4000244140625</ele>
        <time>2026-08-21T14:00:03.000Z</time>
        <extensions>
          <ns3:TrackPointExtension>
            <ns3:hr>144</ns3:hr>
            <ns3:cad>0</ns3:cad>
          </ns3:TrackPointExtension>
        </extensions>
      </trkpt>
      <trkpt lat="45.29462129808962345123291015625" lon="-70.83400114439427852630615234375">
        <ele>1109.5999755859375</ele>
        <time>2026-08-21T14:00:04.000Z</time>
        <extensions>
          <ns3:TrackPointExtension>
            <ns3:hr>144</ns3:hr>
            <ns3:cad>0</ns3:cad>
          </ns3:TrackPointExtension>
        </extensions>
      </trkpt>
      <trkpt lat="45.29461911879479885101318359375" lon="-70.83399854600429534912109375">
        <ele>1109.800048828125</ele>
        <time>2026-08-21T14:00:05.000Z</time>
        <extensions>
          <ns3:TrackPointExtension>
            <ns3:hr>145</ns3:hr>
            <ns3:cad>0</ns3:cad>
          </ns3:TrackPointExtension>
        </extensions>
      </trkpt>
      <trkpt lat="45.29461316764354705810546875" lon="-70.833992175757884979248046875">
        <ele>1110</ele>
        <time>2026-08-21T14:00:06.000Z</time>
        <extensions>
          <ns3:TrackPointExtension>
            <ns3:hr>145</ns3:hr>
            <ns3:cad>0</ns3:cad>
          </ns3:TrackPointExtension>
        </extensions>
      </trkpt>
      <trkpt lat="45.2946109883487224578857421875" lon="-70.83399259485304355621337890625">
        <ele>1110.199951171875</ele>
        <time>2026-08-21T14:00:07.000Z</time>
        <extensions>
          <ns3:TrackPointExtension>
            <ns3:hr>146</ns3:hr>
            <ns3:cad>0</ns3:cad>
          </ns3:TrackPointExtension>
        </extensions>
      </trkpt>
      <trkpt lat="45.29460822232067584991455078125" lon="-70.83398840390145778656005859375">
        <ele>1110.4000244140625</ele>
        <time>2026-08-21T14:00:08.000Z</time>
        <extensions>
          <ns3:TrackPointExtension>
            <ns3:hr>146</ns3:hr>
            <ns3:cad>0</ns3:cad>
          </ns3:TrackPointExtension>
        </extensions>
      </trkpt>
      <trkpt lat="45.294603444635868072509765625" lon="-70.8339829556643962860107421875">
        <ele>1110.5999755859375</ele>
        <time>2026-08-21T14:00:09.000Z</time>
        <extensions>
          <ns3:TrackPointExtension>
            <ns3:hr>146</ns3:hr>
            <ns3:cad>0</ns3:cad>
          </ns3:TrackPointExtension>
        </extensions>
      </trkpt>
      <trkpt lat="45.29459682293236255645751953125" lon="-70.83398186601698398590087890625">
        <ele>1110.5999755859375</ele>
        <time>2026-08-21T14:00:10.000Z</time>
        <extensions>
          <ns3:TrackPointExtension>
            <ns3:hr>146</ns3:hr>
            <ns3:cad>0</ns3:cad>
          </ns3:TrackPointExtension>
        </extensions>
      </trkpt>
      <trkpt lat="45.29459028504788875579833984375" lon="-70.83397868089377880096435546875">
        <ele>1110.800048828125</ele>
        <time>2026-08-21T14:00:11.000Z</time>
        <extensions>
          <ns3:TrackPointExtension>
            <ns3:hr>146</ns3:hr>
            <ns3:cad>74</ns3:cad>
          </ns3:TrackPointExtension>
        </extensions>
      </trkpt>
      <trkpt lat="45.294586680829524993896484375" lon="-70.83397851325571537017822265625">
        <ele>1111</ele>
        <time>2026-08-21T14:00:12.000Z</time>
        <extensions>
          <ns3:TrackPointExtension>
            <ns3:hr>145</ns3:hr>
            <ns3:cad>74</ns3:cad>
          </ns3:TrackPointExtension>
        </extensions>
      </trkpt>
      <trkpt lat="45.29458173550665378570556640625" lon="-70.833984799683094024658203125">
        <ele>1111.199951171875</ele>
        <time>2026-08-21T14:00:13.000Z</time>
        <extensions>
          <ns3:TrackPointExtension>
            <ns3:hr>145</ns3:hr>
            <ns3:cad>0</ns3:cad>
          </ns3:TrackPointExtension>
        </extensions>
      </trkpt>
      <trkpt lat="45.29458039440214633941650390625" lon="-70.8339859731495380401611328125">
        <ele>1111.4000244140625</ele>
        <time>2026-08-21T14:00:14.000Z</time>
        <extensions>
          <ns3:TrackPointExtension>
            <ns3:hr>145</ns3:hr>
            <ns3:cad>0</ns3:cad>
          </ns3:TrackPointExtension>
        </extensions>
      </trkpt>
      <trkpt lat="45.29457637108862400054931640625" lon="-70.83399041555821895599365234375">
        <ele>1111.5999755859375</ele>
        <time>2026-08-21T14:00:15.000Z</time>
        <extensions>
          <ns3:TrackPointExtension>
            <ns3:hr>144</ns3:hr>
            <ns3:cad>0</ns3:cad>
          </ns3:TrackPointExtension>
        </extensions>
      </trkpt>
      <trkpt lat="45.29457318596541881561279296875" lon="-70.83398974500596523284912109375">
        <ele>1111.800048828125</ele>
        <time>2026-08-21T14:00:16.000Z</time>
        <extensions>
          <ns3:TrackPointExtension>
            <ns3:hr>144</ns3:hr>
            <ns3:cad>0</ns3:cad>
          </ns3:TrackPointExtension>
        </extensions>
      </trkpt>
      <trkpt lat="45.294568575918674468994140625" lon="-70.83399091847240924835205078125">
        <ele>1112</ele>
        <time>2026-08-21T14:00:17.000Z</time>
        <extensions>
          <ns3:TrackPointExtension>
            <ns3:hr>144</ns3:hr>
            <ns3:cad>0</ns3:cad>
          </ns3:TrackPointExtension>
        </extensions>
      </trkpt>
      <trkpt lat="45.29456061311066150665283203125" lon="-70.8339879848062992095947265625">
        <ele>1112.199951171875</ele>
        <time>2026-08-21T14:00:18.000Z</time>
        <extensions>
          <ns3:TrackPointExtension>
            <ns3:hr>144</ns3:hr>
            <ns3:cad>0</ns3:cad>
          </ns3:TrackPointExtension>
        </extensions>
      </trkpt>
      <trkpt lat="45.2945623733103275299072265625" lon="-70.8339886553585529327392578125">
        <ele>1112.4000244140625</ele>
        <time>2026-08-21T14:00:19.000Z</time>
        <extensions>
          <ns3:TrackPointExtension>
            <ns3:hr>145</ns3:hr>
            <ns3:cad>0</ns3:cad>
          </ns3:TrackPointExtension>
        </extensions>
      </trkpt>
      <trkpt lat="45.2945576794445514678955078125" lon="-70.8339899964630603790283203125">
        <ele>1112.5999755859375</ele>
        <time>2026-08-21T14:00:20.000Z</time>
        <extensions>
          <ns3:TrackPointExtension>
            <ns3:hr>144</ns3:hr>
            <ns3:cad>0</ns3:cad>
          </ns3:TrackPointExtension>
        </extensions>
      </trkpt>
      <trkpt lat="45.2945523150265216827392578125" lon="-70.83399142138659954071044921875">
        <ele>1112.800048828125</ele>
        <time>2026-08-21T14:00:21.000Z</time>
        <extensions>
          <ns3:TrackPointExtension>
            <ns3:hr>144</ns3:hr>
            <ns3:cad>0</ns3:cad>
          </ns3:TrackPointExtension>
        </extensions>
      </trkpt>
      <trkpt lat="45.29454418458044528961181640625" lon="-70.8339951932430267333984375">
        <ele>1113</ele>
        <time>2026-08-21T14:00:22.000Z</time>
        <extensions>
          <ns3:TrackPointExtension>
            <ns3:hr>144</ns3:hr>
            <ns3:cad>0</ns3:cad>
          </ns3:TrackPointExtension>
        </extensions>
      </trkpt>
      <trkpt lat="45.2945435978472232818603515625" lon="-70.83399527706205844879150390625">
        <ele>1113.4000244140625</ele>
        <time>2026-08-21T14:00:23.000Z</time>
        <extensions>
          <ns3:TrackPointExtension>
            <ns3:hr>144</ns3:hr>
            <ns3:cad>0</ns3:cad>
          </ns3:TrackPointExtension>
        </extensions>
      </trkpt>
      <trkpt lat="45.29453747905790805816650390625" lon="-70.833994187414646148681640625">
        <ele>1113.5999755859375</ele>
        <time>2026-08-21T14:00:24.000Z</time>
        <extensions>
          <ns3:TrackPointExtension>
            <ns3:hr>144</ns3:hr>
            <ns3:cad>0</ns3:cad>
          </ns3:TrackPointExtension>
        </extensions>
      </trkpt>
      <trkpt lat="45.29453144408762454986572265625" lon="-70.83399494178593158721923828125">
        <ele>1113.800048828125</ele>
        <time>2026-08-21T14:00:25.000Z</time>
        <extensions>
          <ns3:TrackPointExtension>
            <ns3:hr>143</ns3:hr>
            <ns3:cad>0</ns3:cad>
          </ns3:TrackPointExtension>
        </extensions>
      </trkpt>
      <trkpt lat="45.29452373273670673370361328125" lon="-70.83399326540529727935791015625">
        <ele>1114</ele>
        <time>2026-08-21T14:00:26.000Z</time>
        <extensions>
          <ns3:TrackPointExtension>
            <ns3:hr>144</ns3:hr>
            <ns3:cad>0</ns3:cad>
          </ns3:TrackPointExtension>
        </extensions>
      </trkpt>
      <trkpt lat="45.29452054761350154876708984375" lon="-70.8340010605752468109130859375">
        <ele>1114.199951171875</ele>
        <time>2026-08-21T14:00:27.000Z</time>
        <extensions>
          <ns3:TrackPointExtension>
            <ns3:hr>144</ns3:hr>
            <ns3:cad>0</ns3:cad>
          </ns3:TrackPointExtension>
        </extensions>
      </trkpt>
      <trkpt lat="45.29451602138578891754150390625" lon="-70.834007598459720611572265625">
        <ele>1114.4000244140625</ele>
        <time>2026-08-21T14:00:28.000Z</time>
        <extensions>
          <ns3:TrackPointExtension>
            <ns3:hr>144</ns3:hr>
            <ns3:cad>0</ns3:cad>
          </ns3:TrackPointExtension>
        </extensions>
      </trkpt>
      <trkpt lat="45.29450814239680767059326171875" lon="-70.83401958458125591278076171875">
        <ele>1114.5999755859375</ele>
        <time>2026-08-21T14:00:29.000Z</time>
        <extensions>
          <ns3:TrackPointExtension>
            <ns3:hr>144</ns3:hr>
            <ns3:cad>0</ns3:cad>
          </ns3:TrackPointExtension>
        </extensions>
      </trkpt>
      <trkpt lat="45.2945090644061565399169921875" lon="-70.834028720855712890625">
        <ele>1114.800048828125</ele>
        <time>2026-08-21T14:00:30.000Z</time>
        <extensions>
          <ns3:TrackPointExtension>
            <ns3:hr>144</ns3:hr>
            <ns3:cad>0</ns3:cad>
          </ns3:TrackPointExtension>
        </extensions>
      </trkpt>
      <trkpt lat="45.294508226215839385986328125" lon="-70.83403601311147212982177734375">
        <ele>1115</ele>
        <time>2026-08-21T14:00:31.000Z</time>
        <extensions>
          <ns3:TrackPointExtension>
            <ns3:hr>144</ns3:hr>
            <ns3:cad>0</ns3:cad>
          </ns3:TrackPointExtension>
        </extensions>
      </trkpt>
      <trkpt lat="45.29450587928295135498046875" lon="-70.834045149385929107666015625">
        <ele>1115.199951171875</ele>
        <time>2026-08-21T14:00:32.000Z</time>
        <extensions>
          <ns3:TrackPointExtension>
            <ns3:hr>144</ns3:hr>
            <ns3:cad>0</ns3:cad>
          </ns3:TrackPointExtension>
        </extensions>
      </trkpt>
      <trkpt lat="45.29450512491166591644287109375" lon="-70.83405294455587863922119140625">
        <ele>1115.4000244140625</ele>
        <time>2026-08-21T14:00:33.000Z</time>
        <extensions>
          <ns3:TrackPointExtension>
            <ns3:hr>144</ns3:hr>
            <ns3:cad>0</ns3:cad>
          </ns3:TrackPointExtension>
        </extensions>
      </trkpt>
      <trkpt lat="45.2945026941597461700439453125" lon="-70.83405713550746440887451171875">
        <ele>1115.5999755859375</ele>
        <time>2026-08-21T14:00:34.000Z</time>
        <extensions>
          <ns3:TrackPointExtension>
            <ns3:hr>144</ns3:hr>
            <ns3:cad>0</ns3:cad>
          </ns3:TrackPointExtension>
        </extensions>
      </trkpt>
      <trkpt lat="45.294500850141048431396484375" lon="-70.8340609073638916015625">
        <ele>1115.800048828125</ele>
        <time>2026-08-21T14:00:35.000Z</time>
        <extensions>
          <ns3:TrackPointExtension>
            <ns3:hr>144</ns3:hr>
            <ns3:cad>0</ns3:cad>
          </ns3:TrackPointExtension>
        </extensions>
      </trkpt>
      <trkpt lat="45.29449841938912868499755859375" lon="-70.834069959819316864013671875">
        <ele>1116</ele>
        <time>2026-08-21T14:00:36.000Z</time>
        <extensions>
          <ns3:TrackPointExtension>
            <ns3:hr>144</ns3:hr>
            <ns3:cad>0</ns3:cad>
          </ns3:TrackPointExtension>
        </extensions>
      </trkpt>
      <trkpt lat="45.2944956533610820770263671875" lon="-70.83408529870212078094482421875">
        <ele>1116</ele>
        <time>2026-08-21T14:00:37.000Z</time>
        <extensions>
          <ns3:TrackPointExtension>
            <ns3:hr>144</ns3:hr>
            <ns3:cad>0</ns3:cad>
          </ns3:TrackPointExtension>
        </extensions>
      </trkpt>
      <trkpt lat="45.29449640773236751556396484375" lon="-70.83409099839627742767333984375">
        <ele>1116.199951171875</ele>
        <time>2026-08-21T14:00:38.000Z</time>
        <extensions>
          <ns3:TrackPointExtension>
            <ns3:hr>144</ns3:hr>
            <ns3:cad>0</ns3:cad>
          </ns3:TrackPointExtension>
        </extensions>
      </trkpt>
      <trkpt lat="45.294504202902317047119140625" lon="-70.83409912884235382080078125">
        <ele>1116.5999755859375</ele>
        <time>2026-08-21T14:00:39.000Z</time>
        <extensions>
          <ns3:TrackPointExtension>
            <ns3:hr>144</ns3:hr>
            <ns3:cad>0</ns3:cad>
          </ns3:TrackPointExtension>
        </extensions>
      </trkpt>
      <trkpt lat="45.294508226215839385986328125" lon="-70.834110192954540252685546875">
        <ele>1116.800048828125</ele>
        <time>2026-08-21T14:00:40.000Z</time>
        <extensions>
          <ns3:TrackPointExtension>
            <ns3:hr>144</ns3:hr>
            <ns3:cad>0</ns3:cad>
          </ns3:TrackPointExtension>
        </extensions>
      </trkpt>
      <trkpt lat="45.2945130877196788787841796875" lon="-70.834120251238346099853515625">
        <ele>1117</ele>
        <time>2026-08-21T14:00:41.000Z</time>
        <extensions>
          <ns3:TrackPointExtension>
            <ns3:hr>143</ns3:hr>
            <ns3:cad>0</ns3:cad>
          </ns3:TrackPointExtension>
        </extensions>
      </trkpt>
      <trkpt lat="45.2945184521377086639404296875" lon="-70.83413106389343738555908203125">
        <ele>1117</ele>
        <time>2026-08-21T14:00:42.000Z</time>
        <extensions>
          <ns3:TrackPointExtension>
            <ns3:hr>143</ns3:hr>
            <ns3:cad>0</ns3:cad>
          </ns3:TrackPointExtension>
        </extensions>
      </trkpt>
      <trkpt lat="45.2945204637944698333740234375" lon="-70.83414204418659210205078125">
        <ele>1117.199951171875</ele>
        <time>2026-08-21T14:00:43.000Z</time>
        <extensions>
          <ns3:TrackPointExtension>
            <ns3:hr>143</ns3:hr>
            <ns3:cad>0</ns3:cad>
          </ns3:TrackPointExtension>
        </extensions>
      </trkpt>
      <trkpt lat="45.294518955051898956298828125" lon="-70.83415017463266849517822265625">
        <ele>1117.199951171875</ele>
        <time>2026-08-21T14:00:44.000Z</time>
        <extensions>
          <ns3:TrackPointExtension>
            <ns3:hr>143</ns3:hr>
            <ns3:cad>0</ns3:cad>
          </ns3:TrackPointExtension>
        </extensions>
      </trkpt>
      <trkpt lat="45.29451736249029636383056640625" lon="-70.8341532759368419647216796875">
        <ele>1117.199951171875</ele>
        <time>2026-08-21T14:00:45.000Z</time>
        <extensions>
          <ns3:TrackPointExtension>
            <ns3:hr>143</ns3:hr>
            <ns3:cad>0</ns3:cad>
          </ns3:TrackPointExtension>
        </extensions>
      </trkpt>
      <trkpt lat="45.29451392590999603271484375" lon="-70.83415620960295200347900390625">
        <ele>1117.4000244140625</ele>
        <time>2026-08-21T14:00:46.000Z</time>
        <extensions>
          <ns3:TrackPointExtension>
            <ns3:hr>143</ns3:hr>
            <ns3:cad>45</ns3:cad>
          </ns3:TrackPointExtension>
        </extensions>
      </trkpt>
      <trkpt lat="45.29450898058712482452392578125" lon="-70.8341495878994464874267578125">
        <ele>1117.4000244140625</ele>
        <time>2026-08-21T14:00:47.000Z</time>
        <extensions>
          <ns3:TrackPointExtension>
            <ns3:hr>143</ns3:hr>
            <ns3:cad>45</ns3:cad>
          </ns3:TrackPointExtension>
        </extensions>
      </trkpt>
      <trkpt lat="45.2945063821971416473388671875" lon="-70.834149420261383056640625">
        <ele>1117.5999755859375</ele>
        <time>2026-08-21T14:00:48.000Z</time>
        <extensions>
          <ns3:TrackPointExtension>
            <ns3:hr>142</ns3:hr>
            <ns3:cad>0</ns3:cad>
          </ns3:TrackPointExtension>
        </extensions>
      </trkpt>
      <trkpt lat="45.29450445435941219329833984375" lon="-70.834151767194271087646484375">
        <ele>1117.800048828125</ele>
        <time>2026-08-21T14:00:49.000Z</time>
        <extensions>
          <ns3:TrackPointExtension>
            <ns3:hr>142</ns3:hr>
            <ns3:cad>0</ns3:cad>
          </ns3:TrackPointExtension>
        </extensions>
      </trkpt>
      <trkpt lat="45.294500850141048431396484375" lon="-70.83415704779326915740966796875">
        <ele>1118.199951171875</ele>
        <time>2026-08-21T14:00:50.000Z</time>
        <extensions>
          <ns3:TrackPointExtension>
            <ns3:hr>142</ns3:hr>
            <ns3:cad>0</ns3:cad>
          </ns3:TrackPointExtension>
        </extensions>
      </trkpt>
      <trkpt lat="45.29449875466525554656982421875" lon="-70.83416190929710865020751953125">
        <ele>1118.4000244140625</ele>
        <time>2026-08-21T14:00:51.000Z</time>
        <extensions>
          <ns3:TrackPointExtension>
            <ns3:hr>143</ns3:hr>
            <ns3:cad>0</ns3:cad>
          </ns3:TrackPointExtension>
        </extensions>
      </trkpt>
      <trkpt lat="45.2945025265216827392578125" lon="-70.83415805362164974212646484375">
        <ele>1118.5999755859375</ele>
        <time>2026-08-21T14:00:52.000Z</time>
        <extensions>
          <ns3:TrackPointExtension>
            <ns3:hr>143</ns3:hr>
            <ns3:cad>0</ns3:cad>
          </ns3:TrackPointExtension>
        </extensions>
      </trkpt>
      <trkpt lat="45.29449724592268466949462890625" lon="-70.8341640047729015350341796875">
        <ele>1118.800048828125</ele>
        <time>2026-08-21T14:00:53.000Z</time>
        <extensions>
          <ns3:TrackPointExtension>
            <ns3:hr>143</ns3:hr>
            <ns3:cad>0</ns3:cad>
          </ns3:TrackPointExtension>
        </extensions>
      </trkpt>
      <trkpt lat="45.2944936417043209075927734375" lon="-70.834166519343852996826171875">
        <ele>1119</ele>
        <time>2026-08-21T14:00:54.000Z</time>
        <extensions>
          <ns3:TrackPointExtension>
            <ns3:hr>143</ns3:hr>
            <ns3:cad>0</ns3:cad>
          </ns3:TrackPointExtension>
        </extensions>
      </trkpt>
      <trkpt lat="45.2944899536669254302978515625" lon="-70.83416475914418697357177734375">
        <ele>1119.199951171875</ele>
        <time>2026-08-21T14:00:55.000Z</time>
        <extensions>
          <ns3:TrackPointExtension>
            <ns3:hr>144</ns3:hr>
            <ns3:cad>0</ns3:cad>
          </ns3:TrackPointExtension>
        </extensions>
      </trkpt>
      <trkpt lat="45.2944812364876270294189453125" lon="-70.83416995592415332794189453125">
        <ele>1119.199951171875</ele>
        <time>2026-08-21T14:00:56.000Z</time>
        <extensions>
          <ns3:TrackPointExtension>
            <ns3:hr>144</ns3:hr>
            <ns3:cad>0</ns3:cad>
          </ns3:TrackPointExtension>
        </extensions>
      </trkpt>
      <trkpt lat="45.2944741956889629364013671875" lon="-70.83417825400829315185546875">
        <ele>1119.4000244140625</ele>
        <time>2026-08-21T14:00:57.000Z</time>
        <extensions>
          <ns3:TrackPointExtension>
            <ns3:hr>144</ns3:hr>
            <ns3:cad>0</ns3:cad>
          </ns3:TrackPointExtension>
        </extensions>
      </trkpt>
      <trkpt lat="45.2944664843380451202392578125" lon="-70.83418437279760837554931640625">
        <ele>1119.4000244140625</ele>
        <time>2026-08-21T14:00:58.000Z</time>
        <extensions>
          <ns3:TrackPointExtension>
            <ns3:hr>144</ns3:hr>
            <ns3:cad>0</ns3:cad>
          </ns3:TrackPointExtension>
        </extensions>
      </trkpt>
      <trkpt lat="45.29446288011968135833740234375" lon="-70.83418202586472034454345703125">
        <ele>1119.5999755859375</ele>
        <time>2026-08-21T14:00:59.000Z</time>
        <extensions>
          <ns3:TrackPointExtension>
            <ns3:hr>144</ns3:hr>
            <ns3:cad>0</ns3:cad>
          </ns3:TrackPointExtension>
        </extensions>
      </trkpt>
      <trkpt lat="45.29446120373904705047607421875" lon="-70.8341794274747371673583984375">
        <ele>1119.5999755859375</ele>
        <time>2026-08-21T14:01:00.000Z</time>
        <extensions>
          <ns3:TrackPointExtension>
            <ns3:hr>144</ns3:hr>
            <ns3:cad>0</ns3:cad>
          </ns3:TrackPointExtension>
        </extensions>
      </trkpt>
      <trkpt lat="45.29446162283420562744140625" lon="-70.8341804333031177520751953125">
        <ele>1119.800048828125</ele>
        <time>2026-08-21T14:01:01.000Z</time>
        <extensions>
          <ns3:TrackPointExtension>
            <ns3:hr>144</ns3:hr>
            <ns3:cad>0</ns3:cad>
          </ns3:TrackPointExtension>
        </extensions>
      </trkpt>
      <trkpt lat="45.2944607846438884735107421875" lon="-70.834183283150196075439453125">
        <ele>1120.199951171875</ele>
        <time>2026-08-21T14:01:02.000Z</time>
        <extensions>
          <ns3:TrackPointExtension>
            <ns3:hr>144</ns3:hr>
            <ns3:cad>0</ns3:cad>
          </ns3:TrackPointExtension>
        </extensions>
      </trkpt>
      <trkpt lat="45.2944569289684295654296875" lon="-70.834183953702449798583984375">
        <ele>1120.199951171875</ele>
        <time>2026-08-21T14:01:03.000Z</time>
        <extensions>
          <ns3:TrackPointExtension>
            <ns3:hr>144</ns3:hr>
            <ns3:cad>0</ns3:cad>
          </ns3:TrackPointExtension>
        </extensions>
      </trkpt>
      <trkpt lat="45.29445868916809558868408203125" lon="-70.83417967893183231353759765625">
        <ele>1120.4000244140625</ele>
        <time>2026-08-21T14:01:04.000Z</time>
        <extensions>
          <ns3:TrackPointExtension>
            <ns3:hr>143</ns3:hr>
            <ns3:cad>0</ns3:cad>
          </ns3:TrackPointExtension>
        </extensions>
      </trkpt>
      <trkpt lat="45.29445818625390529632568359375" lon="-70.83418068476021289825439453125">
        <ele>1120.5999755859375</ele>
        <time>2026-08-21T14:01:05.000Z</time>
        <extensions>
          <ns3:TrackPointExtension>
            <ns3:hr>144</ns3:hr>
            <ns3:cad>0</ns3:cad>
          </ns3:TrackPointExtension>
        </extensions>
      </trkpt>
      <trkpt lat="45.294456593692302703857421875" lon="-70.834185294806957244873046875">
        <ele>1120.5999755859375</ele>
        <time>2026-08-21T14:01:06.000Z</time>
        <extensions>
          <ns3:TrackPointExtension>
            <ns3:hr>144</ns3:hr>
            <ns3:cad>0</ns3:cad>
          </ns3:TrackPointExtension>
        </extensions>
      </trkpt>
      <trkpt lat="45.2944527380168437957763671875" lon="-70.83419074304401874542236328125">
        <ele>1120.800048828125</ele>
        <time>2026-08-21T14:01:07.000Z</time>
        <extensions>
          <ns3:TrackPointExtension>
            <ns3:hr>145</ns3:hr>
            <ns3:cad>0</ns3:cad>
          </ns3:TrackPointExtension>
        </extensions>
      </trkpt>
      <trkpt lat="45.29444511048495769500732421875" lon="-70.834197700023651123046875">
        <ele>1121</ele>
        <time>2026-08-21T14:01:08.000Z</time>
        <extensions>
          <ns3:TrackPointExtension>
            <ns3:hr>146</ns3:hr>
            <ns3:cad>0</ns3:cad>
          </ns3:TrackPointExtension>
        </extensions>
      </trkpt>
      <trkpt lat="45.294443853199481964111328125" lon="-70.8341985382139682769775390625">
        <ele>1121.199951171875</ele>
        <time>2026-08-21T14:01:09.000Z</time>
        <extensions>
          <ns3:TrackPointExtension>
            <ns3:hr>146</ns3:hr>
            <ns3:cad>0</ns3:cad>
          </ns3:TrackPointExtension>
        </extensions>
      </trkpt>
      <trkpt lat="45.29444108717143535614013671875" lon="-70.8342017233371734619140625">
        <ele>1121.4000244140625</ele>
        <time>2026-08-21T14:01:10.000Z</time>
        <extensions>
          <ns3:TrackPointExtension>
            <ns3:hr>146</ns3:hr>
            <ns3:cad>0</ns3:cad>
          </ns3:TrackPointExtension>
        </extensions>
      </trkpt>
      <trkpt lat="45.29443840496242046356201171875" lon="-70.834211446344852447509765625">
        <ele>1121.800048828125</ele>
        <time>2026-08-21T14:01:11.000Z</time>
        <extensions>
          <ns3:TrackPointExtension>
            <ns3:hr>146</ns3:hr>
            <ns3:cad>0</ns3:cad>
          </ns3:TrackPointExtension>
        </extensions>
      </trkpt>
      <trkpt lat="45.29444058425724506378173828125" lon="-70.83421823568642139434814453125">
        <ele>1122</ele>
        <time>2026-08-21T14:01:12.000Z</time>
        <extensions>
          <ns3:TrackPointExtension>
            <ns3:hr>145</ns3:hr>
            <ns3:cad>0</ns3:cad>
          </ns3:TrackPointExtension>
        </extensions>
      </trkpt>
      <trkpt lat="45.29443689621984958648681640625" lon="-70.83422812633216381072998046875">
        <ele>1122.199951171875</ele>
        <time>2026-08-21T14:01:13.000Z</time>
        <extensions>
          <ns3:TrackPointExtension>
            <ns3:hr>145</ns3:hr>
            <ns3:cad>0</ns3:cad>
          </ns3:TrackPointExtension>
        </extensions>
      </trkpt>
      <trkpt lat="45.2944386564195156097412109375" lon="-70.8342381007969379425048828125">
        <ele>1122.5999755859375</ele>
        <time>2026-08-21T14:01:14.000Z</time>
        <extensions>
          <ns3:TrackPointExtension>
            <ns3:hr>146</ns3:hr>
            <ns3:cad>0</ns3:cad>
          </ns3:TrackPointExtension>
        </extensions>
      </trkpt>
      <trkpt lat="45.29443790204823017120361328125" lon="-70.83424530923366546630859375">
        <ele>1122.800048828125</ele>
        <time>2026-08-21T14:01:15.000Z</time>
        <extensions>
          <ns3:TrackPointExtension>
            <ns3:hr>146</ns3:hr>
            <ns3:cad>0</ns3:cad>
          </ns3:TrackPointExtension>
        </extensions>
      </trkpt>
      <trkpt lat="45.2944406680762767791748046875" lon="-70.8342458121478557586669921875">
        <ele>1123</ele>
        <time>2026-08-21T14:01:16.000Z</time>
        <extensions>
          <ns3:TrackPointExtension>
            <ns3:hr>146</ns3:hr>
            <ns3:cad>0</ns3:cad>
          </ns3:TrackPointExtension>
        </extensions>
      </trkpt>
      <trkpt lat="45.29444326646625995635986328125" lon="-70.83424455486238002777099609375">
        <ele>1123.199951171875</ele>
        <time>2026-08-21T14:01:17.000Z</time>
        <extensions>
          <ns3:TrackPointExtension>
            <ns3:hr>145</ns3:hr>
            <ns3:cad>0</ns3:cad>
          </ns3:TrackPointExtension>
        </extensions>
      </trkpt>
      <trkpt lat="45.294443182647228240966796875" lon="-70.83424924872815608978271484375">
        <ele>1123.4000244140625</ele>
        <time>2026-08-21T14:01:18.000Z</time>
        <extensions>
          <ns3:TrackPointExtension>
            <ns3:hr>145</ns3:hr>
            <ns3:cad>0</ns3:cad>
          </ns3:TrackPointExtension>
        </extensions>
      </trkpt>
      <trkpt lat="45.2944436855614185333251953125" lon="-70.8342540264129638671875">
        <ele>1123.5999755859375</ele>
        <time>2026-08-21T14:01:19.000Z</time>
        <extensions>
          <ns3:TrackPointExtension>
            <ns3:hr>145</ns3:hr>
            <ns3:cad>0</ns3:cad>
          </ns3:TrackPointExtension>
        </extensions>
      </trkpt>
      <trkpt lat="45.29444159008562564849853515625" lon="-70.834260396659374237060546875">
        <ele>1123.800048828125</ele>
        <time>2026-08-21T14:01:20.000Z</time>
        <extensions>
          <ns3:TrackPointExtension>
            <ns3:hr>146</ns3:hr>
            <ns3:cad>0</ns3:cad>
          </ns3:TrackPointExtension>
        </extensions>
      </trkpt>
      <trkpt lat="45.2944403328001499176025390625" lon="-70.83425947465002536773681640625">
        <ele>1124</ele>
        <time>2026-08-21T14:01:21.000Z</time>
        <extensions>
          <ns3:TrackPointExtension>
            <ns3:hr>146</ns3:hr>
            <ns3:cad>0</ns3:cad>
          </ns3:TrackPointExtension>
        </extensions>
      </trkpt>
      <trkpt lat="45.29444108717143535614013671875" lon="-70.8342634141445159912109375">
        <ele>1124.199951171875</ele>
        <time>2026-08-21T14:01:22.000Z</time>
        <extensions>
          <ns3:TrackPointExtension>
            <ns3:hr>146</ns3:hr>
            <ns3:cad>0</ns3:cad>
          </ns3:TrackPointExtension>
        </extensions>
      </trkpt>
      <trkpt lat="45.29443974606692790985107421875" lon="-70.8342625759541988372802734375">
        <ele>1124.5999755859375</ele>
        <time>2026-08-21T14:01:23.000Z</time>
        <extensions>
          <ns3:TrackPointExtension>
            <ns3:hr>146</ns3:hr>
            <ns3:cad>0</ns3:cad>
          </ns3:TrackPointExtension>
        </extensions>
      </trkpt>
      <trkpt lat="45.29443253763020038604736328125" lon="-70.83426944911479949951171875">
        <ele>1124.800048828125</ele>
        <time>2026-08-21T14:01:24.000Z</time>
        <extensions>
          <ns3:TrackPointExtension>
            <ns3:hr>146</ns3:hr>
            <ns3:cad>0</ns3:cad>
          </ns3:TrackPointExtension>
        </extensions>
      </trkpt>
      <trkpt lat="45.2944301068782806396484375" lon="-70.8342702873051166534423828125">
        <ele>1125</ele>
        <time>2026-08-21T14:01:25.000Z</time>
        <extensions>
          <ns3:TrackPointExtension>
            <ns3:hr>146</ns3:hr>
            <ns3:cad>0</ns3:cad>
          </ns3:TrackPointExtension>
        </extensions>
      </trkpt>
      <trkpt lat="45.294423736631870269775390625" lon="-70.83427481353282928466796875">
        <ele>1125.4000244140625</ele>
        <time>2026-08-21T14:01:26.000Z</time>
        <extensions>
          <ns3:TrackPointExtension>
            <ns3:hr>146</ns3:hr>
            <ns3:cad>0</ns3:cad>
          </ns3:TrackPointExtension>
        </extensions>
      </trkpt>
      <trkpt lat="45.2944161929190158843994140625" lon="-70.8342810161411762237548828125">
        <ele>1125.5999755859375</ele>
        <time>2026-08-21T14:01:27.000Z</time>
        <extensions>
          <ns3:TrackPointExtension>
            <ns3:hr>146</ns3:hr>
            <ns3:cad>0</ns3:cad>
          </ns3:TrackPointExtension>
        </extensions>
      </trkpt>
      <trkpt lat="45.2944113314151763916015625" lon="-70.83428227342665195465087890625">
        <ele>1125.800048828125</ele>
        <time>2026-08-21T14:01:28.000Z</time>
        <extensions>
          <ns3:TrackPointExtension>
            <ns3:hr>147</ns3:hr>
            <ns3:cad>0</ns3:cad>
          </ns3:TrackPointExtension>
        </extensions>
      </trkpt>
      <trkpt lat="45.29440663754940032958984375" lon="-70.83428151905536651611328125">
        <ele>1126</ele>
        <time>2026-08-21T14:01:29.000Z</time>
        <extensions>
          <ns3:TrackPointExtension>
            <ns3:hr>147</ns3:hr>
            <ns3:cad>0</ns3:cad>
          </ns3:TrackPointExtension>
        </extensions>
      </trkpt>
      <trkpt lat="45.29440621845424175262451171875" lon="-70.83427858538925647735595703125">
        <ele>1126.199951171875</ele>
        <time>2026-08-21T14:01:30.000Z</time>
        <extensions>
          <ns3:TrackPointExtension>
            <ns3:hr>147</ns3:hr>
            <ns3:cad>0</ns3:cad>
          </ns3:TrackPointExtension>
        </extensions>
      </trkpt>
      <trkpt lat="45.294405631721019744873046875" lon="-70.83427422679960727691650390625">
        <ele>1126.4000244140625</ele>
        <time>2026-08-21T14:01:31.000Z</time>
        <extensions>
          <ns3:TrackPointExtension>
            <ns3:hr>147</ns3:hr>
            <ns3:cad>0</ns3:cad>
          </ns3:TrackPointExtension>
        </extensions>
      </trkpt>
      <trkpt lat="45.29440219514071941375732421875" lon="-70.834270454943180084228515625">
        <ele>1126.5999755859375</ele>
        <time>2026-08-21T14:01:32.000Z</time>
        <extensions>
          <ns3:TrackPointExtension>
            <ns3:hr>147</ns3:hr>
            <ns3:cad>0</ns3:cad>
          </ns3:TrackPointExtension>
        </extensions>
      </trkpt>
      <trkpt lat="45.2944017760455608367919921875" lon="-70.83426835946738719940185546875">
        <ele>1126.800048828125</ele>
        <time>2026-08-21T14:01:33.000Z</time>
        <extensions>
          <ns3:TrackPointExtension>
            <ns3:hr>148</ns3:hr>
            <ns3:cad>0</ns3:cad>
          </ns3:TrackPointExtension>
        </extensions>
      </trkpt>
      <trkpt lat="45.2944006025791168212890625" lon="-70.83426701836287975311279296875">
        <ele>1127</ele>
        <time>2026-08-21T14:01:34.000Z</time>
        <extensions>
          <ns3:TrackPointExtension>
            <ns3:hr>147</ns3:hr>
            <ns3:cad>0</ns3:cad>
          </ns3:TrackPointExtension>
        </extensions>
      </trkpt>
      <trkpt lat="45.29439322650432586669921875" lon="-70.83426500670611858367919921875">
        <ele>1127.199951171875</ele>
        <time>2026-08-21T14:01:35.000Z</time>
        <extensions>
          <ns3:TrackPointExtension>
            <ns3:hr>147</ns3:hr>
            <ns3:cad>0</ns3:cad>
          </ns3:TrackPointExtension>
        </extensions>
      </trkpt>
      <trkpt lat="45.294391214847564697265625" lon="-70.8342639170587062835693359375">
        <ele>1127.4000244140625</ele>
        <time>2026-08-21T14:01:36.000Z</time>
        <extensions>
          <ns3:TrackPointExtension>
            <ns3:hr>147</ns3:hr>
            <ns3:cad>0</ns3:cad>
          </ns3:TrackPointExtension>
        </extensions>
      </trkpt>
      <trkpt lat="45.29437839053571224212646484375" lon="-70.834266431629657745361328125">
        <ele>1127.800048828125</ele>
        <time>2026-08-21T14:01:37.000Z</time>
        <extensions>
          <ns3:TrackPointExtension>
            <ns3:hr>147</ns3:hr>
            <ns3:cad>0</ns3:cad>
          </ns3:TrackPointExtension>
        </extensions>
      </trkpt>
      <trkpt lat="45.2943710982799530029296875" lon="-70.8342639170587062835693359375">
        <ele>1128</ele>
        <time>2026-08-21T14:01:38.000Z</time>
        <extensions>
          <ns3:TrackPointExtension>
            <ns3:hr>148</ns3:hr>
            <ns3:cad>0</ns3:cad>
          </ns3:TrackPointExtension>
        </extensions>
      </trkpt>
      <trkpt lat="45.29436313547194004058837890625" lon="-70.834258385002613067626953125">
        <ele>1128</ele>
        <time>2026-08-21T14:01:39.000Z</time>
        <extensions>
          <ns3:TrackPointExtension>
            <ns3:hr>148</ns3:hr>
            <ns3:cad>0</ns3:cad>
          </ns3:TrackPointExtension>
        </extensions>
      </trkpt>
      <trkpt lat="45.29435190372169017791748046875" lon="-70.8342491649091243743896484375">
        <ele>1128.199951171875</ele>
        <time>2026-08-21T14:01:40.000Z</time>
        <extensions>
          <ns3:TrackPointExtension>
            <ns3:hr>148</ns3:hr>
            <ns3:cad>0</ns3:cad>
          </ns3:TrackPointExtension>
        </extensions>
      </trkpt>
      <trkpt lat="45.2943491376936435699462890625" lon="-70.83424304611980915069580078125">
        <ele>1128.4000244140625</ele>
        <time>2026-08-21T14:01:41.000Z</time>
        <extensions>
          <ns3:TrackPointExtension>
            <ns3:hr>148</ns3:hr>
            <ns3:cad>0</ns3:cad>
          </ns3:TrackPointExtension>
        </extensions>
      </trkpt>
      <trkpt lat="45.294348299503326416015625" lon="-70.8342407830059528350830078125">
        <ele>1128.5999755859375</ele>
        <time>2026-08-21T14:01:42.000Z</time>
        <extensions>
          <ns3:TrackPointExtension>
            <ns3:hr>148</ns3:hr>
            <ns3:cad>0</ns3:cad>
          </ns3:TrackPointExtension>
        </extensions>
      </trkpt>
      <trkpt lat="45.29434000141918659210205078125" lon="-70.8342339098453521728515625">
        <ele>1129</ele>
        <time>2026-08-21T14:01:43.000Z</time>
        <extensions>
          <ns3:TrackPointExtension>
            <ns3:hr>148</ns3:hr>
            <ns3:cad>0</ns3:cad>
          </ns3:TrackPointExtension>
        </extensions>
      </trkpt>
      <trkpt lat="45.29434092342853546142578125" lon="-70.83423332311213016510009765625">
        <ele>1129.199951171875</ele>
        <time>2026-08-21T14:01:44.000Z</time>
        <extensions>
          <ns3:TrackPointExtension>
            <ns3:hr>148</ns3:hr>
            <ns3:cad>0</ns3:cad>
          </ns3:TrackPointExtension>
        </extensions>
      </trkpt>
      <trkpt lat="45.2943327091634273529052734375" lon="-70.83423013798892498016357421875">
        <ele>1129.4000244140625</ele>
        <time>2026-08-21T14:01:45.000Z</time>
        <extensions>
          <ns3:TrackPointExtension>
            <ns3:hr>148</ns3:hr>
            <ns3:cad>0</ns3:cad>
          </ns3:TrackPointExtension>
        </extensions>
      </trkpt>
      <trkpt lat="45.294327847659587860107421875" lon="-70.83422385156154632568359375">
        <ele>1129.800048828125</ele>
        <time>2026-08-21T14:01:46.000Z</time>
        <extensions>
          <ns3:TrackPointExtension>
            <ns3:hr>149</ns3:hr>
            <ns3:cad>0</ns3:cad>
          </ns3:TrackPointExtension>
        </extensions>
      </trkpt>
      <trkpt lat="45.29432407580316066741943359375" lon="-70.83421982824802398681640625">
        <ele>1130</ele>
        <time>2026-08-21T14:01:47.000Z</time>
        <extensions>
          <ns3:TrackPointExtension>
            <ns3:hr>150</ns3:hr>
            <ns3:cad>0</ns3:cad>
          </ns3:TrackPointExtension>
        </extensions>
      </trkpt>
      <trkpt lat="45.29432139359414577484130859375" lon="-70.83421924151480197906494140625">
        <ele>1130</ele>
        <time>2026-08-21T14:01:48.000Z</time>
        <extensions>
          <ns3:TrackPointExtension>
            <ns3:hr>150</ns3:hr>
            <ns3:cad>0</ns3:cad>
          </ns3:TrackPointExtension>
        </extensions>
      </trkpt>
      <trkpt lat="45.29431854374706745147705078125" lon="-70.83421714603900909423828125">
        <ele>1130.199951171875</ele>
        <time>2026-08-21T14:01:49.000Z</time>
        <extensions>
          <ns3:TrackPointExtension>
            <ns3:hr>150</ns3:hr>
            <ns3:cad>66</ns3:cad>
          </ns3:TrackPointExtension>
        </extensions>
      </trkpt>
      <trkpt lat="45.294313766062259674072265625" lon="-70.834215469658374786376953125">
        <ele>1130.199951171875</ele>
        <time>2026-08-21T14:01:50.000Z</time>
        <extensions>
          <ns3:TrackPointExtension>
            <ns3:hr>150</ns3:hr>
            <ns3:cad>66</ns3:cad>
          </ns3:TrackPointExtension>
        </extensions>
      </trkpt>
      <trkpt lat="45.29430747963488101959228515625" lon="-70.8342204988002777099609375">
        <ele>1130.4000244140625</ele>
        <time>2026-08-21T14:01:51.000Z</time>
        <extensions>
          <ns3:TrackPointExtension>
            <ns3:hr>150</ns3:hr>
            <ns3:cad>0</ns3:cad>
          </ns3:TrackPointExtension>
        </extensions>
      </trkpt>
      <trkpt lat="45.2942998521029949188232421875" lon="-70.83422385156154632568359375">
        <ele>1130.4000244140625</ele>
        <time>2026-08-21T14:01:52.000Z</time>
        <extensions>
          <ns3:TrackPointExtension>
            <ns3:hr>151</ns3:hr>
            <ns3:cad>0</ns3:cad>
          </ns3:TrackPointExtension>
        </extensions>
      </trkpt>
      <trkpt lat="45.29429926536977291107177734375" lon="-70.83422745577991008758544921875">
        <ele>1130.4000244140625</ele>
        <time>2026-08-21T14:01:53.000Z</time>
        <extensions>
          <ns3:TrackPointExtension>
            <ns3:hr>150</ns3:hr>
            <ns3:cad>0</ns3:cad>
          </ns3:TrackPointExtension>
        </extensions>
      </trkpt>
      <trkpt lat="45.29429666697978973388671875" lon="-70.8342339098453521728515625">
        <ele>1130.5999755859375</ele>
        <time>2026-08-21T14:01:54.000Z</time>
        <extensions>
          <ns3:TrackPointExtension>
            <ns3:hr>150</ns3:hr>
            <ns3:cad>0</ns3:cad>
          </ns3:TrackPointExtension>
        </extensions>
      </trkpt>
      <trkpt lat="45.29429591260850429534912109375" lon="-70.8342392742633819580078125">
        <ele>1130.800048828125</ele>
        <time>2026-08-21T14:01:55.000Z</time>
        <extensions>
          <ns3:TrackPointExtension>
            <ns3:hr>150</ns3:hr>
            <ns3:cad>0</ns3:cad>
          </ns3:TrackPointExtension>
        </extensions>
      </trkpt>
      <trkpt lat="45.29429457150399684906005859375" lon="-70.8342401124536991119384765625">
        <ele>1130.800048828125</ele>
        <time>2026-08-21T14:01:56.000Z</time>
        <extensions>
          <ns3:TrackPointExtension>
            <ns3:hr>150</ns3:hr>
            <ns3:cad>0</ns3:cad>
          </ns3:TrackPointExtension>
        </extensions>
      </trkpt>
      <trkpt lat="45.29429574497044086456298828125" lon="-70.83423768170177936553955078125">
        <ele>1130.800048828125</ele>
        <time>2026-08-21T14:01:57.000Z</time>
        <extensions>
          <ns3:TrackPointExtension>
            <ns3:hr>150</ns3:hr>
            <ns3:cad>0</ns3:cad>
          </ns3:TrackPointExtension>
        </extensions>
      </trkpt>
      <trkpt lat="45.2942911349236965179443359375" lon="-70.834235250949859619140625">
        <ele>1130.800048828125</ele>
        <time>2026-08-21T14:01:58.000Z</time>
        <extensions>
          <ns3:TrackPointExtension>
            <ns3:hr>150</ns3:hr>
            <ns3:cad>0</ns3:cad>
          </ns3:TrackPointExtension>
        </extensions>
      </trkpt>
      <trkpt lat="45.2942830882966518402099609375" lon="-70.83423986099660396575927734375">
        <ele>1130.800048828125</ele>
        <time>2026-08-21T14:01:59.000Z</time>
        <extensions>
          <ns3:TrackPointExtension>
            <ns3:hr>150</ns3:hr>
            <ns3:cad>0</ns3:cad>
          </ns3:TrackPointExtension>
        </extensions>
      </trkpt>
      <trkpt lat="45.29427655041217803955078125" lon="-70.83424857817590236663818359375">
        <ele>1131</ele>
        <time>2026-08-21T14:02:00.000Z</time>
        <extensions>
          <ns3:TrackPointExtension>
            <ns3:hr>150</ns3:hr>
            <ns3:cad>0</ns3:cad>
          </ns3:TrackPointExtension>
        </extensions>
      </trkpt>
      <trkpt lat="45.29427655041217803955078125" lon="-70.8342500030994415283203125">
        <ele>1131</ele>
        <time>2026-08-21T14:02:01.000Z</time>
        <extensions>
          <ns3:TrackPointExtension>
            <ns3:hr>150</ns3:hr>
            <ns3:cad>0</ns3:cad>
          </ns3:TrackPointExtension>
        </extensions>
      </trkpt>
      <trkpt lat="45.294274874031543731689453125" lon="-70.834263749420642852783203125">
        <ele>1131.199951171875</ele>
        <time>2026-08-21T14:02:02.000Z</time>
        <extensions>
          <ns3:TrackPointExtension>
            <ns3:hr>150</ns3:hr>
            <ns3:cad>0</ns3:cad>
          </ns3:TrackPointExtension>
        </extensions>
      </trkpt>
      <trkpt lat="45.29427579604089260101318359375" lon="-70.8342753164470195770263671875">
        <ele>1131.4000244140625</ele>
        <time>2026-08-21T14:02:03.000Z</time>
        <extensions>
          <ns3:TrackPointExtension>
            <ns3:hr>151</ns3:hr>
            <ns3:cad>44</ns3:cad>
          </ns3:TrackPointExtension>
        </extensions>
      </trkpt>
      <trkpt lat="45.29427663423120975494384765625" lon="-70.8342863805592060089111328125">
        <ele>1131.5999755859375</ele>
        <time>2026-08-21T14:02:04.000Z</time>
        <extensions>
          <ns3:TrackPointExtension>
            <ns3:hr>150</ns3:hr>
            <ns3:cad>44</ns3:cad>
          </ns3:TrackPointExtension>
        </extensions>
      </trkpt>
      <trkpt lat="45.29427847824990749359130859375" lon="-70.8342947624623775482177734375">
        <ele>1131.800048828125</ele>
        <time>2026-08-21T14:02:05.000Z</time>
        <extensions>
          <ns3:TrackPointExtension>
            <ns3:hr>150</ns3:hr>
            <ns3:cad>44</ns3:cad>
          </ns3:TrackPointExtension>
        </extensions>
      </trkpt>
      <trkpt lat="45.29428032226860523223876953125" lon="-70.8343011327087879180908203125">
        <ele>1132</ele>
        <time>2026-08-21T14:02:06.000Z</time>
        <extensions>
          <ns3:TrackPointExtension>
            <ns3:hr>150</ns3:hr>
            <ns3:cad>0</ns3:cad>
          </ns3:TrackPointExtension>
        </extensions>
      </trkpt>
      <trkpt lat="45.294278562068939208984375" lon="-70.83431395702064037322998046875">
        <ele>1132</ele>
        <time>2026-08-21T14:02:07.000Z</time>
        <extensions>
          <ns3:TrackPointExtension>
            <ns3:hr>150</ns3:hr>
            <ns3:cad>0</ns3:cad>
          </ns3:TrackPointExtension>
        </extensions>
      </trkpt>
      <trkpt lat="45.29427210800349712371826171875" lon="-70.834322087466716766357421875">
        <ele>1132</ele>
        <time>2026-08-21T14:02:08.000Z</time>
        <extensions>
          <ns3:TrackPointExtension>
            <ns3:hr>151</ns3:hr>
            <ns3:cad>0</ns3:cad>
          </ns3:TrackPointExtension>
        </extensions>
      </trkpt>
      <trkpt lat="45.29426582157611846923828125" lon="-70.83432384766638278961181640625">
        <ele>1132</ele>
        <time>2026-08-21T14:02:09.000Z</time>
        <extensions>
          <ns3:TrackPointExtension>
            <ns3:hr>150</ns3:hr>
            <ns3:cad>0</ns3:cad>
          </ns3:TrackPointExtension>
        </extensions>
      </trkpt>
      <trkpt lat="45.294262804090976715087890625" lon="-70.83432619459927082061767578125">
        <ele>1132</ele>
        <time>2026-08-21T14:02:10.000Z</time>
        <extensions>
          <ns3:TrackPointExtension>
            <ns3:hr>149</ns3:hr>
            <ns3:cad>0</ns3:cad>
          </ns3:TrackPointExtension>
        </extensions>
      </trkpt>
      <trkpt lat="45.2942545898258686065673828125" lon="-70.83432602696120738983154296875">
        <ele>1132</ele>
        <time>2026-08-21T14:02:11.000Z</time>
        <extensions>
          <ns3:TrackPointExtension>
            <ns3:hr>149</ns3:hr>
            <ns3:cad>0</ns3:cad>
          </ns3:TrackPointExtension>
        </extensions>
      </trkpt>
      <trkpt lat="45.2942477166652679443359375" lon="-70.83433323539793491363525390625">
        <ele>1132.199951171875</ele>
        <time>2026-08-21T14:02:12.000Z</time>
        <extensions>
          <ns3:TrackPointExtension>
            <ns3:hr>149</ns3:hr>
            <ns3:cad>0</ns3:cad>
          </ns3:TrackPointExtension>
        </extensions>
      </trkpt>
      <trkpt lat="45.29424310661852359771728515625" lon="-70.83434564061462879180908203125">
        <ele>1132.5999755859375</ele>
        <time>2026-08-21T14:02:13.000Z</time>
        <extensions>
          <ns3:TrackPointExtension>
            <ns3:hr>148</ns3:hr>
            <ns3:cad>0</ns3:cad>
          </ns3:TrackPointExtension>
        </extensions>
      </trkpt>
      <trkpt lat="45.29423723928630352020263671875" lon="-70.8343561179935932159423828125">
        <ele>1132.800048828125</ele>
        <time>2026-08-21T14:02:14.000Z</time>
        <extensions>
          <ns3:TrackPointExtension>
            <ns3:hr>148</ns3:hr>
            <ns3:cad>0</ns3:cad>
          </ns3:TrackPointExtension>
        </extensions>
      </trkpt>
      <trkpt lat="45.2942311204969882965087890625" lon="-70.8343691937625408172607421875">
        <ele>1133</ele>
        <time>2026-08-21T14:02:15.000Z</time>
        <extensions>
          <ns3:TrackPointExtension>
            <ns3:hr>148</ns3:hr>
            <ns3:cad>0</ns3:cad>
          </ns3:TrackPointExtension>
        </extensions>
      </trkpt>
      <trkpt lat="45.29422533698379993438720703125" lon="-70.834380090236663818359375">
        <ele>1133.199951171875</ele>
        <time>2026-08-21T14:02:16.000Z</time>
        <extensions>
          <ns3:TrackPointExtension>
            <ns3:hr>148</ns3:hr>
            <ns3:cad>0</ns3:cad>
          </ns3:TrackPointExtension>
        </extensions>
      </trkpt>
      <trkpt lat="45.2942235767841339111328125" lon="-70.8343827724456787109375">
        <ele>1133.4000244140625</ele>
        <time>2026-08-21T14:02:17.000Z</time>
        <extensions>
          <ns3:TrackPointExtension>
            <ns3:hr>148</ns3:hr>
            <ns3:cad>0</ns3:cad>
          </ns3:TrackPointExtension>
        </extensions>
      </trkpt>
      <trkpt lat="45.29421175830066204071044921875" lon="-70.83439274691045284271240234375">
        <ele>1133.5999755859375</ele>
        <time>2026-08-21T14:02:18.000Z</time>
        <extensions>
          <ns3:TrackPointExtension>
            <ns3:hr>148</ns3:hr>
            <ns3:cad>41</ns3:cad>
          </ns3:TrackPointExtension>
        </extensions>
      </trkpt>
      <trkpt lat="45.29420170001685619354248046875" lon="-70.83440548740327358245849609375">
        <ele>1133.800048828125</ele>
        <time>2026-08-21T14:02:19.000Z</time>
        <extensions>
          <ns3:TrackPointExtension>
            <ns3:hr>148</ns3:hr>
            <ns3:cad>0</ns3:cad>
          </ns3:TrackPointExtension>
        </extensions>
      </trkpt>
      <trkpt lat="45.29419700615108013153076171875" lon="-70.83442074246704578399658203125">
        <ele>1134</ele>
        <time>2026-08-21T14:02:20.000Z</time>
        <extensions>
          <ns3:TrackPointExtension>
            <ns3:hr>148</ns3:hr>
            <ns3:cad>0</ns3:cad>
          </ns3:TrackPointExtension>
        </extensions>
      </trkpt>
      <trkpt lat="45.29419985599815845489501953125" lon="-70.8344238437712192535400390625">
        <ele>1134.199951171875</ele>
        <time>2026-08-21T14:02:21.000Z</time>
        <extensions>
          <ns3:TrackPointExtension>
            <ns3:hr>148</ns3:hr>
            <ns3:cad>0</ns3:cad>
          </ns3:TrackPointExtension>
        </extensions>
      </trkpt>
      <trkpt lat="45.29419633559882640838623046875" lon="-70.83443013019859790802001953125">
        <ele>1134.4000244140625</ele>
        <time>2026-08-21T14:02:22.000Z</time>
        <extensions>
          <ns3:TrackPointExtension>
            <ns3:hr>147</ns3:hr>
            <ns3:cad>0</ns3:cad>
          </ns3:TrackPointExtension>
        </extensions>
      </trkpt>
      <trkpt lat="45.29419633559882640838623046875" lon="-70.83443717099726200103759765625">
        <ele>1134.5999755859375</ele>
        <time>2026-08-21T14:02:23.000Z</time>
        <extensions>
          <ns3:TrackPointExtension>
            <ns3:hr>147</ns3:hr>
            <ns3:cad>0</ns3:cad>
          </ns3:TrackPointExtension>
        </extensions>
      </trkpt>
      <trkpt lat="45.294193737208843231201171875" lon="-70.834448821842670440673828125">
        <ele>1134.800048828125</ele>
        <time>2026-08-21T14:02:24.000Z</time>
        <extensions>
          <ns3:TrackPointExtension>
            <ns3:hr>147</ns3:hr>
            <ns3:cad>0</ns3:cad>
          </ns3:TrackPointExtension>
        </extensions>
      </trkpt>
      <trkpt lat="45.294193066656589508056640625" lon="-70.8344592154026031494140625">
        <ele>1135</ele>
        <time>2026-08-21T14:02:25.000Z</time>
        <extensions>
          <ns3:TrackPointExtension>
            <ns3:hr>147</ns3:hr>
            <ns3:cad>0</ns3:cad>
          </ns3:TrackPointExtension>
        </extensions>
      </trkpt>
      <trkpt lat="45.29418937861919403076171875" lon="-70.8344697766005992889404296875">
        <ele>1135.199951171875</ele>
        <time>2026-08-21T14:02:26.000Z</time>
        <extensions>
          <ns3:TrackPointExtension>
            <ns3:hr>147</ns3:hr>
            <ns3:cad>0</ns3:cad>
          </ns3:TrackPointExtension>
        </extensions>
      </trkpt>
      <trkpt lat="45.29418191872537136077880859375" lon="-70.83448360674083232879638671875">
        <ele>1135.4000244140625</ele>
        <time>2026-08-21T14:02:27.000Z</time>
        <extensions>
          <ns3:TrackPointExtension>
            <ns3:hr>146</ns3:hr>
            <ns3:cad>0</ns3:cad>
          </ns3:TrackPointExtension>
        </extensions>
      </trkpt>
      <trkpt lat="45.29417806304991245269775390625" lon="-70.83449877798557281494140625">
        <ele>1135.4000244140625</ele>
        <time>2026-08-21T14:02:28.000Z</time>
        <extensions>
          <ns3:TrackPointExtension>
            <ns3:hr>147</ns3:hr>
            <ns3:cad>0</ns3:cad>
          </ns3:TrackPointExtension>
        </extensions>
      </trkpt>
      <trkpt lat="45.29417789541184902191162109375" lon="-70.83450523205101490020751953125">
        <ele>1135.5999755859375</ele>
        <time>2026-08-21T14:02:29.000Z</time>
        <extensions>
          <ns3:TrackPointExtension>
            <ns3:hr>147</ns3:hr>
            <ns3:cad>0</ns3:cad>
          </ns3:TrackPointExtension>
        </extensions>
      </trkpt>
      <trkpt lat="45.2941754646599292755126953125" lon="-70.83450615406036376953125">
        <ele>1135.800048828125</ele>
        <time>2026-08-21T14:02:30.000Z</time>
        <extensions>
          <ns3:TrackPointExtension>
            <ns3:hr>146</ns3:hr>
            <ns3:cad>0</ns3:cad>
          </ns3:TrackPointExtension>
        </extensions>
      </trkpt>
      <trkpt lat="45.29416792094707489013671875" lon="-70.8345163799822330474853515625">
        <ele>1136</ele>
        <time>2026-08-21T14:02:31.000Z</time>
        <extensions>
          <ns3:TrackPointExtension>
            <ns3:hr>147</ns3:hr>
            <ns3:cad>49</ns3:cad>
          </ns3:TrackPointExtension>
        </extensions>
      </trkpt>
      <trkpt lat="45.29416381381452083587646484375" lon="-70.83452065475285053253173828125">
        <ele>1136.199951171875</ele>
        <time>2026-08-21T14:02:32.000Z</time>
        <extensions>
          <ns3:TrackPointExtension>
            <ns3:hr>147</ns3:hr>
            <ns3:cad>49</ns3:cad>
          </ns3:TrackPointExtension>
        </extensions>
      </trkpt>
      <trkpt lat="45.2941580303013324737548828125" lon="-70.834525264799594879150390625">
        <ele>1136.4000244140625</ele>
        <time>2026-08-21T14:02:33.000Z</time>
        <extensions>
          <ns3:TrackPointExtension>
            <ns3:hr>146</ns3:hr>
            <ns3:cad>0</ns3:cad>
          </ns3:TrackPointExtension>
        </extensions>
      </trkpt>
      <trkpt lat="45.29415593482553958892822265625" lon="-70.83453641273081302642822265625">
        <ele>1136.5999755859375</ele>
        <time>2026-08-21T14:02:34.000Z</time>
        <extensions>
          <ns3:TrackPointExtension>
            <ns3:hr>146</ns3:hr>
            <ns3:cad>0</ns3:cad>
          </ns3:TrackPointExtension>
        </extensions>
      </trkpt>
      <trkpt lat="45.29415308497846126556396484375" lon="-70.83454613573849201202392578125">
        <ele>1136.800048828125</ele>
        <time>2026-08-21T14:02:35.000Z</time>
        <extensions>
          <ns3:TrackPointExtension>
            <ns3:hr>146</ns3:hr>
            <ns3:cad>0</ns3:cad>
          </ns3:TrackPointExtension>
        </extensions>
      </trkpt>
      <trkpt lat="45.2941524982452392578125" lon="-70.83454630337655544281005859375">
        <ele>1136.800048828125</ele>
        <time>2026-08-21T14:02:36.000Z</time>
        <extensions>
          <ns3:TrackPointExtension>
            <ns3:hr>147</ns3:hr>
            <ns3:cad>0</ns3:cad>
          </ns3:TrackPointExtension>
        </extensions>
      </trkpt>
      <trkpt lat="45.294148139655590057373046875" lon="-70.8345559425652027130126953125">
        <ele>1137</ele>
        <time>2026-08-21T14:02:37.000Z</time>
        <extensions>
          <ns3:TrackPointExtension>
            <ns3:hr>146</ns3:hr>
            <ns3:cad>0</ns3:cad>
          </ns3:TrackPointExtension>
        </extensions>
      </trkpt>
      <trkpt lat="45.2941459603607654571533203125" lon="-70.8345582894980907440185546875">
        <ele>1137.199951171875</ele>
        <time>2026-08-21T14:02:38.000Z</time>
        <extensions>
          <ns3:TrackPointExtension>
            <ns3:hr>146</ns3:hr>
            <ns3:cad>0</ns3:cad>
          </ns3:TrackPointExtension>
        </extensions>
      </trkpt>
      <trkpt lat="45.29414319433271884918212890625" lon="-70.83456306718289852142333984375">
        <ele>1137.4000244140625</ele>
        <time>2026-08-21T14:02:39.000Z</time>
        <extensions>
          <ns3:TrackPointExtension>
            <ns3:hr>146</ns3:hr>
            <ns3:cad>0</ns3:cad>
          </ns3:TrackPointExtension>
        </extensions>
      </trkpt>
      <trkpt lat="45.2941362373530864715576171875" lon="-70.834573209285736083984375">
        <ele>1137.800048828125</ele>
        <time>2026-08-21T14:02:40.000Z</time>
        <extensions>
          <ns3:TrackPointExtension>
            <ns3:hr>146</ns3:hr>
            <ns3:cad>0</ns3:cad>
          </ns3:TrackPointExtension>
        </extensions>
      </trkpt>
      <trkpt lat="45.2941332198679447174072265625" lon="-70.83457262255251407623291015625">
        <ele>1138</ele>
        <time>2026-08-21T14:02:41.000Z</time>
        <extensions>
          <ns3:TrackPointExtension>
            <ns3:hr>147</ns3:hr>
            <ns3:cad>0</ns3:cad>
          </ns3:TrackPointExtension>
        </extensions>
      </trkpt>
      <trkpt lat="45.29412508942186832427978515625" lon="-70.8345750533044338226318359375">
        <ele>1138.4000244140625</ele>
        <time>2026-08-21T14:02:42.000Z</time>
        <extensions>
          <ns3:TrackPointExtension>
            <ns3:hr>146</ns3:hr>
            <ns3:cad>0</ns3:cad>
          </ns3:TrackPointExtension>
        </extensions>
      </trkpt>
      <trkpt lat="45.2941208146512508392333984375" lon="-70.83457564003765583038330078125">
        <ele>1138.5999755859375</ele>
        <time>2026-08-21T14:02:43.000Z</time>
        <extensions>
          <ns3:TrackPointExtension>
            <ns3:hr>146</ns3:hr>
            <ns3:cad>0</ns3:cad>
          </ns3:TrackPointExtension>
        </extensions>
      </trkpt>
      <trkpt lat="45.29411452822387218475341796875" lon="-70.83458460867404937744140625">
        <ele>1138.800048828125</ele>
        <time>2026-08-21T14:02:44.000Z</time>
        <extensions>
          <ns3:TrackPointExtension>
            <ns3:hr>147</ns3:hr>
            <ns3:cad>0</ns3:cad>
          </ns3:TrackPointExtension>
        </extensions>
      </trkpt>
      <trkpt lat="45.294111259281635284423828125" lon="-70.8345881290733814239501953125">
        <ele>1139.199951171875</ele>
        <time>2026-08-21T14:02:45.000Z</time>
        <extensions>
          <ns3:TrackPointExtension>
            <ns3:hr>146</ns3:hr>
            <ns3:cad>0</ns3:cad>
          </ns3:TrackPointExtension>
        </extensions>
      </trkpt>
      <trkpt lat="45.29410597868263721466064453125" lon="-70.8345985226333141326904296875">
        <ele>1139.199951171875</ele>
        <time>2026-08-21T14:02:46.000Z</time>
        <extensions>
          <ns3:TrackPointExtension>
            <ns3:hr>146</ns3:hr>
            <ns3:cad>0</ns3:cad>
          </ns3:TrackPointExtension>
        </extensions>
      </trkpt>
      <trkpt lat="45.2940973453223705291748046875" lon="-70.8346136100590229034423828125">
        <ele>1139.4000244140625</ele>
        <time>2026-08-21T14:02:47.000Z</time>
        <extensions>
          <ns3:TrackPointExtension>
            <ns3:hr>146</ns3:hr>
            <ns3:cad>0</ns3:cad>
          </ns3:TrackPointExtension>
        </extensions>
      </trkpt>
      <trkpt lat="45.2941001951694488525390625" lon="-70.83461335860192775726318359375">
        <ele>1139.5999755859375</ele>
        <time>2026-08-21T14:02:48.000Z</time>
        <extensions>
          <ns3:TrackPointExtension>
            <ns3:hr>147</ns3:hr>
            <ns3:cad>0</ns3:cad>
          </ns3:TrackPointExtension>
        </extensions>
      </trkpt>
      <trkpt lat="45.294100530445575714111328125" lon="-70.834618471562862396240234375">
        <ele>1139.5999755859375</ele>
        <time>2026-08-21T14:02:49.000Z</time>
        <extensions>
          <ns3:TrackPointExtension>
            <ns3:hr>146</ns3:hr>
            <ns3:cad>0</ns3:cad>
          </ns3:TrackPointExtension>
        </extensions>
      </trkpt>
      <trkpt lat="45.29410363174974918365478515625" lon="-70.8346317149698734283447265625">
        <ele>1139.800048828125</ele>
        <time>2026-08-21T14:02:50.000Z</time>
        <extensions>
          <ns3:TrackPointExtension>
            <ns3:hr>146</ns3:hr>
            <ns3:cad>0</ns3:cad>
          </ns3:TrackPointExtension>
        </extensions>
      </trkpt>
      <trkpt lat="45.294103883206844329833984375" lon="-70.834641940891742706298828125">
        <ele>1140.199951171875</ele>
        <time>2026-08-21T14:02:51.000Z</time>
        <extensions>
          <ns3:TrackPointExtension>
            <ns3:hr>146</ns3:hr>
            <ns3:cad>0</ns3:cad>
          </ns3:TrackPointExtension>
        </extensions>
      </trkpt>
      <trkpt lat="45.2941074036061763763427734375" lon="-70.83465258590877056121826171875">
        <ele>1140.4000244140625</ele>
        <time>2026-08-21T14:02:52.000Z</time>
        <extensions>
          <ns3:TrackPointExtension>
            <ns3:hr>146</ns3:hr>
            <ns3:cad>0</ns3:cad>
          </ns3:TrackPointExtension>
        </extensions>
      </trkpt>
      <trkpt lat="45.294106900691986083984375" lon="-70.83465308882296085357666015625">
        <ele>1140.5999755859375</ele>
        <time>2026-08-21T14:02:53.000Z</time>
        <extensions>
          <ns3:TrackPointExtension>
            <ns3:hr>147</ns3:hr>
            <ns3:cad>0</ns3:cad>
          </ns3:TrackPointExtension>
        </extensions>
      </trkpt>
      <trkpt lat="45.29410623013973236083984375" lon="-70.83466951735317707061767578125">
        <ele>1140.800048828125</ele>
        <time>2026-08-21T14:02:54.000Z</time>
        <extensions>
          <ns3:TrackPointExtension>
            <ns3:hr>146</ns3:hr>
            <ns3:cad>0</ns3:cad>
          </ns3:TrackPointExtension>
        </extensions>
      </trkpt>
      <trkpt lat="45.2941053919494152069091796875" lon="-70.83466867916285991668701171875">
        <ele>1141</ele>
        <time>2026-08-21T14:02:55.000Z</time>
        <extensions>
          <ns3:TrackPointExtension>
            <ns3:hr>146</ns3:hr>
            <ns3:cad>0</ns3:cad>
          </ns3:TrackPointExtension>
        </extensions>
      </trkpt>
      <trkpt lat="45.294104553759098052978515625" lon="-70.8346675895154476165771484375">
        <ele>1141</ele>
        <time>2026-08-21T14:02:56.000Z</time>
        <extensions>
          <ns3:TrackPointExtension>
            <ns3:hr>146</ns3:hr>
            <ns3:cad>0</ns3:cad>
          </ns3:TrackPointExtension>
        </extensions>
      </trkpt>
      <trkpt lat="45.29410480521619319915771484375" lon="-70.83466775715351104736328125">
        <ele>1141.199951171875</ele>
        <time>2026-08-21T14:02:57.000Z</time>
        <extensions>
          <ns3:TrackPointExtension>
            <ns3:hr>147</ns3:hr>
            <ns3:cad>0</ns3:cad>
          </ns3:TrackPointExtension>
        </extensions>
      </trkpt>
      <trkpt lat="45.294103212654590606689453125" lon="-70.83466348238289356231689453125">
        <ele>1141.4000244140625</ele>
        <time>2026-08-21T14:02:58.000Z</time>
        <extensions>
          <ns3:TrackPointExtension>
            <ns3:hr>146</ns3:hr>
            <ns3:cad>0</ns3:cad>
          </ns3:TrackPointExtension>
        </extensions>
      </trkpt>
      <trkpt lat="45.29410178773105144500732421875" lon="-70.8346550166606903076171875">
        <ele>1141.5999755859375</ele>
        <time>2026-08-21T14:02:59.000Z</time>
        <extensions>
          <ns3:TrackPointExtension>
            <ns3:hr>146</ns3:hr>
            <ns3:cad>0</ns3:cad>
          </ns3:TrackPointExtension>
        </extensions>
      </trkpt>
      <trkpt lat="45.2940943278372287750244140625" lon="-70.8346592076122760772705078125">
        <ele>1141.800048828125</ele>
        <time>2026-08-21T14:03:00.000Z</time>
        <extensions>
          <ns3:TrackPointExtension>
            <ns3:hr>146</ns3:hr>
            <ns3:cad>0</ns3:cad>
          </ns3:TrackPointExtension>
        </extensions>
      </trkpt>
      <trkpt lat="45.29408904723823070526123046875" lon="-70.834669768810272216796875">
        <ele>1142</ele>
        <time>2026-08-21T14:03:01.000Z</time>
        <extensions>
          <ns3:TrackPointExtension>
            <ns3:hr>146</ns3:hr>
            <ns3:cad>0</ns3:cad>
          </ns3:TrackPointExtension>
        </extensions>
      </trkpt>
      <trkpt lat="45.2940872870385646820068359375" lon="-70.83467957563698291778564453125">
        <ele>1142.199951171875</ele>
        <time>2026-08-21T14:03:02.000Z</time>
        <extensions>
          <ns3:TrackPointExtension>
            <ns3:hr>146</ns3:hr>
            <ns3:cad>0</ns3:cad>
          </ns3:TrackPointExtension>
        </extensions>
      </trkpt>
      <trkpt lat="45.29408385045826435089111328125" lon="-70.83469617180526256561279296875">
        <ele>1142.199951171875</ele>
        <time>2026-08-21T14:03:03.000Z</time>
        <extensions>
          <ns3:TrackPointExtension>
            <ns3:hr>147</ns3:hr>
            <ns3:cad>0</ns3:cad>
          </ns3:TrackPointExtension>
        </extensions>
      </trkpt>
      <trkpt lat="45.2940822578966617584228515625" lon="-70.834701620042324066162109375">
        <ele>1142.4000244140625</ele>
        <time>2026-08-21T14:03:04.000Z</time>
        <extensions>
          <ns3:TrackPointExtension>
            <ns3:hr>147</ns3:hr>
            <ns3:cad>0</ns3:cad>
          </ns3:TrackPointExtension>
        </extensions>
      </trkpt>
      <trkpt lat="45.2940792404115200042724609375" lon="-70.834712348878383636474609375">
        <ele>1142.5999755859375</ele>
        <time>2026-08-21T14:03:05.000Z</time>
        <extensions>
          <ns3:TrackPointExtension>
            <ns3:hr>147</ns3:hr>
            <ns3:cad>0</ns3:cad>
          </ns3:TrackPointExtension>
        </extensions>
      </trkpt>
      <trkpt lat="45.29407496564090251922607421875" lon="-70.83472668193280696868896484375">
        <ele>1142.800048828125</ele>
        <time>2026-08-21T14:03:06.000Z</time>
        <extensions>
          <ns3:TrackPointExtension>
            <ns3:hr>147</ns3:hr>
            <ns3:cad>0</ns3:cad>
          </ns3:TrackPointExtension>
        </extensions>
      </trkpt>
      <trkpt lat="45.2940760552883148193359375" lon="-70.8347255922853946685791015625">
        <ele>1143</ele>
        <time>2026-08-21T14:03:07.000Z</time>
        <extensions>
          <ns3:TrackPointExtension>
            <ns3:hr>148</ns3:hr>
            <ns3:cad>0</ns3:cad>
          </ns3:TrackPointExtension>
        </extensions>
      </trkpt>
      <trkpt lat="45.294074714183807373046875" lon="-70.8347322978079319000244140625">
        <ele>1143.199951171875</ele>
        <time>2026-08-21T14:03:08.000Z</time>
        <extensions>
          <ns3:TrackPointExtension>
            <ns3:hr>148</ns3:hr>
            <ns3:cad>0</ns3:cad>
          </ns3:TrackPointExtension>
        </extensions>
      </trkpt>
      <trkpt lat="45.294074714183807373046875" lon="-70.83473145961761474609375">
        <ele>1143.4000244140625</ele>
        <time>2026-08-21T14:03:09.000Z</time>
        <extensions>
          <ns3:TrackPointExtension>
            <ns3:hr>148</ns3:hr>
            <ns3:cad>0</ns3:cad>
          </ns3:TrackPointExtension>
        </extensions>
      </trkpt>
      <trkpt lat="45.2940706908702850341796875" lon="-70.83473523147404193878173828125">
        <ele>1143.5999755859375</ele>
        <time>2026-08-21T14:03:10.000Z</time>
        <extensions>
          <ns3:TrackPointExtension>
            <ns3:hr>148</ns3:hr>
            <ns3:cad>0</ns3:cad>
          </ns3:TrackPointExtension>
        </extensions>
      </trkpt>
      <trkpt lat="45.29406809248030185699462890625" lon="-70.83473087288439273834228515625">
        <ele>1143.800048828125</ele>
        <time>2026-08-21T14:03:11.000Z</time>
        <extensions>
          <ns3:TrackPointExtension>
            <ns3:hr>148</ns3:hr>
            <ns3:cad>0</ns3:cad>
          </ns3:TrackPointExtension>
        </extensions>
      </trkpt>
      <trkpt lat="45.29406507499516010284423828125" lon="-70.8347276039421558380126953125">
        <ele>1144</ele>
        <time>2026-08-21T14:03:12.000Z</time>
        <extensions>
          <ns3:TrackPointExtension>
            <ns3:hr>148</ns3:hr>
            <ns3:cad>0</ns3:cad>
          </ns3:TrackPointExtension>
        </extensions>
      </trkpt>
      <trkpt lat="45.29406172223389148712158203125" lon="-70.834727771580219268798828125">
        <ele>1144.199951171875</ele>
        <time>2026-08-21T14:03:13.000Z</time>
        <extensions>
          <ns3:TrackPointExtension>
            <ns3:hr>148</ns3:hr>
            <ns3:cad>0</ns3:cad>
          </ns3:TrackPointExtension>
        </extensions>
      </trkpt>
      <trkpt lat="45.29405392706394195556640625" lon="-70.83473204635083675384521484375">
        <ele>1144.4000244140625</ele>
        <time>2026-08-21T14:03:14.000Z</time>
        <extensions>
          <ns3:TrackPointExtension>
            <ns3:hr>147</ns3:hr>
            <ns3:cad>0</ns3:cad>
          </ns3:TrackPointExtension>
        </extensions>
      </trkpt>
      <trkpt lat="45.294048227369785308837890625" lon="-70.83473774604499340057373046875">
        <ele>1144.5999755859375</ele>
        <time>2026-08-21T14:03:15.000Z</time>
        <extensions>
          <ns3:TrackPointExtension>
            <ns3:hr>148</ns3:hr>
            <ns3:cad>0</ns3:cad>
          </ns3:TrackPointExtension>
        </extensions>
      </trkpt>
      <trkpt lat="45.29403992928564548492431640625" lon="-70.8347507379949092864990234375">
        <ele>1144.5999755859375</ele>
        <time>2026-08-21T14:03:16.000Z</time>
        <extensions>
          <ns3:TrackPointExtension>
            <ns3:hr>148</ns3:hr>
            <ns3:cad>0</ns3:cad>
          </ns3:TrackPointExtension>
        </extensions>
      </trkpt>
      <trkpt lat="45.29403557069599628448486328125" lon="-70.8347607962787151336669921875">
        <ele>1144.800048828125</ele>
        <time>2026-08-21T14:03:17.000Z</time>
        <extensions>
          <ns3:TrackPointExtension>
            <ns3:hr>148</ns3:hr>
            <ns3:cad>45</ns3:cad>
          </ns3:TrackPointExtension>
        </extensions>
      </trkpt>
      <trkpt lat="45.294039510190486907958984375" lon="-70.8347604610025882720947265625">
        <ele>1145</ele>
        <time>2026-08-21T14:03:18.000Z</time>
        <extensions>
          <ns3:TrackPointExtension>
            <ns3:hr>148</ns3:hr>
            <ns3:cad>18</ns3:cad>
          </ns3:TrackPointExtension>
        </extensions>
      </trkpt>
      <trkpt lat="45.29403808526694774627685546875" lon="-70.8347757160663604736328125">
        <ele>1145.199951171875</ele>
        <time>2026-08-21T14:03:19.000Z</time>
        <extensions>
          <ns3:TrackPointExtension>
            <ns3:hr>148</ns3:hr>
            <ns3:cad>18</ns3:cad>
          </ns3:TrackPointExtension>
        </extensions>
      </trkpt>
      <trkpt lat="45.29403104446828365325927734375" lon="-70.8347899653017520904541015625">
        <ele>1145.4000244140625</ele>
        <time>2026-08-21T14:03:20.000Z</time>
        <extensions>
          <ns3:TrackPointExtension>
            <ns3:hr>147</ns3:hr>
            <ns3:cad>18</ns3:cad>
          </ns3:TrackPointExtension>
        </extensions>
      </trkpt>
      <trkpt lat="45.29402366839349269866943359375" lon="-70.83480128087103366851806640625">
        <ele>1145.4000244140625</ele>
        <time>2026-08-21T14:03:21.000Z</time>
        <extensions>
          <ns3:TrackPointExtension>
            <ns3:hr>148</ns3:hr>
            <ns3:cad>18</ns3:cad>
          </ns3:TrackPointExtension>
        </extensions>
      </trkpt>
      <trkpt lat="45.2940242551267147064208984375" lon="-70.83480563946068286895751953125">
        <ele>1145.5999755859375</ele>
        <time>2026-08-21T14:03:22.000Z</time>
        <extensions>
          <ns3:TrackPointExtension>
            <ns3:hr>148</ns3:hr>
            <ns3:cad>0</ns3:cad>
          </ns3:TrackPointExtension>
        </extensions>
      </trkpt>
      <trkpt lat="45.29402048327028751373291015625" lon="-70.8348258398473262786865234375">
        <ele>1145.800048828125</ele>
        <time>2026-08-21T14:03:23.000Z</time>
        <extensions>
          <ns3:TrackPointExtension>
            <ns3:hr>148</ns3:hr>
            <ns3:cad>0</ns3:cad>
          </ns3:TrackPointExtension>
        </extensions>
      </trkpt>
      <trkpt lat="45.29401729814708232879638671875" lon="-70.834843106567859649658203125">
        <ele>1146.199951171875</ele>
        <time>2026-08-21T14:03:24.000Z</time>
        <extensions>
          <ns3:TrackPointExtension>
            <ns3:hr>148</ns3:hr>
            <ns3:cad>0</ns3:cad>
          </ns3:TrackPointExtension>
        </extensions>
      </trkpt>
      <trkpt lat="45.29401126317679882049560546875" lon="-70.83484637551009654998779296875">
        <ele>1146.4000244140625</ele>
        <time>2026-08-21T14:03:25.000Z</time>
        <extensions>
          <ns3:TrackPointExtension>
            <ns3:hr>148</ns3:hr>
            <ns3:cad>0</ns3:cad>
          </ns3:TrackPointExtension>
        </extensions>
      </trkpt>
      <trkpt lat="45.29400975443422794342041015625" lon="-70.83485475741326808929443359375">
        <ele>1146.800048828125</ele>
        <time>2026-08-21T14:03:26.000Z</time>
        <extensions>
          <ns3:TrackPointExtension>
            <ns3:hr>147</ns3:hr>
            <ns3:cad>0</ns3:cad>
          </ns3:TrackPointExtension>
        </extensions>
      </trkpt>
      <trkpt lat="45.294006653130054473876953125" lon="-70.8348586969077587127685546875">
        <ele>1147.199951171875</ele>
        <time>2026-08-21T14:03:27.000Z</time>
        <extensions>
          <ns3:TrackPointExtension>
            <ns3:hr>148</ns3:hr>
            <ns3:cad>0</ns3:cad>
          </ns3:TrackPointExtension>
        </extensions>
      </trkpt>
      <trkpt lat="45.29400371946394443511962890625" lon="-70.83487386815249919891357421875">
        <ele>1147.4000244140625</ele>
        <time>2026-08-21T14:03:28.000Z</time>
        <extensions>
          <ns3:TrackPointExtension>
            <ns3:hr>148</ns3:hr>
            <ns3:cad>0</ns3:cad>
          </ns3:TrackPointExtension>
        </extensions>
      </trkpt>
      <trkpt lat="45.293995924293994903564453125" lon="-70.83489180542528629302978515625">
        <ele>1147.5999755859375</ele>
        <time>2026-08-21T14:03:29.000Z</time>
        <extensions>
          <ns3:TrackPointExtension>
            <ns3:hr>148</ns3:hr>
            <ns3:cad>0</ns3:cad>
          </ns3:TrackPointExtension>
        </extensions>
      </trkpt>
      <trkpt lat="45.293991900980472564697265625" lon="-70.83488727919757366180419921875">
        <ele>1147.800048828125</ele>
        <time>2026-08-21T14:03:30.000Z</time>
        <extensions>
          <ns3:TrackPointExtension>
            <ns3:hr>148</ns3:hr>
            <ns3:cad>0</ns3:cad>
          </ns3:TrackPointExtension>
        </extensions>
      </trkpt>
      <trkpt lat="45.2939860336482524871826171875" lon="-70.83489029668271541595458984375">
        <ele>1148.199951171875</ele>
        <time>2026-08-21T14:03:31.000Z</time>
        <extensions>
          <ns3:TrackPointExtension>
            <ns3:hr>148</ns3:hr>
            <ns3:cad>0</ns3:cad>
          </ns3:TrackPointExtension>
        </extensions>
      </trkpt>
      <trkpt lat="45.29397991485893726348876953125" lon="-70.8348977565765380859375">
        <ele>1148.4000244140625</ele>
        <time>2026-08-21T14:03:32.000Z</time>
        <extensions>
          <ns3:TrackPointExtension>
            <ns3:hr>147</ns3:hr>
            <ns3:cad>0</ns3:cad>
          </ns3:TrackPointExtension>
        </extensions>
      </trkpt>
      <trkpt lat="45.29397555626928806304931640625" lon="-70.83491074852645397186279296875">
        <ele>1148.5999755859375</ele>
        <time>2026-08-21T14:03:33.000Z</time>
        <extensions>
          <ns3:TrackPointExtension>
            <ns3:hr>148</ns3:hr>
            <ns3:cad>0</ns3:cad>
          </ns3:TrackPointExtension>
        </extensions>
      </trkpt>
      <trkpt lat="45.2939803339540958404541015625" lon="-70.8349291048943996429443359375">
        <ele>1149</ele>
        <time>2026-08-21T14:03:34.000Z</time>
        <extensions>
          <ns3:TrackPointExtension>
            <ns3:hr>148</ns3:hr>
            <ns3:cad>0</ns3:cad>
          </ns3:TrackPointExtension>
        </extensions>
      </trkpt>
      <trkpt lat="45.29398041777312755584716796875" lon="-70.8349438570439815521240234375">
        <ele>1149.199951171875</ele>
        <time>2026-08-21T14:03:35.000Z</time>
        <extensions>
          <ns3:TrackPointExtension>
            <ns3:hr>148</ns3:hr>
            <ns3:cad>0</ns3:cad>
          </ns3:TrackPointExtension>
        </extensions>
      </trkpt>
      <trkpt lat="45.29397656209766864776611328125" lon="-70.83494779653847217559814453125">
        <ele>1149.4000244140625</ele>
        <time>2026-08-21T14:03:36.000Z</time>
        <extensions>
          <ns3:TrackPointExtension>
            <ns3:hr>148</ns3:hr>
            <ns3:cad>0</ns3:cad>
          </ns3:TrackPointExtension>
        </extensions>
      </trkpt>
      <trkpt lat="45.293973796069622039794921875" lon="-70.83496573381125926971435546875">
        <ele>1149.5999755859375</ele>
        <time>2026-08-21T14:03:37.000Z</time>
        <extensions>
          <ns3:TrackPointExtension>
            <ns3:hr>148</ns3:hr>
            <ns3:cad>0</ns3:cad>
          </ns3:TrackPointExtension>
        </extensions>
      </trkpt>
      <trkpt lat="45.2939759753644466400146484375" lon="-70.83498266525566577911376953125">
        <ele>1149.5999755859375</ele>
        <time>2026-08-21T14:03:38.000Z</time>
        <extensions>
          <ns3:TrackPointExtension>
            <ns3:hr>148</ns3:hr>
            <ns3:cad>0</ns3:cad>
          </ns3:TrackPointExtension>
        </extensions>
      </trkpt>
      <trkpt lat="45.2939779870212078094482421875" lon="-70.83499104715883731842041015625">
        <ele>1149.5999755859375</ele>
        <time>2026-08-21T14:03:39.000Z</time>
        <extensions>
          <ns3:TrackPointExtension>
            <ns3:hr>148</ns3:hr>
            <ns3:cad>0</ns3:cad>
          </ns3:TrackPointExtension>
        </extensions>
      </trkpt>
      <trkpt lat="45.29397823847830295562744140625" lon="-70.83500898443162441253662109375">
        <ele>1149.5999755859375</ele>
        <time>2026-08-21T14:03:40.000Z</time>
        <extensions>
          <ns3:TrackPointExtension>
            <ns3:hr>148</ns3:hr>
            <ns3:cad>0</ns3:cad>
          </ns3:TrackPointExtension>
        </extensions>
      </trkpt>
      <trkpt lat="45.293979831039905548095703125" lon="-70.83501535467803478240966796875">
        <ele>1149.800048828125</ele>
        <time>2026-08-21T14:03:41.000Z</time>
        <extensions>
          <ns3:TrackPointExtension>
            <ns3:hr>148</ns3:hr>
            <ns3:cad>0</ns3:cad>
          </ns3:TrackPointExtension>
        </extensions>
      </trkpt>
      <trkpt lat="45.29398192651569843292236328125" lon="-70.835016779601573944091796875">
        <ele>1149.800048828125</ele>
        <time>2026-08-21T14:03:42.000Z</time>
        <extensions>
          <ns3:TrackPointExtension>
            <ns3:hr>148</ns3:hr>
            <ns3:cad>0</ns3:cad>
          </ns3:TrackPointExtension>
        </extensions>
      </trkpt>
      <trkpt lat="45.29397840611636638641357421875" lon="-70.8350404165685176849365234375">
        <ele>1150</ele>
        <time>2026-08-21T14:03:43.000Z</time>
        <extensions>
          <ns3:TrackPointExtension>
            <ns3:hr>148</ns3:hr>
            <ns3:cad>0</ns3:cad>
          </ns3:TrackPointExtension>
        </extensions>
      </trkpt>
      <trkpt lat="45.29397455044090747833251953125" lon="-70.83506212569773197174072265625">
        <ele>1150.199951171875</ele>
        <time>2026-08-21T14:03:44.000Z</time>
        <extensions>
          <ns3:TrackPointExtension>
            <ns3:hr>149</ns3:hr>
            <ns3:cad>0</ns3:cad>
          </ns3:TrackPointExtension>
        </extensions>
      </trkpt>
      <trkpt lat="45.29397220350801944732666015625" lon="-70.83508425392210483551025390625">
        <ele>1150.199951171875</ele>
        <time>2026-08-21T14:03:45.000Z</time>
        <extensions>
          <ns3:TrackPointExtension>
            <ns3:hr>149</ns3:hr>
            <ns3:cad>0</ns3:cad>
          </ns3:TrackPointExtension>
        </extensions>
      </trkpt>
      <trkpt lat="45.29397622682154178619384765625" lon="-70.83509431220591068267822265625">
        <ele>1150.4000244140625</ele>
        <time>2026-08-21T14:03:46.000Z</time>
        <extensions>
          <ns3:TrackPointExtension>
            <ns3:hr>150</ns3:hr>
            <ns3:cad>0</ns3:cad>
          </ns3:TrackPointExtension>
        </extensions>
      </trkpt>
      <trkpt lat="45.293979160487651824951171875" lon="-70.835107974708080291748046875">
        <ele>1150.4000244140625</ele>
        <time>2026-08-21T14:03:47.000Z</time>
        <extensions>
          <ns3:TrackPointExtension>
            <ns3:hr>150</ns3:hr>
            <ns3:cad>0</ns3:cad>
          </ns3:TrackPointExtension>
        </extensions>
      </trkpt>
      <trkpt lat="45.29397706501185894012451171875" lon="-70.83511560223996639251708984375">
        <ele>1150.5999755859375</ele>
        <time>2026-08-21T14:03:48.000Z</time>
        <extensions>
          <ns3:TrackPointExtension>
            <ns3:hr>151</ns3:hr>
            <ns3:cad>0</ns3:cad>
          </ns3:TrackPointExtension>
        </extensions>
      </trkpt>
      <trkpt lat="45.2939719520509243011474609375" lon="-70.83511677570641040802001953125">
        <ele>1150.800048828125</ele>
        <time>2026-08-21T14:03:49.000Z</time>
        <extensions>
          <ns3:TrackPointExtension>
            <ns3:hr>151</ns3:hr>
            <ns3:cad>0</ns3:cad>
          </ns3:TrackPointExtension>
        </extensions>
      </trkpt>
      <trkpt lat="45.29397488571703433990478515625" lon="-70.83513488061726093292236328125">
        <ele>1151</ele>
        <time>2026-08-21T14:03:50.000Z</time>
        <extensions>
          <ns3:TrackPointExtension>
            <ns3:hr>151</ns3:hr>
            <ns3:cad>0</ns3:cad>
          </ns3:TrackPointExtension>
        </extensions>
      </trkpt>
      <trkpt lat="45.29398025013506412506103515625" lon="-70.83514376543462276458740234375">
        <ele>1151.4000244140625</ele>
        <time>2026-08-21T14:03:51.000Z</time>
        <extensions>
          <ns3:TrackPointExtension>
            <ns3:hr>151</ns3:hr>
            <ns3:cad>0</ns3:cad>
          </ns3:TrackPointExtension>
        </extensions>
      </trkpt>
      <trkpt lat="45.2939786575734615325927734375" lon="-70.83515550009906291961669921875">
        <ele>1151.5999755859375</ele>
        <time>2026-08-21T14:03:52.000Z</time>
        <extensions>
          <ns3:TrackPointExtension>
            <ns3:hr>151</ns3:hr>
            <ns3:cad>0</ns3:cad>
          </ns3:TrackPointExtension>
        </extensions>
      </trkpt>
      <trkpt lat="45.2939793281257152557373046875" lon="-70.83516907878220081329345703125">
        <ele>1151.5999755859375</ele>
        <time>2026-08-21T14:03:53.000Z</time>
        <extensions>
          <ns3:TrackPointExtension>
            <ns3:hr>151</ns3:hr>
            <ns3:cad>0</ns3:cad>
          </ns3:TrackPointExtension>
        </extensions>
      </trkpt>
      <trkpt lat="45.29398008249700069427490234375" lon="-70.83518785424530506134033203125">
        <ele>1151.5999755859375</ele>
        <time>2026-08-21T14:03:54.000Z</time>
        <extensions>
          <ns3:TrackPointExtension>
            <ns3:hr>151</ns3:hr>
            <ns3:cad>0</ns3:cad>
          </ns3:TrackPointExtension>
        </extensions>
      </trkpt>
      <trkpt lat="45.29397991485893726348876953125" lon="-70.83520176820456981658935546875">
        <ele>1151.4000244140625</ele>
        <time>2026-08-21T14:03:55.000Z</time>
        <extensions>
          <ns3:TrackPointExtension>
            <ns3:hr>150</ns3:hr>
            <ns3:cad>0</ns3:cad>
          </ns3:TrackPointExtension>
        </extensions>
      </trkpt>
      <trkpt lat="45.2939776517450809478759765625" lon="-70.83521266467869281768798828125">
        <ele>1151.4000244140625</ele>
        <time>2026-08-21T14:03:56.000Z</time>
        <extensions>
          <ns3:TrackPointExtension>
            <ns3:hr>150</ns3:hr>
            <ns3:cad>50</ns3:cad>
          </ns3:TrackPointExtension>
        </extensions>
      </trkpt>
      <trkpt lat="45.29397723264992237091064453125" lon="-70.835225991904735565185546875">
        <ele>1151.4000244140625</ele>
        <time>2026-08-21T14:03:57.000Z</time>
        <extensions>
          <ns3:TrackPointExtension>
            <ns3:hr>150</ns3:hr>
            <ns3:cad>50</ns3:cad>
          </ns3:TrackPointExtension>
        </extensions>
      </trkpt>
      <trkpt lat="45.29397941194474697113037109375" lon="-70.835249461233615875244140625">
        <ele>1151.4000244140625</ele>
        <time>2026-08-21T14:03:58.000Z</time>
        <extensions>
          <ns3:TrackPointExtension>
            <ns3:hr>150</ns3:hr>
            <ns3:cad>50</ns3:cad>
          </ns3:TrackPointExtension>
        </extensions>
      </trkpt>
      <trkpt lat="45.29398159123957157135009765625" lon="-70.83526764996349811553955078125">
        <ele>1151.5999755859375</ele>
        <time>2026-08-21T14:03:59.000Z</time>
        <extensions>
          <ns3:TrackPointExtension>
            <ns3:hr>150</ns3:hr>
            <ns3:cad>52</ns3:cad>
          </ns3:TrackPointExtension>
        </extensions>
      </trkpt>
      <trkpt lat="45.2939823456108570098876953125" lon="-70.83528525196015834808349609375">
        <ele>1151.800048828125</ele>
        <time>2026-08-21T14:04:00.000Z</time>
        <extensions>
          <ns3:TrackPointExtension>
            <ns3:hr>150</ns3:hr>
            <ns3:cad>52</ns3:cad>
          </ns3:TrackPointExtension>
        </extensions>
      </trkpt>
      <trkpt lat="45.2939875423908233642578125" lon="-70.83530738018453121185302734375">
        <ele>1152</ele>
        <time>2026-08-21T14:04:01.000Z</time>
        <extensions>
          <ns3:TrackPointExtension>
            <ns3:hr>149</ns3:hr>
            <ns3:cad>52</ns3:cad>
          </ns3:TrackPointExtension>
        </extensions>
      </trkpt>
      <trkpt lat="45.29398955404758453369140625" lon="-70.83532582037150859832763671875">
        <ele>1152</ele>
        <time>2026-08-21T14:04:02.000Z</time>
        <extensions>
          <ns3:TrackPointExtension>
            <ns3:hr>150</ns3:hr>
            <ns3:cad>47</ns3:cad>
          </ns3:TrackPointExtension>
        </extensions>
      </trkpt>
      <trkpt lat="45.29399164952337741851806640625" lon="-70.835349373519420623779296875">
        <ele>1152</ele>
        <time>2026-08-21T14:04:03.000Z</time>
        <extensions>
          <ns3:TrackPointExtension>
            <ns3:hr>150</ns3:hr>
            <ns3:cad>47</ns3:cad>
          </ns3:TrackPointExtension>
        </extensions>
      </trkpt>
      <trkpt lat="45.29399357736110687255859375" lon="-70.8353679813444614410400390625">
        <ele>1152</ele>
        <time>2026-08-21T14:04:04.000Z</time>
        <extensions>
          <ns3:TrackPointExtension>
            <ns3:hr>150</ns3:hr>
            <ns3:cad>48</ns3:cad>
          </ns3:TrackPointExtension>
        </extensions>
      </trkpt>
      <trkpt lat="45.293995253741741180419921875" lon="-70.83538549952208995819091796875">
        <ele>1152.199951171875</ele>
        <time>2026-08-21T14:04:05.000Z</time>
        <extensions>
          <ns3:TrackPointExtension>
            <ns3:hr>149</ns3:hr>
            <ns3:cad>48</ns3:cad>
          </ns3:TrackPointExtension>
        </extensions>
      </trkpt>
      <trkpt lat="45.29399433173239231109619140625" lon="-70.83539756946265697479248046875">
        <ele>1152.199951171875</ele>
        <time>2026-08-21T14:04:06.000Z</time>
        <extensions>
          <ns3:TrackPointExtension>
            <ns3:hr>149</ns3:hr>
            <ns3:cad>48</ns3:cad>
          </ns3:TrackPointExtension>
        </extensions>
      </trkpt>
      <trkpt lat="45.293993912637233734130859375" lon="-70.83539991639554500579833984375">
        <ele>1152.4000244140625</ele>
        <time>2026-08-21T14:04:07.000Z</time>
        <extensions>
          <ns3:TrackPointExtension>
            <ns3:hr>148</ns3:hr>
            <ns3:cad>0</ns3:cad>
          </ns3:TrackPointExtension>
        </extensions>
      </trkpt>
      <trkpt lat="45.29398578219115734100341796875" lon="-70.83541475236415863037109375">
        <ele>1152.5999755859375</ele>
        <time>2026-08-21T14:04:08.000Z</time>
        <extensions>
          <ns3:TrackPointExtension>
            <ns3:hr>148</ns3:hr>
            <ns3:cad>0</ns3:cad>
          </ns3:TrackPointExtension>
        </extensions>
      </trkpt>
      <trkpt lat="45.293980501592159271240234375" lon="-70.83542807959020137786865234375">
        <ele>1152.800048828125</ele>
        <time>2026-08-21T14:04:09.000Z</time>
        <extensions>
          <ns3:TrackPointExtension>
            <ns3:hr>148</ns3:hr>
            <ns3:cad>0</ns3:cad>
          </ns3:TrackPointExtension>
        </extensions>
      </trkpt>
      <trkpt lat="45.29397538863122463226318359375" lon="-70.8354417420923709869384765625">
        <ele>1153</ele>
        <time>2026-08-21T14:04:10.000Z</time>
        <extensions>
          <ns3:TrackPointExtension>
            <ns3:hr>148</ns3:hr>
            <ns3:cad>0</ns3:cad>
          </ns3:TrackPointExtension>
        </extensions>
      </trkpt>
      <trkpt lat="45.29396818019449710845947265625" lon="-70.83544987253844738006591796875">
        <ele>1153</ele>
        <time>2026-08-21T14:04:11.000Z</time>
        <extensions>
          <ns3:TrackPointExtension>
            <ns3:hr>148</ns3:hr>
            <ns3:cad>0</ns3:cad>
          </ns3:TrackPointExtension>
        </extensions>
      </trkpt>
      <trkpt lat="45.29396013356745243072509765625" lon="-70.83545657806098461151123046875">
        <ele>1153</ele>
        <time>2026-08-21T14:04:12.000Z</time>
        <extensions>
          <ns3:TrackPointExtension>
            <ns3:hr>148</ns3:hr>
            <ns3:cad>55</ns3:cad>
          </ns3:TrackPointExtension>
        </extensions>
      </trkpt>
      <trkpt lat="45.2939501591026782989501953125" lon="-70.835468061268329620361328125">
        <ele>1152.800048828125</ele>
        <time>2026-08-21T14:04:13.000Z</time>
        <extensions>
          <ns3:TrackPointExtension>
            <ns3:hr>148</ns3:hr>
            <ns3:cad>55</ns3:cad>
          </ns3:TrackPointExtension>
        </extensions>
      </trkpt>
      <trkpt lat="45.29394102282822132110595703125" lon="-70.83547384478151798248291015625">
        <ele>1152.800048828125</ele>
        <time>2026-08-21T14:04:14.000Z</time>
        <extensions>
          <ns3:TrackPointExtension>
            <ns3:hr>148</ns3:hr>
            <ns3:cad>55</ns3:cad>
          </ns3:TrackPointExtension>
        </extensions>
      </trkpt>
      <trkpt lat="45.2939327247440814971923828125" lon="-70.83548155613243579864501953125">
        <ele>1152.800048828125</ele>
        <time>2026-08-21T14:04:15.000Z</time>
        <extensions>
          <ns3:TrackPointExtension>
            <ns3:hr>148</ns3:hr>
            <ns3:cad>55</ns3:cad>
          </ns3:TrackPointExtension>
        </extensions>
      </trkpt>
      <trkpt lat="45.293916799128055572509765625" lon="-70.8354890160262584686279296875">
        <ele>1152.800048828125</ele>
        <time>2026-08-21T14:04:16.000Z</time>
        <extensions>
          <ns3:TrackPointExtension>
            <ns3:hr>147</ns3:hr>
            <ns3:cad>0</ns3:cad>
          </ns3:TrackPointExtension>
        </extensions>
      </trkpt>
      <trkpt lat="45.2939012087881565093994140625" lon="-70.83549446426331996917724609375">
        <ele>1152.5999755859375</ele>
        <time>2026-08-21T14:04:17.000Z</time>
        <extensions>
          <ns3:TrackPointExtension>
            <ns3:hr>147</ns3:hr>
            <ns3:cad>0</ns3:cad>
          </ns3:TrackPointExtension>
        </extensions>
      </trkpt>
      <trkpt lat="45.29388897120952606201171875" lon="-70.8354933746159076690673828125">
        <ele>1152.5999755859375</ele>
        <time>2026-08-21T14:04:18.000Z</time>
        <extensions>
          <ns3:TrackPointExtension>
            <ns3:hr>146</ns3:hr>
            <ns3:cad>0</ns3:cad>
          </ns3:TrackPointExtension>
        </extensions>
      </trkpt>
      <trkpt lat="45.29387614689767360687255859375" lon="-70.83549790084362030029296875">
        <ele>1152.4000244140625</ele>
        <time>2026-08-21T14:04:19.000Z</time>
        <extensions>
          <ns3:TrackPointExtension>
            <ns3:hr>146</ns3:hr>
            <ns3:cad>55</ns3:cad>
          </ns3:TrackPointExtension>
        </extensions>
      </trkpt>
      <trkpt lat="45.29386214911937713623046875" lon="-70.83550267852842807769775390625">
        <ele>1152.4000244140625</ele>
        <time>2026-08-21T14:04:20.000Z</time>
        <extensions>
          <ns3:TrackPointExtension>
            <ns3:hr>146</ns3:hr>
            <ns3:cad>55</ns3:cad>
          </ns3:TrackPointExtension>
        </extensions>
      </trkpt>
      <trkpt lat="45.2938485704362392425537109375" lon="-70.8355098031461238861083984375">
        <ele>1152.4000244140625</ele>
        <time>2026-08-21T14:04:21.000Z</time>
        <extensions>
          <ns3:TrackPointExtension>
            <ns3:hr>145</ns3:hr>
            <ns3:cad>55</ns3:cad>
          </ns3:TrackPointExtension>
        </extensions>
      </trkpt>
      <trkpt lat="45.29383205808699131011962890625" lon="-70.83551466464996337890625">
        <ele>1152.199951171875</ele>
        <time>2026-08-21T14:04:22.000Z</time>
        <extensions>
          <ns3:TrackPointExtension>
            <ns3:hr>145</ns3:hr>
            <ns3:cad>55</ns3:cad>
          </ns3:TrackPointExtension>
        </extensions>
      </trkpt>
      <trkpt lat="45.2938160486519336700439453125" lon="-70.835519693791866302490234375">
        <ele>1152.199951171875</ele>
        <time>2026-08-21T14:04:23.000Z</time>
        <extensions>
          <ns3:TrackPointExtension>
            <ns3:hr>144</ns3:hr>
            <ns3:cad>55</ns3:cad>
          </ns3:TrackPointExtension>
        </extensions>
      </trkpt>
      <trkpt lat="45.29380188323557376861572265625" lon="-70.83552346564829349517822265625">
        <ele>1152</ele>
        <time>2026-08-21T14:04:24.000Z</time>
        <extensions>
          <ns3:TrackPointExtension>
            <ns3:hr>144</ns3:hr>
            <ns3:cad>55</ns3:cad>
          </ns3:TrackPointExtension>
        </extensions>
      </trkpt>
      <trkpt lat="45.293786711990833282470703125" lon="-70.83553142845630645751953125">
        <ele>1152</ele>
        <time>2026-08-21T14:04:25.000Z</time>
        <extensions>
          <ns3:TrackPointExtension>
            <ns3:hr>144</ns3:hr>
            <ns3:cad>55</ns3:cad>
          </ns3:TrackPointExtension>
        </extensions>
      </trkpt>
      <trkpt lat="45.2937756478786468505859375" lon="-70.835541822016239166259765625">
        <ele>1152</ele>
        <time>2026-08-21T14:04:26.000Z</time>
        <extensions>
          <ns3:TrackPointExtension>
            <ns3:hr>143</ns3:hr>
            <ns3:cad>57</ns3:cad>
          </ns3:TrackPointExtension>
        </extensions>
      </trkpt>
      <trkpt lat="45.29377355240285396575927734375" lon="-70.83555690944194793701171875">
        <ele>1152.199951171875</ele>
        <time>2026-08-21T14:04:27.000Z</time>
        <extensions>
          <ns3:TrackPointExtension>
            <ns3:hr>143</ns3:hr>
            <ns3:cad>57</ns3:cad>
          </ns3:TrackPointExtension>
        </extensions>
      </trkpt>
      <trkpt lat="45.29377120546996593475341796875" lon="-70.83557258360087871551513671875">
        <ele>1152.199951171875</ele>
        <time>2026-08-21T14:04:28.000Z</time>
        <extensions>
          <ns3:TrackPointExtension>
            <ns3:hr>143</ns3:hr>
            <ns3:cad>57</ns3:cad>
          </ns3:TrackPointExtension>
        </extensions>
      </trkpt>
      <trkpt lat="45.29377087019383907318115234375" lon="-70.83557543344795703887939453125">
        <ele>1152.4000244140625</ele>
        <time>2026-08-21T14:04:29.000Z</time>
        <extensions>
          <ns3:TrackPointExtension>
            <ns3:hr>143</ns3:hr>
            <ns3:cad>57</ns3:cad>
          </ns3:TrackPointExtension>
        </extensions>
      </trkpt>
      <trkpt lat="45.29376936145126819610595703125" lon="-70.8355832286179065704345703125">
        <ele>1152.4000244140625</ele>
        <time>2026-08-21T14:04:30.000Z</time>
        <extensions>
          <ns3:TrackPointExtension>
            <ns3:hr>144</ns3:hr>
            <ns3:cad>57</ns3:cad>
          </ns3:TrackPointExtension>
        </extensions>
      </trkpt>
      <trkpt lat="45.29376852326095104217529296875" lon="-70.835587084293365478515625">
        <ele>1152.4000244140625</ele>
        <time>2026-08-21T14:04:31.000Z</time>
        <extensions>
          <ns3:TrackPointExtension>
            <ns3:hr>143</ns3:hr>
            <ns3:cad>0</ns3:cad>
          </ns3:TrackPointExtension>
        </extensions>
      </trkpt>
      <trkpt lat="45.2937684394419193267822265625" lon="-70.83558750338852405548095703125">
        <ele>1152.5999755859375</ele>
        <time>2026-08-21T14:04:32.000Z</time>
        <extensions>
          <ns3:TrackPointExtension>
            <ns3:hr>143</ns3:hr>
            <ns3:cad>0</ns3:cad>
          </ns3:TrackPointExtension>
        </extensions>
      </trkpt>
      <trkpt lat="45.2937684394419193267822265625" lon="-70.83558750338852405548095703125">
        <ele>1152.4000244140625</ele>
        <time>2026-08-21T14:04:33.000Z</time>
        <extensions>
          <ns3:TrackPointExtension>
            <ns3:hr>144</ns3:hr>
            <ns3:cad>0</ns3:cad>
          </ns3:TrackPointExtension>
        </extensions>
      </trkpt>
      <trkpt lat="45.2937684394419193267822265625" lon="-70.83558750338852405548095703125">
        <ele>1152.4000244140625</ele>
        <time>2026-08-21T14:04:34.000Z</time>
        <extensions>
          <ns3:TrackPointExtension>
            <ns3:hr>143</ns3:hr>
            <ns3:cad>0</ns3:cad>
          </ns3:TrackPointExtension>
        </extensions>
      </trkpt>
      <trkpt lat="45.2937684394419193267822265625" lon="-70.83558750338852405548095703125">
        <ele>1152.5999755859375</ele>
        <time>2026-08-21T14:04:35.000Z</time>
        <extensions>
          <ns3:TrackPointExtension>
            <ns3:hr>143</ns3:hr>
            <ns3:cad>0</ns3:cad>
          </ns3:TrackPointExtension>
        </extensions>
      </trkpt>
      <trkpt lat="45.29376818798482418060302734375" lon="-70.835588090121746063232421875">
        <ele>1152.5999755859375</ele>
        <time>2026-08-21T14:04:36.000Z</time>
        <extensions>
          <ns3:TrackPointExtension>
            <ns3:hr>143</ns3:hr>
            <ns3:cad>0</ns3:cad>
          </ns3:TrackPointExtension>
        </extensions>
      </trkpt>
      <trkpt lat="45.29375527985394001007080078125" lon="-70.8355964720249176025390625">
        <ele>1152.5999755859375</ele>
        <time>2026-08-21T14:04:37.000Z</time>
        <extensions>
          <ns3:TrackPointExtension>
            <ns3:hr>144</ns3:hr>
            <ns3:cad>0</ns3:cad>
          </ns3:TrackPointExtension>
        </extensions>
      </trkpt>
      <trkpt lat="45.29374572448432445526123046875" lon="-70.83560510538518428802490234375">
        <ele>1152.800048828125</ele>
        <time>2026-08-21T14:04:38.000Z</time>
        <extensions>
          <ns3:TrackPointExtension>
            <ns3:hr>143</ns3:hr>
            <ns3:cad>0</ns3:cad>
          </ns3:TrackPointExtension>
        </extensions>
      </trkpt>
      <trkpt lat="45.29374815523624420166015625" lon="-70.83560845814645290374755859375">
        <ele>1152.800048828125</ele>
        <time>2026-08-21T14:04:39.000Z</time>
        <extensions>
          <ns3:TrackPointExtension>
            <ns3:hr>143</ns3:hr>
            <ns3:cad>0</ns3:cad>
          </ns3:TrackPointExtension>
        </extensions>
      </trkpt>
      <trkpt lat="45.29375175945460796356201171875" lon="-70.8356177620589733123779296875">
        <ele>1152.800048828125</ele>
        <time>2026-08-21T14:04:40.000Z</time>
        <extensions>
          <ns3:TrackPointExtension>
            <ns3:hr>142</ns3:hr>
            <ns3:cad>0</ns3:cad>
          </ns3:TrackPointExtension>
        </extensions>
      </trkpt>
      <trkpt lat="45.29376349411904811859130859375" lon="-70.835620276629924774169921875">
        <ele>1152.800048828125</ele>
        <time>2026-08-21T14:04:41.000Z</time>
        <extensions>
          <ns3:TrackPointExtension>
            <ns3:hr>142</ns3:hr>
            <ns3:cad>0</ns3:cad>
          </ns3:TrackPointExtension>
        </extensions>
      </trkpt>
      <trkpt lat="45.2937674336135387420654296875" lon="-70.83562270738184452056884765625">
        <ele>1152.800048828125</ele>
        <time>2026-08-21T14:04:42.000Z</time>
        <extensions>
          <ns3:TrackPointExtension>
            <ns3:hr>142</ns3:hr>
            <ns3:cad>0</ns3:cad>
          </ns3:TrackPointExtension>
        </extensions>
      </trkpt>
      <trkpt lat="45.29376802034676074981689453125" lon="-70.83562522195279598236083984375">
        <ele>1152.800048828125</ele>
        <time>2026-08-21T14:04:43.000Z</time>
        <extensions>
          <ns3:TrackPointExtension>
            <ns3:hr>142</ns3:hr>
            <ns3:cad>0</ns3:cad>
          </ns3:TrackPointExtension>
        </extensions>
      </trkpt>
      <trkpt lat="45.29377338476479053497314453125" lon="-70.83562924526631832122802734375">
        <ele>1153</ele>
        <time>2026-08-21T14:04:44.000Z</time>
        <extensions>
          <ns3:TrackPointExtension>
            <ns3:hr>142</ns3:hr>
            <ns3:cad>0</ns3:cad>
          </ns3:TrackPointExtension>
        </extensions>
      </trkpt>
      <trkpt lat="45.2937758155167102813720703125" lon="-70.835631005465984344482421875">
        <ele>1153</ele>
        <time>2026-08-21T14:04:45.000Z</time>
        <extensions>
          <ns3:TrackPointExtension>
            <ns3:hr>142</ns3:hr>
            <ns3:cad>0</ns3:cad>
          </ns3:TrackPointExtension>
        </extensions>
      </trkpt>
      <trkpt lat="45.29377363622188568115234375" lon="-70.8356331847608089447021484375">
        <ele>1153</ele>
        <time>2026-08-21T14:04:46.000Z</time>
        <extensions>
          <ns3:TrackPointExtension>
            <ns3:hr>141</ns3:hr>
            <ns3:cad>0</ns3:cad>
          </ns3:TrackPointExtension>
        </extensions>
      </trkpt>
      <trkpt lat="45.29377187602221965789794921875" lon="-70.83563561551272869110107421875">
        <ele>1153</ele>
        <time>2026-08-21T14:04:47.000Z</time>
        <extensions>
          <ns3:TrackPointExtension>
            <ns3:hr>138</ns3:hr>
            <ns3:cad>0</ns3:cad>
          </ns3:TrackPointExtension>
        </extensions>
      </trkpt>
      <trkpt lat="45.29377170838415622711181640625" lon="-70.8356355316936969757080078125">
        <ele>1153</ele>
        <time>2026-08-21T14:04:48.000Z</time>
        <extensions>
          <ns3:TrackPointExtension>
            <ns3:hr>136</ns3:hr>
            <ns3:cad>0</ns3:cad>
          </ns3:TrackPointExtension>
        </extensions>
      </trkpt>
      <trkpt lat="45.29377170838415622711181640625" lon="-70.8356355316936969757080078125">
        <ele>1153</ele>
        <time>2026-08-21T14:04:49.000Z</time>
        <extensions>
          <ns3:TrackPointExtension>
            <ns3:hr>136</ns3:hr>
            <ns3:cad>0</ns3:cad>
          </ns3:TrackPointExtension>
        </extensions>
      </trkpt>
      <trkpt lat="45.293771289288997650146484375" lon="-70.83563469350337982177734375">
        <ele>1153</ele>
        <time>2026-08-21T14:04:50.000Z</time>
        <extensions>
          <ns3:TrackPointExtension>
            <ns3:hr>136</ns3:hr>
            <ns3:cad>0</ns3:cad>
          </ns3:TrackPointExtension>
        </extensions>
      </trkpt>
      <trkpt lat="45.29376558959484100341796875" lon="-70.83564215339720249176025390625">
        <ele>1153</ele>
        <time>2026-08-21T14:04:51.000Z</time>
        <extensions>
          <ns3:TrackPointExtension>
            <ns3:hr>136</ns3:hr>
            <ns3:cad>0</ns3:cad>
          </ns3:TrackPointExtension>
        </extensions>
      </trkpt>
      <trkpt lat="45.2937613986432552337646484375" lon="-70.8356496132910251617431640625">
        <ele>1153</ele>
        <time>2026-08-21T14:04:52.000Z</time>
        <extensions>
          <ns3:TrackPointExtension>
            <ns3:hr>135</ns3:hr>
            <ns3:cad>0</ns3:cad>
          </ns3:TrackPointExtension>
        </extensions>
      </trkpt>
      <trkpt lat="45.29376089572906494140625" lon="-70.8356579951941967010498046875">
        <ele>1152.800048828125</ele>
        <time>2026-08-21T14:04:53.000Z</time>
        <extensions>
          <ns3:TrackPointExtension>
            <ns3:hr>135</ns3:hr>
            <ns3:cad>0</ns3:cad>
          </ns3:TrackPointExtension>
        </extensions>
      </trkpt>
      <trkpt lat="45.29376399703323841094970703125" lon="-70.83566813729703426361083984375">
        <ele>1153</ele>
        <time>2026-08-21T14:04:54.000Z</time>
        <extensions>
          <ns3:TrackPointExtension>
            <ns3:hr>135</ns3:hr>
            <ns3:cad>0</ns3:cad>
          </ns3:TrackPointExtension>
        </extensions>
      </trkpt>
      <trkpt lat="45.2937640808522701263427734375" lon="-70.83567685447633266448974609375">
        <ele>1153</ele>
        <time>2026-08-21T14:04:55.000Z</time>
        <extensions>
          <ns3:TrackPointExtension>
            <ns3:hr>134</ns3:hr>
            <ns3:cad>0</ns3:cad>
          </ns3:TrackPointExtension>
        </extensions>
      </trkpt>
      <trkpt lat="45.2937647514045238494873046875" lon="-70.83568188361823558807373046875">
        <ele>1153</ele>
        <time>2026-08-21T14:04:56.000Z</time>
        <extensions>
          <ns3:TrackPointExtension>
            <ns3:hr>134</ns3:hr>
            <ns3:cad>0</ns3:cad>
          </ns3:TrackPointExtension>
        </extensions>
      </trkpt>
      <trkpt lat="45.29376827180385589599609375" lon="-70.83568506874144077301025390625">
        <ele>1153</ele>
        <time>2026-08-21T14:04:57.000Z</time>
        <extensions>
          <ns3:TrackPointExtension>
            <ns3:hr>134</ns3:hr>
            <ns3:cad>0</ns3:cad>
          </ns3:TrackPointExtension>
        </extensions>
      </trkpt>
      <trkpt lat="45.293768607079982757568359375" lon="-70.835689343512058258056640625">
        <ele>1153</ele>
        <time>2026-08-21T14:04:58.000Z</time>
        <extensions>
          <ns3:TrackPointExtension>
            <ns3:hr>133</ns3:hr>
            <ns3:cad>0</ns3:cad>
          </ns3:TrackPointExtension>
        </extensions>
      </trkpt>
      <trkpt lat="45.29376802034676074981689453125" lon="-70.83569060079753398895263671875">
        <ele>1153</ele>
        <time>2026-08-21T14:04:59.000Z</time>
        <extensions>
          <ns3:TrackPointExtension>
            <ns3:hr>132</ns3:hr>
            <ns3:cad>0</ns3:cad>
          </ns3:TrackPointExtension>
        </extensions>
      </trkpt>
      <trkpt lat="45.29376802034676074981689453125" lon="-70.83569060079753398895263671875">
        <ele>1153</ele>
        <time>2026-08-21T14:05:00.000Z</time>
        <extensions>
          <ns3:TrackPointExtension>
            <ns3:hr>131</ns3:hr>
            <ns3:cad>0</ns3:cad>
          </ns3:TrackPointExtension>
        </extensions>
      </trkpt>
      <trkpt lat="45.29376802034676074981689453125" lon="-70.83569060079753398895263671875">
        <ele>1153</ele>
        <time>2026-08-21T14:05:01.000Z</time>
        <extensions>
          <ns3:TrackPointExtension>
            <ns3:hr>130</ns3:hr>
            <ns3:cad>0</ns3:cad>
          </ns3:TrackPointExtension>
        </extensions>
      </trkpt>
      <trkpt lat="45.29376852326095104217529296875" lon="-70.83569143898785114288330078125">
        <ele>1153</ele>
        <time>2026-08-21T14:05:02.000Z</time>
        <extensions>
          <ns3:TrackPointExtension>
            <ns3:hr>130</ns3:hr>
            <ns3:cad>0</ns3:cad>
          </ns3:TrackPointExtension>
        </extensions>
      </trkpt>
      <trkpt lat="45.2937758155167102813720703125" lon="-70.8356992341578006744384765625">
        <ele>1153</ele>
        <time>2026-08-21T14:05:03.000Z</time>
        <extensions>
          <ns3:TrackPointExtension>
            <ns3:hr>130</ns3:hr>
            <ns3:cad>0</ns3:cad>
          </ns3:TrackPointExtension>
        </extensions>
      </trkpt>
      <trkpt lat="45.293782688677310943603515625" lon="-70.83570753224194049835205078125">
        <ele>1153</ele>
        <time>2026-08-21T14:05:04.000Z</time>
        <extensions>
          <ns3:TrackPointExtension>
            <ns3:hr>130</ns3:hr>
            <ns3:cad>0</ns3:cad>
          </ns3:TrackPointExtension>
        </extensions>
      </trkpt>
      <trkpt lat="45.29379048384726047515869140625" lon="-70.835718177258968353271484375">
        <ele>1153</ele>
        <time>2026-08-21T14:05:05.000Z</time>
        <extensions>
          <ns3:TrackPointExtension>
            <ns3:hr>129</ns3:hr>
            <ns3:cad>0</ns3:cad>
          </ns3:TrackPointExtension>
        </extensions>
      </trkpt>
      <trkpt lat="45.293795429170131683349609375" lon="-70.83572614006698131561279296875">
        <ele>1153</ele>
        <time>2026-08-21T14:05:06.000Z</time>
        <extensions>
          <ns3:TrackPointExtension>
            <ns3:hr>130</ns3:hr>
            <ns3:cad>0</ns3:cad>
          </ns3:TrackPointExtension>
        </extensions>
      </trkpt>
      <trkpt lat="45.2938039787113666534423828125" lon="-70.8357290737330913543701171875">
        <ele>1153</ele>
        <time>2026-08-21T14:05:07.000Z</time>
        <extensions>
          <ns3:TrackPointExtension>
            <ns3:hr>130</ns3:hr>
            <ns3:cad>0</ns3:cad>
          </ns3:TrackPointExtension>
        </extensions>
      </trkpt>
      <trkpt lat="45.2938133664429187774658203125" lon="-70.83573527634143829345703125">
        <ele>1153.199951171875</ele>
        <time>2026-08-21T14:05:08.000Z</time>
        <extensions>
          <ns3:TrackPointExtension>
            <ns3:hr>130</ns3:hr>
            <ns3:cad>52</ns3:cad>
          </ns3:TrackPointExtension>
        </extensions>
      </trkpt>
      <trkpt lat="45.29382082633674144744873046875" lon="-70.8357386291027069091796875">
        <ele>1153.199951171875</ele>
        <time>2026-08-21T14:05:09.000Z</time>
        <extensions>
          <ns3:TrackPointExtension>
            <ns3:hr>129</ns3:hr>
            <ns3:cad>52</ns3:cad>
          </ns3:TrackPointExtension>
        </extensions>
      </trkpt>
      <trkpt lat="45.29382870532572269439697265625" lon="-70.83574122749269008636474609375">
        <ele>1153.199951171875</ele>
        <time>2026-08-21T14:05:10.000Z</time>
        <extensions>
          <ns3:TrackPointExtension>
            <ns3:hr>130</ns3:hr>
            <ns3:cad>0</ns3:cad>
          </ns3:TrackPointExtension>
        </extensions>
      </trkpt>
      <trkpt lat="45.2938344888389110565185546875" lon="-70.83574491553008556365966796875">
        <ele>1153.4000244140625</ele>
        <time>2026-08-21T14:05:11.000Z</time>
        <extensions>
          <ns3:TrackPointExtension>
            <ns3:hr>130</ns3:hr>
            <ns3:cad>0</ns3:cad>
          </ns3:TrackPointExtension>
        </extensions>
      </trkpt>
      <trkpt lat="45.2938408590853214263916015625" lon="-70.83574642427265644073486328125">
        <ele>1153.4000244140625</ele>
        <time>2026-08-21T14:05:12.000Z</time>
        <extensions>
          <ns3:TrackPointExtension>
            <ns3:hr>130</ns3:hr>
            <ns3:cad>46</ns3:cad>
          </ns3:TrackPointExtension>
        </extensions>
      </trkpt>
      <trkpt lat="45.29384966008365154266357421875" lon="-70.8357451669871807098388671875">
        <ele>1153.4000244140625</ele>
        <time>2026-08-21T14:05:13.000Z</time>
        <extensions>
          <ns3:TrackPointExtension>
            <ns3:hr>129</ns3:hr>
            <ns3:cad>46</ns3:cad>
          </ns3:TrackPointExtension>
        </extensions>
      </trkpt>
      <trkpt lat="45.29385888017714023590087890625" lon="-70.835744328796863555908203125">
        <ele>1153.4000244140625</ele>
        <time>2026-08-21T14:05:14.000Z</time>
        <extensions>
          <ns3:TrackPointExtension>
            <ns3:hr>129</ns3:hr>
            <ns3:cad>46</ns3:cad>
          </ns3:TrackPointExtension>
        </extensions>
      </trkpt>
      <trkpt lat="45.29386944137513637542724609375" lon="-70.8357414789497852325439453125">
        <ele>1153.5999755859375</ele>
        <time>2026-08-21T14:05:15.000Z</time>
        <extensions>
          <ns3:TrackPointExtension>
            <ns3:hr>130</ns3:hr>
            <ns3:cad>47</ns3:cad>
          </ns3:TrackPointExtension>
        </extensions>
      </trkpt>
      <trkpt lat="45.2938780747354030609130859375" lon="-70.8357414789497852325439453125">
        <ele>1153.5999755859375</ele>
        <time>2026-08-21T14:05:16.000Z</time>
        <extensions>
          <ns3:TrackPointExtension>
            <ns3:hr>129</ns3:hr>
            <ns3:cad>47</ns3:cad>
          </ns3:TrackPointExtension>
        </extensions>
      </trkpt>
      <trkpt lat="45.2938864566385746002197265625" lon="-70.835740976035594940185546875">
        <ele>1153.800048828125</ele>
        <time>2026-08-21T14:05:17.000Z</time>
        <extensions>
          <ns3:TrackPointExtension>
            <ns3:hr>129</ns3:hr>
            <ns3:cad>48</ns3:cad>
          </ns3:TrackPointExtension>
        </extensions>
      </trkpt>
      <trkpt lat="45.29389408417046070098876953125" lon="-70.835740976035594940185546875">
        <ele>1153.800048828125</ele>
        <time>2026-08-21T14:05:18.000Z</time>
        <extensions>
          <ns3:TrackPointExtension>
            <ns3:hr>128</ns3:hr>
            <ns3:cad>47</ns3:cad>
          </ns3:TrackPointExtension>
        </extensions>
      </trkpt>
      <trkpt lat="45.29390179552137851715087890625" lon="-70.8357428200542926788330078125">
        <ele>1154</ele>
        <time>2026-08-21T14:05:19.000Z</time>
        <extensions>
          <ns3:TrackPointExtension>
            <ns3:hr>127</ns3:hr>
            <ns3:cad>47</ns3:cad>
          </ns3:TrackPointExtension>
        </extensions>
      </trkpt>
      <trkpt lat="45.29391101561486721038818359375" lon="-70.8357451669871807098388671875">
        <ele>1154</ele>
        <time>2026-08-21T14:05:20.000Z</time>
        <extensions>
          <ns3:TrackPointExtension>
            <ns3:hr>127</ns3:hr>
            <ns3:cad>47</ns3:cad>
          </ns3:TrackPointExtension>
        </extensions>
      </trkpt>
      <trkpt lat="45.29391587711870670318603515625" lon="-70.83574960939586162567138671875">
        <ele>1154.199951171875</ele>
        <time>2026-08-21T14:05:21.000Z</time>
        <extensions>
          <ns3:TrackPointExtension>
            <ns3:hr>126</ns3:hr>
            <ns3:cad>47</ns3:cad>
          </ns3:TrackPointExtension>
        </extensions>
      </trkpt>
      <trkpt lat="45.29392425902187824249267578125" lon="-70.83575849421322345733642578125">
        <ele>1154.5999755859375</ele>
        <time>2026-08-21T14:05:22.000Z</time>
        <extensions>
          <ns3:TrackPointExtension>
            <ns3:hr>126</ns3:hr>
            <ns3:cad>48</ns3:cad>
          </ns3:TrackPointExtension>
        </extensions>
      </trkpt>
      <trkpt lat="45.293935239315032958984375" lon="-70.8357605896890163421630859375">
        <ele>1154.800048828125</ele>
        <time>2026-08-21T14:05:23.000Z</time>
        <extensions>
          <ns3:TrackPointExtension>
            <ns3:hr>126</ns3:hr>
            <ns3:cad>48</ns3:cad>
          </ns3:TrackPointExtension>
        </extensions>
      </trkpt>
      <trkpt lat="45.29394471086561679840087890625" lon="-70.8357627689838409423828125">
        <ele>1155</ele>
        <time>2026-08-21T14:05:24.000Z</time>
        <extensions>
          <ns3:TrackPointExtension>
            <ns3:hr>125</ns3:hr>
            <ns3:cad>48</ns3:cad>
          </ns3:TrackPointExtension>
        </extensions>
      </trkpt>
      <trkpt lat="45.29395191930234432220458984375" lon="-70.83576452918350696563720703125">
        <ele>1155.199951171875</ele>
        <time>2026-08-21T14:05:25.000Z</time>
        <extensions>
          <ns3:TrackPointExtension>
            <ns3:hr>125</ns3:hr>
            <ns3:cad>46</ns3:cad>
          </ns3:TrackPointExtension>
        </extensions>
      </trkpt>
      <trkpt lat="45.2939660847187042236328125" lon="-70.83577240817248821258544921875">
        <ele>1155.4000244140625</ele>
        <time>2026-08-21T14:05:26.000Z</time>
        <extensions>
          <ns3:TrackPointExtension>
            <ns3:hr>125</ns3:hr>
            <ns3:cad>46</ns3:cad>
          </ns3:TrackPointExtension>
        </extensions>
      </trkpt>
      <trkpt lat="45.29397890903055667877197265625" lon="-70.83578011952340602874755859375">
        <ele>1155.4000244140625</ele>
        <time>2026-08-21T14:05:27.000Z</time>
        <extensions>
          <ns3:TrackPointExtension>
            <ns3:hr>125</ns3:hr>
            <ns3:cad>50</ns3:cad>
          </ns3:TrackPointExtension>
        </extensions>
      </trkpt>
      <trkpt lat="45.29399164952337741851806640625" lon="-70.8357895910739898681640625">
        <ele>1155.5999755859375</ele>
        <time>2026-08-21T14:05:28.000Z</time>
        <extensions>
          <ns3:TrackPointExtension>
            <ns3:hr>125</ns3:hr>
            <ns3:cad>50</ns3:cad>
          </ns3:TrackPointExtension>
        </extensions>
      </trkpt>
      <trkpt lat="45.2940058149397373199462890625" lon="-70.83580233156681060791015625">
        <ele>1155.800048828125</ele>
        <time>2026-08-21T14:05:29.000Z</time>
        <extensions>
          <ns3:TrackPointExtension>
            <ns3:hr>125</ns3:hr>
            <ns3:cad>50</ns3:cad>
          </ns3:TrackPointExtension>
        </extensions>
      </trkpt>
      <trkpt lat="45.2940170466899871826171875" lon="-70.835809372365474700927734375">
        <ele>1156</ele>
        <time>2026-08-21T14:05:30.000Z</time>
        <extensions>
          <ns3:TrackPointExtension>
            <ns3:hr>124</ns3:hr>
            <ns3:cad>50</ns3:cad>
          </ns3:TrackPointExtension>
        </extensions>
      </trkpt>
      <trkpt lat="45.294032134115695953369140625" lon="-70.835817754268646240234375">
        <ele>1156.199951171875</ele>
        <time>2026-08-21T14:05:31.000Z</time>
        <extensions>
          <ns3:TrackPointExtension>
            <ns3:hr>123</ns3:hr>
            <ns3:cad>50</ns3:cad>
          </ns3:TrackPointExtension>
        </extensions>
      </trkpt>
      <trkpt lat="45.29404629953205585479736328125" lon="-70.83582404069602489471435546875">
        <ele>1156.5999755859375</ele>
        <time>2026-08-21T14:05:32.000Z</time>
        <extensions>
          <ns3:TrackPointExtension>
            <ns3:hr>124</ns3:hr>
            <ns3:cad>50</ns3:cad>
          </ns3:TrackPointExtension>
        </extensions>
      </trkpt>
      <trkpt lat="45.2940641529858112335205078125" lon="-70.83583493717014789581298828125">
        <ele>1156.800048828125</ele>
        <time>2026-08-21T14:05:33.000Z</time>
        <extensions>
          <ns3:TrackPointExtension>
            <ns3:hr>125</ns3:hr>
            <ns3:cad>0</ns3:cad>
          </ns3:TrackPointExtension>
        </extensions>
      </trkpt>
      <trkpt lat="45.29408116824924945831298828125" lon="-70.8358467556536197662353515625">
        <ele>1157</ele>
        <time>2026-08-21T14:05:34.000Z</time>
        <extensions>
          <ns3:TrackPointExtension>
            <ns3:hr>127</ns3:hr>
            <ns3:cad>0</ns3:cad>
          </ns3:TrackPointExtension>
        </extensions>
      </trkpt>
      <trkpt lat="45.29409642331302165985107421875" lon="-70.835856981575489044189453125">
        <ele>1157.199951171875</ele>
        <time>2026-08-21T14:05:35.000Z</time>
        <extensions>
          <ns3:TrackPointExtension>
            <ns3:hr>129</ns3:hr>
            <ns3:cad>0</ns3:cad>
          </ns3:TrackPointExtension>
        </extensions>
      </trkpt>
      <trkpt lat="45.29411385767161846160888671875" lon="-70.83586863242089748382568359375">
        <ele>1157.4000244140625</ele>
        <time>2026-08-21T14:05:36.000Z</time>
        <extensions>
          <ns3:TrackPointExtension>
            <ns3:hr>130</ns3:hr>
            <ns3:cad>0</ns3:cad>
          </ns3:TrackPointExtension>
        </extensions>
      </trkpt>
      <trkpt lat="45.294130034744739532470703125" lon="-70.83588019944727420806884765625">
        <ele>1157.4000244140625</ele>
        <time>2026-08-21T14:05:37.000Z</time>
        <extensions>
          <ns3:TrackPointExtension>
            <ns3:hr>131</ns3:hr>
            <ns3:cad>0</ns3:cad>
          </ns3:TrackPointExtension>
        </extensions>
      </trkpt>
      <trkpt lat="45.294144116342067718505859375" lon="-70.8358990587294101715087890625">
        <ele>1157.5999755859375</ele>
        <time>2026-08-21T14:05:38.000Z</time>
        <extensions>
          <ns3:TrackPointExtension>
            <ns3:hr>132</ns3:hr>
            <ns3:cad>0</ns3:cad>
          </ns3:TrackPointExtension>
        </extensions>
      </trkpt>
      <trkpt lat="45.294156856834888458251953125" lon="-70.83591557107865810394287109375">
        <ele>1157.5999755859375</ele>
        <time>2026-08-21T14:05:39.000Z</time>
        <extensions>
          <ns3:TrackPointExtension>
            <ns3:hr>133</ns3:hr>
            <ns3:cad>71</ns3:cad>
          </ns3:TrackPointExtension>
        </extensions>
      </trkpt>
      <trkpt lat="45.29417035169899463653564453125" lon="-70.8359325863420963287353515625">
        <ele>1157.5999755859375</ele>
        <time>2026-08-21T14:05:40.000Z</time>
        <extensions>
          <ns3:TrackPointExtension>
            <ns3:hr>133</ns3:hr>
            <ns3:cad>71</ns3:cad>
          </ns3:TrackPointExtension>
        </extensions>
      </trkpt>
      <trkpt lat="45.2941855229437351226806640625" lon="-70.83594541065394878387451171875">
        <ele>1157.5999755859375</ele>
        <time>2026-08-21T14:05:41.000Z</time>
        <extensions>
          <ns3:TrackPointExtension>
            <ns3:hr>133</ns3:hr>
            <ns3:cad>71</ns3:cad>
          </ns3:TrackPointExtension>
        </extensions>
      </trkpt>
      <trkpt lat="45.29420077800750732421875" lon="-70.835959576070308685302734375">
        <ele>1157.800048828125</ele>
        <time>2026-08-21T14:05:42.000Z</time>
        <extensions>
          <ns3:TrackPointExtension>
            <ns3:hr>134</ns3:hr>
            <ns3:cad>74</ns3:cad>
          </ns3:TrackPointExtension>
        </extensions>
      </trkpt>
      <trkpt lat="45.29422022402286529541015625" lon="-70.83597390912473201751708984375">
        <ele>1157.5999755859375</ele>
        <time>2026-08-21T14:05:43.000Z</time>
        <extensions>
          <ns3:TrackPointExtension>
            <ns3:hr>134</ns3:hr>
            <ns3:cad>74</ns3:cad>
          </ns3:TrackPointExtension>
        </extensions>
      </trkpt>
      <trkpt lat="45.2942438609898090362548828125" lon="-70.835989415645599365234375">
        <ele>1157.800048828125</ele>
        <time>2026-08-21T14:05:44.000Z</time>
        <extensions>
          <ns3:TrackPointExtension>
            <ns3:hr>135</ns3:hr>
            <ns3:cad>76</ns3:cad>
          </ns3:TrackPointExtension>
        </extensions>
      </trkpt>
      <trkpt lat="45.29426724649965763092041015625" lon="-70.8360043354332447052001953125">
        <ele>1157.800048828125</ele>
        <time>2026-08-21T14:05:45.000Z</time>
        <extensions>
          <ns3:TrackPointExtension>
            <ns3:hr>135</ns3:hr>
            <ns3:cad>76</ns3:cad>
          </ns3:TrackPointExtension>
        </extensions>
      </trkpt>
      <trkpt lat="45.2942837588489055633544921875" lon="-70.83601154386997222900390625">
        <ele>1157.800048828125</ele>
        <time>2026-08-21T14:05:46.000Z</time>
        <extensions>
          <ns3:TrackPointExtension>
            <ns3:hr>136</ns3:hr>
            <ns3:cad>76</ns3:cad>
          </ns3:TrackPointExtension>
        </extensions>
      </trkpt>
      <trkpt lat="45.2943045459687709808349609375" lon="-70.83601414225995540618896484375">
        <ele>1157.800048828125</ele>
        <time>2026-08-21T14:05:47.000Z</time>
        <extensions>
          <ns3:TrackPointExtension>
            <ns3:hr>136</ns3:hr>
            <ns3:cad>75</ns3:cad>
          </ns3:TrackPointExtension>
        </extensions>
      </trkpt>
      <trkpt lat="45.294328518211841583251953125" lon="-70.8360164053738117218017578125">
        <ele>1157.800048828125</ele>
        <time>2026-08-21T14:05:48.000Z</time>
        <extensions>
          <ns3:TrackPointExtension>
            <ns3:hr>136</ns3:hr>
            <ns3:cad>75</ns3:cad>
          </ns3:TrackPointExtension>
        </extensions>
      </trkpt>
      <trkpt lat="45.294349975883960723876953125" lon="-70.83602118305861949920654296875">
        <ele>1157.800048828125</ele>
        <time>2026-08-21T14:05:49.000Z</time>
        <extensions>
          <ns3:TrackPointExtension>
            <ns3:hr>137</ns3:hr>
            <ns3:cad>75</ns3:cad>
          </ns3:TrackPointExtension>
        </extensions>
      </trkpt>
      <trkpt lat="45.29437168501317501068115234375" lon="-70.83602369762957096099853515625">
        <ele>1157.800048828125</ele>
        <time>2026-08-21T14:05:50.000Z</time>
        <extensions>
          <ns3:TrackPointExtension>
            <ns3:hr>137</ns3:hr>
            <ns3:cad>75</ns3:cad>
          </ns3:TrackPointExtension>
        </extensions>
      </trkpt>
      <trkpt lat="45.29439414851367473602294921875" lon="-70.83601749502122402191162109375">
        <ele>1157.800048828125</ele>
        <time>2026-08-21T14:05:51.000Z</time>
        <extensions>
          <ns3:TrackPointExtension>
            <ns3:hr>136</ns3:hr>
            <ns3:cad>75</ns3:cad>
          </ns3:TrackPointExtension>
        </extensions>
      </trkpt>
      <trkpt lat="45.29441778548061847686767578125" lon="-70.83600609563291072845458984375">
        <ele>1157.800048828125</ele>
        <time>2026-08-21T14:05:52.000Z</time>
        <extensions>
          <ns3:TrackPointExtension>
            <ns3:hr>136</ns3:hr>
            <ns3:cad>75</ns3:cad>
          </ns3:TrackPointExtension>
        </extensions>
      </trkpt>
      <trkpt lat="45.29444217681884765625" lon="-70.83599134348332881927490234375">
        <ele>1157.800048828125</ele>
        <time>2026-08-21T14:05:53.000Z</time>
        <extensions>
          <ns3:TrackPointExtension>
            <ns3:hr>136</ns3:hr>
            <ns3:cad>75</ns3:cad>
          </ns3:TrackPointExtension>
        </extensions>
      </trkpt>
      <trkpt lat="45.294455587863922119140625" lon="-70.83598748780786991119384765625">
        <ele>1157.800048828125</ele>
        <time>2026-08-21T14:05:54.000Z</time>
        <extensions>
          <ns3:TrackPointExtension>
            <ns3:hr>135</ns3:hr>
            <ns3:cad>75</ns3:cad>
          </ns3:TrackPointExtension>
        </extensions>
      </trkpt>
      <trkpt lat="45.2944718487560749053955078125" lon="-70.8359936065971851348876953125">
        <ele>1157.800048828125</ele>
        <time>2026-08-21T14:05:55.000Z</time>
        <extensions>
          <ns3:TrackPointExtension>
            <ns3:hr>135</ns3:hr>
            <ns3:cad>75</ns3:cad>
          </ns3:TrackPointExtension>
        </extensions>
      </trkpt>
      <trkpt lat="45.29448685236275196075439453125" lon="-70.83600743673741817474365234375">
        <ele>1157.5999755859375</ele>
        <time>2026-08-21T14:05:56.000Z</time>
        <extensions>
          <ns3:TrackPointExtension>
            <ns3:hr>136</ns3:hr>
            <ns3:cad>75</ns3:cad>
          </ns3:TrackPointExtension>
        </extensions>
      </trkpt>
      <trkpt lat="45.29450110159814357757568359375" lon="-70.83601799793541431427001953125">
        <ele>1157.5999755859375</ele>
        <time>2026-08-21T14:05:57.000Z</time>
        <extensions>
          <ns3:TrackPointExtension>
            <ns3:hr>136</ns3:hr>
            <ns3:cad>74</ns3:cad>
          </ns3:TrackPointExtension>
        </extensions>
      </trkpt>
      <trkpt lat="45.2945132553577423095703125" lon="-70.83603073842823505401611328125">
        <ele>1157.4000244140625</ele>
        <time>2026-08-21T14:05:58.000Z</time>
        <extensions>
          <ns3:TrackPointExtension>
            <ns3:hr>136</ns3:hr>
            <ns3:cad>74</ns3:cad>
          </ns3:TrackPointExtension>
        </extensions>
      </trkpt>
      <trkpt lat="45.294525325298309326171875" lon="-70.8360435627400875091552734375">
        <ele>1157</ele>
        <time>2026-08-21T14:05:59.000Z</time>
        <extensions>
          <ns3:TrackPointExtension>
            <ns3:hr>136</ns3:hr>
            <ns3:cad>74</ns3:cad>
          </ns3:TrackPointExtension>
        </extensions>
      </trkpt>
      <trkpt lat="45.29453806579113006591796875" lon="-70.836058147251605987548828125">
        <ele>1156.800048828125</ele>
        <time>2026-08-21T14:06:00.000Z</time>
        <extensions>
          <ns3:TrackPointExtension>
            <ns3:hr>135</ns3:hr>
            <ns3:cad>74</ns3:cad>
          </ns3:TrackPointExtension>
        </extensions>
      </trkpt>
      <trkpt lat="45.294549129903316497802734375" lon="-70.836071558296680450439453125">
        <ele>1156.5999755859375</ele>
        <time>2026-08-21T14:06:01.000Z</time>
        <extensions>
          <ns3:TrackPointExtension>
            <ns3:hr>135</ns3:hr>
            <ns3:cad>74</ns3:cad>
          </ns3:TrackPointExtension>
        </extensions>
      </trkpt>
      <trkpt lat="45.29456078074872493743896484375" lon="-70.83609360270202159881591796875">
        <ele>1156.5999755859375</ele>
        <time>2026-08-21T14:06:02.000Z</time>
        <extensions>
          <ns3:TrackPointExtension>
            <ns3:hr>136</ns3:hr>
            <ns3:cad>72</ns3:cad>
          </ns3:TrackPointExtension>
        </extensions>
      </trkpt>
      <trkpt lat="45.29457025229930877685546875" lon="-70.836109109222888946533203125">
        <ele>1156.4000244140625</ele>
        <time>2026-08-21T14:06:03.000Z</time>
        <extensions>
          <ns3:TrackPointExtension>
            <ns3:hr>137</ns3:hr>
            <ns3:cad>72</ns3:cad>
          </ns3:TrackPointExtension>
        </extensions>
      </trkpt>
      <trkpt lat="45.29458634555339813232421875" lon="-70.836131572723388671875">
        <ele>1156.199951171875</ele>
        <time>2026-08-21T14:06:04.000Z</time>
        <extensions>
          <ns3:TrackPointExtension>
            <ns3:hr>137</ns3:hr>
            <ns3:cad>0</ns3:cad>
          </ns3:TrackPointExtension>
        </extensions>
      </trkpt>
      <trkpt lat="45.29459900222718715667724609375" lon="-70.836152024567127227783203125">
        <ele>1156.199951171875</ele>
        <time>2026-08-21T14:06:05.000Z</time>
        <extensions>
          <ns3:TrackPointExtension>
            <ns3:hr>138</ns3:hr>
            <ns3:cad>0</ns3:cad>
          </ns3:TrackPointExtension>
        </extensions>
      </trkpt>
      <trkpt lat="45.29461073689162731170654296875" lon="-70.83617004565894603729248046875">
        <ele>1156</ele>
        <time>2026-08-21T14:06:06.000Z</time>
        <extensions>
          <ns3:TrackPointExtension>
            <ns3:hr>138</ns3:hr>
            <ns3:cad>71</ns3:cad>
          </ns3:TrackPointExtension>
        </extensions>
      </trkpt>
      <trkpt lat="45.2946217171847820281982421875" lon="-70.8361930958926677703857421875">
        <ele>1156</ele>
        <time>2026-08-21T14:06:07.000Z</time>
        <extensions>
          <ns3:TrackPointExtension>
            <ns3:hr>137</ns3:hr>
            <ns3:cad>71</ns3:cad>
          </ns3:TrackPointExtension>
        </extensions>
      </trkpt>
      <trkpt lat="45.2946300990879535675048828125" lon="-70.8362106978893280029296875">
        <ele>1156</ele>
        <time>2026-08-21T14:06:08.000Z</time>
        <extensions>
          <ns3:TrackPointExtension>
            <ns3:hr>138</ns3:hr>
            <ns3:cad>71</ns3:cad>
          </ns3:TrackPointExtension>
        </extensions>
      </trkpt>
      <trkpt lat="45.294642336666584014892578125" lon="-70.83623156882822513580322265625">
        <ele>1155.800048828125</ele>
        <time>2026-08-21T14:06:09.000Z</time>
        <extensions>
          <ns3:TrackPointExtension>
            <ns3:hr>138</ns3:hr>
            <ns3:cad>71</ns3:cad>
          </ns3:TrackPointExtension>
        </extensions>
      </trkpt>
      <trkpt lat="45.2946580946445465087890625" lon="-70.83625202067196369171142578125">
        <ele>1155.800048828125</ele>
        <time>2026-08-21T14:06:10.000Z</time>
        <extensions>
          <ns3:TrackPointExtension>
            <ns3:hr>138</ns3:hr>
            <ns3:cad>71</ns3:cad>
          </ns3:TrackPointExtension>
        </extensions>
      </trkpt>
      <trkpt lat="45.2946676500141620635986328125" lon="-70.83627037703990936279296875">
        <ele>1155.5999755859375</ele>
        <time>2026-08-21T14:06:11.000Z</time>
        <extensions>
          <ns3:TrackPointExtension>
            <ns3:hr>138</ns3:hr>
            <ns3:cad>71</ns3:cad>
          </ns3:TrackPointExtension>
        </extensions>
      </trkpt>
      <trkpt lat="45.29467351734638214111328125" lon="-70.836286135017871856689453125">
        <ele>1155.4000244140625</ele>
        <time>2026-08-21T14:06:12.000Z</time>
        <extensions>
          <ns3:TrackPointExtension>
            <ns3:hr>138</ns3:hr>
            <ns3:cad>71</ns3:cad>
          </ns3:TrackPointExtension>
        </extensions>
      </trkpt>
      <trkpt lat="45.29468290507793426513671875" lon="-70.836305916309356689453125">
        <ele>1155.4000244140625</ele>
        <time>2026-08-21T14:06:13.000Z</time>
        <extensions>
          <ns3:TrackPointExtension>
            <ns3:hr>138</ns3:hr>
            <ns3:cad>71</ns3:cad>
          </ns3:TrackPointExtension>
        </extensions>
      </trkpt>
      <trkpt lat="45.29469095170497894287109375" lon="-70.83632075227797031402587890625">
        <ele>1155.4000244140625</ele>
        <time>2026-08-21T14:06:14.000Z</time>
        <extensions>
          <ns3:TrackPointExtension>
            <ns3:hr>137</ns3:hr>
            <ns3:cad>0</ns3:cad>
          </ns3:TrackPointExtension>
        </extensions>
      </trkpt>
      <trkpt lat="45.2946954779326915740966796875" lon="-70.83634220995008945465087890625">
        <ele>1155.4000244140625</ele>
        <time>2026-08-21T14:06:15.000Z</time>
        <extensions>
          <ns3:TrackPointExtension>
            <ns3:hr>138</ns3:hr>
            <ns3:cad>0</ns3:cad>
          </ns3:TrackPointExtension>
        </extensions>
      </trkpt>
      <trkpt lat="45.2947005070745944976806640625" lon="-70.8363610692322254180908203125">
        <ele>1155.4000244140625</ele>
        <time>2026-08-21T14:06:16.000Z</time>
        <extensions>
          <ns3:TrackPointExtension>
            <ns3:hr>138</ns3:hr>
            <ns3:cad>70</ns3:cad>
          </ns3:TrackPointExtension>
        </extensions>
      </trkpt>
      <trkpt lat="45.2947052009403705596923828125" lon="-70.8363778330385684967041015625">
        <ele>1155.4000244140625</ele>
        <time>2026-08-21T14:06:17.000Z</time>
        <extensions>
          <ns3:TrackPointExtension>
            <ns3:hr>138</ns3:hr>
            <ns3:cad>70</ns3:cad>
          </ns3:TrackPointExtension>
        </extensions>
      </trkpt>
      <trkpt lat="45.294708050787448883056640625" lon="-70.83639887161552906036376953125">
        <ele>1155.4000244140625</ele>
        <time>2026-08-21T14:06:18.000Z</time>
        <extensions>
          <ns3:TrackPointExtension>
            <ns3:hr>137</ns3:hr>
            <ns3:cad>70</ns3:cad>
          </ns3:TrackPointExtension>
        </extensions>
      </trkpt>
      <trkpt lat="45.29471115209162235260009765625" lon="-70.8364167250692844390869140625">
        <ele>1155.199951171875</ele>
        <time>2026-08-21T14:06:19.000Z</time>
        <extensions>
          <ns3:TrackPointExtension>
            <ns3:hr>137</ns3:hr>
            <ns3:cad>70</ns3:cad>
          </ns3:TrackPointExtension>
        </extensions>
      </trkpt>
      <trkpt lat="45.2947149239480495452880859375" lon="-70.83643273450434207916259765625">
        <ele>1155</ele>
        <time>2026-08-21T14:06:20.000Z</time>
        <extensions>
          <ns3:TrackPointExtension>
            <ns3:hr>137</ns3:hr>
            <ns3:cad>70</ns3:cad>
          </ns3:TrackPointExtension>
        </extensions>
      </trkpt>
      <trkpt lat="45.29472389258444309234619140625" lon="-70.83646081387996673583984375">
        <ele>1154.800048828125</ele>
        <time>2026-08-21T14:06:21.000Z</time>
        <extensions>
          <ns3:TrackPointExtension>
            <ns3:hr>137</ns3:hr>
            <ns3:cad>70</ns3:cad>
          </ns3:TrackPointExtension>
        </extensions>
      </trkpt>
      <trkpt lat="45.29473311267793178558349609375" lon="-70.83648554049432277679443359375">
        <ele>1154.5999755859375</ele>
        <time>2026-08-21T14:06:22.000Z</time>
        <extensions>
          <ns3:TrackPointExtension>
            <ns3:hr>137</ns3:hr>
            <ns3:cad>70</ns3:cad>
          </ns3:TrackPointExtension>
        </extensions>
      </trkpt>
      <trkpt lat="45.29474317096173763275146484375" lon="-70.83651152439415454864501953125">
        <ele>1154.4000244140625</ele>
        <time>2026-08-21T14:06:23.000Z</time>
        <extensions>
          <ns3:TrackPointExtension>
            <ns3:hr>136</ns3:hr>
            <ns3:cad>70</ns3:cad>
          </ns3:TrackPointExtension>
        </extensions>
      </trkpt>
      <trkpt lat="45.2947561629116535186767578125" lon="-70.83653583191335201263427734375">
        <ele>1154.199951171875</ele>
        <time>2026-08-21T14:06:24.000Z</time>
        <extensions>
          <ns3:TrackPointExtension>
            <ns3:hr>135</ns3:hr>
            <ns3:cad>65</ns3:cad>
          </ns3:TrackPointExtension>
        </extensions>
      </trkpt>
      <trkpt lat="45.2947658859193325042724609375" lon="-70.8365538530051708221435546875">
        <ele>1154.199951171875</ele>
        <time>2026-08-21T14:06:25.000Z</time>
        <extensions>
          <ns3:TrackPointExtension>
            <ns3:hr>135</ns3:hr>
            <ns3:cad>65</ns3:cad>
          </ns3:TrackPointExtension>
        </extensions>
      </trkpt>
      <trkpt lat="45.29477736912667751312255859375" lon="-70.8365727961063385009765625">
        <ele>1154</ele>
        <time>2026-08-21T14:06:26.000Z</time>
        <extensions>
          <ns3:TrackPointExtension>
            <ns3:hr>134</ns3:hr>
            <ns3:cad>65</ns3:cad>
          </ns3:TrackPointExtension>
        </extensions>
      </trkpt>
      <trkpt lat="45.29478893615305423736572265625" lon="-70.83659349940717220306396484375">
        <ele>1154</ele>
        <time>2026-08-21T14:06:27.000Z</time>
        <extensions>
          <ns3:TrackPointExtension>
            <ns3:hr>133</ns3:hr>
            <ns3:cad>65</ns3:cad>
          </ns3:TrackPointExtension>
        </extensions>
      </trkpt>
      <trkpt lat="45.29479765333235263824462890625" lon="-70.836616717278957366943359375">
        <ele>1154</ele>
        <time>2026-08-21T14:06:28.000Z</time>
        <extensions>
          <ns3:TrackPointExtension>
            <ns3:hr>133</ns3:hr>
            <ns3:cad>65</ns3:cad>
          </ns3:TrackPointExtension>
        </extensions>
      </trkpt>
      <trkpt lat="45.2948007546365261077880859375" lon="-70.8366373367607593536376953125">
        <ele>1154</ele>
        <time>2026-08-21T14:06:29.000Z</time>
        <extensions>
          <ns3:TrackPointExtension>
            <ns3:hr>134</ns3:hr>
            <ns3:cad>75</ns3:cad>
          </ns3:TrackPointExtension>
        </extensions>
      </trkpt>
      <trkpt lat="45.294799916446208953857421875" lon="-70.8366587944328784942626953125">
        <ele>1154</ele>
        <time>2026-08-21T14:06:30.000Z</time>
        <extensions>
          <ns3:TrackPointExtension>
            <ns3:hr>131</ns3:hr>
            <ns3:cad>75</ns3:cad>
          </ns3:TrackPointExtension>
        </extensions>
      </trkpt>
      <trkpt lat="45.294799916446208953857421875" lon="-70.83668050356209278106689453125">
        <ele>1154</ele>
        <time>2026-08-21T14:06:31.000Z</time>
        <extensions>
          <ns3:TrackPointExtension>
            <ns3:hr>131</ns3:hr>
            <ns3:cad>75</ns3:cad>
          </ns3:TrackPointExtension>
        </extensions>
      </trkpt>
      <trkpt lat="45.294804275035858154296875" lon="-70.83671218715608119964599609375">
        <ele>1154.199951171875</ele>
        <time>2026-08-21T14:06:32.000Z</time>
        <extensions>
          <ns3:TrackPointExtension>
            <ns3:hr>131</ns3:hr>
            <ns3:cad>75</ns3:cad>
          </ns3:TrackPointExtension>
        </extensions>
      </trkpt>
      <trkpt lat="45.29480955563485622406005859375" lon="-70.83673783577978610992431640625">
        <ele>1154.4000244140625</ele>
        <time>2026-08-21T14:06:33.000Z</time>
        <extensions>
          <ns3:TrackPointExtension>
            <ns3:hr>132</ns3:hr>
            <ns3:cad>75</ns3:cad>
          </ns3:TrackPointExtension>
        </extensions>
      </trkpt>
      <trkpt lat="45.29481408186256885528564453125" lon="-70.83676801063120365142822265625">
        <ele>1154.5999755859375</ele>
        <time>2026-08-21T14:06:34.000Z</time>
        <extensions>
          <ns3:TrackPointExtension>
            <ns3:hr>134</ns3:hr>
            <ns3:cad>76</ns3:cad>
          </ns3:TrackPointExtension>
        </extensions>
      </trkpt>
      <trkpt lat="45.29481827281415462493896484375" lon="-70.836799107491970062255859375">
        <ele>1155</ele>
        <time>2026-08-21T14:06:35.000Z</time>
        <extensions>
          <ns3:TrackPointExtension>
            <ns3:hr>134</ns3:hr>
            <ns3:cad>76</ns3:cad>
          </ns3:TrackPointExtension>
        </extensions>
      </trkpt>
      <trkpt lat="45.29482196085155010223388671875" lon="-70.8368321321904659271240234375">
        <ele>1155.199951171875</ele>
        <time>2026-08-21T14:06:36.000Z</time>
        <extensions>
          <ns3:TrackPointExtension>
            <ns3:hr>134</ns3:hr>
            <ns3:cad>76</ns3:cad>
          </ns3:TrackPointExtension>
        </extensions>
      </trkpt>
      <trkpt lat="45.294828079640865325927734375" lon="-70.8368680067360401153564453125">
        <ele>1155.4000244140625</ele>
        <time>2026-08-21T14:06:37.000Z</time>
        <extensions>
          <ns3:TrackPointExtension>
            <ns3:hr>135</ns3:hr>
            <ns3:cad>76</ns3:cad>
          </ns3:TrackPointExtension>
        </extensions>
      </trkpt>
      <trkpt lat="45.2948295883834362030029296875" lon="-70.836893655359745025634765625">
        <ele>1155.4000244140625</ele>
        <time>2026-08-21T14:06:38.000Z</time>
        <extensions>
          <ns3:TrackPointExtension>
            <ns3:hr>134</ns3:hr>
            <ns3:cad>75</ns3:cad>
          </ns3:TrackPointExtension>
        </extensions>
      </trkpt>
      <trkpt lat="45.29483000747859477996826171875" lon="-70.83692592568695545196533203125">
        <ele>1155.4000244140625</ele>
        <time>2026-08-21T14:06:39.000Z</time>
        <extensions>
          <ns3:TrackPointExtension>
            <ns3:hr>134</ns3:hr>
            <ns3:cad>75</ns3:cad>
          </ns3:TrackPointExtension>
        </extensions>
      </trkpt>
      <trkpt lat="45.2948336116969585418701171875" lon="-70.83695425651967525482177734375">
        <ele>1155.4000244140625</ele>
        <time>2026-08-21T14:06:40.000Z</time>
        <extensions>
          <ns3:TrackPointExtension>
            <ns3:hr>135</ns3:hr>
            <ns3:cad>75</ns3:cad>
          </ns3:TrackPointExtension>
        </extensions>
      </trkpt>
      <trkpt lat="45.29483855701982975006103515625" lon="-70.8369850181043148040771484375">
        <ele>1155.5999755859375</ele>
        <time>2026-08-21T14:06:41.000Z</time>
        <extensions>
          <ns3:TrackPointExtension>
            <ns3:hr>135</ns3:hr>
            <ns3:cad>0</ns3:cad>
          </ns3:TrackPointExtension>
        </extensions>
      </trkpt>
      <trkpt lat="45.2948416583240032196044921875" lon="-70.83701242692768573760986328125">
        <ele>1155.5999755859375</ele>
        <time>2026-08-21T14:06:42.000Z</time>
        <extensions>
          <ns3:TrackPointExtension>
            <ns3:hr>135</ns3:hr>
            <ns3:cad>0</ns3:cad>
          </ns3:TrackPointExtension>
        </extensions>
      </trkpt>
      <trkpt lat="45.29484408907592296600341796875" lon="-70.837031118571758270263671875">
        <ele>1155.800048828125</ele>
        <time>2026-08-21T14:06:43.000Z</time>
        <extensions>
          <ns3:TrackPointExtension>
            <ns3:hr>135</ns3:hr>
            <ns3:cad>0</ns3:cad>
          </ns3:TrackPointExtension>
        </extensions>
      </trkpt>
      <trkpt lat="45.2948473580181598663330078125" lon="-70.83706556819379329681396484375">
        <ele>1156.199951171875</ele>
        <time>2026-08-21T14:06:44.000Z</time>
        <extensions>
          <ns3:TrackPointExtension>
            <ns3:hr>136</ns3:hr>
            <ns3:cad>0</ns3:cad>
          </ns3:TrackPointExtension>
        </extensions>
      </trkpt>
      <trkpt lat="45.294850878417491912841796875" lon="-70.83709021098911762237548828125">
        <ele>1156.5999755859375</ele>
        <time>2026-08-21T14:06:45.000Z</time>
        <extensions>
          <ns3:TrackPointExtension>
            <ns3:hr>136</ns3:hr>
            <ns3:cad>0</ns3:cad>
          </ns3:TrackPointExtension>
        </extensions>
      </trkpt>
      <trkpt lat="45.294853560626506805419921875" lon="-70.83712172694504261016845703125">
        <ele>1156.800048828125</ele>
        <time>2026-08-21T14:06:46.000Z</time>
        <extensions>
          <ns3:TrackPointExtension>
            <ns3:hr>136</ns3:hr>
            <ns3:cad>0</ns3:cad>
          </ns3:TrackPointExtension>
        </extensions>
      </trkpt>
      <trkpt lat="45.29485850594937801361083984375" lon="-70.83715257234871387481689453125">
        <ele>1157.199951171875</ele>
        <time>2026-08-21T14:06:47.000Z</time>
        <extensions>
          <ns3:TrackPointExtension>
            <ns3:hr>136</ns3:hr>
            <ns3:cad>0</ns3:cad>
          </ns3:TrackPointExtension>
        </extensions>
      </trkpt>
      <trkpt lat="45.2948634512722492218017578125" lon="-70.83717956207692623138427734375">
        <ele>1157.4000244140625</ele>
        <time>2026-08-21T14:06:48.000Z</time>
        <extensions>
          <ns3:TrackPointExtension>
            <ns3:hr>137</ns3:hr>
            <ns3:cad>75</ns3:cad>
          </ns3:TrackPointExtension>
        </extensions>
      </trkpt>
      <trkpt lat="45.2948657982051372528076171875" lon="-70.83720806054770946502685546875">
        <ele>1157.5999755859375</ele>
        <time>2026-08-21T14:06:49.000Z</time>
        <extensions>
          <ns3:TrackPointExtension>
            <ns3:hr>138</ns3:hr>
            <ns3:cad>75</ns3:cad>
          </ns3:TrackPointExtension>
        </extensions>
      </trkpt>
      <trkpt lat="45.2948704920709133148193359375" lon="-70.83723655901849269866943359375">
        <ele>1157.5999755859375</ele>
        <time>2026-08-21T14:06:50.000Z</time>
        <extensions>
          <ns3:TrackPointExtension>
            <ns3:hr>138</ns3:hr>
            <ns3:cad>75</ns3:cad>
          </ns3:TrackPointExtension>
        </extensions>
      </trkpt>
      <trkpt lat="45.29487526975572109222412109375" lon="-70.83726036362349987030029296875">
        <ele>1157.800048828125</ele>
        <time>2026-08-21T14:06:51.000Z</time>
        <extensions>
          <ns3:TrackPointExtension>
            <ns3:hr>139</ns3:hr>
            <ns3:cad>75</ns3:cad>
          </ns3:TrackPointExtension>
        </extensions>
      </trkpt>
      <trkpt lat="45.2948832325637340545654296875" lon="-70.83729405887424945831298828125">
        <ele>1158</ele>
        <time>2026-08-21T14:06:52.000Z</time>
        <extensions>
          <ns3:TrackPointExtension>
            <ns3:hr>139</ns3:hr>
            <ns3:cad>75</ns3:cad>
          </ns3:TrackPointExtension>
        </extensions>
      </trkpt>
      <trkpt lat="45.294889770448207855224609375" lon="-70.8373209647834300994873046875">
        <ele>1158.199951171875</ele>
        <time>2026-08-21T14:06:53.000Z</time>
        <extensions>
          <ns3:TrackPointExtension>
            <ns3:hr>140</ns3:hr>
            <ns3:cad>75</ns3:cad>
          </ns3:TrackPointExtension>
        </extensions>
      </trkpt>
      <trkpt lat="45.294895470142364501953125" lon="-70.83735222928225994110107421875">
        <ele>1158.199951171875</ele>
        <time>2026-08-21T14:06:54.000Z</time>
        <extensions>
          <ns3:TrackPointExtension>
            <ns3:hr>141</ns3:hr>
            <ns3:cad>75</ns3:cad>
          </ns3:TrackPointExtension>
        </extensions>
      </trkpt>
      <trkpt lat="45.2948989905416965484619140625" lon="-70.8373799733817577362060546875">
        <ele>1158.4000244140625</ele>
        <time>2026-08-21T14:06:55.000Z</time>
        <extensions>
          <ns3:TrackPointExtension>
            <ns3:hr>141</ns3:hr>
            <ns3:cad>75</ns3:cad>
          </ns3:TrackPointExtension>
        </extensions>
      </trkpt>
      <trkpt lat="45.2948999963700771331787109375" lon="-70.8374071307480335235595703125">
        <ele>1158.4000244140625</ele>
        <time>2026-08-21T14:06:56.000Z</time>
        <extensions>
          <ns3:TrackPointExtension>
            <ns3:hr>142</ns3:hr>
            <ns3:cad>18</ns3:cad>
          </ns3:TrackPointExtension>
        </extensions>
      </trkpt>
      <trkpt lat="45.2949010021984577178955078125" lon="-70.8374284207820892333984375">
        <ele>1158.5999755859375</ele>
        <time>2026-08-21T14:06:57.000Z</time>
        <extensions>
          <ns3:TrackPointExtension>
            <ns3:hr>143</ns3:hr>
            <ns3:cad>18</ns3:cad>
          </ns3:TrackPointExtension>
        </extensions>
      </trkpt>
      <trkpt lat="45.29490259476006031036376953125" lon="-70.83745901472866535186767578125">
        <ele>1158.5999755859375</ele>
        <time>2026-08-21T14:06:58.000Z</time>
        <extensions>
          <ns3:TrackPointExtension>
            <ns3:hr>143</ns3:hr>
            <ns3:cad>18</ns3:cad>
          </ns3:TrackPointExtension>
        </extensions>
      </trkpt>
      <trkpt lat="45.29490259476006031036376953125" lon="-70.8374805562198162078857421875">
        <ele>1158.800048828125</ele>
        <time>2026-08-21T14:06:59.000Z</time>
        <extensions>
          <ns3:TrackPointExtension>
            <ns3:hr>144</ns3:hr>
            <ns3:cad>18</ns3:cad>
          </ns3:TrackPointExtension>
        </extensions>
      </trkpt>
      <trkpt lat="45.2949026785790920257568359375" lon="-70.837515927851200103759765625">
        <ele>1159</ele>
        <time>2026-08-21T14:07:00.000Z</time>
        <extensions>
          <ns3:TrackPointExtension>
            <ns3:hr>144</ns3:hr>
            <ns3:cad>18</ns3:cad>
          </ns3:TrackPointExtension>
        </extensions>
      </trkpt>
      <trkpt lat="45.29489873908460140228271484375" lon="-70.83754400722682476043701171875">
        <ele>1159.199951171875</ele>
        <time>2026-08-21T14:07:01.000Z</time>
        <extensions>
          <ns3:TrackPointExtension>
            <ns3:hr>145</ns3:hr>
            <ns3:cad>18</ns3:cad>
          </ns3:TrackPointExtension>
        </extensions>
      </trkpt>
      <trkpt lat="45.29489991255104541778564453125" lon="-70.837565548717975616455078125">
        <ele>1159.4000244140625</ele>
        <time>2026-08-21T14:07:02.000Z</time>
        <extensions>
          <ns3:TrackPointExtension>
            <ns3:hr>146</ns3:hr>
            <ns3:cad>18</ns3:cad>
          </ns3:TrackPointExtension>
        </extensions>
      </trkpt>
      <trkpt lat="45.2949006669223308563232421875" lon="-70.83758273161947727203369140625">
        <ele>1159.5999755859375</ele>
        <time>2026-08-21T14:07:03.000Z</time>
        <extensions>
          <ns3:TrackPointExtension>
            <ns3:hr>146</ns3:hr>
            <ns3:cad>18</ns3:cad>
          </ns3:TrackPointExtension>
        </extensions>
      </trkpt>
      <trkpt lat="45.29489756561815738677978515625" lon="-70.83761458285152912139892578125">
        <ele>1159.800048828125</ele>
        <time>2026-08-21T14:07:04.000Z</time>
        <extensions>
          <ns3:TrackPointExtension>
            <ns3:hr>147</ns3:hr>
            <ns3:cad>18</ns3:cad>
          </ns3:TrackPointExtension>
        </extensions>
      </trkpt>
      <trkpt lat="45.29489823617041110992431640625" lon="-70.83763654343783855438232421875">
        <ele>1159.800048828125</ele>
        <time>2026-08-21T14:07:05.000Z</time>
        <extensions>
          <ns3:TrackPointExtension>
            <ns3:hr>147</ns3:hr>
            <ns3:cad>18</ns3:cad>
          </ns3:TrackPointExtension>
        </extensions>
      </trkpt>
      <trkpt lat="45.29489882290363311767578125" lon="-70.837663114070892333984375">
        <ele>1160</ele>
        <time>2026-08-21T14:07:06.000Z</time>
        <extensions>
          <ns3:TrackPointExtension>
            <ns3:hr>147</ns3:hr>
            <ns3:cad>18</ns3:cad>
          </ns3:TrackPointExtension>
        </extensions>
      </trkpt>
      <trkpt lat="45.2948986552655696868896484375" lon="-70.83770460449159145355224609375">
        <ele>1160.199951171875</ele>
        <time>2026-08-21T14:07:07.000Z</time>
        <extensions>
          <ns3:TrackPointExtension>
            <ns3:hr>147</ns3:hr>
            <ns3:cad>18</ns3:cad>
          </ns3:TrackPointExtension>
        </extensions>
      </trkpt>
      <trkpt lat="45.29490544460713863372802734375" lon="-70.83772547543048858642578125">
        <ele>1160.4000244140625</ele>
        <time>2026-08-21T14:07:08.000Z</time>
        <extensions>
          <ns3:TrackPointExtension>
            <ns3:hr>148</ns3:hr>
            <ns3:cad>18</ns3:cad>
          </ns3:TrackPointExtension>
        </extensions>
      </trkpt>
      <trkpt lat="45.29491835273802280426025390625" lon="-70.83775824867188930511474609375">
        <ele>1160.4000244140625</ele>
        <time>2026-08-21T14:07:09.000Z</time>
        <extensions>
          <ns3:TrackPointExtension>
            <ns3:hr>148</ns3:hr>
            <ns3:cad>18</ns3:cad>
          </ns3:TrackPointExtension>
        </extensions>
      </trkpt>
      <trkpt lat="45.29492908157408237457275390625" lon="-70.837777443230152130126953125">
        <ele>1160.4000244140625</ele>
        <time>2026-08-21T14:07:10.000Z</time>
        <extensions>
          <ns3:TrackPointExtension>
            <ns3:hr>148</ns3:hr>
            <ns3:cad>18</ns3:cad>
          </ns3:TrackPointExtension>
        </extensions>
      </trkpt>
      <trkpt lat="45.29494266025722026824951171875" lon="-70.8377957157790660858154296875">
        <ele>1160.4000244140625</ele>
        <time>2026-08-21T14:07:11.000Z</time>
        <extensions>
          <ns3:TrackPointExtension>
            <ns3:hr>149</ns3:hr>
            <ns3:cad>72</ns3:cad>
          </ns3:TrackPointExtension>
        </extensions>
      </trkpt>
      <trkpt lat="45.294966883957386016845703125" lon="-70.8378159999847412109375">
        <ele>1160.199951171875</ele>
        <time>2026-08-21T14:07:12.000Z</time>
        <extensions>
          <ns3:TrackPointExtension>
            <ns3:hr>149</ns3:hr>
            <ns3:cad>72</ns3:cad>
          </ns3:TrackPointExtension>
        </extensions>
      </trkpt>
      <trkpt lat="45.29498658142983913421630859375" lon="-70.8378307521343231201171875">
        <ele>1160</ele>
        <time>2026-08-21T14:07:13.000Z</time>
        <extensions>
          <ns3:TrackPointExtension>
            <ns3:hr>150</ns3:hr>
            <ns3:cad>72</ns3:cad>
          </ns3:TrackPointExtension>
        </extensions>
      </trkpt>
      <trkpt lat="45.29500518925487995147705078125" lon="-70.83784491755068302154541015625">
        <ele>1159.5999755859375</ele>
        <time>2026-08-21T14:07:14.000Z</time>
        <extensions>
          <ns3:TrackPointExtension>
            <ns3:hr>150</ns3:hr>
            <ns3:cad>72</ns3:cad>
          </ns3:TrackPointExtension>
        </extensions>
      </trkpt>
      <trkpt lat="45.295020528137683868408203125" lon="-70.83785765804350376129150390625">
        <ele>1159.4000244140625</ele>
        <time>2026-08-21T14:07:15.000Z</time>
        <extensions>
          <ns3:TrackPointExtension>
            <ns3:hr>151</ns3:hr>
            <ns3:cad>69</ns3:cad>
          </ns3:TrackPointExtension>
        </extensions>
      </trkpt>
      <trkpt lat="45.29503921978175640106201171875" lon="-70.83787257783114910125732421875">
        <ele>1158.800048828125</ele>
        <time>2026-08-21T14:07:16.000Z</time>
        <extensions>
          <ns3:TrackPointExtension>
            <ns3:hr>151</ns3:hr>
            <ns3:cad>70</ns3:cad>
          </ns3:TrackPointExtension>
        </extensions>
      </trkpt>
      <trkpt lat="45.295062102377414703369140625" lon="-70.837896130979061126708984375">
        <ele>1158.4000244140625</ele>
        <time>2026-08-21T14:07:17.000Z</time>
        <extensions>
          <ns3:TrackPointExtension>
            <ns3:hr>151</ns3:hr>
            <ns3:cad>70</ns3:cad>
          </ns3:TrackPointExtension>
        </extensions>
      </trkpt>
      <trkpt lat="45.2950790338218212127685546875" lon="-70.8379110507667064666748046875">
        <ele>1157.800048828125</ele>
        <time>2026-08-21T14:07:18.000Z</time>
        <extensions>
          <ns3:TrackPointExtension>
            <ns3:hr>151</ns3:hr>
            <ns3:cad>77</ns3:cad>
          </ns3:TrackPointExtension>
        </extensions>
      </trkpt>
      <trkpt lat="45.29509319923818111419677734375" lon="-70.83792789839208126068115234375">
        <ele>1157.4000244140625</ele>
        <time>2026-08-21T14:07:19.000Z</time>
        <extensions>
          <ns3:TrackPointExtension>
            <ns3:hr>151</ns3:hr>
            <ns3:cad>77</ns3:cad>
          </ns3:TrackPointExtension>
        </extensions>
      </trkpt>
      <trkpt lat="45.29511029832065105438232421875" lon="-70.83795321173965930938720703125">
        <ele>1157</ele>
        <time>2026-08-21T14:07:20.000Z</time>
        <extensions>
          <ns3:TrackPointExtension>
            <ns3:hr>151</ns3:hr>
            <ns3:cad>77</ns3:cad>
          </ns3:TrackPointExtension>
        </extensions>
      </trkpt>
      <trkpt lat="45.29512404464185237884521484375" lon="-70.83797483704984188079833984375">
        <ele>1156.800048828125</ele>
        <time>2026-08-21T14:07:21.000Z</time>
        <extensions>
          <ns3:TrackPointExtension>
            <ns3:hr>151</ns3:hr>
            <ns3:cad>0</ns3:cad>
          </ns3:TrackPointExtension>
        </extensions>
      </trkpt>
      <trkpt lat="45.295136533677577972412109375" lon="-70.83799964748322963714599609375">
        <ele>1156.5999755859375</ele>
        <time>2026-08-21T14:07:22.000Z</time>
        <extensions>
          <ns3:TrackPointExtension>
            <ns3:hr>151</ns3:hr>
            <ns3:cad>0</ns3:cad>
          </ns3:TrackPointExtension>
        </extensions>
      </trkpt>
      <trkpt lat="45.29514516703784465789794921875" lon="-70.838020853698253631591796875">
        <ele>1156.5999755859375</ele>
        <time>2026-08-21T14:07:23.000Z</time>
        <extensions>
          <ns3:TrackPointExtension>
            <ns3:hr>151</ns3:hr>
            <ns3:cad>77</ns3:cad>
          </ns3:TrackPointExtension>
        </extensions>
      </trkpt>
      <trkpt lat="45.29515036381781101226806640625" lon="-70.83804608322679996490478515625">
        <ele>1156.4000244140625</ele>
        <time>2026-08-21T14:07:24.000Z</time>
        <extensions>
          <ns3:TrackPointExtension>
            <ns3:hr>151</ns3:hr>
            <ns3:cad>77</ns3:cad>
          </ns3:TrackPointExtension>
        </extensions>
      </trkpt>
      <trkpt lat="45.29515765607357025146484375" lon="-70.8380734920501708984375">
        <ele>1156.199951171875</ele>
        <time>2026-08-21T14:07:25.000Z</time>
        <extensions>
          <ns3:TrackPointExtension>
            <ns3:hr>151</ns3:hr>
            <ns3:cad>76</ns3:cad>
          </ns3:TrackPointExtension>
        </extensions>
      </trkpt>
      <trkpt lat="45.29516167938709259033203125" lon="-70.838098637759685516357421875">
        <ele>1156</ele>
        <time>2026-08-21T14:07:26.000Z</time>
        <extensions>
          <ns3:TrackPointExtension>
            <ns3:hr>151</ns3:hr>
            <ns3:cad>76</ns3:cad>
          </ns3:TrackPointExtension>
        </extensions>
      </trkpt>
      <trkpt lat="45.29516436159610748291015625" lon="-70.8381226100027561187744140625">
        <ele>1155.800048828125</ele>
        <time>2026-08-21T14:07:27.000Z</time>
        <extensions>
          <ns3:TrackPointExtension>
            <ns3:hr>150</ns3:hr>
            <ns3:cad>75</ns3:cad>
          </ns3:TrackPointExtension>
        </extensions>
      </trkpt>
      <trkpt lat="45.29516528360545635223388671875" lon="-70.8381514437496662139892578125">
        <ele>1155.5999755859375</ele>
        <time>2026-08-21T14:07:28.000Z</time>
        <extensions>
          <ns3:TrackPointExtension>
            <ns3:hr>150</ns3:hr>
            <ns3:cad>75</ns3:cad>
          </ns3:TrackPointExtension>
        </extensions>
      </trkpt>
      <trkpt lat="45.29516528360545635223388671875" lon="-70.83818304352462291717529296875">
        <ele>1155.5999755859375</ele>
        <time>2026-08-21T14:07:29.000Z</time>
        <extensions>
          <ns3:TrackPointExtension>
            <ns3:hr>150</ns3:hr>
            <ns3:cad>75</ns3:cad>
          </ns3:TrackPointExtension>
        </extensions>
      </trkpt>
      <trkpt lat="45.295167379081249237060546875" lon="-70.83820885978639125823974609375">
        <ele>1155.5999755859375</ele>
        <time>2026-08-21T14:07:30.000Z</time>
        <extensions>
          <ns3:TrackPointExtension>
            <ns3:hr>151</ns3:hr>
            <ns3:cad>74</ns3:cad>
          </ns3:TrackPointExtension>
        </extensions>
      </trkpt>
      <trkpt lat="45.29517081566154956817626953125" lon="-70.83823434077203273773193359375">
        <ele>1155.5999755859375</ele>
        <time>2026-08-21T14:07:31.000Z</time>
        <extensions>
          <ns3:TrackPointExtension>
            <ns3:hr>151</ns3:hr>
            <ns3:cad>74</ns3:cad>
          </ns3:TrackPointExtension>
        </extensions>
      </trkpt>
      <trkpt lat="45.2951730787754058837890625" lon="-70.83827306516468524932861328125">
        <ele>1155.5999755859375</ele>
        <time>2026-08-21T14:07:32.000Z</time>
        <extensions>
          <ns3:TrackPointExtension>
            <ns3:hr>150</ns3:hr>
            <ns3:cad>74</ns3:cad>
          </ns3:TrackPointExtension>
        </extensions>
      </trkpt>
      <trkpt lat="45.29517752118408679962158203125" lon="-70.83830307237803936004638671875">
        <ele>1155.5999755859375</ele>
        <time>2026-08-21T14:07:33.000Z</time>
        <extensions>
          <ns3:TrackPointExtension>
            <ns3:hr>150</ns3:hr>
            <ns3:cad>77</ns3:cad>
          </ns3:TrackPointExtension>
        </extensions>
      </trkpt>
      <trkpt lat="45.29517970047891139984130859375" lon="-70.8383314870297908782958984375">
        <ele>1155.800048828125</ele>
        <time>2026-08-21T14:07:34.000Z</time>
        <extensions>
          <ns3:TrackPointExtension>
            <ns3:hr>150</ns3:hr>
            <ns3:cad>77</ns3:cad>
          </ns3:TrackPointExtension>
        </extensions>
      </trkpt>
      <trkpt lat="45.29518187977373600006103515625" lon="-70.83835621364414691925048828125">
        <ele>1155.800048828125</ele>
        <time>2026-08-21T14:07:35.000Z</time>
        <extensions>
          <ns3:TrackPointExtension>
            <ns3:hr>149</ns3:hr>
            <ns3:cad>77</ns3:cad>
          </ns3:TrackPointExtension>
        </extensions>
      </trkpt>
      <trkpt lat="45.2951903454959392547607421875" lon="-70.83838940598070621490478515625">
        <ele>1155.800048828125</ele>
        <time>2026-08-21T14:07:36.000Z</time>
        <extensions>
          <ns3:TrackPointExtension>
            <ns3:hr>149</ns3:hr>
            <ns3:cad>77</ns3:cad>
          </ns3:TrackPointExtension>
        </extensions>
      </trkpt>
      <trkpt lat="45.29519881121814250946044921875" lon="-70.83842058666050434112548828125">
        <ele>1155.800048828125</ele>
        <time>2026-08-21T14:07:37.000Z</time>
        <extensions>
          <ns3:TrackPointExtension>
            <ns3:hr>149</ns3:hr>
            <ns3:cad>77</ns3:cad>
          </ns3:TrackPointExtension>
        </extensions>
      </trkpt>
      <trkpt lat="45.29520601965487003326416015625" lon="-70.83844288252294063568115234375">
        <ele>1155.800048828125</ele>
        <time>2026-08-21T14:07:38.000Z</time>
        <extensions>
          <ns3:TrackPointExtension>
            <ns3:hr>148</ns3:hr>
            <ns3:cad>77</ns3:cad>
          </ns3:TrackPointExtension>
        </extensions>
      </trkpt>
      <trkpt lat="45.2952128089964389801025390625" lon="-70.8384803496301174163818359375">
        <ele>1155.5999755859375</ele>
        <time>2026-08-21T14:07:39.000Z</time>
        <extensions>
          <ns3:TrackPointExtension>
            <ns3:hr>147</ns3:hr>
            <ns3:cad>77</ns3:cad>
          </ns3:TrackPointExtension>
        </extensions>
      </trkpt>
      <trkpt lat="45.2952175028622150421142578125" lon="-70.83850331604480743408203125">
        <ele>1155.5999755859375</ele>
        <time>2026-08-21T14:07:40.000Z</time>
        <extensions>
          <ns3:TrackPointExtension>
            <ns3:hr>147</ns3:hr>
            <ns3:cad>77</ns3:cad>
          </ns3:TrackPointExtension>
        </extensions>
      </trkpt>
      <trkpt lat="45.29522311873733997344970703125" lon="-70.83852468989789485931396484375">
        <ele>1155.4000244140625</ele>
        <time>2026-08-21T14:07:41.000Z</time>
        <extensions>
          <ns3:TrackPointExtension>
            <ns3:hr>146</ns3:hr>
            <ns3:cad>77</ns3:cad>
          </ns3:TrackPointExtension>
        </extensions>
      </trkpt>
      <trkpt lat="45.29522898606956005096435546875" lon="-70.83854866214096546173095703125">
        <ele>1155.199951171875</ele>
        <time>2026-08-21T14:07:42.000Z</time>
        <extensions>
          <ns3:TrackPointExtension>
            <ns3:hr>146</ns3:hr>
            <ns3:cad>77</ns3:cad>
          </ns3:TrackPointExtension>
        </extensions>
      </trkpt>
      <trkpt lat="45.29523485340178012847900390625" lon="-70.83857866935431957244873046875">
        <ele>1155.199951171875</ele>
        <time>2026-08-21T14:07:43.000Z</time>
        <extensions>
          <ns3:TrackPointExtension>
            <ns3:hr>146</ns3:hr>
            <ns3:cad>77</ns3:cad>
          </ns3:TrackPointExtension>
        </extensions>
      </trkpt>
      <trkpt lat="45.295241139829158782958984375" lon="-70.838603563606739044189453125">
        <ele>1155</ele>
        <time>2026-08-21T14:07:44.000Z</time>
        <extensions>
          <ns3:TrackPointExtension>
            <ns3:hr>145</ns3:hr>
            <ns3:cad>77</ns3:cad>
          </ns3:TrackPointExtension>
        </extensions>
      </trkpt>
      <trkpt lat="45.295245833694934844970703125" lon="-70.8386282064020633697509765625">
        <ele>1154.800048828125</ele>
        <time>2026-08-21T14:07:45.000Z</time>
        <extensions>
          <ns3:TrackPointExtension>
            <ns3:hr>145</ns3:hr>
            <ns3:cad>77</ns3:cad>
          </ns3:TrackPointExtension>
        </extensions>
      </trkpt>
      <trkpt lat="45.295253209769725799560546875" lon="-70.8386644162237644195556640625">
        <ele>1154.5999755859375</ele>
        <time>2026-08-21T14:07:46.000Z</time>
        <extensions>
          <ns3:TrackPointExtension>
            <ns3:hr>144</ns3:hr>
            <ns3:cad>77</ns3:cad>
          </ns3:TrackPointExtension>
        </extensions>
      </trkpt>
      <trkpt lat="45.295257903635501861572265625" lon="-70.83868713118135929107666015625">
        <ele>1154.4000244140625</ele>
        <time>2026-08-21T14:07:47.000Z</time>
        <extensions>
          <ns3:TrackPointExtension>
            <ns3:hr>144</ns3:hr>
            <ns3:cad>77</ns3:cad>
          </ns3:TrackPointExtension>
        </extensions>
      </trkpt>
      <trkpt lat="45.29526703990995883941650390625" lon="-70.83870976231992244720458984375">
        <ele>1154</ele>
        <time>2026-08-21T14:07:48.000Z</time>
        <extensions>
          <ns3:TrackPointExtension>
            <ns3:hr>143</ns3:hr>
            <ns3:cad>77</ns3:cad>
          </ns3:TrackPointExtension>
        </extensions>
      </trkpt>
      <trkpt lat="45.2952758409082889556884765625" lon="-70.83873423747718334197998046875">
        <ele>1154</ele>
        <time>2026-08-21T14:07:49.000Z</time>
        <extensions>
          <ns3:TrackPointExtension>
            <ns3:hr>143</ns3:hr>
            <ns3:cad>75</ns3:cad>
          </ns3:TrackPointExtension>
        </extensions>
      </trkpt>
      <trkpt lat="45.295280702412128448486328125" lon="-70.83876005373895168304443359375">
        <ele>1153.5999755859375</ele>
        <time>2026-08-21T14:07:50.000Z</time>
        <extensions>
          <ns3:TrackPointExtension>
            <ns3:hr>143</ns3:hr>
            <ns3:cad>75</ns3:cad>
          </ns3:TrackPointExtension>
        </extensions>
      </trkpt>
      <trkpt lat="45.29528464190661907196044921875" lon="-70.83879140205681324005126953125">
        <ele>1153.4000244140625</ele>
        <time>2026-08-21T14:07:51.000Z</time>
        <extensions>
          <ns3:TrackPointExtension>
            <ns3:hr>143</ns3:hr>
            <ns3:cad>75</ns3:cad>
          </ns3:TrackPointExtension>
        </extensions>
      </trkpt>
      <trkpt lat="45.29528908431529998779296875" lon="-70.83881369791924953460693359375">
        <ele>1153.199951171875</ele>
        <time>2026-08-21T14:07:52.000Z</time>
        <extensions>
          <ns3:TrackPointExtension>
            <ns3:hr>144</ns3:hr>
            <ns3:cad>75</ns3:cad>
          </ns3:TrackPointExtension>
        </extensions>
      </trkpt>
      <trkpt lat="45.295292437076568603515625" lon="-70.8388421125710010528564453125">
        <ele>1153.199951171875</ele>
        <time>2026-08-21T14:07:53.000Z</time>
        <extensions>
          <ns3:TrackPointExtension>
            <ns3:hr>143</ns3:hr>
            <ns3:cad>75</ns3:cad>
          </ns3:TrackPointExtension>
        </extensions>
      </trkpt>
      <trkpt lat="45.295294784009456634521484375" lon="-70.8388689346611499786376953125">
        <ele>1153.199951171875</ele>
        <time>2026-08-21T14:07:54.000Z</time>
        <extensions>
          <ns3:TrackPointExtension>
            <ns3:hr>144</ns3:hr>
            <ns3:cad>75</ns3:cad>
          </ns3:TrackPointExtension>
        </extensions>
      </trkpt>
      <trkpt lat="45.29529939405620098114013671875" lon="-70.83889902569353580474853515625">
        <ele>1153</ele>
        <time>2026-08-21T14:07:55.000Z</time>
        <extensions>
          <ns3:TrackPointExtension>
            <ns3:hr>144</ns3:hr>
            <ns3:cad>75</ns3:cad>
          </ns3:TrackPointExtension>
        </extensions>
      </trkpt>
      <trkpt lat="45.29529989697039127349853515625" lon="-70.83892819471657276153564453125">
        <ele>1153</ele>
        <time>2026-08-21T14:07:56.000Z</time>
        <extensions>
          <ns3:TrackPointExtension>
            <ns3:hr>144</ns3:hr>
            <ns3:cad>75</ns3:cad>
          </ns3:TrackPointExtension>
        </extensions>
      </trkpt>
      <trkpt lat="45.2953019924461841583251953125" lon="-70.83895149640738964080810546875">
        <ele>1152.800048828125</ele>
        <time>2026-08-21T14:07:57.000Z</time>
        <extensions>
          <ns3:TrackPointExtension>
            <ns3:hr>144</ns3:hr>
            <ns3:cad>75</ns3:cad>
          </ns3:TrackPointExtension>
        </extensions>
      </trkpt>
      <trkpt lat="45.29530425556004047393798828125" lon="-70.838977396488189697265625">
        <ele>1152.5999755859375</ele>
        <time>2026-08-21T14:07:58.000Z</time>
        <extensions>
          <ns3:TrackPointExtension>
            <ns3:hr>144</ns3:hr>
            <ns3:cad>75</ns3:cad>
          </ns3:TrackPointExtension>
        </extensions>
      </trkpt>
      <trkpt lat="45.29530442319810390472412109375" lon="-70.839008577167987823486328125">
        <ele>1152.5999755859375</ele>
        <time>2026-08-21T14:07:59.000Z</time>
        <extensions>
          <ns3:TrackPointExtension>
            <ns3:hr>144</ns3:hr>
            <ns3:cad>75</ns3:cad>
          </ns3:TrackPointExtension>
        </extensions>
      </trkpt>
      <trkpt lat="45.29529771767556667327880859375" lon="-70.839040763676166534423828125">
        <ele>1152.4000244140625</ele>
        <time>2026-08-21T14:08:00.000Z</time>
        <extensions>
          <ns3:TrackPointExtension>
            <ns3:hr>144</ns3:hr>
            <ns3:cad>75</ns3:cad>
          </ns3:TrackPointExtension>
        </extensions>
      </trkpt>
      <trkpt lat="45.29529889114201068878173828125" lon="-70.83906716667115688323974609375">
        <ele>1152.4000244140625</ele>
        <time>2026-08-21T14:08:01.000Z</time>
        <extensions>
          <ns3:TrackPointExtension>
            <ns3:hr>144</ns3:hr>
            <ns3:cad>75</ns3:cad>
          </ns3:TrackPointExtension>
        </extensions>
      </trkpt>
      <trkpt lat="45.29530140571296215057373046875" lon="-70.83910086192190647125244140625">
        <ele>1152.5999755859375</ele>
        <time>2026-08-21T14:08:02.000Z</time>
        <extensions>
          <ns3:TrackPointExtension>
            <ns3:hr>144</ns3:hr>
            <ns3:cad>75</ns3:cad>
          </ns3:TrackPointExtension>
        </extensions>
      </trkpt>
      <trkpt lat="45.2953023277223110198974609375" lon="-70.83913229405879974365234375">
        <ele>1152.5999755859375</ele>
        <time>2026-08-21T14:08:03.000Z</time>
        <extensions>
          <ns3:TrackPointExtension>
            <ns3:hr>144</ns3:hr>
            <ns3:cad>75</ns3:cad>
          </ns3:TrackPointExtension>
        </extensions>
      </trkpt>
      <trkpt lat="45.29530090279877185821533203125" lon="-70.8391589485108852386474609375">
        <ele>1152.4000244140625</ele>
        <time>2026-08-21T14:08:04.000Z</time>
        <extensions>
          <ns3:TrackPointExtension>
            <ns3:hr>144</ns3:hr>
            <ns3:cad>76</ns3:cad>
          </ns3:TrackPointExtension>
        </extensions>
      </trkpt>
      <trkpt lat="45.29529939405620098114013671875" lon="-70.83918325603008270263671875">
        <ele>1152.4000244140625</ele>
        <time>2026-08-21T14:08:05.000Z</time>
        <extensions>
          <ns3:TrackPointExtension>
            <ns3:hr>144</ns3:hr>
            <ns3:cad>76</ns3:cad>
          </ns3:TrackPointExtension>
        </extensions>
      </trkpt>
      <trkpt lat="45.29529738239943981170654296875" lon="-70.83920873701572418212890625">
        <ele>1152.199951171875</ele>
        <time>2026-08-21T14:08:06.000Z</time>
        <extensions>
          <ns3:TrackPointExtension>
            <ns3:hr>143</ns3:hr>
            <ns3:cad>76</ns3:cad>
          </ns3:TrackPointExtension>
        </extensions>
      </trkpt>
      <trkpt lat="45.29529654420912265777587890625" lon="-70.8392389118671417236328125">
        <ele>1152</ele>
        <time>2026-08-21T14:08:07.000Z</time>
        <extensions>
          <ns3:TrackPointExtension>
            <ns3:hr>143</ns3:hr>
            <ns3:cad>76</ns3:cad>
          </ns3:TrackPointExtension>
        </extensions>
      </trkpt>
      <trkpt lat="45.2952959574759006500244140625" lon="-70.83927042782306671142578125">
        <ele>1152</ele>
        <time>2026-08-21T14:08:08.000Z</time>
        <extensions>
          <ns3:TrackPointExtension>
            <ns3:hr>143</ns3:hr>
            <ns3:cad>76</ns3:cad>
          </ns3:TrackPointExtension>
        </extensions>
      </trkpt>
      <trkpt lat="45.295294113457202911376953125" lon="-70.839302279055118560791015625">
        <ele>1151.800048828125</ele>
        <time>2026-08-21T14:08:09.000Z</time>
        <extensions>
          <ns3:TrackPointExtension>
            <ns3:hr>143</ns3:hr>
            <ns3:cad>76</ns3:cad>
          </ns3:TrackPointExtension>
        </extensions>
      </trkpt>
      <trkpt lat="45.29529604129493236541748046875" lon="-70.83933622576296329498291015625">
        <ele>1151.5999755859375</ele>
        <time>2026-08-21T14:08:10.000Z</time>
        <extensions>
          <ns3:TrackPointExtension>
            <ns3:hr>142</ns3:hr>
            <ns3:cad>76</ns3:cad>
          </ns3:TrackPointExtension>
        </extensions>
      </trkpt>
      <trkpt lat="45.2952993102371692657470703125" lon="-70.8393584378063678741455078125">
        <ele>1151.5999755859375</ele>
        <time>2026-08-21T14:08:11.000Z</time>
        <extensions>
          <ns3:TrackPointExtension>
            <ns3:hr>142</ns3:hr>
            <ns3:cad>0</ns3:cad>
          </ns3:TrackPointExtension>
        </extensions>
      </trkpt>
      <trkpt lat="45.2952996455132961273193359375" lon="-70.8393822424113750457763671875">
        <ele>1151.4000244140625</ele>
        <time>2026-08-21T14:08:12.000Z</time>
        <extensions>
          <ns3:TrackPointExtension>
            <ns3:hr>142</ns3:hr>
            <ns3:cad>0</ns3:cad>
          </ns3:TrackPointExtension>
        </extensions>
      </trkpt>
      <trkpt lat="45.29529981315135955810546875" lon="-70.8394204638898372650146484375">
        <ele>1151.4000244140625</ele>
        <time>2026-08-21T14:08:13.000Z</time>
        <extensions>
          <ns3:TrackPointExtension>
            <ns3:hr>142</ns3:hr>
            <ns3:cad>0</ns3:cad>
          </ns3:TrackPointExtension>
        </extensions>
      </trkpt>
      <trkpt lat="45.29529822058975696563720703125" lon="-70.839447118341922760009765625">
        <ele>1151.199951171875</ele>
        <time>2026-08-21T14:08:14.000Z</time>
        <extensions>
          <ns3:TrackPointExtension>
            <ns3:hr>142</ns3:hr>
            <ns3:cad>0</ns3:cad>
          </ns3:TrackPointExtension>
        </extensions>
      </trkpt>
      <trkpt lat="45.29529805295169353485107421875" lon="-70.83947435952723026275634765625">
        <ele>1151.199951171875</ele>
        <time>2026-08-21T14:08:15.000Z</time>
        <extensions>
          <ns3:TrackPointExtension>
            <ns3:hr>142</ns3:hr>
            <ns3:cad>0</ns3:cad>
          </ns3:TrackPointExtension>
        </extensions>
      </trkpt>
      <trkpt lat="45.29529285617172718048095703125" lon="-70.83950771950185298919677734375">
        <ele>1151</ele>
        <time>2026-08-21T14:08:16.000Z</time>
        <extensions>
          <ns3:TrackPointExtension>
            <ns3:hr>141</ns3:hr>
            <ns3:cad>0</ns3:cad>
          </ns3:TrackPointExtension>
        </extensions>
      </trkpt>
      <trkpt lat="45.29529218561947345733642578125" lon="-70.8395421691238880157470703125">
        <ele>1150.800048828125</ele>
        <time>2026-08-21T14:08:17.000Z</time>
        <extensions>
          <ns3:TrackPointExtension>
            <ns3:hr>141</ns3:hr>
            <ns3:cad>78</ns3:cad>
          </ns3:TrackPointExtension>
        </extensions>
      </trkpt>
      <trkpt lat="45.2952962927520275115966796875" lon="-70.83957544527947902679443359375">
        <ele>1150.5999755859375</ele>
        <time>2026-08-21T14:08:18.000Z</time>
        <extensions>
          <ns3:TrackPointExtension>
            <ns3:hr>141</ns3:hr>
            <ns3:cad>78</ns3:cad>
          </ns3:TrackPointExtension>
        </extensions>
      </trkpt>
      <trkpt lat="45.29529335908591747283935546875" lon="-70.83961106836795806884765625">
        <ele>1150.5999755859375</ele>
        <time>2026-08-21T14:08:19.000Z</time>
        <extensions>
          <ns3:TrackPointExtension>
            <ns3:hr>141</ns3:hr>
            <ns3:cad>78</ns3:cad>
          </ns3:TrackPointExtension>
        </extensions>
      </trkpt>
      <trkpt lat="45.2952845580875873565673828125" lon="-70.8396466076374053955078125">
        <ele>1150.5999755859375</ele>
        <time>2026-08-21T14:08:20.000Z</time>
        <extensions>
          <ns3:TrackPointExtension>
            <ns3:hr>141</ns3:hr>
            <ns3:cad>78</ns3:cad>
          </ns3:TrackPointExtension>
        </extensions>
      </trkpt>
      <trkpt lat="45.29528346844017505645751953125" lon="-70.83967301063239574432373046875">
        <ele>1150.4000244140625</ele>
        <time>2026-08-21T14:08:21.000Z</time>
        <extensions>
          <ns3:TrackPointExtension>
            <ns3:hr>141</ns3:hr>
            <ns3:cad>0</ns3:cad>
          </ns3:TrackPointExtension>
        </extensions>
      </trkpt>
      <trkpt lat="45.2952825464308261871337890625" lon="-70.8397044427692890167236328125">
        <ele>1150.4000244140625</ele>
        <time>2026-08-21T14:08:22.000Z</time>
        <extensions>
          <ns3:TrackPointExtension>
            <ns3:hr>140</ns3:hr>
            <ns3:cad>0</ns3:cad>
          </ns3:TrackPointExtension>
        </extensions>
      </trkpt>
      <trkpt lat="45.2952812053263187408447265625" lon="-70.8397285826504230499267578125">
        <ele>1150.5999755859375</ele>
        <time>2026-08-21T14:08:23.000Z</time>
        <extensions>
          <ns3:TrackPointExtension>
            <ns3:hr>141</ns3:hr>
            <ns3:cad>0</ns3:cad>
          </ns3:TrackPointExtension>
        </extensions>
      </trkpt>
      <trkpt lat="45.29528095386922359466552734375" lon="-70.8397533930838108062744140625">
        <ele>1150.4000244140625</ele>
        <time>2026-08-21T14:08:24.000Z</time>
        <extensions>
          <ns3:TrackPointExtension>
            <ns3:hr>141</ns3:hr>
            <ns3:cad>0</ns3:cad>
          </ns3:TrackPointExtension>
        </extensions>
      </trkpt>
      <trkpt lat="45.29527835547924041748046875" lon="-70.83978566341102123260498046875">
        <ele>1150.4000244140625</ele>
        <time>2026-08-21T14:08:25.000Z</time>
        <extensions>
          <ns3:TrackPointExtension>
            <ns3:hr>140</ns3:hr>
            <ns3:cad>0</ns3:cad>
          </ns3:TrackPointExtension>
        </extensions>
      </trkpt>
      <trkpt lat="45.29527525417506694793701171875" lon="-70.83981759846210479736328125">
        <ele>1150.4000244140625</ele>
        <time>2026-08-21T14:08:26.000Z</time>
        <extensions>
          <ns3:TrackPointExtension>
            <ns3:hr>140</ns3:hr>
            <ns3:cad>78</ns3:cad>
          </ns3:TrackPointExtension>
        </extensions>
      </trkpt>
      <trkpt lat="45.295272655785083770751953125" lon="-70.8398512937128543853759765625">
        <ele>1150.199951171875</ele>
        <time>2026-08-21T14:08:27.000Z</time>
        <extensions>
          <ns3:TrackPointExtension>
            <ns3:hr>140</ns3:hr>
            <ns3:cad>78</ns3:cad>
          </ns3:TrackPointExtension>
        </extensions>
      </trkpt>
      <trkpt lat="45.29527022503316402435302734375" lon="-70.83988104946911334991455078125">
        <ele>1150.199951171875</ele>
        <time>2026-08-21T14:08:28.000Z</time>
        <extensions>
          <ns3:TrackPointExtension>
            <ns3:hr>141</ns3:hr>
            <ns3:cad>78</ns3:cad>
          </ns3:TrackPointExtension>
        </extensions>
      </trkpt>
      <trkpt lat="45.29527223668992519378662109375" lon="-70.83990401588380336761474609375">
        <ele>1150</ele>
        <time>2026-08-21T14:08:29.000Z</time>
        <extensions>
          <ns3:TrackPointExtension>
            <ns3:hr>140</ns3:hr>
            <ns3:cad>78</ns3:cad>
          </ns3:TrackPointExtension>
        </extensions>
      </trkpt>
      <trkpt lat="45.29527424834668636322021484375" lon="-70.8399309217929840087890625">
        <ele>1150</ele>
        <time>2026-08-21T14:08:30.000Z</time>
        <extensions>
          <ns3:TrackPointExtension>
            <ns3:hr>140</ns3:hr>
            <ns3:cad>78</ns3:cad>
          </ns3:TrackPointExtension>
        </extensions>
      </trkpt>
      <trkpt lat="45.29527357779443264007568359375" lon="-70.83996771834790706634521484375">
        <ele>1150</ele>
        <time>2026-08-21T14:08:31.000Z</time>
        <extensions>
          <ns3:TrackPointExtension>
            <ns3:hr>140</ns3:hr>
            <ns3:cad>79</ns3:cad>
          </ns3:TrackPointExtension>
        </extensions>
      </trkpt>
      <trkpt lat="45.295278020203113555908203125" lon="-70.83999386988580226898193359375">
        <ele>1149.800048828125</ele>
        <time>2026-08-21T14:08:32.000Z</time>
        <extensions>
          <ns3:TrackPointExtension>
            <ns3:hr>140</ns3:hr>
            <ns3:cad>79</ns3:cad>
          </ns3:TrackPointExtension>
        </extensions>
      </trkpt>
      <trkpt lat="45.29527843929827213287353515625" lon="-70.84002002142369747161865234375">
        <ele>1149.800048828125</ele>
        <time>2026-08-21T14:08:33.000Z</time>
        <extensions>
          <ns3:TrackPointExtension>
            <ns3:hr>140</ns3:hr>
            <ns3:cad>78</ns3:cad>
          </ns3:TrackPointExtension>
        </extensions>
      </trkpt>
      <trkpt lat="45.29527642764151096343994140625" lon="-70.84005405195057392120361328125">
        <ele>1149.800048828125</ele>
        <time>2026-08-21T14:08:34.000Z</time>
        <extensions>
          <ns3:TrackPointExtension>
            <ns3:hr>140</ns3:hr>
            <ns3:cad>78</ns3:cad>
          </ns3:TrackPointExtension>
        </extensions>
      </trkpt>
      <trkpt lat="45.29527542181313037872314453125" lon="-70.84008581936359405517578125">
        <ele>1149.800048828125</ele>
        <time>2026-08-21T14:08:35.000Z</time>
        <extensions>
          <ns3:TrackPointExtension>
            <ns3:hr>140</ns3:hr>
            <ns3:cad>78</ns3:cad>
          </ns3:TrackPointExtension>
        </extensions>
      </trkpt>
      <trkpt lat="45.29527357779443264007568359375" lon="-70.84011741913855075836181640625">
        <ele>1149.5999755859375</ele>
        <time>2026-08-21T14:08:36.000Z</time>
        <extensions>
          <ns3:TrackPointExtension>
            <ns3:hr>141</ns3:hr>
            <ns3:cad>78</ns3:cad>
          </ns3:TrackPointExtension>
        </extensions>
      </trkpt>
      <trkpt lat="45.2952758409082889556884765625" lon="-70.840149186551570892333984375">
        <ele>1149.5999755859375</ele>
        <time>2026-08-21T14:08:37.000Z</time>
        <extensions>
          <ns3:TrackPointExtension>
            <ns3:hr>140</ns3:hr>
            <ns3:cad>78</ns3:cad>
          </ns3:TrackPointExtension>
        </extensions>
      </trkpt>
      <trkpt lat="45.29527676291763782501220703125" lon="-70.8401765115559101104736328125">
        <ele>1149.5999755859375</ele>
        <time>2026-08-21T14:08:38.000Z</time>
        <extensions>
          <ns3:TrackPointExtension>
            <ns3:hr>140</ns3:hr>
            <ns3:cad>78</ns3:cad>
          </ns3:TrackPointExtension>
        </extensions>
      </trkpt>
      <trkpt lat="45.29527408070862293243408203125" lon="-70.840202830731868743896484375">
        <ele>1149.5999755859375</ele>
        <time>2026-08-21T14:08:39.000Z</time>
        <extensions>
          <ns3:TrackPointExtension>
            <ns3:hr>140</ns3:hr>
            <ns3:cad>78</ns3:cad>
          </ns3:TrackPointExtension>
        </extensions>
      </trkpt>
      <trkpt lat="45.29527005739510059356689453125" lon="-70.84023610688745975494384765625">
        <ele>1149.4000244140625</ele>
        <time>2026-08-21T14:08:40.000Z</time>
        <extensions>
          <ns3:TrackPointExtension>
            <ns3:hr>140</ns3:hr>
            <ns3:cad>78</ns3:cad>
          </ns3:TrackPointExtension>
        </extensions>
      </trkpt>
      <trkpt lat="45.2952694706618785858154296875" lon="-70.84026552736759185791015625">
        <ele>1149.4000244140625</ele>
        <time>2026-08-21T14:08:41.000Z</time>
        <extensions>
          <ns3:TrackPointExtension>
            <ns3:hr>140</ns3:hr>
            <ns3:cad>75</ns3:cad>
          </ns3:TrackPointExtension>
        </extensions>
      </trkpt>
      <trkpt lat="45.29526955448091030120849609375" lon="-70.840297378599643707275390625">
        <ele>1149.4000244140625</ele>
        <time>2026-08-21T14:08:42.000Z</time>
        <extensions>
          <ns3:TrackPointExtension>
            <ns3:hr>140</ns3:hr>
            <ns3:cad>75</ns3:cad>
          </ns3:TrackPointExtension>
        </extensions>
      </trkpt>
      <trkpt lat="45.29526536352932453155517578125" lon="-70.8403280563652515411376953125">
        <ele>1149.4000244140625</ele>
        <time>2026-08-21T14:08:43.000Z</time>
        <extensions>
          <ns3:TrackPointExtension>
            <ns3:hr>140</ns3:hr>
            <ns3:cad>75</ns3:cad>
          </ns3:TrackPointExtension>
        </extensions>
      </trkpt>
      <trkpt lat="45.29526284895837306976318359375" lon="-70.840353034436702728271484375">
        <ele>1149.199951171875</ele>
        <time>2026-08-21T14:08:44.000Z</time>
        <extensions>
          <ns3:TrackPointExtension>
            <ns3:hr>140</ns3:hr>
            <ns3:cad>75</ns3:cad>
          </ns3:TrackPointExtension>
        </extensions>
      </trkpt>
      <trkpt lat="45.29526368714869022369384765625" lon="-70.8403800241649150848388671875">
        <ele>1149.199951171875</ele>
        <time>2026-08-21T14:08:45.000Z</time>
        <extensions>
          <ns3:TrackPointExtension>
            <ns3:hr>140</ns3:hr>
            <ns3:cad>75</ns3:cad>
          </ns3:TrackPointExtension>
        </extensions>
      </trkpt>
      <trkpt lat="45.29526335187256336212158203125" lon="-70.840407349169254302978515625">
        <ele>1149.199951171875</ele>
        <time>2026-08-21T14:08:46.000Z</time>
        <extensions>
          <ns3:TrackPointExtension>
            <ns3:hr>140</ns3:hr>
            <ns3:cad>75</ns3:cad>
          </ns3:TrackPointExtension>
        </extensions>
      </trkpt>
      <trkpt lat="45.29525958001613616943359375" lon="-70.8404350094497203826904296875">
        <ele>1149</ele>
        <time>2026-08-21T14:08:47.000Z</time>
        <extensions>
          <ns3:TrackPointExtension>
            <ns3:hr>140</ns3:hr>
            <ns3:cad>75</ns3:cad>
          </ns3:TrackPointExtension>
        </extensions>
      </trkpt>
      <trkpt lat="45.2952574007213115692138671875" lon="-70.8404568023979663848876953125">
        <ele>1148.800048828125</ele>
        <time>2026-08-21T14:08:48.000Z</time>
        <extensions>
          <ns3:TrackPointExtension>
            <ns3:hr>141</ns3:hr>
            <ns3:cad>74</ns3:cad>
          </ns3:TrackPointExtension>
        </extensions>
      </trkpt>
      <trkpt lat="45.29525983147323131561279296875" lon="-70.84047683514654636383056640625">
        <ele>1148.5999755859375</ele>
        <time>2026-08-21T14:08:49.000Z</time>
        <extensions>
          <ns3:TrackPointExtension>
            <ns3:hr>141</ns3:hr>
            <ns3:cad>74</ns3:cad>
          </ns3:TrackPointExtension>
        </extensions>
      </trkpt>
      <trkpt lat="45.29525882564485073089599609375" lon="-70.84049812518060207366943359375">
        <ele>1148.4000244140625</ele>
        <time>2026-08-21T14:08:50.000Z</time>
        <extensions>
          <ns3:TrackPointExtension>
            <ns3:hr>141</ns3:hr>
            <ns3:cad>72</ns3:cad>
          </ns3:TrackPointExtension>
        </extensions>
      </trkpt>
      <trkpt lat="45.29525731690227985382080078125" lon="-70.84052092395722866058349609375">
        <ele>1148.199951171875</ele>
        <time>2026-08-21T14:08:51.000Z</time>
        <extensions>
          <ns3:TrackPointExtension>
            <ns3:hr>142</ns3:hr>
            <ns3:cad>72</ns3:cad>
          </ns3:TrackPointExtension>
        </extensions>
      </trkpt>
      <trkpt lat="45.2952513657510280609130859375" lon="-70.84053902886807918548583984375">
        <ele>1147.800048828125</ele>
        <time>2026-08-21T14:08:52.000Z</time>
        <extensions>
          <ns3:TrackPointExtension>
            <ns3:hr>142</ns3:hr>
            <ns3:cad>72</ns3:cad>
          </ns3:TrackPointExtension>
        </extensions>
      </trkpt>
      <trkpt lat="45.2952449955046176910400390625" lon="-70.8405644260346889495849609375">
        <ele>1147.5999755859375</ele>
        <time>2026-08-21T14:08:53.000Z</time>
        <extensions>
          <ns3:TrackPointExtension>
            <ns3:hr>142</ns3:hr>
            <ns3:cad>72</ns3:cad>
          </ns3:TrackPointExtension>
        </extensions>
      </trkpt>
      <trkpt lat="45.29524407349526882171630859375" lon="-70.8405880630016326904296875">
        <ele>1147.199951171875</ele>
        <time>2026-08-21T14:08:54.000Z</time>
        <extensions>
          <ns3:TrackPointExtension>
            <ns3:hr>142</ns3:hr>
            <ns3:cad>72</ns3:cad>
          </ns3:TrackPointExtension>
        </extensions>
      </trkpt>
      <trkpt lat="45.2952436544001102447509765625" lon="-70.8406163938343524932861328125">
        <ele>1147</ele>
        <time>2026-08-21T14:08:55.000Z</time>
        <extensions>
          <ns3:TrackPointExtension>
            <ns3:hr>141</ns3:hr>
            <ns3:cad>72</ns3:cad>
          </ns3:TrackPointExtension>
        </extensions>
      </trkpt>
      <trkpt lat="45.2952413074672222137451171875" lon="-70.84064883179962635040283203125">
        <ele>1146.800048828125</ele>
        <time>2026-08-21T14:08:56.000Z</time>
        <extensions>
          <ns3:TrackPointExtension>
            <ns3:hr>141</ns3:hr>
            <ns3:cad>72</ns3:cad>
          </ns3:TrackPointExtension>
        </extensions>
      </trkpt>
      <trkpt lat="45.2952369488775730133056640625" lon="-70.8406770788133144378662109375">
        <ele>1146.4000244140625</ele>
        <time>2026-08-21T14:08:57.000Z</time>
        <extensions>
          <ns3:TrackPointExtension>
            <ns3:hr>141</ns3:hr>
            <ns3:cad>72</ns3:cad>
          </ns3:TrackPointExtension>
        </extensions>
      </trkpt>
      <trkpt lat="45.2952325902879238128662109375" lon="-70.8407033979892730712890625">
        <ele>1146.199951171875</ele>
        <time>2026-08-21T14:08:58.000Z</time>
        <extensions>
          <ns3:TrackPointExtension>
            <ns3:hr>141</ns3:hr>
            <ns3:cad>72</ns3:cad>
          </ns3:TrackPointExtension>
        </extensions>
      </trkpt>
      <trkpt lat="45.2952272258698940277099609375" lon="-70.8407354168593883514404296875">
        <ele>1146</ele>
        <time>2026-08-21T14:08:59.000Z</time>
        <extensions>
          <ns3:TrackPointExtension>
            <ns3:hr>140</ns3:hr>
            <ns3:cad>72</ns3:cad>
          </ns3:TrackPointExtension>
        </extensions>
      </trkpt>
      <trkpt lat="45.2952240407466888427734375" lon="-70.84076316095888614654541015625">
        <ele>1145.800048828125</ele>
        <time>2026-08-21T14:09:00.000Z</time>
        <extensions>
          <ns3:TrackPointExtension>
            <ns3:hr>140</ns3:hr>
            <ns3:cad>72</ns3:cad>
          </ns3:TrackPointExtension>
        </extensions>
      </trkpt>
      <trkpt lat="45.29522043652832508087158203125" lon="-70.84078864194452762603759765625">
        <ele>1145.5999755859375</ele>
        <time>2026-08-21T14:09:01.000Z</time>
        <extensions>
          <ns3:TrackPointExtension>
            <ns3:hr>140</ns3:hr>
            <ns3:cad>72</ns3:cad>
          </ns3:TrackPointExtension>
        </extensions>
      </trkpt>
      <trkpt lat="45.29521624557673931121826171875" lon="-70.8408098481595516204833984375">
        <ele>1145.4000244140625</ele>
        <time>2026-08-21T14:09:02.000Z</time>
        <extensions>
          <ns3:TrackPointExtension>
            <ns3:hr>140</ns3:hr>
            <ns3:cad>76</ns3:cad>
          </ns3:TrackPointExtension>
        </extensions>
      </trkpt>
      <trkpt lat="45.29520995914936065673828125" lon="-70.84083273075520992279052734375">
        <ele>1145.4000244140625</ele>
        <time>2026-08-21T14:09:03.000Z</time>
        <extensions>
          <ns3:TrackPointExtension>
            <ns3:hr>140</ns3:hr>
            <ns3:cad>76</ns3:cad>
          </ns3:TrackPointExtension>
        </extensions>
      </trkpt>
      <trkpt lat="45.2952004037797451019287109375" lon="-70.8408544398844242095947265625">
        <ele>1145.199951171875</ele>
        <time>2026-08-21T14:09:04.000Z</time>
        <extensions>
          <ns3:TrackPointExtension>
            <ns3:hr>139</ns3:hr>
            <ns3:cad>76</ns3:cad>
          </ns3:TrackPointExtension>
        </extensions>
      </trkpt>
      <trkpt lat="45.29519059695303440093994140625" lon="-70.8408792503178119659423828125">
        <ele>1145.199951171875</ele>
        <time>2026-08-21T14:09:05.000Z</time>
        <extensions>
          <ns3:TrackPointExtension>
            <ns3:hr>138</ns3:hr>
            <ns3:cad>76</ns3:cad>
          </ns3:TrackPointExtension>
        </extensions>
      </trkpt>
      <trkpt lat="45.2951853163540363311767578125" lon="-70.84090347401797771453857421875">
        <ele>1145</ele>
        <time>2026-08-21T14:09:06.000Z</time>
        <extensions>
          <ns3:TrackPointExtension>
            <ns3:hr>138</ns3:hr>
            <ns3:cad>76</ns3:cad>
          </ns3:TrackPointExtension>
        </extensions>
      </trkpt>
      <trkpt lat="45.29517735354602336883544921875" lon="-70.84093415178358554840087890625">
        <ele>1145</ele>
        <time>2026-08-21T14:09:07.000Z</time>
        <extensions>
          <ns3:TrackPointExtension>
            <ns3:hr>138</ns3:hr>
            <ns3:cad>77</ns3:cad>
          </ns3:TrackPointExtension>
        </extensions>
      </trkpt>
      <trkpt lat="45.2951631881296634674072265625" lon="-70.8409627340734004974365234375">
        <ele>1145</ele>
        <time>2026-08-21T14:09:08.000Z</time>
        <extensions>
          <ns3:TrackPointExtension>
            <ns3:hr>138</ns3:hr>
            <ns3:cad>77</ns3:cad>
          </ns3:TrackPointExtension>
        </extensions>
      </trkpt>
      <trkpt lat="45.29515673406422138214111328125" lon="-70.84098570048809051513671875">
        <ele>1144.800048828125</ele>
        <time>2026-08-21T14:09:09.000Z</time>
        <extensions>
          <ns3:TrackPointExtension>
            <ns3:hr>137</ns3:hr>
            <ns3:cad>76</ns3:cad>
          </ns3:TrackPointExtension>
        </extensions>
      </trkpt>
      <trkpt lat="45.2951464243233203887939453125" lon="-70.8410136960446834564208984375">
        <ele>1144.800048828125</ele>
        <time>2026-08-21T14:09:10.000Z</time>
        <extensions>
          <ns3:TrackPointExtension>
            <ns3:hr>137</ns3:hr>
            <ns3:cad>76</ns3:cad>
          </ns3:TrackPointExtension>
        </extensions>
      </trkpt>
      <trkpt lat="45.29513963498175144195556640625" lon="-70.841039009392261505126953125">
        <ele>1144.5999755859375</ele>
        <time>2026-08-21T14:09:11.000Z</time>
        <extensions>
          <ns3:TrackPointExtension>
            <ns3:hr>137</ns3:hr>
            <ns3:cad>76</ns3:cad>
          </ns3:TrackPointExtension>
        </extensions>
      </trkpt>
      <trkpt lat="45.29513326473534107208251953125" lon="-70.841063819825649261474609375">
        <ele>1144.5999755859375</ele>
        <time>2026-08-21T14:09:12.000Z</time>
        <extensions>
          <ns3:TrackPointExtension>
            <ns3:hr>138</ns3:hr>
            <ns3:cad>76</ns3:cad>
          </ns3:TrackPointExtension>
        </extensions>
      </trkpt>
      <trkpt lat="45.29512471519410610198974609375" lon="-70.84109005518257617950439453125">
        <ele>1144.4000244140625</ele>
        <time>2026-08-21T14:09:13.000Z</time>
        <extensions>
          <ns3:TrackPointExtension>
            <ns3:hr>138</ns3:hr>
            <ns3:cad>76</ns3:cad>
          </ns3:TrackPointExtension>
        </extensions>
      </trkpt>
      <trkpt lat="45.295113734900951385498046875" lon="-70.8411119319498538970947265625">
        <ele>1144.4000244140625</ele>
        <time>2026-08-21T14:09:14.000Z</time>
        <extensions>
          <ns3:TrackPointExtension>
            <ns3:hr>138</ns3:hr>
            <ns3:cad>76</ns3:cad>
          </ns3:TrackPointExtension>
        </extensions>
      </trkpt>
      <trkpt lat="45.29510174877941608428955078125" lon="-70.841138921678066253662109375">
        <ele>1144.199951171875</ele>
        <time>2026-08-21T14:09:15.000Z</time>
        <extensions>
          <ns3:TrackPointExtension>
            <ns3:hr>138</ns3:hr>
            <ns3:cad>76</ns3:cad>
          </ns3:TrackPointExtension>
        </extensions>
      </trkpt>
      <trkpt lat="45.29509403742849826812744140625" lon="-70.8411638997495174407958984375">
        <ele>1144.199951171875</ele>
        <time>2026-08-21T14:09:16.000Z</time>
        <extensions>
          <ns3:TrackPointExtension>
            <ns3:hr>138</ns3:hr>
            <ns3:cad>76</ns3:cad>
          </ns3:TrackPointExtension>
        </extensions>
      </trkpt>
      <trkpt lat="45.29508582316339015960693359375" lon="-70.841191224753856658935546875">
        <ele>1144</ele>
        <time>2026-08-21T14:09:17.000Z</time>
        <extensions>
          <ns3:TrackPointExtension>
            <ns3:hr>138</ns3:hr>
            <ns3:cad>76</ns3:cad>
          </ns3:TrackPointExtension>
        </extensions>
      </trkpt>
      <trkpt lat="45.29507794417440891265869140625" lon="-70.84121913649141788482666015625">
        <ele>1143.800048828125</ele>
        <time>2026-08-21T14:09:18.000Z</time>
        <extensions>
          <ns3:TrackPointExtension>
            <ns3:hr>138</ns3:hr>
            <ns3:cad>76</ns3:cad>
          </ns3:TrackPointExtension>
        </extensions>
      </trkpt>
      <trkpt lat="45.2950706519186496734619140625" lon="-70.841238833963871002197265625">
        <ele>1143.5999755859375</ele>
        <time>2026-08-21T14:09:19.000Z</time>
        <extensions>
          <ns3:TrackPointExtension>
            <ns3:hr>138</ns3:hr>
            <ns3:cad>76</ns3:cad>
          </ns3:TrackPointExtension>
        </extensions>
      </trkpt>
      <trkpt lat="45.295062102377414703369140625" lon="-70.841259621083736419677734375">
        <ele>1143.5999755859375</ele>
        <time>2026-08-21T14:09:20.000Z</time>
        <extensions>
          <ns3:TrackPointExtension>
            <ns3:hr>138</ns3:hr>
            <ns3:cad>76</ns3:cad>
          </ns3:TrackPointExtension>
        </extensions>
      </trkpt>
      <trkpt lat="45.295056067407131195068359375" lon="-70.841276384890079498291015625">
        <ele>1143.4000244140625</ele>
        <time>2026-08-21T14:09:21.000Z</time>
        <extensions>
          <ns3:TrackPointExtension>
            <ns3:hr>138</ns3:hr>
            <ns3:cad>76</ns3:cad>
          </ns3:TrackPointExtension>
        </extensions>
      </trkpt>
      <trkpt lat="45.2950495295226573944091796875" lon="-70.841291807591915130615234375">
        <ele>1143.199951171875</ele>
        <time>2026-08-21T14:09:22.000Z</time>
        <extensions>
          <ns3:TrackPointExtension>
            <ns3:hr>137</ns3:hr>
            <ns3:cad>76</ns3:cad>
          </ns3:TrackPointExtension>
        </extensions>
      </trkpt>
      <trkpt lat="45.29504324309527873992919921875" lon="-70.84130899049341678619384765625">
        <ele>1143</ele>
        <time>2026-08-21T14:09:23.000Z</time>
        <extensions>
          <ns3:TrackPointExtension>
            <ns3:hr>137</ns3:hr>
            <ns3:cad>76</ns3:cad>
          </ns3:TrackPointExtension>
        </extensions>
      </trkpt>
      <trkpt lat="45.2950389683246612548828125" lon="-70.8413295261561870574951171875">
        <ele>1143</ele>
        <time>2026-08-21T14:09:24.000Z</time>
        <extensions>
          <ns3:TrackPointExtension>
            <ns3:hr>137</ns3:hr>
            <ns3:cad>76</ns3:cad>
          </ns3:TrackPointExtension>
        </extensions>
      </trkpt>
      <trkpt lat="45.29503653757274150848388671875" lon="-70.84134017117321491241455078125">
        <ele>1142.800048828125</ele>
        <time>2026-08-21T14:09:25.000Z</time>
        <extensions>
          <ns3:TrackPointExtension>
            <ns3:hr>136</ns3:hr>
            <ns3:cad>76</ns3:cad>
          </ns3:TrackPointExtension>
        </extensions>
      </trkpt>
      <trkpt lat="45.2950304187834262847900390625" lon="-70.8413560129702091217041015625">
        <ele>1142.5999755859375</ele>
        <time>2026-08-21T14:09:26.000Z</time>
        <extensions>
          <ns3:TrackPointExtension>
            <ns3:hr>134</ns3:hr>
            <ns3:cad>76</ns3:cad>
          </ns3:TrackPointExtension>
        </extensions>
      </trkpt>
      <trkpt lat="45.295029915869235992431640625" lon="-70.8413747884333133697509765625">
        <ele>1142.4000244140625</ele>
        <time>2026-08-21T14:09:27.000Z</time>
        <extensions>
          <ns3:TrackPointExtension>
            <ns3:hr>134</ns3:hr>
            <ns3:cad>60</ns3:cad>
          </ns3:TrackPointExtension>
        </extensions>
      </trkpt>
      <trkpt lat="45.295027904212474822998046875" lon="-70.8413969166576862335205078125">
        <ele>1142.199951171875</ele>
        <time>2026-08-21T14:09:28.000Z</time>
        <extensions>
          <ns3:TrackPointExtension>
            <ns3:hr>134</ns3:hr>
            <ns3:cad>60</ns3:cad>
          </ns3:TrackPointExtension>
        </extensions>
      </trkpt>
      <trkpt lat="45.2950250543653964996337890625" lon="-70.84141594357788562774658203125">
        <ele>1141.800048828125</ele>
        <time>2026-08-21T14:09:29.000Z</time>
        <extensions>
          <ns3:TrackPointExtension>
            <ns3:hr>133</ns3:hr>
            <ns3:cad>58</ns3:cad>
          </ns3:TrackPointExtension>
        </extensions>
      </trkpt>
      <trkpt lat="45.29502094723284244537353515625" lon="-70.841429941356182098388671875">
        <ele>1141.5999755859375</ele>
        <time>2026-08-21T14:09:30.000Z</time>
        <extensions>
          <ns3:TrackPointExtension>
            <ns3:hr>133</ns3:hr>
            <ns3:cad>58</ns3:cad>
          </ns3:TrackPointExtension>
        </extensions>
      </trkpt>
      <trkpt lat="45.29501541517674922943115234375" lon="-70.84145584143698215484619140625">
        <ele>1141.199951171875</ele>
        <time>2026-08-21T14:09:31.000Z</time>
        <extensions>
          <ns3:TrackPointExtension>
            <ns3:hr>132</ns3:hr>
            <ns3:cad>58</ns3:cad>
          </ns3:TrackPointExtension>
        </extensions>
      </trkpt>
      <trkpt lat="45.2950099669396877288818359375" lon="-70.84147344343364238739013671875">
        <ele>1140.800048828125</ele>
        <time>2026-08-21T14:09:32.000Z</time>
        <extensions>
          <ns3:TrackPointExtension>
            <ns3:hr>132</ns3:hr>
            <ns3:cad>58</ns3:cad>
          </ns3:TrackPointExtension>
        </extensions>
      </trkpt>
      <trkpt lat="45.29500317759811878204345703125" lon="-70.84149339236319065093994140625">
        <ele>1140.4000244140625</ele>
        <time>2026-08-21T14:09:33.000Z</time>
        <extensions>
          <ns3:TrackPointExtension>
            <ns3:hr>131</ns3:hr>
            <ns3:cad>58</ns3:cad>
          </ns3:TrackPointExtension>
        </extensions>
      </trkpt>
      <trkpt lat="45.29499915428459644317626953125" lon="-70.8415135927498340606689453125">
        <ele>1140</ele>
        <time>2026-08-21T14:09:34.000Z</time>
        <extensions>
          <ns3:TrackPointExtension>
            <ns3:hr>131</ns3:hr>
            <ns3:cad>58</ns3:cad>
          </ns3:TrackPointExtension>
        </extensions>
      </trkpt>
      <trkpt lat="45.2949891798198223114013671875" lon="-70.8415367268025875091552734375">
        <ele>1139.800048828125</ele>
        <time>2026-08-21T14:09:35.000Z</time>
        <extensions>
          <ns3:TrackPointExtension>
            <ns3:hr>131</ns3:hr>
            <ns3:cad>58</ns3:cad>
          </ns3:TrackPointExtension>
        </extensions>
      </trkpt>
      <trkpt lat="45.2949727512896060943603515625" lon="-70.841560028493404388427734375">
        <ele>1139.5999755859375</ele>
        <time>2026-08-21T14:09:36.000Z</time>
        <extensions>
          <ns3:TrackPointExtension>
            <ns3:hr>130</ns3:hr>
            <ns3:cad>58</ns3:cad>
          </ns3:TrackPointExtension>
        </extensions>
      </trkpt>
      <trkpt lat="45.29496143572032451629638671875" lon="-70.84157980978488922119140625">
        <ele>1139.5999755859375</ele>
        <time>2026-08-21T14:09:37.000Z</time>
        <extensions>
          <ns3:TrackPointExtension>
            <ns3:hr>130</ns3:hr>
            <ns3:cad>58</ns3:cad>
          </ns3:TrackPointExtension>
        </extensions>
      </trkpt>
      <trkpt lat="45.29495188035070896148681640625" lon="-70.84160638041794300079345703125">
        <ele>1139.4000244140625</ele>
        <time>2026-08-21T14:09:38.000Z</time>
        <extensions>
          <ns3:TrackPointExtension>
            <ns3:hr>130</ns3:hr>
            <ns3:cad>58</ns3:cad>
          </ns3:TrackPointExtension>
        </extensions>
      </trkpt>
      <trkpt lat="45.2949425764381885528564453125" lon="-70.84162515588104724884033203125">
        <ele>1139.4000244140625</ele>
        <time>2026-08-21T14:09:39.000Z</time>
        <extensions>
          <ns3:TrackPointExtension>
            <ns3:hr>130</ns3:hr>
            <ns3:cad>58</ns3:cad>
          </ns3:TrackPointExtension>
        </extensions>
      </trkpt>
      <trkpt lat="45.29493059031665325164794921875" lon="-70.8416461944580078125">
        <ele>1139.4000244140625</ele>
        <time>2026-08-21T14:09:40.000Z</time>
        <extensions>
          <ns3:TrackPointExtension>
            <ns3:hr>130</ns3:hr>
            <ns3:cad>58</ns3:cad>
          </ns3:TrackPointExtension>
        </extensions>
      </trkpt>
      <trkpt lat="45.2949144132435321807861328125" lon="-70.841669328510761260986328125">
        <ele>1139.4000244140625</ele>
        <time>2026-08-21T14:09:41.000Z</time>
        <extensions>
          <ns3:TrackPointExtension>
            <ns3:hr>129</ns3:hr>
            <ns3:cad>75</ns3:cad>
          </ns3:TrackPointExtension>
        </extensions>
      </trkpt>
      <trkpt lat="45.294899828732013702392578125" lon="-70.84168449975550174713134765625">
        <ele>1139.199951171875</ele>
        <time>2026-08-21T14:09:42.000Z</time>
        <extensions>
          <ns3:TrackPointExtension>
            <ns3:hr>129</ns3:hr>
            <ns3:cad>75</ns3:cad>
          </ns3:TrackPointExtension>
        </extensions>
      </trkpt>
      <trkpt lat="45.29488809406757354736328125" lon="-70.8417030237615108489990234375">
        <ele>1139.199951171875</ele>
        <time>2026-08-21T14:09:43.000Z</time>
        <extensions>
          <ns3:TrackPointExtension>
            <ns3:hr>129</ns3:hr>
            <ns3:cad>0</ns3:cad>
          </ns3:TrackPointExtension>
        </extensions>
      </trkpt>
      <trkpt lat="45.294876359403133392333984375" lon="-70.8417201228439807891845703125">
        <ele>1139</ele>
        <time>2026-08-21T14:09:44.000Z</time>
        <extensions>
          <ns3:TrackPointExtension>
            <ns3:hr>130</ns3:hr>
            <ns3:cad>0</ns3:cad>
          </ns3:TrackPointExtension>
        </extensions>
      </trkpt>
      <trkpt lat="45.2948661334812641143798828125" lon="-70.8417355455458164215087890625">
        <ele>1138.800048828125</ele>
        <time>2026-08-21T14:09:45.000Z</time>
        <extensions>
          <ns3:TrackPointExtension>
            <ns3:hr>131</ns3:hr>
            <ns3:cad>0</ns3:cad>
          </ns3:TrackPointExtension>
        </extensions>
      </trkpt>
      <trkpt lat="45.29485364444553852081298828125" lon="-70.84175088442862033843994140625">
        <ele>1138.5999755859375</ele>
        <time>2026-08-21T14:09:46.000Z</time>
        <extensions>
          <ns3:TrackPointExtension>
            <ns3:hr>132</ns3:hr>
            <ns3:cad>72</ns3:cad>
          </ns3:TrackPointExtension>
        </extensions>
      </trkpt>
      <trkpt lat="45.29484308324754238128662109375" lon="-70.84177100099623203277587890625">
        <ele>1138.4000244140625</ele>
        <time>2026-08-21T14:09:47.000Z</time>
        <extensions>
          <ns3:TrackPointExtension>
            <ns3:hr>133</ns3:hr>
            <ns3:cad>72</ns3:cad>
          </ns3:TrackPointExtension>
        </extensions>
      </trkpt>
      <trkpt lat="45.29482581652700901031494140625" lon="-70.841794051229953765869140625">
        <ele>1138.199951171875</ele>
        <time>2026-08-21T14:09:48.000Z</time>
        <extensions>
          <ns3:TrackPointExtension>
            <ns3:hr>133</ns3:hr>
            <ns3:cad>72</ns3:cad>
          </ns3:TrackPointExtension>
        </extensions>
      </trkpt>
      <trkpt lat="45.29480871744453907012939453125" lon="-70.84181156940758228302001953125">
        <ele>1138</ele>
        <time>2026-08-21T14:09:49.000Z</time>
        <extensions>
          <ns3:TrackPointExtension>
            <ns3:hr>133</ns3:hr>
            <ns3:cad>0</ns3:cad>
          </ns3:TrackPointExtension>
        </extensions>
      </trkpt>
      <trkpt lat="45.29479480348527431488037109375" lon="-70.8418245613574981689453125">
        <ele>1138</ele>
        <time>2026-08-21T14:09:50.000Z</time>
        <extensions>
          <ns3:TrackPointExtension>
            <ns3:hr>133</ns3:hr>
            <ns3:cad>0</ns3:cad>
          </ns3:TrackPointExtension>
        </extensions>
      </trkpt>
      <trkpt lat="45.29477921314537525177001953125" lon="-70.84183872677385807037353515625">
        <ele>1138</ele>
        <time>2026-08-21T14:09:51.000Z</time>
        <extensions>
          <ns3:TrackPointExtension>
            <ns3:hr>133</ns3:hr>
            <ns3:cad>0</ns3:cad>
          </ns3:TrackPointExtension>
        </extensions>
      </trkpt>
      <trkpt lat="45.29476798139512538909912109375" lon="-70.841847360134124755859375">
        <ele>1137.800048828125</ele>
        <time>2026-08-21T14:09:52.000Z</time>
        <extensions>
          <ns3:TrackPointExtension>
            <ns3:hr>132</ns3:hr>
            <ns3:cad>0</ns3:cad>
          </ns3:TrackPointExtension>
        </extensions>
      </trkpt>
      <trkpt lat="45.2947588451206684112548828125" lon="-70.84185607731342315673828125">
        <ele>1137.800048828125</ele>
        <time>2026-08-21T14:09:53.000Z</time>
        <extensions>
          <ns3:TrackPointExtension>
            <ns3:hr>132</ns3:hr>
            <ns3:cad>19</ns3:cad>
          </ns3:TrackPointExtension>
        </extensions>
      </trkpt>
      <trkpt lat="45.29474233277142047882080078125" lon="-70.84187342785298824310302734375">
        <ele>1137.5999755859375</ele>
        <time>2026-08-21T14:09:54.000Z</time>
        <extensions>
          <ns3:TrackPointExtension>
            <ns3:hr>133</ns3:hr>
            <ns3:cad>19</ns3:cad>
          </ns3:TrackPointExtension>
        </extensions>
      </trkpt>
      <trkpt lat="45.29472825117409229278564453125" lon="-70.84189253859221935272216796875">
        <ele>1137.199951171875</ele>
        <time>2026-08-21T14:09:55.000Z</time>
        <extensions>
          <ns3:TrackPointExtension>
            <ns3:hr>133</ns3:hr>
            <ns3:cad>19</ns3:cad>
          </ns3:TrackPointExtension>
        </extensions>
      </trkpt>
      <trkpt lat="45.29471534304320812225341796875" lon="-70.84191751666367053985595703125">
        <ele>1137</ele>
        <time>2026-08-21T14:09:56.000Z</time>
        <extensions>
          <ns3:TrackPointExtension>
            <ns3:hr>133</ns3:hr>
            <ns3:cad>19</ns3:cad>
          </ns3:TrackPointExtension>
        </extensions>
      </trkpt>
      <trkpt lat="45.29470461420714855194091796875" lon="-70.8419397287070751190185546875">
        <ele>1136.800048828125</ele>
        <time>2026-08-21T14:09:57.000Z</time>
        <extensions>
          <ns3:TrackPointExtension>
            <ns3:hr>133</ns3:hr>
            <ns3:cad>19</ns3:cad>
          </ns3:TrackPointExtension>
        </extensions>
      </trkpt>
      <trkpt lat="45.29469036497175693511962890625" lon="-70.84196143783628940582275390625">
        <ele>1136.5999755859375</ele>
        <time>2026-08-21T14:09:58.000Z</time>
        <extensions>
          <ns3:TrackPointExtension>
            <ns3:hr>133</ns3:hr>
            <ns3:cad>72</ns3:cad>
          </ns3:TrackPointExtension>
        </extensions>
      </trkpt>
      <trkpt lat="45.29467661865055561065673828125" lon="-70.84198423661291599273681640625">
        <ele>1136.4000244140625</ele>
        <time>2026-08-21T14:09:59.000Z</time>
        <extensions>
          <ns3:TrackPointExtension>
            <ns3:hr>133</ns3:hr>
            <ns3:cad>72</ns3:cad>
          </ns3:TrackPointExtension>
        </extensions>
      </trkpt>
      <trkpt lat="45.294664464890956878662109375" lon="-70.84200720302760601043701171875">
        <ele>1136.199951171875</ele>
        <time>2026-08-21T14:10:00.000Z</time>
        <extensions>
          <ns3:TrackPointExtension>
            <ns3:hr>133</ns3:hr>
            <ns3:cad>72</ns3:cad>
          </ns3:TrackPointExtension>
        </extensions>
      </trkpt>
      <trkpt lat="45.29465046711266040802001953125" lon="-70.84202815778553485870361328125">
        <ele>1136.199951171875</ele>
        <time>2026-08-21T14:10:01.000Z</time>
        <extensions>
          <ns3:TrackPointExtension>
            <ns3:hr>133</ns3:hr>
            <ns3:cad>72</ns3:cad>
          </ns3:TrackPointExtension>
        </extensions>
      </trkpt>
      <trkpt lat="45.29463806189596652984619140625" lon="-70.84204626269638538360595703125">
        <ele>1136</ele>
        <time>2026-08-21T14:10:02.000Z</time>
        <extensions>
          <ns3:TrackPointExtension>
            <ns3:hr>133</ns3:hr>
            <ns3:cad>72</ns3:cad>
          </ns3:TrackPointExtension>
        </extensions>
      </trkpt>
      <trkpt lat="45.294625572860240936279296875" lon="-70.84206570871174335479736328125">
        <ele>1136</ele>
        <time>2026-08-21T14:10:03.000Z</time>
        <extensions>
          <ns3:TrackPointExtension>
            <ns3:hr>132</ns3:hr>
            <ns3:cad>75</ns3:cad>
          </ns3:TrackPointExtension>
        </extensions>
      </trkpt>
      <trkpt lat="45.29461509548127651214599609375" lon="-70.84208674728870391845703125">
        <ele>1136</ele>
        <time>2026-08-21T14:10:04.000Z</time>
        <extensions>
          <ns3:TrackPointExtension>
            <ns3:hr>131</ns3:hr>
            <ns3:cad>75</ns3:cad>
          </ns3:TrackPointExtension>
        </extensions>
      </trkpt>
      <trkpt lat="45.294599421322345733642578125" lon="-70.8421063609421253204345703125">
        <ele>1136</ele>
        <time>2026-08-21T14:10:05.000Z</time>
        <extensions>
          <ns3:TrackPointExtension>
            <ns3:hr>130</ns3:hr>
            <ns3:cad>76</ns3:cad>
          </ns3:TrackPointExtension>
        </extensions>
      </trkpt>
      <trkpt lat="45.29458307661116123199462890625" lon="-70.84212354384362697601318359375">
        <ele>1135.800048828125</ele>
        <time>2026-08-21T14:10:06.000Z</time>
        <extensions>
          <ns3:TrackPointExtension>
            <ns3:hr>130</ns3:hr>
            <ns3:cad>76</ns3:cad>
          </ns3:TrackPointExtension>
        </extensions>
      </trkpt>
      <trkpt lat="45.29456949792802333831787109375" lon="-70.8421437442302703857421875">
        <ele>1135.5999755859375</ele>
        <time>2026-08-21T14:10:07.000Z</time>
        <extensions>
          <ns3:TrackPointExtension>
            <ns3:hr>130</ns3:hr>
            <ns3:cad>76</ns3:cad>
          </ns3:TrackPointExtension>
        </extensions>
      </trkpt>
      <trkpt lat="45.294554494321346282958984375" lon="-70.84216059185564517974853515625">
        <ele>1135.5999755859375</ele>
        <time>2026-08-21T14:10:08.000Z</time>
        <extensions>
          <ns3:TrackPointExtension>
            <ns3:hr>130</ns3:hr>
            <ns3:cad>76</ns3:cad>
          </ns3:TrackPointExtension>
        </extensions>
      </trkpt>
      <trkpt lat="45.29453412629663944244384765625" lon="-70.84217785857617855072021484375">
        <ele>1135.4000244140625</ele>
        <time>2026-08-21T14:10:09.000Z</time>
        <extensions>
          <ns3:TrackPointExtension>
            <ns3:hr>131</ns3:hr>
            <ns3:cad>76</ns3:cad>
          </ns3:TrackPointExtension>
        </extensions>
      </trkpt>
      <trkpt lat="45.2945172786712646484375" lon="-70.842191018164157867431640625">
        <ele>1135.199951171875</ele>
        <time>2026-08-21T14:10:10.000Z</time>
        <extensions>
          <ns3:TrackPointExtension>
            <ns3:hr>131</ns3:hr>
            <ns3:cad>75</ns3:cad>
          </ns3:TrackPointExtension>
        </extensions>
      </trkpt>
      <trkpt lat="45.29449917376041412353515625" lon="-70.84220610558986663818359375">
        <ele>1135</ele>
        <time>2026-08-21T14:10:11.000Z</time>
        <extensions>
          <ns3:TrackPointExtension>
            <ns3:hr>131</ns3:hr>
            <ns3:cad>75</ns3:cad>
          </ns3:TrackPointExtension>
        </extensions>
      </trkpt>
      <trkpt lat="45.29448366723954677581787109375" lon="-70.84222479723393917083740234375">
        <ele>1135</ele>
        <time>2026-08-21T14:10:12.000Z</time>
        <extensions>
          <ns3:TrackPointExtension>
            <ns3:hr>131</ns3:hr>
            <ns3:cad>74</ns3:cad>
          </ns3:TrackPointExtension>
        </extensions>
      </trkpt>
      <trkpt lat="45.2944681607186794281005859375" lon="-70.84223569370806217193603515625">
        <ele>1135</ele>
        <time>2026-08-21T14:10:13.000Z</time>
        <extensions>
          <ns3:TrackPointExtension>
            <ns3:hr>131</ns3:hr>
            <ns3:cad>74</ns3:cad>
          </ns3:TrackPointExtension>
        </extensions>
      </trkpt>
      <trkpt lat="45.29444846324622631072998046875" lon="-70.84224633872509002685546875">
        <ele>1135</ele>
        <time>2026-08-21T14:10:14.000Z</time>
        <extensions>
          <ns3:TrackPointExtension>
            <ns3:hr>132</ns3:hr>
            <ns3:cad>74</ns3:cad>
          </ns3:TrackPointExtension>
        </extensions>
      </trkpt>
      <trkpt lat="45.2944356389343738555908203125" lon="-70.84225413389503955841064453125">
        <ele>1135.199951171875</ele>
        <time>2026-08-21T14:10:15.000Z</time>
        <extensions>
          <ns3:TrackPointExtension>
            <ns3:hr>132</ns3:hr>
            <ns3:cad>74</ns3:cad>
          </ns3:TrackPointExtension>
        </extensions>
      </trkpt>
      <trkpt lat="45.294418372213840484619140625" lon="-70.84227047860622406005859375">
        <ele>1135.199951171875</ele>
        <time>2026-08-21T14:10:16.000Z</time>
        <extensions>
          <ns3:TrackPointExtension>
            <ns3:hr>132</ns3:hr>
            <ns3:cad>74</ns3:cad>
          </ns3:TrackPointExtension>
        </extensions>
      </trkpt>
      <trkpt lat="45.29440387152135372161865234375" lon="-70.84228598512709140777587890625">
        <ele>1135.199951171875</ele>
        <time>2026-08-21T14:10:17.000Z</time>
        <extensions>
          <ns3:TrackPointExtension>
            <ns3:hr>132</ns3:hr>
            <ns3:cad>75</ns3:cad>
          </ns3:TrackPointExtension>
        </extensions>
      </trkpt>
      <trkpt lat="45.29439381323754787445068359375" lon="-70.84229989908635616302490234375">
        <ele>1135.199951171875</ele>
        <time>2026-08-21T14:10:18.000Z</time>
        <extensions>
          <ns3:TrackPointExtension>
            <ns3:hr>132</ns3:hr>
            <ns3:cad>75</ns3:cad>
          </ns3:TrackPointExtension>
        </extensions>
      </trkpt>
      <trkpt lat="45.2943791449069976806640625" lon="-70.84231666289269924163818359375">
        <ele>1135.199951171875</ele>
        <time>2026-08-21T14:10:19.000Z</time>
        <extensions>
          <ns3:TrackPointExtension>
            <ns3:hr>132</ns3:hr>
            <ns3:cad>75</ns3:cad>
          </ns3:TrackPointExtension>
        </extensions>
      </trkpt>
      <trkpt lat="45.2943689189851284027099609375" lon="-70.84233443252742290496826171875">
        <ele>1135</ele>
        <time>2026-08-21T14:10:20.000Z</time>
        <extensions>
          <ns3:TrackPointExtension>
            <ns3:hr>132</ns3:hr>
            <ns3:cad>75</ns3:cad>
          </ns3:TrackPointExtension>
        </extensions>
      </trkpt>
      <trkpt lat="45.29435693286359310150146484375" lon="-70.84235840477049350738525390625">
        <ele>1135</ele>
        <time>2026-08-21T14:10:21.000Z</time>
        <extensions>
          <ns3:TrackPointExtension>
            <ns3:hr>132</ns3:hr>
            <ns3:cad>75</ns3:cad>
          </ns3:TrackPointExtension>
        </extensions>
      </trkpt>
      <trkpt lat="45.29434503056108951568603515625" lon="-70.8423812873661518096923828125">
        <ele>1134.800048828125</ele>
        <time>2026-08-21T14:10:22.000Z</time>
        <extensions>
          <ns3:TrackPointExtension>
            <ns3:hr>132</ns3:hr>
            <ns3:cad>75</ns3:cad>
          </ns3:TrackPointExtension>
        </extensions>
      </trkpt>
      <trkpt lat="45.2943367324769496917724609375" lon="-70.84240450523793697357177734375">
        <ele>1134.5999755859375</ele>
        <time>2026-08-21T14:10:23.000Z</time>
        <extensions>
          <ns3:TrackPointExtension>
            <ns3:hr>132</ns3:hr>
            <ns3:cad>75</ns3:cad>
          </ns3:TrackPointExtension>
        </extensions>
      </trkpt>
      <trkpt lat="45.294329188764095306396484375" lon="-70.84242872893810272216796875">
        <ele>1134.5999755859375</ele>
        <time>2026-08-21T14:10:24.000Z</time>
        <extensions>
          <ns3:TrackPointExtension>
            <ns3:hr>132</ns3:hr>
            <ns3:cad>75</ns3:cad>
          </ns3:TrackPointExtension>
        </extensions>
      </trkpt>
      <trkpt lat="45.29431871138513088226318359375" lon="-70.8424493484199047088623046875">
        <ele>1134.4000244140625</ele>
        <time>2026-08-21T14:10:25.000Z</time>
        <extensions>
          <ns3:TrackPointExtension>
            <ns3:hr>133</ns3:hr>
            <ns3:cad>70</ns3:cad>
          </ns3:TrackPointExtension>
        </extensions>
      </trkpt>
      <trkpt lat="45.29430898837745189666748046875" lon="-70.842469632625579833984375">
        <ele>1134.199951171875</ele>
        <time>2026-08-21T14:10:26.000Z</time>
        <extensions>
          <ns3:TrackPointExtension>
            <ns3:hr>133</ns3:hr>
            <ns3:cad>70</ns3:cad>
          </ns3:TrackPointExtension>
        </extensions>
      </trkpt>
      <trkpt lat="45.29429800808429718017578125" lon="-70.842491425573825836181640625">
        <ele>1134.199951171875</ele>
        <time>2026-08-21T14:10:27.000Z</time>
        <extensions>
          <ns3:TrackPointExtension>
            <ns3:hr>132</ns3:hr>
            <ns3:cad>70</ns3:cad>
          </ns3:TrackPointExtension>
        </extensions>
      </trkpt>
      <trkpt lat="45.29428702779114246368408203125" lon="-70.84251699037849903106689453125">
        <ele>1134</ele>
        <time>2026-08-21T14:10:28.000Z</time>
        <extensions>
          <ns3:TrackPointExtension>
            <ns3:hr>132</ns3:hr>
            <ns3:cad>70</ns3:cad>
          </ns3:TrackPointExtension>
        </extensions>
      </trkpt>
      <trkpt lat="45.2942783944308757781982421875" lon="-70.842536352574825286865234375">
        <ele>1133.800048828125</ele>
        <time>2026-08-21T14:10:29.000Z</time>
        <extensions>
          <ns3:TrackPointExtension>
            <ns3:hr>132</ns3:hr>
            <ns3:cad>70</ns3:cad>
          </ns3:TrackPointExtension>
        </extensions>
      </trkpt>
      <trkpt lat="45.2942636422812938690185546875" lon="-70.842564515769481658935546875">
        <ele>1133.800048828125</ele>
        <time>2026-08-21T14:10:30.000Z</time>
        <extensions>
          <ns3:TrackPointExtension>
            <ns3:hr>132</ns3:hr>
            <ns3:cad>70</ns3:cad>
          </ns3:TrackPointExtension>
        </extensions>
      </trkpt>
      <trkpt lat="45.294252745807170867919921875" lon="-70.84258320741355419158935546875">
        <ele>1133.5999755859375</ele>
        <time>2026-08-21T14:10:31.000Z</time>
        <extensions>
          <ns3:TrackPointExtension>
            <ns3:hr>131</ns3:hr>
            <ns3:cad>70</ns3:cad>
          </ns3:TrackPointExtension>
        </extensions>
      </trkpt>
      <trkpt lat="45.29424243606626987457275390625" lon="-70.842609442770481109619140625">
        <ele>1133.5999755859375</ele>
        <time>2026-08-21T14:10:32.000Z</time>
        <extensions>
          <ns3:TrackPointExtension>
            <ns3:hr>131</ns3:hr>
            <ns3:cad>72</ns3:cad>
          </ns3:TrackPointExtension>
        </extensions>
      </trkpt>
      <trkpt lat="45.29422902502119541168212890625" lon="-70.84263660013675689697265625">
        <ele>1133.4000244140625</ele>
        <time>2026-08-21T14:10:33.000Z</time>
        <extensions>
          <ns3:TrackPointExtension>
            <ns3:hr>132</ns3:hr>
            <ns3:cad>72</ns3:cad>
          </ns3:TrackPointExtension>
        </extensions>
      </trkpt>
      <trkpt lat="45.29421888291835784912109375" lon="-70.84265629760921001434326171875">
        <ele>1133.4000244140625</ele>
        <time>2026-08-21T14:10:34.000Z</time>
        <extensions>
          <ns3:TrackPointExtension>
            <ns3:hr>132</ns3:hr>
            <ns3:cad>72</ns3:cad>
          </ns3:TrackPointExtension>
        </extensions>
      </trkpt>
      <trkpt lat="45.2942073158919811248779296875" lon="-70.842677839100360870361328125">
        <ele>1133.199951171875</ele>
        <time>2026-08-21T14:10:35.000Z</time>
        <extensions>
          <ns3:TrackPointExtension>
            <ns3:hr>132</ns3:hr>
            <ns3:cad>72</ns3:cad>
          </ns3:TrackPointExtension>
        </extensions>
      </trkpt>
      <trkpt lat="45.29419885016977787017822265625" lon="-70.84270021878182888031005859375">
        <ele>1133</ele>
        <time>2026-08-21T14:10:36.000Z</time>
        <extensions>
          <ns3:TrackPointExtension>
            <ns3:hr>133</ns3:hr>
            <ns3:cad>72</ns3:cad>
          </ns3:TrackPointExtension>
        </extensions>
      </trkpt>
      <trkpt lat="45.2941939048469066619873046875" lon="-70.84272377192974090576171875">
        <ele>1132.800048828125</ele>
        <time>2026-08-21T14:10:37.000Z</time>
        <extensions>
          <ns3:TrackPointExtension>
            <ns3:hr>133</ns3:hr>
            <ns3:cad>72</ns3:cad>
          </ns3:TrackPointExtension>
        </extensions>
      </trkpt>
      <trkpt lat="45.29418778605759143829345703125" lon="-70.8427460677921772003173828125">
        <ele>1132.5999755859375</ele>
        <time>2026-08-21T14:10:38.000Z</time>
        <extensions>
          <ns3:TrackPointExtension>
            <ns3:hr>133</ns3:hr>
            <ns3:cad>72</ns3:cad>
          </ns3:TrackPointExtension>
        </extensions>
      </trkpt>
      <trkpt lat="45.294180326163768768310546875" lon="-70.84277875721454620361328125">
        <ele>1132.4000244140625</ele>
        <time>2026-08-21T14:10:39.000Z</time>
        <extensions>
          <ns3:TrackPointExtension>
            <ns3:hr>134</ns3:hr>
            <ns3:cad>73</ns3:cad>
          </ns3:TrackPointExtension>
        </extensions>
      </trkpt>
      <trkpt lat="45.29417672194540500640869140625" lon="-70.8428064174950122833251953125">
        <ele>1132</ele>
        <time>2026-08-21T14:10:40.000Z</time>
        <extensions>
          <ns3:TrackPointExtension>
            <ns3:hr>133</ns3:hr>
            <ns3:cad>74</ns3:cad>
          </ns3:TrackPointExtension>
        </extensions>
      </trkpt>
      <trkpt lat="45.29417471028864383697509765625" lon="-70.842829383909702301025390625">
        <ele>1131.800048828125</ele>
        <time>2026-08-21T14:10:41.000Z</time>
        <extensions>
          <ns3:TrackPointExtension>
            <ns3:hr>133</ns3:hr>
            <ns3:cad>74</ns3:cad>
          </ns3:TrackPointExtension>
        </extensions>
      </trkpt>
      <trkpt lat="45.29417135752737522125244140625" lon="-70.84284790791571140289306640625">
        <ele>1131.5999755859375</ele>
        <time>2026-08-21T14:10:42.000Z</time>
        <extensions>
          <ns3:TrackPointExtension>
            <ns3:hr>133</ns3:hr>
            <ns3:cad>72</ns3:cad>
          </ns3:TrackPointExtension>
        </extensions>
      </trkpt>
      <trkpt lat="45.2941687591373920440673828125" lon="-70.8428647555410861968994140625">
        <ele>1131.4000244140625</ele>
        <time>2026-08-21T14:10:43.000Z</time>
        <extensions>
          <ns3:TrackPointExtension>
            <ns3:hr>132</ns3:hr>
            <ns3:cad>72</ns3:cad>
          </ns3:TrackPointExtension>
        </extensions>
      </trkpt>
      <trkpt lat="45.29416196979582309722900390625" lon="-70.84288914687931537628173828125">
        <ele>1131.4000244140625</ele>
        <time>2026-08-21T14:10:44.000Z</time>
        <extensions>
          <ns3:TrackPointExtension>
            <ns3:hr>132</ns3:hr>
            <ns3:cad>72</ns3:cad>
          </ns3:TrackPointExtension>
        </extensions>
      </trkpt>
      <trkpt lat="45.29415979050099849700927734375" lon="-70.84290859289467334747314453125">
        <ele>1131.199951171875</ele>
        <time>2026-08-21T14:10:45.000Z</time>
        <extensions>
          <ns3:TrackPointExtension>
            <ns3:hr>132</ns3:hr>
            <ns3:cad>72</ns3:cad>
          </ns3:TrackPointExtension>
        </extensions>
      </trkpt>
      <trkpt lat="45.294154174625873565673828125" lon="-70.84292954765260219573974609375">
        <ele>1130.800048828125</ele>
        <time>2026-08-21T14:10:46.000Z</time>
        <extensions>
          <ns3:TrackPointExtension>
            <ns3:hr>132</ns3:hr>
            <ns3:cad>0</ns3:cad>
          </ns3:TrackPointExtension>
        </extensions>
      </trkpt>
      <trkpt lat="45.29414520598948001861572265625" lon="-70.8429484069347381591796875">
        <ele>1130.5999755859375</ele>
        <time>2026-08-21T14:10:47.000Z</time>
        <extensions>
          <ns3:TrackPointExtension>
            <ns3:hr>132</ns3:hr>
            <ns3:cad>70</ns3:cad>
          </ns3:TrackPointExtension>
        </extensions>
      </trkpt>
      <trkpt lat="45.29413749463856220245361328125" lon="-70.842967517673969268798828125">
        <ele>1130.4000244140625</ele>
        <time>2026-08-21T14:10:48.000Z</time>
        <extensions>
          <ns3:TrackPointExtension>
            <ns3:hr>132</ns3:hr>
            <ns3:cad>70</ns3:cad>
          </ns3:TrackPointExtension>
        </extensions>
      </trkpt>
      <trkpt lat="45.2941377460956573486328125" lon="-70.8429940044879913330078125">
        <ele>1130.199951171875</ele>
        <time>2026-08-21T14:10:49.000Z</time>
        <extensions>
          <ns3:TrackPointExtension>
            <ns3:hr>132</ns3:hr>
            <ns3:cad>70</ns3:cad>
          </ns3:TrackPointExtension>
        </extensions>
      </trkpt>
      <trkpt lat="45.2941345609724521636962890625" lon="-70.8430186472833156585693359375">
        <ele>1130</ele>
        <time>2026-08-21T14:10:50.000Z</time>
        <extensions>
          <ns3:TrackPointExtension>
            <ns3:hr>132</ns3:hr>
            <ns3:cad>70</ns3:cad>
          </ns3:TrackPointExtension>
        </extensions>
      </trkpt>
      <trkpt lat="45.2941268496215343475341796875" lon="-70.84304220043122768402099609375">
        <ele>1129.5999755859375</ele>
        <time>2026-08-21T14:10:51.000Z</time>
        <extensions>
          <ns3:TrackPointExtension>
            <ns3:hr>131</ns3:hr>
            <ns3:cad>70</ns3:cad>
          </ns3:TrackPointExtension>
        </extensions>
      </trkpt>
      <trkpt lat="45.294119976460933685302734375" lon="-70.84306298755109310150146484375">
        <ele>1129.4000244140625</ele>
        <time>2026-08-21T14:10:52.000Z</time>
        <extensions>
          <ns3:TrackPointExtension>
            <ns3:hr>131</ns3:hr>
            <ns3:cad>70</ns3:cad>
          </ns3:TrackPointExtension>
        </extensions>
      </trkpt>
      <trkpt lat="45.29411293566226959228515625" lon="-70.8430826850235462188720703125">
        <ele>1129</ele>
        <time>2026-08-21T14:10:53.000Z</time>
        <extensions>
          <ns3:TrackPointExtension>
            <ns3:hr>131</ns3:hr>
            <ns3:cad>70</ns3:cad>
          </ns3:TrackPointExtension>
        </extensions>
      </trkpt>
      <trkpt lat="45.294103883206844329833984375" lon="-70.84310070611536502838134765625">
        <ele>1128.800048828125</ele>
        <time>2026-08-21T14:10:54.000Z</time>
        <extensions>
          <ns3:TrackPointExtension>
            <ns3:hr>131</ns3:hr>
            <ns3:cad>73</ns3:cad>
          </ns3:TrackPointExtension>
        </extensions>
      </trkpt>
      <trkpt lat="45.29409416019916534423828125" lon="-70.843119062483310699462890625">
        <ele>1128.4000244140625</ele>
        <time>2026-08-21T14:10:55.000Z</time>
        <extensions>
          <ns3:TrackPointExtension>
            <ns3:hr>130</ns3:hr>
            <ns3:cad>73</ns3:cad>
          </ns3:TrackPointExtension>
        </extensions>
      </trkpt>
      <trkpt lat="45.2940835990011692047119140625" lon="-70.84313406608998775482177734375">
        <ele>1128.199951171875</ele>
        <time>2026-08-21T14:10:56.000Z</time>
        <extensions>
          <ns3:TrackPointExtension>
            <ns3:hr>130</ns3:hr>
            <ns3:cad>72</ns3:cad>
          </ns3:TrackPointExtension>
        </extensions>
      </trkpt>
      <trkpt lat="45.29407345689833164215087890625" lon="-70.843149237334728240966796875">
        <ele>1128</ele>
        <time>2026-08-21T14:10:57.000Z</time>
        <extensions>
          <ns3:TrackPointExtension>
            <ns3:hr>129</ns3:hr>
            <ns3:cad>72</ns3:cad>
          </ns3:TrackPointExtension>
        </extensions>
      </trkpt>
      <trkpt lat="45.294056944549083709716796875" lon="-70.84316943772137165069580078125">
        <ele>1127.800048828125</ele>
        <time>2026-08-21T14:10:58.000Z</time>
        <extensions>
          <ns3:TrackPointExtension>
            <ns3:hr>129</ns3:hr>
            <ns3:cad>72</ns3:cad>
          </ns3:TrackPointExtension>
        </extensions>
      </trkpt>
      <trkpt lat="45.29404546134173870086669921875" lon="-70.8431859500706195831298828125">
        <ele>1127.5999755859375</ele>
        <time>2026-08-21T14:10:59.000Z</time>
        <extensions>
          <ns3:TrackPointExtension>
            <ns3:hr>129</ns3:hr>
            <ns3:cad>71</ns3:cad>
          </ns3:TrackPointExtension>
        </extensions>
      </trkpt>
      <trkpt lat="45.29403355903923511505126953125" lon="-70.8432077430188655853271484375">
        <ele>1127.5999755859375</ele>
        <time>2026-08-21T14:11:00.000Z</time>
        <extensions>
          <ns3:TrackPointExtension>
            <ns3:hr>129</ns3:hr>
            <ns3:cad>71</ns3:cad>
          </ns3:TrackPointExtension>
        </extensions>
      </trkpt>
      <trkpt lat="45.29402333311736583709716796875" lon="-70.84322534501552581787109375">
        <ele>1127.4000244140625</ele>
        <time>2026-08-21T14:11:01.000Z</time>
        <extensions>
          <ns3:TrackPointExtension>
            <ns3:hr>129</ns3:hr>
            <ns3:cad>71</ns3:cad>
          </ns3:TrackPointExtension>
        </extensions>
      </trkpt>
      <trkpt lat="45.29401092790067195892333984375" lon="-70.84324889816343784332275390625">
        <ele>1127.4000244140625</ele>
        <time>2026-08-21T14:11:02.000Z</time>
        <extensions>
          <ns3:TrackPointExtension>
            <ns3:hr>130</ns3:hr>
            <ns3:cad>71</ns3:cad>
          </ns3:TrackPointExtension>
        </extensions>
      </trkpt>
      <trkpt lat="45.29400237835943698883056640625" lon="-70.843267254531383514404296875">
        <ele>1127.199951171875</ele>
        <time>2026-08-21T14:11:03.000Z</time>
        <extensions>
          <ns3:TrackPointExtension>
            <ns3:hr>129</ns3:hr>
            <ns3:cad>71</ns3:cad>
          </ns3:TrackPointExtension>
        </extensions>
      </trkpt>
      <trkpt lat="45.29399332590401172637939453125" lon="-70.84329399280250072479248046875">
        <ele>1127</ele>
        <time>2026-08-21T14:11:04.000Z</time>
        <extensions>
          <ns3:TrackPointExtension>
            <ns3:hr>129</ns3:hr>
            <ns3:cad>71</ns3:cad>
          </ns3:TrackPointExtension>
        </extensions>
      </trkpt>
      <trkpt lat="45.29398360289633274078369140625" lon="-70.8433167077600955963134765625">
        <ele>1126.800048828125</ele>
        <time>2026-08-21T14:11:05.000Z</time>
        <extensions>
          <ns3:TrackPointExtension>
            <ns3:hr>129</ns3:hr>
            <ns3:cad>71</ns3:cad>
          </ns3:TrackPointExtension>
        </extensions>
      </trkpt>
      <trkpt lat="45.29397522099316120147705078125" lon="-70.843335650861263275146484375">
        <ele>1126.5999755859375</ele>
        <time>2026-08-21T14:11:06.000Z</time>
        <extensions>
          <ns3:TrackPointExtension>
            <ns3:hr>129</ns3:hr>
            <ns3:cad>71</ns3:cad>
          </ns3:TrackPointExtension>
        </extensions>
      </trkpt>
      <trkpt lat="45.293967090547084808349609375" lon="-70.84335970692336559295654296875">
        <ele>1126.4000244140625</ele>
        <time>2026-08-21T14:11:07.000Z</time>
        <extensions>
          <ns3:TrackPointExtension>
            <ns3:hr>130</ns3:hr>
            <ns3:cad>71</ns3:cad>
          </ns3:TrackPointExtension>
        </extensions>
      </trkpt>
      <trkpt lat="45.293965078890323638916015625" lon="-70.8433887921273708343505859375">
        <ele>1126</ele>
        <time>2026-08-21T14:11:08.000Z</time>
        <extensions>
          <ns3:TrackPointExtension>
            <ns3:hr>130</ns3:hr>
            <ns3:cad>18</ns3:cad>
          </ns3:TrackPointExtension>
        </extensions>
      </trkpt>
      <trkpt lat="45.29396331869065761566162109375" lon="-70.84341368637979030609130859375">
        <ele>1125.800048828125</ele>
        <time>2026-08-21T14:11:09.000Z</time>
        <extensions>
          <ns3:TrackPointExtension>
            <ns3:hr>130</ns3:hr>
            <ns3:cad>18</ns3:cad>
          </ns3:TrackPointExtension>
        </extensions>
      </trkpt>
      <trkpt lat="45.2939649112522602081298828125" lon="-70.84344637580215930938720703125">
        <ele>1125.5999755859375</ele>
        <time>2026-08-21T14:11:10.000Z</time>
        <extensions>
          <ns3:TrackPointExtension>
            <ns3:hr>129</ns3:hr>
            <ns3:cad>18</ns3:cad>
          </ns3:TrackPointExtension>
        </extensions>
      </trkpt>
      <trkpt lat="45.29396348632872104644775390625" lon="-70.84346531890332698822021484375">
        <ele>1125.199951171875</ele>
        <time>2026-08-21T14:11:11.000Z</time>
        <extensions>
          <ns3:TrackPointExtension>
            <ns3:hr>130</ns3:hr>
            <ns3:cad>40</ns3:cad>
          </ns3:TrackPointExtension>
        </extensions>
      </trkpt>
      <trkpt lat="45.29396214522421360015869140625" lon="-70.8434947393834590911865234375">
        <ele>1124.800048828125</ele>
        <time>2026-08-21T14:11:12.000Z</time>
        <extensions>
          <ns3:TrackPointExtension>
            <ns3:hr>129</ns3:hr>
            <ns3:cad>40</ns3:cad>
          </ns3:TrackPointExtension>
        </extensions>
      </trkpt>
      <trkpt lat="45.29396197758615016937255859375" lon="-70.84351745434105396270751953125">
        <ele>1124.4000244140625</ele>
        <time>2026-08-21T14:11:13.000Z</time>
        <extensions>
          <ns3:TrackPointExtension>
            <ns3:hr>129</ns3:hr>
            <ns3:cad>40</ns3:cad>
          </ns3:TrackPointExtension>
        </extensions>
      </trkpt>
      <trkpt lat="45.29396516270935535430908203125" lon="-70.84353656508028507232666015625">
        <ele>1124</ele>
        <time>2026-08-21T14:11:14.000Z</time>
        <extensions>
          <ns3:TrackPointExtension>
            <ns3:hr>129</ns3:hr>
            <ns3:cad>40</ns3:cad>
          </ns3:TrackPointExtension>
        </extensions>
      </trkpt>
      <trkpt lat="45.2939706109464168548583984375" lon="-70.843562297523021697998046875">
        <ele>1123.5999755859375</ele>
        <time>2026-08-21T14:11:15.000Z</time>
        <extensions>
          <ns3:TrackPointExtension>
            <ns3:hr>129</ns3:hr>
            <ns3:cad>40</ns3:cad>
          </ns3:TrackPointExtension>
        </extensions>
      </trkpt>
      <trkpt lat="45.293973125517368316650390625" lon="-70.84358819760382175445556640625">
        <ele>1123.199951171875</ele>
        <time>2026-08-21T14:11:16.000Z</time>
        <extensions>
          <ns3:TrackPointExtension>
            <ns3:hr>128</ns3:hr>
            <ns3:cad>41</ns3:cad>
          </ns3:TrackPointExtension>
        </extensions>
      </trkpt>
      <trkpt lat="45.29397672973573207855224609375" lon="-70.8436080627143383026123046875">
        <ele>1122.800048828125</ele>
        <time>2026-08-21T14:11:17.000Z</time>
        <extensions>
          <ns3:TrackPointExtension>
            <ns3:hr>128</ns3:hr>
            <ns3:cad>41</ns3:cad>
          </ns3:TrackPointExtension>
        </extensions>
      </trkpt>
      <trkpt lat="45.29398159123957157135009765625" lon="-70.8436231501400470733642578125">
        <ele>1122.5999755859375</ele>
        <time>2026-08-21T14:11:18.000Z</time>
        <extensions>
          <ns3:TrackPointExtension>
            <ns3:hr>127</ns3:hr>
            <ns3:cad>41</ns3:cad>
          </ns3:TrackPointExtension>
        </extensions>
      </trkpt>
      <trkpt lat="45.29398460872471332550048828125" lon="-70.84364066831767559051513671875">
        <ele>1122.4000244140625</ele>
        <time>2026-08-21T14:11:19.000Z</time>
        <extensions>
          <ns3:TrackPointExtension>
            <ns3:hr>127</ns3:hr>
            <ns3:cad>41</ns3:cad>
          </ns3:TrackPointExtension>
        </extensions>
      </trkpt>
      <trkpt lat="45.29398821294307708740234375" lon="-70.843653492629528045654296875">
        <ele>1122</ele>
        <time>2026-08-21T14:11:20.000Z</time>
        <extensions>
          <ns3:TrackPointExtension>
            <ns3:hr>127</ns3:hr>
            <ns3:cad>41</ns3:cad>
          </ns3:TrackPointExtension>
        </extensions>
      </trkpt>
      <trkpt lat="45.2939927391707897186279296875" lon="-70.8436754532158374786376953125">
        <ele>1121.800048828125</ele>
        <time>2026-08-21T14:11:21.000Z</time>
        <extensions>
          <ns3:TrackPointExtension>
            <ns3:hr>127</ns3:hr>
            <ns3:cad>41</ns3:cad>
          </ns3:TrackPointExtension>
        </extensions>
      </trkpt>
      <trkpt lat="45.29399801976978778839111328125" lon="-70.8436982519924640655517578125">
        <ele>1121.5999755859375</ele>
        <time>2026-08-21T14:11:22.000Z</time>
        <extensions>
          <ns3:TrackPointExtension>
            <ns3:hr>127</ns3:hr>
            <ns3:cad>41</ns3:cad>
          </ns3:TrackPointExtension>
        </extensions>
      </trkpt>
      <trkpt lat="45.29400673694908618927001953125" lon="-70.8437210507690906524658203125">
        <ele>1121.199951171875</ele>
        <time>2026-08-21T14:11:23.000Z</time>
        <extensions>
          <ns3:TrackPointExtension>
            <ns3:hr>128</ns3:hr>
            <ns3:cad>0</ns3:cad>
          </ns3:TrackPointExtension>
        </extensions>
      </trkpt>
      <trkpt lat="45.2940105088055133819580078125" lon="-70.84373873658478260040283203125">
        <ele>1121</ele>
        <time>2026-08-21T14:11:24.000Z</time>
        <extensions>
          <ns3:TrackPointExtension>
            <ns3:hr>128</ns3:hr>
            <ns3:cad>0</ns3:cad>
          </ns3:TrackPointExtension>
        </extensions>
      </trkpt>
      <trkpt lat="45.29401277191936969757080078125" lon="-70.84375516511499881744384765625">
        <ele>1120.5999755859375</ele>
        <time>2026-08-21T14:11:25.000Z</time>
        <extensions>
          <ns3:TrackPointExtension>
            <ns3:hr>127</ns3:hr>
            <ns3:cad>0</ns3:cad>
          </ns3:TrackPointExtension>
        </extensions>
      </trkpt>
      <trkpt lat="45.2940170466899871826171875" lon="-70.84378031082451343536376953125">
        <ele>1120.4000244140625</ele>
        <time>2026-08-21T14:11:26.000Z</time>
        <extensions>
          <ns3:TrackPointExtension>
            <ns3:hr>128</ns3:hr>
            <ns3:cad>0</ns3:cad>
          </ns3:TrackPointExtension>
        </extensions>
      </trkpt>
      <trkpt lat="45.294023416936397552490234375" lon="-70.8437961526215076446533203125">
        <ele>1120</ele>
        <time>2026-08-21T14:11:27.000Z</time>
        <extensions>
          <ns3:TrackPointExtension>
            <ns3:hr>128</ns3:hr>
            <ns3:cad>0</ns3:cad>
          </ns3:TrackPointExtension>
        </extensions>
      </trkpt>
      <trkpt lat="45.2940333075821399688720703125" lon="-70.8438226394355297088623046875">
        <ele>1119.5999755859375</ele>
        <time>2026-08-21T14:11:28.000Z</time>
        <extensions>
          <ns3:TrackPointExtension>
            <ns3:hr>128</ns3:hr>
            <ns3:cad>0</ns3:cad>
          </ns3:TrackPointExtension>
        </extensions>
      </trkpt>
      <trkpt lat="45.29403557069599628448486328125" lon="-70.84384552203118801116943359375">
        <ele>1119</ele>
        <time>2026-08-21T14:11:29.000Z</time>
        <extensions>
          <ns3:TrackPointExtension>
            <ns3:hr>128</ns3:hr>
            <ns3:cad>0</ns3:cad>
          </ns3:TrackPointExtension>
        </extensions>
      </trkpt>
      <trkpt lat="45.29403783380985260009765625" lon="-70.84386865608394145965576171875">
        <ele>1118.5999755859375</ele>
        <time>2026-08-21T14:11:30.000Z</time>
        <extensions>
          <ns3:TrackPointExtension>
            <ns3:hr>128</ns3:hr>
            <ns3:cad>0</ns3:cad>
          </ns3:TrackPointExtension>
        </extensions>
      </trkpt>
      <trkpt lat="45.294040851294994354248046875" lon="-70.84388508461415767669677734375">
        <ele>1118</ele>
        <time>2026-08-21T14:11:31.000Z</time>
        <extensions>
          <ns3:TrackPointExtension>
            <ns3:hr>129</ns3:hr>
            <ns3:cad>0</ns3:cad>
          </ns3:TrackPointExtension>
        </extensions>
      </trkpt>
      <trkpt lat="45.29405501671135425567626953125" lon="-70.84391458891332149505615234375">
        <ele>1117.5999755859375</ele>
        <time>2026-08-21T14:11:32.000Z</time>
        <extensions>
          <ns3:TrackPointExtension>
            <ns3:hr>129</ns3:hr>
            <ns3:cad>0</ns3:cad>
          </ns3:TrackPointExtension>
        </extensions>
      </trkpt>
      <trkpt lat="45.29407530091702938079833984375" lon="-70.843931101262569427490234375">
        <ele>1117.199951171875</ele>
        <time>2026-08-21T14:11:33.000Z</time>
        <extensions>
          <ns3:TrackPointExtension>
            <ns3:hr>128</ns3:hr>
            <ns3:cad>0</ns3:cad>
          </ns3:TrackPointExtension>
        </extensions>
      </trkpt>
      <trkpt lat="45.29409960843622684478759765625" lon="-70.84395834244787693023681640625">
        <ele>1117</ele>
        <time>2026-08-21T14:11:34.000Z</time>
        <extensions>
          <ns3:TrackPointExtension>
            <ns3:hr>128</ns3:hr>
            <ns3:cad>0</ns3:cad>
          </ns3:TrackPointExtension>
        </extensions>
      </trkpt>
      <trkpt lat="45.29411285184323787689208984375" lon="-70.84397359751164913177490234375">
        <ele>1116.5999755859375</ele>
        <time>2026-08-21T14:11:35.000Z</time>
        <extensions>
          <ns3:TrackPointExtension>
            <ns3:hr>128</ns3:hr>
            <ns3:cad>40</ns3:cad>
          </ns3:TrackPointExtension>
        </extensions>
      </trkpt>
      <trkpt lat="45.2941224910318851470947265625" lon="-70.8439958095550537109375">
        <ele>1116.199951171875</ele>
        <time>2026-08-21T14:11:36.000Z</time>
        <extensions>
          <ns3:TrackPointExtension>
            <ns3:hr>128</ns3:hr>
            <ns3:cad>40</ns3:cad>
          </ns3:TrackPointExtension>
        </extensions>
      </trkpt>
      <trkpt lat="45.29412860982120037078857421875" lon="-70.84401927888393402099609375">
        <ele>1115.800048828125</ele>
        <time>2026-08-21T14:11:37.000Z</time>
        <extensions>
          <ns3:TrackPointExtension>
            <ns3:hr>128</ns3:hr>
            <ns3:cad>0</ns3:cad>
          </ns3:TrackPointExtension>
        </extensions>
      </trkpt>
      <trkpt lat="45.2941350638866424560546875" lon="-70.84404165856540203094482421875">
        <ele>1115.4000244140625</ele>
        <time>2026-08-21T14:11:38.000Z</time>
        <extensions>
          <ns3:TrackPointExtension>
            <ns3:hr>129</ns3:hr>
            <ns3:cad>77</ns3:cad>
          </ns3:TrackPointExtension>
        </extensions>
      </trkpt>
      <trkpt lat="45.2941516600549221038818359375" lon="-70.8440549857914447784423828125">
        <ele>1115</ele>
        <time>2026-08-21T14:11:39.000Z</time>
        <extensions>
          <ns3:TrackPointExtension>
            <ns3:hr>128</ns3:hr>
            <ns3:cad>77</ns3:cad>
          </ns3:TrackPointExtension>
        </extensions>
      </trkpt>
      <trkpt lat="45.2941660769283771514892578125" lon="-70.844075940549373626708984375">
        <ele>1114.5999755859375</ele>
        <time>2026-08-21T14:11:40.000Z</time>
        <extensions>
          <ns3:TrackPointExtension>
            <ns3:hr>129</ns3:hr>
            <ns3:cad>41</ns3:cad>
          </ns3:TrackPointExtension>
        </extensions>
      </trkpt>
      <trkpt lat="45.29417940415441989898681640625" lon="-70.84410351701080799102783203125">
        <ele>1114.199951171875</ele>
        <time>2026-08-21T14:11:41.000Z</time>
        <extensions>
          <ns3:TrackPointExtension>
            <ns3:hr>129</ns3:hr>
            <ns3:cad>41</ns3:cad>
          </ns3:TrackPointExtension>
        </extensions>
      </trkpt>
      <trkpt lat="45.2941882051527500152587890625" lon="-70.84411961026489734649658203125">
        <ele>1114</ele>
        <time>2026-08-21T14:11:42.000Z</time>
        <extensions>
          <ns3:TrackPointExtension>
            <ns3:hr>129</ns3:hr>
            <ns3:cad>75</ns3:cad>
          </ns3:TrackPointExtension>
        </extensions>
      </trkpt>
      <trkpt lat="45.29420144855976104736328125" lon="-70.84413888864219188690185546875">
        <ele>1113.800048828125</ele>
        <time>2026-08-21T14:11:43.000Z</time>
        <extensions>
          <ns3:TrackPointExtension>
            <ns3:hr>130</ns3:hr>
            <ns3:cad>75</ns3:cad>
          </ns3:TrackPointExtension>
        </extensions>
      </trkpt>
      <trkpt lat="45.29420857317745685577392578125" lon="-70.844154395163059234619140625">
        <ele>1113.4000244140625</ele>
        <time>2026-08-21T14:11:44.000Z</time>
        <extensions>
          <ns3:TrackPointExtension>
            <ns3:hr>130</ns3:hr>
            <ns3:cad>75</ns3:cad>
          </ns3:TrackPointExtension>
        </extensions>
      </trkpt>
      <trkpt lat="45.29421620070934295654296875" lon="-70.844177864491939544677734375">
        <ele>1113</ele>
        <time>2026-08-21T14:11:45.000Z</time>
        <extensions>
          <ns3:TrackPointExtension>
            <ns3:hr>130</ns3:hr>
            <ns3:cad>75</ns3:cad>
          </ns3:TrackPointExtension>
        </extensions>
      </trkpt>
      <trkpt lat="45.29422516934573650360107421875" lon="-70.844191946089267730712890625">
        <ele>1112.800048828125</ele>
        <time>2026-08-21T14:11:46.000Z</time>
        <extensions>
          <ns3:TrackPointExtension>
            <ns3:hr>130</ns3:hr>
            <ns3:cad>75</ns3:cad>
          </ns3:TrackPointExtension>
        </extensions>
      </trkpt>
      <trkpt lat="45.294235646724700927734375" lon="-70.84420829080045223236083984375">
        <ele>1112.4000244140625</ele>
        <time>2026-08-21T14:11:47.000Z</time>
        <extensions>
          <ns3:TrackPointExtension>
            <ns3:hr>131</ns3:hr>
            <ns3:cad>75</ns3:cad>
          </ns3:TrackPointExtension>
        </extensions>
      </trkpt>
      <trkpt lat="45.29424662701785564422607421875" lon="-70.844223797321319580078125">
        <ele>1112</ele>
        <time>2026-08-21T14:11:48.000Z</time>
        <extensions>
          <ns3:TrackPointExtension>
            <ns3:hr>131</ns3:hr>
            <ns3:cad>75</ns3:cad>
          </ns3:TrackPointExtension>
        </extensions>
      </trkpt>
      <trkpt lat="45.29425651766359806060791015625" lon="-70.844239890575408935546875">
        <ele>1111.5999755859375</ele>
        <time>2026-08-21T14:11:49.000Z</time>
        <extensions>
          <ns3:TrackPointExtension>
            <ns3:hr>131</ns3:hr>
            <ns3:cad>75</ns3:cad>
          </ns3:TrackPointExtension>
        </extensions>
      </trkpt>
      <trkpt lat="45.29427998699247837066650390625" lon="-70.8442514576017856597900390625">
        <ele>1111.4000244140625</ele>
        <time>2026-08-21T14:11:50.000Z</time>
        <extensions>
          <ns3:TrackPointExtension>
            <ns3:hr>131</ns3:hr>
            <ns3:cad>75</ns3:cad>
          </ns3:TrackPointExtension>
        </extensions>
      </trkpt>
      <trkpt lat="45.29429323039948940277099609375" lon="-70.844261348247528076171875">
        <ele>1111</ele>
        <time>2026-08-21T14:11:51.000Z</time>
        <extensions>
          <ns3:TrackPointExtension>
            <ns3:hr>130</ns3:hr>
            <ns3:cad>75</ns3:cad>
          </ns3:TrackPointExtension>
        </extensions>
      </trkpt>
      <trkpt lat="45.29430278576910495758056640625" lon="-70.8442648686468601226806640625">
        <ele>1111</ele>
        <time>2026-08-21T14:11:52.000Z</time>
        <extensions>
          <ns3:TrackPointExtension>
            <ns3:hr>130</ns3:hr>
            <ns3:cad>75</ns3:cad>
          </ns3:TrackPointExtension>
        </extensions>
      </trkpt>
      <trkpt lat="45.2943042106926441192626953125" lon="-70.8442678861320018768310546875">
        <ele>1110.800048828125</ele>
        <time>2026-08-21T14:11:53.000Z</time>
        <extensions>
          <ns3:TrackPointExtension>
            <ns3:hr>130</ns3:hr>
            <ns3:cad>75</ns3:cad>
          </ns3:TrackPointExtension>
        </extensions>
      </trkpt>
      <trkpt lat="45.29430764727294445037841796875" lon="-70.84427232854068279266357421875">
        <ele>1110.800048828125</ele>
        <time>2026-08-21T14:11:54.000Z</time>
        <extensions>
          <ns3:TrackPointExtension>
            <ns3:hr>130</ns3:hr>
            <ns3:cad>0</ns3:cad>
          </ns3:TrackPointExtension>
        </extensions>
      </trkpt>
      <trkpt lat="45.29431586153805255889892578125" lon="-70.844277776777744293212890625">
        <ele>1110.800048828125</ele>
        <time>2026-08-21T14:11:55.000Z</time>
        <extensions>
          <ns3:TrackPointExtension>
            <ns3:hr>129</ns3:hr>
            <ns3:cad>0</ns3:cad>
          </ns3:TrackPointExtension>
        </extensions>
      </trkpt>
      <trkpt lat="45.2943229861557483673095703125" lon="-70.844281129539012908935546875">
        <ele>1110.5999755859375</ele>
        <time>2026-08-21T14:11:56.000Z</time>
        <extensions>
          <ns3:TrackPointExtension>
            <ns3:hr>129</ns3:hr>
            <ns3:cad>0</ns3:cad>
          </ns3:TrackPointExtension>
        </extensions>
      </trkpt>
      <trkpt lat="45.29433296062052249908447265625" lon="-70.844291187822818756103515625">
        <ele>1110.4000244140625</ele>
        <time>2026-08-21T14:11:57.000Z</time>
        <extensions>
          <ns3:TrackPointExtension>
            <ns3:hr>130</ns3:hr>
            <ns3:cad>0</ns3:cad>
          </ns3:TrackPointExtension>
        </extensions>
      </trkpt>
      <trkpt lat="45.29434226453304290771484375" lon="-70.8443029224872589111328125">
        <ele>1110.199951171875</ele>
        <time>2026-08-21T14:11:58.000Z</time>
        <extensions>
          <ns3:TrackPointExtension>
            <ns3:hr>130</ns3:hr>
            <ns3:cad>0</ns3:cad>
          </ns3:TrackPointExtension>
        </extensions>
      </trkpt>
      <trkpt lat="45.29435106553137302398681640625" lon="-70.84430954419076442718505859375">
        <ele>1110</ele>
        <time>2026-08-21T14:11:59.000Z</time>
        <extensions>
          <ns3:TrackPointExtension>
            <ns3:hr>130</ns3:hr>
            <ns3:cad>0</ns3:cad>
          </ns3:TrackPointExtension>
        </extensions>
      </trkpt>
      <trkpt lat="45.29435726813971996307373046875" lon="-70.8443171717226505279541015625">
        <ele>1109.800048828125</ele>
        <time>2026-08-21T14:12:00.000Z</time>
        <extensions>
          <ns3:TrackPointExtension>
            <ns3:hr>131</ns3:hr>
            <ns3:cad>0</ns3:cad>
          </ns3:TrackPointExtension>
        </extensions>
      </trkpt>
      <trkpt lat="45.2943608723580837249755859375" lon="-70.8443243801593780517578125">
        <ele>1109.4000244140625</ele>
        <time>2026-08-21T14:12:01.000Z</time>
        <extensions>
          <ns3:TrackPointExtension>
            <ns3:hr>132</ns3:hr>
            <ns3:cad>0</ns3:cad>
          </ns3:TrackPointExtension>
        </extensions>
      </trkpt>
      <trkpt lat="45.29436615295708179473876953125" lon="-70.84433871321380138397216796875">
        <ele>1109.199951171875</ele>
        <time>2026-08-21T14:12:02.000Z</time>
        <extensions>
          <ns3:TrackPointExtension>
            <ns3:hr>132</ns3:hr>
            <ns3:cad>0</ns3:cad>
          </ns3:TrackPointExtension>
        </extensions>
      </trkpt>
      <trkpt lat="45.29437520541250705718994140625" lon="-70.8443500287830829620361328125">
        <ele>1108.800048828125</ele>
        <time>2026-08-21T14:12:03.000Z</time>
        <extensions>
          <ns3:TrackPointExtension>
            <ns3:hr>132</ns3:hr>
            <ns3:cad>0</ns3:cad>
          </ns3:TrackPointExtension>
        </extensions>
      </trkpt>
      <trkpt lat="45.2943860180675983428955078125" lon="-70.84435857832431793212890625">
        <ele>1108.4000244140625</ele>
        <time>2026-08-21T14:12:04.000Z</time>
        <extensions>
          <ns3:TrackPointExtension>
            <ns3:hr>133</ns3:hr>
            <ns3:cad>63</ns3:cad>
          </ns3:TrackPointExtension>
        </extensions>
      </trkpt>
      <trkpt lat="45.294398255646228790283203125" lon="-70.84436486475169658660888671875">
        <ele>1108</ele>
        <time>2026-08-21T14:12:05.000Z</time>
        <extensions>
          <ns3:TrackPointExtension>
            <ns3:hr>133</ns3:hr>
            <ns3:cad>63</ns3:cad>
          </ns3:TrackPointExtension>
        </extensions>
      </trkpt>
      <trkpt lat="45.2944031171500682830810546875" lon="-70.84437207318842411041259765625">
        <ele>1107.800048828125</ele>
        <time>2026-08-21T14:12:06.000Z</time>
        <extensions>
          <ns3:TrackPointExtension>
            <ns3:hr>132</ns3:hr>
            <ns3:cad>63</ns3:cad>
          </ns3:TrackPointExtension>
        </extensions>
      </trkpt>
      <trkpt lat="45.29442365281283855438232421875" lon="-70.84439076483249664306640625">
        <ele>1107.4000244140625</ele>
        <time>2026-08-21T14:12:07.000Z</time>
        <extensions>
          <ns3:TrackPointExtension>
            <ns3:hr>132</ns3:hr>
            <ns3:cad>63</ns3:cad>
          </ns3:TrackPointExtension>
        </extensions>
      </trkpt>
      <trkpt lat="45.2944359742105007171630859375" lon="-70.84440509788691997528076171875">
        <ele>1107</ele>
        <time>2026-08-21T14:12:08.000Z</time>
        <extensions>
          <ns3:TrackPointExtension>
            <ns3:hr>131</ns3:hr>
            <ns3:cad>63</ns3:cad>
          </ns3:TrackPointExtension>
        </extensions>
      </trkpt>
      <trkpt lat="45.294449217617511749267578125" lon="-70.84441959857940673828125">
        <ele>1106.800048828125</ele>
        <time>2026-08-21T14:12:09.000Z</time>
        <extensions>
          <ns3:TrackPointExtension>
            <ns3:hr>131</ns3:hr>
            <ns3:cad>63</ns3:cad>
          </ns3:TrackPointExtension>
        </extensions>
      </trkpt>
      <trkpt lat="45.2944641374051570892333984375" lon="-70.8444311656057834625244140625">
        <ele>1106.5999755859375</ele>
        <time>2026-08-21T14:12:10.000Z</time>
        <extensions>
          <ns3:TrackPointExtension>
            <ns3:hr>131</ns3:hr>
            <ns3:cad>63</ns3:cad>
          </ns3:TrackPointExtension>
        </extensions>
      </trkpt>
      <trkpt lat="45.29448031447827816009521484375" lon="-70.84444365464150905609130859375">
        <ele>1106.4000244140625</ele>
        <time>2026-08-21T14:12:11.000Z</time>
        <extensions>
          <ns3:TrackPointExtension>
            <ns3:hr>131</ns3:hr>
            <ns3:cad>75</ns3:cad>
          </ns3:TrackPointExtension>
        </extensions>
      </trkpt>
      <trkpt lat="45.294492803514003753662109375" lon="-70.8444599993526935577392578125">
        <ele>1106.199951171875</ele>
        <time>2026-08-21T14:12:12.000Z</time>
        <extensions>
          <ns3:TrackPointExtension>
            <ns3:hr>131</ns3:hr>
            <ns3:cad>75</ns3:cad>
          </ns3:TrackPointExtension>
        </extensions>
      </trkpt>
      <trkpt lat="45.2945023588836193084716796875" lon="-70.84447517059743404388427734375">
        <ele>1106</ele>
        <time>2026-08-21T14:12:13.000Z</time>
        <extensions>
          <ns3:TrackPointExtension>
            <ns3:hr>131</ns3:hr>
            <ns3:cad>75</ns3:cad>
          </ns3:TrackPointExtension>
        </extensions>
      </trkpt>
      <trkpt lat="45.29451283626258373260498046875" lon="-70.84449134767055511474609375">
        <ele>1105.5999755859375</ele>
        <time>2026-08-21T14:12:14.000Z</time>
        <extensions>
          <ns3:TrackPointExtension>
            <ns3:hr>131</ns3:hr>
            <ns3:cad>0</ns3:cad>
          </ns3:TrackPointExtension>
        </extensions>
      </trkpt>
      <trkpt lat="45.2945211343467235565185546875" lon="-70.8445079438388347625732421875">
        <ele>1105.4000244140625</ele>
        <time>2026-08-21T14:12:15.000Z</time>
        <extensions>
          <ns3:TrackPointExtension>
            <ns3:hr>131</ns3:hr>
            <ns3:cad>0</ns3:cad>
          </ns3:TrackPointExtension>
        </extensions>
      </trkpt>
      <trkpt lat="45.29453806579113006591796875" lon="-70.84452713839709758758544921875">
        <ele>1105</ele>
        <time>2026-08-21T14:12:16.000Z</time>
        <extensions>
          <ns3:TrackPointExtension>
            <ns3:hr>131</ns3:hr>
            <ns3:cad>0</ns3:cad>
          </ns3:TrackPointExtension>
        </extensions>
      </trkpt>
      <trkpt lat="45.29455709271132946014404296875" lon="-70.844541303813457489013671875">
        <ele>1104.5999755859375</ele>
        <time>2026-08-21T14:12:17.000Z</time>
        <extensions>
          <ns3:TrackPointExtension>
            <ns3:hr>131</ns3:hr>
            <ns3:cad>0</ns3:cad>
          </ns3:TrackPointExtension>
        </extensions>
      </trkpt>
      <trkpt lat="45.2945633791387081146240234375" lon="-70.84454725496470928192138671875">
        <ele>1104.199951171875</ele>
        <time>2026-08-21T14:12:18.000Z</time>
        <extensions>
          <ns3:TrackPointExtension>
            <ns3:hr>131</ns3:hr>
            <ns3:cad>0</ns3:cad>
          </ns3:TrackPointExtension>
        </extensions>
      </trkpt>
      <trkpt lat="45.2945754490792751312255859375" lon="-70.84456770680844783782958984375">
        <ele>1104</ele>
        <time>2026-08-21T14:12:19.000Z</time>
        <extensions>
          <ns3:TrackPointExtension>
            <ns3:hr>131</ns3:hr>
            <ns3:cad>0</ns3:cad>
          </ns3:TrackPointExtension>
        </extensions>
      </trkpt>
      <trkpt lat="45.2945871837437152862548828125" lon="-70.8445765078067779541015625">
        <ele>1103.5999755859375</ele>
        <time>2026-08-21T14:12:20.000Z</time>
        <extensions>
          <ns3:TrackPointExtension>
            <ns3:hr>131</ns3:hr>
            <ns3:cad>0</ns3:cad>
          </ns3:TrackPointExtension>
        </extensions>
      </trkpt>
      <trkpt lat="45.29459766112267971038818359375" lon="-70.84458480589091777801513671875">
        <ele>1103</ele>
        <time>2026-08-21T14:12:21.000Z</time>
        <extensions>
          <ns3:TrackPointExtension>
            <ns3:hr>131</ns3:hr>
            <ns3:cad>0</ns3:cad>
          </ns3:TrackPointExtension>
        </extensions>
      </trkpt>
      <trkpt lat="45.29460285790264606475830078125" lon="-70.844590924680233001708984375">
        <ele>1102.5999755859375</ele>
        <time>2026-08-21T14:12:22.000Z</time>
        <extensions>
          <ns3:TrackPointExtension>
            <ns3:hr>131</ns3:hr>
            <ns3:cad>0</ns3:cad>
          </ns3:TrackPointExtension>
        </extensions>
      </trkpt>
      <trkpt lat="45.2945964038372039794921875" lon="-70.84459402598440647125244140625">
        <ele>1102.199951171875</ele>
        <time>2026-08-21T14:12:23.000Z</time>
        <extensions>
          <ns3:TrackPointExtension>
            <ns3:hr>131</ns3:hr>
            <ns3:cad>0</ns3:cad>
          </ns3:TrackPointExtension>
        </extensions>
      </trkpt>
      <trkpt lat="45.29460201971232891082763671875" lon="-70.84461313672363758087158203125">
        <ele>1102</ele>
        <time>2026-08-21T14:12:24.000Z</time>
        <extensions>
          <ns3:TrackPointExtension>
            <ns3:hr>131</ns3:hr>
            <ns3:cad>0</ns3:cad>
          </ns3:TrackPointExtension>
        </extensions>
      </trkpt>
      <trkpt lat="45.29460872523486614227294921875" lon="-70.84462453611195087432861328125">
        <ele>1101.5999755859375</ele>
        <time>2026-08-21T14:12:25.000Z</time>
        <extensions>
          <ns3:TrackPointExtension>
            <ns3:hr>131</ns3:hr>
            <ns3:cad>53</ns3:cad>
          </ns3:TrackPointExtension>
        </extensions>
      </trkpt>
      <trkpt lat="45.2946170233190059661865234375" lon="-70.84463275037705898284912109375">
        <ele>1101.4000244140625</ele>
        <time>2026-08-21T14:12:26.000Z</time>
        <extensions>
          <ns3:TrackPointExtension>
            <ns3:hr>131</ns3:hr>
            <ns3:cad>53</ns3:cad>
          </ns3:TrackPointExtension>
        </extensions>
      </trkpt>
      <trkpt lat="45.29461978934705257415771484375" lon="-70.84465437568724155426025390625">
        <ele>1101.199951171875</ele>
        <time>2026-08-21T14:12:27.000Z</time>
        <extensions>
          <ns3:TrackPointExtension>
            <ns3:hr>131</ns3:hr>
            <ns3:cad>53</ns3:cad>
          </ns3:TrackPointExtension>
        </extensions>
      </trkpt>
      <trkpt lat="45.29462255537509918212890625" lon="-70.84467348642647266387939453125">
        <ele>1101</ele>
        <time>2026-08-21T14:12:28.000Z</time>
        <extensions>
          <ns3:TrackPointExtension>
            <ns3:hr>131</ns3:hr>
            <ns3:cad>53</ns3:cad>
          </ns3:TrackPointExtension>
        </extensions>
      </trkpt>
      <trkpt lat="45.2946243993937969207763671875" lon="-70.84469544701278209686279296875">
        <ele>1100.5999755859375</ele>
        <time>2026-08-21T14:12:29.000Z</time>
        <extensions>
          <ns3:TrackPointExtension>
            <ns3:hr>132</ns3:hr>
            <ns3:cad>53</ns3:cad>
          </ns3:TrackPointExtension>
        </extensions>
      </trkpt>
      <trkpt lat="45.29462565667927265167236328125" lon="-70.844702906906604766845703125">
        <ele>1100.199951171875</ele>
        <time>2026-08-21T14:12:30.000Z</time>
        <extensions>
          <ns3:TrackPointExtension>
            <ns3:hr>132</ns3:hr>
            <ns3:cad>79</ns3:cad>
          </ns3:TrackPointExtension>
        </extensions>
      </trkpt>
      <trkpt lat="45.29462498612701892852783203125" lon="-70.8447231911122798919677734375">
        <ele>1099.800048828125</ele>
        <time>2026-08-21T14:12:31.000Z</time>
        <extensions>
          <ns3:TrackPointExtension>
            <ns3:hr>132</ns3:hr>
            <ns3:cad>79</ns3:cad>
          </ns3:TrackPointExtension>
        </extensions>
      </trkpt>
      <trkpt lat="45.2946280874311923980712890625" lon="-70.84474372677505016326904296875">
        <ele>1099.4000244140625</ele>
        <time>2026-08-21T14:12:32.000Z</time>
        <extensions>
          <ns3:TrackPointExtension>
            <ns3:hr>131</ns3:hr>
            <ns3:cad>65</ns3:cad>
          </ns3:TrackPointExtension>
        </extensions>
      </trkpt>
      <trkpt lat="45.2946357987821102142333984375" lon="-70.84476652555167675018310546875">
        <ele>1099</ele>
        <time>2026-08-21T14:12:33.000Z</time>
        <extensions>
          <ns3:TrackPointExtension>
            <ns3:hr>131</ns3:hr>
            <ns3:cad>65</ns3:cad>
          </ns3:TrackPointExtension>
        </extensions>
      </trkpt>
      <trkpt lat="45.294643677771091461181640625" lon="-70.84478437900543212890625">
        <ele>1098.5999755859375</ele>
        <time>2026-08-21T14:12:34.000Z</time>
        <extensions>
          <ns3:TrackPointExtension>
            <ns3:hr>131</ns3:hr>
            <ns3:cad>65</ns3:cad>
          </ns3:TrackPointExtension>
        </extensions>
      </trkpt>
      <trkpt lat="45.2946525625884532928466796875" lon="-70.84480809979140758514404296875">
        <ele>1098.4000244140625</ele>
        <time>2026-08-21T14:12:35.000Z</time>
        <extensions>
          <ns3:TrackPointExtension>
            <ns3:hr>130</ns3:hr>
            <ns3:cad>62</ns3:cad>
          </ns3:TrackPointExtension>
        </extensions>
      </trkpt>
      <trkpt lat="45.2946642972528934478759765625" lon="-70.84483810700476169586181640625">
        <ele>1098</ele>
        <time>2026-08-21T14:12:36.000Z</time>
        <extensions>
          <ns3:TrackPointExtension>
            <ns3:hr>129</ns3:hr>
            <ns3:cad>62</ns3:cad>
          </ns3:TrackPointExtension>
        </extensions>
      </trkpt>
      <trkpt lat="45.2946743555366992950439453125" lon="-70.84485721774399280548095703125">
        <ele>1097.800048828125</ele>
        <time>2026-08-21T14:12:37.000Z</time>
        <extensions>
          <ns3:TrackPointExtension>
            <ns3:hr>128</ns3:hr>
            <ns3:cad>62</ns3:cad>
          </ns3:TrackPointExtension>
        </extensions>
      </trkpt>
      <trkpt lat="45.29468433000147342681884765625" lon="-70.844871886074542999267578125">
        <ele>1097.4000244140625</ele>
        <time>2026-08-21T14:12:38.000Z</time>
        <extensions>
          <ns3:TrackPointExtension>
            <ns3:hr>127</ns3:hr>
            <ns3:cad>62</ns3:cad>
          </ns3:TrackPointExtension>
        </extensions>
      </trkpt>
      <trkpt lat="45.294692628085613250732421875" lon="-70.84488387219607830047607421875">
        <ele>1097</ele>
        <time>2026-08-21T14:12:39.000Z</time>
        <extensions>
          <ns3:TrackPointExtension>
            <ns3:hr>127</ns3:hr>
            <ns3:cad>62</ns3:cad>
          </ns3:TrackPointExtension>
        </extensions>
      </trkpt>
      <trkpt lat="45.2947001717984676361083984375" lon="-70.84489175118505954742431640625">
        <ele>1096.5999755859375</ele>
        <time>2026-08-21T14:12:40.000Z</time>
        <extensions>
          <ns3:TrackPointExtension>
            <ns3:hr>126</ns3:hr>
            <ns3:cad>62</ns3:cad>
          </ns3:TrackPointExtension>
        </extensions>
      </trkpt>
      <trkpt lat="45.29470830224454402923583984375" lon="-70.84490499459207057952880859375">
        <ele>1096.199951171875</ele>
        <time>2026-08-21T14:12:41.000Z</time>
        <extensions>
          <ns3:TrackPointExtension>
            <ns3:hr>126</ns3:hr>
            <ns3:cad>62</ns3:cad>
          </ns3:TrackPointExtension>
        </extensions>
      </trkpt>
      <trkpt lat="45.2947139181196689605712890625" lon="-70.84491488523781299591064453125">
        <ele>1095.800048828125</ele>
        <time>2026-08-21T14:12:42.000Z</time>
        <extensions>
          <ns3:TrackPointExtension>
            <ns3:hr>126</ns3:hr>
            <ns3:cad>62</ns3:cad>
          </ns3:TrackPointExtension>
        </extensions>
      </trkpt>
      <trkpt lat="45.2947159297764301300048828125" lon="-70.84492561407387256622314453125">
        <ele>1095.4000244140625</ele>
        <time>2026-08-21T14:12:43.000Z</time>
        <extensions>
          <ns3:TrackPointExtension>
            <ns3:hr>127</ns3:hr>
            <ns3:cad>62</ns3:cad>
          </ns3:TrackPointExtension>
        </extensions>
      </trkpt>
      <trkpt lat="45.2947189472615718841552734375" lon="-70.84494036622345447540283203125">
        <ele>1095</ele>
        <time>2026-08-21T14:12:44.000Z</time>
        <extensions>
          <ns3:TrackPointExtension>
            <ns3:hr>126</ns3:hr>
            <ns3:cad>62</ns3:cad>
          </ns3:TrackPointExtension>
        </extensions>
      </trkpt>
      <trkpt lat="45.294721461832523345947265625" lon="-70.84495536983013153076171875">
        <ele>1094.5999755859375</ele>
        <time>2026-08-21T14:12:45.000Z</time>
        <extensions>
          <ns3:TrackPointExtension>
            <ns3:hr>126</ns3:hr>
            <ns3:cad>62</ns3:cad>
          </ns3:TrackPointExtension>
        </extensions>
      </trkpt>
      <trkpt lat="45.294724814593791961669921875" lon="-70.844967104494571685791015625">
        <ele>1094.199951171875</ele>
        <time>2026-08-21T14:12:46.000Z</time>
        <extensions>
          <ns3:TrackPointExtension>
            <ns3:hr>126</ns3:hr>
            <ns3:cad>62</ns3:cad>
          </ns3:TrackPointExtension>
        </extensions>
      </trkpt>
      <trkpt lat="45.294730849564075469970703125" lon="-70.84498126991093158721923828125">
        <ele>1094</ele>
        <time>2026-08-21T14:12:47.000Z</time>
        <extensions>
          <ns3:TrackPointExtension>
            <ns3:hr>127</ns3:hr>
            <ns3:cad>62</ns3:cad>
          </ns3:TrackPointExtension>
        </extensions>
      </trkpt>
      <trkpt lat="45.2947360463440418243408203125" lon="-70.84499426186084747314453125">
        <ele>1093.5999755859375</ele>
        <time>2026-08-21T14:12:48.000Z</time>
        <extensions>
          <ns3:TrackPointExtension>
            <ns3:hr>127</ns3:hr>
            <ns3:cad>62</ns3:cad>
          </ns3:TrackPointExtension>
        </extensions>
      </trkpt>
      <trkpt lat="45.29473747126758098602294921875" lon="-70.845004655420780181884765625">
        <ele>1093.199951171875</ele>
        <time>2026-08-21T14:12:49.000Z</time>
        <extensions>
          <ns3:TrackPointExtension>
            <ns3:hr>127</ns3:hr>
            <ns3:cad>0</ns3:cad>
          </ns3:TrackPointExtension>
        </extensions>
      </trkpt>
      <trkpt lat="45.294740237295627593994140625" lon="-70.84501278586685657501220703125">
        <ele>1092.800048828125</ele>
        <time>2026-08-21T14:12:50.000Z</time>
        <extensions>
          <ns3:TrackPointExtension>
            <ns3:hr>126</ns3:hr>
            <ns3:cad>0</ns3:cad>
          </ns3:TrackPointExtension>
        </extensions>
      </trkpt>
      <trkpt lat="45.294746272265911102294921875" lon="-70.8450195752084255218505859375">
        <ele>1092.5999755859375</ele>
        <time>2026-08-21T14:12:51.000Z</time>
        <extensions>
          <ns3:TrackPointExtension>
            <ns3:hr>127</ns3:hr>
            <ns3:cad>0</ns3:cad>
          </ns3:TrackPointExtension>
        </extensions>
      </trkpt>
      <trkpt lat="45.29475264251232147216796875" lon="-70.845032148063182830810546875">
        <ele>1092.199951171875</ele>
        <time>2026-08-21T14:12:52.000Z</time>
        <extensions>
          <ns3:TrackPointExtension>
            <ns3:hr>127</ns3:hr>
            <ns3:cad>0</ns3:cad>
          </ns3:TrackPointExtension>
        </extensions>
      </trkpt>
      <trkpt lat="45.29475674964487552642822265625" lon="-70.84504011087119579315185546875">
        <ele>1092</ele>
        <time>2026-08-21T14:12:53.000Z</time>
        <extensions>
          <ns3:TrackPointExtension>
            <ns3:hr>128</ns3:hr>
            <ns3:cad>0</ns3:cad>
          </ns3:TrackPointExtension>
        </extensions>
      </trkpt>
      <trkpt lat="45.294761024415493011474609375" lon="-70.8450500853359699249267578125">
        <ele>1091.800048828125</ele>
        <time>2026-08-21T14:12:54.000Z</time>
        <extensions>
          <ns3:TrackPointExtension>
            <ns3:hr>128</ns3:hr>
            <ns3:cad>0</ns3:cad>
          </ns3:TrackPointExtension>
        </extensions>
      </trkpt>
      <trkpt lat="45.2947632037103176116943359375" lon="-70.84506156854331493377685546875">
        <ele>1091.5999755859375</ele>
        <time>2026-08-21T14:12:55.000Z</time>
        <extensions>
          <ns3:TrackPointExtension>
            <ns3:hr>128</ns3:hr>
            <ns3:cad>0</ns3:cad>
          </ns3:TrackPointExtension>
        </extensions>
      </trkpt>
      <trkpt lat="45.2947655506432056427001953125" lon="-70.845084451138973236083984375">
        <ele>1091.4000244140625</ele>
        <time>2026-08-21T14:12:56.000Z</time>
        <extensions>
          <ns3:TrackPointExtension>
            <ns3:hr>128</ns3:hr>
            <ns3:cad>0</ns3:cad>
          </ns3:TrackPointExtension>
        </extensions>
      </trkpt>
      <trkpt lat="45.2947749383747577667236328125" lon="-70.8451020531356334686279296875">
        <ele>1091.199951171875</ele>
        <time>2026-08-21T14:12:57.000Z</time>
        <extensions>
          <ns3:TrackPointExtension>
            <ns3:hr>127</ns3:hr>
            <ns3:cad>0</ns3:cad>
          </ns3:TrackPointExtension>
        </extensions>
      </trkpt>
      <trkpt lat="45.29478390701115131378173828125" lon="-70.84512233734130859375">
        <ele>1091</ele>
        <time>2026-08-21T14:12:58.000Z</time>
        <extensions>
          <ns3:TrackPointExtension>
            <ns3:hr>128</ns3:hr>
            <ns3:cad>0</ns3:cad>
          </ns3:TrackPointExtension>
        </extensions>
      </trkpt>
      <trkpt lat="45.29479689896106719970703125" lon="-70.84514471702277660369873046875">
        <ele>1090.5999755859375</ele>
        <time>2026-08-21T14:12:59.000Z</time>
        <extensions>
          <ns3:TrackPointExtension>
            <ns3:hr>128</ns3:hr>
            <ns3:cad>0</ns3:cad>
          </ns3:TrackPointExtension>
        </extensions>
      </trkpt>
      <trkpt lat="45.29481089673936367034912109375" lon="-70.8451620675623416900634765625">
        <ele>1090.4000244140625</ele>
        <time>2026-08-21T14:13:00.000Z</time>
        <extensions>
          <ns3:TrackPointExtension>
            <ns3:hr>127</ns3:hr>
            <ns3:cad>0</ns3:cad>
          </ns3:TrackPointExtension>
        </extensions>
      </trkpt>
      <trkpt lat="45.294821374118328094482421875" lon="-70.845178663730621337890625">
        <ele>1089.800048828125</ele>
        <time>2026-08-21T14:13:01.000Z</time>
        <extensions>
          <ns3:TrackPointExtension>
            <ns3:hr>128</ns3:hr>
            <ns3:cad>0</ns3:cad>
          </ns3:TrackPointExtension>
        </extensions>
      </trkpt>
      <trkpt lat="45.294828750193119049072265625" lon="-70.845191739499568939208984375">
        <ele>1089.4000244140625</ele>
        <time>2026-08-21T14:13:02.000Z</time>
        <extensions>
          <ns3:TrackPointExtension>
            <ns3:hr>128</ns3:hr>
            <ns3:cad>0</ns3:cad>
          </ns3:TrackPointExtension>
        </extensions>
      </trkpt>
      <trkpt lat="45.29484115540981292724609375" lon="-70.8452106826007366180419921875">
        <ele>1089</ele>
        <time>2026-08-21T14:13:03.000Z</time>
        <extensions>
          <ns3:TrackPointExtension>
            <ns3:hr>127</ns3:hr>
            <ns3:cad>0</ns3:cad>
          </ns3:TrackPointExtension>
        </extensions>
      </trkpt>
      <trkpt lat="45.29486504383385181427001953125" lon="-70.84523457102477550506591796875">
        <ele>1088.5999755859375</ele>
        <time>2026-08-21T14:13:04.000Z</time>
        <extensions>
          <ns3:TrackPointExtension>
            <ns3:hr>127</ns3:hr>
            <ns3:cad>73</ns3:cad>
          </ns3:TrackPointExtension>
        </extensions>
      </trkpt>
      <trkpt lat="45.29487895779311656951904296875" lon="-70.84524882026016712188720703125">
        <ele>1088.4000244140625</ele>
        <time>2026-08-21T14:13:05.000Z</time>
        <extensions>
          <ns3:TrackPointExtension>
            <ns3:hr>126</ns3:hr>
            <ns3:cad>73</ns3:cad>
          </ns3:TrackPointExtension>
        </extensions>
      </trkpt>
      <trkpt lat="45.294897817075252532958984375" lon="-70.84526692517101764678955078125">
        <ele>1088</ele>
        <time>2026-08-21T14:13:06.000Z</time>
        <extensions>
          <ns3:TrackPointExtension>
            <ns3:hr>126</ns3:hr>
            <ns3:cad>73</ns3:cad>
          </ns3:TrackPointExtension>
        </extensions>
      </trkpt>
      <trkpt lat="45.29491030611097812652587890625" lon="-70.845282934606075286865234375">
        <ele>1087.800048828125</ele>
        <time>2026-08-21T14:13:07.000Z</time>
        <extensions>
          <ns3:TrackPointExtension>
            <ns3:hr>125</ns3:hr>
            <ns3:cad>71</ns3:cad>
          </ns3:TrackPointExtension>
        </extensions>
      </trkpt>
      <trkpt lat="45.2949234656989574432373046875" lon="-70.8452971838414669036865234375">
        <ele>1087.4000244140625</ele>
        <time>2026-08-21T14:13:08.000Z</time>
        <extensions>
          <ns3:TrackPointExtension>
            <ns3:hr>125</ns3:hr>
            <ns3:cad>71</ns3:cad>
          </ns3:TrackPointExtension>
        </extensions>
      </trkpt>
      <trkpt lat="45.294944085180759429931640625" lon="-70.84531134925782680511474609375">
        <ele>1087.199951171875</ele>
        <time>2026-08-21T14:13:09.000Z</time>
        <extensions>
          <ns3:TrackPointExtension>
            <ns3:hr>125</ns3:hr>
            <ns3:cad>71</ns3:cad>
          </ns3:TrackPointExtension>
        </extensions>
      </trkpt>
      <trkpt lat="45.29496110044419765472412109375" lon="-70.84531336091458797454833984375">
        <ele>1086.800048828125</ele>
        <time>2026-08-21T14:13:10.000Z</time>
        <extensions>
          <ns3:TrackPointExtension>
            <ns3:hr>124</ns3:hr>
            <ns3:cad>71</ns3:cad>
          </ns3:TrackPointExtension>
        </extensions>
      </trkpt>
      <trkpt lat="45.29496981762349605560302734375" lon="-70.84531076252460479736328125">
        <ele>1086.4000244140625</ele>
        <time>2026-08-21T14:13:11.000Z</time>
        <extensions>
          <ns3:TrackPointExtension>
            <ns3:hr>124</ns3:hr>
            <ns3:cad>71</ns3:cad>
          </ns3:TrackPointExtension>
        </extensions>
      </trkpt>
      <trkpt lat="45.294987671077251434326171875" lon="-70.8453129418194293975830078125">
        <ele>1086</ele>
        <time>2026-08-21T14:13:12.000Z</time>
        <extensions>
          <ns3:TrackPointExtension>
            <ns3:hr>123</ns3:hr>
            <ns3:cad>71</ns3:cad>
          </ns3:TrackPointExtension>
        </extensions>
      </trkpt>
      <trkpt lat="45.2950052730739116668701171875" lon="-70.84531788714230060577392578125">
        <ele>1085.5999755859375</ele>
        <time>2026-08-21T14:13:13.000Z</time>
        <extensions>
          <ns3:TrackPointExtension>
            <ns3:hr>122</ns3:hr>
            <ns3:cad>71</ns3:cad>
          </ns3:TrackPointExtension>
        </extensions>
      </trkpt>
      <trkpt lat="45.29502262361347675323486328125" lon="-70.845323838293552398681640625">
        <ele>1085.199951171875</ele>
        <time>2026-08-21T14:13:14.000Z</time>
        <extensions>
          <ns3:TrackPointExtension>
            <ns3:hr>121</ns3:hr>
            <ns3:cad>71</ns3:cad>
          </ns3:TrackPointExtension>
        </extensions>
      </trkpt>
      <trkpt lat="45.2950391359627246856689453125" lon="-70.84533087909221649169921875">
        <ele>1084.5999755859375</ele>
        <time>2026-08-21T14:13:15.000Z</time>
        <extensions>
          <ns3:TrackPointExtension>
            <ns3:hr>119</ns3:hr>
            <ns3:cad>71</ns3:cad>
          </ns3:TrackPointExtension>
        </extensions>
      </trkpt>
      <trkpt lat="45.2950555644929409027099609375" lon="-70.845337249338626861572265625">
        <ele>1084.199951171875</ele>
        <time>2026-08-21T14:13:16.000Z</time>
        <extensions>
          <ns3:TrackPointExtension>
            <ns3:hr>116</ns3:hr>
            <ns3:cad>74</ns3:cad>
          </ns3:TrackPointExtension>
        </extensions>
      </trkpt>
      <trkpt lat="45.29506939463317394256591796875" lon="-70.8453409373760223388671875">
        <ele>1083.5999755859375</ele>
        <time>2026-08-21T14:13:17.000Z</time>
        <extensions>
          <ns3:TrackPointExtension>
            <ns3:hr>112</ns3:hr>
            <ns3:cad>74</ns3:cad>
          </ns3:TrackPointExtension>
        </extensions>
      </trkpt>
      <trkpt lat="45.2950857393443584442138671875" lon="-70.84534353576600551605224609375">
        <ele>1083.199951171875</ele>
        <time>2026-08-21T14:13:18.000Z</time>
        <extensions>
          <ns3:TrackPointExtension>
            <ns3:hr>110</ns3:hr>
            <ns3:cad>74</ns3:cad>
          </ns3:TrackPointExtension>
        </extensions>
      </trkpt>
      <trkpt lat="45.29510359279811382293701171875" lon="-70.8453489840030670166015625">
        <ele>1082.800048828125</ele>
        <time>2026-08-21T14:13:19.000Z</time>
        <extensions>
          <ns3:TrackPointExtension>
            <ns3:hr>110</ns3:hr>
            <ns3:cad>74</ns3:cad>
          </ns3:TrackPointExtension>
        </extensions>
      </trkpt>
      <trkpt lat="45.2951159141957759857177734375" lon="-70.84535946138203144073486328125">
        <ele>1082.5999755859375</ele>
        <time>2026-08-21T14:13:20.000Z</time>
        <extensions>
          <ns3:TrackPointExtension>
            <ns3:hr>110</ns3:hr>
            <ns3:cad>74</ns3:cad>
          </ns3:TrackPointExtension>
        </extensions>
      </trkpt>
      <trkpt lat="45.2951343543827533721923828125" lon="-70.8453677594661712646484375">
        <ele>1082.199951171875</ele>
        <time>2026-08-21T14:13:21.000Z</time>
        <extensions>
          <ns3:TrackPointExtension>
            <ns3:hr>111</ns3:hr>
            <ns3:cad>75</ns3:cad>
          </ns3:TrackPointExtension>
        </extensions>
      </trkpt>
      <trkpt lat="45.29514801688492298126220703125" lon="-70.8453625626862049102783203125">
        <ele>1081.800048828125</ele>
        <time>2026-08-21T14:13:22.000Z</time>
        <extensions>
          <ns3:TrackPointExtension>
            <ns3:hr>111</ns3:hr>
            <ns3:cad>75</ns3:cad>
          </ns3:TrackPointExtension>
        </extensions>
      </trkpt>
      <trkpt lat="45.2951591648161411285400390625" lon="-70.84535107947885990142822265625">
        <ele>1081.4000244140625</ele>
        <time>2026-08-21T14:13:23.000Z</time>
        <extensions>
          <ns3:TrackPointExtension>
            <ns3:hr>113</ns3:hr>
            <ns3:cad>77</ns3:cad>
          </ns3:TrackPointExtension>
        </extensions>
      </trkpt>
      <trkpt lat="45.2951655350625514984130859375" lon="-70.84534563124179840087890625">
        <ele>1081</ele>
        <time>2026-08-21T14:13:24.000Z</time>
        <extensions>
          <ns3:TrackPointExtension>
            <ns3:hr>118</ns3:hr>
            <ns3:cad>77</ns3:cad>
          </ns3:TrackPointExtension>
        </extensions>
      </trkpt>
      <trkpt lat="45.2951802872121334075927734375" lon="-70.845343284308910369873046875">
        <ele>1080.800048828125</ele>
        <time>2026-08-21T14:13:25.000Z</time>
        <extensions>
          <ns3:TrackPointExtension>
            <ns3:hr>122</ns3:hr>
            <ns3:cad>77</ns3:cad>
          </ns3:TrackPointExtension>
        </extensions>
      </trkpt>
      <trkpt lat="45.29519411735236644744873046875" lon="-70.845344960689544677734375">
        <ele>1080.4000244140625</ele>
        <time>2026-08-21T14:13:26.000Z</time>
        <extensions>
          <ns3:TrackPointExtension>
            <ns3:hr>125</ns3:hr>
            <ns3:cad>73</ns3:cad>
          </ns3:TrackPointExtension>
        </extensions>
      </trkpt>
      <trkpt lat="45.29520484618842601776123046875" lon="-70.84534219466149806976318359375">
        <ele>1080.199951171875</ele>
        <time>2026-08-21T14:13:27.000Z</time>
        <extensions>
          <ns3:TrackPointExtension>
            <ns3:hr>125</ns3:hr>
            <ns3:cad>73</ns3:cad>
          </ns3:TrackPointExtension>
        </extensions>
      </trkpt>
      <trkpt lat="45.29521808959543704986572265625" lon="-70.84534688852727413177490234375">
        <ele>1080</ele>
        <time>2026-08-21T14:13:28.000Z</time>
        <extensions>
          <ns3:TrackPointExtension>
            <ns3:hr>126</ns3:hr>
            <ns3:cad>73</ns3:cad>
          </ns3:TrackPointExtension>
        </extensions>
      </trkpt>
      <trkpt lat="45.295233093202114105224609375" lon="-70.84535057656466960906982421875">
        <ele>1079.5999755859375</ele>
        <time>2026-08-21T14:13:29.000Z</time>
        <extensions>
          <ns3:TrackPointExtension>
            <ns3:hr>125</ns3:hr>
            <ns3:cad>73</ns3:cad>
          </ns3:TrackPointExtension>
        </extensions>
      </trkpt>
      <trkpt lat="45.29524927027523517608642578125" lon="-70.84535300731658935546875">
        <ele>1079.4000244140625</ele>
        <time>2026-08-21T14:13:30.000Z</time>
        <extensions>
          <ns3:TrackPointExtension>
            <ns3:hr>125</ns3:hr>
            <ns3:cad>73</ns3:cad>
          </ns3:TrackPointExtension>
        </extensions>
      </trkpt>
      <trkpt lat="45.295261256396770477294921875" lon="-70.8453541807830333709716796875">
        <ele>1079</ele>
        <time>2026-08-21T14:13:31.000Z</time>
        <extensions>
          <ns3:TrackPointExtension>
            <ns3:hr>125</ns3:hr>
            <ns3:cad>73</ns3:cad>
          </ns3:TrackPointExtension>
        </extensions>
      </trkpt>
      <trkpt lat="45.295275337994098663330078125" lon="-70.84536063484847545623779296875">
        <ele>1078.5999755859375</ele>
        <time>2026-08-21T14:13:32.000Z</time>
        <extensions>
          <ns3:TrackPointExtension>
            <ns3:hr>124</ns3:hr>
            <ns3:cad>73</ns3:cad>
          </ns3:TrackPointExtension>
        </extensions>
      </trkpt>
      <trkpt lat="45.295295454561710357666015625" lon="-70.84535845555365085601806640625">
        <ele>1078.4000244140625</ele>
        <time>2026-08-21T14:13:33.000Z</time>
        <extensions>
          <ns3:TrackPointExtension>
            <ns3:hr>124</ns3:hr>
            <ns3:cad>75</ns3:cad>
          </ns3:TrackPointExtension>
        </extensions>
      </trkpt>
      <trkpt lat="45.29530878178775310516357421875" lon="-70.84535300731658935546875">
        <ele>1078</ele>
        <time>2026-08-21T14:13:34.000Z</time>
        <extensions>
          <ns3:TrackPointExtension>
            <ns3:hr>124</ns3:hr>
            <ns3:cad>75</ns3:cad>
          </ns3:TrackPointExtension>
        </extensions>
      </trkpt>
      <trkpt lat="45.2953251264989376068115234375" lon="-70.8453463017940521240234375">
        <ele>1077.800048828125</ele>
        <time>2026-08-21T14:13:35.000Z</time>
        <extensions>
          <ns3:TrackPointExtension>
            <ns3:hr>125</ns3:hr>
            <ns3:cad>75</ns3:cad>
          </ns3:TrackPointExtension>
        </extensions>
      </trkpt>
      <trkpt lat="45.2953385375440120697021484375" lon="-70.84534839726984500885009765625">
        <ele>1077.5999755859375</ele>
        <time>2026-08-21T14:13:36.000Z</time>
        <extensions>
          <ns3:TrackPointExtension>
            <ns3:hr>125</ns3:hr>
            <ns3:cad>75</ns3:cad>
          </ns3:TrackPointExtension>
        </extensions>
      </trkpt>
      <trkpt lat="45.2953506074845790863037109375" lon="-70.84535175003111362457275390625">
        <ele>1077.4000244140625</ele>
        <time>2026-08-21T14:13:37.000Z</time>
        <extensions>
          <ns3:TrackPointExtension>
            <ns3:hr>125</ns3:hr>
            <ns3:cad>62</ns3:cad>
          </ns3:TrackPointExtension>
        </extensions>
      </trkpt>
      <trkpt lat="45.29536007903516292572021484375" lon="-70.8453518338501453399658203125">
        <ele>1077.4000244140625</ele>
        <time>2026-08-21T14:13:38.000Z</time>
        <extensions>
          <ns3:TrackPointExtension>
            <ns3:hr>126</ns3:hr>
            <ns3:cad>62</ns3:cad>
          </ns3:TrackPointExtension>
        </extensions>
      </trkpt>
      <trkpt lat="45.2953690476715564727783203125" lon="-70.84535527043044567108154296875">
        <ele>1077.199951171875</ele>
        <time>2026-08-21T14:13:39.000Z</time>
        <extensions>
          <ns3:TrackPointExtension>
            <ns3:hr>125</ns3:hr>
            <ns3:cad>62</ns3:cad>
          </ns3:TrackPointExtension>
        </extensions>
      </trkpt>
      <trkpt lat="45.295379944145679473876953125" lon="-70.84536130540072917938232421875">
        <ele>1077</ele>
        <time>2026-08-21T14:13:40.000Z</time>
        <extensions>
          <ns3:TrackPointExtension>
            <ns3:hr>125</ns3:hr>
            <ns3:cad>56</ns3:cad>
          </ns3:TrackPointExtension>
        </extensions>
      </trkpt>
      <trkpt lat="45.29538757167756557464599609375" lon="-70.8453699387609958648681640625">
        <ele>1076.5999755859375</ele>
        <time>2026-08-21T14:13:41.000Z</time>
        <extensions>
          <ns3:TrackPointExtension>
            <ns3:hr>125</ns3:hr>
            <ns3:cad>56</ns3:cad>
          </ns3:TrackPointExtension>
        </extensions>
      </trkpt>
      <trkpt lat="45.295392014086246490478515625" lon="-70.84537639282643795013427734375">
        <ele>1076.4000244140625</ele>
        <time>2026-08-21T14:13:42.000Z</time>
        <extensions>
          <ns3:TrackPointExtension>
            <ns3:hr>124</ns3:hr>
            <ns3:cad>52</ns3:cad>
          </ns3:TrackPointExtension>
        </extensions>
      </trkpt>
      <trkpt lat="45.2953982166945934295654296875" lon="-70.84538192488253116607666015625">
        <ele>1076</ele>
        <time>2026-08-21T14:13:43.000Z</time>
        <extensions>
          <ns3:TrackPointExtension>
            <ns3:hr>124</ns3:hr>
            <ns3:cad>52</ns3:cad>
          </ns3:TrackPointExtension>
        </extensions>
      </trkpt>
      <trkpt lat="45.2954119630157947540283203125" lon="-70.84539215080440044403076171875">
        <ele>1075.4000244140625</ele>
        <time>2026-08-21T14:13:44.000Z</time>
        <extensions>
          <ns3:TrackPointExtension>
            <ns3:hr>121</ns3:hr>
            <ns3:cad>52</ns3:cad>
          </ns3:TrackPointExtension>
        </extensions>
      </trkpt>
      <trkpt lat="45.2954287268221378326416015625" lon="-70.84540061652660369873046875">
        <ele>1075</ele>
        <time>2026-08-21T14:13:45.000Z</time>
        <extensions>
          <ns3:TrackPointExtension>
            <ns3:hr>120</ns3:hr>
            <ns3:cad>57</ns3:cad>
          </ns3:TrackPointExtension>
        </extensions>
      </trkpt>
      <trkpt lat="45.29544540680944919586181640625" lon="-70.84540321491658687591552734375">
        <ele>1074.5999755859375</ele>
        <time>2026-08-21T14:13:46.000Z</time>
        <extensions>
          <ns3:TrackPointExtension>
            <ns3:hr>121</ns3:hr>
            <ns3:cad>57</ns3:cad>
          </ns3:TrackPointExtension>
        </extensions>
      </trkpt>
      <trkpt lat="45.2954592369496822357177734375" lon="-70.845405645668506622314453125">
        <ele>1074.199951171875</ele>
        <time>2026-08-21T14:13:47.000Z</time>
        <extensions>
          <ns3:TrackPointExtension>
            <ns3:hr>122</ns3:hr>
            <ns3:cad>57</ns3:cad>
          </ns3:TrackPointExtension>
        </extensions>
      </trkpt>
      <trkpt lat="45.2954708039760589599609375" lon="-70.84541209973394870758056640625">
        <ele>1074</ele>
        <time>2026-08-21T14:13:48.000Z</time>
        <extensions>
          <ns3:TrackPointExtension>
            <ns3:hr>122</ns3:hr>
            <ns3:cad>57</ns3:cad>
          </ns3:TrackPointExtension>
        </extensions>
      </trkpt>
      <trkpt lat="45.2954823710024356842041015625" lon="-70.8454219065606594085693359375">
        <ele>1073.5999755859375</ele>
        <time>2026-08-21T14:13:49.000Z</time>
        <extensions>
          <ns3:TrackPointExtension>
            <ns3:hr>123</ns3:hr>
            <ns3:cad>57</ns3:cad>
          </ns3:TrackPointExtension>
        </extensions>
      </trkpt>
      <trkpt lat="45.29549318365752696990966796875" lon="-70.845426432788372039794921875">
        <ele>1073.4000244140625</ele>
        <time>2026-08-21T14:13:50.000Z</time>
        <extensions>
          <ns3:TrackPointExtension>
            <ns3:hr>123</ns3:hr>
            <ns3:cad>57</ns3:cad>
          </ns3:TrackPointExtension>
        </extensions>
      </trkpt>
      <trkpt lat="45.29550206847488880157470703125" lon="-70.8454333059489727020263671875">
        <ele>1073</ele>
        <time>2026-08-21T14:13:51.000Z</time>
        <extensions>
          <ns3:TrackPointExtension>
            <ns3:hr>124</ns3:hr>
            <ns3:cad>57</ns3:cad>
          </ns3:TrackPointExtension>
        </extensions>
      </trkpt>
      <trkpt lat="45.29550374485552310943603515625" lon="-70.84544328041374683380126953125">
        <ele>1072.5999755859375</ele>
        <time>2026-08-21T14:13:52.000Z</time>
        <extensions>
          <ns3:TrackPointExtension>
            <ns3:hr>124</ns3:hr>
            <ns3:cad>71</ns3:cad>
          </ns3:TrackPointExtension>
        </extensions>
      </trkpt>
      <trkpt lat="45.2955137193202972412109375" lon="-70.845460630953311920166015625">
        <ele>1072.199951171875</ele>
        <time>2026-08-21T14:13:53.000Z</time>
        <extensions>
          <ns3:TrackPointExtension>
            <ns3:hr>124</ns3:hr>
            <ns3:cad>71</ns3:cad>
          </ns3:TrackPointExtension>
        </extensions>
      </trkpt>
      <trkpt lat="45.29552771709859371185302734375" lon="-70.84547127597033977508544921875">
        <ele>1071.5999755859375</ele>
        <time>2026-08-21T14:13:54.000Z</time>
        <extensions>
          <ns3:TrackPointExtension>
            <ns3:hr>124</ns3:hr>
            <ns3:cad>71</ns3:cad>
          </ns3:TrackPointExtension>
        </extensions>
      </trkpt>
      <trkpt lat="45.2955383621156215667724609375" lon="-70.845479071140289306640625">
        <ele>1071.199951171875</ele>
        <time>2026-08-21T14:13:55.000Z</time>
        <extensions>
          <ns3:TrackPointExtension>
            <ns3:hr>124</ns3:hr>
            <ns3:cad>68</ns3:cad>
          </ns3:TrackPointExtension>
        </extensions>
      </trkpt>
      <trkpt lat="45.29555235989391803741455078125" lon="-70.8454866148531436920166015625">
        <ele>1070.800048828125</ele>
        <time>2026-08-21T14:13:56.000Z</time>
        <extensions>
          <ns3:TrackPointExtension>
            <ns3:hr>125</ns3:hr>
            <ns3:cad>68</ns3:cad>
          </ns3:TrackPointExtension>
        </extensions>
      </trkpt>
      <trkpt lat="45.29556929133832454681396484375" lon="-70.84549424238502979278564453125">
        <ele>1070.4000244140625</ele>
        <time>2026-08-21T14:13:57.000Z</time>
        <extensions>
          <ns3:TrackPointExtension>
            <ns3:hr>125</ns3:hr>
            <ns3:cad>68</ns3:cad>
          </ns3:TrackPointExtension>
        </extensions>
      </trkpt>
      <trkpt lat="45.29558169655501842498779296875" lon="-70.84550295956432819366455078125">
        <ele>1070.199951171875</ele>
        <time>2026-08-21T14:13:58.000Z</time>
        <extensions>
          <ns3:TrackPointExtension>
            <ns3:hr>124</ns3:hr>
            <ns3:cad>68</ns3:cad>
          </ns3:TrackPointExtension>
        </extensions>
      </trkpt>
      <trkpt lat="45.295593179762363433837890625" lon="-70.84550815634429454803466796875">
        <ele>1070</ele>
        <time>2026-08-21T14:13:59.000Z</time>
        <extensions>
          <ns3:TrackPointExtension>
            <ns3:hr>124</ns3:hr>
            <ns3:cad>68</ns3:cad>
          </ns3:TrackPointExtension>
        </extensions>
      </trkpt>
      <trkpt lat="45.2956057526171207427978515625" lon="-70.84551888518035411834716796875">
        <ele>1069.800048828125</ele>
        <time>2026-08-21T14:14:00.000Z</time>
        <extensions>
          <ns3:TrackPointExtension>
            <ns3:hr>124</ns3:hr>
            <ns3:cad>68</ns3:cad>
          </ns3:TrackPointExtension>
        </extensions>
      </trkpt>
      <trkpt lat="45.29562033712863922119140625" lon="-70.84552668035030364990234375">
        <ele>1069.4000244140625</ele>
        <time>2026-08-21T14:14:01.000Z</time>
        <extensions>
          <ns3:TrackPointExtension>
            <ns3:hr>122</ns3:hr>
            <ns3:cad>0</ns3:cad>
          </ns3:TrackPointExtension>
        </extensions>
      </trkpt>
      <trkpt lat="45.29562662355601787567138671875" lon="-70.84552609361708164215087890625">
        <ele>1069.199951171875</ele>
        <time>2026-08-21T14:14:02.000Z</time>
        <extensions>
          <ns3:TrackPointExtension>
            <ns3:hr>121</ns3:hr>
            <ns3:cad>68</ns3:cad>
          </ns3:TrackPointExtension>
        </extensions>
      </trkpt>
      <trkpt lat="45.2956325747072696685791015625" lon="-70.84552441723644733428955078125">
        <ele>1069</ele>
        <time>2026-08-21T14:14:03.000Z</time>
        <extensions>
          <ns3:TrackPointExtension>
            <ns3:hr>119</ns3:hr>
            <ns3:cad>68</ns3:cad>
          </ns3:TrackPointExtension>
        </extensions>
      </trkpt>
      <trkpt lat="45.2956436388194561004638671875" lon="-70.84552642889320850372314453125">
        <ele>1068.800048828125</ele>
        <time>2026-08-21T14:14:04.000Z</time>
        <extensions>
          <ns3:TrackPointExtension>
            <ns3:hr>119</ns3:hr>
            <ns3:cad>68</ns3:cad>
          </ns3:TrackPointExtension>
        </extensions>
      </trkpt>
      <trkpt lat="45.2956520207226276397705078125" lon="-70.8455238305032253265380859375">
        <ele>1068.5999755859375</ele>
        <time>2026-08-21T14:14:05.000Z</time>
        <extensions>
          <ns3:TrackPointExtension>
            <ns3:hr>118</ns3:hr>
            <ns3:cad>68</ns3:cad>
          </ns3:TrackPointExtension>
        </extensions>
      </trkpt>
      <trkpt lat="45.2956560440361499786376953125" lon="-70.8455241657793521881103515625">
        <ele>1068.5999755859375</ele>
        <time>2026-08-21T14:14:06.000Z</time>
        <extensions>
          <ns3:TrackPointExtension>
            <ns3:hr>119</ns3:hr>
            <ns3:cad>68</ns3:cad>
          </ns3:TrackPointExtension>
        </extensions>
      </trkpt>
      <trkpt lat="45.29565629549324512481689453125" lon="-70.84552441723644733428955078125">
        <ele>1068.4000244140625</ele>
        <time>2026-08-21T14:14:07.000Z</time>
        <extensions>
          <ns3:TrackPointExtension>
            <ns3:hr>119</ns3:hr>
            <ns3:cad>0</ns3:cad>
          </ns3:TrackPointExtension>
        </extensions>
      </trkpt>
      <trkpt lat="45.2956583909690380096435546875" lon="-70.84552466869354248046875">
        <ele>1068.4000244140625</ele>
        <time>2026-08-21T14:14:08.000Z</time>
        <extensions>
          <ns3:TrackPointExtension>
            <ns3:hr>120</ns3:hr>
            <ns3:cad>0</ns3:cad>
          </ns3:TrackPointExtension>
        </extensions>
      </trkpt>
      <trkpt lat="45.29566652141511440277099609375" lon="-70.8455171249806880950927734375">
        <ele>1068.4000244140625</ele>
        <time>2026-08-21T14:14:09.000Z</time>
        <extensions>
          <ns3:TrackPointExtension>
            <ns3:hr>120</ns3:hr>
            <ns3:cad>47</ns3:cad>
          </ns3:TrackPointExtension>
        </extensions>
      </trkpt>
      <trkpt lat="45.29567691497504711151123046875" lon="-70.845511592924594879150390625">
        <ele>1068.5999755859375</ele>
        <time>2026-08-21T14:14:10.000Z</time>
        <extensions>
          <ns3:TrackPointExtension>
            <ns3:hr>120</ns3:hr>
            <ns3:cad>47</ns3:cad>
          </ns3:TrackPointExtension>
        </extensions>
      </trkpt>
      <trkpt lat="45.2956855483353137969970703125" lon="-70.84550647996366024017333984375">
        <ele>1068.5999755859375</ele>
        <time>2026-08-21T14:14:11.000Z</time>
        <extensions>
          <ns3:TrackPointExtension>
            <ns3:hr>119</ns3:hr>
            <ns3:cad>47</ns3:cad>
          </ns3:TrackPointExtension>
        </extensions>
      </trkpt>
      <trkpt lat="45.295700132846832275390625" lon="-70.84550262428820133209228515625">
        <ele>1068.5999755859375</ele>
        <time>2026-08-21T14:14:12.000Z</time>
        <extensions>
          <ns3:TrackPointExtension>
            <ns3:hr>120</ns3:hr>
            <ns3:cad>47</ns3:cad>
          </ns3:TrackPointExtension>
        </extensions>
      </trkpt>
      <trkpt lat="45.29571010731160640716552734375" lon="-70.84549717605113983154296875">
        <ele>1068.5999755859375</ele>
        <time>2026-08-21T14:14:13.000Z</time>
        <extensions>
          <ns3:TrackPointExtension>
            <ns3:hr>120</ns3:hr>
            <ns3:cad>47</ns3:cad>
          </ns3:TrackPointExtension>
        </extensions>
      </trkpt>
      <trkpt lat="45.2957103587687015533447265625" lon="-70.845501534640789031982421875">
        <ele>1068.4000244140625</ele>
        <time>2026-08-21T14:14:14.000Z</time>
        <extensions>
          <ns3:TrackPointExtension>
            <ns3:hr>119</ns3:hr>
            <ns3:cad>47</ns3:cad>
          </ns3:TrackPointExtension>
        </extensions>
      </trkpt>
      <trkpt lat="45.29571312479674816131591796875" lon="-70.845508575439453125">
        <ele>1068.199951171875</ele>
        <time>2026-08-21T14:14:15.000Z</time>
        <extensions>
          <ns3:TrackPointExtension>
            <ns3:hr>119</ns3:hr>
            <ns3:cad>47</ns3:cad>
          </ns3:TrackPointExtension>
        </extensions>
      </trkpt>
      <trkpt lat="45.29571714811027050018310546875" lon="-70.8455104194581508636474609375">
        <ele>1068</ele>
        <time>2026-08-21T14:14:16.000Z</time>
        <extensions>
          <ns3:TrackPointExtension>
            <ns3:hr>119</ns3:hr>
            <ns3:cad>47</ns3:cad>
          </ns3:TrackPointExtension>
        </extensions>
      </trkpt>
      <trkpt lat="45.2957189083099365234375" lon="-70.84551393985748291015625">
        <ele>1067.5999755859375</ele>
        <time>2026-08-21T14:14:17.000Z</time>
        <extensions>
          <ns3:TrackPointExtension>
            <ns3:hr>120</ns3:hr>
            <ns3:cad>47</ns3:cad>
          </ns3:TrackPointExtension>
        </extensions>
      </trkpt>
      <trkpt lat="45.295716226100921630859375" lon="-70.8455193042755126953125">
        <ele>1067.199951171875</ele>
        <time>2026-08-21T14:14:18.000Z</time>
        <extensions>
          <ns3:TrackPointExtension>
            <ns3:hr>120</ns3:hr>
            <ns3:cad>47</ns3:cad>
          </ns3:TrackPointExtension>
        </extensions>
      </trkpt>
      <trkpt lat="45.29571832157671451568603515625" lon="-70.84553263150155544281005859375">
        <ele>1066.800048828125</ele>
        <time>2026-08-21T14:14:19.000Z</time>
        <extensions>
          <ns3:TrackPointExtension>
            <ns3:hr>120</ns3:hr>
            <ns3:cad>47</ns3:cad>
          </ns3:TrackPointExtension>
        </extensions>
      </trkpt>
      <trkpt lat="45.2957256138324737548828125" lon="-70.8455436117947101593017578125">
        <ele>1066.4000244140625</ele>
        <time>2026-08-21T14:14:20.000Z</time>
        <extensions>
          <ns3:TrackPointExtension>
            <ns3:hr>121</ns3:hr>
            <ns3:cad>47</ns3:cad>
          </ns3:TrackPointExtension>
        </extensions>
      </trkpt>
      <trkpt lat="45.29573860578238964080810546875" lon="-70.84554168395698070526123046875">
        <ele>1066.199951171875</ele>
        <time>2026-08-21T14:14:21.000Z</time>
        <extensions>
          <ns3:TrackPointExtension>
            <ns3:hr>121</ns3:hr>
            <ns3:cad>47</ns3:cad>
          </ns3:TrackPointExtension>
        </extensions>
      </trkpt>
      <trkpt lat="45.2957485802471637725830078125" lon="-70.8455439470708370208740234375">
        <ele>1065.800048828125</ele>
        <time>2026-08-21T14:14:22.000Z</time>
        <extensions>
          <ns3:TrackPointExtension>
            <ns3:hr>122</ns3:hr>
            <ns3:cad>47</ns3:cad>
          </ns3:TrackPointExtension>
        </extensions>
      </trkpt>
      <trkpt lat="45.295753441751003265380859375" lon="-70.84555358625948429107666015625">
        <ele>1065.5999755859375</ele>
        <time>2026-08-21T14:14:23.000Z</time>
        <extensions>
          <ns3:TrackPointExtension>
            <ns3:hr>123</ns3:hr>
            <ns3:cad>47</ns3:cad>
          </ns3:TrackPointExtension>
        </extensions>
      </trkpt>
      <trkpt lat="45.29576039873063564300537109375" lon="-70.84555811248719692230224609375">
        <ele>1065.199951171875</ele>
        <time>2026-08-21T14:14:24.000Z</time>
        <extensions>
          <ns3:TrackPointExtension>
            <ns3:hr>123</ns3:hr>
            <ns3:cad>47</ns3:cad>
          </ns3:TrackPointExtension>
        </extensions>
      </trkpt>
      <trkpt lat="45.295770205557346343994140625" lon="-70.8455620519816875457763671875">
        <ele>1065</ele>
        <time>2026-08-21T14:14:25.000Z</time>
        <extensions>
          <ns3:TrackPointExtension>
            <ns3:hr>123</ns3:hr>
            <ns3:cad>47</ns3:cad>
          </ns3:TrackPointExtension>
        </extensions>
      </trkpt>
      <trkpt lat="45.29578269459307193756103515625" lon="-70.84556850604712963104248046875">
        <ele>1064.5999755859375</ele>
        <time>2026-08-21T14:14:26.000Z</time>
        <extensions>
          <ns3:TrackPointExtension>
            <ns3:hr>124</ns3:hr>
            <ns3:cad>47</ns3:cad>
          </ns3:TrackPointExtension>
        </extensions>
      </trkpt>
      <trkpt lat="45.2957951836287975311279296875" lon="-70.845573283731937408447265625">
        <ele>1064.4000244140625</ele>
        <time>2026-08-21T14:14:27.000Z</time>
        <extensions>
          <ns3:TrackPointExtension>
            <ns3:hr>124</ns3:hr>
            <ns3:cad>47</ns3:cad>
          </ns3:TrackPointExtension>
        </extensions>
      </trkpt>
      <trkpt lat="45.2958060801029205322265625" lon="-70.84558426402509212493896484375">
        <ele>1064</ele>
        <time>2026-08-21T14:14:28.000Z</time>
        <extensions>
          <ns3:TrackPointExtension>
            <ns3:hr>125</ns3:hr>
            <ns3:cad>47</ns3:cad>
          </ns3:TrackPointExtension>
        </extensions>
      </trkpt>
      <trkpt lat="45.2958168089389801025390625" lon="-70.8455861918628215789794921875">
        <ele>1063.5999755859375</ele>
        <time>2026-08-21T14:14:29.000Z</time>
        <extensions>
          <ns3:TrackPointExtension>
            <ns3:hr>125</ns3:hr>
            <ns3:cad>47</ns3:cad>
          </ns3:TrackPointExtension>
        </extensions>
      </trkpt>
      <trkpt lat="45.29582678340375423431396484375" lon="-70.84558912552893161773681640625">
        <ele>1063.4000244140625</ele>
        <time>2026-08-21T14:14:30.000Z</time>
        <extensions>
          <ns3:TrackPointExtension>
            <ns3:hr>124</ns3:hr>
            <ns3:cad>47</ns3:cad>
          </ns3:TrackPointExtension>
        </extensions>
      </trkpt>
      <trkpt lat="45.29583466239273548126220703125" lon="-70.84558627568185329437255859375">
        <ele>1063</ele>
        <time>2026-08-21T14:14:31.000Z</time>
        <extensions>
          <ns3:TrackPointExtension>
            <ns3:hr>124</ns3:hr>
            <ns3:cad>0</ns3:cad>
          </ns3:TrackPointExtension>
        </extensions>
      </trkpt>
      <trkpt lat="45.2958436310291290283203125" lon="-70.84558711387217044830322265625">
        <ele>1062.5999755859375</ele>
        <time>2026-08-21T14:14:32.000Z</time>
        <extensions>
          <ns3:TrackPointExtension>
            <ns3:hr>123</ns3:hr>
            <ns3:cad>0</ns3:cad>
          </ns3:TrackPointExtension>
        </extensions>
      </trkpt>
      <trkpt lat="45.2958545275032520294189453125" lon="-70.84559247829020023345947265625">
        <ele>1062.199951171875</ele>
        <time>2026-08-21T14:14:33.000Z</time>
        <extensions>
          <ns3:TrackPointExtension>
            <ns3:hr>123</ns3:hr>
            <ns3:cad>0</ns3:cad>
          </ns3:TrackPointExtension>
        </extensions>
      </trkpt>
      <trkpt lat="45.29586299322545528411865234375" lon="-70.8455962501466274261474609375">
        <ele>1061.800048828125</ele>
        <time>2026-08-21T14:14:34.000Z</time>
        <extensions>
          <ns3:TrackPointExtension>
            <ns3:hr>122</ns3:hr>
            <ns3:cad>0</ns3:cad>
          </ns3:TrackPointExtension>
        </extensions>
      </trkpt>
      <trkpt lat="45.29587506316602230072021484375" lon="-70.845599435269832611083984375">
        <ele>1061.4000244140625</ele>
        <time>2026-08-21T14:14:35.000Z</time>
        <extensions>
          <ns3:TrackPointExtension>
            <ns3:hr>122</ns3:hr>
            <ns3:cad>0</ns3:cad>
          </ns3:TrackPointExtension>
        </extensions>
      </trkpt>
      <trkpt lat="45.29588126577436923980712890625" lon="-70.84560102783143520355224609375">
        <ele>1061.199951171875</ele>
        <time>2026-08-21T14:14:36.000Z</time>
        <extensions>
          <ns3:TrackPointExtension>
            <ns3:hr>121</ns3:hr>
            <ns3:cad>0</ns3:cad>
          </ns3:TrackPointExtension>
        </extensions>
      </trkpt>
      <trkpt lat="45.29589501209557056427001953125" lon="-70.845602117478847503662109375">
        <ele>1060.800048828125</ele>
        <time>2026-08-21T14:14:37.000Z</time>
        <extensions>
          <ns3:TrackPointExtension>
            <ns3:hr>121</ns3:hr>
            <ns3:cad>0</ns3:cad>
          </ns3:TrackPointExtension>
        </extensions>
      </trkpt>
      <trkpt lat="45.295908339321613311767578125" lon="-70.84560974501073360443115234375">
        <ele>1060.4000244140625</ele>
        <time>2026-08-21T14:14:38.000Z</time>
        <extensions>
          <ns3:TrackPointExtension>
            <ns3:hr>122</ns3:hr>
            <ns3:cad>0</ns3:cad>
          </ns3:TrackPointExtension>
        </extensions>
      </trkpt>
      <trkpt lat="45.295919738709926605224609375" lon="-70.84561175666749477386474609375">
        <ele>1060.199951171875</ele>
        <time>2026-08-21T14:14:39.000Z</time>
        <extensions>
          <ns3:TrackPointExtension>
            <ns3:hr>122</ns3:hr>
            <ns3:cad>0</ns3:cad>
          </ns3:TrackPointExtension>
        </extensions>
      </trkpt>
      <trkpt lat="45.29593256302177906036376953125" lon="-70.8456173725426197052001953125">
        <ele>1059.800048828125</ele>
        <time>2026-08-21T14:14:40.000Z</time>
        <extensions>
          <ns3:TrackPointExtension>
            <ns3:hr>122</ns3:hr>
            <ns3:cad>0</ns3:cad>
          </ns3:TrackPointExtension>
        </extensions>
      </trkpt>
      <trkpt lat="45.29594915919005870819091796875" lon="-70.84561913274228572845458984375">
        <ele>1059.5999755859375</ele>
        <time>2026-08-21T14:14:41.000Z</time>
        <extensions>
          <ns3:TrackPointExtension>
            <ns3:hr>121</ns3:hr>
            <ns3:cad>0</ns3:cad>
          </ns3:TrackPointExtension>
        </extensions>
      </trkpt>
      <trkpt lat="45.29595687054097652435302734375" lon="-70.84562248550355434417724609375">
        <ele>1059.199951171875</ele>
        <time>2026-08-21T14:14:42.000Z</time>
        <extensions>
          <ns3:TrackPointExtension>
            <ns3:hr>120</ns3:hr>
            <ns3:cad>0</ns3:cad>
          </ns3:TrackPointExtension>
        </extensions>
      </trkpt>
      <trkpt lat="45.295966677367687225341796875" lon="-70.84563137032091617584228515625">
        <ele>1059</ele>
        <time>2026-08-21T14:14:43.000Z</time>
        <extensions>
          <ns3:TrackPointExtension>
            <ns3:hr>120</ns3:hr>
            <ns3:cad>0</ns3:cad>
          </ns3:TrackPointExtension>
        </extensions>
      </trkpt>
      <trkpt lat="45.2959826029837131500244140625" lon="-70.84564025513827800750732421875">
        <ele>1058.5999755859375</ele>
        <time>2026-08-21T14:14:44.000Z</time>
        <extensions>
          <ns3:TrackPointExtension>
            <ns3:hr>119</ns3:hr>
            <ns3:cad>0</ns3:cad>
          </ns3:TrackPointExtension>
        </extensions>
      </trkpt>
      <trkpt lat="45.29599593020975589752197265625" lon="-70.84565651603043079376220703125">
        <ele>1058.199951171875</ele>
        <time>2026-08-21T14:14:45.000Z</time>
        <extensions>
          <ns3:TrackPointExtension>
            <ns3:hr>118</ns3:hr>
            <ns3:cad>0</ns3:cad>
          </ns3:TrackPointExtension>
        </extensions>
      </trkpt>
      <trkpt lat="45.29600984416902065277099609375" lon="-70.845666825771331787109375">
        <ele>1057.800048828125</ele>
        <time>2026-08-21T14:14:46.000Z</time>
        <extensions>
          <ns3:TrackPointExtension>
            <ns3:hr>118</ns3:hr>
            <ns3:cad>0</ns3:cad>
          </ns3:TrackPointExtension>
        </extensions>
      </trkpt>
      <trkpt lat="45.29601872898638248443603515625" lon="-70.84567378275096416473388671875">
        <ele>1057.4000244140625</ele>
        <time>2026-08-21T14:14:47.000Z</time>
        <extensions>
          <ns3:TrackPointExtension>
            <ns3:hr>118</ns3:hr>
            <ns3:cad>0</ns3:cad>
          </ns3:TrackPointExtension>
        </extensions>
      </trkpt>
      <trkpt lat="45.2960325591266155242919921875" lon="-70.84568602032959461212158203125">
        <ele>1057</ele>
        <time>2026-08-21T14:14:48.000Z</time>
        <extensions>
          <ns3:TrackPointExtension>
            <ns3:hr>117</ns3:hr>
            <ns3:cad>0</ns3:cad>
          </ns3:TrackPointExtension>
        </extensions>
      </trkpt>
      <trkpt lat="45.296046473085880279541015625" lon="-70.8457028679549694061279296875">
        <ele>1056.5999755859375</ele>
        <time>2026-08-21T14:14:49.000Z</time>
        <extensions>
          <ns3:TrackPointExtension>
            <ns3:hr>117</ns3:hr>
            <ns3:cad>0</ns3:cad>
          </ns3:TrackPointExtension>
        </extensions>
      </trkpt>
      <trkpt lat="45.2960583753883838653564453125" lon="-70.84571736864745616912841796875">
        <ele>1056.199951171875</ele>
        <time>2026-08-21T14:14:50.000Z</time>
        <extensions>
          <ns3:TrackPointExtension>
            <ns3:hr>117</ns3:hr>
            <ns3:cad>79</ns3:cad>
          </ns3:TrackPointExtension>
        </extensions>
      </trkpt>
      <trkpt lat="45.29607371427118778228759765625" lon="-70.845728181302547454833984375">
        <ele>1055.800048828125</ele>
        <time>2026-08-21T14:14:51.000Z</time>
        <extensions>
          <ns3:TrackPointExtension>
            <ns3:hr>118</ns3:hr>
            <ns3:cad>79</ns3:cad>
          </ns3:TrackPointExtension>
        </extensions>
      </trkpt>
      <trkpt lat="45.29608578421175479888916015625" lon="-70.84573882631957530975341796875">
        <ele>1055.5999755859375</ele>
        <time>2026-08-21T14:14:52.000Z</time>
        <extensions>
          <ns3:TrackPointExtension>
            <ns3:hr>118</ns3:hr>
            <ns3:cad>79</ns3:cad>
          </ns3:TrackPointExtension>
        </extensions>
      </trkpt>
      <trkpt lat="45.2961002849042415618896484375" lon="-70.84575240500271320343017578125">
        <ele>1055.199951171875</ele>
        <time>2026-08-21T14:14:53.000Z</time>
        <extensions>
          <ns3:TrackPointExtension>
            <ns3:hr>118</ns3:hr>
            <ns3:cad>79</ns3:cad>
          </ns3:TrackPointExtension>
        </extensions>
      </trkpt>
      <trkpt lat="45.29611051082611083984375" lon="-70.8457642234861850738525390625">
        <ele>1054.800048828125</ele>
        <time>2026-08-21T14:14:54.000Z</time>
        <extensions>
          <ns3:TrackPointExtension>
            <ns3:hr>119</ns3:hr>
            <ns3:cad>75</ns3:cad>
          </ns3:TrackPointExtension>
        </extensions>
      </trkpt>
      <trkpt lat="45.296115875244140625" lon="-70.8457781374454498291015625">
        <ele>1054.5999755859375</ele>
        <time>2026-08-21T14:14:55.000Z</time>
        <extensions>
          <ns3:TrackPointExtension>
            <ns3:hr>119</ns3:hr>
            <ns3:cad>75</ns3:cad>
          </ns3:TrackPointExtension>
        </extensions>
      </trkpt>
      <trkpt lat="45.296130292117595672607421875" lon="-70.84579280577600002288818359375">
        <ele>1054.199951171875</ele>
        <time>2026-08-21T14:14:56.000Z</time>
        <extensions>
          <ns3:TrackPointExtension>
            <ns3:hr>119</ns3:hr>
            <ns3:cad>75</ns3:cad>
          </ns3:TrackPointExtension>
        </extensions>
      </trkpt>
      <trkpt lat="45.29614361934363842010498046875" lon="-70.84580319933593273162841796875">
        <ele>1054</ele>
        <time>2026-08-21T14:14:57.000Z</time>
        <extensions>
          <ns3:TrackPointExtension>
            <ns3:hr>119</ns3:hr>
            <ns3:cad>75</ns3:cad>
          </ns3:TrackPointExtension>
        </extensions>
      </trkpt>
      <trkpt lat="45.29615602456033229827880859375" lon="-70.8458185382187366485595703125">
        <ele>1053.5999755859375</ele>
        <time>2026-08-21T14:14:58.000Z</time>
        <extensions>
          <ns3:TrackPointExtension>
            <ns3:hr>119</ns3:hr>
            <ns3:cad>75</ns3:cad>
          </ns3:TrackPointExtension>
        </extensions>
      </trkpt>
      <trkpt lat="45.2961703576147556304931640625" lon="-70.84583186544477939605712890625">
        <ele>1053.199951171875</ele>
        <time>2026-08-21T14:14:59.000Z</time>
        <extensions>
          <ns3:TrackPointExtension>
            <ns3:hr>119</ns3:hr>
            <ns3:cad>75</ns3:cad>
          </ns3:TrackPointExtension>
        </extensions>
      </trkpt>
      <trkpt lat="45.29618770815432071685791015625" lon="-70.84584510885179042816162109375">
        <ele>1052.800048828125</ele>
        <time>2026-08-21T14:15:00.000Z</time>
        <extensions>
          <ns3:TrackPointExtension>
            <ns3:hr>120</ns3:hr>
            <ns3:cad>75</ns3:cad>
          </ns3:TrackPointExtension>
        </extensions>
      </trkpt>
      <trkpt lat="45.29620413668453693389892578125" lon="-70.84585390985012054443359375">
        <ele>1052.5999755859375</ele>
        <time>2026-08-21T14:15:01.000Z</time>
        <extensions>
          <ns3:TrackPointExtension>
            <ns3:hr>120</ns3:hr>
            <ns3:cad>74</ns3:cad>
          </ns3:TrackPointExtension>
        </extensions>
      </trkpt>
      <trkpt lat="45.29622056521475315093994140625" lon="-70.8458624593913555145263671875">
        <ele>1052.199951171875</ele>
        <time>2026-08-21T14:15:02.000Z</time>
        <extensions>
          <ns3:TrackPointExtension>
            <ns3:hr>119</ns3:hr>
            <ns3:cad>74</ns3:cad>
          </ns3:TrackPointExtension>
        </extensions>
      </trkpt>
      <trkpt lat="45.2962360717356204986572265625" lon="-70.84587142802774906158447265625">
        <ele>1051.800048828125</ele>
        <time>2026-08-21T14:15:03.000Z</time>
        <extensions>
          <ns3:TrackPointExtension>
            <ns3:hr>119</ns3:hr>
            <ns3:cad>74</ns3:cad>
          </ns3:TrackPointExtension>
        </extensions>
      </trkpt>
      <trkpt lat="45.29625065624713897705078125" lon="-70.8458829112350940704345703125">
        <ele>1051.5999755859375</ele>
        <time>2026-08-21T14:15:04.000Z</time>
        <extensions>
          <ns3:TrackPointExtension>
            <ns3:hr>118</ns3:hr>
            <ns3:cad>73</ns3:cad>
          </ns3:TrackPointExtension>
        </extensions>
      </trkpt>
      <trkpt lat="45.296267755329608917236328125" lon="-70.84588886238634586334228515625">
        <ele>1051.199951171875</ele>
        <time>2026-08-21T14:15:05.000Z</time>
        <extensions>
          <ns3:TrackPointExtension>
            <ns3:hr>119</ns3:hr>
            <ns3:cad>73</ns3:cad>
          </ns3:TrackPointExtension>
        </extensions>
      </trkpt>
      <trkpt lat="45.29628778807818889617919921875" lon="-70.8458933047950267791748046875">
        <ele>1050.800048828125</ele>
        <time>2026-08-21T14:15:06.000Z</time>
        <extensions>
          <ns3:TrackPointExtension>
            <ns3:hr>119</ns3:hr>
            <ns3:cad>72</ns3:cad>
          </ns3:TrackPointExtension>
        </extensions>
      </trkpt>
      <trkpt lat="45.29629868455231189727783203125" lon="-70.84590378217399120330810546875">
        <ele>1050.5999755859375</ele>
        <time>2026-08-21T14:15:07.000Z</time>
        <extensions>
          <ns3:TrackPointExtension>
            <ns3:hr>120</ns3:hr>
            <ns3:cad>72</ns3:cad>
          </ns3:TrackPointExtension>
        </extensions>
      </trkpt>
      <trkpt lat="45.296307317912578582763671875" lon="-70.8459194563329219818115234375">
        <ele>1050.4000244140625</ele>
        <time>2026-08-21T14:15:08.000Z</time>
        <extensions>
          <ns3:TrackPointExtension>
            <ns3:hr>120</ns3:hr>
            <ns3:cad>72</ns3:cad>
          </ns3:TrackPointExtension>
        </extensions>
      </trkpt>
      <trkpt lat="45.2963215671479701995849609375" lon="-70.84593278355896472930908203125">
        <ele>1050</ele>
        <time>2026-08-21T14:15:09.000Z</time>
        <extensions>
          <ns3:TrackPointExtension>
            <ns3:hr>123</ns3:hr>
            <ns3:cad>74</ns3:cad>
          </ns3:TrackPointExtension>
        </extensions>
      </trkpt>
      <trkpt lat="45.2963386662304401397705078125" lon="-70.84594317711889743804931640625">
        <ele>1049.800048828125</ele>
        <time>2026-08-21T14:15:10.000Z</time>
        <extensions>
          <ns3:TrackPointExtension>
            <ns3:hr>126</ns3:hr>
            <ns3:cad>74</ns3:cad>
          </ns3:TrackPointExtension>
        </extensions>
      </trkpt>
      <trkpt lat="45.296352244913578033447265625" lon="-70.84595474414527416229248046875">
        <ele>1049.4000244140625</ele>
        <time>2026-08-21T14:15:11.000Z</time>
        <extensions>
          <ns3:TrackPointExtension>
            <ns3:hr>127</ns3:hr>
            <ns3:cad>75</ns3:cad>
          </ns3:TrackPointExtension>
        </extensions>
      </trkpt>
      <trkpt lat="45.29636423103511333465576171875" lon="-70.84596312604844570159912109375">
        <ele>1049.199951171875</ele>
        <time>2026-08-21T14:15:12.000Z</time>
        <extensions>
          <ns3:TrackPointExtension>
            <ns3:hr>128</ns3:hr>
            <ns3:cad>75</ns3:cad>
          </ns3:TrackPointExtension>
        </extensions>
      </trkpt>
      <trkpt lat="45.29637697152793407440185546875" lon="-70.84597050212323665618896484375">
        <ele>1048.800048828125</ele>
        <time>2026-08-21T14:15:13.000Z</time>
        <extensions>
          <ns3:TrackPointExtension>
            <ns3:hr>128</ns3:hr>
            <ns3:cad>76</ns3:cad>
          </ns3:TrackPointExtension>
        </extensions>
      </trkpt>
      <trkpt lat="45.29639423824846744537353515625" lon="-70.8459808118641376495361328125">
        <ele>1048.5999755859375</ele>
        <time>2026-08-21T14:15:14.000Z</time>
        <extensions>
          <ns3:TrackPointExtension>
            <ns3:hr>128</ns3:hr>
            <ns3:cad>76</ns3:cad>
          </ns3:TrackPointExtension>
        </extensions>
      </trkpt>
      <trkpt lat="45.29641167260706424713134765625" lon="-70.845986343920230865478515625">
        <ele>1048.4000244140625</ele>
        <time>2026-08-21T14:15:15.000Z</time>
        <extensions>
          <ns3:TrackPointExtension>
            <ns3:hr>129</ns3:hr>
            <ns3:cad>76</ns3:cad>
          </ns3:TrackPointExtension>
        </extensions>
      </trkpt>
      <trkpt lat="45.2964231558144092559814453125" lon="-70.84599179215729236602783203125">
        <ele>1048.199951171875</ele>
        <time>2026-08-21T14:15:16.000Z</time>
        <extensions>
          <ns3:TrackPointExtension>
            <ns3:hr>129</ns3:hr>
            <ns3:cad>76</ns3:cad>
          </ns3:TrackPointExtension>
        </extensions>
      </trkpt>
      <trkpt lat="45.2964372374117374420166015625" lon="-70.84600302390754222869873046875">
        <ele>1047.800048828125</ele>
        <time>2026-08-21T14:15:17.000Z</time>
        <extensions>
          <ns3:TrackPointExtension>
            <ns3:hr>129</ns3:hr>
            <ns3:cad>76</ns3:cad>
          </ns3:TrackPointExtension>
        </extensions>
      </trkpt>
      <trkpt lat="45.29645257629454135894775390625" lon="-70.84601123817265033721923828125">
        <ele>1047.5999755859375</ele>
        <time>2026-08-21T14:15:18.000Z</time>
        <extensions>
          <ns3:TrackPointExtension>
            <ns3:hr>129</ns3:hr>
            <ns3:cad>76</ns3:cad>
          </ns3:TrackPointExtension>
        </extensions>
      </trkpt>
      <trkpt lat="45.29646783135831356048583984375" lon="-70.84601995535194873809814453125">
        <ele>1047.199951171875</ele>
        <time>2026-08-21T14:15:19.000Z</time>
        <extensions>
          <ns3:TrackPointExtension>
            <ns3:hr>129</ns3:hr>
            <ns3:cad>76</ns3:cad>
          </ns3:TrackPointExtension>
        </extensions>
      </trkpt>
      <trkpt lat="45.2964771352708339691162109375" lon="-70.846030600368976593017578125">
        <ele>1046.800048828125</ele>
        <time>2026-08-21T14:15:20.000Z</time>
        <extensions>
          <ns3:TrackPointExtension>
            <ns3:hr>128</ns3:hr>
            <ns3:cad>76</ns3:cad>
          </ns3:TrackPointExtension>
        </extensions>
      </trkpt>
      <trkpt lat="45.29648057185113430023193359375" lon="-70.84604375995695590972900390625">
        <ele>1046.4000244140625</ele>
        <time>2026-08-21T14:15:21.000Z</time>
        <extensions>
          <ns3:TrackPointExtension>
            <ns3:hr>128</ns3:hr>
            <ns3:cad>74</ns3:cad>
          </ns3:TrackPointExtension>
        </extensions>
      </trkpt>
      <trkpt lat="45.29648442752659320831298828125" lon="-70.846054069697856903076171875">
        <ele>1046</ele>
        <time>2026-08-21T14:15:22.000Z</time>
        <extensions>
          <ns3:TrackPointExtension>
            <ns3:hr>127</ns3:hr>
            <ns3:cad>74</ns3:cad>
          </ns3:TrackPointExtension>
        </extensions>
      </trkpt>
      <trkpt lat="45.2964912168681621551513671875" lon="-70.84605951793491840362548828125">
        <ele>1045.5999755859375</ele>
        <time>2026-08-21T14:15:23.000Z</time>
        <extensions>
          <ns3:TrackPointExtension>
            <ns3:hr>127</ns3:hr>
            <ns3:cad>0</ns3:cad>
          </ns3:TrackPointExtension>
        </extensions>
      </trkpt>
      <trkpt lat="45.29649867676198482513427734375" lon="-70.8460629545152187347412109375">
        <ele>1045.199951171875</ele>
        <time>2026-08-21T14:15:24.000Z</time>
        <extensions>
          <ns3:TrackPointExtension>
            <ns3:hr>127</ns3:hr>
            <ns3:cad>0</ns3:cad>
          </ns3:TrackPointExtension>
        </extensions>
      </trkpt>
      <trkpt lat="45.29650605283677577972412109375" lon="-70.84607359953224658966064453125">
        <ele>1045</ele>
        <time>2026-08-21T14:15:25.000Z</time>
        <extensions>
          <ns3:TrackPointExtension>
            <ns3:hr>126</ns3:hr>
            <ns3:cad>0</ns3:cad>
          </ns3:TrackPointExtension>
        </extensions>
      </trkpt>
      <trkpt lat="45.2965156920254230499267578125" lon="-70.84608684293925762176513671875">
        <ele>1044.5999755859375</ele>
        <time>2026-08-21T14:15:26.000Z</time>
        <extensions>
          <ns3:TrackPointExtension>
            <ns3:hr>127</ns3:hr>
            <ns3:cad>0</ns3:cad>
          </ns3:TrackPointExtension>
        </extensions>
      </trkpt>
      <trkpt lat="45.29652751050889492034912109375" lon="-70.84609991870820522308349609375">
        <ele>1044.199951171875</ele>
        <time>2026-08-21T14:15:27.000Z</time>
        <extensions>
          <ns3:TrackPointExtension>
            <ns3:hr>126</ns3:hr>
            <ns3:cad>0</ns3:cad>
          </ns3:TrackPointExtension>
        </extensions>
      </trkpt>
      <trkpt lat="45.2965431846678256988525390625" lon="-70.84611542522907257080078125">
        <ele>1043.800048828125</ele>
        <time>2026-08-21T14:15:28.000Z</time>
        <extensions>
          <ns3:TrackPointExtension>
            <ns3:hr>126</ns3:hr>
            <ns3:cad>0</ns3:cad>
          </ns3:TrackPointExtension>
        </extensions>
      </trkpt>
      <trkpt lat="45.2965622954070568084716796875" lon="-70.8461321890354156494140625">
        <ele>1043.199951171875</ele>
        <time>2026-08-21T14:15:29.000Z</time>
        <extensions>
          <ns3:TrackPointExtension>
            <ns3:hr>128</ns3:hr>
            <ns3:cad>0</ns3:cad>
          </ns3:TrackPointExtension>
        </extensions>
      </trkpt>
      <trkpt lat="45.29657344333827495574951171875" lon="-70.84614534862339496612548828125">
        <ele>1042.5999755859375</ele>
        <time>2026-08-21T14:15:30.000Z</time>
        <extensions>
          <ns3:TrackPointExtension>
            <ns3:hr>130</ns3:hr>
            <ns3:cad>0</ns3:cad>
          </ns3:TrackPointExtension>
        </extensions>
      </trkpt>
      <trkpt lat="45.29658450745046138763427734375" lon="-70.84615875966846942901611328125">
        <ele>1042.199951171875</ele>
        <time>2026-08-21T14:15:31.000Z</time>
        <extensions>
          <ns3:TrackPointExtension>
            <ns3:hr>131</ns3:hr>
            <ns3:cad>0</ns3:cad>
          </ns3:TrackPointExtension>
        </extensions>
      </trkpt>
      <trkpt lat="45.29660403728485107421875" lon="-70.84617066197097301483154296875">
        <ele>1041.800048828125</ele>
        <time>2026-08-21T14:15:32.000Z</time>
        <extensions>
          <ns3:TrackPointExtension>
            <ns3:hr>131</ns3:hr>
            <ns3:cad>0</ns3:cad>
          </ns3:TrackPointExtension>
        </extensions>
      </trkpt>
      <trkpt lat="45.2966199629008769989013671875" lon="-70.84617787040770053863525390625">
        <ele>1041.4000244140625</ele>
        <time>2026-08-21T14:15:33.000Z</time>
        <extensions>
          <ns3:TrackPointExtension>
            <ns3:hr>130</ns3:hr>
            <ns3:cad>0</ns3:cad>
          </ns3:TrackPointExtension>
        </extensions>
      </trkpt>
      <trkpt lat="45.2966350503265857696533203125" lon="-70.846187174320220947265625">
        <ele>1041</ele>
        <time>2026-08-21T14:15:34.000Z</time>
        <extensions>
          <ns3:TrackPointExtension>
            <ns3:hr>130</ns3:hr>
            <ns3:cad>0</ns3:cad>
          </ns3:TrackPointExtension>
        </extensions>
      </trkpt>
      <trkpt lat="45.29665156267583370208740234375" lon="-70.84618574939668178558349609375">
        <ele>1040.5999755859375</ele>
        <time>2026-08-21T14:15:35.000Z</time>
        <extensions>
          <ns3:TrackPointExtension>
            <ns3:hr>130</ns3:hr>
            <ns3:cad>79</ns3:cad>
          </ns3:TrackPointExtension>
        </extensions>
      </trkpt>
      <trkpt lat="45.29666815884411334991455078125" lon="-70.846188850700855255126953125">
        <ele>1040.199951171875</ele>
        <time>2026-08-21T14:15:36.000Z</time>
        <extensions>
          <ns3:TrackPointExtension>
            <ns3:hr>130</ns3:hr>
            <ns3:cad>79</ns3:cad>
          </ns3:TrackPointExtension>
        </extensions>
      </trkpt>
      <trkpt lat="45.2966772951185703277587890625" lon="-70.84619999863207340240478515625">
        <ele>1039.800048828125</ele>
        <time>2026-08-21T14:15:37.000Z</time>
        <extensions>
          <ns3:TrackPointExtension>
            <ns3:hr>130</ns3:hr>
            <ns3:cad>79</ns3:cad>
          </ns3:TrackPointExtension>
        </extensions>
      </trkpt>
      <trkpt lat="45.29668651521205902099609375" lon="-70.84621575661003589630126953125">
        <ele>1039.5999755859375</ele>
        <time>2026-08-21T14:15:38.000Z</time>
        <extensions>
          <ns3:TrackPointExtension>
            <ns3:hr>130</ns3:hr>
            <ns3:cad>0</ns3:cad>
          </ns3:TrackPointExtension>
        </extensions>
      </trkpt>
      <trkpt lat="45.29669984243810176849365234375" lon="-70.84622128866612911224365234375">
        <ele>1039.199951171875</ele>
        <time>2026-08-21T14:15:39.000Z</time>
        <extensions>
          <ns3:TrackPointExtension>
            <ns3:hr>129</ns3:hr>
            <ns3:cad>0</ns3:cad>
          </ns3:TrackPointExtension>
        </extensions>
      </trkpt>
      <trkpt lat="45.29671241529285907745361328125" lon="-70.84622380323708057403564453125">
        <ele>1038.800048828125</ele>
        <time>2026-08-21T14:15:40.000Z</time>
        <extensions>
          <ns3:TrackPointExtension>
            <ns3:hr>129</ns3:hr>
            <ns3:cad>0</ns3:cad>
          </ns3:TrackPointExtension>
        </extensions>
      </trkpt>
      <trkpt lat="45.2967306040227413177490234375" lon="-70.84624576382339000701904296875">
        <ele>1038.5999755859375</ele>
        <time>2026-08-21T14:15:41.000Z</time>
        <extensions>
          <ns3:TrackPointExtension>
            <ns3:hr>129</ns3:hr>
            <ns3:cad>0</ns3:cad>
          </ns3:TrackPointExtension>
        </extensions>
      </trkpt>
      <trkpt lat="45.29674812220036983489990234375" lon="-70.84625297226011753082275390625">
        <ele>1038</ele>
        <time>2026-08-21T14:15:42.000Z</time>
        <extensions>
          <ns3:TrackPointExtension>
            <ns3:hr>129</ns3:hr>
            <ns3:cad>79</ns3:cad>
          </ns3:TrackPointExtension>
        </extensions>
      </trkpt>
      <trkpt lat="45.29676622711122035980224609375" lon="-70.84625984542071819305419921875">
        <ele>1037.5999755859375</ele>
        <time>2026-08-21T14:15:43.000Z</time>
        <extensions>
          <ns3:TrackPointExtension>
            <ns3:hr>128</ns3:hr>
            <ns3:cad>79</ns3:cad>
          </ns3:TrackPointExtension>
        </extensions>
      </trkpt>
      <trkpt lat="45.2967778779566287994384765625" lon="-70.8462674729526042938232421875">
        <ele>1037.4000244140625</ele>
        <time>2026-08-21T14:15:44.000Z</time>
        <extensions>
          <ns3:TrackPointExtension>
            <ns3:hr>128</ns3:hr>
            <ns3:cad>79</ns3:cad>
          </ns3:TrackPointExtension>
        </extensions>
      </trkpt>
      <trkpt lat="45.2967909537255764007568359375" lon="-70.8462654612958431243896484375">
        <ele>1037</ele>
        <time>2026-08-21T14:15:45.000Z</time>
        <extensions>
          <ns3:TrackPointExtension>
            <ns3:hr>128</ns3:hr>
            <ns3:cad>76</ns3:cad>
          </ns3:TrackPointExtension>
        </extensions>
      </trkpt>
      <trkpt lat="45.29680092819035053253173828125" lon="-70.8462651260197162628173828125">
        <ele>1036.800048828125</ele>
        <time>2026-08-21T14:15:46.000Z</time>
        <extensions>
          <ns3:TrackPointExtension>
            <ns3:hr>129</ns3:hr>
            <ns3:cad>76</ns3:cad>
          </ns3:TrackPointExtension>
        </extensions>
      </trkpt>
      <trkpt lat="45.296813584864139556884765625" lon="-70.84627778269350528717041015625">
        <ele>1036.5999755859375</ele>
        <time>2026-08-21T14:15:47.000Z</time>
        <extensions>
          <ns3:TrackPointExtension>
            <ns3:hr>128</ns3:hr>
            <ns3:cad>76</ns3:cad>
          </ns3:TrackPointExtension>
        </extensions>
      </trkpt>
      <trkpt lat="45.29682372696697711944580078125" lon="-70.84628750570118427276611328125">
        <ele>1036.4000244140625</ele>
        <time>2026-08-21T14:15:48.000Z</time>
        <extensions>
          <ns3:TrackPointExtension>
            <ns3:hr>129</ns3:hr>
            <ns3:cad>76</ns3:cad>
          </ns3:TrackPointExtension>
        </extensions>
      </trkpt>
      <trkpt lat="45.29684099368751049041748046875" lon="-70.8463026769459247589111328125">
        <ele>1036</ele>
        <time>2026-08-21T14:15:49.000Z</time>
        <extensions>
          <ns3:TrackPointExtension>
            <ns3:hr>128</ns3:hr>
            <ns3:cad>76</ns3:cad>
          </ns3:TrackPointExtension>
        </extensions>
      </trkpt>
      <trkpt lat="45.29685608111321926116943359375" lon="-70.846311561763286590576171875">
        <ele>1035.800048828125</ele>
        <time>2026-08-21T14:15:50.000Z</time>
        <extensions>
          <ns3:TrackPointExtension>
            <ns3:hr>128</ns3:hr>
            <ns3:cad>76</ns3:cad>
          </ns3:TrackPointExtension>
        </extensions>
      </trkpt>
      <trkpt lat="45.2968697436153888702392578125" lon="-70.8463172614574432373046875">
        <ele>1035.199951171875</ele>
        <time>2026-08-21T14:15:51.000Z</time>
        <extensions>
          <ns3:TrackPointExtension>
            <ns3:hr>128</ns3:hr>
            <ns3:cad>76</ns3:cad>
          </ns3:TrackPointExtension>
        </extensions>
      </trkpt>
      <trkpt lat="45.29688491486012935638427734375" lon="-70.84632237441837787628173828125">
        <ele>1034.800048828125</ele>
        <time>2026-08-21T14:15:52.000Z</time>
        <extensions>
          <ns3:TrackPointExtension>
            <ns3:hr>128</ns3:hr>
            <ns3:cad>76</ns3:cad>
          </ns3:TrackPointExtension>
        </extensions>
      </trkpt>
      <trkpt lat="45.29690050520002841949462890625" lon="-70.84633662365376949310302734375">
        <ele>1034.4000244140625</ele>
        <time>2026-08-21T14:15:53.000Z</time>
        <extensions>
          <ns3:TrackPointExtension>
            <ns3:hr>127</ns3:hr>
            <ns3:cad>76</ns3:cad>
          </ns3:TrackPointExtension>
        </extensions>
      </trkpt>
      <trkpt lat="45.296912826597690582275390625" lon="-70.84635070525109767913818359375">
        <ele>1034</ele>
        <time>2026-08-21T14:15:54.000Z</time>
        <extensions>
          <ns3:TrackPointExtension>
            <ns3:hr>127</ns3:hr>
            <ns3:cad>71</ns3:cad>
          </ns3:TrackPointExtension>
        </extensions>
      </trkpt>
      <trkpt lat="45.2969250641763210296630859375" lon="-70.84635816514492034912109375">
        <ele>1033.4000244140625</ele>
        <time>2026-08-21T14:15:55.000Z</time>
        <extensions>
          <ns3:TrackPointExtension>
            <ns3:hr>127</ns3:hr>
            <ns3:cad>0</ns3:cad>
          </ns3:TrackPointExtension>
        </extensions>
      </trkpt>
      <trkpt lat="45.2969458512961864471435546875" lon="-70.84635506384074687957763671875">
        <ele>1033</ele>
        <time>2026-08-21T14:15:56.000Z</time>
        <extensions>
          <ns3:TrackPointExtension>
            <ns3:hr>127</ns3:hr>
            <ns3:cad>0</ns3:cad>
          </ns3:TrackPointExtension>
        </extensions>
      </trkpt>
      <trkpt lat="45.296955741941928863525390625" lon="-70.846358835697174072265625">
        <ele>1032.5999755859375</ele>
        <time>2026-08-21T14:15:57.000Z</time>
        <extensions>
          <ns3:TrackPointExtension>
            <ns3:hr>127</ns3:hr>
            <ns3:cad>0</ns3:cad>
          </ns3:TrackPointExtension>
        </extensions>
      </trkpt>
      <trkpt lat="45.29697124846279621124267578125" lon="-70.84635908715426921844482421875">
        <ele>1032.199951171875</ele>
        <time>2026-08-21T14:15:58.000Z</time>
        <extensions>
          <ns3:TrackPointExtension>
            <ns3:hr>127</ns3:hr>
            <ns3:cad>0</ns3:cad>
          </ns3:TrackPointExtension>
        </extensions>
      </trkpt>
      <trkpt lat="45.29698449186980724334716796875" lon="-70.84636084735393524169921875">
        <ele>1031.5999755859375</ele>
        <time>2026-08-21T14:15:59.000Z</time>
        <extensions>
          <ns3:TrackPointExtension>
            <ns3:hr>127</ns3:hr>
            <ns3:cad>0</ns3:cad>
          </ns3:TrackPointExtension>
        </extensions>
      </trkpt>
      <trkpt lat="45.296999327838420867919921875" lon="-70.8463663794100284576416015625">
        <ele>1031.199951171875</ele>
        <time>2026-08-21T14:16:00.000Z</time>
        <extensions>
          <ns3:TrackPointExtension>
            <ns3:hr>128</ns3:hr>
            <ns3:cad>0</ns3:cad>
          </ns3:TrackPointExtension>
        </extensions>
      </trkpt>
      <trkpt lat="45.29701164923608303070068359375" lon="-70.84637199528515338897705078125">
        <ele>1030.800048828125</ele>
        <time>2026-08-21T14:16:01.000Z</time>
        <extensions>
          <ns3:TrackPointExtension>
            <ns3:hr>128</ns3:hr>
            <ns3:cad>0</ns3:cad>
          </ns3:TrackPointExtension>
        </extensions>
      </trkpt>
      <trkpt lat="45.2970291674137115478515625" lon="-70.84637048654258251190185546875">
        <ele>1030.4000244140625</ele>
        <time>2026-08-21T14:16:02.000Z</time>
        <extensions>
          <ns3:TrackPointExtension>
            <ns3:hr>128</ns3:hr>
            <ns3:cad>0</ns3:cad>
          </ns3:TrackPointExtension>
        </extensions>
      </trkpt>
      <trkpt lat="45.297044925391674041748046875" lon="-70.846365876495838165283203125">
        <ele>1030</ele>
        <time>2026-08-21T14:16:03.000Z</time>
        <extensions>
          <ns3:TrackPointExtension>
            <ns3:hr>128</ns3:hr>
            <ns3:cad>0</ns3:cad>
          </ns3:TrackPointExtension>
        </extensions>
      </trkpt>
      <trkpt lat="45.29705406166613101959228515625" lon="-70.846369229257106781005859375">
        <ele>1029.5999755859375</ele>
        <time>2026-08-21T14:16:04.000Z</time>
        <extensions>
          <ns3:TrackPointExtension>
            <ns3:hr>129</ns3:hr>
            <ns3:cad>77</ns3:cad>
          </ns3:TrackPointExtension>
        </extensions>
      </trkpt>
      <trkpt lat="45.29706864617764949798583984375" lon="-70.84637719206511974334716796875">
        <ele>1029.199951171875</ele>
        <time>2026-08-21T14:16:05.000Z</time>
        <extensions>
          <ns3:TrackPointExtension>
            <ns3:hr>130</ns3:hr>
            <ns3:cad>77</ns3:cad>
          </ns3:TrackPointExtension>
        </extensions>
      </trkpt>
      <trkpt lat="45.29708473943173885345458984375" lon="-70.8463804610073566436767578125">
        <ele>1028.5999755859375</ele>
        <time>2026-08-21T14:16:06.000Z</time>
        <extensions>
          <ns3:TrackPointExtension>
            <ns3:hr>130</ns3:hr>
            <ns3:cad>78</ns3:cad>
          </ns3:TrackPointExtension>
        </extensions>
      </trkpt>
      <trkpt lat="45.29709555208683013916015625" lon="-70.8463848195970058441162109375">
        <ele>1028.199951171875</ele>
        <time>2026-08-21T14:16:07.000Z</time>
        <extensions>
          <ns3:TrackPointExtension>
            <ns3:hr>130</ns3:hr>
            <ns3:cad>78</ns3:cad>
          </ns3:TrackPointExtension>
        </extensions>
      </trkpt>
      <trkpt lat="45.29710737057030200958251953125" lon="-70.84639512933790683746337890625">
        <ele>1027.800048828125</ele>
        <time>2026-08-21T14:16:08.000Z</time>
        <extensions>
          <ns3:TrackPointExtension>
            <ns3:hr>130</ns3:hr>
            <ns3:cad>78</ns3:cad>
          </ns3:TrackPointExtension>
        </extensions>
      </trkpt>
      <trkpt lat="45.2971248887479305267333984375" lon="-70.8464072830975055694580078125">
        <ele>1027.199951171875</ele>
        <time>2026-08-21T14:16:09.000Z</time>
        <extensions>
          <ns3:TrackPointExtension>
            <ns3:hr>130</ns3:hr>
            <ns3:cad>78</ns3:cad>
          </ns3:TrackPointExtension>
        </extensions>
      </trkpt>
      <trkpt lat="45.29714047908782958984375" lon="-70.846406109631061553955078125">
        <ele>1026.800048828125</ele>
        <time>2026-08-21T14:16:10.000Z</time>
        <extensions>
          <ns3:TrackPointExtension>
            <ns3:hr>131</ns3:hr>
            <ns3:cad>78</ns3:cad>
          </ns3:TrackPointExtension>
        </extensions>
      </trkpt>
      <trkpt lat="45.2971527166664600372314453125" lon="-70.84640585817396640777587890625">
        <ele>1026.5999755859375</ele>
        <time>2026-08-21T14:16:11.000Z</time>
        <extensions>
          <ns3:TrackPointExtension>
            <ns3:hr>131</ns3:hr>
            <ns3:cad>78</ns3:cad>
          </ns3:TrackPointExtension>
        </extensions>
      </trkpt>
      <trkpt lat="45.29717107303440570831298828125" lon="-70.84641289897263050079345703125">
        <ele>1026.199951171875</ele>
        <time>2026-08-21T14:16:12.000Z</time>
        <extensions>
          <ns3:TrackPointExtension>
            <ns3:hr>131</ns3:hr>
            <ns3:cad>78</ns3:cad>
          </ns3:TrackPointExtension>
        </extensions>
      </trkpt>
      <trkpt lat="45.29718666337430477142333984375" lon="-70.8464113064110279083251953125">
        <ele>1025.800048828125</ele>
        <time>2026-08-21T14:16:13.000Z</time>
        <extensions>
          <ns3:TrackPointExtension>
            <ns3:hr>132</ns3:hr>
            <ns3:cad>79</ns3:cad>
          </ns3:TrackPointExtension>
        </extensions>
      </trkpt>
      <trkpt lat="45.29719890095293521881103515625" lon="-70.8464096300303936004638671875">
        <ele>1025.4000244140625</ele>
        <time>2026-08-21T14:16:14.000Z</time>
        <extensions>
          <ns3:TrackPointExtension>
            <ns3:hr>132</ns3:hr>
            <ns3:cad>79</ns3:cad>
          </ns3:TrackPointExtension>
        </extensions>
      </trkpt>
      <trkpt lat="45.297215916216373443603515625" lon="-70.8464163355529308319091796875">
        <ele>1024.800048828125</ele>
        <time>2026-08-21T14:16:15.000Z</time>
        <extensions>
          <ns3:TrackPointExtension>
            <ns3:hr>133</ns3:hr>
            <ns3:cad>79</ns3:cad>
          </ns3:TrackPointExtension>
        </extensions>
      </trkpt>
      <trkpt lat="45.29722890816628932952880859375" lon="-70.846419520676136016845703125">
        <ele>1024.4000244140625</ele>
        <time>2026-08-21T14:16:16.000Z</time>
        <extensions>
          <ns3:TrackPointExtension>
            <ns3:hr>133</ns3:hr>
            <ns3:cad>79</ns3:cad>
          </ns3:TrackPointExtension>
        </extensions>
      </trkpt>
      <trkpt lat="45.297238044440746307373046875" lon="-70.84641876630485057830810546875">
        <ele>1024</ele>
        <time>2026-08-21T14:16:17.000Z</time>
        <extensions>
          <ns3:TrackPointExtension>
            <ns3:hr>133</ns3:hr>
            <ns3:cad>79</ns3:cad>
          </ns3:TrackPointExtension>
        </extensions>
      </trkpt>
      <trkpt lat="45.29725589789450168609619140625" lon="-70.84642781876027584075927734375">
        <ele>1023.5999755859375</ele>
        <time>2026-08-21T14:16:18.000Z</time>
        <extensions>
          <ns3:TrackPointExtension>
            <ns3:hr>133</ns3:hr>
            <ns3:cad>0</ns3:cad>
          </ns3:TrackPointExtension>
        </extensions>
      </trkpt>
      <trkpt lat="45.297268219292163848876953125" lon="-70.8464364521205425262451171875">
        <ele>1023.20001220703125</ele>
        <time>2026-08-21T14:16:19.000Z</time>
        <extensions>
          <ns3:TrackPointExtension>
            <ns3:hr>133</ns3:hr>
            <ns3:cad>0</ns3:cad>
          </ns3:TrackPointExtension>
        </extensions>
      </trkpt>
      <trkpt lat="45.29728020541369915008544921875" lon="-70.846444666385650634765625">
        <ele>1022.79998779296875</ele>
        <time>2026-08-21T14:16:20.000Z</time>
        <extensions>
          <ns3:TrackPointExtension>
            <ns3:hr>133</ns3:hr>
            <ns3:cad>0</ns3:cad>
          </ns3:TrackPointExtension>
        </extensions>
      </trkpt>
      <trkpt lat="45.29729093424975872039794921875" lon="-70.8464428223669528961181640625">
        <ele>1022.4000244140625</ele>
        <time>2026-08-21T14:16:21.000Z</time>
        <extensions>
          <ns3:TrackPointExtension>
            <ns3:hr>133</ns3:hr>
            <ns3:cad>0</ns3:cad>
          </ns3:TrackPointExtension>
        </extensions>
      </trkpt>
      <trkpt lat="45.2972999028861522674560546875" lon="-70.84645095281302928924560546875">
        <ele>1022</ele>
        <time>2026-08-21T14:16:22.000Z</time>
        <extensions>
          <ns3:TrackPointExtension>
            <ns3:hr>133</ns3:hr>
            <ns3:cad>0</ns3:cad>
          </ns3:TrackPointExtension>
        </extensions>
      </trkpt>
      <trkpt lat="45.29731071554124355316162109375" lon="-70.84645480848848819732666015625">
        <ele>1021.5999755859375</ele>
        <time>2026-08-21T14:16:23.000Z</time>
        <extensions>
          <ns3:TrackPointExtension>
            <ns3:hr>133</ns3:hr>
            <ns3:cad>0</ns3:cad>
          </ns3:TrackPointExtension>
        </extensions>
      </trkpt>
      <trkpt lat="45.29732295311987400054931640625" lon="-70.846460759639739990234375">
        <ele>1021.20001220703125</ele>
        <time>2026-08-21T14:16:24.000Z</time>
        <extensions>
          <ns3:TrackPointExtension>
            <ns3:hr>133</ns3:hr>
            <ns3:cad>0</ns3:cad>
          </ns3:TrackPointExtension>
        </extensions>
      </trkpt>
      <trkpt lat="45.297329910099506378173828125" lon="-70.84646880626678466796875">
        <ele>1020.79998779296875</ele>
        <time>2026-08-21T14:16:25.000Z</time>
        <extensions>
          <ns3:TrackPointExtension>
            <ns3:hr>133</ns3:hr>
            <ns3:cad>0</ns3:cad>
          </ns3:TrackPointExtension>
        </extensions>
      </trkpt>
      <trkpt lat="45.29734323732554912567138671875" lon="-70.8464756794273853302001953125">
        <ele>1020.4000244140625</ele>
        <time>2026-08-21T14:16:26.000Z</time>
        <extensions>
          <ns3:TrackPointExtension>
            <ns3:hr>133</ns3:hr>
            <ns3:cad>0</ns3:cad>
          </ns3:TrackPointExtension>
        </extensions>
      </trkpt>
      <trkpt lat="45.2973585762083530426025390625" lon="-70.8464870788156986236572265625">
        <ele>1020</ele>
        <time>2026-08-21T14:16:27.000Z</time>
        <extensions>
          <ns3:TrackPointExtension>
            <ns3:hr>133</ns3:hr>
            <ns3:cad>0</ns3:cad>
          </ns3:TrackPointExtension>
        </extensions>
      </trkpt>
      <trkpt lat="45.29736871831119060516357421875" lon="-70.84649629890918731689453125">
        <ele>1019.4000244140625</ele>
        <time>2026-08-21T14:16:28.000Z</time>
        <extensions>
          <ns3:TrackPointExtension>
            <ns3:hr>132</ns3:hr>
            <ns3:cad>0</ns3:cad>
          </ns3:TrackPointExtension>
        </extensions>
      </trkpt>
      <trkpt lat="45.29738162644207477569580078125" lon="-70.846506021916866302490234375">
        <ele>1019</ele>
        <time>2026-08-21T14:16:29.000Z</time>
        <extensions>
          <ns3:TrackPointExtension>
            <ns3:hr>133</ns3:hr>
            <ns3:cad>0</ns3:cad>
          </ns3:TrackPointExtension>
        </extensions>
      </trkpt>
      <trkpt lat="45.29739520512521266937255859375" lon="-70.84651582874357700347900390625">
        <ele>1018.4000244140625</ele>
        <time>2026-08-21T14:16:30.000Z</time>
        <extensions>
          <ns3:TrackPointExtension>
            <ns3:hr>133</ns3:hr>
            <ns3:cad>0</ns3:cad>
          </ns3:TrackPointExtension>
        </extensions>
      </trkpt>
      <trkpt lat="45.29740576632320880889892578125" lon="-70.84651800803840160369873046875">
        <ele>1018</ele>
        <time>2026-08-21T14:16:31.000Z</time>
        <extensions>
          <ns3:TrackPointExtension>
            <ns3:hr>132</ns3:hr>
            <ns3:cad>0</ns3:cad>
          </ns3:TrackPointExtension>
        </extensions>
      </trkpt>
      <trkpt lat="45.29741968028247356414794921875" lon="-70.84652320481836795806884765625">
        <ele>1017.4000244140625</ele>
        <time>2026-08-21T14:16:32.000Z</time>
        <extensions>
          <ns3:TrackPointExtension>
            <ns3:hr>132</ns3:hr>
            <ns3:cad>0</ns3:cad>
          </ns3:TrackPointExtension>
        </extensions>
      </trkpt>
      <trkpt lat="45.29743325896561145782470703125" lon="-70.846534185111522674560546875">
        <ele>1017</ele>
        <time>2026-08-21T14:16:33.000Z</time>
        <extensions>
          <ns3:TrackPointExtension>
            <ns3:hr>132</ns3:hr>
            <ns3:cad>0</ns3:cad>
          </ns3:TrackPointExtension>
        </extensions>
      </trkpt>
      <trkpt lat="45.29744423925876617431640625" lon="-70.84654365666210651397705078125">
        <ele>1016.5999755859375</ele>
        <time>2026-08-21T14:16:34.000Z</time>
        <extensions>
          <ns3:TrackPointExtension>
            <ns3:hr>132</ns3:hr>
            <ns3:cad>0</ns3:cad>
          </ns3:TrackPointExtension>
        </extensions>
      </trkpt>
      <trkpt lat="45.29745756648480892181396484375" lon="-70.846555642783641815185546875">
        <ele>1016.20001220703125</ele>
        <time>2026-08-21T14:16:35.000Z</time>
        <extensions>
          <ns3:TrackPointExtension>
            <ns3:hr>133</ns3:hr>
            <ns3:cad>0</ns3:cad>
          </ns3:TrackPointExtension>
        </extensions>
      </trkpt>
      <trkpt lat="45.29747416265308856964111328125" lon="-70.846570394933223724365234375">
        <ele>1016</ele>
        <time>2026-08-21T14:16:36.000Z</time>
        <extensions>
          <ns3:TrackPointExtension>
            <ns3:hr>132</ns3:hr>
            <ns3:cad>0</ns3:cad>
          </ns3:TrackPointExtension>
        </extensions>
      </trkpt>
      <trkpt lat="45.29748723842203617095947265625" lon="-70.846581794321537017822265625">
        <ele>1015.4000244140625</ele>
        <time>2026-08-21T14:16:37.000Z</time>
        <extensions>
          <ns3:TrackPointExtension>
            <ns3:hr>132</ns3:hr>
            <ns3:cad>0</ns3:cad>
          </ns3:TrackPointExtension>
        </extensions>
      </trkpt>
      <trkpt lat="45.2974977158010005950927734375" lon="-70.846584141254425048828125">
        <ele>1015.20001220703125</ele>
        <time>2026-08-21T14:16:38.000Z</time>
        <extensions>
          <ns3:TrackPointExtension>
            <ns3:hr>132</ns3:hr>
            <ns3:cad>0</ns3:cad>
          </ns3:TrackPointExtension>
        </extensions>
      </trkpt>
      <trkpt lat="45.29751825146377086639404296875" lon="-70.84658841602504253387451171875">
        <ele>1014.79998779296875</ele>
        <time>2026-08-21T14:16:39.000Z</time>
        <extensions>
          <ns3:TrackPointExtension>
            <ns3:hr>131</ns3:hr>
            <ns3:cad>18</ns3:cad>
          </ns3:TrackPointExtension>
        </extensions>
      </trkpt>
      <trkpt lat="45.29753032140433788299560546875" lon="-70.8465886674821376800537109375">
        <ele>1014.4000244140625</ele>
        <time>2026-08-21T14:16:40.000Z</time>
        <extensions>
          <ns3:TrackPointExtension>
            <ns3:hr>131</ns3:hr>
            <ns3:cad>72</ns3:cad>
          </ns3:TrackPointExtension>
        </extensions>
      </trkpt>
      <trkpt lat="45.29753501527011394500732421875" lon="-70.84659956395626068115234375">
        <ele>1014.20001220703125</ele>
        <time>2026-08-21T14:16:41.000Z</time>
        <extensions>
          <ns3:TrackPointExtension>
            <ns3:hr>131</ns3:hr>
            <ns3:cad>72</ns3:cad>
          </ns3:TrackPointExtension>
        </extensions>
      </trkpt>
      <trkpt lat="45.29754892922937870025634765625" lon="-70.846610963344573974609375">
        <ele>1013.79998779296875</ele>
        <time>2026-08-21T14:16:42.000Z</time>
        <extensions>
          <ns3:TrackPointExtension>
            <ns3:hr>132</ns3:hr>
            <ns3:cad>71</ns3:cad>
          </ns3:TrackPointExtension>
        </extensions>
      </trkpt>
      <trkpt lat="45.2975620888173580169677734375" lon="-70.84661942906677722930908203125">
        <ele>1013.5999755859375</ele>
        <time>2026-08-21T14:16:43.000Z</time>
        <extensions>
          <ns3:TrackPointExtension>
            <ns3:hr>132</ns3:hr>
            <ns3:cad>71</ns3:cad>
          </ns3:TrackPointExtension>
        </extensions>
      </trkpt>
      <trkpt lat="45.29757860116660594940185546875" lon="-70.84663367830216884613037109375">
        <ele>1013.4000244140625</ele>
        <time>2026-08-21T14:16:44.000Z</time>
        <extensions>
          <ns3:TrackPointExtension>
            <ns3:hr>132</ns3:hr>
            <ns3:cad>71</ns3:cad>
          </ns3:TrackPointExtension>
        </extensions>
      </trkpt>
      <trkpt lat="45.29759402386844158172607421875" lon="-70.84664382040500640869140625">
        <ele>1013.4000244140625</ele>
        <time>2026-08-21T14:16:45.000Z</time>
        <extensions>
          <ns3:TrackPointExtension>
            <ns3:hr>132</ns3:hr>
            <ns3:cad>71</ns3:cad>
          </ns3:TrackPointExtension>
        </extensions>
      </trkpt>
      <trkpt lat="45.297614894807338714599609375" lon="-70.8466573990881443023681640625">
        <ele>1013.20001220703125</ele>
        <time>2026-08-21T14:16:46.000Z</time>
        <extensions>
          <ns3:TrackPointExtension>
            <ns3:hr>132</ns3:hr>
            <ns3:cad>71</ns3:cad>
          </ns3:TrackPointExtension>
        </extensions>
      </trkpt>
      <trkpt lat="45.2976308204233646392822265625" lon="-70.846665613353252410888671875">
        <ele>1013.20001220703125</ele>
        <time>2026-08-21T14:16:47.000Z</time>
        <extensions>
          <ns3:TrackPointExtension>
            <ns3:hr>132</ns3:hr>
            <ns3:cad>71</ns3:cad>
          </ns3:TrackPointExtension>
        </extensions>
      </trkpt>
      <trkpt lat="45.29764682985842227935791015625" lon="-70.84667625837028026580810546875">
        <ele>1013</ele>
        <time>2026-08-21T14:16:48.000Z</time>
        <extensions>
          <ns3:TrackPointExtension>
            <ns3:hr>132</ns3:hr>
            <ns3:cad>71</ns3:cad>
          </ns3:TrackPointExtension>
        </extensions>
      </trkpt>
      <trkpt lat="45.29765739105641841888427734375" lon="-70.84668765775859355926513671875">
        <ele>1013</ele>
        <time>2026-08-21T14:16:49.000Z</time>
        <extensions>
          <ns3:TrackPointExtension>
            <ns3:hr>132</ns3:hr>
            <ns3:cad>75</ns3:cad>
          </ns3:TrackPointExtension>
        </extensions>
      </trkpt>
      <trkpt lat="45.2976650185883045196533203125" lon="-70.84669956006109714508056640625">
        <ele>1012.79998779296875</ele>
        <time>2026-08-21T14:16:50.000Z</time>
        <extensions>
          <ns3:TrackPointExtension>
            <ns3:hr>132</ns3:hr>
            <ns3:cad>0</ns3:cad>
          </ns3:TrackPointExtension>
        </extensions>
      </trkpt>
      <trkpt lat="45.29766619205474853515625" lon="-70.8467103727161884307861328125">
        <ele>1012.79998779296875</ele>
        <time>2026-08-21T14:16:51.000Z</time>
        <extensions>
          <ns3:TrackPointExtension>
            <ns3:hr>131</ns3:hr>
            <ns3:cad>0</ns3:cad>
          </ns3:TrackPointExtension>
        </extensions>
      </trkpt>
      <trkpt lat="45.29766443185508251190185546875" lon="-70.84672302938997745513916015625">
        <ele>1012.5999755859375</ele>
        <time>2026-08-21T14:16:52.000Z</time>
        <extensions>
          <ns3:TrackPointExtension>
            <ns3:hr>131</ns3:hr>
            <ns3:cad>0</ns3:cad>
          </ns3:TrackPointExtension>
        </extensions>
      </trkpt>
      <trkpt lat="45.2976663596928119659423828125" lon="-70.8467395417392253875732421875">
        <ele>1012.4000244140625</ele>
        <time>2026-08-21T14:16:53.000Z</time>
        <extensions>
          <ns3:TrackPointExtension>
            <ns3:hr>130</ns3:hr>
            <ns3:cad>0</ns3:cad>
          </ns3:TrackPointExtension>
        </extensions>
      </trkpt>
      <trkpt lat="45.2976683713495731353759765625" lon="-70.84675789810717105865478515625">
        <ele>1012.4000244140625</ele>
        <time>2026-08-21T14:16:54.000Z</time>
        <extensions>
          <ns3:TrackPointExtension>
            <ns3:hr>130</ns3:hr>
            <ns3:cad>0</ns3:cad>
          </ns3:TrackPointExtension>
        </extensions>
      </trkpt>
      <trkpt lat="45.29767583124339580535888671875" lon="-70.8467786014080047607421875">
        <ele>1012.20001220703125</ele>
        <time>2026-08-21T14:16:55.000Z</time>
        <extensions>
          <ns3:TrackPointExtension>
            <ns3:hr>130</ns3:hr>
            <ns3:cad>0</ns3:cad>
          </ns3:TrackPointExtension>
        </extensions>
      </trkpt>
      <trkpt lat="45.29768102802336215972900390625" lon="-70.84679159335792064666748046875">
        <ele>1012</ele>
        <time>2026-08-21T14:16:56.000Z</time>
        <extensions>
          <ns3:TrackPointExtension>
            <ns3:hr>130</ns3:hr>
            <ns3:cad>0</ns3:cad>
          </ns3:TrackPointExtension>
        </extensions>
      </trkpt>
      <trkpt lat="45.2976831234991550445556640625" lon="-70.84680248983204364776611328125">
        <ele>1012</ele>
        <time>2026-08-21T14:16:57.000Z</time>
        <extensions>
          <ns3:TrackPointExtension>
            <ns3:hr>129</ns3:hr>
            <ns3:cad>0</ns3:cad>
          </ns3:TrackPointExtension>
        </extensions>
      </trkpt>
      <trkpt lat="45.297694019973278045654296875" lon="-70.84681506268680095672607421875">
        <ele>1012</ele>
        <time>2026-08-21T14:16:58.000Z</time>
        <extensions>
          <ns3:TrackPointExtension>
            <ns3:hr>129</ns3:hr>
            <ns3:cad>0</ns3:cad>
          </ns3:TrackPointExtension>
        </extensions>
      </trkpt>
      <trkpt lat="45.29769846238195896148681640625" lon="-70.84682025946676731109619140625">
        <ele>1012.20001220703125</ele>
        <time>2026-08-21T14:16:59.000Z</time>
        <extensions>
          <ns3:TrackPointExtension>
            <ns3:hr>128</ns3:hr>
            <ns3:cad>77</ns3:cad>
          </ns3:TrackPointExtension>
        </extensions>
      </trkpt>
      <trkpt lat="45.2976992167532444000244140625" lon="-70.84682579152286052703857421875">
        <ele>1012.20001220703125</ele>
        <time>2026-08-21T14:17:00.000Z</time>
        <extensions>
          <ns3:TrackPointExtension>
            <ns3:hr>128</ns3:hr>
            <ns3:cad>77</ns3:cad>
          </ns3:TrackPointExtension>
        </extensions>
      </trkpt>
      <trkpt lat="45.29769837856292724609375" lon="-70.8468340896070003509521484375">
        <ele>1012.4000244140625</ele>
        <time>2026-08-21T14:17:01.000Z</time>
        <extensions>
          <ns3:TrackPointExtension>
            <ns3:hr>127</ns3:hr>
            <ns3:cad>0</ns3:cad>
          </ns3:TrackPointExtension>
        </extensions>
      </trkpt>
      <trkpt lat="45.29769410379230976104736328125" lon="-70.8468483388423919677734375">
        <ele>1012.20001220703125</ele>
        <time>2026-08-21T14:17:02.000Z</time>
        <extensions>
          <ns3:TrackPointExtension>
            <ns3:hr>127</ns3:hr>
            <ns3:cad>0</ns3:cad>
          </ns3:TrackPointExtension>
        </extensions>
      </trkpt>
      <trkpt lat="45.29769008047878742218017578125" lon="-70.84686116315424442291259765625">
        <ele>1012.20001220703125</ele>
        <time>2026-08-21T14:17:03.000Z</time>
        <extensions>
          <ns3:TrackPointExtension>
            <ns3:hr>126</ns3:hr>
            <ns3:cad>0</ns3:cad>
          </ns3:TrackPointExtension>
        </extensions>
      </trkpt>
      <trkpt lat="45.29768236912786960601806640625" lon="-70.8468699641525745391845703125">
        <ele>1012</ele>
        <time>2026-08-21T14:17:04.000Z</time>
        <extensions>
          <ns3:TrackPointExtension>
            <ns3:hr>126</ns3:hr>
            <ns3:cad>0</ns3:cad>
          </ns3:TrackPointExtension>
        </extensions>
      </trkpt>
      <trkpt lat="45.297678597271442413330078125" lon="-70.8468805253505706787109375">
        <ele>1011.5999755859375</ele>
        <time>2026-08-21T14:17:05.000Z</time>
        <extensions>
          <ns3:TrackPointExtension>
            <ns3:hr>126</ns3:hr>
            <ns3:cad>0</ns3:cad>
          </ns3:TrackPointExtension>
        </extensions>
      </trkpt>
      <trkpt lat="45.29767356812953948974609375" lon="-70.84688379429280757904052734375">
        <ele>1011.4000244140625</ele>
        <time>2026-08-21T14:17:06.000Z</time>
        <extensions>
          <ns3:TrackPointExtension>
            <ns3:hr>125</ns3:hr>
            <ns3:cad>0</ns3:cad>
          </ns3:TrackPointExtension>
        </extensions>
      </trkpt>
      <trkpt lat="45.29766661114990711212158203125" lon="-70.84689251147210597991943359375">
        <ele>1011.20001220703125</ele>
        <time>2026-08-21T14:17:07.000Z</time>
        <extensions>
          <ns3:TrackPointExtension>
            <ns3:hr>126</ns3:hr>
            <ns3:cad>0</ns3:cad>
          </ns3:TrackPointExtension>
        </extensions>
      </trkpt>
      <trkpt lat="45.2976576425135135650634765625" lon="-70.84690525196492671966552734375">
        <ele>1011</ele>
        <time>2026-08-21T14:17:08.000Z</time>
        <extensions>
          <ns3:TrackPointExtension>
            <ns3:hr>126</ns3:hr>
            <ns3:cad>0</ns3:cad>
          </ns3:TrackPointExtension>
        </extensions>
      </trkpt>
      <trkpt lat="45.29764599166810512542724609375" lon="-70.84691866301000118255615234375">
        <ele>1010.79998779296875</ele>
        <time>2026-08-21T14:17:09.000Z</time>
        <extensions>
          <ns3:TrackPointExtension>
            <ns3:hr>126</ns3:hr>
            <ns3:cad>0</ns3:cad>
          </ns3:TrackPointExtension>
        </extensions>
      </trkpt>
      <trkpt lat="45.29763660393655300140380859375" lon="-70.846929810941219329833984375">
        <ele>1010.5999755859375</ele>
        <time>2026-08-21T14:17:10.000Z</time>
        <extensions>
          <ns3:TrackPointExtension>
            <ns3:hr>127</ns3:hr>
            <ns3:cad>0</ns3:cad>
          </ns3:TrackPointExtension>
        </extensions>
      </trkpt>
      <trkpt lat="45.29763191007077693939208984375" lon="-70.84694397635757923126220703125">
        <ele>1010.20001220703125</ele>
        <time>2026-08-21T14:17:11.000Z</time>
        <extensions>
          <ns3:TrackPointExtension>
            <ns3:hr>128</ns3:hr>
            <ns3:cad>0</ns3:cad>
          </ns3:TrackPointExtension>
        </extensions>
      </trkpt>
      <trkpt lat="45.2976304851472377777099609375" lon="-70.846949256956577301025390625">
        <ele>1010</ele>
        <time>2026-08-21T14:17:12.000Z</time>
        <extensions>
          <ns3:TrackPointExtension>
            <ns3:hr>127</ns3:hr>
            <ns3:cad>0</ns3:cad>
          </ns3:TrackPointExtension>
        </extensions>
      </trkpt>
      <trkpt lat="45.29762218706309795379638671875" lon="-70.84695520810782909393310546875">
        <ele>1009.79998779296875</ele>
        <time>2026-08-21T14:17:13.000Z</time>
        <extensions>
          <ns3:TrackPointExtension>
            <ns3:hr>127</ns3:hr>
            <ns3:cad>0</ns3:cad>
          </ns3:TrackPointExtension>
        </extensions>
      </trkpt>
      <trkpt lat="45.2976056747138500213623046875" lon="-70.84696576930582523345947265625">
        <ele>1009.5999755859375</ele>
        <time>2026-08-21T14:17:14.000Z</time>
        <extensions>
          <ns3:TrackPointExtension>
            <ns3:hr>127</ns3:hr>
            <ns3:cad>0</ns3:cad>
          </ns3:TrackPointExtension>
        </extensions>
      </trkpt>
      <trkpt lat="45.29759586788713932037353515625" lon="-70.8469759114086627960205078125">
        <ele>1009.4000244140625</ele>
        <time>2026-08-21T14:17:15.000Z</time>
        <extensions>
          <ns3:TrackPointExtension>
            <ns3:hr>128</ns3:hr>
            <ns3:cad>0</ns3:cad>
          </ns3:TrackPointExtension>
        </extensions>
      </trkpt>
      <trkpt lat="45.29758798889815807342529296875" lon="-70.84698622114956378936767578125">
        <ele>1009</ele>
        <time>2026-08-21T14:17:16.000Z</time>
        <extensions>
          <ns3:TrackPointExtension>
            <ns3:hr>128</ns3:hr>
            <ns3:cad>0</ns3:cad>
          </ns3:TrackPointExtension>
        </extensions>
      </trkpt>
      <trkpt lat="45.29758103191852569580078125" lon="-70.84699225611984729766845703125">
        <ele>1008.79998779296875</ele>
        <time>2026-08-21T14:17:17.000Z</time>
        <extensions>
          <ns3:TrackPointExtension>
            <ns3:hr>128</ns3:hr>
            <ns3:cad>0</ns3:cad>
          </ns3:TrackPointExtension>
        </extensions>
      </trkpt>
      <trkpt lat="45.2975708059966564178466796875" lon="-70.8470074273645877838134765625">
        <ele>1008.5999755859375</ele>
        <time>2026-08-21T14:17:18.000Z</time>
        <extensions>
          <ns3:TrackPointExtension>
            <ns3:hr>129</ns3:hr>
            <ns3:cad>0</ns3:cad>
          </ns3:TrackPointExtension>
        </extensions>
      </trkpt>
      <trkpt lat="45.29756183736026287078857421875" lon="-70.847017653286457061767578125">
        <ele>1008.4000244140625</ele>
        <time>2026-08-21T14:17:19.000Z</time>
        <extensions>
          <ns3:TrackPointExtension>
            <ns3:hr>129</ns3:hr>
            <ns3:cad>0</ns3:cad>
          </ns3:TrackPointExtension>
        </extensions>
      </trkpt>
      <trkpt lat="45.29755177907645702362060546875" lon="-70.847029723227024078369140625">
        <ele>1008.20001220703125</ele>
        <time>2026-08-21T14:17:20.000Z</time>
        <extensions>
          <ns3:TrackPointExtension>
            <ns3:hr>130</ns3:hr>
            <ns3:cad>56</ns3:cad>
          </ns3:TrackPointExtension>
        </extensions>
      </trkpt>
      <trkpt lat="45.29753551818430423736572265625" lon="-70.84703969769179821014404296875">
        <ele>1008</ele>
        <time>2026-08-21T14:17:21.000Z</time>
        <extensions>
          <ns3:TrackPointExtension>
            <ns3:hr>130</ns3:hr>
            <ns3:cad>56</ns3:cad>
          </ns3:TrackPointExtension>
        </extensions>
      </trkpt>
      <trkpt lat="45.29752294532954692840576171875" lon="-70.847054533660411834716796875">
        <ele>1007.79998779296875</ele>
        <time>2026-08-21T14:17:22.000Z</time>
        <extensions>
          <ns3:TrackPointExtension>
            <ns3:hr>130</ns3:hr>
            <ns3:cad>56</ns3:cad>
          </ns3:TrackPointExtension>
        </extensions>
      </trkpt>
      <trkpt lat="45.2975144796073436737060546875" lon="-70.8470657654106616973876953125">
        <ele>1007.5999755859375</ele>
        <time>2026-08-21T14:17:23.000Z</time>
        <extensions>
          <ns3:TrackPointExtension>
            <ns3:hr>129</ns3:hr>
            <ns3:cad>56</ns3:cad>
          </ns3:TrackPointExtension>
        </extensions>
      </trkpt>
      <trkpt lat="45.29750400222837924957275390625" lon="-70.84707791917026042938232421875">
        <ele>1007.4000244140625</ele>
        <time>2026-08-21T14:17:24.000Z</time>
        <extensions>
          <ns3:TrackPointExtension>
            <ns3:hr>129</ns3:hr>
            <ns3:cad>56</ns3:cad>
          </ns3:TrackPointExtension>
        </extensions>
      </trkpt>
      <trkpt lat="45.29749226756393909454345703125" lon="-70.84708898328244686126708984375">
        <ele>1007</ele>
        <time>2026-08-21T14:17:25.000Z</time>
        <extensions>
          <ns3:TrackPointExtension>
            <ns3:hr>129</ns3:hr>
            <ns3:cad>57</ns3:cad>
          </ns3:TrackPointExtension>
        </extensions>
      </trkpt>
      <trkpt lat="45.297480113804340362548828125" lon="-70.8471026457846164703369140625">
        <ele>1007</ele>
        <time>2026-08-21T14:17:26.000Z</time>
        <extensions>
          <ns3:TrackPointExtension>
            <ns3:hr>129</ns3:hr>
            <ns3:cad>57</ns3:cad>
          </ns3:TrackPointExtension>
        </extensions>
      </trkpt>
      <trkpt lat="45.2974698878824710845947265625" lon="-70.847124941647052764892578125">
        <ele>1006.79998779296875</ele>
        <time>2026-08-21T14:17:27.000Z</time>
        <extensions>
          <ns3:TrackPointExtension>
            <ns3:hr>129</ns3:hr>
            <ns3:cad>60</ns3:cad>
          </ns3:TrackPointExtension>
        </extensions>
      </trkpt>
      <trkpt lat="45.29745421372354030609130859375" lon="-70.84714815951883792877197265625">
        <ele>1006.5999755859375</ele>
        <time>2026-08-21T14:17:28.000Z</time>
        <extensions>
          <ns3:TrackPointExtension>
            <ns3:hr>128</ns3:hr>
            <ns3:cad>60</ns3:cad>
          </ns3:TrackPointExtension>
        </extensions>
      </trkpt>
      <trkpt lat="45.29744499363005161285400390625" lon="-70.8471640013158321380615234375">
        <ele>1006.4000244140625</ele>
        <time>2026-08-21T14:17:29.000Z</time>
        <extensions>
          <ns3:TrackPointExtension>
            <ns3:hr>128</ns3:hr>
            <ns3:cad>60</ns3:cad>
          </ns3:TrackPointExtension>
        </extensions>
      </trkpt>
      <trkpt lat="45.2974370308220386505126953125" lon="-70.84717665798962116241455078125">
        <ele>1006.20001220703125</ele>
        <time>2026-08-21T14:17:30.000Z</time>
        <extensions>
          <ns3:TrackPointExtension>
            <ns3:hr>128</ns3:hr>
            <ns3:cad>60</ns3:cad>
          </ns3:TrackPointExtension>
        </extensions>
      </trkpt>
      <trkpt lat="45.29742470942437648773193359375" lon="-70.84720163606107234954833984375">
        <ele>1006</ele>
        <time>2026-08-21T14:17:31.000Z</time>
        <extensions>
          <ns3:TrackPointExtension>
            <ns3:hr>127</ns3:hr>
            <ns3:cad>60</ns3:cad>
          </ns3:TrackPointExtension>
        </extensions>
      </trkpt>
      <trkpt lat="45.297414399683475494384765625" lon="-70.8472116105258464813232421875">
        <ele>1005.79998779296875</ele>
        <time>2026-08-21T14:17:32.000Z</time>
        <extensions>
          <ns3:TrackPointExtension>
            <ns3:hr>128</ns3:hr>
            <ns3:cad>60</ns3:cad>
          </ns3:TrackPointExtension>
        </extensions>
      </trkpt>
      <trkpt lat="45.29740274883806705474853515625" lon="-70.8472169749438762664794921875">
        <ele>1005.79998779296875</ele>
        <time>2026-08-21T14:17:33.000Z</time>
        <extensions>
          <ns3:TrackPointExtension>
            <ns3:hr>128</ns3:hr>
            <ns3:cad>60</ns3:cad>
          </ns3:TrackPointExtension>
        </extensions>
      </trkpt>
      <trkpt lat="45.297390259802341461181640625" lon="-70.84722074680030345916748046875">
        <ele>1005.5999755859375</ele>
        <time>2026-08-21T14:17:34.000Z</time>
        <extensions>
          <ns3:TrackPointExtension>
            <ns3:hr>128</ns3:hr>
            <ns3:cad>60</ns3:cad>
          </ns3:TrackPointExtension>
        </extensions>
      </trkpt>
      <trkpt lat="45.29738062061369419097900390625" lon="-70.847233235836029052734375">
        <ele>1005.4000244140625</ele>
        <time>2026-08-21T14:17:35.000Z</time>
        <extensions>
          <ns3:TrackPointExtension>
            <ns3:hr>128</ns3:hr>
            <ns3:cad>60</ns3:cad>
          </ns3:TrackPointExtension>
        </extensions>
      </trkpt>
      <trkpt lat="45.29736779630184173583984375" lon="-70.8472494967281818389892578125">
        <ele>1005</ele>
        <time>2026-08-21T14:17:36.000Z</time>
        <extensions>
          <ns3:TrackPointExtension>
            <ns3:hr>127</ns3:hr>
            <ns3:cad>60</ns3:cad>
          </ns3:TrackPointExtension>
        </extensions>
      </trkpt>
      <trkpt lat="45.29735849238932132720947265625" lon="-70.84726584143936634063720703125">
        <ele>1004.79998779296875</ele>
        <time>2026-08-21T14:17:37.000Z</time>
        <extensions>
          <ns3:TrackPointExtension>
            <ns3:hr>126</ns3:hr>
            <ns3:cad>60</ns3:cad>
          </ns3:TrackPointExtension>
        </extensions>
      </trkpt>
      <trkpt lat="45.297347009181976318359375" lon="-70.84728478454053401947021484375">
        <ele>1004.5999755859375</ele>
        <time>2026-08-21T14:17:38.000Z</time>
        <extensions>
          <ns3:TrackPointExtension>
            <ns3:hr>126</ns3:hr>
            <ns3:cad>60</ns3:cad>
          </ns3:TrackPointExtension>
        </extensions>
      </trkpt>
      <trkpt lat="45.29733988456428050994873046875" lon="-70.84730230271816253662109375">
        <ele>1004.4000244140625</ele>
        <time>2026-08-21T14:17:39.000Z</time>
        <extensions>
          <ns3:TrackPointExtension>
            <ns3:hr>126</ns3:hr>
            <ns3:cad>60</ns3:cad>
          </ns3:TrackPointExtension>
        </extensions>
      </trkpt>
      <trkpt lat="45.29733317904174327850341796875" lon="-70.847321413457393646240234375">
        <ele>1004.20001220703125</ele>
        <time>2026-08-21T14:17:40.000Z</time>
        <extensions>
          <ns3:TrackPointExtension>
            <ns3:hr>126</ns3:hr>
            <ns3:cad>60</ns3:cad>
          </ns3:TrackPointExtension>
        </extensions>
      </trkpt>
      <trkpt lat="45.2973280660808086395263671875" lon="-70.84733507595956325531005859375">
        <ele>1004</ele>
        <time>2026-08-21T14:17:41.000Z</time>
        <extensions>
          <ns3:TrackPointExtension>
            <ns3:hr>127</ns3:hr>
            <ns3:cad>60</ns3:cad>
          </ns3:TrackPointExtension>
        </extensions>
      </trkpt>
      <trkpt lat="45.2973220311105251312255859375" lon="-70.84735049866139888763427734375">
        <ele>1003.79998779296875</ele>
        <time>2026-08-21T14:17:42.000Z</time>
        <extensions>
          <ns3:TrackPointExtension>
            <ns3:hr>127</ns3:hr>
            <ns3:cad>60</ns3:cad>
          </ns3:TrackPointExtension>
        </extensions>
      </trkpt>
      <trkpt lat="45.29731549322605133056640625" lon="-70.8473628200590610504150390625">
        <ele>1003.5999755859375</ele>
        <time>2026-08-21T14:17:43.000Z</time>
        <extensions>
          <ns3:TrackPointExtension>
            <ns3:hr>127</ns3:hr>
            <ns3:cad>60</ns3:cad>
          </ns3:TrackPointExtension>
        </extensions>
      </trkpt>
      <trkpt lat="45.29730618931353092193603515625" lon="-70.8473685197532176971435546875">
        <ele>1003.5999755859375</ele>
        <time>2026-08-21T14:17:44.000Z</time>
        <extensions>
          <ns3:TrackPointExtension>
            <ns3:hr>127</ns3:hr>
            <ns3:cad>61</ns3:cad>
          </ns3:TrackPointExtension>
        </extensions>
      </trkpt>
      <trkpt lat="45.29729948379099369049072265625" lon="-70.84736592136323451995849609375">
        <ele>1003.4000244140625</ele>
        <time>2026-08-21T14:17:45.000Z</time>
        <extensions>
          <ns3:TrackPointExtension>
            <ns3:hr>127</ns3:hr>
            <ns3:cad>61</ns3:cad>
          </ns3:TrackPointExtension>
        </extensions>
      </trkpt>
      <trkpt lat="45.29728624038398265838623046875" lon="-70.84737346507608890533447265625">
        <ele>1003.4000244140625</ele>
        <time>2026-08-21T14:17:46.000Z</time>
        <extensions>
          <ns3:TrackPointExtension>
            <ns3:hr>127</ns3:hr>
            <ns3:cad>61</ns3:cad>
          </ns3:TrackPointExtension>
        </extensions>
      </trkpt>
      <trkpt lat="45.2972720749676227569580078125" lon="-70.8473819307982921600341796875">
        <ele>1003.20001220703125</ele>
        <time>2026-08-21T14:17:47.000Z</time>
        <extensions>
          <ns3:TrackPointExtension>
            <ns3:hr>127</ns3:hr>
            <ns3:cad>61</ns3:cad>
          </ns3:TrackPointExtension>
        </extensions>
      </trkpt>
      <trkpt lat="45.2972583286464214324951171875" lon="-70.847394168376922607421875">
        <ele>1003</ele>
        <time>2026-08-21T14:17:48.000Z</time>
        <extensions>
          <ns3:TrackPointExtension>
            <ns3:hr>127</ns3:hr>
            <ns3:cad>61</ns3:cad>
          </ns3:TrackPointExtension>
        </extensions>
      </trkpt>
      <trkpt lat="45.29724433086812496185302734375" lon="-70.84740665741264820098876953125">
        <ele>1002.5999755859375</ele>
        <time>2026-08-21T14:17:49.000Z</time>
        <extensions>
          <ns3:TrackPointExtension>
            <ns3:hr>126</ns3:hr>
            <ns3:cad>61</ns3:cad>
          </ns3:TrackPointExtension>
        </extensions>
      </trkpt>
      <trkpt lat="45.29723024927079677581787109375" lon="-70.84741839207708835601806640625">
        <ele>1002.20001220703125</ele>
        <time>2026-08-21T14:17:50.000Z</time>
        <extensions>
          <ns3:TrackPointExtension>
            <ns3:hr>126</ns3:hr>
            <ns3:cad>61</ns3:cad>
          </ns3:TrackPointExtension>
        </extensions>
      </trkpt>
      <trkpt lat="45.29721465893089771270751953125" lon="-70.8474318869411945343017578125">
        <ele>1001.79998779296875</ele>
        <time>2026-08-21T14:17:51.000Z</time>
        <extensions>
          <ns3:TrackPointExtension>
            <ns3:hr>126</ns3:hr>
            <ns3:cad>61</ns3:cad>
          </ns3:TrackPointExtension>
        </extensions>
      </trkpt>
      <trkpt lat="45.2972020022571086883544921875" lon="-70.8474412746727466583251953125">
        <ele>1001.5999755859375</ele>
        <time>2026-08-21T14:17:52.000Z</time>
        <extensions>
          <ns3:TrackPointExtension>
            <ns3:hr>125</ns3:hr>
            <ns3:cad>61</ns3:cad>
          </ns3:TrackPointExtension>
        </extensions>
      </trkpt>
      <trkpt lat="45.29718616046011447906494140625" lon="-70.84745359607040882110595703125">
        <ele>1001.4000244140625</ele>
        <time>2026-08-21T14:17:53.000Z</time>
        <extensions>
          <ns3:TrackPointExtension>
            <ns3:hr>125</ns3:hr>
            <ns3:cad>61</ns3:cad>
          </ns3:TrackPointExtension>
        </extensions>
      </trkpt>
      <trkpt lat="45.29717140831053256988525390625" lon="-70.8474597148597240447998046875">
        <ele>1001.20001220703125</ele>
        <time>2026-08-21T14:17:54.000Z</time>
        <extensions>
          <ns3:TrackPointExtension>
            <ns3:hr>124</ns3:hr>
            <ns3:cad>61</ns3:cad>
          </ns3:TrackPointExtension>
        </extensions>
      </trkpt>
      <trkpt lat="45.2971543930470943450927734375" lon="-70.84746499545872211456298828125">
        <ele>1001</ele>
        <time>2026-08-21T14:17:55.000Z</time>
        <extensions>
          <ns3:TrackPointExtension>
            <ns3:hr>124</ns3:hr>
            <ns3:cad>61</ns3:cad>
          </ns3:TrackPointExtension>
        </extensions>
      </trkpt>
      <trkpt lat="45.297139473259449005126953125" lon="-70.84748377092182636260986328125">
        <ele>1000.79998779296875</ele>
        <time>2026-08-21T14:17:56.000Z</time>
        <extensions>
          <ns3:TrackPointExtension>
            <ns3:hr>124</ns3:hr>
            <ns3:cad>75</ns3:cad>
          </ns3:TrackPointExtension>
        </extensions>
      </trkpt>
      <trkpt lat="45.2971289120614528656005859375" lon="-70.84751260466873645782470703125">
        <ele>1000.4000244140625</ele>
        <time>2026-08-21T14:17:57.000Z</time>
        <extensions>
          <ns3:TrackPointExtension>
            <ns3:hr>125</ns3:hr>
            <ns3:cad>75</ns3:cad>
          </ns3:TrackPointExtension>
        </extensions>
      </trkpt>
      <trkpt lat="45.29711809940636157989501953125" lon="-70.8475368283689022064208984375">
        <ele>1000.20001220703125</ele>
        <time>2026-08-21T14:17:58.000Z</time>
        <extensions>
          <ns3:TrackPointExtension>
            <ns3:hr>125</ns3:hr>
            <ns3:cad>75</ns3:cad>
          </ns3:TrackPointExtension>
        </extensions>
      </trkpt>
      <trkpt lat="45.29710686765611171722412109375" lon="-70.847558788955211639404296875">
        <ele>1000</ele>
        <time>2026-08-21T14:17:59.000Z</time>
        <extensions>
          <ns3:TrackPointExtension>
            <ns3:hr>126</ns3:hr>
            <ns3:cad>75</ns3:cad>
          </ns3:TrackPointExtension>
        </extensions>
      </trkpt>
      <trkpt lat="45.29710418544709682464599609375" lon="-70.8475777320563793182373046875">
        <ele>999.5999755859375</ele>
        <time>2026-08-21T14:18:00.000Z</time>
        <extensions>
          <ns3:TrackPointExtension>
            <ns3:hr>126</ns3:hr>
            <ns3:cad>75</ns3:cad>
          </ns3:TrackPointExtension>
        </extensions>
      </trkpt>
      <trkpt lat="45.29710401780903339385986328125" lon="-70.84759340621531009674072265625">
        <ele>999.4000244140625</ele>
        <time>2026-08-21T14:18:01.000Z</time>
        <extensions>
          <ns3:TrackPointExtension>
            <ns3:hr>126</ns3:hr>
            <ns3:cad>74</ns3:cad>
          </ns3:TrackPointExtension>
        </extensions>
      </trkpt>
      <trkpt lat="45.29710150323808193206787109375" lon="-70.84760748781263828277587890625">
        <ele>999.20001220703125</ele>
        <time>2026-08-21T14:18:02.000Z</time>
        <extensions>
          <ns3:TrackPointExtension>
            <ns3:hr>126</ns3:hr>
            <ns3:cad>74</ns3:cad>
          </ns3:TrackPointExtension>
        </extensions>
      </trkpt>
      <trkpt lat="45.29709630645811557769775390625" lon="-70.84762475453317165374755859375">
        <ele>998.79998779296875</ele>
        <time>2026-08-21T14:18:03.000Z</time>
        <extensions>
          <ns3:TrackPointExtension>
            <ns3:hr>126</ns3:hr>
            <ns3:cad>74</ns3:cad>
          </ns3:TrackPointExtension>
        </extensions>
      </trkpt>
      <trkpt lat="45.2970933727920055389404296875" lon="-70.84765040315687656402587890625">
        <ele>998.5999755859375</ele>
        <time>2026-08-21T14:18:04.000Z</time>
        <extensions>
          <ns3:TrackPointExtension>
            <ns3:hr>126</ns3:hr>
            <ns3:cad>74</ns3:cad>
          </ns3:TrackPointExtension>
        </extensions>
      </trkpt>
      <trkpt lat="45.2970916964113712310791015625" lon="-70.84767521359026432037353515625">
        <ele>998.4000244140625</ele>
        <time>2026-08-21T14:18:05.000Z</time>
        <extensions>
          <ns3:TrackPointExtension>
            <ns3:hr>126</ns3:hr>
            <ns3:cad>74</ns3:cad>
          </ns3:TrackPointExtension>
        </extensions>
      </trkpt>
      <trkpt lat="45.297089852392673492431640625" lon="-70.84769281558692455291748046875">
        <ele>998.20001220703125</ele>
        <time>2026-08-21T14:18:06.000Z</time>
        <extensions>
          <ns3:TrackPointExtension>
            <ns3:hr>126</ns3:hr>
            <ns3:cad>74</ns3:cad>
          </ns3:TrackPointExtension>
        </extensions>
      </trkpt>
      <trkpt lat="45.297085158526897430419921875" lon="-70.8477101661264896392822265625">
        <ele>998</ele>
        <time>2026-08-21T14:18:07.000Z</time>
        <extensions>
          <ns3:TrackPointExtension>
            <ns3:hr>125</ns3:hr>
            <ns3:cad>74</ns3:cad>
          </ns3:TrackPointExtension>
        </extensions>
      </trkpt>
      <trkpt lat="45.29708004556596279144287109375" lon="-70.84772332571446895599365234375">
        <ele>998</ele>
        <time>2026-08-21T14:18:08.000Z</time>
        <extensions>
          <ns3:TrackPointExtension>
            <ns3:hr>126</ns3:hr>
            <ns3:cad>74</ns3:cad>
          </ns3:TrackPointExtension>
        </extensions>
      </trkpt>
      <trkpt lat="45.29706596396863460540771484375" lon="-70.84774411283433437347412109375">
        <ele>997.79998779296875</ele>
        <time>2026-08-21T14:18:09.000Z</time>
        <extensions>
          <ns3:TrackPointExtension>
            <ns3:hr>126</ns3:hr>
            <ns3:cad>74</ns3:cad>
          </ns3:TrackPointExtension>
        </extensions>
      </trkpt>
      <trkpt lat="45.2970581687986850738525390625" lon="-70.84776096045970916748046875">
        <ele>997.5999755859375</ele>
        <time>2026-08-21T14:18:10.000Z</time>
        <extensions>
          <ns3:TrackPointExtension>
            <ns3:hr>126</ns3:hr>
            <ns3:cad>0</ns3:cad>
          </ns3:TrackPointExtension>
        </extensions>
      </trkpt>
      <trkpt lat="45.29705263674259185791015625" lon="-70.84778032265603542327880859375">
        <ele>997.20001220703125</ele>
        <time>2026-08-21T14:18:11.000Z</time>
        <extensions>
          <ns3:TrackPointExtension>
            <ns3:hr>126</ns3:hr>
            <ns3:cad>0</ns3:cad>
          </ns3:TrackPointExtension>
        </extensions>
      </trkpt>
      <trkpt lat="45.297048948705196380615234375" lon="-70.8477980084717273712158203125">
        <ele>997</ele>
        <time>2026-08-21T14:18:12.000Z</time>
        <extensions>
          <ns3:TrackPointExtension>
            <ns3:hr>126</ns3:hr>
            <ns3:cad>0</ns3:cad>
          </ns3:TrackPointExtension>
        </extensions>
      </trkpt>
      <trkpt lat="45.29704417102038860321044921875" lon="-70.84781326353549957275390625">
        <ele>996.79998779296875</ele>
        <time>2026-08-21T14:18:13.000Z</time>
        <extensions>
          <ns3:TrackPointExtension>
            <ns3:hr>126</ns3:hr>
            <ns3:cad>79</ns3:cad>
          </ns3:TrackPointExtension>
        </extensions>
      </trkpt>
      <trkpt lat="45.29703746549785137176513671875" lon="-70.84783296100795269012451171875">
        <ele>996.5999755859375</ele>
        <time>2026-08-21T14:18:14.000Z</time>
        <extensions>
          <ns3:TrackPointExtension>
            <ns3:hr>126</ns3:hr>
            <ns3:cad>79</ns3:cad>
          </ns3:TrackPointExtension>
        </extensions>
      </trkpt>
      <trkpt lat="45.2970291674137115478515625" lon="-70.847847126424312591552734375">
        <ele>996.4000244140625</ele>
        <time>2026-08-21T14:18:15.000Z</time>
        <extensions>
          <ns3:TrackPointExtension>
            <ns3:hr>126</ns3:hr>
            <ns3:cad>0</ns3:cad>
          </ns3:TrackPointExtension>
        </extensions>
      </trkpt>
      <trkpt lat="45.29702036641538143157958984375" lon="-70.84786330349743366241455078125">
        <ele>996.20001220703125</ele>
        <time>2026-08-21T14:18:16.000Z</time>
        <extensions>
          <ns3:TrackPointExtension>
            <ns3:hr>125</ns3:hr>
            <ns3:cad>0</ns3:cad>
          </ns3:TrackPointExtension>
        </extensions>
      </trkpt>
      <trkpt lat="45.297014750540256500244140625" lon="-70.847884006798267364501953125">
        <ele>996</ele>
        <time>2026-08-21T14:18:17.000Z</time>
        <extensions>
          <ns3:TrackPointExtension>
            <ns3:hr>125</ns3:hr>
            <ns3:cad>0</ns3:cad>
          </ns3:TrackPointExtension>
        </extensions>
      </trkpt>
      <trkpt lat="45.29701215215027332305908203125" lon="-70.8479046262800693511962890625">
        <ele>995.79998779296875</ele>
        <time>2026-08-21T14:18:18.000Z</time>
        <extensions>
          <ns3:TrackPointExtension>
            <ns3:hr>125</ns3:hr>
            <ns3:cad>0</ns3:cad>
          </ns3:TrackPointExtension>
        </extensions>
      </trkpt>
      <trkpt lat="45.29700980521738529205322265625" lon="-70.847924239933490753173828125">
        <ele>995.5999755859375</ele>
        <time>2026-08-21T14:18:19.000Z</time>
        <extensions>
          <ns3:TrackPointExtension>
            <ns3:hr>125</ns3:hr>
            <ns3:cad>0</ns3:cad>
          </ns3:TrackPointExtension>
        </extensions>
      </trkpt>
      <trkpt lat="45.297006703913211822509765625" lon="-70.8479482121765613555908203125">
        <ele>995.4000244140625</ele>
        <time>2026-08-21T14:18:20.000Z</time>
        <extensions>
          <ns3:TrackPointExtension>
            <ns3:hr>125</ns3:hr>
            <ns3:cad>0</ns3:cad>
          </ns3:TrackPointExtension>
        </extensions>
      </trkpt>
      <trkpt lat="45.29700142331421375274658203125" lon="-70.847967155277729034423828125">
        <ele>995.20001220703125</ele>
        <time>2026-08-21T14:18:21.000Z</time>
        <extensions>
          <ns3:TrackPointExtension>
            <ns3:hr>124</ns3:hr>
            <ns3:cad>0</ns3:cad>
          </ns3:TrackPointExtension>
        </extensions>
      </trkpt>
      <trkpt lat="45.29699639417231082916259765625" lon="-70.84799221716821193695068359375">
        <ele>995</ele>
        <time>2026-08-21T14:18:22.000Z</time>
        <extensions>
          <ns3:TrackPointExtension>
            <ns3:hr>124</ns3:hr>
            <ns3:cad>0</ns3:cad>
          </ns3:TrackPointExtension>
        </extensions>
      </trkpt>
      <trkpt lat="45.29699605889618396759033203125" lon="-70.8480042032897472381591796875">
        <ele>994.5999755859375</ele>
        <time>2026-08-21T14:18:23.000Z</time>
        <extensions>
          <ns3:TrackPointExtension>
            <ns3:hr>124</ns3:hr>
            <ns3:cad>0</ns3:cad>
          </ns3:TrackPointExtension>
        </extensions>
      </trkpt>
      <trkpt lat="45.29699354432523250579833984375" lon="-70.84801535122096538543701171875">
        <ele>994.4000244140625</ele>
        <time>2026-08-21T14:18:24.000Z</time>
        <extensions>
          <ns3:TrackPointExtension>
            <ns3:hr>124</ns3:hr>
            <ns3:cad>0</ns3:cad>
          </ns3:TrackPointExtension>
        </extensions>
      </trkpt>
      <trkpt lat="45.29698801226913928985595703125" lon="-70.84802725352346897125244140625">
        <ele>994.20001220703125</ele>
        <time>2026-08-21T14:18:25.000Z</time>
        <extensions>
          <ns3:TrackPointExtension>
            <ns3:hr>123</ns3:hr>
            <ns3:cad>0</ns3:cad>
          </ns3:TrackPointExtension>
        </extensions>
      </trkpt>
      <trkpt lat="45.2969820611178874969482421875" lon="-70.84803865291178226470947265625">
        <ele>994</ele>
        <time>2026-08-21T14:18:26.000Z</time>
        <extensions>
          <ns3:TrackPointExtension>
            <ns3:hr>123</ns3:hr>
            <ns3:cad>0</ns3:cad>
          </ns3:TrackPointExtension>
        </extensions>
      </trkpt>
      <trkpt lat="45.29697619378566741943359375" lon="-70.848056338727474212646484375">
        <ele>993.79998779296875</ele>
        <time>2026-08-21T14:18:27.000Z</time>
        <extensions>
          <ns3:TrackPointExtension>
            <ns3:hr>123</ns3:hr>
            <ns3:cad>0</ns3:cad>
          </ns3:TrackPointExtension>
        </extensions>
      </trkpt>
      <trkpt lat="45.29696957208216190338134765625" lon="-70.84807989187538623809814453125">
        <ele>993.5999755859375</ele>
        <time>2026-08-21T14:18:28.000Z</time>
        <extensions>
          <ns3:TrackPointExtension>
            <ns3:hr>123</ns3:hr>
            <ns3:cad>62</ns3:cad>
          </ns3:TrackPointExtension>
        </extensions>
      </trkpt>
      <trkpt lat="45.29696068726480007171630859375" lon="-70.84809833206236362457275390625">
        <ele>993.20001220703125</ele>
        <time>2026-08-21T14:18:29.000Z</time>
        <extensions>
          <ns3:TrackPointExtension>
            <ns3:hr>122</ns3:hr>
            <ns3:cad>62</ns3:cad>
          </ns3:TrackPointExtension>
        </extensions>
      </trkpt>
      <trkpt lat="45.296953059732913970947265625" lon="-70.84811895154416561126708984375">
        <ele>993.20001220703125</ele>
        <time>2026-08-21T14:18:30.000Z</time>
        <extensions>
          <ns3:TrackPointExtension>
            <ns3:hr>123</ns3:hr>
            <ns3:cad>62</ns3:cad>
          </ns3:TrackPointExtension>
        </extensions>
      </trkpt>
      <trkpt lat="45.29694392345845699310302734375" lon="-70.8481413312256336212158203125">
        <ele>993</ele>
        <time>2026-08-21T14:18:31.000Z</time>
        <extensions>
          <ns3:TrackPointExtension>
            <ns3:hr>124</ns3:hr>
            <ns3:cad>62</ns3:cad>
          </ns3:TrackPointExtension>
        </extensions>
      </trkpt>
      <trkpt lat="45.29693738557398319244384765625" lon="-70.8481567539274692535400390625">
        <ele>992.79998779296875</ele>
        <time>2026-08-21T14:18:32.000Z</time>
        <extensions>
          <ns3:TrackPointExtension>
            <ns3:hr>125</ns3:hr>
            <ns3:cad>0</ns3:cad>
          </ns3:TrackPointExtension>
        </extensions>
      </trkpt>
      <trkpt lat="45.2969280816614627838134765625" lon="-70.8481741882860660552978515625">
        <ele>992.5999755859375</ele>
        <time>2026-08-21T14:18:33.000Z</time>
        <extensions>
          <ns3:TrackPointExtension>
            <ns3:hr>126</ns3:hr>
            <ns3:cad>0</ns3:cad>
          </ns3:TrackPointExtension>
        </extensions>
      </trkpt>
      <trkpt lat="45.296921543776988983154296875" lon="-70.84819405339658260345458984375">
        <ele>992.4000244140625</ele>
        <time>2026-08-21T14:18:34.000Z</time>
        <extensions>
          <ns3:TrackPointExtension>
            <ns3:hr>126</ns3:hr>
            <ns3:cad>69</ns3:cad>
          </ns3:TrackPointExtension>
        </extensions>
      </trkpt>
      <trkpt lat="45.29691307805478572845458984375" lon="-70.8482140861451625823974609375">
        <ele>992.20001220703125</ele>
        <time>2026-08-21T14:18:35.000Z</time>
        <extensions>
          <ns3:TrackPointExtension>
            <ns3:hr>126</ns3:hr>
            <ns3:cad>69</ns3:cad>
          </ns3:TrackPointExtension>
        </extensions>
      </trkpt>
      <trkpt lat="45.29690654017031192779541015625" lon="-70.84823193959891796112060546875">
        <ele>991.79998779296875</ele>
        <time>2026-08-21T14:18:36.000Z</time>
        <extensions>
          <ns3:TrackPointExtension>
            <ns3:hr>127</ns3:hr>
            <ns3:cad>69</ns3:cad>
          </ns3:TrackPointExtension>
        </extensions>
      </trkpt>
      <trkpt lat="45.29690000228583812713623046875" lon="-70.8482509665191173553466796875">
        <ele>991.5999755859375</ele>
        <time>2026-08-21T14:18:37.000Z</time>
        <extensions>
          <ns3:TrackPointExtension>
            <ns3:hr>127</ns3:hr>
            <ns3:cad>68</ns3:cad>
          </ns3:TrackPointExtension>
        </extensions>
      </trkpt>
      <trkpt lat="45.296893380582332611083984375" lon="-70.8482724241912364959716796875">
        <ele>991.4000244140625</ele>
        <time>2026-08-21T14:18:38.000Z</time>
        <extensions>
          <ns3:TrackPointExtension>
            <ns3:hr>127</ns3:hr>
            <ns3:cad>68</ns3:cad>
          </ns3:TrackPointExtension>
        </extensions>
      </trkpt>
      <trkpt lat="45.29688742943108081817626953125" lon="-70.84829161874949932098388671875">
        <ele>991.4000244140625</ele>
        <time>2026-08-21T14:18:39.000Z</time>
        <extensions>
          <ns3:TrackPointExtension>
            <ns3:hr>127</ns3:hr>
            <ns3:cad>68</ns3:cad>
          </ns3:TrackPointExtension>
        </extensions>
      </trkpt>
      <trkpt lat="45.29688424430787563323974609375" lon="-70.84832145832479000091552734375">
        <ele>991.20001220703125</ele>
        <time>2026-08-21T14:18:40.000Z</time>
        <extensions>
          <ns3:TrackPointExtension>
            <ns3:hr>128</ns3:hr>
            <ns3:cad>64</ns3:cad>
          </ns3:TrackPointExtension>
        </extensions>
      </trkpt>
      <trkpt lat="45.2968848310410976409912109375" lon="-70.848350040614604949951171875">
        <ele>991</ele>
        <time>2026-08-21T14:18:41.000Z</time>
        <extensions>
          <ns3:TrackPointExtension>
            <ns3:hr>127</ns3:hr>
            <ns3:cad>64</ns3:cad>
          </ns3:TrackPointExtension>
        </extensions>
      </trkpt>
      <trkpt lat="45.29688558541238307952880859375" lon="-70.8483745157718658447265625">
        <ele>991</ele>
        <time>2026-08-21T14:18:42.000Z</time>
        <extensions>
          <ns3:TrackPointExtension>
            <ns3:hr>127</ns3:hr>
            <ns3:cad>64</ns3:cad>
          </ns3:TrackPointExtension>
        </extensions>
      </trkpt>
      <trkpt lat="45.29688525013625621795654296875" lon="-70.8484055288136005401611328125">
        <ele>991</ele>
        <time>2026-08-21T14:18:43.000Z</time>
        <extensions>
          <ns3:TrackPointExtension>
            <ns3:hr>127</ns3:hr>
            <ns3:cad>64</ns3:cad>
          </ns3:TrackPointExtension>
        </extensions>
      </trkpt>
      <trkpt lat="45.29688231647014617919921875" lon="-70.84842690266668796539306640625">
        <ele>991</ele>
        <time>2026-08-21T14:18:44.000Z</time>
        <extensions>
          <ns3:TrackPointExtension>
            <ns3:hr>127</ns3:hr>
            <ns3:cad>64</ns3:cad>
          </ns3:TrackPointExtension>
        </extensions>
      </trkpt>
      <trkpt lat="45.29687921516597270965576171875" lon="-70.84844903089106082916259765625">
        <ele>991</ele>
        <time>2026-08-21T14:18:45.000Z</time>
        <extensions>
          <ns3:TrackPointExtension>
            <ns3:hr>127</ns3:hr>
            <ns3:cad>64</ns3:cad>
          </ns3:TrackPointExtension>
        </extensions>
      </trkpt>
      <trkpt lat="45.2968787960708141326904296875" lon="-70.848468057811260223388671875">
        <ele>990.79998779296875</ele>
        <time>2026-08-21T14:18:46.000Z</time>
        <extensions>
          <ns3:TrackPointExtension>
            <ns3:hr>127</ns3:hr>
            <ns3:cad>64</ns3:cad>
          </ns3:TrackPointExtension>
        </extensions>
      </trkpt>
      <trkpt lat="45.29687971808016300201416015625" lon="-70.84849186241626739501953125">
        <ele>990.79998779296875</ele>
        <time>2026-08-21T14:18:47.000Z</time>
        <extensions>
          <ns3:TrackPointExtension>
            <ns3:hr>128</ns3:hr>
            <ns3:cad>67</ns3:cad>
          </ns3:TrackPointExtension>
        </extensions>
      </trkpt>
      <trkpt lat="45.2968777902424335479736328125" lon="-70.848514996469020843505859375">
        <ele>990.5999755859375</ele>
        <time>2026-08-21T14:18:48.000Z</time>
        <extensions>
          <ns3:TrackPointExtension>
            <ns3:hr>127</ns3:hr>
            <ns3:cad>67</ns3:cad>
          </ns3:TrackPointExtension>
        </extensions>
      </trkpt>
      <trkpt lat="45.2968777902424335479736328125" lon="-70.84854156710207462310791015625">
        <ele>990.4000244140625</ele>
        <time>2026-08-21T14:18:49.000Z</time>
        <extensions>
          <ns3:TrackPointExtension>
            <ns3:hr>127</ns3:hr>
            <ns3:cad>67</ns3:cad>
          </ns3:TrackPointExtension>
        </extensions>
      </trkpt>
      <trkpt lat="45.2968798018991947174072265625" lon="-70.8485664613544940948486328125">
        <ele>990.4000244140625</ele>
        <time>2026-08-21T14:18:50.000Z</time>
        <extensions>
          <ns3:TrackPointExtension>
            <ns3:hr>127</ns3:hr>
            <ns3:cad>67</ns3:cad>
          </ns3:TrackPointExtension>
        </extensions>
      </trkpt>
      <trkpt lat="45.29688240028917789459228515625" lon="-70.84859001450240612030029296875">
        <ele>990.20001220703125</ele>
        <time>2026-08-21T14:18:51.000Z</time>
        <extensions>
          <ns3:TrackPointExtension>
            <ns3:hr>127</ns3:hr>
            <ns3:cad>0</ns3:cad>
          </ns3:TrackPointExtension>
        </extensions>
      </trkpt>
      <trkpt lat="45.2968818135559558868408203125" lon="-70.84860577248036861419677734375">
        <ele>990.20001220703125</ele>
        <time>2026-08-21T14:18:52.000Z</time>
        <extensions>
          <ns3:TrackPointExtension>
            <ns3:hr>127</ns3:hr>
            <ns3:cad>0</ns3:cad>
          </ns3:TrackPointExtension>
        </extensions>
      </trkpt>
      <trkpt lat="45.29688189737498760223388671875" lon="-70.84862220101058483123779296875">
        <ele>990</ele>
        <time>2026-08-21T14:18:53.000Z</time>
        <extensions>
          <ns3:TrackPointExtension>
            <ns3:hr>127</ns3:hr>
            <ns3:cad>0</ns3:cad>
          </ns3:TrackPointExtension>
        </extensions>
      </trkpt>
      <trkpt lat="45.29688156209886074066162109375" lon="-70.848638378083705902099609375">
        <ele>990</ele>
        <time>2026-08-21T14:18:54.000Z</time>
        <extensions>
          <ns3:TrackPointExtension>
            <ns3:hr>127</ns3:hr>
            <ns3:cad>67</ns3:cad>
          </ns3:TrackPointExtension>
        </extensions>
      </trkpt>
      <trkpt lat="45.29687955044209957122802734375" lon="-70.84865673445165157318115234375">
        <ele>989.79998779296875</ele>
        <time>2026-08-21T14:18:55.000Z</time>
        <extensions>
          <ns3:TrackPointExtension>
            <ns3:hr>127</ns3:hr>
            <ns3:cad>67</ns3:cad>
          </ns3:TrackPointExtension>
        </extensions>
      </trkpt>
      <trkpt lat="45.2968741022050380706787109375" lon="-70.84867567755281925201416015625">
        <ele>989.5999755859375</ele>
        <time>2026-08-21T14:18:56.000Z</time>
        <extensions>
          <ns3:TrackPointExtension>
            <ns3:hr>127</ns3:hr>
            <ns3:cad>67</ns3:cad>
          </ns3:TrackPointExtension>
        </extensions>
      </trkpt>
      <trkpt lat="45.29686965979635715484619140625" lon="-70.8486936986446380615234375">
        <ele>989.4000244140625</ele>
        <time>2026-08-21T14:18:57.000Z</time>
        <extensions>
          <ns3:TrackPointExtension>
            <ns3:hr>127</ns3:hr>
            <ns3:cad>67</ns3:cad>
          </ns3:TrackPointExtension>
        </extensions>
      </trkpt>
      <trkpt lat="45.2968690730631351470947265625" lon="-70.84871591068804264068603515625">
        <ele>989.4000244140625</ele>
        <time>2026-08-21T14:18:58.000Z</time>
        <extensions>
          <ns3:TrackPointExtension>
            <ns3:hr>126</ns3:hr>
            <ns3:cad>69</ns3:cad>
          </ns3:TrackPointExtension>
        </extensions>
      </trkpt>
      <trkpt lat="45.29686530120670795440673828125" lon="-70.84873183630406856536865234375">
        <ele>989.20001220703125</ele>
        <time>2026-08-21T14:18:59.000Z</time>
        <extensions>
          <ns3:TrackPointExtension>
            <ns3:hr>126</ns3:hr>
            <ns3:cad>69</ns3:cad>
          </ns3:TrackPointExtension>
        </extensions>
      </trkpt>
      <trkpt lat="45.29686488211154937744140625" lon="-70.8487491868436336517333984375">
        <ele>989.20001220703125</ele>
        <time>2026-08-21T14:19:00.000Z</time>
        <extensions>
          <ns3:TrackPointExtension>
            <ns3:hr>126</ns3:hr>
            <ns3:cad>69</ns3:cad>
          </ns3:TrackPointExtension>
        </extensions>
      </trkpt>
      <trkpt lat="45.29686261899769306182861328125" lon="-70.84876486100256443023681640625">
        <ele>989</ele>
        <time>2026-08-21T14:19:01.000Z</time>
        <extensions>
          <ns3:TrackPointExtension>
            <ns3:hr>126</ns3:hr>
            <ns3:cad>69</ns3:cad>
          </ns3:TrackPointExtension>
        </extensions>
      </trkpt>
      <trkpt lat="45.29685792513191699981689453125" lon="-70.848786570131778717041015625">
        <ele>988.79998779296875</ele>
        <time>2026-08-21T14:19:02.000Z</time>
        <extensions>
          <ns3:TrackPointExtension>
            <ns3:hr>127</ns3:hr>
            <ns3:cad>69</ns3:cad>
          </ns3:TrackPointExtension>
        </extensions>
      </trkpt>
      <trkpt lat="45.29685080051422119140625" lon="-70.84880308248102664947509765625">
        <ele>988.5999755859375</ele>
        <time>2026-08-21T14:19:03.000Z</time>
        <extensions>
          <ns3:TrackPointExtension>
            <ns3:hr>126</ns3:hr>
            <ns3:cad>69</ns3:cad>
          </ns3:TrackPointExtension>
        </extensions>
      </trkpt>
      <trkpt lat="45.29684476554393768310546875" lon="-70.84882219322025775909423828125">
        <ele>988.4000244140625</ele>
        <time>2026-08-21T14:19:04.000Z</time>
        <extensions>
          <ns3:TrackPointExtension>
            <ns3:hr>126</ns3:hr>
            <ns3:cad>69</ns3:cad>
          </ns3:TrackPointExtension>
        </extensions>
      </trkpt>
      <trkpt lat="45.29683898203074932098388671875" lon="-70.84884180687367916107177734375">
        <ele>988.20001220703125</ele>
        <time>2026-08-21T14:19:05.000Z</time>
        <extensions>
          <ns3:TrackPointExtension>
            <ns3:hr>126</ns3:hr>
            <ns3:cad>0</ns3:cad>
          </ns3:TrackPointExtension>
        </extensions>
      </trkpt>
      <trkpt lat="45.29683713801205158233642578125" lon="-70.84886326454579830169677734375">
        <ele>988</ele>
        <time>2026-08-21T14:19:06.000Z</time>
        <extensions>
          <ns3:TrackPointExtension>
            <ns3:hr>127</ns3:hr>
            <ns3:cad>0</ns3:cad>
          </ns3:TrackPointExtension>
        </extensions>
      </trkpt>
      <trkpt lat="45.2968305163085460662841796875" lon="-70.84887499921023845672607421875">
        <ele>987.79998779296875</ele>
        <time>2026-08-21T14:19:07.000Z</time>
        <extensions>
          <ns3:TrackPointExtension>
            <ns3:hr>126</ns3:hr>
            <ns3:cad>0</ns3:cad>
          </ns3:TrackPointExtension>
        </extensions>
      </trkpt>
      <trkpt lat="45.29682339169085025787353515625" lon="-70.84889092482626438140869140625">
        <ele>987.5999755859375</ele>
        <time>2026-08-21T14:19:08.000Z</time>
        <extensions>
          <ns3:TrackPointExtension>
            <ns3:hr>126</ns3:hr>
            <ns3:cad>0</ns3:cad>
          </ns3:TrackPointExtension>
        </extensions>
      </trkpt>
      <trkpt lat="45.29681383632123470306396484375" lon="-70.84890416823327541351318359375">
        <ele>987.4000244140625</ele>
        <time>2026-08-21T14:19:09.000Z</time>
        <extensions>
          <ns3:TrackPointExtension>
            <ns3:hr>126</ns3:hr>
            <ns3:cad>0</ns3:cad>
          </ns3:TrackPointExtension>
        </extensions>
      </trkpt>
      <trkpt lat="45.29680193401873111724853515625" lon="-70.8489305712282657623291015625">
        <ele>987.20001220703125</ele>
        <time>2026-08-21T14:19:10.000Z</time>
        <extensions>
          <ns3:TrackPointExtension>
            <ns3:hr>126</ns3:hr>
            <ns3:cad>0</ns3:cad>
          </ns3:TrackPointExtension>
        </extensions>
      </trkpt>
      <trkpt lat="45.29680310748517513275146484375" lon="-70.84895320236682891845703125">
        <ele>987</ele>
        <time>2026-08-21T14:19:11.000Z</time>
        <extensions>
          <ns3:TrackPointExtension>
            <ns3:hr>126</ns3:hr>
            <ns3:cad>0</ns3:cad>
          </ns3:TrackPointExtension>
        </extensions>
      </trkpt>
      <trkpt lat="45.29680143110454082489013671875" lon="-70.84897692315280437469482421875">
        <ele>986.79998779296875</ele>
        <time>2026-08-21T14:19:12.000Z</time>
        <extensions>
          <ns3:TrackPointExtension>
            <ns3:hr>126</ns3:hr>
            <ns3:cad>0</ns3:cad>
          </ns3:TrackPointExtension>
        </extensions>
      </trkpt>
      <trkpt lat="45.29679573141038417816162109375" lon="-70.848999135196208953857421875">
        <ele>986.79998779296875</ele>
        <time>2026-08-21T14:19:13.000Z</time>
        <extensions>
          <ns3:TrackPointExtension>
            <ns3:hr>126</ns3:hr>
            <ns3:cad>0</ns3:cad>
          </ns3:TrackPointExtension>
        </extensions>
      </trkpt>
      <trkpt lat="45.29678818769752979278564453125" lon="-70.84902084432542324066162109375">
        <ele>986.5999755859375</ele>
        <time>2026-08-21T14:19:14.000Z</time>
        <extensions>
          <ns3:TrackPointExtension>
            <ns3:hr>127</ns3:hr>
            <ns3:cad>0</ns3:cad>
          </ns3:TrackPointExtension>
        </extensions>
      </trkpt>
      <trkpt lat="45.296779386699199676513671875" lon="-70.84904037415981292724609375">
        <ele>986.4000244140625</ele>
        <time>2026-08-21T14:19:15.000Z</time>
        <extensions>
          <ns3:TrackPointExtension>
            <ns3:hr>126</ns3:hr>
            <ns3:cad>0</ns3:cad>
          </ns3:TrackPointExtension>
        </extensions>
      </trkpt>
      <trkpt lat="45.29677712358534336090087890625" lon="-70.84905085153877735137939453125">
        <ele>986.20001220703125</ele>
        <time>2026-08-21T14:19:16.000Z</time>
        <extensions>
          <ns3:TrackPointExtension>
            <ns3:hr>126</ns3:hr>
            <ns3:cad>0</ns3:cad>
          </ns3:TrackPointExtension>
        </extensions>
      </trkpt>
      <trkpt lat="45.2967735193669795989990234375" lon="-70.8490827865898609161376953125">
        <ele>986.20001220703125</ele>
        <time>2026-08-21T14:19:17.000Z</time>
        <extensions>
          <ns3:TrackPointExtension>
            <ns3:hr>126</ns3:hr>
            <ns3:cad>0</ns3:cad>
          </ns3:TrackPointExtension>
        </extensions>
      </trkpt>
      <trkpt lat="45.29676773585379123687744140625" lon="-70.84910281933844089508056640625">
        <ele>986</ele>
        <time>2026-08-21T14:19:18.000Z</time>
        <extensions>
          <ns3:TrackPointExtension>
            <ns3:hr>126</ns3:hr>
            <ns3:cad>0</ns3:cad>
          </ns3:TrackPointExtension>
        </extensions>
      </trkpt>
      <trkpt lat="45.29675901867449283599853515625" lon="-70.849119834601879119873046875">
        <ele>985.79998779296875</ele>
        <time>2026-08-21T14:19:19.000Z</time>
        <extensions>
          <ns3:TrackPointExtension>
            <ns3:hr>126</ns3:hr>
            <ns3:cad>0</ns3:cad>
          </ns3:TrackPointExtension>
        </extensions>
      </trkpt>
      <trkpt lat="45.29675600118935108184814453125" lon="-70.8491394482553005218505859375">
        <ele>985.79998779296875</ele>
        <time>2026-08-21T14:19:20.000Z</time>
        <extensions>
          <ns3:TrackPointExtension>
            <ns3:hr>126</ns3:hr>
            <ns3:cad>66</ns3:cad>
          </ns3:TrackPointExtension>
        </extensions>
      </trkpt>
      <trkpt lat="45.296753235161304473876953125" lon="-70.8491585589945316314697265625">
        <ele>985.5999755859375</ele>
        <time>2026-08-21T14:19:21.000Z</time>
        <extensions>
          <ns3:TrackPointExtension>
            <ns3:hr>127</ns3:hr>
            <ns3:cad>66</ns3:cad>
          </ns3:TrackPointExtension>
        </extensions>
      </trkpt>
      <trkpt lat="45.29674694873392581939697265625" lon="-70.8491880632936954498291015625">
        <ele>985.4000244140625</ele>
        <time>2026-08-21T14:19:22.000Z</time>
        <extensions>
          <ns3:TrackPointExtension>
            <ns3:hr>127</ns3:hr>
            <ns3:cad>66</ns3:cad>
          </ns3:TrackPointExtension>
        </extensions>
      </trkpt>
      <trkpt lat="45.2967396564781665802001953125" lon="-70.84920776076614856719970703125">
        <ele>985.20001220703125</ele>
        <time>2026-08-21T14:19:23.000Z</time>
        <extensions>
          <ns3:TrackPointExtension>
            <ns3:hr>128</ns3:hr>
            <ns3:cad>66</ns3:cad>
          </ns3:TrackPointExtension>
        </extensions>
      </trkpt>
      <trkpt lat="45.29673169367015361785888671875" lon="-70.8492313139140605926513671875">
        <ele>985</ele>
        <time>2026-08-21T14:19:24.000Z</time>
        <extensions>
          <ns3:TrackPointExtension>
            <ns3:hr>128</ns3:hr>
            <ns3:cad>66</ns3:cad>
          </ns3:TrackPointExtension>
        </extensions>
      </trkpt>
      <trkpt lat="45.29672716744244098663330078125" lon="-70.84924732334911823272705078125">
        <ele>984.79998779296875</ele>
        <time>2026-08-21T14:19:25.000Z</time>
        <extensions>
          <ns3:TrackPointExtension>
            <ns3:hr>128</ns3:hr>
            <ns3:cad>66</ns3:cad>
          </ns3:TrackPointExtension>
        </extensions>
      </trkpt>
      <trkpt lat="45.29672532342374324798583984375" lon="-70.84927397780120372772216796875">
        <ele>984.5999755859375</ele>
        <time>2026-08-21T14:19:26.000Z</time>
        <extensions>
          <ns3:TrackPointExtension>
            <ns3:hr>128</ns3:hr>
            <ns3:cad>66</ns3:cad>
          </ns3:TrackPointExtension>
        </extensions>
      </trkpt>
      <trkpt lat="45.296724736690521240234375" lon="-70.8492993749678134918212890625">
        <ele>984.4000244140625</ele>
        <time>2026-08-21T14:19:27.000Z</time>
        <extensions>
          <ns3:TrackPointExtension>
            <ns3:hr>127</ns3:hr>
            <ns3:cad>59</ns3:cad>
          </ns3:TrackPointExtension>
        </extensions>
      </trkpt>
      <trkpt lat="45.2967222221195697784423828125" lon="-70.84931530058383941650390625">
        <ele>984.4000244140625</ele>
        <time>2026-08-21T14:19:28.000Z</time>
        <extensions>
          <ns3:TrackPointExtension>
            <ns3:hr>127</ns3:hr>
            <ns3:cad>59</ns3:cad>
          </ns3:TrackPointExtension>
        </extensions>
      </trkpt>
      <trkpt lat="45.29672004282474517822265625" lon="-70.84933114238083362579345703125">
        <ele>984.20001220703125</ele>
        <time>2026-08-21T14:19:29.000Z</time>
        <extensions>
          <ns3:TrackPointExtension>
            <ns3:hr>127</ns3:hr>
            <ns3:cad>0</ns3:cad>
          </ns3:TrackPointExtension>
        </extensions>
      </trkpt>
      <trkpt lat="45.29671870172023773193359375" lon="-70.84934153594076633453369140625">
        <ele>984.20001220703125</ele>
        <time>2026-08-21T14:19:30.000Z</time>
        <extensions>
          <ns3:TrackPointExtension>
            <ns3:hr>126</ns3:hr>
            <ns3:cad>0</ns3:cad>
          </ns3:TrackPointExtension>
        </extensions>
      </trkpt>
      <trkpt lat="45.2967175282537937164306640625" lon="-70.84936316125094890594482421875">
        <ele>984.20001220703125</ele>
        <time>2026-08-21T14:19:31.000Z</time>
        <extensions>
          <ns3:TrackPointExtension>
            <ns3:hr>126</ns3:hr>
            <ns3:cad>0</ns3:cad>
          </ns3:TrackPointExtension>
        </extensions>
      </trkpt>
      <trkpt lat="45.29671476222574710845947265625" lon="-70.84938101470470428466796875">
        <ele>984</ele>
        <time>2026-08-21T14:19:32.000Z</time>
        <extensions>
          <ns3:TrackPointExtension>
            <ns3:hr>126</ns3:hr>
            <ns3:cad>0</ns3:cad>
          </ns3:TrackPointExtension>
        </extensions>
      </trkpt>
      <trkpt lat="45.2967135049402713775634765625" lon="-70.84938679821789264678955078125">
        <ele>984</ele>
        <time>2026-08-21T14:19:33.000Z</time>
        <extensions>
          <ns3:TrackPointExtension>
            <ns3:hr>126</ns3:hr>
            <ns3:cad>0</ns3:cad>
          </ns3:TrackPointExtension>
        </extensions>
      </trkpt>
      <trkpt lat="45.29671275056898593902587890625" lon="-70.84940255619585514068603515625">
        <ele>984</ele>
        <time>2026-08-21T14:19:34.000Z</time>
        <extensions>
          <ns3:TrackPointExtension>
            <ns3:hr>127</ns3:hr>
            <ns3:cad>0</ns3:cad>
          </ns3:TrackPointExtension>
        </extensions>
      </trkpt>
      <trkpt lat="45.29670990072190761566162109375" lon="-70.84942317567765712738037109375">
        <ele>983.79998779296875</ele>
        <time>2026-08-21T14:19:35.000Z</time>
        <extensions>
          <ns3:TrackPointExtension>
            <ns3:hr>128</ns3:hr>
            <ns3:cad>0</ns3:cad>
          </ns3:TrackPointExtension>
        </extensions>
      </trkpt>
      <trkpt lat="45.296710990369319915771484375" lon="-70.849444381892681121826171875">
        <ele>983.5999755859375</ele>
        <time>2026-08-21T14:19:36.000Z</time>
        <extensions>
          <ns3:TrackPointExtension>
            <ns3:hr>128</ns3:hr>
            <ns3:cad>0</ns3:cad>
          </ns3:TrackPointExtension>
        </extensions>
      </trkpt>
      <trkpt lat="45.29670973308384418487548828125" lon="-70.8494670130312442779541015625">
        <ele>983.5999755859375</ele>
        <time>2026-08-21T14:19:37.000Z</time>
        <extensions>
          <ns3:TrackPointExtension>
            <ns3:hr>128</ns3:hr>
            <ns3:cad>0</ns3:cad>
          </ns3:TrackPointExtension>
        </extensions>
      </trkpt>
      <trkpt lat="45.29670788906514644622802734375" lon="-70.84949492476880550384521484375">
        <ele>983.4000244140625</ele>
        <time>2026-08-21T14:19:38.000Z</time>
        <extensions>
          <ns3:TrackPointExtension>
            <ns3:hr>128</ns3:hr>
            <ns3:cad>0</ns3:cad>
          </ns3:TrackPointExtension>
        </extensions>
      </trkpt>
      <trkpt lat="45.296706296503543853759765625" lon="-70.84952074103057384490966796875">
        <ele>983.20001220703125</ele>
        <time>2026-08-21T14:19:39.000Z</time>
        <extensions>
          <ns3:TrackPointExtension>
            <ns3:hr>128</ns3:hr>
            <ns3:cad>0</ns3:cad>
          </ns3:TrackPointExtension>
        </extensions>
      </trkpt>
      <trkpt lat="45.2967000938951969146728515625" lon="-70.849554352462291717529296875">
        <ele>983</ele>
        <time>2026-08-21T14:19:40.000Z</time>
        <extensions>
          <ns3:TrackPointExtension>
            <ns3:hr>127</ns3:hr>
            <ns3:cad>0</ns3:cad>
          </ns3:TrackPointExtension>
        </extensions>
      </trkpt>
      <trkpt lat="45.29669648967683315277099609375" lon="-70.84957840852439403533935546875">
        <ele>982.79998779296875</ele>
        <time>2026-08-21T14:19:41.000Z</time>
        <extensions>
          <ns3:TrackPointExtension>
            <ns3:hr>128</ns3:hr>
            <ns3:cad>0</ns3:cad>
          </ns3:TrackPointExtension>
        </extensions>
      </trkpt>
      <trkpt lat="45.296697579324245452880859375" lon="-70.8496024645864963531494140625">
        <ele>982.5999755859375</ele>
        <time>2026-08-21T14:19:42.000Z</time>
        <extensions>
          <ns3:TrackPointExtension>
            <ns3:hr>128</ns3:hr>
            <ns3:cad>0</ns3:cad>
          </ns3:TrackPointExtension>
        </extensions>
      </trkpt>
      <trkpt lat="45.2966947294771671295166015625" lon="-70.8496289514005184173583984375">
        <ele>982.4000244140625</ele>
        <time>2026-08-21T14:19:43.000Z</time>
        <extensions>
          <ns3:TrackPointExtension>
            <ns3:hr>128</ns3:hr>
            <ns3:cad>0</ns3:cad>
          </ns3:TrackPointExtension>
        </extensions>
      </trkpt>
      <trkpt lat="45.29669598676264286041259765625" lon="-70.84965149872004985809326171875">
        <ele>982.4000244140625</ele>
        <time>2026-08-21T14:19:44.000Z</time>
        <extensions>
          <ns3:TrackPointExtension>
            <ns3:hr>128</ns3:hr>
            <ns3:cad>0</ns3:cad>
          </ns3:TrackPointExtension>
        </extensions>
      </trkpt>
      <trkpt lat="45.29669146053493022918701171875" lon="-70.849672369658946990966796875">
        <ele>982.20001220703125</ele>
        <time>2026-08-21T14:19:45.000Z</time>
        <extensions>
          <ns3:TrackPointExtension>
            <ns3:hr>127</ns3:hr>
            <ns3:cad>0</ns3:cad>
          </ns3:TrackPointExtension>
        </extensions>
      </trkpt>
      <trkpt lat="45.29668358154594898223876953125" lon="-70.849694497883319854736328125">
        <ele>982</ele>
        <time>2026-08-21T14:19:46.000Z</time>
        <extensions>
          <ns3:TrackPointExtension>
            <ns3:hr>127</ns3:hr>
            <ns3:cad>70</ns3:cad>
          </ns3:TrackPointExtension>
        </extensions>
      </trkpt>
      <trkpt lat="45.29667444527149200439453125" lon="-70.84971285425126552581787109375">
        <ele>982</ele>
        <time>2026-08-21T14:19:47.000Z</time>
        <extensions>
          <ns3:TrackPointExtension>
            <ns3:hr>127</ns3:hr>
            <ns3:cad>70</ns3:cad>
          </ns3:TrackPointExtension>
        </extensions>
      </trkpt>
      <trkpt lat="45.2966645546257495880126953125" lon="-70.849723331630229949951171875">
        <ele>981.79998779296875</ele>
        <time>2026-08-21T14:19:48.000Z</time>
        <extensions>
          <ns3:TrackPointExtension>
            <ns3:hr>126</ns3:hr>
            <ns3:cad>70</ns3:cad>
          </ns3:TrackPointExtension>
        </extensions>
      </trkpt>
      <trkpt lat="45.29665558598935604095458984375" lon="-70.84974110126495361328125">
        <ele>981.5999755859375</ele>
        <time>2026-08-21T14:19:49.000Z</time>
        <extensions>
          <ns3:TrackPointExtension>
            <ns3:hr>126</ns3:hr>
            <ns3:cad>70</ns3:cad>
          </ns3:TrackPointExtension>
        </extensions>
      </trkpt>
      <trkpt lat="45.29664904810488224029541015625" lon="-70.84975644014775753021240234375">
        <ele>981.4000244140625</ele>
        <time>2026-08-21T14:19:50.000Z</time>
        <extensions>
          <ns3:TrackPointExtension>
            <ns3:hr>126</ns3:hr>
            <ns3:cad>70</ns3:cad>
          </ns3:TrackPointExtension>
        </extensions>
      </trkpt>
      <trkpt lat="45.296643935143947601318359375" lon="-70.84977571852505207061767578125">
        <ele>981.20001220703125</ele>
        <time>2026-08-21T14:19:51.000Z</time>
        <extensions>
          <ns3:TrackPointExtension>
            <ns3:hr>126</ns3:hr>
            <ns3:cad>70</ns3:cad>
          </ns3:TrackPointExtension>
        </extensions>
      </trkpt>
      <trkpt lat="45.296647958457469940185546875" lon="-70.8497992716729640960693359375">
        <ele>981</ele>
        <time>2026-08-21T14:19:52.000Z</time>
        <extensions>
          <ns3:TrackPointExtension>
            <ns3:hr>125</ns3:hr>
            <ns3:cad>70</ns3:cad>
          </ns3:TrackPointExtension>
        </extensions>
      </trkpt>
      <trkpt lat="45.296647958457469940185546875" lon="-70.849819891154766082763671875">
        <ele>981</ele>
        <time>2026-08-21T14:19:53.000Z</time>
        <extensions>
          <ns3:TrackPointExtension>
            <ns3:hr>125</ns3:hr>
            <ns3:cad>70</ns3:cad>
          </ns3:TrackPointExtension>
        </extensions>
      </trkpt>
      <trkpt lat="45.29665357433259487152099609375" lon="-70.849831290543079376220703125">
        <ele>980.79998779296875</ele>
        <time>2026-08-21T14:19:54.000Z</time>
        <extensions>
          <ns3:TrackPointExtension>
            <ns3:hr>125</ns3:hr>
            <ns3:cad>70</ns3:cad>
          </ns3:TrackPointExtension>
        </extensions>
      </trkpt>
      <trkpt lat="45.2966575138270854949951171875" lon="-70.8498438633978366851806640625">
        <ele>980.79998779296875</ele>
        <time>2026-08-21T14:19:55.000Z</time>
        <extensions>
          <ns3:TrackPointExtension>
            <ns3:hr>126</ns3:hr>
            <ns3:cad>70</ns3:cad>
          </ns3:TrackPointExtension>
        </extensions>
      </trkpt>
      <trkpt lat="45.2966632135212421417236328125" lon="-70.8498475514352321624755859375">
        <ele>980.79998779296875</ele>
        <time>2026-08-21T14:19:56.000Z</time>
        <extensions>
          <ns3:TrackPointExtension>
            <ns3:hr>125</ns3:hr>
            <ns3:cad>0</ns3:cad>
          </ns3:TrackPointExtension>
        </extensions>
      </trkpt>
      <trkpt lat="45.296662710607051849365234375" lon="-70.849854089319705963134765625">
        <ele>981</ele>
        <time>2026-08-21T14:19:57.000Z</time>
        <extensions>
          <ns3:TrackPointExtension>
            <ns3:hr>126</ns3:hr>
            <ns3:cad>0</ns3:cad>
          </ns3:TrackPointExtension>
        </extensions>
      </trkpt>
      <trkpt lat="45.29666229151189327239990234375" lon="-70.84985501132905483245849609375">
        <ele>981</ele>
        <time>2026-08-21T14:19:58.000Z</time>
        <extensions>
          <ns3:TrackPointExtension>
            <ns3:hr>126</ns3:hr>
            <ns3:cad>0</ns3:cad>
          </ns3:TrackPointExtension>
        </extensions>
      </trkpt>
      <trkpt lat="45.29666145332157611846923828125" lon="-70.8498559333384037017822265625">
        <ele>981</ele>
        <time>2026-08-21T14:19:59.000Z</time>
        <extensions>
          <ns3:TrackPointExtension>
            <ns3:hr>126</ns3:hr>
            <ns3:cad>0</ns3:cad>
          </ns3:TrackPointExtension>
        </extensions>
      </trkpt>
      <trkpt lat="45.29666346497833728790283203125" lon="-70.849872529506683349609375">
        <ele>980.79998779296875</ele>
        <time>2026-08-21T14:20:00.000Z</time>
        <extensions>
          <ns3:TrackPointExtension>
            <ns3:hr>125</ns3:hr>
            <ns3:cad>0</ns3:cad>
          </ns3:TrackPointExtension>
        </extensions>
      </trkpt>
      <trkpt lat="45.2966655604541301727294921875" lon="-70.84989239461719989776611328125">
        <ele>980.79998779296875</ele>
        <time>2026-08-21T14:20:01.000Z</time>
        <extensions>
          <ns3:TrackPointExtension>
            <ns3:hr>125</ns3:hr>
            <ns3:cad>0</ns3:cad>
          </ns3:TrackPointExtension>
        </extensions>
      </trkpt>
      <trkpt lat="45.29666832648217678070068359375" lon="-70.84991401992738246917724609375">
        <ele>980.79998779296875</ele>
        <time>2026-08-21T14:20:02.000Z</time>
        <extensions>
          <ns3:TrackPointExtension>
            <ns3:hr>125</ns3:hr>
            <ns3:cad>0</ns3:cad>
          </ns3:TrackPointExtension>
        </extensions>
      </trkpt>
      <trkpt lat="45.2966715954244136810302734375" lon="-70.849932543933391571044921875">
        <ele>980.5999755859375</ele>
        <time>2026-08-21T14:20:03.000Z</time>
        <extensions>
          <ns3:TrackPointExtension>
            <ns3:hr>124</ns3:hr>
            <ns3:cad>0</ns3:cad>
          </ns3:TrackPointExtension>
        </extensions>
      </trkpt>
      <trkpt lat="45.29667687602341175079345703125" lon="-70.84994486533105373382568359375">
        <ele>980.5999755859375</ele>
        <time>2026-08-21T14:20:04.000Z</time>
        <extensions>
          <ns3:TrackPointExtension>
            <ns3:hr>124</ns3:hr>
            <ns3:cad>0</ns3:cad>
          </ns3:TrackPointExtension>
        </extensions>
      </trkpt>
      <trkpt lat="45.29668374918401241302490234375" lon="-70.84996649064123630523681640625">
        <ele>980.79998779296875</ele>
        <time>2026-08-21T14:20:05.000Z</time>
        <extensions>
          <ns3:TrackPointExtension>
            <ns3:hr>124</ns3:hr>
            <ns3:cad>57</ns3:cad>
          </ns3:TrackPointExtension>
        </extensions>
      </trkpt>
      <trkpt lat="45.2966883592307567596435546875" lon="-70.84998451173305511474609375">
        <ele>980.79998779296875</ele>
        <time>2026-08-21T14:20:06.000Z</time>
        <extensions>
          <ns3:TrackPointExtension>
            <ns3:hr>123</ns3:hr>
            <ns3:cad>57</ns3:cad>
          </ns3:TrackPointExtension>
        </extensions>
      </trkpt>
      <trkpt lat="45.296694897115230560302734375" lon="-70.8500027842819690704345703125">
        <ele>981</ele>
        <time>2026-08-21T14:20:07.000Z</time>
        <extensions>
          <ns3:TrackPointExtension>
            <ns3:hr>123</ns3:hr>
            <ns3:cad>57</ns3:cad>
          </ns3:TrackPointExtension>
        </extensions>
      </trkpt>
      <trkpt lat="45.29670185409486293792724609375" lon="-70.8500187098979949951171875">
        <ele>981</ele>
        <time>2026-08-21T14:20:08.000Z</time>
        <extensions>
          <ns3:TrackPointExtension>
            <ns3:hr>123</ns3:hr>
            <ns3:cad>52</ns3:cad>
          </ns3:TrackPointExtension>
        </extensions>
      </trkpt>
      <trkpt lat="45.29670688323676586151123046875" lon="-70.8500336296856403350830078125">
        <ele>981</ele>
        <time>2026-08-21T14:20:09.000Z</time>
        <extensions>
          <ns3:TrackPointExtension>
            <ns3:hr>124</ns3:hr>
            <ns3:cad>52</ns3:cad>
          </ns3:TrackPointExtension>
        </extensions>
      </trkpt>
      <trkpt lat="45.29671358875930309295654296875" lon="-70.8500513993203639984130859375">
        <ele>981</ele>
        <time>2026-08-21T14:20:10.000Z</time>
        <extensions>
          <ns3:TrackPointExtension>
            <ns3:hr>124</ns3:hr>
            <ns3:cad>53</ns3:cad>
          </ns3:TrackPointExtension>
        </extensions>
      </trkpt>
      <trkpt lat="45.29672113247215747833251953125" lon="-70.8500688336789608001708984375">
        <ele>981</ele>
        <time>2026-08-21T14:20:11.000Z</time>
        <extensions>
          <ns3:TrackPointExtension>
            <ns3:hr>124</ns3:hr>
            <ns3:cad>53</ns3:cad>
          </ns3:TrackPointExtension>
        </extensions>
      </trkpt>
      <trkpt lat="45.29672808945178985595703125" lon="-70.85008442401885986328125">
        <ele>981</ele>
        <time>2026-08-21T14:20:12.000Z</time>
        <extensions>
          <ns3:TrackPointExtension>
            <ns3:hr>124</ns3:hr>
            <ns3:cad>53</ns3:cad>
          </ns3:TrackPointExtension>
        </extensions>
      </trkpt>
      <trkpt lat="45.29673739336431026458740234375" lon="-70.85009456612169742584228515625">
        <ele>981.20001220703125</ele>
        <time>2026-08-21T14:20:13.000Z</time>
        <extensions>
          <ns3:TrackPointExtension>
            <ns3:hr>124</ns3:hr>
            <ns3:cad>52</ns3:cad>
          </ns3:TrackPointExtension>
        </extensions>
      </trkpt>
      <trkpt lat="45.29674552381038665771484375" lon="-70.8501053787767887115478515625">
        <ele>981.20001220703125</ele>
        <time>2026-08-21T14:20:14.000Z</time>
        <extensions>
          <ns3:TrackPointExtension>
            <ns3:hr>123</ns3:hr>
            <ns3:cad>52</ns3:cad>
          </ns3:TrackPointExtension>
        </extensions>
      </trkpt>
      <trkpt lat="45.2967534027993679046630859375" lon="-70.8501167781651020050048828125">
        <ele>981.20001220703125</ele>
        <time>2026-08-21T14:20:15.000Z</time>
        <extensions>
          <ns3:TrackPointExtension>
            <ns3:hr>124</ns3:hr>
            <ns3:cad>53</ns3:cad>
          </ns3:TrackPointExtension>
        </extensions>
      </trkpt>
      <trkpt lat="45.29676086269319057464599609375" lon="-70.85012792609632015228271484375">
        <ele>981.4000244140625</ele>
        <time>2026-08-21T14:20:16.000Z</time>
        <extensions>
          <ns3:TrackPointExtension>
            <ns3:hr>124</ns3:hr>
            <ns3:cad>53</ns3:cad>
          </ns3:TrackPointExtension>
        </extensions>
      </trkpt>
      <trkpt lat="45.2967678196728229522705078125" lon="-70.85013966076076030731201171875">
        <ele>981.5999755859375</ele>
        <time>2026-08-21T14:20:17.000Z</time>
        <extensions>
          <ns3:TrackPointExtension>
            <ns3:hr>124</ns3:hr>
            <ns3:cad>54</ns3:cad>
          </ns3:TrackPointExtension>
        </extensions>
      </trkpt>
      <trkpt lat="45.2967765368521213531494140625" lon="-70.85015256889164447784423828125">
        <ele>981.79998779296875</ele>
        <time>2026-08-21T14:20:18.000Z</time>
        <extensions>
          <ns3:TrackPointExtension>
            <ns3:hr>124</ns3:hr>
            <ns3:cad>54</ns3:cad>
          </ns3:TrackPointExtension>
        </extensions>
      </trkpt>
      <trkpt lat="45.2967832423746585845947265625" lon="-70.85016178898513317108154296875">
        <ele>981.79998779296875</ele>
        <time>2026-08-21T14:20:19.000Z</time>
        <extensions>
          <ns3:TrackPointExtension>
            <ns3:hr>124</ns3:hr>
            <ns3:cad>53</ns3:cad>
          </ns3:TrackPointExtension>
        </extensions>
      </trkpt>
      <trkpt lat="45.2967904508113861083984375" lon="-70.8501689136028289794921875">
        <ele>982</ele>
        <time>2026-08-21T14:20:20.000Z</time>
        <extensions>
          <ns3:TrackPointExtension>
            <ns3:hr>124</ns3:hr>
            <ns3:cad>52</ns3:cad>
          </ns3:TrackPointExtension>
        </extensions>
      </trkpt>
      <trkpt lat="45.29679648578166961669921875" lon="-70.85017385892570018768310546875">
        <ele>982</ele>
        <time>2026-08-21T14:20:21.000Z</time>
        <extensions>
          <ns3:TrackPointExtension>
            <ns3:hr>124</ns3:hr>
            <ns3:cad>52</ns3:cad>
          </ns3:TrackPointExtension>
        </extensions>
      </trkpt>
      <trkpt lat="45.29680679552257061004638671875" lon="-70.850184671580791473388671875">
        <ele>982.20001220703125</ele>
        <time>2026-08-21T14:20:22.000Z</time>
        <extensions>
          <ns3:TrackPointExtension>
            <ns3:hr>124</ns3:hr>
            <ns3:cad>48</ns3:cad>
          </ns3:TrackPointExtension>
        </extensions>
      </trkpt>
      <trkpt lat="45.2968150936067104339599609375" lon="-70.850198082625865936279296875">
        <ele>982.20001220703125</ele>
        <time>2026-08-21T14:20:23.000Z</time>
        <extensions>
          <ns3:TrackPointExtension>
            <ns3:hr>124</ns3:hr>
            <ns3:cad>48</ns3:cad>
          </ns3:TrackPointExtension>
        </extensions>
      </trkpt>
      <trkpt lat="45.296821631491184234619140625" lon="-70.85020520724356174468994140625">
        <ele>982.4000244140625</ele>
        <time>2026-08-21T14:20:24.000Z</time>
        <extensions>
          <ns3:TrackPointExtension>
            <ns3:hr>125</ns3:hr>
            <ns3:cad>47</ns3:cad>
          </ns3:TrackPointExtension>
        </extensions>
      </trkpt>
      <trkpt lat="45.2968288399279117584228515625" lon="-70.85021275095641613006591796875">
        <ele>982.4000244140625</ele>
        <time>2026-08-21T14:20:25.000Z</time>
        <extensions>
          <ns3:TrackPointExtension>
            <ns3:hr>125</ns3:hr>
            <ns3:cad>47</ns3:cad>
          </ns3:TrackPointExtension>
        </extensions>
      </trkpt>
      <trkpt lat="45.29683546163141727447509765625" lon="-70.8502210490405559539794921875">
        <ele>982.5999755859375</ele>
        <time>2026-08-21T14:20:26.000Z</time>
        <extensions>
          <ns3:TrackPointExtension>
            <ns3:hr>126</ns3:hr>
            <ns3:cad>47</ns3:cad>
          </ns3:TrackPointExtension>
        </extensions>
      </trkpt>
      <trkpt lat="45.296839736402034759521484375" lon="-70.85022850893437862396240234375">
        <ele>982.5999755859375</ele>
        <time>2026-08-21T14:20:27.000Z</time>
        <extensions>
          <ns3:TrackPointExtension>
            <ns3:hr>126</ns3:hr>
            <ns3:cad>48</ns3:cad>
          </ns3:TrackPointExtension>
        </extensions>
      </trkpt>
      <trkpt lat="45.2968472801148891448974609375" lon="-70.85023504681885242462158203125">
        <ele>982.79998779296875</ele>
        <time>2026-08-21T14:20:28.000Z</time>
        <extensions>
          <ns3:TrackPointExtension>
            <ns3:hr>126</ns3:hr>
            <ns3:cad>48</ns3:cad>
          </ns3:TrackPointExtension>
        </extensions>
      </trkpt>
      <trkpt lat="45.29685289599001407623291015625" lon="-70.8502399921417236328125">
        <ele>982.79998779296875</ele>
        <time>2026-08-21T14:20:29.000Z</time>
        <extensions>
          <ns3:TrackPointExtension>
            <ns3:hr>127</ns3:hr>
            <ns3:cad>41</ns3:cad>
          </ns3:TrackPointExtension>
        </extensions>
      </trkpt>
      <trkpt lat="45.2968563325703144073486328125" lon="-70.8502451889216899871826171875">
        <ele>983</ele>
        <time>2026-08-21T14:20:30.000Z</time>
        <extensions>
          <ns3:TrackPointExtension>
            <ns3:hr>127</ns3:hr>
            <ns3:cad>41</ns3:cad>
          </ns3:TrackPointExtension>
        </extensions>
      </trkpt>
      <trkpt lat="45.296863205730915069580078125" lon="-70.85025214590132236480712890625">
        <ele>983</ele>
        <time>2026-08-21T14:20:31.000Z</time>
        <extensions>
          <ns3:TrackPointExtension>
            <ns3:hr>127</ns3:hr>
            <ns3:cad>41</ns3:cad>
          </ns3:TrackPointExtension>
        </extensions>
      </trkpt>
      <trkpt lat="45.29687225818634033203125" lon="-70.85026136599481105804443359375">
        <ele>983.20001220703125</ele>
        <time>2026-08-21T14:20:32.000Z</time>
        <extensions>
          <ns3:TrackPointExtension>
            <ns3:hr>127</ns3:hr>
            <ns3:cad>41</ns3:cad>
          </ns3:TrackPointExtension>
        </extensions>
      </trkpt>
      <trkpt lat="45.29688122682273387908935546875" lon="-70.85026723332703113555908203125">
        <ele>983.4000244140625</ele>
        <time>2026-08-21T14:20:33.000Z</time>
        <extensions>
          <ns3:TrackPointExtension>
            <ns3:hr>128</ns3:hr>
            <ns3:cad>41</ns3:cad>
          </ns3:TrackPointExtension>
        </extensions>
      </trkpt>
      <trkpt lat="45.296889357268810272216796875" lon="-70.85027041845023632049560546875">
        <ele>983.4000244140625</ele>
        <time>2026-08-21T14:20:34.000Z</time>
        <extensions>
          <ns3:TrackPointExtension>
            <ns3:hr>128</ns3:hr>
            <ns3:cad>41</ns3:cad>
          </ns3:TrackPointExtension>
        </extensions>
      </trkpt>
      <trkpt lat="45.29689832590520381927490234375" lon="-70.8502733521163463592529296875">
        <ele>983.5999755859375</ele>
        <time>2026-08-21T14:20:35.000Z</time>
        <extensions>
          <ns3:TrackPointExtension>
            <ns3:hr>128</ns3:hr>
            <ns3:cad>41</ns3:cad>
          </ns3:TrackPointExtension>
        </extensions>
      </trkpt>
      <trkpt lat="45.2969036065042018890380859375" lon="-70.8502770401537418365478515625">
        <ele>983.5999755859375</ele>
        <time>2026-08-21T14:20:36.000Z</time>
        <extensions>
          <ns3:TrackPointExtension>
            <ns3:hr>128</ns3:hr>
            <ns3:cad>41</ns3:cad>
          </ns3:TrackPointExtension>
        </extensions>
      </trkpt>
      <trkpt lat="45.2969086356461048126220703125" lon="-70.85028081201016902923583984375">
        <ele>983.79998779296875</ele>
        <time>2026-08-21T14:20:37.000Z</time>
        <extensions>
          <ns3:TrackPointExtension>
            <ns3:hr>129</ns3:hr>
            <ns3:cad>41</ns3:cad>
          </ns3:TrackPointExtension>
        </extensions>
      </trkpt>
      <trkpt lat="45.29691140167415142059326171875" lon="-70.850282572209835052490234375">
        <ele>983.79998779296875</ele>
        <time>2026-08-21T14:20:38.000Z</time>
        <extensions>
          <ns3:TrackPointExtension>
            <ns3:hr>129</ns3:hr>
            <ns3:cad>41</ns3:cad>
          </ns3:TrackPointExtension>
        </extensions>
      </trkpt>
      <trkpt lat="45.2969166822731494903564453125" lon="-70.85028751753270626068115234375">
        <ele>984</ele>
        <time>2026-08-21T14:20:39.000Z</time>
        <extensions>
          <ns3:TrackPointExtension>
            <ns3:hr>129</ns3:hr>
            <ns3:cad>0</ns3:cad>
          </ns3:TrackPointExtension>
        </extensions>
      </trkpt>
      <trkpt lat="45.296919532120227813720703125" lon="-70.850293636322021484375">
        <ele>984</ele>
        <time>2026-08-21T14:20:40.000Z</time>
        <extensions>
          <ns3:TrackPointExtension>
            <ns3:hr>130</ns3:hr>
            <ns3:cad>0</ns3:cad>
          </ns3:TrackPointExtension>
        </extensions>
      </trkpt>
      <trkpt lat="45.29692565090954303741455078125" lon="-70.85029338486492633819580078125">
        <ele>984.20001220703125</ele>
        <time>2026-08-21T14:20:41.000Z</time>
        <extensions>
          <ns3:TrackPointExtension>
            <ns3:hr>129</ns3:hr>
            <ns3:cad>0</ns3:cad>
          </ns3:TrackPointExtension>
        </extensions>
      </trkpt>
      <trkpt lat="45.2969314344227313995361328125" lon="-70.85029589943587779998779296875">
        <ele>984.20001220703125</ele>
        <time>2026-08-21T14:20:42.000Z</time>
        <extensions>
          <ns3:TrackPointExtension>
            <ns3:hr>129</ns3:hr>
            <ns3:cad>0</ns3:cad>
          </ns3:TrackPointExtension>
        </extensions>
      </trkpt>
      <trkpt lat="45.29693663120269775390625" lon="-70.85029975511133670806884765625">
        <ele>984.4000244140625</ele>
        <time>2026-08-21T14:20:43.000Z</time>
        <extensions>
          <ns3:TrackPointExtension>
            <ns3:hr>128</ns3:hr>
            <ns3:cad>75</ns3:cad>
          </ns3:TrackPointExtension>
        </extensions>
      </trkpt>
      <trkpt lat="45.29694727621972560882568359375" lon="-70.85030595771968364715576171875">
        <ele>984.5999755859375</ele>
        <time>2026-08-21T14:20:44.000Z</time>
        <extensions>
          <ns3:TrackPointExtension>
            <ns3:hr>128</ns3:hr>
            <ns3:cad>75</ns3:cad>
          </ns3:TrackPointExtension>
        </extensions>
      </trkpt>
      <trkpt lat="45.29695347882807254791259765625" lon="-70.85030796937644481658935546875">
        <ele>984.79998779296875</ele>
        <time>2026-08-21T14:20:45.000Z</time>
        <extensions>
          <ns3:TrackPointExtension>
            <ns3:hr>127</ns3:hr>
            <ns3:cad>75</ns3:cad>
          </ns3:TrackPointExtension>
        </extensions>
      </trkpt>
      <trkpt lat="45.29696336947381496429443359375" lon="-70.850312747061252593994140625">
        <ele>985</ele>
        <time>2026-08-21T14:20:46.000Z</time>
        <extensions>
          <ns3:TrackPointExtension>
            <ns3:hr>127</ns3:hr>
            <ns3:cad>74</ns3:cad>
          </ns3:TrackPointExtension>
        </extensions>
      </trkpt>
      <trkpt lat="45.29697082936763763427734375" lon="-70.85031635127961635589599609375">
        <ele>985.20001220703125</ele>
        <time>2026-08-21T14:20:47.000Z</time>
        <extensions>
          <ns3:TrackPointExtension>
            <ns3:hr>128</ns3:hr>
            <ns3:cad>74</ns3:cad>
          </ns3:TrackPointExtension>
        </extensions>
      </trkpt>
      <trkpt lat="45.2969787083566188812255859375" lon="-70.85031953640282154083251953125">
        <ele>985.4000244140625</ele>
        <time>2026-08-21T14:20:48.000Z</time>
        <extensions>
          <ns3:TrackPointExtension>
            <ns3:hr>128</ns3:hr>
            <ns3:cad>45</ns3:cad>
          </ns3:TrackPointExtension>
        </extensions>
      </trkpt>
      <trkpt lat="45.29698885045945644378662109375" lon="-70.85032205097377300262451171875">
        <ele>985.4000244140625</ele>
        <time>2026-08-21T14:20:49.000Z</time>
        <extensions>
          <ns3:TrackPointExtension>
            <ns3:hr>128</ns3:hr>
            <ns3:cad>46</ns3:cad>
          </ns3:TrackPointExtension>
        </extensions>
      </trkpt>
      <trkpt lat="45.29699756763875484466552734375" lon="-70.850325487554073333740234375">
        <ele>985.5999755859375</ele>
        <time>2026-08-21T14:20:50.000Z</time>
        <extensions>
          <ns3:TrackPointExtension>
            <ns3:hr>128</ns3:hr>
            <ns3:cad>46</ns3:cad>
          </ns3:TrackPointExtension>
        </extensions>
      </trkpt>
      <trkpt lat="45.29700444079935550689697265625" lon="-70.85032917559146881103515625">
        <ele>985.79998779296875</ele>
        <time>2026-08-21T14:20:51.000Z</time>
        <extensions>
          <ns3:TrackPointExtension>
            <ns3:hr>129</ns3:hr>
            <ns3:cad>47</ns3:cad>
          </ns3:TrackPointExtension>
        </extensions>
      </trkpt>
      <trkpt lat="45.2970098890364170074462890625" lon="-70.8503300137817859649658203125">
        <ele>986</ele>
        <time>2026-08-21T14:20:52.000Z</time>
        <extensions>
          <ns3:TrackPointExtension>
            <ns3:hr>129</ns3:hr>
            <ns3:cad>47</ns3:cad>
          </ns3:TrackPointExtension>
        </extensions>
      </trkpt>
      <trkpt lat="45.2970152534544467926025390625" lon="-70.85033194161951541900634765625">
        <ele>986.20001220703125</ele>
        <time>2026-08-21T14:20:53.000Z</time>
        <extensions>
          <ns3:TrackPointExtension>
            <ns3:hr>130</ns3:hr>
            <ns3:cad>47</ns3:cad>
          </ns3:TrackPointExtension>
        </extensions>
      </trkpt>
      <trkpt lat="45.29701952822506427764892578125" lon="-70.85033110342919826507568359375">
        <ele>986.20001220703125</ele>
        <time>2026-08-21T14:20:54.000Z</time>
        <extensions>
          <ns3:TrackPointExtension>
            <ns3:hr>131</ns3:hr>
            <ns3:cad>47</ns3:cad>
          </ns3:TrackPointExtension>
        </extensions>
      </trkpt>
      <trkpt lat="45.29702874831855297088623046875" lon="-70.8503326959908008575439453125">
        <ele>986.4000244140625</ele>
        <time>2026-08-21T14:20:55.000Z</time>
        <extensions>
          <ns3:TrackPointExtension>
            <ns3:hr>131</ns3:hr>
            <ns3:cad>45</ns3:cad>
          </ns3:TrackPointExtension>
        </extensions>
      </trkpt>
      <trkpt lat="45.2970333583652973175048828125" lon="-70.85033412091434001922607421875">
        <ele>986.5999755859375</ele>
        <time>2026-08-21T14:20:56.000Z</time>
        <extensions>
          <ns3:TrackPointExtension>
            <ns3:hr>132</ns3:hr>
            <ns3:cad>42</ns3:cad>
          </ns3:TrackPointExtension>
        </extensions>
      </trkpt>
      <trkpt lat="45.29703930951654911041259765625" lon="-70.850334875285625457763671875">
        <ele>986.5999755859375</ele>
        <time>2026-08-21T14:20:57.000Z</time>
        <extensions>
          <ns3:TrackPointExtension>
            <ns3:hr>133</ns3:hr>
            <ns3:cad>42</ns3:cad>
          </ns3:TrackPointExtension>
        </extensions>
      </trkpt>
      <trkpt lat="45.29704199172556400299072265625" lon="-70.85033294744789600372314453125">
        <ele>986.79998779296875</ele>
        <time>2026-08-21T14:20:58.000Z</time>
        <extensions>
          <ns3:TrackPointExtension>
            <ns3:hr>134</ns3:hr>
            <ns3:cad>40</ns3:cad>
          </ns3:TrackPointExtension>
        </extensions>
      </trkpt>
      <trkpt lat="45.29705087654292583465576171875" lon="-70.85033730603754520416259765625">
        <ele>987</ele>
        <time>2026-08-21T14:20:59.000Z</time>
        <extensions>
          <ns3:TrackPointExtension>
            <ns3:hr>134</ns3:hr>
            <ns3:cad>40</ns3:cad>
          </ns3:TrackPointExtension>
        </extensions>
      </trkpt>
      <trkpt lat="45.29706059955060482025146484375" lon="-70.850342251360416412353515625">
        <ele>987.20001220703125</ele>
        <time>2026-08-21T14:21:00.000Z</time>
        <extensions>
          <ns3:TrackPointExtension>
            <ns3:hr>135</ns3:hr>
            <ns3:cad>40</ns3:cad>
          </ns3:TrackPointExtension>
        </extensions>
      </trkpt>
      <trkpt lat="45.29706931672990322113037109375" lon="-70.8503447659313678741455078125">
        <ele>987.4000244140625</ele>
        <time>2026-08-21T14:21:01.000Z</time>
        <extensions>
          <ns3:TrackPointExtension>
            <ns3:hr>136</ns3:hr>
            <ns3:cad>41</ns3:cad>
          </ns3:TrackPointExtension>
        </extensions>
      </trkpt>
      <trkpt lat="45.29708004556596279144287109375" lon="-70.85034837014973163604736328125">
        <ele>987.5999755859375</ele>
        <time>2026-08-21T14:21:02.000Z</time>
        <extensions>
          <ns3:TrackPointExtension>
            <ns3:hr>136</ns3:hr>
            <ns3:cad>41</ns3:cad>
          </ns3:TrackPointExtension>
        </extensions>
      </trkpt>
      <trkpt lat="45.29708608053624629974365234375" lon="-70.850351639091968536376953125">
        <ele>987.79998779296875</ele>
        <time>2026-08-21T14:21:03.000Z</time>
        <extensions>
          <ns3:TrackPointExtension>
            <ns3:hr>136</ns3:hr>
            <ns3:cad>47</ns3:cad>
          </ns3:TrackPointExtension>
        </extensions>
      </trkpt>
      <trkpt lat="45.2970984019339084625244140625" lon="-70.85035624913871288299560546875">
        <ele>988</ele>
        <time>2026-08-21T14:21:04.000Z</time>
        <extensions>
          <ns3:TrackPointExtension>
            <ns3:hr>136</ns3:hr>
            <ns3:cad>47</ns3:cad>
          </ns3:TrackPointExtension>
        </extensions>
      </trkpt>
      <trkpt lat="45.2971071191132068634033203125" lon="-70.85035893134772777557373046875">
        <ele>988.20001220703125</ele>
        <time>2026-08-21T14:21:05.000Z</time>
        <extensions>
          <ns3:TrackPointExtension>
            <ns3:hr>137</ns3:hr>
            <ns3:cad>47</ns3:cad>
          </ns3:TrackPointExtension>
        </extensions>
      </trkpt>
      <trkpt lat="45.29711910523474216461181640625" lon="-70.8503662236034870147705078125">
        <ele>988.4000244140625</ele>
        <time>2026-08-21T14:21:06.000Z</time>
        <extensions>
          <ns3:TrackPointExtension>
            <ns3:hr>138</ns3:hr>
            <ns3:cad>47</ns3:cad>
          </ns3:TrackPointExtension>
        </extensions>
      </trkpt>
      <trkpt lat="45.2971309237182140350341796875" lon="-70.8503732644021511077880859375">
        <ele>988.5999755859375</ele>
        <time>2026-08-21T14:21:07.000Z</time>
        <extensions>
          <ns3:TrackPointExtension>
            <ns3:hr>138</ns3:hr>
            <ns3:cad>47</ns3:cad>
          </ns3:TrackPointExtension>
        </extensions>
      </trkpt>
      <trkpt lat="45.2971393056213855743408203125" lon="-70.85037745535373687744140625">
        <ele>988.79998779296875</ele>
        <time>2026-08-21T14:21:08.000Z</time>
        <extensions>
          <ns3:TrackPointExtension>
            <ns3:hr>138</ns3:hr>
            <ns3:cad>44</ns3:cad>
          </ns3:TrackPointExtension>
        </extensions>
      </trkpt>
      <trkpt lat="45.297149531543254852294921875" lon="-70.85038550198078155517578125">
        <ele>989</ele>
        <time>2026-08-21T14:21:09.000Z</time>
        <extensions>
          <ns3:TrackPointExtension>
            <ns3:hr>139</ns3:hr>
            <ns3:cad>44</ns3:cad>
          </ns3:TrackPointExtension>
        </extensions>
      </trkpt>
      <trkpt lat="45.29715615324676036834716796875" lon="-70.8503947220742702484130859375">
        <ele>989.4000244140625</ele>
        <time>2026-08-21T14:21:10.000Z</time>
        <extensions>
          <ns3:TrackPointExtension>
            <ns3:hr>139</ns3:hr>
            <ns3:cad>41</ns3:cad>
          </ns3:TrackPointExtension>
        </extensions>
      </trkpt>
      <trkpt lat="45.29716034419834613800048828125" lon="-70.85040519945323467254638671875">
        <ele>989.5999755859375</ele>
        <time>2026-08-21T14:21:11.000Z</time>
        <extensions>
          <ns3:TrackPointExtension>
            <ns3:hr>140</ns3:hr>
            <ns3:cad>41</ns3:cad>
          </ns3:TrackPointExtension>
        </extensions>
      </trkpt>
      <trkpt lat="45.297164283692836761474609375" lon="-70.85042179562151432037353515625">
        <ele>989.5999755859375</ele>
        <time>2026-08-21T14:21:12.000Z</time>
        <extensions>
          <ns3:TrackPointExtension>
            <ns3:hr>140</ns3:hr>
            <ns3:cad>41</ns3:cad>
          </ns3:TrackPointExtension>
        </extensions>
      </trkpt>
      <trkpt lat="45.29716755263507366180419921875" lon="-70.85042917169630527496337890625">
        <ele>989.79998779296875</ele>
        <time>2026-08-21T14:21:13.000Z</time>
        <extensions>
          <ns3:TrackPointExtension>
            <ns3:hr>140</ns3:hr>
            <ns3:cad>44</ns3:cad>
          </ns3:TrackPointExtension>
        </extensions>
      </trkpt>
      <trkpt lat="45.29717199504375457763671875" lon="-70.8504379726946353912353515625">
        <ele>990</ele>
        <time>2026-08-21T14:21:14.000Z</time>
        <extensions>
          <ns3:TrackPointExtension>
            <ns3:hr>140</ns3:hr>
            <ns3:cad>44</ns3:cad>
          </ns3:TrackPointExtension>
        </extensions>
      </trkpt>
      <trkpt lat="45.29717543162405490875244140625" lon="-70.8504366315901279449462890625">
        <ele>990</ele>
        <time>2026-08-21T14:21:15.000Z</time>
        <extensions>
          <ns3:TrackPointExtension>
            <ns3:hr>140</ns3:hr>
            <ns3:cad>46</ns3:cad>
          </ns3:TrackPointExtension>
        </extensions>
      </trkpt>
      <trkpt lat="45.29717911966145038604736328125" lon="-70.85043302737176418304443359375">
        <ele>990.20001220703125</ele>
        <time>2026-08-21T14:21:16.000Z</time>
        <extensions>
          <ns3:TrackPointExtension>
            <ns3:hr>140</ns3:hr>
            <ns3:cad>46</ns3:cad>
          </ns3:TrackPointExtension>
        </extensions>
      </trkpt>
      <trkpt lat="45.297185070812702178955078125" lon="-70.85042749531567096710205078125">
        <ele>990.4000244140625</ele>
        <time>2026-08-21T14:21:17.000Z</time>
        <extensions>
          <ns3:TrackPointExtension>
            <ns3:hr>141</ns3:hr>
            <ns3:cad>46</ns3:cad>
          </ns3:TrackPointExtension>
        </extensions>
      </trkpt>
      <trkpt lat="45.29719051904976367950439453125" lon="-70.8504235558211803436279296875">
        <ele>990.5999755859375</ele>
        <time>2026-08-21T14:21:18.000Z</time>
        <extensions>
          <ns3:TrackPointExtension>
            <ns3:hr>141</ns3:hr>
            <ns3:cad>46</ns3:cad>
          </ns3:TrackPointExtension>
        </extensions>
      </trkpt>
      <trkpt lat="45.297202505171298980712890625" lon="-70.85042707622051239013671875">
        <ele>990.79998779296875</ele>
        <time>2026-08-21T14:21:19.000Z</time>
        <extensions>
          <ns3:TrackPointExtension>
            <ns3:hr>141</ns3:hr>
            <ns3:cad>46</ns3:cad>
          </ns3:TrackPointExtension>
        </extensions>
      </trkpt>
      <trkpt lat="45.2972113899886608123779296875" lon="-70.85043537430465221405029296875">
        <ele>991</ele>
        <time>2026-08-21T14:21:20.000Z</time>
        <extensions>
          <ns3:TrackPointExtension>
            <ns3:hr>141</ns3:hr>
            <ns3:cad>46</ns3:cad>
          </ns3:TrackPointExtension>
        </extensions>
      </trkpt>
      <trkpt lat="45.29722253791987895965576171875" lon="-70.8504383079707622528076171875">
        <ele>991</ele>
        <time>2026-08-21T14:21:21.000Z</time>
        <extensions>
          <ns3:TrackPointExtension>
            <ns3:hr>141</ns3:hr>
            <ns3:cad>46</ns3:cad>
          </ns3:TrackPointExtension>
        </extensions>
      </trkpt>
      <trkpt lat="45.2972388826310634613037109375" lon="-70.85044258274137973785400390625">
        <ele>991.20001220703125</ele>
        <time>2026-08-21T14:21:22.000Z</time>
        <extensions>
          <ns3:TrackPointExtension>
            <ns3:hr>141</ns3:hr>
            <ns3:cad>47</ns3:cad>
          </ns3:TrackPointExtension>
        </extensions>
      </trkpt>
      <trkpt lat="45.29725112020969390869140625" lon="-70.8504424989223480224609375">
        <ele>991.20001220703125</ele>
        <time>2026-08-21T14:21:23.000Z</time>
        <extensions>
          <ns3:TrackPointExtension>
            <ns3:hr>142</ns3:hr>
            <ns3:cad>47</ns3:cad>
          </ns3:TrackPointExtension>
        </extensions>
      </trkpt>
      <trkpt lat="45.29726461507380008697509765625" lon="-70.85043872706592082977294921875">
        <ele>991.4000244140625</ele>
        <time>2026-08-21T14:21:24.000Z</time>
        <extensions>
          <ns3:TrackPointExtension>
            <ns3:hr>142</ns3:hr>
            <ns3:cad>47</ns3:cad>
          </ns3:TrackPointExtension>
        </extensions>
      </trkpt>
      <trkpt lat="45.297272242605686187744140625" lon="-70.85043453611433506011962890625">
        <ele>991.79998779296875</ele>
        <time>2026-08-21T14:21:25.000Z</time>
        <extensions>
          <ns3:TrackPointExtension>
            <ns3:hr>142</ns3:hr>
            <ns3:cad>47</ns3:cad>
          </ns3:TrackPointExtension>
        </extensions>
      </trkpt>
      <trkpt lat="45.29728121124207973480224609375" lon="-70.85043151862919330596923828125">
        <ele>992</ele>
        <time>2026-08-21T14:21:26.000Z</time>
        <extensions>
          <ns3:TrackPointExtension>
            <ns3:hr>142</ns3:hr>
            <ns3:cad>47</ns3:cad>
          </ns3:TrackPointExtension>
        </extensions>
      </trkpt>
      <trkpt lat="45.297292359173297882080078125" lon="-70.8504295907914638519287109375">
        <ele>992.20001220703125</ele>
        <time>2026-08-21T14:21:27.000Z</time>
        <extensions>
          <ns3:TrackPointExtension>
            <ns3:hr>143</ns3:hr>
            <ns3:cad>47</ns3:cad>
          </ns3:TrackPointExtension>
        </extensions>
      </trkpt>
      <trkpt lat="45.29730032198131084442138671875" lon="-70.8504292555153369903564453125">
        <ele>992.4000244140625</ele>
        <time>2026-08-21T14:21:28.000Z</time>
        <extensions>
          <ns3:TrackPointExtension>
            <ns3:hr>144</ns3:hr>
            <ns3:cad>47</ns3:cad>
          </ns3:TrackPointExtension>
        </extensions>
      </trkpt>
      <trkpt lat="45.297309793531894683837890625" lon="-70.85043084807693958282470703125">
        <ele>992.5999755859375</ele>
        <time>2026-08-21T14:21:29.000Z</time>
        <extensions>
          <ns3:TrackPointExtension>
            <ns3:hr>146</ns3:hr>
            <ns3:cad>48</ns3:cad>
          </ns3:TrackPointExtension>
        </extensions>
      </trkpt>
      <trkpt lat="45.29732043854892253875732421875" lon="-70.85043705068528652191162109375">
        <ele>992.5999755859375</ele>
        <time>2026-08-21T14:21:30.000Z</time>
        <extensions>
          <ns3:TrackPointExtension>
            <ns3:hr>147</ns3:hr>
            <ns3:cad>48</ns3:cad>
          </ns3:TrackPointExtension>
        </extensions>
      </trkpt>
      <trkpt lat="45.2973317541182041168212890625" lon="-70.85043906234204769134521484375">
        <ele>992.79998779296875</ele>
        <time>2026-08-21T14:21:31.000Z</time>
        <extensions>
          <ns3:TrackPointExtension>
            <ns3:hr>147</ns3:hr>
            <ns3:cad>47</ns3:cad>
          </ns3:TrackPointExtension>
        </extensions>
      </trkpt>
      <trkpt lat="45.297341309487819671630859375" lon="-70.850440151989459991455078125">
        <ele>992.79998779296875</ele>
        <time>2026-08-21T14:21:32.000Z</time>
        <extensions>
          <ns3:TrackPointExtension>
            <ns3:hr>147</ns3:hr>
            <ns3:cad>48</ns3:cad>
          </ns3:TrackPointExtension>
        </extensions>
      </trkpt>
      <trkpt lat="45.29734860174357891082763671875" lon="-70.85044342093169689178466796875">
        <ele>993</ele>
        <time>2026-08-21T14:21:33.000Z</time>
        <extensions>
          <ns3:TrackPointExtension>
            <ns3:hr>146</ns3:hr>
            <ns3:cad>48</ns3:cad>
          </ns3:TrackPointExtension>
        </extensions>
      </trkpt>
      <trkpt lat="45.29735974967479705810546875" lon="-70.8504466898739337921142578125">
        <ele>993.20001220703125</ele>
        <time>2026-08-21T14:21:34.000Z</time>
        <extensions>
          <ns3:TrackPointExtension>
            <ns3:hr>145</ns3:hr>
            <ns3:cad>48</ns3:cad>
          </ns3:TrackPointExtension>
        </extensions>
      </trkpt>
      <trkpt lat="45.297368802130222320556640625" lon="-70.85044987499713897705078125">
        <ele>993.4000244140625</ele>
        <time>2026-08-21T14:21:35.000Z</time>
        <extensions>
          <ns3:TrackPointExtension>
            <ns3:hr>144</ns3:hr>
            <ns3:cad>48</ns3:cad>
          </ns3:TrackPointExtension>
        </extensions>
      </trkpt>
      <trkpt lat="45.2973760105669498443603515625" lon="-70.8504532277584075927734375">
        <ele>993.5999755859375</ele>
        <time>2026-08-21T14:21:36.000Z</time>
        <extensions>
          <ns3:TrackPointExtension>
            <ns3:hr>144</ns3:hr>
            <ns3:cad>47</ns3:cad>
          </ns3:TrackPointExtension>
        </extensions>
      </trkpt>
      <trkpt lat="45.2973864041268825531005859375" lon="-70.85045381449162960052490234375">
        <ele>993.79998779296875</ele>
        <time>2026-08-21T14:21:37.000Z</time>
        <extensions>
          <ns3:TrackPointExtension>
            <ns3:hr>145</ns3:hr>
            <ns3:cad>46</ns3:cad>
          </ns3:TrackPointExtension>
        </extensions>
      </trkpt>
      <trkpt lat="45.2973971329629421234130859375" lon="-70.85045414976775646209716796875">
        <ele>994.20001220703125</ele>
        <time>2026-08-21T14:21:38.000Z</time>
        <extensions>
          <ns3:TrackPointExtension>
            <ns3:hr>145</ns3:hr>
            <ns3:cad>46</ns3:cad>
          </ns3:TrackPointExtension>
        </extensions>
      </trkpt>
      <trkpt lat="45.29740274883806705474853515625" lon="-70.85045658051967620849609375">
        <ele>994.4000244140625</ele>
        <time>2026-08-21T14:21:39.000Z</time>
        <extensions>
          <ns3:TrackPointExtension>
            <ns3:hr>145</ns3:hr>
            <ns3:cad>44</ns3:cad>
          </ns3:TrackPointExtension>
        </extensions>
      </trkpt>
      <trkpt lat="45.29741263948380947113037109375" lon="-70.8504570834338665008544921875">
        <ele>994.4000244140625</ele>
        <time>2026-08-21T14:21:40.000Z</time>
        <extensions>
          <ns3:TrackPointExtension>
            <ns3:hr>146</ns3:hr>
            <ns3:cad>44</ns3:cad>
          </ns3:TrackPointExtension>
        </extensions>
      </trkpt>
      <trkpt lat="45.29742487706243991851806640625" lon="-70.85046269930899143218994140625">
        <ele>994.5999755859375</ele>
        <time>2026-08-21T14:21:41.000Z</time>
        <extensions>
          <ns3:TrackPointExtension>
            <ns3:hr>146</ns3:hr>
            <ns3:cad>44</ns3:cad>
          </ns3:TrackPointExtension>
        </extensions>
      </trkpt>
      <trkpt lat="45.29743426479399204254150390625" lon="-70.85046957246959209442138671875">
        <ele>994.5999755859375</ele>
        <time>2026-08-21T14:21:42.000Z</time>
        <extensions>
          <ns3:TrackPointExtension>
            <ns3:hr>146</ns3:hr>
            <ns3:cad>44</ns3:cad>
          </ns3:TrackPointExtension>
        </extensions>
      </trkpt>
      <trkpt lat="45.297441221773624420166015625" lon="-70.8504745177924633026123046875">
        <ele>994.5999755859375</ele>
        <time>2026-08-21T14:21:43.000Z</time>
        <extensions>
          <ns3:TrackPointExtension>
            <ns3:hr>146</ns3:hr>
            <ns3:cad>44</ns3:cad>
          </ns3:TrackPointExtension>
        </extensions>
      </trkpt>
      <trkpt lat="45.2974423952400684356689453125" lon="-70.8504818938672542572021484375">
        <ele>994.79998779296875</ele>
        <time>2026-08-21T14:21:44.000Z</time>
        <extensions>
          <ns3:TrackPointExtension>
            <ns3:hr>146</ns3:hr>
            <ns3:cad>44</ns3:cad>
          </ns3:TrackPointExtension>
        </extensions>
      </trkpt>
      <trkpt lat="45.29745337553322315216064453125" lon="-70.850489772856235504150390625">
        <ele>995</ele>
        <time>2026-08-21T14:21:45.000Z</time>
        <extensions>
          <ns3:TrackPointExtension>
            <ns3:hr>146</ns3:hr>
            <ns3:cad>44</ns3:cad>
          </ns3:TrackPointExtension>
        </extensions>
      </trkpt>
      <trkpt lat="45.29746276326477527618408203125" lon="-70.8504963107407093048095703125">
        <ele>995.20001220703125</ele>
        <time>2026-08-21T14:21:46.000Z</time>
        <extensions>
          <ns3:TrackPointExtension>
            <ns3:hr>147</ns3:hr>
            <ns3:cad>44</ns3:cad>
          </ns3:TrackPointExtension>
        </extensions>
      </trkpt>
      <trkpt lat="45.297473408281803131103515625" lon="-70.85050444118678569793701171875">
        <ele>995.4000244140625</ele>
        <time>2026-08-21T14:21:47.000Z</time>
        <extensions>
          <ns3:TrackPointExtension>
            <ns3:hr>147</ns3:hr>
            <ns3:cad>44</ns3:cad>
          </ns3:TrackPointExtension>
        </extensions>
      </trkpt>
      <trkpt lat="45.29748388566076755523681640625" lon="-70.85051215253770351409912109375">
        <ele>995.79998779296875</ele>
        <time>2026-08-21T14:21:48.000Z</time>
        <extensions>
          <ns3:TrackPointExtension>
            <ns3:hr>147</ns3:hr>
            <ns3:cad>50</ns3:cad>
          </ns3:TrackPointExtension>
        </extensions>
      </trkpt>
      <trkpt lat="45.2974946983158588409423828125" lon="-70.8505231328308582305908203125">
        <ele>995.79998779296875</ele>
        <time>2026-08-21T14:21:49.000Z</time>
        <extensions>
          <ns3:TrackPointExtension>
            <ns3:hr>146</ns3:hr>
            <ns3:cad>46</ns3:cad>
          </ns3:TrackPointExtension>
        </extensions>
      </trkpt>
      <trkpt lat="45.2975047565996646881103515625" lon="-70.8505318500101566314697265625">
        <ele>996</ele>
        <time>2026-08-21T14:21:50.000Z</time>
        <extensions>
          <ns3:TrackPointExtension>
            <ns3:hr>146</ns3:hr>
            <ns3:cad>46</ns3:cad>
          </ns3:TrackPointExtension>
        </extensions>
      </trkpt>
      <trkpt lat="45.29751263558864593505859375" lon="-70.85054048337042331695556640625">
        <ele>996.20001220703125</ele>
        <time>2026-08-21T14:21:51.000Z</time>
        <extensions>
          <ns3:TrackPointExtension>
            <ns3:hr>145</ns3:hr>
            <ns3:cad>49</ns3:cad>
          </ns3:TrackPointExtension>
        </extensions>
      </trkpt>
      <trkpt lat="45.297524370253086090087890625" lon="-70.8505509607493877410888671875">
        <ele>996.4000244140625</ele>
        <time>2026-08-21T14:21:52.000Z</time>
        <extensions>
          <ns3:TrackPointExtension>
            <ns3:hr>145</ns3:hr>
            <ns3:cad>49</ns3:cad>
          </ns3:TrackPointExtension>
        </extensions>
      </trkpt>
      <trkpt lat="45.29753266833722591400146484375" lon="-70.850557498633861541748046875">
        <ele>996.4000244140625</ele>
        <time>2026-08-21T14:21:53.000Z</time>
        <extensions>
          <ns3:TrackPointExtension>
            <ns3:hr>146</ns3:hr>
            <ns3:cad>50</ns3:cad>
          </ns3:TrackPointExtension>
        </extensions>
      </trkpt>
      <trkpt lat="45.29754272662103176116943359375" lon="-70.85056546144187450408935546875">
        <ele>996.5999755859375</ele>
        <time>2026-08-21T14:21:54.000Z</time>
        <extensions>
          <ns3:TrackPointExtension>
            <ns3:hr>146</ns3:hr>
            <ns3:cad>50</ns3:cad>
          </ns3:TrackPointExtension>
        </extensions>
      </trkpt>
      <trkpt lat="45.29755295254290103912353515625" lon="-70.85057216696441173553466796875">
        <ele>996.79998779296875</ele>
        <time>2026-08-21T14:21:55.000Z</time>
        <extensions>
          <ns3:TrackPointExtension>
            <ns3:hr>146</ns3:hr>
            <ns3:cad>50</ns3:cad>
          </ns3:TrackPointExtension>
        </extensions>
      </trkpt>
      <trkpt lat="45.2975624240934848785400390625" lon="-70.85057971067726612091064453125">
        <ele>997</ele>
        <time>2026-08-21T14:21:56.000Z</time>
        <extensions>
          <ns3:TrackPointExtension>
            <ns3:hr>146</ns3:hr>
            <ns3:cad>48</ns3:cad>
          </ns3:TrackPointExtension>
        </extensions>
      </trkpt>
      <trkpt lat="45.29757323674857616424560546875" lon="-70.85059027187526226043701171875">
        <ele>997.20001220703125</ele>
        <time>2026-08-21T14:21:57.000Z</time>
        <extensions>
          <ns3:TrackPointExtension>
            <ns3:hr>146</ns3:hr>
            <ns3:cad>48</ns3:cad>
          </ns3:TrackPointExtension>
        </extensions>
      </trkpt>
      <trkpt lat="45.29758396558463573455810546875" lon="-70.85059982724487781524658203125">
        <ele>997.20001220703125</ele>
        <time>2026-08-21T14:21:58.000Z</time>
        <extensions>
          <ns3:TrackPointExtension>
            <ns3:hr>147</ns3:hr>
            <ns3:cad>49</ns3:cad>
          </ns3:TrackPointExtension>
        </extensions>
      </trkpt>
      <trkpt lat="45.29759737662971019744873046875" lon="-70.85060770623385906219482421875">
        <ele>997.4000244140625</ele>
        <time>2026-08-21T14:21:59.000Z</time>
        <extensions>
          <ns3:TrackPointExtension>
            <ns3:hr>147</ns3:hr>
            <ns3:cad>49</ns3:cad>
          </ns3:TrackPointExtension>
        </extensions>
      </trkpt>
      <trkpt lat="45.2976076863706111907958984375" lon="-70.8506129868328571319580078125">
        <ele>997.4000244140625</ele>
        <time>2026-08-21T14:22:00.000Z</time>
        <extensions>
          <ns3:TrackPointExtension>
            <ns3:hr>148</ns3:hr>
            <ns3:cad>50</ns3:cad>
          </ns3:TrackPointExtension>
        </extensions>
      </trkpt>
      <trkpt lat="45.2976197563111782073974609375" lon="-70.850624553859233856201171875">
        <ele>997.5999755859375</ele>
        <time>2026-08-21T14:22:01.000Z</time>
        <extensions>
          <ns3:TrackPointExtension>
            <ns3:hr>148</ns3:hr>
            <ns3:cad>50</ns3:cad>
          </ns3:TrackPointExtension>
        </extensions>
      </trkpt>
      <trkpt lat="45.29762771911919116973876953125" lon="-70.85063117556273937225341796875">
        <ele>997.5999755859375</ele>
        <time>2026-08-21T14:22:02.000Z</time>
        <extensions>
          <ns3:TrackPointExtension>
            <ns3:hr>149</ns3:hr>
            <ns3:cad>50</ns3:cad>
          </ns3:TrackPointExtension>
        </extensions>
      </trkpt>
      <trkpt lat="45.297637023031711578369140625" lon="-70.85063754580914974212646484375">
        <ele>997.79998779296875</ele>
        <time>2026-08-21T14:22:03.000Z</time>
        <extensions>
          <ns3:TrackPointExtension>
            <ns3:hr>149</ns3:hr>
            <ns3:cad>48</ns3:cad>
          </ns3:TrackPointExtension>
        </extensions>
      </trkpt>
      <trkpt lat="45.29764582403004169464111328125" lon="-70.85064659826457500457763671875">
        <ele>997.79998779296875</ele>
        <time>2026-08-21T14:22:04.000Z</time>
        <extensions>
          <ns3:TrackPointExtension>
            <ns3:hr>148</ns3:hr>
            <ns3:cad>48</ns3:cad>
          </ns3:TrackPointExtension>
        </extensions>
      </trkpt>
      <trkpt lat="45.29765822924673557281494140625" lon="-70.850656740367412567138671875">
        <ele>998</ele>
        <time>2026-08-21T14:22:05.000Z</time>
        <extensions>
          <ns3:TrackPointExtension>
            <ns3:hr>148</ns3:hr>
            <ns3:cad>47</ns3:cad>
          </ns3:TrackPointExtension>
        </extensions>
      </trkpt>
      <trkpt lat="45.2976675331592559814453125" lon="-70.850662775337696075439453125">
        <ele>998.20001220703125</ele>
        <time>2026-08-21T14:22:06.000Z</time>
        <extensions>
          <ns3:TrackPointExtension>
            <ns3:hr>148</ns3:hr>
            <ns3:cad>47</ns3:cad>
          </ns3:TrackPointExtension>
        </extensions>
      </trkpt>
      <trkpt lat="45.2976780943572521209716796875" lon="-70.85067383944988250732421875">
        <ele>998.20001220703125</ele>
        <time>2026-08-21T14:22:07.000Z</time>
        <extensions>
          <ns3:TrackPointExtension>
            <ns3:hr>148</ns3:hr>
            <ns3:cad>47</ns3:cad>
          </ns3:TrackPointExtension>
        </extensions>
      </trkpt>
      <trkpt lat="45.29768287204205989837646484375" lon="-70.85068448446691036224365234375">
        <ele>998.4000244140625</ele>
        <time>2026-08-21T14:22:08.000Z</time>
        <extensions>
          <ns3:TrackPointExtension>
            <ns3:hr>149</ns3:hr>
            <ns3:cad>47</ns3:cad>
          </ns3:TrackPointExtension>
        </extensions>
      </trkpt>
      <trkpt lat="45.29769041575491428375244140625" lon="-70.85069353692233562469482421875">
        <ele>998.4000244140625</ele>
        <time>2026-08-21T14:22:09.000Z</time>
        <extensions>
          <ns3:TrackPointExtension>
            <ns3:hr>149</ns3:hr>
            <ns3:cad>47</ns3:cad>
          </ns3:TrackPointExtension>
        </extensions>
      </trkpt>
      <trkpt lat="45.2976995520293712615966796875" lon="-70.8507008291780948638916015625">
        <ele>998.4000244140625</ele>
        <time>2026-08-21T14:22:10.000Z</time>
        <extensions>
          <ns3:TrackPointExtension>
            <ns3:hr>149</ns3:hr>
            <ns3:cad>50</ns3:cad>
          </ns3:TrackPointExtension>
        </extensions>
      </trkpt>
      <trkpt lat="45.2977099455893039703369140625" lon="-70.850711725652217864990234375">
        <ele>998.4000244140625</ele>
        <time>2026-08-21T14:22:11.000Z</time>
        <extensions>
          <ns3:TrackPointExtension>
            <ns3:hr>148</ns3:hr>
            <ns3:cad>50</ns3:cad>
          </ns3:TrackPointExtension>
        </extensions>
      </trkpt>
      <trkpt lat="45.29771857894957065582275390625" lon="-70.85071851499378681182861328125">
        <ele>998.5999755859375</ele>
        <time>2026-08-21T14:22:12.000Z</time>
        <extensions>
          <ns3:TrackPointExtension>
            <ns3:hr>148</ns3:hr>
            <ns3:cad>51</ns3:cad>
          </ns3:TrackPointExtension>
        </extensions>
      </trkpt>
      <trkpt lat="45.2977290563285350799560546875" lon="-70.85072739981114864349365234375">
        <ele>998.5999755859375</ele>
        <time>2026-08-21T14:22:13.000Z</time>
        <extensions>
          <ns3:TrackPointExtension>
            <ns3:hr>148</ns3:hr>
            <ns3:cad>51</ns3:cad>
          </ns3:TrackPointExtension>
        </extensions>
      </trkpt>
      <trkpt lat="45.2977391146123409271240234375" lon="-70.85073393769562244415283203125">
        <ele>998.79998779296875</ele>
        <time>2026-08-21T14:22:14.000Z</time>
        <extensions>
          <ns3:TrackPointExtension>
            <ns3:hr>148</ns3:hr>
            <ns3:cad>52</ns3:cad>
          </ns3:TrackPointExtension>
        </extensions>
      </trkpt>
      <trkpt lat="45.2977555431425571441650390625" lon="-70.85074265487492084503173828125">
        <ele>999</ele>
        <time>2026-08-21T14:22:15.000Z</time>
        <extensions>
          <ns3:TrackPointExtension>
            <ns3:hr>148</ns3:hr>
            <ns3:cad>52</ns3:cad>
          </ns3:TrackPointExtension>
        </extensions>
      </trkpt>
      <trkpt lat="45.29777121730148792266845703125" lon="-70.85075120441615581512451171875">
        <ele>999</ele>
        <time>2026-08-21T14:22:16.000Z</time>
        <extensions>
          <ns3:TrackPointExtension>
            <ns3:hr>148</ns3:hr>
            <ns3:cad>52</ns3:cad>
          </ns3:TrackPointExtension>
        </extensions>
      </trkpt>
      <trkpt lat="45.297786891460418701171875" lon="-70.8507688902318477630615234375">
        <ele>999.20001220703125</ele>
        <time>2026-08-21T14:22:17.000Z</time>
        <extensions>
          <ns3:TrackPointExtension>
            <ns3:hr>148</ns3:hr>
            <ns3:cad>52</ns3:cad>
          </ns3:TrackPointExtension>
        </extensions>
      </trkpt>
      <trkpt lat="45.29779284261167049407958984375" lon="-70.8507839776575565338134765625">
        <ele>999.20001220703125</ele>
        <time>2026-08-21T14:22:18.000Z</time>
        <extensions>
          <ns3:TrackPointExtension>
            <ns3:hr>147</ns3:hr>
            <ns3:cad>52</ns3:cad>
          </ns3:TrackPointExtension>
        </extensions>
      </trkpt>
      <trkpt lat="45.297805331647396087646484375" lon="-70.85079596377909183502197265625">
        <ele>999.20001220703125</ele>
        <time>2026-08-21T14:22:19.000Z</time>
        <extensions>
          <ns3:TrackPointExtension>
            <ns3:hr>147</ns3:hr>
            <ns3:cad>52</ns3:cad>
          </ns3:TrackPointExtension>
        </extensions>
      </trkpt>
      <trkpt lat="45.29781698249280452728271484375" lon="-70.8508061058819293975830078125">
        <ele>999.4000244140625</ele>
        <time>2026-08-21T14:22:20.000Z</time>
        <extensions>
          <ns3:TrackPointExtension>
            <ns3:hr>147</ns3:hr>
            <ns3:cad>53</ns3:cad>
          </ns3:TrackPointExtension>
        </extensions>
      </trkpt>
      <trkpt lat="45.29782804660499095916748046875" lon="-70.85081440396606922149658203125">
        <ele>999.4000244140625</ele>
        <time>2026-08-21T14:22:21.000Z</time>
        <extensions>
          <ns3:TrackPointExtension>
            <ns3:hr>146</ns3:hr>
            <ns3:cad>53</ns3:cad>
          </ns3:TrackPointExtension>
        </extensions>
      </trkpt>
      <trkpt lat="45.297840200364589691162109375" lon="-70.85081825964152812957763671875">
        <ele>999.5999755859375</ele>
        <time>2026-08-21T14:22:22.000Z</time>
        <extensions>
          <ns3:TrackPointExtension>
            <ns3:hr>146</ns3:hr>
            <ns3:cad>53</ns3:cad>
          </ns3:TrackPointExtension>
        </extensions>
      </trkpt>
      <trkpt lat="45.29785059392452239990234375" lon="-70.85082136094570159912109375">
        <ele>999.79998779296875</ele>
        <time>2026-08-21T14:22:23.000Z</time>
        <extensions>
          <ns3:TrackPointExtension>
            <ns3:hr>145</ns3:hr>
            <ns3:cad>53</ns3:cad>
          </ns3:TrackPointExtension>
        </extensions>
      </trkpt>
      <trkpt lat="45.2978604845702648162841796875" lon="-70.85082060657441616058349609375">
        <ele>1000</ele>
        <time>2026-08-21T14:22:24.000Z</time>
        <extensions>
          <ns3:TrackPointExtension>
            <ns3:hr>145</ns3:hr>
            <ns3:cad>53</ns3:cad>
          </ns3:TrackPointExtension>
        </extensions>
      </trkpt>
      <trkpt lat="45.29786811210215091705322265625" lon="-70.8508195169270038604736328125">
        <ele>1000.20001220703125</ele>
        <time>2026-08-21T14:22:25.000Z</time>
        <extensions>
          <ns3:TrackPointExtension>
            <ns3:hr>145</ns3:hr>
            <ns3:cad>52</ns3:cad>
          </ns3:TrackPointExtension>
        </extensions>
      </trkpt>
      <trkpt lat="45.29787733219563961029052734375" lon="-70.85081675089895725250244140625">
        <ele>1000.4000244140625</ele>
        <time>2026-08-21T14:22:26.000Z</time>
        <extensions>
          <ns3:TrackPointExtension>
            <ns3:hr>145</ns3:hr>
            <ns3:cad>50</ns3:cad>
          </ns3:TrackPointExtension>
        </extensions>
      </trkpt>
      <trkpt lat="45.29788772575557231903076171875" lon="-70.85081239230930805206298828125">
        <ele>1000.5999755859375</ele>
        <time>2026-08-21T14:22:27.000Z</time>
        <extensions>
          <ns3:TrackPointExtension>
            <ns3:hr>145</ns3:hr>
            <ns3:cad>50</ns3:cad>
          </ns3:TrackPointExtension>
        </extensions>
      </trkpt>
      <trkpt lat="45.29789912514388561248779296875" lon="-70.8508107997477054595947265625">
        <ele>1000.79998779296875</ele>
        <time>2026-08-21T14:22:28.000Z</time>
        <extensions>
          <ns3:TrackPointExtension>
            <ns3:hr>145</ns3:hr>
            <ns3:cad>50</ns3:cad>
          </ns3:TrackPointExtension>
        </extensions>
      </trkpt>
      <trkpt lat="45.2979044057428836822509765625" lon="-70.85080954246222972869873046875">
        <ele>1001</ele>
        <time>2026-08-21T14:22:29.000Z</time>
        <extensions>
          <ns3:TrackPointExtension>
            <ns3:hr>145</ns3:hr>
            <ns3:cad>49</ns3:cad>
          </ns3:TrackPointExtension>
        </extensions>
      </trkpt>
      <trkpt lat="45.2979211695492267608642578125" lon="-70.8508067764341831207275390625">
        <ele>1001.20001220703125</ele>
        <time>2026-08-21T14:22:30.000Z</time>
        <extensions>
          <ns3:TrackPointExtension>
            <ns3:hr>145</ns3:hr>
            <ns3:cad>49</ns3:cad>
          </ns3:TrackPointExtension>
        </extensions>
      </trkpt>
      <trkpt lat="45.2979335747659206390380859375" lon="-70.8507963828742504119873046875">
        <ele>1001.4000244140625</ele>
        <time>2026-08-21T14:22:31.000Z</time>
        <extensions>
          <ns3:TrackPointExtension>
            <ns3:hr>145</ns3:hr>
            <ns3:cad>50</ns3:cad>
          </ns3:TrackPointExtension>
        </extensions>
      </trkpt>
      <trkpt lat="45.29794313013553619384765625" lon="-70.85079177282750606536865234375">
        <ele>1001.5999755859375</ele>
        <time>2026-08-21T14:22:32.000Z</time>
        <extensions>
          <ns3:TrackPointExtension>
            <ns3:hr>144</ns3:hr>
            <ns3:cad>50</ns3:cad>
          </ns3:TrackPointExtension>
        </extensions>
      </trkpt>
      <trkpt lat="45.29795343987643718719482421875" lon="-70.8507859893143177032470703125">
        <ele>1002</ele>
        <time>2026-08-21T14:22:33.000Z</time>
        <extensions>
          <ns3:TrackPointExtension>
            <ns3:hr>144</ns3:hr>
            <ns3:cad>50</ns3:cad>
          </ns3:TrackPointExtension>
        </extensions>
      </trkpt>
      <trkpt lat="45.29796148650348186492919921875" lon="-70.85078381001949310302734375">
        <ele>1002</ele>
        <time>2026-08-21T14:22:34.000Z</time>
        <extensions>
          <ns3:TrackPointExtension>
            <ns3:hr>144</ns3:hr>
            <ns3:cad>0</ns3:cad>
          </ns3:TrackPointExtension>
        </extensions>
      </trkpt>
      <trkpt lat="45.29796903021633625030517578125" lon="-70.85078037343919277191162109375">
        <ele>1002.20001220703125</ele>
        <time>2026-08-21T14:22:35.000Z</time>
        <extensions>
          <ns3:TrackPointExtension>
            <ns3:hr>144</ns3:hr>
            <ns3:cad>0</ns3:cad>
          </ns3:TrackPointExtension>
        </extensions>
      </trkpt>
      <trkpt lat="45.297976322472095489501953125" lon="-70.8507722429931163787841796875">
        <ele>1002.20001220703125</ele>
        <time>2026-08-21T14:22:36.000Z</time>
        <extensions>
          <ns3:TrackPointExtension>
            <ns3:hr>145</ns3:hr>
            <ns3:cad>52</ns3:cad>
          </ns3:TrackPointExtension>
        </extensions>
      </trkpt>
      <trkpt lat="45.2979885600507259368896484375" lon="-70.8507668785750865936279296875">
        <ele>1002.4000244140625</ele>
        <time>2026-08-21T14:22:37.000Z</time>
        <extensions>
          <ns3:TrackPointExtension>
            <ns3:hr>145</ns3:hr>
            <ns3:cad>52</ns3:cad>
          </ns3:TrackPointExtension>
        </extensions>
      </trkpt>
      <trkpt lat="45.297999121248722076416015625" lon="-70.850764028728008270263671875">
        <ele>1002.79998779296875</ele>
        <time>2026-08-21T14:22:38.000Z</time>
        <extensions>
          <ns3:TrackPointExtension>
            <ns3:hr>145</ns3:hr>
            <ns3:cad>52</ns3:cad>
          </ns3:TrackPointExtension>
        </extensions>
      </trkpt>
      <trkpt lat="45.298006832599639892578125" lon="-70.850758664309978485107421875">
        <ele>1003</ele>
        <time>2026-08-21T14:22:39.000Z</time>
        <extensions>
          <ns3:TrackPointExtension>
            <ns3:hr>144</ns3:hr>
            <ns3:cad>49</ns3:cad>
          </ns3:TrackPointExtension>
        </extensions>
      </trkpt>
      <trkpt lat="45.298013873398303985595703125" lon="-70.850754640996456146240234375">
        <ele>1003.20001220703125</ele>
        <time>2026-08-21T14:22:40.000Z</time>
        <extensions>
          <ns3:TrackPointExtension>
            <ns3:hr>144</ns3:hr>
            <ns3:cad>49</ns3:cad>
          </ns3:TrackPointExtension>
        </extensions>
      </trkpt>
      <trkpt lat="45.2980214171111583709716796875" lon="-70.85075019858777523040771484375">
        <ele>1003.4000244140625</ele>
        <time>2026-08-21T14:22:41.000Z</time>
        <extensions>
          <ns3:TrackPointExtension>
            <ns3:hr>144</ns3:hr>
            <ns3:cad>49</ns3:cad>
          </ns3:TrackPointExtension>
        </extensions>
      </trkpt>
      <trkpt lat="45.2980284579098224639892578125" lon="-70.8507430739700794219970703125">
        <ele>1003.5999755859375</ele>
        <time>2026-08-21T14:22:42.000Z</time>
        <extensions>
          <ns3:TrackPointExtension>
            <ns3:hr>144</ns3:hr>
            <ns3:cad>49</ns3:cad>
          </ns3:TrackPointExtension>
        </extensions>
      </trkpt>
      <trkpt lat="45.29803457669913768768310546875" lon="-70.85073896683752536773681640625">
        <ele>1003.79998779296875</ele>
        <time>2026-08-21T14:22:43.000Z</time>
        <extensions>
          <ns3:TrackPointExtension>
            <ns3:hr>144</ns3:hr>
            <ns3:cad>45</ns3:cad>
          </ns3:TrackPointExtension>
        </extensions>
      </trkpt>
      <trkpt lat="45.2980435453355312347412109375" lon="-70.850736200809478759765625">
        <ele>1004</ele>
        <time>2026-08-21T14:22:44.000Z</time>
        <extensions>
          <ns3:TrackPointExtension>
            <ns3:hr>145</ns3:hr>
            <ns3:cad>45</ns3:cad>
          </ns3:TrackPointExtension>
        </extensions>
      </trkpt>
      <trkpt lat="45.2980549447238445281982421875" lon="-70.85072639398276805877685546875">
        <ele>1004.20001220703125</ele>
        <time>2026-08-21T14:22:45.000Z</time>
        <extensions>
          <ns3:TrackPointExtension>
            <ns3:hr>146</ns3:hr>
            <ns3:cad>45</ns3:cad>
          </ns3:TrackPointExtension>
        </extensions>
      </trkpt>
      <trkpt lat="45.2980613149702548980712890625" lon="-70.85071868263185024261474609375">
        <ele>1004.5999755859375</ele>
        <time>2026-08-21T14:22:46.000Z</time>
        <extensions>
          <ns3:TrackPointExtension>
            <ns3:hr>146</ns3:hr>
            <ns3:cad>45</ns3:cad>
          </ns3:TrackPointExtension>
        </extensions>
      </trkpt>
      <trkpt lat="45.29806894250214099884033203125" lon="-70.85071139037609100341796875">
        <ele>1004.79998779296875</ele>
        <time>2026-08-21T14:22:47.000Z</time>
        <extensions>
          <ns3:TrackPointExtension>
            <ns3:hr>146</ns3:hr>
            <ns3:cad>45</ns3:cad>
          </ns3:TrackPointExtension>
        </extensions>
      </trkpt>
      <trkpt lat="45.2980774082243442535400390625" lon="-70.850700326263904571533203125">
        <ele>1005.20001220703125</ele>
        <time>2026-08-21T14:22:48.000Z</time>
        <extensions>
          <ns3:TrackPointExtension>
            <ns3:hr>146</ns3:hr>
            <ns3:cad>77</ns3:cad>
          </ns3:TrackPointExtension>
        </extensions>
      </trkpt>
      <trkpt lat="45.2980859577655792236328125" lon="-70.8506907708942890167236328125">
        <ele>1005.4000244140625</ele>
        <time>2026-08-21T14:22:49.000Z</time>
        <extensions>
          <ns3:TrackPointExtension>
            <ns3:hr>146</ns3:hr>
            <ns3:cad>77</ns3:cad>
          </ns3:TrackPointExtension>
        </extensions>
      </trkpt>
      <trkpt lat="45.29809341765940189361572265625" lon="-70.85068113170564174652099609375">
        <ele>1005.5999755859375</ele>
        <time>2026-08-21T14:22:50.000Z</time>
        <extensions>
          <ns3:TrackPointExtension>
            <ns3:hr>146</ns3:hr>
            <ns3:cad>77</ns3:cad>
          </ns3:TrackPointExtension>
        </extensions>
      </trkpt>
      <trkpt lat="45.298099704086780548095703125" lon="-70.8506746776401996612548828125">
        <ele>1005.79998779296875</ele>
        <time>2026-08-21T14:22:51.000Z</time>
        <extensions>
          <ns3:TrackPointExtension>
            <ns3:hr>147</ns3:hr>
            <ns3:cad>47</ns3:cad>
          </ns3:TrackPointExtension>
        </extensions>
      </trkpt>
      <trkpt lat="45.29810406267642974853515625" lon="-70.85066520608961582183837890625">
        <ele>1006</ele>
        <time>2026-08-21T14:22:52.000Z</time>
        <extensions>
          <ns3:TrackPointExtension>
            <ns3:hr>148</ns3:hr>
            <ns3:cad>47</ns3:cad>
          </ns3:TrackPointExtension>
        </extensions>
      </trkpt>
      <trkpt lat="45.29811152257025241851806640625" lon="-70.850656740367412567138671875">
        <ele>1006</ele>
        <time>2026-08-21T14:22:53.000Z</time>
        <extensions>
          <ns3:TrackPointExtension>
            <ns3:hr>148</ns3:hr>
            <ns3:cad>47</ns3:cad>
          </ns3:TrackPointExtension>
        </extensions>
      </trkpt>
      <trkpt lat="45.2981176413595676422119140625" lon="-70.85064810700714588165283203125">
        <ele>1006.20001220703125</ele>
        <time>2026-08-21T14:22:54.000Z</time>
        <extensions>
          <ns3:TrackPointExtension>
            <ns3:hr>149</ns3:hr>
            <ns3:cad>47</ns3:cad>
          </ns3:TrackPointExtension>
        </extensions>
      </trkpt>
      <trkpt lat="45.2981235086917877197265625" lon="-70.85063721053302288055419921875">
        <ele>1006.20001220703125</ele>
        <time>2026-08-21T14:22:55.000Z</time>
        <extensions>
          <ns3:TrackPointExtension>
            <ns3:hr>149</ns3:hr>
            <ns3:cad>46</ns3:cad>
          </ns3:TrackPointExtension>
        </extensions>
      </trkpt>
      <trkpt lat="45.29812694527208805084228515625" lon="-70.85063084028661251068115234375">
        <ele>1006.4000244140625</ele>
        <time>2026-08-21T14:22:56.000Z</time>
        <extensions>
          <ns3:TrackPointExtension>
            <ns3:hr>149</ns3:hr>
            <ns3:cad>46</ns3:cad>
          </ns3:TrackPointExtension>
        </extensions>
      </trkpt>
      <trkpt lat="45.29812929220497608184814453125" lon="-70.850626565515995025634765625">
        <ele>1006.4000244140625</ele>
        <time>2026-08-21T14:22:57.000Z</time>
        <extensions>
          <ns3:TrackPointExtension>
            <ns3:hr>149</ns3:hr>
            <ns3:cad>46</ns3:cad>
          </ns3:TrackPointExtension>
        </extensions>
      </trkpt>
      <trkpt lat="45.29813230969011783599853515625" lon="-70.85061877034604549407958984375">
        <ele>1006.5999755859375</ele>
        <time>2026-08-21T14:22:58.000Z</time>
        <extensions>
          <ns3:TrackPointExtension>
            <ns3:hr>149</ns3:hr>
            <ns3:cad>77</ns3:cad>
          </ns3:TrackPointExtension>
        </extensions>
      </trkpt>
      <trkpt lat="45.29813733883202075958251953125" lon="-70.850605107843875885009765625">
        <ele>1006.79998779296875</ele>
        <time>2026-08-21T14:22:59.000Z</time>
        <extensions>
          <ns3:TrackPointExtension>
            <ns3:hr>149</ns3:hr>
            <ns3:cad>77</ns3:cad>
          </ns3:TrackPointExtension>
        </extensions>
      </trkpt>
      <trkpt lat="45.2981384284794330596923828125" lon="-70.85060250945389270782470703125">
        <ele>1007</ele>
        <time>2026-08-21T14:23:00.000Z</time>
        <extensions>
          <ns3:TrackPointExtension>
            <ns3:hr>148</ns3:hr>
            <ns3:cad>80</ns3:cad>
          </ns3:TrackPointExtension>
        </extensions>
      </trkpt>
      <trkpt lat="45.29814287088811397552490234375" lon="-70.85059211589395999908447265625">
        <ele>1007.20001220703125</ele>
        <time>2026-08-21T14:23:01.000Z</time>
        <extensions>
          <ns3:TrackPointExtension>
            <ns3:hr>148</ns3:hr>
            <ns3:cad>80</ns3:cad>
          </ns3:TrackPointExtension>
        </extensions>
      </trkpt>
      <trkpt lat="45.29815376736223697662353515625" lon="-70.85058909840881824493408203125">
        <ele>1007.5999755859375</ele>
        <time>2026-08-21T14:23:02.000Z</time>
        <extensions>
          <ns3:TrackPointExtension>
            <ns3:hr>148</ns3:hr>
            <ns3:cad>80</ns3:cad>
          </ns3:TrackPointExtension>
        </extensions>
      </trkpt>
      <trkpt lat="45.2981578744947910308837890625" lon="-70.85058591328561305999755859375">
        <ele>1007.79998779296875</ele>
        <time>2026-08-21T14:23:03.000Z</time>
        <extensions>
          <ns3:TrackPointExtension>
            <ns3:hr>149</ns3:hr>
            <ns3:cad>80</ns3:cad>
          </ns3:TrackPointExtension>
        </extensions>
      </trkpt>
      <trkpt lat="45.2981605567038059234619140625" lon="-70.85058121941983699798583984375">
        <ele>1008</ele>
        <time>2026-08-21T14:23:04.000Z</time>
        <extensions>
          <ns3:TrackPointExtension>
            <ns3:hr>149</ns3:hr>
            <ns3:cad>80</ns3:cad>
          </ns3:TrackPointExtension>
        </extensions>
      </trkpt>
      <trkpt lat="45.29815795831382274627685546875" lon="-70.85058054886758327484130859375">
        <ele>1008.20001220703125</ele>
        <time>2026-08-21T14:23:05.000Z</time>
        <extensions>
          <ns3:TrackPointExtension>
            <ns3:hr>149</ns3:hr>
            <ns3:cad>68</ns3:cad>
          </ns3:TrackPointExtension>
        </extensions>
      </trkpt>
      <trkpt lat="45.29816550202667713165283203125" lon="-70.85057116113603115081787109375">
        <ele>1008.4000244140625</ele>
        <time>2026-08-21T14:23:06.000Z</time>
        <extensions>
          <ns3:TrackPointExtension>
            <ns3:hr>150</ns3:hr>
            <ns3:cad>68</ns3:cad>
          </ns3:TrackPointExtension>
        </extensions>
      </trkpt>
      <trkpt lat="45.2981712855398654937744140625" lon="-70.8505590073764324188232421875">
        <ele>1008.5999755859375</ele>
        <time>2026-08-21T14:23:07.000Z</time>
        <extensions>
          <ns3:TrackPointExtension>
            <ns3:hr>150</ns3:hr>
            <ns3:cad>68</ns3:cad>
          </ns3:TrackPointExtension>
        </extensions>
      </trkpt>
      <trkpt lat="45.29817271046340465545654296875" lon="-70.850555486977100372314453125">
        <ele>1008.79998779296875</ele>
        <time>2026-08-21T14:23:08.000Z</time>
        <extensions>
          <ns3:TrackPointExtension>
            <ns3:hr>150</ns3:hr>
            <ns3:cad>77</ns3:cad>
          </ns3:TrackPointExtension>
        </extensions>
      </trkpt>
      <trkpt lat="45.29817841015756130218505859375" lon="-70.85055045783519744873046875">
        <ele>1009</ele>
        <time>2026-08-21T14:23:09.000Z</time>
        <extensions>
          <ns3:TrackPointExtension>
            <ns3:hr>150</ns3:hr>
            <ns3:cad>77</ns3:cad>
          </ns3:TrackPointExtension>
        </extensions>
      </trkpt>
      <trkpt lat="45.29818721115589141845703125" lon="-70.850542075932025909423828125">
        <ele>1009.20001220703125</ele>
        <time>2026-08-21T14:23:10.000Z</time>
        <extensions>
          <ns3:TrackPointExtension>
            <ns3:hr>150</ns3:hr>
            <ns3:cad>79</ns3:cad>
          </ns3:TrackPointExtension>
        </extensions>
      </trkpt>
      <trkpt lat="45.29819316230714321136474609375" lon="-70.85053972899913787841796875">
        <ele>1009.4000244140625</ele>
        <time>2026-08-21T14:23:11.000Z</time>
        <extensions>
          <ns3:TrackPointExtension>
            <ns3:hr>151</ns3:hr>
            <ns3:cad>79</ns3:cad>
          </ns3:TrackPointExtension>
        </extensions>
      </trkpt>
      <trkpt lat="45.29820053838193416595458984375" lon="-70.8505362085998058319091796875">
        <ele>1009.5999755859375</ele>
        <time>2026-08-21T14:23:12.000Z</time>
        <extensions>
          <ns3:TrackPointExtension>
            <ns3:hr>150</ns3:hr>
            <ns3:cad>79</ns3:cad>
          </ns3:TrackPointExtension>
        </extensions>
      </trkpt>
      <trkpt lat="45.29820741154253482818603515625" lon="-70.850525312125682830810546875">
        <ele>1009.79998779296875</ele>
        <time>2026-08-21T14:23:13.000Z</time>
        <extensions>
          <ns3:TrackPointExtension>
            <ns3:hr>150</ns3:hr>
            <ns3:cad>79</ns3:cad>
          </ns3:TrackPointExtension>
        </extensions>
      </trkpt>
      <trkpt lat="45.29821344651281833648681640625" lon="-70.85051567293703556060791015625">
        <ele>1009.79998779296875</ele>
        <time>2026-08-21T14:23:14.000Z</time>
        <extensions>
          <ns3:TrackPointExtension>
            <ns3:hr>150</ns3:hr>
            <ns3:cad>45</ns3:cad>
          </ns3:TrackPointExtension>
        </extensions>
      </trkpt>
      <trkpt lat="45.29821814037859439849853515625" lon="-70.8505080454051494598388671875">
        <ele>1010</ele>
        <time>2026-08-21T14:23:15.000Z</time>
        <extensions>
          <ns3:TrackPointExtension>
            <ns3:hr>150</ns3:hr>
            <ns3:cad>45</ns3:cad>
          </ns3:TrackPointExtension>
        </extensions>
      </trkpt>
      <trkpt lat="45.29822400771081447601318359375" lon="-70.8505030162632465362548828125">
        <ele>1010.20001220703125</ele>
        <time>2026-08-21T14:23:16.000Z</time>
        <extensions>
          <ns3:TrackPointExtension>
            <ns3:hr>149</ns3:hr>
            <ns3:cad>45</ns3:cad>
          </ns3:TrackPointExtension>
        </extensions>
      </trkpt>
      <trkpt lat="45.29822920449078083038330078125" lon="-70.85050217807292938232421875">
        <ele>1010.4000244140625</ele>
        <time>2026-08-21T14:23:17.000Z</time>
        <extensions>
          <ns3:TrackPointExtension>
            <ns3:hr>148</ns3:hr>
            <ns3:cad>45</ns3:cad>
          </ns3:TrackPointExtension>
        </extensions>
      </trkpt>
      <trkpt lat="45.29823406599462032318115234375" lon="-70.85049740038812160491943359375">
        <ele>1010.5999755859375</ele>
        <time>2026-08-21T14:23:18.000Z</time>
        <extensions>
          <ns3:TrackPointExtension>
            <ns3:hr>148</ns3:hr>
            <ns3:cad>45</ns3:cad>
          </ns3:TrackPointExtension>
        </extensions>
      </trkpt>
      <trkpt lat="45.2982363291084766387939453125" lon="-70.8504939638078212738037109375">
        <ele>1010.79998779296875</ele>
        <time>2026-08-21T14:23:19.000Z</time>
        <extensions>
          <ns3:TrackPointExtension>
            <ns3:hr>148</ns3:hr>
            <ns3:cad>43</ns3:cad>
          </ns3:TrackPointExtension>
        </extensions>
      </trkpt>
      <trkpt lat="45.29824110679328441619873046875" lon="-70.850490443408489227294921875">
        <ele>1010.79998779296875</ele>
        <time>2026-08-21T14:23:20.000Z</time>
        <extensions>
          <ns3:TrackPointExtension>
            <ns3:hr>148</ns3:hr>
            <ns3:cad>43</ns3:cad>
          </ns3:TrackPointExtension>
        </extensions>
      </trkpt>
      <trkpt lat="45.2982440404593944549560546875" lon="-70.850490443408489227294921875">
        <ele>1011</ele>
        <time>2026-08-21T14:23:21.000Z</time>
        <extensions>
          <ns3:TrackPointExtension>
            <ns3:hr>149</ns3:hr>
            <ns3:cad>43</ns3:cad>
          </ns3:TrackPointExtension>
        </extensions>
      </trkpt>
      <trkpt lat="45.298248566687107086181640625" lon="-70.8504832349717617034912109375">
        <ele>1011</ele>
        <time>2026-08-21T14:23:22.000Z</time>
        <extensions>
          <ns3:TrackPointExtension>
            <ns3:hr>149</ns3:hr>
            <ns3:cad>43</ns3:cad>
          </ns3:TrackPointExtension>
        </extensions>
      </trkpt>
      <trkpt lat="45.29825292527675628662109375" lon="-70.85047611035406589508056640625">
        <ele>1011.20001220703125</ele>
        <time>2026-08-21T14:23:23.000Z</time>
        <extensions>
          <ns3:TrackPointExtension>
            <ns3:hr>149</ns3:hr>
            <ns3:cad>43</ns3:cad>
          </ns3:TrackPointExtension>
        </extensions>
      </trkpt>
      <trkpt lat="45.2982547692954540252685546875" lon="-70.85046705789864063262939453125">
        <ele>1011.4000244140625</ele>
        <time>2026-08-21T14:23:24.000Z</time>
        <extensions>
          <ns3:TrackPointExtension>
            <ns3:hr>149</ns3:hr>
            <ns3:cad>43</ns3:cad>
          </ns3:TrackPointExtension>
        </extensions>
      </trkpt>
      <trkpt lat="45.2982576191425323486328125" lon="-70.85046152584254741668701171875">
        <ele>1011.5999755859375</ele>
        <time>2026-08-21T14:23:25.000Z</time>
        <extensions>
          <ns3:TrackPointExtension>
            <ns3:hr>150</ns3:hr>
            <ns3:cad>43</ns3:cad>
          </ns3:TrackPointExtension>
        </extensions>
      </trkpt>
      <trkpt lat="45.298259966075420379638671875" lon="-70.85045523941516876220703125">
        <ele>1011.79998779296875</ele>
        <time>2026-08-21T14:23:26.000Z</time>
        <extensions>
          <ns3:TrackPointExtension>
            <ns3:hr>150</ns3:hr>
            <ns3:cad>78</ns3:cad>
          </ns3:TrackPointExtension>
        </extensions>
      </trkpt>
      <trkpt lat="45.2982644923031330108642578125" lon="-70.8504507131874561309814453125">
        <ele>1012</ele>
        <time>2026-08-21T14:23:27.000Z</time>
        <extensions>
          <ns3:TrackPointExtension>
            <ns3:hr>150</ns3:hr>
            <ns3:cad>79</ns3:cad>
          </ns3:TrackPointExtension>
        </extensions>
      </trkpt>
      <trkpt lat="45.2982675097882747650146484375" lon="-70.8504453487694263458251953125">
        <ele>1012.20001220703125</ele>
        <time>2026-08-21T14:23:28.000Z</time>
        <extensions>
          <ns3:TrackPointExtension>
            <ns3:hr>150</ns3:hr>
            <ns3:cad>79</ns3:cad>
          </ns3:TrackPointExtension>
        </extensions>
      </trkpt>
      <trkpt lat="45.2982705272734165191650390625" lon="-70.85044291801750659942626953125">
        <ele>1012.20001220703125</ele>
        <time>2026-08-21T14:23:29.000Z</time>
        <extensions>
          <ns3:TrackPointExtension>
            <ns3:hr>151</ns3:hr>
            <ns3:cad>79</ns3:cad>
          </ns3:TrackPointExtension>
        </extensions>
      </trkpt>
      <trkpt lat="45.29827396385371685028076171875" lon="-70.85043755359947681427001953125">
        <ele>1012.4000244140625</ele>
        <time>2026-08-21T14:23:30.000Z</time>
        <extensions>
          <ns3:TrackPointExtension>
            <ns3:hr>151</ns3:hr>
            <ns3:cad>79</ns3:cad>
          </ns3:TrackPointExtension>
        </extensions>
      </trkpt>
      <trkpt lat="45.298277400434017181396484375" lon="-70.85043378174304962158203125">
        <ele>1012.5999755859375</ele>
        <time>2026-08-21T14:23:31.000Z</time>
        <extensions>
          <ns3:TrackPointExtension>
            <ns3:hr>151</ns3:hr>
            <ns3:cad>76</ns3:cad>
          </ns3:TrackPointExtension>
        </extensions>
      </trkpt>
      <trkpt lat="45.2982805855572223663330078125" lon="-70.850430764257907867431640625">
        <ele>1012.79998779296875</ele>
        <time>2026-08-21T14:23:32.000Z</time>
        <extensions>
          <ns3:TrackPointExtension>
            <ns3:hr>151</ns3:hr>
            <ns3:cad>76</ns3:cad>
          </ns3:TrackPointExtension>
        </extensions>
      </trkpt>
      <trkpt lat="45.29828284867107868194580078125" lon="-70.8504346199333667755126953125">
        <ele>1013</ele>
        <time>2026-08-21T14:23:33.000Z</time>
        <extensions>
          <ns3:TrackPointExtension>
            <ns3:hr>151</ns3:hr>
            <ns3:cad>76</ns3:cad>
          </ns3:TrackPointExtension>
        </extensions>
      </trkpt>
      <trkpt lat="45.2982896380126476287841796875" lon="-70.85042950697243213653564453125">
        <ele>1013.20001220703125</ele>
        <time>2026-08-21T14:23:34.000Z</time>
        <extensions>
          <ns3:TrackPointExtension>
            <ns3:hr>151</ns3:hr>
            <ns3:cad>76</ns3:cad>
          </ns3:TrackPointExtension>
        </extensions>
      </trkpt>
      <trkpt lat="45.29829374514520168304443359375" lon="-70.85042749531567096710205078125">
        <ele>1013.4000244140625</ele>
        <time>2026-08-21T14:23:35.000Z</time>
        <extensions>
          <ns3:TrackPointExtension>
            <ns3:hr>151</ns3:hr>
            <ns3:cad>76</ns3:cad>
          </ns3:TrackPointExtension>
        </extensions>
      </trkpt>
      <trkpt lat="45.298294834792613983154296875" lon="-70.85043453611433506011962890625">
        <ele>1013.5999755859375</ele>
        <time>2026-08-21T14:23:36.000Z</time>
        <extensions>
          <ns3:TrackPointExtension>
            <ns3:hr>151</ns3:hr>
            <ns3:cad>73</ns3:cad>
          </ns3:TrackPointExtension>
        </extensions>
      </trkpt>
      <trkpt lat="45.29830330051481723785400390625" lon="-70.85043503902852535247802734375">
        <ele>1013.79998779296875</ele>
        <time>2026-08-21T14:23:37.000Z</time>
        <extensions>
          <ns3:TrackPointExtension>
            <ns3:hr>151</ns3:hr>
            <ns3:cad>73</ns3:cad>
          </ns3:TrackPointExtension>
        </extensions>
      </trkpt>
      <trkpt lat="45.29831000603735446929931640625" lon="-70.8504359610378742218017578125">
        <ele>1014</ele>
        <time>2026-08-21T14:23:38.000Z</time>
        <extensions>
          <ns3:TrackPointExtension>
            <ns3:hr>151</ns3:hr>
            <ns3:cad>73</ns3:cad>
          </ns3:TrackPointExtension>
        </extensions>
      </trkpt>
      <trkpt lat="45.298315621912479400634765625" lon="-70.850439481437206268310546875">
        <ele>1014.20001220703125</ele>
        <time>2026-08-21T14:23:39.000Z</time>
        <extensions>
          <ns3:TrackPointExtension>
            <ns3:hr>150</ns3:hr>
            <ns3:cad>43</ns3:cad>
          </ns3:TrackPointExtension>
        </extensions>
      </trkpt>
      <trkpt lat="45.29832107014954090118408203125" lon="-70.85044224746525287628173828125">
        <ele>1014.4000244140625</ele>
        <time>2026-08-21T14:23:40.000Z</time>
        <extensions>
          <ns3:TrackPointExtension>
            <ns3:hr>150</ns3:hr>
            <ns3:cad>43</ns3:cad>
          </ns3:TrackPointExtension>
        </extensions>
      </trkpt>
      <trkpt lat="45.29832459054887294769287109375" lon="-70.85044409148395061492919921875">
        <ele>1014.5999755859375</ele>
        <time>2026-08-21T14:23:41.000Z</time>
        <extensions>
          <ns3:TrackPointExtension>
            <ns3:hr>150</ns3:hr>
            <ns3:cad>42</ns3:cad>
          </ns3:TrackPointExtension>
        </extensions>
      </trkpt>
      <trkpt lat="45.29833213426172733306884765625" lon="-70.85044853389263153076171875">
        <ele>1014.79998779296875</ele>
        <time>2026-08-21T14:23:42.000Z</time>
        <extensions>
          <ns3:TrackPointExtension>
            <ns3:hr>150</ns3:hr>
            <ns3:cad>42</ns3:cad>
          </ns3:TrackPointExtension>
        </extensions>
      </trkpt>
      <trkpt lat="45.2983380854129791259765625" lon="-70.8504500426352024078369140625">
        <ele>1015</ele>
        <time>2026-08-21T14:23:43.000Z</time>
        <extensions>
          <ns3:TrackPointExtension>
            <ns3:hr>150</ns3:hr>
            <ns3:cad>43</ns3:cad>
          </ns3:TrackPointExtension>
        </extensions>
      </trkpt>
      <trkpt lat="45.298345796763896942138671875" lon="-70.85045297630131244659423828125">
        <ele>1015.20001220703125</ele>
        <time>2026-08-21T14:23:44.000Z</time>
        <extensions>
          <ns3:TrackPointExtension>
            <ns3:hr>150</ns3:hr>
            <ns3:cad>43</ns3:cad>
          </ns3:TrackPointExtension>
        </extensions>
      </trkpt>
      <trkpt lat="45.298353172838687896728515625" lon="-70.8504590950906276702880859375">
        <ele>1015.4000244140625</ele>
        <time>2026-08-21T14:23:45.000Z</time>
        <extensions>
          <ns3:TrackPointExtension>
            <ns3:hr>150</ns3:hr>
            <ns3:cad>43</ns3:cad>
          </ns3:TrackPointExtension>
        </extensions>
      </trkpt>
      <trkpt lat="45.29835929162800312042236328125" lon="-70.8504661358892917633056640625">
        <ele>1015.5999755859375</ele>
        <time>2026-08-21T14:23:46.000Z</time>
        <extensions>
          <ns3:TrackPointExtension>
            <ns3:hr>150</ns3:hr>
            <ns3:cad>44</ns3:cad>
          </ns3:TrackPointExtension>
        </extensions>
      </trkpt>
      <trkpt lat="45.2983649075031280517578125" lon="-70.850472338497638702392578125">
        <ele>1015.5999755859375</ele>
        <time>2026-08-21T14:23:47.000Z</time>
        <extensions>
          <ns3:TrackPointExtension>
            <ns3:hr>150</ns3:hr>
            <ns3:cad>44</ns3:cad>
          </ns3:TrackPointExtension>
        </extensions>
      </trkpt>
      <trkpt lat="45.29837354086339473724365234375" lon="-70.85048214532434940338134765625">
        <ele>1015.79998779296875</ele>
        <time>2026-08-21T14:23:48.000Z</time>
        <extensions>
          <ns3:TrackPointExtension>
            <ns3:hr>150</ns3:hr>
            <ns3:cad>43</ns3:cad>
          </ns3:TrackPointExtension>
        </extensions>
      </trkpt>
      <trkpt lat="45.29837840236723423004150390625" lon="-70.85049279034137725830078125">
        <ele>1016</ele>
        <time>2026-08-21T14:23:49.000Z</time>
        <extensions>
          <ns3:TrackPointExtension>
            <ns3:hr>150</ns3:hr>
            <ns3:cad>43</ns3:cad>
          </ns3:TrackPointExtension>
        </extensions>
      </trkpt>
      <trkpt lat="45.298384018242359161376953125" lon="-70.8505003340542316436767578125">
        <ele>1016.20001220703125</ele>
        <time>2026-08-21T14:23:50.000Z</time>
        <extensions>
          <ns3:TrackPointExtension>
            <ns3:hr>150</ns3:hr>
            <ns3:cad>44</ns3:cad>
          </ns3:TrackPointExtension>
        </extensions>
      </trkpt>
      <trkpt lat="45.2983922325074672698974609375" lon="-70.85050963796675205230712890625">
        <ele>1016.4000244140625</ele>
        <time>2026-08-21T14:23:51.000Z</time>
        <extensions>
          <ns3:TrackPointExtension>
            <ns3:hr>151</ns3:hr>
            <ns3:cad>44</ns3:cad>
          </ns3:TrackPointExtension>
        </extensions>
      </trkpt>
      <trkpt lat="45.298398099839687347412109375" lon="-70.85051567293703556060791015625">
        <ele>1016.5999755859375</ele>
        <time>2026-08-21T14:23:52.000Z</time>
        <extensions>
          <ns3:TrackPointExtension>
            <ns3:hr>151</ns3:hr>
            <ns3:cad>44</ns3:cad>
          </ns3:TrackPointExtension>
        </extensions>
      </trkpt>
      <trkpt lat="45.2984051406383514404296875" lon="-70.85052053444087505340576171875">
        <ele>1016.79998779296875</ele>
        <time>2026-08-21T14:23:53.000Z</time>
        <extensions>
          <ns3:TrackPointExtension>
            <ns3:hr>152</ns3:hr>
            <ns3:cad>46</ns3:cad>
          </ns3:TrackPointExtension>
        </extensions>
      </trkpt>
      <trkpt lat="45.29841008596122264862060546875" lon="-70.85052673704922199249267578125">
        <ele>1017</ele>
        <time>2026-08-21T14:23:54.000Z</time>
        <extensions>
          <ns3:TrackPointExtension>
            <ns3:hr>152</ns3:hr>
            <ns3:cad>46</ns3:cad>
          </ns3:TrackPointExtension>
        </extensions>
      </trkpt>
      <trkpt lat="45.29840849339962005615234375" lon="-70.850535370409488677978515625">
        <ele>1017.20001220703125</ele>
        <time>2026-08-21T14:23:55.000Z</time>
        <extensions>
          <ns3:TrackPointExtension>
            <ns3:hr>152</ns3:hr>
            <ns3:cad>44</ns3:cad>
          </ns3:TrackPointExtension>
        </extensions>
      </trkpt>
      <trkpt lat="45.29841125942766666412353515625" lon="-70.85054400376975536346435546875">
        <ele>1017.4000244140625</ele>
        <time>2026-08-21T14:23:56.000Z</time>
        <extensions>
          <ns3:TrackPointExtension>
            <ns3:hr>152</ns3:hr>
            <ns3:cad>43</ns3:cad>
          </ns3:TrackPointExtension>
        </extensions>
      </trkpt>
      <trkpt lat="45.298413522541522979736328125" lon="-70.85055506788194179534912109375">
        <ele>1017.4000244140625</ele>
        <time>2026-08-21T14:23:57.000Z</time>
        <extensions>
          <ns3:TrackPointExtension>
            <ns3:hr>152</ns3:hr>
            <ns3:cad>43</ns3:cad>
          </ns3:TrackPointExtension>
        </extensions>
      </trkpt>
      <trkpt lat="45.29841511510312557220458984375" lon="-70.8505618572235107421875">
        <ele>1017.5999755859375</ele>
        <time>2026-08-21T14:23:58.000Z</time>
        <extensions>
          <ns3:TrackPointExtension>
            <ns3:hr>153</ns3:hr>
            <ns3:cad>44</ns3:cad>
          </ns3:TrackPointExtension>
        </extensions>
      </trkpt>
      <trkpt lat="45.29842098243534564971923828125" lon="-70.85056831128895282745361328125">
        <ele>1017.79998779296875</ele>
        <time>2026-08-21T14:23:59.000Z</time>
        <extensions>
          <ns3:TrackPointExtension>
            <ns3:hr>153</ns3:hr>
            <ns3:cad>44</ns3:cad>
          </ns3:TrackPointExtension>
        </extensions>
      </trkpt>
      <trkpt lat="45.29842450283467769622802734375" lon="-70.8505757711827754974365234375">
        <ele>1018</ele>
        <time>2026-08-21T14:24:00.000Z</time>
        <extensions>
          <ns3:TrackPointExtension>
            <ns3:hr>154</ns3:hr>
            <ns3:cad>44</ns3:cad>
          </ns3:TrackPointExtension>
        </extensions>
      </trkpt>
      <trkpt lat="45.29842936433851718902587890625" lon="-70.85058758966624736785888671875">
        <ele>1018</ele>
        <time>2026-08-21T14:24:01.000Z</time>
        <extensions>
          <ns3:TrackPointExtension>
            <ns3:hr>154</ns3:hr>
            <ns3:cad>44</ns3:cad>
          </ns3:TrackPointExtension>
        </extensions>
      </trkpt>
      <trkpt lat="45.2984344772994518280029296875" lon="-70.85059764795005321502685546875">
        <ele>1018.4000244140625</ele>
        <time>2026-08-21T14:24:02.000Z</time>
        <extensions>
          <ns3:TrackPointExtension>
            <ns3:hr>154</ns3:hr>
            <ns3:cad>44</ns3:cad>
          </ns3:TrackPointExtension>
        </extensions>
      </trkpt>
      <trkpt lat="45.2984418533742427825927734375" lon="-70.85060250945389270782470703125">
        <ele>1018.5999755859375</ele>
        <time>2026-08-21T14:24:03.000Z</time>
        <extensions>
          <ns3:TrackPointExtension>
            <ns3:hr>153</ns3:hr>
            <ns3:cad>44</ns3:cad>
          </ns3:TrackPointExtension>
        </extensions>
      </trkpt>
      <trkpt lat="45.29844780452549457550048828125" lon="-70.8506103046238422393798828125">
        <ele>1018.79998779296875</ele>
        <time>2026-08-21T14:24:04.000Z</time>
        <extensions>
          <ns3:TrackPointExtension>
            <ns3:hr>153</ns3:hr>
            <ns3:cad>44</ns3:cad>
          </ns3:TrackPointExtension>
        </extensions>
      </trkpt>
      <trkpt lat="45.29845300130546092987060546875" lon="-70.85061273537576198577880859375">
        <ele>1019</ele>
        <time>2026-08-21T14:24:05.000Z</time>
        <extensions>
          <ns3:TrackPointExtension>
            <ns3:hr>152</ns3:hr>
            <ns3:cad>45</ns3:cad>
          </ns3:TrackPointExtension>
        </extensions>
      </trkpt>
      <trkpt lat="45.29846373014152050018310546875" lon="-70.85061726160347461700439453125">
        <ele>1019.20001220703125</ele>
        <time>2026-08-21T14:24:06.000Z</time>
        <extensions>
          <ns3:TrackPointExtension>
            <ns3:hr>152</ns3:hr>
            <ns3:cad>45</ns3:cad>
          </ns3:TrackPointExtension>
        </extensions>
      </trkpt>
      <trkpt lat="45.298469848930835723876953125" lon="-70.8506267331540584564208984375">
        <ele>1019.4000244140625</ele>
        <time>2026-08-21T14:24:07.000Z</time>
        <extensions>
          <ns3:TrackPointExtension>
            <ns3:hr>153</ns3:hr>
            <ns3:cad>46</ns3:cad>
          </ns3:TrackPointExtension>
        </extensions>
      </trkpt>
      <trkpt lat="45.29847647063434123992919921875" lon="-70.85063897073268890380859375">
        <ele>1019.4000244140625</ele>
        <time>2026-08-21T14:24:08.000Z</time>
        <extensions>
          <ns3:TrackPointExtension>
            <ns3:hr>154</ns3:hr>
            <ns3:cad>47</ns3:cad>
          </ns3:TrackPointExtension>
        </extensions>
      </trkpt>
      <trkpt lat="45.298483259975910186767578125" lon="-70.8506465144455432891845703125">
        <ele>1019.5999755859375</ele>
        <time>2026-08-21T14:24:09.000Z</time>
        <extensions>
          <ns3:TrackPointExtension>
            <ns3:hr>153</ns3:hr>
            <ns3:cad>48</ns3:cad>
          </ns3:TrackPointExtension>
        </extensions>
      </trkpt>
      <trkpt lat="45.2984908036887645721435546875" lon="-70.85065464489161968231201171875">
        <ele>1019.79998779296875</ele>
        <time>2026-08-21T14:24:10.000Z</time>
        <extensions>
          <ns3:TrackPointExtension>
            <ns3:hr>153</ns3:hr>
            <ns3:cad>48</ns3:cad>
          </ns3:TrackPointExtension>
        </extensions>
      </trkpt>
      <trkpt lat="45.2984958328306674957275390625" lon="-70.85066671483218669891357421875">
        <ele>1020</ele>
        <time>2026-08-21T14:24:11.000Z</time>
        <extensions>
          <ns3:TrackPointExtension>
            <ns3:hr>153</ns3:hr>
            <ns3:cad>48</ns3:cad>
          </ns3:TrackPointExtension>
        </extensions>
      </trkpt>
      <trkpt lat="45.298502035439014434814453125" lon="-70.850672163069248199462890625">
        <ele>1020.4000244140625</ele>
        <time>2026-08-21T14:24:12.000Z</time>
        <extensions>
          <ns3:TrackPointExtension>
            <ns3:hr>153</ns3:hr>
            <ns3:cad>47</ns3:cad>
          </ns3:TrackPointExtension>
        </extensions>
      </trkpt>
      <trkpt lat="45.29850966297090053558349609375" lon="-70.8506827242672443389892578125">
        <ele>1020.5999755859375</ele>
        <time>2026-08-21T14:24:13.000Z</time>
        <extensions>
          <ns3:TrackPointExtension>
            <ns3:hr>154</ns3:hr>
            <ns3:cad>47</ns3:cad>
          </ns3:TrackPointExtension>
        </extensions>
      </trkpt>
      <trkpt lat="45.29851670376956462860107421875" lon="-70.850691609084606170654296875">
        <ele>1020.79998779296875</ele>
        <time>2026-08-21T14:24:14.000Z</time>
        <extensions>
          <ns3:TrackPointExtension>
            <ns3:hr>154</ns3:hr>
            <ns3:cad>46</ns3:cad>
          </ns3:TrackPointExtension>
        </extensions>
      </trkpt>
      <trkpt lat="45.29852173291146755218505859375" lon="-70.85069756023585796356201171875">
        <ele>1021</ele>
        <time>2026-08-21T14:24:15.000Z</time>
        <extensions>
          <ns3:TrackPointExtension>
            <ns3:hr>154</ns3:hr>
            <ns3:cad>45</ns3:cad>
          </ns3:TrackPointExtension>
        </extensions>
      </trkpt>
      <trkpt lat="45.2985253371298313140869140625" lon="-70.850703679025173187255859375">
        <ele>1021.20001220703125</ele>
        <time>2026-08-21T14:24:16.000Z</time>
        <extensions>
          <ns3:TrackPointExtension>
            <ns3:hr>154</ns3:hr>
            <ns3:cad>45</ns3:cad>
          </ns3:TrackPointExtension>
        </extensions>
      </trkpt>
      <trkpt lat="45.2985300309956073760986328125" lon="-70.85070845670998096466064453125">
        <ele>1021.4000244140625</ele>
        <time>2026-08-21T14:24:17.000Z</time>
        <extensions>
          <ns3:TrackPointExtension>
            <ns3:hr>154</ns3:hr>
            <ns3:cad>44</ns3:cad>
          </ns3:TrackPointExtension>
        </extensions>
      </trkpt>
      <trkpt lat="45.29853346757590770721435546875" lon="-70.85070929490029811859130859375">
        <ele>1021.4000244140625</ele>
        <time>2026-08-21T14:24:18.000Z</time>
        <extensions>
          <ns3:TrackPointExtension>
            <ns3:hr>154</ns3:hr>
            <ns3:cad>44</ns3:cad>
          </ns3:TrackPointExtension>
        </extensions>
      </trkpt>
      <trkpt lat="45.29853698797523975372314453125" lon="-70.85071398876607418060302734375">
        <ele>1021.5999755859375</ele>
        <time>2026-08-21T14:24:19.000Z</time>
        <extensions>
          <ns3:TrackPointExtension>
            <ns3:hr>154</ns3:hr>
            <ns3:cad>44</ns3:cad>
          </ns3:TrackPointExtension>
        </extensions>
      </trkpt>
      <trkpt lat="45.29853983782231807708740234375" lon="-70.8507196046411991119384765625">
        <ele>1021.5999755859375</ele>
        <time>2026-08-21T14:24:20.000Z</time>
        <extensions>
          <ns3:TrackPointExtension>
            <ns3:hr>153</ns3:hr>
            <ns3:cad>44</ns3:cad>
          </ns3:TrackPointExtension>
        </extensions>
      </trkpt>
      <trkpt lat="45.29854595661163330078125" lon="-70.85072924382984638214111328125">
        <ele>1021.79998779296875</ele>
        <time>2026-08-21T14:24:21.000Z</time>
        <extensions>
          <ns3:TrackPointExtension>
            <ns3:hr>153</ns3:hr>
            <ns3:cad>40</ns3:cad>
          </ns3:TrackPointExtension>
        </extensions>
      </trkpt>
      <trkpt lat="45.298549644649028778076171875" lon="-70.85073527880012989044189453125">
        <ele>1021.79998779296875</ele>
        <time>2026-08-21T14:24:22.000Z</time>
        <extensions>
          <ns3:TrackPointExtension>
            <ns3:hr>152</ns3:hr>
            <ns3:cad>40</ns3:cad>
          </ns3:TrackPointExtension>
        </extensions>
      </trkpt>
      <trkpt lat="45.29855559580028057098388671875" lon="-70.8507390506565570831298828125">
        <ele>1022</ele>
        <time>2026-08-21T14:24:23.000Z</time>
        <extensions>
          <ns3:TrackPointExtension>
            <ns3:hr>152</ns3:hr>
            <ns3:cad>40</ns3:cad>
          </ns3:TrackPointExtension>
        </extensions>
      </trkpt>
      <trkpt lat="45.29856146313250064849853515625" lon="-70.85073946975171566009521484375">
        <ele>1022</ele>
        <time>2026-08-21T14:24:24.000Z</time>
        <extensions>
          <ns3:TrackPointExtension>
            <ns3:hr>152</ns3:hr>
            <ns3:cad>40</ns3:cad>
          </ns3:TrackPointExtension>
        </extensions>
      </trkpt>
      <trkpt lat="45.29856934212148189544677734375" lon="-70.850743912160396575927734375">
        <ele>1022.20001220703125</ele>
        <time>2026-08-21T14:24:25.000Z</time>
        <extensions>
          <ns3:TrackPointExtension>
            <ns3:hr>152</ns3:hr>
            <ns3:cad>40</ns3:cad>
          </ns3:TrackPointExtension>
        </extensions>
      </trkpt>
      <trkpt lat="45.29857906512916088104248046875" lon="-70.8507481031119823455810546875">
        <ele>1022.5999755859375</ele>
        <time>2026-08-21T14:24:26.000Z</time>
        <extensions>
          <ns3:TrackPointExtension>
            <ns3:hr>152</ns3:hr>
            <ns3:cad>41</ns3:cad>
          </ns3:TrackPointExtension>
        </extensions>
      </trkpt>
      <trkpt lat="45.29858677648007869720458984375" lon="-70.8507497794926166534423828125">
        <ele>1022.79998779296875</ele>
        <time>2026-08-21T14:24:27.000Z</time>
        <extensions>
          <ns3:TrackPointExtension>
            <ns3:hr>151</ns3:hr>
            <ns3:cad>41</ns3:cad>
          </ns3:TrackPointExtension>
        </extensions>
      </trkpt>
      <trkpt lat="45.29859465546905994415283203125" lon="-70.85075028240680694580078125">
        <ele>1023</ele>
        <time>2026-08-21T14:24:28.000Z</time>
        <extensions>
          <ns3:TrackPointExtension>
            <ns3:hr>151</ns3:hr>
            <ns3:cad>41</ns3:cad>
          </ns3:TrackPointExtension>
        </extensions>
      </trkpt>
      <trkpt lat="45.2986041270196437835693359375" lon="-70.8507521264255046844482421875">
        <ele>1023.20001220703125</ele>
        <time>2026-08-21T14:24:29.000Z</time>
        <extensions>
          <ns3:TrackPointExtension>
            <ns3:hr>150</ns3:hr>
            <ns3:cad>40</ns3:cad>
          </ns3:TrackPointExtension>
        </extensions>
      </trkpt>
      <trkpt lat="45.29861074872314929962158203125" lon="-70.85075321607291698455810546875">
        <ele>1023.4000244140625</ele>
        <time>2026-08-21T14:24:30.000Z</time>
        <extensions>
          <ns3:TrackPointExtension>
            <ns3:hr>150</ns3:hr>
            <ns3:cad>40</ns3:cad>
          </ns3:TrackPointExtension>
        </extensions>
      </trkpt>
      <trkpt lat="45.29861829243600368499755859375" lon="-70.8507517911493778228759765625">
        <ele>1023.5999755859375</ele>
        <time>2026-08-21T14:24:31.000Z</time>
        <extensions>
          <ns3:TrackPointExtension>
            <ns3:hr>150</ns3:hr>
            <ns3:cad>79</ns3:cad>
          </ns3:TrackPointExtension>
        </extensions>
      </trkpt>
      <trkpt lat="45.2986235730350017547607421875" lon="-70.85075086914002895355224609375">
        <ele>1023.79998779296875</ele>
        <time>2026-08-21T14:24:32.000Z</time>
        <extensions>
          <ns3:TrackPointExtension>
            <ns3:hr>150</ns3:hr>
            <ns3:cad>79</ns3:cad>
          </ns3:TrackPointExtension>
        </extensions>
      </trkpt>
      <trkpt lat="45.2986282669007778167724609375" lon="-70.8507527969777584075927734375">
        <ele>1024</ele>
        <time>2026-08-21T14:24:33.000Z</time>
        <extensions>
          <ns3:TrackPointExtension>
            <ns3:hr>150</ns3:hr>
            <ns3:cad>78</ns3:cad>
          </ns3:TrackPointExtension>
        </extensions>
      </trkpt>
      <trkpt lat="45.298636816442012786865234375" lon="-70.8507544733583927154541015625">
        <ele>1024.199951171875</ele>
        <time>2026-08-21T14:24:34.000Z</time>
        <extensions>
          <ns3:TrackPointExtension>
            <ns3:hr>150</ns3:hr>
            <ns3:cad>75</ns3:cad>
          </ns3:TrackPointExtension>
        </extensions>
      </trkpt>
      <trkpt lat="45.298642180860042572021484375" lon="-70.85075296461582183837890625">
        <ele>1024.4000244140625</ele>
        <time>2026-08-21T14:24:35.000Z</time>
        <extensions>
          <ns3:TrackPointExtension>
            <ns3:hr>150</ns3:hr>
            <ns3:cad>75</ns3:cad>
          </ns3:TrackPointExtension>
        </extensions>
      </trkpt>
      <trkpt lat="45.2986465394496917724609375" lon="-70.85075254552066326141357421875">
        <ele>1024.4000244140625</ele>
        <time>2026-08-21T14:24:36.000Z</time>
        <extensions>
          <ns3:TrackPointExtension>
            <ns3:hr>150</ns3:hr>
            <ns3:cad>78</ns3:cad>
          </ns3:TrackPointExtension>
        </extensions>
      </trkpt>
      <trkpt lat="45.29865324497222900390625" lon="-70.8507563173770904541015625">
        <ele>1024.5999755859375</ele>
        <time>2026-08-21T14:24:37.000Z</time>
        <extensions>
          <ns3:TrackPointExtension>
            <ns3:hr>150</ns3:hr>
            <ns3:cad>78</ns3:cad>
          </ns3:TrackPointExtension>
        </extensions>
      </trkpt>
      <trkpt lat="45.298654921352863311767578125" lon="-70.850757658481597900390625">
        <ele>1024.800048828125</ele>
        <time>2026-08-21T14:24:38.000Z</time>
        <extensions>
          <ns3:TrackPointExtension>
            <ns3:hr>150</ns3:hr>
            <ns3:cad>78</ns3:cad>
          </ns3:TrackPointExtension>
        </extensions>
      </trkpt>
      <trkpt lat="45.2986591123044490814208984375" lon="-70.85076310671865940093994140625">
        <ele>1025</ele>
        <time>2026-08-21T14:24:39.000Z</time>
        <extensions>
          <ns3:TrackPointExtension>
            <ns3:hr>150</ns3:hr>
            <ns3:cad>40</ns3:cad>
          </ns3:TrackPointExtension>
        </extensions>
      </trkpt>
      <trkpt lat="45.29866556636989116668701171875" lon="-70.85076880641281604766845703125">
        <ele>1025.199951171875</ele>
        <time>2026-08-21T14:24:40.000Z</time>
        <extensions>
          <ns3:TrackPointExtension>
            <ns3:hr>150</ns3:hr>
            <ns3:cad>40</ns3:cad>
          </ns3:TrackPointExtension>
        </extensions>
      </trkpt>
      <trkpt lat="45.298669673502445220947265625" lon="-70.85077106952667236328125">
        <ele>1025.199951171875</ele>
        <time>2026-08-21T14:24:41.000Z</time>
        <extensions>
          <ns3:TrackPointExtension>
            <ns3:hr>150</ns3:hr>
            <ns3:cad>70</ns3:cad>
          </ns3:TrackPointExtension>
        </extensions>
      </trkpt>
      <trkpt lat="45.298679061233997344970703125" lon="-70.8507739193737506866455078125">
        <ele>1025.4000244140625</ele>
        <time>2026-08-21T14:24:42.000Z</time>
        <extensions>
          <ns3:TrackPointExtension>
            <ns3:hr>150</ns3:hr>
            <ns3:cad>70</ns3:cad>
          </ns3:TrackPointExtension>
        </extensions>
      </trkpt>
      <trkpt lat="45.29868618585169315338134765625" lon="-70.85077534429728984832763671875">
        <ele>1025.5999755859375</ele>
        <time>2026-08-21T14:24:43.000Z</time>
        <extensions>
          <ns3:TrackPointExtension>
            <ns3:hr>150</ns3:hr>
            <ns3:cad>74</ns3:cad>
          </ns3:TrackPointExtension>
        </extensions>
      </trkpt>
      <trkpt lat="45.29869372956454753875732421875" lon="-70.85078221745789051055908203125">
        <ele>1025.5999755859375</ele>
        <time>2026-08-21T14:24:44.000Z</time>
        <extensions>
          <ns3:TrackPointExtension>
            <ns3:hr>150</ns3:hr>
            <ns3:cad>74</ns3:cad>
          </ns3:TrackPointExtension>
        </extensions>
      </trkpt>
      <trkpt lat="45.29869976453483104705810546875" lon="-70.8507849834859371185302734375">
        <ele>1025.800048828125</ele>
        <time>2026-08-21T14:24:45.000Z</time>
        <extensions>
          <ns3:TrackPointExtension>
            <ns3:hr>150</ns3:hr>
            <ns3:cad>74</ns3:cad>
          </ns3:TrackPointExtension>
        </extensions>
      </trkpt>
      <trkpt lat="45.298705212771892547607421875" lon="-70.85078640840947628021240234375">
        <ele>1026</ele>
        <time>2026-08-21T14:24:46.000Z</time>
        <extensions>
          <ns3:TrackPointExtension>
            <ns3:hr>150</ns3:hr>
            <ns3:cad>66</ns3:cad>
          </ns3:TrackPointExtension>
        </extensions>
      </trkpt>
      <trkpt lat="45.29871183447539806365966796875" lon="-70.8507910184562206268310546875">
        <ele>1026.199951171875</ele>
        <time>2026-08-21T14:24:47.000Z</time>
        <extensions>
          <ns3:TrackPointExtension>
            <ns3:hr>150</ns3:hr>
            <ns3:cad>66</ns3:cad>
          </ns3:TrackPointExtension>
        </extensions>
      </trkpt>
      <trkpt lat="45.2987167797982692718505859375" lon="-70.850790850818157196044921875">
        <ele>1026.4000244140625</ele>
        <time>2026-08-21T14:24:48.000Z</time>
        <extensions>
          <ns3:TrackPointExtension>
            <ns3:hr>150</ns3:hr>
            <ns3:cad>66</ns3:cad>
          </ns3:TrackPointExtension>
        </extensions>
      </trkpt>
      <trkpt lat="45.2987189590930938720703125" lon="-70.8507885038852691650390625">
        <ele>1026.5999755859375</ele>
        <time>2026-08-21T14:24:49.000Z</time>
        <extensions>
          <ns3:TrackPointExtension>
            <ns3:hr>150</ns3:hr>
            <ns3:cad>66</ns3:cad>
          </ns3:TrackPointExtension>
        </extensions>
      </trkpt>
      <trkpt lat="45.2987229824066162109375" lon="-70.85078439675271511077880859375">
        <ele>1026.800048828125</ele>
        <time>2026-08-21T14:24:50.000Z</time>
        <extensions>
          <ns3:TrackPointExtension>
            <ns3:hr>150</ns3:hr>
            <ns3:cad>75</ns3:cad>
          </ns3:TrackPointExtension>
        </extensions>
      </trkpt>
      <trkpt lat="45.29872524552047252655029296875" lon="-70.85078003816306591033935546875">
        <ele>1026.800048828125</ele>
        <time>2026-08-21T14:24:51.000Z</time>
        <extensions>
          <ns3:TrackPointExtension>
            <ns3:hr>150</ns3:hr>
            <ns3:cad>75</ns3:cad>
          </ns3:TrackPointExtension>
        </extensions>
      </trkpt>
      <trkpt lat="45.2987315319478511810302734375" lon="-70.8507796190679073333740234375">
        <ele>1027</ele>
        <time>2026-08-21T14:24:52.000Z</time>
        <extensions>
          <ns3:TrackPointExtension>
            <ns3:hr>150</ns3:hr>
            <ns3:cad>75</ns3:cad>
          </ns3:TrackPointExtension>
        </extensions>
      </trkpt>
      <trkpt lat="45.29874066822230815887451171875" lon="-70.85078179836273193359375">
        <ele>1027</ele>
        <time>2026-08-21T14:24:53.000Z</time>
        <extensions>
          <ns3:TrackPointExtension>
            <ns3:hr>150</ns3:hr>
            <ns3:cad>75</ns3:cad>
          </ns3:TrackPointExtension>
        </extensions>
      </trkpt>
      <trkpt lat="45.29874804429709911346435546875" lon="-70.85078121162950992584228515625">
        <ele>1027</ele>
        <time>2026-08-21T14:24:54.000Z</time>
        <extensions>
          <ns3:TrackPointExtension>
            <ns3:hr>149</ns3:hr>
            <ns3:cad>75</ns3:cad>
          </ns3:TrackPointExtension>
        </extensions>
      </trkpt>
      <trkpt lat="45.29875206761062145233154296875" lon="-70.85078179836273193359375">
        <ele>1027.199951171875</ele>
        <time>2026-08-21T14:24:55.000Z</time>
        <extensions>
          <ns3:TrackPointExtension>
            <ns3:hr>149</ns3:hr>
            <ns3:cad>54</ns3:cad>
          </ns3:TrackPointExtension>
        </extensions>
      </trkpt>
      <trkpt lat="45.29875743202865123748779296875" lon="-70.85078179836273193359375">
        <ele>1027.4000244140625</ele>
        <time>2026-08-21T14:24:56.000Z</time>
        <extensions>
          <ns3:TrackPointExtension>
            <ns3:hr>148</ns3:hr>
            <ns3:cad>41</ns3:cad>
          </ns3:TrackPointExtension>
        </extensions>
      </trkpt>
      <trkpt lat="45.2987637184560298919677734375" lon="-70.85078422911465167999267578125">
        <ele>1027.5999755859375</ele>
        <time>2026-08-21T14:24:57.000Z</time>
        <extensions>
          <ns3:TrackPointExtension>
            <ns3:hr>148</ns3:hr>
            <ns3:cad>40</ns3:cad>
          </ns3:TrackPointExtension>
        </extensions>
      </trkpt>
      <trkpt lat="45.29876899905502796173095703125" lon="-70.85078825242817401885986328125">
        <ele>1027.800048828125</ele>
        <time>2026-08-21T14:24:58.000Z</time>
        <extensions>
          <ns3:TrackPointExtension>
            <ns3:hr>148</ns3:hr>
            <ns3:cad>40</ns3:cad>
          </ns3:TrackPointExtension>
        </extensions>
      </trkpt>
      <trkpt lat="45.29877453111112117767333984375" lon="-70.850789844989776611328125">
        <ele>1028</ele>
        <time>2026-08-21T14:24:59.000Z</time>
        <extensions>
          <ns3:TrackPointExtension>
            <ns3:hr>148</ns3:hr>
            <ns3:cad>40</ns3:cad>
          </ns3:TrackPointExtension>
        </extensions>
      </trkpt>
      <trkpt lat="45.29878291301429271697998046875" lon="-70.85078716278076171875">
        <ele>1028.199951171875</ele>
        <time>2026-08-21T14:25:00.000Z</time>
        <extensions>
          <ns3:TrackPointExtension>
            <ns3:hr>149</ns3:hr>
            <ns3:cad>40</ns3:cad>
          </ns3:TrackPointExtension>
        </extensions>
      </trkpt>
      <trkpt lat="45.2987885288894176483154296875" lon="-70.85078523494303226470947265625">
        <ele>1028.4000244140625</ele>
        <time>2026-08-21T14:25:01.000Z</time>
        <extensions>
          <ns3:TrackPointExtension>
            <ns3:hr>149</ns3:hr>
            <ns3:cad>40</ns3:cad>
          </ns3:TrackPointExtension>
        </extensions>
      </trkpt>
      <trkpt lat="45.2987955696880817413330078125" lon="-70.85078858770430088043212890625">
        <ele>1028.4000244140625</ele>
        <time>2026-08-21T14:25:02.000Z</time>
        <extensions>
          <ns3:TrackPointExtension>
            <ns3:hr>149</ns3:hr>
            <ns3:cad>42</ns3:cad>
          </ns3:TrackPointExtension>
        </extensions>
      </trkpt>
      <trkpt lat="45.2988021075725555419921875" lon="-70.85079378448426723480224609375">
        <ele>1028.5999755859375</ele>
        <time>2026-08-21T14:25:03.000Z</time>
        <extensions>
          <ns3:TrackPointExtension>
            <ns3:hr>149</ns3:hr>
            <ns3:cad>42</ns3:cad>
          </ns3:TrackPointExtension>
        </extensions>
      </trkpt>
      <trkpt lat="45.298806466162204742431640625" lon="-70.85079495795071125030517578125">
        <ele>1028.800048828125</ele>
        <time>2026-08-21T14:25:04.000Z</time>
        <extensions>
          <ns3:TrackPointExtension>
            <ns3:hr>148</ns3:hr>
            <ns3:cad>42</ns3:cad>
          </ns3:TrackPointExtension>
        </extensions>
      </trkpt>
      <trkpt lat="45.2988128364086151123046875" lon="-70.8507967181503772735595703125">
        <ele>1029</ele>
        <time>2026-08-21T14:25:05.000Z</time>
        <extensions>
          <ns3:TrackPointExtension>
            <ns3:hr>148</ns3:hr>
            <ns3:cad>43</ns3:cad>
          </ns3:TrackPointExtension>
        </extensions>
      </trkpt>
      <trkpt lat="45.298817865550518035888671875" lon="-70.85079797543585300445556640625">
        <ele>1029</ele>
        <time>2026-08-21T14:25:06.000Z</time>
        <extensions>
          <ns3:TrackPointExtension>
            <ns3:hr>148</ns3:hr>
            <ns3:cad>43</ns3:cad>
          </ns3:TrackPointExtension>
        </extensions>
      </trkpt>
      <trkpt lat="45.29882331378757953643798828125" lon="-70.85079797543585300445556640625">
        <ele>1029.199951171875</ele>
        <time>2026-08-21T14:25:07.000Z</time>
        <extensions>
          <ns3:TrackPointExtension>
            <ns3:hr>148</ns3:hr>
            <ns3:cad>42</ns3:cad>
          </ns3:TrackPointExtension>
        </extensions>
      </trkpt>
      <trkpt lat="45.29882985167205333709716796875" lon="-70.85079864598810672760009765625">
        <ele>1029.4000244140625</ele>
        <time>2026-08-21T14:25:08.000Z</time>
        <extensions>
          <ns3:TrackPointExtension>
            <ns3:hr>148</ns3:hr>
            <ns3:cad>42</ns3:cad>
          </ns3:TrackPointExtension>
        </extensions>
      </trkpt>
      <trkpt lat="45.2988374792039394378662109375" lon="-70.8507994003593921661376953125">
        <ele>1029.5999755859375</ele>
        <time>2026-08-21T14:25:09.000Z</time>
        <extensions>
          <ns3:TrackPointExtension>
            <ns3:hr>148</ns3:hr>
            <ns3:cad>42</ns3:cad>
          </ns3:TrackPointExtension>
        </extensions>
      </trkpt>
      <trkpt lat="45.29884527437388896942138671875" lon="-70.850798226892948150634765625">
        <ele>1029.800048828125</ele>
        <time>2026-08-21T14:25:10.000Z</time>
        <extensions>
          <ns3:TrackPointExtension>
            <ns3:hr>148</ns3:hr>
            <ns3:cad>43</ns3:cad>
          </ns3:TrackPointExtension>
        </extensions>
      </trkpt>
      <trkpt lat="45.2988535724580287933349609375" lon="-70.85079696960747241973876953125">
        <ele>1030</ele>
        <time>2026-08-21T14:25:11.000Z</time>
        <extensions>
          <ns3:TrackPointExtension>
            <ns3:hr>148</ns3:hr>
            <ns3:cad>43</ns3:cad>
          </ns3:TrackPointExtension>
        </extensions>
      </trkpt>
      <trkpt lat="45.29885902069509029388427734375" lon="-70.85079931654036045074462890625">
        <ele>1030.199951171875</ele>
        <time>2026-08-21T14:25:12.000Z</time>
        <extensions>
          <ns3:TrackPointExtension>
            <ns3:hr>148</ns3:hr>
            <ns3:cad>43</ns3:cad>
          </ns3:TrackPointExtension>
        </extensions>
      </trkpt>
      <trkpt lat="45.298863463103771209716796875" lon="-70.850799567997455596923828125">
        <ele>1030.4000244140625</ele>
        <time>2026-08-21T14:25:13.000Z</time>
        <extensions>
          <ns3:TrackPointExtension>
            <ns3:hr>147</ns3:hr>
            <ns3:cad>43</ns3:cad>
          </ns3:TrackPointExtension>
        </extensions>
      </trkpt>
      <trkpt lat="45.298872850835323333740234375" lon="-70.85080132819712162017822265625">
        <ele>1030.5999755859375</ele>
        <time>2026-08-21T14:25:14.000Z</time>
        <extensions>
          <ns3:TrackPointExtension>
            <ns3:hr>147</ns3:hr>
            <ns3:cad>43</ns3:cad>
          </ns3:TrackPointExtension>
        </extensions>
      </trkpt>
      <trkpt lat="45.29887846671044826507568359375" lon="-70.850804932415485382080078125">
        <ele>1030.800048828125</ele>
        <time>2026-08-21T14:25:15.000Z</time>
        <extensions>
          <ns3:TrackPointExtension>
            <ns3:hr>146</ns3:hr>
            <ns3:cad>43</ns3:cad>
          </ns3:TrackPointExtension>
        </extensions>
      </trkpt>
      <trkpt lat="45.29888592660427093505859375" lon="-70.85080401040613651275634765625">
        <ele>1031</ele>
        <time>2026-08-21T14:25:16.000Z</time>
        <extensions>
          <ns3:TrackPointExtension>
            <ns3:hr>147</ns3:hr>
            <ns3:cad>43</ns3:cad>
          </ns3:TrackPointExtension>
        </extensions>
      </trkpt>
      <trkpt lat="45.29889263212680816650390625" lon="-70.8508030883967876434326171875">
        <ele>1031</ele>
        <time>2026-08-21T14:25:17.000Z</time>
        <extensions>
          <ns3:TrackPointExtension>
            <ns3:hr>146</ns3:hr>
            <ns3:cad>44</ns3:cad>
          </ns3:TrackPointExtension>
        </extensions>
      </trkpt>
      <trkpt lat="45.298900343477725982666015625" lon="-70.850802920758724212646484375">
        <ele>1031.199951171875</ele>
        <time>2026-08-21T14:25:18.000Z</time>
        <extensions>
          <ns3:TrackPointExtension>
            <ns3:hr>147</ns3:hr>
            <ns3:cad>44</ns3:cad>
          </ns3:TrackPointExtension>
        </extensions>
      </trkpt>
      <trkpt lat="45.29890746809542179107666015625" lon="-70.85080258548259735107421875">
        <ele>1031.4000244140625</ele>
        <time>2026-08-21T14:25:19.000Z</time>
        <extensions>
          <ns3:TrackPointExtension>
            <ns3:hr>147</ns3:hr>
            <ns3:cad>45</ns3:cad>
          </ns3:TrackPointExtension>
        </extensions>
      </trkpt>
      <trkpt lat="45.29891584999859333038330078125" lon="-70.850800573825836181640625">
        <ele>1031.5999755859375</ele>
        <time>2026-08-21T14:25:20.000Z</time>
        <extensions>
          <ns3:TrackPointExtension>
            <ns3:hr>148</ns3:hr>
            <ns3:cad>43</ns3:cad>
          </ns3:TrackPointExtension>
        </extensions>
      </trkpt>
      <trkpt lat="45.2989228069782257080078125" lon="-70.85080384276807308197021484375">
        <ele>1031.800048828125</ele>
        <time>2026-08-21T14:25:21.000Z</time>
        <extensions>
          <ns3:TrackPointExtension>
            <ns3:hr>148</ns3:hr>
            <ns3:cad>43</ns3:cad>
          </ns3:TrackPointExtension>
        </extensions>
      </trkpt>
      <trkpt lat="45.298927836120128631591796875" lon="-70.85080686025321483612060546875">
        <ele>1032</ele>
        <time>2026-08-21T14:25:22.000Z</time>
        <extensions>
          <ns3:TrackPointExtension>
            <ns3:hr>148</ns3:hr>
            <ns3:cad>42</ns3:cad>
          </ns3:TrackPointExtension>
        </extensions>
      </trkpt>
      <trkpt lat="45.2989353798329830169677734375" lon="-70.85080669261515140533447265625">
        <ele>1032.4000244140625</ele>
        <time>2026-08-21T14:25:23.000Z</time>
        <extensions>
          <ns3:TrackPointExtension>
            <ns3:hr>148</ns3:hr>
            <ns3:cad>42</ns3:cad>
          </ns3:TrackPointExtension>
        </extensions>
      </trkpt>
      <trkpt lat="45.2989420853555202484130859375" lon="-70.85080660879611968994140625">
        <ele>1032.5999755859375</ele>
        <time>2026-08-21T14:25:24.000Z</time>
        <extensions>
          <ns3:TrackPointExtension>
            <ns3:hr>148</ns3:hr>
            <ns3:cad>43</ns3:cad>
          </ns3:TrackPointExtension>
        </extensions>
      </trkpt>
      <trkpt lat="45.29894837178289890289306640625" lon="-70.850806273519992828369140625">
        <ele>1032.800048828125</ele>
        <time>2026-08-21T14:25:25.000Z</time>
        <extensions>
          <ns3:TrackPointExtension>
            <ns3:hr>148</ns3:hr>
            <ns3:cad>43</ns3:cad>
          </ns3:TrackPointExtension>
        </extensions>
      </trkpt>
      <trkpt lat="45.29895390383899211883544921875" lon="-70.85080635733902454376220703125">
        <ele>1033</ele>
        <time>2026-08-21T14:25:26.000Z</time>
        <extensions>
          <ns3:TrackPointExtension>
            <ns3:hr>148</ns3:hr>
            <ns3:cad>43</ns3:cad>
          </ns3:TrackPointExtension>
        </extensions>
      </trkpt>
      <trkpt lat="45.2989591844379901885986328125" lon="-70.85080686025321483612060546875">
        <ele>1033.199951171875</ele>
        <time>2026-08-21T14:25:27.000Z</time>
        <extensions>
          <ns3:TrackPointExtension>
            <ns3:hr>148</ns3:hr>
            <ns3:cad>42</ns3:cad>
          </ns3:TrackPointExtension>
        </extensions>
      </trkpt>
      <trkpt lat="45.29896630905568599700927734375" lon="-70.85080803371965885162353515625">
        <ele>1033.4000244140625</ele>
        <time>2026-08-21T14:25:28.000Z</time>
        <extensions>
          <ns3:TrackPointExtension>
            <ns3:hr>148</ns3:hr>
            <ns3:cad>42</ns3:cad>
          </ns3:TrackPointExtension>
        </extensions>
      </trkpt>
      <trkpt lat="45.29897175729274749755859375" lon="-70.85080660879611968994140625">
        <ele>1033.800048828125</ele>
        <time>2026-08-21T14:25:29.000Z</time>
        <extensions>
          <ns3:TrackPointExtension>
            <ns3:hr>148</ns3:hr>
            <ns3:cad>40</ns3:cad>
          </ns3:TrackPointExtension>
        </extensions>
      </trkpt>
      <trkpt lat="45.2989809773862361907958984375" lon="-70.85080769844353199005126953125">
        <ele>1034</ele>
        <time>2026-08-21T14:25:30.000Z</time>
        <extensions>
          <ns3:TrackPointExtension>
            <ns3:hr>148</ns3:hr>
            <ns3:cad>40</ns3:cad>
          </ns3:TrackPointExtension>
        </extensions>
      </trkpt>
      <trkpt lat="45.29898709617555141448974609375" lon="-70.85081255994737148284912109375">
        <ele>1034.199951171875</ele>
        <time>2026-08-21T14:25:31.000Z</time>
        <extensions>
          <ns3:TrackPointExtension>
            <ns3:hr>148</ns3:hr>
            <ns3:cad>42</ns3:cad>
          </ns3:TrackPointExtension>
        </extensions>
      </trkpt>
      <trkpt lat="45.29899396933615207672119140625" lon="-70.8508141525089740753173828125">
        <ele>1034.4000244140625</ele>
        <time>2026-08-21T14:25:32.000Z</time>
        <extensions>
          <ns3:TrackPointExtension>
            <ns3:hr>148</ns3:hr>
            <ns3:cad>43</ns3:cad>
          </ns3:TrackPointExtension>
        </extensions>
      </trkpt>
      <trkpt lat="45.2990034408867359161376953125" lon="-70.8508141525089740753173828125">
        <ele>1034.5999755859375</ele>
        <time>2026-08-21T14:25:33.000Z</time>
        <extensions>
          <ns3:TrackPointExtension>
            <ns3:hr>148</ns3:hr>
            <ns3:cad>43</ns3:cad>
          </ns3:TrackPointExtension>
        </extensions>
      </trkpt>
      <trkpt lat="45.2990131638944149017333984375" lon="-70.850817002356052398681640625">
        <ele>1034.800048828125</ele>
        <time>2026-08-21T14:25:34.000Z</time>
        <extensions>
          <ns3:TrackPointExtension>
            <ns3:hr>148</ns3:hr>
            <ns3:cad>42</ns3:cad>
          </ns3:TrackPointExtension>
        </extensions>
      </trkpt>
      <trkpt lat="45.29901928268373012542724609375" lon="-70.8508164994418621063232421875">
        <ele>1035</ele>
        <time>2026-08-21T14:25:35.000Z</time>
        <extensions>
          <ns3:TrackPointExtension>
            <ns3:hr>148</ns3:hr>
            <ns3:cad>42</ns3:cad>
          </ns3:TrackPointExtension>
        </extensions>
      </trkpt>
      <trkpt lat="45.29902749694883823394775390625" lon="-70.85081440396606922149658203125">
        <ele>1035.199951171875</ele>
        <time>2026-08-21T14:25:36.000Z</time>
        <extensions>
          <ns3:TrackPointExtension>
            <ns3:hr>148</ns3:hr>
            <ns3:cad>43</ns3:cad>
          </ns3:TrackPointExtension>
        </extensions>
      </trkpt>
      <trkpt lat="45.299035795032978057861328125" lon="-70.850812979042530059814453125">
        <ele>1035.4000244140625</ele>
        <time>2026-08-21T14:25:37.000Z</time>
        <extensions>
          <ns3:TrackPointExtension>
            <ns3:hr>148</ns3:hr>
            <ns3:cad>43</ns3:cad>
          </ns3:TrackPointExtension>
        </extensions>
      </trkpt>
      <trkpt lat="45.299040488898754119873046875" lon="-70.8508111350238323211669921875">
        <ele>1035.5999755859375</ele>
        <time>2026-08-21T14:25:38.000Z</time>
        <extensions>
          <ns3:TrackPointExtension>
            <ns3:hr>148</ns3:hr>
            <ns3:cad>42</ns3:cad>
          </ns3:TrackPointExtension>
        </extensions>
      </trkpt>
      <trkpt lat="45.2990487031638622283935546875" lon="-70.85081197321414947509765625">
        <ele>1035.800048828125</ele>
        <time>2026-08-21T14:25:39.000Z</time>
        <extensions>
          <ns3:TrackPointExtension>
            <ns3:hr>148</ns3:hr>
            <ns3:cad>42</ns3:cad>
          </ns3:TrackPointExtension>
        </extensions>
      </trkpt>
      <trkpt lat="45.299057923257350921630859375" lon="-70.8508131466805934906005859375">
        <ele>1036</ele>
        <time>2026-08-21T14:25:40.000Z</time>
        <extensions>
          <ns3:TrackPointExtension>
            <ns3:hr>148</ns3:hr>
            <ns3:cad>42</ns3:cad>
          </ns3:TrackPointExtension>
        </extensions>
      </trkpt>
      <trkpt lat="45.29906504787504673004150390625" lon="-70.8508111350238323211669921875">
        <ele>1036.4000244140625</ele>
        <time>2026-08-21T14:25:41.000Z</time>
        <extensions>
          <ns3:TrackPointExtension>
            <ns3:hr>148</ns3:hr>
            <ns3:cad>45</ns3:cad>
          </ns3:TrackPointExtension>
        </extensions>
      </trkpt>
      <trkpt lat="45.29907192103564739227294921875" lon="-70.85080836899578571319580078125">
        <ele>1036.5999755859375</ele>
        <time>2026-08-21T14:25:42.000Z</time>
        <extensions>
          <ns3:TrackPointExtension>
            <ns3:hr>148</ns3:hr>
            <ns3:cad>45</ns3:cad>
          </ns3:TrackPointExtension>
        </extensions>
      </trkpt>
      <trkpt lat="45.29907879419624805450439453125" lon="-70.8508074469864368438720703125">
        <ele>1036.800048828125</ele>
        <time>2026-08-21T14:25:43.000Z</time>
        <extensions>
          <ns3:TrackPointExtension>
            <ns3:hr>149</ns3:hr>
            <ns3:cad>45</ns3:cad>
          </ns3:TrackPointExtension>
        </extensions>
      </trkpt>
      <trkpt lat="45.29908709228038787841796875" lon="-70.85080686025321483612060546875">
        <ele>1037</ele>
        <time>2026-08-21T14:25:44.000Z</time>
        <extensions>
          <ns3:TrackPointExtension>
            <ns3:hr>148</ns3:hr>
            <ns3:cad>46</ns3:cad>
          </ns3:TrackPointExtension>
        </extensions>
      </trkpt>
      <trkpt lat="45.29909606091678142547607421875" lon="-70.85080518387258052825927734375">
        <ele>1037.4000244140625</ele>
        <time>2026-08-21T14:25:45.000Z</time>
        <extensions>
          <ns3:TrackPointExtension>
            <ns3:hr>148</ns3:hr>
            <ns3:cad>46</ns3:cad>
          </ns3:TrackPointExtension>
        </extensions>
      </trkpt>
      <trkpt lat="45.29910385608673095703125" lon="-70.85080686025321483612060546875">
        <ele>1037.5999755859375</ele>
        <time>2026-08-21T14:25:46.000Z</time>
        <extensions>
          <ns3:TrackPointExtension>
            <ns3:hr>148</ns3:hr>
            <ns3:cad>46</ns3:cad>
          </ns3:TrackPointExtension>
        </extensions>
      </trkpt>
      <trkpt lat="45.299112908542156219482421875" lon="-70.85080853663384914398193359375">
        <ele>1037.800048828125</ele>
        <time>2026-08-21T14:25:47.000Z</time>
        <extensions>
          <ns3:TrackPointExtension>
            <ns3:hr>148</ns3:hr>
            <ns3:cad>46</ns3:cad>
          </ns3:TrackPointExtension>
        </extensions>
      </trkpt>
      <trkpt lat="45.29912087135016918182373046875" lon="-70.850809626281261444091796875">
        <ele>1038</ele>
        <time>2026-08-21T14:25:48.000Z</time>
        <extensions>
          <ns3:TrackPointExtension>
            <ns3:hr>149</ns3:hr>
            <ns3:cad>46</ns3:cad>
          </ns3:TrackPointExtension>
        </extensions>
      </trkpt>
      <trkpt lat="45.29913268983364105224609375" lon="-70.85081088356673717498779296875">
        <ele>1038.4000244140625</ele>
        <time>2026-08-21T14:25:49.000Z</time>
        <extensions>
          <ns3:TrackPointExtension>
            <ns3:hr>149</ns3:hr>
            <ns3:cad>46</ns3:cad>
          </ns3:TrackPointExtension>
        </extensions>
      </trkpt>
      <trkpt lat="45.29914434067904949188232421875" lon="-70.8508111350238323211669921875">
        <ele>1038.5999755859375</ele>
        <time>2026-08-21T14:25:50.000Z</time>
        <extensions>
          <ns3:TrackPointExtension>
            <ns3:hr>150</ns3:hr>
            <ns3:cad>45</ns3:cad>
          </ns3:TrackPointExtension>
        </extensions>
      </trkpt>
      <trkpt lat="45.29915289022028446197509765625" lon="-70.8508144877851009368896484375">
        <ele>1038.800048828125</ele>
        <time>2026-08-21T14:25:51.000Z</time>
        <extensions>
          <ns3:TrackPointExtension>
            <ns3:hr>150</ns3:hr>
            <ns3:cad>45</ns3:cad>
          </ns3:TrackPointExtension>
        </extensions>
      </trkpt>
      <trkpt lat="45.29916244558990001678466796875" lon="-70.8508131466805934906005859375">
        <ele>1039</ele>
        <time>2026-08-21T14:25:52.000Z</time>
        <extensions>
          <ns3:TrackPointExtension>
            <ns3:hr>150</ns3:hr>
            <ns3:cad>45</ns3:cad>
          </ns3:TrackPointExtension>
        </extensions>
      </trkpt>
      <trkpt lat="45.29917250387370586395263671875" lon="-70.85080836899578571319580078125">
        <ele>1039.199951171875</ele>
        <time>2026-08-21T14:25:53.000Z</time>
        <extensions>
          <ns3:TrackPointExtension>
            <ns3:hr>151</ns3:hr>
            <ns3:cad>48</ns3:cad>
          </ns3:TrackPointExtension>
        </extensions>
      </trkpt>
      <trkpt lat="45.2991844899952411651611328125" lon="-70.85080753080546855926513671875">
        <ele>1039.5999755859375</ele>
        <time>2026-08-21T14:25:54.000Z</time>
        <extensions>
          <ns3:TrackPointExtension>
            <ns3:hr>151</ns3:hr>
            <ns3:cad>48</ns3:cad>
          </ns3:TrackPointExtension>
        </extensions>
      </trkpt>
      <trkpt lat="45.29919278807938098907470703125" lon="-70.85080820135772228240966796875">
        <ele>1039.800048828125</ele>
        <time>2026-08-21T14:25:55.000Z</time>
        <extensions>
          <ns3:TrackPointExtension>
            <ns3:hr>152</ns3:hr>
            <ns3:cad>48</ns3:cad>
          </ns3:TrackPointExtension>
        </extensions>
      </trkpt>
      <trkpt lat="45.2992032654583454132080078125" lon="-70.85080660879611968994140625">
        <ele>1040</ele>
        <time>2026-08-21T14:25:56.000Z</time>
        <extensions>
          <ns3:TrackPointExtension>
            <ns3:hr>152</ns3:hr>
            <ns3:cad>47</ns3:cad>
          </ns3:TrackPointExtension>
        </extensions>
      </trkpt>
      <trkpt lat="45.2992123179137706756591796875" lon="-70.85080250166356563568115234375">
        <ele>1040.199951171875</ele>
        <time>2026-08-21T14:25:57.000Z</time>
        <extensions>
          <ns3:TrackPointExtension>
            <ns3:hr>152</ns3:hr>
            <ns3:cad>47</ns3:cad>
          </ns3:TrackPointExtension>
        </extensions>
      </trkpt>
      <trkpt lat="45.2992210350930690765380859375" lon="-70.850802250206470489501953125">
        <ele>1040.5999755859375</ele>
        <time>2026-08-21T14:25:58.000Z</time>
        <extensions>
          <ns3:TrackPointExtension>
            <ns3:hr>152</ns3:hr>
            <ns3:cad>47</ns3:cad>
          </ns3:TrackPointExtension>
        </extensions>
      </trkpt>
      <trkpt lat="45.29923327267169952392578125" lon="-70.85080065764486789703369140625">
        <ele>1040.800048828125</ele>
        <time>2026-08-21T14:25:59.000Z</time>
        <extensions>
          <ns3:TrackPointExtension>
            <ns3:hr>153</ns3:hr>
            <ns3:cad>47</ns3:cad>
          </ns3:TrackPointExtension>
        </extensions>
      </trkpt>
      <trkpt lat="45.29924408532679080963134765625" lon="-70.85079881362617015838623046875">
        <ele>1041</ele>
        <time>2026-08-21T14:26:00.000Z</time>
        <extensions>
          <ns3:TrackPointExtension>
            <ns3:hr>153</ns3:hr>
            <ns3:cad>49</ns3:cad>
          </ns3:TrackPointExtension>
        </extensions>
      </trkpt>
      <trkpt lat="45.299253053963184356689453125" lon="-70.8507977239787578582763671875">
        <ele>1041.199951171875</ele>
        <time>2026-08-21T14:26:01.000Z</time>
        <extensions>
          <ns3:TrackPointExtension>
            <ns3:hr>153</ns3:hr>
            <ns3:cad>48</ns3:cad>
          </ns3:TrackPointExtension>
        </extensions>
      </trkpt>
      <trkpt lat="45.29926286078989505767822265625" lon="-70.85079512558877468109130859375">
        <ele>1041.4000244140625</ele>
        <time>2026-08-21T14:26:02.000Z</time>
        <extensions>
          <ns3:TrackPointExtension>
            <ns3:hr>154</ns3:hr>
            <ns3:cad>47</ns3:cad>
          </ns3:TrackPointExtension>
        </extensions>
      </trkpt>
      <trkpt lat="45.29927627183496952056884765625" lon="-70.85079445503652095794677734375">
        <ele>1041.5999755859375</ele>
        <time>2026-08-21T14:26:03.000Z</time>
        <extensions>
          <ns3:TrackPointExtension>
            <ns3:hr>154</ns3:hr>
            <ns3:cad>47</ns3:cad>
          </ns3:TrackPointExtension>
        </extensions>
      </trkpt>
      <trkpt lat="45.29928767122328281402587890625" lon="-70.850795544683933258056640625">
        <ele>1041.800048828125</ele>
        <time>2026-08-21T14:26:04.000Z</time>
        <extensions>
          <ns3:TrackPointExtension>
            <ns3:hr>154</ns3:hr>
            <ns3:cad>47</ns3:cad>
          </ns3:TrackPointExtension>
        </extensions>
      </trkpt>
      <trkpt lat="45.2992983162403106689453125" lon="-70.85079562850296497344970703125">
        <ele>1042</ele>
        <time>2026-08-21T14:26:05.000Z</time>
        <extensions>
          <ns3:TrackPointExtension>
            <ns3:hr>154</ns3:hr>
            <ns3:cad>50</ns3:cad>
          </ns3:TrackPointExtension>
        </extensions>
      </trkpt>
      <trkpt lat="45.29930896125733852386474609375" lon="-70.85079831071197986602783203125">
        <ele>1042</ele>
        <time>2026-08-21T14:26:06.000Z</time>
        <extensions>
          <ns3:TrackPointExtension>
            <ns3:hr>154</ns3:hr>
            <ns3:cad>50</ns3:cad>
          </ns3:TrackPointExtension>
        </extensions>
      </trkpt>
      <trkpt lat="45.29932354576885700225830078125" lon="-70.85080551914870738983154296875">
        <ele>1042.199951171875</ele>
        <time>2026-08-21T14:26:07.000Z</time>
        <extensions>
          <ns3:TrackPointExtension>
            <ns3:hr>155</ns3:hr>
            <ns3:cad>51</ns3:cad>
          </ns3:TrackPointExtension>
        </extensions>
      </trkpt>
      <trkpt lat="45.29933460988104343414306640625" lon="-70.8508074469864368438720703125">
        <ele>1042.4000244140625</ele>
        <time>2026-08-21T14:26:08.000Z</time>
        <extensions>
          <ns3:TrackPointExtension>
            <ns3:hr>154</ns3:hr>
            <ns3:cad>51</ns3:cad>
          </ns3:TrackPointExtension>
        </extensions>
      </trkpt>
      <trkpt lat="45.299346931278705596923828125" lon="-70.85080753080546855926513671875">
        <ele>1042.5999755859375</ele>
        <time>2026-08-21T14:26:09.000Z</time>
        <extensions>
          <ns3:TrackPointExtension>
            <ns3:hr>155</ns3:hr>
            <ns3:cad>51</ns3:cad>
          </ns3:TrackPointExtension>
        </extensions>
      </trkpt>
      <trkpt lat="45.29936059378087520599365234375" lon="-70.850807614624500274658203125">
        <ele>1042.5999755859375</ele>
        <time>2026-08-21T14:26:10.000Z</time>
        <extensions>
          <ns3:TrackPointExtension>
            <ns3:hr>155</ns3:hr>
            <ns3:cad>50</ns3:cad>
          </ns3:TrackPointExtension>
        </extensions>
      </trkpt>
      <trkpt lat="45.2993719093501567840576171875" lon="-70.85080803371965885162353515625">
        <ele>1042.800048828125</ele>
        <time>2026-08-21T14:26:11.000Z</time>
        <extensions>
          <ns3:TrackPointExtension>
            <ns3:hr>155</ns3:hr>
            <ns3:cad>50</ns3:cad>
          </ns3:TrackPointExtension>
        </extensions>
      </trkpt>
      <trkpt lat="45.29938079416751861572265625" lon="-70.85080702789127826690673828125">
        <ele>1043</ele>
        <time>2026-08-21T14:26:12.000Z</time>
        <extensions>
          <ns3:TrackPointExtension>
            <ns3:hr>155</ns3:hr>
            <ns3:cad>50</ns3:cad>
          </ns3:TrackPointExtension>
        </extensions>
      </trkpt>
      <trkpt lat="45.29939294792711734771728515625" lon="-70.85080551914870738983154296875">
        <ele>1043.199951171875</ele>
        <time>2026-08-21T14:26:13.000Z</time>
        <extensions>
          <ns3:TrackPointExtension>
            <ns3:hr>155</ns3:hr>
            <ns3:cad>50</ns3:cad>
          </ns3:TrackPointExtension>
        </extensions>
      </trkpt>
      <trkpt lat="45.29940568841993808746337890625" lon="-70.85080635733902454376220703125">
        <ele>1043.4000244140625</ele>
        <time>2026-08-21T14:26:14.000Z</time>
        <extensions>
          <ns3:TrackPointExtension>
            <ns3:hr>155</ns3:hr>
            <ns3:cad>50</ns3:cad>
          </ns3:TrackPointExtension>
        </extensions>
      </trkpt>
      <trkpt lat="45.29941658489406108856201171875" lon="-70.85080887190997600555419921875">
        <ele>1043.5999755859375</ele>
        <time>2026-08-21T14:26:15.000Z</time>
        <extensions>
          <ns3:TrackPointExtension>
            <ns3:hr>155</ns3:hr>
            <ns3:cad>50</ns3:cad>
          </ns3:TrackPointExtension>
        </extensions>
      </trkpt>
      <trkpt lat="45.29942882247269153594970703125" lon="-70.85080971010029315948486328125">
        <ele>1043.5999755859375</ele>
        <time>2026-08-21T14:26:16.000Z</time>
        <extensions>
          <ns3:TrackPointExtension>
            <ns3:hr>155</ns3:hr>
            <ns3:cad>50</ns3:cad>
          </ns3:TrackPointExtension>
        </extensions>
      </trkpt>
      <trkpt lat="45.29944273643195629119873046875" lon="-70.85081038065254688262939453125">
        <ele>1043.800048828125</ele>
        <time>2026-08-21T14:26:17.000Z</time>
        <extensions>
          <ns3:TrackPointExtension>
            <ns3:hr>155</ns3:hr>
            <ns3:cad>48</ns3:cad>
          </ns3:TrackPointExtension>
        </extensions>
      </trkpt>
      <trkpt lat="45.2994584105908870697021484375" lon="-70.85080803371965885162353515625">
        <ele>1043.800048828125</ele>
        <time>2026-08-21T14:26:18.000Z</time>
        <extensions>
          <ns3:TrackPointExtension>
            <ns3:hr>155</ns3:hr>
            <ns3:cad>48</ns3:cad>
          </ns3:TrackPointExtension>
        </extensions>
      </trkpt>
      <trkpt lat="45.29947475530207157135009765625" lon="-70.850804261863231658935546875">
        <ele>1043.800048828125</ele>
        <time>2026-08-21T14:26:19.000Z</time>
        <extensions>
          <ns3:TrackPointExtension>
            <ns3:hr>155</ns3:hr>
            <ns3:cad>49</ns3:cad>
          </ns3:TrackPointExtension>
        </extensions>
      </trkpt>
      <trkpt lat="45.29948967508971691131591796875" lon="-70.8507992327213287353515625">
        <ele>1044</ele>
        <time>2026-08-21T14:26:20.000Z</time>
        <extensions>
          <ns3:TrackPointExtension>
            <ns3:hr>155</ns3:hr>
            <ns3:cad>50</ns3:cad>
          </ns3:TrackPointExtension>
        </extensions>
      </trkpt>
      <trkpt lat="45.29950493015348911285400390625" lon="-70.85079462267458438873291015625">
        <ele>1044</ele>
        <time>2026-08-21T14:26:21.000Z</time>
        <extensions>
          <ns3:TrackPointExtension>
            <ns3:hr>155</ns3:hr>
            <ns3:cad>50</ns3:cad>
          </ns3:TrackPointExtension>
        </extensions>
      </trkpt>
      <trkpt lat="45.2995187602937221527099609375" lon="-70.85079026408493518829345703125">
        <ele>1043.800048828125</ele>
        <time>2026-08-21T14:26:22.000Z</time>
        <extensions>
          <ns3:TrackPointExtension>
            <ns3:hr>155</ns3:hr>
            <ns3:cad>52</ns3:cad>
          </ns3:TrackPointExtension>
        </extensions>
      </trkpt>
      <trkpt lat="45.29953259043395519256591796875" lon="-70.85078917443752288818359375">
        <ele>1043.800048828125</ele>
        <time>2026-08-21T14:26:23.000Z</time>
        <extensions>
          <ns3:TrackPointExtension>
            <ns3:hr>154</ns3:hr>
            <ns3:cad>52</ns3:cad>
          </ns3:TrackPointExtension>
        </extensions>
      </trkpt>
      <trkpt lat="45.299546420574188232421875" lon="-70.85079696960747241973876953125">
        <ele>1043.800048828125</ele>
        <time>2026-08-21T14:26:24.000Z</time>
        <extensions>
          <ns3:TrackPointExtension>
            <ns3:hr>154</ns3:hr>
            <ns3:cad>53</ns3:cad>
          </ns3:TrackPointExtension>
        </extensions>
      </trkpt>
      <trkpt lat="45.299558155238628387451171875" lon="-70.850805938243865966796875">
        <ele>1043.800048828125</ele>
        <time>2026-08-21T14:26:25.000Z</time>
        <extensions>
          <ns3:TrackPointExtension>
            <ns3:hr>154</ns3:hr>
            <ns3:cad>54</ns3:cad>
          </ns3:TrackPointExtension>
        </extensions>
      </trkpt>
      <trkpt lat="45.299567878246307373046875" lon="-70.8508171699941158294677734375">
        <ele>1043.800048828125</ele>
        <time>2026-08-21T14:26:26.000Z</time>
        <extensions>
          <ns3:TrackPointExtension>
            <ns3:hr>154</ns3:hr>
            <ns3:cad>54</ns3:cad>
          </ns3:TrackPointExtension>
        </extensions>
      </trkpt>
      <trkpt lat="45.29957483522593975067138671875" lon="-70.8508314192295074462890625">
        <ele>1043.800048828125</ele>
        <time>2026-08-21T14:26:27.000Z</time>
        <extensions>
          <ns3:TrackPointExtension>
            <ns3:hr>154</ns3:hr>
            <ns3:cad>55</ns3:cad>
          </ns3:TrackPointExtension>
        </extensions>
      </trkpt>
      <trkpt lat="45.29958170838654041290283203125" lon="-70.8508480153977870941162109375">
        <ele>1043.800048828125</ele>
        <time>2026-08-21T14:26:28.000Z</time>
        <extensions>
          <ns3:TrackPointExtension>
            <ns3:hr>154</ns3:hr>
            <ns3:cad>55</ns3:cad>
          </ns3:TrackPointExtension>
        </extensions>
      </trkpt>
      <trkpt lat="45.2995884977281093597412109375" lon="-70.8508617617189884185791015625">
        <ele>1043.800048828125</ele>
        <time>2026-08-21T14:26:29.000Z</time>
        <extensions>
          <ns3:TrackPointExtension>
            <ns3:hr>153</ns3:hr>
            <ns3:cad>55</ns3:cad>
          </ns3:TrackPointExtension>
        </extensions>
      </trkpt>
      <trkpt lat="45.29959260486066341400146484375" lon="-70.85087961517274379730224609375">
        <ele>1044</ele>
        <time>2026-08-21T14:26:30.000Z</time>
        <extensions>
          <ns3:TrackPointExtension>
            <ns3:hr>153</ns3:hr>
            <ns3:cad>55</ns3:cad>
          </ns3:TrackPointExtension>
        </extensions>
      </trkpt>
      <trkpt lat="45.29959947802126407623291015625" lon="-70.8508922718465328216552734375">
        <ele>1044</ele>
        <time>2026-08-21T14:26:31.000Z</time>
        <extensions>
          <ns3:TrackPointExtension>
            <ns3:hr>152</ns3:hr>
            <ns3:cad>55</ns3:cad>
          </ns3:TrackPointExtension>
        </extensions>
      </trkpt>
      <trkpt lat="45.299606435000896453857421875" lon="-70.85090928710997104644775390625">
        <ele>1044</ele>
        <time>2026-08-21T14:26:32.000Z</time>
        <extensions>
          <ns3:TrackPointExtension>
            <ns3:hr>152</ns3:hr>
            <ns3:cad>55</ns3:cad>
          </ns3:TrackPointExtension>
        </extensions>
      </trkpt>
      <trkpt lat="45.299610458314418792724609375" lon="-70.850930325686931610107421875">
        <ele>1044.199951171875</ele>
        <time>2026-08-21T14:26:33.000Z</time>
        <extensions>
          <ns3:TrackPointExtension>
            <ns3:hr>152</ns3:hr>
            <ns3:cad>55</ns3:cad>
          </ns3:TrackPointExtension>
        </extensions>
      </trkpt>
      <trkpt lat="45.29961724765598773956298828125" lon="-70.85094801150262355804443359375">
        <ele>1044.199951171875</ele>
        <time>2026-08-21T14:26:34.000Z</time>
        <extensions>
          <ns3:TrackPointExtension>
            <ns3:hr>151</ns3:hr>
            <ns3:cad>54</ns3:cad>
          </ns3:TrackPointExtension>
        </extensions>
      </trkpt>
      <trkpt lat="45.299625210464000701904296875" lon="-70.8509646914899349212646484375">
        <ele>1044.199951171875</ele>
        <time>2026-08-21T14:26:35.000Z</time>
        <extensions>
          <ns3:TrackPointExtension>
            <ns3:hr>150</ns3:hr>
            <ns3:cad>54</ns3:cad>
          </ns3:TrackPointExtension>
        </extensions>
      </trkpt>
      <trkpt lat="45.2996334247291088104248046875" lon="-70.8509801141917705535888671875">
        <ele>1044.4000244140625</ele>
        <time>2026-08-21T14:26:36.000Z</time>
        <extensions>
          <ns3:TrackPointExtension>
            <ns3:hr>150</ns3:hr>
            <ns3:cad>51</ns3:cad>
          </ns3:TrackPointExtension>
        </extensions>
      </trkpt>
      <trkpt lat="45.29963962733745574951171875" lon="-70.8509975485503673553466796875">
        <ele>1044.4000244140625</ele>
        <time>2026-08-21T14:26:37.000Z</time>
        <extensions>
          <ns3:TrackPointExtension>
            <ns3:hr>149</ns3:hr>
            <ns3:cad>51</ns3:cad>
          </ns3:TrackPointExtension>
        </extensions>
      </trkpt>
      <trkpt lat="45.29964557848870754241943359375" lon="-70.85101339034736156463623046875">
        <ele>1044.5999755859375</ele>
        <time>2026-08-21T14:26:38.000Z</time>
        <extensions>
          <ns3:TrackPointExtension>
            <ns3:hr>149</ns3:hr>
            <ns3:cad>51</ns3:cad>
          </ns3:TrackPointExtension>
        </extensions>
      </trkpt>
      <trkpt lat="45.29965144582092761993408203125" lon="-70.8510260470211505889892578125">
        <ele>1044.800048828125</ele>
        <time>2026-08-21T14:26:39.000Z</time>
        <extensions>
          <ns3:TrackPointExtension>
            <ns3:hr>148</ns3:hr>
            <ns3:cad>53</ns3:cad>
          </ns3:TrackPointExtension>
        </extensions>
      </trkpt>
      <trkpt lat="45.29965966008603572845458984375" lon="-70.85104071535170078277587890625">
        <ele>1044.800048828125</ele>
        <time>2026-08-21T14:26:40.000Z</time>
        <extensions>
          <ns3:TrackPointExtension>
            <ns3:hr>148</ns3:hr>
            <ns3:cad>53</ns3:cad>
          </ns3:TrackPointExtension>
        </extensions>
      </trkpt>
      <trkpt lat="45.29966619797050952911376953125" lon="-70.85105664096772670745849609375">
        <ele>1045</ele>
        <time>2026-08-21T14:26:41.000Z</time>
        <extensions>
          <ns3:TrackPointExtension>
            <ns3:hr>147</ns3:hr>
            <ns3:cad>53</ns3:cad>
          </ns3:TrackPointExtension>
        </extensions>
      </trkpt>
      <trkpt lat="45.29967273585498332977294921875" lon="-70.85106946527957916259765625">
        <ele>1045</ele>
        <time>2026-08-21T14:26:42.000Z</time>
        <extensions>
          <ns3:TrackPointExtension>
            <ns3:hr>146</ns3:hr>
            <ns3:cad>53</ns3:cad>
          </ns3:TrackPointExtension>
        </extensions>
      </trkpt>
      <trkpt lat="45.29967793263494968414306640625" lon="-70.85108296014368534088134765625">
        <ele>1045.199951171875</ele>
        <time>2026-08-21T14:26:43.000Z</time>
        <extensions>
          <ns3:TrackPointExtension>
            <ns3:hr>146</ns3:hr>
            <ns3:cad>53</ns3:cad>
          </ns3:TrackPointExtension>
        </extensions>
      </trkpt>
      <trkpt lat="45.29968195594847202301025390625" lon="-70.85109402425587177276611328125">
        <ele>1045.199951171875</ele>
        <time>2026-08-21T14:26:44.000Z</time>
        <extensions>
          <ns3:TrackPointExtension>
            <ns3:hr>146</ns3:hr>
            <ns3:cad>53</ns3:cad>
          </ns3:TrackPointExtension>
        </extensions>
      </trkpt>
      <trkpt lat="45.2996874041855335235595703125" lon="-70.85110835731029510498046875">
        <ele>1045.4000244140625</ele>
        <time>2026-08-21T14:26:45.000Z</time>
        <extensions>
          <ns3:TrackPointExtension>
            <ns3:hr>146</ns3:hr>
            <ns3:cad>53</ns3:cad>
          </ns3:TrackPointExtension>
        </extensions>
      </trkpt>
      <trkpt lat="45.299692936241626739501953125" lon="-70.85111849941313266754150390625">
        <ele>1045.4000244140625</ele>
        <time>2026-08-21T14:26:46.000Z</time>
        <extensions>
          <ns3:TrackPointExtension>
            <ns3:hr>146</ns3:hr>
            <ns3:cad>51</ns3:cad>
          </ns3:TrackPointExtension>
        </extensions>
      </trkpt>
      <trkpt lat="45.2997008152306079864501953125" lon="-70.8511283062398433685302734375">
        <ele>1045.5999755859375</ele>
        <time>2026-08-21T14:26:47.000Z</time>
        <extensions>
          <ns3:TrackPointExtension>
            <ns3:hr>145</ns3:hr>
            <ns3:cad>51</ns3:cad>
          </ns3:TrackPointExtension>
        </extensions>
      </trkpt>
      <trkpt lat="45.29970743693411350250244140625" lon="-70.8511383645236492156982421875">
        <ele>1045.5999755859375</ele>
        <time>2026-08-21T14:26:48.000Z</time>
        <extensions>
          <ns3:TrackPointExtension>
            <ns3:hr>144</ns3:hr>
            <ns3:cad>49</ns3:cad>
          </ns3:TrackPointExtension>
        </extensions>
      </trkpt>
      <trkpt lat="45.29970995150506496429443359375" lon="-70.85114993155002593994140625">
        <ele>1045.800048828125</ele>
        <time>2026-08-21T14:26:49.000Z</time>
        <extensions>
          <ns3:TrackPointExtension>
            <ns3:hr>144</ns3:hr>
            <ns3:cad>49</ns3:cad>
          </ns3:TrackPointExtension>
        </extensions>
      </trkpt>
      <trkpt lat="45.29971280135214328765869140625" lon="-70.85116107948124408721923828125">
        <ele>1045.800048828125</ele>
        <time>2026-08-21T14:26:50.000Z</time>
        <extensions>
          <ns3:TrackPointExtension>
            <ns3:hr>144</ns3:hr>
            <ns3:cad>49</ns3:cad>
          </ns3:TrackPointExtension>
        </extensions>
      </trkpt>
      <trkpt lat="45.29971648938953876495361328125" lon="-70.85116962902247905731201171875">
        <ele>1046</ele>
        <time>2026-08-21T14:26:51.000Z</time>
        <extensions>
          <ns3:TrackPointExtension>
            <ns3:hr>144</ns3:hr>
            <ns3:cad>47</ns3:cad>
          </ns3:TrackPointExtension>
        </extensions>
      </trkpt>
      <trkpt lat="45.2997175790369510650634765625" lon="-70.8511722274124622344970703125">
        <ele>1046.199951171875</ele>
        <time>2026-08-21T14:26:52.000Z</time>
        <extensions>
          <ns3:TrackPointExtension>
            <ns3:hr>144</ns3:hr>
            <ns3:cad>47</ns3:cad>
          </ns3:TrackPointExtension>
        </extensions>
      </trkpt>
      <trkpt lat="45.299718081951141357421875" lon="-70.85117784328758716583251953125">
        <ele>1046.4000244140625</ele>
        <time>2026-08-21T14:26:53.000Z</time>
        <extensions>
          <ns3:TrackPointExtension>
            <ns3:hr>144</ns3:hr>
            <ns3:cad>0</ns3:cad>
          </ns3:TrackPointExtension>
        </extensions>
      </trkpt>
      <trkpt lat="45.29971816577017307281494140625" lon="-70.851184464991092681884765625">
        <ele>1046.5999755859375</ele>
        <time>2026-08-21T14:26:54.000Z</time>
        <extensions>
          <ns3:TrackPointExtension>
            <ns3:hr>144</ns3:hr>
            <ns3:cad>44</ns3:cad>
          </ns3:TrackPointExtension>
        </extensions>
      </trkpt>
      <trkpt lat="45.2997195906937122344970703125" lon="-70.85119544528424739837646484375">
        <ele>1046.5999755859375</ele>
        <time>2026-08-21T14:26:55.000Z</time>
        <extensions>
          <ns3:TrackPointExtension>
            <ns3:hr>143</ns3:hr>
            <ns3:cad>44</ns3:cad>
          </ns3:TrackPointExtension>
        </extensions>
      </trkpt>
      <trkpt lat="45.29972386546432971954345703125" lon="-70.8512067608535289764404296875">
        <ele>1046.5999755859375</ele>
        <time>2026-08-21T14:26:56.000Z</time>
        <extensions>
          <ns3:TrackPointExtension>
            <ns3:hr>143</ns3:hr>
            <ns3:cad>0</ns3:cad>
          </ns3:TrackPointExtension>
        </extensions>
      </trkpt>
      <trkpt lat="45.2997303195297718048095703125" lon="-70.851217992603778839111328125">
        <ele>1046.5999755859375</ele>
        <time>2026-08-21T14:26:57.000Z</time>
        <extensions>
          <ns3:TrackPointExtension>
            <ns3:hr>143</ns3:hr>
            <ns3:cad>0</ns3:cad>
          </ns3:TrackPointExtension>
        </extensions>
      </trkpt>
      <trkpt lat="45.29973484575748443603515625" lon="-70.851229727268218994140625">
        <ele>1046.5999755859375</ele>
        <time>2026-08-21T14:26:58.000Z</time>
        <extensions>
          <ns3:TrackPointExtension>
            <ns3:hr>143</ns3:hr>
            <ns3:cad>0</ns3:cad>
          </ns3:TrackPointExtension>
        </extensions>
      </trkpt>
      <trkpt lat="45.29974113218486309051513671875" lon="-70.8512391149997711181640625">
        <ele>1046.5999755859375</ele>
        <time>2026-08-21T14:26:59.000Z</time>
        <extensions>
          <ns3:TrackPointExtension>
            <ns3:hr>143</ns3:hr>
            <ns3:cad>0</ns3:cad>
          </ns3:TrackPointExtension>
        </extensions>
      </trkpt>
      <trkpt lat="45.29974448494613170623779296875" lon="-70.851247496902942657470703125">
        <ele>1046.800048828125</ele>
        <time>2026-08-21T14:27:00.000Z</time>
        <extensions>
          <ns3:TrackPointExtension>
            <ns3:hr>144</ns3:hr>
            <ns3:cad>48</ns3:cad>
          </ns3:TrackPointExtension>
        </extensions>
      </trkpt>
      <trkpt lat="45.29974347911775112152099609375" lon="-70.8512526936829090118408203125">
        <ele>1047.199951171875</ele>
        <time>2026-08-21T14:27:01.000Z</time>
        <extensions>
          <ns3:TrackPointExtension>
            <ns3:hr>144</ns3:hr>
            <ns3:cad>48</ns3:cad>
          </ns3:TrackPointExtension>
        </extensions>
      </trkpt>
      <trkpt lat="45.29974314384162425994873046875" lon="-70.85126618854701519012451171875">
        <ele>1047.4000244140625</ele>
        <time>2026-08-21T14:27:02.000Z</time>
        <extensions>
          <ns3:TrackPointExtension>
            <ns3:hr>144</ns3:hr>
            <ns3:cad>48</ns3:cad>
          </ns3:TrackPointExtension>
        </extensions>
      </trkpt>
      <trkpt lat="45.2997462451457977294921875" lon="-70.85127775557339191436767578125">
        <ele>1047.800048828125</ele>
        <time>2026-08-21T14:27:03.000Z</time>
        <extensions>
          <ns3:TrackPointExtension>
            <ns3:hr>143</ns3:hr>
            <ns3:cad>49</ns3:cad>
          </ns3:TrackPointExtension>
        </extensions>
      </trkpt>
      <trkpt lat="45.29974951408803462982177734375" lon="-70.8512878976762294769287109375">
        <ele>1048.199951171875</ele>
        <time>2026-08-21T14:27:04.000Z</time>
        <extensions>
          <ns3:TrackPointExtension>
            <ns3:hr>143</ns3:hr>
            <ns3:cad>49</ns3:cad>
          </ns3:TrackPointExtension>
        </extensions>
      </trkpt>
      <trkpt lat="45.2997571416199207305908203125" lon="-70.8513039909303188323974609375">
        <ele>1048.4000244140625</ele>
        <time>2026-08-21T14:27:05.000Z</time>
        <extensions>
          <ns3:TrackPointExtension>
            <ns3:hr>143</ns3:hr>
            <ns3:cad>50</ns3:cad>
          </ns3:TrackPointExtension>
        </extensions>
      </trkpt>
      <trkpt lat="45.29976141639053821563720703125" lon="-70.85131622850894927978515625">
        <ele>1048.5999755859375</ele>
        <time>2026-08-21T14:27:06.000Z</time>
        <extensions>
          <ns3:TrackPointExtension>
            <ns3:hr>143</ns3:hr>
            <ns3:cad>50</ns3:cad>
          </ns3:TrackPointExtension>
        </extensions>
      </trkpt>
      <trkpt lat="45.29976476915180683135986328125" lon="-70.85132938809692859649658203125">
        <ele>1048.800048828125</ele>
        <time>2026-08-21T14:27:07.000Z</time>
        <extensions>
          <ns3:TrackPointExtension>
            <ns3:hr>144</ns3:hr>
            <ns3:cad>50</ns3:cad>
          </ns3:TrackPointExtension>
        </extensions>
      </trkpt>
      <trkpt lat="45.2997665293514728546142578125" lon="-70.85133827291429042816162109375">
        <ele>1049</ele>
        <time>2026-08-21T14:27:08.000Z</time>
        <extensions>
          <ns3:TrackPointExtension>
            <ns3:hr>144</ns3:hr>
            <ns3:cad>48</ns3:cad>
          </ns3:TrackPointExtension>
        </extensions>
      </trkpt>
      <trkpt lat="45.2997702173888683319091796875" lon="-70.85134564898908138275146484375">
        <ele>1049.199951171875</ele>
        <time>2026-08-21T14:27:09.000Z</time>
        <extensions>
          <ns3:TrackPointExtension>
            <ns3:hr>144</ns3:hr>
            <ns3:cad>48</ns3:cad>
          </ns3:TrackPointExtension>
        </extensions>
      </trkpt>
      <trkpt lat="45.29977432452142238616943359375" lon="-70.85135654546320438385009765625">
        <ele>1049.4000244140625</ele>
        <time>2026-08-21T14:27:10.000Z</time>
        <extensions>
          <ns3:TrackPointExtension>
            <ns3:hr>144</ns3:hr>
            <ns3:cad>47</ns3:cad>
          </ns3:TrackPointExtension>
        </extensions>
      </trkpt>
      <trkpt lat="45.29977650381624698638916015625" lon="-70.8513710461556911468505859375">
        <ele>1049.800048828125</ele>
        <time>2026-08-21T14:27:11.000Z</time>
        <extensions>
          <ns3:TrackPointExtension>
            <ns3:hr>144</ns3:hr>
            <ns3:cad>47</ns3:cad>
          </ns3:TrackPointExtension>
        </extensions>
      </trkpt>
      <trkpt lat="45.29977868311107158660888671875" lon="-70.85138269700109958648681640625">
        <ele>1050</ele>
        <time>2026-08-21T14:27:12.000Z</time>
        <extensions>
          <ns3:TrackPointExtension>
            <ns3:hr>144</ns3:hr>
            <ns3:cad>47</ns3:cad>
          </ns3:TrackPointExtension>
        </extensions>
      </trkpt>
      <trkpt lat="45.29978044331073760986328125" lon="-70.85139309056103229522705078125">
        <ele>1050.199951171875</ele>
        <time>2026-08-21T14:27:13.000Z</time>
        <extensions>
          <ns3:TrackPointExtension>
            <ns3:hr>144</ns3:hr>
            <ns3:cad>47</ns3:cad>
          </ns3:TrackPointExtension>
        </extensions>
      </trkpt>
      <trkpt lat="45.299784131348133087158203125" lon="-70.85140583105385303497314453125">
        <ele>1050.4000244140625</ele>
        <time>2026-08-21T14:27:14.000Z</time>
        <extensions>
          <ns3:TrackPointExtension>
            <ns3:hr>144</ns3:hr>
            <ns3:cad>47</ns3:cad>
          </ns3:TrackPointExtension>
        </extensions>
      </trkpt>
      <trkpt lat="45.299787484109401702880859375" lon="-70.8514189906418323516845703125">
        <ele>1050.800048828125</ele>
        <time>2026-08-21T14:27:15.000Z</time>
        <extensions>
          <ns3:TrackPointExtension>
            <ns3:hr>145</ns3:hr>
            <ns3:cad>47</ns3:cad>
          </ns3:TrackPointExtension>
        </extensions>
      </trkpt>
      <trkpt lat="45.29978983104228973388671875" lon="-70.85142779164016246795654296875">
        <ele>1051</ele>
        <time>2026-08-21T14:27:16.000Z</time>
        <extensions>
          <ns3:TrackPointExtension>
            <ns3:hr>146</ns3:hr>
            <ns3:cad>47</ns3:cad>
          </ns3:TrackPointExtension>
        </extensions>
      </trkpt>
      <trkpt lat="45.29979259707033634185791015625" lon="-70.8514370955526828765869140625">
        <ele>1051.4000244140625</ele>
        <time>2026-08-21T14:27:17.000Z</time>
        <extensions>
          <ns3:TrackPointExtension>
            <ns3:hr>147</ns3:hr>
            <ns3:cad>47</ns3:cad>
          </ns3:TrackPointExtension>
        </extensions>
      </trkpt>
      <trkpt lat="45.2997956983745098114013671875" lon="-70.8514508418738842010498046875">
        <ele>1051.5999755859375</ele>
        <time>2026-08-21T14:27:18.000Z</time>
        <extensions>
          <ns3:TrackPointExtension>
            <ns3:hr>147</ns3:hr>
            <ns3:cad>47</ns3:cad>
          </ns3:TrackPointExtension>
        </extensions>
      </trkpt>
      <trkpt lat="45.2998000569641590118408203125" lon="-70.85146383382380008697509765625">
        <ele>1051.800048828125</ele>
        <time>2026-08-21T14:27:19.000Z</time>
        <extensions>
          <ns3:TrackPointExtension>
            <ns3:hr>147</ns3:hr>
            <ns3:cad>47</ns3:cad>
          </ns3:TrackPointExtension>
        </extensions>
      </trkpt>
      <trkpt lat="45.29980332590639591217041015625" lon="-70.851476490497589111328125">
        <ele>1052.199951171875</ele>
        <time>2026-08-21T14:27:20.000Z</time>
        <extensions>
          <ns3:TrackPointExtension>
            <ns3:hr>148</ns3:hr>
            <ns3:cad>43</ns3:cad>
          </ns3:TrackPointExtension>
        </extensions>
      </trkpt>
      <trkpt lat="45.29980483464896678924560546875" lon="-70.85148612968623638153076171875">
        <ele>1052.4000244140625</ele>
        <time>2026-08-21T14:27:21.000Z</time>
        <extensions>
          <ns3:TrackPointExtension>
            <ns3:hr>148</ns3:hr>
            <ns3:cad>43</ns3:cad>
          </ns3:TrackPointExtension>
        </extensions>
      </trkpt>
      <trkpt lat="45.29980768449604511260986328125" lon="-70.8515018038451671600341796875">
        <ele>1052.5999755859375</ele>
        <time>2026-08-21T14:27:22.000Z</time>
        <extensions>
          <ns3:TrackPointExtension>
            <ns3:hr>148</ns3:hr>
            <ns3:cad>44</ns3:cad>
          </ns3:TrackPointExtension>
        </extensions>
      </trkpt>
      <trkpt lat="45.2998094446957111358642578125" lon="-70.85151496343314647674560546875">
        <ele>1052.800048828125</ele>
        <time>2026-08-21T14:27:23.000Z</time>
        <extensions>
          <ns3:TrackPointExtension>
            <ns3:hr>148</ns3:hr>
            <ns3:cad>44</ns3:cad>
          </ns3:TrackPointExtension>
        </extensions>
      </trkpt>
      <trkpt lat="45.2998065948486328125" lon="-70.85152544081211090087890625">
        <ele>1053.199951171875</ele>
        <time>2026-08-21T14:27:24.000Z</time>
        <extensions>
          <ns3:TrackPointExtension>
            <ns3:hr>148</ns3:hr>
            <ns3:cad>44</ns3:cad>
          </ns3:TrackPointExtension>
        </extensions>
      </trkpt>
      <trkpt lat="45.29980550520122051239013671875" lon="-70.8515314757823944091796875">
        <ele>1053.4000244140625</ele>
        <time>2026-08-21T14:27:25.000Z</time>
        <extensions>
          <ns3:TrackPointExtension>
            <ns3:hr>147</ns3:hr>
            <ns3:cad>46</ns3:cad>
          </ns3:TrackPointExtension>
        </extensions>
      </trkpt>
      <trkpt lat="45.29980399645864963531494140625" lon="-70.85153943859040737152099609375">
        <ele>1053.5999755859375</ele>
        <time>2026-08-21T14:27:26.000Z</time>
        <extensions>
          <ns3:TrackPointExtension>
            <ns3:hr>148</ns3:hr>
            <ns3:cad>46</ns3:cad>
          </ns3:TrackPointExtension>
        </extensions>
      </trkpt>
      <trkpt lat="45.29980114661157131195068359375" lon="-70.85154849104583263397216796875">
        <ele>1053.800048828125</ele>
        <time>2026-08-21T14:27:27.000Z</time>
        <extensions>
          <ns3:TrackPointExtension>
            <ns3:hr>148</ns3:hr>
            <ns3:cad>49</ns3:cad>
          </ns3:TrackPointExtension>
        </extensions>
      </trkpt>
      <trkpt lat="45.2997913397848606109619140625" lon="-70.85155938751995563507080078125">
        <ele>1054</ele>
        <time>2026-08-21T14:27:28.000Z</time>
        <extensions>
          <ns3:TrackPointExtension>
            <ns3:hr>148</ns3:hr>
            <ns3:cad>49</ns3:cad>
          </ns3:TrackPointExtension>
        </extensions>
      </trkpt>
      <trkpt lat="45.29978706501424312591552734375" lon="-70.85156626068055629730224609375">
        <ele>1054.199951171875</ele>
        <time>2026-08-21T14:27:29.000Z</time>
        <extensions>
          <ns3:TrackPointExtension>
            <ns3:hr>148</ns3:hr>
            <ns3:cad>50</ns3:cad>
          </ns3:TrackPointExtension>
        </extensions>
      </trkpt>
      <trkpt lat="45.29978203587234020233154296875" lon="-70.85157682187855243682861328125">
        <ele>1054.4000244140625</ele>
        <time>2026-08-21T14:27:30.000Z</time>
        <extensions>
          <ns3:TrackPointExtension>
            <ns3:hr>148</ns3:hr>
            <ns3:cad>50</ns3:cad>
          </ns3:TrackPointExtension>
        </extensions>
      </trkpt>
      <trkpt lat="45.2997779287397861480712890625" lon="-70.85158889181911945343017578125">
        <ele>1054.800048828125</ele>
        <time>2026-08-21T14:27:31.000Z</time>
        <extensions>
          <ns3:TrackPointExtension>
            <ns3:hr>149</ns3:hr>
            <ns3:cad>50</ns3:cad>
          </ns3:TrackPointExtension>
        </extensions>
      </trkpt>
      <trkpt lat="45.29977415688335895538330078125" lon="-70.85160297341644763946533203125">
        <ele>1055</ele>
        <time>2026-08-21T14:27:32.000Z</time>
        <extensions>
          <ns3:TrackPointExtension>
            <ns3:hr>149</ns3:hr>
            <ns3:cad>50</ns3:cad>
          </ns3:TrackPointExtension>
        </extensions>
      </trkpt>
      <trkpt lat="45.2997718937695026397705078125" lon="-70.85162057541310787200927734375">
        <ele>1055.4000244140625</ele>
        <time>2026-08-21T14:27:33.000Z</time>
        <extensions>
          <ns3:TrackPointExtension>
            <ns3:hr>149</ns3:hr>
            <ns3:cad>50</ns3:cad>
          </ns3:TrackPointExtension>
        </extensions>
      </trkpt>
      <trkpt lat="45.29977063648402690887451171875" lon="-70.85163616575300693511962890625">
        <ele>1055.5999755859375</ele>
        <time>2026-08-21T14:27:34.000Z</time>
        <extensions>
          <ns3:TrackPointExtension>
            <ns3:hr>150</ns3:hr>
            <ns3:cad>0</ns3:cad>
          </ns3:TrackPointExtension>
        </extensions>
      </trkpt>
      <trkpt lat="45.299772061407566070556640625" lon="-70.85165276192128658294677734375">
        <ele>1055.800048828125</ele>
        <time>2026-08-21T14:27:35.000Z</time>
        <extensions>
          <ns3:TrackPointExtension>
            <ns3:hr>150</ns3:hr>
            <ns3:cad>0</ns3:cad>
          </ns3:TrackPointExtension>
        </extensions>
      </trkpt>
      <trkpt lat="45.2997732348740100860595703125" lon="-70.85166499949991703033447265625">
        <ele>1056</ele>
        <time>2026-08-21T14:27:36.000Z</time>
        <extensions>
          <ns3:TrackPointExtension>
            <ns3:hr>151</ns3:hr>
            <ns3:cad>0</ns3:cad>
          </ns3:TrackPointExtension>
        </extensions>
      </trkpt>
      <trkpt lat="45.2997744083404541015625" lon="-70.85167757235467433929443359375">
        <ele>1056.199951171875</ele>
        <time>2026-08-21T14:27:37.000Z</time>
        <extensions>
          <ns3:TrackPointExtension>
            <ns3:hr>151</ns3:hr>
            <ns3:cad>0</ns3:cad>
          </ns3:TrackPointExtension>
        </extensions>
      </trkpt>
      <trkpt lat="45.29977432452142238616943359375" lon="-70.851693414151668548583984375">
        <ele>1056.4000244140625</ele>
        <time>2026-08-21T14:27:38.000Z</time>
        <extensions>
          <ns3:TrackPointExtension>
            <ns3:hr>152</ns3:hr>
            <ns3:cad>0</ns3:cad>
          </ns3:TrackPointExtension>
        </extensions>
      </trkpt>
      <trkpt lat="45.2997712232172489166259765625" lon="-70.85170783102512359619140625">
        <ele>1056.5999755859375</ele>
        <time>2026-08-21T14:27:39.000Z</time>
        <extensions>
          <ns3:TrackPointExtension>
            <ns3:hr>152</ns3:hr>
            <ns3:cad>0</ns3:cad>
          </ns3:TrackPointExtension>
        </extensions>
      </trkpt>
      <trkpt lat="45.2997688762843608856201171875" lon="-70.85171981714665889739990234375">
        <ele>1056.800048828125</ele>
        <time>2026-08-21T14:27:40.000Z</time>
        <extensions>
          <ns3:TrackPointExtension>
            <ns3:hr>152</ns3:hr>
            <ns3:cad>0</ns3:cad>
          </ns3:TrackPointExtension>
        </extensions>
      </trkpt>
      <trkpt lat="45.2997675351798534393310546875" lon="-70.8517338149249553680419921875">
        <ele>1057.199951171875</ele>
        <time>2026-08-21T14:27:41.000Z</time>
        <extensions>
          <ns3:TrackPointExtension>
            <ns3:hr>152</ns3:hr>
            <ns3:cad>49</ns3:cad>
          </ns3:TrackPointExtension>
        </extensions>
      </trkpt>
      <trkpt lat="45.29976577498018741607666015625" lon="-70.85174697451293468475341796875">
        <ele>1057.4000244140625</ele>
        <time>2026-08-21T14:27:42.000Z</time>
        <extensions>
          <ns3:TrackPointExtension>
            <ns3:hr>152</ns3:hr>
            <ns3:cad>49</ns3:cad>
          </ns3:TrackPointExtension>
        </extensions>
      </trkpt>
      <trkpt lat="45.29976208694279193878173828125" lon="-70.8517572842538356781005859375">
        <ele>1057.800048828125</ele>
        <time>2026-08-21T14:27:43.000Z</time>
        <extensions>
          <ns3:TrackPointExtension>
            <ns3:hr>153</ns3:hr>
            <ns3:cad>49</ns3:cad>
          </ns3:TrackPointExtension>
        </extensions>
      </trkpt>
      <trkpt lat="45.29975856654345989227294921875" lon="-70.85176859982311725616455078125">
        <ele>1058</ele>
        <time>2026-08-21T14:27:44.000Z</time>
        <extensions>
          <ns3:TrackPointExtension>
            <ns3:hr>153</ns3:hr>
            <ns3:cad>49</ns3:cad>
          </ns3:TrackPointExtension>
        </extensions>
      </trkpt>
      <trkpt lat="45.29975404031574726104736328125" lon="-70.8517797477543354034423828125">
        <ele>1058.199951171875</ele>
        <time>2026-08-21T14:27:45.000Z</time>
        <extensions>
          <ns3:TrackPointExtension>
            <ns3:hr>153</ns3:hr>
            <ns3:cad>49</ns3:cad>
          </ns3:TrackPointExtension>
        </extensions>
      </trkpt>
      <trkpt lat="45.29974917881190776824951171875" lon="-70.85178888402879238128662109375">
        <ele>1058.4000244140625</ele>
        <time>2026-08-21T14:27:46.000Z</time>
        <extensions>
          <ns3:TrackPointExtension>
            <ns3:hr>153</ns3:hr>
            <ns3:cad>49</ns3:cad>
          </ns3:TrackPointExtension>
        </extensions>
      </trkpt>
      <trkpt lat="45.2997474186122417449951171875" lon="-70.85179634392261505126953125">
        <ele>1058.800048828125</ele>
        <time>2026-08-21T14:27:47.000Z</time>
        <extensions>
          <ns3:TrackPointExtension>
            <ns3:hr>154</ns3:hr>
            <ns3:cad>49</ns3:cad>
          </ns3:TrackPointExtension>
        </extensions>
      </trkpt>
      <trkpt lat="45.299751944839954376220703125" lon="-70.8518042229115962982177734375">
        <ele>1059</ele>
        <time>2026-08-21T14:27:48.000Z</time>
        <extensions>
          <ns3:TrackPointExtension>
            <ns3:hr>154</ns3:hr>
            <ns3:cad>49</ns3:cad>
          </ns3:TrackPointExtension>
        </extensions>
      </trkpt>
      <trkpt lat="45.29974850825965404510498046875" lon="-70.85181704722344875335693359375">
        <ele>1059.199951171875</ele>
        <time>2026-08-21T14:27:49.000Z</time>
        <extensions>
          <ns3:TrackPointExtension>
            <ns3:hr>155</ns3:hr>
            <ns3:cad>49</ns3:cad>
          </ns3:TrackPointExtension>
        </extensions>
      </trkpt>
      <trkpt lat="45.2997433952987194061279296875" lon="-70.85183096118271350860595703125">
        <ele>1059.4000244140625</ele>
        <time>2026-08-21T14:27:50.000Z</time>
        <extensions>
          <ns3:TrackPointExtension>
            <ns3:hr>155</ns3:hr>
            <ns3:cad>49</ns3:cad>
          </ns3:TrackPointExtension>
        </extensions>
      </trkpt>
      <trkpt lat="45.29974331147968769073486328125" lon="-70.851836241781711578369140625">
        <ele>1059.4000244140625</ele>
        <time>2026-08-21T14:27:51.000Z</time>
        <extensions>
          <ns3:TrackPointExtension>
            <ns3:hr>155</ns3:hr>
            <ns3:cad>49</ns3:cad>
          </ns3:TrackPointExtension>
        </extensions>
      </trkpt>
      <trkpt lat="45.299739204347133636474609375" lon="-70.851844958961009979248046875">
        <ele>1059.5999755859375</ele>
        <time>2026-08-21T14:27:52.000Z</time>
        <extensions>
          <ns3:TrackPointExtension>
            <ns3:hr>155</ns3:hr>
            <ns3:cad>49</ns3:cad>
          </ns3:TrackPointExtension>
        </extensions>
      </trkpt>
      <trkpt lat="45.2997326664626598358154296875" lon="-70.8518571965396404266357421875">
        <ele>1060</ele>
        <time>2026-08-21T14:27:53.000Z</time>
        <extensions>
          <ns3:TrackPointExtension>
            <ns3:hr>155</ns3:hr>
            <ns3:cad>43</ns3:cad>
          </ns3:TrackPointExtension>
        </extensions>
      </trkpt>
      <trkpt lat="45.29972922988235950469970703125" lon="-70.85186650045216083526611328125">
        <ele>1060.199951171875</ele>
        <time>2026-08-21T14:27:54.000Z</time>
        <extensions>
          <ns3:TrackPointExtension>
            <ns3:hr>156</ns3:hr>
            <ns3:cad>42</ns3:cad>
          </ns3:TrackPointExtension>
        </extensions>
      </trkpt>
      <trkpt lat="45.29972654767334461212158203125" lon="-70.85187488235533237457275390625">
        <ele>1060.4000244140625</ele>
        <time>2026-08-21T14:27:55.000Z</time>
        <extensions>
          <ns3:TrackPointExtension>
            <ns3:hr>156</ns3:hr>
            <ns3:cad>42</ns3:cad>
          </ns3:TrackPointExtension>
        </extensions>
      </trkpt>
      <trkpt lat="45.29972051270306110382080078125" lon="-70.8518922328948974609375">
        <ele>1060.800048828125</ele>
        <time>2026-08-21T14:27:56.000Z</time>
        <extensions>
          <ns3:TrackPointExtension>
            <ns3:hr>156</ns3:hr>
            <ns3:cad>42</ns3:cad>
          </ns3:TrackPointExtension>
        </extensions>
      </trkpt>
      <trkpt lat="45.2997182495892047882080078125" lon="-70.85190053097903728485107421875">
        <ele>1061</ele>
        <time>2026-08-21T14:27:57.000Z</time>
        <extensions>
          <ns3:TrackPointExtension>
            <ns3:hr>156</ns3:hr>
            <ns3:cad>42</ns3:cad>
          </ns3:TrackPointExtension>
        </extensions>
      </trkpt>
      <trkpt lat="45.29971380718052387237548828125" lon="-70.85191436111927032470703125">
        <ele>1061.199951171875</ele>
        <time>2026-08-21T14:27:58.000Z</time>
        <extensions>
          <ns3:TrackPointExtension>
            <ns3:hr>157</ns3:hr>
            <ns3:cad>42</ns3:cad>
          </ns3:TrackPointExtension>
        </extensions>
      </trkpt>
      <trkpt lat="45.29970827512443065643310546875" lon="-70.851926095783710479736328125">
        <ele>1061.5999755859375</ele>
        <time>2026-08-21T14:27:59.000Z</time>
        <extensions>
          <ns3:TrackPointExtension>
            <ns3:hr>156</ns3:hr>
            <ns3:cad>42</ns3:cad>
          </ns3:TrackPointExtension>
        </extensions>
      </trkpt>
      <trkpt lat="45.2997014857828617095947265625" lon="-70.851932466030120849609375">
        <ele>1061.800048828125</ele>
        <time>2026-08-21T14:28:00.000Z</time>
        <extensions>
          <ns3:TrackPointExtension>
            <ns3:hr>156</ns3:hr>
            <ns3:cad>42</ns3:cad>
          </ns3:TrackPointExtension>
        </extensions>
      </trkpt>
      <trkpt lat="45.2996957860887050628662109375" lon="-70.85194093175232410430908203125">
        <ele>1062</ele>
        <time>2026-08-21T14:28:01.000Z</time>
        <extensions>
          <ns3:TrackPointExtension>
            <ns3:hr>156</ns3:hr>
            <ns3:cad>0</ns3:cad>
          </ns3:TrackPointExtension>
        </extensions>
      </trkpt>
      <trkpt lat="45.29969084076583385467529296875" lon="-70.8519490621984004974365234375">
        <ele>1062.199951171875</ele>
        <time>2026-08-21T14:28:02.000Z</time>
        <extensions>
          <ns3:TrackPointExtension>
            <ns3:hr>157</ns3:hr>
            <ns3:cad>0</ns3:cad>
          </ns3:TrackPointExtension>
        </extensions>
      </trkpt>
      <trkpt lat="45.29968899674713611602783203125" lon="-70.85197244770824909210205078125">
        <ele>1062.4000244140625</ele>
        <time>2026-08-21T14:28:03.000Z</time>
        <extensions>
          <ns3:TrackPointExtension>
            <ns3:hr>157</ns3:hr>
            <ns3:cad>0</ns3:cad>
          </ns3:TrackPointExtension>
        </extensions>
      </trkpt>
      <trkpt lat="45.29968480579555034637451171875" lon="-70.85198652930557727813720703125">
        <ele>1062.4000244140625</ele>
        <time>2026-08-21T14:28:04.000Z</time>
        <extensions>
          <ns3:TrackPointExtension>
            <ns3:hr>157</ns3:hr>
            <ns3:cad>0</ns3:cad>
          </ns3:TrackPointExtension>
        </extensions>
      </trkpt>
      <trkpt lat="45.299676172435283660888671875" lon="-70.8520023711025714874267578125">
        <ele>1062.4000244140625</ele>
        <time>2026-08-21T14:28:05.000Z</time>
        <extensions>
          <ns3:TrackPointExtension>
            <ns3:hr>156</ns3:hr>
            <ns3:cad>0</ns3:cad>
          </ns3:TrackPointExtension>
        </extensions>
      </trkpt>
      <trkpt lat="45.29967189766466617584228515625" lon="-70.85201888345181941986083984375">
        <ele>1062.5999755859375</ele>
        <time>2026-08-21T14:28:06.000Z</time>
        <extensions>
          <ns3:TrackPointExtension>
            <ns3:hr>156</ns3:hr>
            <ns3:cad>0</ns3:cad>
          </ns3:TrackPointExtension>
        </extensions>
      </trkpt>
      <trkpt lat="45.29967072419822216033935546875" lon="-70.8520415984094142913818359375">
        <ele>1062.800048828125</ele>
        <time>2026-08-21T14:28:07.000Z</time>
        <extensions>
          <ns3:TrackPointExtension>
            <ns3:hr>157</ns3:hr>
            <ns3:cad>0</ns3:cad>
          </ns3:TrackPointExtension>
        </extensions>
      </trkpt>
      <trkpt lat="45.2996729873120784759521484375" lon="-70.85206188261508941650390625">
        <ele>1062.800048828125</ele>
        <time>2026-08-21T14:28:08.000Z</time>
        <extensions>
          <ns3:TrackPointExtension>
            <ns3:hr>158</ns3:hr>
            <ns3:cad>0</ns3:cad>
          </ns3:TrackPointExtension>
        </extensions>
      </trkpt>
      <trkpt lat="45.29967793263494968414306640625" lon="-70.8520808257162570953369140625">
        <ele>1063</ele>
        <time>2026-08-21T14:28:09.000Z</time>
        <extensions>
          <ns3:TrackPointExtension>
            <ns3:hr>158</ns3:hr>
            <ns3:cad>0</ns3:cad>
          </ns3:TrackPointExtension>
        </extensions>
      </trkpt>
      <trkpt lat="45.29968329705297946929931640625" lon="-70.852098427712917327880859375">
        <ele>1063.199951171875</ele>
        <time>2026-08-21T14:28:10.000Z</time>
        <extensions>
          <ns3:TrackPointExtension>
            <ns3:hr>158</ns3:hr>
            <ns3:cad>50</ns3:cad>
          </ns3:TrackPointExtension>
        </extensions>
      </trkpt>
      <trkpt lat="45.299686230719089508056640625" lon="-70.852117203176021575927734375">
        <ele>1063.199951171875</ele>
        <time>2026-08-21T14:28:11.000Z</time>
        <extensions>
          <ns3:TrackPointExtension>
            <ns3:hr>158</ns3:hr>
            <ns3:cad>50</ns3:cad>
          </ns3:TrackPointExtension>
        </extensions>
      </trkpt>
      <trkpt lat="45.2996907569468021392822265625" lon="-70.8521351404488086700439453125">
        <ele>1063.4000244140625</ele>
        <time>2026-08-21T14:28:12.000Z</time>
        <extensions>
          <ns3:TrackPointExtension>
            <ns3:hr>158</ns3:hr>
            <ns3:cad>50</ns3:cad>
          </ns3:TrackPointExtension>
        </extensions>
      </trkpt>
      <trkpt lat="45.299698971211910247802734375" lon="-70.8521478809416294097900390625">
        <ele>1063.4000244140625</ele>
        <time>2026-08-21T14:28:13.000Z</time>
        <extensions>
          <ns3:TrackPointExtension>
            <ns3:hr>158</ns3:hr>
            <ns3:cad>49</ns3:cad>
          </ns3:TrackPointExtension>
        </extensions>
      </trkpt>
      <trkpt lat="45.299707688391208648681640625" lon="-70.852159447968006134033203125">
        <ele>1063.5999755859375</ele>
        <time>2026-08-21T14:28:14.000Z</time>
        <extensions>
          <ns3:TrackPointExtension>
            <ns3:hr>158</ns3:hr>
            <ns3:cad>49</ns3:cad>
          </ns3:TrackPointExtension>
        </extensions>
      </trkpt>
      <trkpt lat="45.29971011914312839508056640625" lon="-70.8521713502705097198486328125">
        <ele>1063.800048828125</ele>
        <time>2026-08-21T14:28:15.000Z</time>
        <extensions>
          <ns3:TrackPointExtension>
            <ns3:hr>158</ns3:hr>
            <ns3:cad>49</ns3:cad>
          </ns3:TrackPointExtension>
        </extensions>
      </trkpt>
      <trkpt lat="45.29971548356115818023681640625" lon="-70.85218400694429874420166015625">
        <ele>1063.800048828125</ele>
        <time>2026-08-21T14:28:16.000Z</time>
        <extensions>
          <ns3:TrackPointExtension>
            <ns3:hr>158</ns3:hr>
            <ns3:cad>49</ns3:cad>
          </ns3:TrackPointExtension>
        </extensions>
      </trkpt>
      <trkpt lat="45.29972076416015625" lon="-70.85219465196132659912109375">
        <ele>1064</ele>
        <time>2026-08-21T14:28:17.000Z</time>
        <extensions>
          <ns3:TrackPointExtension>
            <ns3:hr>158</ns3:hr>
            <ns3:cad>49</ns3:cad>
          </ns3:TrackPointExtension>
        </extensions>
      </trkpt>
      <trkpt lat="45.2997246198356151580810546875" lon="-70.85220814682543277740478515625">
        <ele>1064.199951171875</ele>
        <time>2026-08-21T14:28:18.000Z</time>
        <extensions>
          <ns3:TrackPointExtension>
            <ns3:hr>157</ns3:hr>
            <ns3:cad>48</ns3:cad>
          </ns3:TrackPointExtension>
        </extensions>
      </trkpt>
      <trkpt lat="45.299729146063327789306640625" lon="-70.852220468223094940185546875">
        <ele>1064.4000244140625</ele>
        <time>2026-08-21T14:28:19.000Z</time>
        <extensions>
          <ns3:TrackPointExtension>
            <ns3:hr>157</ns3:hr>
            <ns3:cad>48</ns3:cad>
          </ns3:TrackPointExtension>
        </extensions>
      </trkpt>
      <trkpt lat="45.29973409138619899749755859375" lon="-70.85223312489688396453857421875">
        <ele>1064.800048828125</ele>
        <time>2026-08-21T14:28:20.000Z</time>
        <extensions>
          <ns3:TrackPointExtension>
            <ns3:hr>157</ns3:hr>
            <ns3:cad>46</ns3:cad>
          </ns3:TrackPointExtension>
        </extensions>
      </trkpt>
      <trkpt lat="45.2997363545000553131103515625" lon="-70.85224301554262638092041015625">
        <ele>1065</ele>
        <time>2026-08-21T14:28:21.000Z</time>
        <extensions>
          <ns3:TrackPointExtension>
            <ns3:hr>157</ns3:hr>
            <ns3:cad>46</ns3:cad>
          </ns3:TrackPointExtension>
        </extensions>
      </trkpt>
      <trkpt lat="45.29974565841257572174072265625" lon="-70.8522544987499713897705078125">
        <ele>1065.199951171875</ele>
        <time>2026-08-21T14:28:22.000Z</time>
        <extensions>
          <ns3:TrackPointExtension>
            <ns3:hr>157</ns3:hr>
            <ns3:cad>44</ns3:cad>
          </ns3:TrackPointExtension>
        </extensions>
      </trkpt>
      <trkpt lat="45.2997517772018909454345703125" lon="-70.85226682014763355255126953125">
        <ele>1065.4000244140625</ele>
        <time>2026-08-21T14:28:23.000Z</time>
        <extensions>
          <ns3:TrackPointExtension>
            <ns3:hr>156</ns3:hr>
            <ns3:cad>44</ns3:cad>
          </ns3:TrackPointExtension>
        </extensions>
      </trkpt>
      <trkpt lat="45.29975504614412784576416015625" lon="-70.8522717654705047607421875">
        <ele>1065.4000244140625</ele>
        <time>2026-08-21T14:28:24.000Z</time>
        <extensions>
          <ns3:TrackPointExtension>
            <ns3:hr>156</ns3:hr>
            <ns3:cad>44</ns3:cad>
          </ns3:TrackPointExtension>
        </extensions>
      </trkpt>
      <trkpt lat="45.2997615002095699310302734375" lon="-70.85227989591658115386962890625">
        <ele>1065.5999755859375</ele>
        <time>2026-08-21T14:28:25.000Z</time>
        <extensions>
          <ns3:TrackPointExtension>
            <ns3:hr>156</ns3:hr>
            <ns3:cad>44</ns3:cad>
          </ns3:TrackPointExtension>
        </extensions>
      </trkpt>
      <trkpt lat="45.2997682057321071624755859375" lon="-70.8522900380194187164306640625">
        <ele>1065.800048828125</ele>
        <time>2026-08-21T14:28:26.000Z</time>
        <extensions>
          <ns3:TrackPointExtension>
            <ns3:hr>156</ns3:hr>
            <ns3:cad>44</ns3:cad>
          </ns3:TrackPointExtension>
        </extensions>
      </trkpt>
      <trkpt lat="45.29977465979754924774169921875" lon="-70.8522999286651611328125">
        <ele>1066</ele>
        <time>2026-08-21T14:28:27.000Z</time>
        <extensions>
          <ns3:TrackPointExtension>
            <ns3:hr>156</ns3:hr>
            <ns3:cad>43</ns3:cad>
          </ns3:TrackPointExtension>
        </extensions>
      </trkpt>
      <trkpt lat="45.2997782640159130096435546875" lon="-70.85230805911123752593994140625">
        <ele>1066</ele>
        <time>2026-08-21T14:28:28.000Z</time>
        <extensions>
          <ns3:TrackPointExtension>
            <ns3:hr>155</ns3:hr>
            <ns3:cad>43</ns3:cad>
          </ns3:TrackPointExtension>
        </extensions>
      </trkpt>
      <trkpt lat="45.2997811138629913330078125" lon="-70.8523145131766796112060546875">
        <ele>1066.199951171875</ele>
        <time>2026-08-21T14:28:29.000Z</time>
        <extensions>
          <ns3:TrackPointExtension>
            <ns3:hr>155</ns3:hr>
            <ns3:cad>43</ns3:cad>
          </ns3:TrackPointExtension>
        </extensions>
      </trkpt>
      <trkpt lat="45.2997846342623233795166015625" lon="-70.85232046432793140411376953125">
        <ele>1066.5999755859375</ele>
        <time>2026-08-21T14:28:30.000Z</time>
        <extensions>
          <ns3:TrackPointExtension>
            <ns3:hr>155</ns3:hr>
            <ns3:cad>41</ns3:cad>
          </ns3:TrackPointExtension>
        </extensions>
      </trkpt>
      <trkpt lat="45.29978773556649684906005859375" lon="-70.85232918150722980499267578125">
        <ele>1066.800048828125</ele>
        <time>2026-08-21T14:28:31.000Z</time>
        <extensions>
          <ns3:TrackPointExtension>
            <ns3:hr>154</ns3:hr>
            <ns3:cad>41</ns3:cad>
          </ns3:TrackPointExtension>
        </extensions>
      </trkpt>
      <trkpt lat="45.29978840611875057220458984375" lon="-70.8523359708487987518310546875">
        <ele>1067</ele>
        <time>2026-08-21T14:28:32.000Z</time>
        <extensions>
          <ns3:TrackPointExtension>
            <ns3:hr>154</ns3:hr>
            <ns3:cad>43</ns3:cad>
          </ns3:TrackPointExtension>
        </extensions>
      </trkpt>
      <trkpt lat="45.2997893281280994415283203125" lon="-70.85233940742909908294677734375">
        <ele>1067.199951171875</ele>
        <time>2026-08-21T14:28:33.000Z</time>
        <extensions>
          <ns3:TrackPointExtension>
            <ns3:hr>154</ns3:hr>
            <ns3:cad>43</ns3:cad>
          </ns3:TrackPointExtension>
        </extensions>
      </trkpt>
      <trkpt lat="45.2997923456132411956787109375" lon="-70.8523433469235897064208984375">
        <ele>1067.4000244140625</ele>
        <time>2026-08-21T14:28:34.000Z</time>
        <extensions>
          <ns3:TrackPointExtension>
            <ns3:hr>154</ns3:hr>
            <ns3:cad>77</ns3:cad>
          </ns3:TrackPointExtension>
        </extensions>
      </trkpt>
      <trkpt lat="45.299797542393207550048828125" lon="-70.85235332138836383819580078125">
        <ele>1067.5999755859375</ele>
        <time>2026-08-21T14:28:35.000Z</time>
        <extensions>
          <ns3:TrackPointExtension>
            <ns3:hr>154</ns3:hr>
            <ns3:cad>77</ns3:cad>
          </ns3:TrackPointExtension>
        </extensions>
      </trkpt>
      <trkpt lat="45.2997997216880321502685546875" lon="-70.852362625300884246826171875">
        <ele>1067.800048828125</ele>
        <time>2026-08-21T14:28:36.000Z</time>
        <extensions>
          <ns3:TrackPointExtension>
            <ns3:hr>154</ns3:hr>
            <ns3:cad>77</ns3:cad>
          </ns3:TrackPointExtension>
        </extensions>
      </trkpt>
      <trkpt lat="45.2998013980686664581298828125" lon="-70.852375365793704986572265625">
        <ele>1068</ele>
        <time>2026-08-21T14:28:37.000Z</time>
        <extensions>
          <ns3:TrackPointExtension>
            <ns3:hr>154</ns3:hr>
            <ns3:cad>77</ns3:cad>
          </ns3:TrackPointExtension>
        </extensions>
      </trkpt>
      <trkpt lat="45.299803577363491058349609375" lon="-70.852389447391033172607421875">
        <ele>1068.199951171875</ele>
        <time>2026-08-21T14:28:38.000Z</time>
        <extensions>
          <ns3:TrackPointExtension>
            <ns3:hr>154</ns3:hr>
            <ns3:cad>77</ns3:cad>
          </ns3:TrackPointExtension>
        </extensions>
      </trkpt>
      <trkpt lat="45.299806259572505950927734375" lon="-70.8523978292942047119140625">
        <ele>1068.4000244140625</ele>
        <time>2026-08-21T14:28:39.000Z</time>
        <extensions>
          <ns3:TrackPointExtension>
            <ns3:hr>154</ns3:hr>
            <ns3:cad>77</ns3:cad>
          </ns3:TrackPointExtension>
        </extensions>
      </trkpt>
      <trkpt lat="45.29981170780956745147705078125" lon="-70.85240847431123256683349609375">
        <ele>1068.5999755859375</ele>
        <time>2026-08-21T14:28:40.000Z</time>
        <extensions>
          <ns3:TrackPointExtension>
            <ns3:hr>154</ns3:hr>
            <ns3:cad>77</ns3:cad>
          </ns3:TrackPointExtension>
        </extensions>
      </trkpt>
      <trkpt lat="45.29981103725731372833251953125" lon="-70.8524150960147380828857421875">
        <ele>1068.800048828125</ele>
        <time>2026-08-21T14:28:41.000Z</time>
        <extensions>
          <ns3:TrackPointExtension>
            <ns3:hr>153</ns3:hr>
            <ns3:cad>77</ns3:cad>
          </ns3:TrackPointExtension>
        </extensions>
      </trkpt>
      <trkpt lat="45.2998101152479648590087890625" lon="-70.8524201251566410064697265625">
        <ele>1068.800048828125</ele>
        <time>2026-08-21T14:28:42.000Z</time>
        <extensions>
          <ns3:TrackPointExtension>
            <ns3:hr>153</ns3:hr>
            <ns3:cad>0</ns3:cad>
          </ns3:TrackPointExtension>
        </extensions>
      </trkpt>
      <trkpt lat="45.29980852268636226654052734375" lon="-70.85242398083209991455078125">
        <ele>1069</ele>
        <time>2026-08-21T14:28:43.000Z</time>
        <extensions>
          <ns3:TrackPointExtension>
            <ns3:hr>153</ns3:hr>
            <ns3:cad>0</ns3:cad>
          </ns3:TrackPointExtension>
        </extensions>
      </trkpt>
      <trkpt lat="45.2998070977628231048583984375" lon="-70.85242859087884426116943359375">
        <ele>1069.199951171875</ele>
        <time>2026-08-21T14:28:44.000Z</time>
        <extensions>
          <ns3:TrackPointExtension>
            <ns3:hr>152</ns3:hr>
            <ns3:cad>0</ns3:cad>
          </ns3:TrackPointExtension>
        </extensions>
      </trkpt>
      <trkpt lat="45.2998050861060619354248046875" lon="-70.85243278183043003082275390625">
        <ele>1069.199951171875</ele>
        <time>2026-08-21T14:28:45.000Z</time>
        <extensions>
          <ns3:TrackPointExtension>
            <ns3:hr>152</ns3:hr>
            <ns3:cad>0</ns3:cad>
          </ns3:TrackPointExtension>
        </extensions>
      </trkpt>
      <trkpt lat="45.29980592429637908935546875" lon="-70.85243831388652324676513671875">
        <ele>1069.4000244140625</ele>
        <time>2026-08-21T14:28:46.000Z</time>
        <extensions>
          <ns3:TrackPointExtension>
            <ns3:hr>152</ns3:hr>
            <ns3:cad>0</ns3:cad>
          </ns3:TrackPointExtension>
        </extensions>
      </trkpt>
      <trkpt lat="45.2998084388673305511474609375" lon="-70.8524461090564727783203125">
        <ele>1069.5999755859375</ele>
        <time>2026-08-21T14:28:47.000Z</time>
        <extensions>
          <ns3:TrackPointExtension>
            <ns3:hr>152</ns3:hr>
            <ns3:cad>76</ns3:cad>
          </ns3:TrackPointExtension>
        </extensions>
      </trkpt>
      <trkpt lat="45.29981003142893314361572265625" lon="-70.8524549938738346099853515625">
        <ele>1069.800048828125</ele>
        <time>2026-08-21T14:28:48.000Z</time>
        <extensions>
          <ns3:TrackPointExtension>
            <ns3:hr>152</ns3:hr>
            <ns3:cad>76</ns3:cad>
          </ns3:TrackPointExtension>
        </extensions>
      </trkpt>
      <trkpt lat="45.29981170780956745147705078125" lon="-70.8524697460234165191650390625">
        <ele>1069.800048828125</ele>
        <time>2026-08-21T14:28:49.000Z</time>
        <extensions>
          <ns3:TrackPointExtension>
            <ns3:hr>152</ns3:hr>
            <ns3:cad>41</ns3:cad>
          </ns3:TrackPointExtension>
        </extensions>
      </trkpt>
      <trkpt lat="45.2998161502182483673095703125" lon="-70.8524838276207447052001953125">
        <ele>1070</ele>
        <time>2026-08-21T14:28:50.000Z</time>
        <extensions>
          <ns3:TrackPointExtension>
            <ns3:hr>153</ns3:hr>
            <ns3:cad>41</ns3:cad>
          </ns3:TrackPointExtension>
        </extensions>
      </trkpt>
      <trkpt lat="45.2998201735317707061767578125" lon="-70.85249866358935832977294921875">
        <ele>1070.199951171875</ele>
        <time>2026-08-21T14:28:51.000Z</time>
        <extensions>
          <ns3:TrackPointExtension>
            <ns3:hr>153</ns3:hr>
            <ns3:cad>41</ns3:cad>
          </ns3:TrackPointExtension>
        </extensions>
      </trkpt>
      <trkpt lat="45.29982277192175388336181640625" lon="-70.85250788368284702301025390625">
        <ele>1070.199951171875</ele>
        <time>2026-08-21T14:28:52.000Z</time>
        <extensions>
          <ns3:TrackPointExtension>
            <ns3:hr>153</ns3:hr>
            <ns3:cad>0</ns3:cad>
          </ns3:TrackPointExtension>
        </extensions>
      </trkpt>
      <trkpt lat="45.29982411302626132965087890625" lon="-70.852514840662479400634765625">
        <ele>1070.4000244140625</ele>
        <time>2026-08-21T14:28:53.000Z</time>
        <extensions>
          <ns3:TrackPointExtension>
            <ns3:hr>153</ns3:hr>
            <ns3:cad>0</ns3:cad>
          </ns3:TrackPointExtension>
        </extensions>
      </trkpt>
      <trkpt lat="45.29982796870172023773193359375" lon="-70.852527581155300140380859375">
        <ele>1070.5999755859375</ele>
        <time>2026-08-21T14:28:54.000Z</time>
        <extensions>
          <ns3:TrackPointExtension>
            <ns3:hr>152</ns3:hr>
            <ns3:cad>0</ns3:cad>
          </ns3:TrackPointExtension>
        </extensions>
      </trkpt>
      <trkpt lat="45.29983249492943286895751953125" lon="-70.8525425009429454803466796875">
        <ele>1070.800048828125</ele>
        <time>2026-08-21T14:28:55.000Z</time>
        <extensions>
          <ns3:TrackPointExtension>
            <ns3:hr>152</ns3:hr>
            <ns3:cad>0</ns3:cad>
          </ns3:TrackPointExtension>
        </extensions>
      </trkpt>
      <trkpt lat="45.299836099147796630859375" lon="-70.85255180485546588897705078125">
        <ele>1071.199951171875</ele>
        <time>2026-08-21T14:28:56.000Z</time>
        <extensions>
          <ns3:TrackPointExtension>
            <ns3:hr>152</ns3:hr>
            <ns3:cad>0</ns3:cad>
          </ns3:TrackPointExtension>
        </extensions>
      </trkpt>
      <trkpt lat="45.29983886517584323883056640625" lon="-70.85256421007215976715087890625">
        <ele>1071.4000244140625</ele>
        <time>2026-08-21T14:28:57.000Z</time>
        <extensions>
          <ns3:TrackPointExtension>
            <ns3:hr>151</ns3:hr>
            <ns3:cad>0</ns3:cad>
          </ns3:TrackPointExtension>
        </extensions>
      </trkpt>
      <trkpt lat="45.29984171502292156219482421875" lon="-70.85257661528885364532470703125">
        <ele>1071.4000244140625</ele>
        <time>2026-08-21T14:28:58.000Z</time>
        <extensions>
          <ns3:TrackPointExtension>
            <ns3:hr>151</ns3:hr>
            <ns3:cad>0</ns3:cad>
          </ns3:TrackPointExtension>
        </extensions>
      </trkpt>
      <trkpt lat="45.2998419664800167083740234375" lon="-70.85258834995329380035400390625">
        <ele>1071.5999755859375</ele>
        <time>2026-08-21T14:28:59.000Z</time>
        <extensions>
          <ns3:TrackPointExtension>
            <ns3:hr>151</ns3:hr>
            <ns3:cad>45</ns3:cad>
          </ns3:TrackPointExtension>
        </extensions>
      </trkpt>
      <trkpt lat="45.29984322376549243927001953125" lon="-70.85259564220905303955078125">
        <ele>1071.800048828125</ele>
        <time>2026-08-21T14:29:00.000Z</time>
        <extensions>
          <ns3:TrackPointExtension>
            <ns3:hr>151</ns3:hr>
            <ns3:cad>45</ns3:cad>
          </ns3:TrackPointExtension>
        </extensions>
      </trkpt>
      <trkpt lat="45.2998443134129047393798828125" lon="-70.85260234773159027099609375">
        <ele>1072</ele>
        <time>2026-08-21T14:29:01.000Z</time>
        <extensions>
          <ns3:TrackPointExtension>
            <ns3:hr>151</ns3:hr>
            <ns3:cad>44</ns3:cad>
          </ns3:TrackPointExtension>
        </extensions>
      </trkpt>
      <trkpt lat="45.2998428046703338623046875" lon="-70.85261181928217411041259765625">
        <ele>1072.199951171875</ele>
        <time>2026-08-21T14:29:02.000Z</time>
        <extensions>
          <ns3:TrackPointExtension>
            <ns3:hr>152</ns3:hr>
            <ns3:cad>44</ns3:cad>
          </ns3:TrackPointExtension>
        </extensions>
      </trkpt>
      <trkpt lat="45.2998399548232555389404296875" lon="-70.85262154228985309600830078125">
        <ele>1072.4000244140625</ele>
        <time>2026-08-21T14:29:03.000Z</time>
        <extensions>
          <ns3:TrackPointExtension>
            <ns3:hr>152</ns3:hr>
            <ns3:cad>44</ns3:cad>
          </ns3:TrackPointExtension>
        </extensions>
      </trkpt>
      <trkpt lat="45.29984037391841411590576171875" lon="-70.8526363782584667205810546875">
        <ele>1072.800048828125</ele>
        <time>2026-08-21T14:29:04.000Z</time>
        <extensions>
          <ns3:TrackPointExtension>
            <ns3:hr>152</ns3:hr>
            <ns3:cad>45</ns3:cad>
          </ns3:TrackPointExtension>
        </extensions>
      </trkpt>
      <trkpt lat="45.2998412959277629852294921875" lon="-70.8526461012661457061767578125">
        <ele>1073</ele>
        <time>2026-08-21T14:29:05.000Z</time>
        <extensions>
          <ns3:TrackPointExtension>
            <ns3:hr>151</ns3:hr>
            <ns3:cad>45</ns3:cad>
          </ns3:TrackPointExtension>
        </extensions>
      </trkpt>
      <trkpt lat="45.2998406253755092620849609375" lon="-70.852658338844776153564453125">
        <ele>1073.199951171875</ele>
        <time>2026-08-21T14:29:06.000Z</time>
        <extensions>
          <ns3:TrackPointExtension>
            <ns3:hr>151</ns3:hr>
            <ns3:cad>46</ns3:cad>
          </ns3:TrackPointExtension>
        </extensions>
      </trkpt>
      <trkpt lat="45.29984054155647754669189453125" lon="-70.8526715822517871856689453125">
        <ele>1073.4000244140625</ele>
        <time>2026-08-21T14:29:07.000Z</time>
        <extensions>
          <ns3:TrackPointExtension>
            <ns3:hr>150</ns3:hr>
            <ns3:cad>46</ns3:cad>
          </ns3:TrackPointExtension>
        </extensions>
      </trkpt>
      <trkpt lat="45.29984003864228725433349609375" lon="-70.8526826463639736175537109375">
        <ele>1073.5999755859375</ele>
        <time>2026-08-21T14:29:08.000Z</time>
        <extensions>
          <ns3:TrackPointExtension>
            <ns3:hr>150</ns3:hr>
            <ns3:cad>45</ns3:cad>
          </ns3:TrackPointExtension>
        </extensions>
      </trkpt>
      <trkpt lat="45.2998401224613189697265625" lon="-70.85269144736230373382568359375">
        <ele>1073.800048828125</ele>
        <time>2026-08-21T14:29:09.000Z</time>
        <extensions>
          <ns3:TrackPointExtension>
            <ns3:hr>150</ns3:hr>
            <ns3:cad>45</ns3:cad>
          </ns3:TrackPointExtension>
        </extensions>
      </trkpt>
      <trkpt lat="45.29983685351908206939697265625" lon="-70.85270217619836330413818359375">
        <ele>1074</ele>
        <time>2026-08-21T14:29:10.000Z</time>
        <extensions>
          <ns3:TrackPointExtension>
            <ns3:hr>151</ns3:hr>
            <ns3:cad>45</ns3:cad>
          </ns3:TrackPointExtension>
        </extensions>
      </trkpt>
      <trkpt lat="45.29983400367200374603271484375" lon="-70.85271759890019893646240234375">
        <ele>1074.4000244140625</ele>
        <time>2026-08-21T14:29:11.000Z</time>
        <extensions>
          <ns3:TrackPointExtension>
            <ns3:hr>151</ns3:hr>
            <ns3:cad>44</ns3:cad>
          </ns3:TrackPointExtension>
        </extensions>
      </trkpt>
      <trkpt lat="45.299831740558147430419921875" lon="-70.85272975265979766845703125">
        <ele>1074.5999755859375</ele>
        <time>2026-08-21T14:29:12.000Z</time>
        <extensions>
          <ns3:TrackPointExtension>
            <ns3:hr>151</ns3:hr>
            <ns3:cad>44</ns3:cad>
          </ns3:TrackPointExtension>
        </extensions>
      </trkpt>
      <trkpt lat="45.2998325787484645843505859375" lon="-70.852742493152618408203125">
        <ele>1075</ele>
        <time>2026-08-21T14:29:13.000Z</time>
        <extensions>
          <ns3:TrackPointExtension>
            <ns3:hr>151</ns3:hr>
            <ns3:cad>47</ns3:cad>
          </ns3:TrackPointExtension>
        </extensions>
      </trkpt>
      <trkpt lat="45.29983215965330600738525390625" lon="-70.85275699384510517120361328125">
        <ele>1075.199951171875</ele>
        <time>2026-08-21T14:29:14.000Z</time>
        <extensions>
          <ns3:TrackPointExtension>
            <ns3:hr>151</ns3:hr>
            <ns3:cad>47</ns3:cad>
          </ns3:TrackPointExtension>
        </extensions>
      </trkpt>
      <trkpt lat="45.2998315729200839996337890625" lon="-70.85277074016630649566650390625">
        <ele>1075.4000244140625</ele>
        <time>2026-08-21T14:29:15.000Z</time>
        <extensions>
          <ns3:TrackPointExtension>
            <ns3:hr>150</ns3:hr>
            <ns3:cad>47</ns3:cad>
          </ns3:TrackPointExtension>
        </extensions>
      </trkpt>
      <trkpt lat="45.29983366839587688446044921875" lon="-70.85278213955461978912353515625">
        <ele>1075.5999755859375</ele>
        <time>2026-08-21T14:29:16.000Z</time>
        <extensions>
          <ns3:TrackPointExtension>
            <ns3:hr>150</ns3:hr>
            <ns3:cad>47</ns3:cad>
          </ns3:TrackPointExtension>
        </extensions>
      </trkpt>
      <trkpt lat="45.29983551241457462310791015625" lon="-70.85279303602874279022216796875">
        <ele>1075.800048828125</ele>
        <time>2026-08-21T14:29:17.000Z</time>
        <extensions>
          <ns3:TrackPointExtension>
            <ns3:hr>151</ns3:hr>
            <ns3:cad>47</ns3:cad>
          </ns3:TrackPointExtension>
        </extensions>
      </trkpt>
      <trkpt lat="45.29983584769070148468017578125" lon="-70.8528087101876735687255859375">
        <ele>1076</ele>
        <time>2026-08-21T14:29:18.000Z</time>
        <extensions>
          <ns3:TrackPointExtension>
            <ns3:hr>151</ns3:hr>
            <ns3:cad>47</ns3:cad>
          </ns3:TrackPointExtension>
        </extensions>
      </trkpt>
      <trkpt lat="45.2998332493007183074951171875" lon="-70.85282052867114543914794921875">
        <ele>1076.199951171875</ele>
        <time>2026-08-21T14:29:19.000Z</time>
        <extensions>
          <ns3:TrackPointExtension>
            <ns3:hr>151</ns3:hr>
            <ns3:cad>47</ns3:cad>
          </ns3:TrackPointExtension>
        </extensions>
      </trkpt>
      <trkpt lat="45.29983148910105228424072265625" lon="-70.85283159278333187103271484375">
        <ele>1076.4000244140625</ele>
        <time>2026-08-21T14:29:20.000Z</time>
        <extensions>
          <ns3:TrackPointExtension>
            <ns3:hr>151</ns3:hr>
            <ns3:cad>47</ns3:cad>
          </ns3:TrackPointExtension>
        </extensions>
      </trkpt>
      <trkpt lat="45.29983115382492542266845703125" lon="-70.852842740714550018310546875">
        <ele>1076.800048828125</ele>
        <time>2026-08-21T14:29:21.000Z</time>
        <extensions>
          <ns3:TrackPointExtension>
            <ns3:hr>152</ns3:hr>
            <ns3:cad>47</ns3:cad>
          </ns3:TrackPointExtension>
        </extensions>
      </trkpt>
      <trkpt lat="45.2998315729200839996337890625" lon="-70.8528586663305759429931640625">
        <ele>1077</ele>
        <time>2026-08-21T14:29:22.000Z</time>
        <extensions>
          <ns3:TrackPointExtension>
            <ns3:hr>151</ns3:hr>
            <ns3:cad>47</ns3:cad>
          </ns3:TrackPointExtension>
        </extensions>
      </trkpt>
      <trkpt lat="45.29983182437717914581298828125" lon="-70.85287459194660186767578125">
        <ele>1077.199951171875</ele>
        <time>2026-08-21T14:29:23.000Z</time>
        <extensions>
          <ns3:TrackPointExtension>
            <ns3:hr>151</ns3:hr>
            <ns3:cad>47</ns3:cad>
          </ns3:TrackPointExtension>
        </extensions>
      </trkpt>
      <trkpt lat="45.299834422767162322998046875" lon="-70.85288389585912227630615234375">
        <ele>1077.4000244140625</ele>
        <time>2026-08-21T14:29:24.000Z</time>
        <extensions>
          <ns3:TrackPointExtension>
            <ns3:hr>150</ns3:hr>
            <ns3:cad>47</ns3:cad>
          </ns3:TrackPointExtension>
        </extensions>
      </trkpt>
      <trkpt lat="45.299835763871669769287109375" lon="-70.85289261303842067718505859375">
        <ele>1077.800048828125</ele>
        <time>2026-08-21T14:29:25.000Z</time>
        <extensions>
          <ns3:TrackPointExtension>
            <ns3:hr>150</ns3:hr>
            <ns3:cad>47</ns3:cad>
          </ns3:TrackPointExtension>
        </extensions>
      </trkpt>
      <trkpt lat="45.29983718879520893096923828125" lon="-70.85290585644543170928955078125">
        <ele>1078</ele>
        <time>2026-08-21T14:29:26.000Z</time>
        <extensions>
          <ns3:TrackPointExtension>
            <ns3:hr>150</ns3:hr>
            <ns3:cad>45</ns3:cad>
          </ns3:TrackPointExtension>
        </extensions>
      </trkpt>
      <trkpt lat="45.29984154738485813140869140625" lon="-70.852917172014713287353515625">
        <ele>1078.199951171875</ele>
        <time>2026-08-21T14:29:27.000Z</time>
        <extensions>
          <ns3:TrackPointExtension>
            <ns3:hr>150</ns3:hr>
            <ns3:cad>44</ns3:cad>
          </ns3:TrackPointExtension>
        </extensions>
      </trkpt>
      <trkpt lat="45.29984473250806331634521484375" lon="-70.85292362608015537261962890625">
        <ele>1078.4000244140625</ele>
        <time>2026-08-21T14:29:28.000Z</time>
        <extensions>
          <ns3:TrackPointExtension>
            <ns3:hr>150</ns3:hr>
            <ns3:cad>44</ns3:cad>
          </ns3:TrackPointExtension>
        </extensions>
      </trkpt>
      <trkpt lat="45.29984758235514163970947265625" lon="-70.8529344387352466583251953125">
        <ele>1078.5999755859375</ele>
        <time>2026-08-21T14:29:29.000Z</time>
        <extensions>
          <ns3:TrackPointExtension>
            <ns3:hr>150</ns3:hr>
            <ns3:cad>44</ns3:cad>
          </ns3:TrackPointExtension>
        </extensions>
      </trkpt>
      <trkpt lat="45.29984749853610992431640625" lon="-70.8529532141983509063720703125">
        <ele>1078.800048828125</ele>
        <time>2026-08-21T14:29:30.000Z</time>
        <extensions>
          <ns3:TrackPointExtension>
            <ns3:hr>150</ns3:hr>
            <ns3:cad>44</ns3:cad>
          </ns3:TrackPointExtension>
        </extensions>
      </trkpt>
      <trkpt lat="45.29985152184963226318359375" lon="-70.85296939127147197723388671875">
        <ele>1079</ele>
        <time>2026-08-21T14:29:31.000Z</time>
        <extensions>
          <ns3:TrackPointExtension>
            <ns3:hr>151</ns3:hr>
            <ns3:cad>44</ns3:cad>
          </ns3:TrackPointExtension>
        </extensions>
      </trkpt>
      <trkpt lat="45.299851857125759124755859375" lon="-70.85298447869718074798583984375">
        <ele>1079.199951171875</ele>
        <time>2026-08-21T14:29:32.000Z</time>
        <extensions>
          <ns3:TrackPointExtension>
            <ns3:hr>150</ns3:hr>
            <ns3:cad>44</ns3:cad>
          </ns3:TrackPointExtension>
        </extensions>
      </trkpt>
      <trkpt lat="45.299851186573505401611328125" lon="-70.85299235768616199493408203125">
        <ele>1079.199951171875</ele>
        <time>2026-08-21T14:29:33.000Z</time>
        <extensions>
          <ns3:TrackPointExtension>
            <ns3:hr>150</ns3:hr>
            <ns3:cad>44</ns3:cad>
          </ns3:TrackPointExtension>
        </extensions>
      </trkpt>
      <trkpt lat="45.2998508512973785400390625" lon="-70.85300199687480926513671875">
        <ele>1079.4000244140625</ele>
        <time>2026-08-21T14:29:34.000Z</time>
        <extensions>
          <ns3:TrackPointExtension>
            <ns3:hr>151</ns3:hr>
            <ns3:cad>44</ns3:cad>
          </ns3:TrackPointExtension>
        </extensions>
      </trkpt>
      <trkpt lat="45.29985127039253711700439453125" lon="-70.85301063023507595062255859375">
        <ele>1079.5999755859375</ele>
        <time>2026-08-21T14:29:35.000Z</time>
        <extensions>
          <ns3:TrackPointExtension>
            <ns3:hr>151</ns3:hr>
            <ns3:cad>46</ns3:cad>
          </ns3:TrackPointExtension>
        </extensions>
      </trkpt>
      <trkpt lat="45.29985026456415653228759765625" lon="-70.853023119270801544189453125">
        <ele>1079.800048828125</ele>
        <time>2026-08-21T14:29:36.000Z</time>
        <extensions>
          <ns3:TrackPointExtension>
            <ns3:hr>152</ns3:hr>
            <ns3:cad>46</ns3:cad>
          </ns3:TrackPointExtension>
        </extensions>
      </trkpt>
      <trkpt lat="45.29984976164996623992919921875" lon="-70.85303954780101776123046875">
        <ele>1079.800048828125</ele>
        <time>2026-08-21T14:29:37.000Z</time>
        <extensions>
          <ns3:TrackPointExtension>
            <ns3:hr>152</ns3:hr>
            <ns3:cad>49</ns3:cad>
          </ns3:TrackPointExtension>
        </extensions>
      </trkpt>
      <trkpt lat="45.29985059984028339385986328125" lon="-70.8530524559319019317626953125">
        <ele>1080</ele>
        <time>2026-08-21T14:29:38.000Z</time>
        <extensions>
          <ns3:TrackPointExtension>
            <ns3:hr>152</ns3:hr>
            <ns3:cad>49</ns3:cad>
          </ns3:TrackPointExtension>
        </extensions>
      </trkpt>
      <trkpt lat="45.2998506836593151092529296875" lon="-70.853069722652435302734375">
        <ele>1080.199951171875</ele>
        <time>2026-08-21T14:29:39.000Z</time>
        <extensions>
          <ns3:TrackPointExtension>
            <ns3:hr>152</ns3:hr>
            <ns3:cad>49</ns3:cad>
          </ns3:TrackPointExtension>
        </extensions>
      </trkpt>
      <trkpt lat="45.299852192401885986328125" lon="-70.8530900068581104278564453125">
        <ele>1080.4000244140625</ele>
        <time>2026-08-21T14:29:40.000Z</time>
        <extensions>
          <ns3:TrackPointExtension>
            <ns3:hr>153</ns3:hr>
            <ns3:cad>48</ns3:cad>
          </ns3:TrackPointExtension>
        </extensions>
      </trkpt>
      <trkpt lat="45.29985110275447368621826171875" lon="-70.853109620511531829833984375">
        <ele>1080.4000244140625</ele>
        <time>2026-08-21T14:29:41.000Z</time>
        <extensions>
          <ns3:TrackPointExtension>
            <ns3:hr>153</ns3:hr>
            <ns3:cad>48</ns3:cad>
          </ns3:TrackPointExtension>
        </extensions>
      </trkpt>
      <trkpt lat="45.299852192401885986328125" lon="-70.85312864743173122406005859375">
        <ele>1080.5999755859375</ele>
        <time>2026-08-21T14:29:42.000Z</time>
        <extensions>
          <ns3:TrackPointExtension>
            <ns3:hr>153</ns3:hr>
            <ns3:cad>48</ns3:cad>
          </ns3:TrackPointExtension>
        </extensions>
      </trkpt>
      <trkpt lat="45.2998533658683300018310546875" lon="-70.8531459979712963104248046875">
        <ele>1080.5999755859375</ele>
        <time>2026-08-21T14:29:43.000Z</time>
        <extensions>
          <ns3:TrackPointExtension>
            <ns3:hr>152</ns3:hr>
            <ns3:cad>48</ns3:cad>
          </ns3:TrackPointExtension>
        </extensions>
      </trkpt>
      <trkpt lat="45.29985697008669376373291015625" lon="-70.85315429605543613433837890625">
        <ele>1080.800048828125</ele>
        <time>2026-08-21T14:29:44.000Z</time>
        <extensions>
          <ns3:TrackPointExtension>
            <ns3:hr>152</ns3:hr>
            <ns3:cad>48</ns3:cad>
          </ns3:TrackPointExtension>
        </extensions>
      </trkpt>
      <trkpt lat="45.29985420405864715576171875" lon="-70.85316502489149570465087890625">
        <ele>1080.800048828125</ele>
        <time>2026-08-21T14:29:45.000Z</time>
        <extensions>
          <ns3:TrackPointExtension>
            <ns3:hr>152</ns3:hr>
            <ns3:cad>48</ns3:cad>
          </ns3:TrackPointExtension>
        </extensions>
      </trkpt>
      <trkpt lat="45.29985529370605945587158203125" lon="-70.85317902266979217529296875">
        <ele>1081</ele>
        <time>2026-08-21T14:29:46.000Z</time>
        <extensions>
          <ns3:TrackPointExtension>
            <ns3:hr>152</ns3:hr>
            <ns3:cad>48</ns3:cad>
          </ns3:TrackPointExtension>
        </extensions>
      </trkpt>
      <trkpt lat="45.2998588979244232177734375" lon="-70.85319268517196178436279296875">
        <ele>1081.199951171875</ele>
        <time>2026-08-21T14:29:47.000Z</time>
        <extensions>
          <ns3:TrackPointExtension>
            <ns3:hr>152</ns3:hr>
            <ns3:cad>0</ns3:cad>
          </ns3:TrackPointExtension>
        </extensions>
      </trkpt>
      <trkpt lat="45.29986359179019927978515625" lon="-70.8532026596367359161376953125">
        <ele>1081.4000244140625</ele>
        <time>2026-08-21T14:29:48.000Z</time>
        <extensions>
          <ns3:TrackPointExtension>
            <ns3:hr>153</ns3:hr>
            <ns3:cad>0</ns3:cad>
          </ns3:TrackPointExtension>
        </extensions>
      </trkpt>
      <trkpt lat="45.29986619018018245697021484375" lon="-70.85321389138698577880859375">
        <ele>1081.5999755859375</ele>
        <time>2026-08-21T14:29:49.000Z</time>
        <extensions>
          <ns3:TrackPointExtension>
            <ns3:hr>152</ns3:hr>
            <ns3:cad>46</ns3:cad>
          </ns3:TrackPointExtension>
        </extensions>
      </trkpt>
      <trkpt lat="45.299871303141117095947265625" lon="-70.853221602737903594970703125">
        <ele>1081.800048828125</ele>
        <time>2026-08-21T14:29:50.000Z</time>
        <extensions>
          <ns3:TrackPointExtension>
            <ns3:hr>152</ns3:hr>
            <ns3:cad>46</ns3:cad>
          </ns3:TrackPointExtension>
        </extensions>
      </trkpt>
      <trkpt lat="45.29987557791173458099365234375" lon="-70.85322990082204341888427734375">
        <ele>1082</ele>
        <time>2026-08-21T14:29:51.000Z</time>
        <extensions>
          <ns3:TrackPointExtension>
            <ns3:hr>152</ns3:hr>
            <ns3:cad>46</ns3:cad>
          </ns3:TrackPointExtension>
        </extensions>
      </trkpt>
      <trkpt lat="45.29988194815814495086669921875" lon="-70.85324750281870365142822265625">
        <ele>1082.199951171875</ele>
        <time>2026-08-21T14:29:52.000Z</time>
        <extensions>
          <ns3:TrackPointExtension>
            <ns3:hr>152</ns3:hr>
            <ns3:cad>44</ns3:cad>
          </ns3:TrackPointExtension>
        </extensions>
      </trkpt>
      <trkpt lat="45.29988261871039867401123046875" lon="-70.85325554944574832916259765625">
        <ele>1082.4000244140625</ele>
        <time>2026-08-21T14:29:53.000Z</time>
        <extensions>
          <ns3:TrackPointExtension>
            <ns3:hr>152</ns3:hr>
            <ns3:cad>44</ns3:cad>
          </ns3:TrackPointExtension>
        </extensions>
      </trkpt>
      <trkpt lat="45.29988630674779415130615234375" lon="-70.853268541395664215087890625">
        <ele>1082.5999755859375</ele>
        <time>2026-08-21T14:29:54.000Z</time>
        <extensions>
          <ns3:TrackPointExtension>
            <ns3:hr>152</ns3:hr>
            <ns3:cad>46</ns3:cad>
          </ns3:TrackPointExtension>
        </extensions>
      </trkpt>
      <trkpt lat="45.29988999478518962860107421875" lon="-70.853284299373626708984375">
        <ele>1082.800048828125</ele>
        <time>2026-08-21T14:29:55.000Z</time>
        <extensions>
          <ns3:TrackPointExtension>
            <ns3:hr>152</ns3:hr>
            <ns3:cad>47</ns3:cad>
          </ns3:TrackPointExtension>
        </extensions>
      </trkpt>
      <trkpt lat="45.29989586211740970611572265625" lon="-70.85330181755125522613525390625">
        <ele>1082.800048828125</ele>
        <time>2026-08-21T14:29:56.000Z</time>
        <extensions>
          <ns3:TrackPointExtension>
            <ns3:hr>152</ns3:hr>
            <ns3:cad>47</ns3:cad>
          </ns3:TrackPointExtension>
        </extensions>
      </trkpt>
      <trkpt lat="45.29989837668836116790771484375" lon="-70.8533129654824733734130859375">
        <ele>1083</ele>
        <time>2026-08-21T14:29:57.000Z</time>
        <extensions>
          <ns3:TrackPointExtension>
            <ns3:hr>152</ns3:hr>
            <ns3:cad>47</ns3:cad>
          </ns3:TrackPointExtension>
        </extensions>
      </trkpt>
      <trkpt lat="45.29990223236382007598876953125" lon="-70.8533233590424060821533203125">
        <ele>1083.4000244140625</ele>
        <time>2026-08-21T14:29:58.000Z</time>
        <extensions>
          <ns3:TrackPointExtension>
            <ns3:hr>152</ns3:hr>
            <ns3:cad>47</ns3:cad>
          </ns3:TrackPointExtension>
        </extensions>
      </trkpt>
      <trkpt lat="45.29990516602993011474609375" lon="-70.853335596621036529541015625">
        <ele>1083.5999755859375</ele>
        <time>2026-08-21T14:29:59.000Z</time>
        <extensions>
          <ns3:TrackPointExtension>
            <ns3:hr>151</ns3:hr>
            <ns3:cad>47</ns3:cad>
          </ns3:TrackPointExtension>
        </extensions>
      </trkpt>
      <trkpt lat="45.2999086864292621612548828125" lon="-70.8533498458564281463623046875">
        <ele>1083.800048828125</ele>
        <time>2026-08-21T14:30:00.000Z</time>
        <extensions>
          <ns3:TrackPointExtension>
            <ns3:hr>151</ns3:hr>
            <ns3:cad>47</ns3:cad>
          </ns3:TrackPointExtension>
        </extensions>
      </trkpt>
      <trkpt lat="45.2999123744666576385498046875" lon="-70.853361077606678009033203125">
        <ele>1084.199951171875</ele>
        <time>2026-08-21T14:30:01.000Z</time>
        <extensions>
          <ns3:TrackPointExtension>
            <ns3:hr>151</ns3:hr>
            <ns3:cad>48</ns3:cad>
          </ns3:TrackPointExtension>
        </extensions>
      </trkpt>
      <trkpt lat="45.2999117039144039154052734375" lon="-70.8533763326704502105712890625">
        <ele>1084.4000244140625</ele>
        <time>2026-08-21T14:30:02.000Z</time>
        <extensions>
          <ns3:TrackPointExtension>
            <ns3:hr>150</ns3:hr>
            <ns3:cad>48</ns3:cad>
          </ns3:TrackPointExtension>
        </extensions>
      </trkpt>
      <trkpt lat="45.29991321265697479248046875" lon="-70.85338898934423923492431640625">
        <ele>1084.5999755859375</ele>
        <time>2026-08-21T14:30:03.000Z</time>
        <extensions>
          <ns3:TrackPointExtension>
            <ns3:hr>150</ns3:hr>
            <ns3:cad>48</ns3:cad>
          </ns3:TrackPointExtension>
        </extensions>
      </trkpt>
      <trkpt lat="45.29991589486598968505859375" lon="-70.8534048311412334442138671875">
        <ele>1084.800048828125</ele>
        <time>2026-08-21T14:30:04.000Z</time>
        <extensions>
          <ns3:TrackPointExtension>
            <ns3:hr>150</ns3:hr>
            <ns3:cad>45</ns3:cad>
          </ns3:TrackPointExtension>
        </extensions>
      </trkpt>
      <trkpt lat="45.2999137155711650848388671875" lon="-70.853426121175289154052734375">
        <ele>1085</ele>
        <time>2026-08-21T14:30:05.000Z</time>
        <extensions>
          <ns3:TrackPointExtension>
            <ns3:hr>150</ns3:hr>
            <ns3:cad>45</ns3:cad>
          </ns3:TrackPointExtension>
        </extensions>
      </trkpt>
      <trkpt lat="45.299910865724086761474609375" lon="-70.85344456136226654052734375">
        <ele>1085.199951171875</ele>
        <time>2026-08-21T14:30:06.000Z</time>
        <extensions>
          <ns3:TrackPointExtension>
            <ns3:hr>150</ns3:hr>
            <ns3:cad>48</ns3:cad>
          </ns3:TrackPointExtension>
        </extensions>
      </trkpt>
      <trkpt lat="45.29991346411406993865966796875" lon="-70.85346057079732418060302734375">
        <ele>1085.4000244140625</ele>
        <time>2026-08-21T14:30:07.000Z</time>
        <extensions>
          <ns3:TrackPointExtension>
            <ns3:hr>150</ns3:hr>
            <ns3:cad>48</ns3:cad>
          </ns3:TrackPointExtension>
        </extensions>
      </trkpt>
      <trkpt lat="45.299913883209228515625" lon="-70.85347783751785755157470703125">
        <ele>1085.4000244140625</ele>
        <time>2026-08-21T14:30:08.000Z</time>
        <extensions>
          <ns3:TrackPointExtension>
            <ns3:hr>151</ns3:hr>
            <ns3:cad>48</ns3:cad>
          </ns3:TrackPointExtension>
        </extensions>
      </trkpt>
      <trkpt lat="45.29991698451340198516845703125" lon="-70.853489153087139129638671875">
        <ele>1085.5999755859375</ele>
        <time>2026-08-21T14:30:09.000Z</time>
        <extensions>
          <ns3:TrackPointExtension>
            <ns3:hr>151</ns3:hr>
            <ns3:cad>49</ns3:cad>
          </ns3:TrackPointExtension>
        </extensions>
      </trkpt>
      <trkpt lat="45.29992268420755863189697265625" lon="-70.85350348614156246185302734375">
        <ele>1085.800048828125</ele>
        <time>2026-08-21T14:30:10.000Z</time>
        <extensions>
          <ns3:TrackPointExtension>
            <ns3:hr>151</ns3:hr>
            <ns3:cad>49</ns3:cad>
          </ns3:TrackPointExtension>
        </extensions>
      </trkpt>
      <trkpt lat="45.29992419295012950897216796875" lon="-70.85352008230984210968017578125">
        <ele>1086</ele>
        <time>2026-08-21T14:30:11.000Z</time>
        <extensions>
          <ns3:TrackPointExtension>
            <ns3:hr>151</ns3:hr>
            <ns3:cad>49</ns3:cad>
          </ns3:TrackPointExtension>
        </extensions>
      </trkpt>
      <trkpt lat="45.29992436058819293975830078125" lon="-70.85353282280266284942626953125">
        <ele>1086.199951171875</ele>
        <time>2026-08-21T14:30:12.000Z</time>
        <extensions>
          <ns3:TrackPointExtension>
            <ns3:hr>151</ns3:hr>
            <ns3:cad>50</ns3:cad>
          </ns3:TrackPointExtension>
        </extensions>
      </trkpt>
      <trkpt lat="45.2999254502356052398681640625" lon="-70.85354405455291271209716796875">
        <ele>1086.4000244140625</ele>
        <time>2026-08-21T14:30:13.000Z</time>
        <extensions>
          <ns3:TrackPointExtension>
            <ns3:hr>151</ns3:hr>
            <ns3:cad>50</ns3:cad>
          </ns3:TrackPointExtension>
        </extensions>
      </trkpt>
      <trkpt lat="45.2999277971684932708740234375" lon="-70.853559561073780059814453125">
        <ele>1086.5999755859375</ele>
        <time>2026-08-21T14:30:14.000Z</time>
        <extensions>
          <ns3:TrackPointExtension>
            <ns3:hr>151</ns3:hr>
            <ns3:cad>50</ns3:cad>
          </ns3:TrackPointExtension>
        </extensions>
      </trkpt>
      <trkpt lat="45.29992821626365184783935546875" lon="-70.85357238538563251495361328125">
        <ele>1086.800048828125</ele>
        <time>2026-08-21T14:30:15.000Z</time>
        <extensions>
          <ns3:TrackPointExtension>
            <ns3:hr>151</ns3:hr>
            <ns3:cad>50</ns3:cad>
          </ns3:TrackPointExtension>
        </extensions>
      </trkpt>
      <trkpt lat="45.29992997646331787109375" lon="-70.853584371507167816162109375">
        <ele>1087.199951171875</ele>
        <time>2026-08-21T14:30:16.000Z</time>
        <extensions>
          <ns3:TrackPointExtension>
            <ns3:hr>151</ns3:hr>
            <ns3:cad>46</ns3:cad>
          </ns3:TrackPointExtension>
        </extensions>
      </trkpt>
      <trkpt lat="45.29993542470037937164306640625" lon="-70.85359836928546428680419921875">
        <ele>1087.4000244140625</ele>
        <time>2026-08-21T14:30:17.000Z</time>
        <extensions>
          <ns3:TrackPointExtension>
            <ns3:hr>151</ns3:hr>
            <ns3:cad>46</ns3:cad>
          </ns3:TrackPointExtension>
        </extensions>
      </trkpt>
      <trkpt lat="45.29993735253810882568359375" lon="-70.85360859520733356475830078125">
        <ele>1087.5999755859375</ele>
        <time>2026-08-21T14:30:18.000Z</time>
        <extensions>
          <ns3:TrackPointExtension>
            <ns3:hr>150</ns3:hr>
            <ns3:cad>47</ns3:cad>
          </ns3:TrackPointExtension>
        </extensions>
      </trkpt>
      <trkpt lat="45.2999418787658214569091796875" lon="-70.85362485609948635101318359375">
        <ele>1087.800048828125</ele>
        <time>2026-08-21T14:30:19.000Z</time>
        <extensions>
          <ns3:TrackPointExtension>
            <ns3:hr>150</ns3:hr>
            <ns3:cad>48</ns3:cad>
          </ns3:TrackPointExtension>
        </extensions>
      </trkpt>
      <trkpt lat="45.29994548298418521881103515625" lon="-70.8536343276500701904296875">
        <ele>1088</ele>
        <time>2026-08-21T14:30:20.000Z</time>
        <extensions>
          <ns3:TrackPointExtension>
            <ns3:hr>151</ns3:hr>
            <ns3:cad>48</ns3:cad>
          </ns3:TrackPointExtension>
        </extensions>
      </trkpt>
      <trkpt lat="45.29995118267834186553955078125" lon="-70.8536529354751110076904296875">
        <ele>1088.199951171875</ele>
        <time>2026-08-21T14:30:21.000Z</time>
        <extensions>
          <ns3:TrackPointExtension>
            <ns3:hr>151</ns3:hr>
            <ns3:cad>48</ns3:cad>
          </ns3:TrackPointExtension>
        </extensions>
      </trkpt>
      <trkpt lat="45.2999539487063884735107421875" lon="-70.853664837777614593505859375">
        <ele>1088.5999755859375</ele>
        <time>2026-08-21T14:30:22.000Z</time>
        <extensions>
          <ns3:TrackPointExtension>
            <ns3:hr>152</ns3:hr>
            <ns3:cad>48</ns3:cad>
          </ns3:TrackPointExtension>
        </extensions>
      </trkpt>
      <trkpt lat="45.29996040277183055877685546875" lon="-70.85368067957460880279541015625">
        <ele>1088.800048828125</ele>
        <time>2026-08-21T14:30:23.000Z</time>
        <extensions>
          <ns3:TrackPointExtension>
            <ns3:hr>152</ns3:hr>
            <ns3:cad>45</ns3:cad>
          </ns3:TrackPointExtension>
        </extensions>
      </trkpt>
      <trkpt lat="45.29996761120855808258056640625" lon="-70.85369207896292209625244140625">
        <ele>1089</ele>
        <time>2026-08-21T14:30:24.000Z</time>
        <extensions>
          <ns3:TrackPointExtension>
            <ns3:hr>152</ns3:hr>
            <ns3:cad>45</ns3:cad>
          </ns3:TrackPointExtension>
        </extensions>
      </trkpt>
      <trkpt lat="45.299973227083683013916015625" lon="-70.85370180197060108184814453125">
        <ele>1089.199951171875</ele>
        <time>2026-08-21T14:30:25.000Z</time>
        <extensions>
          <ns3:TrackPointExtension>
            <ns3:hr>152</ns3:hr>
            <ns3:cad>45</ns3:cad>
          </ns3:TrackPointExtension>
        </extensions>
      </trkpt>
      <trkpt lat="45.29997968114912509918212890625" lon="-70.85371186025440692901611328125">
        <ele>1089.4000244140625</ele>
        <time>2026-08-21T14:30:26.000Z</time>
        <extensions>
          <ns3:TrackPointExtension>
            <ns3:hr>152</ns3:hr>
            <ns3:cad>45</ns3:cad>
          </ns3:TrackPointExtension>
        </extensions>
      </trkpt>
      <trkpt lat="45.29998923651874065399169921875" lon="-70.85372208617627620697021484375">
        <ele>1089.5999755859375</ele>
        <time>2026-08-21T14:30:27.000Z</time>
        <extensions>
          <ns3:TrackPointExtension>
            <ns3:hr>153</ns3:hr>
            <ns3:cad>45</ns3:cad>
          </ns3:TrackPointExtension>
        </extensions>
      </trkpt>
      <trkpt lat="45.29999409802258014678955078125" lon="-70.85373197682201862335205078125">
        <ele>1089.800048828125</ele>
        <time>2026-08-21T14:30:28.000Z</time>
        <extensions>
          <ns3:TrackPointExtension>
            <ns3:hr>152</ns3:hr>
            <ns3:cad>44</ns3:cad>
          </ns3:TrackPointExtension>
        </extensions>
      </trkpt>
      <trkpt lat="45.30000231228768825531005859375" lon="-70.853747986257076263427734375">
        <ele>1090</ele>
        <time>2026-08-21T14:30:29.000Z</time>
        <extensions>
          <ns3:TrackPointExtension>
            <ns3:hr>152</ns3:hr>
            <ns3:cad>44</ns3:cad>
          </ns3:TrackPointExtension>
        </extensions>
      </trkpt>
      <trkpt lat="45.30000801198184490203857421875" lon="-70.8537592180073261260986328125">
        <ele>1090</ele>
        <time>2026-08-21T14:30:30.000Z</time>
        <extensions>
          <ns3:TrackPointExtension>
            <ns3:hr>152</ns3:hr>
            <ns3:cad>43</ns3:cad>
          </ns3:TrackPointExtension>
        </extensions>
      </trkpt>
      <trkpt lat="45.30001421459019184112548828125" lon="-70.853772461414337158203125">
        <ele>1090.199951171875</ele>
        <time>2026-08-21T14:30:31.000Z</time>
        <extensions>
          <ns3:TrackPointExtension>
            <ns3:hr>152</ns3:hr>
            <ns3:cad>43</ns3:cad>
          </ns3:TrackPointExtension>
        </extensions>
      </trkpt>
      <trkpt lat="45.300022177398204803466796875" lon="-70.8537826873362064361572265625">
        <ele>1090.4000244140625</ele>
        <time>2026-08-21T14:30:32.000Z</time>
        <extensions>
          <ns3:TrackPointExtension>
            <ns3:hr>152</ns3:hr>
            <ns3:cad>43</ns3:cad>
          </ns3:TrackPointExtension>
        </extensions>
      </trkpt>
      <trkpt lat="45.30002980493009090423583984375" lon="-70.85379534400999546051025390625">
        <ele>1090.4000244140625</ele>
        <time>2026-08-21T14:30:33.000Z</time>
        <extensions>
          <ns3:TrackPointExtension>
            <ns3:hr>152</ns3:hr>
            <ns3:cad>46</ns3:cad>
          </ns3:TrackPointExtension>
        </extensions>
      </trkpt>
      <trkpt lat="45.30003391206264495849609375" lon="-70.8538054861128330230712890625">
        <ele>1090.5999755859375</ele>
        <time>2026-08-21T14:30:34.000Z</time>
        <extensions>
          <ns3:TrackPointExtension>
            <ns3:hr>152</ns3:hr>
            <ns3:cad>46</ns3:cad>
          </ns3:TrackPointExtension>
        </extensions>
      </trkpt>
      <trkpt lat="45.3000394441187381744384765625" lon="-70.85381663404405117034912109375">
        <ele>1090.800048828125</ele>
        <time>2026-08-21T14:30:35.000Z</time>
        <extensions>
          <ns3:TrackPointExtension>
            <ns3:hr>153</ns3:hr>
            <ns3:cad>46</ns3:cad>
          </ns3:TrackPointExtension>
        </extensions>
      </trkpt>
      <trkpt lat="45.30004723928868770599365234375" lon="-70.853826440870761871337890625">
        <ele>1090.800048828125</ele>
        <time>2026-08-21T14:30:36.000Z</time>
        <extensions>
          <ns3:TrackPointExtension>
            <ns3:hr>152</ns3:hr>
            <ns3:cad>50</ns3:cad>
          </ns3:TrackPointExtension>
        </extensions>
      </trkpt>
      <trkpt lat="45.300056375563144683837890625" lon="-70.85383876226842403411865234375">
        <ele>1091</ele>
        <time>2026-08-21T14:30:37.000Z</time>
        <extensions>
          <ns3:TrackPointExtension>
            <ns3:hr>152</ns3:hr>
            <ns3:cad>50</ns3:cad>
          </ns3:TrackPointExtension>
        </extensions>
      </trkpt>
      <trkpt lat="45.30006618238985538482666015625" lon="-70.85385351441800594329833984375">
        <ele>1091.199951171875</ele>
        <time>2026-08-21T14:30:38.000Z</time>
        <extensions>
          <ns3:TrackPointExtension>
            <ns3:hr>152</ns3:hr>
            <ns3:cad>50</ns3:cad>
          </ns3:TrackPointExtension>
        </extensions>
      </trkpt>
      <trkpt lat="45.300071798264980316162109375" lon="-70.853865332901477813720703125">
        <ele>1091.199951171875</ele>
        <time>2026-08-21T14:30:39.000Z</time>
        <extensions>
          <ns3:TrackPointExtension>
            <ns3:hr>152</ns3:hr>
            <ns3:cad>50</ns3:cad>
          </ns3:TrackPointExtension>
        </extensions>
      </trkpt>
      <trkpt lat="45.300076492130756378173828125" lon="-70.85387664847075939178466796875">
        <ele>1091.4000244140625</ele>
        <time>2026-08-21T14:30:40.000Z</time>
        <extensions>
          <ns3:TrackPointExtension>
            <ns3:hr>152</ns3:hr>
            <ns3:cad>0</ns3:cad>
          </ns3:TrackPointExtension>
        </extensions>
      </trkpt>
      <trkpt lat="45.3000816889107227325439453125" lon="-70.8538906462490558624267578125">
        <ele>1091.5999755859375</ele>
        <time>2026-08-21T14:30:41.000Z</time>
        <extensions>
          <ns3:TrackPointExtension>
            <ns3:hr>152</ns3:hr>
            <ns3:cad>48</ns3:cad>
          </ns3:TrackPointExtension>
        </extensions>
      </trkpt>
      <trkpt lat="45.30008562840521335601806640625" lon="-70.85389995016157627105712890625">
        <ele>1091.800048828125</ele>
        <time>2026-08-21T14:30:42.000Z</time>
        <extensions>
          <ns3:TrackPointExtension>
            <ns3:hr>153</ns3:hr>
            <ns3:cad>48</ns3:cad>
          </ns3:TrackPointExtension>
        </extensions>
      </trkpt>
      <trkpt lat="45.30009023845195770263671875" lon="-70.85391151718795299530029296875">
        <ele>1092</ele>
        <time>2026-08-21T14:30:43.000Z</time>
        <extensions>
          <ns3:TrackPointExtension>
            <ns3:hr>152</ns3:hr>
            <ns3:cad>51</ns3:cad>
          </ns3:TrackPointExtension>
        </extensions>
      </trkpt>
      <trkpt lat="45.30009233392775058746337890625" lon="-70.8539248444139957427978515625">
        <ele>1092.199951171875</ele>
        <time>2026-08-21T14:30:44.000Z</time>
        <extensions>
          <ns3:TrackPointExtension>
            <ns3:hr>152</ns3:hr>
            <ns3:cad>51</ns3:cad>
          </ns3:TrackPointExtension>
        </extensions>
      </trkpt>
      <trkpt lat="45.30009384267032146453857421875" lon="-70.85394068621098995208740234375">
        <ele>1092.4000244140625</ele>
        <time>2026-08-21T14:30:45.000Z</time>
        <extensions>
          <ns3:TrackPointExtension>
            <ns3:hr>152</ns3:hr>
            <ns3:cad>50</ns3:cad>
          </ns3:TrackPointExtension>
        </extensions>
      </trkpt>
      <trkpt lat="45.3000947646796703338623046875" lon="-70.8539535105228424072265625">
        <ele>1092.5999755859375</ele>
        <time>2026-08-21T14:30:46.000Z</time>
        <extensions>
          <ns3:TrackPointExtension>
            <ns3:hr>152</ns3:hr>
            <ns3:cad>50</ns3:cad>
          </ns3:TrackPointExtension>
        </extensions>
      </trkpt>
      <trkpt lat="45.3000964410603046417236328125" lon="-70.85397304035723209381103515625">
        <ele>1092.5999755859375</ele>
        <time>2026-08-21T14:30:47.000Z</time>
        <extensions>
          <ns3:TrackPointExtension>
            <ns3:hr>152</ns3:hr>
            <ns3:cad>50</ns3:cad>
          </ns3:TrackPointExtension>
        </extensions>
      </trkpt>
      <trkpt lat="45.30009870417416095733642578125" lon="-70.85399298928678035736083984375">
        <ele>1092.5999755859375</ele>
        <time>2026-08-21T14:30:48.000Z</time>
        <extensions>
          <ns3:TrackPointExtension>
            <ns3:hr>152</ns3:hr>
            <ns3:cad>50</ns3:cad>
          </ns3:TrackPointExtension>
        </extensions>
      </trkpt>
      <trkpt lat="45.3001011349260807037353515625" lon="-70.85401318967342376708984375">
        <ele>1092.5999755859375</ele>
        <time>2026-08-21T14:30:49.000Z</time>
        <extensions>
          <ns3:TrackPointExtension>
            <ns3:hr>152</ns3:hr>
            <ns3:cad>50</ns3:cad>
          </ns3:TrackPointExtension>
        </extensions>
      </trkpt>
      <trkpt lat="45.30010591261088848114013671875" lon="-70.854035653173923492431640625">
        <ele>1092.800048828125</ele>
        <time>2026-08-21T14:30:50.000Z</time>
        <extensions>
          <ns3:TrackPointExtension>
            <ns3:hr>152</ns3:hr>
            <ns3:cad>0</ns3:cad>
          </ns3:TrackPointExtension>
        </extensions>
      </trkpt>
      <trkpt lat="45.30011169612407684326171875" lon="-70.85405652411282062530517578125">
        <ele>1092.800048828125</ele>
        <time>2026-08-21T14:30:51.000Z</time>
        <extensions>
          <ns3:TrackPointExtension>
            <ns3:hr>152</ns3:hr>
            <ns3:cad>0</ns3:cad>
          </ns3:TrackPointExtension>
        </extensions>
      </trkpt>
      <trkpt lat="45.30011563561856746673583984375" lon="-70.8540730364620685577392578125">
        <ele>1092.800048828125</ele>
        <time>2026-08-21T14:30:52.000Z</time>
        <extensions>
          <ns3:TrackPointExtension>
            <ns3:hr>152</ns3:hr>
            <ns3:cad>0</ns3:cad>
          </ns3:TrackPointExtension>
        </extensions>
      </trkpt>
      <trkpt lat="45.3001271188259124755859375" lon="-70.85410438477993011474609375">
        <ele>1092.800048828125</ele>
        <time>2026-08-21T14:30:53.000Z</time>
        <extensions>
          <ns3:TrackPointExtension>
            <ns3:hr>152</ns3:hr>
            <ns3:cad>0</ns3:cad>
          </ns3:TrackPointExtension>
        </extensions>
      </trkpt>
      <trkpt lat="45.300135500729084014892578125" lon="-70.85412424989044666290283203125">
        <ele>1093</ele>
        <time>2026-08-21T14:30:54.000Z</time>
        <extensions>
          <ns3:TrackPointExtension>
            <ns3:hr>152</ns3:hr>
            <ns3:cad>0</ns3:cad>
          </ns3:TrackPointExtension>
        </extensions>
      </trkpt>
      <trkpt lat="45.300144888460636138916015625" lon="-70.85414059460163116455078125">
        <ele>1093</ele>
        <time>2026-08-21T14:30:55.000Z</time>
        <extensions>
          <ns3:TrackPointExtension>
            <ns3:hr>152</ns3:hr>
            <ns3:cad>54</ns3:cad>
          </ns3:TrackPointExtension>
        </extensions>
      </trkpt>
      <trkpt lat="45.3001517616212368011474609375" lon="-70.8541588671505451202392578125">
        <ele>1093.199951171875</ele>
        <time>2026-08-21T14:30:56.000Z</time>
        <extensions>
          <ns3:TrackPointExtension>
            <ns3:hr>151</ns3:hr>
            <ns3:cad>54</ns3:cad>
          </ns3:TrackPointExtension>
        </extensions>
      </trkpt>
      <trkpt lat="45.30015570111572742462158203125" lon="-70.85417546331882476806640625">
        <ele>1093.4000244140625</ele>
        <time>2026-08-21T14:30:57.000Z</time>
        <extensions>
          <ns3:TrackPointExtension>
            <ns3:hr>151</ns3:hr>
            <ns3:cad>53</ns3:cad>
          </ns3:TrackPointExtension>
        </extensions>
      </trkpt>
      <trkpt lat="45.300160981714725494384765625" lon="-70.854192562401294708251953125">
        <ele>1093.4000244140625</ele>
        <time>2026-08-21T14:30:58.000Z</time>
        <extensions>
          <ns3:TrackPointExtension>
            <ns3:hr>151</ns3:hr>
            <ns3:cad>53</ns3:cad>
          </ns3:TrackPointExtension>
        </extensions>
      </trkpt>
      <trkpt lat="45.300167687237262725830078125" lon="-70.85420907475054264068603515625">
        <ele>1093.4000244140625</ele>
        <time>2026-08-21T14:30:59.000Z</time>
        <extensions>
          <ns3:TrackPointExtension>
            <ns3:hr>151</ns3:hr>
            <ns3:cad>53</ns3:cad>
          </ns3:TrackPointExtension>
        </extensions>
      </trkpt>
      <trkpt lat="45.3001735545694828033447265625" lon="-70.8542289398610591888427734375">
        <ele>1093.5999755859375</ele>
        <time>2026-08-21T14:31:00.000Z</time>
        <extensions>
          <ns3:TrackPointExtension>
            <ns3:hr>152</ns3:hr>
            <ns3:cad>53</ns3:cad>
          </ns3:TrackPointExtension>
        </extensions>
      </trkpt>
      <trkpt lat="45.3001748956739902496337890625" lon="-70.854245536029338836669921875">
        <ele>1093.5999755859375</ele>
        <time>2026-08-21T14:31:01.000Z</time>
        <extensions>
          <ns3:TrackPointExtension>
            <ns3:hr>151</ns3:hr>
            <ns3:cad>53</ns3:cad>
          </ns3:TrackPointExtension>
        </extensions>
      </trkpt>
      <trkpt lat="45.30017531476914882659912109375" lon="-70.854265652596950531005859375">
        <ele>1093.800048828125</ele>
        <time>2026-08-21T14:31:02.000Z</time>
        <extensions>
          <ns3:TrackPointExtension>
            <ns3:hr>150</ns3:hr>
            <ns3:cad>53</ns3:cad>
          </ns3:TrackPointExtension>
        </extensions>
      </trkpt>
      <trkpt lat="45.30017816461622714996337890625" lon="-70.8542832545936107635498046875">
        <ele>1093.800048828125</ele>
        <time>2026-08-21T14:31:03.000Z</time>
        <extensions>
          <ns3:TrackPointExtension>
            <ns3:hr>150</ns3:hr>
            <ns3:cad>53</ns3:cad>
          </ns3:TrackPointExtension>
        </extensions>
      </trkpt>
      <trkpt lat="45.30017984099686145782470703125" lon="-70.854303874075412750244140625">
        <ele>1094</ele>
        <time>2026-08-21T14:31:04.000Z</time>
        <extensions>
          <ns3:TrackPointExtension>
            <ns3:hr>150</ns3:hr>
            <ns3:cad>53</ns3:cad>
          </ns3:TrackPointExtension>
        </extensions>
      </trkpt>
      <trkpt lat="45.30017984099686145782470703125" lon="-70.854324996471405029296875">
        <ele>1094</ele>
        <time>2026-08-21T14:31:05.000Z</time>
        <extensions>
          <ns3:TrackPointExtension>
            <ns3:hr>151</ns3:hr>
            <ns3:cad>53</ns3:cad>
          </ns3:TrackPointExtension>
        </extensions>
      </trkpt>
      <trkpt lat="45.3001842834055423736572265625" lon="-70.854345448315143585205078125">
        <ele>1094.199951171875</ele>
        <time>2026-08-21T14:31:06.000Z</time>
        <extensions>
          <ns3:TrackPointExtension>
            <ns3:hr>150</ns3:hr>
            <ns3:cad>53</ns3:cad>
          </ns3:TrackPointExtension>
        </extensions>
      </trkpt>
      <trkpt lat="45.30018755234777927398681640625" lon="-70.85436455905437469482421875">
        <ele>1094.199951171875</ele>
        <time>2026-08-21T14:31:07.000Z</time>
        <extensions>
          <ns3:TrackPointExtension>
            <ns3:hr>150</ns3:hr>
            <ns3:cad>54</ns3:cad>
          </ns3:TrackPointExtension>
        </extensions>
      </trkpt>
      <trkpt lat="45.30019425787031650543212890625" lon="-70.8543851785361766815185546875">
        <ele>1094.199951171875</ele>
        <time>2026-08-21T14:31:08.000Z</time>
        <extensions>
          <ns3:TrackPointExtension>
            <ns3:hr>150</ns3:hr>
            <ns3:cad>54</ns3:cad>
          </ns3:TrackPointExtension>
        </extensions>
      </trkpt>
      <trkpt lat="45.3001973591744899749755859375" lon="-70.8544039539992809295654296875">
        <ele>1094.199951171875</ele>
        <time>2026-08-21T14:31:09.000Z</time>
        <extensions>
          <ns3:TrackPointExtension>
            <ns3:hr>150</ns3:hr>
            <ns3:cad>55</ns3:cad>
          </ns3:TrackPointExtension>
        </extensions>
      </trkpt>
      <trkpt lat="45.30020163394510746002197265625" lon="-70.85441979579627513885498046875">
        <ele>1094.4000244140625</ele>
        <time>2026-08-21T14:31:10.000Z</time>
        <extensions>
          <ns3:TrackPointExtension>
            <ns3:hr>150</ns3:hr>
            <ns3:cad>55</ns3:cad>
          </ns3:TrackPointExtension>
        </extensions>
      </trkpt>
      <trkpt lat="45.30020196922123432159423828125" lon="-70.854435302317142486572265625">
        <ele>1094.4000244140625</ele>
        <time>2026-08-21T14:31:11.000Z</time>
        <extensions>
          <ns3:TrackPointExtension>
            <ns3:hr>150</ns3:hr>
            <ns3:cad>55</ns3:cad>
          </ns3:TrackPointExtension>
        </extensions>
      </trkpt>
      <trkpt lat="45.3002054058015346527099609375" lon="-70.854449383914470672607421875">
        <ele>1094.5999755859375</ele>
        <time>2026-08-21T14:31:12.000Z</time>
        <extensions>
          <ns3:TrackPointExtension>
            <ns3:hr>150</ns3:hr>
            <ns3:cad>55</ns3:cad>
          </ns3:TrackPointExtension>
        </extensions>
      </trkpt>
      <trkpt lat="45.30020465143024921417236328125" lon="-70.854454077780246734619140625">
        <ele>1094.5999755859375</ele>
        <time>2026-08-21T14:31:13.000Z</time>
        <extensions>
          <ns3:TrackPointExtension>
            <ns3:hr>149</ns3:hr>
            <ns3:cad>55</ns3:cad>
          </ns3:TrackPointExtension>
        </extensions>
      </trkpt>
      <trkpt lat="45.30020155012607574462890625" lon="-70.854468829929828643798828125">
        <ele>1094.800048828125</ele>
        <time>2026-08-21T14:31:14.000Z</time>
        <extensions>
          <ns3:TrackPointExtension>
            <ns3:hr>149</ns3:hr>
            <ns3:cad>54</ns3:cad>
          </ns3:TrackPointExtension>
        </extensions>
      </trkpt>
      <trkpt lat="45.3002017177641391754150390625" lon="-70.8544860966503620147705078125">
        <ele>1094.800048828125</ele>
        <time>2026-08-21T14:31:15.000Z</time>
        <extensions>
          <ns3:TrackPointExtension>
            <ns3:hr>149</ns3:hr>
            <ns3:cad>53</ns3:cad>
          </ns3:TrackPointExtension>
        </extensions>
      </trkpt>
      <trkpt lat="45.30020691454410552978515625" lon="-70.854490287601947784423828125">
        <ele>1095</ele>
        <time>2026-08-21T14:31:16.000Z</time>
        <extensions>
          <ns3:TrackPointExtension>
            <ns3:hr>149</ns3:hr>
            <ns3:cad>53</ns3:cad>
          </ns3:TrackPointExtension>
        </extensions>
      </trkpt>
      <trkpt lat="45.30022007413208484649658203125" lon="-70.85449875332415103912353515625">
        <ele>1095</ele>
        <time>2026-08-21T14:31:17.000Z</time>
        <extensions>
          <ns3:TrackPointExtension>
            <ns3:hr>148</ns3:hr>
            <ns3:cad>0</ns3:cad>
          </ns3:TrackPointExtension>
        </extensions>
      </trkpt>
      <trkpt lat="45.30022627674043178558349609375" lon="-70.85451350547373294830322265625">
        <ele>1095.199951171875</ele>
        <time>2026-08-21T14:31:18.000Z</time>
        <extensions>
          <ns3:TrackPointExtension>
            <ns3:hr>148</ns3:hr>
            <ns3:cad>0</ns3:cad>
          </ns3:TrackPointExtension>
        </extensions>
      </trkpt>
      <trkpt lat="45.300226025283336639404296875" lon="-70.85452549159526824951171875">
        <ele>1095.199951171875</ele>
        <time>2026-08-21T14:31:19.000Z</time>
        <extensions>
          <ns3:TrackPointExtension>
            <ns3:hr>148</ns3:hr>
            <ns3:cad>0</ns3:cad>
          </ns3:TrackPointExtension>
        </extensions>
      </trkpt>
      <trkpt lat="45.3002285398542881011962890625" lon="-70.8545410819351673126220703125">
        <ele>1095.4000244140625</ele>
        <time>2026-08-21T14:31:20.000Z</time>
        <extensions>
          <ns3:TrackPointExtension>
            <ns3:hr>148</ns3:hr>
            <ns3:cad>0</ns3:cad>
          </ns3:TrackPointExtension>
        </extensions>
      </trkpt>
      <trkpt lat="45.30022946186363697052001953125" lon="-70.854557342827320098876953125">
        <ele>1095.5999755859375</ele>
        <time>2026-08-21T14:31:21.000Z</time>
        <extensions>
          <ns3:TrackPointExtension>
            <ns3:hr>147</ns3:hr>
            <ns3:cad>0</ns3:cad>
          </ns3:TrackPointExtension>
        </extensions>
      </trkpt>
      <trkpt lat="45.3002305515110492706298828125" lon="-70.8545704185962677001953125">
        <ele>1095.800048828125</ele>
        <time>2026-08-21T14:31:22.000Z</time>
        <extensions>
          <ns3:TrackPointExtension>
            <ns3:hr>146</ns3:hr>
            <ns3:cad>0</ns3:cad>
          </ns3:TrackPointExtension>
        </extensions>
      </trkpt>
      <trkpt lat="45.300231389701366424560546875" lon="-70.85459011606872081756591796875">
        <ele>1096</ele>
        <time>2026-08-21T14:31:23.000Z</time>
        <extensions>
          <ns3:TrackPointExtension>
            <ns3:hr>146</ns3:hr>
            <ns3:cad>0</ns3:cad>
          </ns3:TrackPointExtension>
        </extensions>
      </trkpt>
      <trkpt lat="45.30022971332073211669921875" lon="-70.8546088077127933502197265625">
        <ele>1096.199951171875</ele>
        <time>2026-08-21T14:31:24.000Z</time>
        <extensions>
          <ns3:TrackPointExtension>
            <ns3:hr>145</ns3:hr>
            <ns3:cad>0</ns3:cad>
          </ns3:TrackPointExtension>
        </extensions>
      </trkpt>
      <trkpt lat="45.3002285398542881011962890625" lon="-70.85462951101362705230712890625">
        <ele>1096.199951171875</ele>
        <time>2026-08-21T14:31:25.000Z</time>
        <extensions>
          <ns3:TrackPointExtension>
            <ns3:hr>145</ns3:hr>
            <ns3:cad>0</ns3:cad>
          </ns3:TrackPointExtension>
        </extensions>
      </trkpt>
      <trkpt lat="45.3002292104065418243408203125" lon="-70.85464895702898502349853515625">
        <ele>1096.4000244140625</ele>
        <time>2026-08-21T14:31:26.000Z</time>
        <extensions>
          <ns3:TrackPointExtension>
            <ns3:hr>144</ns3:hr>
            <ns3:cad>50</ns3:cad>
          </ns3:TrackPointExtension>
        </extensions>
      </trkpt>
      <trkpt lat="45.3002302162349224090576171875" lon="-70.8546678163111209869384765625">
        <ele>1096.4000244140625</ele>
        <time>2026-08-21T14:31:27.000Z</time>
        <extensions>
          <ns3:TrackPointExtension>
            <ns3:hr>144</ns3:hr>
            <ns3:cad>50</ns3:cad>
          </ns3:TrackPointExtension>
        </extensions>
      </trkpt>
      <trkpt lat="45.300228707492351531982421875" lon="-70.85469170473515987396240234375">
        <ele>1096.4000244140625</ele>
        <time>2026-08-21T14:31:28.000Z</time>
        <extensions>
          <ns3:TrackPointExtension>
            <ns3:hr>144</ns3:hr>
            <ns3:cad>51</ns3:cad>
          </ns3:TrackPointExtension>
        </extensions>
      </trkpt>
      <trkpt lat="45.3002241812646389007568359375" lon="-70.85471316240727901458740234375">
        <ele>1096.5999755859375</ele>
        <time>2026-08-21T14:31:29.000Z</time>
        <extensions>
          <ns3:TrackPointExtension>
            <ns3:hr>145</ns3:hr>
            <ns3:cad>51</ns3:cad>
          </ns3:TrackPointExtension>
        </extensions>
      </trkpt>
      <trkpt lat="45.300219990313053131103515625" lon="-70.85473336279392242431640625">
        <ele>1096.5999755859375</ele>
        <time>2026-08-21T14:31:30.000Z</time>
        <extensions>
          <ns3:TrackPointExtension>
            <ns3:hr>145</ns3:hr>
            <ns3:cad>51</ns3:cad>
          </ns3:TrackPointExtension>
        </extensions>
      </trkpt>
      <trkpt lat="45.30021764338016510009765625" lon="-70.85475389845669269561767578125">
        <ele>1096.5999755859375</ele>
        <time>2026-08-21T14:31:31.000Z</time>
        <extensions>
          <ns3:TrackPointExtension>
            <ns3:hr>146</ns3:hr>
            <ns3:cad>52</ns3:cad>
          </ns3:TrackPointExtension>
        </extensions>
      </trkpt>
      <trkpt lat="45.30021538026630878448486328125" lon="-70.85477669723331928253173828125">
        <ele>1096.5999755859375</ele>
        <time>2026-08-21T14:31:32.000Z</time>
        <extensions>
          <ns3:TrackPointExtension>
            <ns3:hr>146</ns3:hr>
            <ns3:cad>52</ns3:cad>
          </ns3:TrackPointExtension>
        </extensions>
      </trkpt>
      <trkpt lat="45.30021135695278644561767578125" lon="-70.85480385459959506988525390625">
        <ele>1096.5999755859375</ele>
        <time>2026-08-21T14:31:33.000Z</time>
        <extensions>
          <ns3:TrackPointExtension>
            <ns3:hr>146</ns3:hr>
            <ns3:cad>51</ns3:cad>
          </ns3:TrackPointExtension>
        </extensions>
      </trkpt>
      <trkpt lat="45.30020917765796184539794921875" lon="-70.85482682101428508758544921875">
        <ele>1096.5999755859375</ele>
        <time>2026-08-21T14:31:34.000Z</time>
        <extensions>
          <ns3:TrackPointExtension>
            <ns3:hr>146</ns3:hr>
            <ns3:cad>51</ns3:cad>
          </ns3:TrackPointExtension>
        </extensions>
      </trkpt>
      <trkpt lat="45.3002057410776615142822265625" lon="-70.854845009744167327880859375">
        <ele>1096.5999755859375</ele>
        <time>2026-08-21T14:31:35.000Z</time>
        <extensions>
          <ns3:TrackPointExtension>
            <ns3:hr>145</ns3:hr>
            <ns3:cad>51</ns3:cad>
          </ns3:TrackPointExtension>
        </extensions>
      </trkpt>
      <trkpt lat="45.30020020902156829833984375" lon="-70.854862444102764129638671875">
        <ele>1096.5999755859375</ele>
        <time>2026-08-21T14:31:36.000Z</time>
        <extensions>
          <ns3:TrackPointExtension>
            <ns3:hr>146</ns3:hr>
            <ns3:cad>69</ns3:cad>
          </ns3:TrackPointExtension>
        </extensions>
      </trkpt>
      <trkpt lat="45.3001899830996990203857421875" lon="-70.854881219565868377685546875">
        <ele>1096.5999755859375</ele>
        <time>2026-08-21T14:31:37.000Z</time>
        <extensions>
          <ns3:TrackPointExtension>
            <ns3:hr>146</ns3:hr>
            <ns3:cad>69</ns3:cad>
          </ns3:TrackPointExtension>
        </extensions>
      </trkpt>
      <trkpt lat="45.300181768834590911865234375" lon="-70.85490460507571697235107421875">
        <ele>1096.4000244140625</ele>
        <time>2026-08-21T14:31:38.000Z</time>
        <extensions>
          <ns3:TrackPointExtension>
            <ns3:hr>145</ns3:hr>
            <ns3:cad>70</ns3:cad>
          </ns3:TrackPointExtension>
        </extensions>
      </trkpt>
      <trkpt lat="45.30017112381756305694580078125" lon="-70.85492153652012348175048828125">
        <ele>1096.4000244140625</ele>
        <time>2026-08-21T14:31:39.000Z</time>
        <extensions>
          <ns3:TrackPointExtension>
            <ns3:hr>145</ns3:hr>
            <ns3:cad>70</ns3:cad>
          </ns3:TrackPointExtension>
        </extensions>
      </trkpt>
      <trkpt lat="45.3001611493527889251708984375" lon="-70.8549383841454982757568359375">
        <ele>1096.4000244140625</ele>
        <time>2026-08-21T14:31:40.000Z</time>
        <extensions>
          <ns3:TrackPointExtension>
            <ns3:hr>145</ns3:hr>
            <ns3:cad>70</ns3:cad>
          </ns3:TrackPointExtension>
        </extensions>
      </trkpt>
      <trkpt lat="45.30015318654477596282958984375" lon="-70.85495506413280963897705078125">
        <ele>1096.4000244140625</ele>
        <time>2026-08-21T14:31:41.000Z</time>
        <extensions>
          <ns3:TrackPointExtension>
            <ns3:hr>145</ns3:hr>
            <ns3:cad>70</ns3:cad>
          </ns3:TrackPointExtension>
        </extensions>
      </trkpt>
      <trkpt lat="45.30014866031706333160400390625" lon="-70.85496998392045497894287109375">
        <ele>1096.4000244140625</ele>
        <time>2026-08-21T14:31:42.000Z</time>
        <extensions>
          <ns3:TrackPointExtension>
            <ns3:hr>144</ns3:hr>
            <ns3:cad>70</ns3:cad>
          </ns3:TrackPointExtension>
        </extensions>
      </trkpt>
      <trkpt lat="45.30014463700354099273681640625" lon="-70.8549923636019229888916015625">
        <ele>1096.4000244140625</ele>
        <time>2026-08-21T14:31:43.000Z</time>
        <extensions>
          <ns3:TrackPointExtension>
            <ns3:hr>144</ns3:hr>
            <ns3:cad>70</ns3:cad>
          </ns3:TrackPointExtension>
        </extensions>
      </trkpt>
      <trkpt lat="45.30014061369001865386962890625" lon="-70.85501843132078647613525390625">
        <ele>1096.4000244140625</ele>
        <time>2026-08-21T14:31:44.000Z</time>
        <extensions>
          <ns3:TrackPointExtension>
            <ns3:hr>144</ns3:hr>
            <ns3:cad>70</ns3:cad>
          </ns3:TrackPointExtension>
        </extensions>
      </trkpt>
      <trkpt lat="45.30013181269168853759765625" lon="-70.85503988899290561676025390625">
        <ele>1096.199951171875</ele>
        <time>2026-08-21T14:31:45.000Z</time>
        <extensions>
          <ns3:TrackPointExtension>
            <ns3:hr>145</ns3:hr>
            <ns3:cad>70</ns3:cad>
          </ns3:TrackPointExtension>
        </extensions>
      </trkpt>
      <trkpt lat="45.30012284405529499053955078125" lon="-70.8550607599318027496337890625">
        <ele>1096.199951171875</ele>
        <time>2026-08-21T14:31:46.000Z</time>
        <extensions>
          <ns3:TrackPointExtension>
            <ns3:hr>144</ns3:hr>
            <ns3:cad>70</ns3:cad>
          </ns3:TrackPointExtension>
        </extensions>
      </trkpt>
      <trkpt lat="45.3001152165234088897705078125" lon="-70.85508699528872966766357421875">
        <ele>1096</ele>
        <time>2026-08-21T14:31:47.000Z</time>
        <extensions>
          <ns3:TrackPointExtension>
            <ns3:hr>144</ns3:hr>
            <ns3:cad>70</ns3:cad>
          </ns3:TrackPointExtension>
        </extensions>
      </trkpt>
      <trkpt lat="45.300110690295696258544921875" lon="-70.855113901197910308837890625">
        <ele>1096</ele>
        <time>2026-08-21T14:31:48.000Z</time>
        <extensions>
          <ns3:TrackPointExtension>
            <ns3:hr>143</ns3:hr>
            <ns3:cad>60</ns3:cad>
          </ns3:TrackPointExtension>
        </extensions>
      </trkpt>
      <trkpt lat="45.3001078404486179351806640625" lon="-70.8551351912319660186767578125">
        <ele>1096</ele>
        <time>2026-08-21T14:31:49.000Z</time>
        <extensions>
          <ns3:TrackPointExtension>
            <ns3:hr>142</ns3:hr>
            <ns3:cad>60</ns3:cad>
          </ns3:TrackPointExtension>
        </extensions>
      </trkpt>
      <trkpt lat="45.3001101873815059661865234375" lon="-70.855158157646656036376953125">
        <ele>1096</ele>
        <time>2026-08-21T14:31:50.000Z</time>
        <extensions>
          <ns3:TrackPointExtension>
            <ns3:hr>142</ns3:hr>
            <ns3:cad>59</ns3:cad>
          </ns3:TrackPointExtension>
        </extensions>
      </trkpt>
      <trkpt lat="45.30011010356247425079345703125" lon="-70.8551784418523311614990234375">
        <ele>1096</ele>
        <time>2026-08-21T14:31:51.000Z</time>
        <extensions>
          <ns3:TrackPointExtension>
            <ns3:hr>141</ns3:hr>
            <ns3:cad>59</ns3:cad>
          </ns3:TrackPointExtension>
        </extensions>
      </trkpt>
      <trkpt lat="45.3001178987324237823486328125" lon="-70.855199061334133148193359375">
        <ele>1096</ele>
        <time>2026-08-21T14:31:52.000Z</time>
        <extensions>
          <ns3:TrackPointExtension>
            <ns3:hr>141</ns3:hr>
            <ns3:cad>59</ns3:cad>
          </ns3:TrackPointExtension>
        </extensions>
      </trkpt>
      <trkpt lat="45.3001262806355953216552734375" lon="-70.855217836797237396240234375">
        <ele>1096.199951171875</ele>
        <time>2026-08-21T14:31:53.000Z</time>
        <extensions>
          <ns3:TrackPointExtension>
            <ns3:hr>141</ns3:hr>
            <ns3:cad>59</ns3:cad>
          </ns3:TrackPointExtension>
        </extensions>
      </trkpt>
      <trkpt lat="45.30014078132808208465576171875" lon="-70.855242647230625152587890625">
        <ele>1096.4000244140625</ele>
        <time>2026-08-21T14:31:54.000Z</time>
        <extensions>
          <ns3:TrackPointExtension>
            <ns3:hr>141</ns3:hr>
            <ns3:cad>59</ns3:cad>
          </ns3:TrackPointExtension>
        </extensions>
      </trkpt>
      <trkpt lat="45.30015184544026851654052734375" lon="-70.8552543818950653076171875">
        <ele>1096.5999755859375</ele>
        <time>2026-08-21T14:31:55.000Z</time>
        <extensions>
          <ns3:TrackPointExtension>
            <ns3:hr>141</ns3:hr>
            <ns3:cad>59</ns3:cad>
          </ns3:TrackPointExtension>
        </extensions>
      </trkpt>
      <trkpt lat="45.30016860924661159515380859375" lon="-70.8552649430930614471435546875">
        <ele>1096.800048828125</ele>
        <time>2026-08-21T14:31:56.000Z</time>
        <extensions>
          <ns3:TrackPointExtension>
            <ns3:hr>140</ns3:hr>
            <ns3:cad>59</ns3:cad>
          </ns3:TrackPointExtension>
        </extensions>
      </trkpt>
      <trkpt lat="45.30018453486263751983642578125" lon="-70.85527223534882068634033203125">
        <ele>1097</ele>
        <time>2026-08-21T14:31:57.000Z</time>
        <extensions>
          <ns3:TrackPointExtension>
            <ns3:hr>140</ns3:hr>
            <ns3:cad>59</ns3:cad>
          </ns3:TrackPointExtension>
        </extensions>
      </trkpt>
      <trkpt lat="45.30020825564861297607421875" lon="-70.85528564639389514923095703125">
        <ele>1097</ele>
        <time>2026-08-21T14:31:58.000Z</time>
        <extensions>
          <ns3:TrackPointExtension>
            <ns3:hr>140</ns3:hr>
            <ns3:cad>0</ns3:cad>
          </ns3:TrackPointExtension>
        </extensions>
      </trkpt>
      <trkpt lat="45.30022443272173404693603515625" lon="-70.85529168136417865753173828125">
        <ele>1097</ele>
        <time>2026-08-21T14:31:59.000Z</time>
        <extensions>
          <ns3:TrackPointExtension>
            <ns3:hr>139</ns3:hr>
            <ns3:cad>0</ns3:cad>
          </ns3:TrackPointExtension>
        </extensions>
      </trkpt>
      <trkpt lat="45.30023700557649135589599609375" lon="-70.85529268719255924224853515625">
        <ele>1097</ele>
        <time>2026-08-21T14:32:00.000Z</time>
        <extensions>
          <ns3:TrackPointExtension>
            <ns3:hr>140</ns3:hr>
            <ns3:cad>57</ns3:cad>
          </ns3:TrackPointExtension>
        </extensions>
      </trkpt>
      <trkpt lat="45.3002526797354221343994140625" lon="-70.855295620858669281005859375">
        <ele>1096.800048828125</ele>
        <time>2026-08-21T14:32:01.000Z</time>
        <extensions>
          <ns3:TrackPointExtension>
            <ns3:hr>139</ns3:hr>
            <ns3:cad>57</ns3:cad>
          </ns3:TrackPointExtension>
        </extensions>
      </trkpt>
      <trkpt lat="45.300272963941097259521484375" lon="-70.855295956134796142578125">
        <ele>1096.800048828125</ele>
        <time>2026-08-21T14:32:02.000Z</time>
        <extensions>
          <ns3:TrackPointExtension>
            <ns3:hr>139</ns3:hr>
            <ns3:cad>57</ns3:cad>
          </ns3:TrackPointExtension>
        </extensions>
      </trkpt>
      <trkpt lat="45.30029014684259891510009765625" lon="-70.8552971296012401580810546875">
        <ele>1096.800048828125</ele>
        <time>2026-08-21T14:32:03.000Z</time>
        <extensions>
          <ns3:TrackPointExtension>
            <ns3:hr>139</ns3:hr>
            <ns3:cad>57</ns3:cad>
          </ns3:TrackPointExtension>
        </extensions>
      </trkpt>
      <trkpt lat="45.300303138792514801025390625" lon="-70.85530333220958709716796875">
        <ele>1096.800048828125</ele>
        <time>2026-08-21T14:32:04.000Z</time>
        <extensions>
          <ns3:TrackPointExtension>
            <ns3:hr>139</ns3:hr>
            <ns3:cad>57</ns3:cad>
          </ns3:TrackPointExtension>
        </extensions>
      </trkpt>
      <trkpt lat="45.3003175556659698486328125" lon="-70.85531163029372692108154296875">
        <ele>1096.800048828125</ele>
        <time>2026-08-21T14:32:05.000Z</time>
        <extensions>
          <ns3:TrackPointExtension>
            <ns3:hr>140</ns3:hr>
            <ns3:cad>57</ns3:cad>
          </ns3:TrackPointExtension>
        </extensions>
      </trkpt>
      <trkpt lat="45.30032887123525142669677734375" lon="-70.85531867109239101409912109375">
        <ele>1096.800048828125</ele>
        <time>2026-08-21T14:32:06.000Z</time>
        <extensions>
          <ns3:TrackPointExtension>
            <ns3:hr>139</ns3:hr>
            <ns3:cad>57</ns3:cad>
          </ns3:TrackPointExtension>
        </extensions>
      </trkpt>
      <trkpt lat="45.30034161172807216644287109375" lon="-70.85532881319522857666015625">
        <ele>1096.800048828125</ele>
        <time>2026-08-21T14:32:07.000Z</time>
        <extensions>
          <ns3:TrackPointExtension>
            <ns3:hr>139</ns3:hr>
            <ns3:cad>57</ns3:cad>
          </ns3:TrackPointExtension>
        </extensions>
      </trkpt>
      <trkpt lat="45.30034781433641910552978515625" lon="-70.8553400449454784393310546875">
        <ele>1097</ele>
        <time>2026-08-21T14:32:08.000Z</time>
        <extensions>
          <ns3:TrackPointExtension>
            <ns3:hr>140</ns3:hr>
            <ns3:cad>57</ns3:cad>
          </ns3:TrackPointExtension>
        </extensions>
      </trkpt>
      <trkpt lat="45.30035451985895633697509765625" lon="-70.855339877307415008544921875">
        <ele>1097</ele>
        <time>2026-08-21T14:32:09.000Z</time>
        <extensions>
          <ns3:TrackPointExtension>
            <ns3:hr>139</ns3:hr>
            <ns3:cad>57</ns3:cad>
          </ns3:TrackPointExtension>
        </extensions>
      </trkpt>
      <trkpt lat="45.3003646619617938995361328125" lon="-70.85534155368804931640625">
        <ele>1097</ele>
        <time>2026-08-21T14:32:10.000Z</time>
        <extensions>
          <ns3:TrackPointExtension>
            <ns3:hr>139</ns3:hr>
            <ns3:cad>56</ns3:cad>
          </ns3:TrackPointExtension>
        </extensions>
      </trkpt>
      <trkpt lat="45.30037463642656803131103515625" lon="-70.85534222424030303955078125">
        <ele>1097.199951171875</ele>
        <time>2026-08-21T14:32:11.000Z</time>
        <extensions>
          <ns3:TrackPointExtension>
            <ns3:hr>140</ns3:hr>
            <ns3:cad>56</ns3:cad>
          </ns3:TrackPointExtension>
        </extensions>
      </trkpt>
      <trkpt lat="45.3003819286823272705078125" lon="-70.8553450740873813629150390625">
        <ele>1097.199951171875</ele>
        <time>2026-08-21T14:32:12.000Z</time>
        <extensions>
          <ns3:TrackPointExtension>
            <ns3:hr>140</ns3:hr>
            <ns3:cad>0</ns3:cad>
          </ns3:TrackPointExtension>
        </extensions>
      </trkpt>
      <trkpt lat="45.30038452707231044769287109375" lon="-70.8553467504680156707763671875">
        <ele>1097.199951171875</ele>
        <time>2026-08-21T14:32:13.000Z</time>
        <extensions>
          <ns3:TrackPointExtension>
            <ns3:hr>141</ns3:hr>
            <ns3:cad>0</ns3:cad>
          </ns3:TrackPointExtension>
        </extensions>
      </trkpt>
      <trkpt lat="45.30038603581488132476806640625" lon="-70.8553464151918888092041015625">
        <ele>1097.199951171875</ele>
        <time>2026-08-21T14:32:14.000Z</time>
        <extensions>
          <ns3:TrackPointExtension>
            <ns3:hr>141</ns3:hr>
            <ns3:cad>0</ns3:cad>
          </ns3:TrackPointExtension>
        </extensions>
      </trkpt>
      <trkpt lat="45.300388969480991363525390625" lon="-70.8553407154977321624755859375">
        <ele>1097.4000244140625</ele>
        <time>2026-08-21T14:32:15.000Z</time>
        <extensions>
          <ns3:TrackPointExtension>
            <ns3:hr>143</ns3:hr>
            <ns3:cad>0</ns3:cad>
          </ns3:TrackPointExtension>
        </extensions>
      </trkpt>
      <trkpt lat="45.3003872931003570556640625" lon="-70.85533878766000270843505859375">
        <ele>1097.4000244140625</ele>
        <time>2026-08-21T14:32:16.000Z</time>
        <extensions>
          <ns3:TrackPointExtension>
            <ns3:hr>144</ns3:hr>
            <ns3:cad>0</ns3:cad>
          </ns3:TrackPointExtension>
        </extensions>
      </trkpt>
      <trkpt lat="45.30038871802389621734619140625" lon="-70.85533644072711467742919921875">
        <ele>1097.4000244140625</ele>
        <time>2026-08-21T14:32:17.000Z</time>
        <extensions>
          <ns3:TrackPointExtension>
            <ns3:hr>144</ns3:hr>
            <ns3:cad>0</ns3:cad>
          </ns3:TrackPointExtension>
        </extensions>
      </trkpt>
      <trkpt lat="45.3003898076713085174560546875" lon="-70.85533878766000270843505859375">
        <ele>1097.4000244140625</ele>
        <time>2026-08-21T14:32:18.000Z</time>
        <extensions>
          <ns3:TrackPointExtension>
            <ns3:hr>144</ns3:hr>
            <ns3:cad>0</ns3:cad>
          </ns3:TrackPointExtension>
        </extensions>
      </trkpt>
      <trkpt lat="45.3003891371190547943115234375" lon="-70.855339877307415008544921875">
        <ele>1097.4000244140625</ele>
        <time>2026-08-21T14:32:19.000Z</time>
        <extensions>
          <ns3:TrackPointExtension>
            <ns3:hr>143</ns3:hr>
            <ns3:cad>0</ns3:cad>
          </ns3:TrackPointExtension>
        </extensions>
      </trkpt>
      <trkpt lat="45.30039056204259395599365234375" lon="-70.85534163750708103179931640625">
        <ele>1097.4000244140625</ele>
        <time>2026-08-21T14:32:20.000Z</time>
        <extensions>
          <ns3:TrackPointExtension>
            <ns3:hr>140</ns3:hr>
            <ns3:cad>0</ns3:cad>
          </ns3:TrackPointExtension>
        </extensions>
      </trkpt>
      <trkpt lat="45.30039072968065738677978515625" lon="-70.85534314624965190887451171875">
        <ele>1097.4000244140625</ele>
        <time>2026-08-21T14:32:21.000Z</time>
        <extensions>
          <ns3:TrackPointExtension>
            <ns3:hr>139</ns3:hr>
            <ns3:cad>0</ns3:cad>
          </ns3:TrackPointExtension>
        </extensions>
      </trkpt>
      <trkpt lat="45.3003951720893383026123046875" lon="-70.8553454093635082244873046875">
        <ele>1097.4000244140625</ele>
        <time>2026-08-21T14:32:22.000Z</time>
        <extensions>
          <ns3:TrackPointExtension>
            <ns3:hr>138</ns3:hr>
            <ns3:cad>0</ns3:cad>
          </ns3:TrackPointExtension>
        </extensions>
      </trkpt>
      <trkpt lat="45.30040003359317779541015625" lon="-70.85535571910440921783447265625">
        <ele>1097.4000244140625</ele>
        <time>2026-08-21T14:32:23.000Z</time>
        <extensions>
          <ns3:TrackPointExtension>
            <ns3:hr>138</ns3:hr>
            <ns3:cad>0</ns3:cad>
          </ns3:TrackPointExtension>
        </extensions>
      </trkpt>
      <trkpt lat="45.30040481127798557281494140625" lon="-70.8553618378937244415283203125">
        <ele>1097.4000244140625</ele>
        <time>2026-08-21T14:32:24.000Z</time>
        <extensions>
          <ns3:TrackPointExtension>
            <ns3:hr>138</ns3:hr>
            <ns3:cad>0</ns3:cad>
          </ns3:TrackPointExtension>
        </extensions>
      </trkpt>
      <trkpt lat="45.3004109300673007965087890625" lon="-70.855370722711086273193359375">
        <ele>1097.4000244140625</ele>
        <time>2026-08-21T14:32:25.000Z</time>
        <extensions>
          <ns3:TrackPointExtension>
            <ns3:hr>137</ns3:hr>
            <ns3:cad>0</ns3:cad>
          </ns3:TrackPointExtension>
        </extensions>
      </trkpt>
      <trkpt lat="45.3004179708659648895263671875" lon="-70.8553802780807018280029296875">
        <ele>1097.4000244140625</ele>
        <time>2026-08-21T14:32:26.000Z</time>
        <extensions>
          <ns3:TrackPointExtension>
            <ns3:hr>138</ns3:hr>
            <ns3:cad>0</ns3:cad>
          </ns3:TrackPointExtension>
        </extensions>
      </trkpt>
      <trkpt lat="45.3004320524632930755615234375" lon="-70.855392180383205413818359375">
        <ele>1097.199951171875</ele>
        <time>2026-08-21T14:32:27.000Z</time>
        <extensions>
          <ns3:TrackPointExtension>
            <ns3:hr>138</ns3:hr>
            <ns3:cad>0</ns3:cad>
          </ns3:TrackPointExtension>
        </extensions>
      </trkpt>
      <trkpt lat="45.300439931452274322509765625" lon="-70.8553965389728546142578125">
        <ele>1097.199951171875</ele>
        <time>2026-08-21T14:32:28.000Z</time>
        <extensions>
          <ns3:TrackPointExtension>
            <ns3:hr>137</ns3:hr>
            <ns3:cad>0</ns3:cad>
          </ns3:TrackPointExtension>
        </extensions>
      </trkpt>
      <trkpt lat="45.3004478104412555694580078125" lon="-70.85540047846734523773193359375">
        <ele>1097.199951171875</ele>
        <time>2026-08-21T14:32:29.000Z</time>
        <extensions>
          <ns3:TrackPointExtension>
            <ns3:hr>137</ns3:hr>
            <ns3:cad>57</ns3:cad>
          </ns3:TrackPointExtension>
        </extensions>
      </trkpt>
      <trkpt lat="45.30045443214476108551025390625" lon="-70.8554087765514850616455078125">
        <ele>1097</ele>
        <time>2026-08-21T14:32:30.000Z</time>
        <extensions>
          <ns3:TrackPointExtension>
            <ns3:hr>137</ns3:hr>
            <ns3:cad>55</ns3:cad>
          </ns3:TrackPointExtension>
        </extensions>
      </trkpt>
      <trkpt lat="45.30046214349567890167236328125" lon="-70.8554206788539886474609375">
        <ele>1097</ele>
        <time>2026-08-21T14:32:31.000Z</time>
        <extensions>
          <ns3:TrackPointExtension>
            <ns3:hr>137</ns3:hr>
            <ns3:cad>55</ns3:cad>
          </ns3:TrackPointExtension>
        </extensions>
      </trkpt>
      <trkpt lat="45.3004726208746433258056640625" lon="-70.8554322458803653717041015625">
        <ele>1097</ele>
        <time>2026-08-21T14:32:32.000Z</time>
        <extensions>
          <ns3:TrackPointExtension>
            <ns3:hr>137</ns3:hr>
            <ns3:cad>55</ns3:cad>
          </ns3:TrackPointExtension>
        </extensions>
      </trkpt>
      <trkpt lat="45.30047915875911712646484375" lon="-70.8554349280893802642822265625">
        <ele>1096.800048828125</ele>
        <time>2026-08-21T14:32:33.000Z</time>
        <extensions>
          <ns3:TrackPointExtension>
            <ns3:hr>138</ns3:hr>
            <ns3:cad>55</ns3:cad>
          </ns3:TrackPointExtension>
        </extensions>
      </trkpt>
      <trkpt lat="45.30049114488065242767333984375" lon="-70.8554433099925518035888671875">
        <ele>1096.5999755859375</ele>
        <time>2026-08-21T14:32:34.000Z</time>
        <extensions>
          <ns3:TrackPointExtension>
            <ns3:hr>137</ns3:hr>
            <ns3:cad>51</ns3:cad>
          </ns3:TrackPointExtension>
        </extensions>
      </trkpt>
      <trkpt lat="45.30050438828766345977783203125" lon="-70.85545361973345279693603515625">
        <ele>1096.4000244140625</ele>
        <time>2026-08-21T14:32:35.000Z</time>
        <extensions>
          <ns3:TrackPointExtension>
            <ns3:hr>137</ns3:hr>
            <ns3:cad>53</ns3:cad>
          </ns3:TrackPointExtension>
        </extensions>
      </trkpt>
      <trkpt lat="45.30051344074308872222900390625" lon="-70.8554620854556560516357421875">
        <ele>1096.199951171875</ele>
        <time>2026-08-21T14:32:36.000Z</time>
        <extensions>
          <ns3:TrackPointExtension>
            <ns3:hr>138</ns3:hr>
            <ns3:cad>53</ns3:cad>
          </ns3:TrackPointExtension>
        </extensions>
      </trkpt>
      <trkpt lat="45.30052366666495800018310546875" lon="-70.8554716408252716064453125">
        <ele>1096</ele>
        <time>2026-08-21T14:32:37.000Z</time>
        <extensions>
          <ns3:TrackPointExtension>
            <ns3:hr>137</ns3:hr>
            <ns3:cad>53</ns3:cad>
          </ns3:TrackPointExtension>
        </extensions>
      </trkpt>
      <trkpt lat="45.30053615570068359375" lon="-70.8554801903665065765380859375">
        <ele>1095.800048828125</ele>
        <time>2026-08-21T14:32:38.000Z</time>
        <extensions>
          <ns3:TrackPointExtension>
            <ns3:hr>135</ns3:hr>
            <ns3:cad>53</ns3:cad>
          </ns3:TrackPointExtension>
        </extensions>
      </trkpt>
      <trkpt lat="45.30054755508899688720703125" lon="-70.85549150593578815460205078125">
        <ele>1095.800048828125</ele>
        <time>2026-08-21T14:32:39.000Z</time>
        <extensions>
          <ns3:TrackPointExtension>
            <ns3:hr>133</ns3:hr>
            <ns3:cad>54</ns3:cad>
          </ns3:TrackPointExtension>
        </extensions>
      </trkpt>
      <trkpt lat="45.30055836774408817291259765625" lon="-70.85550005547702312469482421875">
        <ele>1095.5999755859375</ele>
        <time>2026-08-21T14:32:40.000Z</time>
        <extensions>
          <ns3:TrackPointExtension>
            <ns3:hr>132</ns3:hr>
            <ns3:cad>54</ns3:cad>
          </ns3:TrackPointExtension>
        </extensions>
      </trkpt>
      <trkpt lat="45.30056976713240146636962890625" lon="-70.85551162250339984893798828125">
        <ele>1095.4000244140625</ele>
        <time>2026-08-21T14:32:41.000Z</time>
        <extensions>
          <ns3:TrackPointExtension>
            <ns3:hr>131</ns3:hr>
            <ns3:cad>55</ns3:cad>
          </ns3:TrackPointExtension>
        </extensions>
      </trkpt>
      <trkpt lat="45.30057714320719242095947265625" lon="-70.85552687756717205047607421875">
        <ele>1095.199951171875</ele>
        <time>2026-08-21T14:32:42.000Z</time>
        <extensions>
          <ns3:TrackPointExtension>
            <ns3:hr>132</ns3:hr>
            <ns3:cad>55</ns3:cad>
          </ns3:TrackPointExtension>
        </extensions>
      </trkpt>
      <trkpt lat="45.30058485455811023712158203125" lon="-70.85553894750773906707763671875">
        <ele>1095.199951171875</ele>
        <time>2026-08-21T14:32:43.000Z</time>
        <extensions>
          <ns3:TrackPointExtension>
            <ns3:hr>132</ns3:hr>
            <ns3:cad>55</ns3:cad>
          </ns3:TrackPointExtension>
        </extensions>
      </trkpt>
      <trkpt lat="45.300594158470630645751953125" lon="-70.85555185563862323760986328125">
        <ele>1095</ele>
        <time>2026-08-21T14:32:44.000Z</time>
        <extensions>
          <ns3:TrackPointExtension>
            <ns3:hr>133</ns3:hr>
            <ns3:cad>57</ns3:cad>
          </ns3:TrackPointExtension>
        </extensions>
      </trkpt>
      <trkpt lat="45.3006040491163730621337890625" lon="-70.85556107573211193084716796875">
        <ele>1094.800048828125</ele>
        <time>2026-08-21T14:32:45.000Z</time>
        <extensions>
          <ns3:TrackPointExtension>
            <ns3:hr>132</ns3:hr>
            <ns3:cad>57</ns3:cad>
          </ns3:TrackPointExtension>
        </extensions>
      </trkpt>
      <trkpt lat="45.30061117373406887054443359375" lon="-70.85556979291141033172607421875">
        <ele>1094.5999755859375</ele>
        <time>2026-08-21T14:32:46.000Z</time>
        <extensions>
          <ns3:TrackPointExtension>
            <ns3:hr>132</ns3:hr>
            <ns3:cad>57</ns3:cad>
          </ns3:TrackPointExtension>
        </extensions>
      </trkpt>
      <trkpt lat="45.3006177954375743865966796875" lon="-70.8555844612419605255126953125">
        <ele>1094.199951171875</ele>
        <time>2026-08-21T14:32:47.000Z</time>
        <extensions>
          <ns3:TrackPointExtension>
            <ns3:hr>132</ns3:hr>
            <ns3:cad>57</ns3:cad>
          </ns3:TrackPointExtension>
        </extensions>
      </trkpt>
      <trkpt lat="45.30062441714107990264892578125" lon="-70.85559560917317867279052734375">
        <ele>1094</ele>
        <time>2026-08-21T14:32:48.000Z</time>
        <extensions>
          <ns3:TrackPointExtension>
            <ns3:hr>133</ns3:hr>
            <ns3:cad>57</ns3:cad>
          </ns3:TrackPointExtension>
        </extensions>
      </trkpt>
      <trkpt lat="45.30063011683523654937744140625" lon="-70.85560549981892108917236328125">
        <ele>1093.800048828125</ele>
        <time>2026-08-21T14:32:49.000Z</time>
        <extensions>
          <ns3:TrackPointExtension>
            <ns3:hr>133</ns3:hr>
            <ns3:cad>59</ns3:cad>
          </ns3:TrackPointExtension>
        </extensions>
      </trkpt>
      <trkpt lat="45.30063598416745662689208984375" lon="-70.85561840794980525970458984375">
        <ele>1093.5999755859375</ele>
        <time>2026-08-21T14:32:50.000Z</time>
        <extensions>
          <ns3:TrackPointExtension>
            <ns3:hr>132</ns3:hr>
            <ns3:cad>59</ns3:cad>
          </ns3:TrackPointExtension>
        </extensions>
      </trkpt>
      <trkpt lat="45.3006447851657867431640625" lon="-70.85562779568135738372802734375">
        <ele>1093.4000244140625</ele>
        <time>2026-08-21T14:32:51.000Z</time>
        <extensions>
          <ns3:TrackPointExtension>
            <ns3:hr>132</ns3:hr>
            <ns3:cad>59</ns3:cad>
          </ns3:TrackPointExtension>
        </extensions>
      </trkpt>
      <trkpt lat="45.30065006576478481292724609375" lon="-70.85563751868903636932373046875">
        <ele>1093.199951171875</ele>
        <time>2026-08-21T14:32:52.000Z</time>
        <extensions>
          <ns3:TrackPointExtension>
            <ns3:hr>132</ns3:hr>
            <ns3:cad>59</ns3:cad>
          </ns3:TrackPointExtension>
        </extensions>
      </trkpt>
      <trkpt lat="45.3006536699831485748291015625" lon="-70.85564841516315937042236328125">
        <ele>1093</ele>
        <time>2026-08-21T14:32:53.000Z</time>
        <extensions>
          <ns3:TrackPointExtension>
            <ns3:hr>131</ns3:hr>
            <ns3:cad>59</ns3:cad>
          </ns3:TrackPointExtension>
        </extensions>
      </trkpt>
      <trkpt lat="45.30065677128732204437255859375" lon="-70.85566802881658077239990234375">
        <ele>1092.5999755859375</ele>
        <time>2026-08-21T14:32:54.000Z</time>
        <extensions>
          <ns3:TrackPointExtension>
            <ns3:hr>130</ns3:hr>
            <ns3:cad>59</ns3:cad>
          </ns3:TrackPointExtension>
        </extensions>
      </trkpt>
      <trkpt lat="45.30065844766795635223388671875" lon="-70.8556808531284332275390625">
        <ele>1092.4000244140625</ele>
        <time>2026-08-21T14:32:55.000Z</time>
        <extensions>
          <ns3:TrackPointExtension>
            <ns3:hr>129</ns3:hr>
            <ns3:cad>59</ns3:cad>
          </ns3:TrackPointExtension>
        </extensions>
      </trkpt>
      <trkpt lat="45.30066414736211299896240234375" lon="-70.85570775903761386871337890625">
        <ele>1092</ele>
        <time>2026-08-21T14:32:56.000Z</time>
        <extensions>
          <ns3:TrackPointExtension>
            <ns3:hr>128</ns3:hr>
            <ns3:cad>0</ns3:cad>
          </ns3:TrackPointExtension>
        </extensions>
      </trkpt>
      <trkpt lat="45.300671271979808807373046875" lon="-70.8557252772152423858642578125">
        <ele>1091.5999755859375</ele>
        <time>2026-08-21T14:32:57.000Z</time>
        <extensions>
          <ns3:TrackPointExtension>
            <ns3:hr>127</ns3:hr>
            <ns3:cad>0</ns3:cad>
          </ns3:TrackPointExtension>
        </extensions>
      </trkpt>
      <trkpt lat="45.30068141408264636993408203125" lon="-70.85575369186699390411376953125">
        <ele>1091</ele>
        <time>2026-08-21T14:32:58.000Z</time>
        <extensions>
          <ns3:TrackPointExtension>
            <ns3:hr>127</ns3:hr>
            <ns3:cad>0</ns3:cad>
          </ns3:TrackPointExtension>
        </extensions>
      </trkpt>
      <trkpt lat="45.300690047442913055419921875" lon="-70.8557760715484619140625">
        <ele>1090.4000244140625</ele>
        <time>2026-08-21T14:32:59.000Z</time>
        <extensions>
          <ns3:TrackPointExtension>
            <ns3:hr>127</ns3:hr>
            <ns3:cad>0</ns3:cad>
          </ns3:TrackPointExtension>
        </extensions>
      </trkpt>
      <trkpt lat="45.30070035718381404876708984375" lon="-70.85580616258084774017333984375">
        <ele>1090</ele>
        <time>2026-08-21T14:33:00.000Z</time>
        <extensions>
          <ns3:TrackPointExtension>
            <ns3:hr>128</ns3:hr>
            <ns3:cad>0</ns3:cad>
          </ns3:TrackPointExtension>
        </extensions>
      </trkpt>
      <trkpt lat="45.30070538632571697235107421875" lon="-70.8558235131204128265380859375">
        <ele>1089.5999755859375</ele>
        <time>2026-08-21T14:33:01.000Z</time>
        <extensions>
          <ns3:TrackPointExtension>
            <ns3:hr>128</ns3:hr>
            <ns3:cad>0</ns3:cad>
          </ns3:TrackPointExtension>
        </extensions>
      </trkpt>
      <trkpt lat="45.3007120080292224884033203125" lon="-70.85585025139153003692626953125">
        <ele>1089.199951171875</ele>
        <time>2026-08-21T14:33:02.000Z</time>
        <extensions>
          <ns3:TrackPointExtension>
            <ns3:hr>128</ns3:hr>
            <ns3:cad>0</ns3:cad>
          </ns3:TrackPointExtension>
        </extensions>
      </trkpt>
      <trkpt lat="45.30072064138948917388916015625" lon="-70.85586852394044399261474609375">
        <ele>1089</ele>
        <time>2026-08-21T14:33:03.000Z</time>
        <extensions>
          <ns3:TrackPointExtension>
            <ns3:hr>128</ns3:hr>
            <ns3:cad>0</ns3:cad>
          </ns3:TrackPointExtension>
        </extensions>
      </trkpt>
      <trkpt lat="45.3007277660071849822998046875" lon="-70.85588562302291393280029296875">
        <ele>1088.5999755859375</ele>
        <time>2026-08-21T14:33:04.000Z</time>
        <extensions>
          <ns3:TrackPointExtension>
            <ns3:hr>127</ns3:hr>
            <ns3:cad>0</ns3:cad>
          </ns3:TrackPointExtension>
        </extensions>
      </trkpt>
      <trkpt lat="45.30073237605392932891845703125" lon="-70.85589836351573467254638671875">
        <ele>1088.4000244140625</ele>
        <time>2026-08-21T14:33:05.000Z</time>
        <extensions>
          <ns3:TrackPointExtension>
            <ns3:hr>128</ns3:hr>
            <ns3:cad>0</ns3:cad>
          </ns3:TrackPointExtension>
        </extensions>
      </trkpt>
      <trkpt lat="45.3007386624813079833984375" lon="-70.8559187315404415130615234375">
        <ele>1088</ele>
        <time>2026-08-21T14:33:06.000Z</time>
        <extensions>
          <ns3:TrackPointExtension>
            <ns3:hr>128</ns3:hr>
            <ns3:cad>0</ns3:cad>
          </ns3:TrackPointExtension>
        </extensions>
      </trkpt>
      <trkpt lat="45.3007413446903228759765625" lon="-70.85593490861356258392333984375">
        <ele>1087.5999755859375</ele>
        <time>2026-08-21T14:33:07.000Z</time>
        <extensions>
          <ns3:TrackPointExtension>
            <ns3:hr>128</ns3:hr>
            <ns3:cad>0</ns3:cad>
          </ns3:TrackPointExtension>
        </extensions>
      </trkpt>
      <trkpt lat="45.3007448650896549224853515625" lon="-70.85595636628568172454833984375">
        <ele>1087.199951171875</ele>
        <time>2026-08-21T14:33:08.000Z</time>
        <extensions>
          <ns3:TrackPointExtension>
            <ns3:hr>127</ns3:hr>
            <ns3:cad>74</ns3:cad>
          </ns3:TrackPointExtension>
        </extensions>
      </trkpt>
      <trkpt lat="45.300752408802509307861328125" lon="-70.85598536767065525054931640625">
        <ele>1087</ele>
        <time>2026-08-21T14:33:09.000Z</time>
        <extensions>
          <ns3:TrackPointExtension>
            <ns3:hr>128</ns3:hr>
            <ns3:cad>74</ns3:cad>
          </ns3:TrackPointExtension>
        </extensions>
      </trkpt>
      <trkpt lat="45.3007673285901546478271484375" lon="-70.8560055680572986602783203125">
        <ele>1086.5999755859375</ele>
        <time>2026-08-21T14:33:10.000Z</time>
        <extensions>
          <ns3:TrackPointExtension>
            <ns3:hr>128</ns3:hr>
            <ns3:cad>0</ns3:cad>
          </ns3:TrackPointExtension>
        </extensions>
      </trkpt>
      <trkpt lat="45.30077579431235790252685546875" lon="-70.85602258332073688507080078125">
        <ele>1086.5999755859375</ele>
        <time>2026-08-21T14:33:11.000Z</time>
        <extensions>
          <ns3:TrackPointExtension>
            <ns3:hr>128</ns3:hr>
            <ns3:cad>0</ns3:cad>
          </ns3:TrackPointExtension>
        </extensions>
      </trkpt>
      <trkpt lat="45.3007869422435760498046875" lon="-70.85604588501155376434326171875">
        <ele>1086.4000244140625</ele>
        <time>2026-08-21T14:33:12.000Z</time>
        <extensions>
          <ns3:TrackPointExtension>
            <ns3:hr>127</ns3:hr>
            <ns3:cad>0</ns3:cad>
          </ns3:TrackPointExtension>
        </extensions>
      </trkpt>
      <trkpt lat="45.3007971681654453277587890625" lon="-70.85606700740754604339599609375">
        <ele>1086.4000244140625</ele>
        <time>2026-08-21T14:33:13.000Z</time>
        <extensions>
          <ns3:TrackPointExtension>
            <ns3:hr>128</ns3:hr>
            <ns3:cad>0</ns3:cad>
          </ns3:TrackPointExtension>
        </extensions>
      </trkpt>
      <trkpt lat="45.3008109144866466522216796875" lon="-70.85609097965061664581298828125">
        <ele>1086.4000244140625</ele>
        <time>2026-08-21T14:33:14.000Z</time>
        <extensions>
          <ns3:TrackPointExtension>
            <ns3:hr>128</ns3:hr>
            <ns3:cad>0</ns3:cad>
          </ns3:TrackPointExtension>
        </extensions>
      </trkpt>
      <trkpt lat="45.300817787647247314453125" lon="-70.8561121858656406402587890625">
        <ele>1086.4000244140625</ele>
        <time>2026-08-21T14:33:15.000Z</time>
        <extensions>
          <ns3:TrackPointExtension>
            <ns3:hr>128</ns3:hr>
            <ns3:cad>0</ns3:cad>
          </ns3:TrackPointExtension>
        </extensions>
      </trkpt>
      <trkpt lat="45.300828851759433746337890625" lon="-70.85613674484193325042724609375">
        <ele>1086.199951171875</ele>
        <time>2026-08-21T14:33:16.000Z</time>
        <extensions>
          <ns3:TrackPointExtension>
            <ns3:hr>127</ns3:hr>
            <ns3:cad>0</ns3:cad>
          </ns3:TrackPointExtension>
        </extensions>
      </trkpt>
      <trkpt lat="45.3008353896439075469970703125" lon="-70.85614915005862712860107421875">
        <ele>1086.199951171875</ele>
        <time>2026-08-21T14:33:17.000Z</time>
        <extensions>
          <ns3:TrackPointExtension>
            <ns3:hr>127</ns3:hr>
            <ns3:cad>0</ns3:cad>
          </ns3:TrackPointExtension>
        </extensions>
      </trkpt>
      <trkpt lat="45.30084192752838134765625" lon="-70.85616457276046276092529296875">
        <ele>1086.199951171875</ele>
        <time>2026-08-21T14:33:18.000Z</time>
        <extensions>
          <ns3:TrackPointExtension>
            <ns3:hr>127</ns3:hr>
            <ns3:cad>0</ns3:cad>
          </ns3:TrackPointExtension>
        </extensions>
      </trkpt>
      <trkpt lat="45.30084352008998394012451171875" lon="-70.8561815880239009857177734375">
        <ele>1086.199951171875</ele>
        <time>2026-08-21T14:33:19.000Z</time>
        <extensions>
          <ns3:TrackPointExtension>
            <ns3:hr>128</ns3:hr>
            <ns3:cad>0</ns3:cad>
          </ns3:TrackPointExtension>
        </extensions>
      </trkpt>
      <trkpt lat="45.30084528028964996337890625" lon="-70.856191478669643402099609375">
        <ele>1086</ele>
        <time>2026-08-21T14:33:20.000Z</time>
        <extensions>
          <ns3:TrackPointExtension>
            <ns3:hr>128</ns3:hr>
            <ns3:cad>0</ns3:cad>
          </ns3:TrackPointExtension>
        </extensions>
      </trkpt>
      <trkpt lat="45.30084687285125255584716796875" lon="-70.8562027104198932647705078125">
        <ele>1085.800048828125</ele>
        <time>2026-08-21T14:33:21.000Z</time>
        <extensions>
          <ns3:TrackPointExtension>
            <ns3:hr>127</ns3:hr>
            <ns3:cad>0</ns3:cad>
          </ns3:TrackPointExtension>
        </extensions>
      </trkpt>
      <trkpt lat="45.3008444420993328094482421875" lon="-70.85622224025428295135498046875">
        <ele>1085.4000244140625</ele>
        <time>2026-08-21T14:33:22.000Z</time>
        <extensions>
          <ns3:TrackPointExtension>
            <ns3:hr>128</ns3:hr>
            <ns3:cad>0</ns3:cad>
          </ns3:TrackPointExtension>
        </extensions>
      </trkpt>
      <trkpt lat="45.3008464537560939788818359375" lon="-70.85623682476580142974853515625">
        <ele>1085.199951171875</ele>
        <time>2026-08-21T14:33:23.000Z</time>
        <extensions>
          <ns3:TrackPointExtension>
            <ns3:hr>128</ns3:hr>
            <ns3:cad>0</ns3:cad>
          </ns3:TrackPointExtension>
        </extensions>
      </trkpt>
      <trkpt lat="45.30085072852671146392822265625" lon="-70.85623766295611858367919921875">
        <ele>1084.800048828125</ele>
        <time>2026-08-21T14:33:24.000Z</time>
        <extensions>
          <ns3:TrackPointExtension>
            <ns3:hr>128</ns3:hr>
            <ns3:cad>0</ns3:cad>
          </ns3:TrackPointExtension>
        </extensions>
      </trkpt>
      <trkpt lat="45.30085391364991664886474609375" lon="-70.8562365733087062835693359375">
        <ele>1084.5999755859375</ele>
        <time>2026-08-21T14:33:25.000Z</time>
        <extensions>
          <ns3:TrackPointExtension>
            <ns3:hr>128</ns3:hr>
            <ns3:cad>54</ns3:cad>
          </ns3:TrackPointExtension>
        </extensions>
      </trkpt>
      <trkpt lat="45.3008524887263774871826171875" lon="-70.8562352322041988372802734375">
        <ele>1084.5999755859375</ele>
        <time>2026-08-21T14:33:26.000Z</time>
        <extensions>
          <ns3:TrackPointExtension>
            <ns3:hr>128</ns3:hr>
            <ns3:cad>54</ns3:cad>
          </ns3:TrackPointExtension>
        </extensions>
      </trkpt>
      <trkpt lat="45.30085265636444091796875" lon="-70.85623598657548427581787109375">
        <ele>1084.4000244140625</ele>
        <time>2026-08-21T14:33:27.000Z</time>
        <extensions>
          <ns3:TrackPointExtension>
            <ns3:hr>128</ns3:hr>
            <ns3:cad>0</ns3:cad>
          </ns3:TrackPointExtension>
        </extensions>
      </trkpt>
      <trkpt lat="45.30085324309766292572021484375" lon="-70.8562439493834972381591796875">
        <ele>1084.4000244140625</ele>
        <time>2026-08-21T14:33:28.000Z</time>
        <extensions>
          <ns3:TrackPointExtension>
            <ns3:hr>129</ns3:hr>
            <ns3:cad>0</ns3:cad>
          </ns3:TrackPointExtension>
        </extensions>
      </trkpt>
      <trkpt lat="45.3008524887263774871826171875" lon="-70.85625174455344676971435546875">
        <ele>1084.4000244140625</ele>
        <time>2026-08-21T14:33:29.000Z</time>
        <extensions>
          <ns3:TrackPointExtension>
            <ns3:hr>129</ns3:hr>
            <ns3:cad>0</ns3:cad>
          </ns3:TrackPointExtension>
        </extensions>
      </trkpt>
      <trkpt lat="45.3008538298308849334716796875" lon="-70.85626767016947269439697265625">
        <ele>1084.199951171875</ele>
        <time>2026-08-21T14:33:30.000Z</time>
        <extensions>
          <ns3:TrackPointExtension>
            <ns3:hr>129</ns3:hr>
            <ns3:cad>0</ns3:cad>
          </ns3:TrackPointExtension>
        </extensions>
      </trkpt>
      <trkpt lat="45.30085039325058460235595703125" lon="-70.85627563297748565673828125">
        <ele>1084</ele>
        <time>2026-08-21T14:33:31.000Z</time>
        <extensions>
          <ns3:TrackPointExtension>
            <ns3:hr>128</ns3:hr>
            <ns3:cad>0</ns3:cad>
          </ns3:TrackPointExtension>
        </extensions>
      </trkpt>
      <trkpt lat="45.300849638879299163818359375" lon="-70.85628032684326171875">
        <ele>1083.5999755859375</ele>
        <time>2026-08-21T14:33:32.000Z</time>
        <extensions>
          <ns3:TrackPointExtension>
            <ns3:hr>129</ns3:hr>
            <ns3:cad>0</ns3:cad>
          </ns3:TrackPointExtension>
        </extensions>
      </trkpt>
      <trkpt lat="45.30084737576544284820556640625" lon="-70.85629415698349475860595703125">
        <ele>1083.199951171875</ele>
        <time>2026-08-21T14:33:33.000Z</time>
        <extensions>
          <ns3:TrackPointExtension>
            <ns3:hr>129</ns3:hr>
            <ns3:cad>0</ns3:cad>
          </ns3:TrackPointExtension>
        </extensions>
      </trkpt>
      <trkpt lat="45.30084653757512569427490234375" lon="-70.85630371235311031341552734375">
        <ele>1082.800048828125</ele>
        <time>2026-08-21T14:33:34.000Z</time>
        <extensions>
          <ns3:TrackPointExtension>
            <ns3:hr>130</ns3:hr>
            <ns3:cad>0</ns3:cad>
          </ns3:TrackPointExtension>
        </extensions>
      </trkpt>
      <trkpt lat="45.3008477948606014251708984375" lon="-70.85631125606596469879150390625">
        <ele>1082.199951171875</ele>
        <time>2026-08-21T14:33:35.000Z</time>
        <extensions>
          <ns3:TrackPointExtension>
            <ns3:hr>130</ns3:hr>
            <ns3:cad>0</ns3:cad>
          </ns3:TrackPointExtension>
        </extensions>
      </trkpt>
      <trkpt lat="45.300848968327045440673828125" lon="-70.8563190512359142303466796875">
        <ele>1081.800048828125</ele>
        <time>2026-08-21T14:33:36.000Z</time>
        <extensions>
          <ns3:TrackPointExtension>
            <ns3:hr>130</ns3:hr>
            <ns3:cad>0</ns3:cad>
          </ns3:TrackPointExtension>
        </extensions>
      </trkpt>
      <trkpt lat="45.30084737576544284820556640625" lon="-70.85632215254008769989013671875">
        <ele>1081.4000244140625</ele>
        <time>2026-08-21T14:33:37.000Z</time>
        <extensions>
          <ns3:TrackPointExtension>
            <ns3:hr>130</ns3:hr>
            <ns3:cad>0</ns3:cad>
          </ns3:TrackPointExtension>
        </extensions>
      </trkpt>
      <trkpt lat="45.30084670521318912506103515625" lon="-70.85633204318583011627197265625">
        <ele>1081</ele>
        <time>2026-08-21T14:33:38.000Z</time>
        <extensions>
          <ns3:TrackPointExtension>
            <ns3:hr>131</ns3:hr>
            <ns3:cad>0</ns3:cad>
          </ns3:TrackPointExtension>
        </extensions>
      </trkpt>
      <trkpt lat="45.30084502883255481719970703125" lon="-70.85633606649935245513916015625">
        <ele>1080.5999755859375</ele>
        <time>2026-08-21T14:33:39.000Z</time>
        <extensions>
          <ns3:TrackPointExtension>
            <ns3:hr>131</ns3:hr>
            <ns3:cad>0</ns3:cad>
          </ns3:TrackPointExtension>
        </extensions>
      </trkpt>
      <trkpt lat="45.30083991587162017822265625" lon="-70.85635341703891754150390625">
        <ele>1080.4000244140625</ele>
        <time>2026-08-21T14:33:40.000Z</time>
        <extensions>
          <ns3:TrackPointExtension>
            <ns3:hr>131</ns3:hr>
            <ns3:cad>0</ns3:cad>
          </ns3:TrackPointExtension>
        </extensions>
      </trkpt>
      <trkpt lat="45.30083916150033473968505859375" lon="-70.85637043230235576629638671875">
        <ele>1080</ele>
        <time>2026-08-21T14:33:41.000Z</time>
        <extensions>
          <ns3:TrackPointExtension>
            <ns3:hr>132</ns3:hr>
            <ns3:cad>0</ns3:cad>
          </ns3:TrackPointExtension>
        </extensions>
      </trkpt>
      <trkpt lat="45.30084687285125255584716796875" lon="-70.85638904012739658355712890625">
        <ele>1079.800048828125</ele>
        <time>2026-08-21T14:33:42.000Z</time>
        <extensions>
          <ns3:TrackPointExtension>
            <ns3:hr>132</ns3:hr>
            <ns3:cad>0</ns3:cad>
          </ns3:TrackPointExtension>
        </extensions>
      </trkpt>
      <trkpt lat="45.3008588589727878570556640625" lon="-70.8564065583050251007080078125">
        <ele>1079.4000244140625</ele>
        <time>2026-08-21T14:33:43.000Z</time>
        <extensions>
          <ns3:TrackPointExtension>
            <ns3:hr>132</ns3:hr>
            <ns3:cad>0</ns3:cad>
          </ns3:TrackPointExtension>
        </extensions>
      </trkpt>
      <trkpt lat="45.3008687496185302734375" lon="-70.856422819197177886962890625">
        <ele>1079.199951171875</ele>
        <time>2026-08-21T14:33:44.000Z</time>
        <extensions>
          <ns3:TrackPointExtension>
            <ns3:hr>132</ns3:hr>
            <ns3:cad>0</ns3:cad>
          </ns3:TrackPointExtension>
        </extensions>
      </trkpt>
      <trkpt lat="45.30088274739682674407958984375" lon="-70.85643832571804523468017578125">
        <ele>1078.800048828125</ele>
        <time>2026-08-21T14:33:45.000Z</time>
        <extensions>
          <ns3:TrackPointExtension>
            <ns3:hr>133</ns3:hr>
            <ns3:cad>0</ns3:cad>
          </ns3:TrackPointExtension>
        </extensions>
      </trkpt>
      <trkpt lat="45.300887860357761383056640625" lon="-70.85644821636378765106201171875">
        <ele>1078.4000244140625</ele>
        <time>2026-08-21T14:33:46.000Z</time>
        <extensions>
          <ns3:TrackPointExtension>
            <ns3:hr>132</ns3:hr>
            <ns3:cad>0</ns3:cad>
          </ns3:TrackPointExtension>
        </extensions>
      </trkpt>
      <trkpt lat="45.30089582316577434539794921875" lon="-70.8564689196646213531494140625">
        <ele>1078</ele>
        <time>2026-08-21T14:33:47.000Z</time>
        <extensions>
          <ns3:TrackPointExtension>
            <ns3:hr>132</ns3:hr>
            <ns3:cad>0</ns3:cad>
          </ns3:TrackPointExtension>
        </extensions>
      </trkpt>
      <trkpt lat="45.3009047918021678924560546875" lon="-70.856482498347759246826171875">
        <ele>1077.5999755859375</ele>
        <time>2026-08-21T14:33:48.000Z</time>
        <extensions>
          <ns3:TrackPointExtension>
            <ns3:hr>131</ns3:hr>
            <ns3:cad>0</ns3:cad>
          </ns3:TrackPointExtension>
        </extensions>
      </trkpt>
      <trkpt lat="45.30091493390500545501708984375" lon="-70.8564940653741359710693359375">
        <ele>1077.199951171875</ele>
        <time>2026-08-21T14:33:49.000Z</time>
        <extensions>
          <ns3:TrackPointExtension>
            <ns3:hr>131</ns3:hr>
            <ns3:cad>76</ns3:cad>
          </ns3:TrackPointExtension>
        </extensions>
      </trkpt>
      <trkpt lat="45.30091996304690837860107421875" lon="-70.85650588385760784149169921875">
        <ele>1077</ele>
        <time>2026-08-21T14:33:50.000Z</time>
        <extensions>
          <ns3:TrackPointExtension>
            <ns3:hr>130</ns3:hr>
            <ns3:cad>76</ns3:cad>
          </ns3:TrackPointExtension>
        </extensions>
      </trkpt>
      <trkpt lat="45.30092683620750904083251953125" lon="-70.8565177023410797119140625">
        <ele>1076.5999755859375</ele>
        <time>2026-08-21T14:33:51.000Z</time>
        <extensions>
          <ns3:TrackPointExtension>
            <ns3:hr>130</ns3:hr>
            <ns3:cad>76</ns3:cad>
          </ns3:TrackPointExtension>
        </extensions>
      </trkpt>
      <trkpt lat="45.30093379318714141845703125" lon="-70.85652935318648815155029296875">
        <ele>1076.4000244140625</ele>
        <time>2026-08-21T14:33:52.000Z</time>
        <extensions>
          <ns3:TrackPointExtension>
            <ns3:hr>131</ns3:hr>
            <ns3:cad>0</ns3:cad>
          </ns3:TrackPointExtension>
        </extensions>
      </trkpt>
      <trkpt lat="45.300940163433551788330078125" lon="-70.8565399982035160064697265625">
        <ele>1076.199951171875</ele>
        <time>2026-08-21T14:33:53.000Z</time>
        <extensions>
          <ns3:TrackPointExtension>
            <ns3:hr>131</ns3:hr>
            <ns3:cad>0</ns3:cad>
          </ns3:TrackPointExtension>
        </extensions>
      </trkpt>
      <trkpt lat="45.30094376765191555023193359375" lon="-70.856553576886653900146484375">
        <ele>1075.800048828125</ele>
        <time>2026-08-21T14:33:54.000Z</time>
        <extensions>
          <ns3:TrackPointExtension>
            <ns3:hr>131</ns3:hr>
            <ns3:cad>20</ns3:cad>
          </ns3:TrackPointExtension>
        </extensions>
      </trkpt>
      <trkpt lat="45.30094929970800876617431640625" lon="-70.85656522773206233978271484375">
        <ele>1075.5999755859375</ele>
        <time>2026-08-21T14:33:55.000Z</time>
        <extensions>
          <ns3:TrackPointExtension>
            <ns3:hr>130</ns3:hr>
            <ns3:cad>20</ns3:cad>
          </ns3:TrackPointExtension>
        </extensions>
      </trkpt>
      <trkpt lat="45.300955586135387420654296875" lon="-70.856567323207855224609375">
        <ele>1075.4000244140625</ele>
        <time>2026-08-21T14:33:56.000Z</time>
        <extensions>
          <ns3:TrackPointExtension>
            <ns3:hr>130</ns3:hr>
            <ns3:cad>20</ns3:cad>
          </ns3:TrackPointExtension>
        </extensions>
      </trkpt>
      <trkpt lat="45.30096136964857578277587890625" lon="-70.8565775491297245025634765625">
        <ele>1075</ele>
        <time>2026-08-21T14:33:57.000Z</time>
        <extensions>
          <ns3:TrackPointExtension>
            <ns3:hr>130</ns3:hr>
            <ns3:cad>20</ns3:cad>
          </ns3:TrackPointExtension>
        </extensions>
      </trkpt>
      <trkpt lat="45.30096405185759067535400390625" lon="-70.85659707896411418914794921875">
        <ele>1074.800048828125</ele>
        <time>2026-08-21T14:33:58.000Z</time>
        <extensions>
          <ns3:TrackPointExtension>
            <ns3:hr>130</ns3:hr>
            <ns3:cad>20</ns3:cad>
          </ns3:TrackPointExtension>
        </extensions>
      </trkpt>
      <trkpt lat="45.3009648062288761138916015625" lon="-70.85661401040852069854736328125">
        <ele>1074.4000244140625</ele>
        <time>2026-08-21T14:33:59.000Z</time>
        <extensions>
          <ns3:TrackPointExtension>
            <ns3:hr>129</ns3:hr>
            <ns3:cad>19</ns3:cad>
          </ns3:TrackPointExtension>
        </extensions>
      </trkpt>
      <trkpt lat="45.30096556060016155242919921875" lon="-70.8566301874816417694091796875">
        <ele>1074</ele>
        <time>2026-08-21T14:34:00.000Z</time>
        <extensions>
          <ns3:TrackPointExtension>
            <ns3:hr>129</ns3:hr>
            <ns3:cad>19</ns3:cad>
          </ns3:TrackPointExtension>
        </extensions>
      </trkpt>
      <trkpt lat="45.3009648062288761138916015625" lon="-70.85665357299149036407470703125">
        <ele>1073.5999755859375</ele>
        <time>2026-08-21T14:34:01.000Z</time>
        <extensions>
          <ns3:TrackPointExtension>
            <ns3:hr>129</ns3:hr>
            <ns3:cad>19</ns3:cad>
          </ns3:TrackPointExtension>
        </extensions>
      </trkpt>
      <trkpt lat="45.3009654767811298370361328125" lon="-70.8566804789006710052490234375">
        <ele>1073.4000244140625</ele>
        <time>2026-08-21T14:34:02.000Z</time>
        <extensions>
          <ns3:TrackPointExtension>
            <ns3:hr>129</ns3:hr>
            <ns3:cad>19</ns3:cad>
          </ns3:TrackPointExtension>
        </extensions>
      </trkpt>
      <trkpt lat="45.30096530914306640625" lon="-70.85671551525592803955078125">
        <ele>1073</ele>
        <time>2026-08-21T14:34:03.000Z</time>
        <extensions>
          <ns3:TrackPointExtension>
            <ns3:hr>129</ns3:hr>
            <ns3:cad>19</ns3:cad>
          </ns3:TrackPointExtension>
        </extensions>
      </trkpt>
      <trkpt lat="45.3009691648185253143310546875" lon="-70.85673068650066852569580078125">
        <ele>1072.800048828125</ele>
        <time>2026-08-21T14:34:04.000Z</time>
        <extensions>
          <ns3:TrackPointExtension>
            <ns3:hr>129</ns3:hr>
            <ns3:cad>19</ns3:cad>
          </ns3:TrackPointExtension>
        </extensions>
      </trkpt>
      <trkpt lat="45.30098014511168003082275390625" lon="-70.8567483723163604736328125">
        <ele>1072.5999755859375</ele>
        <time>2026-08-21T14:34:05.000Z</time>
        <extensions>
          <ns3:TrackPointExtension>
            <ns3:hr>128</ns3:hr>
            <ns3:cad>19</ns3:cad>
          </ns3:TrackPointExtension>
        </extensions>
      </trkpt>
      <trkpt lat="45.30098567716777324676513671875" lon="-70.8567663095891475677490234375">
        <ele>1072.4000244140625</ele>
        <time>2026-08-21T14:34:06.000Z</time>
        <extensions>
          <ns3:TrackPointExtension>
            <ns3:hr>128</ns3:hr>
            <ns3:cad>19</ns3:cad>
          </ns3:TrackPointExtension>
        </extensions>
      </trkpt>
      <trkpt lat="45.30098869465291500091552734375" lon="-70.8567911200225353240966796875">
        <ele>1072.199951171875</ele>
        <time>2026-08-21T14:34:07.000Z</time>
        <extensions>
          <ns3:TrackPointExtension>
            <ns3:hr>128</ns3:hr>
            <ns3:cad>72</ns3:cad>
          </ns3:TrackPointExtension>
        </extensions>
      </trkpt>
      <trkpt lat="45.30099556781351566314697265625" lon="-70.8568139187991619110107421875">
        <ele>1072</ele>
        <time>2026-08-21T14:34:08.000Z</time>
        <extensions>
          <ns3:TrackPointExtension>
            <ns3:hr>128</ns3:hr>
            <ns3:cad>72</ns3:cad>
          </ns3:TrackPointExtension>
        </extensions>
      </trkpt>
      <trkpt lat="45.30100009404122829437255859375" lon="-70.8568256534636020660400390625">
        <ele>1071.5999755859375</ele>
        <time>2026-08-21T14:34:09.000Z</time>
        <extensions>
          <ns3:TrackPointExtension>
            <ns3:hr>128</ns3:hr>
            <ns3:cad>72</ns3:cad>
          </ns3:TrackPointExtension>
        </extensions>
      </trkpt>
      <trkpt lat="45.30100210569798946380615234375" lon="-70.8568397350609302520751953125">
        <ele>1071.4000244140625</ele>
        <time>2026-08-21T14:34:10.000Z</time>
        <extensions>
          <ns3:TrackPointExtension>
            <ns3:hr>128</ns3:hr>
            <ns3:cad>72</ns3:cad>
          </ns3:TrackPointExtension>
        </extensions>
      </trkpt>
      <trkpt lat="45.30100621283054351806640625" lon="-70.8568571694195270538330078125">
        <ele>1071</ele>
        <time>2026-08-21T14:34:11.000Z</time>
        <extensions>
          <ns3:TrackPointExtension>
            <ns3:hr>127</ns3:hr>
            <ns3:cad>72</ns3:cad>
          </ns3:TrackPointExtension>
        </extensions>
      </trkpt>
      <trkpt lat="45.30101048760116100311279296875" lon="-70.85686798207461833953857421875">
        <ele>1070.800048828125</ele>
        <time>2026-08-21T14:34:12.000Z</time>
        <extensions>
          <ns3:TrackPointExtension>
            <ns3:hr>127</ns3:hr>
            <ns3:cad>72</ns3:cad>
          </ns3:TrackPointExtension>
        </extensions>
      </trkpt>
      <trkpt lat="45.30101099051535129547119140625" lon="-70.8568766154348850250244140625">
        <ele>1070.5999755859375</ele>
        <time>2026-08-21T14:34:13.000Z</time>
        <extensions>
          <ns3:TrackPointExtension>
            <ns3:hr>127</ns3:hr>
            <ns3:cad>72</ns3:cad>
          </ns3:TrackPointExtension>
        </extensions>
      </trkpt>
      <trkpt lat="45.30101157724857330322265625" lon="-70.8568853326141834259033203125">
        <ele>1070.199951171875</ele>
        <time>2026-08-21T14:34:14.000Z</time>
        <extensions>
          <ns3:TrackPointExtension>
            <ns3:hr>127</ns3:hr>
            <ns3:cad>72</ns3:cad>
          </ns3:TrackPointExtension>
        </extensions>
      </trkpt>
      <trkpt lat="45.30101350508630275726318359375" lon="-70.85689363069832324981689453125">
        <ele>1069.800048828125</ele>
        <time>2026-08-21T14:34:15.000Z</time>
        <extensions>
          <ns3:TrackPointExtension>
            <ns3:hr>127</ns3:hr>
            <ns3:cad>72</ns3:cad>
          </ns3:TrackPointExtension>
        </extensions>
      </trkpt>
      <trkpt lat="45.30101518146693706512451171875" lon="-70.8569034375250339508056640625">
        <ele>1069.5999755859375</ele>
        <time>2026-08-21T14:34:16.000Z</time>
        <extensions>
          <ns3:TrackPointExtension>
            <ns3:hr>127</ns3:hr>
            <ns3:cad>0</ns3:cad>
          </ns3:TrackPointExtension>
        </extensions>
      </trkpt>
      <trkpt lat="45.30101819895207881927490234375" lon="-70.8569134958088397979736328125">
        <ele>1069.199951171875</ele>
        <time>2026-08-21T14:34:17.000Z</time>
        <extensions>
          <ns3:TrackPointExtension>
            <ns3:hr>127</ns3:hr>
            <ns3:cad>0</ns3:cad>
          </ns3:TrackPointExtension>
        </extensions>
      </trkpt>
      <trkpt lat="45.3010234795510768890380859375" lon="-70.8569255657494068145751953125">
        <ele>1068.800048828125</ele>
        <time>2026-08-21T14:34:18.000Z</time>
        <extensions>
          <ns3:TrackPointExtension>
            <ns3:hr>126</ns3:hr>
            <ns3:cad>0</ns3:cad>
          </ns3:TrackPointExtension>
        </extensions>
      </trkpt>
      <trkpt lat="45.3010248206555843353271484375" lon="-70.8569376356899738311767578125">
        <ele>1068.5999755859375</ele>
        <time>2026-08-21T14:34:19.000Z</time>
        <extensions>
          <ns3:TrackPointExtension>
            <ns3:hr>127</ns3:hr>
            <ns3:cad>0</ns3:cad>
          </ns3:TrackPointExtension>
        </extensions>
      </trkpt>
      <trkpt lat="45.3010264970362186431884765625" lon="-70.85694056935608386993408203125">
        <ele>1068.199951171875</ele>
        <time>2026-08-21T14:34:20.000Z</time>
        <extensions>
          <ns3:TrackPointExtension>
            <ns3:hr>126</ns3:hr>
            <ns3:cad>0</ns3:cad>
          </ns3:TrackPointExtension>
        </extensions>
      </trkpt>
      <trkpt lat="45.3010261617600917816162109375" lon="-70.8569466881453990936279296875">
        <ele>1068</ele>
        <time>2026-08-21T14:34:21.000Z</time>
        <extensions>
          <ns3:TrackPointExtension>
            <ns3:hr>126</ns3:hr>
            <ns3:cad>0</ns3:cad>
          </ns3:TrackPointExtension>
        </extensions>
      </trkpt>
      <trkpt lat="45.30102498829364776611328125" lon="-70.85695414803922176361083984375">
        <ele>1067.5999755859375</ele>
        <time>2026-08-21T14:34:22.000Z</time>
        <extensions>
          <ns3:TrackPointExtension>
            <ns3:hr>126</ns3:hr>
            <ns3:cad>0</ns3:cad>
          </ns3:TrackPointExtension>
        </extensions>
      </trkpt>
      <trkpt lat="45.3010177798569202423095703125" lon="-70.856969319283962249755859375">
        <ele>1067.199951171875</ele>
        <time>2026-08-21T14:34:23.000Z</time>
        <extensions>
          <ns3:TrackPointExtension>
            <ns3:hr>126</ns3:hr>
            <ns3:cad>53</ns3:cad>
          </ns3:TrackPointExtension>
        </extensions>
      </trkpt>
      <trkpt lat="45.30101358890533447265625" lon="-70.85699354298412799835205078125">
        <ele>1066.800048828125</ele>
        <time>2026-08-21T14:34:24.000Z</time>
        <extensions>
          <ns3:TrackPointExtension>
            <ns3:hr>126</ns3:hr>
            <ns3:cad>53</ns3:cad>
          </ns3:TrackPointExtension>
        </extensions>
      </trkpt>
      <trkpt lat="45.30101023614406585693359375" lon="-70.85702128708362579345703125">
        <ele>1066.5999755859375</ele>
        <time>2026-08-21T14:34:25.000Z</time>
        <extensions>
          <ns3:TrackPointExtension>
            <ns3:hr>125</ns3:hr>
            <ns3:cad>53</ns3:cad>
          </ns3:TrackPointExtension>
        </extensions>
      </trkpt>
      <trkpt lat="45.3010104037821292877197265625" lon="-70.85704131983220577239990234375">
        <ele>1066.199951171875</ele>
        <time>2026-08-21T14:34:26.000Z</time>
        <extensions>
          <ns3:TrackPointExtension>
            <ns3:hr>124</ns3:hr>
            <ns3:cad>53</ns3:cad>
          </ns3:TrackPointExtension>
        </extensions>
      </trkpt>
      <trkpt lat="45.30101467855274677276611328125" lon="-70.85705976001918315887451171875">
        <ele>1066</ele>
        <time>2026-08-21T14:34:27.000Z</time>
        <extensions>
          <ns3:TrackPointExtension>
            <ns3:hr>124</ns3:hr>
            <ns3:cad>53</ns3:cad>
          </ns3:TrackPointExtension>
        </extensions>
      </trkpt>
      <trkpt lat="45.3010181151330471038818359375" lon="-70.85708054713904857635498046875">
        <ele>1065.5999755859375</ele>
        <time>2026-08-21T14:34:28.000Z</time>
        <extensions>
          <ns3:TrackPointExtension>
            <ns3:hr>124</ns3:hr>
            <ns3:cad>53</ns3:cad>
          </ns3:TrackPointExtension>
        </extensions>
      </trkpt>
      <trkpt lat="45.30101920478045940399169921875" lon="-70.8570989035069942474365234375">
        <ele>1065.199951171875</ele>
        <time>2026-08-21T14:34:29.000Z</time>
        <extensions>
          <ns3:TrackPointExtension>
            <ns3:hr>122</ns3:hr>
            <ns3:cad>53</ns3:cad>
          </ns3:TrackPointExtension>
        </extensions>
      </trkpt>
      <trkpt lat="45.30102205462753772735595703125" lon="-70.8571200259029865264892578125">
        <ele>1064.5999755859375</ele>
        <time>2026-08-21T14:34:30.000Z</time>
        <extensions>
          <ns3:TrackPointExtension>
            <ns3:hr>122</ns3:hr>
            <ns3:cad>53</ns3:cad>
          </ns3:TrackPointExtension>
        </extensions>
      </trkpt>
      <trkpt lat="45.301025323569774627685546875" lon="-70.8571351133286952972412109375">
        <ele>1064</ele>
        <time>2026-08-21T14:34:31.000Z</time>
        <extensions>
          <ns3:TrackPointExtension>
            <ns3:hr>122</ns3:hr>
            <ns3:cad>40</ns3:cad>
          </ns3:TrackPointExtension>
        </extensions>
      </trkpt>
      <trkpt lat="45.30103060416877269744873046875" lon="-70.8571532182395458221435546875">
        <ele>1063.4000244140625</ele>
        <time>2026-08-21T14:34:32.000Z</time>
        <extensions>
          <ns3:TrackPointExtension>
            <ns3:hr>122</ns3:hr>
            <ns3:cad>40</ns3:cad>
          </ns3:TrackPointExtension>
        </extensions>
      </trkpt>
      <trkpt lat="45.3010355494916439056396484375" lon="-70.85717308335006237030029296875">
        <ele>1062.800048828125</ele>
        <time>2026-08-21T14:34:33.000Z</time>
        <extensions>
          <ns3:TrackPointExtension>
            <ns3:hr>123</ns3:hr>
            <ns3:cad>40</ns3:cad>
          </ns3:TrackPointExtension>
        </extensions>
      </trkpt>
      <trkpt lat="45.30103747732937335968017578125" lon="-70.85719068534672260284423828125">
        <ele>1062.199951171875</ele>
        <time>2026-08-21T14:34:34.000Z</time>
        <extensions>
          <ns3:TrackPointExtension>
            <ns3:hr>123</ns3:hr>
            <ns3:cad>40</ns3:cad>
          </ns3:TrackPointExtension>
        </extensions>
      </trkpt>
      <trkpt lat="45.30104108154773712158203125" lon="-70.8572038449347019195556640625">
        <ele>1061.800048828125</ele>
        <time>2026-08-21T14:34:35.000Z</time>
        <extensions>
          <ns3:TrackPointExtension>
            <ns3:hr>123</ns3:hr>
            <ns3:cad>0</ns3:cad>
          </ns3:TrackPointExtension>
        </extensions>
      </trkpt>
      <trkpt lat="45.3010417520999908447265625" lon="-70.85722102783620357513427734375">
        <ele>1061.4000244140625</ele>
        <time>2026-08-21T14:34:36.000Z</time>
        <extensions>
          <ns3:TrackPointExtension>
            <ns3:hr>123</ns3:hr>
            <ns3:cad>0</ns3:cad>
          </ns3:TrackPointExtension>
        </extensions>
      </trkpt>
      <trkpt lat="45.30104418285191059112548828125" lon="-70.85723427124321460723876953125">
        <ele>1060.800048828125</ele>
        <time>2026-08-21T14:34:37.000Z</time>
        <extensions>
          <ns3:TrackPointExtension>
            <ns3:hr>123</ns3:hr>
            <ns3:cad>0</ns3:cad>
          </ns3:TrackPointExtension>
        </extensions>
      </trkpt>
      <trkpt lat="45.3010486252605915069580078125" lon="-70.857252962887287139892578125">
        <ele>1060.4000244140625</ele>
        <time>2026-08-21T14:34:38.000Z</time>
        <extensions>
          <ns3:TrackPointExtension>
            <ns3:hr>123</ns3:hr>
            <ns3:cad>41</ns3:cad>
          </ns3:TrackPointExtension>
        </extensions>
      </trkpt>
      <trkpt lat="45.30104837380349636077880859375" lon="-70.85726645775139331817626953125">
        <ele>1059.800048828125</ele>
        <time>2026-08-21T14:34:39.000Z</time>
        <extensions>
          <ns3:TrackPointExtension>
            <ns3:hr>120</ns3:hr>
            <ns3:cad>41</ns3:cad>
          </ns3:TrackPointExtension>
        </extensions>
      </trkpt>
      <trkpt lat="45.30104870907962322235107421875" lon="-70.85728322155773639678955078125">
        <ele>1059.4000244140625</ele>
        <time>2026-08-21T14:34:40.000Z</time>
        <extensions>
          <ns3:TrackPointExtension>
            <ns3:hr>117</ns3:hr>
            <ns3:cad>43</ns3:cad>
          </ns3:TrackPointExtension>
        </extensions>
      </trkpt>
      <trkpt lat="45.3010499663650989532470703125" lon="-70.8573057688772678375244140625">
        <ele>1059</ele>
        <time>2026-08-21T14:34:41.000Z</time>
        <extensions>
          <ns3:TrackPointExtension>
            <ns3:hr>115</ns3:hr>
            <ns3:cad>0</ns3:cad>
          </ns3:TrackPointExtension>
        </extensions>
      </trkpt>
      <trkpt lat="45.30104937963187694549560546875" lon="-70.8573272265493869781494140625">
        <ele>1058.800048828125</ele>
        <time>2026-08-21T14:34:42.000Z</time>
        <extensions>
          <ns3:TrackPointExtension>
            <ns3:hr>114</ns3:hr>
            <ns3:cad>0</ns3:cad>
          </ns3:TrackPointExtension>
        </extensions>
      </trkpt>
      <trkpt lat="45.30104937963187694549560546875" lon="-70.857346169650554656982421875">
        <ele>1058.4000244140625</ele>
        <time>2026-08-21T14:34:43.000Z</time>
        <extensions>
          <ns3:TrackPointExtension>
            <ns3:hr>113</ns3:hr>
            <ns3:cad>0</ns3:cad>
          </ns3:TrackPointExtension>
        </extensions>
      </trkpt>
      <trkpt lat="45.3010503016412258148193359375" lon="-70.85736184380948543548583984375">
        <ele>1058</ele>
        <time>2026-08-21T14:34:44.000Z</time>
        <extensions>
          <ns3:TrackPointExtension>
            <ns3:hr>113</ns3:hr>
            <ns3:cad>0</ns3:cad>
          </ns3:TrackPointExtension>
        </extensions>
      </trkpt>
      <trkpt lat="45.30105046927928924560546875" lon="-70.8573932759463787078857421875">
        <ele>1057.800048828125</ele>
        <time>2026-08-21T14:34:45.000Z</time>
        <extensions>
          <ns3:TrackPointExtension>
            <ns3:hr>113</ns3:hr>
            <ns3:cad>0</ns3:cad>
          </ns3:TrackPointExtension>
        </extensions>
      </trkpt>
      <trkpt lat="45.3010516427457332611083984375" lon="-70.85742227733135223388671875">
        <ele>1057.199951171875</ele>
        <time>2026-08-21T14:34:46.000Z</time>
        <extensions>
          <ns3:TrackPointExtension>
            <ns3:hr>113</ns3:hr>
            <ns3:cad>0</ns3:cad>
          </ns3:TrackPointExtension>
        </extensions>
      </trkpt>
      <trkpt lat="45.3010536544024944305419921875" lon="-70.85744465701282024383544921875">
        <ele>1056.800048828125</ele>
        <time>2026-08-21T14:34:47.000Z</time>
        <extensions>
          <ns3:TrackPointExtension>
            <ns3:hr>113</ns3:hr>
            <ns3:cad>45</ns3:cad>
          </ns3:TrackPointExtension>
        </extensions>
      </trkpt>
      <trkpt lat="45.301059186458587646484375" lon="-70.857470892369747161865234375">
        <ele>1056.4000244140625</ele>
        <time>2026-08-21T14:34:48.000Z</time>
        <extensions>
          <ns3:TrackPointExtension>
            <ns3:hr>113</ns3:hr>
            <ns3:cad>45</ns3:cad>
          </ns3:TrackPointExtension>
        </extensions>
      </trkpt>
      <trkpt lat="45.3010610304772853851318359375" lon="-70.85749142803251743316650390625">
        <ele>1056.199951171875</ele>
        <time>2026-08-21T14:34:49.000Z</time>
        <extensions>
          <ns3:TrackPointExtension>
            <ns3:hr>113</ns3:hr>
            <ns3:cad>45</ns3:cad>
          </ns3:TrackPointExtension>
        </extensions>
      </trkpt>
      <trkpt lat="45.30106530524790287017822265625" lon="-70.8575190044939517974853515625">
        <ele>1055.4000244140625</ele>
        <time>2026-08-21T14:34:50.000Z</time>
        <extensions>
          <ns3:TrackPointExtension>
            <ns3:hr>113</ns3:hr>
            <ns3:cad>45</ns3:cad>
          </ns3:TrackPointExtension>
        </extensions>
      </trkpt>
      <trkpt lat="45.30106656253337860107421875" lon="-70.85753954015672206878662109375">
        <ele>1055</ele>
        <time>2026-08-21T14:34:51.000Z</time>
        <extensions>
          <ns3:TrackPointExtension>
            <ns3:hr>113</ns3:hr>
            <ns3:cad>45</ns3:cad>
          </ns3:TrackPointExtension>
        </extensions>
      </trkpt>
      <trkpt lat="45.30107192695140838623046875" lon="-70.8575659431517124176025390625">
        <ele>1054.800048828125</ele>
        <time>2026-08-21T14:34:52.000Z</time>
        <extensions>
          <ns3:TrackPointExtension>
            <ns3:hr>113</ns3:hr>
            <ns3:cad>45</ns3:cad>
          </ns3:TrackPointExtension>
        </extensions>
      </trkpt>
      <trkpt lat="45.301072597503662109375" lon="-70.857586562633514404296875">
        <ele>1054.5999755859375</ele>
        <time>2026-08-21T14:34:53.000Z</time>
        <extensions>
          <ns3:TrackPointExtension>
            <ns3:hr>113</ns3:hr>
            <ns3:cad>45</ns3:cad>
          </ns3:TrackPointExtension>
        </extensions>
      </trkpt>
      <trkpt lat="45.30107318423688411712646484375" lon="-70.85760089568793773651123046875">
        <ele>1054.4000244140625</ele>
        <time>2026-08-21T14:34:54.000Z</time>
        <extensions>
          <ns3:TrackPointExtension>
            <ns3:hr>112</ns3:hr>
            <ns3:cad>45</ns3:cad>
          </ns3:TrackPointExtension>
        </extensions>
      </trkpt>
      <trkpt lat="45.30107502825558185577392578125" lon="-70.85762604139745235443115234375">
        <ele>1054.199951171875</ele>
        <time>2026-08-21T14:34:55.000Z</time>
        <extensions>
          <ns3:TrackPointExtension>
            <ns3:hr>110</ns3:hr>
            <ns3:cad>45</ns3:cad>
          </ns3:TrackPointExtension>
        </extensions>
      </trkpt>
      <trkpt lat="45.30108190141618251800537109375" lon="-70.8576443977653980255126953125">
        <ele>1054.199951171875</ele>
        <time>2026-08-21T14:34:56.000Z</time>
        <extensions>
          <ns3:TrackPointExtension>
            <ns3:hr>108</ns3:hr>
            <ns3:cad>45</ns3:cad>
          </ns3:TrackPointExtension>
        </extensions>
      </trkpt>
      <trkpt lat="45.3010881878435611724853515625" lon="-70.85767951793968677520751953125">
        <ele>1054</ele>
        <time>2026-08-21T14:34:57.000Z</time>
        <extensions>
          <ns3:TrackPointExtension>
            <ns3:hr>106</ns3:hr>
            <ns3:cad>0</ns3:cad>
          </ns3:TrackPointExtension>
        </extensions>
      </trkpt>
      <trkpt lat="45.30109296552836894989013671875" lon="-70.85769896395504474639892578125">
        <ele>1053.800048828125</ele>
        <time>2026-08-21T14:34:58.000Z</time>
        <extensions>
          <ns3:TrackPointExtension>
            <ns3:hr>106</ns3:hr>
            <ns3:cad>0</ns3:cad>
          </ns3:TrackPointExtension>
        </extensions>
      </trkpt>
      <trkpt lat="45.30109330080449581146240234375" lon="-70.857717990875244140625">
        <ele>1053.5999755859375</ele>
        <time>2026-08-21T14:34:59.000Z</time>
        <extensions>
          <ns3:TrackPointExtension>
            <ns3:hr>106</ns3:hr>
            <ns3:cad>0</ns3:cad>
          </ns3:TrackPointExtension>
        </extensions>
      </trkpt>
      <trkpt lat="45.3010938875377178192138671875" lon="-70.8577362634241580963134765625">
        <ele>1053.4000244140625</ele>
        <time>2026-08-21T14:35:00.000Z</time>
        <extensions>
          <ns3:TrackPointExtension>
            <ns3:hr>106</ns3:hr>
            <ns3:cad>0</ns3:cad>
          </ns3:TrackPointExtension>
        </extensions>
      </trkpt>
      <trkpt lat="45.30109070241451263427734375" lon="-70.85776182822883129119873046875">
        <ele>1053.4000244140625</ele>
        <time>2026-08-21T14:35:01.000Z</time>
        <extensions>
          <ns3:TrackPointExtension>
            <ns3:hr>106</ns3:hr>
            <ns3:cad>0</ns3:cad>
          </ns3:TrackPointExtension>
        </extensions>
      </trkpt>
      <trkpt lat="45.30109011568129062652587890625" lon="-70.85778177715837955474853515625">
        <ele>1053.4000244140625</ele>
        <time>2026-08-21T14:35:02.000Z</time>
        <extensions>
          <ns3:TrackPointExtension>
            <ns3:hr>106</ns3:hr>
            <ns3:cad>0</ns3:cad>
          </ns3:TrackPointExtension>
        </extensions>
      </trkpt>
      <trkpt lat="45.30109028331935405731201171875" lon="-70.8578073419630527496337890625">
        <ele>1053.4000244140625</ele>
        <time>2026-08-21T14:35:03.000Z</time>
        <extensions>
          <ns3:TrackPointExtension>
            <ns3:hr>107</ns3:hr>
            <ns3:cad>0</ns3:cad>
          </ns3:TrackPointExtension>
        </extensions>
      </trkpt>
      <trkpt lat="45.30109413899481296539306640625" lon="-70.8578318171203136444091796875">
        <ele>1053.199951171875</ele>
        <time>2026-08-21T14:35:04.000Z</time>
        <extensions>
          <ns3:TrackPointExtension>
            <ns3:hr>107</ns3:hr>
            <ns3:cad>0</ns3:cad>
          </ns3:TrackPointExtension>
        </extensions>
      </trkpt>
      <trkpt lat="45.30109866522252559661865234375" lon="-70.857870876789093017578125">
        <ele>1053</ele>
        <time>2026-08-21T14:35:05.000Z</time>
        <extensions>
          <ns3:TrackPointExtension>
            <ns3:hr>108</ns3:hr>
            <ns3:cad>0</ns3:cad>
          </ns3:TrackPointExtension>
        </extensions>
      </trkpt>
      <trkpt lat="45.30110185034573078155517578125" lon="-70.85790096782147884368896484375">
        <ele>1052.5999755859375</ele>
        <time>2026-08-21T14:35:06.000Z</time>
        <extensions>
          <ns3:TrackPointExtension>
            <ns3:hr>109</ns3:hr>
            <ns3:cad>0</ns3:cad>
          </ns3:TrackPointExtension>
        </extensions>
      </trkpt>
      <trkpt lat="45.30110436491668224334716796875" lon="-70.85792343132197856903076171875">
        <ele>1052.4000244140625</ele>
        <time>2026-08-21T14:35:07.000Z</time>
        <extensions>
          <ns3:TrackPointExtension>
            <ns3:hr>110</ns3:hr>
            <ns3:cad>0</ns3:cad>
          </ns3:TrackPointExtension>
        </extensions>
      </trkpt>
      <trkpt lat="45.30110268853604793548583984375" lon="-70.85795511491596698760986328125">
        <ele>1052.199951171875</ele>
        <time>2026-08-21T14:35:08.000Z</time>
        <extensions>
          <ns3:TrackPointExtension>
            <ns3:hr>110</ns3:hr>
            <ns3:cad>0</ns3:cad>
          </ns3:TrackPointExtension>
        </extensions>
      </trkpt>
      <trkpt lat="45.30110252089798450469970703125" lon="-70.85798151791095733642578125">
        <ele>1052.199951171875</ele>
        <time>2026-08-21T14:35:09.000Z</time>
        <extensions>
          <ns3:TrackPointExtension>
            <ns3:hr>111</ns3:hr>
            <ns3:cad>0</ns3:cad>
          </ns3:TrackPointExtension>
        </extensions>
      </trkpt>
      <trkpt lat="45.30110285617411136627197265625" lon="-70.858014710247516632080078125">
        <ele>1052</ele>
        <time>2026-08-21T14:35:10.000Z</time>
        <extensions>
          <ns3:TrackPointExtension>
            <ns3:hr>112</ns3:hr>
            <ns3:cad>78</ns3:cad>
          </ns3:TrackPointExtension>
        </extensions>
      </trkpt>
      <trkpt lat="45.30110637657344341278076171875" lon="-70.85804530419409275054931640625">
        <ele>1052.199951171875</ele>
        <time>2026-08-21T14:35:11.000Z</time>
        <extensions>
          <ns3:TrackPointExtension>
            <ns3:hr>113</ns3:hr>
            <ns3:cad>78</ns3:cad>
          </ns3:TrackPointExtension>
        </extensions>
      </trkpt>
      <trkpt lat="45.3011076338589191436767578125" lon="-70.858080424368381500244140625">
        <ele>1052.199951171875</ele>
        <time>2026-08-21T14:35:12.000Z</time>
        <extensions>
          <ns3:TrackPointExtension>
            <ns3:hr>114</ns3:hr>
            <ns3:cad>77</ns3:cad>
          </ns3:TrackPointExtension>
        </extensions>
      </trkpt>
      <trkpt lat="45.3011163510382175445556640625" lon="-70.8581147901713848114013671875">
        <ele>1052.199951171875</ele>
        <time>2026-08-21T14:35:13.000Z</time>
        <extensions>
          <ns3:TrackPointExtension>
            <ns3:hr>116</ns3:hr>
            <ns3:cad>77</ns3:cad>
          </ns3:TrackPointExtension>
        </extensions>
      </trkpt>
      <trkpt lat="45.30112632550299167633056640625" lon="-70.8581422828137874603271484375">
        <ele>1052.4000244140625</ele>
        <time>2026-08-21T14:35:14.000Z</time>
        <extensions>
          <ns3:TrackPointExtension>
            <ns3:hr>117</ns3:hr>
            <ns3:cad>76</ns3:cad>
          </ns3:TrackPointExtension>
        </extensions>
      </trkpt>
      <trkpt lat="45.3011351265013217926025390625" lon="-70.8581647463142871856689453125">
        <ele>1052.4000244140625</ele>
        <time>2026-08-21T14:35:15.000Z</time>
        <extensions>
          <ns3:TrackPointExtension>
            <ns3:hr>117</ns3:hr>
            <ns3:cad>76</ns3:cad>
          </ns3:TrackPointExtension>
        </extensions>
      </trkpt>
      <trkpt lat="45.3011383116245269775390625" lon="-70.8581945858895778656005859375">
        <ele>1052.4000244140625</ele>
        <time>2026-08-21T14:35:16.000Z</time>
        <extensions>
          <ns3:TrackPointExtension>
            <ns3:hr>119</ns3:hr>
            <ns3:cad>76</ns3:cad>
          </ns3:TrackPointExtension>
        </extensions>
      </trkpt>
      <trkpt lat="45.301139652729034423828125" lon="-70.85822300054132938385009765625">
        <ele>1052.5999755859375</ele>
        <time>2026-08-21T14:35:17.000Z</time>
        <extensions>
          <ns3:TrackPointExtension>
            <ns3:hr>121</ns3:hr>
            <ns3:cad>76</ns3:cad>
          </ns3:TrackPointExtension>
        </extensions>
      </trkpt>
      <trkpt lat="45.30114007182419300079345703125" lon="-70.85826071910560131072998046875">
        <ele>1052.5999755859375</ele>
        <time>2026-08-21T14:35:18.000Z</time>
        <extensions>
          <ns3:TrackPointExtension>
            <ns3:hr>123</ns3:hr>
            <ns3:cad>76</ns3:cad>
          </ns3:TrackPointExtension>
        </extensions>
      </trkpt>
      <trkpt lat="45.30114007182419300079345703125" lon="-70.85828737355768680572509765625">
        <ele>1052.800048828125</ele>
        <time>2026-08-21T14:35:19.000Z</time>
        <extensions>
          <ns3:TrackPointExtension>
            <ns3:hr>125</ns3:hr>
            <ns3:cad>76</ns3:cad>
          </ns3:TrackPointExtension>
        </extensions>
      </trkpt>
      <trkpt lat="45.30114057473838329315185546875" lon="-70.8583199791610240936279296875">
        <ele>1053</ele>
        <time>2026-08-21T14:35:20.000Z</time>
        <extensions>
          <ns3:TrackPointExtension>
            <ns3:hr>127</ns3:hr>
            <ns3:cad>76</ns3:cad>
          </ns3:TrackPointExtension>
        </extensions>
      </trkpt>
      <trkpt lat="45.3011368028819561004638671875" lon="-70.8583575300872325897216796875">
        <ele>1053</ele>
        <time>2026-08-21T14:35:21.000Z</time>
        <extensions>
          <ns3:TrackPointExtension>
            <ns3:hr>128</ns3:hr>
            <ns3:cad>76</ns3:cad>
          </ns3:TrackPointExtension>
        </extensions>
      </trkpt>
      <trkpt lat="45.30113755725324153900146484375" lon="-70.8583877049386501312255859375">
        <ele>1053.199951171875</ele>
        <time>2026-08-21T14:35:22.000Z</time>
        <extensions>
          <ns3:TrackPointExtension>
            <ns3:hr>128</ns3:hr>
            <ns3:cad>76</ns3:cad>
          </ns3:TrackPointExtension>
        </extensions>
      </trkpt>
      <trkpt lat="45.30113873071968555450439453125" lon="-70.858415700495243072509765625">
        <ele>1053.199951171875</ele>
        <time>2026-08-21T14:35:23.000Z</time>
        <extensions>
          <ns3:TrackPointExtension>
            <ns3:hr>128</ns3:hr>
            <ns3:cad>76</ns3:cad>
          </ns3:TrackPointExtension>
        </extensions>
      </trkpt>
      <trkpt lat="45.3011337853968143463134765625" lon="-70.8584477193653583526611328125">
        <ele>1053.4000244140625</ele>
        <time>2026-08-21T14:35:24.000Z</time>
        <extensions>
          <ns3:TrackPointExtension>
            <ns3:hr>129</ns3:hr>
            <ns3:cad>0</ns3:cad>
          </ns3:TrackPointExtension>
        </extensions>
      </trkpt>
      <trkpt lat="45.30112766660749912261962890625" lon="-70.8584711886942386627197265625">
        <ele>1053.5999755859375</ele>
        <time>2026-08-21T14:35:25.000Z</time>
        <extensions>
          <ns3:TrackPointExtension>
            <ns3:hr>130</ns3:hr>
            <ns3:cad>0</ns3:cad>
          </ns3:TrackPointExtension>
        </extensions>
      </trkpt>
      <trkpt lat="45.30112230218946933746337890625" lon="-70.858498513698577880859375">
        <ele>1053.800048828125</ele>
        <time>2026-08-21T14:35:26.000Z</time>
        <extensions>
          <ns3:TrackPointExtension>
            <ns3:hr>130</ns3:hr>
            <ns3:cad>0</ns3:cad>
          </ns3:TrackPointExtension>
        </extensions>
      </trkpt>
      <trkpt lat="45.30111609958112239837646484375" lon="-70.85853195749223232269287109375">
        <ele>1054</ele>
        <time>2026-08-21T14:35:27.000Z</time>
        <extensions>
          <ns3:TrackPointExtension>
            <ns3:hr>130</ns3:hr>
            <ns3:cad>0</ns3:cad>
          </ns3:TrackPointExtension>
        </extensions>
      </trkpt>
      <trkpt lat="45.30111241154372692108154296875" lon="-70.858571939170360565185546875">
        <ele>1054</ele>
        <time>2026-08-21T14:35:28.000Z</time>
        <extensions>
          <ns3:TrackPointExtension>
            <ns3:hr>130</ns3:hr>
            <ns3:cad>0</ns3:cad>
          </ns3:TrackPointExtension>
        </extensions>
      </trkpt>
      <trkpt lat="45.3011141717433929443359375" lon="-70.858601443469524383544921875">
        <ele>1054</ele>
        <time>2026-08-21T14:35:29.000Z</time>
        <extensions>
          <ns3:TrackPointExtension>
            <ns3:hr>129</ns3:hr>
            <ns3:cad>0</ns3:cad>
          </ns3:TrackPointExtension>
        </extensions>
      </trkpt>
      <trkpt lat="45.30111995525658130645751953125" lon="-70.85862650536000728607177734375">
        <ele>1054.199951171875</ele>
        <time>2026-08-21T14:35:30.000Z</time>
        <extensions>
          <ns3:TrackPointExtension>
            <ns3:hr>130</ns3:hr>
            <ns3:cad>0</ns3:cad>
          </ns3:TrackPointExtension>
        </extensions>
      </trkpt>
      <trkpt lat="45.30112615786492824554443359375" lon="-70.8586405031383037567138671875">
        <ele>1054.199951171875</ele>
        <time>2026-08-21T14:35:31.000Z</time>
        <extensions>
          <ns3:TrackPointExtension>
            <ns3:hr>130</ns3:hr>
            <ns3:cad>0</ns3:cad>
          </ns3:TrackPointExtension>
        </extensions>
      </trkpt>
      <trkpt lat="45.3011307679116725921630859375" lon="-70.85865818895399570465087890625">
        <ele>1054.199951171875</ele>
        <time>2026-08-21T14:35:32.000Z</time>
        <extensions>
          <ns3:TrackPointExtension>
            <ns3:hr>131</ns3:hr>
            <ns3:cad>0</ns3:cad>
          </ns3:TrackPointExtension>
        </extensions>
      </trkpt>
      <trkpt lat="45.30113495886325836181640625" lon="-70.85867755115032196044921875">
        <ele>1054.4000244140625</ele>
        <time>2026-08-21T14:35:33.000Z</time>
        <extensions>
          <ns3:TrackPointExtension>
            <ns3:hr>131</ns3:hr>
            <ns3:cad>0</ns3:cad>
          </ns3:TrackPointExtension>
        </extensions>
      </trkpt>
      <trkpt lat="45.3011388145387172698974609375" lon="-70.8586928062140941619873046875">
        <ele>1054.5999755859375</ele>
        <time>2026-08-21T14:35:34.000Z</time>
        <extensions>
          <ns3:TrackPointExtension>
            <ns3:hr>131</ns3:hr>
            <ns3:cad>0</ns3:cad>
          </ns3:TrackPointExtension>
        </extensions>
      </trkpt>
      <trkpt lat="45.3011394850909709930419921875" lon="-70.85870680399239063262939453125">
        <ele>1054.800048828125</ele>
        <time>2026-08-21T14:35:35.000Z</time>
        <extensions>
          <ns3:TrackPointExtension>
            <ns3:hr>132</ns3:hr>
            <ns3:cad>0</ns3:cad>
          </ns3:TrackPointExtension>
        </extensions>
      </trkpt>
      <trkpt lat="45.3011371381580829620361328125" lon="-70.8587283454835414886474609375">
        <ele>1054.800048828125</ele>
        <time>2026-08-21T14:35:36.000Z</time>
        <extensions>
          <ns3:TrackPointExtension>
            <ns3:hr>132</ns3:hr>
            <ns3:cad>54</ns3:cad>
          </ns3:TrackPointExtension>
        </extensions>
      </trkpt>
      <trkpt lat="45.301135964691638946533203125" lon="-70.85874502547085285186767578125">
        <ele>1055</ele>
        <time>2026-08-21T14:35:37.000Z</time>
        <extensions>
          <ns3:TrackPointExtension>
            <ns3:hr>133</ns3:hr>
            <ns3:cad>54</ns3:cad>
          </ns3:TrackPointExtension>
        </extensions>
      </trkpt>
      <trkpt lat="45.30114007182419300079345703125" lon="-70.85876405239105224609375">
        <ele>1055.199951171875</ele>
        <time>2026-08-21T14:35:38.000Z</time>
        <extensions>
          <ns3:TrackPointExtension>
            <ns3:hr>134</ns3:hr>
            <ns3:cad>56</ns3:cad>
          </ns3:TrackPointExtension>
        </extensions>
      </trkpt>
      <trkpt lat="45.30114141292870044708251953125" lon="-70.85878391750156879425048828125">
        <ele>1055.199951171875</ele>
        <time>2026-08-21T14:35:39.000Z</time>
        <extensions>
          <ns3:TrackPointExtension>
            <ns3:hr>136</ns3:hr>
            <ns3:cad>55</ns3:cad>
          </ns3:TrackPointExtension>
        </extensions>
      </trkpt>
      <trkpt lat="45.30114124529063701629638671875" lon="-70.8588051237165927886962890625">
        <ele>1055.4000244140625</ele>
        <time>2026-08-21T14:35:40.000Z</time>
        <extensions>
          <ns3:TrackPointExtension>
            <ns3:hr>141</ns3:hr>
            <ns3:cad>55</ns3:cad>
          </ns3:TrackPointExtension>
        </extensions>
      </trkpt>
      <trkpt lat="45.3011448495090007781982421875" lon="-70.8588249050080776214599609375">
        <ele>1055.4000244140625</ele>
        <time>2026-08-21T14:35:41.000Z</time>
        <extensions>
          <ns3:TrackPointExtension>
            <ns3:hr>144</ns3:hr>
            <ns3:cad>55</ns3:cad>
          </ns3:TrackPointExtension>
        </extensions>
      </trkpt>
      <trkpt lat="45.30114728026092052459716796875" lon="-70.85884259082376956939697265625">
        <ele>1055.4000244140625</ele>
        <time>2026-08-21T14:35:42.000Z</time>
        <extensions>
          <ns3:TrackPointExtension>
            <ns3:hr>145</ns3:hr>
            <ns3:cad>55</ns3:cad>
          </ns3:TrackPointExtension>
        </extensions>
      </trkpt>
      <trkpt lat="45.30115046538412570953369140625" lon="-70.8588604442775249481201171875">
        <ele>1055.4000244140625</ele>
        <time>2026-08-21T14:35:43.000Z</time>
        <extensions>
          <ns3:TrackPointExtension>
            <ns3:hr>146</ns3:hr>
            <ns3:cad>55</ns3:cad>
          </ns3:TrackPointExtension>
        </extensions>
      </trkpt>
      <trkpt lat="45.301156081259250640869140625" lon="-70.858879387378692626953125">
        <ele>1055.4000244140625</ele>
        <time>2026-08-21T14:35:44.000Z</time>
        <extensions>
          <ns3:TrackPointExtension>
            <ns3:hr>146</ns3:hr>
            <ns3:cad>55</ns3:cad>
          </ns3:TrackPointExtension>
        </extensions>
      </trkpt>
      <trkpt lat="45.30116069130599498748779296875" lon="-70.8588941395282745361328125">
        <ele>1055.5999755859375</ele>
        <time>2026-08-21T14:35:45.000Z</time>
        <extensions>
          <ns3:TrackPointExtension>
            <ns3:hr>147</ns3:hr>
            <ns3:cad>55</ns3:cad>
          </ns3:TrackPointExtension>
        </extensions>
      </trkpt>
      <trkpt lat="45.30116270296275615692138671875" lon="-70.85890696384012699127197265625">
        <ele>1055.800048828125</ele>
        <time>2026-08-21T14:35:46.000Z</time>
        <extensions>
          <ns3:TrackPointExtension>
            <ns3:hr>147</ns3:hr>
            <ns3:cad>55</ns3:cad>
          </ns3:TrackPointExtension>
        </extensions>
      </trkpt>
      <trkpt lat="45.30116588808596134185791015625" lon="-70.8589214645326137542724609375">
        <ele>1056</ele>
        <time>2026-08-21T14:35:47.000Z</time>
        <extensions>
          <ns3:TrackPointExtension>
            <ns3:hr>147</ns3:hr>
            <ns3:cad>55</ns3:cad>
          </ns3:TrackPointExtension>
        </extensions>
      </trkpt>
      <trkpt lat="45.3011686541140079498291015625" lon="-70.85894451476633548736572265625">
        <ele>1056.199951171875</ele>
        <time>2026-08-21T14:35:48.000Z</time>
        <extensions>
          <ns3:TrackPointExtension>
            <ns3:hr>146</ns3:hr>
            <ns3:cad>55</ns3:cad>
          </ns3:TrackPointExtension>
        </extensions>
      </trkpt>
      <trkpt lat="45.3011706657707691192626953125" lon="-70.8589657209813594818115234375">
        <ele>1056.4000244140625</ele>
        <time>2026-08-21T14:35:49.000Z</time>
        <extensions>
          <ns3:TrackPointExtension>
            <ns3:hr>146</ns3:hr>
            <ns3:cad>55</ns3:cad>
          </ns3:TrackPointExtension>
        </extensions>
      </trkpt>
      <trkpt lat="45.30117410235106945037841796875" lon="-70.85899229161441326141357421875">
        <ele>1056.4000244140625</ele>
        <time>2026-08-21T14:35:50.000Z</time>
        <extensions>
          <ns3:TrackPointExtension>
            <ns3:hr>146</ns3:hr>
            <ns3:cad>53</ns3:cad>
          </ns3:TrackPointExtension>
        </extensions>
      </trkpt>
      <trkpt lat="45.301179550588130950927734375" lon="-70.85901659913361072540283203125">
        <ele>1056.5999755859375</ele>
        <time>2026-08-21T14:35:51.000Z</time>
        <extensions>
          <ns3:TrackPointExtension>
            <ns3:hr>147</ns3:hr>
            <ns3:cad>53</ns3:cad>
          </ns3:TrackPointExtension>
        </extensions>
      </trkpt>
      <trkpt lat="45.30118248425424098968505859375" lon="-70.85903185419738292694091796875">
        <ele>1056.800048828125</ele>
        <time>2026-08-21T14:35:52.000Z</time>
        <extensions>
          <ns3:TrackPointExtension>
            <ns3:hr>148</ns3:hr>
            <ns3:cad>53</ns3:cad>
          </ns3:TrackPointExtension>
        </extensions>
      </trkpt>
      <trkpt lat="45.30118416063487529754638671875" lon="-70.859054736793041229248046875">
        <ele>1057</ele>
        <time>2026-08-21T14:35:53.000Z</time>
        <extensions>
          <ns3:TrackPointExtension>
            <ns3:hr>148</ns3:hr>
            <ns3:cad>70</ns3:cad>
          </ns3:TrackPointExtension>
        </extensions>
      </trkpt>
      <trkpt lat="45.30118701048195362091064453125" lon="-70.8590736798942089080810546875">
        <ele>1057.199951171875</ele>
        <time>2026-08-21T14:35:54.000Z</time>
        <extensions>
          <ns3:TrackPointExtension>
            <ns3:hr>149</ns3:hr>
            <ns3:cad>70</ns3:cad>
          </ns3:TrackPointExtension>
        </extensions>
      </trkpt>
      <trkpt lat="45.3011901117861270904541015625" lon="-70.8590953052043914794921875">
        <ele>1057.4000244140625</ele>
        <time>2026-08-21T14:35:55.000Z</time>
        <extensions>
          <ns3:TrackPointExtension>
            <ns3:hr>149</ns3:hr>
            <ns3:cad>70</ns3:cad>
          </ns3:TrackPointExtension>
        </extensions>
      </trkpt>
      <trkpt lat="45.3011919558048248291015625" lon="-70.85910880006849765777587890625">
        <ele>1057.5999755859375</ele>
        <time>2026-08-21T14:35:56.000Z</time>
        <extensions>
          <ns3:TrackPointExtension>
            <ns3:hr>149</ns3:hr>
            <ns3:cad>70</ns3:cad>
          </ns3:TrackPointExtension>
        </extensions>
      </trkpt>
      <trkpt lat="45.3011961467564105987548828125" lon="-70.85912623442709445953369140625">
        <ele>1057.800048828125</ele>
        <time>2026-08-21T14:35:57.000Z</time>
        <extensions>
          <ns3:TrackPointExtension>
            <ns3:hr>149</ns3:hr>
            <ns3:cad>0</ns3:cad>
          </ns3:TrackPointExtension>
        </extensions>
      </trkpt>
      <trkpt lat="45.30119857750833034515380859375" lon="-70.85913931019604206085205078125">
        <ele>1058.199951171875</ele>
        <time>2026-08-21T14:35:58.000Z</time>
        <extensions>
          <ns3:TrackPointExtension>
            <ns3:hr>149</ns3:hr>
            <ns3:cad>0</ns3:cad>
          </ns3:TrackPointExtension>
        </extensions>
      </trkpt>
      <trkpt lat="45.30120226554572582244873046875" lon="-70.8591497875750064849853515625">
        <ele>1058.199951171875</ele>
        <time>2026-08-21T14:35:59.000Z</time>
        <extensions>
          <ns3:TrackPointExtension>
            <ns3:hr>148</ns3:hr>
            <ns3:cad>0</ns3:cad>
          </ns3:TrackPointExtension>
        </extensions>
      </trkpt>
      <trkpt lat="45.3011988289654254913330078125" lon="-70.8591662161052227020263671875">
        <ele>1058.5999755859375</ele>
        <time>2026-08-21T14:36:00.000Z</time>
        <extensions>
          <ns3:TrackPointExtension>
            <ns3:hr>147</ns3:hr>
            <ns3:cad>48</ns3:cad>
          </ns3:TrackPointExtension>
        </extensions>
      </trkpt>
      <trkpt lat="45.30119639821350574493408203125" lon="-70.859179794788360595703125">
        <ele>1058.800048828125</ele>
        <time>2026-08-21T14:36:01.000Z</time>
        <extensions>
          <ns3:TrackPointExtension>
            <ns3:hr>146</ns3:hr>
            <ns3:cad>48</ns3:cad>
          </ns3:TrackPointExtension>
        </extensions>
      </trkpt>
      <trkpt lat="45.3011934645473957061767578125" lon="-70.8591903559863567352294921875">
        <ele>1059</ele>
        <time>2026-08-21T14:36:02.000Z</time>
        <extensions>
          <ns3:TrackPointExtension>
            <ns3:hr>145</ns3:hr>
            <ns3:cad>48</ns3:cad>
          </ns3:TrackPointExtension>
        </extensions>
      </trkpt>
      <trkpt lat="45.30118851922452449798583984375" lon="-70.85920284502208232879638671875">
        <ele>1059</ele>
        <time>2026-08-21T14:36:03.000Z</time>
        <extensions>
          <ns3:TrackPointExtension>
            <ns3:hr>145</ns3:hr>
            <ns3:cad>48</ns3:cad>
          </ns3:TrackPointExtension>
        </extensions>
      </trkpt>
      <trkpt lat="45.30118516646325588226318359375" lon="-70.8592165075242519378662109375">
        <ele>1059.199951171875</ele>
        <time>2026-08-21T14:36:04.000Z</time>
        <extensions>
          <ns3:TrackPointExtension>
            <ns3:hr>146</ns3:hr>
            <ns3:cad>48</ns3:cad>
          </ns3:TrackPointExtension>
        </extensions>
      </trkpt>
      <trkpt lat="45.30118114314973354339599609375" lon="-70.859231762588024139404296875">
        <ele>1059.4000244140625</ele>
        <time>2026-08-21T14:36:05.000Z</time>
        <extensions>
          <ns3:TrackPointExtension>
            <ns3:hr>146</ns3:hr>
            <ns3:cad>48</ns3:cad>
          </ns3:TrackPointExtension>
        </extensions>
      </trkpt>
      <trkpt lat="45.3011773712933063507080078125" lon="-70.85924617946147918701171875">
        <ele>1059.5999755859375</ele>
        <time>2026-08-21T14:36:06.000Z</time>
        <extensions>
          <ns3:TrackPointExtension>
            <ns3:hr>146</ns3:hr>
            <ns3:cad>48</ns3:cad>
          </ns3:TrackPointExtension>
        </extensions>
      </trkpt>
      <trkpt lat="45.3011733479797840118408203125" lon="-70.859257243573665618896484375">
        <ele>1059.5999755859375</ele>
        <time>2026-08-21T14:36:07.000Z</time>
        <extensions>
          <ns3:TrackPointExtension>
            <ns3:hr>147</ns3:hr>
            <ns3:cad>48</ns3:cad>
          </ns3:TrackPointExtension>
        </extensions>
      </trkpt>
      <trkpt lat="45.30116756446659564971923828125" lon="-70.8592691458761692047119140625">
        <ele>1059.800048828125</ele>
        <time>2026-08-21T14:36:08.000Z</time>
        <extensions>
          <ns3:TrackPointExtension>
            <ns3:hr>148</ns3:hr>
            <ns3:cad>48</ns3:cad>
          </ns3:TrackPointExtension>
        </extensions>
      </trkpt>
      <trkpt lat="45.30116035602986812591552734375" lon="-70.85928398184478282928466796875">
        <ele>1060</ele>
        <time>2026-08-21T14:36:09.000Z</time>
        <extensions>
          <ns3:TrackPointExtension>
            <ns3:hr>149</ns3:hr>
            <ns3:cad>48</ns3:cad>
          </ns3:TrackPointExtension>
        </extensions>
      </trkpt>
      <trkpt lat="45.3011518903076648712158203125" lon="-70.8593013323843479156494140625">
        <ele>1060</ele>
        <time>2026-08-21T14:36:10.000Z</time>
        <extensions>
          <ns3:TrackPointExtension>
            <ns3:hr>149</ns3:hr>
            <ns3:cad>52</ns3:cad>
          </ns3:TrackPointExtension>
        </extensions>
      </trkpt>
      <trkpt lat="45.30114560388028621673583984375" lon="-70.8593207783997058868408203125">
        <ele>1060.199951171875</ele>
        <time>2026-08-21T14:36:11.000Z</time>
        <extensions>
          <ns3:TrackPointExtension>
            <ns3:hr>150</ns3:hr>
            <ns3:cad>52</ns3:cad>
          </ns3:TrackPointExtension>
        </extensions>
      </trkpt>
      <trkpt lat="45.301141999661922454833984375" lon="-70.85933762602508068084716796875">
        <ele>1060.199951171875</ele>
        <time>2026-08-21T14:36:12.000Z</time>
        <extensions>
          <ns3:TrackPointExtension>
            <ns3:hr>151</ns3:hr>
            <ns3:cad>53</ns3:cad>
          </ns3:TrackPointExtension>
        </extensions>
      </trkpt>
      <trkpt lat="45.30114166438579559326171875" lon="-70.859351791441440582275390625">
        <ele>1060.4000244140625</ele>
        <time>2026-08-21T14:36:13.000Z</time>
        <extensions>
          <ns3:TrackPointExtension>
            <ns3:hr>151</ns3:hr>
            <ns3:cad>53</ns3:cad>
          </ns3:TrackPointExtension>
        </extensions>
      </trkpt>
      <trkpt lat="45.3011398203670978546142578125" lon="-70.85936863906681537628173828125">
        <ele>1060.5999755859375</ele>
        <time>2026-08-21T14:36:14.000Z</time>
        <extensions>
          <ns3:TrackPointExtension>
            <ns3:hr>151</ns3:hr>
            <ns3:cad>53</ns3:cad>
          </ns3:TrackPointExtension>
        </extensions>
      </trkpt>
      <trkpt lat="45.30113772489130496978759765625" lon="-70.859383307397365570068359375">
        <ele>1060.800048828125</ele>
        <time>2026-08-21T14:36:15.000Z</time>
        <extensions>
          <ns3:TrackPointExtension>
            <ns3:hr>151</ns3:hr>
            <ns3:cad>54</ns3:cad>
          </ns3:TrackPointExtension>
        </extensions>
      </trkpt>
      <trkpt lat="45.30113554559648036956787109375" lon="-70.859396718442440032958984375">
        <ele>1061</ele>
        <time>2026-08-21T14:36:16.000Z</time>
        <extensions>
          <ns3:TrackPointExtension>
            <ns3:hr>152</ns3:hr>
            <ns3:cad>54</ns3:cad>
          </ns3:TrackPointExtension>
        </extensions>
      </trkpt>
      <trkpt lat="45.30113588087260723114013671875" lon="-70.85941742174327373504638671875">
        <ele>1061.199951171875</ele>
        <time>2026-08-21T14:36:17.000Z</time>
        <extensions>
          <ns3:TrackPointExtension>
            <ns3:hr>152</ns3:hr>
            <ns3:cad>51</ns3:cad>
          </ns3:TrackPointExtension>
        </extensions>
      </trkpt>
      <trkpt lat="45.30113604851067066192626953125" lon="-70.85942882113158702850341796875">
        <ele>1061.5999755859375</ele>
        <time>2026-08-21T14:36:18.000Z</time>
        <extensions>
          <ns3:TrackPointExtension>
            <ns3:hr>152</ns3:hr>
            <ns3:cad>51</ns3:cad>
          </ns3:TrackPointExtension>
        </extensions>
      </trkpt>
      <trkpt lat="45.3011364676058292388916015625" lon="-70.85944508202373981475830078125">
        <ele>1061.800048828125</ele>
        <time>2026-08-21T14:36:19.000Z</time>
        <extensions>
          <ns3:TrackPointExtension>
            <ns3:hr>153</ns3:hr>
            <ns3:cad>0</ns3:cad>
          </ns3:TrackPointExtension>
        </extensions>
      </trkpt>
      <trkpt lat="45.3011364676058292388916015625" lon="-70.85945899598300457000732421875">
        <ele>1062.199951171875</ele>
        <time>2026-08-21T14:36:20.000Z</time>
        <extensions>
          <ns3:TrackPointExtension>
            <ns3:hr>153</ns3:hr>
            <ns3:cad>0</ns3:cad>
          </ns3:TrackPointExtension>
        </extensions>
      </trkpt>
      <trkpt lat="45.30113504268229007720947265625" lon="-70.85947592742741107940673828125">
        <ele>1062.4000244140625</ele>
        <time>2026-08-21T14:36:21.000Z</time>
        <extensions>
          <ns3:TrackPointExtension>
            <ns3:hr>154</ns3:hr>
            <ns3:cad>0</ns3:cad>
          </ns3:TrackPointExtension>
        </extensions>
      </trkpt>
      <trkpt lat="45.30113353393971920013427734375" lon="-70.859495960175991058349609375">
        <ele>1062.5999755859375</ele>
        <time>2026-08-21T14:36:22.000Z</time>
        <extensions>
          <ns3:TrackPointExtension>
            <ns3:hr>154</ns3:hr>
            <ns3:cad>0</ns3:cad>
          </ns3:TrackPointExtension>
        </extensions>
      </trkpt>
      <trkpt lat="45.30113638378679752349853515625" lon="-70.8595190942287445068359375">
        <ele>1062.800048828125</ele>
        <time>2026-08-21T14:36:23.000Z</time>
        <extensions>
          <ns3:TrackPointExtension>
            <ns3:hr>155</ns3:hr>
            <ns3:cad>0</ns3:cad>
          </ns3:TrackPointExtension>
        </extensions>
      </trkpt>
      <trkpt lat="45.301140658557415008544921875" lon="-70.8595350198447704315185546875">
        <ele>1063</ele>
        <time>2026-08-21T14:36:24.000Z</time>
        <extensions>
          <ns3:TrackPointExtension>
            <ns3:hr>155</ns3:hr>
            <ns3:cad>0</ns3:cad>
          </ns3:TrackPointExtension>
        </extensions>
      </trkpt>
      <trkpt lat="45.30114593915641307830810546875" lon="-70.859546922147274017333984375">
        <ele>1063.199951171875</ele>
        <time>2026-08-21T14:36:25.000Z</time>
        <extensions>
          <ns3:TrackPointExtension>
            <ns3:hr>155</ns3:hr>
            <ns3:cad>0</ns3:cad>
          </ns3:TrackPointExtension>
        </extensions>
      </trkpt>
      <trkpt lat="45.3011502139270305633544921875" lon="-70.8595558069646358489990234375">
        <ele>1063.5999755859375</ele>
        <time>2026-08-21T14:36:26.000Z</time>
        <extensions>
          <ns3:TrackPointExtension>
            <ns3:hr>155</ns3:hr>
            <ns3:cad>0</ns3:cad>
          </ns3:TrackPointExtension>
        </extensions>
      </trkpt>
      <trkpt lat="45.3011528961360454559326171875" lon="-70.859567038714885711669921875">
        <ele>1063.800048828125</ele>
        <time>2026-08-21T14:36:27.000Z</time>
        <extensions>
          <ns3:TrackPointExtension>
            <ns3:hr>155</ns3:hr>
            <ns3:cad>51</ns3:cad>
          </ns3:TrackPointExtension>
        </extensions>
      </trkpt>
      <trkpt lat="45.30115683563053607940673828125" lon="-70.85958723910152912139892578125">
        <ele>1064</ele>
        <time>2026-08-21T14:36:28.000Z</time>
        <extensions>
          <ns3:TrackPointExtension>
            <ns3:hr>155</ns3:hr>
            <ns3:cad>51</ns3:cad>
          </ns3:TrackPointExtension>
        </extensions>
      </trkpt>
      <trkpt lat="45.30115918256342411041259765625" lon="-70.8596014045178890228271484375">
        <ele>1064.199951171875</ele>
        <time>2026-08-21T14:36:29.000Z</time>
        <extensions>
          <ns3:TrackPointExtension>
            <ns3:hr>155</ns3:hr>
            <ns3:cad>50</ns3:cad>
          </ns3:TrackPointExtension>
        </extensions>
      </trkpt>
      <trkpt lat="45.30116404406726360321044921875" lon="-70.85961657576262950897216796875">
        <ele>1064.4000244140625</ele>
        <time>2026-08-21T14:36:30.000Z</time>
        <extensions>
          <ns3:TrackPointExtension>
            <ns3:hr>155</ns3:hr>
            <ns3:cad>50</ns3:cad>
          </ns3:TrackPointExtension>
        </extensions>
      </trkpt>
      <trkpt lat="45.30116848647594451904296875" lon="-70.85962579585611820220947265625">
        <ele>1064.5999755859375</ele>
        <time>2026-08-21T14:36:31.000Z</time>
        <extensions>
          <ns3:TrackPointExtension>
            <ns3:hr>154</ns3:hr>
            <ns3:cad>48</ns3:cad>
          </ns3:TrackPointExtension>
        </extensions>
      </trkpt>
      <trkpt lat="45.30117326416075229644775390625" lon="-70.8596402965486049652099609375">
        <ele>1064.800048828125</ele>
        <time>2026-08-21T14:36:32.000Z</time>
        <extensions>
          <ns3:TrackPointExtension>
            <ns3:hr>154</ns3:hr>
            <ns3:cad>48</ns3:cad>
          </ns3:TrackPointExtension>
        </extensions>
      </trkpt>
      <trkpt lat="45.30117745511233806610107421875" lon="-70.8596563898026943206787109375">
        <ele>1065.199951171875</ele>
        <time>2026-08-21T14:36:33.000Z</time>
        <extensions>
          <ns3:TrackPointExtension>
            <ns3:hr>154</ns3:hr>
            <ns3:cad>48</ns3:cad>
          </ns3:TrackPointExtension>
        </extensions>
      </trkpt>
      <trkpt lat="45.30118281953036785125732421875" lon="-70.85966887883841991424560546875">
        <ele>1065.4000244140625</ele>
        <time>2026-08-21T14:36:34.000Z</time>
        <extensions>
          <ns3:TrackPointExtension>
            <ns3:hr>154</ns3:hr>
            <ns3:cad>0</ns3:cad>
          </ns3:TrackPointExtension>
        </extensions>
      </trkpt>
      <trkpt lat="45.301189608871936798095703125" lon="-70.85968413390219211578369140625">
        <ele>1065.5999755859375</ele>
        <time>2026-08-21T14:36:35.000Z</time>
        <extensions>
          <ns3:TrackPointExtension>
            <ns3:hr>154</ns3:hr>
            <ns3:cad>0</ns3:cad>
          </ns3:TrackPointExtension>
        </extensions>
      </trkpt>
      <trkpt lat="45.30120008625090122222900390625" lon="-70.85969301871955394744873046875">
        <ele>1066</ele>
        <time>2026-08-21T14:36:36.000Z</time>
        <extensions>
          <ns3:TrackPointExtension>
            <ns3:hr>155</ns3:hr>
            <ns3:cad>0</ns3:cad>
          </ns3:TrackPointExtension>
        </extensions>
      </trkpt>
      <trkpt lat="45.30121165327727794647216796875" lon="-70.85970140062272548675537109375">
        <ele>1066.199951171875</ele>
        <time>2026-08-21T14:36:37.000Z</time>
        <extensions>
          <ns3:TrackPointExtension>
            <ns3:hr>155</ns3:hr>
            <ns3:cad>0</ns3:cad>
          </ns3:TrackPointExtension>
        </extensions>
      </trkpt>
      <trkpt lat="45.301217772066593170166015625" lon="-70.85971615277230739593505859375">
        <ele>1066.4000244140625</ele>
        <time>2026-08-21T14:36:38.000Z</time>
        <extensions>
          <ns3:TrackPointExtension>
            <ns3:hr>155</ns3:hr>
            <ns3:cad>0</ns3:cad>
          </ns3:TrackPointExtension>
        </extensions>
      </trkpt>
      <trkpt lat="45.3012241423130035400390625" lon="-70.85972788743674755096435546875">
        <ele>1066.4000244140625</ele>
        <time>2026-08-21T14:36:39.000Z</time>
        <extensions>
          <ns3:TrackPointExtension>
            <ns3:hr>155</ns3:hr>
            <ns3:cad>0</ns3:cad>
          </ns3:TrackPointExtension>
        </extensions>
      </trkpt>
      <trkpt lat="45.30123076401650905609130859375" lon="-70.859738029539585113525390625">
        <ele>1066.5999755859375</ele>
        <time>2026-08-21T14:36:40.000Z</time>
        <extensions>
          <ns3:TrackPointExtension>
            <ns3:hr>155</ns3:hr>
            <ns3:cad>0</ns3:cad>
          </ns3:TrackPointExtension>
        </extensions>
      </trkpt>
      <trkpt lat="45.3012360446155071258544921875" lon="-70.8597479201853275299072265625">
        <ele>1066.5999755859375</ele>
        <time>2026-08-21T14:36:41.000Z</time>
        <extensions>
          <ns3:TrackPointExtension>
            <ns3:hr>156</ns3:hr>
            <ns3:cad>0</ns3:cad>
          </ns3:TrackPointExtension>
        </extensions>
      </trkpt>
      <trkpt lat="45.30123998410999774932861328125" lon="-70.859759151935577392578125">
        <ele>1066.800048828125</ele>
        <time>2026-08-21T14:36:42.000Z</time>
        <extensions>
          <ns3:TrackPointExtension>
            <ns3:hr>156</ns3:hr>
            <ns3:cad>0</ns3:cad>
          </ns3:TrackPointExtension>
        </extensions>
      </trkpt>
      <trkpt lat="45.301243923604488372802734375" lon="-70.8597690425813198089599609375">
        <ele>1067</ele>
        <time>2026-08-21T14:36:43.000Z</time>
        <extensions>
          <ns3:TrackPointExtension>
            <ns3:hr>156</ns3:hr>
            <ns3:cad>0</ns3:cad>
          </ns3:TrackPointExtension>
        </extensions>
      </trkpt>
      <trkpt lat="45.3012455999851226806640625" lon="-70.85977817885577678680419921875">
        <ele>1067.199951171875</ele>
        <time>2026-08-21T14:36:44.000Z</time>
        <extensions>
          <ns3:TrackPointExtension>
            <ns3:hr>155</ns3:hr>
            <ns3:cad>0</ns3:cad>
          </ns3:TrackPointExtension>
        </extensions>
      </trkpt>
      <trkpt lat="45.30124953947961330413818359375" lon="-70.859790332615375518798828125">
        <ele>1067.4000244140625</ele>
        <time>2026-08-21T14:36:45.000Z</time>
        <extensions>
          <ns3:TrackPointExtension>
            <ns3:hr>155</ns3:hr>
            <ns3:cad>0</ns3:cad>
          </ns3:TrackPointExtension>
        </extensions>
      </trkpt>
      <trkpt lat="45.30125389806926250457763671875" lon="-70.859802067279815673828125">
        <ele>1067.5999755859375</ele>
        <time>2026-08-21T14:36:46.000Z</time>
        <extensions>
          <ns3:TrackPointExtension>
            <ns3:hr>155</ns3:hr>
            <ns3:cad>40</ns3:cad>
          </ns3:TrackPointExtension>
        </extensions>
      </trkpt>
      <trkpt lat="45.30126127414405345916748046875" lon="-70.85981153883039951324462890625">
        <ele>1067.800048828125</ele>
        <time>2026-08-21T14:36:47.000Z</time>
        <extensions>
          <ns3:TrackPointExtension>
            <ns3:hr>155</ns3:hr>
            <ns3:cad>40</ns3:cad>
          </ns3:TrackPointExtension>
        </extensions>
      </trkpt>
      <trkpt lat="45.3012668900191783905029296875" lon="-70.8598206751048564910888671875">
        <ele>1068</ele>
        <time>2026-08-21T14:36:48.000Z</time>
        <extensions>
          <ns3:TrackPointExtension>
            <ns3:hr>156</ns3:hr>
            <ns3:cad>40</ns3:cad>
          </ns3:TrackPointExtension>
        </extensions>
      </trkpt>
      <trkpt lat="45.30127669684588909149169921875" lon="-70.85983266122639179229736328125">
        <ele>1068.199951171875</ele>
        <time>2026-08-21T14:36:49.000Z</time>
        <extensions>
          <ns3:TrackPointExtension>
            <ns3:hr>156</ns3:hr>
            <ns3:cad>40</ns3:cad>
          </ns3:TrackPointExtension>
        </extensions>
      </trkpt>
      <trkpt lat="45.3012819774448871612548828125" lon="-70.85984121076762676239013671875">
        <ele>1068.4000244140625</ele>
        <time>2026-08-21T14:36:50.000Z</time>
        <extensions>
          <ns3:TrackPointExtension>
            <ns3:hr>156</ns3:hr>
            <ns3:cad>40</ns3:cad>
          </ns3:TrackPointExtension>
        </extensions>
      </trkpt>
      <trkpt lat="45.30128390528261661529541015625" lon="-70.85984967648983001708984375">
        <ele>1068.800048828125</ele>
        <time>2026-08-21T14:36:51.000Z</time>
        <extensions>
          <ns3:TrackPointExtension>
            <ns3:hr>156</ns3:hr>
            <ns3:cad>40</ns3:cad>
          </ns3:TrackPointExtension>
        </extensions>
      </trkpt>
      <trkpt lat="45.3012836538255214691162109375" lon="-70.8598568849265575408935546875">
        <ele>1068.800048828125</ele>
        <time>2026-08-21T14:36:52.000Z</time>
        <extensions>
          <ns3:TrackPointExtension>
            <ns3:hr>155</ns3:hr>
            <ns3:cad>40</ns3:cad>
          </ns3:TrackPointExtension>
        </extensions>
      </trkpt>
      <trkpt lat="45.301284827291965484619140625" lon="-70.85986468009650707244873046875">
        <ele>1069.199951171875</ele>
        <time>2026-08-21T14:36:53.000Z</time>
        <extensions>
          <ns3:TrackPointExtension>
            <ns3:hr>155</ns3:hr>
            <ns3:cad>0</ns3:cad>
          </ns3:TrackPointExtension>
        </extensions>
      </trkpt>
      <trkpt lat="45.30128373764455318450927734375" lon="-70.8598662726581096649169921875">
        <ele>1069.4000244140625</ele>
        <time>2026-08-21T14:36:54.000Z</time>
        <extensions>
          <ns3:TrackPointExtension>
            <ns3:hr>155</ns3:hr>
            <ns3:cad>0</ns3:cad>
          </ns3:TrackPointExtension>
        </extensions>
      </trkpt>
      <trkpt lat="45.3012831509113311767578125" lon="-70.85987088270485401153564453125">
        <ele>1069.5999755859375</ele>
        <time>2026-08-21T14:36:55.000Z</time>
        <extensions>
          <ns3:TrackPointExtension>
            <ns3:hr>155</ns3:hr>
            <ns3:cad>41</ns3:cad>
          </ns3:TrackPointExtension>
        </extensions>
      </trkpt>
      <trkpt lat="45.30128373764455318450927734375" lon="-70.85988278500735759735107421875">
        <ele>1069.5999755859375</ele>
        <time>2026-08-21T14:36:56.000Z</time>
        <extensions>
          <ns3:TrackPointExtension>
            <ns3:hr>155</ns3:hr>
            <ns3:cad>44</ns3:cad>
          </ns3:TrackPointExtension>
        </extensions>
      </trkpt>
      <trkpt lat="45.3012870065867900848388671875" lon="-70.85988999344408512115478515625">
        <ele>1070</ele>
        <time>2026-08-21T14:36:57.000Z</time>
        <extensions>
          <ns3:TrackPointExtension>
            <ns3:hr>154</ns3:hr>
            <ns3:cad>44</ns3:cad>
          </ns3:TrackPointExtension>
        </extensions>
      </trkpt>
      <trkpt lat="45.3012886829674243927001953125" lon="-70.8598959445953369140625">
        <ele>1070.199951171875</ele>
        <time>2026-08-21T14:36:58.000Z</time>
        <extensions>
          <ns3:TrackPointExtension>
            <ns3:hr>155</ns3:hr>
            <ns3:cad>44</ns3:cad>
          </ns3:TrackPointExtension>
        </extensions>
      </trkpt>
      <trkpt lat="45.30128994025290012359619140625" lon="-70.8599091880023479461669921875">
        <ele>1070.199951171875</ele>
        <time>2026-08-21T14:36:59.000Z</time>
        <extensions>
          <ns3:TrackPointExtension>
            <ns3:hr>155</ns3:hr>
            <ns3:cad>44</ns3:cad>
          </ns3:TrackPointExtension>
        </extensions>
      </trkpt>
      <trkpt lat="45.301293544471263885498046875" lon="-70.8599172346293926239013671875">
        <ele>1070.4000244140625</ele>
        <time>2026-08-21T14:37:00.000Z</time>
        <extensions>
          <ns3:TrackPointExtension>
            <ns3:hr>155</ns3:hr>
            <ns3:cad>48</ns3:cad>
          </ns3:TrackPointExtension>
        </extensions>
      </trkpt>
      <trkpt lat="45.3012923710048198699951171875" lon="-70.85992553271353244781494140625">
        <ele>1070.5999755859375</ele>
        <time>2026-08-21T14:37:01.000Z</time>
        <extensions>
          <ns3:TrackPointExtension>
            <ns3:hr>155</ns3:hr>
            <ns3:cad>48</ns3:cad>
          </ns3:TrackPointExtension>
        </extensions>
      </trkpt>
      <trkpt lat="45.30129262246191501617431640625" lon="-70.85993827320635318756103515625">
        <ele>1070.800048828125</ele>
        <time>2026-08-21T14:37:02.000Z</time>
        <extensions>
          <ns3:TrackPointExtension>
            <ns3:hr>155</ns3:hr>
            <ns3:cad>48</ns3:cad>
          </ns3:TrackPointExtension>
        </extensions>
      </trkpt>
      <trkpt lat="45.30129077844321727752685546875" lon="-70.8599484153091907501220703125">
        <ele>1071</ele>
        <time>2026-08-21T14:37:03.000Z</time>
        <extensions>
          <ns3:TrackPointExtension>
            <ns3:hr>155</ns3:hr>
            <ns3:cad>42</ns3:cad>
          </ns3:TrackPointExtension>
        </extensions>
      </trkpt>
      <trkpt lat="45.301286838948726654052734375" lon="-70.859956629574298858642578125">
        <ele>1071.199951171875</ele>
        <time>2026-08-21T14:37:04.000Z</time>
        <extensions>
          <ns3:TrackPointExtension>
            <ns3:hr>155</ns3:hr>
            <ns3:cad>42</ns3:cad>
          </ns3:TrackPointExtension>
        </extensions>
      </trkpt>
      <trkpt lat="45.3012860007584095001220703125" lon="-70.859964676201343536376953125">
        <ele>1071.4000244140625</ele>
        <time>2026-08-21T14:37:05.000Z</time>
        <extensions>
          <ns3:TrackPointExtension>
            <ns3:hr>155</ns3:hr>
            <ns3:cad>42</ns3:cad>
          </ns3:TrackPointExtension>
        </extensions>
      </trkpt>
      <trkpt lat="45.3012809716165065765380859375" lon="-70.85997297428548336029052734375">
        <ele>1071.5999755859375</ele>
        <time>2026-08-21T14:37:06.000Z</time>
        <extensions>
          <ns3:TrackPointExtension>
            <ns3:hr>155</ns3:hr>
            <ns3:cad>42</ns3:cad>
          </ns3:TrackPointExtension>
        </extensions>
      </trkpt>
      <trkpt lat="45.30127904377877712249755859375" lon="-70.859984122216701507568359375">
        <ele>1071.800048828125</ele>
        <time>2026-08-21T14:37:07.000Z</time>
        <extensions>
          <ns3:TrackPointExtension>
            <ns3:hr>155</ns3:hr>
            <ns3:cad>42</ns3:cad>
          </ns3:TrackPointExtension>
        </extensions>
      </trkpt>
      <trkpt lat="45.30128088779747486114501953125" lon="-70.85999451577663421630859375">
        <ele>1072</ele>
        <time>2026-08-21T14:37:08.000Z</time>
        <extensions>
          <ns3:TrackPointExtension>
            <ns3:hr>155</ns3:hr>
            <ns3:cad>42</ns3:cad>
          </ns3:TrackPointExtension>
        </extensions>
      </trkpt>
      <trkpt lat="45.30128248035907745361328125" lon="-70.8600045740604400634765625">
        <ele>1072.199951171875</ele>
        <time>2026-08-21T14:37:09.000Z</time>
        <extensions>
          <ns3:TrackPointExtension>
            <ns3:hr>155</ns3:hr>
            <ns3:cad>42</ns3:cad>
          </ns3:TrackPointExtension>
        </extensions>
      </trkpt>
      <trkpt lat="45.30128340236842632293701171875" lon="-70.8600171469151973724365234375">
        <ele>1072.4000244140625</ele>
        <time>2026-08-21T14:37:10.000Z</time>
        <extensions>
          <ns3:TrackPointExtension>
            <ns3:hr>154</ns3:hr>
            <ns3:cad>41</ns3:cad>
          </ns3:TrackPointExtension>
        </extensions>
      </trkpt>
      <trkpt lat="45.30128340236842632293701171875" lon="-70.86003500036895275115966796875">
        <ele>1072.5999755859375</ele>
        <time>2026-08-21T14:37:11.000Z</time>
        <extensions>
          <ns3:TrackPointExtension>
            <ns3:hr>154</ns3:hr>
            <ns3:cad>41</ns3:cad>
          </ns3:TrackPointExtension>
        </extensions>
      </trkpt>
      <trkpt lat="45.30128541402518749237060546875" lon="-70.86005075834691524505615234375">
        <ele>1072.800048828125</ele>
        <time>2026-08-21T14:37:12.000Z</time>
        <extensions>
          <ns3:TrackPointExtension>
            <ns3:hr>151</ns3:hr>
            <ns3:cad>41</ns3:cad>
          </ns3:TrackPointExtension>
        </extensions>
      </trkpt>
      <trkpt lat="45.30128424055874347686767578125" lon="-70.86006416939198970794677734375">
        <ele>1073</ele>
        <time>2026-08-21T14:37:13.000Z</time>
        <extensions>
          <ns3:TrackPointExtension>
            <ns3:hr>150</ns3:hr>
            <ns3:cad>41</ns3:cad>
          </ns3:TrackPointExtension>
        </extensions>
      </trkpt>
      <trkpt lat="45.30128491111099720001220703125" lon="-70.86007766425609588623046875">
        <ele>1073.199951171875</ele>
        <time>2026-08-21T14:37:14.000Z</time>
        <extensions>
          <ns3:TrackPointExtension>
            <ns3:hr>150</ns3:hr>
            <ns3:cad>41</ns3:cad>
          </ns3:TrackPointExtension>
        </extensions>
      </trkpt>
      <trkpt lat="45.30128608457744121551513671875" lon="-70.86009535007178783416748046875">
        <ele>1073.4000244140625</ele>
        <time>2026-08-21T14:37:15.000Z</time>
        <extensions>
          <ns3:TrackPointExtension>
            <ns3:hr>150</ns3:hr>
            <ns3:cad>41</ns3:cad>
          </ns3:TrackPointExtension>
        </extensions>
      </trkpt>
      <trkpt lat="45.301287509500980377197265625" lon="-70.8601170592010021209716796875">
        <ele>1073.5999755859375</ele>
        <time>2026-08-21T14:37:16.000Z</time>
        <extensions>
          <ns3:TrackPointExtension>
            <ns3:hr>150</ns3:hr>
            <ns3:cad>41</ns3:cad>
          </ns3:TrackPointExtension>
        </extensions>
      </trkpt>
      <trkpt lat="45.30128784477710723876953125" lon="-70.860134325921535491943359375">
        <ele>1074</ele>
        <time>2026-08-21T14:37:17.000Z</time>
        <extensions>
          <ns3:TrackPointExtension>
            <ns3:hr>151</ns3:hr>
            <ns3:cad>0</ns3:cad>
          </ns3:TrackPointExtension>
        </extensions>
      </trkpt>
      <trkpt lat="45.3012883476912975311279296875" lon="-70.8601485751569271087646484375">
        <ele>1074.199951171875</ele>
        <time>2026-08-21T14:37:18.000Z</time>
        <extensions>
          <ns3:TrackPointExtension>
            <ns3:hr>150</ns3:hr>
            <ns3:cad>52</ns3:cad>
          </ns3:TrackPointExtension>
        </extensions>
      </trkpt>
      <trkpt lat="45.301286168396472930908203125" lon="-70.8601603098213672637939453125">
        <ele>1074.199951171875</ele>
        <time>2026-08-21T14:37:19.000Z</time>
        <extensions>
          <ns3:TrackPointExtension>
            <ns3:hr>150</ns3:hr>
            <ns3:cad>52</ns3:cad>
          </ns3:TrackPointExtension>
        </extensions>
      </trkpt>
      <trkpt lat="45.301287509500980377197265625" lon="-70.86017246358096599578857421875">
        <ele>1074.4000244140625</ele>
        <time>2026-08-21T14:37:20.000Z</time>
        <extensions>
          <ns3:TrackPointExtension>
            <ns3:hr>151</ns3:hr>
            <ns3:cad>52</ns3:cad>
          </ns3:TrackPointExtension>
        </extensions>
      </trkpt>
      <trkpt lat="45.3012880124151706695556640625" lon="-70.8601831085979938507080078125">
        <ele>1074.5999755859375</ele>
        <time>2026-08-21T14:37:21.000Z</time>
        <extensions>
          <ns3:TrackPointExtension>
            <ns3:hr>152</ns3:hr>
            <ns3:cad>52</ns3:cad>
          </ns3:TrackPointExtension>
        </extensions>
      </trkpt>
      <trkpt lat="45.30128558166325092315673828125" lon="-70.860200040042400360107421875">
        <ele>1074.800048828125</ele>
        <time>2026-08-21T14:37:22.000Z</time>
        <extensions>
          <ns3:TrackPointExtension>
            <ns3:hr>152</ns3:hr>
            <ns3:cad>51</ns3:cad>
          </ns3:TrackPointExtension>
        </extensions>
      </trkpt>
      <trkpt lat="45.3012896887958049774169921875" lon="-70.8602156303822994232177734375">
        <ele>1075</ele>
        <time>2026-08-21T14:37:23.000Z</time>
        <extensions>
          <ns3:TrackPointExtension>
            <ns3:hr>152</ns3:hr>
            <ns3:cad>49</ns3:cad>
          </ns3:TrackPointExtension>
        </extensions>
      </trkpt>
      <trkpt lat="45.30129513703286647796630859375" lon="-70.86023750714957714080810546875">
        <ele>1075.199951171875</ele>
        <time>2026-08-21T14:37:24.000Z</time>
        <extensions>
          <ns3:TrackPointExtension>
            <ns3:hr>152</ns3:hr>
            <ns3:cad>49</ns3:cad>
          </ns3:TrackPointExtension>
        </extensions>
      </trkpt>
      <trkpt lat="45.30129513703286647796630859375" lon="-70.860249996185302734375">
        <ele>1075.4000244140625</ele>
        <time>2026-08-21T14:37:25.000Z</time>
        <extensions>
          <ns3:TrackPointExtension>
            <ns3:hr>152</ns3:hr>
            <ns3:cad>48</ns3:cad>
          </ns3:TrackPointExtension>
        </extensions>
      </trkpt>
      <trkpt lat="45.301298238337039947509765625" lon="-70.8602647483348846435546875">
        <ele>1075.4000244140625</ele>
        <time>2026-08-21T14:37:26.000Z</time>
        <extensions>
          <ns3:TrackPointExtension>
            <ns3:hr>152</ns3:hr>
            <ns3:cad>48</ns3:cad>
          </ns3:TrackPointExtension>
        </extensions>
      </trkpt>
      <trkpt lat="45.301301591098308563232421875" lon="-70.86027103476226329803466796875">
        <ele>1075.5999755859375</ele>
        <time>2026-08-21T14:37:27.000Z</time>
        <extensions>
          <ns3:TrackPointExtension>
            <ns3:hr>152</ns3:hr>
            <ns3:cad>48</ns3:cad>
          </ns3:TrackPointExtension>
        </extensions>
      </trkpt>
      <trkpt lat="45.30130636878311634063720703125" lon="-70.86028813384473323822021484375">
        <ele>1075.800048828125</ele>
        <time>2026-08-21T14:37:28.000Z</time>
        <extensions>
          <ns3:TrackPointExtension>
            <ns3:hr>152</ns3:hr>
            <ns3:cad>48</ns3:cad>
          </ns3:TrackPointExtension>
        </extensions>
      </trkpt>
      <trkpt lat="45.3013067878782749176025390625" lon="-70.860304646193981170654296875">
        <ele>1076</ele>
        <time>2026-08-21T14:37:29.000Z</time>
        <extensions>
          <ns3:TrackPointExtension>
            <ns3:hr>152</ns3:hr>
            <ns3:cad>48</ns3:cad>
          </ns3:TrackPointExtension>
        </extensions>
      </trkpt>
      <trkpt lat="45.30130083672702312469482421875" lon="-70.86032149381935596466064453125">
        <ele>1076.199951171875</ele>
        <time>2026-08-21T14:37:30.000Z</time>
        <extensions>
          <ns3:TrackPointExtension>
            <ns3:hr>153</ns3:hr>
            <ns3:cad>48</ns3:cad>
          </ns3:TrackPointExtension>
        </extensions>
      </trkpt>
      <trkpt lat="45.301299579441547393798828125" lon="-70.8603289537131786346435546875">
        <ele>1076.4000244140625</ele>
        <time>2026-08-21T14:37:31.000Z</time>
        <extensions>
          <ns3:TrackPointExtension>
            <ns3:hr>153</ns3:hr>
            <ns3:cad>48</ns3:cad>
          </ns3:TrackPointExtension>
        </extensions>
      </trkpt>
      <trkpt lat="45.3012947179377079010009765625" lon="-70.86034320294857025146484375">
        <ele>1076.5999755859375</ele>
        <time>2026-08-21T14:37:32.000Z</time>
        <extensions>
          <ns3:TrackPointExtension>
            <ns3:hr>153</ns3:hr>
            <ns3:cad>0</ns3:cad>
          </ns3:TrackPointExtension>
        </extensions>
      </trkpt>
      <trkpt lat="45.301290191709995269775390625" lon="-70.86035795509815216064453125">
        <ele>1076.800048828125</ele>
        <time>2026-08-21T14:37:33.000Z</time>
        <extensions>
          <ns3:TrackPointExtension>
            <ns3:hr>154</ns3:hr>
            <ns3:cad>0</ns3:cad>
          </ns3:TrackPointExtension>
        </extensions>
      </trkpt>
      <trkpt lat="45.3012849949300289154052734375" lon="-70.8603678457438945770263671875">
        <ele>1077</ele>
        <time>2026-08-21T14:37:34.000Z</time>
        <extensions>
          <ns3:TrackPointExtension>
            <ns3:hr>154</ns3:hr>
            <ns3:cad>50</ns3:cad>
          </ns3:TrackPointExtension>
        </extensions>
      </trkpt>
      <trkpt lat="45.30127669684588909149169921875" lon="-70.86037631146609783172607421875">
        <ele>1077.199951171875</ele>
        <time>2026-08-21T14:37:35.000Z</time>
        <extensions>
          <ns3:TrackPointExtension>
            <ns3:hr>154</ns3:hr>
            <ns3:cad>51</ns3:cad>
          </ns3:TrackPointExtension>
        </extensions>
      </trkpt>
      <trkpt lat="45.3012692369520664215087890625" lon="-70.86039206944406032562255859375">
        <ele>1077.4000244140625</ele>
        <time>2026-08-21T14:37:36.000Z</time>
        <extensions>
          <ns3:TrackPointExtension>
            <ns3:hr>154</ns3:hr>
            <ns3:cad>51</ns3:cad>
          </ns3:TrackPointExtension>
        </extensions>
      </trkpt>
      <trkpt lat="45.30126496218144893646240234375" lon="-70.86040246300399303436279296875">
        <ele>1077.4000244140625</ele>
        <time>2026-08-21T14:37:37.000Z</time>
        <extensions>
          <ns3:TrackPointExtension>
            <ns3:hr>154</ns3:hr>
            <ns3:cad>51</ns3:cad>
          </ns3:TrackPointExtension>
        </extensions>
      </trkpt>
      <trkpt lat="45.3012628667056560516357421875" lon="-70.860417969524860382080078125">
        <ele>1077.5999755859375</ele>
        <time>2026-08-21T14:37:38.000Z</time>
        <extensions>
          <ns3:TrackPointExtension>
            <ns3:hr>155</ns3:hr>
            <ns3:cad>51</ns3:cad>
          </ns3:TrackPointExtension>
        </extensions>
      </trkpt>
      <trkpt lat="45.3012611903250217437744140625" lon="-70.86043842136859893798828125">
        <ele>1077.800048828125</ele>
        <time>2026-08-21T14:37:39.000Z</time>
        <extensions>
          <ns3:TrackPointExtension>
            <ns3:hr>155</ns3:hr>
            <ns3:cad>49</ns3:cad>
          </ns3:TrackPointExtension>
        </extensions>
      </trkpt>
      <trkpt lat="45.301258005201816558837890625" lon="-70.86045585572719573974609375">
        <ele>1077.800048828125</ele>
        <time>2026-08-21T14:37:40.000Z</time>
        <extensions>
          <ns3:TrackPointExtension>
            <ns3:hr>155</ns3:hr>
            <ns3:cad>49</ns3:cad>
          </ns3:TrackPointExtension>
        </extensions>
      </trkpt>
      <trkpt lat="45.30125356279313564300537109375" lon="-70.860476307570934295654296875">
        <ele>1078</ele>
        <time>2026-08-21T14:37:41.000Z</time>
        <extensions>
          <ns3:TrackPointExtension>
            <ns3:hr>155</ns3:hr>
            <ns3:cad>51</ns3:cad>
          </ns3:TrackPointExtension>
        </extensions>
      </trkpt>
      <trkpt lat="45.30125021003186702728271484375" lon="-70.86048745550215244293212890625">
        <ele>1078</ele>
        <time>2026-08-21T14:37:42.000Z</time>
        <extensions>
          <ns3:TrackPointExtension>
            <ns3:hr>154</ns3:hr>
            <ns3:cad>51</ns3:cad>
          </ns3:TrackPointExtension>
        </extensions>
      </trkpt>
      <trkpt lat="45.301246605813503265380859375" lon="-70.86050606332719326019287109375">
        <ele>1078.199951171875</ele>
        <time>2026-08-21T14:37:43.000Z</time>
        <extensions>
          <ns3:TrackPointExtension>
            <ns3:hr>155</ns3:hr>
            <ns3:cad>51</ns3:cad>
          </ns3:TrackPointExtension>
        </extensions>
      </trkpt>
      <trkpt lat="45.30124224722385406494140625" lon="-70.860520564019680023193359375">
        <ele>1078.4000244140625</ele>
        <time>2026-08-21T14:37:44.000Z</time>
        <extensions>
          <ns3:TrackPointExtension>
            <ns3:hr>155</ns3:hr>
            <ns3:cad>49</ns3:cad>
          </ns3:TrackPointExtension>
        </extensions>
      </trkpt>
      <trkpt lat="45.30124065466225147247314453125" lon="-70.86052198894321918487548828125">
        <ele>1078.5999755859375</ele>
        <time>2026-08-21T14:37:45.000Z</time>
        <extensions>
          <ns3:TrackPointExtension>
            <ns3:hr>155</ns3:hr>
            <ns3:cad>49</ns3:cad>
          </ns3:TrackPointExtension>
        </extensions>
      </trkpt>
      <trkpt lat="45.3012335300445556640625" lon="-70.86053556762635707855224609375">
        <ele>1078.800048828125</ele>
        <time>2026-08-21T14:37:46.000Z</time>
        <extensions>
          <ns3:TrackPointExtension>
            <ns3:hr>156</ns3:hr>
            <ns3:cad>51</ns3:cad>
          </ns3:TrackPointExtension>
        </extensions>
      </trkpt>
      <trkpt lat="45.3012256510555744171142578125" lon="-70.860540680587291717529296875">
        <ele>1079.199951171875</ele>
        <time>2026-08-21T14:37:47.000Z</time>
        <extensions>
          <ns3:TrackPointExtension>
            <ns3:hr>156</ns3:hr>
            <ns3:cad>51</ns3:cad>
          </ns3:TrackPointExtension>
        </extensions>
      </trkpt>
      <trkpt lat="45.301220454275608062744140625" lon="-70.86055434308946132659912109375">
        <ele>1079.4000244140625</ele>
        <time>2026-08-21T14:37:48.000Z</time>
        <extensions>
          <ns3:TrackPointExtension>
            <ns3:hr>156</ns3:hr>
            <ns3:cad>51</ns3:cad>
          </ns3:TrackPointExtension>
        </extensions>
      </trkpt>
      <trkpt lat="45.30121735297143459320068359375" lon="-70.8605636470019817352294921875">
        <ele>1079.5999755859375</ele>
        <time>2026-08-21T14:37:49.000Z</time>
        <extensions>
          <ns3:TrackPointExtension>
            <ns3:hr>155</ns3:hr>
            <ns3:cad>51</ns3:cad>
          </ns3:TrackPointExtension>
        </extensions>
      </trkpt>
      <trkpt lat="45.30121232382953166961669921875" lon="-70.86057722568511962890625">
        <ele>1079.800048828125</ele>
        <time>2026-08-21T14:37:50.000Z</time>
        <extensions>
          <ns3:TrackPointExtension>
            <ns3:hr>155</ns3:hr>
            <ns3:cad>51</ns3:cad>
          </ns3:TrackPointExtension>
        </extensions>
      </trkpt>
      <trkpt lat="45.30121198855340480804443359375" lon="-70.86059742607176303863525390625">
        <ele>1080</ele>
        <time>2026-08-21T14:37:51.000Z</time>
        <extensions>
          <ns3:TrackPointExtension>
            <ns3:hr>155</ns3:hr>
            <ns3:cad>51</ns3:cad>
          </ns3:TrackPointExtension>
        </extensions>
      </trkpt>
      <trkpt lat="45.30120796523988246917724609375" lon="-70.860613100230693817138671875">
        <ele>1080.199951171875</ele>
        <time>2026-08-21T14:37:52.000Z</time>
        <extensions>
          <ns3:TrackPointExtension>
            <ns3:hr>155</ns3:hr>
            <ns3:cad>51</ns3:cad>
          </ns3:TrackPointExtension>
        </extensions>
      </trkpt>
      <trkpt lat="45.3012058697640895843505859375" lon="-70.86062072776257991790771484375">
        <ele>1080.4000244140625</ele>
        <time>2026-08-21T14:37:53.000Z</time>
        <extensions>
          <ns3:TrackPointExtension>
            <ns3:hr>155</ns3:hr>
            <ns3:cad>51</ns3:cad>
          </ns3:TrackPointExtension>
        </extensions>
      </trkpt>
      <trkpt lat="45.30120335519313812255859375" lon="-70.86063346825540065765380859375">
        <ele>1080.5999755859375</ele>
        <time>2026-08-21T14:37:54.000Z</time>
        <extensions>
          <ns3:TrackPointExtension>
            <ns3:hr>155</ns3:hr>
            <ns3:cad>51</ns3:cad>
          </ns3:TrackPointExtension>
        </extensions>
      </trkpt>
      <trkpt lat="45.3011974878609180450439453125" lon="-70.86064738221466541290283203125">
        <ele>1081</ele>
        <time>2026-08-21T14:37:55.000Z</time>
        <extensions>
          <ns3:TrackPointExtension>
            <ns3:hr>154</ns3:hr>
            <ns3:cad>51</ns3:cad>
          </ns3:TrackPointExtension>
        </extensions>
      </trkpt>
      <trkpt lat="45.30119069851934909820556640625" lon="-70.86065861396491527557373046875">
        <ele>1081.199951171875</ele>
        <time>2026-08-21T14:37:56.000Z</time>
        <extensions>
          <ns3:TrackPointExtension>
            <ns3:hr>155</ns3:hr>
            <ns3:cad>0</ns3:cad>
          </ns3:TrackPointExtension>
        </extensions>
      </trkpt>
      <trkpt lat="45.3011854179203510284423828125" lon="-70.860666073858737945556640625">
        <ele>1081.4000244140625</ele>
        <time>2026-08-21T14:37:57.000Z</time>
        <extensions>
          <ns3:TrackPointExtension>
            <ns3:hr>155</ns3:hr>
            <ns3:cad>0</ns3:cad>
          </ns3:TrackPointExtension>
        </extensions>
      </trkpt>
      <trkpt lat="45.30117921531200408935546875" lon="-70.8606759645044803619384765625">
        <ele>1081.5999755859375</ele>
        <time>2026-08-21T14:37:58.000Z</time>
        <extensions>
          <ns3:TrackPointExtension>
            <ns3:hr>156</ns3:hr>
            <ns3:cad>0</ns3:cad>
          </ns3:TrackPointExtension>
        </extensions>
      </trkpt>
      <trkpt lat="45.3011713363230228424072265625" lon="-70.8606897108256816864013671875">
        <ele>1081.800048828125</ele>
        <time>2026-08-21T14:37:59.000Z</time>
        <extensions>
          <ns3:TrackPointExtension>
            <ns3:hr>156</ns3:hr>
            <ns3:cad>0</ns3:cad>
          </ns3:TrackPointExtension>
        </extensions>
      </trkpt>
      <trkpt lat="45.30116521753370761871337890625" lon="-70.8606980927288532257080078125">
        <ele>1082</ele>
        <time>2026-08-21T14:38:00.000Z</time>
        <extensions>
          <ns3:TrackPointExtension>
            <ns3:hr>156</ns3:hr>
            <ns3:cad>0</ns3:cad>
          </ns3:TrackPointExtension>
        </extensions>
      </trkpt>
      <trkpt lat="45.30115717090666294097900390625" lon="-70.8607088215649127960205078125">
        <ele>1082.199951171875</ele>
        <time>2026-08-21T14:38:01.000Z</time>
        <extensions>
          <ns3:TrackPointExtension>
            <ns3:hr>156</ns3:hr>
            <ns3:cad>0</ns3:cad>
          </ns3:TrackPointExtension>
        </extensions>
      </trkpt>
      <trkpt lat="45.3011490404605865478515625" lon="-70.8607215620577335357666015625">
        <ele>1082.199951171875</ele>
        <time>2026-08-21T14:38:02.000Z</time>
        <extensions>
          <ns3:TrackPointExtension>
            <ns3:hr>156</ns3:hr>
            <ns3:cad>0</ns3:cad>
          </ns3:TrackPointExtension>
        </extensions>
      </trkpt>
      <trkpt lat="45.30114091001451015472412109375" lon="-70.86072835139930248260498046875">
        <ele>1082.4000244140625</ele>
        <time>2026-08-21T14:38:03.000Z</time>
        <extensions>
          <ns3:TrackPointExtension>
            <ns3:hr>156</ns3:hr>
            <ns3:cad>51</ns3:cad>
          </ns3:TrackPointExtension>
        </extensions>
      </trkpt>
      <trkpt lat="45.30113269574940204620361328125" lon="-70.86073723621666431427001953125">
        <ele>1082.4000244140625</ele>
        <time>2026-08-21T14:38:04.000Z</time>
        <extensions>
          <ns3:TrackPointExtension>
            <ns3:hr>156</ns3:hr>
            <ns3:cad>0</ns3:cad>
          </ns3:TrackPointExtension>
        </extensions>
      </trkpt>
      <trkpt lat="45.30112691223621368408203125" lon="-70.8607473783195018768310546875">
        <ele>1082.5999755859375</ele>
        <time>2026-08-21T14:38:05.000Z</time>
        <extensions>
          <ns3:TrackPointExtension>
            <ns3:hr>156</ns3:hr>
            <ns3:cad>0</ns3:cad>
          </ns3:TrackPointExtension>
        </extensions>
      </trkpt>
      <trkpt lat="45.30112179927527904510498046875" lon="-70.86075567640364170074462890625">
        <ele>1082.800048828125</ele>
        <time>2026-08-21T14:38:06.000Z</time>
        <extensions>
          <ns3:TrackPointExtension>
            <ns3:hr>156</ns3:hr>
            <ns3:cad>46</ns3:cad>
          </ns3:TrackPointExtension>
        </extensions>
      </trkpt>
      <trkpt lat="45.30111425556242465972900390625" lon="-70.860763974487781524658203125">
        <ele>1083</ele>
        <time>2026-08-21T14:38:07.000Z</time>
        <extensions>
          <ns3:TrackPointExtension>
            <ns3:hr>156</ns3:hr>
            <ns3:cad>46</ns3:cad>
          </ns3:TrackPointExtension>
        </extensions>
      </trkpt>
      <trkpt lat="45.3011066280305385589599609375" lon="-70.8607752062380313873291015625">
        <ele>1083</ele>
        <time>2026-08-21T14:38:08.000Z</time>
        <extensions>
          <ns3:TrackPointExtension>
            <ns3:hr>156</ns3:hr>
            <ns3:cad>46</ns3:cad>
          </ns3:TrackPointExtension>
        </extensions>
      </trkpt>
      <trkpt lat="45.30109732411801815032958984375" lon="-70.86078769527375698089599609375">
        <ele>1083.199951171875</ele>
        <time>2026-08-21T14:38:09.000Z</time>
        <extensions>
          <ns3:TrackPointExtension>
            <ns3:hr>156</ns3:hr>
            <ns3:cad>46</ns3:cad>
          </ns3:TrackPointExtension>
        </extensions>
      </trkpt>
      <trkpt lat="45.30109011568129062652587890625" lon="-70.86079842410981655120849609375">
        <ele>1083.4000244140625</ele>
        <time>2026-08-21T14:38:10.000Z</time>
        <extensions>
          <ns3:TrackPointExtension>
            <ns3:hr>155</ns3:hr>
            <ns3:cad>46</ns3:cad>
          </ns3:TrackPointExtension>
        </extensions>
      </trkpt>
      <trkpt lat="45.3010861761868000030517578125" lon="-70.86081485264003276824951171875">
        <ele>1083.5999755859375</ele>
        <time>2026-08-21T14:38:11.000Z</time>
        <extensions>
          <ns3:TrackPointExtension>
            <ns3:hr>155</ns3:hr>
            <ns3:cad>47</ns3:cad>
          </ns3:TrackPointExtension>
        </extensions>
      </trkpt>
      <trkpt lat="45.30108659528195858001708984375" lon="-70.86083144880831241607666015625">
        <ele>1083.800048828125</ele>
        <time>2026-08-21T14:38:12.000Z</time>
        <extensions>
          <ns3:TrackPointExtension>
            <ns3:hr>154</ns3:hr>
            <ns3:cad>47</ns3:cad>
          </ns3:TrackPointExtension>
        </extensions>
      </trkpt>
      <trkpt lat="45.30108265578746795654296875" lon="-70.86084569804370403289794921875">
        <ele>1084</ele>
        <time>2026-08-21T14:38:13.000Z</time>
        <extensions>
          <ns3:TrackPointExtension>
            <ns3:hr>154</ns3:hr>
            <ns3:cad>47</ns3:cad>
          </ns3:TrackPointExtension>
        </extensions>
      </trkpt>
      <trkpt lat="45.30108131468296051025390625" lon="-70.86085550487041473388671875">
        <ele>1084.199951171875</ele>
        <time>2026-08-21T14:38:14.000Z</time>
        <extensions>
          <ns3:TrackPointExtension>
            <ns3:hr>155</ns3:hr>
            <ns3:cad>47</ns3:cad>
          </ns3:TrackPointExtension>
        </extensions>
      </trkpt>
      <trkpt lat="45.30108290724456310272216796875" lon="-70.86086933501064777374267578125">
        <ele>1084.4000244140625</ele>
        <time>2026-08-21T14:38:15.000Z</time>
        <extensions>
          <ns3:TrackPointExtension>
            <ns3:hr>155</ns3:hr>
            <ns3:cad>47</ns3:cad>
          </ns3:TrackPointExtension>
        </extensions>
      </trkpt>
      <trkpt lat="45.30108676292002201080322265625" lon="-70.86088526062667369842529296875">
        <ele>1084.4000244140625</ele>
        <time>2026-08-21T14:38:16.000Z</time>
        <extensions>
          <ns3:TrackPointExtension>
            <ns3:hr>155</ns3:hr>
            <ns3:cad>47</ns3:cad>
          </ns3:TrackPointExtension>
        </extensions>
      </trkpt>
      <trkpt lat="45.301099084317684173583984375" lon="-70.8609009347856044769287109375">
        <ele>1084.800048828125</ele>
        <time>2026-08-21T14:38:17.000Z</time>
        <extensions>
          <ns3:TrackPointExtension>
            <ns3:hr>155</ns3:hr>
            <ns3:cad>47</ns3:cad>
          </ns3:TrackPointExtension>
        </extensions>
      </trkpt>
      <trkpt lat="45.301101766526699066162109375" lon="-70.8609069697558879852294921875">
        <ele>1084.800048828125</ele>
        <time>2026-08-21T14:38:18.000Z</time>
        <extensions>
          <ns3:TrackPointExtension>
            <ns3:hr>155</ns3:hr>
            <ns3:cad>43</ns3:cad>
          </ns3:TrackPointExtension>
        </extensions>
      </trkpt>
      <trkpt lat="45.30110503546893596649169921875" lon="-70.86091878823935985565185546875">
        <ele>1085</ele>
        <time>2026-08-21T14:38:19.000Z</time>
        <extensions>
          <ns3:TrackPointExtension>
            <ns3:hr>156</ns3:hr>
            <ns3:cad>43</ns3:cad>
          </ns3:TrackPointExtension>
        </extensions>
      </trkpt>
      <trkpt lat="45.30110771767795085906982421875" lon="-70.86092968471348285675048828125">
        <ele>1085.199951171875</ele>
        <time>2026-08-21T14:38:20.000Z</time>
        <extensions>
          <ns3:TrackPointExtension>
            <ns3:hr>156</ns3:hr>
            <ns3:cad>0</ns3:cad>
          </ns3:TrackPointExtension>
        </extensions>
      </trkpt>
      <trkpt lat="45.30111241154372692108154296875" lon="-70.86093639023602008819580078125">
        <ele>1085.4000244140625</ele>
        <time>2026-08-21T14:38:21.000Z</time>
        <extensions>
          <ns3:TrackPointExtension>
            <ns3:hr>156</ns3:hr>
            <ns3:cad>0</ns3:cad>
          </ns3:TrackPointExtension>
        </extensions>
      </trkpt>
      <trkpt lat="45.3011163510382175445556640625" lon="-70.86093521676957607269287109375">
        <ele>1085.5999755859375</ele>
        <time>2026-08-21T14:38:22.000Z</time>
        <extensions>
          <ns3:TrackPointExtension>
            <ns3:hr>156</ns3:hr>
            <ns3:cad>0</ns3:cad>
          </ns3:TrackPointExtension>
        </extensions>
      </trkpt>
      <trkpt lat="45.3011262416839599609375" lon="-70.8609398268163204193115234375">
        <ele>1085.800048828125</ele>
        <time>2026-08-21T14:38:23.000Z</time>
        <extensions>
          <ns3:TrackPointExtension>
            <ns3:hr>155</ns3:hr>
            <ns3:cad>0</ns3:cad>
          </ns3:TrackPointExtension>
        </extensions>
      </trkpt>
      <trkpt lat="45.30113219283521175384521484375" lon="-70.8609485439956188201904296875">
        <ele>1086</ele>
        <time>2026-08-21T14:38:24.000Z</time>
        <extensions>
          <ns3:TrackPointExtension>
            <ns3:hr>152</ns3:hr>
            <ns3:cad>0</ns3:cad>
          </ns3:TrackPointExtension>
        </extensions>
      </trkpt>
      <trkpt lat="45.30113495886325836181640625" lon="-70.8609621226787567138671875">
        <ele>1086.199951171875</ele>
        <time>2026-08-21T14:38:25.000Z</time>
        <extensions>
          <ns3:TrackPointExtension>
            <ns3:hr>151</ns3:hr>
            <ns3:cad>77</ns3:cad>
          </ns3:TrackPointExtension>
        </extensions>
      </trkpt>
      <trkpt lat="45.30113956891000270843505859375" lon="-70.86097461171448230743408203125">
        <ele>1086.4000244140625</ele>
        <time>2026-08-21T14:38:26.000Z</time>
        <extensions>
          <ns3:TrackPointExtension>
            <ns3:hr>151</ns3:hr>
            <ns3:cad>77</ns3:cad>
          </ns3:TrackPointExtension>
        </extensions>
      </trkpt>
      <trkpt lat="45.30114292167127132415771484375" lon="-70.86098316125571727752685546875">
        <ele>1086.5999755859375</ele>
        <time>2026-08-21T14:38:27.000Z</time>
        <extensions>
          <ns3:TrackPointExtension>
            <ns3:hr>151</ns3:hr>
            <ns3:cad>77</ns3:cad>
          </ns3:TrackPointExtension>
        </extensions>
      </trkpt>
      <trkpt lat="45.30114434659481048583984375" lon="-70.86099288426339626312255859375">
        <ele>1086.800048828125</ele>
        <time>2026-08-21T14:38:28.000Z</time>
        <extensions>
          <ns3:TrackPointExtension>
            <ns3:hr>150</ns3:hr>
            <ns3:cad>77</ns3:cad>
          </ns3:TrackPointExtension>
        </extensions>
      </trkpt>
      <trkpt lat="45.30114375986158847808837890625" lon="-70.8609991706907749176025390625">
        <ele>1087</ele>
        <time>2026-08-21T14:38:29.000Z</time>
        <extensions>
          <ns3:TrackPointExtension>
            <ns3:hr>151</ns3:hr>
            <ns3:cad>77</ns3:cad>
          </ns3:TrackPointExtension>
        </extensions>
      </trkpt>
      <trkpt lat="45.30114375986158847808837890625" lon="-70.86100176908075809478759765625">
        <ele>1087.199951171875</ele>
        <time>2026-08-21T14:38:30.000Z</time>
        <extensions>
          <ns3:TrackPointExtension>
            <ns3:hr>151</ns3:hr>
            <ns3:cad>77</ns3:cad>
          </ns3:TrackPointExtension>
        </extensions>
      </trkpt>
      <trkpt lat="45.3011414967477321624755859375" lon="-70.86101182736456394195556640625">
        <ele>1087.4000244140625</ele>
        <time>2026-08-21T14:38:31.000Z</time>
        <extensions>
          <ns3:TrackPointExtension>
            <ns3:hr>152</ns3:hr>
            <ns3:cad>77</ns3:cad>
          </ns3:TrackPointExtension>
        </extensions>
      </trkpt>
      <trkpt lat="45.30114124529063701629638671875" lon="-70.86102071218192577362060546875">
        <ele>1087.800048828125</ele>
        <time>2026-08-21T14:38:32.000Z</time>
        <extensions>
          <ns3:TrackPointExtension>
            <ns3:hr>151</ns3:hr>
            <ns3:cad>77</ns3:cad>
          </ns3:TrackPointExtension>
        </extensions>
      </trkpt>
      <trkpt lat="45.30114233493804931640625" lon="-70.86103948764503002166748046875">
        <ele>1088</ele>
        <time>2026-08-21T14:38:33.000Z</time>
        <extensions>
          <ns3:TrackPointExtension>
            <ns3:hr>152</ns3:hr>
            <ns3:cad>77</ns3:cad>
          </ns3:TrackPointExtension>
        </extensions>
      </trkpt>
      <trkpt lat="45.3011468611657619476318359375" lon="-70.86104736663401126861572265625">
        <ele>1088.199951171875</ele>
        <time>2026-08-21T14:38:34.000Z</time>
        <extensions>
          <ns3:TrackPointExtension>
            <ns3:hr>152</ns3:hr>
            <ns3:cad>77</ns3:cad>
          </ns3:TrackPointExtension>
        </extensions>
      </trkpt>
      <trkpt lat="45.30115515924990177154541015625" lon="-70.8610548265278339385986328125">
        <ele>1088.4000244140625</ele>
        <time>2026-08-21T14:38:35.000Z</time>
        <extensions>
          <ns3:TrackPointExtension>
            <ns3:hr>152</ns3:hr>
            <ns3:cad>0</ns3:cad>
          </ns3:TrackPointExtension>
        </extensions>
      </trkpt>
      <trkpt lat="45.3011597692966461181640625" lon="-70.86106069386005401611328125">
        <ele>1088.5999755859375</ele>
        <time>2026-08-21T14:38:36.000Z</time>
        <extensions>
          <ns3:TrackPointExtension>
            <ns3:hr>152</ns3:hr>
            <ns3:cad>0</ns3:cad>
          </ns3:TrackPointExtension>
        </extensions>
      </trkpt>
      <trkpt lat="45.301166139543056488037109375" lon="-70.86107502691447734832763671875">
        <ele>1088.800048828125</ele>
        <time>2026-08-21T14:38:37.000Z</time>
        <extensions>
          <ns3:TrackPointExtension>
            <ns3:hr>152</ns3:hr>
            <ns3:cad>0</ns3:cad>
          </ns3:TrackPointExtension>
        </extensions>
      </trkpt>
      <trkpt lat="45.30117116868495941162109375" lon="-70.86108592338860034942626953125">
        <ele>1089</ele>
        <time>2026-08-21T14:38:38.000Z</time>
        <extensions>
          <ns3:TrackPointExtension>
            <ns3:hr>152</ns3:hr>
            <ns3:cad>0</ns3:cad>
          </ns3:TrackPointExtension>
        </extensions>
      </trkpt>
      <trkpt lat="45.30117644928395748138427734375" lon="-70.86109782569110393524169921875">
        <ele>1089.199951171875</ele>
        <time>2026-08-21T14:38:39.000Z</time>
        <extensions>
          <ns3:TrackPointExtension>
            <ns3:hr>152</ns3:hr>
            <ns3:cad>0</ns3:cad>
          </ns3:TrackPointExtension>
        </extensions>
      </trkpt>
      <trkpt lat="45.3011820651590824127197265625" lon="-70.86110989563167095184326171875">
        <ele>1089.4000244140625</ele>
        <time>2026-08-21T14:38:40.000Z</time>
        <extensions>
          <ns3:TrackPointExtension>
            <ns3:hr>152</ns3:hr>
            <ns3:cad>46</ns3:cad>
          </ns3:TrackPointExtension>
        </extensions>
      </trkpt>
      <trkpt lat="45.30118684284389019012451171875" lon="-70.86112263612449169158935546875">
        <ele>1089.5999755859375</ele>
        <time>2026-08-21T14:38:41.000Z</time>
        <extensions>
          <ns3:TrackPointExtension>
            <ns3:hr>152</ns3:hr>
            <ns3:cad>46</ns3:cad>
          </ns3:TrackPointExtension>
        </extensions>
      </trkpt>
      <trkpt lat="45.30118751339614391326904296875" lon="-70.86113537661731243133544921875">
        <ele>1089.800048828125</ele>
        <time>2026-08-21T14:38:42.000Z</time>
        <extensions>
          <ns3:TrackPointExtension>
            <ns3:hr>151</ns3:hr>
            <ns3:cad>46</ns3:cad>
          </ns3:TrackPointExtension>
        </extensions>
      </trkpt>
      <trkpt lat="45.30118902213871479034423828125" lon="-70.86115079931914806365966796875">
        <ele>1090</ele>
        <time>2026-08-21T14:38:43.000Z</time>
        <extensions>
          <ns3:TrackPointExtension>
            <ns3:hr>152</ns3:hr>
            <ns3:cad>46</ns3:cad>
          </ns3:TrackPointExtension>
        </extensions>
      </trkpt>
      <trkpt lat="45.30119103379547595977783203125" lon="-70.8611634559929370880126953125">
        <ele>1090.199951171875</ele>
        <time>2026-08-21T14:38:44.000Z</time>
        <extensions>
          <ns3:TrackPointExtension>
            <ns3:hr>152</ns3:hr>
            <ns3:cad>46</ns3:cad>
          </ns3:TrackPointExtension>
        </extensions>
      </trkpt>
      <trkpt lat="45.30119924806058406829833984375" lon="-70.8611718378961086273193359375">
        <ele>1090.4000244140625</ele>
        <time>2026-08-21T14:38:45.000Z</time>
        <extensions>
          <ns3:TrackPointExtension>
            <ns3:hr>152</ns3:hr>
            <ns3:cad>45</ns3:cad>
          </ns3:TrackPointExtension>
        </extensions>
      </trkpt>
      <trkpt lat="45.30120226554572582244873046875" lon="-70.86117695085704326629638671875">
        <ele>1090.5999755859375</ele>
        <time>2026-08-21T14:38:46.000Z</time>
        <extensions>
          <ns3:TrackPointExtension>
            <ns3:hr>152</ns3:hr>
            <ns3:cad>45</ns3:cad>
          </ns3:TrackPointExtension>
        </extensions>
      </trkpt>
      <trkpt lat="45.3012068755924701690673828125" lon="-70.86118734441697597503662109375">
        <ele>1090.800048828125</ele>
        <time>2026-08-21T14:38:47.000Z</time>
        <extensions>
          <ns3:TrackPointExtension>
            <ns3:hr>152</ns3:hr>
            <ns3:cad>45</ns3:cad>
          </ns3:TrackPointExtension>
        </extensions>
      </trkpt>
      <trkpt lat="45.301210395991802215576171875" lon="-70.8611976541578769683837890625">
        <ele>1091</ele>
        <time>2026-08-21T14:38:48.000Z</time>
        <extensions>
          <ns3:TrackPointExtension>
            <ns3:hr>152</ns3:hr>
            <ns3:cad>45</ns3:cad>
          </ns3:TrackPointExtension>
        </extensions>
      </trkpt>
      <trkpt lat="45.30121198855340480804443359375" lon="-70.8612088859081268310546875">
        <ele>1091.199951171875</ele>
        <time>2026-08-21T14:38:49.000Z</time>
        <extensions>
          <ns3:TrackPointExtension>
            <ns3:hr>152</ns3:hr>
            <ns3:cad>43</ns3:cad>
          </ns3:TrackPointExtension>
        </extensions>
      </trkpt>
      <trkpt lat="45.301211737096309661865234375" lon="-70.861219950020313262939453125">
        <ele>1091.199951171875</ele>
        <time>2026-08-21T14:38:50.000Z</time>
        <extensions>
          <ns3:TrackPointExtension>
            <ns3:hr>152</ns3:hr>
            <ns3:cad>42</ns3:cad>
          </ns3:TrackPointExtension>
        </extensions>
      </trkpt>
      <trkpt lat="45.301221795380115509033203125" lon="-70.86124132387340068817138671875">
        <ele>1091.4000244140625</ele>
        <time>2026-08-21T14:38:51.000Z</time>
        <extensions>
          <ns3:TrackPointExtension>
            <ns3:hr>152</ns3:hr>
            <ns3:cad>42</ns3:cad>
          </ns3:TrackPointExtension>
        </extensions>
      </trkpt>
      <trkpt lat="45.30122523196041584014892578125" lon="-70.861251465976238250732421875">
        <ele>1091.5999755859375</ele>
        <time>2026-08-21T14:38:52.000Z</time>
        <extensions>
          <ns3:TrackPointExtension>
            <ns3:hr>152</ns3:hr>
            <ns3:cad>42</ns3:cad>
          </ns3:TrackPointExtension>
        </extensions>
      </trkpt>
      <trkpt lat="45.30122975818812847137451171875" lon="-70.8612566627562046051025390625">
        <ele>1092</ele>
        <time>2026-08-21T14:38:53.000Z</time>
        <extensions>
          <ns3:TrackPointExtension>
            <ns3:hr>152</ns3:hr>
            <ns3:cad>42</ns3:cad>
          </ns3:TrackPointExtension>
        </extensions>
      </trkpt>
      <trkpt lat="45.30123746953904628753662109375" lon="-70.86126898415386676788330078125">
        <ele>1092.199951171875</ele>
        <time>2026-08-21T14:38:54.000Z</time>
        <extensions>
          <ns3:TrackPointExtension>
            <ns3:hr>152</ns3:hr>
            <ns3:cad>42</ns3:cad>
          </ns3:TrackPointExtension>
        </extensions>
      </trkpt>
      <trkpt lat="45.30124216340482234954833984375" lon="-70.86127753369510173797607421875">
        <ele>1092.4000244140625</ele>
        <time>2026-08-21T14:38:55.000Z</time>
        <extensions>
          <ns3:TrackPointExtension>
            <ns3:hr>152</ns3:hr>
            <ns3:cad>45</ns3:cad>
          </ns3:TrackPointExtension>
        </extensions>
      </trkpt>
      <trkpt lat="45.30124803073704242706298828125" lon="-70.8612841553986072540283203125">
        <ele>1092.5999755859375</ele>
        <time>2026-08-21T14:38:56.000Z</time>
        <extensions>
          <ns3:TrackPointExtension>
            <ns3:hr>153</ns3:hr>
            <ns3:cad>45</ns3:cad>
          </ns3:TrackPointExtension>
        </extensions>
      </trkpt>
      <trkpt lat="45.3012588433921337127685546875" lon="-70.8612935431301593780517578125">
        <ele>1092.800048828125</ele>
        <time>2026-08-21T14:38:57.000Z</time>
        <extensions>
          <ns3:TrackPointExtension>
            <ns3:hr>153</ns3:hr>
            <ns3:cad>45</ns3:cad>
          </ns3:TrackPointExtension>
        </extensions>
      </trkpt>
      <trkpt lat="45.30126781202852725982666015625" lon="-70.86129982955753803253173828125">
        <ele>1092.800048828125</ele>
        <time>2026-08-21T14:38:58.000Z</time>
        <extensions>
          <ns3:TrackPointExtension>
            <ns3:hr>153</ns3:hr>
            <ns3:cad>45</ns3:cad>
          </ns3:TrackPointExtension>
        </extensions>
      </trkpt>
      <trkpt lat="45.301273427903652191162109375" lon="-70.86130603216588497161865234375">
        <ele>1093</ele>
        <time>2026-08-21T14:38:59.000Z</time>
        <extensions>
          <ns3:TrackPointExtension>
            <ns3:hr>152</ns3:hr>
            <ns3:cad>45</ns3:cad>
          </ns3:TrackPointExtension>
        </extensions>
      </trkpt>
      <trkpt lat="45.30127418227493762969970703125" lon="-70.86131122894585132598876953125">
        <ele>1093</ele>
        <time>2026-08-21T14:39:00.000Z</time>
        <extensions>
          <ns3:TrackPointExtension>
            <ns3:hr>152</ns3:hr>
            <ns3:cad>45</ns3:cad>
          </ns3:TrackPointExtension>
        </extensions>
      </trkpt>
      <trkpt lat="45.301273427903652191162109375" lon="-70.86131877265870571136474609375">
        <ele>1093.199951171875</ele>
        <time>2026-08-21T14:39:01.000Z</time>
        <extensions>
          <ns3:TrackPointExtension>
            <ns3:hr>152</ns3:hr>
            <ns3:cad>44</ns3:cad>
          </ns3:TrackPointExtension>
        </extensions>
      </trkpt>
      <trkpt lat="45.30127937905490398406982421875" lon="-70.8613270707428455352783203125">
        <ele>1093.4000244140625</ele>
        <time>2026-08-21T14:39:02.000Z</time>
        <extensions>
          <ns3:TrackPointExtension>
            <ns3:hr>152</ns3:hr>
            <ns3:cad>44</ns3:cad>
          </ns3:TrackPointExtension>
        </extensions>
      </trkpt>
      <trkpt lat="45.3012803010642528533935546875" lon="-70.861330926418304443359375">
        <ele>1093.5999755859375</ele>
        <time>2026-08-21T14:39:03.000Z</time>
        <extensions>
          <ns3:TrackPointExtension>
            <ns3:hr>152</ns3:hr>
            <ns3:cad>44</ns3:cad>
          </ns3:TrackPointExtension>
        </extensions>
      </trkpt>
      <trkpt lat="45.30128172598779201507568359375" lon="-70.86133955977857112884521484375">
        <ele>1093.5999755859375</ele>
        <time>2026-08-21T14:39:04.000Z</time>
        <extensions>
          <ns3:TrackPointExtension>
            <ns3:hr>153</ns3:hr>
            <ns3:cad>46</ns3:cad>
          </ns3:TrackPointExtension>
        </extensions>
      </trkpt>
      <trkpt lat="45.3012833185493946075439453125" lon="-70.86134903132915496826171875">
        <ele>1093.800048828125</ele>
        <time>2026-08-21T14:39:05.000Z</time>
        <extensions>
          <ns3:TrackPointExtension>
            <ns3:hr>156</ns3:hr>
            <ns3:cad>46</ns3:cad>
          </ns3:TrackPointExtension>
        </extensions>
      </trkpt>
      <trkpt lat="45.30128893442451953887939453125" lon="-70.86135716177523136138916015625">
        <ele>1094</ele>
        <time>2026-08-21T14:39:06.000Z</time>
        <extensions>
          <ns3:TrackPointExtension>
            <ns3:hr>156</ns3:hr>
            <ns3:cad>46</ns3:cad>
          </ns3:TrackPointExtension>
        </extensions>
      </trkpt>
      <trkpt lat="45.30129446648061275482177734375" lon="-70.8613719977438449859619140625">
        <ele>1094.199951171875</ele>
        <time>2026-08-21T14:39:07.000Z</time>
        <extensions>
          <ns3:TrackPointExtension>
            <ns3:hr>157</ns3:hr>
            <ns3:cad>46</ns3:cad>
          </ns3:TrackPointExtension>
        </extensions>
      </trkpt>
      <trkpt lat="45.30129781924188137054443359375" lon="-70.86138180457055568695068359375">
        <ele>1094.5999755859375</ele>
        <time>2026-08-21T14:39:08.000Z</time>
        <extensions>
          <ns3:TrackPointExtension>
            <ns3:hr>158</ns3:hr>
            <ns3:cad>46</ns3:cad>
          </ns3:TrackPointExtension>
        </extensions>
      </trkpt>
      <trkpt lat="45.30130569823086261749267578125" lon="-70.86138884536921977996826171875">
        <ele>1094.800048828125</ele>
        <time>2026-08-21T14:39:09.000Z</time>
        <extensions>
          <ns3:TrackPointExtension>
            <ns3:hr>159</ns3:hr>
            <ns3:cad>46</ns3:cad>
          </ns3:TrackPointExtension>
        </extensions>
      </trkpt>
      <trkpt lat="45.30131592415273189544677734375" lon="-70.861396305263042449951171875">
        <ele>1095</ele>
        <time>2026-08-21T14:39:10.000Z</time>
        <extensions>
          <ns3:TrackPointExtension>
            <ns3:hr>159</ns3:hr>
            <ns3:cad>46</ns3:cad>
          </ns3:TrackPointExtension>
        </extensions>
      </trkpt>
      <trkpt lat="45.3013255633413791656494140625" lon="-70.86140024475753307342529296875">
        <ele>1095</ele>
        <time>2026-08-21T14:39:11.000Z</time>
        <extensions>
          <ns3:TrackPointExtension>
            <ns3:hr>157</ns3:hr>
            <ns3:cad>46</ns3:cad>
          </ns3:TrackPointExtension>
        </extensions>
      </trkpt>
      <trkpt lat="45.30133553780615329742431640625" lon="-70.8614065311849117279052734375">
        <ele>1095</ele>
        <time>2026-08-21T14:39:12.000Z</time>
        <extensions>
          <ns3:TrackPointExtension>
            <ns3:hr>153</ns3:hr>
            <ns3:cad>46</ns3:cad>
          </ns3:TrackPointExtension>
        </extensions>
      </trkpt>
      <trkpt lat="45.3013423271477222442626953125" lon="-70.8614154160022735595703125">
        <ele>1095</ele>
        <time>2026-08-21T14:39:13.000Z</time>
        <extensions>
          <ns3:TrackPointExtension>
            <ns3:hr>152</ns3:hr>
            <ns3:cad>46</ns3:cad>
          </ns3:TrackPointExtension>
        </extensions>
      </trkpt>
      <trkpt lat="45.30134811066091060638427734375" lon="-70.86142949759960174560546875">
        <ele>1095</ele>
        <time>2026-08-21T14:39:14.000Z</time>
        <extensions>
          <ns3:TrackPointExtension>
            <ns3:hr>153</ns3:hr>
            <ns3:cad>46</ns3:cad>
          </ns3:TrackPointExtension>
        </extensions>
      </trkpt>
      <trkpt lat="45.301348529756069183349609375" lon="-70.8614383824169635772705078125">
        <ele>1095</ele>
        <time>2026-08-21T14:39:15.000Z</time>
        <extensions>
          <ns3:TrackPointExtension>
            <ns3:hr>153</ns3:hr>
            <ns3:cad>46</ns3:cad>
          </ns3:TrackPointExtension>
        </extensions>
      </trkpt>
      <trkpt lat="45.301345847547054290771484375" lon="-70.86144450120627880096435546875">
        <ele>1095</ele>
        <time>2026-08-21T14:39:16.000Z</time>
        <extensions>
          <ns3:TrackPointExtension>
            <ns3:hr>152</ns3:hr>
            <ns3:cad>46</ns3:cad>
          </ns3:TrackPointExtension>
        </extensions>
      </trkpt>
      <trkpt lat="45.30134417116641998291015625" lon="-70.8614427410066127777099609375">
        <ele>1095.199951171875</ele>
        <time>2026-08-21T14:39:17.000Z</time>
        <extensions>
          <ns3:TrackPointExtension>
            <ns3:hr>152</ns3:hr>
            <ns3:cad>46</ns3:cad>
          </ns3:TrackPointExtension>
        </extensions>
      </trkpt>
      <trkpt lat="45.3013389743864536285400390625" lon="-70.86144969798624515533447265625">
        <ele>1095.4000244140625</ele>
        <time>2026-08-21T14:39:18.000Z</time>
        <extensions>
          <ns3:TrackPointExtension>
            <ns3:hr>152</ns3:hr>
            <ns3:cad>46</ns3:cad>
          </ns3:TrackPointExtension>
        </extensions>
      </trkpt>
      <trkpt lat="45.30133553780615329742431640625" lon="-70.861451290547847747802734375">
        <ele>1095.5999755859375</ele>
        <time>2026-08-21T14:39:19.000Z</time>
        <extensions>
          <ns3:TrackPointExtension>
            <ns3:hr>152</ns3:hr>
            <ns3:cad>46</ns3:cad>
          </ns3:TrackPointExtension>
        </extensions>
      </trkpt>
      <trkpt lat="45.30133184976875782012939453125" lon="-70.86145841516554355621337890625">
        <ele>1095.800048828125</ele>
        <time>2026-08-21T14:39:20.000Z</time>
        <extensions>
          <ns3:TrackPointExtension>
            <ns3:hr>152</ns3:hr>
            <ns3:cad>46</ns3:cad>
          </ns3:TrackPointExtension>
        </extensions>
      </trkpt>
      <trkpt lat="45.30132648535072803497314453125" lon="-70.86146704852581024169921875">
        <ele>1096.199951171875</ele>
        <time>2026-08-21T14:39:21.000Z</time>
        <extensions>
          <ns3:TrackPointExtension>
            <ns3:hr>153</ns3:hr>
            <ns3:cad>46</ns3:cad>
          </ns3:TrackPointExtension>
        </extensions>
      </trkpt>
      <trkpt lat="45.30132145620882511138916015625" lon="-70.8614771068096160888671875">
        <ele>1096.4000244140625</ele>
        <time>2026-08-21T14:39:22.000Z</time>
        <extensions>
          <ns3:TrackPointExtension>
            <ns3:hr>152</ns3:hr>
            <ns3:cad>46</ns3:cad>
          </ns3:TrackPointExtension>
        </extensions>
      </trkpt>
      <trkpt lat="45.30132011510431766510009765625" lon="-70.861486494541168212890625">
        <ele>1096.5999755859375</ele>
        <time>2026-08-21T14:39:23.000Z</time>
        <extensions>
          <ns3:TrackPointExtension>
            <ns3:hr>152</ns3:hr>
            <ns3:cad>46</ns3:cad>
          </ns3:TrackPointExtension>
        </extensions>
      </trkpt>
      <trkpt lat="45.30131726525723934173583984375" lon="-70.86149143986403942108154296875">
        <ele>1096.800048828125</ele>
        <time>2026-08-21T14:39:24.000Z</time>
        <extensions>
          <ns3:TrackPointExtension>
            <ns3:hr>152</ns3:hr>
            <ns3:cad>44</ns3:cad>
          </ns3:TrackPointExtension>
        </extensions>
      </trkpt>
      <trkpt lat="45.30131055973470211029052734375" lon="-70.86149646900594234466552734375">
        <ele>1097</ele>
        <time>2026-08-21T14:39:25.000Z</time>
        <extensions>
          <ns3:TrackPointExtension>
            <ns3:hr>152</ns3:hr>
            <ns3:cad>44</ns3:cad>
          </ns3:TrackPointExtension>
        </extensions>
      </trkpt>
      <trkpt lat="45.3013064526021480560302734375" lon="-70.86149915121495723724365234375">
        <ele>1097.4000244140625</ele>
        <time>2026-08-21T14:39:26.000Z</time>
        <extensions>
          <ns3:TrackPointExtension>
            <ns3:hr>152</ns3:hr>
            <ns3:cad>45</ns3:cad>
          </ns3:TrackPointExtension>
        </extensions>
      </trkpt>
      <trkpt lat="45.301302932202816009521484375" lon="-70.8615087904036045074462890625">
        <ele>1097.5999755859375</ele>
        <time>2026-08-21T14:39:27.000Z</time>
        <extensions>
          <ns3:TrackPointExtension>
            <ns3:hr>152</ns3:hr>
            <ns3:cad>45</ns3:cad>
          </ns3:TrackPointExtension>
        </extensions>
      </trkpt>
      <trkpt lat="45.30129513703286647796630859375" lon="-70.8615165017545223236083984375">
        <ele>1097.800048828125</ele>
        <time>2026-08-21T14:39:28.000Z</time>
        <extensions>
          <ns3:TrackPointExtension>
            <ns3:hr>152</ns3:hr>
            <ns3:cad>45</ns3:cad>
          </ns3:TrackPointExtension>
        </extensions>
      </trkpt>
      <trkpt lat="45.3012893535196781158447265625" lon="-70.86152178235352039337158203125">
        <ele>1098</ele>
        <time>2026-08-21T14:39:29.000Z</time>
        <extensions>
          <ns3:TrackPointExtension>
            <ns3:hr>152</ns3:hr>
            <ns3:cad>49</ns3:cad>
          </ns3:TrackPointExtension>
        </extensions>
      </trkpt>
      <trkpt lat="45.3012809716165065765380859375" lon="-70.8615248836576938629150390625">
        <ele>1098</ele>
        <time>2026-08-21T14:39:30.000Z</time>
        <extensions>
          <ns3:TrackPointExtension>
            <ns3:hr>152</ns3:hr>
            <ns3:cad>50</ns3:cad>
          </ns3:TrackPointExtension>
        </extensions>
      </trkpt>
      <trkpt lat="45.3012699075043201446533203125" lon="-70.861531756818294525146484375">
        <ele>1098.199951171875</ele>
        <time>2026-08-21T14:39:31.000Z</time>
        <extensions>
          <ns3:TrackPointExtension>
            <ns3:hr>151</ns3:hr>
            <ns3:cad>50</ns3:cad>
          </ns3:TrackPointExtension>
        </extensions>
      </trkpt>
      <trkpt lat="45.30126462690532207489013671875" lon="-70.8615409769117832183837890625">
        <ele>1098.4000244140625</ele>
        <time>2026-08-21T14:39:32.000Z</time>
        <extensions>
          <ns3:TrackPointExtension>
            <ns3:hr>151</ns3:hr>
            <ns3:cad>50</ns3:cad>
          </ns3:TrackPointExtension>
        </extensions>
      </trkpt>
      <trkpt lat="45.3012571670114994049072265625" lon="-70.86155128665268421173095703125">
        <ele>1098.4000244140625</ele>
        <time>2026-08-21T14:39:33.000Z</time>
        <extensions>
          <ns3:TrackPointExtension>
            <ns3:hr>150</ns3:hr>
            <ns3:cad>48</ns3:cad>
          </ns3:TrackPointExtension>
        </extensions>
      </trkpt>
      <trkpt lat="45.3012497909367084503173828125" lon="-70.861557237803936004638671875">
        <ele>1098.5999755859375</ele>
        <time>2026-08-21T14:39:34.000Z</time>
        <extensions>
          <ns3:TrackPointExtension>
            <ns3:hr>150</ns3:hr>
            <ns3:cad>48</ns3:cad>
          </ns3:TrackPointExtension>
        </extensions>
      </trkpt>
      <trkpt lat="45.30124224722385406494140625" lon="-70.86156704463064670562744140625">
        <ele>1099</ele>
        <time>2026-08-21T14:39:35.000Z</time>
        <extensions>
          <ns3:TrackPointExtension>
            <ns3:hr>151</ns3:hr>
            <ns3:cad>0</ns3:cad>
          </ns3:TrackPointExtension>
        </extensions>
      </trkpt>
      <trkpt lat="45.30123696662485599517822265625" lon="-70.861574672162532806396484375">
        <ele>1099.199951171875</ele>
        <time>2026-08-21T14:39:36.000Z</time>
        <extensions>
          <ns3:TrackPointExtension>
            <ns3:hr>151</ns3:hr>
            <ns3:cad>0</ns3:cad>
          </ns3:TrackPointExtension>
        </extensions>
      </trkpt>
      <trkpt lat="45.301225483417510986328125" lon="-70.86158380843698978424072265625">
        <ele>1099.5999755859375</ele>
        <time>2026-08-21T14:39:37.000Z</time>
        <extensions>
          <ns3:TrackPointExtension>
            <ns3:hr>150</ns3:hr>
            <ns3:cad>0</ns3:cad>
          </ns3:TrackPointExtension>
        </extensions>
      </trkpt>
      <trkpt lat="45.30121550895273685455322265625" lon="-70.86159436963498592376708984375">
        <ele>1099.800048828125</ele>
        <time>2026-08-21T14:39:38.000Z</time>
        <extensions>
          <ns3:TrackPointExtension>
            <ns3:hr>150</ns3:hr>
            <ns3:cad>49</ns3:cad>
          </ns3:TrackPointExtension>
        </extensions>
      </trkpt>
      <trkpt lat="45.3012058697640895843505859375" lon="-70.861605517566204071044921875">
        <ele>1099.800048828125</ele>
        <time>2026-08-21T14:39:39.000Z</time>
        <extensions>
          <ns3:TrackPointExtension>
            <ns3:hr>150</ns3:hr>
            <ns3:cad>49</ns3:cad>
          </ns3:TrackPointExtension>
        </extensions>
      </trkpt>
      <trkpt lat="45.30119958333671092987060546875" lon="-70.86161163635551929473876953125">
        <ele>1100</ele>
        <time>2026-08-21T14:39:40.000Z</time>
        <extensions>
          <ns3:TrackPointExtension>
            <ns3:hr>150</ns3:hr>
            <ns3:cad>49</ns3:cad>
          </ns3:TrackPointExtension>
        </extensions>
      </trkpt>
      <trkpt lat="45.30119371600449085235595703125" lon="-70.8616120554506778717041015625">
        <ele>1100.199951171875</ele>
        <time>2026-08-21T14:39:41.000Z</time>
        <extensions>
          <ns3:TrackPointExtension>
            <ns3:hr>150</ns3:hr>
            <ns3:cad>44</ns3:cad>
          </ns3:TrackPointExtension>
        </extensions>
      </trkpt>
      <trkpt lat="45.3011864237487316131591796875" lon="-70.86162337101995944976806640625">
        <ele>1100.199951171875</ele>
        <time>2026-08-21T14:39:42.000Z</time>
        <extensions>
          <ns3:TrackPointExtension>
            <ns3:hr>150</ns3:hr>
            <ns3:cad>44</ns3:cad>
          </ns3:TrackPointExtension>
        </extensions>
      </trkpt>
      <trkpt lat="45.3011793829500675201416015625" lon="-70.86163862608373165130615234375">
        <ele>1100.4000244140625</ele>
        <time>2026-08-21T14:39:43.000Z</time>
        <extensions>
          <ns3:TrackPointExtension>
            <ns3:hr>151</ns3:hr>
            <ns3:cad>44</ns3:cad>
          </ns3:TrackPointExtension>
        </extensions>
      </trkpt>
      <trkpt lat="45.3011696599423885345458984375" lon="-70.86165287531912326812744140625">
        <ele>1100.5999755859375</ele>
        <time>2026-08-21T14:39:44.000Z</time>
        <extensions>
          <ns3:TrackPointExtension>
            <ns3:hr>152</ns3:hr>
            <ns3:cad>44</ns3:cad>
          </ns3:TrackPointExtension>
        </extensions>
      </trkpt>
      <trkpt lat="45.3011612780392169952392578125" lon="-70.86166410706937313079833984375">
        <ele>1100.800048828125</ele>
        <time>2026-08-21T14:39:45.000Z</time>
        <extensions>
          <ns3:TrackPointExtension>
            <ns3:hr>152</ns3:hr>
            <ns3:cad>76</ns3:cad>
          </ns3:TrackPointExtension>
        </extensions>
      </trkpt>
      <trkpt lat="45.30115105211734771728515625" lon="-70.86168020032346248626708984375">
        <ele>1101</ele>
        <time>2026-08-21T14:39:46.000Z</time>
        <extensions>
          <ns3:TrackPointExtension>
            <ns3:hr>152</ns3:hr>
            <ns3:cad>76</ns3:cad>
          </ns3:TrackPointExtension>
        </extensions>
      </trkpt>
      <trkpt lat="45.3011528961360454559326171875" lon="-70.86169428192079067230224609375">
        <ele>1101.199951171875</ele>
        <time>2026-08-21T14:39:47.000Z</time>
        <extensions>
          <ns3:TrackPointExtension>
            <ns3:hr>152</ns3:hr>
            <ns3:cad>45</ns3:cad>
          </ns3:TrackPointExtension>
        </extensions>
      </trkpt>
      <trkpt lat="45.30116370879113674163818359375" lon="-70.8617019094526767730712890625">
        <ele>1101.4000244140625</ele>
        <time>2026-08-21T14:39:48.000Z</time>
        <extensions>
          <ns3:TrackPointExtension>
            <ns3:hr>152</ns3:hr>
            <ns3:cad>41</ns3:cad>
          </ns3:TrackPointExtension>
        </extensions>
      </trkpt>
      <trkpt lat="45.3011710010468959808349609375" lon="-70.8617099560797214508056640625">
        <ele>1101.5999755859375</ele>
        <time>2026-08-21T14:39:49.000Z</time>
        <extensions>
          <ns3:TrackPointExtension>
            <ns3:hr>152</ns3:hr>
            <ns3:cad>41</ns3:cad>
          </ns3:TrackPointExtension>
        </extensions>
      </trkpt>
      <trkpt lat="45.3011758625507354736328125" lon="-70.86171540431678295135498046875">
        <ele>1101.800048828125</ele>
        <time>2026-08-21T14:39:50.000Z</time>
        <extensions>
          <ns3:TrackPointExtension>
            <ns3:hr>152</ns3:hr>
            <ns3:cad>41</ns3:cad>
          </ns3:TrackPointExtension>
        </extensions>
      </trkpt>
      <trkpt lat="45.30117946676909923553466796875" lon="-70.86172445677220821380615234375">
        <ele>1102</ele>
        <time>2026-08-21T14:39:51.000Z</time>
        <extensions>
          <ns3:TrackPointExtension>
            <ns3:hr>152</ns3:hr>
            <ns3:cad>41</ns3:cad>
          </ns3:TrackPointExtension>
        </extensions>
      </trkpt>
      <trkpt lat="45.30118315480649471282958984375" lon="-70.8617250435054302215576171875">
        <ele>1102.199951171875</ele>
        <time>2026-08-21T14:39:52.000Z</time>
        <extensions>
          <ns3:TrackPointExtension>
            <ns3:hr>152</ns3:hr>
            <ns3:cad>0</ns3:cad>
          </ns3:TrackPointExtension>
        </extensions>
      </trkpt>
      <trkpt lat="45.30118986032903194427490234375" lon="-70.861729569733142852783203125">
        <ele>1102.4000244140625</ele>
        <time>2026-08-21T14:39:53.000Z</time>
        <extensions>
          <ns3:TrackPointExtension>
            <ns3:hr>152</ns3:hr>
            <ns3:cad>0</ns3:cad>
          </ns3:TrackPointExtension>
        </extensions>
      </trkpt>
      <trkpt lat="45.301196984946727752685546875" lon="-70.86173937655985355377197265625">
        <ele>1102.5999755859375</ele>
        <time>2026-08-21T14:39:54.000Z</time>
        <extensions>
          <ns3:TrackPointExtension>
            <ns3:hr>151</ns3:hr>
            <ns3:cad>0</ns3:cad>
          </ns3:TrackPointExtension>
        </extensions>
      </trkpt>
      <trkpt lat="45.30120578594505786895751953125" lon="-70.861749015748500823974609375">
        <ele>1102.800048828125</ele>
        <time>2026-08-21T14:39:55.000Z</time>
        <extensions>
          <ns3:TrackPointExtension>
            <ns3:hr>151</ns3:hr>
            <ns3:cad>46</ns3:cad>
          </ns3:TrackPointExtension>
        </extensions>
      </trkpt>
      <trkpt lat="45.30121517367660999298095703125" lon="-70.86175831966102123260498046875">
        <ele>1102.800048828125</ele>
        <time>2026-08-21T14:39:56.000Z</time>
        <extensions>
          <ns3:TrackPointExtension>
            <ns3:hr>152</ns3:hr>
            <ns3:cad>46</ns3:cad>
          </ns3:TrackPointExtension>
        </extensions>
      </trkpt>
      <trkpt lat="45.30121651478111743927001953125" lon="-70.86176686920225620269775390625">
        <ele>1103</ele>
        <time>2026-08-21T14:39:57.000Z</time>
        <extensions>
          <ns3:TrackPointExtension>
            <ns3:hr>152</ns3:hr>
            <ns3:cad>43</ns3:cad>
          </ns3:TrackPointExtension>
        </extensions>
      </trkpt>
      <trkpt lat="45.30121651478111743927001953125" lon="-70.86177273653447628021240234375">
        <ele>1103.199951171875</ele>
        <time>2026-08-21T14:39:58.000Z</time>
        <extensions>
          <ns3:TrackPointExtension>
            <ns3:hr>152</ns3:hr>
            <ns3:cad>43</ns3:cad>
          </ns3:TrackPointExtension>
        </extensions>
      </trkpt>
      <trkpt lat="45.30121752060949802398681640625" lon="-70.8617860637605190277099609375">
        <ele>1103.4000244140625</ele>
        <time>2026-08-21T14:39:59.000Z</time>
        <extensions>
          <ns3:TrackPointExtension>
            <ns3:hr>152</ns3:hr>
            <ns3:cad>43</ns3:cad>
          </ns3:TrackPointExtension>
        </extensions>
      </trkpt>
      <trkpt lat="45.30121835879981517791748046875" lon="-70.8617994748055934906005859375">
        <ele>1103.5999755859375</ele>
        <time>2026-08-21T14:40:00.000Z</time>
        <extensions>
          <ns3:TrackPointExtension>
            <ns3:hr>152</ns3:hr>
            <ns3:cad>45</ns3:cad>
          </ns3:TrackPointExtension>
        </extensions>
      </trkpt>
      <trkpt lat="45.30122422613203525543212890625" lon="-70.86181213147938251495361328125">
        <ele>1103.800048828125</ele>
        <time>2026-08-21T14:40:01.000Z</time>
        <extensions>
          <ns3:TrackPointExtension>
            <ns3:hr>152</ns3:hr>
            <ns3:cad>45</ns3:cad>
          </ns3:TrackPointExtension>
        </extensions>
      </trkpt>
      <trkpt lat="45.30123428441584110260009765625" lon="-70.86182671599090099334716796875">
        <ele>1104.199951171875</ele>
        <time>2026-08-21T14:40:02.000Z</time>
        <extensions>
          <ns3:TrackPointExtension>
            <ns3:hr>152</ns3:hr>
            <ns3:cad>44</ns3:cad>
          </ns3:TrackPointExtension>
        </extensions>
      </trkpt>
      <trkpt lat="45.30124316923320293426513671875" lon="-70.8618417195975780487060546875">
        <ele>1104.4000244140625</ele>
        <time>2026-08-21T14:40:03.000Z</time>
        <extensions>
          <ns3:TrackPointExtension>
            <ns3:hr>152</ns3:hr>
            <ns3:cad>42</ns3:cad>
          </ns3:TrackPointExtension>
        </extensions>
      </trkpt>
      <trkpt lat="45.3012501262128353118896484375" lon="-70.8618521131575107574462890625">
        <ele>1104.5999755859375</ele>
        <time>2026-08-21T14:40:04.000Z</time>
        <extensions>
          <ns3:TrackPointExtension>
            <ns3:hr>152</ns3:hr>
            <ns3:cad>42</ns3:cad>
          </ns3:TrackPointExtension>
        </extensions>
      </trkpt>
      <trkpt lat="45.30125356279313564300537109375" lon="-70.86186007596552371978759765625">
        <ele>1104.800048828125</ele>
        <time>2026-08-21T14:40:05.000Z</time>
        <extensions>
          <ns3:TrackPointExtension>
            <ns3:hr>152</ns3:hr>
            <ns3:cad>0</ns3:cad>
          </ns3:TrackPointExtension>
        </extensions>
      </trkpt>
      <trkpt lat="45.30125775374472141265869140625" lon="-70.8618735708296298980712890625">
        <ele>1105</ele>
        <time>2026-08-21T14:40:06.000Z</time>
        <extensions>
          <ns3:TrackPointExtension>
            <ns3:hr>152</ns3:hr>
            <ns3:cad>0</ns3:cad>
          </ns3:TrackPointExtension>
        </extensions>
      </trkpt>
      <trkpt lat="45.30126546509563922882080078125" lon="-70.861885808408260345458984375">
        <ele>1105.199951171875</ele>
        <time>2026-08-21T14:40:07.000Z</time>
        <extensions>
          <ns3:TrackPointExtension>
            <ns3:hr>152</ns3:hr>
            <ns3:cad>42</ns3:cad>
          </ns3:TrackPointExtension>
        </extensions>
      </trkpt>
      <trkpt lat="45.30127133242785930633544921875" lon="-70.8618936873972415924072265625">
        <ele>1105.199951171875</ele>
        <time>2026-08-21T14:40:08.000Z</time>
        <extensions>
          <ns3:TrackPointExtension>
            <ns3:hr>152</ns3:hr>
            <ns3:cad>42</ns3:cad>
          </ns3:TrackPointExtension>
        </extensions>
      </trkpt>
      <trkpt lat="45.30127577483654022216796875" lon="-70.86190282367169857025146484375">
        <ele>1105.4000244140625</ele>
        <time>2026-08-21T14:40:09.000Z</time>
        <extensions>
          <ns3:TrackPointExtension>
            <ns3:hr>153</ns3:hr>
            <ns3:cad>42</ns3:cad>
          </ns3:TrackPointExtension>
        </extensions>
      </trkpt>
      <trkpt lat="45.30127971433103084564208984375" lon="-70.86191237904131412506103515625">
        <ele>1105.5999755859375</ele>
        <time>2026-08-21T14:40:10.000Z</time>
        <extensions>
          <ns3:TrackPointExtension>
            <ns3:hr>153</ns3:hr>
            <ns3:cad>42</ns3:cad>
          </ns3:TrackPointExtension>
        </extensions>
      </trkpt>
      <trkpt lat="45.301284827291965484619140625" lon="-70.86192193441092967987060546875">
        <ele>1105.800048828125</ele>
        <time>2026-08-21T14:40:11.000Z</time>
        <extensions>
          <ns3:TrackPointExtension>
            <ns3:hr>154</ns3:hr>
            <ns3:cad>42</ns3:cad>
          </ns3:TrackPointExtension>
        </extensions>
      </trkpt>
      <trkpt lat="45.3012947179377079010009765625" lon="-70.86193819530308246612548828125">
        <ele>1106</ele>
        <time>2026-08-21T14:40:12.000Z</time>
        <extensions>
          <ns3:TrackPointExtension>
            <ns3:hr>154</ns3:hr>
            <ns3:cad>48</ns3:cad>
          </ns3:TrackPointExtension>
        </extensions>
      </trkpt>
      <trkpt lat="45.3013030998408794403076171875" lon="-70.8619469963014125823974609375">
        <ele>1106.199951171875</ele>
        <time>2026-08-21T14:40:13.000Z</time>
        <extensions>
          <ns3:TrackPointExtension>
            <ns3:hr>154</ns3:hr>
            <ns3:cad>48</ns3:cad>
          </ns3:TrackPointExtension>
        </extensions>
      </trkpt>
      <trkpt lat="45.3013121522963047027587890625" lon="-70.86195655167102813720703125">
        <ele>1106.4000244140625</ele>
        <time>2026-08-21T14:40:14.000Z</time>
        <extensions>
          <ns3:TrackPointExtension>
            <ns3:hr>154</ns3:hr>
            <ns3:cad>0</ns3:cad>
          </ns3:TrackPointExtension>
        </extensions>
      </trkpt>
      <trkpt lat="45.301320366561412811279296875" lon="-70.86196568794548511505126953125">
        <ele>1106.5999755859375</ele>
        <time>2026-08-21T14:40:15.000Z</time>
        <extensions>
          <ns3:TrackPointExtension>
            <ns3:hr>154</ns3:hr>
            <ns3:cad>0</ns3:cad>
          </ns3:TrackPointExtension>
        </extensions>
      </trkpt>
      <trkpt lat="45.301329083740711212158203125" lon="-70.86197608150541782379150390625">
        <ele>1106.5999755859375</ele>
        <time>2026-08-21T14:40:16.000Z</time>
        <extensions>
          <ns3:TrackPointExtension>
            <ns3:hr>154</ns3:hr>
            <ns3:cad>0</ns3:cad>
          </ns3:TrackPointExtension>
        </extensions>
      </trkpt>
      <trkpt lat="45.30134324915707111358642578125" lon="-70.861987732350826263427734375">
        <ele>1106.5999755859375</ele>
        <time>2026-08-21T14:40:17.000Z</time>
        <extensions>
          <ns3:TrackPointExtension>
            <ns3:hr>154</ns3:hr>
            <ns3:cad>0</ns3:cad>
          </ns3:TrackPointExtension>
        </extensions>
      </trkpt>
      <trkpt lat="45.30135163106024265289306640625" lon="-70.86199552752077579498291015625">
        <ele>1106.800048828125</ele>
        <time>2026-08-21T14:40:18.000Z</time>
        <extensions>
          <ns3:TrackPointExtension>
            <ns3:hr>154</ns3:hr>
            <ns3:cad>0</ns3:cad>
          </ns3:TrackPointExtension>
        </extensions>
      </trkpt>
      <trkpt lat="45.30135934241116046905517578125" lon="-70.86200675927102565765380859375">
        <ele>1106.800048828125</ele>
        <time>2026-08-21T14:40:19.000Z</time>
        <extensions>
          <ns3:TrackPointExtension>
            <ns3:hr>154</ns3:hr>
            <ns3:cad>0</ns3:cad>
          </ns3:TrackPointExtension>
        </extensions>
      </trkpt>
      <trkpt lat="45.30136696994304656982421875" lon="-70.862016566097736358642578125">
        <ele>1107</ele>
        <time>2026-08-21T14:40:20.000Z</time>
        <extensions>
          <ns3:TrackPointExtension>
            <ns3:hr>154</ns3:hr>
            <ns3:cad>0</ns3:cad>
          </ns3:TrackPointExtension>
        </extensions>
      </trkpt>
      <trkpt lat="45.30137727968394756317138671875" lon="-70.8620304800570011138916015625">
        <ele>1107.199951171875</ele>
        <time>2026-08-21T14:40:21.000Z</time>
        <extensions>
          <ns3:TrackPointExtension>
            <ns3:hr>154</ns3:hr>
            <ns3:cad>0</ns3:cad>
          </ns3:TrackPointExtension>
        </extensions>
      </trkpt>
      <trkpt lat="45.3013869188725948333740234375" lon="-70.862042047083377838134765625">
        <ele>1107.199951171875</ele>
        <time>2026-08-21T14:40:22.000Z</time>
        <extensions>
          <ns3:TrackPointExtension>
            <ns3:hr>154</ns3:hr>
            <ns3:cad>57</ns3:cad>
          </ns3:TrackPointExtension>
        </extensions>
      </trkpt>
      <trkpt lat="45.30139379203319549560546875" lon="-70.86205436848104000091552734375">
        <ele>1107.4000244140625</ele>
        <time>2026-08-21T14:40:23.000Z</time>
        <extensions>
          <ns3:TrackPointExtension>
            <ns3:hr>155</ns3:hr>
            <ns3:cad>57</ns3:cad>
          </ns3:TrackPointExtension>
        </extensions>
      </trkpt>
      <trkpt lat="45.3013929538428783416748046875" lon="-70.86207264102995395660400390625">
        <ele>1107.4000244140625</ele>
        <time>2026-08-21T14:40:24.000Z</time>
        <extensions>
          <ns3:TrackPointExtension>
            <ns3:hr>155</ns3:hr>
            <ns3:cad>57</ns3:cad>
          </ns3:TrackPointExtension>
        </extensions>
      </trkpt>
      <trkpt lat="45.30139069072902202606201171875" lon="-70.862097702920436859130859375">
        <ele>1107.4000244140625</ele>
        <time>2026-08-21T14:40:25.000Z</time>
        <extensions>
          <ns3:TrackPointExtension>
            <ns3:hr>156</ns3:hr>
            <ns3:cad>0</ns3:cad>
          </ns3:TrackPointExtension>
        </extensions>
      </trkpt>
      <trkpt lat="45.30139370821416378021240234375" lon="-70.8621256984770298004150390625">
        <ele>1107.5999755859375</ele>
        <time>2026-08-21T14:40:26.000Z</time>
        <extensions>
          <ns3:TrackPointExtension>
            <ns3:hr>156</ns3:hr>
            <ns3:cad>0</ns3:cad>
          </ns3:TrackPointExtension>
        </extensions>
      </trkpt>
      <trkpt lat="45.30140058137476444244384765625" lon="-70.86214874871075153350830078125">
        <ele>1107.800048828125</ele>
        <time>2026-08-21T14:40:27.000Z</time>
        <extensions>
          <ns3:TrackPointExtension>
            <ns3:hr>156</ns3:hr>
            <ns3:cad>0</ns3:cad>
          </ns3:TrackPointExtension>
        </extensions>
      </trkpt>
      <trkpt lat="45.30141097493469715118408203125" lon="-70.8621736429631710052490234375">
        <ele>1108</ele>
        <time>2026-08-21T14:40:28.000Z</time>
        <extensions>
          <ns3:TrackPointExtension>
            <ns3:hr>156</ns3:hr>
            <ns3:cad>0</ns3:cad>
          </ns3:TrackPointExtension>
        </extensions>
      </trkpt>
      <trkpt lat="45.3014167584478855133056640625" lon="-70.8621930889785289764404296875">
        <ele>1108</ele>
        <time>2026-08-21T14:40:29.000Z</time>
        <extensions>
          <ns3:TrackPointExtension>
            <ns3:hr>156</ns3:hr>
            <ns3:cad>0</ns3:cad>
          </ns3:TrackPointExtension>
        </extensions>
      </trkpt>
      <trkpt lat="45.301418602466583251953125" lon="-70.86220960132777690887451171875">
        <ele>1108.199951171875</ele>
        <time>2026-08-21T14:40:30.000Z</time>
        <extensions>
          <ns3:TrackPointExtension>
            <ns3:hr>155</ns3:hr>
            <ns3:cad>0</ns3:cad>
          </ns3:TrackPointExtension>
        </extensions>
      </trkpt>
      <trkpt lat="45.30141885392367839813232421875" lon="-70.86222770623862743377685546875">
        <ele>1108.199951171875</ele>
        <time>2026-08-21T14:40:31.000Z</time>
        <extensions>
          <ns3:TrackPointExtension>
            <ns3:hr>155</ns3:hr>
            <ns3:cad>0</ns3:cad>
          </ns3:TrackPointExtension>
        </extensions>
      </trkpt>
      <trkpt lat="45.3014211170375347137451171875" lon="-70.8622443862259387969970703125">
        <ele>1108.4000244140625</ele>
        <time>2026-08-21T14:40:32.000Z</time>
        <extensions>
          <ns3:TrackPointExtension>
            <ns3:hr>156</ns3:hr>
            <ns3:cad>0</ns3:cad>
          </ns3:TrackPointExtension>
        </extensions>
      </trkpt>
      <trkpt lat="45.3014274872839450836181640625" lon="-70.86226039566099643707275390625">
        <ele>1108.4000244140625</ele>
        <time>2026-08-21T14:40:33.000Z</time>
        <extensions>
          <ns3:TrackPointExtension>
            <ns3:hr>155</ns3:hr>
            <ns3:cad>0</ns3:cad>
          </ns3:TrackPointExtension>
        </extensions>
      </trkpt>
      <trkpt lat="45.301431007683277130126953125" lon="-70.86227439343929290771484375">
        <ele>1108.5999755859375</ele>
        <time>2026-08-21T14:40:34.000Z</time>
        <extensions>
          <ns3:TrackPointExtension>
            <ns3:hr>155</ns3:hr>
            <ns3:cad>0</ns3:cad>
          </ns3:TrackPointExtension>
        </extensions>
      </trkpt>
      <trkpt lat="45.30143410898745059967041015625" lon="-70.86228973232209682464599609375">
        <ele>1108.800048828125</ele>
        <time>2026-08-21T14:40:35.000Z</time>
        <extensions>
          <ns3:TrackPointExtension>
            <ns3:hr>155</ns3:hr>
            <ns3:cad>0</ns3:cad>
          </ns3:TrackPointExtension>
        </extensions>
      </trkpt>
      <trkpt lat="45.30143377371132373809814453125" lon="-70.86230934597551822662353515625">
        <ele>1109</ele>
        <time>2026-08-21T14:40:36.000Z</time>
        <extensions>
          <ns3:TrackPointExtension>
            <ns3:hr>154</ns3:hr>
            <ns3:cad>0</ns3:cad>
          </ns3:TrackPointExtension>
        </extensions>
      </trkpt>
      <trkpt lat="45.30143813230097293853759765625" lon="-70.86233071982860565185546875">
        <ele>1109</ele>
        <time>2026-08-21T14:40:37.000Z</time>
        <extensions>
          <ns3:TrackPointExtension>
            <ns3:hr>154</ns3:hr>
            <ns3:cad>0</ns3:cad>
          </ns3:TrackPointExtension>
        </extensions>
      </trkpt>
      <trkpt lat="45.3014419041574001312255859375" lon="-70.86234890855848789215087890625">
        <ele>1109.4000244140625</ele>
        <time>2026-08-21T14:40:38.000Z</time>
        <extensions>
          <ns3:TrackPointExtension>
            <ns3:hr>154</ns3:hr>
            <ns3:cad>0</ns3:cad>
          </ns3:TrackPointExtension>
        </extensions>
      </trkpt>
      <trkpt lat="45.3014398925006389617919921875" lon="-70.8623677678406238555908203125">
        <ele>1109.4000244140625</ele>
        <time>2026-08-21T14:40:39.000Z</time>
        <extensions>
          <ns3:TrackPointExtension>
            <ns3:hr>154</ns3:hr>
            <ns3:cad>0</ns3:cad>
          </ns3:TrackPointExtension>
        </extensions>
      </trkpt>
      <trkpt lat="45.301438383758068084716796875" lon="-70.86238847114145755767822265625">
        <ele>1109.5999755859375</ele>
        <time>2026-08-21T14:40:40.000Z</time>
        <extensions>
          <ns3:TrackPointExtension>
            <ns3:hr>154</ns3:hr>
            <ns3:cad>0</ns3:cad>
          </ns3:TrackPointExtension>
        </extensions>
      </trkpt>
      <trkpt lat="45.30143410898745059967041015625" lon="-70.86240238510072231292724609375">
        <ele>1109.5999755859375</ele>
        <time>2026-08-21T14:40:41.000Z</time>
        <extensions>
          <ns3:TrackPointExtension>
            <ns3:hr>154</ns3:hr>
            <ns3:cad>54</ns3:cad>
          </ns3:TrackPointExtension>
        </extensions>
      </trkpt>
      <trkpt lat="45.30143536627292633056640625" lon="-70.862420238554477691650390625">
        <ele>1109.5999755859375</ele>
        <time>2026-08-21T14:40:42.000Z</time>
        <extensions>
          <ns3:TrackPointExtension>
            <ns3:hr>154</ns3:hr>
            <ns3:cad>54</ns3:cad>
          </ns3:TrackPointExtension>
        </extensions>
      </trkpt>
      <trkpt lat="45.30143938958644866943359375" lon="-70.8624348230659961700439453125">
        <ele>1109.5999755859375</ele>
        <time>2026-08-21T14:40:43.000Z</time>
        <extensions>
          <ns3:TrackPointExtension>
            <ns3:hr>155</ns3:hr>
            <ns3:cad>54</ns3:cad>
          </ns3:TrackPointExtension>
        </extensions>
      </trkpt>
      <trkpt lat="45.3014435805380344390869140625" lon="-70.862452425062656402587890625">
        <ele>1109.5999755859375</ele>
        <time>2026-08-21T14:40:44.000Z</time>
        <extensions>
          <ns3:TrackPointExtension>
            <ns3:hr>154</ns3:hr>
            <ns3:cad>54</ns3:cad>
          </ns3:TrackPointExtension>
        </extensions>
      </trkpt>
      <trkpt lat="45.3014452569186687469482421875" lon="-70.8624633215367794036865234375">
        <ele>1109.800048828125</ele>
        <time>2026-08-21T14:40:45.000Z</time>
        <extensions>
          <ns3:TrackPointExtension>
            <ns3:hr>154</ns3:hr>
            <ns3:cad>54</ns3:cad>
          </ns3:TrackPointExtension>
        </extensions>
      </trkpt>
      <trkpt lat="45.301442407071590423583984375" lon="-70.862478911876678466796875">
        <ele>1110</ele>
        <time>2026-08-21T14:40:46.000Z</time>
        <extensions>
          <ns3:TrackPointExtension>
            <ns3:hr>153</ns3:hr>
            <ns3:cad>54</ns3:cad>
          </ns3:TrackPointExtension>
        </extensions>
      </trkpt>
      <trkpt lat="45.3014408983290195465087890625" lon="-70.8624924905598163604736328125">
        <ele>1110</ele>
        <time>2026-08-21T14:40:47.000Z</time>
        <extensions>
          <ns3:TrackPointExtension>
            <ns3:hr>153</ns3:hr>
            <ns3:cad>54</ns3:cad>
          </ns3:TrackPointExtension>
        </extensions>
      </trkpt>
      <trkpt lat="45.30143947340548038482666015625" lon="-70.86250732652842998504638671875">
        <ele>1110.199951171875</ele>
        <time>2026-08-21T14:40:48.000Z</time>
        <extensions>
          <ns3:TrackPointExtension>
            <ns3:hr>152</ns3:hr>
            <ns3:cad>54</ns3:cad>
          </ns3:TrackPointExtension>
        </extensions>
      </trkpt>
      <trkpt lat="45.3014360368251800537109375" lon="-70.86252828128635883331298828125">
        <ele>1110.4000244140625</ele>
        <time>2026-08-21T14:40:49.000Z</time>
        <extensions>
          <ns3:TrackPointExtension>
            <ns3:hr>152</ns3:hr>
            <ns3:cad>54</ns3:cad>
          </ns3:TrackPointExtension>
        </extensions>
      </trkpt>
      <trkpt lat="45.30143947340548038482666015625" lon="-70.86254303343594074249267578125">
        <ele>1110.5999755859375</ele>
        <time>2026-08-21T14:40:50.000Z</time>
        <extensions>
          <ns3:TrackPointExtension>
            <ns3:hr>152</ns3:hr>
            <ns3:cad>54</ns3:cad>
          </ns3:TrackPointExtension>
        </extensions>
      </trkpt>
      <trkpt lat="45.30144609510898590087890625" lon="-70.86255828849971294403076171875">
        <ele>1110.800048828125</ele>
        <time>2026-08-21T14:40:51.000Z</time>
        <extensions>
          <ns3:TrackPointExtension>
            <ns3:hr>151</ns3:hr>
            <ns3:cad>54</ns3:cad>
          </ns3:TrackPointExtension>
        </extensions>
      </trkpt>
      <trkpt lat="45.3014494478702545166015625" lon="-70.86258024908602237701416015625">
        <ele>1111.199951171875</ele>
        <time>2026-08-21T14:40:52.000Z</time>
        <extensions>
          <ns3:TrackPointExtension>
            <ns3:hr>151</ns3:hr>
            <ns3:cad>54</ns3:cad>
          </ns3:TrackPointExtension>
        </extensions>
      </trkpt>
      <trkpt lat="45.301451794803142547607421875" lon="-70.862600617110729217529296875">
        <ele>1111.4000244140625</ele>
        <time>2026-08-21T14:40:53.000Z</time>
        <extensions>
          <ns3:TrackPointExtension>
            <ns3:hr>150</ns3:hr>
            <ns3:cad>53</ns3:cad>
          </ns3:TrackPointExtension>
        </extensions>
      </trkpt>
      <trkpt lat="45.30145305208861827850341796875" lon="-70.86261796765029430389404296875">
        <ele>1111.5999755859375</ele>
        <time>2026-08-21T14:40:54.000Z</time>
        <extensions>
          <ns3:TrackPointExtension>
            <ns3:hr>150</ns3:hr>
            <ns3:cad>53</ns3:cad>
          </ns3:TrackPointExtension>
        </extensions>
      </trkpt>
      <trkpt lat="45.3014553152024745941162109375" lon="-70.862629450857639312744140625">
        <ele>1111.5999755859375</ele>
        <time>2026-08-21T14:40:55.000Z</time>
        <extensions>
          <ns3:TrackPointExtension>
            <ns3:hr>150</ns3:hr>
            <ns3:cad>53</ns3:cad>
          </ns3:TrackPointExtension>
        </extensions>
      </trkpt>
      <trkpt lat="45.3014574944972991943359375" lon="-70.86264981888234615325927734375">
        <ele>1111.800048828125</ele>
        <time>2026-08-21T14:40:56.000Z</time>
        <extensions>
          <ns3:TrackPointExtension>
            <ns3:hr>150</ns3:hr>
            <ns3:cad>52</ns3:cad>
          </ns3:TrackPointExtension>
        </extensions>
      </trkpt>
      <trkpt lat="45.30146143399178981781005859375" lon="-70.862672030925750732421875">
        <ele>1111.800048828125</ele>
        <time>2026-08-21T14:40:57.000Z</time>
        <extensions>
          <ns3:TrackPointExtension>
            <ns3:hr>150</ns3:hr>
            <ns3:cad>52</ns3:cad>
          </ns3:TrackPointExtension>
        </extensions>
      </trkpt>
      <trkpt lat="45.3014695644378662109375" lon="-70.8626903034746646881103515625">
        <ele>1112</ele>
        <time>2026-08-21T14:40:58.000Z</time>
        <extensions>
          <ns3:TrackPointExtension>
            <ns3:hr>150</ns3:hr>
            <ns3:cad>52</ns3:cad>
          </ns3:TrackPointExtension>
        </extensions>
      </trkpt>
      <trkpt lat="45.30147559940814971923828125" lon="-70.8627082407474517822265625">
        <ele>1112.199951171875</ele>
        <time>2026-08-21T14:40:59.000Z</time>
        <extensions>
          <ns3:TrackPointExtension>
            <ns3:hr>151</ns3:hr>
            <ns3:cad>52</ns3:cad>
          </ns3:TrackPointExtension>
        </extensions>
      </trkpt>
      <trkpt lat="45.30147953890264034271240234375" lon="-70.8627251721918582916259765625">
        <ele>1112.199951171875</ele>
        <time>2026-08-21T14:41:00.000Z</time>
        <extensions>
          <ns3:TrackPointExtension>
            <ns3:hr>150</ns3:hr>
            <ns3:cad>17</ns3:cad>
          </ns3:TrackPointExtension>
        </extensions>
      </trkpt>
      <trkpt lat="45.301481969654560089111328125" lon="-70.862736403942108154296875">
        <ele>1112.4000244140625</ele>
        <time>2026-08-21T14:41:01.000Z</time>
        <extensions>
          <ns3:TrackPointExtension>
            <ns3:hr>150</ns3:hr>
            <ns3:cad>17</ns3:cad>
          </ns3:TrackPointExtension>
        </extensions>
      </trkpt>
      <trkpt lat="45.301479957997798919677734375" lon="-70.862762220203876495361328125">
        <ele>1112.5999755859375</ele>
        <time>2026-08-21T14:41:02.000Z</time>
        <extensions>
          <ns3:TrackPointExtension>
            <ns3:hr>150</ns3:hr>
            <ns3:cad>17</ns3:cad>
          </ns3:TrackPointExtension>
        </extensions>
      </trkpt>
      <trkpt lat="45.3014858253300189971923828125" lon="-70.8627811633050441741943359375">
        <ele>1112.800048828125</ele>
        <time>2026-08-21T14:41:03.000Z</time>
        <extensions>
          <ns3:TrackPointExtension>
            <ns3:hr>150</ns3:hr>
            <ns3:cad>53</ns3:cad>
          </ns3:TrackPointExtension>
        </extensions>
      </trkpt>
      <trkpt lat="45.30148565769195556640625" lon="-70.86280153132975101470947265625">
        <ele>1113</ele>
        <time>2026-08-21T14:41:04.000Z</time>
        <extensions>
          <ns3:TrackPointExtension>
            <ns3:hr>149</ns3:hr>
            <ns3:cad>53</ns3:cad>
          </ns3:TrackPointExtension>
        </extensions>
      </trkpt>
      <trkpt lat="45.3014797903597354888916015625" lon="-70.8628180436789989471435546875">
        <ele>1113.199951171875</ele>
        <time>2026-08-21T14:41:05.000Z</time>
        <extensions>
          <ns3:TrackPointExtension>
            <ns3:hr>149</ns3:hr>
            <ns3:cad>0</ns3:cad>
          </ns3:TrackPointExtension>
        </extensions>
      </trkpt>
      <trkpt lat="45.30147585086524486541748046875" lon="-70.8628391660749912261962890625">
        <ele>1113.4000244140625</ele>
        <time>2026-08-21T14:41:06.000Z</time>
        <extensions>
          <ns3:TrackPointExtension>
            <ns3:hr>149</ns3:hr>
            <ns3:cad>0</ns3:cad>
          </ns3:TrackPointExtension>
        </extensions>
      </trkpt>
      <trkpt lat="45.301483310759067535400390625" lon="-70.86285936646163463592529296875">
        <ele>1113.5999755859375</ele>
        <time>2026-08-21T14:41:07.000Z</time>
        <extensions>
          <ns3:TrackPointExtension>
            <ns3:hr>149</ns3:hr>
            <ns3:cad>0</ns3:cad>
          </ns3:TrackPointExtension>
        </extensions>
      </trkpt>
      <trkpt lat="45.30148909427225589752197265625" lon="-70.8628723584115505218505859375">
        <ele>1114</ele>
        <time>2026-08-21T14:41:08.000Z</time>
        <extensions>
          <ns3:TrackPointExtension>
            <ns3:hr>149</ns3:hr>
            <ns3:cad>0</ns3:cad>
          </ns3:TrackPointExtension>
        </extensions>
      </trkpt>
      <trkpt lat="45.30149496160447597503662109375" lon="-70.8628799021244049072265625">
        <ele>1114.199951171875</ele>
        <time>2026-08-21T14:41:09.000Z</time>
        <extensions>
          <ns3:TrackPointExtension>
            <ns3:hr>149</ns3:hr>
            <ns3:cad>0</ns3:cad>
          </ns3:TrackPointExtension>
        </extensions>
      </trkpt>
      <trkpt lat="45.30150200240314006805419921875" lon="-70.8628918044269084930419921875">
        <ele>1114.199951171875</ele>
        <time>2026-08-21T14:41:10.000Z</time>
        <extensions>
          <ns3:TrackPointExtension>
            <ns3:hr>150</ns3:hr>
            <ns3:cad>0</ns3:cad>
          </ns3:TrackPointExtension>
        </extensions>
      </trkpt>
      <trkpt lat="45.30151189304888248443603515625" lon="-70.862908065319061279296875">
        <ele>1114.4000244140625</ele>
        <time>2026-08-21T14:41:11.000Z</time>
        <extensions>
          <ns3:TrackPointExtension>
            <ns3:hr>149</ns3:hr>
            <ns3:cad>0</ns3:cad>
          </ns3:TrackPointExtension>
        </extensions>
      </trkpt>
      <trkpt lat="45.3015166707336902618408203125" lon="-70.8629209734499454498291015625">
        <ele>1114.4000244140625</ele>
        <time>2026-08-21T14:41:12.000Z</time>
        <extensions>
          <ns3:TrackPointExtension>
            <ns3:hr>149</ns3:hr>
            <ns3:cad>0</ns3:cad>
          </ns3:TrackPointExtension>
        </extensions>
      </trkpt>
      <trkpt lat="45.301516167819499969482421875" lon="-70.8629394136369228363037109375">
        <ele>1114.5999755859375</ele>
        <time>2026-08-21T14:41:13.000Z</time>
        <extensions>
          <ns3:TrackPointExtension>
            <ns3:hr>149</ns3:hr>
            <ns3:cad>0</ns3:cad>
          </ns3:TrackPointExtension>
        </extensions>
      </trkpt>
      <trkpt lat="45.3015156649053096771240234375" lon="-70.8629575185477733612060546875">
        <ele>1114.5999755859375</ele>
        <time>2026-08-21T14:41:14.000Z</time>
        <extensions>
          <ns3:TrackPointExtension>
            <ns3:hr>149</ns3:hr>
            <ns3:cad>0</ns3:cad>
          </ns3:TrackPointExtension>
        </extensions>
      </trkpt>
      <trkpt lat="45.3015193529427051544189453125" lon="-70.86297537200152873992919921875">
        <ele>1114.5999755859375</ele>
        <time>2026-08-21T14:41:15.000Z</time>
        <extensions>
          <ns3:TrackPointExtension>
            <ns3:hr>149</ns3:hr>
            <ns3:cad>0</ns3:cad>
          </ns3:TrackPointExtension>
        </extensions>
      </trkpt>
      <trkpt lat="45.30152346007525920867919921875" lon="-70.862989537417888641357421875">
        <ele>1114.800048828125</ele>
        <time>2026-08-21T14:41:16.000Z</time>
        <extensions>
          <ns3:TrackPointExtension>
            <ns3:hr>149</ns3:hr>
            <ns3:cad>56</ns3:cad>
          </ns3:TrackPointExtension>
        </extensions>
      </trkpt>
      <trkpt lat="45.30152463354170322418212890625" lon="-70.8630091510713100433349609375">
        <ele>1115</ele>
        <time>2026-08-21T14:41:17.000Z</time>
        <extensions>
          <ns3:TrackPointExtension>
            <ns3:hr>150</ns3:hr>
            <ns3:cad>56</ns3:cad>
          </ns3:TrackPointExtension>
        </extensions>
      </trkpt>
      <trkpt lat="45.3015273995697498321533203125" lon="-70.86302516050636768341064453125">
        <ele>1115</ele>
        <time>2026-08-21T14:41:18.000Z</time>
        <extensions>
          <ns3:TrackPointExtension>
            <ns3:hr>150</ns3:hr>
            <ns3:cad>54</ns3:cad>
          </ns3:TrackPointExtension>
        </extensions>
      </trkpt>
      <trkpt lat="45.30152765102684497833251953125" lon="-70.8630399964749813079833984375">
        <ele>1115.199951171875</ele>
        <time>2026-08-21T14:41:19.000Z</time>
        <extensions>
          <ns3:TrackPointExtension>
            <ns3:hr>150</ns3:hr>
            <ns3:cad>54</ns3:cad>
          </ns3:TrackPointExtension>
        </extensions>
      </trkpt>
      <trkpt lat="45.301526226103305816650390625" lon="-70.86306095123291015625">
        <ele>1115.4000244140625</ele>
        <time>2026-08-21T14:41:20.000Z</time>
        <extensions>
          <ns3:TrackPointExtension>
            <ns3:hr>150</ns3:hr>
            <ns3:cad>53</ns3:cad>
          </ns3:TrackPointExtension>
        </extensions>
      </trkpt>
      <trkpt lat="45.30153653584420680999755859375" lon="-70.8630864322185516357421875">
        <ele>1115.5999755859375</ele>
        <time>2026-08-21T14:41:21.000Z</time>
        <extensions>
          <ns3:TrackPointExtension>
            <ns3:hr>150</ns3:hr>
            <ns3:cad>53</ns3:cad>
          </ns3:TrackPointExtension>
        </extensions>
      </trkpt>
      <trkpt lat="45.30154139734804630279541015625" lon="-70.863105542957782745361328125">
        <ele>1115.800048828125</ele>
        <time>2026-08-21T14:41:22.000Z</time>
        <extensions>
          <ns3:TrackPointExtension>
            <ns3:hr>149</ns3:hr>
            <ns3:cad>55</ns3:cad>
          </ns3:TrackPointExtension>
        </extensions>
      </trkpt>
      <trkpt lat="45.3015438280999660491943359375" lon="-70.8631298504769802093505859375">
        <ele>1116</ele>
        <time>2026-08-21T14:41:23.000Z</time>
        <extensions>
          <ns3:TrackPointExtension>
            <ns3:hr>150</ns3:hr>
            <ns3:cad>55</ns3:cad>
          </ns3:TrackPointExtension>
        </extensions>
      </trkpt>
      <trkpt lat="45.30154491774737834930419921875" lon="-70.8631454408168792724609375">
        <ele>1116.199951171875</ele>
        <time>2026-08-21T14:41:24.000Z</time>
        <extensions>
          <ns3:TrackPointExtension>
            <ns3:hr>150</ns3:hr>
            <ns3:cad>55</ns3:cad>
          </ns3:TrackPointExtension>
        </extensions>
      </trkpt>
      <trkpt lat="45.30154936015605926513671875" lon="-70.86316228844225406646728515625">
        <ele>1116.199951171875</ele>
        <time>2026-08-21T14:41:25.000Z</time>
        <extensions>
          <ns3:TrackPointExtension>
            <ns3:hr>150</ns3:hr>
            <ns3:cad>55</ns3:cad>
          </ns3:TrackPointExtension>
        </extensions>
      </trkpt>
      <trkpt lat="45.3015525452792644500732421875" lon="-70.86318391375243663787841796875">
        <ele>1116.199951171875</ele>
        <time>2026-08-21T14:41:26.000Z</time>
        <extensions>
          <ns3:TrackPointExtension>
            <ns3:hr>151</ns3:hr>
            <ns3:cad>55</ns3:cad>
          </ns3:TrackPointExtension>
        </extensions>
      </trkpt>
      <trkpt lat="45.3015535511076450347900390625" lon="-70.8631958998739719390869140625">
        <ele>1116.199951171875</ele>
        <time>2026-08-21T14:41:27.000Z</time>
        <extensions>
          <ns3:TrackPointExtension>
            <ns3:hr>151</ns3:hr>
            <ns3:cad>0</ns3:cad>
          </ns3:TrackPointExtension>
        </extensions>
      </trkpt>
      <trkpt lat="45.30156134627759456634521484375" lon="-70.863211154937744140625">
        <ele>1116.199951171875</ele>
        <time>2026-08-21T14:41:28.000Z</time>
        <extensions>
          <ns3:TrackPointExtension>
            <ns3:hr>151</ns3:hr>
            <ns3:cad>57</ns3:cad>
          </ns3:TrackPointExtension>
        </extensions>
      </trkpt>
      <trkpt lat="45.30156612396240234375" lon="-70.86322532035410404205322265625">
        <ele>1116.4000244140625</ele>
        <time>2026-08-21T14:41:29.000Z</time>
        <extensions>
          <ns3:TrackPointExtension>
            <ns3:hr>151</ns3:hr>
            <ns3:cad>57</ns3:cad>
          </ns3:TrackPointExtension>
        </extensions>
      </trkpt>
      <trkpt lat="45.30156805180013179779052734375" lon="-70.86324241943657398223876953125">
        <ele>1116.5999755859375</ele>
        <time>2026-08-21T14:41:30.000Z</time>
        <extensions>
          <ns3:TrackPointExtension>
            <ns3:hr>152</ns3:hr>
            <ns3:cad>57</ns3:cad>
          </ns3:TrackPointExtension>
        </extensions>
      </trkpt>
      <trkpt lat="45.30157073400914669036865234375" lon="-70.8632599376142024993896484375">
        <ele>1116.800048828125</ele>
        <time>2026-08-21T14:41:31.000Z</time>
        <extensions>
          <ns3:TrackPointExtension>
            <ns3:hr>152</ns3:hr>
            <ns3:cad>57</ns3:cad>
          </ns3:TrackPointExtension>
        </extensions>
      </trkpt>
      <trkpt lat="45.3015756793320178985595703125" lon="-70.86328047327697277069091796875">
        <ele>1117</ele>
        <time>2026-08-21T14:41:32.000Z</time>
        <extensions>
          <ns3:TrackPointExtension>
            <ns3:hr>152</ns3:hr>
            <ns3:cad>57</ns3:cad>
          </ns3:TrackPointExtension>
        </extensions>
      </trkpt>
      <trkpt lat="45.3015756793320178985595703125" lon="-70.86329338140785694122314453125">
        <ele>1117.199951171875</ele>
        <time>2026-08-21T14:41:33.000Z</time>
        <extensions>
          <ns3:TrackPointExtension>
            <ns3:hr>152</ns3:hr>
            <ns3:cad>53</ns3:cad>
          </ns3:TrackPointExtension>
        </extensions>
      </trkpt>
      <trkpt lat="45.301577858626842498779296875" lon="-70.86331064812839031219482421875">
        <ele>1117.4000244140625</ele>
        <time>2026-08-21T14:41:34.000Z</time>
        <extensions>
          <ns3:TrackPointExtension>
            <ns3:hr>151</ns3:hr>
            <ns3:cad>53</ns3:cad>
          </ns3:TrackPointExtension>
        </extensions>
      </trkpt>
      <trkpt lat="45.30157777480781078338623046875" lon="-70.86331970058381557464599609375">
        <ele>1117.5999755859375</ele>
        <time>2026-08-21T14:41:35.000Z</time>
        <extensions>
          <ns3:TrackPointExtension>
            <ns3:hr>151</ns3:hr>
            <ns3:cad>52</ns3:cad>
          </ns3:TrackPointExtension>
        </extensions>
      </trkpt>
      <trkpt lat="45.30157760716974735260009765625" lon="-70.86333311162889003753662109375">
        <ele>1117.800048828125</ele>
        <time>2026-08-21T14:41:36.000Z</time>
        <extensions>
          <ns3:TrackPointExtension>
            <ns3:hr>151</ns3:hr>
            <ns3:cad>52</ns3:cad>
          </ns3:TrackPointExtension>
        </extensions>
      </trkpt>
      <trkpt lat="45.3015768527984619140625" lon="-70.8633454330265522003173828125">
        <ele>1118.199951171875</ele>
        <time>2026-08-21T14:41:37.000Z</time>
        <extensions>
          <ns3:TrackPointExtension>
            <ns3:hr>150</ns3:hr>
            <ns3:cad>51</ns3:cad>
          </ns3:TrackPointExtension>
        </extensions>
      </trkpt>
      <trkpt lat="45.3015746735036373138427734375" lon="-70.86336395703256130218505859375">
        <ele>1118.4000244140625</ele>
        <time>2026-08-21T14:41:38.000Z</time>
        <extensions>
          <ns3:TrackPointExtension>
            <ns3:hr>150</ns3:hr>
            <ns3:cad>51</ns3:cad>
          </ns3:TrackPointExtension>
        </extensions>
      </trkpt>
      <trkpt lat="45.30157190747559070587158203125" lon="-70.86338189430534839630126953125">
        <ele>1118.5999755859375</ele>
        <time>2026-08-21T14:41:39.000Z</time>
        <extensions>
          <ns3:TrackPointExtension>
            <ns3:hr>150</ns3:hr>
            <ns3:cad>52</ns3:cad>
          </ns3:TrackPointExtension>
        </extensions>
      </trkpt>
      <trkpt lat="45.3015736676752567291259765625" lon="-70.8634077943861484527587890625">
        <ele>1118.800048828125</ele>
        <time>2026-08-21T14:41:40.000Z</time>
        <extensions>
          <ns3:TrackPointExtension>
            <ns3:hr>150</ns3:hr>
            <ns3:cad>52</ns3:cad>
          </ns3:TrackPointExtension>
        </extensions>
      </trkpt>
      <trkpt lat="45.301575176417827606201171875" lon="-70.86342782713472843170166015625">
        <ele>1118.800048828125</ele>
        <time>2026-08-21T14:41:41.000Z</time>
        <extensions>
          <ns3:TrackPointExtension>
            <ns3:hr>150</ns3:hr>
            <ns3:cad>52</ns3:cad>
          </ns3:TrackPointExtension>
        </extensions>
      </trkpt>
      <trkpt lat="45.30157241038978099822998046875" lon="-70.86344341747462749481201171875">
        <ele>1119</ele>
        <time>2026-08-21T14:41:42.000Z</time>
        <extensions>
          <ns3:TrackPointExtension>
            <ns3:hr>150</ns3:hr>
            <ns3:cad>51</ns3:cad>
          </ns3:TrackPointExtension>
        </extensions>
      </trkpt>
      <trkpt lat="45.3015719912946224212646484375" lon="-70.863454230129718780517578125">
        <ele>1119</ele>
        <time>2026-08-21T14:41:43.000Z</time>
        <extensions>
          <ns3:TrackPointExtension>
            <ns3:hr>150</ns3:hr>
            <ns3:cad>51</ns3:cad>
          </ns3:TrackPointExtension>
        </extensions>
      </trkpt>
      <trkpt lat="45.30156956054270267486572265625" lon="-70.8634691499173641204833984375">
        <ele>1119.199951171875</ele>
        <time>2026-08-21T14:41:44.000Z</time>
        <extensions>
          <ns3:TrackPointExtension>
            <ns3:hr>151</ns3:hr>
            <ns3:cad>50</ns3:cad>
          </ns3:TrackPointExtension>
        </extensions>
      </trkpt>
      <trkpt lat="45.3015642799437046051025390625" lon="-70.8634818904101848602294921875">
        <ele>1119.4000244140625</ele>
        <time>2026-08-21T14:41:45.000Z</time>
        <extensions>
          <ns3:TrackPointExtension>
            <ns3:hr>150</ns3:hr>
            <ns3:cad>50</ns3:cad>
          </ns3:TrackPointExtension>
        </extensions>
      </trkpt>
      <trkpt lat="45.30156134627759456634521484375" lon="-70.8634896017611026763916015625">
        <ele>1119.5999755859375</ele>
        <time>2026-08-21T14:41:46.000Z</time>
        <extensions>
          <ns3:TrackPointExtension>
            <ns3:hr>150</ns3:hr>
            <ns3:cad>50</ns3:cad>
          </ns3:TrackPointExtension>
        </extensions>
      </trkpt>
      <trkpt lat="45.30155279673635959625244140625" lon="-70.8634983189404010772705078125">
        <ele>1119.800048828125</ele>
        <time>2026-08-21T14:41:47.000Z</time>
        <extensions>
          <ns3:TrackPointExtension>
            <ns3:hr>150</ns3:hr>
            <ns3:cad>50</ns3:cad>
          </ns3:TrackPointExtension>
        </extensions>
      </trkpt>
      <trkpt lat="45.3015485219657421112060546875" lon="-70.86350829340517520904541015625">
        <ele>1120</ele>
        <time>2026-08-21T14:41:48.000Z</time>
        <extensions>
          <ns3:TrackPointExtension>
            <ns3:hr>150</ns3:hr>
            <ns3:cad>50</ns3:cad>
          </ns3:TrackPointExtension>
        </extensions>
      </trkpt>
      <trkpt lat="45.3015411458909511566162109375" lon="-70.8635227940976619720458984375">
        <ele>1120.199951171875</ele>
        <time>2026-08-21T14:41:49.000Z</time>
        <extensions>
          <ns3:TrackPointExtension>
            <ns3:hr>150</ns3:hr>
            <ns3:cad>50</ns3:cad>
          </ns3:TrackPointExtension>
        </extensions>
      </trkpt>
      <trkpt lat="45.30153368599712848663330078125" lon="-70.8635268174111843109130859375">
        <ele>1120.5999755859375</ele>
        <time>2026-08-21T14:41:50.000Z</time>
        <extensions>
          <ns3:TrackPointExtension>
            <ns3:hr>150</ns3:hr>
            <ns3:cad>50</ns3:cad>
          </ns3:TrackPointExtension>
        </extensions>
      </trkpt>
      <trkpt lat="45.3015263937413692474365234375" lon="-70.8635368756949901580810546875">
        <ele>1120.800048828125</ele>
        <time>2026-08-21T14:41:51.000Z</time>
        <extensions>
          <ns3:TrackPointExtension>
            <ns3:hr>150</ns3:hr>
            <ns3:cad>50</ns3:cad>
          </ns3:TrackPointExtension>
        </extensions>
      </trkpt>
      <trkpt lat="45.3015206940472126007080078125" lon="-70.863545425236225128173828125">
        <ele>1121</ele>
        <time>2026-08-21T14:41:52.000Z</time>
        <extensions>
          <ns3:TrackPointExtension>
            <ns3:hr>151</ns3:hr>
            <ns3:cad>47</ns3:cad>
          </ns3:TrackPointExtension>
        </extensions>
      </trkpt>
      <trkpt lat="45.3015126474201679229736328125" lon="-70.86355003528296947479248046875">
        <ele>1121</ele>
        <time>2026-08-21T14:41:53.000Z</time>
        <extensions>
          <ns3:TrackPointExtension>
            <ns3:hr>152</ns3:hr>
            <ns3:cad>47</ns3:cad>
          </ns3:TrackPointExtension>
        </extensions>
      </trkpt>
      <trkpt lat="45.30150317586958408355712890625" lon="-70.8635603450238704681396484375">
        <ele>1121.199951171875</ele>
        <time>2026-08-21T14:41:54.000Z</time>
        <extensions>
          <ns3:TrackPointExtension>
            <ns3:hr>152</ns3:hr>
            <ns3:cad>45</ns3:cad>
          </ns3:TrackPointExtension>
        </extensions>
      </trkpt>
      <trkpt lat="45.301491357386112213134765625" lon="-70.86356696672737598419189453125">
        <ele>1121.4000244140625</ele>
        <time>2026-08-21T14:41:55.000Z</time>
        <extensions>
          <ns3:TrackPointExtension>
            <ns3:hr>152</ns3:hr>
            <ns3:cad>45</ns3:cad>
          </ns3:TrackPointExtension>
        </extensions>
      </trkpt>
      <trkpt lat="45.30148322694003582000732421875" lon="-70.86357417516410350799560546875">
        <ele>1121.800048828125</ele>
        <time>2026-08-21T14:41:56.000Z</time>
        <extensions>
          <ns3:TrackPointExtension>
            <ns3:hr>152</ns3:hr>
            <ns3:cad>48</ns3:cad>
          </ns3:TrackPointExtension>
        </extensions>
      </trkpt>
      <trkpt lat="45.30147836543619632720947265625" lon="-70.8635905198752880096435546875">
        <ele>1122</ele>
        <time>2026-08-21T14:41:57.000Z</time>
        <extensions>
          <ns3:TrackPointExtension>
            <ns3:hr>152</ns3:hr>
            <ns3:cad>50</ns3:cad>
          </ns3:TrackPointExtension>
        </extensions>
      </trkpt>
      <trkpt lat="45.30147601850330829620361328125" lon="-70.86359948851168155670166015625">
        <ele>1122.199951171875</ele>
        <time>2026-08-21T14:41:58.000Z</time>
        <extensions>
          <ns3:TrackPointExtension>
            <ns3:hr>152</ns3:hr>
            <ns3:cad>50</ns3:cad>
          </ns3:TrackPointExtension>
        </extensions>
      </trkpt>
      <trkpt lat="45.301472581923007965087890625" lon="-70.86361591704189777374267578125">
        <ele>1122.4000244140625</ele>
        <time>2026-08-21T14:41:59.000Z</time>
        <extensions>
          <ns3:TrackPointExtension>
            <ns3:hr>152</ns3:hr>
            <ns3:cad>47</ns3:cad>
          </ns3:TrackPointExtension>
        </extensions>
      </trkpt>
      <trkpt lat="45.30147015117108821868896484375" lon="-70.86363737471401691436767578125">
        <ele>1122.800048828125</ele>
        <time>2026-08-21T14:42:00.000Z</time>
        <extensions>
          <ns3:TrackPointExtension>
            <ns3:hr>152</ns3:hr>
            <ns3:cad>47</ns3:cad>
          </ns3:TrackPointExtension>
        </extensions>
      </trkpt>
      <trkpt lat="45.30146579258143901824951171875" lon="-70.86365438997745513916015625">
        <ele>1123</ele>
        <time>2026-08-21T14:42:01.000Z</time>
        <extensions>
          <ns3:TrackPointExtension>
            <ns3:hr>152</ns3:hr>
            <ns3:cad>47</ns3:cad>
          </ns3:TrackPointExtension>
        </extensions>
      </trkpt>
      <trkpt lat="45.301458500325679779052734375" lon="-70.86366587318480014801025390625">
        <ele>1123.4000244140625</ele>
        <time>2026-08-21T14:42:02.000Z</time>
        <extensions>
          <ns3:TrackPointExtension>
            <ns3:hr>153</ns3:hr>
            <ns3:cad>47</ns3:cad>
          </ns3:TrackPointExtension>
        </extensions>
      </trkpt>
      <trkpt lat="45.30145657248795032501220703125" lon="-70.8636874146759510040283203125">
        <ele>1123.5999755859375</ele>
        <time>2026-08-21T14:42:03.000Z</time>
        <extensions>
          <ns3:TrackPointExtension>
            <ns3:hr>153</ns3:hr>
            <ns3:cad>47</ns3:cad>
          </ns3:TrackPointExtension>
        </extensions>
      </trkpt>
      <trkpt lat="45.30146093107759952545166015625" lon="-70.86370191536843776702880859375">
        <ele>1123.800048828125</ele>
        <time>2026-08-21T14:42:04.000Z</time>
        <extensions>
          <ns3:TrackPointExtension>
            <ns3:hr>154</ns3:hr>
            <ns3:cad>49</ns3:cad>
          </ns3:TrackPointExtension>
        </extensions>
      </trkpt>
      <trkpt lat="45.30146344564855098724365234375" lon="-70.86371582932770252227783203125">
        <ele>1124</ele>
        <time>2026-08-21T14:42:05.000Z</time>
        <extensions>
          <ns3:TrackPointExtension>
            <ns3:hr>154</ns3:hr>
            <ns3:cad>49</ns3:cad>
          </ns3:TrackPointExtension>
        </extensions>
      </trkpt>
      <trkpt lat="45.30146562494337558746337890625" lon="-70.8637303300201892852783203125">
        <ele>1124.199951171875</ele>
        <time>2026-08-21T14:42:06.000Z</time>
        <extensions>
          <ns3:TrackPointExtension>
            <ns3:hr>154</ns3:hr>
            <ns3:cad>49</ns3:cad>
          </ns3:TrackPointExtension>
        </extensions>
      </trkpt>
      <trkpt lat="45.30146646313369274139404296875" lon="-70.8637434057891368865966796875">
        <ele>1124.4000244140625</ele>
        <time>2026-08-21T14:42:07.000Z</time>
        <extensions>
          <ns3:TrackPointExtension>
            <ns3:hr>154</ns3:hr>
            <ns3:cad>49</ns3:cad>
          </ns3:TrackPointExtension>
        </extensions>
      </trkpt>
      <trkpt lat="45.30146981589496135711669921875" lon="-70.86375907994806766510009765625">
        <ele>1124.4000244140625</ele>
        <time>2026-08-21T14:42:08.000Z</time>
        <extensions>
          <ns3:TrackPointExtension>
            <ns3:hr>154</ns3:hr>
            <ns3:cad>49</ns3:cad>
          </ns3:TrackPointExtension>
        </extensions>
      </trkpt>
      <trkpt lat="45.30146981589496135711669921875" lon="-70.8637705631554126739501953125">
        <ele>1124.5999755859375</ele>
        <time>2026-08-21T14:42:09.000Z</time>
        <extensions>
          <ns3:TrackPointExtension>
            <ns3:hr>155</ns3:hr>
            <ns3:cad>49</ns3:cad>
          </ns3:TrackPointExtension>
        </extensions>
      </trkpt>
      <trkpt lat="45.30146663077175617218017578125" lon="-70.86378179490566253662109375">
        <ele>1124.800048828125</ele>
        <time>2026-08-21T14:42:10.000Z</time>
        <extensions>
          <ns3:TrackPointExtension>
            <ns3:hr>154</ns3:hr>
            <ns3:cad>49</ns3:cad>
          </ns3:TrackPointExtension>
        </extensions>
      </trkpt>
      <trkpt lat="45.30146193690598011016845703125" lon="-70.86379243992269039154052734375">
        <ele>1125</ele>
        <time>2026-08-21T14:42:11.000Z</time>
        <extensions>
          <ns3:TrackPointExtension>
            <ns3:hr>155</ns3:hr>
            <ns3:cad>49</ns3:cad>
          </ns3:TrackPointExtension>
        </extensions>
      </trkpt>
      <trkpt lat="45.3014546446502208709716796875" lon="-70.8638128079473972320556640625">
        <ele>1125</ele>
        <time>2026-08-21T14:42:12.000Z</time>
        <extensions>
          <ns3:TrackPointExtension>
            <ns3:hr>156</ns3:hr>
            <ns3:cad>49</ns3:cad>
          </ns3:TrackPointExtension>
        </extensions>
      </trkpt>
      <trkpt lat="45.30145271681249141693115234375" lon="-70.8638258837163448333740234375">
        <ele>1125.199951171875</ele>
        <time>2026-08-21T14:42:13.000Z</time>
        <extensions>
          <ns3:TrackPointExtension>
            <ns3:hr>156</ns3:hr>
            <ns3:cad>49</ns3:cad>
          </ns3:TrackPointExtension>
        </extensions>
      </trkpt>
      <trkpt lat="45.3014502860605716705322265625" lon="-70.86383552290499210357666015625">
        <ele>1125.4000244140625</ele>
        <time>2026-08-21T14:42:14.000Z</time>
        <extensions>
          <ns3:TrackPointExtension>
            <ns3:hr>156</ns3:hr>
            <ns3:cad>47</ns3:cad>
          </ns3:TrackPointExtension>
        </extensions>
      </trkpt>
      <trkpt lat="45.30144668184220790863037109375" lon="-70.86385421454906463623046875">
        <ele>1125.5999755859375</ele>
        <time>2026-08-21T14:42:15.000Z</time>
        <extensions>
          <ns3:TrackPointExtension>
            <ns3:hr>156</ns3:hr>
            <ns3:cad>47</ns3:cad>
          </ns3:TrackPointExtension>
        </extensions>
      </trkpt>
      <trkpt lat="45.30144601128995418548583984375" lon="-70.8638741634786128997802734375">
        <ele>1125.800048828125</ele>
        <time>2026-08-21T14:42:16.000Z</time>
        <extensions>
          <ns3:TrackPointExtension>
            <ns3:hr>155</ns3:hr>
            <ns3:cad>49</ns3:cad>
          </ns3:TrackPointExtension>
        </extensions>
      </trkpt>
      <trkpt lat="45.30144517309963703155517578125" lon="-70.8638832159340381622314453125">
        <ele>1126</ele>
        <time>2026-08-21T14:42:17.000Z</time>
        <extensions>
          <ns3:TrackPointExtension>
            <ns3:hr>155</ns3:hr>
            <ns3:cad>49</ns3:cad>
          </ns3:TrackPointExtension>
        </extensions>
      </trkpt>
      <trkpt lat="45.30144198797643184661865234375" lon="-70.8638942800462245941162109375">
        <ele>1126.199951171875</ele>
        <time>2026-08-21T14:42:18.000Z</time>
        <extensions>
          <ns3:TrackPointExtension>
            <ns3:hr>155</ns3:hr>
            <ns3:cad>48</ns3:cad>
          </ns3:TrackPointExtension>
        </extensions>
      </trkpt>
      <trkpt lat="45.3014308400452136993408203125" lon="-70.86391313932836055755615234375">
        <ele>1126.4000244140625</ele>
        <time>2026-08-21T14:42:19.000Z</time>
        <extensions>
          <ns3:TrackPointExtension>
            <ns3:hr>156</ns3:hr>
            <ns3:cad>48</ns3:cad>
          </ns3:TrackPointExtension>
        </extensions>
      </trkpt>
      <trkpt lat="45.3014248050749301910400390625" lon="-70.86392202414572238922119140625">
        <ele>1126.5999755859375</ele>
        <time>2026-08-21T14:42:20.000Z</time>
        <extensions>
          <ns3:TrackPointExtension>
            <ns3:hr>156</ns3:hr>
            <ns3:cad>48</ns3:cad>
          </ns3:TrackPointExtension>
        </extensions>
      </trkpt>
      <trkpt lat="45.30142128467559814453125" lon="-70.863928981125354766845703125">
        <ele>1126.800048828125</ele>
        <time>2026-08-21T14:42:21.000Z</time>
        <extensions>
          <ns3:TrackPointExtension>
            <ns3:hr>156</ns3:hr>
            <ns3:cad>48</ns3:cad>
          </ns3:TrackPointExtension>
        </extensions>
      </trkpt>
      <trkpt lat="45.30141449533402919769287109375" lon="-70.8639358542859554290771484375">
        <ele>1127</ele>
        <time>2026-08-21T14:42:22.000Z</time>
        <extensions>
          <ns3:TrackPointExtension>
            <ns3:hr>156</ns3:hr>
            <ns3:cad>48</ns3:cad>
          </ns3:TrackPointExtension>
        </extensions>
      </trkpt>
      <trkpt lat="45.30140711925923824310302734375" lon="-70.86394046433269977569580078125">
        <ele>1127.199951171875</ele>
        <time>2026-08-21T14:42:23.000Z</time>
        <extensions>
          <ns3:TrackPointExtension>
            <ns3:hr>156</ns3:hr>
            <ns3:cad>49</ns3:cad>
          </ns3:TrackPointExtension>
        </extensions>
      </trkpt>
      <trkpt lat="45.30139421112835407257080078125" lon="-70.86395538412034511566162109375">
        <ele>1127.4000244140625</ele>
        <time>2026-08-21T14:42:24.000Z</time>
        <extensions>
          <ns3:TrackPointExtension>
            <ns3:hr>156</ns3:hr>
            <ns3:cad>50</ns3:cad>
          </ns3:TrackPointExtension>
        </extensions>
      </trkpt>
      <trkpt lat="45.30138582922518253326416015625" lon="-70.86396058090031147003173828125">
        <ele>1127.5999755859375</ele>
        <time>2026-08-21T14:42:25.000Z</time>
        <extensions>
          <ns3:TrackPointExtension>
            <ns3:hr>156</ns3:hr>
            <ns3:cad>50</ns3:cad>
          </ns3:TrackPointExtension>
        </extensions>
      </trkpt>
      <trkpt lat="45.30138012953102588653564453125" lon="-70.8639730699360370635986328125">
        <ele>1127.800048828125</ele>
        <time>2026-08-21T14:42:26.000Z</time>
        <extensions>
          <ns3:TrackPointExtension>
            <ns3:hr>156</ns3:hr>
            <ns3:cad>50</ns3:cad>
          </ns3:TrackPointExtension>
        </extensions>
      </trkpt>
      <trkpt lat="45.30137744732201099395751953125" lon="-70.8639851398766040802001953125">
        <ele>1128</ele>
        <time>2026-08-21T14:42:27.000Z</time>
        <extensions>
          <ns3:TrackPointExtension>
            <ns3:hr>156</ns3:hr>
            <ns3:cad>50</ns3:cad>
          </ns3:TrackPointExtension>
        </extensions>
      </trkpt>
      <trkpt lat="45.30137233436107635498046875" lon="-70.863996706902980804443359375">
        <ele>1128.199951171875</ele>
        <time>2026-08-21T14:42:28.000Z</time>
        <extensions>
          <ns3:TrackPointExtension>
            <ns3:hr>156</ns3:hr>
            <ns3:cad>50</ns3:cad>
          </ns3:TrackPointExtension>
        </extensions>
      </trkpt>
      <trkpt lat="45.3013624437153339385986328125" lon="-70.8640076033771038055419921875">
        <ele>1128.4000244140625</ele>
        <time>2026-08-21T14:42:29.000Z</time>
        <extensions>
          <ns3:TrackPointExtension>
            <ns3:hr>156</ns3:hr>
            <ns3:cad>50</ns3:cad>
          </ns3:TrackPointExtension>
        </extensions>
      </trkpt>
      <trkpt lat="45.30135716311633586883544921875" lon="-70.86401917040348052978515625">
        <ele>1128.5999755859375</ele>
        <time>2026-08-21T14:42:30.000Z</time>
        <extensions>
          <ns3:TrackPointExtension>
            <ns3:hr>156</ns3:hr>
            <ns3:cad>0</ns3:cad>
          </ns3:TrackPointExtension>
        </extensions>
      </trkpt>
      <trkpt lat="45.30135624110698699951171875" lon="-70.8640270493924617767333984375">
        <ele>1128.800048828125</ele>
        <time>2026-08-21T14:42:31.000Z</time>
        <extensions>
          <ns3:TrackPointExtension>
            <ns3:hr>156</ns3:hr>
            <ns3:cad>0</ns3:cad>
          </ns3:TrackPointExtension>
        </extensions>
      </trkpt>
      <trkpt lat="45.301352553069591522216796875" lon="-70.8640439808368682861328125">
        <ele>1129</ele>
        <time>2026-08-21T14:42:32.000Z</time>
        <extensions>
          <ns3:TrackPointExtension>
            <ns3:hr>156</ns3:hr>
            <ns3:cad>0</ns3:cad>
          </ns3:TrackPointExtension>
        </extensions>
      </trkpt>
      <trkpt lat="45.3013502061367034912109375" lon="-70.8640495128929615020751953125">
        <ele>1129.199951171875</ele>
        <time>2026-08-21T14:42:33.000Z</time>
        <extensions>
          <ns3:TrackPointExtension>
            <ns3:hr>156</ns3:hr>
            <ns3:cad>0</ns3:cad>
          </ns3:TrackPointExtension>
        </extensions>
      </trkpt>
      <trkpt lat="45.301343165338039398193359375" lon="-70.86406753398478031158447265625">
        <ele>1129.5999755859375</ele>
        <time>2026-08-21T14:42:34.000Z</time>
        <extensions>
          <ns3:TrackPointExtension>
            <ns3:hr>156</ns3:hr>
            <ns3:cad>0</ns3:cad>
          </ns3:TrackPointExtension>
        </extensions>
      </trkpt>
      <trkpt lat="45.30133478343486785888671875" lon="-70.86408220231533050537109375">
        <ele>1129.800048828125</ele>
        <time>2026-08-21T14:42:35.000Z</time>
        <extensions>
          <ns3:TrackPointExtension>
            <ns3:hr>156</ns3:hr>
            <ns3:cad>48</ns3:cad>
          </ns3:TrackPointExtension>
        </extensions>
      </trkpt>
      <trkpt lat="45.301327407360076904296875" lon="-70.86409024894237518310546875">
        <ele>1130</ele>
        <time>2026-08-21T14:42:36.000Z</time>
        <extensions>
          <ns3:TrackPointExtension>
            <ns3:hr>156</ns3:hr>
            <ns3:cad>48</ns3:cad>
          </ns3:TrackPointExtension>
        </extensions>
      </trkpt>
      <trkpt lat="45.3013195283710956573486328125" lon="-70.8641075156629085540771484375">
        <ele>1130.4000244140625</ele>
        <time>2026-08-21T14:42:37.000Z</time>
        <extensions>
          <ns3:TrackPointExtension>
            <ns3:hr>156</ns3:hr>
            <ns3:cad>48</ns3:cad>
          </ns3:TrackPointExtension>
        </extensions>
      </trkpt>
      <trkpt lat="45.3013148345053195953369140625" lon="-70.86412654258310794830322265625">
        <ele>1130.5999755859375</ele>
        <time>2026-08-21T14:42:38.000Z</time>
        <extensions>
          <ns3:TrackPointExtension>
            <ns3:hr>156</ns3:hr>
            <ns3:cad>48</ns3:cad>
          </ns3:TrackPointExtension>
        </extensions>
      </trkpt>
      <trkpt lat="45.30131508596241474151611328125" lon="-70.864142216742038726806640625">
        <ele>1130.800048828125</ele>
        <time>2026-08-21T14:42:39.000Z</time>
        <extensions>
          <ns3:TrackPointExtension>
            <ns3:hr>156</ns3:hr>
            <ns3:cad>48</ns3:cad>
          </ns3:TrackPointExtension>
        </extensions>
      </trkpt>
      <trkpt lat="45.3013155050575733184814453125" lon="-70.86415722034871578216552734375">
        <ele>1130.800048828125</ele>
        <time>2026-08-21T14:42:40.000Z</time>
        <extensions>
          <ns3:TrackPointExtension>
            <ns3:hr>156</ns3:hr>
            <ns3:cad>48</ns3:cad>
          </ns3:TrackPointExtension>
        </extensions>
      </trkpt>
      <trkpt lat="45.30131542123854160308837890625" lon="-70.86417205631732940673828125">
        <ele>1131</ele>
        <time>2026-08-21T14:42:41.000Z</time>
        <extensions>
          <ns3:TrackPointExtension>
            <ns3:hr>156</ns3:hr>
            <ns3:cad>48</ns3:cad>
          </ns3:TrackPointExtension>
        </extensions>
      </trkpt>
      <trkpt lat="45.3013181872665882110595703125" lon="-70.86418504826724529266357421875">
        <ele>1131.199951171875</ele>
        <time>2026-08-21T14:42:42.000Z</time>
        <extensions>
          <ns3:TrackPointExtension>
            <ns3:hr>156</ns3:hr>
            <ns3:cad>48</ns3:cad>
          </ns3:TrackPointExtension>
        </extensions>
      </trkpt>
      <trkpt lat="45.30132229439914226531982421875" lon="-70.86419619619846343994140625">
        <ele>1131.5999755859375</ele>
        <time>2026-08-21T14:42:43.000Z</time>
        <extensions>
          <ns3:TrackPointExtension>
            <ns3:hr>156</ns3:hr>
            <ns3:cad>46</ns3:cad>
          </ns3:TrackPointExtension>
        </extensions>
      </trkpt>
      <trkpt lat="45.30132765881717205047607421875" lon="-70.86420818231999874114990234375">
        <ele>1131.800048828125</ele>
        <time>2026-08-21T14:42:44.000Z</time>
        <extensions>
          <ns3:TrackPointExtension>
            <ns3:hr>156</ns3:hr>
            <ns3:cad>46</ns3:cad>
          </ns3:TrackPointExtension>
        </extensions>
      </trkpt>
      <trkpt lat="45.30133184976875782012939453125" lon="-70.8642183244228363037109375">
        <ele>1132</ele>
        <time>2026-08-21T14:42:45.000Z</time>
        <extensions>
          <ns3:TrackPointExtension>
            <ns3:hr>157</ns3:hr>
            <ns3:cad>46</ns3:cad>
          </ns3:TrackPointExtension>
        </extensions>
      </trkpt>
      <trkpt lat="45.301337130367755889892578125" lon="-70.86422729305922985076904296875">
        <ele>1132.199951171875</ele>
        <time>2026-08-21T14:42:46.000Z</time>
        <extensions>
          <ns3:TrackPointExtension>
            <ns3:hr>156</ns3:hr>
            <ns3:cad>46</ns3:cad>
          </ns3:TrackPointExtension>
        </extensions>
      </trkpt>
      <trkpt lat="45.30134241096675395965576171875" lon="-70.8642365969717502593994140625">
        <ele>1132.4000244140625</ele>
        <time>2026-08-21T14:42:47.000Z</time>
        <extensions>
          <ns3:TrackPointExtension>
            <ns3:hr>156</ns3:hr>
            <ns3:cad>45</ns3:cad>
          </ns3:TrackPointExtension>
        </extensions>
      </trkpt>
      <trkpt lat="45.3013463504612445831298828125" lon="-70.8642436377704143524169921875">
        <ele>1132.5999755859375</ele>
        <time>2026-08-21T14:42:48.000Z</time>
        <extensions>
          <ns3:TrackPointExtension>
            <ns3:hr>156</ns3:hr>
            <ns3:cad>45</ns3:cad>
          </ns3:TrackPointExtension>
        </extensions>
      </trkpt>
      <trkpt lat="45.3013537265360355377197265625" lon="-70.86424774490296840667724609375">
        <ele>1132.800048828125</ele>
        <time>2026-08-21T14:42:49.000Z</time>
        <extensions>
          <ns3:TrackPointExtension>
            <ns3:hr>156</ns3:hr>
            <ns3:cad>45</ns3:cad>
          </ns3:TrackPointExtension>
        </extensions>
      </trkpt>
      <trkpt lat="45.3013627789914608001708984375" lon="-70.864250175654888153076171875">
        <ele>1133</ele>
        <time>2026-08-21T14:42:50.000Z</time>
        <extensions>
          <ns3:TrackPointExtension>
            <ns3:hr>156</ns3:hr>
            <ns3:cad>45</ns3:cad>
          </ns3:TrackPointExtension>
        </extensions>
      </trkpt>
      <trkpt lat="45.3013684786856174468994140625" lon="-70.86425478570163249969482421875">
        <ele>1133.199951171875</ele>
        <time>2026-08-21T14:42:51.000Z</time>
        <extensions>
          <ns3:TrackPointExtension>
            <ns3:hr>156</ns3:hr>
            <ns3:cad>45</ns3:cad>
          </ns3:TrackPointExtension>
        </extensions>
      </trkpt>
      <trkpt lat="45.3013770282268524169921875" lon="-70.86426048539578914642333984375">
        <ele>1133.4000244140625</ele>
        <time>2026-08-21T14:42:52.000Z</time>
        <extensions>
          <ns3:TrackPointExtension>
            <ns3:hr>156</ns3:hr>
            <ns3:cad>46</ns3:cad>
          </ns3:TrackPointExtension>
        </extensions>
      </trkpt>
      <trkpt lat="45.30138264410197734832763671875" lon="-70.86426719091832637786865234375">
        <ele>1133.5999755859375</ele>
        <time>2026-08-21T14:42:53.000Z</time>
        <extensions>
          <ns3:TrackPointExtension>
            <ns3:hr>156</ns3:hr>
            <ns3:cad>46</ns3:cad>
          </ns3:TrackPointExtension>
        </extensions>
      </trkpt>
      <trkpt lat="45.30138180591166019439697265625" lon="-70.864276327192783355712890625">
        <ele>1133.800048828125</ele>
        <time>2026-08-21T14:42:54.000Z</time>
        <extensions>
          <ns3:TrackPointExtension>
            <ns3:hr>156</ns3:hr>
            <ns3:cad>46</ns3:cad>
          </ns3:TrackPointExtension>
        </extensions>
      </trkpt>
      <trkpt lat="45.301381386816501617431640625" lon="-70.8642818592488765716552734375">
        <ele>1133.800048828125</ele>
        <time>2026-08-21T14:42:55.000Z</time>
        <extensions>
          <ns3:TrackPointExtension>
            <ns3:hr>156</ns3:hr>
            <ns3:cad>0</ns3:cad>
          </ns3:TrackPointExtension>
        </extensions>
      </trkpt>
      <trkpt lat="45.301384739577770233154296875" lon="-70.86428814567625522613525390625">
        <ele>1134</ele>
        <time>2026-08-21T14:42:56.000Z</time>
        <extensions>
          <ns3:TrackPointExtension>
            <ns3:hr>156</ns3:hr>
            <ns3:cad>0</ns3:cad>
          </ns3:TrackPointExtension>
        </extensions>
      </trkpt>
      <trkpt lat="45.30139404349029064178466796875" lon="-70.8642969466745853424072265625">
        <ele>1134.4000244140625</ele>
        <time>2026-08-21T14:42:57.000Z</time>
        <extensions>
          <ns3:TrackPointExtension>
            <ns3:hr>156</ns3:hr>
            <ns3:cad>0</ns3:cad>
          </ns3:TrackPointExtension>
        </extensions>
      </trkpt>
      <trkpt lat="45.301402173936367034912109375" lon="-70.86430390365421772003173828125">
        <ele>1134.5999755859375</ele>
        <time>2026-08-21T14:42:58.000Z</time>
        <extensions>
          <ns3:TrackPointExtension>
            <ns3:hr>156</ns3:hr>
            <ns3:cad>0</ns3:cad>
          </ns3:TrackPointExtension>
        </extensions>
      </trkpt>
      <trkpt lat="45.30140980146825313568115234375" lon="-70.864311195909976959228515625">
        <ele>1134.800048828125</ele>
        <time>2026-08-21T14:42:59.000Z</time>
        <extensions>
          <ns3:TrackPointExtension>
            <ns3:hr>156</ns3:hr>
            <ns3:cad>0</ns3:cad>
          </ns3:TrackPointExtension>
        </extensions>
      </trkpt>
      <trkpt lat="45.30141801573336124420166015625" lon="-70.86431999690830707550048828125">
        <ele>1135</ele>
        <time>2026-08-21T14:43:00.000Z</time>
        <extensions>
          <ns3:TrackPointExtension>
            <ns3:hr>156</ns3:hr>
            <ns3:cad>0</ns3:cad>
          </ns3:TrackPointExtension>
        </extensions>
      </trkpt>
      <trkpt lat="45.3014261461794376373291015625" lon="-70.8643277920782566070556640625">
        <ele>1135.199951171875</ele>
        <time>2026-08-21T14:43:01.000Z</time>
        <extensions>
          <ns3:TrackPointExtension>
            <ns3:hr>156</ns3:hr>
            <ns3:cad>0</ns3:cad>
          </ns3:TrackPointExtension>
        </extensions>
      </trkpt>
      <trkpt lat="45.30143260024487972259521484375" lon="-70.86433508433401584625244140625">
        <ele>1135.199951171875</ele>
        <time>2026-08-21T14:43:02.000Z</time>
        <extensions>
          <ns3:TrackPointExtension>
            <ns3:hr>156</ns3:hr>
            <ns3:cad>0</ns3:cad>
          </ns3:TrackPointExtension>
        </extensions>
      </trkpt>
      <trkpt lat="45.301437713205814361572265625" lon="-70.86434799246490001678466796875">
        <ele>1135.4000244140625</ele>
        <time>2026-08-21T14:43:03.000Z</time>
        <extensions>
          <ns3:TrackPointExtension>
            <ns3:hr>156</ns3:hr>
            <ns3:cad>0</ns3:cad>
          </ns3:TrackPointExtension>
        </extensions>
      </trkpt>
      <trkpt lat="45.30144282616674900054931640625" lon="-70.86435712873935699462890625">
        <ele>1135.5999755859375</ele>
        <time>2026-08-21T14:43:04.000Z</time>
        <extensions>
          <ns3:TrackPointExtension>
            <ns3:hr>156</ns3:hr>
            <ns3:cad>42</ns3:cad>
          </ns3:TrackPointExtension>
        </extensions>
      </trkpt>
      <trkpt lat="45.30144953168928623199462890625" lon="-70.86436291225254535675048828125">
        <ele>1135.800048828125</ele>
        <time>2026-08-21T14:43:05.000Z</time>
        <extensions>
          <ns3:TrackPointExtension>
            <ns3:hr>156</ns3:hr>
            <ns3:cad>42</ns3:cad>
          </ns3:TrackPointExtension>
        </extensions>
      </trkpt>
      <trkpt lat="45.3014583326876163482666015625" lon="-70.86436760611832141876220703125">
        <ele>1136</ele>
        <time>2026-08-21T14:43:06.000Z</time>
        <extensions>
          <ns3:TrackPointExtension>
            <ns3:hr>156</ns3:hr>
            <ns3:cad>42</ns3:cad>
          </ns3:TrackPointExtension>
        </extensions>
      </trkpt>
      <trkpt lat="45.3014653734862804412841796875" lon="-70.86437280289828777313232421875">
        <ele>1136.199951171875</ele>
        <time>2026-08-21T14:43:07.000Z</time>
        <extensions>
          <ns3:TrackPointExtension>
            <ns3:hr>156</ns3:hr>
            <ns3:cad>45</ns3:cad>
          </ns3:TrackPointExtension>
        </extensions>
      </trkpt>
      <trkpt lat="45.30147249810397624969482421875" lon="-70.864382274448871612548828125">
        <ele>1136.4000244140625</ele>
        <time>2026-08-21T14:43:08.000Z</time>
        <extensions>
          <ns3:TrackPointExtension>
            <ns3:hr>156</ns3:hr>
            <ns3:cad>45</ns3:cad>
          </ns3:TrackPointExtension>
        </extensions>
      </trkpt>
      <trkpt lat="45.30147962272167205810546875" lon="-70.86439493112266063690185546875">
        <ele>1136.4000244140625</ele>
        <time>2026-08-21T14:43:09.000Z</time>
        <extensions>
          <ns3:TrackPointExtension>
            <ns3:hr>156</ns3:hr>
            <ns3:cad>46</ns3:cad>
          </ns3:TrackPointExtension>
        </extensions>
      </trkpt>
      <trkpt lat="45.30148741789162158966064453125" lon="-70.86440549232065677642822265625">
        <ele>1136.5999755859375</ele>
        <time>2026-08-21T14:43:10.000Z</time>
        <extensions>
          <ns3:TrackPointExtension>
            <ns3:hr>156</ns3:hr>
            <ns3:cad>46</ns3:cad>
          </ns3:TrackPointExtension>
        </extensions>
      </trkpt>
      <trkpt lat="45.30149839818477630615234375" lon="-70.86441320367157459259033203125">
        <ele>1136.800048828125</ele>
        <time>2026-08-21T14:43:11.000Z</time>
        <extensions>
          <ns3:TrackPointExtension>
            <ns3:hr>156</ns3:hr>
            <ns3:cad>46</ns3:cad>
          </ns3:TrackPointExtension>
        </extensions>
      </trkpt>
      <trkpt lat="45.30150820501148700714111328125" lon="-70.86441881954669952392578125">
        <ele>1136.800048828125</ele>
        <time>2026-08-21T14:43:12.000Z</time>
        <extensions>
          <ns3:TrackPointExtension>
            <ns3:hr>157</ns3:hr>
            <ns3:cad>46</ns3:cad>
          </ns3:TrackPointExtension>
        </extensions>
      </trkpt>
      <trkpt lat="45.30151926912367343902587890625" lon="-70.8644320629537105560302734375">
        <ele>1137</ele>
        <time>2026-08-21T14:43:13.000Z</time>
        <extensions>
          <ns3:TrackPointExtension>
            <ns3:hr>157</ns3:hr>
            <ns3:cad>46</ns3:cad>
          </ns3:TrackPointExtension>
        </extensions>
      </trkpt>
      <trkpt lat="45.30152387917041778564453125" lon="-70.86444170214235782623291015625">
        <ele>1137</ele>
        <time>2026-08-21T14:43:14.000Z</time>
        <extensions>
          <ns3:TrackPointExtension>
            <ns3:hr>157</ns3:hr>
            <ns3:cad>45</ns3:cad>
          </ns3:TrackPointExtension>
        </extensions>
      </trkpt>
      <trkpt lat="45.30152547173202037811279296875" lon="-70.8644505031406879425048828125">
        <ele>1137.199951171875</ele>
        <time>2026-08-21T14:43:15.000Z</time>
        <extensions>
          <ns3:TrackPointExtension>
            <ns3:hr>156</ns3:hr>
            <ns3:cad>45</ns3:cad>
          </ns3:TrackPointExtension>
        </extensions>
      </trkpt>
      <trkpt lat="45.30153217725455760955810546875" lon="-70.86446651257574558258056640625">
        <ele>1137.4000244140625</ele>
        <time>2026-08-21T14:43:16.000Z</time>
        <extensions>
          <ns3:TrackPointExtension>
            <ns3:hr>156</ns3:hr>
            <ns3:cad>45</ns3:cad>
          </ns3:TrackPointExtension>
        </extensions>
      </trkpt>
      <trkpt lat="45.3015434928238391876220703125" lon="-70.86447690613567829132080078125">
        <ele>1137.5999755859375</ele>
        <time>2026-08-21T14:43:17.000Z</time>
        <extensions>
          <ns3:TrackPointExtension>
            <ns3:hr>156</ns3:hr>
            <ns3:cad>45</ns3:cad>
          </ns3:TrackPointExtension>
        </extensions>
      </trkpt>
      <trkpt lat="45.3015501983463764190673828125" lon="-70.86448629386723041534423828125">
        <ele>1138</ele>
        <time>2026-08-21T14:43:18.000Z</time>
        <extensions>
          <ns3:TrackPointExtension>
            <ns3:hr>156</ns3:hr>
            <ns3:cad>45</ns3:cad>
          </ns3:TrackPointExtension>
        </extensions>
      </trkpt>
      <trkpt lat="45.3015592508018016815185546875" lon="-70.86449719034135341644287109375">
        <ele>1138.199951171875</ele>
        <time>2026-08-21T14:43:19.000Z</time>
        <extensions>
          <ns3:TrackPointExtension>
            <ns3:hr>156</ns3:hr>
            <ns3:cad>49</ns3:cad>
          </ns3:TrackPointExtension>
        </extensions>
      </trkpt>
      <trkpt lat="45.30156687833368778228759765625" lon="-70.86451110430061817169189453125">
        <ele>1138.199951171875</ele>
        <time>2026-08-21T14:43:20.000Z</time>
        <extensions>
          <ns3:TrackPointExtension>
            <ns3:hr>156</ns3:hr>
            <ns3:cad>49</ns3:cad>
          </ns3:TrackPointExtension>
        </extensions>
      </trkpt>
      <trkpt lat="45.3015706501901149749755859375" lon="-70.86452267132699489593505859375">
        <ele>1138.4000244140625</ele>
        <time>2026-08-21T14:43:21.000Z</time>
        <extensions>
          <ns3:TrackPointExtension>
            <ns3:hr>156</ns3:hr>
            <ns3:cad>45</ns3:cad>
          </ns3:TrackPointExtension>
        </extensions>
      </trkpt>
      <trkpt lat="45.3015736676752567291259765625" lon="-70.8645336516201496124267578125">
        <ele>1138.4000244140625</ele>
        <time>2026-08-21T14:43:22.000Z</time>
        <extensions>
          <ns3:TrackPointExtension>
            <ns3:hr>155</ns3:hr>
            <ns3:cad>45</ns3:cad>
          </ns3:TrackPointExtension>
        </extensions>
      </trkpt>
      <trkpt lat="45.30158028937876224517822265625" lon="-70.86454144679009914398193359375">
        <ele>1138.5999755859375</ele>
        <time>2026-08-21T14:43:23.000Z</time>
        <extensions>
          <ns3:TrackPointExtension>
            <ns3:hr>154</ns3:hr>
            <ns3:cad>45</ns3:cad>
          </ns3:TrackPointExtension>
        </extensions>
      </trkpt>
      <trkpt lat="45.30158397741615772247314453125" lon="-70.86454999633133411407470703125">
        <ele>1139</ele>
        <time>2026-08-21T14:43:24.000Z</time>
        <extensions>
          <ns3:TrackPointExtension>
            <ns3:hr>155</ns3:hr>
            <ns3:cad>49</ns3:cad>
          </ns3:TrackPointExtension>
        </extensions>
      </trkpt>
      <trkpt lat="45.30158950947225093841552734375" lon="-70.86456005461513996124267578125">
        <ele>1139.199951171875</ele>
        <time>2026-08-21T14:43:25.000Z</time>
        <extensions>
          <ns3:TrackPointExtension>
            <ns3:hr>154</ns3:hr>
            <ns3:cad>49</ns3:cad>
          </ns3:TrackPointExtension>
        </extensions>
      </trkpt>
      <trkpt lat="45.301598645746707916259765625" lon="-70.86457178927958011627197265625">
        <ele>1139.4000244140625</ele>
        <time>2026-08-21T14:43:26.000Z</time>
        <extensions>
          <ns3:TrackPointExtension>
            <ns3:hr>154</ns3:hr>
            <ns3:cad>49</ns3:cad>
          </ns3:TrackPointExtension>
        </extensions>
      </trkpt>
      <trkpt lat="45.30160459689795970916748046875" lon="-70.8645789138972759246826171875">
        <ele>1139.800048828125</ele>
        <time>2026-08-21T14:43:27.000Z</time>
        <extensions>
          <ns3:TrackPointExtension>
            <ns3:hr>154</ns3:hr>
            <ns3:cad>49</ns3:cad>
          </ns3:TrackPointExtension>
        </extensions>
      </trkpt>
      <trkpt lat="45.30161214061081409454345703125" lon="-70.8645943365991115570068359375">
        <ele>1140</ele>
        <time>2026-08-21T14:43:28.000Z</time>
        <extensions>
          <ns3:TrackPointExtension>
            <ns3:hr>154</ns3:hr>
            <ns3:cad>49</ns3:cad>
          </ns3:TrackPointExtension>
        </extensions>
      </trkpt>
      <trkpt lat="45.301619432866573333740234375" lon="-70.86460414342582225799560546875">
        <ele>1140.199951171875</ele>
        <time>2026-08-21T14:43:29.000Z</time>
        <extensions>
          <ns3:TrackPointExtension>
            <ns3:hr>154</ns3:hr>
            <ns3:cad>0</ns3:cad>
          </ns3:TrackPointExtension>
        </extensions>
      </trkpt>
      <trkpt lat="45.30162907205522060394287109375" lon="-70.86461235769093036651611328125">
        <ele>1140.199951171875</ele>
        <time>2026-08-21T14:43:30.000Z</time>
        <extensions>
          <ns3:TrackPointExtension>
            <ns3:hr>153</ns3:hr>
            <ns3:cad>0</ns3:cad>
          </ns3:TrackPointExtension>
        </extensions>
      </trkpt>
      <trkpt lat="45.30163410119712352752685546875" lon="-70.8646131120622158050537109375">
        <ele>1140.4000244140625</ele>
        <time>2026-08-21T14:43:31.000Z</time>
        <extensions>
          <ns3:TrackPointExtension>
            <ns3:hr>153</ns3:hr>
            <ns3:cad>0</ns3:cad>
          </ns3:TrackPointExtension>
        </extensions>
      </trkpt>
      <trkpt lat="45.30164432711899280548095703125" lon="-70.8646208234131336212158203125">
        <ele>1140.5999755859375</ele>
        <time>2026-08-21T14:43:32.000Z</time>
        <extensions>
          <ns3:TrackPointExtension>
            <ns3:hr>152</ns3:hr>
            <ns3:cad>0</ns3:cad>
          </ns3:TrackPointExtension>
        </extensions>
      </trkpt>
      <trkpt lat="45.301651619374752044677734375" lon="-70.86463297717273235321044921875">
        <ele>1140.5999755859375</ele>
        <time>2026-08-21T14:43:33.000Z</time>
        <extensions>
          <ns3:TrackPointExtension>
            <ns3:hr>152</ns3:hr>
            <ns3:cad>0</ns3:cad>
          </ns3:TrackPointExtension>
        </extensions>
      </trkpt>
      <trkpt lat="45.30165857635438442230224609375" lon="-70.8646389283239841461181640625">
        <ele>1140.800048828125</ele>
        <time>2026-08-21T14:43:34.000Z</time>
        <extensions>
          <ns3:TrackPointExtension>
            <ns3:hr>152</ns3:hr>
            <ns3:cad>0</ns3:cad>
          </ns3:TrackPointExtension>
        </extensions>
      </trkpt>
      <trkpt lat="45.301665700972080230712890625" lon="-70.86464068852365016937255859375">
        <ele>1141</ele>
        <time>2026-08-21T14:43:35.000Z</time>
        <extensions>
          <ns3:TrackPointExtension>
            <ns3:hr>152</ns3:hr>
            <ns3:cad>0</ns3:cad>
          </ns3:TrackPointExtension>
        </extensions>
      </trkpt>
      <trkpt lat="45.30167433433234691619873046875" lon="-70.86464487947523593902587890625">
        <ele>1141.199951171875</ele>
        <time>2026-08-21T14:43:36.000Z</time>
        <extensions>
          <ns3:TrackPointExtension>
            <ns3:hr>152</ns3:hr>
            <ns3:cad>45</ns3:cad>
          </ns3:TrackPointExtension>
        </extensions>
      </trkpt>
      <trkpt lat="45.3016856499016284942626953125" lon="-70.86464957334101200103759765625">
        <ele>1141.4000244140625</ele>
        <time>2026-08-21T14:43:37.000Z</time>
        <extensions>
          <ns3:TrackPointExtension>
            <ns3:hr>152</ns3:hr>
            <ns3:cad>45</ns3:cad>
          </ns3:TrackPointExtension>
        </extensions>
      </trkpt>
      <trkpt lat="45.30169210396707057952880859375" lon="-70.8646536804735660552978515625">
        <ele>1141.800048828125</ele>
        <time>2026-08-21T14:43:38.000Z</time>
        <extensions>
          <ns3:TrackPointExtension>
            <ns3:hr>151</ns3:hr>
            <ns3:cad>45</ns3:cad>
          </ns3:TrackPointExtension>
        </extensions>
      </trkpt>
      <trkpt lat="45.301698558032512664794921875" lon="-70.86466030217707157135009765625">
        <ele>1142</ele>
        <time>2026-08-21T14:43:39.000Z</time>
        <extensions>
          <ns3:TrackPointExtension>
            <ns3:hr>150</ns3:hr>
            <ns3:cad>45</ns3:cad>
          </ns3:TrackPointExtension>
        </extensions>
      </trkpt>
      <trkpt lat="45.301707945764064788818359375" lon="-70.8646694384515285491943359375">
        <ele>1142.199951171875</ele>
        <time>2026-08-21T14:43:40.000Z</time>
        <extensions>
          <ns3:TrackPointExtension>
            <ns3:hr>150</ns3:hr>
            <ns3:cad>45</ns3:cad>
          </ns3:TrackPointExtension>
        </extensions>
      </trkpt>
      <trkpt lat="45.30171892605721950531005859375" lon="-70.86467103101313114166259765625">
        <ele>1142.4000244140625</ele>
        <time>2026-08-21T14:43:41.000Z</time>
        <extensions>
          <ns3:TrackPointExtension>
            <ns3:hr>150</ns3:hr>
            <ns3:cad>0</ns3:cad>
          </ns3:TrackPointExtension>
        </extensions>
      </trkpt>
      <trkpt lat="45.30172948725521564483642578125" lon="-70.86467631161212921142578125">
        <ele>1142.5999755859375</ele>
        <time>2026-08-21T14:43:42.000Z</time>
        <extensions>
          <ns3:TrackPointExtension>
            <ns3:hr>151</ns3:hr>
            <ns3:cad>0</ns3:cad>
          </ns3:TrackPointExtension>
        </extensions>
      </trkpt>
      <trkpt lat="45.30173602513968944549560546875" lon="-70.86468427442014217376708984375">
        <ele>1142.800048828125</ele>
        <time>2026-08-21T14:43:43.000Z</time>
        <extensions>
          <ns3:TrackPointExtension>
            <ns3:hr>151</ns3:hr>
            <ns3:cad>48</ns3:cad>
          </ns3:TrackPointExtension>
        </extensions>
      </trkpt>
      <trkpt lat="45.30174239538609981536865234375" lon="-70.864694416522979736328125">
        <ele>1143</ele>
        <time>2026-08-21T14:43:44.000Z</time>
        <extensions>
          <ns3:TrackPointExtension>
            <ns3:hr>151</ns3:hr>
            <ns3:cad>49</ns3:cad>
          </ns3:TrackPointExtension>
        </extensions>
      </trkpt>
      <trkpt lat="45.30174725688993930816650390625" lon="-70.86470522917807102203369140625">
        <ele>1143.199951171875</ele>
        <time>2026-08-21T14:43:45.000Z</time>
        <extensions>
          <ns3:TrackPointExtension>
            <ns3:hr>152</ns3:hr>
            <ns3:cad>49</ns3:cad>
          </ns3:TrackPointExtension>
        </extensions>
      </trkpt>
      <trkpt lat="45.3017506934702396392822265625" lon="-70.86471377871930599212646484375">
        <ele>1143.4000244140625</ele>
        <time>2026-08-21T14:43:46.000Z</time>
        <extensions>
          <ns3:TrackPointExtension>
            <ns3:hr>152</ns3:hr>
            <ns3:cad>50</ns3:cad>
          </ns3:TrackPointExtension>
        </extensions>
      </trkpt>
      <trkpt lat="45.30175329186022281646728515625" lon="-70.86472115479409694671630859375">
        <ele>1143.5999755859375</ele>
        <time>2026-08-21T14:43:47.000Z</time>
        <extensions>
          <ns3:TrackPointExtension>
            <ns3:hr>152</ns3:hr>
            <ns3:cad>50</ns3:cad>
          </ns3:TrackPointExtension>
        </extensions>
      </trkpt>
      <trkpt lat="45.30175413005053997039794921875" lon="-70.8647264353930950164794921875">
        <ele>1144</ele>
        <time>2026-08-21T14:43:48.000Z</time>
        <extensions>
          <ns3:TrackPointExtension>
            <ns3:hr>152</ns3:hr>
            <ns3:cad>50</ns3:cad>
          </ns3:TrackPointExtension>
        </extensions>
      </trkpt>
      <trkpt lat="45.30175681225955486297607421875" lon="-70.86473808623850345611572265625">
        <ele>1144.199951171875</ele>
        <time>2026-08-21T14:43:49.000Z</time>
        <extensions>
          <ns3:TrackPointExtension>
            <ns3:hr>152</ns3:hr>
            <ns3:cad>50</ns3:cad>
          </ns3:TrackPointExtension>
        </extensions>
      </trkpt>
      <trkpt lat="45.30176335014402866363525390625" lon="-70.86474395357072353363037109375">
        <ele>1144.4000244140625</ele>
        <time>2026-08-21T14:43:50.000Z</time>
        <extensions>
          <ns3:TrackPointExtension>
            <ns3:hr>153</ns3:hr>
            <ns3:cad>50</ns3:cad>
          </ns3:TrackPointExtension>
        </extensions>
      </trkpt>
      <trkpt lat="45.30176720581948757171630859375" lon="-70.864750407636165618896484375">
        <ele>1144.5999755859375</ele>
        <time>2026-08-21T14:43:51.000Z</time>
        <extensions>
          <ns3:TrackPointExtension>
            <ns3:hr>153</ns3:hr>
            <ns3:cad>50</ns3:cad>
          </ns3:TrackPointExtension>
        </extensions>
      </trkpt>
      <trkpt lat="45.30177307315170764923095703125" lon="-70.86476222611963748931884765625">
        <ele>1144.800048828125</ele>
        <time>2026-08-21T14:43:52.000Z</time>
        <extensions>
          <ns3:TrackPointExtension>
            <ns3:hr>154</ns3:hr>
            <ns3:cad>50</ns3:cad>
          </ns3:TrackPointExtension>
        </extensions>
      </trkpt>
      <trkpt lat="45.3017808683216571807861328125" lon="-70.86477220058441162109375">
        <ele>1145</ele>
        <time>2026-08-21T14:43:53.000Z</time>
        <extensions>
          <ns3:TrackPointExtension>
            <ns3:hr>154</ns3:hr>
            <ns3:cad>0</ns3:cad>
          </ns3:TrackPointExtension>
        </extensions>
      </trkpt>
      <trkpt lat="45.30178799293935298919677734375" lon="-70.8647824265062808990478515625">
        <ele>1145.199951171875</ele>
        <time>2026-08-21T14:43:54.000Z</time>
        <extensions>
          <ns3:TrackPointExtension>
            <ns3:hr>154</ns3:hr>
            <ns3:cad>0</ns3:cad>
          </ns3:TrackPointExtension>
        </extensions>
      </trkpt>
      <trkpt lat="45.30179318971931934356689453125" lon="-70.8647955022752285003662109375">
        <ele>1145.4000244140625</ele>
        <time>2026-08-21T14:43:55.000Z</time>
        <extensions>
          <ns3:TrackPointExtension>
            <ns3:hr>154</ns3:hr>
            <ns3:cad>0</ns3:cad>
          </ns3:TrackPointExtension>
        </extensions>
      </trkpt>
      <trkpt lat="45.30179989524185657501220703125" lon="-70.86480933241546154022216796875">
        <ele>1145.5999755859375</ele>
        <time>2026-08-21T14:43:56.000Z</time>
        <extensions>
          <ns3:TrackPointExtension>
            <ns3:hr>154</ns3:hr>
            <ns3:cad>0</ns3:cad>
          </ns3:TrackPointExtension>
        </extensions>
      </trkpt>
      <trkpt lat="45.301804505288600921630859375" lon="-70.86481670849025249481201171875">
        <ele>1145.800048828125</ele>
        <time>2026-08-21T14:43:57.000Z</time>
        <extensions>
          <ns3:TrackPointExtension>
            <ns3:hr>154</ns3:hr>
            <ns3:cad>0</ns3:cad>
          </ns3:TrackPointExtension>
        </extensions>
      </trkpt>
      <trkpt lat="45.30181045643985271453857421875" lon="-70.864826850593090057373046875">
        <ele>1146</ele>
        <time>2026-08-21T14:43:58.000Z</time>
        <extensions>
          <ns3:TrackPointExtension>
            <ns3:hr>154</ns3:hr>
            <ns3:cad>0</ns3:cad>
          </ns3:TrackPointExtension>
        </extensions>
      </trkpt>
      <trkpt lat="45.30181984417140483856201171875" lon="-70.864837579429149627685546875">
        <ele>1146</ele>
        <time>2026-08-21T14:43:59.000Z</time>
        <extensions>
          <ns3:TrackPointExtension>
            <ns3:hr>154</ns3:hr>
            <ns3:cad>0</ns3:cad>
          </ns3:TrackPointExtension>
        </extensions>
      </trkpt>
      <trkpt lat="45.3018304891884326934814453125" lon="-70.8648414351046085357666015625">
        <ele>1146.199951171875</ele>
        <time>2026-08-21T14:44:00.000Z</time>
        <extensions>
          <ns3:TrackPointExtension>
            <ns3:hr>154</ns3:hr>
            <ns3:cad>0</ns3:cad>
          </ns3:TrackPointExtension>
        </extensions>
      </trkpt>
      <trkpt lat="45.30184180475771427154541015625" lon="-70.8648484759032726287841796875">
        <ele>1146.4000244140625</ele>
        <time>2026-08-21T14:44:01.000Z</time>
        <extensions>
          <ns3:TrackPointExtension>
            <ns3:hr>154</ns3:hr>
            <ns3:cad>0</ns3:cad>
          </ns3:TrackPointExtension>
        </extensions>
      </trkpt>
      <trkpt lat="45.301844067871570587158203125" lon="-70.86485191248357295989990234375">
        <ele>1146.4000244140625</ele>
        <time>2026-08-21T14:44:02.000Z</time>
        <extensions>
          <ns3:TrackPointExtension>
            <ns3:hr>154</ns3:hr>
            <ns3:cad>0</ns3:cad>
          </ns3:TrackPointExtension>
        </extensions>
      </trkpt>
      <trkpt lat="45.30184532515704631805419921875" lon="-70.86485962383449077606201171875">
        <ele>1146.4000244140625</ele>
        <time>2026-08-21T14:44:03.000Z</time>
        <extensions>
          <ns3:TrackPointExtension>
            <ns3:hr>154</ns3:hr>
            <ns3:cad>0</ns3:cad>
          </ns3:TrackPointExtension>
        </extensions>
      </trkpt>
      <trkpt lat="45.30185018666088581085205078125" lon="-70.864870436489582061767578125">
        <ele>1146.4000244140625</ele>
        <time>2026-08-21T14:44:04.000Z</time>
        <extensions>
          <ns3:TrackPointExtension>
            <ns3:hr>154</ns3:hr>
            <ns3:cad>0</ns3:cad>
          </ns3:TrackPointExtension>
        </extensions>
      </trkpt>
      <trkpt lat="45.3018563054502010345458984375" lon="-70.8648741245269775390625">
        <ele>1146.5999755859375</ele>
        <time>2026-08-21T14:44:05.000Z</time>
        <extensions>
          <ns3:TrackPointExtension>
            <ns3:hr>153</ns3:hr>
            <ns3:cad>0</ns3:cad>
          </ns3:TrackPointExtension>
        </extensions>
      </trkpt>
      <trkpt lat="45.30185756273567676544189453125" lon="-70.8648736216127872467041015625">
        <ele>1146.5999755859375</ele>
        <time>2026-08-21T14:44:06.000Z</time>
        <extensions>
          <ns3:TrackPointExtension>
            <ns3:hr>153</ns3:hr>
            <ns3:cad>0</ns3:cad>
          </ns3:TrackPointExtension>
        </extensions>
      </trkpt>
      <trkpt lat="45.301854126155376434326171875" lon="-70.8648699335753917694091796875">
        <ele>1146.800048828125</ele>
        <time>2026-08-21T14:44:07.000Z</time>
        <extensions>
          <ns3:TrackPointExtension>
            <ns3:hr>153</ns3:hr>
            <ns3:cad>0</ns3:cad>
          </ns3:TrackPointExtension>
        </extensions>
      </trkpt>
      <trkpt lat="45.30185320414602756500244140625" lon="-70.8648679219186305999755859375">
        <ele>1147</ele>
        <time>2026-08-21T14:44:08.000Z</time>
        <extensions>
          <ns3:TrackPointExtension>
            <ns3:hr>154</ns3:hr>
            <ns3:cad>0</ns3:cad>
          </ns3:TrackPointExtension>
        </extensions>
      </trkpt>
      <trkpt lat="45.3018532879650592803955078125" lon="-70.8648679219186305999755859375">
        <ele>1147</ele>
        <time>2026-08-21T14:44:09.000Z</time>
        <extensions>
          <ns3:TrackPointExtension>
            <ns3:hr>154</ns3:hr>
            <ns3:cad>0</ns3:cad>
          </ns3:TrackPointExtension>
        </extensions>
      </trkpt>
      <trkpt lat="45.30185437761247158050537109375" lon="-70.86487152613699436187744140625">
        <ele>1147</ele>
        <time>2026-08-21T14:44:10.000Z</time>
        <extensions>
          <ns3:TrackPointExtension>
            <ns3:hr>154</ns3:hr>
            <ns3:cad>0</ns3:cad>
          </ns3:TrackPointExtension>
        </extensions>
      </trkpt>
      <trkpt lat="45.3018598258495330810546875" lon="-70.8648806624114513397216796875">
        <ele>1147.199951171875</ele>
        <time>2026-08-21T14:44:11.000Z</time>
        <extensions>
          <ns3:TrackPointExtension>
            <ns3:hr>153</ns3:hr>
            <ns3:cad>0</ns3:cad>
          </ns3:TrackPointExtension>
        </extensions>
      </trkpt>
      <trkpt lat="45.30186242423951625823974609375" lon="-70.8648937381803989410400390625">
        <ele>1147.199951171875</ele>
        <time>2026-08-21T14:44:12.000Z</time>
        <extensions>
          <ns3:TrackPointExtension>
            <ns3:hr>153</ns3:hr>
            <ns3:cad>0</ns3:cad>
          </ns3:TrackPointExtension>
        </extensions>
      </trkpt>
      <trkpt lat="45.301866196095943450927734375" lon="-70.8649048022925853729248046875">
        <ele>1147.4000244140625</ele>
        <time>2026-08-21T14:44:13.000Z</time>
        <extensions>
          <ns3:TrackPointExtension>
            <ns3:hr>152</ns3:hr>
            <ns3:cad>0</ns3:cad>
          </ns3:TrackPointExtension>
        </extensions>
      </trkpt>
      <trkpt lat="45.30187047086656093597412109375" lon="-70.864917375147342681884765625">
        <ele>1147.5999755859375</ele>
        <time>2026-08-21T14:44:14.000Z</time>
        <extensions>
          <ns3:TrackPointExtension>
            <ns3:hr>152</ns3:hr>
            <ns3:cad>0</ns3:cad>
          </ns3:TrackPointExtension>
        </extensions>
      </trkpt>
      <trkpt lat="45.30187164433300495147705078125" lon="-70.86492517031729221343994140625">
        <ele>1147.800048828125</ele>
        <time>2026-08-21T14:44:15.000Z</time>
        <extensions>
          <ns3:TrackPointExtension>
            <ns3:hr>152</ns3:hr>
            <ns3:cad>0</ns3:cad>
          </ns3:TrackPointExtension>
        </extensions>
      </trkpt>
      <trkpt lat="45.30187516473233699798583984375" lon="-70.8649430237710475921630859375">
        <ele>1148</ele>
        <time>2026-08-21T14:44:16.000Z</time>
        <extensions>
          <ns3:TrackPointExtension>
            <ns3:hr>152</ns3:hr>
            <ns3:cad>0</ns3:cad>
          </ns3:TrackPointExtension>
        </extensions>
      </trkpt>
      <trkpt lat="45.301878936588764190673828125" lon="-70.86495366878807544708251953125">
        <ele>1148.199951171875</ele>
        <time>2026-08-21T14:44:17.000Z</time>
        <extensions>
          <ns3:TrackPointExtension>
            <ns3:hr>151</ns3:hr>
            <ns3:cad>0</ns3:cad>
          </ns3:TrackPointExtension>
        </extensions>
      </trkpt>
      <trkpt lat="45.301879942417144775390625" lon="-70.8649614639580249786376953125">
        <ele>1148.4000244140625</ele>
        <time>2026-08-21T14:44:18.000Z</time>
        <extensions>
          <ns3:TrackPointExtension>
            <ns3:hr>150</ns3:hr>
            <ns3:cad>0</ns3:cad>
          </ns3:TrackPointExtension>
        </extensions>
      </trkpt>
      <trkpt lat="45.3018844686448574066162109375" lon="-70.86497244425117969512939453125">
        <ele>1148.800048828125</ele>
        <time>2026-08-21T14:44:19.000Z</time>
        <extensions>
          <ns3:TrackPointExtension>
            <ns3:hr>150</ns3:hr>
            <ns3:cad>0</ns3:cad>
          </ns3:TrackPointExtension>
        </extensions>
      </trkpt>
      <trkpt lat="45.30189041979610919952392578125" lon="-70.864984430372714996337890625">
        <ele>1149</ele>
        <time>2026-08-21T14:44:20.000Z</time>
        <extensions>
          <ns3:TrackPointExtension>
            <ns3:hr>150</ns3:hr>
            <ns3:cad>0</ns3:cad>
          </ns3:TrackPointExtension>
        </extensions>
      </trkpt>
      <trkpt lat="45.301894359290599822998046875" lon="-70.86500043980777263641357421875">
        <ele>1149.199951171875</ele>
        <time>2026-08-21T14:44:21.000Z</time>
        <extensions>
          <ns3:TrackPointExtension>
            <ns3:hr>150</ns3:hr>
            <ns3:cad>0</ns3:cad>
          </ns3:TrackPointExtension>
        </extensions>
      </trkpt>
      <trkpt lat="45.301895700395107269287109375" lon="-70.86500898934900760650634765625">
        <ele>1149.5999755859375</ele>
        <time>2026-08-21T14:44:22.000Z</time>
        <extensions>
          <ns3:TrackPointExtension>
            <ns3:hr>150</ns3:hr>
            <ns3:cad>0</ns3:cad>
          </ns3:TrackPointExtension>
        </extensions>
      </trkpt>
      <trkpt lat="45.3019015677273273468017578125" lon="-70.86502491496503353118896484375">
        <ele>1149.800048828125</ele>
        <time>2026-08-21T14:44:23.000Z</time>
        <extensions>
          <ns3:TrackPointExtension>
            <ns3:hr>150</ns3:hr>
            <ns3:cad>0</ns3:cad>
          </ns3:TrackPointExtension>
        </extensions>
      </trkpt>
      <trkpt lat="45.3019059263169765472412109375" lon="-70.8650348894298076629638671875">
        <ele>1150</ele>
        <time>2026-08-21T14:44:24.000Z</time>
        <extensions>
          <ns3:TrackPointExtension>
            <ns3:hr>150</ns3:hr>
            <ns3:cad>0</ns3:cad>
          </ns3:TrackPointExtension>
        </extensions>
      </trkpt>
      <trkpt lat="45.3019126318395137786865234375" lon="-70.8650419302284717559814453125">
        <ele>1150</ele>
        <time>2026-08-21T14:44:25.000Z</time>
        <extensions>
          <ns3:TrackPointExtension>
            <ns3:hr>150</ns3:hr>
            <ns3:cad>43</ns3:cad>
          </ns3:TrackPointExtension>
        </extensions>
      </trkpt>
      <trkpt lat="45.30192059464752674102783203125" lon="-70.86505223996937274932861328125">
        <ele>1150.199951171875</ele>
        <time>2026-08-21T14:44:26.000Z</time>
        <extensions>
          <ns3:TrackPointExtension>
            <ns3:hr>150</ns3:hr>
            <ns3:cad>43</ns3:cad>
          </ns3:TrackPointExtension>
        </extensions>
      </trkpt>
      <trkpt lat="45.30193367041647434234619140625" lon="-70.8650659024715423583984375">
        <ele>1150.4000244140625</ele>
        <time>2026-08-21T14:44:27.000Z</time>
        <extensions>
          <ns3:TrackPointExtension>
            <ns3:hr>150</ns3:hr>
            <ns3:cad>0</ns3:cad>
          </ns3:TrackPointExtension>
        </extensions>
      </trkpt>
      <trkpt lat="45.30194238759577274322509765625" lon="-70.86507705040276050567626953125">
        <ele>1150.4000244140625</ele>
        <time>2026-08-21T14:44:28.000Z</time>
        <extensions>
          <ns3:TrackPointExtension>
            <ns3:hr>150</ns3:hr>
            <ns3:cad>0</ns3:cad>
          </ns3:TrackPointExtension>
        </extensions>
      </trkpt>
      <trkpt lat="45.301949679851531982421875" lon="-70.8650851808488368988037109375">
        <ele>1150.5999755859375</ele>
        <time>2026-08-21T14:44:29.000Z</time>
        <extensions>
          <ns3:TrackPointExtension>
            <ns3:hr>150</ns3:hr>
            <ns3:cad>0</ns3:cad>
          </ns3:TrackPointExtension>
        </extensions>
      </trkpt>
      <trkpt lat="45.30195646919310092926025390625" lon="-70.8650927245616912841796875">
        <ele>1150.5999755859375</ele>
        <time>2026-08-21T14:44:30.000Z</time>
        <extensions>
          <ns3:TrackPointExtension>
            <ns3:hr>149</ns3:hr>
            <ns3:cad>0</ns3:cad>
          </ns3:TrackPointExtension>
        </extensions>
      </trkpt>
      <trkpt lat="45.30196099542081356048583984375" lon="-70.86510152556002140045166015625">
        <ele>1150.800048828125</ele>
        <time>2026-08-21T14:44:31.000Z</time>
        <extensions>
          <ns3:TrackPointExtension>
            <ns3:hr>149</ns3:hr>
            <ns3:cad>0</ns3:cad>
          </ns3:TrackPointExtension>
        </extensions>
      </trkpt>
      <trkpt lat="45.30196669511497020721435546875" lon="-70.8651143498718738555908203125">
        <ele>1151</ele>
        <time>2026-08-21T14:44:32.000Z</time>
        <extensions>
          <ns3:TrackPointExtension>
            <ns3:hr>149</ns3:hr>
            <ns3:cad>45</ns3:cad>
          </ns3:TrackPointExtension>
        </extensions>
      </trkpt>
      <trkpt lat="45.301972143352031707763671875" lon="-70.86512197740375995635986328125">
        <ele>1151.199951171875</ele>
        <time>2026-08-21T14:44:33.000Z</time>
        <extensions>
          <ns3:TrackPointExtension>
            <ns3:hr>149</ns3:hr>
            <ns3:cad>45</ns3:cad>
          </ns3:TrackPointExtension>
        </extensions>
      </trkpt>
      <trkpt lat="45.30197449028491973876953125" lon="-70.86512826383113861083984375">
        <ele>1151.199951171875</ele>
        <time>2026-08-21T14:44:34.000Z</time>
        <extensions>
          <ns3:TrackPointExtension>
            <ns3:hr>149</ns3:hr>
            <ns3:cad>52</ns3:cad>
          </ns3:TrackPointExtension>
        </extensions>
      </trkpt>
      <trkpt lat="45.3019790165126323699951171875" lon="-70.86513706482946872711181640625">
        <ele>1151.4000244140625</ele>
        <time>2026-08-21T14:44:35.000Z</time>
        <extensions>
          <ns3:TrackPointExtension>
            <ns3:hr>149</ns3:hr>
            <ns3:cad>52</ns3:cad>
          </ns3:TrackPointExtension>
        </extensions>
      </trkpt>
      <trkpt lat="45.30198211781680583953857421875" lon="-70.86514796130359172821044921875">
        <ele>1151.5999755859375</ele>
        <time>2026-08-21T14:44:36.000Z</time>
        <extensions>
          <ns3:TrackPointExtension>
            <ns3:hr>149</ns3:hr>
            <ns3:cad>52</ns3:cad>
          </ns3:TrackPointExtension>
        </extensions>
      </trkpt>
      <trkpt lat="45.30198630876839160919189453125" lon="-70.8651636354625225067138671875">
        <ele>1151.800048828125</ele>
        <time>2026-08-21T14:44:37.000Z</time>
        <extensions>
          <ns3:TrackPointExtension>
            <ns3:hr>150</ns3:hr>
            <ns3:cad>45</ns3:cad>
          </ns3:TrackPointExtension>
        </extensions>
      </trkpt>
      <trkpt lat="45.301990248262882232666015625" lon="-70.86516908369958400726318359375">
        <ele>1152</ele>
        <time>2026-08-21T14:44:38.000Z</time>
        <extensions>
          <ns3:TrackPointExtension>
            <ns3:hr>150</ns3:hr>
            <ns3:cad>45</ns3:cad>
          </ns3:TrackPointExtension>
        </extensions>
      </trkpt>
      <trkpt lat="45.30199326574802398681640625" lon="-70.86517930962145328521728515625">
        <ele>1152</ele>
        <time>2026-08-21T14:44:39.000Z</time>
        <extensions>
          <ns3:TrackPointExtension>
            <ns3:hr>150</ns3:hr>
            <ns3:cad>45</ns3:cad>
          </ns3:TrackPointExtension>
        </extensions>
      </trkpt>
      <trkpt lat="45.301993601024150848388671875" lon="-70.8651881106197834014892578125">
        <ele>1152.199951171875</ele>
        <time>2026-08-21T14:44:40.000Z</time>
        <extensions>
          <ns3:TrackPointExtension>
            <ns3:hr>150</ns3:hr>
            <ns3:cad>44</ns3:cad>
          </ns3:TrackPointExtension>
        </extensions>
      </trkpt>
      <trkpt lat="45.301996283233165740966796875" lon="-70.865195654332637786865234375">
        <ele>1152.4000244140625</ele>
        <time>2026-08-21T14:44:41.000Z</time>
        <extensions>
          <ns3:TrackPointExtension>
            <ns3:hr>150</ns3:hr>
            <ns3:cad>44</ns3:cad>
          </ns3:TrackPointExtension>
        </extensions>
      </trkpt>
      <trkpt lat="45.3020028211176395416259765625" lon="-70.86520294658839702606201171875">
        <ele>1152.800048828125</ele>
        <time>2026-08-21T14:44:42.000Z</time>
        <extensions>
          <ns3:TrackPointExtension>
            <ns3:hr>150</ns3:hr>
            <ns3:cad>0</ns3:cad>
          </ns3:TrackPointExtension>
        </extensions>
      </trkpt>
      <trkpt lat="45.30200558714568614959716796875" lon="-70.86521334014832973480224609375">
        <ele>1153</ele>
        <time>2026-08-21T14:44:43.000Z</time>
        <extensions>
          <ns3:TrackPointExtension>
            <ns3:hr>150</ns3:hr>
            <ns3:cad>0</ns3:cad>
          </ns3:TrackPointExtension>
        </extensions>
      </trkpt>
      <trkpt lat="45.30200324021279811859130859375" lon="-70.86521401070058345794677734375">
        <ele>1153.199951171875</ele>
        <time>2026-08-21T14:44:44.000Z</time>
        <extensions>
          <ns3:TrackPointExtension>
            <ns3:hr>150</ns3:hr>
            <ns3:cad>0</ns3:cad>
          </ns3:TrackPointExtension>
        </extensions>
      </trkpt>
      <trkpt lat="45.30200609005987644195556640625" lon="-70.8652216382324695587158203125">
        <ele>1153.199951171875</ele>
        <time>2026-08-21T14:44:45.000Z</time>
        <extensions>
          <ns3:TrackPointExtension>
            <ns3:hr>150</ns3:hr>
            <ns3:cad>0</ns3:cad>
          </ns3:TrackPointExtension>
        </extensions>
      </trkpt>
      <trkpt lat="45.30201715417206287384033203125" lon="-70.8652253262698650360107421875">
        <ele>1153.4000244140625</ele>
        <time>2026-08-21T14:44:46.000Z</time>
        <extensions>
          <ns3:TrackPointExtension>
            <ns3:hr>150</ns3:hr>
            <ns3:cad>0</ns3:cad>
          </ns3:TrackPointExtension>
        </extensions>
      </trkpt>
      <trkpt lat="45.3020180761814117431640625" lon="-70.86522239260375499725341796875">
        <ele>1153.5999755859375</ele>
        <time>2026-08-21T14:44:47.000Z</time>
        <extensions>
          <ns3:TrackPointExtension>
            <ns3:hr>149</ns3:hr>
            <ns3:cad>0</ns3:cad>
          </ns3:TrackPointExtension>
        </extensions>
      </trkpt>
      <trkpt lat="45.30201380141079425811767578125" lon="-70.86521853692829608917236328125">
        <ele>1153.800048828125</ele>
        <time>2026-08-21T14:44:48.000Z</time>
        <extensions>
          <ns3:TrackPointExtension>
            <ns3:hr>150</ns3:hr>
            <ns3:cad>0</ns3:cad>
          </ns3:TrackPointExtension>
        </extensions>
      </trkpt>
      <trkpt lat="45.30201480723917484283447265625" lon="-70.86522021330893039703369140625">
        <ele>1154</ele>
        <time>2026-08-21T14:44:49.000Z</time>
        <extensions>
          <ns3:TrackPointExtension>
            <ns3:hr>150</ns3:hr>
            <ns3:cad>40</ns3:cad>
          </ns3:TrackPointExtension>
        </extensions>
      </trkpt>
      <trkpt lat="45.30201095156371593475341796875" lon="-70.86522641591727733612060546875">
        <ele>1154.199951171875</ele>
        <time>2026-08-21T14:44:50.000Z</time>
        <extensions>
          <ns3:TrackPointExtension>
            <ns3:hr>150</ns3:hr>
            <ns3:cad>40</ns3:cad>
          </ns3:TrackPointExtension>
        </extensions>
      </trkpt>
      <trkpt lat="45.3020081855356693267822265625" lon="-70.8652373962104320526123046875">
        <ele>1154.4000244140625</ele>
        <time>2026-08-21T14:44:51.000Z</time>
        <extensions>
          <ns3:TrackPointExtension>
            <ns3:hr>150</ns3:hr>
            <ns3:cad>40</ns3:cad>
          </ns3:TrackPointExtension>
        </extensions>
      </trkpt>
      <trkpt lat="45.30200474895536899566650390625" lon="-70.86524083279073238372802734375">
        <ele>1154.5999755859375</ele>
        <time>2026-08-21T14:44:52.000Z</time>
        <extensions>
          <ns3:TrackPointExtension>
            <ns3:hr>150</ns3:hr>
            <ns3:cad>40</ns3:cad>
          </ns3:TrackPointExtension>
        </extensions>
      </trkpt>
      <trkpt lat="45.3019974566996097564697265625" lon="-70.8652414195239543914794921875">
        <ele>1154.800048828125</ele>
        <time>2026-08-21T14:44:53.000Z</time>
        <extensions>
          <ns3:TrackPointExtension>
            <ns3:hr>150</ns3:hr>
            <ns3:cad>40</ns3:cad>
          </ns3:TrackPointExtension>
        </extensions>
      </trkpt>
      <trkpt lat="45.30199217610061168670654296875" lon="-70.865238569676876068115234375">
        <ele>1155</ele>
        <time>2026-08-21T14:44:54.000Z</time>
        <extensions>
          <ns3:TrackPointExtension>
            <ns3:hr>150</ns3:hr>
            <ns3:cad>40</ns3:cad>
          </ns3:TrackPointExtension>
        </extensions>
      </trkpt>
      <trkpt lat="45.30198396183550357818603515625" lon="-70.86523798294365406036376953125">
        <ele>1155.199951171875</ele>
        <time>2026-08-21T14:44:55.000Z</time>
        <extensions>
          <ns3:TrackPointExtension>
            <ns3:hr>150</ns3:hr>
            <ns3:cad>40</ns3:cad>
          </ns3:TrackPointExtension>
        </extensions>
      </trkpt>
      <trkpt lat="45.3019759990274906158447265625" lon="-70.865235216915607452392578125">
        <ele>1155.4000244140625</ele>
        <time>2026-08-21T14:44:56.000Z</time>
        <extensions>
          <ns3:TrackPointExtension>
            <ns3:hr>150</ns3:hr>
            <ns3:cad>42</ns3:cad>
          </ns3:TrackPointExtension>
        </extensions>
      </trkpt>
      <trkpt lat="45.30196099542081356048583984375" lon="-70.8652360551059246063232421875">
        <ele>1155.5999755859375</ele>
        <time>2026-08-21T14:44:57.000Z</time>
        <extensions>
          <ns3:TrackPointExtension>
            <ns3:hr>150</ns3:hr>
            <ns3:cad>42</ns3:cad>
          </ns3:TrackPointExtension>
        </extensions>
      </trkpt>
      <trkpt lat="45.3019558824598789215087890625" lon="-70.86523898877203464508056640625">
        <ele>1155.800048828125</ele>
        <time>2026-08-21T14:44:58.000Z</time>
        <extensions>
          <ns3:TrackPointExtension>
            <ns3:hr>150</ns3:hr>
            <ns3:cad>42</ns3:cad>
          </ns3:TrackPointExtension>
        </extensions>
      </trkpt>
      <trkpt lat="45.301948003470897674560546875" lon="-70.86523898877203464508056640625">
        <ele>1156</ele>
        <time>2026-08-21T14:44:59.000Z</time>
        <extensions>
          <ns3:TrackPointExtension>
            <ns3:hr>150</ns3:hr>
            <ns3:cad>46</ns3:cad>
          </ns3:TrackPointExtension>
        </extensions>
      </trkpt>
      <trkpt lat="45.301941297948360443115234375" lon="-70.86524066515266895294189453125">
        <ele>1156.199951171875</ele>
        <time>2026-08-21T14:45:00.000Z</time>
        <extensions>
          <ns3:TrackPointExtension>
            <ns3:hr>150</ns3:hr>
            <ns3:cad>46</ns3:cad>
          </ns3:TrackPointExtension>
        </extensions>
      </trkpt>
      <trkpt lat="45.301937274634838104248046875" lon="-70.86523764766752719879150390625">
        <ele>1156.4000244140625</ele>
        <time>2026-08-21T14:45:01.000Z</time>
        <extensions>
          <ns3:TrackPointExtension>
            <ns3:hr>150</ns3:hr>
            <ns3:cad>44</ns3:cad>
          </ns3:TrackPointExtension>
        </extensions>
      </trkpt>
      <trkpt lat="45.30192947946488857269287109375" lon="-70.86523731239140033721923828125">
        <ele>1156.5999755859375</ele>
        <time>2026-08-21T14:45:02.000Z</time>
        <extensions>
          <ns3:TrackPointExtension>
            <ns3:hr>150</ns3:hr>
            <ns3:cad>44</ns3:cad>
          </ns3:TrackPointExtension>
        </extensions>
      </trkpt>
      <trkpt lat="45.30192009173333644866943359375" lon="-70.8652320317924022674560546875">
        <ele>1156.5999755859375</ele>
        <time>2026-08-21T14:45:03.000Z</time>
        <extensions>
          <ns3:TrackPointExtension>
            <ns3:hr>150</ns3:hr>
            <ns3:cad>45</ns3:cad>
          </ns3:TrackPointExtension>
        </extensions>
      </trkpt>
      <trkpt lat="45.30190475285053253173828125" lon="-70.865231864154338836669921875">
        <ele>1156.800048828125</ele>
        <time>2026-08-21T14:45:04.000Z</time>
        <extensions>
          <ns3:TrackPointExtension>
            <ns3:hr>150</ns3:hr>
            <ns3:cad>45</ns3:cad>
          </ns3:TrackPointExtension>
        </extensions>
      </trkpt>
      <trkpt lat="45.30189712531864643096923828125" lon="-70.86523714475333690643310546875">
        <ele>1157</ele>
        <time>2026-08-21T14:45:05.000Z</time>
        <extensions>
          <ns3:TrackPointExtension>
            <ns3:hr>150</ns3:hr>
            <ns3:cad>45</ns3:cad>
          </ns3:TrackPointExtension>
        </extensions>
      </trkpt>
      <trkpt lat="45.3018881566822528839111328125" lon="-70.8652397431433200836181640625">
        <ele>1157.199951171875</ele>
        <time>2026-08-21T14:45:06.000Z</time>
        <extensions>
          <ns3:TrackPointExtension>
            <ns3:hr>150</ns3:hr>
            <ns3:cad>45</ns3:cad>
          </ns3:TrackPointExtension>
        </extensions>
      </trkpt>
      <trkpt lat="45.30187189579010009765625" lon="-70.8652397431433200836181640625">
        <ele>1157.4000244140625</ele>
        <time>2026-08-21T14:45:07.000Z</time>
        <extensions>
          <ns3:TrackPointExtension>
            <ns3:hr>150</ns3:hr>
            <ns3:cad>45</ns3:cad>
          </ns3:TrackPointExtension>
        </extensions>
      </trkpt>
      <trkpt lat="45.301860161125659942626953125" lon="-70.865247286856174468994140625">
        <ele>1157.5999755859375</ele>
        <time>2026-08-21T14:45:08.000Z</time>
        <extensions>
          <ns3:TrackPointExtension>
            <ns3:hr>150</ns3:hr>
            <ns3:cad>45</ns3:cad>
          </ns3:TrackPointExtension>
        </extensions>
      </trkpt>
      <trkpt lat="45.30185052193701267242431640625" lon="-70.865257680416107177734375">
        <ele>1157.800048828125</ele>
        <time>2026-08-21T14:45:09.000Z</time>
        <extensions>
          <ns3:TrackPointExtension>
            <ns3:hr>151</ns3:hr>
            <ns3:cad>46</ns3:cad>
          </ns3:TrackPointExtension>
        </extensions>
      </trkpt>
      <trkpt lat="45.3018383681774139404296875" lon="-70.8652648888528347015380859375">
        <ele>1158</ele>
        <time>2026-08-21T14:45:10.000Z</time>
        <extensions>
          <ns3:TrackPointExtension>
            <ns3:hr>152</ns3:hr>
            <ns3:cad>46</ns3:cad>
          </ns3:TrackPointExtension>
        </extensions>
      </trkpt>
      <trkpt lat="45.30183007009327411651611328125" lon="-70.865273773670196533203125">
        <ele>1158.199951171875</ele>
        <time>2026-08-21T14:45:11.000Z</time>
        <extensions>
          <ns3:TrackPointExtension>
            <ns3:hr>152</ns3:hr>
            <ns3:cad>46</ns3:cad>
          </ns3:TrackPointExtension>
        </extensions>
      </trkpt>
      <trkpt lat="45.301822610199451446533203125" lon="-70.86528383195400238037109375">
        <ele>1158.4000244140625</ele>
        <time>2026-08-21T14:45:12.000Z</time>
        <extensions>
          <ns3:TrackPointExtension>
            <ns3:hr>152</ns3:hr>
            <ns3:cad>46</ns3:cad>
          </ns3:TrackPointExtension>
        </extensions>
      </trkpt>
      <trkpt lat="45.30181221663951873779296875" lon="-70.86528676562011241912841796875">
        <ele>1158.5999755859375</ele>
        <time>2026-08-21T14:45:13.000Z</time>
        <extensions>
          <ns3:TrackPointExtension>
            <ns3:hr>152</ns3:hr>
            <ns3:cad>48</ns3:cad>
          </ns3:TrackPointExtension>
        </extensions>
      </trkpt>
      <trkpt lat="45.30179721303284168243408203125" lon="-70.86527871899306774139404296875">
        <ele>1158.800048828125</ele>
        <time>2026-08-21T14:45:14.000Z</time>
        <extensions>
          <ns3:TrackPointExtension>
            <ns3:hr>152</ns3:hr>
            <ns3:cad>48</ns3:cad>
          </ns3:TrackPointExtension>
        </extensions>
      </trkpt>
      <trkpt lat="45.30179235152900218963623046875" lon="-70.86527938954532146453857421875">
        <ele>1159</ele>
        <time>2026-08-21T14:45:15.000Z</time>
        <extensions>
          <ns3:TrackPointExtension>
            <ns3:hr>152</ns3:hr>
            <ns3:cad>48</ns3:cad>
          </ns3:TrackPointExtension>
        </extensions>
      </trkpt>
      <trkpt lat="45.30178363434970378875732421875" lon="-70.86528207175433635711669921875">
        <ele>1159.199951171875</ele>
        <time>2026-08-21T14:45:16.000Z</time>
        <extensions>
          <ns3:TrackPointExtension>
            <ns3:hr>152</ns3:hr>
            <ns3:cad>0</ns3:cad>
          </ns3:TrackPointExtension>
        </extensions>
      </trkpt>
      <trkpt lat="45.30177592299878597259521484375" lon="-70.86528860963881015777587890625">
        <ele>1159.4000244140625</ele>
        <time>2026-08-21T14:45:17.000Z</time>
        <extensions>
          <ns3:TrackPointExtension>
            <ns3:hr>152</ns3:hr>
            <ns3:cad>0</ns3:cad>
          </ns3:TrackPointExtension>
        </extensions>
      </trkpt>
      <trkpt lat="45.30176452361047267913818359375" lon="-70.86529531516134738922119140625">
        <ele>1159.5999755859375</ele>
        <time>2026-08-21T14:45:18.000Z</time>
        <extensions>
          <ns3:TrackPointExtension>
            <ns3:hr>152</ns3:hr>
            <ns3:cad>0</ns3:cad>
          </ns3:TrackPointExtension>
        </extensions>
      </trkpt>
      <trkpt lat="45.3017560578882694244384765625" lon="-70.865300931036472320556640625">
        <ele>1159.800048828125</ele>
        <time>2026-08-21T14:45:19.000Z</time>
        <extensions>
          <ns3:TrackPointExtension>
            <ns3:hr>152</ns3:hr>
            <ns3:cad>0</ns3:cad>
          </ns3:TrackPointExtension>
        </extensions>
      </trkpt>
      <trkpt lat="45.30174926854670047760009765625" lon="-70.86531325243413448333740234375">
        <ele>1160</ele>
        <time>2026-08-21T14:45:20.000Z</time>
        <extensions>
          <ns3:TrackPointExtension>
            <ns3:hr>152</ns3:hr>
            <ns3:cad>43</ns3:cad>
          </ns3:TrackPointExtension>
        </extensions>
      </trkpt>
      <trkpt lat="45.30173988081514835357666015625" lon="-70.86531928740441799163818359375">
        <ele>1160.199951171875</ele>
        <time>2026-08-21T14:45:21.000Z</time>
        <extensions>
          <ns3:TrackPointExtension>
            <ns3:hr>152</ns3:hr>
            <ns3:cad>43</ns3:cad>
          </ns3:TrackPointExtension>
        </extensions>
      </trkpt>
      <trkpt lat="45.301730744540691375732421875" lon="-70.8653262443840503692626953125">
        <ele>1160.4000244140625</ele>
        <time>2026-08-21T14:45:22.000Z</time>
        <extensions>
          <ns3:TrackPointExtension>
            <ns3:hr>152</ns3:hr>
            <ns3:cad>43</ns3:cad>
          </ns3:TrackPointExtension>
        </extensions>
      </trkpt>
      <trkpt lat="45.3017221949994564056396484375" lon="-70.865331105887889862060546875">
        <ele>1160.800048828125</ele>
        <time>2026-08-21T14:45:23.000Z</time>
        <extensions>
          <ns3:TrackPointExtension>
            <ns3:hr>152</ns3:hr>
            <ns3:cad>43</ns3:cad>
          </ns3:TrackPointExtension>
        </extensions>
      </trkpt>
      <trkpt lat="45.30171389691531658172607421875" lon="-70.865333117544651031494140625">
        <ele>1161</ele>
        <time>2026-08-21T14:45:24.000Z</time>
        <extensions>
          <ns3:TrackPointExtension>
            <ns3:hr>152</ns3:hr>
            <ns3:cad>43</ns3:cad>
          </ns3:TrackPointExtension>
        </extensions>
      </trkpt>
      <trkpt lat="45.30170903541147708892822265625" lon="-70.86534493602812290191650390625">
        <ele>1161.199951171875</ele>
        <time>2026-08-21T14:45:25.000Z</time>
        <extensions>
          <ns3:TrackPointExtension>
            <ns3:hr>152</ns3:hr>
            <ns3:cad>43</ns3:cad>
          </ns3:TrackPointExtension>
        </extensions>
      </trkpt>
      <trkpt lat="45.30169931240379810333251953125" lon="-70.86535356938838958740234375">
        <ele>1161.4000244140625</ele>
        <time>2026-08-21T14:45:26.000Z</time>
        <extensions>
          <ns3:TrackPointExtension>
            <ns3:hr>152</ns3:hr>
            <ns3:cad>43</ns3:cad>
          </ns3:TrackPointExtension>
        </extensions>
      </trkpt>
      <trkpt lat="45.3016906790435314178466796875" lon="-70.865359269082546234130859375">
        <ele>1161.5999755859375</ele>
        <time>2026-08-21T14:45:27.000Z</time>
        <extensions>
          <ns3:TrackPointExtension>
            <ns3:hr>152</ns3:hr>
            <ns3:cad>43</ns3:cad>
          </ns3:TrackPointExtension>
        </extensions>
      </trkpt>
      <trkpt lat="45.30168883502483367919921875" lon="-70.8653654716908931732177734375">
        <ele>1161.800048828125</ele>
        <time>2026-08-21T14:45:28.000Z</time>
        <extensions>
          <ns3:TrackPointExtension>
            <ns3:hr>151</ns3:hr>
            <ns3:cad>47</ns3:cad>
          </ns3:TrackPointExtension>
        </extensions>
      </trkpt>
      <trkpt lat="45.301681123673915863037109375" lon="-70.86537393741309642791748046875">
        <ele>1162</ele>
        <time>2026-08-21T14:45:29.000Z</time>
        <extensions>
          <ns3:TrackPointExtension>
            <ns3:hr>151</ns3:hr>
            <ns3:cad>47</ns3:cad>
          </ns3:TrackPointExtension>
        </extensions>
      </trkpt>
      <trkpt lat="45.3016722388565540313720703125" lon="-70.86537376977503299713134765625">
        <ele>1162.199951171875</ele>
        <time>2026-08-21T14:45:30.000Z</time>
        <extensions>
          <ns3:TrackPointExtension>
            <ns3:hr>151</ns3:hr>
            <ns3:cad>47</ns3:cad>
          </ns3:TrackPointExtension>
        </extensions>
      </trkpt>
      <trkpt lat="45.301662348210811614990234375" lon="-70.86537796072661876678466796875">
        <ele>1162.4000244140625</ele>
        <time>2026-08-21T14:45:31.000Z</time>
        <extensions>
          <ns3:TrackPointExtension>
            <ns3:hr>150</ns3:hr>
            <ns3:cad>47</ns3:cad>
          </ns3:TrackPointExtension>
        </extensions>
      </trkpt>
      <trkpt lat="45.301654636859893798828125" lon="-70.86538181640207767486572265625">
        <ele>1162.5999755859375</ele>
        <time>2026-08-21T14:45:32.000Z</time>
        <extensions>
          <ns3:TrackPointExtension>
            <ns3:hr>150</ns3:hr>
            <ns3:cad>47</ns3:cad>
          </ns3:TrackPointExtension>
        </extensions>
      </trkpt>
      <trkpt lat="45.30164365656673908233642578125" lon="-70.86538349278271198272705078125">
        <ele>1162.800048828125</ele>
        <time>2026-08-21T14:45:33.000Z</time>
        <extensions>
          <ns3:TrackPointExtension>
            <ns3:hr>150</ns3:hr>
            <ns3:cad>46</ns3:cad>
          </ns3:TrackPointExtension>
        </extensions>
      </trkpt>
      <trkpt lat="45.30163141898810863494873046875" lon="-70.8653872646391391754150390625">
        <ele>1162.800048828125</ele>
        <time>2026-08-21T14:45:34.000Z</time>
        <extensions>
          <ns3:TrackPointExtension>
            <ns3:hr>150</ns3:hr>
            <ns3:cad>46</ns3:cad>
          </ns3:TrackPointExtension>
        </extensions>
      </trkpt>
      <trkpt lat="45.30162136070430278778076171875" lon="-70.86539388634264469146728515625">
        <ele>1163</ele>
        <time>2026-08-21T14:45:35.000Z</time>
        <extensions>
          <ns3:TrackPointExtension>
            <ns3:hr>150</ns3:hr>
            <ns3:cad>46</ns3:cad>
          </ns3:TrackPointExtension>
        </extensions>
      </trkpt>
      <trkpt lat="45.30161214061081409454345703125" lon="-70.86540746502578258514404296875">
        <ele>1163.199951171875</ele>
        <time>2026-08-21T14:45:36.000Z</time>
        <extensions>
          <ns3:TrackPointExtension>
            <ns3:hr>150</ns3:hr>
            <ns3:cad>46</ns3:cad>
          </ns3:TrackPointExtension>
        </extensions>
      </trkpt>
      <trkpt lat="45.30160493217408657073974609375" lon="-70.865419618785381317138671875">
        <ele>1163.4000244140625</ele>
        <time>2026-08-21T14:45:37.000Z</time>
        <extensions>
          <ns3:TrackPointExtension>
            <ns3:hr>151</ns3:hr>
            <ns3:cad>46</ns3:cad>
          </ns3:TrackPointExtension>
        </extensions>
      </trkpt>
      <trkpt lat="45.30161197297275066375732421875" lon="-70.86542439647018909454345703125">
        <ele>1163.4000244140625</ele>
        <time>2026-08-21T14:45:38.000Z</time>
        <extensions>
          <ns3:TrackPointExtension>
            <ns3:hr>150</ns3:hr>
            <ns3:cad>46</ns3:cad>
          </ns3:TrackPointExtension>
        </extensions>
      </trkpt>
      <trkpt lat="45.30161046423017978668212890625" lon="-70.865432359278202056884765625">
        <ele>1163.5999755859375</ele>
        <time>2026-08-21T14:45:39.000Z</time>
        <extensions>
          <ns3:TrackPointExtension>
            <ns3:hr>150</ns3:hr>
            <ns3:cad>46</ns3:cad>
          </ns3:TrackPointExtension>
        </extensions>
      </trkpt>
      <trkpt lat="45.301607362926006317138671875" lon="-70.86543479003012180328369140625">
        <ele>1163.5999755859375</ele>
        <time>2026-08-21T14:45:40.000Z</time>
        <extensions>
          <ns3:TrackPointExtension>
            <ns3:hr>150</ns3:hr>
            <ns3:cad>44</ns3:cad>
          </ns3:TrackPointExtension>
        </extensions>
      </trkpt>
      <trkpt lat="45.3016031719744205474853515625" lon="-70.86544300429522991180419921875">
        <ele>1163.5999755859375</ele>
        <time>2026-08-21T14:45:41.000Z</time>
        <extensions>
          <ns3:TrackPointExtension>
            <ns3:hr>150</ns3:hr>
            <ns3:cad>44</ns3:cad>
          </ns3:TrackPointExtension>
        </extensions>
      </trkpt>
      <trkpt lat="45.3015969693660736083984375" lon="-70.86544551886618137359619140625">
        <ele>1163.800048828125</ele>
        <time>2026-08-21T14:45:42.000Z</time>
        <extensions>
          <ns3:TrackPointExtension>
            <ns3:hr>150</ns3:hr>
            <ns3:cad>0</ns3:cad>
          </ns3:TrackPointExtension>
        </extensions>
      </trkpt>
      <trkpt lat="45.301590599119663238525390625" lon="-70.8654496259987354278564453125">
        <ele>1164</ele>
        <time>2026-08-21T14:45:43.000Z</time>
        <extensions>
          <ns3:TrackPointExtension>
            <ns3:hr>150</ns3:hr>
            <ns3:cad>0</ns3:cad>
          </ns3:TrackPointExtension>
        </extensions>
      </trkpt>
      <trkpt lat="45.30158196575939655303955078125" lon="-70.86545909754931926727294921875">
        <ele>1164</ele>
        <time>2026-08-21T14:45:44.000Z</time>
        <extensions>
          <ns3:TrackPointExtension>
            <ns3:hr>150</ns3:hr>
            <ns3:cad>0</ns3:cad>
          </ns3:TrackPointExtension>
        </extensions>
      </trkpt>
      <trkpt lat="45.30157224275171756744384765625" lon="-70.86547401733696460723876953125">
        <ele>1164.199951171875</ele>
        <time>2026-08-21T14:45:45.000Z</time>
        <extensions>
          <ns3:TrackPointExtension>
            <ns3:hr>149</ns3:hr>
            <ns3:cad>0</ns3:cad>
          </ns3:TrackPointExtension>
        </extensions>
      </trkpt>
      <trkpt lat="45.30156805180013179779052734375" lon="-70.865483321249485015869140625">
        <ele>1164.4000244140625</ele>
        <time>2026-08-21T14:45:46.000Z</time>
        <extensions>
          <ns3:TrackPointExtension>
            <ns3:hr>149</ns3:hr>
            <ns3:cad>0</ns3:cad>
          </ns3:TrackPointExtension>
        </extensions>
      </trkpt>
      <trkpt lat="45.30157056637108325958251953125" lon="-70.86548902094364166259765625">
        <ele>1164.5999755859375</ele>
        <time>2026-08-21T14:45:47.000Z</time>
        <extensions>
          <ns3:TrackPointExtension>
            <ns3:hr>148</ns3:hr>
            <ns3:cad>0</ns3:cad>
          </ns3:TrackPointExtension>
        </extensions>
      </trkpt>
      <trkpt lat="45.30157056637108325958251953125" lon="-70.86550469510257244110107421875">
        <ele>1164.800048828125</ele>
        <time>2026-08-21T14:45:48.000Z</time>
        <extensions>
          <ns3:TrackPointExtension>
            <ns3:hr>148</ns3:hr>
            <ns3:cad>0</ns3:cad>
          </ns3:TrackPointExtension>
        </extensions>
      </trkpt>
      <trkpt lat="45.30156419612467288970947265625" lon="-70.865518860518932342529296875">
        <ele>1165</ele>
        <time>2026-08-21T14:45:49.000Z</time>
        <extensions>
          <ns3:TrackPointExtension>
            <ns3:hr>148</ns3:hr>
            <ns3:cad>0</ns3:cad>
          </ns3:TrackPointExtension>
        </extensions>
      </trkpt>
      <trkpt lat="45.30156000517308712005615234375" lon="-70.86552514694631099700927734375">
        <ele>1165.199951171875</ele>
        <time>2026-08-21T14:45:50.000Z</time>
        <extensions>
          <ns3:TrackPointExtension>
            <ns3:hr>147</ns3:hr>
            <ns3:cad>62</ns3:cad>
          </ns3:TrackPointExtension>
        </extensions>
      </trkpt>
      <trkpt lat="45.30155464075505733489990234375" lon="-70.865529589354991912841796875">
        <ele>1165.4000244140625</ele>
        <time>2026-08-21T14:45:51.000Z</time>
        <extensions>
          <ns3:TrackPointExtension>
            <ns3:hr>147</ns3:hr>
            <ns3:cad>62</ns3:cad>
          </ns3:TrackPointExtension>
        </extensions>
      </trkpt>
      <trkpt lat="45.3015508688986301422119140625" lon="-70.865540988743305206298828125">
        <ele>1165.5999755859375</ele>
        <time>2026-08-21T14:45:52.000Z</time>
        <extensions>
          <ns3:TrackPointExtension>
            <ns3:hr>147</ns3:hr>
            <ns3:cad>62</ns3:cad>
          </ns3:TrackPointExtension>
        </extensions>
      </trkpt>
      <trkpt lat="45.3015488572418689727783203125" lon="-70.86554995737969875335693359375">
        <ele>1165.800048828125</ele>
        <time>2026-08-21T14:45:53.000Z</time>
        <extensions>
          <ns3:TrackPointExtension>
            <ns3:hr>148</ns3:hr>
            <ns3:cad>62</ns3:cad>
          </ns3:TrackPointExtension>
        </extensions>
      </trkpt>
      <trkpt lat="45.301547683775424957275390625" lon="-70.8655599318444728851318359375">
        <ele>1166.199951171875</ele>
        <time>2026-08-21T14:45:54.000Z</time>
        <extensions>
          <ns3:TrackPointExtension>
            <ns3:hr>148</ns3:hr>
            <ns3:cad>62</ns3:cad>
          </ns3:TrackPointExtension>
        </extensions>
      </trkpt>
      <trkpt lat="45.30154324136674404144287109375" lon="-70.865568481385707855224609375">
        <ele>1166.4000244140625</ele>
        <time>2026-08-21T14:45:55.000Z</time>
        <extensions>
          <ns3:TrackPointExtension>
            <ns3:hr>148</ns3:hr>
            <ns3:cad>62</ns3:cad>
          </ns3:TrackPointExtension>
        </extensions>
      </trkpt>
      <trkpt lat="45.30153972096741199493408203125" lon="-70.86558164097368717193603515625">
        <ele>1166.4000244140625</ele>
        <time>2026-08-21T14:45:56.000Z</time>
        <extensions>
          <ns3:TrackPointExtension>
            <ns3:hr>148</ns3:hr>
            <ns3:cad>62</ns3:cad>
          </ns3:TrackPointExtension>
        </extensions>
      </trkpt>
      <trkpt lat="45.30153452418744564056396484375" lon="-70.86559471674263477325439453125">
        <ele>1166.5999755859375</ele>
        <time>2026-08-21T14:45:57.000Z</time>
        <extensions>
          <ns3:TrackPointExtension>
            <ns3:hr>148</ns3:hr>
            <ns3:cad>0</ns3:cad>
          </ns3:TrackPointExtension>
        </extensions>
      </trkpt>
      <trkpt lat="45.3015300817787647247314453125" lon="-70.86560209281742572784423828125">
        <ele>1166.800048828125</ele>
        <time>2026-08-21T14:45:58.000Z</time>
        <extensions>
          <ns3:TrackPointExtension>
            <ns3:hr>147</ns3:hr>
            <ns3:cad>0</ns3:cad>
          </ns3:TrackPointExtension>
        </extensions>
      </trkpt>
      <trkpt lat="45.30152924358844757080078125" lon="-70.86561617441475391387939453125">
        <ele>1167</ele>
        <time>2026-08-21T14:45:59.000Z</time>
        <extensions>
          <ns3:TrackPointExtension>
            <ns3:hr>147</ns3:hr>
            <ns3:cad>43</ns3:cad>
          </ns3:TrackPointExtension>
        </extensions>
      </trkpt>
      <trkpt lat="45.3015257231891155242919921875" lon="-70.86562941782176494598388671875">
        <ele>1167.199951171875</ele>
        <time>2026-08-21T14:46:00.000Z</time>
        <extensions>
          <ns3:TrackPointExtension>
            <ns3:hr>147</ns3:hr>
            <ns3:cad>43</ns3:cad>
          </ns3:TrackPointExtension>
        </extensions>
      </trkpt>
      <trkpt lat="45.301521532237529754638671875" lon="-70.86564701981842517852783203125">
        <ele>1167.199951171875</ele>
        <time>2026-08-21T14:46:01.000Z</time>
        <extensions>
          <ns3:TrackPointExtension>
            <ns3:hr>148</ns3:hr>
            <ns3:cad>43</ns3:cad>
          </ns3:TrackPointExtension>
        </extensions>
      </trkpt>
      <trkpt lat="45.301522202789783477783203125" lon="-70.86565942503511905670166015625">
        <ele>1167.4000244140625</ele>
        <time>2026-08-21T14:46:02.000Z</time>
        <extensions>
          <ns3:TrackPointExtension>
            <ns3:hr>148</ns3:hr>
            <ns3:cad>43</ns3:cad>
          </ns3:TrackPointExtension>
        </extensions>
      </trkpt>
      <trkpt lat="45.30152664519846439361572265625" lon="-70.86567048914730548858642578125">
        <ele>1167.5999755859375</ele>
        <time>2026-08-21T14:46:03.000Z</time>
        <extensions>
          <ns3:TrackPointExtension>
            <ns3:hr>148</ns3:hr>
            <ns3:cad>43</ns3:cad>
          </ns3:TrackPointExtension>
        </extensions>
      </trkpt>
      <trkpt lat="45.30153033323585987091064453125" lon="-70.86568121798336505889892578125">
        <ele>1167.800048828125</ele>
        <time>2026-08-21T14:46:04.000Z</time>
        <extensions>
          <ns3:TrackPointExtension>
            <ns3:hr>148</ns3:hr>
            <ns3:cad>0</ns3:cad>
          </ns3:TrackPointExtension>
        </extensions>
      </trkpt>
      <trkpt lat="45.30153594911098480224609375" lon="-70.8656963892281055450439453125">
        <ele>1168</ele>
        <time>2026-08-21T14:46:05.000Z</time>
        <extensions>
          <ns3:TrackPointExtension>
            <ns3:hr>148</ns3:hr>
            <ns3:cad>0</ns3:cad>
          </ns3:TrackPointExtension>
        </extensions>
      </trkpt>
      <trkpt lat="45.301538296043872833251953125" lon="-70.86570301093161106109619140625">
        <ele>1168.4000244140625</ele>
        <time>2026-08-21T14:46:06.000Z</time>
        <extensions>
          <ns3:TrackPointExtension>
            <ns3:hr>148</ns3:hr>
            <ns3:cad>0</ns3:cad>
          </ns3:TrackPointExtension>
        </extensions>
      </trkpt>
      <trkpt lat="45.30154089443385601043701171875" lon="-70.86570921353995800018310546875">
        <ele>1168.5999755859375</ele>
        <time>2026-08-21T14:46:07.000Z</time>
        <extensions>
          <ns3:TrackPointExtension>
            <ns3:hr>148</ns3:hr>
            <ns3:cad>43</ns3:cad>
          </ns3:TrackPointExtension>
        </extensions>
      </trkpt>
      <trkpt lat="45.30154106207191944122314453125" lon="-70.865722708404064178466796875">
        <ele>1168.800048828125</ele>
        <time>2026-08-21T14:46:08.000Z</time>
        <extensions>
          <ns3:TrackPointExtension>
            <ns3:hr>148</ns3:hr>
            <ns3:cad>43</ns3:cad>
          </ns3:TrackPointExtension>
        </extensions>
      </trkpt>
      <trkpt lat="45.30154391191899776458740234375" lon="-70.86573368869721889495849609375">
        <ele>1169</ele>
        <time>2026-08-21T14:46:09.000Z</time>
        <extensions>
          <ns3:TrackPointExtension>
            <ns3:hr>148</ns3:hr>
            <ns3:cad>43</ns3:cad>
          </ns3:TrackPointExtension>
        </extensions>
      </trkpt>
      <trkpt lat="45.30154776759445667266845703125" lon="-70.86574441753327846527099609375">
        <ele>1169.199951171875</ele>
        <time>2026-08-21T14:46:10.000Z</time>
        <extensions>
          <ns3:TrackPointExtension>
            <ns3:hr>148</ns3:hr>
            <ns3:cad>43</ns3:cad>
          </ns3:TrackPointExtension>
        </extensions>
      </trkpt>
      <trkpt lat="45.3015508688986301422119140625" lon="-70.86575330235064029693603515625">
        <ele>1169.4000244140625</ele>
        <time>2026-08-21T14:46:11.000Z</time>
        <extensions>
          <ns3:TrackPointExtension>
            <ns3:hr>148</ns3:hr>
            <ns3:cad>0</ns3:cad>
          </ns3:TrackPointExtension>
        </extensions>
      </trkpt>
      <trkpt lat="45.30155531130731105804443359375" lon="-70.865766294300556182861328125">
        <ele>1169.5999755859375</ele>
        <time>2026-08-21T14:46:12.000Z</time>
        <extensions>
          <ns3:TrackPointExtension>
            <ns3:hr>148</ns3:hr>
            <ns3:cad>0</ns3:cad>
          </ns3:TrackPointExtension>
        </extensions>
      </trkpt>
      <trkpt lat="45.301563441753387451171875" lon="-70.8657765202224254608154296875">
        <ele>1169.800048828125</ele>
        <time>2026-08-21T14:46:13.000Z</time>
        <extensions>
          <ns3:TrackPointExtension>
            <ns3:hr>147</ns3:hr>
            <ns3:cad>0</ns3:cad>
          </ns3:TrackPointExtension>
        </extensions>
      </trkpt>
      <trkpt lat="45.301571153104305267333984375" lon="-70.865781717002391815185546875">
        <ele>1169.800048828125</ele>
        <time>2026-08-21T14:46:14.000Z</time>
        <extensions>
          <ns3:TrackPointExtension>
            <ns3:hr>148</ns3:hr>
            <ns3:cad>42</ns3:cad>
          </ns3:TrackPointExtension>
        </extensions>
      </trkpt>
      <trkpt lat="45.301579199731349945068359375" lon="-70.86578330956399440765380859375">
        <ele>1170</ele>
        <time>2026-08-21T14:46:15.000Z</time>
        <extensions>
          <ns3:TrackPointExtension>
            <ns3:hr>148</ns3:hr>
            <ns3:cad>42</ns3:cad>
          </ns3:TrackPointExtension>
        </extensions>
      </trkpt>
      <trkpt lat="45.30158766545355319976806640625" lon="-70.86578817106783390045166015625">
        <ele>1170.199951171875</ele>
        <time>2026-08-21T14:46:16.000Z</time>
        <extensions>
          <ns3:TrackPointExtension>
            <ns3:hr>148</ns3:hr>
            <ns3:cad>42</ns3:cad>
          </ns3:TrackPointExtension>
        </extensions>
      </trkpt>
      <trkpt lat="45.3015983104705810546875" lon="-70.86578942835330963134765625">
        <ele>1170.199951171875</ele>
        <time>2026-08-21T14:46:17.000Z</time>
        <extensions>
          <ns3:TrackPointExtension>
            <ns3:hr>148</ns3:hr>
            <ns3:cad>42</ns3:cad>
          </ns3:TrackPointExtension>
        </extensions>
      </trkpt>
      <trkpt lat="45.30160660855472087860107421875" lon="-70.8657889254391193389892578125">
        <ele>1170.4000244140625</ele>
        <time>2026-08-21T14:46:18.000Z</time>
        <extensions>
          <ns3:TrackPointExtension>
            <ns3:hr>148</ns3:hr>
            <ns3:cad>42</ns3:cad>
          </ns3:TrackPointExtension>
        </extensions>
      </trkpt>
      <trkpt lat="45.3016145713627338409423828125" lon="-70.86578682996332645416259765625">
        <ele>1170.5999755859375</ele>
        <time>2026-08-21T14:46:19.000Z</time>
        <extensions>
          <ns3:TrackPointExtension>
            <ns3:hr>148</ns3:hr>
            <ns3:cad>45</ns3:cad>
          </ns3:TrackPointExtension>
        </extensions>
      </trkpt>
      <trkpt lat="45.30162714421749114990234375" lon="-70.86578942835330963134765625">
        <ele>1170.800048828125</ele>
        <time>2026-08-21T14:46:20.000Z</time>
        <extensions>
          <ns3:TrackPointExtension>
            <ns3:hr>148</ns3:hr>
            <ns3:cad>45</ns3:cad>
          </ns3:TrackPointExtension>
        </extensions>
      </trkpt>
      <trkpt lat="45.3016398847103118896484375" lon="-70.86579554714262485504150390625">
        <ele>1170.800048828125</ele>
        <time>2026-08-21T14:46:21.000Z</time>
        <extensions>
          <ns3:TrackPointExtension>
            <ns3:hr>149</ns3:hr>
            <ns3:cad>0</ns3:cad>
          </ns3:TrackPointExtension>
        </extensions>
      </trkpt>
      <trkpt lat="45.30165203846991062164306640625" lon="-70.865801833570003509521484375">
        <ele>1171</ele>
        <time>2026-08-21T14:46:22.000Z</time>
        <extensions>
          <ns3:TrackPointExtension>
            <ns3:hr>149</ns3:hr>
            <ns3:cad>47</ns3:cad>
          </ns3:TrackPointExtension>
        </extensions>
      </trkpt>
      <trkpt lat="45.30165958218276500701904296875" lon="-70.86580426432192325592041015625">
        <ele>1171</ele>
        <time>2026-08-21T14:46:23.000Z</time>
        <extensions>
          <ns3:TrackPointExtension>
            <ns3:hr>150</ns3:hr>
            <ns3:cad>47</ns3:cad>
          </ns3:TrackPointExtension>
        </extensions>
      </trkpt>
      <trkpt lat="45.30167014338076114654541015625" lon="-70.8658117242157459259033203125">
        <ele>1171.199951171875</ele>
        <time>2026-08-21T14:46:24.000Z</time>
        <extensions>
          <ns3:TrackPointExtension>
            <ns3:hr>150</ns3:hr>
            <ns3:cad>47</ns3:cad>
          </ns3:TrackPointExtension>
        </extensions>
      </trkpt>
      <trkpt lat="45.30168103985488414764404296875" lon="-70.8658207766711711883544921875">
        <ele>1171.199951171875</ele>
        <time>2026-08-21T14:46:25.000Z</time>
        <extensions>
          <ns3:TrackPointExtension>
            <ns3:hr>150</ns3:hr>
            <ns3:cad>47</ns3:cad>
          </ns3:TrackPointExtension>
        </extensions>
      </trkpt>
      <trkpt lat="45.30168749392032623291015625" lon="-70.86582706309854984283447265625">
        <ele>1171.4000244140625</ele>
        <time>2026-08-21T14:46:26.000Z</time>
        <extensions>
          <ns3:TrackPointExtension>
            <ns3:hr>150</ns3:hr>
            <ns3:cad>45</ns3:cad>
          </ns3:TrackPointExtension>
        </extensions>
      </trkpt>
      <trkpt lat="45.301693864166736602783203125" lon="-70.8658341877162456512451171875">
        <ele>1171.4000244140625</ele>
        <time>2026-08-21T14:46:27.000Z</time>
        <extensions>
          <ns3:TrackPointExtension>
            <ns3:hr>150</ns3:hr>
            <ns3:cad>45</ns3:cad>
          </ns3:TrackPointExtension>
        </extensions>
      </trkpt>
      <trkpt lat="45.30169688165187835693359375" lon="-70.86584332399070262908935546875">
        <ele>1171.5999755859375</ele>
        <time>2026-08-21T14:46:28.000Z</time>
        <extensions>
          <ns3:TrackPointExtension>
            <ns3:hr>150</ns3:hr>
            <ns3:cad>45</ns3:cad>
          </ns3:TrackPointExtension>
        </extensions>
      </trkpt>
      <trkpt lat="45.30169562436640262603759765625" lon="-70.86585354991257190704345703125">
        <ele>1171.800048828125</ele>
        <time>2026-08-21T14:46:29.000Z</time>
        <extensions>
          <ns3:TrackPointExtension>
            <ns3:hr>150</ns3:hr>
            <ns3:cad>45</ns3:cad>
          </ns3:TrackPointExtension>
        </extensions>
      </trkpt>
      <trkpt lat="45.3016990609467029571533203125" lon="-70.8658630214631557464599609375">
        <ele>1172</ele>
        <time>2026-08-21T14:46:30.000Z</time>
        <extensions>
          <ns3:TrackPointExtension>
            <ns3:hr>151</ns3:hr>
            <ns3:cad>45</ns3:cad>
          </ns3:TrackPointExtension>
        </extensions>
      </trkpt>
      <trkpt lat="45.301703251898288726806640625" lon="-70.865868888795375823974609375">
        <ele>1172.199951171875</ele>
        <time>2026-08-21T14:46:31.000Z</time>
        <extensions>
          <ns3:TrackPointExtension>
            <ns3:hr>151</ns3:hr>
            <ns3:cad>47</ns3:cad>
          </ns3:TrackPointExtension>
        </extensions>
      </trkpt>
      <trkpt lat="45.3017055988311767578125" lon="-70.86587551049888134002685546875">
        <ele>1172.4000244140625</ele>
        <time>2026-08-21T14:46:32.000Z</time>
        <extensions>
          <ns3:TrackPointExtension>
            <ns3:hr>152</ns3:hr>
            <ns3:cad>47</ns3:cad>
          </ns3:TrackPointExtension>
        </extensions>
      </trkpt>
      <trkpt lat="45.30170585028827190399169921875" lon="-70.8658891730010509490966796875">
        <ele>1172.800048828125</ele>
        <time>2026-08-21T14:46:33.000Z</time>
        <extensions>
          <ns3:TrackPointExtension>
            <ns3:hr>152</ns3:hr>
            <ns3:cad>43</ns3:cad>
          </ns3:TrackPointExtension>
        </extensions>
      </trkpt>
      <trkpt lat="45.301707945764064788818359375" lon="-70.86589713580906391143798828125">
        <ele>1173</ele>
        <time>2026-08-21T14:46:34.000Z</time>
        <extensions>
          <ns3:TrackPointExtension>
            <ns3:hr>152</ns3:hr>
            <ns3:cad>43</ns3:cad>
          </ns3:TrackPointExtension>
        </extensions>
      </trkpt>
      <trkpt lat="45.301708281040191650390625" lon="-70.86590602062642574310302734375">
        <ele>1173.199951171875</ele>
        <time>2026-08-21T14:46:35.000Z</time>
        <extensions>
          <ns3:TrackPointExtension>
            <ns3:hr>153</ns3:hr>
            <ns3:cad>43</ns3:cad>
          </ns3:TrackPointExtension>
        </extensions>
      </trkpt>
      <trkpt lat="45.3017101250588893890380859375" lon="-70.86591959930956363677978515625">
        <ele>1173.199951171875</ele>
        <time>2026-08-21T14:46:36.000Z</time>
        <extensions>
          <ns3:TrackPointExtension>
            <ns3:hr>152</ns3:hr>
            <ns3:cad>0</ns3:cad>
          </ns3:TrackPointExtension>
        </extensions>
      </trkpt>
      <trkpt lat="45.3017128072679042816162109375" lon="-70.865927897393703460693359375">
        <ele>1173.4000244140625</ele>
        <time>2026-08-21T14:46:37.000Z</time>
        <extensions>
          <ns3:TrackPointExtension>
            <ns3:hr>152</ns3:hr>
            <ns3:cad>0</ns3:cad>
          </ns3:TrackPointExtension>
        </extensions>
      </trkpt>
      <trkpt lat="45.30171557329595088958740234375" lon="-70.86593468673527240753173828125">
        <ele>1173.5999755859375</ele>
        <time>2026-08-21T14:46:38.000Z</time>
        <extensions>
          <ns3:TrackPointExtension>
            <ns3:hr>152</ns3:hr>
            <ns3:cad>0</ns3:cad>
          </ns3:TrackPointExtension>
        </extensions>
      </trkpt>
      <trkpt lat="45.30171775259077548980712890625" lon="-70.8659501932561397552490234375">
        <ele>1173.800048828125</ele>
        <time>2026-08-21T14:46:39.000Z</time>
        <extensions>
          <ns3:TrackPointExtension>
            <ns3:hr>152</ns3:hr>
            <ns3:cad>0</ns3:cad>
          </ns3:TrackPointExtension>
        </extensions>
      </trkpt>
      <trkpt lat="45.3017188422381877899169921875" lon="-70.8659585751593112945556640625">
        <ele>1174</ele>
        <time>2026-08-21T14:46:40.000Z</time>
        <extensions>
          <ns3:TrackPointExtension>
            <ns3:hr>152</ns3:hr>
            <ns3:cad>0</ns3:cad>
          </ns3:TrackPointExtension>
        </extensions>
      </trkpt>
      <trkpt lat="45.301719009876251220703125" lon="-70.8659617602825164794921875">
        <ele>1174.199951171875</ele>
        <time>2026-08-21T14:46:41.000Z</time>
        <extensions>
          <ns3:TrackPointExtension>
            <ns3:hr>152</ns3:hr>
            <ns3:cad>40</ns3:cad>
          </ns3:TrackPointExtension>
        </extensions>
      </trkpt>
      <trkpt lat="45.3017178364098072052001953125" lon="-70.86597508750855922698974609375">
        <ele>1174.4000244140625</ele>
        <time>2026-08-21T14:46:42.000Z</time>
        <extensions>
          <ns3:TrackPointExtension>
            <ns3:hr>152</ns3:hr>
            <ns3:cad>40</ns3:cad>
          </ns3:TrackPointExtension>
        </extensions>
      </trkpt>
      <trkpt lat="45.30171674676239490509033203125" lon="-70.8659830503165721893310546875">
        <ele>1174.800048828125</ele>
        <time>2026-08-21T14:46:43.000Z</time>
        <extensions>
          <ns3:TrackPointExtension>
            <ns3:hr>152</ns3:hr>
            <ns3:cad>19</ns3:cad>
          </ns3:TrackPointExtension>
        </extensions>
      </trkpt>
      <trkpt lat="45.3017149865627288818359375" lon="-70.86599017493426799774169921875">
        <ele>1175</ele>
        <time>2026-08-21T14:46:44.000Z</time>
        <extensions>
          <ns3:TrackPointExtension>
            <ns3:hr>152</ns3:hr>
            <ns3:cad>0</ns3:cad>
          </ns3:TrackPointExtension>
        </extensions>
      </trkpt>
      <trkpt lat="45.3017134778201580047607421875" lon="-70.866009034216403961181640625">
        <ele>1175</ele>
        <time>2026-08-21T14:46:45.000Z</time>
        <extensions>
          <ns3:TrackPointExtension>
            <ns3:hr>152</ns3:hr>
            <ns3:cad>0</ns3:cad>
          </ns3:TrackPointExtension>
        </extensions>
      </trkpt>
      <trkpt lat="45.30170668847858905792236328125" lon="-70.86601800285279750823974609375">
        <ele>1175.199951171875</ele>
        <time>2026-08-21T14:46:46.000Z</time>
        <extensions>
          <ns3:TrackPointExtension>
            <ns3:hr>152</ns3:hr>
            <ns3:cad>0</ns3:cad>
          </ns3:TrackPointExtension>
        </extensions>
      </trkpt>
      <trkpt lat="45.30170350335538387298583984375" lon="-70.86603091098368167877197265625">
        <ele>1175.4000244140625</ele>
        <time>2026-08-21T14:46:47.000Z</time>
        <extensions>
          <ns3:TrackPointExtension>
            <ns3:hr>151</ns3:hr>
            <ns3:cad>0</ns3:cad>
          </ns3:TrackPointExtension>
        </extensions>
      </trkpt>
      <trkpt lat="45.30170031823217868804931640625" lon="-70.8660403825342655181884765625">
        <ele>1175.5999755859375</ele>
        <time>2026-08-21T14:46:48.000Z</time>
        <extensions>
          <ns3:TrackPointExtension>
            <ns3:hr>150</ns3:hr>
            <ns3:cad>0</ns3:cad>
          </ns3:TrackPointExtension>
        </extensions>
      </trkpt>
      <trkpt lat="45.3017042577266693115234375" lon="-70.86605454795062541961669921875">
        <ele>1175.800048828125</ele>
        <time>2026-08-21T14:46:49.000Z</time>
        <extensions>
          <ns3:TrackPointExtension>
            <ns3:hr>150</ns3:hr>
            <ns3:cad>0</ns3:cad>
          </ns3:TrackPointExtension>
        </extensions>
      </trkpt>
      <trkpt lat="45.3017094545066356658935546875" lon="-70.86606712080538272857666015625">
        <ele>1176</ele>
        <time>2026-08-21T14:46:50.000Z</time>
        <extensions>
          <ns3:TrackPointExtension>
            <ns3:hr>150</ns3:hr>
            <ns3:cad>44</ns3:cad>
          </ns3:TrackPointExtension>
        </extensions>
      </trkpt>
      <trkpt lat="45.3017154894769191741943359375" lon="-70.86607508361339569091796875">
        <ele>1176.199951171875</ele>
        <time>2026-08-21T14:46:51.000Z</time>
        <extensions>
          <ns3:TrackPointExtension>
            <ns3:hr>150</ns3:hr>
            <ns3:cad>44</ns3:cad>
          </ns3:TrackPointExtension>
        </extensions>
      </trkpt>
      <trkpt lat="45.3017203509807586669921875" lon="-70.86608505807816982269287109375">
        <ele>1176.4000244140625</ele>
        <time>2026-08-21T14:46:52.000Z</time>
        <extensions>
          <ns3:TrackPointExtension>
            <ns3:hr>150</ns3:hr>
            <ns3:cad>44</ns3:cad>
          </ns3:TrackPointExtension>
        </extensions>
      </trkpt>
      <trkpt lat="45.3017275594174861907958984375" lon="-70.8660987205803394317626953125">
        <ele>1176.5999755859375</ele>
        <time>2026-08-21T14:46:53.000Z</time>
        <extensions>
          <ns3:TrackPointExtension>
            <ns3:hr>150</ns3:hr>
            <ns3:cad>0</ns3:cad>
          </ns3:TrackPointExtension>
        </extensions>
      </trkpt>
      <trkpt lat="45.3017329238355159759521484375" lon="-70.86610936559736728668212890625">
        <ele>1176.800048828125</ele>
        <time>2026-08-21T14:46:54.000Z</time>
        <extensions>
          <ns3:TrackPointExtension>
            <ns3:hr>150</ns3:hr>
            <ns3:cad>0</ns3:cad>
          </ns3:TrackPointExtension>
        </extensions>
      </trkpt>
      <trkpt lat="45.301738120615482330322265625" lon="-70.86611665785312652587890625">
        <ele>1177</ele>
        <time>2026-08-21T14:46:55.000Z</time>
        <extensions>
          <ns3:TrackPointExtension>
            <ns3:hr>150</ns3:hr>
            <ns3:cad>43</ns3:cad>
          </ns3:TrackPointExtension>
        </extensions>
      </trkpt>
      <trkpt lat="45.3017446584999561309814453125" lon="-70.86612797342240810394287109375">
        <ele>1177.199951171875</ele>
        <time>2026-08-21T14:46:56.000Z</time>
        <extensions>
          <ns3:TrackPointExtension>
            <ns3:hr>150</ns3:hr>
            <ns3:cad>43</ns3:cad>
          </ns3:TrackPointExtension>
        </extensions>
      </trkpt>
      <trkpt lat="45.301750861108303070068359375" lon="-70.86614289321005344390869140625">
        <ele>1177.4000244140625</ele>
        <time>2026-08-21T14:46:57.000Z</time>
        <extensions>
          <ns3:TrackPointExtension>
            <ns3:hr>151</ns3:hr>
            <ns3:cad>43</ns3:cad>
          </ns3:TrackPointExtension>
        </extensions>
      </trkpt>
      <trkpt lat="45.3017627634108066558837890625" lon="-70.8661637641489505767822265625">
        <ele>1177.4000244140625</ele>
        <time>2026-08-21T14:46:58.000Z</time>
        <extensions>
          <ns3:TrackPointExtension>
            <ns3:hr>151</ns3:hr>
            <ns3:cad>43</ns3:cad>
          </ns3:TrackPointExtension>
        </extensions>
      </trkpt>
      <trkpt lat="45.3017686307430267333984375" lon="-70.86617407388985157012939453125">
        <ele>1177.5999755859375</ele>
        <time>2026-08-21T14:46:59.000Z</time>
        <extensions>
          <ns3:TrackPointExtension>
            <ns3:hr>151</ns3:hr>
            <ns3:cad>43</ns3:cad>
          </ns3:TrackPointExtension>
        </extensions>
      </trkpt>
      <trkpt lat="45.30178095214068889617919921875" lon="-70.8661895804107189178466796875">
        <ele>1177.800048828125</ele>
        <time>2026-08-21T14:47:00.000Z</time>
        <extensions>
          <ns3:TrackPointExtension>
            <ns3:hr>151</ns3:hr>
            <ns3:cad>45</ns3:cad>
          </ns3:TrackPointExtension>
        </extensions>
      </trkpt>
      <trkpt lat="45.3017885796725749969482421875" lon="-70.86619737558066844940185546875">
        <ele>1177.800048828125</ele>
        <time>2026-08-21T14:47:01.000Z</time>
        <extensions>
          <ns3:TrackPointExtension>
            <ns3:hr>151</ns3:hr>
            <ns3:cad>46</ns3:cad>
          </ns3:TrackPointExtension>
        </extensions>
      </trkpt>
      <trkpt lat="45.3017939440906047821044921875" lon="-70.8662100322544574737548828125">
        <ele>1178</ele>
        <time>2026-08-21T14:47:02.000Z</time>
        <extensions>
          <ns3:TrackPointExtension>
            <ns3:hr>151</ns3:hr>
            <ns3:cad>46</ns3:cad>
          </ns3:TrackPointExtension>
        </extensions>
      </trkpt>
      <trkpt lat="45.3017900884151458740234375" lon="-70.86622687987983226776123046875">
        <ele>1178</ele>
        <time>2026-08-21T14:47:03.000Z</time>
        <extensions>
          <ns3:TrackPointExtension>
            <ns3:hr>151</ns3:hr>
            <ns3:cad>47</ns3:cad>
          </ns3:TrackPointExtension>
        </extensions>
      </trkpt>
      <trkpt lat="45.3017895855009555816650390625" lon="-70.8662460744380950927734375">
        <ele>1178.199951171875</ele>
        <time>2026-08-21T14:47:04.000Z</time>
        <extensions>
          <ns3:TrackPointExtension>
            <ns3:hr>151</ns3:hr>
            <ns3:cad>47</ns3:cad>
          </ns3:TrackPointExtension>
        </extensions>
      </trkpt>
      <trkpt lat="45.301793105900287628173828125" lon="-70.86625873111188411712646484375">
        <ele>1178.4000244140625</ele>
        <time>2026-08-21T14:47:05.000Z</time>
        <extensions>
          <ns3:TrackPointExtension>
            <ns3:hr>151</ns3:hr>
            <ns3:cad>50</ns3:cad>
          </ns3:TrackPointExtension>
        </extensions>
      </trkpt>
      <trkpt lat="45.30179612338542938232421875" lon="-70.86626878939568996429443359375">
        <ele>1178.5999755859375</ele>
        <time>2026-08-21T14:47:06.000Z</time>
        <extensions>
          <ns3:TrackPointExtension>
            <ns3:hr>151</ns3:hr>
            <ns3:cad>50</ns3:cad>
          </ns3:TrackPointExtension>
        </extensions>
      </trkpt>
      <trkpt lat="45.3017959557473659515380859375" lon="-70.86628186516463756561279296875">
        <ele>1178.5999755859375</ele>
        <time>2026-08-21T14:47:07.000Z</time>
        <extensions>
          <ns3:TrackPointExtension>
            <ns3:hr>152</ns3:hr>
            <ns3:cad>48</ns3:cad>
          </ns3:TrackPointExtension>
        </extensions>
      </trkpt>
      <trkpt lat="45.30179637484252452850341796875" lon="-70.86629946716129779815673828125">
        <ele>1178.800048828125</ele>
        <time>2026-08-21T14:47:08.000Z</time>
        <extensions>
          <ns3:TrackPointExtension>
            <ns3:hr>151</ns3:hr>
            <ns3:cad>48</ns3:cad>
          </ns3:TrackPointExtension>
        </extensions>
      </trkpt>
      <trkpt lat="45.3017966262996196746826171875" lon="-70.8663200028240680694580078125">
        <ele>1179</ele>
        <time>2026-08-21T14:47:09.000Z</time>
        <extensions>
          <ns3:TrackPointExtension>
            <ns3:hr>152</ns3:hr>
            <ns3:cad>48</ns3:cad>
          </ns3:TrackPointExtension>
        </extensions>
      </trkpt>
      <trkpt lat="45.30179972760379314422607421875" lon="-70.8663374371826648712158203125">
        <ele>1179</ele>
        <time>2026-08-21T14:47:10.000Z</time>
        <extensions>
          <ns3:TrackPointExtension>
            <ns3:hr>152</ns3:hr>
            <ns3:cad>48</ns3:cad>
          </ns3:TrackPointExtension>
        </extensions>
      </trkpt>
      <trkpt lat="45.30180417001247406005859375" lon="-70.86634975858032703399658203125">
        <ele>1179.199951171875</ele>
        <time>2026-08-21T14:47:11.000Z</time>
        <extensions>
          <ns3:TrackPointExtension>
            <ns3:hr>152</ns3:hr>
            <ns3:cad>48</ns3:cad>
          </ns3:TrackPointExtension>
        </extensions>
      </trkpt>
      <trkpt lat="45.30180844478309154510498046875" lon="-70.866361074149608612060546875">
        <ele>1179.4000244140625</ele>
        <time>2026-08-21T14:47:12.000Z</time>
        <extensions>
          <ns3:TrackPointExtension>
            <ns3:hr>152</ns3:hr>
            <ns3:cad>48</ns3:cad>
          </ns3:TrackPointExtension>
        </extensions>
      </trkpt>
      <trkpt lat="45.301811210811138153076171875" lon="-70.8663775026798248291015625">
        <ele>1179.5999755859375</ele>
        <time>2026-08-21T14:47:13.000Z</time>
        <extensions>
          <ns3:TrackPointExtension>
            <ns3:hr>152</ns3:hr>
            <ns3:cad>48</ns3:cad>
          </ns3:TrackPointExtension>
        </extensions>
      </trkpt>
      <trkpt lat="45.30181129463016986846923828125" lon="-70.8663957752287387847900390625">
        <ele>1179.5999755859375</ele>
        <time>2026-08-21T14:47:14.000Z</time>
        <extensions>
          <ns3:TrackPointExtension>
            <ns3:hr>152</ns3:hr>
            <ns3:cad>48</ns3:cad>
          </ns3:TrackPointExtension>
        </extensions>
      </trkpt>
      <trkpt lat="45.30180777423083782196044921875" lon="-70.86642536334693431854248046875">
        <ele>1179.5999755859375</ele>
        <time>2026-08-21T14:47:15.000Z</time>
        <extensions>
          <ns3:TrackPointExtension>
            <ns3:hr>152</ns3:hr>
            <ns3:cad>48</ns3:cad>
          </ns3:TrackPointExtension>
        </extensions>
      </trkpt>
      <trkpt lat="45.30180475674569606781005859375" lon="-70.86644397117197513580322265625">
        <ele>1179.800048828125</ele>
        <time>2026-08-21T14:47:16.000Z</time>
        <extensions>
          <ns3:TrackPointExtension>
            <ns3:hr>152</ns3:hr>
            <ns3:cad>48</ns3:cad>
          </ns3:TrackPointExtension>
        </extensions>
      </trkpt>
      <trkpt lat="45.301805175840854644775390625" lon="-70.86646392010152339935302734375">
        <ele>1179.800048828125</ele>
        <time>2026-08-21T14:47:17.000Z</time>
        <extensions>
          <ns3:TrackPointExtension>
            <ns3:hr>152</ns3:hr>
            <ns3:cad>52</ns3:cad>
          </ns3:TrackPointExtension>
        </extensions>
      </trkpt>
      <trkpt lat="45.3018060140311717987060546875" lon="-70.8664821088314056396484375">
        <ele>1180</ele>
        <time>2026-08-21T14:47:18.000Z</time>
        <extensions>
          <ns3:TrackPointExtension>
            <ns3:hr>152</ns3:hr>
            <ns3:cad>52</ns3:cad>
          </ns3:TrackPointExtension>
        </extensions>
      </trkpt>
      <trkpt lat="45.30180643312633037567138671875" lon="-70.86649417877197265625">
        <ele>1180</ele>
        <time>2026-08-21T14:47:19.000Z</time>
        <extensions>
          <ns3:TrackPointExtension>
            <ns3:hr>153</ns3:hr>
            <ns3:cad>52</ns3:cad>
          </ns3:TrackPointExtension>
        </extensions>
      </trkpt>
      <trkpt lat="45.30180559493601322174072265625" lon="-70.86650968529284000396728515625">
        <ele>1180</ele>
        <time>2026-08-21T14:47:20.000Z</time>
        <extensions>
          <ns3:TrackPointExtension>
            <ns3:hr>152</ns3:hr>
            <ns3:cad>52</ns3:cad>
          </ns3:TrackPointExtension>
        </extensions>
      </trkpt>
      <trkpt lat="45.30180844478309154510498046875" lon="-70.86652594618499279022216796875">
        <ele>1180.199951171875</ele>
        <time>2026-08-21T14:47:21.000Z</time>
        <extensions>
          <ns3:TrackPointExtension>
            <ns3:hr>152</ns3:hr>
            <ns3:cad>52</ns3:cad>
          </ns3:TrackPointExtension>
        </extensions>
      </trkpt>
      <trkpt lat="45.30181481502950191497802734375" lon="-70.86655343882739543914794921875">
        <ele>1180.199951171875</ele>
        <time>2026-08-21T14:47:22.000Z</time>
        <extensions>
          <ns3:TrackPointExtension>
            <ns3:hr>152</ns3:hr>
            <ns3:cad>52</ns3:cad>
          </ns3:TrackPointExtension>
        </extensions>
      </trkpt>
      <trkpt lat="45.30182152055203914642333984375" lon="-70.86657422594726085662841796875">
        <ele>1180.199951171875</ele>
        <time>2026-08-21T14:47:23.000Z</time>
        <extensions>
          <ns3:TrackPointExtension>
            <ns3:hr>152</ns3:hr>
            <ns3:cad>52</ns3:cad>
          </ns3:TrackPointExtension>
        </extensions>
      </trkpt>
      <trkpt lat="45.301830656826496124267578125" lon="-70.8665925823152065277099609375">
        <ele>1180.199951171875</ele>
        <time>2026-08-21T14:47:24.000Z</time>
        <extensions>
          <ns3:TrackPointExtension>
            <ns3:hr>152</ns3:hr>
            <ns3:cad>51</ns3:cad>
          </ns3:TrackPointExtension>
        </extensions>
      </trkpt>
      <trkpt lat="45.30183929018676280975341796875" lon="-70.8666086755692958831787109375">
        <ele>1180.199951171875</ele>
        <time>2026-08-21T14:47:25.000Z</time>
        <extensions>
          <ns3:TrackPointExtension>
            <ns3:hr>152</ns3:hr>
            <ns3:cad>51</ns3:cad>
          </ns3:TrackPointExtension>
        </extensions>
      </trkpt>
      <trkpt lat="45.30185068957507610321044921875" lon="-70.86662367917597293853759765625">
        <ele>1180.4000244140625</ele>
        <time>2026-08-21T14:47:26.000Z</time>
        <extensions>
          <ns3:TrackPointExtension>
            <ns3:hr>151</ns3:hr>
            <ns3:cad>51</ns3:cad>
          </ns3:TrackPointExtension>
        </extensions>
      </trkpt>
      <trkpt lat="45.30185605399310588836669921875" lon="-70.86664664559066295623779296875">
        <ele>1180.4000244140625</ele>
        <time>2026-08-21T14:47:27.000Z</time>
        <extensions>
          <ns3:TrackPointExtension>
            <ns3:hr>152</ns3:hr>
            <ns3:cad>54</ns3:cad>
          </ns3:TrackPointExtension>
        </extensions>
      </trkpt>
      <trkpt lat="45.30186024494469165802001953125" lon="-70.86666357703506946563720703125">
        <ele>1180.4000244140625</ele>
        <time>2026-08-21T14:47:28.000Z</time>
        <extensions>
          <ns3:TrackPointExtension>
            <ns3:hr>152</ns3:hr>
            <ns3:cad>54</ns3:cad>
          </ns3:TrackPointExtension>
        </extensions>
      </trkpt>
      <trkpt lat="45.301864854991436004638671875" lon="-70.86667950265109539031982421875">
        <ele>1180.5999755859375</ele>
        <time>2026-08-21T14:47:29.000Z</time>
        <extensions>
          <ns3:TrackPointExtension>
            <ns3:hr>151</ns3:hr>
            <ns3:cad>54</ns3:cad>
          </ns3:TrackPointExtension>
        </extensions>
      </trkpt>
      <trkpt lat="45.301870889961719512939453125" lon="-70.86669827811419963836669921875">
        <ele>1180.5999755859375</ele>
        <time>2026-08-21T14:47:30.000Z</time>
        <extensions>
          <ns3:TrackPointExtension>
            <ns3:hr>151</ns3:hr>
            <ns3:cad>54</ns3:cad>
          </ns3:TrackPointExtension>
        </extensions>
      </trkpt>
      <trkpt lat="45.30187533237040042877197265625" lon="-70.8667159639298915863037109375">
        <ele>1180.5999755859375</ele>
        <time>2026-08-21T14:47:31.000Z</time>
        <extensions>
          <ns3:TrackPointExtension>
            <ns3:hr>151</ns3:hr>
            <ns3:cad>54</ns3:cad>
          </ns3:TrackPointExtension>
        </extensions>
      </trkpt>
      <trkpt lat="45.3018784336745738983154296875" lon="-70.86673314683139324188232421875">
        <ele>1180.5999755859375</ele>
        <time>2026-08-21T14:47:32.000Z</time>
        <extensions>
          <ns3:TrackPointExtension>
            <ns3:hr>150</ns3:hr>
            <ns3:cad>53</ns3:cad>
          </ns3:TrackPointExtension>
        </extensions>
      </trkpt>
      <trkpt lat="45.3018794395029544830322265625" lon="-70.86675041355192661285400390625">
        <ele>1180.5999755859375</ele>
        <time>2026-08-21T14:47:33.000Z</time>
        <extensions>
          <ns3:TrackPointExtension>
            <ns3:hr>150</ns3:hr>
            <ns3:cad>53</ns3:cad>
          </ns3:TrackPointExtension>
        </extensions>
      </trkpt>
      <trkpt lat="45.30187399126589298248291015625" lon="-70.86676265113055706024169921875">
        <ele>1180.5999755859375</ele>
        <time>2026-08-21T14:47:34.000Z</time>
        <extensions>
          <ns3:TrackPointExtension>
            <ns3:hr>150</ns3:hr>
            <ns3:cad>53</ns3:cad>
          </ns3:TrackPointExtension>
        </extensions>
      </trkpt>
      <trkpt lat="45.301863849163055419921875" lon="-70.8667689375579357147216796875">
        <ele>1180.800048828125</ele>
        <time>2026-08-21T14:47:35.000Z</time>
        <extensions>
          <ns3:TrackPointExtension>
            <ns3:hr>150</ns3:hr>
            <ns3:cad>53</ns3:cad>
          </ns3:TrackPointExtension>
        </extensions>
      </trkpt>
      <trkpt lat="45.30185379087924957275390625" lon="-70.86677254177629947662353515625">
        <ele>1180.800048828125</ele>
        <time>2026-08-21T14:47:36.000Z</time>
        <extensions>
          <ns3:TrackPointExtension>
            <ns3:hr>150</ns3:hr>
            <ns3:cad>53</ns3:cad>
          </ns3:TrackPointExtension>
        </extensions>
      </trkpt>
      <trkpt lat="45.30184381641447544097900390625" lon="-70.8667753078043460845947265625">
        <ele>1181</ele>
        <time>2026-08-21T14:47:37.000Z</time>
        <extensions>
          <ns3:TrackPointExtension>
            <ns3:hr>150</ns3:hr>
            <ns3:cad>53</ns3:cad>
          </ns3:TrackPointExtension>
        </extensions>
      </trkpt>
      <trkpt lat="45.3018341772258281707763671875" lon="-70.866774804890155792236328125">
        <ele>1181</ele>
        <time>2026-08-21T14:47:38.000Z</time>
        <extensions>
          <ns3:TrackPointExtension>
            <ns3:hr>150</ns3:hr>
            <ns3:cad>53</ns3:cad>
          </ns3:TrackPointExtension>
        </extensions>
      </trkpt>
      <trkpt lat="45.3018254600465297698974609375" lon="-70.86677019484341144561767578125">
        <ele>1181.199951171875</ele>
        <time>2026-08-21T14:47:39.000Z</time>
        <extensions>
          <ns3:TrackPointExtension>
            <ns3:hr>149</ns3:hr>
            <ns3:cad>52</ns3:cad>
          </ns3:TrackPointExtension>
        </extensions>
      </trkpt>
      <trkpt lat="45.3018169105052947998046875" lon="-70.86676768027245998382568359375">
        <ele>1181.199951171875</ele>
        <time>2026-08-21T14:47:40.000Z</time>
        <extensions>
          <ns3:TrackPointExtension>
            <ns3:hr>149</ns3:hr>
            <ns3:cad>52</ns3:cad>
          </ns3:TrackPointExtension>
        </extensions>
      </trkpt>
      <trkpt lat="45.30180777423083782196044921875" lon="-70.8667645789682865142822265625">
        <ele>1181.4000244140625</ele>
        <time>2026-08-21T14:47:41.000Z</time>
        <extensions>
          <ns3:TrackPointExtension>
            <ns3:hr>148</ns3:hr>
            <ns3:cad>52</ns3:cad>
          </ns3:TrackPointExtension>
        </extensions>
      </trkpt>
      <trkpt lat="45.3018009848892688751220703125" lon="-70.86676415987312793731689453125">
        <ele>1181.5999755859375</ele>
        <time>2026-08-21T14:47:42.000Z</time>
        <extensions>
          <ns3:TrackPointExtension>
            <ns3:hr>148</ns3:hr>
            <ns3:cad>52</ns3:cad>
          </ns3:TrackPointExtension>
        </extensions>
      </trkpt>
      <trkpt lat="45.3017952851951122283935546875" lon="-70.866761393845081329345703125">
        <ele>1181.800048828125</ele>
        <time>2026-08-21T14:47:43.000Z</time>
        <extensions>
          <ns3:TrackPointExtension>
            <ns3:hr>148</ns3:hr>
            <ns3:cad>52</ns3:cad>
          </ns3:TrackPointExtension>
        </extensions>
      </trkpt>
      <trkpt lat="45.30178212560713291168212890625" lon="-70.86675544269382953643798828125">
        <ele>1182</ele>
        <time>2026-08-21T14:47:44.000Z</time>
        <extensions>
          <ns3:TrackPointExtension>
            <ns3:hr>148</ns3:hr>
            <ns3:cad>49</ns3:cad>
          </ns3:TrackPointExtension>
        </extensions>
      </trkpt>
      <trkpt lat="45.30177089385688304901123046875" lon="-70.86675175465643405914306640625">
        <ele>1182.199951171875</ele>
        <time>2026-08-21T14:47:45.000Z</time>
        <extensions>
          <ns3:TrackPointExtension>
            <ns3:hr>147</ns3:hr>
            <ns3:cad>49</ns3:cad>
          </ns3:TrackPointExtension>
        </extensions>
      </trkpt>
      <trkpt lat="45.30176284722983837127685546875" lon="-70.86675208993256092071533203125">
        <ele>1182.4000244140625</ele>
        <time>2026-08-21T14:47:46.000Z</time>
        <extensions>
          <ns3:TrackPointExtension>
            <ns3:hr>147</ns3:hr>
            <ns3:cad>46</ns3:cad>
          </ns3:TrackPointExtension>
        </extensions>
      </trkpt>
      <trkpt lat="45.30175513587892055511474609375" lon="-70.86675175465643405914306640625">
        <ele>1182.800048828125</ele>
        <time>2026-08-21T14:47:47.000Z</time>
        <extensions>
          <ns3:TrackPointExtension>
            <ns3:hr>146</ns3:hr>
            <ns3:cad>44</ns3:cad>
          </ns3:TrackPointExtension>
        </extensions>
      </trkpt>
      <trkpt lat="45.301744826138019561767578125" lon="-70.8667458035051822662353515625">
        <ele>1183</ele>
        <time>2026-08-21T14:47:48.000Z</time>
        <extensions>
          <ns3:TrackPointExtension>
            <ns3:hr>146</ns3:hr>
            <ns3:cad>44</ns3:cad>
          </ns3:TrackPointExtension>
        </extensions>
      </trkpt>
      <trkpt lat="45.30173233710229396820068359375" lon="-70.86674421094357967376708984375">
        <ele>1183.199951171875</ele>
        <time>2026-08-21T14:47:49.000Z</time>
        <extensions>
          <ns3:TrackPointExtension>
            <ns3:hr>146</ns3:hr>
            <ns3:cad>46</ns3:cad>
          </ns3:TrackPointExtension>
        </extensions>
      </trkpt>
      <trkpt lat="45.30172244645655155181884765625" lon="-70.86674370802938938140869140625">
        <ele>1183.199951171875</ele>
        <time>2026-08-21T14:47:50.000Z</time>
        <extensions>
          <ns3:TrackPointExtension>
            <ns3:hr>146</ns3:hr>
            <ns3:cad>46</ns3:cad>
          </ns3:TrackPointExtension>
        </extensions>
      </trkpt>
      <trkpt lat="45.301716327667236328125" lon="-70.866738259792327880859375">
        <ele>1183.4000244140625</ele>
        <time>2026-08-21T14:47:51.000Z</time>
        <extensions>
          <ns3:TrackPointExtension>
            <ns3:hr>146</ns3:hr>
            <ns3:cad>46</ns3:cad>
          </ns3:TrackPointExtension>
        </extensions>
      </trkpt>
      <trkpt lat="45.30170953832566738128662109375" lon="-70.8667280338704586029052734375">
        <ele>1183.4000244140625</ele>
        <time>2026-08-21T14:47:52.000Z</time>
        <extensions>
          <ns3:TrackPointExtension>
            <ns3:hr>146</ns3:hr>
            <ns3:cad>46</ns3:cad>
          </ns3:TrackPointExtension>
        </extensions>
      </trkpt>
      <trkpt lat="45.30170702375471591949462890625" lon="-70.86672023870050907135009765625">
        <ele>1183.5999755859375</ele>
        <time>2026-08-21T14:47:53.000Z</time>
        <extensions>
          <ns3:TrackPointExtension>
            <ns3:hr>146</ns3:hr>
            <ns3:cad>46</ns3:cad>
          </ns3:TrackPointExtension>
        </extensions>
      </trkpt>
      <trkpt lat="45.30170165933668613433837890625" lon="-70.86671520955860614776611328125">
        <ele>1183.800048828125</ele>
        <time>2026-08-21T14:47:54.000Z</time>
        <extensions>
          <ns3:TrackPointExtension>
            <ns3:hr>145</ns3:hr>
            <ns3:cad>46</ns3:cad>
          </ns3:TrackPointExtension>
        </extensions>
      </trkpt>
      <trkpt lat="45.3016920201480388641357421875" lon="-70.8667127788066864013671875">
        <ele>1184</ele>
        <time>2026-08-21T14:47:55.000Z</time>
        <extensions>
          <ns3:TrackPointExtension>
            <ns3:hr>146</ns3:hr>
            <ns3:cad>46</ns3:cad>
          </ns3:TrackPointExtension>
        </extensions>
      </trkpt>
      <trkpt lat="45.30168347060680389404296875" lon="-70.8667089231312274932861328125">
        <ele>1184</ele>
        <time>2026-08-21T14:47:56.000Z</time>
        <extensions>
          <ns3:TrackPointExtension>
            <ns3:hr>146</ns3:hr>
            <ns3:cad>45</ns3:cad>
          </ns3:TrackPointExtension>
        </extensions>
      </trkpt>
      <trkpt lat="45.30167718417942523956298828125" lon="-70.86670867167413234710693359375">
        <ele>1184.199951171875</ele>
        <time>2026-08-21T14:47:57.000Z</time>
        <extensions>
          <ns3:TrackPointExtension>
            <ns3:hr>146</ns3:hr>
            <ns3:cad>45</ns3:cad>
          </ns3:TrackPointExtension>
        </extensions>
      </trkpt>
      <trkpt lat="45.30167140066623687744140625" lon="-70.86670867167413234710693359375">
        <ele>1184.199951171875</ele>
        <time>2026-08-21T14:47:58.000Z</time>
        <extensions>
          <ns3:TrackPointExtension>
            <ns3:hr>145</ns3:hr>
            <ns3:cad>44</ns3:cad>
          </ns3:TrackPointExtension>
        </extensions>
      </trkpt>
      <trkpt lat="45.30166561715304851531982421875" lon="-70.866707749664783477783203125">
        <ele>1184.4000244140625</ele>
        <time>2026-08-21T14:47:59.000Z</time>
        <extensions>
          <ns3:TrackPointExtension>
            <ns3:hr>146</ns3:hr>
            <ns3:cad>44</ns3:cad>
          </ns3:TrackPointExtension>
        </extensions>
      </trkpt>
      <trkpt lat="45.30165924690663814544677734375" lon="-70.8667072467505931854248046875">
        <ele>1184.4000244140625</ele>
        <time>2026-08-21T14:48:00.000Z</time>
        <extensions>
          <ns3:TrackPointExtension>
            <ns3:hr>146</ns3:hr>
            <ns3:cad>44</ns3:cad>
          </ns3:TrackPointExtension>
        </extensions>
      </trkpt>
      <trkpt lat="45.30165530741214752197265625" lon="-70.8667074143886566162109375">
        <ele>1184.5999755859375</ele>
        <time>2026-08-21T14:48:01.000Z</time>
        <extensions>
          <ns3:TrackPointExtension>
            <ns3:hr>146</ns3:hr>
            <ns3:cad>77</ns3:cad>
          </ns3:TrackPointExtension>
        </extensions>
      </trkpt>
      <trkpt lat="45.3016460873186588287353515625" lon="-70.866708420217037200927734375">
        <ele>1184.5999755859375</ele>
        <time>2026-08-21T14:48:02.000Z</time>
        <extensions>
          <ns3:TrackPointExtension>
            <ns3:hr>146</ns3:hr>
            <ns3:cad>77</ns3:cad>
          </ns3:TrackPointExtension>
        </extensions>
      </trkpt>
      <trkpt lat="45.3016370348632335662841796875" lon="-70.86670733056962490081787109375">
        <ele>1184.800048828125</ele>
        <time>2026-08-21T14:48:03.000Z</time>
        <extensions>
          <ns3:TrackPointExtension>
            <ns3:hr>146</ns3:hr>
            <ns3:cad>75</ns3:cad>
          </ns3:TrackPointExtension>
        </extensions>
      </trkpt>
      <trkpt lat="45.3016296587884426116943359375" lon="-70.8667122758924961090087890625">
        <ele>1184.800048828125</ele>
        <time>2026-08-21T14:48:04.000Z</time>
        <extensions>
          <ns3:TrackPointExtension>
            <ns3:hr>146</ns3:hr>
            <ns3:cad>75</ns3:cad>
          </ns3:TrackPointExtension>
        </extensions>
      </trkpt>
      <trkpt lat="45.3016216121613979339599609375" lon="-70.86671655066311359405517578125">
        <ele>1184.800048828125</ele>
        <time>2026-08-21T14:48:05.000Z</time>
        <extensions>
          <ns3:TrackPointExtension>
            <ns3:hr>146</ns3:hr>
            <ns3:cad>75</ns3:cad>
          </ns3:TrackPointExtension>
        </extensions>
      </trkpt>
      <trkpt lat="45.30161147005856037139892578125" lon="-70.86672015488147735595703125">
        <ele>1184.800048828125</ele>
        <time>2026-08-21T14:48:06.000Z</time>
        <extensions>
          <ns3:TrackPointExtension>
            <ns3:hr>146</ns3:hr>
            <ns3:cad>0</ns3:cad>
          </ns3:TrackPointExtension>
        </extensions>
      </trkpt>
      <trkpt lat="45.30160375870764255523681640625" lon="-70.86672727949917316436767578125">
        <ele>1184.800048828125</ele>
        <time>2026-08-21T14:48:07.000Z</time>
        <extensions>
          <ns3:TrackPointExtension>
            <ns3:hr>145</ns3:hr>
            <ns3:cad>0</ns3:cad>
          </ns3:TrackPointExtension>
        </extensions>
      </trkpt>
      <trkpt lat="45.3015991486608982086181640625" lon="-70.866738595068454742431640625">
        <ele>1184.800048828125</ele>
        <time>2026-08-21T14:48:08.000Z</time>
        <extensions>
          <ns3:TrackPointExtension>
            <ns3:hr>146</ns3:hr>
            <ns3:cad>0</ns3:cad>
          </ns3:TrackPointExtension>
        </extensions>
      </trkpt>
      <trkpt lat="45.301595628261566162109375" lon="-70.8667481504380702972412109375">
        <ele>1185</ele>
        <time>2026-08-21T14:48:09.000Z</time>
        <extensions>
          <ns3:TrackPointExtension>
            <ns3:hr>146</ns3:hr>
            <ns3:cad>0</ns3:cad>
          </ns3:TrackPointExtension>
        </extensions>
      </trkpt>
      <trkpt lat="45.3015921078622341156005859375" lon="-70.86674965918064117431640625">
        <ele>1185</ele>
        <time>2026-08-21T14:48:10.000Z</time>
        <extensions>
          <ns3:TrackPointExtension>
            <ns3:hr>146</ns3:hr>
            <ns3:cad>0</ns3:cad>
          </ns3:TrackPointExtension>
        </extensions>
      </trkpt>
      <trkpt lat="45.3015887551009654998779296875" lon="-70.86674488149583339691162109375">
        <ele>1185.199951171875</ele>
        <time>2026-08-21T14:48:11.000Z</time>
        <extensions>
          <ns3:TrackPointExtension>
            <ns3:hr>146</ns3:hr>
            <ns3:cad>0</ns3:cad>
          </ns3:TrackPointExtension>
        </extensions>
      </trkpt>
      <trkpt lat="45.301584899425506591796875" lon="-70.8667491562664508819580078125">
        <ele>1185.199951171875</ele>
        <time>2026-08-21T14:48:12.000Z</time>
        <extensions>
          <ns3:TrackPointExtension>
            <ns3:hr>146</ns3:hr>
            <ns3:cad>0</ns3:cad>
          </ns3:TrackPointExtension>
        </extensions>
      </trkpt>
      <trkpt lat="45.3015837259590625762939453125" lon="-70.86675192229449748992919921875">
        <ele>1185.199951171875</ele>
        <time>2026-08-21T14:48:13.000Z</time>
        <extensions>
          <ns3:TrackPointExtension>
            <ns3:hr>146</ns3:hr>
            <ns3:cad>0</ns3:cad>
          </ns3:TrackPointExtension>
        </extensions>
      </trkpt>
      <trkpt lat="45.3015837259590625762939453125" lon="-70.86675192229449748992919921875">
        <ele>1185.199951171875</ele>
        <time>2026-08-21T14:48:14.000Z</time>
        <extensions>
          <ns3:TrackPointExtension>
            <ns3:hr>145</ns3:hr>
            <ns3:cad>0</ns3:cad>
          </ns3:TrackPointExtension>
        </extensions>
      </trkpt>
      <trkpt lat="45.3015837259590625762939453125" lon="-70.86675192229449748992919921875">
        <ele>1185.199951171875</ele>
        <time>2026-08-21T14:48:15.000Z</time>
        <extensions>
          <ns3:TrackPointExtension>
            <ns3:hr>145</ns3:hr>
            <ns3:cad>0</ns3:cad>
          </ns3:TrackPointExtension>
        </extensions>
      </trkpt>
      <trkpt lat="45.3015837259590625762939453125" lon="-70.86675192229449748992919921875">
        <ele>1185.199951171875</ele>
        <time>2026-08-21T14:48:16.000Z</time>
        <extensions>
          <ns3:TrackPointExtension>
            <ns3:hr>144</ns3:hr>
            <ns3:cad>0</ns3:cad>
          </ns3:TrackPointExtension>
        </extensions>
      </trkpt>
      <trkpt lat="45.30158380977809429168701171875" lon="-70.866753347218036651611328125">
        <ele>1185.199951171875</ele>
        <time>2026-08-21T14:48:17.000Z</time>
        <extensions>
          <ns3:TrackPointExtension>
            <ns3:hr>142</ns3:hr>
            <ns3:cad>0</ns3:cad>
          </ns3:TrackPointExtension>
        </extensions>
      </trkpt>
      <trkpt lat="45.30157995410263538360595703125" lon="-70.86677002720534801483154296875">
        <ele>1185.199951171875</ele>
        <time>2026-08-21T14:48:18.000Z</time>
        <extensions>
          <ns3:TrackPointExtension>
            <ns3:hr>142</ns3:hr>
            <ns3:cad>0</ns3:cad>
          </ns3:TrackPointExtension>
        </extensions>
      </trkpt>
      <trkpt lat="45.30157752335071563720703125" lon="-70.86678544990718364715576171875">
        <ele>1185.199951171875</ele>
        <time>2026-08-21T14:48:19.000Z</time>
        <extensions>
          <ns3:TrackPointExtension>
            <ns3:hr>142</ns3:hr>
            <ns3:cad>0</ns3:cad>
          </ns3:TrackPointExtension>
        </extensions>
      </trkpt>
      <trkpt lat="45.30157643370330333709716796875" lon="-70.8667932450771331787109375">
        <ele>1185.4000244140625</ele>
        <time>2026-08-21T14:48:20.000Z</time>
        <extensions>
          <ns3:TrackPointExtension>
            <ns3:hr>141</ns3:hr>
            <ns3:cad>0</ns3:cad>
          </ns3:TrackPointExtension>
        </extensions>
      </trkpt>
      <trkpt lat="45.30157660134136676788330078125" lon="-70.86679995059967041015625">
        <ele>1185.5999755859375</ele>
        <time>2026-08-21T14:48:21.000Z</time>
        <extensions>
          <ns3:TrackPointExtension>
            <ns3:hr>141</ns3:hr>
            <ns3:cad>0</ns3:cad>
          </ns3:TrackPointExtension>
        </extensions>
      </trkpt>
      <trkpt lat="45.301574170589447021484375" lon="-70.86681126616895198822021484375">
        <ele>1186</ele>
        <time>2026-08-21T14:48:22.000Z</time>
        <extensions>
          <ns3:TrackPointExtension>
            <ns3:hr>141</ns3:hr>
            <ns3:cad>0</ns3:cad>
          </ns3:TrackPointExtension>
        </extensions>
      </trkpt>
      <trkpt lat="45.3015736676752567291259765625" lon="-70.86681864224374294281005859375">
        <ele>1186.199951171875</ele>
        <time>2026-08-21T14:48:23.000Z</time>
        <extensions>
          <ns3:TrackPointExtension>
            <ns3:hr>142</ns3:hr>
            <ns3:cad>0</ns3:cad>
          </ns3:TrackPointExtension>
        </extensions>
      </trkpt>
      <trkpt lat="45.30157391913235187530517578125" lon="-70.866831801831722259521484375">
        <ele>1186.5999755859375</ele>
        <time>2026-08-21T14:48:24.000Z</time>
        <extensions>
          <ns3:TrackPointExtension>
            <ns3:hr>142</ns3:hr>
            <ns3:cad>0</ns3:cad>
          </ns3:TrackPointExtension>
        </extensions>
      </trkpt>
      <trkpt lat="45.30157425440847873687744140625" lon="-70.86684085428714752197265625">
        <ele>1186.800048828125</ele>
        <time>2026-08-21T14:48:25.000Z</time>
        <extensions>
          <ns3:TrackPointExtension>
            <ns3:hr>142</ns3:hr>
            <ns3:cad>48</ns3:cad>
          </ns3:TrackPointExtension>
        </extensions>
      </trkpt>
      <trkpt lat="45.3015755116939544677734375" lon="-70.866850912570953369140625">
        <ele>1187.199951171875</ele>
        <time>2026-08-21T14:48:26.000Z</time>
        <extensions>
          <ns3:TrackPointExtension>
            <ns3:hr>142</ns3:hr>
            <ns3:cad>48</ns3:cad>
          </ns3:TrackPointExtension>
        </extensions>
      </trkpt>
      <trkpt lat="45.30158347450196743011474609375" lon="-70.8668540976941585540771484375">
        <ele>1187.4000244140625</ele>
        <time>2026-08-21T14:48:27.000Z</time>
        <extensions>
          <ns3:TrackPointExtension>
            <ns3:hr>142</ns3:hr>
            <ns3:cad>48</ns3:cad>
          </ns3:TrackPointExtension>
        </extensions>
      </trkpt>
      <trkpt lat="45.30159235931932926177978515625" lon="-70.86686239577829837799072265625">
        <ele>1187.5999755859375</ele>
        <time>2026-08-21T14:48:28.000Z</time>
        <extensions>
          <ns3:TrackPointExtension>
            <ns3:hr>142</ns3:hr>
            <ns3:cad>47</ns3:cad>
          </ns3:TrackPointExtension>
        </extensions>
      </trkpt>
      <trkpt lat="45.3015988133847713470458984375" lon="-70.866862647235393524169921875">
        <ele>1187.800048828125</ele>
        <time>2026-08-21T14:48:29.000Z</time>
        <extensions>
          <ns3:TrackPointExtension>
            <ns3:hr>141</ns3:hr>
            <ns3:cad>47</ns3:cad>
          </ns3:TrackPointExtension>
        </extensions>
      </trkpt>
      <trkpt lat="45.30160057358443737030029296875" lon="-70.8668661676347255706787109375">
        <ele>1188</ele>
        <time>2026-08-21T14:48:30.000Z</time>
        <extensions>
          <ns3:TrackPointExtension>
            <ns3:hr>142</ns3:hr>
            <ns3:cad>46</ns3:cad>
          </ns3:TrackPointExtension>
        </extensions>
      </trkpt>
      <trkpt lat="45.301605351269245147705078125" lon="-70.866865999996662139892578125">
        <ele>1188.199951171875</ele>
        <time>2026-08-21T14:48:31.000Z</time>
        <extensions>
          <ns3:TrackPointExtension>
            <ns3:hr>141</ns3:hr>
            <ns3:cad>46</ns3:cad>
          </ns3:TrackPointExtension>
        </extensions>
      </trkpt>
      <trkpt lat="45.3016122244298458099365234375" lon="-70.86686742492020130157470703125">
        <ele>1188.4000244140625</ele>
        <time>2026-08-21T14:48:32.000Z</time>
        <extensions>
          <ns3:TrackPointExtension>
            <ns3:hr>142</ns3:hr>
            <ns3:cad>45</ns3:cad>
          </ns3:TrackPointExtension>
        </extensions>
      </trkpt>
      <trkpt lat="45.301618091762065887451171875" lon="-70.8668658323585987091064453125">
        <ele>1188.5999755859375</ele>
        <time>2026-08-21T14:48:33.000Z</time>
        <extensions>
          <ns3:TrackPointExtension>
            <ns3:hr>142</ns3:hr>
            <ns3:cad>43</ns3:cad>
          </ns3:TrackPointExtension>
        </extensions>
      </trkpt>
      <trkpt lat="45.301621444523334503173828125" lon="-70.86686675436794757843017578125">
        <ele>1188.800048828125</ele>
        <time>2026-08-21T14:48:34.000Z</time>
        <extensions>
          <ns3:TrackPointExtension>
            <ns3:hr>142</ns3:hr>
            <ns3:cad>43</ns3:cad>
          </ns3:TrackPointExtension>
        </extensions>
      </trkpt>
      <trkpt lat="45.30162421055138111114501953125" lon="-70.8668654970824718475341796875">
        <ele>1189</ele>
        <time>2026-08-21T14:48:35.000Z</time>
        <extensions>
          <ns3:TrackPointExtension>
            <ns3:hr>141</ns3:hr>
            <ns3:cad>43</ns3:cad>
          </ns3:TrackPointExtension>
        </extensions>
      </trkpt>
      <trkpt lat="45.301624797284603118896484375" lon="-70.86686474271118640899658203125">
        <ele>1189.199951171875</ele>
        <time>2026-08-21T14:48:36.000Z</time>
        <extensions>
          <ns3:TrackPointExtension>
            <ns3:hr>142</ns3:hr>
            <ns3:cad>43</ns3:cad>
          </ns3:TrackPointExtension>
        </extensions>
      </trkpt>
      <trkpt lat="45.3016246296465396881103515625" lon="-70.86686138994991779327392578125">
        <ele>1189.4000244140625</ele>
        <time>2026-08-21T14:48:37.000Z</time>
        <extensions>
          <ns3:TrackPointExtension>
            <ns3:hr>142</ns3:hr>
            <ns3:cad>0</ns3:cad>
          </ns3:TrackPointExtension>
        </extensions>
      </trkpt>
      <trkpt lat="45.3016242943704128265380859375" lon="-70.86686038412153720855712890625">
        <ele>1189.4000244140625</ele>
        <time>2026-08-21T14:48:38.000Z</time>
        <extensions>
          <ns3:TrackPointExtension>
            <ns3:hr>142</ns3:hr>
            <ns3:cad>0</ns3:cad>
          </ns3:TrackPointExtension>
        </extensions>
      </trkpt>
      <trkpt lat="45.3016242943704128265380859375" lon="-70.86686038412153720855712890625">
        <ele>1189.4000244140625</ele>
        <time>2026-08-21T14:48:39.000Z</time>
        <extensions>
          <ns3:TrackPointExtension>
            <ns3:hr>142</ns3:hr>
            <ns3:cad>0</ns3:cad>
          </ns3:TrackPointExtension>
        </extensions>
      </trkpt>
      <trkpt lat="45.3016242943704128265380859375" lon="-70.86686038412153720855712890625">
        <ele>1189.5999755859375</ele>
        <time>2026-08-21T14:48:40.000Z</time>
        <extensions>
          <ns3:TrackPointExtension>
            <ns3:hr>142</ns3:hr>
            <ns3:cad>0</ns3:cad>
          </ns3:TrackPointExtension>
        </extensions>
      </trkpt>
      <trkpt lat="45.3016242943704128265380859375" lon="-70.86686038412153720855712890625">
        <ele>1189.4000244140625</ele>
        <time>2026-08-21T14:48:41.000Z</time>
        <extensions>
          <ns3:TrackPointExtension>
            <ns3:hr>142</ns3:hr>
            <ns3:cad>0</ns3:cad>
          </ns3:TrackPointExtension>
        </extensions>
      </trkpt>
      <trkpt lat="45.3016242943704128265380859375" lon="-70.86686038412153720855712890625">
        <ele>1189.5999755859375</ele>
        <time>2026-08-21T14:48:42.000Z</time>
        <extensions>
          <ns3:TrackPointExtension>
            <ns3:hr>143</ns3:hr>
            <ns3:cad>0</ns3:cad>
          </ns3:TrackPointExtension>
        </extensions>
      </trkpt>
      <trkpt lat="45.3016242943704128265380859375" lon="-70.86686038412153720855712890625">
        <ele>1189.5999755859375</ele>
        <time>2026-08-21T14:48:43.000Z</time>
        <extensions>
          <ns3:TrackPointExtension>
            <ns3:hr>142</ns3:hr>
            <ns3:cad>0</ns3:cad>
          </ns3:TrackPointExtension>
        </extensions>
      </trkpt>
      <trkpt lat="45.3016242943704128265380859375" lon="-70.86686038412153720855712890625">
        <ele>1189.5999755859375</ele>
        <time>2026-08-21T14:48:44.000Z</time>
        <extensions>
          <ns3:TrackPointExtension>
            <ns3:hr>142</ns3:hr>
            <ns3:cad>0</ns3:cad>
          </ns3:TrackPointExtension>
        </extensions>
      </trkpt>
      <trkpt lat="45.30162370763719081878662109375" lon="-70.8668584562838077545166015625">
        <ele>1189.800048828125</ele>
        <time>2026-08-21T14:48:45.000Z</time>
        <extensions>
          <ns3:TrackPointExtension>
            <ns3:hr>143</ns3:hr>
            <ns3:cad>0</ns3:cad>
          </ns3:TrackPointExtension>
        </extensions>
      </trkpt>
      <trkpt lat="45.30162655748426914215087890625" lon="-70.86685485206544399261474609375">
        <ele>1189.800048828125</ele>
        <time>2026-08-21T14:48:46.000Z</time>
        <extensions>
          <ns3:TrackPointExtension>
            <ns3:hr>143</ns3:hr>
            <ns3:cad>0</ns3:cad>
          </ns3:TrackPointExtension>
        </extensions>
      </trkpt>
      <trkpt lat="45.30163343064486980438232421875" lon="-70.86684915237128734588623046875">
        <ele>1189.800048828125</ele>
        <time>2026-08-21T14:48:47.000Z</time>
        <extensions>
          <ns3:TrackPointExtension>
            <ns3:hr>142</ns3:hr>
            <ns3:cad>66</ns3:cad>
          </ns3:TrackPointExtension>
        </extensions>
      </trkpt>
      <trkpt lat="45.301636196672916412353515625" lon="-70.86684680543839931488037109375">
        <ele>1189.800048828125</ele>
        <time>2026-08-21T14:48:48.000Z</time>
        <extensions>
          <ns3:TrackPointExtension>
            <ns3:hr>142</ns3:hr>
            <ns3:cad>66</ns3:cad>
          </ns3:TrackPointExtension>
        </extensions>
      </trkpt>
      <trkpt lat="45.30163845978677272796630859375" lon="-70.866847895085811614990234375">
        <ele>1189.800048828125</ele>
        <time>2026-08-21T14:48:49.000Z</time>
        <extensions>
          <ns3:TrackPointExtension>
            <ns3:hr>142</ns3:hr>
            <ns3:cad>0</ns3:cad>
          </ns3:TrackPointExtension>
        </extensions>
      </trkpt>
      <trkpt lat="45.30163921415805816650390625" lon="-70.8668468892574310302734375">
        <ele>1190</ele>
        <time>2026-08-21T14:48:50.000Z</time>
        <extensions>
          <ns3:TrackPointExtension>
            <ns3:hr>142</ns3:hr>
            <ns3:cad>0</ns3:cad>
          </ns3:TrackPointExtension>
        </extensions>
      </trkpt>
      <trkpt lat="45.301636196672916412353515625" lon="-70.8668487332761287689208984375">
        <ele>1190.199951171875</ele>
        <time>2026-08-21T14:48:51.000Z</time>
        <extensions>
          <ns3:TrackPointExtension>
            <ns3:hr>143</ns3:hr>
            <ns3:cad>0</ns3:cad>
          </ns3:TrackPointExtension>
        </extensions>
      </trkpt>
      <trkpt lat="45.30163577757775783538818359375" lon="-70.86685049347579479217529296875">
        <ele>1190.4000244140625</ele>
        <time>2026-08-21T14:48:52.000Z</time>
        <extensions>
          <ns3:TrackPointExtension>
            <ns3:hr>143</ns3:hr>
            <ns3:cad>0</ns3:cad>
          </ns3:TrackPointExtension>
        </extensions>
      </trkpt>
      <trkpt lat="45.3016320057213306427001953125" lon="-70.86685049347579479217529296875">
        <ele>1190.4000244140625</ele>
        <time>2026-08-21T14:48:53.000Z</time>
        <extensions>
          <ns3:TrackPointExtension>
            <ns3:hr>144</ns3:hr>
            <ns3:cad>0</ns3:cad>
          </ns3:TrackPointExtension>
        </extensions>
      </trkpt>
      <trkpt lat="45.30163091607391834259033203125" lon="-70.866847895085811614990234375">
        <ele>1190.5999755859375</ele>
        <time>2026-08-21T14:48:54.000Z</time>
        <extensions>
          <ns3:TrackPointExtension>
            <ns3:hr>144</ns3:hr>
            <ns3:cad>0</ns3:cad>
          </ns3:TrackPointExtension>
        </extensions>
      </trkpt>
      <trkpt lat="45.301630496978759765625" lon="-70.866847895085811614990234375">
        <ele>1190.5999755859375</ele>
        <time>2026-08-21T14:48:55.000Z</time>
        <extensions>
          <ns3:TrackPointExtension>
            <ns3:hr>144</ns3:hr>
            <ns3:cad>0</ns3:cad>
          </ns3:TrackPointExtension>
        </extensions>
      </trkpt>
      <trkpt lat="45.30163058079779148101806640625" lon="-70.8668477274477481842041015625">
        <ele>1190.5999755859375</ele>
        <time>2026-08-21T14:48:56.000Z</time>
        <extensions>
          <ns3:TrackPointExtension>
            <ns3:hr>145</ns3:hr>
            <ns3:cad>0</ns3:cad>
          </ns3:TrackPointExtension>
        </extensions>
      </trkpt>
      <trkpt lat="45.3016242943704128265380859375" lon="-70.86686038412153720855712890625">
        <ele>1190.5999755859375</ele>
        <time>2026-08-21T14:48:57.000Z</time>
        <extensions>
          <ns3:TrackPointExtension>
            <ns3:hr>146</ns3:hr>
            <ns3:cad>0</ns3:cad>
          </ns3:TrackPointExtension>
        </extensions>
      </trkpt>
      <trkpt lat="45.3016242943704128265380859375" lon="-70.86686038412153720855712890625">
        <ele>1190.4000244140625</ele>
        <time>2026-08-21T14:48:58.000Z</time>
        <extensions>
          <ns3:TrackPointExtension>
            <ns3:hr>146</ns3:hr>
            <ns3:cad>0</ns3:cad>
          </ns3:TrackPointExtension>
        </extensions>
      </trkpt>
      <trkpt lat="45.3016242943704128265380859375" lon="-70.86686038412153720855712890625">
        <ele>1190.4000244140625</ele>
        <time>2026-08-21T14:48:59.000Z</time>
        <extensions>
          <ns3:TrackPointExtension>
            <ns3:hr>146</ns3:hr>
            <ns3:cad>0</ns3:cad>
          </ns3:TrackPointExtension>
        </extensions>
      </trkpt>
      <trkpt lat="45.30163108371198177337646484375" lon="-70.8668460510671138763427734375">
        <ele>1190.4000244140625</ele>
        <time>2026-08-21T14:49:00.000Z</time>
        <extensions>
          <ns3:TrackPointExtension>
            <ns3:hr>146</ns3:hr>
            <ns3:cad>0</ns3:cad>
          </ns3:TrackPointExtension>
        </extensions>
      </trkpt>
      <trkpt lat="45.3016303293406963348388671875" lon="-70.86684412322938442230224609375">
        <ele>1190.4000244140625</ele>
        <time>2026-08-21T14:49:01.000Z</time>
        <extensions>
          <ns3:TrackPointExtension>
            <ns3:hr>146</ns3:hr>
            <ns3:cad>0</ns3:cad>
          </ns3:TrackPointExtension>
        </extensions>
      </trkpt>
      <trkpt lat="45.30162982642650604248046875" lon="-70.866840519011020660400390625">
        <ele>1190.199951171875</ele>
        <time>2026-08-21T14:49:02.000Z</time>
        <extensions>
          <ns3:TrackPointExtension>
            <ns3:hr>146</ns3:hr>
            <ns3:cad>0</ns3:cad>
          </ns3:TrackPointExtension>
        </extensions>
      </trkpt>
      <trkpt lat="45.30163410119712352752685546875" lon="-70.86684093810617923736572265625">
        <ele>1190.199951171875</ele>
        <time>2026-08-21T14:49:03.000Z</time>
        <extensions>
          <ns3:TrackPointExtension>
            <ns3:hr>146</ns3:hr>
            <ns3:cad>0</ns3:cad>
          </ns3:TrackPointExtension>
        </extensions>
      </trkpt>
      <trkpt lat="45.30163544230163097381591796875" lon="-70.86684177629649639129638671875">
        <ele>1190.199951171875</ele>
        <time>2026-08-21T14:49:04.000Z</time>
        <extensions>
          <ns3:TrackPointExtension>
            <ns3:hr>146</ns3:hr>
            <ns3:cad>0</ns3:cad>
          </ns3:TrackPointExtension>
        </extensions>
      </trkpt>
      <trkpt lat="45.3016373701393604278564453125" lon="-70.86684278212487697601318359375">
        <ele>1190</ele>
        <time>2026-08-21T14:49:05.000Z</time>
        <extensions>
          <ns3:TrackPointExtension>
            <ns3:hr>145</ns3:hr>
            <ns3:cad>0</ns3:cad>
          </ns3:TrackPointExtension>
        </extensions>
      </trkpt>
      <trkpt lat="45.30163728632032871246337890625" lon="-70.86684378795325756072998046875">
        <ele>1190</ele>
        <time>2026-08-21T14:49:06.000Z</time>
        <extensions>
          <ns3:TrackPointExtension>
            <ns3:hr>146</ns3:hr>
            <ns3:cad>0</ns3:cad>
          </ns3:TrackPointExtension>
        </extensions>
      </trkpt>
      <trkpt lat="45.301638208329677581787109375" lon="-70.86684730835258960723876953125">
        <ele>1190</ele>
        <time>2026-08-21T14:49:07.000Z</time>
        <extensions>
          <ns3:TrackPointExtension>
            <ns3:hr>145</ns3:hr>
            <ns3:cad>0</ns3:cad>
          </ns3:TrackPointExtension>
        </extensions>
      </trkpt>
      <trkpt lat="45.30163829214870929718017578125" lon="-70.86684730835258960723876953125">
        <ele>1190</ele>
        <time>2026-08-21T14:49:08.000Z</time>
        <extensions>
          <ns3:TrackPointExtension>
            <ns3:hr>145</ns3:hr>
            <ns3:cad>0</ns3:cad>
          </ns3:TrackPointExtension>
        </extensions>
      </trkpt>
      <trkpt lat="45.30163829214870929718017578125" lon="-70.86684730835258960723876953125">
        <ele>1190</ele>
        <time>2026-08-21T14:49:09.000Z</time>
        <extensions>
          <ns3:TrackPointExtension>
            <ns3:hr>144</ns3:hr>
            <ns3:cad>0</ns3:cad>
          </ns3:TrackPointExtension>
        </extensions>
      </trkpt>
      <trkpt lat="45.30163829214870929718017578125" lon="-70.86684730835258960723876953125">
        <ele>1190</ele>
        <time>2026-08-21T14:49:10.000Z</time>
        <extensions>
          <ns3:TrackPointExtension>
            <ns3:hr>143</ns3:hr>
            <ns3:cad>0</ns3:cad>
          </ns3:TrackPointExtension>
        </extensions>
      </trkpt>
      <trkpt lat="45.301638543605804443359375" lon="-70.86684747599065303802490234375">
        <ele>1190</ele>
        <time>2026-08-21T14:49:11.000Z</time>
        <extensions>
          <ns3:TrackPointExtension>
            <ns3:hr>142</ns3:hr>
            <ns3:cad>0</ns3:cad>
          </ns3:TrackPointExtension>
        </extensions>
      </trkpt>
      <trkpt lat="45.301642231643199920654296875" lon="-70.8668482303619384765625">
        <ele>1190</ele>
        <time>2026-08-21T14:49:12.000Z</time>
        <extensions>
          <ns3:TrackPointExtension>
            <ns3:hr>142</ns3:hr>
            <ns3:cad>0</ns3:cad>
          </ns3:TrackPointExtension>
        </extensions>
      </trkpt>
      <trkpt lat="45.30163829214870929718017578125" lon="-70.86684730835258960723876953125">
        <ele>1190</ele>
        <time>2026-08-21T14:49:13.000Z</time>
        <extensions>
          <ns3:TrackPointExtension>
            <ns3:hr>142</ns3:hr>
            <ns3:cad>0</ns3:cad>
          </ns3:TrackPointExtension>
        </extensions>
      </trkpt>
      <trkpt lat="45.30163829214870929718017578125" lon="-70.86684730835258960723876953125">
        <ele>1190</ele>
        <time>2026-08-21T14:49:14.000Z</time>
        <extensions>
          <ns3:TrackPointExtension>
            <ns3:hr>141</ns3:hr>
            <ns3:cad>0</ns3:cad>
          </ns3:TrackPointExtension>
        </extensions>
      </trkpt>
      <trkpt lat="45.30163829214870929718017578125" lon="-70.86684730835258960723876953125">
        <ele>1190.199951171875</ele>
        <time>2026-08-21T14:49:15.000Z</time>
        <extensions>
          <ns3:TrackPointExtension>
            <ns3:hr>141</ns3:hr>
            <ns3:cad>0</ns3:cad>
          </ns3:TrackPointExtension>
        </extensions>
      </trkpt>
      <trkpt lat="45.30163829214870929718017578125" lon="-70.86684730835258960723876953125">
        <ele>1190.199951171875</ele>
        <time>2026-08-21T14:49:16.000Z</time>
        <extensions>
          <ns3:TrackPointExtension>
            <ns3:hr>140</ns3:hr>
            <ns3:cad>0</ns3:cad>
          </ns3:TrackPointExtension>
        </extensions>
      </trkpt>
      <trkpt lat="45.30163829214870929718017578125" lon="-70.86684730835258960723876953125">
        <ele>1190.199951171875</ele>
        <time>2026-08-21T14:49:17.000Z</time>
        <extensions>
          <ns3:TrackPointExtension>
            <ns3:hr>140</ns3:hr>
            <ns3:cad>0</ns3:cad>
          </ns3:TrackPointExtension>
        </extensions>
      </trkpt>
      <trkpt lat="45.30163829214870929718017578125" lon="-70.86684730835258960723876953125">
        <ele>1190.199951171875</ele>
        <time>2026-08-21T14:49:18.000Z</time>
        <extensions>
          <ns3:TrackPointExtension>
            <ns3:hr>139</ns3:hr>
            <ns3:cad>0</ns3:cad>
          </ns3:TrackPointExtension>
        </extensions>
      </trkpt>
      <trkpt lat="45.30163829214870929718017578125" lon="-70.86684730835258960723876953125">
        <ele>1190.199951171875</ele>
        <time>2026-08-21T14:49:19.000Z</time>
        <extensions>
          <ns3:TrackPointExtension>
            <ns3:hr>138</ns3:hr>
            <ns3:cad>0</ns3:cad>
          </ns3:TrackPointExtension>
        </extensions>
      </trkpt>
      <trkpt lat="45.30163829214870929718017578125" lon="-70.86684730835258960723876953125">
        <ele>1190.199951171875</ele>
        <time>2026-08-21T14:49:20.000Z</time>
        <extensions>
          <ns3:TrackPointExtension>
            <ns3:hr>137</ns3:hr>
            <ns3:cad>0</ns3:cad>
          </ns3:TrackPointExtension>
        </extensions>
      </trkpt>
      <trkpt lat="45.30163829214870929718017578125" lon="-70.86684730835258960723876953125">
        <ele>1190.199951171875</ele>
        <time>2026-08-21T14:49:21.000Z</time>
        <extensions>
          <ns3:TrackPointExtension>
            <ns3:hr>136</ns3:hr>
            <ns3:cad>0</ns3:cad>
          </ns3:TrackPointExtension>
        </extensions>
      </trkpt>
      <trkpt lat="45.30163829214870929718017578125" lon="-70.86684730835258960723876953125">
        <ele>1190.4000244140625</ele>
        <time>2026-08-21T14:49:22.000Z</time>
        <extensions>
          <ns3:TrackPointExtension>
            <ns3:hr>135</ns3:hr>
            <ns3:cad>0</ns3:cad>
          </ns3:TrackPointExtension>
        </extensions>
      </trkpt>
      <trkpt lat="45.30163829214870929718017578125" lon="-70.86684730835258960723876953125">
        <ele>1190.4000244140625</ele>
        <time>2026-08-21T14:49:23.000Z</time>
        <extensions>
          <ns3:TrackPointExtension>
            <ns3:hr>134</ns3:hr>
            <ns3:cad>0</ns3:cad>
          </ns3:TrackPointExtension>
        </extensions>
      </trkpt>
      <trkpt lat="45.30163829214870929718017578125" lon="-70.86684730835258960723876953125">
        <ele>1190.4000244140625</ele>
        <time>2026-08-21T14:49:24.000Z</time>
        <extensions>
          <ns3:TrackPointExtension>
            <ns3:hr>134</ns3:hr>
            <ns3:cad>0</ns3:cad>
          </ns3:TrackPointExtension>
        </extensions>
      </trkpt>
      <trkpt lat="45.30163829214870929718017578125" lon="-70.86684730835258960723876953125">
        <ele>1190.4000244140625</ele>
        <time>2026-08-21T14:49:25.000Z</time>
        <extensions>
          <ns3:TrackPointExtension>
            <ns3:hr>134</ns3:hr>
            <ns3:cad>0</ns3:cad>
          </ns3:TrackPointExtension>
        </extensions>
      </trkpt>
      <trkpt lat="45.301638543605804443359375" lon="-70.8668430335819721221923828125">
        <ele>1190.199951171875</ele>
        <time>2026-08-21T14:49:26.000Z</time>
        <extensions>
          <ns3:TrackPointExtension>
            <ns3:hr>134</ns3:hr>
            <ns3:cad>0</ns3:cad>
          </ns3:TrackPointExtension>
        </extensions>
      </trkpt>
      <trkpt lat="45.30163477174937725067138671875" lon="-70.86683976463973522186279296875">
        <ele>1190.199951171875</ele>
        <time>2026-08-21T14:49:27.000Z</time>
        <extensions>
          <ns3:TrackPointExtension>
            <ns3:hr>133</ns3:hr>
            <ns3:cad>0</ns3:cad>
          </ns3:TrackPointExtension>
        </extensions>
      </trkpt>
      <trkpt lat="45.30163242481648921966552734375" lon="-70.86683775298297405242919921875">
        <ele>1190.199951171875</ele>
        <time>2026-08-21T14:49:28.000Z</time>
        <extensions>
          <ns3:TrackPointExtension>
            <ns3:hr>133</ns3:hr>
            <ns3:cad>0</ns3:cad>
          </ns3:TrackPointExtension>
        </extensions>
      </trkpt>
      <trkpt lat="45.30163024552166461944580078125" lon="-70.86683875881135463714599609375">
        <ele>1190.199951171875</ele>
        <time>2026-08-21T14:49:29.000Z</time>
        <extensions>
          <ns3:TrackPointExtension>
            <ns3:hr>132</ns3:hr>
            <ns3:cad>0</ns3:cad>
          </ns3:TrackPointExtension>
        </extensions>
      </trkpt>
      <trkpt lat="45.30163829214870929718017578125" lon="-70.86684730835258960723876953125">
        <ele>1190.199951171875</ele>
        <time>2026-08-21T14:49:30.000Z</time>
        <extensions>
          <ns3:TrackPointExtension>
            <ns3:hr>130</ns3:hr>
            <ns3:cad>0</ns3:cad>
          </ns3:TrackPointExtension>
        </extensions>
      </trkpt>
      <trkpt lat="45.30163829214870929718017578125" lon="-70.86684730835258960723876953125">
        <ele>1190.199951171875</ele>
        <time>2026-08-21T14:49:31.000Z</time>
        <extensions>
          <ns3:TrackPointExtension>
            <ns3:hr>127</ns3:hr>
            <ns3:cad>0</ns3:cad>
          </ns3:TrackPointExtension>
        </extensions>
      </trkpt>
      <trkpt lat="45.30163829214870929718017578125" lon="-70.86684730835258960723876953125">
        <ele>1190.199951171875</ele>
        <time>2026-08-21T14:49:32.000Z</time>
        <extensions>
          <ns3:TrackPointExtension>
            <ns3:hr>126</ns3:hr>
            <ns3:cad>0</ns3:cad>
          </ns3:TrackPointExtension>
        </extensions>
      </trkpt>
      <trkpt lat="45.30163829214870929718017578125" lon="-70.86684730835258960723876953125">
        <ele>1190.199951171875</ele>
        <time>2026-08-21T14:49:33.000Z</time>
        <extensions>
          <ns3:TrackPointExtension>
            <ns3:hr>125</ns3:hr>
            <ns3:cad>0</ns3:cad>
          </ns3:TrackPointExtension>
        </extensions>
      </trkpt>
      <trkpt lat="45.30163829214870929718017578125" lon="-70.86684730835258960723876953125">
        <ele>1190.199951171875</ele>
        <time>2026-08-21T14:49:34.000Z</time>
        <extensions>
          <ns3:TrackPointExtension>
            <ns3:hr>125</ns3:hr>
            <ns3:cad>0</ns3:cad>
          </ns3:TrackPointExtension>
        </extensions>
      </trkpt>
      <trkpt lat="45.30163829214870929718017578125" lon="-70.86684730835258960723876953125">
        <ele>1190.199951171875</ele>
        <time>2026-08-21T14:49:35.000Z</time>
        <extensions>
          <ns3:TrackPointExtension>
            <ns3:hr>125</ns3:hr>
            <ns3:cad>0</ns3:cad>
          </ns3:TrackPointExtension>
        </extensions>
      </trkpt>
      <trkpt lat="45.30163829214870929718017578125" lon="-70.86684730835258960723876953125">
        <ele>1190.199951171875</ele>
        <time>2026-08-21T14:49:36.000Z</time>
        <extensions>
          <ns3:TrackPointExtension>
            <ns3:hr>125</ns3:hr>
            <ns3:cad>0</ns3:cad>
          </ns3:TrackPointExtension>
        </extensions>
      </trkpt>
      <trkpt lat="45.30163829214870929718017578125" lon="-70.86684730835258960723876953125">
        <ele>1190.199951171875</ele>
        <time>2026-08-21T14:49:37.000Z</time>
        <extensions>
          <ns3:TrackPointExtension>
            <ns3:hr>124</ns3:hr>
            <ns3:cad>0</ns3:cad>
          </ns3:TrackPointExtension>
        </extensions>
      </trkpt>
      <trkpt lat="45.30163829214870929718017578125" lon="-70.86684730835258960723876953125">
        <ele>1190.199951171875</ele>
        <time>2026-08-21T14:49:38.000Z</time>
        <extensions>
          <ns3:TrackPointExtension>
            <ns3:hr>123</ns3:hr>
            <ns3:cad>0</ns3:cad>
          </ns3:TrackPointExtension>
        </extensions>
      </trkpt>
      <trkpt lat="45.30163829214870929718017578125" lon="-70.86684730835258960723876953125">
        <ele>1190</ele>
        <time>2026-08-21T14:49:39.000Z</time>
        <extensions>
          <ns3:TrackPointExtension>
            <ns3:hr>122</ns3:hr>
            <ns3:cad>0</ns3:cad>
          </ns3:TrackPointExtension>
        </extensions>
      </trkpt>
      <trkpt lat="45.30163829214870929718017578125" lon="-70.86684730835258960723876953125">
        <ele>1190</ele>
        <time>2026-08-21T14:49:40.000Z</time>
        <extensions>
          <ns3:TrackPointExtension>
            <ns3:hr>123</ns3:hr>
            <ns3:cad>0</ns3:cad>
          </ns3:TrackPointExtension>
        </extensions>
      </trkpt>
      <trkpt lat="45.30163829214870929718017578125" lon="-70.86684730835258960723876953125">
        <ele>1190</ele>
        <time>2026-08-21T14:49:41.000Z</time>
        <extensions>
          <ns3:TrackPointExtension>
            <ns3:hr>123</ns3:hr>
            <ns3:cad>0</ns3:cad>
          </ns3:TrackPointExtension>
        </extensions>
      </trkpt>
      <trkpt lat="45.30163829214870929718017578125" lon="-70.86684730835258960723876953125">
        <ele>1189.800048828125</ele>
        <time>2026-08-21T14:49:42.000Z</time>
        <extensions>
          <ns3:TrackPointExtension>
            <ns3:hr>126</ns3:hr>
            <ns3:cad>0</ns3:cad>
          </ns3:TrackPointExtension>
        </extensions>
      </trkpt>
      <trkpt lat="45.30163829214870929718017578125" lon="-70.86684730835258960723876953125">
        <ele>1189.800048828125</ele>
        <time>2026-08-21T14:49:43.000Z</time>
        <extensions>
          <ns3:TrackPointExtension>
            <ns3:hr>126</ns3:hr>
            <ns3:cad>0</ns3:cad>
          </ns3:TrackPointExtension>
        </extensions>
      </trkpt>
      <trkpt lat="45.30163829214870929718017578125" lon="-70.86684730835258960723876953125">
        <ele>1189.800048828125</ele>
        <time>2026-08-21T14:49:44.000Z</time>
        <extensions>
          <ns3:TrackPointExtension>
            <ns3:hr>125</ns3:hr>
            <ns3:cad>0</ns3:cad>
          </ns3:TrackPointExtension>
        </extensions>
      </trkpt>
      <trkpt lat="45.30163829214870929718017578125" lon="-70.86684730835258960723876953125">
        <ele>1189.800048828125</ele>
        <time>2026-08-21T14:49:45.000Z</time>
        <extensions>
          <ns3:TrackPointExtension>
            <ns3:hr>124</ns3:hr>
            <ns3:cad>0</ns3:cad>
          </ns3:TrackPointExtension>
        </extensions>
      </trkpt>
      <trkpt lat="45.30163829214870929718017578125" lon="-70.86684730835258960723876953125">
        <ele>1189.800048828125</ele>
        <time>2026-08-21T14:49:46.000Z</time>
        <extensions>
          <ns3:TrackPointExtension>
            <ns3:hr>123</ns3:hr>
            <ns3:cad>0</ns3:cad>
          </ns3:TrackPointExtension>
        </extensions>
      </trkpt>
      <trkpt lat="45.30163829214870929718017578125" lon="-70.86684730835258960723876953125">
        <ele>1190</ele>
        <time>2026-08-21T14:49:47.000Z</time>
        <extensions>
          <ns3:TrackPointExtension>
            <ns3:hr>122</ns3:hr>
            <ns3:cad>0</ns3:cad>
          </ns3:TrackPointExtension>
        </extensions>
      </trkpt>
      <trkpt lat="45.30163829214870929718017578125" lon="-70.86684730835258960723876953125">
        <ele>1190</ele>
        <time>2026-08-21T14:49:48.000Z</time>
        <extensions>
          <ns3:TrackPointExtension>
            <ns3:hr>122</ns3:hr>
            <ns3:cad>0</ns3:cad>
          </ns3:TrackPointExtension>
        </extensions>
      </trkpt>
      <trkpt lat="45.30163829214870929718017578125" lon="-70.86684730835258960723876953125">
        <ele>1190</ele>
        <time>2026-08-21T14:49:49.000Z</time>
        <extensions>
          <ns3:TrackPointExtension>
            <ns3:hr>122</ns3:hr>
            <ns3:cad>0</ns3:cad>
          </ns3:TrackPointExtension>
        </extensions>
      </trkpt>
      <trkpt lat="45.30163829214870929718017578125" lon="-70.86684730835258960723876953125">
        <ele>1190</ele>
        <time>2026-08-21T14:49:50.000Z</time>
        <extensions>
          <ns3:TrackPointExtension>
            <ns3:hr>122</ns3:hr>
            <ns3:cad>0</ns3:cad>
          </ns3:TrackPointExtension>
        </extensions>
      </trkpt>
      <trkpt lat="45.30163829214870929718017578125" lon="-70.86684730835258960723876953125">
        <ele>1190</ele>
        <time>2026-08-21T14:49:51.000Z</time>
        <extensions>
          <ns3:TrackPointExtension>
            <ns3:hr>122</ns3:hr>
            <ns3:cad>0</ns3:cad>
          </ns3:TrackPointExtension>
        </extensions>
      </trkpt>
      <trkpt lat="45.30163829214870929718017578125" lon="-70.86684730835258960723876953125">
        <ele>1190</ele>
        <time>2026-08-21T14:49:52.000Z</time>
        <extensions>
          <ns3:TrackPointExtension>
            <ns3:hr>122</ns3:hr>
            <ns3:cad>0</ns3:cad>
          </ns3:TrackPointExtension>
        </extensions>
      </trkpt>
      <trkpt lat="45.30162714421749114990234375" lon="-70.86684077046811580657958984375">
        <ele>1189.800048828125</ele>
        <time>2026-08-21T14:49:53.000Z</time>
        <extensions>
          <ns3:TrackPointExtension>
            <ns3:hr>122</ns3:hr>
            <ns3:cad>0</ns3:cad>
          </ns3:TrackPointExtension>
        </extensions>
      </trkpt>
      <trkpt lat="45.30162387527525424957275390625" lon="-70.86684563197195529937744140625">
        <ele>1189.800048828125</ele>
        <time>2026-08-21T14:49:54.000Z</time>
        <extensions>
          <ns3:TrackPointExtension>
            <ns3:hr>122</ns3:hr>
            <ns3:cad>0</ns3:cad>
          </ns3:TrackPointExtension>
        </extensions>
      </trkpt>
      <trkpt lat="45.30162270180881023406982421875" lon="-70.86685200221836566925048828125">
        <ele>1189.800048828125</ele>
        <time>2026-08-21T14:49:55.000Z</time>
        <extensions>
          <ns3:TrackPointExtension>
            <ns3:hr>122</ns3:hr>
            <ns3:cad>0</ns3:cad>
          </ns3:TrackPointExtension>
        </extensions>
      </trkpt>
      <trkpt lat="45.30162286944687366485595703125" lon="-70.866850577294826507568359375">
        <ele>1189.800048828125</ele>
        <time>2026-08-21T14:49:56.000Z</time>
        <extensions>
          <ns3:TrackPointExtension>
            <ns3:hr>122</ns3:hr>
            <ns3:cad>0</ns3:cad>
          </ns3:TrackPointExtension>
        </extensions>
      </trkpt>
      <trkpt lat="45.30162286944687366485595703125" lon="-70.866850577294826507568359375">
        <ele>1189.5999755859375</ele>
        <time>2026-08-21T14:49:57.000Z</time>
        <extensions>
          <ns3:TrackPointExtension>
            <ns3:hr>122</ns3:hr>
            <ns3:cad>0</ns3:cad>
          </ns3:TrackPointExtension>
        </extensions>
      </trkpt>
      <trkpt lat="45.30162286944687366485595703125" lon="-70.866850577294826507568359375">
        <ele>1189.5999755859375</ele>
        <time>2026-08-21T14:49:58.000Z</time>
        <extensions>
          <ns3:TrackPointExtension>
            <ns3:hr>121</ns3:hr>
            <ns3:cad>0</ns3:cad>
          </ns3:TrackPointExtension>
        </extensions>
      </trkpt>
      <trkpt lat="45.30162286944687366485595703125" lon="-70.866850577294826507568359375">
        <ele>1189.5999755859375</ele>
        <time>2026-08-21T14:49:59.000Z</time>
        <extensions>
          <ns3:TrackPointExtension>
            <ns3:hr>122</ns3:hr>
            <ns3:cad>0</ns3:cad>
          </ns3:TrackPointExtension>
        </extensions>
      </trkpt>
      <trkpt lat="45.30162286944687366485595703125" lon="-70.866850577294826507568359375">
        <ele>1189.5999755859375</ele>
        <time>2026-08-21T14:50:00.000Z</time>
        <extensions>
          <ns3:TrackPointExtension>
            <ns3:hr>122</ns3:hr>
            <ns3:cad>0</ns3:cad>
          </ns3:TrackPointExtension>
        </extensions>
      </trkpt>
      <trkpt lat="45.30162286944687366485595703125" lon="-70.866850577294826507568359375">
        <ele>1189.5999755859375</ele>
        <time>2026-08-21T14:50:01.000Z</time>
        <extensions>
          <ns3:TrackPointExtension>
            <ns3:hr>122</ns3:hr>
            <ns3:cad>0</ns3:cad>
          </ns3:TrackPointExtension>
        </extensions>
      </trkpt>
      <trkpt lat="45.30162286944687366485595703125" lon="-70.866850577294826507568359375">
        <ele>1189.5999755859375</ele>
        <time>2026-08-21T14:50:02.000Z</time>
        <extensions>
          <ns3:TrackPointExtension>
            <ns3:hr>122</ns3:hr>
            <ns3:cad>0</ns3:cad>
          </ns3:TrackPointExtension>
        </extensions>
      </trkpt>
      <trkpt lat="45.30162286944687366485595703125" lon="-70.866850577294826507568359375">
        <ele>1189.5999755859375</ele>
        <time>2026-08-21T14:50:03.000Z</time>
        <extensions>
          <ns3:TrackPointExtension>
            <ns3:hr>122</ns3:hr>
            <ns3:cad>0</ns3:cad>
          </ns3:TrackPointExtension>
        </extensions>
      </trkpt>
      <trkpt lat="45.30162286944687366485595703125" lon="-70.866850577294826507568359375">
        <ele>1189.5999755859375</ele>
        <time>2026-08-21T14:50:04.000Z</time>
        <extensions>
          <ns3:TrackPointExtension>
            <ns3:hr>122</ns3:hr>
            <ns3:cad>0</ns3:cad>
          </ns3:TrackPointExtension>
        </extensions>
      </trkpt>
      <trkpt lat="45.30162286944687366485595703125" lon="-70.866850577294826507568359375">
        <ele>1189.5999755859375</ele>
        <time>2026-08-21T14:50:05.000Z</time>
        <extensions>
          <ns3:TrackPointExtension>
            <ns3:hr>120</ns3:hr>
            <ns3:cad>0</ns3:cad>
          </ns3:TrackPointExtension>
        </extensions>
      </trkpt>
      <trkpt lat="45.30162286944687366485595703125" lon="-70.866850577294826507568359375">
        <ele>1189.800048828125</ele>
        <time>2026-08-21T14:50:06.000Z</time>
        <extensions>
          <ns3:TrackPointExtension>
            <ns3:hr>118</ns3:hr>
            <ns3:cad>0</ns3:cad>
          </ns3:TrackPointExtension>
        </extensions>
      </trkpt>
      <trkpt lat="45.30162286944687366485595703125" lon="-70.866850577294826507568359375">
        <ele>1189.800048828125</ele>
        <time>2026-08-21T14:50:07.000Z</time>
        <extensions>
          <ns3:TrackPointExtension>
            <ns3:hr>117</ns3:hr>
            <ns3:cad>0</ns3:cad>
          </ns3:TrackPointExtension>
        </extensions>
      </trkpt>
      <trkpt lat="45.30162286944687366485595703125" lon="-70.866850577294826507568359375">
        <ele>1189.800048828125</ele>
        <time>2026-08-21T14:50:08.000Z</time>
        <extensions>
          <ns3:TrackPointExtension>
            <ns3:hr>116</ns3:hr>
            <ns3:cad>0</ns3:cad>
          </ns3:TrackPointExtension>
        </extensions>
      </trkpt>
      <trkpt lat="45.30162286944687366485595703125" lon="-70.866850577294826507568359375">
        <ele>1189.800048828125</ele>
        <time>2026-08-21T14:50:09.000Z</time>
        <extensions>
          <ns3:TrackPointExtension>
            <ns3:hr>116</ns3:hr>
            <ns3:cad>0</ns3:cad>
          </ns3:TrackPointExtension>
        </extensions>
      </trkpt>
      <trkpt lat="45.30162286944687366485595703125" lon="-70.866850577294826507568359375">
        <ele>1189.800048828125</ele>
        <time>2026-08-21T14:50:10.000Z</time>
        <extensions>
          <ns3:TrackPointExtension>
            <ns3:hr>117</ns3:hr>
            <ns3:cad>0</ns3:cad>
          </ns3:TrackPointExtension>
        </extensions>
      </trkpt>
      <trkpt lat="45.30162286944687366485595703125" lon="-70.866850577294826507568359375">
        <ele>1189.800048828125</ele>
        <time>2026-08-21T14:50:11.000Z</time>
        <extensions>
          <ns3:TrackPointExtension>
            <ns3:hr>118</ns3:hr>
            <ns3:cad>0</ns3:cad>
          </ns3:TrackPointExtension>
        </extensions>
      </trkpt>
      <trkpt lat="45.30162286944687366485595703125" lon="-70.866850577294826507568359375">
        <ele>1189.800048828125</ele>
        <time>2026-08-21T14:50:12.000Z</time>
        <extensions>
          <ns3:TrackPointExtension>
            <ns3:hr>119</ns3:hr>
            <ns3:cad>0</ns3:cad>
          </ns3:TrackPointExtension>
        </extensions>
      </trkpt>
      <trkpt lat="45.30162286944687366485595703125" lon="-70.866850577294826507568359375">
        <ele>1190</ele>
        <time>2026-08-21T14:50:13.000Z</time>
        <extensions>
          <ns3:TrackPointExtension>
            <ns3:hr>119</ns3:hr>
            <ns3:cad>0</ns3:cad>
          </ns3:TrackPointExtension>
        </extensions>
      </trkpt>
      <trkpt lat="45.30162286944687366485595703125" lon="-70.866850577294826507568359375">
        <ele>1189.800048828125</ele>
        <time>2026-08-21T14:50:14.000Z</time>
        <extensions>
          <ns3:TrackPointExtension>
            <ns3:hr>119</ns3:hr>
            <ns3:cad>0</ns3:cad>
          </ns3:TrackPointExtension>
        </extensions>
      </trkpt>
      <trkpt lat="45.301633179187774658203125" lon="-70.8668413572013378143310546875">
        <ele>1189.800048828125</ele>
        <time>2026-08-21T14:50:15.000Z</time>
        <extensions>
          <ns3:TrackPointExtension>
            <ns3:hr>119</ns3:hr>
            <ns3:cad>0</ns3:cad>
          </ns3:TrackPointExtension>
        </extensions>
      </trkpt>
      <trkpt lat="45.3016393817961215972900390625" lon="-70.86682635359466075897216796875">
        <ele>1189.800048828125</ele>
        <time>2026-08-21T14:50:16.000Z</time>
        <extensions>
          <ns3:TrackPointExtension>
            <ns3:hr>118</ns3:hr>
            <ns3:cad>0</ns3:cad>
          </ns3:TrackPointExtension>
        </extensions>
      </trkpt>
      <trkpt lat="45.301638208329677581787109375" lon="-70.86682283319532871246337890625">
        <ele>1189.800048828125</ele>
        <time>2026-08-21T14:50:17.000Z</time>
        <extensions>
          <ns3:TrackPointExtension>
            <ns3:hr>118</ns3:hr>
            <ns3:cad>0</ns3:cad>
          </ns3:TrackPointExtension>
        </extensions>
      </trkpt>
      <trkpt lat="45.30163560993969440460205078125" lon="-70.866823084652423858642578125">
        <ele>1190</ele>
        <time>2026-08-21T14:50:18.000Z</time>
        <extensions>
          <ns3:TrackPointExtension>
            <ns3:hr>117</ns3:hr>
            <ns3:cad>0</ns3:cad>
          </ns3:TrackPointExtension>
        </extensions>
      </trkpt>
      <trkpt lat="45.30163141898810863494873046875" lon="-70.8668262697756290435791015625">
        <ele>1190</ele>
        <time>2026-08-21T14:50:19.000Z</time>
        <extensions>
          <ns3:TrackPointExtension>
            <ns3:hr>116</ns3:hr>
            <ns3:cad>0</ns3:cad>
          </ns3:TrackPointExtension>
        </extensions>
      </trkpt>
      <trkpt lat="45.30163141898810863494873046875" lon="-70.86682903580367565155029296875">
        <ele>1190</ele>
        <time>2026-08-21T14:50:20.000Z</time>
        <extensions>
          <ns3:TrackPointExtension>
            <ns3:hr>117</ns3:hr>
            <ns3:cad>0</ns3:cad>
          </ns3:TrackPointExtension>
        </extensions>
      </trkpt>
      <trkpt lat="45.30163116753101348876953125" lon="-70.8668289519846439361572265625">
        <ele>1190</ele>
        <time>2026-08-21T14:50:21.000Z</time>
        <extensions>
          <ns3:TrackPointExtension>
            <ns3:hr>118</ns3:hr>
            <ns3:cad>0</ns3:cad>
          </ns3:TrackPointExtension>
        </extensions>
      </trkpt>
      <trkpt lat="45.30163116753101348876953125" lon="-70.8668289519846439361572265625">
        <ele>1190</ele>
        <time>2026-08-21T14:50:22.000Z</time>
        <extensions>
          <ns3:TrackPointExtension>
            <ns3:hr>118</ns3:hr>
            <ns3:cad>0</ns3:cad>
          </ns3:TrackPointExtension>
        </extensions>
      </trkpt>
      <trkpt lat="45.30163116753101348876953125" lon="-70.8668289519846439361572265625">
        <ele>1190</ele>
        <time>2026-08-21T14:50:23.000Z</time>
        <extensions>
          <ns3:TrackPointExtension>
            <ns3:hr>118</ns3:hr>
            <ns3:cad>0</ns3:cad>
          </ns3:TrackPointExtension>
        </extensions>
      </trkpt>
      <trkpt lat="45.30163116753101348876953125" lon="-70.8668289519846439361572265625">
        <ele>1189.800048828125</ele>
        <time>2026-08-21T14:50:24.000Z</time>
        <extensions>
          <ns3:TrackPointExtension>
            <ns3:hr>118</ns3:hr>
            <ns3:cad>0</ns3:cad>
          </ns3:TrackPointExtension>
        </extensions>
      </trkpt>
      <trkpt lat="45.30163116753101348876953125" lon="-70.8668289519846439361572265625">
        <ele>1189.800048828125</ele>
        <time>2026-08-21T14:50:25.000Z</time>
        <extensions>
          <ns3:TrackPointExtension>
            <ns3:hr>118</ns3:hr>
            <ns3:cad>0</ns3:cad>
          </ns3:TrackPointExtension>
        </extensions>
      </trkpt>
      <trkpt lat="45.30163116753101348876953125" lon="-70.8668289519846439361572265625">
        <ele>1189.800048828125</ele>
        <time>2026-08-21T14:50:26.000Z</time>
        <extensions>
          <ns3:TrackPointExtension>
            <ns3:hr>118</ns3:hr>
            <ns3:cad>0</ns3:cad>
          </ns3:TrackPointExtension>
        </extensions>
      </trkpt>
      <trkpt lat="45.30163116753101348876953125" lon="-70.8668289519846439361572265625">
        <ele>1189.800048828125</ele>
        <time>2026-08-21T14:50:27.000Z</time>
        <extensions>
          <ns3:TrackPointExtension>
            <ns3:hr>119</ns3:hr>
            <ns3:cad>0</ns3:cad>
          </ns3:TrackPointExtension>
        </extensions>
      </trkpt>
      <trkpt lat="45.3016299940645694732666015625" lon="-70.866829790174961090087890625">
        <ele>1189.800048828125</ele>
        <time>2026-08-21T14:50:28.000Z</time>
        <extensions>
          <ns3:TrackPointExtension>
            <ns3:hr>121</ns3:hr>
            <ns3:cad>0</ns3:cad>
          </ns3:TrackPointExtension>
        </extensions>
      </trkpt>
      <trkpt lat="45.301626138389110565185546875" lon="-70.866837836802005767822265625">
        <ele>1189.800048828125</ele>
        <time>2026-08-21T14:50:29.000Z</time>
        <extensions>
          <ns3:TrackPointExtension>
            <ns3:hr>121</ns3:hr>
            <ns3:cad>0</ns3:cad>
          </ns3:TrackPointExtension>
        </extensions>
      </trkpt>
      <trkpt lat="45.30162270180881023406982421875" lon="-70.86684261448681354522705078125">
        <ele>1189.800048828125</ele>
        <time>2026-08-21T14:50:30.000Z</time>
        <extensions>
          <ns3:TrackPointExtension>
            <ns3:hr>121</ns3:hr>
            <ns3:cad>0</ns3:cad>
          </ns3:TrackPointExtension>
        </extensions>
      </trkpt>
      <trkpt lat="45.30162312090396881103515625" lon="-70.8668361604213714599609375">
        <ele>1189.800048828125</ele>
        <time>2026-08-21T14:50:31.000Z</time>
        <extensions>
          <ns3:TrackPointExtension>
            <ns3:hr>120</ns3:hr>
            <ns3:cad>0</ns3:cad>
          </ns3:TrackPointExtension>
        </extensions>
      </trkpt>
      <trkpt lat="45.301618091762065887451171875" lon="-70.8668299578130245208740234375">
        <ele>1189.800048828125</ele>
        <time>2026-08-21T14:50:32.000Z</time>
        <extensions>
          <ns3:TrackPointExtension>
            <ns3:hr>120</ns3:hr>
            <ns3:cad>0</ns3:cad>
          </ns3:TrackPointExtension>
        </extensions>
      </trkpt>
      <trkpt lat="45.3016155771911144256591796875" lon="-70.86683406494557857513427734375">
        <ele>1189.5999755859375</ele>
        <time>2026-08-21T14:50:33.000Z</time>
        <extensions>
          <ns3:TrackPointExtension>
            <ns3:hr>120</ns3:hr>
            <ns3:cad>0</ns3:cad>
          </ns3:TrackPointExtension>
        </extensions>
      </trkpt>
      <trkpt lat="45.3016155771911144256591796875" lon="-70.86683440022170543670654296875">
        <ele>1189.4000244140625</ele>
        <time>2026-08-21T14:50:34.000Z</time>
        <extensions>
          <ns3:TrackPointExtension>
            <ns3:hr>120</ns3:hr>
            <ns3:cad>0</ns3:cad>
          </ns3:TrackPointExtension>
        </extensions>
      </trkpt>
      <trkpt lat="45.3016155771911144256591796875" lon="-70.86683440022170543670654296875">
        <ele>1189.199951171875</ele>
        <time>2026-08-21T14:50:35.000Z</time>
        <extensions>
          <ns3:TrackPointExtension>
            <ns3:hr>121</ns3:hr>
            <ns3:cad>0</ns3:cad>
          </ns3:TrackPointExtension>
        </extensions>
      </trkpt>
      <trkpt lat="45.3016155771911144256591796875" lon="-70.86683440022170543670654296875">
        <ele>1189</ele>
        <time>2026-08-21T14:50:36.000Z</time>
        <extensions>
          <ns3:TrackPointExtension>
            <ns3:hr>122</ns3:hr>
            <ns3:cad>0</ns3:cad>
          </ns3:TrackPointExtension>
        </extensions>
      </trkpt>
      <trkpt lat="45.3016155771911144256591796875" lon="-70.86683440022170543670654296875">
        <ele>1189</ele>
        <time>2026-08-21T14:50:37.000Z</time>
        <extensions>
          <ns3:TrackPointExtension>
            <ns3:hr>122</ns3:hr>
            <ns3:cad>0</ns3:cad>
          </ns3:TrackPointExtension>
        </extensions>
      </trkpt>
      <trkpt lat="45.3016155771911144256591796875" lon="-70.86683440022170543670654296875">
        <ele>1188.800048828125</ele>
        <time>2026-08-21T14:50:38.000Z</time>
        <extensions>
          <ns3:TrackPointExtension>
            <ns3:hr>121</ns3:hr>
            <ns3:cad>0</ns3:cad>
          </ns3:TrackPointExtension>
        </extensions>
      </trkpt>
      <trkpt lat="45.3016155771911144256591796875" lon="-70.86683440022170543670654296875">
        <ele>1188.800048828125</ele>
        <time>2026-08-21T14:50:39.000Z</time>
        <extensions>
          <ns3:TrackPointExtension>
            <ns3:hr>120</ns3:hr>
            <ns3:cad>0</ns3:cad>
          </ns3:TrackPointExtension>
        </extensions>
      </trkpt>
      <trkpt lat="45.3016155771911144256591796875" lon="-70.86683440022170543670654296875">
        <ele>1188.800048828125</ele>
        <time>2026-08-21T14:50:40.000Z</time>
        <extensions>
          <ns3:TrackPointExtension>
            <ns3:hr>120</ns3:hr>
            <ns3:cad>0</ns3:cad>
          </ns3:TrackPointExtension>
        </extensions>
      </trkpt>
      <trkpt lat="45.3016155771911144256591796875" lon="-70.86683440022170543670654296875">
        <ele>1188.800048828125</ele>
        <time>2026-08-21T14:50:41.000Z</time>
        <extensions>
          <ns3:TrackPointExtension>
            <ns3:hr>119</ns3:hr>
            <ns3:cad>0</ns3:cad>
          </ns3:TrackPointExtension>
        </extensions>
      </trkpt>
      <trkpt lat="45.3016165830194950103759765625" lon="-70.8668359927833080291748046875">
        <ele>1188.800048828125</ele>
        <time>2026-08-21T14:50:42.000Z</time>
        <extensions>
          <ns3:TrackPointExtension>
            <ns3:hr>119</ns3:hr>
            <ns3:cad>0</ns3:cad>
          </ns3:TrackPointExtension>
        </extensions>
      </trkpt>
      <trkpt lat="45.30161482281982898712158203125" lon="-70.866832472383975982666015625">
        <ele>1188.5999755859375</ele>
        <time>2026-08-21T14:50:43.000Z</time>
        <extensions>
          <ns3:TrackPointExtension>
            <ns3:hr>119</ns3:hr>
            <ns3:cad>53</ns3:cad>
          </ns3:TrackPointExtension>
        </extensions>
      </trkpt>
      <trkpt lat="45.30160878784954547882080078125" lon="-70.86683389730751514434814453125">
        <ele>1188.5999755859375</ele>
        <time>2026-08-21T14:50:44.000Z</time>
        <extensions>
          <ns3:TrackPointExtension>
            <ns3:hr>119</ns3:hr>
            <ns3:cad>53</ns3:cad>
          </ns3:TrackPointExtension>
        </extensions>
      </trkpt>
      <trkpt lat="45.3016082011163234710693359375" lon="-70.86684311740100383758544921875">
        <ele>1188.4000244140625</ele>
        <time>2026-08-21T14:50:45.000Z</time>
        <extensions>
          <ns3:TrackPointExtension>
            <ns3:hr>119</ns3:hr>
            <ns3:cad>0</ns3:cad>
          </ns3:TrackPointExtension>
        </extensions>
      </trkpt>
      <trkpt lat="45.30161230824887752532958984375" lon="-70.86685024201869964599609375">
        <ele>1188.4000244140625</ele>
        <time>2026-08-21T14:50:46.000Z</time>
        <extensions>
          <ns3:TrackPointExtension>
            <ns3:hr>118</ns3:hr>
            <ns3:cad>0</ns3:cad>
          </ns3:TrackPointExtension>
        </extensions>
      </trkpt>
      <trkpt lat="45.30161633156239986419677734375" lon="-70.8668457157909870147705078125">
        <ele>1188.199951171875</ele>
        <time>2026-08-21T14:50:47.000Z</time>
        <extensions>
          <ns3:TrackPointExtension>
            <ns3:hr>118</ns3:hr>
            <ns3:cad>0</ns3:cad>
          </ns3:TrackPointExtension>
        </extensions>
      </trkpt>
      <trkpt lat="45.3016209416091442108154296875" lon="-70.8668467216193675994873046875">
        <ele>1188.4000244140625</ele>
        <time>2026-08-21T14:50:48.000Z</time>
        <extensions>
          <ns3:TrackPointExtension>
            <ns3:hr>118</ns3:hr>
            <ns3:cad>0</ns3:cad>
          </ns3:TrackPointExtension>
        </extensions>
      </trkpt>
      <trkpt lat="45.30162337236106395721435546875" lon="-70.86684730835258960723876953125">
        <ele>1188.4000244140625</ele>
        <time>2026-08-21T14:50:49.000Z</time>
        <extensions>
          <ns3:TrackPointExtension>
            <ns3:hr>117</ns3:hr>
            <ns3:cad>0</ns3:cad>
          </ns3:TrackPointExtension>
        </extensions>
      </trkpt>
      <trkpt lat="45.3016155771911144256591796875" lon="-70.86683440022170543670654296875">
        <ele>1188.5999755859375</ele>
        <time>2026-08-21T14:50:50.000Z</time>
        <extensions>
          <ns3:TrackPointExtension>
            <ns3:hr>118</ns3:hr>
            <ns3:cad>0</ns3:cad>
          </ns3:TrackPointExtension>
        </extensions>
      </trkpt>
      <trkpt lat="45.3016253001987934112548828125" lon="-70.86684797890484333038330078125">
        <ele>1188.800048828125</ele>
        <time>2026-08-21T14:50:51.000Z</time>
        <extensions>
          <ns3:TrackPointExtension>
            <ns3:hr>118</ns3:hr>
            <ns3:cad>0</ns3:cad>
          </ns3:TrackPointExtension>
        </extensions>
      </trkpt>
      <trkpt lat="45.30162538401782512664794921875" lon="-70.86684797890484333038330078125">
        <ele>1188.800048828125</ele>
        <time>2026-08-21T14:50:52.000Z</time>
        <extensions>
          <ns3:TrackPointExtension>
            <ns3:hr>119</ns3:hr>
            <ns3:cad>0</ns3:cad>
          </ns3:TrackPointExtension>
        </extensions>
      </trkpt>
      <trkpt lat="45.30162555165588855743408203125" lon="-70.86684797890484333038330078125">
        <ele>1189</ele>
        <time>2026-08-21T14:50:53.000Z</time>
        <extensions>
          <ns3:TrackPointExtension>
            <ns3:hr>118</ns3:hr>
            <ns3:cad>0</ns3:cad>
          </ns3:TrackPointExtension>
        </extensions>
      </trkpt>
      <trkpt lat="45.30162907205522060394287109375" lon="-70.86684395559132099151611328125">
        <ele>1189.199951171875</ele>
        <time>2026-08-21T14:50:54.000Z</time>
        <extensions>
          <ns3:TrackPointExtension>
            <ns3:hr>118</ns3:hr>
            <ns3:cad>0</ns3:cad>
          </ns3:TrackPointExtension>
        </extensions>
      </trkpt>
      <trkpt lat="45.301632843911647796630859375" lon="-70.86682920344173908233642578125">
        <ele>1189.4000244140625</ele>
        <time>2026-08-21T14:50:55.000Z</time>
        <extensions>
          <ns3:TrackPointExtension>
            <ns3:hr>118</ns3:hr>
            <ns3:cad>0</ns3:cad>
          </ns3:TrackPointExtension>
        </extensions>
      </trkpt>
      <trkpt lat="45.3016380406916141510009765625" lon="-70.8668329752981662750244140625">
        <ele>1189.4000244140625</ele>
        <time>2026-08-21T14:50:56.000Z</time>
        <extensions>
          <ns3:TrackPointExtension>
            <ns3:hr>118</ns3:hr>
            <ns3:cad>0</ns3:cad>
          </ns3:TrackPointExtension>
        </extensions>
      </trkpt>
      <trkpt lat="45.301636867225170135498046875" lon="-70.86683691479265689849853515625">
        <ele>1189.4000244140625</ele>
        <time>2026-08-21T14:50:57.000Z</time>
        <extensions>
          <ns3:TrackPointExtension>
            <ns3:hr>119</ns3:hr>
            <ns3:cad>0</ns3:cad>
          </ns3:TrackPointExtension>
        </extensions>
      </trkpt>
      <trkpt lat="45.30163678340613842010498046875" lon="-70.86683683097362518310546875">
        <ele>1189.4000244140625</ele>
        <time>2026-08-21T14:50:58.000Z</time>
        <extensions>
          <ns3:TrackPointExtension>
            <ns3:hr>119</ns3:hr>
            <ns3:cad>0</ns3:cad>
          </ns3:TrackPointExtension>
        </extensions>
      </trkpt>
      <trkpt lat="45.30163678340613842010498046875" lon="-70.86683683097362518310546875">
        <ele>1189.4000244140625</ele>
        <time>2026-08-21T14:50:59.000Z</time>
        <extensions>
          <ns3:TrackPointExtension>
            <ns3:hr>120</ns3:hr>
            <ns3:cad>0</ns3:cad>
          </ns3:TrackPointExtension>
        </extensions>
      </trkpt>
      <trkpt lat="45.30163678340613842010498046875" lon="-70.86683683097362518310546875">
        <ele>1189.4000244140625</ele>
        <time>2026-08-21T14:51:00.000Z</time>
        <extensions>
          <ns3:TrackPointExtension>
            <ns3:hr>121</ns3:hr>
            <ns3:cad>0</ns3:cad>
          </ns3:TrackPointExtension>
        </extensions>
      </trkpt>
      <trkpt lat="45.3016366995871067047119140625" lon="-70.86683758534491062164306640625">
        <ele>1189.199951171875</ele>
        <time>2026-08-21T14:51:01.000Z</time>
        <extensions>
          <ns3:TrackPointExtension>
            <ns3:hr>122</ns3:hr>
            <ns3:cad>0</ns3:cad>
          </ns3:TrackPointExtension>
        </extensions>
      </trkpt>
      <trkpt lat="45.3016316704452037811279296875" lon="-70.86683842353522777557373046875">
        <ele>1189.199951171875</ele>
        <time>2026-08-21T14:51:02.000Z</time>
        <extensions>
          <ns3:TrackPointExtension>
            <ns3:hr>122</ns3:hr>
            <ns3:cad>0</ns3:cad>
          </ns3:TrackPointExtension>
        </extensions>
      </trkpt>
      <trkpt lat="45.301627479493618011474609375" lon="-70.8668406866490840911865234375">
        <ele>1189.199951171875</ele>
        <time>2026-08-21T14:51:03.000Z</time>
        <extensions>
          <ns3:TrackPointExtension>
            <ns3:hr>122</ns3:hr>
            <ns3:cad>0</ns3:cad>
          </ns3:TrackPointExtension>
        </extensions>
      </trkpt>
      <trkpt lat="45.30162052251398563385009765625" lon="-70.866844542324542999267578125">
        <ele>1189.199951171875</ele>
        <time>2026-08-21T14:51:04.000Z</time>
        <extensions>
          <ns3:TrackPointExtension>
            <ns3:hr>122</ns3:hr>
            <ns3:cad>0</ns3:cad>
          </ns3:TrackPointExtension>
        </extensions>
      </trkpt>
      <trkpt lat="45.30161239206790924072265625" lon="-70.86684110574424266815185546875">
        <ele>1189</ele>
        <time>2026-08-21T14:51:05.000Z</time>
        <extensions>
          <ns3:TrackPointExtension>
            <ns3:hr>122</ns3:hr>
            <ns3:cad>0</ns3:cad>
          </ns3:TrackPointExtension>
        </extensions>
      </trkpt>
      <trkpt lat="45.3016065247356891632080078125" lon="-70.86683741770684719085693359375">
        <ele>1188.5999755859375</ele>
        <time>2026-08-21T14:51:06.000Z</time>
        <extensions>
          <ns3:TrackPointExtension>
            <ns3:hr>122</ns3:hr>
            <ns3:cad>0</ns3:cad>
          </ns3:TrackPointExtension>
        </extensions>
      </trkpt>
      <trkpt lat="45.30159789137542247772216796875" lon="-70.86683775298297405242919921875">
        <ele>1188.199951171875</ele>
        <time>2026-08-21T14:51:07.000Z</time>
        <extensions>
          <ns3:TrackPointExtension>
            <ns3:hr>123</ns3:hr>
            <ns3:cad>0</ns3:cad>
          </ns3:TrackPointExtension>
        </extensions>
      </trkpt>
      <trkpt lat="45.30159361660480499267578125" lon="-70.86683205328881740570068359375">
        <ele>1187.5999755859375</ele>
        <time>2026-08-21T14:51:08.000Z</time>
        <extensions>
          <ns3:TrackPointExtension>
            <ns3:hr>123</ns3:hr>
            <ns3:cad>0</ns3:cad>
          </ns3:TrackPointExtension>
        </extensions>
      </trkpt>
      <trkpt lat="45.30159235931932926177978515625" lon="-70.86683087982237339019775390625">
        <ele>1187</ele>
        <time>2026-08-21T14:51:09.000Z</time>
        <extensions>
          <ns3:TrackPointExtension>
            <ns3:hr>123</ns3:hr>
            <ns3:cad>0</ns3:cad>
          </ns3:TrackPointExtension>
        </extensions>
      </trkpt>
      <trkpt lat="45.30159252695739269256591796875" lon="-70.8668212406337261199951171875">
        <ele>1186.5999755859375</ele>
        <time>2026-08-21T14:51:10.000Z</time>
        <extensions>
          <ns3:TrackPointExtension>
            <ns3:hr>123</ns3:hr>
            <ns3:cad>0</ns3:cad>
          </ns3:TrackPointExtension>
        </extensions>
      </trkpt>
      <trkpt lat="45.30159093439579010009765625" lon="-70.8668098412454128265380859375">
        <ele>1186</ele>
        <time>2026-08-21T14:51:11.000Z</time>
        <extensions>
          <ns3:TrackPointExtension>
            <ns3:hr>123</ns3:hr>
            <ns3:cad>0</ns3:cad>
          </ns3:TrackPointExtension>
        </extensions>
      </trkpt>
      <trkpt lat="45.3015937842428684234619140625" lon="-70.8668053150177001953125">
        <ele>1185.5999755859375</ele>
        <time>2026-08-21T14:51:12.000Z</time>
        <extensions>
          <ns3:TrackPointExtension>
            <ns3:hr>123</ns3:hr>
            <ns3:cad>0</ns3:cad>
          </ns3:TrackPointExtension>
        </extensions>
      </trkpt>
      <trkpt lat="45.30159453861415386199951171875" lon="-70.866795592010021209716796875">
        <ele>1185</ele>
        <time>2026-08-21T14:51:13.000Z</time>
        <extensions>
          <ns3:TrackPointExtension>
            <ns3:hr>126</ns3:hr>
            <ns3:cad>0</ns3:cad>
          </ns3:TrackPointExtension>
        </extensions>
      </trkpt>
      <trkpt lat="45.30159638263285160064697265625" lon="-70.86678125895559787750244140625">
        <ele>1184.5999755859375</ele>
        <time>2026-08-21T14:51:14.000Z</time>
        <extensions>
          <ns3:TrackPointExtension>
            <ns3:hr>128</ns3:hr>
            <ns3:cad>0</ns3:cad>
          </ns3:TrackPointExtension>
        </extensions>
      </trkpt>
      <trkpt lat="45.301597304642200469970703125" lon="-70.8667610585689544677734375">
        <ele>1184</ele>
        <time>2026-08-21T14:51:15.000Z</time>
        <extensions>
          <ns3:TrackPointExtension>
            <ns3:hr>128</ns3:hr>
            <ns3:cad>0</ns3:cad>
          </ns3:TrackPointExtension>
        </extensions>
      </trkpt>
      <trkpt lat="45.301588587462902069091796875" lon="-70.86674538441002368927001953125">
        <ele>1183.800048828125</ele>
        <time>2026-08-21T14:51:16.000Z</time>
        <extensions>
          <ns3:TrackPointExtension>
            <ns3:hr>128</ns3:hr>
            <ns3:cad>0</ns3:cad>
          </ns3:TrackPointExtension>
        </extensions>
      </trkpt>
      <trkpt lat="45.30157375149428844451904296875" lon="-70.86673834361135959625244140625">
        <ele>1183.5999755859375</ele>
        <time>2026-08-21T14:51:17.000Z</time>
        <extensions>
          <ns3:TrackPointExtension>
            <ns3:hr>128</ns3:hr>
            <ns3:cad>0</ns3:cad>
          </ns3:TrackPointExtension>
        </extensions>
      </trkpt>
      <trkpt lat="45.3015619330108165740966796875" lon="-70.8667354099452495574951171875">
        <ele>1183.5999755859375</ele>
        <time>2026-08-21T14:51:18.000Z</time>
        <extensions>
          <ns3:TrackPointExtension>
            <ns3:hr>127</ns3:hr>
            <ns3:cad>0</ns3:cad>
          </ns3:TrackPointExtension>
        </extensions>
      </trkpt>
      <trkpt lat="45.30154910869896411895751953125" lon="-70.86673297919332981109619140625">
        <ele>1183.5999755859375</ele>
        <time>2026-08-21T14:51:19.000Z</time>
        <extensions>
          <ns3:TrackPointExtension>
            <ns3:hr>126</ns3:hr>
            <ns3:cad>0</ns3:cad>
          </ns3:TrackPointExtension>
        </extensions>
      </trkpt>
      <trkpt lat="45.301535613834857940673828125" lon="-70.86672945879399776458740234375">
        <ele>1183.4000244140625</ele>
        <time>2026-08-21T14:51:20.000Z</time>
        <extensions>
          <ns3:TrackPointExtension>
            <ns3:hr>125</ns3:hr>
            <ns3:cad>0</ns3:cad>
          </ns3:TrackPointExtension>
        </extensions>
      </trkpt>
      <trkpt lat="45.30152496881783008575439453125" lon="-70.86672417819499969482421875">
        <ele>1183.199951171875</ele>
        <time>2026-08-21T14:51:21.000Z</time>
        <extensions>
          <ns3:TrackPointExtension>
            <ns3:hr>123</ns3:hr>
            <ns3:cad>0</ns3:cad>
          </ns3:TrackPointExtension>
        </extensions>
      </trkpt>
      <trkpt lat="45.3015116415917873382568359375" lon="-70.86671655066311359405517578125">
        <ele>1183</ele>
        <time>2026-08-21T14:51:22.000Z</time>
        <extensions>
          <ns3:TrackPointExtension>
            <ns3:hr>122</ns3:hr>
            <ns3:cad>53</ns3:cad>
          </ns3:TrackPointExtension>
        </extensions>
      </trkpt>
      <trkpt lat="45.301496051251888275146484375" lon="-70.866723842918872833251953125">
        <ele>1182.800048828125</ele>
        <time>2026-08-21T14:51:23.000Z</time>
        <extensions>
          <ns3:TrackPointExtension>
            <ns3:hr>122</ns3:hr>
            <ns3:cad>53</ns3:cad>
          </ns3:TrackPointExtension>
        </extensions>
      </trkpt>
      <trkpt lat="45.301485322415828704833984375" lon="-70.86672560311853885650634765625">
        <ele>1182.4000244140625</ele>
        <time>2026-08-21T14:51:24.000Z</time>
        <extensions>
          <ns3:TrackPointExtension>
            <ns3:hr>121</ns3:hr>
            <ns3:cad>53</ns3:cad>
          </ns3:TrackPointExtension>
        </extensions>
      </trkpt>
      <trkpt lat="45.3014747612178325653076171875" lon="-70.8667354099452495574951171875">
        <ele>1182.199951171875</ele>
        <time>2026-08-21T14:51:25.000Z</time>
        <extensions>
          <ns3:TrackPointExtension>
            <ns3:hr>121</ns3:hr>
            <ns3:cad>55</ns3:cad>
          </ns3:TrackPointExtension>
        </extensions>
      </trkpt>
      <trkpt lat="45.30146813951432704925537109375" lon="-70.86675862781703472137451171875">
        <ele>1182</ele>
        <time>2026-08-21T14:51:26.000Z</time>
        <extensions>
          <ns3:TrackPointExtension>
            <ns3:hr>121</ns3:hr>
            <ns3:cad>55</ns3:cad>
          </ns3:TrackPointExtension>
        </extensions>
      </trkpt>
      <trkpt lat="45.30146344564855098724365234375" lon="-70.86677916347980499267578125">
        <ele>1181.800048828125</ele>
        <time>2026-08-21T14:51:27.000Z</time>
        <extensions>
          <ns3:TrackPointExtension>
            <ns3:hr>121</ns3:hr>
            <ns3:cad>0</ns3:cad>
          </ns3:TrackPointExtension>
        </extensions>
      </trkpt>
      <trkpt lat="45.3014593385159969329833984375" lon="-70.866792239248752593994140625">
        <ele>1181.5999755859375</ele>
        <time>2026-08-21T14:51:28.000Z</time>
        <extensions>
          <ns3:TrackPointExtension>
            <ns3:hr>121</ns3:hr>
            <ns3:cad>0</ns3:cad>
          </ns3:TrackPointExtension>
        </extensions>
      </trkpt>
      <trkpt lat="45.30145204626023769378662109375" lon="-70.86681562475860118865966796875">
        <ele>1181.5999755859375</ele>
        <time>2026-08-21T14:51:29.000Z</time>
        <extensions>
          <ns3:TrackPointExtension>
            <ns3:hr>121</ns3:hr>
            <ns3:cad>0</ns3:cad>
          </ns3:TrackPointExtension>
        </extensions>
      </trkpt>
      <trkpt lat="45.30144131742417812347412109375" lon="-70.86682920344173908233642578125">
        <ele>1181.4000244140625</ele>
        <time>2026-08-21T14:51:30.000Z</time>
        <extensions>
          <ns3:TrackPointExtension>
            <ns3:hr>121</ns3:hr>
            <ns3:cad>0</ns3:cad>
          </ns3:TrackPointExtension>
        </extensions>
      </trkpt>
      <trkpt lat="45.3014335222542285919189453125" lon="-70.86684378795325756072998046875">
        <ele>1181.199951171875</ele>
        <time>2026-08-21T14:51:31.000Z</time>
        <extensions>
          <ns3:TrackPointExtension>
            <ns3:hr>120</ns3:hr>
            <ns3:cad>0</ns3:cad>
          </ns3:TrackPointExtension>
        </extensions>
      </trkpt>
      <trkpt lat="45.30142522417008876800537109375" lon="-70.866845212876796722412109375">
        <ele>1181</ele>
        <time>2026-08-21T14:51:32.000Z</time>
        <extensions>
          <ns3:TrackPointExtension>
            <ns3:hr>120</ns3:hr>
            <ns3:cad>0</ns3:cad>
          </ns3:TrackPointExtension>
        </extensions>
      </trkpt>
      <trkpt lat="45.30141533352434635162353515625" lon="-70.8668494038283824920654296875">
        <ele>1181</ele>
        <time>2026-08-21T14:51:33.000Z</time>
        <extensions>
          <ns3:TrackPointExtension>
            <ns3:hr>120</ns3:hr>
            <ns3:cad>0</ns3:cad>
          </ns3:TrackPointExtension>
        </extensions>
      </trkpt>
      <trkpt lat="45.30140242539346218109130859375" lon="-70.8668644912540912628173828125">
        <ele>1180.800048828125</ele>
        <time>2026-08-21T14:51:34.000Z</time>
        <extensions>
          <ns3:TrackPointExtension>
            <ns3:hr>120</ns3:hr>
            <ns3:cad>0</ns3:cad>
          </ns3:TrackPointExtension>
        </extensions>
      </trkpt>
      <trkpt lat="45.301391780376434326171875" lon="-70.86687882430851459503173828125">
        <ele>1180.5999755859375</ele>
        <time>2026-08-21T14:51:35.000Z</time>
        <extensions>
          <ns3:TrackPointExtension>
            <ns3:hr>120</ns3:hr>
            <ns3:cad>0</ns3:cad>
          </ns3:TrackPointExtension>
        </extensions>
      </trkpt>
      <trkpt lat="45.3013815544545650482177734375" lon="-70.86688737384974956512451171875">
        <ele>1180.4000244140625</ele>
        <time>2026-08-21T14:51:36.000Z</time>
        <extensions>
          <ns3:TrackPointExtension>
            <ns3:hr>120</ns3:hr>
            <ns3:cad>0</ns3:cad>
          </ns3:TrackPointExtension>
        </extensions>
      </trkpt>
      <trkpt lat="45.3013708256185054779052734375" lon="-70.866900868713855743408203125">
        <ele>1180.199951171875</ele>
        <time>2026-08-21T14:51:37.000Z</time>
        <extensions>
          <ns3:TrackPointExtension>
            <ns3:hr>119</ns3:hr>
            <ns3:cad>55</ns3:cad>
          </ns3:TrackPointExtension>
        </extensions>
      </trkpt>
      <trkpt lat="45.3013621084392070770263671875" lon="-70.86691419593989849090576171875">
        <ele>1180</ele>
        <time>2026-08-21T14:51:38.000Z</time>
        <extensions>
          <ns3:TrackPointExtension>
            <ns3:hr>119</ns3:hr>
            <ns3:cad>55</ns3:cad>
          </ns3:TrackPointExtension>
        </extensions>
      </trkpt>
      <trkpt lat="45.30135448090732097625732421875" lon="-70.8669273555278778076171875">
        <ele>1179.800048828125</ele>
        <time>2026-08-21T14:51:39.000Z</time>
        <extensions>
          <ns3:TrackPointExtension>
            <ns3:hr>119</ns3:hr>
            <ns3:cad>55</ns3:cad>
          </ns3:TrackPointExtension>
        </extensions>
      </trkpt>
      <trkpt lat="45.3013466857373714447021484375" lon="-70.8669382520020008087158203125">
        <ele>1179.5999755859375</ele>
        <time>2026-08-21T14:51:40.000Z</time>
        <extensions>
          <ns3:TrackPointExtension>
            <ns3:hr>119</ns3:hr>
            <ns3:cad>55</ns3:cad>
          </ns3:TrackPointExtension>
        </extensions>
      </trkpt>
      <trkpt lat="45.301338136196136474609375" lon="-70.866950489580631256103515625">
        <ele>1179.4000244140625</ele>
        <time>2026-08-21T14:51:41.000Z</time>
        <extensions>
          <ns3:TrackPointExtension>
            <ns3:hr>120</ns3:hr>
            <ns3:cad>56</ns3:cad>
          </ns3:TrackPointExtension>
        </extensions>
      </trkpt>
      <trkpt lat="45.301330089569091796875" lon="-70.86696264334022998809814453125">
        <ele>1179.199951171875</ele>
        <time>2026-08-21T14:51:42.000Z</time>
        <extensions>
          <ns3:TrackPointExtension>
            <ns3:hr>120</ns3:hr>
            <ns3:cad>57</ns3:cad>
          </ns3:TrackPointExtension>
        </extensions>
      </trkpt>
      <trkpt lat="45.30132380314171314239501953125" lon="-70.86697303690016269683837890625">
        <ele>1179.199951171875</ele>
        <time>2026-08-21T14:51:43.000Z</time>
        <extensions>
          <ns3:TrackPointExtension>
            <ns3:hr>120</ns3:hr>
            <ns3:cad>57</ns3:cad>
          </ns3:TrackPointExtension>
        </extensions>
      </trkpt>
      <trkpt lat="45.30131625942885875701904296875" lon="-70.86698141880333423614501953125">
        <ele>1179</ele>
        <time>2026-08-21T14:51:44.000Z</time>
        <extensions>
          <ns3:TrackPointExtension>
            <ns3:hr>119</ns3:hr>
            <ns3:cad>57</ns3:cad>
          </ns3:TrackPointExtension>
        </extensions>
      </trkpt>
      <trkpt lat="45.301308296620845794677734375" lon="-70.86699164472520351409912109375">
        <ele>1178.5999755859375</ele>
        <time>2026-08-21T14:51:45.000Z</time>
        <extensions>
          <ns3:TrackPointExtension>
            <ns3:hr>119</ns3:hr>
            <ns3:cad>57</ns3:cad>
          </ns3:TrackPointExtension>
        </extensions>
      </trkpt>
      <trkpt lat="45.3012994118034839630126953125" lon="-70.86700052954256534576416015625">
        <ele>1178.4000244140625</ele>
        <time>2026-08-21T14:51:46.000Z</time>
        <extensions>
          <ns3:TrackPointExtension>
            <ns3:hr>119</ns3:hr>
            <ns3:cad>55</ns3:cad>
          </ns3:TrackPointExtension>
        </extensions>
      </trkpt>
      <trkpt lat="45.30128876678645610809326171875" lon="-70.8670140244066715240478515625">
        <ele>1178.199951171875</ele>
        <time>2026-08-21T14:51:47.000Z</time>
        <extensions>
          <ns3:TrackPointExtension>
            <ns3:hr>119</ns3:hr>
            <ns3:cad>55</ns3:cad>
          </ns3:TrackPointExtension>
        </extensions>
      </trkpt>
      <trkpt lat="45.3012762777507305145263671875" lon="-70.867022909224033355712890625">
        <ele>1177.800048828125</ele>
        <time>2026-08-21T14:51:48.000Z</time>
        <extensions>
          <ns3:TrackPointExtension>
            <ns3:hr>119</ns3:hr>
            <ns3:cad>55</ns3:cad>
          </ns3:TrackPointExtension>
        </extensions>
      </trkpt>
      <trkpt lat="45.30126546509563922882080078125" lon="-70.86703003384172916412353515625">
        <ele>1177.5999755859375</ele>
        <time>2026-08-21T14:51:49.000Z</time>
        <extensions>
          <ns3:TrackPointExtension>
            <ns3:hr>119</ns3:hr>
            <ns3:cad>55</ns3:cad>
          </ns3:TrackPointExtension>
        </extensions>
      </trkpt>
      <trkpt lat="45.30125423334538936614990234375" lon="-70.86703724227845668792724609375">
        <ele>1177.199951171875</ele>
        <time>2026-08-21T14:51:50.000Z</time>
        <extensions>
          <ns3:TrackPointExtension>
            <ns3:hr>118</ns3:hr>
            <ns3:cad>55</ns3:cad>
          </ns3:TrackPointExtension>
        </extensions>
      </trkpt>
      <trkpt lat="45.30124367214739322662353515625" lon="-70.86704445071518421173095703125">
        <ele>1177</ele>
        <time>2026-08-21T14:51:51.000Z</time>
        <extensions>
          <ns3:TrackPointExtension>
            <ns3:hr>118</ns3:hr>
            <ns3:cad>61</ns3:cad>
          </ns3:TrackPointExtension>
        </extensions>
      </trkpt>
      <trkpt lat="45.30123327858746051788330078125" lon="-70.86705274879932403564453125">
        <ele>1176.5999755859375</ele>
        <time>2026-08-21T14:51:52.000Z</time>
        <extensions>
          <ns3:TrackPointExtension>
            <ns3:hr>118</ns3:hr>
            <ns3:cad>61</ns3:cad>
          </ns3:TrackPointExtension>
        </extensions>
      </trkpt>
      <trkpt lat="45.30122288502752780914306640625" lon="-70.8670592866837978363037109375">
        <ele>1176.4000244140625</ele>
        <time>2026-08-21T14:51:53.000Z</time>
        <extensions>
          <ns3:TrackPointExtension>
            <ns3:hr>117</ns3:hr>
            <ns3:cad>61</ns3:cad>
          </ns3:TrackPointExtension>
        </extensions>
      </trkpt>
      <trkpt lat="45.30121265910565853118896484375" lon="-70.8670686744153499603271484375">
        <ele>1176</ele>
        <time>2026-08-21T14:51:54.000Z</time>
        <extensions>
          <ns3:TrackPointExtension>
            <ns3:hr>117</ns3:hr>
            <ns3:cad>63</ns3:cad>
          </ns3:TrackPointExtension>
        </extensions>
      </trkpt>
      <trkpt lat="45.30120159499347209930419921875" lon="-70.86708015762269496917724609375">
        <ele>1175.800048828125</ele>
        <time>2026-08-21T14:51:55.000Z</time>
        <extensions>
          <ns3:TrackPointExtension>
            <ns3:hr>117</ns3:hr>
            <ns3:cad>63</ns3:cad>
          </ns3:TrackPointExtension>
        </extensions>
      </trkpt>
      <trkpt lat="45.30119505710899829864501953125" lon="-70.86709658615291118621826171875">
        <ele>1175.4000244140625</ele>
        <time>2026-08-21T14:51:56.000Z</time>
        <extensions>
          <ns3:TrackPointExtension>
            <ns3:hr>117</ns3:hr>
            <ns3:cad>63</ns3:cad>
          </ns3:TrackPointExtension>
        </extensions>
      </trkpt>
      <trkpt lat="45.30119321309030055999755859375" lon="-70.867116786539554595947265625">
        <ele>1175.199951171875</ele>
        <time>2026-08-21T14:51:57.000Z</time>
        <extensions>
          <ns3:TrackPointExtension>
            <ns3:hr>116</ns3:hr>
            <ns3:cad>63</ns3:cad>
          </ns3:TrackPointExtension>
        </extensions>
      </trkpt>
      <trkpt lat="45.30119371600449085235595703125" lon="-70.867138914763927459716796875">
        <ele>1175</ele>
        <time>2026-08-21T14:51:58.000Z</time>
        <extensions>
          <ns3:TrackPointExtension>
            <ns3:hr>117</ns3:hr>
            <ns3:cad>0</ns3:cad>
          </ns3:TrackPointExtension>
        </extensions>
      </trkpt>
      <trkpt lat="45.30119673348963260650634765625" lon="-70.86715643294155597686767578125">
        <ele>1174.800048828125</ele>
        <time>2026-08-21T14:51:59.000Z</time>
        <extensions>
          <ns3:TrackPointExtension>
            <ns3:hr>117</ns3:hr>
            <ns3:cad>58</ns3:cad>
          </ns3:TrackPointExtension>
        </extensions>
      </trkpt>
      <trkpt lat="45.30119773931801319122314453125" lon="-70.86717101745307445526123046875">
        <ele>1174.800048828125</ele>
        <time>2026-08-21T14:52:00.000Z</time>
        <extensions>
          <ns3:TrackPointExtension>
            <ns3:hr>117</ns3:hr>
            <ns3:cad>58</ns3:cad>
          </ns3:TrackPointExtension>
        </extensions>
      </trkpt>
      <trkpt lat="45.301194973289966583251953125" lon="-70.8671880327165126800537109375">
        <ele>1174.5999755859375</ele>
        <time>2026-08-21T14:52:01.000Z</time>
        <extensions>
          <ns3:TrackPointExtension>
            <ns3:hr>116</ns3:hr>
            <ns3:cad>56</ns3:cad>
          </ns3:TrackPointExtension>
        </extensions>
      </trkpt>
      <trkpt lat="45.30119287781417369842529296875" lon="-70.8672058023512363433837890625">
        <ele>1174.4000244140625</ele>
        <time>2026-08-21T14:52:02.000Z</time>
        <extensions>
          <ns3:TrackPointExtension>
            <ns3:hr>117</ns3:hr>
            <ns3:cad>56</ns3:cad>
          </ns3:TrackPointExtension>
        </extensions>
      </trkpt>
      <trkpt lat="45.3011919558048248291015625" lon="-70.86722365580499172210693359375">
        <ele>1174</ele>
        <time>2026-08-21T14:52:03.000Z</time>
        <extensions>
          <ns3:TrackPointExtension>
            <ns3:hr>117</ns3:hr>
            <ns3:cad>58</ns3:cad>
          </ns3:TrackPointExtension>
        </extensions>
      </trkpt>
      <trkpt lat="45.30119053088128566741943359375" lon="-70.86724318563938140869140625">
        <ele>1173.800048828125</ele>
        <time>2026-08-21T14:52:04.000Z</time>
        <extensions>
          <ns3:TrackPointExtension>
            <ns3:hr>117</ns3:hr>
            <ns3:cad>58</ns3:cad>
          </ns3:TrackPointExtension>
        </extensions>
      </trkpt>
      <trkpt lat="45.3011887706816196441650390625" lon="-70.86726338602602481842041015625">
        <ele>1173.5999755859375</ele>
        <time>2026-08-21T14:52:05.000Z</time>
        <extensions>
          <ns3:TrackPointExtension>
            <ns3:hr>116</ns3:hr>
            <ns3:cad>58</ns3:cad>
          </ns3:TrackPointExtension>
        </extensions>
      </trkpt>
      <trkpt lat="45.3011881001293659210205078125" lon="-70.86728333495557308197021484375">
        <ele>1173.4000244140625</ele>
        <time>2026-08-21T14:52:06.000Z</time>
        <extensions>
          <ns3:TrackPointExtension>
            <ns3:hr>117</ns3:hr>
            <ns3:cad>58</ns3:cad>
          </ns3:TrackPointExtension>
        </extensions>
      </trkpt>
      <trkpt lat="45.30118013732135295867919921875" lon="-70.86729926057159900665283203125">
        <ele>1173.199951171875</ele>
        <time>2026-08-21T14:52:07.000Z</time>
        <extensions>
          <ns3:TrackPointExtension>
            <ns3:hr>117</ns3:hr>
            <ns3:cad>58</ns3:cad>
          </ns3:TrackPointExtension>
        </extensions>
      </trkpt>
      <trkpt lat="45.3011758625507354736328125" lon="-70.8673082292079925537109375">
        <ele>1173</ele>
        <time>2026-08-21T14:52:08.000Z</time>
        <extensions>
          <ns3:TrackPointExtension>
            <ns3:hr>116</ns3:hr>
            <ns3:cad>58</ns3:cad>
          </ns3:TrackPointExtension>
        </extensions>
      </trkpt>
      <trkpt lat="45.30117192305624485015869140625" lon="-70.86731619201600551605224609375">
        <ele>1172.800048828125</ele>
        <time>2026-08-21T14:52:09.000Z</time>
        <extensions>
          <ns3:TrackPointExtension>
            <ns3:hr>116</ns3:hr>
            <ns3:cad>58</ns3:cad>
          </ns3:TrackPointExtension>
        </extensions>
      </trkpt>
      <trkpt lat="45.30116706155240535736083984375" lon="-70.86732842959463596343994140625">
        <ele>1172.5999755859375</ele>
        <time>2026-08-21T14:52:10.000Z</time>
        <extensions>
          <ns3:TrackPointExtension>
            <ns3:hr>116</ns3:hr>
            <ns3:cad>56</ns3:cad>
          </ns3:TrackPointExtension>
        </extensions>
      </trkpt>
      <trkpt lat="45.30116186477243900299072265625" lon="-70.867337398231029510498046875">
        <ele>1172.4000244140625</ele>
        <time>2026-08-21T14:52:11.000Z</time>
        <extensions>
          <ns3:TrackPointExtension>
            <ns3:hr>116</ns3:hr>
            <ns3:cad>56</ns3:cad>
          </ns3:TrackPointExtension>
        </extensions>
      </trkpt>
      <trkpt lat="45.3011575900018215179443359375" lon="-70.867344103753566741943359375">
        <ele>1172.199951171875</ele>
        <time>2026-08-21T14:52:12.000Z</time>
        <extensions>
          <ns3:TrackPointExtension>
            <ns3:hr>116</ns3:hr>
            <ns3:cad>56</ns3:cad>
          </ns3:TrackPointExtension>
        </extensions>
      </trkpt>
      <trkpt lat="45.3011532314121723175048828125" lon="-70.86735541932284832000732421875">
        <ele>1172</ele>
        <time>2026-08-21T14:52:13.000Z</time>
        <extensions>
          <ns3:TrackPointExtension>
            <ns3:hr>116</ns3:hr>
            <ns3:cad>57</ns3:cad>
          </ns3:TrackPointExtension>
        </extensions>
      </trkpt>
      <trkpt lat="45.30115105211734771728515625" lon="-70.867361538112163543701171875">
        <ele>1172</ele>
        <time>2026-08-21T14:52:14.000Z</time>
        <extensions>
          <ns3:TrackPointExtension>
            <ns3:hr>116</ns3:hr>
            <ns3:cad>57</ns3:cad>
          </ns3:TrackPointExtension>
        </extensions>
      </trkpt>
      <trkpt lat="45.30114845372736454010009765625" lon="-70.86736296303570270538330078125">
        <ele>1171.800048828125</ele>
        <time>2026-08-21T14:52:15.000Z</time>
        <extensions>
          <ns3:TrackPointExtension>
            <ns3:hr>116</ns3:hr>
            <ns3:cad>0</ns3:cad>
          </ns3:TrackPointExtension>
        </extensions>
      </trkpt>
      <trkpt lat="45.30114476568996906280517578125" lon="-70.8673672378063201904296875">
        <ele>1171.5999755859375</ele>
        <time>2026-08-21T14:52:16.000Z</time>
        <extensions>
          <ns3:TrackPointExtension>
            <ns3:hr>116</ns3:hr>
            <ns3:cad>0</ns3:cad>
          </ns3:TrackPointExtension>
        </extensions>
      </trkpt>
      <trkpt lat="45.301139988005161285400390625" lon="-70.86737084202468395233154296875">
        <ele>1171.5999755859375</ele>
        <time>2026-08-21T14:52:17.000Z</time>
        <extensions>
          <ns3:TrackPointExtension>
            <ns3:hr>116</ns3:hr>
            <ns3:cad>0</ns3:cad>
          </ns3:TrackPointExtension>
        </extensions>
      </trkpt>
      <trkpt lat="45.3011384792625904083251953125" lon="-70.8673726022243499755859375">
        <ele>1171.4000244140625</ele>
        <time>2026-08-21T14:52:18.000Z</time>
        <extensions>
          <ns3:TrackPointExtension>
            <ns3:hr>116</ns3:hr>
            <ns3:cad>0</ns3:cad>
          </ns3:TrackPointExtension>
        </extensions>
      </trkpt>
      <trkpt lat="45.301138646900653839111328125" lon="-70.8673757873475551605224609375">
        <ele>1171.4000244140625</ele>
        <time>2026-08-21T14:52:19.000Z</time>
        <extensions>
          <ns3:TrackPointExtension>
            <ns3:hr>117</ns3:hr>
            <ns3:cad>0</ns3:cad>
          </ns3:TrackPointExtension>
        </extensions>
      </trkpt>
      <trkpt lat="45.301138646900653839111328125" lon="-70.867375619709491729736328125">
        <ele>1171.4000244140625</ele>
        <time>2026-08-21T14:52:20.000Z</time>
        <extensions>
          <ns3:TrackPointExtension>
            <ns3:hr>116</ns3:hr>
            <ns3:cad>0</ns3:cad>
          </ns3:TrackPointExtension>
        </extensions>
      </trkpt>
      <trkpt lat="45.301138646900653839111328125" lon="-70.867375619709491729736328125">
        <ele>1171.199951171875</ele>
        <time>2026-08-21T14:52:21.000Z</time>
        <extensions>
          <ns3:TrackPointExtension>
            <ns3:hr>115</ns3:hr>
            <ns3:cad>0</ns3:cad>
          </ns3:TrackPointExtension>
        </extensions>
      </trkpt>
      <trkpt lat="45.301138646900653839111328125" lon="-70.867375619709491729736328125">
        <ele>1171.199951171875</ele>
        <time>2026-08-21T14:52:22.000Z</time>
        <extensions>
          <ns3:TrackPointExtension>
            <ns3:hr>115</ns3:hr>
            <ns3:cad>0</ns3:cad>
          </ns3:TrackPointExtension>
        </extensions>
      </trkpt>
      <trkpt lat="45.301138646900653839111328125" lon="-70.867375619709491729736328125">
        <ele>1171.199951171875</ele>
        <time>2026-08-21T14:52:23.000Z</time>
        <extensions>
          <ns3:TrackPointExtension>
            <ns3:hr>116</ns3:hr>
            <ns3:cad>0</ns3:cad>
          </ns3:TrackPointExtension>
        </extensions>
      </trkpt>
      <trkpt lat="45.301138646900653839111328125" lon="-70.867375619709491729736328125">
        <ele>1171.199951171875</ele>
        <time>2026-08-21T14:52:24.000Z</time>
        <extensions>
          <ns3:TrackPointExtension>
            <ns3:hr>117</ns3:hr>
            <ns3:cad>0</ns3:cad>
          </ns3:TrackPointExtension>
        </extensions>
      </trkpt>
      <trkpt lat="45.301138646900653839111328125" lon="-70.867375619709491729736328125">
        <ele>1171.199951171875</ele>
        <time>2026-08-21T14:52:25.000Z</time>
        <extensions>
          <ns3:TrackPointExtension>
            <ns3:hr>118</ns3:hr>
            <ns3:cad>0</ns3:cad>
          </ns3:TrackPointExtension>
        </extensions>
      </trkpt>
      <trkpt lat="45.301138646900653839111328125" lon="-70.867375619709491729736328125">
        <ele>1171.199951171875</ele>
        <time>2026-08-21T14:52:26.000Z</time>
        <extensions>
          <ns3:TrackPointExtension>
            <ns3:hr>119</ns3:hr>
            <ns3:cad>0</ns3:cad>
          </ns3:TrackPointExtension>
        </extensions>
      </trkpt>
      <trkpt lat="45.301138646900653839111328125" lon="-70.867375619709491729736328125">
        <ele>1171.199951171875</ele>
        <time>2026-08-21T14:52:27.000Z</time>
        <extensions>
          <ns3:TrackPointExtension>
            <ns3:hr>120</ns3:hr>
            <ns3:cad>0</ns3:cad>
          </ns3:TrackPointExtension>
        </extensions>
      </trkpt>
      <trkpt lat="45.301138646900653839111328125" lon="-70.867375619709491729736328125">
        <ele>1171.199951171875</ele>
        <time>2026-08-21T14:52:28.000Z</time>
        <extensions>
          <ns3:TrackPointExtension>
            <ns3:hr>120</ns3:hr>
            <ns3:cad>0</ns3:cad>
          </ns3:TrackPointExtension>
        </extensions>
      </trkpt>
      <trkpt lat="45.301138646900653839111328125" lon="-70.867375619709491729736328125">
        <ele>1171.199951171875</ele>
        <time>2026-08-21T14:52:29.000Z</time>
        <extensions>
          <ns3:TrackPointExtension>
            <ns3:hr>120</ns3:hr>
            <ns3:cad>0</ns3:cad>
          </ns3:TrackPointExtension>
        </extensions>
      </trkpt>
      <trkpt lat="45.301138646900653839111328125" lon="-70.867375619709491729736328125">
        <ele>1171.199951171875</ele>
        <time>2026-08-21T14:52:30.000Z</time>
        <extensions>
          <ns3:TrackPointExtension>
            <ns3:hr>120</ns3:hr>
            <ns3:cad>0</ns3:cad>
          </ns3:TrackPointExtension>
        </extensions>
      </trkpt>
      <trkpt lat="45.301138646900653839111328125" lon="-70.867375619709491729736328125">
        <ele>1171.199951171875</ele>
        <time>2026-08-21T14:52:31.000Z</time>
        <extensions>
          <ns3:TrackPointExtension>
            <ns3:hr>120</ns3:hr>
            <ns3:cad>0</ns3:cad>
          </ns3:TrackPointExtension>
        </extensions>
      </trkpt>
      <trkpt lat="45.301138646900653839111328125" lon="-70.867375619709491729736328125">
        <ele>1171.199951171875</ele>
        <time>2026-08-21T14:52:32.000Z</time>
        <extensions>
          <ns3:TrackPointExtension>
            <ns3:hr>119</ns3:hr>
            <ns3:cad>0</ns3:cad>
          </ns3:TrackPointExtension>
        </extensions>
      </trkpt>
      <trkpt lat="45.301138646900653839111328125" lon="-70.867375619709491729736328125">
        <ele>1171.199951171875</ele>
        <time>2026-08-21T14:52:33.000Z</time>
        <extensions>
          <ns3:TrackPointExtension>
            <ns3:hr>119</ns3:hr>
            <ns3:cad>0</ns3:cad>
          </ns3:TrackPointExtension>
        </extensions>
      </trkpt>
      <trkpt lat="45.301138646900653839111328125" lon="-70.867375619709491729736328125">
        <ele>1171.199951171875</ele>
        <time>2026-08-21T14:52:34.000Z</time>
        <extensions>
          <ns3:TrackPointExtension>
            <ns3:hr>118</ns3:hr>
            <ns3:cad>0</ns3:cad>
          </ns3:TrackPointExtension>
        </extensions>
      </trkpt>
      <trkpt lat="45.301138646900653839111328125" lon="-70.867375619709491729736328125">
        <ele>1171.199951171875</ele>
        <time>2026-08-21T14:52:35.000Z</time>
        <extensions>
          <ns3:TrackPointExtension>
            <ns3:hr>118</ns3:hr>
            <ns3:cad>0</ns3:cad>
          </ns3:TrackPointExtension>
        </extensions>
      </trkpt>
      <trkpt lat="45.301138646900653839111328125" lon="-70.867375619709491729736328125">
        <ele>1171.199951171875</ele>
        <time>2026-08-21T14:52:36.000Z</time>
        <extensions>
          <ns3:TrackPointExtension>
            <ns3:hr>118</ns3:hr>
            <ns3:cad>0</ns3:cad>
          </ns3:TrackPointExtension>
        </extensions>
      </trkpt>
      <trkpt lat="45.30114300549030303955078125" lon="-70.86738400161266326904296875">
        <ele>1171.199951171875</ele>
        <time>2026-08-21T14:52:37.000Z</time>
        <extensions>
          <ns3:TrackPointExtension>
            <ns3:hr>118</ns3:hr>
            <ns3:cad>0</ns3:cad>
          </ns3:TrackPointExtension>
        </extensions>
      </trkpt>
      <trkpt lat="45.30114057473838329315185546875" lon="-70.86739112623035907745361328125">
        <ele>1171</ele>
        <time>2026-08-21T14:52:38.000Z</time>
        <extensions>
          <ns3:TrackPointExtension>
            <ns3:hr>118</ns3:hr>
            <ns3:cad>0</ns3:cad>
          </ns3:TrackPointExtension>
        </extensions>
      </trkpt>
      <trkpt lat="45.30113789252936840057373046875" lon="-70.8674019388854503631591796875">
        <ele>1170.800048828125</ele>
        <time>2026-08-21T14:52:39.000Z</time>
        <extensions>
          <ns3:TrackPointExtension>
            <ns3:hr>118</ns3:hr>
            <ns3:cad>0</ns3:cad>
          </ns3:TrackPointExtension>
        </extensions>
      </trkpt>
      <trkpt lat="45.30113437213003635406494140625" lon="-70.8674133382737636566162109375">
        <ele>1170.800048828125</ele>
        <time>2026-08-21T14:52:40.000Z</time>
        <extensions>
          <ns3:TrackPointExtension>
            <ns3:hr>118</ns3:hr>
            <ns3:cad>0</ns3:cad>
          </ns3:TrackPointExtension>
        </extensions>
      </trkpt>
      <trkpt lat="45.30112833715975284576416015625" lon="-70.86742197163403034210205078125">
        <ele>1170.5999755859375</ele>
        <time>2026-08-21T14:52:41.000Z</time>
        <extensions>
          <ns3:TrackPointExtension>
            <ns3:hr>118</ns3:hr>
            <ns3:cad>0</ns3:cad>
          </ns3:TrackPointExtension>
        </extensions>
      </trkpt>
      <trkpt lat="45.30111660249531269073486328125" lon="-70.86742565967142581939697265625">
        <ele>1170.4000244140625</ele>
        <time>2026-08-21T14:52:42.000Z</time>
        <extensions>
          <ns3:TrackPointExtension>
            <ns3:hr>118</ns3:hr>
            <ns3:cad>0</ns3:cad>
          </ns3:TrackPointExtension>
        </extensions>
      </trkpt>
      <trkpt lat="45.30110553838312625885009765625" lon="-70.86741962470114231109619140625">
        <ele>1170.199951171875</ele>
        <time>2026-08-21T14:52:43.000Z</time>
        <extensions>
          <ns3:TrackPointExtension>
            <ns3:hr>118</ns3:hr>
            <ns3:cad>0</ns3:cad>
          </ns3:TrackPointExtension>
        </extensions>
      </trkpt>
      <trkpt lat="45.301092378795146942138671875" lon="-70.8674200437963008880615234375">
        <ele>1170</ele>
        <time>2026-08-21T14:52:44.000Z</time>
        <extensions>
          <ns3:TrackPointExtension>
            <ns3:hr>117</ns3:hr>
            <ns3:cad>48</ns3:cad>
          </ns3:TrackPointExtension>
        </extensions>
      </trkpt>
      <trkpt lat="45.30108324252068996429443359375" lon="-70.86742247454822063446044921875">
        <ele>1169.800048828125</ele>
        <time>2026-08-21T14:52:45.000Z</time>
        <extensions>
          <ns3:TrackPointExtension>
            <ns3:hr>118</ns3:hr>
            <ns3:cad>48</ns3:cad>
          </ns3:TrackPointExtension>
        </extensions>
      </trkpt>
      <trkpt lat="45.3010720945894718170166015625" lon="-70.86742691695690155029296875">
        <ele>1169.5999755859375</ele>
        <time>2026-08-21T14:52:46.000Z</time>
        <extensions>
          <ns3:TrackPointExtension>
            <ns3:hr>118</ns3:hr>
            <ns3:cad>48</ns3:cad>
          </ns3:TrackPointExtension>
        </extensions>
      </trkpt>
      <trkpt lat="45.30105642043054103851318359375" lon="-70.867435298860073089599609375">
        <ele>1169.4000244140625</ele>
        <time>2026-08-21T14:52:47.000Z</time>
        <extensions>
          <ns3:TrackPointExtension>
            <ns3:hr>118</ns3:hr>
            <ns3:cad>0</ns3:cad>
          </ns3:TrackPointExtension>
        </extensions>
      </trkpt>
      <trkpt lat="45.3010435961186885833740234375" lon="-70.86744527332484722137451171875">
        <ele>1169.199951171875</ele>
        <time>2026-08-21T14:52:48.000Z</time>
        <extensions>
          <ns3:TrackPointExtension>
            <ns3:hr>118</ns3:hr>
            <ns3:cad>0</ns3:cad>
          </ns3:TrackPointExtension>
        </extensions>
      </trkpt>
      <trkpt lat="45.30103110708296298980712890625" lon="-70.86746505461633205413818359375">
        <ele>1169</ele>
        <time>2026-08-21T14:52:49.000Z</time>
        <extensions>
          <ns3:TrackPointExtension>
            <ns3:hr>118</ns3:hr>
            <ns3:cad>0</ns3:cad>
          </ns3:TrackPointExtension>
        </extensions>
      </trkpt>
      <trkpt lat="45.30102373100817203521728515625" lon="-70.86747880093753337860107421875">
        <ele>1168.800048828125</ele>
        <time>2026-08-21T14:52:50.000Z</time>
        <extensions>
          <ns3:TrackPointExtension>
            <ns3:hr>117</ns3:hr>
            <ns3:cad>0</ns3:cad>
          </ns3:TrackPointExtension>
        </extensions>
      </trkpt>
      <trkpt lat="45.3010181151330471038818359375" lon="-70.86749673821032047271728515625">
        <ele>1168.5999755859375</ele>
        <time>2026-08-21T14:52:51.000Z</time>
        <extensions>
          <ns3:TrackPointExtension>
            <ns3:hr>117</ns3:hr>
            <ns3:cad>0</ns3:cad>
          </ns3:TrackPointExtension>
        </extensions>
      </trkpt>
      <trkpt lat="45.30100747011601924896240234375" lon="-70.8675166033208370208740234375">
        <ele>1168.199951171875</ele>
        <time>2026-08-21T14:52:52.000Z</time>
        <extensions>
          <ns3:TrackPointExtension>
            <ns3:hr>118</ns3:hr>
            <ns3:cad>0</ns3:cad>
          </ns3:TrackPointExtension>
        </extensions>
      </trkpt>
      <trkpt lat="45.30099757947027683258056640625" lon="-70.86753378622233867645263671875">
        <ele>1167.800048828125</ele>
        <time>2026-08-21T14:52:53.000Z</time>
        <extensions>
          <ns3:TrackPointExtension>
            <ns3:hr>118</ns3:hr>
            <ns3:cad>0</ns3:cad>
          </ns3:TrackPointExtension>
        </extensions>
      </trkpt>
      <trkpt lat="45.300987772643566131591796875" lon="-70.86755021475255489349365234375">
        <ele>1167.5999755859375</ele>
        <time>2026-08-21T14:52:54.000Z</time>
        <extensions>
          <ns3:TrackPointExtension>
            <ns3:hr>118</ns3:hr>
            <ns3:cad>0</ns3:cad>
          </ns3:TrackPointExtension>
        </extensions>
      </trkpt>
      <trkpt lat="45.30097478069365024566650390625" lon="-70.86756982840597629547119140625">
        <ele>1167</ele>
        <time>2026-08-21T14:52:55.000Z</time>
        <extensions>
          <ns3:TrackPointExtension>
            <ns3:hr>118</ns3:hr>
            <ns3:cad>0</ns3:cad>
          </ns3:TrackPointExtension>
        </extensions>
      </trkpt>
      <trkpt lat="45.3009648062288761138916015625" lon="-70.867599584162235260009765625">
        <ele>1166.5999755859375</ele>
        <time>2026-08-21T14:52:56.000Z</time>
        <extensions>
          <ns3:TrackPointExtension>
            <ns3:hr>118</ns3:hr>
            <ns3:cad>0</ns3:cad>
          </ns3:TrackPointExtension>
        </extensions>
      </trkpt>
      <trkpt lat="45.30096388421952724456787109375" lon="-70.86762799881398677825927734375">
        <ele>1166</ele>
        <time>2026-08-21T14:52:57.000Z</time>
        <extensions>
          <ns3:TrackPointExtension>
            <ns3:hr>119</ns3:hr>
            <ns3:cad>75</ns3:cad>
          </ns3:TrackPointExtension>
        </extensions>
      </trkpt>
      <trkpt lat="45.3009594418108463287353515625" lon="-70.86764912120997905731201171875">
        <ele>1165.5999755859375</ele>
        <time>2026-08-21T14:52:58.000Z</time>
        <extensions>
          <ns3:TrackPointExtension>
            <ns3:hr>120</ns3:hr>
            <ns3:cad>75</ns3:cad>
          </ns3:TrackPointExtension>
        </extensions>
      </trkpt>
      <trkpt lat="45.30095650814473628997802734375" lon="-70.8676835708320140838623046875">
        <ele>1165</ele>
        <time>2026-08-21T14:52:59.000Z</time>
        <extensions>
          <ns3:TrackPointExtension>
            <ns3:hr>120</ns3:hr>
            <ns3:cad>75</ns3:cad>
          </ns3:TrackPointExtension>
        </extensions>
      </trkpt>
      <trkpt lat="45.30095927417278289794921875" lon="-70.86770444177091121673583984375">
        <ele>1164.5999755859375</ele>
        <time>2026-08-21T14:53:00.000Z</time>
        <extensions>
          <ns3:TrackPointExtension>
            <ns3:hr>121</ns3:hr>
            <ns3:cad>75</ns3:cad>
          </ns3:TrackPointExtension>
        </extensions>
      </trkpt>
      <trkpt lat="45.30097142793238162994384765625" lon="-70.867718942463397979736328125">
        <ele>1164.4000244140625</ele>
        <time>2026-08-21T14:53:01.000Z</time>
        <extensions>
          <ns3:TrackPointExtension>
            <ns3:hr>121</ns3:hr>
            <ns3:cad>75</ns3:cad>
          </ns3:TrackPointExtension>
        </extensions>
      </trkpt>
      <trkpt lat="45.3009822405874729156494140625" lon="-70.8677435852587223052978515625">
        <ele>1164</ele>
        <time>2026-08-21T14:53:02.000Z</time>
        <extensions>
          <ns3:TrackPointExtension>
            <ns3:hr>121</ns3:hr>
            <ns3:cad>75</ns3:cad>
          </ns3:TrackPointExtension>
        </extensions>
      </trkpt>
      <trkpt lat="45.300985090434551239013671875" lon="-70.867765881121158599853515625">
        <ele>1164</ele>
        <time>2026-08-21T14:53:03.000Z</time>
        <extensions>
          <ns3:TrackPointExtension>
            <ns3:hr>120</ns3:hr>
            <ns3:cad>75</ns3:cad>
          </ns3:TrackPointExtension>
        </extensions>
      </trkpt>
      <trkpt lat="45.3009912930428981781005859375" lon="-70.8677871711552143096923828125">
        <ele>1163.800048828125</ele>
        <time>2026-08-21T14:53:04.000Z</time>
        <extensions>
          <ns3:TrackPointExtension>
            <ns3:hr>120</ns3:hr>
            <ns3:cad>75</ns3:cad>
          </ns3:TrackPointExtension>
        </extensions>
      </trkpt>
      <trkpt lat="45.30099690891802310943603515625" lon="-70.8678022585809230804443359375">
        <ele>1163.5999755859375</ele>
        <time>2026-08-21T14:53:05.000Z</time>
        <extensions>
          <ns3:TrackPointExtension>
            <ns3:hr>120</ns3:hr>
            <ns3:cad>75</ns3:cad>
          </ns3:TrackPointExtension>
        </extensions>
      </trkpt>
      <trkpt lat="45.3010036982595920562744140625" lon="-70.86782195605337619781494140625">
        <ele>1163.4000244140625</ele>
        <time>2026-08-21T14:53:06.000Z</time>
        <extensions>
          <ns3:TrackPointExtension>
            <ns3:hr>120</ns3:hr>
            <ns3:cad>75</ns3:cad>
          </ns3:TrackPointExtension>
        </extensions>
      </trkpt>
      <trkpt lat="45.3010120801627635955810546875" lon="-70.86784374900162220001220703125">
        <ele>1163.199951171875</ele>
        <time>2026-08-21T14:53:07.000Z</time>
        <extensions>
          <ns3:TrackPointExtension>
            <ns3:hr>121</ns3:hr>
            <ns3:cad>75</ns3:cad>
          </ns3:TrackPointExtension>
        </extensions>
      </trkpt>
      <trkpt lat="45.301019959151744842529296875" lon="-70.86786587722599506378173828125">
        <ele>1162.800048828125</ele>
        <time>2026-08-21T14:53:08.000Z</time>
        <extensions>
          <ns3:TrackPointExtension>
            <ns3:hr>120</ns3:hr>
            <ns3:cad>75</ns3:cad>
          </ns3:TrackPointExtension>
        </extensions>
      </trkpt>
      <trkpt lat="45.301026999950408935546875" lon="-70.86788163520395755767822265625">
        <ele>1162.5999755859375</ele>
        <time>2026-08-21T14:53:09.000Z</time>
        <extensions>
          <ns3:TrackPointExtension>
            <ns3:hr>120</ns3:hr>
            <ns3:cad>75</ns3:cad>
          </ns3:TrackPointExtension>
        </extensions>
      </trkpt>
      <trkpt lat="45.30103445984423160552978515625" lon="-70.86789739318192005157470703125">
        <ele>1162.4000244140625</ele>
        <time>2026-08-21T14:53:10.000Z</time>
        <extensions>
          <ns3:TrackPointExtension>
            <ns3:hr>120</ns3:hr>
            <ns3:cad>75</ns3:cad>
          </ns3:TrackPointExtension>
        </extensions>
      </trkpt>
      <trkpt lat="45.301039405167102813720703125" lon="-70.8679117262363433837890625">
        <ele>1162</ele>
        <time>2026-08-21T14:53:11.000Z</time>
        <extensions>
          <ns3:TrackPointExtension>
            <ns3:hr>120</ns3:hr>
            <ns3:cad>75</ns3:cad>
          </ns3:TrackPointExtension>
        </extensions>
      </trkpt>
      <trkpt lat="45.30104585923254489898681640625" lon="-70.8679306693375110626220703125">
        <ele>1161.800048828125</ele>
        <time>2026-08-21T14:53:12.000Z</time>
        <extensions>
          <ns3:TrackPointExtension>
            <ns3:hr>121</ns3:hr>
            <ns3:cad>75</ns3:cad>
          </ns3:TrackPointExtension>
        </extensions>
      </trkpt>
      <trkpt lat="45.30105306766927242279052734375" lon="-70.8679492771625518798828125">
        <ele>1161.5999755859375</ele>
        <time>2026-08-21T14:53:13.000Z</time>
        <extensions>
          <ns3:TrackPointExtension>
            <ns3:hr>121</ns3:hr>
            <ns3:cad>75</ns3:cad>
          </ns3:TrackPointExtension>
        </extensions>
      </trkpt>
      <trkpt lat="45.301058851182460784912109375" lon="-70.86796578951179981231689453125">
        <ele>1161.4000244140625</ele>
        <time>2026-08-21T14:53:14.000Z</time>
        <extensions>
          <ns3:TrackPointExtension>
            <ns3:hr>121</ns3:hr>
            <ns3:cad>75</ns3:cad>
          </ns3:TrackPointExtension>
        </extensions>
      </trkpt>
      <trkpt lat="45.30106983147561550140380859375" lon="-70.86799395270645618438720703125">
        <ele>1161</ele>
        <time>2026-08-21T14:53:15.000Z</time>
        <extensions>
          <ns3:TrackPointExtension>
            <ns3:hr>121</ns3:hr>
            <ns3:cad>75</ns3:cad>
          </ns3:TrackPointExtension>
        </extensions>
      </trkpt>
      <trkpt lat="45.30107460916042327880859375" lon="-70.86801440455019474029541015625">
        <ele>1160.800048828125</ele>
        <time>2026-08-21T14:53:16.000Z</time>
        <extensions>
          <ns3:TrackPointExtension>
            <ns3:hr>121</ns3:hr>
            <ns3:cad>0</ns3:cad>
          </ns3:TrackPointExtension>
        </extensions>
      </trkpt>
      <trkpt lat="45.30107796192169189453125" lon="-70.86803284473717212677001953125">
        <ele>1160.4000244140625</ele>
        <time>2026-08-21T14:53:17.000Z</time>
        <extensions>
          <ns3:TrackPointExtension>
            <ns3:hr>121</ns3:hr>
            <ns3:cad>0</ns3:cad>
          </ns3:TrackPointExtension>
        </extensions>
      </trkpt>
      <trkpt lat="45.3010781295597553253173828125" lon="-70.86804759688675403594970703125">
        <ele>1160</ele>
        <time>2026-08-21T14:53:18.000Z</time>
        <extensions>
          <ns3:TrackPointExtension>
            <ns3:hr>120</ns3:hr>
            <ns3:cad>0</ns3:cad>
          </ns3:TrackPointExtension>
        </extensions>
      </trkpt>
      <trkpt lat="45.3010714240372180938720703125" lon="-70.8680607564747333526611328125">
        <ele>1159.5999755859375</ele>
        <time>2026-08-21T14:53:19.000Z</time>
        <extensions>
          <ns3:TrackPointExtension>
            <ns3:hr>121</ns3:hr>
            <ns3:cad>0</ns3:cad>
          </ns3:TrackPointExtension>
        </extensions>
      </trkpt>
      <trkpt lat="45.3010603599250316619873046875" lon="-70.86807006038725376129150390625">
        <ele>1159.199951171875</ele>
        <time>2026-08-21T14:53:20.000Z</time>
        <extensions>
          <ns3:TrackPointExtension>
            <ns3:hr>120</ns3:hr>
            <ns3:cad>0</ns3:cad>
          </ns3:TrackPointExtension>
        </extensions>
      </trkpt>
      <trkpt lat="45.30105122365057468414306640625" lon="-70.8680718205869197845458984375">
        <ele>1158.5999755859375</ele>
        <time>2026-08-21T14:53:21.000Z</time>
        <extensions>
          <ns3:TrackPointExtension>
            <ns3:hr>120</ns3:hr>
            <ns3:cad>71</ns3:cad>
          </ns3:TrackPointExtension>
        </extensions>
      </trkpt>
      <trkpt lat="45.30103730969130992889404296875" lon="-70.86807374842464923858642578125">
        <ele>1158.199951171875</ele>
        <time>2026-08-21T14:53:22.000Z</time>
        <extensions>
          <ns3:TrackPointExtension>
            <ns3:hr>120</ns3:hr>
            <ns3:cad>71</ns3:cad>
          </ns3:TrackPointExtension>
        </extensions>
      </trkpt>
      <trkpt lat="45.30102037824690341949462890625" lon="-70.86807492189109325408935546875">
        <ele>1157.800048828125</ele>
        <time>2026-08-21T14:53:23.000Z</time>
        <extensions>
          <ns3:TrackPointExtension>
            <ns3:hr>120</ns3:hr>
            <ns3:cad>0</ns3:cad>
          </ns3:TrackPointExtension>
        </extensions>
      </trkpt>
      <trkpt lat="45.30100361444056034088134765625" lon="-70.86807726882398128509521484375">
        <ele>1157.4000244140625</ele>
        <time>2026-08-21T14:53:24.000Z</time>
        <extensions>
          <ns3:TrackPointExtension>
            <ns3:hr>120</ns3:hr>
            <ns3:cad>0</ns3:cad>
          </ns3:TrackPointExtension>
        </extensions>
      </trkpt>
      <trkpt lat="45.3009906224906444549560546875" lon="-70.868079364299774169921875">
        <ele>1157</ele>
        <time>2026-08-21T14:53:25.000Z</time>
        <extensions>
          <ns3:TrackPointExtension>
            <ns3:hr>119</ns3:hr>
            <ns3:cad>0</ns3:cad>
          </ns3:TrackPointExtension>
        </extensions>
      </trkpt>
      <trkpt lat="45.30098450370132923126220703125" lon="-70.8680815435945987701416015625">
        <ele>1156.5999755859375</ele>
        <time>2026-08-21T14:53:26.000Z</time>
        <extensions>
          <ns3:TrackPointExtension>
            <ns3:hr>118</ns3:hr>
            <ns3:cad>71</ns3:cad>
          </ns3:TrackPointExtension>
        </extensions>
      </trkpt>
      <trkpt lat="45.30097930692136287689208984375" lon="-70.86808430962264537811279296875">
        <ele>1156.4000244140625</ele>
        <time>2026-08-21T14:53:27.000Z</time>
        <extensions>
          <ns3:TrackPointExtension>
            <ns3:hr>118</ns3:hr>
            <ns3:cad>71</ns3:cad>
          </ns3:TrackPointExtension>
        </extensions>
      </trkpt>
      <trkpt lat="45.30097260139882564544677734375" lon="-70.8680889196693897247314453125">
        <ele>1156.199951171875</ele>
        <time>2026-08-21T14:53:28.000Z</time>
        <extensions>
          <ns3:TrackPointExtension>
            <ns3:hr>117</ns3:hr>
            <ns3:cad>71</ns3:cad>
          </ns3:TrackPointExtension>
        </extensions>
      </trkpt>
      <trkpt lat="45.30096204020082950592041015625" lon="-70.86808950640261173248291015625">
        <ele>1155.800048828125</ele>
        <time>2026-08-21T14:53:29.000Z</time>
        <extensions>
          <ns3:TrackPointExtension>
            <ns3:hr>116</ns3:hr>
            <ns3:cad>77</ns3:cad>
          </ns3:TrackPointExtension>
        </extensions>
      </trkpt>
      <trkpt lat="45.30094393528997898101806640625" lon="-70.86808129213750362396240234375">
        <ele>1155.5999755859375</ele>
        <time>2026-08-21T14:53:30.000Z</time>
        <extensions>
          <ns3:TrackPointExtension>
            <ns3:hr>116</ns3:hr>
            <ns3:cad>77</ns3:cad>
          </ns3:TrackPointExtension>
        </extensions>
      </trkpt>
      <trkpt lat="45.30092683620750904083251953125" lon="-70.86807643063366413116455078125">
        <ele>1155.4000244140625</ele>
        <time>2026-08-21T14:53:31.000Z</time>
        <extensions>
          <ns3:TrackPointExtension>
            <ns3:hr>116</ns3:hr>
            <ns3:cad>77</ns3:cad>
          </ns3:TrackPointExtension>
        </extensions>
      </trkpt>
      <trkpt lat="45.30091191641986370086669921875" lon="-70.86807223968207836151123046875">
        <ele>1155</ele>
        <time>2026-08-21T14:53:32.000Z</time>
        <extensions>
          <ns3:TrackPointExtension>
            <ns3:hr>117</ns3:hr>
            <ns3:cad>77</ns3:cad>
          </ns3:TrackPointExtension>
        </extensions>
      </trkpt>
      <trkpt lat="45.30089481733739376068115234375" lon="-70.86806838400661945343017578125">
        <ele>1154.5999755859375</ele>
        <time>2026-08-21T14:53:33.000Z</time>
        <extensions>
          <ns3:TrackPointExtension>
            <ns3:hr>117</ns3:hr>
            <ns3:cad>77</ns3:cad>
          </ns3:TrackPointExtension>
        </extensions>
      </trkpt>
      <trkpt lat="45.3008799813687801361083984375" lon="-70.86806167848408222198486328125">
        <ele>1154.4000244140625</ele>
        <time>2026-08-21T14:53:34.000Z</time>
        <extensions>
          <ns3:TrackPointExtension>
            <ns3:hr>118</ns3:hr>
            <ns3:cad>66</ns3:cad>
          </ns3:TrackPointExtension>
        </extensions>
      </trkpt>
      <trkpt lat="45.30087084509432315826416015625" lon="-70.8680503629148006439208984375">
        <ele>1154</ele>
        <time>2026-08-21T14:53:35.000Z</time>
        <extensions>
          <ns3:TrackPointExtension>
            <ns3:hr>118</ns3:hr>
            <ns3:cad>66</ns3:cad>
          </ns3:TrackPointExtension>
        </extensions>
      </trkpt>
      <trkpt lat="45.30086162500083446502685546875" lon="-70.86804424412548542022705078125">
        <ele>1153.800048828125</ele>
        <time>2026-08-21T14:53:36.000Z</time>
        <extensions>
          <ns3:TrackPointExtension>
            <ns3:hr>119</ns3:hr>
            <ns3:cad>62</ns3:cad>
          </ns3:TrackPointExtension>
        </extensions>
      </trkpt>
      <trkpt lat="45.30085106380283832550048828125" lon="-70.86804910562932491302490234375">
        <ele>1153.5999755859375</ele>
        <time>2026-08-21T14:53:37.000Z</time>
        <extensions>
          <ns3:TrackPointExtension>
            <ns3:hr>120</ns3:hr>
            <ns3:cad>62</ns3:cad>
          </ns3:TrackPointExtension>
        </extensions>
      </trkpt>
      <trkpt lat="45.30084100551903247833251953125" lon="-70.8680560626089572906494140625">
        <ele>1153.5999755859375</ele>
        <time>2026-08-21T14:53:38.000Z</time>
        <extensions>
          <ns3:TrackPointExtension>
            <ns3:hr>121</ns3:hr>
            <ns3:cad>62</ns3:cad>
          </ns3:TrackPointExtension>
        </extensions>
      </trkpt>
      <trkpt lat="45.300828516483306884765625" lon="-70.8680592477321624755859375">
        <ele>1153.4000244140625</ele>
        <time>2026-08-21T14:53:39.000Z</time>
        <extensions>
          <ns3:TrackPointExtension>
            <ns3:hr>121</ns3:hr>
            <ns3:cad>62</ns3:cad>
          </ns3:TrackPointExtension>
        </extensions>
      </trkpt>
      <trkpt lat="45.30080496333539485931396484375" lon="-70.86805799044668674468994140625">
        <ele>1153.199951171875</ele>
        <time>2026-08-21T14:53:40.000Z</time>
        <extensions>
          <ns3:TrackPointExtension>
            <ns3:hr>121</ns3:hr>
            <ns3:cad>0</ns3:cad>
          </ns3:TrackPointExtension>
        </extensions>
      </trkpt>
      <trkpt lat="45.30078702606260776519775390625" lon="-70.86805933155119419097900390625">
        <ele>1153</ele>
        <time>2026-08-21T14:53:41.000Z</time>
        <extensions>
          <ns3:TrackPointExtension>
            <ns3:hr>121</ns3:hr>
            <ns3:cad>0</ns3:cad>
          </ns3:TrackPointExtension>
        </extensions>
      </trkpt>
      <trkpt lat="45.30077076517045497894287109375" lon="-70.8680540509521961212158203125">
        <ele>1152.5999755859375</ele>
        <time>2026-08-21T14:53:42.000Z</time>
        <extensions>
          <ns3:TrackPointExtension>
            <ns3:hr>120</ns3:hr>
            <ns3:cad>0</ns3:cad>
          </ns3:TrackPointExtension>
        </extensions>
      </trkpt>
      <trkpt lat="45.30075752176344394683837890625" lon="-70.8680500276386737823486328125">
        <ele>1152.4000244140625</ele>
        <time>2026-08-21T14:53:43.000Z</time>
        <extensions>
          <ns3:TrackPointExtension>
            <ns3:hr>120</ns3:hr>
            <ns3:cad>0</ns3:cad>
          </ns3:TrackPointExtension>
        </extensions>
      </trkpt>
      <trkpt lat="45.30074872076511383056640625" lon="-70.8680513687431812286376953125">
        <ele>1152</ele>
        <time>2026-08-21T14:53:44.000Z</time>
        <extensions>
          <ns3:TrackPointExtension>
            <ns3:hr>120</ns3:hr>
            <ns3:cad>0</ns3:cad>
          </ns3:TrackPointExtension>
        </extensions>
      </trkpt>
      <trkpt lat="45.3007344715297222137451171875" lon="-70.868048854172229766845703125">
        <ele>1151.800048828125</ele>
        <time>2026-08-21T14:53:45.000Z</time>
        <extensions>
          <ns3:TrackPointExtension>
            <ns3:hr>120</ns3:hr>
            <ns3:cad>0</ns3:cad>
          </ns3:TrackPointExtension>
        </extensions>
      </trkpt>
      <trkpt lat="45.30071645043790340423583984375" lon="-70.86804675869643688201904296875">
        <ele>1151.5999755859375</ele>
        <time>2026-08-21T14:53:46.000Z</time>
        <extensions>
          <ns3:TrackPointExtension>
            <ns3:hr>120</ns3:hr>
            <ns3:cad>0</ns3:cad>
          </ns3:TrackPointExtension>
        </extensions>
      </trkpt>
      <trkpt lat="45.300708152353763580322265625" lon="-70.86804273538291454315185546875">
        <ele>1151.199951171875</ele>
        <time>2026-08-21T14:53:47.000Z</time>
        <extensions>
          <ns3:TrackPointExtension>
            <ns3:hr>119</ns3:hr>
            <ns3:cad>0</ns3:cad>
          </ns3:TrackPointExtension>
        </extensions>
      </trkpt>
      <trkpt lat="45.30070102773606777191162109375" lon="-70.8680419810116291046142578125">
        <ele>1150.800048828125</ele>
        <time>2026-08-21T14:53:48.000Z</time>
        <extensions>
          <ns3:TrackPointExtension>
            <ns3:hr>119</ns3:hr>
            <ns3:cad>0</ns3:cad>
          </ns3:TrackPointExtension>
        </extensions>
      </trkpt>
      <trkpt lat="45.30068610794842243194580078125" lon="-70.86804742924869060516357421875">
        <ele>1150.5999755859375</ele>
        <time>2026-08-21T14:53:49.000Z</time>
        <extensions>
          <ns3:TrackPointExtension>
            <ns3:hr>118</ns3:hr>
            <ns3:cad>0</ns3:cad>
          </ns3:TrackPointExtension>
        </extensions>
      </trkpt>
      <trkpt lat="45.3006660751998424530029296875" lon="-70.86803913116455078125">
        <ele>1150.199951171875</ele>
        <time>2026-08-21T14:53:50.000Z</time>
        <extensions>
          <ns3:TrackPointExtension>
            <ns3:hr>118</ns3:hr>
            <ns3:cad>0</ns3:cad>
          </ns3:TrackPointExtension>
        </extensions>
      </trkpt>
      <trkpt lat="45.30065408907830715179443359375" lon="-70.8680342696607112884521484375">
        <ele>1149.800048828125</ele>
        <time>2026-08-21T14:53:51.000Z</time>
        <extensions>
          <ns3:TrackPointExtension>
            <ns3:hr>118</ns3:hr>
            <ns3:cad>0</ns3:cad>
          </ns3:TrackPointExtension>
        </extensions>
      </trkpt>
      <trkpt lat="45.3006456233561038970947265625" lon="-70.86802965961396694183349609375">
        <ele>1149.4000244140625</ele>
        <time>2026-08-21T14:53:52.000Z</time>
        <extensions>
          <ns3:TrackPointExtension>
            <ns3:hr>118</ns3:hr>
            <ns3:cad>0</ns3:cad>
          </ns3:TrackPointExtension>
        </extensions>
      </trkpt>
      <trkpt lat="45.300633050501346588134765625" lon="-70.8680242113769054412841796875">
        <ele>1149</ele>
        <time>2026-08-21T14:53:53.000Z</time>
        <extensions>
          <ns3:TrackPointExtension>
            <ns3:hr>117</ns3:hr>
            <ns3:cad>0</ns3:cad>
          </ns3:TrackPointExtension>
        </extensions>
      </trkpt>
      <trkpt lat="45.30062139965593814849853515625" lon="-70.8680131472647190093994140625">
        <ele>1148.800048828125</ele>
        <time>2026-08-21T14:53:54.000Z</time>
        <extensions>
          <ns3:TrackPointExtension>
            <ns3:hr>117</ns3:hr>
            <ns3:cad>0</ns3:cad>
          </ns3:TrackPointExtension>
        </extensions>
      </trkpt>
      <trkpt lat="45.3006077371537685394287109375" lon="-70.86800183169543743133544921875">
        <ele>1148.4000244140625</ele>
        <time>2026-08-21T14:53:55.000Z</time>
        <extensions>
          <ns3:TrackPointExtension>
            <ns3:hr>118</ns3:hr>
            <ns3:cad>0</ns3:cad>
          </ns3:TrackPointExtension>
        </extensions>
      </trkpt>
      <trkpt lat="45.3005973435938358306884765625" lon="-70.86799085140228271484375">
        <ele>1148</ele>
        <time>2026-08-21T14:53:56.000Z</time>
        <extensions>
          <ns3:TrackPointExtension>
            <ns3:hr>118</ns3:hr>
            <ns3:cad>0</ns3:cad>
          </ns3:TrackPointExtension>
        </extensions>
      </trkpt>
      <trkpt lat="45.300588123500347137451171875" lon="-70.86798406206071376800537109375">
        <ele>1147.800048828125</ele>
        <time>2026-08-21T14:53:57.000Z</time>
        <extensions>
          <ns3:TrackPointExtension>
            <ns3:hr>118</ns3:hr>
            <ns3:cad>0</ns3:cad>
          </ns3:TrackPointExtension>
        </extensions>
      </trkpt>
      <trkpt lat="45.30057705938816070556640625" lon="-70.86798372678458690643310546875">
        <ele>1147.5999755859375</ele>
        <time>2026-08-21T14:53:58.000Z</time>
        <extensions>
          <ns3:TrackPointExtension>
            <ns3:hr>117</ns3:hr>
            <ns3:cad>0</ns3:cad>
          </ns3:TrackPointExtension>
        </extensions>
      </trkpt>
      <trkpt lat="45.30056624673306941986083984375" lon="-70.8679900132119655609130859375">
        <ele>1147.4000244140625</ele>
        <time>2026-08-21T14:53:59.000Z</time>
        <extensions>
          <ns3:TrackPointExtension>
            <ns3:hr>117</ns3:hr>
            <ns3:cad>0</ns3:cad>
          </ns3:TrackPointExtension>
        </extensions>
      </trkpt>
      <trkpt lat="45.30055149458348751068115234375" lon="-70.8679923601448535919189453125">
        <ele>1147.199951171875</ele>
        <time>2026-08-21T14:54:00.000Z</time>
        <extensions>
          <ns3:TrackPointExtension>
            <ns3:hr>117</ns3:hr>
            <ns3:cad>0</ns3:cad>
          </ns3:TrackPointExtension>
        </extensions>
      </trkpt>
      <trkpt lat="45.3005420230329036712646484375" lon="-70.86799680255353450775146484375">
        <ele>1146.800048828125</ele>
        <time>2026-08-21T14:54:01.000Z</time>
        <extensions>
          <ns3:TrackPointExtension>
            <ns3:hr>117</ns3:hr>
            <ns3:cad>0</ns3:cad>
          </ns3:TrackPointExtension>
        </extensions>
      </trkpt>
      <trkpt lat="45.3005312941968441009521484375" lon="-70.86800568737089633941650390625">
        <ele>1146.4000244140625</ele>
        <time>2026-08-21T14:54:02.000Z</time>
        <extensions>
          <ns3:TrackPointExtension>
            <ns3:hr>117</ns3:hr>
            <ns3:cad>0</ns3:cad>
          </ns3:TrackPointExtension>
        </extensions>
      </trkpt>
      <trkpt lat="45.30051914043724536895751953125" lon="-70.86801943369209766387939453125">
        <ele>1146</ele>
        <time>2026-08-21T14:54:03.000Z</time>
        <extensions>
          <ns3:TrackPointExtension>
            <ns3:hr>118</ns3:hr>
            <ns3:cad>0</ns3:cad>
          </ns3:TrackPointExtension>
        </extensions>
      </trkpt>
      <trkpt lat="45.30051427893340587615966796875" lon="-70.868047513067722320556640625">
        <ele>1145.5999755859375</ele>
        <time>2026-08-21T14:54:04.000Z</time>
        <extensions>
          <ns3:TrackPointExtension>
            <ns3:hr>120</ns3:hr>
            <ns3:cad>0</ns3:cad>
          </ns3:TrackPointExtension>
        </extensions>
      </trkpt>
      <trkpt lat="45.3005128540098667144775390625" lon="-70.86805698461830615997314453125">
        <ele>1145.199951171875</ele>
        <time>2026-08-21T14:54:05.000Z</time>
        <extensions>
          <ns3:TrackPointExtension>
            <ns3:hr>122</ns3:hr>
            <ns3:cad>0</ns3:cad>
          </ns3:TrackPointExtension>
        </extensions>
      </trkpt>
      <trkpt lat="45.3005133569240570068359375" lon="-70.86807877756655216217041015625">
        <ele>1144.800048828125</ele>
        <time>2026-08-21T14:54:06.000Z</time>
        <extensions>
          <ns3:TrackPointExtension>
            <ns3:hr>123</ns3:hr>
            <ns3:cad>0</ns3:cad>
          </ns3:TrackPointExtension>
        </extensions>
      </trkpt>
      <trkpt lat="45.30051427893340587615966796875" lon="-70.86810476146638393402099609375">
        <ele>1144.5999755859375</ele>
        <time>2026-08-21T14:54:07.000Z</time>
        <extensions>
          <ns3:TrackPointExtension>
            <ns3:hr>123</ns3:hr>
            <ns3:cad>0</ns3:cad>
          </ns3:TrackPointExtension>
        </extensions>
      </trkpt>
      <trkpt lat="45.30051947571337223052978515625" lon="-70.868127644062042236328125">
        <ele>1144.199951171875</ele>
        <time>2026-08-21T14:54:08.000Z</time>
        <extensions>
          <ns3:TrackPointExtension>
            <ns3:hr>123</ns3:hr>
            <ns3:cad>0</ns3:cad>
          </ns3:TrackPointExtension>
        </extensions>
      </trkpt>
      <trkpt lat="45.30052048154175281524658203125" lon="-70.86814633570611476898193359375">
        <ele>1143.800048828125</ele>
        <time>2026-08-21T14:54:09.000Z</time>
        <extensions>
          <ns3:TrackPointExtension>
            <ns3:hr>123</ns3:hr>
            <ns3:cad>0</ns3:cad>
          </ns3:TrackPointExtension>
        </extensions>
      </trkpt>
      <trkpt lat="45.30051846988499164581298828125" lon="-70.86816494353115558624267578125">
        <ele>1143.5999755859375</ele>
        <time>2026-08-21T14:54:10.000Z</time>
        <extensions>
          <ns3:TrackPointExtension>
            <ns3:hr>122</ns3:hr>
            <ns3:cad>0</ns3:cad>
          </ns3:TrackPointExtension>
        </extensions>
      </trkpt>
      <trkpt lat="45.300516374409198760986328125" lon="-70.868180282413959503173828125">
        <ele>1143.199951171875</ele>
        <time>2026-08-21T14:54:11.000Z</time>
        <extensions>
          <ns3:TrackPointExtension>
            <ns3:hr>122</ns3:hr>
            <ns3:cad>0</ns3:cad>
          </ns3:TrackPointExtension>
        </extensions>
      </trkpt>
      <trkpt lat="45.30051914043724536895751953125" lon="-70.86820165626704692840576171875">
        <ele>1143</ele>
        <time>2026-08-21T14:54:12.000Z</time>
        <extensions>
          <ns3:TrackPointExtension>
            <ns3:hr>123</ns3:hr>
            <ns3:cad>0</ns3:cad>
          </ns3:TrackPointExtension>
        </extensions>
      </trkpt>
      <trkpt lat="45.30052115209400653839111328125" lon="-70.86822026409208774566650390625">
        <ele>1142.5999755859375</ele>
        <time>2026-08-21T14:54:13.000Z</time>
        <extensions>
          <ns3:TrackPointExtension>
            <ns3:hr>123</ns3:hr>
            <ns3:cad>0</ns3:cad>
          </ns3:TrackPointExtension>
        </extensions>
      </trkpt>
      <trkpt lat="45.30051880516111850738525390625" lon="-70.86823401041328907012939453125">
        <ele>1142.4000244140625</ele>
        <time>2026-08-21T14:54:14.000Z</time>
        <extensions>
          <ns3:TrackPointExtension>
            <ns3:hr>123</ns3:hr>
            <ns3:cad>0</ns3:cad>
          </ns3:TrackPointExtension>
        </extensions>
      </trkpt>
      <trkpt lat="45.300517715513706207275390625" lon="-70.8682550489902496337890625">
        <ele>1142.199951171875</ele>
        <time>2026-08-21T14:54:15.000Z</time>
        <extensions>
          <ns3:TrackPointExtension>
            <ns3:hr>123</ns3:hr>
            <ns3:cad>0</ns3:cad>
          </ns3:TrackPointExtension>
        </extensions>
      </trkpt>
      <trkpt lat="45.300519727170467376708984375" lon="-70.868273489177227020263671875">
        <ele>1141.800048828125</ele>
        <time>2026-08-21T14:54:16.000Z</time>
        <extensions>
          <ns3:TrackPointExtension>
            <ns3:hr>123</ns3:hr>
            <ns3:cad>0</ns3:cad>
          </ns3:TrackPointExtension>
        </extensions>
      </trkpt>
      <trkpt lat="45.30052131973206996917724609375" lon="-70.868294276297092437744140625">
        <ele>1141.4000244140625</ele>
        <time>2026-08-21T14:54:17.000Z</time>
        <extensions>
          <ns3:TrackPointExtension>
            <ns3:hr>123</ns3:hr>
            <ns3:cad>57</ns3:cad>
          </ns3:TrackPointExtension>
        </extensions>
      </trkpt>
      <trkpt lat="45.3005192242562770843505859375" lon="-70.8683202601969242095947265625">
        <ele>1141.199951171875</ele>
        <time>2026-08-21T14:54:18.000Z</time>
        <extensions>
          <ns3:TrackPointExtension>
            <ns3:hr>123</ns3:hr>
            <ns3:cad>57</ns3:cad>
          </ns3:TrackPointExtension>
        </extensions>
      </trkpt>
      <trkpt lat="45.300520397722721099853515625" lon="-70.8683420531451702117919921875">
        <ele>1140.800048828125</ele>
        <time>2026-08-21T14:54:19.000Z</time>
        <extensions>
          <ns3:TrackPointExtension>
            <ns3:hr>123</ns3:hr>
            <ns3:cad>57</ns3:cad>
          </ns3:TrackPointExtension>
        </extensions>
      </trkpt>
      <trkpt lat="45.30052064917981624603271484375" lon="-70.8683578111231327056884765625">
        <ele>1140.4000244140625</ele>
        <time>2026-08-21T14:54:20.000Z</time>
        <extensions>
          <ns3:TrackPointExtension>
            <ns3:hr>122</ns3:hr>
            <ns3:cad>57</ns3:cad>
          </ns3:TrackPointExtension>
        </extensions>
      </trkpt>
      <trkpt lat="45.3005187213420867919921875" lon="-70.86837851442396640777587890625">
        <ele>1140</ele>
        <time>2026-08-21T14:54:21.000Z</time>
        <extensions>
          <ns3:TrackPointExtension>
            <ns3:hr>122</ns3:hr>
            <ns3:cad>57</ns3:cad>
          </ns3:TrackPointExtension>
        </extensions>
      </trkpt>
      <trkpt lat="45.300518386065959930419921875" lon="-70.86839829571545124053955078125">
        <ele>1139.5999755859375</ele>
        <time>2026-08-21T14:54:22.000Z</time>
        <extensions>
          <ns3:TrackPointExtension>
            <ns3:hr>121</ns3:hr>
            <ns3:cad>57</ns3:cad>
          </ns3:TrackPointExtension>
        </extensions>
      </trkpt>
      <trkpt lat="45.300521068274974822998046875" lon="-70.868416316807270050048828125">
        <ele>1139.4000244140625</ele>
        <time>2026-08-21T14:54:23.000Z</time>
        <extensions>
          <ns3:TrackPointExtension>
            <ns3:hr>121</ns3:hr>
            <ns3:cad>57</ns3:cad>
          </ns3:TrackPointExtension>
        </extensions>
      </trkpt>
      <trkpt lat="45.30052475631237030029296875" lon="-70.8684320747852325439453125">
        <ele>1139.199951171875</ele>
        <time>2026-08-21T14:54:24.000Z</time>
        <extensions>
          <ns3:TrackPointExtension>
            <ns3:hr>120</ns3:hr>
            <ns3:cad>57</ns3:cad>
          </ns3:TrackPointExtension>
        </extensions>
      </trkpt>
      <trkpt lat="45.300528109073638916015625" lon="-70.868451856076717376708984375">
        <ele>1138.800048828125</ele>
        <time>2026-08-21T14:54:25.000Z</time>
        <extensions>
          <ns3:TrackPointExtension>
            <ns3:hr>119</ns3:hr>
            <ns3:cad>57</ns3:cad>
          </ns3:TrackPointExtension>
        </extensions>
      </trkpt>
      <trkpt lat="45.30053623951971530914306640625" lon="-70.8684600703418254852294921875">
        <ele>1138.5999755859375</ele>
        <time>2026-08-21T14:54:26.000Z</time>
        <extensions>
          <ns3:TrackPointExtension>
            <ns3:hr>118</ns3:hr>
            <ns3:cad>57</ns3:cad>
          </ns3:TrackPointExtension>
        </extensions>
      </trkpt>
      <trkpt lat="45.300540514290332794189453125" lon="-70.868475995957851409912109375">
        <ele>1138.4000244140625</ele>
        <time>2026-08-21T14:54:27.000Z</time>
        <extensions>
          <ns3:TrackPointExtension>
            <ns3:hr>117</ns3:hr>
            <ns3:cad>57</ns3:cad>
          </ns3:TrackPointExtension>
        </extensions>
      </trkpt>
      <trkpt lat="45.300539173185825347900390625" lon="-70.86847742088139057159423828125">
        <ele>1138.199951171875</ele>
        <time>2026-08-21T14:54:28.000Z</time>
        <extensions>
          <ns3:TrackPointExtension>
            <ns3:hr>117</ns3:hr>
            <ns3:cad>57</ns3:cad>
          </ns3:TrackPointExtension>
        </extensions>
      </trkpt>
      <trkpt lat="45.30053925700485706329345703125" lon="-70.86848370730876922607421875">
        <ele>1138.199951171875</ele>
        <time>2026-08-21T14:54:29.000Z</time>
        <extensions>
          <ns3:TrackPointExtension>
            <ns3:hr>116</ns3:hr>
            <ns3:cad>0</ns3:cad>
          </ns3:TrackPointExtension>
        </extensions>
      </trkpt>
      <trkpt lat="45.300531797111034393310546875" lon="-70.8684902451932430267333984375">
        <ele>1138.199951171875</ele>
        <time>2026-08-21T14:54:30.000Z</time>
        <extensions>
          <ns3:TrackPointExtension>
            <ns3:hr>116</ns3:hr>
            <ns3:cad>100</ns3:cad>
          </ns3:TrackPointExtension>
        </extensions>
      </trkpt>
      <trkpt lat="45.30052752234041690826416015625" lon="-70.86849284358322620391845703125">
        <ele>1138</ele>
        <time>2026-08-21T14:54:31.000Z</time>
        <extensions>
          <ns3:TrackPointExtension>
            <ns3:hr>116</ns3:hr>
            <ns3:cad>100</ns3:cad>
          </ns3:TrackPointExtension>
        </extensions>
      </trkpt>
      <trkpt lat="45.30052484013140201568603515625" lon="-70.86849988438189029693603515625">
        <ele>1138</ele>
        <time>2026-08-21T14:54:32.000Z</time>
        <extensions>
          <ns3:TrackPointExtension>
            <ns3:hr>116</ns3:hr>
            <ns3:cad>100</ns3:cad>
          </ns3:TrackPointExtension>
        </extensions>
      </trkpt>
      <trkpt lat="45.30052341520786285400390625" lon="-70.868509523570537567138671875">
        <ele>1137.5999755859375</ele>
        <time>2026-08-21T14:54:33.000Z</time>
        <extensions>
          <ns3:TrackPointExtension>
            <ns3:hr>115</ns3:hr>
            <ns3:cad>100</ns3:cad>
          </ns3:TrackPointExtension>
        </extensions>
      </trkpt>
      <trkpt lat="45.30052006244659423828125" lon="-70.86852285079658031463623046875">
        <ele>1137.4000244140625</ele>
        <time>2026-08-21T14:54:34.000Z</time>
        <extensions>
          <ns3:TrackPointExtension>
            <ns3:hr>115</ns3:hr>
            <ns3:cad>0</ns3:cad>
          </ns3:TrackPointExtension>
        </extensions>
      </trkpt>
      <trkpt lat="45.30051536858081817626953125" lon="-70.86853466928005218505859375">
        <ele>1137</ele>
        <time>2026-08-21T14:54:35.000Z</time>
        <extensions>
          <ns3:TrackPointExtension>
            <ns3:hr>115</ns3:hr>
            <ns3:cad>0</ns3:cad>
          </ns3:TrackPointExtension>
        </extensions>
      </trkpt>
      <trkpt lat="45.30051209963858127593994140625" lon="-70.8685474097728729248046875">
        <ele>1136.800048828125</ele>
        <time>2026-08-21T14:54:36.000Z</time>
        <extensions>
          <ns3:TrackPointExtension>
            <ns3:hr>115</ns3:hr>
            <ns3:cad>0</ns3:cad>
          </ns3:TrackPointExtension>
        </extensions>
      </trkpt>
      <trkpt lat="45.300508998334407806396484375" lon="-70.86855704896152019500732421875">
        <ele>1136.4000244140625</ele>
        <time>2026-08-21T14:54:37.000Z</time>
        <extensions>
          <ns3:TrackPointExtension>
            <ns3:hr>114</ns3:hr>
            <ns3:cad>47</ns3:cad>
          </ns3:TrackPointExtension>
        </extensions>
      </trkpt>
      <trkpt lat="45.30050463974475860595703125" lon="-70.8685599826276302337646484375">
        <ele>1136.199951171875</ele>
        <time>2026-08-21T14:54:38.000Z</time>
        <extensions>
          <ns3:TrackPointExtension>
            <ns3:hr>114</ns3:hr>
            <ns3:cad>47</ns3:cad>
          </ns3:TrackPointExtension>
        </extensions>
      </trkpt>
      <trkpt lat="45.3005001135170459747314453125" lon="-70.86856107227504253387451171875">
        <ele>1136</ele>
        <time>2026-08-21T14:54:39.000Z</time>
        <extensions>
          <ns3:TrackPointExtension>
            <ns3:hr>114</ns3:hr>
            <ns3:cad>47</ns3:cad>
          </ns3:TrackPointExtension>
        </extensions>
      </trkpt>
      <trkpt lat="45.30049248598515987396240234375" lon="-70.86856610141694545745849609375">
        <ele>1135.800048828125</ele>
        <time>2026-08-21T14:54:40.000Z</time>
        <extensions>
          <ns3:TrackPointExtension>
            <ns3:hr>114</ns3:hr>
            <ns3:cad>47</ns3:cad>
          </ns3:TrackPointExtension>
        </extensions>
      </trkpt>
      <trkpt lat="45.30048452317714691162109375" lon="-70.86858688853681087493896484375">
        <ele>1135.5999755859375</ele>
        <time>2026-08-21T14:54:41.000Z</time>
        <extensions>
          <ns3:TrackPointExtension>
            <ns3:hr>114</ns3:hr>
            <ns3:cad>47</ns3:cad>
          </ns3:TrackPointExtension>
        </extensions>
      </trkpt>
      <trkpt lat="45.30047270469367504119873046875" lon="-70.8685941807925701141357421875">
        <ele>1135.199951171875</ele>
        <time>2026-08-21T14:54:42.000Z</time>
        <extensions>
          <ns3:TrackPointExtension>
            <ns3:hr>113</ns3:hr>
            <ns3:cad>47</ns3:cad>
          </ns3:TrackPointExtension>
        </extensions>
      </trkpt>
      <trkpt lat="45.30045795254409313201904296875" lon="-70.86859845556318759918212890625">
        <ele>1134.800048828125</ele>
        <time>2026-08-21T14:54:43.000Z</time>
        <extensions>
          <ns3:TrackPointExtension>
            <ns3:hr>113</ns3:hr>
            <ns3:cad>47</ns3:cad>
          </ns3:TrackPointExtension>
        </extensions>
      </trkpt>
      <trkpt lat="45.30044554732739925384521484375" lon="-70.8686062507331371307373046875">
        <ele>1134.5999755859375</ele>
        <time>2026-08-21T14:54:44.000Z</time>
        <extensions>
          <ns3:TrackPointExtension>
            <ns3:hr>113</ns3:hr>
            <ns3:cad>47</ns3:cad>
          </ns3:TrackPointExtension>
        </extensions>
      </trkpt>
      <trkpt lat="45.3004357405006885528564453125" lon="-70.86861354298889636993408203125">
        <ele>1134.199951171875</ele>
        <time>2026-08-21T14:54:45.000Z</time>
        <extensions>
          <ns3:TrackPointExtension>
            <ns3:hr>112</ns3:hr>
            <ns3:cad>47</ns3:cad>
          </ns3:TrackPointExtension>
        </extensions>
      </trkpt>
      <trkpt lat="45.3004248440265655517578125" lon="-70.868620835244655609130859375">
        <ele>1133.800048828125</ele>
        <time>2026-08-21T14:54:46.000Z</time>
        <extensions>
          <ns3:TrackPointExtension>
            <ns3:hr>112</ns3:hr>
            <ns3:cad>0</ns3:cad>
          </ns3:TrackPointExtension>
        </extensions>
      </trkpt>
      <trkpt lat="45.30041118152439594268798828125" lon="-70.8686203323304653167724609375">
        <ele>1133.4000244140625</ele>
        <time>2026-08-21T14:54:47.000Z</time>
        <extensions>
          <ns3:TrackPointExtension>
            <ns3:hr>111</ns3:hr>
            <ns3:cad>0</ns3:cad>
          </ns3:TrackPointExtension>
        </extensions>
      </trkpt>
      <trkpt lat="45.3004018776118755340576171875" lon="-70.86861111223697662353515625">
        <ele>1133.199951171875</ele>
        <time>2026-08-21T14:54:48.000Z</time>
        <extensions>
          <ns3:TrackPointExtension>
            <ns3:hr>110</ns3:hr>
            <ns3:cad>0</ns3:cad>
          </ns3:TrackPointExtension>
        </extensions>
      </trkpt>
      <trkpt lat="45.30039391480386257171630859375" lon="-70.868596695363521575927734375">
        <ele>1133</ele>
        <time>2026-08-21T14:54:49.000Z</time>
        <extensions>
          <ns3:TrackPointExtension>
            <ns3:hr>111</ns3:hr>
            <ns3:cad>0</ns3:cad>
          </ns3:TrackPointExtension>
        </extensions>
      </trkpt>
      <trkpt lat="45.30039274133741855621337890625" lon="-70.86858454160392284393310546875">
        <ele>1132.800048828125</ele>
        <time>2026-08-21T14:54:50.000Z</time>
        <extensions>
          <ns3:TrackPointExtension>
            <ns3:hr>110</ns3:hr>
            <ns3:cad>0</ns3:cad>
          </ns3:TrackPointExtension>
        </extensions>
      </trkpt>
      <trkpt lat="45.3003844432532787322998046875" lon="-70.86856844834983348846435546875">
        <ele>1132.800048828125</ele>
        <time>2026-08-21T14:54:51.000Z</time>
        <extensions>
          <ns3:TrackPointExtension>
            <ns3:hr>110</ns3:hr>
            <ns3:cad>0</ns3:cad>
          </ns3:TrackPointExtension>
        </extensions>
      </trkpt>
      <trkpt lat="45.30037455260753631591796875" lon="-70.8685623295605182647705078125">
        <ele>1132.800048828125</ele>
        <time>2026-08-21T14:54:52.000Z</time>
        <extensions>
          <ns3:TrackPointExtension>
            <ns3:hr>110</ns3:hr>
            <ns3:cad>0</ns3:cad>
          </ns3:TrackPointExtension>
        </extensions>
      </trkpt>
      <trkpt lat="45.30036558397114276885986328125" lon="-70.8685539476573467254638671875">
        <ele>1132.800048828125</ele>
        <time>2026-08-21T14:54:53.000Z</time>
        <extensions>
          <ns3:TrackPointExtension>
            <ns3:hr>111</ns3:hr>
            <ns3:cad>0</ns3:cad>
          </ns3:TrackPointExtension>
        </extensions>
      </trkpt>
      <trkpt lat="45.3003535978496074676513671875" lon="-70.868541039526462554931640625">
        <ele>1133</ele>
        <time>2026-08-21T14:54:54.000Z</time>
        <extensions>
          <ns3:TrackPointExtension>
            <ns3:hr>111</ns3:hr>
            <ns3:cad>42</ns3:cad>
          </ns3:TrackPointExtension>
        </extensions>
      </trkpt>
      <trkpt lat="45.30034127645194530487060546875" lon="-70.86852720938622951507568359375">
        <ele>1132.800048828125</ele>
        <time>2026-08-21T14:54:55.000Z</time>
        <extensions>
          <ns3:TrackPointExtension>
            <ns3:hr>112</ns3:hr>
            <ns3:cad>42</ns3:cad>
          </ns3:TrackPointExtension>
        </extensions>
      </trkpt>
      <trkpt lat="45.3003294579684734344482421875" lon="-70.8685071766376495361328125">
        <ele>1132.800048828125</ele>
        <time>2026-08-21T14:54:56.000Z</time>
        <extensions>
          <ns3:TrackPointExtension>
            <ns3:hr>114</ns3:hr>
            <ns3:cad>43</ns3:cad>
          </ns3:TrackPointExtension>
        </extensions>
      </trkpt>
      <trkpt lat="45.30031981877982616424560546875" lon="-70.86849619634449481964111328125">
        <ele>1132.5999755859375</ele>
        <time>2026-08-21T14:54:57.000Z</time>
        <extensions>
          <ns3:TrackPointExtension>
            <ns3:hr>117</ns3:hr>
            <ns3:cad>43</ns3:cad>
          </ns3:TrackPointExtension>
        </extensions>
      </trkpt>
      <trkpt lat="45.30030640773475170135498046875" lon="-70.86849485523998737335205078125">
        <ele>1132.4000244140625</ele>
        <time>2026-08-21T14:54:58.000Z</time>
        <extensions>
          <ns3:TrackPointExtension>
            <ns3:hr>119</ns3:hr>
            <ns3:cad>44</ns3:cad>
          </ns3:TrackPointExtension>
        </extensions>
      </trkpt>
      <trkpt lat="45.3002962656319141387939453125" lon="-70.86849753744900226593017578125">
        <ele>1132.4000244140625</ele>
        <time>2026-08-21T14:54:59.000Z</time>
        <extensions>
          <ns3:TrackPointExtension>
            <ns3:hr>120</ns3:hr>
            <ns3:cad>44</ns3:cad>
          </ns3:TrackPointExtension>
        </extensions>
      </trkpt>
      <trkpt lat="45.3002811782062053680419921875" lon="-70.868488736450672149658203125">
        <ele>1132.199951171875</ele>
        <time>2026-08-21T14:55:00.000Z</time>
        <extensions>
          <ns3:TrackPointExtension>
            <ns3:hr>120</ns3:hr>
            <ns3:cad>44</ns3:cad>
          </ns3:TrackPointExtension>
        </extensions>
      </trkpt>
      <trkpt lat="45.300266258418560028076171875" lon="-70.8684728108346462249755859375">
        <ele>1132.199951171875</ele>
        <time>2026-08-21T14:55:01.000Z</time>
        <extensions>
          <ns3:TrackPointExtension>
            <ns3:hr>120</ns3:hr>
            <ns3:cad>44</ns3:cad>
          </ns3:TrackPointExtension>
        </extensions>
      </trkpt>
      <trkpt lat="45.30024890787899494171142578125" lon="-70.86846836842596530914306640625">
        <ele>1132</ele>
        <time>2026-08-21T14:55:02.000Z</time>
        <extensions>
          <ns3:TrackPointExtension>
            <ns3:hr>120</ns3:hr>
            <ns3:cad>44</ns3:cad>
          </ns3:TrackPointExtension>
        </extensions>
      </trkpt>
      <trkpt lat="45.30023373663425445556640625" lon="-70.86846183054149150848388671875">
        <ele>1131.800048828125</ele>
        <time>2026-08-21T14:55:03.000Z</time>
        <extensions>
          <ns3:TrackPointExtension>
            <ns3:hr>119</ns3:hr>
            <ns3:cad>65</ns3:cad>
          </ns3:TrackPointExtension>
        </extensions>
      </trkpt>
      <trkpt lat="45.3002238459885120391845703125" lon="-70.86845017969608306884765625">
        <ele>1131.5999755859375</ele>
        <time>2026-08-21T14:55:04.000Z</time>
        <extensions>
          <ns3:TrackPointExtension>
            <ns3:hr>119</ns3:hr>
            <ns3:cad>65</ns3:cad>
          </ns3:TrackPointExtension>
        </extensions>
      </trkpt>
      <trkpt lat="45.30021621845662593841552734375" lon="-70.86842981167137622833251953125">
        <ele>1131.5999755859375</ele>
        <time>2026-08-21T14:55:05.000Z</time>
        <extensions>
          <ns3:TrackPointExtension>
            <ns3:hr>119</ns3:hr>
            <ns3:cad>65</ns3:cad>
          </ns3:TrackPointExtension>
        </extensions>
      </trkpt>
      <trkpt lat="45.30020884238183498382568359375" lon="-70.86841187439858913421630859375">
        <ele>1131.4000244140625</ele>
        <time>2026-08-21T14:55:06.000Z</time>
        <extensions>
          <ns3:TrackPointExtension>
            <ns3:hr>118</ns3:hr>
            <ns3:cad>65</ns3:cad>
          </ns3:TrackPointExtension>
        </extensions>
      </trkpt>
      <trkpt lat="45.300203897058963775634765625" lon="-70.86839444003999233245849609375">
        <ele>1131.4000244140625</ele>
        <time>2026-08-21T14:55:07.000Z</time>
        <extensions>
          <ns3:TrackPointExtension>
            <ns3:hr>118</ns3:hr>
            <ns3:cad>65</ns3:cad>
          </ns3:TrackPointExtension>
        </extensions>
      </trkpt>
      <trkpt lat="45.30019819736480712890625" lon="-70.8683717250823974609375">
        <ele>1131.5999755859375</ele>
        <time>2026-08-21T14:55:08.000Z</time>
        <extensions>
          <ns3:TrackPointExtension>
            <ns3:hr>119</ns3:hr>
            <ns3:cad>65</ns3:cad>
          </ns3:TrackPointExtension>
        </extensions>
      </trkpt>
      <trkpt lat="45.30019476078450679779052734375" lon="-70.8683534525334835052490234375">
        <ele>1131.800048828125</ele>
        <time>2026-08-21T14:55:09.000Z</time>
        <extensions>
          <ns3:TrackPointExtension>
            <ns3:hr>120</ns3:hr>
            <ns3:cad>65</ns3:cad>
          </ns3:TrackPointExtension>
        </extensions>
      </trkpt>
      <trkpt lat="45.300186462700366973876953125" lon="-70.86833626963198184967041015625">
        <ele>1131.800048828125</ele>
        <time>2026-08-21T14:55:10.000Z</time>
        <extensions>
          <ns3:TrackPointExtension>
            <ns3:hr>120</ns3:hr>
            <ns3:cad>65</ns3:cad>
          </ns3:TrackPointExtension>
        </extensions>
      </trkpt>
      <trkpt lat="45.30017849989235401153564453125" lon="-70.8683252893388271331787109375">
        <ele>1132</ele>
        <time>2026-08-21T14:55:11.000Z</time>
        <extensions>
          <ns3:TrackPointExtension>
            <ns3:hr>120</ns3:hr>
            <ns3:cad>53</ns3:cad>
          </ns3:TrackPointExtension>
        </extensions>
      </trkpt>
      <trkpt lat="45.3001695312559604644775390625" lon="-70.868303664028644561767578125">
        <ele>1132.199951171875</ele>
        <time>2026-08-21T14:55:12.000Z</time>
        <extensions>
          <ns3:TrackPointExtension>
            <ns3:hr>119</ns3:hr>
            <ns3:cad>53</ns3:cad>
          </ns3:TrackPointExtension>
        </extensions>
      </trkpt>
      <trkpt lat="45.300162993371486663818359375" lon="-70.8682860620319843292236328125">
        <ele>1132.4000244140625</ele>
        <time>2026-08-21T14:55:13.000Z</time>
        <extensions>
          <ns3:TrackPointExtension>
            <ns3:hr>119</ns3:hr>
            <ns3:cad>53</ns3:cad>
          </ns3:TrackPointExtension>
        </extensions>
      </trkpt>
      <trkpt lat="45.30015301890671253204345703125" lon="-70.86826837621629238128662109375">
        <ele>1132.4000244140625</ele>
        <time>2026-08-21T14:55:14.000Z</time>
        <extensions>
          <ns3:TrackPointExtension>
            <ns3:hr>118</ns3:hr>
            <ns3:cad>53</ns3:cad>
          </ns3:TrackPointExtension>
        </extensions>
      </trkpt>
      <trkpt lat="45.3001432120800018310546875" lon="-70.86825706064701080322265625">
        <ele>1132.4000244140625</ele>
        <time>2026-08-21T14:55:15.000Z</time>
        <extensions>
          <ns3:TrackPointExtension>
            <ns3:hr>118</ns3:hr>
            <ns3:cad>53</ns3:cad>
          </ns3:TrackPointExtension>
        </extensions>
      </trkpt>
      <trkpt lat="45.3001323156058788299560546875" lon="-70.8682320825755596160888671875">
        <ele>1132.5999755859375</ele>
        <time>2026-08-21T14:55:16.000Z</time>
        <extensions>
          <ns3:TrackPointExtension>
            <ns3:hr>117</ns3:hr>
            <ns3:cad>71</ns3:cad>
          </ns3:TrackPointExtension>
        </extensions>
      </trkpt>
      <trkpt lat="45.300122760236263275146484375" lon="-70.868212468922138214111328125">
        <ele>1132.5999755859375</ele>
        <time>2026-08-21T14:55:17.000Z</time>
        <extensions>
          <ns3:TrackPointExtension>
            <ns3:hr>117</ns3:hr>
            <ns3:cad>71</ns3:cad>
          </ns3:TrackPointExtension>
        </extensions>
      </trkpt>
      <trkpt lat="45.30011236667633056640625" lon="-70.868195705115795135498046875">
        <ele>1132.5999755859375</ele>
        <time>2026-08-21T14:55:18.000Z</time>
        <extensions>
          <ns3:TrackPointExtension>
            <ns3:hr>117</ns3:hr>
            <ns3:cad>71</ns3:cad>
          </ns3:TrackPointExtension>
        </extensions>
      </trkpt>
      <trkpt lat="45.3001038171350955963134765625" lon="-70.86817835457623004913330078125">
        <ele>1132.5999755859375</ele>
        <time>2026-08-21T14:55:19.000Z</time>
        <extensions>
          <ns3:TrackPointExtension>
            <ns3:hr>117</ns3:hr>
            <ns3:cad>71</ns3:cad>
          </ns3:TrackPointExtension>
        </extensions>
      </trkpt>
      <trkpt lat="45.30009828507900238037109375" lon="-70.86815941147506237030029296875">
        <ele>1132.800048828125</ele>
        <time>2026-08-21T14:55:20.000Z</time>
        <extensions>
          <ns3:TrackPointExtension>
            <ns3:hr>117</ns3:hr>
            <ns3:cad>71</ns3:cad>
          </ns3:TrackPointExtension>
        </extensions>
      </trkpt>
      <trkpt lat="45.30009300448000431060791015625" lon="-70.868140049278736114501953125">
        <ele>1132.800048828125</ele>
        <time>2026-08-21T14:55:21.000Z</time>
        <extensions>
          <ns3:TrackPointExtension>
            <ns3:hr>116</ns3:hr>
            <ns3:cad>71</ns3:cad>
          </ns3:TrackPointExtension>
        </extensions>
      </trkpt>
      <trkpt lat="45.30009023845195770263671875" lon="-70.868122279644012451171875">
        <ele>1132.800048828125</ele>
        <time>2026-08-21T14:55:22.000Z</time>
        <extensions>
          <ns3:TrackPointExtension>
            <ns3:hr>116</ns3:hr>
            <ns3:cad>71</ns3:cad>
          </ns3:TrackPointExtension>
        </extensions>
      </trkpt>
      <trkpt lat="45.30008411966264247894287109375" lon="-70.86810358799993991851806640625">
        <ele>1132.800048828125</ele>
        <time>2026-08-21T14:55:23.000Z</time>
        <extensions>
          <ns3:TrackPointExtension>
            <ns3:hr>116</ns3:hr>
            <ns3:cad>0</ns3:cad>
          </ns3:TrackPointExtension>
        </extensions>
      </trkpt>
      <trkpt lat="45.30007657594978809356689453125" lon="-70.86808145977556705474853515625">
        <ele>1132.800048828125</ele>
        <time>2026-08-21T14:55:24.000Z</time>
        <extensions>
          <ns3:TrackPointExtension>
            <ns3:hr>115</ns3:hr>
            <ns3:cad>0</ns3:cad>
          </ns3:TrackPointExtension>
        </extensions>
      </trkpt>
      <trkpt lat="45.3000682778656482696533203125" lon="-70.868063271045684814453125">
        <ele>1132.800048828125</ele>
        <time>2026-08-21T14:55:25.000Z</time>
        <extensions>
          <ns3:TrackPointExtension>
            <ns3:hr>115</ns3:hr>
            <ns3:cad>0</ns3:cad>
          </ns3:TrackPointExtension>
        </extensions>
      </trkpt>
      <trkpt lat="45.30005872249603271484375" lon="-70.86803846061229705810546875">
        <ele>1132.800048828125</ele>
        <time>2026-08-21T14:55:26.000Z</time>
        <extensions>
          <ns3:TrackPointExtension>
            <ns3:hr>115</ns3:hr>
            <ns3:cad>55</ns3:cad>
          </ns3:TrackPointExtension>
        </extensions>
      </trkpt>
      <trkpt lat="45.3000484965741634368896484375" lon="-70.8680255524814128875732421875">
        <ele>1132.800048828125</ele>
        <time>2026-08-21T14:55:27.000Z</time>
        <extensions>
          <ns3:TrackPointExtension>
            <ns3:hr>115</ns3:hr>
            <ns3:cad>55</ns3:cad>
          </ns3:TrackPointExtension>
        </extensions>
      </trkpt>
      <trkpt lat="45.3000387735664844512939453125" lon="-70.868008621037006378173828125">
        <ele>1132.800048828125</ele>
        <time>2026-08-21T14:55:28.000Z</time>
        <extensions>
          <ns3:TrackPointExtension>
            <ns3:hr>114</ns3:hr>
            <ns3:cad>55</ns3:cad>
          </ns3:TrackPointExtension>
        </extensions>
      </trkpt>
      <trkpt lat="45.3000337444245815277099609375" lon="-70.86798959411680698394775390625">
        <ele>1132.800048828125</ele>
        <time>2026-08-21T14:55:29.000Z</time>
        <extensions>
          <ns3:TrackPointExtension>
            <ns3:hr>114</ns3:hr>
            <ns3:cad>55</ns3:cad>
          </ns3:TrackPointExtension>
        </extensions>
      </trkpt>
      <trkpt lat="45.30003248713910579681396484375" lon="-70.8679735846817493438720703125">
        <ele>1132.800048828125</ele>
        <time>2026-08-21T14:55:30.000Z</time>
        <extensions>
          <ns3:TrackPointExtension>
            <ns3:hr>114</ns3:hr>
            <ns3:cad>55</ns3:cad>
          </ns3:TrackPointExtension>
        </extensions>
      </trkpt>
      <trkpt lat="45.3000305593013763427734375" lon="-70.8679511211812496185302734375">
        <ele>1132.800048828125</ele>
        <time>2026-08-21T14:55:31.000Z</time>
        <extensions>
          <ns3:TrackPointExtension>
            <ns3:hr>114</ns3:hr>
            <ns3:cad>55</ns3:cad>
          </ns3:TrackPointExtension>
        </extensions>
      </trkpt>
      <trkpt lat="45.30003399588167667388916015625" lon="-70.86792580783367156982421875">
        <ele>1132.800048828125</ele>
        <time>2026-08-21T14:55:32.000Z</time>
        <extensions>
          <ns3:TrackPointExtension>
            <ns3:hr>114</ns3:hr>
            <ns3:cad>55</ns3:cad>
          </ns3:TrackPointExtension>
        </extensions>
      </trkpt>
      <trkpt lat="45.3000381030142307281494140625" lon="-70.86790460161864757537841796875">
        <ele>1132.800048828125</ele>
        <time>2026-08-21T14:55:33.000Z</time>
        <extensions>
          <ns3:TrackPointExtension>
            <ns3:hr>114</ns3:hr>
            <ns3:cad>55</ns3:cad>
          </ns3:TrackPointExtension>
        </extensions>
      </trkpt>
      <trkpt lat="45.300040952861309051513671875" lon="-70.86788264103233814239501953125">
        <ele>1132.5999755859375</ele>
        <time>2026-08-21T14:55:34.000Z</time>
        <extensions>
          <ns3:TrackPointExtension>
            <ns3:hr>114</ns3:hr>
            <ns3:cad>55</ns3:cad>
          </ns3:TrackPointExtension>
        </extensions>
      </trkpt>
      <trkpt lat="45.30004061758518218994140625" lon="-70.867860428988933563232421875">
        <ele>1132.5999755859375</ele>
        <time>2026-08-21T14:55:35.000Z</time>
        <extensions>
          <ns3:TrackPointExtension>
            <ns3:hr>114</ns3:hr>
            <ns3:cad>55</ns3:cad>
          </ns3:TrackPointExtension>
        </extensions>
      </trkpt>
      <trkpt lat="45.30004288069903850555419921875" lon="-70.86784475483000278472900390625">
        <ele>1132.5999755859375</ele>
        <time>2026-08-21T14:55:36.000Z</time>
        <extensions>
          <ns3:TrackPointExtension>
            <ns3:hr>114</ns3:hr>
            <ns3:cad>55</ns3:cad>
          </ns3:TrackPointExtension>
        </extensions>
      </trkpt>
      <trkpt lat="45.30004975385963916778564453125" lon="-70.86783050559461116790771484375">
        <ele>1132.5999755859375</ele>
        <time>2026-08-21T14:55:37.000Z</time>
        <extensions>
          <ns3:TrackPointExtension>
            <ns3:hr>114</ns3:hr>
            <ns3:cad>0</ns3:cad>
          </ns3:TrackPointExtension>
        </extensions>
      </trkpt>
      <trkpt lat="45.300061069428920745849609375" lon="-70.8678079582750797271728515625">
        <ele>1132.800048828125</ele>
        <time>2026-08-21T14:55:38.000Z</time>
        <extensions>
          <ns3:TrackPointExtension>
            <ns3:hr>113</ns3:hr>
            <ns3:cad>0</ns3:cad>
          </ns3:TrackPointExtension>
        </extensions>
      </trkpt>
      <trkpt lat="45.3000706247985363006591796875" lon="-70.8677975647151470184326171875">
        <ele>1132.800048828125</ele>
        <time>2026-08-21T14:55:39.000Z</time>
        <extensions>
          <ns3:TrackPointExtension>
            <ns3:hr>113</ns3:hr>
            <ns3:cad>0</ns3:cad>
          </ns3:TrackPointExtension>
        </extensions>
      </trkpt>
      <trkpt lat="45.3000679425895214080810546875" lon="-70.8677925355732440948486328125">
        <ele>1133</ele>
        <time>2026-08-21T14:55:40.000Z</time>
        <extensions>
          <ns3:TrackPointExtension>
            <ns3:hr>112</ns3:hr>
            <ns3:cad>0</ns3:cad>
          </ns3:TrackPointExtension>
        </extensions>
      </trkpt>
      <trkpt lat="45.30005981214344501495361328125" lon="-70.8677985705435276031494140625">
        <ele>1133</ele>
        <time>2026-08-21T14:55:41.000Z</time>
        <extensions>
          <ns3:TrackPointExtension>
            <ns3:hr>112</ns3:hr>
            <ns3:cad>0</ns3:cad>
          </ns3:TrackPointExtension>
        </extensions>
      </trkpt>
      <trkpt lat="45.30006836168467998504638671875" lon="-70.8677968941628932952880859375">
        <ele>1133.199951171875</ele>
        <time>2026-08-21T14:55:42.000Z</time>
        <extensions>
          <ns3:TrackPointExtension>
            <ns3:hr>112</ns3:hr>
            <ns3:cad>0</ns3:cad>
          </ns3:TrackPointExtension>
        </extensions>
      </trkpt>
      <trkpt lat="45.30007456429302692413330078125" lon="-70.8677871711552143096923828125">
        <ele>1133.199951171875</ele>
        <time>2026-08-21T14:55:43.000Z</time>
        <extensions>
          <ns3:TrackPointExtension>
            <ns3:hr>112</ns3:hr>
            <ns3:cad>0</ns3:cad>
          </ns3:TrackPointExtension>
        </extensions>
      </trkpt>
      <trkpt lat="45.3000820241868495941162109375" lon="-70.86777267046272754669189453125">
        <ele>1133.199951171875</ele>
        <time>2026-08-21T14:55:44.000Z</time>
        <extensions>
          <ns3:TrackPointExtension>
            <ns3:hr>113</ns3:hr>
            <ns3:cad>0</ns3:cad>
          </ns3:TrackPointExtension>
        </extensions>
      </trkpt>
      <trkpt lat="45.3000873886048793792724609375" lon="-70.867757499217987060546875">
        <ele>1133.4000244140625</ele>
        <time>2026-08-21T14:55:45.000Z</time>
        <extensions>
          <ns3:TrackPointExtension>
            <ns3:hr>113</ns3:hr>
            <ns3:cad>0</ns3:cad>
          </ns3:TrackPointExtension>
        </extensions>
      </trkpt>
      <trkpt lat="45.30009401030838489532470703125" lon="-70.8677459321916103363037109375">
        <ele>1133.4000244140625</ele>
        <time>2026-08-21T14:55:46.000Z</time>
        <extensions>
          <ns3:TrackPointExtension>
            <ns3:hr>113</ns3:hr>
            <ns3:cad>0</ns3:cad>
          </ns3:TrackPointExtension>
        </extensions>
      </trkpt>
      <trkpt lat="45.30010230839252471923828125" lon="-70.8677251450717449188232421875">
        <ele>1133.5999755859375</ele>
        <time>2026-08-21T14:55:47.000Z</time>
        <extensions>
          <ns3:TrackPointExtension>
            <ns3:hr>114</ns3:hr>
            <ns3:cad>0</ns3:cad>
          </ns3:TrackPointExtension>
        </extensions>
      </trkpt>
      <trkpt lat="45.3001056611537933349609375" lon="-70.8677010051906108856201171875">
        <ele>1133.5999755859375</ele>
        <time>2026-08-21T14:55:48.000Z</time>
        <extensions>
          <ns3:TrackPointExtension>
            <ns3:hr>114</ns3:hr>
            <ns3:cad>0</ns3:cad>
          </ns3:TrackPointExtension>
        </extensions>
      </trkpt>
      <trkpt lat="45.30010742135345935821533203125" lon="-70.86768097244203090667724609375">
        <ele>1133.5999755859375</ele>
        <time>2026-08-21T14:55:49.000Z</time>
        <extensions>
          <ns3:TrackPointExtension>
            <ns3:hr>114</ns3:hr>
            <ns3:cad>0</ns3:cad>
          </ns3:TrackPointExtension>
        </extensions>
      </trkpt>
      <trkpt lat="45.30010767281055450439453125" lon="-70.8676607720553874969482421875">
        <ele>1133.5999755859375</ele>
        <time>2026-08-21T14:55:50.000Z</time>
        <extensions>
          <ns3:TrackPointExtension>
            <ns3:hr>114</ns3:hr>
            <ns3:cad>48</ns3:cad>
          </ns3:TrackPointExtension>
        </extensions>
      </trkpt>
      <trkpt lat="45.30010909773409366607666015625" lon="-70.8676389791071414947509765625">
        <ele>1133.4000244140625</ele>
        <time>2026-08-21T14:55:51.000Z</time>
        <extensions>
          <ns3:TrackPointExtension>
            <ns3:hr>114</ns3:hr>
            <ns3:cad>48</ns3:cad>
          </ns3:TrackPointExtension>
        </extensions>
      </trkpt>
      <trkpt lat="45.30010993592441082000732421875" lon="-70.86762162856757640838623046875">
        <ele>1133.199951171875</ele>
        <time>2026-08-21T14:55:52.000Z</time>
        <extensions>
          <ns3:TrackPointExtension>
            <ns3:hr>114</ns3:hr>
            <ns3:cad>51</ns3:cad>
          </ns3:TrackPointExtension>
        </extensions>
      </trkpt>
      <trkpt lat="45.3001078404486179351806640625" lon="-70.86759899742901325225830078125">
        <ele>1133</ele>
        <time>2026-08-21T14:55:53.000Z</time>
        <extensions>
          <ns3:TrackPointExtension>
            <ns3:hr>114</ns3:hr>
            <ns3:cad>51</ns3:cad>
          </ns3:TrackPointExtension>
        </extensions>
      </trkpt>
      <trkpt lat="45.30010373331606388092041015625" lon="-70.8675844967365264892578125">
        <ele>1132.800048828125</ele>
        <time>2026-08-21T14:55:54.000Z</time>
        <extensions>
          <ns3:TrackPointExtension>
            <ns3:hr>115</ns3:hr>
            <ns3:cad>55</ns3:cad>
          </ns3:TrackPointExtension>
        </extensions>
      </trkpt>
      <trkpt lat="45.30009694397449493408203125" lon="-70.867562033236026763916015625">
        <ele>1132.5999755859375</ele>
        <time>2026-08-21T14:55:55.000Z</time>
        <extensions>
          <ns3:TrackPointExtension>
            <ns3:hr>115</ns3:hr>
            <ns3:cad>55</ns3:cad>
          </ns3:TrackPointExtension>
        </extensions>
      </trkpt>
      <trkpt lat="45.3000930882990360260009765625" lon="-70.86754024028778076171875">
        <ele>1132.4000244140625</ele>
        <time>2026-08-21T14:55:56.000Z</time>
        <extensions>
          <ns3:TrackPointExtension>
            <ns3:hr>115</ns3:hr>
            <ns3:cad>55</ns3:cad>
          </ns3:TrackPointExtension>
        </extensions>
      </trkpt>
      <trkpt lat="45.300088226795196533203125" lon="-70.867515765130519866943359375">
        <ele>1132</ele>
        <time>2026-08-21T14:55:57.000Z</time>
        <extensions>
          <ns3:TrackPointExtension>
            <ns3:hr>115</ns3:hr>
            <ns3:cad>64</ns3:cad>
          </ns3:TrackPointExtension>
        </extensions>
      </trkpt>
      <trkpt lat="45.30008344911038875579833984375" lon="-70.86749724112451076507568359375">
        <ele>1131.5999755859375</ele>
        <time>2026-08-21T14:55:58.000Z</time>
        <extensions>
          <ns3:TrackPointExtension>
            <ns3:hr>115</ns3:hr>
            <ns3:cad>64</ns3:cad>
          </ns3:TrackPointExtension>
        </extensions>
      </trkpt>
      <trkpt lat="45.300080515444278717041015625" lon="-70.86748114787042140960693359375">
        <ele>1131.4000244140625</ele>
        <time>2026-08-21T14:55:59.000Z</time>
        <extensions>
          <ns3:TrackPointExtension>
            <ns3:hr>115</ns3:hr>
            <ns3:cad>64</ns3:cad>
          </ns3:TrackPointExtension>
        </extensions>
      </trkpt>
      <trkpt lat="45.30007682740688323974609375" lon="-70.867466814815998077392578125">
        <ele>1131</ele>
        <time>2026-08-21T14:56:00.000Z</time>
        <extensions>
          <ns3:TrackPointExtension>
            <ns3:hr>114</ns3:hr>
            <ns3:cad>64</ns3:cad>
          </ns3:TrackPointExtension>
        </extensions>
      </trkpt>
      <trkpt lat="45.30007355846464633941650390625" lon="-70.867448039352893829345703125">
        <ele>1130.800048828125</ele>
        <time>2026-08-21T14:56:01.000Z</time>
        <extensions>
          <ns3:TrackPointExtension>
            <ns3:hr>115</ns3:hr>
            <ns3:cad>64</ns3:cad>
          </ns3:TrackPointExtension>
        </extensions>
      </trkpt>
      <trkpt lat="45.3000686131417751312255859375" lon="-70.86742616258561611175537109375">
        <ele>1130.5999755859375</ele>
        <time>2026-08-21T14:56:02.000Z</time>
        <extensions>
          <ns3:TrackPointExtension>
            <ns3:hr>115</ns3:hr>
            <ns3:cad>64</ns3:cad>
          </ns3:TrackPointExtension>
        </extensions>
      </trkpt>
      <trkpt lat="45.30006433837115764617919921875" lon="-70.86740571074187755584716796875">
        <ele>1130.4000244140625</ele>
        <time>2026-08-21T14:56:03.000Z</time>
        <extensions>
          <ns3:TrackPointExtension>
            <ns3:hr>115</ns3:hr>
            <ns3:cad>64</ns3:cad>
          </ns3:TrackPointExtension>
        </extensions>
      </trkpt>
      <trkpt lat="45.30006031505763530731201171875" lon="-70.867389030754566192626953125">
        <ele>1130.199951171875</ele>
        <time>2026-08-21T14:56:04.000Z</time>
        <extensions>
          <ns3:TrackPointExtension>
            <ns3:hr>114</ns3:hr>
            <ns3:cad>64</ns3:cad>
          </ns3:TrackPointExtension>
        </extensions>
      </trkpt>
      <trkpt lat="45.30004707165062427520751953125" lon="-70.86736916564404964447021484375">
        <ele>1130</ele>
        <time>2026-08-21T14:56:05.000Z</time>
        <extensions>
          <ns3:TrackPointExtension>
            <ns3:hr>115</ns3:hr>
            <ns3:cad>64</ns3:cad>
          </ns3:TrackPointExtension>
        </extensions>
      </trkpt>
      <trkpt lat="45.30003567226231098175048828125" lon="-70.8673591911792755126953125">
        <ele>1129.800048828125</ele>
        <time>2026-08-21T14:56:06.000Z</time>
        <extensions>
          <ns3:TrackPointExtension>
            <ns3:hr>115</ns3:hr>
            <ns3:cad>64</ns3:cad>
          </ns3:TrackPointExtension>
        </extensions>
      </trkpt>
      <trkpt lat="45.30002745799720287322998046875" lon="-70.8673519827425479888916015625">
        <ele>1129.800048828125</ele>
        <time>2026-08-21T14:56:07.000Z</time>
        <extensions>
          <ns3:TrackPointExtension>
            <ns3:hr>114</ns3:hr>
            <ns3:cad>64</ns3:cad>
          </ns3:TrackPointExtension>
        </extensions>
      </trkpt>
      <trkpt lat="45.30002024956047534942626953125" lon="-70.86734184063971042633056640625">
        <ele>1129.5999755859375</ele>
        <time>2026-08-21T14:56:08.000Z</time>
        <extensions>
          <ns3:TrackPointExtension>
            <ns3:hr>115</ns3:hr>
            <ns3:cad>64</ns3:cad>
          </ns3:TrackPointExtension>
        </extensions>
      </trkpt>
      <trkpt lat="45.3000146336853504180908203125" lon="-70.86733303964138031005859375">
        <ele>1129.4000244140625</ele>
        <time>2026-08-21T14:56:09.000Z</time>
        <extensions>
          <ns3:TrackPointExtension>
            <ns3:hr>115</ns3:hr>
            <ns3:cad>64</ns3:cad>
          </ns3:TrackPointExtension>
        </extensions>
      </trkpt>
      <trkpt lat="45.300006754696369171142578125" lon="-70.86731803603470325469970703125">
        <ele>1129.199951171875</ele>
        <time>2026-08-21T14:56:10.000Z</time>
        <extensions>
          <ns3:TrackPointExtension>
            <ns3:hr>114</ns3:hr>
            <ns3:cad>64</ns3:cad>
          </ns3:TrackPointExtension>
        </extensions>
      </trkpt>
      <trkpt lat="45.30000214464962482452392578125" lon="-70.86730294860899448394775390625">
        <ele>1129.199951171875</ele>
        <time>2026-08-21T14:56:11.000Z</time>
        <extensions>
          <ns3:TrackPointExtension>
            <ns3:hr>114</ns3:hr>
            <ns3:cad>64</ns3:cad>
          </ns3:TrackPointExtension>
        </extensions>
      </trkpt>
      <trkpt lat="45.29999443329870700836181640625" lon="-70.8672825805842876434326171875">
        <ele>1129</ele>
        <time>2026-08-21T14:56:12.000Z</time>
        <extensions>
          <ns3:TrackPointExtension>
            <ns3:hr>114</ns3:hr>
            <ns3:cad>63</ns3:cad>
          </ns3:TrackPointExtension>
        </extensions>
      </trkpt>
      <trkpt lat="45.29998705722391605377197265625" lon="-70.867260284721851348876953125">
        <ele>1128.800048828125</ele>
        <time>2026-08-21T14:56:13.000Z</time>
        <extensions>
          <ns3:TrackPointExtension>
            <ns3:hr>114</ns3:hr>
            <ns3:cad>63</ns3:cad>
          </ns3:TrackPointExtension>
        </extensions>
      </trkpt>
      <trkpt lat="45.2999871410429477691650390625" lon="-70.86724192835390567779541015625">
        <ele>1128.4000244140625</ele>
        <time>2026-08-21T14:56:14.000Z</time>
        <extensions>
          <ns3:TrackPointExtension>
            <ns3:hr>114</ns3:hr>
            <ns3:cad>63</ns3:cad>
          </ns3:TrackPointExtension>
        </extensions>
      </trkpt>
      <trkpt lat="45.2999824471771717071533203125" lon="-70.867220722138881683349609375">
        <ele>1128.199951171875</ele>
        <time>2026-08-21T14:56:15.000Z</time>
        <extensions>
          <ns3:TrackPointExtension>
            <ns3:hr>113</ns3:hr>
            <ns3:cad>63</ns3:cad>
          </ns3:TrackPointExtension>
        </extensions>
      </trkpt>
      <trkpt lat="45.299976579844951629638671875" lon="-70.867200605571269989013671875">
        <ele>1128</ele>
        <time>2026-08-21T14:56:16.000Z</time>
        <extensions>
          <ns3:TrackPointExtension>
            <ns3:hr>112</ns3:hr>
            <ns3:cad>75</ns3:cad>
          </ns3:TrackPointExtension>
        </extensions>
      </trkpt>
      <trkpt lat="45.2999760769307613372802734375" lon="-70.86718878708779811859130859375">
        <ele>1127.800048828125</ele>
        <time>2026-08-21T14:56:17.000Z</time>
        <extensions>
          <ns3:TrackPointExtension>
            <ns3:hr>112</ns3:hr>
            <ns3:cad>75</ns3:cad>
          </ns3:TrackPointExtension>
        </extensions>
      </trkpt>
      <trkpt lat="45.299973897635936737060546875" lon="-70.86717135272920131683349609375">
        <ele>1127.5999755859375</ele>
        <time>2026-08-21T14:56:18.000Z</time>
        <extensions>
          <ns3:TrackPointExtension>
            <ns3:hr>112</ns3:hr>
            <ns3:cad>75</ns3:cad>
          </ns3:TrackPointExtension>
        </extensions>
      </trkpt>
      <trkpt lat="45.29997347854077816009521484375" lon="-70.86714905686676502227783203125">
        <ele>1127.4000244140625</ele>
        <time>2026-08-21T14:56:19.000Z</time>
        <extensions>
          <ns3:TrackPointExtension>
            <ns3:hr>112</ns3:hr>
            <ns3:cad>75</ns3:cad>
          </ns3:TrackPointExtension>
        </extensions>
      </trkpt>
      <trkpt lat="45.29997046105563640594482421875" lon="-70.86711452342569828033447265625">
        <ele>1127.199951171875</ele>
        <time>2026-08-21T14:56:20.000Z</time>
        <extensions>
          <ns3:TrackPointExtension>
            <ns3:hr>113</ns3:hr>
            <ns3:cad>75</ns3:cad>
          </ns3:TrackPointExtension>
        </extensions>
      </trkpt>
      <trkpt lat="45.2999646775424480438232421875" lon="-70.86708954535424709320068359375">
        <ele>1127</ele>
        <time>2026-08-21T14:56:21.000Z</time>
        <extensions>
          <ns3:TrackPointExtension>
            <ns3:hr>113</ns3:hr>
            <ns3:cad>75</ns3:cad>
          </ns3:TrackPointExtension>
        </extensions>
      </trkpt>
      <trkpt lat="45.29995973221957683563232421875" lon="-70.86707018315792083740234375">
        <ele>1126.800048828125</ele>
        <time>2026-08-21T14:56:22.000Z</time>
        <extensions>
          <ns3:TrackPointExtension>
            <ns3:hr>113</ns3:hr>
            <ns3:cad>75</ns3:cad>
          </ns3:TrackPointExtension>
        </extensions>
      </trkpt>
      <trkpt lat="45.29995872639119625091552734375" lon="-70.86705618537962436676025390625">
        <ele>1126.4000244140625</ele>
        <time>2026-08-21T14:56:23.000Z</time>
        <extensions>
          <ns3:TrackPointExtension>
            <ns3:hr>112</ns3:hr>
            <ns3:cad>75</ns3:cad>
          </ns3:TrackPointExtension>
        </extensions>
      </trkpt>
      <trkpt lat="45.29995554126799106597900390625" lon="-70.86703129112720489501953125">
        <ele>1126.199951171875</ele>
        <time>2026-08-21T14:56:24.000Z</time>
        <extensions>
          <ns3:TrackPointExtension>
            <ns3:hr>112</ns3:hr>
            <ns3:cad>75</ns3:cad>
          </ns3:TrackPointExtension>
        </extensions>
      </trkpt>
      <trkpt lat="45.2999554574489593505859375" lon="-70.8670076541602611541748046875">
        <ele>1125.800048828125</ele>
        <time>2026-08-21T14:56:25.000Z</time>
        <extensions>
          <ns3:TrackPointExtension>
            <ns3:hr>112</ns3:hr>
            <ns3:cad>75</ns3:cad>
          </ns3:TrackPointExtension>
        </extensions>
      </trkpt>
      <trkpt lat="45.29995420016348361968994140625" lon="-70.8669872023165225982666015625">
        <ele>1125.5999755859375</ele>
        <time>2026-08-21T14:56:26.000Z</time>
        <extensions>
          <ns3:TrackPointExtension>
            <ns3:hr>111</ns3:hr>
            <ns3:cad>75</ns3:cad>
          </ns3:TrackPointExtension>
        </extensions>
      </trkpt>
      <trkpt lat="45.2999516017735004425048828125" lon="-70.86696901358664035797119140625">
        <ele>1125.4000244140625</ele>
        <time>2026-08-21T14:56:27.000Z</time>
        <extensions>
          <ns3:TrackPointExtension>
            <ns3:hr>112</ns3:hr>
            <ns3:cad>75</ns3:cad>
          </ns3:TrackPointExtension>
        </extensions>
      </trkpt>
      <trkpt lat="45.29994883574545383453369140625" lon="-70.86695484817028045654296875">
        <ele>1125</ele>
        <time>2026-08-21T14:56:28.000Z</time>
        <extensions>
          <ns3:TrackPointExtension>
            <ns3:hr>112</ns3:hr>
            <ns3:cad>75</ns3:cad>
          </ns3:TrackPointExtension>
        </extensions>
      </trkpt>
      <trkpt lat="45.29995202086865901947021484375" lon="-70.866936407983303070068359375">
        <ele>1124.5999755859375</ele>
        <time>2026-08-21T14:56:29.000Z</time>
        <extensions>
          <ns3:TrackPointExtension>
            <ns3:hr>112</ns3:hr>
            <ns3:cad>75</ns3:cad>
          </ns3:TrackPointExtension>
        </extensions>
      </trkpt>
      <trkpt lat="45.29995135031640529632568359375" lon="-70.8669147826731204986572265625">
        <ele>1124.199951171875</ele>
        <time>2026-08-21T14:56:30.000Z</time>
        <extensions>
          <ns3:TrackPointExtension>
            <ns3:hr>112</ns3:hr>
            <ns3:cad>75</ns3:cad>
          </ns3:TrackPointExtension>
        </extensions>
      </trkpt>
      <trkpt lat="45.2999472431838512420654296875" lon="-70.86689994670450687408447265625">
        <ele>1124</ele>
        <time>2026-08-21T14:56:31.000Z</time>
        <extensions>
          <ns3:TrackPointExtension>
            <ns3:hr>112</ns3:hr>
            <ns3:cad>75</ns3:cad>
          </ns3:TrackPointExtension>
        </extensions>
      </trkpt>
      <trkpt lat="45.29994498006999492645263671875" lon="-70.86688519455492496490478515625">
        <ele>1123.800048828125</ele>
        <time>2026-08-21T14:56:32.000Z</time>
        <extensions>
          <ns3:TrackPointExtension>
            <ns3:hr>111</ns3:hr>
            <ns3:cad>75</ns3:cad>
          </ns3:TrackPointExtension>
        </extensions>
      </trkpt>
      <trkpt lat="45.29994405806064605712890625" lon="-70.86686633527278900146484375">
        <ele>1123.4000244140625</ele>
        <time>2026-08-21T14:56:33.000Z</time>
        <extensions>
          <ns3:TrackPointExtension>
            <ns3:hr>112</ns3:hr>
            <ns3:cad>75</ns3:cad>
          </ns3:TrackPointExtension>
        </extensions>
      </trkpt>
      <trkpt lat="45.29995076358318328857421875" lon="-70.8668482303619384765625">
        <ele>1123.199951171875</ele>
        <time>2026-08-21T14:56:34.000Z</time>
        <extensions>
          <ns3:TrackPointExtension>
            <ns3:hr>112</ns3:hr>
            <ns3:cad>75</ns3:cad>
          </ns3:TrackPointExtension>
        </extensions>
      </trkpt>
      <trkpt lat="45.299959816038608551025390625" lon="-70.86682937107980251312255859375">
        <ele>1123</ele>
        <time>2026-08-21T14:56:35.000Z</time>
        <extensions>
          <ns3:TrackPointExtension>
            <ns3:hr>112</ns3:hr>
            <ns3:cad>0</ns3:cad>
          </ns3:TrackPointExtension>
        </extensions>
      </trkpt>
      <trkpt lat="45.2999630011618137359619140625" lon="-70.86681160144507884979248046875">
        <ele>1122.5999755859375</ele>
        <time>2026-08-21T14:56:36.000Z</time>
        <extensions>
          <ns3:TrackPointExtension>
            <ns3:hr>113</ns3:hr>
            <ns3:cad>0</ns3:cad>
          </ns3:TrackPointExtension>
        </extensions>
      </trkpt>
      <trkpt lat="45.29996559955179691314697265625" lon="-70.86678377352654933929443359375">
        <ele>1122.199951171875</ele>
        <time>2026-08-21T14:56:37.000Z</time>
        <extensions>
          <ns3:TrackPointExtension>
            <ns3:hr>113</ns3:hr>
            <ns3:cad>0</ns3:cad>
          </ns3:TrackPointExtension>
        </extensions>
      </trkpt>
      <trkpt lat="45.29996425844728946685791015625" lon="-70.8667642436921596527099609375">
        <ele>1122</ele>
        <time>2026-08-21T14:56:38.000Z</time>
        <extensions>
          <ns3:TrackPointExtension>
            <ns3:hr>114</ns3:hr>
            <ns3:cad>0</ns3:cad>
          </ns3:TrackPointExtension>
        </extensions>
      </trkpt>
      <trkpt lat="45.29996459372341632843017578125" lon="-70.86674571968615055084228515625">
        <ele>1121.5999755859375</ele>
        <time>2026-08-21T14:56:39.000Z</time>
        <extensions>
          <ns3:TrackPointExtension>
            <ns3:hr>114</ns3:hr>
            <ns3:cad>0</ns3:cad>
          </ns3:TrackPointExtension>
        </extensions>
      </trkpt>
      <trkpt lat="45.29996258206665515899658203125" lon="-70.86672711186110973358154296875">
        <ele>1121.199951171875</ele>
        <time>2026-08-21T14:56:40.000Z</time>
        <extensions>
          <ns3:TrackPointExtension>
            <ns3:hr>114</ns3:hr>
            <ns3:cad>65</ns3:cad>
          </ns3:TrackPointExtension>
        </extensions>
      </trkpt>
      <trkpt lat="45.2999636717140674591064453125" lon="-70.86671252734959125518798828125">
        <ele>1120.800048828125</ele>
        <time>2026-08-21T14:56:41.000Z</time>
        <extensions>
          <ns3:TrackPointExtension>
            <ns3:hr>114</ns3:hr>
            <ns3:cad>65</ns3:cad>
          </ns3:TrackPointExtension>
        </extensions>
      </trkpt>
      <trkpt lat="45.2999683655798435211181640625" lon="-70.866681598126888275146484375">
        <ele>1120.5999755859375</ele>
        <time>2026-08-21T14:56:42.000Z</time>
        <extensions>
          <ns3:TrackPointExtension>
            <ns3:hr>114</ns3:hr>
            <ns3:cad>65</ns3:cad>
          </ns3:TrackPointExtension>
        </extensions>
      </trkpt>
      <trkpt lat="45.29996694065630435943603515625" lon="-70.86666382849216461181640625">
        <ele>1120.199951171875</ele>
        <time>2026-08-21T14:56:43.000Z</time>
        <extensions>
          <ns3:TrackPointExtension>
            <ns3:hr>114</ns3:hr>
            <ns3:cad>65</ns3:cad>
          </ns3:TrackPointExtension>
        </extensions>
      </trkpt>
      <trkpt lat="45.299965180456638336181640625" lon="-70.86665117181837558746337890625">
        <ele>1119.5999755859375</ele>
        <time>2026-08-21T14:56:44.000Z</time>
        <extensions>
          <ns3:TrackPointExtension>
            <ns3:hr>114</ns3:hr>
            <ns3:cad>65</ns3:cad>
          </ns3:TrackPointExtension>
        </extensions>
      </trkpt>
      <trkpt lat="45.29996274970471858978271484375" lon="-70.8666336536407470703125">
        <ele>1119.199951171875</ele>
        <time>2026-08-21T14:56:45.000Z</time>
        <extensions>
          <ns3:TrackPointExtension>
            <ns3:hr>114</ns3:hr>
            <ns3:cad>64</ns3:cad>
          </ns3:TrackPointExtension>
        </extensions>
      </trkpt>
      <trkpt lat="45.29996124096214771270751953125" lon="-70.8666163869202136993408203125">
        <ele>1119</ele>
        <time>2026-08-21T14:56:46.000Z</time>
        <extensions>
          <ns3:TrackPointExtension>
            <ns3:hr>114</ns3:hr>
            <ns3:cad>64</ns3:cad>
          </ns3:TrackPointExtension>
        </extensions>
      </trkpt>
      <trkpt lat="45.29996057040989398956298828125" lon="-70.86660238914191722869873046875">
        <ele>1118.5999755859375</ele>
        <time>2026-08-21T14:56:47.000Z</time>
        <extensions>
          <ns3:TrackPointExtension>
            <ns3:hr>114</ns3:hr>
            <ns3:cad>64</ns3:cad>
          </ns3:TrackPointExtension>
        </extensions>
      </trkpt>
      <trkpt lat="45.29995554126799106597900390625" lon="-70.86658428423106670379638671875">
        <ele>1118.4000244140625</ele>
        <time>2026-08-21T14:56:48.000Z</time>
        <extensions>
          <ns3:TrackPointExtension>
            <ns3:hr>113</ns3:hr>
            <ns3:cad>64</ns3:cad>
          </ns3:TrackPointExtension>
        </extensions>
      </trkpt>
      <trkpt lat="45.2999489195644855499267578125" lon="-70.866565592586994171142578125">
        <ele>1118.199951171875</ele>
        <time>2026-08-21T14:56:49.000Z</time>
        <extensions>
          <ns3:TrackPointExtension>
            <ns3:hr>112</ns3:hr>
            <ns3:cad>64</ns3:cad>
          </ns3:TrackPointExtension>
        </extensions>
      </trkpt>
      <trkpt lat="45.29994665645062923431396484375" lon="-70.866547487676143646240234375">
        <ele>1117.800048828125</ele>
        <time>2026-08-21T14:56:50.000Z</time>
        <extensions>
          <ns3:TrackPointExtension>
            <ns3:hr>112</ns3:hr>
            <ns3:cad>64</ns3:cad>
          </ns3:TrackPointExtension>
        </extensions>
      </trkpt>
      <trkpt lat="45.29994397424161434173583984375" lon="-70.86652913130819797515869140625">
        <ele>1117.5999755859375</ele>
        <time>2026-08-21T14:56:51.000Z</time>
        <extensions>
          <ns3:TrackPointExtension>
            <ns3:hr>112</ns3:hr>
            <ns3:cad>64</ns3:cad>
          </ns3:TrackPointExtension>
        </extensions>
      </trkpt>
      <trkpt lat="45.2999420464038848876953125" lon="-70.86650616489350795745849609375">
        <ele>1117.199951171875</ele>
        <time>2026-08-21T14:56:52.000Z</time>
        <extensions>
          <ns3:TrackPointExtension>
            <ns3:hr>113</ns3:hr>
            <ns3:cad>64</ns3:cad>
          </ns3:TrackPointExtension>
        </extensions>
      </trkpt>
      <trkpt lat="45.29994003474712371826171875" lon="-70.86649392731487751007080078125">
        <ele>1117</ele>
        <time>2026-08-21T14:56:53.000Z</time>
        <extensions>
          <ns3:TrackPointExtension>
            <ns3:hr>113</ns3:hr>
            <ns3:cad>64</ns3:cad>
          </ns3:TrackPointExtension>
        </extensions>
      </trkpt>
      <trkpt lat="45.299939028918743133544921875" lon="-70.86647766642272472381591796875">
        <ele>1116.800048828125</ele>
        <time>2026-08-21T14:56:54.000Z</time>
        <extensions>
          <ns3:TrackPointExtension>
            <ns3:hr>113</ns3:hr>
            <ns3:cad>64</ns3:cad>
          </ns3:TrackPointExtension>
        </extensions>
      </trkpt>
      <trkpt lat="45.299939699470996856689453125" lon="-70.86644732393324375152587890625">
        <ele>1116.5999755859375</ele>
        <time>2026-08-21T14:56:55.000Z</time>
        <extensions>
          <ns3:TrackPointExtension>
            <ns3:hr>114</ns3:hr>
            <ns3:cad>64</ns3:cad>
          </ns3:TrackPointExtension>
        </extensions>
      </trkpt>
      <trkpt lat="45.29994145967066287994384765625" lon="-70.86642184294760227203369140625">
        <ele>1116.5999755859375</ele>
        <time>2026-08-21T14:56:56.000Z</time>
        <extensions>
          <ns3:TrackPointExtension>
            <ns3:hr>114</ns3:hr>
            <ns3:cad>64</ns3:cad>
          </ns3:TrackPointExtension>
        </extensions>
      </trkpt>
      <trkpt lat="45.2999462373554706573486328125" lon="-70.866395272314548492431640625">
        <ele>1116.4000244140625</ele>
        <time>2026-08-21T14:56:57.000Z</time>
        <extensions>
          <ns3:TrackPointExtension>
            <ns3:hr>114</ns3:hr>
            <ns3:cad>64</ns3:cad>
          </ns3:TrackPointExtension>
        </extensions>
      </trkpt>
      <trkpt lat="45.29994833283126354217529296875" lon="-70.8663801848888397216796875">
        <ele>1116.199951171875</ele>
        <time>2026-08-21T14:56:58.000Z</time>
        <extensions>
          <ns3:TrackPointExtension>
            <ns3:hr>113</ns3:hr>
            <ns3:cad>62</ns3:cad>
          </ns3:TrackPointExtension>
        </extensions>
      </trkpt>
      <trkpt lat="45.29994799755513668060302734375" lon="-70.8663676120340824127197265625">
        <ele>1115.800048828125</ele>
        <time>2026-08-21T14:56:59.000Z</time>
        <extensions>
          <ns3:TrackPointExtension>
            <ns3:hr>114</ns3:hr>
            <ns3:cad>62</ns3:cad>
          </ns3:TrackPointExtension>
        </extensions>
      </trkpt>
      <trkpt lat="45.299949087202548980712890625" lon="-70.8663562126457691192626953125">
        <ele>1115.5999755859375</ele>
        <time>2026-08-21T14:57:00.000Z</time>
        <extensions>
          <ns3:TrackPointExtension>
            <ns3:hr>114</ns3:hr>
            <ns3:cad>62</ns3:cad>
          </ns3:TrackPointExtension>
        </extensions>
      </trkpt>
      <trkpt lat="45.29994942247867584228515625" lon="-70.8663444779813289642333984375">
        <ele>1115.199951171875</ele>
        <time>2026-08-21T14:57:01.000Z</time>
        <extensions>
          <ns3:TrackPointExtension>
            <ns3:hr>114</ns3:hr>
            <ns3:cad>62</ns3:cad>
          </ns3:TrackPointExtension>
        </extensions>
      </trkpt>
      <trkpt lat="45.29994397424161434173583984375" lon="-70.86632763035595417022705078125">
        <ele>1115</ele>
        <time>2026-08-21T14:57:02.000Z</time>
        <extensions>
          <ns3:TrackPointExtension>
            <ns3:hr>114</ns3:hr>
            <ns3:cad>62</ns3:cad>
          </ns3:TrackPointExtension>
        </extensions>
      </trkpt>
      <trkpt lat="45.29994078911840915679931640625" lon="-70.86630248464643955230712890625">
        <ele>1114.800048828125</ele>
        <time>2026-08-21T14:57:03.000Z</time>
        <extensions>
          <ns3:TrackPointExtension>
            <ns3:hr>115</ns3:hr>
            <ns3:cad>62</ns3:cad>
          </ns3:TrackPointExtension>
        </extensions>
      </trkpt>
      <trkpt lat="45.29993928037583827972412109375" lon="-70.86628756485879421234130859375">
        <ele>1114.4000244140625</ele>
        <time>2026-08-21T14:57:04.000Z</time>
        <extensions>
          <ns3:TrackPointExtension>
            <ns3:hr>115</ns3:hr>
            <ns3:cad>62</ns3:cad>
          </ns3:TrackPointExtension>
        </extensions>
      </trkpt>
      <trkpt lat="45.2999351732432842254638671875" lon="-70.8662675321102142333984375">
        <ele>1114.199951171875</ele>
        <time>2026-08-21T14:57:05.000Z</time>
        <extensions>
          <ns3:TrackPointExtension>
            <ns3:hr>116</ns3:hr>
            <ns3:cad>62</ns3:cad>
          </ns3:TrackPointExtension>
        </extensions>
      </trkpt>
      <trkpt lat="45.29992938973009586334228515625" lon="-70.866248421370983123779296875">
        <ele>1114</ele>
        <time>2026-08-21T14:57:06.000Z</time>
        <extensions>
          <ns3:TrackPointExtension>
            <ns3:hr>117</ns3:hr>
            <ns3:cad>62</ns3:cad>
          </ns3:TrackPointExtension>
        </extensions>
      </trkpt>
      <trkpt lat="45.29992452822625637054443359375" lon="-70.86622805334627628326416015625">
        <ele>1113.5999755859375</ele>
        <time>2026-08-21T14:57:07.000Z</time>
        <extensions>
          <ns3:TrackPointExtension>
            <ns3:hr>118</ns3:hr>
            <ns3:cad>62</ns3:cad>
          </ns3:TrackPointExtension>
        </extensions>
      </trkpt>
      <trkpt lat="45.29991782270371913909912109375" lon="-70.86620248854160308837890625">
        <ele>1113.199951171875</ele>
        <time>2026-08-21T14:57:08.000Z</time>
        <extensions>
          <ns3:TrackPointExtension>
            <ns3:hr>120</ns3:hr>
            <ns3:cad>62</ns3:cad>
          </ns3:TrackPointExtension>
        </extensions>
      </trkpt>
      <trkpt lat="45.29990994371473789215087890625" lon="-70.8661855570971965789794921875">
        <ele>1112.800048828125</ele>
        <time>2026-08-21T14:57:09.000Z</time>
        <extensions>
          <ns3:TrackPointExtension>
            <ns3:hr>121</ns3:hr>
            <ns3:cad>62</ns3:cad>
          </ns3:TrackPointExtension>
        </extensions>
      </trkpt>
      <trkpt lat="45.29990172944962978363037109375" lon="-70.86617591790854930877685546875">
        <ele>1112.5999755859375</ele>
        <time>2026-08-21T14:57:10.000Z</time>
        <extensions>
          <ns3:TrackPointExtension>
            <ns3:hr>122</ns3:hr>
            <ns3:cad>46</ns3:cad>
          </ns3:TrackPointExtension>
        </extensions>
      </trkpt>
      <trkpt lat="45.29989443719387054443359375" lon="-70.8661644347012042999267578125">
        <ele>1112.199951171875</ele>
        <time>2026-08-21T14:57:11.000Z</time>
        <extensions>
          <ns3:TrackPointExtension>
            <ns3:hr>122</ns3:hr>
            <ns3:cad>46</ns3:cad>
          </ns3:TrackPointExtension>
        </extensions>
      </trkpt>
      <trkpt lat="45.29988236725330352783203125" lon="-70.86614884436130523681640625">
        <ele>1112</ele>
        <time>2026-08-21T14:57:12.000Z</time>
        <extensions>
          <ns3:TrackPointExtension>
            <ns3:hr>124</ns3:hr>
            <ns3:cad>46</ns3:cad>
          </ns3:TrackPointExtension>
        </extensions>
      </trkpt>
      <trkpt lat="45.29987021349370479583740234375" lon="-70.866130404174327850341796875">
        <ele>1111.800048828125</ele>
        <time>2026-08-21T14:57:13.000Z</time>
        <extensions>
          <ns3:TrackPointExtension>
            <ns3:hr>125</ns3:hr>
            <ns3:cad>46</ns3:cad>
          </ns3:TrackPointExtension>
        </extensions>
      </trkpt>
      <trkpt lat="45.2998535335063934326171875" lon="-70.86611799895763397216796875">
        <ele>1111.4000244140625</ele>
        <time>2026-08-21T14:57:14.000Z</time>
        <extensions>
          <ns3:TrackPointExtension>
            <ns3:hr>126</ns3:hr>
            <ns3:cad>0</ns3:cad>
          </ns3:TrackPointExtension>
        </extensions>
      </trkpt>
      <trkpt lat="45.29983433894813060760498046875" lon="-70.8661077730357646942138671875">
        <ele>1111.199951171875</ele>
        <time>2026-08-21T14:57:15.000Z</time>
        <extensions>
          <ns3:TrackPointExtension>
            <ns3:hr>126</ns3:hr>
            <ns3:cad>68</ns3:cad>
          </ns3:TrackPointExtension>
        </extensions>
      </trkpt>
      <trkpt lat="45.29981799423694610595703125" lon="-70.86609729565680027008056640625">
        <ele>1110.800048828125</ele>
        <time>2026-08-21T14:57:16.000Z</time>
        <extensions>
          <ns3:TrackPointExtension>
            <ns3:hr>126</ns3:hr>
            <ns3:cad>68</ns3:cad>
          </ns3:TrackPointExtension>
        </extensions>
      </trkpt>
      <trkpt lat="45.29979393817484378814697265625" lon="-70.866095535457134246826171875">
        <ele>1110.4000244140625</ele>
        <time>2026-08-21T14:57:17.000Z</time>
        <extensions>
          <ns3:TrackPointExtension>
            <ns3:hr>125</ns3:hr>
            <ns3:cad>69</ns3:cad>
          </ns3:TrackPointExtension>
        </extensions>
      </trkpt>
      <trkpt lat="45.29977197758853435516357421875" lon="-70.86610048078000545501708984375">
        <ele>1110.199951171875</ele>
        <time>2026-08-21T14:57:18.000Z</time>
        <extensions>
          <ns3:TrackPointExtension>
            <ns3:hr>126</ns3:hr>
            <ns3:cad>69</ns3:cad>
          </ns3:TrackPointExtension>
        </extensions>
      </trkpt>
      <trkpt lat="45.29974582605063915252685546875" lon="-70.86610383354127407073974609375">
        <ele>1110</ele>
        <time>2026-08-21T14:57:19.000Z</time>
        <extensions>
          <ns3:TrackPointExtension>
            <ns3:hr>126</ns3:hr>
            <ns3:cad>69</ns3:cad>
          </ns3:TrackPointExtension>
        </extensions>
      </trkpt>
      <trkpt lat="45.2997309900820255279541015625" lon="-70.8661097846925258636474609375">
        <ele>1109.800048828125</ele>
        <time>2026-08-21T14:57:20.000Z</time>
        <extensions>
          <ns3:TrackPointExtension>
            <ns3:hr>125</ns3:hr>
            <ns3:cad>69</ns3:cad>
          </ns3:TrackPointExtension>
        </extensions>
      </trkpt>
      <trkpt lat="45.299715735018253326416015625" lon="-70.8661151491105556488037109375">
        <ele>1109.800048828125</ele>
        <time>2026-08-21T14:57:21.000Z</time>
        <extensions>
          <ns3:TrackPointExtension>
            <ns3:hr>126</ns3:hr>
            <ns3:cad>69</ns3:cad>
          </ns3:TrackPointExtension>
        </extensions>
      </trkpt>
      <trkpt lat="45.29970123432576656341552734375" lon="-70.86612629704177379608154296875">
        <ele>1109.5999755859375</ele>
        <time>2026-08-21T14:57:22.000Z</time>
        <extensions>
          <ns3:TrackPointExtension>
            <ns3:hr>126</ns3:hr>
            <ns3:cad>69</ns3:cad>
          </ns3:TrackPointExtension>
        </extensions>
      </trkpt>
      <trkpt lat="45.29968312941491603851318359375" lon="-70.86613786406815052032470703125">
        <ele>1109.4000244140625</ele>
        <time>2026-08-21T14:57:23.000Z</time>
        <extensions>
          <ns3:TrackPointExtension>
            <ns3:hr>126</ns3:hr>
            <ns3:cad>69</ns3:cad>
          </ns3:TrackPointExtension>
        </extensions>
      </trkpt>
      <trkpt lat="45.29966837726533412933349609375" lon="-70.866147167980670928955078125">
        <ele>1109.199951171875</ele>
        <time>2026-08-21T14:57:24.000Z</time>
        <extensions>
          <ns3:TrackPointExtension>
            <ns3:hr>125</ns3:hr>
            <ns3:cad>69</ns3:cad>
          </ns3:TrackPointExtension>
        </extensions>
      </trkpt>
      <trkpt lat="45.29965261928737163543701171875" lon="-70.86615563370287418365478515625">
        <ele>1109.199951171875</ele>
        <time>2026-08-21T14:57:25.000Z</time>
        <extensions>
          <ns3:TrackPointExtension>
            <ns3:hr>126</ns3:hr>
            <ns3:cad>69</ns3:cad>
          </ns3:TrackPointExtension>
        </extensions>
      </trkpt>
      <trkpt lat="45.2996418066322803497314453125" lon="-70.8661620877683162689208984375">
        <ele>1109</ele>
        <time>2026-08-21T14:57:26.000Z</time>
        <extensions>
          <ns3:TrackPointExtension>
            <ns3:hr>126</ns3:hr>
            <ns3:cad>69</ns3:cad>
          </ns3:TrackPointExtension>
        </extensions>
      </trkpt>
      <trkpt lat="45.2996226958930492401123046875" lon="-70.8661691285669803619384765625">
        <ele>1108.800048828125</ele>
        <time>2026-08-21T14:57:27.000Z</time>
        <extensions>
          <ns3:TrackPointExtension>
            <ns3:hr>125</ns3:hr>
            <ns3:cad>61</ns3:cad>
          </ns3:TrackPointExtension>
        </extensions>
      </trkpt>
      <trkpt lat="45.29961003921926021575927734375" lon="-70.86617968976497650146484375">
        <ele>1108.5999755859375</ele>
        <time>2026-08-21T14:57:28.000Z</time>
        <extensions>
          <ns3:TrackPointExtension>
            <ns3:hr>126</ns3:hr>
            <ns3:cad>61</ns3:cad>
          </ns3:TrackPointExtension>
        </extensions>
      </trkpt>
      <trkpt lat="45.2995988912880420684814453125" lon="-70.86618983186781406402587890625">
        <ele>1108.4000244140625</ele>
        <time>2026-08-21T14:57:29.000Z</time>
        <extensions>
          <ns3:TrackPointExtension>
            <ns3:hr>126</ns3:hr>
            <ns3:cad>61</ns3:cad>
          </ns3:TrackPointExtension>
        </extensions>
      </trkpt>
      <trkpt lat="45.29958732426166534423828125" lon="-70.866204835474491119384765625">
        <ele>1108.199951171875</ele>
        <time>2026-08-21T14:57:30.000Z</time>
        <extensions>
          <ns3:TrackPointExtension>
            <ns3:hr>126</ns3:hr>
            <ns3:cad>61</ns3:cad>
          </ns3:TrackPointExtension>
        </extensions>
      </trkpt>
      <trkpt lat="45.29957349412143230438232421875" lon="-70.8662143908441066741943359375">
        <ele>1108</ele>
        <time>2026-08-21T14:57:31.000Z</time>
        <extensions>
          <ns3:TrackPointExtension>
            <ns3:hr>126</ns3:hr>
            <ns3:cad>62</ns3:cad>
          </ns3:TrackPointExtension>
        </extensions>
      </trkpt>
      <trkpt lat="45.29956159181892871856689453125" lon="-70.8662241138517856597900390625">
        <ele>1107.800048828125</ele>
        <time>2026-08-21T14:57:32.000Z</time>
        <extensions>
          <ns3:TrackPointExtension>
            <ns3:hr>126</ns3:hr>
            <ns3:cad>62</ns3:cad>
          </ns3:TrackPointExtension>
        </extensions>
      </trkpt>
      <trkpt lat="45.2995492704212665557861328125" lon="-70.86624179966747760772705078125">
        <ele>1107.5999755859375</ele>
        <time>2026-08-21T14:57:33.000Z</time>
        <extensions>
          <ns3:TrackPointExtension>
            <ns3:hr>126</ns3:hr>
            <ns3:cad>62</ns3:cad>
          </ns3:TrackPointExtension>
        </extensions>
      </trkpt>
      <trkpt lat="45.29953644610941410064697265625" lon="-70.86626124568283557891845703125">
        <ele>1107.4000244140625</ele>
        <time>2026-08-21T14:57:34.000Z</time>
        <extensions>
          <ns3:TrackPointExtension>
            <ns3:hr>126</ns3:hr>
            <ns3:cad>71</ns3:cad>
          </ns3:TrackPointExtension>
        </extensions>
      </trkpt>
      <trkpt lat="45.2995247952640056610107421875" lon="-70.86627717129886150360107421875">
        <ele>1107.199951171875</ele>
        <time>2026-08-21T14:57:35.000Z</time>
        <extensions>
          <ns3:TrackPointExtension>
            <ns3:hr>125</ns3:hr>
            <ns3:cad>71</ns3:cad>
          </ns3:TrackPointExtension>
        </extensions>
      </trkpt>
      <trkpt lat="45.29951347969472408294677734375" lon="-70.866296030580997467041015625">
        <ele>1107</ele>
        <time>2026-08-21T14:57:36.000Z</time>
        <extensions>
          <ns3:TrackPointExtension>
            <ns3:hr>124</ns3:hr>
            <ns3:cad>71</ns3:cad>
          </ns3:TrackPointExtension>
        </extensions>
      </trkpt>
      <trkpt lat="45.29950208030641078948974609375" lon="-70.86631706915795803070068359375">
        <ele>1107</ele>
        <time>2026-08-21T14:57:37.000Z</time>
        <extensions>
          <ns3:TrackPointExtension>
            <ns3:hr>123</ns3:hr>
            <ns3:cad>71</ns3:cad>
          </ns3:TrackPointExtension>
        </extensions>
      </trkpt>
      <trkpt lat="45.29949168674647808074951171875" lon="-70.8663317374885082244873046875">
        <ele>1106.800048828125</ele>
        <time>2026-08-21T14:57:38.000Z</time>
        <extensions>
          <ns3:TrackPointExtension>
            <ns3:hr>122</ns3:hr>
            <ns3:cad>71</ns3:cad>
          </ns3:TrackPointExtension>
        </extensions>
      </trkpt>
      <trkpt lat="45.2994795329868793487548828125" lon="-70.86635026149451732635498046875">
        <ele>1106.800048828125</ele>
        <time>2026-08-21T14:57:39.000Z</time>
        <extensions>
          <ns3:TrackPointExtension>
            <ns3:hr>122</ns3:hr>
            <ns3:cad>71</ns3:cad>
          </ns3:TrackPointExtension>
        </extensions>
      </trkpt>
      <trkpt lat="45.299468971788883209228515625" lon="-70.8663692884147167205810546875">
        <ele>1106.5999755859375</ele>
        <time>2026-08-21T14:57:40.000Z</time>
        <extensions>
          <ns3:TrackPointExtension>
            <ns3:hr>121</ns3:hr>
            <ns3:cad>71</ns3:cad>
          </ns3:TrackPointExtension>
        </extensions>
      </trkpt>
      <trkpt lat="45.299460589885711669921875" lon="-70.86638747714459896087646484375">
        <ele>1106.4000244140625</ele>
        <time>2026-08-21T14:57:41.000Z</time>
        <extensions>
          <ns3:TrackPointExtension>
            <ns3:hr>121</ns3:hr>
            <ns3:cad>56</ns3:cad>
          </ns3:TrackPointExtension>
        </extensions>
      </trkpt>
      <trkpt lat="45.299453549087047576904296875" lon="-70.8664001338183879852294921875">
        <ele>1106.199951171875</ele>
        <time>2026-08-21T14:57:42.000Z</time>
        <extensions>
          <ns3:TrackPointExtension>
            <ns3:hr>120</ns3:hr>
            <ns3:cad>56</ns3:cad>
          </ns3:TrackPointExtension>
        </extensions>
      </trkpt>
      <trkpt lat="45.29945111833512783050537109375" lon="-70.86642402224242687225341796875">
        <ele>1106.199951171875</ele>
        <time>2026-08-21T14:57:43.000Z</time>
        <extensions>
          <ns3:TrackPointExtension>
            <ns3:hr>120</ns3:hr>
            <ns3:cad>56</ns3:cad>
          </ns3:TrackPointExtension>
        </extensions>
      </trkpt>
      <trkpt lat="45.29944826848804950714111328125" lon="-70.8664430491626262664794921875">
        <ele>1106</ele>
        <time>2026-08-21T14:57:44.000Z</time>
        <extensions>
          <ns3:TrackPointExtension>
            <ns3:hr>120</ns3:hr>
            <ns3:cad>56</ns3:cad>
          </ns3:TrackPointExtension>
        </extensions>
      </trkpt>
      <trkpt lat="45.299444161355495452880859375" lon="-70.8664614893496036529541015625">
        <ele>1105.800048828125</ele>
        <time>2026-08-21T14:57:45.000Z</time>
        <extensions>
          <ns3:TrackPointExtension>
            <ns3:hr>120</ns3:hr>
            <ns3:cad>56</ns3:cad>
          </ns3:TrackPointExtension>
        </extensions>
      </trkpt>
      <trkpt lat="45.29944055713713169097900390625" lon="-70.86647464893758296966552734375">
        <ele>1105.5999755859375</ele>
        <time>2026-08-21T14:57:46.000Z</time>
        <extensions>
          <ns3:TrackPointExtension>
            <ns3:hr>120</ns3:hr>
            <ns3:cad>56</ns3:cad>
          </ns3:TrackPointExtension>
        </extensions>
      </trkpt>
      <trkpt lat="45.2994339354336261749267578125" lon="-70.8664893172681331634521484375">
        <ele>1105.4000244140625</ele>
        <time>2026-08-21T14:57:47.000Z</time>
        <extensions>
          <ns3:TrackPointExtension>
            <ns3:hr>120</ns3:hr>
            <ns3:cad>56</ns3:cad>
          </ns3:TrackPointExtension>
        </extensions>
      </trkpt>
      <trkpt lat="45.29942228458821773529052734375" lon="-70.86650465615093708038330078125">
        <ele>1105.199951171875</ele>
        <time>2026-08-21T14:57:48.000Z</time>
        <extensions>
          <ns3:TrackPointExtension>
            <ns3:hr>120</ns3:hr>
            <ns3:cad>55</ns3:cad>
          </ns3:TrackPointExtension>
        </extensions>
      </trkpt>
      <trkpt lat="45.29940761625766754150390625" lon="-70.8665154688060283660888671875">
        <ele>1105.199951171875</ele>
        <time>2026-08-21T14:57:49.000Z</time>
        <extensions>
          <ns3:TrackPointExtension>
            <ns3:hr>120</ns3:hr>
            <ns3:cad>55</ns3:cad>
          </ns3:TrackPointExtension>
        </extensions>
      </trkpt>
      <trkpt lat="45.2993906848132610321044921875" lon="-70.866528712213039398193359375">
        <ele>1105</ele>
        <time>2026-08-21T14:57:50.000Z</time>
        <extensions>
          <ns3:TrackPointExtension>
            <ns3:hr>121</ns3:hr>
            <ns3:cad>55</ns3:cad>
          </ns3:TrackPointExtension>
        </extensions>
      </trkpt>
      <trkpt lat="45.29938037507236003875732421875" lon="-70.86653701029717922210693359375">
        <ele>1105</ele>
        <time>2026-08-21T14:57:51.000Z</time>
        <extensions>
          <ns3:TrackPointExtension>
            <ns3:hr>121</ns3:hr>
            <ns3:cad>54</ns3:cad>
          </ns3:TrackPointExtension>
        </extensions>
      </trkpt>
      <trkpt lat="45.2993675507605075836181640625" lon="-70.86654740385711193084716796875">
        <ele>1104.800048828125</ele>
        <time>2026-08-21T14:57:52.000Z</time>
        <extensions>
          <ns3:TrackPointExtension>
            <ns3:hr>122</ns3:hr>
            <ns3:cad>54</ns3:cad>
          </ns3:TrackPointExtension>
        </extensions>
      </trkpt>
      <trkpt lat="45.29935355298221111297607421875" lon="-70.86656190454959869384765625">
        <ele>1104.5999755859375</ele>
        <time>2026-08-21T14:57:53.000Z</time>
        <extensions>
          <ns3:TrackPointExtension>
            <ns3:hr>123</ns3:hr>
            <ns3:cad>57</ns3:cad>
          </ns3:TrackPointExtension>
        </extensions>
      </trkpt>
      <trkpt lat="45.299340225756168365478515625" lon="-70.8665692806243896484375">
        <ele>1104.4000244140625</ele>
        <time>2026-08-21T14:57:54.000Z</time>
        <extensions>
          <ns3:TrackPointExtension>
            <ns3:hr>123</ns3:hr>
            <ns3:cad>57</ns3:cad>
          </ns3:TrackPointExtension>
        </extensions>
      </trkpt>
      <trkpt lat="45.2993273176252841949462890625" lon="-70.866580344736576080322265625">
        <ele>1104</ele>
        <time>2026-08-21T14:57:55.000Z</time>
        <extensions>
          <ns3:TrackPointExtension>
            <ns3:hr>124</ns3:hr>
            <ns3:cad>0</ns3:cad>
          </ns3:TrackPointExtension>
        </extensions>
      </trkpt>
      <trkpt lat="45.29931281693279743194580078125" lon="-70.86659350432455539703369140625">
        <ele>1103.800048828125</ele>
        <time>2026-08-21T14:57:56.000Z</time>
        <extensions>
          <ns3:TrackPointExtension>
            <ns3:hr>124</ns3:hr>
            <ns3:cad>0</ns3:cad>
          </ns3:TrackPointExtension>
        </extensions>
      </trkpt>
      <trkpt lat="45.2993038482964038848876953125" lon="-70.86660708300769329071044921875">
        <ele>1103.5999755859375</ele>
        <time>2026-08-21T14:57:57.000Z</time>
        <extensions>
          <ns3:TrackPointExtension>
            <ns3:hr>124</ns3:hr>
            <ns3:cad>0</ns3:cad>
          </ns3:TrackPointExtension>
        </extensions>
      </trkpt>
      <trkpt lat="45.2992921136319637298583984375" lon="-70.86662149988114833831787109375">
        <ele>1103.199951171875</ele>
        <time>2026-08-21T14:57:58.000Z</time>
        <extensions>
          <ns3:TrackPointExtension>
            <ns3:hr>125</ns3:hr>
            <ns3:cad>72</ns3:cad>
          </ns3:TrackPointExtension>
        </extensions>
      </trkpt>
      <trkpt lat="45.29927811585366725921630859375" lon="-70.8666301332414150238037109375">
        <ele>1103</ele>
        <time>2026-08-21T14:57:59.000Z</time>
        <extensions>
          <ns3:TrackPointExtension>
            <ns3:hr>125</ns3:hr>
            <ns3:cad>72</ns3:cad>
          </ns3:TrackPointExtension>
        </extensions>
      </trkpt>
      <trkpt lat="45.299261100590229034423828125" lon="-70.86664161644876003265380859375">
        <ele>1102.800048828125</ele>
        <time>2026-08-21T14:58:00.000Z</time>
        <extensions>
          <ns3:TrackPointExtension>
            <ns3:hr>125</ns3:hr>
            <ns3:cad>0</ns3:cad>
          </ns3:TrackPointExtension>
        </extensions>
      </trkpt>
      <trkpt lat="45.29924802482128143310546875" lon="-70.86664983071386814117431640625">
        <ele>1102.5999755859375</ele>
        <time>2026-08-21T14:58:01.000Z</time>
        <extensions>
          <ns3:TrackPointExtension>
            <ns3:hr>125</ns3:hr>
            <ns3:cad>0</ns3:cad>
          </ns3:TrackPointExtension>
        </extensions>
      </trkpt>
      <trkpt lat="45.29923436231911182403564453125" lon="-70.86666609160602092742919921875">
        <ele>1102.4000244140625</ele>
        <time>2026-08-21T14:58:02.000Z</time>
        <extensions>
          <ns3:TrackPointExtension>
            <ns3:hr>125</ns3:hr>
            <ns3:cad>0</ns3:cad>
          </ns3:TrackPointExtension>
        </extensions>
      </trkpt>
      <trkpt lat="45.29922279529273509979248046875" lon="-70.8666810952126979827880859375">
        <ele>1102.4000244140625</ele>
        <time>2026-08-21T14:58:03.000Z</time>
        <extensions>
          <ns3:TrackPointExtension>
            <ns3:hr>125</ns3:hr>
            <ns3:cad>0</ns3:cad>
          </ns3:TrackPointExtension>
        </extensions>
      </trkpt>
      <trkpt lat="45.2992124855518341064453125" lon="-70.866693668067455291748046875">
        <ele>1102</ele>
        <time>2026-08-21T14:58:04.000Z</time>
        <extensions>
          <ns3:TrackPointExtension>
            <ns3:hr>125</ns3:hr>
            <ns3:cad>0</ns3:cad>
          </ns3:TrackPointExtension>
        </extensions>
      </trkpt>
      <trkpt lat="45.2991989068686962127685546875" lon="-70.8667012117803096771240234375">
        <ele>1101.800048828125</ele>
        <time>2026-08-21T14:58:05.000Z</time>
        <extensions>
          <ns3:TrackPointExtension>
            <ns3:hr>125</ns3:hr>
            <ns3:cad>0</ns3:cad>
          </ns3:TrackPointExtension>
        </extensions>
      </trkpt>
      <trkpt lat="45.29918231070041656494140625" lon="-70.8667109347879886627197265625">
        <ele>1101.5999755859375</ele>
        <time>2026-08-21T14:58:06.000Z</time>
        <extensions>
          <ns3:TrackPointExtension>
            <ns3:hr>124</ns3:hr>
            <ns3:cad>0</ns3:cad>
          </ns3:TrackPointExtension>
        </extensions>
      </trkpt>
      <trkpt lat="45.29917216859757900238037109375" lon="-70.866720490157604217529296875">
        <ele>1101.4000244140625</ele>
        <time>2026-08-21T14:58:07.000Z</time>
        <extensions>
          <ns3:TrackPointExtension>
            <ns3:hr>125</ns3:hr>
            <ns3:cad>0</ns3:cad>
          </ns3:TrackPointExtension>
        </extensions>
      </trkpt>
      <trkpt lat="45.29916143976151943206787109375" lon="-70.8667427860200405120849609375">
        <ele>1101.199951171875</ele>
        <time>2026-08-21T14:58:08.000Z</time>
        <extensions>
          <ns3:TrackPointExtension>
            <ns3:hr>125</ns3:hr>
            <ns3:cad>0</ns3:cad>
          </ns3:TrackPointExtension>
        </extensions>
      </trkpt>
      <trkpt lat="45.29914635233581066131591796875" lon="-70.8667548559606075286865234375">
        <ele>1101</ele>
        <time>2026-08-21T14:58:09.000Z</time>
        <extensions>
          <ns3:TrackPointExtension>
            <ns3:hr>125</ns3:hr>
            <ns3:cad>0</ns3:cad>
          </ns3:TrackPointExtension>
        </extensions>
      </trkpt>
      <trkpt lat="45.29913344420492649078369140625" lon="-70.86675770580768585205078125">
        <ele>1100.800048828125</ele>
        <time>2026-08-21T14:58:10.000Z</time>
        <extensions>
          <ns3:TrackPointExtension>
            <ns3:hr>124</ns3:hr>
            <ns3:cad>0</ns3:cad>
          </ns3:TrackPointExtension>
        </extensions>
      </trkpt>
      <trkpt lat="45.2991217933595180511474609375" lon="-70.8667659200727939605712890625">
        <ele>1100.5999755859375</ele>
        <time>2026-08-21T14:58:11.000Z</time>
        <extensions>
          <ns3:TrackPointExtension>
            <ns3:hr>124</ns3:hr>
            <ns3:cad>0</ns3:cad>
          </ns3:TrackPointExtension>
        </extensions>
      </trkpt>
      <trkpt lat="45.29911198653280735015869140625" lon="-70.86677840910851955413818359375">
        <ele>1100.199951171875</ele>
        <time>2026-08-21T14:58:12.000Z</time>
        <extensions>
          <ns3:TrackPointExtension>
            <ns3:hr>124</ns3:hr>
            <ns3:cad>0</ns3:cad>
          </ns3:TrackPointExtension>
        </extensions>
      </trkpt>
      <trkpt lat="45.29909555800259113311767578125" lon="-70.8667977713048458099365234375">
        <ele>1099.800048828125</ele>
        <time>2026-08-21T14:58:13.000Z</time>
        <extensions>
          <ns3:TrackPointExtension>
            <ns3:hr>124</ns3:hr>
            <ns3:cad>68</ns3:cad>
          </ns3:TrackPointExtension>
        </extensions>
      </trkpt>
      <trkpt lat="45.29908264987170696258544921875" lon="-70.86680975742638111114501953125">
        <ele>1099.5999755859375</ele>
        <time>2026-08-21T14:58:14.000Z</time>
        <extensions>
          <ns3:TrackPointExtension>
            <ns3:hr>125</ns3:hr>
            <ns3:cad>68</ns3:cad>
          </ns3:TrackPointExtension>
        </extensions>
      </trkpt>
      <trkpt lat="45.29906873591244220733642578125" lon="-70.8668232522904872894287109375">
        <ele>1099.199951171875</ele>
        <time>2026-08-21T14:58:15.000Z</time>
        <extensions>
          <ns3:TrackPointExtension>
            <ns3:hr>124</ns3:hr>
            <ns3:cad>68</ns3:cad>
          </ns3:TrackPointExtension>
        </extensions>
      </trkpt>
      <trkpt lat="45.2990500442683696746826171875" lon="-70.86683842353522777557373046875">
        <ele>1099</ele>
        <time>2026-08-21T14:58:16.000Z</time>
        <extensions>
          <ns3:TrackPointExtension>
            <ns3:hr>124</ns3:hr>
            <ns3:cad>68</ns3:cad>
          </ns3:TrackPointExtension>
        </extensions>
      </trkpt>
      <trkpt lat="45.29903537593781948089599609375" lon="-70.86685250513255596160888671875">
        <ele>1098.5999755859375</ele>
        <time>2026-08-21T14:58:17.000Z</time>
        <extensions>
          <ns3:TrackPointExtension>
            <ns3:hr>124</ns3:hr>
            <ns3:cad>64</ns3:cad>
          </ns3:TrackPointExtension>
        </extensions>
      </trkpt>
      <trkpt lat="45.2990238927304744720458984375" lon="-70.8668618090450763702392578125">
        <ele>1098.4000244140625</ele>
        <time>2026-08-21T14:58:18.000Z</time>
        <extensions>
          <ns3:TrackPointExtension>
            <ns3:hr>124</ns3:hr>
            <ns3:cad>64</ns3:cad>
          </ns3:TrackPointExtension>
        </extensions>
      </trkpt>
      <trkpt lat="45.2990121580660343170166015625" lon="-70.86687094531953334808349609375">
        <ele>1098.199951171875</ele>
        <time>2026-08-21T14:58:19.000Z</time>
        <extensions>
          <ns3:TrackPointExtension>
            <ns3:hr>124</ns3:hr>
            <ns3:cad>64</ns3:cad>
          </ns3:TrackPointExtension>
        </extensions>
      </trkpt>
      <trkpt lat="45.29899983666837215423583984375" lon="-70.86688267998397350311279296875">
        <ele>1098</ele>
        <time>2026-08-21T14:58:20.000Z</time>
        <extensions>
          <ns3:TrackPointExtension>
            <ns3:hr>123</ns3:hr>
            <ns3:cad>64</ns3:cad>
          </ns3:TrackPointExtension>
        </extensions>
      </trkpt>
      <trkpt lat="45.2989873476326465606689453125" lon="-70.86689793504774570465087890625">
        <ele>1097.5999755859375</ele>
        <time>2026-08-21T14:58:21.000Z</time>
        <extensions>
          <ns3:TrackPointExtension>
            <ns3:hr>123</ns3:hr>
            <ns3:cad>64</ns3:cad>
          </ns3:TrackPointExtension>
        </extensions>
      </trkpt>
      <trkpt lat="45.298971422016620635986328125" lon="-70.86690229363739490509033203125">
        <ele>1097.4000244140625</ele>
        <time>2026-08-21T14:58:22.000Z</time>
        <extensions>
          <ns3:TrackPointExtension>
            <ns3:hr>122</ns3:hr>
            <ns3:cad>64</ns3:cad>
          </ns3:TrackPointExtension>
        </extensions>
      </trkpt>
      <trkpt lat="45.29895574785768985748291015625" lon="-70.86690581403672695159912109375">
        <ele>1097.199951171875</ele>
        <time>2026-08-21T14:58:23.000Z</time>
        <extensions>
          <ns3:TrackPointExtension>
            <ns3:hr>122</ns3:hr>
            <ns3:cad>64</ns3:cad>
          </ns3:TrackPointExtension>
        </extensions>
      </trkpt>
      <trkpt lat="45.29893998987972736358642578125" lon="-70.86691402830183506011962890625">
        <ele>1096.800048828125</ele>
        <time>2026-08-21T14:58:24.000Z</time>
        <extensions>
          <ns3:TrackPointExtension>
            <ns3:hr>122</ns3:hr>
            <ns3:cad>64</ns3:cad>
          </ns3:TrackPointExtension>
        </extensions>
      </trkpt>
      <trkpt lat="45.2989259921014308929443359375" lon="-70.8669312112033367156982421875">
        <ele>1096.5999755859375</ele>
        <time>2026-08-21T14:58:25.000Z</time>
        <extensions>
          <ns3:TrackPointExtension>
            <ns3:hr>122</ns3:hr>
            <ns3:cad>64</ns3:cad>
          </ns3:TrackPointExtension>
        </extensions>
      </trkpt>
      <trkpt lat="45.298913083970546722412109375" lon="-70.866942107677459716796875">
        <ele>1096.199951171875</ele>
        <time>2026-08-21T14:58:26.000Z</time>
        <extensions>
          <ns3:TrackPointExtension>
            <ns3:hr>123</ns3:hr>
            <ns3:cad>64</ns3:cad>
          </ns3:TrackPointExtension>
        </extensions>
      </trkpt>
      <trkpt lat="45.29889841563999652862548828125" lon="-70.86695442907512187957763671875">
        <ele>1096</ele>
        <time>2026-08-21T14:58:27.000Z</time>
        <extensions>
          <ns3:TrackPointExtension>
            <ns3:hr>123</ns3:hr>
            <ns3:cad>0</ns3:cad>
          </ns3:TrackPointExtension>
        </extensions>
      </trkpt>
      <trkpt lat="45.29888349585235118865966796875" lon="-70.86696532554924488067626953125">
        <ele>1095.800048828125</ele>
        <time>2026-08-21T14:58:28.000Z</time>
        <extensions>
          <ns3:TrackPointExtension>
            <ns3:hr>123</ns3:hr>
            <ns3:cad>0</ns3:cad>
          </ns3:TrackPointExtension>
        </extensions>
      </trkpt>
      <trkpt lat="45.2988693304359912872314453125" lon="-70.866975300014019012451171875">
        <ele>1095.4000244140625</ele>
        <time>2026-08-21T14:58:29.000Z</time>
        <extensions>
          <ns3:TrackPointExtension>
            <ns3:hr>124</ns3:hr>
            <ns3:cad>0</ns3:cad>
          </ns3:TrackPointExtension>
        </extensions>
      </trkpt>
      <trkpt lat="45.2988582663238048553466796875" lon="-70.8669828437268733978271484375">
        <ele>1095.199951171875</ele>
        <time>2026-08-21T14:58:30.000Z</time>
        <extensions>
          <ns3:TrackPointExtension>
            <ns3:hr>124</ns3:hr>
            <ns3:cad>68</ns3:cad>
          </ns3:TrackPointExtension>
        </extensions>
      </trkpt>
      <trkpt lat="45.29884208925068378448486328125" lon="-70.86699063889682292938232421875">
        <ele>1095</ele>
        <time>2026-08-21T14:58:31.000Z</time>
        <extensions>
          <ns3:TrackPointExtension>
            <ns3:hr>124</ns3:hr>
            <ns3:cad>68</ns3:cad>
          </ns3:TrackPointExtension>
        </extensions>
      </trkpt>
      <trkpt lat="45.2988264150917530059814453125" lon="-70.86699734441936016082763671875">
        <ele>1094.5999755859375</ele>
        <time>2026-08-21T14:58:32.000Z</time>
        <extensions>
          <ns3:TrackPointExtension>
            <ns3:hr>124</ns3:hr>
            <ns3:cad>68</ns3:cad>
          </ns3:TrackPointExtension>
        </extensions>
      </trkpt>
      <trkpt lat="45.29881241731345653533935546875" lon="-70.86700354702770709991455078125">
        <ele>1094.4000244140625</ele>
        <time>2026-08-21T14:58:33.000Z</time>
        <extensions>
          <ns3:TrackPointExtension>
            <ns3:hr>125</ns3:hr>
            <ns3:cad>68</ns3:cad>
          </ns3:TrackPointExtension>
        </extensions>
      </trkpt>
      <trkpt lat="45.298797078430652618408203125" lon="-70.8670093305408954620361328125">
        <ele>1094.199951171875</ele>
        <time>2026-08-21T14:58:34.000Z</time>
        <extensions>
          <ns3:TrackPointExtension>
            <ns3:hr>125</ns3:hr>
            <ns3:cad>68</ns3:cad>
          </ns3:TrackPointExtension>
        </extensions>
      </trkpt>
      <trkpt lat="45.29878224246203899383544921875" lon="-70.867012180387973785400390625">
        <ele>1094</ele>
        <time>2026-08-21T14:58:35.000Z</time>
        <extensions>
          <ns3:TrackPointExtension>
            <ns3:hr>125</ns3:hr>
            <ns3:cad>68</ns3:cad>
          </ns3:TrackPointExtension>
        </extensions>
      </trkpt>
      <trkpt lat="45.29876782558858394622802734375" lon="-70.8670131862163543701171875">
        <ele>1093.800048828125</ele>
        <time>2026-08-21T14:58:36.000Z</time>
        <extensions>
          <ns3:TrackPointExtension>
            <ns3:hr>126</ns3:hr>
            <ns3:cad>68</ns3:cad>
          </ns3:TrackPointExtension>
        </extensions>
      </trkpt>
      <trkpt lat="45.29875424690544605255126953125" lon="-70.867022238671779632568359375">
        <ele>1093.5999755859375</ele>
        <time>2026-08-21T14:58:37.000Z</time>
        <extensions>
          <ns3:TrackPointExtension>
            <ns3:hr>127</ns3:hr>
            <ns3:cad>71</ns3:cad>
          </ns3:TrackPointExtension>
        </extensions>
      </trkpt>
      <trkpt lat="45.2987392432987689971923828125" lon="-70.867030285298824310302734375">
        <ele>1093.4000244140625</ele>
        <time>2026-08-21T14:58:38.000Z</time>
        <extensions>
          <ns3:TrackPointExtension>
            <ns3:hr>127</ns3:hr>
            <ns3:cad>71</ns3:cad>
          </ns3:TrackPointExtension>
        </extensions>
      </trkpt>
      <trkpt lat="45.29872708953917026519775390625" lon="-70.86703388951718807220458984375">
        <ele>1093.199951171875</ele>
        <time>2026-08-21T14:58:39.000Z</time>
        <extensions>
          <ns3:TrackPointExtension>
            <ns3:hr>128</ns3:hr>
            <ns3:cad>67</ns3:cad>
          </ns3:TrackPointExtension>
        </extensions>
      </trkpt>
      <trkpt lat="45.298711918294429779052734375" lon="-70.86704864166676998138427734375">
        <ele>1092.800048828125</ele>
        <time>2026-08-21T14:58:40.000Z</time>
        <extensions>
          <ns3:TrackPointExtension>
            <ns3:hr>129</ns3:hr>
            <ns3:cad>67</ns3:cad>
          </ns3:TrackPointExtension>
        </extensions>
      </trkpt>
      <trkpt lat="45.2986959926784038543701171875" lon="-70.8670628070831298828125">
        <ele>1092.5999755859375</ele>
        <time>2026-08-21T14:58:41.000Z</time>
        <extensions>
          <ns3:TrackPointExtension>
            <ns3:hr>129</ns3:hr>
            <ns3:cad>67</ns3:cad>
          </ns3:TrackPointExtension>
        </extensions>
      </trkpt>
      <trkpt lat="45.29868283309042453765869140625" lon="-70.8670767210423946380615234375">
        <ele>1092.4000244140625</ele>
        <time>2026-08-21T14:58:42.000Z</time>
        <extensions>
          <ns3:TrackPointExtension>
            <ns3:hr>130</ns3:hr>
            <ns3:cad>61</ns3:cad>
          </ns3:TrackPointExtension>
        </extensions>
      </trkpt>
      <trkpt lat="45.2986685000360012054443359375" lon="-70.86709071882069110870361328125">
        <ele>1092</ele>
        <time>2026-08-21T14:58:43.000Z</time>
        <extensions>
          <ns3:TrackPointExtension>
            <ns3:hr>131</ns3:hr>
            <ns3:cad>61</ns3:cad>
          </ns3:TrackPointExtension>
        </extensions>
      </trkpt>
      <trkpt lat="45.2986550889909267425537109375" lon="-70.8671028725802898406982421875">
        <ele>1091.800048828125</ele>
        <time>2026-08-21T14:58:44.000Z</time>
        <extensions>
          <ns3:TrackPointExtension>
            <ns3:hr>131</ns3:hr>
            <ns3:cad>0</ns3:cad>
          </ns3:TrackPointExtension>
        </extensions>
      </trkpt>
      <trkpt lat="45.2986413426697254180908203125" lon="-70.86712022311985492706298828125">
        <ele>1091.4000244140625</ele>
        <time>2026-08-21T14:58:45.000Z</time>
        <extensions>
          <ns3:TrackPointExtension>
            <ns3:hr>131</ns3:hr>
            <ns3:cad>0</ns3:cad>
          </ns3:TrackPointExtension>
        </extensions>
      </trkpt>
      <trkpt lat="45.29862851835787296295166015625" lon="-70.86713179014623165130615234375">
        <ele>1091</ele>
        <time>2026-08-21T14:58:46.000Z</time>
        <extensions>
          <ns3:TrackPointExtension>
            <ns3:hr>131</ns3:hr>
            <ns3:cad>64</ns3:cad>
          </ns3:TrackPointExtension>
        </extensions>
      </trkpt>
      <trkpt lat="45.29861443676054477691650390625" lon="-70.86713883094489574432373046875">
        <ele>1090.800048828125</ele>
        <time>2026-08-21T14:58:47.000Z</time>
        <extensions>
          <ns3:TrackPointExtension>
            <ns3:hr>130</ns3:hr>
            <ns3:cad>71</ns3:cad>
          </ns3:TrackPointExtension>
        </extensions>
      </trkpt>
      <trkpt lat="45.29859851114451885223388671875" lon="-70.8671441115438938140869140625">
        <ele>1090.4000244140625</ele>
        <time>2026-08-21T14:58:48.000Z</time>
        <extensions>
          <ns3:TrackPointExtension>
            <ns3:hr>130</ns3:hr>
            <ns3:cad>71</ns3:cad>
          </ns3:TrackPointExtension>
        </extensions>
      </trkpt>
      <trkpt lat="45.2985803224146366119384765625" lon="-70.86715207435190677642822265625">
        <ele>1090.199951171875</ele>
        <time>2026-08-21T14:58:49.000Z</time>
        <extensions>
          <ns3:TrackPointExtension>
            <ns3:hr>130</ns3:hr>
            <ns3:cad>71</ns3:cad>
          </ns3:TrackPointExtension>
        </extensions>
      </trkpt>
      <trkpt lat="45.29856665991246700286865234375" lon="-70.86715810932219028472900390625">
        <ele>1090</ele>
        <time>2026-08-21T14:58:50.000Z</time>
        <extensions>
          <ns3:TrackPointExtension>
            <ns3:hr>130</ns3:hr>
            <ns3:cad>71</ns3:cad>
          </ns3:TrackPointExtension>
        </extensions>
      </trkpt>
      <trkpt lat="45.29855241067707538604736328125" lon="-70.8671632222831249237060546875">
        <ele>1089.800048828125</ele>
        <time>2026-08-21T14:58:51.000Z</time>
        <extensions>
          <ns3:TrackPointExtension>
            <ns3:hr>130</ns3:hr>
            <ns3:cad>71</ns3:cad>
          </ns3:TrackPointExtension>
        </extensions>
      </trkpt>
      <trkpt lat="45.29853782616555690765380859375" lon="-70.8671692572534084320068359375">
        <ele>1089.5999755859375</ele>
        <time>2026-08-21T14:58:52.000Z</time>
        <extensions>
          <ns3:TrackPointExtension>
            <ns3:hr>131</ns3:hr>
            <ns3:cad>71</ns3:cad>
          </ns3:TrackPointExtension>
        </extensions>
      </trkpt>
      <trkpt lat="45.29852357693016529083251953125" lon="-70.8671749569475650787353515625">
        <ele>1089.199951171875</ele>
        <time>2026-08-21T14:58:53.000Z</time>
        <extensions>
          <ns3:TrackPointExtension>
            <ns3:hr>130</ns3:hr>
            <ns3:cad>71</ns3:cad>
          </ns3:TrackPointExtension>
        </extensions>
      </trkpt>
      <trkpt lat="45.29850907623767852783203125" lon="-70.867181830108165740966796875">
        <ele>1089</ele>
        <time>2026-08-21T14:58:54.000Z</time>
        <extensions>
          <ns3:TrackPointExtension>
            <ns3:hr>130</ns3:hr>
            <ns3:cad>73</ns3:cad>
          </ns3:TrackPointExtension>
        </extensions>
      </trkpt>
      <trkpt lat="45.29849164187908172607421875" lon="-70.8671875298023223876953125">
        <ele>1088.800048828125</ele>
        <time>2026-08-21T14:58:55.000Z</time>
        <extensions>
          <ns3:TrackPointExtension>
            <ns3:hr>130</ns3:hr>
            <ns3:cad>73</ns3:cad>
          </ns3:TrackPointExtension>
        </extensions>
      </trkpt>
      <trkpt lat="45.29847730882465839385986328125" lon="-70.86719800718128681182861328125">
        <ele>1088.5999755859375</ele>
        <time>2026-08-21T14:58:56.000Z</time>
        <extensions>
          <ns3:TrackPointExtension>
            <ns3:hr>129</ns3:hr>
            <ns3:cad>73</ns3:cad>
          </ns3:TrackPointExtension>
        </extensions>
      </trkpt>
      <trkpt lat="45.29845945537090301513671875" lon="-70.86721812374889850616455078125">
        <ele>1088.4000244140625</ele>
        <time>2026-08-21T14:58:57.000Z</time>
        <extensions>
          <ns3:TrackPointExtension>
            <ns3:hr>129</ns3:hr>
            <ns3:cad>73</ns3:cad>
          </ns3:TrackPointExtension>
        </extensions>
      </trkpt>
      <trkpt lat="45.29844596050679683685302734375" lon="-70.8672332949936389923095703125">
        <ele>1088.199951171875</ele>
        <time>2026-08-21T14:58:58.000Z</time>
        <extensions>
          <ns3:TrackPointExtension>
            <ns3:hr>129</ns3:hr>
            <ns3:cad>73</ns3:cad>
          </ns3:TrackPointExtension>
        </extensions>
      </trkpt>
      <trkpt lat="45.2984324656426906585693359375" lon="-70.86724712513387203216552734375">
        <ele>1087.800048828125</ele>
        <time>2026-08-21T14:58:59.000Z</time>
        <extensions>
          <ns3:TrackPointExtension>
            <ns3:hr>128</ns3:hr>
            <ns3:cad>73</ns3:cad>
          </ns3:TrackPointExtension>
        </extensions>
      </trkpt>
      <trkpt lat="45.298413522541522979736328125" lon="-70.867258943617343902587890625">
        <ele>1087.5999755859375</ele>
        <time>2026-08-21T14:59:00.000Z</time>
        <extensions>
          <ns3:TrackPointExtension>
            <ns3:hr>128</ns3:hr>
            <ns3:cad>73</ns3:cad>
          </ns3:TrackPointExtension>
        </extensions>
      </trkpt>
      <trkpt lat="45.298396758735179901123046875" lon="-70.86727277375757694244384765625">
        <ele>1087.199951171875</ele>
        <time>2026-08-21T14:59:01.000Z</time>
        <extensions>
          <ns3:TrackPointExtension>
            <ns3:hr>128</ns3:hr>
            <ns3:cad>73</ns3:cad>
          </ns3:TrackPointExtension>
        </extensions>
      </trkpt>
      <trkpt lat="45.2983808331191539764404296875" lon="-70.8672894537448883056640625">
        <ele>1087</ele>
        <time>2026-08-21T14:59:02.000Z</time>
        <extensions>
          <ns3:TrackPointExtension>
            <ns3:hr>127</ns3:hr>
            <ns3:cad>73</ns3:cad>
          </ns3:TrackPointExtension>
        </extensions>
      </trkpt>
      <trkpt lat="45.29836566187441349029541015625" lon="-70.86730060167610645294189453125">
        <ele>1086.5999755859375</ele>
        <time>2026-08-21T14:59:03.000Z</time>
        <extensions>
          <ns3:TrackPointExtension>
            <ns3:hr>127</ns3:hr>
            <ns3:cad>73</ns3:cad>
          </ns3:TrackPointExtension>
        </extensions>
      </trkpt>
      <trkpt lat="45.29835007153451442718505859375" lon="-70.86731032468378543853759765625">
        <ele>1086.4000244140625</ele>
        <time>2026-08-21T14:59:04.000Z</time>
        <extensions>
          <ns3:TrackPointExtension>
            <ns3:hr>127</ns3:hr>
            <ns3:cad>78</ns3:cad>
          </ns3:TrackPointExtension>
        </extensions>
      </trkpt>
      <trkpt lat="45.29833280481398105621337890625" lon="-70.86732725612819194793701171875">
        <ele>1086</ele>
        <time>2026-08-21T14:59:05.000Z</time>
        <extensions>
          <ns3:TrackPointExtension>
            <ns3:hr>128</ns3:hr>
            <ns3:cad>78</ns3:cad>
          </ns3:TrackPointExtension>
        </extensions>
      </trkpt>
      <trkpt lat="45.29831486754119396209716796875" lon="-70.86734636686742305755615234375">
        <ele>1085.5999755859375</ele>
        <time>2026-08-21T14:59:06.000Z</time>
        <extensions>
          <ns3:TrackPointExtension>
            <ns3:hr>128</ns3:hr>
            <ns3:cad>76</ns3:cad>
          </ns3:TrackPointExtension>
        </extensions>
      </trkpt>
      <trkpt lat="45.29829852283000946044921875" lon="-70.86736313067376613616943359375">
        <ele>1085.4000244140625</ele>
        <time>2026-08-21T14:59:07.000Z</time>
        <extensions>
          <ns3:TrackPointExtension>
            <ns3:hr>128</ns3:hr>
            <ns3:cad>76</ns3:cad>
          </ns3:TrackPointExtension>
        </extensions>
      </trkpt>
      <trkpt lat="45.29828435741364955902099609375" lon="-70.8673828281462192535400390625">
        <ele>1085</ele>
        <time>2026-08-21T14:59:08.000Z</time>
        <extensions>
          <ns3:TrackPointExtension>
            <ns3:hr>128</ns3:hr>
            <ns3:cad>76</ns3:cad>
          </ns3:TrackPointExtension>
        </extensions>
      </trkpt>
      <trkpt lat="45.29827111400663852691650390625" lon="-70.8674022741615772247314453125">
        <ele>1084.800048828125</ele>
        <time>2026-08-21T14:59:09.000Z</time>
        <extensions>
          <ns3:TrackPointExtension>
            <ns3:hr>128</ns3:hr>
            <ns3:cad>76</ns3:cad>
          </ns3:TrackPointExtension>
        </extensions>
      </trkpt>
      <trkpt lat="45.29825669713318347930908203125" lon="-70.86742348037660121917724609375">
        <ele>1084.5999755859375</ele>
        <time>2026-08-21T14:59:10.000Z</time>
        <extensions>
          <ns3:TrackPointExtension>
            <ns3:hr>129</ns3:hr>
            <ns3:cad>76</ns3:cad>
          </ns3:TrackPointExtension>
        </extensions>
      </trkpt>
      <trkpt lat="45.2982453815639019012451171875" lon="-70.86744125001132488250732421875">
        <ele>1084.5999755859375</ele>
        <time>2026-08-21T14:59:11.000Z</time>
        <extensions>
          <ns3:TrackPointExtension>
            <ns3:hr>129</ns3:hr>
            <ns3:cad>78</ns3:cad>
          </ns3:TrackPointExtension>
        </extensions>
      </trkpt>
      <trkpt lat="45.29823238961398601531982421875" lon="-70.86746337823569774627685546875">
        <ele>1084.4000244140625</ele>
        <time>2026-08-21T14:59:12.000Z</time>
        <extensions>
          <ns3:TrackPointExtension>
            <ns3:hr>130</ns3:hr>
            <ns3:cad>78</ns3:cad>
          </ns3:TrackPointExtension>
        </extensions>
      </trkpt>
      <trkpt lat="45.298221409320831298828125" lon="-70.86749204434454441070556640625">
        <ele>1084.4000244140625</ele>
        <time>2026-08-21T14:59:13.000Z</time>
        <extensions>
          <ns3:TrackPointExtension>
            <ns3:hr>130</ns3:hr>
            <ns3:cad>77</ns3:cad>
          </ns3:TrackPointExtension>
        </extensions>
      </trkpt>
      <trkpt lat="45.2982115186750888824462890625" lon="-70.86752020753920078277587890625">
        <ele>1084.4000244140625</ele>
        <time>2026-08-21T14:59:14.000Z</time>
        <extensions>
          <ns3:TrackPointExtension>
            <ns3:hr>130</ns3:hr>
            <ns3:cad>77</ns3:cad>
          </ns3:TrackPointExtension>
        </extensions>
      </trkpt>
      <trkpt lat="45.298199951648712158203125" lon="-70.86754225194454193115234375">
        <ele>1084.4000244140625</ele>
        <time>2026-08-21T14:59:15.000Z</time>
        <extensions>
          <ns3:TrackPointExtension>
            <ns3:hr>131</ns3:hr>
            <ns3:cad>77</ns3:cad>
          </ns3:TrackPointExtension>
        </extensions>
      </trkpt>
      <trkpt lat="45.29818494804203510284423828125" lon="-70.86756932549178600311279296875">
        <ele>1084.4000244140625</ele>
        <time>2026-08-21T14:59:16.000Z</time>
        <extensions>
          <ns3:TrackPointExtension>
            <ns3:hr>131</ns3:hr>
            <ns3:cad>79</ns3:cad>
          </ns3:TrackPointExtension>
        </extensions>
      </trkpt>
      <trkpt lat="45.2981773205101490020751953125" lon="-70.8675906993448734283447265625">
        <ele>1084.4000244140625</ele>
        <time>2026-08-21T14:59:17.000Z</time>
        <extensions>
          <ns3:TrackPointExtension>
            <ns3:hr>131</ns3:hr>
            <ns3:cad>79</ns3:cad>
          </ns3:TrackPointExtension>
        </extensions>
      </trkpt>
      <trkpt lat="45.2981650829315185546875" lon="-70.867615677416324615478515625">
        <ele>1084.199951171875</ele>
        <time>2026-08-21T14:59:18.000Z</time>
        <extensions>
          <ns3:TrackPointExtension>
            <ns3:hr>132</ns3:hr>
            <ns3:cad>79</ns3:cad>
          </ns3:TrackPointExtension>
        </extensions>
      </trkpt>
      <trkpt lat="45.2981488220393657684326171875" lon="-70.8676403202116489410400390625">
        <ele>1084</ele>
        <time>2026-08-21T14:59:19.000Z</time>
        <extensions>
          <ns3:TrackPointExtension>
            <ns3:hr>132</ns3:hr>
            <ns3:cad>79</ns3:cad>
          </ns3:TrackPointExtension>
        </extensions>
      </trkpt>
      <trkpt lat="45.2981323935091495513916015625" lon="-70.8676584251224994659423828125">
        <ele>1084</ele>
        <time>2026-08-21T14:59:20.000Z</time>
        <extensions>
          <ns3:TrackPointExtension>
            <ns3:hr>132</ns3:hr>
            <ns3:cad>78</ns3:cad>
          </ns3:TrackPointExtension>
        </extensions>
      </trkpt>
      <trkpt lat="45.298119150102138519287109375" lon="-70.86768097244203090667724609375">
        <ele>1083.800048828125</ele>
        <time>2026-08-21T14:59:21.000Z</time>
        <extensions>
          <ns3:TrackPointExtension>
            <ns3:hr>132</ns3:hr>
            <ns3:cad>78</ns3:cad>
          </ns3:TrackPointExtension>
        </extensions>
      </trkpt>
      <trkpt lat="45.2981074154376983642578125" lon="-70.86770863272249698638916015625">
        <ele>1083.5999755859375</ele>
        <time>2026-08-21T14:59:22.000Z</time>
        <extensions>
          <ns3:TrackPointExtension>
            <ns3:hr>132</ns3:hr>
            <ns3:cad>78</ns3:cad>
          </ns3:TrackPointExtension>
        </extensions>
      </trkpt>
      <trkpt lat="45.2980935014784336090087890625" lon="-70.86773344315588474273681640625">
        <ele>1083.5999755859375</ele>
        <time>2026-08-21T14:59:23.000Z</time>
        <extensions>
          <ns3:TrackPointExtension>
            <ns3:hr>132</ns3:hr>
            <ns3:cad>76</ns3:cad>
          </ns3:TrackPointExtension>
        </extensions>
      </trkpt>
      <trkpt lat="45.29808168299496173858642578125" lon="-70.86775951087474822998046875">
        <ele>1083.4000244140625</ele>
        <time>2026-08-21T14:59:24.000Z</time>
        <extensions>
          <ns3:TrackPointExtension>
            <ns3:hr>132</ns3:hr>
            <ns3:cad>76</ns3:cad>
          </ns3:TrackPointExtension>
        </extensions>
      </trkpt>
      <trkpt lat="45.29806693084537982940673828125" lon="-70.8677834831178188323974609375">
        <ele>1083.4000244140625</ele>
        <time>2026-08-21T14:59:25.000Z</time>
        <extensions>
          <ns3:TrackPointExtension>
            <ns3:hr>132</ns3:hr>
            <ns3:cad>76</ns3:cad>
          </ns3:TrackPointExtension>
        </extensions>
      </trkpt>
      <trkpt lat="45.2980542741715908050537109375" lon="-70.867806784808635711669921875">
        <ele>1083.4000244140625</ele>
        <time>2026-08-21T14:59:26.000Z</time>
        <extensions>
          <ns3:TrackPointExtension>
            <ns3:hr>132</ns3:hr>
            <ns3:cad>76</ns3:cad>
          </ns3:TrackPointExtension>
        </extensions>
      </trkpt>
      <trkpt lat="45.29804379679262638092041015625" lon="-70.86782899685204029083251953125">
        <ele>1083.199951171875</ele>
        <time>2026-08-21T14:59:27.000Z</time>
        <extensions>
          <ns3:TrackPointExtension>
            <ns3:hr>132</ns3:hr>
            <ns3:cad>76</ns3:cad>
          </ns3:TrackPointExtension>
        </extensions>
      </trkpt>
      <trkpt lat="45.2980344928801059722900390625" lon="-70.86785112507641315460205078125">
        <ele>1083.199951171875</ele>
        <time>2026-08-21T14:59:28.000Z</time>
        <extensions>
          <ns3:TrackPointExtension>
            <ns3:hr>131</ns3:hr>
            <ns3:cad>76</ns3:cad>
          </ns3:TrackPointExtension>
        </extensions>
      </trkpt>
      <trkpt lat="45.298023261129856109619140625" lon="-70.86786671541631221771240234375">
        <ele>1082.800048828125</ele>
        <time>2026-08-21T14:59:29.000Z</time>
        <extensions>
          <ns3:TrackPointExtension>
            <ns3:hr>131</ns3:hr>
            <ns3:cad>76</ns3:cad>
          </ns3:TrackPointExtension>
        </extensions>
      </trkpt>
      <trkpt lat="45.298007838428020477294921875" lon="-70.86788297630846500396728515625">
        <ele>1082.5999755859375</ele>
        <time>2026-08-21T14:59:30.000Z</time>
        <extensions>
          <ns3:TrackPointExtension>
            <ns3:hr>131</ns3:hr>
            <ns3:cad>78</ns3:cad>
          </ns3:TrackPointExtension>
        </extensions>
      </trkpt>
      <trkpt lat="45.29799652285873889923095703125" lon="-70.8679055236279964447021484375">
        <ele>1082</ele>
        <time>2026-08-21T14:59:31.000Z</time>
        <extensions>
          <ns3:TrackPointExtension>
            <ns3:hr>131</ns3:hr>
            <ns3:cad>0</ns3:cad>
          </ns3:TrackPointExtension>
        </extensions>
      </trkpt>
      <trkpt lat="45.29798562638461589813232421875" lon="-70.867921449244022369384765625">
        <ele>1081.800048828125</ele>
        <time>2026-08-21T14:59:32.000Z</time>
        <extensions>
          <ns3:TrackPointExtension>
            <ns3:hr>131</ns3:hr>
            <ns3:cad>0</ns3:cad>
          </ns3:TrackPointExtension>
        </extensions>
      </trkpt>
      <trkpt lat="45.2979751490056514739990234375" lon="-70.8679390512406826019287109375">
        <ele>1081.5999755859375</ele>
        <time>2026-08-21T14:59:33.000Z</time>
        <extensions>
          <ns3:TrackPointExtension>
            <ns3:hr>132</ns3:hr>
            <ns3:cad>0</ns3:cad>
          </ns3:TrackPointExtension>
        </extensions>
      </trkpt>
      <trkpt lat="45.29796727001667022705078125" lon="-70.8679578267037868499755859375">
        <ele>1081.4000244140625</ele>
        <time>2026-08-21T14:59:34.000Z</time>
        <extensions>
          <ns3:TrackPointExtension>
            <ns3:hr>131</ns3:hr>
            <ns3:cad>0</ns3:cad>
          </ns3:TrackPointExtension>
        </extensions>
      </trkpt>
      <trkpt lat="45.2979603968560695648193359375" lon="-70.86797383613884449005126953125">
        <ele>1081.199951171875</ele>
        <time>2026-08-21T14:59:35.000Z</time>
        <extensions>
          <ns3:TrackPointExtension>
            <ns3:hr>132</ns3:hr>
            <ns3:cad>0</ns3:cad>
          </ns3:TrackPointExtension>
        </extensions>
      </trkpt>
      <trkpt lat="45.297950170934200286865234375" lon="-70.86799613200128078460693359375">
        <ele>1081.199951171875</ele>
        <time>2026-08-21T14:59:36.000Z</time>
        <extensions>
          <ns3:TrackPointExtension>
            <ns3:hr>132</ns3:hr>
            <ns3:cad>0</ns3:cad>
          </ns3:TrackPointExtension>
        </extensions>
      </trkpt>
      <trkpt lat="45.29794321395456790924072265625" lon="-70.8680069446563720703125">
        <ele>1081</ele>
        <time>2026-08-21T14:59:37.000Z</time>
        <extensions>
          <ns3:TrackPointExtension>
            <ns3:hr>132</ns3:hr>
            <ns3:cad>0</ns3:cad>
          </ns3:TrackPointExtension>
        </extensions>
      </trkpt>
      <trkpt lat="45.29793885536491870880126953125" lon="-70.868017673492431640625">
        <ele>1080.800048828125</ele>
        <time>2026-08-21T14:59:38.000Z</time>
        <extensions>
          <ns3:TrackPointExtension>
            <ns3:hr>132</ns3:hr>
            <ns3:cad>62</ns3:cad>
          </ns3:TrackPointExtension>
        </extensions>
      </trkpt>
      <trkpt lat="45.297931730747222900390625" lon="-70.86803049780428409576416015625">
        <ele>1080.5999755859375</ele>
        <time>2026-08-21T14:59:39.000Z</time>
        <extensions>
          <ns3:TrackPointExtension>
            <ns3:hr>132</ns3:hr>
            <ns3:cad>62</ns3:cad>
          </ns3:TrackPointExtension>
        </extensions>
      </trkpt>
      <trkpt lat="45.29792435467243194580078125" lon="-70.86804172955453395843505859375">
        <ele>1080.5999755859375</ele>
        <time>2026-08-21T14:59:40.000Z</time>
        <extensions>
          <ns3:TrackPointExtension>
            <ns3:hr>132</ns3:hr>
            <ns3:cad>57</ns3:cad>
          </ns3:TrackPointExtension>
        </extensions>
      </trkpt>
      <trkpt lat="45.29791521839797496795654296875" lon="-70.8680557273328304290771484375">
        <ele>1080.4000244140625</ele>
        <time>2026-08-21T14:59:41.000Z</time>
        <extensions>
          <ns3:TrackPointExtension>
            <ns3:hr>132</ns3:hr>
            <ns3:cad>57</ns3:cad>
          </ns3:TrackPointExtension>
        </extensions>
      </trkpt>
      <trkpt lat="45.2979057468473911285400390625" lon="-70.8680672943592071533203125">
        <ele>1080.199951171875</ele>
        <time>2026-08-21T14:59:42.000Z</time>
        <extensions>
          <ns3:TrackPointExtension>
            <ns3:hr>133</ns3:hr>
            <ns3:cad>0</ns3:cad>
          </ns3:TrackPointExtension>
        </extensions>
      </trkpt>
      <trkpt lat="45.2978970296680927276611328125" lon="-70.86807743646204471588134765625">
        <ele>1080</ele>
        <time>2026-08-21T14:59:43.000Z</time>
        <extensions>
          <ns3:TrackPointExtension>
            <ns3:hr>133</ns3:hr>
            <ns3:cad>0</ns3:cad>
          </ns3:TrackPointExtension>
        </extensions>
      </trkpt>
      <trkpt lat="45.2978906594216823577880859375" lon="-70.8680848963558673858642578125">
        <ele>1080</ele>
        <time>2026-08-21T14:59:44.000Z</time>
        <extensions>
          <ns3:TrackPointExtension>
            <ns3:hr>133</ns3:hr>
            <ns3:cad>0</ns3:cad>
          </ns3:TrackPointExtension>
        </extensions>
      </trkpt>
      <trkpt lat="45.297883450984954833984375" lon="-70.86809939704835414886474609375">
        <ele>1079.800048828125</ele>
        <time>2026-08-21T14:59:45.000Z</time>
        <extensions>
          <ns3:TrackPointExtension>
            <ns3:hr>133</ns3:hr>
            <ns3:cad>56</ns3:cad>
          </ns3:TrackPointExtension>
        </extensions>
      </trkpt>
      <trkpt lat="45.29787666164338588714599609375" lon="-70.86810962297022342681884765625">
        <ele>1079.800048828125</ele>
        <time>2026-08-21T14:59:46.000Z</time>
        <extensions>
          <ns3:TrackPointExtension>
            <ns3:hr>132</ns3:hr>
            <ns3:cad>56</ns3:cad>
          </ns3:TrackPointExtension>
        </extensions>
      </trkpt>
      <trkpt lat="45.29787003993988037109375" lon="-70.868117250502109527587890625">
        <ele>1079.800048828125</ele>
        <time>2026-08-21T14:59:47.000Z</time>
        <extensions>
          <ns3:TrackPointExtension>
            <ns3:hr>131</ns3:hr>
            <ns3:cad>50</ns3:cad>
          </ns3:TrackPointExtension>
        </extensions>
      </trkpt>
      <trkpt lat="45.2978618256747722625732421875" lon="-70.868127308785915374755859375">
        <ele>1079.5999755859375</ele>
        <time>2026-08-21T14:59:48.000Z</time>
        <extensions>
          <ns3:TrackPointExtension>
            <ns3:hr>131</ns3:hr>
            <ns3:cad>50</ns3:cad>
          </ns3:TrackPointExtension>
        </extensions>
      </trkpt>
      <trkpt lat="45.2978554554283618927001953125" lon="-70.86813795380294322967529296875">
        <ele>1079.5999755859375</ele>
        <time>2026-08-21T14:59:49.000Z</time>
        <extensions>
          <ns3:TrackPointExtension>
            <ns3:hr>131</ns3:hr>
            <ns3:cad>49</ns3:cad>
          </ns3:TrackPointExtension>
        </extensions>
      </trkpt>
      <trkpt lat="45.297845564782619476318359375" lon="-70.86814868263900279998779296875">
        <ele>1079.5999755859375</ele>
        <time>2026-08-21T14:59:50.000Z</time>
        <extensions>
          <ns3:TrackPointExtension>
            <ns3:hr>131</ns3:hr>
            <ns3:cad>48</ns3:cad>
          </ns3:TrackPointExtension>
        </extensions>
      </trkpt>
      <trkpt lat="45.29783676378428936004638671875" lon="-70.86815823800861835479736328125">
        <ele>1079.4000244140625</ele>
        <time>2026-08-21T14:59:51.000Z</time>
        <extensions>
          <ns3:TrackPointExtension>
            <ns3:hr>131</ns3:hr>
            <ns3:cad>48</ns3:cad>
          </ns3:TrackPointExtension>
        </extensions>
      </trkpt>
      <trkpt lat="45.2978303097188472747802734375" lon="-70.86816661991178989410400390625">
        <ele>1079.4000244140625</ele>
        <time>2026-08-21T14:59:52.000Z</time>
        <extensions>
          <ns3:TrackPointExtension>
            <ns3:hr>131</ns3:hr>
            <ns3:cad>48</ns3:cad>
          </ns3:TrackPointExtension>
        </extensions>
      </trkpt>
      <trkpt lat="45.29782402329146862030029296875" lon="-70.86817282252013683319091796875">
        <ele>1079.199951171875</ele>
        <time>2026-08-21T14:59:53.000Z</time>
        <extensions>
          <ns3:TrackPointExtension>
            <ns3:hr>131</ns3:hr>
            <ns3:cad>48</ns3:cad>
          </ns3:TrackPointExtension>
        </extensions>
      </trkpt>
      <trkpt lat="45.2978155575692653656005859375" lon="-70.86818170733749866485595703125">
        <ele>1079.199951171875</ele>
        <time>2026-08-21T14:59:54.000Z</time>
        <extensions>
          <ns3:TrackPointExtension>
            <ns3:hr>130</ns3:hr>
            <ns3:cad>50</ns3:cad>
          </ns3:TrackPointExtension>
        </extensions>
      </trkpt>
      <trkpt lat="45.2978044934570789337158203125" lon="-70.86818740703165531158447265625">
        <ele>1079</ele>
        <time>2026-08-21T14:59:55.000Z</time>
        <extensions>
          <ns3:TrackPointExtension>
            <ns3:hr>129</ns3:hr>
            <ns3:cad>50</ns3:cad>
          </ns3:TrackPointExtension>
        </extensions>
      </trkpt>
      <trkpt lat="45.2977930940687656402587890625" lon="-70.868191011250019073486328125">
        <ele>1078.800048828125</ele>
        <time>2026-08-21T14:59:56.000Z</time>
        <extensions>
          <ns3:TrackPointExtension>
            <ns3:hr>128</ns3:hr>
            <ns3:cad>50</ns3:cad>
          </ns3:TrackPointExtension>
        </extensions>
      </trkpt>
      <trkpt lat="45.29778010211884975433349609375" lon="-70.868197716772556304931640625">
        <ele>1078.5999755859375</ele>
        <time>2026-08-21T14:59:57.000Z</time>
        <extensions>
          <ns3:TrackPointExtension>
            <ns3:hr>128</ns3:hr>
            <ns3:cad>50</ns3:cad>
          </ns3:TrackPointExtension>
        </extensions>
      </trkpt>
      <trkpt lat="45.29777255840599536895751953125" lon="-70.86820852942764759063720703125">
        <ele>1078.5999755859375</ele>
        <time>2026-08-21T14:59:58.000Z</time>
        <extensions>
          <ns3:TrackPointExtension>
            <ns3:hr>128</ns3:hr>
            <ns3:cad>50</ns3:cad>
          </ns3:TrackPointExtension>
        </extensions>
      </trkpt>
      <trkpt lat="45.29776384122669696807861328125" lon="-70.86822126992046833038330078125">
        <ele>1078.4000244140625</ele>
        <time>2026-08-21T14:59:59.000Z</time>
        <extensions>
          <ns3:TrackPointExtension>
            <ns3:hr>128</ns3:hr>
            <ns3:cad>50</ns3:cad>
          </ns3:TrackPointExtension>
        </extensions>
      </trkpt>
      <trkpt lat="45.2977558784186840057373046875" lon="-70.86823157966136932373046875">
        <ele>1078.4000244140625</ele>
        <time>2026-08-21T15:00:00.000Z</time>
        <extensions>
          <ns3:TrackPointExtension>
            <ns3:hr>128</ns3:hr>
            <ns3:cad>53</ns3:cad>
          </ns3:TrackPointExtension>
        </extensions>
      </trkpt>
      <trkpt lat="45.29774741269648075103759765625" lon="-70.86824289523065090179443359375">
        <ele>1078.199951171875</ele>
        <time>2026-08-21T15:00:01.000Z</time>
        <extensions>
          <ns3:TrackPointExtension>
            <ns3:hr>128</ns3:hr>
            <ns3:cad>53</ns3:cad>
          </ns3:TrackPointExtension>
        </extensions>
      </trkpt>
      <trkpt lat="45.297738276422023773193359375" lon="-70.86825312115252017974853515625">
        <ele>1078.199951171875</ele>
        <time>2026-08-21T15:00:02.000Z</time>
        <extensions>
          <ns3:TrackPointExtension>
            <ns3:hr>127</ns3:hr>
            <ns3:cad>53</ns3:cad>
          </ns3:TrackPointExtension>
        </extensions>
      </trkpt>
      <trkpt lat="45.2977287210524082183837890625" lon="-70.8682657778263092041015625">
        <ele>1078.199951171875</ele>
        <time>2026-08-21T15:00:03.000Z</time>
        <extensions>
          <ns3:TrackPointExtension>
            <ns3:hr>127</ns3:hr>
            <ns3:cad>53</ns3:cad>
          </ns3:TrackPointExtension>
        </extensions>
      </trkpt>
      <trkpt lat="45.29771774075925350189208984375" lon="-70.8682833798229694366455078125">
        <ele>1078.199951171875</ele>
        <time>2026-08-21T15:00:04.000Z</time>
        <extensions>
          <ns3:TrackPointExtension>
            <ns3:hr>126</ns3:hr>
            <ns3:cad>53</ns3:cad>
          </ns3:TrackPointExtension>
        </extensions>
      </trkpt>
      <trkpt lat="45.29770332388579845428466796875" lon="-70.86830927990376949310302734375">
        <ele>1078</ele>
        <time>2026-08-21T15:00:05.000Z</time>
        <extensions>
          <ns3:TrackPointExtension>
            <ns3:hr>125</ns3:hr>
            <ns3:cad>53</ns3:cad>
          </ns3:TrackPointExtension>
        </extensions>
      </trkpt>
      <trkpt lat="45.2976916730403900146484375" lon="-70.86832503788173198699951171875">
        <ele>1077.800048828125</ele>
        <time>2026-08-21T15:00:06.000Z</time>
        <extensions>
          <ns3:TrackPointExtension>
            <ns3:hr>125</ns3:hr>
            <ns3:cad>0</ns3:cad>
          </ns3:TrackPointExtension>
        </extensions>
      </trkpt>
      <trkpt lat="45.2976784296333789825439453125" lon="-70.86833107285201549530029296875">
        <ele>1077.5999755859375</ele>
        <time>2026-08-21T15:00:07.000Z</time>
        <extensions>
          <ns3:TrackPointExtension>
            <ns3:hr>125</ns3:hr>
            <ns3:cad>0</ns3:cad>
          </ns3:TrackPointExtension>
        </extensions>
      </trkpt>
      <trkpt lat="45.29765923507511615753173828125" lon="-70.868335179984569549560546875">
        <ele>1077.4000244140625</ele>
        <time>2026-08-21T15:00:08.000Z</time>
        <extensions>
          <ns3:TrackPointExtension>
            <ns3:hr>124</ns3:hr>
            <ns3:cad>0</ns3:cad>
          </ns3:TrackPointExtension>
        </extensions>
      </trkpt>
      <trkpt lat="45.297636352479457855224609375" lon="-70.8683430589735507965087890625">
        <ele>1077.4000244140625</ele>
        <time>2026-08-21T15:00:09.000Z</time>
        <extensions>
          <ns3:TrackPointExtension>
            <ns3:hr>124</ns3:hr>
            <ns3:cad>72</ns3:cad>
          </ns3:TrackPointExtension>
        </extensions>
      </trkpt>
      <trkpt lat="45.29761782847344875335693359375" lon="-70.86834666319191455841064453125">
        <ele>1077.199951171875</ele>
        <time>2026-08-21T15:00:10.000Z</time>
        <extensions>
          <ns3:TrackPointExtension>
            <ns3:hr>124</ns3:hr>
            <ns3:cad>72</ns3:cad>
          </ns3:TrackPointExtension>
        </extensions>
      </trkpt>
      <trkpt lat="45.29760307632386684417724609375" lon="-70.86834213696420192718505859375">
        <ele>1077</ele>
        <time>2026-08-21T15:00:11.000Z</time>
        <extensions>
          <ns3:TrackPointExtension>
            <ns3:hr>124</ns3:hr>
            <ns3:cad>72</ns3:cad>
          </ns3:TrackPointExtension>
        </extensions>
      </trkpt>
      <trkpt lat="45.297584049403667449951171875" lon="-70.86833752691745758056640625">
        <ele>1077</ele>
        <time>2026-08-21T15:00:12.000Z</time>
        <extensions>
          <ns3:TrackPointExtension>
            <ns3:hr>124</ns3:hr>
            <ns3:cad>72</ns3:cad>
          </ns3:TrackPointExtension>
        </extensions>
      </trkpt>
      <trkpt lat="45.29756837524473667144775390625" lon="-70.868335179984569549560546875">
        <ele>1076.800048828125</ele>
        <time>2026-08-21T15:00:13.000Z</time>
        <extensions>
          <ns3:TrackPointExtension>
            <ns3:hr>124</ns3:hr>
            <ns3:cad>72</ns3:cad>
          </ns3:TrackPointExtension>
        </extensions>
      </trkpt>
      <trkpt lat="45.297553539276123046875" lon="-70.86832813918590545654296875">
        <ele>1076.800048828125</ele>
        <time>2026-08-21T15:00:14.000Z</time>
        <extensions>
          <ns3:TrackPointExtension>
            <ns3:hr>124</ns3:hr>
            <ns3:cad>76</ns3:cad>
          </ns3:TrackPointExtension>
        </extensions>
      </trkpt>
      <trkpt lat="45.29753786511719226837158203125" lon="-70.86832000873982906341552734375">
        <ele>1076.5999755859375</ele>
        <time>2026-08-21T15:00:15.000Z</time>
        <extensions>
          <ns3:TrackPointExtension>
            <ns3:hr>124</ns3:hr>
            <ns3:cad>76</ns3:cad>
          </ns3:TrackPointExtension>
        </extensions>
      </trkpt>
      <trkpt lat="45.2975231967866420745849609375" lon="-70.86832034401595592498779296875">
        <ele>1076.5999755859375</ele>
        <time>2026-08-21T15:00:16.000Z</time>
        <extensions>
          <ns3:TrackPointExtension>
            <ns3:hr>125</ns3:hr>
            <ns3:cad>76</ns3:cad>
          </ns3:TrackPointExtension>
        </extensions>
      </trkpt>
      <trkpt lat="45.29750836081802845001220703125" lon="-70.86831615306437015533447265625">
        <ele>1076.4000244140625</ele>
        <time>2026-08-21T15:00:17.000Z</time>
        <extensions>
          <ns3:TrackPointExtension>
            <ns3:hr>125</ns3:hr>
            <ns3:cad>76</ns3:cad>
          </ns3:TrackPointExtension>
        </extensions>
      </trkpt>
      <trkpt lat="45.297494865953922271728515625" lon="-70.86830860935151576995849609375">
        <ele>1076.199951171875</ele>
        <time>2026-08-21T15:00:18.000Z</time>
        <extensions>
          <ns3:TrackPointExtension>
            <ns3:hr>125</ns3:hr>
            <ns3:cad>72</ns3:cad>
          </ns3:TrackPointExtension>
        </extensions>
      </trkpt>
      <trkpt lat="45.29747919179499149322509765625" lon="-70.868297629058361053466796875">
        <ele>1076</ele>
        <time>2026-08-21T15:00:19.000Z</time>
        <extensions>
          <ns3:TrackPointExtension>
            <ns3:hr>125</ns3:hr>
            <ns3:cad>72</ns3:cad>
          </ns3:TrackPointExtension>
        </extensions>
      </trkpt>
      <trkpt lat="45.297462679445743560791015625" lon="-70.86828715167939662933349609375">
        <ele>1075.800048828125</ele>
        <time>2026-08-21T15:00:20.000Z</time>
        <extensions>
          <ns3:TrackPointExtension>
            <ns3:hr>125</ns3:hr>
            <ns3:cad>72</ns3:cad>
          </ns3:TrackPointExtension>
        </extensions>
      </trkpt>
      <trkpt lat="45.29744247905910015106201171875" lon="-70.8682817034423351287841796875">
        <ele>1075.5999755859375</ele>
        <time>2026-08-21T15:00:21.000Z</time>
        <extensions>
          <ns3:TrackPointExtension>
            <ns3:hr>126</ns3:hr>
            <ns3:cad>72</ns3:cad>
          </ns3:TrackPointExtension>
        </extensions>
      </trkpt>
      <trkpt lat="45.2974182553589344024658203125" lon="-70.8682773448526859283447265625">
        <ele>1075.4000244140625</ele>
        <time>2026-08-21T15:00:22.000Z</time>
        <extensions>
          <ns3:TrackPointExtension>
            <ns3:hr>126</ns3:hr>
            <ns3:cad>72</ns3:cad>
          </ns3:TrackPointExtension>
        </extensions>
      </trkpt>
      <trkpt lat="45.297399647533893585205078125" lon="-70.8682736568152904510498046875">
        <ele>1075.199951171875</ele>
        <time>2026-08-21T15:00:23.000Z</time>
        <extensions>
          <ns3:TrackPointExtension>
            <ns3:hr>127</ns3:hr>
            <ns3:cad>72</ns3:cad>
          </ns3:TrackPointExtension>
        </extensions>
      </trkpt>
      <trkpt lat="45.2973776869475841522216796875" lon="-70.8682679571211338043212890625">
        <ele>1075</ele>
        <time>2026-08-21T15:00:24.000Z</time>
        <extensions>
          <ns3:TrackPointExtension>
            <ns3:hr>127</ns3:hr>
            <ns3:cad>72</ns3:cad>
          </ns3:TrackPointExtension>
        </extensions>
      </trkpt>
      <trkpt lat="45.29735748656094074249267578125" lon="-70.86825781501829624176025390625">
        <ele>1074.800048828125</ele>
        <time>2026-08-21T15:00:25.000Z</time>
        <extensions>
          <ns3:TrackPointExtension>
            <ns3:hr>128</ns3:hr>
            <ns3:cad>72</ns3:cad>
          </ns3:TrackPointExtension>
        </extensions>
      </trkpt>
      <trkpt lat="45.29734097421169281005859375" lon="-70.868245996534824371337890625">
        <ele>1074.5999755859375</ele>
        <time>2026-08-21T15:00:26.000Z</time>
        <extensions>
          <ns3:TrackPointExtension>
            <ns3:hr>128</ns3:hr>
            <ns3:cad>72</ns3:cad>
          </ns3:TrackPointExtension>
        </extensions>
      </trkpt>
      <trkpt lat="45.2973260544240474700927734375" lon="-70.86823300458490848541259765625">
        <ele>1074.4000244140625</ele>
        <time>2026-08-21T15:00:27.000Z</time>
        <extensions>
          <ns3:TrackPointExtension>
            <ns3:hr>128</ns3:hr>
            <ns3:cad>72</ns3:cad>
          </ns3:TrackPointExtension>
        </extensions>
      </trkpt>
      <trkpt lat="45.297308452427387237548828125" lon="-70.8682193420827388763427734375">
        <ele>1074</ele>
        <time>2026-08-21T15:00:28.000Z</time>
        <extensions>
          <ns3:TrackPointExtension>
            <ns3:hr>127</ns3:hr>
            <ns3:cad>72</ns3:cad>
          </ns3:TrackPointExtension>
        </extensions>
      </trkpt>
      <trkpt lat="45.29729462228715419769287109375" lon="-70.86820802651345729827880859375">
        <ele>1073.800048828125</ele>
        <time>2026-08-21T15:00:29.000Z</time>
        <extensions>
          <ns3:TrackPointExtension>
            <ns3:hr>127</ns3:hr>
            <ns3:cad>72</ns3:cad>
          </ns3:TrackPointExtension>
        </extensions>
      </trkpt>
      <trkpt lat="45.29727819375693798065185546875" lon="-70.868201740086078643798828125">
        <ele>1073.5999755859375</ele>
        <time>2026-08-21T15:00:30.000Z</time>
        <extensions>
          <ns3:TrackPointExtension>
            <ns3:hr>127</ns3:hr>
            <ns3:cad>76</ns3:cad>
          </ns3:TrackPointExtension>
        </extensions>
      </trkpt>
      <trkpt lat="45.29725824482738971710205078125" lon="-70.86819679476320743560791015625">
        <ele>1073.4000244140625</ele>
        <time>2026-08-21T15:00:31.000Z</time>
        <extensions>
          <ns3:TrackPointExtension>
            <ns3:hr>127</ns3:hr>
            <ns3:cad>76</ns3:cad>
          </ns3:TrackPointExtension>
        </extensions>
      </trkpt>
      <trkpt lat="45.29724399559199810028076171875" lon="-70.86819377727806568145751953125">
        <ele>1073</ele>
        <time>2026-08-21T15:00:32.000Z</time>
        <extensions>
          <ns3:TrackPointExtension>
            <ns3:hr>127</ns3:hr>
            <ns3:cad>76</ns3:cad>
          </ns3:TrackPointExtension>
        </extensions>
      </trkpt>
      <trkpt lat="45.29722857289016246795654296875" lon="-70.8681938610970973968505859375">
        <ele>1072.800048828125</ele>
        <time>2026-08-21T15:00:33.000Z</time>
        <extensions>
          <ns3:TrackPointExtension>
            <ns3:hr>126</ns3:hr>
            <ns3:cad>76</ns3:cad>
          </ns3:TrackPointExtension>
        </extensions>
      </trkpt>
      <trkpt lat="45.29721080325543880462646484375" lon="-70.8681955374777317047119140625">
        <ele>1072.5999755859375</ele>
        <time>2026-08-21T15:00:34.000Z</time>
        <extensions>
          <ns3:TrackPointExtension>
            <ns3:hr>127</ns3:hr>
            <ns3:cad>76</ns3:cad>
          </ns3:TrackPointExtension>
        </extensions>
      </trkpt>
      <trkpt lat="45.2971981465816497802734375" lon="-70.86820215918123722076416015625">
        <ele>1072.4000244140625</ele>
        <time>2026-08-21T15:00:35.000Z</time>
        <extensions>
          <ns3:TrackPointExtension>
            <ns3:hr>127</ns3:hr>
            <ns3:cad>75</ns3:cad>
          </ns3:TrackPointExtension>
        </extensions>
      </trkpt>
      <trkpt lat="45.2971855737268924713134765625" lon="-70.8682176657021045684814453125">
        <ele>1072.4000244140625</ele>
        <time>2026-08-21T15:00:36.000Z</time>
        <extensions>
          <ns3:TrackPointExtension>
            <ns3:hr>128</ns3:hr>
            <ns3:cad>75</ns3:cad>
          </ns3:TrackPointExtension>
        </extensions>
      </trkpt>
      <trkpt lat="45.297175683081150054931640625" lon="-70.86823266930878162384033203125">
        <ele>1072.199951171875</ele>
        <time>2026-08-21T15:00:37.000Z</time>
        <extensions>
          <ns3:TrackPointExtension>
            <ns3:hr>128</ns3:hr>
            <ns3:cad>75</ns3:cad>
          </ns3:TrackPointExtension>
        </extensions>
      </trkpt>
      <trkpt lat="45.2971686422824859619140625" lon="-70.86824406869709491729736328125">
        <ele>1072.4000244140625</ele>
        <time>2026-08-21T15:00:38.000Z</time>
        <extensions>
          <ns3:TrackPointExtension>
            <ns3:hr>128</ns3:hr>
            <ns3:cad>0</ns3:cad>
          </ns3:TrackPointExtension>
        </extensions>
      </trkpt>
      <trkpt lat="45.2971651218831539154052734375" lon="-70.86826032958924770355224609375">
        <ele>1072.4000244140625</ele>
        <time>2026-08-21T15:00:39.000Z</time>
        <extensions>
          <ns3:TrackPointExtension>
            <ns3:hr>127</ns3:hr>
            <ns3:cad>0</ns3:cad>
          </ns3:TrackPointExtension>
        </extensions>
      </trkpt>
      <trkpt lat="45.29716269113123416900634765625" lon="-70.86828782223165035247802734375">
        <ele>1072.5999755859375</ele>
        <time>2026-08-21T15:00:40.000Z</time>
        <extensions>
          <ns3:TrackPointExtension>
            <ns3:hr>128</ns3:hr>
            <ns3:cad>0</ns3:cad>
          </ns3:TrackPointExtension>
        </extensions>
      </trkpt>
      <trkpt lat="45.29716528952121734619140625" lon="-70.86831347085535526275634765625">
        <ele>1072.800048828125</ele>
        <time>2026-08-21T15:00:41.000Z</time>
        <extensions>
          <ns3:TrackPointExtension>
            <ns3:hr>128</ns3:hr>
            <ns3:cad>0</ns3:cad>
          </ns3:TrackPointExtension>
        </extensions>
      </trkpt>
      <trkpt lat="45.297166965901851654052734375" lon="-70.8683313243091106414794921875">
        <ele>1073</ele>
        <time>2026-08-21T15:00:42.000Z</time>
        <extensions>
          <ns3:TrackPointExtension>
            <ns3:hr>127</ns3:hr>
            <ns3:cad>0</ns3:cad>
          </ns3:TrackPointExtension>
        </extensions>
      </trkpt>
      <trkpt lat="45.29716922901570796966552734375" lon="-70.86835286580026149749755859375">
        <ele>1073</ele>
        <time>2026-08-21T15:00:43.000Z</time>
        <extensions>
          <ns3:TrackPointExtension>
            <ns3:hr>127</ns3:hr>
            <ns3:cad>51</ns3:cad>
          </ns3:TrackPointExtension>
        </extensions>
      </trkpt>
      <trkpt lat="45.29717006720602512359619140625" lon="-70.86837365292012691497802734375">
        <ele>1073.199951171875</ele>
        <time>2026-08-21T15:00:44.000Z</time>
        <extensions>
          <ns3:TrackPointExtension>
            <ns3:hr>127</ns3:hr>
            <ns3:cad>51</ns3:cad>
          </ns3:TrackPointExtension>
        </extensions>
      </trkpt>
      <trkpt lat="45.297173671424388885498046875" lon="-70.86839175783097743988037109375">
        <ele>1073.4000244140625</ele>
        <time>2026-08-21T15:00:45.000Z</time>
        <extensions>
          <ns3:TrackPointExtension>
            <ns3:hr>127</ns3:hr>
            <ns3:cad>52</ns3:cad>
          </ns3:TrackPointExtension>
        </extensions>
      </trkpt>
      <trkpt lat="45.29717761091887950897216796875" lon="-70.86840726435184478759765625">
        <ele>1073.5999755859375</ele>
        <time>2026-08-21T15:00:46.000Z</time>
        <extensions>
          <ns3:TrackPointExtension>
            <ns3:hr>127</ns3:hr>
            <ns3:cad>52</ns3:cad>
          </ns3:TrackPointExtension>
        </extensions>
      </trkpt>
      <trkpt lat="45.297181718051433563232421875" lon="-70.86842008866369724273681640625">
        <ele>1073.5999755859375</ele>
        <time>2026-08-21T15:00:47.000Z</time>
        <extensions>
          <ns3:TrackPointExtension>
            <ns3:hr>127</ns3:hr>
            <ns3:cad>53</ns3:cad>
          </ns3:TrackPointExtension>
        </extensions>
      </trkpt>
      <trkpt lat="45.2971855737268924713134765625" lon="-70.868433751165866851806640625">
        <ele>1073.800048828125</ele>
        <time>2026-08-21T15:00:48.000Z</time>
        <extensions>
          <ns3:TrackPointExtension>
            <ns3:hr>127</ns3:hr>
            <ns3:cad>52</ns3:cad>
          </ns3:TrackPointExtension>
        </extensions>
      </trkpt>
      <trkpt lat="45.29718951322138309478759765625" lon="-70.8684466592967510223388671875">
        <ele>1074</ele>
        <time>2026-08-21T15:00:49.000Z</time>
        <extensions>
          <ns3:TrackPointExtension>
            <ns3:hr>127</ns3:hr>
            <ns3:cad>52</ns3:cad>
          </ns3:TrackPointExtension>
        </extensions>
      </trkpt>
      <trkpt lat="45.29719571582973003387451171875" lon="-70.86846099235117435455322265625">
        <ele>1074.199951171875</ele>
        <time>2026-08-21T15:00:50.000Z</time>
        <extensions>
          <ns3:TrackPointExtension>
            <ns3:hr>127</ns3:hr>
            <ns3:cad>52</ns3:cad>
          </ns3:TrackPointExtension>
        </extensions>
      </trkpt>
      <trkpt lat="45.2972008287906646728515625" lon="-70.86847205646336078643798828125">
        <ele>1074.4000244140625</ele>
        <time>2026-08-21T15:00:51.000Z</time>
        <extensions>
          <ns3:TrackPointExtension>
            <ns3:hr>127</ns3:hr>
            <ns3:cad>52</ns3:cad>
          </ns3:TrackPointExtension>
        </extensions>
      </trkpt>
      <trkpt lat="45.29720393009483814239501953125" lon="-70.86848630569875240325927734375">
        <ele>1074.5999755859375</ele>
        <time>2026-08-21T15:00:52.000Z</time>
        <extensions>
          <ns3:TrackPointExtension>
            <ns3:hr>128</ns3:hr>
            <ns3:cad>49</ns3:cad>
          </ns3:TrackPointExtension>
        </extensions>
      </trkpt>
      <trkpt lat="45.29720879159867763519287109375" lon="-70.86850457824766635894775390625">
        <ele>1074.5999755859375</ele>
        <time>2026-08-21T15:00:53.000Z</time>
        <extensions>
          <ns3:TrackPointExtension>
            <ns3:hr>129</ns3:hr>
            <ns3:cad>47</ns3:cad>
          </ns3:TrackPointExtension>
        </extensions>
      </trkpt>
      <trkpt lat="45.29721558094024658203125" lon="-70.86852050386369228363037109375">
        <ele>1074.800048828125</ele>
        <time>2026-08-21T15:00:54.000Z</time>
        <extensions>
          <ns3:TrackPointExtension>
            <ns3:hr>129</ns3:hr>
            <ns3:cad>47</ns3:cad>
          </ns3:TrackPointExtension>
        </extensions>
      </trkpt>
      <trkpt lat="45.297223627567291259765625" lon="-70.86853525601327419281005859375">
        <ele>1075</ele>
        <time>2026-08-21T15:00:55.000Z</time>
        <extensions>
          <ns3:TrackPointExtension>
            <ns3:hr>129</ns3:hr>
            <ns3:cad>48</ns3:cad>
          </ns3:TrackPointExtension>
        </extensions>
      </trkpt>
      <trkpt lat="45.29723024927079677581787109375" lon="-70.8685485832393169403076171875">
        <ele>1075</ele>
        <time>2026-08-21T15:00:56.000Z</time>
        <extensions>
          <ns3:TrackPointExtension>
            <ns3:hr>130</ns3:hr>
            <ns3:cad>48</ns3:cad>
          </ns3:TrackPointExtension>
        </extensions>
      </trkpt>
      <trkpt lat="45.297236703336238861083984375" lon="-70.86856107227504253387451171875">
        <ele>1075.199951171875</ele>
        <time>2026-08-21T15:00:57.000Z</time>
        <extensions>
          <ns3:TrackPointExtension>
            <ns3:hr>130</ns3:hr>
            <ns3:cad>49</ns3:cad>
          </ns3:TrackPointExtension>
        </extensions>
      </trkpt>
      <trkpt lat="45.29724332503974437713623046875" lon="-70.86857766844332218170166015625">
        <ele>1075.199951171875</ele>
        <time>2026-08-21T15:00:58.000Z</time>
        <extensions>
          <ns3:TrackPointExtension>
            <ns3:hr>130</ns3:hr>
            <ns3:cad>50</ns3:cad>
          </ns3:TrackPointExtension>
        </extensions>
      </trkpt>
      <trkpt lat="45.297248102724552154541015625" lon="-70.86859225295484066009521484375">
        <ele>1075.4000244140625</ele>
        <time>2026-08-21T15:00:59.000Z</time>
        <extensions>
          <ns3:TrackPointExtension>
            <ns3:hr>130</ns3:hr>
            <ns3:cad>50</ns3:cad>
          </ns3:TrackPointExtension>
        </extensions>
      </trkpt>
      <trkpt lat="45.2972529642283916473388671875" lon="-70.86860633455216884613037109375">
        <ele>1075.5999755859375</ele>
        <time>2026-08-21T15:01:00.000Z</time>
        <extensions>
          <ns3:TrackPointExtension>
            <ns3:hr>131</ns3:hr>
            <ns3:cad>49</ns3:cad>
          </ns3:TrackPointExtension>
        </extensions>
      </trkpt>
      <trkpt lat="45.2972626872360706329345703125" lon="-70.86861890740692615509033203125">
        <ele>1075.800048828125</ele>
        <time>2026-08-21T15:01:01.000Z</time>
        <extensions>
          <ns3:TrackPointExtension>
            <ns3:hr>130</ns3:hr>
            <ns3:cad>49</ns3:cad>
          </ns3:TrackPointExtension>
        </extensions>
      </trkpt>
      <trkpt lat="45.29727031476795673370361328125" lon="-70.86863634176552295684814453125">
        <ele>1076</ele>
        <time>2026-08-21T15:01:02.000Z</time>
        <extensions>
          <ns3:TrackPointExtension>
            <ns3:hr>130</ns3:hr>
            <ns3:cad>49</ns3:cad>
          </ns3:TrackPointExtension>
        </extensions>
      </trkpt>
      <trkpt lat="45.29727660119533538818359375" lon="-70.86865612305700778961181640625">
        <ele>1076</ele>
        <time>2026-08-21T15:01:03.000Z</time>
        <extensions>
          <ns3:TrackPointExtension>
            <ns3:hr>131</ns3:hr>
            <ns3:cad>49</ns3:cad>
          </ns3:TrackPointExtension>
        </extensions>
      </trkpt>
      <trkpt lat="45.297288335859775543212890625" lon="-70.8686679415404796600341796875">
        <ele>1076.199951171875</ele>
        <time>2026-08-21T15:01:04.000Z</time>
        <extensions>
          <ns3:TrackPointExtension>
            <ns3:hr>131</ns3:hr>
            <ns3:cad>54</ns3:cad>
          </ns3:TrackPointExtension>
        </extensions>
      </trkpt>
      <trkpt lat="45.2972973883152008056640625" lon="-70.86868395097553730010986328125">
        <ele>1076.199951171875</ele>
        <time>2026-08-21T15:01:05.000Z</time>
        <extensions>
          <ns3:TrackPointExtension>
            <ns3:hr>131</ns3:hr>
            <ns3:cad>55</ns3:cad>
          </ns3:TrackPointExtension>
        </extensions>
      </trkpt>
      <trkpt lat="45.297306440770626068115234375" lon="-70.8687018044292926788330078125">
        <ele>1076.199951171875</ele>
        <time>2026-08-21T15:01:06.000Z</time>
        <extensions>
          <ns3:TrackPointExtension>
            <ns3:hr>132</ns3:hr>
            <ns3:cad>55</ns3:cad>
          </ns3:TrackPointExtension>
        </extensions>
      </trkpt>
      <trkpt lat="45.29731574468314647674560546875" lon="-70.86871781386435031890869140625">
        <ele>1076.199951171875</ele>
        <time>2026-08-21T15:01:07.000Z</time>
        <extensions>
          <ns3:TrackPointExtension>
            <ns3:hr>132</ns3:hr>
            <ns3:cad>56</ns3:cad>
          </ns3:TrackPointExtension>
        </extensions>
      </trkpt>
      <trkpt lat="45.2973240427672863006591796875" lon="-70.8687363378703594207763671875">
        <ele>1076.199951171875</ele>
        <time>2026-08-21T15:01:08.000Z</time>
        <extensions>
          <ns3:TrackPointExtension>
            <ns3:hr>132</ns3:hr>
            <ns3:cad>56</ns3:cad>
          </ns3:TrackPointExtension>
        </extensions>
      </trkpt>
      <trkpt lat="45.29732848517596721649169921875" lon="-70.86874882690608501434326171875">
        <ele>1076.4000244140625</ele>
        <time>2026-08-21T15:01:09.000Z</time>
        <extensions>
          <ns3:TrackPointExtension>
            <ns3:hr>132</ns3:hr>
            <ns3:cad>55</ns3:cad>
          </ns3:TrackPointExtension>
        </extensions>
      </trkpt>
      <trkpt lat="45.29733686707913875579833984375" lon="-70.8687621541321277618408203125">
        <ele>1076.4000244140625</ele>
        <time>2026-08-21T15:01:10.000Z</time>
        <extensions>
          <ns3:TrackPointExtension>
            <ns3:hr>132</ns3:hr>
            <ns3:cad>55</ns3:cad>
          </ns3:TrackPointExtension>
        </extensions>
      </trkpt>
      <trkpt lat="45.29734793119132518768310546875" lon="-70.868787467479705810546875">
        <ele>1076.4000244140625</ele>
        <time>2026-08-21T15:01:11.000Z</time>
        <extensions>
          <ns3:TrackPointExtension>
            <ns3:hr>130</ns3:hr>
            <ns3:cad>55</ns3:cad>
          </ns3:TrackPointExtension>
        </extensions>
      </trkpt>
      <trkpt lat="45.2973501943051815032958984375" lon="-70.868803560733795166015625">
        <ele>1076.5999755859375</ele>
        <time>2026-08-21T15:01:12.000Z</time>
        <extensions>
          <ns3:TrackPointExtension>
            <ns3:hr>129</ns3:hr>
            <ns3:cad>55</ns3:cad>
          </ns3:TrackPointExtension>
        </extensions>
      </trkpt>
      <trkpt lat="45.29735706746578216552734375" lon="-70.86881873197853565216064453125">
        <ele>1076.5999755859375</ele>
        <time>2026-08-21T15:01:13.000Z</time>
        <extensions>
          <ns3:TrackPointExtension>
            <ns3:hr>129</ns3:hr>
            <ns3:cad>55</ns3:cad>
          </ns3:TrackPointExtension>
        </extensions>
      </trkpt>
      <trkpt lat="45.29736368916928768157958984375" lon="-70.86883884854614734649658203125">
        <ele>1076.5999755859375</ele>
        <time>2026-08-21T15:01:14.000Z</time>
        <extensions>
          <ns3:TrackPointExtension>
            <ns3:hr>129</ns3:hr>
            <ns3:cad>57</ns3:cad>
          </ns3:TrackPointExtension>
        </extensions>
      </trkpt>
      <trkpt lat="45.29737156815826892852783203125" lon="-70.86886047385632991790771484375">
        <ele>1076.5999755859375</ele>
        <time>2026-08-21T15:01:15.000Z</time>
        <extensions>
          <ns3:TrackPointExtension>
            <ns3:hr>130</ns3:hr>
            <ns3:cad>59</ns3:cad>
          </ns3:TrackPointExtension>
        </extensions>
      </trkpt>
      <trkpt lat="45.2973837219178676605224609375" lon="-70.8688746392726898193359375">
        <ele>1076.5999755859375</ele>
        <time>2026-08-21T15:01:16.000Z</time>
        <extensions>
          <ns3:TrackPointExtension>
            <ns3:hr>131</ns3:hr>
            <ns3:cad>59</ns3:cad>
          </ns3:TrackPointExtension>
        </extensions>
      </trkpt>
      <trkpt lat="45.2973967976868152618408203125" lon="-70.8688935823738574981689453125">
        <ele>1076.800048828125</ele>
        <time>2026-08-21T15:01:17.000Z</time>
        <extensions>
          <ns3:TrackPointExtension>
            <ns3:hr>132</ns3:hr>
            <ns3:cad>59</ns3:cad>
          </ns3:TrackPointExtension>
        </extensions>
      </trkpt>
      <trkpt lat="45.2974105440080165863037109375" lon="-70.86891277693212032318115234375">
        <ele>1076.800048828125</ele>
        <time>2026-08-21T15:01:18.000Z</time>
        <extensions>
          <ns3:TrackPointExtension>
            <ns3:hr>134</ns3:hr>
            <ns3:cad>59</ns3:cad>
          </ns3:TrackPointExtension>
        </extensions>
      </trkpt>
      <trkpt lat="45.29742185957729816436767578125" lon="-70.86892384104430675506591796875">
        <ele>1076.800048828125</ele>
        <time>2026-08-21T15:01:19.000Z</time>
        <extensions>
          <ns3:TrackPointExtension>
            <ns3:hr>134</ns3:hr>
            <ns3:cad>56</ns3:cad>
          </ns3:TrackPointExtension>
        </extensions>
      </trkpt>
      <trkpt lat="45.29743309132754802703857421875" lon="-70.8689403533935546875">
        <ele>1076.800048828125</ele>
        <time>2026-08-21T15:01:20.000Z</time>
        <extensions>
          <ns3:TrackPointExtension>
            <ns3:hr>135</ns3:hr>
            <ns3:cad>56</ns3:cad>
          </ns3:TrackPointExtension>
        </extensions>
      </trkpt>
      <trkpt lat="45.29744113795459270477294921875" lon="-70.86895435117185115814208984375">
        <ele>1076.800048828125</ele>
        <time>2026-08-21T15:01:21.000Z</time>
        <extensions>
          <ns3:TrackPointExtension>
            <ns3:hr>136</ns3:hr>
            <ns3:cad>56</ns3:cad>
          </ns3:TrackPointExtension>
        </extensions>
      </trkpt>
      <trkpt lat="45.29744918458163738250732421875" lon="-70.8689723722636699676513671875">
        <ele>1076.800048828125</ele>
        <time>2026-08-21T15:01:22.000Z</time>
        <extensions>
          <ns3:TrackPointExtension>
            <ns3:hr>137</ns3:hr>
            <ns3:cad>56</ns3:cad>
          </ns3:TrackPointExtension>
        </extensions>
      </trkpt>
      <trkpt lat="45.2974594943225383758544921875" lon="-70.86898569948971271514892578125">
        <ele>1077</ele>
        <time>2026-08-21T15:01:23.000Z</time>
        <extensions>
          <ns3:TrackPointExtension>
            <ns3:hr>137</ns3:hr>
            <ns3:cad>56</ns3:cad>
          </ns3:TrackPointExtension>
        </extensions>
      </trkpt>
      <trkpt lat="45.29746645130217075347900390625" lon="-70.869002044200897216796875">
        <ele>1077</ele>
        <time>2026-08-21T15:01:24.000Z</time>
        <extensions>
          <ns3:TrackPointExtension>
            <ns3:hr>137</ns3:hr>
            <ns3:cad>56</ns3:cad>
          </ns3:TrackPointExtension>
        </extensions>
      </trkpt>
      <trkpt lat="45.297474078834056854248046875" lon="-70.86901989765465259552001953125">
        <ele>1077</ele>
        <time>2026-08-21T15:01:25.000Z</time>
        <extensions>
          <ns3:TrackPointExtension>
            <ns3:hr>137</ns3:hr>
            <ns3:cad>56</ns3:cad>
          </ns3:TrackPointExtension>
        </extensions>
      </trkpt>
      <trkpt lat="45.29748983681201934814453125" lon="-70.8690280281007289886474609375">
        <ele>1077.199951171875</ele>
        <time>2026-08-21T15:01:26.000Z</time>
        <extensions>
          <ns3:TrackPointExtension>
            <ns3:hr>137</ns3:hr>
            <ns3:cad>56</ns3:cad>
          </ns3:TrackPointExtension>
        </extensions>
      </trkpt>
      <trkpt lat="45.29750324785709381103515625" lon="-70.86904420517385005950927734375">
        <ele>1077.199951171875</ele>
        <time>2026-08-21T15:01:27.000Z</time>
        <extensions>
          <ns3:TrackPointExtension>
            <ns3:hr>136</ns3:hr>
            <ns3:cad>57</ns3:cad>
          </ns3:TrackPointExtension>
        </extensions>
      </trkpt>
      <trkpt lat="45.29751741327345371246337890625" lon="-70.86906331591308116912841796875">
        <ele>1077.199951171875</ele>
        <time>2026-08-21T15:01:28.000Z</time>
        <extensions>
          <ns3:TrackPointExtension>
            <ns3:hr>135</ns3:hr>
            <ns3:cad>57</ns3:cad>
          </ns3:TrackPointExtension>
        </extensions>
      </trkpt>
      <trkpt lat="45.2975339256227016448974609375" lon="-70.8690736256539821624755859375">
        <ele>1077.199951171875</ele>
        <time>2026-08-21T15:01:29.000Z</time>
        <extensions>
          <ns3:TrackPointExtension>
            <ns3:hr>134</ns3:hr>
            <ns3:cad>57</ns3:cad>
          </ns3:TrackPointExtension>
        </extensions>
      </trkpt>
      <trkpt lat="45.29755228199064731597900390625" lon="-70.869084857404232025146484375">
        <ele>1077.199951171875</ele>
        <time>2026-08-21T15:01:30.000Z</time>
        <extensions>
          <ns3:TrackPointExtension>
            <ns3:hr>134</ns3:hr>
            <ns3:cad>57</ns3:cad>
          </ns3:TrackPointExtension>
        </extensions>
      </trkpt>
      <trkpt lat="45.29756586067378520965576171875" lon="-70.8691004477441310882568359375">
        <ele>1077.199951171875</ele>
        <time>2026-08-21T15:01:31.000Z</time>
        <extensions>
          <ns3:TrackPointExtension>
            <ns3:hr>134</ns3:hr>
            <ns3:cad>74</ns3:cad>
          </ns3:TrackPointExtension>
        </extensions>
      </trkpt>
      <trkpt lat="45.29757692478597164154052734375" lon="-70.86911310441792011260986328125">
        <ele>1077.199951171875</ele>
        <time>2026-08-21T15:01:32.000Z</time>
        <extensions>
          <ns3:TrackPointExtension>
            <ns3:hr>133</ns3:hr>
            <ns3:cad>74</ns3:cad>
          </ns3:TrackPointExtension>
        </extensions>
      </trkpt>
      <trkpt lat="45.29758832417428493499755859375" lon="-70.8691239170730113983154296875">
        <ele>1077.199951171875</ele>
        <time>2026-08-21T15:01:33.000Z</time>
        <extensions>
          <ns3:TrackPointExtension>
            <ns3:hr>133</ns3:hr>
            <ns3:cad>74</ns3:cad>
          </ns3:TrackPointExtension>
        </extensions>
      </trkpt>
      <trkpt lat="45.2976033277809619903564453125" lon="-70.86913741193711757659912109375">
        <ele>1077.199951171875</ele>
        <time>2026-08-21T15:01:34.000Z</time>
        <extensions>
          <ns3:TrackPointExtension>
            <ns3:hr>133</ns3:hr>
            <ns3:cad>74</ns3:cad>
          </ns3:TrackPointExtension>
        </extensions>
      </trkpt>
      <trkpt lat="45.2976170741021633148193359375" lon="-70.86914579384028911590576171875">
        <ele>1077.4000244140625</ele>
        <time>2026-08-21T15:01:35.000Z</time>
        <extensions>
          <ns3:TrackPointExtension>
            <ns3:hr>134</ns3:hr>
            <ns3:cad>74</ns3:cad>
          </ns3:TrackPointExtension>
        </extensions>
      </trkpt>
      <trkpt lat="45.2976288087666034698486328125" lon="-70.8691547624766826629638671875">
        <ele>1077.4000244140625</ele>
        <time>2026-08-21T15:01:36.000Z</time>
        <extensions>
          <ns3:TrackPointExtension>
            <ns3:hr>134</ns3:hr>
            <ns3:cad>73</ns3:cad>
          </ns3:TrackPointExtension>
        </extensions>
      </trkpt>
      <trkpt lat="45.29763199388980865478515625" lon="-70.8691725321114063262939453125">
        <ele>1077.5999755859375</ele>
        <time>2026-08-21T15:01:37.000Z</time>
        <extensions>
          <ns3:TrackPointExtension>
            <ns3:hr>134</ns3:hr>
            <ns3:cad>73</ns3:cad>
          </ns3:TrackPointExtension>
        </extensions>
      </trkpt>
      <trkpt lat="45.29763559810817241668701171875" lon="-70.86919181048870086669921875">
        <ele>1077.5999755859375</ele>
        <time>2026-08-21T15:01:38.000Z</time>
        <extensions>
          <ns3:TrackPointExtension>
            <ns3:hr>134</ns3:hr>
            <ns3:cad>73</ns3:cad>
          </ns3:TrackPointExtension>
        </extensions>
      </trkpt>
      <trkpt lat="45.297635681927204132080078125" lon="-70.86921419017016887664794921875">
        <ele>1077.5999755859375</ele>
        <time>2026-08-21T15:01:39.000Z</time>
        <extensions>
          <ns3:TrackPointExtension>
            <ns3:hr>134</ns3:hr>
            <ns3:cad>73</ns3:cad>
          </ns3:TrackPointExtension>
        </extensions>
      </trkpt>
      <trkpt lat="45.29763459227979183197021484375" lon="-70.86922944523394107818603515625">
        <ele>1077.4000244140625</ele>
        <time>2026-08-21T15:01:40.000Z</time>
        <extensions>
          <ns3:TrackPointExtension>
            <ns3:hr>134</ns3:hr>
            <ns3:cad>73</ns3:cad>
          </ns3:TrackPointExtension>
        </extensions>
      </trkpt>
      <trkpt lat="45.29762939549982547760009765625" lon="-70.86924252100288867950439453125">
        <ele>1077.4000244140625</ele>
        <time>2026-08-21T15:01:41.000Z</time>
        <extensions>
          <ns3:TrackPointExtension>
            <ns3:hr>135</ns3:hr>
            <ns3:cad>73</ns3:cad>
          </ns3:TrackPointExtension>
        </extensions>
      </trkpt>
      <trkpt lat="45.29762386344373226165771484375" lon="-70.86925995536148548126220703125">
        <ele>1077.4000244140625</ele>
        <time>2026-08-21T15:01:42.000Z</time>
        <extensions>
          <ns3:TrackPointExtension>
            <ns3:hr>134</ns3:hr>
            <ns3:cad>73</ns3:cad>
          </ns3:TrackPointExtension>
        </extensions>
      </trkpt>
      <trkpt lat="45.29761992394924163818359375" lon="-70.86928459815680980682373046875">
        <ele>1077.4000244140625</ele>
        <time>2026-08-21T15:01:43.000Z</time>
        <extensions>
          <ns3:TrackPointExtension>
            <ns3:hr>134</ns3:hr>
            <ns3:cad>57</ns3:cad>
          </ns3:TrackPointExtension>
        </extensions>
      </trkpt>
      <trkpt lat="45.2976273000240325927734375" lon="-70.8693130128085613250732421875">
        <ele>1077.199951171875</ele>
        <time>2026-08-21T15:01:44.000Z</time>
        <extensions>
          <ns3:TrackPointExtension>
            <ns3:hr>133</ns3:hr>
            <ns3:cad>57</ns3:cad>
          </ns3:TrackPointExtension>
        </extensions>
      </trkpt>
      <trkpt lat="45.297635681927204132080078125" lon="-70.86932902224361896514892578125">
        <ele>1077.199951171875</ele>
        <time>2026-08-21T15:01:45.000Z</time>
        <extensions>
          <ns3:TrackPointExtension>
            <ns3:hr>133</ns3:hr>
            <ns3:cad>57</ns3:cad>
          </ns3:TrackPointExtension>
        </extensions>
      </trkpt>
      <trkpt lat="45.29763995669782161712646484375" lon="-70.86934695951640605926513671875">
        <ele>1077.199951171875</ele>
        <time>2026-08-21T15:01:46.000Z</time>
        <extensions>
          <ns3:TrackPointExtension>
            <ns3:hr>133</ns3:hr>
            <ns3:cad>57</ns3:cad>
          </ns3:TrackPointExtension>
        </extensions>
      </trkpt>
      <trkpt lat="45.2976432256400585174560546875" lon="-70.86936942301690578460693359375">
        <ele>1077.199951171875</ele>
        <time>2026-08-21T15:01:47.000Z</time>
        <extensions>
          <ns3:TrackPointExtension>
            <ns3:hr>133</ns3:hr>
            <ns3:cad>57</ns3:cad>
          </ns3:TrackPointExtension>
        </extensions>
      </trkpt>
      <trkpt lat="45.29763677157461643218994140625" lon="-70.8693864382803440093994140625">
        <ele>1077.199951171875</ele>
        <time>2026-08-21T15:01:48.000Z</time>
        <extensions>
          <ns3:TrackPointExtension>
            <ns3:hr>132</ns3:hr>
            <ns3:cad>0</ns3:cad>
          </ns3:TrackPointExtension>
        </extensions>
      </trkpt>
      <trkpt lat="45.29762939549982547760009765625" lon="-70.8694068901240825653076171875">
        <ele>1077</ele>
        <time>2026-08-21T15:01:49.000Z</time>
        <extensions>
          <ns3:TrackPointExtension>
            <ns3:hr>132</ns3:hr>
            <ns3:cad>0</ns3:cad>
          </ns3:TrackPointExtension>
        </extensions>
      </trkpt>
      <trkpt lat="45.29762302525341510772705078125" lon="-70.86943329311907291412353515625">
        <ele>1077</ele>
        <time>2026-08-21T15:01:50.000Z</time>
        <extensions>
          <ns3:TrackPointExtension>
            <ns3:hr>132</ns3:hr>
            <ns3:cad>0</ns3:cad>
          </ns3:TrackPointExtension>
        </extensions>
      </trkpt>
      <trkpt lat="45.29762704856693744659423828125" lon="-70.86946112103760242462158203125">
        <ele>1076.800048828125</ele>
        <time>2026-08-21T15:01:51.000Z</time>
        <extensions>
          <ns3:TrackPointExtension>
            <ns3:hr>131</ns3:hr>
            <ns3:cad>0</ns3:cad>
          </ns3:TrackPointExtension>
        </extensions>
      </trkpt>
      <trkpt lat="45.2976365201175212860107421875" lon="-70.86948744021356105804443359375">
        <ele>1076.800048828125</ele>
        <time>2026-08-21T15:01:52.000Z</time>
        <extensions>
          <ns3:TrackPointExtension>
            <ns3:hr>131</ns3:hr>
            <ns3:cad>0</ns3:cad>
          </ns3:TrackPointExtension>
        </extensions>
      </trkpt>
      <trkpt lat="45.29764314182102680206298828125" lon="-70.86951040662825107574462890625">
        <ele>1076.5999755859375</ele>
        <time>2026-08-21T15:01:53.000Z</time>
        <extensions>
          <ns3:TrackPointExtension>
            <ns3:hr>131</ns3:hr>
            <ns3:cad>71</ns3:cad>
          </ns3:TrackPointExtension>
        </extensions>
      </trkpt>
      <trkpt lat="45.2976487576961517333984375" lon="-70.86953873746097087860107421875">
        <ele>1076.5999755859375</ele>
        <time>2026-08-21T15:01:54.000Z</time>
        <extensions>
          <ns3:TrackPointExtension>
            <ns3:hr>131</ns3:hr>
            <ns3:cad>71</ns3:cad>
          </ns3:TrackPointExtension>
        </extensions>
      </trkpt>
      <trkpt lat="45.29765521176159381866455078125" lon="-70.86956103332340717315673828125">
        <ele>1076.4000244140625</ele>
        <time>2026-08-21T15:01:55.000Z</time>
        <extensions>
          <ns3:TrackPointExtension>
            <ns3:hr>131</ns3:hr>
            <ns3:cad>71</ns3:cad>
          </ns3:TrackPointExtension>
        </extensions>
      </trkpt>
      <trkpt lat="45.29766418039798736572265625" lon="-70.86957871913909912109375">
        <ele>1076.4000244140625</ele>
        <time>2026-08-21T15:01:56.000Z</time>
        <extensions>
          <ns3:TrackPointExtension>
            <ns3:hr>131</ns3:hr>
            <ns3:cad>70</ns3:cad>
          </ns3:TrackPointExtension>
        </extensions>
      </trkpt>
      <trkpt lat="45.29766845516860485076904296875" lon="-70.86959741078317165374755859375">
        <ele>1076.4000244140625</ele>
        <time>2026-08-21T15:01:57.000Z</time>
        <extensions>
          <ns3:TrackPointExtension>
            <ns3:hr>131</ns3:hr>
            <ns3:cad>70</ns3:cad>
          </ns3:TrackPointExtension>
        </extensions>
      </trkpt>
      <trkpt lat="45.2976728975772857666015625" lon="-70.86961568333208560943603515625">
        <ele>1076.199951171875</ele>
        <time>2026-08-21T15:01:58.000Z</time>
        <extensions>
          <ns3:TrackPointExtension>
            <ns3:hr>131</ns3:hr>
            <ns3:cad>70</ns3:cad>
          </ns3:TrackPointExtension>
        </extensions>
      </trkpt>
      <trkpt lat="45.29767599888145923614501953125" lon="-70.86963647045195102691650390625">
        <ele>1076.199951171875</ele>
        <time>2026-08-21T15:01:59.000Z</time>
        <extensions>
          <ns3:TrackPointExtension>
            <ns3:hr>131</ns3:hr>
            <ns3:cad>70</ns3:cad>
          </ns3:TrackPointExtension>
        </extensions>
      </trkpt>
      <trkpt lat="45.2976836264133453369140625" lon="-70.8696549944579601287841796875">
        <ele>1076.199951171875</ele>
        <time>2026-08-21T15:02:00.000Z</time>
        <extensions>
          <ns3:TrackPointExtension>
            <ns3:hr>131</ns3:hr>
            <ns3:cad>0</ns3:cad>
          </ns3:TrackPointExtension>
        </extensions>
      </trkpt>
      <trkpt lat="45.29769125394523143768310546875" lon="-70.8696771226823329925537109375">
        <ele>1076</ele>
        <time>2026-08-21T15:02:01.000Z</time>
        <extensions>
          <ns3:TrackPointExtension>
            <ns3:hr>132</ns3:hr>
            <ns3:cad>0</ns3:cad>
          </ns3:TrackPointExtension>
        </extensions>
      </trkpt>
      <trkpt lat="45.29769443906843662261962890625" lon="-70.86970218457281589508056640625">
        <ele>1076</ele>
        <time>2026-08-21T15:02:02.000Z</time>
        <extensions>
          <ns3:TrackPointExtension>
            <ns3:hr>132</ns3:hr>
            <ns3:cad>57</ns3:cad>
          </ns3:TrackPointExtension>
        </extensions>
      </trkpt>
      <trkpt lat="45.2977025695145130157470703125" lon="-70.8697223849594593048095703125">
        <ele>1076</ele>
        <time>2026-08-21T15:02:03.000Z</time>
        <extensions>
          <ns3:TrackPointExtension>
            <ns3:hr>132</ns3:hr>
            <ns3:cad>57</ns3:cad>
          </ns3:TrackPointExtension>
        </extensions>
      </trkpt>
      <trkpt lat="45.29771220870316028594970703125" lon="-70.8697388134896755218505859375">
        <ele>1075.800048828125</ele>
        <time>2026-08-21T15:02:04.000Z</time>
        <extensions>
          <ns3:TrackPointExtension>
            <ns3:hr>132</ns3:hr>
            <ns3:cad>57</ns3:cad>
          </ns3:TrackPointExtension>
        </extensions>
      </trkpt>
      <trkpt lat="45.29772293753921985626220703125" lon="-70.8697528950870037078857421875">
        <ele>1075.800048828125</ele>
        <time>2026-08-21T15:02:05.000Z</time>
        <extensions>
          <ns3:TrackPointExtension>
            <ns3:hr>132</ns3:hr>
            <ns3:cad>60</ns3:cad>
          </ns3:TrackPointExtension>
        </extensions>
      </trkpt>
      <trkpt lat="45.297735594213008880615234375" lon="-70.869765467941761016845703125">
        <ele>1075.5999755859375</ele>
        <time>2026-08-21T15:02:06.000Z</time>
        <extensions>
          <ns3:TrackPointExtension>
            <ns3:hr>132</ns3:hr>
            <ns3:cad>60</ns3:cad>
          </ns3:TrackPointExtension>
        </extensions>
      </trkpt>
      <trkpt lat="45.29774196445941925048828125" lon="-70.86977862752974033355712890625">
        <ele>1075.5999755859375</ele>
        <time>2026-08-21T15:02:07.000Z</time>
        <extensions>
          <ns3:TrackPointExtension>
            <ns3:hr>132</ns3:hr>
            <ns3:cad>60</ns3:cad>
          </ns3:TrackPointExtension>
        </extensions>
      </trkpt>
      <trkpt lat="45.29774456284940242767333984375" lon="-70.86979530751705169677734375">
        <ele>1075.5999755859375</ele>
        <time>2026-08-21T15:02:08.000Z</time>
        <extensions>
          <ns3:TrackPointExtension>
            <ns3:hr>132</ns3:hr>
            <ns3:cad>59</ns3:cad>
          </ns3:TrackPointExtension>
        </extensions>
      </trkpt>
      <trkpt lat="45.29775328002870082855224609375" lon="-70.86980360560119152069091796875">
        <ele>1075.4000244140625</ele>
        <time>2026-08-21T15:02:09.000Z</time>
        <extensions>
          <ns3:TrackPointExtension>
            <ns3:hr>132</ns3:hr>
            <ns3:cad>59</ns3:cad>
          </ns3:TrackPointExtension>
        </extensions>
      </trkpt>
      <trkpt lat="45.29776275157928466796875" lon="-70.869820117950439453125">
        <ele>1075.4000244140625</ele>
        <time>2026-08-21T15:02:10.000Z</time>
        <extensions>
          <ns3:TrackPointExtension>
            <ns3:hr>133</ns3:hr>
            <ns3:cad>57</ns3:cad>
          </ns3:TrackPointExtension>
        </extensions>
      </trkpt>
      <trkpt lat="45.29776233248412609100341796875" lon="-70.86983545683324337005615234375">
        <ele>1075.4000244140625</ele>
        <time>2026-08-21T15:02:11.000Z</time>
        <extensions>
          <ns3:TrackPointExtension>
            <ns3:hr>133</ns3:hr>
            <ns3:cad>57</ns3:cad>
          </ns3:TrackPointExtension>
        </extensions>
      </trkpt>
      <trkpt lat="45.2977635897696018218994140625" lon="-70.8698595128953456878662109375">
        <ele>1075.199951171875</ele>
        <time>2026-08-21T15:02:12.000Z</time>
        <extensions>
          <ns3:TrackPointExtension>
            <ns3:hr>133</ns3:hr>
            <ns3:cad>58</ns3:cad>
          </ns3:TrackPointExtension>
        </extensions>
      </trkpt>
      <trkpt lat="45.2977639250457286834716796875" lon="-70.86988910101354122161865234375">
        <ele>1075.199951171875</ele>
        <time>2026-08-21T15:02:13.000Z</time>
        <extensions>
          <ns3:TrackPointExtension>
            <ns3:hr>132</ns3:hr>
            <ns3:cad>58</ns3:cad>
          </ns3:TrackPointExtension>
        </extensions>
      </trkpt>
      <trkpt lat="45.2977640926837921142578125" lon="-70.869912318885326385498046875">
        <ele>1075.199951171875</ele>
        <time>2026-08-21T15:02:14.000Z</time>
        <extensions>
          <ns3:TrackPointExtension>
            <ns3:hr>132</ns3:hr>
            <ns3:cad>58</ns3:cad>
          </ns3:TrackPointExtension>
        </extensions>
      </trkpt>
      <trkpt lat="45.2977652661502361297607421875" lon="-70.86993671022355556488037109375">
        <ele>1075</ele>
        <time>2026-08-21T15:02:15.000Z</time>
        <extensions>
          <ns3:TrackPointExtension>
            <ns3:hr>132</ns3:hr>
            <ns3:cad>58</ns3:cad>
          </ns3:TrackPointExtension>
        </extensions>
      </trkpt>
      <trkpt lat="45.297772474586963653564453125" lon="-70.8699577488005161285400390625">
        <ele>1075</ele>
        <time>2026-08-21T15:02:16.000Z</time>
        <extensions>
          <ns3:TrackPointExtension>
            <ns3:hr>132</ns3:hr>
            <ns3:cad>58</ns3:cad>
          </ns3:TrackPointExtension>
        </extensions>
      </trkpt>
      <trkpt lat="45.2977810241281986236572265625" lon="-70.8699778653681278228759765625">
        <ele>1074.800048828125</ele>
        <time>2026-08-21T15:02:17.000Z</time>
        <extensions>
          <ns3:TrackPointExtension>
            <ns3:hr>131</ns3:hr>
            <ns3:cad>69</ns3:cad>
          </ns3:TrackPointExtension>
        </extensions>
      </trkpt>
      <trkpt lat="45.2977857179939746856689453125" lon="-70.86999957449734210968017578125">
        <ele>1074.5999755859375</ele>
        <time>2026-08-21T15:02:18.000Z</time>
        <extensions>
          <ns3:TrackPointExtension>
            <ns3:hr>130</ns3:hr>
            <ns3:cad>69</ns3:cad>
          </ns3:TrackPointExtension>
        </extensions>
      </trkpt>
      <trkpt lat="45.297787226736545562744140625" lon="-70.870024301111698150634765625">
        <ele>1074.5999755859375</ele>
        <time>2026-08-21T15:02:19.000Z</time>
        <extensions>
          <ns3:TrackPointExtension>
            <ns3:hr>128</ns3:hr>
            <ns3:cad>71</ns3:cad>
          </ns3:TrackPointExtension>
        </extensions>
      </trkpt>
      <trkpt lat="45.29778429307043552398681640625" lon="-70.87004684843122959136962890625">
        <ele>1074.4000244140625</ele>
        <time>2026-08-21T15:02:20.000Z</time>
        <extensions>
          <ns3:TrackPointExtension>
            <ns3:hr>128</ns3:hr>
            <ns3:cad>72</ns3:cad>
          </ns3:TrackPointExtension>
        </extensions>
      </trkpt>
      <trkpt lat="45.29778487980365753173828125" lon="-70.87006562389433383941650390625">
        <ele>1074.4000244140625</ele>
        <time>2026-08-21T15:02:21.000Z</time>
        <extensions>
          <ns3:TrackPointExtension>
            <ns3:hr>128</ns3:hr>
            <ns3:cad>72</ns3:cad>
          </ns3:TrackPointExtension>
        </extensions>
      </trkpt>
      <trkpt lat="45.2977855503559112548828125" lon="-70.8700801245868206024169921875">
        <ele>1074.199951171875</ele>
        <time>2026-08-21T15:02:22.000Z</time>
        <extensions>
          <ns3:TrackPointExtension>
            <ns3:hr>128</ns3:hr>
            <ns3:cad>72</ns3:cad>
          </ns3:TrackPointExtension>
        </extensions>
      </trkpt>
      <trkpt lat="45.29778261668980121612548828125" lon="-70.87009437382221221923828125">
        <ele>1074</ele>
        <time>2026-08-21T15:02:23.000Z</time>
        <extensions>
          <ns3:TrackPointExtension>
            <ns3:hr>128</ns3:hr>
            <ns3:cad>72</ns3:cad>
          </ns3:TrackPointExtension>
        </extensions>
      </trkpt>
      <trkpt lat="45.2977775037288665771484375" lon="-70.8701086230576038360595703125">
        <ele>1073.800048828125</ele>
        <time>2026-08-21T15:02:24.000Z</time>
        <extensions>
          <ns3:TrackPointExtension>
            <ns3:hr>129</ns3:hr>
            <ns3:cad>72</ns3:cad>
          </ns3:TrackPointExtension>
        </extensions>
      </trkpt>
      <trkpt lat="45.297772474586963653564453125" lon="-70.87012211792171001434326171875">
        <ele>1073.5999755859375</ele>
        <time>2026-08-21T15:02:25.000Z</time>
        <extensions>
          <ns3:TrackPointExtension>
            <ns3:hr>129</ns3:hr>
            <ns3:cad>72</ns3:cad>
          </ns3:TrackPointExtension>
        </extensions>
      </trkpt>
      <trkpt lat="45.297773145139217376708984375" lon="-70.87013234384357929229736328125">
        <ele>1073.4000244140625</ele>
        <time>2026-08-21T15:02:26.000Z</time>
        <extensions>
          <ns3:TrackPointExtension>
            <ns3:hr>129</ns3:hr>
            <ns3:cad>72</ns3:cad>
          </ns3:TrackPointExtension>
        </extensions>
      </trkpt>
      <trkpt lat="45.2977682836353778839111328125" lon="-70.8701444976031780242919921875">
        <ele>1073.199951171875</ele>
        <time>2026-08-21T15:02:27.000Z</time>
        <extensions>
          <ns3:TrackPointExtension>
            <ns3:hr>129</ns3:hr>
            <ns3:cad>72</ns3:cad>
          </ns3:TrackPointExtension>
        </extensions>
      </trkpt>
      <trkpt lat="45.29775981791317462921142578125" lon="-70.87015748955309391021728515625">
        <ele>1073</ele>
        <time>2026-08-21T15:02:28.000Z</time>
        <extensions>
          <ns3:TrackPointExtension>
            <ns3:hr>130</ns3:hr>
            <ns3:cad>72</ns3:cad>
          </ns3:TrackPointExtension>
        </extensions>
      </trkpt>
      <trkpt lat="45.2977542020380496978759765625" lon="-70.87016888894140720367431640625">
        <ele>1072.800048828125</ele>
        <time>2026-08-21T15:02:29.000Z</time>
        <extensions>
          <ns3:TrackPointExtension>
            <ns3:hr>129</ns3:hr>
            <ns3:cad>72</ns3:cad>
          </ns3:TrackPointExtension>
        </extensions>
      </trkpt>
      <trkpt lat="45.2977518551051616668701171875" lon="-70.87019168771803379058837890625">
        <ele>1072.5999755859375</ele>
        <time>2026-08-21T15:02:30.000Z</time>
        <extensions>
          <ns3:TrackPointExtension>
            <ns3:hr>129</ns3:hr>
            <ns3:cad>72</ns3:cad>
          </ns3:TrackPointExtension>
        </extensions>
      </trkpt>
      <trkpt lat="45.29774841852486133575439453125" lon="-70.870206020772457122802734375">
        <ele>1072.4000244140625</ele>
        <time>2026-08-21T15:02:31.000Z</time>
        <extensions>
          <ns3:TrackPointExtension>
            <ns3:hr>129</ns3:hr>
            <ns3:cad>72</ns3:cad>
          </ns3:TrackPointExtension>
        </extensions>
      </trkpt>
      <trkpt lat="45.2977444790303707122802734375" lon="-70.8702239580452442169189453125">
        <ele>1072.199951171875</ele>
        <time>2026-08-21T15:02:32.000Z</time>
        <extensions>
          <ns3:TrackPointExtension>
            <ns3:hr>129</ns3:hr>
            <ns3:cad>72</ns3:cad>
          </ns3:TrackPointExtension>
        </extensions>
      </trkpt>
      <trkpt lat="45.29774188064038753509521484375" lon="-70.870238207280635833740234375">
        <ele>1072</ele>
        <time>2026-08-21T15:02:33.000Z</time>
        <extensions>
          <ns3:TrackPointExtension>
            <ns3:hr>129</ns3:hr>
            <ns3:cad>72</ns3:cad>
          </ns3:TrackPointExtension>
        </extensions>
      </trkpt>
      <trkpt lat="45.2977350912988185882568359375" lon="-70.8702554740011692047119140625">
        <ele>1071.800048828125</ele>
        <time>2026-08-21T15:02:34.000Z</time>
        <extensions>
          <ns3:TrackPointExtension>
            <ns3:hr>128</ns3:hr>
            <ns3:cad>0</ns3:cad>
          </ns3:TrackPointExtension>
        </extensions>
      </trkpt>
      <trkpt lat="45.29772855341434478759765625" lon="-70.870271734893321990966796875">
        <ele>1071.5999755859375</ele>
        <time>2026-08-21T15:02:35.000Z</time>
        <extensions>
          <ns3:TrackPointExtension>
            <ns3:hr>128</ns3:hr>
            <ns3:cad>0</ns3:cad>
          </ns3:TrackPointExtension>
        </extensions>
      </trkpt>
      <trkpt lat="45.29772193171083927154541015625" lon="-70.87029277347028255462646484375">
        <ele>1071.4000244140625</ele>
        <time>2026-08-21T15:02:36.000Z</time>
        <extensions>
          <ns3:TrackPointExtension>
            <ns3:hr>129</ns3:hr>
            <ns3:cad>0</ns3:cad>
          </ns3:TrackPointExtension>
        </extensions>
      </trkpt>
      <trkpt lat="45.2977253682911396026611328125" lon="-70.8703104592859745025634765625">
        <ele>1071</ele>
        <time>2026-08-21T15:02:37.000Z</time>
        <extensions>
          <ns3:TrackPointExtension>
            <ns3:hr>129</ns3:hr>
            <ns3:cad>0</ns3:cad>
          </ns3:TrackPointExtension>
        </extensions>
      </trkpt>
      <trkpt lat="45.2977273799479007720947265625" lon="-70.87031833827495574951171875">
        <ele>1070.800048828125</ele>
        <time>2026-08-21T15:02:38.000Z</time>
        <extensions>
          <ns3:TrackPointExtension>
            <ns3:hr>129</ns3:hr>
            <ns3:cad>0</ns3:cad>
          </ns3:TrackPointExtension>
        </extensions>
      </trkpt>
      <trkpt lat="45.29772729612886905670166015625" lon="-70.870324708521366119384765625">
        <ele>1070.5999755859375</ele>
        <time>2026-08-21T15:02:39.000Z</time>
        <extensions>
          <ns3:TrackPointExtension>
            <ns3:hr>129</ns3:hr>
            <ns3:cad>0</ns3:cad>
          </ns3:TrackPointExtension>
        </extensions>
      </trkpt>
      <trkpt lat="45.29772377572953701019287109375" lon="-70.87033468298614025115966796875">
        <ele>1070.4000244140625</ele>
        <time>2026-08-21T15:02:40.000Z</time>
        <extensions>
          <ns3:TrackPointExtension>
            <ns3:hr>129</ns3:hr>
            <ns3:cad>0</ns3:cad>
          </ns3:TrackPointExtension>
        </extensions>
      </trkpt>
      <trkpt lat="45.29771807603538036346435546875" lon="-70.8703500218689441680908203125">
        <ele>1070</ele>
        <time>2026-08-21T15:02:41.000Z</time>
        <extensions>
          <ns3:TrackPointExtension>
            <ns3:hr>129</ns3:hr>
            <ns3:cad>55</ns3:cad>
          </ns3:TrackPointExtension>
        </extensions>
      </trkpt>
      <trkpt lat="45.2977144718170166015625" lon="-70.87036351673305034637451171875">
        <ele>1069.800048828125</ele>
        <time>2026-08-21T15:02:42.000Z</time>
        <extensions>
          <ns3:TrackPointExtension>
            <ns3:hr>129</ns3:hr>
            <ns3:cad>0</ns3:cad>
          </ns3:TrackPointExtension>
        </extensions>
      </trkpt>
      <trkpt lat="45.2977089397609233856201171875" lon="-70.870375670492649078369140625">
        <ele>1069.5999755859375</ele>
        <time>2026-08-21T15:02:43.000Z</time>
        <extensions>
          <ns3:TrackPointExtension>
            <ns3:hr>129</ns3:hr>
            <ns3:cad>0</ns3:cad>
          </ns3:TrackPointExtension>
        </extensions>
      </trkpt>
      <trkpt lat="45.29770650900900363922119140625" lon="-70.87038782425224781036376953125">
        <ele>1069.199951171875</ele>
        <time>2026-08-21T15:02:44.000Z</time>
        <extensions>
          <ns3:TrackPointExtension>
            <ns3:hr>129</ns3:hr>
            <ns3:cad>0</ns3:cad>
          </ns3:TrackPointExtension>
        </extensions>
      </trkpt>
      <trkpt lat="45.29770164750516414642333984375" lon="-70.870402492582798004150390625">
        <ele>1069</ele>
        <time>2026-08-21T15:02:45.000Z</time>
        <extensions>
          <ns3:TrackPointExtension>
            <ns3:hr>130</ns3:hr>
            <ns3:cad>0</ns3:cad>
          </ns3:TrackPointExtension>
        </extensions>
      </trkpt>
      <trkpt lat="45.29769376851618289947509765625" lon="-70.87042369879782199859619140625">
        <ele>1068.5999755859375</ele>
        <time>2026-08-21T15:02:46.000Z</time>
        <extensions>
          <ns3:TrackPointExtension>
            <ns3:hr>130</ns3:hr>
            <ns3:cad>0</ns3:cad>
          </ns3:TrackPointExtension>
        </extensions>
      </trkpt>
      <trkpt lat="45.2976871468126773834228515625" lon="-70.87044012732803821563720703125">
        <ele>1068.199951171875</ele>
        <time>2026-08-21T15:02:47.000Z</time>
        <extensions>
          <ns3:TrackPointExtension>
            <ns3:hr>131</ns3:hr>
            <ns3:cad>0</ns3:cad>
          </ns3:TrackPointExtension>
        </extensions>
      </trkpt>
      <trkpt lat="45.297681950032711029052734375" lon="-70.870455466210842132568359375">
        <ele>1067.800048828125</ele>
        <time>2026-08-21T15:02:48.000Z</time>
        <extensions>
          <ns3:TrackPointExtension>
            <ns3:hr>132</ns3:hr>
            <ns3:cad>0</ns3:cad>
          </ns3:TrackPointExtension>
        </extensions>
      </trkpt>
      <trkpt lat="45.29767616651952266693115234375" lon="-70.87047566659748554229736328125">
        <ele>1067.5999755859375</ele>
        <time>2026-08-21T15:02:49.000Z</time>
        <extensions>
          <ns3:TrackPointExtension>
            <ns3:hr>132</ns3:hr>
            <ns3:cad>0</ns3:cad>
          </ns3:TrackPointExtension>
        </extensions>
      </trkpt>
      <trkpt lat="45.2976723946630954742431640625" lon="-70.8704973757266998291015625">
        <ele>1067.199951171875</ele>
        <time>2026-08-21T15:02:50.000Z</time>
        <extensions>
          <ns3:TrackPointExtension>
            <ns3:hr>132</ns3:hr>
            <ns3:cad>0</ns3:cad>
          </ns3:TrackPointExtension>
        </extensions>
      </trkpt>
      <trkpt lat="45.29766644351184368133544921875" lon="-70.87051992304623126983642578125">
        <ele>1066.800048828125</ele>
        <time>2026-08-21T15:02:51.000Z</time>
        <extensions>
          <ns3:TrackPointExtension>
            <ns3:hr>132</ns3:hr>
            <ns3:cad>0</ns3:cad>
          </ns3:TrackPointExtension>
        </extensions>
      </trkpt>
      <trkpt lat="45.2976599894464015960693359375" lon="-70.87054708041250705718994140625">
        <ele>1066.5999755859375</ele>
        <time>2026-08-21T15:02:52.000Z</time>
        <extensions>
          <ns3:TrackPointExtension>
            <ns3:hr>132</ns3:hr>
            <ns3:cad>0</ns3:cad>
          </ns3:TrackPointExtension>
        </extensions>
      </trkpt>
      <trkpt lat="45.2976583130657672882080078125" lon="-70.87057105265557765960693359375">
        <ele>1066.199951171875</ele>
        <time>2026-08-21T15:02:53.000Z</time>
        <extensions>
          <ns3:TrackPointExtension>
            <ns3:hr>131</ns3:hr>
            <ns3:cad>68</ns3:cad>
          </ns3:TrackPointExtension>
        </extensions>
      </trkpt>
      <trkpt lat="45.29766015708446502685546875" lon="-70.87059904821217060089111328125">
        <ele>1066</ele>
        <time>2026-08-21T15:02:54.000Z</time>
        <extensions>
          <ns3:TrackPointExtension>
            <ns3:hr>130</ns3:hr>
            <ns3:cad>68</ns3:cad>
          </ns3:TrackPointExtension>
        </extensions>
      </trkpt>
      <trkpt lat="45.297655127942562103271484375" lon="-70.87062419392168521881103515625">
        <ele>1065.5999755859375</ele>
        <time>2026-08-21T15:02:55.000Z</time>
        <extensions>
          <ns3:TrackPointExtension>
            <ns3:hr>129</ns3:hr>
            <ns3:cad>68</ns3:cad>
          </ns3:TrackPointExtension>
        </extensions>
      </trkpt>
      <trkpt lat="45.29764682985842227935791015625" lon="-70.870650596916675567626953125">
        <ele>1065.199951171875</ele>
        <time>2026-08-21T15:02:56.000Z</time>
        <extensions>
          <ns3:TrackPointExtension>
            <ns3:hr>128</ns3:hr>
            <ns3:cad>71</ns3:cad>
          </ns3:TrackPointExtension>
        </extensions>
      </trkpt>
      <trkpt lat="45.29764280654489994049072265625" lon="-70.870670042932033538818359375">
        <ele>1065</ele>
        <time>2026-08-21T15:02:57.000Z</time>
        <extensions>
          <ns3:TrackPointExtension>
            <ns3:hr>128</ns3:hr>
            <ns3:cad>71</ns3:cad>
          </ns3:TrackPointExtension>
        </extensions>
      </trkpt>
      <trkpt lat="45.29763744212687015533447265625" lon="-70.87068554945290088653564453125">
        <ele>1064.5999755859375</ele>
        <time>2026-08-21T15:02:58.000Z</time>
        <extensions>
          <ns3:TrackPointExtension>
            <ns3:hr>127</ns3:hr>
            <ns3:cad>71</ns3:cad>
          </ns3:TrackPointExtension>
        </extensions>
      </trkpt>
      <trkpt lat="45.297634340822696685791015625" lon="-70.87070801295340061187744140625">
        <ele>1064.199951171875</ele>
        <time>2026-08-21T15:02:59.000Z</time>
        <extensions>
          <ns3:TrackPointExtension>
            <ns3:hr>127</ns3:hr>
            <ns3:cad>71</ns3:cad>
          </ns3:TrackPointExtension>
        </extensions>
      </trkpt>
      <trkpt lat="45.29762956313788890838623046875" lon="-70.8707258664071559906005859375">
        <ele>1064</ele>
        <time>2026-08-21T15:03:00.000Z</time>
        <extensions>
          <ns3:TrackPointExtension>
            <ns3:hr>127</ns3:hr>
            <ns3:cad>71</ns3:cad>
          </ns3:TrackPointExtension>
        </extensions>
      </trkpt>
      <trkpt lat="45.297620929777622222900390625" lon="-70.87075444869697093963623046875">
        <ele>1063.800048828125</ele>
        <time>2026-08-21T15:03:01.000Z</time>
        <extensions>
          <ns3:TrackPointExtension>
            <ns3:hr>127</ns3:hr>
            <ns3:cad>71</ns3:cad>
          </ns3:TrackPointExtension>
        </extensions>
      </trkpt>
      <trkpt lat="45.2976137213408946990966796875" lon="-70.8707741461694240570068359375">
        <ele>1063.5999755859375</ele>
        <time>2026-08-21T15:03:02.000Z</time>
        <extensions>
          <ns3:TrackPointExtension>
            <ns3:hr>127</ns3:hr>
            <ns3:cad>71</ns3:cad>
          </ns3:TrackPointExtension>
        </extensions>
      </trkpt>
      <trkpt lat="45.29760475270450115203857421875" lon="-70.87078646756708621978759765625">
        <ele>1063.4000244140625</ele>
        <time>2026-08-21T15:03:03.000Z</time>
        <extensions>
          <ns3:TrackPointExtension>
            <ns3:hr>126</ns3:hr>
            <ns3:cad>71</ns3:cad>
          </ns3:TrackPointExtension>
        </extensions>
      </trkpt>
      <trkpt lat="45.29760123230516910552978515625" lon="-70.87080406956374645233154296875">
        <ele>1063</ele>
        <time>2026-08-21T15:03:04.000Z</time>
        <extensions>
          <ns3:TrackPointExtension>
            <ns3:hr>126</ns3:hr>
            <ns3:cad>71</ns3:cad>
          </ns3:TrackPointExtension>
        </extensions>
      </trkpt>
      <trkpt lat="45.2975972928106784820556640625" lon="-70.87083089165389537811279296875">
        <ele>1062.800048828125</ele>
        <time>2026-08-21T15:03:05.000Z</time>
        <extensions>
          <ns3:TrackPointExtension>
            <ns3:hr>126</ns3:hr>
            <ns3:cad>71</ns3:cad>
          </ns3:TrackPointExtension>
        </extensions>
      </trkpt>
      <trkpt lat="45.29759268276393413543701171875" lon="-70.8708519302308559417724609375">
        <ele>1062.4000244140625</ele>
        <time>2026-08-21T15:03:06.000Z</time>
        <extensions>
          <ns3:TrackPointExtension>
            <ns3:hr>126</ns3:hr>
            <ns3:cad>70</ns3:cad>
          </ns3:TrackPointExtension>
        </extensions>
      </trkpt>
      <trkpt lat="45.297585390508174896240234375" lon="-70.8708720467984676361083984375">
        <ele>1062</ele>
        <time>2026-08-21T15:03:07.000Z</time>
        <extensions>
          <ns3:TrackPointExtension>
            <ns3:hr>126</ns3:hr>
            <ns3:cad>70</ns3:cad>
          </ns3:TrackPointExtension>
        </extensions>
      </trkpt>
      <trkpt lat="45.2975778467953205108642578125" lon="-70.87089275009930133819580078125">
        <ele>1061.800048828125</ele>
        <time>2026-08-21T15:03:08.000Z</time>
        <extensions>
          <ns3:TrackPointExtension>
            <ns3:hr>126</ns3:hr>
            <ns3:cad>70</ns3:cad>
          </ns3:TrackPointExtension>
        </extensions>
      </trkpt>
      <trkpt lat="45.29757373966276645660400390625" lon="-70.870916135609149932861328125">
        <ele>1061.4000244140625</ele>
        <time>2026-08-21T15:03:09.000Z</time>
        <extensions>
          <ns3:TrackPointExtension>
            <ns3:hr>126</ns3:hr>
            <ns3:cad>70</ns3:cad>
          </ns3:TrackPointExtension>
        </extensions>
      </trkpt>
      <trkpt lat="45.29756896197795867919921875" lon="-70.87093935348093509674072265625">
        <ele>1061.199951171875</ele>
        <time>2026-08-21T15:03:10.000Z</time>
        <extensions>
          <ns3:TrackPointExtension>
            <ns3:hr>126</ns3:hr>
            <ns3:cad>70</ns3:cad>
          </ns3:TrackPointExtension>
        </extensions>
      </trkpt>
      <trkpt lat="45.29756066389381885528564453125" lon="-70.8709662593901157379150390625">
        <ele>1060.800048828125</ele>
        <time>2026-08-21T15:03:11.000Z</time>
        <extensions>
          <ns3:TrackPointExtension>
            <ns3:hr>126</ns3:hr>
            <ns3:cad>70</ns3:cad>
          </ns3:TrackPointExtension>
        </extensions>
      </trkpt>
      <trkpt lat="45.2975590713322162628173828125" lon="-70.8709917403757572174072265625">
        <ele>1060.5999755859375</ele>
        <time>2026-08-21T15:03:12.000Z</time>
        <extensions>
          <ns3:TrackPointExtension>
            <ns3:hr>126</ns3:hr>
            <ns3:cad>70</ns3:cad>
          </ns3:TrackPointExtension>
        </extensions>
      </trkpt>
      <trkpt lat="45.297552533447742462158203125" lon="-70.87101847864687442779541015625">
        <ele>1060.4000244140625</ele>
        <time>2026-08-21T15:03:13.000Z</time>
        <extensions>
          <ns3:TrackPointExtension>
            <ns3:hr>126</ns3:hr>
            <ns3:cad>70</ns3:cad>
          </ns3:TrackPointExtension>
        </extensions>
      </trkpt>
      <trkpt lat="45.297549851238727569580078125" lon="-70.8710390143096446990966796875">
        <ele>1060.199951171875</ele>
        <time>2026-08-21T15:03:14.000Z</time>
        <extensions>
          <ns3:TrackPointExtension>
            <ns3:hr>126</ns3:hr>
            <ns3:cad>70</ns3:cad>
          </ns3:TrackPointExtension>
        </extensions>
      </trkpt>
      <trkpt lat="45.29755747877061367034912109375" lon="-70.8710608072578907012939453125">
        <ele>1059.800048828125</ele>
        <time>2026-08-21T15:03:15.000Z</time>
        <extensions>
          <ns3:TrackPointExtension>
            <ns3:hr>126</ns3:hr>
            <ns3:cad>0</ns3:cad>
          </ns3:TrackPointExtension>
        </extensions>
      </trkpt>
      <trkpt lat="45.2975734882056713104248046875" lon="-70.87108134292066097259521484375">
        <ele>1059.4000244140625</ele>
        <time>2026-08-21T15:03:16.000Z</time>
        <extensions>
          <ns3:TrackPointExtension>
            <ns3:hr>126</ns3:hr>
            <ns3:cad>0</ns3:cad>
          </ns3:TrackPointExtension>
        </extensions>
      </trkpt>
      <trkpt lat="45.297596789896488189697265625" lon="-70.8710862882435321807861328125">
        <ele>1059</ele>
        <time>2026-08-21T15:03:17.000Z</time>
        <extensions>
          <ns3:TrackPointExtension>
            <ns3:hr>127</ns3:hr>
            <ns3:cad>0</ns3:cad>
          </ns3:TrackPointExtension>
        </extensions>
      </trkpt>
      <trkpt lat="45.297610871493816375732421875" lon="-70.87109156884253025054931640625">
        <ele>1058.5999755859375</ele>
        <time>2026-08-21T15:03:18.000Z</time>
        <extensions>
          <ns3:TrackPointExtension>
            <ns3:hr>127</ns3:hr>
            <ns3:cad>0</ns3:cad>
          </ns3:TrackPointExtension>
        </extensions>
      </trkpt>
      <trkpt lat="45.29762185178697109222412109375" lon="-70.8711000345647335052490234375">
        <ele>1058</ele>
        <time>2026-08-21T15:03:19.000Z</time>
        <extensions>
          <ns3:TrackPointExtension>
            <ns3:hr>127</ns3:hr>
            <ns3:cad>0</ns3:cad>
          </ns3:TrackPointExtension>
        </extensions>
      </trkpt>
      <trkpt lat="45.29764398001134395599365234375" lon="-70.87110112421214580535888671875">
        <ele>1057.4000244140625</ele>
        <time>2026-08-21T15:03:20.000Z</time>
        <extensions>
          <ns3:TrackPointExtension>
            <ns3:hr>128</ns3:hr>
            <ns3:cad>0</ns3:cad>
          </ns3:TrackPointExtension>
        </extensions>
      </trkpt>
      <trkpt lat="45.2976593188941478729248046875" lon="-70.87109726853668689727783203125">
        <ele>1056.800048828125</ele>
        <time>2026-08-21T15:03:21.000Z</time>
        <extensions>
          <ns3:TrackPointExtension>
            <ns3:hr>129</ns3:hr>
            <ns3:cad>0</ns3:cad>
          </ns3:TrackPointExtension>
        </extensions>
      </trkpt>
      <trkpt lat="45.29767130501568317413330078125" lon="-70.8710923232138156890869140625">
        <ele>1056.5999755859375</ele>
        <time>2026-08-21T15:03:22.000Z</time>
        <extensions>
          <ns3:TrackPointExtension>
            <ns3:hr>129</ns3:hr>
            <ns3:cad>72</ns3:cad>
          </ns3:TrackPointExtension>
        </extensions>
      </trkpt>
      <trkpt lat="45.29768371023237705230712890625" lon="-70.87109089829027652740478515625">
        <ele>1056.199951171875</ele>
        <time>2026-08-21T15:03:23.000Z</time>
        <extensions>
          <ns3:TrackPointExtension>
            <ns3:hr>129</ns3:hr>
            <ns3:cad>72</ns3:cad>
          </ns3:TrackPointExtension>
        </extensions>
      </trkpt>
      <trkpt lat="45.2976982109248638153076171875" lon="-70.871093831956386566162109375">
        <ele>1056</ele>
        <time>2026-08-21T15:03:24.000Z</time>
        <extensions>
          <ns3:TrackPointExtension>
            <ns3:hr>129</ns3:hr>
            <ns3:cad>74</ns3:cad>
          </ns3:TrackPointExtension>
        </extensions>
      </trkpt>
      <trkpt lat="45.2977102808654308319091796875" lon="-70.8710953406989574432373046875">
        <ele>1055.800048828125</ele>
        <time>2026-08-21T15:03:25.000Z</time>
        <extensions>
          <ns3:TrackPointExtension>
            <ns3:hr>129</ns3:hr>
            <ns3:cad>74</ns3:cad>
          </ns3:TrackPointExtension>
        </extensions>
      </trkpt>
      <trkpt lat="45.29772276990115642547607421875" lon="-70.87109777145087718963623046875">
        <ele>1055.4000244140625</ele>
        <time>2026-08-21T15:03:26.000Z</time>
        <extensions>
          <ns3:TrackPointExtension>
            <ns3:hr>130</ns3:hr>
            <ns3:cad>74</ns3:cad>
          </ns3:TrackPointExtension>
        </extensions>
      </trkpt>
      <trkpt lat="45.29773886315524578094482421875" lon="-70.87109961546957492828369140625">
        <ele>1055</ele>
        <time>2026-08-21T15:03:27.000Z</time>
        <extensions>
          <ns3:TrackPointExtension>
            <ns3:hr>131</ns3:hr>
            <ns3:cad>74</ns3:cad>
          </ns3:TrackPointExtension>
        </extensions>
      </trkpt>
      <trkpt lat="45.2977542020380496978759765625" lon="-70.87109559215605258941650390625">
        <ele>1054.5999755859375</ele>
        <time>2026-08-21T15:03:28.000Z</time>
        <extensions>
          <ns3:TrackPointExtension>
            <ns3:hr>131</ns3:hr>
            <ns3:cad>74</ns3:cad>
          </ns3:TrackPointExtension>
        </extensions>
      </trkpt>
      <trkpt lat="45.2977682836353778839111328125" lon="-70.87109978310763835906982421875">
        <ele>1054.4000244140625</ele>
        <time>2026-08-21T15:03:29.000Z</time>
        <extensions>
          <ns3:TrackPointExtension>
            <ns3:hr>130</ns3:hr>
            <ns3:cad>0</ns3:cad>
          </ns3:TrackPointExtension>
        </extensions>
      </trkpt>
      <trkpt lat="45.29778462834656238555908203125" lon="-70.87109961546957492828369140625">
        <ele>1054.199951171875</ele>
        <time>2026-08-21T15:03:30.000Z</time>
        <extensions>
          <ns3:TrackPointExtension>
            <ns3:hr>130</ns3:hr>
            <ns3:cad>0</ns3:cad>
          </ns3:TrackPointExtension>
        </extensions>
      </trkpt>
      <trkpt lat="45.2978043258190155029296875" lon="-70.871105231344699859619140625">
        <ele>1054</ele>
        <time>2026-08-21T15:03:31.000Z</time>
        <extensions>
          <ns3:TrackPointExtension>
            <ns3:hr>130</ns3:hr>
            <ns3:cad>0</ns3:cad>
          </ns3:TrackPointExtension>
        </extensions>
      </trkpt>
      <trkpt lat="45.297818072140216827392578125" lon="-70.87110422551631927490234375">
        <ele>1053.800048828125</ele>
        <time>2026-08-21T15:03:32.000Z</time>
        <extensions>
          <ns3:TrackPointExtension>
            <ns3:hr>130</ns3:hr>
            <ns3:cad>0</ns3:cad>
          </ns3:TrackPointExtension>
        </extensions>
      </trkpt>
      <trkpt lat="45.29782972298562526702880859375" lon="-70.871103890240192413330078125">
        <ele>1053.5999755859375</ele>
        <time>2026-08-21T15:03:33.000Z</time>
        <extensions>
          <ns3:TrackPointExtension>
            <ns3:hr>129</ns3:hr>
            <ns3:cad>0</ns3:cad>
          </ns3:TrackPointExtension>
        </extensions>
      </trkpt>
      <trkpt lat="45.29784514568746089935302734375" lon="-70.8711064048111438751220703125">
        <ele>1053.4000244140625</ele>
        <time>2026-08-21T15:03:34.000Z</time>
        <extensions>
          <ns3:TrackPointExtension>
            <ns3:hr>129</ns3:hr>
            <ns3:cad>0</ns3:cad>
          </ns3:TrackPointExtension>
        </extensions>
      </trkpt>
      <trkpt lat="45.29785637743771076202392578125" lon="-70.8711023814976215362548828125">
        <ele>1053</ele>
        <time>2026-08-21T15:03:35.000Z</time>
        <extensions>
          <ns3:TrackPointExtension>
            <ns3:hr>129</ns3:hr>
            <ns3:cad>0</ns3:cad>
          </ns3:TrackPointExtension>
        </extensions>
      </trkpt>
      <trkpt lat="45.29786794446408748626708984375" lon="-70.87110414169728755950927734375">
        <ele>1052.5999755859375</ele>
        <time>2026-08-21T15:03:36.000Z</time>
        <extensions>
          <ns3:TrackPointExtension>
            <ns3:hr>128</ns3:hr>
            <ns3:cad>0</ns3:cad>
          </ns3:TrackPointExtension>
        </extensions>
      </trkpt>
      <trkpt lat="45.2978767454624176025390625" lon="-70.8711151219904422760009765625">
        <ele>1052.4000244140625</ele>
        <time>2026-08-21T15:03:37.000Z</time>
        <extensions>
          <ns3:TrackPointExtension>
            <ns3:hr>128</ns3:hr>
            <ns3:cad>0</ns3:cad>
          </ns3:TrackPointExtension>
        </extensions>
      </trkpt>
      <trkpt lat="45.29788889922201633453369140625" lon="-70.8711157925426959991455078125">
        <ele>1052.199951171875</ele>
        <time>2026-08-21T15:03:38.000Z</time>
        <extensions>
          <ns3:TrackPointExtension>
            <ns3:hr>128</ns3:hr>
            <ns3:cad>0</ns3:cad>
          </ns3:TrackPointExtension>
        </extensions>
      </trkpt>
      <trkpt lat="45.29789912514388561248779296875" lon="-70.87111034430563449859619140625">
        <ele>1052</ele>
        <time>2026-08-21T15:03:39.000Z</time>
        <extensions>
          <ns3:TrackPointExtension>
            <ns3:hr>128</ns3:hr>
            <ns3:cad>0</ns3:cad>
          </ns3:TrackPointExtension>
        </extensions>
      </trkpt>
      <trkpt lat="45.297908596694469451904296875" lon="-70.8711090870201587677001953125">
        <ele>1051.5999755859375</ele>
        <time>2026-08-21T15:03:40.000Z</time>
        <extensions>
          <ns3:TrackPointExtension>
            <ns3:hr>128</ns3:hr>
            <ns3:cad>0</ns3:cad>
          </ns3:TrackPointExtension>
        </extensions>
      </trkpt>
      <trkpt lat="45.2979238517582416534423828125" lon="-70.87111269123852252960205078125">
        <ele>1051.199951171875</ele>
        <time>2026-08-21T15:03:41.000Z</time>
        <extensions>
          <ns3:TrackPointExtension>
            <ns3:hr>128</ns3:hr>
            <ns3:cad>0</ns3:cad>
          </ns3:TrackPointExtension>
        </extensions>
      </trkpt>
      <trkpt lat="45.29794187285006046295166015625" lon="-70.87111621163785457611083984375">
        <ele>1050.800048828125</ele>
        <time>2026-08-21T15:03:42.000Z</time>
        <extensions>
          <ns3:TrackPointExtension>
            <ns3:hr>128</ns3:hr>
            <ns3:cad>0</ns3:cad>
          </ns3:TrackPointExtension>
        </extensions>
      </trkpt>
      <trkpt lat="45.29795696027576923370361328125" lon="-70.8711107634007930755615234375">
        <ele>1050.4000244140625</ele>
        <time>2026-08-21T15:03:43.000Z</time>
        <extensions>
          <ns3:TrackPointExtension>
            <ns3:hr>128</ns3:hr>
            <ns3:cad>0</ns3:cad>
          </ns3:TrackPointExtension>
        </extensions>
      </trkpt>
      <trkpt lat="45.29797204770147800445556640625" lon="-70.8711023814976215362548828125">
        <ele>1050</ele>
        <time>2026-08-21T15:03:44.000Z</time>
        <extensions>
          <ns3:TrackPointExtension>
            <ns3:hr>128</ns3:hr>
            <ns3:cad>72</ns3:cad>
          </ns3:TrackPointExtension>
        </extensions>
      </trkpt>
      <trkpt lat="45.2979840338230133056640625" lon="-70.8711007051169872283935546875">
        <ele>1049.800048828125</ele>
        <time>2026-08-21T15:03:45.000Z</time>
        <extensions>
          <ns3:TrackPointExtension>
            <ns3:hr>128</ns3:hr>
            <ns3:cad>72</ns3:cad>
          </ns3:TrackPointExtension>
        </extensions>
      </trkpt>
      <trkpt lat="45.29799920506775379180908203125" lon="-70.871103890240192413330078125">
        <ele>1049.5999755859375</ele>
        <time>2026-08-21T15:03:46.000Z</time>
        <extensions>
          <ns3:TrackPointExtension>
            <ns3:hr>128</ns3:hr>
            <ns3:cad>72</ns3:cad>
          </ns3:TrackPointExtension>
        </extensions>
      </trkpt>
      <trkpt lat="45.29801563359797000885009765625" lon="-70.87110422551631927490234375">
        <ele>1049.4000244140625</ele>
        <time>2026-08-21T15:03:47.000Z</time>
        <extensions>
          <ns3:TrackPointExtension>
            <ns3:hr>128</ns3:hr>
            <ns3:cad>72</ns3:cad>
          </ns3:TrackPointExtension>
        </extensions>
      </trkpt>
      <trkpt lat="45.29803164303302764892578125" lon="-70.87110380642116069793701171875">
        <ele>1049.199951171875</ele>
        <time>2026-08-21T15:03:48.000Z</time>
        <extensions>
          <ns3:TrackPointExtension>
            <ns3:hr>130</ns3:hr>
            <ns3:cad>72</ns3:cad>
          </ns3:TrackPointExtension>
        </extensions>
      </trkpt>
      <trkpt lat="45.29804446734488010406494140625" lon="-70.87110280059278011322021484375">
        <ele>1048.800048828125</ele>
        <time>2026-08-21T15:03:49.000Z</time>
        <extensions>
          <ns3:TrackPointExtension>
            <ns3:hr>130</ns3:hr>
            <ns3:cad>72</ns3:cad>
          </ns3:TrackPointExtension>
        </extensions>
      </trkpt>
      <trkpt lat="45.29806206934154033660888671875" lon="-70.87110556662082672119140625">
        <ele>1048.199951171875</ele>
        <time>2026-08-21T15:03:50.000Z</time>
        <extensions>
          <ns3:TrackPointExtension>
            <ns3:hr>130</ns3:hr>
            <ns3:cad>72</ns3:cad>
          </ns3:TrackPointExtension>
        </extensions>
      </trkpt>
      <trkpt lat="45.29807765968143939971923828125" lon="-70.8710919879376888275146484375">
        <ele>1047.5999755859375</ele>
        <time>2026-08-21T15:03:51.000Z</time>
        <extensions>
          <ns3:TrackPointExtension>
            <ns3:hr>129</ns3:hr>
            <ns3:cad>72</ns3:cad>
          </ns3:TrackPointExtension>
        </extensions>
      </trkpt>
      <trkpt lat="45.29809107072651386260986328125" lon="-70.87107715196907520294189453125">
        <ele>1047.199951171875</ele>
        <time>2026-08-21T15:03:52.000Z</time>
        <extensions>
          <ns3:TrackPointExtension>
            <ns3:hr>129</ns3:hr>
            <ns3:cad>72</ns3:cad>
          </ns3:TrackPointExtension>
        </extensions>
      </trkpt>
      <trkpt lat="45.2981049008667469024658203125" lon="-70.87107874453067779541015625">
        <ele>1047</ele>
        <time>2026-08-21T15:03:53.000Z</time>
        <extensions>
          <ns3:TrackPointExtension>
            <ns3:hr>128</ns3:hr>
            <ns3:cad>81</ns3:cad>
          </ns3:TrackPointExtension>
        </extensions>
      </trkpt>
      <trkpt lat="45.298121161758899688720703125" lon="-70.87107581086456775665283203125">
        <ele>1046.800048828125</ele>
        <time>2026-08-21T15:03:54.000Z</time>
        <extensions>
          <ns3:TrackPointExtension>
            <ns3:hr>128</ns3:hr>
            <ns3:cad>81</ns3:cad>
          </ns3:TrackPointExtension>
        </extensions>
      </trkpt>
      <trkpt lat="45.2981347404420375823974609375" lon="-70.871072374284267425537109375">
        <ele>1046.5999755859375</ele>
        <time>2026-08-21T15:03:55.000Z</time>
        <extensions>
          <ns3:TrackPointExtension>
            <ns3:hr>128</ns3:hr>
            <ns3:cad>81</ns3:cad>
          </ns3:TrackPointExtension>
        </extensions>
      </trkpt>
      <trkpt lat="45.298150666058063507080078125" lon="-70.87106055580079555511474609375">
        <ele>1046.4000244140625</ele>
        <time>2026-08-21T15:03:56.000Z</time>
        <extensions>
          <ns3:TrackPointExtension>
            <ns3:hr>128</ns3:hr>
            <ns3:cad>81</ns3:cad>
          </ns3:TrackPointExtension>
        </extensions>
      </trkpt>
      <trkpt lat="45.2981672622263431549072265625" lon="-70.87105435319244861602783203125">
        <ele>1046.199951171875</ele>
        <time>2026-08-21T15:03:57.000Z</time>
        <extensions>
          <ns3:TrackPointExtension>
            <ns3:hr>128</ns3:hr>
            <ns3:cad>81</ns3:cad>
          </ns3:TrackPointExtension>
        </extensions>
      </trkpt>
      <trkpt lat="45.2981798350811004638671875" lon="-70.8710457198321819305419921875">
        <ele>1046</ele>
        <time>2026-08-21T15:03:58.000Z</time>
        <extensions>
          <ns3:TrackPointExtension>
            <ns3:hr>128</ns3:hr>
            <ns3:cad>81</ns3:cad>
          </ns3:TrackPointExtension>
        </extensions>
      </trkpt>
      <trkpt lat="45.2981917373836040496826171875" lon="-70.87103825993835926055908203125">
        <ele>1045.800048828125</ele>
        <time>2026-08-21T15:03:59.000Z</time>
        <extensions>
          <ns3:TrackPointExtension>
            <ns3:hr>128</ns3:hr>
            <ns3:cad>81</ns3:cad>
          </ns3:TrackPointExtension>
        </extensions>
      </trkpt>
      <trkpt lat="45.29820422641932964324951171875" lon="-70.8710333146154880523681640625">
        <ele>1045.5999755859375</ele>
        <time>2026-08-21T15:04:00.000Z</time>
        <extensions>
          <ns3:TrackPointExtension>
            <ns3:hr>129</ns3:hr>
            <ns3:cad>81</ns3:cad>
          </ns3:TrackPointExtension>
        </extensions>
      </trkpt>
      <trkpt lat="45.29821663163602352142333984375" lon="-70.8710400201380252838134765625">
        <ele>1045.4000244140625</ele>
        <time>2026-08-21T15:04:01.000Z</time>
        <extensions>
          <ns3:TrackPointExtension>
            <ns3:hr>128</ns3:hr>
            <ns3:cad>81</ns3:cad>
          </ns3:TrackPointExtension>
        </extensions>
      </trkpt>
      <trkpt lat="45.29823683202266693115234375" lon="-70.87104328908026218414306640625">
        <ele>1045.199951171875</ele>
        <time>2026-08-21T15:04:02.000Z</time>
        <extensions>
          <ns3:TrackPointExtension>
            <ns3:hr>128</ns3:hr>
            <ns3:cad>81</ns3:cad>
          </ns3:TrackPointExtension>
        </extensions>
      </trkpt>
      <trkpt lat="45.29825217090547084808349609375" lon="-70.8710386790335178375244140625">
        <ele>1044.800048828125</ele>
        <time>2026-08-21T15:04:03.000Z</time>
        <extensions>
          <ns3:TrackPointExtension>
            <ns3:hr>128</ns3:hr>
            <ns3:cad>81</ns3:cad>
          </ns3:TrackPointExtension>
        </extensions>
      </trkpt>
      <trkpt lat="45.29826541431248188018798828125" lon="-70.871028117835521697998046875">
        <ele>1044.5999755859375</ele>
        <time>2026-08-21T15:04:04.000Z</time>
        <extensions>
          <ns3:TrackPointExtension>
            <ns3:hr>128</ns3:hr>
            <ns3:cad>81</ns3:cad>
          </ns3:TrackPointExtension>
        </extensions>
      </trkpt>
      <trkpt lat="45.29826792888343334197998046875" lon="-70.87103356607258319854736328125">
        <ele>1044.4000244140625</ele>
        <time>2026-08-21T15:04:05.000Z</time>
        <extensions>
          <ns3:TrackPointExtension>
            <ns3:hr>129</ns3:hr>
            <ns3:cad>0</ns3:cad>
          </ns3:TrackPointExtension>
        </extensions>
      </trkpt>
      <trkpt lat="45.298277400434017181396484375" lon="-70.87103960104286670684814453125">
        <ele>1044.199951171875</ele>
        <time>2026-08-21T15:04:06.000Z</time>
        <extensions>
          <ns3:TrackPointExtension>
            <ns3:hr>129</ns3:hr>
            <ns3:cad>0</ns3:cad>
          </ns3:TrackPointExtension>
        </extensions>
      </trkpt>
      <trkpt lat="45.2982842735946178436279296875" lon="-70.87104546837508678436279296875">
        <ele>1044.199951171875</ele>
        <time>2026-08-21T15:04:07.000Z</time>
        <extensions>
          <ns3:TrackPointExtension>
            <ns3:hr>129</ns3:hr>
            <ns3:cad>0</ns3:cad>
          </ns3:TrackPointExtension>
        </extensions>
      </trkpt>
      <trkpt lat="45.29828854836523532867431640625" lon="-70.8710547722876071929931640625">
        <ele>1044</ele>
        <time>2026-08-21T15:04:08.000Z</time>
        <extensions>
          <ns3:TrackPointExtension>
            <ns3:hr>129</ns3:hr>
            <ns3:cad>75</ns3:cad>
          </ns3:TrackPointExtension>
        </extensions>
      </trkpt>
      <trkpt lat="45.29829475097358226776123046875" lon="-70.87106038816273212432861328125">
        <ele>1043.5999755859375</ele>
        <time>2026-08-21T15:04:09.000Z</time>
        <extensions>
          <ns3:TrackPointExtension>
            <ns3:hr>129</ns3:hr>
            <ns3:cad>75</ns3:cad>
          </ns3:TrackPointExtension>
        </extensions>
      </trkpt>
      <trkpt lat="45.29831000603735446929931640625" lon="-70.8710581250488758087158203125">
        <ele>1043.4000244140625</ele>
        <time>2026-08-21T15:04:10.000Z</time>
        <extensions>
          <ns3:TrackPointExtension>
            <ns3:hr>129</ns3:hr>
            <ns3:cad>0</ns3:cad>
          </ns3:TrackPointExtension>
        </extensions>
      </trkpt>
      <trkpt lat="45.2983292005956172943115234375" lon="-70.87105971761047840118408203125">
        <ele>1043</ele>
        <time>2026-08-21T15:04:11.000Z</time>
        <extensions>
          <ns3:TrackPointExtension>
            <ns3:hr>129</ns3:hr>
            <ns3:cad>0</ns3:cad>
          </ns3:TrackPointExtension>
        </extensions>
      </trkpt>
      <trkpt lat="45.298344455659389495849609375" lon="-70.87107195518910884857177734375">
        <ele>1042.5999755859375</ele>
        <time>2026-08-21T15:04:12.000Z</time>
        <extensions>
          <ns3:TrackPointExtension>
            <ns3:hr>129</ns3:hr>
            <ns3:cad>0</ns3:cad>
          </ns3:TrackPointExtension>
        </extensions>
      </trkpt>
      <trkpt lat="45.29835007153451442718505859375" lon="-70.8710782416164875030517578125">
        <ele>1042.4000244140625</ele>
        <time>2026-08-21T15:04:13.000Z</time>
        <extensions>
          <ns3:TrackPointExtension>
            <ns3:hr>128</ns3:hr>
            <ns3:cad>68</ns3:cad>
          </ns3:TrackPointExtension>
        </extensions>
      </trkpt>
      <trkpt lat="45.29835577122867107391357421875" lon="-70.87108545005321502685546875">
        <ele>1042.199951171875</ele>
        <time>2026-08-21T15:04:14.000Z</time>
        <extensions>
          <ns3:TrackPointExtension>
            <ns3:hr>128</ns3:hr>
            <ns3:cad>68</ns3:cad>
          </ns3:TrackPointExtension>
        </extensions>
      </trkpt>
      <trkpt lat="45.2983620576560497283935546875" lon="-70.87109525687992572784423828125">
        <ele>1042</ele>
        <time>2026-08-21T15:04:15.000Z</time>
        <extensions>
          <ns3:TrackPointExtension>
            <ns3:hr>128</ns3:hr>
            <ns3:cad>72</ns3:cad>
          </ns3:TrackPointExtension>
        </extensions>
      </trkpt>
      <trkpt lat="45.298371948301792144775390625" lon="-70.87110749445855617523193359375">
        <ele>1041.800048828125</ele>
        <time>2026-08-21T15:04:16.000Z</time>
        <extensions>
          <ns3:TrackPointExtension>
            <ns3:hr>128</ns3:hr>
            <ns3:cad>72</ns3:cad>
          </ns3:TrackPointExtension>
        </extensions>
      </trkpt>
      <trkpt lat="45.2983939088881015777587890625" lon="-70.87110514752566814422607421875">
        <ele>1041.4000244140625</ele>
        <time>2026-08-21T15:04:17.000Z</time>
        <extensions>
          <ns3:TrackPointExtension>
            <ns3:hr>129</ns3:hr>
            <ns3:cad>70</ns3:cad>
          </ns3:TrackPointExtension>
        </extensions>
      </trkpt>
      <trkpt lat="45.298407487571239471435546875" lon="-70.8711047284305095672607421875">
        <ele>1041</ele>
        <time>2026-08-21T15:04:18.000Z</time>
        <extensions>
          <ns3:TrackPointExtension>
            <ns3:hr>129</ns3:hr>
            <ns3:cad>0</ns3:cad>
          </ns3:TrackPointExtension>
        </extensions>
      </trkpt>
      <trkpt lat="45.29842534102499485015869140625" lon="-70.87111495435237884521484375">
        <ele>1040.5999755859375</ele>
        <time>2026-08-21T15:04:19.000Z</time>
        <extensions>
          <ns3:TrackPointExtension>
            <ns3:hr>130</ns3:hr>
            <ns3:cad>0</ns3:cad>
          </ns3:TrackPointExtension>
        </extensions>
      </trkpt>
      <trkpt lat="45.29844176955521106719970703125" lon="-70.8711228333413600921630859375">
        <ele>1040.199951171875</ele>
        <time>2026-08-21T15:04:20.000Z</time>
        <extensions>
          <ns3:TrackPointExtension>
            <ns3:hr>131</ns3:hr>
            <ns3:cad>0</ns3:cad>
          </ns3:TrackPointExtension>
        </extensions>
      </trkpt>
      <trkpt lat="45.2984562702476978302001953125" lon="-70.87112107314169406890869140625">
        <ele>1039.800048828125</ele>
        <time>2026-08-21T15:04:21.000Z</time>
        <extensions>
          <ns3:TrackPointExtension>
            <ns3:hr>131</ns3:hr>
            <ns3:cad>0</ns3:cad>
          </ns3:TrackPointExtension>
        </extensions>
      </trkpt>
      <trkpt lat="45.2984666638076305389404296875" lon="-70.87112107314169406890869140625">
        <ele>1039.4000244140625</ele>
        <time>2026-08-21T15:04:22.000Z</time>
        <extensions>
          <ns3:TrackPointExtension>
            <ns3:hr>131</ns3:hr>
            <ns3:cad>0</ns3:cad>
          </ns3:TrackPointExtension>
        </extensions>
      </trkpt>
      <trkpt lat="45.29847932048141956329345703125" lon="-70.8711349032819271087646484375">
        <ele>1038.800048828125</ele>
        <time>2026-08-21T15:04:23.000Z</time>
        <extensions>
          <ns3:TrackPointExtension>
            <ns3:hr>131</ns3:hr>
            <ns3:cad>0</ns3:cad>
          </ns3:TrackPointExtension>
        </extensions>
      </trkpt>
      <trkpt lat="45.2984948270022869110107421875" lon="-70.87115678004920482635498046875">
        <ele>1038.4000244140625</ele>
        <time>2026-08-21T15:04:24.000Z</time>
        <extensions>
          <ns3:TrackPointExtension>
            <ns3:hr>131</ns3:hr>
            <ns3:cad>0</ns3:cad>
          </ns3:TrackPointExtension>
        </extensions>
      </trkpt>
      <trkpt lat="45.2985142730176448822021484375" lon="-70.87116650305688381195068359375">
        <ele>1037.800048828125</ele>
        <time>2026-08-21T15:04:25.000Z</time>
        <extensions>
          <ns3:TrackPointExtension>
            <ns3:hr>130</ns3:hr>
            <ns3:cad>0</ns3:cad>
          </ns3:TrackPointExtension>
        </extensions>
      </trkpt>
      <trkpt lat="45.2985317073762416839599609375" lon="-70.87117790244519710540771484375">
        <ele>1037.4000244140625</ele>
        <time>2026-08-21T15:04:26.000Z</time>
        <extensions>
          <ns3:TrackPointExtension>
            <ns3:hr>130</ns3:hr>
            <ns3:cad>0</ns3:cad>
          </ns3:TrackPointExtension>
        </extensions>
      </trkpt>
      <trkpt lat="45.2985504828393459320068359375" lon="-70.87119047529995441436767578125">
        <ele>1037</ele>
        <time>2026-08-21T15:04:27.000Z</time>
        <extensions>
          <ns3:TrackPointExtension>
            <ns3:hr>130</ns3:hr>
            <ns3:cad>42</ns3:cad>
          </ns3:TrackPointExtension>
        </extensions>
      </trkpt>
      <trkpt lat="45.2985659055411815643310546875" lon="-70.87119852192699909210205078125">
        <ele>1036.5999755859375</ele>
        <time>2026-08-21T15:04:28.000Z</time>
        <extensions>
          <ns3:TrackPointExtension>
            <ns3:hr>130</ns3:hr>
            <ns3:cad>42</ns3:cad>
          </ns3:TrackPointExtension>
        </extensions>
      </trkpt>
      <trkpt lat="45.29858593828976154327392578125" lon="-70.8712059818208217620849609375">
        <ele>1036.4000244140625</ele>
        <time>2026-08-21T15:04:29.000Z</time>
        <extensions>
          <ns3:TrackPointExtension>
            <ns3:hr>130</ns3:hr>
            <ns3:cad>42</ns3:cad>
          </ns3:TrackPointExtension>
        </extensions>
      </trkpt>
      <trkpt lat="45.29860119335353374481201171875" lon="-70.87120891548693180084228515625">
        <ele>1036.4000244140625</ele>
        <time>2026-08-21T15:04:30.000Z</time>
        <extensions>
          <ns3:TrackPointExtension>
            <ns3:hr>130</ns3:hr>
            <ns3:cad>42</ns3:cad>
          </ns3:TrackPointExtension>
        </extensions>
      </trkpt>
      <trkpt lat="45.2986255846917629241943359375" lon="-70.8712123520672321319580078125">
        <ele>1036.199951171875</ele>
        <time>2026-08-21T15:04:31.000Z</time>
        <extensions>
          <ns3:TrackPointExtension>
            <ns3:hr>130</ns3:hr>
            <ns3:cad>42</ns3:cad>
          </ns3:TrackPointExtension>
        </extensions>
      </trkpt>
      <trkpt lat="45.298644192516803741455078125" lon="-70.871221907436847686767578125">
        <ele>1035.800048828125</ele>
        <time>2026-08-21T15:04:32.000Z</time>
        <extensions>
          <ns3:TrackPointExtension>
            <ns3:hr>131</ns3:hr>
            <ns3:cad>42</ns3:cad>
          </ns3:TrackPointExtension>
        </extensions>
      </trkpt>
      <trkpt lat="45.29866104014217853546142578125" lon="-70.8712284453213214874267578125">
        <ele>1035.5999755859375</ele>
        <time>2026-08-21T15:04:33.000Z</time>
        <extensions>
          <ns3:TrackPointExtension>
            <ns3:hr>131</ns3:hr>
            <ns3:cad>42</ns3:cad>
          </ns3:TrackPointExtension>
        </extensions>
      </trkpt>
      <trkpt lat="45.29867545701563358306884765625" lon="-70.87122626602649688720703125">
        <ele>1035.4000244140625</ele>
        <time>2026-08-21T15:04:34.000Z</time>
        <extensions>
          <ns3:TrackPointExtension>
            <ns3:hr>131</ns3:hr>
            <ns3:cad>42</ns3:cad>
          </ns3:TrackPointExtension>
        </extensions>
      </trkpt>
      <trkpt lat="45.29868685640394687652587890625" lon="-70.87123506702482700347900390625">
        <ele>1035.4000244140625</ele>
        <time>2026-08-21T15:04:35.000Z</time>
        <extensions>
          <ns3:TrackPointExtension>
            <ns3:hr>131</ns3:hr>
            <ns3:cad>42</ns3:cad>
          </ns3:TrackPointExtension>
        </extensions>
      </trkpt>
      <trkpt lat="45.29869976453483104705810546875" lon="-70.871246047317981719970703125">
        <ele>1035.199951171875</ele>
        <time>2026-08-21T15:04:36.000Z</time>
        <extensions>
          <ns3:TrackPointExtension>
            <ns3:hr>131</ns3:hr>
            <ns3:cad>42</ns3:cad>
          </ns3:TrackPointExtension>
        </extensions>
      </trkpt>
      <trkpt lat="45.298713929951190948486328125" lon="-70.87125174701213836669921875">
        <ele>1035</ele>
        <time>2026-08-21T15:04:37.000Z</time>
        <extensions>
          <ns3:TrackPointExtension>
            <ns3:hr>130</ns3:hr>
            <ns3:cad>42</ns3:cad>
          </ns3:TrackPointExtension>
        </extensions>
      </trkpt>
      <trkpt lat="45.29871828854084014892578125" lon="-70.87126457132399082183837890625">
        <ele>1034.5999755859375</ele>
        <time>2026-08-21T15:04:38.000Z</time>
        <extensions>
          <ns3:TrackPointExtension>
            <ns3:hr>130</ns3:hr>
            <ns3:cad>42</ns3:cad>
          </ns3:TrackPointExtension>
        </extensions>
      </trkpt>
      <trkpt lat="45.29872407205402851104736328125" lon="-70.87128686718642711639404296875">
        <ele>1034.199951171875</ele>
        <time>2026-08-21T15:04:39.000Z</time>
        <extensions>
          <ns3:TrackPointExtension>
            <ns3:hr>130</ns3:hr>
            <ns3:cad>0</ns3:cad>
          </ns3:TrackPointExtension>
        </extensions>
      </trkpt>
      <trkpt lat="45.2987308613955974578857421875" lon="-70.8713025413453578948974609375">
        <ele>1033.800048828125</ele>
        <time>2026-08-21T15:04:40.000Z</time>
        <extensions>
          <ns3:TrackPointExtension>
            <ns3:hr>129</ns3:hr>
            <ns3:cad>0</ns3:cad>
          </ns3:TrackPointExtension>
        </extensions>
      </trkpt>
      <trkpt lat="45.2987352199852466583251953125" lon="-70.8713119290769100189208984375">
        <ele>1033.199951171875</ele>
        <time>2026-08-21T15:04:41.000Z</time>
        <extensions>
          <ns3:TrackPointExtension>
            <ns3:hr>128</ns3:hr>
            <ns3:cad>0</ns3:cad>
          </ns3:TrackPointExtension>
        </extensions>
      </trkpt>
      <trkpt lat="45.29874737374484539031982421875" lon="-70.87132324464619159698486328125">
        <ele>1032.800048828125</ele>
        <time>2026-08-21T15:04:42.000Z</time>
        <extensions>
          <ns3:TrackPointExtension>
            <ns3:hr>128</ns3:hr>
            <ns3:cad>0</ns3:cad>
          </ns3:TrackPointExtension>
        </extensions>
      </trkpt>
      <trkpt lat="45.29875206761062145233154296875" lon="-70.87135124020278453826904296875">
        <ele>1032.199951171875</ele>
        <time>2026-08-21T15:04:43.000Z</time>
        <extensions>
          <ns3:TrackPointExtension>
            <ns3:hr>127</ns3:hr>
            <ns3:cad>0</ns3:cad>
          </ns3:TrackPointExtension>
        </extensions>
      </trkpt>
      <trkpt lat="45.2987657301127910614013671875" lon="-70.87137672118842601776123046875">
        <ele>1031.800048828125</ele>
        <time>2026-08-21T15:04:44.000Z</time>
        <extensions>
          <ns3:TrackPointExtension>
            <ns3:hr>127</ns3:hr>
            <ns3:cad>73</ns3:cad>
          </ns3:TrackPointExtension>
        </extensions>
      </trkpt>
      <trkpt lat="45.2987833321094512939453125" lon="-70.87138359434902667999267578125">
        <ele>1031.5999755859375</ele>
        <time>2026-08-21T15:04:45.000Z</time>
        <extensions>
          <ns3:TrackPointExtension>
            <ns3:hr>127</ns3:hr>
            <ns3:cad>73</ns3:cad>
          </ns3:TrackPointExtension>
        </extensions>
      </trkpt>
      <trkpt lat="45.298800431191921234130859375" lon="-70.871392898261547088623046875">
        <ele>1031.4000244140625</ele>
        <time>2026-08-21T15:04:46.000Z</time>
        <extensions>
          <ns3:TrackPointExtension>
            <ns3:hr>127</ns3:hr>
            <ns3:cad>73</ns3:cad>
          </ns3:TrackPointExtension>
        </extensions>
      </trkpt>
      <trkpt lat="45.29881484806537628173828125" lon="-70.8714007772505283355712890625">
        <ele>1031.4000244140625</ele>
        <time>2026-08-21T15:04:47.000Z</time>
        <extensions>
          <ns3:TrackPointExtension>
            <ns3:hr>127</ns3:hr>
            <ns3:cad>73</ns3:cad>
          </ns3:TrackPointExtension>
        </extensions>
      </trkpt>
      <trkpt lat="45.29882415197789669036865234375" lon="-70.87141410447657108306884765625">
        <ele>1031.4000244140625</ele>
        <time>2026-08-21T15:04:48.000Z</time>
        <extensions>
          <ns3:TrackPointExtension>
            <ns3:hr>127</ns3:hr>
            <ns3:cad>73</ns3:cad>
          </ns3:TrackPointExtension>
        </extensions>
      </trkpt>
      <trkpt lat="45.29883773066103458404541015625" lon="-70.8714229054749011993408203125">
        <ele>1031.4000244140625</ele>
        <time>2026-08-21T15:04:49.000Z</time>
        <extensions>
          <ns3:TrackPointExtension>
            <ns3:hr>127</ns3:hr>
            <ns3:cad>75</ns3:cad>
          </ns3:TrackPointExtension>
        </extensions>
      </trkpt>
      <trkpt lat="45.2988455258309841156005859375" lon="-70.87143413722515106201171875">
        <ele>1031.4000244140625</ele>
        <time>2026-08-21T15:04:50.000Z</time>
        <extensions>
          <ns3:TrackPointExtension>
            <ns3:hr>127</ns3:hr>
            <ns3:cad>75</ns3:cad>
          </ns3:TrackPointExtension>
        </extensions>
      </trkpt>
      <trkpt lat="45.29884628020226955413818359375" lon="-70.87145567871630191802978515625">
        <ele>1031.4000244140625</ele>
        <time>2026-08-21T15:04:51.000Z</time>
        <extensions>
          <ns3:TrackPointExtension>
            <ns3:hr>128</ns3:hr>
            <ns3:cad>0</ns3:cad>
          </ns3:TrackPointExtension>
        </extensions>
      </trkpt>
      <trkpt lat="45.298850722610950469970703125" lon="-70.87147914804518222808837890625">
        <ele>1031.4000244140625</ele>
        <time>2026-08-21T15:04:52.000Z</time>
        <extensions>
          <ns3:TrackPointExtension>
            <ns3:hr>127</ns3:hr>
            <ns3:cad>0</ns3:cad>
          </ns3:TrackPointExtension>
        </extensions>
      </trkpt>
      <trkpt lat="45.29885709285736083984375" lon="-70.87149406783282756805419921875">
        <ele>1031.4000244140625</ele>
        <time>2026-08-21T15:04:53.000Z</time>
        <extensions>
          <ns3:TrackPointExtension>
            <ns3:hr>127</ns3:hr>
            <ns3:cad>0</ns3:cad>
          </ns3:TrackPointExtension>
        </extensions>
      </trkpt>
      <trkpt lat="45.29886421747505664825439453125" lon="-70.8715219795703887939453125">
        <ele>1031.199951171875</ele>
        <time>2026-08-21T15:04:54.000Z</time>
        <extensions>
          <ns3:TrackPointExtension>
            <ns3:hr>128</ns3:hr>
            <ns3:cad>0</ns3:cad>
          </ns3:TrackPointExtension>
        </extensions>
      </trkpt>
      <trkpt lat="45.29886891134083271026611328125" lon="-70.8715368993580341339111328125">
        <ele>1031.199951171875</ele>
        <time>2026-08-21T15:04:55.000Z</time>
        <extensions>
          <ns3:TrackPointExtension>
            <ns3:hr>127</ns3:hr>
            <ns3:cad>0</ns3:cad>
          </ns3:TrackPointExtension>
        </extensions>
      </trkpt>
      <trkpt lat="45.2988803945481777191162109375" lon="-70.87156020104885101318359375">
        <ele>1031</ele>
        <time>2026-08-21T15:04:56.000Z</time>
        <extensions>
          <ns3:TrackPointExtension>
            <ns3:hr>127</ns3:hr>
            <ns3:cad>0</ns3:cad>
          </ns3:TrackPointExtension>
        </extensions>
      </trkpt>
      <trkpt lat="45.29888617806136608123779296875" lon="-70.8715781383216381072998046875">
        <ele>1031</ele>
        <time>2026-08-21T15:04:57.000Z</time>
        <extensions>
          <ns3:TrackPointExtension>
            <ns3:hr>128</ns3:hr>
            <ns3:cad>0</ns3:cad>
          </ns3:TrackPointExtension>
        </extensions>
      </trkpt>
      <trkpt lat="45.2988891117274761199951171875" lon="-70.87159079499542713165283203125">
        <ele>1031</ele>
        <time>2026-08-21T15:04:58.000Z</time>
        <extensions>
          <ns3:TrackPointExtension>
            <ns3:hr>128</ns3:hr>
            <ns3:cad>68</ns3:cad>
          </ns3:TrackPointExtension>
        </extensions>
      </trkpt>
      <trkpt lat="45.29888902790844440460205078125" lon="-70.87160940282046794891357421875">
        <ele>1030.800048828125</ele>
        <time>2026-08-21T15:04:59.000Z</time>
        <extensions>
          <ns3:TrackPointExtension>
            <ns3:hr>128</ns3:hr>
            <ns3:cad>68</ns3:cad>
          </ns3:TrackPointExtension>
        </extensions>
      </trkpt>
      <trkpt lat="45.2988921292126178741455078125" lon="-70.87163153104484081268310546875">
        <ele>1030.800048828125</ele>
        <time>2026-08-21T15:05:00.000Z</time>
        <extensions>
          <ns3:TrackPointExtension>
            <ns3:hr>128</ns3:hr>
            <ns3:cad>68</ns3:cad>
          </ns3:TrackPointExtension>
        </extensions>
      </trkpt>
      <trkpt lat="45.29889975674450397491455078125" lon="-70.8716529048979282379150390625">
        <ele>1030.5999755859375</ele>
        <time>2026-08-21T15:05:01.000Z</time>
        <extensions>
          <ns3:TrackPointExtension>
            <ns3:hr>128</ns3:hr>
            <ns3:cad>68</ns3:cad>
          </ns3:TrackPointExtension>
        </extensions>
      </trkpt>
      <trkpt lat="45.29890545643866062164306640625" lon="-70.871673524379730224609375">
        <ele>1030.5999755859375</ele>
        <time>2026-08-21T15:05:02.000Z</time>
        <extensions>
          <ns3:TrackPointExtension>
            <ns3:hr>128</ns3:hr>
            <ns3:cad>68</ns3:cad>
          </ns3:TrackPointExtension>
        </extensions>
      </trkpt>
      <trkpt lat="45.298899672925472259521484375" lon="-70.87169439531862735748291015625">
        <ele>1030.4000244140625</ele>
        <time>2026-08-21T15:05:03.000Z</time>
        <extensions>
          <ns3:TrackPointExtension>
            <ns3:hr>128</ns3:hr>
            <ns3:cad>68</ns3:cad>
          </ns3:TrackPointExtension>
        </extensions>
      </trkpt>
      <trkpt lat="45.29890847392380237579345703125" lon="-70.87170914746820926666259765625">
        <ele>1030.199951171875</ele>
        <time>2026-08-21T15:05:04.000Z</time>
        <extensions>
          <ns3:TrackPointExtension>
            <ns3:hr>128</ns3:hr>
            <ns3:cad>68</ns3:cad>
          </ns3:TrackPointExtension>
        </extensions>
      </trkpt>
      <trkpt lat="45.29890964739024639129638671875" lon="-70.8717226423323154449462890625">
        <ele>1029.800048828125</ele>
        <time>2026-08-21T15:05:05.000Z</time>
        <extensions>
          <ns3:TrackPointExtension>
            <ns3:hr>128</ns3:hr>
            <ns3:cad>68</ns3:cad>
          </ns3:TrackPointExtension>
        </extensions>
      </trkpt>
      <trkpt lat="45.29890696518123149871826171875" lon="-70.87174200452864170074462890625">
        <ele>1029.4000244140625</ele>
        <time>2026-08-21T15:05:06.000Z</time>
        <extensions>
          <ns3:TrackPointExtension>
            <ns3:hr>128</ns3:hr>
            <ns3:cad>0</ns3:cad>
          </ns3:TrackPointExtension>
        </extensions>
      </trkpt>
      <trkpt lat="45.29889992438256740570068359375" lon="-70.87176295928657054901123046875">
        <ele>1029</ele>
        <time>2026-08-21T15:05:07.000Z</time>
        <extensions>
          <ns3:TrackPointExtension>
            <ns3:hr>129</ns3:hr>
            <ns3:cad>0</ns3:cad>
          </ns3:TrackPointExtension>
        </extensions>
      </trkpt>
      <trkpt lat="45.29889908619225025177001953125" lon="-70.87178148329257965087890625">
        <ele>1028.5999755859375</ele>
        <time>2026-08-21T15:05:08.000Z</time>
        <extensions>
          <ns3:TrackPointExtension>
            <ns3:hr>128</ns3:hr>
            <ns3:cad>0</ns3:cad>
          </ns3:TrackPointExtension>
        </extensions>
      </trkpt>
      <trkpt lat="45.29889665544033050537109375" lon="-70.8718064613640308380126953125">
        <ele>1028.199951171875</ele>
        <time>2026-08-21T15:05:09.000Z</time>
        <extensions>
          <ns3:TrackPointExtension>
            <ns3:hr>128</ns3:hr>
            <ns3:cad>0</ns3:cad>
          </ns3:TrackPointExtension>
        </extensions>
      </trkpt>
      <trkpt lat="45.29889690689742565155029296875" lon="-70.87183034978806972503662109375">
        <ele>1027.800048828125</ele>
        <time>2026-08-21T15:05:10.000Z</time>
        <extensions>
          <ns3:TrackPointExtension>
            <ns3:hr>128</ns3:hr>
            <ns3:cad>0</ns3:cad>
          </ns3:TrackPointExtension>
        </extensions>
      </trkpt>
      <trkpt lat="45.29890025965869426727294921875" lon="-70.87185432203114032745361328125">
        <ele>1027.5999755859375</ele>
        <time>2026-08-21T15:05:11.000Z</time>
        <extensions>
          <ns3:TrackPointExtension>
            <ns3:hr>129</ns3:hr>
            <ns3:cad>0</ns3:cad>
          </ns3:TrackPointExtension>
        </extensions>
      </trkpt>
      <trkpt lat="45.298908054828643798828125" lon="-70.871868990361690521240234375">
        <ele>1027.4000244140625</ele>
        <time>2026-08-21T15:05:12.000Z</time>
        <extensions>
          <ns3:TrackPointExtension>
            <ns3:hr>129</ns3:hr>
            <ns3:cad>0</ns3:cad>
          </ns3:TrackPointExtension>
        </extensions>
      </trkpt>
      <trkpt lat="45.298915766179561614990234375" lon="-70.87188416160643100738525390625">
        <ele>1027.199951171875</ele>
        <time>2026-08-21T15:05:13.000Z</time>
        <extensions>
          <ns3:TrackPointExtension>
            <ns3:hr>128</ns3:hr>
            <ns3:cad>0</ns3:cad>
          </ns3:TrackPointExtension>
        </extensions>
      </trkpt>
      <trkpt lat="45.2989147603511810302734375" lon="-70.87190461345016956329345703125">
        <ele>1027</ele>
        <time>2026-08-21T15:05:14.000Z</time>
        <extensions>
          <ns3:TrackPointExtension>
            <ns3:hr>128</ns3:hr>
            <ns3:cad>0</ns3:cad>
          </ns3:TrackPointExtension>
        </extensions>
      </trkpt>
      <trkpt lat="45.29891115613281726837158203125" lon="-70.87191961705684661865234375">
        <ele>1026.5999755859375</ele>
        <time>2026-08-21T15:05:15.000Z</time>
        <extensions>
          <ns3:TrackPointExtension>
            <ns3:hr>128</ns3:hr>
            <ns3:cad>60</ns3:cad>
          </ns3:TrackPointExtension>
        </extensions>
      </trkpt>
      <trkpt lat="45.29890738427639007568359375" lon="-70.871931351721286773681640625">
        <ele>1026.4000244140625</ele>
        <time>2026-08-21T15:05:16.000Z</time>
        <extensions>
          <ns3:TrackPointExtension>
            <ns3:hr>129</ns3:hr>
            <ns3:cad>60</ns3:cad>
          </ns3:TrackPointExtension>
        </extensions>
      </trkpt>
      <trkpt lat="45.29890336096286773681640625" lon="-70.8719415776431560516357421875">
        <ele>1026.199951171875</ele>
        <time>2026-08-21T15:05:17.000Z</time>
        <extensions>
          <ns3:TrackPointExtension>
            <ns3:hr>129</ns3:hr>
            <ns3:cad>60</ns3:cad>
          </ns3:TrackPointExtension>
        </extensions>
      </trkpt>
      <trkpt lat="45.29889975674450397491455078125" lon="-70.8719740994274616241455078125">
        <ele>1025.800048828125</ele>
        <time>2026-08-21T15:05:18.000Z</time>
        <extensions>
          <ns3:TrackPointExtension>
            <ns3:hr>129</ns3:hr>
            <ns3:cad>60</ns3:cad>
          </ns3:TrackPointExtension>
        </extensions>
      </trkpt>
      <trkpt lat="45.2988961525261402130126953125" lon="-70.87198893539607524871826171875">
        <ele>1025.4000244140625</ele>
        <time>2026-08-21T15:05:19.000Z</time>
        <extensions>
          <ns3:TrackPointExtension>
            <ns3:hr>129</ns3:hr>
            <ns3:cad>60</ns3:cad>
          </ns3:TrackPointExtension>
        </extensions>
      </trkpt>
      <trkpt lat="45.29888969846069812774658203125" lon="-70.871999077498912811279296875">
        <ele>1025</ele>
        <time>2026-08-21T15:05:20.000Z</time>
        <extensions>
          <ns3:TrackPointExtension>
            <ns3:hr>129</ns3:hr>
            <ns3:cad>60</ns3:cad>
          </ns3:TrackPointExtension>
        </extensions>
      </trkpt>
      <trkpt lat="45.2988793887197971343994140625" lon="-70.871998406946659088134765625">
        <ele>1024.5999755859375</ele>
        <time>2026-08-21T15:05:21.000Z</time>
        <extensions>
          <ns3:TrackPointExtension>
            <ns3:hr>129</ns3:hr>
            <ns3:cad>60</ns3:cad>
          </ns3:TrackPointExtension>
        </extensions>
      </trkpt>
      <trkpt lat="45.29886606149375438690185546875" lon="-70.87200167588889598846435546875">
        <ele>1024.199951171875</ele>
        <time>2026-08-21T15:05:22.000Z</time>
        <extensions>
          <ns3:TrackPointExtension>
            <ns3:hr>129</ns3:hr>
            <ns3:cad>60</ns3:cad>
          </ns3:TrackPointExtension>
        </extensions>
      </trkpt>
      <trkpt lat="45.2988557517528533935546875" lon="-70.87201374582946300506591796875">
        <ele>1024</ele>
        <time>2026-08-21T15:05:23.000Z</time>
        <extensions>
          <ns3:TrackPointExtension>
            <ns3:hr>128</ns3:hr>
            <ns3:cad>60</ns3:cad>
          </ns3:TrackPointExtension>
        </extensions>
      </trkpt>
      <trkpt lat="45.2988435141742229461669921875" lon="-70.87202330119907855987548828125">
        <ele>1023.5999755859375</ele>
        <time>2026-08-21T15:05:24.000Z</time>
        <extensions>
          <ns3:TrackPointExtension>
            <ns3:hr>128</ns3:hr>
            <ns3:cad>60</ns3:cad>
          </ns3:TrackPointExtension>
        </extensions>
      </trkpt>
      <trkpt lat="45.298831276595592498779296875" lon="-70.8720378018915653228759765625">
        <ele>1023.4000244140625</ele>
        <time>2026-08-21T15:05:25.000Z</time>
        <extensions>
          <ns3:TrackPointExtension>
            <ns3:hr>128</ns3:hr>
            <ns3:cad>60</ns3:cad>
          </ns3:TrackPointExtension>
        </extensions>
      </trkpt>
      <trkpt lat="45.29882029630243778228759765625" lon="-70.87204433977603912353515625">
        <ele>1023</ele>
        <time>2026-08-21T15:05:26.000Z</time>
        <extensions>
          <ns3:TrackPointExtension>
            <ns3:hr>128</ns3:hr>
            <ns3:cad>60</ns3:cad>
          </ns3:TrackPointExtension>
        </extensions>
      </trkpt>
      <trkpt lat="45.29880286194384098052978515625" lon="-70.8720525540411472320556640625">
        <ele>1022.5999755859375</ele>
        <time>2026-08-21T15:05:27.000Z</time>
        <extensions>
          <ns3:TrackPointExtension>
            <ns3:hr>128</ns3:hr>
            <ns3:cad>60</ns3:cad>
          </ns3:TrackPointExtension>
        </extensions>
      </trkpt>
      <trkpt lat="45.2987908758223056793212890625" lon="-70.87206085212528705596923828125">
        <ele>1022.20001220703125</ele>
        <time>2026-08-21T15:05:28.000Z</time>
        <extensions>
          <ns3:TrackPointExtension>
            <ns3:hr>129</ns3:hr>
            <ns3:cad>60</ns3:cad>
          </ns3:TrackPointExtension>
        </extensions>
      </trkpt>
      <trkpt lat="45.29877888970077037811279296875" lon="-70.87206982076168060302734375">
        <ele>1021.79998779296875</ele>
        <time>2026-08-21T15:05:29.000Z</time>
        <extensions>
          <ns3:TrackPointExtension>
            <ns3:hr>129</ns3:hr>
            <ns3:cad>60</ns3:cad>
          </ns3:TrackPointExtension>
        </extensions>
      </trkpt>
      <trkpt lat="45.2987687475979328155517578125" lon="-70.87208750657737255096435546875">
        <ele>1021.5999755859375</ele>
        <time>2026-08-21T15:05:30.000Z</time>
        <extensions>
          <ns3:TrackPointExtension>
            <ns3:hr>129</ns3:hr>
            <ns3:cad>76</ns3:cad>
          </ns3:TrackPointExtension>
        </extensions>
      </trkpt>
      <trkpt lat="45.29875776730477809906005859375" lon="-70.87210292927920818328857421875">
        <ele>1021.20001220703125</ele>
        <time>2026-08-21T15:05:31.000Z</time>
        <extensions>
          <ns3:TrackPointExtension>
            <ns3:hr>129</ns3:hr>
            <ns3:cad>76</ns3:cad>
          </ns3:TrackPointExtension>
        </extensions>
      </trkpt>
      <trkpt lat="45.29874703846871852874755859375" lon="-70.87210929952561855316162109375">
        <ele>1021</ele>
        <time>2026-08-21T15:05:32.000Z</time>
        <extensions>
          <ns3:TrackPointExtension>
            <ns3:hr>129</ns3:hr>
            <ns3:cad>76</ns3:cad>
          </ns3:TrackPointExtension>
        </extensions>
      </trkpt>
      <trkpt lat="45.29873094521462917327880859375" lon="-70.872117094695568084716796875">
        <ele>1020.5999755859375</ele>
        <time>2026-08-21T15:05:33.000Z</time>
        <extensions>
          <ns3:TrackPointExtension>
            <ns3:hr>128</ns3:hr>
            <ns3:cad>76</ns3:cad>
          </ns3:TrackPointExtension>
        </extensions>
      </trkpt>
      <trkpt lat="45.298714600503444671630859375" lon="-70.87213377468287944793701171875">
        <ele>1020.20001220703125</ele>
        <time>2026-08-21T15:05:34.000Z</time>
        <extensions>
          <ns3:TrackPointExtension>
            <ns3:hr>128</ns3:hr>
            <ns3:cad>71</ns3:cad>
          </ns3:TrackPointExtension>
        </extensions>
      </trkpt>
      <trkpt lat="45.29870093800127506256103515625" lon="-70.8721474371850490570068359375">
        <ele>1020</ele>
        <time>2026-08-21T15:05:35.000Z</time>
        <extensions>
          <ns3:TrackPointExtension>
            <ns3:hr>128</ns3:hr>
            <ns3:cad>71</ns3:cad>
          </ns3:TrackPointExtension>
        </extensions>
      </trkpt>
      <trkpt lat="45.2986852638423442840576171875" lon="-70.87215338833630084991455078125">
        <ele>1019.5999755859375</ele>
        <time>2026-08-21T15:05:36.000Z</time>
        <extensions>
          <ns3:TrackPointExtension>
            <ns3:hr>129</ns3:hr>
            <ns3:cad>71</ns3:cad>
          </ns3:TrackPointExtension>
        </extensions>
      </trkpt>
      <trkpt lat="45.29866866767406463623046875" lon="-70.872156657278537750244140625">
        <ele>1019.20001220703125</ele>
        <time>2026-08-21T15:05:37.000Z</time>
        <extensions>
          <ns3:TrackPointExtension>
            <ns3:hr>130</ns3:hr>
            <ns3:cad>71</ns3:cad>
          </ns3:TrackPointExtension>
        </extensions>
      </trkpt>
      <trkpt lat="45.298652239143848419189453125" lon="-70.87216797284781932830810546875">
        <ele>1018.79998779296875</ele>
        <time>2026-08-21T15:05:38.000Z</time>
        <extensions>
          <ns3:TrackPointExtension>
            <ns3:hr>130</ns3:hr>
            <ns3:cad>71</ns3:cad>
          </ns3:TrackPointExtension>
        </extensions>
      </trkpt>
      <trkpt lat="45.2986359782516956329345703125" lon="-70.8721769414842128753662109375">
        <ele>1018.4000244140625</ele>
        <time>2026-08-21T15:05:39.000Z</time>
        <extensions>
          <ns3:TrackPointExtension>
            <ns3:hr>130</ns3:hr>
            <ns3:cad>74</ns3:cad>
          </ns3:TrackPointExtension>
        </extensions>
      </trkpt>
      <trkpt lat="45.2986195497214794158935546875" lon="-70.872186832129955291748046875">
        <ele>1018</ele>
        <time>2026-08-21T15:05:40.000Z</time>
        <extensions>
          <ns3:TrackPointExtension>
            <ns3:hr>130</ns3:hr>
            <ns3:cad>74</ns3:cad>
          </ns3:TrackPointExtension>
        </extensions>
      </trkpt>
      <trkpt lat="45.29860295355319976806640625" lon="-70.87219764478504657745361328125">
        <ele>1017.5999755859375</ele>
        <time>2026-08-21T15:05:41.000Z</time>
        <extensions>
          <ns3:TrackPointExtension>
            <ns3:hr>131</ns3:hr>
            <ns3:cad>74</ns3:cad>
          </ns3:TrackPointExtension>
        </extensions>
      </trkpt>
      <trkpt lat="45.2985893748700618743896484375" lon="-70.87220921181142330169677734375">
        <ele>1017.20001220703125</ele>
        <time>2026-08-21T15:05:42.000Z</time>
        <extensions>
          <ns3:TrackPointExtension>
            <ns3:hr>130</ns3:hr>
            <ns3:cad>71</ns3:cad>
          </ns3:TrackPointExtension>
        </extensions>
      </trkpt>
      <trkpt lat="45.298575460910797119140625" lon="-70.8722139894962310791015625">
        <ele>1016.79998779296875</ele>
        <time>2026-08-21T15:05:43.000Z</time>
        <extensions>
          <ns3:TrackPointExtension>
            <ns3:hr>130</ns3:hr>
            <ns3:cad>71</ns3:cad>
          </ns3:TrackPointExtension>
        </extensions>
      </trkpt>
      <trkpt lat="45.29856431297957897186279296875" lon="-70.87222631089389324188232421875">
        <ele>1016.79998779296875</ele>
        <time>2026-08-21T15:05:44.000Z</time>
        <extensions>
          <ns3:TrackPointExtension>
            <ns3:hr>130</ns3:hr>
            <ns3:cad>71</ns3:cad>
          </ns3:TrackPointExtension>
        </extensions>
      </trkpt>
      <trkpt lat="45.29855425469577312469482421875" lon="-70.87224324233829975128173828125">
        <ele>1016.4000244140625</ele>
        <time>2026-08-21T15:05:45.000Z</time>
        <extensions>
          <ns3:TrackPointExtension>
            <ns3:hr>130</ns3:hr>
            <ns3:cad>0</ns3:cad>
          </ns3:TrackPointExtension>
        </extensions>
      </trkpt>
      <trkpt lat="45.2985526621341705322265625" lon="-70.87226201780140399932861328125">
        <ele>1016.20001220703125</ele>
        <time>2026-08-21T15:05:46.000Z</time>
        <extensions>
          <ns3:TrackPointExtension>
            <ns3:hr>130</ns3:hr>
            <ns3:cad>0</ns3:cad>
          </ns3:TrackPointExtension>
        </extensions>
      </trkpt>
      <trkpt lat="45.2985498122870922088623046875" lon="-70.87227576412260532379150390625">
        <ele>1016</ele>
        <time>2026-08-21T15:05:47.000Z</time>
        <extensions>
          <ns3:TrackPointExtension>
            <ns3:hr>130</ns3:hr>
            <ns3:cad>69</ns3:cad>
          </ns3:TrackPointExtension>
        </extensions>
      </trkpt>
      <trkpt lat="45.298546962440013885498046875" lon="-70.87228448130190372467041015625">
        <ele>1015.79998779296875</ele>
        <time>2026-08-21T15:05:48.000Z</time>
        <extensions>
          <ns3:TrackPointExtension>
            <ns3:hr>130</ns3:hr>
            <ns3:cad>69</ns3:cad>
          </ns3:TrackPointExtension>
        </extensions>
      </trkpt>
      <trkpt lat="45.29854151420295238494873046875" lon="-70.8722922764718532562255859375">
        <ele>1015.79998779296875</ele>
        <time>2026-08-21T15:05:49.000Z</time>
        <extensions>
          <ns3:TrackPointExtension>
            <ns3:hr>130</ns3:hr>
            <ns3:cad>69</ns3:cad>
          </ns3:TrackPointExtension>
        </extensions>
      </trkpt>
      <trkpt lat="45.29853581450879573822021484375" lon="-70.872299484908580780029296875">
        <ele>1015.5999755859375</ele>
        <time>2026-08-21T15:05:50.000Z</time>
        <extensions>
          <ns3:TrackPointExtension>
            <ns3:hr>131</ns3:hr>
            <ns3:cad>69</ns3:cad>
          </ns3:TrackPointExtension>
        </extensions>
      </trkpt>
      <trkpt lat="45.2985307015478610992431640625" lon="-70.8723040111362934112548828125">
        <ele>1015.4000244140625</ele>
        <time>2026-08-21T15:05:51.000Z</time>
        <extensions>
          <ns3:TrackPointExtension>
            <ns3:hr>130</ns3:hr>
            <ns3:cad>69</ns3:cad>
          </ns3:TrackPointExtension>
        </extensions>
      </trkpt>
      <trkpt lat="45.298518799245357513427734375" lon="-70.872306525707244873046875">
        <ele>1015.20001220703125</ele>
        <time>2026-08-21T15:05:52.000Z</time>
        <extensions>
          <ns3:TrackPointExtension>
            <ns3:hr>130</ns3:hr>
            <ns3:cad>69</ns3:cad>
          </ns3:TrackPointExtension>
        </extensions>
      </trkpt>
      <trkpt lat="45.29850899241864681243896484375" lon="-70.87231163866817951202392578125">
        <ele>1014.79998779296875</ele>
        <time>2026-08-21T15:05:53.000Z</time>
        <extensions>
          <ns3:TrackPointExtension>
            <ns3:hr>131</ns3:hr>
            <ns3:cad>69</ns3:cad>
          </ns3:TrackPointExtension>
        </extensions>
      </trkpt>
      <trkpt lat="45.29850178398191928863525390625" lon="-70.87232287041842937469482421875">
        <ele>1014.5999755859375</ele>
        <time>2026-08-21T15:05:54.000Z</time>
        <extensions>
          <ns3:TrackPointExtension>
            <ns3:hr>130</ns3:hr>
            <ns3:cad>59</ns3:cad>
          </ns3:TrackPointExtension>
        </extensions>
      </trkpt>
      <trkpt lat="45.29849390499293804168701171875" lon="-70.87233779020607471466064453125">
        <ele>1014.20001220703125</ele>
        <time>2026-08-21T15:05:55.000Z</time>
        <extensions>
          <ns3:TrackPointExtension>
            <ns3:hr>129</ns3:hr>
            <ns3:cad>59</ns3:cad>
          </ns3:TrackPointExtension>
        </extensions>
      </trkpt>
      <trkpt lat="45.29848803766071796417236328125" lon="-70.87234466336667537689208984375">
        <ele>1014</ele>
        <time>2026-08-21T15:05:56.000Z</time>
        <extensions>
          <ns3:TrackPointExtension>
            <ns3:hr>129</ns3:hr>
            <ns3:cad>59</ns3:cad>
          </ns3:TrackPointExtension>
        </extensions>
      </trkpt>
      <trkpt lat="45.2984820865094661712646484375" lon="-70.87234784848988056182861328125">
        <ele>1013.5999755859375</ele>
        <time>2026-08-21T15:05:57.000Z</time>
        <extensions>
          <ns3:TrackPointExtension>
            <ns3:hr>129</ns3:hr>
            <ns3:cad>56</ns3:cad>
          </ns3:TrackPointExtension>
        </extensions>
      </trkpt>
      <trkpt lat="45.29847395606338977813720703125" lon="-70.87235555984079837799072265625">
        <ele>1013.4000244140625</ele>
        <time>2026-08-21T15:05:58.000Z</time>
        <extensions>
          <ns3:TrackPointExtension>
            <ns3:hr>128</ns3:hr>
            <ns3:cad>56</ns3:cad>
          </ns3:TrackPointExtension>
        </extensions>
      </trkpt>
      <trkpt lat="45.2984659932553768157958984375" lon="-70.8723722398281097412109375">
        <ele>1013.20001220703125</ele>
        <time>2026-08-21T15:05:59.000Z</time>
        <extensions>
          <ns3:TrackPointExtension>
            <ns3:hr>129</ns3:hr>
            <ns3:cad>56</ns3:cad>
          </ns3:TrackPointExtension>
        </extensions>
      </trkpt>
      <trkpt lat="45.29844964854419231414794921875" lon="-70.8723797835409641265869140625">
        <ele>1013</ele>
        <time>2026-08-21T15:06:00.000Z</time>
        <extensions>
          <ns3:TrackPointExtension>
            <ns3:hr>129</ns3:hr>
            <ns3:cad>56</ns3:cad>
          </ns3:TrackPointExtension>
        </extensions>
      </trkpt>
      <trkpt lat="45.29843573458492755889892578125" lon="-70.8723811246454715728759765625">
        <ele>1012.79998779296875</ele>
        <time>2026-08-21T15:06:01.000Z</time>
        <extensions>
          <ns3:TrackPointExtension>
            <ns3:hr>129</ns3:hr>
            <ns3:cad>56</ns3:cad>
          </ns3:TrackPointExtension>
        </extensions>
      </trkpt>
      <trkpt lat="45.298422910273075103759765625" lon="-70.8723856508731842041015625">
        <ele>1012.4000244140625</ele>
        <time>2026-08-21T15:06:02.000Z</time>
        <extensions>
          <ns3:TrackPointExtension>
            <ns3:hr>129</ns3:hr>
            <ns3:cad>56</ns3:cad>
          </ns3:TrackPointExtension>
        </extensions>
      </trkpt>
      <trkpt lat="45.29841276817023754119873046875" lon="-70.87239881046116352081298828125">
        <ele>1012.20001220703125</ele>
        <time>2026-08-21T15:06:03.000Z</time>
        <extensions>
          <ns3:TrackPointExtension>
            <ns3:hr>129</ns3:hr>
            <ns3:cad>56</ns3:cad>
          </ns3:TrackPointExtension>
        </extensions>
      </trkpt>
      <trkpt lat="45.29840203933417797088623046875" lon="-70.87241222150623798370361328125">
        <ele>1012</ele>
        <time>2026-08-21T15:06:04.000Z</time>
        <extensions>
          <ns3:TrackPointExtension>
            <ns3:hr>128</ns3:hr>
            <ns3:cad>56</ns3:cad>
          </ns3:TrackPointExtension>
        </extensions>
      </trkpt>
      <trkpt lat="45.2983962558209896087646484375" lon="-70.8724253810942173004150390625">
        <ele>1011.5999755859375</ele>
        <time>2026-08-21T15:06:05.000Z</time>
        <extensions>
          <ns3:TrackPointExtension>
            <ns3:hr>128</ns3:hr>
            <ns3:cad>56</ns3:cad>
          </ns3:TrackPointExtension>
        </extensions>
      </trkpt>
      <trkpt lat="45.2983808331191539764404296875" lon="-70.87244256399571895599365234375">
        <ele>1011.4000244140625</ele>
        <time>2026-08-21T15:06:06.000Z</time>
        <extensions>
          <ns3:TrackPointExtension>
            <ns3:hr>129</ns3:hr>
            <ns3:cad>74</ns3:cad>
          </ns3:TrackPointExtension>
        </extensions>
      </trkpt>
      <trkpt lat="45.29836985282599925994873046875" lon="-70.8724548853933811187744140625">
        <ele>1011</ele>
        <time>2026-08-21T15:06:07.000Z</time>
        <extensions>
          <ns3:TrackPointExtension>
            <ns3:hr>129</ns3:hr>
            <ns3:cad>74</ns3:cad>
          </ns3:TrackPointExtension>
        </extensions>
      </trkpt>
      <trkpt lat="45.2983582019805908203125" lon="-70.87246502749621868133544921875">
        <ele>1010.79998779296875</ele>
        <time>2026-08-21T15:06:08.000Z</time>
        <extensions>
          <ns3:TrackPointExtension>
            <ns3:hr>129</ns3:hr>
            <ns3:cad>70</ns3:cad>
          </ns3:TrackPointExtension>
        </extensions>
      </trkpt>
      <trkpt lat="45.29834814369678497314453125" lon="-70.87247676216065883636474609375">
        <ele>1010.4000244140625</ele>
        <time>2026-08-21T15:06:09.000Z</time>
        <extensions>
          <ns3:TrackPointExtension>
            <ns3:hr>128</ns3:hr>
            <ns3:cad>70</ns3:cad>
          </ns3:TrackPointExtension>
        </extensions>
      </trkpt>
      <trkpt lat="45.2983349002897739410400390625" lon="-70.87249050848186016082763671875">
        <ele>1010.20001220703125</ele>
        <time>2026-08-21T15:06:10.000Z</time>
        <extensions>
          <ns3:TrackPointExtension>
            <ns3:hr>129</ns3:hr>
            <ns3:cad>70</ns3:cad>
          </ns3:TrackPointExtension>
        </extensions>
      </trkpt>
      <trkpt lat="45.29832609929144382476806640625" lon="-70.87249956093728542327880859375">
        <ele>1009.79998779296875</ele>
        <time>2026-08-21T15:06:11.000Z</time>
        <extensions>
          <ns3:TrackPointExtension>
            <ns3:hr>129</ns3:hr>
            <ns3:cad>70</ns3:cad>
          </ns3:TrackPointExtension>
        </extensions>
      </trkpt>
      <trkpt lat="45.29831486754119396209716796875" lon="-70.8725128881633281707763671875">
        <ele>1009.5999755859375</ele>
        <time>2026-08-21T15:06:12.000Z</time>
        <extensions>
          <ns3:TrackPointExtension>
            <ns3:hr>129</ns3:hr>
            <ns3:cad>70</ns3:cad>
          </ns3:TrackPointExtension>
        </extensions>
      </trkpt>
      <trkpt lat="45.29830992221832275390625" lon="-70.872516073286533355712890625">
        <ele>1009.4000244140625</ele>
        <time>2026-08-21T15:06:13.000Z</time>
        <extensions>
          <ns3:TrackPointExtension>
            <ns3:hr>128</ns3:hr>
            <ns3:cad>61</ns3:cad>
          </ns3:TrackPointExtension>
        </extensions>
      </trkpt>
      <trkpt lat="45.2982943318784236907958984375" lon="-70.872522108256816864013671875">
        <ele>1009.20001220703125</ele>
        <time>2026-08-21T15:06:14.000Z</time>
        <extensions>
          <ns3:TrackPointExtension>
            <ns3:hr>129</ns3:hr>
            <ns3:cad>0</ns3:cad>
          </ns3:TrackPointExtension>
        </extensions>
      </trkpt>
      <trkpt lat="45.29828318394720554351806640625" lon="-70.8725276403129100799560546875">
        <ele>1009</ele>
        <time>2026-08-21T15:06:15.000Z</time>
        <extensions>
          <ns3:TrackPointExtension>
            <ns3:hr>129</ns3:hr>
            <ns3:cad>0</ns3:cad>
          </ns3:TrackPointExtension>
        </extensions>
      </trkpt>
      <trkpt lat="45.2982748858630657196044921875" lon="-70.8725330047309398651123046875">
        <ele>1008.5999755859375</ele>
        <time>2026-08-21T15:06:16.000Z</time>
        <extensions>
          <ns3:TrackPointExtension>
            <ns3:hr>129</ns3:hr>
            <ns3:cad>0</ns3:cad>
          </ns3:TrackPointExtension>
        </extensions>
      </trkpt>
      <trkpt lat="45.29827245511114597320556640625" lon="-70.87254188954830169677734375">
        <ele>1008.4000244140625</ele>
        <time>2026-08-21T15:06:17.000Z</time>
        <extensions>
          <ns3:TrackPointExtension>
            <ns3:hr>129</ns3:hr>
            <ns3:cad>0</ns3:cad>
          </ns3:TrackPointExtension>
        </extensions>
      </trkpt>
      <trkpt lat="45.29826088808476924896240234375" lon="-70.87254918180406093597412109375">
        <ele>1008.20001220703125</ele>
        <time>2026-08-21T15:06:18.000Z</time>
        <extensions>
          <ns3:TrackPointExtension>
            <ns3:hr>128</ns3:hr>
            <ns3:cad>0</ns3:cad>
          </ns3:TrackPointExtension>
        </extensions>
      </trkpt>
      <trkpt lat="45.29825317673385143280029296875" lon="-70.87255354039371013641357421875">
        <ele>1008</ele>
        <time>2026-08-21T15:06:19.000Z</time>
        <extensions>
          <ns3:TrackPointExtension>
            <ns3:hr>129</ns3:hr>
            <ns3:cad>0</ns3:cad>
          </ns3:TrackPointExtension>
        </extensions>
      </trkpt>
      <trkpt lat="45.2982440404593944549560546875" lon="-70.87256074883043766021728515625">
        <ele>1007.79998779296875</ele>
        <time>2026-08-21T15:06:20.000Z</time>
        <extensions>
          <ns3:TrackPointExtension>
            <ns3:hr>129</ns3:hr>
            <ns3:cad>0</ns3:cad>
          </ns3:TrackPointExtension>
        </extensions>
      </trkpt>
      <trkpt lat="45.29822953976690769195556640625" lon="-70.87257365696132183074951171875">
        <ele>1007.5999755859375</ele>
        <time>2026-08-21T15:06:21.000Z</time>
        <extensions>
          <ns3:TrackPointExtension>
            <ns3:hr>130</ns3:hr>
            <ns3:cad>0</ns3:cad>
          </ns3:TrackPointExtension>
        </extensions>
      </trkpt>
      <trkpt lat="45.29821964912116527557373046875" lon="-70.8725826255977153778076171875">
        <ele>1007.20001220703125</ele>
        <time>2026-08-21T15:06:22.000Z</time>
        <extensions>
          <ns3:TrackPointExtension>
            <ns3:hr>131</ns3:hr>
            <ns3:cad>0</ns3:cad>
          </ns3:TrackPointExtension>
        </extensions>
      </trkpt>
      <trkpt lat="45.29821646399796009063720703125" lon="-70.87258924730122089385986328125">
        <ele>1007</ele>
        <time>2026-08-21T15:06:23.000Z</time>
        <extensions>
          <ns3:TrackPointExtension>
            <ns3:hr>131</ns3:hr>
            <ns3:cad>0</ns3:cad>
          </ns3:TrackPointExtension>
        </extensions>
      </trkpt>
      <trkpt lat="45.29821461997926235198974609375" lon="-70.87259511463344097137451171875">
        <ele>1006.79998779296875</ele>
        <time>2026-08-21T15:06:24.000Z</time>
        <extensions>
          <ns3:TrackPointExtension>
            <ns3:hr>132</ns3:hr>
            <ns3:cad>0</ns3:cad>
          </ns3:TrackPointExtension>
        </extensions>
      </trkpt>
      <trkpt lat="45.29820925556123256683349609375" lon="-70.87260383181273937225341796875">
        <ele>1006.5999755859375</ele>
        <time>2026-08-21T15:06:25.000Z</time>
        <extensions>
          <ns3:TrackPointExtension>
            <ns3:hr>132</ns3:hr>
            <ns3:cad>0</ns3:cad>
          </ns3:TrackPointExtension>
        </extensions>
      </trkpt>
      <trkpt lat="45.29820003546774387359619140625" lon="-70.87261523120105266571044921875">
        <ele>1006.4000244140625</ele>
        <time>2026-08-21T15:06:26.000Z</time>
        <extensions>
          <ns3:TrackPointExtension>
            <ns3:hr>131</ns3:hr>
            <ns3:cad>0</ns3:cad>
          </ns3:TrackPointExtension>
        </extensions>
      </trkpt>
      <trkpt lat="45.298190228641033172607421875" lon="-70.87262445129454135894775390625">
        <ele>1006</ele>
        <time>2026-08-21T15:06:27.000Z</time>
        <extensions>
          <ns3:TrackPointExtension>
            <ns3:hr>129</ns3:hr>
            <ns3:cad>0</ns3:cad>
          </ns3:TrackPointExtension>
        </extensions>
      </trkpt>
      <trkpt lat="45.29818276874721050262451171875" lon="-70.872628726065158843994140625">
        <ele>1005.79998779296875</ele>
        <time>2026-08-21T15:06:28.000Z</time>
        <extensions>
          <ns3:TrackPointExtension>
            <ns3:hr>127</ns3:hr>
            <ns3:cad>0</ns3:cad>
          </ns3:TrackPointExtension>
        </extensions>
      </trkpt>
      <trkpt lat="45.2981702797114849090576171875" lon="-70.87263442575931549072265625">
        <ele>1005.5999755859375</ele>
        <time>2026-08-21T15:06:29.000Z</time>
        <extensions>
          <ns3:TrackPointExtension>
            <ns3:hr>126</ns3:hr>
            <ns3:cad>0</ns3:cad>
          </ns3:TrackPointExtension>
        </extensions>
      </trkpt>
      <trkpt lat="45.2981642447412014007568359375" lon="-70.8726426400244235992431640625">
        <ele>1005.4000244140625</ele>
        <time>2026-08-21T15:06:30.000Z</time>
        <extensions>
          <ns3:TrackPointExtension>
            <ns3:hr>121</ns3:hr>
            <ns3:cad>57</ns3:cad>
          </ns3:TrackPointExtension>
        </extensions>
      </trkpt>
      <trkpt lat="45.2981535159051418304443359375" lon="-70.87264942936599254608154296875">
        <ele>1005.4000244140625</ele>
        <time>2026-08-21T15:06:31.000Z</time>
        <extensions>
          <ns3:TrackPointExtension>
            <ns3:hr>118</ns3:hr>
            <ns3:cad>57</ns3:cad>
          </ns3:TrackPointExtension>
        </extensions>
      </trkpt>
      <trkpt lat="45.2981478162109851837158203125" lon="-70.8726537041366100311279296875">
        <ele>1005.20001220703125</ele>
        <time>2026-08-21T15:06:32.000Z</time>
        <extensions>
          <ns3:TrackPointExtension>
            <ns3:hr>117</ns3:hr>
            <ns3:cad>57</ns3:cad>
          </ns3:TrackPointExtension>
        </extensions>
      </trkpt>
      <trkpt lat="45.29814236797392368316650390625" lon="-70.87265881709754467010498046875">
        <ele>1005</ele>
        <time>2026-08-21T15:06:33.000Z</time>
        <extensions>
          <ns3:TrackPointExtension>
            <ns3:hr>117</ns3:hr>
            <ns3:cad>57</ns3:cad>
          </ns3:TrackPointExtension>
        </extensions>
      </trkpt>
      <trkpt lat="45.2981342375278472900390625" lon="-70.8726753294467926025390625">
        <ele>1004.79998779296875</ele>
        <time>2026-08-21T15:06:34.000Z</time>
        <extensions>
          <ns3:TrackPointExtension>
            <ns3:hr>117</ns3:hr>
            <ns3:cad>57</ns3:cad>
          </ns3:TrackPointExtension>
        </extensions>
      </trkpt>
      <trkpt lat="45.29813566245138645172119140625" lon="-70.87269075214862823486328125">
        <ele>1004.5999755859375</ele>
        <time>2026-08-21T15:06:35.000Z</time>
        <extensions>
          <ns3:TrackPointExtension>
            <ns3:hr>118</ns3:hr>
            <ns3:cad>57</ns3:cad>
          </ns3:TrackPointExtension>
        </extensions>
      </trkpt>
      <trkpt lat="45.29813356697559356689453125" lon="-70.87269871495664119720458984375">
        <ele>1004.20001220703125</ele>
        <time>2026-08-21T15:06:36.000Z</time>
        <extensions>
          <ns3:TrackPointExtension>
            <ns3:hr>118</ns3:hr>
            <ns3:cad>57</ns3:cad>
          </ns3:TrackPointExtension>
        </extensions>
      </trkpt>
      <trkpt lat="45.2981266938149929046630859375" lon="-70.87270592339336872100830078125">
        <ele>1004</ele>
        <time>2026-08-21T15:06:37.000Z</time>
        <extensions>
          <ns3:TrackPointExtension>
            <ns3:hr>119</ns3:hr>
            <ns3:cad>57</ns3:cad>
          </ns3:TrackPointExtension>
        </extensions>
      </trkpt>
      <trkpt lat="45.2981186471879482269287109375" lon="-70.8727174066007137298583984375">
        <ele>1003.5999755859375</ele>
        <time>2026-08-21T15:06:38.000Z</time>
        <extensions>
          <ns3:TrackPointExtension>
            <ns3:hr>119</ns3:hr>
            <ns3:cad>57</ns3:cad>
          </ns3:TrackPointExtension>
        </extensions>
      </trkpt>
      <trkpt lat="45.2981109358370304107666015625" lon="-70.8727284707129001617431640625">
        <ele>1003.4000244140625</ele>
        <time>2026-08-21T15:06:39.000Z</time>
        <extensions>
          <ns3:TrackPointExtension>
            <ns3:hr>120</ns3:hr>
            <ns3:cad>57</ns3:cad>
          </ns3:TrackPointExtension>
        </extensions>
      </trkpt>
      <trkpt lat="45.298101045191287994384765625" lon="-70.8727397024631500244140625">
        <ele>1003</ele>
        <time>2026-08-21T15:06:40.000Z</time>
        <extensions>
          <ns3:TrackPointExtension>
            <ns3:hr>120</ns3:hr>
            <ns3:cad>0</ns3:cad>
          </ns3:TrackPointExtension>
        </extensions>
      </trkpt>
      <trkpt lat="45.29809140600264072418212890625" lon="-70.87274707853794097900390625">
        <ele>1002.79998779296875</ele>
        <time>2026-08-21T15:06:41.000Z</time>
        <extensions>
          <ns3:TrackPointExtension>
            <ns3:hr>120</ns3:hr>
            <ns3:cad>0</ns3:cad>
          </ns3:TrackPointExtension>
        </extensions>
      </trkpt>
      <trkpt lat="45.29808394610881805419921875" lon="-70.8727536164224147796630859375">
        <ele>1002.5999755859375</ele>
        <time>2026-08-21T15:06:42.000Z</time>
        <extensions>
          <ns3:TrackPointExtension>
            <ns3:hr>120</ns3:hr>
            <ns3:cad>0</ns3:cad>
          </ns3:TrackPointExtension>
        </extensions>
      </trkpt>
      <trkpt lat="45.2980698645114898681640625" lon="-70.872770212590694427490234375">
        <ele>1002.4000244140625</ele>
        <time>2026-08-21T15:06:43.000Z</time>
        <extensions>
          <ns3:TrackPointExtension>
            <ns3:hr>120</ns3:hr>
            <ns3:cad>0</ns3:cad>
          </ns3:TrackPointExtension>
        </extensions>
      </trkpt>
      <trkpt lat="45.29806458391249179840087890625" lon="-70.87278999388217926025390625">
        <ele>1002.20001220703125</ele>
        <time>2026-08-21T15:06:44.000Z</time>
        <extensions>
          <ns3:TrackPointExtension>
            <ns3:hr>119</ns3:hr>
            <ns3:cad>0</ns3:cad>
          </ns3:TrackPointExtension>
        </extensions>
      </trkpt>
      <trkpt lat="45.29805670492351055145263671875" lon="-70.87280876934528350830078125">
        <ele>1002</ele>
        <time>2026-08-21T15:06:45.000Z</time>
        <extensions>
          <ns3:TrackPointExtension>
            <ns3:hr>119</ns3:hr>
            <ns3:cad>0</ns3:cad>
          </ns3:TrackPointExtension>
        </extensions>
      </trkpt>
      <trkpt lat="45.29804999940097332000732421875" lon="-70.87282159365713596343994140625">
        <ele>1001.79998779296875</ele>
        <time>2026-08-21T15:06:46.000Z</time>
        <extensions>
          <ns3:TrackPointExtension>
            <ns3:hr>119</ns3:hr>
            <ns3:cad>0</ns3:cad>
          </ns3:TrackPointExtension>
        </extensions>
      </trkpt>
      <trkpt lat="45.298040695488452911376953125" lon="-70.872833915054798126220703125">
        <ele>1001.5999755859375</ele>
        <time>2026-08-21T15:06:47.000Z</time>
        <extensions>
          <ns3:TrackPointExtension>
            <ns3:hr>119</ns3:hr>
            <ns3:cad>0</ns3:cad>
          </ns3:TrackPointExtension>
        </extensions>
      </trkpt>
      <trkpt lat="45.29803088866174221038818359375" lon="-70.87285243906080722808837890625">
        <ele>1001.20001220703125</ele>
        <time>2026-08-21T15:06:48.000Z</time>
        <extensions>
          <ns3:TrackPointExtension>
            <ns3:hr>119</ns3:hr>
            <ns3:cad>0</ns3:cad>
          </ns3:TrackPointExtension>
        </extensions>
      </trkpt>
      <trkpt lat="45.29802518896758556365966796875" lon="-70.87287272326648235321044921875">
        <ele>1000.79998779296875</ele>
        <time>2026-08-21T15:06:49.000Z</time>
        <extensions>
          <ns3:TrackPointExtension>
            <ns3:hr>119</ns3:hr>
            <ns3:cad>0</ns3:cad>
          </ns3:TrackPointExtension>
        </extensions>
      </trkpt>
      <trkpt lat="45.2980162203311920166015625" lon="-70.87288948707282543182373046875">
        <ele>1000.5999755859375</ele>
        <time>2026-08-21T15:06:50.000Z</time>
        <extensions>
          <ns3:TrackPointExtension>
            <ns3:hr>119</ns3:hr>
            <ns3:cad>0</ns3:cad>
          </ns3:TrackPointExtension>
        </extensions>
      </trkpt>
      <trkpt lat="45.29800741933286190032958984375" lon="-70.87290943600237369537353515625">
        <ele>1000.20001220703125</ele>
        <time>2026-08-21T15:06:51.000Z</time>
        <extensions>
          <ns3:TrackPointExtension>
            <ns3:hr>119</ns3:hr>
            <ns3:cad>0</ns3:cad>
          </ns3:TrackPointExtension>
        </extensions>
      </trkpt>
      <trkpt lat="45.29799853451550006866455078125" lon="-70.8729309774935245513916015625">
        <ele>1000</ele>
        <time>2026-08-21T15:06:52.000Z</time>
        <extensions>
          <ns3:TrackPointExtension>
            <ns3:hr>121</ns3:hr>
            <ns3:cad>0</ns3:cad>
          </ns3:TrackPointExtension>
        </extensions>
      </trkpt>
      <trkpt lat="45.2979929186403751373291015625" lon="-70.8729453943669795989990234375">
        <ele>999.5999755859375</ele>
        <time>2026-08-21T15:06:53.000Z</time>
        <extensions>
          <ns3:TrackPointExtension>
            <ns3:hr>120</ns3:hr>
            <ns3:cad>0</ns3:cad>
          </ns3:TrackPointExtension>
        </extensions>
      </trkpt>
      <trkpt lat="45.297982692718505859375" lon="-70.87296375073492527008056640625">
        <ele>999.4000244140625</ele>
        <time>2026-08-21T15:06:54.000Z</time>
        <extensions>
          <ns3:TrackPointExtension>
            <ns3:hr>120</ns3:hr>
            <ns3:cad>0</ns3:cad>
          </ns3:TrackPointExtension>
        </extensions>
      </trkpt>
      <trkpt lat="45.29797322116792201995849609375" lon="-70.8729891479015350341796875">
        <ele>999.20001220703125</ele>
        <time>2026-08-21T15:06:55.000Z</time>
        <extensions>
          <ns3:TrackPointExtension>
            <ns3:hr>120</ns3:hr>
            <ns3:cad>0</ns3:cad>
          </ns3:TrackPointExtension>
        </extensions>
      </trkpt>
      <trkpt lat="45.297966264188289642333984375" lon="-70.87300582788884639739990234375">
        <ele>999</ele>
        <time>2026-08-21T15:06:56.000Z</time>
        <extensions>
          <ns3:TrackPointExtension>
            <ns3:hr>120</ns3:hr>
            <ns3:cad>0</ns3:cad>
          </ns3:TrackPointExtension>
        </extensions>
      </trkpt>
      <trkpt lat="45.2979624085128307342529296875" lon="-70.87301102466881275177001953125">
        <ele>998.79998779296875</ele>
        <time>2026-08-21T15:06:57.000Z</time>
        <extensions>
          <ns3:TrackPointExtension>
            <ns3:hr>120</ns3:hr>
            <ns3:cad>0</ns3:cad>
          </ns3:TrackPointExtension>
        </extensions>
      </trkpt>
      <trkpt lat="45.29794715344905853271484375" lon="-70.87301722727715969085693359375">
        <ele>998.79998779296875</ele>
        <time>2026-08-21T15:06:58.000Z</time>
        <extensions>
          <ns3:TrackPointExtension>
            <ns3:hr>121</ns3:hr>
            <ns3:cad>0</ns3:cad>
          </ns3:TrackPointExtension>
        </extensions>
      </trkpt>
      <trkpt lat="45.29793365858495235443115234375" lon="-70.873035751283168792724609375">
        <ele>998.5999755859375</ele>
        <time>2026-08-21T15:06:59.000Z</time>
        <extensions>
          <ns3:TrackPointExtension>
            <ns3:hr>121</ns3:hr>
            <ns3:cad>0</ns3:cad>
          </ns3:TrackPointExtension>
        </extensions>
      </trkpt>
      <trkpt lat="45.29792225919663906097412109375" lon="-70.8730533532798290252685546875">
        <ele>998.4000244140625</ele>
        <time>2026-08-21T15:07:00.000Z</time>
        <extensions>
          <ns3:TrackPointExtension>
            <ns3:hr>121</ns3:hr>
            <ns3:cad>0</ns3:cad>
          </ns3:TrackPointExtension>
        </extensions>
      </trkpt>
      <trkpt lat="45.29791622422635555267333984375" lon="-70.87307455949485301971435546875">
        <ele>998.4000244140625</ele>
        <time>2026-08-21T15:07:01.000Z</time>
        <extensions>
          <ns3:TrackPointExtension>
            <ns3:hr>121</ns3:hr>
            <ns3:cad>0</ns3:cad>
          </ns3:TrackPointExtension>
        </extensions>
      </trkpt>
      <trkpt lat="45.29791622422635555267333984375" lon="-70.87310020811855792999267578125">
        <ele>998</ele>
        <time>2026-08-21T15:07:02.000Z</time>
        <extensions>
          <ns3:TrackPointExtension>
            <ns3:hr>121</ns3:hr>
            <ns3:cad>61</ns3:cad>
          </ns3:TrackPointExtension>
        </extensions>
      </trkpt>
      <trkpt lat="45.29791203327476978302001953125" lon="-70.87312032468616962432861328125">
        <ele>997.5999755859375</ele>
        <time>2026-08-21T15:07:03.000Z</time>
        <extensions>
          <ns3:TrackPointExtension>
            <ns3:hr>121</ns3:hr>
            <ns3:cad>61</ns3:cad>
          </ns3:TrackPointExtension>
        </extensions>
      </trkpt>
      <trkpt lat="45.29790767468512058258056640625" lon="-70.87313910014927387237548828125">
        <ele>997.20001220703125</ele>
        <time>2026-08-21T15:07:04.000Z</time>
        <extensions>
          <ns3:TrackPointExtension>
            <ns3:hr>121</ns3:hr>
            <ns3:cad>61</ns3:cad>
          </ns3:TrackPointExtension>
        </extensions>
      </trkpt>
      <trkpt lat="45.29790331609547138214111328125" lon="-70.87315049953758716583251953125">
        <ele>997</ele>
        <time>2026-08-21T15:07:05.000Z</time>
        <extensions>
          <ns3:TrackPointExtension>
            <ns3:hr>121</ns3:hr>
            <ns3:cad>61</ns3:cad>
          </ns3:TrackPointExtension>
        </extensions>
      </trkpt>
      <trkpt lat="45.2978970296680927276611328125" lon="-70.8731690235435962677001953125">
        <ele>996.5999755859375</ele>
        <time>2026-08-21T15:07:06.000Z</time>
        <extensions>
          <ns3:TrackPointExtension>
            <ns3:hr>121</ns3:hr>
            <ns3:cad>57</ns3:cad>
          </ns3:TrackPointExtension>
        </extensions>
      </trkpt>
      <trkpt lat="45.2978930063545703887939453125" lon="-70.87318427860736846923828125">
        <ele>996.4000244140625</ele>
        <time>2026-08-21T15:07:07.000Z</time>
        <extensions>
          <ns3:TrackPointExtension>
            <ns3:hr>122</ns3:hr>
            <ns3:cad>57</ns3:cad>
          </ns3:TrackPointExtension>
        </extensions>
      </trkpt>
      <trkpt lat="45.297892503440380096435546875" lon="-70.87320146150887012481689453125">
        <ele>996</ele>
        <time>2026-08-21T15:07:08.000Z</time>
        <extensions>
          <ns3:TrackPointExtension>
            <ns3:hr>122</ns3:hr>
            <ns3:cad>57</ns3:cad>
          </ns3:TrackPointExtension>
        </extensions>
      </trkpt>
      <trkpt lat="45.2978923358023166656494140625" lon="-70.87321671657264232635498046875">
        <ele>995.79998779296875</ele>
        <time>2026-08-21T15:07:09.000Z</time>
        <extensions>
          <ns3:TrackPointExtension>
            <ns3:hr>123</ns3:hr>
            <ns3:cad>57</ns3:cad>
          </ns3:TrackPointExtension>
        </extensions>
      </trkpt>
      <trkpt lat="45.29789158143103122711181640625" lon="-70.87323716841638088226318359375">
        <ele>995.79998779296875</ele>
        <time>2026-08-21T15:07:10.000Z</time>
        <extensions>
          <ns3:TrackPointExtension>
            <ns3:hr>123</ns3:hr>
            <ns3:cad>57</ns3:cad>
          </ns3:TrackPointExtension>
        </extensions>
      </trkpt>
      <trkpt lat="45.29789007268846035003662109375" lon="-70.8732565306127071380615234375">
        <ele>995.5999755859375</ele>
        <time>2026-08-21T15:07:11.000Z</time>
        <extensions>
          <ns3:TrackPointExtension>
            <ns3:hr>123</ns3:hr>
            <ns3:cad>0</ns3:cad>
          </ns3:TrackPointExtension>
        </extensions>
      </trkpt>
      <trkpt lat="45.29788940213620662689208984375" lon="-70.873281843960285186767578125">
        <ele>995.20001220703125</ele>
        <time>2026-08-21T15:07:12.000Z</time>
        <extensions>
          <ns3:TrackPointExtension>
            <ns3:hr>123</ns3:hr>
            <ns3:cad>0</ns3:cad>
          </ns3:TrackPointExtension>
        </extensions>
      </trkpt>
      <trkpt lat="45.29788873158395290374755859375" lon="-70.87330170907080173492431640625">
        <ele>995</ele>
        <time>2026-08-21T15:07:13.000Z</time>
        <extensions>
          <ns3:TrackPointExtension>
            <ns3:hr>124</ns3:hr>
            <ns3:cad>0</ns3:cad>
          </ns3:TrackPointExtension>
        </extensions>
      </trkpt>
      <trkpt lat="45.29788822866976261138916015625" lon="-70.8733152039349079132080078125">
        <ele>994.79998779296875</ele>
        <time>2026-08-21T15:07:14.000Z</time>
        <extensions>
          <ns3:TrackPointExtension>
            <ns3:hr>124</ns3:hr>
            <ns3:cad>0</ns3:cad>
          </ns3:TrackPointExtension>
        </extensions>
      </trkpt>
      <trkpt lat="45.29788454063236713409423828125" lon="-70.87332534603774547576904296875">
        <ele>994.4000244140625</ele>
        <time>2026-08-21T15:07:15.000Z</time>
        <extensions>
          <ns3:TrackPointExtension>
            <ns3:hr>124</ns3:hr>
            <ns3:cad>0</ns3:cad>
          </ns3:TrackPointExtension>
        </extensions>
      </trkpt>
      <trkpt lat="45.29788018204271793365478515625" lon="-70.873339511454105377197265625">
        <ele>994.20001220703125</ele>
        <time>2026-08-21T15:07:16.000Z</time>
        <extensions>
          <ns3:TrackPointExtension>
            <ns3:hr>124</ns3:hr>
            <ns3:cad>0</ns3:cad>
          </ns3:TrackPointExtension>
        </extensions>
      </trkpt>
      <trkpt lat="45.2978735603392124176025390625" lon="-70.87335267104208469390869140625">
        <ele>994</ele>
        <time>2026-08-21T15:07:17.000Z</time>
        <extensions>
          <ns3:TrackPointExtension>
            <ns3:hr>123</ns3:hr>
            <ns3:cad>0</ns3:cad>
          </ns3:TrackPointExtension>
        </extensions>
      </trkpt>
      <trkpt lat="45.297870375216007232666015625" lon="-70.87336708791553974151611328125">
        <ele>993.79998779296875</ele>
        <time>2026-08-21T15:07:18.000Z</time>
        <extensions>
          <ns3:TrackPointExtension>
            <ns3:hr>124</ns3:hr>
            <ns3:cad>0</ns3:cad>
          </ns3:TrackPointExtension>
        </extensions>
      </trkpt>
      <trkpt lat="45.29786459170281887054443359375" lon="-70.87338544428348541259765625">
        <ele>993.4000244140625</ele>
        <time>2026-08-21T15:07:19.000Z</time>
        <extensions>
          <ns3:TrackPointExtension>
            <ns3:hr>124</ns3:hr>
            <ns3:cad>0</ns3:cad>
          </ns3:TrackPointExtension>
        </extensions>
      </trkpt>
      <trkpt lat="45.297856293618679046630859375" lon="-70.8733990229666233062744140625">
        <ele>993.20001220703125</ele>
        <time>2026-08-21T15:07:20.000Z</time>
        <extensions>
          <ns3:TrackPointExtension>
            <ns3:hr>123</ns3:hr>
            <ns3:cad>0</ns3:cad>
          </ns3:TrackPointExtension>
        </extensions>
      </trkpt>
      <trkpt lat="45.29785000719130039215087890625" lon="-70.873413272202014923095703125">
        <ele>993.20001220703125</ele>
        <time>2026-08-21T15:07:21.000Z</time>
        <extensions>
          <ns3:TrackPointExtension>
            <ns3:hr>123</ns3:hr>
            <ns3:cad>0</ns3:cad>
          </ns3:TrackPointExtension>
        </extensions>
      </trkpt>
      <trkpt lat="45.29784564860165119171142578125" lon="-70.87342374958097934722900390625">
        <ele>993</ele>
        <time>2026-08-21T15:07:22.000Z</time>
        <extensions>
          <ns3:TrackPointExtension>
            <ns3:hr>123</ns3:hr>
            <ns3:cad>0</ns3:cad>
          </ns3:TrackPointExtension>
        </extensions>
      </trkpt>
      <trkpt lat="45.29784296639263629913330078125" lon="-70.87343984283506870269775390625">
        <ele>992.5999755859375</ele>
        <time>2026-08-21T15:07:23.000Z</time>
        <extensions>
          <ns3:TrackPointExtension>
            <ns3:hr>123</ns3:hr>
            <ns3:cad>0</ns3:cad>
          </ns3:TrackPointExtension>
        </extensions>
      </trkpt>
      <trkpt lat="45.29783844016492366790771484375" lon="-70.8734613843262195587158203125">
        <ele>992.4000244140625</ele>
        <time>2026-08-21T15:07:24.000Z</time>
        <extensions>
          <ns3:TrackPointExtension>
            <ns3:hr>123</ns3:hr>
            <ns3:cad>0</ns3:cad>
          </ns3:TrackPointExtension>
        </extensions>
      </trkpt>
      <trkpt lat="45.2978386916220188140869140625" lon="-70.8734784834086894989013671875">
        <ele>992.20001220703125</ele>
        <time>2026-08-21T15:07:25.000Z</time>
        <extensions>
          <ns3:TrackPointExtension>
            <ns3:hr>123</ns3:hr>
            <ns3:cad>0</ns3:cad>
          </ns3:TrackPointExtension>
        </extensions>
      </trkpt>
      <trkpt lat="45.2978386916220188140869140625" lon="-70.87349415756762027740478515625">
        <ele>991.79998779296875</ele>
        <time>2026-08-21T15:07:26.000Z</time>
        <extensions>
          <ns3:TrackPointExtension>
            <ns3:hr>123</ns3:hr>
            <ns3:cad>0</ns3:cad>
          </ns3:TrackPointExtension>
        </extensions>
      </trkpt>
      <trkpt lat="45.2978365123271942138671875" lon="-70.87351997382938861846923828125">
        <ele>991.5999755859375</ele>
        <time>2026-08-21T15:07:27.000Z</time>
        <extensions>
          <ns3:TrackPointExtension>
            <ns3:hr>124</ns3:hr>
            <ns3:cad>0</ns3:cad>
          </ns3:TrackPointExtension>
        </extensions>
      </trkpt>
      <trkpt lat="45.29783357866108417510986328125" lon="-70.873539336025714874267578125">
        <ele>991.20001220703125</ele>
        <time>2026-08-21T15:07:28.000Z</time>
        <extensions>
          <ns3:TrackPointExtension>
            <ns3:hr>124</ns3:hr>
            <ns3:cad>0</ns3:cad>
          </ns3:TrackPointExtension>
        </extensions>
      </trkpt>
      <trkpt lat="45.297830812633037567138671875" lon="-70.87355199269950389862060546875">
        <ele>991</ele>
        <time>2026-08-21T15:07:29.000Z</time>
        <extensions>
          <ns3:TrackPointExtension>
            <ns3:hr>124</ns3:hr>
            <ns3:cad>0</ns3:cad>
          </ns3:TrackPointExtension>
        </extensions>
      </trkpt>
      <trkpt lat="45.29782603494822978973388671875" lon="-70.87356381118297576904296875">
        <ele>990.5999755859375</ele>
        <time>2026-08-21T15:07:30.000Z</time>
        <extensions>
          <ns3:TrackPointExtension>
            <ns3:hr>124</ns3:hr>
            <ns3:cad>0</ns3:cad>
          </ns3:TrackPointExtension>
        </extensions>
      </trkpt>
      <trkpt lat="45.29782050289213657379150390625" lon="-70.873577557504177093505859375">
        <ele>990.4000244140625</ele>
        <time>2026-08-21T15:07:31.000Z</time>
        <extensions>
          <ns3:TrackPointExtension>
            <ns3:hr>124</ns3:hr>
            <ns3:cad>0</ns3:cad>
          </ns3:TrackPointExtension>
        </extensions>
      </trkpt>
      <trkpt lat="45.29781036078929901123046875" lon="-70.87359440512955188751220703125">
        <ele>990.20001220703125</ele>
        <time>2026-08-21T15:07:32.000Z</time>
        <extensions>
          <ns3:TrackPointExtension>
            <ns3:hr>124</ns3:hr>
            <ns3:cad>0</ns3:cad>
          </ns3:TrackPointExtension>
        </extensions>
      </trkpt>
      <trkpt lat="45.29780306853353977203369140625" lon="-70.8736008591949939727783203125">
        <ele>990</ele>
        <time>2026-08-21T15:07:33.000Z</time>
        <extensions>
          <ns3:TrackPointExtension>
            <ns3:hr>124</ns3:hr>
            <ns3:cad>0</ns3:cad>
          </ns3:TrackPointExtension>
        </extensions>
      </trkpt>
      <trkpt lat="45.29779653064906597137451171875" lon="-70.8736112527549266815185546875">
        <ele>989.79998779296875</ele>
        <time>2026-08-21T15:07:34.000Z</time>
        <extensions>
          <ns3:TrackPointExtension>
            <ns3:hr>123</ns3:hr>
            <ns3:cad>0</ns3:cad>
          </ns3:TrackPointExtension>
        </extensions>
      </trkpt>
      <trkpt lat="45.29778412543237209320068359375" lon="-70.87362684309482574462890625">
        <ele>989.5999755859375</ele>
        <time>2026-08-21T15:07:35.000Z</time>
        <extensions>
          <ns3:TrackPointExtension>
            <ns3:hr>124</ns3:hr>
            <ns3:cad>0</ns3:cad>
          </ns3:TrackPointExtension>
        </extensions>
      </trkpt>
      <trkpt lat="45.29777138493955135345458984375" lon="-70.873642265796661376953125">
        <ele>989.20001220703125</ele>
        <time>2026-08-21T15:07:36.000Z</time>
        <extensions>
          <ns3:TrackPointExtension>
            <ns3:hr>124</ns3:hr>
            <ns3:cad>0</ns3:cad>
          </ns3:TrackPointExtension>
        </extensions>
      </trkpt>
      <trkpt lat="45.29776115901768207550048828125" lon="-70.873656012117862701416015625">
        <ele>988.79998779296875</ele>
        <time>2026-08-21T15:07:37.000Z</time>
        <extensions>
          <ns3:TrackPointExtension>
            <ns3:hr>123</ns3:hr>
            <ns3:cad>0</ns3:cad>
          </ns3:TrackPointExtension>
        </extensions>
      </trkpt>
      <trkpt lat="45.2977468259632587432861328125" lon="-70.87367285974323749542236328125">
        <ele>988.4000244140625</ele>
        <time>2026-08-21T15:07:38.000Z</time>
        <extensions>
          <ns3:TrackPointExtension>
            <ns3:hr>123</ns3:hr>
            <ns3:cad>0</ns3:cad>
          </ns3:TrackPointExtension>
        </extensions>
      </trkpt>
      <trkpt lat="45.29773333109915256500244140625" lon="-70.873690210282802581787109375">
        <ele>988.20001220703125</ele>
        <time>2026-08-21T15:07:39.000Z</time>
        <extensions>
          <ns3:TrackPointExtension>
            <ns3:hr>123</ns3:hr>
            <ns3:cad>0</ns3:cad>
          </ns3:TrackPointExtension>
        </extensions>
      </trkpt>
      <trkpt lat="45.29772444628179073333740234375" lon="-70.8737051300704479217529296875">
        <ele>987.79998779296875</ele>
        <time>2026-08-21T15:07:40.000Z</time>
        <extensions>
          <ns3:TrackPointExtension>
            <ns3:hr>123</ns3:hr>
            <ns3:cad>0</ns3:cad>
          </ns3:TrackPointExtension>
        </extensions>
      </trkpt>
      <trkpt lat="45.2977139689028263092041015625" lon="-70.873721055686473846435546875">
        <ele>987.5999755859375</ele>
        <time>2026-08-21T15:07:41.000Z</time>
        <extensions>
          <ns3:TrackPointExtension>
            <ns3:hr>123</ns3:hr>
            <ns3:cad>0</ns3:cad>
          </ns3:TrackPointExtension>
        </extensions>
      </trkpt>
      <trkpt lat="45.29770650900900363922119140625" lon="-70.873739160597324371337890625">
        <ele>987.20001220703125</ele>
        <time>2026-08-21T15:07:42.000Z</time>
        <extensions>
          <ns3:TrackPointExtension>
            <ns3:hr>123</ns3:hr>
            <ns3:cad>0</ns3:cad>
          </ns3:TrackPointExtension>
        </extensions>
      </trkpt>
      <trkpt lat="45.29769795946776866912841796875" lon="-70.87374729104340076446533203125">
        <ele>987</ele>
        <time>2026-08-21T15:07:43.000Z</time>
        <extensions>
          <ns3:TrackPointExtension>
            <ns3:hr>123</ns3:hr>
            <ns3:cad>0</ns3:cad>
          </ns3:TrackPointExtension>
        </extensions>
      </trkpt>
      <trkpt lat="45.297683291137218475341796875" lon="-70.87374578230082988739013671875">
        <ele>986.5999755859375</ele>
        <time>2026-08-21T15:07:44.000Z</time>
        <extensions>
          <ns3:TrackPointExtension>
            <ns3:hr>122</ns3:hr>
            <ns3:cad>0</ns3:cad>
          </ns3:TrackPointExtension>
        </extensions>
      </trkpt>
      <trkpt lat="45.29767231084406375885009765625" lon="-70.87375223636627197265625">
        <ele>986.4000244140625</ele>
        <time>2026-08-21T15:07:45.000Z</time>
        <extensions>
          <ns3:TrackPointExtension>
            <ns3:hr>122</ns3:hr>
            <ns3:cad>0</ns3:cad>
          </ns3:TrackPointExtension>
        </extensions>
      </trkpt>
      <trkpt lat="45.29766174964606761932373046875" lon="-70.87376053445041179656982421875">
        <ele>986</ele>
        <time>2026-08-21T15:07:46.000Z</time>
        <extensions>
          <ns3:TrackPointExtension>
            <ns3:hr>122</ns3:hr>
            <ns3:cad>0</ns3:cad>
          </ns3:TrackPointExtension>
        </extensions>
      </trkpt>
      <trkpt lat="45.2976489253342151641845703125" lon="-70.8737728558480739593505859375">
        <ele>985.79998779296875</ele>
        <time>2026-08-21T15:07:47.000Z</time>
        <extensions>
          <ns3:TrackPointExtension>
            <ns3:hr>122</ns3:hr>
            <ns3:cad>0</ns3:cad>
          </ns3:TrackPointExtension>
        </extensions>
      </trkpt>
      <trkpt lat="45.29763710685074329376220703125" lon="-70.873782746493816375732421875">
        <ele>985.4000244140625</ele>
        <time>2026-08-21T15:07:48.000Z</time>
        <extensions>
          <ns3:TrackPointExtension>
            <ns3:hr>121</ns3:hr>
            <ns3:cad>0</ns3:cad>
          </ns3:TrackPointExtension>
        </extensions>
      </trkpt>
      <trkpt lat="45.2976291440427303314208984375" lon="-70.87378350086510181427001953125">
        <ele>985</ele>
        <time>2026-08-21T15:07:49.000Z</time>
        <extensions>
          <ns3:TrackPointExtension>
            <ns3:hr>121</ns3:hr>
            <ns3:cad>0</ns3:cad>
          </ns3:TrackPointExtension>
        </extensions>
      </trkpt>
      <trkpt lat="45.2976197563111782073974609375" lon="-70.87378668598830699920654296875">
        <ele>984.79998779296875</ele>
        <time>2026-08-21T15:07:50.000Z</time>
        <extensions>
          <ns3:TrackPointExtension>
            <ns3:hr>121</ns3:hr>
            <ns3:cad>70</ns3:cad>
          </ns3:TrackPointExtension>
        </extensions>
      </trkpt>
      <trkpt lat="45.29760374687612056732177734375" lon="-70.87378953583538532257080078125">
        <ele>984.4000244140625</ele>
        <time>2026-08-21T15:07:51.000Z</time>
        <extensions>
          <ns3:TrackPointExtension>
            <ns3:hr>122</ns3:hr>
            <ns3:cad>70</ns3:cad>
          </ns3:TrackPointExtension>
        </extensions>
      </trkpt>
      <trkpt lat="45.29758715070784091949462890625" lon="-70.87379691191017627716064453125">
        <ele>984.20001220703125</ele>
        <time>2026-08-21T15:07:52.000Z</time>
        <extensions>
          <ns3:TrackPointExtension>
            <ns3:hr>122</ns3:hr>
            <ns3:cad>70</ns3:cad>
          </ns3:TrackPointExtension>
        </extensions>
      </trkpt>
      <trkpt lat="45.29756703414022922515869140625" lon="-70.87380546145141124725341796875">
        <ele>983.79998779296875</ele>
        <time>2026-08-21T15:07:53.000Z</time>
        <extensions>
          <ns3:TrackPointExtension>
            <ns3:hr>122</ns3:hr>
            <ns3:cad>70</ns3:cad>
          </ns3:TrackPointExtension>
        </extensions>
      </trkpt>
      <trkpt lat="45.29754884541034698486328125" lon="-70.8738070540130138397216796875">
        <ele>983.5999755859375</ele>
        <time>2026-08-21T15:07:54.000Z</time>
        <extensions>
          <ns3:TrackPointExtension>
            <ns3:hr>122</ns3:hr>
            <ns3:cad>0</ns3:cad>
          </ns3:TrackPointExtension>
        </extensions>
      </trkpt>
      <trkpt lat="45.2975359372794628143310546875" lon="-70.873803198337554931640625">
        <ele>983.5999755859375</ele>
        <time>2026-08-21T15:07:55.000Z</time>
        <extensions>
          <ns3:TrackPointExtension>
            <ns3:hr>123</ns3:hr>
            <ns3:cad>0</ns3:cad>
          </ns3:TrackPointExtension>
        </extensions>
      </trkpt>
      <trkpt lat="45.29751556925475597381591796875" lon="-70.87379716336727142333984375">
        <ele>983.4000244140625</ele>
        <time>2026-08-21T15:07:56.000Z</time>
        <extensions>
          <ns3:TrackPointExtension>
            <ns3:hr>124</ns3:hr>
            <ns3:cad>0</ns3:cad>
          </ns3:TrackPointExtension>
        </extensions>
      </trkpt>
      <trkpt lat="45.297497548162937164306640625" lon="-70.87381082586944103240966796875">
        <ele>983.4000244140625</ele>
        <time>2026-08-21T15:07:57.000Z</time>
        <extensions>
          <ns3:TrackPointExtension>
            <ns3:hr>125</ns3:hr>
            <ns3:cad>73</ns3:cad>
          </ns3:TrackPointExtension>
        </extensions>
      </trkpt>
      <trkpt lat="45.29748237691819667816162109375" lon="-70.87382691912353038787841796875">
        <ele>983.20001220703125</ele>
        <time>2026-08-21T15:07:58.000Z</time>
        <extensions>
          <ns3:TrackPointExtension>
            <ns3:hr>126</ns3:hr>
            <ns3:cad>73</ns3:cad>
          </ns3:TrackPointExtension>
        </extensions>
      </trkpt>
      <trkpt lat="45.29746980406343936920166015625" lon="-70.8738372288644313812255859375">
        <ele>983.20001220703125</ele>
        <time>2026-08-21T15:07:59.000Z</time>
        <extensions>
          <ns3:TrackPointExtension>
            <ns3:hr>126</ns3:hr>
            <ns3:cad>73</ns3:cad>
          </ns3:TrackPointExtension>
        </extensions>
      </trkpt>
      <trkpt lat="45.29745086096227169036865234375" lon="-70.8738516457378864288330078125">
        <ele>982.79998779296875</ele>
        <time>2026-08-21T15:08:00.000Z</time>
        <extensions>
          <ns3:TrackPointExtension>
            <ns3:hr>126</ns3:hr>
            <ns3:cad>73</ns3:cad>
          </ns3:TrackPointExtension>
        </extensions>
      </trkpt>
      <trkpt lat="45.2974390424787998199462890625" lon="-70.873864553868770599365234375">
        <ele>982.5999755859375</ele>
        <time>2026-08-21T15:08:01.000Z</time>
        <extensions>
          <ns3:TrackPointExtension>
            <ns3:hr>127</ns3:hr>
            <ns3:cad>73</ns3:cad>
          </ns3:TrackPointExtension>
        </extensions>
      </trkpt>
      <trkpt lat="45.29742739163339138031005859375" lon="-70.8738811500370502471923828125">
        <ele>982.4000244140625</ele>
        <time>2026-08-21T15:08:02.000Z</time>
        <extensions>
          <ns3:TrackPointExtension>
            <ns3:hr>126</ns3:hr>
            <ns3:cad>73</ns3:cad>
          </ns3:TrackPointExtension>
        </extensions>
      </trkpt>
      <trkpt lat="45.29741900973021984100341796875" lon="-70.8739032782614231109619140625">
        <ele>982</ele>
        <time>2026-08-21T15:08:03.000Z</time>
        <extensions>
          <ns3:TrackPointExtension>
            <ns3:hr>126</ns3:hr>
            <ns3:cad>73</ns3:cad>
          </ns3:TrackPointExtension>
        </extensions>
      </trkpt>
      <trkpt lat="45.29740761034190654754638671875" lon="-70.87391710840165615081787109375">
        <ele>981.79998779296875</ele>
        <time>2026-08-21T15:08:04.000Z</time>
        <extensions>
          <ns3:TrackPointExtension>
            <ns3:hr>126</ns3:hr>
            <ns3:cad>73</ns3:cad>
          </ns3:TrackPointExtension>
        </extensions>
      </trkpt>
      <trkpt lat="45.29740040190517902374267578125" lon="-70.87392901070415973663330078125">
        <ele>981.5999755859375</ele>
        <time>2026-08-21T15:08:05.000Z</time>
        <extensions>
          <ns3:TrackPointExtension>
            <ns3:hr>126</ns3:hr>
            <ns3:cad>73</ns3:cad>
          </ns3:TrackPointExtension>
        </extensions>
      </trkpt>
      <trkpt lat="45.29739486984908580780029296875" lon="-70.873939990997314453125">
        <ele>981.4000244140625</ele>
        <time>2026-08-21T15:08:06.000Z</time>
        <extensions>
          <ns3:TrackPointExtension>
            <ns3:hr>126</ns3:hr>
            <ns3:cad>0</ns3:cad>
          </ns3:TrackPointExtension>
        </extensions>
      </trkpt>
      <trkpt lat="45.297385565936565399169921875" lon="-70.87395868264138698577880859375">
        <ele>981.4000244140625</ele>
        <time>2026-08-21T15:08:07.000Z</time>
        <extensions>
          <ns3:TrackPointExtension>
            <ns3:hr>127</ns3:hr>
            <ns3:cad>0</ns3:cad>
          </ns3:TrackPointExtension>
        </extensions>
      </trkpt>
      <trkpt lat="45.29737852513790130615234375" lon="-70.8739767037332057952880859375">
        <ele>981.20001220703125</ele>
        <time>2026-08-21T15:08:08.000Z</time>
        <extensions>
          <ns3:TrackPointExtension>
            <ns3:hr>127</ns3:hr>
            <ns3:cad>0</ns3:cad>
          </ns3:TrackPointExtension>
        </extensions>
      </trkpt>
      <trkpt lat="45.29736771248281002044677734375" lon="-70.87400025688111782073974609375">
        <ele>981</ele>
        <time>2026-08-21T15:08:09.000Z</time>
        <extensions>
          <ns3:TrackPointExtension>
            <ns3:hr>128</ns3:hr>
            <ns3:cad>0</ns3:cad>
          </ns3:TrackPointExtension>
        </extensions>
      </trkpt>
      <trkpt lat="45.29735631309449672698974609375" lon="-70.8740119077265262603759765625">
        <ele>980.79998779296875</ele>
        <time>2026-08-21T15:08:10.000Z</time>
        <extensions>
          <ns3:TrackPointExtension>
            <ns3:hr>128</ns3:hr>
            <ns3:cad>0</ns3:cad>
          </ns3:TrackPointExtension>
        </extensions>
      </trkpt>
      <trkpt lat="45.29734524898231029510498046875" lon="-70.87402439676225185394287109375">
        <ele>980.4000244140625</ele>
        <time>2026-08-21T15:08:11.000Z</time>
        <extensions>
          <ns3:TrackPointExtension>
            <ns3:hr>128</ns3:hr>
            <ns3:cad>0</ns3:cad>
          </ns3:TrackPointExtension>
        </extensions>
      </trkpt>
      <trkpt lat="45.29733452014625072479248046875" lon="-70.87404015474021434783935546875">
        <ele>980.20001220703125</ele>
        <time>2026-08-21T15:08:12.000Z</time>
        <extensions>
          <ns3:TrackPointExtension>
            <ns3:hr>128</ns3:hr>
            <ns3:cad>0</ns3:cad>
          </ns3:TrackPointExtension>
        </extensions>
      </trkpt>
      <trkpt lat="45.29732756316661834716796875" lon="-70.87405406869947910308837890625">
        <ele>979.79998779296875</ele>
        <time>2026-08-21T15:08:13.000Z</time>
        <extensions>
          <ns3:TrackPointExtension>
            <ns3:hr>129</ns3:hr>
            <ns3:cad>0</ns3:cad>
          </ns3:TrackPointExtension>
        </extensions>
      </trkpt>
      <trkpt lat="45.297321863472461700439453125" lon="-70.87406932376325130462646484375">
        <ele>979.5999755859375</ele>
        <time>2026-08-21T15:08:14.000Z</time>
        <extensions>
          <ns3:TrackPointExtension>
            <ns3:hr>129</ns3:hr>
            <ns3:cad>0</ns3:cad>
          </ns3:TrackPointExtension>
        </extensions>
      </trkpt>
      <trkpt lat="45.29731205664575099945068359375" lon="-70.87408541701734066009521484375">
        <ele>979.4000244140625</ele>
        <time>2026-08-21T15:08:15.000Z</time>
        <extensions>
          <ns3:TrackPointExtension>
            <ns3:hr>129</ns3:hr>
            <ns3:cad>0</ns3:cad>
          </ns3:TrackPointExtension>
        </extensions>
      </trkpt>
      <trkpt lat="45.29730342328548431396484375" lon="-70.87409832514822483062744140625">
        <ele>979</ele>
        <time>2026-08-21T15:08:16.000Z</time>
        <extensions>
          <ns3:TrackPointExtension>
            <ns3:hr>129</ns3:hr>
            <ns3:cad>0</ns3:cad>
          </ns3:TrackPointExtension>
        </extensions>
      </trkpt>
      <trkpt lat="45.29729244299232959747314453125" lon="-70.874111317098140716552734375">
        <ele>978.79998779296875</ele>
        <time>2026-08-21T15:08:17.000Z</time>
        <extensions>
          <ns3:TrackPointExtension>
            <ns3:hr>129</ns3:hr>
            <ns3:cad>0</ns3:cad>
          </ns3:TrackPointExtension>
        </extensions>
      </trkpt>
      <trkpt lat="45.29728456400334835052490234375" lon="-70.87412246502935886383056640625">
        <ele>978.5999755859375</ele>
        <time>2026-08-21T15:08:18.000Z</time>
        <extensions>
          <ns3:TrackPointExtension>
            <ns3:hr>128</ns3:hr>
            <ns3:cad>0</ns3:cad>
          </ns3:TrackPointExtension>
        </extensions>
      </trkpt>
      <trkpt lat="45.29727391898632049560546875" lon="-70.8741305954754352569580078125">
        <ele>978.4000244140625</ele>
        <time>2026-08-21T15:08:19.000Z</time>
        <extensions>
          <ns3:TrackPointExtension>
            <ns3:hr>128</ns3:hr>
            <ns3:cad>0</ns3:cad>
          </ns3:TrackPointExtension>
        </extensions>
      </trkpt>
      <trkpt lat="45.2972583286464214324951171875" lon="-70.8741436712443828582763671875">
        <ele>978.20001220703125</ele>
        <time>2026-08-21T15:08:20.000Z</time>
        <extensions>
          <ns3:TrackPointExtension>
            <ns3:hr>128</ns3:hr>
            <ns3:cad>0</ns3:cad>
          </ns3:TrackPointExtension>
        </extensions>
      </trkpt>
      <trkpt lat="45.29724307358264923095703125" lon="-70.87416353635489940643310546875">
        <ele>978</ele>
        <time>2026-08-21T15:08:21.000Z</time>
        <extensions>
          <ns3:TrackPointExtension>
            <ns3:hr>128</ns3:hr>
            <ns3:cad>0</ns3:cad>
          </ns3:TrackPointExtension>
        </extensions>
      </trkpt>
      <trkpt lat="45.2972351945936679840087890625" lon="-70.8741802163422107696533203125">
        <ele>977.79998779296875</ele>
        <time>2026-08-21T15:08:22.000Z</time>
        <extensions>
          <ns3:TrackPointExtension>
            <ns3:hr>128</ns3:hr>
            <ns3:cad>0</ns3:cad>
          </ns3:TrackPointExtension>
        </extensions>
      </trkpt>
      <trkpt lat="45.2972249686717987060546875" lon="-70.8741939626634120941162109375">
        <ele>977.5999755859375</ele>
        <time>2026-08-21T15:08:23.000Z</time>
        <extensions>
          <ns3:TrackPointExtension>
            <ns3:hr>127</ns3:hr>
            <ns3:cad>68</ns3:cad>
          </ns3:TrackPointExtension>
        </extensions>
      </trkpt>
      <trkpt lat="45.29721097089350223541259765625" lon="-70.87420930154621601104736328125">
        <ele>977.20001220703125</ele>
        <time>2026-08-21T15:08:24.000Z</time>
        <extensions>
          <ns3:TrackPointExtension>
            <ns3:hr>127</ns3:hr>
            <ns3:cad>68</ns3:cad>
          </ns3:TrackPointExtension>
        </extensions>
      </trkpt>
      <trkpt lat="45.29719605110585689544677734375" lon="-70.8742278255522251129150390625">
        <ele>977</ele>
        <time>2026-08-21T15:08:25.000Z</time>
        <extensions>
          <ns3:TrackPointExtension>
            <ns3:hr>128</ns3:hr>
            <ns3:cad>68</ns3:cad>
          </ns3:TrackPointExtension>
        </extensions>
      </trkpt>
      <trkpt lat="45.29718364588916301727294921875" lon="-70.87424869649112224578857421875">
        <ele>976.5999755859375</ele>
        <time>2026-08-21T15:08:26.000Z</time>
        <extensions>
          <ns3:TrackPointExtension>
            <ns3:hr>127</ns3:hr>
            <ns3:cad>68</ns3:cad>
          </ns3:TrackPointExtension>
        </extensions>
      </trkpt>
      <trkpt lat="45.29717492870986461639404296875" lon="-70.87426998652517795562744140625">
        <ele>976.4000244140625</ele>
        <time>2026-08-21T15:08:27.000Z</time>
        <extensions>
          <ns3:TrackPointExtension>
            <ns3:hr>127</ns3:hr>
            <ns3:cad>68</ns3:cad>
          </ns3:TrackPointExtension>
        </extensions>
      </trkpt>
      <trkpt lat="45.297168307006359100341796875" lon="-70.87429127655923366546630859375">
        <ele>976.20001220703125</ele>
        <time>2026-08-21T15:08:28.000Z</time>
        <extensions>
          <ns3:TrackPointExtension>
            <ns3:hr>126</ns3:hr>
            <ns3:cad>68</ns3:cad>
          </ns3:TrackPointExtension>
        </extensions>
      </trkpt>
      <trkpt lat="45.29716839082539081573486328125" lon="-70.8743156678974628448486328125">
        <ele>975.79998779296875</ele>
        <time>2026-08-21T15:08:29.000Z</time>
        <extensions>
          <ns3:TrackPointExtension>
            <ns3:hr>126</ns3:hr>
            <ns3:cad>77</ns3:cad>
          </ns3:TrackPointExtension>
        </extensions>
      </trkpt>
      <trkpt lat="45.2971684746444225311279296875" lon="-70.8743364550173282623291015625">
        <ele>975.4000244140625</ele>
        <time>2026-08-21T15:08:30.000Z</time>
        <extensions>
          <ns3:TrackPointExtension>
            <ns3:hr>126</ns3:hr>
            <ns3:cad>77</ns3:cad>
          </ns3:TrackPointExtension>
        </extensions>
      </trkpt>
      <trkpt lat="45.297170989215373992919921875" lon="-70.87436176836490631103515625">
        <ele>975</ele>
        <time>2026-08-21T15:08:31.000Z</time>
        <extensions>
          <ns3:TrackPointExtension>
            <ns3:hr>126</ns3:hr>
            <ns3:cad>77</ns3:cad>
          </ns3:TrackPointExtension>
        </extensions>
      </trkpt>
      <trkpt lat="45.297175683081150054931640625" lon="-70.8743865787982940673828125">
        <ele>974.5999755859375</ele>
        <time>2026-08-21T15:08:32.000Z</time>
        <extensions>
          <ns3:TrackPointExtension>
            <ns3:hr>126</ns3:hr>
            <ns3:cad>77</ns3:cad>
          </ns3:TrackPointExtension>
        </extensions>
      </trkpt>
      <trkpt lat="45.29718431644141674041748046875" lon="-70.874415077269077301025390625">
        <ele>974.20001220703125</ele>
        <time>2026-08-21T15:08:33.000Z</time>
        <extensions>
          <ns3:TrackPointExtension>
            <ns3:hr>126</ns3:hr>
            <ns3:cad>77</ns3:cad>
          </ns3:TrackPointExtension>
        </extensions>
      </trkpt>
      <trkpt lat="45.29719554819166660308837890625" lon="-70.87443955242633819580078125">
        <ele>974</ele>
        <time>2026-08-21T15:08:34.000Z</time>
        <extensions>
          <ns3:TrackPointExtension>
            <ns3:hr>127</ns3:hr>
            <ns3:cad>77</ns3:cad>
          </ns3:TrackPointExtension>
        </extensions>
      </trkpt>
      <trkpt lat="45.2972140721976757049560546875" lon="-70.87446914054453372955322265625">
        <ele>973.5999755859375</ele>
        <time>2026-08-21T15:08:35.000Z</time>
        <extensions>
          <ns3:TrackPointExtension>
            <ns3:hr>127</ns3:hr>
            <ns3:cad>77</ns3:cad>
          </ns3:TrackPointExtension>
        </extensions>
      </trkpt>
      <trkpt lat="45.29723024927079677581787109375" lon="-70.8744938671588897705078125">
        <ele>973.20001220703125</ele>
        <time>2026-08-21T15:08:36.000Z</time>
        <extensions>
          <ns3:TrackPointExtension>
            <ns3:hr>127</ns3:hr>
            <ns3:cad>77</ns3:cad>
          </ns3:TrackPointExtension>
        </extensions>
      </trkpt>
      <trkpt lat="45.29723661951720714569091796875" lon="-70.874510295689105987548828125">
        <ele>972.79998779296875</ele>
        <time>2026-08-21T15:08:37.000Z</time>
        <extensions>
          <ns3:TrackPointExtension>
            <ns3:hr>127</ns3:hr>
            <ns3:cad>77</ns3:cad>
          </ns3:TrackPointExtension>
        </extensions>
      </trkpt>
      <trkpt lat="45.297240726649761199951171875" lon="-70.87453217245638370513916015625">
        <ele>972.4000244140625</ele>
        <time>2026-08-21T15:08:38.000Z</time>
        <extensions>
          <ns3:TrackPointExtension>
            <ns3:hr>126</ns3:hr>
            <ns3:cad>0</ns3:cad>
          </ns3:TrackPointExtension>
        </extensions>
      </trkpt>
      <trkpt lat="45.2972429059445858001708984375" lon="-70.87455346249043941497802734375">
        <ele>972.20001220703125</ele>
        <time>2026-08-21T15:08:39.000Z</time>
        <extensions>
          <ns3:TrackPointExtension>
            <ns3:hr>127</ns3:hr>
            <ns3:cad>0</ns3:cad>
          </ns3:TrackPointExtension>
        </extensions>
      </trkpt>
      <trkpt lat="45.297245085239410400390625" lon="-70.8745691366493701934814453125">
        <ele>971.79998779296875</ele>
        <time>2026-08-21T15:08:40.000Z</time>
        <extensions>
          <ns3:TrackPointExtension>
            <ns3:hr>128</ns3:hr>
            <ns3:cad>0</ns3:cad>
          </ns3:TrackPointExtension>
        </extensions>
      </trkpt>
      <trkpt lat="45.2972395531833171844482421875" lon="-70.8745838887989521026611328125">
        <ele>971.4000244140625</ele>
        <time>2026-08-21T15:08:41.000Z</time>
        <extensions>
          <ns3:TrackPointExtension>
            <ns3:hr>128</ns3:hr>
            <ns3:cad>0</ns3:cad>
          </ns3:TrackPointExtension>
        </extensions>
      </trkpt>
      <trkpt lat="45.297220610082149505615234375" lon="-70.87459235452115535736083984375">
        <ele>971</ele>
        <time>2026-08-21T15:08:42.000Z</time>
        <extensions>
          <ns3:TrackPointExtension>
            <ns3:hr>128</ns3:hr>
            <ns3:cad>0</ns3:cad>
          </ns3:TrackPointExtension>
        </extensions>
      </trkpt>
      <trkpt lat="45.29720208607614040374755859375" lon="-70.87460811249911785125732421875">
        <ele>970.79998779296875</ele>
        <time>2026-08-21T15:08:43.000Z</time>
        <extensions>
          <ns3:TrackPointExtension>
            <ns3:hr>128</ns3:hr>
            <ns3:cad>79</ns3:cad>
          </ns3:TrackPointExtension>
        </extensions>
      </trkpt>
      <trkpt lat="45.29719186015427112579345703125" lon="-70.87462060153484344482421875">
        <ele>970.4000244140625</ele>
        <time>2026-08-21T15:08:44.000Z</time>
        <extensions>
          <ns3:TrackPointExtension>
            <ns3:hr>128</ns3:hr>
            <ns3:cad>79</ns3:cad>
          </ns3:TrackPointExtension>
        </extensions>
      </trkpt>
      <trkpt lat="45.29717710800468921661376953125" lon="-70.874633006751537322998046875">
        <ele>970.20001220703125</ele>
        <time>2026-08-21T15:08:45.000Z</time>
        <extensions>
          <ns3:TrackPointExtension>
            <ns3:hr>128</ns3:hr>
            <ns3:cad>79</ns3:cad>
          </ns3:TrackPointExtension>
        </extensions>
      </trkpt>
      <trkpt lat="45.297163613140583038330078125" lon="-70.87464046664535999298095703125">
        <ele>970</ele>
        <time>2026-08-21T15:08:46.000Z</time>
        <extensions>
          <ns3:TrackPointExtension>
            <ns3:hr>128</ns3:hr>
            <ns3:cad>79</ns3:cad>
          </ns3:TrackPointExtension>
        </extensions>
      </trkpt>
      <trkpt lat="45.2971525490283966064453125" lon="-70.87465840391814708709716796875">
        <ele>969.79998779296875</ele>
        <time>2026-08-21T15:08:47.000Z</time>
        <extensions>
          <ns3:TrackPointExtension>
            <ns3:hr>129</ns3:hr>
            <ns3:cad>79</ns3:cad>
          </ns3:TrackPointExtension>
        </extensions>
      </trkpt>
      <trkpt lat="45.2971409820020198822021484375" lon="-70.87467650882899761199951171875">
        <ele>969.5999755859375</ele>
        <time>2026-08-21T15:08:48.000Z</time>
        <extensions>
          <ns3:TrackPointExtension>
            <ns3:hr>129</ns3:hr>
            <ns3:cad>79</ns3:cad>
          </ns3:TrackPointExtension>
        </extensions>
      </trkpt>
      <trkpt lat="45.29712597839534282684326171875" lon="-70.874690674245357513427734375">
        <ele>969.4000244140625</ele>
        <time>2026-08-21T15:08:49.000Z</time>
        <extensions>
          <ns3:TrackPointExtension>
            <ns3:hr>129</ns3:hr>
            <ns3:cad>79</ns3:cad>
          </ns3:TrackPointExtension>
        </extensions>
      </trkpt>
      <trkpt lat="45.2971094660460948944091796875" lon="-70.87470106780529022216796875">
        <ele>969.20001220703125</ele>
        <time>2026-08-21T15:08:50.000Z</time>
        <extensions>
          <ns3:TrackPointExtension>
            <ns3:hr>128</ns3:hr>
            <ns3:cad>79</ns3:cad>
          </ns3:TrackPointExtension>
        </extensions>
      </trkpt>
      <trkpt lat="45.29709865339100360870361328125" lon="-70.87471422739326953887939453125">
        <ele>969</ele>
        <time>2026-08-21T15:08:51.000Z</time>
        <extensions>
          <ns3:TrackPointExtension>
            <ns3:hr>128</ns3:hr>
            <ns3:cad>79</ns3:cad>
          </ns3:TrackPointExtension>
        </extensions>
      </trkpt>
      <trkpt lat="45.297089517116546630859375" lon="-70.87472788989543914794921875">
        <ele>968.5999755859375</ele>
        <time>2026-08-21T15:08:52.000Z</time>
        <extensions>
          <ns3:TrackPointExtension>
            <ns3:hr>129</ns3:hr>
            <ns3:cad>79</ns3:cad>
          </ns3:TrackPointExtension>
        </extensions>
      </trkpt>
      <trkpt lat="45.29708121903240680694580078125" lon="-70.87473392486572265625">
        <ele>968.4000244140625</ele>
        <time>2026-08-21T15:08:53.000Z</time>
        <extensions>
          <ns3:TrackPointExtension>
            <ns3:hr>129</ns3:hr>
            <ns3:cad>79</ns3:cad>
          </ns3:TrackPointExtension>
        </extensions>
      </trkpt>
      <trkpt lat="45.29707409441471099853515625" lon="-70.8747300691902637481689453125">
        <ele>968</ele>
        <time>2026-08-21T15:08:54.000Z</time>
        <extensions>
          <ns3:TrackPointExtension>
            <ns3:hr>129</ns3:hr>
            <ns3:cad>79</ns3:cad>
          </ns3:TrackPointExtension>
        </extensions>
      </trkpt>
      <trkpt lat="45.2970578335225582122802734375" lon="-70.87473082356154918670654296875">
        <ele>967.79998779296875</ele>
        <time>2026-08-21T15:08:55.000Z</time>
        <extensions>
          <ns3:TrackPointExtension>
            <ns3:hr>129</ns3:hr>
            <ns3:cad>0</ns3:cad>
          </ns3:TrackPointExtension>
        </extensions>
      </trkpt>
      <trkpt lat="45.2970452606678009033203125" lon="-70.87473300285637378692626953125">
        <ele>967.5999755859375</ele>
        <time>2026-08-21T15:08:56.000Z</time>
        <extensions>
          <ns3:TrackPointExtension>
            <ns3:hr>129</ns3:hr>
            <ns3:cad>0</ns3:cad>
          </ns3:TrackPointExtension>
        </extensions>
      </trkpt>
      <trkpt lat="45.29703444801270961761474609375" lon="-70.8747424744069576263427734375">
        <ele>967.4000244140625</ele>
        <time>2026-08-21T15:08:57.000Z</time>
        <extensions>
          <ns3:TrackPointExtension>
            <ns3:hr>128</ns3:hr>
            <ns3:cad>66</ns3:cad>
          </ns3:TrackPointExtension>
        </extensions>
      </trkpt>
      <trkpt lat="45.297019444406032562255859375" lon="-70.87475060485303401947021484375">
        <ele>967.4000244140625</ele>
        <time>2026-08-21T15:08:58.000Z</time>
        <extensions>
          <ns3:TrackPointExtension>
            <ns3:hr>128</ns3:hr>
            <ns3:cad>66</ns3:cad>
          </ns3:TrackPointExtension>
        </extensions>
      </trkpt>
      <trkpt lat="45.29700477607548236846923828125" lon="-70.87475948967039585113525390625">
        <ele>967</ele>
        <time>2026-08-21T15:08:59.000Z</time>
        <extensions>
          <ns3:TrackPointExtension>
            <ns3:hr>128</ns3:hr>
            <ns3:cad>66</ns3:cad>
          </ns3:TrackPointExtension>
        </extensions>
      </trkpt>
      <trkpt lat="45.2969894371926784515380859375" lon="-70.874771811068058013916015625">
        <ele>966.79998779296875</ele>
        <time>2026-08-21T15:09:00.000Z</time>
        <extensions>
          <ns3:TrackPointExtension>
            <ns3:hr>128</ns3:hr>
            <ns3:cad>66</ns3:cad>
          </ns3:TrackPointExtension>
        </extensions>
      </trkpt>
      <trkpt lat="45.2969746850430965423583984375" lon="-70.87478689849376678466796875">
        <ele>966.5999755859375</ele>
        <time>2026-08-21T15:09:01.000Z</time>
        <extensions>
          <ns3:TrackPointExtension>
            <ns3:hr>128</ns3:hr>
            <ns3:cad>66</ns3:cad>
          </ns3:TrackPointExtension>
        </extensions>
      </trkpt>
      <trkpt lat="45.29696010053157806396484375" lon="-70.87480307556688785552978515625">
        <ele>966.4000244140625</ele>
        <time>2026-08-21T15:09:02.000Z</time>
        <extensions>
          <ns3:TrackPointExtension>
            <ns3:hr>129</ns3:hr>
            <ns3:cad>73</ns3:cad>
          </ns3:TrackPointExtension>
        </extensions>
      </trkpt>
      <trkpt lat="45.29694543220102787017822265625" lon="-70.87481908500194549560546875">
        <ele>966.4000244140625</ele>
        <time>2026-08-21T15:09:03.000Z</time>
        <extensions>
          <ns3:TrackPointExtension>
            <ns3:hr>129</ns3:hr>
            <ns3:cad>73</ns3:cad>
          </ns3:TrackPointExtension>
        </extensions>
      </trkpt>
      <trkpt lat="45.29693386517465114593505859375" lon="-70.8748407103121280670166015625">
        <ele>966.20001220703125</ele>
        <time>2026-08-21T15:09:04.000Z</time>
        <extensions>
          <ns3:TrackPointExtension>
            <ns3:hr>129</ns3:hr>
            <ns3:cad>76</ns3:cad>
          </ns3:TrackPointExtension>
        </extensions>
      </trkpt>
      <trkpt lat="45.2969176881015300750732421875" lon="-70.87486241944134235382080078125">
        <ele>965.79998779296875</ele>
        <time>2026-08-21T15:09:05.000Z</time>
        <extensions>
          <ns3:TrackPointExtension>
            <ns3:hr>129</ns3:hr>
            <ns3:cad>76</ns3:cad>
          </ns3:TrackPointExtension>
        </extensions>
      </trkpt>
      <trkpt lat="45.296909473836421966552734375" lon="-70.8748765848577022552490234375">
        <ele>965.5999755859375</ele>
        <time>2026-08-21T15:09:06.000Z</time>
        <extensions>
          <ns3:TrackPointExtension>
            <ns3:hr>130</ns3:hr>
            <ns3:cad>76</ns3:cad>
          </ns3:TrackPointExtension>
        </extensions>
      </trkpt>
      <trkpt lat="45.29689279384911060333251953125" lon="-70.8749077655375003814697265625">
        <ele>965.20001220703125</ele>
        <time>2026-08-21T15:09:07.000Z</time>
        <extensions>
          <ns3:TrackPointExtension>
            <ns3:hr>129</ns3:hr>
            <ns3:cad>76</ns3:cad>
          </ns3:TrackPointExtension>
        </extensions>
      </trkpt>
      <trkpt lat="45.2968814782798290252685546875" lon="-70.87492763064801692962646484375">
        <ele>965</ele>
        <time>2026-08-21T15:09:08.000Z</time>
        <extensions>
          <ns3:TrackPointExtension>
            <ns3:hr>129</ns3:hr>
            <ns3:cad>76</ns3:cad>
          </ns3:TrackPointExtension>
        </extensions>
      </trkpt>
      <trkpt lat="45.29686999507248401641845703125" lon="-70.874948166310787200927734375">
        <ele>964.5999755859375</ele>
        <time>2026-08-21T15:09:09.000Z</time>
        <extensions>
          <ns3:TrackPointExtension>
            <ns3:hr>128</ns3:hr>
            <ns3:cad>76</ns3:cad>
          </ns3:TrackPointExtension>
        </extensions>
      </trkpt>
      <trkpt lat="45.29685817658901214599609375" lon="-70.87496752850711345672607421875">
        <ele>964.4000244140625</ele>
        <time>2026-08-21T15:09:10.000Z</time>
        <extensions>
          <ns3:TrackPointExtension>
            <ns3:hr>128</ns3:hr>
            <ns3:cad>76</ns3:cad>
          </ns3:TrackPointExtension>
        </extensions>
      </trkpt>
      <trkpt lat="45.2968489564955234527587890625" lon="-70.87499334476888179779052734375">
        <ele>964</ele>
        <time>2026-08-21T15:09:11.000Z</time>
        <extensions>
          <ns3:TrackPointExtension>
            <ns3:hr>128</ns3:hr>
            <ns3:cad>76</ns3:cad>
          </ns3:TrackPointExtension>
        </extensions>
      </trkpt>
      <trkpt lat="45.29683998785912990570068359375" lon="-70.87501756846904754638671875">
        <ele>963.5999755859375</ele>
        <time>2026-08-21T15:09:12.000Z</time>
        <extensions>
          <ns3:TrackPointExtension>
            <ns3:hr>128</ns3:hr>
            <ns3:cad>78</ns3:cad>
          </ns3:TrackPointExtension>
        </extensions>
      </trkpt>
      <trkpt lat="45.2968254871666431427001953125" lon="-70.87503793649375438690185546875">
        <ele>963.4000244140625</ele>
        <time>2026-08-21T15:09:13.000Z</time>
        <extensions>
          <ns3:TrackPointExtension>
            <ns3:hr>127</ns3:hr>
            <ns3:cad>78</ns3:cad>
          </ns3:TrackPointExtension>
        </extensions>
      </trkpt>
      <trkpt lat="45.29680947773158550262451171875" lon="-70.875054784119129180908203125">
        <ele>963</ele>
        <time>2026-08-21T15:09:14.000Z</time>
        <extensions>
          <ns3:TrackPointExtension>
            <ns3:hr>128</ns3:hr>
            <ns3:cad>0</ns3:cad>
          </ns3:TrackPointExtension>
        </extensions>
      </trkpt>
      <trkpt lat="45.29679925180971622467041015625" lon="-70.87507657706737518310546875">
        <ele>962.5999755859375</ele>
        <time>2026-08-21T15:09:15.000Z</time>
        <extensions>
          <ns3:TrackPointExtension>
            <ns3:hr>128</ns3:hr>
            <ns3:cad>0</ns3:cad>
          </ns3:TrackPointExtension>
        </extensions>
      </trkpt>
      <trkpt lat="45.296789444983005523681640625" lon="-70.8750988729298114776611328125">
        <ele>962.4000244140625</ele>
        <time>2026-08-21T15:09:16.000Z</time>
        <extensions>
          <ns3:TrackPointExtension>
            <ns3:hr>128</ns3:hr>
            <ns3:cad>0</ns3:cad>
          </ns3:TrackPointExtension>
        </extensions>
      </trkpt>
      <trkpt lat="45.2967681549489498138427734375" lon="-70.87512996979057788848876953125">
        <ele>962</ele>
        <time>2026-08-21T15:09:17.000Z</time>
        <extensions>
          <ns3:TrackPointExtension>
            <ns3:hr>128</ns3:hr>
            <ns3:cad>0</ns3:cad>
          </ns3:TrackPointExtension>
        </extensions>
      </trkpt>
      <trkpt lat="45.29675449244678020477294921875" lon="-70.8751521818339824676513671875">
        <ele>961.5999755859375</ele>
        <time>2026-08-21T15:09:18.000Z</time>
        <extensions>
          <ns3:TrackPointExtension>
            <ns3:hr>129</ns3:hr>
            <ns3:cad>0</ns3:cad>
          </ns3:TrackPointExtension>
        </extensions>
      </trkpt>
      <trkpt lat="45.29674745164811611175537109375" lon="-70.875168778002262115478515625">
        <ele>961.20001220703125</ele>
        <time>2026-08-21T15:09:19.000Z</time>
        <extensions>
          <ns3:TrackPointExtension>
            <ns3:hr>129</ns3:hr>
            <ns3:cad>0</ns3:cad>
          </ns3:TrackPointExtension>
        </extensions>
      </trkpt>
      <trkpt lat="45.29673152603209018707275390625" lon="-70.87518922984600067138671875">
        <ele>960.79998779296875</ele>
        <time>2026-08-21T15:09:20.000Z</time>
        <extensions>
          <ns3:TrackPointExtension>
            <ns3:hr>129</ns3:hr>
            <ns3:cad>0</ns3:cad>
          </ns3:TrackPointExtension>
        </extensions>
      </trkpt>
      <trkpt lat="45.29671811498701572418212890625" lon="-70.87520792149007320404052734375">
        <ele>960.5999755859375</ele>
        <time>2026-08-21T15:09:21.000Z</time>
        <extensions>
          <ns3:TrackPointExtension>
            <ns3:hr>129</ns3:hr>
            <ns3:cad>0</ns3:cad>
          </ns3:TrackPointExtension>
        </extensions>
      </trkpt>
      <trkpt lat="45.29670889489352703094482421875" lon="-70.87521563284099102020263671875">
        <ele>960.4000244140625</ele>
        <time>2026-08-21T15:09:22.000Z</time>
        <extensions>
          <ns3:TrackPointExtension>
            <ns3:hr>130</ns3:hr>
            <ns3:cad>0</ns3:cad>
          </ns3:TrackPointExtension>
        </extensions>
      </trkpt>
      <trkpt lat="45.29668919742107391357421875" lon="-70.8752341568470001220703125">
        <ele>960.20001220703125</ele>
        <time>2026-08-21T15:09:23.000Z</time>
        <extensions>
          <ns3:TrackPointExtension>
            <ns3:hr>130</ns3:hr>
            <ns3:cad>0</ns3:cad>
          </ns3:TrackPointExtension>
        </extensions>
      </trkpt>
      <trkpt lat="45.296672098338603973388671875" lon="-70.8752494119107723236083984375">
        <ele>959.79998779296875</ele>
        <time>2026-08-21T15:09:24.000Z</time>
        <extensions>
          <ns3:TrackPointExtension>
            <ns3:hr>131</ns3:hr>
            <ns3:cad>0</ns3:cad>
          </ns3:TrackPointExtension>
        </extensions>
      </trkpt>
      <trkpt lat="45.2966568432748317718505859375" lon="-70.87527028284966945648193359375">
        <ele>959.5999755859375</ele>
        <time>2026-08-21T15:09:25.000Z</time>
        <extensions>
          <ns3:TrackPointExtension>
            <ns3:hr>131</ns3:hr>
            <ns3:cad>0</ns3:cad>
          </ns3:TrackPointExtension>
        </extensions>
      </trkpt>
      <trkpt lat="45.2966397441923618316650390625" lon="-70.87529123760759830474853515625">
        <ele>959.20001220703125</ele>
        <time>2026-08-21T15:09:26.000Z</time>
        <extensions>
          <ns3:TrackPointExtension>
            <ns3:hr>132</ns3:hr>
            <ns3:cad>0</ns3:cad>
          </ns3:TrackPointExtension>
        </extensions>
      </trkpt>
      <trkpt lat="45.29662574641406536102294921875" lon="-70.8753127790987491607666015625">
        <ele>958.79998779296875</ele>
        <time>2026-08-21T15:09:27.000Z</time>
        <extensions>
          <ns3:TrackPointExtension>
            <ns3:hr>132</ns3:hr>
            <ns3:cad>0</ns3:cad>
          </ns3:TrackPointExtension>
        </extensions>
      </trkpt>
      <trkpt lat="45.29661049135029315948486328125" lon="-70.875335745513439178466796875">
        <ele>958.4000244140625</ele>
        <time>2026-08-21T15:09:28.000Z</time>
        <extensions>
          <ns3:TrackPointExtension>
            <ns3:hr>132</ns3:hr>
            <ns3:cad>0</ns3:cad>
          </ns3:TrackPointExtension>
        </extensions>
      </trkpt>
      <trkpt lat="45.29659590683877468109130859375" lon="-70.87535711936652660369873046875">
        <ele>958</ele>
        <time>2026-08-21T15:09:29.000Z</time>
        <extensions>
          <ns3:TrackPointExtension>
            <ns3:hr>133</ns3:hr>
            <ns3:cad>77</ns3:cad>
          </ns3:TrackPointExtension>
        </extensions>
      </trkpt>
      <trkpt lat="45.2965837530791759490966796875" lon="-70.87537656538188457489013671875">
        <ele>957.79998779296875</ele>
        <time>2026-08-21T15:09:30.000Z</time>
        <extensions>
          <ns3:TrackPointExtension>
            <ns3:hr>133</ns3:hr>
            <ns3:cad>77</ns3:cad>
          </ns3:TrackPointExtension>
        </extensions>
      </trkpt>
      <trkpt lat="45.2965686656534671783447265625" lon="-70.87540053762495517730712890625">
        <ele>957.5999755859375</ele>
        <time>2026-08-21T15:09:31.000Z</time>
        <extensions>
          <ns3:TrackPointExtension>
            <ns3:hr>133</ns3:hr>
            <ns3:cad>77</ns3:cad>
          </ns3:TrackPointExtension>
        </extensions>
      </trkpt>
      <trkpt lat="45.29655533842742443084716796875" lon="-70.875412523746490478515625">
        <ele>957.4000244140625</ele>
        <time>2026-08-21T15:09:32.000Z</time>
        <extensions>
          <ns3:TrackPointExtension>
            <ns3:hr>134</ns3:hr>
            <ns3:cad>77</ns3:cad>
          </ns3:TrackPointExtension>
        </extensions>
      </trkpt>
      <trkpt lat="45.29654008336365222930908203125" lon="-70.8754307962954044342041015625">
        <ele>957.20001220703125</ele>
        <time>2026-08-21T15:09:33.000Z</time>
        <extensions>
          <ns3:TrackPointExtension>
            <ns3:hr>134</ns3:hr>
            <ns3:cad>77</ns3:cad>
          </ns3:TrackPointExtension>
        </extensions>
      </trkpt>
      <trkpt lat="45.2965264208614826202392578125" lon="-70.87544538080692291259765625">
        <ele>957</ele>
        <time>2026-08-21T15:09:34.000Z</time>
        <extensions>
          <ns3:TrackPointExtension>
            <ns3:hr>134</ns3:hr>
            <ns3:cad>77</ns3:cad>
          </ns3:TrackPointExtension>
        </extensions>
      </trkpt>
      <trkpt lat="45.29650957323610782623291015625" lon="-70.87546273134648799896240234375">
        <ele>956.5999755859375</ele>
        <time>2026-08-21T15:09:35.000Z</time>
        <extensions>
          <ns3:TrackPointExtension>
            <ns3:hr>134</ns3:hr>
            <ns3:cad>77</ns3:cad>
          </ns3:TrackPointExtension>
        </extensions>
      </trkpt>
      <trkpt lat="45.2964925579726696014404296875" lon="-70.8754820935428142547607421875">
        <ele>956.4000244140625</ele>
        <time>2026-08-21T15:09:36.000Z</time>
        <extensions>
          <ns3:TrackPointExtension>
            <ns3:hr>135</ns3:hr>
            <ns3:cad>77</ns3:cad>
          </ns3:TrackPointExtension>
        </extensions>
      </trkpt>
      <trkpt lat="45.296472944319248199462890625" lon="-70.875498354434967041015625">
        <ele>956</ele>
        <time>2026-08-21T15:09:37.000Z</time>
        <extensions>
          <ns3:TrackPointExtension>
            <ns3:hr>134</ns3:hr>
            <ns3:cad>77</ns3:cad>
          </ns3:TrackPointExtension>
        </extensions>
      </trkpt>
      <trkpt lat="45.2964556775987148284912109375" lon="-70.8755159564316272735595703125">
        <ele>956</ele>
        <time>2026-08-21T15:09:38.000Z</time>
        <extensions>
          <ns3:TrackPointExtension>
            <ns3:hr>134</ns3:hr>
            <ns3:cad>77</ns3:cad>
          </ns3:TrackPointExtension>
        </extensions>
      </trkpt>
      <trkpt lat="45.29643841087818145751953125" lon="-70.875541605055332183837890625">
        <ele>955.79998779296875</ele>
        <time>2026-08-21T15:09:39.000Z</time>
        <extensions>
          <ns3:TrackPointExtension>
            <ns3:hr>134</ns3:hr>
            <ns3:cad>77</ns3:cad>
          </ns3:TrackPointExtension>
        </extensions>
      </trkpt>
      <trkpt lat="45.2964221499860286712646484375" lon="-70.8755659125745296478271484375">
        <ele>955.79998779296875</ele>
        <time>2026-08-21T15:09:40.000Z</time>
        <extensions>
          <ns3:TrackPointExtension>
            <ns3:hr>134</ns3:hr>
            <ns3:cad>77</ns3:cad>
          </ns3:TrackPointExtension>
        </extensions>
      </trkpt>
      <trkpt lat="45.29641024768352508544921875" lon="-70.87558058090507984161376953125">
        <ele>955.5999755859375</ele>
        <time>2026-08-21T15:09:41.000Z</time>
        <extensions>
          <ns3:TrackPointExtension>
            <ns3:hr>134</ns3:hr>
            <ns3:cad>77</ns3:cad>
          </ns3:TrackPointExtension>
        </extensions>
      </trkpt>
      <trkpt lat="45.296394489705562591552734375" lon="-70.8756007812917232513427734375">
        <ele>955.4000244140625</ele>
        <time>2026-08-21T15:09:42.000Z</time>
        <extensions>
          <ns3:TrackPointExtension>
            <ns3:hr>134</ns3:hr>
            <ns3:cad>77</ns3:cad>
          </ns3:TrackPointExtension>
        </extensions>
      </trkpt>
      <trkpt lat="45.29638208448886871337890625" lon="-70.8756225742399692535400390625">
        <ele>955</ele>
        <time>2026-08-21T15:09:43.000Z</time>
        <extensions>
          <ns3:TrackPointExtension>
            <ns3:hr>134</ns3:hr>
            <ns3:cad>77</ns3:cad>
          </ns3:TrackPointExtension>
        </extensions>
      </trkpt>
      <trkpt lat="45.29637797735631465911865234375" lon="-70.875654257833957672119140625">
        <ele>954.79998779296875</ele>
        <time>2026-08-21T15:09:44.000Z</time>
        <extensions>
          <ns3:TrackPointExtension>
            <ns3:hr>135</ns3:hr>
            <ns3:cad>77</ns3:cad>
          </ns3:TrackPointExtension>
        </extensions>
      </trkpt>
      <trkpt lat="45.29637931846082210540771484375" lon="-70.8756792359054088592529296875">
        <ele>954.4000244140625</ele>
        <time>2026-08-21T15:09:45.000Z</time>
        <extensions>
          <ns3:TrackPointExtension>
            <ns3:hr>135</ns3:hr>
            <ns3:cad>71</ns3:cad>
          </ns3:TrackPointExtension>
        </extensions>
      </trkpt>
      <trkpt lat="45.29638099484145641326904296875" lon="-70.87569960393011569976806640625">
        <ele>954.20001220703125</ele>
        <time>2026-08-21T15:09:46.000Z</time>
        <extensions>
          <ns3:TrackPointExtension>
            <ns3:hr>135</ns3:hr>
            <ns3:cad>71</ns3:cad>
          </ns3:TrackPointExtension>
        </extensions>
      </trkpt>
      <trkpt lat="45.2963809110224246978759765625" lon="-70.87572257034480571746826171875">
        <ele>954.20001220703125</ele>
        <time>2026-08-21T15:09:47.000Z</time>
        <extensions>
          <ns3:TrackPointExtension>
            <ns3:hr>134</ns3:hr>
            <ns3:cad>71</ns3:cad>
          </ns3:TrackPointExtension>
        </extensions>
      </trkpt>
      <trkpt lat="45.29638250358402729034423828125" lon="-70.8757533319294452667236328125">
        <ele>954</ele>
        <time>2026-08-21T15:09:48.000Z</time>
        <extensions>
          <ns3:TrackPointExtension>
            <ns3:hr>134</ns3:hr>
            <ns3:cad>71</ns3:cad>
          </ns3:TrackPointExtension>
        </extensions>
      </trkpt>
      <trkpt lat="45.29638099484145641326904296875" lon="-70.87577504105865955352783203125">
        <ele>953.5999755859375</ele>
        <time>2026-08-21T15:09:49.000Z</time>
        <extensions>
          <ns3:TrackPointExtension>
            <ns3:hr>134</ns3:hr>
            <ns3:cad>71</ns3:cad>
          </ns3:TrackPointExtension>
        </extensions>
      </trkpt>
      <trkpt lat="45.2963745407760143280029296875" lon="-70.87578870356082916259765625">
        <ele>953.4000244140625</ele>
        <time>2026-08-21T15:09:50.000Z</time>
        <extensions>
          <ns3:TrackPointExtension>
            <ns3:hr>134</ns3:hr>
            <ns3:cad>0</ns3:cad>
          </ns3:TrackPointExtension>
        </extensions>
      </trkpt>
      <trkpt lat="45.2963614650070667266845703125" lon="-70.87579465471208095550537109375">
        <ele>953.20001220703125</ele>
        <time>2026-08-21T15:09:51.000Z</time>
        <extensions>
          <ns3:TrackPointExtension>
            <ns3:hr>135</ns3:hr>
            <ns3:cad>0</ns3:cad>
          </ns3:TrackPointExtension>
        </extensions>
      </trkpt>
      <trkpt lat="45.2963493950664997100830078125" lon="-70.8758032880723476409912109375">
        <ele>953</ele>
        <time>2026-08-21T15:09:52.000Z</time>
        <extensions>
          <ns3:TrackPointExtension>
            <ns3:hr>134</ns3:hr>
            <ns3:cad>0</ns3:cad>
          </ns3:TrackPointExtension>
        </extensions>
      </trkpt>
      <trkpt lat="45.296335481107234954833984375" lon="-70.875808484852313995361328125">
        <ele>952.79998779296875</ele>
        <time>2026-08-21T15:09:53.000Z</time>
        <extensions>
          <ns3:TrackPointExtension>
            <ns3:hr>134</ns3:hr>
            <ns3:cad>0</ns3:cad>
          </ns3:TrackPointExtension>
        </extensions>
      </trkpt>
      <trkpt lat="45.29632114805281162261962890625" lon="-70.87580722756683826446533203125">
        <ele>952.79998779296875</ele>
        <time>2026-08-21T15:09:54.000Z</time>
        <extensions>
          <ns3:TrackPointExtension>
            <ns3:hr>133</ns3:hr>
            <ns3:cad>0</ns3:cad>
          </ns3:TrackPointExtension>
        </extensions>
      </trkpt>
      <trkpt lat="45.2963049709796905517578125" lon="-70.8758146874606609344482421875">
        <ele>953</ele>
        <time>2026-08-21T15:09:55.000Z</time>
        <extensions>
          <ns3:TrackPointExtension>
            <ns3:hr>133</ns3:hr>
            <ns3:cad>0</ns3:cad>
          </ns3:TrackPointExtension>
        </extensions>
      </trkpt>
      <trkpt lat="45.2962873689830303192138671875" lon="-70.87583220563828945159912109375">
        <ele>953</ele>
        <time>2026-08-21T15:09:56.000Z</time>
        <extensions>
          <ns3:TrackPointExtension>
            <ns3:hr>132</ns3:hr>
            <ns3:cad>0</ns3:cad>
          </ns3:TrackPointExtension>
        </extensions>
      </trkpt>
      <trkpt lat="45.29628208838403224945068359375" lon="-70.87584880180656909942626953125">
        <ele>953</ele>
        <time>2026-08-21T15:09:57.000Z</time>
        <extensions>
          <ns3:TrackPointExtension>
            <ns3:hr>132</ns3:hr>
            <ns3:cad>0</ns3:cad>
          </ns3:TrackPointExtension>
        </extensions>
      </trkpt>
      <trkpt lat="45.29627203010022640228271484375" lon="-70.87586221285164356231689453125">
        <ele>953</ele>
        <time>2026-08-21T15:09:58.000Z</time>
        <extensions>
          <ns3:TrackPointExtension>
            <ns3:hr>132</ns3:hr>
            <ns3:cad>74</ns3:cad>
          </ns3:TrackPointExtension>
        </extensions>
      </trkpt>
      <trkpt lat="45.2962632291018962860107421875" lon="-70.8758740313351154327392578125">
        <ele>952.79998779296875</ele>
        <time>2026-08-21T15:09:59.000Z</time>
        <extensions>
          <ns3:TrackPointExtension>
            <ns3:hr>133</ns3:hr>
            <ns3:cad>74</ns3:cad>
          </ns3:TrackPointExtension>
        </extensions>
      </trkpt>
      <trkpt lat="45.29625627212226390838623046875" lon="-70.875897668302059173583984375">
        <ele>952.5999755859375</ele>
        <time>2026-08-21T15:10:00.000Z</time>
        <extensions>
          <ns3:TrackPointExtension>
            <ns3:hr>133</ns3:hr>
            <ns3:cad>75</ns3:cad>
          </ns3:TrackPointExtension>
        </extensions>
      </trkpt>
      <trkpt lat="45.29625409282743930816650390625" lon="-70.8759213052690029144287109375">
        <ele>952.4000244140625</ele>
        <time>2026-08-21T15:10:01.000Z</time>
        <extensions>
          <ns3:TrackPointExtension>
            <ns3:hr>133</ns3:hr>
            <ns3:cad>75</ns3:cad>
          </ns3:TrackPointExtension>
        </extensions>
      </trkpt>
      <trkpt lat="45.29623984359204769134521484375" lon="-70.8759464509785175323486328125">
        <ele>952.20001220703125</ele>
        <time>2026-08-21T15:10:02.000Z</time>
        <extensions>
          <ns3:TrackPointExtension>
            <ns3:hr>133</ns3:hr>
            <ns3:cad>75</ns3:cad>
          </ns3:TrackPointExtension>
        </extensions>
      </trkpt>
      <trkpt lat="45.29622777365148067474365234375" lon="-70.87597235105931758880615234375">
        <ele>951.79998779296875</ele>
        <time>2026-08-21T15:10:03.000Z</time>
        <extensions>
          <ns3:TrackPointExtension>
            <ns3:hr>132</ns3:hr>
            <ns3:cad>75</ns3:cad>
          </ns3:TrackPointExtension>
        </extensions>
      </trkpt>
      <trkpt lat="45.29621989466249942779541015625" lon="-70.87599012069404125213623046875">
        <ele>951.5999755859375</ele>
        <time>2026-08-21T15:10:04.000Z</time>
        <extensions>
          <ns3:TrackPointExtension>
            <ns3:hr>132</ns3:hr>
            <ns3:cad>75</ns3:cad>
          </ns3:TrackPointExtension>
        </extensions>
      </trkpt>
      <trkpt lat="45.29621134512126445770263671875" lon="-70.8760047890245914459228515625">
        <ele>951.4000244140625</ele>
        <time>2026-08-21T15:10:05.000Z</time>
        <extensions>
          <ns3:TrackPointExtension>
            <ns3:hr>132</ns3:hr>
            <ns3:cad>75</ns3:cad>
          </ns3:TrackPointExtension>
        </extensions>
      </trkpt>
      <trkpt lat="45.29620531015098094940185546875" lon="-70.8760255761444568634033203125">
        <ele>951</ele>
        <time>2026-08-21T15:10:06.000Z</time>
        <extensions>
          <ns3:TrackPointExtension>
            <ns3:hr>132</ns3:hr>
            <ns3:cad>75</ns3:cad>
          </ns3:TrackPointExtension>
        </extensions>
      </trkpt>
      <trkpt lat="45.29620028100907802581787109375" lon="-70.876040495932102203369140625">
        <ele>950.79998779296875</ele>
        <time>2026-08-21T15:10:07.000Z</time>
        <extensions>
          <ns3:TrackPointExtension>
            <ns3:hr>132</ns3:hr>
            <ns3:cad>75</ns3:cad>
          </ns3:TrackPointExtension>
        </extensions>
      </trkpt>
      <trkpt lat="45.2961955033242702484130859375" lon="-70.87605281732976436614990234375">
        <ele>950.4000244140625</ele>
        <time>2026-08-21T15:10:08.000Z</time>
        <extensions>
          <ns3:TrackPointExtension>
            <ns3:hr>132</ns3:hr>
            <ns3:cad>75</ns3:cad>
          </ns3:TrackPointExtension>
        </extensions>
      </trkpt>
      <trkpt lat="45.2961909770965576171875" lon="-70.8760684914886951446533203125">
        <ele>950.20001220703125</ele>
        <time>2026-08-21T15:10:09.000Z</time>
        <extensions>
          <ns3:TrackPointExtension>
            <ns3:hr>132</ns3:hr>
            <ns3:cad>75</ns3:cad>
          </ns3:TrackPointExtension>
        </extensions>
      </trkpt>
      <trkpt lat="45.29618200846016407012939453125" lon="-70.8760792203247547149658203125">
        <ele>950</ele>
        <time>2026-08-21T15:10:10.000Z</time>
        <extensions>
          <ns3:TrackPointExtension>
            <ns3:hr>132</ns3:hr>
            <ns3:cad>75</ns3:cad>
          </ns3:TrackPointExtension>
        </extensions>
      </trkpt>
      <trkpt lat="45.29617161490023136138916015625" lon="-70.87609522975981235504150390625">
        <ele>950</ele>
        <time>2026-08-21T15:10:11.000Z</time>
        <extensions>
          <ns3:TrackPointExtension>
            <ns3:hr>132</ns3:hr>
            <ns3:cad>75</ns3:cad>
          </ns3:TrackPointExtension>
        </extensions>
      </trkpt>
      <trkpt lat="45.2961695194244384765625" lon="-70.876113586127758026123046875">
        <ele>949.79998779296875</ele>
        <time>2026-08-21T15:10:12.000Z</time>
        <extensions>
          <ns3:TrackPointExtension>
            <ns3:hr>132</ns3:hr>
            <ns3:cad>75</ns3:cad>
          </ns3:TrackPointExtension>
        </extensions>
      </trkpt>
      <trkpt lat="45.29616289772093296051025390625" lon="-70.87613512761890888214111328125">
        <ele>949.5999755859375</ele>
        <time>2026-08-21T15:10:13.000Z</time>
        <extensions>
          <ns3:TrackPointExtension>
            <ns3:hr>132</ns3:hr>
            <ns3:cad>75</ns3:cad>
          </ns3:TrackPointExtension>
        </extensions>
      </trkpt>
      <trkpt lat="45.29615585692226886749267578125" lon="-70.8761442638933658599853515625">
        <ele>949.5999755859375</ele>
        <time>2026-08-21T15:10:14.000Z</time>
        <extensions>
          <ns3:TrackPointExtension>
            <ns3:hr>132</ns3:hr>
            <ns3:cad>75</ns3:cad>
          </ns3:TrackPointExtension>
        </extensions>
      </trkpt>
      <trkpt lat="45.29614613391458988189697265625" lon="-70.87615138851106166839599609375">
        <ele>949.4000244140625</ele>
        <time>2026-08-21T15:10:15.000Z</time>
        <extensions>
          <ns3:TrackPointExtension>
            <ns3:hr>132</ns3:hr>
            <ns3:cad>75</ns3:cad>
          </ns3:TrackPointExtension>
        </extensions>
      </trkpt>
      <trkpt lat="45.29613540507853031158447265625" lon="-70.876172594726085662841796875">
        <ele>949.20001220703125</ele>
        <time>2026-08-21T15:10:16.000Z</time>
        <extensions>
          <ns3:TrackPointExtension>
            <ns3:hr>131</ns3:hr>
            <ns3:cad>75</ns3:cad>
          </ns3:TrackPointExtension>
        </extensions>
      </trkpt>
      <trkpt lat="45.2961267717182636260986328125" lon="-70.8761912025511264801025390625">
        <ele>949</ele>
        <time>2026-08-21T15:10:17.000Z</time>
        <extensions>
          <ns3:TrackPointExtension>
            <ns3:hr>131</ns3:hr>
            <ns3:cad>75</ns3:cad>
          </ns3:TrackPointExtension>
        </extensions>
      </trkpt>
      <trkpt lat="45.29612048529088497161865234375" lon="-70.87620050646364688873291015625">
        <ele>949</ele>
        <time>2026-08-21T15:10:18.000Z</time>
        <extensions>
          <ns3:TrackPointExtension>
            <ns3:hr>131</ns3:hr>
            <ns3:cad>75</ns3:cad>
          </ns3:TrackPointExtension>
        </extensions>
      </trkpt>
      <trkpt lat="45.296116210520267486572265625" lon="-70.8762079663574695587158203125">
        <ele>949</ele>
        <time>2026-08-21T15:10:19.000Z</time>
        <extensions>
          <ns3:TrackPointExtension>
            <ns3:hr>130</ns3:hr>
            <ns3:cad>0</ns3:cad>
          </ns3:TrackPointExtension>
        </extensions>
      </trkpt>
      <trkpt lat="45.29611386358737945556640625" lon="-70.8762185275554656982421875">
        <ele>949</ele>
        <time>2026-08-21T15:10:20.000Z</time>
        <extensions>
          <ns3:TrackPointExtension>
            <ns3:hr>130</ns3:hr>
            <ns3:cad>0</ns3:cad>
          </ns3:TrackPointExtension>
        </extensions>
      </trkpt>
      <trkpt lat="45.29610623605549335479736328125" lon="-70.87623671628534793853759765625">
        <ele>948.79998779296875</ele>
        <time>2026-08-21T15:10:21.000Z</time>
        <extensions>
          <ns3:TrackPointExtension>
            <ns3:hr>131</ns3:hr>
            <ns3:cad>0</ns3:cad>
          </ns3:TrackPointExtension>
        </extensions>
      </trkpt>
      <trkpt lat="45.29610254801809787750244140625" lon="-70.87624945677816867828369140625">
        <ele>948.79998779296875</ele>
        <time>2026-08-21T15:10:22.000Z</time>
        <extensions>
          <ns3:TrackPointExtension>
            <ns3:hr>131</ns3:hr>
            <ns3:cad>0</ns3:cad>
          </ns3:TrackPointExtension>
        </extensions>
      </trkpt>
      <trkpt lat="45.296098776161670684814453125" lon="-70.87625817395746707916259765625">
        <ele>948.5999755859375</ele>
        <time>2026-08-21T15:10:23.000Z</time>
        <extensions>
          <ns3:TrackPointExtension>
            <ns3:hr>131</ns3:hr>
            <ns3:cad>0</ns3:cad>
          </ns3:TrackPointExtension>
        </extensions>
      </trkpt>
      <trkpt lat="45.29609215445816516876220703125" lon="-70.87626555003225803375244140625">
        <ele>948.4000244140625</ele>
        <time>2026-08-21T15:10:24.000Z</time>
        <extensions>
          <ns3:TrackPointExtension>
            <ns3:hr>131</ns3:hr>
            <ns3:cad>0</ns3:cad>
          </ns3:TrackPointExtension>
        </extensions>
      </trkpt>
      <trkpt lat="45.2960801683366298675537109375" lon="-70.87627560831606388092041015625">
        <ele>948.20001220703125</ele>
        <time>2026-08-21T15:10:25.000Z</time>
        <extensions>
          <ns3:TrackPointExtension>
            <ns3:hr>130</ns3:hr>
            <ns3:cad>0</ns3:cad>
          </ns3:TrackPointExtension>
        </extensions>
      </trkpt>
      <trkpt lat="45.2960660867393016815185546875" lon="-70.876277871429920196533203125">
        <ele>948.20001220703125</ele>
        <time>2026-08-21T15:10:26.000Z</time>
        <extensions>
          <ns3:TrackPointExtension>
            <ns3:hr>130</ns3:hr>
            <ns3:cad>0</ns3:cad>
          </ns3:TrackPointExtension>
        </extensions>
      </trkpt>
      <trkpt lat="45.2960543520748615264892578125" lon="-70.8762857504189014434814453125">
        <ele>948</ele>
        <time>2026-08-21T15:10:27.000Z</time>
        <extensions>
          <ns3:TrackPointExtension>
            <ns3:hr>130</ns3:hr>
            <ns3:cad>0</ns3:cad>
          </ns3:TrackPointExtension>
        </extensions>
      </trkpt>
      <trkpt lat="45.29604546725749969482421875" lon="-70.87629429996013641357421875">
        <ele>948</ele>
        <time>2026-08-21T15:10:28.000Z</time>
        <extensions>
          <ns3:TrackPointExtension>
            <ns3:hr>130</ns3:hr>
            <ns3:cad>0</ns3:cad>
          </ns3:TrackPointExtension>
        </extensions>
      </trkpt>
      <trkpt lat="45.296045802533626556396484375" lon="-70.87629891000688076019287109375">
        <ele>948</ele>
        <time>2026-08-21T15:10:29.000Z</time>
        <extensions>
          <ns3:TrackPointExtension>
            <ns3:hr>129</ns3:hr>
            <ns3:cad>56</ns3:cad>
          </ns3:TrackPointExtension>
        </extensions>
      </trkpt>
      <trkpt lat="45.296043120324611663818359375" lon="-70.876310728490352630615234375">
        <ele>947.79998779296875</ele>
        <time>2026-08-21T15:10:30.000Z</time>
        <extensions>
          <ns3:TrackPointExtension>
            <ns3:hr>129</ns3:hr>
            <ns3:cad>56</ns3:cad>
          </ns3:TrackPointExtension>
        </extensions>
      </trkpt>
      <trkpt lat="45.29603649862110614776611328125" lon="-70.87633210234344005584716796875">
        <ele>947.79998779296875</ele>
        <time>2026-08-21T15:10:31.000Z</time>
        <extensions>
          <ns3:TrackPointExtension>
            <ns3:hr>129</ns3:hr>
            <ns3:cad>0</ns3:cad>
          </ns3:TrackPointExtension>
        </extensions>
      </trkpt>
      <trkpt lat="45.29603616334497928619384765625" lon="-70.87635154835879802703857421875">
        <ele>947.79998779296875</ele>
        <time>2026-08-21T15:10:32.000Z</time>
        <extensions>
          <ns3:TrackPointExtension>
            <ns3:hr>129</ns3:hr>
            <ns3:cad>0</ns3:cad>
          </ns3:TrackPointExtension>
        </extensions>
      </trkpt>
      <trkpt lat="45.2960325591266155242919921875" lon="-70.876369066536426544189453125">
        <ele>947.5999755859375</ele>
        <time>2026-08-21T15:10:33.000Z</time>
        <extensions>
          <ns3:TrackPointExtension>
            <ns3:hr>129</ns3:hr>
            <ns3:cad>0</ns3:cad>
          </ns3:TrackPointExtension>
        </extensions>
      </trkpt>
      <trkpt lat="45.29603230766952037811279296875" lon="-70.87638054974377155303955078125">
        <ele>947.4000244140625</ele>
        <time>2026-08-21T15:10:34.000Z</time>
        <extensions>
          <ns3:TrackPointExtension>
            <ns3:hr>128</ns3:hr>
            <ns3:cad>60</ns3:cad>
          </ns3:TrackPointExtension>
        </extensions>
      </trkpt>
      <trkpt lat="45.29603247530758380889892578125" lon="-70.87639153003692626953125">
        <ele>947.20001220703125</ele>
        <time>2026-08-21T15:10:35.000Z</time>
        <extensions>
          <ns3:TrackPointExtension>
            <ns3:hr>126</ns3:hr>
            <ns3:cad>60</ns3:cad>
          </ns3:TrackPointExtension>
        </extensions>
      </trkpt>
      <trkpt lat="45.296031720936298370361328125" lon="-70.8764044381678104400634765625">
        <ele>946.79998779296875</ele>
        <time>2026-08-21T15:10:36.000Z</time>
        <extensions>
          <ns3:TrackPointExtension>
            <ns3:hr>124</ns3:hr>
            <ns3:cad>60</ns3:cad>
          </ns3:TrackPointExtension>
        </extensions>
      </trkpt>
      <trkpt lat="45.29602308757603168487548828125" lon="-70.8764258958399295806884765625">
        <ele>946.5999755859375</ele>
        <time>2026-08-21T15:10:37.000Z</time>
        <extensions>
          <ns3:TrackPointExtension>
            <ns3:hr>124</ns3:hr>
            <ns3:cad>60</ns3:cad>
          </ns3:TrackPointExtension>
        </extensions>
      </trkpt>
      <trkpt lat="45.29602174647152423858642578125" lon="-70.87643989361822605133056640625">
        <ele>946.4000244140625</ele>
        <time>2026-08-21T15:10:38.000Z</time>
        <extensions>
          <ns3:TrackPointExtension>
            <ns3:hr>124</ns3:hr>
            <ns3:cad>54</ns3:cad>
          </ns3:TrackPointExtension>
        </extensions>
      </trkpt>
      <trkpt lat="45.29602468013763427734375" lon="-70.876454226672649383544921875">
        <ele>946</ele>
        <time>2026-08-21T15:10:39.000Z</time>
        <extensions>
          <ns3:TrackPointExtension>
            <ns3:hr>124</ns3:hr>
            <ns3:cad>54</ns3:cad>
          </ns3:TrackPointExtension>
        </extensions>
      </trkpt>
      <trkpt lat="45.29602576978504657745361328125" lon="-70.87646638043224811553955078125">
        <ele>945.79998779296875</ele>
        <time>2026-08-21T15:10:40.000Z</time>
        <extensions>
          <ns3:TrackPointExtension>
            <ns3:hr>125</ns3:hr>
            <ns3:cad>54</ns3:cad>
          </ns3:TrackPointExtension>
        </extensions>
      </trkpt>
      <trkpt lat="45.29602627269923686981201171875" lon="-70.87648473680019378662109375">
        <ele>945.5999755859375</ele>
        <time>2026-08-21T15:10:41.000Z</time>
        <extensions>
          <ns3:TrackPointExtension>
            <ns3:hr>125</ns3:hr>
            <ns3:cad>54</ns3:cad>
          </ns3:TrackPointExtension>
        </extensions>
      </trkpt>
      <trkpt lat="45.29602727852761745452880859375" lon="-70.87650560773909091949462890625">
        <ele>945.4000244140625</ele>
        <time>2026-08-21T15:10:42.000Z</time>
        <extensions>
          <ns3:TrackPointExtension>
            <ns3:hr>126</ns3:hr>
            <ns3:cad>54</ns3:cad>
          </ns3:TrackPointExtension>
        </extensions>
      </trkpt>
      <trkpt lat="45.29602593742311000823974609375" lon="-70.87652094662189483642578125">
        <ele>945.20001220703125</ele>
        <time>2026-08-21T15:10:43.000Z</time>
        <extensions>
          <ns3:TrackPointExtension>
            <ns3:hr>125</ns3:hr>
            <ns3:cad>59</ns3:cad>
          </ns3:TrackPointExtension>
        </extensions>
      </trkpt>
      <trkpt lat="45.2960292063653469085693359375" lon="-70.87653779424726963043212890625">
        <ele>945</ele>
        <time>2026-08-21T15:10:44.000Z</time>
        <extensions>
          <ns3:TrackPointExtension>
            <ns3:hr>125</ns3:hr>
            <ns3:cad>59</ns3:cad>
          </ns3:TrackPointExtension>
        </extensions>
      </trkpt>
      <trkpt lat="45.29603473842144012451171875" lon="-70.87655506096780300140380859375">
        <ele>944.5999755859375</ele>
        <time>2026-08-21T15:10:45.000Z</time>
        <extensions>
          <ns3:TrackPointExtension>
            <ns3:hr>126</ns3:hr>
            <ns3:cad>61</ns3:cad>
          </ns3:TrackPointExtension>
        </extensions>
      </trkpt>
      <trkpt lat="45.2960406057536602020263671875" lon="-70.8765657059848308563232421875">
        <ele>944.4000244140625</ele>
        <time>2026-08-21T15:10:46.000Z</time>
        <extensions>
          <ns3:TrackPointExtension>
            <ns3:hr>126</ns3:hr>
            <ns3:cad>61</ns3:cad>
          </ns3:TrackPointExtension>
        </extensions>
      </trkpt>
      <trkpt lat="45.29604613780975341796875" lon="-70.8765777759253978729248046875">
        <ele>944</ele>
        <time>2026-08-21T15:10:47.000Z</time>
        <extensions>
          <ns3:TrackPointExtension>
            <ns3:hr>126</ns3:hr>
            <ns3:cad>61</ns3:cad>
          </ns3:TrackPointExtension>
        </extensions>
      </trkpt>
      <trkpt lat="45.2960479818284511566162109375" lon="-70.87659881450235843658447265625">
        <ele>943.79998779296875</ele>
        <time>2026-08-21T15:10:48.000Z</time>
        <extensions>
          <ns3:TrackPointExtension>
            <ns3:hr>126</ns3:hr>
            <ns3:cad>61</ns3:cad>
          </ns3:TrackPointExtension>
        </extensions>
      </trkpt>
      <trkpt lat="45.2960483171045780181884765625" lon="-70.87661524303257465362548828125">
        <ele>943.4000244140625</ele>
        <time>2026-08-21T15:10:49.000Z</time>
        <extensions>
          <ns3:TrackPointExtension>
            <ns3:hr>126</ns3:hr>
            <ns3:cad>61</ns3:cad>
          </ns3:TrackPointExtension>
        </extensions>
      </trkpt>
      <trkpt lat="45.29604823328554630279541015625" lon="-70.87662915699183940887451171875">
        <ele>943</ele>
        <time>2026-08-21T15:10:50.000Z</time>
        <extensions>
          <ns3:TrackPointExtension>
            <ns3:hr>127</ns3:hr>
            <ns3:cad>61</ns3:cad>
          </ns3:TrackPointExtension>
        </extensions>
      </trkpt>
      <trkpt lat="45.2960483171045780181884765625" lon="-70.87664432823657989501953125">
        <ele>942.5999755859375</ele>
        <time>2026-08-21T15:10:51.000Z</time>
        <extensions>
          <ns3:TrackPointExtension>
            <ns3:hr>127</ns3:hr>
            <ns3:cad>61</ns3:cad>
          </ns3:TrackPointExtension>
        </extensions>
      </trkpt>
      <trkpt lat="45.29604404233396053314208984375" lon="-70.87665329687297344207763671875">
        <ele>942.20001220703125</ele>
        <time>2026-08-21T15:10:52.000Z</time>
        <extensions>
          <ns3:TrackPointExtension>
            <ns3:hr>128</ns3:hr>
            <ns3:cad>61</ns3:cad>
          </ns3:TrackPointExtension>
        </extensions>
      </trkpt>
      <trkpt lat="45.296033062040805816650390625" lon="-70.87667475454509258270263671875">
        <ele>941.79998779296875</ele>
        <time>2026-08-21T15:10:53.000Z</time>
        <extensions>
          <ns3:TrackPointExtension>
            <ns3:hr>128</ns3:hr>
            <ns3:cad>61</ns3:cad>
          </ns3:TrackPointExtension>
        </extensions>
      </trkpt>
      <trkpt lat="45.29603482224047183990478515625" lon="-70.8766978047788143157958984375">
        <ele>941.4000244140625</ele>
        <time>2026-08-21T15:10:54.000Z</time>
        <extensions>
          <ns3:TrackPointExtension>
            <ns3:hr>128</ns3:hr>
            <ns3:cad>61</ns3:cad>
          </ns3:TrackPointExtension>
        </extensions>
      </trkpt>
      <trkpt lat="45.29603834263980388641357421875" lon="-70.8767236210405826568603515625">
        <ele>940.79998779296875</ele>
        <time>2026-08-21T15:10:55.000Z</time>
        <extensions>
          <ns3:TrackPointExtension>
            <ns3:hr>126</ns3:hr>
            <ns3:cad>75</ns3:cad>
          </ns3:TrackPointExtension>
        </extensions>
      </trkpt>
      <trkpt lat="45.29603742063045501708984375" lon="-70.87674499489367008209228515625">
        <ele>940.4000244140625</ele>
        <time>2026-08-21T15:10:56.000Z</time>
        <extensions>
          <ns3:TrackPointExtension>
            <ns3:hr>125</ns3:hr>
            <ns3:cad>75</ns3:cad>
          </ns3:TrackPointExtension>
        </extensions>
      </trkpt>
      <trkpt lat="45.296038426458835601806640625" lon="-70.8767598308622837066650390625">
        <ele>939.79998779296875</ele>
        <time>2026-08-21T15:10:57.000Z</time>
        <extensions>
          <ns3:TrackPointExtension>
            <ns3:hr>124</ns3:hr>
            <ns3:cad>76</ns3:cad>
          </ns3:TrackPointExtension>
        </extensions>
      </trkpt>
      <trkpt lat="45.296037755906581878662109375" lon="-70.87677014060318470001220703125">
        <ele>939.5999755859375</ele>
        <time>2026-08-21T15:10:58.000Z</time>
        <extensions>
          <ns3:TrackPointExtension>
            <ns3:hr>124</ns3:hr>
            <ns3:cad>75</ns3:cad>
          </ns3:TrackPointExtension>
        </extensions>
      </trkpt>
      <trkpt lat="45.296037755906581878662109375" lon="-70.8767791092395782470703125">
        <ele>939.20001220703125</ele>
        <time>2026-08-21T15:10:59.000Z</time>
        <extensions>
          <ns3:TrackPointExtension>
            <ns3:hr>124</ns3:hr>
            <ns3:cad>75</ns3:cad>
          </ns3:TrackPointExtension>
        </extensions>
      </trkpt>
      <trkpt lat="45.29603633098304271697998046875" lon="-70.87679059244692325592041015625">
        <ele>939</ele>
        <time>2026-08-21T15:11:00.000Z</time>
        <extensions>
          <ns3:TrackPointExtension>
            <ns3:hr>124</ns3:hr>
            <ns3:cad>75</ns3:cad>
          </ns3:TrackPointExtension>
        </extensions>
      </trkpt>
      <trkpt lat="45.29603029601275920867919921875" lon="-70.87680132128298282623291015625">
        <ele>938.5999755859375</ele>
        <time>2026-08-21T15:11:01.000Z</time>
        <extensions>
          <ns3:TrackPointExtension>
            <ns3:hr>124</ns3:hr>
            <ns3:cad>75</ns3:cad>
          </ns3:TrackPointExtension>
        </extensions>
      </trkpt>
      <trkpt lat="45.29602711088955402374267578125" lon="-70.8768141455948352813720703125">
        <ele>938.4000244140625</ele>
        <time>2026-08-21T15:11:02.000Z</time>
        <extensions>
          <ns3:TrackPointExtension>
            <ns3:hr>124</ns3:hr>
            <ns3:cad>0</ns3:cad>
          </ns3:TrackPointExtension>
        </extensions>
      </trkpt>
      <trkpt lat="45.29602996073663234710693359375" lon="-70.8768325857818126678466796875">
        <ele>938</ele>
        <time>2026-08-21T15:11:03.000Z</time>
        <extensions>
          <ns3:TrackPointExtension>
            <ns3:hr>124</ns3:hr>
            <ns3:cad>0</ns3:cad>
          </ns3:TrackPointExtension>
        </extensions>
      </trkpt>
      <trkpt lat="45.29603264294564723968505859375" lon="-70.8768547140061855316162109375">
        <ele>937.5999755859375</ele>
        <time>2026-08-21T15:11:04.000Z</time>
        <extensions>
          <ns3:TrackPointExtension>
            <ns3:hr>124</ns3:hr>
            <ns3:cad>0</ns3:cad>
          </ns3:TrackPointExtension>
        </extensions>
      </trkpt>
      <trkpt lat="45.29603230766952037811279296875" lon="-70.8768741600215435028076171875">
        <ele>937.20001220703125</ele>
        <time>2026-08-21T15:11:05.000Z</time>
        <extensions>
          <ns3:TrackPointExtension>
            <ns3:hr>123</ns3:hr>
            <ns3:cad>0</ns3:cad>
          </ns3:TrackPointExtension>
        </extensions>
      </trkpt>
      <trkpt lat="45.2960295416414737701416015625" lon="-70.8768915943801403045654296875">
        <ele>936.79998779296875</ele>
        <time>2026-08-21T15:11:06.000Z</time>
        <extensions>
          <ns3:TrackPointExtension>
            <ns3:hr>123</ns3:hr>
            <ns3:cad>0</ns3:cad>
          </ns3:TrackPointExtension>
        </extensions>
      </trkpt>
      <trkpt lat="45.29602241702377796173095703125" lon="-70.87690928019583225250244140625">
        <ele>936.4000244140625</ele>
        <time>2026-08-21T15:11:07.000Z</time>
        <extensions>
          <ns3:TrackPointExtension>
            <ns3:hr>122</ns3:hr>
            <ns3:cad>0</ns3:cad>
          </ns3:TrackPointExtension>
        </extensions>
      </trkpt>
      <trkpt lat="45.29601805843412876129150390625" lon="-70.87692151777446269989013671875">
        <ele>936</ele>
        <time>2026-08-21T15:11:08.000Z</time>
        <extensions>
          <ns3:TrackPointExtension>
            <ns3:hr>121</ns3:hr>
            <ns3:cad>0</ns3:cad>
          </ns3:TrackPointExtension>
        </extensions>
      </trkpt>
      <trkpt lat="45.29600431211292743682861328125" lon="-70.8769373595714569091796875">
        <ele>935.5999755859375</ele>
        <time>2026-08-21T15:11:09.000Z</time>
        <extensions>
          <ns3:TrackPointExtension>
            <ns3:hr>120</ns3:hr>
            <ns3:cad>0</ns3:cad>
          </ns3:TrackPointExtension>
        </extensions>
      </trkpt>
      <trkpt lat="45.2959973551332950592041015625" lon="-70.8769593201577663421630859375">
        <ele>935.4000244140625</ele>
        <time>2026-08-21T15:11:10.000Z</time>
        <extensions>
          <ns3:TrackPointExtension>
            <ns3:hr>119</ns3:hr>
            <ns3:cad>0</ns3:cad>
          </ns3:TrackPointExtension>
        </extensions>
      </trkpt>
      <trkpt lat="45.2959903143346309661865234375" lon="-70.87698471732437610626220703125">
        <ele>935</ele>
        <time>2026-08-21T15:11:11.000Z</time>
        <extensions>
          <ns3:TrackPointExtension>
            <ns3:hr>119</ns3:hr>
            <ns3:cad>0</ns3:cad>
          </ns3:TrackPointExtension>
        </extensions>
      </trkpt>
      <trkpt lat="45.2959872968494892120361328125" lon="-70.87700776755809783935546875">
        <ele>934.79998779296875</ele>
        <time>2026-08-21T15:11:12.000Z</time>
        <extensions>
          <ns3:TrackPointExtension>
            <ns3:hr>119</ns3:hr>
            <ns3:cad>0</ns3:cad>
          </ns3:TrackPointExtension>
        </extensions>
      </trkpt>
      <trkpt lat="45.29598603956401348114013671875" lon="-70.8770307339727878570556640625">
        <ele>934.5999755859375</ele>
        <time>2026-08-21T15:11:13.000Z</time>
        <extensions>
          <ns3:TrackPointExtension>
            <ns3:hr>119</ns3:hr>
            <ns3:cad>0</ns3:cad>
          </ns3:TrackPointExtension>
        </extensions>
      </trkpt>
      <trkpt lat="45.29598151333630084991455078125" lon="-70.8770542033016681671142578125">
        <ele>934.4000244140625</ele>
        <time>2026-08-21T15:11:14.000Z</time>
        <extensions>
          <ns3:TrackPointExtension>
            <ns3:hr>118</ns3:hr>
            <ns3:cad>72</ns3:cad>
          </ns3:TrackPointExtension>
        </extensions>
      </trkpt>
      <trkpt lat="45.29598352499306201934814453125" lon="-70.8770706318318843841552734375">
        <ele>934.20001220703125</ele>
        <time>2026-08-21T15:11:15.000Z</time>
        <extensions>
          <ns3:TrackPointExtension>
            <ns3:hr>119</ns3:hr>
            <ns3:cad>72</ns3:cad>
          </ns3:TrackPointExtension>
        </extensions>
      </trkpt>
      <trkpt lat="45.295982770621776580810546875" lon="-70.8770821988582611083984375">
        <ele>933.79998779296875</ele>
        <time>2026-08-21T15:11:16.000Z</time>
        <extensions>
          <ns3:TrackPointExtension>
            <ns3:hr>120</ns3:hr>
            <ns3:cad>72</ns3:cad>
          </ns3:TrackPointExtension>
        </extensions>
      </trkpt>
      <trkpt lat="45.29598779976367950439453125" lon="-70.87709552608430385589599609375">
        <ele>933.5999755859375</ele>
        <time>2026-08-21T15:11:17.000Z</time>
        <extensions>
          <ns3:TrackPointExtension>
            <ns3:hr>121</ns3:hr>
            <ns3:cad>72</ns3:cad>
          </ns3:TrackPointExtension>
        </extensions>
      </trkpt>
      <trkpt lat="45.29598805122077465057373046875" lon="-70.877120755612850189208984375">
        <ele>933.4000244140625</ele>
        <time>2026-08-21T15:11:18.000Z</time>
        <extensions>
          <ns3:TrackPointExtension>
            <ns3:hr>122</ns3:hr>
            <ns3:cad>72</ns3:cad>
          </ns3:TrackPointExtension>
        </extensions>
      </trkpt>
      <trkpt lat="45.295987464487552642822265625" lon="-70.877140201628208160400390625">
        <ele>933.20001220703125</ele>
        <time>2026-08-21T15:11:19.000Z</time>
        <extensions>
          <ns3:TrackPointExtension>
            <ns3:hr>123</ns3:hr>
            <ns3:cad>61</ns3:cad>
          </ns3:TrackPointExtension>
        </extensions>
      </trkpt>
      <trkpt lat="45.29598402790725231170654296875" lon="-70.87715386413037776947021484375">
        <ele>933</ele>
        <time>2026-08-21T15:11:20.000Z</time>
        <extensions>
          <ns3:TrackPointExtension>
            <ns3:hr>123</ns3:hr>
            <ns3:cad>61</ns3:cad>
          </ns3:TrackPointExtension>
        </extensions>
      </trkpt>
      <trkpt lat="45.29597564600408077239990234375" lon="-70.87716710753738880157470703125">
        <ele>932.79998779296875</ele>
        <time>2026-08-21T15:11:21.000Z</time>
        <extensions>
          <ns3:TrackPointExtension>
            <ns3:hr>123</ns3:hr>
            <ns3:cad>61</ns3:cad>
          </ns3:TrackPointExtension>
        </extensions>
      </trkpt>
      <trkpt lat="45.29596894048154354095458984375" lon="-70.87718269787728786468505859375">
        <ele>932.5999755859375</ele>
        <time>2026-08-21T15:11:22.000Z</time>
        <extensions>
          <ns3:TrackPointExtension>
            <ns3:hr>124</ns3:hr>
            <ns3:cad>61</ns3:cad>
          </ns3:TrackPointExtension>
        </extensions>
      </trkpt>
      <trkpt lat="45.29596407897770404815673828125" lon="-70.877206586301326751708984375">
        <ele>932.4000244140625</ele>
        <time>2026-08-21T15:11:23.000Z</time>
        <extensions>
          <ns3:TrackPointExtension>
            <ns3:hr>123</ns3:hr>
            <ns3:cad>61</ns3:cad>
          </ns3:TrackPointExtension>
        </extensions>
      </trkpt>
      <trkpt lat="45.29595804400742053985595703125" lon="-70.87722259573638439178466796875">
        <ele>932.20001220703125</ele>
        <time>2026-08-21T15:11:24.000Z</time>
        <extensions>
          <ns3:TrackPointExtension>
            <ns3:hr>123</ns3:hr>
            <ns3:cad>61</ns3:cad>
          </ns3:TrackPointExtension>
        </extensions>
      </trkpt>
      <trkpt lat="45.29594614170491695404052734375" lon="-70.87723567150533199310302734375">
        <ele>931.79998779296875</ele>
        <time>2026-08-21T15:11:25.000Z</time>
        <extensions>
          <ns3:TrackPointExtension>
            <ns3:hr>124</ns3:hr>
            <ns3:cad>61</ns3:cad>
          </ns3:TrackPointExtension>
        </extensions>
      </trkpt>
      <trkpt lat="45.29593843035399913787841796875" lon="-70.87724422104656696319580078125">
        <ele>931.79998779296875</ele>
        <time>2026-08-21T15:11:26.000Z</time>
        <extensions>
          <ns3:TrackPointExtension>
            <ns3:hr>124</ns3:hr>
            <ns3:cad>0</ns3:cad>
          </ns3:TrackPointExtension>
        </extensions>
      </trkpt>
      <trkpt lat="45.29592652805149555206298828125" lon="-70.8772540278732776641845703125">
        <ele>931.5999755859375</ele>
        <time>2026-08-21T15:11:27.000Z</time>
        <extensions>
          <ns3:TrackPointExtension>
            <ns3:hr>124</ns3:hr>
            <ns3:cad>0</ns3:cad>
          </ns3:TrackPointExtension>
        </extensions>
      </trkpt>
      <trkpt lat="45.29591261409223079681396484375" lon="-70.87726416997611522674560546875">
        <ele>931.20001220703125</ele>
        <time>2026-08-21T15:11:28.000Z</time>
        <extensions>
          <ns3:TrackPointExtension>
            <ns3:hr>124</ns3:hr>
            <ns3:cad>0</ns3:cad>
          </ns3:TrackPointExtension>
        </extensions>
      </trkpt>
      <trkpt lat="45.29590607620775699615478515625" lon="-70.87727623991668224334716796875">
        <ele>931.20001220703125</ele>
        <time>2026-08-21T15:11:29.000Z</time>
        <extensions>
          <ns3:TrackPointExtension>
            <ns3:hr>124</ns3:hr>
            <ns3:cad>0</ns3:cad>
          </ns3:TrackPointExtension>
        </extensions>
      </trkpt>
      <trkpt lat="45.29590196907520294189453125" lon="-70.87729384191334247589111328125">
        <ele>931</ele>
        <time>2026-08-21T15:11:30.000Z</time>
        <extensions>
          <ns3:TrackPointExtension>
            <ns3:hr>124</ns3:hr>
            <ns3:cad>0</ns3:cad>
          </ns3:TrackPointExtension>
        </extensions>
      </trkpt>
      <trkpt lat="45.29589685611426830291748046875" lon="-70.8773123659193515777587890625">
        <ele>930.79998779296875</ele>
        <time>2026-08-21T15:11:31.000Z</time>
        <extensions>
          <ns3:TrackPointExtension>
            <ns3:hr>125</ns3:hr>
            <ns3:cad>0</ns3:cad>
          </ns3:TrackPointExtension>
        </extensions>
      </trkpt>
      <trkpt lat="45.29588495381176471710205078125" lon="-70.8773358352482318878173828125">
        <ele>930.4000244140625</ele>
        <time>2026-08-21T15:11:32.000Z</time>
        <extensions>
          <ns3:TrackPointExtension>
            <ns3:hr>124</ns3:hr>
            <ns3:cad>0</ns3:cad>
          </ns3:TrackPointExtension>
        </extensions>
      </trkpt>
      <trkpt lat="45.29586500488221645355224609375" lon="-70.87735469453036785125732421875">
        <ele>930.20001220703125</ele>
        <time>2026-08-21T15:11:33.000Z</time>
        <extensions>
          <ns3:TrackPointExtension>
            <ns3:hr>125</ns3:hr>
            <ns3:cad>0</ns3:cad>
          </ns3:TrackPointExtension>
        </extensions>
      </trkpt>
      <trkpt lat="45.2958461456000804901123046875" lon="-70.87736341170966625213623046875">
        <ele>930</ele>
        <time>2026-08-21T15:11:34.000Z</time>
        <extensions>
          <ns3:TrackPointExtension>
            <ns3:hr>125</ns3:hr>
            <ns3:cad>0</ns3:cad>
          </ns3:TrackPointExtension>
        </extensions>
      </trkpt>
      <trkpt lat="45.29582477174699306488037109375" lon="-70.8773780800402164459228515625">
        <ele>930</ele>
        <time>2026-08-21T15:11:35.000Z</time>
        <extensions>
          <ns3:TrackPointExtension>
            <ns3:hr>125</ns3:hr>
            <ns3:cad>0</ns3:cad>
          </ns3:TrackPointExtension>
        </extensions>
      </trkpt>
      <trkpt lat="45.29580951668322086334228515625" lon="-70.87738939560949802398681640625">
        <ele>929.79998779296875</ele>
        <time>2026-08-21T15:11:36.000Z</time>
        <extensions>
          <ns3:TrackPointExtension>
            <ns3:hr>125</ns3:hr>
            <ns3:cad>0</ns3:cad>
          </ns3:TrackPointExtension>
        </extensions>
      </trkpt>
      <trkpt lat="45.2957968600094318389892578125" lon="-70.87740062735974788665771484375">
        <ele>929.79998779296875</ele>
        <time>2026-08-21T15:11:37.000Z</time>
        <extensions>
          <ns3:TrackPointExtension>
            <ns3:hr>126</ns3:hr>
            <ns3:cad>0</ns3:cad>
          </ns3:TrackPointExtension>
        </extensions>
      </trkpt>
      <trkpt lat="45.295776240527629852294921875" lon="-70.877416133880615234375">
        <ele>929.79998779296875</ele>
        <time>2026-08-21T15:11:38.000Z</time>
        <extensions>
          <ns3:TrackPointExtension>
            <ns3:hr>127</ns3:hr>
            <ns3:cad>0</ns3:cad>
          </ns3:TrackPointExtension>
        </extensions>
      </trkpt>
      <trkpt lat="45.29575352557003498077392578125" lon="-70.87743155658245086669921875">
        <ele>929.79998779296875</ele>
        <time>2026-08-21T15:11:39.000Z</time>
        <extensions>
          <ns3:TrackPointExtension>
            <ns3:hr>127</ns3:hr>
            <ns3:cad>0</ns3:cad>
          </ns3:TrackPointExtension>
        </extensions>
      </trkpt>
      <trkpt lat="45.29573642648756504058837890625" lon="-70.87744287215173244476318359375">
        <ele>929.79998779296875</ele>
        <time>2026-08-21T15:11:40.000Z</time>
        <extensions>
          <ns3:TrackPointExtension>
            <ns3:hr>128</ns3:hr>
            <ns3:cad>0</ns3:cad>
          </ns3:TrackPointExtension>
        </extensions>
      </trkpt>
      <trkpt lat="45.295726619660854339599609375" lon="-70.8774541877210140228271484375">
        <ele>929.5999755859375</ele>
        <time>2026-08-21T15:11:41.000Z</time>
        <extensions>
          <ns3:TrackPointExtension>
            <ns3:hr>128</ns3:hr>
            <ns3:cad>75</ns3:cad>
          </ns3:TrackPointExtension>
        </extensions>
      </trkpt>
      <trkpt lat="45.29571530409157276153564453125" lon="-70.8774625696241855621337890625">
        <ele>929.4000244140625</ele>
        <time>2026-08-21T15:11:42.000Z</time>
        <extensions>
          <ns3:TrackPointExtension>
            <ns3:hr>128</ns3:hr>
            <ns3:cad>75</ns3:cad>
          </ns3:TrackPointExtension>
        </extensions>
      </trkpt>
      <trkpt lat="45.29569803737103939056396484375" lon="-70.8774659223854541778564453125">
        <ele>929.4000244140625</ele>
        <time>2026-08-21T15:11:43.000Z</time>
        <extensions>
          <ns3:TrackPointExtension>
            <ns3:hr>129</ns3:hr>
            <ns3:cad>77</ns3:cad>
          </ns3:TrackPointExtension>
        </extensions>
      </trkpt>
      <trkpt lat="45.295685045421123504638671875" lon="-70.877469442784786224365234375">
        <ele>929.20001220703125</ele>
        <time>2026-08-21T15:11:44.000Z</time>
        <extensions>
          <ns3:TrackPointExtension>
            <ns3:hr>129</ns3:hr>
            <ns3:cad>76</ns3:cad>
          </ns3:TrackPointExtension>
        </extensions>
      </trkpt>
      <trkpt lat="45.29566836543381214141845703125" lon="-70.8774789981544017791748046875">
        <ele>929</ele>
        <time>2026-08-21T15:11:45.000Z</time>
        <extensions>
          <ns3:TrackPointExtension>
            <ns3:hr>129</ns3:hr>
            <ns3:cad>76</ns3:cad>
          </ns3:TrackPointExtension>
        </extensions>
      </trkpt>
      <trkpt lat="45.2956443093717098236083984375" lon="-70.87749031372368335723876953125">
        <ele>929</ele>
        <time>2026-08-21T15:11:46.000Z</time>
        <extensions>
          <ns3:TrackPointExtension>
            <ns3:hr>129</ns3:hr>
            <ns3:cad>74</ns3:cad>
          </ns3:TrackPointExtension>
        </extensions>
      </trkpt>
      <trkpt lat="45.29563114978373050689697265625" lon="-70.877509675920009613037109375">
        <ele>928.5999755859375</ele>
        <time>2026-08-21T15:11:47.000Z</time>
        <extensions>
          <ns3:TrackPointExtension>
            <ns3:hr>129</ns3:hr>
            <ns3:cad>74</ns3:cad>
          </ns3:TrackPointExtension>
        </extensions>
      </trkpt>
      <trkpt lat="45.29562025330960750579833984375" lon="-70.8775185607373714447021484375">
        <ele>928.4000244140625</ele>
        <time>2026-08-21T15:11:48.000Z</time>
        <extensions>
          <ns3:TrackPointExtension>
            <ns3:hr>129</ns3:hr>
            <ns3:cad>74</ns3:cad>
          </ns3:TrackPointExtension>
        </extensions>
      </trkpt>
      <trkpt lat="45.29561237432062625885009765625" lon="-70.877519063651561737060546875">
        <ele>928</ele>
        <time>2026-08-21T15:11:49.000Z</time>
        <extensions>
          <ns3:TrackPointExtension>
            <ns3:hr>129</ns3:hr>
            <ns3:cad>74</ns3:cad>
          </ns3:TrackPointExtension>
        </extensions>
      </trkpt>
      <trkpt lat="45.29560449533164501190185546875" lon="-70.87752317078411579132080078125">
        <ele>927.5999755859375</ele>
        <time>2026-08-21T15:11:50.000Z</time>
        <extensions>
          <ns3:TrackPointExtension>
            <ns3:hr>130</ns3:hr>
            <ns3:cad>72</ns3:cad>
          </ns3:TrackPointExtension>
        </extensions>
      </trkpt>
      <trkpt lat="45.29559393413364887237548828125" lon="-70.87753079831600189208984375">
        <ele>927</ele>
        <time>2026-08-21T15:11:51.000Z</time>
        <extensions>
          <ns3:TrackPointExtension>
            <ns3:hr>129</ns3:hr>
            <ns3:cad>72</ns3:cad>
          </ns3:TrackPointExtension>
        </extensions>
      </trkpt>
      <trkpt lat="45.295584462583065032958984375" lon="-70.87753213942050933837890625">
        <ele>926.5999755859375</ele>
        <time>2026-08-21T15:11:52.000Z</time>
        <extensions>
          <ns3:TrackPointExtension>
            <ns3:hr>129</ns3:hr>
            <ns3:cad>72</ns3:cad>
          </ns3:TrackPointExtension>
        </extensions>
      </trkpt>
      <trkpt lat="45.29557742178440093994140625" lon="-70.87753616273403167724609375">
        <ele>926.20001220703125</ele>
        <time>2026-08-21T15:11:53.000Z</time>
        <extensions>
          <ns3:TrackPointExtension>
            <ns3:hr>129</ns3:hr>
            <ns3:cad>0</ns3:cad>
          </ns3:TrackPointExtension>
        </extensions>
      </trkpt>
      <trkpt lat="45.29557951726019382476806640625" lon="-70.877542197704315185546875">
        <ele>925.79998779296875</ele>
        <time>2026-08-21T15:11:54.000Z</time>
        <extensions>
          <ns3:TrackPointExtension>
            <ns3:hr>129</ns3:hr>
            <ns3:cad>0</ns3:cad>
          </ns3:TrackPointExtension>
        </extensions>
      </trkpt>
      <trkpt lat="45.29557130299508571624755859375" lon="-70.877549909055233001708984375">
        <ele>925.20001220703125</ele>
        <time>2026-08-21T15:11:55.000Z</time>
        <extensions>
          <ns3:TrackPointExtension>
            <ns3:hr>128</ns3:hr>
            <ns3:cad>0</ns3:cad>
          </ns3:TrackPointExtension>
        </extensions>
      </trkpt>
      <trkpt lat="45.29556275345385074615478515625" lon="-70.877565331757068634033203125">
        <ele>924.79998779296875</ele>
        <time>2026-08-21T15:11:56.000Z</time>
        <extensions>
          <ns3:TrackPointExtension>
            <ns3:hr>128</ns3:hr>
            <ns3:cad>0</ns3:cad>
          </ns3:TrackPointExtension>
        </extensions>
      </trkpt>
      <trkpt lat="45.29554917477071285247802734375" lon="-70.87758368812501430511474609375">
        <ele>924.5999755859375</ele>
        <time>2026-08-21T15:11:57.000Z</time>
        <extensions>
          <ns3:TrackPointExtension>
            <ns3:hr>128</ns3:hr>
            <ns3:cad>0</ns3:cad>
          </ns3:TrackPointExtension>
        </extensions>
      </trkpt>
      <trkpt lat="45.29553324915468692779541015625" lon="-70.87759911082684993743896484375">
        <ele>924.4000244140625</ele>
        <time>2026-08-21T15:11:58.000Z</time>
        <extensions>
          <ns3:TrackPointExtension>
            <ns3:hr>128</ns3:hr>
            <ns3:cad>0</ns3:cad>
          </ns3:TrackPointExtension>
        </extensions>
      </trkpt>
      <trkpt lat="45.295518077909946441650390625" lon="-70.87761185131967067718505859375">
        <ele>924.4000244140625</ele>
        <time>2026-08-21T15:11:59.000Z</time>
        <extensions>
          <ns3:TrackPointExtension>
            <ns3:hr>128</ns3:hr>
            <ns3:cad>0</ns3:cad>
          </ns3:TrackPointExtension>
        </extensions>
      </trkpt>
      <trkpt lat="45.29549972154200077056884765625" lon="-70.87762241251766681671142578125">
        <ele>924.79998779296875</ele>
        <time>2026-08-21T15:12:00.000Z</time>
        <extensions>
          <ns3:TrackPointExtension>
            <ns3:hr>128</ns3:hr>
            <ns3:cad>74</ns3:cad>
          </ns3:TrackPointExtension>
        </extensions>
      </trkpt>
      <trkpt lat="45.2954810298979282379150390625" lon="-70.877630375325679779052734375">
        <ele>925</ele>
        <time>2026-08-21T15:12:01.000Z</time>
        <extensions>
          <ns3:TrackPointExtension>
            <ns3:hr>128</ns3:hr>
            <ns3:cad>74</ns3:cad>
          </ns3:TrackPointExtension>
        </extensions>
      </trkpt>
      <trkpt lat="45.2954652719199657440185546875" lon="-70.87763867340981960296630859375">
        <ele>925.5999755859375</ele>
        <time>2026-08-21T15:12:02.000Z</time>
        <extensions>
          <ns3:TrackPointExtension>
            <ns3:hr>128</ns3:hr>
            <ns3:cad>72</ns3:cad>
          </ns3:TrackPointExtension>
        </extensions>
      </trkpt>
      <trkpt lat="45.29545144177973270416259765625" lon="-70.87764923460781574249267578125">
        <ele>925.79998779296875</ele>
        <time>2026-08-21T15:12:03.000Z</time>
        <extensions>
          <ns3:TrackPointExtension>
            <ns3:hr>129</ns3:hr>
            <ns3:cad>72</ns3:cad>
          </ns3:TrackPointExtension>
        </extensions>
      </trkpt>
      <trkpt lat="45.29543434269726276397705078125" lon="-70.87765409611165523529052734375">
        <ele>926.20001220703125</ele>
        <time>2026-08-21T15:12:04.000Z</time>
        <extensions>
          <ns3:TrackPointExtension>
            <ns3:hr>129</ns3:hr>
            <ns3:cad>72</ns3:cad>
          </ns3:TrackPointExtension>
        </extensions>
      </trkpt>
      <trkpt lat="45.2954203449189662933349609375" lon="-70.87765929289162158966064453125">
        <ele>926.20001220703125</ele>
        <time>2026-08-21T15:12:05.000Z</time>
        <extensions>
          <ns3:TrackPointExtension>
            <ns3:hr>130</ns3:hr>
            <ns3:cad>75</ns3:cad>
          </ns3:TrackPointExtension>
        </extensions>
      </trkpt>
      <trkpt lat="45.29540685005486011505126953125" lon="-70.87766415439546108245849609375">
        <ele>926.4000244140625</ele>
        <time>2026-08-21T15:12:06.000Z</time>
        <extensions>
          <ns3:TrackPointExtension>
            <ns3:hr>130</ns3:hr>
            <ns3:cad>75</ns3:cad>
          </ns3:TrackPointExtension>
        </extensions>
      </trkpt>
      <trkpt lat="45.29539293609559535980224609375" lon="-70.87767488323152065277099609375">
        <ele>926.20001220703125</ele>
        <time>2026-08-21T15:12:07.000Z</time>
        <extensions>
          <ns3:TrackPointExtension>
            <ns3:hr>130</ns3:hr>
            <ns3:cad>75</ns3:cad>
          </ns3:TrackPointExtension>
        </extensions>
      </trkpt>
      <trkpt lat="45.295376591384410858154296875" lon="-70.8776865340769290924072265625">
        <ele>926.20001220703125</ele>
        <time>2026-08-21T15:12:08.000Z</time>
        <extensions>
          <ns3:TrackPointExtension>
            <ns3:hr>131</ns3:hr>
            <ns3:cad>75</ns3:cad>
          </ns3:TrackPointExtension>
        </extensions>
      </trkpt>
      <trkpt lat="45.29536343179643154144287109375" lon="-70.87770120240747928619384765625">
        <ele>926</ele>
        <time>2026-08-21T15:12:09.000Z</time>
        <extensions>
          <ns3:TrackPointExtension>
            <ns3:hr>131</ns3:hr>
            <ns3:cad>75</ns3:cad>
          </ns3:TrackPointExtension>
        </extensions>
      </trkpt>
      <trkpt lat="45.29534197412431240081787109375" lon="-70.87771117687225341796875">
        <ele>925.79998779296875</ele>
        <time>2026-08-21T15:12:10.000Z</time>
        <extensions>
          <ns3:TrackPointExtension>
            <ns3:hr>132</ns3:hr>
            <ns3:cad>55</ns3:cad>
          </ns3:TrackPointExtension>
        </extensions>
      </trkpt>
      <trkpt lat="45.29532730579376220703125" lon="-70.87772215716540813446044921875">
        <ele>925.5999755859375</ele>
        <time>2026-08-21T15:12:11.000Z</time>
        <extensions>
          <ns3:TrackPointExtension>
            <ns3:hr>132</ns3:hr>
            <ns3:cad>55</ns3:cad>
          </ns3:TrackPointExtension>
        </extensions>
      </trkpt>
      <trkpt lat="45.2953150682151317596435546875" lon="-70.87773372419178485870361328125">
        <ele>925.4000244140625</ele>
        <time>2026-08-21T15:12:12.000Z</time>
        <extensions>
          <ns3:TrackPointExtension>
            <ns3:hr>133</ns3:hr>
            <ns3:cad>55</ns3:cad>
          </ns3:TrackPointExtension>
        </extensions>
      </trkpt>
      <trkpt lat="45.29530056752264499664306640625" lon="-70.87774545885622501373291015625">
        <ele>925</ele>
        <time>2026-08-21T15:12:13.000Z</time>
        <extensions>
          <ns3:TrackPointExtension>
            <ns3:hr>134</ns3:hr>
            <ns3:cad>55</ns3:cad>
          </ns3:TrackPointExtension>
        </extensions>
      </trkpt>
      <trkpt lat="45.2952852286398410797119140625" lon="-70.87776054628193378448486328125">
        <ele>924.79998779296875</ele>
        <time>2026-08-21T15:12:14.000Z</time>
        <extensions>
          <ns3:TrackPointExtension>
            <ns3:hr>134</ns3:hr>
            <ns3:cad>68</ns3:cad>
          </ns3:TrackPointExtension>
        </extensions>
      </trkpt>
      <trkpt lat="45.29527299106121063232421875" lon="-70.8777822554111480712890625">
        <ele>924.5999755859375</ele>
        <time>2026-08-21T15:12:15.000Z</time>
        <extensions>
          <ns3:TrackPointExtension>
            <ns3:hr>134</ns3:hr>
            <ns3:cad>68</ns3:cad>
          </ns3:TrackPointExtension>
        </extensions>
      </trkpt>
      <trkpt lat="45.2952647767961025238037109375" lon="-70.8778085745871067047119140625">
        <ele>924.4000244140625</ele>
        <time>2026-08-21T15:12:16.000Z</time>
        <extensions>
          <ns3:TrackPointExtension>
            <ns3:hr>134</ns3:hr>
            <ns3:cad>68</ns3:cad>
          </ns3:TrackPointExtension>
        </extensions>
      </trkpt>
      <trkpt lat="45.2952506951987743377685546875" lon="-70.87783061899244785308837890625">
        <ele>924</ele>
        <time>2026-08-21T15:12:17.000Z</time>
        <extensions>
          <ns3:TrackPointExtension>
            <ns3:hr>134</ns3:hr>
            <ns3:cad>68</ns3:cad>
          </ns3:TrackPointExtension>
        </extensions>
      </trkpt>
      <trkpt lat="45.29523678123950958251953125" lon="-70.8778407610952854156494140625">
        <ele>923.5999755859375</ele>
        <time>2026-08-21T15:12:18.000Z</time>
        <extensions>
          <ns3:TrackPointExtension>
            <ns3:hr>135</ns3:hr>
            <ns3:cad>68</ns3:cad>
          </ns3:TrackPointExtension>
        </extensions>
      </trkpt>
      <trkpt lat="45.29521926306188106536865234375" lon="-70.8778493106365203857421875">
        <ele>923.4000244140625</ele>
        <time>2026-08-21T15:12:19.000Z</time>
        <extensions>
          <ns3:TrackPointExtension>
            <ns3:hr>135</ns3:hr>
            <ns3:cad>68</ns3:cad>
          </ns3:TrackPointExtension>
        </extensions>
      </trkpt>
      <trkpt lat="45.29520451091229915618896484375" lon="-70.877859033644199371337890625">
        <ele>923</ele>
        <time>2026-08-21T15:12:20.000Z</time>
        <extensions>
          <ns3:TrackPointExtension>
            <ns3:hr>135</ns3:hr>
            <ns3:cad>68</ns3:cad>
          </ns3:TrackPointExtension>
        </extensions>
      </trkpt>
      <trkpt lat="45.2951903454959392547607421875" lon="-70.877868421375751495361328125">
        <ele>922.79998779296875</ele>
        <time>2026-08-21T15:12:21.000Z</time>
        <extensions>
          <ns3:TrackPointExtension>
            <ns3:hr>136</ns3:hr>
            <ns3:cad>68</ns3:cad>
          </ns3:TrackPointExtension>
        </extensions>
      </trkpt>
      <trkpt lat="45.2951765991747379302978515625" lon="-70.8778779767453670501708984375">
        <ele>922.79998779296875</ele>
        <time>2026-08-21T15:12:22.000Z</time>
        <extensions>
          <ns3:TrackPointExtension>
            <ns3:hr>136</ns3:hr>
            <ns3:cad>68</ns3:cad>
          </ns3:TrackPointExtension>
        </extensions>
      </trkpt>
      <trkpt lat="45.29516377486288547515869140625" lon="-70.877892561256885528564453125">
        <ele>922.5999755859375</ele>
        <time>2026-08-21T15:12:23.000Z</time>
        <extensions>
          <ns3:TrackPointExtension>
            <ns3:hr>136</ns3:hr>
            <ns3:cad>68</ns3:cad>
          </ns3:TrackPointExtension>
        </extensions>
      </trkpt>
      <trkpt lat="45.295147262513637542724609375" lon="-70.87790370918810367584228515625">
        <ele>922.4000244140625</ele>
        <time>2026-08-21T15:12:24.000Z</time>
        <extensions>
          <ns3:TrackPointExtension>
            <ns3:hr>136</ns3:hr>
            <ns3:cad>68</ns3:cad>
          </ns3:TrackPointExtension>
        </extensions>
      </trkpt>
      <trkpt lat="45.295131839811801910400390625" lon="-70.8779108338057994842529296875">
        <ele>922</ele>
        <time>2026-08-21T15:12:25.000Z</time>
        <extensions>
          <ns3:TrackPointExtension>
            <ns3:hr>136</ns3:hr>
            <ns3:cad>68</ns3:cad>
          </ns3:TrackPointExtension>
        </extensions>
      </trkpt>
      <trkpt lat="45.29511348344385623931884765625" lon="-70.877923071384429931640625">
        <ele>921.79998779296875</ele>
        <time>2026-08-21T15:12:26.000Z</time>
        <extensions>
          <ns3:TrackPointExtension>
            <ns3:hr>135</ns3:hr>
            <ns3:cad>65</ns3:cad>
          </ns3:TrackPointExtension>
        </extensions>
      </trkpt>
      <trkpt lat="45.29510200023651123046875" lon="-70.87793312966823577880859375">
        <ele>921.5999755859375</ele>
        <time>2026-08-21T15:12:27.000Z</time>
        <extensions>
          <ns3:TrackPointExtension>
            <ns3:hr>136</ns3:hr>
            <ns3:cad>65</ns3:cad>
          </ns3:TrackPointExtension>
        </extensions>
      </trkpt>
      <trkpt lat="45.2950840629637241363525390625" lon="-70.87795383296906948089599609375">
        <ele>921.20001220703125</ele>
        <time>2026-08-21T15:12:28.000Z</time>
        <extensions>
          <ns3:TrackPointExtension>
            <ns3:hr>136</ns3:hr>
            <ns3:cad>65</ns3:cad>
          </ns3:TrackPointExtension>
        </extensions>
      </trkpt>
      <trkpt lat="45.29507073573768138885498046875" lon="-70.8779695071280002593994140625">
        <ele>921</ele>
        <time>2026-08-21T15:12:29.000Z</time>
        <extensions>
          <ns3:TrackPointExtension>
            <ns3:hr>137</ns3:hr>
            <ns3:cad>65</ns3:cad>
          </ns3:TrackPointExtension>
        </extensions>
      </trkpt>
      <trkpt lat="45.2950572408735752105712890625" lon="-70.8779980055987834930419921875">
        <ele>920.5999755859375</ele>
        <time>2026-08-21T15:12:30.000Z</time>
        <extensions>
          <ns3:TrackPointExtension>
            <ns3:hr>137</ns3:hr>
            <ns3:cad>65</ns3:cad>
          </ns3:TrackPointExtension>
        </extensions>
      </trkpt>
      <trkpt lat="45.29504072852432727813720703125" lon="-70.87801904417574405670166015625">
        <ele>920.20001220703125</ele>
        <time>2026-08-21T15:12:31.000Z</time>
        <extensions>
          <ns3:TrackPointExtension>
            <ns3:hr>137</ns3:hr>
            <ns3:cad>65</ns3:cad>
          </ns3:TrackPointExtension>
        </extensions>
      </trkpt>
      <trkpt lat="45.29502312652766704559326171875" lon="-70.87804167531430721282958984375">
        <ele>919.79998779296875</ele>
        <time>2026-08-21T15:12:32.000Z</time>
        <extensions>
          <ns3:TrackPointExtension>
            <ns3:hr>137</ns3:hr>
            <ns3:cad>65</ns3:cad>
          </ns3:TrackPointExtension>
        </extensions>
      </trkpt>
      <trkpt lat="45.2950108051300048828125" lon="-70.87806195951998233795166015625">
        <ele>919.4000244140625</ele>
        <time>2026-08-21T15:12:33.000Z</time>
        <extensions>
          <ns3:TrackPointExtension>
            <ns3:hr>137</ns3:hr>
            <ns3:cad>65</ns3:cad>
          </ns3:TrackPointExtension>
        </extensions>
      </trkpt>
      <trkpt lat="45.2949925325810909271240234375" lon="-70.8780788071453571319580078125">
        <ele>919</ele>
        <time>2026-08-21T15:12:34.000Z</time>
        <extensions>
          <ns3:TrackPointExtension>
            <ns3:hr>138</ns3:hr>
            <ns3:cad>41</ns3:cad>
          </ns3:TrackPointExtension>
        </extensions>
      </trkpt>
      <trkpt lat="45.29498155228793621063232421875" lon="-70.8780915476381778717041015625">
        <ele>918.79998779296875</ele>
        <time>2026-08-21T15:12:35.000Z</time>
        <extensions>
          <ns3:TrackPointExtension>
            <ns3:hr>138</ns3:hr>
            <ns3:cad>41</ns3:cad>
          </ns3:TrackPointExtension>
        </extensions>
      </trkpt>
      <trkpt lat="45.29496856033802032470703125" lon="-70.87811660952866077423095703125">
        <ele>918.5999755859375</ele>
        <time>2026-08-21T15:12:36.000Z</time>
        <extensions>
          <ns3:TrackPointExtension>
            <ns3:hr>138</ns3:hr>
            <ns3:cad>41</ns3:cad>
          </ns3:TrackPointExtension>
        </extensions>
      </trkpt>
      <trkpt lat="45.2949579991400241851806640625" lon="-70.8781334571540355682373046875">
        <ele>918.20001220703125</ele>
        <time>2026-08-21T15:12:37.000Z</time>
        <extensions>
          <ns3:TrackPointExtension>
            <ns3:hr>137</ns3:hr>
            <ns3:cad>41</ns3:cad>
          </ns3:TrackPointExtension>
        </extensions>
      </trkpt>
      <trkpt lat="45.29494534246623516082763671875" lon="-70.87814770638942718505859375">
        <ele>918</ele>
        <time>2026-08-21T15:12:38.000Z</time>
        <extensions>
          <ns3:TrackPointExtension>
            <ns3:hr>138</ns3:hr>
            <ns3:cad>41</ns3:cad>
          </ns3:TrackPointExtension>
        </extensions>
      </trkpt>
      <trkpt lat="45.29493025504052639007568359375" lon="-70.878160782158374786376953125">
        <ele>917.5999755859375</ele>
        <time>2026-08-21T15:12:39.000Z</time>
        <extensions>
          <ns3:TrackPointExtension>
            <ns3:hr>138</ns3:hr>
            <ns3:cad>77</ns3:cad>
          </ns3:TrackPointExtension>
        </extensions>
      </trkpt>
      <trkpt lat="45.2949100546538829803466796875" lon="-70.87817461229860782623291015625">
        <ele>917.4000244140625</ele>
        <time>2026-08-21T15:12:40.000Z</time>
        <extensions>
          <ns3:TrackPointExtension>
            <ns3:hr>137</ns3:hr>
            <ns3:cad>77</ns3:cad>
          </ns3:TrackPointExtension>
        </extensions>
      </trkpt>
      <trkpt lat="45.29489186592400074005126953125" lon="-70.87818869389593601226806640625">
        <ele>917</ele>
        <time>2026-08-21T15:12:41.000Z</time>
        <extensions>
          <ns3:TrackPointExtension>
            <ns3:hr>138</ns3:hr>
            <ns3:cad>77</ns3:cad>
          </ns3:TrackPointExtension>
        </extensions>
      </trkpt>
      <trkpt lat="45.29487610794603824615478515625" lon="-70.87820160202682018280029296875">
        <ele>916.79998779296875</ele>
        <time>2026-08-21T15:12:42.000Z</time>
        <extensions>
          <ns3:TrackPointExtension>
            <ns3:hr>138</ns3:hr>
            <ns3:cad>77</ns3:cad>
          </ns3:TrackPointExtension>
        </extensions>
      </trkpt>
      <trkpt lat="45.29486219398677349090576171875" lon="-70.878213085234165191650390625">
        <ele>916.5999755859375</ele>
        <time>2026-08-21T15:12:43.000Z</time>
        <extensions>
          <ns3:TrackPointExtension>
            <ns3:hr>137</ns3:hr>
            <ns3:cad>77</ns3:cad>
          </ns3:TrackPointExtension>
        </extensions>
      </trkpt>
      <trkpt lat="45.294846184551715850830078125" lon="-70.8782266639173030853271484375">
        <ele>916.4000244140625</ele>
        <time>2026-08-21T15:12:44.000Z</time>
        <extensions>
          <ns3:TrackPointExtension>
            <ns3:hr>138</ns3:hr>
            <ns3:cad>77</ns3:cad>
          </ns3:TrackPointExtension>
        </extensions>
      </trkpt>
      <trkpt lat="45.2948326058685779571533203125" lon="-70.87824024260044097900390625">
        <ele>916.20001220703125</ele>
        <time>2026-08-21T15:12:45.000Z</time>
        <extensions>
          <ns3:TrackPointExtension>
            <ns3:hr>138</ns3:hr>
            <ns3:cad>77</ns3:cad>
          </ns3:TrackPointExtension>
        </extensions>
      </trkpt>
      <trkpt lat="45.29481911100447177886962890625" lon="-70.8782565034925937652587890625">
        <ele>916</ele>
        <time>2026-08-21T15:12:46.000Z</time>
        <extensions>
          <ns3:TrackPointExtension>
            <ns3:hr>138</ns3:hr>
            <ns3:cad>77</ns3:cad>
          </ns3:TrackPointExtension>
        </extensions>
      </trkpt>
      <trkpt lat="45.29480687342584133148193359375" lon="-70.87826731614768505096435546875">
        <ele>915.5999755859375</ele>
        <time>2026-08-21T15:12:47.000Z</time>
        <extensions>
          <ns3:TrackPointExtension>
            <ns3:hr>138</ns3:hr>
            <ns3:cad>77</ns3:cad>
          </ns3:TrackPointExtension>
        </extensions>
      </trkpt>
      <trkpt lat="45.29478960670530796051025390625" lon="-70.87828575633466243743896484375">
        <ele>915.4000244140625</ele>
        <time>2026-08-21T15:12:48.000Z</time>
        <extensions>
          <ns3:TrackPointExtension>
            <ns3:hr>138</ns3:hr>
            <ns3:cad>75</ns3:cad>
          </ns3:TrackPointExtension>
        </extensions>
      </trkpt>
      <trkpt lat="45.29477485455572605133056640625" lon="-70.87830335833132266998291015625">
        <ele>915</ele>
        <time>2026-08-21T15:12:49.000Z</time>
        <extensions>
          <ns3:TrackPointExtension>
            <ns3:hr>137</ns3:hr>
            <ns3:cad>75</ns3:cad>
          </ns3:TrackPointExtension>
        </extensions>
      </trkpt>
      <trkpt lat="45.29476328752934932708740234375" lon="-70.87832347489893436431884765625">
        <ele>914.79998779296875</ele>
        <time>2026-08-21T15:12:50.000Z</time>
        <extensions>
          <ns3:TrackPointExtension>
            <ns3:hr>138</ns3:hr>
            <ns3:cad>75</ns3:cad>
          </ns3:TrackPointExtension>
        </extensions>
      </trkpt>
      <trkpt lat="45.29474736191332340240478515625" lon="-70.878340490162372589111328125">
        <ele>914.5999755859375</ele>
        <time>2026-08-21T15:12:51.000Z</time>
        <extensions>
          <ns3:TrackPointExtension>
            <ns3:hr>138</ns3:hr>
            <ns3:cad>75</ns3:cad>
          </ns3:TrackPointExtension>
        </extensions>
      </trkpt>
      <trkpt lat="45.2947306819260120391845703125" lon="-70.87835666723549365997314453125">
        <ele>914.20001220703125</ele>
        <time>2026-08-21T15:12:52.000Z</time>
        <extensions>
          <ns3:TrackPointExtension>
            <ns3:hr>138</ns3:hr>
            <ns3:cad>75</ns3:cad>
          </ns3:TrackPointExtension>
        </extensions>
      </trkpt>
      <trkpt lat="45.29471400193870067596435546875" lon="-70.8783681504428386688232421875">
        <ele>914</ele>
        <time>2026-08-21T15:12:53.000Z</time>
        <extensions>
          <ns3:TrackPointExtension>
            <ns3:hr>138</ns3:hr>
            <ns3:cad>75</ns3:cad>
          </ns3:TrackPointExtension>
        </extensions>
      </trkpt>
      <trkpt lat="45.29469891451299190521240234375" lon="-70.8783815614879131317138671875">
        <ele>913.5999755859375</ele>
        <time>2026-08-21T15:12:54.000Z</time>
        <extensions>
          <ns3:TrackPointExtension>
            <ns3:hr>138</ns3:hr>
            <ns3:cad>75</ns3:cad>
          </ns3:TrackPointExtension>
        </extensions>
      </trkpt>
      <trkpt lat="45.294682569801807403564453125" lon="-70.8784010075032711029052734375">
        <ele>913.4000244140625</ele>
        <time>2026-08-21T15:12:55.000Z</time>
        <extensions>
          <ns3:TrackPointExtension>
            <ns3:hr>139</ns3:hr>
            <ns3:cad>75</ns3:cad>
          </ns3:TrackPointExtension>
        </extensions>
      </trkpt>
      <trkpt lat="45.294667147099971771240234375" lon="-70.878420285880565643310546875">
        <ele>913.20001220703125</ele>
        <time>2026-08-21T15:12:56.000Z</time>
        <extensions>
          <ns3:TrackPointExtension>
            <ns3:hr>139</ns3:hr>
            <ns3:cad>75</ns3:cad>
          </ns3:TrackPointExtension>
        </extensions>
      </trkpt>
      <trkpt lat="45.2946552447974681854248046875" lon="-70.8784429170191287994384765625">
        <ele>913</ele>
        <time>2026-08-21T15:12:57.000Z</time>
        <extensions>
          <ns3:TrackPointExtension>
            <ns3:hr>139</ns3:hr>
            <ns3:cad>75</ns3:cad>
          </ns3:TrackPointExtension>
        </extensions>
      </trkpt>
      <trkpt lat="45.29464133083820343017578125" lon="-70.8784568309783935546875">
        <ele>912.5999755859375</ele>
        <time>2026-08-21T15:12:58.000Z</time>
        <extensions>
          <ns3:TrackPointExtension>
            <ns3:hr>139</ns3:hr>
            <ns3:cad>76</ns3:cad>
          </ns3:TrackPointExtension>
        </extensions>
      </trkpt>
      <trkpt lat="45.29462657868862152099609375" lon="-70.87846864946186542510986328125">
        <ele>912.4000244140625</ele>
        <time>2026-08-21T15:12:59.000Z</time>
        <extensions>
          <ns3:TrackPointExtension>
            <ns3:hr>139</ns3:hr>
            <ns3:cad>76</ns3:cad>
          </ns3:TrackPointExtension>
        </extensions>
      </trkpt>
      <trkpt lat="45.294607467949390411376953125" lon="-70.87848423980176448822021484375">
        <ele>912</ele>
        <time>2026-08-21T15:13:00.000Z</time>
        <extensions>
          <ns3:TrackPointExtension>
            <ns3:hr>140</ns3:hr>
            <ns3:cad>73</ns3:cad>
          </ns3:TrackPointExtension>
        </extensions>
      </trkpt>
      <trkpt lat="45.29459145851433277130126953125" lon="-70.87849832139909267425537109375">
        <ele>911.79998779296875</ele>
        <time>2026-08-21T15:13:01.000Z</time>
        <extensions>
          <ns3:TrackPointExtension>
            <ns3:hr>140</ns3:hr>
            <ns3:cad>73</ns3:cad>
          </ns3:TrackPointExtension>
        </extensions>
      </trkpt>
      <trkpt lat="45.29457670636475086212158203125" lon="-70.87851491756737232208251953125">
        <ele>911.5999755859375</ele>
        <time>2026-08-21T15:13:02.000Z</time>
        <extensions>
          <ns3:TrackPointExtension>
            <ns3:hr>140</ns3:hr>
            <ns3:cad>72</ns3:cad>
          </ns3:TrackPointExtension>
        </extensions>
      </trkpt>
      <trkpt lat="45.29456430114805698394775390625" lon="-70.8785378001630306243896484375">
        <ele>911.20001220703125</ele>
        <time>2026-08-21T15:13:03.000Z</time>
        <extensions>
          <ns3:TrackPointExtension>
            <ns3:hr>139</ns3:hr>
            <ns3:cad>72</ns3:cad>
          </ns3:TrackPointExtension>
        </extensions>
      </trkpt>
      <trkpt lat="45.29455038718879222869873046875" lon="-70.8785520493984222412109375">
        <ele>911.20001220703125</ele>
        <time>2026-08-21T15:13:04.000Z</time>
        <extensions>
          <ns3:TrackPointExtension>
            <ns3:hr>138</ns3:hr>
            <ns3:cad>72</ns3:cad>
          </ns3:TrackPointExtension>
        </extensions>
      </trkpt>
      <trkpt lat="45.294537730515003204345703125" lon="-70.878568477928638458251953125">
        <ele>911</ele>
        <time>2026-08-21T15:13:05.000Z</time>
        <extensions>
          <ns3:TrackPointExtension>
            <ns3:hr>137</ns3:hr>
            <ns3:cad>72</ns3:cad>
          </ns3:TrackPointExtension>
        </extensions>
      </trkpt>
      <trkpt lat="45.29452339746057987213134765625" lon="-70.87857895530760288238525390625">
        <ele>910.79998779296875</ele>
        <time>2026-08-21T15:13:06.000Z</time>
        <extensions>
          <ns3:TrackPointExtension>
            <ns3:hr>138</ns3:hr>
            <ns3:cad>72</ns3:cad>
          </ns3:TrackPointExtension>
        </extensions>
      </trkpt>
      <trkpt lat="45.29451266862452030181884765625" lon="-70.87859940715134143829345703125">
        <ele>910.5999755859375</ele>
        <time>2026-08-21T15:13:07.000Z</time>
        <extensions>
          <ns3:TrackPointExtension>
            <ns3:hr>138</ns3:hr>
            <ns3:cad>72</ns3:cad>
          </ns3:TrackPointExtension>
        </extensions>
      </trkpt>
      <trkpt lat="45.29450110159814357757568359375" lon="-70.87861767970025539398193359375">
        <ele>910.4000244140625</ele>
        <time>2026-08-21T15:13:08.000Z</time>
        <extensions>
          <ns3:TrackPointExtension>
            <ns3:hr>138</ns3:hr>
            <ns3:cad>72</ns3:cad>
          </ns3:TrackPointExtension>
        </extensions>
      </trkpt>
      <trkpt lat="45.29448836110532283782958984375" lon="-70.878634862601757049560546875">
        <ele>910.20001220703125</ele>
        <time>2026-08-21T15:13:09.000Z</time>
        <extensions>
          <ns3:TrackPointExtension>
            <ns3:hr>138</ns3:hr>
            <ns3:cad>72</ns3:cad>
          </ns3:TrackPointExtension>
        </extensions>
      </trkpt>
      <trkpt lat="45.29447327367961406707763671875" lon="-70.87865321896970272064208984375">
        <ele>910</ele>
        <time>2026-08-21T15:13:10.000Z</time>
        <extensions>
          <ns3:TrackPointExtension>
            <ns3:hr>138</ns3:hr>
            <ns3:cad>72</ns3:cad>
          </ns3:TrackPointExtension>
        </extensions>
      </trkpt>
      <trkpt lat="45.29445818625390529632568359375" lon="-70.8786705695092678070068359375">
        <ele>910</ele>
        <time>2026-08-21T15:13:11.000Z</time>
        <extensions>
          <ns3:TrackPointExtension>
            <ns3:hr>137</ns3:hr>
            <ns3:cad>72</ns3:cad>
          </ns3:TrackPointExtension>
        </extensions>
      </trkpt>
      <trkpt lat="45.29444477520883083343505859375" lon="-70.8786903508007526397705078125">
        <ele>909.79998779296875</ele>
        <time>2026-08-21T15:13:12.000Z</time>
        <extensions>
          <ns3:TrackPointExtension>
            <ns3:hr>137</ns3:hr>
            <ns3:cad>72</ns3:cad>
          </ns3:TrackPointExtension>
        </extensions>
      </trkpt>
      <trkpt lat="45.2944296039640903472900390625" lon="-70.878712646663188934326171875">
        <ele>909.5999755859375</ele>
        <time>2026-08-21T15:13:13.000Z</time>
        <extensions>
          <ns3:TrackPointExtension>
            <ns3:hr>137</ns3:hr>
            <ns3:cad>72</ns3:cad>
          </ns3:TrackPointExtension>
        </extensions>
      </trkpt>
      <trkpt lat="45.29441812075674533843994140625" lon="-70.87873133830726146697998046875">
        <ele>909.5999755859375</ele>
        <time>2026-08-21T15:13:14.000Z</time>
        <extensions>
          <ns3:TrackPointExtension>
            <ns3:hr>137</ns3:hr>
            <ns3:cad>72</ns3:cad>
          </ns3:TrackPointExtension>
        </extensions>
      </trkpt>
      <trkpt lat="45.29440605081617832183837890625" lon="-70.878756232559680938720703125">
        <ele>909.4000244140625</ele>
        <time>2026-08-21T15:13:15.000Z</time>
        <extensions>
          <ns3:TrackPointExtension>
            <ns3:hr>138</ns3:hr>
            <ns3:cad>71</ns3:cad>
          </ns3:TrackPointExtension>
        </extensions>
      </trkpt>
      <trkpt lat="45.29439716599881649017333984375" lon="-70.87878095917403697967529296875">
        <ele>909</ele>
        <time>2026-08-21T15:13:16.000Z</time>
        <extensions>
          <ns3:TrackPointExtension>
            <ns3:hr>138</ns3:hr>
            <ns3:cad>71</ns3:cad>
          </ns3:TrackPointExtension>
        </extensions>
      </trkpt>
      <trkpt lat="45.294390879571437835693359375" lon="-70.87880811654031276702880859375">
        <ele>908.79998779296875</ele>
        <time>2026-08-21T15:13:17.000Z</time>
        <extensions>
          <ns3:TrackPointExtension>
            <ns3:hr>138</ns3:hr>
            <ns3:cad>71</ns3:cad>
          </ns3:TrackPointExtension>
        </extensions>
      </trkpt>
      <trkpt lat="45.2943846769630908966064453125" lon="-70.8788291551172733306884765625">
        <ele>908.5999755859375</ele>
        <time>2026-08-21T15:13:18.000Z</time>
        <extensions>
          <ns3:TrackPointExtension>
            <ns3:hr>138</ns3:hr>
            <ns3:cad>71</ns3:cad>
          </ns3:TrackPointExtension>
        </extensions>
      </trkpt>
      <trkpt lat="45.2943764626979827880859375" lon="-70.87884642183780670166015625">
        <ele>908.20001220703125</ele>
        <time>2026-08-21T15:13:19.000Z</time>
        <extensions>
          <ns3:TrackPointExtension>
            <ns3:hr>138</ns3:hr>
            <ns3:cad>71</ns3:cad>
          </ns3:TrackPointExtension>
        </extensions>
      </trkpt>
      <trkpt lat="45.29436933808028697967529296875" lon="-70.8788670413196086883544921875">
        <ele>908</ele>
        <time>2026-08-21T15:13:20.000Z</time>
        <extensions>
          <ns3:TrackPointExtension>
            <ns3:hr>138</ns3:hr>
            <ns3:cad>71</ns3:cad>
          </ns3:TrackPointExtension>
        </extensions>
      </trkpt>
      <trkpt lat="45.2943595312535762786865234375" lon="-70.87888891808688640594482421875">
        <ele>907.5999755859375</ele>
        <time>2026-08-21T15:13:21.000Z</time>
        <extensions>
          <ns3:TrackPointExtension>
            <ns3:hr>138</ns3:hr>
            <ns3:cad>71</ns3:cad>
          </ns3:TrackPointExtension>
        </extensions>
      </trkpt>
      <trkpt lat="45.29434972442686557769775390625" lon="-70.8789096213877201080322265625">
        <ele>907.20001220703125</ele>
        <time>2026-08-21T15:13:22.000Z</time>
        <extensions>
          <ns3:TrackPointExtension>
            <ns3:hr>138</ns3:hr>
            <ns3:cad>71</ns3:cad>
          </ns3:TrackPointExtension>
        </extensions>
      </trkpt>
      <trkpt lat="45.29434117488563060760498046875" lon="-70.87892931886017322540283203125">
        <ele>907</ele>
        <time>2026-08-21T15:13:23.000Z</time>
        <extensions>
          <ns3:TrackPointExtension>
            <ns3:hr>138</ns3:hr>
            <ns3:cad>71</ns3:cad>
          </ns3:TrackPointExtension>
        </extensions>
      </trkpt>
      <trkpt lat="45.29433153569698333740234375" lon="-70.87895463220775127410888671875">
        <ele>906.5999755859375</ele>
        <time>2026-08-21T15:13:24.000Z</time>
        <extensions>
          <ns3:TrackPointExtension>
            <ns3:hr>138</ns3:hr>
            <ns3:cad>76</ns3:cad>
          </ns3:TrackPointExtension>
        </extensions>
      </trkpt>
      <trkpt lat="45.2943243272602558135986328125" lon="-70.8789718151092529296875">
        <ele>906.20001220703125</ele>
        <time>2026-08-21T15:13:25.000Z</time>
        <extensions>
          <ns3:TrackPointExtension>
            <ns3:hr>138</ns3:hr>
            <ns3:cad>76</ns3:cad>
          </ns3:TrackPointExtension>
        </extensions>
      </trkpt>
      <trkpt lat="45.294317789375782012939453125" lon="-70.87898413650691509246826171875">
        <ele>905.79998779296875</ele>
        <time>2026-08-21T15:13:26.000Z</time>
        <extensions>
          <ns3:TrackPointExtension>
            <ns3:hr>137</ns3:hr>
            <ns3:cad>77</ns3:cad>
          </ns3:TrackPointExtension>
        </extensions>
      </trkpt>
      <trkpt lat="45.29431100003421306610107421875" lon="-70.87899620644748210906982421875">
        <ele>905.4000244140625</ele>
        <time>2026-08-21T15:13:27.000Z</time>
        <extensions>
          <ns3:TrackPointExtension>
            <ns3:hr>136</ns3:hr>
            <ns3:cad>79</ns3:cad>
          </ns3:TrackPointExtension>
        </extensions>
      </trkpt>
      <trkpt lat="45.2943025343120098114013671875" lon="-70.87900609709322452545166015625">
        <ele>905</ele>
        <time>2026-08-21T15:13:28.000Z</time>
        <extensions>
          <ns3:TrackPointExtension>
            <ns3:hr>135</ns3:hr>
            <ns3:cad>79</ns3:cad>
          </ns3:TrackPointExtension>
        </extensions>
      </trkpt>
      <trkpt lat="45.29429398477077484130859375" lon="-70.8790185861289501190185546875">
        <ele>904.5999755859375</ele>
        <time>2026-08-21T15:13:29.000Z</time>
        <extensions>
          <ns3:TrackPointExtension>
            <ns3:hr>135</ns3:hr>
            <ns3:cad>78</ns3:cad>
          </ns3:TrackPointExtension>
        </extensions>
      </trkpt>
      <trkpt lat="45.29427596367895603179931640625" lon="-70.8790423907339572906494140625">
        <ele>904.4000244140625</ele>
        <time>2026-08-21T15:13:30.000Z</time>
        <extensions>
          <ns3:TrackPointExtension>
            <ns3:hr>134</ns3:hr>
            <ns3:cad>78</ns3:cad>
          </ns3:TrackPointExtension>
        </extensions>
      </trkpt>
      <trkpt lat="45.29426624067127704620361328125" lon="-70.87905605323612689971923828125">
        <ele>904</ele>
        <time>2026-08-21T15:13:31.000Z</time>
        <extensions>
          <ns3:TrackPointExtension>
            <ns3:hr>134</ns3:hr>
            <ns3:cad>78</ns3:cad>
          </ns3:TrackPointExtension>
        </extensions>
      </trkpt>
      <trkpt lat="45.2942545898258686065673828125" lon="-70.879070721566677093505859375">
        <ele>903.5999755859375</ele>
        <time>2026-08-21T15:13:32.000Z</time>
        <extensions>
          <ns3:TrackPointExtension>
            <ns3:hr>133</ns3:hr>
            <ns3:cad>78</ns3:cad>
          </ns3:TrackPointExtension>
        </extensions>
      </trkpt>
      <trkpt lat="45.2942428551614284515380859375" lon="-70.87908488698303699493408203125">
        <ele>903.20001220703125</ele>
        <time>2026-08-21T15:13:33.000Z</time>
        <extensions>
          <ns3:TrackPointExtension>
            <ns3:hr>133</ns3:hr>
            <ns3:cad>78</ns3:cad>
          </ns3:TrackPointExtension>
        </extensions>
      </trkpt>
      <trkpt lat="45.2942307852208614349365234375" lon="-70.87910349480807781219482421875">
        <ele>903</ele>
        <time>2026-08-21T15:13:34.000Z</time>
        <extensions>
          <ns3:TrackPointExtension>
            <ns3:hr>133</ns3:hr>
            <ns3:cad>78</ns3:cad>
          </ns3:TrackPointExtension>
        </extensions>
      </trkpt>
      <trkpt lat="45.29421946965157985687255859375" lon="-70.8791228570044040679931640625">
        <ele>902.5999755859375</ele>
        <time>2026-08-21T15:13:35.000Z</time>
        <extensions>
          <ns3:TrackPointExtension>
            <ns3:hr>133</ns3:hr>
            <ns3:cad>78</ns3:cad>
          </ns3:TrackPointExtension>
        </extensions>
      </trkpt>
      <trkpt lat="45.29420555569231510162353515625" lon="-70.87913878262042999267578125">
        <ele>902.4000244140625</ele>
        <time>2026-08-21T15:13:36.000Z</time>
        <extensions>
          <ns3:TrackPointExtension>
            <ns3:hr>134</ns3:hr>
            <ns3:cad>78</ns3:cad>
          </ns3:TrackPointExtension>
        </extensions>
      </trkpt>
      <trkpt lat="45.2941954135894775390625" lon="-70.8791567198932170867919921875">
        <ele>902</ele>
        <time>2026-08-21T15:13:37.000Z</time>
        <extensions>
          <ns3:TrackPointExtension>
            <ns3:hr>135</ns3:hr>
            <ns3:cad>76</ns3:cad>
          </ns3:TrackPointExtension>
        </extensions>
      </trkpt>
      <trkpt lat="45.2941855229437351226806640625" lon="-70.8791694603860378265380859375">
        <ele>901.5999755859375</ele>
        <time>2026-08-21T15:13:38.000Z</time>
        <extensions>
          <ns3:TrackPointExtension>
            <ns3:hr>135</ns3:hr>
            <ns3:cad>76</ns3:cad>
          </ns3:TrackPointExtension>
        </extensions>
      </trkpt>
      <trkpt lat="45.294174291193485260009765625" lon="-70.87918438017368316650390625">
        <ele>901.4000244140625</ele>
        <time>2026-08-21T15:13:39.000Z</time>
        <extensions>
          <ns3:TrackPointExtension>
            <ns3:hr>136</ns3:hr>
            <ns3:cad>72</ns3:cad>
          </ns3:TrackPointExtension>
        </extensions>
      </trkpt>
      <trkpt lat="45.29416599310934543609619140625" lon="-70.8791949413716793060302734375">
        <ele>901.20001220703125</ele>
        <time>2026-08-21T15:13:40.000Z</time>
        <extensions>
          <ns3:TrackPointExtension>
            <ns3:hr>136</ns3:hr>
            <ns3:cad>72</ns3:cad>
          </ns3:TrackPointExtension>
        </extensions>
      </trkpt>
      <trkpt lat="45.29415694065392017364501953125" lon="-70.87920743040740489959716796875">
        <ele>900.79998779296875</ele>
        <time>2026-08-21T15:13:41.000Z</time>
        <extensions>
          <ns3:TrackPointExtension>
            <ns3:hr>136</ns3:hr>
            <ns3:cad>72</ns3:cad>
          </ns3:TrackPointExtension>
        </extensions>
      </trkpt>
      <trkpt lat="45.2941484749317169189453125" lon="-70.8792174048721790313720703125">
        <ele>900.4000244140625</ele>
        <time>2026-08-21T15:13:42.000Z</time>
        <extensions>
          <ns3:TrackPointExtension>
            <ns3:hr>136</ns3:hr>
            <ns3:cad>72</ns3:cad>
          </ns3:TrackPointExtension>
        </extensions>
      </trkpt>
      <trkpt lat="45.29413841664791107177734375" lon="-70.8792267926037311553955078125">
        <ele>900.20001220703125</ele>
        <time>2026-08-21T15:13:43.000Z</time>
        <extensions>
          <ns3:TrackPointExtension>
            <ns3:hr>136</ns3:hr>
            <ns3:cad>71</ns3:cad>
          </ns3:TrackPointExtension>
        </extensions>
      </trkpt>
      <trkpt lat="45.29412860982120037078857421875" lon="-70.8792422153055667877197265625">
        <ele>899.79998779296875</ele>
        <time>2026-08-21T15:13:44.000Z</time>
        <extensions>
          <ns3:TrackPointExtension>
            <ns3:hr>137</ns3:hr>
            <ns3:cad>71</ns3:cad>
          </ns3:TrackPointExtension>
        </extensions>
      </trkpt>
      <trkpt lat="45.29412223957479000091552734375" lon="-70.879267193377017974853515625">
        <ele>899.4000244140625</ele>
        <time>2026-08-21T15:13:45.000Z</time>
        <extensions>
          <ns3:TrackPointExtension>
            <ns3:hr>136</ns3:hr>
            <ns3:cad>71</ns3:cad>
          </ns3:TrackPointExtension>
        </extensions>
      </trkpt>
      <trkpt lat="45.29411301948130130767822265625" lon="-70.87927917949855327606201171875">
        <ele>899.20001220703125</ele>
        <time>2026-08-21T15:13:46.000Z</time>
        <extensions>
          <ns3:TrackPointExtension>
            <ns3:hr>136</ns3:hr>
            <ns3:cad>71</ns3:cad>
          </ns3:TrackPointExtension>
        </extensions>
      </trkpt>
      <trkpt lat="45.2940970100462436676025390625" lon="-70.87929694913327693939208984375">
        <ele>898.79998779296875</ele>
        <time>2026-08-21T15:13:47.000Z</time>
        <extensions>
          <ns3:TrackPointExtension>
            <ns3:hr>135</ns3:hr>
            <ns3:cad>71</ns3:cad>
          </ns3:TrackPointExtension>
        </extensions>
      </trkpt>
      <trkpt lat="45.2940886281430721282958984375" lon="-70.879312790930271148681640625">
        <ele>898.4000244140625</ele>
        <time>2026-08-21T15:13:48.000Z</time>
        <extensions>
          <ns3:TrackPointExtension>
            <ns3:hr>135</ns3:hr>
            <ns3:cad>0</ns3:cad>
          </ns3:TrackPointExtension>
        </extensions>
      </trkpt>
      <trkpt lat="45.29408074915409088134765625" lon="-70.87933123111724853515625">
        <ele>898.20001220703125</ele>
        <time>2026-08-21T15:13:49.000Z</time>
        <extensions>
          <ns3:TrackPointExtension>
            <ns3:hr>134</ns3:hr>
            <ns3:cad>0</ns3:cad>
          </ns3:TrackPointExtension>
        </extensions>
      </trkpt>
      <trkpt lat="45.29407228343188762664794921875" lon="-70.8793612383306026458740234375">
        <ele>897.79998779296875</ele>
        <time>2026-08-21T15:13:50.000Z</time>
        <extensions>
          <ns3:TrackPointExtension>
            <ns3:hr>134</ns3:hr>
            <ns3:cad>0</ns3:cad>
          </ns3:TrackPointExtension>
        </extensions>
      </trkpt>
      <trkpt lat="45.2940611355006694793701171875" lon="-70.87938127107918262481689453125">
        <ele>897.4000244140625</ele>
        <time>2026-08-21T15:13:51.000Z</time>
        <extensions>
          <ns3:TrackPointExtension>
            <ns3:hr>134</ns3:hr>
            <ns3:cad>0</ns3:cad>
          </ns3:TrackPointExtension>
        </extensions>
      </trkpt>
      <trkpt lat="45.29405250214040279388427734375" lon="-70.87939719669520854949951171875">
        <ele>897</ele>
        <time>2026-08-21T15:13:52.000Z</time>
        <extensions>
          <ns3:TrackPointExtension>
            <ns3:hr>134</ns3:hr>
            <ns3:cad>0</ns3:cad>
          </ns3:TrackPointExtension>
        </extensions>
      </trkpt>
      <trkpt lat="45.29404361732304096221923828125" lon="-70.87941907346248626708984375">
        <ele>896.5999755859375</ele>
        <time>2026-08-21T15:13:53.000Z</time>
        <extensions>
          <ns3:TrackPointExtension>
            <ns3:hr>133</ns3:hr>
            <ns3:cad>0</ns3:cad>
          </ns3:TrackPointExtension>
        </extensions>
      </trkpt>
      <trkpt lat="45.29403288848698139190673828125" lon="-70.87943960912525653839111328125">
        <ele>896.20001220703125</ele>
        <time>2026-08-21T15:13:54.000Z</time>
        <extensions>
          <ns3:TrackPointExtension>
            <ns3:hr>133</ns3:hr>
            <ns3:cad>0</ns3:cad>
          </ns3:TrackPointExtension>
        </extensions>
      </trkpt>
      <trkpt lat="45.29402450658380985260009765625" lon="-70.87946056388318538665771484375">
        <ele>895.79998779296875</ele>
        <time>2026-08-21T15:13:55.000Z</time>
        <extensions>
          <ns3:TrackPointExtension>
            <ns3:hr>134</ns3:hr>
            <ns3:cad>0</ns3:cad>
          </ns3:TrackPointExtension>
        </extensions>
      </trkpt>
      <trkpt lat="45.29401838779449462890625" lon="-70.87948118336498737335205078125">
        <ele>895.4000244140625</ele>
        <time>2026-08-21T15:13:56.000Z</time>
        <extensions>
          <ns3:TrackPointExtension>
            <ns3:hr>134</ns3:hr>
            <ns3:cad>0</ns3:cad>
          </ns3:TrackPointExtension>
        </extensions>
      </trkpt>
      <trkpt lat="45.29401109553873538970947265625" lon="-70.87950146757066249847412109375">
        <ele>895</ele>
        <time>2026-08-21T15:13:57.000Z</time>
        <extensions>
          <ns3:TrackPointExtension>
            <ns3:hr>134</ns3:hr>
            <ns3:cad>0</ns3:cad>
          </ns3:TrackPointExtension>
        </extensions>
      </trkpt>
      <trkpt lat="45.29400296509265899658203125" lon="-70.8795151300728321075439453125">
        <ele>894.5999755859375</ele>
        <time>2026-08-21T15:13:58.000Z</time>
        <extensions>
          <ns3:TrackPointExtension>
            <ns3:hr>134</ns3:hr>
            <ns3:cad>76</ns3:cad>
          </ns3:TrackPointExtension>
        </extensions>
      </trkpt>
      <trkpt lat="45.2939957566559314727783203125" lon="-70.87952627800405025482177734375">
        <ele>894.20001220703125</ele>
        <time>2026-08-21T15:13:59.000Z</time>
        <extensions>
          <ns3:TrackPointExtension>
            <ns3:hr>134</ns3:hr>
            <ns3:cad>76</ns3:cad>
          </ns3:TrackPointExtension>
        </extensions>
      </trkpt>
      <trkpt lat="45.29399894177913665771484375" lon="-70.87954916059970855712890625">
        <ele>893.79998779296875</ele>
        <time>2026-08-21T15:14:00.000Z</time>
        <extensions>
          <ns3:TrackPointExtension>
            <ns3:hr>134</ns3:hr>
            <ns3:cad>76</ns3:cad>
          </ns3:TrackPointExtension>
        </extensions>
      </trkpt>
      <trkpt lat="45.29399894177913665771484375" lon="-70.8795634098351001739501953125">
        <ele>893.5999755859375</ele>
        <time>2026-08-21T15:14:01.000Z</time>
        <extensions>
          <ns3:TrackPointExtension>
            <ns3:hr>134</ns3:hr>
            <ns3:cad>77</ns3:cad>
          </ns3:TrackPointExtension>
        </extensions>
      </trkpt>
      <trkpt lat="45.29399533756077289581298828125" lon="-70.87957791052758693695068359375">
        <ele>893.4000244140625</ele>
        <time>2026-08-21T15:14:02.000Z</time>
        <extensions>
          <ns3:TrackPointExtension>
            <ns3:hr>134</ns3:hr>
            <ns3:cad>77</ns3:cad>
          </ns3:TrackPointExtension>
        </extensions>
      </trkpt>
      <trkpt lat="45.293990559875965118408203125" lon="-70.87960012257099151611328125">
        <ele>893.20001220703125</ele>
        <time>2026-08-21T15:14:03.000Z</time>
        <extensions>
          <ns3:TrackPointExtension>
            <ns3:hr>133</ns3:hr>
            <ns3:cad>77</ns3:cad>
          </ns3:TrackPointExtension>
        </extensions>
      </trkpt>
      <trkpt lat="45.293983854353427886962890625" lon="-70.8796142041683197021484375">
        <ele>893</ele>
        <time>2026-08-21T15:14:04.000Z</time>
        <extensions>
          <ns3:TrackPointExtension>
            <ns3:hr>133</ns3:hr>
            <ns3:cad>77</ns3:cad>
          </ns3:TrackPointExtension>
        </extensions>
      </trkpt>
      <trkpt lat="45.29397639445960521697998046875" lon="-70.8796294592320919036865234375">
        <ele>892.79998779296875</ele>
        <time>2026-08-21T15:14:05.000Z</time>
        <extensions>
          <ns3:TrackPointExtension>
            <ns3:hr>132</ns3:hr>
            <ns3:cad>0</ns3:cad>
          </ns3:TrackPointExtension>
        </extensions>
      </trkpt>
      <trkpt lat="45.29397119767963886260986328125" lon="-70.87964111007750034332275390625">
        <ele>892.4000244140625</ele>
        <time>2026-08-21T15:14:06.000Z</time>
        <extensions>
          <ns3:TrackPointExtension>
            <ns3:hr>132</ns3:hr>
            <ns3:cad>0</ns3:cad>
          </ns3:TrackPointExtension>
        </extensions>
      </trkpt>
      <trkpt lat="45.29396683908998966217041015625" lon="-70.8796549402177333831787109375">
        <ele>892.20001220703125</ele>
        <time>2026-08-21T15:14:07.000Z</time>
        <extensions>
          <ns3:TrackPointExtension>
            <ns3:hr>132</ns3:hr>
            <ns3:cad>0</ns3:cad>
          </ns3:TrackPointExtension>
        </extensions>
      </trkpt>
      <trkpt lat="45.2939602173864841461181640625" lon="-70.87967061437666416168212890625">
        <ele>891.79998779296875</ele>
        <time>2026-08-21T15:14:08.000Z</time>
        <extensions>
          <ns3:TrackPointExtension>
            <ns3:hr>131</ns3:hr>
            <ns3:cad>50</ns3:cad>
          </ns3:TrackPointExtension>
        </extensions>
      </trkpt>
      <trkpt lat="45.29396046884357929229736328125" lon="-70.8796877972781658172607421875">
        <ele>891.4000244140625</ele>
        <time>2026-08-21T15:14:09.000Z</time>
        <extensions>
          <ns3:TrackPointExtension>
            <ns3:hr>131</ns3:hr>
            <ns3:cad>50</ns3:cad>
          </ns3:TrackPointExtension>
        </extensions>
      </trkpt>
      <trkpt lat="45.29395795427262783050537109375" lon="-70.87970850057899951934814453125">
        <ele>891.20001220703125</ele>
        <time>2026-08-21T15:14:10.000Z</time>
        <extensions>
          <ns3:TrackPointExtension>
            <ns3:hr>131</ns3:hr>
            <ns3:cad>50</ns3:cad>
          </ns3:TrackPointExtension>
        </extensions>
      </trkpt>
      <trkpt lat="45.2939521707594394683837890625" lon="-70.8797263540327548980712890625">
        <ele>890.79998779296875</ele>
        <time>2026-08-21T15:14:11.000Z</time>
        <extensions>
          <ns3:TrackPointExtension>
            <ns3:hr>131</ns3:hr>
            <ns3:cad>50</ns3:cad>
          </ns3:TrackPointExtension>
        </extensions>
      </trkpt>
      <trkpt lat="45.2939491532742977142333984375" lon="-70.87974353693425655364990234375">
        <ele>890.4000244140625</ele>
        <time>2026-08-21T15:14:12.000Z</time>
        <extensions>
          <ns3:TrackPointExtension>
            <ns3:hr>130</ns3:hr>
            <ns3:cad>50</ns3:cad>
          </ns3:TrackPointExtension>
        </extensions>
      </trkpt>
      <trkpt lat="45.2939421124756336212158203125" lon="-70.87976616807281970977783203125">
        <ele>890</ele>
        <time>2026-08-21T15:14:13.000Z</time>
        <extensions>
          <ns3:TrackPointExtension>
            <ns3:hr>130</ns3:hr>
            <ns3:cad>0</ns3:cad>
          </ns3:TrackPointExtension>
        </extensions>
      </trkpt>
      <trkpt lat="45.29393255710601806640625" lon="-70.879777483642101287841796875">
        <ele>889.5999755859375</ele>
        <time>2026-08-21T15:14:14.000Z</time>
        <extensions>
          <ns3:TrackPointExtension>
            <ns3:hr>129</ns3:hr>
            <ns3:cad>0</ns3:cad>
          </ns3:TrackPointExtension>
        </extensions>
      </trkpt>
      <trkpt lat="45.293926186859607696533203125" lon="-70.87979634292423725128173828125">
        <ele>889.20001220703125</ele>
        <time>2026-08-21T15:14:15.000Z</time>
        <extensions>
          <ns3:TrackPointExtension>
            <ns3:hr>129</ns3:hr>
            <ns3:cad>0</ns3:cad>
          </ns3:TrackPointExtension>
        </extensions>
      </trkpt>
      <trkpt lat="45.29392090626060962677001953125" lon="-70.87981176562607288360595703125">
        <ele>888.79998779296875</ele>
        <time>2026-08-21T15:14:16.000Z</time>
        <extensions>
          <ns3:TrackPointExtension>
            <ns3:hr>129</ns3:hr>
            <ns3:cad>0</ns3:cad>
          </ns3:TrackPointExtension>
        </extensions>
      </trkpt>
      <trkpt lat="45.2939146198332309722900390625" lon="-70.8798266015946865081787109375">
        <ele>888.5999755859375</ele>
        <time>2026-08-21T15:14:17.000Z</time>
        <extensions>
          <ns3:TrackPointExtension>
            <ns3:hr>128</ns3:hr>
            <ns3:cad>69</ns3:cad>
          </ns3:TrackPointExtension>
        </extensions>
      </trkpt>
      <trkpt lat="45.2939038909971714019775390625" lon="-70.87984378449618816375732421875">
        <ele>888.20001220703125</ele>
        <time>2026-08-21T15:14:18.000Z</time>
        <extensions>
          <ns3:TrackPointExtension>
            <ns3:hr>128</ns3:hr>
            <ns3:cad>69</ns3:cad>
          </ns3:TrackPointExtension>
        </extensions>
      </trkpt>
      <trkpt lat="45.29388469643890857696533203125" lon="-70.879861973226070404052734375">
        <ele>887.79998779296875</ele>
        <time>2026-08-21T15:14:19.000Z</time>
        <extensions>
          <ns3:TrackPointExtension>
            <ns3:hr>129</ns3:hr>
            <ns3:cad>69</ns3:cad>
          </ns3:TrackPointExtension>
        </extensions>
      </trkpt>
      <trkpt lat="45.29387396760284900665283203125" lon="-70.879884101450443267822265625">
        <ele>887.5999755859375</ele>
        <time>2026-08-21T15:14:20.000Z</time>
        <extensions>
          <ns3:TrackPointExtension>
            <ns3:hr>129</ns3:hr>
            <ns3:cad>69</ns3:cad>
          </ns3:TrackPointExtension>
        </extensions>
      </trkpt>
      <trkpt lat="45.29386340640485286712646484375" lon="-70.87989876978099346160888671875">
        <ele>887.4000244140625</ele>
        <time>2026-08-21T15:14:21.000Z</time>
        <extensions>
          <ns3:TrackPointExtension>
            <ns3:hr>129</ns3:hr>
            <ns3:cad>69</ns3:cad>
          </ns3:TrackPointExtension>
        </extensions>
      </trkpt>
      <trkpt lat="45.29385385103523731231689453125" lon="-70.879910252988338470458984375">
        <ele>887</ele>
        <time>2026-08-21T15:14:22.000Z</time>
        <extensions>
          <ns3:TrackPointExtension>
            <ns3:hr>129</ns3:hr>
            <ns3:cad>68</ns3:cad>
          </ns3:TrackPointExtension>
        </extensions>
      </trkpt>
      <trkpt lat="45.293843038380146026611328125" lon="-70.879920311272144317626953125">
        <ele>886.5999755859375</ele>
        <time>2026-08-21T15:14:23.000Z</time>
        <extensions>
          <ns3:TrackPointExtension>
            <ns3:hr>128</ns3:hr>
            <ns3:cad>68</ns3:cad>
          </ns3:TrackPointExtension>
        </extensions>
      </trkpt>
      <trkpt lat="45.2938334830105304718017578125" lon="-70.879939757287502288818359375">
        <ele>886.4000244140625</ele>
        <time>2026-08-21T15:14:24.000Z</time>
        <extensions>
          <ns3:TrackPointExtension>
            <ns3:hr>128</ns3:hr>
            <ns3:cad>68</ns3:cad>
          </ns3:TrackPointExtension>
        </extensions>
      </trkpt>
      <trkpt lat="45.2938247658312320709228515625" lon="-70.87995224632322788238525390625">
        <ele>885.79998779296875</ele>
        <time>2026-08-21T15:14:25.000Z</time>
        <extensions>
          <ns3:TrackPointExtension>
            <ns3:hr>128</ns3:hr>
            <ns3:cad>68</ns3:cad>
          </ns3:TrackPointExtension>
        </extensions>
      </trkpt>
      <trkpt lat="45.293818898499011993408203125" lon="-70.87995962239801883697509765625">
        <ele>885.5999755859375</ele>
        <time>2026-08-21T15:14:26.000Z</time>
        <extensions>
          <ns3:TrackPointExtension>
            <ns3:hr>129</ns3:hr>
            <ns3:cad>0</ns3:cad>
          </ns3:TrackPointExtension>
        </extensions>
      </trkpt>
      <trkpt lat="45.29380691237747669219970703125" lon="-70.87997035123407840728759765625">
        <ele>885.20001220703125</ele>
        <time>2026-08-21T15:14:27.000Z</time>
        <extensions>
          <ns3:TrackPointExtension>
            <ns3:hr>128</ns3:hr>
            <ns3:cad>0</ns3:cad>
          </ns3:TrackPointExtension>
        </extensions>
      </trkpt>
      <trkpt lat="45.29379836283624172210693359375" lon="-70.87998258881270885467529296875">
        <ele>884.79998779296875</ele>
        <time>2026-08-21T15:14:28.000Z</time>
        <extensions>
          <ns3:TrackPointExtension>
            <ns3:hr>129</ns3:hr>
            <ns3:cad>0</ns3:cad>
          </ns3:TrackPointExtension>
        </extensions>
      </trkpt>
      <trkpt lat="45.29379333369433879852294921875" lon="-70.88000019080936908721923828125">
        <ele>884.4000244140625</ele>
        <time>2026-08-21T15:14:29.000Z</time>
        <extensions>
          <ns3:TrackPointExtension>
            <ns3:hr>131</ns3:hr>
            <ns3:cad>0</ns3:cad>
          </ns3:TrackPointExtension>
        </extensions>
      </trkpt>
      <trkpt lat="45.2937915734946727752685546875" lon="-70.880014188587665557861328125">
        <ele>884</ele>
        <time>2026-08-21T15:14:30.000Z</time>
        <extensions>
          <ns3:TrackPointExtension>
            <ns3:hr>132</ns3:hr>
            <ns3:cad>0</ns3:cad>
          </ns3:TrackPointExtension>
        </extensions>
      </trkpt>
      <trkpt lat="45.2937836945056915283203125" lon="-70.88002986274659633636474609375">
        <ele>883.79998779296875</ele>
        <time>2026-08-21T15:14:31.000Z</time>
        <extensions>
          <ns3:TrackPointExtension>
            <ns3:hr>132</ns3:hr>
            <ns3:cad>0</ns3:cad>
          </ns3:TrackPointExtension>
        </extensions>
      </trkpt>
      <trkpt lat="45.2937744744122028350830078125" lon="-70.88004813529551029205322265625">
        <ele>883.4000244140625</ele>
        <time>2026-08-21T15:14:32.000Z</time>
        <extensions>
          <ns3:TrackPointExtension>
            <ns3:hr>131</ns3:hr>
            <ns3:cad>0</ns3:cad>
          </ns3:TrackPointExtension>
        </extensions>
      </trkpt>
      <trkpt lat="45.2937662601470947265625" lon="-70.880059115588665008544921875">
        <ele>883</ele>
        <time>2026-08-21T15:14:33.000Z</time>
        <extensions>
          <ns3:TrackPointExtension>
            <ns3:hr>131</ns3:hr>
            <ns3:cad>0</ns3:cad>
          </ns3:TrackPointExtension>
        </extensions>
      </trkpt>
      <trkpt lat="45.29376089572906494140625" lon="-70.88006548583507537841796875">
        <ele>882.79998779296875</ele>
        <time>2026-08-21T15:14:34.000Z</time>
        <extensions>
          <ns3:TrackPointExtension>
            <ns3:hr>131</ns3:hr>
            <ns3:cad>0</ns3:cad>
          </ns3:TrackPointExtension>
        </extensions>
      </trkpt>
      <trkpt lat="45.2937541902065277099609375" lon="-70.8800750412046909332275390625">
        <ele>882.4000244140625</ele>
        <time>2026-08-21T15:14:35.000Z</time>
        <extensions>
          <ns3:TrackPointExtension>
            <ns3:hr>131</ns3:hr>
            <ns3:cad>0</ns3:cad>
          </ns3:TrackPointExtension>
        </extensions>
      </trkpt>
      <trkpt lat="45.2937466464936733245849609375" lon="-70.8800907991826534271240234375">
        <ele>882.20001220703125</ele>
        <time>2026-08-21T15:14:36.000Z</time>
        <extensions>
          <ns3:TrackPointExtension>
            <ns3:hr>131</ns3:hr>
            <ns3:cad>0</ns3:cad>
          </ns3:TrackPointExtension>
        </extensions>
      </trkpt>
      <trkpt lat="45.29373717494308948516845703125" lon="-70.8801055513322353363037109375">
        <ele>881.79998779296875</ele>
        <time>2026-08-21T15:14:37.000Z</time>
        <extensions>
          <ns3:TrackPointExtension>
            <ns3:hr>131</ns3:hr>
            <ns3:cad>0</ns3:cad>
          </ns3:TrackPointExtension>
        </extensions>
      </trkpt>
      <trkpt lat="45.2937318943440914154052734375" lon="-70.88011938147246837615966796875">
        <ele>881.5999755859375</ele>
        <time>2026-08-21T15:14:38.000Z</time>
        <extensions>
          <ns3:TrackPointExtension>
            <ns3:hr>131</ns3:hr>
            <ns3:cad>72</ns3:cad>
          </ns3:TrackPointExtension>
        </extensions>
      </trkpt>
      <trkpt lat="45.293725021183490753173828125" lon="-70.88014058768749237060546875">
        <ele>881.4000244140625</ele>
        <time>2026-08-21T15:14:39.000Z</time>
        <extensions>
          <ns3:TrackPointExtension>
            <ns3:hr>132</ns3:hr>
            <ns3:cad>72</ns3:cad>
          </ns3:TrackPointExtension>
        </extensions>
      </trkpt>
      <trkpt lat="45.29371873475611209869384765625" lon="-70.88015626184642314910888671875">
        <ele>881.20001220703125</ele>
        <time>2026-08-21T15:14:40.000Z</time>
        <extensions>
          <ns3:TrackPointExtension>
            <ns3:hr>131</ns3:hr>
            <ns3:cad>72</ns3:cad>
          </ns3:TrackPointExtension>
        </extensions>
      </trkpt>
      <trkpt lat="45.293707586824893951416015625" lon="-70.8801742829382419586181640625">
        <ele>880.79998779296875</ele>
        <time>2026-08-21T15:14:41.000Z</time>
        <extensions>
          <ns3:TrackPointExtension>
            <ns3:hr>131</ns3:hr>
            <ns3:cad>70</ns3:cad>
          </ns3:TrackPointExtension>
        </extensions>
      </trkpt>
      <trkpt lat="45.293702892959117889404296875" lon="-70.88019062764942646026611328125">
        <ele>880.5999755859375</ele>
        <time>2026-08-21T15:14:42.000Z</time>
        <extensions>
          <ns3:TrackPointExtension>
            <ns3:hr>131</ns3:hr>
            <ns3:cad>70</ns3:cad>
          </ns3:TrackPointExtension>
        </extensions>
      </trkpt>
      <trkpt lat="45.29369476251304149627685546875" lon="-70.88021342642605304718017578125">
        <ele>880.20001220703125</ele>
        <time>2026-08-21T15:14:43.000Z</time>
        <extensions>
          <ns3:TrackPointExtension>
            <ns3:hr>132</ns3:hr>
            <ns3:cad>69</ns3:cad>
          </ns3:TrackPointExtension>
        </extensions>
      </trkpt>
      <trkpt lat="45.29368738643825054168701171875" lon="-70.88022918440401554107666015625">
        <ele>879.79998779296875</ele>
        <time>2026-08-21T15:14:44.000Z</time>
        <extensions>
          <ns3:TrackPointExtension>
            <ns3:hr>131</ns3:hr>
            <ns3:cad>69</ns3:cad>
          </ns3:TrackPointExtension>
        </extensions>
      </trkpt>
      <trkpt lat="45.293672718107700347900390625" lon="-70.88025080971419811248779296875">
        <ele>879.4000244140625</ele>
        <time>2026-08-21T15:14:45.000Z</time>
        <extensions>
          <ns3:TrackPointExtension>
            <ns3:hr>131</ns3:hr>
            <ns3:cad>69</ns3:cad>
          </ns3:TrackPointExtension>
        </extensions>
      </trkpt>
      <trkpt lat="45.29366341419517993927001953125" lon="-70.8802695013582706451416015625">
        <ele>879</ele>
        <time>2026-08-21T15:14:46.000Z</time>
        <extensions>
          <ns3:TrackPointExtension>
            <ns3:hr>131</ns3:hr>
            <ns3:cad>69</ns3:cad>
          </ns3:TrackPointExtension>
        </extensions>
      </trkpt>
      <trkpt lat="45.29365830123424530029296875" lon="-70.8802855946123600006103515625">
        <ele>878.5999755859375</ele>
        <time>2026-08-21T15:14:47.000Z</time>
        <extensions>
          <ns3:TrackPointExtension>
            <ns3:hr>131</ns3:hr>
            <ns3:cad>69</ns3:cad>
          </ns3:TrackPointExtension>
        </extensions>
      </trkpt>
      <trkpt lat="45.29364966787397861480712890625" lon="-70.8802986703813076019287109375">
        <ele>878.20001220703125</ele>
        <time>2026-08-21T15:14:48.000Z</time>
        <extensions>
          <ns3:TrackPointExtension>
            <ns3:hr>130</ns3:hr>
            <ns3:cad>69</ns3:cad>
          </ns3:TrackPointExtension>
        </extensions>
      </trkpt>
      <trkpt lat="45.29364346526563167572021484375" lon="-70.8803067170083522796630859375">
        <ele>877.79998779296875</ele>
        <time>2026-08-21T15:14:49.000Z</time>
        <extensions>
          <ns3:TrackPointExtension>
            <ns3:hr>130</ns3:hr>
            <ns3:cad>69</ns3:cad>
          </ns3:TrackPointExtension>
        </extensions>
      </trkpt>
      <trkpt lat="45.2936306409537792205810546875" lon="-70.880320966243743896484375">
        <ele>877.4000244140625</ele>
        <time>2026-08-21T15:14:50.000Z</time>
        <extensions>
          <ns3:TrackPointExtension>
            <ns3:hr>130</ns3:hr>
            <ns3:cad>69</ns3:cad>
          </ns3:TrackPointExtension>
        </extensions>
      </trkpt>
      <trkpt lat="45.2936195768415927886962890625" lon="-70.88033898733556270599365234375">
        <ele>877</ele>
        <time>2026-08-21T15:14:51.000Z</time>
        <extensions>
          <ns3:TrackPointExtension>
            <ns3:hr>129</ns3:hr>
            <ns3:cad>73</ns3:cad>
          </ns3:TrackPointExtension>
        </extensions>
      </trkpt>
      <trkpt lat="45.29361077584326267242431640625" lon="-70.88035558350384235382080078125">
        <ele>876.5999755859375</ele>
        <time>2026-08-21T15:14:52.000Z</time>
        <extensions>
          <ns3:TrackPointExtension>
            <ns3:hr>129</ns3:hr>
            <ns3:cad>73</ns3:cad>
          </ns3:TrackPointExtension>
        </extensions>
      </trkpt>
      <trkpt lat="45.2936048246920108795166015625" lon="-70.88036815635859966278076171875">
        <ele>876.20001220703125</ele>
        <time>2026-08-21T15:14:53.000Z</time>
        <extensions>
          <ns3:TrackPointExtension>
            <ns3:hr>129</ns3:hr>
            <ns3:cad>73</ns3:cad>
          </ns3:TrackPointExtension>
        </extensions>
      </trkpt>
      <trkpt lat="45.29359702952206134796142578125" lon="-70.8803841657936573028564453125">
        <ele>875.79998779296875</ele>
        <time>2026-08-21T15:14:54.000Z</time>
        <extensions>
          <ns3:TrackPointExtension>
            <ns3:hr>130</ns3:hr>
            <ns3:cad>73</ns3:cad>
          </ns3:TrackPointExtension>
        </extensions>
      </trkpt>
      <trkpt lat="45.29358764179050922393798828125" lon="-70.88039732538163661956787109375">
        <ele>875.20001220703125</ele>
        <time>2026-08-21T15:14:55.000Z</time>
        <extensions>
          <ns3:TrackPointExtension>
            <ns3:hr>130</ns3:hr>
            <ns3:cad>73</ns3:cad>
          </ns3:TrackPointExtension>
        </extensions>
      </trkpt>
      <trkpt lat="45.29358076862990856170654296875" lon="-70.880409814417362213134765625">
        <ele>874.79998779296875</ele>
        <time>2026-08-21T15:14:56.000Z</time>
        <extensions>
          <ns3:TrackPointExtension>
            <ns3:hr>130</ns3:hr>
            <ns3:cad>73</ns3:cad>
          </ns3:TrackPointExtension>
        </extensions>
      </trkpt>
      <trkpt lat="45.29357138089835643768310546875" lon="-70.880433619022369384765625">
        <ele>874.4000244140625</ele>
        <time>2026-08-21T15:14:57.000Z</time>
        <extensions>
          <ns3:TrackPointExtension>
            <ns3:hr>130</ns3:hr>
            <ns3:cad>73</ns3:cad>
          </ns3:TrackPointExtension>
        </extensions>
      </trkpt>
      <trkpt lat="45.29356576502323150634765625" lon="-70.8804510533809661865234375">
        <ele>874</ele>
        <time>2026-08-21T15:14:58.000Z</time>
        <extensions>
          <ns3:TrackPointExtension>
            <ns3:hr>130</ns3:hr>
            <ns3:cad>0</ns3:cad>
          </ns3:TrackPointExtension>
        </extensions>
      </trkpt>
      <trkpt lat="45.29355696402490139007568359375" lon="-70.88046924211084842681884765625">
        <ele>873.4000244140625</ele>
        <time>2026-08-21T15:14:59.000Z</time>
        <extensions>
          <ns3:TrackPointExtension>
            <ns3:hr>130</ns3:hr>
            <ns3:cad>0</ns3:cad>
          </ns3:TrackPointExtension>
        </extensions>
      </trkpt>
      <trkpt lat="45.2935448102653026580810546875" lon="-70.8804887719452381134033203125">
        <ele>873</ele>
        <time>2026-08-21T15:15:00.000Z</time>
        <extensions>
          <ns3:TrackPointExtension>
            <ns3:hr>131</ns3:hr>
            <ns3:cad>76</ns3:cad>
          </ns3:TrackPointExtension>
        </extensions>
      </trkpt>
      <trkpt lat="45.29353399761021137237548828125" lon="-70.88050612248480319976806640625">
        <ele>872.4000244140625</ele>
        <time>2026-08-21T15:15:01.000Z</time>
        <extensions>
          <ns3:TrackPointExtension>
            <ns3:hr>131</ns3:hr>
            <ns3:cad>76</ns3:cad>
          </ns3:TrackPointExtension>
        </extensions>
      </trkpt>
      <trkpt lat="45.29352779500186443328857421875" lon="-70.88052255101501941680908203125">
        <ele>871.79998779296875</ele>
        <time>2026-08-21T15:15:02.000Z</time>
        <extensions>
          <ns3:TrackPointExtension>
            <ns3:hr>132</ns3:hr>
            <ns3:cad>76</ns3:cad>
          </ns3:TrackPointExtension>
        </extensions>
      </trkpt>
      <trkpt lat="45.2935250289738178253173828125" lon="-70.880538560450077056884765625">
        <ele>871.4000244140625</ele>
        <time>2026-08-21T15:15:03.000Z</time>
        <extensions>
          <ns3:TrackPointExtension>
            <ns3:hr>132</ns3:hr>
            <ns3:cad>76</ns3:cad>
          </ns3:TrackPointExtension>
        </extensions>
      </trkpt>
      <trkpt lat="45.2935236878693103790283203125" lon="-70.88055037893354892730712890625">
        <ele>871</ele>
        <time>2026-08-21T15:15:04.000Z</time>
        <extensions>
          <ns3:TrackPointExtension>
            <ns3:hr>132</ns3:hr>
            <ns3:cad>76</ns3:cad>
          </ns3:TrackPointExtension>
        </extensions>
      </trkpt>
      <trkpt lat="45.293521843850612640380859375" lon="-70.88056697510182857513427734375">
        <ele>870.5999755859375</ele>
        <time>2026-08-21T15:15:05.000Z</time>
        <extensions>
          <ns3:TrackPointExtension>
            <ns3:hr>132</ns3:hr>
            <ns3:cad>76</ns3:cad>
          </ns3:TrackPointExtension>
        </extensions>
      </trkpt>
      <trkpt lat="45.2935153059661388397216796875" lon="-70.8805792964994907379150390625">
        <ele>870.20001220703125</ele>
        <time>2026-08-21T15:15:06.000Z</time>
        <extensions>
          <ns3:TrackPointExtension>
            <ns3:hr>133</ns3:hr>
            <ns3:cad>76</ns3:cad>
          </ns3:TrackPointExtension>
        </extensions>
      </trkpt>
      <trkpt lat="45.29350985772907733917236328125" lon="-70.88059077970683574676513671875">
        <ele>869.79998779296875</ele>
        <time>2026-08-21T15:15:07.000Z</time>
        <extensions>
          <ns3:TrackPointExtension>
            <ns3:hr>133</ns3:hr>
            <ns3:cad>76</ns3:cad>
          </ns3:TrackPointExtension>
        </extensions>
      </trkpt>
      <trkpt lat="45.293503068387508392333984375" lon="-70.880605280399322509765625">
        <ele>869.4000244140625</ele>
        <time>2026-08-21T15:15:08.000Z</time>
        <extensions>
          <ns3:TrackPointExtension>
            <ns3:hr>134</ns3:hr>
            <ns3:cad>76</ns3:cad>
          </ns3:TrackPointExtension>
        </extensions>
      </trkpt>
      <trkpt lat="45.29349845834076404571533203125" lon="-70.88062749244272708892822265625">
        <ele>869</ele>
        <time>2026-08-21T15:15:09.000Z</time>
        <extensions>
          <ns3:TrackPointExtension>
            <ns3:hr>134</ns3:hr>
            <ns3:cad>76</ns3:cad>
          </ns3:TrackPointExtension>
        </extensions>
      </trkpt>
      <trkpt lat="45.29349862597882747650146484375" lon="-70.880641825497150421142578125">
        <ele>868.5999755859375</ele>
        <time>2026-08-21T15:15:10.000Z</time>
        <extensions>
          <ns3:TrackPointExtension>
            <ns3:hr>134</ns3:hr>
            <ns3:cad>0</ns3:cad>
          </ns3:TrackPointExtension>
        </extensions>
      </trkpt>
      <trkpt lat="45.29349611140787601470947265625" lon="-70.88065666146576404571533203125">
        <ele>868.20001220703125</ele>
        <time>2026-08-21T15:15:11.000Z</time>
        <extensions>
          <ns3:TrackPointExtension>
            <ns3:hr>133</ns3:hr>
            <ns3:cad>0</ns3:cad>
          </ns3:TrackPointExtension>
        </extensions>
      </trkpt>
      <trkpt lat="45.29349208809435367584228515625" lon="-70.88066470809280872344970703125">
        <ele>867.79998779296875</ele>
        <time>2026-08-21T15:15:12.000Z</time>
        <extensions>
          <ns3:TrackPointExtension>
            <ns3:hr>132</ns3:hr>
            <ns3:cad>0</ns3:cad>
          </ns3:TrackPointExtension>
        </extensions>
      </trkpt>
      <trkpt lat="45.29348756186664104461669921875" lon="-70.88067024014890193939208984375">
        <ele>867.4000244140625</ele>
        <time>2026-08-21T15:15:13.000Z</time>
        <extensions>
          <ns3:TrackPointExtension>
            <ns3:hr>131</ns3:hr>
            <ns3:cad>0</ns3:cad>
          </ns3:TrackPointExtension>
        </extensions>
      </trkpt>
      <trkpt lat="45.293481610715389251708984375" lon="-70.88068214245140552520751953125">
        <ele>867</ele>
        <time>2026-08-21T15:15:14.000Z</time>
        <extensions>
          <ns3:TrackPointExtension>
            <ns3:hr>131</ns3:hr>
            <ns3:cad>0</ns3:cad>
          </ns3:TrackPointExtension>
        </extensions>
      </trkpt>
      <trkpt lat="45.2934814430773258209228515625" lon="-70.8807053603231906890869140625">
        <ele>866.5999755859375</ele>
        <time>2026-08-21T15:15:15.000Z</time>
        <extensions>
          <ns3:TrackPointExtension>
            <ns3:hr>130</ns3:hr>
            <ns3:cad>0</ns3:cad>
          </ns3:TrackPointExtension>
        </extensions>
      </trkpt>
      <trkpt lat="45.2934770844876766204833984375" lon="-70.88072790764272212982177734375">
        <ele>866.20001220703125</ele>
        <time>2026-08-21T15:15:16.000Z</time>
        <extensions>
          <ns3:TrackPointExtension>
            <ns3:hr>130</ns3:hr>
            <ns3:cad>0</ns3:cad>
          </ns3:TrackPointExtension>
        </extensions>
      </trkpt>
      <trkpt lat="45.29347213916480541229248046875" lon="-70.88073729537427425384521484375">
        <ele>866</ele>
        <time>2026-08-21T15:15:17.000Z</time>
        <extensions>
          <ns3:TrackPointExtension>
            <ns3:hr>130</ns3:hr>
            <ns3:cad>0</ns3:cad>
          </ns3:TrackPointExtension>
        </extensions>
      </trkpt>
      <trkpt lat="45.2934690378606319427490234375" lon="-70.88074584491550922393798828125">
        <ele>865.5999755859375</ele>
        <time>2026-08-21T15:15:18.000Z</time>
        <extensions>
          <ns3:TrackPointExtension>
            <ns3:hr>131</ns3:hr>
            <ns3:cad>0</ns3:cad>
          </ns3:TrackPointExtension>
        </extensions>
      </trkpt>
      <trkpt lat="45.29346476309001445770263671875" lon="-70.88074886240065097808837890625">
        <ele>865.4000244140625</ele>
        <time>2026-08-21T15:15:19.000Z</time>
        <extensions>
          <ns3:TrackPointExtension>
            <ns3:hr>131</ns3:hr>
            <ns3:cad>0</ns3:cad>
          </ns3:TrackPointExtension>
        </extensions>
      </trkpt>
      <trkpt lat="45.29346057213842868804931640625" lon="-70.8807636983692646026611328125">
        <ele>865</ele>
        <time>2026-08-21T15:15:20.000Z</time>
        <extensions>
          <ns3:TrackPointExtension>
            <ns3:hr>131</ns3:hr>
            <ns3:cad>0</ns3:cad>
          </ns3:TrackPointExtension>
        </extensions>
      </trkpt>
      <trkpt lat="45.2934522740542888641357421875" lon="-70.88077870197594165802001953125">
        <ele>864.79998779296875</ele>
        <time>2026-08-21T15:15:21.000Z</time>
        <extensions>
          <ns3:TrackPointExtension>
            <ns3:hr>130</ns3:hr>
            <ns3:cad>0</ns3:cad>
          </ns3:TrackPointExtension>
        </extensions>
      </trkpt>
      <trkpt lat="45.2934435568749904632568359375" lon="-70.880783312022686004638671875">
        <ele>864.4000244140625</ele>
        <time>2026-08-21T15:15:22.000Z</time>
        <extensions>
          <ns3:TrackPointExtension>
            <ns3:hr>130</ns3:hr>
            <ns3:cad>58</ns3:cad>
          </ns3:TrackPointExtension>
        </extensions>
      </trkpt>
      <trkpt lat="45.29343375004827976226806640625" lon="-70.88079513050615787506103515625">
        <ele>864.20001220703125</ele>
        <time>2026-08-21T15:15:23.000Z</time>
        <extensions>
          <ns3:TrackPointExtension>
            <ns3:hr>130</ns3:hr>
            <ns3:cad>58</ns3:cad>
          </ns3:TrackPointExtension>
        </extensions>
      </trkpt>
      <trkpt lat="45.2934298105537891387939453125" lon="-70.88081105612218379974365234375">
        <ele>863.79998779296875</ele>
        <time>2026-08-21T15:15:24.000Z</time>
        <extensions>
          <ns3:TrackPointExtension>
            <ns3:hr>131</ns3:hr>
            <ns3:cad>58</ns3:cad>
          </ns3:TrackPointExtension>
        </extensions>
      </trkpt>
      <trkpt lat="45.2934264577925205230712890625" lon="-70.88082253932952880859375">
        <ele>863.4000244140625</ele>
        <time>2026-08-21T15:15:25.000Z</time>
        <extensions>
          <ns3:TrackPointExtension>
            <ns3:hr>130</ns3:hr>
            <ns3:cad>58</ns3:cad>
          </ns3:TrackPointExtension>
        </extensions>
      </trkpt>
      <trkpt lat="45.29342226684093475341796875" lon="-70.88083435781300067901611328125">
        <ele>863</ele>
        <time>2026-08-21T15:15:26.000Z</time>
        <extensions>
          <ns3:TrackPointExtension>
            <ns3:hr>130</ns3:hr>
            <ns3:cad>58</ns3:cad>
          </ns3:TrackPointExtension>
        </extensions>
      </trkpt>
      <trkpt lat="45.29341933317482471466064453125" lon="-70.88084910996258258819580078125">
        <ele>862.5999755859375</ele>
        <time>2026-08-21T15:15:27.000Z</time>
        <extensions>
          <ns3:TrackPointExtension>
            <ns3:hr>130</ns3:hr>
            <ns3:cad>58</ns3:cad>
          </ns3:TrackPointExtension>
        </extensions>
      </trkpt>
      <trkpt lat="45.29341497458517551422119140625" lon="-70.88086218573153018951416015625">
        <ele>862.4000244140625</ele>
        <time>2026-08-21T15:15:28.000Z</time>
        <extensions>
          <ns3:TrackPointExtension>
            <ns3:hr>131</ns3:hr>
            <ns3:cad>58</ns3:cad>
          </ns3:TrackPointExtension>
        </extensions>
      </trkpt>
      <trkpt lat="45.29341380111873149871826171875" lon="-70.880873501300811767578125">
        <ele>862</ele>
        <time>2026-08-21T15:15:29.000Z</time>
        <extensions>
          <ns3:TrackPointExtension>
            <ns3:hr>131</ns3:hr>
            <ns3:cad>58</ns3:cad>
          </ns3:TrackPointExtension>
        </extensions>
      </trkpt>
      <trkpt lat="45.2934073470532894134521484375" lon="-70.88089152239263057708740234375">
        <ele>861.5999755859375</ele>
        <time>2026-08-21T15:15:30.000Z</time>
        <extensions>
          <ns3:TrackPointExtension>
            <ns3:hr>130</ns3:hr>
            <ns3:cad>58</ns3:cad>
          </ns3:TrackPointExtension>
        </extensions>
      </trkpt>
      <trkpt lat="45.293398462235927581787109375" lon="-70.88090660981833934783935546875">
        <ele>861.20001220703125</ele>
        <time>2026-08-21T15:15:31.000Z</time>
        <extensions>
          <ns3:TrackPointExtension>
            <ns3:hr>130</ns3:hr>
            <ns3:cad>58</ns3:cad>
          </ns3:TrackPointExtension>
        </extensions>
      </trkpt>
      <trkpt lat="45.29339318163692951202392578125" lon="-70.88093142025172710418701171875">
        <ele>860.79998779296875</ele>
        <time>2026-08-21T15:15:32.000Z</time>
        <extensions>
          <ns3:TrackPointExtension>
            <ns3:hr>130</ns3:hr>
            <ns3:cad>58</ns3:cad>
          </ns3:TrackPointExtension>
        </extensions>
      </trkpt>
      <trkpt lat="45.293388403952121734619140625" lon="-70.88094935752451419830322265625">
        <ele>860.4000244140625</ele>
        <time>2026-08-21T15:15:33.000Z</time>
        <extensions>
          <ns3:TrackPointExtension>
            <ns3:hr>131</ns3:hr>
            <ns3:cad>58</ns3:cad>
          </ns3:TrackPointExtension>
        </extensions>
      </trkpt>
      <trkpt lat="45.29338899068534374237060546875" lon="-70.88096410967409610748291015625">
        <ele>860.20001220703125</ele>
        <time>2026-08-21T15:15:34.000Z</time>
        <extensions>
          <ns3:TrackPointExtension>
            <ns3:hr>130</ns3:hr>
            <ns3:cad>58</ns3:cad>
          </ns3:TrackPointExtension>
        </extensions>
      </trkpt>
      <trkpt lat="45.2933894097805023193359375" lon="-70.8809792809188365936279296875">
        <ele>859.79998779296875</ele>
        <time>2026-08-21T15:15:35.000Z</time>
        <extensions>
          <ns3:TrackPointExtension>
            <ns3:hr>130</ns3:hr>
            <ns3:cad>58</ns3:cad>
          </ns3:TrackPointExtension>
        </extensions>
      </trkpt>
      <trkpt lat="45.293388068675994873046875" lon="-70.88100283406674861907958984375">
        <ele>859.5999755859375</ele>
        <time>2026-08-21T15:15:36.000Z</time>
        <extensions>
          <ns3:TrackPointExtension>
            <ns3:hr>130</ns3:hr>
            <ns3:cad>58</ns3:cad>
          </ns3:TrackPointExtension>
        </extensions>
      </trkpt>
      <trkpt lat="45.293385051190853118896484375" lon="-70.88102160952985286712646484375">
        <ele>859.4000244140625</ele>
        <time>2026-08-21T15:15:37.000Z</time>
        <extensions>
          <ns3:TrackPointExtension>
            <ns3:hr>130</ns3:hr>
            <ns3:cad>58</ns3:cad>
          </ns3:TrackPointExtension>
        </extensions>
      </trkpt>
      <trkpt lat="45.29337960295379161834716796875" lon="-70.88103937916457653045654296875">
        <ele>859.20001220703125</ele>
        <time>2026-08-21T15:15:38.000Z</time>
        <extensions>
          <ns3:TrackPointExtension>
            <ns3:hr>131</ns3:hr>
            <ns3:cad>58</ns3:cad>
          </ns3:TrackPointExtension>
        </extensions>
      </trkpt>
      <trkpt lat="45.293373651802539825439453125" lon="-70.881049521267414093017578125">
        <ele>858.79998779296875</ele>
        <time>2026-08-21T15:15:39.000Z</time>
        <extensions>
          <ns3:TrackPointExtension>
            <ns3:hr>131</ns3:hr>
            <ns3:cad>58</ns3:cad>
          </ns3:TrackPointExtension>
        </extensions>
      </trkpt>
      <trkpt lat="45.2933671139180660247802734375" lon="-70.88107123039662837982177734375">
        <ele>858.5999755859375</ele>
        <time>2026-08-21T15:15:40.000Z</time>
        <extensions>
          <ns3:TrackPointExtension>
            <ns3:hr>131</ns3:hr>
            <ns3:cad>58</ns3:cad>
          </ns3:TrackPointExtension>
        </extensions>
      </trkpt>
      <trkpt lat="45.29336401261389255523681640625" lon="-70.8810912631452083587646484375">
        <ele>858.20001220703125</ele>
        <time>2026-08-21T15:15:41.000Z</time>
        <extensions>
          <ns3:TrackPointExtension>
            <ns3:hr>131</ns3:hr>
            <ns3:cad>58</ns3:cad>
          </ns3:TrackPointExtension>
        </extensions>
      </trkpt>
      <trkpt lat="45.293369293212890625" lon="-70.881122611463069915771484375">
        <ele>858</ele>
        <time>2026-08-21T15:15:42.000Z</time>
        <extensions>
          <ns3:TrackPointExtension>
            <ns3:hr>130</ns3:hr>
            <ns3:cad>58</ns3:cad>
          </ns3:TrackPointExtension>
        </extensions>
      </trkpt>
      <trkpt lat="45.29337130486965179443359375" lon="-70.8811331726610660552978515625">
        <ele>857.79998779296875</ele>
        <time>2026-08-21T15:15:43.000Z</time>
        <extensions>
          <ns3:TrackPointExtension>
            <ns3:hr>131</ns3:hr>
            <ns3:cad>58</ns3:cad>
          </ns3:TrackPointExtension>
        </extensions>
      </trkpt>
      <trkpt lat="45.29337390325963497161865234375" lon="-70.8811435662209987640380859375">
        <ele>857.5999755859375</ele>
        <time>2026-08-21T15:15:44.000Z</time>
        <extensions>
          <ns3:TrackPointExtension>
            <ns3:hr>131</ns3:hr>
            <ns3:cad>58</ns3:cad>
          </ns3:TrackPointExtension>
        </extensions>
      </trkpt>
      <trkpt lat="45.29337507672607898712158203125" lon="-70.88116519153118133544921875">
        <ele>857.79998779296875</ele>
        <time>2026-08-21T15:15:45.000Z</time>
        <extensions>
          <ns3:TrackPointExtension>
            <ns3:hr>132</ns3:hr>
            <ns3:cad>58</ns3:cad>
          </ns3:TrackPointExtension>
        </extensions>
      </trkpt>
      <trkpt lat="45.29337323270738124847412109375" lon="-70.88118304498493671417236328125">
        <ele>857.79998779296875</ele>
        <time>2026-08-21T15:15:46.000Z</time>
        <extensions>
          <ns3:TrackPointExtension>
            <ns3:hr>132</ns3:hr>
            <ns3:cad>58</ns3:cad>
          </ns3:TrackPointExtension>
        </extensions>
      </trkpt>
      <trkpt lat="45.29337759129703044891357421875" lon="-70.88120366446673870086669921875">
        <ele>858</ele>
        <time>2026-08-21T15:15:47.000Z</time>
        <extensions>
          <ns3:TrackPointExtension>
            <ns3:hr>132</ns3:hr>
            <ns3:cad>58</ns3:cad>
          </ns3:TrackPointExtension>
        </extensions>
      </trkpt>
      <trkpt lat="45.2933781780302524566650390625" lon="-70.8812166564166545867919921875">
        <ele>858.20001220703125</ele>
        <time>2026-08-21T15:15:48.000Z</time>
        <extensions>
          <ns3:TrackPointExtension>
            <ns3:hr>132</ns3:hr>
            <ns3:cad>58</ns3:cad>
          </ns3:TrackPointExtension>
        </extensions>
      </trkpt>
      <trkpt lat="45.29337398707866668701171875" lon="-70.88122981600463390350341796875">
        <ele>858.4000244140625</ele>
        <time>2026-08-21T15:15:49.000Z</time>
        <extensions>
          <ns3:TrackPointExtension>
            <ns3:hr>132</ns3:hr>
            <ns3:cad>0</ns3:cad>
          </ns3:TrackPointExtension>
        </extensions>
      </trkpt>
      <trkpt lat="45.2933664433658123016357421875" lon="-70.88125144131481647491455078125">
        <ele>858.5999755859375</ele>
        <time>2026-08-21T15:15:50.000Z</time>
        <extensions>
          <ns3:TrackPointExtension>
            <ns3:hr>132</ns3:hr>
            <ns3:cad>0</ns3:cad>
          </ns3:TrackPointExtension>
        </extensions>
      </trkpt>
      <trkpt lat="45.29336049221456050872802734375" lon="-70.881272815167903900146484375">
        <ele>858.79998779296875</ele>
        <time>2026-08-21T15:15:51.000Z</time>
        <extensions>
          <ns3:TrackPointExtension>
            <ns3:hr>131</ns3:hr>
            <ns3:cad>0</ns3:cad>
          </ns3:TrackPointExtension>
        </extensions>
      </trkpt>
      <trkpt lat="45.2933560498058795928955078125" lon="-70.88128798641264438629150390625">
        <ele>858.79998779296875</ele>
        <time>2026-08-21T15:15:52.000Z</time>
        <extensions>
          <ns3:TrackPointExtension>
            <ns3:hr>130</ns3:hr>
            <ns3:cad>0</ns3:cad>
          </ns3:TrackPointExtension>
        </extensions>
      </trkpt>
      <trkpt lat="45.2933526970446109771728515625" lon="-70.88130257092416286468505859375">
        <ele>858.5999755859375</ele>
        <time>2026-08-21T15:15:53.000Z</time>
        <extensions>
          <ns3:TrackPointExtension>
            <ns3:hr>129</ns3:hr>
            <ns3:cad>0</ns3:cad>
          </ns3:TrackPointExtension>
        </extensions>
      </trkpt>
      <trkpt lat="45.2933469973504543304443359375" lon="-70.8813202567398548126220703125">
        <ele>858.4000244140625</ele>
        <time>2026-08-21T15:15:54.000Z</time>
        <extensions>
          <ns3:TrackPointExtension>
            <ns3:hr>129</ns3:hr>
            <ns3:cad>54</ns3:cad>
          </ns3:TrackPointExtension>
        </extensions>
      </trkpt>
      <trkpt lat="45.293343476951122283935546875" lon="-70.88133257813751697540283203125">
        <ele>858.20001220703125</ele>
        <time>2026-08-21T15:15:55.000Z</time>
        <extensions>
          <ns3:TrackPointExtension>
            <ns3:hr>128</ns3:hr>
            <ns3:cad>54</ns3:cad>
          </ns3:TrackPointExtension>
        </extensions>
      </trkpt>
      <trkpt lat="45.2933409623801708221435546875" lon="-70.8813469111919403076171875">
        <ele>858</ele>
        <time>2026-08-21T15:15:56.000Z</time>
        <extensions>
          <ns3:TrackPointExtension>
            <ns3:hr>128</ns3:hr>
            <ns3:cad>54</ns3:cad>
          </ns3:TrackPointExtension>
        </extensions>
      </trkpt>
      <trkpt lat="45.29333668760955333709716796875" lon="-70.88135671801865100860595703125">
        <ele>858</ele>
        <time>2026-08-21T15:15:57.000Z</time>
        <extensions>
          <ns3:TrackPointExtension>
            <ns3:hr>128</ns3:hr>
            <ns3:cad>54</ns3:cad>
          </ns3:TrackPointExtension>
        </extensions>
      </trkpt>
      <trkpt lat="45.2933329157531261444091796875" lon="-70.8813638426363468170166015625">
        <ele>857.79998779296875</ele>
        <time>2026-08-21T15:15:58.000Z</time>
        <extensions>
          <ns3:TrackPointExtension>
            <ns3:hr>128</ns3:hr>
            <ns3:cad>0</ns3:cad>
          </ns3:TrackPointExtension>
        </extensions>
      </trkpt>
      <trkpt lat="45.29333031736314296722412109375" lon="-70.8813739009201526641845703125">
        <ele>857.79998779296875</ele>
        <time>2026-08-21T15:15:59.000Z</time>
        <extensions>
          <ns3:TrackPointExtension>
            <ns3:hr>128</ns3:hr>
            <ns3:cad>0</ns3:cad>
          </ns3:TrackPointExtension>
        </extensions>
      </trkpt>
      <trkpt lat="45.29332570731639862060546875" lon="-70.88138840161263942718505859375">
        <ele>857.5999755859375</ele>
        <time>2026-08-21T15:16:00.000Z</time>
        <extensions>
          <ns3:TrackPointExtension>
            <ns3:hr>128</ns3:hr>
            <ns3:cad>50</ns3:cad>
          </ns3:TrackPointExtension>
        </extensions>
      </trkpt>
      <trkpt lat="45.29331975616514682769775390625" lon="-70.8814050815999507904052734375">
        <ele>857.5999755859375</ele>
        <time>2026-08-21T15:16:01.000Z</time>
        <extensions>
          <ns3:TrackPointExtension>
            <ns3:hr>128</ns3:hr>
            <ns3:cad>50</ns3:cad>
          </ns3:TrackPointExtension>
        </extensions>
      </trkpt>
      <trkpt lat="45.29331606812775135040283203125" lon="-70.88141522370278835296630859375">
        <ele>857.4000244140625</ele>
        <time>2026-08-21T15:16:02.000Z</time>
        <extensions>
          <ns3:TrackPointExtension>
            <ns3:hr>128</ns3:hr>
            <ns3:cad>50</ns3:cad>
          </ns3:TrackPointExtension>
        </extensions>
      </trkpt>
      <trkpt lat="45.29331388883292675018310546875" lon="-70.88142310269176959991455078125">
        <ele>857.4000244140625</ele>
        <time>2026-08-21T15:16:03.000Z</time>
        <extensions>
          <ns3:TrackPointExtension>
            <ns3:hr>128</ns3:hr>
            <ns3:cad>0</ns3:cad>
          </ns3:TrackPointExtension>
        </extensions>
      </trkpt>
      <trkpt lat="45.29331405647099018096923828125" lon="-70.881429724395275115966796875">
        <ele>857.20001220703125</ele>
        <time>2026-08-21T15:16:04.000Z</time>
        <extensions>
          <ns3:TrackPointExtension>
            <ns3:hr>128</ns3:hr>
            <ns3:cad>0</ns3:cad>
          </ns3:TrackPointExtension>
        </extensions>
      </trkpt>
      <trkpt lat="45.29331154190003871917724609375" lon="-70.88144171051681041717529296875">
        <ele>857.20001220703125</ele>
        <time>2026-08-21T15:16:05.000Z</time>
        <extensions>
          <ns3:TrackPointExtension>
            <ns3:hr>128</ns3:hr>
            <ns3:cad>0</ns3:cad>
          </ns3:TrackPointExtension>
        </extensions>
      </trkpt>
      <trkpt lat="45.29330885969102382659912109375" lon="-70.8814543671905994415283203125">
        <ele>857</ele>
        <time>2026-08-21T15:16:06.000Z</time>
        <extensions>
          <ns3:TrackPointExtension>
            <ns3:hr>128</ns3:hr>
            <ns3:cad>0</ns3:cad>
          </ns3:TrackPointExtension>
        </extensions>
      </trkpt>
      <trkpt lat="45.2933017350733280181884765625" lon="-70.88147389702498912811279296875">
        <ele>857</ele>
        <time>2026-08-21T15:16:07.000Z</time>
        <extensions>
          <ns3:TrackPointExtension>
            <ns3:hr>128</ns3:hr>
            <ns3:cad>0</ns3:cad>
          </ns3:TrackPointExtension>
        </extensions>
      </trkpt>
      <trkpt lat="45.2932983823120594024658203125" lon="-70.88148362003266811370849609375">
        <ele>856.79998779296875</ele>
        <time>2026-08-21T15:16:08.000Z</time>
        <extensions>
          <ns3:TrackPointExtension>
            <ns3:hr>127</ns3:hr>
            <ns3:cad>0</ns3:cad>
          </ns3:TrackPointExtension>
        </extensions>
      </trkpt>
      <trkpt lat="45.2932910062372684478759765625" lon="-70.8814982883632183074951171875">
        <ele>856.5999755859375</ele>
        <time>2026-08-21T15:16:09.000Z</time>
        <extensions>
          <ns3:TrackPointExtension>
            <ns3:hr>128</ns3:hr>
            <ns3:cad>0</ns3:cad>
          </ns3:TrackPointExtension>
        </extensions>
      </trkpt>
      <trkpt lat="45.29328413307666778564453125" lon="-70.8815140463411808013916015625">
        <ele>856.4000244140625</ele>
        <time>2026-08-21T15:16:10.000Z</time>
        <extensions>
          <ns3:TrackPointExtension>
            <ns3:hr>128</ns3:hr>
            <ns3:cad>0</ns3:cad>
          </ns3:TrackPointExtension>
        </extensions>
      </trkpt>
      <trkpt lat="45.29327969066798686981201171875" lon="-70.8815237693488597869873046875">
        <ele>856</ele>
        <time>2026-08-21T15:16:11.000Z</time>
        <extensions>
          <ns3:TrackPointExtension>
            <ns3:hr>128</ns3:hr>
            <ns3:cad>0</ns3:cad>
          </ns3:TrackPointExtension>
        </extensions>
      </trkpt>
      <trkpt lat="45.293275751173496246337890625" lon="-70.8815324865281581878662109375">
        <ele>855.79998779296875</ele>
        <time>2026-08-21T15:16:12.000Z</time>
        <extensions>
          <ns3:TrackPointExtension>
            <ns3:hr>128</ns3:hr>
            <ns3:cad>0</ns3:cad>
          </ns3:TrackPointExtension>
        </extensions>
      </trkpt>
      <trkpt lat="45.29326896183192729949951171875" lon="-70.88154246099293231964111328125">
        <ele>855.5999755859375</ele>
        <time>2026-08-21T15:16:13.000Z</time>
        <extensions>
          <ns3:TrackPointExtension>
            <ns3:hr>128</ns3:hr>
            <ns3:cad>0</ns3:cad>
          </ns3:TrackPointExtension>
        </extensions>
      </trkpt>
      <trkpt lat="45.29326091520488262176513671875" lon="-70.881554782390594482421875">
        <ele>855.4000244140625</ele>
        <time>2026-08-21T15:16:14.000Z</time>
        <extensions>
          <ns3:TrackPointExtension>
            <ns3:hr>128</ns3:hr>
            <ns3:cad>0</ns3:cad>
          </ns3:TrackPointExtension>
        </extensions>
      </trkpt>
      <trkpt lat="45.29326074756681919097900390625" lon="-70.8815690316259860992431640625">
        <ele>855.20001220703125</ele>
        <time>2026-08-21T15:16:15.000Z</time>
        <extensions>
          <ns3:TrackPointExtension>
            <ns3:hr>128</ns3:hr>
            <ns3:cad>0</ns3:cad>
          </ns3:TrackPointExtension>
        </extensions>
      </trkpt>
      <trkpt lat="45.2932574786245822906494140625" lon="-70.8815804310142993927001953125">
        <ele>855</ele>
        <time>2026-08-21T15:16:16.000Z</time>
        <extensions>
          <ns3:TrackPointExtension>
            <ns3:hr>129</ns3:hr>
            <ns3:cad>0</ns3:cad>
          </ns3:TrackPointExtension>
        </extensions>
      </trkpt>
      <trkpt lat="45.29325370676815509796142578125" lon="-70.881583280861377716064453125">
        <ele>854.5999755859375</ele>
        <time>2026-08-21T15:16:17.000Z</time>
        <extensions>
          <ns3:TrackPointExtension>
            <ns3:hr>129</ns3:hr>
            <ns3:cad>0</ns3:cad>
          </ns3:TrackPointExtension>
        </extensions>
      </trkpt>
      <trkpt lat="45.29324482195079326629638671875" lon="-70.88159224949777126312255859375">
        <ele>854.4000244140625</ele>
        <time>2026-08-21T15:16:18.000Z</time>
        <extensions>
          <ns3:TrackPointExtension>
            <ns3:hr>129</ns3:hr>
            <ns3:cad>40</ns3:cad>
          </ns3:TrackPointExtension>
        </extensions>
      </trkpt>
      <trkpt lat="45.29323526658117771148681640625" lon="-70.88160633109509944915771484375">
        <ele>854.20001220703125</ele>
        <time>2026-08-21T15:16:19.000Z</time>
        <extensions>
          <ns3:TrackPointExtension>
            <ns3:hr>130</ns3:hr>
            <ns3:cad>40</ns3:cad>
          </ns3:TrackPointExtension>
        </extensions>
      </trkpt>
      <trkpt lat="45.29322956688702106475830078125" lon="-70.8816166408360004425048828125">
        <ele>854</ele>
        <time>2026-08-21T15:16:20.000Z</time>
        <extensions>
          <ns3:TrackPointExtension>
            <ns3:hr>130</ns3:hr>
            <ns3:cad>40</ns3:cad>
          </ns3:TrackPointExtension>
        </extensions>
      </trkpt>
      <trkpt lat="45.29321841895580291748046875" lon="-70.88162778876721858978271484375">
        <ele>853.79998779296875</ele>
        <time>2026-08-21T15:16:21.000Z</time>
        <extensions>
          <ns3:TrackPointExtension>
            <ns3:hr>130</ns3:hr>
            <ns3:cad>40</ns3:cad>
          </ns3:TrackPointExtension>
        </extensions>
      </trkpt>
      <trkpt lat="45.29321246780455112457275390625" lon="-70.8816454745829105377197265625">
        <ele>853.5999755859375</ele>
        <time>2026-08-21T15:16:22.000Z</time>
        <extensions>
          <ns3:TrackPointExtension>
            <ns3:hr>130</ns3:hr>
            <ns3:cad>0</ns3:cad>
          </ns3:TrackPointExtension>
        </extensions>
      </trkpt>
      <trkpt lat="45.2932081930339336395263671875" lon="-70.88166198693215847015380859375">
        <ele>853.4000244140625</ele>
        <time>2026-08-21T15:16:23.000Z</time>
        <extensions>
          <ns3:TrackPointExtension>
            <ns3:hr>130</ns3:hr>
            <ns3:cad>0</ns3:cad>
          </ns3:TrackPointExtension>
        </extensions>
      </trkpt>
      <trkpt lat="45.2931994758546352386474609375" lon="-70.88167573325335979461669921875">
        <ele>853.20001220703125</ele>
        <time>2026-08-21T15:16:24.000Z</time>
        <extensions>
          <ns3:TrackPointExtension>
            <ns3:hr>130</ns3:hr>
            <ns3:cad>0</ns3:cad>
          </ns3:TrackPointExtension>
        </extensions>
      </trkpt>
      <trkpt lat="45.2931884117424488067626953125" lon="-70.88168696500360965728759765625">
        <ele>853</ele>
        <time>2026-08-21T15:16:25.000Z</time>
        <extensions>
          <ns3:TrackPointExtension>
            <ns3:hr>130</ns3:hr>
            <ns3:cad>53</ns3:cad>
          </ns3:TrackPointExtension>
        </extensions>
      </trkpt>
      <trkpt lat="45.29317810200154781341552734375" lon="-70.88169937022030353546142578125">
        <ele>852.79998779296875</ele>
        <time>2026-08-21T15:16:26.000Z</time>
        <extensions>
          <ns3:TrackPointExtension>
            <ns3:hr>130</ns3:hr>
            <ns3:cad>53</ns3:cad>
          </ns3:TrackPointExtension>
        </extensions>
      </trkpt>
      <trkpt lat="45.29316821135580539703369140625" lon="-70.8817132003605365753173828125">
        <ele>852.5999755859375</ele>
        <time>2026-08-21T15:16:27.000Z</time>
        <extensions>
          <ns3:TrackPointExtension>
            <ns3:hr>130</ns3:hr>
            <ns3:cad>0</ns3:cad>
          </ns3:TrackPointExtension>
        </extensions>
      </trkpt>
      <trkpt lat="45.29315563850104808807373046875" lon="-70.8817266114056110382080078125">
        <ele>852.20001220703125</ele>
        <time>2026-08-21T15:16:28.000Z</time>
        <extensions>
          <ns3:TrackPointExtension>
            <ns3:hr>130</ns3:hr>
            <ns3:cad>0</ns3:cad>
          </ns3:TrackPointExtension>
        </extensions>
      </trkpt>
      <trkpt lat="45.29314189217984676361083984375" lon="-70.88173993863165378570556640625">
        <ele>852</ele>
        <time>2026-08-21T15:16:29.000Z</time>
        <extensions>
          <ns3:TrackPointExtension>
            <ns3:hr>129</ns3:hr>
            <ns3:cad>0</ns3:cad>
          </ns3:TrackPointExtension>
        </extensions>
      </trkpt>
      <trkpt lat="45.29312789440155029296875" lon="-70.881750248372554779052734375">
        <ele>851.5999755859375</ele>
        <time>2026-08-21T15:16:30.000Z</time>
        <extensions>
          <ns3:TrackPointExtension>
            <ns3:hr>129</ns3:hr>
            <ns3:cad>0</ns3:cad>
          </ns3:TrackPointExtension>
        </extensions>
      </trkpt>
      <trkpt lat="45.2931116335093975067138671875" lon="-70.881764329969882965087890625">
        <ele>851.20001220703125</ele>
        <time>2026-08-21T15:16:31.000Z</time>
        <extensions>
          <ns3:TrackPointExtension>
            <ns3:hr>128</ns3:hr>
            <ns3:cad>0</ns3:cad>
          </ns3:TrackPointExtension>
        </extensions>
      </trkpt>
      <trkpt lat="45.2930965460836887359619140625" lon="-70.8817839436233043670654296875">
        <ele>850.79998779296875</ele>
        <time>2026-08-21T15:16:32.000Z</time>
        <extensions>
          <ns3:TrackPointExtension>
            <ns3:hr>128</ns3:hr>
            <ns3:cad>0</ns3:cad>
          </ns3:TrackPointExtension>
        </extensions>
      </trkpt>
      <trkpt lat="45.29308740980923175811767578125" lon="-70.88180196471512317657470703125">
        <ele>850.5999755859375</ele>
        <time>2026-08-21T15:16:33.000Z</time>
        <extensions>
          <ns3:TrackPointExtension>
            <ns3:hr>128</ns3:hr>
            <ns3:cad>0</ns3:cad>
          </ns3:TrackPointExtension>
        </extensions>
      </trkpt>
      <trkpt lat="45.29307181946933269500732421875" lon="-70.881817974150180816650390625">
        <ele>850.20001220703125</ele>
        <time>2026-08-21T15:16:34.000Z</time>
        <extensions>
          <ns3:TrackPointExtension>
            <ns3:hr>129</ns3:hr>
            <ns3:cad>0</ns3:cad>
          </ns3:TrackPointExtension>
        </extensions>
      </trkpt>
      <trkpt lat="45.29305840842425823211669921875" lon="-70.881836414337158203125">
        <ele>849.79998779296875</ele>
        <time>2026-08-21T15:16:35.000Z</time>
        <extensions>
          <ns3:TrackPointExtension>
            <ns3:hr>130</ns3:hr>
            <ns3:cad>0</ns3:cad>
          </ns3:TrackPointExtension>
        </extensions>
      </trkpt>
      <trkpt lat="45.29304550029337406158447265625" lon="-70.8818530105054378509521484375">
        <ele>849.4000244140625</ele>
        <time>2026-08-21T15:16:36.000Z</time>
        <extensions>
          <ns3:TrackPointExtension>
            <ns3:hr>131</ns3:hr>
            <ns3:cad>0</ns3:cad>
          </ns3:TrackPointExtension>
        </extensions>
      </trkpt>
      <trkpt lat="45.293032340705394744873046875" lon="-70.88186801411211490631103515625">
        <ele>849</ele>
        <time>2026-08-21T15:16:37.000Z</time>
        <extensions>
          <ns3:TrackPointExtension>
            <ns3:hr>132</ns3:hr>
            <ns3:cad>79</ns3:cad>
          </ns3:TrackPointExtension>
        </extensions>
      </trkpt>
      <trkpt lat="45.2930177561938762664794921875" lon="-70.881879664957523345947265625">
        <ele>848.79998779296875</ele>
        <time>2026-08-21T15:16:38.000Z</time>
        <extensions>
          <ns3:TrackPointExtension>
            <ns3:hr>132</ns3:hr>
            <ns3:cad>79</ns3:cad>
          </ns3:TrackPointExtension>
        </extensions>
      </trkpt>
      <trkpt lat="45.29300308786332607269287109375" lon="-70.8818949200212955474853515625">
        <ele>848.4000244140625</ele>
        <time>2026-08-21T15:16:39.000Z</time>
        <extensions>
          <ns3:TrackPointExtension>
            <ns3:hr>132</ns3:hr>
            <ns3:cad>0</ns3:cad>
          </ns3:TrackPointExtension>
        </extensions>
      </trkpt>
      <trkpt lat="45.2929959632456302642822265625" lon="-70.8819100074470043182373046875">
        <ele>848.20001220703125</ele>
        <time>2026-08-21T15:16:40.000Z</time>
        <extensions>
          <ns3:TrackPointExtension>
            <ns3:hr>132</ns3:hr>
            <ns3:cad>0</ns3:cad>
          </ns3:TrackPointExtension>
        </extensions>
      </trkpt>
      <trkpt lat="45.2929892577230930328369140625" lon="-70.8819267712533473968505859375">
        <ele>848</ele>
        <time>2026-08-21T15:16:41.000Z</time>
        <extensions>
          <ns3:TrackPointExtension>
            <ns3:hr>132</ns3:hr>
            <ns3:cad>0</ns3:cad>
          </ns3:TrackPointExtension>
        </extensions>
      </trkpt>
      <trkpt lat="45.29297794215381145477294921875" lon="-70.881948731839656829833984375">
        <ele>847.5999755859375</ele>
        <time>2026-08-21T15:16:42.000Z</time>
        <extensions>
          <ns3:TrackPointExtension>
            <ns3:hr>132</ns3:hr>
            <ns3:cad>0</ns3:cad>
          </ns3:TrackPointExtension>
        </extensions>
      </trkpt>
      <trkpt lat="45.29296805150806903839111328125" lon="-70.8819623105227947235107421875">
        <ele>847.4000244140625</ele>
        <time>2026-08-21T15:16:43.000Z</time>
        <extensions>
          <ns3:TrackPointExtension>
            <ns3:hr>132</ns3:hr>
            <ns3:cad>0</ns3:cad>
          </ns3:TrackPointExtension>
        </extensions>
      </trkpt>
      <trkpt lat="45.29295950196683406829833984375" lon="-70.8819861151278018951416015625">
        <ele>847</ele>
        <time>2026-08-21T15:16:44.000Z</time>
        <extensions>
          <ns3:TrackPointExtension>
            <ns3:hr>132</ns3:hr>
            <ns3:cad>0</ns3:cad>
          </ns3:TrackPointExtension>
        </extensions>
      </trkpt>
      <trkpt lat="45.2929530479013919830322265625" lon="-70.88200480677187442779541015625">
        <ele>846.79998779296875</ele>
        <time>2026-08-21T15:16:45.000Z</time>
        <extensions>
          <ns3:TrackPointExtension>
            <ns3:hr>133</ns3:hr>
            <ns3:cad>0</ns3:cad>
          </ns3:TrackPointExtension>
        </extensions>
      </trkpt>
      <trkpt lat="45.2929416485130786895751953125" lon="-70.88202022947371006011962890625">
        <ele>846.4000244140625</ele>
        <time>2026-08-21T15:16:46.000Z</time>
        <extensions>
          <ns3:TrackPointExtension>
            <ns3:hr>133</ns3:hr>
            <ns3:cad>72</ns3:cad>
          </ns3:TrackPointExtension>
        </extensions>
      </trkpt>
      <trkpt lat="45.2929228730499744415283203125" lon="-70.88204420171678066253662109375">
        <ele>846</ele>
        <time>2026-08-21T15:16:47.000Z</time>
        <extensions>
          <ns3:TrackPointExtension>
            <ns3:hr>133</ns3:hr>
            <ns3:cad>72</ns3:cad>
          </ns3:TrackPointExtension>
        </extensions>
      </trkpt>
      <trkpt lat="45.29290870763361454010009765625" lon="-70.88206951506435871124267578125">
        <ele>845.79998779296875</ele>
        <time>2026-08-21T15:16:48.000Z</time>
        <extensions>
          <ns3:TrackPointExtension>
            <ns3:hr>132</ns3:hr>
            <ns3:cad>72</ns3:cad>
          </ns3:TrackPointExtension>
        </extensions>
      </trkpt>
      <trkpt lat="45.29290166683495044708251953125" lon="-70.882098935544490814208984375">
        <ele>845.4000244140625</ele>
        <time>2026-08-21T15:16:49.000Z</time>
        <extensions>
          <ns3:TrackPointExtension>
            <ns3:hr>132</ns3:hr>
            <ns3:cad>72</ns3:cad>
          </ns3:TrackPointExtension>
        </extensions>
      </trkpt>
      <trkpt lat="45.29289211146533489227294921875" lon="-70.88212299160659313201904296875">
        <ele>845</ele>
        <time>2026-08-21T15:16:50.000Z</time>
        <extensions>
          <ns3:TrackPointExtension>
            <ns3:hr>132</ns3:hr>
            <ns3:cad>72</ns3:cad>
          </ns3:TrackPointExtension>
        </extensions>
      </trkpt>
      <trkpt lat="45.29288540594279766082763671875" lon="-70.88214411400258541107177734375">
        <ele>844.5999755859375</ele>
        <time>2026-08-21T15:16:51.000Z</time>
        <extensions>
          <ns3:TrackPointExtension>
            <ns3:hr>132</ns3:hr>
            <ns3:cad>75</ns3:cad>
          </ns3:TrackPointExtension>
        </extensions>
      </trkpt>
      <trkpt lat="45.29288205318152904510498046875" lon="-70.88215836323797702789306640625">
        <ele>844.4000244140625</ele>
        <time>2026-08-21T15:16:52.000Z</time>
        <extensions>
          <ns3:TrackPointExtension>
            <ns3:hr>132</ns3:hr>
            <ns3:cad>75</ns3:cad>
          </ns3:TrackPointExtension>
        </extensions>
      </trkpt>
      <trkpt lat="45.292878784239292144775390625" lon="-70.8821738697588443756103515625">
        <ele>844.20001220703125</ele>
        <time>2026-08-21T15:16:53.000Z</time>
        <extensions>
          <ns3:TrackPointExtension>
            <ns3:hr>132</ns3:hr>
            <ns3:cad>75</ns3:cad>
          </ns3:TrackPointExtension>
        </extensions>
      </trkpt>
      <trkpt lat="45.29287115670740604400634765625" lon="-70.8821886219084262847900390625">
        <ele>844.20001220703125</ele>
        <time>2026-08-21T15:16:54.000Z</time>
        <extensions>
          <ns3:TrackPointExtension>
            <ns3:hr>133</ns3:hr>
            <ns3:cad>75</ns3:cad>
          </ns3:TrackPointExtension>
        </extensions>
      </trkpt>
      <trkpt lat="45.2928625233471393585205078125" lon="-70.88220915757119655609130859375">
        <ele>844</ele>
        <time>2026-08-21T15:16:55.000Z</time>
        <extensions>
          <ns3:TrackPointExtension>
            <ns3:hr>133</ns3:hr>
            <ns3:cad>75</ns3:cad>
          </ns3:TrackPointExtension>
        </extensions>
      </trkpt>
      <trkpt lat="45.29285791330039501190185546875" lon="-70.88223027996718883514404296875">
        <ele>843.79998779296875</ele>
        <time>2026-08-21T15:16:56.000Z</time>
        <extensions>
          <ns3:TrackPointExtension>
            <ns3:hr>133</ns3:hr>
            <ns3:cad>0</ns3:cad>
          </ns3:TrackPointExtension>
        </extensions>
      </trkpt>
      <trkpt lat="45.29285305179655551910400390625" lon="-70.88224134407937526702880859375">
        <ele>843.79998779296875</ele>
        <time>2026-08-21T15:16:57.000Z</time>
        <extensions>
          <ns3:TrackPointExtension>
            <ns3:hr>133</ns3:hr>
            <ns3:cad>0</ns3:cad>
          </ns3:TrackPointExtension>
        </extensions>
      </trkpt>
      <trkpt lat="45.2928435802459716796875" lon="-70.8822508156299591064453125">
        <ele>843.5999755859375</ele>
        <time>2026-08-21T15:16:58.000Z</time>
        <extensions>
          <ns3:TrackPointExtension>
            <ns3:hr>132</ns3:hr>
            <ns3:cad>0</ns3:cad>
          </ns3:TrackPointExtension>
        </extensions>
      </trkpt>
      <trkpt lat="45.2928357012569904327392578125" lon="-70.8822717703878879547119140625">
        <ele>843.4000244140625</ele>
        <time>2026-08-21T15:16:59.000Z</time>
        <extensions>
          <ns3:TrackPointExtension>
            <ns3:hr>132</ns3:hr>
            <ns3:cad>0</ns3:cad>
          </ns3:TrackPointExtension>
        </extensions>
      </trkpt>
      <trkpt lat="45.29283025301992893218994140625" lon="-70.88229398243129253387451171875">
        <ele>843</ele>
        <time>2026-08-21T15:17:00.000Z</time>
        <extensions>
          <ns3:TrackPointExtension>
            <ns3:hr>132</ns3:hr>
            <ns3:cad>0</ns3:cad>
          </ns3:TrackPointExtension>
        </extensions>
      </trkpt>
      <trkpt lat="45.2928216196596622467041015625" lon="-70.8823039568960666656494140625">
        <ele>842.79998779296875</ele>
        <time>2026-08-21T15:17:01.000Z</time>
        <extensions>
          <ns3:TrackPointExtension>
            <ns3:hr>132</ns3:hr>
            <ns3:cad>0</ns3:cad>
          </ns3:TrackPointExtension>
        </extensions>
      </trkpt>
      <trkpt lat="45.29281097464263439178466796875" lon="-70.8823109976947307586669921875">
        <ele>842.4000244140625</ele>
        <time>2026-08-21T15:17:02.000Z</time>
        <extensions>
          <ns3:TrackPointExtension>
            <ns3:hr>131</ns3:hr>
            <ns3:cad>0</ns3:cad>
          </ns3:TrackPointExtension>
        </extensions>
      </trkpt>
      <trkpt lat="45.29280058108270168304443359375" lon="-70.88232197798788547515869140625">
        <ele>842</ele>
        <time>2026-08-21T15:17:03.000Z</time>
        <extensions>
          <ns3:TrackPointExtension>
            <ns3:hr>131</ns3:hr>
            <ns3:cad>0</ns3:cad>
          </ns3:TrackPointExtension>
        </extensions>
      </trkpt>
      <trkpt lat="45.29278951697051525115966796875" lon="-70.88234268128871917724609375">
        <ele>841.5999755859375</ele>
        <time>2026-08-21T15:17:04.000Z</time>
        <extensions>
          <ns3:TrackPointExtension>
            <ns3:hr>131</ns3:hr>
            <ns3:cad>0</ns3:cad>
          </ns3:TrackPointExtension>
        </extensions>
      </trkpt>
      <trkpt lat="45.292777530848979949951171875" lon="-70.88236522860825061798095703125">
        <ele>841</ele>
        <time>2026-08-21T15:17:05.000Z</time>
        <extensions>
          <ns3:TrackPointExtension>
            <ns3:hr>130</ns3:hr>
            <ns3:cad>73</ns3:cad>
          </ns3:TrackPointExtension>
        </extensions>
      </trkpt>
      <trkpt lat="45.2927642874419689178466796875" lon="-70.882386267185211181640625">
        <ele>840.5999755859375</ele>
        <time>2026-08-21T15:17:06.000Z</time>
        <extensions>
          <ns3:TrackPointExtension>
            <ns3:hr>131</ns3:hr>
            <ns3:cad>74</ns3:cad>
          </ns3:TrackPointExtension>
        </extensions>
      </trkpt>
      <trkpt lat="45.2927528880536556243896484375" lon="-70.8824048750102519989013671875">
        <ele>840.20001220703125</ele>
        <time>2026-08-21T15:17:07.000Z</time>
        <extensions>
          <ns3:TrackPointExtension>
            <ns3:hr>131</ns3:hr>
            <ns3:cad>74</ns3:cad>
          </ns3:TrackPointExtension>
        </extensions>
      </trkpt>
      <trkpt lat="45.29274475760757923126220703125" lon="-70.88242113590240478515625">
        <ele>839.79998779296875</ele>
        <time>2026-08-21T15:17:08.000Z</time>
        <extensions>
          <ns3:TrackPointExtension>
            <ns3:hr>131</ns3:hr>
            <ns3:cad>74</ns3:cad>
          </ns3:TrackPointExtension>
        </extensions>
      </trkpt>
      <trkpt lat="45.29273721389472484588623046875" lon="-70.88243613950908184051513671875">
        <ele>839.5999755859375</ele>
        <time>2026-08-21T15:17:09.000Z</time>
        <extensions>
          <ns3:TrackPointExtension>
            <ns3:hr>132</ns3:hr>
            <ns3:cad>74</ns3:cad>
          </ns3:TrackPointExtension>
        </extensions>
      </trkpt>
      <trkpt lat="45.292731933295726776123046875" lon="-70.88245407678186893463134765625">
        <ele>839.5999755859375</ele>
        <time>2026-08-21T15:17:10.000Z</time>
        <extensions>
          <ns3:TrackPointExtension>
            <ns3:hr>131</ns3:hr>
            <ns3:cad>74</ns3:cad>
          </ns3:TrackPointExtension>
        </extensions>
      </trkpt>
      <trkpt lat="45.29272715561091899871826171875" lon="-70.8824900351464748382568359375">
        <ele>839.79998779296875</ele>
        <time>2026-08-21T15:17:11.000Z</time>
        <extensions>
          <ns3:TrackPointExtension>
            <ns3:hr>131</ns3:hr>
            <ns3:cad>73</ns3:cad>
          </ns3:TrackPointExtension>
        </extensions>
      </trkpt>
      <trkpt lat="45.2927220426499843597412109375" lon="-70.88250637985765933990478515625">
        <ele>839.79998779296875</ele>
        <time>2026-08-21T15:17:12.000Z</time>
        <extensions>
          <ns3:TrackPointExtension>
            <ns3:hr>132</ns3:hr>
            <ns3:cad>72</ns3:cad>
          </ns3:TrackPointExtension>
        </extensions>
      </trkpt>
      <trkpt lat="45.29271257109940052032470703125" lon="-70.88251300156116485595703125">
        <ele>839.79998779296875</ele>
        <time>2026-08-21T15:17:13.000Z</time>
        <extensions>
          <ns3:TrackPointExtension>
            <ns3:hr>132</ns3:hr>
            <ns3:cad>72</ns3:cad>
          </ns3:TrackPointExtension>
        </extensions>
      </trkpt>
      <trkpt lat="45.29270268045365810394287109375" lon="-70.8825242333114147186279296875">
        <ele>839.79998779296875</ele>
        <time>2026-08-21T15:17:14.000Z</time>
        <extensions>
          <ns3:TrackPointExtension>
            <ns3:hr>133</ns3:hr>
            <ns3:cad>72</ns3:cad>
          </ns3:TrackPointExtension>
        </extensions>
      </trkpt>
      <trkpt lat="45.29269672930240631103515625" lon="-70.88253437541425228118896484375">
        <ele>839.5999755859375</ele>
        <time>2026-08-21T15:17:15.000Z</time>
        <extensions>
          <ns3:TrackPointExtension>
            <ns3:hr>134</ns3:hr>
            <ns3:cad>72</ns3:cad>
          </ns3:TrackPointExtension>
        </extensions>
      </trkpt>
      <trkpt lat="45.292694382369518280029296875" lon="-70.88254652917385101318359375">
        <ele>839.20001220703125</ele>
        <time>2026-08-21T15:17:16.000Z</time>
        <extensions>
          <ns3:TrackPointExtension>
            <ns3:hr>135</ns3:hr>
            <ns3:cad>72</ns3:cad>
          </ns3:TrackPointExtension>
        </extensions>
      </trkpt>
      <trkpt lat="45.29268943704664707183837890625" lon="-70.882560275495052337646484375">
        <ele>839</ele>
        <time>2026-08-21T15:17:17.000Z</time>
        <extensions>
          <ns3:TrackPointExtension>
            <ns3:hr>135</ns3:hr>
            <ns3:cad>68</ns3:cad>
          </ns3:TrackPointExtension>
        </extensions>
      </trkpt>
      <trkpt lat="45.292683653533458709716796875" lon="-70.882569663226604461669921875">
        <ele>838.79998779296875</ele>
        <time>2026-08-21T15:17:18.000Z</time>
        <extensions>
          <ns3:TrackPointExtension>
            <ns3:hr>135</ns3:hr>
            <ns3:cad>0</ns3:cad>
          </ns3:TrackPointExtension>
        </extensions>
      </trkpt>
      <trkpt lat="45.29267518781125545501708984375" lon="-70.88257812894880771636962890625">
        <ele>838.5999755859375</ele>
        <time>2026-08-21T15:17:19.000Z</time>
        <extensions>
          <ns3:TrackPointExtension>
            <ns3:hr>135</ns3:hr>
            <ns3:cad>0</ns3:cad>
          </ns3:TrackPointExtension>
        </extensions>
      </trkpt>
      <trkpt lat="45.292669571936130523681640625" lon="-70.882583074271678924560546875">
        <ele>838.4000244140625</ele>
        <time>2026-08-21T15:17:20.000Z</time>
        <extensions>
          <ns3:TrackPointExtension>
            <ns3:hr>136</ns3:hr>
            <ns3:cad>0</ns3:cad>
          </ns3:TrackPointExtension>
        </extensions>
      </trkpt>
      <trkpt lat="45.29265892691910266876220703125" lon="-70.88258852250874042510986328125">
        <ele>838</ele>
        <time>2026-08-21T15:17:21.000Z</time>
        <extensions>
          <ns3:TrackPointExtension>
            <ns3:hr>135</ns3:hr>
            <ns3:cad>0</ns3:cad>
          </ns3:TrackPointExtension>
        </extensions>
      </trkpt>
      <trkpt lat="45.29264551587402820587158203125" lon="-70.88260076008737087249755859375">
        <ele>837.79998779296875</ele>
        <time>2026-08-21T15:17:22.000Z</time>
        <extensions>
          <ns3:TrackPointExtension>
            <ns3:hr>135</ns3:hr>
            <ns3:cad>0</ns3:cad>
          </ns3:TrackPointExtension>
        </extensions>
      </trkpt>
      <trkpt lat="45.292630009353160858154296875" lon="-70.88261752389371395111083984375">
        <ele>837.4000244140625</ele>
        <time>2026-08-21T15:17:23.000Z</time>
        <extensions>
          <ns3:TrackPointExtension>
            <ns3:hr>135</ns3:hr>
            <ns3:cad>0</ns3:cad>
          </ns3:TrackPointExtension>
        </extensions>
      </trkpt>
      <trkpt lat="45.292622633278369903564453125" lon="-70.88263101875782012939453125">
        <ele>836.79998779296875</ele>
        <time>2026-08-21T15:17:24.000Z</time>
        <extensions>
          <ns3:TrackPointExtension>
            <ns3:hr>135</ns3:hr>
            <ns3:cad>0</ns3:cad>
          </ns3:TrackPointExtension>
        </extensions>
      </trkpt>
      <trkpt lat="45.29261399991810321807861328125" lon="-70.882649123668670654296875">
        <ele>836.5999755859375</ele>
        <time>2026-08-21T15:17:25.000Z</time>
        <extensions>
          <ns3:TrackPointExtension>
            <ns3:hr>134</ns3:hr>
            <ns3:cad>0</ns3:cad>
          </ns3:TrackPointExtension>
        </extensions>
      </trkpt>
      <trkpt lat="45.29260461218655109405517578125" lon="-70.88267016224563121795654296875">
        <ele>836.20001220703125</ele>
        <time>2026-08-21T15:17:26.000Z</time>
        <extensions>
          <ns3:TrackPointExtension>
            <ns3:hr>134</ns3:hr>
            <ns3:cad>0</ns3:cad>
          </ns3:TrackPointExtension>
        </extensions>
      </trkpt>
      <trkpt lat="45.29259740374982357025146484375" lon="-70.88268776424229145050048828125">
        <ele>836</ele>
        <time>2026-08-21T15:17:27.000Z</time>
        <extensions>
          <ns3:TrackPointExtension>
            <ns3:hr>135</ns3:hr>
            <ns3:cad>0</ns3:cad>
          </ns3:TrackPointExtension>
        </extensions>
      </trkpt>
      <trkpt lat="45.29258600436151027679443359375" lon="-70.88270251639187335968017578125">
        <ele>835.79998779296875</ele>
        <time>2026-08-21T15:17:28.000Z</time>
        <extensions>
          <ns3:TrackPointExtension>
            <ns3:hr>135</ns3:hr>
            <ns3:cad>0</ns3:cad>
          </ns3:TrackPointExtension>
        </extensions>
      </trkpt>
      <trkpt lat="45.2925788797438144683837890625" lon="-70.8827435038983821868896484375">
        <ele>835.5999755859375</ele>
        <time>2026-08-21T15:17:29.000Z</time>
        <extensions>
          <ns3:TrackPointExtension>
            <ns3:hr>135</ns3:hr>
            <ns3:cad>0</ns3:cad>
          </ns3:TrackPointExtension>
        </extensions>
      </trkpt>
      <trkpt lat="45.2925778739154338836669921875" lon="-70.88277007453143596649169921875">
        <ele>835.4000244140625</ele>
        <time>2026-08-21T15:17:30.000Z</time>
        <extensions>
          <ns3:TrackPointExtension>
            <ns3:hr>134</ns3:hr>
            <ns3:cad>64</ns3:cad>
          </ns3:TrackPointExtension>
        </extensions>
      </trkpt>
      <trkpt lat="45.29257561080157756805419921875" lon="-70.88278968818485736846923828125">
        <ele>835.20001220703125</ele>
        <time>2026-08-21T15:17:31.000Z</time>
        <extensions>
          <ns3:TrackPointExtension>
            <ns3:hr>135</ns3:hr>
            <ns3:cad>64</ns3:cad>
          </ns3:TrackPointExtension>
        </extensions>
      </trkpt>
      <trkpt lat="45.29256999492645263671875" lon="-70.88280913420021533966064453125">
        <ele>835</ele>
        <time>2026-08-21T15:17:32.000Z</time>
        <extensions>
          <ns3:TrackPointExtension>
            <ns3:hr>135</ns3:hr>
            <ns3:cad>64</ns3:cad>
          </ns3:TrackPointExtension>
        </extensions>
      </trkpt>
      <trkpt lat="45.29256454668939113616943359375" lon="-70.882823131978511810302734375">
        <ele>834.79998779296875</ele>
        <time>2026-08-21T15:17:33.000Z</time>
        <extensions>
          <ns3:TrackPointExtension>
            <ns3:hr>135</ns3:hr>
            <ns3:cad>64</ns3:cad>
          </ns3:TrackPointExtension>
        </extensions>
      </trkpt>
      <trkpt lat="45.292558260262012481689453125" lon="-70.88283880613744258880615234375">
        <ele>834.5999755859375</ele>
        <time>2026-08-21T15:17:34.000Z</time>
        <extensions>
          <ns3:TrackPointExtension>
            <ns3:hr>134</ns3:hr>
            <ns3:cad>67</ns3:cad>
          </ns3:TrackPointExtension>
        </extensions>
      </trkpt>
      <trkpt lat="45.292549543082714080810546875" lon="-70.8828621916472911834716796875">
        <ele>834.4000244140625</ele>
        <time>2026-08-21T15:17:35.000Z</time>
        <extensions>
          <ns3:TrackPointExtension>
            <ns3:hr>135</ns3:hr>
            <ns3:cad>67</ns3:cad>
          </ns3:TrackPointExtension>
        </extensions>
      </trkpt>
      <trkpt lat="45.29254627414047718048095703125" lon="-70.88288105092942714691162109375">
        <ele>834</ele>
        <time>2026-08-21T15:17:36.000Z</time>
        <extensions>
          <ns3:TrackPointExtension>
            <ns3:hr>135</ns3:hr>
            <ns3:cad>67</ns3:cad>
          </ns3:TrackPointExtension>
        </extensions>
      </trkpt>
      <trkpt lat="45.292548872530460357666015625" lon="-70.8828927017748355865478515625">
        <ele>833.79998779296875</ele>
        <time>2026-08-21T15:17:37.000Z</time>
        <extensions>
          <ns3:TrackPointExtension>
            <ns3:hr>135</ns3:hr>
            <ns3:cad>67</ns3:cad>
          </ns3:TrackPointExtension>
        </extensions>
      </trkpt>
      <trkpt lat="45.2925503812730312347412109375" lon="-70.88290619663894176483154296875">
        <ele>833.79998779296875</ele>
        <time>2026-08-21T15:17:38.000Z</time>
        <extensions>
          <ns3:TrackPointExtension>
            <ns3:hr>135</ns3:hr>
            <ns3:cad>67</ns3:cad>
          </ns3:TrackPointExtension>
        </extensions>
      </trkpt>
      <trkpt lat="45.29255029745399951934814453125" lon="-70.88292145170271396636962890625">
        <ele>833.5999755859375</ele>
        <time>2026-08-21T15:17:39.000Z</time>
        <extensions>
          <ns3:TrackPointExtension>
            <ns3:hr>135</ns3:hr>
            <ns3:cad>67</ns3:cad>
          </ns3:TrackPointExtension>
        </extensions>
      </trkpt>
      <trkpt lat="45.2925498783588409423828125" lon="-70.88294022716581821441650390625">
        <ele>833.5999755859375</ele>
        <time>2026-08-21T15:17:40.000Z</time>
        <extensions>
          <ns3:TrackPointExtension>
            <ns3:hr>135</ns3:hr>
            <ns3:cad>67</ns3:cad>
          </ns3:TrackPointExtension>
        </extensions>
      </trkpt>
      <trkpt lat="45.29254543595016002655029296875" lon="-70.8829617686569690704345703125">
        <ele>833.5999755859375</ele>
        <time>2026-08-21T15:17:41.000Z</time>
        <extensions>
          <ns3:TrackPointExtension>
            <ns3:hr>135</ns3:hr>
            <ns3:cad>67</ns3:cad>
          </ns3:TrackPointExtension>
        </extensions>
      </trkpt>
      <trkpt lat="45.29253805987536907196044921875" lon="-70.88298372924327850341796875">
        <ele>833.4000244140625</ele>
        <time>2026-08-21T15:17:42.000Z</time>
        <extensions>
          <ns3:TrackPointExtension>
            <ns3:hr>134</ns3:hr>
            <ns3:cad>67</ns3:cad>
          </ns3:TrackPointExtension>
        </extensions>
      </trkpt>
      <trkpt lat="45.2925342880189418792724609375" lon="-70.883005522191524505615234375">
        <ele>833</ele>
        <time>2026-08-21T15:17:43.000Z</time>
        <extensions>
          <ns3:TrackPointExtension>
            <ns3:hr>133</ns3:hr>
            <ns3:cad>67</ns3:cad>
          </ns3:TrackPointExtension>
        </extensions>
      </trkpt>
      <trkpt lat="45.2925259061157703399658203125" lon="-70.88301985524594783782958984375">
        <ele>832.79998779296875</ele>
        <time>2026-08-21T15:17:44.000Z</time>
        <extensions>
          <ns3:TrackPointExtension>
            <ns3:hr>133</ns3:hr>
            <ns3:cad>0</ns3:cad>
          </ns3:TrackPointExtension>
        </extensions>
      </trkpt>
      <trkpt lat="45.292517356574535369873046875" lon="-70.8830372057855129241943359375">
        <ele>832.4000244140625</ele>
        <time>2026-08-21T15:17:45.000Z</time>
        <extensions>
          <ns3:TrackPointExtension>
            <ns3:hr>133</ns3:hr>
            <ns3:cad>0</ns3:cad>
          </ns3:TrackPointExtension>
        </extensions>
      </trkpt>
      <trkpt lat="45.2925069630146026611328125" lon="-70.88305757381021976470947265625">
        <ele>832</ele>
        <time>2026-08-21T15:17:46.000Z</time>
        <extensions>
          <ns3:TrackPointExtension>
            <ns3:hr>133</ns3:hr>
            <ns3:cad>0</ns3:cad>
          </ns3:TrackPointExtension>
        </extensions>
      </trkpt>
      <trkpt lat="45.2925004251301288604736328125" lon="-70.88307383470237255096435546875">
        <ele>831.79998779296875</ele>
        <time>2026-08-21T15:17:47.000Z</time>
        <extensions>
          <ns3:TrackPointExtension>
            <ns3:hr>132</ns3:hr>
            <ns3:cad>0</ns3:cad>
          </ns3:TrackPointExtension>
        </extensions>
      </trkpt>
      <trkpt lat="45.292494557797908782958984375" lon="-70.88308976031839847564697265625">
        <ele>831.4000244140625</ele>
        <time>2026-08-21T15:17:48.000Z</time>
        <extensions>
          <ns3:TrackPointExtension>
            <ns3:hr>132</ns3:hr>
            <ns3:cad>0</ns3:cad>
          </ns3:TrackPointExtension>
        </extensions>
      </trkpt>
      <trkpt lat="45.292488522827625274658203125" lon="-70.883103422820568084716796875">
        <ele>831.20001220703125</ele>
        <time>2026-08-21T15:17:49.000Z</time>
        <extensions>
          <ns3:TrackPointExtension>
            <ns3:hr>131</ns3:hr>
            <ns3:cad>0</ns3:cad>
          </ns3:TrackPointExtension>
        </extensions>
      </trkpt>
      <trkpt lat="45.29247838072478771209716796875" lon="-70.8831173367798328399658203125">
        <ele>830.79998779296875</ele>
        <time>2026-08-21T15:17:50.000Z</time>
        <extensions>
          <ns3:TrackPointExtension>
            <ns3:hr>131</ns3:hr>
            <ns3:cad>0</ns3:cad>
          </ns3:TrackPointExtension>
        </extensions>
      </trkpt>
      <trkpt lat="45.2924762852489948272705078125" lon="-70.88313468731939792633056640625">
        <ele>830.5999755859375</ele>
        <time>2026-08-21T15:17:51.000Z</time>
        <extensions>
          <ns3:TrackPointExtension>
            <ns3:hr>131</ns3:hr>
            <ns3:cad>66</ns3:cad>
          </ns3:TrackPointExtension>
        </extensions>
      </trkpt>
      <trkpt lat="45.2924662269651889801025390625" lon="-70.8831532113254070281982421875">
        <ele>830.20001220703125</ele>
        <time>2026-08-21T15:17:52.000Z</time>
        <extensions>
          <ns3:TrackPointExtension>
            <ns3:hr>130</ns3:hr>
            <ns3:cad>69</ns3:cad>
          </ns3:TrackPointExtension>
        </extensions>
      </trkpt>
      <trkpt lat="45.29245759360492229461669921875" lon="-70.88316670618951320648193359375">
        <ele>830</ele>
        <time>2026-08-21T15:17:53.000Z</time>
        <extensions>
          <ns3:TrackPointExtension>
            <ns3:hr>129</ns3:hr>
            <ns3:cad>69</ns3:cad>
          </ns3:TrackPointExtension>
        </extensions>
      </trkpt>
      <trkpt lat="45.2924457751214504241943359375" lon="-70.88318095542490482330322265625">
        <ele>829.5999755859375</ele>
        <time>2026-08-21T15:17:54.000Z</time>
        <extensions>
          <ns3:TrackPointExtension>
            <ns3:hr>128</ns3:hr>
            <ns3:cad>69</ns3:cad>
          </ns3:TrackPointExtension>
        </extensions>
      </trkpt>
      <trkpt lat="45.292433202266693115234375" lon="-70.88319118134677410125732421875">
        <ele>829.4000244140625</ele>
        <time>2026-08-21T15:17:55.000Z</time>
        <extensions>
          <ns3:TrackPointExtension>
            <ns3:hr>128</ns3:hr>
            <ns3:cad>69</ns3:cad>
          </ns3:TrackPointExtension>
        </extensions>
      </trkpt>
      <trkpt lat="45.29242004267871379852294921875" lon="-70.88320098817348480224609375">
        <ele>829</ele>
        <time>2026-08-21T15:17:56.000Z</time>
        <extensions>
          <ns3:TrackPointExtension>
            <ns3:hr>128</ns3:hr>
            <ns3:cad>69</ns3:cad>
          </ns3:TrackPointExtension>
        </extensions>
      </trkpt>
      <trkpt lat="45.2924050390720367431640625" lon="-70.88321062736213207244873046875">
        <ele>828.5999755859375</ele>
        <time>2026-08-21T15:17:57.000Z</time>
        <extensions>
          <ns3:TrackPointExtension>
            <ns3:hr>128</ns3:hr>
            <ns3:cad>69</ns3:cad>
          </ns3:TrackPointExtension>
        </extensions>
      </trkpt>
      <trkpt lat="45.2923948131501674652099609375" lon="-70.8832217752933502197265625">
        <ele>828.4000244140625</ele>
        <time>2026-08-21T15:17:58.000Z</time>
        <extensions>
          <ns3:TrackPointExtension>
            <ns3:hr>127</ns3:hr>
            <ns3:cad>75</ns3:cad>
          </ns3:TrackPointExtension>
        </extensions>
      </trkpt>
      <trkpt lat="45.292384922504425048828125" lon="-70.88322856463491916656494140625">
        <ele>828.20001220703125</ele>
        <time>2026-08-21T15:17:59.000Z</time>
        <extensions>
          <ns3:TrackPointExtension>
            <ns3:hr>129</ns3:hr>
            <ns3:cad>75</ns3:cad>
          </ns3:TrackPointExtension>
        </extensions>
      </trkpt>
      <trkpt lat="45.29237461276352405548095703125" lon="-70.8832306601107120513916015625">
        <ele>828</ele>
        <time>2026-08-21T15:18:00.000Z</time>
        <extensions>
          <ns3:TrackPointExtension>
            <ns3:hr>131</ns3:hr>
            <ns3:cad>75</ns3:cad>
          </ns3:TrackPointExtension>
        </extensions>
      </trkpt>
      <trkpt lat="45.292353071272373199462890625" lon="-70.88323652744293212890625">
        <ele>827.79998779296875</ele>
        <time>2026-08-21T15:18:01.000Z</time>
        <extensions>
          <ns3:TrackPointExtension>
            <ns3:hr>132</ns3:hr>
            <ns3:cad>75</ns3:cad>
          </ns3:TrackPointExtension>
        </extensions>
      </trkpt>
      <trkpt lat="45.29234007932245731353759765625" lon="-70.88324231095612049102783203125">
        <ele>827.4000244140625</ele>
        <time>2026-08-21T15:18:02.000Z</time>
        <extensions>
          <ns3:TrackPointExtension>
            <ns3:hr>131</ns3:hr>
            <ns3:cad>75</ns3:cad>
          </ns3:TrackPointExtension>
        </extensions>
      </trkpt>
      <trkpt lat="45.2923307754099369049072265625" lon="-70.8832477591931819915771484375">
        <ele>827.4000244140625</ele>
        <time>2026-08-21T15:18:03.000Z</time>
        <extensions>
          <ns3:TrackPointExtension>
            <ns3:hr>130</ns3:hr>
            <ns3:cad>66</ns3:cad>
          </ns3:TrackPointExtension>
        </extensions>
      </trkpt>
      <trkpt lat="45.2923272550106048583984375" lon="-70.8832507766783237457275390625">
        <ele>827.20001220703125</ele>
        <time>2026-08-21T15:18:04.000Z</time>
        <extensions>
          <ns3:TrackPointExtension>
            <ns3:hr>129</ns3:hr>
            <ns3:cad>66</ns3:cad>
          </ns3:TrackPointExtension>
        </extensions>
      </trkpt>
      <trkpt lat="45.29231049120426177978515625" lon="-70.88325287215411663055419921875">
        <ele>827.20001220703125</ele>
        <time>2026-08-21T15:18:05.000Z</time>
        <extensions>
          <ns3:TrackPointExtension>
            <ns3:hr>128</ns3:hr>
            <ns3:cad>66</ns3:cad>
          </ns3:TrackPointExtension>
        </extensions>
      </trkpt>
      <trkpt lat="45.29229364357888698577880859375" lon="-70.88325873948633670806884765625">
        <ele>827</ele>
        <time>2026-08-21T15:18:06.000Z</time>
        <extensions>
          <ns3:TrackPointExtension>
            <ns3:hr>127</ns3:hr>
            <ns3:cad>41</ns3:cad>
          </ns3:TrackPointExtension>
        </extensions>
      </trkpt>
      <trkpt lat="45.2922801487147808074951171875" lon="-70.88325957767665386199951171875">
        <ele>827</ele>
        <time>2026-08-21T15:18:07.000Z</time>
        <extensions>
          <ns3:TrackPointExtension>
            <ns3:hr>127</ns3:hr>
            <ns3:cad>41</ns3:cad>
          </ns3:TrackPointExtension>
        </extensions>
      </trkpt>
      <trkpt lat="45.29226950369775295257568359375" lon="-70.88326125405728816986083984375">
        <ele>826.79998779296875</ele>
        <time>2026-08-21T15:18:08.000Z</time>
        <extensions>
          <ns3:TrackPointExtension>
            <ns3:hr>127</ns3:hr>
            <ns3:cad>41</ns3:cad>
          </ns3:TrackPointExtension>
        </extensions>
      </trkpt>
      <trkpt lat="45.2922596968710422515869140625" lon="-70.88326041586697101593017578125">
        <ele>826.79998779296875</ele>
        <time>2026-08-21T15:18:09.000Z</time>
        <extensions>
          <ns3:TrackPointExtension>
            <ns3:hr>128</ns3:hr>
            <ns3:cad>41</ns3:cad>
          </ns3:TrackPointExtension>
        </extensions>
      </trkpt>
      <trkpt lat="45.29225039295852184295654296875" lon="-70.88325798511505126953125">
        <ele>826.79998779296875</ele>
        <time>2026-08-21T15:18:10.000Z</time>
        <extensions>
          <ns3:TrackPointExtension>
            <ns3:hr>128</ns3:hr>
            <ns3:cad>0</ns3:cad>
          </ns3:TrackPointExtension>
        </extensions>
      </trkpt>
      <trkpt lat="45.292237736284732818603515625" lon="-70.8832594938576221466064453125">
        <ele>827</ele>
        <time>2026-08-21T15:18:11.000Z</time>
        <extensions>
          <ns3:TrackPointExtension>
            <ns3:hr>127</ns3:hr>
            <ns3:cad>0</ns3:cad>
          </ns3:TrackPointExtension>
        </extensions>
      </trkpt>
      <trkpt lat="45.2922161109745502471923828125" lon="-70.8832628466188907623291015625">
        <ele>827.4000244140625</ele>
        <time>2026-08-21T15:18:12.000Z</time>
        <extensions>
          <ns3:TrackPointExtension>
            <ns3:hr>127</ns3:hr>
            <ns3:cad>0</ns3:cad>
          </ns3:TrackPointExtension>
        </extensions>
      </trkpt>
      <trkpt lat="45.29220043681561946868896484375" lon="-70.8832615055143833160400390625">
        <ele>827.79998779296875</ele>
        <time>2026-08-21T15:18:13.000Z</time>
        <extensions>
          <ns3:TrackPointExtension>
            <ns3:hr>127</ns3:hr>
            <ns3:cad>0</ns3:cad>
          </ns3:TrackPointExtension>
        </extensions>
      </trkpt>
      <trkpt lat="45.29217596165835857391357421875" lon="-70.883268378674983978271484375">
        <ele>828</ele>
        <time>2026-08-21T15:18:14.000Z</time>
        <extensions>
          <ns3:TrackPointExtension>
            <ns3:hr>127</ns3:hr>
            <ns3:cad>0</ns3:cad>
          </ns3:TrackPointExtension>
        </extensions>
      </trkpt>
      <trkpt lat="45.2921584434807300567626953125" lon="-70.883285813033580780029296875">
        <ele>828.20001220703125</ele>
        <time>2026-08-21T15:18:15.000Z</time>
        <extensions>
          <ns3:TrackPointExtension>
            <ns3:hr>127</ns3:hr>
            <ns3:cad>0</ns3:cad>
          </ns3:TrackPointExtension>
        </extensions>
      </trkpt>
      <trkpt lat="45.29214377515017986297607421875" lon="-70.88330048136413097381591796875">
        <ele>828.20001220703125</ele>
        <time>2026-08-21T15:18:16.000Z</time>
        <extensions>
          <ns3:TrackPointExtension>
            <ns3:hr>127</ns3:hr>
            <ns3:cad>0</ns3:cad>
          </ns3:TrackPointExtension>
        </extensions>
      </trkpt>
      <trkpt lat="45.29213170520961284637451171875" lon="-70.8833121322095394134521484375">
        <ele>828</ele>
        <time>2026-08-21T15:18:17.000Z</time>
        <extensions>
          <ns3:TrackPointExtension>
            <ns3:hr>127</ns3:hr>
            <ns3:cad>0</ns3:cad>
          </ns3:TrackPointExtension>
        </extensions>
      </trkpt>
      <trkpt lat="45.2921225689351558685302734375" lon="-70.8833183348178863525390625">
        <ele>827.5999755859375</ele>
        <time>2026-08-21T15:18:18.000Z</time>
        <extensions>
          <ns3:TrackPointExtension>
            <ns3:hr>128</ns3:hr>
            <ns3:cad>0</ns3:cad>
          </ns3:TrackPointExtension>
        </extensions>
      </trkpt>
      <trkpt lat="45.29210136272013187408447265625" lon="-70.88332780636847019195556640625">
        <ele>827.4000244140625</ele>
        <time>2026-08-21T15:18:19.000Z</time>
        <extensions>
          <ns3:TrackPointExtension>
            <ns3:hr>128</ns3:hr>
            <ns3:cad>0</ns3:cad>
          </ns3:TrackPointExtension>
        </extensions>
      </trkpt>
      <trkpt lat="45.29208057560026645660400390625" lon="-70.8833406306803226470947265625">
        <ele>827.20001220703125</ele>
        <time>2026-08-21T15:18:20.000Z</time>
        <extensions>
          <ns3:TrackPointExtension>
            <ns3:hr>129</ns3:hr>
            <ns3:cad>0</ns3:cad>
          </ns3:TrackPointExtension>
        </extensions>
      </trkpt>
      <trkpt lat="45.2920685894787311553955078125" lon="-70.88335278443992137908935546875">
        <ele>827</ele>
        <time>2026-08-21T15:18:21.000Z</time>
        <extensions>
          <ns3:TrackPointExtension>
            <ns3:hr>129</ns3:hr>
            <ns3:cad>0</ns3:cad>
          </ns3:TrackPointExtension>
        </extensions>
      </trkpt>
      <trkpt lat="45.2920528315007686614990234375" lon="-70.883366949856281280517578125">
        <ele>827</ele>
        <time>2026-08-21T15:18:22.000Z</time>
        <extensions>
          <ns3:TrackPointExtension>
            <ns3:hr>129</ns3:hr>
            <ns3:cad>68</ns3:cad>
          </ns3:TrackPointExtension>
        </extensions>
      </trkpt>
      <trkpt lat="45.29203556478023529052734375" lon="-70.88339000009000301361083984375">
        <ele>826.79998779296875</ele>
        <time>2026-08-21T15:18:23.000Z</time>
        <extensions>
          <ns3:TrackPointExtension>
            <ns3:hr>129</ns3:hr>
            <ns3:cad>68</ns3:cad>
          </ns3:TrackPointExtension>
        </extensions>
      </trkpt>
      <trkpt lat="45.29202257283031940460205078125" lon="-70.88341162540018558502197265625">
        <ele>826.79998779296875</ele>
        <time>2026-08-21T15:18:24.000Z</time>
        <extensions>
          <ns3:TrackPointExtension>
            <ns3:hr>129</ns3:hr>
            <ns3:cad>68</ns3:cad>
          </ns3:TrackPointExtension>
        </extensions>
      </trkpt>
      <trkpt lat="45.29201167635619640350341796875" lon="-70.883429311215877532958984375">
        <ele>826.79998779296875</ele>
        <time>2026-08-21T15:18:25.000Z</time>
        <extensions>
          <ns3:TrackPointExtension>
            <ns3:hr>129</ns3:hr>
            <ns3:cad>68</ns3:cad>
          </ns3:TrackPointExtension>
        </extensions>
      </trkpt>
      <trkpt lat="45.292005725204944610595703125" lon="-70.88344448246061801910400390625">
        <ele>826.5999755859375</ele>
        <time>2026-08-21T15:18:26.000Z</time>
        <extensions>
          <ns3:TrackPointExtension>
            <ns3:hr>129</ns3:hr>
            <ns3:cad>68</ns3:cad>
          </ns3:TrackPointExtension>
        </extensions>
      </trkpt>
      <trkpt lat="45.29199876822531223297119140625" lon="-70.8834609948098659515380859375">
        <ele>826.5999755859375</ele>
        <time>2026-08-21T15:18:27.000Z</time>
        <extensions>
          <ns3:TrackPointExtension>
            <ns3:hr>128</ns3:hr>
            <ns3:cad>68</ns3:cad>
          </ns3:TrackPointExtension>
        </extensions>
      </trkpt>
      <trkpt lat="45.291982255876064300537109375" lon="-70.8834898285567760467529296875">
        <ele>826.4000244140625</ele>
        <time>2026-08-21T15:18:28.000Z</time>
        <extensions>
          <ns3:TrackPointExtension>
            <ns3:hr>128</ns3:hr>
            <ns3:cad>68</ns3:cad>
          </ns3:TrackPointExtension>
        </extensions>
      </trkpt>
      <trkpt lat="45.291974209249019622802734375" lon="-70.8835065923631191253662109375">
        <ele>826.20001220703125</ele>
        <time>2026-08-21T15:18:29.000Z</time>
        <extensions>
          <ns3:TrackPointExtension>
            <ns3:hr>128</ns3:hr>
            <ns3:cad>68</ns3:cad>
          </ns3:TrackPointExtension>
        </extensions>
      </trkpt>
      <trkpt lat="45.2919727005064487457275390625" lon="-70.88351958431303501129150390625">
        <ele>826.20001220703125</ele>
        <time>2026-08-21T15:18:30.000Z</time>
        <extensions>
          <ns3:TrackPointExtension>
            <ns3:hr>128</ns3:hr>
            <ns3:cad>68</ns3:cad>
          </ns3:TrackPointExtension>
        </extensions>
      </trkpt>
      <trkpt lat="45.2919653244316577911376953125" lon="-70.8835411258041858673095703125">
        <ele>826</ele>
        <time>2026-08-21T15:18:31.000Z</time>
        <extensions>
          <ns3:TrackPointExtension>
            <ns3:hr>128</ns3:hr>
            <ns3:cad>68</ns3:cad>
          </ns3:TrackPointExtension>
        </extensions>
      </trkpt>
      <trkpt lat="45.29196138493716716766357421875" lon="-70.8835806883871555328369140625">
        <ele>825.79998779296875</ele>
        <time>2026-08-21T15:18:32.000Z</time>
        <extensions>
          <ns3:TrackPointExtension>
            <ns3:hr>128</ns3:hr>
            <ns3:cad>60</ns3:cad>
          </ns3:TrackPointExtension>
        </extensions>
      </trkpt>
      <trkpt lat="45.29195870272815227508544921875" lon="-70.88359921239316463470458984375">
        <ele>825.5999755859375</ele>
        <time>2026-08-21T15:18:33.000Z</time>
        <extensions>
          <ns3:TrackPointExtension>
            <ns3:hr>128</ns3:hr>
            <ns3:cad>60</ns3:cad>
          </ns3:TrackPointExtension>
        </extensions>
      </trkpt>
      <trkpt lat="45.291958115994930267333984375" lon="-70.8836115337908267974853515625">
        <ele>825.4000244140625</ele>
        <time>2026-08-21T15:18:34.000Z</time>
        <extensions>
          <ns3:TrackPointExtension>
            <ns3:hr>128</ns3:hr>
            <ns3:cad>60</ns3:cad>
          </ns3:TrackPointExtension>
        </extensions>
      </trkpt>
      <trkpt lat="45.2919596247375011444091796875" lon="-70.88363776914775371551513671875">
        <ele>825.4000244140625</ele>
        <time>2026-08-21T15:18:35.000Z</time>
        <extensions>
          <ns3:TrackPointExtension>
            <ns3:hr>128</ns3:hr>
            <ns3:cad>57</ns3:cad>
          </ns3:TrackPointExtension>
        </extensions>
      </trkpt>
      <trkpt lat="45.29197043739259243011474609375" lon="-70.8836638368666172027587890625">
        <ele>825.20001220703125</ele>
        <time>2026-08-21T15:18:36.000Z</time>
        <extensions>
          <ns3:TrackPointExtension>
            <ns3:hr>128</ns3:hr>
            <ns3:cad>57</ns3:cad>
          </ns3:TrackPointExtension>
        </extensions>
      </trkpt>
      <trkpt lat="45.29197429306805133819580078125" lon="-70.88367917574942111968994140625">
        <ele>825</ele>
        <time>2026-08-21T15:18:37.000Z</time>
        <extensions>
          <ns3:TrackPointExtension>
            <ns3:hr>128</ns3:hr>
            <ns3:cad>57</ns3:cad>
          </ns3:TrackPointExtension>
        </extensions>
      </trkpt>
      <trkpt lat="45.29197546653449535369873046875" lon="-70.883691497147083282470703125">
        <ele>825</ele>
        <time>2026-08-21T15:18:38.000Z</time>
        <extensions>
          <ns3:TrackPointExtension>
            <ns3:hr>128</ns3:hr>
            <ns3:cad>57</ns3:cad>
          </ns3:TrackPointExtension>
        </extensions>
      </trkpt>
      <trkpt lat="45.29198166914284229278564453125" lon="-70.88370817713439464569091796875">
        <ele>824.79998779296875</ele>
        <time>2026-08-21T15:18:39.000Z</time>
        <extensions>
          <ns3:TrackPointExtension>
            <ns3:hr>130</ns3:hr>
            <ns3:cad>59</ns3:cad>
          </ns3:TrackPointExtension>
        </extensions>
      </trkpt>
      <trkpt lat="45.29198552481830120086669921875" lon="-70.883728377521038055419921875">
        <ele>824.4000244140625</ele>
        <time>2026-08-21T15:18:40.000Z</time>
        <extensions>
          <ns3:TrackPointExtension>
            <ns3:hr>130</ns3:hr>
            <ns3:cad>48</ns3:cad>
          </ns3:TrackPointExtension>
        </extensions>
      </trkpt>
      <trkpt lat="45.2919884584844112396240234375" lon="-70.88374220766127109527587890625">
        <ele>824.20001220703125</ele>
        <time>2026-08-21T15:18:41.000Z</time>
        <extensions>
          <ns3:TrackPointExtension>
            <ns3:hr>131</ns3:hr>
            <ns3:cad>48</ns3:cad>
          </ns3:TrackPointExtension>
        </extensions>
      </trkpt>
      <trkpt lat="45.29199038632214069366455078125" lon="-70.88375176303088665008544921875">
        <ele>824.20001220703125</ele>
        <time>2026-08-21T15:18:42.000Z</time>
        <extensions>
          <ns3:TrackPointExtension>
            <ns3:hr>131</ns3:hr>
            <ns3:cad>0</ns3:cad>
          </ns3:TrackPointExtension>
        </extensions>
      </trkpt>
      <trkpt lat="45.29199390672147274017333984375" lon="-70.88376617990434169769287109375">
        <ele>824</ele>
        <time>2026-08-21T15:18:43.000Z</time>
        <extensions>
          <ns3:TrackPointExtension>
            <ns3:hr>131</ns3:hr>
            <ns3:cad>0</ns3:cad>
          </ns3:TrackPointExtension>
        </extensions>
      </trkpt>
      <trkpt lat="45.29199491254985332489013671875" lon="-70.8837821893393993377685546875">
        <ele>824</ele>
        <time>2026-08-21T15:18:44.000Z</time>
        <extensions>
          <ns3:TrackPointExtension>
            <ns3:hr>131</ns3:hr>
            <ns3:cad>0</ns3:cad>
          </ns3:TrackPointExtension>
        </extensions>
      </trkpt>
      <trkpt lat="45.29200027696788311004638671875" lon="-70.88380716741085052490234375">
        <ele>823.79998779296875</ele>
        <time>2026-08-21T15:18:45.000Z</time>
        <extensions>
          <ns3:TrackPointExtension>
            <ns3:hr>131</ns3:hr>
            <ns3:cad>60</ns3:cad>
          </ns3:TrackPointExtension>
        </extensions>
      </trkpt>
      <trkpt lat="45.292005725204944610595703125" lon="-70.88382669724524021148681640625">
        <ele>823.5999755859375</ele>
        <time>2026-08-21T15:18:46.000Z</time>
        <extensions>
          <ns3:TrackPointExtension>
            <ns3:hr>131</ns3:hr>
            <ns3:cad>60</ns3:cad>
          </ns3:TrackPointExtension>
        </extensions>
      </trkpt>
      <trkpt lat="45.2920011989772319793701171875" lon="-70.88384781964123249053955078125">
        <ele>823.4000244140625</ele>
        <time>2026-08-21T15:18:47.000Z</time>
        <extensions>
          <ns3:TrackPointExtension>
            <ns3:hr>131</ns3:hr>
            <ns3:cad>57</ns3:cad>
          </ns3:TrackPointExtension>
        </extensions>
      </trkpt>
      <trkpt lat="45.29199876822531223297119140625" lon="-70.88387883268296718597412109375">
        <ele>823.20001220703125</ele>
        <time>2026-08-21T15:18:48.000Z</time>
        <extensions>
          <ns3:TrackPointExtension>
            <ns3:hr>130</ns3:hr>
            <ns3:cad>57</ns3:cad>
          </ns3:TrackPointExtension>
        </extensions>
      </trkpt>
      <trkpt lat="45.2919985167682170867919921875" lon="-70.88389358483254909515380859375">
        <ele>823</ele>
        <time>2026-08-21T15:18:49.000Z</time>
        <extensions>
          <ns3:TrackPointExtension>
            <ns3:hr>130</ns3:hr>
            <ns3:cad>55</ns3:cad>
          </ns3:TrackPointExtension>
        </extensions>
      </trkpt>
      <trkpt lat="45.29199667274951934814453125" lon="-70.88390951044857501983642578125">
        <ele>822.5999755859375</ele>
        <time>2026-08-21T15:18:50.000Z</time>
        <extensions>
          <ns3:TrackPointExtension>
            <ns3:hr>131</ns3:hr>
            <ns3:cad>55</ns3:cad>
          </ns3:TrackPointExtension>
        </extensions>
      </trkpt>
      <trkpt lat="45.291997008025646209716796875" lon="-70.88392878882586956024169921875">
        <ele>822.4000244140625</ele>
        <time>2026-08-21T15:18:51.000Z</time>
        <extensions>
          <ns3:TrackPointExtension>
            <ns3:hr>131</ns3:hr>
            <ns3:cad>53</ns3:cad>
          </ns3:TrackPointExtension>
        </extensions>
      </trkpt>
      <trkpt lat="45.291998684406280517578125" lon="-70.88394471444189548492431640625">
        <ele>822.20001220703125</ele>
        <time>2026-08-21T15:18:52.000Z</time>
        <extensions>
          <ns3:TrackPointExtension>
            <ns3:hr>131</ns3:hr>
            <ns3:cad>53</ns3:cad>
          </ns3:TrackPointExtension>
        </extensions>
      </trkpt>
      <trkpt lat="45.29199692420661449432373046875" lon="-70.8839582093060016632080078125">
        <ele>822.20001220703125</ele>
        <time>2026-08-21T15:18:53.000Z</time>
        <extensions>
          <ns3:TrackPointExtension>
            <ns3:hr>131</ns3:hr>
            <ns3:cad>53</ns3:cad>
          </ns3:TrackPointExtension>
        </extensions>
      </trkpt>
      <trkpt lat="45.29199373908340930938720703125" lon="-70.88397187180817127227783203125">
        <ele>822</ele>
        <time>2026-08-21T15:18:54.000Z</time>
        <extensions>
          <ns3:TrackPointExtension>
            <ns3:hr>132</ns3:hr>
            <ns3:cad>53</ns3:cad>
          </ns3:TrackPointExtension>
        </extensions>
      </trkpt>
      <trkpt lat="45.29199524782598018646240234375" lon="-70.88398343883454799652099609375">
        <ele>822</ele>
        <time>2026-08-21T15:18:55.000Z</time>
        <extensions>
          <ns3:TrackPointExtension>
            <ns3:hr>132</ns3:hr>
            <ns3:cad>53</ns3:cad>
          </ns3:TrackPointExtension>
        </extensions>
      </trkpt>
      <trkpt lat="45.29200111515820026397705078125" lon="-70.88401311077177524566650390625">
        <ele>821.79998779296875</ele>
        <time>2026-08-21T15:18:56.000Z</time>
        <extensions>
          <ns3:TrackPointExtension>
            <ns3:hr>131</ns3:hr>
            <ns3:cad>60</ns3:cad>
          </ns3:TrackPointExtension>
        </extensions>
      </trkpt>
      <trkpt lat="45.29199943877756595611572265625" lon="-70.88403440080583095550537109375">
        <ele>821.5999755859375</ele>
        <time>2026-08-21T15:18:57.000Z</time>
        <extensions>
          <ns3:TrackPointExtension>
            <ns3:hr>131</ns3:hr>
            <ns3:cad>60</ns3:cad>
          </ns3:TrackPointExtension>
        </extensions>
      </trkpt>
      <trkpt lat="45.2919901348650455474853515625" lon="-70.88404680602252483367919921875">
        <ele>821.20001220703125</ele>
        <time>2026-08-21T15:18:58.000Z</time>
        <extensions>
          <ns3:TrackPointExtension>
            <ns3:hr>130</ns3:hr>
            <ns3:cad>60</ns3:cad>
          </ns3:TrackPointExtension>
        </extensions>
      </trkpt>
      <trkpt lat="45.2919854409992694854736328125" lon="-70.8840654976665973663330078125">
        <ele>821</ele>
        <time>2026-08-21T15:18:59.000Z</time>
        <extensions>
          <ns3:TrackPointExtension>
            <ns3:hr>130</ns3:hr>
            <ns3:cad>60</ns3:cad>
          </ns3:TrackPointExtension>
        </extensions>
      </trkpt>
      <trkpt lat="45.29198468662798404693603515625" lon="-70.88408636860549449920654296875">
        <ele>820.5999755859375</ele>
        <time>2026-08-21T15:19:00.000Z</time>
        <extensions>
          <ns3:TrackPointExtension>
            <ns3:hr>131</ns3:hr>
            <ns3:cad>60</ns3:cad>
          </ns3:TrackPointExtension>
        </extensions>
      </trkpt>
      <trkpt lat="45.2919824235141277313232421875" lon="-70.8841188065707683563232421875">
        <ele>820.4000244140625</ele>
        <time>2026-08-21T15:19:01.000Z</time>
        <extensions>
          <ns3:TrackPointExtension>
            <ns3:hr>131</ns3:hr>
            <ns3:cad>73</ns3:cad>
          </ns3:TrackPointExtension>
        </extensions>
      </trkpt>
      <trkpt lat="45.291978232562541961669921875" lon="-70.884142108261585235595703125">
        <ele>820</ele>
        <time>2026-08-21T15:19:02.000Z</time>
        <extensions>
          <ns3:TrackPointExtension>
            <ns3:hr>131</ns3:hr>
            <ns3:cad>73</ns3:cad>
          </ns3:TrackPointExtension>
        </extensions>
      </trkpt>
      <trkpt lat="45.291975550353527069091796875" lon="-70.8841640688478946685791015625">
        <ele>819.79998779296875</ele>
        <time>2026-08-21T15:19:03.000Z</time>
        <extensions>
          <ns3:TrackPointExtension>
            <ns3:hr>131</ns3:hr>
            <ns3:cad>75</ns3:cad>
          </ns3:TrackPointExtension>
        </extensions>
      </trkpt>
      <trkpt lat="45.29197412542998790740966796875" lon="-70.88418393395841121673583984375">
        <ele>819.4000244140625</ele>
        <time>2026-08-21T15:19:04.000Z</time>
        <extensions>
          <ns3:TrackPointExtension>
            <ns3:hr>131</ns3:hr>
            <ns3:cad>75</ns3:cad>
          </ns3:TrackPointExtension>
        </extensions>
      </trkpt>
      <trkpt lat="45.2919696830213069915771484375" lon="-70.88419851846992969512939453125">
        <ele>819.20001220703125</ele>
        <time>2026-08-21T15:19:05.000Z</time>
        <extensions>
          <ns3:TrackPointExtension>
            <ns3:hr>131</ns3:hr>
            <ns3:cad>75</ns3:cad>
          </ns3:TrackPointExtension>
        </extensions>
      </trkpt>
      <trkpt lat="45.29195903800427913665771484375" lon="-70.88422081433236598968505859375">
        <ele>818.79998779296875</ele>
        <time>2026-08-21T15:19:06.000Z</time>
        <extensions>
          <ns3:TrackPointExtension>
            <ns3:hr>131</ns3:hr>
            <ns3:cad>75</ns3:cad>
          </ns3:TrackPointExtension>
        </extensions>
      </trkpt>
      <trkpt lat="45.2919505722820758819580078125" lon="-70.88423841632902622222900390625">
        <ele>818.5999755859375</ele>
        <time>2026-08-21T15:19:07.000Z</time>
        <extensions>
          <ns3:TrackPointExtension>
            <ns3:hr>132</ns3:hr>
            <ns3:cad>75</ns3:cad>
          </ns3:TrackPointExtension>
        </extensions>
      </trkpt>
      <trkpt lat="45.29194981791079044342041015625" lon="-70.88425098918378353118896484375">
        <ele>818.5999755859375</ele>
        <time>2026-08-21T15:19:08.000Z</time>
        <extensions>
          <ns3:TrackPointExtension>
            <ns3:hr>132</ns3:hr>
            <ns3:cad>71</ns3:cad>
          </ns3:TrackPointExtension>
        </extensions>
      </trkpt>
      <trkpt lat="45.29195082373917102813720703125" lon="-70.88427714072167873382568359375">
        <ele>818.4000244140625</ele>
        <time>2026-08-21T15:19:09.000Z</time>
        <extensions>
          <ns3:TrackPointExtension>
            <ns3:hr>132</ns3:hr>
            <ns3:cad>71</ns3:cad>
          </ns3:TrackPointExtension>
        </extensions>
      </trkpt>
      <trkpt lat="45.2919428609311580657958984375" lon="-70.88429507799446582794189453125">
        <ele>818.4000244140625</ele>
        <time>2026-08-21T15:19:10.000Z</time>
        <extensions>
          <ns3:TrackPointExtension>
            <ns3:hr>132</ns3:hr>
            <ns3:cad>71</ns3:cad>
          </ns3:TrackPointExtension>
        </extensions>
      </trkpt>
      <trkpt lat="45.2919361554086208343505859375" lon="-70.8843213133513927459716796875">
        <ele>818.20001220703125</ele>
        <time>2026-08-21T15:19:11.000Z</time>
        <extensions>
          <ns3:TrackPointExtension>
            <ns3:hr>132</ns3:hr>
            <ns3:cad>75</ns3:cad>
          </ns3:TrackPointExtension>
        </extensions>
      </trkpt>
      <trkpt lat="45.29193020425736904144287109375" lon="-70.884352661669254302978515625">
        <ele>818.20001220703125</ele>
        <time>2026-08-21T15:19:12.000Z</time>
        <extensions>
          <ns3:TrackPointExtension>
            <ns3:hr>131</ns3:hr>
            <ns3:cad>75</ns3:cad>
          </ns3:TrackPointExtension>
        </extensions>
      </trkpt>
      <trkpt lat="45.29192601330578327178955078125" lon="-70.88437688536942005157470703125">
        <ele>818</ele>
        <time>2026-08-21T15:19:13.000Z</time>
        <extensions>
          <ns3:TrackPointExtension>
            <ns3:hr>131</ns3:hr>
            <ns3:cad>75</ns3:cad>
          </ns3:TrackPointExtension>
        </extensions>
      </trkpt>
      <trkpt lat="45.29191796667873859405517578125" lon="-70.88439934886991977691650390625">
        <ele>818</ele>
        <time>2026-08-21T15:19:14.000Z</time>
        <extensions>
          <ns3:TrackPointExtension>
            <ns3:hr>131</ns3:hr>
            <ns3:cad>75</ns3:cad>
          </ns3:TrackPointExtension>
        </extensions>
      </trkpt>
      <trkpt lat="45.2919083274900913238525390625" lon="-70.884419381618499755859375">
        <ele>818</ele>
        <time>2026-08-21T15:19:15.000Z</time>
        <extensions>
          <ns3:TrackPointExtension>
            <ns3:hr>130</ns3:hr>
            <ns3:cad>75</ns3:cad>
          </ns3:TrackPointExtension>
        </extensions>
      </trkpt>
      <trkpt lat="45.2919002808630466461181640625" lon="-70.884439833462238311767578125">
        <ele>818</ele>
        <time>2026-08-21T15:19:16.000Z</time>
        <extensions>
          <ns3:TrackPointExtension>
            <ns3:hr>129</ns3:hr>
            <ns3:cad>71</ns3:cad>
          </ns3:TrackPointExtension>
        </extensions>
      </trkpt>
      <trkpt lat="45.29188930056989192962646484375" lon="-70.88445249013602733612060546875">
        <ele>817.79998779296875</ele>
        <time>2026-08-21T15:19:17.000Z</time>
        <extensions>
          <ns3:TrackPointExtension>
            <ns3:hr>129</ns3:hr>
            <ns3:cad>71</ns3:cad>
          </ns3:TrackPointExtension>
        </extensions>
      </trkpt>
      <trkpt lat="45.29187756590545177459716796875" lon="-70.8844688348472118377685546875">
        <ele>817.79998779296875</ele>
        <time>2026-08-21T15:19:18.000Z</time>
        <extensions>
          <ns3:TrackPointExtension>
            <ns3:hr>129</ns3:hr>
            <ns3:cad>69</ns3:cad>
          </ns3:TrackPointExtension>
        </extensions>
      </trkpt>
      <trkpt lat="45.29186683706939220428466796875" lon="-70.8844882808625698089599609375">
        <ele>817.5999755859375</ele>
        <time>2026-08-21T15:19:19.000Z</time>
        <extensions>
          <ns3:TrackPointExtension>
            <ns3:hr>129</ns3:hr>
            <ns3:cad>69</ns3:cad>
          </ns3:TrackPointExtension>
        </extensions>
      </trkpt>
      <trkpt lat="45.29185577295720577239990234375" lon="-70.884511582553386688232421875">
        <ele>817.4000244140625</ele>
        <time>2026-08-21T15:19:20.000Z</time>
        <extensions>
          <ns3:TrackPointExtension>
            <ns3:hr>129</ns3:hr>
            <ns3:cad>69</ns3:cad>
          </ns3:TrackPointExtension>
        </extensions>
      </trkpt>
      <trkpt lat="45.2918466366827487945556640625" lon="-70.884541757404804229736328125">
        <ele>817</ele>
        <time>2026-08-21T15:19:21.000Z</time>
        <extensions>
          <ns3:TrackPointExtension>
            <ns3:hr>130</ns3:hr>
            <ns3:cad>69</ns3:cad>
          </ns3:TrackPointExtension>
        </extensions>
      </trkpt>
      <trkpt lat="45.2918419428169727325439453125" lon="-70.8845664002001285552978515625">
        <ele>816.79998779296875</ele>
        <time>2026-08-21T15:19:22.000Z</time>
        <extensions>
          <ns3:TrackPointExtension>
            <ns3:hr>130</ns3:hr>
            <ns3:cad>69</ns3:cad>
          </ns3:TrackPointExtension>
        </extensions>
      </trkpt>
      <trkpt lat="45.29183682985603809356689453125" lon="-70.88459799997508525848388671875">
        <ele>816.5999755859375</ele>
        <time>2026-08-21T15:19:23.000Z</time>
        <extensions>
          <ns3:TrackPointExtension>
            <ns3:hr>130</ns3:hr>
            <ns3:cad>40</ns3:cad>
          </ns3:TrackPointExtension>
        </extensions>
      </trkpt>
      <trkpt lat="45.2918298728764057159423828125" lon="-70.88461644016206264495849609375">
        <ele>816.4000244140625</ele>
        <time>2026-08-21T15:19:24.000Z</time>
        <extensions>
          <ns3:TrackPointExtension>
            <ns3:hr>130</ns3:hr>
            <ns3:cad>40</ns3:cad>
          </ns3:TrackPointExtension>
        </extensions>
      </trkpt>
      <trkpt lat="45.291821658611297607421875" lon="-70.884638316929340362548828125">
        <ele>816</ele>
        <time>2026-08-21T15:19:25.000Z</time>
        <extensions>
          <ns3:TrackPointExtension>
            <ns3:hr>130</ns3:hr>
            <ns3:cad>40</ns3:cad>
          </ns3:TrackPointExtension>
        </extensions>
      </trkpt>
      <trkpt lat="45.291809923946857452392578125" lon="-70.884659104049205780029296875">
        <ele>815.5999755859375</ele>
        <time>2026-08-21T15:19:26.000Z</time>
        <extensions>
          <ns3:TrackPointExtension>
            <ns3:hr>129</ns3:hr>
            <ns3:cad>40</ns3:cad>
          </ns3:TrackPointExtension>
        </extensions>
      </trkpt>
      <trkpt lat="45.2917990274727344512939453125" lon="-70.88468181900680065155029296875">
        <ele>815.4000244140625</ele>
        <time>2026-08-21T15:19:27.000Z</time>
        <extensions>
          <ns3:TrackPointExtension>
            <ns3:hr>129</ns3:hr>
            <ns3:cad>40</ns3:cad>
          </ns3:TrackPointExtension>
        </extensions>
      </trkpt>
      <trkpt lat="45.29179475270211696624755859375" lon="-70.88470436632633209228515625">
        <ele>815</ele>
        <time>2026-08-21T15:19:28.000Z</time>
        <extensions>
          <ns3:TrackPointExtension>
            <ns3:hr>128</ns3:hr>
            <ns3:cad>40</ns3:cad>
          </ns3:TrackPointExtension>
        </extensions>
      </trkpt>
      <trkpt lat="45.291792489588260650634765625" lon="-70.88472540490329265594482421875">
        <ele>814.79998779296875</ele>
        <time>2026-08-21T15:19:29.000Z</time>
        <extensions>
          <ns3:TrackPointExtension>
            <ns3:hr>128</ns3:hr>
            <ns3:cad>40</ns3:cad>
          </ns3:TrackPointExtension>
        </extensions>
      </trkpt>
      <trkpt lat="45.2917862869799137115478515625" lon="-70.884742252528667449951171875">
        <ele>814.5999755859375</ele>
        <time>2026-08-21T15:19:30.000Z</time>
        <extensions>
          <ns3:TrackPointExtension>
            <ns3:hr>128</ns3:hr>
            <ns3:cad>40</ns3:cad>
          </ns3:TrackPointExtension>
        </extensions>
      </trkpt>
      <trkpt lat="45.291773378849029541015625" lon="-70.88476412929594516754150390625">
        <ele>814.4000244140625</ele>
        <time>2026-08-21T15:19:31.000Z</time>
        <extensions>
          <ns3:TrackPointExtension>
            <ns3:hr>128</ns3:hr>
            <ns3:cad>40</ns3:cad>
          </ns3:TrackPointExtension>
        </extensions>
      </trkpt>
      <trkpt lat="45.29175938107073307037353515625" lon="-70.8847803063690662384033203125">
        <ele>814.20001220703125</ele>
        <time>2026-08-21T15:19:32.000Z</time>
        <extensions>
          <ns3:TrackPointExtension>
            <ns3:hr>129</ns3:hr>
            <ns3:cad>40</ns3:cad>
          </ns3:TrackPointExtension>
        </extensions>
      </trkpt>
      <trkpt lat="45.29174848459661006927490234375" lon="-70.88479380123317241668701171875">
        <ele>814</ele>
        <time>2026-08-21T15:19:33.000Z</time>
        <extensions>
          <ns3:TrackPointExtension>
            <ns3:hr>128</ns3:hr>
            <ns3:cad>40</ns3:cad>
          </ns3:TrackPointExtension>
        </extensions>
      </trkpt>
      <trkpt lat="45.291740186512470245361328125" lon="-70.88482414372265338897705078125">
        <ele>814</ele>
        <time>2026-08-21T15:19:34.000Z</time>
        <extensions>
          <ns3:TrackPointExtension>
            <ns3:hr>128</ns3:hr>
            <ns3:cad>40</ns3:cad>
          </ns3:TrackPointExtension>
        </extensions>
      </trkpt>
      <trkpt lat="45.291730798780918121337890625" lon="-70.88484543375670909881591796875">
        <ele>813.79998779296875</ele>
        <time>2026-08-21T15:19:35.000Z</time>
        <extensions>
          <ns3:TrackPointExtension>
            <ns3:hr>128</ns3:hr>
            <ns3:cad>74</ns3:cad>
          </ns3:TrackPointExtension>
        </extensions>
      </trkpt>
      <trkpt lat="45.2917232550680637359619140625" lon="-70.88486806489527225494384765625">
        <ele>813.4000244140625</ele>
        <time>2026-08-21T15:19:36.000Z</time>
        <extensions>
          <ns3:TrackPointExtension>
            <ns3:hr>128</ns3:hr>
            <ns3:cad>74</ns3:cad>
          </ns3:TrackPointExtension>
        </extensions>
      </trkpt>
      <trkpt lat="45.2917142026126384735107421875" lon="-70.8848892711102962493896484375">
        <ele>813.20001220703125</ele>
        <time>2026-08-21T15:19:37.000Z</time>
        <extensions>
          <ns3:TrackPointExtension>
            <ns3:hr>128</ns3:hr>
            <ns3:cad>74</ns3:cad>
          </ns3:TrackPointExtension>
        </extensions>
      </trkpt>
      <trkpt lat="45.2917024679481983184814453125" lon="-70.8849127404391765594482421875">
        <ele>813</ele>
        <time>2026-08-21T15:19:38.000Z</time>
        <extensions>
          <ns3:TrackPointExtension>
            <ns3:hr>128</ns3:hr>
            <ns3:cad>75</ns3:cad>
          </ns3:TrackPointExtension>
        </extensions>
      </trkpt>
      <trkpt lat="45.29169484041631221771240234375" lon="-70.8849335275590419769287109375">
        <ele>812.79998779296875</ele>
        <time>2026-08-21T15:19:39.000Z</time>
        <extensions>
          <ns3:TrackPointExtension>
            <ns3:hr>129</ns3:hr>
            <ns3:cad>75</ns3:cad>
          </ns3:TrackPointExtension>
        </extensions>
      </trkpt>
      <trkpt lat="45.29168293811380863189697265625" lon="-70.8849652111530303955078125">
        <ele>812.5999755859375</ele>
        <time>2026-08-21T15:19:40.000Z</time>
        <extensions>
          <ns3:TrackPointExtension>
            <ns3:hr>128</ns3:hr>
            <ns3:cad>75</ns3:cad>
          </ns3:TrackPointExtension>
        </extensions>
      </trkpt>
      <trkpt lat="45.2916702814400196075439453125" lon="-70.8849893510341644287109375">
        <ele>812.4000244140625</ele>
        <time>2026-08-21T15:19:41.000Z</time>
        <extensions>
          <ns3:TrackPointExtension>
            <ns3:hr>128</ns3:hr>
            <ns3:cad>75</ns3:cad>
          </ns3:TrackPointExtension>
        </extensions>
      </trkpt>
      <trkpt lat="45.291658379137516021728515625" lon="-70.8850054442882537841796875">
        <ele>812</ele>
        <time>2026-08-21T15:19:42.000Z</time>
        <extensions>
          <ns3:TrackPointExtension>
            <ns3:hr>129</ns3:hr>
            <ns3:cad>75</ns3:cad>
          </ns3:TrackPointExtension>
        </extensions>
      </trkpt>
      <trkpt lat="45.29164589010179042816162109375" lon="-70.8850215375423431396484375">
        <ele>811.79998779296875</ele>
        <time>2026-08-21T15:19:43.000Z</time>
        <extensions>
          <ns3:TrackPointExtension>
            <ns3:hr>129</ns3:hr>
            <ns3:cad>75</ns3:cad>
          </ns3:TrackPointExtension>
        </extensions>
      </trkpt>
      <trkpt lat="45.29163113795220851898193359375" lon="-70.88504374958574771881103515625">
        <ele>811.5999755859375</ele>
        <time>2026-08-21T15:19:44.000Z</time>
        <extensions>
          <ns3:TrackPointExtension>
            <ns3:hr>129</ns3:hr>
            <ns3:cad>77</ns3:cad>
          </ns3:TrackPointExtension>
        </extensions>
      </trkpt>
      <trkpt lat="45.291616804897785186767578125" lon="-70.88506738655269145965576171875">
        <ele>811.4000244140625</ele>
        <time>2026-08-21T15:19:45.000Z</time>
        <extensions>
          <ns3:TrackPointExtension>
            <ns3:hr>130</ns3:hr>
            <ns3:cad>77</ns3:cad>
          </ns3:TrackPointExtension>
        </extensions>
      </trkpt>
      <trkpt lat="45.29160515405237674713134765625" lon="-70.8850921131670475006103515625">
        <ele>811.20001220703125</ele>
        <time>2026-08-21T15:19:46.000Z</time>
        <extensions>
          <ns3:TrackPointExtension>
            <ns3:hr>130</ns3:hr>
            <ns3:cad>77</ns3:cad>
          </ns3:TrackPointExtension>
        </extensions>
      </trkpt>
      <trkpt lat="45.29159626923501491546630859375" lon="-70.88512136600911617279052734375">
        <ele>811</ele>
        <time>2026-08-21T15:19:47.000Z</time>
        <extensions>
          <ns3:TrackPointExtension>
            <ns3:hr>130</ns3:hr>
            <ns3:cad>0</ns3:cad>
          </ns3:TrackPointExtension>
        </extensions>
      </trkpt>
      <trkpt lat="45.291588641703128814697265625" lon="-70.88513896800577640533447265625">
        <ele>810.79998779296875</ele>
        <time>2026-08-21T15:19:48.000Z</time>
        <extensions>
          <ns3:TrackPointExtension>
            <ns3:hr>130</ns3:hr>
            <ns3:cad>0</ns3:cad>
          </ns3:TrackPointExtension>
        </extensions>
      </trkpt>
      <trkpt lat="45.291581936180591583251953125" lon="-70.8851631917059421539306640625">
        <ele>810.4000244140625</ele>
        <time>2026-08-21T15:19:49.000Z</time>
        <extensions>
          <ns3:TrackPointExtension>
            <ns3:hr>131</ns3:hr>
            <ns3:cad>70</ns3:cad>
          </ns3:TrackPointExtension>
        </extensions>
      </trkpt>
      <trkpt lat="45.2915730513632297515869140625" lon="-70.8851809613406658172607421875">
        <ele>810.20001220703125</ele>
        <time>2026-08-21T15:19:50.000Z</time>
        <extensions>
          <ns3:TrackPointExtension>
            <ns3:hr>131</ns3:hr>
            <ns3:cad>71</ns3:cad>
          </ns3:TrackPointExtension>
        </extensions>
      </trkpt>
      <trkpt lat="45.29156123287975788116455078125" lon="-70.8852039277553558349609375">
        <ele>810</ele>
        <time>2026-08-21T15:19:51.000Z</time>
        <extensions>
          <ns3:TrackPointExtension>
            <ns3:hr>131</ns3:hr>
            <ns3:cad>71</ns3:cad>
          </ns3:TrackPointExtension>
        </extensions>
      </trkpt>
      <trkpt lat="45.29155301861464977264404296875" lon="-70.8852185122668743133544921875">
        <ele>809.79998779296875</ele>
        <time>2026-08-21T15:19:52.000Z</time>
        <extensions>
          <ns3:TrackPointExtension>
            <ns3:hr>132</ns3:hr>
            <ns3:cad>73</ns3:cad>
          </ns3:TrackPointExtension>
        </extensions>
      </trkpt>
      <trkpt lat="45.29154664836823940277099609375" lon="-70.88523016311228275299072265625">
        <ele>809.79998779296875</ele>
        <time>2026-08-21T15:19:53.000Z</time>
        <extensions>
          <ns3:TrackPointExtension>
            <ns3:hr>131</ns3:hr>
            <ns3:cad>73</ns3:cad>
          </ns3:TrackPointExtension>
        </extensions>
      </trkpt>
      <trkpt lat="45.29153860174119472503662109375" lon="-70.88523820973932743072509765625">
        <ele>809.5999755859375</ele>
        <time>2026-08-21T15:19:54.000Z</time>
        <extensions>
          <ns3:TrackPointExtension>
            <ns3:hr>131</ns3:hr>
            <ns3:cad>73</ns3:cad>
          </ns3:TrackPointExtension>
        </extensions>
      </trkpt>
      <trkpt lat="45.29152887873351573944091796875" lon="-70.8852495253086090087890625">
        <ele>809.4000244140625</ele>
        <time>2026-08-21T15:19:55.000Z</time>
        <extensions>
          <ns3:TrackPointExtension>
            <ns3:hr>130</ns3:hr>
            <ns3:cad>73</ns3:cad>
          </ns3:TrackPointExtension>
        </extensions>
      </trkpt>
      <trkpt lat="45.29151697643101215362548828125" lon="-70.88526486419141292572021484375">
        <ele>809.4000244140625</ele>
        <time>2026-08-21T15:19:56.000Z</time>
        <extensions>
          <ns3:TrackPointExtension>
            <ns3:hr>130</ns3:hr>
            <ns3:cad>73</ns3:cad>
          </ns3:TrackPointExtension>
        </extensions>
      </trkpt>
      <trkpt lat="45.2915063314139842987060546875" lon="-70.88527567684650421142578125">
        <ele>809.20001220703125</ele>
        <time>2026-08-21T15:19:57.000Z</time>
        <extensions>
          <ns3:TrackPointExtension>
            <ns3:hr>130</ns3:hr>
            <ns3:cad>73</ns3:cad>
          </ns3:TrackPointExtension>
        </extensions>
      </trkpt>
      <trkpt lat="45.291495434939861297607421875" lon="-70.88528783060610294342041015625">
        <ele>809</ele>
        <time>2026-08-21T15:19:58.000Z</time>
        <extensions>
          <ns3:TrackPointExtension>
            <ns3:hr>131</ns3:hr>
            <ns3:cad>73</ns3:cad>
          </ns3:TrackPointExtension>
        </extensions>
      </trkpt>
      <trkpt lat="45.29148512519896030426025390625" lon="-70.8852999843657016754150390625">
        <ele>808.79998779296875</ele>
        <time>2026-08-21T15:19:59.000Z</time>
        <extensions>
          <ns3:TrackPointExtension>
            <ns3:hr>131</ns3:hr>
            <ns3:cad>62</ns3:cad>
          </ns3:TrackPointExtension>
        </extensions>
      </trkpt>
      <trkpt lat="45.29147506691515445709228515625" lon="-70.8853113837540149688720703125">
        <ele>808.79998779296875</ele>
        <time>2026-08-21T15:20:00.000Z</time>
        <extensions>
          <ns3:TrackPointExtension>
            <ns3:hr>131</ns3:hr>
            <ns3:cad>62</ns3:cad>
          </ns3:TrackPointExtension>
        </extensions>
      </trkpt>
      <trkpt lat="45.2914650924503803253173828125" lon="-70.88532336987555027008056640625">
        <ele>808.5999755859375</ele>
        <time>2026-08-21T15:20:01.000Z</time>
        <extensions>
          <ns3:TrackPointExtension>
            <ns3:hr>131</ns3:hr>
            <ns3:cad>61</ns3:cad>
          </ns3:TrackPointExtension>
        </extensions>
      </trkpt>
      <trkpt lat="45.2914560399949550628662109375" lon="-70.88533745147287845611572265625">
        <ele>808.4000244140625</ele>
        <time>2026-08-21T15:20:02.000Z</time>
        <extensions>
          <ns3:TrackPointExtension>
            <ns3:hr>132</ns3:hr>
            <ns3:cad>61</ns3:cad>
          </ns3:TrackPointExtension>
        </extensions>
      </trkpt>
      <trkpt lat="45.29144472442567348480224609375" lon="-70.885349772870540618896484375">
        <ele>808.20001220703125</ele>
        <time>2026-08-21T15:20:03.000Z</time>
        <extensions>
          <ns3:TrackPointExtension>
            <ns3:hr>131</ns3:hr>
            <ns3:cad>61</ns3:cad>
          </ns3:TrackPointExtension>
        </extensions>
      </trkpt>
      <trkpt lat="45.2914319001138210296630859375" lon="-70.8853593282401561737060546875">
        <ele>808</ele>
        <time>2026-08-21T15:20:04.000Z</time>
        <extensions>
          <ns3:TrackPointExtension>
            <ns3:hr>131</ns3:hr>
            <ns3:cad>61</ns3:cad>
          </ns3:TrackPointExtension>
        </extensions>
      </trkpt>
      <trkpt lat="45.29142142273485660552978515625" lon="-70.8853646926581859588623046875">
        <ele>807.79998779296875</ele>
        <time>2026-08-21T15:20:05.000Z</time>
        <extensions>
          <ns3:TrackPointExtension>
            <ns3:hr>130</ns3:hr>
            <ns3:cad>61</ns3:cad>
          </ns3:TrackPointExtension>
        </extensions>
      </trkpt>
      <trkpt lat="45.29141136445105075836181640625" lon="-70.88536980561912059783935546875">
        <ele>807.79998779296875</ele>
        <time>2026-08-21T15:20:06.000Z</time>
        <extensions>
          <ns3:TrackPointExtension>
            <ns3:hr>130</ns3:hr>
            <ns3:cad>62</ns3:cad>
          </ns3:TrackPointExtension>
        </extensions>
      </trkpt>
      <trkpt lat="45.29139460064470767974853515625" lon="-70.88537517003715038299560546875">
        <ele>807.5999755859375</ele>
        <time>2026-08-21T15:20:07.000Z</time>
        <extensions>
          <ns3:TrackPointExtension>
            <ns3:hr>130</ns3:hr>
            <ns3:cad>62</ns3:cad>
          </ns3:TrackPointExtension>
        </extensions>
      </trkpt>
      <trkpt lat="45.29138186015188694000244140625" lon="-70.88538338430225849151611328125">
        <ele>807.4000244140625</ele>
        <time>2026-08-21T15:20:08.000Z</time>
        <extensions>
          <ns3:TrackPointExtension>
            <ns3:hr>130</ns3:hr>
            <ns3:cad>62</ns3:cad>
          </ns3:TrackPointExtension>
        </extensions>
      </trkpt>
      <trkpt lat="45.2913688682019710540771484375" lon="-70.88538874872028827667236328125">
        <ele>807.20001220703125</ele>
        <time>2026-08-21T15:20:09.000Z</time>
        <extensions>
          <ns3:TrackPointExtension>
            <ns3:hr>130</ns3:hr>
            <ns3:cad>62</ns3:cad>
          </ns3:TrackPointExtension>
        </extensions>
      </trkpt>
      <trkpt lat="45.29135067947208881378173828125" lon="-70.8853988908231258392333984375">
        <ele>807.20001220703125</ele>
        <time>2026-08-21T15:20:10.000Z</time>
        <extensions>
          <ns3:TrackPointExtension>
            <ns3:hr>130</ns3:hr>
            <ns3:cad>62</ns3:cad>
          </ns3:TrackPointExtension>
        </extensions>
      </trkpt>
      <trkpt lat="45.2913353405892848968505859375" lon="-70.8854099549353122711181640625">
        <ele>807</ele>
        <time>2026-08-21T15:20:11.000Z</time>
        <extensions>
          <ns3:TrackPointExtension>
            <ns3:hr>131</ns3:hr>
            <ns3:cad>61</ns3:cad>
          </ns3:TrackPointExtension>
        </extensions>
      </trkpt>
      <trkpt lat="45.291322432458400726318359375" lon="-70.88541892357170581817626953125">
        <ele>807</ele>
        <time>2026-08-21T15:20:12.000Z</time>
        <extensions>
          <ns3:TrackPointExtension>
            <ns3:hr>131</ns3:hr>
            <ns3:cad>61</ns3:cad>
          </ns3:TrackPointExtension>
        </extensions>
      </trkpt>
      <trkpt lat="45.29130944050848484039306640625" lon="-70.88542780838906764984130859375">
        <ele>806.79998779296875</ele>
        <time>2026-08-21T15:20:13.000Z</time>
        <extensions>
          <ns3:TrackPointExtension>
            <ns3:hr>130</ns3:hr>
            <ns3:cad>61</ns3:cad>
          </ns3:TrackPointExtension>
        </extensions>
      </trkpt>
      <trkpt lat="45.29129301197826862335205078125" lon="-70.88543836958706378936767578125">
        <ele>806.5999755859375</ele>
        <time>2026-08-21T15:20:14.000Z</time>
        <extensions>
          <ns3:TrackPointExtension>
            <ns3:hr>130</ns3:hr>
            <ns3:cad>61</ns3:cad>
          </ns3:TrackPointExtension>
        </extensions>
      </trkpt>
      <trkpt lat="45.29127784073352813720703125" lon="-70.885452367365360260009765625">
        <ele>806.5999755859375</ele>
        <time>2026-08-21T15:20:15.000Z</time>
        <extensions>
          <ns3:TrackPointExtension>
            <ns3:hr>130</ns3:hr>
            <ns3:cad>61</ns3:cad>
          </ns3:TrackPointExtension>
        </extensions>
      </trkpt>
      <trkpt lat="45.29126442968845367431640625" lon="-70.88546519167721271514892578125">
        <ele>806.4000244140625</ele>
        <time>2026-08-21T15:20:16.000Z</time>
        <extensions>
          <ns3:TrackPointExtension>
            <ns3:hr>130</ns3:hr>
            <ns3:cad>61</ns3:cad>
          </ns3:TrackPointExtension>
        </extensions>
      </trkpt>
      <trkpt lat="45.29125344939529895782470703125" lon="-70.885471813380718231201171875">
        <ele>806.20001220703125</ele>
        <time>2026-08-21T15:20:17.000Z</time>
        <extensions>
          <ns3:TrackPointExtension>
            <ns3:hr>131</ns3:hr>
            <ns3:cad>61</ns3:cad>
          </ns3:TrackPointExtension>
        </extensions>
      </trkpt>
      <trkpt lat="45.291239954531192779541015625" lon="-70.88547742925584316253662109375">
        <ele>806.20001220703125</ele>
        <time>2026-08-21T15:20:18.000Z</time>
        <extensions>
          <ns3:TrackPointExtension>
            <ns3:hr>130</ns3:hr>
            <ns3:cad>60</ns3:cad>
          </ns3:TrackPointExtension>
        </extensions>
      </trkpt>
      <trkpt lat="45.29122629202902317047119140625" lon="-70.8854810334742069244384765625">
        <ele>806</ele>
        <time>2026-08-21T15:20:19.000Z</time>
        <extensions>
          <ns3:TrackPointExtension>
            <ns3:hr>130</ns3:hr>
            <ns3:cad>59</ns3:cad>
          </ns3:TrackPointExtension>
        </extensions>
      </trkpt>
      <trkpt lat="45.2912116236984729766845703125" lon="-70.8854870684444904327392578125">
        <ele>806</ele>
        <time>2026-08-21T15:20:20.000Z</time>
        <extensions>
          <ns3:TrackPointExtension>
            <ns3:hr>130</ns3:hr>
            <ns3:cad>59</ns3:cad>
          </ns3:TrackPointExtension>
        </extensions>
      </trkpt>
      <trkpt lat="45.291194021701812744140625" lon="-70.88549427688121795654296875">
        <ele>805.5999755859375</ele>
        <time>2026-08-21T15:20:21.000Z</time>
        <extensions>
          <ns3:TrackPointExtension>
            <ns3:hr>130</ns3:hr>
            <ns3:cad>59</ns3:cad>
          </ns3:TrackPointExtension>
        </extensions>
      </trkpt>
      <trkpt lat="45.291178263723850250244140625" lon="-70.88550073094666004180908203125">
        <ele>805.4000244140625</ele>
        <time>2026-08-21T15:20:22.000Z</time>
        <extensions>
          <ns3:TrackPointExtension>
            <ns3:hr>130</ns3:hr>
            <ns3:cad>59</ns3:cad>
          </ns3:TrackPointExtension>
        </extensions>
      </trkpt>
      <trkpt lat="45.291160829365253448486328125" lon="-70.8855091966688632965087890625">
        <ele>805.20001220703125</ele>
        <time>2026-08-21T15:20:23.000Z</time>
        <extensions>
          <ns3:TrackPointExtension>
            <ns3:hr>130</ns3:hr>
            <ns3:cad>59</ns3:cad>
          </ns3:TrackPointExtension>
        </extensions>
      </trkpt>
      <trkpt lat="45.29113811440765857696533203125" lon="-70.88551799766719341278076171875">
        <ele>805</ele>
        <time>2026-08-21T15:20:24.000Z</time>
        <extensions>
          <ns3:TrackPointExtension>
            <ns3:hr>129</ns3:hr>
            <ns3:cad>59</ns3:cad>
          </ns3:TrackPointExtension>
        </extensions>
      </trkpt>
      <trkpt lat="45.2911227755248546600341796875" lon="-70.88552755303680896759033203125">
        <ele>804.79998779296875</ele>
        <time>2026-08-21T15:20:25.000Z</time>
        <extensions>
          <ns3:TrackPointExtension>
            <ns3:hr>129</ns3:hr>
            <ns3:cad>59</ns3:cad>
          </ns3:TrackPointExtension>
        </extensions>
      </trkpt>
      <trkpt lat="45.29110525734722614288330078125" lon="-70.88554280810058116912841796875">
        <ele>804.4000244140625</ele>
        <time>2026-08-21T15:20:26.000Z</time>
        <extensions>
          <ns3:TrackPointExtension>
            <ns3:hr>129</ns3:hr>
            <ns3:cad>67</ns3:cad>
          </ns3:TrackPointExtension>
        </extensions>
      </trkpt>
      <trkpt lat="45.29108874499797821044921875" lon="-70.88556041009724140167236328125">
        <ele>804.20001220703125</ele>
        <time>2026-08-21T15:20:27.000Z</time>
        <extensions>
          <ns3:TrackPointExtension>
            <ns3:hr>129</ns3:hr>
            <ns3:cad>67</ns3:cad>
          </ns3:TrackPointExtension>
        </extensions>
      </trkpt>
      <trkpt lat="45.2910741604864597320556640625" lon="-70.885578431189060211181640625">
        <ele>804.20001220703125</ele>
        <time>2026-08-21T15:20:28.000Z</time>
        <extensions>
          <ns3:TrackPointExtension>
            <ns3:hr>129</ns3:hr>
            <ns3:cad>67</ns3:cad>
          </ns3:TrackPointExtension>
        </extensions>
      </trkpt>
      <trkpt lat="45.29105982743203639984130859375" lon="-70.88559293188154697418212890625">
        <ele>804</ele>
        <time>2026-08-21T15:20:29.000Z</time>
        <extensions>
          <ns3:TrackPointExtension>
            <ns3:hr>129</ns3:hr>
            <ns3:cad>67</ns3:cad>
          </ns3:TrackPointExtension>
        </extensions>
      </trkpt>
      <trkpt lat="45.29103904031217098236083984375" lon="-70.885613970458507537841796875">
        <ele>803.79998779296875</ele>
        <time>2026-08-21T15:20:30.000Z</time>
        <extensions>
          <ns3:TrackPointExtension>
            <ns3:hr>129</ns3:hr>
            <ns3:cad>67</ns3:cad>
          </ns3:TrackPointExtension>
        </extensions>
      </trkpt>
      <trkpt lat="45.29102076776325702667236328125" lon="-70.88563509285449981689453125">
        <ele>803.5999755859375</ele>
        <time>2026-08-21T15:20:31.000Z</time>
        <extensions>
          <ns3:TrackPointExtension>
            <ns3:hr>129</ns3:hr>
            <ns3:cad>19</ns3:cad>
          </ns3:TrackPointExtension>
        </extensions>
      </trkpt>
      <trkpt lat="45.29100718908011913299560546875" lon="-70.8856496773660182952880859375">
        <ele>803.4000244140625</ele>
        <time>2026-08-21T15:20:32.000Z</time>
        <extensions>
          <ns3:TrackPointExtension>
            <ns3:hr>129</ns3:hr>
            <ns3:cad>19</ns3:cad>
          </ns3:TrackPointExtension>
        </extensions>
      </trkpt>
      <trkpt lat="45.29099109582602977752685546875" lon="-70.8856657706201076507568359375">
        <ele>803.20001220703125</ele>
        <time>2026-08-21T15:20:33.000Z</time>
        <extensions>
          <ns3:TrackPointExtension>
            <ns3:hr>129</ns3:hr>
            <ns3:cad>19</ns3:cad>
          </ns3:TrackPointExtension>
        </extensions>
      </trkpt>
      <trkpt lat="45.29097072780132293701171875" lon="-70.88567934930324554443359375">
        <ele>803</ele>
        <time>2026-08-21T15:20:34.000Z</time>
        <extensions>
          <ns3:TrackPointExtension>
            <ns3:hr>129</ns3:hr>
            <ns3:cad>19</ns3:cad>
          </ns3:TrackPointExtension>
        </extensions>
      </trkpt>
      <trkpt lat="45.29095890931785106658935546875" lon="-70.8856919221580028533935546875">
        <ele>802.79998779296875</ele>
        <time>2026-08-21T15:20:35.000Z</time>
        <extensions>
          <ns3:TrackPointExtension>
            <ns3:hr>128</ns3:hr>
            <ns3:cad>19</ns3:cad>
          </ns3:TrackPointExtension>
        </extensions>
      </trkpt>
      <trkpt lat="45.2909423969686031341552734375" lon="-70.885710529983043670654296875">
        <ele>802.5999755859375</ele>
        <time>2026-08-21T15:20:36.000Z</time>
        <extensions>
          <ns3:TrackPointExtension>
            <ns3:hr>128</ns3:hr>
            <ns3:cad>19</ns3:cad>
          </ns3:TrackPointExtension>
        </extensions>
      </trkpt>
      <trkpt lat="45.29091984964907169342041015625" lon="-70.88572762906551361083984375">
        <ele>802.4000244140625</ele>
        <time>2026-08-21T15:20:37.000Z</time>
        <extensions>
          <ns3:TrackPointExtension>
            <ns3:hr>127</ns3:hr>
            <ns3:cad>77</ns3:cad>
          </ns3:TrackPointExtension>
        </extensions>
      </trkpt>
      <trkpt lat="45.29090006835758686065673828125" lon="-70.8857438899576663970947265625">
        <ele>802.20001220703125</ele>
        <time>2026-08-21T15:20:38.000Z</time>
        <extensions>
          <ns3:TrackPointExtension>
            <ns3:hr>127</ns3:hr>
            <ns3:cad>77</ns3:cad>
          </ns3:TrackPointExtension>
        </extensions>
      </trkpt>
      <trkpt lat="45.290882550179958343505859375" lon="-70.885756798088550567626953125">
        <ele>802</ele>
        <time>2026-08-21T15:20:39.000Z</time>
        <extensions>
          <ns3:TrackPointExtension>
            <ns3:hr>128</ns3:hr>
            <ns3:cad>77</ns3:cad>
          </ns3:TrackPointExtension>
        </extensions>
      </trkpt>
      <trkpt lat="45.29086302034556865692138671875" lon="-70.88577582500874996185302734375">
        <ele>801.79998779296875</ele>
        <time>2026-08-21T15:20:40.000Z</time>
        <extensions>
          <ns3:TrackPointExtension>
            <ns3:hr>128</ns3:hr>
            <ns3:cad>77</ns3:cad>
          </ns3:TrackPointExtension>
        </extensions>
      </trkpt>
      <trkpt lat="45.29084374196827411651611328125" lon="-70.88579292409121990203857421875">
        <ele>801.79998779296875</ele>
        <time>2026-08-21T15:20:41.000Z</time>
        <extensions>
          <ns3:TrackPointExtension>
            <ns3:hr>128</ns3:hr>
            <ns3:cad>77</ns3:cad>
          </ns3:TrackPointExtension>
        </extensions>
      </trkpt>
      <trkpt lat="45.2908294089138507843017578125" lon="-70.8858075924217700958251953125">
        <ele>801.5999755859375</ele>
        <time>2026-08-21T15:20:42.000Z</time>
        <extensions>
          <ns3:TrackPointExtension>
            <ns3:hr>127</ns3:hr>
            <ns3:cad>79</ns3:cad>
          </ns3:TrackPointExtension>
        </extensions>
      </trkpt>
      <trkpt lat="45.29081021435558795928955078125" lon="-70.88582410477101802825927734375">
        <ele>801.5999755859375</ele>
        <time>2026-08-21T15:20:43.000Z</time>
        <extensions>
          <ns3:TrackPointExtension>
            <ns3:hr>127</ns3:hr>
            <ns3:cad>79</ns3:cad>
          </ns3:TrackPointExtension>
        </extensions>
      </trkpt>
      <trkpt lat="45.29078976251184940338134765625" lon="-70.88584019802510738372802734375">
        <ele>801.5999755859375</ele>
        <time>2026-08-21T15:20:44.000Z</time>
        <extensions>
          <ns3:TrackPointExtension>
            <ns3:hr>127</ns3:hr>
            <ns3:cad>79</ns3:cad>
          </ns3:TrackPointExtension>
        </extensions>
      </trkpt>
      <trkpt lat="45.29077266342937946319580078125" lon="-70.88585771620273590087890625">
        <ele>801.4000244140625</ele>
        <time>2026-08-21T15:20:45.000Z</time>
        <extensions>
          <ns3:TrackPointExtension>
            <ns3:hr>127</ns3:hr>
            <ns3:cad>79</ns3:cad>
          </ns3:TrackPointExtension>
        </extensions>
      </trkpt>
      <trkpt lat="45.29075774364173412322998046875" lon="-70.8858719654381275177001953125">
        <ele>801.20001220703125</ele>
        <time>2026-08-21T15:20:46.000Z</time>
        <extensions>
          <ns3:TrackPointExtension>
            <ns3:hr>127</ns3:hr>
            <ns3:cad>79</ns3:cad>
          </ns3:TrackPointExtension>
        </extensions>
      </trkpt>
      <trkpt lat="45.2907402254641056060791015625" lon="-70.88589065708220005035400390625">
        <ele>801.20001220703125</ele>
        <time>2026-08-21T15:20:47.000Z</time>
        <extensions>
          <ns3:TrackPointExtension>
            <ns3:hr>126</ns3:hr>
            <ns3:cad>77</ns3:cad>
          </ns3:TrackPointExtension>
        </extensions>
      </trkpt>
      <trkpt lat="45.29072396457195281982421875" lon="-70.8859078399837017059326171875">
        <ele>801</ele>
        <time>2026-08-21T15:20:48.000Z</time>
        <extensions>
          <ns3:TrackPointExtension>
            <ns3:hr>127</ns3:hr>
            <ns3:cad>77</ns3:cad>
          </ns3:TrackPointExtension>
        </extensions>
      </trkpt>
      <trkpt lat="45.29070426709949970245361328125" lon="-70.88592871092259883880615234375">
        <ele>801</ele>
        <time>2026-08-21T15:20:49.000Z</time>
        <extensions>
          <ns3:TrackPointExtension>
            <ns3:hr>126</ns3:hr>
            <ns3:cad>77</ns3:cad>
          </ns3:TrackPointExtension>
        </extensions>
      </trkpt>
      <trkpt lat="45.2906884253025054931640625" lon="-70.8859463967382907867431640625">
        <ele>800.79998779296875</ele>
        <time>2026-08-21T15:20:50.000Z</time>
        <extensions>
          <ns3:TrackPointExtension>
            <ns3:hr>126</ns3:hr>
            <ns3:cad>77</ns3:cad>
          </ns3:TrackPointExtension>
        </extensions>
      </trkpt>
      <trkpt lat="45.29067006893455982208251953125" lon="-70.88596693240106105804443359375">
        <ele>800.79998779296875</ele>
        <time>2026-08-21T15:20:51.000Z</time>
        <extensions>
          <ns3:TrackPointExtension>
            <ns3:hr>126</ns3:hr>
            <ns3:cad>77</ns3:cad>
          </ns3:TrackPointExtension>
        </extensions>
      </trkpt>
      <trkpt lat="45.290651880204677581787109375" lon="-70.8859829418361186981201171875">
        <ele>800.5999755859375</ele>
        <time>2026-08-21T15:20:52.000Z</time>
        <extensions>
          <ns3:TrackPointExtension>
            <ns3:hr>126</ns3:hr>
            <ns3:cad>77</ns3:cad>
          </ns3:TrackPointExtension>
        </extensions>
      </trkpt>
      <trkpt lat="45.29063888825476169586181640625" lon="-70.8859966881573200225830078125">
        <ele>800.4000244140625</ele>
        <time>2026-08-21T15:20:53.000Z</time>
        <extensions>
          <ns3:TrackPointExtension>
            <ns3:hr>126</ns3:hr>
            <ns3:cad>77</ns3:cad>
          </ns3:TrackPointExtension>
        </extensions>
      </trkpt>
      <trkpt lat="45.2906195260584354400634765625" lon="-70.88601554743945598602294921875">
        <ele>800.4000244140625</ele>
        <time>2026-08-21T15:20:54.000Z</time>
        <extensions>
          <ns3:TrackPointExtension>
            <ns3:hr>126</ns3:hr>
            <ns3:cad>77</ns3:cad>
          </ns3:TrackPointExtension>
        </extensions>
      </trkpt>
      <trkpt lat="45.29059949330985546112060546875" lon="-70.88603784330189228057861328125">
        <ele>800.20001220703125</ele>
        <time>2026-08-21T15:20:55.000Z</time>
        <extensions>
          <ns3:TrackPointExtension>
            <ns3:hr>126</ns3:hr>
            <ns3:cad>79</ns3:cad>
          </ns3:TrackPointExtension>
        </extensions>
      </trkpt>
      <trkpt lat="45.29058071784675121307373046875" lon="-70.88606013916432857513427734375">
        <ele>799.79998779296875</ele>
        <time>2026-08-21T15:20:56.000Z</time>
        <extensions>
          <ns3:TrackPointExtension>
            <ns3:hr>127</ns3:hr>
            <ns3:cad>79</ns3:cad>
          </ns3:TrackPointExtension>
        </extensions>
      </trkpt>
      <trkpt lat="45.29056177474558353424072265625" lon="-70.8860761485993862152099609375">
        <ele>799.5999755859375</ele>
        <time>2026-08-21T15:20:57.000Z</time>
        <extensions>
          <ns3:TrackPointExtension>
            <ns3:hr>128</ns3:hr>
            <ns3:cad>78</ns3:cad>
          </ns3:TrackPointExtension>
        </extensions>
      </trkpt>
      <trkpt lat="45.29054283164441585540771484375" lon="-70.88609634898602962493896484375">
        <ele>799.5999755859375</ele>
        <time>2026-08-21T15:20:58.000Z</time>
        <extensions>
          <ns3:TrackPointExtension>
            <ns3:hr>128</ns3:hr>
            <ns3:cad>78</ns3:cad>
          </ns3:TrackPointExtension>
        </extensions>
      </trkpt>
      <trkpt lat="45.2905233018100261688232421875" lon="-70.88611780665814876556396484375">
        <ele>799.20001220703125</ele>
        <time>2026-08-21T15:20:59.000Z</time>
        <extensions>
          <ns3:TrackPointExtension>
            <ns3:hr>128</ns3:hr>
            <ns3:cad>40</ns3:cad>
          </ns3:TrackPointExtension>
        </extensions>
      </trkpt>
      <trkpt lat="45.29050846584141254425048828125" lon="-70.8861386775970458984375">
        <ele>799</ele>
        <time>2026-08-21T15:21:00.000Z</time>
        <extensions>
          <ns3:TrackPointExtension>
            <ns3:hr>129</ns3:hr>
            <ns3:cad>40</ns3:cad>
          </ns3:TrackPointExtension>
        </extensions>
      </trkpt>
      <trkpt lat="45.29049270786345005035400390625" lon="-70.8861589618027210235595703125">
        <ele>798.79998779296875</ele>
        <time>2026-08-21T15:21:01.000Z</time>
        <extensions>
          <ns3:TrackPointExtension>
            <ns3:hr>129</ns3:hr>
            <ns3:cad>40</ns3:cad>
          </ns3:TrackPointExtension>
        </extensions>
      </trkpt>
      <trkpt lat="45.2904792129993438720703125" lon="-70.8861713670194149017333984375">
        <ele>798.5999755859375</ele>
        <time>2026-08-21T15:21:02.000Z</time>
        <extensions>
          <ns3:TrackPointExtension>
            <ns3:hr>130</ns3:hr>
            <ns3:cad>77</ns3:cad>
          </ns3:TrackPointExtension>
        </extensions>
      </trkpt>
      <trkpt lat="45.2904617786407470703125" lon="-70.886191315948963165283203125">
        <ele>798.4000244140625</ele>
        <time>2026-08-21T15:21:03.000Z</time>
        <extensions>
          <ns3:TrackPointExtension>
            <ns3:hr>131</ns3:hr>
            <ns3:cad>77</ns3:cad>
          </ns3:TrackPointExtension>
        </extensions>
      </trkpt>
      <trkpt lat="45.29044912196695804595947265625" lon="-70.88621151633560657501220703125">
        <ele>798.20001220703125</ele>
        <time>2026-08-21T15:21:04.000Z</time>
        <extensions>
          <ns3:TrackPointExtension>
            <ns3:hr>133</ns3:hr>
            <ns3:cad>77</ns3:cad>
          </ns3:TrackPointExtension>
        </extensions>
      </trkpt>
      <trkpt lat="45.29043453745543956756591796875" lon="-70.8862285315990447998046875">
        <ele>798</ele>
        <time>2026-08-21T15:21:05.000Z</time>
        <extensions>
          <ns3:TrackPointExtension>
            <ns3:hr>134</ns3:hr>
            <ns3:cad>77</ns3:cad>
          </ns3:TrackPointExtension>
        </extensions>
      </trkpt>
      <trkpt lat="45.29041743837296962738037109375" lon="-70.8862498216331005096435546875">
        <ele>797.79998779296875</ele>
        <time>2026-08-21T15:21:06.000Z</time>
        <extensions>
          <ns3:TrackPointExtension>
            <ns3:hr>134</ns3:hr>
            <ns3:cad>75</ns3:cad>
          </ns3:TrackPointExtension>
        </extensions>
      </trkpt>
      <trkpt lat="45.2904032729566097259521484375" lon="-70.88626448996365070343017578125">
        <ele>797.5999755859375</ele>
        <time>2026-08-21T15:21:07.000Z</time>
        <extensions>
          <ns3:TrackPointExtension>
            <ns3:hr>133</ns3:hr>
            <ns3:cad>75</ns3:cad>
          </ns3:TrackPointExtension>
        </extensions>
      </trkpt>
      <trkpt lat="45.29038541950285434722900390625" lon="-70.88627907447516918182373046875">
        <ele>797.4000244140625</ele>
        <time>2026-08-21T15:21:08.000Z</time>
        <extensions>
          <ns3:TrackPointExtension>
            <ns3:hr>133</ns3:hr>
            <ns3:cad>75</ns3:cad>
          </ns3:TrackPointExtension>
        </extensions>
      </trkpt>
      <trkpt lat="45.2903707511723041534423828125" lon="-70.88629625737667083740234375">
        <ele>797.20001220703125</ele>
        <time>2026-08-21T15:21:09.000Z</time>
        <extensions>
          <ns3:TrackPointExtension>
            <ns3:hr>133</ns3:hr>
            <ns3:cad>75</ns3:cad>
          </ns3:TrackPointExtension>
        </extensions>
      </trkpt>
      <trkpt lat="45.2903559990227222442626953125" lon="-70.8863138593733310699462890625">
        <ele>797</ele>
        <time>2026-08-21T15:21:10.000Z</time>
        <extensions>
          <ns3:TrackPointExtension>
            <ns3:hr>133</ns3:hr>
            <ns3:cad>75</ns3:cad>
          </ns3:TrackPointExtension>
        </extensions>
      </trkpt>
      <trkpt lat="45.2903405763208866119384765625" lon="-70.88633204810321331024169921875">
        <ele>796.79998779296875</ele>
        <time>2026-08-21T15:21:11.000Z</time>
        <extensions>
          <ns3:TrackPointExtension>
            <ns3:hr>133</ns3:hr>
            <ns3:cad>75</ns3:cad>
          </ns3:TrackPointExtension>
        </extensions>
      </trkpt>
      <trkpt lat="45.2903244830667972564697265625" lon="-70.88635333813726902008056640625">
        <ele>796.5999755859375</ele>
        <time>2026-08-21T15:21:12.000Z</time>
        <extensions>
          <ns3:TrackPointExtension>
            <ns3:hr>133</ns3:hr>
            <ns3:cad>76</ns3:cad>
          </ns3:TrackPointExtension>
        </extensions>
      </trkpt>
      <trkpt lat="45.29031165875494480133056640625" lon="-70.8863748796284198760986328125">
        <ele>796.4000244140625</ele>
        <time>2026-08-21T15:21:13.000Z</time>
        <extensions>
          <ns3:TrackPointExtension>
            <ns3:hr>133</ns3:hr>
            <ns3:cad>77</ns3:cad>
          </ns3:TrackPointExtension>
        </extensions>
      </trkpt>
      <trkpt lat="45.2902936376631259918212890625" lon="-70.886398516595363616943359375">
        <ele>796.4000244140625</ele>
        <time>2026-08-21T15:21:14.000Z</time>
        <extensions>
          <ns3:TrackPointExtension>
            <ns3:hr>132</ns3:hr>
            <ns3:cad>77</ns3:cad>
          </ns3:TrackPointExtension>
        </extensions>
      </trkpt>
      <trkpt lat="45.29027611948549747467041015625" lon="-70.8864176273345947265625">
        <ele>796.20001220703125</ele>
        <time>2026-08-21T15:21:15.000Z</time>
        <extensions>
          <ns3:TrackPointExtension>
            <ns3:hr>133</ns3:hr>
            <ns3:cad>77</ns3:cad>
          </ns3:TrackPointExtension>
        </extensions>
      </trkpt>
      <trkpt lat="45.290260948240756988525390625" lon="-70.88643967173993587493896484375">
        <ele>796</ele>
        <time>2026-08-21T15:21:16.000Z</time>
        <extensions>
          <ns3:TrackPointExtension>
            <ns3:hr>133</ns3:hr>
            <ns3:cad>78</ns3:cad>
          </ns3:TrackPointExtension>
        </extensions>
      </trkpt>
      <trkpt lat="45.290245525538921356201171875" lon="-70.886465571820735931396484375">
        <ele>795.79998779296875</ele>
        <time>2026-08-21T15:21:17.000Z</time>
        <extensions>
          <ns3:TrackPointExtension>
            <ns3:hr>133</ns3:hr>
            <ns3:cad>78</ns3:cad>
          </ns3:TrackPointExtension>
        </extensions>
      </trkpt>
      <trkpt lat="45.29023152776062488555908203125" lon="-70.8864828385412693023681640625">
        <ele>795.5999755859375</ele>
        <time>2026-08-21T15:21:18.000Z</time>
        <extensions>
          <ns3:TrackPointExtension>
            <ns3:hr>132</ns3:hr>
            <ns3:cad>78</ns3:cad>
          </ns3:TrackPointExtension>
        </extensions>
      </trkpt>
      <trkpt lat="45.2902136743068695068359375" lon="-70.88649951852858066558837890625">
        <ele>795.4000244140625</ele>
        <time>2026-08-21T15:21:19.000Z</time>
        <extensions>
          <ns3:TrackPointExtension>
            <ns3:hr>132</ns3:hr>
            <ns3:cad>78</ns3:cad>
          </ns3:TrackPointExtension>
        </extensions>
      </trkpt>
      <trkpt lat="45.2901960723102092742919921875" lon="-70.886510498821735382080078125">
        <ele>795.4000244140625</ele>
        <time>2026-08-21T15:21:20.000Z</time>
        <extensions>
          <ns3:TrackPointExtension>
            <ns3:hr>132</ns3:hr>
            <ns3:cad>78</ns3:cad>
          </ns3:TrackPointExtension>
        </extensions>
      </trkpt>
      <trkpt lat="45.29017872177064418792724609375" lon="-70.88651712052524089813232421875">
        <ele>795.20001220703125</ele>
        <time>2026-08-21T15:21:21.000Z</time>
        <extensions>
          <ns3:TrackPointExtension>
            <ns3:hr>132</ns3:hr>
            <ns3:cad>78</ns3:cad>
          </ns3:TrackPointExtension>
        </extensions>
      </trkpt>
      <trkpt lat="45.29015927575528621673583984375" lon="-70.88652282021939754486083984375">
        <ele>795</ele>
        <time>2026-08-21T15:21:22.000Z</time>
        <extensions>
          <ns3:TrackPointExtension>
            <ns3:hr>132</ns3:hr>
            <ns3:cad>78</ns3:cad>
          </ns3:TrackPointExtension>
        </extensions>
      </trkpt>
      <trkpt lat="45.29013924300670623779296875" lon="-70.88652734644711017608642578125">
        <ele>794.79998779296875</ele>
        <time>2026-08-21T15:21:23.000Z</time>
        <extensions>
          <ns3:TrackPointExtension>
            <ns3:hr>132</ns3:hr>
            <ns3:cad>78</ns3:cad>
          </ns3:TrackPointExtension>
        </extensions>
      </trkpt>
      <trkpt lat="45.29011485166847705841064453125" lon="-70.88653857819736003875732421875">
        <ele>794.5999755859375</ele>
        <time>2026-08-21T15:21:24.000Z</time>
        <extensions>
          <ns3:TrackPointExtension>
            <ns3:hr>132</ns3:hr>
            <ns3:cad>78</ns3:cad>
          </ns3:TrackPointExtension>
        </extensions>
      </trkpt>
      <trkpt lat="45.290093310177326202392578125" lon="-70.8865557610988616943359375">
        <ele>794.4000244140625</ele>
        <time>2026-08-21T15:21:25.000Z</time>
        <extensions>
          <ns3:TrackPointExtension>
            <ns3:hr>131</ns3:hr>
            <ns3:cad>78</ns3:cad>
          </ns3:TrackPointExtension>
        </extensions>
      </trkpt>
      <trkpt lat="45.2900726906955242156982421875" lon="-70.88657109998166561126708984375">
        <ele>794.20001220703125</ele>
        <time>2026-08-21T15:21:26.000Z</time>
        <extensions>
          <ns3:TrackPointExtension>
            <ns3:hr>131</ns3:hr>
            <ns3:cad>40</ns3:cad>
          </ns3:TrackPointExtension>
        </extensions>
      </trkpt>
      <trkpt lat="45.290057100355625152587890625" lon="-70.88658057153224945068359375">
        <ele>794</ele>
        <time>2026-08-21T15:21:27.000Z</time>
        <extensions>
          <ns3:TrackPointExtension>
            <ns3:hr>131</ns3:hr>
            <ns3:cad>40</ns3:cad>
          </ns3:TrackPointExtension>
        </extensions>
      </trkpt>
      <trkpt lat="45.2900364808738231658935546875" lon="-70.886593647301197052001953125">
        <ele>793.79998779296875</ele>
        <time>2026-08-21T15:21:28.000Z</time>
        <extensions>
          <ns3:TrackPointExtension>
            <ns3:hr>131</ns3:hr>
            <ns3:cad>40</ns3:cad>
          </ns3:TrackPointExtension>
        </extensions>
      </trkpt>
      <trkpt lat="45.29002147726714611053466796875" lon="-70.88660060428082942962646484375">
        <ele>793.5999755859375</ele>
        <time>2026-08-21T15:21:29.000Z</time>
        <extensions>
          <ns3:TrackPointExtension>
            <ns3:hr>131</ns3:hr>
            <ns3:cad>40</ns3:cad>
          </ns3:TrackPointExtension>
        </extensions>
      </trkpt>
      <trkpt lat="45.29000102542340755462646484375" lon="-70.88660999201238155364990234375">
        <ele>793.4000244140625</ele>
        <time>2026-08-21T15:21:30.000Z</time>
        <extensions>
          <ns3:TrackPointExtension>
            <ns3:hr>131</ns3:hr>
            <ns3:cad>40</ns3:cad>
          </ns3:TrackPointExtension>
        </extensions>
      </trkpt>
      <trkpt lat="45.2899791486561298370361328125" lon="-70.88662206195294857025146484375">
        <ele>793.20001220703125</ele>
        <time>2026-08-21T15:21:31.000Z</time>
        <extensions>
          <ns3:TrackPointExtension>
            <ns3:hr>131</ns3:hr>
            <ns3:cad>40</ns3:cad>
          </ns3:TrackPointExtension>
        </extensions>
      </trkpt>
      <trkpt lat="45.2899640612304210662841796875" lon="-70.886635221540927886962890625">
        <ele>793</ele>
        <time>2026-08-21T15:21:32.000Z</time>
        <extensions>
          <ns3:TrackPointExtension>
            <ns3:hr>131</ns3:hr>
            <ns3:cad>40</ns3:cad>
          </ns3:TrackPointExtension>
        </extensions>
      </trkpt>
      <trkpt lat="45.28995123691856861114501953125" lon="-70.88665005750954151153564453125">
        <ele>792.79998779296875</ele>
        <time>2026-08-21T15:21:33.000Z</time>
        <extensions>
          <ns3:TrackPointExtension>
            <ns3:hr>130</ns3:hr>
            <ns3:cad>40</ns3:cad>
          </ns3:TrackPointExtension>
        </extensions>
      </trkpt>
      <trkpt lat="45.28993849642574787139892578125" lon="-70.8866702578961849212646484375">
        <ele>792.79998779296875</ele>
        <time>2026-08-21T15:21:34.000Z</time>
        <extensions>
          <ns3:TrackPointExtension>
            <ns3:hr>131</ns3:hr>
            <ns3:cad>40</ns3:cad>
          </ns3:TrackPointExtension>
        </extensions>
      </trkpt>
      <trkpt lat="45.2899258397519588470458984375" lon="-70.8866913802921772003173828125">
        <ele>792.5999755859375</ele>
        <time>2026-08-21T15:21:35.000Z</time>
        <extensions>
          <ns3:TrackPointExtension>
            <ns3:hr>131</ns3:hr>
            <ns3:cad>40</ns3:cad>
          </ns3:TrackPointExtension>
        </extensions>
      </trkpt>
      <trkpt lat="45.28991217724978923797607421875" lon="-70.8867131732404232025146484375">
        <ele>792.5999755859375</ele>
        <time>2026-08-21T15:21:36.000Z</time>
        <extensions>
          <ns3:TrackPointExtension>
            <ns3:hr>131</ns3:hr>
            <ns3:cad>40</ns3:cad>
          </ns3:TrackPointExtension>
        </extensions>
      </trkpt>
      <trkpt lat="45.28989977203309535980224609375" lon="-70.88674007914960384368896484375">
        <ele>792.5999755859375</ele>
        <time>2026-08-21T15:21:37.000Z</time>
        <extensions>
          <ns3:TrackPointExtension>
            <ns3:hr>131</ns3:hr>
            <ns3:cad>40</ns3:cad>
          </ns3:TrackPointExtension>
        </extensions>
      </trkpt>
      <trkpt lat="45.28988786973059177398681640625" lon="-70.8867731876671314239501953125">
        <ele>792.5999755859375</ele>
        <time>2026-08-21T15:21:38.000Z</time>
        <extensions>
          <ns3:TrackPointExtension>
            <ns3:hr>132</ns3:hr>
            <ns3:cad>40</ns3:cad>
          </ns3:TrackPointExtension>
        </extensions>
      </trkpt>
      <trkpt lat="45.28987764380872249603271484375" lon="-70.8868078887462615966796875">
        <ele>792.4000244140625</ele>
        <time>2026-08-21T15:21:39.000Z</time>
        <extensions>
          <ns3:TrackPointExtension>
            <ns3:hr>132</ns3:hr>
            <ns3:cad>40</ns3:cad>
          </ns3:TrackPointExtension>
        </extensions>
      </trkpt>
      <trkpt lat="45.28986942954361438751220703125" lon="-70.88684300892055034637451171875">
        <ele>792.4000244140625</ele>
        <time>2026-08-21T15:21:40.000Z</time>
        <extensions>
          <ns3:TrackPointExtension>
            <ns3:hr>132</ns3:hr>
            <ns3:cad>0</ns3:cad>
          </ns3:TrackPointExtension>
        </extensions>
      </trkpt>
      <trkpt lat="45.28985853306949138641357421875" lon="-70.88687963783740997314453125">
        <ele>792.20001220703125</ele>
        <time>2026-08-21T15:21:41.000Z</time>
        <extensions>
          <ns3:TrackPointExtension>
            <ns3:hr>132</ns3:hr>
            <ns3:cad>0</ns3:cad>
          </ns3:TrackPointExtension>
        </extensions>
      </trkpt>
      <trkpt lat="45.2898500673472881317138671875" lon="-70.88690168224275112152099609375">
        <ele>792.20001220703125</ele>
        <time>2026-08-21T15:21:42.000Z</time>
        <extensions>
          <ns3:TrackPointExtension>
            <ns3:hr>132</ns3:hr>
            <ns3:cad>0</ns3:cad>
          </ns3:TrackPointExtension>
        </extensions>
      </trkpt>
      <trkpt lat="45.289839170873165130615234375" lon="-70.88692062534391880035400390625">
        <ele>792</ele>
        <time>2026-08-21T15:21:43.000Z</time>
        <extensions>
          <ns3:TrackPointExtension>
            <ns3:hr>132</ns3:hr>
            <ns3:cad>0</ns3:cad>
          </ns3:TrackPointExtension>
        </extensions>
      </trkpt>
      <trkpt lat="45.2898276038467884063720703125" lon="-70.88693621568381786346435546875">
        <ele>792</ele>
        <time>2026-08-21T15:21:44.000Z</time>
        <extensions>
          <ns3:TrackPointExtension>
            <ns3:hr>132</ns3:hr>
            <ns3:cad>0</ns3:cad>
          </ns3:TrackPointExtension>
        </extensions>
      </trkpt>
      <trkpt lat="45.2898131869733333587646484375" lon="-70.8869646303355693817138671875">
        <ele>791.79998779296875</ele>
        <time>2026-08-21T15:21:45.000Z</time>
        <extensions>
          <ns3:TrackPointExtension>
            <ns3:hr>133</ns3:hr>
            <ns3:cad>0</ns3:cad>
          </ns3:TrackPointExtension>
        </extensions>
      </trkpt>
      <trkpt lat="45.2898014523088932037353515625" lon="-70.8869901113212108612060546875">
        <ele>791.5999755859375</ele>
        <time>2026-08-21T15:21:46.000Z</time>
        <extensions>
          <ns3:TrackPointExtension>
            <ns3:hr>133</ns3:hr>
            <ns3:cad>0</ns3:cad>
          </ns3:TrackPointExtension>
        </extensions>
      </trkpt>
      <trkpt lat="45.2897893823683261871337890625" lon="-70.88701869361102581024169921875">
        <ele>791.20001220703125</ele>
        <time>2026-08-21T15:21:47.000Z</time>
        <extensions>
          <ns3:TrackPointExtension>
            <ns3:hr>133</ns3:hr>
            <ns3:cad>0</ns3:cad>
          </ns3:TrackPointExtension>
        </extensions>
      </trkpt>
      <trkpt lat="45.28977848589420318603515625" lon="-70.8870400674641132354736328125">
        <ele>791</ele>
        <time>2026-08-21T15:21:48.000Z</time>
        <extensions>
          <ns3:TrackPointExtension>
            <ns3:hr>133</ns3:hr>
            <ns3:cad>0</ns3:cad>
          </ns3:TrackPointExtension>
        </extensions>
      </trkpt>
      <trkpt lat="45.2897702716290950775146484375" lon="-70.887064374983310699462890625">
        <ele>791</ele>
        <time>2026-08-21T15:21:49.000Z</time>
        <extensions>
          <ns3:TrackPointExtension>
            <ns3:hr>134</ns3:hr>
            <ns3:cad>0</ns3:cad>
          </ns3:TrackPointExtension>
        </extensions>
      </trkpt>
      <trkpt lat="45.28976105153560638427734375" lon="-70.88709748350083827972412109375">
        <ele>790.79998779296875</ele>
        <time>2026-08-21T15:21:50.000Z</time>
        <extensions>
          <ns3:TrackPointExtension>
            <ns3:hr>134</ns3:hr>
            <ns3:cad>77</ns3:cad>
          </ns3:TrackPointExtension>
        </extensions>
      </trkpt>
      <trkpt lat="45.28975836932659149169921875" lon="-70.8871326036751270294189453125">
        <ele>790.79998779296875</ele>
        <time>2026-08-21T15:21:51.000Z</time>
        <extensions>
          <ns3:TrackPointExtension>
            <ns3:hr>134</ns3:hr>
            <ns3:cad>77</ns3:cad>
          </ns3:TrackPointExtension>
        </extensions>
      </trkpt>
      <trkpt lat="45.28975568711757659912109375" lon="-70.88717124424874782562255859375">
        <ele>790.79998779296875</ele>
        <time>2026-08-21T15:21:52.000Z</time>
        <extensions>
          <ns3:TrackPointExtension>
            <ns3:hr>134</ns3:hr>
            <ns3:cad>77</ns3:cad>
          </ns3:TrackPointExtension>
        </extensions>
      </trkpt>
      <trkpt lat="45.28975241817533969879150390625" lon="-70.887196473777294158935546875">
        <ele>790.79998779296875</ele>
        <time>2026-08-21T15:21:53.000Z</time>
        <extensions>
          <ns3:TrackPointExtension>
            <ns3:hr>134</ns3:hr>
            <ns3:cad>77</ns3:cad>
          </ns3:TrackPointExtension>
        </extensions>
      </trkpt>
      <trkpt lat="45.2897451259195804595947265625" lon="-70.88721717707812786102294921875">
        <ele>790.79998779296875</ele>
        <time>2026-08-21T15:21:54.000Z</time>
        <extensions>
          <ns3:TrackPointExtension>
            <ns3:hr>135</ns3:hr>
            <ns3:cad>77</ns3:cad>
          </ns3:TrackPointExtension>
        </extensions>
      </trkpt>
      <trkpt lat="45.2897286973893642425537109375" lon="-70.88723628781735897064208984375">
        <ele>790.5999755859375</ele>
        <time>2026-08-21T15:21:55.000Z</time>
        <extensions>
          <ns3:TrackPointExtension>
            <ns3:hr>135</ns3:hr>
            <ns3:cad>77</ns3:cad>
          </ns3:TrackPointExtension>
        </extensions>
      </trkpt>
      <trkpt lat="45.28971034102141857147216796875" lon="-70.8872476033866405487060546875">
        <ele>790.5999755859375</ele>
        <time>2026-08-21T15:21:56.000Z</time>
        <extensions>
          <ns3:TrackPointExtension>
            <ns3:hr>135</ns3:hr>
            <ns3:cad>77</ns3:cad>
          </ns3:TrackPointExtension>
        </extensions>
      </trkpt>
      <trkpt lat="45.289693661034107208251953125" lon="-70.88725791312754154205322265625">
        <ele>790.4000244140625</ele>
        <time>2026-08-21T15:21:57.000Z</time>
        <extensions>
          <ns3:TrackPointExtension>
            <ns3:hr>135</ns3:hr>
            <ns3:cad>77</ns3:cad>
          </ns3:TrackPointExtension>
        </extensions>
      </trkpt>
      <trkpt lat="45.28967664577066898345947265625" lon="-70.887272246181964874267578125">
        <ele>790.4000244140625</ele>
        <time>2026-08-21T15:21:58.000Z</time>
        <extensions>
          <ns3:TrackPointExtension>
            <ns3:hr>135</ns3:hr>
            <ns3:cad>77</ns3:cad>
          </ns3:TrackPointExtension>
        </extensions>
      </trkpt>
      <trkpt lat="45.289664156734943389892578125" lon="-70.88728305883705615997314453125">
        <ele>790.20001220703125</ele>
        <time>2026-08-21T15:21:59.000Z</time>
        <extensions>
          <ns3:TrackPointExtension>
            <ns3:hr>136</ns3:hr>
            <ns3:cad>0</ns3:cad>
          </ns3:TrackPointExtension>
        </extensions>
      </trkpt>
      <trkpt lat="45.2896495722234249114990234375" lon="-70.887299068272113800048828125">
        <ele>789.79998779296875</ele>
        <time>2026-08-21T15:22:00.000Z</time>
        <extensions>
          <ns3:TrackPointExtension>
            <ns3:hr>136</ns3:hr>
            <ns3:cad>0</ns3:cad>
          </ns3:TrackPointExtension>
        </extensions>
      </trkpt>
      <trkpt lat="45.28963289223611354827880859375" lon="-70.88732815347611904144287109375">
        <ele>789.5999755859375</ele>
        <time>2026-08-21T15:22:01.000Z</time>
        <extensions>
          <ns3:TrackPointExtension>
            <ns3:hr>136</ns3:hr>
            <ns3:cad>0</ns3:cad>
          </ns3:TrackPointExtension>
        </extensions>
      </trkpt>
      <trkpt lat="45.28962300159037113189697265625" lon="-70.88734634220600128173828125">
        <ele>789.4000244140625</ele>
        <time>2026-08-21T15:22:02.000Z</time>
        <extensions>
          <ns3:TrackPointExtension>
            <ns3:hr>136</ns3:hr>
            <ns3:cad>0</ns3:cad>
          </ns3:TrackPointExtension>
        </extensions>
      </trkpt>
      <trkpt lat="45.2896093390882015228271484375" lon="-70.8873719908297061920166015625">
        <ele>789.20001220703125</ele>
        <time>2026-08-21T15:22:03.000Z</time>
        <extensions>
          <ns3:TrackPointExtension>
            <ns3:hr>136</ns3:hr>
            <ns3:cad>0</ns3:cad>
          </ns3:TrackPointExtension>
        </extensions>
      </trkpt>
      <trkpt lat="45.28959869407117366790771484375" lon="-70.887385569512844085693359375">
        <ele>789.20001220703125</ele>
        <time>2026-08-21T15:22:04.000Z</time>
        <extensions>
          <ns3:TrackPointExtension>
            <ns3:hr>136</ns3:hr>
            <ns3:cad>0</ns3:cad>
          </ns3:TrackPointExtension>
        </extensions>
      </trkpt>
      <trkpt lat="45.2895835228264331817626953125" lon="-70.88740392588078975677490234375">
        <ele>789</ele>
        <time>2026-08-21T15:22:05.000Z</time>
        <extensions>
          <ns3:TrackPointExtension>
            <ns3:hr>136</ns3:hr>
            <ns3:cad>0</ns3:cad>
          </ns3:TrackPointExtension>
        </extensions>
      </trkpt>
      <trkpt lat="45.28956131078302860260009765625" lon="-70.887421779334545135498046875">
        <ele>788.79998779296875</ele>
        <time>2026-08-21T15:22:06.000Z</time>
        <extensions>
          <ns3:TrackPointExtension>
            <ns3:hr>136</ns3:hr>
            <ns3:cad>0</ns3:cad>
          </ns3:TrackPointExtension>
        </extensions>
      </trkpt>
      <trkpt lat="45.28953951783478260040283203125" lon="-70.88743753731250762939453125">
        <ele>788.4000244140625</ele>
        <time>2026-08-21T15:22:07.000Z</time>
        <extensions>
          <ns3:TrackPointExtension>
            <ns3:hr>136</ns3:hr>
            <ns3:cad>0</ns3:cad>
          </ns3:TrackPointExtension>
        </extensions>
      </trkpt>
      <trkpt lat="45.28952074237167835235595703125" lon="-70.8874591626226902008056640625">
        <ele>788.4000244140625</ele>
        <time>2026-08-21T15:22:08.000Z</time>
        <extensions>
          <ns3:TrackPointExtension>
            <ns3:hr>136</ns3:hr>
            <ns3:cad>0</ns3:cad>
          </ns3:TrackPointExtension>
        </extensions>
      </trkpt>
      <trkpt lat="45.2895055711269378662109375" lon="-70.88748808018863201141357421875">
        <ele>788</ele>
        <time>2026-08-21T15:22:09.000Z</time>
        <extensions>
          <ns3:TrackPointExtension>
            <ns3:hr>136</ns3:hr>
            <ns3:cad>0</ns3:cad>
          </ns3:TrackPointExtension>
        </extensions>
      </trkpt>
      <trkpt lat="45.28949509374797344207763671875" lon="-70.8875097893178462982177734375">
        <ele>787.79998779296875</ele>
        <time>2026-08-21T15:22:10.000Z</time>
        <extensions>
          <ns3:TrackPointExtension>
            <ns3:hr>136</ns3:hr>
            <ns3:cad>0</ns3:cad>
          </ns3:TrackPointExtension>
        </extensions>
      </trkpt>
      <trkpt lat="45.28948419727385044097900390625" lon="-70.88753049261868000030517578125">
        <ele>787.5999755859375</ele>
        <time>2026-08-21T15:22:11.000Z</time>
        <extensions>
          <ns3:TrackPointExtension>
            <ns3:hr>136</ns3:hr>
            <ns3:cad>0</ns3:cad>
          </ns3:TrackPointExtension>
        </extensions>
      </trkpt>
      <trkpt lat="45.28947313316166400909423828125" lon="-70.88754608295857906341552734375">
        <ele>787.4000244140625</ele>
        <time>2026-08-21T15:22:12.000Z</time>
        <extensions>
          <ns3:TrackPointExtension>
            <ns3:hr>136</ns3:hr>
            <ns3:cad>0</ns3:cad>
          </ns3:TrackPointExtension>
        </extensions>
      </trkpt>
      <trkpt lat="45.28946173377335071563720703125" lon="-70.8875580690801143646240234375">
        <ele>787.4000244140625</ele>
        <time>2026-08-21T15:22:13.000Z</time>
        <extensions>
          <ns3:TrackPointExtension>
            <ns3:hr>136</ns3:hr>
            <ns3:cad>0</ns3:cad>
          </ns3:TrackPointExtension>
        </extensions>
      </trkpt>
      <trkpt lat="45.289448238909244537353515625" lon="-70.88757458142936229705810546875">
        <ele>787.20001220703125</ele>
        <time>2026-08-21T15:22:14.000Z</time>
        <extensions>
          <ns3:TrackPointExtension>
            <ns3:hr>136</ns3:hr>
            <ns3:cad>76</ns3:cad>
          </ns3:TrackPointExtension>
        </extensions>
      </trkpt>
      <trkpt lat="45.28943491168320178985595703125" lon="-70.8875922672450542449951171875">
        <ele>787</ele>
        <time>2026-08-21T15:22:15.000Z</time>
        <extensions>
          <ns3:TrackPointExtension>
            <ns3:hr>135</ns3:hr>
            <ns3:cad>76</ns3:cad>
          </ns3:TrackPointExtension>
        </extensions>
      </trkpt>
      <trkpt lat="45.28942233882844448089599609375" lon="-70.887614898383617401123046875">
        <ele>787</ele>
        <time>2026-08-21T15:22:16.000Z</time>
        <extensions>
          <ns3:TrackPointExtension>
            <ns3:hr>134</ns3:hr>
            <ns3:cad>76</ns3:cad>
          </ns3:TrackPointExtension>
        </extensions>
      </trkpt>
      <trkpt lat="45.28940976597368717193603515625" lon="-70.887636356055736541748046875">
        <ele>786.79998779296875</ele>
        <time>2026-08-21T15:22:17.000Z</time>
        <extensions>
          <ns3:TrackPointExtension>
            <ns3:hr>133</ns3:hr>
            <ns3:cad>76</ns3:cad>
          </ns3:TrackPointExtension>
        </extensions>
      </trkpt>
      <trkpt lat="45.28939585201442241668701171875" lon="-70.8876529522240161895751953125">
        <ele>786.4000244140625</ele>
        <time>2026-08-21T15:22:18.000Z</time>
        <extensions>
          <ns3:TrackPointExtension>
            <ns3:hr>133</ns3:hr>
            <ns3:cad>76</ns3:cad>
          </ns3:TrackPointExtension>
        </extensions>
      </trkpt>
      <trkpt lat="45.289382524788379669189453125" lon="-70.887666530907154083251953125">
        <ele>786.4000244140625</ele>
        <time>2026-08-21T15:22:19.000Z</time>
        <extensions>
          <ns3:TrackPointExtension>
            <ns3:hr>134</ns3:hr>
            <ns3:cad>76</ns3:cad>
          </ns3:TrackPointExtension>
        </extensions>
      </trkpt>
      <trkpt lat="45.2893719635903835296630859375" lon="-70.88768622837960720062255859375">
        <ele>786.20001220703125</ele>
        <time>2026-08-21T15:22:20.000Z</time>
        <extensions>
          <ns3:TrackPointExtension>
            <ns3:hr>134</ns3:hr>
            <ns3:cad>76</ns3:cad>
          </ns3:TrackPointExtension>
        </extensions>
      </trkpt>
      <trkpt lat="45.2893572114408016204833984375" lon="-70.8877059258520603179931640625">
        <ele>786</ele>
        <time>2026-08-21T15:22:21.000Z</time>
        <extensions>
          <ns3:TrackPointExtension>
            <ns3:hr>134</ns3:hr>
            <ns3:cad>77</ns3:cad>
          </ns3:TrackPointExtension>
        </extensions>
      </trkpt>
      <trkpt lat="45.28934086672961711883544921875" lon="-70.887728892266750335693359375">
        <ele>785.79998779296875</ele>
        <time>2026-08-21T15:22:22.000Z</time>
        <extensions>
          <ns3:TrackPointExtension>
            <ns3:hr>133</ns3:hr>
            <ns3:cad>77</ns3:cad>
          </ns3:TrackPointExtension>
        </extensions>
      </trkpt>
      <trkpt lat="45.2893243543803691864013671875" lon="-70.88775043375790119171142578125">
        <ele>785.79998779296875</ele>
        <time>2026-08-21T15:22:23.000Z</time>
        <extensions>
          <ns3:TrackPointExtension>
            <ns3:hr>134</ns3:hr>
            <ns3:cad>77</ns3:cad>
          </ns3:TrackPointExtension>
        </extensions>
      </trkpt>
      <trkpt lat="45.2893096022307872772216796875" lon="-70.88776887394487857818603515625">
        <ele>785.79998779296875</ele>
        <time>2026-08-21T15:22:24.000Z</time>
        <extensions>
          <ns3:TrackPointExtension>
            <ns3:hr>133</ns3:hr>
            <ns3:cad>77</ns3:cad>
          </ns3:TrackPointExtension>
        </extensions>
      </trkpt>
      <trkpt lat="45.2892925031483173370361328125" lon="-70.887788571417331695556640625">
        <ele>785.5999755859375</ele>
        <time>2026-08-21T15:22:25.000Z</time>
        <extensions>
          <ns3:TrackPointExtension>
            <ns3:hr>133</ns3:hr>
            <ns3:cad>77</ns3:cad>
          </ns3:TrackPointExtension>
        </extensions>
      </trkpt>
      <trkpt lat="45.28927632607519626617431640625" lon="-70.887808017432689666748046875">
        <ele>785.4000244140625</ele>
        <time>2026-08-21T15:22:26.000Z</time>
        <extensions>
          <ns3:TrackPointExtension>
            <ns3:hr>133</ns3:hr>
            <ns3:cad>77</ns3:cad>
          </ns3:TrackPointExtension>
        </extensions>
      </trkpt>
      <trkpt lat="45.28926090337336063385009765625" lon="-70.88782771490514278411865234375">
        <ele>785.20001220703125</ele>
        <time>2026-08-21T15:22:27.000Z</time>
        <extensions>
          <ns3:TrackPointExtension>
            <ns3:hr>133</ns3:hr>
            <ns3:cad>77</ns3:cad>
          </ns3:TrackPointExtension>
        </extensions>
      </trkpt>
      <trkpt lat="45.28924514539539813995361328125" lon="-70.8878524415194988250732421875">
        <ele>784.79998779296875</ele>
        <time>2026-08-21T15:22:28.000Z</time>
        <extensions>
          <ns3:TrackPointExtension>
            <ns3:hr>132</ns3:hr>
            <ns3:cad>77</ns3:cad>
          </ns3:TrackPointExtension>
        </extensions>
      </trkpt>
      <trkpt lat="45.2892281301319599151611328125" lon="-70.8878749050199985504150390625">
        <ele>784.5999755859375</ele>
        <time>2026-08-21T15:22:29.000Z</time>
        <extensions>
          <ns3:TrackPointExtension>
            <ns3:hr>133</ns3:hr>
            <ns3:cad>77</ns3:cad>
          </ns3:TrackPointExtension>
        </extensions>
      </trkpt>
      <trkpt lat="45.28921522200107574462890625" lon="-70.887895859777927398681640625">
        <ele>784.4000244140625</ele>
        <time>2026-08-21T15:22:30.000Z</time>
        <extensions>
          <ns3:TrackPointExtension>
            <ns3:hr>133</ns3:hr>
            <ns3:cad>77</ns3:cad>
          </ns3:TrackPointExtension>
        </extensions>
      </trkpt>
      <trkpt lat="45.28920223005115985870361328125" lon="-70.88792142458260059356689453125">
        <ele>784.20001220703125</ele>
        <time>2026-08-21T15:22:31.000Z</time>
        <extensions>
          <ns3:TrackPointExtension>
            <ns3:hr>133</ns3:hr>
            <ns3:cad>0</ns3:cad>
          </ns3:TrackPointExtension>
        </extensions>
      </trkpt>
      <trkpt lat="45.2891915850341320037841796875" lon="-70.8879411220550537109375">
        <ele>784</ele>
        <time>2026-08-21T15:22:32.000Z</time>
        <extensions>
          <ns3:TrackPointExtension>
            <ns3:hr>132</ns3:hr>
            <ns3:cad>0</ns3:cad>
          </ns3:TrackPointExtension>
        </extensions>
      </trkpt>
      <trkpt lat="45.2891778387129306793212890625" lon="-70.88795662857592105865478515625">
        <ele>783.79998779296875</ele>
        <time>2026-08-21T15:22:33.000Z</time>
        <extensions>
          <ns3:TrackPointExtension>
            <ns3:hr>133</ns3:hr>
            <ns3:cad>79</ns3:cad>
          </ns3:TrackPointExtension>
        </extensions>
      </trkpt>
      <trkpt lat="45.28916350565850734710693359375" lon="-70.8879748173058032989501953125">
        <ele>783.5999755859375</ele>
        <time>2026-08-21T15:22:34.000Z</time>
        <extensions>
          <ns3:TrackPointExtension>
            <ns3:hr>133</ns3:hr>
            <ns3:cad>79</ns3:cad>
          </ns3:TrackPointExtension>
        </extensions>
      </trkpt>
      <trkpt lat="45.28914858587086200714111328125" lon="-70.8879915811121463775634765625">
        <ele>783.20001220703125</ele>
        <time>2026-08-21T15:22:35.000Z</time>
        <extensions>
          <ns3:TrackPointExtension>
            <ns3:hr>134</ns3:hr>
            <ns3:cad>79</ns3:cad>
          </ns3:TrackPointExtension>
        </extensions>
      </trkpt>
      <trkpt lat="45.28913936577737331390380859375" lon="-70.88801555335521697998046875">
        <ele>783</ele>
        <time>2026-08-21T15:22:36.000Z</time>
        <extensions>
          <ns3:TrackPointExtension>
            <ns3:hr>134</ns3:hr>
            <ns3:cad>41</ns3:cad>
          </ns3:TrackPointExtension>
        </extensions>
      </trkpt>
      <trkpt lat="45.28913048096001148223876953125" lon="-70.88803743012249469757080078125">
        <ele>782.5999755859375</ele>
        <time>2026-08-21T15:22:37.000Z</time>
        <extensions>
          <ns3:TrackPointExtension>
            <ns3:hr>134</ns3:hr>
            <ns3:cad>41</ns3:cad>
          </ns3:TrackPointExtension>
        </extensions>
      </trkpt>
      <trkpt lat="45.2891188301146030426025390625" lon="-70.88806006126105785369873046875">
        <ele>782.20001220703125</ele>
        <time>2026-08-21T15:22:38.000Z</time>
        <extensions>
          <ns3:TrackPointExtension>
            <ns3:hr>133</ns3:hr>
            <ns3:cad>41</ns3:cad>
          </ns3:TrackPointExtension>
        </extensions>
      </trkpt>
      <trkpt lat="45.2891059219837188720703125" lon="-70.8880827762186527252197265625">
        <ele>782</ele>
        <time>2026-08-21T15:22:39.000Z</time>
        <extensions>
          <ns3:TrackPointExtension>
            <ns3:hr>134</ns3:hr>
            <ns3:cad>41</ns3:cad>
          </ns3:TrackPointExtension>
        </extensions>
      </trkpt>
      <trkpt lat="45.28909661807119846343994140625" lon="-70.888104401528835296630859375">
        <ele>781.79998779296875</ele>
        <time>2026-08-21T15:22:40.000Z</time>
        <extensions>
          <ns3:TrackPointExtension>
            <ns3:hr>134</ns3:hr>
            <ns3:cad>41</ns3:cad>
          </ns3:TrackPointExtension>
        </extensions>
      </trkpt>
      <trkpt lat="45.28908538632094860076904296875" lon="-70.88812954723834991455078125">
        <ele>781.79998779296875</ele>
        <time>2026-08-21T15:22:41.000Z</time>
        <extensions>
          <ns3:TrackPointExtension>
            <ns3:hr>134</ns3:hr>
            <ns3:cad>41</ns3:cad>
          </ns3:TrackPointExtension>
        </extensions>
      </trkpt>
      <trkpt lat="45.2890739031136035919189453125" lon="-70.88815159164369106292724609375">
        <ele>781.5999755859375</ele>
        <time>2026-08-21T15:22:42.000Z</time>
        <extensions>
          <ns3:TrackPointExtension>
            <ns3:hr>134</ns3:hr>
            <ns3:cad>41</ns3:cad>
          </ns3:TrackPointExtension>
        </extensions>
      </trkpt>
      <trkpt lat="45.28906275518238544464111328125" lon="-70.88817455805838108062744140625">
        <ele>781.5999755859375</ele>
        <time>2026-08-21T15:22:43.000Z</time>
        <extensions>
          <ns3:TrackPointExtension>
            <ns3:hr>134</ns3:hr>
            <ns3:cad>77</ns3:cad>
          </ns3:TrackPointExtension>
        </extensions>
      </trkpt>
      <trkpt lat="45.28905554674565792083740234375" lon="-70.8881997875869274139404296875">
        <ele>781.4000244140625</ele>
        <time>2026-08-21T15:22:44.000Z</time>
        <extensions>
          <ns3:TrackPointExtension>
            <ns3:hr>133</ns3:hr>
            <ns3:cad>77</ns3:cad>
          </ns3:TrackPointExtension>
        </extensions>
      </trkpt>
      <trkpt lat="45.28905085287988185882568359375" lon="-70.888223089277744293212890625">
        <ele>781.20001220703125</ele>
        <time>2026-08-21T15:22:45.000Z</time>
        <extensions>
          <ns3:TrackPointExtension>
            <ns3:hr>134</ns3:hr>
            <ns3:cad>75</ns3:cad>
          </ns3:TrackPointExtension>
        </extensions>
      </trkpt>
      <trkpt lat="45.289048254489898681640625" lon="-70.88824580423533916473388671875">
        <ele>781.20001220703125</ele>
        <time>2026-08-21T15:22:46.000Z</time>
        <extensions>
          <ns3:TrackPointExtension>
            <ns3:hr>134</ns3:hr>
            <ns3:cad>75</ns3:cad>
          </ns3:TrackPointExtension>
        </extensions>
      </trkpt>
      <trkpt lat="45.28905655257403850555419921875" lon="-70.888270698487758636474609375">
        <ele>781.20001220703125</ele>
        <time>2026-08-21T15:22:47.000Z</time>
        <extensions>
          <ns3:TrackPointExtension>
            <ns3:hr>134</ns3:hr>
            <ns3:cad>75</ns3:cad>
          </ns3:TrackPointExtension>
        </extensions>
      </trkpt>
      <trkpt lat="45.2890591509640216827392578125" lon="-70.8882916532456874847412109375">
        <ele>781</ele>
        <time>2026-08-21T15:22:48.000Z</time>
        <extensions>
          <ns3:TrackPointExtension>
            <ns3:hr>134</ns3:hr>
            <ns3:cad>74</ns3:cad>
          </ns3:TrackPointExtension>
        </extensions>
      </trkpt>
      <trkpt lat="45.2890517748892307281494140625" lon="-70.88830850087106227874755859375">
        <ele>780.79998779296875</ele>
        <time>2026-08-21T15:22:49.000Z</time>
        <extensions>
          <ns3:TrackPointExtension>
            <ns3:hr>134</ns3:hr>
            <ns3:cad>74</ns3:cad>
          </ns3:TrackPointExtension>
        </extensions>
      </trkpt>
      <trkpt lat="45.28904414735734462738037109375" lon="-70.8883194811642169952392578125">
        <ele>780.5999755859375</ele>
        <time>2026-08-21T15:22:50.000Z</time>
        <extensions>
          <ns3:TrackPointExtension>
            <ns3:hr>133</ns3:hr>
            <ns3:cad>74</ns3:cad>
          </ns3:TrackPointExtension>
        </extensions>
      </trkpt>
      <trkpt lat="45.28903006576001644134521484375" lon="-70.8883152902126312255859375">
        <ele>780.4000244140625</ele>
        <time>2026-08-21T15:22:51.000Z</time>
        <extensions>
          <ns3:TrackPointExtension>
            <ns3:hr>134</ns3:hr>
            <ns3:cad>74</ns3:cad>
          </ns3:TrackPointExtension>
        </extensions>
      </trkpt>
      <trkpt lat="45.28901296667754650115966796875" lon="-70.88831017725169658660888671875">
        <ele>780.4000244140625</ele>
        <time>2026-08-21T15:22:52.000Z</time>
        <extensions>
          <ns3:TrackPointExtension>
            <ns3:hr>134</ns3:hr>
            <ns3:cad>74</ns3:cad>
          </ns3:TrackPointExtension>
        </extensions>
      </trkpt>
      <trkpt lat="45.28899720869958400726318359375" lon="-70.88830615393817424774169921875">
        <ele>780.20001220703125</ele>
        <time>2026-08-21T15:22:53.000Z</time>
        <extensions>
          <ns3:TrackPointExtension>
            <ns3:hr>133</ns3:hr>
            <ns3:cad>74</ns3:cad>
          </ns3:TrackPointExtension>
        </extensions>
      </trkpt>
      <trkpt lat="45.28898195363581180572509765625" lon="-70.88831017725169658660888671875">
        <ele>780.20001220703125</ele>
        <time>2026-08-21T15:22:54.000Z</time>
        <extensions>
          <ns3:TrackPointExtension>
            <ns3:hr>133</ns3:hr>
            <ns3:cad>74</ns3:cad>
          </ns3:TrackPointExtension>
        </extensions>
      </trkpt>
      <trkpt lat="45.2889646030962467193603515625" lon="-70.88831705041229724884033203125">
        <ele>780.20001220703125</ele>
        <time>2026-08-21T15:22:55.000Z</time>
        <extensions>
          <ns3:TrackPointExtension>
            <ns3:hr>133</ns3:hr>
            <ns3:cad>73</ns3:cad>
          </ns3:TrackPointExtension>
        </extensions>
      </trkpt>
      <trkpt lat="45.28894004411995410919189453125" lon="-70.88832794688642024993896484375">
        <ele>780</ele>
        <time>2026-08-21T15:22:56.000Z</time>
        <extensions>
          <ns3:TrackPointExtension>
            <ns3:hr>133</ns3:hr>
            <ns3:cad>73</ns3:cad>
          </ns3:TrackPointExtension>
        </extensions>
      </trkpt>
      <trkpt lat="45.28892328031361103057861328125" lon="-70.8883392624557018280029296875">
        <ele>780</ele>
        <time>2026-08-21T15:22:57.000Z</time>
        <extensions>
          <ns3:TrackPointExtension>
            <ns3:hr>132</ns3:hr>
            <ns3:cad>72</ns3:cad>
          </ns3:TrackPointExtension>
        </extensions>
      </trkpt>
      <trkpt lat="45.28890282846987247467041015625" lon="-70.88835191912949085235595703125">
        <ele>779.79998779296875</ele>
        <time>2026-08-21T15:22:58.000Z</time>
        <extensions>
          <ns3:TrackPointExtension>
            <ns3:hr>132</ns3:hr>
            <ns3:cad>72</ns3:cad>
          </ns3:TrackPointExtension>
        </extensions>
      </trkpt>
      <trkpt lat="45.28888472355902194976806640625" lon="-70.88835979811847209930419921875">
        <ele>779.5999755859375</ele>
        <time>2026-08-21T15:22:59.000Z</time>
        <extensions>
          <ns3:TrackPointExtension>
            <ns3:hr>132</ns3:hr>
            <ns3:cad>72</ns3:cad>
          </ns3:TrackPointExtension>
        </extensions>
      </trkpt>
      <trkpt lat="45.288867540657520294189453125" lon="-70.88836918585002422332763671875">
        <ele>779.4000244140625</ele>
        <time>2026-08-21T15:23:00.000Z</time>
        <extensions>
          <ns3:TrackPointExtension>
            <ns3:hr>132</ns3:hr>
            <ns3:cad>0</ns3:cad>
          </ns3:TrackPointExtension>
        </extensions>
      </trkpt>
      <trkpt lat="45.28885186649858951568603515625" lon="-70.8883754722774028778076171875">
        <ele>779.20001220703125</ele>
        <time>2026-08-21T15:23:01.000Z</time>
        <extensions>
          <ns3:TrackPointExtension>
            <ns3:hr>132</ns3:hr>
            <ns3:cad>0</ns3:cad>
          </ns3:TrackPointExtension>
        </extensions>
      </trkpt>
      <trkpt lat="45.2888350188732147216796875" lon="-70.8883868716657161712646484375">
        <ele>779.20001220703125</ele>
        <time>2026-08-21T15:23:02.000Z</time>
        <extensions>
          <ns3:TrackPointExtension>
            <ns3:hr>132</ns3:hr>
            <ns3:cad>73</ns3:cad>
          </ns3:TrackPointExtension>
        </extensions>
      </trkpt>
      <trkpt lat="45.288818590342998504638671875" lon="-70.88840388692915439605712890625">
        <ele>779</ele>
        <time>2026-08-21T15:23:03.000Z</time>
        <extensions>
          <ns3:TrackPointExtension>
            <ns3:hr>131</ns3:hr>
            <ns3:cad>73</ns3:cad>
          </ns3:TrackPointExtension>
        </extensions>
      </trkpt>
      <trkpt lat="45.288805849850177764892578125" lon="-70.88842727243900299072265625">
        <ele>778.79998779296875</ele>
        <time>2026-08-21T15:23:04.000Z</time>
        <extensions>
          <ns3:TrackPointExtension>
            <ns3:hr>132</ns3:hr>
            <ns3:cad>73</ns3:cad>
          </ns3:TrackPointExtension>
        </extensions>
      </trkpt>
      <trkpt lat="45.28879151679575443267822265625" lon="-70.88844294659793376922607421875">
        <ele>778.79998779296875</ele>
        <time>2026-08-21T15:23:05.000Z</time>
        <extensions>
          <ns3:TrackPointExtension>
            <ns3:hr>132</ns3:hr>
            <ns3:cad>73</ns3:cad>
          </ns3:TrackPointExtension>
        </extensions>
      </trkpt>
      <trkpt lat="45.28877743519842624664306640625" lon="-70.88845677673816680908203125">
        <ele>778.5999755859375</ele>
        <time>2026-08-21T15:23:06.000Z</time>
        <extensions>
          <ns3:TrackPointExtension>
            <ns3:hr>133</ns3:hr>
            <ns3:cad>73</ns3:cad>
          </ns3:TrackPointExtension>
        </extensions>
      </trkpt>
      <trkpt lat="45.28876125812530517578125" lon="-70.88848401792347431182861328125">
        <ele>778.4000244140625</ele>
        <time>2026-08-21T15:23:07.000Z</time>
        <extensions>
          <ns3:TrackPointExtension>
            <ns3:hr>133</ns3:hr>
            <ns3:cad>74</ns3:cad>
          </ns3:TrackPointExtension>
        </extensions>
      </trkpt>
      <trkpt lat="45.28875044547021389007568359375" lon="-70.88851301930844783782958984375">
        <ele>778.20001220703125</ele>
        <time>2026-08-21T15:23:08.000Z</time>
        <extensions>
          <ns3:TrackPointExtension>
            <ns3:hr>134</ns3:hr>
            <ns3:cad>74</ns3:cad>
          </ns3:TrackPointExtension>
        </extensions>
      </trkpt>
      <trkpt lat="45.28873820789158344268798828125" lon="-70.88853028602898120880126953125">
        <ele>778</ele>
        <time>2026-08-21T15:23:09.000Z</time>
        <extensions>
          <ns3:TrackPointExtension>
            <ns3:hr>134</ns3:hr>
            <ns3:cad>74</ns3:cad>
          </ns3:TrackPointExtension>
        </extensions>
      </trkpt>
      <trkpt lat="45.2887248806655406951904296875" lon="-70.888544954359531402587890625">
        <ele>777.79998779296875</ele>
        <time>2026-08-21T15:23:10.000Z</time>
        <extensions>
          <ns3:TrackPointExtension>
            <ns3:hr>134</ns3:hr>
            <ns3:cad>77</ns3:cad>
          </ns3:TrackPointExtension>
        </extensions>
      </trkpt>
      <trkpt lat="45.288708619773387908935546875" lon="-70.88856113143265247344970703125">
        <ele>777.5999755859375</ele>
        <time>2026-08-21T15:23:11.000Z</time>
        <extensions>
          <ns3:TrackPointExtension>
            <ns3:hr>135</ns3:hr>
            <ns3:cad>77</ns3:cad>
          </ns3:TrackPointExtension>
        </extensions>
      </trkpt>
      <trkpt lat="45.28869889676570892333984375" lon="-70.88857454247772693634033203125">
        <ele>777.5999755859375</ele>
        <time>2026-08-21T15:23:12.000Z</time>
        <extensions>
          <ns3:TrackPointExtension>
            <ns3:hr>135</ns3:hr>
            <ns3:cad>77</ns3:cad>
          </ns3:TrackPointExtension>
        </extensions>
      </trkpt>
      <trkpt lat="45.28868724592030048370361328125" lon="-70.88860027492046356201171875">
        <ele>777.4000244140625</ele>
        <time>2026-08-21T15:23:13.000Z</time>
        <extensions>
          <ns3:TrackPointExtension>
            <ns3:hr>135</ns3:hr>
            <ns3:cad>77</ns3:cad>
          </ns3:TrackPointExtension>
        </extensions>
      </trkpt>
      <trkpt lat="45.28867349959909915924072265625" lon="-70.8886202238500118255615234375">
        <ele>777.20001220703125</ele>
        <time>2026-08-21T15:23:14.000Z</time>
        <extensions>
          <ns3:TrackPointExtension>
            <ns3:hr>135</ns3:hr>
            <ns3:cad>77</ns3:cad>
          </ns3:TrackPointExtension>
        </extensions>
      </trkpt>
      <trkpt lat="45.288662351667881011962890625" lon="-70.88863891549408435821533203125">
        <ele>777</ele>
        <time>2026-08-21T15:23:15.000Z</time>
        <extensions>
          <ns3:TrackPointExtension>
            <ns3:hr>135</ns3:hr>
            <ns3:cad>77</ns3:cad>
          </ns3:TrackPointExtension>
        </extensions>
      </trkpt>
      <trkpt lat="45.28865003027021884918212890625" lon="-70.8886621333658695220947265625">
        <ele>776.79998779296875</ele>
        <time>2026-08-21T15:23:16.000Z</time>
        <extensions>
          <ns3:TrackPointExtension>
            <ns3:hr>134</ns3:hr>
            <ns3:cad>77</ns3:cad>
          </ns3:TrackPointExtension>
        </extensions>
      </trkpt>
      <trkpt lat="45.28863980434834957122802734375" lon="-70.88868166320025920867919921875">
        <ele>776.5999755859375</ele>
        <time>2026-08-21T15:23:17.000Z</time>
        <extensions>
          <ns3:TrackPointExtension>
            <ns3:hr>134</ns3:hr>
            <ns3:cad>77</ns3:cad>
          </ns3:TrackPointExtension>
        </extensions>
      </trkpt>
      <trkpt lat="45.28863142244517803192138671875" lon="-70.8887110836803913116455078125">
        <ele>776.5999755859375</ele>
        <time>2026-08-21T15:23:18.000Z</time>
        <extensions>
          <ns3:TrackPointExtension>
            <ns3:hr>134</ns3:hr>
            <ns3:cad>77</ns3:cad>
          </ns3:TrackPointExtension>
        </extensions>
      </trkpt>
      <trkpt lat="45.28862488456070423126220703125" lon="-70.888739414513111114501953125">
        <ele>776.5999755859375</ele>
        <time>2026-08-21T15:23:19.000Z</time>
        <extensions>
          <ns3:TrackPointExtension>
            <ns3:hr>134</ns3:hr>
            <ns3:cad>72</ns3:cad>
          </ns3:TrackPointExtension>
        </extensions>
      </trkpt>
      <trkpt lat="45.28861884959042072296142578125" lon="-70.8887714333832263946533203125">
        <ele>776.4000244140625</ele>
        <time>2026-08-21T15:23:20.000Z</time>
        <extensions>
          <ns3:TrackPointExtension>
            <ns3:hr>134</ns3:hr>
            <ns3:cad>72</ns3:cad>
          </ns3:TrackPointExtension>
        </extensions>
      </trkpt>
      <trkpt lat="45.28860828839242458343505859375" lon="-70.88880152441561222076416015625">
        <ele>776.4000244140625</ele>
        <time>2026-08-21T15:23:21.000Z</time>
        <extensions>
          <ns3:TrackPointExtension>
            <ns3:hr>134</ns3:hr>
            <ns3:cad>76</ns3:cad>
          </ns3:TrackPointExtension>
        </extensions>
      </trkpt>
      <trkpt lat="45.2886031754314899444580078125" lon="-70.8888254128396511077880859375">
        <ele>776.4000244140625</ele>
        <time>2026-08-21T15:23:22.000Z</time>
        <extensions>
          <ns3:TrackPointExtension>
            <ns3:hr>134</ns3:hr>
            <ns3:cad>76</ns3:cad>
          </ns3:TrackPointExtension>
        </extensions>
      </trkpt>
      <trkpt lat="45.288597308099269866943359375" lon="-70.888854749500751495361328125">
        <ele>776.20001220703125</ele>
        <time>2026-08-21T15:23:23.000Z</time>
        <extensions>
          <ns3:TrackPointExtension>
            <ns3:hr>133</ns3:hr>
            <ns3:cad>76</ns3:cad>
          </ns3:TrackPointExtension>
        </extensions>
      </trkpt>
      <trkpt lat="45.2885909378528594970703125" lon="-70.88887729682028293609619140625">
        <ele>776</ele>
        <time>2026-08-21T15:23:24.000Z</time>
        <extensions>
          <ns3:TrackPointExtension>
            <ns3:hr>133</ns3:hr>
            <ns3:cad>74</ns3:cad>
          </ns3:TrackPointExtension>
        </extensions>
      </trkpt>
      <trkpt lat="45.28858113102614879608154296875" lon="-70.88889875449240207672119140625">
        <ele>776</ele>
        <time>2026-08-21T15:23:25.000Z</time>
        <extensions>
          <ns3:TrackPointExtension>
            <ns3:hr>132</ns3:hr>
            <ns3:cad>74</ns3:cad>
          </ns3:TrackPointExtension>
        </extensions>
      </trkpt>
      <trkpt lat="45.28857442550361156463623046875" lon="-70.888917110860347747802734375">
        <ele>775.79998779296875</ele>
        <time>2026-08-21T15:23:26.000Z</time>
        <extensions>
          <ns3:TrackPointExtension>
            <ns3:hr>132</ns3:hr>
            <ns3:cad>74</ns3:cad>
          </ns3:TrackPointExtension>
        </extensions>
      </trkpt>
      <trkpt lat="45.28856554068624973297119140625" lon="-70.8889343775808811187744140625">
        <ele>775.79998779296875</ele>
        <time>2026-08-21T15:23:27.000Z</time>
        <extensions>
          <ns3:TrackPointExtension>
            <ns3:hr>131</ns3:hr>
            <ns3:cad>74</ns3:cad>
          </ns3:TrackPointExtension>
        </extensions>
      </trkpt>
      <trkpt lat="45.28855196200311183929443359375" lon="-70.8889534883201122283935546875">
        <ele>775.5999755859375</ele>
        <time>2026-08-21T15:23:28.000Z</time>
        <extensions>
          <ns3:TrackPointExtension>
            <ns3:hr>131</ns3:hr>
            <ns3:cad>74</ns3:cad>
          </ns3:TrackPointExtension>
        </extensions>
      </trkpt>
      <trkpt lat="45.28854089789092540740966796875" lon="-70.88896907866001129150390625">
        <ele>775.5999755859375</ele>
        <time>2026-08-21T15:23:29.000Z</time>
        <extensions>
          <ns3:TrackPointExtension>
            <ns3:hr>131</ns3:hr>
            <ns3:cad>73</ns3:cad>
          </ns3:TrackPointExtension>
        </extensions>
      </trkpt>
      <trkpt lat="45.28852933086454868316650390625" lon="-70.888990871608257293701171875">
        <ele>775.4000244140625</ele>
        <time>2026-08-21T15:23:30.000Z</time>
        <extensions>
          <ns3:TrackPointExtension>
            <ns3:hr>131</ns3:hr>
            <ns3:cad>73</ns3:cad>
          </ns3:TrackPointExtension>
        </extensions>
      </trkpt>
      <trkpt lat="45.288522541522979736328125" lon="-70.8890161849558353424072265625">
        <ele>775.4000244140625</ele>
        <time>2026-08-21T15:23:31.000Z</time>
        <extensions>
          <ns3:TrackPointExtension>
            <ns3:hr>132</ns3:hr>
            <ns3:cad>73</ns3:cad>
          </ns3:TrackPointExtension>
        </extensions>
      </trkpt>
      <trkpt lat="45.28851776383817195892333984375" lon="-70.889039821922779083251953125">
        <ele>775.20001220703125</ele>
        <time>2026-08-21T15:23:32.000Z</time>
        <extensions>
          <ns3:TrackPointExtension>
            <ns3:hr>131</ns3:hr>
            <ns3:cad>73</ns3:cad>
          </ns3:TrackPointExtension>
        </extensions>
      </trkpt>
      <trkpt lat="45.288512147963047027587890625" lon="-70.88906857185065746307373046875">
        <ele>775</ele>
        <time>2026-08-21T15:23:33.000Z</time>
        <extensions>
          <ns3:TrackPointExtension>
            <ns3:hr>131</ns3:hr>
            <ns3:cad>73</ns3:cad>
          </ns3:TrackPointExtension>
        </extensions>
      </trkpt>
      <trkpt lat="45.28850435279309749603271484375" lon="-70.88908952660858631134033203125">
        <ele>774.79998779296875</ele>
        <time>2026-08-21T15:23:34.000Z</time>
        <extensions>
          <ns3:TrackPointExtension>
            <ns3:hr>131</ns3:hr>
            <ns3:cad>73</ns3:cad>
          </ns3:TrackPointExtension>
        </extensions>
      </trkpt>
      <trkpt lat="45.28849898837506771087646484375" lon="-70.88911668397486209869384765625">
        <ele>774.5999755859375</ele>
        <time>2026-08-21T15:23:35.000Z</time>
        <extensions>
          <ns3:TrackPointExtension>
            <ns3:hr>131</ns3:hr>
            <ns3:cad>73</ns3:cad>
          </ns3:TrackPointExtension>
        </extensions>
      </trkpt>
      <trkpt lat="45.2884898521006107330322265625" lon="-70.88914065621793270111083984375">
        <ele>774.4000244140625</ele>
        <time>2026-08-21T15:23:36.000Z</time>
        <extensions>
          <ns3:TrackPointExtension>
            <ns3:hr>131</ns3:hr>
            <ns3:cad>75</ns3:cad>
          </ns3:TrackPointExtension>
        </extensions>
      </trkpt>
      <trkpt lat="45.2884781174361705780029296875" lon="-70.8891549892723560333251953125">
        <ele>774</ele>
        <time>2026-08-21T15:23:37.000Z</time>
        <extensions>
          <ns3:TrackPointExtension>
            <ns3:hr>131</ns3:hr>
            <ns3:cad>75</ns3:cad>
          </ns3:TrackPointExtension>
        </extensions>
      </trkpt>
      <trkpt lat="45.2884683944284915924072265625" lon="-70.88917535729706287384033203125">
        <ele>773.5999755859375</ele>
        <time>2026-08-21T15:23:38.000Z</time>
        <extensions>
          <ns3:TrackPointExtension>
            <ns3:hr>131</ns3:hr>
            <ns3:cad>74</ns3:cad>
          </ns3:TrackPointExtension>
        </extensions>
      </trkpt>
      <trkpt lat="45.28846177272498607635498046875" lon="-70.8891938813030719757080078125">
        <ele>773.4000244140625</ele>
        <time>2026-08-21T15:23:39.000Z</time>
        <extensions>
          <ns3:TrackPointExtension>
            <ns3:hr>131</ns3:hr>
            <ns3:cad>74</ns3:cad>
          </ns3:TrackPointExtension>
        </extensions>
      </trkpt>
      <trkpt lat="45.2884539775550365447998046875" lon="-70.889206789433956146240234375">
        <ele>773.20001220703125</ele>
        <time>2026-08-21T15:23:40.000Z</time>
        <extensions>
          <ns3:TrackPointExtension>
            <ns3:hr>131</ns3:hr>
            <ns3:cad>76</ns3:cad>
          </ns3:TrackPointExtension>
        </extensions>
      </trkpt>
      <trkpt lat="45.28843914158642292022705078125" lon="-70.889227576553821563720703125">
        <ele>773</ele>
        <time>2026-08-21T15:23:41.000Z</time>
        <extensions>
          <ns3:TrackPointExtension>
            <ns3:hr>132</ns3:hr>
            <ns3:cad>76</ns3:cad>
          </ns3:TrackPointExtension>
        </extensions>
      </trkpt>
      <trkpt lat="45.28842589817941188812255859375" lon="-70.88924928568303585052490234375">
        <ele>772.79998779296875</ele>
        <time>2026-08-21T15:23:42.000Z</time>
        <extensions>
          <ns3:TrackPointExtension>
            <ns3:hr>132</ns3:hr>
            <ns3:cad>76</ns3:cad>
          </ns3:TrackPointExtension>
        </extensions>
      </trkpt>
      <trkpt lat="45.288415253162384033203125" lon="-70.889263451099395751953125">
        <ele>772.5999755859375</ele>
        <time>2026-08-21T15:23:43.000Z</time>
        <extensions>
          <ns3:TrackPointExtension>
            <ns3:hr>132</ns3:hr>
            <ns3:cad>75</ns3:cad>
          </ns3:TrackPointExtension>
        </extensions>
      </trkpt>
      <trkpt lat="45.28840293176472187042236328125" lon="-70.88927350938320159912109375">
        <ele>772.4000244140625</ele>
        <time>2026-08-21T15:23:44.000Z</time>
        <extensions>
          <ns3:TrackPointExtension>
            <ns3:hr>132</ns3:hr>
            <ns3:cad>75</ns3:cad>
          </ns3:TrackPointExtension>
        </extensions>
      </trkpt>
      <trkpt lat="45.28838910162448883056640625" lon="-70.88928700424730777740478515625">
        <ele>772</ele>
        <time>2026-08-21T15:23:45.000Z</time>
        <extensions>
          <ns3:TrackPointExtension>
            <ns3:hr>132</ns3:hr>
            <ns3:cad>0</ns3:cad>
          </ns3:TrackPointExtension>
        </extensions>
      </trkpt>
      <trkpt lat="45.2883768640458583831787109375" lon="-70.889295637607574462890625">
        <ele>771.79998779296875</ele>
        <time>2026-08-21T15:23:46.000Z</time>
        <extensions>
          <ns3:TrackPointExtension>
            <ns3:hr>132</ns3:hr>
            <ns3:cad>0</ns3:cad>
          </ns3:TrackPointExtension>
        </extensions>
      </trkpt>
      <trkpt lat="45.28836429119110107421875" lon="-70.88930695317685604095458984375">
        <ele>771.79998779296875</ele>
        <time>2026-08-21T15:23:47.000Z</time>
        <extensions>
          <ns3:TrackPointExtension>
            <ns3:hr>132</ns3:hr>
            <ns3:cad>0</ns3:cad>
          </ns3:TrackPointExtension>
        </extensions>
      </trkpt>
      <trkpt lat="45.28835448436439037322998046875" lon="-70.88932137005031108856201171875">
        <ele>771.79998779296875</ele>
        <time>2026-08-21T15:23:48.000Z</time>
        <extensions>
          <ns3:TrackPointExtension>
            <ns3:hr>133</ns3:hr>
            <ns3:cad>54</ns3:cad>
          </ns3:TrackPointExtension>
        </extensions>
      </trkpt>
      <trkpt lat="45.28834694065153598785400390625" lon="-70.88933478109538555145263671875">
        <ele>771.5999755859375</ele>
        <time>2026-08-21T15:23:49.000Z</time>
        <extensions>
          <ns3:TrackPointExtension>
            <ns3:hr>133</ns3:hr>
            <ns3:cad>54</ns3:cad>
          </ns3:TrackPointExtension>
        </extensions>
      </trkpt>
      <trkpt lat="45.2883389778435230255126953125" lon="-70.88934886269271373748779296875">
        <ele>771.5999755859375</ele>
        <time>2026-08-21T15:23:50.000Z</time>
        <extensions>
          <ns3:TrackPointExtension>
            <ns3:hr>134</ns3:hr>
            <ns3:cad>58</ns3:cad>
          </ns3:TrackPointExtension>
        </extensions>
      </trkpt>
      <trkpt lat="45.28833067975938320159912109375" lon="-70.8893658779561519622802734375">
        <ele>771.5999755859375</ele>
        <time>2026-08-21T15:23:51.000Z</time>
        <extensions>
          <ns3:TrackPointExtension>
            <ns3:hr>134</ns3:hr>
            <ns3:cad>57</ns3:cad>
          </ns3:TrackPointExtension>
        </extensions>
      </trkpt>
      <trkpt lat="45.2883232198655605316162109375" lon="-70.88938289321959018707275390625">
        <ele>771.4000244140625</ele>
        <time>2026-08-21T15:23:52.000Z</time>
        <extensions>
          <ns3:TrackPointExtension>
            <ns3:hr>134</ns3:hr>
            <ns3:cad>57</ns3:cad>
          </ns3:TrackPointExtension>
        </extensions>
      </trkpt>
      <trkpt lat="45.28831659816205501556396484375" lon="-70.88940083049237728118896484375">
        <ele>771.4000244140625</ele>
        <time>2026-08-21T15:23:53.000Z</time>
        <extensions>
          <ns3:TrackPointExtension>
            <ns3:hr>134</ns3:hr>
            <ns3:cad>57</ns3:cad>
          </ns3:TrackPointExtension>
        </extensions>
      </trkpt>
      <trkpt lat="45.28830771334469318389892578125" lon="-70.8894161693751811981201171875">
        <ele>771.4000244140625</ele>
        <time>2026-08-21T15:23:54.000Z</time>
        <extensions>
          <ns3:TrackPointExtension>
            <ns3:hr>134</ns3:hr>
            <ns3:cad>57</ns3:cad>
          </ns3:TrackPointExtension>
        </extensions>
      </trkpt>
      <trkpt lat="45.28829991817474365234375" lon="-70.88943385519087314605712890625">
        <ele>771.20001220703125</ele>
        <time>2026-08-21T15:23:55.000Z</time>
        <extensions>
          <ns3:TrackPointExtension>
            <ns3:hr>133</ns3:hr>
            <ns3:cad>57</ns3:cad>
          </ns3:TrackPointExtension>
        </extensions>
      </trkpt>
      <trkpt lat="45.28829497285187244415283203125" lon="-70.889454893767833709716796875">
        <ele>771.20001220703125</ele>
        <time>2026-08-21T15:23:56.000Z</time>
        <extensions>
          <ns3:TrackPointExtension>
            <ns3:hr>133</ns3:hr>
            <ns3:cad>57</ns3:cad>
          </ns3:TrackPointExtension>
        </extensions>
      </trkpt>
      <trkpt lat="45.2882890217006206512451171875" lon="-70.8894724957644939422607421875">
        <ele>771</ele>
        <time>2026-08-21T15:23:57.000Z</time>
        <extensions>
          <ns3:TrackPointExtension>
            <ns3:hr>132</ns3:hr>
            <ns3:cad>58</ns3:cad>
          </ns3:TrackPointExtension>
        </extensions>
      </trkpt>
      <trkpt lat="45.2882823161780834197998046875" lon="-70.8894892595708370208740234375">
        <ele>771</ele>
        <time>2026-08-21T15:23:58.000Z</time>
        <extensions>
          <ns3:TrackPointExtension>
            <ns3:hr>132</ns3:hr>
            <ns3:cad>58</ns3:cad>
          </ns3:TrackPointExtension>
        </extensions>
      </trkpt>
      <trkpt lat="45.28827653266489505767822265625" lon="-70.8895060233771800994873046875">
        <ele>770.79998779296875</ele>
        <time>2026-08-21T15:23:59.000Z</time>
        <extensions>
          <ns3:TrackPointExtension>
            <ns3:hr>131</ns3:hr>
            <ns3:cad>58</ns3:cad>
          </ns3:TrackPointExtension>
        </extensions>
      </trkpt>
      <trkpt lat="45.2882699109613895416259765625" lon="-70.88952563703060150146484375">
        <ele>770.5999755859375</ele>
        <time>2026-08-21T15:24:00.000Z</time>
        <extensions>
          <ns3:TrackPointExtension>
            <ns3:hr>132</ns3:hr>
            <ns3:cad>58</ns3:cad>
          </ns3:TrackPointExtension>
        </extensions>
      </trkpt>
      <trkpt lat="45.2882632054388523101806640625" lon="-70.88953779079020023345947265625">
        <ele>770.5999755859375</ele>
        <time>2026-08-21T15:24:01.000Z</time>
        <extensions>
          <ns3:TrackPointExtension>
            <ns3:hr>132</ns3:hr>
            <ns3:cad>58</ns3:cad>
          </ns3:TrackPointExtension>
        </extensions>
      </trkpt>
      <trkpt lat="45.28824920766055583953857421875" lon="-70.8895529620349407196044921875">
        <ele>770.4000244140625</ele>
        <time>2026-08-21T15:24:02.000Z</time>
        <extensions>
          <ns3:TrackPointExtension>
            <ns3:hr>132</ns3:hr>
            <ns3:cad>58</ns3:cad>
          </ns3:TrackPointExtension>
        </extensions>
      </trkpt>
      <trkpt lat="45.28823797591030597686767578125" lon="-70.88956511579453945159912109375">
        <ele>770.20001220703125</ele>
        <time>2026-08-21T15:24:03.000Z</time>
        <extensions>
          <ns3:TrackPointExtension>
            <ns3:hr>131</ns3:hr>
            <ns3:cad>58</ns3:cad>
          </ns3:TrackPointExtension>
        </extensions>
      </trkpt>
      <trkpt lat="45.28822925873100757598876953125" lon="-70.88957483880221843719482421875">
        <ele>770.20001220703125</ele>
        <time>2026-08-21T15:24:04.000Z</time>
        <extensions>
          <ns3:TrackPointExtension>
            <ns3:hr>131</ns3:hr>
            <ns3:cad>58</ns3:cad>
          </ns3:TrackPointExtension>
        </extensions>
      </trkpt>
      <trkpt lat="45.2882155962288379669189453125" lon="-70.889585651457309722900390625">
        <ele>770</ele>
        <time>2026-08-21T15:24:05.000Z</time>
        <extensions>
          <ns3:TrackPointExtension>
            <ns3:hr>130</ns3:hr>
            <ns3:cad>58</ns3:cad>
          </ns3:TrackPointExtension>
        </extensions>
      </trkpt>
      <trkpt lat="45.28820327483117580413818359375" lon="-70.889591686427593231201171875">
        <ele>769.79998779296875</ele>
        <time>2026-08-21T15:24:06.000Z</time>
        <extensions>
          <ns3:TrackPointExtension>
            <ns3:hr>130</ns3:hr>
            <ns3:cad>58</ns3:cad>
          </ns3:TrackPointExtension>
        </extensions>
      </trkpt>
      <trkpt lat="45.28818081133067607879638671875" lon="-70.88959763757884502410888671875">
        <ele>769.5999755859375</ele>
        <time>2026-08-21T15:24:07.000Z</time>
        <extensions>
          <ns3:TrackPointExtension>
            <ns3:hr>129</ns3:hr>
            <ns3:cad>61</ns3:cad>
          </ns3:TrackPointExtension>
        </extensions>
      </trkpt>
      <trkpt lat="45.2881629578769207000732421875" lon="-70.889614485204219818115234375">
        <ele>769.4000244140625</ele>
        <time>2026-08-21T15:24:08.000Z</time>
        <extensions>
          <ns3:TrackPointExtension>
            <ns3:hr>128</ns3:hr>
            <ns3:cad>61</ns3:cad>
          </ns3:TrackPointExtension>
        </extensions>
      </trkpt>
      <trkpt lat="45.28815281577408313751220703125" lon="-70.88962596841156482696533203125">
        <ele>769.20001220703125</ele>
        <time>2026-08-21T15:24:09.000Z</time>
        <extensions>
          <ns3:TrackPointExtension>
            <ns3:hr>128</ns3:hr>
            <ns3:cad>61</ns3:cad>
          </ns3:TrackPointExtension>
        </extensions>
      </trkpt>
      <trkpt lat="45.288134627044200897216796875" lon="-70.88963703252375125885009765625">
        <ele>769</ele>
        <time>2026-08-21T15:24:10.000Z</time>
        <extensions>
          <ns3:TrackPointExtension>
            <ns3:hr>128</ns3:hr>
            <ns3:cad>0</ns3:cad>
          </ns3:TrackPointExtension>
        </extensions>
      </trkpt>
      <trkpt lat="45.288119204342365264892578125" lon="-70.88965061120688915252685546875">
        <ele>768.5999755859375</ele>
        <time>2026-08-21T15:24:11.000Z</time>
        <extensions>
          <ns3:TrackPointExtension>
            <ns3:hr>128</ns3:hr>
            <ns3:cad>0</ns3:cad>
          </ns3:TrackPointExtension>
        </extensions>
      </trkpt>
      <trkpt lat="45.28811224736273288726806640625" lon="-70.8896750025451183319091796875">
        <ele>768.4000244140625</ele>
        <time>2026-08-21T15:24:12.000Z</time>
        <extensions>
          <ns3:TrackPointExtension>
            <ns3:hr>128</ns3:hr>
            <ns3:cad>69</ns3:cad>
          </ns3:TrackPointExtension>
        </extensions>
      </trkpt>
      <trkpt lat="45.28810881078243255615234375" lon="-70.8896931074559688568115234375">
        <ele>768.20001220703125</ele>
        <time>2026-08-21T15:24:13.000Z</time>
        <extensions>
          <ns3:TrackPointExtension>
            <ns3:hr>128</ns3:hr>
            <ns3:cad>69</ns3:cad>
          </ns3:TrackPointExtension>
        </extensions>
      </trkpt>
      <trkpt lat="45.28810168616473674774169921875" lon="-70.88971045799553394317626953125">
        <ele>768</ele>
        <time>2026-08-21T15:24:14.000Z</time>
        <extensions>
          <ns3:TrackPointExtension>
            <ns3:hr>128</ns3:hr>
            <ns3:cad>69</ns3:cad>
          </ns3:TrackPointExtension>
        </extensions>
      </trkpt>
      <trkpt lat="45.28809866867959499359130859375" lon="-70.88971800170838832855224609375">
        <ele>767.79998779296875</ele>
        <time>2026-08-21T15:24:15.000Z</time>
        <extensions>
          <ns3:TrackPointExtension>
            <ns3:hr>128</ns3:hr>
            <ns3:cad>69</ns3:cad>
          </ns3:TrackPointExtension>
        </extensions>
      </trkpt>
      <trkpt lat="45.28808408416807651519775390625" lon="-70.8897313289344310760498046875">
        <ele>767.5999755859375</ele>
        <time>2026-08-21T15:24:16.000Z</time>
        <extensions>
          <ns3:TrackPointExtension>
            <ns3:hr>128</ns3:hr>
            <ns3:cad>69</ns3:cad>
          </ns3:TrackPointExtension>
        </extensions>
      </trkpt>
      <trkpt lat="45.2880707569420337677001953125" lon="-70.889752618968486785888671875">
        <ele>767.4000244140625</ele>
        <time>2026-08-21T15:24:17.000Z</time>
        <extensions>
          <ns3:TrackPointExtension>
            <ns3:hr>128</ns3:hr>
            <ns3:cad>69</ns3:cad>
          </ns3:TrackPointExtension>
        </extensions>
      </trkpt>
      <trkpt lat="45.28806078247725963592529296875" lon="-70.88977097533643245697021484375">
        <ele>767.4000244140625</ele>
        <time>2026-08-21T15:24:18.000Z</time>
        <extensions>
          <ns3:TrackPointExtension>
            <ns3:hr>128</ns3:hr>
            <ns3:cad>69</ns3:cad>
          </ns3:TrackPointExtension>
        </extensions>
      </trkpt>
      <trkpt lat="45.2880503050982952117919921875" lon="-70.88978874497115612030029296875">
        <ele>767.20001220703125</ele>
        <time>2026-08-21T15:24:19.000Z</time>
        <extensions>
          <ns3:TrackPointExtension>
            <ns3:hr>128</ns3:hr>
            <ns3:cad>69</ns3:cad>
          </ns3:TrackPointExtension>
        </extensions>
      </trkpt>
      <trkpt lat="45.2880385704338550567626953125" lon="-70.88980919681489467620849609375">
        <ele>767.20001220703125</ele>
        <time>2026-08-21T15:24:20.000Z</time>
        <extensions>
          <ns3:TrackPointExtension>
            <ns3:hr>128</ns3:hr>
            <ns3:cad>69</ns3:cad>
          </ns3:TrackPointExtension>
        </extensions>
      </trkpt>
      <trkpt lat="45.288028009235858917236328125" lon="-70.88982931338250637054443359375">
        <ele>767.20001220703125</ele>
        <time>2026-08-21T15:24:21.000Z</time>
        <extensions>
          <ns3:TrackPointExtension>
            <ns3:hr>128</ns3:hr>
            <ns3:cad>69</ns3:cad>
          </ns3:TrackPointExtension>
        </extensions>
      </trkpt>
      <trkpt lat="45.2880164422094821929931640625" lon="-70.88985177688300609588623046875">
        <ele>767</ele>
        <time>2026-08-21T15:24:22.000Z</time>
        <extensions>
          <ns3:TrackPointExtension>
            <ns3:hr>128</ns3:hr>
            <ns3:cad>69</ns3:cad>
          </ns3:TrackPointExtension>
        </extensions>
      </trkpt>
      <trkpt lat="45.28800730593502521514892578125" lon="-70.889881365001201629638671875">
        <ele>767</ele>
        <time>2026-08-21T15:24:23.000Z</time>
        <extensions>
          <ns3:TrackPointExtension>
            <ns3:hr>128</ns3:hr>
            <ns3:cad>69</ns3:cad>
          </ns3:TrackPointExtension>
        </extensions>
      </trkpt>
      <trkpt lat="45.28799674473702907562255859375" lon="-70.88991866447031497955322265625">
        <ele>766.79998779296875</ele>
        <time>2026-08-21T15:24:24.000Z</time>
        <extensions>
          <ns3:TrackPointExtension>
            <ns3:hr>127</ns3:hr>
            <ns3:cad>71</ns3:cad>
          </ns3:TrackPointExtension>
        </extensions>
      </trkpt>
      <trkpt lat="45.28798517771065235137939453125" lon="-70.88994448073208332061767578125">
        <ele>766.79998779296875</ele>
        <time>2026-08-21T15:24:25.000Z</time>
        <extensions>
          <ns3:TrackPointExtension>
            <ns3:hr>128</ns3:hr>
            <ns3:cad>71</ns3:cad>
          </ns3:TrackPointExtension>
        </extensions>
      </trkpt>
      <trkpt lat="45.2879741974174976348876953125" lon="-70.8899733982980251312255859375">
        <ele>766.5999755859375</ele>
        <time>2026-08-21T15:24:26.000Z</time>
        <extensions>
          <ns3:TrackPointExtension>
            <ns3:hr>128</ns3:hr>
            <ns3:cad>73</ns3:cad>
          </ns3:TrackPointExtension>
        </extensions>
      </trkpt>
      <trkpt lat="45.28796933591365814208984375" lon="-70.88999896310269832611083984375">
        <ele>766.5999755859375</ele>
        <time>2026-08-21T15:24:27.000Z</time>
        <extensions>
          <ns3:TrackPointExtension>
            <ns3:hr>128</ns3:hr>
            <ns3:cad>73</ns3:cad>
          </ns3:TrackPointExtension>
        </extensions>
      </trkpt>
      <trkpt lat="45.28796388767659664154052734375" lon="-70.89003383181989192962646484375">
        <ele>766.5999755859375</ele>
        <time>2026-08-21T15:24:28.000Z</time>
        <extensions>
          <ns3:TrackPointExtension>
            <ns3:hr>128</ns3:hr>
            <ns3:cad>73</ns3:cad>
          </ns3:TrackPointExtension>
        </extensions>
      </trkpt>
      <trkpt lat="45.287957601249217987060546875" lon="-70.890053696930408477783203125">
        <ele>766.4000244140625</ele>
        <time>2026-08-21T15:24:29.000Z</time>
        <extensions>
          <ns3:TrackPointExtension>
            <ns3:hr>128</ns3:hr>
            <ns3:cad>74</ns3:cad>
          </ns3:TrackPointExtension>
        </extensions>
      </trkpt>
      <trkpt lat="45.28794863261282444000244140625" lon="-70.8900830335915088653564453125">
        <ele>766.20001220703125</ele>
        <time>2026-08-21T15:24:30.000Z</time>
        <extensions>
          <ns3:TrackPointExtension>
            <ns3:hr>128</ns3:hr>
            <ns3:cad>74</ns3:cad>
          </ns3:TrackPointExtension>
        </extensions>
      </trkpt>
      <trkpt lat="45.2879393287003040313720703125" lon="-70.89010809548199176788330078125">
        <ele>766.20001220703125</ele>
        <time>2026-08-21T15:24:31.000Z</time>
        <extensions>
          <ns3:TrackPointExtension>
            <ns3:hr>129</ns3:hr>
            <ns3:cad>74</ns3:cad>
          </ns3:TrackPointExtension>
        </extensions>
      </trkpt>
      <trkpt lat="45.2879285998642444610595703125" lon="-70.8901366777718067169189453125">
        <ele>766</ele>
        <time>2026-08-21T15:24:32.000Z</time>
        <extensions>
          <ns3:TrackPointExtension>
            <ns3:hr>129</ns3:hr>
            <ns3:cad>74</ns3:cad>
          </ns3:TrackPointExtension>
        </extensions>
      </trkpt>
      <trkpt lat="45.2879222296178340911865234375" lon="-70.8901564590632915496826171875">
        <ele>765.79998779296875</ele>
        <time>2026-08-21T15:24:33.000Z</time>
        <extensions>
          <ns3:TrackPointExtension>
            <ns3:hr>129</ns3:hr>
            <ns3:cad>74</ns3:cad>
          </ns3:TrackPointExtension>
        </extensions>
      </trkpt>
      <trkpt lat="45.28791560791432857513427734375" lon="-70.89018487371504306793212890625">
        <ele>765.5999755859375</ele>
        <time>2026-08-21T15:24:34.000Z</time>
        <extensions>
          <ns3:TrackPointExtension>
            <ns3:hr>129</ns3:hr>
            <ns3:cad>74</ns3:cad>
          </ns3:TrackPointExtension>
        </extensions>
      </trkpt>
      <trkpt lat="45.28790605254471302032470703125" lon="-70.89020515792071819305419921875">
        <ele>765.4000244140625</ele>
        <time>2026-08-21T15:24:35.000Z</time>
        <extensions>
          <ns3:TrackPointExtension>
            <ns3:hr>128</ns3:hr>
            <ns3:cad>74</ns3:cad>
          </ns3:TrackPointExtension>
        </extensions>
      </trkpt>
      <trkpt lat="45.2878935635089874267578125" lon="-70.8902372606098651885986328125">
        <ele>765.20001220703125</ele>
        <time>2026-08-21T15:24:36.000Z</time>
        <extensions>
          <ns3:TrackPointExtension>
            <ns3:hr>128</ns3:hr>
            <ns3:cad>74</ns3:cad>
          </ns3:TrackPointExtension>
        </extensions>
      </trkpt>
      <trkpt lat="45.2878843434154987335205078125" lon="-70.89025880210101604461669921875">
        <ele>765</ele>
        <time>2026-08-21T15:24:37.000Z</time>
        <extensions>
          <ns3:TrackPointExtension>
            <ns3:hr>128</ns3:hr>
            <ns3:cad>74</ns3:cad>
          </ns3:TrackPointExtension>
        </extensions>
      </trkpt>
      <trkpt lat="45.28787671588361263275146484375" lon="-70.890285708010196685791015625">
        <ele>764.79998779296875</ele>
        <time>2026-08-21T15:24:38.000Z</time>
        <extensions>
          <ns3:TrackPointExtension>
            <ns3:hr>128</ns3:hr>
            <ns3:cad>74</ns3:cad>
          </ns3:TrackPointExtension>
        </extensions>
      </trkpt>
      <trkpt lat="45.28787017799913883209228515625" lon="-70.89031261391937732696533203125">
        <ele>764.5999755859375</ele>
        <time>2026-08-21T15:24:39.000Z</time>
        <extensions>
          <ns3:TrackPointExtension>
            <ns3:hr>128</ns3:hr>
            <ns3:cad>74</ns3:cad>
          </ns3:TrackPointExtension>
        </extensions>
      </trkpt>
      <trkpt lat="45.28786632232367992401123046875" lon="-70.89033708907663822174072265625">
        <ele>764.4000244140625</ele>
        <time>2026-08-21T15:24:40.000Z</time>
        <extensions>
          <ns3:TrackPointExtension>
            <ns3:hr>128</ns3:hr>
            <ns3:cad>74</ns3:cad>
          </ns3:TrackPointExtension>
        </extensions>
      </trkpt>
      <trkpt lat="45.2878598682582378387451171875" lon="-70.89036273770034313201904296875">
        <ele>764.20001220703125</ele>
        <time>2026-08-21T15:24:41.000Z</time>
        <extensions>
          <ns3:TrackPointExtension>
            <ns3:hr>128</ns3:hr>
            <ns3:cad>74</ns3:cad>
          </ns3:TrackPointExtension>
        </extensions>
      </trkpt>
      <trkpt lat="45.287851989269256591796875" lon="-70.890382938086986541748046875">
        <ele>764</ele>
        <time>2026-08-21T15:24:42.000Z</time>
        <extensions>
          <ns3:TrackPointExtension>
            <ns3:hr>128</ns3:hr>
            <ns3:cad>74</ns3:cad>
          </ns3:TrackPointExtension>
        </extensions>
      </trkpt>
      <trkpt lat="45.2878431044518947601318359375" lon="-70.890403725206851959228515625">
        <ele>763.79998779296875</ele>
        <time>2026-08-21T15:24:43.000Z</time>
        <extensions>
          <ns3:TrackPointExtension>
            <ns3:hr>128</ns3:hr>
            <ns3:cad>75</ns3:cad>
          </ns3:TrackPointExtension>
        </extensions>
      </trkpt>
      <trkpt lat="45.287834890186786651611328125" lon="-70.8904266916215419769287109375">
        <ele>763.5999755859375</ele>
        <time>2026-08-21T15:24:44.000Z</time>
        <extensions>
          <ns3:TrackPointExtension>
            <ns3:hr>128</ns3:hr>
            <ns3:cad>75</ns3:cad>
          </ns3:TrackPointExtension>
        </extensions>
      </trkpt>
      <trkpt lat="45.28782726265490055084228515625" lon="-70.8904481492936611175537109375">
        <ele>763.4000244140625</ele>
        <time>2026-08-21T15:24:45.000Z</time>
        <extensions>
          <ns3:TrackPointExtension>
            <ns3:hr>128</ns3:hr>
            <ns3:cad>75</ns3:cad>
          </ns3:TrackPointExtension>
        </extensions>
      </trkpt>
      <trkpt lat="45.28781871311366558074951171875" lon="-70.89047488756477832794189453125">
        <ele>763.20001220703125</ele>
        <time>2026-08-21T15:24:46.000Z</time>
        <extensions>
          <ns3:TrackPointExtension>
            <ns3:hr>128</ns3:hr>
            <ns3:cad>73</ns3:cad>
          </ns3:TrackPointExtension>
        </extensions>
      </trkpt>
      <trkpt lat="45.28781217522919178009033203125" lon="-70.89049684815108776092529296875">
        <ele>763.20001220703125</ele>
        <time>2026-08-21T15:24:47.000Z</time>
        <extensions>
          <ns3:TrackPointExtension>
            <ns3:hr>128</ns3:hr>
            <ns3:cad>73</ns3:cad>
          </ns3:TrackPointExtension>
        </extensions>
      </trkpt>
      <trkpt lat="45.28780446387827396392822265625" lon="-70.89052367024123668670654296875">
        <ele>763</ele>
        <time>2026-08-21T15:24:48.000Z</time>
        <extensions>
          <ns3:TrackPointExtension>
            <ns3:hr>128</ns3:hr>
            <ns3:cad>72</ns3:cad>
          </ns3:TrackPointExtension>
        </extensions>
      </trkpt>
      <trkpt lat="45.28779624961316585540771484375" lon="-70.89055250398814678192138671875">
        <ele>762.79998779296875</ele>
        <time>2026-08-21T15:24:49.000Z</time>
        <extensions>
          <ns3:TrackPointExtension>
            <ns3:hr>128</ns3:hr>
            <ns3:cad>72</ns3:cad>
          </ns3:TrackPointExtension>
        </extensions>
      </trkpt>
      <trkpt lat="45.28779054991900920867919921875" lon="-70.89058167301118373870849609375">
        <ele>762.79998779296875</ele>
        <time>2026-08-21T15:24:50.000Z</time>
        <extensions>
          <ns3:TrackPointExtension>
            <ns3:hr>128</ns3:hr>
            <ns3:cad>72</ns3:cad>
          </ns3:TrackPointExtension>
        </extensions>
      </trkpt>
      <trkpt lat="45.2877851016819477081298828125" lon="-70.89061134494841098785400390625">
        <ele>762.5999755859375</ele>
        <time>2026-08-21T15:24:51.000Z</time>
        <extensions>
          <ns3:TrackPointExtension>
            <ns3:hr>127</ns3:hr>
            <ns3:cad>72</ns3:cad>
          </ns3:TrackPointExtension>
        </extensions>
      </trkpt>
      <trkpt lat="45.28777646832168102264404296875" lon="-70.8906416036188602447509765625">
        <ele>762.4000244140625</ele>
        <time>2026-08-21T15:24:52.000Z</time>
        <extensions>
          <ns3:TrackPointExtension>
            <ns3:hr>127</ns3:hr>
            <ns3:cad>72</ns3:cad>
          </ns3:TrackPointExtension>
        </extensions>
      </trkpt>
      <trkpt lat="45.28776942752301692962646484375" lon="-70.89066532440483570098876953125">
        <ele>762.20001220703125</ele>
        <time>2026-08-21T15:24:53.000Z</time>
        <extensions>
          <ns3:TrackPointExtension>
            <ns3:hr>127</ns3:hr>
            <ns3:cad>76</ns3:cad>
          </ns3:TrackPointExtension>
        </extensions>
      </trkpt>
      <trkpt lat="45.28776322491466999053955078125" lon="-70.8906925655901432037353515625">
        <ele>762.20001220703125</ele>
        <time>2026-08-21T15:24:54.000Z</time>
        <extensions>
          <ns3:TrackPointExtension>
            <ns3:hr>128</ns3:hr>
            <ns3:cad>76</ns3:cad>
          </ns3:TrackPointExtension>
        </extensions>
      </trkpt>
      <trkpt lat="45.287756435573101043701171875" lon="-70.89071561582386493682861328125">
        <ele>762</ele>
        <time>2026-08-21T15:24:55.000Z</time>
        <extensions>
          <ns3:TrackPointExtension>
            <ns3:hr>128</ns3:hr>
            <ns3:cad>76</ns3:cad>
          </ns3:TrackPointExtension>
        </extensions>
      </trkpt>
      <trkpt lat="45.287748388946056365966796875" lon="-70.890741012990474700927734375">
        <ele>762</ele>
        <time>2026-08-21T15:24:56.000Z</time>
        <extensions>
          <ns3:TrackPointExtension>
            <ns3:hr>128</ns3:hr>
            <ns3:cad>76</ns3:cad>
          </ns3:TrackPointExtension>
        </extensions>
      </trkpt>
      <trkpt lat="45.28773992322385311126708984375" lon="-70.890764482319355010986328125">
        <ele>762</ele>
        <time>2026-08-21T15:24:57.000Z</time>
        <extensions>
          <ns3:TrackPointExtension>
            <ns3:hr>128</ns3:hr>
            <ns3:cad>76</ns3:cad>
          </ns3:TrackPointExtension>
        </extensions>
      </trkpt>
      <trkpt lat="45.28773254714906215667724609375" lon="-70.89078283868730068206787109375">
        <ele>761.79998779296875</ele>
        <time>2026-08-21T15:24:58.000Z</time>
        <extensions>
          <ns3:TrackPointExtension>
            <ns3:hr>128</ns3:hr>
            <ns3:cad>76</ns3:cad>
          </ns3:TrackPointExtension>
        </extensions>
      </trkpt>
      <trkpt lat="45.2877219021320343017578125" lon="-70.890805386006832122802734375">
        <ele>761.79998779296875</ele>
        <time>2026-08-21T15:24:59.000Z</time>
        <extensions>
          <ns3:TrackPointExtension>
            <ns3:hr>127</ns3:hr>
            <ns3:cad>76</ns3:cad>
          </ns3:TrackPointExtension>
        </extensions>
      </trkpt>
      <trkpt lat="45.287712514400482177734375" lon="-70.89082743041217327117919921875">
        <ele>761.79998779296875</ele>
        <time>2026-08-21T15:25:00.000Z</time>
        <extensions>
          <ns3:TrackPointExtension>
            <ns3:hr>128</ns3:hr>
            <ns3:cad>75</ns3:cad>
          </ns3:TrackPointExtension>
        </extensions>
      </trkpt>
      <trkpt lat="45.287706144154071807861328125" lon="-70.89084804989397525787353515625">
        <ele>761.5999755859375</ele>
        <time>2026-08-21T15:25:01.000Z</time>
        <extensions>
          <ns3:TrackPointExtension>
            <ns3:hr>128</ns3:hr>
            <ns3:cad>75</ns3:cad>
          </ns3:TrackPointExtension>
        </extensions>
      </trkpt>
      <trkpt lat="45.28770379722118377685546875" lon="-70.89087009429931640625">
        <ele>761.5999755859375</ele>
        <time>2026-08-21T15:25:02.000Z</time>
        <extensions>
          <ns3:TrackPointExtension>
            <ns3:hr>127</ns3:hr>
            <ns3:cad>75</ns3:cad>
          </ns3:TrackPointExtension>
        </extensions>
      </trkpt>
      <trkpt lat="45.2877004444599151611328125" lon="-70.8908850140869617462158203125">
        <ele>761.5999755859375</ele>
        <time>2026-08-21T15:25:03.000Z</time>
        <extensions>
          <ns3:TrackPointExtension>
            <ns3:hr>128</ns3:hr>
            <ns3:cad>75</ns3:cad>
          </ns3:TrackPointExtension>
        </extensions>
      </trkpt>
      <trkpt lat="45.28770253993570804595947265625" lon="-70.89089691638946533203125">
        <ele>761.5999755859375</ele>
        <time>2026-08-21T15:25:04.000Z</time>
        <extensions>
          <ns3:TrackPointExtension>
            <ns3:hr>128</ns3:hr>
            <ns3:cad>75</ns3:cad>
          </ns3:TrackPointExtension>
        </extensions>
      </trkpt>
      <trkpt lat="45.28770773671567440032958984375" lon="-70.890887193381786346435546875">
        <ele>761.5999755859375</ele>
        <time>2026-08-21T15:25:05.000Z</time>
        <extensions>
          <ns3:TrackPointExtension>
            <ns3:hr>128</ns3:hr>
            <ns3:cad>73</ns3:cad>
          </ns3:TrackPointExtension>
        </extensions>
      </trkpt>
      <trkpt lat="45.28770589269697666168212890625" lon="-70.89091694913804531097412109375">
        <ele>761.5999755859375</ele>
        <time>2026-08-21T15:25:06.000Z</time>
        <extensions>
          <ns3:TrackPointExtension>
            <ns3:hr>128</ns3:hr>
            <ns3:cad>73</ns3:cad>
          </ns3:TrackPointExtension>
        </extensions>
      </trkpt>
      <trkpt lat="45.28770421631634235382080078125" lon="-70.89093916118144989013671875">
        <ele>761.5999755859375</ele>
        <time>2026-08-21T15:25:07.000Z</time>
        <extensions>
          <ns3:TrackPointExtension>
            <ns3:hr>128</ns3:hr>
            <ns3:cad>73</ns3:cad>
          </ns3:TrackPointExtension>
        </extensions>
      </trkpt>
      <trkpt lat="45.28769818134605884552001953125" lon="-70.89096221141517162322998046875">
        <ele>761.5999755859375</ele>
        <time>2026-08-21T15:25:08.000Z</time>
        <extensions>
          <ns3:TrackPointExtension>
            <ns3:hr>128</ns3:hr>
            <ns3:cad>73</ns3:cad>
          </ns3:TrackPointExtension>
        </extensions>
      </trkpt>
      <trkpt lat="45.28769298456609249114990234375" lon="-70.89099070988595485687255859375">
        <ele>761.4000244140625</ele>
        <time>2026-08-21T15:25:09.000Z</time>
        <extensions>
          <ns3:TrackPointExtension>
            <ns3:hr>128</ns3:hr>
            <ns3:cad>73</ns3:cad>
          </ns3:TrackPointExtension>
        </extensions>
      </trkpt>
      <trkpt lat="45.28768963180482387542724609375" lon="-70.8910171128809452056884765625">
        <ele>761.4000244140625</ele>
        <time>2026-08-21T15:25:10.000Z</time>
        <extensions>
          <ns3:TrackPointExtension>
            <ns3:hr>128</ns3:hr>
            <ns3:cad>73</ns3:cad>
          </ns3:TrackPointExtension>
        </extensions>
      </trkpt>
      <trkpt lat="45.28768594376742839813232421875" lon="-70.8910412527620792388916015625">
        <ele>761.4000244140625</ele>
        <time>2026-08-21T15:25:11.000Z</time>
        <extensions>
          <ns3:TrackPointExtension>
            <ns3:hr>127</ns3:hr>
            <ns3:cad>73</ns3:cad>
          </ns3:TrackPointExtension>
        </extensions>
      </trkpt>
      <trkpt lat="45.287682674825191497802734375" lon="-70.89106346480548381805419921875">
        <ele>761.4000244140625</ele>
        <time>2026-08-21T15:25:12.000Z</time>
        <extensions>
          <ns3:TrackPointExtension>
            <ns3:hr>128</ns3:hr>
            <ns3:cad>71</ns3:cad>
          </ns3:TrackPointExtension>
        </extensions>
      </trkpt>
      <trkpt lat="45.2876804955303668975830078125" lon="-70.8910861797630786895751953125">
        <ele>761.20001220703125</ele>
        <time>2026-08-21T15:25:13.000Z</time>
        <extensions>
          <ns3:TrackPointExtension>
            <ns3:hr>128</ns3:hr>
            <ns3:cad>75</ns3:cad>
          </ns3:TrackPointExtension>
        </extensions>
      </trkpt>
      <trkpt lat="45.2876781485974788665771484375" lon="-70.89111476205289363861083984375">
        <ele>761.20001220703125</ele>
        <time>2026-08-21T15:25:14.000Z</time>
        <extensions>
          <ns3:TrackPointExtension>
            <ns3:hr>128</ns3:hr>
            <ns3:cad>75</ns3:cad>
          </ns3:TrackPointExtension>
        </extensions>
      </trkpt>
      <trkpt lat="45.28767504729330539703369140625" lon="-70.89114041067659854888916015625">
        <ele>761</ele>
        <time>2026-08-21T15:25:15.000Z</time>
        <extensions>
          <ns3:TrackPointExtension>
            <ns3:hr>128</ns3:hr>
            <ns3:cad>75</ns3:cad>
          </ns3:TrackPointExtension>
        </extensions>
      </trkpt>
      <trkpt lat="45.28767068870365619659423828125" lon="-70.89116639457643032073974609375">
        <ele>761</ele>
        <time>2026-08-21T15:25:16.000Z</time>
        <extensions>
          <ns3:TrackPointExtension>
            <ns3:hr>128</ns3:hr>
            <ns3:cad>75</ns3:cad>
          </ns3:TrackPointExtension>
        </extensions>
      </trkpt>
      <trkpt lat="45.2876654081046581268310546875" lon="-70.891184918582439422607421875">
        <ele>760.79998779296875</ele>
        <time>2026-08-21T15:25:17.000Z</time>
        <extensions>
          <ns3:TrackPointExtension>
            <ns3:hr>128</ns3:hr>
            <ns3:cad>74</ns3:cad>
          </ns3:TrackPointExtension>
        </extensions>
      </trkpt>
      <trkpt lat="45.28766079805791378021240234375" lon="-70.89120872318744659423828125">
        <ele>760.79998779296875</ele>
        <time>2026-08-21T15:25:18.000Z</time>
        <extensions>
          <ns3:TrackPointExtension>
            <ns3:hr>129</ns3:hr>
            <ns3:cad>74</ns3:cad>
          </ns3:TrackPointExtension>
        </extensions>
      </trkpt>
      <trkpt lat="45.28765560127794742584228515625" lon="-70.89123344980180263519287109375">
        <ele>760.79998779296875</ele>
        <time>2026-08-21T15:25:19.000Z</time>
        <extensions>
          <ns3:TrackPointExtension>
            <ns3:hr>129</ns3:hr>
            <ns3:cad>74</ns3:cad>
          </ns3:TrackPointExtension>
        </extensions>
      </trkpt>
      <trkpt lat="45.28764872811734676361083984375" lon="-70.89125432074069976806640625">
        <ele>760.5999755859375</ele>
        <time>2026-08-21T15:25:20.000Z</time>
        <extensions>
          <ns3:TrackPointExtension>
            <ns3:hr>129</ns3:hr>
            <ns3:cad>73</ns3:cad>
          </ns3:TrackPointExtension>
        </extensions>
      </trkpt>
      <trkpt lat="45.2876439504325389862060546875" lon="-70.89127753861248493194580078125">
        <ele>760.4000244140625</ele>
        <time>2026-08-21T15:25:21.000Z</time>
        <extensions>
          <ns3:TrackPointExtension>
            <ns3:hr>129</ns3:hr>
            <ns3:cad>73</ns3:cad>
          </ns3:TrackPointExtension>
        </extensions>
      </trkpt>
      <trkpt lat="45.287637412548065185546875" lon="-70.89130184613168239593505859375">
        <ele>760.4000244140625</ele>
        <time>2026-08-21T15:25:22.000Z</time>
        <extensions>
          <ns3:TrackPointExtension>
            <ns3:hr>129</ns3:hr>
            <ns3:cad>73</ns3:cad>
          </ns3:TrackPointExtension>
        </extensions>
      </trkpt>
      <trkpt lat="45.28762626461684703826904296875" lon="-70.89131860993802547454833984375">
        <ele>760.20001220703125</ele>
        <time>2026-08-21T15:25:23.000Z</time>
        <extensions>
          <ns3:TrackPointExtension>
            <ns3:hr>130</ns3:hr>
            <ns3:cad>73</ns3:cad>
          </ns3:TrackPointExtension>
        </extensions>
      </trkpt>
      <trkpt lat="45.2876184694468975067138671875" lon="-70.89134006761014461517333984375">
        <ele>760</ele>
        <time>2026-08-21T15:25:24.000Z</time>
        <extensions>
          <ns3:TrackPointExtension>
            <ns3:hr>130</ns3:hr>
            <ns3:cad>75</ns3:cad>
          </ns3:TrackPointExtension>
        </extensions>
      </trkpt>
      <trkpt lat="45.2876144461333751678466796875" lon="-70.89137325994670391082763671875">
        <ele>760</ele>
        <time>2026-08-21T15:25:25.000Z</time>
        <extensions>
          <ns3:TrackPointExtension>
            <ns3:hr>130</ns3:hr>
            <ns3:cad>76</ns3:cad>
          </ns3:TrackPointExtension>
        </extensions>
      </trkpt>
      <trkpt lat="45.2876104228198528289794921875" lon="-70.8913979865610599517822265625">
        <ele>759.79998779296875</ele>
        <time>2026-08-21T15:25:26.000Z</time>
        <extensions>
          <ns3:TrackPointExtension>
            <ns3:hr>130</ns3:hr>
            <ns3:cad>76</ns3:cad>
          </ns3:TrackPointExtension>
        </extensions>
      </trkpt>
      <trkpt lat="45.2876060642302036285400390625" lon="-70.8914201147854328155517578125">
        <ele>759.5999755859375</ele>
        <time>2026-08-21T15:25:27.000Z</time>
        <extensions>
          <ns3:TrackPointExtension>
            <ns3:hr>131</ns3:hr>
            <ns3:cad>76</ns3:cad>
          </ns3:TrackPointExtension>
        </extensions>
      </trkpt>
      <trkpt lat="45.287602208554744720458984375" lon="-70.89144743978977203369140625">
        <ele>759.5999755859375</ele>
        <time>2026-08-21T15:25:28.000Z</time>
        <extensions>
          <ns3:TrackPointExtension>
            <ns3:hr>131</ns3:hr>
            <ns3:cad>76</ns3:cad>
          </ns3:TrackPointExtension>
        </extensions>
      </trkpt>
      <trkpt lat="45.28759910725057125091552734375" lon="-70.89148255996406078338623046875">
        <ele>759.5999755859375</ele>
        <time>2026-08-21T15:25:29.000Z</time>
        <extensions>
          <ns3:TrackPointExtension>
            <ns3:hr>131</ns3:hr>
            <ns3:cad>76</ns3:cad>
          </ns3:TrackPointExtension>
        </extensions>
      </trkpt>
      <trkpt lat="45.28760011307895183563232421875" lon="-70.891520194709300994873046875">
        <ele>759.4000244140625</ele>
        <time>2026-08-21T15:25:30.000Z</time>
        <extensions>
          <ns3:TrackPointExtension>
            <ns3:hr>132</ns3:hr>
            <ns3:cad>77</ns3:cad>
          </ns3:TrackPointExtension>
        </extensions>
      </trkpt>
      <trkpt lat="45.28759927488863468170166015625" lon="-70.891554057598114013671875">
        <ele>759.4000244140625</ele>
        <time>2026-08-21T15:25:31.000Z</time>
        <extensions>
          <ns3:TrackPointExtension>
            <ns3:hr>132</ns3:hr>
            <ns3:cad>77</ns3:cad>
          </ns3:TrackPointExtension>
        </extensions>
      </trkpt>
      <trkpt lat="45.28759893961250782012939453125" lon="-70.89157995767891407012939453125">
        <ele>759.4000244140625</ele>
        <time>2026-08-21T15:25:32.000Z</time>
        <extensions>
          <ns3:TrackPointExtension>
            <ns3:hr>132</ns3:hr>
            <ns3:cad>77</ns3:cad>
          </ns3:TrackPointExtension>
        </extensions>
      </trkpt>
      <trkpt lat="45.28760162182152271270751953125" lon="-70.89160242117941379547119140625">
        <ele>759.4000244140625</ele>
        <time>2026-08-21T15:25:33.000Z</time>
        <extensions>
          <ns3:TrackPointExtension>
            <ns3:hr>132</ns3:hr>
            <ns3:cad>77</ns3:cad>
          </ns3:TrackPointExtension>
        </extensions>
      </trkpt>
      <trkpt lat="45.28760061599314212799072265625" lon="-70.89162924326956272125244140625">
        <ele>759.4000244140625</ele>
        <time>2026-08-21T15:25:34.000Z</time>
        <extensions>
          <ns3:TrackPointExtension>
            <ns3:hr>132</ns3:hr>
            <ns3:cad>77</ns3:cad>
          </ns3:TrackPointExtension>
        </extensions>
      </trkpt>
      <trkpt lat="45.28760011307895183563232421875" lon="-70.8916561491787433624267578125">
        <ele>759.4000244140625</ele>
        <time>2026-08-21T15:25:35.000Z</time>
        <extensions>
          <ns3:TrackPointExtension>
            <ns3:hr>132</ns3:hr>
            <ns3:cad>77</ns3:cad>
          </ns3:TrackPointExtension>
        </extensions>
      </trkpt>
      <trkpt lat="45.287601538002490997314453125" lon="-70.8916725777089595794677734375">
        <ele>759.5999755859375</ele>
        <time>2026-08-21T15:25:36.000Z</time>
        <extensions>
          <ns3:TrackPointExtension>
            <ns3:hr>132</ns3:hr>
            <ns3:cad>0</ns3:cad>
          </ns3:TrackPointExtension>
        </extensions>
      </trkpt>
      <trkpt lat="45.28760732151567935943603515625" lon="-70.89170250110328197479248046875">
        <ele>759.4000244140625</ele>
        <time>2026-08-21T15:25:37.000Z</time>
        <extensions>
          <ns3:TrackPointExtension>
            <ns3:hr>133</ns3:hr>
            <ns3:cad>0</ns3:cad>
          </ns3:TrackPointExtension>
        </extensions>
      </trkpt>
      <trkpt lat="45.2876104228198528289794921875" lon="-70.8917243778705596923828125">
        <ele>759.4000244140625</ele>
        <time>2026-08-21T15:25:38.000Z</time>
        <extensions>
          <ns3:TrackPointExtension>
            <ns3:hr>132</ns3:hr>
            <ns3:cad>0</ns3:cad>
          </ns3:TrackPointExtension>
        </extensions>
      </trkpt>
      <trkpt lat="45.287608914077281951904296875" lon="-70.891752541065216064453125">
        <ele>759.20001220703125</ele>
        <time>2026-08-21T15:25:39.000Z</time>
        <extensions>
          <ns3:TrackPointExtension>
            <ns3:hr>132</ns3:hr>
            <ns3:cad>0</ns3:cad>
          </ns3:TrackPointExtension>
        </extensions>
      </trkpt>
      <trkpt lat="45.28760866262018680572509765625" lon="-70.89177894406020641326904296875">
        <ele>759.20001220703125</ele>
        <time>2026-08-21T15:25:40.000Z</time>
        <extensions>
          <ns3:TrackPointExtension>
            <ns3:hr>132</ns3:hr>
            <ns3:cad>0</ns3:cad>
          </ns3:TrackPointExtension>
        </extensions>
      </trkpt>
      <trkpt lat="45.2876065671443939208984375" lon="-70.89179822243750095367431640625">
        <ele>759</ele>
        <time>2026-08-21T15:25:41.000Z</time>
        <extensions>
          <ns3:TrackPointExtension>
            <ns3:hr>132</ns3:hr>
            <ns3:cad>0</ns3:cad>
          </ns3:TrackPointExtension>
        </extensions>
      </trkpt>
      <trkpt lat="45.2876030467450618743896484375" lon="-70.8918328396975994110107421875">
        <ele>758.79998779296875</ele>
        <time>2026-08-21T15:25:42.000Z</time>
        <extensions>
          <ns3:TrackPointExtension>
            <ns3:hr>131</ns3:hr>
            <ns3:cad>0</ns3:cad>
          </ns3:TrackPointExtension>
        </extensions>
      </trkpt>
      <trkpt lat="45.2876023761928081512451171875" lon="-70.89185689575970172882080078125">
        <ele>758.79998779296875</ele>
        <time>2026-08-21T15:25:43.000Z</time>
        <extensions>
          <ns3:TrackPointExtension>
            <ns3:hr>131</ns3:hr>
            <ns3:cad>0</ns3:cad>
          </ns3:TrackPointExtension>
        </extensions>
      </trkpt>
      <trkpt lat="45.2876040525734424591064453125" lon="-70.89188707061111927032470703125">
        <ele>758.79998779296875</ele>
        <time>2026-08-21T15:25:44.000Z</time>
        <extensions>
          <ns3:TrackPointExtension>
            <ns3:hr>131</ns3:hr>
            <ns3:cad>76</ns3:cad>
          </ns3:TrackPointExtension>
        </extensions>
      </trkpt>
      <trkpt lat="45.28760748915374279022216796875" lon="-70.8919129706919193267822265625">
        <ele>758.79998779296875</ele>
        <time>2026-08-21T15:25:45.000Z</time>
        <extensions>
          <ns3:TrackPointExtension>
            <ns3:hr>132</ns3:hr>
            <ns3:cad>76</ns3:cad>
          </ns3:TrackPointExtension>
        </extensions>
      </trkpt>
      <trkpt lat="45.28761033900082111358642578125" lon="-70.89194892905652523040771484375">
        <ele>758.79998779296875</ele>
        <time>2026-08-21T15:25:46.000Z</time>
        <extensions>
          <ns3:TrackPointExtension>
            <ns3:hr>133</ns3:hr>
            <ns3:cad>76</ns3:cad>
          </ns3:TrackPointExtension>
        </extensions>
      </trkpt>
      <trkpt lat="45.2876117639243602752685546875" lon="-70.891979523003101348876953125">
        <ele>758.79998779296875</ele>
        <time>2026-08-21T15:25:47.000Z</time>
        <extensions>
          <ns3:TrackPointExtension>
            <ns3:hr>133</ns3:hr>
            <ns3:cad>76</ns3:cad>
          </ns3:TrackPointExtension>
        </extensions>
      </trkpt>
      <trkpt lat="45.28761620633304119110107421875" lon="-70.89201028458774089813232421875">
        <ele>758.79998779296875</ele>
        <time>2026-08-21T15:25:48.000Z</time>
        <extensions>
          <ns3:TrackPointExtension>
            <ns3:hr>134</ns3:hr>
            <ns3:cad>78</ns3:cad>
          </ns3:TrackPointExtension>
        </extensions>
      </trkpt>
      <trkpt lat="45.28761687688529491424560546875" lon="-70.89203643612563610076904296875">
        <ele>758.79998779296875</ele>
        <time>2026-08-21T15:25:49.000Z</time>
        <extensions>
          <ns3:TrackPointExtension>
            <ns3:hr>134</ns3:hr>
            <ns3:cad>78</ns3:cad>
          </ns3:TrackPointExtension>
        </extensions>
      </trkpt>
      <trkpt lat="45.2876127697527408599853515625" lon="-70.89206837117671966552734375">
        <ele>758.79998779296875</ele>
        <time>2026-08-21T15:25:50.000Z</time>
        <extensions>
          <ns3:TrackPointExtension>
            <ns3:hr>133</ns3:hr>
            <ns3:cad>78</ns3:cad>
          </ns3:TrackPointExtension>
        </extensions>
      </trkpt>
      <trkpt lat="45.287606902420520782470703125" lon="-70.89209712110459804534912109375">
        <ele>758.5999755859375</ele>
        <time>2026-08-21T15:25:51.000Z</time>
        <extensions>
          <ns3:TrackPointExtension>
            <ns3:hr>134</ns3:hr>
            <ns3:cad>0</ns3:cad>
          </ns3:TrackPointExtension>
        </extensions>
      </trkpt>
      <trkpt lat="45.2876037172973155975341796875" lon="-70.89212000370025634765625">
        <ele>758.5999755859375</ele>
        <time>2026-08-21T15:25:52.000Z</time>
        <extensions>
          <ns3:TrackPointExtension>
            <ns3:hr>134</ns3:hr>
            <ns3:cad>0</ns3:cad>
          </ns3:TrackPointExtension>
        </extensions>
      </trkpt>
      <trkpt lat="45.2875966764986515045166015625" lon="-70.89215093292295932769775390625">
        <ele>758.5999755859375</ele>
        <time>2026-08-21T15:25:53.000Z</time>
        <extensions>
          <ns3:TrackPointExtension>
            <ns3:hr>134</ns3:hr>
            <ns3:cad>0</ns3:cad>
          </ns3:TrackPointExtension>
        </extensions>
      </trkpt>
      <trkpt lat="45.28759407810866832733154296875" lon="-70.8921803534030914306640625">
        <ele>758.5999755859375</ele>
        <time>2026-08-21T15:25:54.000Z</time>
        <extensions>
          <ns3:TrackPointExtension>
            <ns3:hr>134</ns3:hr>
            <ns3:cad>0</ns3:cad>
          </ns3:TrackPointExtension>
        </extensions>
      </trkpt>
      <trkpt lat="45.28759072534739971160888671875" lon="-70.892200805246829986572265625">
        <ele>758.4000244140625</ele>
        <time>2026-08-21T15:25:55.000Z</time>
        <extensions>
          <ns3:TrackPointExtension>
            <ns3:hr>134</ns3:hr>
            <ns3:cad>0</ns3:cad>
          </ns3:TrackPointExtension>
        </extensions>
      </trkpt>
      <trkpt lat="45.28758175671100616455078125" lon="-70.89222352020442485809326171875">
        <ele>758.20001220703125</ele>
        <time>2026-08-21T15:25:56.000Z</time>
        <extensions>
          <ns3:TrackPointExtension>
            <ns3:hr>133</ns3:hr>
            <ns3:cad>78</ns3:cad>
          </ns3:TrackPointExtension>
        </extensions>
      </trkpt>
      <trkpt lat="45.2875690162181854248046875" lon="-70.89223961345851421356201171875">
        <ele>758</ele>
        <time>2026-08-21T15:25:57.000Z</time>
        <extensions>
          <ns3:TrackPointExtension>
            <ns3:hr>133</ns3:hr>
            <ns3:cad>78</ns3:cad>
          </ns3:TrackPointExtension>
        </extensions>
      </trkpt>
      <trkpt lat="45.2875571139156818389892578125" lon="-70.8922593109309673309326171875">
        <ele>757.79998779296875</ele>
        <time>2026-08-21T15:25:58.000Z</time>
        <extensions>
          <ns3:TrackPointExtension>
            <ns3:hr>133</ns3:hr>
            <ns3:cad>78</ns3:cad>
          </ns3:TrackPointExtension>
        </extensions>
      </trkpt>
      <trkpt lat="45.28754462487995624542236328125" lon="-70.89227833785116672515869140625">
        <ele>757.5999755859375</ele>
        <time>2026-08-21T15:25:59.000Z</time>
        <extensions>
          <ns3:TrackPointExtension>
            <ns3:hr>134</ns3:hr>
            <ns3:cad>78</ns3:cad>
          </ns3:TrackPointExtension>
        </extensions>
      </trkpt>
      <trkpt lat="45.28753289021551609039306640625" lon="-70.89230163954198360443115234375">
        <ele>757.4000244140625</ele>
        <time>2026-08-21T15:26:00.000Z</time>
        <extensions>
          <ns3:TrackPointExtension>
            <ns3:hr>134</ns3:hr>
            <ns3:cad>78</ns3:cad>
          </ns3:TrackPointExtension>
        </extensions>
      </trkpt>
      <trkpt lat="45.28752283193171024322509765625" lon="-70.8923287130892276763916015625">
        <ele>757.20001220703125</ele>
        <time>2026-08-21T15:26:01.000Z</time>
        <extensions>
          <ns3:TrackPointExtension>
            <ns3:hr>134</ns3:hr>
            <ns3:cad>78</ns3:cad>
          </ns3:TrackPointExtension>
        </extensions>
      </trkpt>
      <trkpt lat="45.28751009143888950347900390625" lon="-70.89235612191259860992431640625">
        <ele>757.20001220703125</ele>
        <time>2026-08-21T15:26:02.000Z</time>
        <extensions>
          <ns3:TrackPointExtension>
            <ns3:hr>134</ns3:hr>
            <ns3:cad>78</ns3:cad>
          </ns3:TrackPointExtension>
        </extensions>
      </trkpt>
      <trkpt lat="45.28749953024089336395263671875" lon="-70.89237154461443424224853515625">
        <ele>757</ele>
        <time>2026-08-21T15:26:03.000Z</time>
        <extensions>
          <ns3:TrackPointExtension>
            <ns3:hr>134</ns3:hr>
            <ns3:cad>78</ns3:cad>
          </ns3:TrackPointExtension>
        </extensions>
      </trkpt>
      <trkpt lat="45.28748494572937488555908203125" lon="-70.892395935952663421630859375">
        <ele>756.79998779296875</ele>
        <time>2026-08-21T15:26:04.000Z</time>
        <extensions>
          <ns3:TrackPointExtension>
            <ns3:hr>135</ns3:hr>
            <ns3:cad>78</ns3:cad>
          </ns3:TrackPointExtension>
        </extensions>
      </trkpt>
      <trkpt lat="45.2874743007123470306396484375" lon="-70.89242150075733661651611328125">
        <ele>756.5999755859375</ele>
        <time>2026-08-21T15:26:05.000Z</time>
        <extensions>
          <ns3:TrackPointExtension>
            <ns3:hr>134</ns3:hr>
            <ns3:cad>78</ns3:cad>
          </ns3:TrackPointExtension>
        </extensions>
      </trkpt>
      <trkpt lat="45.2874669246375560760498046875" lon="-70.89243893511593341827392578125">
        <ele>756.4000244140625</ele>
        <time>2026-08-21T15:26:06.000Z</time>
        <extensions>
          <ns3:TrackPointExtension>
            <ns3:hr>134</ns3:hr>
            <ns3:cad>79</ns3:cad>
          </ns3:TrackPointExtension>
        </extensions>
      </trkpt>
      <trkpt lat="45.287455022335052490234375" lon="-70.8924675174057483673095703125">
        <ele>756.20001220703125</ele>
        <time>2026-08-21T15:26:07.000Z</time>
        <extensions>
          <ns3:TrackPointExtension>
            <ns3:hr>135</ns3:hr>
            <ns3:cad>79</ns3:cad>
          </ns3:TrackPointExtension>
        </extensions>
      </trkpt>
      <trkpt lat="45.28744353912770748138427734375" lon="-70.8924899809062480926513671875">
        <ele>756</ele>
        <time>2026-08-21T15:26:08.000Z</time>
        <extensions>
          <ns3:TrackPointExtension>
            <ns3:hr>134</ns3:hr>
            <ns3:cad>79</ns3:cad>
          </ns3:TrackPointExtension>
        </extensions>
      </trkpt>
      <trkpt lat="45.287435241043567657470703125" lon="-70.89251202531158924102783203125">
        <ele>755.79998779296875</ele>
        <time>2026-08-21T15:26:09.000Z</time>
        <extensions>
          <ns3:TrackPointExtension>
            <ns3:hr>135</ns3:hr>
            <ns3:cad>79</ns3:cad>
          </ns3:TrackPointExtension>
        </extensions>
      </trkpt>
      <trkpt lat="45.287419818341732025146484375" lon="-70.892539434134960174560546875">
        <ele>755.79998779296875</ele>
        <time>2026-08-21T15:26:10.000Z</time>
        <extensions>
          <ns3:TrackPointExtension>
            <ns3:hr>135</ns3:hr>
            <ns3:cad>77</ns3:cad>
          </ns3:TrackPointExtension>
        </extensions>
      </trkpt>
      <trkpt lat="45.287404395639896392822265625" lon="-70.89256181381642818450927734375">
        <ele>755.5999755859375</ele>
        <time>2026-08-21T15:26:11.000Z</time>
        <extensions>
          <ns3:TrackPointExtension>
            <ns3:hr>135</ns3:hr>
            <ns3:cad>77</ns3:cad>
          </ns3:TrackPointExtension>
        </extensions>
      </trkpt>
      <trkpt lat="45.28739375062286853790283203125" lon="-70.892585702240467071533203125">
        <ele>755.4000244140625</ele>
        <time>2026-08-21T15:26:12.000Z</time>
        <extensions>
          <ns3:TrackPointExtension>
            <ns3:hr>135</ns3:hr>
            <ns3:cad>77</ns3:cad>
          </ns3:TrackPointExtension>
        </extensions>
      </trkpt>
      <trkpt lat="45.28738134540617465972900390625" lon="-70.8926110155880451202392578125">
        <ele>755.20001220703125</ele>
        <time>2026-08-21T15:26:13.000Z</time>
        <extensions>
          <ns3:TrackPointExtension>
            <ns3:hr>136</ns3:hr>
            <ns3:cad>77</ns3:cad>
          </ns3:TrackPointExtension>
        </extensions>
      </trkpt>
      <trkpt lat="45.28736776672303676605224609375" lon="-70.8926363289356231689453125">
        <ele>755.20001220703125</ele>
        <time>2026-08-21T15:26:14.000Z</time>
        <extensions>
          <ns3:TrackPointExtension>
            <ns3:hr>136</ns3:hr>
            <ns3:cad>77</ns3:cad>
          </ns3:TrackPointExtension>
        </extensions>
      </trkpt>
      <trkpt lat="45.2873579598963260650634765625" lon="-70.89266122318804264068603515625">
        <ele>755</ele>
        <time>2026-08-21T15:26:15.000Z</time>
        <extensions>
          <ns3:TrackPointExtension>
            <ns3:hr>137</ns3:hr>
            <ns3:cad>78</ns3:cad>
          </ns3:TrackPointExtension>
        </extensions>
      </trkpt>
      <trkpt lat="45.28734396211802959442138671875" lon="-70.89268921874463558197021484375">
        <ele>755</ele>
        <time>2026-08-21T15:26:16.000Z</time>
        <extensions>
          <ns3:TrackPointExtension>
            <ns3:hr>136</ns3:hr>
            <ns3:cad>78</ns3:cad>
          </ns3:TrackPointExtension>
        </extensions>
      </trkpt>
      <trkpt lat="45.287331305444240570068359375" lon="-70.8927129395306110382080078125">
        <ele>755</ele>
        <time>2026-08-21T15:26:17.000Z</time>
        <extensions>
          <ns3:TrackPointExtension>
            <ns3:hr>136</ns3:hr>
            <ns3:cad>78</ns3:cad>
          </ns3:TrackPointExtension>
        </extensions>
      </trkpt>
      <trkpt lat="45.287317223846912384033203125" lon="-70.8927377499639987945556640625">
        <ele>754.79998779296875</ele>
        <time>2026-08-21T15:26:18.000Z</time>
        <extensions>
          <ns3:TrackPointExtension>
            <ns3:hr>136</ns3:hr>
            <ns3:cad>78</ns3:cad>
          </ns3:TrackPointExtension>
        </extensions>
      </trkpt>
      <trkpt lat="45.2873069979250431060791015625" lon="-70.89276230894029140472412109375">
        <ele>754.79998779296875</ele>
        <time>2026-08-21T15:26:19.000Z</time>
        <extensions>
          <ns3:TrackPointExtension>
            <ns3:hr>136</ns3:hr>
            <ns3:cad>78</ns3:cad>
          </ns3:TrackPointExtension>
        </extensions>
      </trkpt>
      <trkpt lat="45.28729367069900035858154296875" lon="-70.89278460480272769927978515625">
        <ele>754.5999755859375</ele>
        <time>2026-08-21T15:26:20.000Z</time>
        <extensions>
          <ns3:TrackPointExtension>
            <ns3:hr>136</ns3:hr>
            <ns3:cad>80</ns3:cad>
          </ns3:TrackPointExtension>
        </extensions>
      </trkpt>
      <trkpt lat="45.2872831933200359344482421875" lon="-70.89280656538903713226318359375">
        <ele>754.4000244140625</ele>
        <time>2026-08-21T15:26:21.000Z</time>
        <extensions>
          <ns3:TrackPointExtension>
            <ns3:hr>136</ns3:hr>
            <ns3:cad>80</ns3:cad>
          </ns3:TrackPointExtension>
        </extensions>
      </trkpt>
      <trkpt lat="45.2872741408646106719970703125" lon="-70.8928168751299381256103515625">
        <ele>754.20001220703125</ele>
        <time>2026-08-21T15:26:22.000Z</time>
        <extensions>
          <ns3:TrackPointExtension>
            <ns3:hr>137</ns3:hr>
            <ns3:cad>77</ns3:cad>
          </ns3:TrackPointExtension>
        </extensions>
      </trkpt>
      <trkpt lat="45.287259556353092193603515625" lon="-70.89283757843077182769775390625">
        <ele>753.79998779296875</ele>
        <time>2026-08-21T15:26:23.000Z</time>
        <extensions>
          <ns3:TrackPointExtension>
            <ns3:hr>137</ns3:hr>
            <ns3:cad>77</ns3:cad>
          </ns3:TrackPointExtension>
        </extensions>
      </trkpt>
      <trkpt lat="45.287249498069286346435546875" lon="-70.892855934798717498779296875">
        <ele>753.5999755859375</ele>
        <time>2026-08-21T15:26:24.000Z</time>
        <extensions>
          <ns3:TrackPointExtension>
            <ns3:hr>137</ns3:hr>
            <ns3:cad>77</ns3:cad>
          </ns3:TrackPointExtension>
        </extensions>
      </trkpt>
      <trkpt lat="45.2872396074235439300537109375" lon="-70.89287445880472660064697265625">
        <ele>753.20001220703125</ele>
        <time>2026-08-21T15:26:25.000Z</time>
        <extensions>
          <ns3:TrackPointExtension>
            <ns3:hr>136</ns3:hr>
            <ns3:cad>77</ns3:cad>
          </ns3:TrackPointExtension>
        </extensions>
      </trkpt>
      <trkpt lat="45.28722946532070636749267578125" lon="-70.8928933180868625640869140625">
        <ele>753</ele>
        <time>2026-08-21T15:26:26.000Z</time>
        <extensions>
          <ns3:TrackPointExtension>
            <ns3:hr>136</ns3:hr>
            <ns3:cad>77</ns3:cad>
          </ns3:TrackPointExtension>
        </extensions>
      </trkpt>
      <trkpt lat="45.287220664322376251220703125" lon="-70.8929114229977130889892578125">
        <ele>752.5999755859375</ele>
        <time>2026-08-21T15:26:27.000Z</time>
        <extensions>
          <ns3:TrackPointExtension>
            <ns3:hr>136</ns3:hr>
            <ns3:cad>77</ns3:cad>
          </ns3:TrackPointExtension>
        </extensions>
      </trkpt>
      <trkpt lat="45.2872080914676189422607421875" lon="-70.89293682016432285308837890625">
        <ele>752.4000244140625</ele>
        <time>2026-08-21T15:26:28.000Z</time>
        <extensions>
          <ns3:TrackPointExtension>
            <ns3:hr>137</ns3:hr>
            <ns3:cad>77</ns3:cad>
          </ns3:TrackPointExtension>
        </extensions>
      </trkpt>
      <trkpt lat="45.28719208203256130218505859375" lon="-70.89295886456966400146484375">
        <ele>752</ele>
        <time>2026-08-21T15:26:29.000Z</time>
        <extensions>
          <ns3:TrackPointExtension>
            <ns3:hr>136</ns3:hr>
            <ns3:cad>77</ns3:cad>
          </ns3:TrackPointExtension>
        </extensions>
      </trkpt>
      <trkpt lat="45.2871812693774700164794921875" lon="-70.8929831720888614654541015625">
        <ele>751.5999755859375</ele>
        <time>2026-08-21T15:26:30.000Z</time>
        <extensions>
          <ns3:TrackPointExtension>
            <ns3:hr>136</ns3:hr>
            <ns3:cad>77</ns3:cad>
          </ns3:TrackPointExtension>
        </extensions>
      </trkpt>
      <trkpt lat="45.28716760687530040740966796875" lon="-70.89300446212291717529296875">
        <ele>751.4000244140625</ele>
        <time>2026-08-21T15:26:31.000Z</time>
        <extensions>
          <ns3:TrackPointExtension>
            <ns3:hr>137</ns3:hr>
            <ns3:cad>77</ns3:cad>
          </ns3:TrackPointExtension>
        </extensions>
      </trkpt>
      <trkpt lat="45.28715620748698711395263671875" lon="-70.89303086511790752410888671875">
        <ele>751.20001220703125</ele>
        <time>2026-08-21T15:26:32.000Z</time>
        <extensions>
          <ns3:TrackPointExtension>
            <ns3:hr>137</ns3:hr>
            <ns3:cad>77</ns3:cad>
          </ns3:TrackPointExtension>
        </extensions>
      </trkpt>
      <trkpt lat="45.28714464046061038970947265625" lon="-70.8930572681128978729248046875">
        <ele>750.79998779296875</ele>
        <time>2026-08-21T15:26:33.000Z</time>
        <extensions>
          <ns3:TrackPointExtension>
            <ns3:hr>136</ns3:hr>
            <ns3:cad>77</ns3:cad>
          </ns3:TrackPointExtension>
        </extensions>
      </trkpt>
      <trkpt lat="45.28713676147162914276123046875" lon="-70.8930830843746662139892578125">
        <ele>750.4000244140625</ele>
        <time>2026-08-21T15:26:34.000Z</time>
        <extensions>
          <ns3:TrackPointExtension>
            <ns3:hr>136</ns3:hr>
            <ns3:cad>77</ns3:cad>
          </ns3:TrackPointExtension>
        </extensions>
      </trkpt>
      <trkpt lat="45.28712603263556957244873046875" lon="-70.893104039132595062255859375">
        <ele>750.20001220703125</ele>
        <time>2026-08-21T15:26:35.000Z</time>
        <extensions>
          <ns3:TrackPointExtension>
            <ns3:hr>136</ns3:hr>
            <ns3:cad>78</ns3:cad>
          </ns3:TrackPointExtension>
        </extensions>
      </trkpt>
      <trkpt lat="45.28711128048598766326904296875" lon="-70.89312926866114139556884765625">
        <ele>750</ele>
        <time>2026-08-21T15:26:36.000Z</time>
        <extensions>
          <ns3:TrackPointExtension>
            <ns3:hr>137</ns3:hr>
            <ns3:cad>78</ns3:cad>
          </ns3:TrackPointExtension>
        </extensions>
      </trkpt>
      <trkpt lat="45.28709669597446918487548828125" lon="-70.89315424673259258270263671875">
        <ele>749.79998779296875</ele>
        <time>2026-08-21T15:26:37.000Z</time>
        <extensions>
          <ns3:TrackPointExtension>
            <ns3:hr>136</ns3:hr>
            <ns3:cad>78</ns3:cad>
          </ns3:TrackPointExtension>
        </extensions>
      </trkpt>
      <trkpt lat="45.287087894976139068603515625" lon="-70.89318123646080493927001953125">
        <ele>749.5999755859375</ele>
        <time>2026-08-21T15:26:38.000Z</time>
        <extensions>
          <ns3:TrackPointExtension>
            <ns3:hr>136</ns3:hr>
            <ns3:cad>78</ns3:cad>
          </ns3:TrackPointExtension>
        </extensions>
      </trkpt>
      <trkpt lat="45.2870759926736354827880859375" lon="-70.893208980560302734375">
        <ele>749.4000244140625</ele>
        <time>2026-08-21T15:26:39.000Z</time>
        <extensions>
          <ns3:TrackPointExtension>
            <ns3:hr>136</ns3:hr>
            <ns3:cad>78</ns3:cad>
          </ns3:TrackPointExtension>
        </extensions>
      </trkpt>
      <trkpt lat="45.28706249780952930450439453125" lon="-70.893238820135593414306640625">
        <ele>749.20001220703125</ele>
        <time>2026-08-21T15:26:40.000Z</time>
        <extensions>
          <ns3:TrackPointExtension>
            <ns3:hr>136</ns3:hr>
            <ns3:cad>78</ns3:cad>
          </ns3:TrackPointExtension>
        </extensions>
      </trkpt>
      <trkpt lat="45.287054367363452911376953125" lon="-70.8932661451399326324462890625">
        <ele>748.79998779296875</ele>
        <time>2026-08-21T15:26:41.000Z</time>
        <extensions>
          <ns3:TrackPointExtension>
            <ns3:hr>137</ns3:hr>
            <ns3:cad>78</ns3:cad>
          </ns3:TrackPointExtension>
        </extensions>
      </trkpt>
      <trkpt lat="45.2870451472699642181396484375" lon="-70.89328869245946407318115234375">
        <ele>748.5999755859375</ele>
        <time>2026-08-21T15:26:42.000Z</time>
        <extensions>
          <ns3:TrackPointExtension>
            <ns3:hr>136</ns3:hr>
            <ns3:cad>78</ns3:cad>
          </ns3:TrackPointExtension>
        </extensions>
      </trkpt>
      <trkpt lat="45.2870337478816509246826171875" lon="-70.8933120779693126678466796875">
        <ele>748.4000244140625</ele>
        <time>2026-08-21T15:26:43.000Z</time>
        <extensions>
          <ns3:TrackPointExtension>
            <ns3:hr>136</ns3:hr>
            <ns3:cad>78</ns3:cad>
          </ns3:TrackPointExtension>
        </extensions>
      </trkpt>
      <trkpt lat="45.28702310286462306976318359375" lon="-70.89333445765078067779541015625">
        <ele>748.20001220703125</ele>
        <time>2026-08-21T15:26:44.000Z</time>
        <extensions>
          <ns3:TrackPointExtension>
            <ns3:hr>137</ns3:hr>
            <ns3:cad>78</ns3:cad>
          </ns3:TrackPointExtension>
        </extensions>
      </trkpt>
      <trkpt lat="45.28700952418148517608642578125" lon="-70.89334820397198200225830078125">
        <ele>748</ele>
        <time>2026-08-21T15:26:45.000Z</time>
        <extensions>
          <ns3:TrackPointExtension>
            <ns3:hr>136</ns3:hr>
            <ns3:cad>78</ns3:cad>
          </ns3:TrackPointExtension>
        </extensions>
      </trkpt>
      <trkpt lat="45.28699343092739582061767578125" lon="-70.89336111210286617279052734375">
        <ele>747.79998779296875</ele>
        <time>2026-08-21T15:26:46.000Z</time>
        <extensions>
          <ns3:TrackPointExtension>
            <ns3:hr>136</ns3:hr>
            <ns3:cad>78</ns3:cad>
          </ns3:TrackPointExtension>
        </extensions>
      </trkpt>
      <trkpt lat="45.28698320500552654266357421875" lon="-70.8933757804334163665771484375">
        <ele>747.5999755859375</ele>
        <time>2026-08-21T15:26:47.000Z</time>
        <extensions>
          <ns3:TrackPointExtension>
            <ns3:hr>137</ns3:hr>
            <ns3:cad>78</ns3:cad>
          </ns3:TrackPointExtension>
        </extensions>
      </trkpt>
      <trkpt lat="45.286972224712371826171875" lon="-70.89339396916329860687255859375">
        <ele>747.20001220703125</ele>
        <time>2026-08-21T15:26:48.000Z</time>
        <extensions>
          <ns3:TrackPointExtension>
            <ns3:hr>136</ns3:hr>
            <ns3:cad>78</ns3:cad>
          </ns3:TrackPointExtension>
        </extensions>
      </trkpt>
      <trkpt lat="45.28695923276245594024658203125" lon="-70.8934128284454345703125">
        <ele>747</ele>
        <time>2026-08-21T15:26:49.000Z</time>
        <extensions>
          <ns3:TrackPointExtension>
            <ns3:hr>136</ns3:hr>
            <ns3:cad>78</ns3:cad>
          </ns3:TrackPointExtension>
        </extensions>
      </trkpt>
      <trkpt lat="45.2869472466409206390380859375" lon="-70.89342825114727020263671875">
        <ele>746.5999755859375</ele>
        <time>2026-08-21T15:26:50.000Z</time>
        <extensions>
          <ns3:TrackPointExtension>
            <ns3:hr>136</ns3:hr>
            <ns3:cad>78</ns3:cad>
          </ns3:TrackPointExtension>
        </extensions>
      </trkpt>
      <trkpt lat="45.28693073429167270660400390625" lon="-70.893442668020725250244140625">
        <ele>746.20001220703125</ele>
        <time>2026-08-21T15:26:51.000Z</time>
        <extensions>
          <ns3:TrackPointExtension>
            <ns3:hr>136</ns3:hr>
            <ns3:cad>78</ns3:cad>
          </ns3:TrackPointExtension>
        </extensions>
      </trkpt>
      <trkpt lat="45.28691849671304225921630859375" lon="-70.8934592641890048980712890625">
        <ele>745.79998779296875</ele>
        <time>2026-08-21T15:26:52.000Z</time>
        <extensions>
          <ns3:TrackPointExtension>
            <ns3:hr>135</ns3:hr>
            <ns3:cad>78</ns3:cad>
          </ns3:TrackPointExtension>
        </extensions>
      </trkpt>
      <trkpt lat="45.286902487277984619140625" lon="-70.893479548394680023193359375">
        <ele>745.5999755859375</ele>
        <time>2026-08-21T15:26:53.000Z</time>
        <extensions>
          <ns3:TrackPointExtension>
            <ns3:hr>135</ns3:hr>
            <ns3:cad>78</ns3:cad>
          </ns3:TrackPointExtension>
        </extensions>
      </trkpt>
      <trkpt lat="45.28688513673841953277587890625" lon="-70.89349329471588134765625">
        <ele>745.20001220703125</ele>
        <time>2026-08-21T15:26:54.000Z</time>
        <extensions>
          <ns3:TrackPointExtension>
            <ns3:hr>135</ns3:hr>
            <ns3:cad>78</ns3:cad>
          </ns3:TrackPointExtension>
        </extensions>
      </trkpt>
      <trkpt lat="45.28687155805528163909912109375" lon="-70.89351475238800048828125">
        <ele>745</ele>
        <time>2026-08-21T15:26:55.000Z</time>
        <extensions>
          <ns3:TrackPointExtension>
            <ns3:hr>135</ns3:hr>
            <ns3:cad>78</ns3:cad>
          </ns3:TrackPointExtension>
        </extensions>
      </trkpt>
      <trkpt lat="45.28685697354376316070556640625" lon="-70.89353176765143871307373046875">
        <ele>744.5999755859375</ele>
        <time>2026-08-21T15:26:56.000Z</time>
        <extensions>
          <ns3:TrackPointExtension>
            <ns3:hr>134</ns3:hr>
            <ns3:cad>78</ns3:cad>
          </ns3:TrackPointExtension>
        </extensions>
      </trkpt>
      <trkpt lat="45.286844484508037567138671875" lon="-70.89354283176362514495849609375">
        <ele>744.4000244140625</ele>
        <time>2026-08-21T15:26:57.000Z</time>
        <extensions>
          <ns3:TrackPointExtension>
            <ns3:hr>133</ns3:hr>
            <ns3:cad>78</ns3:cad>
          </ns3:TrackPointExtension>
        </extensions>
      </trkpt>
      <trkpt lat="45.28682830743491649627685546875" lon="-70.8935521356761455535888671875">
        <ele>744</ele>
        <time>2026-08-21T15:26:58.000Z</time>
        <extensions>
          <ns3:TrackPointExtension>
            <ns3:hr>132</ns3:hr>
            <ns3:cad>78</ns3:cad>
          </ns3:TrackPointExtension>
        </extensions>
      </trkpt>
      <trkpt lat="45.28681288473308086395263671875" lon="-70.8935630321502685546875">
        <ele>743.79998779296875</ele>
        <time>2026-08-21T15:26:59.000Z</time>
        <extensions>
          <ns3:TrackPointExtension>
            <ns3:hr>132</ns3:hr>
            <ns3:cad>78</ns3:cad>
          </ns3:TrackPointExtension>
        </extensions>
      </trkpt>
      <trkpt lat="45.28679310344159603118896484375" lon="-70.8935776166617870330810546875">
        <ele>743.4000244140625</ele>
        <time>2026-08-21T15:27:00.000Z</time>
        <extensions>
          <ns3:TrackPointExtension>
            <ns3:hr>132</ns3:hr>
            <ns3:cad>78</ns3:cad>
          </ns3:TrackPointExtension>
        </extensions>
      </trkpt>
      <trkpt lat="45.28677969239652156829833984375" lon="-70.8935893513262271881103515625">
        <ele>743.20001220703125</ele>
        <time>2026-08-21T15:27:01.000Z</time>
        <extensions>
          <ns3:TrackPointExtension>
            <ns3:hr>132</ns3:hr>
            <ns3:cad>0</ns3:cad>
          </ns3:TrackPointExtension>
        </extensions>
      </trkpt>
      <trkpt lat="45.286768376827239990234375" lon="-70.89361139573156833648681640625">
        <ele>743</ele>
        <time>2026-08-21T15:27:02.000Z</time>
        <extensions>
          <ns3:TrackPointExtension>
            <ns3:hr>132</ns3:hr>
            <ns3:cad>0</ns3:cad>
          </ns3:TrackPointExtension>
        </extensions>
      </trkpt>
      <trkpt lat="45.286755301058292388916015625" lon="-70.8936299197375774383544921875">
        <ele>742.5999755859375</ele>
        <time>2026-08-21T15:27:03.000Z</time>
        <extensions>
          <ns3:TrackPointExtension>
            <ns3:hr>131</ns3:hr>
            <ns3:cad>0</ns3:cad>
          </ns3:TrackPointExtension>
        </extensions>
      </trkpt>
      <trkpt lat="45.28673778288066387176513671875" lon="-70.89364777319133281707763671875">
        <ele>742.4000244140625</ele>
        <time>2026-08-21T15:27:04.000Z</time>
        <extensions>
          <ns3:TrackPointExtension>
            <ns3:hr>131</ns3:hr>
            <ns3:cad>0</ns3:cad>
          </ns3:TrackPointExtension>
        </extensions>
      </trkpt>
      <trkpt lat="45.2867195941507816314697265625" lon="-70.8936654590070247650146484375">
        <ele>742.20001220703125</ele>
        <time>2026-08-21T15:27:05.000Z</time>
        <extensions>
          <ns3:TrackPointExtension>
            <ns3:hr>131</ns3:hr>
            <ns3:cad>0</ns3:cad>
          </ns3:TrackPointExtension>
        </extensions>
      </trkpt>
      <trkpt lat="45.2867058478295803070068359375" lon="-70.89368834160268306732177734375">
        <ele>741.79998779296875</ele>
        <time>2026-08-21T15:27:06.000Z</time>
        <extensions>
          <ns3:TrackPointExtension>
            <ns3:hr>131</ns3:hr>
            <ns3:cad>0</ns3:cad>
          </ns3:TrackPointExtension>
        </extensions>
      </trkpt>
      <trkpt lat="45.28668547980487346649169921875" lon="-70.8937050215899944305419921875">
        <ele>741.5999755859375</ele>
        <time>2026-08-21T15:27:07.000Z</time>
        <extensions>
          <ns3:TrackPointExtension>
            <ns3:hr>131</ns3:hr>
            <ns3:cad>0</ns3:cad>
          </ns3:TrackPointExtension>
        </extensions>
      </trkpt>
      <trkpt lat="45.28666888363659381866455078125" lon="-70.893719606101512908935546875">
        <ele>741.20001220703125</ele>
        <time>2026-08-21T15:27:08.000Z</time>
        <extensions>
          <ns3:TrackPointExtension>
            <ns3:hr>131</ns3:hr>
            <ns3:cad>0</ns3:cad>
          </ns3:TrackPointExtension>
        </extensions>
      </trkpt>
      <trkpt lat="45.2866505272686481475830078125" lon="-70.89373779483139514923095703125">
        <ele>741</ele>
        <time>2026-08-21T15:27:09.000Z</time>
        <extensions>
          <ns3:TrackPointExtension>
            <ns3:hr>131</ns3:hr>
            <ns3:cad>0</ns3:cad>
          </ns3:TrackPointExtension>
        </extensions>
      </trkpt>
      <trkpt lat="45.28663669712841510772705078125" lon="-70.89375506155192852020263671875">
        <ele>740.79998779296875</ele>
        <time>2026-08-21T15:27:10.000Z</time>
        <extensions>
          <ns3:TrackPointExtension>
            <ns3:hr>131</ns3:hr>
            <ns3:cad>0</ns3:cad>
          </ns3:TrackPointExtension>
        </extensions>
      </trkpt>
      <trkpt lat="45.28662965632975101470947265625" lon="-70.89377769269049167633056640625">
        <ele>740.79998779296875</ele>
        <time>2026-08-21T15:27:11.000Z</time>
        <extensions>
          <ns3:TrackPointExtension>
            <ns3:hr>131</ns3:hr>
            <ns3:cad>0</ns3:cad>
          </ns3:TrackPointExtension>
        </extensions>
      </trkpt>
      <trkpt lat="45.28661750257015228271484375" lon="-70.8938084542751312255859375">
        <ele>740.4000244140625</ele>
        <time>2026-08-21T15:27:12.000Z</time>
        <extensions>
          <ns3:TrackPointExtension>
            <ns3:hr>130</ns3:hr>
            <ns3:cad>0</ns3:cad>
          </ns3:TrackPointExtension>
        </extensions>
      </trkpt>
      <trkpt lat="45.28660543262958526611328125" lon="-70.89383385144174098968505859375">
        <ele>740.4000244140625</ele>
        <time>2026-08-21T15:27:13.000Z</time>
        <extensions>
          <ns3:TrackPointExtension>
            <ns3:hr>130</ns3:hr>
            <ns3:cad>79</ns3:cad>
          </ns3:TrackPointExtension>
        </extensions>
      </trkpt>
      <trkpt lat="45.2865905128419399261474609375" lon="-70.8938699774444103240966796875">
        <ele>740.4000244140625</ele>
        <time>2026-08-21T15:27:14.000Z</time>
        <extensions>
          <ns3:TrackPointExtension>
            <ns3:hr>130</ns3:hr>
            <ns3:cad>78</ns3:cad>
          </ns3:TrackPointExtension>
        </extensions>
      </trkpt>
      <trkpt lat="45.286584310233592987060546875" lon="-70.89389638043940067291259765625">
        <ele>740.20001220703125</ele>
        <time>2026-08-21T15:27:15.000Z</time>
        <extensions>
          <ns3:TrackPointExtension>
            <ns3:hr>130</ns3:hr>
            <ns3:cad>78</ns3:cad>
          </ns3:TrackPointExtension>
        </extensions>
      </trkpt>
      <trkpt lat="45.28658338822424411773681640625" lon="-70.8939264714717864990234375">
        <ele>740</ele>
        <time>2026-08-21T15:27:16.000Z</time>
        <extensions>
          <ns3:TrackPointExtension>
            <ns3:hr>130</ns3:hr>
            <ns3:cad>78</ns3:cad>
          </ns3:TrackPointExtension>
        </extensions>
      </trkpt>
      <trkpt lat="45.28657768853008747100830078125" lon="-70.893952958285808563232421875">
        <ele>739.79998779296875</ele>
        <time>2026-08-21T15:27:17.000Z</time>
        <extensions>
          <ns3:TrackPointExtension>
            <ns3:hr>130</ns3:hr>
            <ns3:cad>78</ns3:cad>
          </ns3:TrackPointExtension>
        </extensions>
      </trkpt>
      <trkpt lat="45.2865685522556304931640625" lon="-70.893987827003002166748046875">
        <ele>739.5999755859375</ele>
        <time>2026-08-21T15:27:18.000Z</time>
        <extensions>
          <ns3:TrackPointExtension>
            <ns3:hr>130</ns3:hr>
            <ns3:cad>78</ns3:cad>
          </ns3:TrackPointExtension>
        </extensions>
      </trkpt>
      <trkpt lat="45.2865633554756641387939453125" lon="-70.89401389472186565399169921875">
        <ele>739.20001220703125</ele>
        <time>2026-08-21T15:27:19.000Z</time>
        <extensions>
          <ns3:TrackPointExtension>
            <ns3:hr>129</ns3:hr>
            <ns3:cad>78</ns3:cad>
          </ns3:TrackPointExtension>
        </extensions>
      </trkpt>
      <trkpt lat="45.28655841015279293060302734375" lon="-70.894037447869777679443359375">
        <ele>738.79998779296875</ele>
        <time>2026-08-21T15:27:20.000Z</time>
        <extensions>
          <ns3:TrackPointExtension>
            <ns3:hr>129</ns3:hr>
            <ns3:cad>78</ns3:cad>
          </ns3:TrackPointExtension>
        </extensions>
      </trkpt>
      <trkpt lat="45.2865524590015411376953125" lon="-70.89406418614089488983154296875">
        <ele>738.4000244140625</ele>
        <time>2026-08-21T15:27:21.000Z</time>
        <extensions>
          <ns3:TrackPointExtension>
            <ns3:hr>128</ns3:hr>
            <ns3:cad>78</ns3:cad>
          </ns3:TrackPointExtension>
        </extensions>
      </trkpt>
      <trkpt lat="45.28654784895479679107666015625" lon="-70.89408363215625286102294921875">
        <ele>738</ele>
        <time>2026-08-21T15:27:22.000Z</time>
        <extensions>
          <ns3:TrackPointExtension>
            <ns3:hr>128</ns3:hr>
            <ns3:cad>78</ns3:cad>
          </ns3:TrackPointExtension>
        </extensions>
      </trkpt>
      <trkpt lat="45.28654466383159160614013671875" lon="-70.89411213062703609466552734375">
        <ele>737.4000244140625</ele>
        <time>2026-08-21T15:27:23.000Z</time>
        <extensions>
          <ns3:TrackPointExtension>
            <ns3:hr>129</ns3:hr>
            <ns3:cad>78</ns3:cad>
          </ns3:TrackPointExtension>
        </extensions>
      </trkpt>
      <trkpt lat="45.286542735993862152099609375" lon="-70.894135348498821258544921875">
        <ele>737</ele>
        <time>2026-08-21T15:27:24.000Z</time>
        <extensions>
          <ns3:TrackPointExtension>
            <ns3:hr>129</ns3:hr>
            <ns3:cad>78</ns3:cad>
          </ns3:TrackPointExtension>
        </extensions>
      </trkpt>
      <trkpt lat="45.28653678484261035919189453125" lon="-70.89416049420833587646484375">
        <ele>736.5999755859375</ele>
        <time>2026-08-21T15:27:25.000Z</time>
        <extensions>
          <ns3:TrackPointExtension>
            <ns3:hr>129</ns3:hr>
            <ns3:cad>78</ns3:cad>
          </ns3:TrackPointExtension>
        </extensions>
      </trkpt>
      <trkpt lat="45.286534689366817474365234375" lon="-70.89417918585240840911865234375">
        <ele>736.20001220703125</ele>
        <time>2026-08-21T15:27:26.000Z</time>
        <extensions>
          <ns3:TrackPointExtension>
            <ns3:hr>128</ns3:hr>
            <ns3:cad>75</ns3:cad>
          </ns3:TrackPointExtension>
        </extensions>
      </trkpt>
      <trkpt lat="45.2865304984152317047119140625" lon="-70.89419695548713207244873046875">
        <ele>735.79998779296875</ele>
        <time>2026-08-21T15:27:27.000Z</time>
        <extensions>
          <ns3:TrackPointExtension>
            <ns3:hr>129</ns3:hr>
            <ns3:cad>75</ns3:cad>
          </ns3:TrackPointExtension>
        </extensions>
      </trkpt>
      <trkpt lat="45.28652873821556568145751953125" lon="-70.8942183293402194976806640625">
        <ele>735.4000244140625</ele>
        <time>2026-08-21T15:27:28.000Z</time>
        <extensions>
          <ns3:TrackPointExtension>
            <ns3:hr>129</ns3:hr>
            <ns3:cad>75</ns3:cad>
          </ns3:TrackPointExtension>
        </extensions>
      </trkpt>
      <trkpt lat="45.286522619426250457763671875" lon="-70.894243307411670684814453125">
        <ele>734.79998779296875</ele>
        <time>2026-08-21T15:27:29.000Z</time>
        <extensions>
          <ns3:TrackPointExtension>
            <ns3:hr>129</ns3:hr>
            <ns3:cad>75</ns3:cad>
          </ns3:TrackPointExtension>
        </extensions>
      </trkpt>
      <trkpt lat="45.28651918284595012664794921875" lon="-70.8942699618637561798095703125">
        <ele>734.4000244140625</ele>
        <time>2026-08-21T15:27:30.000Z</time>
        <extensions>
          <ns3:TrackPointExtension>
            <ns3:hr>129</ns3:hr>
            <ns3:cad>75</ns3:cad>
          </ns3:TrackPointExtension>
        </extensions>
      </trkpt>
      <trkpt lat="45.28651616536080837249755859375" lon="-70.89429368264973163604736328125">
        <ele>733.79998779296875</ele>
        <time>2026-08-21T15:27:31.000Z</time>
        <extensions>
          <ns3:TrackPointExtension>
            <ns3:hr>129</ns3:hr>
            <ns3:cad>75</ns3:cad>
          </ns3:TrackPointExtension>
        </extensions>
      </trkpt>
      <trkpt lat="45.28650996275246143341064453125" lon="-70.894314385950565338134765625">
        <ele>733.20001220703125</ele>
        <time>2026-08-21T15:27:32.000Z</time>
        <extensions>
          <ns3:TrackPointExtension>
            <ns3:hr>129</ns3:hr>
            <ns3:cad>79</ns3:cad>
          </ns3:TrackPointExtension>
        </extensions>
      </trkpt>
      <trkpt lat="45.28650484979152679443359375" lon="-70.89432955719530582427978515625">
        <ele>732.79998779296875</ele>
        <time>2026-08-21T15:27:33.000Z</time>
        <extensions>
          <ns3:TrackPointExtension>
            <ns3:hr>130</ns3:hr>
            <ns3:cad>79</ns3:cad>
          </ns3:TrackPointExtension>
        </extensions>
      </trkpt>
      <trkpt lat="45.28650057502090930938720703125" lon="-70.89435067959129810333251953125">
        <ele>732.20001220703125</ele>
        <time>2026-08-21T15:27:34.000Z</time>
        <extensions>
          <ns3:TrackPointExtension>
            <ns3:hr>130</ns3:hr>
            <ns3:cad>79</ns3:cad>
          </ns3:TrackPointExtension>
        </extensions>
      </trkpt>
      <trkpt lat="45.28649504296481609344482421875" lon="-70.8943675272166728973388671875">
        <ele>731.79998779296875</ele>
        <time>2026-08-21T15:27:35.000Z</time>
        <extensions>
          <ns3:TrackPointExtension>
            <ns3:hr>130</ns3:hr>
            <ns3:cad>41</ns3:cad>
          </ns3:TrackPointExtension>
        </extensions>
      </trkpt>
      <trkpt lat="45.28649034909904003143310546875" lon="-70.89439393021166324615478515625">
        <ele>731.20001220703125</ele>
        <time>2026-08-21T15:27:36.000Z</time>
        <extensions>
          <ns3:TrackPointExtension>
            <ns3:hr>130</ns3:hr>
            <ns3:cad>41</ns3:cad>
          </ns3:TrackPointExtension>
        </extensions>
      </trkpt>
      <trkpt lat="45.28649219311773777008056640625" lon="-70.89441035874187946319580078125">
        <ele>730.79998779296875</ele>
        <time>2026-08-21T15:27:37.000Z</time>
        <extensions>
          <ns3:TrackPointExtension>
            <ns3:hr>130</ns3:hr>
            <ns3:cad>41</ns3:cad>
          </ns3:TrackPointExtension>
        </extensions>
      </trkpt>
      <trkpt lat="45.286491103470325469970703125" lon="-70.89442846365272998809814453125">
        <ele>730.4000244140625</ele>
        <time>2026-08-21T15:27:38.000Z</time>
        <extensions>
          <ns3:TrackPointExtension>
            <ns3:hr>131</ns3:hr>
            <ns3:cad>41</ns3:cad>
          </ns3:TrackPointExtension>
        </extensions>
      </trkpt>
      <trkpt lat="45.286485739052295684814453125" lon="-70.894447155296802520751953125">
        <ele>729.79998779296875</ele>
        <time>2026-08-21T15:27:39.000Z</time>
        <extensions>
          <ns3:TrackPointExtension>
            <ns3:hr>130</ns3:hr>
            <ns3:cad>41</ns3:cad>
          </ns3:TrackPointExtension>
        </extensions>
      </trkpt>
      <trkpt lat="45.2864827215671539306640625" lon="-70.89446769095957279205322265625">
        <ele>729.20001220703125</ele>
        <time>2026-08-21T15:27:40.000Z</time>
        <extensions>
          <ns3:TrackPointExtension>
            <ns3:hr>130</ns3:hr>
            <ns3:cad>40</ns3:cad>
          </ns3:TrackPointExtension>
        </extensions>
      </trkpt>
      <trkpt lat="45.2864827215671539306640625" lon="-70.89449015446007251739501953125">
        <ele>728.79998779296875</ele>
        <time>2026-08-21T15:27:41.000Z</time>
        <extensions>
          <ns3:TrackPointExtension>
            <ns3:hr>130</ns3:hr>
            <ns3:cad>40</ns3:cad>
          </ns3:TrackPointExtension>
        </extensions>
      </trkpt>
      <trkpt lat="45.28648129664361476898193359375" lon="-70.89450155384838581085205078125">
        <ele>728.20001220703125</ele>
        <time>2026-08-21T15:27:42.000Z</time>
        <extensions>
          <ns3:TrackPointExtension>
            <ns3:hr>131</ns3:hr>
            <ns3:cad>0</ns3:cad>
          </ns3:TrackPointExtension>
        </extensions>
      </trkpt>
      <trkpt lat="45.2864812128245830535888671875" lon="-70.89451513253152370452880859375">
        <ele>727.79998779296875</ele>
        <time>2026-08-21T15:27:43.000Z</time>
        <extensions>
          <ns3:TrackPointExtension>
            <ns3:hr>130</ns3:hr>
            <ns3:cad>0</ns3:cad>
          </ns3:TrackPointExtension>
        </extensions>
      </trkpt>
      <trkpt lat="45.28647911734879016876220703125" lon="-70.8945328183472156524658203125">
        <ele>727.20001220703125</ele>
        <time>2026-08-21T15:27:44.000Z</time>
        <extensions>
          <ns3:TrackPointExtension>
            <ns3:hr>130</ns3:hr>
            <ns3:cad>0</ns3:cad>
          </ns3:TrackPointExtension>
        </extensions>
      </trkpt>
      <trkpt lat="45.286479033529758453369140625" lon="-70.894553102552890777587890625">
        <ele>726.5999755859375</ele>
        <time>2026-08-21T15:27:45.000Z</time>
        <extensions>
          <ns3:TrackPointExtension>
            <ns3:hr>131</ns3:hr>
            <ns3:cad>0</ns3:cad>
          </ns3:TrackPointExtension>
        </extensions>
      </trkpt>
      <trkpt lat="45.28647601604461669921875" lon="-70.89457045309245586395263671875">
        <ele>726.20001220703125</ele>
        <time>2026-08-21T15:27:46.000Z</time>
        <extensions>
          <ns3:TrackPointExtension>
            <ns3:hr>130</ns3:hr>
            <ns3:cad>0</ns3:cad>
          </ns3:TrackPointExtension>
        </extensions>
      </trkpt>
      <trkpt lat="45.286470986902713775634765625" lon="-70.8945930004119873046875">
        <ele>725.5999755859375</ele>
        <time>2026-08-21T15:27:47.000Z</time>
        <extensions>
          <ns3:TrackPointExtension>
            <ns3:hr>130</ns3:hr>
            <ns3:cad>0</ns3:cad>
          </ns3:TrackPointExtension>
        </extensions>
      </trkpt>
      <trkpt lat="45.2864693105220794677734375" lon="-70.89460976421833038330078125">
        <ele>725.20001220703125</ele>
        <time>2026-08-21T15:27:48.000Z</time>
        <extensions>
          <ns3:TrackPointExtension>
            <ns3:hr>130</ns3:hr>
            <ns3:cad>0</ns3:cad>
          </ns3:TrackPointExtension>
        </extensions>
      </trkpt>
      <trkpt lat="45.2864688076078891754150390625" lon="-70.89463650248944759368896484375">
        <ele>724.5999755859375</ele>
        <time>2026-08-21T15:27:49.000Z</time>
        <extensions>
          <ns3:TrackPointExtension>
            <ns3:hr>130</ns3:hr>
            <ns3:cad>0</ns3:cad>
          </ns3:TrackPointExtension>
        </extensions>
      </trkpt>
      <trkpt lat="45.28646729886531829833984375" lon="-70.89465360157191753387451171875">
        <ele>724</ele>
        <time>2026-08-21T15:27:50.000Z</time>
        <extensions>
          <ns3:TrackPointExtension>
            <ns3:hr>130</ns3:hr>
            <ns3:cad>0</ns3:cad>
          </ns3:TrackPointExtension>
        </extensions>
      </trkpt>
      <trkpt lat="45.2864654548466205596923828125" lon="-70.894671119749546051025390625">
        <ele>723.5999755859375</ele>
        <time>2026-08-21T15:27:51.000Z</time>
        <extensions>
          <ns3:TrackPointExtension>
            <ns3:hr>129</ns3:hr>
            <ns3:cad>0</ns3:cad>
          </ns3:TrackPointExtension>
        </extensions>
      </trkpt>
      <trkpt lat="45.2864614315330982208251953125" lon="-70.8946984447538852691650390625">
        <ele>723.20001220703125</ele>
        <time>2026-08-21T15:27:52.000Z</time>
        <extensions>
          <ns3:TrackPointExtension>
            <ns3:hr>129</ns3:hr>
            <ns3:cad>0</ns3:cad>
          </ns3:TrackPointExtension>
        </extensions>
      </trkpt>
      <trkpt lat="45.286462269723415374755859375" lon="-70.894714705646038055419921875">
        <ele>722.79998779296875</ele>
        <time>2026-08-21T15:27:53.000Z</time>
        <extensions>
          <ns3:TrackPointExtension>
            <ns3:hr>129</ns3:hr>
            <ns3:cad>0</ns3:cad>
          </ns3:TrackPointExtension>
        </extensions>
      </trkpt>
      <trkpt lat="45.28646101243793964385986328125" lon="-70.89473675005137920379638671875">
        <ele>722.20001220703125</ele>
        <time>2026-08-21T15:27:54.000Z</time>
        <extensions>
          <ns3:TrackPointExtension>
            <ns3:hr>130</ns3:hr>
            <ns3:cad>0</ns3:cad>
          </ns3:TrackPointExtension>
        </extensions>
      </trkpt>
      <trkpt lat="45.28645849786698818206787109375" lon="-70.894767008721828460693359375">
        <ele>721.79998779296875</ele>
        <time>2026-08-21T15:27:55.000Z</time>
        <extensions>
          <ns3:TrackPointExtension>
            <ns3:hr>131</ns3:hr>
            <ns3:cad>0</ns3:cad>
          </ns3:TrackPointExtension>
        </extensions>
      </trkpt>
      <trkpt lat="45.2864580787718296051025390625" lon="-70.89479374699294567108154296875">
        <ele>721.20001220703125</ele>
        <time>2026-08-21T15:27:56.000Z</time>
        <extensions>
          <ns3:TrackPointExtension>
            <ns3:hr>131</ns3:hr>
            <ns3:cad>0</ns3:cad>
          </ns3:TrackPointExtension>
        </extensions>
      </trkpt>
      <trkpt lat="45.286456905305385589599609375" lon="-70.89482165873050689697265625">
        <ele>720.79998779296875</ele>
        <time>2026-08-21T15:27:57.000Z</time>
        <extensions>
          <ns3:TrackPointExtension>
            <ns3:hr>131</ns3:hr>
            <ns3:cad>0</ns3:cad>
          </ns3:TrackPointExtension>
        </extensions>
      </trkpt>
      <trkpt lat="45.28645480982959270477294921875" lon="-70.89484537951648235321044921875">
        <ele>720.20001220703125</ele>
        <time>2026-08-21T15:27:58.000Z</time>
        <extensions>
          <ns3:TrackPointExtension>
            <ns3:hr>132</ns3:hr>
            <ns3:cad>0</ns3:cad>
          </ns3:TrackPointExtension>
        </extensions>
      </trkpt>
      <trkpt lat="45.28645464219152927398681640625" lon="-70.894874967634677886962890625">
        <ele>719.79998779296875</ele>
        <time>2026-08-21T15:27:59.000Z</time>
        <extensions>
          <ns3:TrackPointExtension>
            <ns3:hr>132</ns3:hr>
            <ns3:cad>0</ns3:cad>
          </ns3:TrackPointExtension>
        </extensions>
      </trkpt>
      <trkpt lat="45.2864560671150684356689453125" lon="-70.894903130829334259033203125">
        <ele>719.4000244140625</ele>
        <time>2026-08-21T15:28:00.000Z</time>
        <extensions>
          <ns3:TrackPointExtension>
            <ns3:hr>132</ns3:hr>
            <ns3:cad>0</ns3:cad>
          </ns3:TrackPointExtension>
        </extensions>
      </trkpt>
      <trkpt lat="45.28645732440054416656494140625" lon="-70.8949374966323375701904296875">
        <ele>719</ele>
        <time>2026-08-21T15:28:01.000Z</time>
        <extensions>
          <ns3:TrackPointExtension>
            <ns3:hr>132</ns3:hr>
            <ns3:cad>0</ns3:cad>
          </ns3:TrackPointExtension>
        </extensions>
      </trkpt>
      <trkpt lat="45.2864574082195758819580078125" lon="-70.89497395791113376617431640625">
        <ele>718.5999755859375</ele>
        <time>2026-08-21T15:28:02.000Z</time>
        <extensions>
          <ns3:TrackPointExtension>
            <ns3:hr>133</ns3:hr>
            <ns3:cad>0</ns3:cad>
          </ns3:TrackPointExtension>
        </extensions>
      </trkpt>
      <trkpt lat="45.28646118007600307464599609375" lon="-70.89499977417290210723876953125">
        <ele>718.20001220703125</ele>
        <time>2026-08-21T15:28:03.000Z</time>
        <extensions>
          <ns3:TrackPointExtension>
            <ns3:hr>133</ns3:hr>
            <ns3:cad>0</ns3:cad>
          </ns3:TrackPointExtension>
        </extensions>
      </trkpt>
      <trkpt lat="45.28646553866565227508544921875" lon="-70.8950290270149707794189453125">
        <ele>718</ele>
        <time>2026-08-21T15:28:04.000Z</time>
        <extensions>
          <ns3:TrackPointExtension>
            <ns3:hr>133</ns3:hr>
            <ns3:cad>0</ns3:cad>
          </ns3:TrackPointExtension>
        </extensions>
      </trkpt>
      <trkpt lat="45.2864714898169040679931640625" lon="-70.8950504846870899200439453125">
        <ele>717.5999755859375</ele>
        <time>2026-08-21T15:28:05.000Z</time>
        <extensions>
          <ns3:TrackPointExtension>
            <ns3:hr>134</ns3:hr>
            <ns3:cad>0</ns3:cad>
          </ns3:TrackPointExtension>
        </extensions>
      </trkpt>
      <trkpt lat="45.2864768542349338531494140625" lon="-70.8950739540159702301025390625">
        <ele>717.4000244140625</ele>
        <time>2026-08-21T15:28:06.000Z</time>
        <extensions>
          <ns3:TrackPointExtension>
            <ns3:hr>134</ns3:hr>
            <ns3:cad>77</ns3:cad>
          </ns3:TrackPointExtension>
        </extensions>
      </trkpt>
      <trkpt lat="45.286477021872997283935546875" lon="-70.8951031230390071868896484375">
        <ele>717</ele>
        <time>2026-08-21T15:28:07.000Z</time>
        <extensions>
          <ns3:TrackPointExtension>
            <ns3:hr>134</ns3:hr>
            <ns3:cad>77</ns3:cad>
          </ns3:TrackPointExtension>
        </extensions>
      </trkpt>
      <trkpt lat="45.28647945262491703033447265625" lon="-70.89512868784368038177490234375">
        <ele>716.79998779296875</ele>
        <time>2026-08-21T15:28:08.000Z</time>
        <extensions>
          <ns3:TrackPointExtension>
            <ns3:hr>134</ns3:hr>
            <ns3:cad>77</ns3:cad>
          </ns3:TrackPointExtension>
        </extensions>
      </trkpt>
      <trkpt lat="45.28648079372942447662353515625" lon="-70.8951495587825775146484375">
        <ele>716.4000244140625</ele>
        <time>2026-08-21T15:28:09.000Z</time>
        <extensions>
          <ns3:TrackPointExtension>
            <ns3:hr>134</ns3:hr>
            <ns3:cad>76</ns3:cad>
          </ns3:TrackPointExtension>
        </extensions>
      </trkpt>
      <trkpt lat="45.2864812128245830535888671875" lon="-70.895180068910121917724609375">
        <ele>716</ele>
        <time>2026-08-21T15:28:10.000Z</time>
        <extensions>
          <ns3:TrackPointExtension>
            <ns3:hr>134</ns3:hr>
            <ns3:cad>76</ns3:cad>
          </ns3:TrackPointExtension>
        </extensions>
      </trkpt>
      <trkpt lat="45.2864835597574710845947265625" lon="-70.89520731009542942047119140625">
        <ele>715.79998779296875</ele>
        <time>2026-08-21T15:28:11.000Z</time>
        <extensions>
          <ns3:TrackPointExtension>
            <ns3:hr>134</ns3:hr>
            <ns3:cad>76</ns3:cad>
          </ns3:TrackPointExtension>
        </extensions>
      </trkpt>
      <trkpt lat="45.286492444574832916259765625" lon="-70.89523765258491039276123046875">
        <ele>715.5999755859375</ele>
        <time>2026-08-21T15:28:12.000Z</time>
        <extensions>
          <ns3:TrackPointExtension>
            <ns3:hr>134</ns3:hr>
            <ns3:cad>76</ns3:cad>
          </ns3:TrackPointExtension>
        </extensions>
      </trkpt>
      <trkpt lat="45.28649948537349700927734375" lon="-70.89526019990444183349609375">
        <ele>715.4000244140625</ele>
        <time>2026-08-21T15:28:13.000Z</time>
        <extensions>
          <ns3:TrackPointExtension>
            <ns3:hr>134</ns3:hr>
            <ns3:cad>76</ns3:cad>
          </ns3:TrackPointExtension>
        </extensions>
      </trkpt>
      <trkpt lat="45.2865068614482879638671875" lon="-70.895290710031986236572265625">
        <ele>715</ele>
        <time>2026-08-21T15:28:14.000Z</time>
        <extensions>
          <ns3:TrackPointExtension>
            <ns3:hr>134</ns3:hr>
            <ns3:cad>76</ns3:cad>
          </ns3:TrackPointExtension>
        </extensions>
      </trkpt>
      <trkpt lat="45.28651750646531581878662109375" lon="-70.89531728066504001617431640625">
        <ele>714.79998779296875</ele>
        <time>2026-08-21T15:28:15.000Z</time>
        <extensions>
          <ns3:TrackPointExtension>
            <ns3:hr>134</ns3:hr>
            <ns3:cad>76</ns3:cad>
          </ns3:TrackPointExtension>
        </extensions>
      </trkpt>
      <trkpt lat="45.28652756474912166595458984375" lon="-70.89533991180360317230224609375">
        <ele>714.4000244140625</ele>
        <time>2026-08-21T15:28:16.000Z</time>
        <extensions>
          <ns3:TrackPointExtension>
            <ns3:hr>134</ns3:hr>
            <ns3:cad>76</ns3:cad>
          </ns3:TrackPointExtension>
        </extensions>
      </trkpt>
      <trkpt lat="45.28654181398451328277587890625" lon="-70.8953612856566905975341796875">
        <ele>714.20001220703125</ele>
        <time>2026-08-21T15:28:17.000Z</time>
        <extensions>
          <ns3:TrackPointExtension>
            <ns3:hr>134</ns3:hr>
            <ns3:cad>76</ns3:cad>
          </ns3:TrackPointExtension>
        </extensions>
      </trkpt>
      <trkpt lat="45.28655715286731719970703125" lon="-70.89538165368139743804931640625">
        <ele>713.79998779296875</ele>
        <time>2026-08-21T15:28:18.000Z</time>
        <extensions>
          <ns3:TrackPointExtension>
            <ns3:hr>134</ns3:hr>
            <ns3:cad>40</ns3:cad>
          </ns3:TrackPointExtension>
        </extensions>
      </trkpt>
      <trkpt lat="45.28656922280788421630859375" lon="-70.89540009386837482452392578125">
        <ele>713.5999755859375</ele>
        <time>2026-08-21T15:28:19.000Z</time>
        <extensions>
          <ns3:TrackPointExtension>
            <ns3:hr>134</ns3:hr>
            <ns3:cad>40</ns3:cad>
          </ns3:TrackPointExtension>
        </extensions>
      </trkpt>
      <trkpt lat="45.28657861053943634033203125" lon="-70.89542808942496776580810546875">
        <ele>713.20001220703125</ele>
        <time>2026-08-21T15:28:20.000Z</time>
        <extensions>
          <ns3:TrackPointExtension>
            <ns3:hr>133</ns3:hr>
            <ns3:cad>40</ns3:cad>
          </ns3:TrackPointExtension>
        </extensions>
      </trkpt>
      <trkpt lat="45.28659277595579624176025390625" lon="-70.895454324781894683837890625">
        <ele>713</ele>
        <time>2026-08-21T15:28:21.000Z</time>
        <extensions>
          <ns3:TrackPointExtension>
            <ns3:hr>133</ns3:hr>
            <ns3:cad>76</ns3:cad>
          </ns3:TrackPointExtension>
        </extensions>
      </trkpt>
      <trkpt lat="45.28660115785896778106689453125" lon="-70.8954779617488384246826171875">
        <ele>712.5999755859375</ele>
        <time>2026-08-21T15:28:22.000Z</time>
        <extensions>
          <ns3:TrackPointExtension>
            <ns3:hr>133</ns3:hr>
            <ns3:cad>76</ns3:cad>
          </ns3:TrackPointExtension>
        </extensions>
      </trkpt>
      <trkpt lat="45.286609120666980743408203125" lon="-70.895501263439655303955078125">
        <ele>712.20001220703125</ele>
        <time>2026-08-21T15:28:23.000Z</time>
        <extensions>
          <ns3:TrackPointExtension>
            <ns3:hr>133</ns3:hr>
            <ns3:cad>76</ns3:cad>
          </ns3:TrackPointExtension>
        </extensions>
      </trkpt>
      <trkpt lat="45.28662152588367462158203125" lon="-70.8955262415111064910888671875">
        <ele>712</ele>
        <time>2026-08-21T15:28:24.000Z</time>
        <extensions>
          <ns3:TrackPointExtension>
            <ns3:hr>134</ns3:hr>
            <ns3:cad>76</ns3:cad>
          </ns3:TrackPointExtension>
        </extensions>
      </trkpt>
      <trkpt lat="45.28663502074778079986572265625" lon="-70.89555331505835056304931640625">
        <ele>711.5999755859375</ele>
        <time>2026-08-21T15:28:25.000Z</time>
        <extensions>
          <ns3:TrackPointExtension>
            <ns3:hr>134</ns3:hr>
            <ns3:cad>76</ns3:cad>
          </ns3:TrackPointExtension>
        </extensions>
      </trkpt>
      <trkpt lat="45.28664926998317241668701171875" lon="-70.895577035844326019287109375">
        <ele>711.4000244140625</ele>
        <time>2026-08-21T15:28:26.000Z</time>
        <extensions>
          <ns3:TrackPointExtension>
            <ns3:hr>133</ns3:hr>
            <ns3:cad>78</ns3:cad>
          </ns3:TrackPointExtension>
        </extensions>
      </trkpt>
      <trkpt lat="45.28666150756180286407470703125" lon="-70.89559681713581085205078125">
        <ele>711</ele>
        <time>2026-08-21T15:28:27.000Z</time>
        <extensions>
          <ns3:TrackPointExtension>
            <ns3:hr>134</ns3:hr>
            <ns3:cad>78</ns3:cad>
          </ns3:TrackPointExtension>
        </extensions>
      </trkpt>
      <trkpt lat="45.28667810373008251190185546875" lon="-70.8956243097782135009765625">
        <ele>710.5999755859375</ele>
        <time>2026-08-21T15:28:28.000Z</time>
        <extensions>
          <ns3:TrackPointExtension>
            <ns3:hr>134</ns3:hr>
            <ns3:cad>78</ns3:cad>
          </ns3:TrackPointExtension>
        </extensions>
      </trkpt>
      <trkpt lat="45.2866904251277446746826171875" lon="-70.8956486172974109649658203125">
        <ele>710.4000244140625</ele>
        <time>2026-08-21T15:28:29.000Z</time>
        <extensions>
          <ns3:TrackPointExtension>
            <ns3:hr>134</ns3:hr>
            <ns3:cad>78</ns3:cad>
          </ns3:TrackPointExtension>
        </extensions>
      </trkpt>
      <trkpt lat="45.2867031656205654144287109375" lon="-70.89567217044532299041748046875">
        <ele>710.20001220703125</ele>
        <time>2026-08-21T15:28:30.000Z</time>
        <extensions>
          <ns3:TrackPointExtension>
            <ns3:hr>134</ns3:hr>
            <ns3:cad>78</ns3:cad>
          </ns3:TrackPointExtension>
        </extensions>
      </trkpt>
      <trkpt lat="45.28671163134276866912841796875" lon="-70.89568994008004665374755859375">
        <ele>710</ele>
        <time>2026-08-21T15:28:31.000Z</time>
        <extensions>
          <ns3:TrackPointExtension>
            <ns3:hr>133</ns3:hr>
            <ns3:cad>78</ns3:cad>
          </ns3:TrackPointExtension>
        </extensions>
      </trkpt>
      <trkpt lat="45.28672076761722564697265625" lon="-70.89571416378021240234375">
        <ele>709.79998779296875</ele>
        <time>2026-08-21T15:28:32.000Z</time>
        <extensions>
          <ns3:TrackPointExtension>
            <ns3:hr>134</ns3:hr>
            <ns3:cad>78</ns3:cad>
          </ns3:TrackPointExtension>
        </extensions>
      </trkpt>
      <trkpt lat="45.28673057444393634796142578125" lon="-70.89574031531810760498046875">
        <ele>709.4000244140625</ele>
        <time>2026-08-21T15:28:33.000Z</time>
        <extensions>
          <ns3:TrackPointExtension>
            <ns3:hr>134</ns3:hr>
            <ns3:cad>78</ns3:cad>
          </ns3:TrackPointExtension>
        </extensions>
      </trkpt>
      <trkpt lat="45.2867383696138858795166015625" lon="-70.8957619406282901763916015625">
        <ele>709.20001220703125</ele>
        <time>2026-08-21T15:28:34.000Z</time>
        <extensions>
          <ns3:TrackPointExtension>
            <ns3:hr>135</ns3:hr>
            <ns3:cad>78</ns3:cad>
          </ns3:TrackPointExtension>
        </extensions>
      </trkpt>
      <trkpt lat="45.28675052337348461151123046875" lon="-70.8957833983004093170166015625">
        <ele>708.79998779296875</ele>
        <time>2026-08-21T15:28:35.000Z</time>
        <extensions>
          <ns3:TrackPointExtension>
            <ns3:hr>135</ns3:hr>
            <ns3:cad>78</ns3:cad>
          </ns3:TrackPointExtension>
        </extensions>
      </trkpt>
      <trkpt lat="45.28676477260887622833251953125" lon="-70.8958129025995731353759765625">
        <ele>708.5999755859375</ele>
        <time>2026-08-21T15:28:36.000Z</time>
        <extensions>
          <ns3:TrackPointExtension>
            <ns3:hr>135</ns3:hr>
            <ns3:cad>77</ns3:cad>
          </ns3:TrackPointExtension>
        </extensions>
      </trkpt>
      <trkpt lat="45.28677550144493579864501953125" lon="-70.895837880671024322509765625">
        <ele>708.4000244140625</ele>
        <time>2026-08-21T15:28:37.000Z</time>
        <extensions>
          <ns3:TrackPointExtension>
            <ns3:hr>135</ns3:hr>
            <ns3:cad>77</ns3:cad>
          </ns3:TrackPointExtension>
        </extensions>
      </trkpt>
      <trkpt lat="45.2867884933948516845703125" lon="-70.8958598412573337554931640625">
        <ele>708.20001220703125</ele>
        <time>2026-08-21T15:28:38.000Z</time>
        <extensions>
          <ns3:TrackPointExtension>
            <ns3:hr>134</ns3:hr>
            <ns3:cad>75</ns3:cad>
          </ns3:TrackPointExtension>
        </extensions>
      </trkpt>
      <trkpt lat="45.2868045866489410400390625" lon="-70.89588071219623088836669921875">
        <ele>707.79998779296875</ele>
        <time>2026-08-21T15:28:39.000Z</time>
        <extensions>
          <ns3:TrackPointExtension>
            <ns3:hr>134</ns3:hr>
            <ns3:cad>75</ns3:cad>
          </ns3:TrackPointExtension>
        </extensions>
      </trkpt>
      <trkpt lat="45.28681573458015918731689453125" lon="-70.89589915238320827484130859375">
        <ele>707.5999755859375</ele>
        <time>2026-08-21T15:28:40.000Z</time>
        <extensions>
          <ns3:TrackPointExtension>
            <ns3:hr>133</ns3:hr>
            <ns3:cad>75</ns3:cad>
          </ns3:TrackPointExtension>
        </extensions>
      </trkpt>
      <trkpt lat="45.28682813979685306549072265625" lon="-70.8959247171878814697265625">
        <ele>707.20001220703125</ele>
        <time>2026-08-21T15:28:41.000Z</time>
        <extensions>
          <ns3:TrackPointExtension>
            <ns3:hr>133</ns3:hr>
            <ns3:cad>75</ns3:cad>
          </ns3:TrackPointExtension>
        </extensions>
      </trkpt>
      <trkpt lat="45.2868389524519443511962890625" lon="-70.89594793505966663360595703125">
        <ele>707</ele>
        <time>2026-08-21T15:28:42.000Z</time>
        <extensions>
          <ns3:TrackPointExtension>
            <ns3:hr>132</ns3:hr>
            <ns3:cad>75</ns3:cad>
          </ns3:TrackPointExtension>
        </extensions>
      </trkpt>
      <trkpt lat="45.28685295023024082183837890625" lon="-70.89597241021692752838134765625">
        <ele>706.79998779296875</ele>
        <time>2026-08-21T15:28:43.000Z</time>
        <extensions>
          <ns3:TrackPointExtension>
            <ns3:hr>132</ns3:hr>
            <ns3:cad>76</ns3:cad>
          </ns3:TrackPointExtension>
        </extensions>
      </trkpt>
      <trkpt lat="45.2868689596652984619140625" lon="-70.89599839411675930023193359375">
        <ele>706.5999755859375</ele>
        <time>2026-08-21T15:28:44.000Z</time>
        <extensions>
          <ns3:TrackPointExtension>
            <ns3:hr>132</ns3:hr>
            <ns3:cad>76</ns3:cad>
          </ns3:TrackPointExtension>
        </extensions>
      </trkpt>
      <trkpt lat="45.2868778444826602935791015625" lon="-70.8960214443504810333251953125">
        <ele>706.4000244140625</ele>
        <time>2026-08-21T15:28:45.000Z</time>
        <extensions>
          <ns3:TrackPointExtension>
            <ns3:hr>132</ns3:hr>
            <ns3:cad>76</ns3:cad>
          </ns3:TrackPointExtension>
        </extensions>
      </trkpt>
      <trkpt lat="45.286888740956783294677734375" lon="-70.89604482986032962799072265625">
        <ele>706</ele>
        <time>2026-08-21T15:28:46.000Z</time>
        <extensions>
          <ns3:TrackPointExtension>
            <ns3:hr>132</ns3:hr>
            <ns3:cad>76</ns3:cad>
          </ns3:TrackPointExtension>
        </extensions>
      </trkpt>
      <trkpt lat="45.28690047562122344970703125" lon="-70.8960695564746856689453125">
        <ele>705.79998779296875</ele>
        <time>2026-08-21T15:28:47.000Z</time>
        <extensions>
          <ns3:TrackPointExtension>
            <ns3:hr>132</ns3:hr>
            <ns3:cad>76</ns3:cad>
          </ns3:TrackPointExtension>
        </extensions>
      </trkpt>
      <trkpt lat="45.2869091928005218505859375" lon="-70.89608690701425075531005859375">
        <ele>705.5999755859375</ele>
        <time>2026-08-21T15:28:48.000Z</time>
        <extensions>
          <ns3:TrackPointExtension>
            <ns3:hr>132</ns3:hr>
            <ns3:cad>76</ns3:cad>
          </ns3:TrackPointExtension>
        </extensions>
      </trkpt>
      <trkpt lat="45.28692184947431087493896484375" lon="-70.8961079455912113189697265625">
        <ele>705.4000244140625</ele>
        <time>2026-08-21T15:28:49.000Z</time>
        <extensions>
          <ns3:TrackPointExtension>
            <ns3:hr>132</ns3:hr>
            <ns3:cad>76</ns3:cad>
          </ns3:TrackPointExtension>
        </extensions>
      </trkpt>
      <trkpt lat="45.2869311533868312835693359375" lon="-70.89613149873912334442138671875">
        <ele>705.20001220703125</ele>
        <time>2026-08-21T15:28:50.000Z</time>
        <extensions>
          <ns3:TrackPointExtension>
            <ns3:hr>131</ns3:hr>
            <ns3:cad>76</ns3:cad>
          </ns3:TrackPointExtension>
        </extensions>
      </trkpt>
      <trkpt lat="45.2869398705661296844482421875" lon="-70.8961607515811920166015625">
        <ele>705.20001220703125</ele>
        <time>2026-08-21T15:28:51.000Z</time>
        <extensions>
          <ns3:TrackPointExtension>
            <ns3:hr>131</ns3:hr>
            <ns3:cad>76</ns3:cad>
          </ns3:TrackPointExtension>
        </extensions>
      </trkpt>
      <trkpt lat="45.2869472466409206390380859375" lon="-70.89618598110973834991455078125">
        <ele>705</ele>
        <time>2026-08-21T15:28:52.000Z</time>
        <extensions>
          <ns3:TrackPointExtension>
            <ns3:hr>131</ns3:hr>
            <ns3:cad>76</ns3:cad>
          </ns3:TrackPointExtension>
        </extensions>
      </trkpt>
      <trkpt lat="45.286959148943424224853515625" lon="-70.89621515013277530670166015625">
        <ele>704.79998779296875</ele>
        <time>2026-08-21T15:28:53.000Z</time>
        <extensions>
          <ns3:TrackPointExtension>
            <ns3:hr>130</ns3:hr>
            <ns3:cad>77</ns3:cad>
          </ns3:TrackPointExtension>
        </extensions>
      </trkpt>
      <trkpt lat="45.28697289526462554931640625" lon="-70.8962366916239261627197265625">
        <ele>704.5999755859375</ele>
        <time>2026-08-21T15:28:54.000Z</time>
        <extensions>
          <ns3:TrackPointExtension>
            <ns3:hr>130</ns3:hr>
            <ns3:cad>77</ns3:cad>
          </ns3:TrackPointExtension>
        </extensions>
      </trkpt>
      <trkpt lat="45.28698639012873172760009765625" lon="-70.8962608315050601959228515625">
        <ele>704.4000244140625</ele>
        <time>2026-08-21T15:28:55.000Z</time>
        <extensions>
          <ns3:TrackPointExtension>
            <ns3:hr>130</ns3:hr>
            <ns3:cad>77</ns3:cad>
          </ns3:TrackPointExtension>
        </extensions>
      </trkpt>
      <trkpt lat="45.2869998849928379058837890625" lon="-70.896280109882354736328125">
        <ele>704.4000244140625</ele>
        <time>2026-08-21T15:28:56.000Z</time>
        <extensions>
          <ns3:TrackPointExtension>
            <ns3:hr>130</ns3:hr>
            <ns3:cad>77</ns3:cad>
          </ns3:TrackPointExtension>
        </extensions>
      </trkpt>
      <trkpt lat="45.28701136820018291473388671875" lon="-70.8963034115731716156005859375">
        <ele>704.20001220703125</ele>
        <time>2026-08-21T15:28:57.000Z</time>
        <extensions>
          <ns3:TrackPointExtension>
            <ns3:hr>129</ns3:hr>
            <ns3:cad>77</ns3:cad>
          </ns3:TrackPointExtension>
        </extensions>
      </trkpt>
      <trkpt lat="45.28702125884592533111572265625" lon="-70.896327383816242218017578125">
        <ele>704</ele>
        <time>2026-08-21T15:28:58.000Z</time>
        <extensions>
          <ns3:TrackPointExtension>
            <ns3:hr>130</ns3:hr>
            <ns3:cad>77</ns3:cad>
          </ns3:TrackPointExtension>
        </extensions>
      </trkpt>
      <trkpt lat="45.2870324067771434783935546875" lon="-70.89634724892675876617431640625">
        <ele>703.79998779296875</ele>
        <time>2026-08-21T15:28:59.000Z</time>
        <extensions>
          <ns3:TrackPointExtension>
            <ns3:hr>130</ns3:hr>
            <ns3:cad>77</ns3:cad>
          </ns3:TrackPointExtension>
        </extensions>
      </trkpt>
      <trkpt lat="45.28704573400318622589111328125" lon="-70.89637222699820995330810546875">
        <ele>703.5999755859375</ele>
        <time>2026-08-21T15:29:00.000Z</time>
        <extensions>
          <ns3:TrackPointExtension>
            <ns3:hr>130</ns3:hr>
            <ns3:cad>77</ns3:cad>
          </ns3:TrackPointExtension>
        </extensions>
      </trkpt>
      <trkpt lat="45.28705864213407039642333984375" lon="-70.8963941037654876708984375">
        <ele>703.4000244140625</ele>
        <time>2026-08-21T15:29:01.000Z</time>
        <extensions>
          <ns3:TrackPointExtension>
            <ns3:hr>130</ns3:hr>
            <ns3:cad>77</ns3:cad>
          </ns3:TrackPointExtension>
        </extensions>
      </trkpt>
      <trkpt lat="45.28706937097012996673583984375" lon="-70.896413885056972503662109375">
        <ele>703.20001220703125</ele>
        <time>2026-08-21T15:29:02.000Z</time>
        <extensions>
          <ns3:TrackPointExtension>
            <ns3:hr>130</ns3:hr>
            <ns3:cad>0</ns3:cad>
          </ns3:TrackPointExtension>
        </extensions>
      </trkpt>
      <trkpt lat="45.28708395548164844512939453125" lon="-70.89644179679453372955322265625">
        <ele>703</ele>
        <time>2026-08-21T15:29:03.000Z</time>
        <extensions>
          <ns3:TrackPointExtension>
            <ns3:hr>130</ns3:hr>
            <ns3:cad>0</ns3:cad>
          </ns3:TrackPointExtension>
        </extensions>
      </trkpt>
      <trkpt lat="45.28709569014608860015869140625" lon="-70.896464176476001739501953125">
        <ele>702.5999755859375</ele>
        <time>2026-08-21T15:29:04.000Z</time>
        <extensions>
          <ns3:TrackPointExtension>
            <ns3:hr>130</ns3:hr>
            <ns3:cad>0</ns3:cad>
          </ns3:TrackPointExtension>
        </extensions>
      </trkpt>
      <trkpt lat="45.287107340991497039794921875" lon="-70.8964874781668186187744140625">
        <ele>702.4000244140625</ele>
        <time>2026-08-21T15:29:05.000Z</time>
        <extensions>
          <ns3:TrackPointExtension>
            <ns3:hr>130</ns3:hr>
            <ns3:cad>77</ns3:cad>
          </ns3:TrackPointExtension>
        </extensions>
      </trkpt>
      <trkpt lat="45.2871168963611125946044921875" lon="-70.89651254005730152130126953125">
        <ele>702</ele>
        <time>2026-08-21T15:29:06.000Z</time>
        <extensions>
          <ns3:TrackPointExtension>
            <ns3:hr>130</ns3:hr>
            <ns3:cad>77</ns3:cad>
          </ns3:TrackPointExtension>
        </extensions>
      </trkpt>
      <trkpt lat="45.2871293015778064727783203125" lon="-70.8965381048619747161865234375">
        <ele>701.5999755859375</ele>
        <time>2026-08-21T15:29:07.000Z</time>
        <extensions>
          <ns3:TrackPointExtension>
            <ns3:hr>130</ns3:hr>
            <ns3:cad>78</ns3:cad>
          </ns3:TrackPointExtension>
        </extensions>
      </trkpt>
      <trkpt lat="45.28713810257613658905029296875" lon="-70.89655864052474498748779296875">
        <ele>701.4000244140625</ele>
        <time>2026-08-21T15:29:08.000Z</time>
        <extensions>
          <ns3:TrackPointExtension>
            <ns3:hr>130</ns3:hr>
            <ns3:cad>78</ns3:cad>
          </ns3:TrackPointExtension>
        </extensions>
      </trkpt>
      <trkpt lat="45.28714832849800586700439453125" lon="-70.8965887315571308135986328125">
        <ele>701.20001220703125</ele>
        <time>2026-08-21T15:29:09.000Z</time>
        <extensions>
          <ns3:TrackPointExtension>
            <ns3:hr>130</ns3:hr>
            <ns3:cad>78</ns3:cad>
          </ns3:TrackPointExtension>
        </extensions>
      </trkpt>
      <trkpt lat="45.287158302962779998779296875" lon="-70.89661815203726291656494140625">
        <ele>701</ele>
        <time>2026-08-21T15:29:10.000Z</time>
        <extensions>
          <ns3:TrackPointExtension>
            <ns3:hr>131</ns3:hr>
            <ns3:cad>78</ns3:cad>
          </ns3:TrackPointExtension>
        </extensions>
      </trkpt>
      <trkpt lat="45.28717129491269588470458984375" lon="-70.89663759805262088775634765625">
        <ele>700.79998779296875</ele>
        <time>2026-08-21T15:29:11.000Z</time>
        <extensions>
          <ns3:TrackPointExtension>
            <ns3:hr>131</ns3:hr>
            <ns3:cad>78</ns3:cad>
          </ns3:TrackPointExtension>
        </extensions>
      </trkpt>
      <trkpt lat="45.287184454500675201416015625" lon="-70.89665905572474002838134765625">
        <ele>700.4000244140625</ele>
        <time>2026-08-21T15:29:12.000Z</time>
        <extensions>
          <ns3:TrackPointExtension>
            <ns3:hr>131</ns3:hr>
            <ns3:cad>78</ns3:cad>
          </ns3:TrackPointExtension>
        </extensions>
      </trkpt>
      <trkpt lat="45.287197865545749664306640625" lon="-70.8966809324920177459716796875">
        <ele>700</ele>
        <time>2026-08-21T15:29:13.000Z</time>
        <extensions>
          <ns3:TrackPointExtension>
            <ns3:hr>131</ns3:hr>
            <ns3:cad>78</ns3:cad>
          </ns3:TrackPointExtension>
        </extensions>
      </trkpt>
      <trkpt lat="45.287213623523712158203125" lon="-70.89670616202056407928466796875">
        <ele>699.79998779296875</ele>
        <time>2026-08-21T15:29:14.000Z</time>
        <extensions>
          <ns3:TrackPointExtension>
            <ns3:hr>131</ns3:hr>
            <ns3:cad>78</ns3:cad>
          </ns3:TrackPointExtension>
        </extensions>
      </trkpt>
      <trkpt lat="45.28722611255943775177001953125" lon="-70.89672778733074665069580078125">
        <ele>699.4000244140625</ele>
        <time>2026-08-21T15:29:15.000Z</time>
        <extensions>
          <ns3:TrackPointExtension>
            <ns3:hr>131</ns3:hr>
            <ns3:cad>78</ns3:cad>
          </ns3:TrackPointExtension>
        </extensions>
      </trkpt>
      <trkpt lat="45.2872364223003387451171875" lon="-70.8967526815831661224365234375">
        <ele>699.20001220703125</ele>
        <time>2026-08-21T15:29:16.000Z</time>
        <extensions>
          <ns3:TrackPointExtension>
            <ns3:hr>132</ns3:hr>
            <ns3:cad>78</ns3:cad>
          </ns3:TrackPointExtension>
        </extensions>
      </trkpt>
      <trkpt lat="45.2872500009834766387939453125" lon="-70.8967805095016956329345703125">
        <ele>699</ele>
        <time>2026-08-21T15:29:17.000Z</time>
        <extensions>
          <ns3:TrackPointExtension>
            <ns3:hr>132</ns3:hr>
            <ns3:cad>78</ns3:cad>
          </ns3:TrackPointExtension>
        </extensions>
      </trkpt>
      <trkpt lat="45.2872597239911556243896484375" lon="-70.89680037461221218109130859375">
        <ele>698.79998779296875</ele>
        <time>2026-08-21T15:29:18.000Z</time>
        <extensions>
          <ns3:TrackPointExtension>
            <ns3:hr>132</ns3:hr>
            <ns3:cad>78</ns3:cad>
          </ns3:TrackPointExtension>
        </extensions>
      </trkpt>
      <trkpt lat="45.28727355413138866424560546875" lon="-70.8968245983123779296875">
        <ele>698.5999755859375</ele>
        <time>2026-08-21T15:29:19.000Z</time>
        <extensions>
          <ns3:TrackPointExtension>
            <ns3:hr>133</ns3:hr>
            <ns3:cad>78</ns3:cad>
          </ns3:TrackPointExtension>
        </extensions>
      </trkpt>
      <trkpt lat="45.28729140758514404296875" lon="-70.89684966020286083221435546875">
        <ele>698.4000244140625</ele>
        <time>2026-08-21T15:29:20.000Z</time>
        <extensions>
          <ns3:TrackPointExtension>
            <ns3:hr>133</ns3:hr>
            <ns3:cad>78</ns3:cad>
          </ns3:TrackPointExtension>
        </extensions>
      </trkpt>
      <trkpt lat="45.28730423189699649810791015625" lon="-70.89687027968466281890869140625">
        <ele>698.20001220703125</ele>
        <time>2026-08-21T15:29:21.000Z</time>
        <extensions>
          <ns3:TrackPointExtension>
            <ns3:hr>134</ns3:hr>
            <ns3:cad>78</ns3:cad>
          </ns3:TrackPointExtension>
        </extensions>
      </trkpt>
      <trkpt lat="45.2873167209327220916748046875" lon="-70.8968951739370822906494140625">
        <ele>698</ele>
        <time>2026-08-21T15:29:22.000Z</time>
        <extensions>
          <ns3:TrackPointExtension>
            <ns3:hr>135</ns3:hr>
            <ns3:cad>78</ns3:cad>
          </ns3:TrackPointExtension>
        </extensions>
      </trkpt>
      <trkpt lat="45.28733071871101856231689453125" lon="-70.89692207984626293182373046875">
        <ele>697.79998779296875</ele>
        <time>2026-08-21T15:29:23.000Z</time>
        <extensions>
          <ns3:TrackPointExtension>
            <ns3:hr>135</ns3:hr>
            <ns3:cad>78</ns3:cad>
          </ns3:TrackPointExtension>
        </extensions>
      </trkpt>
      <trkpt lat="45.2873435430228710174560546875" lon="-70.89694085530936717987060546875">
        <ele>697.4000244140625</ele>
        <time>2026-08-21T15:29:24.000Z</time>
        <extensions>
          <ns3:TrackPointExtension>
            <ns3:hr>136</ns3:hr>
            <ns3:cad>78</ns3:cad>
          </ns3:TrackPointExtension>
        </extensions>
      </trkpt>
      <trkpt lat="45.28735435567796230316162109375" lon="-70.89696449227631092071533203125">
        <ele>697.20001220703125</ele>
        <time>2026-08-21T15:29:25.000Z</time>
        <extensions>
          <ns3:TrackPointExtension>
            <ns3:hr>136</ns3:hr>
            <ns3:cad>78</ns3:cad>
          </ns3:TrackPointExtension>
        </extensions>
      </trkpt>
      <trkpt lat="45.28736977837979793548583984375" lon="-70.896985866129398345947265625">
        <ele>696.79998779296875</ele>
        <time>2026-08-21T15:29:26.000Z</time>
        <extensions>
          <ns3:TrackPointExtension>
            <ns3:hr>136</ns3:hr>
            <ns3:cad>78</ns3:cad>
          </ns3:TrackPointExtension>
        </extensions>
      </trkpt>
      <trkpt lat="45.2873851172626018524169921875" lon="-70.89700137265026569366455078125">
        <ele>696.5999755859375</ele>
        <time>2026-08-21T15:29:27.000Z</time>
        <extensions>
          <ns3:TrackPointExtension>
            <ns3:hr>135</ns3:hr>
            <ns3:cad>78</ns3:cad>
          </ns3:TrackPointExtension>
        </extensions>
      </trkpt>
      <trkpt lat="45.2873998694121837615966796875" lon="-70.897023417055606842041015625">
        <ele>696.4000244140625</ele>
        <time>2026-08-21T15:29:28.000Z</time>
        <extensions>
          <ns3:TrackPointExtension>
            <ns3:hr>135</ns3:hr>
            <ns3:cad>78</ns3:cad>
          </ns3:TrackPointExtension>
        </extensions>
      </trkpt>
      <trkpt lat="45.28741034679114818572998046875" lon="-70.8970406837761402130126953125">
        <ele>696.20001220703125</ele>
        <time>2026-08-21T15:29:29.000Z</time>
        <extensions>
          <ns3:TrackPointExtension>
            <ns3:hr>135</ns3:hr>
            <ns3:cad>78</ns3:cad>
          </ns3:TrackPointExtension>
        </extensions>
      </trkpt>
      <trkpt lat="45.2874216623604297637939453125" lon="-70.89706666767597198486328125">
        <ele>696.20001220703125</ele>
        <time>2026-08-21T15:29:30.000Z</time>
        <extensions>
          <ns3:TrackPointExtension>
            <ns3:hr>136</ns3:hr>
            <ns3:cad>78</ns3:cad>
          </ns3:TrackPointExtension>
        </extensions>
      </trkpt>
      <trkpt lat="45.28743566013872623443603515625" lon="-70.8970889635384082794189453125">
        <ele>696</ele>
        <time>2026-08-21T15:29:31.000Z</time>
        <extensions>
          <ns3:TrackPointExtension>
            <ns3:hr>135</ns3:hr>
            <ns3:cad>77</ns3:cad>
          </ns3:TrackPointExtension>
        </extensions>
      </trkpt>
      <trkpt lat="45.28744823299348354339599609375" lon="-70.897106565535068511962890625">
        <ele>695.5999755859375</ele>
        <time>2026-08-21T15:29:32.000Z</time>
        <extensions>
          <ns3:TrackPointExtension>
            <ns3:hr>136</ns3:hr>
            <ns3:cad>77</ns3:cad>
          </ns3:TrackPointExtension>
        </extensions>
      </trkpt>
      <trkpt lat="45.28746373951435089111328125" lon="-70.89712433516979217529296875">
        <ele>695.4000244140625</ele>
        <time>2026-08-21T15:29:33.000Z</time>
        <extensions>
          <ns3:TrackPointExtension>
            <ns3:hr>136</ns3:hr>
            <ns3:cad>77</ns3:cad>
          </ns3:TrackPointExtension>
        </extensions>
      </trkpt>
      <trkpt lat="45.2874778211116790771484375" lon="-70.89714235626161098480224609375">
        <ele>695</ele>
        <time>2026-08-21T15:29:34.000Z</time>
        <extensions>
          <ns3:TrackPointExtension>
            <ns3:hr>136</ns3:hr>
            <ns3:cad>76</ns3:cad>
          </ns3:TrackPointExtension>
        </extensions>
      </trkpt>
      <trkpt lat="45.28749081306159496307373046875" lon="-70.89716146700084209442138671875">
        <ele>694.79998779296875</ele>
        <time>2026-08-21T15:29:35.000Z</time>
        <extensions>
          <ns3:TrackPointExtension>
            <ns3:hr>136</ns3:hr>
            <ns3:cad>76</ns3:cad>
          </ns3:TrackPointExtension>
        </extensions>
      </trkpt>
      <trkpt lat="45.28750489465892314910888671875" lon="-70.897181332111358642578125">
        <ele>694.5999755859375</ele>
        <time>2026-08-21T15:29:36.000Z</time>
        <extensions>
          <ns3:TrackPointExtension>
            <ns3:hr>136</ns3:hr>
            <ns3:cad>75</ns3:cad>
          </ns3:TrackPointExtension>
        </extensions>
      </trkpt>
      <trkpt lat="45.28751914389431476593017578125" lon="-70.8972026221454143524169921875">
        <ele>694.4000244140625</ele>
        <time>2026-08-21T15:29:37.000Z</time>
        <extensions>
          <ns3:TrackPointExtension>
            <ns3:hr>135</ns3:hr>
            <ns3:cad>75</ns3:cad>
          </ns3:TrackPointExtension>
        </extensions>
      </trkpt>
      <trkpt lat="45.28753523714840412139892578125" lon="-70.89722156524658203125">
        <ele>694.20001220703125</ele>
        <time>2026-08-21T15:29:38.000Z</time>
        <extensions>
          <ns3:TrackPointExtension>
            <ns3:hr>135</ns3:hr>
            <ns3:cad>77</ns3:cad>
          </ns3:TrackPointExtension>
        </extensions>
      </trkpt>
      <trkpt lat="45.28754814527928829193115234375" lon="-70.89724545367062091827392578125">
        <ele>693.79998779296875</ele>
        <time>2026-08-21T15:29:39.000Z</time>
        <extensions>
          <ns3:TrackPointExtension>
            <ns3:hr>135</ns3:hr>
            <ns3:cad>77</ns3:cad>
          </ns3:TrackPointExtension>
        </extensions>
      </trkpt>
      <trkpt lat="45.28756407089531421661376953125" lon="-70.897262133657932281494140625">
        <ele>693.5999755859375</ele>
        <time>2026-08-21T15:29:40.000Z</time>
        <extensions>
          <ns3:TrackPointExtension>
            <ns3:hr>135</ns3:hr>
            <ns3:cad>77</ns3:cad>
          </ns3:TrackPointExtension>
        </extensions>
      </trkpt>
      <trkpt lat="45.28758318163454532623291015625" lon="-70.89728350751101970672607421875">
        <ele>693.20001220703125</ele>
        <time>2026-08-21T15:29:41.000Z</time>
        <extensions>
          <ns3:TrackPointExtension>
            <ns3:hr>135</ns3:hr>
            <ns3:cad>78</ns3:cad>
          </ns3:TrackPointExtension>
        </extensions>
      </trkpt>
      <trkpt lat="45.28759424574673175811767578125" lon="-70.89730831794440746307373046875">
        <ele>693</ele>
        <time>2026-08-21T15:29:42.000Z</time>
        <extensions>
          <ns3:TrackPointExtension>
            <ns3:hr>134</ns3:hr>
            <ns3:cad>78</ns3:cad>
          </ns3:TrackPointExtension>
        </extensions>
      </trkpt>
      <trkpt lat="45.28760782442986965179443359375" lon="-70.89732709340751171112060546875">
        <ele>692.5999755859375</ele>
        <time>2026-08-21T15:29:43.000Z</time>
        <extensions>
          <ns3:TrackPointExtension>
            <ns3:hr>134</ns3:hr>
            <ns3:cad>78</ns3:cad>
          </ns3:TrackPointExtension>
        </extensions>
      </trkpt>
      <trkpt lat="45.2876255102455615997314453125" lon="-70.8973454497754573822021484375">
        <ele>692.4000244140625</ele>
        <time>2026-08-21T15:29:44.000Z</time>
        <extensions>
          <ns3:TrackPointExtension>
            <ns3:hr>133</ns3:hr>
            <ns3:cad>78</ns3:cad>
          </ns3:TrackPointExtension>
        </extensions>
      </trkpt>
      <trkpt lat="45.28764118440449237823486328125" lon="-70.89735995046794414520263671875">
        <ele>692</ele>
        <time>2026-08-21T15:29:45.000Z</time>
        <extensions>
          <ns3:TrackPointExtension>
            <ns3:hr>133</ns3:hr>
            <ns3:cad>78</ns3:cad>
          </ns3:TrackPointExtension>
        </extensions>
      </trkpt>
      <trkpt lat="45.28765711002051830291748046875" lon="-70.89737788774073123931884765625">
        <ele>691.79998779296875</ele>
        <time>2026-08-21T15:29:46.000Z</time>
        <extensions>
          <ns3:TrackPointExtension>
            <ns3:hr>133</ns3:hr>
            <ns3:cad>77</ns3:cad>
          </ns3:TrackPointExtension>
        </extensions>
      </trkpt>
      <trkpt lat="45.287668593227863311767578125" lon="-70.89739657938480377197265625">
        <ele>691.4000244140625</ele>
        <time>2026-08-21T15:29:47.000Z</time>
        <extensions>
          <ns3:TrackPointExtension>
            <ns3:hr>134</ns3:hr>
            <ns3:cad>77</ns3:cad>
          </ns3:TrackPointExtension>
        </extensions>
      </trkpt>
      <trkpt lat="45.287679992616176605224609375" lon="-70.8974175341427326202392578125">
        <ele>691.4000244140625</ele>
        <time>2026-08-21T15:29:48.000Z</time>
        <extensions>
          <ns3:TrackPointExtension>
            <ns3:hr>133</ns3:hr>
            <ns3:cad>77</ns3:cad>
          </ns3:TrackPointExtension>
        </extensions>
      </trkpt>
      <trkpt lat="45.2876942418515682220458984375" lon="-70.89743605814874172210693359375">
        <ele>691.20001220703125</ele>
        <time>2026-08-21T15:29:49.000Z</time>
        <extensions>
          <ns3:TrackPointExtension>
            <ns3:hr>133</ns3:hr>
            <ns3:cad>77</ns3:cad>
          </ns3:TrackPointExtension>
        </extensions>
      </trkpt>
      <trkpt lat="45.28770589269697666168212890625" lon="-70.89745265431702136993408203125">
        <ele>691</ele>
        <time>2026-08-21T15:29:50.000Z</time>
        <extensions>
          <ns3:TrackPointExtension>
            <ns3:hr>132</ns3:hr>
            <ns3:cad>77</ns3:cad>
          </ns3:TrackPointExtension>
        </extensions>
      </trkpt>
      <trkpt lat="45.2877203933894634246826171875" lon="-70.89746975339949131011962890625">
        <ele>690.5999755859375</ele>
        <time>2026-08-21T15:29:51.000Z</time>
        <extensions>
          <ns3:TrackPointExtension>
            <ns3:hr>132</ns3:hr>
            <ns3:cad>77</ns3:cad>
          </ns3:TrackPointExtension>
        </extensions>
      </trkpt>
      <trkpt lat="45.28773673810064792633056640625" lon="-70.89749221689999103546142578125">
        <ele>690.4000244140625</ele>
        <time>2026-08-21T15:29:52.000Z</time>
        <extensions>
          <ns3:TrackPointExtension>
            <ns3:hr>132</ns3:hr>
            <ns3:cad>77</ns3:cad>
          </ns3:TrackPointExtension>
        </extensions>
      </trkpt>
      <trkpt lat="45.28774880804121494293212890625" lon="-70.89751015417277812957763671875">
        <ele>690.20001220703125</ele>
        <time>2026-08-21T15:29:53.000Z</time>
        <extensions>
          <ns3:TrackPointExtension>
            <ns3:hr>131</ns3:hr>
            <ns3:cad>77</ns3:cad>
          </ns3:TrackPointExtension>
        </extensions>
      </trkpt>
      <trkpt lat="45.28775970451533794403076171875" lon="-70.8975308574736118316650390625">
        <ele>689.79998779296875</ele>
        <time>2026-08-21T15:29:54.000Z</time>
        <extensions>
          <ns3:TrackPointExtension>
            <ns3:hr>131</ns3:hr>
            <ns3:cad>77</ns3:cad>
          </ns3:TrackPointExtension>
        </extensions>
      </trkpt>
      <trkpt lat="45.28776775114238262176513671875" lon="-70.8975489623844623565673828125">
        <ele>689.79998779296875</ele>
        <time>2026-08-21T15:29:55.000Z</time>
        <extensions>
          <ns3:TrackPointExtension>
            <ns3:hr>130</ns3:hr>
            <ns3:cad>77</ns3:cad>
          </ns3:TrackPointExtension>
        </extensions>
      </trkpt>
      <trkpt lat="45.28777898289263248443603515625" lon="-70.89757083915174007415771484375">
        <ele>689.5999755859375</ele>
        <time>2026-08-21T15:29:56.000Z</time>
        <extensions>
          <ns3:TrackPointExtension>
            <ns3:hr>130</ns3:hr>
            <ns3:cad>77</ns3:cad>
          </ns3:TrackPointExtension>
        </extensions>
      </trkpt>
      <trkpt lat="45.28778987936675548553466796875" lon="-70.89758877642452716827392578125">
        <ele>689.20001220703125</ele>
        <time>2026-08-21T15:29:57.000Z</time>
        <extensions>
          <ns3:TrackPointExtension>
            <ns3:hr>130</ns3:hr>
            <ns3:cad>77</ns3:cad>
          </ns3:TrackPointExtension>
        </extensions>
      </trkpt>
      <trkpt lat="45.28779826126992702484130859375" lon="-70.89760319329798221588134765625">
        <ele>689</ele>
        <time>2026-08-21T15:29:58.000Z</time>
        <extensions>
          <ns3:TrackPointExtension>
            <ns3:hr>130</ns3:hr>
            <ns3:cad>75</ns3:cad>
          </ns3:TrackPointExtension>
        </extensions>
      </trkpt>
      <trkpt lat="45.28781033121049404144287109375" lon="-70.89762431569397449493408203125">
        <ele>688.79998779296875</ele>
        <time>2026-08-21T15:29:59.000Z</time>
        <extensions>
          <ns3:TrackPointExtension>
            <ns3:hr>129</ns3:hr>
            <ns3:cad>75</ns3:cad>
          </ns3:TrackPointExtension>
        </extensions>
      </trkpt>
      <trkpt lat="45.2878249995410442352294921875" lon="-70.897647030651569366455078125">
        <ele>688.4000244140625</ele>
        <time>2026-08-21T15:30:00.000Z</time>
        <extensions>
          <ns3:TrackPointExtension>
            <ns3:hr>129</ns3:hr>
            <ns3:cad>75</ns3:cad>
          </ns3:TrackPointExtension>
        </extensions>
      </trkpt>
      <trkpt lat="45.287831537425518035888671875" lon="-70.89766907505691051483154296875">
        <ele>688</ele>
        <time>2026-08-21T15:30:01.000Z</time>
        <extensions>
          <ns3:TrackPointExtension>
            <ns3:hr>129</ns3:hr>
            <ns3:cad>75</ns3:cad>
          </ns3:TrackPointExtension>
        </extensions>
      </trkpt>
      <trkpt lat="45.28784335590898990631103515625" lon="-70.89769388549029827117919921875">
        <ele>687.79998779296875</ele>
        <time>2026-08-21T15:30:02.000Z</time>
        <extensions>
          <ns3:TrackPointExtension>
            <ns3:hr>128</ns3:hr>
            <ns3:cad>74</ns3:cad>
          </ns3:TrackPointExtension>
        </extensions>
      </trkpt>
      <trkpt lat="45.28785442002117633819580078125" lon="-70.897715091705322265625">
        <ele>687.4000244140625</ele>
        <time>2026-08-21T15:30:03.000Z</time>
        <extensions>
          <ns3:TrackPointExtension>
            <ns3:hr>128</ns3:hr>
            <ns3:cad>74</ns3:cad>
          </ns3:TrackPointExtension>
        </extensions>
      </trkpt>
      <trkpt lat="45.28786741197109222412109375" lon="-70.8977347053587436676025390625">
        <ele>687.20001220703125</ele>
        <time>2026-08-21T15:30:04.000Z</time>
        <extensions>
          <ns3:TrackPointExtension>
            <ns3:hr>128</ns3:hr>
            <ns3:cad>74</ns3:cad>
          </ns3:TrackPointExtension>
        </extensions>
      </trkpt>
      <trkpt lat="45.287878476083278656005859375" lon="-70.8977554924786090850830078125">
        <ele>686.79998779296875</ele>
        <time>2026-08-21T15:30:05.000Z</time>
        <extensions>
          <ns3:TrackPointExtension>
            <ns3:hr>128</ns3:hr>
            <ns3:cad>75</ns3:cad>
          </ns3:TrackPointExtension>
        </extensions>
      </trkpt>
      <trkpt lat="45.28789029456675052642822265625" lon="-70.89777451939880847930908203125">
        <ele>686.5999755859375</ele>
        <time>2026-08-21T15:30:06.000Z</time>
        <extensions>
          <ns3:TrackPointExtension>
            <ns3:hr>128</ns3:hr>
            <ns3:cad>75</ns3:cad>
          </ns3:TrackPointExtension>
        </extensions>
      </trkpt>
      <trkpt lat="45.28790387324988842010498046875" lon="-70.8977937139570713043212890625">
        <ele>686.20001220703125</ele>
        <time>2026-08-21T15:30:07.000Z</time>
        <extensions>
          <ns3:TrackPointExtension>
            <ns3:hr>128</ns3:hr>
            <ns3:cad>75</ns3:cad>
          </ns3:TrackPointExtension>
        </extensions>
      </trkpt>
      <trkpt lat="45.28791292570531368255615234375" lon="-70.89781290851533412933349609375">
        <ele>686</ele>
        <time>2026-08-21T15:30:08.000Z</time>
        <extensions>
          <ns3:TrackPointExtension>
            <ns3:hr>128</ns3:hr>
            <ns3:cad>40</ns3:cad>
          </ns3:TrackPointExtension>
        </extensions>
      </trkpt>
      <trkpt lat="45.2879255823791027069091796875" lon="-70.89783570729196071624755859375">
        <ele>685.79998779296875</ele>
        <time>2026-08-21T15:30:09.000Z</time>
        <extensions>
          <ns3:TrackPointExtension>
            <ns3:hr>128</ns3:hr>
            <ns3:cad>40</ns3:cad>
          </ns3:TrackPointExtension>
        </extensions>
      </trkpt>
      <trkpt lat="45.28793337754905223846435546875" lon="-70.89785263873636722564697265625">
        <ele>685.4000244140625</ele>
        <time>2026-08-21T15:30:10.000Z</time>
        <extensions>
          <ns3:TrackPointExtension>
            <ns3:hr>128</ns3:hr>
            <ns3:cad>40</ns3:cad>
          </ns3:TrackPointExtension>
        </extensions>
      </trkpt>
      <trkpt lat="45.28794494457542896270751953125" lon="-70.89787644334137439727783203125">
        <ele>685.20001220703125</ele>
        <time>2026-08-21T15:30:11.000Z</time>
        <extensions>
          <ns3:TrackPointExtension>
            <ns3:hr>128</ns3:hr>
            <ns3:cad>40</ns3:cad>
          </ns3:TrackPointExtension>
        </extensions>
      </trkpt>
      <trkpt lat="45.28795324265956878662109375" lon="-70.89789873920381069183349609375">
        <ele>684.79998779296875</ele>
        <time>2026-08-21T15:30:12.000Z</time>
        <extensions>
          <ns3:TrackPointExtension>
            <ns3:hr>128</ns3:hr>
            <ns3:cad>0</ns3:cad>
          </ns3:TrackPointExtension>
        </extensions>
      </trkpt>
      <trkpt lat="45.28796472586691379547119140625" lon="-70.89792170561850070953369140625">
        <ele>684.5999755859375</ele>
        <time>2026-08-21T15:30:13.000Z</time>
        <extensions>
          <ns3:TrackPointExtension>
            <ns3:hr>129</ns3:hr>
            <ns3:cad>0</ns3:cad>
          </ns3:TrackPointExtension>
        </extensions>
      </trkpt>
      <trkpt lat="45.287973023951053619384765625" lon="-70.8979435823857784271240234375">
        <ele>684.20001220703125</ele>
        <time>2026-08-21T15:30:14.000Z</time>
        <extensions>
          <ns3:TrackPointExtension>
            <ns3:hr>129</ns3:hr>
            <ns3:cad>0</ns3:cad>
          </ns3:TrackPointExtension>
        </extensions>
      </trkpt>
      <trkpt lat="45.2879793941974639892578125" lon="-70.897966213524341583251953125">
        <ele>683.79998779296875</ele>
        <time>2026-08-21T15:30:15.000Z</time>
        <extensions>
          <ns3:TrackPointExtension>
            <ns3:hr>129</ns3:hr>
            <ns3:cad>0</ns3:cad>
          </ns3:TrackPointExtension>
        </extensions>
      </trkpt>
      <trkpt lat="45.28798945248126983642578125" lon="-70.8979932032525539398193359375">
        <ele>683.5999755859375</ele>
        <time>2026-08-21T15:30:16.000Z</time>
        <extensions>
          <ns3:TrackPointExtension>
            <ns3:hr>129</ns3:hr>
            <ns3:cad>0</ns3:cad>
          </ns3:TrackPointExtension>
        </extensions>
      </trkpt>
      <trkpt lat="45.2879963256418704986572265625" lon="-70.89800988323986530303955078125">
        <ele>683.20001220703125</ele>
        <time>2026-08-21T15:30:17.000Z</time>
        <extensions>
          <ns3:TrackPointExtension>
            <ns3:hr>128</ns3:hr>
            <ns3:cad>76</ns3:cad>
          </ns3:TrackPointExtension>
        </extensions>
      </trkpt>
      <trkpt lat="45.28799976222217082977294921875" lon="-70.89803435839712619781494140625">
        <ele>682.79998779296875</ele>
        <time>2026-08-21T15:30:18.000Z</time>
        <extensions>
          <ns3:TrackPointExtension>
            <ns3:hr>129</ns3:hr>
            <ns3:cad>76</ns3:cad>
          </ns3:TrackPointExtension>
        </extensions>
      </trkpt>
      <trkpt lat="45.28800160624086856842041015625" lon="-70.8980476856231689453125">
        <ele>682.5999755859375</ele>
        <time>2026-08-21T15:30:19.000Z</time>
        <extensions>
          <ns3:TrackPointExtension>
            <ns3:hr>129</ns3:hr>
            <ns3:cad>76</ns3:cad>
          </ns3:TrackPointExtension>
        </extensions>
      </trkpt>
      <trkpt lat="45.28800881467759609222412109375" lon="-70.8980729989707469940185546875">
        <ele>682.4000244140625</ele>
        <time>2026-08-21T15:30:20.000Z</time>
        <extensions>
          <ns3:TrackPointExtension>
            <ns3:hr>129</ns3:hr>
            <ns3:cad>76</ns3:cad>
          </ns3:TrackPointExtension>
        </extensions>
      </trkpt>
      <trkpt lat="45.2880134247243404388427734375" lon="-70.89809068478643894195556640625">
        <ele>682</ele>
        <time>2026-08-21T15:30:21.000Z</time>
        <extensions>
          <ns3:TrackPointExtension>
            <ns3:hr>129</ns3:hr>
            <ns3:cad>76</ns3:cad>
          </ns3:TrackPointExtension>
        </extensions>
      </trkpt>
      <trkpt lat="45.28801820240914821624755859375" lon="-70.898115746676921844482421875">
        <ele>681.79998779296875</ele>
        <time>2026-08-21T15:30:22.000Z</time>
        <extensions>
          <ns3:TrackPointExtension>
            <ns3:hr>130</ns3:hr>
            <ns3:cad>71</ns3:cad>
          </ns3:TrackPointExtension>
        </extensions>
      </trkpt>
      <trkpt lat="45.28802189044654369354248046875" lon="-70.89814089238643646240234375">
        <ele>681.4000244140625</ele>
        <time>2026-08-21T15:30:23.000Z</time>
        <extensions>
          <ns3:TrackPointExtension>
            <ns3:hr>130</ns3:hr>
            <ns3:cad>71</ns3:cad>
          </ns3:TrackPointExtension>
        </extensions>
      </trkpt>
      <trkpt lat="45.28802842833101749420166015625" lon="-70.89816570281982421875">
        <ele>681</ele>
        <time>2026-08-21T15:30:24.000Z</time>
        <extensions>
          <ns3:TrackPointExtension>
            <ns3:hr>131</ns3:hr>
            <ns3:cad>71</ns3:cad>
          </ns3:TrackPointExtension>
        </extensions>
      </trkpt>
      <trkpt lat="45.28803580440580844879150390625" lon="-70.898194201290607452392578125">
        <ele>680.5999755859375</ele>
        <time>2026-08-21T15:30:25.000Z</time>
        <extensions>
          <ns3:TrackPointExtension>
            <ns3:hr>131</ns3:hr>
            <ns3:cad>71</ns3:cad>
          </ns3:TrackPointExtension>
        </extensions>
      </trkpt>
      <trkpt lat="45.2880412526428699493408203125" lon="-70.8982208557426929473876953125">
        <ele>680.20001220703125</ele>
        <time>2026-08-21T15:30:26.000Z</time>
        <extensions>
          <ns3:TrackPointExtension>
            <ns3:hr>131</ns3:hr>
            <ns3:cad>0</ns3:cad>
          </ns3:TrackPointExtension>
        </extensions>
      </trkpt>
      <trkpt lat="45.28804368339478969573974609375" lon="-70.89824474416673183441162109375">
        <ele>680</ele>
        <time>2026-08-21T15:30:27.000Z</time>
        <extensions>
          <ns3:TrackPointExtension>
            <ns3:hr>131</ns3:hr>
            <ns3:cad>72</ns3:cad>
          </ns3:TrackPointExtension>
        </extensions>
      </trkpt>
      <trkpt lat="45.2880489639937877655029296875" lon="-70.8982743322849273681640625">
        <ele>679.5999755859375</ele>
        <time>2026-08-21T15:30:28.000Z</time>
        <extensions>
          <ns3:TrackPointExtension>
            <ns3:hr>132</ns3:hr>
            <ns3:cad>72</ns3:cad>
          </ns3:TrackPointExtension>
        </extensions>
      </trkpt>
      <trkpt lat="45.28805072419345378875732421875" lon="-70.8982966281473636627197265625">
        <ele>679.4000244140625</ele>
        <time>2026-08-21T15:30:29.000Z</time>
        <extensions>
          <ns3:TrackPointExtension>
            <ns3:hr>131</ns3:hr>
            <ns3:cad>72</ns3:cad>
          </ns3:TrackPointExtension>
        </extensions>
      </trkpt>
      <trkpt lat="45.28804468922317028045654296875" lon="-70.8983160741627216339111328125">
        <ele>679</ele>
        <time>2026-08-21T15:30:30.000Z</time>
        <extensions>
          <ns3:TrackPointExtension>
            <ns3:hr>131</ns3:hr>
            <ns3:cad>72</ns3:cad>
          </ns3:TrackPointExtension>
        </extensions>
      </trkpt>
      <trkpt lat="45.28803027234971523284912109375" lon="-70.898334681987762451171875">
        <ele>678.79998779296875</ele>
        <time>2026-08-21T15:30:31.000Z</time>
        <extensions>
          <ns3:TrackPointExtension>
            <ns3:hr>132</ns3:hr>
            <ns3:cad>79</ns3:cad>
          </ns3:TrackPointExtension>
        </extensions>
      </trkpt>
      <trkpt lat="45.288021303713321685791015625" lon="-70.8983479253947734832763671875">
        <ele>678.79998779296875</ele>
        <time>2026-08-21T15:30:32.000Z</time>
        <extensions>
          <ns3:TrackPointExtension>
            <ns3:hr>132</ns3:hr>
            <ns3:cad>79</ns3:cad>
          </ns3:TrackPointExtension>
        </extensions>
      </trkpt>
      <trkpt lat="45.28801468200981616973876953125" lon="-70.898357816040515899658203125">
        <ele>678.5999755859375</ele>
        <time>2026-08-21T15:30:33.000Z</time>
        <extensions>
          <ns3:TrackPointExtension>
            <ns3:hr>132</ns3:hr>
            <ns3:cad>79</ns3:cad>
          </ns3:TrackPointExtension>
        </extensions>
      </trkpt>
      <trkpt lat="45.28800948522984981536865234375" lon="-70.89837265200912952423095703125">
        <ele>678.4000244140625</ele>
        <time>2026-08-21T15:30:34.000Z</time>
        <extensions>
          <ns3:TrackPointExtension>
            <ns3:hr>132</ns3:hr>
            <ns3:cad>79</ns3:cad>
          </ns3:TrackPointExtension>
        </extensions>
      </trkpt>
      <trkpt lat="45.288005210459232330322265625" lon="-70.89838673360645771026611328125">
        <ele>678.4000244140625</ele>
        <time>2026-08-21T15:30:35.000Z</time>
        <extensions>
          <ns3:TrackPointExtension>
            <ns3:hr>132</ns3:hr>
            <ns3:cad>79</ns3:cad>
          </ns3:TrackPointExtension>
        </extensions>
      </trkpt>
      <trkpt lat="45.28799951076507568359375" lon="-70.89840819127857685089111328125">
        <ele>678.20001220703125</ele>
        <time>2026-08-21T15:30:36.000Z</time>
        <extensions>
          <ns3:TrackPointExtension>
            <ns3:hr>133</ns3:hr>
            <ns3:cad>0</ns3:cad>
          </ns3:TrackPointExtension>
        </extensions>
      </trkpt>
      <trkpt lat="45.2880003489553928375244140625" lon="-70.89842730201780796051025390625">
        <ele>678.20001220703125</ele>
        <time>2026-08-21T15:30:37.000Z</time>
        <extensions>
          <ns3:TrackPointExtension>
            <ns3:hr>133</ns3:hr>
            <ns3:cad>0</ns3:cad>
          </ns3:TrackPointExtension>
        </extensions>
      </trkpt>
      <trkpt lat="45.2880020253360271453857421875" lon="-70.89845663867890834808349609375">
        <ele>678.20001220703125</ele>
        <time>2026-08-21T15:30:38.000Z</time>
        <extensions>
          <ns3:TrackPointExtension>
            <ns3:hr>133</ns3:hr>
            <ns3:cad>0</ns3:cad>
          </ns3:TrackPointExtension>
        </extensions>
      </trkpt>
      <trkpt lat="45.28800026513636112213134765625" lon="-70.89847675524652004241943359375">
        <ele>678</ele>
        <time>2026-08-21T15:30:39.000Z</time>
        <extensions>
          <ns3:TrackPointExtension>
            <ns3:hr>133</ns3:hr>
            <ns3:cad>0</ns3:cad>
          </ns3:TrackPointExtension>
        </extensions>
      </trkpt>
      <trkpt lat="45.28799959458410739898681640625" lon="-70.8985031582415103912353515625">
        <ele>678</ele>
        <time>2026-08-21T15:30:40.000Z</time>
        <extensions>
          <ns3:TrackPointExtension>
            <ns3:hr>132</ns3:hr>
            <ns3:cad>0</ns3:cad>
          </ns3:TrackPointExtension>
        </extensions>
      </trkpt>
      <trkpt lat="45.28799791820347309112548828125" lon="-70.89852176606655120849609375">
        <ele>677.79998779296875</ele>
        <time>2026-08-21T15:30:41.000Z</time>
        <extensions>
          <ns3:TrackPointExtension>
            <ns3:hr>132</ns3:hr>
            <ns3:cad>0</ns3:cad>
          </ns3:TrackPointExtension>
        </extensions>
      </trkpt>
      <trkpt lat="45.28799154795706272125244140625" lon="-70.89853693731129169464111328125">
        <ele>677.5999755859375</ele>
        <time>2026-08-21T15:30:42.000Z</time>
        <extensions>
          <ns3:TrackPointExtension>
            <ns3:hr>132</ns3:hr>
            <ns3:cad>0</ns3:cad>
          </ns3:TrackPointExtension>
        </extensions>
      </trkpt>
      <trkpt lat="45.28798048384487628936767578125" lon="-70.8985413797199726104736328125">
        <ele>677.4000244140625</ele>
        <time>2026-08-21T15:30:43.000Z</time>
        <extensions>
          <ns3:TrackPointExtension>
            <ns3:hr>132</ns3:hr>
            <ns3:cad>0</ns3:cad>
          </ns3:TrackPointExtension>
        </extensions>
      </trkpt>
      <trkpt lat="45.28796673752367496490478515625" lon="-70.898549258708953857421875">
        <ele>677</ele>
        <time>2026-08-21T15:30:44.000Z</time>
        <extensions>
          <ns3:TrackPointExtension>
            <ns3:hr>132</ns3:hr>
            <ns3:cad>0</ns3:cad>
          </ns3:TrackPointExtension>
        </extensions>
      </trkpt>
      <trkpt lat="45.2879554219543933868408203125" lon="-70.8985668607056140899658203125">
        <ele>676.79998779296875</ele>
        <time>2026-08-21T15:30:45.000Z</time>
        <extensions>
          <ns3:TrackPointExtension>
            <ns3:hr>131</ns3:hr>
            <ns3:cad>0</ns3:cad>
          </ns3:TrackPointExtension>
        </extensions>
      </trkpt>
      <trkpt lat="45.28795215301215648651123046875" lon="-70.8985889889299869537353515625">
        <ele>676.79998779296875</ele>
        <time>2026-08-21T15:30:46.000Z</time>
        <extensions>
          <ns3:TrackPointExtension>
            <ns3:hr>131</ns3:hr>
            <ns3:cad>0</ns3:cad>
          </ns3:TrackPointExtension>
        </extensions>
      </trkpt>
      <trkpt lat="45.28795299120247364044189453125" lon="-70.89861187152564525604248046875">
        <ele>676.79998779296875</ele>
        <time>2026-08-21T15:30:47.000Z</time>
        <extensions>
          <ns3:TrackPointExtension>
            <ns3:hr>130</ns3:hr>
            <ns3:cad>0</ns3:cad>
          </ns3:TrackPointExtension>
        </extensions>
      </trkpt>
      <trkpt lat="45.28794880025088787078857421875" lon="-70.89863902889192104339599609375">
        <ele>676.79998779296875</ele>
        <time>2026-08-21T15:30:48.000Z</time>
        <extensions>
          <ns3:TrackPointExtension>
            <ns3:hr>130</ns3:hr>
            <ns3:cad>68</ns3:cad>
          </ns3:TrackPointExtension>
        </extensions>
      </trkpt>
      <trkpt lat="45.28794796206057071685791015625" lon="-70.89866115711629390716552734375">
        <ele>676.79998779296875</ele>
        <time>2026-08-21T15:30:49.000Z</time>
        <extensions>
          <ns3:TrackPointExtension>
            <ns3:hr>129</ns3:hr>
            <ns3:cad>68</ns3:cad>
          </ns3:TrackPointExtension>
        </extensions>
      </trkpt>
      <trkpt lat="45.287952907383441925048828125" lon="-70.89868077076971530914306640625">
        <ele>676.79998779296875</ele>
        <time>2026-08-21T15:30:50.000Z</time>
        <extensions>
          <ns3:TrackPointExtension>
            <ns3:hr>129</ns3:hr>
            <ns3:cad>68</ns3:cad>
          </ns3:TrackPointExtension>
        </extensions>
      </trkpt>
      <trkpt lat="45.2879584394395351409912109375" lon="-70.89870004914700984954833984375">
        <ele>676.79998779296875</ele>
        <time>2026-08-21T15:30:51.000Z</time>
        <extensions>
          <ns3:TrackPointExtension>
            <ns3:hr>129</ns3:hr>
            <ns3:cad>68</ns3:cad>
          </ns3:TrackPointExtension>
        </extensions>
      </trkpt>
      <trkpt lat="45.2879654802381992340087890625" lon="-70.89870750904083251953125">
        <ele>676.5999755859375</ele>
        <time>2026-08-21T15:30:52.000Z</time>
        <extensions>
          <ns3:TrackPointExtension>
            <ns3:hr>130</ns3:hr>
            <ns3:cad>68</ns3:cad>
          </ns3:TrackPointExtension>
        </extensions>
      </trkpt>
      <trkpt lat="45.2879738621413707733154296875" lon="-70.89872301556169986724853515625">
        <ele>676.5999755859375</ele>
        <time>2026-08-21T15:30:53.000Z</time>
        <extensions>
          <ns3:TrackPointExtension>
            <ns3:hr>130</ns3:hr>
            <ns3:cad>56</ns3:cad>
          </ns3:TrackPointExtension>
        </extensions>
      </trkpt>
      <trkpt lat="45.28798584826290607452392578125" lon="-70.8987281285226345062255859375">
        <ele>676.5999755859375</ele>
        <time>2026-08-21T15:30:54.000Z</time>
        <extensions>
          <ns3:TrackPointExtension>
            <ns3:hr>130</ns3:hr>
            <ns3:cad>56</ns3:cad>
          </ns3:TrackPointExtension>
        </extensions>
      </trkpt>
      <trkpt lat="45.2880006842315196990966796875" lon="-70.89873692952096462249755859375">
        <ele>676.4000244140625</ele>
        <time>2026-08-21T15:30:55.000Z</time>
        <extensions>
          <ns3:TrackPointExtension>
            <ns3:hr>130</ns3:hr>
            <ns3:cad>48</ns3:cad>
          </ns3:TrackPointExtension>
        </extensions>
      </trkpt>
      <trkpt lat="45.2880144305527210235595703125" lon="-70.89874095283448696136474609375">
        <ele>676.4000244140625</ele>
        <time>2026-08-21T15:30:56.000Z</time>
        <extensions>
          <ns3:TrackPointExtension>
            <ns3:hr>130</ns3:hr>
            <ns3:cad>48</ns3:cad>
          </ns3:TrackPointExtension>
        </extensions>
      </trkpt>
      <trkpt lat="45.288030020892620086669921875" lon="-70.89874112047255039215087890625">
        <ele>676.20001220703125</ele>
        <time>2026-08-21T15:30:57.000Z</time>
        <extensions>
          <ns3:TrackPointExtension>
            <ns3:hr>129</ns3:hr>
            <ns3:cad>48</ns3:cad>
          </ns3:TrackPointExtension>
        </extensions>
      </trkpt>
      <trkpt lat="45.28804175555706024169921875" lon="-70.89873860590159893035888671875">
        <ele>676</ele>
        <time>2026-08-21T15:30:58.000Z</time>
        <extensions>
          <ns3:TrackPointExtension>
            <ns3:hr>130</ns3:hr>
            <ns3:cad>48</ns3:cad>
          </ns3:TrackPointExtension>
        </extensions>
      </trkpt>
      <trkpt lat="45.288054831326007843017578125" lon="-70.89873609133064746856689453125">
        <ele>676</ele>
        <time>2026-08-21T15:30:59.000Z</time>
        <extensions>
          <ns3:TrackPointExtension>
            <ns3:hr>130</ns3:hr>
            <ns3:cad>48</ns3:cad>
          </ns3:TrackPointExtension>
        </extensions>
      </trkpt>
      <trkpt lat="45.2880690805613994598388671875" lon="-70.8987358398735523223876953125">
        <ele>675.79998779296875</ele>
        <time>2026-08-21T15:31:00.000Z</time>
        <extensions>
          <ns3:TrackPointExtension>
            <ns3:hr>130</ns3:hr>
            <ns3:cad>57</ns3:cad>
          </ns3:TrackPointExtension>
        </extensions>
      </trkpt>
      <trkpt lat="45.28808207251131534576416015625" lon="-70.89873709715902805328369140625">
        <ele>675.79998779296875</ele>
        <time>2026-08-21T15:31:01.000Z</time>
        <extensions>
          <ns3:TrackPointExtension>
            <ns3:hr>129</ns3:hr>
            <ns3:cad>57</ns3:cad>
          </ns3:TrackPointExtension>
        </extensions>
      </trkpt>
      <trkpt lat="45.28809883631765842437744140625" lon="-70.8987391926348209381103515625">
        <ele>675.5999755859375</ele>
        <time>2026-08-21T15:31:02.000Z</time>
        <extensions>
          <ns3:TrackPointExtension>
            <ns3:hr>130</ns3:hr>
            <ns3:cad>57</ns3:cad>
          </ns3:TrackPointExtension>
        </extensions>
      </trkpt>
      <trkpt lat="45.28811543248593807220458984375" lon="-70.89874841272830963134765625">
        <ele>675.5999755859375</ele>
        <time>2026-08-21T15:31:03.000Z</time>
        <extensions>
          <ns3:TrackPointExtension>
            <ns3:hr>129</ns3:hr>
            <ns3:cad>57</ns3:cad>
          </ns3:TrackPointExtension>
        </extensions>
      </trkpt>
      <trkpt lat="45.28812565840780735015869140625" lon="-70.89876241050660610198974609375">
        <ele>675.4000244140625</ele>
        <time>2026-08-21T15:31:04.000Z</time>
        <extensions>
          <ns3:TrackPointExtension>
            <ns3:hr>129</ns3:hr>
            <ns3:cad>57</ns3:cad>
          </ns3:TrackPointExtension>
        </extensions>
      </trkpt>
      <trkpt lat="45.2881361357867717742919921875" lon="-70.8987878076732158660888671875">
        <ele>675.4000244140625</ele>
        <time>2026-08-21T15:31:05.000Z</time>
        <extensions>
          <ns3:TrackPointExtension>
            <ns3:hr>129</ns3:hr>
            <ns3:cad>57</ns3:cad>
          </ns3:TrackPointExtension>
        </extensions>
      </trkpt>
      <trkpt lat="45.2881430089473724365234375" lon="-70.898807086050510406494140625">
        <ele>675.5999755859375</ele>
        <time>2026-08-21T15:31:06.000Z</time>
        <extensions>
          <ns3:TrackPointExtension>
            <ns3:hr>129</ns3:hr>
            <ns3:cad>57</ns3:cad>
          </ns3:TrackPointExtension>
        </extensions>
      </trkpt>
      <trkpt lat="45.2881535701453685760498046875" lon="-70.89883022010326385498046875">
        <ele>675.5999755859375</ele>
        <time>2026-08-21T15:31:07.000Z</time>
        <extensions>
          <ns3:TrackPointExtension>
            <ns3:hr>129</ns3:hr>
            <ns3:cad>66</ns3:cad>
          </ns3:TrackPointExtension>
        </extensions>
      </trkpt>
      <trkpt lat="45.28816044330596923828125" lon="-70.898852013051509857177734375">
        <ele>675.4000244140625</ele>
        <time>2026-08-21T15:31:08.000Z</time>
        <extensions>
          <ns3:TrackPointExtension>
            <ns3:hr>128</ns3:hr>
            <ns3:cad>66</ns3:cad>
          </ns3:TrackPointExtension>
        </extensions>
      </trkpt>
      <trkpt lat="45.2881725132465362548828125" lon="-70.89887305162847042083740234375">
        <ele>675.4000244140625</ele>
        <time>2026-08-21T15:31:09.000Z</time>
        <extensions>
          <ns3:TrackPointExtension>
            <ns3:hr>129</ns3:hr>
            <ns3:cad>66</ns3:cad>
          </ns3:TrackPointExtension>
        </extensions>
      </trkpt>
      <trkpt lat="45.288187600672245025634765625" lon="-70.89889434166252613067626953125">
        <ele>675.20001220703125</ele>
        <time>2026-08-21T15:31:10.000Z</time>
        <extensions>
          <ns3:TrackPointExtension>
            <ns3:hr>129</ns3:hr>
            <ns3:cad>66</ns3:cad>
          </ns3:TrackPointExtension>
        </extensions>
      </trkpt>
      <trkpt lat="45.28820310719311237335205078125" lon="-70.89890909381210803985595703125">
        <ele>675.20001220703125</ele>
        <time>2026-08-21T15:31:11.000Z</time>
        <extensions>
          <ns3:TrackPointExtension>
            <ns3:hr>129</ns3:hr>
            <ns3:cad>66</ns3:cad>
          </ns3:TrackPointExtension>
        </extensions>
      </trkpt>
      <trkpt lat="45.28822221793234348297119140625" lon="-70.89892367832362651824951171875">
        <ele>675</ele>
        <time>2026-08-21T15:31:12.000Z</time>
        <extensions>
          <ns3:TrackPointExtension>
            <ns3:hr>129</ns3:hr>
            <ns3:cad>66</ns3:cad>
          </ns3:TrackPointExtension>
        </extensions>
      </trkpt>
      <trkpt lat="45.28823898173868656158447265625" lon="-70.898942537605762481689453125">
        <ele>674.79998779296875</ele>
        <time>2026-08-21T15:31:13.000Z</time>
        <extensions>
          <ns3:TrackPointExtension>
            <ns3:hr>130</ns3:hr>
            <ns3:cad>66</ns3:cad>
          </ns3:TrackPointExtension>
        </extensions>
      </trkpt>
      <trkpt lat="45.2882491238415241241455078125" lon="-70.89896298944950103759765625">
        <ele>674.5999755859375</ele>
        <time>2026-08-21T15:31:14.000Z</time>
        <extensions>
          <ns3:TrackPointExtension>
            <ns3:hr>130</ns3:hr>
            <ns3:cad>66</ns3:cad>
          </ns3:TrackPointExtension>
        </extensions>
      </trkpt>
      <trkpt lat="45.28826236724853515625" lon="-70.898988805711269378662109375">
        <ele>674.4000244140625</ele>
        <time>2026-08-21T15:31:15.000Z</time>
        <extensions>
          <ns3:TrackPointExtension>
            <ns3:hr>130</ns3:hr>
            <ns3:cad>66</ns3:cad>
          </ns3:TrackPointExtension>
        </extensions>
      </trkpt>
      <trkpt lat="45.28827519156038761138916015625" lon="-70.89901126921176910400390625">
        <ele>674.4000244140625</ele>
        <time>2026-08-21T15:31:16.000Z</time>
        <extensions>
          <ns3:TrackPointExtension>
            <ns3:hr>130</ns3:hr>
            <ns3:cad>66</ns3:cad>
          </ns3:TrackPointExtension>
        </extensions>
      </trkpt>
      <trkpt lat="45.2882890217006206512451171875" lon="-70.899032391607761383056640625">
        <ele>674.20001220703125</ele>
        <time>2026-08-21T15:31:17.000Z</time>
        <extensions>
          <ns3:TrackPointExtension>
            <ns3:hr>130</ns3:hr>
            <ns3:cad>66</ns3:cad>
          </ns3:TrackPointExtension>
        </extensions>
      </trkpt>
      <trkpt lat="45.288307629525661468505859375" lon="-70.89905393309891223907470703125">
        <ele>674.20001220703125</ele>
        <time>2026-08-21T15:31:18.000Z</time>
        <extensions>
          <ns3:TrackPointExtension>
            <ns3:hr>130</ns3:hr>
            <ns3:cad>66</ns3:cad>
          </ns3:TrackPointExtension>
        </extensions>
      </trkpt>
      <trkpt lat="45.2883227169513702392578125" lon="-70.89906432665884494781494140625">
        <ele>674</ele>
        <time>2026-08-21T15:31:19.000Z</time>
        <extensions>
          <ns3:TrackPointExtension>
            <ns3:hr>130</ns3:hr>
            <ns3:cad>66</ns3:cad>
          </ns3:TrackPointExtension>
        </extensions>
      </trkpt>
      <trkpt lat="45.2883416600525379180908203125" lon="-70.89908494614064693450927734375">
        <ele>673.79998779296875</ele>
        <time>2026-08-21T15:31:20.000Z</time>
        <extensions>
          <ns3:TrackPointExtension>
            <ns3:hr>130</ns3:hr>
            <ns3:cad>75</ns3:cad>
          </ns3:TrackPointExtension>
        </extensions>
      </trkpt>
      <trkpt lat="45.288353897631168365478515625" lon="-70.89909936301410198211669921875">
        <ele>673.5999755859375</ele>
        <time>2026-08-21T15:31:21.000Z</time>
        <extensions>
          <ns3:TrackPointExtension>
            <ns3:hr>131</ns3:hr>
            <ns3:cad>75</ns3:cad>
          </ns3:TrackPointExtension>
        </extensions>
      </trkpt>
      <trkpt lat="45.2883671410381793975830078125" lon="-70.89912601746618747711181640625">
        <ele>673.20001220703125</ele>
        <time>2026-08-21T15:31:22.000Z</time>
        <extensions>
          <ns3:TrackPointExtension>
            <ns3:hr>130</ns3:hr>
            <ns3:cad>77</ns3:cad>
          </ns3:TrackPointExtension>
        </extensions>
      </trkpt>
      <trkpt lat="45.28837728314101696014404296875" lon="-70.89914579875767230987548828125">
        <ele>673</ele>
        <time>2026-08-21T15:31:23.000Z</time>
        <extensions>
          <ns3:TrackPointExtension>
            <ns3:hr>130</ns3:hr>
            <ns3:cad>77</ns3:cad>
          </ns3:TrackPointExtension>
        </extensions>
      </trkpt>
      <trkpt lat="45.288388095796108245849609375" lon="-70.899166166782379150390625">
        <ele>672.79998779296875</ele>
        <time>2026-08-21T15:31:24.000Z</time>
        <extensions>
          <ns3:TrackPointExtension>
            <ns3:hr>130</ns3:hr>
            <ns3:cad>77</ns3:cad>
          </ns3:TrackPointExtension>
        </extensions>
      </trkpt>
      <trkpt lat="45.2883999980986118316650390625" lon="-70.89919089339673519134521484375">
        <ele>672.5999755859375</ele>
        <time>2026-08-21T15:31:25.000Z</time>
        <extensions>
          <ns3:TrackPointExtension>
            <ns3:hr>131</ns3:hr>
            <ns3:cad>77</ns3:cad>
          </ns3:TrackPointExtension>
        </extensions>
      </trkpt>
      <trkpt lat="45.28841181658208370208740234375" lon="-70.8992139436304569244384765625">
        <ele>672.4000244140625</ele>
        <time>2026-08-21T15:31:26.000Z</time>
        <extensions>
          <ns3:TrackPointExtension>
            <ns3:hr>130</ns3:hr>
            <ns3:cad>77</ns3:cad>
          </ns3:TrackPointExtension>
        </extensions>
      </trkpt>
      <trkpt lat="45.2884264849126338958740234375" lon="-70.89923799969255924224853515625">
        <ele>672.20001220703125</ele>
        <time>2026-08-21T15:31:27.000Z</time>
        <extensions>
          <ns3:TrackPointExtension>
            <ns3:hr>130</ns3:hr>
            <ns3:cad>77</ns3:cad>
          </ns3:TrackPointExtension>
        </extensions>
      </trkpt>
      <trkpt lat="45.28844098560512065887451171875" lon="-70.8992555178701877593994140625">
        <ele>672</ele>
        <time>2026-08-21T15:31:28.000Z</time>
        <extensions>
          <ns3:TrackPointExtension>
            <ns3:hr>130</ns3:hr>
            <ns3:cad>77</ns3:cad>
          </ns3:TrackPointExtension>
        </extensions>
      </trkpt>
      <trkpt lat="45.28845540247857570648193359375" lon="-70.89927538298070430755615234375">
        <ele>671.79998779296875</ele>
        <time>2026-08-21T15:31:29.000Z</time>
        <extensions>
          <ns3:TrackPointExtension>
            <ns3:hr>129</ns3:hr>
            <ns3:cad>77</ns3:cad>
          </ns3:TrackPointExtension>
        </extensions>
      </trkpt>
      <trkpt lat="45.288471244275569915771484375" lon="-70.8992937393486499786376953125">
        <ele>671.5999755859375</ele>
        <time>2026-08-21T15:31:30.000Z</time>
        <extensions>
          <ns3:TrackPointExtension>
            <ns3:hr>129</ns3:hr>
            <ns3:cad>77</ns3:cad>
          </ns3:TrackPointExtension>
        </extensions>
      </trkpt>
      <trkpt lat="45.28848356567323207855224609375" lon="-70.89931377209722995758056640625">
        <ele>671.4000244140625</ele>
        <time>2026-08-21T15:31:31.000Z</time>
        <extensions>
          <ns3:TrackPointExtension>
            <ns3:hr>129</ns3:hr>
            <ns3:cad>77</ns3:cad>
          </ns3:TrackPointExtension>
        </extensions>
      </trkpt>
      <trkpt lat="45.28849999420344829559326171875" lon="-70.899336151778697967529296875">
        <ele>671.20001220703125</ele>
        <time>2026-08-21T15:31:32.000Z</time>
        <extensions>
          <ns3:TrackPointExtension>
            <ns3:hr>129</ns3:hr>
            <ns3:cad>76</ns3:cad>
          </ns3:TrackPointExtension>
        </extensions>
      </trkpt>
      <trkpt lat="45.28851474635303020477294921875" lon="-70.89935727417469024658203125">
        <ele>671</ele>
        <time>2026-08-21T15:31:33.000Z</time>
        <extensions>
          <ns3:TrackPointExtension>
            <ns3:hr>128</ns3:hr>
            <ns3:cad>76</ns3:cad>
          </ns3:TrackPointExtension>
        </extensions>
      </trkpt>
      <trkpt lat="45.2885290794074535369873046875" lon="-70.89938141405582427978515625">
        <ele>670.79998779296875</ele>
        <time>2026-08-21T15:31:34.000Z</time>
        <extensions>
          <ns3:TrackPointExtension>
            <ns3:hr>128</ns3:hr>
            <ns3:cad>76</ns3:cad>
          </ns3:TrackPointExtension>
        </extensions>
      </trkpt>
      <trkpt lat="45.288545005023479461669921875" lon="-70.899402201175689697265625">
        <ele>670.5999755859375</ele>
        <time>2026-08-21T15:31:35.000Z</time>
        <extensions>
          <ns3:TrackPointExtension>
            <ns3:hr>128</ns3:hr>
            <ns3:cad>76</ns3:cad>
          </ns3:TrackPointExtension>
        </extensions>
      </trkpt>
      <trkpt lat="45.2885595895349979400634765625" lon="-70.8994214795529842376708984375">
        <ele>670.4000244140625</ele>
        <time>2026-08-21T15:31:36.000Z</time>
        <extensions>
          <ns3:TrackPointExtension>
            <ns3:hr>128</ns3:hr>
            <ns3:cad>77</ns3:cad>
          </ns3:TrackPointExtension>
        </extensions>
      </trkpt>
      <trkpt lat="45.28857459314167499542236328125" lon="-70.899440087378025054931640625">
        <ele>670.20001220703125</ele>
        <time>2026-08-21T15:31:37.000Z</time>
        <extensions>
          <ns3:TrackPointExtension>
            <ns3:hr>128</ns3:hr>
            <ns3:cad>78</ns3:cad>
          </ns3:TrackPointExtension>
        </extensions>
      </trkpt>
      <trkpt lat="45.2885843999683856964111328125" lon="-70.89945576153695583343505859375">
        <ele>670</ele>
        <time>2026-08-21T15:31:38.000Z</time>
        <extensions>
          <ns3:TrackPointExtension>
            <ns3:hr>127</ns3:hr>
            <ns3:cad>78</ns3:cad>
          </ns3:TrackPointExtension>
        </extensions>
      </trkpt>
      <trkpt lat="45.2885911054909229278564453125" lon="-70.899461545050144195556640625">
        <ele>669.79998779296875</ele>
        <time>2026-08-21T15:31:39.000Z</time>
        <extensions>
          <ns3:TrackPointExtension>
            <ns3:hr>127</ns3:hr>
            <ns3:cad>78</ns3:cad>
          </ns3:TrackPointExtension>
        </extensions>
      </trkpt>
      <trkpt lat="45.2885941229760646820068359375" lon="-70.89946724474430084228515625">
        <ele>669.79998779296875</ele>
        <time>2026-08-21T15:31:40.000Z</time>
        <extensions>
          <ns3:TrackPointExtension>
            <ns3:hr>127</ns3:hr>
            <ns3:cad>78</ns3:cad>
          </ns3:TrackPointExtension>
        </extensions>
      </trkpt>
      <trkpt lat="45.2885978110134601593017578125" lon="-70.89947939850389957427978515625">
        <ele>669.5999755859375</ele>
        <time>2026-08-21T15:31:41.000Z</time>
        <extensions>
          <ns3:TrackPointExtension>
            <ns3:hr>128</ns3:hr>
            <ns3:cad>0</ns3:cad>
          </ns3:TrackPointExtension>
        </extensions>
      </trkpt>
      <trkpt lat="45.28860560618340969085693359375" lon="-70.899493061006069183349609375">
        <ele>669.5999755859375</ele>
        <time>2026-08-21T15:31:42.000Z</time>
        <extensions>
          <ns3:TrackPointExtension>
            <ns3:hr>128</ns3:hr>
            <ns3:cad>0</ns3:cad>
          </ns3:TrackPointExtension>
        </extensions>
      </trkpt>
      <trkpt lat="45.28861398808658123016357421875" lon="-70.89950370602309703826904296875">
        <ele>669.5999755859375</ele>
        <time>2026-08-21T15:31:43.000Z</time>
        <extensions>
          <ns3:TrackPointExtension>
            <ns3:hr>128</ns3:hr>
            <ns3:cad>0</ns3:cad>
          </ns3:TrackPointExtension>
        </extensions>
      </trkpt>
      <trkpt lat="45.28862245380878448486328125" lon="-70.8995170332491397857666015625">
        <ele>669.4000244140625</ele>
        <time>2026-08-21T15:31:44.000Z</time>
        <extensions>
          <ns3:TrackPointExtension>
            <ns3:hr>128</ns3:hr>
            <ns3:cad>0</ns3:cad>
          </ns3:TrackPointExtension>
        </extensions>
      </trkpt>
      <trkpt lat="45.28863242827355861663818359375" lon="-70.899533964693546295166015625">
        <ele>669.20001220703125</ele>
        <time>2026-08-21T15:31:45.000Z</time>
        <extensions>
          <ns3:TrackPointExtension>
            <ns3:hr>128</ns3:hr>
            <ns3:cad>0</ns3:cad>
          </ns3:TrackPointExtension>
        </extensions>
      </trkpt>
      <trkpt lat="45.28864349238574504852294921875" lon="-70.89954796247184276580810546875">
        <ele>669.20001220703125</ele>
        <time>2026-08-21T15:31:46.000Z</time>
        <extensions>
          <ns3:TrackPointExtension>
            <ns3:hr>128</ns3:hr>
            <ns3:cad>0</ns3:cad>
          </ns3:TrackPointExtension>
        </extensions>
      </trkpt>
      <trkpt lat="45.28865606524050235748291015625" lon="-70.899554751813411712646484375">
        <ele>669</ele>
        <time>2026-08-21T15:31:47.000Z</time>
        <extensions>
          <ns3:TrackPointExtension>
            <ns3:hr>127</ns3:hr>
            <ns3:cad>55</ns3:cad>
          </ns3:TrackPointExtension>
        </extensions>
      </trkpt>
      <trkpt lat="45.28867383487522602081298828125" lon="-70.89955550618469715118408203125">
        <ele>669</ele>
        <time>2026-08-21T15:31:48.000Z</time>
        <extensions>
          <ns3:TrackPointExtension>
            <ns3:hr>127</ns3:hr>
            <ns3:cad>55</ns3:cad>
          </ns3:TrackPointExtension>
        </extensions>
      </trkpt>
      <trkpt lat="45.28869152069091796875" lon="-70.8995505608618259429931640625">
        <ele>669</ele>
        <time>2026-08-21T15:31:49.000Z</time>
        <extensions>
          <ns3:TrackPointExtension>
            <ns3:hr>127</ns3:hr>
            <ns3:cad>55</ns3:cad>
          </ns3:TrackPointExtension>
        </extensions>
      </trkpt>
      <trkpt lat="45.288710296154022216796875" lon="-70.8995482139289379119873046875">
        <ele>668.79998779296875</ele>
        <time>2026-08-21T15:31:50.000Z</time>
        <extensions>
          <ns3:TrackPointExtension>
            <ns3:hr>127</ns3:hr>
            <ns3:cad>55</ns3:cad>
          </ns3:TrackPointExtension>
        </extensions>
      </trkpt>
      <trkpt lat="45.2887278981506824493408203125" lon="-70.89954528026282787322998046875">
        <ele>668.79998779296875</ele>
        <time>2026-08-21T15:31:51.000Z</time>
        <extensions>
          <ns3:TrackPointExtension>
            <ns3:hr>127</ns3:hr>
            <ns3:cad>56</ns3:cad>
          </ns3:TrackPointExtension>
        </extensions>
      </trkpt>
      <trkpt lat="45.2887453325092792510986328125" lon="-70.899544693529605865478515625">
        <ele>668.5999755859375</ele>
        <time>2026-08-21T15:31:52.000Z</time>
        <extensions>
          <ns3:TrackPointExtension>
            <ns3:hr>126</ns3:hr>
            <ns3:cad>56</ns3:cad>
          </ns3:TrackPointExtension>
        </extensions>
      </trkpt>
      <trkpt lat="45.28876067139208316802978515625" lon="-70.8995418436825275421142578125">
        <ele>668.5999755859375</ele>
        <time>2026-08-21T15:31:53.000Z</time>
        <extensions>
          <ns3:TrackPointExtension>
            <ns3:hr>126</ns3:hr>
            <ns3:cad>56</ns3:cad>
          </ns3:TrackPointExtension>
        </extensions>
      </trkpt>
      <trkpt lat="45.28877802193164825439453125" lon="-70.8995405025780200958251953125">
        <ele>668.5999755859375</ele>
        <time>2026-08-21T15:31:54.000Z</time>
        <extensions>
          <ns3:TrackPointExtension>
            <ns3:hr>126</ns3:hr>
            <ns3:cad>55</ns3:cad>
          </ns3:TrackPointExtension>
        </extensions>
      </trkpt>
      <trkpt lat="45.28878682292997837066650390625" lon="-70.89953974820673465728759765625">
        <ele>668.4000244140625</ele>
        <time>2026-08-21T15:31:55.000Z</time>
        <extensions>
          <ns3:TrackPointExtension>
            <ns3:hr>127</ns3:hr>
            <ns3:cad>55</ns3:cad>
          </ns3:TrackPointExtension>
        </extensions>
      </trkpt>
      <trkpt lat="45.2888009883463382720947265625" lon="-70.8995405025780200958251953125">
        <ele>668.4000244140625</ele>
        <time>2026-08-21T15:31:56.000Z</time>
        <extensions>
          <ns3:TrackPointExtension>
            <ns3:hr>127</ns3:hr>
            <ns3:cad>57</ns3:cad>
          </ns3:TrackPointExtension>
        </extensions>
      </trkpt>
      <trkpt lat="45.28881230391561985015869140625" lon="-70.8995482139289379119873046875">
        <ele>668.4000244140625</ele>
        <time>2026-08-21T15:31:57.000Z</time>
        <extensions>
          <ns3:TrackPointExtension>
            <ns3:hr>127</ns3:hr>
            <ns3:cad>57</ns3:cad>
          </ns3:TrackPointExtension>
        </extensions>
      </trkpt>
      <trkpt lat="45.28882739134132862091064453125" lon="-70.8995549194514751434326171875">
        <ele>668.20001220703125</ele>
        <time>2026-08-21T15:31:58.000Z</time>
        <extensions>
          <ns3:TrackPointExtension>
            <ns3:hr>126</ns3:hr>
            <ns3:cad>57</ns3:cad>
          </ns3:TrackPointExtension>
        </extensions>
      </trkpt>
      <trkpt lat="45.28884130530059337615966796875" lon="-70.8995576016604900360107421875">
        <ele>668.20001220703125</ele>
        <time>2026-08-21T15:31:59.000Z</time>
        <extensions>
          <ns3:TrackPointExtension>
            <ns3:hr>126</ns3:hr>
            <ns3:cad>57</ns3:cad>
          </ns3:TrackPointExtension>
        </extensions>
      </trkpt>
      <trkpt lat="45.288849435746669769287109375" lon="-70.89956036768853664398193359375">
        <ele>668</ele>
        <time>2026-08-21T15:32:00.000Z</time>
        <extensions>
          <ns3:TrackPointExtension>
            <ns3:hr>126</ns3:hr>
            <ns3:cad>57</ns3:cad>
          </ns3:TrackPointExtension>
        </extensions>
      </trkpt>
      <trkpt lat="45.28885337524116039276123046875" lon="-70.8995606191456317901611328125">
        <ele>668</ele>
        <time>2026-08-21T15:32:01.000Z</time>
        <extensions>
          <ns3:TrackPointExtension>
            <ns3:hr>126</ns3:hr>
            <ns3:cad>59</ns3:cad>
          </ns3:TrackPointExtension>
        </extensions>
      </trkpt>
      <trkpt lat="45.2888516150414943695068359375" lon="-70.899562127888202667236328125">
        <ele>668</ele>
        <time>2026-08-21T15:32:02.000Z</time>
        <extensions>
          <ns3:TrackPointExtension>
            <ns3:hr>126</ns3:hr>
            <ns3:cad>59</ns3:cad>
          </ns3:TrackPointExtension>
        </extensions>
      </trkpt>
      <trkpt lat="45.288850776851177215576171875" lon="-70.8995606191456317901611328125">
        <ele>668</ele>
        <time>2026-08-21T15:32:03.000Z</time>
        <extensions>
          <ns3:TrackPointExtension>
            <ns3:hr>125</ns3:hr>
            <ns3:cad>0</ns3:cad>
          </ns3:TrackPointExtension>
        </extensions>
      </trkpt>
      <trkpt lat="45.288850776851177215576171875" lon="-70.8995606191456317901611328125">
        <ele>668</ele>
        <time>2026-08-21T15:32:04.000Z</time>
        <extensions>
          <ns3:TrackPointExtension>
            <ns3:hr>125</ns3:hr>
            <ns3:cad>0</ns3:cad>
          </ns3:TrackPointExtension>
        </extensions>
      </trkpt>
      <trkpt lat="45.288850776851177215576171875" lon="-70.8995606191456317901611328125">
        <ele>668</ele>
        <time>2026-08-21T15:32:05.000Z</time>
        <extensions>
          <ns3:TrackPointExtension>
            <ns3:hr>125</ns3:hr>
            <ns3:cad>0</ns3:cad>
          </ns3:TrackPointExtension>
        </extensions>
      </trkpt>
      <trkpt lat="45.288850776851177215576171875" lon="-70.8995606191456317901611328125">
        <ele>668</ele>
        <time>2026-08-21T15:32:06.000Z</time>
        <extensions>
          <ns3:TrackPointExtension>
            <ns3:hr>125</ns3:hr>
            <ns3:cad>0</ns3:cad>
          </ns3:TrackPointExtension>
        </extensions>
      </trkpt>
      <trkpt lat="45.288850776851177215576171875" lon="-70.8995606191456317901611328125">
        <ele>667.79998779296875</ele>
        <time>2026-08-21T15:32:07.000Z</time>
        <extensions>
          <ns3:TrackPointExtension>
            <ns3:hr>125</ns3:hr>
            <ns3:cad>0</ns3:cad>
          </ns3:TrackPointExtension>
        </extensions>
      </trkpt>
      <trkpt lat="45.288850776851177215576171875" lon="-70.8995606191456317901611328125">
        <ele>667.79998779296875</ele>
        <time>2026-08-21T15:32:08.000Z</time>
        <extensions>
          <ns3:TrackPointExtension>
            <ns3:hr>125</ns3:hr>
            <ns3:cad>0</ns3:cad>
          </ns3:TrackPointExtension>
        </extensions>
      </trkpt>
      <trkpt lat="45.288850776851177215576171875" lon="-70.8995606191456317901611328125">
        <ele>667.79998779296875</ele>
        <time>2026-08-21T15:32:09.000Z</time>
        <extensions>
          <ns3:TrackPointExtension>
            <ns3:hr>126</ns3:hr>
            <ns3:cad>0</ns3:cad>
          </ns3:TrackPointExtension>
        </extensions>
      </trkpt>
      <trkpt lat="45.288850776851177215576171875" lon="-70.8995606191456317901611328125">
        <ele>667.79998779296875</ele>
        <time>2026-08-21T15:32:10.000Z</time>
        <extensions>
          <ns3:TrackPointExtension>
            <ns3:hr>126</ns3:hr>
            <ns3:cad>0</ns3:cad>
          </ns3:TrackPointExtension>
        </extensions>
      </trkpt>
      <trkpt lat="45.288850776851177215576171875" lon="-70.8995606191456317901611328125">
        <ele>667.79998779296875</ele>
        <time>2026-08-21T15:32:11.000Z</time>
        <extensions>
          <ns3:TrackPointExtension>
            <ns3:hr>125</ns3:hr>
            <ns3:cad>0</ns3:cad>
          </ns3:TrackPointExtension>
        </extensions>
      </trkpt>
      <trkpt lat="45.288850776851177215576171875" lon="-70.8995606191456317901611328125">
        <ele>667.79998779296875</ele>
        <time>2026-08-21T15:32:12.000Z</time>
        <extensions>
          <ns3:TrackPointExtension>
            <ns3:hr>126</ns3:hr>
            <ns3:cad>0</ns3:cad>
          </ns3:TrackPointExtension>
        </extensions>
      </trkpt>
      <trkpt lat="45.288850776851177215576171875" lon="-70.8995606191456317901611328125">
        <ele>667.79998779296875</ele>
        <time>2026-08-21T15:32:13.000Z</time>
        <extensions>
          <ns3:TrackPointExtension>
            <ns3:hr>126</ns3:hr>
            <ns3:cad>0</ns3:cad>
          </ns3:TrackPointExtension>
        </extensions>
      </trkpt>
      <trkpt lat="45.288850776851177215576171875" lon="-70.8995606191456317901611328125">
        <ele>667.79998779296875</ele>
        <time>2026-08-21T15:32:14.000Z</time>
        <extensions>
          <ns3:TrackPointExtension>
            <ns3:hr>126</ns3:hr>
            <ns3:cad>0</ns3:cad>
          </ns3:TrackPointExtension>
        </extensions>
      </trkpt>
      <trkpt lat="45.288850776851177215576171875" lon="-70.8995606191456317901611328125">
        <ele>667.79998779296875</ele>
        <time>2026-08-21T15:32:15.000Z</time>
        <extensions>
          <ns3:TrackPointExtension>
            <ns3:hr>126</ns3:hr>
            <ns3:cad>0</ns3:cad>
          </ns3:TrackPointExtension>
        </extensions>
      </trkpt>
      <trkpt lat="45.288850776851177215576171875" lon="-70.8995606191456317901611328125">
        <ele>667.79998779296875</ele>
        <time>2026-08-21T15:32:16.000Z</time>
        <extensions>
          <ns3:TrackPointExtension>
            <ns3:hr>126</ns3:hr>
            <ns3:cad>0</ns3:cad>
          </ns3:TrackPointExtension>
        </extensions>
      </trkpt>
      <trkpt lat="45.288850776851177215576171875" lon="-70.8995606191456317901611328125">
        <ele>667.79998779296875</ele>
        <time>2026-08-21T15:32:17.000Z</time>
        <extensions>
          <ns3:TrackPointExtension>
            <ns3:hr>125</ns3:hr>
            <ns3:cad>0</ns3:cad>
          </ns3:TrackPointExtension>
        </extensions>
      </trkpt>
      <trkpt lat="45.288850776851177215576171875" lon="-70.8995606191456317901611328125">
        <ele>667.5999755859375</ele>
        <time>2026-08-21T15:32:18.000Z</time>
        <extensions>
          <ns3:TrackPointExtension>
            <ns3:hr>126</ns3:hr>
            <ns3:cad>0</ns3:cad>
          </ns3:TrackPointExtension>
        </extensions>
      </trkpt>
      <trkpt lat="45.288850776851177215576171875" lon="-70.8995606191456317901611328125">
        <ele>667.5999755859375</ele>
        <time>2026-08-21T15:32:19.000Z</time>
        <extensions>
          <ns3:TrackPointExtension>
            <ns3:hr>126</ns3:hr>
            <ns3:cad>0</ns3:cad>
          </ns3:TrackPointExtension>
        </extensions>
      </trkpt>
      <trkpt lat="45.288850776851177215576171875" lon="-70.8995606191456317901611328125">
        <ele>667.5999755859375</ele>
        <time>2026-08-21T15:32:20.000Z</time>
        <extensions>
          <ns3:TrackPointExtension>
            <ns3:hr>126</ns3:hr>
            <ns3:cad>0</ns3:cad>
          </ns3:TrackPointExtension>
        </extensions>
      </trkpt>
      <trkpt lat="45.28885991312563419342041015625" lon="-70.89955349452793598175048828125">
        <ele>667.5999755859375</ele>
        <time>2026-08-21T15:32:21.000Z</time>
        <extensions>
          <ns3:TrackPointExtension>
            <ns3:hr>126</ns3:hr>
            <ns3:cad>0</ns3:cad>
          </ns3:TrackPointExtension>
        </extensions>
      </trkpt>
      <trkpt lat="45.28887365944683551788330078125" lon="-70.89956422336399555206298828125">
        <ele>667.5999755859375</ele>
        <time>2026-08-21T15:32:22.000Z</time>
        <extensions>
          <ns3:TrackPointExtension>
            <ns3:hr>126</ns3:hr>
            <ns3:cad>0</ns3:cad>
          </ns3:TrackPointExtension>
        </extensions>
      </trkpt>
      <trkpt lat="45.2888854779303073883056640625" lon="-70.89956916868686676025390625">
        <ele>667.5999755859375</ele>
        <time>2026-08-21T15:32:23.000Z</time>
        <extensions>
          <ns3:TrackPointExtension>
            <ns3:hr>126</ns3:hr>
            <ns3:cad>0</ns3:cad>
          </ns3:TrackPointExtension>
        </extensions>
      </trkpt>
      <trkpt lat="45.28889696113765239715576171875" lon="-70.89957361109554767608642578125">
        <ele>667.5999755859375</ele>
        <time>2026-08-21T15:32:24.000Z</time>
        <extensions>
          <ns3:TrackPointExtension>
            <ns3:hr>125</ns3:hr>
            <ns3:cad>0</ns3:cad>
          </ns3:TrackPointExtension>
        </extensions>
      </trkpt>
      <trkpt lat="45.28890936635434627532958984375" lon="-70.89957813732326030731201171875">
        <ele>667.4000244140625</ele>
        <time>2026-08-21T15:32:25.000Z</time>
        <extensions>
          <ns3:TrackPointExtension>
            <ns3:hr>126</ns3:hr>
            <ns3:cad>0</ns3:cad>
          </ns3:TrackPointExtension>
        </extensions>
      </trkpt>
      <trkpt lat="45.2889236994087696075439453125" lon="-70.89958392083644866943359375">
        <ele>667.20001220703125</ele>
        <time>2026-08-21T15:32:26.000Z</time>
        <extensions>
          <ns3:TrackPointExtension>
            <ns3:hr>126</ns3:hr>
            <ns3:cad>0</ns3:cad>
          </ns3:TrackPointExtension>
        </extensions>
      </trkpt>
      <trkpt lat="45.2889369428157806396484375" lon="-70.899594984948635101318359375">
        <ele>667.20001220703125</ele>
        <time>2026-08-21T15:32:27.000Z</time>
        <extensions>
          <ns3:TrackPointExtension>
            <ns3:hr>127</ns3:hr>
            <ns3:cad>0</ns3:cad>
          </ns3:TrackPointExtension>
        </extensions>
      </trkpt>
      <trkpt lat="45.2889471687376499176025390625" lon="-70.8996102400124073028564453125">
        <ele>667</ele>
        <time>2026-08-21T15:32:28.000Z</time>
        <extensions>
          <ns3:TrackPointExtension>
            <ns3:hr>127</ns3:hr>
            <ns3:cad>0</ns3:cad>
          </ns3:TrackPointExtension>
        </extensions>
      </trkpt>
      <trkpt lat="45.28896133415400981903076171875" lon="-70.89962691999971866607666015625">
        <ele>666.79998779296875</ele>
        <time>2026-08-21T15:32:29.000Z</time>
        <extensions>
          <ns3:TrackPointExtension>
            <ns3:hr>127</ns3:hr>
            <ns3:cad>0</ns3:cad>
          </ns3:TrackPointExtension>
        </extensions>
      </trkpt>
      <trkpt lat="45.28897223062813282012939453125" lon="-70.89964334852993488311767578125">
        <ele>666.79998779296875</ele>
        <time>2026-08-21T15:32:30.000Z</time>
        <extensions>
          <ns3:TrackPointExtension>
            <ns3:hr>127</ns3:hr>
            <ns3:cad>58</ns3:cad>
          </ns3:TrackPointExtension>
        </extensions>
      </trkpt>
      <trkpt lat="45.288983881473541259765625" lon="-70.8996675722301006317138671875">
        <ele>666.5999755859375</ele>
        <time>2026-08-21T15:32:31.000Z</time>
        <extensions>
          <ns3:TrackPointExtension>
            <ns3:hr>127</ns3:hr>
            <ns3:cad>58</ns3:cad>
          </ns3:TrackPointExtension>
        </extensions>
      </trkpt>
      <trkpt lat="45.28898916207253932952880859375" lon="-70.89968760497868061065673828125">
        <ele>666.5999755859375</ele>
        <time>2026-08-21T15:32:32.000Z</time>
        <extensions>
          <ns3:TrackPointExtension>
            <ns3:hr>127</ns3:hr>
            <ns3:cad>70</ns3:cad>
          </ns3:TrackPointExtension>
        </extensions>
      </trkpt>
      <trkpt lat="45.28899000026285648345947265625" lon="-70.89971208013594150543212890625">
        <ele>666.4000244140625</ele>
        <time>2026-08-21T15:32:33.000Z</time>
        <extensions>
          <ns3:TrackPointExtension>
            <ns3:hr>127</ns3:hr>
            <ns3:cad>70</ns3:cad>
          </ns3:TrackPointExtension>
        </extensions>
      </trkpt>
      <trkpt lat="45.28898698277771472930908203125" lon="-70.89973856694996356964111328125">
        <ele>666.4000244140625</ele>
        <time>2026-08-21T15:32:34.000Z</time>
        <extensions>
          <ns3:TrackPointExtension>
            <ns3:hr>128</ns3:hr>
            <ns3:cad>75</ns3:cad>
          </ns3:TrackPointExtension>
        </extensions>
      </trkpt>
      <trkpt lat="45.2889810316264629364013671875" lon="-70.89976890943944454193115234375">
        <ele>666.20001220703125</ele>
        <time>2026-08-21T15:32:35.000Z</time>
        <extensions>
          <ns3:TrackPointExtension>
            <ns3:hr>128</ns3:hr>
            <ns3:cad>76</ns3:cad>
          </ns3:TrackPointExtension>
        </extensions>
      </trkpt>
      <trkpt lat="45.28898597694933414459228515625" lon="-70.89980143122375011444091796875">
        <ele>666.20001220703125</ele>
        <time>2026-08-21T15:32:36.000Z</time>
        <extensions>
          <ns3:TrackPointExtension>
            <ns3:hr>128</ns3:hr>
            <ns3:cad>76</ns3:cad>
          </ns3:TrackPointExtension>
        </extensions>
      </trkpt>
      <trkpt lat="45.28899771161377429962158203125" lon="-70.89982691220939159393310546875">
        <ele>666</ele>
        <time>2026-08-21T15:32:37.000Z</time>
        <extensions>
          <ns3:TrackPointExtension>
            <ns3:hr>128</ns3:hr>
            <ns3:cad>76</ns3:cad>
          </ns3:TrackPointExtension>
        </extensions>
      </trkpt>
      <trkpt lat="45.28902000747621059417724609375" lon="-70.89984954334795475006103515625">
        <ele>666</ele>
        <time>2026-08-21T15:32:38.000Z</time>
        <extensions>
          <ns3:TrackPointExtension>
            <ns3:hr>128</ns3:hr>
            <ns3:cad>76</ns3:cad>
          </ns3:TrackPointExtension>
        </extensions>
      </trkpt>
      <trkpt lat="45.28904146514832973480224609375" lon="-70.899864546954631805419921875">
        <ele>665.79998779296875</ele>
        <time>2026-08-21T15:32:39.000Z</time>
        <extensions>
          <ns3:TrackPointExtension>
            <ns3:hr>127</ns3:hr>
            <ns3:cad>76</ns3:cad>
          </ns3:TrackPointExtension>
        </extensions>
      </trkpt>
      <trkpt lat="45.28905873186886310577392578125" lon="-70.89987100102007389068603515625">
        <ele>665.79998779296875</ele>
        <time>2026-08-21T15:32:40.000Z</time>
        <extensions>
          <ns3:TrackPointExtension>
            <ns3:hr>128</ns3:hr>
            <ns3:cad>76</ns3:cad>
          </ns3:TrackPointExtension>
        </extensions>
      </trkpt>
      <trkpt lat="45.28907817788422107696533203125" lon="-70.899882651865482330322265625">
        <ele>665.79998779296875</ele>
        <time>2026-08-21T15:32:41.000Z</time>
        <extensions>
          <ns3:TrackPointExtension>
            <ns3:hr>128</ns3:hr>
            <ns3:cad>76</ns3:cad>
          </ns3:TrackPointExtension>
        </extensions>
      </trkpt>
      <trkpt lat="45.28909309767186641693115234375" lon="-70.89989564381539821624755859375">
        <ele>665.79998779296875</ele>
        <time>2026-08-21T15:32:42.000Z</time>
        <extensions>
          <ns3:TrackPointExtension>
            <ns3:hr>127</ns3:hr>
            <ns3:cad>0</ns3:cad>
          </ns3:TrackPointExtension>
        </extensions>
      </trkpt>
      <trkpt lat="45.289108939468860626220703125" lon="-70.89991115033626556396484375">
        <ele>665.5999755859375</ele>
        <time>2026-08-21T15:32:43.000Z</time>
        <extensions>
          <ns3:TrackPointExtension>
            <ns3:hr>127</ns3:hr>
            <ns3:cad>0</ns3:cad>
          </ns3:TrackPointExtension>
        </extensions>
      </trkpt>
      <trkpt lat="45.289126373827457427978515625" lon="-70.89992665685713291168212890625">
        <ele>665.5999755859375</ele>
        <time>2026-08-21T15:32:44.000Z</time>
        <extensions>
          <ns3:TrackPointExtension>
            <ns3:hr>127</ns3:hr>
            <ns3:cad>75</ns3:cad>
          </ns3:TrackPointExtension>
        </extensions>
      </trkpt>
      <trkpt lat="45.289141796529293060302734375" lon="-70.8999401517212390899658203125">
        <ele>665.5999755859375</ele>
        <time>2026-08-21T15:32:45.000Z</time>
        <extensions>
          <ns3:TrackPointExtension>
            <ns3:hr>127</ns3:hr>
            <ns3:cad>75</ns3:cad>
          </ns3:TrackPointExtension>
        </extensions>
      </trkpt>
      <trkpt lat="45.28915621340274810791015625" lon="-70.899959765374660491943359375">
        <ele>665.4000244140625</ele>
        <time>2026-08-21T15:32:46.000Z</time>
        <extensions>
          <ns3:TrackPointExtension>
            <ns3:hr>127</ns3:hr>
            <ns3:cad>0</ns3:cad>
          </ns3:TrackPointExtension>
        </extensions>
      </trkpt>
      <trkpt lat="45.289168618619441986083984375" lon="-70.8999740146100521087646484375">
        <ele>665.4000244140625</ele>
        <time>2026-08-21T15:32:47.000Z</time>
        <extensions>
          <ns3:TrackPointExtension>
            <ns3:hr>127</ns3:hr>
            <ns3:cad>0</ns3:cad>
          </ns3:TrackPointExtension>
        </extensions>
      </trkpt>
      <trkpt lat="45.28918462805449962615966796875" lon="-70.89998398907482624053955078125">
        <ele>665.20001220703125</ele>
        <time>2026-08-21T15:32:48.000Z</time>
        <extensions>
          <ns3:TrackPointExtension>
            <ns3:hr>126</ns3:hr>
            <ns3:cad>0</ns3:cad>
          </ns3:TrackPointExtension>
        </extensions>
      </trkpt>
      <trkpt lat="45.28919837437570095062255859375" lon="-70.8999971486628055572509765625">
        <ele>665.20001220703125</ele>
        <time>2026-08-21T15:32:49.000Z</time>
        <extensions>
          <ns3:TrackPointExtension>
            <ns3:hr>126</ns3:hr>
            <ns3:cad>71</ns3:cad>
          </ns3:TrackPointExtension>
        </extensions>
      </trkpt>
      <trkpt lat="45.2892043255269527435302734375" lon="-70.90002405457198619842529296875">
        <ele>665</ele>
        <time>2026-08-21T15:32:50.000Z</time>
        <extensions>
          <ns3:TrackPointExtension>
            <ns3:hr>125</ns3:hr>
            <ns3:cad>71</ns3:cad>
          </ns3:TrackPointExtension>
        </extensions>
      </trkpt>
      <trkpt lat="45.28921111486852169036865234375" lon="-70.90004517696797847747802734375">
        <ele>664.79998779296875</ele>
        <time>2026-08-21T15:32:51.000Z</time>
        <extensions>
          <ns3:TrackPointExtension>
            <ns3:hr>125</ns3:hr>
            <ns3:cad>71</ns3:cad>
          </ns3:TrackPointExtension>
        </extensions>
      </trkpt>
      <trkpt lat="45.2892158925533294677734375" lon="-70.9000729210674762725830078125">
        <ele>664.5999755859375</ele>
        <time>2026-08-21T15:32:52.000Z</time>
        <extensions>
          <ns3:TrackPointExtension>
            <ns3:hr>123</ns3:hr>
            <ns3:cad>71</ns3:cad>
          </ns3:TrackPointExtension>
        </extensions>
      </trkpt>
      <trkpt lat="45.28922117315232753753662109375" lon="-70.90010552667081356048583984375">
        <ele>664.4000244140625</ele>
        <time>2026-08-21T15:32:53.000Z</time>
        <extensions>
          <ns3:TrackPointExtension>
            <ns3:hr>123</ns3:hr>
            <ns3:cad>71</ns3:cad>
          </ns3:TrackPointExtension>
        </extensions>
      </trkpt>
      <trkpt lat="45.2892277948558330535888671875" lon="-70.90013251639902591705322265625">
        <ele>664.20001220703125</ele>
        <time>2026-08-21T15:32:54.000Z</time>
        <extensions>
          <ns3:TrackPointExtension>
            <ns3:hr>123</ns3:hr>
            <ns3:cad>73</ns3:cad>
          </ns3:TrackPointExtension>
        </extensions>
      </trkpt>
      <trkpt lat="45.28923944570124149322509765625" lon="-70.900161601603031158447265625">
        <ele>664</ele>
        <time>2026-08-21T15:32:55.000Z</time>
        <extensions>
          <ns3:TrackPointExtension>
            <ns3:hr>124</ns3:hr>
            <ns3:cad>73</ns3:cad>
          </ns3:TrackPointExtension>
        </extensions>
      </trkpt>
      <trkpt lat="45.289246737957000732421875" lon="-70.90018716640770435333251953125">
        <ele>663.79998779296875</ele>
        <time>2026-08-21T15:32:56.000Z</time>
        <extensions>
          <ns3:TrackPointExtension>
            <ns3:hr>124</ns3:hr>
            <ns3:cad>73</ns3:cad>
          </ns3:TrackPointExtension>
        </extensions>
      </trkpt>
      <trkpt lat="45.28924715705215930938720703125" lon="-70.9002107195556163787841796875">
        <ele>663.5999755859375</ele>
        <time>2026-08-21T15:32:57.000Z</time>
        <extensions>
          <ns3:TrackPointExtension>
            <ns3:hr>124</ns3:hr>
            <ns3:cad>74</ns3:cad>
          </ns3:TrackPointExtension>
        </extensions>
      </trkpt>
      <trkpt lat="45.2892418764531612396240234375" lon="-70.90022723190486431121826171875">
        <ele>663.5999755859375</ele>
        <time>2026-08-21T15:32:58.000Z</time>
        <extensions>
          <ns3:TrackPointExtension>
            <ns3:hr>124</ns3:hr>
            <ns3:cad>74</ns3:cad>
          </ns3:TrackPointExtension>
        </extensions>
      </trkpt>
      <trkpt lat="45.28923307545483112335205078125" lon="-70.90025137178599834442138671875">
        <ele>663.4000244140625</ele>
        <time>2026-08-21T15:32:59.000Z</time>
        <extensions>
          <ns3:TrackPointExtension>
            <ns3:hr>124</ns3:hr>
            <ns3:cad>74</ns3:cad>
          </ns3:TrackPointExtension>
        </extensions>
      </trkpt>
      <trkpt lat="45.28922888450324535369873046875" lon="-70.90027584694325923919677734375">
        <ele>663.4000244140625</ele>
        <time>2026-08-21T15:33:00.000Z</time>
        <extensions>
          <ns3:TrackPointExtension>
            <ns3:hr>125</ns3:hr>
            <ns3:cad>74</ns3:cad>
          </ns3:TrackPointExtension>
        </extensions>
      </trkpt>
      <trkpt lat="45.28922603465616703033447265625" lon="-70.90030283667147159576416015625">
        <ele>663.4000244140625</ele>
        <time>2026-08-21T15:33:01.000Z</time>
        <extensions>
          <ns3:TrackPointExtension>
            <ns3:hr>125</ns3:hr>
            <ns3:cad>73</ns3:cad>
          </ns3:TrackPointExtension>
        </extensions>
      </trkpt>
      <trkpt lat="45.28922754339873790740966796875" lon="-70.90032747946679592132568359375">
        <ele>663.20001220703125</ele>
        <time>2026-08-21T15:33:02.000Z</time>
        <extensions>
          <ns3:TrackPointExtension>
            <ns3:hr>126</ns3:hr>
            <ns3:cad>73</ns3:cad>
          </ns3:TrackPointExtension>
        </extensions>
      </trkpt>
      <trkpt lat="45.2892301417887210845947265625" lon="-70.90035061351954936981201171875">
        <ele>663</ele>
        <time>2026-08-21T15:33:03.000Z</time>
        <extensions>
          <ns3:TrackPointExtension>
            <ns3:hr>126</ns3:hr>
            <ns3:cad>73</ns3:cad>
          </ns3:TrackPointExtension>
        </extensions>
      </trkpt>
      <trkpt lat="45.28923802077770233154296875" lon="-70.90038229711353778839111328125">
        <ele>662.79998779296875</ele>
        <time>2026-08-21T15:33:04.000Z</time>
        <extensions>
          <ns3:TrackPointExtension>
            <ns3:hr>126</ns3:hr>
            <ns3:cad>73</ns3:cad>
          </ns3:TrackPointExtension>
        </extensions>
      </trkpt>
      <trkpt lat="45.28923994861543178558349609375" lon="-70.90040576644241809844970703125">
        <ele>662.5999755859375</ele>
        <time>2026-08-21T15:33:05.000Z</time>
        <extensions>
          <ns3:TrackPointExtension>
            <ns3:hr>127</ns3:hr>
            <ns3:cad>73</ns3:cad>
          </ns3:TrackPointExtension>
        </extensions>
      </trkpt>
      <trkpt lat="45.28924648649990558624267578125" lon="-70.90043426491320133209228515625">
        <ele>662.4000244140625</ele>
        <time>2026-08-21T15:33:06.000Z</time>
        <extensions>
          <ns3:TrackPointExtension>
            <ns3:hr>127</ns3:hr>
            <ns3:cad>73</ns3:cad>
          </ns3:TrackPointExtension>
        </extensions>
      </trkpt>
      <trkpt lat="45.28925470076501369476318359375" lon="-70.90045957826077938079833984375">
        <ele>662.4000244140625</ele>
        <time>2026-08-21T15:33:07.000Z</time>
        <extensions>
          <ns3:TrackPointExtension>
            <ns3:hr>127</ns3:hr>
            <ns3:cad>73</ns3:cad>
          </ns3:TrackPointExtension>
        </extensions>
      </trkpt>
      <trkpt lat="45.28926325030624866485595703125" lon="-70.90048589743673801422119140625">
        <ele>662.20001220703125</ele>
        <time>2026-08-21T15:33:08.000Z</time>
        <extensions>
          <ns3:TrackPointExtension>
            <ns3:hr>127</ns3:hr>
            <ns3:cad>73</ns3:cad>
          </ns3:TrackPointExtension>
        </extensions>
      </trkpt>
      <trkpt lat="45.28927448205649852752685546875" lon="-70.9005231969058513641357421875">
        <ele>662</ele>
        <time>2026-08-21T15:33:09.000Z</time>
        <extensions>
          <ns3:TrackPointExtension>
            <ns3:hr>128</ns3:hr>
            <ns3:cad>74</ns3:cad>
          </ns3:TrackPointExtension>
        </extensions>
      </trkpt>
      <trkpt lat="45.2892861329019069671630859375" lon="-70.90054557658731937408447265625">
        <ele>661.79998779296875</ele>
        <time>2026-08-21T15:33:10.000Z</time>
        <extensions>
          <ns3:TrackPointExtension>
            <ns3:hr>128</ns3:hr>
            <ns3:cad>74</ns3:cad>
          </ns3:TrackPointExtension>
        </extensions>
      </trkpt>
      <trkpt lat="45.2893005497753620147705078125" lon="-70.90056368149816989898681640625">
        <ele>661.5999755859375</ele>
        <time>2026-08-21T15:33:11.000Z</time>
        <extensions>
          <ns3:TrackPointExtension>
            <ns3:hr>128</ns3:hr>
            <ns3:cad>74</ns3:cad>
          </ns3:TrackPointExtension>
        </extensions>
      </trkpt>
      <trkpt lat="45.2893166430294513702392578125" lon="-70.9005863964557647705078125">
        <ele>661.4000244140625</ele>
        <time>2026-08-21T15:33:12.000Z</time>
        <extensions>
          <ns3:TrackPointExtension>
            <ns3:hr>128</ns3:hr>
            <ns3:cad>74</ns3:cad>
          </ns3:TrackPointExtension>
        </extensions>
      </trkpt>
      <trkpt lat="45.2893270365893840789794921875" lon="-70.90060492046177387237548828125">
        <ele>661.4000244140625</ele>
        <time>2026-08-21T15:33:13.000Z</time>
        <extensions>
          <ns3:TrackPointExtension>
            <ns3:hr>128</ns3:hr>
            <ns3:cad>75</ns3:cad>
          </ns3:TrackPointExtension>
        </extensions>
      </trkpt>
      <trkpt lat="45.28934019617736339569091796875" lon="-70.900626964867115020751953125">
        <ele>661.20001220703125</ele>
        <time>2026-08-21T15:33:14.000Z</time>
        <extensions>
          <ns3:TrackPointExtension>
            <ns3:hr>128</ns3:hr>
            <ns3:cad>75</ns3:cad>
          </ns3:TrackPointExtension>
        </extensions>
      </trkpt>
      <trkpt lat="45.28935092501342296600341796875" lon="-70.900651775300502777099609375">
        <ele>661.20001220703125</ele>
        <time>2026-08-21T15:33:15.000Z</time>
        <extensions>
          <ns3:TrackPointExtension>
            <ns3:hr>128</ns3:hr>
            <ns3:cad>75</ns3:cad>
          </ns3:TrackPointExtension>
        </extensions>
      </trkpt>
      <trkpt lat="45.2893649227917194366455078125" lon="-70.90068136341869831085205078125">
        <ele>661</ele>
        <time>2026-08-21T15:33:16.000Z</time>
        <extensions>
          <ns3:TrackPointExtension>
            <ns3:hr>128</ns3:hr>
            <ns3:cad>75</ns3:cad>
          </ns3:TrackPointExtension>
        </extensions>
      </trkpt>
      <trkpt lat="45.2893722988665103912353515625" lon="-70.90070516802370548248291015625">
        <ele>660.79998779296875</ele>
        <time>2026-08-21T15:33:17.000Z</time>
        <extensions>
          <ns3:TrackPointExtension>
            <ns3:hr>128</ns3:hr>
            <ns3:cad>75</ns3:cad>
          </ns3:TrackPointExtension>
        </extensions>
      </trkpt>
      <trkpt lat="45.28937757946550846099853515625" lon="-70.900730229914188385009765625">
        <ele>660.79998779296875</ele>
        <time>2026-08-21T15:33:18.000Z</time>
        <extensions>
          <ns3:TrackPointExtension>
            <ns3:hr>129</ns3:hr>
            <ns3:cad>75</ns3:cad>
          </ns3:TrackPointExtension>
        </extensions>
      </trkpt>
      <trkpt lat="45.2893833629786968231201171875" lon="-70.90075814165174961090087890625">
        <ele>660.5999755859375</ele>
        <time>2026-08-21T15:33:19.000Z</time>
        <extensions>
          <ns3:TrackPointExtension>
            <ns3:hr>129</ns3:hr>
            <ns3:cad>75</ns3:cad>
          </ns3:TrackPointExtension>
        </extensions>
      </trkpt>
      <trkpt lat="45.2893870510160923004150390625" lon="-70.90078026987612247467041015625">
        <ele>660.5999755859375</ele>
        <time>2026-08-21T15:33:20.000Z</time>
        <extensions>
          <ns3:TrackPointExtension>
            <ns3:hr>130</ns3:hr>
            <ns3:cad>75</ns3:cad>
          </ns3:TrackPointExtension>
        </extensions>
      </trkpt>
      <trkpt lat="45.28939316980540752410888671875" lon="-70.900804661214351654052734375">
        <ele>660.4000244140625</ele>
        <time>2026-08-21T15:33:21.000Z</time>
        <extensions>
          <ns3:TrackPointExtension>
            <ns3:hr>130</ns3:hr>
            <ns3:cad>75</ns3:cad>
          </ns3:TrackPointExtension>
        </extensions>
      </trkpt>
      <trkpt lat="45.2894044853746891021728515625" lon="-70.90082444250583648681640625">
        <ele>660.20001220703125</ele>
        <time>2026-08-21T15:33:22.000Z</time>
        <extensions>
          <ns3:TrackPointExtension>
            <ns3:hr>130</ns3:hr>
            <ns3:cad>75</ns3:cad>
          </ns3:TrackPointExtension>
        </extensions>
      </trkpt>
      <trkpt lat="45.28941965661942958831787109375" lon="-70.90084246359765529632568359375">
        <ele>660.20001220703125</ele>
        <time>2026-08-21T15:33:23.000Z</time>
        <extensions>
          <ns3:TrackPointExtension>
            <ns3:hr>130</ns3:hr>
            <ns3:cad>75</ns3:cad>
          </ns3:TrackPointExtension>
        </extensions>
      </trkpt>
      <trkpt lat="45.28943239711225032806396484375" lon="-70.90086207725107669830322265625">
        <ele>660</ele>
        <time>2026-08-21T15:33:24.000Z</time>
        <extensions>
          <ns3:TrackPointExtension>
            <ns3:hr>130</ns3:hr>
            <ns3:cad>75</ns3:cad>
          </ns3:TrackPointExtension>
        </extensions>
      </trkpt>
      <trkpt lat="45.28944312594830989837646484375" lon="-70.90088001452386379241943359375">
        <ele>659.79998779296875</ele>
        <time>2026-08-21T15:33:25.000Z</time>
        <extensions>
          <ns3:TrackPointExtension>
            <ns3:hr>130</ns3:hr>
            <ns3:cad>75</ns3:cad>
          </ns3:TrackPointExtension>
        </extensions>
      </trkpt>
      <trkpt lat="45.28945117257535457611083984375" lon="-70.900906585156917572021484375">
        <ele>659.5999755859375</ele>
        <time>2026-08-21T15:33:26.000Z</time>
        <extensions>
          <ns3:TrackPointExtension>
            <ns3:hr>130</ns3:hr>
            <ns3:cad>75</ns3:cad>
          </ns3:TrackPointExtension>
        </extensions>
      </trkpt>
      <trkpt lat="45.28945821337401866912841796875" lon="-70.90092712081968784332275390625">
        <ele>659.5999755859375</ele>
        <time>2026-08-21T15:33:27.000Z</time>
        <extensions>
          <ns3:TrackPointExtension>
            <ns3:hr>130</ns3:hr>
            <ns3:cad>75</ns3:cad>
          </ns3:TrackPointExtension>
        </extensions>
      </trkpt>
      <trkpt lat="45.28946894221007823944091796875" lon="-70.90094958432018756866455078125">
        <ele>659.4000244140625</ele>
        <time>2026-08-21T15:33:28.000Z</time>
        <extensions>
          <ns3:TrackPointExtension>
            <ns3:hr>130</ns3:hr>
            <ns3:cad>75</ns3:cad>
          </ns3:TrackPointExtension>
        </extensions>
      </trkpt>
      <trkpt lat="45.28947950340807437896728515625" lon="-70.90097053907811641693115234375">
        <ele>659.20001220703125</ele>
        <time>2026-08-21T15:33:29.000Z</time>
        <extensions>
          <ns3:TrackPointExtension>
            <ns3:hr>130</ns3:hr>
            <ns3:cad>75</ns3:cad>
          </ns3:TrackPointExtension>
        </extensions>
      </trkpt>
      <trkpt lat="45.28948905877768993377685546875" lon="-70.90099166147410869598388671875">
        <ele>659.20001220703125</ele>
        <time>2026-08-21T15:33:30.000Z</time>
        <extensions>
          <ns3:TrackPointExtension>
            <ns3:hr>130</ns3:hr>
            <ns3:cad>75</ns3:cad>
          </ns3:TrackPointExtension>
        </extensions>
      </trkpt>
      <trkpt lat="45.28948972932994365692138671875" lon="-70.90100549161434173583984375">
        <ele>659</ele>
        <time>2026-08-21T15:33:31.000Z</time>
        <extensions>
          <ns3:TrackPointExtension>
            <ns3:hr>130</ns3:hr>
            <ns3:cad>75</ns3:cad>
          </ns3:TrackPointExtension>
        </extensions>
      </trkpt>
      <trkpt lat="45.289491824805736541748046875" lon="-70.90102485381066799163818359375">
        <ele>658.79998779296875</ele>
        <time>2026-08-21T15:33:32.000Z</time>
        <extensions>
          <ns3:TrackPointExtension>
            <ns3:hr>130</ns3:hr>
            <ns3:cad>75</ns3:cad>
          </ns3:TrackPointExtension>
        </extensions>
      </trkpt>
      <trkpt lat="45.28950163163244724273681640625" lon="-70.901044718921184539794921875">
        <ele>658.5999755859375</ele>
        <time>2026-08-21T15:33:33.000Z</time>
        <extensions>
          <ns3:TrackPointExtension>
            <ns3:hr>130</ns3:hr>
            <ns3:cad>75</ns3:cad>
          </ns3:TrackPointExtension>
        </extensions>
      </trkpt>
      <trkpt lat="45.28951160609722137451171875" lon="-70.901066176593303680419921875">
        <ele>658.5999755859375</ele>
        <time>2026-08-21T15:33:34.000Z</time>
        <extensions>
          <ns3:TrackPointExtension>
            <ns3:hr>130</ns3:hr>
            <ns3:cad>75</ns3:cad>
          </ns3:TrackPointExtension>
        </extensions>
      </trkpt>
      <trkpt lat="45.28951688669621944427490234375" lon="-70.90108352713286876678466796875">
        <ele>658.4000244140625</ele>
        <time>2026-08-21T15:33:35.000Z</time>
        <extensions>
          <ns3:TrackPointExtension>
            <ns3:hr>130</ns3:hr>
            <ns3:cad>75</ns3:cad>
          </ns3:TrackPointExtension>
        </extensions>
      </trkpt>
      <trkpt lat="45.2895211614668369293212890625" lon="-70.90110582299530506134033203125">
        <ele>658.4000244140625</ele>
        <time>2026-08-21T15:33:36.000Z</time>
        <extensions>
          <ns3:TrackPointExtension>
            <ns3:hr>130</ns3:hr>
            <ns3:cad>75</ns3:cad>
          </ns3:TrackPointExtension>
        </extensions>
      </trkpt>
      <trkpt lat="45.2895288728177547454833984375" lon="-70.90112878940999507904052734375">
        <ele>658.20001220703125</ele>
        <time>2026-08-21T15:33:37.000Z</time>
        <extensions>
          <ns3:TrackPointExtension>
            <ns3:hr>130</ns3:hr>
            <ns3:cad>75</ns3:cad>
          </ns3:TrackPointExtension>
        </extensions>
      </trkpt>
      <trkpt lat="45.28953918255865573883056640625" lon="-70.9011471457779407501220703125">
        <ele>658.20001220703125</ele>
        <time>2026-08-21T15:33:38.000Z</time>
        <extensions>
          <ns3:TrackPointExtension>
            <ns3:hr>130</ns3:hr>
            <ns3:cad>69</ns3:cad>
          </ns3:TrackPointExtension>
        </extensions>
      </trkpt>
      <trkpt lat="45.28954639099538326263427734375" lon="-70.90116248466074466705322265625">
        <ele>658</ele>
        <time>2026-08-21T15:33:39.000Z</time>
        <extensions>
          <ns3:TrackPointExtension>
            <ns3:hr>130</ns3:hr>
            <ns3:cad>69</ns3:cad>
          </ns3:TrackPointExtension>
        </extensions>
      </trkpt>
      <trkpt lat="45.2895536832511425018310546875" lon="-70.901180170476436614990234375">
        <ele>658</ele>
        <time>2026-08-21T15:33:40.000Z</time>
        <extensions>
          <ns3:TrackPointExtension>
            <ns3:hr>130</ns3:hr>
            <ns3:cad>62</ns3:cad>
          </ns3:TrackPointExtension>
        </extensions>
      </trkpt>
      <trkpt lat="45.28956399299204349517822265625" lon="-70.9011947549879550933837890625">
        <ele>658</ele>
        <time>2026-08-21T15:33:41.000Z</time>
        <extensions>
          <ns3:TrackPointExtension>
            <ns3:hr>130</ns3:hr>
            <ns3:cad>62</ns3:cad>
          </ns3:TrackPointExtension>
        </extensions>
      </trkpt>
      <trkpt lat="45.28957664966583251953125" lon="-70.90120732784271240234375">
        <ele>657.79998779296875</ele>
        <time>2026-08-21T15:33:42.000Z</time>
        <extensions>
          <ns3:TrackPointExtension>
            <ns3:hr>131</ns3:hr>
            <ns3:cad>65</ns3:cad>
          </ns3:TrackPointExtension>
        </extensions>
      </trkpt>
      <trkpt lat="45.28958997689187526702880859375" lon="-70.9012199006974697113037109375">
        <ele>657.79998779296875</ele>
        <time>2026-08-21T15:33:43.000Z</time>
        <extensions>
          <ns3:TrackPointExtension>
            <ns3:hr>131</ns3:hr>
            <ns3:cad>65</ns3:cad>
          </ns3:TrackPointExtension>
        </extensions>
      </trkpt>
      <trkpt lat="45.2895989455282688140869140625" lon="-70.90123490430414676666259765625">
        <ele>657.5999755859375</ele>
        <time>2026-08-21T15:33:44.000Z</time>
        <extensions>
          <ns3:TrackPointExtension>
            <ns3:hr>132</ns3:hr>
            <ns3:cad>65</ns3:cad>
          </ns3:TrackPointExtension>
        </extensions>
      </trkpt>
      <trkpt lat="45.2896093390882015228271484375" lon="-70.901255942881107330322265625">
        <ele>657.5999755859375</ele>
        <time>2026-08-21T15:33:45.000Z</time>
        <extensions>
          <ns3:TrackPointExtension>
            <ns3:hr>132</ns3:hr>
            <ns3:cad>59</ns3:cad>
          </ns3:TrackPointExtension>
        </extensions>
      </trkpt>
      <trkpt lat="45.2896234206855297088623046875" lon="-70.90126927010715007781982421875">
        <ele>657.5999755859375</ele>
        <time>2026-08-21T15:33:46.000Z</time>
        <extensions>
          <ns3:TrackPointExtension>
            <ns3:hr>132</ns3:hr>
            <ns3:cad>59</ns3:cad>
          </ns3:TrackPointExtension>
        </extensions>
      </trkpt>
      <trkpt lat="45.2896351553499698638916015625" lon="-70.90128603391349315643310546875">
        <ele>657.5999755859375</ele>
        <time>2026-08-21T15:33:47.000Z</time>
        <extensions>
          <ns3:TrackPointExtension>
            <ns3:hr>133</ns3:hr>
            <ns3:cad>59</ns3:cad>
          </ns3:TrackPointExtension>
        </extensions>
      </trkpt>
      <trkpt lat="45.28964797966182231903076171875" lon="-70.9013027139008045196533203125">
        <ele>657.4000244140625</ele>
        <time>2026-08-21T15:33:48.000Z</time>
        <extensions>
          <ns3:TrackPointExtension>
            <ns3:hr>133</ns3:hr>
            <ns3:cad>59</ns3:cad>
          </ns3:TrackPointExtension>
        </extensions>
      </trkpt>
      <trkpt lat="45.289656110107898712158203125" lon="-70.90131788514554500579833984375">
        <ele>657.4000244140625</ele>
        <time>2026-08-21T15:33:49.000Z</time>
        <extensions>
          <ns3:TrackPointExtension>
            <ns3:hr>133</ns3:hr>
            <ns3:cad>59</ns3:cad>
          </ns3:TrackPointExtension>
        </extensions>
      </trkpt>
      <trkpt lat="45.289664156734943389892578125" lon="-70.90133146382868289947509765625">
        <ele>657.4000244140625</ele>
        <time>2026-08-21T15:33:50.000Z</time>
        <extensions>
          <ns3:TrackPointExtension>
            <ns3:hr>132</ns3:hr>
            <ns3:cad>59</ns3:cad>
          </ns3:TrackPointExtension>
        </extensions>
      </trkpt>
      <trkpt lat="45.28967346064746379852294921875" lon="-70.90134420432150363922119140625">
        <ele>657.20001220703125</ele>
        <time>2026-08-21T15:33:51.000Z</time>
        <extensions>
          <ns3:TrackPointExtension>
            <ns3:hr>132</ns3:hr>
            <ns3:cad>59</ns3:cad>
          </ns3:TrackPointExtension>
        </extensions>
      </trkpt>
      <trkpt lat="45.2896847762167453765869140625" lon="-70.90135811828076839447021484375">
        <ele>657.20001220703125</ele>
        <time>2026-08-21T15:33:52.000Z</time>
        <extensions>
          <ns3:TrackPointExtension>
            <ns3:hr>132</ns3:hr>
            <ns3:cad>56</ns3:cad>
          </ns3:TrackPointExtension>
        </extensions>
      </trkpt>
      <trkpt lat="45.289691984653472900390625" lon="-70.9013736248016357421875">
        <ele>657.20001220703125</ele>
        <time>2026-08-21T15:33:53.000Z</time>
        <extensions>
          <ns3:TrackPointExtension>
            <ns3:hr>132</ns3:hr>
            <ns3:cad>56</ns3:cad>
          </ns3:TrackPointExtension>
        </extensions>
      </trkpt>
      <trkpt lat="45.2896975167095661163330078125" lon="-70.90139038860797882080078125">
        <ele>657</ele>
        <time>2026-08-21T15:33:54.000Z</time>
        <extensions>
          <ns3:TrackPointExtension>
            <ns3:hr>131</ns3:hr>
            <ns3:cad>56</ns3:cad>
          </ns3:TrackPointExtension>
        </extensions>
      </trkpt>
      <trkpt lat="45.28970547951757907867431640625" lon="-70.90140690095722675323486328125">
        <ele>656.79998779296875</ele>
        <time>2026-08-21T15:33:55.000Z</time>
        <extensions>
          <ns3:TrackPointExtension>
            <ns3:hr>131</ns3:hr>
            <ns3:cad>56</ns3:cad>
          </ns3:TrackPointExtension>
        </extensions>
      </trkpt>
      <trkpt lat="45.289714448153972625732421875" lon="-70.90142232365906238555908203125">
        <ele>656.79998779296875</ele>
        <time>2026-08-21T15:33:56.000Z</time>
        <extensions>
          <ns3:TrackPointExtension>
            <ns3:hr>130</ns3:hr>
            <ns3:cad>56</ns3:cad>
          </ns3:TrackPointExtension>
        </extensions>
      </trkpt>
      <trkpt lat="45.2897174656391143798828125" lon="-70.90144193731248378753662109375">
        <ele>656.5999755859375</ele>
        <time>2026-08-21T15:33:57.000Z</time>
        <extensions>
          <ns3:TrackPointExtension>
            <ns3:hr>130</ns3:hr>
            <ns3:cad>56</ns3:cad>
          </ns3:TrackPointExtension>
        </extensions>
      </trkpt>
      <trkpt lat="45.28972375206649303436279296875" lon="-70.90145853348076343536376953125">
        <ele>656.5999755859375</ele>
        <time>2026-08-21T15:33:58.000Z</time>
        <extensions>
          <ns3:TrackPointExtension>
            <ns3:hr>130</ns3:hr>
            <ns3:cad>56</ns3:cad>
          </ns3:TrackPointExtension>
        </extensions>
      </trkpt>
      <trkpt lat="45.28972760774195194244384765625" lon="-70.90147479437291622161865234375">
        <ele>656.4000244140625</ele>
        <time>2026-08-21T15:33:59.000Z</time>
        <extensions>
          <ns3:TrackPointExtension>
            <ns3:hr>130</ns3:hr>
            <ns3:cad>57</ns3:cad>
          </ns3:TrackPointExtension>
        </extensions>
      </trkpt>
      <trkpt lat="45.28973431326448917388916015625" lon="-70.9014897979795932769775390625">
        <ele>656.4000244140625</ele>
        <time>2026-08-21T15:34:00.000Z</time>
        <extensions>
          <ns3:TrackPointExtension>
            <ns3:hr>130</ns3:hr>
            <ns3:cad>57</ns3:cad>
          </ns3:TrackPointExtension>
        </extensions>
      </trkpt>
      <trkpt lat="45.28974001295864582061767578125" lon="-70.90150664560496807098388671875">
        <ele>656.20001220703125</ele>
        <time>2026-08-21T15:34:01.000Z</time>
        <extensions>
          <ns3:TrackPointExtension>
            <ns3:hr>130</ns3:hr>
            <ns3:cad>57</ns3:cad>
          </ns3:TrackPointExtension>
        </extensions>
      </trkpt>
      <trkpt lat="45.2897481434047222137451171875" lon="-70.90152542106807231903076171875">
        <ele>656.20001220703125</ele>
        <time>2026-08-21T15:34:02.000Z</time>
        <extensions>
          <ns3:TrackPointExtension>
            <ns3:hr>129</ns3:hr>
            <ns3:cad>56</ns3:cad>
          </ns3:TrackPointExtension>
        </extensions>
      </trkpt>
      <trkpt lat="45.28975727967917919158935546875" lon="-70.90154084376990795135498046875">
        <ele>656.20001220703125</ele>
        <time>2026-08-21T15:34:03.000Z</time>
        <extensions>
          <ns3:TrackPointExtension>
            <ns3:hr>129</ns3:hr>
            <ns3:cad>56</ns3:cad>
          </ns3:TrackPointExtension>
        </extensions>
      </trkpt>
      <trkpt lat="45.28976616449654102325439453125" lon="-70.90155391953885555267333984375">
        <ele>656</ele>
        <time>2026-08-21T15:34:04.000Z</time>
        <extensions>
          <ns3:TrackPointExtension>
            <ns3:hr>129</ns3:hr>
            <ns3:cad>55</ns3:cad>
          </ns3:TrackPointExtension>
        </extensions>
      </trkpt>
      <trkpt lat="45.289772115647792816162109375" lon="-70.9015632234513759613037109375">
        <ele>656</ele>
        <time>2026-08-21T15:34:05.000Z</time>
        <extensions>
          <ns3:TrackPointExtension>
            <ns3:hr>129</ns3:hr>
            <ns3:cad>54</ns3:cad>
          </ns3:TrackPointExtension>
        </extensions>
      </trkpt>
      <trkpt lat="45.289779491722583770751953125" lon="-70.90157973580062389373779296875">
        <ele>655.79998779296875</ele>
        <time>2026-08-21T15:34:06.000Z</time>
        <extensions>
          <ns3:TrackPointExtension>
            <ns3:hr>128</ns3:hr>
            <ns3:cad>54</ns3:cad>
          </ns3:TrackPointExtension>
        </extensions>
      </trkpt>
      <trkpt lat="45.28979013673961162567138671875" lon="-70.90159599669277667999267578125">
        <ele>655.79998779296875</ele>
        <time>2026-08-21T15:34:07.000Z</time>
        <extensions>
          <ns3:TrackPointExtension>
            <ns3:hr>128</ns3:hr>
            <ns3:cad>54</ns3:cad>
          </ns3:TrackPointExtension>
        </extensions>
      </trkpt>
      <trkpt lat="45.289798937737941741943359375" lon="-70.90161259286105632781982421875">
        <ele>655.5999755859375</ele>
        <time>2026-08-21T15:34:08.000Z</time>
        <extensions>
          <ns3:TrackPointExtension>
            <ns3:hr>128</ns3:hr>
            <ns3:cad>54</ns3:cad>
          </ns3:TrackPointExtension>
        </extensions>
      </trkpt>
      <trkpt lat="45.28980824165046215057373046875" lon="-70.9016262553632259368896484375">
        <ele>655.4000244140625</ele>
        <time>2026-08-21T15:34:09.000Z</time>
        <extensions>
          <ns3:TrackPointExtension>
            <ns3:hr>128</ns3:hr>
            <ns3:cad>56</ns3:cad>
          </ns3:TrackPointExtension>
        </extensions>
      </trkpt>
      <trkpt lat="45.28981695882976055145263671875" lon="-70.90164226479828357696533203125">
        <ele>655.4000244140625</ele>
        <time>2026-08-21T15:34:10.000Z</time>
        <extensions>
          <ns3:TrackPointExtension>
            <ns3:hr>128</ns3:hr>
            <ns3:cad>56</ns3:cad>
          </ns3:TrackPointExtension>
        </extensions>
      </trkpt>
      <trkpt lat="45.28982550837099552154541015625" lon="-70.901656262576580047607421875">
        <ele>655.20001220703125</ele>
        <time>2026-08-21T15:34:11.000Z</time>
        <extensions>
          <ns3:TrackPointExtension>
            <ns3:hr>128</ns3:hr>
            <ns3:cad>57</ns3:cad>
          </ns3:TrackPointExtension>
        </extensions>
      </trkpt>
      <trkpt lat="45.289833135902881622314453125" lon="-70.90167344547808170318603515625">
        <ele>655.20001220703125</ele>
        <time>2026-08-21T15:34:12.000Z</time>
        <extensions>
          <ns3:TrackPointExtension>
            <ns3:hr>128</ns3:hr>
            <ns3:cad>58</ns3:cad>
          </ns3:TrackPointExtension>
        </extensions>
      </trkpt>
      <trkpt lat="45.2898410148918628692626953125" lon="-70.9016876108944416046142578125">
        <ele>655</ele>
        <time>2026-08-21T15:34:13.000Z</time>
        <extensions>
          <ns3:TrackPointExtension>
            <ns3:hr>128</ns3:hr>
            <ns3:cad>58</ns3:cad>
          </ns3:TrackPointExtension>
        </extensions>
      </trkpt>
      <trkpt lat="45.28984696604311466217041015625" lon="-70.90170546434819698333740234375">
        <ele>655</ele>
        <time>2026-08-21T15:34:14.000Z</time>
        <extensions>
          <ns3:TrackPointExtension>
            <ns3:hr>128</ns3:hr>
            <ns3:cad>57</ns3:cad>
          </ns3:TrackPointExtension>
        </extensions>
      </trkpt>
      <trkpt lat="45.289856605231761932373046875" lon="-70.9017211385071277618408203125">
        <ele>655</ele>
        <time>2026-08-21T15:34:15.000Z</time>
        <extensions>
          <ns3:TrackPointExtension>
            <ns3:hr>127</ns3:hr>
            <ns3:cad>57</ns3:cad>
          </ns3:TrackPointExtension>
        </extensions>
      </trkpt>
      <trkpt lat="45.289863981306552886962890625" lon="-70.901733376085758209228515625">
        <ele>655</ele>
        <time>2026-08-21T15:34:16.000Z</time>
        <extensions>
          <ns3:TrackPointExtension>
            <ns3:hr>128</ns3:hr>
            <ns3:cad>56</ns3:cad>
          </ns3:TrackPointExtension>
        </extensions>
      </trkpt>
      <trkpt lat="45.2898708544671535491943359375" lon="-70.90174754150211811065673828125">
        <ele>654.79998779296875</ele>
        <time>2026-08-21T15:34:17.000Z</time>
        <extensions>
          <ns3:TrackPointExtension>
            <ns3:hr>128</ns3:hr>
            <ns3:cad>56</ns3:cad>
          </ns3:TrackPointExtension>
        </extensions>
      </trkpt>
      <trkpt lat="45.2898762188851833343505859375" lon="-70.90176514349877834320068359375">
        <ele>654.79998779296875</ele>
        <time>2026-08-21T15:34:18.000Z</time>
        <extensions>
          <ns3:TrackPointExtension>
            <ns3:hr>128</ns3:hr>
            <ns3:cad>56</ns3:cad>
          </ns3:TrackPointExtension>
        </extensions>
      </trkpt>
      <trkpt lat="45.2898829244077205657958984375" lon="-70.90178006328642368316650390625">
        <ele>654.79998779296875</ele>
        <time>2026-08-21T15:34:19.000Z</time>
        <extensions>
          <ns3:TrackPointExtension>
            <ns3:hr>128</ns3:hr>
            <ns3:cad>57</ns3:cad>
          </ns3:TrackPointExtension>
        </extensions>
      </trkpt>
      <trkpt lat="45.28989315032958984375" lon="-70.9017965756356716156005859375">
        <ele>654.5999755859375</ele>
        <time>2026-08-21T15:34:20.000Z</time>
        <extensions>
          <ns3:TrackPointExtension>
            <ns3:hr>128</ns3:hr>
            <ns3:cad>57</ns3:cad>
          </ns3:TrackPointExtension>
        </extensions>
      </trkpt>
      <trkpt lat="45.28990161605179309844970703125" lon="-70.9018148481845855712890625">
        <ele>654.5999755859375</ele>
        <time>2026-08-21T15:34:21.000Z</time>
        <extensions>
          <ns3:TrackPointExtension>
            <ns3:hr>127</ns3:hr>
            <ns3:cad>57</ns3:cad>
          </ns3:TrackPointExtension>
        </extensions>
      </trkpt>
      <trkpt lat="45.289906896650791168212890625" lon="-70.9018331207334995269775390625">
        <ele>654.4000244140625</ele>
        <time>2026-08-21T15:34:22.000Z</time>
        <extensions>
          <ns3:TrackPointExtension>
            <ns3:hr>127</ns3:hr>
            <ns3:cad>57</ns3:cad>
          </ns3:TrackPointExtension>
        </extensions>
      </trkpt>
      <trkpt lat="45.28991502709686756134033203125" lon="-70.9018497169017791748046875">
        <ele>654.4000244140625</ele>
        <time>2026-08-21T15:34:23.000Z</time>
        <extensions>
          <ns3:TrackPointExtension>
            <ns3:hr>126</ns3:hr>
            <ns3:cad>56</ns3:cad>
          </ns3:TrackPointExtension>
        </extensions>
      </trkpt>
      <trkpt lat="45.2899265103042125701904296875" lon="-70.90186572633683681488037109375">
        <ele>654.4000244140625</ele>
        <time>2026-08-21T15:34:24.000Z</time>
        <extensions>
          <ns3:TrackPointExtension>
            <ns3:hr>125</ns3:hr>
            <ns3:cad>55</ns3:cad>
          </ns3:TrackPointExtension>
        </extensions>
      </trkpt>
      <trkpt lat="45.28993715532124042510986328125" lon="-70.90188014321029186248779296875">
        <ele>654.20001220703125</ele>
        <time>2026-08-21T15:34:25.000Z</time>
        <extensions>
          <ns3:TrackPointExtension>
            <ns3:hr>125</ns3:hr>
            <ns3:cad>55</ns3:cad>
          </ns3:TrackPointExtension>
        </extensions>
      </trkpt>
      <trkpt lat="45.28994888998568058013916015625" lon="-70.90190126560628414154052734375">
        <ele>654.20001220703125</ele>
        <time>2026-08-21T15:34:26.000Z</time>
        <extensions>
          <ns3:TrackPointExtension>
            <ns3:hr>124</ns3:hr>
            <ns3:cad>57</ns3:cad>
          </ns3:TrackPointExtension>
        </extensions>
      </trkpt>
      <trkpt lat="45.289957188069820404052734375" lon="-70.901918113231658935546875">
        <ele>654.20001220703125</ele>
        <time>2026-08-21T15:34:27.000Z</time>
        <extensions>
          <ns3:TrackPointExtension>
            <ns3:hr>123</ns3:hr>
            <ns3:cad>57</ns3:cad>
          </ns3:TrackPointExtension>
        </extensions>
      </trkpt>
      <trkpt lat="45.28996984474360942840576171875" lon="-70.901942588388919830322265625">
        <ele>654</ele>
        <time>2026-08-21T15:34:28.000Z</time>
        <extensions>
          <ns3:TrackPointExtension>
            <ns3:hr>122</ns3:hr>
            <ns3:cad>57</ns3:cad>
          </ns3:TrackPointExtension>
        </extensions>
      </trkpt>
      <trkpt lat="45.28997973538935184478759765625" lon="-70.9019650518894195556640625">
        <ele>654</ele>
        <time>2026-08-21T15:34:29.000Z</time>
        <extensions>
          <ns3:TrackPointExtension>
            <ns3:hr>121</ns3:hr>
            <ns3:cad>57</ns3:cad>
          </ns3:TrackPointExtension>
        </extensions>
      </trkpt>
      <trkpt lat="45.289994738996028900146484375" lon="-70.901991538703441619873046875">
        <ele>653.79998779296875</ele>
        <time>2026-08-21T15:34:30.000Z</time>
        <extensions>
          <ns3:TrackPointExtension>
            <ns3:hr>120</ns3:hr>
            <ns3:cad>57</ns3:cad>
          </ns3:TrackPointExtension>
        </extensions>
      </trkpt>
      <trkpt lat="45.2900032885372638702392578125" lon="-70.90202213265001773834228515625">
        <ele>653.5999755859375</ele>
        <time>2026-08-21T15:34:31.000Z</time>
        <extensions>
          <ns3:TrackPointExtension>
            <ns3:hr>121</ns3:hr>
            <ns3:cad>0</ns3:cad>
          </ns3:TrackPointExtension>
        </extensions>
      </trkpt>
      <trkpt lat="45.29001359827816486358642578125" lon="-70.90205029584467411041259765625">
        <ele>653.4000244140625</ele>
        <time>2026-08-21T15:34:32.000Z</time>
        <extensions>
          <ns3:TrackPointExtension>
            <ns3:hr>121</ns3:hr>
            <ns3:cad>0</ns3:cad>
          </ns3:TrackPointExtension>
        </extensions>
      </trkpt>
      <trkpt lat="45.29002214781939983367919921875" lon="-70.90207376517355442047119140625">
        <ele>653.20001220703125</ele>
        <time>2026-08-21T15:34:33.000Z</time>
        <extensions>
          <ns3:TrackPointExtension>
            <ns3:hr>121</ns3:hr>
            <ns3:cad>78</ns3:cad>
          </ns3:TrackPointExtension>
        </extensions>
      </trkpt>
      <trkpt lat="45.29003656469285488128662109375" lon="-70.9021016769111156463623046875">
        <ele>653.20001220703125</ele>
        <time>2026-08-21T15:34:34.000Z</time>
        <extensions>
          <ns3:TrackPointExtension>
            <ns3:hr>121</ns3:hr>
            <ns3:cad>78</ns3:cad>
          </ns3:TrackPointExtension>
        </extensions>
      </trkpt>
      <trkpt lat="45.2900492213666439056396484375" lon="-70.9021301753818988800048828125">
        <ele>653</ele>
        <time>2026-08-21T15:34:35.000Z</time>
        <extensions>
          <ns3:TrackPointExtension>
            <ns3:hr>122</ns3:hr>
            <ns3:cad>78</ns3:cad>
          </ns3:TrackPointExtension>
        </extensions>
      </trkpt>
      <trkpt lat="45.29006539843976497650146484375" lon="-70.9021630324423313140869140625">
        <ele>652.79998779296875</ele>
        <time>2026-08-21T15:34:36.000Z</time>
        <extensions>
          <ns3:TrackPointExtension>
            <ns3:hr>122</ns3:hr>
            <ns3:cad>41</ns3:cad>
          </ns3:TrackPointExtension>
        </extensions>
      </trkpt>
      <trkpt lat="45.29007931239902973175048828125" lon="-70.902192033827304840087890625">
        <ele>652.5999755859375</ele>
        <time>2026-08-21T15:34:37.000Z</time>
        <extensions>
          <ns3:TrackPointExtension>
            <ns3:hr>122</ns3:hr>
            <ns3:cad>41</ns3:cad>
          </ns3:TrackPointExtension>
        </extensions>
      </trkpt>
      <trkpt lat="45.29009188525378704071044921875" lon="-70.90221491642296314239501953125">
        <ele>652.4000244140625</ele>
        <time>2026-08-21T15:34:38.000Z</time>
        <extensions>
          <ns3:TrackPointExtension>
            <ns3:hr>121</ns3:hr>
            <ns3:cad>40</ns3:cad>
          </ns3:TrackPointExtension>
        </extensions>
      </trkpt>
      <trkpt lat="45.29010697267949581146240234375" lon="-70.9022441692650318145751953125">
        <ele>652.20001220703125</ele>
        <time>2026-08-21T15:34:39.000Z</time>
        <extensions>
          <ns3:TrackPointExtension>
            <ns3:hr>121</ns3:hr>
            <ns3:cad>40</ns3:cad>
          </ns3:TrackPointExtension>
        </extensions>
      </trkpt>
      <trkpt lat="45.29012046754360198974609375" lon="-70.9022659622132778167724609375">
        <ele>652.20001220703125</ele>
        <time>2026-08-21T15:34:40.000Z</time>
        <extensions>
          <ns3:TrackPointExtension>
            <ns3:hr>121</ns3:hr>
            <ns3:cad>41</ns3:cad>
          </ns3:TrackPointExtension>
        </extensions>
      </trkpt>
      <trkpt lat="45.2901296876370906829833984375" lon="-70.90228901244699954986572265625">
        <ele>652</ele>
        <time>2026-08-21T15:34:41.000Z</time>
        <extensions>
          <ns3:TrackPointExtension>
            <ns3:hr>122</ns3:hr>
            <ns3:cad>0</ns3:cad>
          </ns3:TrackPointExtension>
        </extensions>
      </trkpt>
      <trkpt lat="45.290137566626071929931640625" lon="-70.90231047011911869049072265625">
        <ele>652</ele>
        <time>2026-08-21T15:34:42.000Z</time>
        <extensions>
          <ns3:TrackPointExtension>
            <ns3:hr>122</ns3:hr>
            <ns3:cad>0</ns3:cad>
          </ns3:TrackPointExtension>
        </extensions>
      </trkpt>
      <trkpt lat="45.29014318250119686126708984375" lon="-70.902338214218616485595703125">
        <ele>651.79998779296875</ele>
        <time>2026-08-21T15:34:43.000Z</time>
        <extensions>
          <ns3:TrackPointExtension>
            <ns3:hr>122</ns3:hr>
            <ns3:cad>0</ns3:cad>
          </ns3:TrackPointExtension>
        </extensions>
      </trkpt>
      <trkpt lat="45.290149636566638946533203125" lon="-70.9023647010326385498046875">
        <ele>651.5999755859375</ele>
        <time>2026-08-21T15:34:44.000Z</time>
        <extensions>
          <ns3:TrackPointExtension>
            <ns3:hr>123</ns3:hr>
            <ns3:cad>0</ns3:cad>
          </ns3:TrackPointExtension>
        </extensions>
      </trkpt>
      <trkpt lat="45.290159694850444793701171875" lon="-70.90239487588405609130859375">
        <ele>651.5999755859375</ele>
        <time>2026-08-21T15:34:45.000Z</time>
        <extensions>
          <ns3:TrackPointExtension>
            <ns3:hr>123</ns3:hr>
            <ns3:cad>0</ns3:cad>
          </ns3:TrackPointExtension>
        </extensions>
      </trkpt>
      <trkpt lat="45.29016950167715549468994140625" lon="-70.90242194943130016326904296875">
        <ele>651.4000244140625</ele>
        <time>2026-08-21T15:34:46.000Z</time>
        <extensions>
          <ns3:TrackPointExtension>
            <ns3:hr>123</ns3:hr>
            <ns3:cad>0</ns3:cad>
          </ns3:TrackPointExtension>
        </extensions>
      </trkpt>
      <trkpt lat="45.290177799761295318603515625" lon="-70.902448855340480804443359375">
        <ele>651.20001220703125</ele>
        <time>2026-08-21T15:34:47.000Z</time>
        <extensions>
          <ns3:TrackPointExtension>
            <ns3:hr>123</ns3:hr>
            <ns3:cad>0</ns3:cad>
          </ns3:TrackPointExtension>
        </extensions>
      </trkpt>
      <trkpt lat="45.29018961824476718902587890625" lon="-70.90247400104999542236328125">
        <ele>651.20001220703125</ele>
        <time>2026-08-21T15:34:48.000Z</time>
        <extensions>
          <ns3:TrackPointExtension>
            <ns3:hr>124</ns3:hr>
            <ns3:cad>76</ns3:cad>
          </ns3:TrackPointExtension>
        </extensions>
      </trkpt>
      <trkpt lat="45.29020034708082675933837890625" lon="-70.90249277651309967041015625">
        <ele>651</ele>
        <time>2026-08-21T15:34:49.000Z</time>
        <extensions>
          <ns3:TrackPointExtension>
            <ns3:hr>125</ns3:hr>
            <ns3:cad>76</ns3:cad>
          </ns3:TrackPointExtension>
        </extensions>
      </trkpt>
      <trkpt lat="45.29021493159234523773193359375" lon="-70.9025184251368045806884765625">
        <ele>650.79998779296875</ele>
        <time>2026-08-21T15:34:50.000Z</time>
        <extensions>
          <ns3:TrackPointExtension>
            <ns3:hr>125</ns3:hr>
            <ns3:cad>76</ns3:cad>
          </ns3:TrackPointExtension>
        </extensions>
      </trkpt>
      <trkpt lat="45.29022985137999057769775390625" lon="-70.90254264883697032928466796875">
        <ele>650.5999755859375</ele>
        <time>2026-08-21T15:34:51.000Z</time>
        <extensions>
          <ns3:TrackPointExtension>
            <ns3:hr>126</ns3:hr>
            <ns3:cad>76</ns3:cad>
          </ns3:TrackPointExtension>
        </extensions>
      </trkpt>
      <trkpt lat="45.29024292714893817901611328125" lon="-70.90256511233747005462646484375">
        <ele>650.4000244140625</ele>
        <time>2026-08-21T15:34:52.000Z</time>
        <extensions>
          <ns3:TrackPointExtension>
            <ns3:hr>126</ns3:hr>
            <ns3:cad>76</ns3:cad>
          </ns3:TrackPointExtension>
        </extensions>
      </trkpt>
      <trkpt lat="45.290254913270473480224609375" lon="-70.90259159915149211883544921875">
        <ele>650.4000244140625</ele>
        <time>2026-08-21T15:34:53.000Z</time>
        <extensions>
          <ns3:TrackPointExtension>
            <ns3:hr>126</ns3:hr>
            <ns3:cad>76</ns3:cad>
          </ns3:TrackPointExtension>
        </extensions>
      </trkpt>
      <trkpt lat="45.2902688272297382354736328125" lon="-70.9026173315942287445068359375">
        <ele>650.20001220703125</ele>
        <time>2026-08-21T15:34:54.000Z</time>
        <extensions>
          <ns3:TrackPointExtension>
            <ns3:hr>126</ns3:hr>
            <ns3:cad>76</ns3:cad>
          </ns3:TrackPointExtension>
        </extensions>
      </trkpt>
      <trkpt lat="45.29028332792222499847412109375" lon="-70.90264071710407733917236328125">
        <ele>650</ele>
        <time>2026-08-21T15:34:55.000Z</time>
        <extensions>
          <ns3:TrackPointExtension>
            <ns3:hr>126</ns3:hr>
            <ns3:cad>77</ns3:cad>
          </ns3:TrackPointExtension>
        </extensions>
      </trkpt>
      <trkpt lat="45.2902976609766483306884765625" lon="-70.9026659466326236724853515625">
        <ele>649.79998779296875</ele>
        <time>2026-08-21T15:34:56.000Z</time>
        <extensions>
          <ns3:TrackPointExtension>
            <ns3:hr>127</ns3:hr>
            <ns3:cad>77</ns3:cad>
          </ns3:TrackPointExtension>
        </extensions>
      </trkpt>
      <trkpt lat="45.29030713252723217010498046875" lon="-70.90269067324697971343994140625">
        <ele>649.79998779296875</ele>
        <time>2026-08-21T15:34:57.000Z</time>
        <extensions>
          <ns3:TrackPointExtension>
            <ns3:hr>127</ns3:hr>
            <ns3:cad>77</ns3:cad>
          </ns3:TrackPointExtension>
        </extensions>
      </trkpt>
      <trkpt lat="45.2903167717158794403076171875" lon="-70.9027160704135894775390625">
        <ele>649.5999755859375</ele>
        <time>2026-08-21T15:34:58.000Z</time>
        <extensions>
          <ns3:TrackPointExtension>
            <ns3:hr>127</ns3:hr>
            <ns3:cad>77</ns3:cad>
          </ns3:TrackPointExtension>
        </extensions>
      </trkpt>
      <trkpt lat="45.290327332913875579833984375" lon="-70.90274012647569179534912109375">
        <ele>649.4000244140625</ele>
        <time>2026-08-21T15:34:59.000Z</time>
        <extensions>
          <ns3:TrackPointExtension>
            <ns3:hr>128</ns3:hr>
            <ns3:cad>77</ns3:cad>
          </ns3:TrackPointExtension>
        </extensions>
      </trkpt>
      <trkpt lat="45.2903385646641254425048828125" lon="-70.902769379317760467529296875">
        <ele>649.4000244140625</ele>
        <time>2026-08-21T15:35:00.000Z</time>
        <extensions>
          <ns3:TrackPointExtension>
            <ns3:hr>128</ns3:hr>
            <ns3:cad>79</ns3:cad>
          </ns3:TrackPointExtension>
        </extensions>
      </trkpt>
      <trkpt lat="45.29034803621470928192138671875" lon="-70.90279310010373592376708984375">
        <ele>649.20001220703125</ele>
        <time>2026-08-21T15:35:01.000Z</time>
        <extensions>
          <ns3:TrackPointExtension>
            <ns3:hr>128</ns3:hr>
            <ns3:cad>79</ns3:cad>
          </ns3:TrackPointExtension>
        </extensions>
      </trkpt>
      <trkpt lat="45.29035792686045169830322265625" lon="-70.90282428078353404998779296875">
        <ele>649.20001220703125</ele>
        <time>2026-08-21T15:35:02.000Z</time>
        <extensions>
          <ns3:TrackPointExtension>
            <ns3:hr>128</ns3:hr>
            <ns3:cad>77</ns3:cad>
          </ns3:TrackPointExtension>
        </extensions>
      </trkpt>
      <trkpt lat="45.290363542735576629638671875" lon="-70.90284942649304866790771484375">
        <ele>649.20001220703125</ele>
        <time>2026-08-21T15:35:03.000Z</time>
        <extensions>
          <ns3:TrackPointExtension>
            <ns3:hr>128</ns3:hr>
            <ns3:cad>77</ns3:cad>
          </ns3:TrackPointExtension>
        </extensions>
      </trkpt>
      <trkpt lat="45.290367566049098968505859375" lon="-70.90288010425865650177001953125">
        <ele>649</ele>
        <time>2026-08-21T15:35:04.000Z</time>
        <extensions>
          <ns3:TrackPointExtension>
            <ns3:hr>129</ns3:hr>
            <ns3:cad>77</ns3:cad>
          </ns3:TrackPointExtension>
        </extensions>
      </trkpt>
      <trkpt lat="45.29037200845777988433837890625" lon="-70.90290759690105915069580078125">
        <ele>649</ele>
        <time>2026-08-21T15:35:05.000Z</time>
        <extensions>
          <ns3:TrackPointExtension>
            <ns3:hr>129</ns3:hr>
            <ns3:cad>79</ns3:cad>
          </ns3:TrackPointExtension>
        </extensions>
      </trkpt>
      <trkpt lat="45.29037921689450740814208984375" lon="-70.90293710120022296905517578125">
        <ele>648.79998779296875</ele>
        <time>2026-08-21T15:35:06.000Z</time>
        <extensions>
          <ns3:TrackPointExtension>
            <ns3:hr>129</ns3:hr>
            <ns3:cad>79</ns3:cad>
          </ns3:TrackPointExtension>
        </extensions>
      </trkpt>
      <trkpt lat="45.2903875149786472320556640625" lon="-70.9029650129377841949462890625">
        <ele>648.79998779296875</ele>
        <time>2026-08-21T15:35:07.000Z</time>
        <extensions>
          <ns3:TrackPointExtension>
            <ns3:hr>129</ns3:hr>
            <ns3:cad>79</ns3:cad>
          </ns3:TrackPointExtension>
        </extensions>
      </trkpt>
      <trkpt lat="45.29039463959634304046630859375" lon="-70.902987979352474212646484375">
        <ele>648.5999755859375</ele>
        <time>2026-08-21T15:35:08.000Z</time>
        <extensions>
          <ns3:TrackPointExtension>
            <ns3:hr>130</ns3:hr>
            <ns3:cad>79</ns3:cad>
          </ns3:TrackPointExtension>
        </extensions>
      </trkpt>
      <trkpt lat="45.2903992496430873870849609375" lon="-70.9030096046626567840576171875">
        <ele>648.5999755859375</ele>
        <time>2026-08-21T15:35:09.000Z</time>
        <extensions>
          <ns3:TrackPointExtension>
            <ns3:hr>130</ns3:hr>
            <ns3:cad>79</ns3:cad>
          </ns3:TrackPointExtension>
        </extensions>
      </trkpt>
      <trkpt lat="45.2904039435088634490966796875" lon="-70.9030330739915370941162109375">
        <ele>648.4000244140625</ele>
        <time>2026-08-21T15:35:10.000Z</time>
        <extensions>
          <ns3:TrackPointExtension>
            <ns3:hr>130</ns3:hr>
            <ns3:cad>60</ns3:cad>
          </ns3:TrackPointExtension>
        </extensions>
      </trkpt>
      <trkpt lat="45.2904094755649566650390625" lon="-70.9030511789023876190185546875">
        <ele>648.20001220703125</ele>
        <time>2026-08-21T15:35:11.000Z</time>
        <extensions>
          <ns3:TrackPointExtension>
            <ns3:hr>130</ns3:hr>
            <ns3:cad>60</ns3:cad>
          </ns3:TrackPointExtension>
        </extensions>
      </trkpt>
      <trkpt lat="45.2904166840016841888427734375" lon="-70.9030709601938724517822265625">
        <ele>648.20001220703125</ele>
        <time>2026-08-21T15:35:12.000Z</time>
        <extensions>
          <ns3:TrackPointExtension>
            <ns3:hr>131</ns3:hr>
            <ns3:cad>0</ns3:cad>
          </ns3:TrackPointExtension>
        </extensions>
      </trkpt>
      <trkpt lat="45.2904210425913333892822265625" lon="-70.903085209429264068603515625">
        <ele>648.20001220703125</ele>
        <time>2026-08-21T15:35:13.000Z</time>
        <extensions>
          <ns3:TrackPointExtension>
            <ns3:hr>130</ns3:hr>
            <ns3:cad>0</ns3:cad>
          </ns3:TrackPointExtension>
        </extensions>
      </trkpt>
      <trkpt lat="45.29042330570518970489501953125" lon="-70.90310339815914630889892578125">
        <ele>648</ele>
        <time>2026-08-21T15:35:14.000Z</time>
        <extensions>
          <ns3:TrackPointExtension>
            <ns3:hr>130</ns3:hr>
            <ns3:cad>0</ns3:cad>
          </ns3:TrackPointExtension>
        </extensions>
      </trkpt>
      <trkpt lat="45.29042481444776058197021484375" lon="-70.90312200598418712615966796875">
        <ele>648</ele>
        <time>2026-08-21T15:35:15.000Z</time>
        <extensions>
          <ns3:TrackPointExtension>
            <ns3:hr>131</ns3:hr>
            <ns3:cad>56</ns3:cad>
          </ns3:TrackPointExtension>
        </extensions>
      </trkpt>
      <trkpt lat="45.290427245199680328369140625" lon="-70.90313876979053020477294921875">
        <ele>647.79998779296875</ele>
        <time>2026-08-21T15:35:16.000Z</time>
        <extensions>
          <ns3:TrackPointExtension>
            <ns3:hr>130</ns3:hr>
            <ns3:cad>56</ns3:cad>
          </ns3:TrackPointExtension>
        </extensions>
      </trkpt>
      <trkpt lat="45.290432274341583251953125" lon="-70.90315528213977813720703125">
        <ele>647.79998779296875</ele>
        <time>2026-08-21T15:35:17.000Z</time>
        <extensions>
          <ns3:TrackPointExtension>
            <ns3:hr>130</ns3:hr>
            <ns3:cad>56</ns3:cad>
          </ns3:TrackPointExtension>
        </extensions>
      </trkpt>
      <trkpt lat="45.290438644587993621826171875" lon="-70.9031735546886920928955078125">
        <ele>647.5999755859375</ele>
        <time>2026-08-21T15:35:18.000Z</time>
        <extensions>
          <ns3:TrackPointExtension>
            <ns3:hr>130</ns3:hr>
            <ns3:cad>56</ns3:cad>
          </ns3:TrackPointExtension>
        </extensions>
      </trkpt>
      <trkpt lat="45.29044677503407001495361328125" lon="-70.90319015085697174072265625">
        <ele>647.4000244140625</ele>
        <time>2026-08-21T15:35:19.000Z</time>
        <extensions>
          <ns3:TrackPointExtension>
            <ns3:hr>130</ns3:hr>
            <ns3:cad>57</ns3:cad>
          </ns3:TrackPointExtension>
        </extensions>
      </trkpt>
      <trkpt lat="45.29045281000435352325439453125" lon="-70.90320632793009281158447265625">
        <ele>647.4000244140625</ele>
        <time>2026-08-21T15:35:20.000Z</time>
        <extensions>
          <ns3:TrackPointExtension>
            <ns3:hr>129</ns3:hr>
            <ns3:cad>56</ns3:cad>
          </ns3:TrackPointExtension>
        </extensions>
      </trkpt>
      <trkpt lat="45.2904589287936687469482421875" lon="-70.9032255224883556365966796875">
        <ele>647.20001220703125</ele>
        <time>2026-08-21T15:35:21.000Z</time>
        <extensions>
          <ns3:TrackPointExtension>
            <ns3:hr>129</ns3:hr>
            <ns3:cad>56</ns3:cad>
          </ns3:TrackPointExtension>
        </extensions>
      </trkpt>
      <trkpt lat="45.29046856798231601715087890625" lon="-70.90325318276882171630859375">
        <ele>647</ele>
        <time>2026-08-21T15:35:22.000Z</time>
        <extensions>
          <ns3:TrackPointExtension>
            <ns3:hr>128</ns3:hr>
            <ns3:cad>57</ns3:cad>
          </ns3:TrackPointExtension>
        </extensions>
      </trkpt>
      <trkpt lat="45.29047527350485324859619140625" lon="-70.9032731316983699798583984375">
        <ele>646.79998779296875</ele>
        <time>2026-08-21T15:35:23.000Z</time>
        <extensions>
          <ns3:TrackPointExtension>
            <ns3:hr>128</ns3:hr>
            <ns3:cad>57</ns3:cad>
          </ns3:TrackPointExtension>
        </extensions>
      </trkpt>
      <trkpt lat="45.29048248194158077239990234375" lon="-70.90329433791339397430419921875">
        <ele>646.79998779296875</ele>
        <time>2026-08-21T15:35:24.000Z</time>
        <extensions>
          <ns3:TrackPointExtension>
            <ns3:hr>128</ns3:hr>
            <ns3:cad>57</ns3:cad>
          </ns3:TrackPointExtension>
        </extensions>
      </trkpt>
      <trkpt lat="45.2904894389212131500244140625" lon="-70.903312861919403076171875">
        <ele>646.5999755859375</ele>
        <time>2026-08-21T15:35:25.000Z</time>
        <extensions>
          <ns3:TrackPointExtension>
            <ns3:hr>127</ns3:hr>
            <ns3:cad>57</ns3:cad>
          </ns3:TrackPointExtension>
        </extensions>
      </trkpt>
      <trkpt lat="45.29049723409116268157958984375" lon="-70.9033271111547946929931640625">
        <ele>646.5999755859375</ele>
        <time>2026-08-21T15:35:26.000Z</time>
        <extensions>
          <ns3:TrackPointExtension>
            <ns3:hr>127</ns3:hr>
            <ns3:cad>56</ns3:cad>
          </ns3:TrackPointExtension>
        </extensions>
      </trkpt>
      <trkpt lat="45.29050326906144618988037109375" lon="-70.90334446169435977935791015625">
        <ele>646.5999755859375</ele>
        <time>2026-08-21T15:35:27.000Z</time>
        <extensions>
          <ns3:TrackPointExtension>
            <ns3:hr>127</ns3:hr>
            <ns3:cad>56</ns3:cad>
          </ns3:TrackPointExtension>
        </extensions>
      </trkpt>
      <trkpt lat="45.29050938785076141357421875" lon="-70.9033626504242420196533203125">
        <ele>646.4000244140625</ele>
        <time>2026-08-21T15:35:28.000Z</time>
        <extensions>
          <ns3:TrackPointExtension>
            <ns3:hr>127</ns3:hr>
            <ns3:cad>56</ns3:cad>
          </ns3:TrackPointExtension>
        </extensions>
      </trkpt>
      <trkpt lat="45.29051148332655429840087890625" lon="-70.903382264077663421630859375">
        <ele>646.4000244140625</ele>
        <time>2026-08-21T15:35:29.000Z</time>
        <extensions>
          <ns3:TrackPointExtension>
            <ns3:hr>127</ns3:hr>
            <ns3:cad>56</ns3:cad>
          </ns3:TrackPointExtension>
        </extensions>
      </trkpt>
      <trkpt lat="45.29051835648715496063232421875" lon="-70.90340129099786281585693359375">
        <ele>646.4000244140625</ele>
        <time>2026-08-21T15:35:30.000Z</time>
        <extensions>
          <ns3:TrackPointExtension>
            <ns3:hr>126</ns3:hr>
            <ns3:cad>56</ns3:cad>
          </ns3:TrackPointExtension>
        </extensions>
      </trkpt>
      <trkpt lat="45.29052321799099445343017578125" lon="-70.9034186415374279022216796875">
        <ele>646.4000244140625</ele>
        <time>2026-08-21T15:35:31.000Z</time>
        <extensions>
          <ns3:TrackPointExtension>
            <ns3:hr>126</ns3:hr>
            <ns3:cad>57</ns3:cad>
          </ns3:TrackPointExtension>
        </extensions>
      </trkpt>
      <trkpt lat="45.29053025878965854644775390625" lon="-70.90343448333442211151123046875">
        <ele>646.4000244140625</ele>
        <time>2026-08-21T15:35:32.000Z</time>
        <extensions>
          <ns3:TrackPointExtension>
            <ns3:hr>126</ns3:hr>
            <ns3:cad>57</ns3:cad>
          </ns3:TrackPointExtension>
        </extensions>
      </trkpt>
      <trkpt lat="45.290537215769290924072265625" lon="-70.90345175005495548248291015625">
        <ele>646.20001220703125</ele>
        <time>2026-08-21T15:35:33.000Z</time>
        <extensions>
          <ns3:TrackPointExtension>
            <ns3:hr>126</ns3:hr>
            <ns3:cad>57</ns3:cad>
          </ns3:TrackPointExtension>
        </extensions>
      </trkpt>
      <trkpt lat="45.29054266400635242462158203125" lon="-70.90346968732774257659912109375">
        <ele>646.20001220703125</ele>
        <time>2026-08-21T15:35:34.000Z</time>
        <extensions>
          <ns3:TrackPointExtension>
            <ns3:hr>126</ns3:hr>
            <ns3:cad>56</ns3:cad>
          </ns3:TrackPointExtension>
        </extensions>
      </trkpt>
      <trkpt lat="45.290545932948589324951171875" lon="-70.90348561294376850128173828125">
        <ele>646.20001220703125</ele>
        <time>2026-08-21T15:35:35.000Z</time>
        <extensions>
          <ns3:TrackPointExtension>
            <ns3:hr>126</ns3:hr>
            <ns3:cad>56</ns3:cad>
          </ns3:TrackPointExtension>
        </extensions>
      </trkpt>
      <trkpt lat="45.290545932948589324951171875" lon="-70.90349986217916011810302734375">
        <ele>646</ele>
        <time>2026-08-21T15:35:36.000Z</time>
        <extensions>
          <ns3:TrackPointExtension>
            <ns3:hr>126</ns3:hr>
            <ns3:cad>56</ns3:cad>
          </ns3:TrackPointExtension>
        </extensions>
      </trkpt>
      <trkpt lat="45.29054534621536731719970703125" lon="-70.9035205654799938201904296875">
        <ele>646</ele>
        <time>2026-08-21T15:35:37.000Z</time>
        <extensions>
          <ns3:TrackPointExtension>
            <ns3:hr>126</ns3:hr>
            <ns3:cad>56</ns3:cad>
          </ns3:TrackPointExtension>
        </extensions>
      </trkpt>
      <trkpt lat="45.290548615157604217529296875" lon="-70.9035395085811614990234375">
        <ele>646</ele>
        <time>2026-08-21T15:35:38.000Z</time>
        <extensions>
          <ns3:TrackPointExtension>
            <ns3:hr>126</ns3:hr>
            <ns3:cad>56</ns3:cad>
          </ns3:TrackPointExtension>
        </extensions>
      </trkpt>
      <trkpt lat="45.2905534766614437103271484375" lon="-70.90355635620653629302978515625">
        <ele>646</ele>
        <time>2026-08-21T15:35:39.000Z</time>
        <extensions>
          <ns3:TrackPointExtension>
            <ns3:hr>125</ns3:hr>
            <ns3:cad>56</ns3:cad>
          </ns3:TrackPointExtension>
        </extensions>
      </trkpt>
      <trkpt lat="45.29055691324174404144287109375" lon="-70.90357747860252857208251953125">
        <ele>646</ele>
        <time>2026-08-21T15:35:40.000Z</time>
        <extensions>
          <ns3:TrackPointExtension>
            <ns3:hr>125</ns3:hr>
            <ns3:cad>56</ns3:cad>
          </ns3:TrackPointExtension>
        </extensions>
      </trkpt>
      <trkpt lat="45.2905596792697906494140625" lon="-70.90359658934175968170166015625">
        <ele>645.79998779296875</ele>
        <time>2026-08-21T15:35:41.000Z</time>
        <extensions>
          <ns3:TrackPointExtension>
            <ns3:hr>124</ns3:hr>
            <ns3:cad>56</ns3:cad>
          </ns3:TrackPointExtension>
        </extensions>
      </trkpt>
      <trkpt lat="45.29056278057396411895751953125" lon="-70.9036241658031940460205078125">
        <ele>645.79998779296875</ele>
        <time>2026-08-21T15:35:42.000Z</time>
        <extensions>
          <ns3:TrackPointExtension>
            <ns3:hr>124</ns3:hr>
            <ns3:cad>57</ns3:cad>
          </ns3:TrackPointExtension>
        </extensions>
      </trkpt>
      <trkpt lat="45.2905675582587718963623046875" lon="-70.90364503674209117889404296875">
        <ele>645.79998779296875</ele>
        <time>2026-08-21T15:35:43.000Z</time>
        <extensions>
          <ns3:TrackPointExtension>
            <ns3:hr>123</ns3:hr>
            <ns3:cad>59</ns3:cad>
          </ns3:TrackPointExtension>
        </extensions>
      </trkpt>
      <trkpt lat="45.29057518579065799713134765625" lon="-70.9036763012409210205078125">
        <ele>645.5999755859375</ele>
        <time>2026-08-21T15:35:44.000Z</time>
        <extensions>
          <ns3:TrackPointExtension>
            <ns3:hr>121</ns3:hr>
            <ns3:cad>59</ns3:cad>
          </ns3:TrackPointExtension>
        </extensions>
      </trkpt>
      <trkpt lat="45.29058105312287807464599609375" lon="-70.90369968675076961517333984375">
        <ele>645.5999755859375</ele>
        <time>2026-08-21T15:35:45.000Z</time>
        <extensions>
          <ns3:TrackPointExtension>
            <ns3:hr>120</ns3:hr>
            <ns3:cad>59</ns3:cad>
          </ns3:TrackPointExtension>
        </extensions>
      </trkpt>
      <trkpt lat="45.2905916981399059295654296875" lon="-70.90373405255377292633056640625">
        <ele>645.5999755859375</ele>
        <time>2026-08-21T15:35:46.000Z</time>
        <extensions>
          <ns3:TrackPointExtension>
            <ns3:hr>120</ns3:hr>
            <ns3:cad>59</ns3:cad>
          </ns3:TrackPointExtension>
        </extensions>
      </trkpt>
      <trkpt lat="45.29059865511953830718994140625" lon="-70.90376037172973155975341796875">
        <ele>645.4000244140625</ele>
        <time>2026-08-21T15:35:47.000Z</time>
        <extensions>
          <ns3:TrackPointExtension>
            <ns3:hr>120</ns3:hr>
            <ns3:cad>59</ns3:cad>
          </ns3:TrackPointExtension>
        </extensions>
      </trkpt>
      <trkpt lat="45.2906071208417415618896484375" lon="-70.9037911333143711090087890625">
        <ele>645.4000244140625</ele>
        <time>2026-08-21T15:35:48.000Z</time>
        <extensions>
          <ns3:TrackPointExtension>
            <ns3:hr>121</ns3:hr>
            <ns3:cad>59</ns3:cad>
          </ns3:TrackPointExtension>
        </extensions>
      </trkpt>
      <trkpt lat="45.2906175144016742706298828125" lon="-70.90382139198482036590576171875">
        <ele>645.4000244140625</ele>
        <time>2026-08-21T15:35:49.000Z</time>
        <extensions>
          <ns3:TrackPointExtension>
            <ns3:hr>121</ns3:hr>
            <ns3:cad>79</ns3:cad>
          </ns3:TrackPointExtension>
        </extensions>
      </trkpt>
      <trkpt lat="45.29062665067613124847412109375" lon="-70.903849638998508453369140625">
        <ele>645.20001220703125</ele>
        <time>2026-08-21T15:35:50.000Z</time>
        <extensions>
          <ns3:TrackPointExtension>
            <ns3:hr>122</ns3:hr>
            <ns3:cad>79</ns3:cad>
          </ns3:TrackPointExtension>
        </extensions>
      </trkpt>
      <trkpt lat="45.290633775293827056884765625" lon="-70.90387922711670398712158203125">
        <ele>645</ele>
        <time>2026-08-21T15:35:51.000Z</time>
        <extensions>
          <ns3:TrackPointExtension>
            <ns3:hr>123</ns3:hr>
            <ns3:cad>0</ns3:cad>
          </ns3:TrackPointExtension>
        </extensions>
      </trkpt>
      <trkpt lat="45.29064492322504520416259765625" lon="-70.9039104916155338287353515625">
        <ele>645</ele>
        <time>2026-08-21T15:35:52.000Z</time>
        <extensions>
          <ns3:TrackPointExtension>
            <ns3:hr>124</ns3:hr>
            <ns3:cad>0</ns3:cad>
          </ns3:TrackPointExtension>
        </extensions>
      </trkpt>
      <trkpt lat="45.29064760543406009674072265625" lon="-70.9039403311908245086669921875">
        <ele>644.79998779296875</ele>
        <time>2026-08-21T15:35:53.000Z</time>
        <extensions>
          <ns3:TrackPointExtension>
            <ns3:hr>124</ns3:hr>
            <ns3:cad>0</ns3:cad>
          </ns3:TrackPointExtension>
        </extensions>
      </trkpt>
      <trkpt lat="45.29065682552754878997802734375" lon="-70.90397276915609836578369140625">
        <ele>644.79998779296875</ele>
        <time>2026-08-21T15:35:54.000Z</time>
        <extensions>
          <ns3:TrackPointExtension>
            <ns3:hr>123</ns3:hr>
            <ns3:cad>0</ns3:cad>
          </ns3:TrackPointExtension>
        </extensions>
      </trkpt>
      <trkpt lat="45.29066939838230609893798828125" lon="-70.90399975888431072235107421875">
        <ele>644.5999755859375</ele>
        <time>2026-08-21T15:35:55.000Z</time>
        <extensions>
          <ns3:TrackPointExtension>
            <ns3:hr>124</ns3:hr>
            <ns3:cad>0</ns3:cad>
          </ns3:TrackPointExtension>
        </extensions>
      </trkpt>
      <trkpt lat="45.2906805463135242462158203125" lon="-70.9040228091180324554443359375">
        <ele>644.4000244140625</ele>
        <time>2026-08-21T15:35:56.000Z</time>
        <extensions>
          <ns3:TrackPointExtension>
            <ns3:hr>124</ns3:hr>
            <ns3:cad>79</ns3:cad>
          </ns3:TrackPointExtension>
        </extensions>
      </trkpt>
      <trkpt lat="45.2906932868063449859619140625" lon="-70.90405021794140338897705078125">
        <ele>644.4000244140625</ele>
        <time>2026-08-21T15:35:57.000Z</time>
        <extensions>
          <ns3:TrackPointExtension>
            <ns3:hr>125</ns3:hr>
            <ns3:cad>79</ns3:cad>
          </ns3:TrackPointExtension>
        </extensions>
      </trkpt>
      <trkpt lat="45.2907040156424045562744140625" lon="-70.90407888405025005340576171875">
        <ele>644.20001220703125</ele>
        <time>2026-08-21T15:35:58.000Z</time>
        <extensions>
          <ns3:TrackPointExtension>
            <ns3:hr>125</ns3:hr>
            <ns3:cad>79</ns3:cad>
          </ns3:TrackPointExtension>
        </extensions>
      </trkpt>
      <trkpt lat="45.29071516357362270355224609375" lon="-70.90410880744457244873046875">
        <ele>644</ele>
        <time>2026-08-21T15:35:59.000Z</time>
        <extensions>
          <ns3:TrackPointExtension>
            <ns3:hr>125</ns3:hr>
            <ns3:cad>79</ns3:cad>
          </ns3:TrackPointExtension>
        </extensions>
      </trkpt>
      <trkpt lat="45.29072555713355541229248046875" lon="-70.90413789264857769012451171875">
        <ele>643.5999755859375</ele>
        <time>2026-08-21T15:36:00.000Z</time>
        <extensions>
          <ns3:TrackPointExtension>
            <ns3:hr>126</ns3:hr>
            <ns3:cad>79</ns3:cad>
          </ns3:TrackPointExtension>
        </extensions>
      </trkpt>
      <trkpt lat="45.2907368727028369903564453125" lon="-70.9041683189570903778076171875">
        <ele>643.4000244140625</ele>
        <time>2026-08-21T15:36:01.000Z</time>
        <extensions>
          <ns3:TrackPointExtension>
            <ns3:hr>126</ns3:hr>
            <ns3:cad>79</ns3:cad>
          </ns3:TrackPointExtension>
        </extensions>
      </trkpt>
      <trkpt lat="45.29074450023472309112548828125" lon="-70.90419656597077846527099609375">
        <ele>643.4000244140625</ele>
        <time>2026-08-21T15:36:02.000Z</time>
        <extensions>
          <ns3:TrackPointExtension>
            <ns3:hr>126</ns3:hr>
            <ns3:cad>79</ns3:cad>
          </ns3:TrackPointExtension>
        </extensions>
      </trkpt>
      <trkpt lat="45.290754139423370361328125" lon="-70.90423109941184520721435546875">
        <ele>643.20001220703125</ele>
        <time>2026-08-21T15:36:03.000Z</time>
        <extensions>
          <ns3:TrackPointExtension>
            <ns3:hr>126</ns3:hr>
            <ns3:cad>79</ns3:cad>
          </ns3:TrackPointExtension>
        </extensions>
      </trkpt>
      <trkpt lat="45.29076511971652507781982421875" lon="-70.90425708331167697906494140625">
        <ele>643</ele>
        <time>2026-08-21T15:36:04.000Z</time>
        <extensions>
          <ns3:TrackPointExtension>
            <ns3:hr>127</ns3:hr>
            <ns3:cad>79</ns3:cad>
          </ns3:TrackPointExtension>
        </extensions>
      </trkpt>
      <trkpt lat="45.29077626764774322509765625" lon="-70.9042823128402233123779296875">
        <ele>643</ele>
        <time>2026-08-21T15:36:05.000Z</time>
        <extensions>
          <ns3:TrackPointExtension>
            <ns3:hr>127</ns3:hr>
            <ns3:cad>77</ns3:cad>
          </ns3:TrackPointExtension>
        </extensions>
      </trkpt>
      <trkpt lat="45.29078724794089794158935546875" lon="-70.90431206859648227691650390625">
        <ele>643</ele>
        <time>2026-08-21T15:36:06.000Z</time>
        <extensions>
          <ns3:TrackPointExtension>
            <ns3:hr>127</ns3:hr>
            <ns3:cad>79</ns3:cad>
          </ns3:TrackPointExtension>
        </extensions>
      </trkpt>
      <trkpt lat="45.29079395346343517303466796875" lon="-70.9043403156101703643798828125">
        <ele>642.79998779296875</ele>
        <time>2026-08-21T15:36:07.000Z</time>
        <extensions>
          <ns3:TrackPointExtension>
            <ns3:hr>127</ns3:hr>
            <ns3:cad>79</ns3:cad>
          </ns3:TrackPointExtension>
        </extensions>
      </trkpt>
      <trkpt lat="45.29080040752887725830078125" lon="-70.9043668024241924285888671875">
        <ele>642.79998779296875</ele>
        <time>2026-08-21T15:36:08.000Z</time>
        <extensions>
          <ns3:TrackPointExtension>
            <ns3:hr>127</ns3:hr>
            <ns3:cad>79</ns3:cad>
          </ns3:TrackPointExtension>
        </extensions>
      </trkpt>
      <trkpt lat="45.29080350883305072784423828125" lon="-70.90440125204622745513916015625">
        <ele>642.5999755859375</ele>
        <time>2026-08-21T15:36:09.000Z</time>
        <extensions>
          <ns3:TrackPointExtension>
            <ns3:hr>128</ns3:hr>
            <ns3:cad>79</ns3:cad>
          </ns3:TrackPointExtension>
        </extensions>
      </trkpt>
      <trkpt lat="45.2908064424991607666015625" lon="-70.904433690011501312255859375">
        <ele>642.5999755859375</ele>
        <time>2026-08-21T15:36:10.000Z</time>
        <extensions>
          <ns3:TrackPointExtension>
            <ns3:hr>127</ns3:hr>
            <ns3:cad>40</ns3:cad>
          </ns3:TrackPointExtension>
        </extensions>
      </trkpt>
      <trkpt lat="45.2908076159656047821044921875" lon="-70.90445858426392078399658203125">
        <ele>642.4000244140625</ele>
        <time>2026-08-21T15:36:11.000Z</time>
        <extensions>
          <ns3:TrackPointExtension>
            <ns3:hr>128</ns3:hr>
            <ns3:cad>40</ns3:cad>
          </ns3:TrackPointExtension>
        </extensions>
      </trkpt>
      <trkpt lat="45.29080904088914394378662109375" lon="-70.90448993258178234100341796875">
        <ele>642.4000244140625</ele>
        <time>2026-08-21T15:36:12.000Z</time>
        <extensions>
          <ns3:TrackPointExtension>
            <ns3:hr>128</ns3:hr>
            <ns3:cad>40</ns3:cad>
          </ns3:TrackPointExtension>
        </extensions>
      </trkpt>
      <trkpt lat="45.29080971144139766693115234375" lon="-70.90452320873737335205078125">
        <ele>642.20001220703125</ele>
        <time>2026-08-21T15:36:13.000Z</time>
        <extensions>
          <ns3:TrackPointExtension>
            <ns3:hr>129</ns3:hr>
            <ns3:cad>40</ns3:cad>
          </ns3:TrackPointExtension>
        </extensions>
      </trkpt>
      <trkpt lat="45.29081038199365139007568359375" lon="-70.9045545570552349090576171875">
        <ele>642.20001220703125</ele>
        <time>2026-08-21T15:36:14.000Z</time>
        <extensions>
          <ns3:TrackPointExtension>
            <ns3:hr>129</ns3:hr>
            <ns3:cad>40</ns3:cad>
          </ns3:TrackPointExtension>
        </extensions>
      </trkpt>
      <trkpt lat="45.29080853797495365142822265625" lon="-70.90458380989730358123779296875">
        <ele>642</ele>
        <time>2026-08-21T15:36:15.000Z</time>
        <extensions>
          <ns3:TrackPointExtension>
            <ns3:hr>129</ns3:hr>
            <ns3:cad>40</ns3:cad>
          </ns3:TrackPointExtension>
        </extensions>
      </trkpt>
      <trkpt lat="45.29080753214657306671142578125" lon="-70.9046159125864505767822265625">
        <ele>641.79998779296875</ele>
        <time>2026-08-21T15:36:16.000Z</time>
        <extensions>
          <ns3:TrackPointExtension>
            <ns3:hr>129</ns3:hr>
            <ns3:cad>40</ns3:cad>
          </ns3:TrackPointExtension>
        </extensions>
      </trkpt>
      <trkpt lat="45.29081381857395172119140625" lon="-70.904646255075931549072265625">
        <ele>641.5999755859375</ele>
        <time>2026-08-21T15:36:17.000Z</time>
        <extensions>
          <ns3:TrackPointExtension>
            <ns3:hr>129</ns3:hr>
            <ns3:cad>40</ns3:cad>
          </ns3:TrackPointExtension>
        </extensions>
      </trkpt>
      <trkpt lat="45.2908227033913135528564453125" lon="-70.90467735193669795989990234375">
        <ele>641.5999755859375</ele>
        <time>2026-08-21T15:36:18.000Z</time>
        <extensions>
          <ns3:TrackPointExtension>
            <ns3:hr>129</ns3:hr>
            <ns3:cad>40</ns3:cad>
          </ns3:TrackPointExtension>
        </extensions>
      </trkpt>
      <trkpt lat="45.29083133675158023834228515625" lon="-70.90470752678811550140380859375">
        <ele>641.4000244140625</ele>
        <time>2026-08-21T15:36:19.000Z</time>
        <extensions>
          <ns3:TrackPointExtension>
            <ns3:hr>130</ns3:hr>
            <ns3:cad>40</ns3:cad>
          </ns3:TrackPointExtension>
        </extensions>
      </trkpt>
      <trkpt lat="45.29083921574056148529052734375" lon="-70.90473954565823078155517578125">
        <ele>641.20001220703125</ele>
        <time>2026-08-21T15:36:20.000Z</time>
        <extensions>
          <ns3:TrackPointExtension>
            <ns3:hr>130</ns3:hr>
            <ns3:cad>80</ns3:cad>
          </ns3:TrackPointExtension>
        </extensions>
      </trkpt>
      <trkpt lat="45.2908481843769550323486328125" lon="-70.9047706425189971923828125">
        <ele>641.20001220703125</ele>
        <time>2026-08-21T15:36:21.000Z</time>
        <extensions>
          <ns3:TrackPointExtension>
            <ns3:hr>130</ns3:hr>
            <ns3:cad>80</ns3:cad>
          </ns3:TrackPointExtension>
        </extensions>
      </trkpt>
      <trkpt lat="45.29085271060466766357421875" lon="-70.90480794198811054229736328125">
        <ele>641.20001220703125</ele>
        <time>2026-08-21T15:36:22.000Z</time>
        <extensions>
          <ns3:TrackPointExtension>
            <ns3:hr>130</ns3:hr>
            <ns3:cad>80</ns3:cad>
          </ns3:TrackPointExtension>
        </extensions>
      </trkpt>
      <trkpt lat="45.29085933230817317962646484375" lon="-70.9048402123153209686279296875">
        <ele>641</ele>
        <time>2026-08-21T15:36:23.000Z</time>
        <extensions>
          <ns3:TrackPointExtension>
            <ns3:hr>131</ns3:hr>
            <ns3:cad>80</ns3:cad>
          </ns3:TrackPointExtension>
        </extensions>
      </trkpt>
      <trkpt lat="45.2908686362206935882568359375" lon="-70.90487181209027767181396484375">
        <ele>641</ele>
        <time>2026-08-21T15:36:24.000Z</time>
        <extensions>
          <ns3:TrackPointExtension>
            <ns3:hr>131</ns3:hr>
            <ns3:cad>80</ns3:cad>
          </ns3:TrackPointExtension>
        </extensions>
      </trkpt>
      <trkpt lat="45.29087810777127742767333984375" lon="-70.90490399859845638275146484375">
        <ele>640.79998779296875</ele>
        <time>2026-08-21T15:36:25.000Z</time>
        <extensions>
          <ns3:TrackPointExtension>
            <ns3:hr>131</ns3:hr>
            <ns3:cad>82</ns3:cad>
          </ns3:TrackPointExtension>
        </extensions>
      </trkpt>
      <trkpt lat="45.29088598676025867462158203125" lon="-70.90493031777441501617431640625">
        <ele>640.79998779296875</ele>
        <time>2026-08-21T15:36:26.000Z</time>
        <extensions>
          <ns3:TrackPointExtension>
            <ns3:hr>132</ns3:hr>
            <ns3:cad>82</ns3:cad>
          </ns3:TrackPointExtension>
        </extensions>
      </trkpt>
      <trkpt lat="45.29089587740600109100341796875" lon="-70.90496300719678401947021484375">
        <ele>640.79998779296875</ele>
        <time>2026-08-21T15:36:27.000Z</time>
        <extensions>
          <ns3:TrackPointExtension>
            <ns3:hr>132</ns3:hr>
            <ns3:cad>79</ns3:cad>
          </ns3:TrackPointExtension>
        </extensions>
      </trkpt>
      <trkpt lat="45.2909018285572528839111328125" lon="-70.90499586425721645355224609375">
        <ele>640.79998779296875</ele>
        <time>2026-08-21T15:36:28.000Z</time>
        <extensions>
          <ns3:TrackPointExtension>
            <ns3:hr>132</ns3:hr>
            <ns3:cad>79</ns3:cad>
          </ns3:TrackPointExtension>
        </extensions>
      </trkpt>
      <trkpt lat="45.29090761207044124603271484375" lon="-70.9050269611179828643798828125">
        <ele>640.79998779296875</ele>
        <time>2026-08-21T15:36:29.000Z</time>
        <extensions>
          <ns3:TrackPointExtension>
            <ns3:hr>132</ns3:hr>
            <ns3:cad>79</ns3:cad>
          </ns3:TrackPointExtension>
        </extensions>
      </trkpt>
      <trkpt lat="45.29091364704072475433349609375" lon="-70.90505889616906642913818359375">
        <ele>640.79998779296875</ele>
        <time>2026-08-21T15:36:30.000Z</time>
        <extensions>
          <ns3:TrackPointExtension>
            <ns3:hr>133</ns3:hr>
            <ns3:cad>81</ns3:cad>
          </ns3:TrackPointExtension>
        </extensions>
      </trkpt>
      <trkpt lat="45.29092119075357913970947265625" lon="-70.90508990921080112457275390625">
        <ele>640.79998779296875</ele>
        <time>2026-08-21T15:36:31.000Z</time>
        <extensions>
          <ns3:TrackPointExtension>
            <ns3:hr>133</ns3:hr>
            <ns3:cad>81</ns3:cad>
          </ns3:TrackPointExtension>
        </extensions>
      </trkpt>
      <trkpt lat="45.2909263037145137786865234375" lon="-70.90511195361614227294921875">
        <ele>640.5999755859375</ele>
        <time>2026-08-21T15:36:32.000Z</time>
        <extensions>
          <ns3:TrackPointExtension>
            <ns3:hr>133</ns3:hr>
            <ns3:cad>81</ns3:cad>
          </ns3:TrackPointExtension>
        </extensions>
      </trkpt>
      <trkpt lat="45.290932841598987579345703125" lon="-70.90513902716338634490966796875">
        <ele>640.4000244140625</ele>
        <time>2026-08-21T15:36:33.000Z</time>
        <extensions>
          <ns3:TrackPointExtension>
            <ns3:hr>133</ns3:hr>
            <ns3:cad>81</ns3:cad>
          </ns3:TrackPointExtension>
        </extensions>
      </trkpt>
      <trkpt lat="45.2909378707408905029296875" lon="-70.90516953729093074798583984375">
        <ele>640.20001220703125</ele>
        <time>2026-08-21T15:36:34.000Z</time>
        <extensions>
          <ns3:TrackPointExtension>
            <ns3:hr>133</ns3:hr>
            <ns3:cad>81</ns3:cad>
          </ns3:TrackPointExtension>
        </extensions>
      </trkpt>
      <trkpt lat="45.29094348661601543426513671875" lon="-70.90520046651363372802734375">
        <ele>640.20001220703125</ele>
        <time>2026-08-21T15:36:35.000Z</time>
        <extensions>
          <ns3:TrackPointExtension>
            <ns3:hr>133</ns3:hr>
            <ns3:cad>81</ns3:cad>
          </ns3:TrackPointExtension>
        </extensions>
      </trkpt>
      <trkpt lat="45.29094901867210865020751953125" lon="-70.90523022226989269256591796875">
        <ele>640</ele>
        <time>2026-08-21T15:36:36.000Z</time>
        <extensions>
          <ns3:TrackPointExtension>
            <ns3:hr>133</ns3:hr>
            <ns3:cad>81</ns3:cad>
          </ns3:TrackPointExtension>
        </extensions>
      </trkpt>
      <trkpt lat="45.29095991514623165130615234375" lon="-70.9052653424441814422607421875">
        <ele>640</ele>
        <time>2026-08-21T15:36:37.000Z</time>
        <extensions>
          <ns3:TrackPointExtension>
            <ns3:hr>133</ns3:hr>
            <ns3:cad>81</ns3:cad>
          </ns3:TrackPointExtension>
        </extensions>
      </trkpt>
      <trkpt lat="45.2909678779542446136474609375" lon="-70.90529409237205982208251953125">
        <ele>640</ele>
        <time>2026-08-21T15:36:38.000Z</time>
        <extensions>
          <ns3:TrackPointExtension>
            <ns3:hr>133</ns3:hr>
            <ns3:cad>81</ns3:cad>
          </ns3:TrackPointExtension>
        </extensions>
      </trkpt>
      <trkpt lat="45.29097332619130611419677734375" lon="-70.9053293801844120025634765625">
        <ele>640</ele>
        <time>2026-08-21T15:36:39.000Z</time>
        <extensions>
          <ns3:TrackPointExtension>
            <ns3:hr>133</ns3:hr>
            <ns3:cad>81</ns3:cad>
          </ns3:TrackPointExtension>
        </extensions>
      </trkpt>
      <trkpt lat="45.2909742482006549835205078125" lon="-70.9053602255880832672119140625">
        <ele>640</ele>
        <time>2026-08-21T15:36:40.000Z</time>
        <extensions>
          <ns3:TrackPointExtension>
            <ns3:hr>132</ns3:hr>
            <ns3:cad>81</ns3:cad>
          </ns3:TrackPointExtension>
        </extensions>
      </trkpt>
      <trkpt lat="45.2909732423722743988037109375" lon="-70.905393250286579132080078125">
        <ele>639.79998779296875</ele>
        <time>2026-08-21T15:36:41.000Z</time>
        <extensions>
          <ns3:TrackPointExtension>
            <ns3:hr>132</ns3:hr>
            <ns3:cad>81</ns3:cad>
          </ns3:TrackPointExtension>
        </extensions>
      </trkpt>
      <trkpt lat="45.29097198508679866790771484375" lon="-70.90542283840477466583251953125">
        <ele>639.79998779296875</ele>
        <time>2026-08-21T15:36:42.000Z</time>
        <extensions>
          <ns3:TrackPointExtension>
            <ns3:hr>132</ns3:hr>
            <ns3:cad>81</ns3:cad>
          </ns3:TrackPointExtension>
        </extensions>
      </trkpt>
      <trkpt lat="45.290970392525196075439453125" lon="-70.90544999577105045318603515625">
        <ele>639.79998779296875</ele>
        <time>2026-08-21T15:36:43.000Z</time>
        <extensions>
          <ns3:TrackPointExtension>
            <ns3:hr>132</ns3:hr>
            <ns3:cad>81</ns3:cad>
          </ns3:TrackPointExtension>
        </extensions>
      </trkpt>
      <trkpt lat="45.29096997343003749847412109375" lon="-70.90547916479408740997314453125">
        <ele>639.79998779296875</ele>
        <time>2026-08-21T15:36:44.000Z</time>
        <extensions>
          <ns3:TrackPointExtension>
            <ns3:hr>132</ns3:hr>
            <ns3:cad>81</ns3:cad>
          </ns3:TrackPointExtension>
        </extensions>
      </trkpt>
      <trkpt lat="45.290966369211673736572265625" lon="-70.9055003710091114044189453125">
        <ele>639.79998779296875</ele>
        <time>2026-08-21T15:36:45.000Z</time>
        <extensions>
          <ns3:TrackPointExtension>
            <ns3:hr>133</ns3:hr>
            <ns3:cad>81</ns3:cad>
          </ns3:TrackPointExtension>
        </extensions>
      </trkpt>
      <trkpt lat="45.29096259735524654388427734375" lon="-70.90552610345184803009033203125">
        <ele>639.5999755859375</ele>
        <time>2026-08-21T15:36:46.000Z</time>
        <extensions>
          <ns3:TrackPointExtension>
            <ns3:hr>134</ns3:hr>
            <ns3:cad>81</ns3:cad>
          </ns3:TrackPointExtension>
        </extensions>
      </trkpt>
      <trkpt lat="45.29096134006977081298828125" lon="-70.90554890222847461700439453125">
        <ele>639.5999755859375</ele>
        <time>2026-08-21T15:36:47.000Z</time>
        <extensions>
          <ns3:TrackPointExtension>
            <ns3:hr>135</ns3:hr>
            <ns3:cad>77</ns3:cad>
          </ns3:TrackPointExtension>
        </extensions>
      </trkpt>
      <trkpt lat="45.29096175916492938995361328125" lon="-70.905570946633815765380859375">
        <ele>639.5999755859375</ele>
        <time>2026-08-21T15:36:48.000Z</time>
        <extensions>
          <ns3:TrackPointExtension>
            <ns3:hr>136</ns3:hr>
            <ns3:cad>77</ns3:cad>
          </ns3:TrackPointExtension>
        </extensions>
      </trkpt>
      <trkpt lat="45.29095740057528018951416015625" lon="-70.90558729134500026702880859375">
        <ele>639.5999755859375</ele>
        <time>2026-08-21T15:36:49.000Z</time>
        <extensions>
          <ns3:TrackPointExtension>
            <ns3:hr>136</ns3:hr>
            <ns3:cad>77</ns3:cad>
          </ns3:TrackPointExtension>
        </extensions>
      </trkpt>
      <trkpt lat="45.29095371253788471221923828125" lon="-70.90560623444616794586181640625">
        <ele>639.5999755859375</ele>
        <time>2026-08-21T15:36:50.000Z</time>
        <extensions>
          <ns3:TrackPointExtension>
            <ns3:hr>137</ns3:hr>
            <ns3:cad>77</ns3:cad>
          </ns3:TrackPointExtension>
        </extensions>
      </trkpt>
      <trkpt lat="45.29094683937728404998779296875" lon="-70.90562534518539905548095703125">
        <ele>639.5999755859375</ele>
        <time>2026-08-21T15:36:51.000Z</time>
        <extensions>
          <ns3:TrackPointExtension>
            <ns3:hr>137</ns3:hr>
            <ns3:cad>0</ns3:cad>
          </ns3:TrackPointExtension>
        </extensions>
      </trkpt>
      <trkpt lat="45.29093711636960506439208984375" lon="-70.90564663521945476531982421875">
        <ele>639.5999755859375</ele>
        <time>2026-08-21T15:36:52.000Z</time>
        <extensions>
          <ns3:TrackPointExtension>
            <ns3:hr>137</ns3:hr>
            <ns3:cad>61</ns3:cad>
          </ns3:TrackPointExtension>
        </extensions>
      </trkpt>
      <trkpt lat="45.2909316681325435638427734375" lon="-70.9056737087666988372802734375">
        <ele>639.5999755859375</ele>
        <time>2026-08-21T15:36:53.000Z</time>
        <extensions>
          <ns3:TrackPointExtension>
            <ns3:hr>137</ns3:hr>
            <ns3:cad>61</ns3:cad>
          </ns3:TrackPointExtension>
        </extensions>
      </trkpt>
      <trkpt lat="45.2909333445131778717041015625" lon="-70.90570329688489437103271484375">
        <ele>639.5999755859375</ele>
        <time>2026-08-21T15:36:54.000Z</time>
        <extensions>
          <ns3:TrackPointExtension>
            <ns3:hr>137</ns3:hr>
            <ns3:cad>61</ns3:cad>
          </ns3:TrackPointExtension>
        </extensions>
      </trkpt>
      <trkpt lat="45.290943570435047149658203125" lon="-70.90573414228856563568115234375">
        <ele>639.4000244140625</ele>
        <time>2026-08-21T15:36:55.000Z</time>
        <extensions>
          <ns3:TrackPointExtension>
            <ns3:hr>137</ns3:hr>
            <ns3:cad>61</ns3:cad>
          </ns3:TrackPointExtension>
        </extensions>
      </trkpt>
      <trkpt lat="45.29095463454723358154296875" lon="-70.90575744397938251495361328125">
        <ele>639.4000244140625</ele>
        <time>2026-08-21T15:36:56.000Z</time>
        <extensions>
          <ns3:TrackPointExtension>
            <ns3:hr>137</ns3:hr>
            <ns3:cad>61</ns3:cad>
          </ns3:TrackPointExtension>
        </extensions>
      </trkpt>
      <trkpt lat="45.290966033935546875" lon="-70.90577236376702785491943359375">
        <ele>639.4000244140625</ele>
        <time>2026-08-21T15:36:57.000Z</time>
        <extensions>
          <ns3:TrackPointExtension>
            <ns3:hr>137</ns3:hr>
            <ns3:cad>61</ns3:cad>
          </ns3:TrackPointExtension>
        </extensions>
      </trkpt>
      <trkpt lat="45.29098070226609706878662109375" lon="-70.90578543953597545623779296875">
        <ele>639.20001220703125</ele>
        <time>2026-08-21T15:36:58.000Z</time>
        <extensions>
          <ns3:TrackPointExtension>
            <ns3:hr>137</ns3:hr>
            <ns3:cad>61</ns3:cad>
          </ns3:TrackPointExtension>
        </extensions>
      </trkpt>
      <trkpt lat="45.29100299812853336334228515625" lon="-70.905792899429798126220703125">
        <ele>639.20001220703125</ele>
        <time>2026-08-21T15:36:59.000Z</time>
        <extensions>
          <ns3:TrackPointExtension>
            <ns3:hr>138</ns3:hr>
            <ns3:cad>65</ns3:cad>
          </ns3:TrackPointExtension>
        </extensions>
      </trkpt>
      <trkpt lat="45.2910218574106693267822265625" lon="-70.9057994373142719268798828125">
        <ele>639</ele>
        <time>2026-08-21T15:37:00.000Z</time>
        <extensions>
          <ns3:TrackPointExtension>
            <ns3:hr>139</ns3:hr>
            <ns3:cad>65</ns3:cad>
          </ns3:TrackPointExtension>
        </extensions>
      </trkpt>
      <trkpt lat="45.29104180634021759033203125" lon="-70.9058153629302978515625">
        <ele>638.79998779296875</ele>
        <time>2026-08-21T15:37:01.000Z</time>
        <extensions>
          <ns3:TrackPointExtension>
            <ns3:hr>141</ns3:hr>
            <ns3:cad>65</ns3:cad>
          </ns3:TrackPointExtension>
        </extensions>
      </trkpt>
      <trkpt lat="45.2910597436130046844482421875" lon="-70.90583422221243381500244140625">
        <ele>638.5999755859375</ele>
        <time>2026-08-21T15:37:02.000Z</time>
        <extensions>
          <ns3:TrackPointExtension>
            <ns3:hr>140</ns3:hr>
            <ns3:cad>75</ns3:cad>
          </ns3:TrackPointExtension>
        </extensions>
      </trkpt>
      <trkpt lat="45.29107759706676006317138671875" lon="-70.90584226883947849273681640625">
        <ele>638.4000244140625</ele>
        <time>2026-08-21T15:37:03.000Z</time>
        <extensions>
          <ns3:TrackPointExtension>
            <ns3:hr>140</ns3:hr>
            <ns3:cad>75</ns3:cad>
          </ns3:TrackPointExtension>
        </extensions>
      </trkpt>
      <trkpt lat="45.2910946123301982879638671875" lon="-70.9058664925396442413330078125">
        <ele>638.20001220703125</ele>
        <time>2026-08-21T15:37:04.000Z</time>
        <extensions>
          <ns3:TrackPointExtension>
            <ns3:hr>140</ns3:hr>
            <ns3:cad>75</ns3:cad>
          </ns3:TrackPointExtension>
        </extensions>
      </trkpt>
      <trkpt lat="45.2911147288978099822998046875" lon="-70.90588334016501903533935546875">
        <ele>638.20001220703125</ele>
        <time>2026-08-21T15:37:05.000Z</time>
        <extensions>
          <ns3:TrackPointExtension>
            <ns3:hr>140</ns3:hr>
            <ns3:cad>75</ns3:cad>
          </ns3:TrackPointExtension>
        </extensions>
      </trkpt>
      <trkpt lat="45.291135013103485107421875" lon="-70.90589473955333232879638671875">
        <ele>638.20001220703125</ele>
        <time>2026-08-21T15:37:06.000Z</time>
        <extensions>
          <ns3:TrackPointExtension>
            <ns3:hr>140</ns3:hr>
            <ns3:cad>75</ns3:cad>
          </ns3:TrackPointExtension>
        </extensions>
      </trkpt>
      <trkpt lat="45.29115672223269939422607421875" lon="-70.9058980084955692291259765625">
        <ele>638.20001220703125</ele>
        <time>2026-08-21T15:37:07.000Z</time>
        <extensions>
          <ns3:TrackPointExtension>
            <ns3:hr>140</ns3:hr>
            <ns3:cad>75</ns3:cad>
          </ns3:TrackPointExtension>
        </extensions>
      </trkpt>
      <trkpt lat="45.29117700643837451934814453125" lon="-70.90589155443012714385986328125">
        <ele>638.20001220703125</ele>
        <time>2026-08-21T15:37:08.000Z</time>
        <extensions>
          <ns3:TrackPointExtension>
            <ns3:hr>139</ns3:hr>
            <ns3:cad>75</ns3:cad>
          </ns3:TrackPointExtension>
        </extensions>
      </trkpt>
      <trkpt lat="45.29119611717760562896728515625" lon="-70.90588568709790706634521484375">
        <ele>638.20001220703125</ele>
        <time>2026-08-21T15:37:09.000Z</time>
        <extensions>
          <ns3:TrackPointExtension>
            <ns3:hr>139</ns3:hr>
            <ns3:cad>75</ns3:cad>
          </ns3:TrackPointExtension>
        </extensions>
      </trkpt>
      <trkpt lat="45.29121371917426586151123046875" lon="-70.90588132850825786590576171875">
        <ele>638.20001220703125</ele>
        <time>2026-08-21T15:37:10.000Z</time>
        <extensions>
          <ns3:TrackPointExtension>
            <ns3:hr>139</ns3:hr>
            <ns3:cad>75</ns3:cad>
          </ns3:TrackPointExtension>
        </extensions>
      </trkpt>
      <trkpt lat="45.2912310697138309478759765625" lon="-70.90587235987186431884765625">
        <ele>638</ele>
        <time>2026-08-21T15:37:11.000Z</time>
        <extensions>
          <ns3:TrackPointExtension>
            <ns3:hr>140</ns3:hr>
            <ns3:cad>75</ns3:cad>
          </ns3:TrackPointExtension>
        </extensions>
      </trkpt>
      <trkpt lat="45.2912464924156665802001953125" lon="-70.905859954655170440673828125">
        <ele>638</ele>
        <time>2026-08-21T15:37:12.000Z</time>
        <extensions>
          <ns3:TrackPointExtension>
            <ns3:hr>139</ns3:hr>
            <ns3:cad>75</ns3:cad>
          </ns3:TrackPointExtension>
        </extensions>
      </trkpt>
      <trkpt lat="45.29126107692718505859375" lon="-70.90584687888622283935546875">
        <ele>638</ele>
        <time>2026-08-21T15:37:13.000Z</time>
        <extensions>
          <ns3:TrackPointExtension>
            <ns3:hr>139</ns3:hr>
            <ns3:cad>57</ns3:cad>
          </ns3:TrackPointExtension>
        </extensions>
      </trkpt>
      <trkpt lat="45.29127574525773525238037109375" lon="-70.90583606623113155364990234375">
        <ele>638</ele>
        <time>2026-08-21T15:37:14.000Z</time>
        <extensions>
          <ns3:TrackPointExtension>
            <ns3:hr>138</ns3:hr>
            <ns3:cad>56</ns3:cad>
          </ns3:TrackPointExtension>
        </extensions>
      </trkpt>
      <trkpt lat="45.291291587054729461669921875" lon="-70.9058239124715328216552734375">
        <ele>638</ele>
        <time>2026-08-21T15:37:15.000Z</time>
        <extensions>
          <ns3:TrackPointExtension>
            <ns3:hr>138</ns3:hr>
            <ns3:cad>56</ns3:cad>
          </ns3:TrackPointExtension>
        </extensions>
      </trkpt>
      <trkpt lat="45.29130742885172367095947265625" lon="-70.90581561438739299774169921875">
        <ele>638</ele>
        <time>2026-08-21T15:37:16.000Z</time>
        <extensions>
          <ns3:TrackPointExtension>
            <ns3:hr>136</ns3:hr>
            <ns3:cad>56</ns3:cad>
          </ns3:TrackPointExtension>
        </extensions>
      </trkpt>
      <trkpt lat="45.291321761906147003173828125" lon="-70.9058113396167755126953125">
        <ele>637.79998779296875</ele>
        <time>2026-08-21T15:37:17.000Z</time>
        <extensions>
          <ns3:TrackPointExtension>
            <ns3:hr>135</ns3:hr>
            <ns3:cad>56</ns3:cad>
          </ns3:TrackPointExtension>
        </extensions>
      </trkpt>
      <trkpt lat="45.29133592732250690460205078125" lon="-70.9058068133890628814697265625">
        <ele>637.79998779296875</ele>
        <time>2026-08-21T15:37:18.000Z</time>
        <extensions>
          <ns3:TrackPointExtension>
            <ns3:hr>135</ns3:hr>
            <ns3:cad>57</ns3:cad>
          </ns3:TrackPointExtension>
        </extensions>
      </trkpt>
      <trkpt lat="45.2913484163582324981689453125" lon="-70.90579725801944732666015625">
        <ele>637.79998779296875</ele>
        <time>2026-08-21T15:37:19.000Z</time>
        <extensions>
          <ns3:TrackPointExtension>
            <ns3:hr>134</ns3:hr>
            <ns3:cad>57</ns3:cad>
          </ns3:TrackPointExtension>
        </extensions>
      </trkpt>
      <trkpt lat="45.29136375524103641510009765625" lon="-70.90579197742044925689697265625">
        <ele>637.79998779296875</ele>
        <time>2026-08-21T15:37:20.000Z</time>
        <extensions>
          <ns3:TrackPointExtension>
            <ns3:hr>134</ns3:hr>
            <ns3:cad>57</ns3:cad>
          </ns3:TrackPointExtension>
        </extensions>
      </trkpt>
      <trkpt lat="45.29138186015188694000244140625" lon="-70.90579164214432239532470703125">
        <ele>637.79998779296875</ele>
        <time>2026-08-21T15:37:21.000Z</time>
        <extensions>
          <ns3:TrackPointExtension>
            <ns3:hr>133</ns3:hr>
            <ns3:cad>57</ns3:cad>
          </ns3:TrackPointExtension>
        </extensions>
      </trkpt>
      <trkpt lat="45.29139728285372257232666015625" lon="-70.9057856909930706024169921875">
        <ele>637.79998779296875</ele>
        <time>2026-08-21T15:37:22.000Z</time>
        <extensions>
          <ns3:TrackPointExtension>
            <ns3:hr>133</ns3:hr>
            <ns3:cad>57</ns3:cad>
          </ns3:TrackPointExtension>
        </extensions>
      </trkpt>
      <trkpt lat="45.291416309773921966552734375" lon="-70.90577638708055019378662109375">
        <ele>637.5999755859375</ele>
        <time>2026-08-21T15:37:23.000Z</time>
        <extensions>
          <ns3:TrackPointExtension>
            <ns3:hr>133</ns3:hr>
            <ns3:cad>57</ns3:cad>
          </ns3:TrackPointExtension>
        </extensions>
      </trkpt>
      <trkpt lat="45.2914313971996307373046875" lon="-70.90577018447220325469970703125">
        <ele>637.5999755859375</ele>
        <time>2026-08-21T15:37:24.000Z</time>
        <extensions>
          <ns3:TrackPointExtension>
            <ns3:hr>133</ns3:hr>
            <ns3:cad>57</ns3:cad>
          </ns3:TrackPointExtension>
        </extensions>
      </trkpt>
      <trkpt lat="45.29145025648176670074462890625" lon="-70.90575308538973331451416015625">
        <ele>637.5999755859375</ele>
        <time>2026-08-21T15:37:25.000Z</time>
        <extensions>
          <ns3:TrackPointExtension>
            <ns3:hr>133</ns3:hr>
            <ns3:cad>0</ns3:cad>
          </ns3:TrackPointExtension>
        </extensions>
      </trkpt>
      <trkpt lat="45.2914637513458728790283203125" lon="-70.90574017725884914398193359375">
        <ele>637.4000244140625</ele>
        <time>2026-08-21T15:37:26.000Z</time>
        <extensions>
          <ns3:TrackPointExtension>
            <ns3:hr>133</ns3:hr>
            <ns3:cad>0</ns3:cad>
          </ns3:TrackPointExtension>
        </extensions>
      </trkpt>
      <trkpt lat="45.291470624506473541259765625" lon="-70.9057317115366458892822265625">
        <ele>637.4000244140625</ele>
        <time>2026-08-21T15:37:27.000Z</time>
        <extensions>
          <ns3:TrackPointExtension>
            <ns3:hr>133</ns3:hr>
            <ns3:cad>0</ns3:cad>
          </ns3:TrackPointExtension>
        </extensions>
      </trkpt>
      <trkpt lat="45.29148495756089687347412109375" lon="-70.9057169593870639801025390625">
        <ele>637.20001220703125</ele>
        <time>2026-08-21T15:37:28.000Z</time>
        <extensions>
          <ns3:TrackPointExtension>
            <ns3:hr>134</ns3:hr>
            <ns3:cad>0</ns3:cad>
          </ns3:TrackPointExtension>
        </extensions>
      </trkpt>
      <trkpt lat="45.29149912297725677490234375" lon="-70.90570111759006977081298828125">
        <ele>637.20001220703125</ele>
        <time>2026-08-21T15:37:29.000Z</time>
        <extensions>
          <ns3:TrackPointExtension>
            <ns3:hr>134</ns3:hr>
            <ns3:cad>0</ns3:cad>
          </ns3:TrackPointExtension>
        </extensions>
      </trkpt>
      <trkpt lat="45.29150784015655517578125" lon="-70.9056914784014225006103515625">
        <ele>637.20001220703125</ele>
        <time>2026-08-21T15:37:30.000Z</time>
        <extensions>
          <ns3:TrackPointExtension>
            <ns3:hr>134</ns3:hr>
            <ns3:cad>0</ns3:cad>
          </ns3:TrackPointExtension>
        </extensions>
      </trkpt>
      <trkpt lat="45.29151613824069499969482421875" lon="-70.9056866168975830078125">
        <ele>637.4000244140625</ele>
        <time>2026-08-21T15:37:31.000Z</time>
        <extensions>
          <ns3:TrackPointExtension>
            <ns3:hr>134</ns3:hr>
            <ns3:cad>0</ns3:cad>
          </ns3:TrackPointExtension>
        </extensions>
      </trkpt>
      <trkpt lat="45.29152284376323223114013671875" lon="-70.9056824259459972381591796875">
        <ele>637.4000244140625</ele>
        <time>2026-08-21T15:37:32.000Z</time>
        <extensions>
          <ns3:TrackPointExtension>
            <ns3:hr>134</ns3:hr>
            <ns3:cad>0</ns3:cad>
          </ns3:TrackPointExtension>
        </extensions>
      </trkpt>
      <trkpt lat="45.29153809882700443267822265625" lon="-70.90567924082279205322265625">
        <ele>637.5999755859375</ele>
        <time>2026-08-21T15:37:33.000Z</time>
        <extensions>
          <ns3:TrackPointExtension>
            <ns3:hr>134</ns3:hr>
            <ns3:cad>0</ns3:cad>
          </ns3:TrackPointExtension>
        </extensions>
      </trkpt>
      <trkpt lat="45.29155536554753780364990234375" lon="-70.90567043982446193695068359375">
        <ele>637.79998779296875</ele>
        <time>2026-08-21T15:37:34.000Z</time>
        <extensions>
          <ns3:TrackPointExtension>
            <ns3:hr>134</ns3:hr>
            <ns3:cad>0</ns3:cad>
          </ns3:TrackPointExtension>
        </extensions>
      </trkpt>
      <trkpt lat="45.29157221317291259765625" lon="-70.905662812292575836181640625">
        <ele>637.79998779296875</ele>
        <time>2026-08-21T15:37:35.000Z</time>
        <extensions>
          <ns3:TrackPointExtension>
            <ns3:hr>134</ns3:hr>
            <ns3:cad>0</ns3:cad>
          </ns3:TrackPointExtension>
        </extensions>
      </trkpt>
      <trkpt lat="45.2915844507515430450439453125" lon="-70.9056525863707065582275390625">
        <ele>637.5999755859375</ele>
        <time>2026-08-21T15:37:36.000Z</time>
        <extensions>
          <ns3:TrackPointExtension>
            <ns3:hr>133</ns3:hr>
            <ns3:cad>0</ns3:cad>
          </ns3:TrackPointExtension>
        </extensions>
      </trkpt>
      <trkpt lat="45.29160448350012302398681640625" lon="-70.90564034879207611083984375">
        <ele>637.5999755859375</ele>
        <time>2026-08-21T15:37:37.000Z</time>
        <extensions>
          <ns3:TrackPointExtension>
            <ns3:hr>133</ns3:hr>
            <ns3:cad>0</ns3:cad>
          </ns3:TrackPointExtension>
        </extensions>
      </trkpt>
      <trkpt lat="45.29162024147808551788330078125" lon="-70.90563171543180942535400390625">
        <ele>637.4000244140625</ele>
        <time>2026-08-21T15:37:38.000Z</time>
        <extensions>
          <ns3:TrackPointExtension>
            <ns3:hr>133</ns3:hr>
            <ns3:cad>0</ns3:cad>
          </ns3:TrackPointExtension>
        </extensions>
      </trkpt>
      <trkpt lat="45.29163147322833538055419921875" lon="-70.905631296336650848388671875">
        <ele>637.4000244140625</ele>
        <time>2026-08-21T15:37:39.000Z</time>
        <extensions>
          <ns3:TrackPointExtension>
            <ns3:hr>133</ns3:hr>
            <ns3:cad>0</ns3:cad>
          </ns3:TrackPointExtension>
        </extensions>
      </trkpt>
      <trkpt lat="45.29165360145270824432373046875" lon="-70.905632637441158294677734375">
        <ele>637.20001220703125</ele>
        <time>2026-08-21T15:37:40.000Z</time>
        <extensions>
          <ns3:TrackPointExtension>
            <ns3:hr>134</ns3:hr>
            <ns3:cad>76</ns3:cad>
          </ns3:TrackPointExtension>
        </extensions>
      </trkpt>
      <trkpt lat="45.29167941771447658538818359375" lon="-70.9056321345269680023193359375">
        <ele>637</ele>
        <time>2026-08-21T15:37:41.000Z</time>
        <extensions>
          <ns3:TrackPointExtension>
            <ns3:hr>133</ns3:hr>
            <ns3:cad>76</ns3:cad>
          </ns3:TrackPointExtension>
        </extensions>
      </trkpt>
      <trkpt lat="45.29170003719627857208251953125" lon="-70.90562157332897186279296875">
        <ele>636.79998779296875</ele>
        <time>2026-08-21T15:37:42.000Z</time>
        <extensions>
          <ns3:TrackPointExtension>
            <ns3:hr>134</ns3:hr>
            <ns3:cad>76</ns3:cad>
          </ns3:TrackPointExtension>
        </extensions>
      </trkpt>
      <trkpt lat="45.29172115959227085113525390625" lon="-70.90561277233064174652099609375">
        <ele>636.79998779296875</ele>
        <time>2026-08-21T15:37:43.000Z</time>
        <extensions>
          <ns3:TrackPointExtension>
            <ns3:hr>134</ns3:hr>
            <ns3:cad>76</ns3:cad>
          </ns3:TrackPointExtension>
        </extensions>
      </trkpt>
      <trkpt lat="45.29173859395086765289306640625" lon="-70.9056022949516773223876953125">
        <ele>636.5999755859375</ele>
        <time>2026-08-21T15:37:44.000Z</time>
        <extensions>
          <ns3:TrackPointExtension>
            <ns3:hr>134</ns3:hr>
            <ns3:cad>76</ns3:cad>
          </ns3:TrackPointExtension>
        </extensions>
      </trkpt>
      <trkpt lat="45.2917537651956081390380859375" lon="-70.90559542179107666015625">
        <ele>636.5999755859375</ele>
        <time>2026-08-21T15:37:45.000Z</time>
        <extensions>
          <ns3:TrackPointExtension>
            <ns3:hr>134</ns3:hr>
            <ns3:cad>77</ns3:cad>
          </ns3:TrackPointExtension>
        </extensions>
      </trkpt>
      <trkpt lat="45.29177010990679264068603515625" lon="-70.90559047646820545196533203125">
        <ele>636.5999755859375</ele>
        <time>2026-08-21T15:37:46.000Z</time>
        <extensions>
          <ns3:TrackPointExtension>
            <ns3:hr>134</ns3:hr>
            <ns3:cad>77</ns3:cad>
          </ns3:TrackPointExtension>
        </extensions>
      </trkpt>
      <trkpt lat="45.29178653843700885772705078125" lon="-70.90558343566954135894775390625">
        <ele>636.5999755859375</ele>
        <time>2026-08-21T15:37:47.000Z</time>
        <extensions>
          <ns3:TrackPointExtension>
            <ns3:hr>134</ns3:hr>
            <ns3:cad>77</ns3:cad>
          </ns3:TrackPointExtension>
        </extensions>
      </trkpt>
      <trkpt lat="45.29180145822465419769287109375" lon="-70.905568934977054595947265625">
        <ele>636.5999755859375</ele>
        <time>2026-08-21T15:37:48.000Z</time>
        <extensions>
          <ns3:TrackPointExtension>
            <ns3:hr>134</ns3:hr>
            <ns3:cad>77</ns3:cad>
          </ns3:TrackPointExtension>
        </extensions>
      </trkpt>
      <trkpt lat="45.29181403107941150665283203125" lon="-70.90555426664650440216064453125">
        <ele>636.4000244140625</ele>
        <time>2026-08-21T15:37:49.000Z</time>
        <extensions>
          <ns3:TrackPointExtension>
            <ns3:hr>133</ns3:hr>
            <ns3:cad>77</ns3:cad>
          </ns3:TrackPointExtension>
        </extensions>
      </trkpt>
      <trkpt lat="45.29182442463934421539306640625" lon="-70.90554370544850826263427734375">
        <ele>636.4000244140625</ele>
        <time>2026-08-21T15:37:50.000Z</time>
        <extensions>
          <ns3:TrackPointExtension>
            <ns3:hr>133</ns3:hr>
            <ns3:cad>77</ns3:cad>
          </ns3:TrackPointExtension>
        </extensions>
      </trkpt>
      <trkpt lat="45.29184051789343357086181640625" lon="-70.90553297661244869232177734375">
        <ele>636.4000244140625</ele>
        <time>2026-08-21T15:37:51.000Z</time>
        <extensions>
          <ns3:TrackPointExtension>
            <ns3:hr>133</ns3:hr>
            <ns3:cad>77</ns3:cad>
          </ns3:TrackPointExtension>
        </extensions>
      </trkpt>
      <trkpt lat="45.29185577295720577239990234375" lon="-70.90553062967956066131591796875">
        <ele>636.4000244140625</ele>
        <time>2026-08-21T15:37:52.000Z</time>
        <extensions>
          <ns3:TrackPointExtension>
            <ns3:hr>133</ns3:hr>
            <ns3:cad>59</ns3:cad>
          </ns3:TrackPointExtension>
        </extensions>
      </trkpt>
      <trkpt lat="45.29187052510678768157958984375" lon="-70.9055271930992603302001953125">
        <ele>636.5999755859375</ele>
        <time>2026-08-21T15:37:53.000Z</time>
        <extensions>
          <ns3:TrackPointExtension>
            <ns3:hr>132</ns3:hr>
            <ns3:cad>59</ns3:cad>
          </ns3:TrackPointExtension>
        </extensions>
      </trkpt>
      <trkpt lat="45.291887037456035614013671875" lon="-70.905533730983734130859375">
        <ele>636.79998779296875</ele>
        <time>2026-08-21T15:37:54.000Z</time>
        <extensions>
          <ns3:TrackPointExtension>
            <ns3:hr>132</ns3:hr>
            <ns3:cad>59</ns3:cad>
          </ns3:TrackPointExtension>
        </extensions>
      </trkpt>
      <trkpt lat="45.29190002940595149993896484375" lon="-70.90553364716470241546630859375">
        <ele>637</ele>
        <time>2026-08-21T15:37:55.000Z</time>
        <extensions>
          <ns3:TrackPointExtension>
            <ns3:hr>132</ns3:hr>
            <ns3:cad>59</ns3:cad>
          </ns3:TrackPointExtension>
        </extensions>
      </trkpt>
      <trkpt lat="45.291913859546184539794921875" lon="-70.9055268578231334686279296875">
        <ele>637</ele>
        <time>2026-08-21T15:37:56.000Z</time>
        <extensions>
          <ns3:TrackPointExtension>
            <ns3:hr>132</ns3:hr>
            <ns3:cad>59</ns3:cad>
          </ns3:TrackPointExtension>
        </extensions>
      </trkpt>
      <trkpt lat="45.291929282248020172119140625" lon="-70.905513949692249298095703125">
        <ele>637</ele>
        <time>2026-08-21T15:37:57.000Z</time>
        <extensions>
          <ns3:TrackPointExtension>
            <ns3:hr>132</ns3:hr>
            <ns3:cad>59</ns3:cad>
          </ns3:TrackPointExtension>
        </extensions>
      </trkpt>
      <trkpt lat="45.291944034397602081298828125" lon="-70.90550850145518779754638671875">
        <ele>636.79998779296875</ele>
        <time>2026-08-21T15:37:58.000Z</time>
        <extensions>
          <ns3:TrackPointExtension>
            <ns3:hr>133</ns3:hr>
            <ns3:cad>59</ns3:cad>
          </ns3:TrackPointExtension>
        </extensions>
      </trkpt>
      <trkpt lat="45.2919597923755645751953125" lon="-70.90550363995134830474853515625">
        <ele>636.79998779296875</ele>
        <time>2026-08-21T15:37:59.000Z</time>
        <extensions>
          <ns3:TrackPointExtension>
            <ns3:hr>133</ns3:hr>
            <ns3:cad>59</ns3:cad>
          </ns3:TrackPointExtension>
        </extensions>
      </trkpt>
      <trkpt lat="45.29197529889643192291259765625" lon="-70.90549995191395282745361328125">
        <ele>636.79998779296875</ele>
        <time>2026-08-21T15:38:00.000Z</time>
        <extensions>
          <ns3:TrackPointExtension>
            <ns3:hr>134</ns3:hr>
            <ns3:cad>59</ns3:cad>
          </ns3:TrackPointExtension>
        </extensions>
      </trkpt>
      <trkpt lat="45.29199424199759960174560546875" lon="-70.90549324639141559600830078125">
        <ele>636.79998779296875</ele>
        <time>2026-08-21T15:38:01.000Z</time>
        <extensions>
          <ns3:TrackPointExtension>
            <ns3:hr>134</ns3:hr>
            <ns3:cad>59</ns3:cad>
          </ns3:TrackPointExtension>
        </extensions>
      </trkpt>
      <trkpt lat="45.29201419092714786529541015625" lon="-70.9054916538298130035400390625">
        <ele>636.5999755859375</ele>
        <time>2026-08-21T15:38:02.000Z</time>
        <extensions>
          <ns3:TrackPointExtension>
            <ns3:hr>134</ns3:hr>
            <ns3:cad>59</ns3:cad>
          </ns3:TrackPointExtension>
        </extensions>
      </trkpt>
      <trkpt lat="45.292037241160869598388671875" lon="-70.9054894745349884033203125">
        <ele>636.4000244140625</ele>
        <time>2026-08-21T15:38:03.000Z</time>
        <extensions>
          <ns3:TrackPointExtension>
            <ns3:hr>135</ns3:hr>
            <ns3:cad>59</ns3:cad>
          </ns3:TrackPointExtension>
        </extensions>
      </trkpt>
      <trkpt lat="45.29206029139459133148193359375" lon="-70.9054893068969249725341796875">
        <ele>636.4000244140625</ele>
        <time>2026-08-21T15:38:04.000Z</time>
        <extensions>
          <ns3:TrackPointExtension>
            <ns3:hr>136</ns3:hr>
            <ns3:cad>79</ns3:cad>
          </ns3:TrackPointExtension>
        </extensions>
      </trkpt>
      <trkpt lat="45.2920840121805667877197265625" lon="-70.9054841101169586181640625">
        <ele>636.20001220703125</ele>
        <time>2026-08-21T15:38:05.000Z</time>
        <extensions>
          <ns3:TrackPointExtension>
            <ns3:hr>136</ns3:hr>
            <ns3:cad>79</ns3:cad>
          </ns3:TrackPointExtension>
        </extensions>
      </trkpt>
      <trkpt lat="45.2921031229197978973388671875" lon="-70.905483774840831756591796875">
        <ele>636.20001220703125</ele>
        <time>2026-08-21T15:38:06.000Z</time>
        <extensions>
          <ns3:TrackPointExtension>
            <ns3:hr>137</ns3:hr>
            <ns3:cad>79</ns3:cad>
          </ns3:TrackPointExtension>
        </extensions>
      </trkpt>
      <trkpt lat="45.2921218983829021453857421875" lon="-70.9054842777550220489501953125">
        <ele>636.20001220703125</ele>
        <time>2026-08-21T15:38:07.000Z</time>
        <extensions>
          <ns3:TrackPointExtension>
            <ns3:hr>138</ns3:hr>
            <ns3:cad>79</ns3:cad>
          </ns3:TrackPointExtension>
        </extensions>
      </trkpt>
      <trkpt lat="45.29214343987405300140380859375" lon="-70.90548587031662464141845703125">
        <ele>636.20001220703125</ele>
        <time>2026-08-21T15:38:08.000Z</time>
        <extensions>
          <ns3:TrackPointExtension>
            <ns3:hr>138</ns3:hr>
            <ns3:cad>79</ns3:cad>
          </ns3:TrackPointExtension>
        </extensions>
      </trkpt>
      <trkpt lat="45.29216892085969448089599609375" lon="-70.90548746287822723388671875">
        <ele>636.20001220703125</ele>
        <time>2026-08-21T15:38:09.000Z</time>
        <extensions>
          <ns3:TrackPointExtension>
            <ns3:hr>137</ns3:hr>
            <ns3:cad>79</ns3:cad>
          </ns3:TrackPointExtension>
        </extensions>
      </trkpt>
      <trkpt lat="45.292191468179225921630859375" lon="-70.905482433736324310302734375">
        <ele>636.20001220703125</ele>
        <time>2026-08-21T15:38:10.000Z</time>
        <extensions>
          <ns3:TrackPointExtension>
            <ns3:hr>137</ns3:hr>
            <ns3:cad>79</ns3:cad>
          </ns3:TrackPointExtension>
        </extensions>
      </trkpt>
      <trkpt lat="45.29221636243164539337158203125" lon="-70.90547296218574047088623046875">
        <ele>636.20001220703125</ele>
        <time>2026-08-21T15:38:11.000Z</time>
        <extensions>
          <ns3:TrackPointExtension>
            <ns3:hr>137</ns3:hr>
            <ns3:cad>76</ns3:cad>
          </ns3:TrackPointExtension>
        </extensions>
      </trkpt>
      <trkpt lat="45.29223597608506679534912109375" lon="-70.9054574556648731231689453125">
        <ele>636</ele>
        <time>2026-08-21T15:38:12.000Z</time>
        <extensions>
          <ns3:TrackPointExtension>
            <ns3:hr>137</ns3:hr>
            <ns3:cad>76</ns3:cad>
          </ns3:TrackPointExtension>
        </extensions>
      </trkpt>
      <trkpt lat="45.2922529913485050201416015625" lon="-70.90543708764016628265380859375">
        <ele>636</ele>
        <time>2026-08-21T15:38:13.000Z</time>
        <extensions>
          <ns3:TrackPointExtension>
            <ns3:hr>136</ns3:hr>
            <ns3:cad>76</ns3:cad>
          </ns3:TrackPointExtension>
        </extensions>
      </trkpt>
      <trkpt lat="45.29226648621261119842529296875" lon="-70.90540775097906589508056640625">
        <ele>636</ele>
        <time>2026-08-21T15:38:14.000Z</time>
        <extensions>
          <ns3:TrackPointExtension>
            <ns3:hr>137</ns3:hr>
            <ns3:cad>76</ns3:cad>
          </ns3:TrackPointExtension>
        </extensions>
      </trkpt>
      <trkpt lat="45.2922734431922435760498046875" lon="-70.90537942014634609222412109375">
        <ele>636</ele>
        <time>2026-08-21T15:38:15.000Z</time>
        <extensions>
          <ns3:TrackPointExtension>
            <ns3:hr>137</ns3:hr>
            <ns3:cad>76</ns3:cad>
          </ns3:TrackPointExtension>
        </extensions>
      </trkpt>
      <trkpt lat="45.292279310524463653564453125" lon="-70.90535511262714862823486328125">
        <ele>635.79998779296875</ele>
        <time>2026-08-21T15:38:16.000Z</time>
        <extensions>
          <ns3:TrackPointExtension>
            <ns3:hr>137</ns3:hr>
            <ns3:cad>78</ns3:cad>
          </ns3:TrackPointExtension>
        </extensions>
      </trkpt>
      <trkpt lat="45.292291380465030670166015625" lon="-70.90534530580043792724609375">
        <ele>635.79998779296875</ele>
        <time>2026-08-21T15:38:17.000Z</time>
        <extensions>
          <ns3:TrackPointExtension>
            <ns3:hr>137</ns3:hr>
            <ns3:cad>78</ns3:cad>
          </ns3:TrackPointExtension>
        </extensions>
      </trkpt>
      <trkpt lat="45.29230915009975433349609375" lon="-70.9053508378565311431884765625">
        <ele>635.5999755859375</ele>
        <time>2026-08-21T15:38:18.000Z</time>
        <extensions>
          <ns3:TrackPointExtension>
            <ns3:hr>138</ns3:hr>
            <ns3:cad>78</ns3:cad>
          </ns3:TrackPointExtension>
        </extensions>
      </trkpt>
      <trkpt lat="45.292323566973209381103515625" lon="-70.9053391031920909881591796875">
        <ele>635.5999755859375</ele>
        <time>2026-08-21T15:38:19.000Z</time>
        <extensions>
          <ns3:TrackPointExtension>
            <ns3:hr>138</ns3:hr>
            <ns3:cad>78</ns3:cad>
          </ns3:TrackPointExtension>
        </extensions>
      </trkpt>
      <trkpt lat="45.29233404435217380523681640625" lon="-70.90531647205352783203125">
        <ele>635.5999755859375</ele>
        <time>2026-08-21T15:38:20.000Z</time>
        <extensions>
          <ns3:TrackPointExtension>
            <ns3:hr>138</ns3:hr>
            <ns3:cad>78</ns3:cad>
          </ns3:TrackPointExtension>
        </extensions>
      </trkpt>
      <trkpt lat="45.292346365749835968017578125" lon="-70.90528738684952259063720703125">
        <ele>635.5999755859375</ele>
        <time>2026-08-21T15:38:21.000Z</time>
        <extensions>
          <ns3:TrackPointExtension>
            <ns3:hr>138</ns3:hr>
            <ns3:cad>78</ns3:cad>
          </ns3:TrackPointExtension>
        </extensions>
      </trkpt>
      <trkpt lat="45.29235449619591236114501953125" lon="-70.90526425279676914215087890625">
        <ele>635.5999755859375</ele>
        <time>2026-08-21T15:38:22.000Z</time>
        <extensions>
          <ns3:TrackPointExtension>
            <ns3:hr>138</ns3:hr>
            <ns3:cad>78</ns3:cad>
          </ns3:TrackPointExtension>
        </extensions>
      </trkpt>
      <trkpt lat="45.29236053116619586944580078125" lon="-70.90523323975503444671630859375">
        <ele>635.5999755859375</ele>
        <time>2026-08-21T15:38:23.000Z</time>
        <extensions>
          <ns3:TrackPointExtension>
            <ns3:hr>138</ns3:hr>
            <ns3:cad>78</ns3:cad>
          </ns3:TrackPointExtension>
        </extensions>
      </trkpt>
      <trkpt lat="45.29236891306936740875244140625" lon="-70.9052029810845851898193359375">
        <ele>635.5999755859375</ele>
        <time>2026-08-21T15:38:24.000Z</time>
        <extensions>
          <ns3:TrackPointExtension>
            <ns3:hr>138</ns3:hr>
            <ns3:cad>78</ns3:cad>
          </ns3:TrackPointExtension>
        </extensions>
      </trkpt>
      <trkpt lat="45.2923797257244586944580078125" lon="-70.9051764942705631256103515625">
        <ele>635.4000244140625</ele>
        <time>2026-08-21T15:38:25.000Z</time>
        <extensions>
          <ns3:TrackPointExtension>
            <ns3:hr>139</ns3:hr>
            <ns3:cad>78</ns3:cad>
          </ns3:TrackPointExtension>
        </extensions>
      </trkpt>
      <trkpt lat="45.2923884429037570953369140625" lon="-70.90514472685754299163818359375">
        <ele>635.20001220703125</ele>
        <time>2026-08-21T15:38:26.000Z</time>
        <extensions>
          <ns3:TrackPointExtension>
            <ns3:hr>139</ns3:hr>
            <ns3:cad>78</ns3:cad>
          </ns3:TrackPointExtension>
        </extensions>
      </trkpt>
      <trkpt lat="45.29239472933113574981689453125" lon="-70.90511421672999858856201171875">
        <ele>635</ele>
        <time>2026-08-21T15:38:27.000Z</time>
        <extensions>
          <ns3:TrackPointExtension>
            <ns3:hr>140</ns3:hr>
            <ns3:cad>78</ns3:cad>
          </ns3:TrackPointExtension>
        </extensions>
      </trkpt>
      <trkpt lat="45.292394645512104034423828125" lon="-70.90508856810629367828369140625">
        <ele>635</ele>
        <time>2026-08-21T15:38:28.000Z</time>
        <extensions>
          <ns3:TrackPointExtension>
            <ns3:hr>140</ns3:hr>
            <ns3:cad>78</ns3:cad>
          </ns3:TrackPointExtension>
        </extensions>
      </trkpt>
      <trkpt lat="45.29238986782729625701904296875" lon="-70.9050568006932735443115234375">
        <ele>635.20001220703125</ele>
        <time>2026-08-21T15:38:29.000Z</time>
        <extensions>
          <ns3:TrackPointExtension>
            <ns3:hr>140</ns3:hr>
            <ns3:cad>78</ns3:cad>
          </ns3:TrackPointExtension>
        </extensions>
      </trkpt>
      <trkpt lat="45.292387269437313079833984375" lon="-70.90503559447824954986572265625">
        <ele>635.20001220703125</ele>
        <time>2026-08-21T15:38:30.000Z</time>
        <extensions>
          <ns3:TrackPointExtension>
            <ns3:hr>140</ns3:hr>
            <ns3:cad>78</ns3:cad>
          </ns3:TrackPointExtension>
        </extensions>
      </trkpt>
      <trkpt lat="45.29238400049507617950439453125" lon="-70.90500625781714916229248046875">
        <ele>635.4000244140625</ele>
        <time>2026-08-21T15:38:31.000Z</time>
        <extensions>
          <ns3:TrackPointExtension>
            <ns3:hr>141</ns3:hr>
            <ns3:cad>77</ns3:cad>
          </ns3:TrackPointExtension>
        </extensions>
      </trkpt>
      <trkpt lat="45.2923907898366451263427734375" lon="-70.90497507713735103607177734375">
        <ele>635.79998779296875</ele>
        <time>2026-08-21T15:38:32.000Z</time>
        <extensions>
          <ns3:TrackPointExtension>
            <ns3:hr>141</ns3:hr>
            <ns3:cad>77</ns3:cad>
          </ns3:TrackPointExtension>
        </extensions>
      </trkpt>
      <trkpt lat="45.29240093193948268890380859375" lon="-70.9049582295119762420654296875">
        <ele>635.79998779296875</ele>
        <time>2026-08-21T15:38:33.000Z</time>
        <extensions>
          <ns3:TrackPointExtension>
            <ns3:hr>141</ns3:hr>
            <ns3:cad>77</ns3:cad>
          </ns3:TrackPointExtension>
        </extensions>
      </trkpt>
      <trkpt lat="45.29241937212646007537841796875" lon="-70.9049424715340137481689453125">
        <ele>636</ele>
        <time>2026-08-21T15:38:34.000Z</time>
        <extensions>
          <ns3:TrackPointExtension>
            <ns3:hr>141</ns3:hr>
            <ns3:cad>77</ns3:cad>
          </ns3:TrackPointExtension>
        </extensions>
      </trkpt>
      <trkpt lat="45.29243345372378826141357421875" lon="-70.9049342572689056396484375">
        <ele>636</ele>
        <time>2026-08-21T15:38:35.000Z</time>
        <extensions>
          <ns3:TrackPointExtension>
            <ns3:hr>140</ns3:hr>
            <ns3:cad>77</ns3:cad>
          </ns3:TrackPointExtension>
        </extensions>
      </trkpt>
      <trkpt lat="45.29244854114949703216552734375" lon="-70.904930569231510162353515625">
        <ele>636</ele>
        <time>2026-08-21T15:38:36.000Z</time>
        <extensions>
          <ns3:TrackPointExtension>
            <ns3:hr>140</ns3:hr>
            <ns3:cad>72</ns3:cad>
          </ns3:TrackPointExtension>
        </extensions>
      </trkpt>
      <trkpt lat="45.29246270656585693359375" lon="-70.90493015013635158538818359375">
        <ele>635.79998779296875</ele>
        <time>2026-08-21T15:38:37.000Z</time>
        <extensions>
          <ns3:TrackPointExtension>
            <ns3:hr>140</ns3:hr>
            <ns3:cad>72</ns3:cad>
          </ns3:TrackPointExtension>
        </extensions>
      </trkpt>
      <trkpt lat="45.29247854836285114288330078125" lon="-70.90492688119411468505859375">
        <ele>635.79998779296875</ele>
        <time>2026-08-21T15:38:38.000Z</time>
        <extensions>
          <ns3:TrackPointExtension>
            <ns3:hr>140</ns3:hr>
            <ns3:cad>0</ns3:cad>
          </ns3:TrackPointExtension>
        </extensions>
      </trkpt>
      <trkpt lat="45.29249045066535472869873046875" lon="-70.90491657145321369171142578125">
        <ele>635.79998779296875</ele>
        <time>2026-08-21T15:38:39.000Z</time>
        <extensions>
          <ns3:TrackPointExtension>
            <ns3:hr>141</ns3:hr>
            <ns3:cad>0</ns3:cad>
          </ns3:TrackPointExtension>
        </extensions>
      </trkpt>
      <trkpt lat="45.29250034131109714508056640625" lon="-70.9049008972942829132080078125">
        <ele>635.5999755859375</ele>
        <time>2026-08-21T15:38:40.000Z</time>
        <extensions>
          <ns3:TrackPointExtension>
            <ns3:hr>140</ns3:hr>
            <ns3:cad>0</ns3:cad>
          </ns3:TrackPointExtension>
        </extensions>
      </trkpt>
      <trkpt lat="45.29251224361360073089599609375" lon="-70.90487985871732234954833984375">
        <ele>635.5999755859375</ele>
        <time>2026-08-21T15:38:41.000Z</time>
        <extensions>
          <ns3:TrackPointExtension>
            <ns3:hr>140</ns3:hr>
            <ns3:cad>0</ns3:cad>
          </ns3:TrackPointExtension>
        </extensions>
      </trkpt>
      <trkpt lat="45.29252146370708942413330078125" lon="-70.9048683755099773406982421875">
        <ele>635.4000244140625</ele>
        <time>2026-08-21T15:38:42.000Z</time>
        <extensions>
          <ns3:TrackPointExtension>
            <ns3:hr>140</ns3:hr>
            <ns3:cad>0</ns3:cad>
          </ns3:TrackPointExtension>
        </extensions>
      </trkpt>
      <trkpt lat="45.292530767619609832763671875" lon="-70.904856808483600616455078125">
        <ele>635.4000244140625</ele>
        <time>2026-08-21T15:38:43.000Z</time>
        <extensions>
          <ns3:TrackPointExtension>
            <ns3:hr>140</ns3:hr>
            <ns3:cad>0</ns3:cad>
          </ns3:TrackPointExtension>
        </extensions>
      </trkpt>
      <trkpt lat="45.292542167007923126220703125" lon="-70.904844067990779876708984375">
        <ele>635.4000244140625</ele>
        <time>2026-08-21T15:38:44.000Z</time>
        <extensions>
          <ns3:TrackPointExtension>
            <ns3:hr>141</ns3:hr>
            <ns3:cad>0</ns3:cad>
          </ns3:TrackPointExtension>
        </extensions>
      </trkpt>
      <trkpt lat="45.292558930814266204833984375" lon="-70.90482219122350215911865234375">
        <ele>635.4000244140625</ele>
        <time>2026-08-21T15:38:45.000Z</time>
        <extensions>
          <ns3:TrackPointExtension>
            <ns3:hr>142</ns3:hr>
            <ns3:cad>0</ns3:cad>
          </ns3:TrackPointExtension>
        </extensions>
      </trkpt>
      <trkpt lat="45.29256773181259632110595703125" lon="-70.9047989733517169952392578125">
        <ele>635.79998779296875</ele>
        <time>2026-08-21T15:38:46.000Z</time>
        <extensions>
          <ns3:TrackPointExtension>
            <ns3:hr>143</ns3:hr>
            <ns3:cad>0</ns3:cad>
          </ns3:TrackPointExtension>
        </extensions>
      </trkpt>
      <trkpt lat="45.292575359344482421875" lon="-70.90477676130831241607666015625">
        <ele>636</ele>
        <time>2026-08-21T15:38:47.000Z</time>
        <extensions>
          <ns3:TrackPointExtension>
            <ns3:hr>144</ns3:hr>
            <ns3:cad>0</ns3:cad>
          </ns3:TrackPointExtension>
        </extensions>
      </trkpt>
      <trkpt lat="45.29258483089506626129150390625" lon="-70.90475262142717838287353515625">
        <ele>636</ele>
        <time>2026-08-21T15:38:48.000Z</time>
        <extensions>
          <ns3:TrackPointExtension>
            <ns3:hr>144</ns3:hr>
            <ns3:cad>0</ns3:cad>
          </ns3:TrackPointExtension>
        </extensions>
      </trkpt>
      <trkpt lat="45.29259572736918926239013671875" lon="-70.904738791286945343017578125">
        <ele>636.20001220703125</ele>
        <time>2026-08-21T15:38:49.000Z</time>
        <extensions>
          <ns3:TrackPointExtension>
            <ns3:hr>144</ns3:hr>
            <ns3:cad>0</ns3:cad>
          </ns3:TrackPointExtension>
        </extensions>
      </trkpt>
      <trkpt lat="45.29260997660458087921142578125" lon="-70.90473116375505924224853515625">
        <ele>636.20001220703125</ele>
        <time>2026-08-21T15:38:50.000Z</time>
        <extensions>
          <ns3:TrackPointExtension>
            <ns3:hr>143</ns3:hr>
            <ns3:cad>0</ns3:cad>
          </ns3:TrackPointExtension>
        </extensions>
      </trkpt>
      <trkpt lat="45.29262221418321132659912109375" lon="-70.904722698032855987548828125">
        <ele>636.20001220703125</ele>
        <time>2026-08-21T15:38:51.000Z</time>
        <extensions>
          <ns3:TrackPointExtension>
            <ns3:hr>143</ns3:hr>
            <ns3:cad>0</ns3:cad>
          </ns3:TrackPointExtension>
        </extensions>
      </trkpt>
      <trkpt lat="45.2926328592002391815185546875" lon="-70.9047168307006359100341796875">
        <ele>636.20001220703125</ele>
        <time>2026-08-21T15:38:52.000Z</time>
        <extensions>
          <ns3:TrackPointExtension>
            <ns3:hr>143</ns3:hr>
            <ns3:cad>0</ns3:cad>
          </ns3:TrackPointExtension>
        </extensions>
      </trkpt>
      <trkpt lat="45.29264903627336025238037109375" lon="-70.90471322648227214813232421875">
        <ele>636.20001220703125</ele>
        <time>2026-08-21T15:38:53.000Z</time>
        <extensions>
          <ns3:TrackPointExtension>
            <ns3:hr>143</ns3:hr>
            <ns3:cad>57</ns3:cad>
          </ns3:TrackPointExtension>
        </extensions>
      </trkpt>
      <trkpt lat="45.2926650457084178924560546875" lon="-70.9047091193497180938720703125">
        <ele>636.4000244140625</ele>
        <time>2026-08-21T15:38:54.000Z</time>
        <extensions>
          <ns3:TrackPointExtension>
            <ns3:hr>143</ns3:hr>
            <ns3:cad>57</ns3:cad>
          </ns3:TrackPointExtension>
        </extensions>
      </trkpt>
      <trkpt lat="45.29267619363963603973388671875" lon="-70.9047007374465465545654296875">
        <ele>636.4000244140625</ele>
        <time>2026-08-21T15:38:55.000Z</time>
        <extensions>
          <ns3:TrackPointExtension>
            <ns3:hr>142</ns3:hr>
            <ns3:cad>57</ns3:cad>
          </ns3:TrackPointExtension>
        </extensions>
      </trkpt>
      <trkpt lat="45.29269010759890079498291015625" lon="-70.9046933613717555999755859375">
        <ele>636.4000244140625</ele>
        <time>2026-08-21T15:38:56.000Z</time>
        <extensions>
          <ns3:TrackPointExtension>
            <ns3:hr>143</ns3:hr>
            <ns3:cad>57</ns3:cad>
          </ns3:TrackPointExtension>
        </extensions>
      </trkpt>
      <trkpt lat="45.29270653612911701202392578125" lon="-70.9046886675059795379638671875">
        <ele>636.20001220703125</ele>
        <time>2026-08-21T15:38:57.000Z</time>
        <extensions>
          <ns3:TrackPointExtension>
            <ns3:hr>143</ns3:hr>
            <ns3:cad>57</ns3:cad>
          </ns3:TrackPointExtension>
        </extensions>
      </trkpt>
      <trkpt lat="45.2927247248589992523193359375" lon="-70.90468053705990314483642578125">
        <ele>636.20001220703125</ele>
        <time>2026-08-21T15:38:58.000Z</time>
        <extensions>
          <ns3:TrackPointExtension>
            <ns3:hr>143</ns3:hr>
            <ns3:cad>57</ns3:cad>
          </ns3:TrackPointExtension>
        </extensions>
      </trkpt>
      <trkpt lat="45.2927403151988983154296875" lon="-70.90466930530965328216552734375">
        <ele>636.20001220703125</ele>
        <time>2026-08-21T15:38:59.000Z</time>
        <extensions>
          <ns3:TrackPointExtension>
            <ns3:hr>143</ns3:hr>
            <ns3:cad>57</ns3:cad>
          </ns3:TrackPointExtension>
        </extensions>
      </trkpt>
      <trkpt lat="45.2927575819194316864013671875" lon="-70.9046553075313568115234375">
        <ele>636.20001220703125</ele>
        <time>2026-08-21T15:39:00.000Z</time>
        <extensions>
          <ns3:TrackPointExtension>
            <ns3:hr>144</ns3:hr>
            <ns3:cad>57</ns3:cad>
          </ns3:TrackPointExtension>
        </extensions>
      </trkpt>
      <trkpt lat="45.29277451336383819580078125" lon="-70.90463879518210887908935546875">
        <ele>636.20001220703125</ele>
        <time>2026-08-21T15:39:01.000Z</time>
        <extensions>
          <ns3:TrackPointExtension>
            <ns3:hr>144</ns3:hr>
            <ns3:cad>57</ns3:cad>
          </ns3:TrackPointExtension>
        </extensions>
      </trkpt>
      <trkpt lat="45.29278750531375408172607421875" lon="-70.904621779918670654296875">
        <ele>636.4000244140625</ele>
        <time>2026-08-21T15:39:02.000Z</time>
        <extensions>
          <ns3:TrackPointExtension>
            <ns3:hr>144</ns3:hr>
            <ns3:cad>57</ns3:cad>
          </ns3:TrackPointExtension>
        </extensions>
      </trkpt>
      <trkpt lat="45.2927993237972259521484375" lon="-70.904597975313663482666015625">
        <ele>636.4000244140625</ele>
        <time>2026-08-21T15:39:03.000Z</time>
        <extensions>
          <ns3:TrackPointExtension>
            <ns3:hr>145</ns3:hr>
            <ns3:cad>57</ns3:cad>
          </ns3:TrackPointExtension>
        </extensions>
      </trkpt>
      <trkpt lat="45.29280460439622402191162109375" lon="-70.90457241050899028778076171875">
        <ele>636.4000244140625</ele>
        <time>2026-08-21T15:39:04.000Z</time>
        <extensions>
          <ns3:TrackPointExtension>
            <ns3:hr>145</ns3:hr>
            <ns3:cad>57</ns3:cad>
          </ns3:TrackPointExtension>
        </extensions>
      </trkpt>
      <trkpt lat="45.29280929826200008392333984375" lon="-70.90454475022852420806884765625">
        <ele>636.4000244140625</ele>
        <time>2026-08-21T15:39:05.000Z</time>
        <extensions>
          <ns3:TrackPointExtension>
            <ns3:hr>145</ns3:hr>
            <ns3:cad>77</ns3:cad>
          </ns3:TrackPointExtension>
        </extensions>
      </trkpt>
      <trkpt lat="45.29281583614647388458251953125" lon="-70.90451055206358432769775390625">
        <ele>636.4000244140625</ele>
        <time>2026-08-21T15:39:06.000Z</time>
        <extensions>
          <ns3:TrackPointExtension>
            <ns3:hr>145</ns3:hr>
            <ns3:cad>77</ns3:cad>
          </ns3:TrackPointExtension>
        </extensions>
      </trkpt>
      <trkpt lat="45.29282220639288425445556640625" lon="-70.9044844843447208404541015625">
        <ele>636.4000244140625</ele>
        <time>2026-08-21T15:39:07.000Z</time>
        <extensions>
          <ns3:TrackPointExtension>
            <ns3:hr>144</ns3:hr>
            <ns3:cad>77</ns3:cad>
          </ns3:TrackPointExtension>
        </extensions>
      </trkpt>
      <trkpt lat="45.29283578507602214813232421875" lon="-70.9044583328068256378173828125">
        <ele>636.4000244140625</ele>
        <time>2026-08-21T15:39:08.000Z</time>
        <extensions>
          <ns3:TrackPointExtension>
            <ns3:hr>145</ns3:hr>
            <ns3:cad>76</ns3:cad>
          </ns3:TrackPointExtension>
        </extensions>
      </trkpt>
      <trkpt lat="45.2928517945110797882080078125" lon="-70.9044392220675945281982421875">
        <ele>636.4000244140625</ele>
        <time>2026-08-21T15:39:09.000Z</time>
        <extensions>
          <ns3:TrackPointExtension>
            <ns3:hr>145</ns3:hr>
            <ns3:cad>74</ns3:cad>
          </ns3:TrackPointExtension>
        </extensions>
      </trkpt>
      <trkpt lat="45.29286411590874195098876953125" lon="-70.90442136861383914947509765625">
        <ele>636.4000244140625</ele>
        <time>2026-08-21T15:39:10.000Z</time>
        <extensions>
          <ns3:TrackPointExtension>
            <ns3:hr>144</ns3:hr>
            <ns3:cad>74</ns3:cad>
          </ns3:TrackPointExtension>
        </extensions>
      </trkpt>
      <trkpt lat="45.2928772754967212677001953125" lon="-70.904396474361419677734375">
        <ele>636.20001220703125</ele>
        <time>2026-08-21T15:39:11.000Z</time>
        <extensions>
          <ns3:TrackPointExtension>
            <ns3:hr>143</ns3:hr>
            <ns3:cad>74</ns3:cad>
          </ns3:TrackPointExtension>
        </extensions>
      </trkpt>
      <trkpt lat="45.29288255609571933746337890625" lon="-70.9043709933757781982421875">
        <ele>636.20001220703125</ele>
        <time>2026-08-21T15:39:12.000Z</time>
        <extensions>
          <ns3:TrackPointExtension>
            <ns3:hr>143</ns3:hr>
            <ns3:cad>75</ns3:cad>
          </ns3:TrackPointExtension>
        </extensions>
      </trkpt>
      <trkpt lat="45.29288557358086109161376953125" lon="-70.9043416567146778106689453125">
        <ele>636</ele>
        <time>2026-08-21T15:39:13.000Z</time>
        <extensions>
          <ns3:TrackPointExtension>
            <ns3:hr>142</ns3:hr>
            <ns3:cad>75</ns3:cad>
          </ns3:TrackPointExtension>
        </extensions>
      </trkpt>
      <trkpt lat="45.29288792051374912261962890625" lon="-70.9043212048709392547607421875">
        <ele>636</ele>
        <time>2026-08-21T15:39:14.000Z</time>
        <extensions>
          <ns3:TrackPointExtension>
            <ns3:hr>141</ns3:hr>
            <ns3:cad>76</ns3:cad>
          </ns3:TrackPointExtension>
        </extensions>
      </trkpt>
      <trkpt lat="45.29289127327501773834228515625" lon="-70.90428910218179225921630859375">
        <ele>635.79998779296875</ele>
        <time>2026-08-21T15:39:15.000Z</time>
        <extensions>
          <ns3:TrackPointExtension>
            <ns3:hr>141</ns3:hr>
            <ns3:cad>76</ns3:cad>
          </ns3:TrackPointExtension>
        </extensions>
      </trkpt>
      <trkpt lat="45.29290317557752132415771484375" lon="-70.9042702428996562957763671875">
        <ele>635.5999755859375</ele>
        <time>2026-08-21T15:39:16.000Z</time>
        <extensions>
          <ns3:TrackPointExtension>
            <ns3:hr>140</ns3:hr>
            <ns3:cad>76</ns3:cad>
          </ns3:TrackPointExtension>
        </extensions>
      </trkpt>
      <trkpt lat="45.29291935265064239501953125" lon="-70.90426362119615077972412109375">
        <ele>635.5999755859375</ele>
        <time>2026-08-21T15:39:17.000Z</time>
        <extensions>
          <ns3:TrackPointExtension>
            <ns3:hr>139</ns3:hr>
            <ns3:cad>76</ns3:cad>
          </ns3:TrackPointExtension>
        </extensions>
      </trkpt>
      <trkpt lat="45.29293770901858806610107421875" lon="-70.90425373055040836334228515625">
        <ele>635.4000244140625</ele>
        <time>2026-08-21T15:39:18.000Z</time>
        <extensions>
          <ns3:TrackPointExtension>
            <ns3:hr>139</ns3:hr>
            <ns3:cad>76</ns3:cad>
          </ns3:TrackPointExtension>
        </extensions>
      </trkpt>
      <trkpt lat="45.29294994659721851348876953125" lon="-70.90424803085625171661376953125">
        <ele>635.4000244140625</ele>
        <time>2026-08-21T15:39:19.000Z</time>
        <extensions>
          <ns3:TrackPointExtension>
            <ns3:hr>138</ns3:hr>
            <ns3:cad>76</ns3:cad>
          </ns3:TrackPointExtension>
        </extensions>
      </trkpt>
      <trkpt lat="45.29296436347067356109619140625" lon="-70.9042393974959850311279296875">
        <ele>635.5999755859375</ele>
        <time>2026-08-21T15:39:20.000Z</time>
        <extensions>
          <ns3:TrackPointExtension>
            <ns3:hr>137</ns3:hr>
            <ns3:cad>0</ns3:cad>
          </ns3:TrackPointExtension>
        </extensions>
      </trkpt>
      <trkpt lat="45.292984731495380401611328125" lon="-70.9042279981076717376708984375">
        <ele>635.5999755859375</ele>
        <time>2026-08-21T15:39:21.000Z</time>
        <extensions>
          <ns3:TrackPointExtension>
            <ns3:hr>135</ns3:hr>
            <ns3:cad>0</ns3:cad>
          </ns3:TrackPointExtension>
        </extensions>
      </trkpt>
      <trkpt lat="45.29300359077751636505126953125" lon="-70.9042162634432315826416015625">
        <ele>635.79998779296875</ele>
        <time>2026-08-21T15:39:22.000Z</time>
        <extensions>
          <ns3:TrackPointExtension>
            <ns3:hr>134</ns3:hr>
            <ns3:cad>0</ns3:cad>
          </ns3:TrackPointExtension>
        </extensions>
      </trkpt>
      <trkpt lat="45.29301415197551250457763671875" lon="-70.9042082168161869049072265625">
        <ele>635.79998779296875</ele>
        <time>2026-08-21T15:39:23.000Z</time>
        <extensions>
          <ns3:TrackPointExtension>
            <ns3:hr>134</ns3:hr>
            <ns3:cad>0</ns3:cad>
          </ns3:TrackPointExtension>
        </extensions>
      </trkpt>
      <trkpt lat="45.29303133487701416015625" lon="-70.9042035229504108428955078125">
        <ele>635.79998779296875</ele>
        <time>2026-08-21T15:39:24.000Z</time>
        <extensions>
          <ns3:TrackPointExtension>
            <ns3:hr>134</ns3:hr>
            <ns3:cad>75</ns3:cad>
          </ns3:TrackPointExtension>
        </extensions>
      </trkpt>
      <trkpt lat="45.29304784722626209259033203125" lon="-70.90419656597077846527099609375">
        <ele>635.79998779296875</ele>
        <time>2026-08-21T15:39:25.000Z</time>
        <extensions>
          <ns3:TrackPointExtension>
            <ns3:hr>133</ns3:hr>
            <ns3:cad>75</ns3:cad>
          </ns3:TrackPointExtension>
        </extensions>
      </trkpt>
      <trkpt lat="45.29306310229003429412841796875" lon="-70.90419522486627101898193359375">
        <ele>635.79998779296875</ele>
        <time>2026-08-21T15:39:26.000Z</time>
        <extensions>
          <ns3:TrackPointExtension>
            <ns3:hr>134</ns3:hr>
            <ns3:cad>75</ns3:cad>
          </ns3:TrackPointExtension>
        </extensions>
      </trkpt>
      <trkpt lat="45.29308221302926540374755859375" lon="-70.90420209802687168121337890625">
        <ele>636</ele>
        <time>2026-08-21T15:39:27.000Z</time>
        <extensions>
          <ns3:TrackPointExtension>
            <ns3:hr>135</ns3:hr>
            <ns3:cad>75</ns3:cad>
          </ns3:TrackPointExtension>
        </extensions>
      </trkpt>
      <trkpt lat="45.2930995635688304901123046875" lon="-70.90420494787395000457763671875">
        <ele>636</ele>
        <time>2026-08-21T15:39:28.000Z</time>
        <extensions>
          <ns3:TrackPointExtension>
            <ns3:hr>136</ns3:hr>
            <ns3:cad>75</ns3:cad>
          </ns3:TrackPointExtension>
        </extensions>
      </trkpt>
      <trkpt lat="45.2931193448603153228759765625" lon="-70.90420997701585292816162109375">
        <ele>636</ele>
        <time>2026-08-21T15:39:29.000Z</time>
        <extensions>
          <ns3:TrackPointExtension>
            <ns3:hr>137</ns3:hr>
            <ns3:cad>75</ns3:cad>
          </ns3:TrackPointExtension>
        </extensions>
      </trkpt>
      <trkpt lat="45.29313803650438785552978515625" lon="-70.9042132459580898284912109375">
        <ele>636</ele>
        <time>2026-08-21T15:39:30.000Z</time>
        <extensions>
          <ns3:TrackPointExtension>
            <ns3:hr>137</ns3:hr>
            <ns3:cad>75</ns3:cad>
          </ns3:TrackPointExtension>
        </extensions>
      </trkpt>
      <trkpt lat="45.2931568957865238189697265625" lon="-70.90420997701585292816162109375">
        <ele>635.79998779296875</ele>
        <time>2026-08-21T15:39:31.000Z</time>
        <extensions>
          <ns3:TrackPointExtension>
            <ns3:hr>137</ns3:hr>
            <ns3:cad>74</ns3:cad>
          </ns3:TrackPointExtension>
        </extensions>
      </trkpt>
      <trkpt lat="45.29317843727767467498779296875" lon="-70.90420595370233058929443359375">
        <ele>635.79998779296875</ele>
        <time>2026-08-21T15:39:32.000Z</time>
        <extensions>
          <ns3:TrackPointExtension>
            <ns3:hr>138</ns3:hr>
            <ns3:cad>74</ns3:cad>
          </ns3:TrackPointExtension>
        </extensions>
      </trkpt>
      <trkpt lat="45.2932001464068889617919921875" lon="-70.90419623069465160369873046875">
        <ele>635.79998779296875</ele>
        <time>2026-08-21T15:39:33.000Z</time>
        <extensions>
          <ns3:TrackPointExtension>
            <ns3:hr>137</ns3:hr>
            <ns3:cad>74</ns3:cad>
          </ns3:TrackPointExtension>
        </extensions>
      </trkpt>
      <trkpt lat="45.29321766458451747894287109375" lon="-70.9041756950318813323974609375">
        <ele>635.5999755859375</ele>
        <time>2026-08-21T15:39:34.000Z</time>
        <extensions>
          <ns3:TrackPointExtension>
            <ns3:hr>137</ns3:hr>
            <ns3:cad>74</ns3:cad>
          </ns3:TrackPointExtension>
        </extensions>
      </trkpt>
      <trkpt lat="45.2932336740195751190185546875" lon="-70.90415281243622303009033203125">
        <ele>635.5999755859375</ele>
        <time>2026-08-21T15:39:35.000Z</time>
        <extensions>
          <ns3:TrackPointExtension>
            <ns3:hr>137</ns3:hr>
            <ns3:cad>74</ns3:cad>
          </ns3:TrackPointExtension>
        </extensions>
      </trkpt>
      <trkpt lat="45.29325001873075962066650390625" lon="-70.90412766672670841217041015625">
        <ele>635.5999755859375</ele>
        <time>2026-08-21T15:39:36.000Z</time>
        <extensions>
          <ns3:TrackPointExtension>
            <ns3:hr>137</ns3:hr>
            <ns3:cad>77</ns3:cad>
          </ns3:TrackPointExtension>
        </extensions>
      </trkpt>
      <trkpt lat="45.2932638488709926605224609375" lon="-70.9041081368923187255859375">
        <ele>635.5999755859375</ele>
        <time>2026-08-21T15:39:37.000Z</time>
        <extensions>
          <ns3:TrackPointExtension>
            <ns3:hr>138</ns3:hr>
            <ns3:cad>77</ns3:cad>
          </ns3:TrackPointExtension>
        </extensions>
      </trkpt>
      <trkpt lat="45.29328010976314544677734375" lon="-70.904091708362102508544921875">
        <ele>635.5999755859375</ele>
        <time>2026-08-21T15:39:38.000Z</time>
        <extensions>
          <ns3:TrackPointExtension>
            <ns3:hr>138</ns3:hr>
            <ns3:cad>77</ns3:cad>
          </ns3:TrackPointExtension>
        </extensions>
      </trkpt>
      <trkpt lat="45.29329754412174224853515625" lon="-70.9040774591267108917236328125">
        <ele>635.4000244140625</ele>
        <time>2026-08-21T15:39:39.000Z</time>
        <extensions>
          <ns3:TrackPointExtension>
            <ns3:hr>138</ns3:hr>
            <ns3:cad>77</ns3:cad>
          </ns3:TrackPointExtension>
        </extensions>
      </trkpt>
      <trkpt lat="45.29331740923225879669189453125" lon="-70.9040627069771289825439453125">
        <ele>635.4000244140625</ele>
        <time>2026-08-21T15:39:40.000Z</time>
        <extensions>
          <ns3:TrackPointExtension>
            <ns3:hr>139</ns3:hr>
            <ns3:cad>77</ns3:cad>
          </ns3:TrackPointExtension>
        </extensions>
      </trkpt>
      <trkpt lat="45.29333735816180706024169921875" lon="-70.9040435962378978729248046875">
        <ele>635.20001220703125</ele>
        <time>2026-08-21T15:39:41.000Z</time>
        <extensions>
          <ns3:TrackPointExtension>
            <ns3:hr>138</ns3:hr>
            <ns3:cad>77</ns3:cad>
          </ns3:TrackPointExtension>
        </extensions>
      </trkpt>
      <trkpt lat="45.293356887996196746826171875" lon="-70.9040234796702861785888671875">
        <ele>635.20001220703125</ele>
        <time>2026-08-21T15:39:42.000Z</time>
        <extensions>
          <ns3:TrackPointExtension>
            <ns3:hr>138</ns3:hr>
            <ns3:cad>77</ns3:cad>
          </ns3:TrackPointExtension>
        </extensions>
      </trkpt>
      <trkpt lat="45.29337666928768157958984375" lon="-70.9040090627968311309814453125">
        <ele>635</ele>
        <time>2026-08-21T15:39:43.000Z</time>
        <extensions>
          <ns3:TrackPointExtension>
            <ns3:hr>138</ns3:hr>
            <ns3:cad>76</ns3:cad>
          </ns3:TrackPointExtension>
        </extensions>
      </trkpt>
      <trkpt lat="45.29339904896914958953857421875" lon="-70.90399825014173984527587890625">
        <ele>634.79998779296875</ele>
        <time>2026-08-21T15:39:44.000Z</time>
        <extensions>
          <ns3:TrackPointExtension>
            <ns3:hr>138</ns3:hr>
            <ns3:cad>76</ns3:cad>
          </ns3:TrackPointExtension>
        </extensions>
      </trkpt>
      <trkpt lat="45.2934194169938564300537109375" lon="-70.903994143009185791015625">
        <ele>634.79998779296875</ele>
        <time>2026-08-21T15:39:45.000Z</time>
        <extensions>
          <ns3:TrackPointExtension>
            <ns3:hr>138</ns3:hr>
            <ns3:cad>76</ns3:cad>
          </ns3:TrackPointExtension>
        </extensions>
      </trkpt>
      <trkpt lat="45.29343576170504093170166015625" lon="-70.90398701839148998260498046875">
        <ele>634.79998779296875</ele>
        <time>2026-08-21T15:39:46.000Z</time>
        <extensions>
          <ns3:TrackPointExtension>
            <ns3:hr>138</ns3:hr>
            <ns3:cad>76</ns3:cad>
          </ns3:TrackPointExtension>
        </extensions>
      </trkpt>
      <trkpt lat="45.29345369897782802581787109375" lon="-70.903983749449253082275390625">
        <ele>634.5999755859375</ele>
        <time>2026-08-21T15:39:47.000Z</time>
        <extensions>
          <ns3:TrackPointExtension>
            <ns3:hr>139</ns3:hr>
            <ns3:cad>76</ns3:cad>
          </ns3:TrackPointExtension>
        </extensions>
      </trkpt>
      <trkpt lat="45.293472893536090850830078125" lon="-70.90397863648831844329833984375">
        <ele>634.5999755859375</ele>
        <time>2026-08-21T15:39:48.000Z</time>
        <extensions>
          <ns3:TrackPointExtension>
            <ns3:hr>139</ns3:hr>
            <ns3:cad>76</ns3:cad>
          </ns3:TrackPointExtension>
        </extensions>
      </trkpt>
      <trkpt lat="45.293488316237926483154296875" lon="-70.90396958403289318084716796875">
        <ele>634.5999755859375</ele>
        <time>2026-08-21T15:39:49.000Z</time>
        <extensions>
          <ns3:TrackPointExtension>
            <ns3:hr>140</ns3:hr>
            <ns3:cad>0</ns3:cad>
          </ns3:TrackPointExtension>
        </extensions>
      </trkpt>
      <trkpt lat="45.293505080044269561767578125" lon="-70.903956256806850433349609375">
        <ele>634.5999755859375</ele>
        <time>2026-08-21T15:39:50.000Z</time>
        <extensions>
          <ns3:TrackPointExtension>
            <ns3:hr>140</ns3:hr>
            <ns3:cad>0</ns3:cad>
          </ns3:TrackPointExtension>
        </extensions>
      </trkpt>
      <trkpt lat="45.29352125711739063262939453125" lon="-70.903946869075298309326171875">
        <ele>634.5999755859375</ele>
        <time>2026-08-21T15:39:51.000Z</time>
        <extensions>
          <ns3:TrackPointExtension>
            <ns3:hr>140</ns3:hr>
            <ns3:cad>0</ns3:cad>
          </ns3:TrackPointExtension>
        </extensions>
      </trkpt>
      <trkpt lat="45.29353684745728969573974609375" lon="-70.9039311110973358154296875">
        <ele>634.5999755859375</ele>
        <time>2026-08-21T15:39:52.000Z</time>
        <extensions>
          <ns3:TrackPointExtension>
            <ns3:hr>140</ns3:hr>
            <ns3:cad>0</ns3:cad>
          </ns3:TrackPointExtension>
        </extensions>
      </trkpt>
      <trkpt lat="45.29354967176914215087890625" lon="-70.9039202146232128143310546875">
        <ele>634.79998779296875</ele>
        <time>2026-08-21T15:39:53.000Z</time>
        <extensions>
          <ns3:TrackPointExtension>
            <ns3:hr>140</ns3:hr>
            <ns3:cad>0</ns3:cad>
          </ns3:TrackPointExtension>
        </extensions>
      </trkpt>
      <trkpt lat="45.29356685467064380645751953125" lon="-70.903908647596836090087890625">
        <ele>634.79998779296875</ele>
        <time>2026-08-21T15:39:54.000Z</time>
        <extensions>
          <ns3:TrackPointExtension>
            <ns3:hr>140</ns3:hr>
            <ns3:cad>0</ns3:cad>
          </ns3:TrackPointExtension>
        </extensions>
      </trkpt>
      <trkpt lat="45.2935810200870037078857421875" lon="-70.90389682911336421966552734375">
        <ele>634.79998779296875</ele>
        <time>2026-08-21T15:39:55.000Z</time>
        <extensions>
          <ns3:TrackPointExtension>
            <ns3:hr>140</ns3:hr>
            <ns3:cad>0</ns3:cad>
          </ns3:TrackPointExtension>
        </extensions>
      </trkpt>
      <trkpt lat="45.29359451495110988616943359375" lon="-70.9038829989731311798095703125">
        <ele>635</ele>
        <time>2026-08-21T15:39:56.000Z</time>
        <extensions>
          <ns3:TrackPointExtension>
            <ns3:hr>140</ns3:hr>
            <ns3:cad>0</ns3:cad>
          </ns3:TrackPointExtension>
        </extensions>
      </trkpt>
      <trkpt lat="45.293597616255283355712890625" lon="-70.90385860763490200042724609375">
        <ele>635</ele>
        <time>2026-08-21T15:39:57.000Z</time>
        <extensions>
          <ns3:TrackPointExtension>
            <ns3:hr>140</ns3:hr>
            <ns3:cad>0</ns3:cad>
          </ns3:TrackPointExtension>
        </extensions>
      </trkpt>
      <trkpt lat="45.29360205866396427154541015625" lon="-70.9038372337818145751953125">
        <ele>634.79998779296875</ele>
        <time>2026-08-21T15:39:58.000Z</time>
        <extensions>
          <ns3:TrackPointExtension>
            <ns3:hr>140</ns3:hr>
            <ns3:cad>0</ns3:cad>
          </ns3:TrackPointExtension>
        </extensions>
      </trkpt>
      <trkpt lat="45.29360071755945682525634765625" lon="-70.9038135968148708343505859375">
        <ele>634.79998779296875</ele>
        <time>2026-08-21T15:39:59.000Z</time>
        <extensions>
          <ns3:TrackPointExtension>
            <ns3:hr>140</ns3:hr>
            <ns3:cad>0</ns3:cad>
          </ns3:TrackPointExtension>
        </extensions>
      </trkpt>
      <trkpt lat="45.29360054992139339447021484375" lon="-70.90378585271537303924560546875">
        <ele>634.5999755859375</ele>
        <time>2026-08-21T15:40:00.000Z</time>
        <extensions>
          <ns3:TrackPointExtension>
            <ns3:hr>140</ns3:hr>
            <ns3:cad>0</ns3:cad>
          </ns3:TrackPointExtension>
        </extensions>
      </trkpt>
      <trkpt lat="45.29359552077949047088623046875" lon="-70.9037673287093639373779296875">
        <ele>634.4000244140625</ele>
        <time>2026-08-21T15:40:01.000Z</time>
        <extensions>
          <ns3:TrackPointExtension>
            <ns3:hr>139</ns3:hr>
            <ns3:cad>0</ns3:cad>
          </ns3:TrackPointExtension>
        </extensions>
      </trkpt>
      <trkpt lat="45.29358814470469951629638671875" lon="-70.9037555940449237823486328125">
        <ele>634.20001220703125</ele>
        <time>2026-08-21T15:40:02.000Z</time>
        <extensions>
          <ns3:TrackPointExtension>
            <ns3:hr>139</ns3:hr>
            <ns3:cad>0</ns3:cad>
          </ns3:TrackPointExtension>
        </extensions>
      </trkpt>
      <trkpt lat="45.29358479194343090057373046875" lon="-70.90374712832272052764892578125">
        <ele>634.20001220703125</ele>
        <time>2026-08-21T15:40:03.000Z</time>
        <extensions>
          <ns3:TrackPointExtension>
            <ns3:hr>140</ns3:hr>
            <ns3:cad>0</ns3:cad>
          </ns3:TrackPointExtension>
        </extensions>
      </trkpt>
      <trkpt lat="45.2935840375721454620361328125" lon="-70.90374042280018329620361328125">
        <ele>634.20001220703125</ele>
        <time>2026-08-21T15:40:04.000Z</time>
        <extensions>
          <ns3:TrackPointExtension>
            <ns3:hr>140</ns3:hr>
            <ns3:cad>0</ns3:cad>
          </ns3:TrackPointExtension>
        </extensions>
      </trkpt>
      <trkpt lat="45.293583534657955169677734375" lon="-70.9037257544696331024169921875">
        <ele>634.20001220703125</ele>
        <time>2026-08-21T15:40:05.000Z</time>
        <extensions>
          <ns3:TrackPointExtension>
            <ns3:hr>141</ns3:hr>
            <ns3:cad>0</ns3:cad>
          </ns3:TrackPointExtension>
        </extensions>
      </trkpt>
      <trkpt lat="45.2935833670198917388916015625" lon="-70.90371024794876575469970703125">
        <ele>634.20001220703125</ele>
        <time>2026-08-21T15:40:06.000Z</time>
        <extensions>
          <ns3:TrackPointExtension>
            <ns3:hr>140</ns3:hr>
            <ns3:cad>0</ns3:cad>
          </ns3:TrackPointExtension>
        </extensions>
      </trkpt>
      <trkpt lat="45.29358680360019207000732421875" lon="-70.9036950767040252685546875">
        <ele>634.20001220703125</ele>
        <time>2026-08-21T15:40:07.000Z</time>
        <extensions>
          <ns3:TrackPointExtension>
            <ns3:hr>140</ns3:hr>
            <ns3:cad>0</ns3:cad>
          </ns3:TrackPointExtension>
        </extensions>
      </trkpt>
      <trkpt lat="45.29358780942857265472412109375" lon="-70.9036768041551113128662109375">
        <ele>634.4000244140625</ele>
        <time>2026-08-21T15:40:08.000Z</time>
        <extensions>
          <ns3:TrackPointExtension>
            <ns3:hr>138</ns3:hr>
            <ns3:cad>56</ns3:cad>
          </ns3:TrackPointExtension>
        </extensions>
      </trkpt>
      <trkpt lat="45.2935920841991901397705078125" lon="-70.90365610085427761077880859375">
        <ele>634.4000244140625</ele>
        <time>2026-08-21T15:40:09.000Z</time>
        <extensions>
          <ns3:TrackPointExtension>
            <ns3:hr>137</ns3:hr>
            <ns3:cad>56</ns3:cad>
          </ns3:TrackPointExtension>
        </extensions>
      </trkpt>
      <trkpt lat="45.29359300620853900909423828125" lon="-70.90364252217113971710205078125">
        <ele>634.20001220703125</ele>
        <time>2026-08-21T15:40:10.000Z</time>
        <extensions>
          <ns3:TrackPointExtension>
            <ns3:hr>137</ns3:hr>
            <ns3:cad>0</ns3:cad>
          </ns3:TrackPointExtension>
        </extensions>
      </trkpt>
      <trkpt lat="45.29359795153141021728515625" lon="-70.90363539755344390869140625">
        <ele>634.20001220703125</ele>
        <time>2026-08-21T15:40:11.000Z</time>
        <extensions>
          <ns3:TrackPointExtension>
            <ns3:hr>137</ns3:hr>
            <ns3:cad>0</ns3:cad>
          </ns3:TrackPointExtension>
        </extensions>
      </trkpt>
      <trkpt lat="45.29360155574977397918701171875" lon="-70.90363263152539730072021484375">
        <ele>634.20001220703125</ele>
        <time>2026-08-21T15:40:12.000Z</time>
        <extensions>
          <ns3:TrackPointExtension>
            <ns3:hr>138</ns3:hr>
            <ns3:cad>0</ns3:cad>
          </ns3:TrackPointExtension>
        </extensions>
      </trkpt>
      <trkpt lat="45.29360926710069179534912109375" lon="-70.9036325477063655853271484375">
        <ele>634.20001220703125</ele>
        <time>2026-08-21T15:40:13.000Z</time>
        <extensions>
          <ns3:TrackPointExtension>
            <ns3:hr>138</ns3:hr>
            <ns3:cad>0</ns3:cad>
          </ns3:TrackPointExtension>
        </extensions>
      </trkpt>
      <trkpt lat="45.29361664317548274993896484375" lon="-70.90362391434609889984130859375">
        <ele>634.20001220703125</ele>
        <time>2026-08-21T15:40:14.000Z</time>
        <extensions>
          <ns3:TrackPointExtension>
            <ns3:hr>138</ns3:hr>
            <ns3:cad>0</ns3:cad>
          </ns3:TrackPointExtension>
        </extensions>
      </trkpt>
      <trkpt lat="45.29363089241087436676025390625" lon="-70.9036181308329105377197265625">
        <ele>634.20001220703125</ele>
        <time>2026-08-21T15:40:15.000Z</time>
        <extensions>
          <ns3:TrackPointExtension>
            <ns3:hr>137</ns3:hr>
            <ns3:cad>0</ns3:cad>
          </ns3:TrackPointExtension>
        </extensions>
      </trkpt>
      <trkpt lat="45.29364296235144138336181640625" lon="-70.9036117605865001678466796875">
        <ele>634.4000244140625</ele>
        <time>2026-08-21T15:40:16.000Z</time>
        <extensions>
          <ns3:TrackPointExtension>
            <ns3:hr>138</ns3:hr>
            <ns3:cad>0</ns3:cad>
          </ns3:TrackPointExtension>
        </extensions>
      </trkpt>
      <trkpt lat="45.293651260435581207275390625" lon="-70.9036097489297389984130859375">
        <ele>634.4000244140625</ele>
        <time>2026-08-21T15:40:17.000Z</time>
        <extensions>
          <ns3:TrackPointExtension>
            <ns3:hr>138</ns3:hr>
            <ns3:cad>0</ns3:cad>
          </ns3:TrackPointExtension>
        </extensions>
      </trkpt>
      <trkpt lat="45.293655954301357269287109375" lon="-70.9036120958626270294189453125">
        <ele>634.4000244140625</ele>
        <time>2026-08-21T15:40:18.000Z</time>
        <extensions>
          <ns3:TrackPointExtension>
            <ns3:hr>137</ns3:hr>
            <ns3:cad>0</ns3:cad>
          </ns3:TrackPointExtension>
        </extensions>
      </trkpt>
      <trkpt lat="45.29366861097514629364013671875" lon="-70.9036241658031940460205078125">
        <ele>634.4000244140625</ele>
        <time>2026-08-21T15:40:19.000Z</time>
        <extensions>
          <ns3:TrackPointExtension>
            <ns3:hr>138</ns3:hr>
            <ns3:cad>0</ns3:cad>
          </ns3:TrackPointExtension>
        </extensions>
      </trkpt>
      <trkpt lat="45.29368571005761623382568359375" lon="-70.90363028459250926971435546875">
        <ele>634.4000244140625</ele>
        <time>2026-08-21T15:40:20.000Z</time>
        <extensions>
          <ns3:TrackPointExtension>
            <ns3:hr>138</ns3:hr>
            <ns3:cad>0</ns3:cad>
          </ns3:TrackPointExtension>
        </extensions>
      </trkpt>
      <trkpt lat="45.293700881302356719970703125" lon="-70.90363732539117336273193359375">
        <ele>634.4000244140625</ele>
        <time>2026-08-21T15:40:21.000Z</time>
        <extensions>
          <ns3:TrackPointExtension>
            <ns3:hr>138</ns3:hr>
            <ns3:cad>0</ns3:cad>
          </ns3:TrackPointExtension>
        </extensions>
      </trkpt>
      <trkpt lat="45.29371320270001888275146484375" lon="-70.90364403091371059417724609375">
        <ele>634.4000244140625</ele>
        <time>2026-08-21T15:40:22.000Z</time>
        <extensions>
          <ns3:TrackPointExtension>
            <ns3:hr>137</ns3:hr>
            <ns3:cad>0</ns3:cad>
          </ns3:TrackPointExtension>
        </extensions>
      </trkpt>
      <trkpt lat="45.29372761957347393035888671875" lon="-70.90365350246429443359375">
        <ele>634.20001220703125</ele>
        <time>2026-08-21T15:40:23.000Z</time>
        <extensions>
          <ns3:TrackPointExtension>
            <ns3:hr>138</ns3:hr>
            <ns3:cad>0</ns3:cad>
          </ns3:TrackPointExtension>
        </extensions>
      </trkpt>
      <trkpt lat="45.29373700730502605438232421875" lon="-70.903658531606197357177734375">
        <ele>634</ele>
        <time>2026-08-21T15:40:24.000Z</time>
        <extensions>
          <ns3:TrackPointExtension>
            <ns3:hr>138</ns3:hr>
            <ns3:cad>0</ns3:cad>
          </ns3:TrackPointExtension>
        </extensions>
      </trkpt>
      <trkpt lat="45.29375016689300537109375" lon="-70.90366465039551258087158203125">
        <ele>634</ele>
        <time>2026-08-21T15:40:25.000Z</time>
        <extensions>
          <ns3:TrackPointExtension>
            <ns3:hr>138</ns3:hr>
            <ns3:cad>0</ns3:cad>
          </ns3:TrackPointExtension>
        </extensions>
      </trkpt>
      <trkpt lat="45.2937654219567775726318359375" lon="-70.90366062708199024200439453125">
        <ele>634.20001220703125</ele>
        <time>2026-08-21T15:40:26.000Z</time>
        <extensions>
          <ns3:TrackPointExtension>
            <ns3:hr>138</ns3:hr>
            <ns3:cad>0</ns3:cad>
          </ns3:TrackPointExtension>
        </extensions>
      </trkpt>
      <trkpt lat="45.29378294013440608978271484375" lon="-70.903653837740421295166015625">
        <ele>634.20001220703125</ele>
        <time>2026-08-21T15:40:27.000Z</time>
        <extensions>
          <ns3:TrackPointExtension>
            <ns3:hr>138</ns3:hr>
            <ns3:cad>0</ns3:cad>
          </ns3:TrackPointExtension>
        </extensions>
      </trkpt>
      <trkpt lat="45.29378981329500675201416015625" lon="-70.9036429412662982940673828125">
        <ele>634.20001220703125</ele>
        <time>2026-08-21T15:40:28.000Z</time>
        <extensions>
          <ns3:TrackPointExtension>
            <ns3:hr>137</ns3:hr>
            <ns3:cad>0</ns3:cad>
          </ns3:TrackPointExtension>
        </extensions>
      </trkpt>
      <trkpt lat="45.29379920102655887603759765625" lon="-70.9036333858966827392578125">
        <ele>634</ele>
        <time>2026-08-21T15:40:29.000Z</time>
        <extensions>
          <ns3:TrackPointExtension>
            <ns3:hr>137</ns3:hr>
            <ns3:cad>0</ns3:cad>
          </ns3:TrackPointExtension>
        </extensions>
      </trkpt>
      <trkpt lat="45.293808169662952423095703125" lon="-70.9036199748516082763671875">
        <ele>634</ele>
        <time>2026-08-21T15:40:30.000Z</time>
        <extensions>
          <ns3:TrackPointExtension>
            <ns3:hr>137</ns3:hr>
            <ns3:cad>62</ns3:cad>
          </ns3:TrackPointExtension>
        </extensions>
      </trkpt>
      <trkpt lat="45.2938147075474262237548828125" lon="-70.903606899082660675048828125">
        <ele>634</ele>
        <time>2026-08-21T15:40:31.000Z</time>
        <extensions>
          <ns3:TrackPointExtension>
            <ns3:hr>135</ns3:hr>
            <ns3:cad>62</ns3:cad>
          </ns3:TrackPointExtension>
        </extensions>
      </trkpt>
      <trkpt lat="45.29381923377513885498046875" lon="-70.90359055437147617340087890625">
        <ele>634</ele>
        <time>2026-08-21T15:40:32.000Z</time>
        <extensions>
          <ns3:TrackPointExtension>
            <ns3:hr>134</ns3:hr>
            <ns3:cad>62</ns3:cad>
          </ns3:TrackPointExtension>
        </extensions>
      </trkpt>
      <trkpt lat="45.29382568784058094024658203125" lon="-70.9035770595073699951171875">
        <ele>634</ele>
        <time>2026-08-21T15:40:33.000Z</time>
        <extensions>
          <ns3:TrackPointExtension>
            <ns3:hr>134</ns3:hr>
            <ns3:cad>62</ns3:cad>
          </ns3:TrackPointExtension>
        </extensions>
      </trkpt>
      <trkpt lat="45.293833650648593902587890625" lon="-70.90356322936713695526123046875">
        <ele>634</ele>
        <time>2026-08-21T15:40:34.000Z</time>
        <extensions>
          <ns3:TrackPointExtension>
            <ns3:hr>134</ns3:hr>
            <ns3:cad>58</ns3:cad>
          </ns3:TrackPointExtension>
        </extensions>
      </trkpt>
      <trkpt lat="45.2938435412943363189697265625" lon="-70.90354059822857379913330078125">
        <ele>633.79998779296875</ele>
        <time>2026-08-21T15:40:35.000Z</time>
        <extensions>
          <ns3:TrackPointExtension>
            <ns3:hr>134</ns3:hr>
            <ns3:cad>58</ns3:cad>
          </ns3:TrackPointExtension>
        </extensions>
      </trkpt>
      <trkpt lat="45.29385284520685672760009765625" lon="-70.90352869592607021331787109375">
        <ele>633.79998779296875</ele>
        <time>2026-08-21T15:40:36.000Z</time>
        <extensions>
          <ns3:TrackPointExtension>
            <ns3:hr>135</ns3:hr>
            <ns3:cad>58</ns3:cad>
          </ns3:TrackPointExtension>
        </extensions>
      </trkpt>
      <trkpt lat="45.29386424459517002105712890625" lon="-70.90351662598550319671630859375">
        <ele>633.79998779296875</ele>
        <time>2026-08-21T15:40:37.000Z</time>
        <extensions>
          <ns3:TrackPointExtension>
            <ns3:hr>136</ns3:hr>
            <ns3:cad>55</ns3:cad>
          </ns3:TrackPointExtension>
        </extensions>
      </trkpt>
      <trkpt lat="45.29387363232672214508056640625" lon="-70.90350874699652194976806640625">
        <ele>633.5999755859375</ele>
        <time>2026-08-21T15:40:38.000Z</time>
        <extensions>
          <ns3:TrackPointExtension>
            <ns3:hr>136</ns3:hr>
            <ns3:cad>55</ns3:cad>
          </ns3:TrackPointExtension>
        </extensions>
      </trkpt>
      <trkpt lat="45.29388419352471828460693359375" lon="-70.90349902398884296417236328125">
        <ele>633.5999755859375</ele>
        <time>2026-08-21T15:40:39.000Z</time>
        <extensions>
          <ns3:TrackPointExtension>
            <ns3:hr>136</ns3:hr>
            <ns3:cad>53</ns3:cad>
          </ns3:TrackPointExtension>
        </extensions>
      </trkpt>
      <trkpt lat="45.2938981913030147552490234375" lon="-70.903487540781497955322265625">
        <ele>633.5999755859375</ele>
        <time>2026-08-21T15:40:40.000Z</time>
        <extensions>
          <ns3:TrackPointExtension>
            <ns3:hr>136</ns3:hr>
            <ns3:cad>53</ns3:cad>
          </ns3:TrackPointExtension>
        </extensions>
      </trkpt>
      <trkpt lat="45.29390900395810604095458984375" lon="-70.9034799970686435699462890625">
        <ele>633.5999755859375</ele>
        <time>2026-08-21T15:40:41.000Z</time>
        <extensions>
          <ns3:TrackPointExtension>
            <ns3:hr>136</ns3:hr>
            <ns3:cad>53</ns3:cad>
          </ns3:TrackPointExtension>
        </extensions>
      </trkpt>
      <trkpt lat="45.29392476193606853485107421875" lon="-70.903473794460296630859375">
        <ele>633.5999755859375</ele>
        <time>2026-08-21T15:40:42.000Z</time>
        <extensions>
          <ns3:TrackPointExtension>
            <ns3:hr>136</ns3:hr>
            <ns3:cad>53</ns3:cad>
          </ns3:TrackPointExtension>
        </extensions>
      </trkpt>
      <trkpt lat="45.29393800534307956695556640625" lon="-70.9034689329564571380615234375">
        <ele>633.5999755859375</ele>
        <time>2026-08-21T15:40:43.000Z</time>
        <extensions>
          <ns3:TrackPointExtension>
            <ns3:hr>136</ns3:hr>
            <ns3:cad>53</ns3:cad>
          </ns3:TrackPointExtension>
        </extensions>
      </trkpt>
      <trkpt lat="45.29394538141787052154541015625" lon="-70.9034531749784946441650390625">
        <ele>633.5999755859375</ele>
        <time>2026-08-21T15:40:44.000Z</time>
        <extensions>
          <ns3:TrackPointExtension>
            <ns3:hr>136</ns3:hr>
            <ns3:cad>58</ns3:cad>
          </ns3:TrackPointExtension>
        </extensions>
      </trkpt>
      <trkpt lat="45.29395074583590030670166015625" lon="-70.90343213640153408050537109375">
        <ele>633.5999755859375</ele>
        <time>2026-08-21T15:40:45.000Z</time>
        <extensions>
          <ns3:TrackPointExtension>
            <ns3:hr>136</ns3:hr>
            <ns3:cad>58</ns3:cad>
          </ns3:TrackPointExtension>
        </extensions>
      </trkpt>
      <trkpt lat="45.29395644553005695343017578125" lon="-70.90341118164360523223876953125">
        <ele>633.4000244140625</ele>
        <time>2026-08-21T15:40:46.000Z</time>
        <extensions>
          <ns3:TrackPointExtension>
            <ns3:hr>136</ns3:hr>
            <ns3:cad>57</ns3:cad>
          </ns3:TrackPointExtension>
        </extensions>
      </trkpt>
      <trkpt lat="45.293962396681308746337890625" lon="-70.90339131653308868408203125">
        <ele>633.4000244140625</ele>
        <time>2026-08-21T15:40:47.000Z</time>
        <extensions>
          <ns3:TrackPointExtension>
            <ns3:hr>136</ns3:hr>
            <ns3:cad>56</ns3:cad>
          </ns3:TrackPointExtension>
        </extensions>
      </trkpt>
      <trkpt lat="45.29396516270935535430908203125" lon="-70.90336181223392486572265625">
        <ele>633.5999755859375</ele>
        <time>2026-08-21T15:40:48.000Z</time>
        <extensions>
          <ns3:TrackPointExtension>
            <ns3:hr>136</ns3:hr>
            <ns3:cad>56</ns3:cad>
          </ns3:TrackPointExtension>
        </extensions>
      </trkpt>
      <trkpt lat="45.29396549798548221588134765625" lon="-70.90332920663058757781982421875">
        <ele>633.5999755859375</ele>
        <time>2026-08-21T15:40:49.000Z</time>
        <extensions>
          <ns3:TrackPointExtension>
            <ns3:hr>136</ns3:hr>
            <ns3:cad>56</ns3:cad>
          </ns3:TrackPointExtension>
        </extensions>
      </trkpt>
      <trkpt lat="45.29396683908998966217041015625" lon="-70.90330322273075580596923828125">
        <ele>633.79998779296875</ele>
        <time>2026-08-21T15:40:50.000Z</time>
        <extensions>
          <ns3:TrackPointExtension>
            <ns3:hr>136</ns3:hr>
            <ns3:cad>56</ns3:cad>
          </ns3:TrackPointExtension>
        </extensions>
      </trkpt>
      <trkpt lat="45.29397639445960521697998046875" lon="-70.9032632410526275634765625">
        <ele>634</ele>
        <time>2026-08-21T15:40:51.000Z</time>
        <extensions>
          <ns3:TrackPointExtension>
            <ns3:hr>136</ns3:hr>
            <ns3:cad>56</ns3:cad>
          </ns3:TrackPointExtension>
        </extensions>
      </trkpt>
      <trkpt lat="45.2939803339540958404541015625" lon="-70.9032446332275867462158203125">
        <ele>634.20001220703125</ele>
        <time>2026-08-21T15:40:52.000Z</time>
        <extensions>
          <ns3:TrackPointExtension>
            <ns3:hr>136</ns3:hr>
            <ns3:cad>56</ns3:cad>
          </ns3:TrackPointExtension>
        </extensions>
      </trkpt>
      <trkpt lat="45.29398687183856964111328125" lon="-70.9032255224883556365966796875">
        <ele>634.4000244140625</ele>
        <time>2026-08-21T15:40:53.000Z</time>
        <extensions>
          <ns3:TrackPointExtension>
            <ns3:hr>136</ns3:hr>
            <ns3:cad>56</ns3:cad>
          </ns3:TrackPointExtension>
        </extensions>
      </trkpt>
      <trkpt lat="45.2939947508275508880615234375" lon="-70.9032147936522960662841796875">
        <ele>634.20001220703125</ele>
        <time>2026-08-21T15:40:54.000Z</time>
        <extensions>
          <ns3:TrackPointExtension>
            <ns3:hr>137</ns3:hr>
            <ns3:cad>56</ns3:cad>
          </ns3:TrackPointExtension>
        </extensions>
      </trkpt>
      <trkpt lat="45.29400698840618133544921875" lon="-70.903213284909725189208984375">
        <ele>634</ele>
        <time>2026-08-21T15:40:55.000Z</time>
        <extensions>
          <ns3:TrackPointExtension>
            <ns3:hr>137</ns3:hr>
            <ns3:cad>56</ns3:cad>
          </ns3:TrackPointExtension>
        </extensions>
      </trkpt>
      <trkpt lat="45.2940219081938266754150390625" lon="-70.90321621857583522796630859375">
        <ele>633.79998779296875</ele>
        <time>2026-08-21T15:40:56.000Z</time>
        <extensions>
          <ns3:TrackPointExtension>
            <ns3:hr>137</ns3:hr>
            <ns3:cad>0</ns3:cad>
          </ns3:TrackPointExtension>
        </extensions>
      </trkpt>
      <trkpt lat="45.294032804667949676513671875" lon="-70.9032121114432811737060546875">
        <ele>633.5999755859375</ele>
        <time>2026-08-21T15:40:57.000Z</time>
        <extensions>
          <ns3:TrackPointExtension>
            <ns3:hr>137</ns3:hr>
            <ns3:cad>0</ns3:cad>
          </ns3:TrackPointExtension>
        </extensions>
      </trkpt>
      <trkpt lat="45.2940403483808040618896484375" lon="-70.90320046059787273406982421875">
        <ele>633.4000244140625</ele>
        <time>2026-08-21T15:40:58.000Z</time>
        <extensions>
          <ns3:TrackPointExtension>
            <ns3:hr>137</ns3:hr>
            <ns3:cad>0</ns3:cad>
          </ns3:TrackPointExtension>
        </extensions>
      </trkpt>
      <trkpt lat="45.29404613189399242401123046875" lon="-70.903184451162815093994140625">
        <ele>633.4000244140625</ele>
        <time>2026-08-21T15:40:59.000Z</time>
        <extensions>
          <ns3:TrackPointExtension>
            <ns3:hr>137</ns3:hr>
            <ns3:cad>0</ns3:cad>
          </ns3:TrackPointExtension>
        </extensions>
      </trkpt>
      <trkpt lat="45.2940473891794681549072265625" lon="-70.90316391550004482269287109375">
        <ele>633.4000244140625</ele>
        <time>2026-08-21T15:41:00.000Z</time>
        <extensions>
          <ns3:TrackPointExtension>
            <ns3:hr>136</ns3:hr>
            <ns3:cad>0</ns3:cad>
          </ns3:TrackPointExtension>
        </extensions>
      </trkpt>
      <trkpt lat="45.2940497361123561859130859375" lon="-70.90314128436148166656494140625">
        <ele>633.4000244140625</ele>
        <time>2026-08-21T15:41:01.000Z</time>
        <extensions>
          <ns3:TrackPointExtension>
            <ns3:hr>136</ns3:hr>
            <ns3:cad>0</ns3:cad>
          </ns3:TrackPointExtension>
        </extensions>
      </trkpt>
      <trkpt lat="45.2940504066646099090576171875" lon="-70.90312385000288486480712890625">
        <ele>633.4000244140625</ele>
        <time>2026-08-21T15:41:02.000Z</time>
        <extensions>
          <ns3:TrackPointExtension>
            <ns3:hr>137</ns3:hr>
            <ns3:cad>0</ns3:cad>
          </ns3:TrackPointExtension>
        </extensions>
      </trkpt>
      <trkpt lat="45.29405736364424228668212890625" lon="-70.90310557745397090911865234375">
        <ele>633.5999755859375</ele>
        <time>2026-08-21T15:41:03.000Z</time>
        <extensions>
          <ns3:TrackPointExtension>
            <ns3:hr>137</ns3:hr>
            <ns3:cad>0</ns3:cad>
          </ns3:TrackPointExtension>
        </extensions>
      </trkpt>
      <trkpt lat="45.29406708665192127227783203125" lon="-70.90309753082692623138427734375">
        <ele>633.5999755859375</ele>
        <time>2026-08-21T15:41:04.000Z</time>
        <extensions>
          <ns3:TrackPointExtension>
            <ns3:hr>137</ns3:hr>
            <ns3:cad>59</ns3:cad>
          </ns3:TrackPointExtension>
        </extensions>
      </trkpt>
      <trkpt lat="45.29407848604023456573486328125" lon="-70.90308831073343753814697265625">
        <ele>633.79998779296875</ele>
        <time>2026-08-21T15:41:05.000Z</time>
        <extensions>
          <ns3:TrackPointExtension>
            <ns3:hr>137</ns3:hr>
            <ns3:cad>59</ns3:cad>
          </ns3:TrackPointExtension>
        </extensions>
      </trkpt>
      <trkpt lat="45.29408586211502552032470703125" lon="-70.90308294631540775299072265625">
        <ele>634</ele>
        <time>2026-08-21T15:41:06.000Z</time>
        <extensions>
          <ns3:TrackPointExtension>
            <ns3:hr>137</ns3:hr>
            <ns3:cad>59</ns3:cad>
          </ns3:TrackPointExtension>
        </extensions>
      </trkpt>
      <trkpt lat="45.294098518788814544677734375" lon="-70.90307473205029964447021484375">
        <ele>634.20001220703125</ele>
        <time>2026-08-21T15:41:07.000Z</time>
        <extensions>
          <ns3:TrackPointExtension>
            <ns3:hr>136</ns3:hr>
            <ns3:cad>59</ns3:cad>
          </ns3:TrackPointExtension>
        </extensions>
      </trkpt>
      <trkpt lat="45.294113270938396453857421875" lon="-70.903071463108062744140625">
        <ele>634.20001220703125</ele>
        <time>2026-08-21T15:41:08.000Z</time>
        <extensions>
          <ns3:TrackPointExtension>
            <ns3:hr>135</ns3:hr>
            <ns3:cad>59</ns3:cad>
          </ns3:TrackPointExtension>
        </extensions>
      </trkpt>
      <trkpt lat="45.2941271848976612091064453125" lon="-70.90307221747934818267822265625">
        <ele>634.20001220703125</ele>
        <time>2026-08-21T15:41:09.000Z</time>
        <extensions>
          <ns3:TrackPointExtension>
            <ns3:hr>135</ns3:hr>
            <ns3:cad>59</ns3:cad>
          </ns3:TrackPointExtension>
        </extensions>
      </trkpt>
      <trkpt lat="45.294142775237560272216796875" lon="-70.903067775070667266845703125">
        <ele>634.20001220703125</ele>
        <time>2026-08-21T15:41:10.000Z</time>
        <extensions>
          <ns3:TrackPointExtension>
            <ns3:hr>134</ns3:hr>
            <ns3:cad>59</ns3:cad>
          </ns3:TrackPointExtension>
        </extensions>
      </trkpt>
      <trkpt lat="45.294156856834888458251953125" lon="-70.90306484140455722808837890625">
        <ele>634.20001220703125</ele>
        <time>2026-08-21T15:41:11.000Z</time>
        <extensions>
          <ns3:TrackPointExtension>
            <ns3:hr>134</ns3:hr>
            <ns3:cad>59</ns3:cad>
          </ns3:TrackPointExtension>
        </extensions>
      </trkpt>
      <trkpt lat="45.29417320154607295989990234375" lon="-70.90306333266198635101318359375">
        <ele>634</ele>
        <time>2026-08-21T15:41:12.000Z</time>
        <extensions>
          <ns3:TrackPointExtension>
            <ns3:hr>134</ns3:hr>
            <ns3:cad>59</ns3:cad>
          </ns3:TrackPointExtension>
        </extensions>
      </trkpt>
      <trkpt lat="45.29418937861919403076171875" lon="-70.90306115336716175079345703125">
        <ele>634</ele>
        <time>2026-08-21T15:41:13.000Z</time>
        <extensions>
          <ns3:TrackPointExtension>
            <ns3:hr>134</ns3:hr>
            <ns3:cad>0</ns3:cad>
          </ns3:TrackPointExtension>
        </extensions>
      </trkpt>
      <trkpt lat="45.29420153237879276275634765625" lon="-70.90306886471807956695556640625">
        <ele>633.79998779296875</ele>
        <time>2026-08-21T15:41:14.000Z</time>
        <extensions>
          <ns3:TrackPointExtension>
            <ns3:hr>135</ns3:hr>
            <ns3:cad>0</ns3:cad>
          </ns3:TrackPointExtension>
        </extensions>
      </trkpt>
      <trkpt lat="45.29421427287161350250244140625" lon="-70.90307238511741161346435546875">
        <ele>633.79998779296875</ele>
        <time>2026-08-21T15:41:15.000Z</time>
        <extensions>
          <ns3:TrackPointExtension>
            <ns3:hr>135</ns3:hr>
            <ns3:cad>60</ns3:cad>
          </ns3:TrackPointExtension>
        </extensions>
      </trkpt>
      <trkpt lat="45.2942348085343837738037109375" lon="-70.90307288803160190582275390625">
        <ele>633.79998779296875</ele>
        <time>2026-08-21T15:41:16.000Z</time>
        <extensions>
          <ns3:TrackPointExtension>
            <ns3:hr>136</ns3:hr>
            <ns3:cad>60</ns3:cad>
          </ns3:TrackPointExtension>
        </extensions>
      </trkpt>
      <trkpt lat="45.2942539192736148834228515625" lon="-70.90307372622191905975341796875">
        <ele>633.79998779296875</ele>
        <time>2026-08-21T15:41:17.000Z</time>
        <extensions>
          <ns3:TrackPointExtension>
            <ns3:hr>136</ns3:hr>
            <ns3:cad>60</ns3:cad>
          </ns3:TrackPointExtension>
        </extensions>
      </trkpt>
      <trkpt lat="45.29427118599414825439453125" lon="-70.90306551195681095123291015625">
        <ele>633.79998779296875</ele>
        <time>2026-08-21T15:41:18.000Z</time>
        <extensions>
          <ns3:TrackPointExtension>
            <ns3:hr>136</ns3:hr>
            <ns3:cad>0</ns3:cad>
          </ns3:TrackPointExtension>
        </extensions>
      </trkpt>
      <trkpt lat="45.29428786598145961761474609375" lon="-70.903054364025592803955078125">
        <ele>633.5999755859375</ele>
        <time>2026-08-21T15:41:19.000Z</time>
        <extensions>
          <ns3:TrackPointExtension>
            <ns3:hr>136</ns3:hr>
            <ns3:cad>0</ns3:cad>
          </ns3:TrackPointExtension>
        </extensions>
      </trkpt>
      <trkpt lat="45.294303037226200103759765625" lon="-70.90304103679955005645751953125">
        <ele>633.5999755859375</ele>
        <time>2026-08-21T15:41:20.000Z</time>
        <extensions>
          <ns3:TrackPointExtension>
            <ns3:hr>135</ns3:hr>
            <ns3:cad>0</ns3:cad>
          </ns3:TrackPointExtension>
        </extensions>
      </trkpt>
      <trkpt lat="45.29431544244289398193359375" lon="-70.90303399600088596343994140625">
        <ele>633.5999755859375</ele>
        <time>2026-08-21T15:41:21.000Z</time>
        <extensions>
          <ns3:TrackPointExtension>
            <ns3:hr>135</ns3:hr>
            <ns3:cad>0</ns3:cad>
          </ns3:TrackPointExtension>
        </extensions>
      </trkpt>
      <trkpt lat="45.29433287680149078369140625" lon="-70.90302863158285617828369140625">
        <ele>633.4000244140625</ele>
        <time>2026-08-21T15:41:22.000Z</time>
        <extensions>
          <ns3:TrackPointExtension>
            <ns3:hr>136</ns3:hr>
            <ns3:cad>0</ns3:cad>
          </ns3:TrackPointExtension>
        </extensions>
      </trkpt>
      <trkpt lat="45.29434234835207462310791015625" lon="-70.90302594937384128570556640625">
        <ele>633.4000244140625</ele>
        <time>2026-08-21T15:41:23.000Z</time>
        <extensions>
          <ns3:TrackPointExtension>
            <ns3:hr>136</ns3:hr>
            <ns3:cad>0</ns3:cad>
          </ns3:TrackPointExtension>
        </extensions>
      </trkpt>
      <trkpt lat="45.294353328645229339599609375" lon="-70.9030270390212535858154296875">
        <ele>633.4000244140625</ele>
        <time>2026-08-21T15:41:24.000Z</time>
        <extensions>
          <ns3:TrackPointExtension>
            <ns3:hr>136</ns3:hr>
            <ns3:cad>0</ns3:cad>
          </ns3:TrackPointExtension>
        </extensions>
      </trkpt>
      <trkpt lat="45.29437285847961902618408203125" lon="-70.90302812866866588592529296875">
        <ele>633.4000244140625</ele>
        <time>2026-08-21T15:41:25.000Z</time>
        <extensions>
          <ns3:TrackPointExtension>
            <ns3:hr>136</ns3:hr>
            <ns3:cad>0</ns3:cad>
          </ns3:TrackPointExtension>
        </extensions>
      </trkpt>
      <trkpt lat="45.2943880297243595123291015625" lon="-70.9030163101851940155029296875">
        <ele>633.4000244140625</ele>
        <time>2026-08-21T15:41:26.000Z</time>
        <extensions>
          <ns3:TrackPointExtension>
            <ns3:hr>136</ns3:hr>
            <ns3:cad>52</ns3:cad>
          </ns3:TrackPointExtension>
        </extensions>
      </trkpt>
      <trkpt lat="45.294401943683624267578125" lon="-70.903011448681354522705078125">
        <ele>633.5999755859375</ele>
        <time>2026-08-21T15:41:27.000Z</time>
        <extensions>
          <ns3:TrackPointExtension>
            <ns3:hr>136</ns3:hr>
            <ns3:cad>52</ns3:cad>
          </ns3:TrackPointExtension>
        </extensions>
      </trkpt>
      <trkpt lat="45.29441510327160358428955078125" lon="-70.90301186777651309967041015625">
        <ele>633.5999755859375</ele>
        <time>2026-08-21T15:41:28.000Z</time>
        <extensions>
          <ns3:TrackPointExtension>
            <ns3:hr>136</ns3:hr>
            <ns3:cad>0</ns3:cad>
          </ns3:TrackPointExtension>
        </extensions>
      </trkpt>
      <trkpt lat="45.29443102888762950897216796875" lon="-70.90301639400422573089599609375">
        <ele>633.5999755859375</ele>
        <time>2026-08-21T15:41:29.000Z</time>
        <extensions>
          <ns3:TrackPointExtension>
            <ns3:hr>135</ns3:hr>
            <ns3:cad>0</ns3:cad>
          </ns3:TrackPointExtension>
        </extensions>
      </trkpt>
      <trkpt lat="45.29444712214171886444091796875" lon="-70.9030153043568134307861328125">
        <ele>633.79998779296875</ele>
        <time>2026-08-21T15:41:30.000Z</time>
        <extensions>
          <ns3:TrackPointExtension>
            <ns3:hr>134</ns3:hr>
            <ns3:cad>0</ns3:cad>
          </ns3:TrackPointExtension>
        </extensions>
      </trkpt>
      <trkpt lat="45.2944634668529033660888671875" lon="-70.903011448681354522705078125">
        <ele>633.79998779296875</ele>
        <time>2026-08-21T15:41:31.000Z</time>
        <extensions>
          <ns3:TrackPointExtension>
            <ns3:hr>134</ns3:hr>
            <ns3:cad>0</ns3:cad>
          </ns3:TrackPointExtension>
        </extensions>
      </trkpt>
      <trkpt lat="45.29447981156408786773681640625" lon="-70.903008095920085906982421875">
        <ele>633.79998779296875</ele>
        <time>2026-08-21T15:41:32.000Z</time>
        <extensions>
          <ns3:TrackPointExtension>
            <ns3:hr>133</ns3:hr>
            <ns3:cad>0</ns3:cad>
          </ns3:TrackPointExtension>
        </extensions>
      </trkpt>
      <trkpt lat="45.29449255205690860748291015625" lon="-70.90300600044429302215576171875">
        <ele>633.5999755859375</ele>
        <time>2026-08-21T15:41:33.000Z</time>
        <extensions>
          <ns3:TrackPointExtension>
            <ns3:hr>133</ns3:hr>
            <ns3:cad>68</ns3:cad>
          </ns3:TrackPointExtension>
        </extensions>
      </trkpt>
      <trkpt lat="45.29450562782585620880126953125" lon="-70.90299761854112148284912109375">
        <ele>633.5999755859375</ele>
        <time>2026-08-21T15:41:34.000Z</time>
        <extensions>
          <ns3:TrackPointExtension>
            <ns3:hr>133</ns3:hr>
            <ns3:cad>68</ns3:cad>
          </ns3:TrackPointExtension>
        </extensions>
      </trkpt>
      <trkpt lat="45.294518955051898956298828125" lon="-70.90298362076282501220703125">
        <ele>633.4000244140625</ele>
        <time>2026-08-21T15:41:35.000Z</time>
        <extensions>
          <ns3:TrackPointExtension>
            <ns3:hr>133</ns3:hr>
            <ns3:cad>68</ns3:cad>
          </ns3:TrackPointExtension>
        </extensions>
      </trkpt>
      <trkpt lat="45.2945338748395442962646484375" lon="-70.90296710841357707977294921875">
        <ele>633.4000244140625</ele>
        <time>2026-08-21T15:41:36.000Z</time>
        <extensions>
          <ns3:TrackPointExtension>
            <ns3:hr>133</ns3:hr>
            <ns3:cad>68</ns3:cad>
          </ns3:TrackPointExtension>
        </extensions>
      </trkpt>
      <trkpt lat="45.294549129903316497802734375" lon="-70.902950763702392578125">
        <ele>633.4000244140625</ele>
        <time>2026-08-21T15:41:37.000Z</time>
        <extensions>
          <ns3:TrackPointExtension>
            <ns3:hr>132</ns3:hr>
            <ns3:cad>68</ns3:cad>
          </ns3:TrackPointExtension>
        </extensions>
      </trkpt>
      <trkpt lat="45.29456430114805698394775390625" lon="-70.90293425135314464569091796875">
        <ele>633.4000244140625</ele>
        <time>2026-08-21T15:41:38.000Z</time>
        <extensions>
          <ns3:TrackPointExtension>
            <ns3:hr>132</ns3:hr>
            <ns3:cad>68</ns3:cad>
          </ns3:TrackPointExtension>
        </extensions>
      </trkpt>
      <trkpt lat="45.29457855038344860076904296875" lon="-70.90291815809905529022216796875">
        <ele>633.4000244140625</ele>
        <time>2026-08-21T15:41:39.000Z</time>
        <extensions>
          <ns3:TrackPointExtension>
            <ns3:hr>132</ns3:hr>
            <ns3:cad>68</ns3:cad>
          </ns3:TrackPointExtension>
        </extensions>
      </trkpt>
      <trkpt lat="45.2945945598185062408447265625" lon="-70.90290273539721965789794921875">
        <ele>633.4000244140625</ele>
        <time>2026-08-21T15:41:40.000Z</time>
        <extensions>
          <ns3:TrackPointExtension>
            <ns3:hr>132</ns3:hr>
            <ns3:cad>0</ns3:cad>
          </ns3:TrackPointExtension>
        </extensions>
      </trkpt>
      <trkpt lat="45.294606797397136688232421875" lon="-70.90287641622126102447509765625">
        <ele>633</ele>
        <time>2026-08-21T15:41:41.000Z</time>
        <extensions>
          <ns3:TrackPointExtension>
            <ns3:hr>132</ns3:hr>
            <ns3:cad>0</ns3:cad>
          </ns3:TrackPointExtension>
        </extensions>
      </trkpt>
      <trkpt lat="45.29462062753736972808837890625" lon="-70.90285814367234706878662109375">
        <ele>632.79998779296875</ele>
        <time>2026-08-21T15:41:42.000Z</time>
        <extensions>
          <ns3:TrackPointExtension>
            <ns3:hr>132</ns3:hr>
            <ns3:cad>0</ns3:cad>
          </ns3:TrackPointExtension>
        </extensions>
      </trkpt>
      <trkpt lat="45.294628925621509552001953125" lon="-70.90284959413111209869384765625">
        <ele>632.5999755859375</ele>
        <time>2026-08-21T15:41:43.000Z</time>
        <extensions>
          <ns3:TrackPointExtension>
            <ns3:hr>132</ns3:hr>
            <ns3:cad>0</ns3:cad>
          </ns3:TrackPointExtension>
        </extensions>
      </trkpt>
      <trkpt lat="45.29463873244822025299072265625" lon="-70.90283702127635478973388671875">
        <ele>632.5999755859375</ele>
        <time>2026-08-21T15:41:44.000Z</time>
        <extensions>
          <ns3:TrackPointExtension>
            <ns3:hr>132</ns3:hr>
            <ns3:cad>0</ns3:cad>
          </ns3:TrackPointExtension>
        </extensions>
      </trkpt>
      <trkpt lat="45.29464342631399631500244140625" lon="-70.90282000601291656494140625">
        <ele>632.4000244140625</ele>
        <time>2026-08-21T15:41:45.000Z</time>
        <extensions>
          <ns3:TrackPointExtension>
            <ns3:hr>132</ns3:hr>
            <ns3:cad>0</ns3:cad>
          </ns3:TrackPointExtension>
        </extensions>
      </trkpt>
      <trkpt lat="45.29465449042618274688720703125" lon="-70.90280215255916118621826171875">
        <ele>632.4000244140625</ele>
        <time>2026-08-21T15:41:46.000Z</time>
        <extensions>
          <ns3:TrackPointExtension>
            <ns3:hr>132</ns3:hr>
            <ns3:cad>0</ns3:cad>
          </ns3:TrackPointExtension>
        </extensions>
      </trkpt>
      <trkpt lat="45.2946634590625762939453125" lon="-70.9027876518666744232177734375">
        <ele>632.5999755859375</ele>
        <time>2026-08-21T15:41:47.000Z</time>
        <extensions>
          <ns3:TrackPointExtension>
            <ns3:hr>133</ns3:hr>
            <ns3:cad>0</ns3:cad>
          </ns3:TrackPointExtension>
        </extensions>
      </trkpt>
      <trkpt lat="45.2946715056896209716796875" lon="-70.90277449227869510650634765625">
        <ele>632.79998779296875</ele>
        <time>2026-08-21T15:41:48.000Z</time>
        <extensions>
          <ns3:TrackPointExtension>
            <ns3:hr>133</ns3:hr>
            <ns3:cad>0</ns3:cad>
          </ns3:TrackPointExtension>
        </extensions>
      </trkpt>
      <trkpt lat="45.2946793846786022186279296875" lon="-70.9027641825377941131591796875">
        <ele>633</ele>
        <time>2026-08-21T15:41:49.000Z</time>
        <extensions>
          <ns3:TrackPointExtension>
            <ns3:hr>133</ns3:hr>
            <ns3:cad>0</ns3:cad>
          </ns3:TrackPointExtension>
        </extensions>
      </trkpt>
      <trkpt lat="45.2946941368281841278076171875" lon="-70.902749933302402496337890625">
        <ele>633.20001220703125</ele>
        <time>2026-08-21T15:41:50.000Z</time>
        <extensions>
          <ns3:TrackPointExtension>
            <ns3:hr>134</ns3:hr>
            <ns3:cad>0</ns3:cad>
          </ns3:TrackPointExtension>
        </extensions>
      </trkpt>
      <trkpt lat="45.29470880515873432159423828125" lon="-70.90273040346801280975341796875">
        <ele>633.20001220703125</ele>
        <time>2026-08-21T15:41:51.000Z</time>
        <extensions>
          <ns3:TrackPointExtension>
            <ns3:hr>134</ns3:hr>
            <ns3:cad>0</ns3:cad>
          </ns3:TrackPointExtension>
        </extensions>
      </trkpt>
      <trkpt lat="45.2947206236422061920166015625" lon="-70.90271112509071826934814453125">
        <ele>633.20001220703125</ele>
        <time>2026-08-21T15:41:52.000Z</time>
        <extensions>
          <ns3:TrackPointExtension>
            <ns3:hr>134</ns3:hr>
            <ns3:cad>54</ns3:cad>
          </ns3:TrackPointExtension>
        </extensions>
      </trkpt>
      <trkpt lat="45.294732861220836639404296875" lon="-70.902705006301403045654296875">
        <ele>633.20001220703125</ele>
        <time>2026-08-21T15:41:53.000Z</time>
        <extensions>
          <ns3:TrackPointExtension>
            <ns3:hr>133</ns3:hr>
            <ns3:cad>54</ns3:cad>
          </ns3:TrackPointExtension>
        </extensions>
      </trkpt>
      <trkpt lat="45.294742584228515625" lon="-70.90269788168370723724365234375">
        <ele>633.20001220703125</ele>
        <time>2026-08-21T15:41:54.000Z</time>
        <extensions>
          <ns3:TrackPointExtension>
            <ns3:hr>133</ns3:hr>
            <ns3:cad>54</ns3:cad>
          </ns3:TrackPointExtension>
        </extensions>
      </trkpt>
      <trkpt lat="45.2947621978819370269775390625" lon="-70.9026863984763622283935546875">
        <ele>633.20001220703125</ele>
        <time>2026-08-21T15:41:55.000Z</time>
        <extensions>
          <ns3:TrackPointExtension>
            <ns3:hr>133</ns3:hr>
            <ns3:cad>57</ns3:cad>
          </ns3:TrackPointExtension>
        </extensions>
      </trkpt>
      <trkpt lat="45.294777117669582366943359375" lon="-70.90266971848905086517333984375">
        <ele>633</ele>
        <time>2026-08-21T15:41:56.000Z</time>
        <extensions>
          <ns3:TrackPointExtension>
            <ns3:hr>133</ns3:hr>
            <ns3:cad>57</ns3:cad>
          </ns3:TrackPointExtension>
        </extensions>
      </trkpt>
      <trkpt lat="45.29479245655238628387451171875" lon="-70.90265530161559581756591796875">
        <ele>633</ele>
        <time>2026-08-21T15:41:57.000Z</time>
        <extensions>
          <ns3:TrackPointExtension>
            <ns3:hr>133</ns3:hr>
            <ns3:cad>57</ns3:cad>
          </ns3:TrackPointExtension>
        </extensions>
      </trkpt>
      <trkpt lat="45.29480854980647563934326171875" lon="-70.90264038182795047760009765625">
        <ele>633.20001220703125</ele>
        <time>2026-08-21T15:41:58.000Z</time>
        <extensions>
          <ns3:TrackPointExtension>
            <ns3:hr>133</ns3:hr>
            <ns3:cad>57</ns3:cad>
          </ns3:TrackPointExtension>
        </extensions>
      </trkpt>
      <trkpt lat="45.2948255650699138641357421875" lon="-70.90262286365032196044921875">
        <ele>633</ele>
        <time>2026-08-21T15:41:59.000Z</time>
        <extensions>
          <ns3:TrackPointExtension>
            <ns3:hr>133</ns3:hr>
            <ns3:cad>57</ns3:cad>
          </ns3:TrackPointExtension>
        </extensions>
      </trkpt>
      <trkpt lat="45.294842161238193511962890625" lon="-70.90260400436818599700927734375">
        <ele>633</ele>
        <time>2026-08-21T15:42:00.000Z</time>
        <extensions>
          <ns3:TrackPointExtension>
            <ns3:hr>133</ns3:hr>
            <ns3:cad>57</ns3:cad>
          </ns3:TrackPointExtension>
        </extensions>
      </trkpt>
      <trkpt lat="45.294856242835521697998046875" lon="-70.9025878272950649261474609375">
        <ele>633</ele>
        <time>2026-08-21T15:42:01.000Z</time>
        <extensions>
          <ns3:TrackPointExtension>
            <ns3:hr>133</ns3:hr>
            <ns3:cad>0</ns3:cad>
          </ns3:TrackPointExtension>
        </extensions>
      </trkpt>
      <trkpt lat="45.2948688156902790069580078125" lon="-70.90257885865867137908935546875">
        <ele>633</ele>
        <time>2026-08-21T15:42:02.000Z</time>
        <extensions>
          <ns3:TrackPointExtension>
            <ns3:hr>133</ns3:hr>
            <ns3:cad>0</ns3:cad>
          </ns3:TrackPointExtension>
        </extensions>
      </trkpt>
      <trkpt lat="45.29487828724086284637451171875" lon="-70.902564525604248046875">
        <ele>633</ele>
        <time>2026-08-21T15:42:03.000Z</time>
        <extensions>
          <ns3:TrackPointExtension>
            <ns3:hr>133</ns3:hr>
            <ns3:cad>0</ns3:cad>
          </ns3:TrackPointExtension>
        </extensions>
      </trkpt>
      <trkpt lat="45.29488951899111270904541015625" lon="-70.90254834853112697601318359375">
        <ele>632.79998779296875</ele>
        <time>2026-08-21T15:42:04.000Z</time>
        <extensions>
          <ns3:TrackPointExtension>
            <ns3:hr>133</ns3:hr>
            <ns3:cad>59</ns3:cad>
          </ns3:TrackPointExtension>
        </extensions>
      </trkpt>
      <trkpt lat="45.29490024782717227935791015625" lon="-70.902532003819942474365234375">
        <ele>632.5999755859375</ele>
        <time>2026-08-21T15:42:05.000Z</time>
        <extensions>
          <ns3:TrackPointExtension>
            <ns3:hr>133</ns3:hr>
            <ns3:cad>59</ns3:cad>
          </ns3:TrackPointExtension>
        </extensions>
      </trkpt>
      <trkpt lat="45.2949063666164875030517578125" lon="-70.90252538211643695831298828125">
        <ele>632.5999755859375</ele>
        <time>2026-08-21T15:42:06.000Z</time>
        <extensions>
          <ns3:TrackPointExtension>
            <ns3:hr>132</ns3:hr>
            <ns3:cad>56</ns3:cad>
          </ns3:TrackPointExtension>
        </extensions>
      </trkpt>
      <trkpt lat="45.29490997083485126495361328125" lon="-70.90252052061259746551513671875">
        <ele>632.5999755859375</ele>
        <time>2026-08-21T15:42:07.000Z</time>
        <extensions>
          <ns3:TrackPointExtension>
            <ns3:hr>132</ns3:hr>
            <ns3:cad>56</ns3:cad>
          </ns3:TrackPointExtension>
        </extensions>
      </trkpt>
      <trkpt lat="45.2949177660048007965087890625" lon="-70.90251498855650424957275390625">
        <ele>632.5999755859375</ele>
        <time>2026-08-21T15:42:08.000Z</time>
        <extensions>
          <ns3:TrackPointExtension>
            <ns3:hr>132</ns3:hr>
            <ns3:cad>56</ns3:cad>
          </ns3:TrackPointExtension>
        </extensions>
      </trkpt>
      <trkpt lat="45.294926650822162628173828125" lon="-70.902507193386554718017578125">
        <ele>632.5999755859375</ele>
        <time>2026-08-21T15:42:09.000Z</time>
        <extensions>
          <ns3:TrackPointExtension>
            <ns3:hr>132</ns3:hr>
            <ns3:cad>57</ns3:cad>
          </ns3:TrackPointExtension>
        </extensions>
      </trkpt>
      <trkpt lat="45.29493981041014194488525390625" lon="-70.90250778011977672576904296875">
        <ele>632.5999755859375</ele>
        <time>2026-08-21T15:42:10.000Z</time>
        <extensions>
          <ns3:TrackPointExtension>
            <ns3:hr>133</ns3:hr>
            <ns3:cad>57</ns3:cad>
          </ns3:TrackPointExtension>
        </extensions>
      </trkpt>
      <trkpt lat="45.294949449598789215087890625" lon="-70.90250593610107898712158203125">
        <ele>632.5999755859375</ele>
        <time>2026-08-21T15:42:11.000Z</time>
        <extensions>
          <ns3:TrackPointExtension>
            <ns3:hr>132</ns3:hr>
            <ns3:cad>54</ns3:cad>
          </ns3:TrackPointExtension>
        </extensions>
      </trkpt>
      <trkpt lat="45.29495959170162677764892578125" lon="-70.90250425972044467926025390625">
        <ele>632.5999755859375</ele>
        <time>2026-08-21T15:42:12.000Z</time>
        <extensions>
          <ns3:TrackPointExtension>
            <ns3:hr>132</ns3:hr>
            <ns3:cad>54</ns3:cad>
          </ns3:TrackPointExtension>
        </extensions>
      </trkpt>
      <trkpt lat="45.29497283510863780975341796875" lon="-70.9025009907782077789306640625">
        <ele>632.79998779296875</ele>
        <time>2026-08-21T15:42:13.000Z</time>
        <extensions>
          <ns3:TrackPointExtension>
            <ns3:hr>132</ns3:hr>
            <ns3:cad>54</ns3:cad>
          </ns3:TrackPointExtension>
        </extensions>
      </trkpt>
      <trkpt lat="45.29498507268726825714111328125" lon="-70.90249705128371715545654296875">
        <ele>632.5999755859375</ele>
        <time>2026-08-21T15:42:14.000Z</time>
        <extensions>
          <ns3:TrackPointExtension>
            <ns3:hr>132</ns3:hr>
            <ns3:cad>55</ns3:cad>
          </ns3:TrackPointExtension>
        </extensions>
      </trkpt>
      <trkpt lat="45.29499764554202556610107421875" lon="-70.90248749591410160064697265625">
        <ele>632.5999755859375</ele>
        <time>2026-08-21T15:42:15.000Z</time>
        <extensions>
          <ns3:TrackPointExtension>
            <ns3:hr>132</ns3:hr>
            <ns3:cad>55</ns3:cad>
          </ns3:TrackPointExtension>
        </extensions>
      </trkpt>
      <trkpt lat="45.2950108051300048828125" lon="-70.90247173793613910675048828125">
        <ele>632.4000244140625</ele>
        <time>2026-08-21T15:42:16.000Z</time>
        <extensions>
          <ns3:TrackPointExtension>
            <ns3:hr>132</ns3:hr>
            <ns3:cad>55</ns3:cad>
          </ns3:TrackPointExtension>
        </extensions>
      </trkpt>
      <trkpt lat="45.2950230427086353302001953125" lon="-70.902454555034637451171875">
        <ele>632.20001220703125</ele>
        <time>2026-08-21T15:42:17.000Z</time>
        <extensions>
          <ns3:TrackPointExtension>
            <ns3:hr>132</ns3:hr>
            <ns3:cad>55</ns3:cad>
          </ns3:TrackPointExtension>
        </extensions>
      </trkpt>
      <trkpt lat="45.2950314246118068695068359375" lon="-70.90243368409574031829833984375">
        <ele>632</ele>
        <time>2026-08-21T15:42:18.000Z</time>
        <extensions>
          <ns3:TrackPointExtension>
            <ns3:hr>131</ns3:hr>
            <ns3:cad>55</ns3:cad>
          </ns3:TrackPointExtension>
        </extensions>
      </trkpt>
      <trkpt lat="45.2950334362685680389404296875" lon="-70.9024183452129364013671875">
        <ele>632</ele>
        <time>2026-08-21T15:42:19.000Z</time>
        <extensions>
          <ns3:TrackPointExtension>
            <ns3:hr>131</ns3:hr>
            <ns3:cad>55</ns3:cad>
          </ns3:TrackPointExtension>
        </extensions>
      </trkpt>
      <trkpt lat="45.295039974153041839599609375" lon="-70.902402587234973907470703125">
        <ele>632</ele>
        <time>2026-08-21T15:42:20.000Z</time>
        <extensions>
          <ns3:TrackPointExtension>
            <ns3:hr>132</ns3:hr>
            <ns3:cad>55</ns3:cad>
          </ns3:TrackPointExtension>
        </extensions>
      </trkpt>
      <trkpt lat="45.2950461767613887786865234375" lon="-70.9023995697498321533203125">
        <ele>632</ele>
        <time>2026-08-21T15:42:21.000Z</time>
        <extensions>
          <ns3:TrackPointExtension>
            <ns3:hr>132</ns3:hr>
            <ns3:cad>55</ns3:cad>
          </ns3:TrackPointExtension>
        </extensions>
      </trkpt>
      <trkpt lat="45.29505464248359203338623046875" lon="-70.90239110402762889862060546875">
        <ele>632.4000244140625</ele>
        <time>2026-08-21T15:42:22.000Z</time>
        <extensions>
          <ns3:TrackPointExtension>
            <ns3:hr>132</ns3:hr>
            <ns3:cad>55</ns3:cad>
          </ns3:TrackPointExtension>
        </extensions>
      </trkpt>
      <trkpt lat="45.29506537131965160369873046875" lon="-70.90238146483898162841796875">
        <ele>632.5999755859375</ele>
        <time>2026-08-21T15:42:23.000Z</time>
        <extensions>
          <ns3:TrackPointExtension>
            <ns3:hr>132</ns3:hr>
            <ns3:cad>55</ns3:cad>
          </ns3:TrackPointExtension>
        </extensions>
      </trkpt>
      <trkpt lat="45.29507978819310665130615234375" lon="-70.90236729942262172698974609375">
        <ele>632.79998779296875</ele>
        <time>2026-08-21T15:42:24.000Z</time>
        <extensions>
          <ns3:TrackPointExtension>
            <ns3:hr>132</ns3:hr>
            <ns3:cad>55</ns3:cad>
          </ns3:TrackPointExtension>
        </extensions>
      </trkpt>
      <trkpt lat="45.29509252868592739105224609375" lon="-70.90235757641494274139404296875">
        <ele>632.79998779296875</ele>
        <time>2026-08-21T15:42:25.000Z</time>
        <extensions>
          <ns3:TrackPointExtension>
            <ns3:hr>131</ns3:hr>
            <ns3:cad>55</ns3:cad>
          </ns3:TrackPointExtension>
        </extensions>
      </trkpt>
      <trkpt lat="45.2951102145016193389892578125" lon="-70.90235707350075244903564453125">
        <ele>632.79998779296875</ele>
        <time>2026-08-21T15:42:26.000Z</time>
        <extensions>
          <ns3:TrackPointExtension>
            <ns3:hr>131</ns3:hr>
            <ns3:cad>55</ns3:cad>
          </ns3:TrackPointExtension>
        </extensions>
      </trkpt>
      <trkpt lat="45.29512639157474040985107421875" lon="-70.90236076153814792633056640625">
        <ele>632.79998779296875</ele>
        <time>2026-08-21T15:42:27.000Z</time>
        <extensions>
          <ns3:TrackPointExtension>
            <ns3:hr>131</ns3:hr>
            <ns3:cad>55</ns3:cad>
          </ns3:TrackPointExtension>
        </extensions>
      </trkpt>
      <trkpt lat="45.2951383776962757110595703125" lon="-70.9023641981184482574462890625">
        <ele>632.5999755859375</ele>
        <time>2026-08-21T15:42:28.000Z</time>
        <extensions>
          <ns3:TrackPointExtension>
            <ns3:hr>131</ns3:hr>
            <ns3:cad>52</ns3:cad>
          </ns3:TrackPointExtension>
        </extensions>
      </trkpt>
      <trkpt lat="45.2951543033123016357421875" lon="-70.90237366966903209686279296875">
        <ele>632.4000244140625</ele>
        <time>2026-08-21T15:42:29.000Z</time>
        <extensions>
          <ns3:TrackPointExtension>
            <ns3:hr>131</ns3:hr>
            <ns3:cad>52</ns3:cad>
          </ns3:TrackPointExtension>
        </extensions>
      </trkpt>
      <trkpt lat="45.295164026319980621337890625" lon="-70.90237869881093502044677734375">
        <ele>632.4000244140625</ele>
        <time>2026-08-21T15:42:30.000Z</time>
        <extensions>
          <ns3:TrackPointExtension>
            <ns3:hr>131</ns3:hr>
            <ns3:cad>52</ns3:cad>
          </ns3:TrackPointExtension>
        </extensions>
      </trkpt>
      <trkpt lat="45.29517416842281818389892578125" lon="-70.90238749980926513671875">
        <ele>632.20001220703125</ele>
        <time>2026-08-21T15:42:31.000Z</time>
        <extensions>
          <ns3:TrackPointExtension>
            <ns3:hr>131</ns3:hr>
            <ns3:cad>17</ns3:cad>
          </ns3:TrackPointExtension>
        </extensions>
      </trkpt>
      <trkpt lat="45.295182131230831146240234375" lon="-70.90239730663597583770751953125">
        <ele>632.20001220703125</ele>
        <time>2026-08-21T15:42:32.000Z</time>
        <extensions>
          <ns3:TrackPointExtension>
            <ns3:hr>132</ns3:hr>
            <ns3:cad>17</ns3:cad>
          </ns3:TrackPointExtension>
        </extensions>
      </trkpt>
      <trkpt lat="45.29519277624785900115966796875" lon="-70.9024074487388134002685546875">
        <ele>632</ele>
        <time>2026-08-21T15:42:33.000Z</time>
        <extensions>
          <ns3:TrackPointExtension>
            <ns3:hr>132</ns3:hr>
            <ns3:cad>17</ns3:cad>
          </ns3:TrackPointExtension>
        </extensions>
      </trkpt>
      <trkpt lat="45.29520752839744091033935546875" lon="-70.9024104662239551544189453125">
        <ele>631.79998779296875</ele>
        <time>2026-08-21T15:42:34.000Z</time>
        <extensions>
          <ns3:TrackPointExtension>
            <ns3:hr>132</ns3:hr>
            <ns3:cad>17</ns3:cad>
          </ns3:TrackPointExtension>
        </extensions>
      </trkpt>
      <trkpt lat="45.2952205203473567962646484375" lon="-70.90240501798689365386962890625">
        <ele>631.79998779296875</ele>
        <time>2026-08-21T15:42:35.000Z</time>
        <extensions>
          <ns3:TrackPointExtension>
            <ns3:hr>132</ns3:hr>
            <ns3:cad>17</ns3:cad>
          </ns3:TrackPointExtension>
        </extensions>
      </trkpt>
      <trkpt lat="45.295235775411128997802734375" lon="-70.9024087898433208465576171875">
        <ele>631.5999755859375</ele>
        <time>2026-08-21T15:42:36.000Z</time>
        <extensions>
          <ns3:TrackPointExtension>
            <ns3:hr>132</ns3:hr>
            <ns3:cad>17</ns3:cad>
          </ns3:TrackPointExtension>
        </extensions>
      </trkpt>
      <trkpt lat="45.295245163142681121826171875" lon="-70.902411639690399169921875">
        <ele>631.5999755859375</ele>
        <time>2026-08-21T15:42:37.000Z</time>
        <extensions>
          <ns3:TrackPointExtension>
            <ns3:hr>133</ns3:hr>
            <ns3:cad>17</ns3:cad>
          </ns3:TrackPointExtension>
        </extensions>
      </trkpt>
      <trkpt lat="45.29526201076805591583251953125" lon="-70.90242278762161731719970703125">
        <ele>631.5999755859375</ele>
        <time>2026-08-21T15:42:38.000Z</time>
        <extensions>
          <ns3:TrackPointExtension>
            <ns3:hr>133</ns3:hr>
            <ns3:cad>17</ns3:cad>
          </ns3:TrackPointExtension>
        </extensions>
      </trkpt>
      <trkpt lat="45.2952718175947666168212890625" lon="-70.90243318118155002593994140625">
        <ele>631.5999755859375</ele>
        <time>2026-08-21T15:42:39.000Z</time>
        <extensions>
          <ns3:TrackPointExtension>
            <ns3:hr>133</ns3:hr>
            <ns3:cad>17</ns3:cad>
          </ns3:TrackPointExtension>
        </extensions>
      </trkpt>
      <trkpt lat="45.295291431248188018798828125" lon="-70.9024359472095966339111328125">
        <ele>631.4000244140625</ele>
        <time>2026-08-21T15:42:40.000Z</time>
        <extensions>
          <ns3:TrackPointExtension>
            <ns3:hr>133</ns3:hr>
            <ns3:cad>55</ns3:cad>
          </ns3:TrackPointExtension>
        </extensions>
      </trkpt>
      <trkpt lat="45.2953103743493556976318359375" lon="-70.90243737213313579559326171875">
        <ele>631.4000244140625</ele>
        <time>2026-08-21T15:42:41.000Z</time>
        <extensions>
          <ns3:TrackPointExtension>
            <ns3:hr>133</ns3:hr>
            <ns3:cad>0</ns3:cad>
          </ns3:TrackPointExtension>
        </extensions>
      </trkpt>
      <trkpt lat="45.2953301556408405303955078125" lon="-70.90243904851377010345458984375">
        <ele>631.4000244140625</ele>
        <time>2026-08-21T15:42:42.000Z</time>
        <extensions>
          <ns3:TrackPointExtension>
            <ns3:hr>132</ns3:hr>
            <ns3:cad>0</ns3:cad>
          </ns3:TrackPointExtension>
        </extensions>
      </trkpt>
      <trkpt lat="45.2953541278839111328125" lon="-70.902438797056674957275390625">
        <ele>631.20001220703125</ele>
        <time>2026-08-21T15:42:43.000Z</time>
        <extensions>
          <ns3:TrackPointExtension>
            <ns3:hr>133</ns3:hr>
            <ns3:cad>0</ns3:cad>
          </ns3:TrackPointExtension>
        </extensions>
      </trkpt>
      <trkpt lat="45.29537432827055454254150390625" lon="-70.90243485756218433380126953125">
        <ele>631.20001220703125</ele>
        <time>2026-08-21T15:42:44.000Z</time>
        <extensions>
          <ns3:TrackPointExtension>
            <ns3:hr>133</ns3:hr>
            <ns3:cad>0</ns3:cad>
          </ns3:TrackPointExtension>
        </extensions>
      </trkpt>
      <trkpt lat="45.2953931875526905059814453125" lon="-70.90243510901927947998046875">
        <ele>631.20001220703125</ele>
        <time>2026-08-21T15:42:45.000Z</time>
        <extensions>
          <ns3:TrackPointExtension>
            <ns3:hr>133</ns3:hr>
            <ns3:cad>0</ns3:cad>
          </ns3:TrackPointExtension>
        </extensions>
      </trkpt>
      <trkpt lat="45.29541322030127048492431640625" lon="-70.90242848731577396392822265625">
        <ele>631</ele>
        <time>2026-08-21T15:42:46.000Z</time>
        <extensions>
          <ns3:TrackPointExtension>
            <ns3:hr>132</ns3:hr>
            <ns3:cad>67</ns3:cad>
          </ns3:TrackPointExtension>
        </extensions>
      </trkpt>
      <trkpt lat="45.2954354323446750640869140625" lon="-70.9024201892316341400146484375">
        <ele>631</ele>
        <time>2026-08-21T15:42:47.000Z</time>
        <extensions>
          <ns3:TrackPointExtension>
            <ns3:hr>132</ns3:hr>
            <ns3:cad>67</ns3:cad>
          </ns3:TrackPointExtension>
        </extensions>
      </trkpt>
      <trkpt lat="45.29545462690293788909912109375" lon="-70.90242169797420501708984375">
        <ele>631</ele>
        <time>2026-08-21T15:42:48.000Z</time>
        <extensions>
          <ns3:TrackPointExtension>
            <ns3:hr>132</ns3:hr>
            <ns3:cad>67</ns3:cad>
          </ns3:TrackPointExtension>
        </extensions>
      </trkpt>
      <trkpt lat="45.29547415673732757568359375" lon="-70.90242245234549045562744140625">
        <ele>631</ele>
        <time>2026-08-21T15:42:49.000Z</time>
        <extensions>
          <ns3:TrackPointExtension>
            <ns3:hr>132</ns3:hr>
            <ns3:cad>67</ns3:cad>
          </ns3:TrackPointExtension>
        </extensions>
      </trkpt>
      <trkpt lat="45.29549024999141693115234375" lon="-70.902422033250331878662109375">
        <ele>630.79998779296875</ele>
        <time>2026-08-21T15:42:50.000Z</time>
        <extensions>
          <ns3:TrackPointExtension>
            <ns3:hr>132</ns3:hr>
            <ns3:cad>67</ns3:cad>
          </ns3:TrackPointExtension>
        </extensions>
      </trkpt>
      <trkpt lat="45.295503996312618255615234375" lon="-70.9024235419929027557373046875">
        <ele>630.79998779296875</ele>
        <time>2026-08-21T15:42:51.000Z</time>
        <extensions>
          <ns3:TrackPointExtension>
            <ns3:hr>132</ns3:hr>
            <ns3:cad>67</ns3:cad>
          </ns3:TrackPointExtension>
        </extensions>
      </trkpt>
      <trkpt lat="45.29551975429058074951171875" lon="-70.9024235419929027557373046875">
        <ele>630.79998779296875</ele>
        <time>2026-08-21T15:42:52.000Z</time>
        <extensions>
          <ns3:TrackPointExtension>
            <ns3:hr>133</ns3:hr>
            <ns3:cad>67</ns3:cad>
          </ns3:TrackPointExtension>
        </extensions>
      </trkpt>
      <trkpt lat="45.295534171164035797119140625" lon="-70.9024232067167758941650390625">
        <ele>630.5999755859375</ele>
        <time>2026-08-21T15:42:53.000Z</time>
        <extensions>
          <ns3:TrackPointExtension>
            <ns3:hr>132</ns3:hr>
            <ns3:cad>0</ns3:cad>
          </ns3:TrackPointExtension>
        </extensions>
      </trkpt>
      <trkpt lat="45.2955474145710468292236328125" lon="-70.9024191834032535552978515625">
        <ele>630.5999755859375</ele>
        <time>2026-08-21T15:42:54.000Z</time>
        <extensions>
          <ns3:TrackPointExtension>
            <ns3:hr>132</ns3:hr>
            <ns3:cad>0</ns3:cad>
          </ns3:TrackPointExtension>
        </extensions>
      </trkpt>
      <trkpt lat="45.29555923305451869964599609375" lon="-70.9024049341678619384765625">
        <ele>630.79998779296875</ele>
        <time>2026-08-21T15:42:55.000Z</time>
        <extensions>
          <ns3:TrackPointExtension>
            <ns3:hr>133</ns3:hr>
            <ns3:cad>0</ns3:cad>
          </ns3:TrackPointExtension>
        </extensions>
      </trkpt>
      <trkpt lat="45.29557432048022747039794921875" lon="-70.90239965356886386871337890625">
        <ele>630.79998779296875</ele>
        <time>2026-08-21T15:42:56.000Z</time>
        <extensions>
          <ns3:TrackPointExtension>
            <ns3:hr>133</ns3:hr>
            <ns3:cad>0</ns3:cad>
          </ns3:TrackPointExtension>
        </extensions>
      </trkpt>
      <trkpt lat="45.2955853007733821868896484375" lon="-70.9024047665297985076904296875">
        <ele>630.79998779296875</ele>
        <time>2026-08-21T15:42:57.000Z</time>
        <extensions>
          <ns3:TrackPointExtension>
            <ns3:hr>132</ns3:hr>
            <ns3:cad>0</ns3:cad>
          </ns3:TrackPointExtension>
        </extensions>
      </trkpt>
      <trkpt lat="45.2955995500087738037109375" lon="-70.9024148248136043548583984375">
        <ele>630.79998779296875</ele>
        <time>2026-08-21T15:42:58.000Z</time>
        <extensions>
          <ns3:TrackPointExtension>
            <ns3:hr>132</ns3:hr>
            <ns3:cad>0</ns3:cad>
          </ns3:TrackPointExtension>
        </extensions>
      </trkpt>
      <trkpt lat="45.29561170376837253570556640625" lon="-70.90242429636418819427490234375">
        <ele>630.79998779296875</ele>
        <time>2026-08-21T15:42:59.000Z</time>
        <extensions>
          <ns3:TrackPointExtension>
            <ns3:hr>131</ns3:hr>
            <ns3:cad>0</ns3:cad>
          </ns3:TrackPointExtension>
        </extensions>
      </trkpt>
      <trkpt lat="45.29562712647020816802978515625" lon="-70.9024279005825519561767578125">
        <ele>631</ele>
        <time>2026-08-21T15:43:00.000Z</time>
        <extensions>
          <ns3:TrackPointExtension>
            <ns3:hr>131</ns3:hr>
            <ns3:cad>0</ns3:cad>
          </ns3:TrackPointExtension>
        </extensions>
      </trkpt>
      <trkpt lat="45.2956424653530120849609375" lon="-70.902428738772869110107421875">
        <ele>630.79998779296875</ele>
        <time>2026-08-21T15:43:01.000Z</time>
        <extensions>
          <ns3:TrackPointExtension>
            <ns3:hr>131</ns3:hr>
            <ns3:cad>0</ns3:cad>
          </ns3:TrackPointExtension>
        </extensions>
      </trkpt>
      <trkpt lat="45.2956545352935791015625" lon="-70.9024258889257907867431640625">
        <ele>630.79998779296875</ele>
        <time>2026-08-21T15:43:02.000Z</time>
        <extensions>
          <ns3:TrackPointExtension>
            <ns3:hr>131</ns3:hr>
            <ns3:cad>55</ns3:cad>
          </ns3:TrackPointExtension>
        </extensions>
      </trkpt>
      <trkpt lat="45.29567272402346134185791015625" lon="-70.9024161659181118011474609375">
        <ele>630.5999755859375</ele>
        <time>2026-08-21T15:43:03.000Z</time>
        <extensions>
          <ns3:TrackPointExtension>
            <ns3:hr>131</ns3:hr>
            <ns3:cad>55</ns3:cad>
          </ns3:TrackPointExtension>
        </extensions>
      </trkpt>
      <trkpt lat="45.29568563215434551239013671875" lon="-70.9024144895374774932861328125">
        <ele>630.5999755859375</ele>
        <time>2026-08-21T15:43:04.000Z</time>
        <extensions>
          <ns3:TrackPointExtension>
            <ns3:hr>131</ns3:hr>
            <ns3:cad>55</ns3:cad>
          </ns3:TrackPointExtension>
        </extensions>
      </trkpt>
      <trkpt lat="45.295700132846832275390625" lon="-70.90241055004298686981201171875">
        <ele>630.5999755859375</ele>
        <time>2026-08-21T15:43:05.000Z</time>
        <extensions>
          <ns3:TrackPointExtension>
            <ns3:hr>131</ns3:hr>
            <ns3:cad>56</ns3:cad>
          </ns3:TrackPointExtension>
        </extensions>
      </trkpt>
      <trkpt lat="45.2957113645970821380615234375" lon="-70.90240116231143474578857421875">
        <ele>630.4000244140625</ele>
        <time>2026-08-21T15:43:06.000Z</time>
        <extensions>
          <ns3:TrackPointExtension>
            <ns3:hr>131</ns3:hr>
            <ns3:cad>56</ns3:cad>
          </ns3:TrackPointExtension>
        </extensions>
      </trkpt>
      <trkpt lat="45.29572335071861743927001953125" lon="-70.90239085257053375244140625">
        <ele>630.20001220703125</ele>
        <time>2026-08-21T15:43:07.000Z</time>
        <extensions>
          <ns3:TrackPointExtension>
            <ns3:hr>131</ns3:hr>
            <ns3:cad>56</ns3:cad>
          </ns3:TrackPointExtension>
        </extensions>
      </trkpt>
      <trkpt lat="45.29573374427855014801025390625" lon="-70.9023779444396495819091796875">
        <ele>630</ele>
        <time>2026-08-21T15:43:08.000Z</time>
        <extensions>
          <ns3:TrackPointExtension>
            <ns3:hr>131</ns3:hr>
            <ns3:cad>56</ns3:cad>
          </ns3:TrackPointExtension>
        </extensions>
      </trkpt>
      <trkpt lat="45.29574363492429256439208984375" lon="-70.9023578278720378875732421875">
        <ele>629.79998779296875</ele>
        <time>2026-08-21T15:43:09.000Z</time>
        <extensions>
          <ns3:TrackPointExtension>
            <ns3:hr>130</ns3:hr>
            <ns3:cad>0</ns3:cad>
          </ns3:TrackPointExtension>
        </extensions>
      </trkpt>
      <trkpt lat="45.29575151391327381134033203125" lon="-70.902331173419952392578125">
        <ele>629.5999755859375</ele>
        <time>2026-08-21T15:43:10.000Z</time>
        <extensions>
          <ns3:TrackPointExtension>
            <ns3:hr>130</ns3:hr>
            <ns3:cad>0</ns3:cad>
          </ns3:TrackPointExtension>
        </extensions>
      </trkpt>
      <trkpt lat="45.29575000517070293426513671875" lon="-70.90230644680559635162353515625">
        <ele>629.4000244140625</ele>
        <time>2026-08-21T15:43:11.000Z</time>
        <extensions>
          <ns3:TrackPointExtension>
            <ns3:hr>130</ns3:hr>
            <ns3:cad>0</ns3:cad>
          </ns3:TrackPointExtension>
        </extensions>
      </trkpt>
      <trkpt lat="45.2957462333142757415771484375" lon="-70.90227954089641571044921875">
        <ele>629.4000244140625</ele>
        <time>2026-08-21T15:43:12.000Z</time>
        <extensions>
          <ns3:TrackPointExtension>
            <ns3:hr>130</ns3:hr>
            <ns3:cad>0</ns3:cad>
          </ns3:TrackPointExtension>
        </extensions>
      </trkpt>
      <trkpt lat="45.29574715532362461090087890625" lon="-70.90225380845367908477783203125">
        <ele>629.5999755859375</ele>
        <time>2026-08-21T15:43:13.000Z</time>
        <extensions>
          <ns3:TrackPointExtension>
            <ns3:hr>130</ns3:hr>
            <ns3:cad>0</ns3:cad>
          </ns3:TrackPointExtension>
        </extensions>
      </trkpt>
      <trkpt lat="45.29574799351394176483154296875" lon="-70.90222883038222789764404296875">
        <ele>629.5999755859375</ele>
        <time>2026-08-21T15:43:14.000Z</time>
        <extensions>
          <ns3:TrackPointExtension>
            <ns3:hr>131</ns3:hr>
            <ns3:cad>0</ns3:cad>
          </ns3:TrackPointExtension>
        </extensions>
      </trkpt>
      <trkpt lat="45.2957512624561786651611328125" lon="-70.90221726335585117340087890625">
        <ele>629.5999755859375</ele>
        <time>2026-08-21T15:43:15.000Z</time>
        <extensions>
          <ns3:TrackPointExtension>
            <ns3:hr>131</ns3:hr>
            <ns3:cad>0</ns3:cad>
          </ns3:TrackPointExtension>
        </extensions>
      </trkpt>
      <trkpt lat="45.29575956054031848907470703125" lon="-70.902219526469707489013671875">
        <ele>629.79998779296875</ele>
        <time>2026-08-21T15:43:16.000Z</time>
        <extensions>
          <ns3:TrackPointExtension>
            <ns3:hr>132</ns3:hr>
            <ns3:cad>0</ns3:cad>
          </ns3:TrackPointExtension>
        </extensions>
      </trkpt>
      <trkpt lat="45.29577322304248809814453125" lon="-70.9022287465631961822509765625">
        <ele>629.79998779296875</ele>
        <time>2026-08-21T15:43:17.000Z</time>
        <extensions>
          <ns3:TrackPointExtension>
            <ns3:hr>132</ns3:hr>
            <ns3:cad>77</ns3:cad>
          </ns3:TrackPointExtension>
        </extensions>
      </trkpt>
      <trkpt lat="45.2957868017256259918212890625" lon="-70.90223905630409717559814453125">
        <ele>630</ele>
        <time>2026-08-21T15:43:18.000Z</time>
        <extensions>
          <ns3:TrackPointExtension>
            <ns3:hr>132</ns3:hr>
            <ns3:cad>77</ns3:cad>
          </ns3:TrackPointExtension>
        </extensions>
      </trkpt>
      <trkpt lat="45.29579962603747844696044921875" lon="-70.90224626474082469940185546875">
        <ele>630</ele>
        <time>2026-08-21T15:43:19.000Z</time>
        <extensions>
          <ns3:TrackPointExtension>
            <ns3:hr>132</ns3:hr>
            <ns3:cad>77</ns3:cad>
          </ns3:TrackPointExtension>
        </extensions>
      </trkpt>
      <trkpt lat="45.2958149649202823638916015625" lon="-70.90225632302463054656982421875">
        <ele>630.20001220703125</ele>
        <time>2026-08-21T15:43:20.000Z</time>
        <extensions>
          <ns3:TrackPointExtension>
            <ns3:hr>132</ns3:hr>
            <ns3:cad>0</ns3:cad>
          </ns3:TrackPointExtension>
        </extensions>
      </trkpt>
      <trkpt lat="45.2958307228982448577880859375" lon="-70.9022535569965839385986328125">
        <ele>630</ele>
        <time>2026-08-21T15:43:21.000Z</time>
        <extensions>
          <ns3:TrackPointExtension>
            <ns3:hr>132</ns3:hr>
            <ns3:cad>0</ns3:cad>
          </ns3:TrackPointExtension>
        </extensions>
      </trkpt>
      <trkpt lat="45.29584455303847789764404296875" lon="-70.902234949171543121337890625">
        <ele>630</ele>
        <time>2026-08-21T15:43:22.000Z</time>
        <extensions>
          <ns3:TrackPointExtension>
            <ns3:hr>132</ns3:hr>
            <ns3:cad>61</ns3:cad>
          </ns3:TrackPointExtension>
        </extensions>
      </trkpt>
      <trkpt lat="45.29585896991193294525146484375" lon="-70.9022196941077709197998046875">
        <ele>629.79998779296875</ele>
        <time>2026-08-21T15:43:23.000Z</time>
        <extensions>
          <ns3:TrackPointExtension>
            <ns3:hr>132</ns3:hr>
            <ns3:cad>61</ns3:cad>
          </ns3:TrackPointExtension>
        </extensions>
      </trkpt>
      <trkpt lat="45.295874811708927154541015625" lon="-70.9022118151187896728515625">
        <ele>629.79998779296875</ele>
        <time>2026-08-21T15:43:24.000Z</time>
        <extensions>
          <ns3:TrackPointExtension>
            <ns3:hr>132</ns3:hr>
            <ns3:cad>61</ns3:cad>
          </ns3:TrackPointExtension>
        </extensions>
      </trkpt>
      <trkpt lat="45.29589048586785793304443359375" lon="-70.902210809290409088134765625">
        <ele>629.79998779296875</ele>
        <time>2026-08-21T15:43:25.000Z</time>
        <extensions>
          <ns3:TrackPointExtension>
            <ns3:hr>132</ns3:hr>
            <ns3:cad>61</ns3:cad>
          </ns3:TrackPointExtension>
        </extensions>
      </trkpt>
      <trkpt lat="45.29590993188321590423583984375" lon="-70.90220100246369838714599609375">
        <ele>629.79998779296875</ele>
        <time>2026-08-21T15:43:26.000Z</time>
        <extensions>
          <ns3:TrackPointExtension>
            <ns3:hr>132</ns3:hr>
            <ns3:cad>61</ns3:cad>
          </ns3:TrackPointExtension>
        </extensions>
      </trkpt>
      <trkpt lat="45.2959249354898929595947265625" lon="-70.902187339961528778076171875">
        <ele>629.79998779296875</ele>
        <time>2026-08-21T15:43:27.000Z</time>
        <extensions>
          <ns3:TrackPointExtension>
            <ns3:hr>132</ns3:hr>
            <ns3:cad>61</ns3:cad>
          </ns3:TrackPointExtension>
        </extensions>
      </trkpt>
      <trkpt lat="45.2959403581917285919189453125" lon="-70.90217434801161289215087890625">
        <ele>629.79998779296875</ele>
        <time>2026-08-21T15:43:28.000Z</time>
        <extensions>
          <ns3:TrackPointExtension>
            <ns3:hr>132</ns3:hr>
            <ns3:cad>61</ns3:cad>
          </ns3:TrackPointExtension>
        </extensions>
      </trkpt>
      <trkpt lat="45.2959574572741985321044921875" lon="-70.90216160751879215240478515625">
        <ele>629.79998779296875</ele>
        <time>2026-08-21T15:43:29.000Z</time>
        <extensions>
          <ns3:TrackPointExtension>
            <ns3:hr>132</ns3:hr>
            <ns3:cad>61</ns3:cad>
          </ns3:TrackPointExtension>
        </extensions>
      </trkpt>
      <trkpt lat="45.2959718741476535797119140625" lon="-70.90215406380593776702880859375">
        <ele>629.79998779296875</ele>
        <time>2026-08-21T15:43:30.000Z</time>
        <extensions>
          <ns3:TrackPointExtension>
            <ns3:hr>133</ns3:hr>
            <ns3:cad>61</ns3:cad>
          </ns3:TrackPointExtension>
        </extensions>
      </trkpt>
      <trkpt lat="45.29598671011626720428466796875" lon="-70.90215993113815784454345703125">
        <ele>629.5999755859375</ele>
        <time>2026-08-21T15:43:31.000Z</time>
        <extensions>
          <ns3:TrackPointExtension>
            <ns3:hr>132</ns3:hr>
            <ns3:cad>0</ns3:cad>
          </ns3:TrackPointExtension>
        </extensions>
      </trkpt>
      <trkpt lat="45.29600389301776885986328125" lon="-70.90216864831745624542236328125">
        <ele>629.5999755859375</ele>
        <time>2026-08-21T15:43:32.000Z</time>
        <extensions>
          <ns3:TrackPointExtension>
            <ns3:hr>132</ns3:hr>
            <ns3:cad>0</ns3:cad>
          </ns3:TrackPointExtension>
        </extensions>
      </trkpt>
      <trkpt lat="45.29601730406284332275390625" lon="-70.9021670557558536529541015625">
        <ele>629.79998779296875</ele>
        <time>2026-08-21T15:43:33.000Z</time>
        <extensions>
          <ns3:TrackPointExtension>
            <ns3:hr>132</ns3:hr>
            <ns3:cad>0</ns3:cad>
          </ns3:TrackPointExtension>
        </extensions>
      </trkpt>
      <trkpt lat="45.29604102484881877899169921875" lon="-70.90216211043298244476318359375">
        <ele>629.79998779296875</ele>
        <time>2026-08-21T15:43:34.000Z</time>
        <extensions>
          <ns3:TrackPointExtension>
            <ns3:hr>132</ns3:hr>
            <ns3:cad>0</ns3:cad>
          </ns3:TrackPointExtension>
        </extensions>
      </trkpt>
      <trkpt lat="45.2960597164928913116455078125" lon="-70.90215356089174747467041015625">
        <ele>629.79998779296875</ele>
        <time>2026-08-21T15:43:35.000Z</time>
        <extensions>
          <ns3:TrackPointExtension>
            <ns3:hr>132</ns3:hr>
            <ns3:cad>0</ns3:cad>
          </ns3:TrackPointExtension>
        </extensions>
      </trkpt>
      <trkpt lat="45.29607187025249004364013671875" lon="-70.9021489508450031280517578125">
        <ele>629.79998779296875</ele>
        <time>2026-08-21T15:43:36.000Z</time>
        <extensions>
          <ns3:TrackPointExtension>
            <ns3:hr>132</ns3:hr>
            <ns3:cad>0</ns3:cad>
          </ns3:TrackPointExtension>
        </extensions>
      </trkpt>
      <trkpt lat="45.2960798330605030059814453125" lon="-70.90215087868273258209228515625">
        <ele>629.79998779296875</ele>
        <time>2026-08-21T15:43:37.000Z</time>
        <extensions>
          <ns3:TrackPointExtension>
            <ns3:hr>133</ns3:hr>
            <ns3:cad>0</ns3:cad>
          </ns3:TrackPointExtension>
        </extensions>
      </trkpt>
      <trkpt lat="45.2960930764675140380859375" lon="-70.9021576680243015289306640625">
        <ele>629.79998779296875</ele>
        <time>2026-08-21T15:43:38.000Z</time>
        <extensions>
          <ns3:TrackPointExtension>
            <ns3:hr>133</ns3:hr>
            <ns3:cad>0</ns3:cad>
          </ns3:TrackPointExtension>
        </extensions>
      </trkpt>
      <trkpt lat="45.296102799475193023681640625" lon="-70.90215775184333324432373046875">
        <ele>629.79998779296875</ele>
        <time>2026-08-21T15:43:39.000Z</time>
        <extensions>
          <ns3:TrackPointExtension>
            <ns3:hr>133</ns3:hr>
            <ns3:cad>73</ns3:cad>
          </ns3:TrackPointExtension>
        </extensions>
      </trkpt>
      <trkpt lat="45.29611713252961635589599609375" lon="-70.9021573327481746673583984375">
        <ele>629.79998779296875</ele>
        <time>2026-08-21T15:43:40.000Z</time>
        <extensions>
          <ns3:TrackPointExtension>
            <ns3:hr>132</ns3:hr>
            <ns3:cad>73</ns3:cad>
          </ns3:TrackPointExtension>
        </extensions>
      </trkpt>
      <trkpt lat="45.296130962669849395751953125" lon="-70.9021635353565216064453125">
        <ele>629.4000244140625</ele>
        <time>2026-08-21T15:43:41.000Z</time>
        <extensions>
          <ns3:TrackPointExtension>
            <ns3:hr>132</ns3:hr>
            <ns3:cad>73</ns3:cad>
          </ns3:TrackPointExtension>
        </extensions>
      </trkpt>
      <trkpt lat="45.29614470899105072021484375" lon="-70.9021734260022640228271484375">
        <ele>629</ele>
        <time>2026-08-21T15:43:42.000Z</time>
        <extensions>
          <ns3:TrackPointExtension>
            <ns3:hr>132</ns3:hr>
            <ns3:cad>73</ns3:cad>
          </ns3:TrackPointExtension>
        </extensions>
      </trkpt>
      <trkpt lat="45.29615820385515689849853515625" lon="-70.902183316648006439208984375">
        <ele>628.5999755859375</ele>
        <time>2026-08-21T15:43:43.000Z</time>
        <extensions>
          <ns3:TrackPointExtension>
            <ns3:hr>132</ns3:hr>
            <ns3:cad>0</ns3:cad>
          </ns3:TrackPointExtension>
        </extensions>
      </trkpt>
      <trkpt lat="45.2961686812341213226318359375" lon="-70.90219228528439998626708984375">
        <ele>628.20001220703125</ele>
        <time>2026-08-21T15:43:44.000Z</time>
        <extensions>
          <ns3:TrackPointExtension>
            <ns3:hr>133</ns3:hr>
            <ns3:cad>0</ns3:cad>
          </ns3:TrackPointExtension>
        </extensions>
      </trkpt>
      <trkpt lat="45.29617295600473880767822265625" lon="-70.90219781734049320220947265625">
        <ele>628.20001220703125</ele>
        <time>2026-08-21T15:43:45.000Z</time>
        <extensions>
          <ns3:TrackPointExtension>
            <ns3:hr>133</ns3:hr>
            <ns3:cad>0</ns3:cad>
          </ns3:TrackPointExtension>
        </extensions>
      </trkpt>
      <trkpt lat="45.2961884625256061553955078125" lon="-70.902192033827304840087890625">
        <ele>628.20001220703125</ele>
        <time>2026-08-21T15:43:46.000Z</time>
        <extensions>
          <ns3:TrackPointExtension>
            <ns3:hr>133</ns3:hr>
            <ns3:cad>0</ns3:cad>
          </ns3:TrackPointExtension>
        </extensions>
      </trkpt>
      <trkpt lat="45.29621100984513759613037109375" lon="-70.9021957218647003173828125">
        <ele>628.4000244140625</ele>
        <time>2026-08-21T15:43:47.000Z</time>
        <extensions>
          <ns3:TrackPointExtension>
            <ns3:hr>133</ns3:hr>
            <ns3:cad>0</ns3:cad>
          </ns3:TrackPointExtension>
        </extensions>
      </trkpt>
      <trkpt lat="45.29622810892760753631591796875" lon="-70.90219815261662006378173828125">
        <ele>628.4000244140625</ele>
        <time>2026-08-21T15:43:48.000Z</time>
        <extensions>
          <ns3:TrackPointExtension>
            <ns3:hr>133</ns3:hr>
            <ns3:cad>75</ns3:cad>
          </ns3:TrackPointExtension>
        </extensions>
      </trkpt>
      <trkpt lat="45.296248309314250946044921875" lon="-70.90219915844500064849853515625">
        <ele>628.4000244140625</ele>
        <time>2026-08-21T15:43:49.000Z</time>
        <extensions>
          <ns3:TrackPointExtension>
            <ns3:hr>133</ns3:hr>
            <ns3:cad>75</ns3:cad>
          </ns3:TrackPointExtension>
        </extensions>
      </trkpt>
      <trkpt lat="45.29626943171024322509765625" lon="-70.9022039361298084259033203125">
        <ele>628.4000244140625</ele>
        <time>2026-08-21T15:43:50.000Z</time>
        <extensions>
          <ns3:TrackPointExtension>
            <ns3:hr>134</ns3:hr>
            <ns3:cad>75</ns3:cad>
          </ns3:TrackPointExtension>
        </extensions>
      </trkpt>
      <trkpt lat="45.296291895210742950439453125" lon="-70.90220552869141101837158203125">
        <ele>628.4000244140625</ele>
        <time>2026-08-21T15:43:51.000Z</time>
        <extensions>
          <ns3:TrackPointExtension>
            <ns3:hr>133</ns3:hr>
            <ns3:cad>0</ns3:cad>
          </ns3:TrackPointExtension>
        </extensions>
      </trkpt>
      <trkpt lat="45.29631310142576694488525390625" lon="-70.90219798497855663299560546875">
        <ele>628.20001220703125</ele>
        <time>2026-08-21T15:43:52.000Z</time>
        <extensions>
          <ns3:TrackPointExtension>
            <ns3:hr>134</ns3:hr>
            <ns3:cad>0</ns3:cad>
          </ns3:TrackPointExtension>
        </extensions>
      </trkpt>
      <trkpt lat="45.29633338563144207000732421875" lon="-70.9021851606667041778564453125">
        <ele>628.20001220703125</ele>
        <time>2026-08-21T15:43:53.000Z</time>
        <extensions>
          <ns3:TrackPointExtension>
            <ns3:hr>134</ns3:hr>
            <ns3:cad>0</ns3:cad>
          </ns3:TrackPointExtension>
        </extensions>
      </trkpt>
      <trkpt lat="45.29634964652359485626220703125" lon="-70.9021818079054355621337890625">
        <ele>628</ele>
        <time>2026-08-21T15:43:54.000Z</time>
        <extensions>
          <ns3:TrackPointExtension>
            <ns3:hr>134</ns3:hr>
            <ns3:cad>0</ns3:cad>
          </ns3:TrackPointExtension>
        </extensions>
      </trkpt>
      <trkpt lat="45.29637001454830169677734375" lon="-70.90217719785869121551513671875">
        <ele>627.79998779296875</ele>
        <time>2026-08-21T15:43:55.000Z</time>
        <extensions>
          <ns3:TrackPointExtension>
            <ns3:hr>135</ns3:hr>
            <ns3:cad>0</ns3:cad>
          </ns3:TrackPointExtension>
        </extensions>
      </trkpt>
      <trkpt lat="45.2963949926197528839111328125" lon="-70.90217200107872486114501953125">
        <ele>627.79998779296875</ele>
        <time>2026-08-21T15:43:56.000Z</time>
        <extensions>
          <ns3:TrackPointExtension>
            <ns3:hr>134</ns3:hr>
            <ns3:cad>0</ns3:cad>
          </ns3:TrackPointExtension>
        </extensions>
      </trkpt>
      <trkpt lat="45.2964147739112377166748046875" lon="-70.9021704085171222686767578125">
        <ele>627.79998779296875</ele>
        <time>2026-08-21T15:43:57.000Z</time>
        <extensions>
          <ns3:TrackPointExtension>
            <ns3:hr>134</ns3:hr>
            <ns3:cad>0</ns3:cad>
          </ns3:TrackPointExtension>
        </extensions>
      </trkpt>
      <trkpt lat="45.2964372374117374420166015625" lon="-70.902169235050678253173828125">
        <ele>627.79998779296875</ele>
        <time>2026-08-21T15:43:58.000Z</time>
        <extensions>
          <ns3:TrackPointExtension>
            <ns3:hr>134</ns3:hr>
            <ns3:cad>0</ns3:cad>
          </ns3:TrackPointExtension>
        </extensions>
      </trkpt>
      <trkpt lat="45.29645173810422420501708984375" lon="-70.90216244570910930633544921875">
        <ele>627.79998779296875</ele>
        <time>2026-08-21T15:43:59.000Z</time>
        <extensions>
          <ns3:TrackPointExtension>
            <ns3:hr>134</ns3:hr>
            <ns3:cad>0</ns3:cad>
          </ns3:TrackPointExtension>
        </extensions>
      </trkpt>
      <trkpt lat="45.2964627183973789215087890625" lon="-70.9021472744643688201904296875">
        <ele>627.79998779296875</ele>
        <time>2026-08-21T15:44:00.000Z</time>
        <extensions>
          <ns3:TrackPointExtension>
            <ns3:hr>134</ns3:hr>
            <ns3:cad>0</ns3:cad>
          </ns3:TrackPointExtension>
        </extensions>
      </trkpt>
      <trkpt lat="45.296472609043121337890625" lon="-70.90212707407772541046142578125">
        <ele>628</ele>
        <time>2026-08-21T15:44:01.000Z</time>
        <extensions>
          <ns3:TrackPointExtension>
            <ns3:hr>134</ns3:hr>
            <ns3:cad>0</ns3:cad>
          </ns3:TrackPointExtension>
        </extensions>
      </trkpt>
      <trkpt lat="45.296483002603054046630859375" lon="-70.9021043591201305389404296875">
        <ele>628.20001220703125</ele>
        <time>2026-08-21T15:44:02.000Z</time>
        <extensions>
          <ns3:TrackPointExtension>
            <ns3:hr>134</ns3:hr>
            <ns3:cad>0</ns3:cad>
          </ns3:TrackPointExtension>
        </extensions>
      </trkpt>
      <trkpt lat="45.29649180360138416290283203125" lon="-70.902083404362201690673828125">
        <ele>628.20001220703125</ele>
        <time>2026-08-21T15:44:03.000Z</time>
        <extensions>
          <ns3:TrackPointExtension>
            <ns3:hr>133</ns3:hr>
            <ns3:cad>0</ns3:cad>
          </ns3:TrackPointExtension>
        </extensions>
      </trkpt>
      <trkpt lat="45.29650202952325344085693359375" lon="-70.9020601026713848114013671875">
        <ele>628.20001220703125</ele>
        <time>2026-08-21T15:44:04.000Z</time>
        <extensions>
          <ns3:TrackPointExtension>
            <ns3:hr>133</ns3:hr>
            <ns3:cad>0</ns3:cad>
          </ns3:TrackPointExtension>
        </extensions>
      </trkpt>
      <trkpt lat="45.2965136803686618804931640625" lon="-70.90204484760761260986328125">
        <ele>628.20001220703125</ele>
        <time>2026-08-21T15:44:05.000Z</time>
        <extensions>
          <ns3:TrackPointExtension>
            <ns3:hr>133</ns3:hr>
            <ns3:cad>0</ns3:cad>
          </ns3:TrackPointExtension>
        </extensions>
      </trkpt>
      <trkpt lat="45.2965260855853557586669921875" lon="-70.9020332805812358856201171875">
        <ele>628.20001220703125</ele>
        <time>2026-08-21T15:44:06.000Z</time>
        <extensions>
          <ns3:TrackPointExtension>
            <ns3:hr>132</ns3:hr>
            <ns3:cad>0</ns3:cad>
          </ns3:TrackPointExtension>
        </extensions>
      </trkpt>
      <trkpt lat="45.29653522185981273651123046875" lon="-70.902027077972888946533203125">
        <ele>628.20001220703125</ele>
        <time>2026-08-21T15:44:07.000Z</time>
        <extensions>
          <ns3:TrackPointExtension>
            <ns3:hr>133</ns3:hr>
            <ns3:cad>0</ns3:cad>
          </ns3:TrackPointExtension>
        </extensions>
      </trkpt>
      <trkpt lat="45.29654377140104770660400390625" lon="-70.90202230028808116912841796875">
        <ele>628</ele>
        <time>2026-08-21T15:44:08.000Z</time>
        <extensions>
          <ns3:TrackPointExtension>
            <ns3:hr>133</ns3:hr>
            <ns3:cad>57</ns3:cad>
          </ns3:TrackPointExtension>
        </extensions>
      </trkpt>
      <trkpt lat="45.2965532429516315460205078125" lon="-70.902017690241336822509765625">
        <ele>628</ele>
        <time>2026-08-21T15:44:09.000Z</time>
        <extensions>
          <ns3:TrackPointExtension>
            <ns3:hr>133</ns3:hr>
            <ns3:cad>57</ns3:cad>
          </ns3:TrackPointExtension>
        </extensions>
      </trkpt>
      <trkpt lat="45.2965582720935344696044921875" lon="-70.90200168080627918243408203125">
        <ele>628</ele>
        <time>2026-08-21T15:44:10.000Z</time>
        <extensions>
          <ns3:TrackPointExtension>
            <ns3:hr>134</ns3:hr>
            <ns3:cad>57</ns3:cad>
          </ns3:TrackPointExtension>
        </extensions>
      </trkpt>
      <trkpt lat="45.29656313359737396240234375" lon="-70.90198877267539501190185546875">
        <ele>628</ele>
        <time>2026-08-21T15:44:11.000Z</time>
        <extensions>
          <ns3:TrackPointExtension>
            <ns3:hr>134</ns3:hr>
            <ns3:cad>57</ns3:cad>
          </ns3:TrackPointExtension>
        </extensions>
      </trkpt>
      <trkpt lat="45.296569503843784332275390625" lon="-70.9019776247441768646240234375">
        <ele>628</ele>
        <time>2026-08-21T15:44:12.000Z</time>
        <extensions>
          <ns3:TrackPointExtension>
            <ns3:hr>134</ns3:hr>
            <ns3:cad>57</ns3:cad>
          </ns3:TrackPointExtension>
        </extensions>
      </trkpt>
      <trkpt lat="45.29657562263309955596923828125" lon="-70.90196412988007068634033203125">
        <ele>627.79998779296875</ele>
        <time>2026-08-21T15:44:13.000Z</time>
        <extensions>
          <ns3:TrackPointExtension>
            <ns3:hr>134</ns3:hr>
            <ns3:cad>0</ns3:cad>
          </ns3:TrackPointExtension>
        </extensions>
      </trkpt>
      <trkpt lat="45.2965780533850193023681640625" lon="-70.901951976120471954345703125">
        <ele>627.5999755859375</ele>
        <time>2026-08-21T15:44:14.000Z</time>
        <extensions>
          <ns3:TrackPointExtension>
            <ns3:hr>134</ns3:hr>
            <ns3:cad>0</ns3:cad>
          </ns3:TrackPointExtension>
        </extensions>
      </trkpt>
      <trkpt lat="45.29658584855496883392333984375" lon="-70.90193512849509716033935546875">
        <ele>627.4000244140625</ele>
        <time>2026-08-21T15:44:15.000Z</time>
        <extensions>
          <ns3:TrackPointExtension>
            <ns3:hr>134</ns3:hr>
            <ns3:cad>60</ns3:cad>
          </ns3:TrackPointExtension>
        </extensions>
      </trkpt>
      <trkpt lat="45.2965958230197429656982421875" lon="-70.901917107403278350830078125">
        <ele>627.20001220703125</ele>
        <time>2026-08-21T15:44:16.000Z</time>
        <extensions>
          <ns3:TrackPointExtension>
            <ns3:hr>134</ns3:hr>
            <ns3:cad>60</ns3:cad>
          </ns3:TrackPointExtension>
        </extensions>
      </trkpt>
      <trkpt lat="45.296603702008724212646484375" lon="-70.901895649731159210205078125">
        <ele>627</ele>
        <time>2026-08-21T15:44:17.000Z</time>
        <extensions>
          <ns3:TrackPointExtension>
            <ns3:hr>134</ns3:hr>
            <ns3:cad>59</ns3:cad>
          </ns3:TrackPointExtension>
        </extensions>
      </trkpt>
      <trkpt lat="45.29661032371222972869873046875" lon="-70.90187880210578441619873046875">
        <ele>627</ele>
        <time>2026-08-21T15:44:18.000Z</time>
        <extensions>
          <ns3:TrackPointExtension>
            <ns3:hr>134</ns3:hr>
            <ns3:cad>59</ns3:cad>
          </ns3:TrackPointExtension>
        </extensions>
      </trkpt>
      <trkpt lat="45.2966149337589740753173828125" lon="-70.90185952372848987579345703125">
        <ele>627</ele>
        <time>2026-08-21T15:44:19.000Z</time>
        <extensions>
          <ns3:TrackPointExtension>
            <ns3:hr>134</ns3:hr>
            <ns3:cad>59</ns3:cad>
          </ns3:TrackPointExtension>
        </extensions>
      </trkpt>
      <trkpt lat="45.29661904089152812957763671875" lon="-70.90183823369443416595458984375">
        <ele>627</ele>
        <time>2026-08-21T15:44:20.000Z</time>
        <extensions>
          <ns3:TrackPointExtension>
            <ns3:hr>134</ns3:hr>
            <ns3:cad>60</ns3:cad>
          </ns3:TrackPointExtension>
        </extensions>
      </trkpt>
      <trkpt lat="45.2966199629008769989013671875" lon="-70.9018176980316638946533203125">
        <ele>627</ele>
        <time>2026-08-21T15:44:21.000Z</time>
        <extensions>
          <ns3:TrackPointExtension>
            <ns3:hr>135</ns3:hr>
            <ns3:cad>60</ns3:cad>
          </ns3:TrackPointExtension>
        </extensions>
      </trkpt>
      <trkpt lat="45.2966199629008769989013671875" lon="-70.901800096035003662109375">
        <ele>627</ele>
        <time>2026-08-21T15:44:22.000Z</time>
        <extensions>
          <ns3:TrackPointExtension>
            <ns3:hr>135</ns3:hr>
            <ns3:cad>59</ns3:cad>
          </ns3:TrackPointExtension>
        </extensions>
      </trkpt>
      <trkpt lat="45.29662356711924076080322265625" lon="-70.9017841704189777374267578125">
        <ele>627</ele>
        <time>2026-08-21T15:44:23.000Z</time>
        <extensions>
          <ns3:TrackPointExtension>
            <ns3:hr>135</ns3:hr>
            <ns3:cad>59</ns3:cad>
          </ns3:TrackPointExtension>
        </extensions>
      </trkpt>
      <trkpt lat="45.29662826098501682281494140625" lon="-70.90177319012582302093505859375">
        <ele>627</ele>
        <time>2026-08-21T15:44:24.000Z</time>
        <extensions>
          <ns3:TrackPointExtension>
            <ns3:hr>135</ns3:hr>
            <ns3:cad>59</ns3:cad>
          </ns3:TrackPointExtension>
        </extensions>
      </trkpt>
      <trkpt lat="45.296633876860141754150390625" lon="-70.9017613716423511505126953125">
        <ele>626.79998779296875</ele>
        <time>2026-08-21T15:44:25.000Z</time>
        <extensions>
          <ns3:TrackPointExtension>
            <ns3:hr>135</ns3:hr>
            <ns3:cad>59</ns3:cad>
          </ns3:TrackPointExtension>
        </extensions>
      </trkpt>
      <trkpt lat="45.2966404147446155548095703125" lon="-70.90175122953951358795166015625">
        <ele>626.79998779296875</ele>
        <time>2026-08-21T15:44:26.000Z</time>
        <extensions>
          <ns3:TrackPointExtension>
            <ns3:hr>134</ns3:hr>
            <ns3:cad>59</ns3:cad>
          </ns3:TrackPointExtension>
        </extensions>
      </trkpt>
      <trkpt lat="45.29664820991456508636474609375" lon="-70.9017523191869258880615234375">
        <ele>626.79998779296875</ele>
        <time>2026-08-21T15:44:27.000Z</time>
        <extensions>
          <ns3:TrackPointExtension>
            <ns3:hr>134</ns3:hr>
            <ns3:cad>59</ns3:cad>
          </ns3:TrackPointExtension>
        </extensions>
      </trkpt>
      <trkpt lat="45.29665994457900524139404296875" lon="-70.90175843797624111175537109375">
        <ele>626.79998779296875</ele>
        <time>2026-08-21T15:44:28.000Z</time>
        <extensions>
          <ns3:TrackPointExtension>
            <ns3:hr>134</ns3:hr>
            <ns3:cad>55</ns3:cad>
          </ns3:TrackPointExtension>
        </extensions>
      </trkpt>
      <trkpt lat="45.2966722659766674041748046875" lon="-70.90176522731781005859375">
        <ele>626.79998779296875</ele>
        <time>2026-08-21T15:44:29.000Z</time>
        <extensions>
          <ns3:TrackPointExtension>
            <ns3:hr>134</ns3:hr>
            <ns3:cad>55</ns3:cad>
          </ns3:TrackPointExtension>
        </extensions>
      </trkpt>
      <trkpt lat="45.2966860122978687286376953125" lon="-70.90175089426338672637939453125">
        <ele>626.79998779296875</ele>
        <time>2026-08-21T15:44:30.000Z</time>
        <extensions>
          <ns3:TrackPointExtension>
            <ns3:hr>134</ns3:hr>
            <ns3:cad>55</ns3:cad>
          </ns3:TrackPointExtension>
        </extensions>
      </trkpt>
      <trkpt lat="45.2966967411339282989501953125" lon="-70.90172524563968181610107421875">
        <ele>626.79998779296875</ele>
        <time>2026-08-21T15:44:31.000Z</time>
        <extensions>
          <ns3:TrackPointExtension>
            <ns3:hr>134</ns3:hr>
            <ns3:cad>55</ns3:cad>
          </ns3:TrackPointExtension>
        </extensions>
      </trkpt>
      <trkpt lat="45.2967041172087192535400390625" lon="-70.90170915238559246063232421875">
        <ele>626.79998779296875</ele>
        <time>2026-08-21T15:44:32.000Z</time>
        <extensions>
          <ns3:TrackPointExtension>
            <ns3:hr>134</ns3:hr>
            <ns3:cad>0</ns3:cad>
          </ns3:TrackPointExtension>
        </extensions>
      </trkpt>
      <trkpt lat="45.296719036996364593505859375" lon="-70.90169213712215423583984375">
        <ele>627</ele>
        <time>2026-08-21T15:44:33.000Z</time>
        <extensions>
          <ns3:TrackPointExtension>
            <ns3:hr>134</ns3:hr>
            <ns3:cad>0</ns3:cad>
          </ns3:TrackPointExtension>
        </extensions>
      </trkpt>
      <trkpt lat="45.29672808945178985595703125" lon="-70.9016805700957775115966796875">
        <ele>627</ele>
        <time>2026-08-21T15:44:34.000Z</time>
        <extensions>
          <ns3:TrackPointExtension>
            <ns3:hr>134</ns3:hr>
            <ns3:cad>0</ns3:cad>
          </ns3:TrackPointExtension>
        </extensions>
      </trkpt>
      <trkpt lat="45.29673974029719829559326171875" lon="-70.90167579241096973419189453125">
        <ele>627.20001220703125</ele>
        <time>2026-08-21T15:44:35.000Z</time>
        <extensions>
          <ns3:TrackPointExtension>
            <ns3:hr>134</ns3:hr>
            <ns3:cad>0</ns3:cad>
          </ns3:TrackPointExtension>
        </extensions>
      </trkpt>
      <trkpt lat="45.296750552952289581298828125" lon="-70.90166171081364154815673828125">
        <ele>627.5999755859375</ele>
        <time>2026-08-21T15:44:36.000Z</time>
        <extensions>
          <ns3:TrackPointExtension>
            <ns3:hr>134</ns3:hr>
            <ns3:cad>0</ns3:cad>
          </ns3:TrackPointExtension>
        </extensions>
      </trkpt>
      <trkpt lat="45.29676035977900028228759765625" lon="-70.90165047906339168548583984375">
        <ele>627.79998779296875</ele>
        <time>2026-08-21T15:44:37.000Z</time>
        <extensions>
          <ns3:TrackPointExtension>
            <ns3:hr>134</ns3:hr>
            <ns3:cad>0</ns3:cad>
          </ns3:TrackPointExtension>
        </extensions>
      </trkpt>
      <trkpt lat="45.29676790349185466766357421875" lon="-70.9016413427889347076416015625">
        <ele>628</ele>
        <time>2026-08-21T15:44:38.000Z</time>
        <extensions>
          <ns3:TrackPointExtension>
            <ns3:hr>134</ns3:hr>
            <ns3:cad>0</ns3:cad>
          </ns3:TrackPointExtension>
        </extensions>
      </trkpt>
      <trkpt lat="45.29677829705178737640380859375" lon="-70.90163170360028743743896484375">
        <ele>628.20001220703125</ele>
        <time>2026-08-21T15:44:39.000Z</time>
        <extensions>
          <ns3:TrackPointExtension>
            <ns3:hr>134</ns3:hr>
            <ns3:cad>0</ns3:cad>
          </ns3:TrackPointExtension>
        </extensions>
      </trkpt>
      <trkpt lat="45.29678969644010066986083984375" lon="-70.9016058035194873809814453125">
        <ele>628.20001220703125</ele>
        <time>2026-08-21T15:44:40.000Z</time>
        <extensions>
          <ns3:TrackPointExtension>
            <ns3:hr>134</ns3:hr>
            <ns3:cad>0</ns3:cad>
          </ns3:TrackPointExtension>
        </extensions>
      </trkpt>
      <trkpt lat="45.29679824598133563995361328125" lon="-70.9015853516757488250732421875">
        <ele>628.4000244140625</ele>
        <time>2026-08-21T15:44:41.000Z</time>
        <extensions>
          <ns3:TrackPointExtension>
            <ns3:hr>134</ns3:hr>
            <ns3:cad>0</ns3:cad>
          </ns3:TrackPointExtension>
        </extensions>
      </trkpt>
      <trkpt lat="45.29680696316063404083251953125" lon="-70.901563726365566253662109375">
        <ele>628.4000244140625</ele>
        <time>2026-08-21T15:44:42.000Z</time>
        <extensions>
          <ns3:TrackPointExtension>
            <ns3:hr>134</ns3:hr>
            <ns3:cad>0</ns3:cad>
          </ns3:TrackPointExtension>
        </extensions>
      </trkpt>
      <trkpt lat="45.29681215994060039520263671875" lon="-70.90154729783535003662109375">
        <ele>628.5999755859375</ele>
        <time>2026-08-21T15:44:43.000Z</time>
        <extensions>
          <ns3:TrackPointExtension>
            <ns3:hr>134</ns3:hr>
            <ns3:cad>0</ns3:cad>
          </ns3:TrackPointExtension>
        </extensions>
      </trkpt>
      <trkpt lat="45.296815931797027587890625" lon="-70.90152642689645290374755859375">
        <ele>628.5999755859375</ele>
        <time>2026-08-21T15:44:44.000Z</time>
        <extensions>
          <ns3:TrackPointExtension>
            <ns3:hr>134</ns3:hr>
            <ns3:cad>0</ns3:cad>
          </ns3:TrackPointExtension>
        </extensions>
      </trkpt>
      <trkpt lat="45.29682355932891368865966796875" lon="-70.90151242911815643310546875">
        <ele>628.5999755859375</ele>
        <time>2026-08-21T15:44:45.000Z</time>
        <extensions>
          <ns3:TrackPointExtension>
            <ns3:hr>135</ns3:hr>
            <ns3:cad>58</ns3:cad>
          </ns3:TrackPointExtension>
        </extensions>
      </trkpt>
      <trkpt lat="45.29683831147849559783935546875" lon="-70.90150840580463409423828125">
        <ele>628.5999755859375</ele>
        <time>2026-08-21T15:44:46.000Z</time>
        <extensions>
          <ns3:TrackPointExtension>
            <ns3:hr>135</ns3:hr>
            <ns3:cad>58</ns3:cad>
          </ns3:TrackPointExtension>
        </extensions>
      </trkpt>
      <trkpt lat="45.29685038141906261444091796875" lon="-70.901505388319492340087890625">
        <ele>628.5999755859375</ele>
        <time>2026-08-21T15:44:47.000Z</time>
        <extensions>
          <ns3:TrackPointExtension>
            <ns3:hr>136</ns3:hr>
            <ns3:cad>58</ns3:cad>
          </ns3:TrackPointExtension>
        </extensions>
      </trkpt>
      <trkpt lat="45.2968628704547882080078125" lon="-70.90150278992950916290283203125">
        <ele>628.4000244140625</ele>
        <time>2026-08-21T15:44:48.000Z</time>
        <extensions>
          <ns3:TrackPointExtension>
            <ns3:hr>136</ns3:hr>
            <ns3:cad>58</ns3:cad>
          </ns3:TrackPointExtension>
        </extensions>
      </trkpt>
      <trkpt lat="45.2968754433095455169677734375" lon="-70.9015008620917797088623046875">
        <ele>628.4000244140625</ele>
        <time>2026-08-21T15:44:49.000Z</time>
        <extensions>
          <ns3:TrackPointExtension>
            <ns3:hr>137</ns3:hr>
            <ns3:cad>58</ns3:cad>
          </ns3:TrackPointExtension>
        </extensions>
      </trkpt>
      <trkpt lat="45.29688994400203227996826171875" lon="-70.901501365005970001220703125">
        <ele>628.4000244140625</ele>
        <time>2026-08-21T15:44:50.000Z</time>
        <extensions>
          <ns3:TrackPointExtension>
            <ns3:hr>137</ns3:hr>
            <ns3:cad>58</ns3:cad>
          </ns3:TrackPointExtension>
        </extensions>
      </trkpt>
      <trkpt lat="45.29690804891288280487060546875" lon="-70.9015023708343505859375">
        <ele>628.4000244140625</ele>
        <time>2026-08-21T15:44:51.000Z</time>
        <extensions>
          <ns3:TrackPointExtension>
            <ns3:hr>137</ns3:hr>
            <ns3:cad>67</ns3:cad>
          </ns3:TrackPointExtension>
        </extensions>
      </trkpt>
      <trkpt lat="45.2969267405569553375244140625" lon="-70.90149809606373310089111328125">
        <ele>628.4000244140625</ele>
        <time>2026-08-21T15:44:52.000Z</time>
        <extensions>
          <ns3:TrackPointExtension>
            <ns3:hr>137</ns3:hr>
            <ns3:cad>67</ns3:cad>
          </ns3:TrackPointExtension>
        </extensions>
      </trkpt>
      <trkpt lat="45.2969461865723133087158203125" lon="-70.90149273164570331573486328125">
        <ele>628.4000244140625</ele>
        <time>2026-08-21T15:44:53.000Z</time>
        <extensions>
          <ns3:TrackPointExtension>
            <ns3:hr>137</ns3:hr>
            <ns3:cad>67</ns3:cad>
          </ns3:TrackPointExtension>
        </extensions>
      </trkpt>
      <trkpt lat="45.296960771083831787109375" lon="-70.9014871157705783843994140625">
        <ele>628.20001220703125</ele>
        <time>2026-08-21T15:44:54.000Z</time>
        <extensions>
          <ns3:TrackPointExtension>
            <ns3:hr>137</ns3:hr>
            <ns3:cad>67</ns3:cad>
          </ns3:TrackPointExtension>
        </extensions>
      </trkpt>
      <trkpt lat="45.296975187957286834716796875" lon="-70.90148703195154666900634765625">
        <ele>628.20001220703125</ele>
        <time>2026-08-21T15:44:55.000Z</time>
        <extensions>
          <ns3:TrackPointExtension>
            <ns3:hr>137</ns3:hr>
            <ns3:cad>67</ns3:cad>
          </ns3:TrackPointExtension>
        </extensions>
      </trkpt>
      <trkpt lat="45.296985916793346405029296875" lon="-70.90149340219795703887939453125">
        <ele>628.20001220703125</ele>
        <time>2026-08-21T15:44:56.000Z</time>
        <extensions>
          <ns3:TrackPointExtension>
            <ns3:hr>137</ns3:hr>
            <ns3:cad>67</ns3:cad>
          </ns3:TrackPointExtension>
        </extensions>
      </trkpt>
      <trkpt lat="45.29700100421905517578125" lon="-70.901492647826671600341796875">
        <ele>628.20001220703125</ele>
        <time>2026-08-21T15:44:57.000Z</time>
        <extensions>
          <ns3:TrackPointExtension>
            <ns3:hr>138</ns3:hr>
            <ns3:cad>67</ns3:cad>
          </ns3:TrackPointExtension>
        </extensions>
      </trkpt>
      <trkpt lat="45.2970139123499393463134765625" lon="-70.90149373747408390045166015625">
        <ele>628.20001220703125</ele>
        <time>2026-08-21T15:44:58.000Z</time>
        <extensions>
          <ns3:TrackPointExtension>
            <ns3:hr>138</ns3:hr>
            <ns3:cad>67</ns3:cad>
          </ns3:TrackPointExtension>
        </extensions>
      </trkpt>
      <trkpt lat="45.2970253117382526397705078125" lon="-70.90149742551147937774658203125">
        <ele>628.20001220703125</ele>
        <time>2026-08-21T15:44:59.000Z</time>
        <extensions>
          <ns3:TrackPointExtension>
            <ns3:hr>138</ns3:hr>
            <ns3:cad>67</ns3:cad>
          </ns3:TrackPointExtension>
        </extensions>
      </trkpt>
      <trkpt lat="45.29703746549785137176513671875" lon="-70.901501365005970001220703125">
        <ele>628.20001220703125</ele>
        <time>2026-08-21T15:45:00.000Z</time>
        <extensions>
          <ns3:TrackPointExtension>
            <ns3:hr>138</ns3:hr>
            <ns3:cad>67</ns3:cad>
          </ns3:TrackPointExtension>
        </extensions>
      </trkpt>
      <trkpt lat="45.2970521338284015655517578125" lon="-70.90150329284369945526123046875">
        <ele>628</ele>
        <time>2026-08-21T15:45:01.000Z</time>
        <extensions>
          <ns3:TrackPointExtension>
            <ns3:hr>138</ns3:hr>
            <ns3:cad>67</ns3:cad>
          </ns3:TrackPointExtension>
        </extensions>
      </trkpt>
      <trkpt lat="45.2970667183399200439453125" lon="-70.90150035917758941650390625">
        <ele>628</ele>
        <time>2026-08-21T15:45:02.000Z</time>
        <extensions>
          <ns3:TrackPointExtension>
            <ns3:hr>139</ns3:hr>
            <ns3:cad>67</ns3:cad>
          </ns3:TrackPointExtension>
        </extensions>
      </trkpt>
      <trkpt lat="45.2970828115940093994140625" lon="-70.90149356983602046966552734375">
        <ele>627.5999755859375</ele>
        <time>2026-08-21T15:45:03.000Z</time>
        <extensions>
          <ns3:TrackPointExtension>
            <ns3:hr>140</ns3:hr>
            <ns3:cad>67</ns3:cad>
          </ns3:TrackPointExtension>
        </extensions>
      </trkpt>
      <trkpt lat="45.29709815047681331634521484375" lon="-70.90149122290313243865966796875">
        <ele>627.4000244140625</ele>
        <time>2026-08-21T15:45:04.000Z</time>
        <extensions>
          <ns3:TrackPointExtension>
            <ns3:hr>142</ns3:hr>
            <ns3:cad>0</ns3:cad>
          </ns3:TrackPointExtension>
        </extensions>
      </trkpt>
      <trkpt lat="45.29711022041738033294677734375" lon="-70.90148334391415119171142578125">
        <ele>627</ele>
        <time>2026-08-21T15:45:05.000Z</time>
        <extensions>
          <ns3:TrackPointExtension>
            <ns3:hr>143</ns3:hr>
            <ns3:cad>0</ns3:cad>
          </ns3:TrackPointExtension>
        </extensions>
      </trkpt>
      <trkpt lat="45.29712849296629428863525390625" lon="-70.90147362090647220611572265625">
        <ele>626.79998779296875</ele>
        <time>2026-08-21T15:45:06.000Z</time>
        <extensions>
          <ns3:TrackPointExtension>
            <ns3:hr>143</ns3:hr>
            <ns3:cad>0</ns3:cad>
          </ns3:TrackPointExtension>
        </extensions>
      </trkpt>
      <trkpt lat="45.29713536612689495086669921875" lon="-70.9014649875462055206298828125">
        <ele>626.4000244140625</ele>
        <time>2026-08-21T15:45:07.000Z</time>
        <extensions>
          <ns3:TrackPointExtension>
            <ns3:hr>143</ns3:hr>
            <ns3:cad>0</ns3:cad>
          </ns3:TrackPointExtension>
        </extensions>
      </trkpt>
      <trkpt lat="45.29714651405811309814453125" lon="-70.90144461952149868011474609375">
        <ele>626.20001220703125</ele>
        <time>2026-08-21T15:45:08.000Z</time>
        <extensions>
          <ns3:TrackPointExtension>
            <ns3:hr>143</ns3:hr>
            <ns3:cad>0</ns3:cad>
          </ns3:TrackPointExtension>
        </extensions>
      </trkpt>
      <trkpt lat="45.29715330339968204498291015625" lon="-70.90142852626740932464599609375">
        <ele>626</ele>
        <time>2026-08-21T15:45:09.000Z</time>
        <extensions>
          <ns3:TrackPointExtension>
            <ns3:hr>143</ns3:hr>
            <ns3:cad>0</ns3:cad>
          </ns3:TrackPointExtension>
        </extensions>
      </trkpt>
      <trkpt lat="45.29716118238866329193115234375" lon="-70.9014086611568927764892578125">
        <ele>625.79998779296875</ele>
        <time>2026-08-21T15:45:10.000Z</time>
        <extensions>
          <ns3:TrackPointExtension>
            <ns3:hr>143</ns3:hr>
            <ns3:cad>0</ns3:cad>
          </ns3:TrackPointExtension>
        </extensions>
      </trkpt>
      <trkpt lat="45.29717023484408855438232421875" lon="-70.90139575302600860595703125">
        <ele>626</ele>
        <time>2026-08-21T15:45:11.000Z</time>
        <extensions>
          <ns3:TrackPointExtension>
            <ns3:hr>143</ns3:hr>
            <ns3:cad>0</ns3:cad>
          </ns3:TrackPointExtension>
        </extensions>
      </trkpt>
      <trkpt lat="45.29718314297497272491455078125" lon="-70.9013883769512176513671875">
        <ele>626</ele>
        <time>2026-08-21T15:45:12.000Z</time>
        <extensions>
          <ns3:TrackPointExtension>
            <ns3:hr>143</ns3:hr>
            <ns3:cad>0</ns3:cad>
          </ns3:TrackPointExtension>
        </extensions>
      </trkpt>
      <trkpt lat="45.29720191843807697296142578125" lon="-70.90137965977191925048828125">
        <ele>626</ele>
        <time>2026-08-21T15:45:13.000Z</time>
        <extensions>
          <ns3:TrackPointExtension>
            <ns3:hr>143</ns3:hr>
            <ns3:cad>0</ns3:cad>
          </ns3:TrackPointExtension>
        </extensions>
      </trkpt>
      <trkpt lat="45.2972134016454219818115234375" lon="-70.90138108469545841217041015625">
        <ele>626</ele>
        <time>2026-08-21T15:45:14.000Z</time>
        <extensions>
          <ns3:TrackPointExtension>
            <ns3:hr>143</ns3:hr>
            <ns3:cad>0</ns3:cad>
          </ns3:TrackPointExtension>
        </extensions>
      </trkpt>
      <trkpt lat="45.29722563922405242919921875" lon="-70.90139181353151798248291015625">
        <ele>626</ele>
        <time>2026-08-21T15:45:15.000Z</time>
        <extensions>
          <ns3:TrackPointExtension>
            <ns3:hr>143</ns3:hr>
            <ns3:cad>0</ns3:cad>
          </ns3:TrackPointExtension>
        </extensions>
      </trkpt>
      <trkpt lat="45.297234021127223968505859375" lon="-70.9014029614627361297607421875">
        <ele>625.79998779296875</ele>
        <time>2026-08-21T15:45:16.000Z</time>
        <extensions>
          <ns3:TrackPointExtension>
            <ns3:hr>142</ns3:hr>
            <ns3:cad>0</ns3:cad>
          </ns3:TrackPointExtension>
        </extensions>
      </trkpt>
      <trkpt lat="45.29724039137363433837890625" lon="-70.9014160372316837310791015625">
        <ele>625.5999755859375</ele>
        <time>2026-08-21T15:45:17.000Z</time>
        <extensions>
          <ns3:TrackPointExtension>
            <ns3:hr>142</ns3:hr>
            <ns3:cad>0</ns3:cad>
          </ns3:TrackPointExtension>
        </extensions>
      </trkpt>
      <trkpt lat="45.29724801890552043914794921875" lon="-70.9014364890754222869873046875">
        <ele>625.5999755859375</ele>
        <time>2026-08-21T15:45:18.000Z</time>
        <extensions>
          <ns3:TrackPointExtension>
            <ns3:hr>142</ns3:hr>
            <ns3:cad>75</ns3:cad>
          </ns3:TrackPointExtension>
        </extensions>
      </trkpt>
      <trkpt lat="45.2972553111612796783447265625" lon="-70.9014509059488773345947265625">
        <ele>625.4000244140625</ele>
        <time>2026-08-21T15:45:19.000Z</time>
        <extensions>
          <ns3:TrackPointExtension>
            <ns3:hr>141</ns3:hr>
            <ns3:cad>75</ns3:cad>
          </ns3:TrackPointExtension>
        </extensions>
      </trkpt>
      <trkpt lat="45.297266207635402679443359375" lon="-70.90145836584270000457763671875">
        <ele>625.4000244140625</ele>
        <time>2026-08-21T15:45:20.000Z</time>
        <extensions>
          <ns3:TrackPointExtension>
            <ns3:hr>141</ns3:hr>
            <ns3:cad>75</ns3:cad>
          </ns3:TrackPointExtension>
        </extensions>
      </trkpt>
      <trkpt lat="45.29728288762271404266357421875" lon="-70.90146280825138092041015625">
        <ele>625.5999755859375</ele>
        <time>2026-08-21T15:45:21.000Z</time>
        <extensions>
          <ns3:TrackPointExtension>
            <ns3:hr>141</ns3:hr>
            <ns3:cad>0</ns3:cad>
          </ns3:TrackPointExtension>
        </extensions>
      </trkpt>
      <trkpt lat="45.29730216600000858306884765625" lon="-70.90146792121231555938720703125">
        <ele>625.5999755859375</ele>
        <time>2026-08-21T15:45:22.000Z</time>
        <extensions>
          <ns3:TrackPointExtension>
            <ns3:hr>140</ns3:hr>
            <ns3:cad>0</ns3:cad>
          </ns3:TrackPointExtension>
        </extensions>
      </trkpt>
      <trkpt lat="45.297322534024715423583984375" lon="-70.9014653228223323822021484375">
        <ele>625.79998779296875</ele>
        <time>2026-08-21T15:45:23.000Z</time>
        <extensions>
          <ns3:TrackPointExtension>
            <ns3:hr>139</ns3:hr>
            <ns3:cad>0</ns3:cad>
          </ns3:TrackPointExtension>
        </extensions>
      </trkpt>
      <trkpt lat="45.29735228978097438812255859375" lon="-70.9014472179114818572998046875">
        <ele>626</ele>
        <time>2026-08-21T15:45:24.000Z</time>
        <extensions>
          <ns3:TrackPointExtension>
            <ns3:hr>139</ns3:hr>
            <ns3:cad>0</ns3:cad>
          </ns3:TrackPointExtension>
        </extensions>
      </trkpt>
      <trkpt lat="45.29737391509115695953369140625" lon="-70.9014405123889446258544921875">
        <ele>626</ele>
        <time>2026-08-21T15:45:25.000Z</time>
        <extensions>
          <ns3:TrackPointExtension>
            <ns3:hr>139</ns3:hr>
            <ns3:cad>0</ns3:cad>
          </ns3:TrackPointExtension>
        </extensions>
      </trkpt>
      <trkpt lat="45.29739235527813434600830078125" lon="-70.90144244022667407989501953125">
        <ele>626.20001220703125</ele>
        <time>2026-08-21T15:45:26.000Z</time>
        <extensions>
          <ns3:TrackPointExtension>
            <ns3:hr>139</ns3:hr>
            <ns3:cad>0</ns3:cad>
          </ns3:TrackPointExtension>
        </extensions>
      </trkpt>
      <trkpt lat="45.29740744270384311676025390625" lon="-70.90143791399896144866943359375">
        <ele>626.20001220703125</ele>
        <time>2026-08-21T15:45:27.000Z</time>
        <extensions>
          <ns3:TrackPointExtension>
            <ns3:hr>139</ns3:hr>
            <ns3:cad>0</ns3:cad>
          </ns3:TrackPointExtension>
        </extensions>
      </trkpt>
      <trkpt lat="45.2974263019859790802001953125" lon="-70.9014284424483776092529296875">
        <ele>626.20001220703125</ele>
        <time>2026-08-21T15:45:28.000Z</time>
        <extensions>
          <ns3:TrackPointExtension>
            <ns3:hr>138</ns3:hr>
            <ns3:cad>73</ns3:cad>
          </ns3:TrackPointExtension>
        </extensions>
      </trkpt>
      <trkpt lat="45.2974491007626056671142578125" lon="-70.9014163725078105926513671875">
        <ele>626</ele>
        <time>2026-08-21T15:45:29.000Z</time>
        <extensions>
          <ns3:TrackPointExtension>
            <ns3:hr>137</ns3:hr>
            <ns3:cad>73</ns3:cad>
          </ns3:TrackPointExtension>
        </extensions>
      </trkpt>
      <trkpt lat="45.297468714416027069091796875" lon="-70.90141042135655879974365234375">
        <ele>626</ele>
        <time>2026-08-21T15:45:30.000Z</time>
        <extensions>
          <ns3:TrackPointExtension>
            <ns3:hr>138</ns3:hr>
            <ns3:cad>75</ns3:cad>
          </ns3:TrackPointExtension>
        </extensions>
      </trkpt>
      <trkpt lat="45.29748857952654361724853515625" lon="-70.9014093317091464996337890625">
        <ele>625.79998779296875</ele>
        <time>2026-08-21T15:45:31.000Z</time>
        <extensions>
          <ns3:TrackPointExtension>
            <ns3:hr>138</ns3:hr>
            <ns3:cad>75</ns3:cad>
          </ns3:TrackPointExtension>
        </extensions>
      </trkpt>
      <trkpt lat="45.29750525951385498046875" lon="-70.90139918960630893707275390625">
        <ele>625.79998779296875</ele>
        <time>2026-08-21T15:45:32.000Z</time>
        <extensions>
          <ns3:TrackPointExtension>
            <ns3:hr>138</ns3:hr>
            <ns3:cad>75</ns3:cad>
          </ns3:TrackPointExtension>
        </extensions>
      </trkpt>
      <trkpt lat="45.29751959256827831268310546875" lon="-70.90137287043035030364990234375">
        <ele>625.5999755859375</ele>
        <time>2026-08-21T15:45:33.000Z</time>
        <extensions>
          <ns3:TrackPointExtension>
            <ns3:hr>138</ns3:hr>
            <ns3:cad>75</ns3:cad>
          </ns3:TrackPointExtension>
        </extensions>
      </trkpt>
      <trkpt lat="45.2975307404994964599609375" lon="-70.90134168975055217742919921875">
        <ele>625.5999755859375</ele>
        <time>2026-08-21T15:45:34.000Z</time>
        <extensions>
          <ns3:TrackPointExtension>
            <ns3:hr>138</ns3:hr>
            <ns3:cad>75</ns3:cad>
          </ns3:TrackPointExtension>
        </extensions>
      </trkpt>
      <trkpt lat="45.2975359372794628143310546875" lon="-70.90131872333586215972900390625">
        <ele>625.5999755859375</ele>
        <time>2026-08-21T15:45:35.000Z</time>
        <extensions>
          <ns3:TrackPointExtension>
            <ns3:hr>139</ns3:hr>
            <ns3:cad>75</ns3:cad>
          </ns3:TrackPointExtension>
        </extensions>
      </trkpt>
      <trkpt lat="45.29754079878330230712890625" lon="-70.90129190124571323394775390625">
        <ele>625.4000244140625</ele>
        <time>2026-08-21T15:45:36.000Z</time>
        <extensions>
          <ns3:TrackPointExtension>
            <ns3:hr>139</ns3:hr>
            <ns3:cad>75</ns3:cad>
          </ns3:TrackPointExtension>
        </extensions>
      </trkpt>
      <trkpt lat="45.2975483424961566925048828125" lon="-70.90126474387943744659423828125">
        <ele>625.4000244140625</ele>
        <time>2026-08-21T15:45:37.000Z</time>
        <extensions>
          <ns3:TrackPointExtension>
            <ns3:hr>139</ns3:hr>
            <ns3:cad>75</ns3:cad>
          </ns3:TrackPointExtension>
        </extensions>
      </trkpt>
      <trkpt lat="45.29755529947578907012939453125" lon="-70.90124278329312801361083984375">
        <ele>625.20001220703125</ele>
        <time>2026-08-21T15:45:38.000Z</time>
        <extensions>
          <ns3:TrackPointExtension>
            <ns3:hr>139</ns3:hr>
            <ns3:cad>75</ns3:cad>
          </ns3:TrackPointExtension>
        </extensions>
      </trkpt>
      <trkpt lat="45.2975656092166900634765625" lon="-70.901224426925182342529296875">
        <ele>625.20001220703125</ele>
        <time>2026-08-21T15:45:39.000Z</time>
        <extensions>
          <ns3:TrackPointExtension>
            <ns3:hr>139</ns3:hr>
            <ns3:cad>75</ns3:cad>
          </ns3:TrackPointExtension>
        </extensions>
      </trkpt>
      <trkpt lat="45.29758195392787456512451171875" lon="-70.9012135304510593414306640625">
        <ele>625.20001220703125</ele>
        <time>2026-08-21T15:45:40.000Z</time>
        <extensions>
          <ns3:TrackPointExtension>
            <ns3:hr>139</ns3:hr>
            <ns3:cad>75</ns3:cad>
          </ns3:TrackPointExtension>
        </extensions>
      </trkpt>
      <trkpt lat="45.2975939400494098663330078125" lon="-70.90120389126241207122802734375">
        <ele>625.20001220703125</ele>
        <time>2026-08-21T15:45:41.000Z</time>
        <extensions>
          <ns3:TrackPointExtension>
            <ns3:hr>139</ns3:hr>
            <ns3:cad>75</ns3:cad>
          </ns3:TrackPointExtension>
        </extensions>
      </trkpt>
      <trkpt lat="45.2976083569228649139404296875" lon="-70.90118997730314731597900390625">
        <ele>625.4000244140625</ele>
        <time>2026-08-21T15:45:42.000Z</time>
        <extensions>
          <ns3:TrackPointExtension>
            <ns3:hr>139</ns3:hr>
            <ns3:cad>75</ns3:cad>
          </ns3:TrackPointExtension>
        </extensions>
      </trkpt>
      <trkpt lat="45.29762000776827335357666015625" lon="-70.90117841027677059173583984375">
        <ele>625.4000244140625</ele>
        <time>2026-08-21T15:45:43.000Z</time>
        <extensions>
          <ns3:TrackPointExtension>
            <ns3:hr>140</ns3:hr>
            <ns3:cad>75</ns3:cad>
          </ns3:TrackPointExtension>
        </extensions>
      </trkpt>
      <trkpt lat="45.2976341731846332550048828125" lon="-70.90117271058261394500732421875">
        <ele>625.4000244140625</ele>
        <time>2026-08-21T15:45:44.000Z</time>
        <extensions>
          <ns3:TrackPointExtension>
            <ns3:hr>140</ns3:hr>
            <ns3:cad>75</ns3:cad>
          </ns3:TrackPointExtension>
        </extensions>
      </trkpt>
      <trkpt lat="45.29764716513454914093017578125" lon="-70.90116566978394985198974609375">
        <ele>625.4000244140625</ele>
        <time>2026-08-21T15:45:45.000Z</time>
        <extensions>
          <ns3:TrackPointExtension>
            <ns3:hr>140</ns3:hr>
            <ns3:cad>75</ns3:cad>
          </ns3:TrackPointExtension>
        </extensions>
      </trkpt>
      <trkpt lat="45.2976583130657672882080078125" lon="-70.90116047300398349761962890625">
        <ele>625.4000244140625</ele>
        <time>2026-08-21T15:45:46.000Z</time>
        <extensions>
          <ns3:TrackPointExtension>
            <ns3:hr>140</ns3:hr>
            <ns3:cad>75</ns3:cad>
          </ns3:TrackPointExtension>
        </extensions>
      </trkpt>
      <trkpt lat="45.29767222702503204345703125" lon="-70.90115058235824108123779296875">
        <ele>625.4000244140625</ele>
        <time>2026-08-21T15:45:47.000Z</time>
        <extensions>
          <ns3:TrackPointExtension>
            <ns3:hr>140</ns3:hr>
            <ns3:cad>0</ns3:cad>
          </ns3:TrackPointExtension>
        </extensions>
      </trkpt>
      <trkpt lat="45.29768220148980617523193359375" lon="-70.9011441282927989959716796875">
        <ele>625.5999755859375</ele>
        <time>2026-08-21T15:45:48.000Z</time>
        <extensions>
          <ns3:TrackPointExtension>
            <ns3:hr>140</ns3:hr>
            <ns3:cad>0</ns3:cad>
          </ns3:TrackPointExtension>
        </extensions>
      </trkpt>
      <trkpt lat="45.297693349421024322509765625" lon="-70.90114102698862552642822265625">
        <ele>625.5999755859375</ele>
        <time>2026-08-21T15:45:49.000Z</time>
        <extensions>
          <ns3:TrackPointExtension>
            <ns3:hr>140</ns3:hr>
            <ns3:cad>0</ns3:cad>
          </ns3:TrackPointExtension>
        </extensions>
      </trkpt>
      <trkpt lat="45.29770198278129100799560546875" lon="-70.9011350758373737335205078125">
        <ele>625.5999755859375</ele>
        <time>2026-08-21T15:45:50.000Z</time>
        <extensions>
          <ns3:TrackPointExtension>
            <ns3:hr>139</ns3:hr>
            <ns3:cad>0</ns3:cad>
          </ns3:TrackPointExtension>
        </extensions>
      </trkpt>
      <trkpt lat="45.29771790839731693267822265625" lon="-70.90112560428678989410400390625">
        <ele>625.4000244140625</ele>
        <time>2026-08-21T15:45:51.000Z</time>
        <extensions>
          <ns3:TrackPointExtension>
            <ns3:hr>139</ns3:hr>
            <ns3:cad>0</ns3:cad>
          </ns3:TrackPointExtension>
        </extensions>
      </trkpt>
      <trkpt lat="45.297728888690471649169921875" lon="-70.90112107805907726287841796875">
        <ele>625.20001220703125</ele>
        <time>2026-08-21T15:45:52.000Z</time>
        <extensions>
          <ns3:TrackPointExtension>
            <ns3:hr>138</ns3:hr>
            <ns3:cad>0</ns3:cad>
          </ns3:TrackPointExtension>
        </extensions>
      </trkpt>
      <trkpt lat="45.29774121008813381195068359375" lon="-70.90112023986876010894775390625">
        <ele>625.20001220703125</ele>
        <time>2026-08-21T15:45:53.000Z</time>
        <extensions>
          <ns3:TrackPointExtension>
            <ns3:hr>138</ns3:hr>
            <ns3:cad>0</ns3:cad>
          </ns3:TrackPointExtension>
        </extensions>
      </trkpt>
      <trkpt lat="45.297757051885128021240234375" lon="-70.9011129476130008697509765625">
        <ele>625.20001220703125</ele>
        <time>2026-08-21T15:45:54.000Z</time>
        <extensions>
          <ns3:TrackPointExtension>
            <ns3:hr>138</ns3:hr>
            <ns3:cad>0</ns3:cad>
          </ns3:TrackPointExtension>
        </extensions>
      </trkpt>
      <trkpt lat="45.29776836745440959930419921875" lon="-70.90109509415924549102783203125">
        <ele>625.20001220703125</ele>
        <time>2026-08-21T15:45:55.000Z</time>
        <extensions>
          <ns3:TrackPointExtension>
            <ns3:hr>139</ns3:hr>
            <ns3:cad>0</ns3:cad>
          </ns3:TrackPointExtension>
        </extensions>
      </trkpt>
      <trkpt lat="45.29777842573821544647216796875" lon="-70.90107900090515613555908203125">
        <ele>625.4000244140625</ele>
        <time>2026-08-21T15:45:56.000Z</time>
        <extensions>
          <ns3:TrackPointExtension>
            <ns3:hr>139</ns3:hr>
            <ns3:cad>0</ns3:cad>
          </ns3:TrackPointExtension>
        </extensions>
      </trkpt>
      <trkpt lat="45.29778487980365753173828125" lon="-70.901068858802318572998046875">
        <ele>625.4000244140625</ele>
        <time>2026-08-21T15:45:57.000Z</time>
        <extensions>
          <ns3:TrackPointExtension>
            <ns3:hr>140</ns3:hr>
            <ns3:cad>0</ns3:cad>
          </ns3:TrackPointExtension>
        </extensions>
      </trkpt>
      <trkpt lat="45.29779116623103618621826171875" lon="-70.9010572917759418487548828125">
        <ele>625.4000244140625</ele>
        <time>2026-08-21T15:45:58.000Z</time>
        <extensions>
          <ns3:TrackPointExtension>
            <ns3:hr>140</ns3:hr>
            <ns3:cad>0</ns3:cad>
          </ns3:TrackPointExtension>
        </extensions>
      </trkpt>
      <trkpt lat="45.2978011406958103179931640625" lon="-70.90104027651250362396240234375">
        <ele>625.4000244140625</ele>
        <time>2026-08-21T15:45:59.000Z</time>
        <extensions>
          <ns3:TrackPointExtension>
            <ns3:hr>140</ns3:hr>
            <ns3:cad>0</ns3:cad>
          </ns3:TrackPointExtension>
        </extensions>
      </trkpt>
      <trkpt lat="45.29780767858028411865234375" lon="-70.90101915411651134490966796875">
        <ele>625.4000244140625</ele>
        <time>2026-08-21T15:46:00.000Z</time>
        <extensions>
          <ns3:TrackPointExtension>
            <ns3:hr>140</ns3:hr>
            <ns3:cad>0</ns3:cad>
          </ns3:TrackPointExtension>
        </extensions>
      </trkpt>
      <trkpt lat="45.29780977405607700347900390625" lon="-70.90100104920566082000732421875">
        <ele>625.4000244140625</ele>
        <time>2026-08-21T15:46:01.000Z</time>
        <extensions>
          <ns3:TrackPointExtension>
            <ns3:hr>140</ns3:hr>
            <ns3:cad>0</ns3:cad>
          </ns3:TrackPointExtension>
        </extensions>
      </trkpt>
      <trkpt lat="45.2978158928453922271728515625" lon="-70.900985039770603179931640625">
        <ele>625.4000244140625</ele>
        <time>2026-08-21T15:46:02.000Z</time>
        <extensions>
          <ns3:TrackPointExtension>
            <ns3:hr>140</ns3:hr>
            <ns3:cad>55</ns3:cad>
          </ns3:TrackPointExtension>
        </extensions>
      </trkpt>
      <trkpt lat="45.29782167635858058929443359375" lon="-70.90097372420132160186767578125">
        <ele>625.5999755859375</ele>
        <time>2026-08-21T15:46:03.000Z</time>
        <extensions>
          <ns3:TrackPointExtension>
            <ns3:hr>140</ns3:hr>
            <ns3:cad>56</ns3:cad>
          </ns3:TrackPointExtension>
        </extensions>
      </trkpt>
      <trkpt lat="45.29782645404338836669921875" lon="-70.90095595456659793853759765625">
        <ele>625.5999755859375</ele>
        <time>2026-08-21T15:46:04.000Z</time>
        <extensions>
          <ns3:TrackPointExtension>
            <ns3:hr>139</ns3:hr>
            <ns3:cad>56</ns3:cad>
          </ns3:TrackPointExtension>
        </extensions>
      </trkpt>
      <trkpt lat="45.29782854951918125152587890625" lon="-70.9009345807135105133056640625">
        <ele>626</ele>
        <time>2026-08-21T15:46:05.000Z</time>
        <extensions>
          <ns3:TrackPointExtension>
            <ns3:hr>139</ns3:hr>
            <ns3:cad>53</ns3:cad>
          </ns3:TrackPointExtension>
        </extensions>
      </trkpt>
      <trkpt lat="45.297834835946559906005859375" lon="-70.900919996201992034912109375">
        <ele>626.20001220703125</ele>
        <time>2026-08-21T15:46:06.000Z</time>
        <extensions>
          <ns3:TrackPointExtension>
            <ns3:hr>139</ns3:hr>
            <ns3:cad>53</ns3:cad>
          </ns3:TrackPointExtension>
        </extensions>
      </trkpt>
      <trkpt lat="45.297844894230365753173828125" lon="-70.90089929290115833282470703125">
        <ele>626.5999755859375</ele>
        <time>2026-08-21T15:46:07.000Z</time>
        <extensions>
          <ns3:TrackPointExtension>
            <ns3:hr>139</ns3:hr>
            <ns3:cad>53</ns3:cad>
          </ns3:TrackPointExtension>
        </extensions>
      </trkpt>
      <trkpt lat="45.29785788618028163909912109375" lon="-70.9008836187422275543212890625">
        <ele>626.79998779296875</ele>
        <time>2026-08-21T15:46:08.000Z</time>
        <extensions>
          <ns3:TrackPointExtension>
            <ns3:hr>138</ns3:hr>
            <ns3:cad>53</ns3:cad>
          </ns3:TrackPointExtension>
        </extensions>
      </trkpt>
      <trkpt lat="45.2978686988353729248046875" lon="-70.9008708782494068145751953125">
        <ele>626.79998779296875</ele>
        <time>2026-08-21T15:46:09.000Z</time>
        <extensions>
          <ns3:TrackPointExtension>
            <ns3:hr>139</ns3:hr>
            <ns3:cad>53</ns3:cad>
          </ns3:TrackPointExtension>
        </extensions>
      </trkpt>
      <trkpt lat="45.29787884093821048736572265625" lon="-70.9008584730327129364013671875">
        <ele>627</ele>
        <time>2026-08-21T15:46:10.000Z</time>
        <extensions>
          <ns3:TrackPointExtension>
            <ns3:hr>139</ns3:hr>
            <ns3:cad>53</ns3:cad>
          </ns3:TrackPointExtension>
        </extensions>
      </trkpt>
      <trkpt lat="45.29789124615490436553955078125" lon="-70.90085118077695369720458984375">
        <ele>627</ele>
        <time>2026-08-21T15:46:11.000Z</time>
        <extensions>
          <ns3:TrackPointExtension>
            <ns3:hr>138</ns3:hr>
            <ns3:cad>53</ns3:cad>
          </ns3:TrackPointExtension>
        </extensions>
      </trkpt>
      <trkpt lat="45.2979060821235179901123046875" lon="-70.90084514580667018890380859375">
        <ele>626.79998779296875</ele>
        <time>2026-08-21T15:46:12.000Z</time>
        <extensions>
          <ns3:TrackPointExtension>
            <ns3:hr>138</ns3:hr>
            <ns3:cad>53</ns3:cad>
          </ns3:TrackPointExtension>
        </extensions>
      </trkpt>
      <trkpt lat="45.29791773296892642974853515625" lon="-70.90083961375057697296142578125">
        <ele>626.79998779296875</ele>
        <time>2026-08-21T15:46:13.000Z</time>
        <extensions>
          <ns3:TrackPointExtension>
            <ns3:hr>138</ns3:hr>
            <ns3:cad>53</ns3:cad>
          </ns3:TrackPointExtension>
        </extensions>
      </trkpt>
      <trkpt lat="45.29792971909046173095703125" lon="-70.90084313414990901947021484375">
        <ele>626.79998779296875</ele>
        <time>2026-08-21T15:46:14.000Z</time>
        <extensions>
          <ns3:TrackPointExtension>
            <ns3:hr>139</ns3:hr>
            <ns3:cad>53</ns3:cad>
          </ns3:TrackPointExtension>
        </extensions>
      </trkpt>
      <trkpt lat="45.29794313013553619384765625" lon="-70.90084548108279705047607421875">
        <ele>626.5999755859375</ele>
        <time>2026-08-21T15:46:15.000Z</time>
        <extensions>
          <ns3:TrackPointExtension>
            <ns3:hr>139</ns3:hr>
            <ns3:cad>53</ns3:cad>
          </ns3:TrackPointExtension>
        </extensions>
      </trkpt>
      <trkpt lat="45.2979572117328643798828125" lon="-70.90083785355091094970703125">
        <ele>626.5999755859375</ele>
        <time>2026-08-21T15:46:16.000Z</time>
        <extensions>
          <ns3:TrackPointExtension>
            <ns3:hr>139</ns3:hr>
            <ns3:cad>53</ns3:cad>
          </ns3:TrackPointExtension>
        </extensions>
      </trkpt>
      <trkpt lat="45.29797037132084369659423828125" lon="-70.9008326567709445953369140625">
        <ele>626.5999755859375</ele>
        <time>2026-08-21T15:46:17.000Z</time>
        <extensions>
          <ns3:TrackPointExtension>
            <ns3:hr>139</ns3:hr>
            <ns3:cad>59</ns3:cad>
          </ns3:TrackPointExtension>
        </extensions>
      </trkpt>
      <trkpt lat="45.29798344708979129791259765625" lon="-70.9008373506367206573486328125">
        <ele>626.5999755859375</ele>
        <time>2026-08-21T15:46:18.000Z</time>
        <extensions>
          <ns3:TrackPointExtension>
            <ns3:hr>140</ns3:hr>
            <ns3:cad>59</ns3:cad>
          </ns3:TrackPointExtension>
        </extensions>
      </trkpt>
      <trkpt lat="45.2979982830584049224853515625" lon="-70.900845229625701904296875">
        <ele>626.4000244140625</ele>
        <time>2026-08-21T15:46:19.000Z</time>
        <extensions>
          <ns3:TrackPointExtension>
            <ns3:hr>140</ns3:hr>
            <ns3:cad>59</ns3:cad>
          </ns3:TrackPointExtension>
        </extensions>
      </trkpt>
      <trkpt lat="45.2980143763124942779541015625" lon="-70.90084799565374851226806640625">
        <ele>626.4000244140625</ele>
        <time>2026-08-21T15:46:20.000Z</time>
        <extensions>
          <ns3:TrackPointExtension>
            <ns3:hr>141</ns3:hr>
            <ns3:cad>57</ns3:cad>
          </ns3:TrackPointExtension>
        </extensions>
      </trkpt>
      <trkpt lat="45.2980296313762664794921875" lon="-70.9008474089205265045166015625">
        <ele>626.4000244140625</ele>
        <time>2026-08-21T15:46:21.000Z</time>
        <extensions>
          <ns3:TrackPointExtension>
            <ns3:hr>141</ns3:hr>
            <ns3:cad>57</ns3:cad>
          </ns3:TrackPointExtension>
        </extensions>
      </trkpt>
      <trkpt lat="45.29804396443068981170654296875" lon="-70.90084967203438282012939453125">
        <ele>626.4000244140625</ele>
        <time>2026-08-21T15:46:22.000Z</time>
        <extensions>
          <ns3:TrackPointExtension>
            <ns3:hr>141</ns3:hr>
            <ns3:cad>57</ns3:cad>
          </ns3:TrackPointExtension>
        </extensions>
      </trkpt>
      <trkpt lat="45.29806056059896945953369140625" lon="-70.90084950439631938934326171875">
        <ele>626.4000244140625</ele>
        <time>2026-08-21T15:46:23.000Z</time>
        <extensions>
          <ns3:TrackPointExtension>
            <ns3:hr>141</ns3:hr>
            <ns3:cad>57</ns3:cad>
          </ns3:TrackPointExtension>
        </extensions>
      </trkpt>
      <trkpt lat="45.298074893653392791748046875" lon="-70.90084983967244625091552734375">
        <ele>626.4000244140625</ele>
        <time>2026-08-21T15:46:24.000Z</time>
        <extensions>
          <ns3:TrackPointExtension>
            <ns3:hr>140</ns3:hr>
            <ns3:cad>57</ns3:cad>
          </ns3:TrackPointExtension>
        </extensions>
      </trkpt>
      <trkpt lat="45.29809023253619670867919921875" lon="-70.90085662901401519775390625">
        <ele>626.20001220703125</ele>
        <time>2026-08-21T15:46:25.000Z</time>
        <extensions>
          <ns3:TrackPointExtension>
            <ns3:hr>140</ns3:hr>
            <ns3:cad>57</ns3:cad>
          </ns3:TrackPointExtension>
        </extensions>
      </trkpt>
      <trkpt lat="45.2981079183518886566162109375" lon="-70.9008648432791233062744140625">
        <ele>626.20001220703125</ele>
        <time>2026-08-21T15:46:26.000Z</time>
        <extensions>
          <ns3:TrackPointExtension>
            <ns3:hr>140</ns3:hr>
            <ns3:cad>57</ns3:cad>
          </ns3:TrackPointExtension>
        </extensions>
      </trkpt>
      <trkpt lat="45.29812359251081943511962890625" lon="-70.90087129734456539154052734375">
        <ele>626.20001220703125</ele>
        <time>2026-08-21T15:46:27.000Z</time>
        <extensions>
          <ns3:TrackPointExtension>
            <ns3:hr>139</ns3:hr>
            <ns3:cad>57</ns3:cad>
          </ns3:TrackPointExtension>
        </extensions>
      </trkpt>
      <trkpt lat="45.2981396019458770751953125" lon="-70.9008779190480709075927734375">
        <ele>626.20001220703125</ele>
        <time>2026-08-21T15:46:28.000Z</time>
        <extensions>
          <ns3:TrackPointExtension>
            <ns3:hr>139</ns3:hr>
            <ns3:cad>57</ns3:cad>
          </ns3:TrackPointExtension>
        </extensions>
      </trkpt>
      <trkpt lat="45.2981582097709178924560546875" lon="-70.900877080857753753662109375">
        <ele>626.20001220703125</ele>
        <time>2026-08-21T15:46:29.000Z</time>
        <extensions>
          <ns3:TrackPointExtension>
            <ns3:hr>139</ns3:hr>
            <ns3:cad>0</ns3:cad>
          </ns3:TrackPointExtension>
        </extensions>
      </trkpt>
      <trkpt lat="45.298176817595958709716796875" lon="-70.9008718840777873992919921875">
        <ele>626.20001220703125</ele>
        <time>2026-08-21T15:46:30.000Z</time>
        <extensions>
          <ns3:TrackPointExtension>
            <ns3:hr>138</ns3:hr>
            <ns3:cad>0</ns3:cad>
          </ns3:TrackPointExtension>
        </extensions>
      </trkpt>
      <trkpt lat="45.29820137657225131988525390625" lon="-70.90087699703872203826904296875">
        <ele>626.20001220703125</ele>
        <time>2026-08-21T15:46:31.000Z</time>
        <extensions>
          <ns3:TrackPointExtension>
            <ns3:hr>138</ns3:hr>
            <ns3:cad>76</ns3:cad>
          </ns3:TrackPointExtension>
        </extensions>
      </trkpt>
      <trkpt lat="45.29822451062500476837158203125" lon="-70.9008725546300411224365234375">
        <ele>626</ele>
        <time>2026-08-21T15:46:32.000Z</time>
        <extensions>
          <ns3:TrackPointExtension>
            <ns3:hr>138</ns3:hr>
            <ns3:cad>76</ns3:cad>
          </ns3:TrackPointExtension>
        </extensions>
      </trkpt>
      <trkpt lat="45.29824219644069671630859375" lon="-70.90086744166910648345947265625">
        <ele>626</ele>
        <time>2026-08-21T15:46:33.000Z</time>
        <extensions>
          <ns3:TrackPointExtension>
            <ns3:hr>138</ns3:hr>
            <ns3:cad>76</ns3:cad>
          </ns3:TrackPointExtension>
        </extensions>
      </trkpt>
      <trkpt lat="45.29826055280864238739013671875" lon="-70.9008638374507427215576171875">
        <ele>625.79998779296875</ele>
        <time>2026-08-21T15:46:34.000Z</time>
        <extensions>
          <ns3:TrackPointExtension>
            <ns3:hr>138</ns3:hr>
            <ns3:cad>76</ns3:cad>
          </ns3:TrackPointExtension>
        </extensions>
      </trkpt>
      <trkpt lat="45.2982745505869388580322265625" lon="-70.90086291544139385223388671875">
        <ele>625.79998779296875</ele>
        <time>2026-08-21T15:46:35.000Z</time>
        <extensions>
          <ns3:TrackPointExtension>
            <ns3:hr>138</ns3:hr>
            <ns3:cad>76</ns3:cad>
          </ns3:TrackPointExtension>
        </extensions>
      </trkpt>
      <trkpt lat="45.2982896380126476287841796875" lon="-70.90086643584072589874267578125">
        <ele>625.79998779296875</ele>
        <time>2026-08-21T15:46:36.000Z</time>
        <extensions>
          <ns3:TrackPointExtension>
            <ns3:hr>137</ns3:hr>
            <ns3:cad>76</ns3:cad>
          </ns3:TrackPointExtension>
        </extensions>
      </trkpt>
      <trkpt lat="45.2983057312667369842529296875" lon="-70.90087481774389743804931640625">
        <ele>625.79998779296875</ele>
        <time>2026-08-21T15:46:37.000Z</time>
        <extensions>
          <ns3:TrackPointExtension>
            <ns3:hr>137</ns3:hr>
            <ns3:cad>76</ns3:cad>
          </ns3:TrackPointExtension>
        </extensions>
      </trkpt>
      <trkpt lat="45.298322997987270355224609375" lon="-70.90088118799030780792236328125">
        <ele>625.79998779296875</ele>
        <time>2026-08-21T15:46:38.000Z</time>
        <extensions>
          <ns3:TrackPointExtension>
            <ns3:hr>137</ns3:hr>
            <ns3:cad>73</ns3:cad>
          </ns3:TrackPointExtension>
        </extensions>
      </trkpt>
      <trkpt lat="45.29834001325070858001708984375" lon="-70.90088613331317901611328125">
        <ele>625.79998779296875</ele>
        <time>2026-08-21T15:46:39.000Z</time>
        <extensions>
          <ns3:TrackPointExtension>
            <ns3:hr>137</ns3:hr>
            <ns3:cad>73</ns3:cad>
          </ns3:TrackPointExtension>
        </extensions>
      </trkpt>
      <trkpt lat="45.29835878871381282806396484375" lon="-70.9008921682834625244140625">
        <ele>625.79998779296875</ele>
        <time>2026-08-21T15:46:40.000Z</time>
        <extensions>
          <ns3:TrackPointExtension>
            <ns3:hr>138</ns3:hr>
            <ns3:cad>73</ns3:cad>
          </ns3:TrackPointExtension>
        </extensions>
      </trkpt>
      <trkpt lat="45.2983784861862659454345703125" lon="-70.90089426375925540924072265625">
        <ele>626</ele>
        <time>2026-08-21T15:46:41.000Z</time>
        <extensions>
          <ns3:TrackPointExtension>
            <ns3:hr>138</ns3:hr>
            <ns3:cad>66</ns3:cad>
          </ns3:TrackPointExtension>
        </extensions>
      </trkpt>
      <trkpt lat="45.2983982674777507781982421875" lon="-70.9008819423615932464599609375">
        <ele>625.79998779296875</ele>
        <time>2026-08-21T15:46:42.000Z</time>
        <extensions>
          <ns3:TrackPointExtension>
            <ns3:hr>137</ns3:hr>
            <ns3:cad>66</ns3:cad>
          </ns3:TrackPointExtension>
        </extensions>
      </trkpt>
      <trkpt lat="45.29841494746506214141845703125" lon="-70.90086995624005794525146484375">
        <ele>625.79998779296875</ele>
        <time>2026-08-21T15:46:43.000Z</time>
        <extensions>
          <ns3:TrackPointExtension>
            <ns3:hr>137</ns3:hr>
            <ns3:cad>66</ns3:cad>
          </ns3:TrackPointExtension>
        </extensions>
      </trkpt>
      <trkpt lat="45.2984291128814220428466796875" lon="-70.9008621610701084136962890625">
        <ele>625.5999755859375</ele>
        <time>2026-08-21T15:46:44.000Z</time>
        <extensions>
          <ns3:TrackPointExtension>
            <ns3:hr>136</ns3:hr>
            <ns3:cad>66</ns3:cad>
          </ns3:TrackPointExtension>
        </extensions>
      </trkpt>
      <trkpt lat="45.2984445355832576751708984375" lon="-70.9008544497191905975341796875">
        <ele>625.5999755859375</ele>
        <time>2026-08-21T15:46:45.000Z</time>
        <extensions>
          <ns3:TrackPointExtension>
            <ns3:hr>136</ns3:hr>
            <ns3:cad>66</ns3:cad>
          </ns3:TrackPointExtension>
        </extensions>
      </trkpt>
      <trkpt lat="45.2984609641134738922119140625" lon="-70.9008470736443996429443359375">
        <ele>625.5999755859375</ele>
        <time>2026-08-21T15:46:46.000Z</time>
        <extensions>
          <ns3:TrackPointExtension>
            <ns3:hr>136</ns3:hr>
            <ns3:cad>66</ns3:cad>
          </ns3:TrackPointExtension>
        </extensions>
      </trkpt>
      <trkpt lat="45.298478566110134124755859375" lon="-70.90083676390349864959716796875">
        <ele>625.5999755859375</ele>
        <time>2026-08-21T15:46:47.000Z</time>
        <extensions>
          <ns3:TrackPointExtension>
            <ns3:hr>136</ns3:hr>
            <ns3:cad>66</ns3:cad>
          </ns3:TrackPointExtension>
        </extensions>
      </trkpt>
      <trkpt lat="45.29849122278392314910888671875" lon="-70.9008277952671051025390625">
        <ele>625.5999755859375</ele>
        <time>2026-08-21T15:46:48.000Z</time>
        <extensions>
          <ns3:TrackPointExtension>
            <ns3:hr>136</ns3:hr>
            <ns3:cad>0</ns3:cad>
          </ns3:TrackPointExtension>
        </extensions>
      </trkpt>
      <trkpt lat="45.2985022030770778656005859375" lon="-70.90082033537328243255615234375">
        <ele>625.5999755859375</ele>
        <time>2026-08-21T15:46:49.000Z</time>
        <extensions>
          <ns3:TrackPointExtension>
            <ns3:hr>136</ns3:hr>
            <ns3:cad>0</ns3:cad>
          </ns3:TrackPointExtension>
        </extensions>
      </trkpt>
      <trkpt lat="45.29851117171347141265869140625" lon="-70.90081078000366687774658203125">
        <ele>625.5999755859375</ele>
        <time>2026-08-21T15:46:50.000Z</time>
        <extensions>
          <ns3:TrackPointExtension>
            <ns3:hr>136</ns3:hr>
            <ns3:cad>0</ns3:cad>
          </ns3:TrackPointExtension>
        </extensions>
      </trkpt>
      <trkpt lat="45.29851955361664295196533203125" lon="-70.90081111527979373931884765625">
        <ele>625.4000244140625</ele>
        <time>2026-08-21T15:46:51.000Z</time>
        <extensions>
          <ns3:TrackPointExtension>
            <ns3:hr>135</ns3:hr>
            <ns3:cad>61</ns3:cad>
          </ns3:TrackPointExtension>
        </extensions>
      </trkpt>
      <trkpt lat="45.29852760024368762969970703125" lon="-70.9008095227181911468505859375">
        <ele>625.4000244140625</ele>
        <time>2026-08-21T15:46:52.000Z</time>
        <extensions>
          <ns3:TrackPointExtension>
            <ns3:hr>135</ns3:hr>
            <ns3:cad>61</ns3:cad>
          </ns3:TrackPointExtension>
        </extensions>
      </trkpt>
      <trkpt lat="45.29853967018425464630126953125" lon="-70.9008088521659374237060546875">
        <ele>625.4000244140625</ele>
        <time>2026-08-21T15:46:53.000Z</time>
        <extensions>
          <ns3:TrackPointExtension>
            <ns3:hr>135</ns3:hr>
            <ns3:cad>61</ns3:cad>
          </ns3:TrackPointExtension>
        </extensions>
      </trkpt>
      <trkpt lat="45.29855945147573947906494140625" lon="-70.90080306865274906158447265625">
        <ele>625.4000244140625</ele>
        <time>2026-08-21T15:46:54.000Z</time>
        <extensions>
          <ns3:TrackPointExtension>
            <ns3:hr>134</ns3:hr>
            <ns3:cad>0</ns3:cad>
          </ns3:TrackPointExtension>
        </extensions>
      </trkpt>
      <trkpt lat="45.2985769696533679962158203125" lon="-70.900801308453083038330078125">
        <ele>625.4000244140625</ele>
        <time>2026-08-21T15:46:55.000Z</time>
        <extensions>
          <ns3:TrackPointExtension>
            <ns3:hr>135</ns3:hr>
            <ns3:cad>0</ns3:cad>
          </ns3:TrackPointExtension>
        </extensions>
      </trkpt>
      <trkpt lat="45.29859297908842563629150390625" lon="-70.90079653076827526092529296875">
        <ele>625.4000244140625</ele>
        <time>2026-08-21T15:46:56.000Z</time>
        <extensions>
          <ns3:TrackPointExtension>
            <ns3:hr>137</ns3:hr>
            <ns3:cad>70</ns3:cad>
          </ns3:TrackPointExtension>
        </extensions>
      </trkpt>
      <trkpt lat="45.29861192218959331512451171875" lon="-70.90079368092119693756103515625">
        <ele>625.20001220703125</ele>
        <time>2026-08-21T15:46:57.000Z</time>
        <extensions>
          <ns3:TrackPointExtension>
            <ns3:hr>138</ns3:hr>
            <ns3:cad>70</ns3:cad>
          </ns3:TrackPointExtension>
        </extensions>
      </trkpt>
      <trkpt lat="45.29862885363399982452392578125" lon="-70.90079150162637233734130859375">
        <ele>625</ele>
        <time>2026-08-21T15:46:58.000Z</time>
        <extensions>
          <ns3:TrackPointExtension>
            <ns3:hr>138</ns3:hr>
            <ns3:cad>70</ns3:cad>
          </ns3:TrackPointExtension>
        </extensions>
      </trkpt>
      <trkpt lat="45.29864452779293060302734375" lon="-70.90078747831284999847412109375">
        <ele>625</ele>
        <time>2026-08-21T15:46:59.000Z</time>
        <extensions>
          <ns3:TrackPointExtension>
            <ns3:hr>138</ns3:hr>
            <ns3:cad>70</ns3:cad>
          </ns3:TrackPointExtension>
        </extensions>
      </trkpt>
      <trkpt lat="45.29865835793316364288330078125" lon="-70.90078286826610565185546875">
        <ele>624.79998779296875</ele>
        <time>2026-08-21T15:47:00.000Z</time>
        <extensions>
          <ns3:TrackPointExtension>
            <ns3:hr>138</ns3:hr>
            <ns3:cad>70</ns3:cad>
          </ns3:TrackPointExtension>
        </extensions>
      </trkpt>
      <trkpt lat="45.29867294244468212127685546875" lon="-70.90077809058129787445068359375">
        <ele>624.79998779296875</ele>
        <time>2026-08-21T15:47:01.000Z</time>
        <extensions>
          <ns3:TrackPointExtension>
            <ns3:hr>138</ns3:hr>
            <ns3:cad>70</ns3:cad>
          </ns3:TrackPointExtension>
        </extensions>
      </trkpt>
      <trkpt lat="45.2986879460513591766357421875" lon="-70.9007733128964900970458984375">
        <ele>624.79998779296875</ele>
        <time>2026-08-21T15:47:02.000Z</time>
        <extensions>
          <ns3:TrackPointExtension>
            <ns3:hr>138</ns3:hr>
            <ns3:cad>70</ns3:cad>
          </ns3:TrackPointExtension>
        </extensions>
      </trkpt>
      <trkpt lat="45.29870688915252685546875" lon="-70.900774486362934112548828125">
        <ele>625</ele>
        <time>2026-08-21T15:47:03.000Z</time>
        <extensions>
          <ns3:TrackPointExtension>
            <ns3:hr>139</ns3:hr>
            <ns3:cad>71</ns3:cad>
          </ns3:TrackPointExtension>
        </extensions>
      </trkpt>
      <trkpt lat="45.29872491024434566497802734375" lon="-70.90077691711485385894775390625">
        <ele>625</ele>
        <time>2026-08-21T15:47:04.000Z</time>
        <extensions>
          <ns3:TrackPointExtension>
            <ns3:hr>138</ns3:hr>
            <ns3:cad>71</ns3:cad>
          </ns3:TrackPointExtension>
        </extensions>
      </trkpt>
      <trkpt lat="45.2987415902316570281982421875" lon="-70.90078211389482021331787109375">
        <ele>625.20001220703125</ele>
        <time>2026-08-21T15:47:05.000Z</time>
        <extensions>
          <ns3:TrackPointExtension>
            <ns3:hr>138</ns3:hr>
            <ns3:cad>71</ns3:cad>
          </ns3:TrackPointExtension>
        </extensions>
      </trkpt>
      <trkpt lat="45.29876028187572956085205078125" lon="-70.900785215198993682861328125">
        <ele>625.20001220703125</ele>
        <time>2026-08-21T15:47:06.000Z</time>
        <extensions>
          <ns3:TrackPointExtension>
            <ns3:hr>139</ns3:hr>
            <ns3:cad>71</ns3:cad>
          </ns3:TrackPointExtension>
        </extensions>
      </trkpt>
      <trkpt lat="45.29878458939492702484130859375" lon="-70.9007796831429004669189453125">
        <ele>625.20001220703125</ele>
        <time>2026-08-21T15:47:07.000Z</time>
        <extensions>
          <ns3:TrackPointExtension>
            <ns3:hr>138</ns3:hr>
            <ns3:cad>71</ns3:cad>
          </ns3:TrackPointExtension>
        </extensions>
      </trkpt>
      <trkpt lat="45.29880805872380733489990234375" lon="-70.90077213943004608154296875">
        <ele>625</ele>
        <time>2026-08-21T15:47:08.000Z</time>
        <extensions>
          <ns3:TrackPointExtension>
            <ns3:hr>138</ns3:hr>
            <ns3:cad>71</ns3:cad>
          </ns3:TrackPointExtension>
        </extensions>
      </trkpt>
      <trkpt lat="45.29882700182497501373291015625" lon="-70.90076870284974575042724609375">
        <ele>624.79998779296875</ele>
        <time>2026-08-21T15:47:09.000Z</time>
        <extensions>
          <ns3:TrackPointExtension>
            <ns3:hr>138</ns3:hr>
            <ns3:cad>71</ns3:cad>
          </ns3:TrackPointExtension>
        </extensions>
      </trkpt>
      <trkpt lat="45.2988451905548572540283203125" lon="-70.900767110288143157958984375">
        <ele>624.79998779296875</ele>
        <time>2026-08-21T15:47:10.000Z</time>
        <extensions>
          <ns3:TrackPointExtension>
            <ns3:hr>138</ns3:hr>
            <ns3:cad>71</ns3:cad>
          </ns3:TrackPointExtension>
        </extensions>
      </trkpt>
      <trkpt lat="45.29886153526604175567626953125" lon="-70.9007639251649379730224609375">
        <ele>624.79998779296875</ele>
        <time>2026-08-21T15:47:11.000Z</time>
        <extensions>
          <ns3:TrackPointExtension>
            <ns3:hr>138</ns3:hr>
            <ns3:cad>71</ns3:cad>
          </ns3:TrackPointExtension>
        </extensions>
      </trkpt>
      <trkpt lat="45.29887855052947998046875" lon="-70.9007622487843036651611328125">
        <ele>624.79998779296875</ele>
        <time>2026-08-21T15:47:12.000Z</time>
        <extensions>
          <ns3:TrackPointExtension>
            <ns3:hr>138</ns3:hr>
            <ns3:cad>71</ns3:cad>
          </ns3:TrackPointExtension>
        </extensions>
      </trkpt>
      <trkpt lat="45.298897325992584228515625" lon="-70.900762081146240234375">
        <ele>624.79998779296875</ele>
        <time>2026-08-21T15:47:13.000Z</time>
        <extensions>
          <ns3:TrackPointExtension>
            <ns3:hr>138</ns3:hr>
            <ns3:cad>71</ns3:cad>
          </ns3:TrackPointExtension>
        </extensions>
      </trkpt>
      <trkpt lat="45.29891450889408588409423828125" lon="-70.90076132677495479583740234375">
        <ele>624.79998779296875</ele>
        <time>2026-08-21T15:47:14.000Z</time>
        <extensions>
          <ns3:TrackPointExtension>
            <ns3:hr>137</ns3:hr>
            <ns3:cad>71</ns3:cad>
          </ns3:TrackPointExtension>
        </extensions>
      </trkpt>
      <trkpt lat="45.29892926104366779327392578125" lon="-70.9007619135081768035888671875">
        <ele>624.79998779296875</ele>
        <time>2026-08-21T15:47:15.000Z</time>
        <extensions>
          <ns3:TrackPointExtension>
            <ns3:hr>137</ns3:hr>
            <ns3:cad>71</ns3:cad>
          </ns3:TrackPointExtension>
        </extensions>
      </trkpt>
      <trkpt lat="45.2989447675645351409912109375" lon="-70.90076400898396968841552734375">
        <ele>624.79998779296875</ele>
        <time>2026-08-21T15:47:16.000Z</time>
        <extensions>
          <ns3:TrackPointExtension>
            <ns3:hr>137</ns3:hr>
            <ns3:cad>71</ns3:cad>
          </ns3:TrackPointExtension>
        </extensions>
      </trkpt>
      <trkpt lat="45.2989603579044342041015625" lon="-70.90076367370784282684326171875">
        <ele>624.5999755859375</ele>
        <time>2026-08-21T15:47:17.000Z</time>
        <extensions>
          <ns3:TrackPointExtension>
            <ns3:hr>137</ns3:hr>
            <ns3:cad>50</ns3:cad>
          </ns3:TrackPointExtension>
        </extensions>
      </trkpt>
      <trkpt lat="45.29897787608206272125244140625" lon="-70.90076384134590625762939453125">
        <ele>624.5999755859375</ele>
        <time>2026-08-21T15:47:18.000Z</time>
        <extensions>
          <ns3:TrackPointExtension>
            <ns3:hr>137</ns3:hr>
            <ns3:cad>50</ns3:cad>
          </ns3:TrackPointExtension>
        </extensions>
      </trkpt>
      <trkpt lat="45.29899313114583492279052734375" lon="-70.90076887048780918121337890625">
        <ele>624.5999755859375</ele>
        <time>2026-08-21T15:47:19.000Z</time>
        <extensions>
          <ns3:TrackPointExtension>
            <ns3:hr>138</ns3:hr>
            <ns3:cad>50</ns3:cad>
          </ns3:TrackPointExtension>
        </extensions>
      </trkpt>
      <trkpt lat="45.29900637455284595489501953125" lon="-70.90077775530517101287841796875">
        <ele>624.4000244140625</ele>
        <time>2026-08-21T15:47:20.000Z</time>
        <extensions>
          <ns3:TrackPointExtension>
            <ns3:hr>138</ns3:hr>
            <ns3:cad>50</ns3:cad>
          </ns3:TrackPointExtension>
        </extensions>
      </trkpt>
      <trkpt lat="45.29901760630309581756591796875" lon="-70.9007821977138519287109375">
        <ele>624.4000244140625</ele>
        <time>2026-08-21T15:47:21.000Z</time>
        <extensions>
          <ns3:TrackPointExtension>
            <ns3:hr>139</ns3:hr>
            <ns3:cad>50</ns3:cad>
          </ns3:TrackPointExtension>
        </extensions>
      </trkpt>
      <trkpt lat="45.29902867041528224945068359375" lon="-70.900786221027374267578125">
        <ele>624.5999755859375</ele>
        <time>2026-08-21T15:47:22.000Z</time>
        <extensions>
          <ns3:TrackPointExtension>
            <ns3:hr>140</ns3:hr>
            <ns3:cad>50</ns3:cad>
          </ns3:TrackPointExtension>
        </extensions>
      </trkpt>
      <trkpt lat="45.29903613030910491943359375" lon="-70.9007956087589263916015625">
        <ele>624.79998779296875</ele>
        <time>2026-08-21T15:47:23.000Z</time>
        <extensions>
          <ns3:TrackPointExtension>
            <ns3:hr>141</ns3:hr>
            <ns3:cad>50</ns3:cad>
          </ns3:TrackPointExtension>
        </extensions>
      </trkpt>
      <trkpt lat="45.29903822578489780426025390625" lon="-70.900816731154918670654296875">
        <ele>625</ele>
        <time>2026-08-21T15:47:24.000Z</time>
        <extensions>
          <ns3:TrackPointExtension>
            <ns3:hr>141</ns3:hr>
            <ns3:cad>50</ns3:cad>
          </ns3:TrackPointExtension>
        </extensions>
      </trkpt>
      <trkpt lat="45.2990463562309741973876953125" lon="-70.90083156712353229522705078125">
        <ele>625</ele>
        <time>2026-08-21T15:47:25.000Z</time>
        <extensions>
          <ns3:TrackPointExtension>
            <ns3:hr>141</ns3:hr>
            <ns3:cad>50</ns3:cad>
          </ns3:TrackPointExtension>
        </extensions>
      </trkpt>
      <trkpt lat="45.29905783943831920623779296875" lon="-70.90084413997828960418701171875">
        <ele>624.79998779296875</ele>
        <time>2026-08-21T15:47:26.000Z</time>
        <extensions>
          <ns3:TrackPointExtension>
            <ns3:hr>140</ns3:hr>
            <ns3:cad>50</ns3:cad>
          </ns3:TrackPointExtension>
        </extensions>
      </trkpt>
      <trkpt lat="45.29907904565334320068359375" lon="-70.90085704810917377471923828125">
        <ele>624.5999755859375</ele>
        <time>2026-08-21T15:47:27.000Z</time>
        <extensions>
          <ns3:TrackPointExtension>
            <ns3:hr>140</ns3:hr>
            <ns3:cad>50</ns3:cad>
          </ns3:TrackPointExtension>
        </extensions>
      </trkpt>
      <trkpt lat="45.29909379780292510986328125" lon="-70.90087004005908966064453125">
        <ele>624.5999755859375</ele>
        <time>2026-08-21T15:47:28.000Z</time>
        <extensions>
          <ns3:TrackPointExtension>
            <ns3:hr>139</ns3:hr>
            <ns3:cad>50</ns3:cad>
          </ns3:TrackPointExtension>
        </extensions>
      </trkpt>
      <trkpt lat="45.29910854995250701904296875" lon="-70.90088319964706897735595703125">
        <ele>624.4000244140625</ele>
        <time>2026-08-21T15:47:29.000Z</time>
        <extensions>
          <ns3:TrackPointExtension>
            <ns3:hr>139</ns3:hr>
            <ns3:cad>50</ns3:cad>
          </ns3:TrackPointExtension>
        </extensions>
      </trkpt>
      <trkpt lat="45.29912355355918407440185546875" lon="-70.90089074335992336273193359375">
        <ele>624.4000244140625</ele>
        <time>2026-08-21T15:47:30.000Z</time>
        <extensions>
          <ns3:TrackPointExtension>
            <ns3:hr>139</ns3:hr>
            <ns3:cad>50</ns3:cad>
          </ns3:TrackPointExtension>
        </extensions>
      </trkpt>
      <trkpt lat="45.29913830570876598358154296875" lon="-70.90089711360633373260498046875">
        <ele>624.20001220703125</ele>
        <time>2026-08-21T15:47:31.000Z</time>
        <extensions>
          <ns3:TrackPointExtension>
            <ns3:hr>138</ns3:hr>
            <ns3:cad>50</ns3:cad>
          </ns3:TrackPointExtension>
        </extensions>
      </trkpt>
      <trkpt lat="45.2991506271064281463623046875" lon="-70.90090666897594928741455078125">
        <ele>624.20001220703125</ele>
        <time>2026-08-21T15:47:32.000Z</time>
        <extensions>
          <ns3:TrackPointExtension>
            <ns3:hr>138</ns3:hr>
            <ns3:cad>50</ns3:cad>
          </ns3:TrackPointExtension>
        </extensions>
      </trkpt>
      <trkpt lat="45.29916194267570972442626953125" lon="-70.9009181521832942962646484375">
        <ele>624.20001220703125</ele>
        <time>2026-08-21T15:47:33.000Z</time>
        <extensions>
          <ns3:TrackPointExtension>
            <ns3:hr>138</ns3:hr>
            <ns3:cad>50</ns3:cad>
          </ns3:TrackPointExtension>
        </extensions>
      </trkpt>
      <trkpt lat="45.2991776168346405029296875" lon="-70.90092309750616550445556640625">
        <ele>624.20001220703125</ele>
        <time>2026-08-21T15:47:34.000Z</time>
        <extensions>
          <ns3:TrackPointExtension>
            <ns3:hr>138</ns3:hr>
            <ns3:cad>73</ns3:cad>
          </ns3:TrackPointExtension>
        </extensions>
      </trkpt>
      <trkpt lat="45.29919396154582500457763671875" lon="-70.90092368423938751220703125">
        <ele>624.20001220703125</ele>
        <time>2026-08-21T15:47:35.000Z</time>
        <extensions>
          <ns3:TrackPointExtension>
            <ns3:hr>137</ns3:hr>
            <ns3:cad>73</ns3:cad>
          </ns3:TrackPointExtension>
        </extensions>
      </trkpt>
      <trkpt lat="45.29920888133347034454345703125" lon="-70.90092594735324382781982421875">
        <ele>624.20001220703125</ele>
        <time>2026-08-21T15:47:36.000Z</time>
        <extensions>
          <ns3:TrackPointExtension>
            <ns3:hr>137</ns3:hr>
            <ns3:cad>73</ns3:cad>
          </ns3:TrackPointExtension>
        </extensions>
      </trkpt>
      <trkpt lat="45.29922187328338623046875" lon="-70.90092326514422893524169921875">
        <ele>624.20001220703125</ele>
        <time>2026-08-21T15:47:37.000Z</time>
        <extensions>
          <ns3:TrackPointExtension>
            <ns3:hr>137</ns3:hr>
            <ns3:cad>73</ns3:cad>
          </ns3:TrackPointExtension>
        </extensions>
      </trkpt>
      <trkpt lat="45.29923251830041408538818359375" lon="-70.90092879720032215118408203125">
        <ele>624.20001220703125</ele>
        <time>2026-08-21T15:47:38.000Z</time>
        <extensions>
          <ns3:TrackPointExtension>
            <ns3:hr>136</ns3:hr>
            <ns3:cad>73</ns3:cad>
          </ns3:TrackPointExtension>
        </extensions>
      </trkpt>
      <trkpt lat="45.299249030649662017822265625" lon="-70.90093919076025485992431640625">
        <ele>624.4000244140625</ele>
        <time>2026-08-21T15:47:39.000Z</time>
        <extensions>
          <ns3:TrackPointExtension>
            <ns3:hr>136</ns3:hr>
            <ns3:cad>73</ns3:cad>
          </ns3:TrackPointExtension>
        </extensions>
      </trkpt>
      <trkpt lat="45.299264453351497650146484375" lon="-70.90094556100666522979736328125">
        <ele>624.4000244140625</ele>
        <time>2026-08-21T15:47:40.000Z</time>
        <extensions>
          <ns3:TrackPointExtension>
            <ns3:hr>135</ns3:hr>
            <ns3:cad>73</ns3:cad>
          </ns3:TrackPointExtension>
        </extensions>
      </trkpt>
      <trkpt lat="45.29928498901426792144775390625" lon="-70.900954864919185638427734375">
        <ele>624.4000244140625</ele>
        <time>2026-08-21T15:47:41.000Z</time>
        <extensions>
          <ns3:TrackPointExtension>
            <ns3:hr>134</ns3:hr>
            <ns3:cad>73</ns3:cad>
          </ns3:TrackPointExtension>
        </extensions>
      </trkpt>
      <trkpt lat="45.29930032789707183837890625" lon="-70.9009593911468982696533203125">
        <ele>624.4000244140625</ele>
        <time>2026-08-21T15:47:42.000Z</time>
        <extensions>
          <ns3:TrackPointExtension>
            <ns3:hr>134</ns3:hr>
            <ns3:cad>73</ns3:cad>
          </ns3:TrackPointExtension>
        </extensions>
      </trkpt>
      <trkpt lat="45.2993199415504932403564453125" lon="-70.90096919797360897064208984375">
        <ele>624.4000244140625</ele>
        <time>2026-08-21T15:47:43.000Z</time>
        <extensions>
          <ns3:TrackPointExtension>
            <ns3:hr>134</ns3:hr>
            <ns3:cad>73</ns3:cad>
          </ns3:TrackPointExtension>
        </extensions>
      </trkpt>
      <trkpt lat="45.2993377111852169036865234375" lon="-70.90097674168646335601806640625">
        <ele>624.4000244140625</ele>
        <time>2026-08-21T15:47:44.000Z</time>
        <extensions>
          <ns3:TrackPointExtension>
            <ns3:hr>134</ns3:hr>
            <ns3:cad>73</ns3:cad>
          </ns3:TrackPointExtension>
        </extensions>
      </trkpt>
      <trkpt lat="45.29935128986835479736328125" lon="-70.9009852074086666107177734375">
        <ele>624.20001220703125</ele>
        <time>2026-08-21T15:47:45.000Z</time>
        <extensions>
          <ns3:TrackPointExtension>
            <ns3:hr>134</ns3:hr>
            <ns3:cad>73</ns3:cad>
          </ns3:TrackPointExtension>
        </extensions>
      </trkpt>
      <trkpt lat="45.2993645332753658294677734375" lon="-70.90099333785474300384521484375">
        <ele>624.20001220703125</ele>
        <time>2026-08-21T15:47:46.000Z</time>
        <extensions>
          <ns3:TrackPointExtension>
            <ns3:hr>134</ns3:hr>
            <ns3:cad>73</ns3:cad>
          </ns3:TrackPointExtension>
        </extensions>
      </trkpt>
      <trkpt lat="45.29938020743429660797119140625" lon="-70.90099534951150417327880859375">
        <ele>624.20001220703125</ele>
        <time>2026-08-21T15:47:47.000Z</time>
        <extensions>
          <ns3:TrackPointExtension>
            <ns3:hr>135</ns3:hr>
            <ns3:cad>73</ns3:cad>
          </ns3:TrackPointExtension>
        </extensions>
      </trkpt>
      <trkpt lat="45.2993975579738616943359375" lon="-70.9010013006627559661865234375">
        <ele>624</ele>
        <time>2026-08-21T15:47:48.000Z</time>
        <extensions>
          <ns3:TrackPointExtension>
            <ns3:hr>135</ns3:hr>
            <ns3:cad>73</ns3:cad>
          </ns3:TrackPointExtension>
        </extensions>
      </trkpt>
      <trkpt lat="45.2994165010750293731689453125" lon="-70.90100951492786407470703125">
        <ele>624</ele>
        <time>2026-08-21T15:47:49.000Z</time>
        <extensions>
          <ns3:TrackPointExtension>
            <ns3:hr>135</ns3:hr>
            <ns3:cad>73</ns3:cad>
          </ns3:TrackPointExtension>
        </extensions>
      </trkpt>
      <trkpt lat="45.29943804256618022918701171875" lon="-70.9010157175362110137939453125">
        <ele>624.20001220703125</ele>
        <time>2026-08-21T15:47:50.000Z</time>
        <extensions>
          <ns3:TrackPointExtension>
            <ns3:hr>136</ns3:hr>
            <ns3:cad>73</ns3:cad>
          </ns3:TrackPointExtension>
        </extensions>
      </trkpt>
      <trkpt lat="45.29945715330541133880615234375" lon="-70.9010140411555767059326171875">
        <ele>624.4000244140625</ele>
        <time>2026-08-21T15:47:51.000Z</time>
        <extensions>
          <ns3:TrackPointExtension>
            <ns3:hr>136</ns3:hr>
            <ns3:cad>0</ns3:cad>
          </ns3:TrackPointExtension>
        </extensions>
      </trkpt>
      <trkpt lat="45.29947257600724697113037109375" lon="-70.9010140411555767059326171875">
        <ele>624.4000244140625</ele>
        <time>2026-08-21T15:47:52.000Z</time>
        <extensions>
          <ns3:TrackPointExtension>
            <ns3:hr>136</ns3:hr>
            <ns3:cad>61</ns3:cad>
          </ns3:TrackPointExtension>
        </extensions>
      </trkpt>
      <trkpt lat="45.29948900453746318817138671875" lon="-70.90101487934589385986328125">
        <ele>624.4000244140625</ele>
        <time>2026-08-21T15:47:53.000Z</time>
        <extensions>
          <ns3:TrackPointExtension>
            <ns3:hr>135</ns3:hr>
            <ns3:cad>61</ns3:cad>
          </ns3:TrackPointExtension>
        </extensions>
      </trkpt>
      <trkpt lat="45.29950526542961597442626953125" lon="-70.90101362206041812896728515625">
        <ele>624.5999755859375</ele>
        <time>2026-08-21T15:47:54.000Z</time>
        <extensions>
          <ns3:TrackPointExtension>
            <ns3:hr>134</ns3:hr>
            <ns3:cad>70</ns3:cad>
          </ns3:TrackPointExtension>
        </extensions>
      </trkpt>
      <trkpt lat="45.29951850883662700653076171875" lon="-70.90100993402302265167236328125">
        <ele>624.5999755859375</ele>
        <time>2026-08-21T15:47:55.000Z</time>
        <extensions>
          <ns3:TrackPointExtension>
            <ns3:hr>129</ns3:hr>
            <ns3:cad>70</ns3:cad>
          </ns3:TrackPointExtension>
        </extensions>
      </trkpt>
      <trkpt lat="45.29953275807201862335205078125" lon="-70.9010019712150096893310546875">
        <ele>624.5999755859375</ele>
        <time>2026-08-21T15:47:56.000Z</time>
        <extensions>
          <ns3:TrackPointExtension>
            <ns3:hr>123</ns3:hr>
            <ns3:cad>70</ns3:cad>
          </ns3:TrackPointExtension>
        </extensions>
      </trkpt>
      <trkpt lat="45.2995519526302814483642578125" lon="-70.90098864398896694183349609375">
        <ele>624.5999755859375</ele>
        <time>2026-08-21T15:47:57.000Z</time>
        <extensions>
          <ns3:TrackPointExtension>
            <ns3:hr>118</ns3:hr>
            <ns3:cad>70</ns3:cad>
          </ns3:TrackPointExtension>
        </extensions>
      </trkpt>
      <trkpt lat="45.29956762678921222686767578125" lon="-70.90097925625741481781005859375">
        <ele>624.5999755859375</ele>
        <time>2026-08-21T15:47:58.000Z</time>
        <extensions>
          <ns3:TrackPointExtension>
            <ns3:hr>114</ns3:hr>
            <ns3:cad>70</ns3:cad>
          </ns3:TrackPointExtension>
        </extensions>
      </trkpt>
      <trkpt lat="45.29958506114780902862548828125" lon="-70.90097439475357532501220703125">
        <ele>624.5999755859375</ele>
        <time>2026-08-21T15:47:59.000Z</time>
        <extensions>
          <ns3:TrackPointExtension>
            <ns3:hr>114</ns3:hr>
            <ns3:cad>0</ns3:cad>
          </ns3:TrackPointExtension>
        </extensions>
      </trkpt>
      <trkpt lat="45.2996099554002285003662109375" lon="-70.900972969830036163330078125">
        <ele>624.5999755859375</ele>
        <time>2026-08-21T15:48:00.000Z</time>
        <extensions>
          <ns3:TrackPointExtension>
            <ns3:hr>114</ns3:hr>
            <ns3:cad>0</ns3:cad>
          </ns3:TrackPointExtension>
        </extensions>
      </trkpt>
      <trkpt lat="45.2996307425200939178466796875" lon="-70.90097255073487758636474609375">
        <ele>624.5999755859375</ele>
        <time>2026-08-21T15:48:01.000Z</time>
        <extensions>
          <ns3:TrackPointExtension>
            <ns3:hr>113</ns3:hr>
            <ns3:cad>0</ns3:cad>
          </ns3:TrackPointExtension>
        </extensions>
      </trkpt>
      <trkpt lat="45.2996485121548175811767578125" lon="-70.90097732841968536376953125">
        <ele>624.5999755859375</ele>
        <time>2026-08-21T15:48:02.000Z</time>
        <extensions>
          <ns3:TrackPointExtension>
            <ns3:hr>113</ns3:hr>
            <ns3:cad>0</ns3:cad>
          </ns3:TrackPointExtension>
        </extensions>
      </trkpt>
      <trkpt lat="45.299660749733448028564453125" lon="-70.90098244138062000274658203125">
        <ele>624.5999755859375</ele>
        <time>2026-08-21T15:48:03.000Z</time>
        <extensions>
          <ns3:TrackPointExtension>
            <ns3:hr>113</ns3:hr>
            <ns3:cad>0</ns3:cad>
          </ns3:TrackPointExtension>
        </extensions>
      </trkpt>
      <trkpt lat="45.299674831330776214599609375" lon="-70.9009872190654277801513671875">
        <ele>624.5999755859375</ele>
        <time>2026-08-21T15:48:04.000Z</time>
        <extensions>
          <ns3:TrackPointExtension>
            <ns3:hr>112</ns3:hr>
            <ns3:cad>76</ns3:cad>
          </ns3:TrackPointExtension>
        </extensions>
      </trkpt>
      <trkpt lat="45.2996914274990558624267578125" lon="-70.90099870227277278900146484375">
        <ele>624.4000244140625</ele>
        <time>2026-08-21T15:48:05.000Z</time>
        <extensions>
          <ns3:TrackPointExtension>
            <ns3:hr>111</ns3:hr>
            <ns3:cad>76</ns3:cad>
          </ns3:TrackPointExtension>
        </extensions>
      </trkpt>
      <trkpt lat="45.2997051738202571868896484375" lon="-70.90101194567978382110595703125">
        <ele>624.4000244140625</ele>
        <time>2026-08-21T15:48:06.000Z</time>
        <extensions>
          <ns3:TrackPointExtension>
            <ns3:hr>111</ns3:hr>
            <ns3:cad>76</ns3:cad>
          </ns3:TrackPointExtension>
        </extensions>
      </trkpt>
      <trkpt lat="45.2997172437608242034912109375" lon="-70.90102837421000003814697265625">
        <ele>624.20001220703125</ele>
        <time>2026-08-21T15:48:07.000Z</time>
        <extensions>
          <ns3:TrackPointExtension>
            <ns3:hr>111</ns3:hr>
            <ns3:cad>76</ns3:cad>
          </ns3:TrackPointExtension>
        </extensions>
      </trkpt>
      <trkpt lat="45.2997289784252643585205078125" lon="-70.90104849077761173248291015625">
        <ele>624</ele>
        <time>2026-08-21T15:48:08.000Z</time>
        <extensions>
          <ns3:TrackPointExtension>
            <ns3:hr>111</ns3:hr>
            <ns3:cad>76</ns3:cad>
          </ns3:TrackPointExtension>
        </extensions>
      </trkpt>
      <trkpt lat="45.29974213801324367523193359375" lon="-70.90106491930782794952392578125">
        <ele>623.79998779296875</ele>
        <time>2026-08-21T15:48:09.000Z</time>
        <extensions>
          <ns3:TrackPointExtension>
            <ns3:hr>111</ns3:hr>
            <ns3:cad>76</ns3:cad>
          </ns3:TrackPointExtension>
        </extensions>
      </trkpt>
      <trkpt lat="45.29975789599120616912841796875" lon="-70.90107497759163379669189453125">
        <ele>623.5999755859375</ele>
        <time>2026-08-21T15:48:10.000Z</time>
        <extensions>
          <ns3:TrackPointExtension>
            <ns3:hr>111</ns3:hr>
            <ns3:cad>76</ns3:cad>
          </ns3:TrackPointExtension>
        </extensions>
      </trkpt>
      <trkpt lat="45.299776755273342132568359375" lon="-70.901088304817676544189453125">
        <ele>623.5999755859375</ele>
        <time>2026-08-21T15:48:11.000Z</time>
        <extensions>
          <ns3:TrackPointExtension>
            <ns3:hr>111</ns3:hr>
            <ns3:cad>73</ns3:cad>
          </ns3:TrackPointExtension>
        </extensions>
      </trkpt>
      <trkpt lat="45.2997980453073978424072265625" lon="-70.901099704205989837646484375">
        <ele>623.5999755859375</ele>
        <time>2026-08-21T15:48:12.000Z</time>
        <extensions>
          <ns3:TrackPointExtension>
            <ns3:hr>111</ns3:hr>
            <ns3:cad>73</ns3:cad>
          </ns3:TrackPointExtension>
        </extensions>
      </trkpt>
      <trkpt lat="45.29981506057083606719970703125" lon="-70.90110666118562221527099609375">
        <ele>623.5999755859375</ele>
        <time>2026-08-21T15:48:13.000Z</time>
        <extensions>
          <ns3:TrackPointExtension>
            <ns3:hr>112</ns3:hr>
            <ns3:cad>73</ns3:cad>
          </ns3:TrackPointExtension>
        </extensions>
      </trkpt>
      <trkpt lat="45.299836434423923492431640625" lon="-70.90111688710749149322509765625">
        <ele>623.5999755859375</ele>
        <time>2026-08-21T15:48:14.000Z</time>
        <extensions>
          <ns3:TrackPointExtension>
            <ns3:hr>113</ns3:hr>
            <ns3:cad>73</ns3:cad>
          </ns3:TrackPointExtension>
        </extensions>
      </trkpt>
      <trkpt lat="45.29985428787767887115478515625" lon="-70.90112292207777500152587890625">
        <ele>623.79998779296875</ele>
        <time>2026-08-21T15:48:15.000Z</time>
        <extensions>
          <ns3:TrackPointExtension>
            <ns3:hr>113</ns3:hr>
            <ns3:cad>73</ns3:cad>
          </ns3:TrackPointExtension>
        </extensions>
      </trkpt>
      <trkpt lat="45.2998768351972103118896484375" lon="-70.9011282026767730712890625">
        <ele>623.79998779296875</ele>
        <time>2026-08-21T15:48:16.000Z</time>
        <extensions>
          <ns3:TrackPointExtension>
            <ns3:hr>114</ns3:hr>
            <ns3:cad>74</ns3:cad>
          </ns3:TrackPointExtension>
        </extensions>
      </trkpt>
      <trkpt lat="45.29989577829837799072265625" lon="-70.90112828649580478668212890625">
        <ele>623.79998779296875</ele>
        <time>2026-08-21T15:48:17.000Z</time>
        <extensions>
          <ns3:TrackPointExtension>
            <ns3:hr>117</ns3:hr>
            <ns3:cad>74</ns3:cad>
          </ns3:TrackPointExtension>
        </extensions>
      </trkpt>
      <trkpt lat="45.29991463758051395416259765625" lon="-70.90112996287643909454345703125">
        <ele>623.5999755859375</ele>
        <time>2026-08-21T15:48:18.000Z</time>
        <extensions>
          <ns3:TrackPointExtension>
            <ns3:hr>121</ns3:hr>
            <ns3:cad>74</ns3:cad>
          </ns3:TrackPointExtension>
        </extensions>
      </trkpt>
      <trkpt lat="45.2999291382730007171630859375" lon="-70.90113868005573749542236328125">
        <ele>623.5999755859375</ele>
        <time>2026-08-21T15:48:19.000Z</time>
        <extensions>
          <ns3:TrackPointExtension>
            <ns3:hr>126</ns3:hr>
            <ns3:cad>74</ns3:cad>
          </ns3:TrackPointExtension>
        </extensions>
      </trkpt>
      <trkpt lat="45.29994380660355091094970703125" lon="-70.9011508338153362274169921875">
        <ele>623.5999755859375</ele>
        <time>2026-08-21T15:48:20.000Z</time>
        <extensions>
          <ns3:TrackPointExtension>
            <ns3:hr>131</ns3:hr>
            <ns3:cad>74</ns3:cad>
          </ns3:TrackPointExtension>
        </extensions>
      </trkpt>
      <trkpt lat="45.2999581396579742431640625" lon="-70.90116801671683788299560546875">
        <ele>623.5999755859375</ele>
        <time>2026-08-21T15:48:21.000Z</time>
        <extensions>
          <ns3:TrackPointExtension>
            <ns3:hr>135</ns3:hr>
            <ns3:cad>74</ns3:cad>
          </ns3:TrackPointExtension>
        </extensions>
      </trkpt>
      <trkpt lat="45.2999697066843509674072265625" lon="-70.90118092484772205352783203125">
        <ele>623.5999755859375</ele>
        <time>2026-08-21T15:48:22.000Z</time>
        <extensions>
          <ns3:TrackPointExtension>
            <ns3:hr>137</ns3:hr>
            <ns3:cad>74</ns3:cad>
          </ns3:TrackPointExtension>
        </extensions>
      </trkpt>
      <trkpt lat="45.29997934587299823760986328125" lon="-70.9012024663388729095458984375">
        <ele>623.5999755859375</ele>
        <time>2026-08-21T15:48:23.000Z</time>
        <extensions>
          <ns3:TrackPointExtension>
            <ns3:hr>137</ns3:hr>
            <ns3:cad>75</ns3:cad>
          </ns3:TrackPointExtension>
        </extensions>
      </trkpt>
      <trkpt lat="45.2999925054609775543212890625" lon="-70.90122316963970661163330078125">
        <ele>623.5999755859375</ele>
        <time>2026-08-21T15:48:24.000Z</time>
        <extensions>
          <ns3:TrackPointExtension>
            <ns3:hr>138</ns3:hr>
            <ns3:cad>75</ns3:cad>
          </ns3:TrackPointExtension>
        </extensions>
      </trkpt>
      <trkpt lat="45.3000037372112274169921875" lon="-70.90124160982668399810791015625">
        <ele>623.5999755859375</ele>
        <time>2026-08-21T15:48:25.000Z</time>
        <extensions>
          <ns3:TrackPointExtension>
            <ns3:hr>138</ns3:hr>
            <ns3:cad>75</ns3:cad>
          </ns3:TrackPointExtension>
        </extensions>
      </trkpt>
      <trkpt lat="45.30001580715179443359375" lon="-70.90126407332718372344970703125">
        <ele>623.5999755859375</ele>
        <time>2026-08-21T15:48:26.000Z</time>
        <extensions>
          <ns3:TrackPointExtension>
            <ns3:hr>138</ns3:hr>
            <ns3:cad>75</ns3:cad>
          </ns3:TrackPointExtension>
        </extensions>
      </trkpt>
      <trkpt lat="45.30002586543560028076171875" lon="-70.90128242969512939453125">
        <ele>623.5999755859375</ele>
        <time>2026-08-21T15:48:27.000Z</time>
        <extensions>
          <ns3:TrackPointExtension>
            <ns3:hr>138</ns3:hr>
            <ns3:cad>75</ns3:cad>
          </ns3:TrackPointExtension>
        </extensions>
      </trkpt>
      <trkpt lat="45.300035588443279266357421875" lon="-70.90130782686173915863037109375">
        <ele>623.5999755859375</ele>
        <time>2026-08-21T15:48:28.000Z</time>
        <extensions>
          <ns3:TrackPointExtension>
            <ns3:hr>138</ns3:hr>
            <ns3:cad>75</ns3:cad>
          </ns3:TrackPointExtension>
        </extensions>
      </trkpt>
      <trkpt lat="45.30004874803125858306884765625" lon="-70.9013307094573974609375">
        <ele>623.5999755859375</ele>
        <time>2026-08-21T15:48:29.000Z</time>
        <extensions>
          <ns3:TrackPointExtension>
            <ns3:hr>137</ns3:hr>
            <ns3:cad>75</ns3:cad>
          </ns3:TrackPointExtension>
        </extensions>
      </trkpt>
      <trkpt lat="45.30006098560988903045654296875" lon="-70.9013432823121547698974609375">
        <ele>623.5999755859375</ele>
        <time>2026-08-21T15:48:30.000Z</time>
        <extensions>
          <ns3:TrackPointExtension>
            <ns3:hr>137</ns3:hr>
            <ns3:cad>75</ns3:cad>
          </ns3:TrackPointExtension>
        </extensions>
      </trkpt>
      <trkpt lat="45.30007590539753437042236328125" lon="-70.9013583697378635406494140625">
        <ele>623.5999755859375</ele>
        <time>2026-08-21T15:48:31.000Z</time>
        <extensions>
          <ns3:TrackPointExtension>
            <ns3:hr>137</ns3:hr>
            <ns3:cad>75</ns3:cad>
          </ns3:TrackPointExtension>
        </extensions>
      </trkpt>
      <trkpt lat="45.30008780770003795623779296875" lon="-70.90137471444904804229736328125">
        <ele>623.5999755859375</ele>
        <time>2026-08-21T15:48:32.000Z</time>
        <extensions>
          <ns3:TrackPointExtension>
            <ns3:hr>137</ns3:hr>
            <ns3:cad>75</ns3:cad>
          </ns3:TrackPointExtension>
        </extensions>
      </trkpt>
      <trkpt lat="45.300097949802875518798828125" lon="-70.90138971805572509765625">
        <ele>623.5999755859375</ele>
        <time>2026-08-21T15:48:33.000Z</time>
        <extensions>
          <ns3:TrackPointExtension>
            <ns3:hr>137</ns3:hr>
            <ns3:cad>75</ns3:cad>
          </ns3:TrackPointExtension>
        </extensions>
      </trkpt>
      <trkpt lat="45.3001098521053791046142578125" lon="-70.90140321291983127593994140625">
        <ele>623.5999755859375</ele>
        <time>2026-08-21T15:48:34.000Z</time>
        <extensions>
          <ns3:TrackPointExtension>
            <ns3:hr>137</ns3:hr>
            <ns3:cad>75</ns3:cad>
          </ns3:TrackPointExtension>
        </extensions>
      </trkpt>
      <trkpt lat="45.300121419131755828857421875" lon="-70.9014177136123180389404296875">
        <ele>623.5999755859375</ele>
        <time>2026-08-21T15:48:35.000Z</time>
        <extensions>
          <ns3:TrackPointExtension>
            <ns3:hr>137</ns3:hr>
            <ns3:cad>75</ns3:cad>
          </ns3:TrackPointExtension>
        </extensions>
      </trkpt>
      <trkpt lat="45.30013105832040309906005859375" lon="-70.90143464505672454833984375">
        <ele>623.5999755859375</ele>
        <time>2026-08-21T15:48:36.000Z</time>
        <extensions>
          <ns3:TrackPointExtension>
            <ns3:hr>137</ns3:hr>
            <ns3:cad>75</ns3:cad>
          </ns3:TrackPointExtension>
        </extensions>
      </trkpt>
      <trkpt lat="45.30013876967132091522216796875" lon="-70.9014545939862728118896484375">
        <ele>623.5999755859375</ele>
        <time>2026-08-21T15:48:37.000Z</time>
        <extensions>
          <ns3:TrackPointExtension>
            <ns3:hr>137</ns3:hr>
            <ns3:cad>75</ns3:cad>
          </ns3:TrackPointExtension>
        </extensions>
      </trkpt>
      <trkpt lat="45.300142876803874969482421875" lon="-70.9014653228223323822021484375">
        <ele>623.5999755859375</ele>
        <time>2026-08-21T15:48:38.000Z</time>
        <extensions>
          <ns3:TrackPointExtension>
            <ns3:hr>137</ns3:hr>
            <ns3:cad>75</ns3:cad>
          </ns3:TrackPointExtension>
        </extensions>
      </trkpt>
      <trkpt lat="45.300152935087680816650390625" lon="-70.90147764421999454498291015625">
        <ele>623.5999755859375</ele>
        <time>2026-08-21T15:48:39.000Z</time>
        <extensions>
          <ns3:TrackPointExtension>
            <ns3:hr>136</ns3:hr>
            <ns3:cad>75</ns3:cad>
          </ns3:TrackPointExtension>
        </extensions>
      </trkpt>
      <trkpt lat="45.30017011798918247222900390625" lon="-70.901489295065402984619140625">
        <ele>623.5999755859375</ele>
        <time>2026-08-21T15:48:40.000Z</time>
        <extensions>
          <ns3:TrackPointExtension>
            <ns3:hr>136</ns3:hr>
            <ns3:cad>75</ns3:cad>
          </ns3:TrackPointExtension>
        </extensions>
      </trkpt>
      <trkpt lat="45.30018403194844722747802734375" lon="-70.90149843133985996246337890625">
        <ele>623.5999755859375</ele>
        <time>2026-08-21T15:48:41.000Z</time>
        <extensions>
          <ns3:TrackPointExtension>
            <ns3:hr>135</ns3:hr>
            <ns3:cad>75</ns3:cad>
          </ns3:TrackPointExtension>
        </extensions>
      </trkpt>
      <trkpt lat="45.30019811354577541351318359375" lon="-70.90150748379528522491455078125">
        <ele>623.5999755859375</ele>
        <time>2026-08-21T15:48:42.000Z</time>
        <extensions>
          <ns3:TrackPointExtension>
            <ns3:hr>134</ns3:hr>
            <ns3:cad>57</ns3:cad>
          </ns3:TrackPointExtension>
        </extensions>
      </trkpt>
      <trkpt lat="45.3002107702195644378662109375" lon="-70.90151519514620304107666015625">
        <ele>623.4000244140625</ele>
        <time>2026-08-21T15:48:43.000Z</time>
        <extensions>
          <ns3:TrackPointExtension>
            <ns3:hr>133</ns3:hr>
            <ns3:cad>57</ns3:cad>
          </ns3:TrackPointExtension>
        </extensions>
      </trkpt>
      <trkpt lat="45.3002298809587955474853515625" lon="-70.90152558870613574981689453125">
        <ele>623.4000244140625</ele>
        <time>2026-08-21T15:48:44.000Z</time>
        <extensions>
          <ns3:TrackPointExtension>
            <ns3:hr>133</ns3:hr>
            <ns3:cad>57</ns3:cad>
          </ns3:TrackPointExtension>
        </extensions>
      </trkpt>
      <trkpt lat="45.30024320818483829498291015625" lon="-70.901530869305133819580078125">
        <ele>623.4000244140625</ele>
        <time>2026-08-21T15:48:45.000Z</time>
        <extensions>
          <ns3:TrackPointExtension>
            <ns3:hr>133</ns3:hr>
            <ns3:cad>57</ns3:cad>
          </ns3:TrackPointExtension>
        </extensions>
      </trkpt>
      <trkpt lat="45.3002560324966907501220703125" lon="-70.90153464116156101226806640625">
        <ele>623.5999755859375</ele>
        <time>2026-08-21T15:48:46.000Z</time>
        <extensions>
          <ns3:TrackPointExtension>
            <ns3:hr>134</ns3:hr>
            <ns3:cad>57</ns3:cad>
          </ns3:TrackPointExtension>
        </extensions>
      </trkpt>
      <trkpt lat="45.30027254484593868255615234375" lon="-70.901539586484432220458984375">
        <ele>623.5999755859375</ele>
        <time>2026-08-21T15:48:47.000Z</time>
        <extensions>
          <ns3:TrackPointExtension>
            <ns3:hr>134</ns3:hr>
            <ns3:cad>57</ns3:cad>
          </ns3:TrackPointExtension>
        </extensions>
      </trkpt>
      <trkpt lat="45.3002882190048694610595703125" lon="-70.90154838748276233673095703125">
        <ele>623.5999755859375</ele>
        <time>2026-08-21T15:48:48.000Z</time>
        <extensions>
          <ns3:TrackPointExtension>
            <ns3:hr>133</ns3:hr>
            <ns3:cad>57</ns3:cad>
          </ns3:TrackPointExtension>
        </extensions>
      </trkpt>
      <trkpt lat="45.30031026341021060943603515625" lon="-70.90156297199428081512451171875">
        <ele>623.4000244140625</ele>
        <time>2026-08-21T15:48:49.000Z</time>
        <extensions>
          <ns3:TrackPointExtension>
            <ns3:hr>133</ns3:hr>
            <ns3:cad>57</ns3:cad>
          </ns3:TrackPointExtension>
        </extensions>
      </trkpt>
      <trkpt lat="45.30032333917915821075439453125" lon="-70.90157277882099151611328125">
        <ele>623.4000244140625</ele>
        <time>2026-08-21T15:48:50.000Z</time>
        <extensions>
          <ns3:TrackPointExtension>
            <ns3:hr>133</ns3:hr>
            <ns3:cad>57</ns3:cad>
          </ns3:TrackPointExtension>
        </extensions>
      </trkpt>
      <trkpt lat="45.30033892951905727386474609375" lon="-70.90158543549478054046630859375">
        <ele>623.4000244140625</ele>
        <time>2026-08-21T15:48:51.000Z</time>
        <extensions>
          <ns3:TrackPointExtension>
            <ns3:hr>134</ns3:hr>
            <ns3:cad>57</ns3:cad>
          </ns3:TrackPointExtension>
        </extensions>
      </trkpt>
      <trkpt lat="45.30035954900085926055908203125" lon="-70.90159968473017215728759765625">
        <ele>623.4000244140625</ele>
        <time>2026-08-21T15:48:52.000Z</time>
        <extensions>
          <ns3:TrackPointExtension>
            <ns3:hr>134</ns3:hr>
            <ns3:cad>57</ns3:cad>
          </ns3:TrackPointExtension>
        </extensions>
      </trkpt>
      <trkpt lat="45.300377570092678070068359375" lon="-70.90161577798426151275634765625">
        <ele>623.4000244140625</ele>
        <time>2026-08-21T15:48:53.000Z</time>
        <extensions>
          <ns3:TrackPointExtension>
            <ns3:hr>134</ns3:hr>
            <ns3:cad>57</ns3:cad>
          </ns3:TrackPointExtension>
        </extensions>
      </trkpt>
      <trkpt lat="45.3003911487758159637451171875" lon="-70.90163170360028743743896484375">
        <ele>623.4000244140625</ele>
        <time>2026-08-21T15:48:54.000Z</time>
        <extensions>
          <ns3:TrackPointExtension>
            <ns3:hr>134</ns3:hr>
            <ns3:cad>57</ns3:cad>
          </ns3:TrackPointExtension>
        </extensions>
      </trkpt>
      <trkpt lat="45.3004075773060321807861328125" lon="-70.90165316127240657806396484375">
        <ele>623.4000244140625</ele>
        <time>2026-08-21T15:48:55.000Z</time>
        <extensions>
          <ns3:TrackPointExtension>
            <ns3:hr>134</ns3:hr>
            <ns3:cad>57</ns3:cad>
          </ns3:TrackPointExtension>
        </extensions>
      </trkpt>
      <trkpt lat="45.300416462123394012451171875" lon="-70.9016715176403522491455078125">
        <ele>623.4000244140625</ele>
        <time>2026-08-21T15:48:56.000Z</time>
        <extensions>
          <ns3:TrackPointExtension>
            <ns3:hr>134</ns3:hr>
            <ns3:cad>57</ns3:cad>
          </ns3:TrackPointExtension>
        </extensions>
      </trkpt>
      <trkpt lat="45.3004300408065319061279296875" lon="-70.90169155038893222808837890625">
        <ele>623.20001220703125</ele>
        <time>2026-08-21T15:48:57.000Z</time>
        <extensions>
          <ns3:TrackPointExtension>
            <ns3:hr>135</ns3:hr>
            <ns3:cad>57</ns3:cad>
          </ns3:TrackPointExtension>
        </extensions>
      </trkpt>
      <trkpt lat="45.30044068582355976104736328125" lon="-70.90170999057590961456298828125">
        <ele>623.20001220703125</ele>
        <time>2026-08-21T15:48:58.000Z</time>
        <extensions>
          <ns3:TrackPointExtension>
            <ns3:hr>135</ns3:hr>
            <ns3:cad>57</ns3:cad>
          </ns3:TrackPointExtension>
        </extensions>
      </trkpt>
      <trkpt lat="45.30045359395444393157958984375" lon="-70.90172440744936466217041015625">
        <ele>623</ele>
        <time>2026-08-21T15:48:59.000Z</time>
        <extensions>
          <ns3:TrackPointExtension>
            <ns3:hr>135</ns3:hr>
            <ns3:cad>52</ns3:cad>
          </ns3:TrackPointExtension>
        </extensions>
      </trkpt>
      <trkpt lat="45.30046666972339153289794921875" lon="-70.9017422609031200408935546875">
        <ele>623</ele>
        <time>2026-08-21T15:49:00.000Z</time>
        <extensions>
          <ns3:TrackPointExtension>
            <ns3:hr>135</ns3:hr>
            <ns3:cad>52</ns3:cad>
          </ns3:TrackPointExtension>
        </extensions>
      </trkpt>
      <trkpt lat="45.30047639273107051849365234375" lon="-70.9017637185752391815185546875">
        <ele>622.79998779296875</ele>
        <time>2026-08-21T15:49:01.000Z</time>
        <extensions>
          <ns3:TrackPointExtension>
            <ns3:hr>135</ns3:hr>
            <ns3:cad>52</ns3:cad>
          </ns3:TrackPointExtension>
        </extensions>
      </trkpt>
      <trkpt lat="45.30048645101487636566162109375" lon="-70.90178140439093112945556640625">
        <ele>622.79998779296875</ele>
        <time>2026-08-21T15:49:02.000Z</time>
        <extensions>
          <ns3:TrackPointExtension>
            <ns3:hr>135</ns3:hr>
            <ns3:cad>0</ns3:cad>
          </ns3:TrackPointExtension>
        </extensions>
      </trkpt>
      <trkpt lat="45.3004991076886653900146484375" lon="-70.901794731616973876953125">
        <ele>622.79998779296875</ele>
        <time>2026-08-21T15:49:03.000Z</time>
        <extensions>
          <ns3:TrackPointExtension>
            <ns3:hr>134</ns3:hr>
            <ns3:cad>0</ns3:cad>
          </ns3:TrackPointExtension>
        </extensions>
      </trkpt>
      <trkpt lat="45.300509668886661529541015625" lon="-70.901813507080078125">
        <ele>622.79998779296875</ele>
        <time>2026-08-21T15:49:04.000Z</time>
        <extensions>
          <ns3:TrackPointExtension>
            <ns3:hr>134</ns3:hr>
            <ns3:cad>0</ns3:cad>
          </ns3:TrackPointExtension>
        </extensions>
      </trkpt>
      <trkpt lat="45.300519056618213653564453125" lon="-70.901829265058040618896484375">
        <ele>622.79998779296875</ele>
        <time>2026-08-21T15:49:05.000Z</time>
        <extensions>
          <ns3:TrackPointExtension>
            <ns3:hr>133</ns3:hr>
            <ns3:cad>62</ns3:cad>
          </ns3:TrackPointExtension>
        </extensions>
      </trkpt>
      <trkpt lat="45.30052953399717807769775390625" lon="-70.90184460394084453582763671875">
        <ele>623</ele>
        <time>2026-08-21T15:49:06.000Z</time>
        <extensions>
          <ns3:TrackPointExtension>
            <ns3:hr>133</ns3:hr>
            <ns3:cad>62</ns3:cad>
          </ns3:TrackPointExtension>
        </extensions>
      </trkpt>
      <trkpt lat="45.3005386702716350555419921875" lon="-70.90186052955687046051025390625">
        <ele>623</ele>
        <time>2026-08-21T15:49:07.000Z</time>
        <extensions>
          <ns3:TrackPointExtension>
            <ns3:hr>133</ns3:hr>
            <ns3:cad>62</ns3:cad>
          </ns3:TrackPointExtension>
        </extensions>
      </trkpt>
      <trkpt lat="45.30054780654609203338623046875" lon="-70.9018790535628795623779296875">
        <ele>623.20001220703125</ele>
        <time>2026-08-21T15:49:08.000Z</time>
        <extensions>
          <ns3:TrackPointExtension>
            <ns3:hr>133</ns3:hr>
            <ns3:cad>62</ns3:cad>
          </ns3:TrackPointExtension>
        </extensions>
      </trkpt>
      <trkpt lat="45.3005587868392467498779296875" lon="-70.9018958173692226409912109375">
        <ele>623</ele>
        <time>2026-08-21T15:49:09.000Z</time>
        <extensions>
          <ns3:TrackPointExtension>
            <ns3:hr>133</ns3:hr>
            <ns3:cad>62</ns3:cad>
          </ns3:TrackPointExtension>
        </extensions>
      </trkpt>
      <trkpt lat="45.30056457035243511199951171875" lon="-70.90191685594618320465087890625">
        <ele>623</ele>
        <time>2026-08-21T15:49:10.000Z</time>
        <extensions>
          <ns3:TrackPointExtension>
            <ns3:hr>134</ns3:hr>
            <ns3:cad>62</ns3:cad>
          </ns3:TrackPointExtension>
        </extensions>
      </trkpt>
      <trkpt lat="45.30057328753173351287841796875" lon="-70.90195088647305965423583984375">
        <ele>623</ele>
        <time>2026-08-21T15:49:11.000Z</time>
        <extensions>
          <ns3:TrackPointExtension>
            <ns3:hr>134</ns3:hr>
            <ns3:cad>62</ns3:cad>
          </ns3:TrackPointExtension>
        </extensions>
      </trkpt>
      <trkpt lat="45.3005802445113658905029296875" lon="-70.901976786553859710693359375">
        <ele>622.79998779296875</ele>
        <time>2026-08-21T15:49:12.000Z</time>
        <extensions>
          <ns3:TrackPointExtension>
            <ns3:hr>134</ns3:hr>
            <ns3:cad>62</ns3:cad>
          </ns3:TrackPointExtension>
        </extensions>
      </trkpt>
      <trkpt lat="45.300584100186824798583984375" lon="-70.902002938091754913330078125">
        <ele>622.79998779296875</ele>
        <time>2026-08-21T15:49:13.000Z</time>
        <extensions>
          <ns3:TrackPointExtension>
            <ns3:hr>134</ns3:hr>
            <ns3:cad>62</ns3:cad>
          </ns3:TrackPointExtension>
        </extensions>
      </trkpt>
      <trkpt lat="45.30058921314775943756103515625" lon="-70.9020362980663776397705078125">
        <ele>622.79998779296875</ele>
        <time>2026-08-21T15:49:14.000Z</time>
        <extensions>
          <ns3:TrackPointExtension>
            <ns3:hr>134</ns3:hr>
            <ns3:cad>75</ns3:cad>
          </ns3:TrackPointExtension>
        </extensions>
      </trkpt>
      <trkpt lat="45.300596840679645538330078125" lon="-70.9020642936229705810546875">
        <ele>622.79998779296875</ele>
        <time>2026-08-21T15:49:15.000Z</time>
        <extensions>
          <ns3:TrackPointExtension>
            <ns3:hr>134</ns3:hr>
            <ns3:cad>75</ns3:cad>
          </ns3:TrackPointExtension>
        </extensions>
      </trkpt>
      <trkpt lat="45.3006040491163730621337890625" lon="-70.90210008434951305389404296875">
        <ele>622.5999755859375</ele>
        <time>2026-08-21T15:49:16.000Z</time>
        <extensions>
          <ns3:TrackPointExtension>
            <ns3:hr>134</ns3:hr>
            <ns3:cad>75</ns3:cad>
          </ns3:TrackPointExtension>
        </extensions>
      </trkpt>
      <trkpt lat="45.3006114251911640167236328125" lon="-70.90212665498256683349609375">
        <ele>622.5999755859375</ele>
        <time>2026-08-21T15:49:17.000Z</time>
        <extensions>
          <ns3:TrackPointExtension>
            <ns3:hr>134</ns3:hr>
            <ns3:cad>75</ns3:cad>
          </ns3:TrackPointExtension>
        </extensions>
      </trkpt>
      <trkpt lat="45.30062341131269931793212890625" lon="-70.90215892530977725982666015625">
        <ele>622.5999755859375</ele>
        <time>2026-08-21T15:49:18.000Z</time>
        <extensions>
          <ns3:TrackPointExtension>
            <ns3:hr>133</ns3:hr>
            <ns3:cad>75</ns3:cad>
          </ns3:TrackPointExtension>
        </extensions>
      </trkpt>
      <trkpt lat="45.30063564889132976531982421875" lon="-70.902186669409275054931640625">
        <ele>622.4000244140625</ele>
        <time>2026-08-21T15:49:19.000Z</time>
        <extensions>
          <ns3:TrackPointExtension>
            <ns3:hr>133</ns3:hr>
            <ns3:cad>75</ns3:cad>
          </ns3:TrackPointExtension>
        </extensions>
      </trkpt>
      <trkpt lat="45.3006486408412456512451171875" lon="-70.902213156223297119140625">
        <ele>622.4000244140625</ele>
        <time>2026-08-21T15:49:20.000Z</time>
        <extensions>
          <ns3:TrackPointExtension>
            <ns3:hr>134</ns3:hr>
            <ns3:cad>75</ns3:cad>
          </ns3:TrackPointExtension>
        </extensions>
      </trkpt>
      <trkpt lat="45.300666578114032745361328125" lon="-70.902242995798587799072265625">
        <ele>622.4000244140625</ele>
        <time>2026-08-21T15:49:21.000Z</time>
        <extensions>
          <ns3:TrackPointExtension>
            <ns3:hr>134</ns3:hr>
            <ns3:cad>75</ns3:cad>
          </ns3:TrackPointExtension>
        </extensions>
      </trkpt>
      <trkpt lat="45.300684012472629547119140625" lon="-70.9022605977952480316162109375">
        <ele>622.4000244140625</ele>
        <time>2026-08-21T15:49:22.000Z</time>
        <extensions>
          <ns3:TrackPointExtension>
            <ns3:hr>135</ns3:hr>
            <ns3:cad>0</ns3:cad>
          </ns3:TrackPointExtension>
        </extensions>
      </trkpt>
      <trkpt lat="45.3007011115550994873046875" lon="-70.90227895416319370269775390625">
        <ele>622.20001220703125</ele>
        <time>2026-08-21T15:49:23.000Z</time>
        <extensions>
          <ns3:TrackPointExtension>
            <ns3:hr>135</ns3:hr>
            <ns3:cad>0</ns3:cad>
          </ns3:TrackPointExtension>
        </extensions>
      </trkpt>
      <trkpt lat="45.30071829445660114288330078125" lon="-70.9022981487214565277099609375">
        <ele>622.20001220703125</ele>
        <time>2026-08-21T15:49:24.000Z</time>
        <extensions>
          <ns3:TrackPointExtension>
            <ns3:hr>135</ns3:hr>
            <ns3:cad>0</ns3:cad>
          </ns3:TrackPointExtension>
        </extensions>
      </trkpt>
      <trkpt lat="45.30072969384491443634033203125" lon="-70.9023164212703704833984375">
        <ele>622.20001220703125</ele>
        <time>2026-08-21T15:49:25.000Z</time>
        <extensions>
          <ns3:TrackPointExtension>
            <ns3:hr>135</ns3:hr>
            <ns3:cad>0</ns3:cad>
          </ns3:TrackPointExtension>
        </extensions>
      </trkpt>
      <trkpt lat="45.30074863694608211517333984375" lon="-70.90233477763831615447998046875">
        <ele>622</ele>
        <time>2026-08-21T15:49:26.000Z</time>
        <extensions>
          <ns3:TrackPointExtension>
            <ns3:hr>135</ns3:hr>
            <ns3:cad>0</ns3:cad>
          </ns3:TrackPointExtension>
        </extensions>
      </trkpt>
      <trkpt lat="45.3007606230676174163818359375" lon="-70.90234902687370777130126953125">
        <ele>621.79998779296875</ele>
        <time>2026-08-21T15:49:27.000Z</time>
        <extensions>
          <ns3:TrackPointExtension>
            <ns3:hr>136</ns3:hr>
            <ns3:cad>0</ns3:cad>
          </ns3:TrackPointExtension>
        </extensions>
      </trkpt>
      <trkpt lat="45.30077110044658184051513671875" lon="-70.9023678861558437347412109375">
        <ele>621.79998779296875</ele>
        <time>2026-08-21T15:49:28.000Z</time>
        <extensions>
          <ns3:TrackPointExtension>
            <ns3:hr>136</ns3:hr>
            <ns3:cad>0</ns3:cad>
          </ns3:TrackPointExtension>
        </extensions>
      </trkpt>
      <trkpt lat="45.3007777221500873565673828125" lon="-70.9023863263428211212158203125">
        <ele>621.5999755859375</ele>
        <time>2026-08-21T15:49:29.000Z</time>
        <extensions>
          <ns3:TrackPointExtension>
            <ns3:hr>137</ns3:hr>
            <ns3:cad>0</ns3:cad>
          </ns3:TrackPointExtension>
        </extensions>
      </trkpt>
      <trkpt lat="45.300781913101673126220703125" lon="-70.90240686200559139251708984375">
        <ele>621.5999755859375</ele>
        <time>2026-08-21T15:49:30.000Z</time>
        <extensions>
          <ns3:TrackPointExtension>
            <ns3:hr>137</ns3:hr>
            <ns3:cad>0</ns3:cad>
          </ns3:TrackPointExtension>
        </extensions>
      </trkpt>
      <trkpt lat="45.30078920535743236541748046875" lon="-70.9024290740489959716796875">
        <ele>621.4000244140625</ele>
        <time>2026-08-21T15:49:31.000Z</time>
        <extensions>
          <ns3:TrackPointExtension>
            <ns3:hr>137</ns3:hr>
            <ns3:cad>0</ns3:cad>
          </ns3:TrackPointExtension>
        </extensions>
      </trkpt>
      <trkpt lat="45.30080110765993595123291015625" lon="-70.90244977734982967376708984375">
        <ele>621.4000244140625</ele>
        <time>2026-08-21T15:49:32.000Z</time>
        <extensions>
          <ns3:TrackPointExtension>
            <ns3:hr>137</ns3:hr>
            <ns3:cad>0</ns3:cad>
          </ns3:TrackPointExtension>
        </extensions>
      </trkpt>
      <trkpt lat="45.30082046985626220703125" lon="-70.90245983563363552093505859375">
        <ele>621.4000244140625</ele>
        <time>2026-08-21T15:49:33.000Z</time>
        <extensions>
          <ns3:TrackPointExtension>
            <ns3:hr>137</ns3:hr>
            <ns3:cad>0</ns3:cad>
          </ns3:TrackPointExtension>
        </extensions>
      </trkpt>
      <trkpt lat="45.300841592252254486083984375" lon="-70.902475006878376007080078125">
        <ele>621.5999755859375</ele>
        <time>2026-08-21T15:49:34.000Z</time>
        <extensions>
          <ns3:TrackPointExtension>
            <ns3:hr>137</ns3:hr>
            <ns3:cad>0</ns3:cad>
          </ns3:TrackPointExtension>
        </extensions>
      </trkpt>
      <trkpt lat="45.300861708819866180419921875" lon="-70.90248397551476955413818359375">
        <ele>621.4000244140625</ele>
        <time>2026-08-21T15:49:35.000Z</time>
        <extensions>
          <ns3:TrackPointExtension>
            <ns3:hr>137</ns3:hr>
            <ns3:cad>0</ns3:cad>
          </ns3:TrackPointExtension>
        </extensions>
      </trkpt>
      <trkpt lat="45.30088685452938079833984375" lon="-70.9025046788156032562255859375">
        <ele>621.4000244140625</ele>
        <time>2026-08-21T15:49:36.000Z</time>
        <extensions>
          <ns3:TrackPointExtension>
            <ns3:hr>136</ns3:hr>
            <ns3:cad>0</ns3:cad>
          </ns3:TrackPointExtension>
        </extensions>
      </trkpt>
      <trkpt lat="45.30090906657278537750244140625" lon="-70.90251700021326541900634765625">
        <ele>621.4000244140625</ele>
        <time>2026-08-21T15:49:37.000Z</time>
        <extensions>
          <ns3:TrackPointExtension>
            <ns3:hr>137</ns3:hr>
            <ns3:cad>0</ns3:cad>
          </ns3:TrackPointExtension>
        </extensions>
      </trkpt>
      <trkpt lat="45.3009290993213653564453125" lon="-70.90252420864999294281005859375">
        <ele>621.4000244140625</ele>
        <time>2026-08-21T15:49:38.000Z</time>
        <extensions>
          <ns3:TrackPointExtension>
            <ns3:hr>137</ns3:hr>
            <ns3:cad>0</ns3:cad>
          </ns3:TrackPointExtension>
        </extensions>
      </trkpt>
      <trkpt lat="45.3009532392024993896484375" lon="-70.90253426693379878997802734375">
        <ele>621.4000244140625</ele>
        <time>2026-08-21T15:49:39.000Z</time>
        <extensions>
          <ns3:TrackPointExtension>
            <ns3:hr>136</ns3:hr>
            <ns3:cad>0</ns3:cad>
          </ns3:TrackPointExtension>
        </extensions>
      </trkpt>
      <trkpt lat="45.30097662471234798431396484375" lon="-70.9025390446186065673828125">
        <ele>621.4000244140625</ele>
        <time>2026-08-21T15:49:40.000Z</time>
        <extensions>
          <ns3:TrackPointExtension>
            <ns3:hr>136</ns3:hr>
            <ns3:cad>0</ns3:cad>
          </ns3:TrackPointExtension>
        </extensions>
      </trkpt>
      <trkpt lat="45.30099741183221340179443359375" lon="-70.902542732656002044677734375">
        <ele>621.4000244140625</ele>
        <time>2026-08-21T15:49:41.000Z</time>
        <extensions>
          <ns3:TrackPointExtension>
            <ns3:hr>136</ns3:hr>
            <ns3:cad>0</ns3:cad>
          </ns3:TrackPointExtension>
        </extensions>
      </trkpt>
      <trkpt lat="45.3010231442749500274658203125" lon="-70.902548097074031829833984375">
        <ele>621.4000244140625</ele>
        <time>2026-08-21T15:49:42.000Z</time>
        <extensions>
          <ns3:TrackPointExtension>
            <ns3:hr>136</ns3:hr>
            <ns3:cad>0</ns3:cad>
          </ns3:TrackPointExtension>
        </extensions>
      </trkpt>
      <trkpt lat="45.30104049481451511383056640625" lon="-70.90255438350141048431396484375">
        <ele>621.4000244140625</ele>
        <time>2026-08-21T15:49:43.000Z</time>
        <extensions>
          <ns3:TrackPointExtension>
            <ns3:hr>135</ns3:hr>
            <ns3:cad>0</ns3:cad>
          </ns3:TrackPointExtension>
        </extensions>
      </trkpt>
      <trkpt lat="45.3010603599250316619873046875" lon="-70.902561508119106292724609375">
        <ele>621.4000244140625</ele>
        <time>2026-08-21T15:49:44.000Z</time>
        <extensions>
          <ns3:TrackPointExtension>
            <ns3:hr>136</ns3:hr>
            <ns3:cad>0</ns3:cad>
          </ns3:TrackPointExtension>
        </extensions>
      </trkpt>
      <trkpt lat="45.3010858409106731414794921875" lon="-70.9025677107274532318115234375">
        <ele>621.4000244140625</ele>
        <time>2026-08-21T15:49:45.000Z</time>
        <extensions>
          <ns3:TrackPointExtension>
            <ns3:hr>136</ns3:hr>
            <ns3:cad>0</ns3:cad>
          </ns3:TrackPointExtension>
        </extensions>
      </trkpt>
      <trkpt lat="45.3011046163737773895263671875" lon="-70.90257215313613414764404296875">
        <ele>621.4000244140625</ele>
        <time>2026-08-21T15:49:46.000Z</time>
        <extensions>
          <ns3:TrackPointExtension>
            <ns3:hr>136</ns3:hr>
            <ns3:cad>79</ns3:cad>
          </ns3:TrackPointExtension>
        </extensions>
      </trkpt>
      <trkpt lat="45.3011262416839599609375" lon="-70.90257684700191020965576171875">
        <ele>621.20001220703125</ele>
        <time>2026-08-21T15:49:47.000Z</time>
        <extensions>
          <ns3:TrackPointExtension>
            <ns3:hr>137</ns3:hr>
            <ns3:cad>79</ns3:cad>
          </ns3:TrackPointExtension>
        </extensions>
      </trkpt>
      <trkpt lat="45.30114568769931793212890625" lon="-70.90258799493312835693359375">
        <ele>621.20001220703125</ele>
        <time>2026-08-21T15:49:48.000Z</time>
        <extensions>
          <ns3:TrackPointExtension>
            <ns3:hr>137</ns3:hr>
            <ns3:cad>79</ns3:cad>
          </ns3:TrackPointExtension>
        </extensions>
      </trkpt>
      <trkpt lat="45.30116521753370761871337890625" lon="-70.90259361080825328826904296875">
        <ele>621.20001220703125</ele>
        <time>2026-08-21T15:49:49.000Z</time>
        <extensions>
          <ns3:TrackPointExtension>
            <ns3:hr>138</ns3:hr>
            <ns3:cad>79</ns3:cad>
          </ns3:TrackPointExtension>
        </extensions>
      </trkpt>
      <trkpt lat="45.30119002796709537506103515625" lon="-70.9025908447802066802978515625">
        <ele>621</ele>
        <time>2026-08-21T15:49:50.000Z</time>
        <extensions>
          <ns3:TrackPointExtension>
            <ns3:hr>138</ns3:hr>
            <ns3:cad>79</ns3:cad>
          </ns3:TrackPointExtension>
        </extensions>
      </trkpt>
      <trkpt lat="45.301215089857578277587890625" lon="-70.90259277261793613433837890625">
        <ele>621</ele>
        <time>2026-08-21T15:49:51.000Z</time>
        <extensions>
          <ns3:TrackPointExtension>
            <ns3:hr>138</ns3:hr>
            <ns3:cad>79</ns3:cad>
          </ns3:TrackPointExtension>
        </extensions>
      </trkpt>
      <trkpt lat="45.3012370504438877105712890625" lon="-70.90259964577853679656982421875">
        <ele>621</ele>
        <time>2026-08-21T15:49:52.000Z</time>
        <extensions>
          <ns3:TrackPointExtension>
            <ns3:hr>139</ns3:hr>
            <ns3:cad>79</ns3:cad>
          </ns3:TrackPointExtension>
        </extensions>
      </trkpt>
      <trkpt lat="45.30125959776341915130615234375" lon="-70.902605094015598297119140625">
        <ele>620.79998779296875</ele>
        <time>2026-08-21T15:49:53.000Z</time>
        <extensions>
          <ns3:TrackPointExtension>
            <ns3:hr>139</ns3:hr>
            <ns3:cad>79</ns3:cad>
          </ns3:TrackPointExtension>
        </extensions>
      </trkpt>
      <trkpt lat="45.301278121769428253173828125" lon="-70.9026059322059154510498046875">
        <ele>621</ele>
        <time>2026-08-21T15:49:54.000Z</time>
        <extensions>
          <ns3:TrackPointExtension>
            <ns3:hr>140</ns3:hr>
            <ns3:cad>79</ns3:cad>
          </ns3:TrackPointExtension>
        </extensions>
      </trkpt>
      <trkpt lat="45.3012992441654205322265625" lon="-70.90260383673012256622314453125">
        <ele>621</ele>
        <time>2026-08-21T15:49:55.000Z</time>
        <extensions>
          <ns3:TrackPointExtension>
            <ns3:hr>139</ns3:hr>
            <ns3:cad>40</ns3:cad>
          </ns3:TrackPointExtension>
        </extensions>
      </trkpt>
      <trkpt lat="45.30131894163787364959716796875" lon="-70.90260685421526432037353515625">
        <ele>621</ele>
        <time>2026-08-21T15:49:56.000Z</time>
        <extensions>
          <ns3:TrackPointExtension>
            <ns3:hr>139</ns3:hr>
            <ns3:cad>40</ns3:cad>
          </ns3:TrackPointExtension>
        </extensions>
      </trkpt>
      <trkpt lat="45.30133352614939212799072265625" lon="-70.9026086144149303436279296875">
        <ele>621.20001220703125</ele>
        <time>2026-08-21T15:49:57.000Z</time>
        <extensions>
          <ns3:TrackPointExtension>
            <ns3:hr>138</ns3:hr>
            <ns3:cad>40</ns3:cad>
          </ns3:TrackPointExtension>
        </extensions>
      </trkpt>
      <trkpt lat="45.3013460151851177215576171875" lon="-70.9026109613478183746337890625">
        <ele>621.20001220703125</ele>
        <time>2026-08-21T15:49:58.000Z</time>
        <extensions>
          <ns3:TrackPointExtension>
            <ns3:hr>138</ns3:hr>
            <ns3:cad>79</ns3:cad>
          </ns3:TrackPointExtension>
        </extensions>
      </trkpt>
      <trkpt lat="45.30136118642985820770263671875" lon="-70.90261573903262615203857421875">
        <ele>621.20001220703125</ele>
        <time>2026-08-21T15:49:59.000Z</time>
        <extensions>
          <ns3:TrackPointExtension>
            <ns3:hr>138</ns3:hr>
            <ns3:cad>79</ns3:cad>
          </ns3:TrackPointExtension>
        </extensions>
      </trkpt>
      <trkpt lat="45.3013839013874530792236328125" lon="-70.90262764133512973785400390625">
        <ele>621.20001220703125</ele>
        <time>2026-08-21T15:50:00.000Z</time>
        <extensions>
          <ns3:TrackPointExtension>
            <ns3:hr>138</ns3:hr>
            <ns3:cad>79</ns3:cad>
          </ns3:TrackPointExtension>
        </extensions>
      </trkpt>
      <trkpt lat="45.30140393413603305816650390625" lon="-70.90263267047703266143798828125">
        <ele>621</ele>
        <time>2026-08-21T15:50:01.000Z</time>
        <extensions>
          <ns3:TrackPointExtension>
            <ns3:hr>137</ns3:hr>
            <ns3:cad>0</ns3:cad>
          </ns3:TrackPointExtension>
        </extensions>
      </trkpt>
      <trkpt lat="45.3014187701046466827392578125" lon="-70.90263384394347667694091796875">
        <ele>621</ele>
        <time>2026-08-21T15:50:02.000Z</time>
        <extensions>
          <ns3:TrackPointExtension>
            <ns3:hr>137</ns3:hr>
            <ns3:cad>0</ns3:cad>
          </ns3:TrackPointExtension>
        </extensions>
      </trkpt>
      <trkpt lat="45.3014368750154972076416015625" lon="-70.90263367630541324615478515625">
        <ele>620.79998779296875</ele>
        <time>2026-08-21T15:50:03.000Z</time>
        <extensions>
          <ns3:TrackPointExtension>
            <ns3:hr>137</ns3:hr>
            <ns3:cad>0</ns3:cad>
          </ns3:TrackPointExtension>
        </extensions>
      </trkpt>
      <trkpt lat="45.3014536388218402862548828125" lon="-70.90263702906668186187744140625">
        <ele>620.79998779296875</ele>
        <time>2026-08-21T15:50:04.000Z</time>
        <extensions>
          <ns3:TrackPointExtension>
            <ns3:hr>137</ns3:hr>
            <ns3:cad>0</ns3:cad>
          </ns3:TrackPointExtension>
        </extensions>
      </trkpt>
      <trkpt lat="45.30146344564855098724365234375" lon="-70.90264205820858478546142578125">
        <ele>620.5999755859375</ele>
        <time>2026-08-21T15:50:05.000Z</time>
        <extensions>
          <ns3:TrackPointExtension>
            <ns3:hr>138</ns3:hr>
            <ns3:cad>0</ns3:cad>
          </ns3:TrackPointExtension>
        </extensions>
      </trkpt>
      <trkpt lat="45.30148171819746494293212890625" lon="-70.90264189057052135467529296875">
        <ele>620.5999755859375</ele>
        <time>2026-08-21T15:50:06.000Z</time>
        <extensions>
          <ns3:TrackPointExtension>
            <ns3:hr>138</ns3:hr>
            <ns3:cad>0</ns3:cad>
          </ns3:TrackPointExtension>
        </extensions>
      </trkpt>
      <trkpt lat="45.30150133185088634490966796875" lon="-70.90263971127569675445556640625">
        <ele>620.5999755859375</ele>
        <time>2026-08-21T15:50:07.000Z</time>
        <extensions>
          <ns3:TrackPointExtension>
            <ns3:hr>138</ns3:hr>
            <ns3:cad>0</ns3:cad>
          </ns3:TrackPointExtension>
        </extensions>
      </trkpt>
      <trkpt lat="45.30151315033435821533203125" lon="-70.9026340954005718231201171875">
        <ele>620.5999755859375</ele>
        <time>2026-08-21T15:50:08.000Z</time>
        <extensions>
          <ns3:TrackPointExtension>
            <ns3:hr>138</ns3:hr>
            <ns3:cad>0</ns3:cad>
          </ns3:TrackPointExtension>
        </extensions>
      </trkpt>
      <trkpt lat="45.3015344403684139251708984375" lon="-70.902620516717433929443359375">
        <ele>620.5999755859375</ele>
        <time>2026-08-21T15:50:09.000Z</time>
        <extensions>
          <ns3:TrackPointExtension>
            <ns3:hr>138</ns3:hr>
            <ns3:cad>0</ns3:cad>
          </ns3:TrackPointExtension>
        </extensions>
      </trkpt>
      <trkpt lat="45.3015575744211673736572265625" lon="-70.90260869823396205902099609375">
        <ele>620.5999755859375</ele>
        <time>2026-08-21T15:50:10.000Z</time>
        <extensions>
          <ns3:TrackPointExtension>
            <ns3:hr>138</ns3:hr>
            <ns3:cad>0</ns3:cad>
          </ns3:TrackPointExtension>
        </extensions>
      </trkpt>
      <trkpt lat="45.3015709854662418365478515625" lon="-70.9025962091982364654541015625">
        <ele>620.5999755859375</ele>
        <time>2026-08-21T15:50:11.000Z</time>
        <extensions>
          <ns3:TrackPointExtension>
            <ns3:hr>138</ns3:hr>
            <ns3:cad>0</ns3:cad>
          </ns3:TrackPointExtension>
        </extensions>
      </trkpt>
      <trkpt lat="45.30158733017742633819580078125" lon="-70.9025898389518260955810546875">
        <ele>620.5999755859375</ele>
        <time>2026-08-21T15:50:12.000Z</time>
        <extensions>
          <ns3:TrackPointExtension>
            <ns3:hr>138</ns3:hr>
            <ns3:cad>70</ns3:cad>
          </ns3:TrackPointExtension>
        </extensions>
      </trkpt>
      <trkpt lat="45.30160627327859401702880859375" lon="-70.90258019976317882537841796875">
        <ele>620.4000244140625</ele>
        <time>2026-08-21T15:50:13.000Z</time>
        <extensions>
          <ns3:TrackPointExtension>
            <ns3:hr>139</ns3:hr>
            <ns3:cad>70</ns3:cad>
          </ns3:TrackPointExtension>
        </extensions>
      </trkpt>
      <trkpt lat="45.30162446200847625732421875" lon="-70.90256762690842151641845703125">
        <ele>620.20001220703125</ele>
        <time>2026-08-21T15:50:14.000Z</time>
        <extensions>
          <ns3:TrackPointExtension>
            <ns3:hr>138</ns3:hr>
            <ns3:cad>70</ns3:cad>
          </ns3:TrackPointExtension>
        </extensions>
      </trkpt>
      <trkpt lat="45.3016427345573902130126953125" lon="-70.902558825910091400146484375">
        <ele>620.20001220703125</ele>
        <time>2026-08-21T15:50:15.000Z</time>
        <extensions>
          <ns3:TrackPointExtension>
            <ns3:hr>138</ns3:hr>
            <ns3:cad>74</ns3:cad>
          </ns3:TrackPointExtension>
        </extensions>
      </trkpt>
      <trkpt lat="45.30165824107825756072998046875" lon="-70.90254834853112697601318359375">
        <ele>620</ele>
        <time>2026-08-21T15:50:16.000Z</time>
        <extensions>
          <ns3:TrackPointExtension>
            <ns3:hr>138</ns3:hr>
            <ns3:cad>74</ns3:cad>
          </ns3:TrackPointExtension>
        </extensions>
      </trkpt>
      <trkpt lat="45.30167232267558574676513671875" lon="-70.90253409929573535919189453125">
        <ele>620</ele>
        <time>2026-08-21T15:50:17.000Z</time>
        <extensions>
          <ns3:TrackPointExtension>
            <ns3:hr>137</ns3:hr>
            <ns3:cad>74</ns3:cad>
          </ns3:TrackPointExtension>
        </extensions>
      </trkpt>
      <trkpt lat="45.30168590135872364044189453125" lon="-70.90252404101192951202392578125">
        <ele>620</ele>
        <time>2026-08-21T15:50:18.000Z</time>
        <extensions>
          <ns3:TrackPointExtension>
            <ns3:hr>137</ns3:hr>
            <ns3:cad>72</ns3:cad>
          </ns3:TrackPointExtension>
        </extensions>
      </trkpt>
      <trkpt lat="45.3017017431557178497314453125" lon="-70.90252052061259746551513671875">
        <ele>620</ele>
        <time>2026-08-21T15:50:19.000Z</time>
        <extensions>
          <ns3:TrackPointExtension>
            <ns3:hr>137</ns3:hr>
            <ns3:cad>72</ns3:cad>
          </ns3:TrackPointExtension>
        </extensions>
      </trkpt>
      <trkpt lat="45.3017148189246654510498046875" lon="-70.90252504684031009674072265625">
        <ele>620.20001220703125</ele>
        <time>2026-08-21T15:50:20.000Z</time>
        <extensions>
          <ns3:TrackPointExtension>
            <ns3:hr>137</ns3:hr>
            <ns3:cad>72</ns3:cad>
          </ns3:TrackPointExtension>
        </extensions>
      </trkpt>
      <trkpt lat="45.30172638595104217529296875" lon="-70.90252697467803955078125">
        <ele>620.20001220703125</ele>
        <time>2026-08-21T15:50:21.000Z</time>
        <extensions>
          <ns3:TrackPointExtension>
            <ns3:hr>138</ns3:hr>
            <ns3:cad>72</ns3:cad>
          </ns3:TrackPointExtension>
        </extensions>
      </trkpt>
      <trkpt lat="45.3017413057386875152587890625" lon="-70.90253166854381561279296875">
        <ele>620.4000244140625</ele>
        <time>2026-08-21T15:50:22.000Z</time>
        <extensions>
          <ns3:TrackPointExtension>
            <ns3:hr>138</ns3:hr>
            <ns3:cad>72</ns3:cad>
          </ns3:TrackPointExtension>
        </extensions>
      </trkpt>
      <trkpt lat="45.3017533756792545318603515625" lon="-70.9025388769805431365966796875">
        <ele>620.4000244140625</ele>
        <time>2026-08-21T15:50:23.000Z</time>
        <extensions>
          <ns3:TrackPointExtension>
            <ns3:hr>138</ns3:hr>
            <ns3:cad>72</ns3:cad>
          </ns3:TrackPointExtension>
        </extensions>
      </trkpt>
      <trkpt lat="45.30176670290529727935791015625" lon="-70.90254147537052631378173828125">
        <ele>620.4000244140625</ele>
        <time>2026-08-21T15:50:24.000Z</time>
        <extensions>
          <ns3:TrackPointExtension>
            <ns3:hr>138</ns3:hr>
            <ns3:cad>72</ns3:cad>
          </ns3:TrackPointExtension>
        </extensions>
      </trkpt>
      <trkpt lat="45.301781035959720611572265625" lon="-70.902536697685718536376953125">
        <ele>620.4000244140625</ele>
        <time>2026-08-21T15:50:25.000Z</time>
        <extensions>
          <ns3:TrackPointExtension>
            <ns3:hr>139</ns3:hr>
            <ns3:cad>0</ns3:cad>
          </ns3:TrackPointExtension>
        </extensions>
      </trkpt>
      <trkpt lat="45.30178782530128955841064453125" lon="-70.9025184251368045806884765625">
        <ele>620.4000244140625</ele>
        <time>2026-08-21T15:50:26.000Z</time>
        <extensions>
          <ns3:TrackPointExtension>
            <ns3:hr>139</ns3:hr>
            <ns3:cad>0</ns3:cad>
          </ns3:TrackPointExtension>
        </extensions>
      </trkpt>
      <trkpt lat="45.301794447004795074462890625" lon="-70.90250224806368350982666015625">
        <ele>620.4000244140625</ele>
        <time>2026-08-21T15:50:27.000Z</time>
        <extensions>
          <ns3:TrackPointExtension>
            <ns3:hr>140</ns3:hr>
            <ns3:cad>53</ns3:cad>
          </ns3:TrackPointExtension>
        </extensions>
      </trkpt>
      <trkpt lat="45.30180593021214008331298828125" lon="-70.902492441236972808837890625">
        <ele>620.4000244140625</ele>
        <time>2026-08-21T15:50:28.000Z</time>
        <extensions>
          <ns3:TrackPointExtension>
            <ns3:hr>140</ns3:hr>
            <ns3:cad>53</ns3:cad>
          </ns3:TrackPointExtension>
        </extensions>
      </trkpt>
      <trkpt lat="45.30181623995304107666015625" lon="-70.9024909324944019317626953125">
        <ele>620.4000244140625</ele>
        <time>2026-08-21T15:50:29.000Z</time>
        <extensions>
          <ns3:TrackPointExtension>
            <ns3:hr>139</ns3:hr>
            <ns3:cad>53</ns3:cad>
          </ns3:TrackPointExtension>
        </extensions>
      </trkpt>
      <trkpt lat="45.30182671733200550079345703125" lon="-70.90249034576117992401123046875">
        <ele>620.4000244140625</ele>
        <time>2026-08-21T15:50:30.000Z</time>
        <extensions>
          <ns3:TrackPointExtension>
            <ns3:hr>139</ns3:hr>
            <ns3:cad>53</ns3:cad>
          </ns3:TrackPointExtension>
        </extensions>
      </trkpt>
      <trkpt lat="45.3018402121961116790771484375" lon="-70.90248866938054561614990234375">
        <ele>620.4000244140625</ele>
        <time>2026-08-21T15:50:31.000Z</time>
        <extensions>
          <ns3:TrackPointExtension>
            <ns3:hr>138</ns3:hr>
            <ns3:cad>53</ns3:cad>
          </ns3:TrackPointExtension>
        </extensions>
      </trkpt>
      <trkpt lat="45.30185353942215442657470703125" lon="-70.9024929441511631011962890625">
        <ele>620.4000244140625</ele>
        <time>2026-08-21T15:50:32.000Z</time>
        <extensions>
          <ns3:TrackPointExtension>
            <ns3:hr>138</ns3:hr>
            <ns3:cad>57</ns3:cad>
          </ns3:TrackPointExtension>
        </extensions>
      </trkpt>
      <trkpt lat="45.3018697164952754974365234375" lon="-70.9024986438453197479248046875">
        <ele>620.4000244140625</ele>
        <time>2026-08-21T15:50:33.000Z</time>
        <extensions>
          <ns3:TrackPointExtension>
            <ns3:hr>137</ns3:hr>
            <ns3:cad>57</ns3:cad>
          </ns3:TrackPointExtension>
        </extensions>
      </trkpt>
      <trkpt lat="45.30188622884452342987060546875" lon="-70.9024996496737003326416015625">
        <ele>620.4000244140625</ele>
        <time>2026-08-21T15:50:34.000Z</time>
        <extensions>
          <ns3:TrackPointExtension>
            <ns3:hr>136</ns3:hr>
            <ns3:cad>59</ns3:cad>
          </ns3:TrackPointExtension>
        </extensions>
      </trkpt>
      <trkpt lat="45.3019027411937713623046875" lon="-70.90249587781727313995361328125">
        <ele>620.4000244140625</ele>
        <time>2026-08-21T15:50:35.000Z</time>
        <extensions>
          <ns3:TrackPointExtension>
            <ns3:hr>135</ns3:hr>
            <ns3:cad>59</ns3:cad>
          </ns3:TrackPointExtension>
        </extensions>
      </trkpt>
      <trkpt lat="45.30191623605787754058837890625" lon="-70.90249822475016117095947265625">
        <ele>620.4000244140625</ele>
        <time>2026-08-21T15:50:36.000Z</time>
        <extensions>
          <ns3:TrackPointExtension>
            <ns3:hr>134</ns3:hr>
            <ns3:cad>59</ns3:cad>
          </ns3:TrackPointExtension>
        </extensions>
      </trkpt>
      <trkpt lat="45.30192931182682514190673828125" lon="-70.90249872766435146331787109375">
        <ele>620.4000244140625</ele>
        <time>2026-08-21T15:50:37.000Z</time>
        <extensions>
          <ns3:TrackPointExtension>
            <ns3:hr>135</ns3:hr>
            <ns3:cad>57</ns3:cad>
          </ns3:TrackPointExtension>
        </extensions>
      </trkpt>
      <trkpt lat="45.3019475005567073822021484375" lon="-70.9025006555020809173583984375">
        <ele>620.4000244140625</ele>
        <time>2026-08-21T15:50:38.000Z</time>
        <extensions>
          <ns3:TrackPointExtension>
            <ns3:hr>135</ns3:hr>
            <ns3:cad>57</ns3:cad>
          </ns3:TrackPointExtension>
        </extensions>
      </trkpt>
      <trkpt lat="45.301965437829494476318359375" lon="-70.90250124223530292510986328125">
        <ele>620.4000244140625</ele>
        <time>2026-08-21T15:50:39.000Z</time>
        <extensions>
          <ns3:TrackPointExtension>
            <ns3:hr>135</ns3:hr>
            <ns3:cad>57</ns3:cad>
          </ns3:TrackPointExtension>
        </extensions>
      </trkpt>
      <trkpt lat="45.30198312364518642425537109375" lon="-70.90250090695917606353759765625">
        <ele>620.20001220703125</ele>
        <time>2026-08-21T15:50:40.000Z</time>
        <extensions>
          <ns3:TrackPointExtension>
            <ns3:hr>135</ns3:hr>
            <ns3:cad>57</ns3:cad>
          </ns3:TrackPointExtension>
        </extensions>
      </trkpt>
      <trkpt lat="45.3020001389086246490478515625" lon="-70.90249436907470226287841796875">
        <ele>620.20001220703125</ele>
        <time>2026-08-21T15:50:41.000Z</time>
        <extensions>
          <ns3:TrackPointExtension>
            <ns3:hr>135</ns3:hr>
            <ns3:cad>57</ns3:cad>
          </ns3:TrackPointExtension>
        </extensions>
      </trkpt>
      <trkpt lat="45.30201849527657032012939453125" lon="-70.9024865739047527313232421875">
        <ele>620.20001220703125</ele>
        <time>2026-08-21T15:50:42.000Z</time>
        <extensions>
          <ns3:TrackPointExtension>
            <ns3:hr>136</ns3:hr>
            <ns3:cad>58</ns3:cad>
          </ns3:TrackPointExtension>
        </extensions>
      </trkpt>
      <trkpt lat="45.302033834159374237060546875" lon="-70.90247760526835918426513671875">
        <ele>620.20001220703125</ele>
        <time>2026-08-21T15:50:43.000Z</time>
        <extensions>
          <ns3:TrackPointExtension>
            <ns3:hr>136</ns3:hr>
            <ns3:cad>58</ns3:cad>
          </ns3:TrackPointExtension>
        </extensions>
      </trkpt>
      <trkpt lat="45.30204816721379756927490234375" lon="-70.902468971908092498779296875">
        <ele>620.20001220703125</ele>
        <time>2026-08-21T15:50:44.000Z</time>
        <extensions>
          <ns3:TrackPointExtension>
            <ns3:hr>136</ns3:hr>
            <ns3:cad>60</ns3:cad>
          </ns3:TrackPointExtension>
        </extensions>
      </trkpt>
      <trkpt lat="45.3020618297159671783447265625" lon="-70.90246184729039669036865234375">
        <ele>620.20001220703125</ele>
        <time>2026-08-21T15:50:45.000Z</time>
        <extensions>
          <ns3:TrackPointExtension>
            <ns3:hr>136</ns3:hr>
            <ns3:cad>59</ns3:cad>
          </ns3:TrackPointExtension>
        </extensions>
      </trkpt>
      <trkpt lat="45.30207700096070766448974609375" lon="-70.90244852006435394287109375">
        <ele>620.20001220703125</ele>
        <time>2026-08-21T15:50:46.000Z</time>
        <extensions>
          <ns3:TrackPointExtension>
            <ns3:hr>136</ns3:hr>
            <ns3:cad>59</ns3:cad>
          </ns3:TrackPointExtension>
        </extensions>
      </trkpt>
      <trkpt lat="45.302090831100940704345703125" lon="-70.902435444295406341552734375">
        <ele>620.20001220703125</ele>
        <time>2026-08-21T15:50:47.000Z</time>
        <extensions>
          <ns3:TrackPointExtension>
            <ns3:hr>136</ns3:hr>
            <ns3:cad>57</ns3:cad>
          </ns3:TrackPointExtension>
        </extensions>
      </trkpt>
      <trkpt lat="45.3021094389259815216064453125" lon="-70.90243016369640827178955078125">
        <ele>620.20001220703125</ele>
        <time>2026-08-21T15:50:48.000Z</time>
        <extensions>
          <ns3:TrackPointExtension>
            <ns3:hr>136</ns3:hr>
            <ns3:cad>57</ns3:cad>
          </ns3:TrackPointExtension>
        </extensions>
      </trkpt>
      <trkpt lat="45.3021231852471828460693359375" lon="-70.902434103190898895263671875">
        <ele>620</ele>
        <time>2026-08-21T15:50:49.000Z</time>
        <extensions>
          <ns3:TrackPointExtension>
            <ns3:hr>136</ns3:hr>
            <ns3:cad>57</ns3:cad>
          </ns3:TrackPointExtension>
        </extensions>
      </trkpt>
      <trkpt lat="45.30213668011128902435302734375" lon="-70.90242831967771053314208984375">
        <ele>620</ele>
        <time>2026-08-21T15:50:50.000Z</time>
        <extensions>
          <ns3:TrackPointExtension>
            <ns3:hr>136</ns3:hr>
            <ns3:cad>57</ns3:cad>
          </ns3:TrackPointExtension>
        </extensions>
      </trkpt>
      <trkpt lat="45.30214690603315830230712890625" lon="-70.902424715459346771240234375">
        <ele>620.20001220703125</ele>
        <time>2026-08-21T15:50:51.000Z</time>
        <extensions>
          <ns3:TrackPointExtension>
            <ns3:hr>136</ns3:hr>
            <ns3:cad>58</ns3:cad>
          </ns3:TrackPointExtension>
        </extensions>
      </trkpt>
      <trkpt lat="45.3021577186882495880126953125" lon="-70.90241842903196811676025390625">
        <ele>620.20001220703125</ele>
        <time>2026-08-21T15:50:52.000Z</time>
        <extensions>
          <ns3:TrackPointExtension>
            <ns3:hr>136</ns3:hr>
            <ns3:cad>58</ns3:cad>
          </ns3:TrackPointExtension>
        </extensions>
      </trkpt>
      <trkpt lat="45.30217171646654605865478515625" lon="-70.90239814482629299163818359375">
        <ele>620.20001220703125</ele>
        <time>2026-08-21T15:50:53.000Z</time>
        <extensions>
          <ns3:TrackPointExtension>
            <ns3:hr>136</ns3:hr>
            <ns3:cad>58</ns3:cad>
          </ns3:TrackPointExtension>
        </extensions>
      </trkpt>
      <trkpt lat="45.302180014550685882568359375" lon="-70.902375765144824981689453125">
        <ele>620.20001220703125</ele>
        <time>2026-08-21T15:50:54.000Z</time>
        <extensions>
          <ns3:TrackPointExtension>
            <ns3:hr>135</ns3:hr>
            <ns3:cad>58</ns3:cad>
          </ns3:TrackPointExtension>
        </extensions>
      </trkpt>
      <trkpt lat="45.302187390625476837158203125" lon="-70.90235707350075244903564453125">
        <ele>620</ele>
        <time>2026-08-21T15:50:55.000Z</time>
        <extensions>
          <ns3:TrackPointExtension>
            <ns3:hr>135</ns3:hr>
            <ns3:cad>58</ns3:cad>
          </ns3:TrackPointExtension>
        </extensions>
      </trkpt>
      <trkpt lat="45.30219887383282184600830078125" lon="-70.90232673101127147674560546875">
        <ele>620</ele>
        <time>2026-08-21T15:50:56.000Z</time>
        <extensions>
          <ns3:TrackPointExtension>
            <ns3:hr>134</ns3:hr>
            <ns3:cad>58</ns3:cad>
          </ns3:TrackPointExtension>
        </extensions>
      </trkpt>
      <trkpt lat="45.302206166088581085205078125" lon="-70.90230460278689861297607421875">
        <ele>620</ele>
        <time>2026-08-21T15:50:57.000Z</time>
        <extensions>
          <ns3:TrackPointExtension>
            <ns3:hr>134</ns3:hr>
            <ns3:cad>58</ns3:cad>
          </ns3:TrackPointExtension>
        </extensions>
      </trkpt>
      <trkpt lat="45.30221831984817981719970703125" lon="-70.90229772962629795074462890625">
        <ele>620</ele>
        <time>2026-08-21T15:50:58.000Z</time>
        <extensions>
          <ns3:TrackPointExtension>
            <ns3:hr>133</ns3:hr>
            <ns3:cad>58</ns3:cad>
          </ns3:TrackPointExtension>
        </extensions>
      </trkpt>
      <trkpt lat="45.30223466455936431884765625" lon="-70.9022850729525089263916015625">
        <ele>620</ele>
        <time>2026-08-21T15:50:59.000Z</time>
        <extensions>
          <ns3:TrackPointExtension>
            <ns3:hr>133</ns3:hr>
            <ns3:cad>58</ns3:cad>
          </ns3:TrackPointExtension>
        </extensions>
      </trkpt>
      <trkpt lat="45.3022526018321514129638671875" lon="-70.90228146873414516448974609375">
        <ele>620.20001220703125</ele>
        <time>2026-08-21T15:51:00.000Z</time>
        <extensions>
          <ns3:TrackPointExtension>
            <ns3:hr>133</ns3:hr>
            <ns3:cad>58</ns3:cad>
          </ns3:TrackPointExtension>
        </extensions>
      </trkpt>
      <trkpt lat="45.30226995237171649932861328125" lon="-70.90228490531444549560546875">
        <ele>620.20001220703125</ele>
        <time>2026-08-21T15:51:01.000Z</time>
        <extensions>
          <ns3:TrackPointExtension>
            <ns3:hr>133</ns3:hr>
            <ns3:cad>58</ns3:cad>
          </ns3:TrackPointExtension>
        </extensions>
      </trkpt>
      <trkpt lat="45.3022831119596958160400390625" lon="-70.9022894315421581268310546875">
        <ele>620.20001220703125</ele>
        <time>2026-08-21T15:51:02.000Z</time>
        <extensions>
          <ns3:TrackPointExtension>
            <ns3:hr>134</ns3:hr>
            <ns3:cad>58</ns3:cad>
          </ns3:TrackPointExtension>
        </extensions>
      </trkpt>
      <trkpt lat="45.302298702299594879150390625" lon="-70.90230208821594715118408203125">
        <ele>620.20001220703125</ele>
        <time>2026-08-21T15:51:03.000Z</time>
        <extensions>
          <ns3:TrackPointExtension>
            <ns3:hr>132</ns3:hr>
            <ns3:cad>58</ns3:cad>
          </ns3:TrackPointExtension>
        </extensions>
      </trkpt>
      <trkpt lat="45.30231404118239879608154296875" lon="-70.90231080539524555206298828125">
        <ele>620.20001220703125</ele>
        <time>2026-08-21T15:51:04.000Z</time>
        <extensions>
          <ns3:TrackPointExtension>
            <ns3:hr>131</ns3:hr>
            <ns3:cad>58</ns3:cad>
          </ns3:TrackPointExtension>
        </extensions>
      </trkpt>
      <trkpt lat="45.30232862569391727447509765625" lon="-70.90232136659324169158935546875">
        <ele>620.20001220703125</ele>
        <time>2026-08-21T15:51:05.000Z</time>
        <extensions>
          <ns3:TrackPointExtension>
            <ns3:hr>130</ns3:hr>
            <ns3:cad>58</ns3:cad>
          </ns3:TrackPointExtension>
        </extensions>
      </trkpt>
      <trkpt lat="45.30234974808990955352783203125" lon="-70.90233125723898410797119140625">
        <ele>620</ele>
        <time>2026-08-21T15:51:06.000Z</time>
        <extensions>
          <ns3:TrackPointExtension>
            <ns3:hr>130</ns3:hr>
            <ns3:cad>77</ns3:cad>
          </ns3:TrackPointExtension>
        </extensions>
      </trkpt>
      <trkpt lat="45.3023721277713775634765625" lon="-70.902338214218616485595703125">
        <ele>620</ele>
        <time>2026-08-21T15:51:07.000Z</time>
        <extensions>
          <ns3:TrackPointExtension>
            <ns3:hr>131</ns3:hr>
            <ns3:cad>77</ns3:cad>
          </ns3:TrackPointExtension>
        </extensions>
      </trkpt>
      <trkpt lat="45.30239501036703586578369140625" lon="-70.9023460932075977325439453125">
        <ele>619.79998779296875</ele>
        <time>2026-08-21T15:51:08.000Z</time>
        <extensions>
          <ns3:TrackPointExtension>
            <ns3:hr>132</ns3:hr>
            <ns3:cad>77</ns3:cad>
          </ns3:TrackPointExtension>
        </extensions>
      </trkpt>
      <trkpt lat="45.30241428874433040618896484375" lon="-70.90235891751945018768310546875">
        <ele>619.79998779296875</ele>
        <time>2026-08-21T15:51:09.000Z</time>
        <extensions>
          <ns3:TrackPointExtension>
            <ns3:hr>133</ns3:hr>
            <ns3:cad>77</ns3:cad>
          </ns3:TrackPointExtension>
        </extensions>
      </trkpt>
      <trkpt lat="45.30243272893130779266357421875" lon="-70.9023665450513362884521484375">
        <ele>619.79998779296875</ele>
        <time>2026-08-21T15:51:10.000Z</time>
        <extensions>
          <ns3:TrackPointExtension>
            <ns3:hr>133</ns3:hr>
            <ns3:cad>77</ns3:cad>
          </ns3:TrackPointExtension>
        </extensions>
      </trkpt>
      <trkpt lat="45.30245083384215831756591796875" lon="-70.9023755975067615509033203125">
        <ele>620</ele>
        <time>2026-08-21T15:51:11.000Z</time>
        <extensions>
          <ns3:TrackPointExtension>
            <ns3:hr>134</ns3:hr>
            <ns3:cad>77</ns3:cad>
          </ns3:TrackPointExtension>
        </extensions>
      </trkpt>
      <trkpt lat="45.30247430317103862762451171875" lon="-70.9023846499621868133544921875">
        <ele>620</ele>
        <time>2026-08-21T15:51:12.000Z</time>
        <extensions>
          <ns3:TrackPointExtension>
            <ns3:hr>134</ns3:hr>
            <ns3:cad>77</ns3:cad>
          </ns3:TrackPointExtension>
        </extensions>
      </trkpt>
      <trkpt lat="45.3024901449680328369140625" lon="-70.90239294804632663726806640625">
        <ele>620</ele>
        <time>2026-08-21T15:51:13.000Z</time>
        <extensions>
          <ns3:TrackPointExtension>
            <ns3:hr>135</ns3:hr>
            <ns3:cad>77</ns3:cad>
          </ns3:TrackPointExtension>
        </extensions>
      </trkpt>
      <trkpt lat="45.30251101590692996978759765625" lon="-70.90239563025534152984619140625">
        <ele>620.20001220703125</ele>
        <time>2026-08-21T15:51:14.000Z</time>
        <extensions>
          <ns3:TrackPointExtension>
            <ns3:hr>135</ns3:hr>
            <ns3:cad>77</ns3:cad>
          </ns3:TrackPointExtension>
        </extensions>
      </trkpt>
      <trkpt lat="45.3025332279503345489501953125" lon="-70.9023906849324703216552734375">
        <ele>620</ele>
        <time>2026-08-21T15:51:15.000Z</time>
        <extensions>
          <ns3:TrackPointExtension>
            <ns3:hr>135</ns3:hr>
            <ns3:cad>77</ns3:cad>
          </ns3:TrackPointExtension>
        </extensions>
      </trkpt>
      <trkpt lat="45.30255627818405628204345703125" lon="-70.90239462442696094512939453125">
        <ele>619.79998779296875</ele>
        <time>2026-08-21T15:51:16.000Z</time>
        <extensions>
          <ns3:TrackPointExtension>
            <ns3:hr>135</ns3:hr>
            <ns3:cad>77</ns3:cad>
          </ns3:TrackPointExtension>
        </extensions>
      </trkpt>
      <trkpt lat="45.30258175916969776153564453125" lon="-70.90240451507270336151123046875">
        <ele>619.79998779296875</ele>
        <time>2026-08-21T15:51:17.000Z</time>
        <extensions>
          <ns3:TrackPointExtension>
            <ns3:hr>135</ns3:hr>
            <ns3:cad>77</ns3:cad>
          </ns3:TrackPointExtension>
        </extensions>
      </trkpt>
      <trkpt lat="45.302605144679546356201171875" lon="-70.9024094603955745697021484375">
        <ele>619.5999755859375</ele>
        <time>2026-08-21T15:51:18.000Z</time>
        <extensions>
          <ns3:TrackPointExtension>
            <ns3:hr>136</ns3:hr>
            <ns3:cad>78</ns3:cad>
          </ns3:TrackPointExtension>
        </extensions>
      </trkpt>
      <trkpt lat="45.3026242554187774658203125" lon="-70.90241071768105030059814453125">
        <ele>619.4000244140625</ele>
        <time>2026-08-21T15:51:19.000Z</time>
        <extensions>
          <ns3:TrackPointExtension>
            <ns3:hr>136</ns3:hr>
            <ns3:cad>79</ns3:cad>
          </ns3:TrackPointExtension>
        </extensions>
      </trkpt>
      <trkpt lat="45.30264512635767459869384765625" lon="-70.9024185128509998321533203125">
        <ele>619.4000244140625</ele>
        <time>2026-08-21T15:51:20.000Z</time>
        <extensions>
          <ns3:TrackPointExtension>
            <ns3:hr>136</ns3:hr>
            <ns3:cad>79</ns3:cad>
          </ns3:TrackPointExtension>
        </extensions>
      </trkpt>
      <trkpt lat="45.3026680089533329010009765625" lon="-70.902427732944488525390625">
        <ele>619.4000244140625</ele>
        <time>2026-08-21T15:51:21.000Z</time>
        <extensions>
          <ns3:TrackPointExtension>
            <ns3:hr>136</ns3:hr>
            <ns3:cad>79</ns3:cad>
          </ns3:TrackPointExtension>
        </extensions>
      </trkpt>
      <trkpt lat="45.30268820933997631072998046875" lon="-70.90243100188672542572021484375">
        <ele>619.5999755859375</ele>
        <time>2026-08-21T15:51:22.000Z</time>
        <extensions>
          <ns3:TrackPointExtension>
            <ns3:hr>136</ns3:hr>
            <ns3:cad>79</ns3:cad>
          </ns3:TrackPointExtension>
        </extensions>
      </trkpt>
      <trkpt lat="45.3027105890214443206787109375" lon="-70.90244072489440441131591796875">
        <ele>619.5999755859375</ele>
        <time>2026-08-21T15:51:23.000Z</time>
        <extensions>
          <ns3:TrackPointExtension>
            <ns3:hr>136</ns3:hr>
            <ns3:cad>79</ns3:cad>
          </ns3:TrackPointExtension>
        </extensions>
      </trkpt>
      <trkpt lat="45.302735902369022369384765625" lon="-70.90244986116886138916015625">
        <ele>619.5999755859375</ele>
        <time>2026-08-21T15:51:24.000Z</time>
        <extensions>
          <ns3:TrackPointExtension>
            <ns3:hr>136</ns3:hr>
            <ns3:cad>79</ns3:cad>
          </ns3:TrackPointExtension>
        </extensions>
      </trkpt>
      <trkpt lat="45.30275903642177581787109375" lon="-70.90246268548071384429931640625">
        <ele>619.4000244140625</ele>
        <time>2026-08-21T15:51:25.000Z</time>
        <extensions>
          <ns3:TrackPointExtension>
            <ns3:hr>136</ns3:hr>
            <ns3:cad>79</ns3:cad>
          </ns3:TrackPointExtension>
        </extensions>
      </trkpt>
      <trkpt lat="45.30278242193162441253662109375" lon="-70.90247022919356822967529296875">
        <ele>619.4000244140625</ele>
        <time>2026-08-21T15:51:26.000Z</time>
        <extensions>
          <ns3:TrackPointExtension>
            <ns3:hr>136</ns3:hr>
            <ns3:cad>79</ns3:cad>
          </ns3:TrackPointExtension>
        </extensions>
      </trkpt>
      <trkpt lat="45.3028068132698535919189453125" lon="-70.90247442014515399932861328125">
        <ele>619.20001220703125</ele>
        <time>2026-08-21T15:51:27.000Z</time>
        <extensions>
          <ns3:TrackPointExtension>
            <ns3:hr>136</ns3:hr>
            <ns3:cad>79</ns3:cad>
          </ns3:TrackPointExtension>
        </extensions>
      </trkpt>
      <trkpt lat="45.30282969586551189422607421875" lon="-70.90248011983931064605712890625">
        <ele>619.20001220703125</ele>
        <time>2026-08-21T15:51:28.000Z</time>
        <extensions>
          <ns3:TrackPointExtension>
            <ns3:hr>137</ns3:hr>
            <ns3:cad>79</ns3:cad>
          </ns3:TrackPointExtension>
        </extensions>
      </trkpt>
      <trkpt lat="45.3028500638902187347412109375" lon="-70.9024872444570064544677734375">
        <ele>619</ele>
        <time>2026-08-21T15:51:29.000Z</time>
        <extensions>
          <ns3:TrackPointExtension>
            <ns3:hr>137</ns3:hr>
            <ns3:cad>79</ns3:cad>
          </ns3:TrackPointExtension>
        </extensions>
      </trkpt>
      <trkpt lat="45.302871353924274444580078125" lon="-70.9024936147034168243408203125">
        <ele>619</ele>
        <time>2026-08-21T15:51:30.000Z</time>
        <extensions>
          <ns3:TrackPointExtension>
            <ns3:hr>137</ns3:hr>
            <ns3:cad>80</ns3:cad>
          </ns3:TrackPointExtension>
        </extensions>
      </trkpt>
      <trkpt lat="45.30288912355899810791015625" lon="-70.90250216424465179443359375">
        <ele>619</ele>
        <time>2026-08-21T15:51:31.000Z</time>
        <extensions>
          <ns3:TrackPointExtension>
            <ns3:hr>137</ns3:hr>
            <ns3:cad>80</ns3:cad>
          </ns3:TrackPointExtension>
        </extensions>
      </trkpt>
      <trkpt lat="45.30291217379271984100341796875" lon="-70.9025095403194427490234375">
        <ele>619</ele>
        <time>2026-08-21T15:51:32.000Z</time>
        <extensions>
          <ns3:TrackPointExtension>
            <ns3:hr>138</ns3:hr>
            <ns3:cad>80</ns3:cad>
          </ns3:TrackPointExtension>
        </extensions>
      </trkpt>
      <trkpt lat="45.3029355593025684356689453125" lon="-70.90252228081226348876953125">
        <ele>619</ele>
        <time>2026-08-21T15:51:33.000Z</time>
        <extensions>
          <ns3:TrackPointExtension>
            <ns3:hr>138</ns3:hr>
            <ns3:cad>80</ns3:cad>
          </ns3:TrackPointExtension>
        </extensions>
      </trkpt>
      <trkpt lat="45.3029586933553218841552734375" lon="-70.90253728441894054412841796875">
        <ele>619</ele>
        <time>2026-08-21T15:51:34.000Z</time>
        <extensions>
          <ns3:TrackPointExtension>
            <ns3:hr>138</ns3:hr>
            <ns3:cad>80</ns3:cad>
          </ns3:TrackPointExtension>
        </extensions>
      </trkpt>
      <trkpt lat="45.30298107303678989410400390625" lon="-70.9025439061224460601806640625">
        <ele>619</ele>
        <time>2026-08-21T15:51:35.000Z</time>
        <extensions>
          <ns3:TrackPointExtension>
            <ns3:hr>138</ns3:hr>
            <ns3:cad>80</ns3:cad>
          </ns3:TrackPointExtension>
        </extensions>
      </trkpt>
      <trkpt lat="45.303006805479526519775390625" lon="-70.90253409929573535919189453125">
        <ele>619</ele>
        <time>2026-08-21T15:51:36.000Z</time>
        <extensions>
          <ns3:TrackPointExtension>
            <ns3:hr>138</ns3:hr>
            <ns3:cad>80</ns3:cad>
          </ns3:TrackPointExtension>
        </extensions>
      </trkpt>
      <trkpt lat="45.303026922047138214111328125" lon="-70.90252202935516834259033203125">
        <ele>618.79998779296875</ele>
        <time>2026-08-21T15:51:37.000Z</time>
        <extensions>
          <ns3:TrackPointExtension>
            <ns3:hr>139</ns3:hr>
            <ns3:cad>80</ns3:cad>
          </ns3:TrackPointExtension>
        </extensions>
      </trkpt>
      <trkpt lat="45.3030468709766864776611328125" lon="-70.90251616202294826507568359375">
        <ele>618.79998779296875</ele>
        <time>2026-08-21T15:51:38.000Z</time>
        <extensions>
          <ns3:TrackPointExtension>
            <ns3:hr>139</ns3:hr>
            <ns3:cad>79</ns3:cad>
          </ns3:TrackPointExtension>
        </extensions>
      </trkpt>
      <trkpt lat="45.3030686639249324798583984375" lon="-70.90250157751142978668212890625">
        <ele>618.79998779296875</ele>
        <time>2026-08-21T15:51:39.000Z</time>
        <extensions>
          <ns3:TrackPointExtension>
            <ns3:hr>139</ns3:hr>
            <ns3:cad>79</ns3:cad>
          </ns3:TrackPointExtension>
        </extensions>
      </trkpt>
      <trkpt lat="45.30308626592159271240234375" lon="-70.9024882502853870391845703125">
        <ele>618.79998779296875</ele>
        <time>2026-08-21T15:51:40.000Z</time>
        <extensions>
          <ns3:TrackPointExtension>
            <ns3:hr>140</ns3:hr>
            <ns3:cad>79</ns3:cad>
          </ns3:TrackPointExtension>
        </extensions>
      </trkpt>
      <trkpt lat="45.3031045384705066680908203125" lon="-70.90248598717153072357177734375">
        <ele>618.79998779296875</ele>
        <time>2026-08-21T15:51:41.000Z</time>
        <extensions>
          <ns3:TrackPointExtension>
            <ns3:hr>140</ns3:hr>
            <ns3:cad>0</ns3:cad>
          </ns3:TrackPointExtension>
        </extensions>
      </trkpt>
      <trkpt lat="45.3031223081052303314208984375" lon="-70.9024785272777080535888671875">
        <ele>618.5999755859375</ele>
        <time>2026-08-21T15:51:42.000Z</time>
        <extensions>
          <ns3:TrackPointExtension>
            <ns3:hr>140</ns3:hr>
            <ns3:cad>0</ns3:cad>
          </ns3:TrackPointExtension>
        </extensions>
      </trkpt>
      <trkpt lat="45.3031380660831928253173828125" lon="-70.902469642460346221923828125">
        <ele>618.5999755859375</ele>
        <time>2026-08-21T15:51:43.000Z</time>
        <extensions>
          <ns3:TrackPointExtension>
            <ns3:hr>140</ns3:hr>
            <ns3:cad>0</ns3:cad>
          </ns3:TrackPointExtension>
        </extensions>
      </trkpt>
      <trkpt lat="45.30315198004245758056640625" lon="-70.902459919452667236328125">
        <ele>618.5999755859375</ele>
        <time>2026-08-21T15:51:44.000Z</time>
        <extensions>
          <ns3:TrackPointExtension>
            <ns3:hr>140</ns3:hr>
            <ns3:cad>0</ns3:cad>
          </ns3:TrackPointExtension>
        </extensions>
      </trkpt>
      <trkpt lat="45.3031608648598194122314453125" lon="-70.90245396830141544342041015625">
        <ele>618.5999755859375</ele>
        <time>2026-08-21T15:51:45.000Z</time>
        <extensions>
          <ns3:TrackPointExtension>
            <ns3:hr>140</ns3:hr>
            <ns3:cad>0</ns3:cad>
          </ns3:TrackPointExtension>
        </extensions>
      </trkpt>
      <trkpt lat="45.30316731892526149749755859375" lon="-70.9024493582546710968017578125">
        <ele>618.5999755859375</ele>
        <time>2026-08-21T15:51:46.000Z</time>
        <extensions>
          <ns3:TrackPointExtension>
            <ns3:hr>140</ns3:hr>
            <ns3:cad>0</ns3:cad>
          </ns3:TrackPointExtension>
        </extensions>
      </trkpt>
      <trkpt lat="45.30317771248519420623779296875" lon="-70.90244391001760959625244140625">
        <ele>618.5999755859375</ele>
        <time>2026-08-21T15:51:47.000Z</time>
        <extensions>
          <ns3:TrackPointExtension>
            <ns3:hr>140</ns3:hr>
            <ns3:cad>0</ns3:cad>
          </ns3:TrackPointExtension>
        </extensions>
      </trkpt>
      <trkpt lat="45.303191877901554107666015625" lon="-70.90243435464799404144287109375">
        <ele>618.79998779296875</ele>
        <time>2026-08-21T15:51:48.000Z</time>
        <extensions>
          <ns3:TrackPointExtension>
            <ns3:hr>141</ns3:hr>
            <ns3:cad>0</ns3:cad>
          </ns3:TrackPointExtension>
        </extensions>
      </trkpt>
      <trkpt lat="45.30320939607918262481689453125" lon="-70.90242178179323673248291015625">
        <ele>618.79998779296875</ele>
        <time>2026-08-21T15:51:49.000Z</time>
        <extensions>
          <ns3:TrackPointExtension>
            <ns3:hr>141</ns3:hr>
            <ns3:cad>0</ns3:cad>
          </ns3:TrackPointExtension>
        </extensions>
      </trkpt>
      <trkpt lat="45.303222052752971649169921875" lon="-70.9024144895374774932861328125">
        <ele>618.79998779296875</ele>
        <time>2026-08-21T15:51:50.000Z</time>
        <extensions>
          <ns3:TrackPointExtension>
            <ns3:hr>141</ns3:hr>
            <ns3:cad>66</ns3:cad>
          </ns3:TrackPointExtension>
        </extensions>
      </trkpt>
      <trkpt lat="45.30323705635964870452880859375" lon="-70.902411304414272308349609375">
        <ele>618.79998779296875</ele>
        <time>2026-08-21T15:51:51.000Z</time>
        <extensions>
          <ns3:TrackPointExtension>
            <ns3:hr>141</ns3:hr>
            <ns3:cad>66</ns3:cad>
          </ns3:TrackPointExtension>
        </extensions>
      </trkpt>
      <trkpt lat="45.30325382016599178314208984375" lon="-70.9024067781865596771240234375">
        <ele>618.79998779296875</ele>
        <time>2026-08-21T15:51:52.000Z</time>
        <extensions>
          <ns3:TrackPointExtension>
            <ns3:hr>141</ns3:hr>
            <ns3:cad>66</ns3:cad>
          </ns3:TrackPointExtension>
        </extensions>
      </trkpt>
      <trkpt lat="45.30327242799103260040283203125" lon="-70.9024030901491641998291015625">
        <ele>618.79998779296875</ele>
        <time>2026-08-21T15:51:53.000Z</time>
        <extensions>
          <ns3:TrackPointExtension>
            <ns3:hr>142</ns3:hr>
            <ns3:cad>66</ns3:cad>
          </ns3:TrackPointExtension>
        </extensions>
      </trkpt>
      <trkpt lat="45.3032896108925342559814453125" lon="-70.9024051018059253692626953125">
        <ele>618.79998779296875</ele>
        <time>2026-08-21T15:51:54.000Z</time>
        <extensions>
          <ns3:TrackPointExtension>
            <ns3:hr>141</ns3:hr>
            <ns3:cad>66</ns3:cad>
          </ns3:TrackPointExtension>
        </extensions>
      </trkpt>
      <trkpt lat="45.3033057041466236114501953125" lon="-70.9024007432162761688232421875">
        <ele>618.79998779296875</ele>
        <time>2026-08-21T15:51:55.000Z</time>
        <extensions>
          <ns3:TrackPointExtension>
            <ns3:hr>141</ns3:hr>
            <ns3:cad>66</ns3:cad>
          </ns3:TrackPointExtension>
        </extensions>
      </trkpt>
      <trkpt lat="45.30332498252391815185546875" lon="-70.9024027548730373382568359375">
        <ele>618.79998779296875</ele>
        <time>2026-08-21T15:51:56.000Z</time>
        <extensions>
          <ns3:TrackPointExtension>
            <ns3:hr>140</ns3:hr>
            <ns3:cad>66</ns3:cad>
          </ns3:TrackPointExtension>
        </extensions>
      </trkpt>
      <trkpt lat="45.30334166251122951507568359375" lon="-70.90240468271076679229736328125">
        <ele>618.5999755859375</ele>
        <time>2026-08-21T15:51:57.000Z</time>
        <extensions>
          <ns3:TrackPointExtension>
            <ns3:hr>140</ns3:hr>
            <ns3:cad>76</ns3:cad>
          </ns3:TrackPointExtension>
        </extensions>
      </trkpt>
      <trkpt lat="45.30336010269820690155029296875" lon="-70.90240250341594219207763671875">
        <ele>618.5999755859375</ele>
        <time>2026-08-21T15:51:58.000Z</time>
        <extensions>
          <ns3:TrackPointExtension>
            <ns3:hr>139</ns3:hr>
            <ns3:cad>76</ns3:cad>
          </ns3:TrackPointExtension>
        </extensions>
      </trkpt>
      <trkpt lat="45.3033784590661525726318359375" lon="-70.90239043347537517547607421875">
        <ele>618.5999755859375</ele>
        <time>2026-08-21T15:51:59.000Z</time>
        <extensions>
          <ns3:TrackPointExtension>
            <ns3:hr>139</ns3:hr>
            <ns3:cad>76</ns3:cad>
          </ns3:TrackPointExtension>
        </extensions>
      </trkpt>
      <trkpt lat="45.3033968992531299591064453125" lon="-70.9023786149919033050537109375">
        <ele>618.5999755859375</ele>
        <time>2026-08-21T15:52:00.000Z</time>
        <extensions>
          <ns3:TrackPointExtension>
            <ns3:hr>139</ns3:hr>
            <ns3:cad>75</ns3:cad>
          </ns3:TrackPointExtension>
        </extensions>
      </trkpt>
      <trkpt lat="45.3034139983355998992919921875" lon="-70.902365706861019134521484375">
        <ele>618.5999755859375</ele>
        <time>2026-08-21T15:52:01.000Z</time>
        <extensions>
          <ns3:TrackPointExtension>
            <ns3:hr>140</ns3:hr>
            <ns3:cad>75</ns3:cad>
          </ns3:TrackPointExtension>
        </extensions>
      </trkpt>
      <trkpt lat="45.303431265056133270263671875" lon="-70.902352295815944671630859375">
        <ele>618.4000244140625</ele>
        <time>2026-08-21T15:52:02.000Z</time>
        <extensions>
          <ns3:TrackPointExtension>
            <ns3:hr>140</ns3:hr>
            <ns3:cad>75</ns3:cad>
          </ns3:TrackPointExtension>
        </extensions>
      </trkpt>
      <trkpt lat="45.303452052175998687744140625" lon="-70.90234030969440937042236328125">
        <ele>618.4000244140625</ele>
        <time>2026-08-21T15:52:03.000Z</time>
        <extensions>
          <ns3:TrackPointExtension>
            <ns3:hr>140</ns3:hr>
            <ns3:cad>75</ns3:cad>
          </ns3:TrackPointExtension>
        </extensions>
      </trkpt>
      <trkpt lat="45.3034753538668155670166015625" lon="-70.90232438407838344573974609375">
        <ele>618.20001220703125</ele>
        <time>2026-08-21T15:52:04.000Z</time>
        <extensions>
          <ns3:TrackPointExtension>
            <ns3:hr>140</ns3:hr>
            <ns3:cad>75</ns3:cad>
          </ns3:TrackPointExtension>
        </extensions>
      </trkpt>
      <trkpt lat="45.30349664390087127685546875" lon="-70.90231172740459442138671875">
        <ele>618.20001220703125</ele>
        <time>2026-08-21T15:52:05.000Z</time>
        <extensions>
          <ns3:TrackPointExtension>
            <ns3:hr>140</ns3:hr>
            <ns3:cad>75</ns3:cad>
          </ns3:TrackPointExtension>
        </extensions>
      </trkpt>
      <trkpt lat="45.30351751483976840972900390625" lon="-70.9023021720349788665771484375">
        <ele>618</ele>
        <time>2026-08-21T15:52:06.000Z</time>
        <extensions>
          <ns3:TrackPointExtension>
            <ns3:hr>141</ns3:hr>
            <ns3:cad>75</ns3:cad>
          </ns3:TrackPointExtension>
        </extensions>
      </trkpt>
      <trkpt lat="45.3035360388457775115966796875" lon="-70.90229253284633159637451171875">
        <ele>617.79998779296875</ele>
        <time>2026-08-21T15:52:07.000Z</time>
        <extensions>
          <ns3:TrackPointExtension>
            <ns3:hr>140</ns3:hr>
            <ns3:cad>74</ns3:cad>
          </ns3:TrackPointExtension>
        </extensions>
      </trkpt>
      <trkpt lat="45.3035524673759937286376953125" lon="-70.90228130109608173370361328125">
        <ele>617.79998779296875</ele>
        <time>2026-08-21T15:52:08.000Z</time>
        <extensions>
          <ns3:TrackPointExtension>
            <ns3:hr>140</ns3:hr>
            <ns3:cad>74</ns3:cad>
          </ns3:TrackPointExtension>
        </extensions>
      </trkpt>
      <trkpt lat="45.30356780625879764556884765625" lon="-70.90227610431611537933349609375">
        <ele>617.5999755859375</ele>
        <time>2026-08-21T15:52:09.000Z</time>
        <extensions>
          <ns3:TrackPointExtension>
            <ns3:hr>140</ns3:hr>
            <ns3:cad>74</ns3:cad>
          </ns3:TrackPointExtension>
        </extensions>
      </trkpt>
      <trkpt lat="45.30358188785612583160400390625" lon="-70.90227057226002216339111328125">
        <ele>617.4000244140625</ele>
        <time>2026-08-21T15:52:10.000Z</time>
        <extensions>
          <ns3:TrackPointExtension>
            <ns3:hr>140</ns3:hr>
            <ns3:cad>73</ns3:cad>
          </ns3:TrackPointExtension>
        </extensions>
      </trkpt>
      <trkpt lat="45.30359546653926372528076171875" lon="-70.90226076543331146240234375">
        <ele>617.20001220703125</ele>
        <time>2026-08-21T15:52:11.000Z</time>
        <extensions>
          <ns3:TrackPointExtension>
            <ns3:hr>140</ns3:hr>
            <ns3:cad>73</ns3:cad>
          </ns3:TrackPointExtension>
        </extensions>
      </trkpt>
      <trkpt lat="45.30361038632690906524658203125" lon="-70.9022518806159496307373046875">
        <ele>617.20001220703125</ele>
        <time>2026-08-21T15:52:12.000Z</time>
        <extensions>
          <ns3:TrackPointExtension>
            <ns3:hr>140</ns3:hr>
            <ns3:cad>70</ns3:cad>
          </ns3:TrackPointExtension>
        </extensions>
      </trkpt>
      <trkpt lat="45.3036245517432689666748046875" lon="-70.90224844403564929962158203125">
        <ele>617.4000244140625</ele>
        <time>2026-08-21T15:52:13.000Z</time>
        <extensions>
          <ns3:TrackPointExtension>
            <ns3:hr>140</ns3:hr>
            <ns3:cad>70</ns3:cad>
          </ns3:TrackPointExtension>
        </extensions>
      </trkpt>
      <trkpt lat="45.30363804660737514495849609375" lon="-70.90224509127438068389892578125">
        <ele>617.5999755859375</ele>
        <time>2026-08-21T15:52:14.000Z</time>
        <extensions>
          <ns3:TrackPointExtension>
            <ns3:hr>141</ns3:hr>
            <ns3:cad>0</ns3:cad>
          </ns3:TrackPointExtension>
        </extensions>
      </trkpt>
      <trkpt lat="45.3036569058895111083984375" lon="-70.90224240906536579132080078125">
        <ele>617.5999755859375</ele>
        <time>2026-08-21T15:52:15.000Z</time>
        <extensions>
          <ns3:TrackPointExtension>
            <ns3:hr>141</ns3:hr>
            <ns3:cad>0</ns3:cad>
          </ns3:TrackPointExtension>
        </extensions>
      </trkpt>
      <trkpt lat="45.30366771854460239410400390625" lon="-70.90223654173314571380615234375">
        <ele>617.79998779296875</ele>
        <time>2026-08-21T15:52:16.000Z</time>
        <extensions>
          <ns3:TrackPointExtension>
            <ns3:hr>141</ns3:hr>
            <ns3:cad>0</ns3:cad>
          </ns3:TrackPointExtension>
        </extensions>
      </trkpt>
      <trkpt lat="45.303682051599025726318359375" lon="-70.902228243649005889892578125">
        <ele>617.79998779296875</ele>
        <time>2026-08-21T15:52:17.000Z</time>
        <extensions>
          <ns3:TrackPointExtension>
            <ns3:hr>141</ns3:hr>
            <ns3:cad>58</ns3:cad>
          </ns3:TrackPointExtension>
        </extensions>
      </trkpt>
      <trkpt lat="45.3036959655582904815673828125" lon="-70.9022230468690395355224609375">
        <ele>617.79998779296875</ele>
        <time>2026-08-21T15:52:18.000Z</time>
        <extensions>
          <ns3:TrackPointExtension>
            <ns3:hr>140</ns3:hr>
            <ns3:cad>58</ns3:cad>
          </ns3:TrackPointExtension>
        </extensions>
      </trkpt>
      <trkpt lat="45.30370996333658695220947265625" lon="-70.90222145430743694305419921875">
        <ele>617.79998779296875</ele>
        <time>2026-08-21T15:52:19.000Z</time>
        <extensions>
          <ns3:TrackPointExtension>
            <ns3:hr>140</ns3:hr>
            <ns3:cad>58</ns3:cad>
          </ns3:TrackPointExtension>
        </extensions>
      </trkpt>
      <trkpt lat="45.3037254698574542999267578125" lon="-70.90221944265067577362060546875">
        <ele>617.5999755859375</ele>
        <time>2026-08-21T15:52:20.000Z</time>
        <extensions>
          <ns3:TrackPointExtension>
            <ns3:hr>139</ns3:hr>
            <ns3:cad>55</ns3:cad>
          </ns3:TrackPointExtension>
        </extensions>
      </trkpt>
      <trkpt lat="45.30374030582606792449951171875" lon="-70.902217514812946319580078125">
        <ele>617.5999755859375</ele>
        <time>2026-08-21T15:52:21.000Z</time>
        <extensions>
          <ns3:TrackPointExtension>
            <ns3:hr>139</ns3:hr>
            <ns3:cad>55</ns3:cad>
          </ns3:TrackPointExtension>
        </extensions>
      </trkpt>
      <trkpt lat="45.30375572852790355682373046875" lon="-70.90221424587070941925048828125">
        <ele>617.79998779296875</ele>
        <time>2026-08-21T15:52:22.000Z</time>
        <extensions>
          <ns3:TrackPointExtension>
            <ns3:hr>139</ns3:hr>
            <ns3:cad>57</ns3:cad>
          </ns3:TrackPointExtension>
        </extensions>
      </trkpt>
      <trkpt lat="45.303771905601024627685546875" lon="-70.9022106416523456573486328125">
        <ele>617.79998779296875</ele>
        <time>2026-08-21T15:52:23.000Z</time>
        <extensions>
          <ns3:TrackPointExtension>
            <ns3:hr>140</ns3:hr>
            <ns3:cad>57</ns3:cad>
          </ns3:TrackPointExtension>
        </extensions>
      </trkpt>
      <trkpt lat="45.30378724448382854461669921875" lon="-70.90220821090042591094970703125">
        <ele>617.79998779296875</ele>
        <time>2026-08-21T15:52:24.000Z</time>
        <extensions>
          <ns3:TrackPointExtension>
            <ns3:hr>140</ns3:hr>
            <ns3:cad>59</ns3:cad>
          </ns3:TrackPointExtension>
        </extensions>
      </trkpt>
      <trkpt lat="45.3038025833666324615478515625" lon="-70.9022109769284725189208984375">
        <ele>617.79998779296875</ele>
        <time>2026-08-21T15:52:25.000Z</time>
        <extensions>
          <ns3:TrackPointExtension>
            <ns3:hr>139</ns3:hr>
            <ns3:cad>59</ns3:cad>
          </ns3:TrackPointExtension>
        </extensions>
      </trkpt>
      <trkpt lat="45.30381775461137294769287109375" lon="-70.90221441350877285003662109375">
        <ele>617.79998779296875</ele>
        <time>2026-08-21T15:52:26.000Z</time>
        <extensions>
          <ns3:TrackPointExtension>
            <ns3:hr>139</ns3:hr>
            <ns3:cad>57</ns3:cad>
          </ns3:TrackPointExtension>
        </extensions>
      </trkpt>
      <trkpt lat="45.303832590579986572265625" lon="-70.902214832603931427001953125">
        <ele>617.5999755859375</ele>
        <time>2026-08-21T15:52:27.000Z</time>
        <extensions>
          <ns3:TrackPointExtension>
            <ns3:hr>138</ns3:hr>
            <ns3:cad>56</ns3:cad>
          </ns3:TrackPointExtension>
        </extensions>
      </trkpt>
      <trkpt lat="45.30384725891053676605224609375" lon="-70.90221458114683628082275390625">
        <ele>617.5999755859375</ele>
        <time>2026-08-21T15:52:28.000Z</time>
        <extensions>
          <ns3:TrackPointExtension>
            <ns3:hr>138</ns3:hr>
            <ns3:cad>56</ns3:cad>
          </ns3:TrackPointExtension>
        </extensions>
      </trkpt>
      <trkpt lat="45.30385932885110378265380859375" lon="-70.90222162194550037384033203125">
        <ele>617.4000244140625</ele>
        <time>2026-08-21T15:52:29.000Z</time>
        <extensions>
          <ns3:TrackPointExtension>
            <ns3:hr>138</ns3:hr>
            <ns3:cad>56</ns3:cad>
          </ns3:TrackPointExtension>
        </extensions>
      </trkpt>
      <trkpt lat="45.30387206934392452239990234375" lon="-70.90223050676286220550537109375">
        <ele>617.4000244140625</ele>
        <time>2026-08-21T15:52:30.000Z</time>
        <extensions>
          <ns3:TrackPointExtension>
            <ns3:hr>138</ns3:hr>
            <ns3:cad>56</ns3:cad>
          </ns3:TrackPointExtension>
        </extensions>
      </trkpt>
      <trkpt lat="45.30388514511287212371826171875" lon="-70.90223729610443115234375">
        <ele>617.4000244140625</ele>
        <time>2026-08-21T15:52:31.000Z</time>
        <extensions>
          <ns3:TrackPointExtension>
            <ns3:hr>138</ns3:hr>
            <ns3:cad>57</ns3:cad>
          </ns3:TrackPointExtension>
        </extensions>
      </trkpt>
      <trkpt lat="45.30389855615794658660888671875" lon="-70.9022441692650318145751953125">
        <ele>617.4000244140625</ele>
        <time>2026-08-21T15:52:32.000Z</time>
        <extensions>
          <ns3:TrackPointExtension>
            <ns3:hr>137</ns3:hr>
            <ns3:cad>59</ns3:cad>
          </ns3:TrackPointExtension>
        </extensions>
      </trkpt>
      <trkpt lat="45.30391297303140163421630859375" lon="-70.90224861167371273040771484375">
        <ele>617.4000244140625</ele>
        <time>2026-08-21T15:52:33.000Z</time>
        <extensions>
          <ns3:TrackPointExtension>
            <ns3:hr>138</ns3:hr>
            <ns3:cad>59</ns3:cad>
          </ns3:TrackPointExtension>
        </extensions>
      </trkpt>
      <trkpt lat="45.30392722226679325103759765625" lon="-70.90224978514015674591064453125">
        <ele>617.4000244140625</ele>
        <time>2026-08-21T15:52:34.000Z</time>
        <extensions>
          <ns3:TrackPointExtension>
            <ns3:hr>138</ns3:hr>
            <ns3:cad>57</ns3:cad>
          </ns3:TrackPointExtension>
        </extensions>
      </trkpt>
      <trkpt lat="45.3039412200450897216796875" lon="-70.902252383530139923095703125">
        <ele>617.4000244140625</ele>
        <time>2026-08-21T15:52:35.000Z</time>
        <extensions>
          <ns3:TrackPointExtension>
            <ns3:hr>137</ns3:hr>
            <ns3:cad>57</ns3:cad>
          </ns3:TrackPointExtension>
        </extensions>
      </trkpt>
      <trkpt lat="45.3039531223475933074951171875" lon="-70.90225732885301113128662109375">
        <ele>617.4000244140625</ele>
        <time>2026-08-21T15:52:36.000Z</time>
        <extensions>
          <ns3:TrackPointExtension>
            <ns3:hr>137</ns3:hr>
            <ns3:cad>55</ns3:cad>
          </ns3:TrackPointExtension>
        </extensions>
      </trkpt>
      <trkpt lat="45.303966701030731201171875" lon="-70.90226202271878719329833984375">
        <ele>617.4000244140625</ele>
        <time>2026-08-21T15:52:37.000Z</time>
        <extensions>
          <ns3:TrackPointExtension>
            <ns3:hr>137</ns3:hr>
            <ns3:cad>55</ns3:cad>
          </ns3:TrackPointExtension>
        </extensions>
      </trkpt>
      <trkpt lat="45.3039789386093616485595703125" lon="-70.90226571075618267059326171875">
        <ele>617.20001220703125</ele>
        <time>2026-08-21T15:52:38.000Z</time>
        <extensions>
          <ns3:TrackPointExtension>
            <ns3:hr>136</ns3:hr>
            <ns3:cad>55</ns3:cad>
          </ns3:TrackPointExtension>
        </extensions>
      </trkpt>
      <trkpt lat="45.30399260111153125762939453125" lon="-70.9022652916610240936279296875">
        <ele>617.20001220703125</ele>
        <time>2026-08-21T15:52:39.000Z</time>
        <extensions>
          <ns3:TrackPointExtension>
            <ns3:hr>136</ns3:hr>
            <ns3:cad>56</ns3:cad>
          </ns3:TrackPointExtension>
        </extensions>
      </trkpt>
      <trkpt lat="45.3040071018040180206298828125" lon="-70.90226202271878719329833984375">
        <ele>617</ele>
        <time>2026-08-21T15:52:40.000Z</time>
        <extensions>
          <ns3:TrackPointExtension>
            <ns3:hr>136</ns3:hr>
            <ns3:cad>56</ns3:cad>
          </ns3:TrackPointExtension>
        </extensions>
      </trkpt>
      <trkpt lat="45.30402177013456821441650390625" lon="-70.90225649066269397735595703125">
        <ele>617</ele>
        <time>2026-08-21T15:52:41.000Z</time>
        <extensions>
          <ns3:TrackPointExtension>
            <ns3:hr>136</ns3:hr>
            <ns3:cad>57</ns3:cad>
          </ns3:TrackPointExtension>
        </extensions>
      </trkpt>
      <trkpt lat="45.3040399588644504547119140625" lon="-70.9022505395114421844482421875">
        <ele>617</ele>
        <time>2026-08-21T15:52:42.000Z</time>
        <extensions>
          <ns3:TrackPointExtension>
            <ns3:hr>135</ns3:hr>
            <ns3:cad>57</ns3:cad>
          </ns3:TrackPointExtension>
        </extensions>
      </trkpt>
      <trkpt lat="45.30405186116695404052734375" lon="-70.90224509127438068389892578125">
        <ele>617</ele>
        <time>2026-08-21T15:52:43.000Z</time>
        <extensions>
          <ns3:TrackPointExtension>
            <ns3:hr>134</ns3:hr>
            <ns3:cad>57</ns3:cad>
          </ns3:TrackPointExtension>
        </extensions>
      </trkpt>
      <trkpt lat="45.304063260555267333984375" lon="-70.90224307961761951446533203125">
        <ele>617.20001220703125</ele>
        <time>2026-08-21T15:52:44.000Z</time>
        <extensions>
          <ns3:TrackPointExtension>
            <ns3:hr>134</ns3:hr>
            <ns3:cad>57</ns3:cad>
          </ns3:TrackPointExtension>
        </extensions>
      </trkpt>
      <trkpt lat="45.3040724806487560272216796875" lon="-70.9022434987127780914306640625">
        <ele>617.20001220703125</ele>
        <time>2026-08-21T15:52:45.000Z</time>
        <extensions>
          <ns3:TrackPointExtension>
            <ns3:hr>134</ns3:hr>
            <ns3:cad>57</ns3:cad>
          </ns3:TrackPointExtension>
        </extensions>
      </trkpt>
      <trkpt lat="45.30408195219933986663818359375" lon="-70.9022445045411586761474609375">
        <ele>617.20001220703125</ele>
        <time>2026-08-21T15:52:46.000Z</time>
        <extensions>
          <ns3:TrackPointExtension>
            <ns3:hr>134</ns3:hr>
            <ns3:cad>57</ns3:cad>
          </ns3:TrackPointExtension>
        </extensions>
      </trkpt>
      <trkpt lat="45.30409402213990688323974609375" lon="-70.90224358253180980682373046875">
        <ele>617</ele>
        <time>2026-08-21T15:52:47.000Z</time>
        <extensions>
          <ns3:TrackPointExtension>
            <ns3:hr>134</ns3:hr>
            <ns3:cad>57</ns3:cad>
          </ns3:TrackPointExtension>
        </extensions>
      </trkpt>
      <trkpt lat="45.30409972183406352996826171875" lon="-70.90223687700927257537841796875">
        <ele>617</ele>
        <time>2026-08-21T15:52:48.000Z</time>
        <extensions>
          <ns3:TrackPointExtension>
            <ns3:hr>134</ns3:hr>
            <ns3:cad>0</ns3:cad>
          </ns3:TrackPointExtension>
        </extensions>
      </trkpt>
      <trkpt lat="45.30410525389015674591064453125" lon="-70.9022284112870693206787109375">
        <ele>616.79998779296875</ele>
        <time>2026-08-21T15:52:49.000Z</time>
        <extensions>
          <ns3:TrackPointExtension>
            <ns3:hr>134</ns3:hr>
            <ns3:cad>0</ns3:cad>
          </ns3:TrackPointExtension>
        </extensions>
      </trkpt>
      <trkpt lat="45.3041100315749645233154296875" lon="-70.90222262777388095855712890625">
        <ele>616.79998779296875</ele>
        <time>2026-08-21T15:52:50.000Z</time>
        <extensions>
          <ns3:TrackPointExtension>
            <ns3:hr>134</ns3:hr>
            <ns3:cad>0</ns3:cad>
          </ns3:TrackPointExtension>
        </extensions>
      </trkpt>
      <trkpt lat="45.30412101186811923980712890625" lon="-70.90222095139324665069580078125">
        <ele>616.79998779296875</ele>
        <time>2026-08-21T15:52:51.000Z</time>
        <extensions>
          <ns3:TrackPointExtension>
            <ns3:hr>134</ns3:hr>
            <ns3:cad>0</ns3:cad>
          </ns3:TrackPointExtension>
        </extensions>
      </trkpt>
      <trkpt lat="45.30413324944674968719482421875" lon="-70.9022190235555171966552734375">
        <ele>616.79998779296875</ele>
        <time>2026-08-21T15:52:52.000Z</time>
        <extensions>
          <ns3:TrackPointExtension>
            <ns3:hr>134</ns3:hr>
            <ns3:cad>0</ns3:cad>
          </ns3:TrackPointExtension>
        </extensions>
      </trkpt>
      <trkpt lat="45.3041472472250461578369140625" lon="-70.90221625752747058868408203125">
        <ele>616.79998779296875</ele>
        <time>2026-08-21T15:52:53.000Z</time>
        <extensions>
          <ns3:TrackPointExtension>
            <ns3:hr>134</ns3:hr>
            <ns3:cad>0</ns3:cad>
          </ns3:TrackPointExtension>
        </extensions>
      </trkpt>
      <trkpt lat="45.30415772460401058197021484375" lon="-70.902204774320125579833984375">
        <ele>616.5999755859375</ele>
        <time>2026-08-21T15:52:54.000Z</time>
        <extensions>
          <ns3:TrackPointExtension>
            <ns3:hr>134</ns3:hr>
            <ns3:cad>0</ns3:cad>
          </ns3:TrackPointExtension>
        </extensions>
      </trkpt>
      <trkpt lat="45.30417121946811676025390625" lon="-70.90218742378056049346923828125">
        <ele>616.5999755859375</ele>
        <time>2026-08-21T15:52:55.000Z</time>
        <extensions>
          <ns3:TrackPointExtension>
            <ns3:hr>134</ns3:hr>
            <ns3:cad>0</ns3:cad>
          </ns3:TrackPointExtension>
        </extensions>
      </trkpt>
      <trkpt lat="45.30417951755225658416748046875" lon="-70.90218038298189640045166015625">
        <ele>616.79998779296875</ele>
        <time>2026-08-21T15:52:56.000Z</time>
        <extensions>
          <ns3:TrackPointExtension>
            <ns3:hr>133</ns3:hr>
            <ns3:cad>58</ns3:cad>
          </ns3:TrackPointExtension>
        </extensions>
      </trkpt>
      <trkpt lat="45.304190330207347869873046875" lon="-70.90217853896319866180419921875">
        <ele>616.79998779296875</ele>
        <time>2026-08-21T15:52:57.000Z</time>
        <extensions>
          <ns3:TrackPointExtension>
            <ns3:hr>133</ns3:hr>
            <ns3:cad>58</ns3:cad>
          </ns3:TrackPointExtension>
        </extensions>
      </trkpt>
      <trkpt lat="45.30419963411986827850341796875" lon="-70.90217401273548603057861328125">
        <ele>617</ele>
        <time>2026-08-21T15:52:58.000Z</time>
        <extensions>
          <ns3:TrackPointExtension>
            <ns3:hr>133</ns3:hr>
            <ns3:cad>58</ns3:cad>
          </ns3:TrackPointExtension>
        </extensions>
      </trkpt>
      <trkpt lat="45.30421011149883270263671875" lon="-70.902170240879058837890625">
        <ele>617.20001220703125</ele>
        <time>2026-08-21T15:52:59.000Z</time>
        <extensions>
          <ns3:TrackPointExtension>
            <ns3:hr>133</ns3:hr>
            <ns3:cad>58</ns3:cad>
          </ns3:TrackPointExtension>
        </extensions>
      </trkpt>
      <trkpt lat="45.30422679148614406585693359375" lon="-70.9021660499274730682373046875">
        <ele>617.4000244140625</ele>
        <time>2026-08-21T15:53:00.000Z</time>
        <extensions>
          <ns3:TrackPointExtension>
            <ns3:hr>134</ns3:hr>
            <ns3:cad>54</ns3:cad>
          </ns3:TrackPointExtension>
        </extensions>
      </trkpt>
      <trkpt lat="45.304238609969615936279296875" lon="-70.90216261334717273712158203125">
        <ele>617.4000244140625</ele>
        <time>2026-08-21T15:53:01.000Z</time>
        <extensions>
          <ns3:TrackPointExtension>
            <ns3:hr>133</ns3:hr>
            <ns3:cad>54</ns3:cad>
          </ns3:TrackPointExtension>
        </extensions>
      </trkpt>
      <trkpt lat="45.3042515181005001068115234375" lon="-70.90216043405234813690185546875">
        <ele>617.4000244140625</ele>
        <time>2026-08-21T15:53:02.000Z</time>
        <extensions>
          <ns3:TrackPointExtension>
            <ns3:hr>132</ns3:hr>
            <ns3:cad>54</ns3:cad>
          </ns3:TrackPointExtension>
        </extensions>
      </trkpt>
      <trkpt lat="45.3042629174888134002685546875" lon="-70.90216143988072872161865234375">
        <ele>617.4000244140625</ele>
        <time>2026-08-21T15:53:03.000Z</time>
        <extensions>
          <ns3:TrackPointExtension>
            <ns3:hr>132</ns3:hr>
            <ns3:cad>53</ns3:cad>
          </ns3:TrackPointExtension>
        </extensions>
      </trkpt>
      <trkpt lat="45.3042780049145221710205078125" lon="-70.90216496028006076812744140625">
        <ele>617.20001220703125</ele>
        <time>2026-08-21T15:53:04.000Z</time>
        <extensions>
          <ns3:TrackPointExtension>
            <ns3:hr>132</ns3:hr>
            <ns3:cad>53</ns3:cad>
          </ns3:TrackPointExtension>
        </extensions>
      </trkpt>
      <trkpt lat="45.30429166741669178009033203125" lon="-70.902172587811946868896484375">
        <ele>617.20001220703125</ele>
        <time>2026-08-21T15:53:05.000Z</time>
        <extensions>
          <ns3:TrackPointExtension>
            <ns3:hr>131</ns3:hr>
            <ns3:cad>53</ns3:cad>
          </ns3:TrackPointExtension>
        </extensions>
      </trkpt>
      <trkpt lat="45.304303653538227081298828125" lon="-70.9021787904202938079833984375">
        <ele>617.20001220703125</ele>
        <time>2026-08-21T15:53:06.000Z</time>
        <extensions>
          <ns3:TrackPointExtension>
            <ns3:hr>131</ns3:hr>
            <ns3:cad>54</ns3:cad>
          </ns3:TrackPointExtension>
        </extensions>
      </trkpt>
      <trkpt lat="45.3043167293071746826171875" lon="-70.90218122117221355438232421875">
        <ele>617</ele>
        <time>2026-08-21T15:53:07.000Z</time>
        <extensions>
          <ns3:TrackPointExtension>
            <ns3:hr>130</ns3:hr>
            <ns3:cad>54</ns3:cad>
          </ns3:TrackPointExtension>
        </extensions>
      </trkpt>
      <trkpt lat="45.30432921834290027618408203125" lon="-70.902186334133148193359375">
        <ele>617</ele>
        <time>2026-08-21T15:53:08.000Z</time>
        <extensions>
          <ns3:TrackPointExtension>
            <ns3:hr>130</ns3:hr>
            <ns3:cad>53</ns3:cad>
          </ns3:TrackPointExtension>
        </extensions>
      </trkpt>
      <trkpt lat="45.30434019863605499267578125" lon="-70.90219044126570224761962890625">
        <ele>617</ele>
        <time>2026-08-21T15:53:09.000Z</time>
        <extensions>
          <ns3:TrackPointExtension>
            <ns3:hr>130</ns3:hr>
            <ns3:cad>53</ns3:cad>
          </ns3:TrackPointExtension>
        </extensions>
      </trkpt>
      <trkpt lat="45.304354615509510040283203125" lon="-70.902192033827304840087890625">
        <ele>617</ele>
        <time>2026-08-21T15:53:10.000Z</time>
        <extensions>
          <ns3:TrackPointExtension>
            <ns3:hr>130</ns3:hr>
            <ns3:cad>53</ns3:cad>
          </ns3:TrackPointExtension>
        </extensions>
      </trkpt>
      <trkpt lat="45.30436743982136249542236328125" lon="-70.902189351618289947509765625">
        <ele>616.79998779296875</ele>
        <time>2026-08-21T15:53:11.000Z</time>
        <extensions>
          <ns3:TrackPointExtension>
            <ns3:hr>130</ns3:hr>
            <ns3:cad>53</ns3:cad>
          </ns3:TrackPointExtension>
        </extensions>
      </trkpt>
      <trkpt lat="45.3043779172003269195556640625" lon="-70.90218700468540191650390625">
        <ele>616.79998779296875</ele>
        <time>2026-08-21T15:53:12.000Z</time>
        <extensions>
          <ns3:TrackPointExtension>
            <ns3:hr>130</ns3:hr>
            <ns3:cad>53</ns3:cad>
          </ns3:TrackPointExtension>
        </extensions>
      </trkpt>
      <trkpt lat="45.30439107678830623626708984375" lon="-70.9021858312189579010009765625">
        <ele>616.79998779296875</ele>
        <time>2026-08-21T15:53:13.000Z</time>
        <extensions>
          <ns3:TrackPointExtension>
            <ns3:hr>131</ns3:hr>
            <ns3:cad>53</ns3:cad>
          </ns3:TrackPointExtension>
        </extensions>
      </trkpt>
      <trkpt lat="45.3044037334620952606201171875" lon="-70.9021851606667041778564453125">
        <ele>617</ele>
        <time>2026-08-21T15:53:14.000Z</time>
        <extensions>
          <ns3:TrackPointExtension>
            <ns3:hr>131</ns3:hr>
            <ns3:cad>53</ns3:cad>
          </ns3:TrackPointExtension>
        </extensions>
      </trkpt>
      <trkpt lat="45.30441337265074253082275390625" lon="-70.90218289755284786224365234375">
        <ele>617</ele>
        <time>2026-08-21T15:53:15.000Z</time>
        <extensions>
          <ns3:TrackPointExtension>
            <ns3:hr>131</ns3:hr>
            <ns3:cad>53</ns3:cad>
          </ns3:TrackPointExtension>
        </extensions>
      </trkpt>
      <trkpt lat="45.30442561022937297821044921875" lon="-70.90218189172446727752685546875">
        <ele>616.79998779296875</ele>
        <time>2026-08-21T15:53:16.000Z</time>
        <extensions>
          <ns3:TrackPointExtension>
            <ns3:hr>131</ns3:hr>
            <ns3:cad>53</ns3:cad>
          </ns3:TrackPointExtension>
        </extensions>
      </trkpt>
      <trkpt lat="45.30443667434155941009521484375" lon="-70.90217820368707180023193359375">
        <ele>616.79998779296875</ele>
        <time>2026-08-21T15:53:17.000Z</time>
        <extensions>
          <ns3:TrackPointExtension>
            <ns3:hr>131</ns3:hr>
            <ns3:cad>53</ns3:cad>
          </ns3:TrackPointExtension>
        </extensions>
      </trkpt>
      <trkpt lat="45.304448492825031280517578125" lon="-70.9021865017712116241455078125">
        <ele>616.79998779296875</ele>
        <time>2026-08-21T15:53:18.000Z</time>
        <extensions>
          <ns3:TrackPointExtension>
            <ns3:hr>131</ns3:hr>
            <ns3:cad>53</ns3:cad>
          </ns3:TrackPointExtension>
        </extensions>
      </trkpt>
      <trkpt lat="45.30446047894656658172607421875" lon="-70.902191698551177978515625">
        <ele>616.79998779296875</ele>
        <time>2026-08-21T15:53:19.000Z</time>
        <extensions>
          <ns3:TrackPointExtension>
            <ns3:hr>131</ns3:hr>
            <ns3:cad>53</ns3:cad>
          </ns3:TrackPointExtension>
        </extensions>
      </trkpt>
      <trkpt lat="45.30447305180132389068603515625" lon="-70.9021875075995922088623046875">
        <ele>617</ele>
        <time>2026-08-21T15:53:20.000Z</time>
        <extensions>
          <ns3:TrackPointExtension>
            <ns3:hr>131</ns3:hr>
            <ns3:cad>53</ns3:cad>
          </ns3:TrackPointExtension>
        </extensions>
      </trkpt>
      <trkpt lat="45.304486043751239776611328125" lon="-70.9021734260022640228271484375">
        <ele>617</ele>
        <time>2026-08-21T15:53:21.000Z</time>
        <extensions>
          <ns3:TrackPointExtension>
            <ns3:hr>130</ns3:hr>
            <ns3:cad>53</ns3:cad>
          </ns3:TrackPointExtension>
        </extensions>
      </trkpt>
      <trkpt lat="45.3044982813298702239990234375" lon="-70.9021613560616970062255859375">
        <ele>617</ele>
        <time>2026-08-21T15:53:22.000Z</time>
        <extensions>
          <ns3:TrackPointExtension>
            <ns3:hr>130</ns3:hr>
            <ns3:cad>62</ns3:cad>
          </ns3:TrackPointExtension>
        </extensions>
      </trkpt>
      <trkpt lat="45.30450959689915180206298828125" lon="-70.9021608531475067138671875">
        <ele>617</ele>
        <time>2026-08-21T15:53:23.000Z</time>
        <extensions>
          <ns3:TrackPointExtension>
            <ns3:hr>130</ns3:hr>
            <ns3:cad>62</ns3:cad>
          </ns3:TrackPointExtension>
        </extensions>
      </trkpt>
      <trkpt lat="45.30452501960098743438720703125" lon="-70.90216211043298244476318359375">
        <ele>617</ele>
        <time>2026-08-21T15:53:24.000Z</time>
        <extensions>
          <ns3:TrackPointExtension>
            <ns3:hr>130</ns3:hr>
            <ns3:cad>62</ns3:cad>
          </ns3:TrackPointExtension>
        </extensions>
      </trkpt>
      <trkpt lat="45.3045371733605861663818359375" lon="-70.90215825475752353668212890625">
        <ele>617</ele>
        <time>2026-08-21T15:53:25.000Z</time>
        <extensions>
          <ns3:TrackPointExtension>
            <ns3:hr>131</ns3:hr>
            <ns3:cad>62</ns3:cad>
          </ns3:TrackPointExtension>
        </extensions>
      </trkpt>
      <trkpt lat="45.30455418862402439117431640625" lon="-70.902147106826305389404296875">
        <ele>617</ele>
        <time>2026-08-21T15:53:26.000Z</time>
        <extensions>
          <ns3:TrackPointExtension>
            <ns3:hr>131</ns3:hr>
            <ns3:cad>62</ns3:cad>
          </ns3:TrackPointExtension>
        </extensions>
      </trkpt>
      <trkpt lat="45.3045663423836231231689453125" lon="-70.902131684124469757080078125">
        <ele>616.79998779296875</ele>
        <time>2026-08-21T15:53:27.000Z</time>
        <extensions>
          <ns3:TrackPointExtension>
            <ns3:hr>132</ns3:hr>
            <ns3:cad>61</ns3:cad>
          </ns3:TrackPointExtension>
        </extensions>
      </trkpt>
      <trkpt lat="45.304575897753238677978515625" lon="-70.9021107293665409088134765625">
        <ele>616.79998779296875</ele>
        <time>2026-08-21T15:53:28.000Z</time>
        <extensions>
          <ns3:TrackPointExtension>
            <ns3:hr>132</ns3:hr>
            <ns3:cad>56</ns3:cad>
          </ns3:TrackPointExtension>
        </extensions>
      </trkpt>
      <trkpt lat="45.30458101071417331695556640625" lon="-70.902092121541500091552734375">
        <ele>616.5999755859375</ele>
        <time>2026-08-21T15:53:29.000Z</time>
        <extensions>
          <ns3:TrackPointExtension>
            <ns3:hr>132</ns3:hr>
            <ns3:cad>56</ns3:cad>
          </ns3:TrackPointExtension>
        </extensions>
      </trkpt>
      <trkpt lat="45.30458293855190277099609375" lon="-70.90207569301128387451171875">
        <ele>616.5999755859375</ele>
        <time>2026-08-21T15:53:30.000Z</time>
        <extensions>
          <ns3:TrackPointExtension>
            <ns3:hr>132</ns3:hr>
            <ns3:cad>56</ns3:cad>
          </ns3:TrackPointExtension>
        </extensions>
      </trkpt>
      <trkpt lat="45.304593332111835479736328125" lon="-70.902065970003604888916015625">
        <ele>616.5999755859375</ele>
        <time>2026-08-21T15:53:31.000Z</time>
        <extensions>
          <ns3:TrackPointExtension>
            <ns3:hr>132</ns3:hr>
            <ns3:cad>56</ns3:cad>
          </ns3:TrackPointExtension>
        </extensions>
      </trkpt>
      <trkpt lat="45.30460448004305362701416015625" lon="-70.90205490589141845703125">
        <ele>616.5999755859375</ele>
        <time>2026-08-21T15:53:32.000Z</time>
        <extensions>
          <ns3:TrackPointExtension>
            <ns3:hr>132</ns3:hr>
            <ns3:cad>56</ns3:cad>
          </ns3:TrackPointExtension>
        </extensions>
      </trkpt>
      <trkpt lat="45.30461453832685947418212890625" lon="-70.902050547301769256591796875">
        <ele>616.5999755859375</ele>
        <time>2026-08-21T15:53:33.000Z</time>
        <extensions>
          <ns3:TrackPointExtension>
            <ns3:hr>132</ns3:hr>
            <ns3:cad>56</ns3:cad>
          </ns3:TrackPointExtension>
        </extensions>
      </trkpt>
      <trkpt lat="45.30462627299129962921142578125" lon="-70.90204828418791294097900390625">
        <ele>616.79998779296875</ele>
        <time>2026-08-21T15:53:34.000Z</time>
        <extensions>
          <ns3:TrackPointExtension>
            <ns3:hr>132</ns3:hr>
            <ns3:cad>56</ns3:cad>
          </ns3:TrackPointExtension>
        </extensions>
      </trkpt>
      <trkpt lat="45.30463750474154949188232421875" lon="-70.9020517207682132720947265625">
        <ele>616.79998779296875</ele>
        <time>2026-08-21T15:53:35.000Z</time>
        <extensions>
          <ns3:TrackPointExtension>
            <ns3:hr>132</ns3:hr>
            <ns3:cad>56</ns3:cad>
          </ns3:TrackPointExtension>
        </extensions>
      </trkpt>
      <trkpt lat="45.30464504845440387725830078125" lon="-70.90205348096787929534912109375">
        <ele>616.79998779296875</ele>
        <time>2026-08-21T15:53:36.000Z</time>
        <extensions>
          <ns3:TrackPointExtension>
            <ns3:hr>132</ns3:hr>
            <ns3:cad>56</ns3:cad>
          </ns3:TrackPointExtension>
        </extensions>
      </trkpt>
      <trkpt lat="45.30465711839497089385986328125" lon="-70.9020604379475116729736328125">
        <ele>616.79998779296875</ele>
        <time>2026-08-21T15:53:37.000Z</time>
        <extensions>
          <ns3:TrackPointExtension>
            <ns3:hr>132</ns3:hr>
            <ns3:cad>0</ns3:cad>
          </ns3:TrackPointExtension>
        </extensions>
      </trkpt>
      <trkpt lat="45.30466952361166477203369140625" lon="-70.9020634554326534271240234375">
        <ele>616.5999755859375</ele>
        <time>2026-08-21T15:53:38.000Z</time>
        <extensions>
          <ns3:TrackPointExtension>
            <ns3:hr>132</ns3:hr>
            <ns3:cad>0</ns3:cad>
          </ns3:TrackPointExtension>
        </extensions>
      </trkpt>
      <trkpt lat="45.30468628741800785064697265625" lon="-70.9020751900970935821533203125">
        <ele>616.5999755859375</ele>
        <time>2026-08-21T15:53:39.000Z</time>
        <extensions>
          <ns3:TrackPointExtension>
            <ns3:hr>132</ns3:hr>
            <ns3:cad>0</ns3:cad>
          </ns3:TrackPointExtension>
        </extensions>
      </trkpt>
      <trkpt lat="45.30470137484371662139892578125" lon="-70.9020761959254741668701171875">
        <ele>616.5999755859375</ele>
        <time>2026-08-21T15:53:40.000Z</time>
        <extensions>
          <ns3:TrackPointExtension>
            <ns3:hr>132</ns3:hr>
            <ns3:cad>61</ns3:cad>
          </ns3:TrackPointExtension>
        </extensions>
      </trkpt>
      <trkpt lat="45.30472216196358203887939453125" lon="-70.9020832367241382598876953125">
        <ele>616.5999755859375</ele>
        <time>2026-08-21T15:53:41.000Z</time>
        <extensions>
          <ns3:TrackPointExtension>
            <ns3:hr>132</ns3:hr>
            <ns3:cad>61</ns3:cad>
          </ns3:TrackPointExtension>
        </extensions>
      </trkpt>
      <trkpt lat="45.30474261380732059478759765625" lon="-70.90209052897989749908447265625">
        <ele>616.4000244140625</ele>
        <time>2026-08-21T15:53:42.000Z</time>
        <extensions>
          <ns3:TrackPointExtension>
            <ns3:hr>133</ns3:hr>
            <ns3:cad>61</ns3:cad>
          </ns3:TrackPointExtension>
        </extensions>
      </trkpt>
      <trkpt lat="45.30475904233753681182861328125" lon="-70.9020964801311492919921875">
        <ele>616.4000244140625</ele>
        <time>2026-08-21T15:53:43.000Z</time>
        <extensions>
          <ns3:TrackPointExtension>
            <ns3:hr>133</ns3:hr>
            <ns3:cad>61</ns3:cad>
          </ns3:TrackPointExtension>
        </extensions>
      </trkpt>
      <trkpt lat="45.30478267930448055267333984375" lon="-70.90209807269275188446044921875">
        <ele>616.4000244140625</ele>
        <time>2026-08-21T15:53:44.000Z</time>
        <extensions>
          <ns3:TrackPointExtension>
            <ns3:hr>133</ns3:hr>
            <ns3:cad>76</ns3:cad>
          </ns3:TrackPointExtension>
        </extensions>
      </trkpt>
      <trkpt lat="45.30480028130114078521728515625" lon="-70.90209807269275188446044921875">
        <ele>616.4000244140625</ele>
        <time>2026-08-21T15:53:45.000Z</time>
        <extensions>
          <ns3:TrackPointExtension>
            <ns3:hr>133</ns3:hr>
            <ns3:cad>76</ns3:cad>
          </ns3:TrackPointExtension>
        </extensions>
      </trkpt>
      <trkpt lat="45.30481704510748386383056640625" lon="-70.9021023474633693695068359375">
        <ele>616.20001220703125</ele>
        <time>2026-08-21T15:53:46.000Z</time>
        <extensions>
          <ns3:TrackPointExtension>
            <ns3:hr>132</ns3:hr>
            <ns3:cad>76</ns3:cad>
          </ns3:TrackPointExtension>
        </extensions>
      </trkpt>
      <trkpt lat="45.30483766458928585052490234375" lon="-70.90210192836821079254150390625">
        <ele>616.20001220703125</ele>
        <time>2026-08-21T15:53:47.000Z</time>
        <extensions>
          <ns3:TrackPointExtension>
            <ns3:hr>132</ns3:hr>
            <ns3:cad>76</ns3:cad>
          </ns3:TrackPointExtension>
        </extensions>
      </trkpt>
      <trkpt lat="45.3048543445765972137451171875" lon="-70.9021031856536865234375">
        <ele>616.20001220703125</ele>
        <time>2026-08-21T15:53:48.000Z</time>
        <extensions>
          <ns3:TrackPointExtension>
            <ns3:hr>132</ns3:hr>
            <ns3:cad>76</ns3:cad>
          </ns3:TrackPointExtension>
        </extensions>
      </trkpt>
      <trkpt lat="45.30487638898193836212158203125" lon="-70.90211081318557262420654296875">
        <ele>616.20001220703125</ele>
        <time>2026-08-21T15:53:49.000Z</time>
        <extensions>
          <ns3:TrackPointExtension>
            <ns3:hr>132</ns3:hr>
            <ns3:cad>71</ns3:cad>
          </ns3:TrackPointExtension>
        </extensions>
      </trkpt>
      <trkpt lat="45.30489700846374034881591796875" lon="-70.9021174348890781402587890625">
        <ele>616.20001220703125</ele>
        <time>2026-08-21T15:53:50.000Z</time>
        <extensions>
          <ns3:TrackPointExtension>
            <ns3:hr>132</ns3:hr>
            <ns3:cad>71</ns3:cad>
          </ns3:TrackPointExtension>
        </extensions>
      </trkpt>
      <trkpt lat="45.304915197193622589111328125" lon="-70.90212221257388591766357421875">
        <ele>616.20001220703125</ele>
        <time>2026-08-21T15:53:51.000Z</time>
        <extensions>
          <ns3:TrackPointExtension>
            <ns3:hr>132</ns3:hr>
            <ns3:cad>71</ns3:cad>
          </ns3:TrackPointExtension>
        </extensions>
      </trkpt>
      <trkpt lat="45.304931960999965667724609375" lon="-70.9021234698593616485595703125">
        <ele>616</ele>
        <time>2026-08-21T15:53:52.000Z</time>
        <extensions>
          <ns3:TrackPointExtension>
            <ns3:hr>132</ns3:hr>
            <ns3:cad>71</ns3:cad>
          </ns3:TrackPointExtension>
        </extensions>
      </trkpt>
      <trkpt lat="45.30494662933051586151123046875" lon="-70.90212489478290081024169921875">
        <ele>616</ele>
        <time>2026-08-21T15:53:53.000Z</time>
        <extensions>
          <ns3:TrackPointExtension>
            <ns3:hr>133</ns3:hr>
            <ns3:cad>71</ns3:cad>
          </ns3:TrackPointExtension>
        </extensions>
      </trkpt>
      <trkpt lat="45.304960794746875762939453125" lon="-70.902130343019962310791015625">
        <ele>616</ele>
        <time>2026-08-21T15:53:54.000Z</time>
        <extensions>
          <ns3:TrackPointExtension>
            <ns3:hr>134</ns3:hr>
            <ns3:cad>71</ns3:cad>
          </ns3:TrackPointExtension>
        </extensions>
      </trkpt>
      <trkpt lat="45.304976888000965118408203125" lon="-70.90212875045835971832275390625">
        <ele>616.20001220703125</ele>
        <time>2026-08-21T15:53:55.000Z</time>
        <extensions>
          <ns3:TrackPointExtension>
            <ns3:hr>134</ns3:hr>
            <ns3:cad>71</ns3:cad>
          </ns3:TrackPointExtension>
        </extensions>
      </trkpt>
      <trkpt lat="45.30499541200697422027587890625" lon="-70.902121625840663909912109375">
        <ele>616.20001220703125</ele>
        <time>2026-08-21T15:53:56.000Z</time>
        <extensions>
          <ns3:TrackPointExtension>
            <ns3:hr>134</ns3:hr>
            <ns3:cad>0</ns3:cad>
          </ns3:TrackPointExtension>
        </extensions>
      </trkpt>
      <trkpt lat="45.30501385219395160675048828125" lon="-70.902116596698760986328125">
        <ele>616.20001220703125</ele>
        <time>2026-08-21T15:53:57.000Z</time>
        <extensions>
          <ns3:TrackPointExtension>
            <ns3:hr>134</ns3:hr>
            <ns3:cad>0</ns3:cad>
          </ns3:TrackPointExtension>
        </extensions>
      </trkpt>
      <trkpt lat="45.3050273470580577850341796875" lon="-70.90211802162230014801025390625">
        <ele>616</ele>
        <time>2026-08-21T15:53:58.000Z</time>
        <extensions>
          <ns3:TrackPointExtension>
            <ns3:hr>134</ns3:hr>
            <ns3:cad>0</ns3:cad>
          </ns3:TrackPointExtension>
        </extensions>
      </trkpt>
      <trkpt lat="45.3050417639315128326416015625" lon="-70.9021194465458393096923828125">
        <ele>616</ele>
        <time>2026-08-21T15:53:59.000Z</time>
        <extensions>
          <ns3:TrackPointExtension>
            <ns3:hr>133</ns3:hr>
            <ns3:cad>71</ns3:cad>
          </ns3:TrackPointExtension>
        </extensions>
      </trkpt>
      <trkpt lat="45.30505475588142871856689453125" lon="-70.90211927890777587890625">
        <ele>616</ele>
        <time>2026-08-21T15:54:00.000Z</time>
        <extensions>
          <ns3:TrackPointExtension>
            <ns3:hr>133</ns3:hr>
            <ns3:cad>71</ns3:cad>
          </ns3:TrackPointExtension>
        </extensions>
      </trkpt>
      <trkpt lat="45.30507034622132778167724609375" lon="-70.90212791226804256439208984375">
        <ele>616</ele>
        <time>2026-08-21T15:54:01.000Z</time>
        <extensions>
          <ns3:TrackPointExtension>
            <ns3:hr>133</ns3:hr>
            <ns3:cad>71</ns3:cad>
          </ns3:TrackPointExtension>
        </extensions>
      </trkpt>
      <trkpt lat="45.3050843439996242523193359375" lon="-70.902134366333484649658203125">
        <ele>616</ele>
        <time>2026-08-21T15:54:02.000Z</time>
        <extensions>
          <ns3:TrackPointExtension>
            <ns3:hr>133</ns3:hr>
            <ns3:cad>68</ns3:cad>
          </ns3:TrackPointExtension>
        </extensions>
      </trkpt>
      <trkpt lat="45.30509867705404758453369140625" lon="-70.9021405689418315887451171875">
        <ele>616</ele>
        <time>2026-08-21T15:54:03.000Z</time>
        <extensions>
          <ns3:TrackPointExtension>
            <ns3:hr>132</ns3:hr>
            <ns3:cad>68</ns3:cad>
          </ns3:TrackPointExtension>
        </extensions>
      </trkpt>
      <trkpt lat="45.30511862598359584808349609375" lon="-70.90214199386537075042724609375">
        <ele>616</ele>
        <time>2026-08-21T15:54:04.000Z</time>
        <extensions>
          <ns3:TrackPointExtension>
            <ns3:hr>132</ns3:hr>
            <ns3:cad>68</ns3:cad>
          </ns3:TrackPointExtension>
        </extensions>
      </trkpt>
      <trkpt lat="45.30513337813317775726318359375" lon="-70.90213227085769176483154296875">
        <ele>616</ele>
        <time>2026-08-21T15:54:05.000Z</time>
        <extensions>
          <ns3:TrackPointExtension>
            <ns3:hr>131</ns3:hr>
            <ns3:cad>68</ns3:cad>
          </ns3:TrackPointExtension>
        </extensions>
      </trkpt>
      <trkpt lat="45.30514779500663280487060546875" lon="-70.90213059447705745697021484375">
        <ele>616</ele>
        <time>2026-08-21T15:54:06.000Z</time>
        <extensions>
          <ns3:TrackPointExtension>
            <ns3:hr>131</ns3:hr>
            <ns3:cad>57</ns3:cad>
          </ns3:TrackPointExtension>
        </extensions>
      </trkpt>
      <trkpt lat="45.3051616251468658447265625" lon="-70.90212724171578884124755859375">
        <ele>616</ele>
        <time>2026-08-21T15:54:07.000Z</time>
        <extensions>
          <ns3:TrackPointExtension>
            <ns3:hr>131</ns3:hr>
            <ns3:cad>57</ns3:cad>
          </ns3:TrackPointExtension>
        </extensions>
      </trkpt>
      <trkpt lat="45.30517579056322574615478515625" lon="-70.90211927890777587890625">
        <ele>615.79998779296875</ele>
        <time>2026-08-21T15:54:08.000Z</time>
        <extensions>
          <ns3:TrackPointExtension>
            <ns3:hr>131</ns3:hr>
            <ns3:cad>57</ns3:cad>
          </ns3:TrackPointExtension>
        </extensions>
      </trkpt>
      <trkpt lat="45.30518987216055393218994140625" lon="-70.9021124057471752166748046875">
        <ele>615.79998779296875</ele>
        <time>2026-08-21T15:54:09.000Z</time>
        <extensions>
          <ns3:TrackPointExtension>
            <ns3:hr>131</ns3:hr>
            <ns3:cad>57</ns3:cad>
          </ns3:TrackPointExtension>
        </extensions>
      </trkpt>
      <trkpt lat="45.305205881595611572265625" lon="-70.9021073766052722930908203125">
        <ele>615.79998779296875</ele>
        <time>2026-08-21T15:54:10.000Z</time>
        <extensions>
          <ns3:TrackPointExtension>
            <ns3:hr>131</ns3:hr>
            <ns3:cad>57</ns3:cad>
          </ns3:TrackPointExtension>
        </extensions>
      </trkpt>
      <trkpt lat="45.30522189103066921234130859375" lon="-70.90210008434951305389404296875">
        <ele>615.79998779296875</ele>
        <time>2026-08-21T15:54:11.000Z</time>
        <extensions>
          <ns3:TrackPointExtension>
            <ns3:hr>131</ns3:hr>
            <ns3:cad>57</ns3:cad>
          </ns3:TrackPointExtension>
        </extensions>
      </trkpt>
      <trkpt lat="45.30523748137056827545166015625" lon="-70.9020899422466754913330078125">
        <ele>615.5999755859375</ele>
        <time>2026-08-21T15:54:12.000Z</time>
        <extensions>
          <ns3:TrackPointExtension>
            <ns3:hr>131</ns3:hr>
            <ns3:cad>57</ns3:cad>
          </ns3:TrackPointExtension>
        </extensions>
      </trkpt>
      <trkpt lat="45.3052543289959430694580078125" lon="-70.9020855836570262908935546875">
        <ele>615.5999755859375</ele>
        <time>2026-08-21T15:54:13.000Z</time>
        <extensions>
          <ns3:TrackPointExtension>
            <ns3:hr>131</ns3:hr>
            <ns3:cad>57</ns3:cad>
          </ns3:TrackPointExtension>
        </extensions>
      </trkpt>
      <trkpt lat="45.305268578231334686279296875" lon="-70.9020845778286457061767578125">
        <ele>615.5999755859375</ele>
        <time>2026-08-21T15:54:14.000Z</time>
        <extensions>
          <ns3:TrackPointExtension>
            <ns3:hr>131</ns3:hr>
            <ns3:cad>0</ns3:cad>
          </ns3:TrackPointExtension>
        </extensions>
      </trkpt>
      <trkpt lat="45.30528542585670948028564453125" lon="-70.90208264999091625213623046875">
        <ele>615.79998779296875</ele>
        <time>2026-08-21T15:54:15.000Z</time>
        <extensions>
          <ns3:TrackPointExtension>
            <ns3:hr>132</ns3:hr>
            <ns3:cad>0</ns3:cad>
          </ns3:TrackPointExtension>
        </extensions>
      </trkpt>
      <trkpt lat="45.305303446948528289794921875" lon="-70.9020738489925861358642578125">
        <ele>615.5999755859375</ele>
        <time>2026-08-21T15:54:16.000Z</time>
        <extensions>
          <ns3:TrackPointExtension>
            <ns3:hr>132</ns3:hr>
            <ns3:cad>0</ns3:cad>
          </ns3:TrackPointExtension>
        </extensions>
      </trkpt>
      <trkpt lat="45.30531710945069789886474609375" lon="-70.90206094086170196533203125">
        <ele>615.5999755859375</ele>
        <time>2026-08-21T15:54:17.000Z</time>
        <extensions>
          <ns3:TrackPointExtension>
            <ns3:hr>131</ns3:hr>
            <ns3:cad>0</ns3:cad>
          </ns3:TrackPointExtension>
        </extensions>
      </trkpt>
      <trkpt lat="45.30532901175320148468017578125" lon="-70.90205289423465728759765625">
        <ele>615.5999755859375</ele>
        <time>2026-08-21T15:54:18.000Z</time>
        <extensions>
          <ns3:TrackPointExtension>
            <ns3:hr>131</ns3:hr>
            <ns3:cad>0</ns3:cad>
          </ns3:TrackPointExtension>
        </extensions>
      </trkpt>
      <trkpt lat="45.3053468652069568634033203125" lon="-70.902052558958530426025390625">
        <ele>615.4000244140625</ele>
        <time>2026-08-21T15:54:19.000Z</time>
        <extensions>
          <ns3:TrackPointExtension>
            <ns3:hr>131</ns3:hr>
            <ns3:cad>0</ns3:cad>
          </ns3:TrackPointExtension>
        </extensions>
      </trkpt>
      <trkpt lat="45.30535952188074588775634765625" lon="-70.9020446799695491790771484375">
        <ele>615.4000244140625</ele>
        <time>2026-08-21T15:54:20.000Z</time>
        <extensions>
          <ns3:TrackPointExtension>
            <ns3:hr>131</ns3:hr>
            <ns3:cad>0</ns3:cad>
          </ns3:TrackPointExtension>
        </extensions>
      </trkpt>
      <trkpt lat="45.305375866591930389404296875" lon="-70.90203872881829738616943359375">
        <ele>615.4000244140625</ele>
        <time>2026-08-21T15:54:21.000Z</time>
        <extensions>
          <ns3:TrackPointExtension>
            <ns3:hr>130</ns3:hr>
            <ns3:cad>0</ns3:cad>
          </ns3:TrackPointExtension>
        </extensions>
      </trkpt>
      <trkpt lat="45.305391289293766021728515625" lon="-70.90203185565769672393798828125">
        <ele>615.4000244140625</ele>
        <time>2026-08-21T15:54:22.000Z</time>
        <extensions>
          <ns3:TrackPointExtension>
            <ns3:hr>130</ns3:hr>
            <ns3:cad>0</ns3:cad>
          </ns3:TrackPointExtension>
        </extensions>
      </trkpt>
      <trkpt lat="45.305403359234333038330078125" lon="-70.90202179737389087677001953125">
        <ele>615.20001220703125</ele>
        <time>2026-08-21T15:54:23.000Z</time>
        <extensions>
          <ns3:TrackPointExtension>
            <ns3:hr>130</ns3:hr>
            <ns3:cad>0</ns3:cad>
          </ns3:TrackPointExtension>
        </extensions>
      </trkpt>
      <trkpt lat="45.30541576445102691650390625" lon="-70.90201928280293941497802734375">
        <ele>615.20001220703125</ele>
        <time>2026-08-21T15:54:24.000Z</time>
        <extensions>
          <ns3:TrackPointExtension>
            <ns3:hr>130</ns3:hr>
            <ns3:cad>0</ns3:cad>
          </ns3:TrackPointExtension>
        </extensions>
      </trkpt>
      <trkpt lat="45.30542858876287937164306640625" lon="-70.902016349136829376220703125">
        <ele>615.20001220703125</ele>
        <time>2026-08-21T15:54:25.000Z</time>
        <extensions>
          <ns3:TrackPointExtension>
            <ns3:hr>130</ns3:hr>
            <ns3:cad>0</ns3:cad>
          </ns3:TrackPointExtension>
        </extensions>
      </trkpt>
      <trkpt lat="45.3054417483508586883544921875" lon="-70.90201073326170444488525390625">
        <ele>615.4000244140625</ele>
        <time>2026-08-21T15:54:26.000Z</time>
        <extensions>
          <ns3:TrackPointExtension>
            <ns3:hr>130</ns3:hr>
            <ns3:cad>72</ns3:cad>
          </ns3:TrackPointExtension>
        </extensions>
      </trkpt>
      <trkpt lat="45.30545507557690143585205078125" lon="-70.90201140381395816802978515625">
        <ele>615.4000244140625</ele>
        <time>2026-08-21T15:54:27.000Z</time>
        <extensions>
          <ns3:TrackPointExtension>
            <ns3:hr>130</ns3:hr>
            <ns3:cad>72</ns3:cad>
          </ns3:TrackPointExtension>
        </extensions>
      </trkpt>
      <trkpt lat="45.30547016300261020660400390625" lon="-70.90200587175786495208740234375">
        <ele>615.4000244140625</ele>
        <time>2026-08-21T15:54:28.000Z</time>
        <extensions>
          <ns3:TrackPointExtension>
            <ns3:hr>130</ns3:hr>
            <ns3:cad>57</ns3:cad>
          </ns3:TrackPointExtension>
        </extensions>
      </trkpt>
      <trkpt lat="45.30548105947673320770263671875" lon="-70.90200184844434261322021484375">
        <ele>615.5999755859375</ele>
        <time>2026-08-21T15:54:29.000Z</time>
        <extensions>
          <ns3:TrackPointExtension>
            <ns3:hr>129</ns3:hr>
            <ns3:cad>57</ns3:cad>
          </ns3:TrackPointExtension>
        </extensions>
      </trkpt>
      <trkpt lat="45.30549497343599796295166015625" lon="-70.90199296362698078155517578125">
        <ele>615.5999755859375</ele>
        <time>2026-08-21T15:54:30.000Z</time>
        <extensions>
          <ns3:TrackPointExtension>
            <ns3:hr>127</ns3:hr>
            <ns3:cad>57</ns3:cad>
          </ns3:TrackPointExtension>
        </extensions>
      </trkpt>
      <trkpt lat="45.30551291070878505706787109375" lon="-70.90198877267539501190185546875">
        <ele>615.5999755859375</ele>
        <time>2026-08-21T15:54:31.000Z</time>
        <extensions>
          <ns3:TrackPointExtension>
            <ns3:hr>125</ns3:hr>
            <ns3:cad>55</ns3:cad>
          </ns3:TrackPointExtension>
        </extensions>
      </trkpt>
      <trkpt lat="45.30552967451512813568115234375" lon="-70.90198458172380924224853515625">
        <ele>615.5999755859375</ele>
        <time>2026-08-21T15:54:32.000Z</time>
        <extensions>
          <ns3:TrackPointExtension>
            <ns3:hr>126</ns3:hr>
            <ns3:cad>55</ns3:cad>
          </ns3:TrackPointExtension>
        </extensions>
      </trkpt>
      <trkpt lat="45.305545516312122344970703125" lon="-70.90198441408574581146240234375">
        <ele>615.5999755859375</ele>
        <time>2026-08-21T15:54:33.000Z</time>
        <extensions>
          <ns3:TrackPointExtension>
            <ns3:hr>126</ns3:hr>
            <ns3:cad>55</ns3:cad>
          </ns3:TrackPointExtension>
        </extensions>
      </trkpt>
      <trkpt lat="45.30556672252714633941650390625" lon="-70.9019873477518558502197265625">
        <ele>615.79998779296875</ele>
        <time>2026-08-21T15:54:34.000Z</time>
        <extensions>
          <ns3:TrackPointExtension>
            <ns3:hr>126</ns3:hr>
            <ns3:cad>55</ns3:cad>
          </ns3:TrackPointExtension>
        </extensions>
      </trkpt>
      <trkpt lat="45.30558876693248748779296875" lon="-70.901987850666046142578125">
        <ele>615.79998779296875</ele>
        <time>2026-08-21T15:54:35.000Z</time>
        <extensions>
          <ns3:TrackPointExtension>
            <ns3:hr>126</ns3:hr>
            <ns3:cad>0</ns3:cad>
          </ns3:TrackPointExtension>
        </extensions>
      </trkpt>
      <trkpt lat="45.3056087158620357513427734375" lon="-70.9019945561885833740234375">
        <ele>615.5999755859375</ele>
        <time>2026-08-21T15:54:36.000Z</time>
        <extensions>
          <ns3:TrackPointExtension>
            <ns3:hr>127</ns3:hr>
            <ns3:cad>0</ns3:cad>
          </ns3:TrackPointExtension>
        </extensions>
      </trkpt>
      <trkpt lat="45.30562254600226879119873046875" lon="-70.90200033970177173614501953125">
        <ele>615.79998779296875</ele>
        <time>2026-08-21T15:54:37.000Z</time>
        <extensions>
          <ns3:TrackPointExtension>
            <ns3:hr>127</ns3:hr>
            <ns3:cad>0</ns3:cad>
          </ns3:TrackPointExtension>
        </extensions>
      </trkpt>
      <trkpt lat="45.3056417405605316162109375" lon="-70.90199598111212253570556640625">
        <ele>615.79998779296875</ele>
        <time>2026-08-21T15:54:38.000Z</time>
        <extensions>
          <ns3:TrackPointExtension>
            <ns3:hr>128</ns3:hr>
            <ns3:cad>0</ns3:cad>
          </ns3:TrackPointExtension>
        </extensions>
      </trkpt>
      <trkpt lat="45.305662192404270172119140625" lon="-70.9019891917705535888671875">
        <ele>615.79998779296875</ele>
        <time>2026-08-21T15:54:39.000Z</time>
        <extensions>
          <ns3:TrackPointExtension>
            <ns3:hr>128</ns3:hr>
            <ns3:cad>0</ns3:cad>
          </ns3:TrackPointExtension>
        </extensions>
      </trkpt>
      <trkpt lat="45.30567635782063007354736328125" lon="-70.90198441408574581146240234375">
        <ele>615.5999755859375</ele>
        <time>2026-08-21T15:54:40.000Z</time>
        <extensions>
          <ns3:TrackPointExtension>
            <ns3:hr>128</ns3:hr>
            <ns3:cad>0</ns3:cad>
          </ns3:TrackPointExtension>
        </extensions>
      </trkpt>
      <trkpt lat="45.3056948818266391754150390625" lon="-70.901980809867382049560546875">
        <ele>615.79998779296875</ele>
        <time>2026-08-21T15:54:41.000Z</time>
        <extensions>
          <ns3:TrackPointExtension>
            <ns3:hr>128</ns3:hr>
            <ns3:cad>0</ns3:cad>
          </ns3:TrackPointExtension>
        </extensions>
      </trkpt>
      <trkpt lat="45.3057126514613628387451171875" lon="-70.9019578434526920318603515625">
        <ele>615.79998779296875</ele>
        <time>2026-08-21T15:54:42.000Z</time>
        <extensions>
          <ns3:TrackPointExtension>
            <ns3:hr>128</ns3:hr>
            <ns3:cad>0</ns3:cad>
          </ns3:TrackPointExtension>
        </extensions>
      </trkpt>
      <trkpt lat="45.30572824180126190185546875" lon="-70.9019409120082855224609375">
        <ele>615.79998779296875</ele>
        <time>2026-08-21T15:54:43.000Z</time>
        <extensions>
          <ns3:TrackPointExtension>
            <ns3:hr>129</ns3:hr>
            <ns3:cad>0</ns3:cad>
          </ns3:TrackPointExtension>
        </extensions>
      </trkpt>
      <trkpt lat="45.3057478554546833038330078125" lon="-70.90192959643900394439697265625">
        <ele>615.79998779296875</ele>
        <time>2026-08-21T15:54:44.000Z</time>
        <extensions>
          <ns3:TrackPointExtension>
            <ns3:hr>130</ns3:hr>
            <ns3:cad>0</ns3:cad>
          </ns3:TrackPointExtension>
        </extensions>
      </trkpt>
      <trkpt lat="45.30576646327972412109375" lon="-70.9019216336309909820556640625">
        <ele>615.79998779296875</ele>
        <time>2026-08-21T15:54:45.000Z</time>
        <extensions>
          <ns3:TrackPointExtension>
            <ns3:hr>130</ns3:hr>
            <ns3:cad>0</ns3:cad>
          </ns3:TrackPointExtension>
        </extensions>
      </trkpt>
      <trkpt lat="45.3057823888957500457763671875" lon="-70.90192188508808612823486328125">
        <ele>615.79998779296875</ele>
        <time>2026-08-21T15:54:46.000Z</time>
        <extensions>
          <ns3:TrackPointExtension>
            <ns3:hr>131</ns3:hr>
            <ns3:cad>0</ns3:cad>
          </ns3:TrackPointExtension>
        </extensions>
      </trkpt>
      <trkpt lat="45.30579403974115848541259765625" lon="-70.901923477649688720703125">
        <ele>615.5999755859375</ele>
        <time>2026-08-21T15:54:47.000Z</time>
        <extensions>
          <ns3:TrackPointExtension>
            <ns3:hr>131</ns3:hr>
            <ns3:cad>0</ns3:cad>
          </ns3:TrackPointExtension>
        </extensions>
      </trkpt>
      <trkpt lat="45.30581214465200901031494140625" lon="-70.90192071162164211273193359375">
        <ele>615.5999755859375</ele>
        <time>2026-08-21T15:54:48.000Z</time>
        <extensions>
          <ns3:TrackPointExtension>
            <ns3:hr>132</ns3:hr>
            <ns3:cad>0</ns3:cad>
          </ns3:TrackPointExtension>
        </extensions>
      </trkpt>
      <trkpt lat="45.30582589097321033477783203125" lon="-70.901915095746517181396484375">
        <ele>615.4000244140625</ele>
        <time>2026-08-21T15:54:49.000Z</time>
        <extensions>
          <ns3:TrackPointExtension>
            <ns3:hr>132</ns3:hr>
            <ns3:cad>0</ns3:cad>
          </ns3:TrackPointExtension>
        </extensions>
      </trkpt>
      <trkpt lat="45.30583695508539676666259765625" lon="-70.901907384395599365234375">
        <ele>615.4000244140625</ele>
        <time>2026-08-21T15:54:50.000Z</time>
        <extensions>
          <ns3:TrackPointExtension>
            <ns3:hr>132</ns3:hr>
            <ns3:cad>0</ns3:cad>
          </ns3:TrackPointExtension>
        </extensions>
      </trkpt>
      <trkpt lat="45.3058578260242938995361328125" lon="-70.901888944208621978759765625">
        <ele>615.4000244140625</ele>
        <time>2026-08-21T15:54:51.000Z</time>
        <extensions>
          <ns3:TrackPointExtension>
            <ns3:hr>133</ns3:hr>
            <ns3:cad>0</ns3:cad>
          </ns3:TrackPointExtension>
        </extensions>
      </trkpt>
      <trkpt lat="45.3058688901364803314208984375" lon="-70.90187159366905689239501953125">
        <ele>615.4000244140625</ele>
        <time>2026-08-21T15:54:52.000Z</time>
        <extensions>
          <ns3:TrackPointExtension>
            <ns3:hr>133</ns3:hr>
            <ns3:cad>0</ns3:cad>
          </ns3:TrackPointExtension>
        </extensions>
      </trkpt>
      <trkpt lat="45.30588355846703052520751953125" lon="-70.90185315348207950592041015625">
        <ele>615.5999755859375</ele>
        <time>2026-08-21T15:54:53.000Z</time>
        <extensions>
          <ns3:TrackPointExtension>
            <ns3:hr>134</ns3:hr>
            <ns3:cad>0</ns3:cad>
          </ns3:TrackPointExtension>
        </extensions>
      </trkpt>
      <trkpt lat="45.3059004060924053192138671875" lon="-70.90184527449309825897216796875">
        <ele>615.5999755859375</ele>
        <time>2026-08-21T15:54:54.000Z</time>
        <extensions>
          <ns3:TrackPointExtension>
            <ns3:hr>134</ns3:hr>
            <ns3:cad>0</ns3:cad>
          </ns3:TrackPointExtension>
        </extensions>
      </trkpt>
      <trkpt lat="45.30591608025133609771728515625" lon="-70.901838652789592742919921875">
        <ele>615.5999755859375</ele>
        <time>2026-08-21T15:54:55.000Z</time>
        <extensions>
          <ns3:TrackPointExtension>
            <ns3:hr>134</ns3:hr>
            <ns3:cad>0</ns3:cad>
          </ns3:TrackPointExtension>
        </extensions>
      </trkpt>
      <trkpt lat="45.30592672526836395263671875" lon="-70.90183471329510211944580078125">
        <ele>615.5999755859375</ele>
        <time>2026-08-21T15:54:56.000Z</time>
        <extensions>
          <ns3:TrackPointExtension>
            <ns3:hr>135</ns3:hr>
            <ns3:cad>0</ns3:cad>
          </ns3:TrackPointExtension>
        </extensions>
      </trkpt>
      <trkpt lat="45.30593904666602611541748046875" lon="-70.90183471329510211944580078125">
        <ele>615.5999755859375</ele>
        <time>2026-08-21T15:54:57.000Z</time>
        <extensions>
          <ns3:TrackPointExtension>
            <ns3:hr>135</ns3:hr>
            <ns3:cad>75</ns3:cad>
          </ns3:TrackPointExtension>
        </extensions>
      </trkpt>
      <trkpt lat="45.30595430172979831695556640625" lon="-70.90183655731379985809326171875">
        <ele>615.5999755859375</ele>
        <time>2026-08-21T15:54:58.000Z</time>
        <extensions>
          <ns3:TrackPointExtension>
            <ns3:hr>135</ns3:hr>
            <ns3:cad>75</ns3:cad>
          </ns3:TrackPointExtension>
        </extensions>
      </trkpt>
      <trkpt lat="45.30597073026001453399658203125" lon="-70.90183303691446781158447265625">
        <ele>615.4000244140625</ele>
        <time>2026-08-21T15:54:59.000Z</time>
        <extensions>
          <ns3:TrackPointExtension>
            <ns3:hr>135</ns3:hr>
            <ns3:cad>75</ns3:cad>
          </ns3:TrackPointExtension>
        </extensions>
      </trkpt>
      <trkpt lat="45.3059842251241207122802734375" lon="-70.901825912296772003173828125">
        <ele>615.4000244140625</ele>
        <time>2026-08-21T15:55:00.000Z</time>
        <extensions>
          <ns3:TrackPointExtension>
            <ns3:hr>135</ns3:hr>
            <ns3:cad>75</ns3:cad>
          </ns3:TrackPointExtension>
        </extensions>
      </trkpt>
      <trkpt lat="45.30600157566368579864501953125" lon="-70.90182465501129627227783203125">
        <ele>615.4000244140625</ele>
        <time>2026-08-21T15:55:01.000Z</time>
        <extensions>
          <ns3:TrackPointExtension>
            <ns3:hr>135</ns3:hr>
            <ns3:cad>75</ns3:cad>
          </ns3:TrackPointExtension>
        </extensions>
      </trkpt>
      <trkpt lat="45.30601984821259975433349609375" lon="-70.90182331390678882598876953125">
        <ele>615.4000244140625</ele>
        <time>2026-08-21T15:55:02.000Z</time>
        <extensions>
          <ns3:TrackPointExtension>
            <ns3:hr>135</ns3:hr>
            <ns3:cad>0</ns3:cad>
          </ns3:TrackPointExtension>
        </extensions>
      </trkpt>
      <trkpt lat="45.3060371987521648406982421875" lon="-70.90181241743266582489013671875">
        <ele>615.4000244140625</ele>
        <time>2026-08-21T15:55:03.000Z</time>
        <extensions>
          <ns3:TrackPointExtension>
            <ns3:hr>134</ns3:hr>
            <ns3:cad>0</ns3:cad>
          </ns3:TrackPointExtension>
        </extensions>
      </trkpt>
      <trkpt lat="45.30605010688304901123046875" lon="-70.90181342326104640960693359375">
        <ele>615.4000244140625</ele>
        <time>2026-08-21T15:55:04.000Z</time>
        <extensions>
          <ns3:TrackPointExtension>
            <ns3:hr>135</ns3:hr>
            <ns3:cad>0</ns3:cad>
          </ns3:TrackPointExtension>
        </extensions>
      </trkpt>
      <trkpt lat="45.30606494285166263580322265625" lon="-70.90181417763233184814453125">
        <ele>615.4000244140625</ele>
        <time>2026-08-21T15:55:05.000Z</time>
        <extensions>
          <ns3:TrackPointExtension>
            <ns3:hr>135</ns3:hr>
            <ns3:cad>0</ns3:cad>
          </ns3:TrackPointExtension>
        </extensions>
      </trkpt>
      <trkpt lat="45.30607500113546848297119140625" lon="-70.9018068015575408935546875">
        <ele>615.4000244140625</ele>
        <time>2026-08-21T15:55:06.000Z</time>
        <extensions>
          <ns3:TrackPointExtension>
            <ns3:hr>135</ns3:hr>
            <ns3:cad>0</ns3:cad>
          </ns3:TrackPointExtension>
        </extensions>
      </trkpt>
      <trkpt lat="45.30609411187469959259033203125" lon="-70.90180286206305027008056640625">
        <ele>615.4000244140625</ele>
        <time>2026-08-21T15:55:07.000Z</time>
        <extensions>
          <ns3:TrackPointExtension>
            <ns3:hr>135</ns3:hr>
            <ns3:cad>0</ns3:cad>
          </ns3:TrackPointExtension>
        </extensions>
      </trkpt>
      <trkpt lat="45.3061099536716938018798828125" lon="-70.9017942287027835845947265625">
        <ele>615.4000244140625</ele>
        <time>2026-08-21T15:55:08.000Z</time>
        <extensions>
          <ns3:TrackPointExtension>
            <ns3:hr>135</ns3:hr>
            <ns3:cad>0</ns3:cad>
          </ns3:TrackPointExtension>
        </extensions>
      </trkpt>
      <trkpt lat="45.306121520698070526123046875" lon="-70.90178609825670719146728515625">
        <ele>615.20001220703125</ele>
        <time>2026-08-21T15:55:09.000Z</time>
        <extensions>
          <ns3:TrackPointExtension>
            <ns3:hr>135</ns3:hr>
            <ns3:cad>55</ns3:cad>
          </ns3:TrackPointExtension>
        </extensions>
      </trkpt>
      <trkpt lat="45.3061381168663501739501953125" lon="-70.901778303086757659912109375">
        <ele>615.20001220703125</ele>
        <time>2026-08-21T15:55:10.000Z</time>
        <extensions>
          <ns3:TrackPointExtension>
            <ns3:hr>135</ns3:hr>
            <ns3:cad>55</ns3:cad>
          </ns3:TrackPointExtension>
        </extensions>
      </trkpt>
      <trkpt lat="45.3061545453965663909912109375" lon="-70.90177117846906185150146484375">
        <ele>615.20001220703125</ele>
        <time>2026-08-21T15:55:11.000Z</time>
        <extensions>
          <ns3:TrackPointExtension>
            <ns3:hr>136</ns3:hr>
            <ns3:cad>55</ns3:cad>
          </ns3:TrackPointExtension>
        </extensions>
      </trkpt>
      <trkpt lat="45.3061687946319580078125" lon="-70.90177486650645732879638671875">
        <ele>615.20001220703125</ele>
        <time>2026-08-21T15:55:12.000Z</time>
        <extensions>
          <ns3:TrackPointExtension>
            <ns3:hr>136</ns3:hr>
            <ns3:cad>55</ns3:cad>
          </ns3:TrackPointExtension>
        </extensions>
      </trkpt>
      <trkpt lat="45.30618396587669849395751953125" lon="-70.9017774648964405059814453125">
        <ele>615.20001220703125</ele>
        <time>2026-08-21T15:55:13.000Z</time>
        <extensions>
          <ns3:TrackPointExtension>
            <ns3:hr>136</ns3:hr>
            <ns3:cad>55</ns3:cad>
          </ns3:TrackPointExtension>
        </extensions>
      </trkpt>
      <trkpt lat="45.3061991371214389801025390625" lon="-70.90178333222866058349609375">
        <ele>615.20001220703125</ele>
        <time>2026-08-21T15:55:14.000Z</time>
        <extensions>
          <ns3:TrackPointExtension>
            <ns3:hr>136</ns3:hr>
            <ns3:cad>61</ns3:cad>
          </ns3:TrackPointExtension>
        </extensions>
      </trkpt>
      <trkpt lat="45.3062115423381328582763671875" lon="-70.9017918817698955535888671875">
        <ele>615.20001220703125</ele>
        <time>2026-08-21T15:55:15.000Z</time>
        <extensions>
          <ns3:TrackPointExtension>
            <ns3:hr>136</ns3:hr>
            <ns3:cad>61</ns3:cad>
          </ns3:TrackPointExtension>
        </extensions>
      </trkpt>
      <trkpt lat="45.30622981488704681396484375" lon="-70.90179146267473697662353515625">
        <ele>615.20001220703125</ele>
        <time>2026-08-21T15:55:16.000Z</time>
        <extensions>
          <ns3:TrackPointExtension>
            <ns3:hr>137</ns3:hr>
            <ns3:cad>61</ns3:cad>
          </ns3:TrackPointExtension>
        </extensions>
      </trkpt>
      <trkpt lat="45.30624062754213809967041015625" lon="-70.90179330669343471527099609375">
        <ele>615.20001220703125</ele>
        <time>2026-08-21T15:55:17.000Z</time>
        <extensions>
          <ns3:TrackPointExtension>
            <ns3:hr>137</ns3:hr>
            <ns3:cad>61</ns3:cad>
          </ns3:TrackPointExtension>
        </extensions>
      </trkpt>
      <trkpt lat="45.3062531165778636932373046875" lon="-70.901796407997608184814453125">
        <ele>615.20001220703125</ele>
        <time>2026-08-21T15:55:18.000Z</time>
        <extensions>
          <ns3:TrackPointExtension>
            <ns3:hr>138</ns3:hr>
            <ns3:cad>61</ns3:cad>
          </ns3:TrackPointExtension>
        </extensions>
      </trkpt>
      <trkpt lat="45.30626694671809673309326171875" lon="-70.90179716236889362335205078125">
        <ele>615.20001220703125</ele>
        <time>2026-08-21T15:55:19.000Z</time>
        <extensions>
          <ns3:TrackPointExtension>
            <ns3:hr>138</ns3:hr>
            <ns3:cad>61</ns3:cad>
          </ns3:TrackPointExtension>
        </extensions>
      </trkpt>
      <trkpt lat="45.3062715567648410797119140625" lon="-70.90180235914885997772216796875">
        <ele>615.20001220703125</ele>
        <time>2026-08-21T15:55:20.000Z</time>
        <extensions>
          <ns3:TrackPointExtension>
            <ns3:hr>138</ns3:hr>
            <ns3:cad>61</ns3:cad>
          </ns3:TrackPointExtension>
        </extensions>
      </trkpt>
      <trkpt lat="45.30628605745732784271240234375" lon="-70.90180956758558750152587890625">
        <ele>615.20001220703125</ele>
        <time>2026-08-21T15:55:21.000Z</time>
        <extensions>
          <ns3:TrackPointExtension>
            <ns3:hr>139</ns3:hr>
            <ns3:cad>61</ns3:cad>
          </ns3:TrackPointExtension>
        </extensions>
      </trkpt>
      <trkpt lat="45.306302569806575775146484375" lon="-70.90181007049977779388427734375">
        <ele>615.20001220703125</ele>
        <time>2026-08-21T15:55:22.000Z</time>
        <extensions>
          <ns3:TrackPointExtension>
            <ns3:hr>139</ns3:hr>
            <ns3:cad>0</ns3:cad>
          </ns3:TrackPointExtension>
        </extensions>
      </trkpt>
      <trkpt lat="45.30631790868937969207763671875" lon="-70.9018106572329998016357421875">
        <ele>615.20001220703125</ele>
        <time>2026-08-21T15:55:23.000Z</time>
        <extensions>
          <ns3:TrackPointExtension>
            <ns3:hr>138</ns3:hr>
            <ns3:cad>0</ns3:cad>
          </ns3:TrackPointExtension>
        </extensions>
      </trkpt>
      <trkpt lat="45.3063372708857059478759765625" lon="-70.90181962586939334869384765625">
        <ele>615</ele>
        <time>2026-08-21T15:55:24.000Z</time>
        <extensions>
          <ns3:TrackPointExtension>
            <ns3:hr>138</ns3:hr>
            <ns3:cad>0</ns3:cad>
          </ns3:TrackPointExtension>
        </extensions>
      </trkpt>
      <trkpt lat="45.3063533641397953033447265625" lon="-70.90182884596288204193115234375">
        <ele>615</ele>
        <time>2026-08-21T15:55:25.000Z</time>
        <extensions>
          <ns3:TrackPointExtension>
            <ns3:hr>138</ns3:hr>
            <ns3:cad>0</ns3:cad>
          </ns3:TrackPointExtension>
        </extensions>
      </trkpt>
      <trkpt lat="45.306374989449977874755859375" lon="-70.90183035470545291900634765625">
        <ele>614.79998779296875</ele>
        <time>2026-08-21T15:55:26.000Z</time>
        <extensions>
          <ns3:TrackPointExtension>
            <ns3:hr>138</ns3:hr>
            <ns3:cad>0</ns3:cad>
          </ns3:TrackPointExtension>
        </extensions>
      </trkpt>
      <trkpt lat="45.30639636330306529998779296875" lon="-70.90183697640895843505859375">
        <ele>614.5999755859375</ele>
        <time>2026-08-21T15:55:27.000Z</time>
        <extensions>
          <ns3:TrackPointExtension>
            <ns3:hr>138</ns3:hr>
            <ns3:cad>0</ns3:cad>
          </ns3:TrackPointExtension>
        </extensions>
      </trkpt>
      <trkpt lat="45.30641128309071063995361328125" lon="-70.90184225700795650482177734375">
        <ele>614.4000244140625</ele>
        <time>2026-08-21T15:55:28.000Z</time>
        <extensions>
          <ns3:TrackPointExtension>
            <ns3:hr>138</ns3:hr>
            <ns3:cad>0</ns3:cad>
          </ns3:TrackPointExtension>
        </extensions>
      </trkpt>
      <trkpt lat="45.3064355067908763885498046875" lon="-70.9018404968082904815673828125">
        <ele>614.4000244140625</ele>
        <time>2026-08-21T15:55:29.000Z</time>
        <extensions>
          <ns3:TrackPointExtension>
            <ns3:hr>137</ns3:hr>
            <ns3:cad>0</ns3:cad>
          </ns3:TrackPointExtension>
        </extensions>
      </trkpt>
      <trkpt lat="45.3064569644629955291748046875" lon="-70.90183923952281475067138671875">
        <ele>614.20001220703125</ele>
        <time>2026-08-21T15:55:30.000Z</time>
        <extensions>
          <ns3:TrackPointExtension>
            <ns3:hr>137</ns3:hr>
            <ns3:cad>0</ns3:cad>
          </ns3:TrackPointExtension>
        </extensions>
      </trkpt>
      <trkpt lat="45.30647330917418003082275390625" lon="-70.90183672495186328887939453125">
        <ele>614.20001220703125</ele>
        <time>2026-08-21T15:55:31.000Z</time>
        <extensions>
          <ns3:TrackPointExtension>
            <ns3:hr>137</ns3:hr>
            <ns3:cad>70</ns3:cad>
          </ns3:TrackPointExtension>
        </extensions>
      </trkpt>
      <trkpt lat="45.30649258755147457122802734375" lon="-70.901835300028324127197265625">
        <ele>614.20001220703125</ele>
        <time>2026-08-21T15:55:32.000Z</time>
        <extensions>
          <ns3:TrackPointExtension>
            <ns3:hr>137</ns3:hr>
            <ns3:cad>70</ns3:cad>
          </ns3:TrackPointExtension>
        </extensions>
      </trkpt>
      <trkpt lat="45.30650683678686618804931640625" lon="-70.901838652789592742919921875">
        <ele>614.20001220703125</ele>
        <time>2026-08-21T15:55:33.000Z</time>
        <extensions>
          <ns3:TrackPointExtension>
            <ns3:hr>137</ns3:hr>
            <ns3:cad>70</ns3:cad>
          </ns3:TrackPointExtension>
        </extensions>
      </trkpt>
      <trkpt lat="45.30651622451841831207275390625" lon="-70.90183856897056102752685546875">
        <ele>614.20001220703125</ele>
        <time>2026-08-21T15:55:34.000Z</time>
        <extensions>
          <ns3:TrackPointExtension>
            <ns3:hr>137</ns3:hr>
            <ns3:cad>70</ns3:cad>
          </ns3:TrackPointExtension>
        </extensions>
      </trkpt>
      <trkpt lat="45.3065256960690021514892578125" lon="-70.90184678323566913604736328125">
        <ele>614.4000244140625</ele>
        <time>2026-08-21T15:55:35.000Z</time>
        <extensions>
          <ns3:TrackPointExtension>
            <ns3:hr>136</ns3:hr>
            <ns3:cad>70</ns3:cad>
          </ns3:TrackPointExtension>
        </extensions>
      </trkpt>
      <trkpt lat="45.30653332360088825225830078125" lon="-70.9018579311668872833251953125">
        <ele>614.4000244140625</ele>
        <time>2026-08-21T15:55:36.000Z</time>
        <extensions>
          <ns3:TrackPointExtension>
            <ns3:hr>137</ns3:hr>
            <ns3:cad>71</ns3:cad>
          </ns3:TrackPointExtension>
        </extensions>
      </trkpt>
      <trkpt lat="45.30654505826532840728759765625" lon="-70.9018711745738983154296875">
        <ele>614.5999755859375</ele>
        <time>2026-08-21T15:55:37.000Z</time>
        <extensions>
          <ns3:TrackPointExtension>
            <ns3:hr>136</ns3:hr>
            <ns3:cad>71</ns3:cad>
          </ns3:TrackPointExtension>
        </extensions>
      </trkpt>
      <trkpt lat="45.3065609000623226165771484375" lon="-70.90187746100127696990966796875">
        <ele>614.5999755859375</ele>
        <time>2026-08-21T15:55:38.000Z</time>
        <extensions>
          <ns3:TrackPointExtension>
            <ns3:hr>136</ns3:hr>
            <ns3:cad>71</ns3:cad>
          </ns3:TrackPointExtension>
        </extensions>
      </trkpt>
      <trkpt lat="45.3065778315067291259765625" lon="-70.90187796391546726226806640625">
        <ele>614.4000244140625</ele>
        <time>2026-08-21T15:55:39.000Z</time>
        <extensions>
          <ns3:TrackPointExtension>
            <ns3:hr>136</ns3:hr>
            <ns3:cad>0</ns3:cad>
          </ns3:TrackPointExtension>
        </extensions>
      </trkpt>
      <trkpt lat="45.306595601141452789306640625" lon="-70.9018767066299915313720703125">
        <ele>614.4000244140625</ele>
        <time>2026-08-21T15:55:40.000Z</time>
        <extensions>
          <ns3:TrackPointExtension>
            <ns3:hr>136</ns3:hr>
            <ns3:cad>0</ns3:cad>
          </ns3:TrackPointExtension>
        </extensions>
      </trkpt>
      <trkpt lat="45.3066142089664936065673828125" lon="-70.90188198722898960113525390625">
        <ele>614.20001220703125</ele>
        <time>2026-08-21T15:55:41.000Z</time>
        <extensions>
          <ns3:TrackPointExtension>
            <ns3:hr>136</ns3:hr>
            <ns3:cad>0</ns3:cad>
          </ns3:TrackPointExtension>
        </extensions>
      </trkpt>
      <trkpt lat="45.3066282905638217926025390625" lon="-70.9018810652196407318115234375">
        <ele>614.20001220703125</ele>
        <time>2026-08-21T15:55:42.000Z</time>
        <extensions>
          <ns3:TrackPointExtension>
            <ns3:hr>135</ns3:hr>
            <ns3:cad>0</ns3:cad>
          </ns3:TrackPointExtension>
        </extensions>
      </trkpt>
      <trkpt lat="45.306631810963153839111328125" lon="-70.90189254842698574066162109375">
        <ele>614</ele>
        <time>2026-08-21T15:55:43.000Z</time>
        <extensions>
          <ns3:TrackPointExtension>
            <ns3:hr>135</ns3:hr>
            <ns3:cad>0</ns3:cad>
          </ns3:TrackPointExtension>
        </extensions>
      </trkpt>
      <trkpt lat="45.30664329417049884796142578125" lon="-70.901907049119472503662109375">
        <ele>614</ele>
        <time>2026-08-21T15:55:44.000Z</time>
        <extensions>
          <ns3:TrackPointExtension>
            <ns3:hr>134</ns3:hr>
            <ns3:cad>0</ns3:cad>
          </ns3:TrackPointExtension>
        </extensions>
      </trkpt>
      <trkpt lat="45.30665016733109951019287109375" lon="-70.90191417373716831207275390625">
        <ele>614</ele>
        <time>2026-08-21T15:55:45.000Z</time>
        <extensions>
          <ns3:TrackPointExtension>
            <ns3:hr>134</ns3:hr>
            <ns3:cad>0</ns3:cad>
          </ns3:TrackPointExtension>
        </extensions>
      </trkpt>
      <trkpt lat="45.3066621534526348114013671875" lon="-70.901923477649688720703125">
        <ele>613.79998779296875</ele>
        <time>2026-08-21T15:55:46.000Z</time>
        <extensions>
          <ns3:TrackPointExtension>
            <ns3:hr>134</ns3:hr>
            <ns3:cad>0</ns3:cad>
          </ns3:TrackPointExtension>
        </extensions>
      </trkpt>
      <trkpt lat="45.3066822700202465057373046875" lon="-70.9019407443702220916748046875">
        <ele>613.5999755859375</ele>
        <time>2026-08-21T15:55:47.000Z</time>
        <extensions>
          <ns3:TrackPointExtension>
            <ns3:hr>134</ns3:hr>
            <ns3:cad>0</ns3:cad>
          </ns3:TrackPointExtension>
        </extensions>
      </trkpt>
      <trkpt lat="45.306704901158809661865234375" lon="-70.9019444324076175689697265625">
        <ele>613.4000244140625</ele>
        <time>2026-08-21T15:55:48.000Z</time>
        <extensions>
          <ns3:TrackPointExtension>
            <ns3:hr>134</ns3:hr>
            <ns3:cad>68</ns3:cad>
          </ns3:TrackPointExtension>
        </extensions>
      </trkpt>
      <trkpt lat="45.30672912485897541046142578125" lon="-70.9019427560269832611083984375">
        <ele>613.20001220703125</ele>
        <time>2026-08-21T15:55:49.000Z</time>
        <extensions>
          <ns3:TrackPointExtension>
            <ns3:hr>135</ns3:hr>
            <ns3:cad>68</ns3:cad>
          </ns3:TrackPointExtension>
        </extensions>
      </trkpt>
      <trkpt lat="45.30675024725496768951416015625" lon="-70.90192959643900394439697265625">
        <ele>613</ele>
        <time>2026-08-21T15:55:50.000Z</time>
        <extensions>
          <ns3:TrackPointExtension>
            <ns3:hr>135</ns3:hr>
            <ns3:cad>68</ns3:cad>
          </ns3:TrackPointExtension>
        </extensions>
      </trkpt>
      <trkpt lat="45.3067674301564693450927734375" lon="-70.9019159339368343353271484375">
        <ele>613</ele>
        <time>2026-08-21T15:55:51.000Z</time>
        <extensions>
          <ns3:TrackPointExtension>
            <ns3:hr>136</ns3:hr>
            <ns3:cad>68</ns3:cad>
          </ns3:TrackPointExtension>
        </extensions>
      </trkpt>
      <trkpt lat="45.30678075738251209259033203125" lon="-70.90190093033015727996826171875">
        <ele>613</ele>
        <time>2026-08-21T15:55:52.000Z</time>
        <extensions>
          <ns3:TrackPointExtension>
            <ns3:hr>136</ns3:hr>
            <ns3:cad>68</ns3:cad>
          </ns3:TrackPointExtension>
        </extensions>
      </trkpt>
      <trkpt lat="45.306793749332427978515625" lon="-70.9018877707421779632568359375">
        <ele>613.4000244140625</ele>
        <time>2026-08-21T15:55:53.000Z</time>
        <extensions>
          <ns3:TrackPointExtension>
            <ns3:hr>136</ns3:hr>
            <ns3:cad>68</ns3:cad>
          </ns3:TrackPointExtension>
        </extensions>
      </trkpt>
      <trkpt lat="45.30680841766297817230224609375" lon="-70.901875197887420654296875">
        <ele>613.5999755859375</ele>
        <time>2026-08-21T15:55:54.000Z</time>
        <extensions>
          <ns3:TrackPointExtension>
            <ns3:hr>136</ns3:hr>
            <ns3:cad>68</ns3:cad>
          </ns3:TrackPointExtension>
        </extensions>
      </trkpt>
      <trkpt lat="45.30682199634611606597900390625" lon="-70.90186472050845623016357421875">
        <ele>613.79998779296875</ele>
        <time>2026-08-21T15:55:55.000Z</time>
        <extensions>
          <ns3:TrackPointExtension>
            <ns3:hr>137</ns3:hr>
            <ns3:cad>68</ns3:cad>
          </ns3:TrackPointExtension>
        </extensions>
      </trkpt>
      <trkpt lat="45.30683808960020542144775390625" lon="-70.90186421759426593780517578125">
        <ele>613.79998779296875</ele>
        <time>2026-08-21T15:55:56.000Z</time>
        <extensions>
          <ns3:TrackPointExtension>
            <ns3:hr>137</ns3:hr>
            <ns3:cad>68</ns3:cad>
          </ns3:TrackPointExtension>
        </extensions>
      </trkpt>
      <trkpt lat="45.30685451813042163848876953125" lon="-70.901866145431995391845703125">
        <ele>613.79998779296875</ele>
        <time>2026-08-21T15:55:57.000Z</time>
        <extensions>
          <ns3:TrackPointExtension>
            <ns3:hr>136</ns3:hr>
            <ns3:cad>68</ns3:cad>
          </ns3:TrackPointExtension>
        </extensions>
      </trkpt>
      <trkpt lat="45.30686960555613040924072265625" lon="-70.90186656452715396881103515625">
        <ele>613.79998779296875</ele>
        <time>2026-08-21T15:55:58.000Z</time>
        <extensions>
          <ns3:TrackPointExtension>
            <ns3:hr>136</ns3:hr>
            <ns3:cad>68</ns3:cad>
          </ns3:TrackPointExtension>
        </extensions>
      </trkpt>
      <trkpt lat="45.3068854473531246185302734375" lon="-70.90186438523232936859130859375">
        <ele>613.5999755859375</ele>
        <time>2026-08-21T15:55:59.000Z</time>
        <extensions>
          <ns3:TrackPointExtension>
            <ns3:hr>135</ns3:hr>
            <ns3:cad>71</ns3:cad>
          </ns3:TrackPointExtension>
        </extensions>
      </trkpt>
      <trkpt lat="45.30689927749335765838623046875" lon="-70.90185566805303096771240234375">
        <ele>613.5999755859375</ele>
        <time>2026-08-21T15:56:00.000Z</time>
        <extensions>
          <ns3:TrackPointExtension>
            <ns3:hr>135</ns3:hr>
            <ns3:cad>71</ns3:cad>
          </ns3:TrackPointExtension>
        </extensions>
      </trkpt>
      <trkpt lat="45.30691335909068584442138671875" lon="-70.90183638967573642730712890625">
        <ele>613.5999755859375</ele>
        <time>2026-08-21T15:56:01.000Z</time>
        <extensions>
          <ns3:TrackPointExtension>
            <ns3:hr>135</ns3:hr>
            <ns3:cad>71</ns3:cad>
          </ns3:TrackPointExtension>
        </extensions>
      </trkpt>
      <trkpt lat="45.30692123807966709136962890625" lon="-70.90182088315486907958984375">
        <ele>613.5999755859375</ele>
        <time>2026-08-21T15:56:02.000Z</time>
        <extensions>
          <ns3:TrackPointExtension>
            <ns3:hr>135</ns3:hr>
            <ns3:cad>71</ns3:cad>
          </ns3:TrackPointExtension>
        </extensions>
      </trkpt>
      <trkpt lat="45.3069323860108852386474609375" lon="-70.90180738829076290130615234375">
        <ele>613.5999755859375</ele>
        <time>2026-08-21T15:56:03.000Z</time>
        <extensions>
          <ns3:TrackPointExtension>
            <ns3:hr>136</ns3:hr>
            <ns3:cad>68</ns3:cad>
          </ns3:TrackPointExtension>
        </extensions>
      </trkpt>
      <trkpt lat="45.30694521032273769378662109375" lon="-70.90179263614118099212646484375">
        <ele>613.79998779296875</ele>
        <time>2026-08-21T15:56:04.000Z</time>
        <extensions>
          <ns3:TrackPointExtension>
            <ns3:hr>136</ns3:hr>
            <ns3:cad>68</ns3:cad>
          </ns3:TrackPointExtension>
        </extensions>
      </trkpt>
      <trkpt lat="45.30695912428200244903564453125" lon="-70.90178509242832660675048828125">
        <ele>613.79998779296875</ele>
        <time>2026-08-21T15:56:05.000Z</time>
        <extensions>
          <ns3:TrackPointExtension>
            <ns3:hr>136</ns3:hr>
            <ns3:cad>68</ns3:cad>
          </ns3:TrackPointExtension>
        </extensions>
      </trkpt>
      <trkpt lat="45.30697689391672611236572265625" lon="-70.90177436359226703643798828125">
        <ele>614</ele>
        <time>2026-08-21T15:56:06.000Z</time>
        <extensions>
          <ns3:TrackPointExtension>
            <ns3:hr>136</ns3:hr>
            <ns3:cad>68</ns3:cad>
          </ns3:TrackPointExtension>
        </extensions>
      </trkpt>
      <trkpt lat="45.3069900535047054290771484375" lon="-70.90176011435687541961669921875">
        <ele>614</ele>
        <time>2026-08-21T15:56:07.000Z</time>
        <extensions>
          <ns3:TrackPointExtension>
            <ns3:hr>137</ns3:hr>
            <ns3:cad>68</ns3:cad>
          </ns3:TrackPointExtension>
        </extensions>
      </trkpt>
      <trkpt lat="45.30700094997882843017578125" lon="-70.9017402492463588714599609375">
        <ele>614</ele>
        <time>2026-08-21T15:56:08.000Z</time>
        <extensions>
          <ns3:TrackPointExtension>
            <ns3:hr>137</ns3:hr>
            <ns3:cad>68</ns3:cad>
          </ns3:TrackPointExtension>
        </extensions>
      </trkpt>
      <trkpt lat="45.3070091642439365386962890625" lon="-70.90173010714352130889892578125">
        <ele>614.20001220703125</ele>
        <time>2026-08-21T15:56:09.000Z</time>
        <extensions>
          <ns3:TrackPointExtension>
            <ns3:hr>137</ns3:hr>
            <ns3:cad>68</ns3:cad>
          </ns3:TrackPointExtension>
        </extensions>
      </trkpt>
      <trkpt lat="45.30702014453709125518798828125" lon="-70.90171686373651027679443359375">
        <ele>614.20001220703125</ele>
        <time>2026-08-21T15:56:10.000Z</time>
        <extensions>
          <ns3:TrackPointExtension>
            <ns3:hr>137</ns3:hr>
            <ns3:cad>68</ns3:cad>
          </ns3:TrackPointExtension>
        </extensions>
      </trkpt>
      <trkpt lat="45.30703053809702396392822265625" lon="-70.9017026983201503753662109375">
        <ele>614.4000244140625</ele>
        <time>2026-08-21T15:56:11.000Z</time>
        <extensions>
          <ns3:TrackPointExtension>
            <ns3:hr>137</ns3:hr>
            <ns3:cad>68</ns3:cad>
          </ns3:TrackPointExtension>
        </extensions>
      </trkpt>
      <trkpt lat="45.30704126693308353424072265625" lon="-70.90168568305671215057373046875">
        <ele>614.4000244140625</ele>
        <time>2026-08-21T15:56:12.000Z</time>
        <extensions>
          <ns3:TrackPointExtension>
            <ns3:hr>137</ns3:hr>
            <ns3:cad>68</ns3:cad>
          </ns3:TrackPointExtension>
        </extensions>
      </trkpt>
      <trkpt lat="45.307056941092014312744140625" lon="-70.90167227201163768768310546875">
        <ele>614.4000244140625</ele>
        <time>2026-08-21T15:56:13.000Z</time>
        <extensions>
          <ns3:TrackPointExtension>
            <ns3:hr>137</ns3:hr>
            <ns3:cad>68</ns3:cad>
          </ns3:TrackPointExtension>
        </extensions>
      </trkpt>
      <trkpt lat="45.30706725083291530609130859375" lon="-70.90165567584335803985595703125">
        <ele>614.5999755859375</ele>
        <time>2026-08-21T15:56:14.000Z</time>
        <extensions>
          <ns3:TrackPointExtension>
            <ns3:hr>137</ns3:hr>
            <ns3:cad>68</ns3:cad>
          </ns3:TrackPointExtension>
        </extensions>
      </trkpt>
      <trkpt lat="45.3070802427828311920166015625" lon="-70.90163522399961948394775390625">
        <ele>614.5999755859375</ele>
        <time>2026-08-21T15:56:15.000Z</time>
        <extensions>
          <ns3:TrackPointExtension>
            <ns3:hr>138</ns3:hr>
            <ns3:cad>68</ns3:cad>
          </ns3:TrackPointExtension>
        </extensions>
      </trkpt>
      <trkpt lat="45.3070866130292415618896484375" lon="-70.90161167085170745849609375">
        <ele>614.79998779296875</ele>
        <time>2026-08-21T15:56:16.000Z</time>
        <extensions>
          <ns3:TrackPointExtension>
            <ns3:hr>138</ns3:hr>
            <ns3:cad>56</ns3:cad>
          </ns3:TrackPointExtension>
        </extensions>
      </trkpt>
      <trkpt lat="45.30709373764693737030029296875" lon="-70.901591219007968902587890625">
        <ele>615</ele>
        <time>2026-08-21T15:56:17.000Z</time>
        <extensions>
          <ns3:TrackPointExtension>
            <ns3:hr>138</ns3:hr>
            <ns3:cad>56</ns3:cad>
          </ns3:TrackPointExtension>
        </extensions>
      </trkpt>
      <trkpt lat="45.30709742568433284759521484375" lon="-70.9015695936977863311767578125">
        <ele>615.20001220703125</ele>
        <time>2026-08-21T15:56:18.000Z</time>
        <extensions>
          <ns3:TrackPointExtension>
            <ns3:hr>138</ns3:hr>
            <ns3:cad>54</ns3:cad>
          </ns3:TrackPointExtension>
        </extensions>
      </trkpt>
      <trkpt lat="45.30709750950336456298828125" lon="-70.90155073441565036773681640625">
        <ele>615.4000244140625</ele>
        <time>2026-08-21T15:56:19.000Z</time>
        <extensions>
          <ns3:TrackPointExtension>
            <ns3:hr>139</ns3:hr>
            <ns3:cad>54</ns3:cad>
          </ns3:TrackPointExtension>
        </extensions>
      </trkpt>
      <trkpt lat="45.307103209197521209716796875" lon="-70.9015330485999584197998046875">
        <ele>615.5999755859375</ele>
        <time>2026-08-21T15:56:20.000Z</time>
        <extensions>
          <ns3:TrackPointExtension>
            <ns3:hr>139</ns3:hr>
            <ns3:cad>53</ns3:cad>
          </ns3:TrackPointExtension>
        </extensions>
      </trkpt>
      <trkpt lat="45.30710865743458271026611328125" lon="-70.90151469223201274871826171875">
        <ele>615.5999755859375</ele>
        <time>2026-08-21T15:56:21.000Z</time>
        <extensions>
          <ns3:TrackPointExtension>
            <ns3:hr>139</ns3:hr>
            <ns3:cad>53</ns3:cad>
          </ns3:TrackPointExtension>
        </extensions>
      </trkpt>
      <trkpt lat="45.3071137703955173492431640625" lon="-70.90149792842566967010498046875">
        <ele>615.79998779296875</ele>
        <time>2026-08-21T15:56:22.000Z</time>
        <extensions>
          <ns3:TrackPointExtension>
            <ns3:hr>140</ns3:hr>
            <ns3:cad>56</ns3:cad>
          </ns3:TrackPointExtension>
        </extensions>
      </trkpt>
      <trkpt lat="45.30712173320353031158447265625" lon="-70.90148183517158031463623046875">
        <ele>616</ele>
        <time>2026-08-21T15:56:23.000Z</time>
        <extensions>
          <ns3:TrackPointExtension>
            <ns3:hr>140</ns3:hr>
            <ns3:cad>56</ns3:cad>
          </ns3:TrackPointExtension>
        </extensions>
      </trkpt>
      <trkpt lat="45.30713078565895557403564453125" lon="-70.90146490372717380523681640625">
        <ele>616.20001220703125</ele>
        <time>2026-08-21T15:56:24.000Z</time>
        <extensions>
          <ns3:TrackPointExtension>
            <ns3:hr>140</ns3:hr>
            <ns3:cad>56</ns3:cad>
          </ns3:TrackPointExtension>
        </extensions>
      </trkpt>
      <trkpt lat="45.30713908374309539794921875" lon="-70.90144881047308444976806640625">
        <ele>616.20001220703125</ele>
        <time>2026-08-21T15:56:25.000Z</time>
        <extensions>
          <ns3:TrackPointExtension>
            <ns3:hr>141</ns3:hr>
            <ns3:cad>0</ns3:cad>
          </ns3:TrackPointExtension>
        </extensions>
      </trkpt>
      <trkpt lat="45.3071476332843303680419921875" lon="-70.90143305249512195587158203125">
        <ele>616.4000244140625</ele>
        <time>2026-08-21T15:56:26.000Z</time>
        <extensions>
          <ns3:TrackPointExtension>
            <ns3:hr>141</ns3:hr>
            <ns3:cad>0</ns3:cad>
          </ns3:TrackPointExtension>
        </extensions>
      </trkpt>
      <trkpt lat="45.30715459026396274566650390625" lon="-70.9014250896871089935302734375">
        <ele>616.4000244140625</ele>
        <time>2026-08-21T15:56:27.000Z</time>
        <extensions>
          <ns3:TrackPointExtension>
            <ns3:hr>142</ns3:hr>
            <ns3:cad>0</ns3:cad>
          </ns3:TrackPointExtension>
        </extensions>
      </trkpt>
      <trkpt lat="45.3071583621203899383544921875" lon="-70.901411511003971099853515625">
        <ele>616.4000244140625</ele>
        <time>2026-08-21T15:56:28.000Z</time>
        <extensions>
          <ns3:TrackPointExtension>
            <ns3:hr>142</ns3:hr>
            <ns3:cad>0</ns3:cad>
          </ns3:TrackPointExtension>
        </extensions>
      </trkpt>
      <trkpt lat="45.30716146342456340789794921875" lon="-70.90140111744403839111328125">
        <ele>616.4000244140625</ele>
        <time>2026-08-21T15:56:29.000Z</time>
        <extensions>
          <ns3:TrackPointExtension>
            <ns3:hr>142</ns3:hr>
            <ns3:cad>0</ns3:cad>
          </ns3:TrackPointExtension>
        </extensions>
      </trkpt>
      <trkpt lat="45.3071724437177181243896484375" lon="-70.9013979323208332061767578125">
        <ele>616.4000244140625</ele>
        <time>2026-08-21T15:56:30.000Z</time>
        <extensions>
          <ns3:TrackPointExtension>
            <ns3:hr>143</ns3:hr>
            <ns3:cad>58</ns3:cad>
          </ns3:TrackPointExtension>
        </extensions>
      </trkpt>
      <trkpt lat="45.30718543566763401031494140625" lon="-70.90139432810246944427490234375">
        <ele>616.5999755859375</ele>
        <time>2026-08-21T15:56:31.000Z</time>
        <extensions>
          <ns3:TrackPointExtension>
            <ns3:hr>143</ns3:hr>
            <ns3:cad>58</ns3:cad>
          </ns3:TrackPointExtension>
        </extensions>
      </trkpt>
      <trkpt lat="45.307196080684661865234375" lon="-70.9013815037906169891357421875">
        <ele>616.5999755859375</ele>
        <time>2026-08-21T15:56:32.000Z</time>
        <extensions>
          <ns3:TrackPointExtension>
            <ns3:hr>143</ns3:hr>
            <ns3:cad>58</ns3:cad>
          </ns3:TrackPointExtension>
        </extensions>
      </trkpt>
      <trkpt lat="45.30720689333975315093994140625" lon="-70.90137706138193607330322265625">
        <ele>616.5999755859375</ele>
        <time>2026-08-21T15:56:33.000Z</time>
        <extensions>
          <ns3:TrackPointExtension>
            <ns3:hr>143</ns3:hr>
            <ns3:cad>58</ns3:cad>
          </ns3:TrackPointExtension>
        </extensions>
      </trkpt>
      <trkpt lat="45.3072202205657958984375" lon="-70.90136624872684478759765625">
        <ele>616.5999755859375</ele>
        <time>2026-08-21T15:56:34.000Z</time>
        <extensions>
          <ns3:TrackPointExtension>
            <ns3:hr>143</ns3:hr>
            <ns3:cad>58</ns3:cad>
          </ns3:TrackPointExtension>
        </extensions>
      </trkpt>
      <trkpt lat="45.30723371542990207672119140625" lon="-70.9013523347675800323486328125">
        <ele>616.4000244140625</ele>
        <time>2026-08-21T15:56:35.000Z</time>
        <extensions>
          <ns3:TrackPointExtension>
            <ns3:hr>143</ns3:hr>
            <ns3:cad>0</ns3:cad>
          </ns3:TrackPointExtension>
        </extensions>
      </trkpt>
      <trkpt lat="45.30724243260920047760009765625" lon="-70.90134101919829845428466796875">
        <ele>616.5999755859375</ele>
        <time>2026-08-21T15:56:36.000Z</time>
        <extensions>
          <ns3:TrackPointExtension>
            <ns3:hr>143</ns3:hr>
            <ns3:cad>0</ns3:cad>
          </ns3:TrackPointExtension>
        </extensions>
      </trkpt>
      <trkpt lat="45.3072492219507694244384765625" lon="-70.90132333338260650634765625">
        <ele>616.5999755859375</ele>
        <time>2026-08-21T15:56:37.000Z</time>
        <extensions>
          <ns3:TrackPointExtension>
            <ns3:hr>142</ns3:hr>
            <ns3:cad>0</ns3:cad>
          </ns3:TrackPointExtension>
        </extensions>
      </trkpt>
      <trkpt lat="45.3072549216449260711669921875" lon="-70.90130665339529514312744140625">
        <ele>616.5999755859375</ele>
        <time>2026-08-21T15:56:38.000Z</time>
        <extensions>
          <ns3:TrackPointExtension>
            <ns3:hr>142</ns3:hr>
            <ns3:cad>0</ns3:cad>
          </ns3:TrackPointExtension>
        </extensions>
      </trkpt>
      <trkpt lat="45.30726523138582706451416015625" lon="-70.9012879617512226104736328125">
        <ele>616.5999755859375</ele>
        <time>2026-08-21T15:56:39.000Z</time>
        <extensions>
          <ns3:TrackPointExtension>
            <ns3:hr>142</ns3:hr>
            <ns3:cad>0</ns3:cad>
          </ns3:TrackPointExtension>
        </extensions>
      </trkpt>
      <trkpt lat="45.3072740323841571807861328125" lon="-70.901270695030689239501953125">
        <ele>616.79998779296875</ele>
        <time>2026-08-21T15:56:40.000Z</time>
        <extensions>
          <ns3:TrackPointExtension>
            <ns3:hr>141</ns3:hr>
            <ns3:cad>0</ns3:cad>
          </ns3:TrackPointExtension>
        </extensions>
      </trkpt>
      <trkpt lat="45.30727998353540897369384765625" lon="-70.90125904418528079986572265625">
        <ele>616.79998779296875</ele>
        <time>2026-08-21T15:56:41.000Z</time>
        <extensions>
          <ns3:TrackPointExtension>
            <ns3:hr>141</ns3:hr>
            <ns3:cad>0</ns3:cad>
          </ns3:TrackPointExtension>
        </extensions>
      </trkpt>
      <trkpt lat="45.30729205347597599029541015625" lon="-70.90124881826341152191162109375">
        <ele>616.79998779296875</ele>
        <time>2026-08-21T15:56:42.000Z</time>
        <extensions>
          <ns3:TrackPointExtension>
            <ns3:hr>141</ns3:hr>
            <ns3:cad>61</ns3:cad>
          </ns3:TrackPointExtension>
        </extensions>
      </trkpt>
      <trkpt lat="45.30730663798749446868896484375" lon="-70.90122970752418041229248046875">
        <ele>617</ele>
        <time>2026-08-21T15:56:43.000Z</time>
        <extensions>
          <ns3:TrackPointExtension>
            <ns3:hr>142</ns3:hr>
            <ns3:cad>61</ns3:cad>
          </ns3:TrackPointExtension>
        </extensions>
      </trkpt>
      <trkpt lat="45.30732055194675922393798828125" lon="-70.9012061543762683868408203125">
        <ele>617</ele>
        <time>2026-08-21T15:56:44.000Z</time>
        <extensions>
          <ns3:TrackPointExtension>
            <ns3:hr>142</ns3:hr>
            <ns3:cad>61</ns3:cad>
          </ns3:TrackPointExtension>
        </extensions>
      </trkpt>
      <trkpt lat="45.307333208620548248291015625" lon="-70.9011954255402088165283203125">
        <ele>616.79998779296875</ele>
        <time>2026-08-21T15:56:45.000Z</time>
        <extensions>
          <ns3:TrackPointExtension>
            <ns3:hr>142</ns3:hr>
            <ns3:cad>61</ns3:cad>
          </ns3:TrackPointExtension>
        </extensions>
      </trkpt>
      <trkpt lat="45.30734988860785961151123046875" lon="-70.90118788182735443115234375">
        <ele>616.79998779296875</ele>
        <time>2026-08-21T15:56:46.000Z</time>
        <extensions>
          <ns3:TrackPointExtension>
            <ns3:hr>142</ns3:hr>
            <ns3:cad>61</ns3:cad>
          </ns3:TrackPointExtension>
        </extensions>
      </trkpt>
      <trkpt lat="45.3073662333190441131591796875" lon="-70.9011791646480560302734375">
        <ele>616.79998779296875</ele>
        <time>2026-08-21T15:56:47.000Z</time>
        <extensions>
          <ns3:TrackPointExtension>
            <ns3:hr>143</ns3:hr>
            <ns3:cad>0</ns3:cad>
          </ns3:TrackPointExtension>
        </extensions>
      </trkpt>
      <trkpt lat="45.30737771652638912200927734375" lon="-70.901167429983615875244140625">
        <ele>616.79998779296875</ele>
        <time>2026-08-21T15:56:48.000Z</time>
        <extensions>
          <ns3:TrackPointExtension>
            <ns3:hr>142</ns3:hr>
            <ns3:cad>0</ns3:cad>
          </ns3:TrackPointExtension>
        </extensions>
      </trkpt>
      <trkpt lat="45.30738743953406810760498046875" lon="-70.90115259401500225067138671875">
        <ele>616.79998779296875</ele>
        <time>2026-08-21T15:56:49.000Z</time>
        <extensions>
          <ns3:TrackPointExtension>
            <ns3:hr>142</ns3:hr>
            <ns3:cad>0</ns3:cad>
          </ns3:TrackPointExtension>
        </extensions>
      </trkpt>
      <trkpt lat="45.30739833600819110870361328125" lon="-70.90114119462668895721435546875">
        <ele>616.79998779296875</ele>
        <time>2026-08-21T15:56:50.000Z</time>
        <extensions>
          <ns3:TrackPointExtension>
            <ns3:hr>142</ns3:hr>
            <ns3:cad>0</ns3:cad>
          </ns3:TrackPointExtension>
        </extensions>
      </trkpt>
      <trkpt lat="45.3074168600142002105712890625" lon="-70.9011156298220157623291015625">
        <ele>616.79998779296875</ele>
        <time>2026-08-21T15:56:51.000Z</time>
        <extensions>
          <ns3:TrackPointExtension>
            <ns3:hr>142</ns3:hr>
            <ns3:cad>0</ns3:cad>
          </ns3:TrackPointExtension>
        </extensions>
      </trkpt>
      <trkpt lat="45.3074299357831478118896484375" lon="-70.9010938368737697601318359375">
        <ele>616.79998779296875</ele>
        <time>2026-08-21T15:56:52.000Z</time>
        <extensions>
          <ns3:TrackPointExtension>
            <ns3:hr>143</ns3:hr>
            <ns3:cad>0</ns3:cad>
          </ns3:TrackPointExtension>
        </extensions>
      </trkpt>
      <trkpt lat="45.3074415028095245361328125" lon="-70.90106785297393798828125">
        <ele>617</ele>
        <time>2026-08-21T15:56:53.000Z</time>
        <extensions>
          <ns3:TrackPointExtension>
            <ns3:hr>142</ns3:hr>
            <ns3:cad>0</ns3:cad>
          </ns3:TrackPointExtension>
        </extensions>
      </trkpt>
      <trkpt lat="45.30744913034141063690185546875" lon="-70.90105754323303699493408203125">
        <ele>617</ele>
        <time>2026-08-21T15:56:54.000Z</time>
        <extensions>
          <ns3:TrackPointExtension>
            <ns3:hr>142</ns3:hr>
            <ns3:cad>0</ns3:cad>
          </ns3:TrackPointExtension>
        </extensions>
      </trkpt>
      <trkpt lat="45.30746505595743656158447265625" lon="-70.9010438807308673858642578125">
        <ele>617.20001220703125</ele>
        <time>2026-08-21T15:56:55.000Z</time>
        <extensions>
          <ns3:TrackPointExtension>
            <ns3:hr>141</ns3:hr>
            <ns3:cad>0</ns3:cad>
          </ns3:TrackPointExtension>
        </extensions>
      </trkpt>
      <trkpt lat="45.3074825741350650787353515625" lon="-70.90102502144873142242431640625">
        <ele>617.20001220703125</ele>
        <time>2026-08-21T15:56:56.000Z</time>
        <extensions>
          <ns3:TrackPointExtension>
            <ns3:hr>141</ns3:hr>
            <ns3:cad>0</ns3:cad>
          </ns3:TrackPointExtension>
        </extensions>
      </trkpt>
      <trkpt lat="45.307494141161441802978515625" lon="-70.90100775472819805145263671875">
        <ele>617.20001220703125</ele>
        <time>2026-08-21T15:56:57.000Z</time>
        <extensions>
          <ns3:TrackPointExtension>
            <ns3:hr>141</ns3:hr>
            <ns3:cad>0</ns3:cad>
          </ns3:TrackPointExtension>
        </extensions>
      </trkpt>
      <trkpt lat="45.3075013495981693267822265625" lon="-70.9009915776550769805908203125">
        <ele>617</ele>
        <time>2026-08-21T15:56:58.000Z</time>
        <extensions>
          <ns3:TrackPointExtension>
            <ns3:hr>142</ns3:hr>
            <ns3:cad>0</ns3:cad>
          </ns3:TrackPointExtension>
        </extensions>
      </trkpt>
      <trkpt lat="45.3075110726058483123779296875" lon="-70.90097540058195590972900390625">
        <ele>617</ele>
        <time>2026-08-21T15:56:59.000Z</time>
        <extensions>
          <ns3:TrackPointExtension>
            <ns3:hr>141</ns3:hr>
            <ns3:cad>70</ns3:cad>
          </ns3:TrackPointExtension>
        </extensions>
      </trkpt>
      <trkpt lat="45.30752305872738361358642578125" lon="-70.90095897205173969268798828125">
        <ele>617</ele>
        <time>2026-08-21T15:57:00.000Z</time>
        <extensions>
          <ns3:TrackPointExtension>
            <ns3:hr>142</ns3:hr>
            <ns3:cad>70</ns3:cad>
          </ns3:TrackPointExtension>
        </extensions>
      </trkpt>
      <trkpt lat="45.30753177590668201446533203125" lon="-70.90093550272285938262939453125">
        <ele>616.79998779296875</ele>
        <time>2026-08-21T15:57:01.000Z</time>
        <extensions>
          <ns3:TrackPointExtension>
            <ns3:hr>142</ns3:hr>
            <ns3:cad>70</ns3:cad>
          </ns3:TrackPointExtension>
        </extensions>
      </trkpt>
      <trkpt lat="45.30754007399082183837890625" lon="-70.90091773308813571929931640625">
        <ele>617</ele>
        <time>2026-08-21T15:57:02.000Z</time>
        <extensions>
          <ns3:TrackPointExtension>
            <ns3:hr>142</ns3:hr>
            <ns3:cad>70</ns3:cad>
          </ns3:TrackPointExtension>
        </extensions>
      </trkpt>
      <trkpt lat="45.30754745006561279296875" lon="-70.9008913300931453704833984375">
        <ele>617</ele>
        <time>2026-08-21T15:57:03.000Z</time>
        <extensions>
          <ns3:TrackPointExtension>
            <ns3:hr>142</ns3:hr>
            <ns3:cad>70</ns3:cad>
          </ns3:TrackPointExtension>
        </extensions>
      </trkpt>
      <trkpt lat="45.30755390413105487823486328125" lon="-70.9008698724210262298583984375">
        <ele>617.20001220703125</ele>
        <time>2026-08-21T15:57:04.000Z</time>
        <extensions>
          <ns3:TrackPointExtension>
            <ns3:hr>142</ns3:hr>
            <ns3:cad>70</ns3:cad>
          </ns3:TrackPointExtension>
        </extensions>
      </trkpt>
      <trkpt lat="45.30756161548197269439697265625" lon="-70.9008571319282054901123046875">
        <ele>617.20001220703125</ele>
        <time>2026-08-21T15:57:05.000Z</time>
        <extensions>
          <ns3:TrackPointExtension>
            <ns3:hr>142</ns3:hr>
            <ns3:cad>70</ns3:cad>
          </ns3:TrackPointExtension>
        </extensions>
      </trkpt>
      <trkpt lat="45.3075700812041759490966796875" lon="-70.90084229595959186553955078125">
        <ele>617.20001220703125</ele>
        <time>2026-08-21T15:57:06.000Z</time>
        <extensions>
          <ns3:TrackPointExtension>
            <ns3:hr>143</ns3:hr>
            <ns3:cad>70</ns3:cad>
          </ns3:TrackPointExtension>
        </extensions>
      </trkpt>
      <trkpt lat="45.307580642402172088623046875" lon="-70.90082234703004360198974609375">
        <ele>617.20001220703125</ele>
        <time>2026-08-21T15:57:07.000Z</time>
        <extensions>
          <ns3:TrackPointExtension>
            <ns3:hr>144</ns3:hr>
            <ns3:cad>70</ns3:cad>
          </ns3:TrackPointExtension>
        </extensions>
      </trkpt>
      <trkpt lat="45.3075868450105190277099609375" lon="-70.90080625377595424652099609375">
        <ele>617.4000244140625</ele>
        <time>2026-08-21T15:57:08.000Z</time>
        <extensions>
          <ns3:TrackPointExtension>
            <ns3:hr>144</ns3:hr>
            <ns3:cad>70</ns3:cad>
          </ns3:TrackPointExtension>
        </extensions>
      </trkpt>
      <trkpt lat="45.30759774148464202880859375" lon="-70.9007887355983257293701171875">
        <ele>617.4000244140625</ele>
        <time>2026-08-21T15:57:09.000Z</time>
        <extensions>
          <ns3:TrackPointExtension>
            <ns3:hr>144</ns3:hr>
            <ns3:cad>70</ns3:cad>
          </ns3:TrackPointExtension>
        </extensions>
      </trkpt>
      <trkpt lat="45.30760905705392360687255859375" lon="-70.90077457018196582794189453125">
        <ele>617.5999755859375</ele>
        <time>2026-08-21T15:57:10.000Z</time>
        <extensions>
          <ns3:TrackPointExtension>
            <ns3:hr>145</ns3:hr>
            <ns3:cad>70</ns3:cad>
          </ns3:TrackPointExtension>
        </extensions>
      </trkpt>
      <trkpt lat="45.30762146227061748504638671875" lon="-70.90075780637562274932861328125">
        <ele>617.5999755859375</ele>
        <time>2026-08-21T15:57:11.000Z</time>
        <extensions>
          <ns3:TrackPointExtension>
            <ns3:hr>145</ns3:hr>
            <ns3:cad>70</ns3:cad>
          </ns3:TrackPointExtension>
        </extensions>
      </trkpt>
      <trkpt lat="45.30763135291635990142822265625" lon="-70.90073668397963047027587890625">
        <ele>617.79998779296875</ele>
        <time>2026-08-21T15:57:12.000Z</time>
        <extensions>
          <ns3:TrackPointExtension>
            <ns3:hr>145</ns3:hr>
            <ns3:cad>70</ns3:cad>
          </ns3:TrackPointExtension>
        </extensions>
      </trkpt>
      <trkpt lat="45.30763872899115085601806640625" lon="-70.90071422047913074493408203125">
        <ele>617.5999755859375</ele>
        <time>2026-08-21T15:57:13.000Z</time>
        <extensions>
          <ns3:TrackPointExtension>
            <ns3:hr>145</ns3:hr>
            <ns3:cad>70</ns3:cad>
          </ns3:TrackPointExtension>
        </extensions>
      </trkpt>
      <trkpt lat="45.3076485358178615570068359375" lon="-70.90069158934056758880615234375">
        <ele>617.5999755859375</ele>
        <time>2026-08-21T15:57:14.000Z</time>
        <extensions>
          <ns3:TrackPointExtension>
            <ns3:hr>145</ns3:hr>
            <ns3:cad>0</ns3:cad>
          </ns3:TrackPointExtension>
        </extensions>
      </trkpt>
      <trkpt lat="45.30765616334974765777587890625" lon="-70.9006775915622711181640625">
        <ele>617.79998779296875</ele>
        <time>2026-08-21T15:57:15.000Z</time>
        <extensions>
          <ns3:TrackPointExtension>
            <ns3:hr>145</ns3:hr>
            <ns3:cad>0</ns3:cad>
          </ns3:TrackPointExtension>
        </extensions>
      </trkpt>
      <trkpt lat="45.30766337178647518157958984375" lon="-70.900659151375293731689453125">
        <ele>617.79998779296875</ele>
        <time>2026-08-21T15:57:16.000Z</time>
        <extensions>
          <ns3:TrackPointExtension>
            <ns3:hr>144</ns3:hr>
            <ns3:cad>0</ns3:cad>
          </ns3:TrackPointExtension>
        </extensions>
      </trkpt>
      <trkpt lat="45.307668484747409820556640625" lon="-70.90064381249248981475830078125">
        <ele>617.79998779296875</ele>
        <time>2026-08-21T15:57:17.000Z</time>
        <extensions>
          <ns3:TrackPointExtension>
            <ns3:hr>144</ns3:hr>
            <ns3:cad>0</ns3:cad>
          </ns3:TrackPointExtension>
        </extensions>
      </trkpt>
      <trkpt lat="45.3076713345944881439208984375" lon="-70.90062419883906841278076171875">
        <ele>617.79998779296875</ele>
        <time>2026-08-21T15:57:18.000Z</time>
        <extensions>
          <ns3:TrackPointExtension>
            <ns3:hr>145</ns3:hr>
            <ns3:cad>0</ns3:cad>
          </ns3:TrackPointExtension>
        </extensions>
      </trkpt>
      <trkpt lat="45.3076773695647716522216796875" lon="-70.90060927905142307281494140625">
        <ele>618</ele>
        <time>2026-08-21T15:57:19.000Z</time>
        <extensions>
          <ns3:TrackPointExtension>
            <ns3:hr>145</ns3:hr>
            <ns3:cad>0</ns3:cad>
          </ns3:TrackPointExtension>
        </extensions>
      </trkpt>
      <trkpt lat="45.307684578001499176025390625" lon="-70.90059419162571430206298828125">
        <ele>618</ele>
        <time>2026-08-21T15:57:20.000Z</time>
        <extensions>
          <ns3:TrackPointExtension>
            <ns3:hr>145</ns3:hr>
            <ns3:cad>0</ns3:cad>
          </ns3:TrackPointExtension>
        </extensions>
      </trkpt>
      <trkpt lat="45.307694636285305023193359375" lon="-70.9005808643996715545654296875">
        <ele>618.20001220703125</ele>
        <time>2026-08-21T15:57:21.000Z</time>
        <extensions>
          <ns3:TrackPointExtension>
            <ns3:hr>145</ns3:hr>
            <ns3:cad>61</ns3:cad>
          </ns3:TrackPointExtension>
        </extensions>
      </trkpt>
      <trkpt lat="45.3077055327594280242919921875" lon="-70.90056695044040679931640625">
        <ele>618.20001220703125</ele>
        <time>2026-08-21T15:57:22.000Z</time>
        <extensions>
          <ns3:TrackPointExtension>
            <ns3:hr>145</ns3:hr>
            <ns3:cad>61</ns3:cad>
          </ns3:TrackPointExtension>
        </extensions>
      </trkpt>
      <trkpt lat="45.307715423405170440673828125" lon="-70.90054926462471485137939453125">
        <ele>618.20001220703125</ele>
        <time>2026-08-21T15:57:23.000Z</time>
        <extensions>
          <ns3:TrackPointExtension>
            <ns3:hr>145</ns3:hr>
            <ns3:cad>56</ns3:cad>
          </ns3:TrackPointExtension>
        </extensions>
      </trkpt>
      <trkpt lat="45.30772204510867595672607421875" lon="-70.90052646584808826446533203125">
        <ele>618.4000244140625</ele>
        <time>2026-08-21T15:57:24.000Z</time>
        <extensions>
          <ns3:TrackPointExtension>
            <ns3:hr>145</ns3:hr>
            <ns3:cad>0</ns3:cad>
          </ns3:TrackPointExtension>
        </extensions>
      </trkpt>
      <trkpt lat="45.307733528316020965576171875" lon="-70.900504924356937408447265625">
        <ele>618.4000244140625</ele>
        <time>2026-08-21T15:57:25.000Z</time>
        <extensions>
          <ns3:TrackPointExtension>
            <ns3:hr>144</ns3:hr>
            <ns3:cad>0</ns3:cad>
          </ns3:TrackPointExtension>
        </extensions>
      </trkpt>
      <trkpt lat="45.3077387250959873199462890625" lon="-70.90048539452254772186279296875">
        <ele>618.4000244140625</ele>
        <time>2026-08-21T15:57:26.000Z</time>
        <extensions>
          <ns3:TrackPointExtension>
            <ns3:hr>144</ns3:hr>
            <ns3:cad>0</ns3:cad>
          </ns3:TrackPointExtension>
        </extensions>
      </trkpt>
      <trkpt lat="45.3077450953423976898193359375" lon="-70.9004651941359043121337890625">
        <ele>618.4000244140625</ele>
        <time>2026-08-21T15:57:27.000Z</time>
        <extensions>
          <ns3:TrackPointExtension>
            <ns3:hr>144</ns3:hr>
            <ns3:cad>0</ns3:cad>
          </ns3:TrackPointExtension>
        </extensions>
      </trkpt>
      <trkpt lat="45.30775473453104496002197265625" lon="-70.900448262691497802734375">
        <ele>618.4000244140625</ele>
        <time>2026-08-21T15:57:28.000Z</time>
        <extensions>
          <ns3:TrackPointExtension>
            <ns3:hr>144</ns3:hr>
            <ns3:cad>0</ns3:cad>
          </ns3:TrackPointExtension>
        </extensions>
      </trkpt>
      <trkpt lat="45.30776261352002620697021484375" lon="-70.90042185969650745391845703125">
        <ele>618.4000244140625</ele>
        <time>2026-08-21T15:57:29.000Z</time>
        <extensions>
          <ns3:TrackPointExtension>
            <ns3:hr>143</ns3:hr>
            <ns3:cad>0</ns3:cad>
          </ns3:TrackPointExtension>
        </extensions>
      </trkpt>
      <trkpt lat="45.30777074396610260009765625" lon="-70.900395624339580535888671875">
        <ele>618.5999755859375</ele>
        <time>2026-08-21T15:57:30.000Z</time>
        <extensions>
          <ns3:TrackPointExtension>
            <ns3:hr>143</ns3:hr>
            <ns3:cad>0</ns3:cad>
          </ns3:TrackPointExtension>
        </extensions>
      </trkpt>
      <trkpt lat="45.3077752701938152313232421875" lon="-70.90037860907614231109619140625">
        <ele>618.5999755859375</ele>
        <time>2026-08-21T15:57:31.000Z</time>
        <extensions>
          <ns3:TrackPointExtension>
            <ns3:hr>143</ns3:hr>
            <ns3:cad>0</ns3:cad>
          </ns3:TrackPointExtension>
        </extensions>
      </trkpt>
      <trkpt lat="45.3077796287834644317626953125" lon="-70.90035731904208660125732421875">
        <ele>618.5999755859375</ele>
        <time>2026-08-21T15:57:32.000Z</time>
        <extensions>
          <ns3:TrackPointExtension>
            <ns3:hr>143</ns3:hr>
            <ns3:cad>0</ns3:cad>
          </ns3:TrackPointExtension>
        </extensions>
      </trkpt>
      <trkpt lat="45.307787843048572540283203125" lon="-70.90033167041838169097900390625">
        <ele>618.5999755859375</ele>
        <time>2026-08-21T15:57:33.000Z</time>
        <extensions>
          <ns3:TrackPointExtension>
            <ns3:hr>143</ns3:hr>
            <ns3:cad>0</ns3:cad>
          </ns3:TrackPointExtension>
        </extensions>
      </trkpt>
      <trkpt lat="45.30779312364757061004638671875" lon="-70.9003049321472644805908203125">
        <ele>618.79998779296875</ele>
        <time>2026-08-21T15:57:34.000Z</time>
        <extensions>
          <ns3:TrackPointExtension>
            <ns3:hr>144</ns3:hr>
            <ns3:cad>0</ns3:cad>
          </ns3:TrackPointExtension>
        </extensions>
      </trkpt>
      <trkpt lat="45.30779563821852207183837890625" lon="-70.900282301008701324462890625">
        <ele>618.79998779296875</ele>
        <time>2026-08-21T15:57:35.000Z</time>
        <extensions>
          <ns3:TrackPointExtension>
            <ns3:hr>143</ns3:hr>
            <ns3:cad>0</ns3:cad>
          </ns3:TrackPointExtension>
        </extensions>
      </trkpt>
      <trkpt lat="45.3077980689704418182373046875" lon="-70.900264866650104522705078125">
        <ele>618.5999755859375</ele>
        <time>2026-08-21T15:57:36.000Z</time>
        <extensions>
          <ns3:TrackPointExtension>
            <ns3:hr>143</ns3:hr>
            <ns3:cad>0</ns3:cad>
          </ns3:TrackPointExtension>
        </extensions>
      </trkpt>
      <trkpt lat="45.3078036010265350341796875" lon="-70.90024600736796855926513671875">
        <ele>618.5999755859375</ele>
        <time>2026-08-21T15:57:37.000Z</time>
        <extensions>
          <ns3:TrackPointExtension>
            <ns3:hr>143</ns3:hr>
            <ns3:cad>0</ns3:cad>
          </ns3:TrackPointExtension>
        </extensions>
      </trkpt>
      <trkpt lat="45.30781592242419719696044921875" lon="-70.90022563934326171875">
        <ele>618.5999755859375</ele>
        <time>2026-08-21T15:57:38.000Z</time>
        <extensions>
          <ns3:TrackPointExtension>
            <ns3:hr>143</ns3:hr>
            <ns3:cad>58</ns3:cad>
          </ns3:TrackPointExtension>
        </extensions>
      </trkpt>
      <trkpt lat="45.30782329849898815155029296875" lon="-70.90020812116563320159912109375">
        <ele>618.79998779296875</ele>
        <time>2026-08-21T15:57:39.000Z</time>
        <extensions>
          <ns3:TrackPointExtension>
            <ns3:hr>143</ns3:hr>
            <ns3:cad>58</ns3:cad>
          </ns3:TrackPointExtension>
        </extensions>
      </trkpt>
      <trkpt lat="45.30783134512603282928466796875" lon="-70.9001919440925121307373046875">
        <ele>618.79998779296875</ele>
        <time>2026-08-21T15:57:40.000Z</time>
        <extensions>
          <ns3:TrackPointExtension>
            <ns3:hr>143</ns3:hr>
            <ns3:cad>58</ns3:cad>
          </ns3:TrackPointExtension>
        </extensions>
      </trkpt>
      <trkpt lat="45.307839810848236083984375" lon="-70.90017492882907390594482421875">
        <ele>618.79998779296875</ele>
        <time>2026-08-21T15:57:41.000Z</time>
        <extensions>
          <ns3:TrackPointExtension>
            <ns3:hr>143</ns3:hr>
            <ns3:cad>58</ns3:cad>
          </ns3:TrackPointExtension>
        </extensions>
      </trkpt>
      <trkpt lat="45.3078476898372173309326171875" lon="-70.9001567400991916656494140625">
        <ele>618.79998779296875</ele>
        <time>2026-08-21T15:57:42.000Z</time>
        <extensions>
          <ns3:TrackPointExtension>
            <ns3:hr>143</ns3:hr>
            <ns3:cad>58</ns3:cad>
          </ns3:TrackPointExtension>
        </extensions>
      </trkpt>
      <trkpt lat="45.30785565264523029327392578125" lon="-70.90014140121638774871826171875">
        <ele>618.79998779296875</ele>
        <time>2026-08-21T15:57:43.000Z</time>
        <extensions>
          <ns3:TrackPointExtension>
            <ns3:hr>143</ns3:hr>
            <ns3:cad>58</ns3:cad>
          </ns3:TrackPointExtension>
        </extensions>
      </trkpt>
      <trkpt lat="45.30786755494773387908935546875" lon="-70.90011910535395145416259765625">
        <ele>619</ele>
        <time>2026-08-21T15:57:44.000Z</time>
        <extensions>
          <ns3:TrackPointExtension>
            <ns3:hr>142</ns3:hr>
            <ns3:cad>58</ns3:cad>
          </ns3:TrackPointExtension>
        </extensions>
      </trkpt>
      <trkpt lat="45.30787677504122257232666015625" lon="-70.90010083280503749847412109375">
        <ele>619</ele>
        <time>2026-08-21T15:57:45.000Z</time>
        <extensions>
          <ns3:TrackPointExtension>
            <ns3:hr>142</ns3:hr>
            <ns3:cad>58</ns3:cad>
          </ns3:TrackPointExtension>
        </extensions>
      </trkpt>
      <trkpt lat="45.30788549222052097320556640625" lon="-70.90007971040904521942138671875">
        <ele>619.20001220703125</ele>
        <time>2026-08-21T15:57:46.000Z</time>
        <extensions>
          <ns3:TrackPointExtension>
            <ns3:hr>142</ns3:hr>
            <ns3:cad>58</ns3:cad>
          </ns3:TrackPointExtension>
        </extensions>
      </trkpt>
      <trkpt lat="45.30789722688496112823486328125" lon="-70.90005825273692607879638671875">
        <ele>619.20001220703125</ele>
        <time>2026-08-21T15:57:47.000Z</time>
        <extensions>
          <ns3:TrackPointExtension>
            <ns3:hr>142</ns3:hr>
            <ns3:cad>58</ns3:cad>
          </ns3:TrackPointExtension>
        </extensions>
      </trkpt>
      <trkpt lat="45.30790527351200580596923828125" lon="-70.9000343643128871917724609375">
        <ele>619.4000244140625</ele>
        <time>2026-08-21T15:57:48.000Z</time>
        <extensions>
          <ns3:TrackPointExtension>
            <ns3:hr>141</ns3:hr>
            <ns3:cad>58</ns3:cad>
          </ns3:TrackPointExtension>
        </extensions>
      </trkpt>
      <trkpt lat="45.307915247976779937744140625" lon="-70.90000226162374019622802734375">
        <ele>619.4000244140625</ele>
        <time>2026-08-21T15:57:49.000Z</time>
        <extensions>
          <ns3:TrackPointExtension>
            <ns3:hr>142</ns3:hr>
            <ns3:cad>58</ns3:cad>
          </ns3:TrackPointExtension>
        </extensions>
      </trkpt>
      <trkpt lat="45.3079284913837909698486328125" lon="-70.8999626152217388153076171875">
        <ele>619.4000244140625</ele>
        <time>2026-08-21T15:57:50.000Z</time>
        <extensions>
          <ns3:TrackPointExtension>
            <ns3:hr>142</ns3:hr>
            <ns3:cad>58</ns3:cad>
          </ns3:TrackPointExtension>
        </extensions>
      </trkpt>
      <trkpt lat="45.30793947167694568634033203125" lon="-70.89993663132190704345703125">
        <ele>619.4000244140625</ele>
        <time>2026-08-21T15:57:51.000Z</time>
        <extensions>
          <ns3:TrackPointExtension>
            <ns3:hr>142</ns3:hr>
            <ns3:cad>58</ns3:cad>
          </ns3:TrackPointExtension>
        </extensions>
      </trkpt>
      <trkpt lat="45.307952463626861572265625" lon="-70.899903438985347747802734375">
        <ele>619.4000244140625</ele>
        <time>2026-08-21T15:57:52.000Z</time>
        <extensions>
          <ns3:TrackPointExtension>
            <ns3:hr>143</ns3:hr>
            <ns3:cad>58</ns3:cad>
          </ns3:TrackPointExtension>
        </extensions>
      </trkpt>
      <trkpt lat="45.3079626895487308502197265625" lon="-70.899873934686183929443359375">
        <ele>619.4000244140625</ele>
        <time>2026-08-21T15:57:53.000Z</time>
        <extensions>
          <ns3:TrackPointExtension>
            <ns3:hr>142</ns3:hr>
            <ns3:cad>58</ns3:cad>
          </ns3:TrackPointExtension>
        </extensions>
      </trkpt>
      <trkpt lat="45.30797115527093410491943359375" lon="-70.89985440485179424285888671875">
        <ele>619.4000244140625</ele>
        <time>2026-08-21T15:57:54.000Z</time>
        <extensions>
          <ns3:TrackPointExtension>
            <ns3:hr>142</ns3:hr>
            <ns3:cad>58</ns3:cad>
          </ns3:TrackPointExtension>
        </extensions>
      </trkpt>
      <trkpt lat="45.30798506923019886016845703125" lon="-70.89983076788485050201416015625">
        <ele>619.5999755859375</ele>
        <time>2026-08-21T15:57:55.000Z</time>
        <extensions>
          <ns3:TrackPointExtension>
            <ns3:hr>141</ns3:hr>
            <ns3:cad>77</ns3:cad>
          </ns3:TrackPointExtension>
        </extensions>
      </trkpt>
      <trkpt lat="45.30799529515206813812255859375" lon="-70.89981568045914173126220703125">
        <ele>619.5999755859375</ele>
        <time>2026-08-21T15:57:56.000Z</time>
        <extensions>
          <ns3:TrackPointExtension>
            <ns3:hr>141</ns3:hr>
            <ns3:cad>77</ns3:cad>
          </ns3:TrackPointExtension>
        </extensions>
      </trkpt>
      <trkpt lat="45.3080049343407154083251953125" lon="-70.89979656971991062164306640625">
        <ele>619.5999755859375</ele>
        <time>2026-08-21T15:57:57.000Z</time>
        <extensions>
          <ns3:TrackPointExtension>
            <ns3:hr>141</ns3:hr>
            <ns3:cad>77</ns3:cad>
          </ns3:TrackPointExtension>
        </extensions>
      </trkpt>
      <trkpt lat="45.30801474116742610931396484375" lon="-70.89977427385747432708740234375">
        <ele>619.79998779296875</ele>
        <time>2026-08-21T15:57:58.000Z</time>
        <extensions>
          <ns3:TrackPointExtension>
            <ns3:hr>140</ns3:hr>
            <ns3:cad>77</ns3:cad>
          </ns3:TrackPointExtension>
        </extensions>
      </trkpt>
      <trkpt lat="45.30802547000348567962646484375" lon="-70.89974929578602313995361328125">
        <ele>619.79998779296875</ele>
        <time>2026-08-21T15:57:59.000Z</time>
        <extensions>
          <ns3:TrackPointExtension>
            <ns3:hr>140</ns3:hr>
            <ns3:cad>77</ns3:cad>
          </ns3:TrackPointExtension>
        </extensions>
      </trkpt>
      <trkpt lat="45.308034606277942657470703125" lon="-70.8997259102761745452880859375">
        <ele>619.79998779296875</ele>
        <time>2026-08-21T15:58:00.000Z</time>
        <extensions>
          <ns3:TrackPointExtension>
            <ns3:hr>140</ns3:hr>
            <ns3:cad>78</ns3:cad>
          </ns3:TrackPointExtension>
        </extensions>
      </trkpt>
      <trkpt lat="45.30804432928562164306640625" lon="-70.89969967491924762725830078125">
        <ele>619.79998779296875</ele>
        <time>2026-08-21T15:58:01.000Z</time>
        <extensions>
          <ns3:TrackPointExtension>
            <ns3:hr>140</ns3:hr>
            <ns3:cad>78</ns3:cad>
          </ns3:TrackPointExtension>
        </extensions>
      </trkpt>
      <trkpt lat="45.30805430375039577484130859375" lon="-70.89967754669487476348876953125">
        <ele>619.5999755859375</ele>
        <time>2026-08-21T15:58:02.000Z</time>
        <extensions>
          <ns3:TrackPointExtension>
            <ns3:hr>140</ns3:hr>
            <ns3:cad>71</ns3:cad>
          </ns3:TrackPointExtension>
        </extensions>
      </trkpt>
      <trkpt lat="45.3080637753009796142578125" lon="-70.89965340681374073028564453125">
        <ele>619.5999755859375</ele>
        <time>2026-08-21T15:58:03.000Z</time>
        <extensions>
          <ns3:TrackPointExtension>
            <ns3:hr>140</ns3:hr>
            <ns3:cad>71</ns3:cad>
          </ns3:TrackPointExtension>
        </extensions>
      </trkpt>
      <trkpt lat="45.308070480823516845703125" lon="-70.89962004683911800384521484375">
        <ele>619.5999755859375</ele>
        <time>2026-08-21T15:58:04.000Z</time>
        <extensions>
          <ns3:TrackPointExtension>
            <ns3:hr>140</ns3:hr>
            <ns3:cad>71</ns3:cad>
          </ns3:TrackPointExtension>
        </extensions>
      </trkpt>
      <trkpt lat="45.30807810835540294647216796875" lon="-70.89959138073027133941650390625">
        <ele>619.5999755859375</ele>
        <time>2026-08-21T15:58:05.000Z</time>
        <extensions>
          <ns3:TrackPointExtension>
            <ns3:hr>140</ns3:hr>
            <ns3:cad>77</ns3:cad>
          </ns3:TrackPointExtension>
        </extensions>
      </trkpt>
      <trkpt lat="45.30808179639279842376708984375" lon="-70.8995609544217586517333984375">
        <ele>619.79998779296875</ele>
        <time>2026-08-21T15:58:06.000Z</time>
        <extensions>
          <ns3:TrackPointExtension>
            <ns3:hr>140</ns3:hr>
            <ns3:cad>77</ns3:cad>
          </ns3:TrackPointExtension>
        </extensions>
      </trkpt>
      <trkpt lat="45.30808984301984310150146484375" lon="-70.89952952228486537933349609375">
        <ele>619.79998779296875</ele>
        <time>2026-08-21T15:58:07.000Z</time>
        <extensions>
          <ns3:TrackPointExtension>
            <ns3:hr>140</ns3:hr>
            <ns3:cad>77</ns3:cad>
          </ns3:TrackPointExtension>
        </extensions>
      </trkpt>
      <trkpt lat="45.30809797346591949462890625" lon="-70.89950471185147762298583984375">
        <ele>619.79998779296875</ele>
        <time>2026-08-21T15:58:08.000Z</time>
        <extensions>
          <ns3:TrackPointExtension>
            <ns3:hr>140</ns3:hr>
            <ns3:cad>77</ns3:cad>
          </ns3:TrackPointExtension>
        </extensions>
      </trkpt>
      <trkpt lat="45.30810995958745479583740234375" lon="-70.89948325417935848236083984375">
        <ele>619.79998779296875</ele>
        <time>2026-08-21T15:58:09.000Z</time>
        <extensions>
          <ns3:TrackPointExtension>
            <ns3:hr>140</ns3:hr>
            <ns3:cad>77</ns3:cad>
          </ns3:TrackPointExtension>
        </extensions>
      </trkpt>
      <trkpt lat="45.30812270008027553558349609375" lon="-70.89946950785815715789794921875">
        <ele>619.79998779296875</ele>
        <time>2026-08-21T15:58:10.000Z</time>
        <extensions>
          <ns3:TrackPointExtension>
            <ns3:hr>139</ns3:hr>
            <ns3:cad>77</ns3:cad>
          </ns3:TrackPointExtension>
        </extensions>
      </trkpt>
      <trkpt lat="45.30813778750598430633544921875" lon="-70.899460203945636749267578125">
        <ele>619.79998779296875</ele>
        <time>2026-08-21T15:58:11.000Z</time>
        <extensions>
          <ns3:TrackPointExtension>
            <ns3:hr>139</ns3:hr>
            <ns3:cad>77</ns3:cad>
          </ns3:TrackPointExtension>
        </extensions>
      </trkpt>
      <trkpt lat="45.3081514500081539154052734375" lon="-70.8994452841579914093017578125">
        <ele>619.5999755859375</ele>
        <time>2026-08-21T15:58:12.000Z</time>
        <extensions>
          <ns3:TrackPointExtension>
            <ns3:hr>139</ns3:hr>
            <ns3:cad>78</ns3:cad>
          </ns3:TrackPointExtension>
        </extensions>
      </trkpt>
      <trkpt lat="45.30816494487226009368896484375" lon="-70.8994348905980587005615234375">
        <ele>619.5999755859375</ele>
        <time>2026-08-21T15:58:13.000Z</time>
        <extensions>
          <ns3:TrackPointExtension>
            <ns3:hr>139</ns3:hr>
            <ns3:cad>78</ns3:cad>
          </ns3:TrackPointExtension>
        </extensions>
      </trkpt>
      <trkpt lat="45.3081806190311908721923828125" lon="-70.8994276821613311767578125">
        <ele>619.4000244140625</ele>
        <time>2026-08-21T15:58:14.000Z</time>
        <extensions>
          <ns3:TrackPointExtension>
            <ns3:hr>139</ns3:hr>
            <ns3:cad>78</ns3:cad>
          </ns3:TrackPointExtension>
        </extensions>
      </trkpt>
      <trkpt lat="45.30819897539913654327392578125" lon="-70.89941561222076416015625">
        <ele>619.4000244140625</ele>
        <time>2026-08-21T15:58:15.000Z</time>
        <extensions>
          <ns3:TrackPointExtension>
            <ns3:hr>139</ns3:hr>
            <ns3:cad>78</ns3:cad>
          </ns3:TrackPointExtension>
        </extensions>
      </trkpt>
      <trkpt lat="45.30821858905255794525146484375" lon="-70.89940446428954601287841796875">
        <ele>619.4000244140625</ele>
        <time>2026-08-21T15:58:16.000Z</time>
        <extensions>
          <ns3:TrackPointExtension>
            <ns3:hr>139</ns3:hr>
            <ns3:cad>78</ns3:cad>
          </ns3:TrackPointExtension>
        </extensions>
      </trkpt>
      <trkpt lat="45.308239459991455078125" lon="-70.8993953280150890350341796875">
        <ele>619.4000244140625</ele>
        <time>2026-08-21T15:58:17.000Z</time>
        <extensions>
          <ns3:TrackPointExtension>
            <ns3:hr>139</ns3:hr>
            <ns3:cad>76</ns3:cad>
          </ns3:TrackPointExtension>
        </extensions>
      </trkpt>
      <trkpt lat="45.30825580470263957977294921875" lon="-70.8993866108357906341552734375">
        <ele>619.4000244140625</ele>
        <time>2026-08-21T15:58:18.000Z</time>
        <extensions>
          <ns3:TrackPointExtension>
            <ns3:hr>139</ns3:hr>
            <ns3:cad>76</ns3:cad>
          </ns3:TrackPointExtension>
        </extensions>
      </trkpt>
      <trkpt lat="45.30826552771031856536865234375" lon="-70.89937713928520679473876953125">
        <ele>619.4000244140625</ele>
        <time>2026-08-21T15:58:19.000Z</time>
        <extensions>
          <ns3:TrackPointExtension>
            <ns3:hr>139</ns3:hr>
            <ns3:cad>50</ns3:cad>
          </ns3:TrackPointExtension>
        </extensions>
      </trkpt>
      <trkpt lat="45.3082818724215030670166015625" lon="-70.8993675000965595245361328125">
        <ele>619.4000244140625</ele>
        <time>2026-08-21T15:58:20.000Z</time>
        <extensions>
          <ns3:TrackPointExtension>
            <ns3:hr>140</ns3:hr>
            <ns3:cad>50</ns3:cad>
          </ns3:TrackPointExtension>
        </extensions>
      </trkpt>
      <trkpt lat="45.3082993067800998687744140625" lon="-70.8993477188050746917724609375">
        <ele>619.4000244140625</ele>
        <time>2026-08-21T15:58:21.000Z</time>
        <extensions>
          <ns3:TrackPointExtension>
            <ns3:hr>141</ns3:hr>
            <ns3:cad>50</ns3:cad>
          </ns3:TrackPointExtension>
        </extensions>
      </trkpt>
      <trkpt lat="45.30831917189061641693115234375" lon="-70.89933003298938274383544921875">
        <ele>619.4000244140625</ele>
        <time>2026-08-21T15:58:22.000Z</time>
        <extensions>
          <ns3:TrackPointExtension>
            <ns3:hr>141</ns3:hr>
            <ns3:cad>75</ns3:cad>
          </ns3:TrackPointExtension>
        </extensions>
      </trkpt>
      <trkpt lat="45.3083373606204986572265625" lon="-70.89932500384747982025146484375">
        <ele>619.20001220703125</ele>
        <time>2026-08-21T15:58:23.000Z</time>
        <extensions>
          <ns3:TrackPointExtension>
            <ns3:hr>141</ns3:hr>
            <ns3:cad>75</ns3:cad>
          </ns3:TrackPointExtension>
        </extensions>
      </trkpt>
      <trkpt lat="45.30835269950330257415771484375" lon="-70.8993198908865451812744140625">
        <ele>619.20001220703125</ele>
        <time>2026-08-21T15:58:24.000Z</time>
        <extensions>
          <ns3:TrackPointExtension>
            <ns3:hr>141</ns3:hr>
            <ns3:cad>75</ns3:cad>
          </ns3:TrackPointExtension>
        </extensions>
      </trkpt>
      <trkpt lat="45.308371894061565399169921875" lon="-70.89931435883045196533203125">
        <ele>619.20001220703125</ele>
        <time>2026-08-21T15:58:25.000Z</time>
        <extensions>
          <ns3:TrackPointExtension>
            <ns3:hr>142</ns3:hr>
            <ns3:cad>75</ns3:cad>
          </ns3:TrackPointExtension>
        </extensions>
      </trkpt>
      <trkpt lat="45.30839167535305023193359375" lon="-70.8993165381252765655517578125">
        <ele>619.20001220703125</ele>
        <time>2026-08-21T15:58:26.000Z</time>
        <extensions>
          <ns3:TrackPointExtension>
            <ns3:hr>142</ns3:hr>
            <ns3:cad>75</ns3:cad>
          </ns3:TrackPointExtension>
        </extensions>
      </trkpt>
      <trkpt lat="45.30840651132166385650634765625" lon="-70.89932299219071865081787109375">
        <ele>619.20001220703125</ele>
        <time>2026-08-21T15:58:27.000Z</time>
        <extensions>
          <ns3:TrackPointExtension>
            <ns3:hr>142</ns3:hr>
            <ns3:cad>76</ns3:cad>
          </ns3:TrackPointExtension>
        </extensions>
      </trkpt>
      <trkpt lat="45.30841958709061145782470703125" lon="-70.8993312902748584747314453125">
        <ele>619.20001220703125</ele>
        <time>2026-08-21T15:58:28.000Z</time>
        <extensions>
          <ns3:TrackPointExtension>
            <ns3:hr>142</ns3:hr>
            <ns3:cad>76</ns3:cad>
          </ns3:TrackPointExtension>
        </extensions>
      </trkpt>
      <trkpt lat="45.308434925973415374755859375" lon="-70.89933841489255428314208984375">
        <ele>619</ele>
        <time>2026-08-21T15:58:29.000Z</time>
        <extensions>
          <ns3:TrackPointExtension>
            <ns3:hr>142</ns3:hr>
            <ns3:cad>76</ns3:cad>
          </ns3:TrackPointExtension>
        </extensions>
      </trkpt>
      <trkpt lat="45.30845143832266330718994140625" lon="-70.89934344403445720672607421875">
        <ele>619</ele>
        <time>2026-08-21T15:58:30.000Z</time>
        <extensions>
          <ns3:TrackPointExtension>
            <ns3:hr>142</ns3:hr>
            <ns3:cad>76</ns3:cad>
          </ns3:TrackPointExtension>
        </extensions>
      </trkpt>
      <trkpt lat="45.30846870504319667816162109375" lon="-70.89935216121375560760498046875">
        <ele>618.79998779296875</ele>
        <time>2026-08-21T15:58:31.000Z</time>
        <extensions>
          <ns3:TrackPointExtension>
            <ns3:hr>142</ns3:hr>
            <ns3:cad>77</ns3:cad>
          </ns3:TrackPointExtension>
        </extensions>
      </trkpt>
      <trkpt lat="45.30848555266857147216796875" lon="-70.8993664942681789398193359375">
        <ele>618.79998779296875</ele>
        <time>2026-08-21T15:58:32.000Z</time>
        <extensions>
          <ns3:TrackPointExtension>
            <ns3:hr>142</ns3:hr>
            <ns3:cad>77</ns3:cad>
          </ns3:TrackPointExtension>
        </extensions>
      </trkpt>
      <trkpt lat="45.30850256793200969696044921875" lon="-70.89937831275165081024169921875">
        <ele>618.5999755859375</ele>
        <time>2026-08-21T15:58:33.000Z</time>
        <extensions>
          <ns3:TrackPointExtension>
            <ns3:hr>141</ns3:hr>
            <ns3:cad>77</ns3:cad>
          </ns3:TrackPointExtension>
        </extensions>
      </trkpt>
      <trkpt lat="45.308519415557384490966796875" lon="-70.899384431540966033935546875">
        <ele>618.5999755859375</ele>
        <time>2026-08-21T15:58:34.000Z</time>
        <extensions>
          <ns3:TrackPointExtension>
            <ns3:hr>142</ns3:hr>
            <ns3:cad>78</ns3:cad>
          </ns3:TrackPointExtension>
        </extensions>
      </trkpt>
      <trkpt lat="45.30853928066790103912353515625" lon="-70.89939105324447154998779296875">
        <ele>618.5999755859375</ele>
        <time>2026-08-21T15:58:35.000Z</time>
        <extensions>
          <ns3:TrackPointExtension>
            <ns3:hr>142</ns3:hr>
            <ns3:cad>78</ns3:cad>
          </ns3:TrackPointExtension>
        </extensions>
      </trkpt>
      <trkpt lat="45.30855990014970302581787109375" lon="-70.89939557947218418121337890625">
        <ele>618.4000244140625</ele>
        <time>2026-08-21T15:58:36.000Z</time>
        <extensions>
          <ns3:TrackPointExtension>
            <ns3:hr>142</ns3:hr>
            <ns3:cad>78</ns3:cad>
          </ns3:TrackPointExtension>
        </extensions>
      </trkpt>
      <trkpt lat="45.30858353711664676666259765625" lon="-70.89939750730991363525390625">
        <ele>618.20001220703125</ele>
        <time>2026-08-21T15:58:37.000Z</time>
        <extensions>
          <ns3:TrackPointExtension>
            <ns3:hr>142</ns3:hr>
            <ns3:cad>78</ns3:cad>
          </ns3:TrackPointExtension>
        </extensions>
      </trkpt>
      <trkpt lat="45.30860516242682933807373046875" lon="-70.89940194971859455108642578125">
        <ele>618</ele>
        <time>2026-08-21T15:58:38.000Z</time>
        <extensions>
          <ns3:TrackPointExtension>
            <ns3:hr>142</ns3:hr>
            <ns3:cad>78</ns3:cad>
          </ns3:TrackPointExtension>
        </extensions>
      </trkpt>
      <trkpt lat="45.30862662009894847869873046875" lon="-70.89940429665148258209228515625">
        <ele>618</ele>
        <time>2026-08-21T15:58:39.000Z</time>
        <extensions>
          <ns3:TrackPointExtension>
            <ns3:hr>142</ns3:hr>
            <ns3:cad>77</ns3:cad>
          </ns3:TrackPointExtension>
        </extensions>
      </trkpt>
      <trkpt lat="45.30864841304719448089599609375" lon="-70.89940144680440425872802734375">
        <ele>618</ele>
        <time>2026-08-21T15:58:40.000Z</time>
        <extensions>
          <ns3:TrackPointExtension>
            <ns3:hr>143</ns3:hr>
            <ns3:cad>77</ns3:cad>
          </ns3:TrackPointExtension>
        </extensions>
      </trkpt>
      <trkpt lat="45.30866987071931362152099609375" lon="-70.89939884841442108154296875">
        <ele>618</ele>
        <time>2026-08-21T15:58:41.000Z</time>
        <extensions>
          <ns3:TrackPointExtension>
            <ns3:hr>143</ns3:hr>
            <ns3:cad>77</ns3:cad>
          </ns3:TrackPointExtension>
        </extensions>
      </trkpt>
      <trkpt lat="45.3086922504007816314697265625" lon="-70.8993946574628353118896484375">
        <ele>618</ele>
        <time>2026-08-21T15:58:42.000Z</time>
        <extensions>
          <ns3:TrackPointExtension>
            <ns3:hr>143</ns3:hr>
            <ns3:cad>77</ns3:cad>
          </ns3:TrackPointExtension>
        </extensions>
      </trkpt>
      <trkpt lat="45.30871664173901081085205078125" lon="-70.8993896283209323883056640625">
        <ele>617.79998779296875</ele>
        <time>2026-08-21T15:58:43.000Z</time>
        <extensions>
          <ns3:TrackPointExtension>
            <ns3:hr>144</ns3:hr>
            <ns3:cad>77</ns3:cad>
          </ns3:TrackPointExtension>
        </extensions>
      </trkpt>
      <trkpt lat="45.3087304718792438507080078125" lon="-70.89939088560640811920166015625">
        <ele>617.79998779296875</ele>
        <time>2026-08-21T15:58:44.000Z</time>
        <extensions>
          <ns3:TrackPointExtension>
            <ns3:hr>144</ns3:hr>
            <ns3:cad>77</ns3:cad>
          </ns3:TrackPointExtension>
        </extensions>
      </trkpt>
      <trkpt lat="45.30874379910528659820556640625" lon="-70.8993986807763576507568359375">
        <ele>617.5999755859375</ele>
        <time>2026-08-21T15:58:45.000Z</time>
        <extensions>
          <ns3:TrackPointExtension>
            <ns3:hr>144</ns3:hr>
            <ns3:cad>77</ns3:cad>
          </ns3:TrackPointExtension>
        </extensions>
      </trkpt>
      <trkpt lat="45.308760814368724822998046875" lon="-70.8994067274034023284912109375">
        <ele>617.5999755859375</ele>
        <time>2026-08-21T15:58:46.000Z</time>
        <extensions>
          <ns3:TrackPointExtension>
            <ns3:hr>144</ns3:hr>
            <ns3:cad>77</ns3:cad>
          </ns3:TrackPointExtension>
        </extensions>
      </trkpt>
      <trkpt lat="45.30877657234668731689453125" lon="-70.89941100217401981353759765625">
        <ele>617.5999755859375</ele>
        <time>2026-08-21T15:58:47.000Z</time>
        <extensions>
          <ns3:TrackPointExtension>
            <ns3:hr>144</ns3:hr>
            <ns3:cad>77</ns3:cad>
          </ns3:TrackPointExtension>
        </extensions>
      </trkpt>
      <trkpt lat="45.30879124067723751068115234375" lon="-70.899413265287876129150390625">
        <ele>617.5999755859375</ele>
        <time>2026-08-21T15:58:48.000Z</time>
        <extensions>
          <ns3:TrackPointExtension>
            <ns3:hr>144</ns3:hr>
            <ns3:cad>77</ns3:cad>
          </ns3:TrackPointExtension>
        </extensions>
      </trkpt>
      <trkpt lat="45.30880247242748737335205078125" lon="-70.8994161151349544525146484375">
        <ele>617.5999755859375</ele>
        <time>2026-08-21T15:58:49.000Z</time>
        <extensions>
          <ns3:TrackPointExtension>
            <ns3:hr>144</ns3:hr>
            <ns3:cad>77</ns3:cad>
          </ns3:TrackPointExtension>
        </extensions>
      </trkpt>
      <trkpt lat="45.30881973914802074432373046875" lon="-70.8994211442768573760986328125">
        <ele>617.5999755859375</ele>
        <time>2026-08-21T15:58:50.000Z</time>
        <extensions>
          <ns3:TrackPointExtension>
            <ns3:hr>144</ns3:hr>
            <ns3:cad>77</ns3:cad>
          </ns3:TrackPointExtension>
        </extensions>
      </trkpt>
      <trkpt lat="45.308838598430156707763671875" lon="-70.8994249999523162841796875">
        <ele>617.4000244140625</ele>
        <time>2026-08-21T15:58:51.000Z</time>
        <extensions>
          <ns3:TrackPointExtension>
            <ns3:hr>144</ns3:hr>
            <ns3:cad>61</ns3:cad>
          </ns3:TrackPointExtension>
        </extensions>
      </trkpt>
      <trkpt lat="45.308855362236499786376953125" lon="-70.899428017437458038330078125">
        <ele>617.4000244140625</ele>
        <time>2026-08-21T15:58:52.000Z</time>
        <extensions>
          <ns3:TrackPointExtension>
            <ns3:hr>144</ns3:hr>
            <ns3:cad>61</ns3:cad>
          </ns3:TrackPointExtension>
        </extensions>
      </trkpt>
      <trkpt lat="45.3088689409196376800537109375" lon="-70.89944017119705677032470703125">
        <ele>617.20001220703125</ele>
        <time>2026-08-21T15:58:53.000Z</time>
        <extensions>
          <ns3:TrackPointExtension>
            <ns3:hr>144</ns3:hr>
            <ns3:cad>61</ns3:cad>
          </ns3:TrackPointExtension>
        </extensions>
      </trkpt>
      <trkpt lat="45.308879502117633819580078125" lon="-70.89945827610790729522705078125">
        <ele>617.20001220703125</ele>
        <time>2026-08-21T15:58:54.000Z</time>
        <extensions>
          <ns3:TrackPointExtension>
            <ns3:hr>144</ns3:hr>
            <ns3:cad>61</ns3:cad>
          </ns3:TrackPointExtension>
        </extensions>
      </trkpt>
      <trkpt lat="45.30890087597072124481201171875" lon="-70.8994744531810283660888671875">
        <ele>617</ele>
        <time>2026-08-21T15:58:55.000Z</time>
        <extensions>
          <ns3:TrackPointExtension>
            <ns3:hr>143</ns3:hr>
            <ns3:cad>61</ns3:cad>
          </ns3:TrackPointExtension>
        </extensions>
      </trkpt>
      <trkpt lat="45.3089229203760623931884765625" lon="-70.89947755448520183563232421875">
        <ele>617</ele>
        <time>2026-08-21T15:58:56.000Z</time>
        <extensions>
          <ns3:TrackPointExtension>
            <ns3:hr>144</ns3:hr>
            <ns3:cad>83</ns3:cad>
          </ns3:TrackPointExtension>
        </extensions>
      </trkpt>
      <trkpt lat="45.3089410252869129180908203125" lon="-70.89948124252259731292724609375">
        <ele>617</ele>
        <time>2026-08-21T15:58:57.000Z</time>
        <extensions>
          <ns3:TrackPointExtension>
            <ns3:hr>144</ns3:hr>
            <ns3:cad>83</ns3:cad>
          </ns3:TrackPointExtension>
        </extensions>
      </trkpt>
      <trkpt lat="45.30896323733031749725341796875" lon="-70.8994835056364536285400390625">
        <ele>617</ele>
        <time>2026-08-21T15:58:58.000Z</time>
        <extensions>
          <ns3:TrackPointExtension>
            <ns3:hr>143</ns3:hr>
            <ns3:cad>77</ns3:cad>
          </ns3:TrackPointExtension>
        </extensions>
      </trkpt>
      <trkpt lat="45.30898586846888065338134765625" lon="-70.899480991065502166748046875">
        <ele>616.79998779296875</ele>
        <time>2026-08-21T15:58:59.000Z</time>
        <extensions>
          <ns3:TrackPointExtension>
            <ns3:hr>142</ns3:hr>
            <ns3:cad>77</ns3:cad>
          </ns3:TrackPointExtension>
        </extensions>
      </trkpt>
      <trkpt lat="45.30900581739842891693115234375" lon="-70.89947336353361606597900390625">
        <ele>616.79998779296875</ele>
        <time>2026-08-21T15:59:00.000Z</time>
        <extensions>
          <ns3:TrackPointExtension>
            <ns3:hr>142</ns3:hr>
            <ns3:cad>77</ns3:cad>
          </ns3:TrackPointExtension>
        </extensions>
      </trkpt>
      <trkpt lat="45.3090231679379940032958984375" lon="-70.8994667418301105499267578125">
        <ele>616.5999755859375</ele>
        <time>2026-08-21T15:59:01.000Z</time>
        <extensions>
          <ns3:TrackPointExtension>
            <ns3:hr>142</ns3:hr>
            <ns3:cad>76</ns3:cad>
          </ns3:TrackPointExtension>
        </extensions>
      </trkpt>
      <trkpt lat="45.30903884209692478179931640625" lon="-70.89945844374597072601318359375">
        <ele>616.4000244140625</ele>
        <time>2026-08-21T15:59:02.000Z</time>
        <extensions>
          <ns3:TrackPointExtension>
            <ns3:hr>142</ns3:hr>
            <ns3:cad>76</ns3:cad>
          </ns3:TrackPointExtension>
        </extensions>
      </trkpt>
      <trkpt lat="45.30905292369425296783447265625" lon="-70.89946012012660503387451171875">
        <ele>616.4000244140625</ele>
        <time>2026-08-21T15:59:03.000Z</time>
        <extensions>
          <ns3:TrackPointExtension>
            <ns3:hr>142</ns3:hr>
            <ns3:cad>76</ns3:cad>
          </ns3:TrackPointExtension>
        </extensions>
      </trkpt>
      <trkpt lat="45.3090660832822322845458984375" lon="-70.89947420172393321990966796875">
        <ele>616.4000244140625</ele>
        <time>2026-08-21T15:59:04.000Z</time>
        <extensions>
          <ns3:TrackPointExtension>
            <ns3:hr>141</ns3:hr>
            <ns3:cad>76</ns3:cad>
          </ns3:TrackPointExtension>
        </extensions>
      </trkpt>
      <trkpt lat="45.309079326689243316650390625" lon="-70.89948040433228015899658203125">
        <ele>616.4000244140625</ele>
        <time>2026-08-21T15:59:05.000Z</time>
        <extensions>
          <ns3:TrackPointExtension>
            <ns3:hr>142</ns3:hr>
            <ns3:cad>76</ns3:cad>
          </ns3:TrackPointExtension>
        </extensions>
      </trkpt>
      <trkpt lat="45.30909382738173007965087890625" lon="-70.89948736131191253662109375">
        <ele>616.4000244140625</ele>
        <time>2026-08-21T15:59:06.000Z</time>
        <extensions>
          <ns3:TrackPointExtension>
            <ns3:hr>141</ns3:hr>
            <ns3:cad>76</ns3:cad>
          </ns3:TrackPointExtension>
        </extensions>
      </trkpt>
      <trkpt lat="45.30910857953131198883056640625" lon="-70.89949666522443294525146484375">
        <ele>616.4000244140625</ele>
        <time>2026-08-21T15:59:07.000Z</time>
        <extensions>
          <ns3:TrackPointExtension>
            <ns3:hr>141</ns3:hr>
            <ns3:cad>76</ns3:cad>
          </ns3:TrackPointExtension>
        </extensions>
      </trkpt>
      <trkpt lat="45.3091237507760524749755859375" lon="-70.89950638823211193084716796875">
        <ele>616.20001220703125</ele>
        <time>2026-08-21T15:59:08.000Z</time>
        <extensions>
          <ns3:TrackPointExtension>
            <ns3:hr>141</ns3:hr>
            <ns3:cad>76</ns3:cad>
          </ns3:TrackPointExtension>
        </extensions>
      </trkpt>
      <trkpt lat="45.309136994183063507080078125" lon="-70.899519883096218109130859375">
        <ele>616</ele>
        <time>2026-08-21T15:59:09.000Z</time>
        <extensions>
          <ns3:TrackPointExtension>
            <ns3:hr>140</ns3:hr>
            <ns3:cad>76</ns3:cad>
          </ns3:TrackPointExtension>
        </extensions>
      </trkpt>
      <trkpt lat="45.30915199778974056243896484375" lon="-70.8995349705219268798828125">
        <ele>616</ele>
        <time>2026-08-21T15:59:10.000Z</time>
        <extensions>
          <ns3:TrackPointExtension>
            <ns3:hr>138</ns3:hr>
            <ns3:cad>76</ns3:cad>
          </ns3:TrackPointExtension>
        </extensions>
      </trkpt>
      <trkpt lat="45.3091680072247982025146484375" lon="-70.8995462022721767425537109375">
        <ele>615.79998779296875</ele>
        <time>2026-08-21T15:59:11.000Z</time>
        <extensions>
          <ns3:TrackPointExtension>
            <ns3:hr>138</ns3:hr>
            <ns3:cad>76</ns3:cad>
          </ns3:TrackPointExtension>
        </extensions>
      </trkpt>
      <trkpt lat="45.30918703414499759674072265625" lon="-70.89955701492726802825927734375">
        <ele>615.79998779296875</ele>
        <time>2026-08-21T15:59:12.000Z</time>
        <extensions>
          <ns3:TrackPointExtension>
            <ns3:hr>137</ns3:hr>
            <ns3:cad>76</ns3:cad>
          </ns3:TrackPointExtension>
        </extensions>
      </trkpt>
      <trkpt lat="45.30920698307454586029052734375" lon="-70.89956657029688358306884765625">
        <ele>615.5999755859375</ele>
        <time>2026-08-21T15:59:13.000Z</time>
        <extensions>
          <ns3:TrackPointExtension>
            <ns3:hr>137</ns3:hr>
            <ns3:cad>71</ns3:cad>
          </ns3:TrackPointExtension>
        </extensions>
      </trkpt>
      <trkpt lat="45.309226512908935546875" lon="-70.89957461692392826080322265625">
        <ele>615.4000244140625</ele>
        <time>2026-08-21T15:59:14.000Z</time>
        <extensions>
          <ns3:TrackPointExtension>
            <ns3:hr>137</ns3:hr>
            <ns3:cad>71</ns3:cad>
          </ns3:TrackPointExtension>
        </extensions>
      </trkpt>
      <trkpt lat="45.30924302525818347930908203125" lon="-70.89958635158836841583251953125">
        <ele>615.20001220703125</ele>
        <time>2026-08-21T15:59:15.000Z</time>
        <extensions>
          <ns3:TrackPointExtension>
            <ns3:hr>137</ns3:hr>
            <ns3:cad>71</ns3:cad>
          </ns3:TrackPointExtension>
        </extensions>
      </trkpt>
      <trkpt lat="45.30926146544516086578369140625" lon="-70.899599678814411163330078125">
        <ele>615</ele>
        <time>2026-08-21T15:59:16.000Z</time>
        <extensions>
          <ns3:TrackPointExtension>
            <ns3:hr>136</ns3:hr>
            <ns3:cad>71</ns3:cad>
          </ns3:TrackPointExtension>
        </extensions>
      </trkpt>
      <trkpt lat="45.3092843480408191680908203125" lon="-70.89960965327918529510498046875">
        <ele>614.79998779296875</ele>
        <time>2026-08-21T15:59:17.000Z</time>
        <extensions>
          <ns3:TrackPointExtension>
            <ns3:hr>137</ns3:hr>
            <ns3:cad>71</ns3:cad>
          </ns3:TrackPointExtension>
        </extensions>
      </trkpt>
      <trkpt lat="45.30930840410292148590087890625" lon="-70.8996243216097354888916015625">
        <ele>614.79998779296875</ele>
        <time>2026-08-21T15:59:18.000Z</time>
        <extensions>
          <ns3:TrackPointExtension>
            <ns3:hr>137</ns3:hr>
            <ns3:cad>79</ns3:cad>
          </ns3:TrackPointExtension>
        </extensions>
      </trkpt>
      <trkpt lat="45.30933522619307041168212890625" lon="-70.89963211677968502044677734375">
        <ele>614.5999755859375</ele>
        <time>2026-08-21T15:59:19.000Z</time>
        <extensions>
          <ns3:TrackPointExtension>
            <ns3:hr>137</ns3:hr>
            <ns3:cad>79</ns3:cad>
          </ns3:TrackPointExtension>
        </extensions>
      </trkpt>
      <trkpt lat="45.309360958635807037353515625" lon="-70.899639911949634552001953125">
        <ele>614.5999755859375</ele>
        <time>2026-08-21T15:59:20.000Z</time>
        <extensions>
          <ns3:TrackPointExtension>
            <ns3:hr>136</ns3:hr>
            <ns3:cad>78</ns3:cad>
          </ns3:TrackPointExtension>
        </extensions>
      </trkpt>
      <trkpt lat="45.30938082374632358551025390625" lon="-70.8996474556624889373779296875">
        <ele>614.5999755859375</ele>
        <time>2026-08-21T15:59:21.000Z</time>
        <extensions>
          <ns3:TrackPointExtension>
            <ns3:hr>136</ns3:hr>
            <ns3:cad>78</ns3:cad>
          </ns3:TrackPointExtension>
        </extensions>
      </trkpt>
      <trkpt lat="45.309403873980045318603515625" lon="-70.89964569546282291412353515625">
        <ele>614.5999755859375</ele>
        <time>2026-08-21T15:59:22.000Z</time>
        <extensions>
          <ns3:TrackPointExtension>
            <ns3:hr>137</ns3:hr>
            <ns3:cad>78</ns3:cad>
          </ns3:TrackPointExtension>
        </extensions>
      </trkpt>
      <trkpt lat="45.30942893587052822113037109375" lon="-70.89964066632091999053955078125">
        <ele>614.5999755859375</ele>
        <time>2026-08-21T15:59:23.000Z</time>
        <extensions>
          <ns3:TrackPointExtension>
            <ns3:hr>137</ns3:hr>
            <ns3:cad>78</ns3:cad>
          </ns3:TrackPointExtension>
        </extensions>
      </trkpt>
      <trkpt lat="45.30945248901844024658203125" lon="-70.899636559188365936279296875">
        <ele>614.4000244140625</ele>
        <time>2026-08-21T15:59:24.000Z</time>
        <extensions>
          <ns3:TrackPointExtension>
            <ns3:hr>138</ns3:hr>
            <ns3:cad>78</ns3:cad>
          </ns3:TrackPointExtension>
        </extensions>
      </trkpt>
      <trkpt lat="45.3094772994518280029296875" lon="-70.89962817728519439697265625">
        <ele>614.4000244140625</ele>
        <time>2026-08-21T15:59:25.000Z</time>
        <extensions>
          <ns3:TrackPointExtension>
            <ns3:hr>138</ns3:hr>
            <ns3:cad>77</ns3:cad>
          </ns3:TrackPointExtension>
        </extensions>
      </trkpt>
      <trkpt lat="45.30949934385716915130615234375" lon="-70.89961635880172252655029296875">
        <ele>614.20001220703125</ele>
        <time>2026-08-21T15:59:26.000Z</time>
        <extensions>
          <ns3:TrackPointExtension>
            <ns3:hr>138</ns3:hr>
            <ns3:cad>77</ns3:cad>
          </ns3:TrackPointExtension>
        </extensions>
      </trkpt>
      <trkpt lat="45.30951862223446369171142578125" lon="-70.89960562996566295623779296875">
        <ele>614.20001220703125</ele>
        <time>2026-08-21T15:59:27.000Z</time>
        <extensions>
          <ns3:TrackPointExtension>
            <ns3:hr>138</ns3:hr>
            <ns3:cad>77</ns3:cad>
          </ns3:TrackPointExtension>
        </extensions>
      </trkpt>
      <trkpt lat="45.309539325535297393798828125" lon="-70.899587608873844146728515625">
        <ele>614</ele>
        <time>2026-08-21T15:59:28.000Z</time>
        <extensions>
          <ns3:TrackPointExtension>
            <ns3:hr>138</ns3:hr>
            <ns3:cad>78</ns3:cad>
          </ns3:TrackPointExtension>
        </extensions>
      </trkpt>
      <trkpt lat="45.309560783207416534423828125" lon="-70.8995706774294376373291015625">
        <ele>614</ele>
        <time>2026-08-21T15:59:29.000Z</time>
        <extensions>
          <ns3:TrackPointExtension>
            <ns3:hr>138</ns3:hr>
            <ns3:cad>78</ns3:cad>
          </ns3:TrackPointExtension>
        </extensions>
      </trkpt>
      <trkpt lat="45.309580899775028228759765625" lon="-70.8995609544217586517333984375">
        <ele>614</ele>
        <time>2026-08-21T15:59:30.000Z</time>
        <extensions>
          <ns3:TrackPointExtension>
            <ns3:hr>138</ns3:hr>
            <ns3:cad>79</ns3:cad>
          </ns3:TrackPointExtension>
        </extensions>
      </trkpt>
      <trkpt lat="45.30959959141910076141357421875" lon="-70.89954762719571590423583984375">
        <ele>614</ele>
        <time>2026-08-21T15:59:31.000Z</time>
        <extensions>
          <ns3:TrackPointExtension>
            <ns3:hr>138</ns3:hr>
            <ns3:cad>79</ns3:cad>
          </ns3:TrackPointExtension>
        </extensions>
      </trkpt>
      <trkpt lat="45.3096176125109195709228515625" lon="-70.8995311148464679718017578125">
        <ele>613.79998779296875</ele>
        <time>2026-08-21T15:59:32.000Z</time>
        <extensions>
          <ns3:TrackPointExtension>
            <ns3:hr>137</ns3:hr>
            <ns3:cad>79</ns3:cad>
          </ns3:TrackPointExtension>
        </extensions>
      </trkpt>
      <trkpt lat="45.3096373938024044036865234375" lon="-70.899517871439456939697265625">
        <ele>613.79998779296875</ele>
        <time>2026-08-21T15:59:33.000Z</time>
        <extensions>
          <ns3:TrackPointExtension>
            <ns3:hr>138</ns3:hr>
            <ns3:cad>79</ns3:cad>
          </ns3:TrackPointExtension>
        </extensions>
      </trkpt>
      <trkpt lat="45.30965725891292095184326171875" lon="-70.89950018562376499176025390625">
        <ele>613.79998779296875</ele>
        <time>2026-08-21T15:59:34.000Z</time>
        <extensions>
          <ns3:TrackPointExtension>
            <ns3:hr>138</ns3:hr>
            <ns3:cad>79</ns3:cad>
          </ns3:TrackPointExtension>
        </extensions>
      </trkpt>
      <trkpt lat="45.30967888422310352325439453125" lon="-70.899491719901561737060546875">
        <ele>613.5999755859375</ele>
        <time>2026-08-21T15:59:35.000Z</time>
        <extensions>
          <ns3:TrackPointExtension>
            <ns3:hr>138</ns3:hr>
            <ns3:cad>79</ns3:cad>
          </ns3:TrackPointExtension>
        </extensions>
      </trkpt>
      <trkpt lat="45.30969749204814434051513671875" lon="-70.8994922228157520294189453125">
        <ele>613.5999755859375</ele>
        <time>2026-08-21T15:59:36.000Z</time>
        <extensions>
          <ns3:TrackPointExtension>
            <ns3:hr>137</ns3:hr>
            <ns3:cad>79</ns3:cad>
          </ns3:TrackPointExtension>
        </extensions>
      </trkpt>
      <trkpt lat="45.30972280539572238922119140625" lon="-70.89948124252259731292724609375">
        <ele>613.5999755859375</ele>
        <time>2026-08-21T15:59:37.000Z</time>
        <extensions>
          <ns3:TrackPointExtension>
            <ns3:hr>137</ns3:hr>
            <ns3:cad>79</ns3:cad>
          </ns3:TrackPointExtension>
        </extensions>
      </trkpt>
      <trkpt lat="45.30974342487752437591552734375" lon="-70.89946347288787364959716796875">
        <ele>613.5999755859375</ele>
        <time>2026-08-21T15:59:38.000Z</time>
        <extensions>
          <ns3:TrackPointExtension>
            <ns3:hr>137</ns3:hr>
            <ns3:cad>40</ns3:cad>
          </ns3:TrackPointExtension>
        </extensions>
      </trkpt>
      <trkpt lat="45.30975700356066226959228515625" lon="-70.89944151230156421661376953125">
        <ele>613.5999755859375</ele>
        <time>2026-08-21T15:59:39.000Z</time>
        <extensions>
          <ns3:TrackPointExtension>
            <ns3:hr>137</ns3:hr>
            <ns3:cad>40</ns3:cad>
          </ns3:TrackPointExtension>
        </extensions>
      </trkpt>
      <trkpt lat="45.30976790003478527069091796875" lon="-70.8994204737246036529541015625">
        <ele>613.5999755859375</ele>
        <time>2026-08-21T15:59:40.000Z</time>
        <extensions>
          <ns3:TrackPointExtension>
            <ns3:hr>136</ns3:hr>
            <ns3:cad>40</ns3:cad>
          </ns3:TrackPointExtension>
        </extensions>
      </trkpt>
      <trkpt lat="45.30978030525147914886474609375" lon="-70.8993933163583278656005859375">
        <ele>613.4000244140625</ele>
        <time>2026-08-21T15:59:41.000Z</time>
        <extensions>
          <ns3:TrackPointExtension>
            <ns3:hr>136</ns3:hr>
            <ns3:cad>40</ns3:cad>
          </ns3:TrackPointExtension>
        </extensions>
      </trkpt>
      <trkpt lat="45.30979203991591930389404296875" lon="-70.8993587829172611236572265625">
        <ele>613.4000244140625</ele>
        <time>2026-08-21T15:59:42.000Z</time>
        <extensions>
          <ns3:TrackPointExtension>
            <ns3:hr>136</ns3:hr>
            <ns3:cad>78</ns3:cad>
          </ns3:TrackPointExtension>
        </extensions>
      </trkpt>
      <trkpt lat="45.30980092473328113555908203125" lon="-70.89932550676167011260986328125">
        <ele>613.4000244140625</ele>
        <time>2026-08-21T15:59:43.000Z</time>
        <extensions>
          <ns3:TrackPointExtension>
            <ns3:hr>136</ns3:hr>
            <ns3:cad>78</ns3:cad>
          </ns3:TrackPointExtension>
        </extensions>
      </trkpt>
      <trkpt lat="45.30980662442743778228759765625" lon="-70.899300612509250640869140625">
        <ele>613.4000244140625</ele>
        <time>2026-08-21T15:59:44.000Z</time>
        <extensions>
          <ns3:TrackPointExtension>
            <ns3:hr>136</ns3:hr>
            <ns3:cad>71</ns3:cad>
          </ns3:TrackPointExtension>
        </extensions>
      </trkpt>
      <trkpt lat="45.3098114021122455596923828125" lon="-70.8992747962474822998046875">
        <ele>613.4000244140625</ele>
        <time>2026-08-21T15:59:45.000Z</time>
        <extensions>
          <ns3:TrackPointExtension>
            <ns3:hr>136</ns3:hr>
            <ns3:cad>71</ns3:cad>
          </ns3:TrackPointExtension>
        </extensions>
      </trkpt>
      <trkpt lat="45.3098191134631633758544921875" lon="-70.8992387540638446807861328125">
        <ele>613.4000244140625</ele>
        <time>2026-08-21T15:59:46.000Z</time>
        <extensions>
          <ns3:TrackPointExtension>
            <ns3:hr>136</ns3:hr>
            <ns3:cad>71</ns3:cad>
          </ns3:TrackPointExtension>
        </extensions>
      </trkpt>
      <trkpt lat="45.3098165988922119140625" lon="-70.89921285398304462432861328125">
        <ele>613.4000244140625</ele>
        <time>2026-08-21T15:59:47.000Z</time>
        <extensions>
          <ns3:TrackPointExtension>
            <ns3:hr>136</ns3:hr>
            <ns3:cad>75</ns3:cad>
          </ns3:TrackPointExtension>
        </extensions>
      </trkpt>
      <trkpt lat="45.30982053838670253753662109375" lon="-70.89919474907219409942626953125">
        <ele>613.4000244140625</ele>
        <time>2026-08-21T15:59:48.000Z</time>
        <extensions>
          <ns3:TrackPointExtension>
            <ns3:hr>136</ns3:hr>
            <ns3:cad>75</ns3:cad>
          </ns3:TrackPointExtension>
        </extensions>
      </trkpt>
      <trkpt lat="45.30982539989054203033447265625" lon="-70.89917630888521671295166015625">
        <ele>613.4000244140625</ele>
        <time>2026-08-21T15:59:49.000Z</time>
        <extensions>
          <ns3:TrackPointExtension>
            <ns3:hr>137</ns3:hr>
            <ns3:cad>75</ns3:cad>
          </ns3:TrackPointExtension>
        </extensions>
      </trkpt>
      <trkpt lat="45.30983068048954010009765625" lon="-70.899169854819774627685546875">
        <ele>613.4000244140625</ele>
        <time>2026-08-21T15:59:50.000Z</time>
        <extensions>
          <ns3:TrackPointExtension>
            <ns3:hr>137</ns3:hr>
            <ns3:cad>75</ns3:cad>
          </ns3:TrackPointExtension>
        </extensions>
      </trkpt>
      <trkpt lat="45.309841074049472808837890625" lon="-70.8991559408605098724365234375">
        <ele>613.4000244140625</ele>
        <time>2026-08-21T15:59:51.000Z</time>
        <extensions>
          <ns3:TrackPointExtension>
            <ns3:hr>137</ns3:hr>
            <ns3:cad>75</ns3:cad>
          </ns3:TrackPointExtension>
        </extensions>
      </trkpt>
      <trkpt lat="45.3098536469042301177978515625" lon="-70.89913490228354930877685546875">
        <ele>613.4000244140625</ele>
        <time>2026-08-21T15:59:52.000Z</time>
        <extensions>
          <ns3:TrackPointExtension>
            <ns3:hr>136</ns3:hr>
            <ns3:cad>75</ns3:cad>
          </ns3:TrackPointExtension>
        </extensions>
      </trkpt>
      <trkpt lat="45.30986613593995571136474609375" lon="-70.89911461807787418365478515625">
        <ele>613.4000244140625</ele>
        <time>2026-08-21T15:59:53.000Z</time>
        <extensions>
          <ns3:TrackPointExtension>
            <ns3:hr>137</ns3:hr>
            <ns3:cad>75</ns3:cad>
          </ns3:TrackPointExtension>
        </extensions>
      </trkpt>
      <trkpt lat="45.30987636186182498931884765625" lon="-70.89909374713897705078125">
        <ele>613.4000244140625</ele>
        <time>2026-08-21T15:59:54.000Z</time>
        <extensions>
          <ns3:TrackPointExtension>
            <ns3:hr>137</ns3:hr>
            <ns3:cad>59</ns3:cad>
          </ns3:TrackPointExtension>
        </extensions>
      </trkpt>
      <trkpt lat="45.30988164246082305908203125" lon="-70.899071283638477325439453125">
        <ele>613.4000244140625</ele>
        <time>2026-08-21T15:59:55.000Z</time>
        <extensions>
          <ns3:TrackPointExtension>
            <ns3:hr>138</ns3:hr>
            <ns3:cad>59</ns3:cad>
          </ns3:TrackPointExtension>
        </extensions>
      </trkpt>
      <trkpt lat="45.3098849952220916748046875" lon="-70.8990556932985782623291015625">
        <ele>613.4000244140625</ele>
        <time>2026-08-21T15:59:56.000Z</time>
        <extensions>
          <ns3:TrackPointExtension>
            <ns3:hr>138</ns3:hr>
            <ns3:cad>59</ns3:cad>
          </ns3:TrackPointExtension>
        </extensions>
      </trkpt>
      <trkpt lat="45.30988633632659912109375" lon="-70.89904337190091609954833984375">
        <ele>613.20001220703125</ele>
        <time>2026-08-21T15:59:57.000Z</time>
        <extensions>
          <ns3:TrackPointExtension>
            <ns3:hr>139</ns3:hr>
            <ns3:cad>64</ns3:cad>
          </ns3:TrackPointExtension>
        </extensions>
      </trkpt>
      <trkpt lat="45.3098957240581512451171875" lon="-70.8990372531116008758544921875">
        <ele>613.20001220703125</ele>
        <time>2026-08-21T15:59:58.000Z</time>
        <extensions>
          <ns3:TrackPointExtension>
            <ns3:hr>139</ns3:hr>
            <ns3:cad>64</ns3:cad>
          </ns3:TrackPointExtension>
        </extensions>
      </trkpt>
      <trkpt lat="45.30990335159003734588623046875" lon="-70.8990347385406494140625">
        <ele>613</ele>
        <time>2026-08-21T15:59:59.000Z</time>
        <extensions>
          <ns3:TrackPointExtension>
            <ns3:hr>139</ns3:hr>
            <ns3:cad>64</ns3:cad>
          </ns3:TrackPointExtension>
        </extensions>
      </trkpt>
      <trkpt lat="45.309909470379352569580078125" lon="-70.8990271948277950286865234375">
        <ele>613</ele>
        <time>2026-08-21T16:00:00.000Z</time>
        <extensions>
          <ns3:TrackPointExtension>
            <ns3:hr>139</ns3:hr>
            <ns3:cad>57</ns3:cad>
          </ns3:TrackPointExtension>
        </extensions>
      </trkpt>
      <trkpt lat="45.309911482036113739013671875" lon="-70.8990312181413173675537109375">
        <ele>613</ele>
        <time>2026-08-21T16:00:01.000Z</time>
        <extensions>
          <ns3:TrackPointExtension>
            <ns3:hr>139</ns3:hr>
            <ns3:cad>57</ns3:cad>
          </ns3:TrackPointExtension>
        </extensions>
      </trkpt>
      <trkpt lat="45.3099247254431247711181640625" lon="-70.8990271948277950286865234375">
        <ele>613</ele>
        <time>2026-08-21T16:00:02.000Z</time>
        <extensions>
          <ns3:TrackPointExtension>
            <ns3:hr>138</ns3:hr>
            <ns3:cad>57</ns3:cad>
          </ns3:TrackPointExtension>
        </extensions>
      </trkpt>
      <trkpt lat="45.30993704684078693389892578125" lon="-70.8990214951336383819580078125">
        <ele>613</ele>
        <time>2026-08-21T16:00:03.000Z</time>
        <extensions>
          <ns3:TrackPointExtension>
            <ns3:hr>138</ns3:hr>
            <ns3:cad>57</ns3:cad>
          </ns3:TrackPointExtension>
        </extensions>
      </trkpt>
      <trkpt lat="45.30994861386716365814208984375" lon="-70.89901135303080081939697265625">
        <ele>613.20001220703125</ele>
        <time>2026-08-21T16:00:04.000Z</time>
        <extensions>
          <ns3:TrackPointExtension>
            <ns3:hr>138</ns3:hr>
            <ns3:cad>61</ns3:cad>
          </ns3:TrackPointExtension>
        </extensions>
      </trkpt>
      <trkpt lat="45.30995649285614490509033203125" lon="-70.89898838661611080169677734375">
        <ele>613.20001220703125</ele>
        <time>2026-08-21T16:00:05.000Z</time>
        <extensions>
          <ns3:TrackPointExtension>
            <ns3:hr>138</ns3:hr>
            <ns3:cad>61</ns3:cad>
          </ns3:TrackPointExtension>
        </extensions>
      </trkpt>
      <trkpt lat="45.309965796768665313720703125" lon="-70.898957960307598114013671875">
        <ele>613.20001220703125</ele>
        <time>2026-08-21T16:00:06.000Z</time>
        <extensions>
          <ns3:TrackPointExtension>
            <ns3:hr>138</ns3:hr>
            <ns3:cad>61</ns3:cad>
          </ns3:TrackPointExtension>
        </extensions>
      </trkpt>
      <trkpt lat="45.30997174791991710662841796875" lon="-70.89893055148422718048095703125">
        <ele>613</ele>
        <time>2026-08-21T16:00:07.000Z</time>
        <extensions>
          <ns3:TrackPointExtension>
            <ns3:hr>138</ns3:hr>
            <ns3:cad>61</ns3:cad>
          </ns3:TrackPointExtension>
        </extensions>
      </trkpt>
      <trkpt lat="45.30997753143310546875" lon="-70.89890825562179088592529296875">
        <ele>613</ele>
        <time>2026-08-21T16:00:08.000Z</time>
        <extensions>
          <ns3:TrackPointExtension>
            <ns3:hr>138</ns3:hr>
            <ns3:cad>61</ns3:cad>
          </ns3:TrackPointExtension>
        </extensions>
      </trkpt>
      <trkpt lat="45.30998490750789642333984375" lon="-70.89888411574065685272216796875">
        <ele>613</ele>
        <time>2026-08-21T16:00:09.000Z</time>
        <extensions>
          <ns3:TrackPointExtension>
            <ns3:hr>138</ns3:hr>
            <ns3:cad>61</ns3:cad>
          </ns3:TrackPointExtension>
        </extensions>
      </trkpt>
      <trkpt lat="45.30999002046883106231689453125" lon="-70.89886014349758625030517578125">
        <ele>613.20001220703125</ele>
        <time>2026-08-21T16:00:10.000Z</time>
        <extensions>
          <ns3:TrackPointExtension>
            <ns3:hr>138</ns3:hr>
            <ns3:cad>61</ns3:cad>
          </ns3:TrackPointExtension>
        </extensions>
      </trkpt>
      <trkpt lat="45.309990607202053070068359375" lon="-70.8988402783870697021484375">
        <ele>613.20001220703125</ele>
        <time>2026-08-21T16:00:11.000Z</time>
        <extensions>
          <ns3:TrackPointExtension>
            <ns3:hr>138</ns3:hr>
            <ns3:cad>72</ns3:cad>
          </ns3:TrackPointExtension>
        </extensions>
      </trkpt>
      <trkpt lat="45.30998163856565952301025390625" lon="-70.89880876243114471435546875">
        <ele>613.4000244140625</ele>
        <time>2026-08-21T16:00:12.000Z</time>
        <extensions>
          <ns3:TrackPointExtension>
            <ns3:hr>138</ns3:hr>
            <ns3:cad>72</ns3:cad>
          </ns3:TrackPointExtension>
        </extensions>
      </trkpt>
      <trkpt lat="45.30997694469988346099853515625" lon="-70.898785628378391265869140625">
        <ele>613.4000244140625</ele>
        <time>2026-08-21T16:00:13.000Z</time>
        <extensions>
          <ns3:TrackPointExtension>
            <ns3:hr>138</ns3:hr>
            <ns3:cad>72</ns3:cad>
          </ns3:TrackPointExtension>
        </extensions>
      </trkpt>
      <trkpt lat="45.30997216701507568359375" lon="-70.8987576328217983245849609375">
        <ele>613.5999755859375</ele>
        <time>2026-08-21T16:00:14.000Z</time>
        <extensions>
          <ns3:TrackPointExtension>
            <ns3:hr>138</ns3:hr>
            <ns3:cad>66</ns3:cad>
          </ns3:TrackPointExtension>
        </extensions>
      </trkpt>
      <trkpt lat="45.309974513947963714599609375" lon="-70.89873097836971282958984375">
        <ele>613.5999755859375</ele>
        <time>2026-08-21T16:00:15.000Z</time>
        <extensions>
          <ns3:TrackPointExtension>
            <ns3:hr>138</ns3:hr>
            <ns3:cad>66</ns3:cad>
          </ns3:TrackPointExtension>
        </extensions>
      </trkpt>
      <trkpt lat="45.309980213642120361328125" lon="-70.8987006358802318572998046875">
        <ele>613.5999755859375</ele>
        <time>2026-08-21T16:00:16.000Z</time>
        <extensions>
          <ns3:TrackPointExtension>
            <ns3:hr>138</ns3:hr>
            <ns3:cad>66</ns3:cad>
          </ns3:TrackPointExtension>
        </extensions>
      </trkpt>
      <trkpt lat="45.30998314730823040008544921875" lon="-70.8986793458461761474609375">
        <ele>613.79998779296875</ele>
        <time>2026-08-21T16:00:17.000Z</time>
        <extensions>
          <ns3:TrackPointExtension>
            <ns3:hr>138</ns3:hr>
            <ns3:cad>66</ns3:cad>
          </ns3:TrackPointExtension>
        </extensions>
      </trkpt>
      <trkpt lat="45.309989936649799346923828125" lon="-70.8986627496778964996337890625">
        <ele>613.79998779296875</ele>
        <time>2026-08-21T16:00:18.000Z</time>
        <extensions>
          <ns3:TrackPointExtension>
            <ns3:hr>138</ns3:hr>
            <ns3:cad>66</ns3:cad>
          </ns3:TrackPointExtension>
        </extensions>
      </trkpt>
      <trkpt lat="45.3100021742284297943115234375" lon="-70.8986567147076129913330078125">
        <ele>613.79998779296875</ele>
        <time>2026-08-21T16:00:19.000Z</time>
        <extensions>
          <ns3:TrackPointExtension>
            <ns3:hr>138</ns3:hr>
            <ns3:cad>66</ns3:cad>
          </ns3:TrackPointExtension>
        </extensions>
      </trkpt>
      <trkpt lat="45.3100137412548065185546875" lon="-70.89864942245185375213623046875">
        <ele>613.79998779296875</ele>
        <time>2026-08-21T16:00:20.000Z</time>
        <extensions>
          <ns3:TrackPointExtension>
            <ns3:hr>138</ns3:hr>
            <ns3:cad>66</ns3:cad>
          </ns3:TrackPointExtension>
        </extensions>
      </trkpt>
      <trkpt lat="45.31002245843410491943359375" lon="-70.898645818233489990234375">
        <ele>613.79998779296875</ele>
        <time>2026-08-21T16:00:21.000Z</time>
        <extensions>
          <ns3:TrackPointExtension>
            <ns3:hr>138</ns3:hr>
            <ns3:cad>0</ns3:cad>
          </ns3:TrackPointExtension>
        </extensions>
      </trkpt>
      <trkpt lat="45.31003511510789394378662109375" lon="-70.89864439330995082855224609375">
        <ele>613.79998779296875</ele>
        <time>2026-08-21T16:00:22.000Z</time>
        <extensions>
          <ns3:TrackPointExtension>
            <ns3:hr>138</ns3:hr>
            <ns3:cad>0</ns3:cad>
          </ns3:TrackPointExtension>
        </extensions>
      </trkpt>
      <trkpt lat="45.31004123389720916748046875" lon="-70.898636765778064727783203125">
        <ele>613.79998779296875</ele>
        <time>2026-08-21T16:00:23.000Z</time>
        <extensions>
          <ns3:TrackPointExtension>
            <ns3:hr>138</ns3:hr>
            <ns3:cad>0</ns3:cad>
          </ns3:TrackPointExtension>
        </extensions>
      </trkpt>
      <trkpt lat="45.3100504539906978607177734375" lon="-70.8986201696097850799560546875">
        <ele>613.5999755859375</ele>
        <time>2026-08-21T16:00:24.000Z</time>
        <extensions>
          <ns3:TrackPointExtension>
            <ns3:hr>139</ns3:hr>
            <ns3:cad>0</ns3:cad>
          </ns3:TrackPointExtension>
        </extensions>
      </trkpt>
      <trkpt lat="45.3100581653416156768798828125" lon="-70.89861019514501094818115234375">
        <ele>613.5999755859375</ele>
        <time>2026-08-21T16:00:25.000Z</time>
        <extensions>
          <ns3:TrackPointExtension>
            <ns3:hr>140</ns3:hr>
            <ns3:cad>0</ns3:cad>
          </ns3:TrackPointExtension>
        </extensions>
      </trkpt>
      <trkpt lat="45.31006562523543834686279296875" lon="-70.89860181324183940887451171875">
        <ele>613.79998779296875</ele>
        <time>2026-08-21T16:00:26.000Z</time>
        <extensions>
          <ns3:TrackPointExtension>
            <ns3:hr>140</ns3:hr>
            <ns3:cad>0</ns3:cad>
          </ns3:TrackPointExtension>
        </extensions>
      </trkpt>
      <trkpt lat="45.31007207930088043212890625" lon="-70.89858722873032093048095703125">
        <ele>613.79998779296875</ele>
        <time>2026-08-21T16:00:27.000Z</time>
        <extensions>
          <ns3:TrackPointExtension>
            <ns3:hr>140</ns3:hr>
            <ns3:cad>0</ns3:cad>
          </ns3:TrackPointExtension>
        </extensions>
      </trkpt>
      <trkpt lat="45.31008280813694000244140625" lon="-70.8985705487430095672607421875">
        <ele>613.79998779296875</ele>
        <time>2026-08-21T16:00:28.000Z</time>
        <extensions>
          <ns3:TrackPointExtension>
            <ns3:hr>140</ns3:hr>
            <ns3:cad>0</ns3:cad>
          </ns3:TrackPointExtension>
        </extensions>
      </trkpt>
      <trkpt lat="45.310093872249126434326171875" lon="-70.89855940081179141998291015625">
        <ele>613.79998779296875</ele>
        <time>2026-08-21T16:00:29.000Z</time>
        <extensions>
          <ns3:TrackPointExtension>
            <ns3:hr>140</ns3:hr>
            <ns3:cad>0</ns3:cad>
          </ns3:TrackPointExtension>
        </extensions>
      </trkpt>
      <trkpt lat="45.310102589428424835205078125" lon="-70.89854716323316097259521484375">
        <ele>613.79998779296875</ele>
        <time>2026-08-21T16:00:30.000Z</time>
        <extensions>
          <ns3:TrackPointExtension>
            <ns3:hr>140</ns3:hr>
            <ns3:cad>0</ns3:cad>
          </ns3:TrackPointExtension>
        </extensions>
      </trkpt>
      <trkpt lat="45.3101191855967044830322265625" lon="-70.89853509329259395599365234375">
        <ele>613.79998779296875</ele>
        <time>2026-08-21T16:00:31.000Z</time>
        <extensions>
          <ns3:TrackPointExtension>
            <ns3:hr>140</ns3:hr>
            <ns3:cad>0</ns3:cad>
          </ns3:TrackPointExtension>
        </extensions>
      </trkpt>
      <trkpt lat="45.31013351865112781524658203125" lon="-70.89852822013199329376220703125">
        <ele>613.79998779296875</ele>
        <time>2026-08-21T16:00:32.000Z</time>
        <extensions>
          <ns3:TrackPointExtension>
            <ns3:hr>140</ns3:hr>
            <ns3:cad>0</ns3:cad>
          </ns3:TrackPointExtension>
        </extensions>
      </trkpt>
      <trkpt lat="45.31014625914394855499267578125" lon="-70.89851900003850460052490234375">
        <ele>613.79998779296875</ele>
        <time>2026-08-21T16:00:33.000Z</time>
        <extensions>
          <ns3:TrackPointExtension>
            <ns3:hr>140</ns3:hr>
            <ns3:cad>0</ns3:cad>
          </ns3:TrackPointExtension>
        </extensions>
      </trkpt>
      <trkpt lat="45.31016369350254535675048828125" lon="-70.898500643670558929443359375">
        <ele>613.79998779296875</ele>
        <time>2026-08-21T16:00:34.000Z</time>
        <extensions>
          <ns3:TrackPointExtension>
            <ns3:hr>140</ns3:hr>
            <ns3:cad>0</ns3:cad>
          </ns3:TrackPointExtension>
        </extensions>
      </trkpt>
      <trkpt lat="45.31017341651022434234619140625" lon="-70.8984857238829135894775390625">
        <ele>613.79998779296875</ele>
        <time>2026-08-21T16:00:35.000Z</time>
        <extensions>
          <ns3:TrackPointExtension>
            <ns3:hr>140</ns3:hr>
            <ns3:cad>0</ns3:cad>
          </ns3:TrackPointExtension>
        </extensions>
      </trkpt>
      <trkpt lat="45.310192108154296875" lon="-70.89846678078174591064453125">
        <ele>613.79998779296875</ele>
        <time>2026-08-21T16:00:36.000Z</time>
        <extensions>
          <ns3:TrackPointExtension>
            <ns3:hr>141</ns3:hr>
            <ns3:cad>0</ns3:cad>
          </ns3:TrackPointExtension>
        </extensions>
      </trkpt>
      <trkpt lat="45.310207866132259368896484375" lon="-70.89845546521246433258056640625">
        <ele>613.79998779296875</ele>
        <time>2026-08-21T16:00:37.000Z</time>
        <extensions>
          <ns3:TrackPointExtension>
            <ns3:hr>140</ns3:hr>
            <ns3:cad>0</ns3:cad>
          </ns3:TrackPointExtension>
        </extensions>
      </trkpt>
      <trkpt lat="45.31021825969219207763671875" lon="-70.898441970348358154296875">
        <ele>613.79998779296875</ele>
        <time>2026-08-21T16:00:38.000Z</time>
        <extensions>
          <ns3:TrackPointExtension>
            <ns3:hr>140</ns3:hr>
            <ns3:cad>0</ns3:cad>
          </ns3:TrackPointExtension>
        </extensions>
      </trkpt>
      <trkpt lat="45.3102304972708225250244140625" lon="-70.8984310738742351531982421875">
        <ele>613.79998779296875</ele>
        <time>2026-08-21T16:00:39.000Z</time>
        <extensions>
          <ns3:TrackPointExtension>
            <ns3:hr>141</ns3:hr>
            <ns3:cad>0</ns3:cad>
          </ns3:TrackPointExtension>
        </extensions>
      </trkpt>
      <trkpt lat="45.31024935655295848846435546875" lon="-70.898420177400112152099609375">
        <ele>613.79998779296875</ele>
        <time>2026-08-21T16:00:40.000Z</time>
        <extensions>
          <ns3:TrackPointExtension>
            <ns3:hr>140</ns3:hr>
            <ns3:cad>0</ns3:cad>
          </ns3:TrackPointExtension>
        </extensions>
      </trkpt>
      <trkpt lat="45.3102687187492847442626953125" lon="-70.8984106220304965972900390625">
        <ele>613.79998779296875</ele>
        <time>2026-08-21T16:00:41.000Z</time>
        <extensions>
          <ns3:TrackPointExtension>
            <ns3:hr>140</ns3:hr>
            <ns3:cad>0</ns3:cad>
          </ns3:TrackPointExtension>
        </extensions>
      </trkpt>
      <trkpt lat="45.310285650193691253662109375" lon="-70.89840936474502086639404296875">
        <ele>613.79998779296875</ele>
        <time>2026-08-21T16:00:42.000Z</time>
        <extensions>
          <ns3:TrackPointExtension>
            <ns3:hr>141</ns3:hr>
            <ns3:cad>0</ns3:cad>
          </ns3:TrackPointExtension>
        </extensions>
      </trkpt>
      <trkpt lat="45.31030140817165374755859375" lon="-70.89840902946889400482177734375">
        <ele>613.5999755859375</ele>
        <time>2026-08-21T16:00:43.000Z</time>
        <extensions>
          <ns3:TrackPointExtension>
            <ns3:hr>140</ns3:hr>
            <ns3:cad>0</ns3:cad>
          </ns3:TrackPointExtension>
        </extensions>
      </trkpt>
      <trkpt lat="45.31031322665512561798095703125" lon="-70.8984069339931011199951171875">
        <ele>613.4000244140625</ele>
        <time>2026-08-21T16:00:44.000Z</time>
        <extensions>
          <ns3:TrackPointExtension>
            <ns3:hr>140</ns3:hr>
            <ns3:cad>0</ns3:cad>
          </ns3:TrackPointExtension>
        </extensions>
      </trkpt>
      <trkpt lat="45.31032747589051723480224609375" lon="-70.89840911328792572021484375">
        <ele>613.20001220703125</ele>
        <time>2026-08-21T16:00:45.000Z</time>
        <extensions>
          <ns3:TrackPointExtension>
            <ns3:hr>141</ns3:hr>
            <ns3:cad>72</ns3:cad>
          </ns3:TrackPointExtension>
        </extensions>
      </trkpt>
      <trkpt lat="45.31034105457365512847900390625" lon="-70.8984116278588771820068359375">
        <ele>613</ele>
        <time>2026-08-21T16:00:46.000Z</time>
        <extensions>
          <ns3:TrackPointExtension>
            <ns3:hr>140</ns3:hr>
            <ns3:cad>72</ns3:cad>
          </ns3:TrackPointExtension>
        </extensions>
      </trkpt>
      <trkpt lat="45.31035815365612506866455078125" lon="-70.89841137640178203582763671875">
        <ele>612.79998779296875</ele>
        <time>2026-08-21T16:00:47.000Z</time>
        <extensions>
          <ns3:TrackPointExtension>
            <ns3:hr>140</ns3:hr>
            <ns3:cad>72</ns3:cad>
          </ns3:TrackPointExtension>
        </extensions>
      </trkpt>
      <trkpt lat="45.31037324108183383941650390625" lon="-70.89841120876371860504150390625">
        <ele>612.79998779296875</ele>
        <time>2026-08-21T16:00:48.000Z</time>
        <extensions>
          <ns3:TrackPointExtension>
            <ns3:hr>141</ns3:hr>
            <ns3:cad>72</ns3:cad>
          </ns3:TrackPointExtension>
        </extensions>
      </trkpt>
      <trkpt lat="45.31039268709719181060791015625" lon="-70.89840986765921115875244140625">
        <ele>612.79998779296875</ele>
        <time>2026-08-21T16:00:49.000Z</time>
        <extensions>
          <ns3:TrackPointExtension>
            <ns3:hr>140</ns3:hr>
            <ns3:cad>72</ns3:cad>
          </ns3:TrackPointExtension>
        </extensions>
      </trkpt>
      <trkpt lat="45.310409367084503173828125" lon="-70.898408778011798858642578125">
        <ele>613</ele>
        <time>2026-08-21T16:00:50.000Z</time>
        <extensions>
          <ns3:TrackPointExtension>
            <ns3:hr>140</ns3:hr>
            <ns3:cad>75</ns3:cad>
          </ns3:TrackPointExtension>
        </extensions>
      </trkpt>
      <trkpt lat="45.310428142547607421875" lon="-70.89840031228959560394287109375">
        <ele>613.20001220703125</ele>
        <time>2026-08-21T16:00:51.000Z</time>
        <extensions>
          <ns3:TrackPointExtension>
            <ns3:hr>140</ns3:hr>
            <ns3:cad>75</ns3:cad>
          </ns3:TrackPointExtension>
        </extensions>
      </trkpt>
      <trkpt lat="45.31044381670653820037841796875" lon="-70.89839176274836063385009765625">
        <ele>613.4000244140625</ele>
        <time>2026-08-21T16:00:52.000Z</time>
        <extensions>
          <ns3:TrackPointExtension>
            <ns3:hr>140</ns3:hr>
            <ns3:cad>75</ns3:cad>
          </ns3:TrackPointExtension>
        </extensions>
      </trkpt>
      <trkpt lat="45.31046175397932529449462890625" lon="-70.898382626473903656005859375">
        <ele>613.5999755859375</ele>
        <time>2026-08-21T16:00:53.000Z</time>
        <extensions>
          <ns3:TrackPointExtension>
            <ns3:hr>139</ns3:hr>
            <ns3:cad>75</ns3:cad>
          </ns3:TrackPointExtension>
        </extensions>
      </trkpt>
      <trkpt lat="45.3104772605001926422119140625" lon="-70.89837533421814441680908203125">
        <ele>613.5999755859375</ele>
        <time>2026-08-21T16:00:54.000Z</time>
        <extensions>
          <ns3:TrackPointExtension>
            <ns3:hr>139</ns3:hr>
            <ns3:cad>75</ns3:cad>
          </ns3:TrackPointExtension>
        </extensions>
      </trkpt>
      <trkpt lat="45.31049343757331371307373046875" lon="-70.8983693830668926239013671875">
        <ele>613.5999755859375</ele>
        <time>2026-08-21T16:00:55.000Z</time>
        <extensions>
          <ns3:TrackPointExtension>
            <ns3:hr>138</ns3:hr>
            <ns3:cad>75</ns3:cad>
          </ns3:TrackPointExtension>
        </extensions>
      </trkpt>
      <trkpt lat="45.31051204539835453033447265625" lon="-70.89836343191564083099365234375">
        <ele>613.5999755859375</ele>
        <time>2026-08-21T16:00:56.000Z</time>
        <extensions>
          <ns3:TrackPointExtension>
            <ns3:hr>138</ns3:hr>
            <ns3:cad>75</ns3:cad>
          </ns3:TrackPointExtension>
        </extensions>
      </trkpt>
      <trkpt lat="45.31052562408149242401123046875" lon="-70.89835957624018192291259765625">
        <ele>613.4000244140625</ele>
        <time>2026-08-21T16:00:57.000Z</time>
        <extensions>
          <ns3:TrackPointExtension>
            <ns3:hr>138</ns3:hr>
            <ns3:cad>75</ns3:cad>
          </ns3:TrackPointExtension>
        </extensions>
      </trkpt>
      <trkpt lat="45.31054154969751834869384765625" lon="-70.89835823513567447662353515625">
        <ele>613.4000244140625</ele>
        <time>2026-08-21T16:00:58.000Z</time>
        <extensions>
          <ns3:TrackPointExtension>
            <ns3:hr>138</ns3:hr>
            <ns3:cad>75</ns3:cad>
          </ns3:TrackPointExtension>
        </extensions>
      </trkpt>
      <trkpt lat="45.31055697239935398101806640625" lon="-70.898356474936008453369140625">
        <ele>613.20001220703125</ele>
        <time>2026-08-21T16:00:59.000Z</time>
        <extensions>
          <ns3:TrackPointExtension>
            <ns3:hr>137</ns3:hr>
            <ns3:cad>75</ns3:cad>
          </ns3:TrackPointExtension>
        </extensions>
      </trkpt>
      <trkpt lat="45.3105681203305721282958984375" lon="-70.89835672639310359954833984375">
        <ele>613.20001220703125</ele>
        <time>2026-08-21T16:01:00.000Z</time>
        <extensions>
          <ns3:TrackPointExtension>
            <ns3:hr>137</ns3:hr>
            <ns3:cad>59</ns3:cad>
          </ns3:TrackPointExtension>
        </extensions>
      </trkpt>
      <trkpt lat="45.31058614142239093780517578125" lon="-70.89835303835570812225341796875">
        <ele>613.20001220703125</ele>
        <time>2026-08-21T16:01:01.000Z</time>
        <extensions>
          <ns3:TrackPointExtension>
            <ns3:hr>138</ns3:hr>
            <ns3:cad>59</ns3:cad>
          </ns3:TrackPointExtension>
        </extensions>
      </trkpt>
      <trkpt lat="45.31060273759067058563232421875" lon="-70.89835136197507381439208984375">
        <ele>613</ele>
        <time>2026-08-21T16:01:02.000Z</time>
        <extensions>
          <ns3:TrackPointExtension>
            <ns3:hr>138</ns3:hr>
            <ns3:cad>59</ns3:cad>
          </ns3:TrackPointExtension>
        </extensions>
      </trkpt>
      <trkpt lat="45.310621596872806549072265625" lon="-70.89835337363183498382568359375">
        <ele>613</ele>
        <time>2026-08-21T16:01:03.000Z</time>
        <extensions>
          <ns3:TrackPointExtension>
            <ns3:hr>138</ns3:hr>
            <ns3:cad>59</ns3:cad>
          </ns3:TrackPointExtension>
        </extensions>
      </trkpt>
      <trkpt lat="45.310640372335910797119140625" lon="-70.898353122174739837646484375">
        <ele>612.79998779296875</ele>
        <time>2026-08-21T16:01:04.000Z</time>
        <extensions>
          <ns3:TrackPointExtension>
            <ns3:hr>138</ns3:hr>
            <ns3:cad>59</ns3:cad>
          </ns3:TrackPointExtension>
        </extensions>
      </trkpt>
      <trkpt lat="45.31065856106579303741455078125" lon="-70.89834817685186862945556640625">
        <ele>612.79998779296875</ele>
        <time>2026-08-21T16:01:05.000Z</time>
        <extensions>
          <ns3:TrackPointExtension>
            <ns3:hr>137</ns3:hr>
            <ns3:cad>75</ns3:cad>
          </ns3:TrackPointExtension>
        </extensions>
      </trkpt>
      <trkpt lat="45.31067683361470699310302734375" lon="-70.89834339916706085205078125">
        <ele>612.79998779296875</ele>
        <time>2026-08-21T16:01:06.000Z</time>
        <extensions>
          <ns3:TrackPointExtension>
            <ns3:hr>138</ns3:hr>
            <ns3:cad>75</ns3:cad>
          </ns3:TrackPointExtension>
        </extensions>
      </trkpt>
      <trkpt lat="45.31068898737430572509765625" lon="-70.8983449079096317291259765625">
        <ele>612.79998779296875</ele>
        <time>2026-08-21T16:01:07.000Z</time>
        <extensions>
          <ns3:TrackPointExtension>
            <ns3:hr>137</ns3:hr>
            <ns3:cad>75</ns3:cad>
          </ns3:TrackPointExtension>
        </extensions>
      </trkpt>
      <trkpt lat="45.310706086456775665283203125" lon="-70.89834834448993206024169921875">
        <ele>612.79998779296875</ele>
        <time>2026-08-21T16:01:08.000Z</time>
        <extensions>
          <ns3:TrackPointExtension>
            <ns3:hr>137</ns3:hr>
            <ns3:cad>75</ns3:cad>
          </ns3:TrackPointExtension>
        </extensions>
      </trkpt>
      <trkpt lat="45.3107216767966747283935546875" lon="-70.8983526192605495452880859375">
        <ele>612.79998779296875</ele>
        <time>2026-08-21T16:01:09.000Z</time>
        <extensions>
          <ns3:TrackPointExtension>
            <ns3:hr>137</ns3:hr>
            <ns3:cad>75</ns3:cad>
          </ns3:TrackPointExtension>
        </extensions>
      </trkpt>
      <trkpt lat="45.3107392787933349609375" lon="-70.89836343191564083099365234375">
        <ele>612.79998779296875</ele>
        <time>2026-08-21T16:01:10.000Z</time>
        <extensions>
          <ns3:TrackPointExtension>
            <ns3:hr>136</ns3:hr>
            <ns3:cad>73</ns3:cad>
          </ns3:TrackPointExtension>
        </extensions>
      </trkpt>
      <trkpt lat="45.3107582218945026397705078125" lon="-70.8983695507049560546875">
        <ele>612.79998779296875</ele>
        <time>2026-08-21T16:01:11.000Z</time>
        <extensions>
          <ns3:TrackPointExtension>
            <ns3:hr>136</ns3:hr>
            <ns3:cad>73</ns3:cad>
          </ns3:TrackPointExtension>
        </extensions>
      </trkpt>
      <trkpt lat="45.3107749857008457183837890625" lon="-70.8983724005520343780517578125">
        <ele>612.79998779296875</ele>
        <time>2026-08-21T16:01:12.000Z</time>
        <extensions>
          <ns3:TrackPointExtension>
            <ns3:hr>136</ns3:hr>
            <ns3:cad>73</ns3:cad>
          </ns3:TrackPointExtension>
        </extensions>
      </trkpt>
      <trkpt lat="45.3107951022684574127197265625" lon="-70.89838371612131595611572265625">
        <ele>612.79998779296875</ele>
        <time>2026-08-21T16:01:13.000Z</time>
        <extensions>
          <ns3:TrackPointExtension>
            <ns3:hr>137</ns3:hr>
            <ns3:cad>70</ns3:cad>
          </ns3:TrackPointExtension>
        </extensions>
      </trkpt>
      <trkpt lat="45.31080792658030986785888671875" lon="-70.89839276857674121856689453125">
        <ele>612.5999755859375</ele>
        <time>2026-08-21T16:01:14.000Z</time>
        <extensions>
          <ns3:TrackPointExtension>
            <ns3:hr>137</ns3:hr>
            <ns3:cad>70</ns3:cad>
          </ns3:TrackPointExtension>
        </extensions>
      </trkpt>
      <trkpt lat="45.3108269535005092620849609375" lon="-70.89840777218341827392578125">
        <ele>612.5999755859375</ele>
        <time>2026-08-21T16:01:15.000Z</time>
        <extensions>
          <ns3:TrackPointExtension>
            <ns3:hr>137</ns3:hr>
            <ns3:cad>70</ns3:cad>
          </ns3:TrackPointExtension>
        </extensions>
      </trkpt>
      <trkpt lat="45.31084480695426464080810546875" lon="-70.89840785600244998931884765625">
        <ele>612.4000244140625</ele>
        <time>2026-08-21T16:01:16.000Z</time>
        <extensions>
          <ns3:TrackPointExtension>
            <ns3:hr>137</ns3:hr>
            <ns3:cad>70</ns3:cad>
          </ns3:TrackPointExtension>
        </extensions>
      </trkpt>
      <trkpt lat="45.31086173839867115020751953125" lon="-70.89841171167790889739990234375">
        <ele>612.20001220703125</ele>
        <time>2026-08-21T16:01:17.000Z</time>
        <extensions>
          <ns3:TrackPointExtension>
            <ns3:hr>137</ns3:hr>
            <ns3:cad>70</ns3:cad>
          </ns3:TrackPointExtension>
        </extensions>
      </trkpt>
      <trkpt lat="45.310878753662109375" lon="-70.8984186686575412750244140625">
        <ele>612.20001220703125</ele>
        <time>2026-08-21T16:01:18.000Z</time>
        <extensions>
          <ns3:TrackPointExtension>
            <ns3:hr>137</ns3:hr>
            <ns3:cad>70</ns3:cad>
          </ns3:TrackPointExtension>
        </extensions>
      </trkpt>
      <trkpt lat="45.310894511640071868896484375" lon="-70.89842327870428562164306640625">
        <ele>612</ele>
        <time>2026-08-21T16:01:19.000Z</time>
        <extensions>
          <ns3:TrackPointExtension>
            <ns3:hr>137</ns3:hr>
            <ns3:cad>70</ns3:cad>
          </ns3:TrackPointExtension>
        </extensions>
      </trkpt>
      <trkpt lat="45.310917310416698455810546875" lon="-70.89842579327523708343505859375">
        <ele>612</ele>
        <time>2026-08-21T16:01:20.000Z</time>
        <extensions>
          <ns3:TrackPointExtension>
            <ns3:hr>136</ns3:hr>
            <ns3:cad>72</ns3:cad>
          </ns3:TrackPointExtension>
        </extensions>
      </trkpt>
      <trkpt lat="45.310937426984310150146484375" lon="-70.89843199588358402252197265625">
        <ele>611.79998779296875</ele>
        <time>2026-08-21T16:01:21.000Z</time>
        <extensions>
          <ns3:TrackPointExtension>
            <ns3:hr>136</ns3:hr>
            <ns3:cad>72</ns3:cad>
          </ns3:TrackPointExtension>
        </extensions>
      </trkpt>
      <trkpt lat="45.31095762737095355987548828125" lon="-70.89844205416738986968994140625">
        <ele>611.79998779296875</ele>
        <time>2026-08-21T16:01:22.000Z</time>
        <extensions>
          <ns3:TrackPointExtension>
            <ns3:hr>136</ns3:hr>
            <ns3:cad>72</ns3:cad>
          </ns3:TrackPointExtension>
        </extensions>
      </trkpt>
      <trkpt lat="45.31097673811018466949462890625" lon="-70.89844741858541965484619140625">
        <ele>611.79998779296875</ele>
        <time>2026-08-21T16:01:23.000Z</time>
        <extensions>
          <ns3:TrackPointExtension>
            <ns3:hr>136</ns3:hr>
            <ns3:cad>72</ns3:cad>
          </ns3:TrackPointExtension>
        </extensions>
      </trkpt>
      <trkpt lat="45.3109986148774623870849609375" lon="-70.8984562195837497711181640625">
        <ele>611.79998779296875</ele>
        <time>2026-08-21T16:01:24.000Z</time>
        <extensions>
          <ns3:TrackPointExtension>
            <ns3:hr>136</ns3:hr>
            <ns3:cad>74</ns3:cad>
          </ns3:TrackPointExtension>
        </extensions>
      </trkpt>
      <trkpt lat="45.3110177256166934967041015625" lon="-70.89846451766788959503173828125">
        <ele>611.5999755859375</ele>
        <time>2026-08-21T16:01:25.000Z</time>
        <extensions>
          <ns3:TrackPointExtension>
            <ns3:hr>136</ns3:hr>
            <ns3:cad>18</ns3:cad>
          </ns3:TrackPointExtension>
        </extensions>
      </trkpt>
      <trkpt lat="45.3110291250050067901611328125" lon="-70.898470468819141387939453125">
        <ele>611.5999755859375</ele>
        <time>2026-08-21T16:01:26.000Z</time>
        <extensions>
          <ns3:TrackPointExtension>
            <ns3:hr>136</ns3:hr>
            <ns3:cad>18</ns3:cad>
          </ns3:TrackPointExtension>
        </extensions>
      </trkpt>
      <trkpt lat="45.3110465593636035919189453125" lon="-70.898475833237171173095703125">
        <ele>611.5999755859375</ele>
        <time>2026-08-21T16:01:27.000Z</time>
        <extensions>
          <ns3:TrackPointExtension>
            <ns3:hr>136</ns3:hr>
            <ns3:cad>18</ns3:cad>
          </ns3:TrackPointExtension>
        </extensions>
      </trkpt>
      <trkpt lat="45.311058126389980316162109375" lon="-70.898480527102947235107421875">
        <ele>611.4000244140625</ele>
        <time>2026-08-21T16:01:28.000Z</time>
        <extensions>
          <ns3:TrackPointExtension>
            <ns3:hr>135</ns3:hr>
            <ns3:cad>18</ns3:cad>
          </ns3:TrackPointExtension>
        </extensions>
      </trkpt>
      <trkpt lat="45.31107631511986255645751953125" lon="-70.89848362840712070465087890625">
        <ele>611.20001220703125</ele>
        <time>2026-08-21T16:01:29.000Z</time>
        <extensions>
          <ns3:TrackPointExtension>
            <ns3:hr>135</ns3:hr>
            <ns3:cad>18</ns3:cad>
          </ns3:TrackPointExtension>
        </extensions>
      </trkpt>
      <trkpt lat="45.311083607375621795654296875" lon="-70.89847709052264690399169921875">
        <ele>611</ele>
        <time>2026-08-21T16:01:30.000Z</time>
        <extensions>
          <ns3:TrackPointExtension>
            <ns3:hr>135</ns3:hr>
            <ns3:cad>18</ns3:cad>
          </ns3:TrackPointExtension>
        </extensions>
      </trkpt>
      <trkpt lat="45.3110938332974910736083984375" lon="-70.89846183545887470245361328125">
        <ele>610.79998779296875</ele>
        <time>2026-08-21T16:01:31.000Z</time>
        <extensions>
          <ns3:TrackPointExtension>
            <ns3:hr>134</ns3:hr>
            <ns3:cad>18</ns3:cad>
          </ns3:TrackPointExtension>
        </extensions>
      </trkpt>
      <trkpt lat="45.31110380776226520538330078125" lon="-70.8984555490314960479736328125">
        <ele>610.79998779296875</ele>
        <time>2026-08-21T16:01:32.000Z</time>
        <extensions>
          <ns3:TrackPointExtension>
            <ns3:hr>133</ns3:hr>
            <ns3:cad>68</ns3:cad>
          </ns3:TrackPointExtension>
        </extensions>
      </trkpt>
      <trkpt lat="45.311116464436054229736328125" lon="-70.8984513580799102783203125">
        <ele>610.5999755859375</ele>
        <time>2026-08-21T16:01:33.000Z</time>
        <extensions>
          <ns3:TrackPointExtension>
            <ns3:hr>133</ns3:hr>
            <ns3:cad>68</ns3:cad>
          </ns3:TrackPointExtension>
        </extensions>
      </trkpt>
      <trkpt lat="45.31112912110984325408935546875" lon="-70.8984418027102947235107421875">
        <ele>610.5999755859375</ele>
        <time>2026-08-21T16:01:34.000Z</time>
        <extensions>
          <ns3:TrackPointExtension>
            <ns3:hr>133</ns3:hr>
            <ns3:cad>68</ns3:cad>
          </ns3:TrackPointExtension>
        </extensions>
      </trkpt>
      <trkpt lat="45.31113532371819019317626953125" lon="-70.89842981658875942230224609375">
        <ele>610.5999755859375</ele>
        <time>2026-08-21T16:01:35.000Z</time>
        <extensions>
          <ns3:TrackPointExtension>
            <ns3:hr>133</ns3:hr>
            <ns3:cad>68</ns3:cad>
          </ns3:TrackPointExtension>
        </extensions>
      </trkpt>
      <trkpt lat="45.31113884411752223968505859375" lon="-70.898418836295604705810546875">
        <ele>610.5999755859375</ele>
        <time>2026-08-21T16:01:36.000Z</time>
        <extensions>
          <ns3:TrackPointExtension>
            <ns3:hr>133</ns3:hr>
            <ns3:cad>68</ns3:cad>
          </ns3:TrackPointExtension>
        </extensions>
      </trkpt>
      <trkpt lat="45.3111508302390575408935546875" lon="-70.8984002284705638885498046875">
        <ele>610.5999755859375</ele>
        <time>2026-08-21T16:01:37.000Z</time>
        <extensions>
          <ns3:TrackPointExtension>
            <ns3:hr>133</ns3:hr>
            <ns3:cad>0</ns3:cad>
          </ns3:TrackPointExtension>
        </extensions>
      </trkpt>
      <trkpt lat="45.31117136590182781219482421875" lon="-70.89837969280779361724853515625">
        <ele>610.79998779296875</ele>
        <time>2026-08-21T16:01:38.000Z</time>
        <extensions>
          <ns3:TrackPointExtension>
            <ns3:hr>133</ns3:hr>
            <ns3:cad>0</ns3:cad>
          </ns3:TrackPointExtension>
        </extensions>
      </trkpt>
      <trkpt lat="45.31118393875658512115478515625" lon="-70.89836628176271915435791015625">
        <ele>610.79998779296875</ele>
        <time>2026-08-21T16:01:39.000Z</time>
        <extensions>
          <ns3:TrackPointExtension>
            <ns3:hr>133</ns3:hr>
            <ns3:cad>0</ns3:cad>
          </ns3:TrackPointExtension>
        </extensions>
      </trkpt>
      <trkpt lat="45.31119458377361297607421875" lon="-70.89834884740412235260009765625">
        <ele>610.79998779296875</ele>
        <time>2026-08-21T16:01:40.000Z</time>
        <extensions>
          <ns3:TrackPointExtension>
            <ns3:hr>134</ns3:hr>
            <ns3:cad>0</ns3:cad>
          </ns3:TrackPointExtension>
        </extensions>
      </trkpt>
      <trkpt lat="45.31120673753321170806884765625" lon="-70.89833711273968219757080078125">
        <ele>610.79998779296875</ele>
        <time>2026-08-21T16:01:41.000Z</time>
        <extensions>
          <ns3:TrackPointExtension>
            <ns3:hr>134</ns3:hr>
            <ns3:cad>0</ns3:cad>
          </ns3:TrackPointExtension>
        </extensions>
      </trkpt>
      <trkpt lat="45.3112292848527431488037109375" lon="-70.89832328259944915771484375">
        <ele>610.79998779296875</ele>
        <time>2026-08-21T16:01:42.000Z</time>
        <extensions>
          <ns3:TrackPointExtension>
            <ns3:hr>134</ns3:hr>
            <ns3:cad>0</ns3:cad>
          </ns3:TrackPointExtension>
        </extensions>
      </trkpt>
      <trkpt lat="45.3112453781068325042724609375" lon="-70.89831481687724590301513671875">
        <ele>610.79998779296875</ele>
        <time>2026-08-21T16:01:43.000Z</time>
        <extensions>
          <ns3:TrackPointExtension>
            <ns3:hr>133</ns3:hr>
            <ns3:cad>0</ns3:cad>
          </ns3:TrackPointExtension>
        </extensions>
      </trkpt>
      <trkpt lat="45.3112561069428920745849609375" lon="-70.89832152239978313446044921875">
        <ele>611</ele>
        <time>2026-08-21T16:01:44.000Z</time>
        <extensions>
          <ns3:TrackPointExtension>
            <ns3:hr>134</ns3:hr>
            <ns3:cad>0</ns3:cad>
          </ns3:TrackPointExtension>
        </extensions>
      </trkpt>
      <trkpt lat="45.31126658432185649871826171875" lon="-70.8983261324465274810791015625">
        <ele>611</ele>
        <time>2026-08-21T16:01:45.000Z</time>
        <extensions>
          <ns3:TrackPointExtension>
            <ns3:hr>134</ns3:hr>
            <ns3:cad>0</ns3:cad>
          </ns3:TrackPointExtension>
        </extensions>
      </trkpt>
      <trkpt lat="45.31127211637794971466064453125" lon="-70.89833141304552555084228515625">
        <ele>611</ele>
        <time>2026-08-21T16:01:46.000Z</time>
        <extensions>
          <ns3:TrackPointExtension>
            <ns3:hr>134</ns3:hr>
            <ns3:cad>54</ns3:cad>
          </ns3:TrackPointExtension>
        </extensions>
      </trkpt>
      <trkpt lat="45.31127848662436008453369140625" lon="-70.8983412198722362518310546875">
        <ele>611</ele>
        <time>2026-08-21T16:01:47.000Z</time>
        <extensions>
          <ns3:TrackPointExtension>
            <ns3:hr>134</ns3:hr>
            <ns3:cad>54</ns3:cad>
          </ns3:TrackPointExtension>
        </extensions>
      </trkpt>
      <trkpt lat="45.311288796365261077880859375" lon="-70.898351110517978668212890625">
        <ele>610.79998779296875</ele>
        <time>2026-08-21T16:01:48.000Z</time>
        <extensions>
          <ns3:TrackPointExtension>
            <ns3:hr>133</ns3:hr>
            <ns3:cad>55</ns3:cad>
          </ns3:TrackPointExtension>
        </extensions>
      </trkpt>
      <trkpt lat="45.31130413524806499481201171875" lon="-70.89835278689861297607421875">
        <ele>610.79998779296875</ele>
        <time>2026-08-21T16:01:49.000Z</time>
        <extensions>
          <ns3:TrackPointExtension>
            <ns3:hr>132</ns3:hr>
            <ns3:cad>55</ns3:cad>
          </ns3:TrackPointExtension>
        </extensions>
      </trkpt>
      <trkpt lat="45.31131519936025142669677734375" lon="-70.898351781070232391357421875">
        <ele>610.79998779296875</ele>
        <time>2026-08-21T16:01:50.000Z</time>
        <extensions>
          <ns3:TrackPointExtension>
            <ns3:hr>132</ns3:hr>
            <ns3:cad>55</ns3:cad>
          </ns3:TrackPointExtension>
        </extensions>
      </trkpt>
      <trkpt lat="45.31133866868913173675537109375" lon="-70.89834331534802913665771484375">
        <ele>610.79998779296875</ele>
        <time>2026-08-21T16:01:51.000Z</time>
        <extensions>
          <ns3:TrackPointExtension>
            <ns3:hr>132</ns3:hr>
            <ns3:cad>60</ns3:cad>
          </ns3:TrackPointExtension>
        </extensions>
      </trkpt>
      <trkpt lat="45.31135660596191883087158203125" lon="-70.89832923375070095062255859375">
        <ele>610.79998779296875</ele>
        <time>2026-08-21T16:01:52.000Z</time>
        <extensions>
          <ns3:TrackPointExtension>
            <ns3:hr>132</ns3:hr>
            <ns3:cad>60</ns3:cad>
          </ns3:TrackPointExtension>
        </extensions>
      </trkpt>
      <trkpt lat="45.31137621961534023284912109375" lon="-70.89831347577273845672607421875">
        <ele>610.79998779296875</ele>
        <time>2026-08-21T16:01:53.000Z</time>
        <extensions>
          <ns3:TrackPointExtension>
            <ns3:hr>132</ns3:hr>
            <ns3:cad>60</ns3:cad>
          </ns3:TrackPointExtension>
        </extensions>
      </trkpt>
      <trkpt lat="45.3113908879458904266357421875" lon="-70.898298136889934539794921875">
        <ele>611</ele>
        <time>2026-08-21T16:01:54.000Z</time>
        <extensions>
          <ns3:TrackPointExtension>
            <ns3:hr>132</ns3:hr>
            <ns3:cad>0</ns3:cad>
          </ns3:TrackPointExtension>
        </extensions>
      </trkpt>
      <trkpt lat="45.3114096634089946746826171875" lon="-70.89827944524586200714111328125">
        <ele>611</ele>
        <time>2026-08-21T16:01:55.000Z</time>
        <extensions>
          <ns3:TrackPointExtension>
            <ns3:hr>133</ns3:hr>
            <ns3:cad>0</ns3:cad>
          </ns3:TrackPointExtension>
        </extensions>
      </trkpt>
      <trkpt lat="45.3114299476146697998046875" lon="-70.89826938696205615997314453125">
        <ele>611</ele>
        <time>2026-08-21T16:01:56.000Z</time>
        <extensions>
          <ns3:TrackPointExtension>
            <ns3:hr>132</ns3:hr>
            <ns3:cad>0</ns3:cad>
          </ns3:TrackPointExtension>
        </extensions>
      </trkpt>
      <trkpt lat="45.31144126318395137786865234375" lon="-70.89826586656272411346435546875">
        <ele>611</ele>
        <time>2026-08-21T16:01:57.000Z</time>
        <extensions>
          <ns3:TrackPointExtension>
            <ns3:hr>132</ns3:hr>
            <ns3:cad>0</ns3:cad>
          </ns3:TrackPointExtension>
        </extensions>
      </trkpt>
      <trkpt lat="45.3114492259919643402099609375" lon="-70.898266620934009552001953125">
        <ele>611</ele>
        <time>2026-08-21T16:01:58.000Z</time>
        <extensions>
          <ns3:TrackPointExtension>
            <ns3:hr>132</ns3:hr>
            <ns3:cad>0</ns3:cad>
          </ns3:TrackPointExtension>
        </extensions>
      </trkpt>
      <trkpt lat="45.3114674985408782958984375" lon="-70.89826687239110469818115234375">
        <ele>611</ele>
        <time>2026-08-21T16:01:59.000Z</time>
        <extensions>
          <ns3:TrackPointExtension>
            <ns3:hr>132</ns3:hr>
            <ns3:cad>0</ns3:cad>
          </ns3:TrackPointExtension>
        </extensions>
      </trkpt>
      <trkpt lat="45.3114780597388744354248046875" lon="-70.89827961288392543792724609375">
        <ele>611</ele>
        <time>2026-08-21T16:02:00.000Z</time>
        <extensions>
          <ns3:TrackPointExtension>
            <ns3:hr>133</ns3:hr>
            <ns3:cad>0</ns3:cad>
          </ns3:TrackPointExtension>
        </extensions>
      </trkpt>
      <trkpt lat="45.31148619018495082855224609375" lon="-70.898292772471904754638671875">
        <ele>611</ele>
        <time>2026-08-21T16:02:01.000Z</time>
        <extensions>
          <ns3:TrackPointExtension>
            <ns3:hr>132</ns3:hr>
            <ns3:cad>0</ns3:cad>
          </ns3:TrackPointExtension>
        </extensions>
      </trkpt>
      <trkpt lat="45.31149893067777156829833984375" lon="-70.8983070217072963714599609375">
        <ele>611</ele>
        <time>2026-08-21T16:02:02.000Z</time>
        <extensions>
          <ns3:TrackPointExtension>
            <ns3:hr>132</ns3:hr>
            <ns3:cad>0</ns3:cad>
          </ns3:TrackPointExtension>
        </extensions>
      </trkpt>
      <trkpt lat="45.3115125931799411773681640625" lon="-70.8983170799911022186279296875">
        <ele>610.79998779296875</ele>
        <time>2026-08-21T16:02:03.000Z</time>
        <extensions>
          <ns3:TrackPointExtension>
            <ns3:hr>131</ns3:hr>
            <ns3:cad>72</ns3:cad>
          </ns3:TrackPointExtension>
        </extensions>
      </trkpt>
      <trkpt lat="45.31152642332017421722412109375" lon="-70.8983281441032886505126953125">
        <ele>610.5999755859375</ele>
        <time>2026-08-21T16:02:04.000Z</time>
        <extensions>
          <ns3:TrackPointExtension>
            <ns3:hr>131</ns3:hr>
            <ns3:cad>72</ns3:cad>
          </ns3:TrackPointExtension>
        </extensions>
      </trkpt>
      <trkpt lat="45.311533547937870025634765625" lon="-70.89833610691130161285400390625">
        <ele>610.5999755859375</ele>
        <time>2026-08-21T16:02:05.000Z</time>
        <extensions>
          <ns3:TrackPointExtension>
            <ns3:hr>131</ns3:hr>
            <ns3:cad>72</ns3:cad>
          </ns3:TrackPointExtension>
        </extensions>
      </trkpt>
      <trkpt lat="45.3115427680313587188720703125" lon="-70.8983492664992809295654296875">
        <ele>610.5999755859375</ele>
        <time>2026-08-21T16:02:06.000Z</time>
        <extensions>
          <ns3:TrackPointExtension>
            <ns3:hr>131</ns3:hr>
            <ns3:cad>72</ns3:cad>
          </ns3:TrackPointExtension>
        </extensions>
      </trkpt>
      <trkpt lat="45.3115514852106571197509765625" lon="-70.89836460538208484649658203125">
        <ele>610.4000244140625</ele>
        <time>2026-08-21T16:02:07.000Z</time>
        <extensions>
          <ns3:TrackPointExtension>
            <ns3:hr>132</ns3:hr>
            <ns3:cad>72</ns3:cad>
          </ns3:TrackPointExtension>
        </extensions>
      </trkpt>
      <trkpt lat="45.31156866811215877532958984375" lon="-70.89838153682649135589599609375">
        <ele>610.4000244140625</ele>
        <time>2026-08-21T16:02:08.000Z</time>
        <extensions>
          <ns3:TrackPointExtension>
            <ns3:hr>132</ns3:hr>
            <ns3:cad>72</ns3:cad>
          </ns3:TrackPointExtension>
        </extensions>
      </trkpt>
      <trkpt lat="45.3115933947265148162841796875" lon="-70.89838455431163311004638671875">
        <ele>610.20001220703125</ele>
        <time>2026-08-21T16:02:09.000Z</time>
        <extensions>
          <ns3:TrackPointExtension>
            <ns3:hr>132</ns3:hr>
            <ns3:cad>72</ns3:cad>
          </ns3:TrackPointExtension>
        </extensions>
      </trkpt>
      <trkpt lat="45.31161443330347537994384765625" lon="-70.89838505722582340240478515625">
        <ele>610</ele>
        <time>2026-08-21T16:02:10.000Z</time>
        <extensions>
          <ns3:TrackPointExtension>
            <ns3:hr>132</ns3:hr>
            <ns3:cad>72</ns3:cad>
          </ns3:TrackPointExtension>
        </extensions>
      </trkpt>
      <trkpt lat="45.31163069419562816619873046875" lon="-70.898387320339679718017578125">
        <ele>609.5999755859375</ele>
        <time>2026-08-21T16:02:11.000Z</time>
        <extensions>
          <ns3:TrackPointExtension>
            <ns3:hr>132</ns3:hr>
            <ns3:cad>72</ns3:cad>
          </ns3:TrackPointExtension>
        </extensions>
      </trkpt>
      <trkpt lat="45.3116490505635738372802734375" lon="-70.89839679189026355743408203125">
        <ele>609.4000244140625</ele>
        <time>2026-08-21T16:02:12.000Z</time>
        <extensions>
          <ns3:TrackPointExtension>
            <ns3:hr>132</ns3:hr>
            <ns3:cad>72</ns3:cad>
          </ns3:TrackPointExtension>
        </extensions>
      </trkpt>
      <trkpt lat="45.31166723929345607757568359375" lon="-70.89840098284184932708740234375">
        <ele>609.20001220703125</ele>
        <time>2026-08-21T16:02:13.000Z</time>
        <extensions>
          <ns3:TrackPointExtension>
            <ns3:hr>132</ns3:hr>
            <ns3:cad>72</ns3:cad>
          </ns3:TrackPointExtension>
        </extensions>
      </trkpt>
      <trkpt lat="45.3116839192807674407958984375" lon="-70.89840299449861049652099609375">
        <ele>609</ele>
        <time>2026-08-21T16:02:14.000Z</time>
        <extensions>
          <ns3:TrackPointExtension>
            <ns3:hr>132</ns3:hr>
            <ns3:cad>72</ns3:cad>
          </ns3:TrackPointExtension>
        </extensions>
      </trkpt>
      <trkpt lat="45.311701186001300811767578125" lon="-70.89840735308825969696044921875">
        <ele>609</ele>
        <time>2026-08-21T16:02:15.000Z</time>
        <extensions>
          <ns3:TrackPointExtension>
            <ns3:hr>132</ns3:hr>
            <ns3:cad>72</ns3:cad>
          </ns3:TrackPointExtension>
        </extensions>
      </trkpt>
      <trkpt lat="45.31171618960797786712646484375" lon="-70.89841640554368495941162109375">
        <ele>609</ele>
        <time>2026-08-21T16:02:16.000Z</time>
        <extensions>
          <ns3:TrackPointExtension>
            <ns3:hr>132</ns3:hr>
            <ns3:cad>72</ns3:cad>
          </ns3:TrackPointExtension>
        </extensions>
      </trkpt>
      <trkpt lat="45.31173043884336948394775390625" lon="-70.89841791428625583648681640625">
        <ele>609.20001220703125</ele>
        <time>2026-08-21T16:02:17.000Z</time>
        <extensions>
          <ns3:TrackPointExtension>
            <ns3:hr>133</ns3:hr>
            <ns3:cad>72</ns3:cad>
          </ns3:TrackPointExtension>
        </extensions>
      </trkpt>
      <trkpt lat="45.31175022013485431671142578125" lon="-70.89841154403984546661376953125">
        <ele>609.4000244140625</ele>
        <time>2026-08-21T16:02:18.000Z</time>
        <extensions>
          <ns3:TrackPointExtension>
            <ns3:hr>132</ns3:hr>
            <ns3:cad>72</ns3:cad>
          </ns3:TrackPointExtension>
        </extensions>
      </trkpt>
      <trkpt lat="45.31176983378827571868896484375" lon="-70.89839712716639041900634765625">
        <ele>609.5999755859375</ele>
        <time>2026-08-21T16:02:19.000Z</time>
        <extensions>
          <ns3:TrackPointExtension>
            <ns3:hr>132</ns3:hr>
            <ns3:cad>72</ns3:cad>
          </ns3:TrackPointExtension>
        </extensions>
      </trkpt>
      <trkpt lat="45.311782322824001312255859375" lon="-70.8983861468732357025146484375">
        <ele>609.5999755859375</ele>
        <time>2026-08-21T16:02:20.000Z</time>
        <extensions>
          <ns3:TrackPointExtension>
            <ns3:hr>132</ns3:hr>
            <ns3:cad>72</ns3:cad>
          </ns3:TrackPointExtension>
        </extensions>
      </trkpt>
      <trkpt lat="45.311795063316822052001953125" lon="-70.8983713947236537933349609375">
        <ele>609.79998779296875</ele>
        <time>2026-08-21T16:02:21.000Z</time>
        <extensions>
          <ns3:TrackPointExtension>
            <ns3:hr>132</ns3:hr>
            <ns3:cad>72</ns3:cad>
          </ns3:TrackPointExtension>
        </extensions>
      </trkpt>
      <trkpt lat="45.31180788762867450714111328125" lon="-70.898353792726993560791015625">
        <ele>610</ele>
        <time>2026-08-21T16:02:22.000Z</time>
        <extensions>
          <ns3:TrackPointExtension>
            <ns3:hr>132</ns3:hr>
            <ns3:cad>72</ns3:cad>
          </ns3:TrackPointExtension>
        </extensions>
      </trkpt>
      <trkpt lat="45.3118193708360195159912109375" lon="-70.898343063890933990478515625">
        <ele>610</ele>
        <time>2026-08-21T16:02:23.000Z</time>
        <extensions>
          <ns3:TrackPointExtension>
            <ns3:hr>132</ns3:hr>
            <ns3:cad>72</ns3:cad>
          </ns3:TrackPointExtension>
        </extensions>
      </trkpt>
      <trkpt lat="45.3118317760527133941650390625" lon="-70.89833627454936504364013671875">
        <ele>610.20001220703125</ele>
        <time>2026-08-21T16:02:24.000Z</time>
        <extensions>
          <ns3:TrackPointExtension>
            <ns3:hr>131</ns3:hr>
            <ns3:cad>72</ns3:cad>
          </ns3:TrackPointExtension>
        </extensions>
      </trkpt>
      <trkpt lat="45.3118461929261684417724609375" lon="-70.8983331732451915740966796875">
        <ele>610.20001220703125</ele>
        <time>2026-08-21T16:02:25.000Z</time>
        <extensions>
          <ns3:TrackPointExtension>
            <ns3:hr>131</ns3:hr>
            <ns3:cad>0</ns3:cad>
          </ns3:TrackPointExtension>
        </extensions>
      </trkpt>
      <trkpt lat="45.31185801140964031219482421875" lon="-70.8983247913420200347900390625">
        <ele>610.4000244140625</ele>
        <time>2026-08-21T16:02:26.000Z</time>
        <extensions>
          <ns3:TrackPointExtension>
            <ns3:hr>131</ns3:hr>
            <ns3:cad>64</ns3:cad>
          </ns3:TrackPointExtension>
        </extensions>
      </trkpt>
      <trkpt lat="45.31187318265438079833984375" lon="-70.89831498451530933380126953125">
        <ele>610.4000244140625</ele>
        <time>2026-08-21T16:02:27.000Z</time>
        <extensions>
          <ns3:TrackPointExtension>
            <ns3:hr>130</ns3:hr>
            <ns3:cad>64</ns3:cad>
          </ns3:TrackPointExtension>
        </extensions>
      </trkpt>
      <trkpt lat="45.31188818626105785369873046875" lon="-70.89831263758242130279541015625">
        <ele>610.4000244140625</ele>
        <time>2026-08-21T16:02:28.000Z</time>
        <extensions>
          <ns3:TrackPointExtension>
            <ns3:hr>130</ns3:hr>
            <ns3:cad>64</ns3:cad>
          </ns3:TrackPointExtension>
        </extensions>
      </trkpt>
      <trkpt lat="45.31190210022032260894775390625" lon="-70.89831062592566013336181640625">
        <ele>610.4000244140625</ele>
        <time>2026-08-21T16:02:29.000Z</time>
        <extensions>
          <ns3:TrackPointExtension>
            <ns3:hr>131</ns3:hr>
            <ns3:cad>64</ns3:cad>
          </ns3:TrackPointExtension>
        </extensions>
      </trkpt>
      <trkpt lat="45.3119127452373504638671875" lon="-70.89830358512699604034423828125">
        <ele>610.20001220703125</ele>
        <time>2026-08-21T16:02:30.000Z</time>
        <extensions>
          <ns3:TrackPointExtension>
            <ns3:hr>131</ns3:hr>
            <ns3:cad>52</ns3:cad>
          </ns3:TrackPointExtension>
        </extensions>
      </trkpt>
      <trkpt lat="45.31191475689411163330078125" lon="-70.8982858993113040924072265625">
        <ele>610.20001220703125</ele>
        <time>2026-08-21T16:02:31.000Z</time>
        <extensions>
          <ns3:TrackPointExtension>
            <ns3:hr>131</ns3:hr>
            <ns3:cad>52</ns3:cad>
          </ns3:TrackPointExtension>
        </extensions>
      </trkpt>
      <trkpt lat="45.3119266591966152191162109375" lon="-70.89827894233167171478271484375">
        <ele>610.20001220703125</ele>
        <time>2026-08-21T16:02:32.000Z</time>
        <extensions>
          <ns3:TrackPointExtension>
            <ns3:hr>131</ns3:hr>
            <ns3:cad>52</ns3:cad>
          </ns3:TrackPointExtension>
        </extensions>
      </trkpt>
      <trkpt lat="45.31193847768008708953857421875" lon="-70.89827273972332477569580078125">
        <ele>610</ele>
        <time>2026-08-21T16:02:33.000Z</time>
        <extensions>
          <ns3:TrackPointExtension>
            <ns3:hr>131</ns3:hr>
            <ns3:cad>52</ns3:cad>
          </ns3:TrackPointExtension>
        </extensions>
      </trkpt>
      <trkpt lat="45.31194962561130523681640625" lon="-70.89826762676239013671875">
        <ele>610</ele>
        <time>2026-08-21T16:02:34.000Z</time>
        <extensions>
          <ns3:TrackPointExtension>
            <ns3:hr>132</ns3:hr>
            <ns3:cad>52</ns3:cad>
          </ns3:TrackPointExtension>
        </extensions>
      </trkpt>
      <trkpt lat="45.31196362338960170745849609375" lon="-70.89826687239110469818115234375">
        <ele>609.79998779296875</ele>
        <time>2026-08-21T16:02:35.000Z</time>
        <extensions>
          <ns3:TrackPointExtension>
            <ns3:hr>132</ns3:hr>
            <ns3:cad>60</ns3:cad>
          </ns3:TrackPointExtension>
        </extensions>
      </trkpt>
      <trkpt lat="45.31197510659694671630859375" lon="-70.89826150797307491302490234375">
        <ele>609.79998779296875</ele>
        <time>2026-08-21T16:02:36.000Z</time>
        <extensions>
          <ns3:TrackPointExtension>
            <ns3:hr>133</ns3:hr>
            <ns3:cad>60</ns3:cad>
          </ns3:TrackPointExtension>
        </extensions>
      </trkpt>
      <trkpt lat="45.31198759563267230987548828125" lon="-70.8982582390308380126953125">
        <ele>609.79998779296875</ele>
        <time>2026-08-21T16:02:37.000Z</time>
        <extensions>
          <ns3:TrackPointExtension>
            <ns3:hr>133</ns3:hr>
            <ns3:cad>60</ns3:cad>
          </ns3:TrackPointExtension>
        </extensions>
      </trkpt>
      <trkpt lat="45.3120000846683979034423828125" lon="-70.89825580827891826629638671875">
        <ele>609.79998779296875</ele>
        <time>2026-08-21T16:02:38.000Z</time>
        <extensions>
          <ns3:TrackPointExtension>
            <ns3:hr>133</ns3:hr>
            <ns3:cad>60</ns3:cad>
          </ns3:TrackPointExtension>
        </extensions>
      </trkpt>
      <trkpt lat="45.31201441772282123565673828125" lon="-70.898250527679920196533203125">
        <ele>609.79998779296875</ele>
        <time>2026-08-21T16:02:39.000Z</time>
        <extensions>
          <ns3:TrackPointExtension>
            <ns3:hr>132</ns3:hr>
            <ns3:cad>60</ns3:cad>
          </ns3:TrackPointExtension>
        </extensions>
      </trkpt>
      <trkpt lat="45.3120280802249908447265625" lon="-70.89825027622282505035400390625">
        <ele>609.79998779296875</ele>
        <time>2026-08-21T16:02:40.000Z</time>
        <extensions>
          <ns3:TrackPointExtension>
            <ns3:hr>132</ns3:hr>
            <ns3:cad>60</ns3:cad>
          </ns3:TrackPointExtension>
        </extensions>
      </trkpt>
      <trkpt lat="45.31204006634652614593505859375" lon="-70.89824977330863475799560546875">
        <ele>610</ele>
        <time>2026-08-21T16:02:41.000Z</time>
        <extensions>
          <ns3:TrackPointExtension>
            <ns3:hr>132</ns3:hr>
            <ns3:cad>60</ns3:cad>
          </ns3:TrackPointExtension>
        </extensions>
      </trkpt>
      <trkpt lat="45.31205289065837860107421875" lon="-70.89824658818542957305908203125">
        <ele>610</ele>
        <time>2026-08-21T16:02:42.000Z</time>
        <extensions>
          <ns3:TrackPointExtension>
            <ns3:hr>132</ns3:hr>
            <ns3:cad>70</ns3:cad>
          </ns3:TrackPointExtension>
        </extensions>
      </trkpt>
      <trkpt lat="45.31206035055220127105712890625" lon="-70.8982413075864315032958984375">
        <ele>610</ele>
        <time>2026-08-21T16:02:43.000Z</time>
        <extensions>
          <ns3:TrackPointExtension>
            <ns3:hr>132</ns3:hr>
            <ns3:cad>70</ns3:cad>
          </ns3:TrackPointExtension>
        </extensions>
      </trkpt>
      <trkpt lat="45.31207225285470485687255859375" lon="-70.8982362784445285797119140625">
        <ele>610</ele>
        <time>2026-08-21T16:02:44.000Z</time>
        <extensions>
          <ns3:TrackPointExtension>
            <ns3:hr>133</ns3:hr>
            <ns3:cad>53</ns3:cad>
          </ns3:TrackPointExtension>
        </extensions>
      </trkpt>
      <trkpt lat="45.31208633445203304290771484375" lon="-70.89823518879711627960205078125">
        <ele>610</ele>
        <time>2026-08-21T16:02:45.000Z</time>
        <extensions>
          <ns3:TrackPointExtension>
            <ns3:hr>135</ns3:hr>
            <ns3:cad>53</ns3:cad>
          </ns3:TrackPointExtension>
        </extensions>
      </trkpt>
      <trkpt lat="45.31209739856421947479248046875" lon="-70.8982356078922748565673828125">
        <ele>610.20001220703125</ele>
        <time>2026-08-21T16:02:46.000Z</time>
        <extensions>
          <ns3:TrackPointExtension>
            <ns3:hr>135</ns3:hr>
            <ns3:cad>53</ns3:cad>
          </ns3:TrackPointExtension>
        </extensions>
      </trkpt>
      <trkpt lat="45.31210712157189846038818359375" lon="-70.8982382901012897491455078125">
        <ele>610.20001220703125</ele>
        <time>2026-08-21T16:02:47.000Z</time>
        <extensions>
          <ns3:TrackPointExtension>
            <ns3:hr>136</ns3:hr>
            <ns3:cad>53</ns3:cad>
          </ns3:TrackPointExtension>
        </extensions>
      </trkpt>
      <trkpt lat="45.312120281159877777099609375" lon="-70.89823745191097259521484375">
        <ele>610.20001220703125</ele>
        <time>2026-08-21T16:02:48.000Z</time>
        <extensions>
          <ns3:TrackPointExtension>
            <ns3:hr>136</ns3:hr>
            <ns3:cad>53</ns3:cad>
          </ns3:TrackPointExtension>
        </extensions>
      </trkpt>
      <trkpt lat="45.312133692204952239990234375" lon="-70.89823133312165737152099609375">
        <ele>610.20001220703125</ele>
        <time>2026-08-21T16:02:49.000Z</time>
        <extensions>
          <ns3:TrackPointExtension>
            <ns3:hr>136</ns3:hr>
            <ns3:cad>55</ns3:cad>
          </ns3:TrackPointExtension>
        </extensions>
      </trkpt>
      <trkpt lat="45.3121492825448513031005859375" lon="-70.8982282318174839019775390625">
        <ele>610.20001220703125</ele>
        <time>2026-08-21T16:02:50.000Z</time>
        <extensions>
          <ns3:TrackPointExtension>
            <ns3:hr>135</ns3:hr>
            <ns3:cad>53</ns3:cad>
          </ns3:TrackPointExtension>
        </extensions>
      </trkpt>
      <trkpt lat="45.3121603466570377349853515625" lon="-70.8982262201607227325439453125">
        <ele>610.20001220703125</ele>
        <time>2026-08-21T16:02:51.000Z</time>
        <extensions>
          <ns3:TrackPointExtension>
            <ns3:hr>136</ns3:hr>
            <ns3:cad>53</ns3:cad>
          </ns3:TrackPointExtension>
        </extensions>
      </trkpt>
      <trkpt lat="45.3121747635304927825927734375" lon="-70.89822563342750072479248046875">
        <ele>610</ele>
        <time>2026-08-21T16:02:52.000Z</time>
        <extensions>
          <ns3:TrackPointExtension>
            <ns3:hr>136</ns3:hr>
            <ns3:cad>52</ns3:cad>
          </ns3:TrackPointExtension>
        </extensions>
      </trkpt>
      <trkpt lat="45.31219177879393100738525390625" lon="-70.898220352828502655029296875">
        <ele>610</ele>
        <time>2026-08-21T16:02:53.000Z</time>
        <extensions>
          <ns3:TrackPointExtension>
            <ns3:hr>136</ns3:hr>
            <ns3:cad>52</ns3:cad>
          </ns3:TrackPointExtension>
        </extensions>
      </trkpt>
      <trkpt lat="45.31220720149576663970947265625" lon="-70.89821331202983856201171875">
        <ele>610</ele>
        <time>2026-08-21T16:02:54.000Z</time>
        <extensions>
          <ns3:TrackPointExtension>
            <ns3:hr>136</ns3:hr>
            <ns3:cad>51</ns3:cad>
          </ns3:TrackPointExtension>
        </extensions>
      </trkpt>
      <trkpt lat="45.312220193445682525634765625" lon="-70.89820325374603271484375">
        <ele>609.79998779296875</ele>
        <time>2026-08-21T16:02:55.000Z</time>
        <extensions>
          <ns3:TrackPointExtension>
            <ns3:hr>136</ns3:hr>
            <ns3:cad>51</ns3:cad>
          </ns3:TrackPointExtension>
        </extensions>
      </trkpt>
      <trkpt lat="45.31223150901496410369873046875" lon="-70.89819747023284435272216796875">
        <ele>609.79998779296875</ele>
        <time>2026-08-21T16:02:56.000Z</time>
        <extensions>
          <ns3:TrackPointExtension>
            <ns3:hr>136</ns3:hr>
            <ns3:cad>51</ns3:cad>
          </ns3:TrackPointExtension>
        </extensions>
      </trkpt>
      <trkpt lat="45.3122418187558650970458984375" lon="-70.898189507424831390380859375">
        <ele>609.79998779296875</ele>
        <time>2026-08-21T16:02:57.000Z</time>
        <extensions>
          <ns3:TrackPointExtension>
            <ns3:hr>136</ns3:hr>
            <ns3:cad>53</ns3:cad>
          </ns3:TrackPointExtension>
        </extensions>
      </trkpt>
      <trkpt lat="45.31225271522998809814453125" lon="-70.89818623848259449005126953125">
        <ele>610</ele>
        <time>2026-08-21T16:02:58.000Z</time>
        <extensions>
          <ns3:TrackPointExtension>
            <ns3:hr>136</ns3:hr>
            <ns3:cad>53</ns3:cad>
          </ns3:TrackPointExtension>
        </extensions>
      </trkpt>
      <trkpt lat="45.31225330196321010589599609375" lon="-70.89817584492266178131103515625">
        <ele>610</ele>
        <time>2026-08-21T16:02:59.000Z</time>
        <extensions>
          <ns3:TrackPointExtension>
            <ns3:hr>136</ns3:hr>
            <ns3:cad>0</ns3:cad>
          </ns3:TrackPointExtension>
        </extensions>
      </trkpt>
      <trkpt lat="45.3122560679912567138671875" lon="-70.89815723709762096405029296875">
        <ele>610</ele>
        <time>2026-08-21T16:03:00.000Z</time>
        <extensions>
          <ns3:TrackPointExtension>
            <ns3:hr>136</ns3:hr>
            <ns3:cad>0</ns3:cad>
          </ns3:TrackPointExtension>
        </extensions>
      </trkpt>
      <trkpt lat="45.31226336024701595306396484375" lon="-70.89813360013067722320556640625">
        <ele>610</ele>
        <time>2026-08-21T16:03:01.000Z</time>
        <extensions>
          <ns3:TrackPointExtension>
            <ns3:hr>136</ns3:hr>
            <ns3:cad>0</ns3:cad>
          </ns3:TrackPointExtension>
        </extensions>
      </trkpt>
      <trkpt lat="45.31227341853082180023193359375" lon="-70.8981182612478733062744140625">
        <ele>610.20001220703125</ele>
        <time>2026-08-21T16:03:02.000Z</time>
        <extensions>
          <ns3:TrackPointExtension>
            <ns3:hr>136</ns3:hr>
            <ns3:cad>0</ns3:cad>
          </ns3:TrackPointExtension>
        </extensions>
      </trkpt>
      <trkpt lat="45.31228356063365936279296875" lon="-70.8981014974415302276611328125">
        <ele>610.20001220703125</ele>
        <time>2026-08-21T16:03:03.000Z</time>
        <extensions>
          <ns3:TrackPointExtension>
            <ns3:hr>136</ns3:hr>
            <ns3:cad>0</ns3:cad>
          </ns3:TrackPointExtension>
        </extensions>
      </trkpt>
      <trkpt lat="45.31229336746037006378173828125" lon="-70.8980854041874408721923828125">
        <ele>610.20001220703125</ele>
        <time>2026-08-21T16:03:04.000Z</time>
        <extensions>
          <ns3:TrackPointExtension>
            <ns3:hr>136</ns3:hr>
            <ns3:cad>0</ns3:cad>
          </ns3:TrackPointExtension>
        </extensions>
      </trkpt>
      <trkpt lat="45.3123014979064464569091796875" lon="-70.898065455257892608642578125">
        <ele>610.20001220703125</ele>
        <time>2026-08-21T16:03:05.000Z</time>
        <extensions>
          <ns3:TrackPointExtension>
            <ns3:hr>135</ns3:hr>
            <ns3:cad>0</ns3:cad>
          </ns3:TrackPointExtension>
        </extensions>
      </trkpt>
      <trkpt lat="45.31230476684868335723876953125" lon="-70.89804693125188350677490234375">
        <ele>610.20001220703125</ele>
        <time>2026-08-21T16:03:06.000Z</time>
        <extensions>
          <ns3:TrackPointExtension>
            <ns3:hr>136</ns3:hr>
            <ns3:cad>48</ns3:cad>
          </ns3:TrackPointExtension>
        </extensions>
      </trkpt>
      <trkpt lat="45.31230770051479339599609375" lon="-70.898031927645206451416015625">
        <ele>610.20001220703125</ele>
        <time>2026-08-21T16:03:07.000Z</time>
        <extensions>
          <ns3:TrackPointExtension>
            <ns3:hr>136</ns3:hr>
            <ns3:cad>48</ns3:cad>
          </ns3:TrackPointExtension>
        </extensions>
      </trkpt>
      <trkpt lat="45.312323458492755889892578125" lon="-70.89802019298076629638671875">
        <ele>610.20001220703125</ele>
        <time>2026-08-21T16:03:08.000Z</time>
        <extensions>
          <ns3:TrackPointExtension>
            <ns3:hr>135</ns3:hr>
            <ns3:cad>48</ns3:cad>
          </ns3:TrackPointExtension>
        </extensions>
      </trkpt>
      <trkpt lat="45.3123378753662109375" lon="-70.898016504943370819091796875">
        <ele>610.20001220703125</ele>
        <time>2026-08-21T16:03:09.000Z</time>
        <extensions>
          <ns3:TrackPointExtension>
            <ns3:hr>135</ns3:hr>
            <ns3:cad>0</ns3:cad>
          </ns3:TrackPointExtension>
        </extensions>
      </trkpt>
      <trkpt lat="45.31235069967806339263916015625" lon="-70.8980223722755908966064453125">
        <ele>610.20001220703125</ele>
        <time>2026-08-21T16:03:10.000Z</time>
        <extensions>
          <ns3:TrackPointExtension>
            <ns3:hr>135</ns3:hr>
            <ns3:cad>0</ns3:cad>
          </ns3:TrackPointExtension>
        </extensions>
      </trkpt>
      <trkpt lat="45.312362350523471832275390625" lon="-70.898024551570415496826171875">
        <ele>610.4000244140625</ele>
        <time>2026-08-21T16:03:11.000Z</time>
        <extensions>
          <ns3:TrackPointExtension>
            <ns3:hr>135</ns3:hr>
            <ns3:cad>18</ns3:cad>
          </ns3:TrackPointExtension>
        </extensions>
      </trkpt>
      <trkpt lat="45.312379114329814910888671875" lon="-70.8980277366936206817626953125">
        <ele>610.20001220703125</ele>
        <time>2026-08-21T16:03:12.000Z</time>
        <extensions>
          <ns3:TrackPointExtension>
            <ns3:hr>134</ns3:hr>
            <ns3:cad>18</ns3:cad>
          </ns3:TrackPointExtension>
        </extensions>
      </trkpt>
      <trkpt lat="45.31239294447004795074462890625" lon="-70.8980260603129863739013671875">
        <ele>610.20001220703125</ele>
        <time>2026-08-21T16:03:13.000Z</time>
        <extensions>
          <ns3:TrackPointExtension>
            <ns3:hr>134</ns3:hr>
            <ns3:cad>18</ns3:cad>
          </ns3:TrackPointExtension>
        </extensions>
      </trkpt>
      <trkpt lat="45.3124061040580272674560546875" lon="-70.89803067035973072052001953125">
        <ele>610.20001220703125</ele>
        <time>2026-08-21T16:03:14.000Z</time>
        <extensions>
          <ns3:TrackPointExtension>
            <ns3:hr>134</ns3:hr>
            <ns3:cad>18</ns3:cad>
          </ns3:TrackPointExtension>
        </extensions>
      </trkpt>
      <trkpt lat="45.3124148212373256683349609375" lon="-70.8980347774922847747802734375">
        <ele>610</ele>
        <time>2026-08-21T16:03:15.000Z</time>
        <extensions>
          <ns3:TrackPointExtension>
            <ns3:hr>135</ns3:hr>
            <ns3:cad>18</ns3:cad>
          </ns3:TrackPointExtension>
        </extensions>
      </trkpt>
      <trkpt lat="45.3124277293682098388671875" lon="-70.89804232120513916015625">
        <ele>609.79998779296875</ele>
        <time>2026-08-21T16:03:16.000Z</time>
        <extensions>
          <ns3:TrackPointExtension>
            <ns3:hr>136</ns3:hr>
            <ns3:cad>67</ns3:cad>
          </ns3:TrackPointExtension>
        </extensions>
      </trkpt>
      <trkpt lat="45.31244239769876003265380859375" lon="-70.8980490267276763916015625">
        <ele>609.79998779296875</ele>
        <time>2026-08-21T16:03:17.000Z</time>
        <extensions>
          <ns3:TrackPointExtension>
            <ns3:hr>135</ns3:hr>
            <ns3:cad>67</ns3:cad>
          </ns3:TrackPointExtension>
        </extensions>
      </trkpt>
      <trkpt lat="45.31246058642864227294921875" lon="-70.89805564843118190765380859375">
        <ele>609.79998779296875</ele>
        <time>2026-08-21T16:03:18.000Z</time>
        <extensions>
          <ns3:TrackPointExtension>
            <ns3:hr>135</ns3:hr>
            <ns3:cad>67</ns3:cad>
          </ns3:TrackPointExtension>
        </extensions>
      </trkpt>
      <trkpt lat="45.31247642822563648223876953125" lon="-70.8980622701346874237060546875">
        <ele>609.5999755859375</ele>
        <time>2026-08-21T16:03:19.000Z</time>
        <extensions>
          <ns3:TrackPointExtension>
            <ns3:hr>135</ns3:hr>
            <ns3:cad>67</ns3:cad>
          </ns3:TrackPointExtension>
        </extensions>
      </trkpt>
      <trkpt lat="45.3124912641942501068115234375" lon="-70.8980696462094783782958984375">
        <ele>609.5999755859375</ele>
        <time>2026-08-21T16:03:20.000Z</time>
        <extensions>
          <ns3:TrackPointExtension>
            <ns3:hr>135</ns3:hr>
            <ns3:cad>67</ns3:cad>
          </ns3:TrackPointExtension>
        </extensions>
      </trkpt>
      <trkpt lat="45.3125095367431640625" lon="-70.89807794429361820220947265625">
        <ele>609.5999755859375</ele>
        <time>2026-08-21T16:03:21.000Z</time>
        <extensions>
          <ns3:TrackPointExtension>
            <ns3:hr>135</ns3:hr>
            <ns3:cad>67</ns3:cad>
          </ns3:TrackPointExtension>
        </extensions>
      </trkpt>
      <trkpt lat="45.31252504326403141021728515625" lon="-70.89807928539812564849853515625">
        <ele>609.5999755859375</ele>
        <time>2026-08-21T16:03:22.000Z</time>
        <extensions>
          <ns3:TrackPointExtension>
            <ns3:hr>134</ns3:hr>
            <ns3:cad>65</ns3:cad>
          </ns3:TrackPointExtension>
        </extensions>
      </trkpt>
      <trkpt lat="45.3125418908894062042236328125" lon="-70.89808280579745769500732421875">
        <ele>609.4000244140625</ele>
        <time>2026-08-21T16:03:23.000Z</time>
        <extensions>
          <ns3:TrackPointExtension>
            <ns3:hr>135</ns3:hr>
            <ns3:cad>65</ns3:cad>
          </ns3:TrackPointExtension>
        </extensions>
      </trkpt>
      <trkpt lat="45.31255823560059070587158203125" lon="-70.89808381162583827972412109375">
        <ele>609.4000244140625</ele>
        <time>2026-08-21T16:03:24.000Z</time>
        <extensions>
          <ns3:TrackPointExtension>
            <ns3:hr>134</ns3:hr>
            <ns3:cad>65</ns3:cad>
          </ns3:TrackPointExtension>
        </extensions>
      </trkpt>
      <trkpt lat="45.312574915587902069091796875" lon="-70.89808414690196514129638671875">
        <ele>609.4000244140625</ele>
        <time>2026-08-21T16:03:25.000Z</time>
        <extensions>
          <ns3:TrackPointExtension>
            <ns3:hr>134</ns3:hr>
            <ns3:cad>65</ns3:cad>
          </ns3:TrackPointExtension>
        </extensions>
      </trkpt>
      <trkpt lat="45.312592349946498870849609375" lon="-70.89808548800647258758544921875">
        <ele>609.4000244140625</ele>
        <time>2026-08-21T16:03:26.000Z</time>
        <extensions>
          <ns3:TrackPointExtension>
            <ns3:hr>135</ns3:hr>
            <ns3:cad>65</ns3:cad>
          </ns3:TrackPointExtension>
        </extensions>
      </trkpt>
      <trkpt lat="45.31261338852345943450927734375" lon="-70.89808582328259944915771484375">
        <ele>609.4000244140625</ele>
        <time>2026-08-21T16:03:27.000Z</time>
        <extensions>
          <ns3:TrackPointExtension>
            <ns3:hr>135</ns3:hr>
            <ns3:cad>65</ns3:cad>
          </ns3:TrackPointExtension>
        </extensions>
      </trkpt>
      <trkpt lat="45.31263283453881740570068359375" lon="-70.89808649383485317230224609375">
        <ele>609.4000244140625</ele>
        <time>2026-08-21T16:03:28.000Z</time>
        <extensions>
          <ns3:TrackPointExtension>
            <ns3:hr>135</ns3:hr>
            <ns3:cad>65</ns3:cad>
          </ns3:TrackPointExtension>
        </extensions>
      </trkpt>
      <trkpt lat="45.3126518614590167999267578125" lon="-70.8980892598628997802734375">
        <ele>609.4000244140625</ele>
        <time>2026-08-21T16:03:29.000Z</time>
        <extensions>
          <ns3:TrackPointExtension>
            <ns3:hr>134</ns3:hr>
            <ns3:cad>0</ns3:cad>
          </ns3:TrackPointExtension>
        </extensions>
      </trkpt>
      <trkpt lat="45.3126662783324718475341796875" lon="-70.89809755794703960418701171875">
        <ele>609.4000244140625</ele>
        <time>2026-08-21T16:03:30.000Z</time>
        <extensions>
          <ns3:TrackPointExtension>
            <ns3:hr>134</ns3:hr>
            <ns3:cad>0</ns3:cad>
          </ns3:TrackPointExtension>
        </extensions>
      </trkpt>
      <trkpt lat="45.3126736544072628021240234375" lon="-70.89810275472700595855712890625">
        <ele>609.20001220703125</ele>
        <time>2026-08-21T16:03:31.000Z</time>
        <extensions>
          <ns3:TrackPointExtension>
            <ns3:hr>132</ns3:hr>
            <ns3:cad>0</ns3:cad>
          </ns3:TrackPointExtension>
        </extensions>
      </trkpt>
      <trkpt lat="45.3126811981201171875" lon="-70.898113064467906951904296875">
        <ele>609.20001220703125</ele>
        <time>2026-08-21T16:03:32.000Z</time>
        <extensions>
          <ns3:TrackPointExtension>
            <ns3:hr>131</ns3:hr>
            <ns3:cad>0</ns3:cad>
          </ns3:TrackPointExtension>
        </extensions>
      </trkpt>
      <trkpt lat="45.312683545053005218505859375" lon="-70.898121781647205352783203125">
        <ele>609.20001220703125</ele>
        <time>2026-08-21T16:03:33.000Z</time>
        <extensions>
          <ns3:TrackPointExtension>
            <ns3:hr>129</ns3:hr>
            <ns3:cad>18</ns3:cad>
          </ns3:TrackPointExtension>
        </extensions>
      </trkpt>
      <trkpt lat="45.3126790188252925872802734375" lon="-70.89813225902616977691650390625">
        <ele>609.20001220703125</ele>
        <time>2026-08-21T16:03:34.000Z</time>
        <extensions>
          <ns3:TrackPointExtension>
            <ns3:hr>129</ns3:hr>
            <ns3:cad>18</ns3:cad>
          </ns3:TrackPointExtension>
        </extensions>
      </trkpt>
      <trkpt lat="45.31267977319657802581787109375" lon="-70.89814885519444942474365234375">
        <ele>609</ele>
        <time>2026-08-21T16:03:35.000Z</time>
        <extensions>
          <ns3:TrackPointExtension>
            <ns3:hr>129</ns3:hr>
            <ns3:cad>18</ns3:cad>
          </ns3:TrackPointExtension>
        </extensions>
      </trkpt>
      <trkpt lat="45.31268463470041751861572265625" lon="-70.8981641940772533416748046875">
        <ele>609</ele>
        <time>2026-08-21T16:03:36.000Z</time>
        <extensions>
          <ns3:TrackPointExtension>
            <ns3:hr>130</ns3:hr>
            <ns3:cad>18</ns3:cad>
          </ns3:TrackPointExtension>
        </extensions>
      </trkpt>
      <trkpt lat="45.31268698163330554962158203125" lon="-70.89818112552165985107421875">
        <ele>609</ele>
        <time>2026-08-21T16:03:37.000Z</time>
        <extensions>
          <ns3:TrackPointExtension>
            <ns3:hr>130</ns3:hr>
            <ns3:cad>18</ns3:cad>
          </ns3:TrackPointExtension>
        </extensions>
      </trkpt>
      <trkpt lat="45.31269402243196964263916015625" lon="-70.89820258319377899169921875">
        <ele>609</ele>
        <time>2026-08-21T16:03:38.000Z</time>
        <extensions>
          <ns3:TrackPointExtension>
            <ns3:hr>130</ns3:hr>
            <ns3:cad>71</ns3:cad>
          </ns3:TrackPointExtension>
        </extensions>
      </trkpt>
      <trkpt lat="45.3127018176019191741943359375" lon="-70.89822161011397838592529296875">
        <ele>609</ele>
        <time>2026-08-21T16:03:39.000Z</time>
        <extensions>
          <ns3:TrackPointExtension>
            <ns3:hr>130</ns3:hr>
            <ns3:cad>54</ns3:cad>
          </ns3:TrackPointExtension>
        </extensions>
      </trkpt>
      <trkpt lat="45.31271263025701045989990234375" lon="-70.89823753573000431060791015625">
        <ele>608.79998779296875</ele>
        <time>2026-08-21T16:03:40.000Z</time>
        <extensions>
          <ns3:TrackPointExtension>
            <ns3:hr>131</ns3:hr>
            <ns3:cad>54</ns3:cad>
          </ns3:TrackPointExtension>
        </extensions>
      </trkpt>
      <trkpt lat="45.31272235326468944549560546875" lon="-70.89825212024152278900146484375">
        <ele>608.79998779296875</ele>
        <time>2026-08-21T16:03:41.000Z</time>
        <extensions>
          <ns3:TrackPointExtension>
            <ns3:hr>131</ns3:hr>
            <ns3:cad>54</ns3:cad>
          </ns3:TrackPointExtension>
        </extensions>
      </trkpt>
      <trkpt lat="45.31273442320525646209716796875" lon="-70.898268632590770721435546875">
        <ele>608.79998779296875</ele>
        <time>2026-08-21T16:03:42.000Z</time>
        <extensions>
          <ns3:TrackPointExtension>
            <ns3:hr>131</ns3:hr>
            <ns3:cad>54</ns3:cad>
          </ns3:TrackPointExtension>
        </extensions>
      </trkpt>
      <trkpt lat="45.31274833716452121734619140625" lon="-70.89828128926455974578857421875">
        <ele>608.79998779296875</ele>
        <time>2026-08-21T16:03:43.000Z</time>
        <extensions>
          <ns3:TrackPointExtension>
            <ns3:hr>130</ns3:hr>
            <ns3:cad>54</ns3:cad>
          </ns3:TrackPointExtension>
        </extensions>
      </trkpt>
      <trkpt lat="45.31276459805667400360107421875" lon="-70.89828531257808208465576171875">
        <ele>608.79998779296875</ele>
        <time>2026-08-21T16:03:44.000Z</time>
        <extensions>
          <ns3:TrackPointExtension>
            <ns3:hr>130</ns3:hr>
            <ns3:cad>54</ns3:cad>
          </ns3:TrackPointExtension>
        </extensions>
      </trkpt>
      <trkpt lat="45.31277574598789215087890625" lon="-70.898285396397113800048828125">
        <ele>608.5999755859375</ele>
        <time>2026-08-21T16:03:45.000Z</time>
        <extensions>
          <ns3:TrackPointExtension>
            <ns3:hr>130</ns3:hr>
            <ns3:cad>54</ns3:cad>
          </ns3:TrackPointExtension>
        </extensions>
      </trkpt>
      <trkpt lat="45.31278471462428569793701171875" lon="-70.89828765951097011566162109375">
        <ele>608.4000244140625</ele>
        <time>2026-08-21T16:03:46.000Z</time>
        <extensions>
          <ns3:TrackPointExtension>
            <ns3:hr>130</ns3:hr>
            <ns3:cad>54</ns3:cad>
          </ns3:TrackPointExtension>
        </extensions>
      </trkpt>
      <trkpt lat="45.31279259361326694488525390625" lon="-70.89829285629093647003173828125">
        <ele>608.20001220703125</ele>
        <time>2026-08-21T16:03:47.000Z</time>
        <extensions>
          <ns3:TrackPointExtension>
            <ns3:hr>130</ns3:hr>
            <ns3:cad>54</ns3:cad>
          </ns3:TrackPointExtension>
        </extensions>
      </trkpt>
      <trkpt lat="45.31279980204999446868896484375" lon="-70.89830392040312290191650390625">
        <ele>607.79998779296875</ele>
        <time>2026-08-21T16:03:48.000Z</time>
        <extensions>
          <ns3:TrackPointExtension>
            <ns3:hr>130</ns3:hr>
            <ns3:cad>41</ns3:cad>
          </ns3:TrackPointExtension>
        </extensions>
      </trkpt>
      <trkpt lat="45.31280583702027797698974609375" lon="-70.8983154036104679107666015625">
        <ele>607.79998779296875</ele>
        <time>2026-08-21T16:03:49.000Z</time>
        <extensions>
          <ns3:TrackPointExtension>
            <ns3:hr>130</ns3:hr>
            <ns3:cad>41</ns3:cad>
          </ns3:TrackPointExtension>
        </extensions>
      </trkpt>
      <trkpt lat="45.312812291085720062255859375" lon="-70.898319594562053680419921875">
        <ele>607.5999755859375</ele>
        <time>2026-08-21T16:03:50.000Z</time>
        <extensions>
          <ns3:TrackPointExtension>
            <ns3:hr>130</ns3:hr>
            <ns3:cad>41</ns3:cad>
          </ns3:TrackPointExtension>
        </extensions>
      </trkpt>
      <trkpt lat="45.3128251992166042327880859375" lon="-70.89833057485520839691162109375">
        <ele>607.4000244140625</ele>
        <time>2026-08-21T16:03:51.000Z</time>
        <extensions>
          <ns3:TrackPointExtension>
            <ns3:hr>131</ns3:hr>
            <ns3:cad>41</ns3:cad>
          </ns3:TrackPointExtension>
        </extensions>
      </trkpt>
      <trkpt lat="45.312833078205585479736328125" lon="-70.89833962731063365936279296875">
        <ele>607.4000244140625</ele>
        <time>2026-08-21T16:03:52.000Z</time>
        <extensions>
          <ns3:TrackPointExtension>
            <ns3:hr>130</ns3:hr>
            <ns3:cad>41</ns3:cad>
          </ns3:TrackPointExtension>
        </extensions>
      </trkpt>
      <trkpt lat="45.3128421306610107421875" lon="-70.89835002087056636810302734375">
        <ele>607.20001220703125</ele>
        <time>2026-08-21T16:03:53.000Z</time>
        <extensions>
          <ns3:TrackPointExtension>
            <ns3:hr>130</ns3:hr>
            <ns3:cad>0</ns3:cad>
          </ns3:TrackPointExtension>
        </extensions>
      </trkpt>
      <trkpt lat="45.31285026110708713531494140625" lon="-70.898350775241851806640625">
        <ele>607</ele>
        <time>2026-08-21T16:03:54.000Z</time>
        <extensions>
          <ns3:TrackPointExtension>
            <ns3:hr>130</ns3:hr>
            <ns3:cad>0</ns3:cad>
          </ns3:TrackPointExtension>
        </extensions>
      </trkpt>
      <trkpt lat="45.31285755336284637451171875" lon="-70.89834918268024921417236328125">
        <ele>607</ele>
        <time>2026-08-21T16:03:55.000Z</time>
        <extensions>
          <ns3:TrackPointExtension>
            <ns3:hr>130</ns3:hr>
            <ns3:cad>0</ns3:cad>
          </ns3:TrackPointExtension>
        </extensions>
      </trkpt>
      <trkpt lat="45.31286400742828845977783203125" lon="-70.8983462490141391754150390625">
        <ele>606.79998779296875</ele>
        <time>2026-08-21T16:03:56.000Z</time>
        <extensions>
          <ns3:TrackPointExtension>
            <ns3:hr>130</ns3:hr>
            <ns3:cad>0</ns3:cad>
          </ns3:TrackPointExtension>
        </extensions>
      </trkpt>
      <trkpt lat="45.31287498772144317626953125" lon="-70.89834365062415599822998046875">
        <ele>606.79998779296875</ele>
        <time>2026-08-21T16:03:57.000Z</time>
        <extensions>
          <ns3:TrackPointExtension>
            <ns3:hr>130</ns3:hr>
            <ns3:cad>0</ns3:cad>
          </ns3:TrackPointExtension>
        </extensions>
      </trkpt>
      <trkpt lat="45.31288194470107555389404296875" lon="-70.8983408845961093902587890625">
        <ele>606.5999755859375</ele>
        <time>2026-08-21T16:03:58.000Z</time>
        <extensions>
          <ns3:TrackPointExtension>
            <ns3:hr>130</ns3:hr>
            <ns3:cad>0</ns3:cad>
          </ns3:TrackPointExtension>
        </extensions>
      </trkpt>
      <trkpt lat="45.31288035213947296142578125" lon="-70.898345410823822021484375">
        <ele>606.5999755859375</ele>
        <time>2026-08-21T16:03:59.000Z</time>
        <extensions>
          <ns3:TrackPointExtension>
            <ns3:hr>130</ns3:hr>
            <ns3:cad>0</ns3:cad>
          </ns3:TrackPointExtension>
        </extensions>
      </trkpt>
      <trkpt lat="45.312880687415599822998046875" lon="-70.8983496017754077911376953125">
        <ele>606.5999755859375</ele>
        <time>2026-08-21T16:04:00.000Z</time>
        <extensions>
          <ns3:TrackPointExtension>
            <ns3:hr>130</ns3:hr>
            <ns3:cad>0</ns3:cad>
          </ns3:TrackPointExtension>
        </extensions>
      </trkpt>
      <trkpt lat="45.3128791786730289459228515625" lon="-70.89834851212799549102783203125">
        <ele>606.5999755859375</ele>
        <time>2026-08-21T16:04:01.000Z</time>
        <extensions>
          <ns3:TrackPointExtension>
            <ns3:hr>130</ns3:hr>
            <ns3:cad>0</ns3:cad>
          </ns3:TrackPointExtension>
        </extensions>
      </trkpt>
      <trkpt lat="45.31288043595850467681884765625" lon="-70.89834717102348804473876953125">
        <ele>606.5999755859375</ele>
        <time>2026-08-21T16:04:02.000Z</time>
        <extensions>
          <ns3:TrackPointExtension>
            <ns3:hr>129</ns3:hr>
            <ns3:cad>0</ns3:cad>
          </ns3:TrackPointExtension>
        </extensions>
      </trkpt>
      <trkpt lat="45.31288429163396358489990234375" lon="-70.89834482409060001373291015625">
        <ele>606.5999755859375</ele>
        <time>2026-08-21T16:04:03.000Z</time>
        <extensions>
          <ns3:TrackPointExtension>
            <ns3:hr>129</ns3:hr>
            <ns3:cad>0</ns3:cad>
          </ns3:TrackPointExtension>
        </extensions>
      </trkpt>
      <trkpt lat="45.3128858841955661773681640625" lon="-70.89834365062415599822998046875">
        <ele>606.5999755859375</ele>
        <time>2026-08-21T16:04:04.000Z</time>
        <extensions>
          <ns3:TrackPointExtension>
            <ns3:hr>129</ns3:hr>
            <ns3:cad>0</ns3:cad>
          </ns3:TrackPointExtension>
        </extensions>
      </trkpt>
      <trkpt lat="45.3128858841955661773681640625" lon="-70.8983435668051242828369140625">
        <ele>606.5999755859375</ele>
        <time>2026-08-21T16:04:05.000Z</time>
        <extensions>
          <ns3:TrackPointExtension>
            <ns3:hr>129</ns3:hr>
            <ns3:cad>0</ns3:cad>
          </ns3:TrackPointExtension>
        </extensions>
      </trkpt>
      <trkpt lat="45.3128858841955661773681640625" lon="-70.8983435668051242828369140625">
        <ele>606.5999755859375</ele>
        <time>2026-08-21T16:04:06.000Z</time>
        <extensions>
          <ns3:TrackPointExtension>
            <ns3:hr>128</ns3:hr>
            <ns3:cad>0</ns3:cad>
          </ns3:TrackPointExtension>
        </extensions>
      </trkpt>
      <trkpt lat="45.3128858841955661773681640625" lon="-70.8983435668051242828369140625">
        <ele>606.5999755859375</ele>
        <time>2026-08-21T16:04:07.000Z</time>
        <extensions>
          <ns3:TrackPointExtension>
            <ns3:hr>128</ns3:hr>
            <ns3:cad>0</ns3:cad>
          </ns3:TrackPointExtension>
        </extensions>
      </trkpt>
      <trkpt lat="45.3128858841955661773681640625" lon="-70.8983435668051242828369140625">
        <ele>606.5999755859375</ele>
        <time>2026-08-21T16:04:08.000Z</time>
        <extensions>
          <ns3:TrackPointExtension>
            <ns3:hr>128</ns3:hr>
            <ns3:cad>0</ns3:cad>
          </ns3:TrackPointExtension>
        </extensions>
      </trkpt>
      <trkpt lat="45.3128858841955661773681640625" lon="-70.8983435668051242828369140625">
        <ele>606.5999755859375</ele>
        <time>2026-08-21T16:04:09.000Z</time>
        <extensions>
          <ns3:TrackPointExtension>
            <ns3:hr>128</ns3:hr>
            <ns3:cad>0</ns3:cad>
          </ns3:TrackPointExtension>
        </extensions>
      </trkpt>
      <trkpt lat="45.3128858841955661773681640625" lon="-70.8983435668051242828369140625">
        <ele>606.79998779296875</ele>
        <time>2026-08-21T16:04:10.000Z</time>
        <extensions>
          <ns3:TrackPointExtension>
            <ns3:hr>128</ns3:hr>
            <ns3:cad>0</ns3:cad>
          </ns3:TrackPointExtension>
        </extensions>
      </trkpt>
      <trkpt lat="45.3128858841955661773681640625" lon="-70.8983435668051242828369140625">
        <ele>606.79998779296875</ele>
        <time>2026-08-21T16:04:11.000Z</time>
        <extensions>
          <ns3:TrackPointExtension>
            <ns3:hr>127</ns3:hr>
            <ns3:cad>0</ns3:cad>
          </ns3:TrackPointExtension>
        </extensions>
      </trkpt>
      <trkpt lat="45.3128858841955661773681640625" lon="-70.8983435668051242828369140625">
        <ele>606.79998779296875</ele>
        <time>2026-08-21T16:04:12.000Z</time>
        <extensions>
          <ns3:TrackPointExtension>
            <ns3:hr>127</ns3:hr>
            <ns3:cad>0</ns3:cad>
          </ns3:TrackPointExtension>
        </extensions>
      </trkpt>
      <trkpt lat="45.3128858841955661773681640625" lon="-70.8983435668051242828369140625">
        <ele>606.5999755859375</ele>
        <time>2026-08-21T16:04:13.000Z</time>
        <extensions>
          <ns3:TrackPointExtension>
            <ns3:hr>127</ns3:hr>
            <ns3:cad>0</ns3:cad>
          </ns3:TrackPointExtension>
        </extensions>
      </trkpt>
      <trkpt lat="45.3128858841955661773681640625" lon="-70.8983435668051242828369140625">
        <ele>606.5999755859375</ele>
        <time>2026-08-21T16:04:14.000Z</time>
        <extensions>
          <ns3:TrackPointExtension>
            <ns3:hr>127</ns3:hr>
            <ns3:cad>0</ns3:cad>
          </ns3:TrackPointExtension>
        </extensions>
      </trkpt>
      <trkpt lat="45.3128858841955661773681640625" lon="-70.8983435668051242828369140625">
        <ele>606.5999755859375</ele>
        <time>2026-08-21T16:04:15.000Z</time>
        <extensions>
          <ns3:TrackPointExtension>
            <ns3:hr>126</ns3:hr>
            <ns3:cad>0</ns3:cad>
          </ns3:TrackPointExtension>
        </extensions>
      </trkpt>
      <trkpt lat="45.3128858841955661773681640625" lon="-70.8983435668051242828369140625">
        <ele>606.5999755859375</ele>
        <time>2026-08-21T16:04:16.000Z</time>
        <extensions>
          <ns3:TrackPointExtension>
            <ns3:hr>126</ns3:hr>
            <ns3:cad>0</ns3:cad>
          </ns3:TrackPointExtension>
        </extensions>
      </trkpt>
      <trkpt lat="45.3128858841955661773681640625" lon="-70.8983435668051242828369140625">
        <ele>606.5999755859375</ele>
        <time>2026-08-21T16:04:17.000Z</time>
        <extensions>
          <ns3:TrackPointExtension>
            <ns3:hr>126</ns3:hr>
            <ns3:cad>0</ns3:cad>
          </ns3:TrackPointExtension>
        </extensions>
      </trkpt>
      <trkpt lat="45.3128858841955661773681640625" lon="-70.8983435668051242828369140625">
        <ele>606.5999755859375</ele>
        <time>2026-08-21T16:04:18.000Z</time>
        <extensions>
          <ns3:TrackPointExtension>
            <ns3:hr>126</ns3:hr>
            <ns3:cad>0</ns3:cad>
          </ns3:TrackPointExtension>
        </extensions>
      </trkpt>
      <trkpt lat="45.3128858841955661773681640625" lon="-70.8983435668051242828369140625">
        <ele>606.5999755859375</ele>
        <time>2026-08-21T16:04:19.000Z</time>
        <extensions>
          <ns3:TrackPointExtension>
            <ns3:hr>125</ns3:hr>
            <ns3:cad>0</ns3:cad>
          </ns3:TrackPointExtension>
        </extensions>
      </trkpt>
      <trkpt lat="45.3128858841955661773681640625" lon="-70.8983435668051242828369140625">
        <ele>606.5999755859375</ele>
        <time>2026-08-21T16:04:20.000Z</time>
        <extensions>
          <ns3:TrackPointExtension>
            <ns3:hr>125</ns3:hr>
            <ns3:cad>0</ns3:cad>
          </ns3:TrackPointExtension>
        </extensions>
      </trkpt>
      <trkpt lat="45.3128858841955661773681640625" lon="-70.8983435668051242828369140625">
        <ele>606.5999755859375</ele>
        <time>2026-08-21T16:04:21.000Z</time>
        <extensions>
          <ns3:TrackPointExtension>
            <ns3:hr>125</ns3:hr>
            <ns3:cad>0</ns3:cad>
          </ns3:TrackPointExtension>
        </extensions>
      </trkpt>
      <trkpt lat="45.3128858841955661773681640625" lon="-70.8983435668051242828369140625">
        <ele>606.5999755859375</ele>
        <time>2026-08-21T16:04:22.000Z</time>
        <extensions>
          <ns3:TrackPointExtension>
            <ns3:hr>125</ns3:hr>
            <ns3:cad>0</ns3:cad>
          </ns3:TrackPointExtension>
        </extensions>
      </trkpt>
      <trkpt lat="45.3128858841955661773681640625" lon="-70.8983435668051242828369140625">
        <ele>606.5999755859375</ele>
        <time>2026-08-21T16:04:23.000Z</time>
        <extensions>
          <ns3:TrackPointExtension>
            <ns3:hr>125</ns3:hr>
            <ns3:cad>0</ns3:cad>
          </ns3:TrackPointExtension>
        </extensions>
      </trkpt>
      <trkpt lat="45.312872640788555145263671875" lon="-70.89834834448993206024169921875">
        <ele>606.5999755859375</ele>
        <time>2026-08-21T16:04:24.000Z</time>
        <extensions>
          <ns3:TrackPointExtension>
            <ns3:hr>125</ns3:hr>
            <ns3:cad>71</ns3:cad>
          </ns3:TrackPointExtension>
        </extensions>
      </trkpt>
      <trkpt lat="45.31287230551242828369140625" lon="-70.89834834448993206024169921875">
        <ele>606.5999755859375</ele>
        <time>2026-08-21T16:04:25.000Z</time>
        <extensions>
          <ns3:TrackPointExtension>
            <ns3:hr>124</ns3:hr>
            <ns3:cad>71</ns3:cad>
          </ns3:TrackPointExtension>
        </extensions>
      </trkpt>
      <trkpt lat="45.31286518089473247528076171875" lon="-70.89835169725120067596435546875">
        <ele>606.5999755859375</ele>
        <time>2026-08-21T16:04:26.000Z</time>
        <extensions>
          <ns3:TrackPointExtension>
            <ns3:hr>124</ns3:hr>
            <ns3:cad>71</ns3:cad>
          </ns3:TrackPointExtension>
        </extensions>
      </trkpt>
      <trkpt lat="45.3128610737621784210205078125" lon="-70.89835270307958126068115234375">
        <ele>606.5999755859375</ele>
        <time>2026-08-21T16:04:27.000Z</time>
        <extensions>
          <ns3:TrackPointExtension>
            <ns3:hr>123</ns3:hr>
            <ns3:cad>71</ns3:cad>
          </ns3:TrackPointExtension>
        </extensions>
      </trkpt>
      <trkpt lat="45.31286048702895641326904296875" lon="-70.89835387654602527618408203125">
        <ele>606.5999755859375</ele>
        <time>2026-08-21T16:04:28.000Z</time>
        <extensions>
          <ns3:TrackPointExtension>
            <ns3:hr>122</ns3:hr>
            <ns3:cad>71</ns3:cad>
          </ns3:TrackPointExtension>
        </extensions>
      </trkpt>
      <trkpt lat="45.3128590621054172515869140625" lon="-70.8983536250889301300048828125">
        <ele>606.5999755859375</ele>
        <time>2026-08-21T16:04:29.000Z</time>
        <extensions>
          <ns3:TrackPointExtension>
            <ns3:hr>122</ns3:hr>
            <ns3:cad>71</ns3:cad>
          </ns3:TrackPointExtension>
        </extensions>
      </trkpt>
      <trkpt lat="45.312862582504749298095703125" lon="-70.898353122174739837646484375">
        <ele>606.79998779296875</ele>
        <time>2026-08-21T16:04:30.000Z</time>
        <extensions>
          <ns3:TrackPointExtension>
            <ns3:hr>122</ns3:hr>
            <ns3:cad>71</ns3:cad>
          </ns3:TrackPointExtension>
        </extensions>
      </trkpt>
      <trkpt lat="45.31286233104765415191650390625" lon="-70.8983536250889301300048828125">
        <ele>606.79998779296875</ele>
        <time>2026-08-21T16:04:31.000Z</time>
        <extensions>
          <ns3:TrackPointExtension>
            <ns3:hr>122</ns3:hr>
            <ns3:cad>71</ns3:cad>
          </ns3:TrackPointExtension>
        </extensions>
      </trkpt>
      <trkpt lat="45.31286115758121013641357421875" lon="-70.89835085906088352203369140625">
        <ele>606.79998779296875</ele>
        <time>2026-08-21T16:04:32.000Z</time>
        <extensions>
          <ns3:TrackPointExtension>
            <ns3:hr>122</ns3:hr>
            <ns3:cad>71</ns3:cad>
          </ns3:TrackPointExtension>
        </extensions>
      </trkpt>
      <trkpt lat="45.3128614090383052825927734375" lon="-70.8983462490141391754150390625">
        <ele>606.79998779296875</ele>
        <time>2026-08-21T16:04:33.000Z</time>
        <extensions>
          <ns3:TrackPointExtension>
            <ns3:hr>122</ns3:hr>
            <ns3:cad>71</ns3:cad>
          </ns3:TrackPointExtension>
        </extensions>
      </trkpt>
      <trkpt lat="45.3128627501428127288818359375" lon="-70.8983449079096317291259765625">
        <ele>606.5999755859375</ele>
        <time>2026-08-21T16:04:34.000Z</time>
        <extensions>
          <ns3:TrackPointExtension>
            <ns3:hr>121</ns3:hr>
            <ns3:cad>71</ns3:cad>
          </ns3:TrackPointExtension>
        </extensions>
      </trkpt>
      <trkpt lat="45.31286618672311305999755859375" lon="-70.898345410823822021484375">
        <ele>606.5999755859375</ele>
        <time>2026-08-21T16:04:35.000Z</time>
        <extensions>
          <ns3:TrackPointExtension>
            <ns3:hr>121</ns3:hr>
            <ns3:cad>71</ns3:cad>
          </ns3:TrackPointExtension>
        </extensions>
      </trkpt>
      <trkpt lat="45.312874317169189453125" lon="-70.89834046550095081329345703125">
        <ele>606.5999755859375</ele>
        <time>2026-08-21T16:04:36.000Z</time>
        <extensions>
          <ns3:TrackPointExtension>
            <ns3:hr>121</ns3:hr>
            <ns3:cad>71</ns3:cad>
          </ns3:TrackPointExtension>
        </extensions>
      </trkpt>
      <trkpt lat="45.31287456862628459930419921875" lon="-70.8983392082154750823974609375">
        <ele>606.5999755859375</ele>
        <time>2026-08-21T16:04:37.000Z</time>
        <extensions>
          <ns3:TrackPointExtension>
            <ns3:hr>121</ns3:hr>
            <ns3:cad>71</ns3:cad>
          </ns3:TrackPointExtension>
        </extensions>
      </trkpt>
      <trkpt lat="45.3128761611878871917724609375" lon="-70.89833878912031650543212890625">
        <ele>606.5999755859375</ele>
        <time>2026-08-21T16:04:38.000Z</time>
        <extensions>
          <ns3:TrackPointExtension>
            <ns3:hr>121</ns3:hr>
            <ns3:cad>71</ns3:cad>
          </ns3:TrackPointExtension>
        </extensions>
      </trkpt>
      <trkpt lat="45.3128748200833797454833984375" lon="-70.898341722786426544189453125">
        <ele>606.5999755859375</ele>
        <time>2026-08-21T16:04:39.000Z</time>
        <extensions>
          <ns3:TrackPointExtension>
            <ns3:hr>121</ns3:hr>
            <ns3:cad>0</ns3:cad>
          </ns3:TrackPointExtension>
        </extensions>
      </trkpt>
      <trkpt lat="45.31287507154047489166259765625" lon="-70.8983432315289974212646484375">
        <ele>606.5999755859375</ele>
        <time>2026-08-21T16:04:40.000Z</time>
        <extensions>
          <ns3:TrackPointExtension>
            <ns3:hr>121</ns3:hr>
            <ns3:cad>0</ns3:cad>
          </ns3:TrackPointExtension>
        </extensions>
      </trkpt>
      <trkpt lat="45.3128783404827117919921875" lon="-70.8983415551483631134033203125">
        <ele>606.5999755859375</ele>
        <time>2026-08-21T16:04:41.000Z</time>
        <extensions>
          <ns3:TrackPointExtension>
            <ns3:hr>121</ns3:hr>
            <ns3:cad>0</ns3:cad>
          </ns3:TrackPointExtension>
        </extensions>
      </trkpt>
      <trkpt lat="45.3128815256059169769287109375" lon="-70.8983398787677288055419921875">
        <ele>606.5999755859375</ele>
        <time>2026-08-21T16:04:42.000Z</time>
        <extensions>
          <ns3:TrackPointExtension>
            <ns3:hr>121</ns3:hr>
            <ns3:cad>0</ns3:cad>
          </ns3:TrackPointExtension>
        </extensions>
      </trkpt>
      <trkpt lat="45.3128815256059169769287109375" lon="-70.8983398787677288055419921875">
        <ele>606.5999755859375</ele>
        <time>2026-08-21T16:04:43.000Z</time>
        <extensions>
          <ns3:TrackPointExtension>
            <ns3:hr>121</ns3:hr>
            <ns3:cad>0</ns3:cad>
          </ns3:TrackPointExtension>
        </extensions>
      </trkpt>
      <trkpt lat="45.3128815256059169769287109375" lon="-70.8983398787677288055419921875">
        <ele>606.5999755859375</ele>
        <time>2026-08-21T16:04:44.000Z</time>
        <extensions>
          <ns3:TrackPointExtension>
            <ns3:hr>123</ns3:hr>
            <ns3:cad>0</ns3:cad>
          </ns3:TrackPointExtension>
        </extensions>
      </trkpt>
      <trkpt lat="45.312882363796234130859375" lon="-70.89833945967257022857666015625">
        <ele>606.5999755859375</ele>
        <time>2026-08-21T16:04:45.000Z</time>
        <extensions>
          <ns3:TrackPointExtension>
            <ns3:hr>123</ns3:hr>
            <ns3:cad>0</ns3:cad>
          </ns3:TrackPointExtension>
        </extensions>
      </trkpt>
      <trkpt lat="45.312888734042644500732421875" lon="-70.8983266353607177734375">
        <ele>606.5999755859375</ele>
        <time>2026-08-21T16:04:46.000Z</time>
        <extensions>
          <ns3:TrackPointExtension>
            <ns3:hr>123</ns3:hr>
            <ns3:cad>0</ns3:cad>
          </ns3:TrackPointExtension>
        </extensions>
      </trkpt>
      <trkpt lat="45.31288831494748592376708984375" lon="-70.89832722209393978118896484375">
        <ele>606.5999755859375</ele>
        <time>2026-08-21T16:04:47.000Z</time>
        <extensions>
          <ns3:TrackPointExtension>
            <ns3:hr>123</ns3:hr>
            <ns3:cad>0</ns3:cad>
          </ns3:TrackPointExtension>
        </extensions>
      </trkpt>
      <trkpt lat="45.3128865547478199005126953125" lon="-70.89832269586622714996337890625">
        <ele>606.5999755859375</ele>
        <time>2026-08-21T16:04:48.000Z</time>
        <extensions>
          <ns3:TrackPointExtension>
            <ns3:hr>123</ns3:hr>
            <ns3:cad>0</ns3:cad>
          </ns3:TrackPointExtension>
        </extensions>
      </trkpt>
      <trkpt lat="45.31289183534681797027587890625" lon="-70.89831314049661159515380859375">
        <ele>606.5999755859375</ele>
        <time>2026-08-21T16:04:49.000Z</time>
        <extensions>
          <ns3:TrackPointExtension>
            <ns3:hr>124</ns3:hr>
            <ns3:cad>0</ns3:cad>
          </ns3:TrackPointExtension>
        </extensions>
      </trkpt>
      <trkpt lat="45.31289451755583286285400390625" lon="-70.89831347577273845672607421875">
        <ele>606.5999755859375</ele>
        <time>2026-08-21T16:04:50.000Z</time>
        <extensions>
          <ns3:TrackPointExtension>
            <ns3:hr>125</ns3:hr>
            <ns3:cad>0</ns3:cad>
          </ns3:TrackPointExtension>
        </extensions>
      </trkpt>
      <trkpt lat="45.3128956072032451629638671875" lon="-70.89831255376338958740234375">
        <ele>606.4000244140625</ele>
        <time>2026-08-21T16:04:51.000Z</time>
        <extensions>
          <ns3:TrackPointExtension>
            <ns3:hr>125</ns3:hr>
            <ns3:cad>0</ns3:cad>
          </ns3:TrackPointExtension>
        </extensions>
      </trkpt>
      <trkpt lat="45.31289552338421344757080078125" lon="-70.8983127214014530181884765625">
        <ele>606.4000244140625</ele>
        <time>2026-08-21T16:04:52.000Z</time>
        <extensions>
          <ns3:TrackPointExtension>
            <ns3:hr>124</ns3:hr>
            <ns3:cad>0</ns3:cad>
          </ns3:TrackPointExtension>
        </extensions>
      </trkpt>
      <trkpt lat="45.312894769012928009033203125" lon="-70.89830811135470867156982421875">
        <ele>606.4000244140625</ele>
        <time>2026-08-21T16:04:53.000Z</time>
        <extensions>
          <ns3:TrackPointExtension>
            <ns3:hr>124</ns3:hr>
            <ns3:cad>0</ns3:cad>
          </ns3:TrackPointExtension>
        </extensions>
      </trkpt>
      <trkpt lat="45.31289778649806976318359375" lon="-70.89830718934535980224609375">
        <ele>606.4000244140625</ele>
        <time>2026-08-21T16:04:54.000Z</time>
        <extensions>
          <ns3:TrackPointExtension>
            <ns3:hr>124</ns3:hr>
            <ns3:cad>0</ns3:cad>
          </ns3:TrackPointExtension>
        </extensions>
      </trkpt>
      <trkpt lat="45.312897451221942901611328125" lon="-70.89830408804118633270263671875">
        <ele>606.20001220703125</ele>
        <time>2026-08-21T16:04:55.000Z</time>
        <extensions>
          <ns3:TrackPointExtension>
            <ns3:hr>124</ns3:hr>
            <ns3:cad>0</ns3:cad>
          </ns3:TrackPointExtension>
        </extensions>
      </trkpt>
      <trkpt lat="45.312899462878704071044921875" lon="-70.89829905889928340911865234375">
        <ele>606</ele>
        <time>2026-08-21T16:04:56.000Z</time>
        <extensions>
          <ns3:TrackPointExtension>
            <ns3:hr>124</ns3:hr>
            <ns3:cad>0</ns3:cad>
          </ns3:TrackPointExtension>
        </extensions>
      </trkpt>
      <trkpt lat="45.312900133430957794189453125" lon="-70.89829377830028533935546875">
        <ele>606</ele>
        <time>2026-08-21T16:04:57.000Z</time>
        <extensions>
          <ns3:TrackPointExtension>
            <ns3:hr>125</ns3:hr>
            <ns3:cad>0</ns3:cad>
          </ns3:TrackPointExtension>
        </extensions>
      </trkpt>
      <trkpt lat="45.3128997981548309326171875" lon="-70.8982936106622219085693359375">
        <ele>605.79998779296875</ele>
        <time>2026-08-21T16:04:58.000Z</time>
        <extensions>
          <ns3:TrackPointExtension>
            <ns3:hr>124</ns3:hr>
            <ns3:cad>0</ns3:cad>
          </ns3:TrackPointExtension>
        </extensions>
      </trkpt>
      <trkpt lat="45.3128997981548309326171875" lon="-70.8982936106622219085693359375">
        <ele>605.79998779296875</ele>
        <time>2026-08-21T16:04:59.000Z</time>
        <extensions>
          <ns3:TrackPointExtension>
            <ns3:hr>124</ns3:hr>
            <ns3:cad>0</ns3:cad>
          </ns3:TrackPointExtension>
        </extensions>
      </trkpt>
      <trkpt lat="45.3128997981548309326171875" lon="-70.8982936106622219085693359375">
        <ele>605.79998779296875</ele>
        <time>2026-08-21T16:05:00.000Z</time>
        <extensions>
          <ns3:TrackPointExtension>
            <ns3:hr>124</ns3:hr>
            <ns3:cad>0</ns3:cad>
          </ns3:TrackPointExtension>
        </extensions>
      </trkpt>
      <trkpt lat="45.3128997981548309326171875" lon="-70.8982936106622219085693359375">
        <ele>605.79998779296875</ele>
        <time>2026-08-21T16:05:01.000Z</time>
        <extensions>
          <ns3:TrackPointExtension>
            <ns3:hr>124</ns3:hr>
            <ns3:cad>0</ns3:cad>
          </ns3:TrackPointExtension>
        </extensions>
      </trkpt>
      <trkpt lat="45.3128997981548309326171875" lon="-70.8982936106622219085693359375">
        <ele>605.79998779296875</ele>
        <time>2026-08-21T16:05:02.000Z</time>
        <extensions>
          <ns3:TrackPointExtension>
            <ns3:hr>124</ns3:hr>
            <ns3:cad>0</ns3:cad>
          </ns3:TrackPointExtension>
        </extensions>
      </trkpt>
      <trkpt lat="45.31289937905967235565185546875" lon="-70.89829302392899990081787109375">
        <ele>605.79998779296875</ele>
        <time>2026-08-21T16:05:03.000Z</time>
        <extensions>
          <ns3:TrackPointExtension>
            <ns3:hr>124</ns3:hr>
            <ns3:cad>0</ns3:cad>
          </ns3:TrackPointExtension>
        </extensions>
      </trkpt>
      <trkpt lat="45.3128944337368011474609375" lon="-70.8982785232365131378173828125">
        <ele>605.79998779296875</ele>
        <time>2026-08-21T16:05:04.000Z</time>
        <extensions>
          <ns3:TrackPointExtension>
            <ns3:hr>125</ns3:hr>
            <ns3:cad>0</ns3:cad>
          </ns3:TrackPointExtension>
        </extensions>
      </trkpt>
      <trkpt lat="45.31289418227970600128173828125" lon="-70.8982708118855953216552734375">
        <ele>605.79998779296875</ele>
        <time>2026-08-21T16:05:05.000Z</time>
        <extensions>
          <ns3:TrackPointExtension>
            <ns3:hr>123</ns3:hr>
            <ns3:cad>0</ns3:cad>
          </ns3:TrackPointExtension>
        </extensions>
      </trkpt>
      <trkpt lat="45.3128946013748645782470703125" lon="-70.89826569892466068267822265625">
        <ele>605.79998779296875</ele>
        <time>2026-08-21T16:05:06.000Z</time>
        <extensions>
          <ns3:TrackPointExtension>
            <ns3:hr>122</ns3:hr>
            <ns3:cad>0</ns3:cad>
          </ns3:TrackPointExtension>
        </extensions>
      </trkpt>
      <trkpt lat="45.312893427908420562744140625" lon="-70.89826184324920177459716796875">
        <ele>605.79998779296875</ele>
        <time>2026-08-21T16:05:07.000Z</time>
        <extensions>
          <ns3:TrackPointExtension>
            <ns3:hr>121</ns3:hr>
            <ns3:cad>0</ns3:cad>
          </ns3:TrackPointExtension>
        </extensions>
      </trkpt>
      <trkpt lat="45.31289233826100826263427734375" lon="-70.8982609212398529052734375">
        <ele>605.79998779296875</ele>
        <time>2026-08-21T16:05:08.000Z</time>
        <extensions>
          <ns3:TrackPointExtension>
            <ns3:hr>120</ns3:hr>
            <ns3:cad>0</ns3:cad>
          </ns3:TrackPointExtension>
        </extensions>
      </trkpt>
      <trkpt lat="45.31289233826100826263427734375" lon="-70.89826083742082118988037109375">
        <ele>605.79998779296875</ele>
        <time>2026-08-21T16:05:09.000Z</time>
        <extensions>
          <ns3:TrackPointExtension>
            <ns3:hr>119</ns3:hr>
            <ns3:cad>0</ns3:cad>
          </ns3:TrackPointExtension>
        </extensions>
      </trkpt>
      <trkpt lat="45.31289233826100826263427734375" lon="-70.89826083742082118988037109375">
        <ele>605.79998779296875</ele>
        <time>2026-08-21T16:05:10.000Z</time>
        <extensions>
          <ns3:TrackPointExtension>
            <ns3:hr>118</ns3:hr>
            <ns3:cad>0</ns3:cad>
          </ns3:TrackPointExtension>
        </extensions>
      </trkpt>
      <trkpt lat="45.31289233826100826263427734375" lon="-70.89826083742082118988037109375">
        <ele>605.79998779296875</ele>
        <time>2026-08-21T16:05:11.000Z</time>
        <extensions>
          <ns3:TrackPointExtension>
            <ns3:hr>117</ns3:hr>
            <ns3:cad>0</ns3:cad>
          </ns3:TrackPointExtension>
        </extensions>
      </trkpt>
      <trkpt lat="45.31289233826100826263427734375" lon="-70.89826083742082118988037109375">
        <ele>605.79998779296875</ele>
        <time>2026-08-21T16:05:12.000Z</time>
        <extensions>
          <ns3:TrackPointExtension>
            <ns3:hr>115</ns3:hr>
            <ns3:cad>0</ns3:cad>
          </ns3:TrackPointExtension>
        </extensions>
      </trkpt>
      <trkpt lat="45.3128922544419765472412109375" lon="-70.8982609212398529052734375">
        <ele>605.79998779296875</ele>
        <time>2026-08-21T16:05:13.000Z</time>
        <extensions>
          <ns3:TrackPointExtension>
            <ns3:hr>114</ns3:hr>
            <ns3:cad>0</ns3:cad>
          </ns3:TrackPointExtension>
        </extensions>
      </trkpt>
      <trkpt lat="45.31289217062294483184814453125" lon="-70.89826066978275775909423828125">
        <ele>605.79998779296875</ele>
        <time>2026-08-21T16:05:14.000Z</time>
        <extensions>
          <ns3:TrackPointExtension>
            <ns3:hr>113</ns3:hr>
            <ns3:cad>0</ns3:cad>
          </ns3:TrackPointExtension>
        </extensions>
      </trkpt>
      <trkpt lat="45.3128917515277862548828125" lon="-70.89826486073434352874755859375">
        <ele>605.79998779296875</ele>
        <time>2026-08-21T16:05:15.000Z</time>
        <extensions>
          <ns3:TrackPointExtension>
            <ns3:hr>112</ns3:hr>
            <ns3:cad>0</ns3:cad>
          </ns3:TrackPointExtension>
        </extensions>
      </trkpt>
      <trkpt lat="45.31289183534681797027587890625" lon="-70.89826586656272411346435546875">
        <ele>605.79998779296875</ele>
        <time>2026-08-21T16:05:16.000Z</time>
        <extensions>
          <ns3:TrackPointExtension>
            <ns3:hr>111</ns3:hr>
            <ns3:cad>0</ns3:cad>
          </ns3:TrackPointExtension>
        </extensions>
      </trkpt>
      <trkpt lat="45.31289233826100826263427734375" lon="-70.89826083742082118988037109375">
        <ele>605.79998779296875</ele>
        <time>2026-08-21T16:05:17.000Z</time>
        <extensions>
          <ns3:TrackPointExtension>
            <ns3:hr>110</ns3:hr>
            <ns3:cad>0</ns3:cad>
          </ns3:TrackPointExtension>
        </extensions>
      </trkpt>
      <trkpt lat="45.31289233826100826263427734375" lon="-70.89826083742082118988037109375">
        <ele>605.79998779296875</ele>
        <time>2026-08-21T16:05:18.000Z</time>
        <extensions>
          <ns3:TrackPointExtension>
            <ns3:hr>110</ns3:hr>
            <ns3:cad>0</ns3:cad>
          </ns3:TrackPointExtension>
        </extensions>
      </trkpt>
      <trkpt lat="45.31289233826100826263427734375" lon="-70.89826083742082118988037109375">
        <ele>605.79998779296875</ele>
        <time>2026-08-21T16:05:19.000Z</time>
        <extensions>
          <ns3:TrackPointExtension>
            <ns3:hr>110</ns3:hr>
            <ns3:cad>0</ns3:cad>
          </ns3:TrackPointExtension>
        </extensions>
      </trkpt>
      <trkpt lat="45.31289233826100826263427734375" lon="-70.89826083742082118988037109375">
        <ele>605.79998779296875</ele>
        <time>2026-08-21T16:05:20.000Z</time>
        <extensions>
          <ns3:TrackPointExtension>
            <ns3:hr>109</ns3:hr>
            <ns3:cad>0</ns3:cad>
          </ns3:TrackPointExtension>
        </extensions>
      </trkpt>
      <trkpt lat="45.31289233826100826263427734375" lon="-70.89826083742082118988037109375">
        <ele>605.79998779296875</ele>
        <time>2026-08-21T16:05:21.000Z</time>
        <extensions>
          <ns3:TrackPointExtension>
            <ns3:hr>109</ns3:hr>
            <ns3:cad>0</ns3:cad>
          </ns3:TrackPointExtension>
        </extensions>
      </trkpt>
      <trkpt lat="45.31289233826100826263427734375" lon="-70.89826083742082118988037109375">
        <ele>605.79998779296875</ele>
        <time>2026-08-21T16:05:22.000Z</time>
        <extensions>
          <ns3:TrackPointExtension>
            <ns3:hr>109</ns3:hr>
            <ns3:cad>0</ns3:cad>
          </ns3:TrackPointExtension>
        </extensions>
      </trkpt>
      <trkpt lat="45.31289233826100826263427734375" lon="-70.89826083742082118988037109375">
        <ele>606</ele>
        <time>2026-08-21T16:05:23.000Z</time>
        <extensions>
          <ns3:TrackPointExtension>
            <ns3:hr>109</ns3:hr>
            <ns3:cad>0</ns3:cad>
          </ns3:TrackPointExtension>
        </extensions>
      </trkpt>
      <trkpt lat="45.31289233826100826263427734375" lon="-70.89826083742082118988037109375">
        <ele>606</ele>
        <time>2026-08-21T16:05:24.000Z</time>
        <extensions>
          <ns3:TrackPointExtension>
            <ns3:hr>108</ns3:hr>
            <ns3:cad>0</ns3:cad>
          </ns3:TrackPointExtension>
        </extensions>
      </trkpt>
      <trkpt lat="45.31289233826100826263427734375" lon="-70.89826083742082118988037109375">
        <ele>606</ele>
        <time>2026-08-21T16:05:25.000Z</time>
        <extensions>
          <ns3:TrackPointExtension>
            <ns3:hr>108</ns3:hr>
            <ns3:cad>0</ns3:cad>
          </ns3:TrackPointExtension>
        </extensions>
      </trkpt>
      <trkpt lat="45.31289233826100826263427734375" lon="-70.89826083742082118988037109375">
        <ele>606</ele>
        <time>2026-08-21T16:05:26.000Z</time>
        <extensions>
          <ns3:TrackPointExtension>
            <ns3:hr>108</ns3:hr>
            <ns3:cad>0</ns3:cad>
          </ns3:TrackPointExtension>
        </extensions>
      </trkpt>
      <trkpt lat="45.31289233826100826263427734375" lon="-70.89826083742082118988037109375">
        <ele>606</ele>
        <time>2026-08-21T16:05:27.000Z</time>
        <extensions>
          <ns3:TrackPointExtension>
            <ns3:hr>108</ns3:hr>
            <ns3:cad>0</ns3:cad>
          </ns3:TrackPointExtension>
        </extensions>
      </trkpt>
      <trkpt lat="45.31289233826100826263427734375" lon="-70.89826083742082118988037109375">
        <ele>605.79998779296875</ele>
        <time>2026-08-21T16:05:28.000Z</time>
        <extensions>
          <ns3:TrackPointExtension>
            <ns3:hr>108</ns3:hr>
            <ns3:cad>0</ns3:cad>
          </ns3:TrackPointExtension>
        </extensions>
      </trkpt>
      <trkpt lat="45.31289233826100826263427734375" lon="-70.89826083742082118988037109375">
        <ele>605.79998779296875</ele>
        <time>2026-08-21T16:05:29.000Z</time>
        <extensions>
          <ns3:TrackPointExtension>
            <ns3:hr>108</ns3:hr>
            <ns3:cad>0</ns3:cad>
          </ns3:TrackPointExtension>
        </extensions>
      </trkpt>
      <trkpt lat="45.31289233826100826263427734375" lon="-70.89826083742082118988037109375">
        <ele>605.79998779296875</ele>
        <time>2026-08-21T16:05:30.000Z</time>
        <extensions>
          <ns3:TrackPointExtension>
            <ns3:hr>108</ns3:hr>
            <ns3:cad>0</ns3:cad>
          </ns3:TrackPointExtension>
        </extensions>
      </trkpt>
      <trkpt lat="45.31289233826100826263427734375" lon="-70.89826083742082118988037109375">
        <ele>605.79998779296875</ele>
        <time>2026-08-21T16:05:31.000Z</time>
        <extensions>
          <ns3:TrackPointExtension>
            <ns3:hr>108</ns3:hr>
            <ns3:cad>0</ns3:cad>
          </ns3:TrackPointExtension>
        </extensions>
      </trkpt>
      <trkpt lat="45.31289233826100826263427734375" lon="-70.89826083742082118988037109375">
        <ele>605.79998779296875</ele>
        <time>2026-08-21T16:05:32.000Z</time>
        <extensions>
          <ns3:TrackPointExtension>
            <ns3:hr>108</ns3:hr>
            <ns3:cad>0</ns3:cad>
          </ns3:TrackPointExtension>
        </extensions>
      </trkpt>
      <trkpt lat="45.31289233826100826263427734375" lon="-70.89826083742082118988037109375">
        <ele>605.5999755859375</ele>
        <time>2026-08-21T16:05:33.000Z</time>
        <extensions>
          <ns3:TrackPointExtension>
            <ns3:hr>108</ns3:hr>
            <ns3:cad>0</ns3:cad>
          </ns3:TrackPointExtension>
        </extensions>
      </trkpt>
      <trkpt lat="45.31289233826100826263427734375" lon="-70.89826083742082118988037109375">
        <ele>605.5999755859375</ele>
        <time>2026-08-21T16:05:34.000Z</time>
        <extensions>
          <ns3:TrackPointExtension>
            <ns3:hr>109</ns3:hr>
            <ns3:cad>0</ns3:cad>
          </ns3:TrackPointExtension>
        </extensions>
      </trkpt>
      <trkpt lat="45.31289233826100826263427734375" lon="-70.89826083742082118988037109375">
        <ele>605.5999755859375</ele>
        <time>2026-08-21T16:05:35.000Z</time>
        <extensions>
          <ns3:TrackPointExtension>
            <ns3:hr>108</ns3:hr>
            <ns3:cad>0</ns3:cad>
          </ns3:TrackPointExtension>
        </extensions>
      </trkpt>
      <trkpt lat="45.31289233826100826263427734375" lon="-70.89826083742082118988037109375">
        <ele>605.5999755859375</ele>
        <time>2026-08-21T16:05:36.000Z</time>
        <extensions>
          <ns3:TrackPointExtension>
            <ns3:hr>108</ns3:hr>
            <ns3:cad>0</ns3:cad>
          </ns3:TrackPointExtension>
        </extensions>
      </trkpt>
      <trkpt lat="45.31289233826100826263427734375" lon="-70.89826083742082118988037109375">
        <ele>605.5999755859375</ele>
        <time>2026-08-21T16:05:37.000Z</time>
        <extensions>
          <ns3:TrackPointExtension>
            <ns3:hr>108</ns3:hr>
            <ns3:cad>0</ns3:cad>
          </ns3:TrackPointExtension>
        </extensions>
      </trkpt>
      <trkpt lat="45.31289233826100826263427734375" lon="-70.89826083742082118988037109375">
        <ele>605.5999755859375</ele>
        <time>2026-08-21T16:05:38.000Z</time>
        <extensions>
          <ns3:TrackPointExtension>
            <ns3:hr>108</ns3:hr>
            <ns3:cad>0</ns3:cad>
          </ns3:TrackPointExtension>
        </extensions>
      </trkpt>
      <trkpt lat="45.31289233826100826263427734375" lon="-70.89826083742082118988037109375">
        <ele>605.79998779296875</ele>
        <time>2026-08-21T16:05:39.000Z</time>
        <extensions>
          <ns3:TrackPointExtension>
            <ns3:hr>108</ns3:hr>
            <ns3:cad>0</ns3:cad>
          </ns3:TrackPointExtension>
        </extensions>
      </trkpt>
      <trkpt lat="45.31289233826100826263427734375" lon="-70.89826083742082118988037109375">
        <ele>605.79998779296875</ele>
        <time>2026-08-21T16:05:40.000Z</time>
        <extensions>
          <ns3:TrackPointExtension>
            <ns3:hr>108</ns3:hr>
            <ns3:cad>0</ns3:cad>
          </ns3:TrackPointExtension>
        </extensions>
      </trkpt>
      <trkpt lat="45.31289233826100826263427734375" lon="-70.89826083742082118988037109375">
        <ele>605.79998779296875</ele>
        <time>2026-08-21T16:05:41.000Z</time>
        <extensions>
          <ns3:TrackPointExtension>
            <ns3:hr>107</ns3:hr>
            <ns3:cad>0</ns3:cad>
          </ns3:TrackPointExtension>
        </extensions>
      </trkpt>
      <trkpt lat="45.31289233826100826263427734375" lon="-70.89826083742082118988037109375">
        <ele>605.79998779296875</ele>
        <time>2026-08-21T16:05:42.000Z</time>
        <extensions>
          <ns3:TrackPointExtension>
            <ns3:hr>107</ns3:hr>
            <ns3:cad>0</ns3:cad>
          </ns3:TrackPointExtension>
        </extensions>
      </trkpt>
      <trkpt lat="45.31289233826100826263427734375" lon="-70.89826083742082118988037109375">
        <ele>605.79998779296875</ele>
        <time>2026-08-21T16:05:43.000Z</time>
        <extensions>
          <ns3:TrackPointExtension>
            <ns3:hr>107</ns3:hr>
            <ns3:cad>0</ns3:cad>
          </ns3:TrackPointExtension>
        </extensions>
      </trkpt>
      <trkpt lat="45.31289233826100826263427734375" lon="-70.89826083742082118988037109375">
        <ele>605.79998779296875</ele>
        <time>2026-08-21T16:05:44.000Z</time>
        <extensions>
          <ns3:TrackPointExtension>
            <ns3:hr>106</ns3:hr>
            <ns3:cad>0</ns3:cad>
          </ns3:TrackPointExtension>
        </extensions>
      </trkpt>
      <trkpt lat="45.31289233826100826263427734375" lon="-70.89826083742082118988037109375">
        <ele>605.79998779296875</ele>
        <time>2026-08-21T16:05:45.000Z</time>
        <extensions>
          <ns3:TrackPointExtension>
            <ns3:hr>100</ns3:hr>
            <ns3:cad>0</ns3:cad>
          </ns3:TrackPointExtension>
        </extensions>
      </trkpt>
      <trkpt lat="45.31289233826100826263427734375" lon="-70.89826083742082118988037109375">
        <ele>605.79998779296875</ele>
        <time>2026-08-21T16:05:46.000Z</time>
        <extensions>
          <ns3:TrackPointExtension>
            <ns3:hr>95</ns3:hr>
            <ns3:cad>0</ns3:cad>
          </ns3:TrackPointExtension>
        </extensions>
      </trkpt>
      <trkpt lat="45.31289233826100826263427734375" lon="-70.89826083742082118988037109375">
        <ele>605.79998779296875</ele>
        <time>2026-08-21T16:05:47.000Z</time>
        <extensions>
          <ns3:TrackPointExtension>
            <ns3:hr>93</ns3:hr>
            <ns3:cad>0</ns3:cad>
          </ns3:TrackPointExtension>
        </extensions>
      </trkpt>
      <trkpt lat="45.31289233826100826263427734375" lon="-70.89826083742082118988037109375">
        <ele>605.79998779296875</ele>
        <time>2026-08-21T16:05:48.000Z</time>
        <extensions>
          <ns3:TrackPointExtension>
            <ns3:hr>92</ns3:hr>
            <ns3:cad>0</ns3:cad>
          </ns3:TrackPointExtension>
        </extensions>
      </trkpt>
      <trkpt lat="45.31289233826100826263427734375" lon="-70.89826083742082118988037109375">
        <ele>605.5999755859375</ele>
        <time>2026-08-21T16:05:49.000Z</time>
        <extensions>
          <ns3:TrackPointExtension>
            <ns3:hr>92</ns3:hr>
            <ns3:cad>0</ns3:cad>
          </ns3:TrackPointExtension>
        </extensions>
      </trkpt>
      <trkpt lat="45.31289233826100826263427734375" lon="-70.89826083742082118988037109375">
        <ele>605.79998779296875</ele>
        <time>2026-08-21T16:05:50.000Z</time>
        <extensions>
          <ns3:TrackPointExtension>
            <ns3:hr>93</ns3:hr>
            <ns3:cad>0</ns3:cad>
          </ns3:TrackPointExtension>
        </extensions>
      </trkpt>
      <trkpt lat="45.31289233826100826263427734375" lon="-70.89826083742082118988037109375">
        <ele>605.79998779296875</ele>
        <time>2026-08-21T16:05:51.000Z</time>
        <extensions>
          <ns3:TrackPointExtension>
            <ns3:hr>94</ns3:hr>
            <ns3:cad>0</ns3:cad>
          </ns3:TrackPointExtension>
        </extensions>
      </trkpt>
      <trkpt lat="45.31289233826100826263427734375" lon="-70.89826083742082118988037109375">
        <ele>605.79998779296875</ele>
        <time>2026-08-21T16:05:52.000Z</time>
        <extensions>
          <ns3:TrackPointExtension>
            <ns3:hr>95</ns3:hr>
            <ns3:cad>0</ns3:cad>
          </ns3:TrackPointExtension>
        </extensions>
      </trkpt>
      <trkpt lat="45.31289233826100826263427734375" lon="-70.89826083742082118988037109375">
        <ele>605.79998779296875</ele>
        <time>2026-08-21T16:05:53.000Z</time>
        <extensions>
          <ns3:TrackPointExtension>
            <ns3:hr>95</ns3:hr>
            <ns3:cad>0</ns3:cad>
          </ns3:TrackPointExtension>
        </extensions>
      </trkpt>
      <trkpt lat="45.31288973987102508544921875" lon="-70.89826251380145549774169921875">
        <ele>605.79998779296875</ele>
        <time>2026-08-21T16:05:54.000Z</time>
        <extensions>
          <ns3:TrackPointExtension>
            <ns3:hr>96</ns3:hr>
            <ns3:cad>0</ns3:cad>
          </ns3:TrackPointExtension>
        </extensions>
      </trkpt>
      <trkpt lat="45.31288730911910533905029296875" lon="-70.89826385490596294403076171875">
        <ele>605.79998779296875</ele>
        <time>2026-08-21T16:05:55.000Z</time>
        <extensions>
          <ns3:TrackPointExtension>
            <ns3:hr>95</ns3:hr>
            <ns3:cad>0</ns3:cad>
          </ns3:TrackPointExtension>
        </extensions>
      </trkpt>
      <trkpt lat="45.3128878958523273468017578125" lon="-70.89826519601047039031982421875">
        <ele>606</ele>
        <time>2026-08-21T16:05:56.000Z</time>
        <extensions>
          <ns3:TrackPointExtension>
            <ns3:hr>95</ns3:hr>
            <ns3:cad>0</ns3:cad>
          </ns3:TrackPointExtension>
        </extensions>
      </trkpt>
      <trkpt lat="45.3128892369568347930908203125" lon="-70.8982622623443603515625">
        <ele>606</ele>
        <time>2026-08-21T16:05:57.000Z</time>
        <extensions>
          <ns3:TrackPointExtension>
            <ns3:hr>94</ns3:hr>
            <ns3:cad>0</ns3:cad>
          </ns3:TrackPointExtension>
        </extensions>
      </trkpt>
      <trkpt lat="45.31289233826100826263427734375" lon="-70.89826083742082118988037109375">
        <ele>606</ele>
        <time>2026-08-21T16:05:58.000Z</time>
        <extensions>
          <ns3:TrackPointExtension>
            <ns3:hr>94</ns3:hr>
            <ns3:cad>0</ns3:cad>
          </ns3:TrackPointExtension>
        </extensions>
      </trkpt>
      <trkpt lat="45.31289233826100826263427734375" lon="-70.89826083742082118988037109375">
        <ele>606</ele>
        <time>2026-08-21T16:05:59.000Z</time>
        <extensions>
          <ns3:TrackPointExtension>
            <ns3:hr>93</ns3:hr>
            <ns3:cad>0</ns3:cad>
          </ns3:TrackPointExtension>
        </extensions>
      </trkpt>
      <trkpt lat="45.31289233826100826263427734375" lon="-70.89826083742082118988037109375">
        <ele>606</ele>
        <time>2026-08-21T16:06:00.000Z</time>
        <extensions>
          <ns3:TrackPointExtension>
            <ns3:hr>94</ns3:hr>
            <ns3:cad>0</ns3:cad>
          </ns3:TrackPointExtension>
        </extensions>
      </trkpt>
      <trkpt lat="45.31289233826100826263427734375" lon="-70.89826083742082118988037109375">
        <ele>606</ele>
        <time>2026-08-21T16:06:01.000Z</time>
        <extensions>
          <ns3:TrackPointExtension>
            <ns3:hr>94</ns3:hr>
            <ns3:cad>0</ns3:cad>
          </ns3:TrackPointExtension>
        </extensions>
      </trkpt>
      <trkpt lat="45.31289233826100826263427734375" lon="-70.89826083742082118988037109375">
        <ele>606</ele>
        <time>2026-08-21T16:06:02.000Z</time>
        <extensions>
          <ns3:TrackPointExtension>
            <ns3:hr>95</ns3:hr>
            <ns3:cad>0</ns3:cad>
          </ns3:TrackPointExtension>
        </extensions>
      </trkpt>
      <trkpt lat="45.31289233826100826263427734375" lon="-70.89826083742082118988037109375">
        <ele>606</ele>
        <time>2026-08-21T16:06:03.000Z</time>
        <extensions>
          <ns3:TrackPointExtension>
            <ns3:hr>95</ns3:hr>
            <ns3:cad>0</ns3:cad>
          </ns3:TrackPointExtension>
        </extensions>
      </trkpt>
      <trkpt lat="45.31289233826100826263427734375" lon="-70.89826083742082118988037109375">
        <ele>606</ele>
        <time>2026-08-21T16:06:04.000Z</time>
        <extensions>
          <ns3:TrackPointExtension>
            <ns3:hr>96</ns3:hr>
            <ns3:cad>0</ns3:cad>
          </ns3:TrackPointExtension>
        </extensions>
      </trkpt>
      <trkpt lat="45.31289233826100826263427734375" lon="-70.89826083742082118988037109375">
        <ele>606</ele>
        <time>2026-08-21T16:06:05.000Z</time>
        <extensions>
          <ns3:TrackPointExtension>
            <ns3:hr>96</ns3:hr>
            <ns3:cad>0</ns3:cad>
          </ns3:TrackPointExtension>
        </extensions>
      </trkpt>
      <trkpt lat="45.31289233826100826263427734375" lon="-70.89826083742082118988037109375">
        <ele>606</ele>
        <time>2026-08-21T16:06:06.000Z</time>
        <extensions>
          <ns3:TrackPointExtension>
            <ns3:hr>96</ns3:hr>
            <ns3:cad>0</ns3:cad>
          </ns3:TrackPointExtension>
        </extensions>
      </trkpt>
      <trkpt lat="45.31289233826100826263427734375" lon="-70.89826083742082118988037109375">
        <ele>606.20001220703125</ele>
        <time>2026-08-21T16:06:07.000Z</time>
        <extensions>
          <ns3:TrackPointExtension>
            <ns3:hr>96</ns3:hr>
            <ns3:cad>0</ns3:cad>
          </ns3:TrackPointExtension>
        </extensions>
      </trkpt>
      <trkpt lat="45.31289233826100826263427734375" lon="-70.89826083742082118988037109375">
        <ele>606.20001220703125</ele>
        <time>2026-08-21T16:06:08.000Z</time>
        <extensions>
          <ns3:TrackPointExtension>
            <ns3:hr>96</ns3:hr>
            <ns3:cad>0</ns3:cad>
          </ns3:TrackPointExtension>
        </extensions>
      </trkpt>
      <trkpt lat="45.31289233826100826263427734375" lon="-70.89826083742082118988037109375">
        <ele>606</ele>
        <time>2026-08-21T16:06:09.000Z</time>
        <extensions>
          <ns3:TrackPointExtension>
            <ns3:hr>96</ns3:hr>
            <ns3:cad>0</ns3:cad>
          </ns3:TrackPointExtension>
        </extensions>
      </trkpt>
      <trkpt lat="45.31289233826100826263427734375" lon="-70.89826083742082118988037109375">
        <ele>606</ele>
        <time>2026-08-21T16:06:10.000Z</time>
        <extensions>
          <ns3:TrackPointExtension>
            <ns3:hr>96</ns3:hr>
            <ns3:cad>0</ns3:cad>
          </ns3:TrackPointExtension>
        </extensions>
      </trkpt>
      <trkpt lat="45.31289233826100826263427734375" lon="-70.89826083742082118988037109375">
        <ele>606</ele>
        <time>2026-08-21T16:06:11.000Z</time>
        <extensions>
          <ns3:TrackPointExtension>
            <ns3:hr>96</ns3:hr>
            <ns3:cad>0</ns3:cad>
          </ns3:TrackPointExtension>
        </extensions>
      </trkpt>
      <trkpt lat="45.31289233826100826263427734375" lon="-70.89826083742082118988037109375">
        <ele>606</ele>
        <time>2026-08-21T16:06:12.000Z</time>
        <extensions>
          <ns3:TrackPointExtension>
            <ns3:hr>96</ns3:hr>
            <ns3:cad>0</ns3:cad>
          </ns3:TrackPointExtension>
        </extensions>
      </trkpt>
      <trkpt lat="45.31289233826100826263427734375" lon="-70.89826083742082118988037109375">
        <ele>606</ele>
        <time>2026-08-21T16:06:13.000Z</time>
        <extensions>
          <ns3:TrackPointExtension>
            <ns3:hr>96</ns3:hr>
            <ns3:cad>0</ns3:cad>
          </ns3:TrackPointExtension>
        </extensions>
      </trkpt>
      <trkpt lat="45.31289233826100826263427734375" lon="-70.89826083742082118988037109375">
        <ele>606</ele>
        <time>2026-08-21T16:06:14.000Z</time>
        <extensions>
          <ns3:TrackPointExtension>
            <ns3:hr>96</ns3:hr>
            <ns3:cad>0</ns3:cad>
          </ns3:TrackPointExtension>
        </extensions>
      </trkpt>
      <trkpt lat="45.31289233826100826263427734375" lon="-70.89826083742082118988037109375">
        <ele>606</ele>
        <time>2026-08-21T16:06:15.000Z</time>
        <extensions>
          <ns3:TrackPointExtension>
            <ns3:hr>96</ns3:hr>
            <ns3:cad>0</ns3:cad>
          </ns3:TrackPointExtension>
        </extensions>
      </trkpt>
      <trkpt lat="45.31289233826100826263427734375" lon="-70.89826083742082118988037109375">
        <ele>606</ele>
        <time>2026-08-21T16:06:16.000Z</time>
        <extensions>
          <ns3:TrackPointExtension>
            <ns3:hr>97</ns3:hr>
            <ns3:cad>0</ns3:cad>
          </ns3:TrackPointExtension>
        </extensions>
      </trkpt>
      <trkpt lat="45.31289233826100826263427734375" lon="-70.89826083742082118988037109375">
        <ele>606</ele>
        <time>2026-08-21T16:06:17.000Z</time>
        <extensions>
          <ns3:TrackPointExtension>
            <ns3:hr>96</ns3:hr>
            <ns3:cad>0</ns3:cad>
          </ns3:TrackPointExtension>
        </extensions>
      </trkpt>
      <trkpt lat="45.31289233826100826263427734375" lon="-70.89826083742082118988037109375">
        <ele>606</ele>
        <time>2026-08-21T16:06:18.000Z</time>
        <extensions>
          <ns3:TrackPointExtension>
            <ns3:hr>97</ns3:hr>
            <ns3:cad>0</ns3:cad>
          </ns3:TrackPointExtension>
        </extensions>
      </trkpt>
      <trkpt lat="45.31289233826100826263427734375" lon="-70.89826083742082118988037109375">
        <ele>606.20001220703125</ele>
        <time>2026-08-21T16:06:19.000Z</time>
        <extensions>
          <ns3:TrackPointExtension>
            <ns3:hr>98</ns3:hr>
            <ns3:cad>0</ns3:cad>
          </ns3:TrackPointExtension>
        </extensions>
      </trkpt>
      <trkpt lat="45.31289233826100826263427734375" lon="-70.89826083742082118988037109375">
        <ele>606.20001220703125</ele>
        <time>2026-08-21T16:06:20.000Z</time>
        <extensions>
          <ns3:TrackPointExtension>
            <ns3:hr>100</ns3:hr>
            <ns3:cad>0</ns3:cad>
          </ns3:TrackPointExtension>
        </extensions>
      </trkpt>
      <trkpt lat="45.31289233826100826263427734375" lon="-70.89826083742082118988037109375">
        <ele>606.20001220703125</ele>
        <time>2026-08-21T16:06:21.000Z</time>
        <extensions>
          <ns3:TrackPointExtension>
            <ns3:hr>104</ns3:hr>
            <ns3:cad>0</ns3:cad>
          </ns3:TrackPointExtension>
        </extensions>
      </trkpt>
      <trkpt lat="45.31289233826100826263427734375" lon="-70.89826083742082118988037109375">
        <ele>606.20001220703125</ele>
        <time>2026-08-21T16:06:22.000Z</time>
        <extensions>
          <ns3:TrackPointExtension>
            <ns3:hr>106</ns3:hr>
            <ns3:cad>0</ns3:cad>
          </ns3:TrackPointExtension>
        </extensions>
      </trkpt>
      <trkpt lat="45.3128895722329616546630859375" lon="-70.89826251380145549774169921875">
        <ele>606.20001220703125</ele>
        <time>2026-08-21T16:06:23.000Z</time>
        <extensions>
          <ns3:TrackPointExtension>
            <ns3:hr>107</ns3:hr>
            <ns3:cad>0</ns3:cad>
          </ns3:TrackPointExtension>
        </extensions>
      </trkpt>
      <trkpt lat="45.3128878958523273468017578125" lon="-70.89826083742082118988037109375">
        <ele>606</ele>
        <time>2026-08-21T16:06:24.000Z</time>
        <extensions>
          <ns3:TrackPointExtension>
            <ns3:hr>107</ns3:hr>
            <ns3:cad>0</ns3:cad>
          </ns3:TrackPointExtension>
        </extensions>
      </trkpt>
      <trkpt lat="45.31288563273847103118896484375" lon="-70.89825882576406002044677734375">
        <ele>606</ele>
        <time>2026-08-21T16:06:25.000Z</time>
        <extensions>
          <ns3:TrackPointExtension>
            <ns3:hr>107</ns3:hr>
            <ns3:cad>0</ns3:cad>
          </ns3:TrackPointExtension>
        </extensions>
      </trkpt>
      <trkpt lat="45.31289233826100826263427734375" lon="-70.89826083742082118988037109375">
        <ele>606</ele>
        <time>2026-08-21T16:06:26.000Z</time>
        <extensions>
          <ns3:TrackPointExtension>
            <ns3:hr>106</ns3:hr>
            <ns3:cad>0</ns3:cad>
          </ns3:TrackPointExtension>
        </extensions>
      </trkpt>
      <trkpt lat="45.31289233826100826263427734375" lon="-70.89826083742082118988037109375">
        <ele>606</ele>
        <time>2026-08-21T16:06:27.000Z</time>
        <extensions>
          <ns3:TrackPointExtension>
            <ns3:hr>106</ns3:hr>
            <ns3:cad>0</ns3:cad>
          </ns3:TrackPointExtension>
        </extensions>
      </trkpt>
      <trkpt lat="45.31289233826100826263427734375" lon="-70.89826083742082118988037109375">
        <ele>606</ele>
        <time>2026-08-21T16:06:28.000Z</time>
        <extensions>
          <ns3:TrackPointExtension>
            <ns3:hr>106</ns3:hr>
            <ns3:cad>0</ns3:cad>
          </ns3:TrackPointExtension>
        </extensions>
      </trkpt>
      <trkpt lat="45.31289233826100826263427734375" lon="-70.89826083742082118988037109375">
        <ele>606</ele>
        <time>2026-08-21T16:06:29.000Z</time>
        <extensions>
          <ns3:TrackPointExtension>
            <ns3:hr>106</ns3:hr>
            <ns3:cad>0</ns3:cad>
          </ns3:TrackPointExtension>
        </extensions>
      </trkpt>
      <trkpt lat="45.31289233826100826263427734375" lon="-70.89826083742082118988037109375">
        <ele>606</ele>
        <time>2026-08-21T16:06:30.000Z</time>
        <extensions>
          <ns3:TrackPointExtension>
            <ns3:hr>106</ns3:hr>
            <ns3:cad>0</ns3:cad>
          </ns3:TrackPointExtension>
        </extensions>
      </trkpt>
      <trkpt lat="45.31289233826100826263427734375" lon="-70.89826083742082118988037109375">
        <ele>606</ele>
        <time>2026-08-21T16:06:31.000Z</time>
        <extensions>
          <ns3:TrackPointExtension>
            <ns3:hr>106</ns3:hr>
            <ns3:cad>0</ns3:cad>
          </ns3:TrackPointExtension>
        </extensions>
      </trkpt>
      <trkpt lat="45.31289233826100826263427734375" lon="-70.89826083742082118988037109375">
        <ele>606</ele>
        <time>2026-08-21T16:06:32.000Z</time>
        <extensions>
          <ns3:TrackPointExtension>
            <ns3:hr>106</ns3:hr>
            <ns3:cad>0</ns3:cad>
          </ns3:TrackPointExtension>
        </extensions>
      </trkpt>
      <trkpt lat="45.31289233826100826263427734375" lon="-70.89826083742082118988037109375">
        <ele>606</ele>
        <time>2026-08-21T16:06:33.000Z</time>
        <extensions>
          <ns3:TrackPointExtension>
            <ns3:hr>106</ns3:hr>
            <ns3:cad>0</ns3:cad>
          </ns3:TrackPointExtension>
        </extensions>
      </trkpt>
      <trkpt lat="45.31289233826100826263427734375" lon="-70.89826083742082118988037109375">
        <ele>606</ele>
        <time>2026-08-21T16:06:34.000Z</time>
        <extensions>
          <ns3:TrackPointExtension>
            <ns3:hr>106</ns3:hr>
            <ns3:cad>0</ns3:cad>
          </ns3:TrackPointExtension>
        </extensions>
      </trkpt>
      <trkpt lat="45.31289233826100826263427734375" lon="-70.89826083742082118988037109375">
        <ele>606</ele>
        <time>2026-08-21T16:06:35.000Z</time>
        <extensions>
          <ns3:TrackPointExtension>
            <ns3:hr>107</ns3:hr>
            <ns3:cad>0</ns3:cad>
          </ns3:TrackPointExtension>
        </extensions>
      </trkpt>
      <trkpt lat="45.31289233826100826263427734375" lon="-70.89826083742082118988037109375">
        <ele>606</ele>
        <time>2026-08-21T16:06:36.000Z</time>
        <extensions>
          <ns3:TrackPointExtension>
            <ns3:hr>107</ns3:hr>
            <ns3:cad>0</ns3:cad>
          </ns3:TrackPointExtension>
        </extensions>
      </trkpt>
      <trkpt lat="45.31289233826100826263427734375" lon="-70.89826083742082118988037109375">
        <ele>606</ele>
        <time>2026-08-21T16:06:37.000Z</time>
        <extensions>
          <ns3:TrackPointExtension>
            <ns3:hr>107</ns3:hr>
            <ns3:cad>0</ns3:cad>
          </ns3:TrackPointExtension>
        </extensions>
      </trkpt>
      <trkpt lat="45.31289233826100826263427734375" lon="-70.89826083742082118988037109375">
        <ele>606</ele>
        <time>2026-08-21T16:06:38.000Z</time>
        <extensions>
          <ns3:TrackPointExtension>
            <ns3:hr>107</ns3:hr>
            <ns3:cad>0</ns3:cad>
          </ns3:TrackPointExtension>
        </extensions>
      </trkpt>
      <trkpt lat="45.31289233826100826263427734375" lon="-70.89826083742082118988037109375">
        <ele>606</ele>
        <time>2026-08-21T16:06:39.000Z</time>
        <extensions>
          <ns3:TrackPointExtension>
            <ns3:hr>108</ns3:hr>
            <ns3:cad>0</ns3:cad>
          </ns3:TrackPointExtension>
        </extensions>
      </trkpt>
      <trkpt lat="45.31289233826100826263427734375" lon="-70.89826083742082118988037109375">
        <ele>606</ele>
        <time>2026-08-21T16:06:40.000Z</time>
        <extensions>
          <ns3:TrackPointExtension>
            <ns3:hr>108</ns3:hr>
            <ns3:cad>0</ns3:cad>
          </ns3:TrackPointExtension>
        </extensions>
      </trkpt>
      <trkpt lat="45.31289233826100826263427734375" lon="-70.89826083742082118988037109375">
        <ele>606</ele>
        <time>2026-08-21T16:06:41.000Z</time>
        <extensions>
          <ns3:TrackPointExtension>
            <ns3:hr>108</ns3:hr>
            <ns3:cad>0</ns3:cad>
          </ns3:TrackPointExtension>
        </extensions>
      </trkpt>
      <trkpt lat="45.31289233826100826263427734375" lon="-70.89826083742082118988037109375">
        <ele>606</ele>
        <time>2026-08-21T16:06:42.000Z</time>
        <extensions>
          <ns3:TrackPointExtension>
            <ns3:hr>108</ns3:hr>
            <ns3:cad>0</ns3:cad>
          </ns3:TrackPointExtension>
        </extensions>
      </trkpt>
      <trkpt lat="45.31289233826100826263427734375" lon="-70.89826083742082118988037109375">
        <ele>606</ele>
        <time>2026-08-21T16:06:43.000Z</time>
        <extensions>
          <ns3:TrackPointExtension>
            <ns3:hr>108</ns3:hr>
            <ns3:cad>0</ns3:cad>
          </ns3:TrackPointExtension>
        </extensions>
      </trkpt>
      <trkpt lat="45.31289233826100826263427734375" lon="-70.89826083742082118988037109375">
        <ele>606</ele>
        <time>2026-08-21T16:06:44.000Z</time>
        <extensions>
          <ns3:TrackPointExtension>
            <ns3:hr>107</ns3:hr>
            <ns3:cad>0</ns3:cad>
          </ns3:TrackPointExtension>
        </extensions>
      </trkpt>
      <trkpt lat="45.31289233826100826263427734375" lon="-70.89826083742082118988037109375">
        <ele>606</ele>
        <time>2026-08-21T16:06:45.000Z</time>
        <extensions>
          <ns3:TrackPointExtension>
            <ns3:hr>107</ns3:hr>
            <ns3:cad>0</ns3:cad>
          </ns3:TrackPointExtension>
        </extensions>
      </trkpt>
      <trkpt lat="45.31289233826100826263427734375" lon="-70.89826083742082118988037109375">
        <ele>606</ele>
        <time>2026-08-21T16:06:46.000Z</time>
        <extensions>
          <ns3:TrackPointExtension>
            <ns3:hr>107</ns3:hr>
            <ns3:cad>0</ns3:cad>
          </ns3:TrackPointExtension>
        </extensions>
      </trkpt>
      <trkpt lat="45.31289233826100826263427734375" lon="-70.89826083742082118988037109375">
        <ele>606</ele>
        <time>2026-08-21T16:06:47.000Z</time>
        <extensions>
          <ns3:TrackPointExtension>
            <ns3:hr>107</ns3:hr>
            <ns3:cad>0</ns3:cad>
          </ns3:TrackPointExtension>
        </extensions>
      </trkpt>
      <trkpt lat="45.31289233826100826263427734375" lon="-70.89826083742082118988037109375">
        <ele>606</ele>
        <time>2026-08-21T16:06:48.000Z</time>
        <extensions>
          <ns3:TrackPointExtension>
            <ns3:hr>108</ns3:hr>
            <ns3:cad>0</ns3:cad>
          </ns3:TrackPointExtension>
        </extensions>
      </trkpt>
      <trkpt lat="45.31289233826100826263427734375" lon="-70.89826083742082118988037109375">
        <ele>606.20001220703125</ele>
        <time>2026-08-21T16:06:49.000Z</time>
        <extensions>
          <ns3:TrackPointExtension>
            <ns3:hr>107</ns3:hr>
            <ns3:cad>0</ns3:cad>
          </ns3:TrackPointExtension>
        </extensions>
      </trkpt>
      <trkpt lat="45.31289233826100826263427734375" lon="-70.89826083742082118988037109375">
        <ele>606.20001220703125</ele>
        <time>2026-08-21T16:06:50.000Z</time>
        <extensions>
          <ns3:TrackPointExtension>
            <ns3:hr>107</ns3:hr>
            <ns3:cad>0</ns3:cad>
          </ns3:TrackPointExtension>
        </extensions>
      </trkpt>
      <trkpt lat="45.31289233826100826263427734375" lon="-70.89826083742082118988037109375">
        <ele>606.20001220703125</ele>
        <time>2026-08-21T16:06:51.000Z</time>
        <extensions>
          <ns3:TrackPointExtension>
            <ns3:hr>106</ns3:hr>
            <ns3:cad>0</ns3:cad>
          </ns3:TrackPointExtension>
        </extensions>
      </trkpt>
      <trkpt lat="45.31289233826100826263427734375" lon="-70.89826083742082118988037109375">
        <ele>606.20001220703125</ele>
        <time>2026-08-21T16:06:52.000Z</time>
        <extensions>
          <ns3:TrackPointExtension>
            <ns3:hr>107</ns3:hr>
            <ns3:cad>0</ns3:cad>
          </ns3:TrackPointExtension>
        </extensions>
      </trkpt>
      <trkpt lat="45.31289233826100826263427734375" lon="-70.89826083742082118988037109375">
        <ele>606</ele>
        <time>2026-08-21T16:06:53.000Z</time>
        <extensions>
          <ns3:TrackPointExtension>
            <ns3:hr>107</ns3:hr>
            <ns3:cad>0</ns3:cad>
          </ns3:TrackPointExtension>
        </extensions>
      </trkpt>
      <trkpt lat="45.31289233826100826263427734375" lon="-70.89826083742082118988037109375">
        <ele>606</ele>
        <time>2026-08-21T16:06:54.000Z</time>
        <extensions>
          <ns3:TrackPointExtension>
            <ns3:hr>108</ns3:hr>
            <ns3:cad>0</ns3:cad>
          </ns3:TrackPointExtension>
        </extensions>
      </trkpt>
      <trkpt lat="45.31289233826100826263427734375" lon="-70.89826083742082118988037109375">
        <ele>606</ele>
        <time>2026-08-21T16:06:55.000Z</time>
        <extensions>
          <ns3:TrackPointExtension>
            <ns3:hr>108</ns3:hr>
            <ns3:cad>0</ns3:cad>
          </ns3:TrackPointExtension>
        </extensions>
      </trkpt>
      <trkpt lat="45.31289233826100826263427734375" lon="-70.89826083742082118988037109375">
        <ele>606</ele>
        <time>2026-08-21T16:06:56.000Z</time>
        <extensions>
          <ns3:TrackPointExtension>
            <ns3:hr>108</ns3:hr>
            <ns3:cad>0</ns3:cad>
          </ns3:TrackPointExtension>
        </extensions>
      </trkpt>
      <trkpt lat="45.31289233826100826263427734375" lon="-70.89826083742082118988037109375">
        <ele>606</ele>
        <time>2026-08-21T16:06:57.000Z</time>
        <extensions>
          <ns3:TrackPointExtension>
            <ns3:hr>109</ns3:hr>
            <ns3:cad>0</ns3:cad>
          </ns3:TrackPointExtension>
        </extensions>
      </trkpt>
      <trkpt lat="45.31289233826100826263427734375" lon="-70.89826083742082118988037109375">
        <ele>606.20001220703125</ele>
        <time>2026-08-21T16:06:58.000Z</time>
        <extensions>
          <ns3:TrackPointExtension>
            <ns3:hr>110</ns3:hr>
            <ns3:cad>0</ns3:cad>
          </ns3:TrackPointExtension>
        </extensions>
      </trkpt>
      <trkpt lat="45.31289233826100826263427734375" lon="-70.89826083742082118988037109375">
        <ele>606.20001220703125</ele>
        <time>2026-08-21T16:06:59.000Z</time>
        <extensions>
          <ns3:TrackPointExtension>
            <ns3:hr>109</ns3:hr>
            <ns3:cad>0</ns3:cad>
          </ns3:TrackPointExtension>
        </extensions>
      </trkpt>
      <trkpt lat="45.31289233826100826263427734375" lon="-70.89826083742082118988037109375">
        <ele>606.20001220703125</ele>
        <time>2026-08-21T16:07:00.000Z</time>
        <extensions>
          <ns3:TrackPointExtension>
            <ns3:hr>109</ns3:hr>
            <ns3:cad>0</ns3:cad>
          </ns3:TrackPointExtension>
        </extensions>
      </trkpt>
      <trkpt lat="45.31289233826100826263427734375" lon="-70.89826083742082118988037109375">
        <ele>606.20001220703125</ele>
        <time>2026-08-21T16:07:01.000Z</time>
        <extensions>
          <ns3:TrackPointExtension>
            <ns3:hr>108</ns3:hr>
            <ns3:cad>0</ns3:cad>
          </ns3:TrackPointExtension>
        </extensions>
      </trkpt>
      <trkpt lat="45.31289233826100826263427734375" lon="-70.89826083742082118988037109375">
        <ele>606.20001220703125</ele>
        <time>2026-08-21T16:07:02.000Z</time>
        <extensions>
          <ns3:TrackPointExtension>
            <ns3:hr>108</ns3:hr>
            <ns3:cad>0</ns3:cad>
          </ns3:TrackPointExtension>
        </extensions>
      </trkpt>
      <trkpt lat="45.31289233826100826263427734375" lon="-70.89826083742082118988037109375">
        <ele>606.20001220703125</ele>
        <time>2026-08-21T16:07:03.000Z</time>
        <extensions>
          <ns3:TrackPointExtension>
            <ns3:hr>108</ns3:hr>
            <ns3:cad>0</ns3:cad>
          </ns3:TrackPointExtension>
        </extensions>
      </trkpt>
      <trkpt lat="45.31289233826100826263427734375" lon="-70.89826083742082118988037109375">
        <ele>606.20001220703125</ele>
        <time>2026-08-21T16:07:04.000Z</time>
        <extensions>
          <ns3:TrackPointExtension>
            <ns3:hr>109</ns3:hr>
            <ns3:cad>0</ns3:cad>
          </ns3:TrackPointExtension>
        </extensions>
      </trkpt>
      <trkpt lat="45.31289233826100826263427734375" lon="-70.89826083742082118988037109375">
        <ele>606.20001220703125</ele>
        <time>2026-08-21T16:07:05.000Z</time>
        <extensions>
          <ns3:TrackPointExtension>
            <ns3:hr>110</ns3:hr>
            <ns3:cad>0</ns3:cad>
          </ns3:TrackPointExtension>
        </extensions>
      </trkpt>
      <trkpt lat="45.31289233826100826263427734375" lon="-70.89826083742082118988037109375">
        <ele>606.20001220703125</ele>
        <time>2026-08-21T16:07:06.000Z</time>
        <extensions>
          <ns3:TrackPointExtension>
            <ns3:hr>109</ns3:hr>
            <ns3:cad>0</ns3:cad>
          </ns3:TrackPointExtension>
        </extensions>
      </trkpt>
      <trkpt lat="45.31289233826100826263427734375" lon="-70.89826083742082118988037109375">
        <ele>606.20001220703125</ele>
        <time>2026-08-21T16:07:07.000Z</time>
        <extensions>
          <ns3:TrackPointExtension>
            <ns3:hr>109</ns3:hr>
            <ns3:cad>0</ns3:cad>
          </ns3:TrackPointExtension>
        </extensions>
      </trkpt>
      <trkpt lat="45.31289233826100826263427734375" lon="-70.89826083742082118988037109375">
        <ele>606.20001220703125</ele>
        <time>2026-08-21T16:07:08.000Z</time>
        <extensions>
          <ns3:TrackPointExtension>
            <ns3:hr>108</ns3:hr>
            <ns3:cad>0</ns3:cad>
          </ns3:TrackPointExtension>
        </extensions>
      </trkpt>
      <trkpt lat="45.31289233826100826263427734375" lon="-70.89826083742082118988037109375">
        <ele>606</ele>
        <time>2026-08-21T16:07:09.000Z</time>
        <extensions>
          <ns3:TrackPointExtension>
            <ns3:hr>109</ns3:hr>
            <ns3:cad>0</ns3:cad>
          </ns3:TrackPointExtension>
        </extensions>
      </trkpt>
      <trkpt lat="45.31289233826100826263427734375" lon="-70.89826083742082118988037109375">
        <ele>606</ele>
        <time>2026-08-21T16:07:10.000Z</time>
        <extensions>
          <ns3:TrackPointExtension>
            <ns3:hr>109</ns3:hr>
            <ns3:cad>0</ns3:cad>
          </ns3:TrackPointExtension>
        </extensions>
      </trkpt>
      <trkpt lat="45.31289233826100826263427734375" lon="-70.89826083742082118988037109375">
        <ele>606</ele>
        <time>2026-08-21T16:07:11.000Z</time>
        <extensions>
          <ns3:TrackPointExtension>
            <ns3:hr>111</ns3:hr>
            <ns3:cad>0</ns3:cad>
          </ns3:TrackPointExtension>
        </extensions>
      </trkpt>
      <trkpt lat="45.31289233826100826263427734375" lon="-70.89826083742082118988037109375">
        <ele>606.20001220703125</ele>
        <time>2026-08-21T16:07:12.000Z</time>
        <extensions>
          <ns3:TrackPointExtension>
            <ns3:hr>115</ns3:hr>
            <ns3:cad>0</ns3:cad>
          </ns3:TrackPointExtension>
        </extensions>
      </trkpt>
      <trkpt lat="45.31289233826100826263427734375" lon="-70.89826083742082118988037109375">
        <ele>606.20001220703125</ele>
        <time>2026-08-21T16:07:13.000Z</time>
        <extensions>
          <ns3:TrackPointExtension>
            <ns3:hr>116</ns3:hr>
            <ns3:cad>0</ns3:cad>
          </ns3:TrackPointExtension>
        </extensions>
      </trkpt>
      <trkpt lat="45.31289233826100826263427734375" lon="-70.89826083742082118988037109375">
        <ele>606.20001220703125</ele>
        <time>2026-08-21T16:07:14.000Z</time>
        <extensions>
          <ns3:TrackPointExtension>
            <ns3:hr>115</ns3:hr>
            <ns3:cad>0</ns3:cad>
          </ns3:TrackPointExtension>
        </extensions>
      </trkpt>
      <trkpt lat="45.31289233826100826263427734375" lon="-70.89826083742082118988037109375">
        <ele>606.20001220703125</ele>
        <time>2026-08-21T16:07:15.000Z</time>
        <extensions>
          <ns3:TrackPointExtension>
            <ns3:hr>112</ns3:hr>
            <ns3:cad>0</ns3:cad>
          </ns3:TrackPointExtension>
        </extensions>
      </trkpt>
      <trkpt lat="45.31289233826100826263427734375" lon="-70.89826083742082118988037109375">
        <ele>606</ele>
        <time>2026-08-21T16:07:16.000Z</time>
        <extensions>
          <ns3:TrackPointExtension>
            <ns3:hr>108</ns3:hr>
            <ns3:cad>0</ns3:cad>
          </ns3:TrackPointExtension>
        </extensions>
      </trkpt>
      <trkpt lat="45.31289233826100826263427734375" lon="-70.89826083742082118988037109375">
        <ele>606</ele>
        <time>2026-08-21T16:07:17.000Z</time>
        <extensions>
          <ns3:TrackPointExtension>
            <ns3:hr>107</ns3:hr>
            <ns3:cad>0</ns3:cad>
          </ns3:TrackPointExtension>
        </extensions>
      </trkpt>
      <trkpt lat="45.31289233826100826263427734375" lon="-70.89826083742082118988037109375">
        <ele>606</ele>
        <time>2026-08-21T16:07:18.000Z</time>
        <extensions>
          <ns3:TrackPointExtension>
            <ns3:hr>106</ns3:hr>
            <ns3:cad>0</ns3:cad>
          </ns3:TrackPointExtension>
        </extensions>
      </trkpt>
      <trkpt lat="45.31289233826100826263427734375" lon="-70.89826083742082118988037109375">
        <ele>606</ele>
        <time>2026-08-21T16:07:19.000Z</time>
        <extensions>
          <ns3:TrackPointExtension>
            <ns3:hr>106</ns3:hr>
            <ns3:cad>0</ns3:cad>
          </ns3:TrackPointExtension>
        </extensions>
      </trkpt>
      <trkpt lat="45.31289233826100826263427734375" lon="-70.89826083742082118988037109375">
        <ele>606</ele>
        <time>2026-08-21T16:07:20.000Z</time>
        <extensions>
          <ns3:TrackPointExtension>
            <ns3:hr>106</ns3:hr>
            <ns3:cad>0</ns3:cad>
          </ns3:TrackPointExtension>
        </extensions>
      </trkpt>
      <trkpt lat="45.31289233826100826263427734375" lon="-70.89826083742082118988037109375">
        <ele>606</ele>
        <time>2026-08-21T16:07:21.000Z</time>
        <extensions>
          <ns3:TrackPointExtension>
            <ns3:hr>106</ns3:hr>
            <ns3:cad>0</ns3:cad>
          </ns3:TrackPointExtension>
        </extensions>
      </trkpt>
      <trkpt lat="45.31289233826100826263427734375" lon="-70.89826083742082118988037109375">
        <ele>606</ele>
        <time>2026-08-21T16:07:22.000Z</time>
        <extensions>
          <ns3:TrackPointExtension>
            <ns3:hr>106</ns3:hr>
            <ns3:cad>0</ns3:cad>
          </ns3:TrackPointExtension>
        </extensions>
      </trkpt>
      <trkpt lat="45.31289233826100826263427734375" lon="-70.89826083742082118988037109375">
        <ele>606</ele>
        <time>2026-08-21T16:07:23.000Z</time>
        <extensions>
          <ns3:TrackPointExtension>
            <ns3:hr>106</ns3:hr>
            <ns3:cad>0</ns3:cad>
          </ns3:TrackPointExtension>
        </extensions>
      </trkpt>
      <trkpt lat="45.31289233826100826263427734375" lon="-70.89826083742082118988037109375">
        <ele>606</ele>
        <time>2026-08-21T16:07:24.000Z</time>
        <extensions>
          <ns3:TrackPointExtension>
            <ns3:hr>106</ns3:hr>
            <ns3:cad>0</ns3:cad>
          </ns3:TrackPointExtension>
        </extensions>
      </trkpt>
      <trkpt lat="45.31289233826100826263427734375" lon="-70.89826083742082118988037109375">
        <ele>606</ele>
        <time>2026-08-21T16:07:25.000Z</time>
        <extensions>
          <ns3:TrackPointExtension>
            <ns3:hr>106</ns3:hr>
            <ns3:cad>0</ns3:cad>
          </ns3:TrackPointExtension>
        </extensions>
      </trkpt>
      <trkpt lat="45.31289233826100826263427734375" lon="-70.89826083742082118988037109375">
        <ele>606</ele>
        <time>2026-08-21T16:07:26.000Z</time>
        <extensions>
          <ns3:TrackPointExtension>
            <ns3:hr>106</ns3:hr>
            <ns3:cad>0</ns3:cad>
          </ns3:TrackPointExtension>
        </extensions>
      </trkpt>
      <trkpt lat="45.31289233826100826263427734375" lon="-70.89826083742082118988037109375">
        <ele>606</ele>
        <time>2026-08-21T16:07:27.000Z</time>
        <extensions>
          <ns3:TrackPointExtension>
            <ns3:hr>105</ns3:hr>
            <ns3:cad>0</ns3:cad>
          </ns3:TrackPointExtension>
        </extensions>
      </trkpt>
      <trkpt lat="45.31289233826100826263427734375" lon="-70.89826083742082118988037109375">
        <ele>606</ele>
        <time>2026-08-21T16:07:28.000Z</time>
        <extensions>
          <ns3:TrackPointExtension>
            <ns3:hr>104</ns3:hr>
            <ns3:cad>0</ns3:cad>
          </ns3:TrackPointExtension>
        </extensions>
      </trkpt>
      <trkpt lat="45.31289233826100826263427734375" lon="-70.89826083742082118988037109375">
        <ele>606</ele>
        <time>2026-08-21T16:07:29.000Z</time>
        <extensions>
          <ns3:TrackPointExtension>
            <ns3:hr>104</ns3:hr>
            <ns3:cad>0</ns3:cad>
          </ns3:TrackPointExtension>
        </extensions>
      </trkpt>
      <trkpt lat="45.31289233826100826263427734375" lon="-70.89826083742082118988037109375">
        <ele>606</ele>
        <time>2026-08-21T16:07:30.000Z</time>
        <extensions>
          <ns3:TrackPointExtension>
            <ns3:hr>104</ns3:hr>
            <ns3:cad>0</ns3:cad>
          </ns3:TrackPointExtension>
        </extensions>
      </trkpt>
      <trkpt lat="45.31289233826100826263427734375" lon="-70.89826083742082118988037109375">
        <ele>606</ele>
        <time>2026-08-21T16:07:31.000Z</time>
        <extensions>
          <ns3:TrackPointExtension>
            <ns3:hr>103</ns3:hr>
            <ns3:cad>0</ns3:cad>
          </ns3:TrackPointExtension>
        </extensions>
      </trkpt>
      <trkpt lat="45.31289233826100826263427734375" lon="-70.89826083742082118988037109375">
        <ele>606</ele>
        <time>2026-08-21T16:07:32.000Z</time>
        <extensions>
          <ns3:TrackPointExtension>
            <ns3:hr>104</ns3:hr>
            <ns3:cad>0</ns3:cad>
          </ns3:TrackPointExtension>
        </extensions>
      </trkpt>
      <trkpt lat="45.31289233826100826263427734375" lon="-70.89826083742082118988037109375">
        <ele>606.20001220703125</ele>
        <time>2026-08-21T16:07:33.000Z</time>
        <extensions>
          <ns3:TrackPointExtension>
            <ns3:hr>104</ns3:hr>
            <ns3:cad>0</ns3:cad>
          </ns3:TrackPointExtension>
        </extensions>
      </trkpt>
      <trkpt lat="45.31289233826100826263427734375" lon="-70.89826083742082118988037109375">
        <ele>606.20001220703125</ele>
        <time>2026-08-21T16:07:34.000Z</time>
        <extensions>
          <ns3:TrackPointExtension>
            <ns3:hr>104</ns3:hr>
            <ns3:cad>0</ns3:cad>
          </ns3:TrackPointExtension>
        </extensions>
      </trkpt>
      <trkpt lat="45.31289233826100826263427734375" lon="-70.89826083742082118988037109375">
        <ele>606.20001220703125</ele>
        <time>2026-08-21T16:07:35.000Z</time>
        <extensions>
          <ns3:TrackPointExtension>
            <ns3:hr>104</ns3:hr>
            <ns3:cad>0</ns3:cad>
          </ns3:TrackPointExtension>
        </extensions>
      </trkpt>
      <trkpt lat="45.31289233826100826263427734375" lon="-70.89826083742082118988037109375">
        <ele>606.20001220703125</ele>
        <time>2026-08-21T16:07:36.000Z</time>
        <extensions>
          <ns3:TrackPointExtension>
            <ns3:hr>104</ns3:hr>
            <ns3:cad>0</ns3:cad>
          </ns3:TrackPointExtension>
        </extensions>
      </trkpt>
      <trkpt lat="45.31289233826100826263427734375" lon="-70.89826083742082118988037109375">
        <ele>606.20001220703125</ele>
        <time>2026-08-21T16:07:37.000Z</time>
        <extensions>
          <ns3:TrackPointExtension>
            <ns3:hr>104</ns3:hr>
            <ns3:cad>0</ns3:cad>
          </ns3:TrackPointExtension>
        </extensions>
      </trkpt>
      <trkpt lat="45.31289233826100826263427734375" lon="-70.89826083742082118988037109375">
        <ele>606.20001220703125</ele>
        <time>2026-08-21T16:07:38.000Z</time>
        <extensions>
          <ns3:TrackPointExtension>
            <ns3:hr>103</ns3:hr>
            <ns3:cad>0</ns3:cad>
          </ns3:TrackPointExtension>
        </extensions>
      </trkpt>
      <trkpt lat="45.31289233826100826263427734375" lon="-70.89826083742082118988037109375">
        <ele>606.20001220703125</ele>
        <time>2026-08-21T16:07:39.000Z</time>
        <extensions>
          <ns3:TrackPointExtension>
            <ns3:hr>103</ns3:hr>
            <ns3:cad>0</ns3:cad>
          </ns3:TrackPointExtension>
        </extensions>
      </trkpt>
      <trkpt lat="45.31289233826100826263427734375" lon="-70.89826083742082118988037109375">
        <ele>606.20001220703125</ele>
        <time>2026-08-21T16:07:40.000Z</time>
        <extensions>
          <ns3:TrackPointExtension>
            <ns3:hr>102</ns3:hr>
            <ns3:cad>0</ns3:cad>
          </ns3:TrackPointExtension>
        </extensions>
      </trkpt>
      <trkpt lat="45.31289233826100826263427734375" lon="-70.89826083742082118988037109375">
        <ele>606</ele>
        <time>2026-08-21T16:07:41.000Z</time>
        <extensions>
          <ns3:TrackPointExtension>
            <ns3:hr>102</ns3:hr>
            <ns3:cad>0</ns3:cad>
          </ns3:TrackPointExtension>
        </extensions>
      </trkpt>
      <trkpt lat="45.31289233826100826263427734375" lon="-70.89826083742082118988037109375">
        <ele>606</ele>
        <time>2026-08-21T16:07:42.000Z</time>
        <extensions>
          <ns3:TrackPointExtension>
            <ns3:hr>102</ns3:hr>
            <ns3:cad>0</ns3:cad>
          </ns3:TrackPointExtension>
        </extensions>
      </trkpt>
      <trkpt lat="45.31289233826100826263427734375" lon="-70.89826083742082118988037109375">
        <ele>606</ele>
        <time>2026-08-21T16:07:43.000Z</time>
        <extensions>
          <ns3:TrackPointExtension>
            <ns3:hr>103</ns3:hr>
            <ns3:cad>0</ns3:cad>
          </ns3:TrackPointExtension>
        </extensions>
      </trkpt>
      <trkpt lat="45.31289233826100826263427734375" lon="-70.89826083742082118988037109375">
        <ele>606.20001220703125</ele>
        <time>2026-08-21T16:07:44.000Z</time>
        <extensions>
          <ns3:TrackPointExtension>
            <ns3:hr>103</ns3:hr>
            <ns3:cad>0</ns3:cad>
          </ns3:TrackPointExtension>
        </extensions>
      </trkpt>
      <trkpt lat="45.31289233826100826263427734375" lon="-70.89826083742082118988037109375">
        <ele>606.20001220703125</ele>
        <time>2026-08-21T16:07:45.000Z</time>
        <extensions>
          <ns3:TrackPointExtension>
            <ns3:hr>103</ns3:hr>
            <ns3:cad>0</ns3:cad>
          </ns3:TrackPointExtension>
        </extensions>
      </trkpt>
      <trkpt lat="45.31289233826100826263427734375" lon="-70.89826083742082118988037109375">
        <ele>606.20001220703125</ele>
        <time>2026-08-21T16:07:46.000Z</time>
        <extensions>
          <ns3:TrackPointExtension>
            <ns3:hr>102</ns3:hr>
            <ns3:cad>0</ns3:cad>
          </ns3:TrackPointExtension>
        </extensions>
      </trkpt>
      <trkpt lat="45.31289233826100826263427734375" lon="-70.89826083742082118988037109375">
        <ele>606.20001220703125</ele>
        <time>2026-08-21T16:07:47.000Z</time>
        <extensions>
          <ns3:TrackPointExtension>
            <ns3:hr>102</ns3:hr>
            <ns3:cad>0</ns3:cad>
          </ns3:TrackPointExtension>
        </extensions>
      </trkpt>
      <trkpt lat="45.31289233826100826263427734375" lon="-70.89826083742082118988037109375">
        <ele>606.20001220703125</ele>
        <time>2026-08-21T16:07:48.000Z</time>
        <extensions>
          <ns3:TrackPointExtension>
            <ns3:hr>102</ns3:hr>
            <ns3:cad>0</ns3:cad>
          </ns3:TrackPointExtension>
        </extensions>
      </trkpt>
      <trkpt lat="45.31289233826100826263427734375" lon="-70.89826083742082118988037109375">
        <ele>606.20001220703125</ele>
        <time>2026-08-21T16:07:49.000Z</time>
        <extensions>
          <ns3:TrackPointExtension>
            <ns3:hr>101</ns3:hr>
            <ns3:cad>0</ns3:cad>
          </ns3:TrackPointExtension>
        </extensions>
      </trkpt>
      <trkpt lat="45.31289233826100826263427734375" lon="-70.89826083742082118988037109375">
        <ele>606.20001220703125</ele>
        <time>2026-08-21T16:07:50.000Z</time>
        <extensions>
          <ns3:TrackPointExtension>
            <ns3:hr>99</ns3:hr>
            <ns3:cad>0</ns3:cad>
          </ns3:TrackPointExtension>
        </extensions>
      </trkpt>
      <trkpt lat="45.31289233826100826263427734375" lon="-70.89826083742082118988037109375">
        <ele>606.20001220703125</ele>
        <time>2026-08-21T16:07:51.000Z</time>
        <extensions>
          <ns3:TrackPointExtension>
            <ns3:hr>99</ns3:hr>
            <ns3:cad>0</ns3:cad>
          </ns3:TrackPointExtension>
        </extensions>
      </trkpt>
      <trkpt lat="45.31289233826100826263427734375" lon="-70.89826083742082118988037109375">
        <ele>606.20001220703125</ele>
        <time>2026-08-21T16:07:52.000Z</time>
        <extensions>
          <ns3:TrackPointExtension>
            <ns3:hr>99</ns3:hr>
            <ns3:cad>0</ns3:cad>
          </ns3:TrackPointExtension>
        </extensions>
      </trkpt>
      <trkpt lat="45.31289233826100826263427734375" lon="-70.89826083742082118988037109375">
        <ele>606.20001220703125</ele>
        <time>2026-08-21T16:07:53.000Z</time>
        <extensions>
          <ns3:TrackPointExtension>
            <ns3:hr>99</ns3:hr>
            <ns3:cad>0</ns3:cad>
          </ns3:TrackPointExtension>
        </extensions>
      </trkpt>
      <trkpt lat="45.31289233826100826263427734375" lon="-70.89826083742082118988037109375">
        <ele>606.20001220703125</ele>
        <time>2026-08-21T16:07:54.000Z</time>
        <extensions>
          <ns3:TrackPointExtension>
            <ns3:hr>98</ns3:hr>
            <ns3:cad>0</ns3:cad>
          </ns3:TrackPointExtension>
        </extensions>
      </trkpt>
      <trkpt lat="45.31289233826100826263427734375" lon="-70.89826083742082118988037109375">
        <ele>606.20001220703125</ele>
        <time>2026-08-21T16:07:55.000Z</time>
        <extensions>
          <ns3:TrackPointExtension>
            <ns3:hr>98</ns3:hr>
            <ns3:cad>0</ns3:cad>
          </ns3:TrackPointExtension>
        </extensions>
      </trkpt>
      <trkpt lat="45.31289233826100826263427734375" lon="-70.89826083742082118988037109375">
        <ele>606.20001220703125</ele>
        <time>2026-08-21T16:07:56.000Z</time>
        <extensions>
          <ns3:TrackPointExtension>
            <ns3:hr>98</ns3:hr>
            <ns3:cad>0</ns3:cad>
          </ns3:TrackPointExtension>
        </extensions>
      </trkpt>
      <trkpt lat="45.31289233826100826263427734375" lon="-70.89826083742082118988037109375">
        <ele>606.20001220703125</ele>
        <time>2026-08-21T16:07:57.000Z</time>
        <extensions>
          <ns3:TrackPointExtension>
            <ns3:hr>98</ns3:hr>
            <ns3:cad>0</ns3:cad>
          </ns3:TrackPointExtension>
        </extensions>
      </trkpt>
      <trkpt lat="45.31289233826100826263427734375" lon="-70.89826083742082118988037109375">
        <ele>606.20001220703125</ele>
        <time>2026-08-21T16:07:58.000Z</time>
        <extensions>
          <ns3:TrackPointExtension>
            <ns3:hr>97</ns3:hr>
            <ns3:cad>0</ns3:cad>
          </ns3:TrackPointExtension>
        </extensions>
      </trkpt>
      <trkpt lat="45.31289233826100826263427734375" lon="-70.89826083742082118988037109375">
        <ele>606.20001220703125</ele>
        <time>2026-08-21T16:07:59.000Z</time>
        <extensions>
          <ns3:TrackPointExtension>
            <ns3:hr>97</ns3:hr>
            <ns3:cad>0</ns3:cad>
          </ns3:TrackPointExtension>
        </extensions>
      </trkpt>
      <trkpt lat="45.31289233826100826263427734375" lon="-70.89826083742082118988037109375">
        <ele>606.20001220703125</ele>
        <time>2026-08-21T16:08:00.000Z</time>
        <extensions>
          <ns3:TrackPointExtension>
            <ns3:hr>96</ns3:hr>
            <ns3:cad>0</ns3:cad>
          </ns3:TrackPointExtension>
        </extensions>
      </trkpt>
      <trkpt lat="45.31288973987102508544921875" lon="-70.89826066978275775909423828125">
        <ele>606.20001220703125</ele>
        <time>2026-08-21T16:08:01.000Z</time>
        <extensions>
          <ns3:TrackPointExtension>
            <ns3:hr>96</ns3:hr>
            <ns3:cad>0</ns3:cad>
          </ns3:TrackPointExtension>
        </extensions>
      </trkpt>
      <trkpt lat="45.31288831494748592376708984375" lon="-70.89826251380145549774169921875">
        <ele>606.4000244140625</ele>
        <time>2026-08-21T16:08:02.000Z</time>
        <extensions>
          <ns3:TrackPointExtension>
            <ns3:hr>97</ns3:hr>
            <ns3:cad>0</ns3:cad>
          </ns3:TrackPointExtension>
        </extensions>
      </trkpt>
      <trkpt lat="45.3128875605762004852294921875" lon="-70.89826368726789951324462890625">
        <ele>606.4000244140625</ele>
        <time>2026-08-21T16:08:03.000Z</time>
        <extensions>
          <ns3:TrackPointExtension>
            <ns3:hr>97</ns3:hr>
            <ns3:cad>0</ns3:cad>
          </ns3:TrackPointExtension>
        </extensions>
      </trkpt>
      <trkpt lat="45.31289233826100826263427734375" lon="-70.89826083742082118988037109375">
        <ele>606.4000244140625</ele>
        <time>2026-08-21T16:08:04.000Z</time>
        <extensions>
          <ns3:TrackPointExtension>
            <ns3:hr>97</ns3:hr>
            <ns3:cad>0</ns3:cad>
          </ns3:TrackPointExtension>
        </extensions>
      </trkpt>
      <trkpt lat="45.31289233826100826263427734375" lon="-70.89826083742082118988037109375">
        <ele>606.4000244140625</ele>
        <time>2026-08-21T16:08:05.000Z</time>
        <extensions>
          <ns3:TrackPointExtension>
            <ns3:hr>97</ns3:hr>
            <ns3:cad>0</ns3:cad>
          </ns3:TrackPointExtension>
        </extensions>
      </trkpt>
      <trkpt lat="45.31289233826100826263427734375" lon="-70.89826083742082118988037109375">
        <ele>606.20001220703125</ele>
        <time>2026-08-21T16:08:06.000Z</time>
        <extensions>
          <ns3:TrackPointExtension>
            <ns3:hr>98</ns3:hr>
            <ns3:cad>0</ns3:cad>
          </ns3:TrackPointExtension>
        </extensions>
      </trkpt>
      <trkpt lat="45.31289233826100826263427734375" lon="-70.89826083742082118988037109375">
        <ele>606.20001220703125</ele>
        <time>2026-08-21T16:08:07.000Z</time>
        <extensions>
          <ns3:TrackPointExtension>
            <ns3:hr>98</ns3:hr>
            <ns3:cad>0</ns3:cad>
          </ns3:TrackPointExtension>
        </extensions>
      </trkpt>
      <trkpt lat="45.31289233826100826263427734375" lon="-70.89826083742082118988037109375">
        <ele>606.20001220703125</ele>
        <time>2026-08-21T16:08:08.000Z</time>
        <extensions>
          <ns3:TrackPointExtension>
            <ns3:hr>98</ns3:hr>
            <ns3:cad>0</ns3:cad>
          </ns3:TrackPointExtension>
        </extensions>
      </trkpt>
      <trkpt lat="45.31289233826100826263427734375" lon="-70.89826083742082118988037109375">
        <ele>606.20001220703125</ele>
        <time>2026-08-21T16:08:09.000Z</time>
        <extensions>
          <ns3:TrackPointExtension>
            <ns3:hr>99</ns3:hr>
            <ns3:cad>0</ns3:cad>
          </ns3:TrackPointExtension>
        </extensions>
      </trkpt>
      <trkpt lat="45.31289233826100826263427734375" lon="-70.89826083742082118988037109375">
        <ele>606.4000244140625</ele>
        <time>2026-08-21T16:08:10.000Z</time>
        <extensions>
          <ns3:TrackPointExtension>
            <ns3:hr>100</ns3:hr>
            <ns3:cad>0</ns3:cad>
          </ns3:TrackPointExtension>
        </extensions>
      </trkpt>
      <trkpt lat="45.31289233826100826263427734375" lon="-70.89826083742082118988037109375">
        <ele>606.4000244140625</ele>
        <time>2026-08-21T16:08:11.000Z</time>
        <extensions>
          <ns3:TrackPointExtension>
            <ns3:hr>102</ns3:hr>
            <ns3:cad>0</ns3:cad>
          </ns3:TrackPointExtension>
        </extensions>
      </trkpt>
      <trkpt lat="45.31289233826100826263427734375" lon="-70.89826083742082118988037109375">
        <ele>606.4000244140625</ele>
        <time>2026-08-21T16:08:12.000Z</time>
        <extensions>
          <ns3:TrackPointExtension>
            <ns3:hr>102</ns3:hr>
            <ns3:cad>0</ns3:cad>
          </ns3:TrackPointExtension>
        </extensions>
      </trkpt>
      <trkpt lat="45.31289233826100826263427734375" lon="-70.89826083742082118988037109375">
        <ele>606.4000244140625</ele>
        <time>2026-08-21T16:08:13.000Z</time>
        <extensions>
          <ns3:TrackPointExtension>
            <ns3:hr>102</ns3:hr>
            <ns3:cad>0</ns3:cad>
          </ns3:TrackPointExtension>
        </extensions>
      </trkpt>
      <trkpt lat="45.31289233826100826263427734375" lon="-70.89826083742082118988037109375">
        <ele>606.4000244140625</ele>
        <time>2026-08-21T16:08:14.000Z</time>
        <extensions>
          <ns3:TrackPointExtension>
            <ns3:hr>103</ns3:hr>
            <ns3:cad>0</ns3:cad>
          </ns3:TrackPointExtension>
        </extensions>
      </trkpt>
      <trkpt lat="45.31289233826100826263427734375" lon="-70.89826083742082118988037109375">
        <ele>606.4000244140625</ele>
        <time>2026-08-21T16:08:15.000Z</time>
        <extensions>
          <ns3:TrackPointExtension>
            <ns3:hr>103</ns3:hr>
            <ns3:cad>0</ns3:cad>
          </ns3:TrackPointExtension>
        </extensions>
      </trkpt>
      <trkpt lat="45.31289233826100826263427734375" lon="-70.89826083742082118988037109375">
        <ele>606.4000244140625</ele>
        <time>2026-08-21T16:08:16.000Z</time>
        <extensions>
          <ns3:TrackPointExtension>
            <ns3:hr>103</ns3:hr>
            <ns3:cad>0</ns3:cad>
          </ns3:TrackPointExtension>
        </extensions>
      </trkpt>
      <trkpt lat="45.31289233826100826263427734375" lon="-70.89826083742082118988037109375">
        <ele>606.4000244140625</ele>
        <time>2026-08-21T16:08:17.000Z</time>
        <extensions>
          <ns3:TrackPointExtension>
            <ns3:hr>103</ns3:hr>
            <ns3:cad>0</ns3:cad>
          </ns3:TrackPointExtension>
        </extensions>
      </trkpt>
      <trkpt lat="45.31289233826100826263427734375" lon="-70.89826083742082118988037109375">
        <ele>606.4000244140625</ele>
        <time>2026-08-21T16:08:18.000Z</time>
        <extensions>
          <ns3:TrackPointExtension>
            <ns3:hr>103</ns3:hr>
            <ns3:cad>0</ns3:cad>
          </ns3:TrackPointExtension>
        </extensions>
      </trkpt>
      <trkpt lat="45.31289233826100826263427734375" lon="-70.89826083742082118988037109375">
        <ele>606.4000244140625</ele>
        <time>2026-08-21T16:08:19.000Z</time>
        <extensions>
          <ns3:TrackPointExtension>
            <ns3:hr>104</ns3:hr>
            <ns3:cad>0</ns3:cad>
          </ns3:TrackPointExtension>
        </extensions>
      </trkpt>
      <trkpt lat="45.31289233826100826263427734375" lon="-70.89826083742082118988037109375">
        <ele>606.4000244140625</ele>
        <time>2026-08-21T16:08:20.000Z</time>
        <extensions>
          <ns3:TrackPointExtension>
            <ns3:hr>105</ns3:hr>
            <ns3:cad>0</ns3:cad>
          </ns3:TrackPointExtension>
        </extensions>
      </trkpt>
      <trkpt lat="45.31289233826100826263427734375" lon="-70.89826083742082118988037109375">
        <ele>606.4000244140625</ele>
        <time>2026-08-21T16:08:21.000Z</time>
        <extensions>
          <ns3:TrackPointExtension>
            <ns3:hr>105</ns3:hr>
            <ns3:cad>0</ns3:cad>
          </ns3:TrackPointExtension>
        </extensions>
      </trkpt>
      <trkpt lat="45.31289233826100826263427734375" lon="-70.89826083742082118988037109375">
        <ele>606.4000244140625</ele>
        <time>2026-08-21T16:08:22.000Z</time>
        <extensions>
          <ns3:TrackPointExtension>
            <ns3:hr>105</ns3:hr>
            <ns3:cad>0</ns3:cad>
          </ns3:TrackPointExtension>
        </extensions>
      </trkpt>
      <trkpt lat="45.31289233826100826263427734375" lon="-70.89826083742082118988037109375">
        <ele>606.4000244140625</ele>
        <time>2026-08-21T16:08:23.000Z</time>
        <extensions>
          <ns3:TrackPointExtension>
            <ns3:hr>104</ns3:hr>
            <ns3:cad>0</ns3:cad>
          </ns3:TrackPointExtension>
        </extensions>
      </trkpt>
      <trkpt lat="45.31289233826100826263427734375" lon="-70.89826083742082118988037109375">
        <ele>606.4000244140625</ele>
        <time>2026-08-21T16:08:24.000Z</time>
        <extensions>
          <ns3:TrackPointExtension>
            <ns3:hr>104</ns3:hr>
            <ns3:cad>0</ns3:cad>
          </ns3:TrackPointExtension>
        </extensions>
      </trkpt>
      <trkpt lat="45.31289233826100826263427734375" lon="-70.89826083742082118988037109375">
        <ele>606.4000244140625</ele>
        <time>2026-08-21T16:08:25.000Z</time>
        <extensions>
          <ns3:TrackPointExtension>
            <ns3:hr>104</ns3:hr>
            <ns3:cad>0</ns3:cad>
          </ns3:TrackPointExtension>
        </extensions>
      </trkpt>
      <trkpt lat="45.31289233826100826263427734375" lon="-70.89826083742082118988037109375">
        <ele>606.4000244140625</ele>
        <time>2026-08-21T16:08:26.000Z</time>
        <extensions>
          <ns3:TrackPointExtension>
            <ns3:hr>105</ns3:hr>
            <ns3:cad>0</ns3:cad>
          </ns3:TrackPointExtension>
        </extensions>
      </trkpt>
      <trkpt lat="45.31289233826100826263427734375" lon="-70.89826083742082118988037109375">
        <ele>606.4000244140625</ele>
        <time>2026-08-21T16:08:27.000Z</time>
        <extensions>
          <ns3:TrackPointExtension>
            <ns3:hr>105</ns3:hr>
            <ns3:cad>0</ns3:cad>
          </ns3:TrackPointExtension>
        </extensions>
      </trkpt>
      <trkpt lat="45.31289233826100826263427734375" lon="-70.89826083742082118988037109375">
        <ele>606.4000244140625</ele>
        <time>2026-08-21T16:08:28.000Z</time>
        <extensions>
          <ns3:TrackPointExtension>
            <ns3:hr>105</ns3:hr>
            <ns3:cad>0</ns3:cad>
          </ns3:TrackPointExtension>
        </extensions>
      </trkpt>
      <trkpt lat="45.31289233826100826263427734375" lon="-70.89826083742082118988037109375">
        <ele>606.4000244140625</ele>
        <time>2026-08-21T16:08:29.000Z</time>
        <extensions>
          <ns3:TrackPointExtension>
            <ns3:hr>105</ns3:hr>
            <ns3:cad>0</ns3:cad>
          </ns3:TrackPointExtension>
        </extensions>
      </trkpt>
      <trkpt lat="45.31289233826100826263427734375" lon="-70.89826083742082118988037109375">
        <ele>606.4000244140625</ele>
        <time>2026-08-21T16:08:30.000Z</time>
        <extensions>
          <ns3:TrackPointExtension>
            <ns3:hr>105</ns3:hr>
            <ns3:cad>0</ns3:cad>
          </ns3:TrackPointExtension>
        </extensions>
      </trkpt>
      <trkpt lat="45.31289233826100826263427734375" lon="-70.89826083742082118988037109375">
        <ele>606.4000244140625</ele>
        <time>2026-08-21T16:08:31.000Z</time>
        <extensions>
          <ns3:TrackPointExtension>
            <ns3:hr>105</ns3:hr>
            <ns3:cad>0</ns3:cad>
          </ns3:TrackPointExtension>
        </extensions>
      </trkpt>
      <trkpt lat="45.31289233826100826263427734375" lon="-70.89826083742082118988037109375">
        <ele>606.4000244140625</ele>
        <time>2026-08-21T16:08:32.000Z</time>
        <extensions>
          <ns3:TrackPointExtension>
            <ns3:hr>105</ns3:hr>
            <ns3:cad>0</ns3:cad>
          </ns3:TrackPointExtension>
        </extensions>
      </trkpt>
      <trkpt lat="45.31289233826100826263427734375" lon="-70.89826083742082118988037109375">
        <ele>606.4000244140625</ele>
        <time>2026-08-21T16:08:33.000Z</time>
        <extensions>
          <ns3:TrackPointExtension>
            <ns3:hr>105</ns3:hr>
            <ns3:cad>0</ns3:cad>
          </ns3:TrackPointExtension>
        </extensions>
      </trkpt>
      <trkpt lat="45.31289233826100826263427734375" lon="-70.89826083742082118988037109375">
        <ele>606.4000244140625</ele>
        <time>2026-08-21T16:08:34.000Z</time>
        <extensions>
          <ns3:TrackPointExtension>
            <ns3:hr>104</ns3:hr>
            <ns3:cad>0</ns3:cad>
          </ns3:TrackPointExtension>
        </extensions>
      </trkpt>
      <trkpt lat="45.31289233826100826263427734375" lon="-70.89826083742082118988037109375">
        <ele>606.4000244140625</ele>
        <time>2026-08-21T16:08:35.000Z</time>
        <extensions>
          <ns3:TrackPointExtension>
            <ns3:hr>104</ns3:hr>
            <ns3:cad>0</ns3:cad>
          </ns3:TrackPointExtension>
        </extensions>
      </trkpt>
      <trkpt lat="45.31289233826100826263427734375" lon="-70.89826083742082118988037109375">
        <ele>606.4000244140625</ele>
        <time>2026-08-21T16:08:36.000Z</time>
        <extensions>
          <ns3:TrackPointExtension>
            <ns3:hr>104</ns3:hr>
            <ns3:cad>0</ns3:cad>
          </ns3:TrackPointExtension>
        </extensions>
      </trkpt>
      <trkpt lat="45.31289233826100826263427734375" lon="-70.89826083742082118988037109375">
        <ele>606.4000244140625</ele>
        <time>2026-08-21T16:08:37.000Z</time>
        <extensions>
          <ns3:TrackPointExtension>
            <ns3:hr>104</ns3:hr>
            <ns3:cad>0</ns3:cad>
          </ns3:TrackPointExtension>
        </extensions>
      </trkpt>
      <trkpt lat="45.31289233826100826263427734375" lon="-70.89826083742082118988037109375">
        <ele>606.4000244140625</ele>
        <time>2026-08-21T16:08:38.000Z</time>
        <extensions>
          <ns3:TrackPointExtension>
            <ns3:hr>104</ns3:hr>
            <ns3:cad>0</ns3:cad>
          </ns3:TrackPointExtension>
        </extensions>
      </trkpt>
      <trkpt lat="45.31289233826100826263427734375" lon="-70.89826083742082118988037109375">
        <ele>606.4000244140625</ele>
        <time>2026-08-21T16:08:39.000Z</time>
        <extensions>
          <ns3:TrackPointExtension>
            <ns3:hr>103</ns3:hr>
            <ns3:cad>0</ns3:cad>
          </ns3:TrackPointExtension>
        </extensions>
      </trkpt>
      <trkpt lat="45.31289233826100826263427734375" lon="-70.89826083742082118988037109375">
        <ele>606.4000244140625</ele>
        <time>2026-08-21T16:08:40.000Z</time>
        <extensions>
          <ns3:TrackPointExtension>
            <ns3:hr>102</ns3:hr>
            <ns3:cad>0</ns3:cad>
          </ns3:TrackPointExtension>
        </extensions>
      </trkpt>
      <trkpt lat="45.31289233826100826263427734375" lon="-70.89826083742082118988037109375">
        <ele>606.4000244140625</ele>
        <time>2026-08-21T16:08:41.000Z</time>
        <extensions>
          <ns3:TrackPointExtension>
            <ns3:hr>102</ns3:hr>
            <ns3:cad>0</ns3:cad>
          </ns3:TrackPointExtension>
        </extensions>
      </trkpt>
      <trkpt lat="45.31289233826100826263427734375" lon="-70.89826083742082118988037109375">
        <ele>606.4000244140625</ele>
        <time>2026-08-21T16:08:42.000Z</time>
        <extensions>
          <ns3:TrackPointExtension>
            <ns3:hr>101</ns3:hr>
            <ns3:cad>0</ns3:cad>
          </ns3:TrackPointExtension>
        </extensions>
      </trkpt>
      <trkpt lat="45.31289233826100826263427734375" lon="-70.89826083742082118988037109375">
        <ele>606.4000244140625</ele>
        <time>2026-08-21T16:08:43.000Z</time>
        <extensions>
          <ns3:TrackPointExtension>
            <ns3:hr>101</ns3:hr>
            <ns3:cad>0</ns3:cad>
          </ns3:TrackPointExtension>
        </extensions>
      </trkpt>
      <trkpt lat="45.31289233826100826263427734375" lon="-70.89826083742082118988037109375">
        <ele>606.20001220703125</ele>
        <time>2026-08-21T16:08:44.000Z</time>
        <extensions>
          <ns3:TrackPointExtension>
            <ns3:hr>102</ns3:hr>
            <ns3:cad>0</ns3:cad>
          </ns3:TrackPointExtension>
        </extensions>
      </trkpt>
      <trkpt lat="45.31289233826100826263427734375" lon="-70.89826083742082118988037109375">
        <ele>606.20001220703125</ele>
        <time>2026-08-21T16:08:45.000Z</time>
        <extensions>
          <ns3:TrackPointExtension>
            <ns3:hr>103</ns3:hr>
            <ns3:cad>0</ns3:cad>
          </ns3:TrackPointExtension>
        </extensions>
      </trkpt>
      <trkpt lat="45.31289233826100826263427734375" lon="-70.89826083742082118988037109375">
        <ele>606.4000244140625</ele>
        <time>2026-08-21T16:08:46.000Z</time>
        <extensions>
          <ns3:TrackPointExtension>
            <ns3:hr>103</ns3:hr>
            <ns3:cad>0</ns3:cad>
          </ns3:TrackPointExtension>
        </extensions>
      </trkpt>
      <trkpt lat="45.31289233826100826263427734375" lon="-70.89826083742082118988037109375">
        <ele>606.4000244140625</ele>
        <time>2026-08-21T16:08:47.000Z</time>
        <extensions>
          <ns3:TrackPointExtension>
            <ns3:hr>103</ns3:hr>
            <ns3:cad>0</ns3:cad>
          </ns3:TrackPointExtension>
        </extensions>
      </trkpt>
      <trkpt lat="45.31289233826100826263427734375" lon="-70.89826083742082118988037109375">
        <ele>606.4000244140625</ele>
        <time>2026-08-21T16:08:48.000Z</time>
        <extensions>
          <ns3:TrackPointExtension>
            <ns3:hr>103</ns3:hr>
            <ns3:cad>0</ns3:cad>
          </ns3:TrackPointExtension>
        </extensions>
      </trkpt>
      <trkpt lat="45.31289233826100826263427734375" lon="-70.89826083742082118988037109375">
        <ele>606.4000244140625</ele>
        <time>2026-08-21T16:08:49.000Z</time>
        <extensions>
          <ns3:TrackPointExtension>
            <ns3:hr>104</ns3:hr>
            <ns3:cad>0</ns3:cad>
          </ns3:TrackPointExtension>
        </extensions>
      </trkpt>
      <trkpt lat="45.31289233826100826263427734375" lon="-70.89826083742082118988037109375">
        <ele>606.4000244140625</ele>
        <time>2026-08-21T16:08:50.000Z</time>
        <extensions>
          <ns3:TrackPointExtension>
            <ns3:hr>103</ns3:hr>
            <ns3:cad>0</ns3:cad>
          </ns3:TrackPointExtension>
        </extensions>
      </trkpt>
      <trkpt lat="45.31289233826100826263427734375" lon="-70.89826083742082118988037109375">
        <ele>606.4000244140625</ele>
        <time>2026-08-21T16:08:51.000Z</time>
        <extensions>
          <ns3:TrackPointExtension>
            <ns3:hr>103</ns3:hr>
            <ns3:cad>0</ns3:cad>
          </ns3:TrackPointExtension>
        </extensions>
      </trkpt>
      <trkpt lat="45.31289233826100826263427734375" lon="-70.89826083742082118988037109375">
        <ele>606.4000244140625</ele>
        <time>2026-08-21T16:08:52.000Z</time>
        <extensions>
          <ns3:TrackPointExtension>
            <ns3:hr>102</ns3:hr>
            <ns3:cad>0</ns3:cad>
          </ns3:TrackPointExtension>
        </extensions>
      </trkpt>
      <trkpt lat="45.31289233826100826263427734375" lon="-70.89826083742082118988037109375">
        <ele>606.4000244140625</ele>
        <time>2026-08-21T16:08:53.000Z</time>
        <extensions>
          <ns3:TrackPointExtension>
            <ns3:hr>99</ns3:hr>
            <ns3:cad>0</ns3:cad>
          </ns3:TrackPointExtension>
        </extensions>
      </trkpt>
      <trkpt lat="45.31289233826100826263427734375" lon="-70.89826083742082118988037109375">
        <ele>606.4000244140625</ele>
        <time>2026-08-21T16:08:54.000Z</time>
        <extensions>
          <ns3:TrackPointExtension>
            <ns3:hr>97</ns3:hr>
            <ns3:cad>0</ns3:cad>
          </ns3:TrackPointExtension>
        </extensions>
      </trkpt>
      <trkpt lat="45.31289233826100826263427734375" lon="-70.89826083742082118988037109375">
        <ele>606.4000244140625</ele>
        <time>2026-08-21T16:08:55.000Z</time>
        <extensions>
          <ns3:TrackPointExtension>
            <ns3:hr>96</ns3:hr>
            <ns3:cad>0</ns3:cad>
          </ns3:TrackPointExtension>
        </extensions>
      </trkpt>
      <trkpt lat="45.31289233826100826263427734375" lon="-70.89826083742082118988037109375">
        <ele>606.4000244140625</ele>
        <time>2026-08-21T16:08:56.000Z</time>
        <extensions>
          <ns3:TrackPointExtension>
            <ns3:hr>95</ns3:hr>
            <ns3:cad>0</ns3:cad>
          </ns3:TrackPointExtension>
        </extensions>
      </trkpt>
      <trkpt lat="45.31289233826100826263427734375" lon="-70.89826083742082118988037109375">
        <ele>606.4000244140625</ele>
        <time>2026-08-21T16:08:57.000Z</time>
        <extensions>
          <ns3:TrackPointExtension>
            <ns3:hr>95</ns3:hr>
            <ns3:cad>0</ns3:cad>
          </ns3:TrackPointExtension>
        </extensions>
      </trkpt>
      <trkpt lat="45.31289233826100826263427734375" lon="-70.89826083742082118988037109375">
        <ele>606.4000244140625</ele>
        <time>2026-08-21T16:08:58.000Z</time>
        <extensions>
          <ns3:TrackPointExtension>
            <ns3:hr>95</ns3:hr>
            <ns3:cad>0</ns3:cad>
          </ns3:TrackPointExtension>
        </extensions>
      </trkpt>
      <trkpt lat="45.31289233826100826263427734375" lon="-70.89826083742082118988037109375">
        <ele>606.20001220703125</ele>
        <time>2026-08-21T16:08:59.000Z</time>
        <extensions>
          <ns3:TrackPointExtension>
            <ns3:hr>95</ns3:hr>
            <ns3:cad>0</ns3:cad>
          </ns3:TrackPointExtension>
        </extensions>
      </trkpt>
      <trkpt lat="45.31289233826100826263427734375" lon="-70.89826083742082118988037109375">
        <ele>606.20001220703125</ele>
        <time>2026-08-21T16:09:00.000Z</time>
        <extensions>
          <ns3:TrackPointExtension>
            <ns3:hr>95</ns3:hr>
            <ns3:cad>0</ns3:cad>
          </ns3:TrackPointExtension>
        </extensions>
      </trkpt>
      <trkpt lat="45.31289233826100826263427734375" lon="-70.89826083742082118988037109375">
        <ele>606.20001220703125</ele>
        <time>2026-08-21T16:09:01.000Z</time>
        <extensions>
          <ns3:TrackPointExtension>
            <ns3:hr>95</ns3:hr>
            <ns3:cad>0</ns3:cad>
          </ns3:TrackPointExtension>
        </extensions>
      </trkpt>
      <trkpt lat="45.31289233826100826263427734375" lon="-70.89826083742082118988037109375">
        <ele>606.20001220703125</ele>
        <time>2026-08-21T16:09:02.000Z</time>
        <extensions>
          <ns3:TrackPointExtension>
            <ns3:hr>95</ns3:hr>
            <ns3:cad>0</ns3:cad>
          </ns3:TrackPointExtension>
        </extensions>
      </trkpt>
      <trkpt lat="45.31289233826100826263427734375" lon="-70.89826083742082118988037109375">
        <ele>606.20001220703125</ele>
        <time>2026-08-21T16:09:03.000Z</time>
        <extensions>
          <ns3:TrackPointExtension>
            <ns3:hr>94</ns3:hr>
            <ns3:cad>0</ns3:cad>
          </ns3:TrackPointExtension>
        </extensions>
      </trkpt>
      <trkpt lat="45.31289233826100826263427734375" lon="-70.89826083742082118988037109375">
        <ele>606.20001220703125</ele>
        <time>2026-08-21T16:09:04.000Z</time>
        <extensions>
          <ns3:TrackPointExtension>
            <ns3:hr>95</ns3:hr>
            <ns3:cad>0</ns3:cad>
          </ns3:TrackPointExtension>
        </extensions>
      </trkpt>
      <trkpt lat="45.31289233826100826263427734375" lon="-70.89826083742082118988037109375">
        <ele>606.20001220703125</ele>
        <time>2026-08-21T16:09:05.000Z</time>
        <extensions>
          <ns3:TrackPointExtension>
            <ns3:hr>95</ns3:hr>
            <ns3:cad>0</ns3:cad>
          </ns3:TrackPointExtension>
        </extensions>
      </trkpt>
      <trkpt lat="45.31289233826100826263427734375" lon="-70.89826083742082118988037109375">
        <ele>606.20001220703125</ele>
        <time>2026-08-21T16:09:06.000Z</time>
        <extensions>
          <ns3:TrackPointExtension>
            <ns3:hr>95</ns3:hr>
            <ns3:cad>0</ns3:cad>
          </ns3:TrackPointExtension>
        </extensions>
      </trkpt>
      <trkpt lat="45.31289233826100826263427734375" lon="-70.89826083742082118988037109375">
        <ele>606.20001220703125</ele>
        <time>2026-08-21T16:09:07.000Z</time>
        <extensions>
          <ns3:TrackPointExtension>
            <ns3:hr>95</ns3:hr>
            <ns3:cad>0</ns3:cad>
          </ns3:TrackPointExtension>
        </extensions>
      </trkpt>
      <trkpt lat="45.31289233826100826263427734375" lon="-70.89826083742082118988037109375">
        <ele>606.20001220703125</ele>
        <time>2026-08-21T16:09:08.000Z</time>
        <extensions>
          <ns3:TrackPointExtension>
            <ns3:hr>96</ns3:hr>
            <ns3:cad>0</ns3:cad>
          </ns3:TrackPointExtension>
        </extensions>
      </trkpt>
      <trkpt lat="45.3128912486135959625244140625" lon="-70.89826972223818302154541015625">
        <ele>606.20001220703125</ele>
        <time>2026-08-21T16:09:09.000Z</time>
        <extensions>
          <ns3:TrackPointExtension>
            <ns3:hr>97</ns3:hr>
            <ns3:cad>0</ns3:cad>
          </ns3:TrackPointExtension>
        </extensions>
      </trkpt>
      <trkpt lat="45.31289434991776943206787109375" lon="-70.898272655904293060302734375">
        <ele>606.20001220703125</ele>
        <time>2026-08-21T16:09:10.000Z</time>
        <extensions>
          <ns3:TrackPointExtension>
            <ns3:hr>98</ns3:hr>
            <ns3:cad>0</ns3:cad>
          </ns3:TrackPointExtension>
        </extensions>
      </trkpt>
      <trkpt lat="45.3128942660987377166748046875" lon="-70.8982691355049610137939453125">
        <ele>606.4000244140625</ele>
        <time>2026-08-21T16:09:11.000Z</time>
        <extensions>
          <ns3:TrackPointExtension>
            <ns3:hr>98</ns3:hr>
            <ns3:cad>0</ns3:cad>
          </ns3:TrackPointExtension>
        </extensions>
      </trkpt>
      <trkpt lat="45.31288865022361278533935546875" lon="-70.898273997008800506591796875">
        <ele>606.4000244140625</ele>
        <time>2026-08-21T16:09:12.000Z</time>
        <extensions>
          <ns3:TrackPointExtension>
            <ns3:hr>99</ns3:hr>
            <ns3:cad>0</ns3:cad>
          </ns3:TrackPointExtension>
        </extensions>
      </trkpt>
      <trkpt lat="45.3128848783671855926513671875" lon="-70.89827257208526134490966796875">
        <ele>606.4000244140625</ele>
        <time>2026-08-21T16:09:13.000Z</time>
        <extensions>
          <ns3:TrackPointExtension>
            <ns3:hr>99</ns3:hr>
            <ns3:cad>0</ns3:cad>
          </ns3:TrackPointExtension>
        </extensions>
      </trkpt>
      <trkpt lat="45.31288345344364643096923828125" lon="-70.8982681296765804290771484375">
        <ele>606.4000244140625</ele>
        <time>2026-08-21T16:09:14.000Z</time>
        <extensions>
          <ns3:TrackPointExtension>
            <ns3:hr>99</ns3:hr>
            <ns3:cad>0</ns3:cad>
          </ns3:TrackPointExtension>
        </extensions>
      </trkpt>
      <trkpt lat="45.31288144178688526153564453125" lon="-70.89826502837240695953369140625">
        <ele>606.4000244140625</ele>
        <time>2026-08-21T16:09:15.000Z</time>
        <extensions>
          <ns3:TrackPointExtension>
            <ns3:hr>99</ns3:hr>
            <ns3:cad>0</ns3:cad>
          </ns3:TrackPointExtension>
        </extensions>
      </trkpt>
      <trkpt lat="45.31289233826100826263427734375" lon="-70.89826083742082118988037109375">
        <ele>606.4000244140625</ele>
        <time>2026-08-21T16:09:16.000Z</time>
        <extensions>
          <ns3:TrackPointExtension>
            <ns3:hr>98</ns3:hr>
            <ns3:cad>0</ns3:cad>
          </ns3:TrackPointExtension>
        </extensions>
      </trkpt>
      <trkpt lat="45.31289233826100826263427734375" lon="-70.89826083742082118988037109375">
        <ele>606.4000244140625</ele>
        <time>2026-08-21T16:09:17.000Z</time>
        <extensions>
          <ns3:TrackPointExtension>
            <ns3:hr>98</ns3:hr>
            <ns3:cad>0</ns3:cad>
          </ns3:TrackPointExtension>
        </extensions>
      </trkpt>
      <trkpt lat="45.31289233826100826263427734375" lon="-70.89826083742082118988037109375">
        <ele>606.4000244140625</ele>
        <time>2026-08-21T16:09:18.000Z</time>
        <extensions>
          <ns3:TrackPointExtension>
            <ns3:hr>98</ns3:hr>
            <ns3:cad>0</ns3:cad>
          </ns3:TrackPointExtension>
        </extensions>
      </trkpt>
      <trkpt lat="45.31289233826100826263427734375" lon="-70.89826083742082118988037109375">
        <ele>606.4000244140625</ele>
        <time>2026-08-21T16:09:19.000Z</time>
        <extensions>
          <ns3:TrackPointExtension>
            <ns3:hr>98</ns3:hr>
            <ns3:cad>0</ns3:cad>
          </ns3:TrackPointExtension>
        </extensions>
      </trkpt>
      <trkpt lat="45.31289233826100826263427734375" lon="-70.89826083742082118988037109375">
        <ele>606.4000244140625</ele>
        <time>2026-08-21T16:09:20.000Z</time>
        <extensions>
          <ns3:TrackPointExtension>
            <ns3:hr>98</ns3:hr>
            <ns3:cad>0</ns3:cad>
          </ns3:TrackPointExtension>
        </extensions>
      </trkpt>
      <trkpt lat="45.31289233826100826263427734375" lon="-70.89826083742082118988037109375">
        <ele>606.4000244140625</ele>
        <time>2026-08-21T16:09:21.000Z</time>
        <extensions>
          <ns3:TrackPointExtension>
            <ns3:hr>98</ns3:hr>
            <ns3:cad>0</ns3:cad>
          </ns3:TrackPointExtension>
        </extensions>
      </trkpt>
      <trkpt lat="45.31289233826100826263427734375" lon="-70.89826083742082118988037109375">
        <ele>606.4000244140625</ele>
        <time>2026-08-21T16:09:22.000Z</time>
        <extensions>
          <ns3:TrackPointExtension>
            <ns3:hr>99</ns3:hr>
            <ns3:cad>0</ns3:cad>
          </ns3:TrackPointExtension>
        </extensions>
      </trkpt>
      <trkpt lat="45.31289233826100826263427734375" lon="-70.89826083742082118988037109375">
        <ele>606.4000244140625</ele>
        <time>2026-08-21T16:09:23.000Z</time>
        <extensions>
          <ns3:TrackPointExtension>
            <ns3:hr>100</ns3:hr>
            <ns3:cad>0</ns3:cad>
          </ns3:TrackPointExtension>
        </extensions>
      </trkpt>
      <trkpt lat="45.31289233826100826263427734375" lon="-70.89826083742082118988037109375">
        <ele>606.20001220703125</ele>
        <time>2026-08-21T16:09:24.000Z</time>
        <extensions>
          <ns3:TrackPointExtension>
            <ns3:hr>100</ns3:hr>
            <ns3:cad>0</ns3:cad>
          </ns3:TrackPointExtension>
        </extensions>
      </trkpt>
      <trkpt lat="45.31289233826100826263427734375" lon="-70.89826083742082118988037109375">
        <ele>606.20001220703125</ele>
        <time>2026-08-21T16:09:25.000Z</time>
        <extensions>
          <ns3:TrackPointExtension>
            <ns3:hr>100</ns3:hr>
            <ns3:cad>0</ns3:cad>
          </ns3:TrackPointExtension>
        </extensions>
      </trkpt>
      <trkpt lat="45.31289233826100826263427734375" lon="-70.89826083742082118988037109375">
        <ele>606.20001220703125</ele>
        <time>2026-08-21T16:09:26.000Z</time>
        <extensions>
          <ns3:TrackPointExtension>
            <ns3:hr>100</ns3:hr>
            <ns3:cad>0</ns3:cad>
          </ns3:TrackPointExtension>
        </extensions>
      </trkpt>
      <trkpt lat="45.31289233826100826263427734375" lon="-70.89826083742082118988037109375">
        <ele>606.20001220703125</ele>
        <time>2026-08-21T16:09:27.000Z</time>
        <extensions>
          <ns3:TrackPointExtension>
            <ns3:hr>101</ns3:hr>
            <ns3:cad>0</ns3:cad>
          </ns3:TrackPointExtension>
        </extensions>
      </trkpt>
      <trkpt lat="45.31289233826100826263427734375" lon="-70.89826083742082118988037109375">
        <ele>606.20001220703125</ele>
        <time>2026-08-21T16:09:28.000Z</time>
        <extensions>
          <ns3:TrackPointExtension>
            <ns3:hr>100</ns3:hr>
            <ns3:cad>0</ns3:cad>
          </ns3:TrackPointExtension>
        </extensions>
      </trkpt>
      <trkpt lat="45.31289233826100826263427734375" lon="-70.89826083742082118988037109375">
        <ele>606.20001220703125</ele>
        <time>2026-08-21T16:09:29.000Z</time>
        <extensions>
          <ns3:TrackPointExtension>
            <ns3:hr>100</ns3:hr>
            <ns3:cad>0</ns3:cad>
          </ns3:TrackPointExtension>
        </extensions>
      </trkpt>
      <trkpt lat="45.31289233826100826263427734375" lon="-70.89826083742082118988037109375">
        <ele>606.20001220703125</ele>
        <time>2026-08-21T16:09:30.000Z</time>
        <extensions>
          <ns3:TrackPointExtension>
            <ns3:hr>100</ns3:hr>
            <ns3:cad>0</ns3:cad>
          </ns3:TrackPointExtension>
        </extensions>
      </trkpt>
      <trkpt lat="45.31289233826100826263427734375" lon="-70.89826083742082118988037109375">
        <ele>606.20001220703125</ele>
        <time>2026-08-21T16:09:31.000Z</time>
        <extensions>
          <ns3:TrackPointExtension>
            <ns3:hr>100</ns3:hr>
            <ns3:cad>0</ns3:cad>
          </ns3:TrackPointExtension>
        </extensions>
      </trkpt>
      <trkpt lat="45.31289233826100826263427734375" lon="-70.89826083742082118988037109375">
        <ele>606.20001220703125</ele>
        <time>2026-08-21T16:09:32.000Z</time>
        <extensions>
          <ns3:TrackPointExtension>
            <ns3:hr>100</ns3:hr>
            <ns3:cad>0</ns3:cad>
          </ns3:TrackPointExtension>
        </extensions>
      </trkpt>
      <trkpt lat="45.31289233826100826263427734375" lon="-70.89826083742082118988037109375">
        <ele>606.20001220703125</ele>
        <time>2026-08-21T16:09:33.000Z</time>
        <extensions>
          <ns3:TrackPointExtension>
            <ns3:hr>100</ns3:hr>
            <ns3:cad>0</ns3:cad>
          </ns3:TrackPointExtension>
        </extensions>
      </trkpt>
      <trkpt lat="45.31289233826100826263427734375" lon="-70.89826083742082118988037109375">
        <ele>606.20001220703125</ele>
        <time>2026-08-21T16:09:34.000Z</time>
        <extensions>
          <ns3:TrackPointExtension>
            <ns3:hr>98</ns3:hr>
            <ns3:cad>0</ns3:cad>
          </ns3:TrackPointExtension>
        </extensions>
      </trkpt>
      <trkpt lat="45.31289233826100826263427734375" lon="-70.89826083742082118988037109375">
        <ele>606.20001220703125</ele>
        <time>2026-08-21T16:09:35.000Z</time>
        <extensions>
          <ns3:TrackPointExtension>
            <ns3:hr>98</ns3:hr>
            <ns3:cad>0</ns3:cad>
          </ns3:TrackPointExtension>
        </extensions>
      </trkpt>
      <trkpt lat="45.31289233826100826263427734375" lon="-70.89826083742082118988037109375">
        <ele>606.20001220703125</ele>
        <time>2026-08-21T16:09:36.000Z</time>
        <extensions>
          <ns3:TrackPointExtension>
            <ns3:hr>97</ns3:hr>
            <ns3:cad>0</ns3:cad>
          </ns3:TrackPointExtension>
        </extensions>
      </trkpt>
      <trkpt lat="45.31289233826100826263427734375" lon="-70.89826083742082118988037109375">
        <ele>606.20001220703125</ele>
        <time>2026-08-21T16:09:37.000Z</time>
        <extensions>
          <ns3:TrackPointExtension>
            <ns3:hr>97</ns3:hr>
            <ns3:cad>0</ns3:cad>
          </ns3:TrackPointExtension>
        </extensions>
      </trkpt>
      <trkpt lat="45.31289233826100826263427734375" lon="-70.89826083742082118988037109375">
        <ele>606.20001220703125</ele>
        <time>2026-08-21T16:09:38.000Z</time>
        <extensions>
          <ns3:TrackPointExtension>
            <ns3:hr>97</ns3:hr>
            <ns3:cad>0</ns3:cad>
          </ns3:TrackPointExtension>
        </extensions>
      </trkpt>
      <trkpt lat="45.31289233826100826263427734375" lon="-70.89826083742082118988037109375">
        <ele>606.20001220703125</ele>
        <time>2026-08-21T16:09:39.000Z</time>
        <extensions>
          <ns3:TrackPointExtension>
            <ns3:hr>96</ns3:hr>
            <ns3:cad>0</ns3:cad>
          </ns3:TrackPointExtension>
        </extensions>
      </trkpt>
      <trkpt lat="45.31289233826100826263427734375" lon="-70.89826083742082118988037109375">
        <ele>606.4000244140625</ele>
        <time>2026-08-21T16:09:40.000Z</time>
        <extensions>
          <ns3:TrackPointExtension>
            <ns3:hr>95</ns3:hr>
            <ns3:cad>0</ns3:cad>
          </ns3:TrackPointExtension>
        </extensions>
      </trkpt>
      <trkpt lat="45.31289233826100826263427734375" lon="-70.89826083742082118988037109375">
        <ele>606.4000244140625</ele>
        <time>2026-08-21T16:09:41.000Z</time>
        <extensions>
          <ns3:TrackPointExtension>
            <ns3:hr>95</ns3:hr>
            <ns3:cad>0</ns3:cad>
          </ns3:TrackPointExtension>
        </extensions>
      </trkpt>
      <trkpt lat="45.31289233826100826263427734375" lon="-70.89826083742082118988037109375">
        <ele>606.4000244140625</ele>
        <time>2026-08-21T16:09:42.000Z</time>
        <extensions>
          <ns3:TrackPointExtension>
            <ns3:hr>94</ns3:hr>
            <ns3:cad>0</ns3:cad>
          </ns3:TrackPointExtension>
        </extensions>
      </trkpt>
      <trkpt lat="45.3128848783671855926513671875" lon="-70.89826469309628009796142578125">
        <ele>606.4000244140625</ele>
        <time>2026-08-21T16:09:43.000Z</time>
        <extensions>
          <ns3:TrackPointExtension>
            <ns3:hr>94</ns3:hr>
            <ns3:cad>0</ns3:cad>
          </ns3:TrackPointExtension>
        </extensions>
      </trkpt>
      <trkpt lat="45.3128825314342975616455078125" lon="-70.8982684649527072906494140625">
        <ele>606.4000244140625</ele>
        <time>2026-08-21T16:09:44.000Z</time>
        <extensions>
          <ns3:TrackPointExtension>
            <ns3:hr>94</ns3:hr>
            <ns3:cad>0</ns3:cad>
          </ns3:TrackPointExtension>
        </extensions>
      </trkpt>
      <trkpt lat="45.3128811903297901153564453125" lon="-70.89827324263751506805419921875">
        <ele>606.4000244140625</ele>
        <time>2026-08-21T16:09:45.000Z</time>
        <extensions>
          <ns3:TrackPointExtension>
            <ns3:hr>94</ns3:hr>
            <ns3:cad>0</ns3:cad>
          </ns3:TrackPointExtension>
        </extensions>
      </trkpt>
      <trkpt lat="45.31288060359656810760498046875" lon="-70.8982724882662296295166015625">
        <ele>606.4000244140625</ele>
        <time>2026-08-21T16:09:46.000Z</time>
        <extensions>
          <ns3:TrackPointExtension>
            <ns3:hr>94</ns3:hr>
            <ns3:cad>0</ns3:cad>
          </ns3:TrackPointExtension>
        </extensions>
      </trkpt>
      <trkpt lat="45.3128808550536632537841796875" lon="-70.89827106334269046783447265625">
        <ele>606.4000244140625</ele>
        <time>2026-08-21T16:09:47.000Z</time>
        <extensions>
          <ns3:TrackPointExtension>
            <ns3:hr>95</ns3:hr>
            <ns3:cad>0</ns3:cad>
          </ns3:TrackPointExtension>
        </extensions>
      </trkpt>
      <trkpt lat="45.31288093887269496917724609375" lon="-70.89827097952365875244140625">
        <ele>606.4000244140625</ele>
        <time>2026-08-21T16:09:48.000Z</time>
        <extensions>
          <ns3:TrackPointExtension>
            <ns3:hr>96</ns3:hr>
            <ns3:cad>0</ns3:cad>
          </ns3:TrackPointExtension>
        </extensions>
      </trkpt>
      <trkpt lat="45.31288093887269496917724609375" lon="-70.89827097952365875244140625">
        <ele>606.4000244140625</ele>
        <time>2026-08-21T16:09:49.000Z</time>
        <extensions>
          <ns3:TrackPointExtension>
            <ns3:hr>97</ns3:hr>
            <ns3:cad>0</ns3:cad>
          </ns3:TrackPointExtension>
        </extensions>
      </trkpt>
      <trkpt lat="45.31288093887269496917724609375" lon="-70.89827097952365875244140625">
        <ele>606.4000244140625</ele>
        <time>2026-08-21T16:09:50.000Z</time>
        <extensions>
          <ns3:TrackPointExtension>
            <ns3:hr>98</ns3:hr>
            <ns3:cad>0</ns3:cad>
          </ns3:TrackPointExtension>
        </extensions>
      </trkpt>
      <trkpt lat="45.31288127414882183074951171875" lon="-70.8982708118855953216552734375">
        <ele>606.4000244140625</ele>
        <time>2026-08-21T16:09:51.000Z</time>
        <extensions>
          <ns3:TrackPointExtension>
            <ns3:hr>98</ns3:hr>
            <ns3:cad>0</ns3:cad>
          </ns3:TrackPointExtension>
        </extensions>
      </trkpt>
      <trkpt lat="45.31288261525332927703857421875" lon="-70.89827106334269046783447265625">
        <ele>606.4000244140625</ele>
        <time>2026-08-21T16:09:52.000Z</time>
        <extensions>
          <ns3:TrackPointExtension>
            <ns3:hr>97</ns3:hr>
            <ns3:cad>0</ns3:cad>
          </ns3:TrackPointExtension>
        </extensions>
      </trkpt>
      <trkpt lat="45.3128832019865512847900390625" lon="-70.89827097952365875244140625">
        <ele>606.4000244140625</ele>
        <time>2026-08-21T16:09:53.000Z</time>
        <extensions>
          <ns3:TrackPointExtension>
            <ns3:hr>95</ns3:hr>
            <ns3:cad>0</ns3:cad>
          </ns3:TrackPointExtension>
        </extensions>
      </trkpt>
      <trkpt lat="45.31288093887269496917724609375" lon="-70.89827097952365875244140625">
        <ele>606.4000244140625</ele>
        <time>2026-08-21T16:09:54.000Z</time>
        <extensions>
          <ns3:TrackPointExtension>
            <ns3:hr>93</ns3:hr>
            <ns3:cad>0</ns3:cad>
          </ns3:TrackPointExtension>
        </extensions>
      </trkpt>
      <trkpt lat="45.31288093887269496917724609375" lon="-70.89827097952365875244140625">
        <ele>606.4000244140625</ele>
        <time>2026-08-21T16:09:55.000Z</time>
        <extensions>
          <ns3:TrackPointExtension>
            <ns3:hr>91</ns3:hr>
            <ns3:cad>0</ns3:cad>
          </ns3:TrackPointExtension>
        </extensions>
      </trkpt>
      <trkpt lat="45.31288093887269496917724609375" lon="-70.89827097952365875244140625">
        <ele>606.4000244140625</ele>
        <time>2026-08-21T16:09:56.000Z</time>
        <extensions>
          <ns3:TrackPointExtension>
            <ns3:hr>91</ns3:hr>
            <ns3:cad>0</ns3:cad>
          </ns3:TrackPointExtension>
        </extensions>
      </trkpt>
      <trkpt lat="45.31288345344364643096923828125" lon="-70.898268632590770721435546875">
        <ele>606.4000244140625</ele>
        <time>2026-08-21T16:09:57.000Z</time>
        <extensions>
          <ns3:TrackPointExtension>
            <ns3:hr>91</ns3:hr>
            <ns3:cad>0</ns3:cad>
          </ns3:TrackPointExtension>
        </extensions>
      </trkpt>
      <trkpt lat="45.31288160942494869232177734375" lon="-70.89827005751430988311767578125">
        <ele>606.4000244140625</ele>
        <time>2026-08-21T16:09:58.000Z</time>
        <extensions>
          <ns3:TrackPointExtension>
            <ns3:hr>91</ns3:hr>
            <ns3:cad>0</ns3:cad>
          </ns3:TrackPointExtension>
        </extensions>
      </trkpt>
      <trkpt lat="45.31288295052945613861083984375" lon="-70.89826704002916812896728515625">
        <ele>606.4000244140625</ele>
        <time>2026-08-21T16:09:59.000Z</time>
        <extensions>
          <ns3:TrackPointExtension>
            <ns3:hr>91</ns3:hr>
            <ns3:cad>0</ns3:cad>
          </ns3:TrackPointExtension>
        </extensions>
      </trkpt>
      <trkpt lat="45.312883369624614715576171875" lon="-70.89826720766723155975341796875">
        <ele>606.4000244140625</ele>
        <time>2026-08-21T16:10:00.000Z</time>
        <extensions>
          <ns3:TrackPointExtension>
            <ns3:hr>92</ns3:hr>
            <ns3:cad>0</ns3:cad>
          </ns3:TrackPointExtension>
        </extensions>
      </trkpt>
      <trkpt lat="45.31288093887269496917724609375" lon="-70.89827097952365875244140625">
        <ele>606.4000244140625</ele>
        <time>2026-08-21T16:10:01.000Z</time>
        <extensions>
          <ns3:TrackPointExtension>
            <ns3:hr>93</ns3:hr>
            <ns3:cad>0</ns3:cad>
          </ns3:TrackPointExtension>
        </extensions>
      </trkpt>
      <trkpt lat="45.31288093887269496917724609375" lon="-70.89827097952365875244140625">
        <ele>606.4000244140625</ele>
        <time>2026-08-21T16:10:02.000Z</time>
        <extensions>
          <ns3:TrackPointExtension>
            <ns3:hr>93</ns3:hr>
            <ns3:cad>0</ns3:cad>
          </ns3:TrackPointExtension>
        </extensions>
      </trkpt>
      <trkpt lat="45.31288093887269496917724609375" lon="-70.89827097952365875244140625">
        <ele>606.4000244140625</ele>
        <time>2026-08-21T16:10:03.000Z</time>
        <extensions>
          <ns3:TrackPointExtension>
            <ns3:hr>94</ns3:hr>
            <ns3:cad>0</ns3:cad>
          </ns3:TrackPointExtension>
        </extensions>
      </trkpt>
      <trkpt lat="45.31288093887269496917724609375" lon="-70.89827097952365875244140625">
        <ele>606.4000244140625</ele>
        <time>2026-08-21T16:10:04.000Z</time>
        <extensions>
          <ns3:TrackPointExtension>
            <ns3:hr>94</ns3:hr>
            <ns3:cad>0</ns3:cad>
          </ns3:TrackPointExtension>
        </extensions>
      </trkpt>
      <trkpt lat="45.31288093887269496917724609375" lon="-70.89827097952365875244140625">
        <ele>606.5999755859375</ele>
        <time>2026-08-21T16:10:05.000Z</time>
        <extensions>
          <ns3:TrackPointExtension>
            <ns3:hr>95</ns3:hr>
            <ns3:cad>0</ns3:cad>
          </ns3:TrackPointExtension>
        </extensions>
      </trkpt>
      <trkpt lat="45.31288093887269496917724609375" lon="-70.89827097952365875244140625">
        <ele>606.5999755859375</ele>
        <time>2026-08-21T16:10:06.000Z</time>
        <extensions>
          <ns3:TrackPointExtension>
            <ns3:hr>96</ns3:hr>
            <ns3:cad>0</ns3:cad>
          </ns3:TrackPointExtension>
        </extensions>
      </trkpt>
      <trkpt lat="45.31288093887269496917724609375" lon="-70.89827097952365875244140625">
        <ele>606.4000244140625</ele>
        <time>2026-08-21T16:10:07.000Z</time>
        <extensions>
          <ns3:TrackPointExtension>
            <ns3:hr>97</ns3:hr>
            <ns3:cad>0</ns3:cad>
          </ns3:TrackPointExtension>
        </extensions>
      </trkpt>
      <trkpt lat="45.31288093887269496917724609375" lon="-70.89827097952365875244140625">
        <ele>606.4000244140625</ele>
        <time>2026-08-21T16:10:08.000Z</time>
        <extensions>
          <ns3:TrackPointExtension>
            <ns3:hr>97</ns3:hr>
            <ns3:cad>0</ns3:cad>
          </ns3:TrackPointExtension>
        </extensions>
      </trkpt>
      <trkpt lat="45.31288093887269496917724609375" lon="-70.89827097952365875244140625">
        <ele>606.4000244140625</ele>
        <time>2026-08-21T16:10:09.000Z</time>
        <extensions>
          <ns3:TrackPointExtension>
            <ns3:hr>98</ns3:hr>
            <ns3:cad>0</ns3:cad>
          </ns3:TrackPointExtension>
        </extensions>
      </trkpt>
      <trkpt lat="45.31288093887269496917724609375" lon="-70.89827097952365875244140625">
        <ele>606.4000244140625</ele>
        <time>2026-08-21T16:10:10.000Z</time>
        <extensions>
          <ns3:TrackPointExtension>
            <ns3:hr>98</ns3:hr>
            <ns3:cad>0</ns3:cad>
          </ns3:TrackPointExtension>
        </extensions>
      </trkpt>
      <trkpt lat="45.31288093887269496917724609375" lon="-70.89827097952365875244140625">
        <ele>606.4000244140625</ele>
        <time>2026-08-21T16:10:11.000Z</time>
        <extensions>
          <ns3:TrackPointExtension>
            <ns3:hr>98</ns3:hr>
            <ns3:cad>0</ns3:cad>
          </ns3:TrackPointExtension>
        </extensions>
      </trkpt>
      <trkpt lat="45.31288093887269496917724609375" lon="-70.89827097952365875244140625">
        <ele>606.4000244140625</ele>
        <time>2026-08-21T16:10:12.000Z</time>
        <extensions>
          <ns3:TrackPointExtension>
            <ns3:hr>98</ns3:hr>
            <ns3:cad>0</ns3:cad>
          </ns3:TrackPointExtension>
        </extensions>
      </trkpt>
      <trkpt lat="45.31288093887269496917724609375" lon="-70.89827097952365875244140625">
        <ele>606.4000244140625</ele>
        <time>2026-08-21T16:10:13.000Z</time>
        <extensions>
          <ns3:TrackPointExtension>
            <ns3:hr>97</ns3:hr>
            <ns3:cad>0</ns3:cad>
          </ns3:TrackPointExtension>
        </extensions>
      </trkpt>
      <trkpt lat="45.31288093887269496917724609375" lon="-70.89827097952365875244140625">
        <ele>606.5999755859375</ele>
        <time>2026-08-21T16:10:14.000Z</time>
        <extensions>
          <ns3:TrackPointExtension>
            <ns3:hr>97</ns3:hr>
            <ns3:cad>0</ns3:cad>
          </ns3:TrackPointExtension>
        </extensions>
      </trkpt>
      <trkpt lat="45.31288093887269496917724609375" lon="-70.89827097952365875244140625">
        <ele>606.4000244140625</ele>
        <time>2026-08-21T16:10:15.000Z</time>
        <extensions>
          <ns3:TrackPointExtension>
            <ns3:hr>97</ns3:hr>
            <ns3:cad>0</ns3:cad>
          </ns3:TrackPointExtension>
        </extensions>
      </trkpt>
      <trkpt lat="45.31288093887269496917724609375" lon="-70.89827097952365875244140625">
        <ele>606.4000244140625</ele>
        <time>2026-08-21T16:10:16.000Z</time>
        <extensions>
          <ns3:TrackPointExtension>
            <ns3:hr>97</ns3:hr>
            <ns3:cad>0</ns3:cad>
          </ns3:TrackPointExtension>
        </extensions>
      </trkpt>
      <trkpt lat="45.31288093887269496917724609375" lon="-70.89827097952365875244140625">
        <ele>606.4000244140625</ele>
        <time>2026-08-21T16:10:17.000Z</time>
        <extensions>
          <ns3:TrackPointExtension>
            <ns3:hr>97</ns3:hr>
            <ns3:cad>0</ns3:cad>
          </ns3:TrackPointExtension>
        </extensions>
      </trkpt>
      <trkpt lat="45.31288093887269496917724609375" lon="-70.89827097952365875244140625">
        <ele>606.4000244140625</ele>
        <time>2026-08-21T16:10:18.000Z</time>
        <extensions>
          <ns3:TrackPointExtension>
            <ns3:hr>97</ns3:hr>
            <ns3:cad>0</ns3:cad>
          </ns3:TrackPointExtension>
        </extensions>
      </trkpt>
      <trkpt lat="45.31288093887269496917724609375" lon="-70.89827097952365875244140625">
        <ele>606.4000244140625</ele>
        <time>2026-08-21T16:10:19.000Z</time>
        <extensions>
          <ns3:TrackPointExtension>
            <ns3:hr>98</ns3:hr>
            <ns3:cad>0</ns3:cad>
          </ns3:TrackPointExtension>
        </extensions>
      </trkpt>
      <trkpt lat="45.31288093887269496917724609375" lon="-70.89827097952365875244140625">
        <ele>606.5999755859375</ele>
        <time>2026-08-21T16:10:20.000Z</time>
        <extensions>
          <ns3:TrackPointExtension>
            <ns3:hr>99</ns3:hr>
            <ns3:cad>0</ns3:cad>
          </ns3:TrackPointExtension>
        </extensions>
      </trkpt>
      <trkpt lat="45.31288093887269496917724609375" lon="-70.89827097952365875244140625">
        <ele>606.5999755859375</ele>
        <time>2026-08-21T16:10:21.000Z</time>
        <extensions>
          <ns3:TrackPointExtension>
            <ns3:hr>101</ns3:hr>
            <ns3:cad>0</ns3:cad>
          </ns3:TrackPointExtension>
        </extensions>
      </trkpt>
      <trkpt lat="45.31288093887269496917724609375" lon="-70.89827097952365875244140625">
        <ele>606.5999755859375</ele>
        <time>2026-08-21T16:10:22.000Z</time>
        <extensions>
          <ns3:TrackPointExtension>
            <ns3:hr>102</ns3:hr>
            <ns3:cad>0</ns3:cad>
          </ns3:TrackPointExtension>
        </extensions>
      </trkpt>
      <trkpt lat="45.31288093887269496917724609375" lon="-70.89827097952365875244140625">
        <ele>606.5999755859375</ele>
        <time>2026-08-21T16:10:23.000Z</time>
        <extensions>
          <ns3:TrackPointExtension>
            <ns3:hr>102</ns3:hr>
            <ns3:cad>0</ns3:cad>
          </ns3:TrackPointExtension>
        </extensions>
      </trkpt>
      <trkpt lat="45.31288093887269496917724609375" lon="-70.89827097952365875244140625">
        <ele>606.5999755859375</ele>
        <time>2026-08-21T16:10:24.000Z</time>
        <extensions>
          <ns3:TrackPointExtension>
            <ns3:hr>102</ns3:hr>
            <ns3:cad>0</ns3:cad>
          </ns3:TrackPointExtension>
        </extensions>
      </trkpt>
      <trkpt lat="45.31288093887269496917724609375" lon="-70.89827097952365875244140625">
        <ele>606.5999755859375</ele>
        <time>2026-08-21T16:10:25.000Z</time>
        <extensions>
          <ns3:TrackPointExtension>
            <ns3:hr>101</ns3:hr>
            <ns3:cad>0</ns3:cad>
          </ns3:TrackPointExtension>
        </extensions>
      </trkpt>
      <trkpt lat="45.31288093887269496917724609375" lon="-70.89827097952365875244140625">
        <ele>606.5999755859375</ele>
        <time>2026-08-21T16:10:26.000Z</time>
        <extensions>
          <ns3:TrackPointExtension>
            <ns3:hr>101</ns3:hr>
            <ns3:cad>0</ns3:cad>
          </ns3:TrackPointExtension>
        </extensions>
      </trkpt>
      <trkpt lat="45.31288093887269496917724609375" lon="-70.89827097952365875244140625">
        <ele>606.5999755859375</ele>
        <time>2026-08-21T16:10:27.000Z</time>
        <extensions>
          <ns3:TrackPointExtension>
            <ns3:hr>101</ns3:hr>
            <ns3:cad>0</ns3:cad>
          </ns3:TrackPointExtension>
        </extensions>
      </trkpt>
      <trkpt lat="45.31288093887269496917724609375" lon="-70.89827097952365875244140625">
        <ele>606.5999755859375</ele>
        <time>2026-08-21T16:10:28.000Z</time>
        <extensions>
          <ns3:TrackPointExtension>
            <ns3:hr>101</ns3:hr>
            <ns3:cad>0</ns3:cad>
          </ns3:TrackPointExtension>
        </extensions>
      </trkpt>
      <trkpt lat="45.31288093887269496917724609375" lon="-70.89827097952365875244140625">
        <ele>606.5999755859375</ele>
        <time>2026-08-21T16:10:29.000Z</time>
        <extensions>
          <ns3:TrackPointExtension>
            <ns3:hr>101</ns3:hr>
            <ns3:cad>0</ns3:cad>
          </ns3:TrackPointExtension>
        </extensions>
      </trkpt>
      <trkpt lat="45.31288093887269496917724609375" lon="-70.89827097952365875244140625">
        <ele>606.5999755859375</ele>
        <time>2026-08-21T16:10:30.000Z</time>
        <extensions>
          <ns3:TrackPointExtension>
            <ns3:hr>102</ns3:hr>
            <ns3:cad>0</ns3:cad>
          </ns3:TrackPointExtension>
        </extensions>
      </trkpt>
      <trkpt lat="45.31288093887269496917724609375" lon="-70.89827097952365875244140625">
        <ele>606.5999755859375</ele>
        <time>2026-08-21T16:10:31.000Z</time>
        <extensions>
          <ns3:TrackPointExtension>
            <ns3:hr>102</ns3:hr>
            <ns3:cad>0</ns3:cad>
          </ns3:TrackPointExtension>
        </extensions>
      </trkpt>
      <trkpt lat="45.31288093887269496917724609375" lon="-70.89827097952365875244140625">
        <ele>606.5999755859375</ele>
        <time>2026-08-21T16:10:32.000Z</time>
        <extensions>
          <ns3:TrackPointExtension>
            <ns3:hr>103</ns3:hr>
            <ns3:cad>0</ns3:cad>
          </ns3:TrackPointExtension>
        </extensions>
      </trkpt>
      <trkpt lat="45.31288093887269496917724609375" lon="-70.89827097952365875244140625">
        <ele>606.5999755859375</ele>
        <time>2026-08-21T16:10:33.000Z</time>
        <extensions>
          <ns3:TrackPointExtension>
            <ns3:hr>104</ns3:hr>
            <ns3:cad>0</ns3:cad>
          </ns3:TrackPointExtension>
        </extensions>
      </trkpt>
      <trkpt lat="45.31288093887269496917724609375" lon="-70.89827097952365875244140625">
        <ele>606.5999755859375</ele>
        <time>2026-08-21T16:10:34.000Z</time>
        <extensions>
          <ns3:TrackPointExtension>
            <ns3:hr>104</ns3:hr>
            <ns3:cad>0</ns3:cad>
          </ns3:TrackPointExtension>
        </extensions>
      </trkpt>
      <trkpt lat="45.31288093887269496917724609375" lon="-70.89827097952365875244140625">
        <ele>606.5999755859375</ele>
        <time>2026-08-21T16:10:35.000Z</time>
        <extensions>
          <ns3:TrackPointExtension>
            <ns3:hr>103</ns3:hr>
            <ns3:cad>0</ns3:cad>
          </ns3:TrackPointExtension>
        </extensions>
      </trkpt>
      <trkpt lat="45.31288093887269496917724609375" lon="-70.89827097952365875244140625">
        <ele>606.5999755859375</ele>
        <time>2026-08-21T16:10:36.000Z</time>
        <extensions>
          <ns3:TrackPointExtension>
            <ns3:hr>102</ns3:hr>
            <ns3:cad>0</ns3:cad>
          </ns3:TrackPointExtension>
        </extensions>
      </trkpt>
      <trkpt lat="45.31288093887269496917724609375" lon="-70.89827097952365875244140625">
        <ele>606.5999755859375</ele>
        <time>2026-08-21T16:10:37.000Z</time>
        <extensions>
          <ns3:TrackPointExtension>
            <ns3:hr>102</ns3:hr>
            <ns3:cad>0</ns3:cad>
          </ns3:TrackPointExtension>
        </extensions>
      </trkpt>
      <trkpt lat="45.31288093887269496917724609375" lon="-70.89827097952365875244140625">
        <ele>606.5999755859375</ele>
        <time>2026-08-21T16:10:38.000Z</time>
        <extensions>
          <ns3:TrackPointExtension>
            <ns3:hr>102</ns3:hr>
            <ns3:cad>0</ns3:cad>
          </ns3:TrackPointExtension>
        </extensions>
      </trkpt>
      <trkpt lat="45.31288093887269496917724609375" lon="-70.89827097952365875244140625">
        <ele>606.5999755859375</ele>
        <time>2026-08-21T16:10:39.000Z</time>
        <extensions>
          <ns3:TrackPointExtension>
            <ns3:hr>102</ns3:hr>
            <ns3:cad>0</ns3:cad>
          </ns3:TrackPointExtension>
        </extensions>
      </trkpt>
      <trkpt lat="45.31288093887269496917724609375" lon="-70.89827097952365875244140625">
        <ele>606.5999755859375</ele>
        <time>2026-08-21T16:10:40.000Z</time>
        <extensions>
          <ns3:TrackPointExtension>
            <ns3:hr>103</ns3:hr>
            <ns3:cad>0</ns3:cad>
          </ns3:TrackPointExtension>
        </extensions>
      </trkpt>
      <trkpt lat="45.31288093887269496917724609375" lon="-70.89827097952365875244140625">
        <ele>606.5999755859375</ele>
        <time>2026-08-21T16:10:41.000Z</time>
        <extensions>
          <ns3:TrackPointExtension>
            <ns3:hr>104</ns3:hr>
            <ns3:cad>0</ns3:cad>
          </ns3:TrackPointExtension>
        </extensions>
      </trkpt>
      <trkpt lat="45.31288093887269496917724609375" lon="-70.89827097952365875244140625">
        <ele>606.5999755859375</ele>
        <time>2026-08-21T16:10:42.000Z</time>
        <extensions>
          <ns3:TrackPointExtension>
            <ns3:hr>105</ns3:hr>
            <ns3:cad>0</ns3:cad>
          </ns3:TrackPointExtension>
        </extensions>
      </trkpt>
      <trkpt lat="45.31288093887269496917724609375" lon="-70.89827097952365875244140625">
        <ele>606.5999755859375</ele>
        <time>2026-08-21T16:10:43.000Z</time>
        <extensions>
          <ns3:TrackPointExtension>
            <ns3:hr>106</ns3:hr>
            <ns3:cad>0</ns3:cad>
          </ns3:TrackPointExtension>
        </extensions>
      </trkpt>
      <trkpt lat="45.31288093887269496917724609375" lon="-70.89827097952365875244140625">
        <ele>606.5999755859375</ele>
        <time>2026-08-21T16:10:44.000Z</time>
        <extensions>
          <ns3:TrackPointExtension>
            <ns3:hr>105</ns3:hr>
            <ns3:cad>0</ns3:cad>
          </ns3:TrackPointExtension>
        </extensions>
      </trkpt>
      <trkpt lat="45.31288093887269496917724609375" lon="-70.89827097952365875244140625">
        <ele>606.5999755859375</ele>
        <time>2026-08-21T16:10:45.000Z</time>
        <extensions>
          <ns3:TrackPointExtension>
            <ns3:hr>105</ns3:hr>
            <ns3:cad>0</ns3:cad>
          </ns3:TrackPointExtension>
        </extensions>
      </trkpt>
      <trkpt lat="45.31288093887269496917724609375" lon="-70.89827097952365875244140625">
        <ele>606.5999755859375</ele>
        <time>2026-08-21T16:10:46.000Z</time>
        <extensions>
          <ns3:TrackPointExtension>
            <ns3:hr>107</ns3:hr>
            <ns3:cad>0</ns3:cad>
          </ns3:TrackPointExtension>
        </extensions>
      </trkpt>
      <trkpt lat="45.31288093887269496917724609375" lon="-70.89827097952365875244140625">
        <ele>606.5999755859375</ele>
        <time>2026-08-21T16:10:47.000Z</time>
        <extensions>
          <ns3:TrackPointExtension>
            <ns3:hr>107</ns3:hr>
            <ns3:cad>0</ns3:cad>
          </ns3:TrackPointExtension>
        </extensions>
      </trkpt>
      <trkpt lat="45.31288093887269496917724609375" lon="-70.89827097952365875244140625">
        <ele>606.79998779296875</ele>
        <time>2026-08-21T16:10:48.000Z</time>
        <extensions>
          <ns3:TrackPointExtension>
            <ns3:hr>107</ns3:hr>
            <ns3:cad>0</ns3:cad>
          </ns3:TrackPointExtension>
        </extensions>
      </trkpt>
      <trkpt lat="45.31288093887269496917724609375" lon="-70.89827097952365875244140625">
        <ele>606.5999755859375</ele>
        <time>2026-08-21T16:10:49.000Z</time>
        <extensions>
          <ns3:TrackPointExtension>
            <ns3:hr>108</ns3:hr>
            <ns3:cad>0</ns3:cad>
          </ns3:TrackPointExtension>
        </extensions>
      </trkpt>
      <trkpt lat="45.31288093887269496917724609375" lon="-70.89827097952365875244140625">
        <ele>606.5999755859375</ele>
        <time>2026-08-21T16:10:50.000Z</time>
        <extensions>
          <ns3:TrackPointExtension>
            <ns3:hr>107</ns3:hr>
            <ns3:cad>0</ns3:cad>
          </ns3:TrackPointExtension>
        </extensions>
      </trkpt>
      <trkpt lat="45.31288093887269496917724609375" lon="-70.89827097952365875244140625">
        <ele>606.5999755859375</ele>
        <time>2026-08-21T16:10:51.000Z</time>
        <extensions>
          <ns3:TrackPointExtension>
            <ns3:hr>107</ns3:hr>
            <ns3:cad>0</ns3:cad>
          </ns3:TrackPointExtension>
        </extensions>
      </trkpt>
      <trkpt lat="45.31288093887269496917724609375" lon="-70.89827097952365875244140625">
        <ele>606.5999755859375</ele>
        <time>2026-08-21T16:10:52.000Z</time>
        <extensions>
          <ns3:TrackPointExtension>
            <ns3:hr>107</ns3:hr>
            <ns3:cad>0</ns3:cad>
          </ns3:TrackPointExtension>
        </extensions>
      </trkpt>
      <trkpt lat="45.31288093887269496917724609375" lon="-70.89827097952365875244140625">
        <ele>606.5999755859375</ele>
        <time>2026-08-21T16:10:53.000Z</time>
        <extensions>
          <ns3:TrackPointExtension>
            <ns3:hr>106</ns3:hr>
            <ns3:cad>0</ns3:cad>
          </ns3:TrackPointExtension>
        </extensions>
      </trkpt>
      <trkpt lat="45.31288093887269496917724609375" lon="-70.89827097952365875244140625">
        <ele>606.5999755859375</ele>
        <time>2026-08-21T16:10:54.000Z</time>
        <extensions>
          <ns3:TrackPointExtension>
            <ns3:hr>106</ns3:hr>
            <ns3:cad>0</ns3:cad>
          </ns3:TrackPointExtension>
        </extensions>
      </trkpt>
      <trkpt lat="45.31288093887269496917724609375" lon="-70.89827097952365875244140625">
        <ele>606.5999755859375</ele>
        <time>2026-08-21T16:10:55.000Z</time>
        <extensions>
          <ns3:TrackPointExtension>
            <ns3:hr>106</ns3:hr>
            <ns3:cad>0</ns3:cad>
          </ns3:TrackPointExtension>
        </extensions>
      </trkpt>
      <trkpt lat="45.31288093887269496917724609375" lon="-70.89827097952365875244140625">
        <ele>606.5999755859375</ele>
        <time>2026-08-21T16:10:56.000Z</time>
        <extensions>
          <ns3:TrackPointExtension>
            <ns3:hr>106</ns3:hr>
            <ns3:cad>0</ns3:cad>
          </ns3:TrackPointExtension>
        </extensions>
      </trkpt>
      <trkpt lat="45.31288093887269496917724609375" lon="-70.89827097952365875244140625">
        <ele>606.5999755859375</ele>
        <time>2026-08-21T16:10:57.000Z</time>
        <extensions>
          <ns3:TrackPointExtension>
            <ns3:hr>105</ns3:hr>
            <ns3:cad>0</ns3:cad>
          </ns3:TrackPointExtension>
        </extensions>
      </trkpt>
      <trkpt lat="45.31288093887269496917724609375" lon="-70.89827097952365875244140625">
        <ele>606.5999755859375</ele>
        <time>2026-08-21T16:10:58.000Z</time>
        <extensions>
          <ns3:TrackPointExtension>
            <ns3:hr>105</ns3:hr>
            <ns3:cad>0</ns3:cad>
          </ns3:TrackPointExtension>
        </extensions>
      </trkpt>
      <trkpt lat="45.31288093887269496917724609375" lon="-70.89827097952365875244140625">
        <ele>606.5999755859375</ele>
        <time>2026-08-21T16:10:59.000Z</time>
        <extensions>
          <ns3:TrackPointExtension>
            <ns3:hr>105</ns3:hr>
            <ns3:cad>0</ns3:cad>
          </ns3:TrackPointExtension>
        </extensions>
      </trkpt>
      <trkpt lat="45.31288093887269496917724609375" lon="-70.89827097952365875244140625">
        <ele>606.5999755859375</ele>
        <time>2026-08-21T16:11:00.000Z</time>
        <extensions>
          <ns3:TrackPointExtension>
            <ns3:hr>105</ns3:hr>
            <ns3:cad>0</ns3:cad>
          </ns3:TrackPointExtension>
        </extensions>
      </trkpt>
      <trkpt lat="45.31288093887269496917724609375" lon="-70.89827097952365875244140625">
        <ele>606.5999755859375</ele>
        <time>2026-08-21T16:11:01.000Z</time>
        <extensions>
          <ns3:TrackPointExtension>
            <ns3:hr>105</ns3:hr>
            <ns3:cad>0</ns3:cad>
          </ns3:TrackPointExtension>
        </extensions>
      </trkpt>
      <trkpt lat="45.31288093887269496917724609375" lon="-70.89827097952365875244140625">
        <ele>606.5999755859375</ele>
        <time>2026-08-21T16:11:02.000Z</time>
        <extensions>
          <ns3:TrackPointExtension>
            <ns3:hr>104</ns3:hr>
            <ns3:cad>0</ns3:cad>
          </ns3:TrackPointExtension>
        </extensions>
      </trkpt>
      <trkpt lat="45.3128868900239467620849609375" lon="-70.898264609277248382568359375">
        <ele>606.5999755859375</ele>
        <time>2026-08-21T16:11:03.000Z</time>
        <extensions>
          <ns3:TrackPointExtension>
            <ns3:hr>104</ns3:hr>
            <ns3:cad>0</ns3:cad>
          </ns3:TrackPointExtension>
        </extensions>
      </trkpt>
      <trkpt lat="45.312888734042644500732421875" lon="-70.89826385490596294403076171875">
        <ele>606.79998779296875</ele>
        <time>2026-08-21T16:11:04.000Z</time>
        <extensions>
          <ns3:TrackPointExtension>
            <ns3:hr>103</ns3:hr>
            <ns3:cad>0</ns3:cad>
          </ns3:TrackPointExtension>
        </extensions>
      </trkpt>
      <trkpt lat="45.312889404594898223876953125" lon="-70.8982636034488677978515625">
        <ele>606.79998779296875</ele>
        <time>2026-08-21T16:11:05.000Z</time>
        <extensions>
          <ns3:TrackPointExtension>
            <ns3:hr>103</ns3:hr>
            <ns3:cad>0</ns3:cad>
          </ns3:TrackPointExtension>
        </extensions>
      </trkpt>
      <trkpt lat="45.31289041042327880859375" lon="-70.8982620947062969207763671875">
        <ele>606.79998779296875</ele>
        <time>2026-08-21T16:11:06.000Z</time>
        <extensions>
          <ns3:TrackPointExtension>
            <ns3:hr>102</ns3:hr>
            <ns3:cad>0</ns3:cad>
          </ns3:TrackPointExtension>
        </extensions>
      </trkpt>
      <trkpt lat="45.31288093887269496917724609375" lon="-70.89827097952365875244140625">
        <ele>606.79998779296875</ele>
        <time>2026-08-21T16:11:07.000Z</time>
        <extensions>
          <ns3:TrackPointExtension>
            <ns3:hr>102</ns3:hr>
            <ns3:cad>0</ns3:cad>
          </ns3:TrackPointExtension>
        </extensions>
      </trkpt>
      <trkpt lat="45.31288093887269496917724609375" lon="-70.89827097952365875244140625">
        <ele>606.79998779296875</ele>
        <time>2026-08-21T16:11:08.000Z</time>
        <extensions>
          <ns3:TrackPointExtension>
            <ns3:hr>102</ns3:hr>
            <ns3:cad>0</ns3:cad>
          </ns3:TrackPointExtension>
        </extensions>
      </trkpt>
      <trkpt lat="45.31288093887269496917724609375" lon="-70.89827097952365875244140625">
        <ele>606.79998779296875</ele>
        <time>2026-08-21T16:11:09.000Z</time>
        <extensions>
          <ns3:TrackPointExtension>
            <ns3:hr>101</ns3:hr>
            <ns3:cad>0</ns3:cad>
          </ns3:TrackPointExtension>
        </extensions>
      </trkpt>
      <trkpt lat="45.31288093887269496917724609375" lon="-70.89827097952365875244140625">
        <ele>606.79998779296875</ele>
        <time>2026-08-21T16:11:10.000Z</time>
        <extensions>
          <ns3:TrackPointExtension>
            <ns3:hr>101</ns3:hr>
            <ns3:cad>0</ns3:cad>
          </ns3:TrackPointExtension>
        </extensions>
      </trkpt>
      <trkpt lat="45.31288093887269496917724609375" lon="-70.89827097952365875244140625">
        <ele>606.79998779296875</ele>
        <time>2026-08-21T16:11:11.000Z</time>
        <extensions>
          <ns3:TrackPointExtension>
            <ns3:hr>99</ns3:hr>
            <ns3:cad>0</ns3:cad>
          </ns3:TrackPointExtension>
        </extensions>
      </trkpt>
      <trkpt lat="45.31288093887269496917724609375" lon="-70.89827097952365875244140625">
        <ele>606.79998779296875</ele>
        <time>2026-08-21T16:11:12.000Z</time>
        <extensions>
          <ns3:TrackPointExtension>
            <ns3:hr>98</ns3:hr>
            <ns3:cad>0</ns3:cad>
          </ns3:TrackPointExtension>
        </extensions>
      </trkpt>
      <trkpt lat="45.31288093887269496917724609375" lon="-70.89827097952365875244140625">
        <ele>606.79998779296875</ele>
        <time>2026-08-21T16:11:13.000Z</time>
        <extensions>
          <ns3:TrackPointExtension>
            <ns3:hr>98</ns3:hr>
            <ns3:cad>0</ns3:cad>
          </ns3:TrackPointExtension>
        </extensions>
      </trkpt>
      <trkpt lat="45.31288093887269496917724609375" lon="-70.89827097952365875244140625">
        <ele>606.79998779296875</ele>
        <time>2026-08-21T16:11:14.000Z</time>
        <extensions>
          <ns3:TrackPointExtension>
            <ns3:hr>97</ns3:hr>
            <ns3:cad>0</ns3:cad>
          </ns3:TrackPointExtension>
        </extensions>
      </trkpt>
      <trkpt lat="45.31288093887269496917724609375" lon="-70.89827097952365875244140625">
        <ele>606.79998779296875</ele>
        <time>2026-08-21T16:11:15.000Z</time>
        <extensions>
          <ns3:TrackPointExtension>
            <ns3:hr>97</ns3:hr>
            <ns3:cad>0</ns3:cad>
          </ns3:TrackPointExtension>
        </extensions>
      </trkpt>
      <trkpt lat="45.31288093887269496917724609375" lon="-70.89827097952365875244140625">
        <ele>606.79998779296875</ele>
        <time>2026-08-21T16:11:16.000Z</time>
        <extensions>
          <ns3:TrackPointExtension>
            <ns3:hr>96</ns3:hr>
            <ns3:cad>0</ns3:cad>
          </ns3:TrackPointExtension>
        </extensions>
      </trkpt>
      <trkpt lat="45.31288093887269496917724609375" lon="-70.89827097952365875244140625">
        <ele>606.5999755859375</ele>
        <time>2026-08-21T16:11:17.000Z</time>
        <extensions>
          <ns3:TrackPointExtension>
            <ns3:hr>93</ns3:hr>
            <ns3:cad>0</ns3:cad>
          </ns3:TrackPointExtension>
        </extensions>
      </trkpt>
      <trkpt lat="45.31288093887269496917724609375" lon="-70.89827097952365875244140625">
        <ele>606.5999755859375</ele>
        <time>2026-08-21T16:11:18.000Z</time>
        <extensions>
          <ns3:TrackPointExtension>
            <ns3:hr>92</ns3:hr>
            <ns3:cad>0</ns3:cad>
          </ns3:TrackPointExtension>
        </extensions>
      </trkpt>
      <trkpt lat="45.31288093887269496917724609375" lon="-70.89827097952365875244140625">
        <ele>606.5999755859375</ele>
        <time>2026-08-21T16:11:19.000Z</time>
        <extensions>
          <ns3:TrackPointExtension>
            <ns3:hr>92</ns3:hr>
            <ns3:cad>0</ns3:cad>
          </ns3:TrackPointExtension>
        </extensions>
      </trkpt>
      <trkpt lat="45.31288093887269496917724609375" lon="-70.89827097952365875244140625">
        <ele>606.5999755859375</ele>
        <time>2026-08-21T16:11:20.000Z</time>
        <extensions>
          <ns3:TrackPointExtension>
            <ns3:hr>92</ns3:hr>
            <ns3:cad>0</ns3:cad>
          </ns3:TrackPointExtension>
        </extensions>
      </trkpt>
      <trkpt lat="45.31288781203329563140869140625" lon="-70.898263938724994659423828125">
        <ele>606.79998779296875</ele>
        <time>2026-08-21T16:11:21.000Z</time>
        <extensions>
          <ns3:TrackPointExtension>
            <ns3:hr>92</ns3:hr>
            <ns3:cad>0</ns3:cad>
          </ns3:TrackPointExtension>
        </extensions>
      </trkpt>
      <trkpt lat="45.31288345344364643096923828125" lon="-70.898262597620487213134765625">
        <ele>606.79998779296875</ele>
        <time>2026-08-21T16:11:22.000Z</time>
        <extensions>
          <ns3:TrackPointExtension>
            <ns3:hr>91</ns3:hr>
            <ns3:cad>0</ns3:cad>
          </ns3:TrackPointExtension>
        </extensions>
      </trkpt>
      <trkpt lat="45.31287976540625095367431640625" lon="-70.89825916104018688201904296875">
        <ele>606.79998779296875</ele>
        <time>2026-08-21T16:11:23.000Z</time>
        <extensions>
          <ns3:TrackPointExtension>
            <ns3:hr>92</ns3:hr>
            <ns3:cad>0</ns3:cad>
          </ns3:TrackPointExtension>
        </extensions>
      </trkpt>
      <trkpt lat="45.31288093887269496917724609375" lon="-70.89827097952365875244140625">
        <ele>606.79998779296875</ele>
        <time>2026-08-21T16:11:24.000Z</time>
        <extensions>
          <ns3:TrackPointExtension>
            <ns3:hr>92</ns3:hr>
            <ns3:cad>0</ns3:cad>
          </ns3:TrackPointExtension>
        </extensions>
      </trkpt>
      <trkpt lat="45.31288093887269496917724609375" lon="-70.89827097952365875244140625">
        <ele>606.79998779296875</ele>
        <time>2026-08-21T16:11:25.000Z</time>
        <extensions>
          <ns3:TrackPointExtension>
            <ns3:hr>93</ns3:hr>
            <ns3:cad>0</ns3:cad>
          </ns3:TrackPointExtension>
        </extensions>
      </trkpt>
      <trkpt lat="45.31288093887269496917724609375" lon="-70.89827097952365875244140625">
        <ele>606.79998779296875</ele>
        <time>2026-08-21T16:11:26.000Z</time>
        <extensions>
          <ns3:TrackPointExtension>
            <ns3:hr>93</ns3:hr>
            <ns3:cad>0</ns3:cad>
          </ns3:TrackPointExtension>
        </extensions>
      </trkpt>
      <trkpt lat="45.31288093887269496917724609375" lon="-70.89827097952365875244140625">
        <ele>606.79998779296875</ele>
        <time>2026-08-21T16:11:27.000Z</time>
        <extensions>
          <ns3:TrackPointExtension>
            <ns3:hr>93</ns3:hr>
            <ns3:cad>0</ns3:cad>
          </ns3:TrackPointExtension>
        </extensions>
      </trkpt>
      <trkpt lat="45.31288093887269496917724609375" lon="-70.89827097952365875244140625">
        <ele>606.79998779296875</ele>
        <time>2026-08-21T16:11:28.000Z</time>
        <extensions>
          <ns3:TrackPointExtension>
            <ns3:hr>93</ns3:hr>
            <ns3:cad>0</ns3:cad>
          </ns3:TrackPointExtension>
        </extensions>
      </trkpt>
      <trkpt lat="45.31288093887269496917724609375" lon="-70.89827097952365875244140625">
        <ele>606.79998779296875</ele>
        <time>2026-08-21T16:11:29.000Z</time>
        <extensions>
          <ns3:TrackPointExtension>
            <ns3:hr>92</ns3:hr>
            <ns3:cad>0</ns3:cad>
          </ns3:TrackPointExtension>
        </extensions>
      </trkpt>
      <trkpt lat="45.31288093887269496917724609375" lon="-70.89827097952365875244140625">
        <ele>606.79998779296875</ele>
        <time>2026-08-21T16:11:30.000Z</time>
        <extensions>
          <ns3:TrackPointExtension>
            <ns3:hr>91</ns3:hr>
            <ns3:cad>0</ns3:cad>
          </ns3:TrackPointExtension>
        </extensions>
      </trkpt>
      <trkpt lat="45.31288093887269496917724609375" lon="-70.89827097952365875244140625">
        <ele>606.79998779296875</ele>
        <time>2026-08-21T16:11:31.000Z</time>
        <extensions>
          <ns3:TrackPointExtension>
            <ns3:hr>90</ns3:hr>
            <ns3:cad>0</ns3:cad>
          </ns3:TrackPointExtension>
        </extensions>
      </trkpt>
      <trkpt lat="45.31288093887269496917724609375" lon="-70.89827097952365875244140625">
        <ele>606.79998779296875</ele>
        <time>2026-08-21T16:11:32.000Z</time>
        <extensions>
          <ns3:TrackPointExtension>
            <ns3:hr>91</ns3:hr>
            <ns3:cad>0</ns3:cad>
          </ns3:TrackPointExtension>
        </extensions>
      </trkpt>
      <trkpt lat="45.31288093887269496917724609375" lon="-70.89827097952365875244140625">
        <ele>606.79998779296875</ele>
        <time>2026-08-21T16:11:33.000Z</time>
        <extensions>
          <ns3:TrackPointExtension>
            <ns3:hr>91</ns3:hr>
            <ns3:cad>0</ns3:cad>
          </ns3:TrackPointExtension>
        </extensions>
      </trkpt>
      <trkpt lat="45.31288093887269496917724609375" lon="-70.89827097952365875244140625">
        <ele>606.79998779296875</ele>
        <time>2026-08-21T16:11:34.000Z</time>
        <extensions>
          <ns3:TrackPointExtension>
            <ns3:hr>92</ns3:hr>
            <ns3:cad>0</ns3:cad>
          </ns3:TrackPointExtension>
        </extensions>
      </trkpt>
      <trkpt lat="45.31288093887269496917724609375" lon="-70.89827097952365875244140625">
        <ele>606.79998779296875</ele>
        <time>2026-08-21T16:11:35.000Z</time>
        <extensions>
          <ns3:TrackPointExtension>
            <ns3:hr>93</ns3:hr>
            <ns3:cad>0</ns3:cad>
          </ns3:TrackPointExtension>
        </extensions>
      </trkpt>
      <trkpt lat="45.31288093887269496917724609375" lon="-70.89827097952365875244140625">
        <ele>606.79998779296875</ele>
        <time>2026-08-21T16:11:36.000Z</time>
        <extensions>
          <ns3:TrackPointExtension>
            <ns3:hr>94</ns3:hr>
            <ns3:cad>0</ns3:cad>
          </ns3:TrackPointExtension>
        </extensions>
      </trkpt>
      <trkpt lat="45.31288093887269496917724609375" lon="-70.89827097952365875244140625">
        <ele>606.5999755859375</ele>
        <time>2026-08-21T16:11:37.000Z</time>
        <extensions>
          <ns3:TrackPointExtension>
            <ns3:hr>95</ns3:hr>
            <ns3:cad>0</ns3:cad>
          </ns3:TrackPointExtension>
        </extensions>
      </trkpt>
      <trkpt lat="45.31288093887269496917724609375" lon="-70.89827097952365875244140625">
        <ele>606.5999755859375</ele>
        <time>2026-08-21T16:11:38.000Z</time>
        <extensions>
          <ns3:TrackPointExtension>
            <ns3:hr>96</ns3:hr>
            <ns3:cad>0</ns3:cad>
          </ns3:TrackPointExtension>
        </extensions>
      </trkpt>
      <trkpt lat="45.31288093887269496917724609375" lon="-70.89827097952365875244140625">
        <ele>606.5999755859375</ele>
        <time>2026-08-21T16:11:39.000Z</time>
        <extensions>
          <ns3:TrackPointExtension>
            <ns3:hr>96</ns3:hr>
            <ns3:cad>0</ns3:cad>
          </ns3:TrackPointExtension>
        </extensions>
      </trkpt>
      <trkpt lat="45.31288093887269496917724609375" lon="-70.89827097952365875244140625">
        <ele>606.5999755859375</ele>
        <time>2026-08-21T16:11:40.000Z</time>
        <extensions>
          <ns3:TrackPointExtension>
            <ns3:hr>97</ns3:hr>
            <ns3:cad>0</ns3:cad>
          </ns3:TrackPointExtension>
        </extensions>
      </trkpt>
      <trkpt lat="45.31288093887269496917724609375" lon="-70.89827097952365875244140625">
        <ele>606.5999755859375</ele>
        <time>2026-08-21T16:11:41.000Z</time>
        <extensions>
          <ns3:TrackPointExtension>
            <ns3:hr>97</ns3:hr>
            <ns3:cad>0</ns3:cad>
          </ns3:TrackPointExtension>
        </extensions>
      </trkpt>
      <trkpt lat="45.31288093887269496917724609375" lon="-70.89827097952365875244140625">
        <ele>606.5999755859375</ele>
        <time>2026-08-21T16:11:42.000Z</time>
        <extensions>
          <ns3:TrackPointExtension>
            <ns3:hr>98</ns3:hr>
            <ns3:cad>0</ns3:cad>
          </ns3:TrackPointExtension>
        </extensions>
      </trkpt>
      <trkpt lat="45.31288093887269496917724609375" lon="-70.89827097952365875244140625">
        <ele>606.5999755859375</ele>
        <time>2026-08-21T16:11:43.000Z</time>
        <extensions>
          <ns3:TrackPointExtension>
            <ns3:hr>98</ns3:hr>
            <ns3:cad>0</ns3:cad>
          </ns3:TrackPointExtension>
        </extensions>
      </trkpt>
      <trkpt lat="45.31288093887269496917724609375" lon="-70.89827097952365875244140625">
        <ele>606.5999755859375</ele>
        <time>2026-08-21T16:11:44.000Z</time>
        <extensions>
          <ns3:TrackPointExtension>
            <ns3:hr>97</ns3:hr>
            <ns3:cad>0</ns3:cad>
          </ns3:TrackPointExtension>
        </extensions>
      </trkpt>
      <trkpt lat="45.31288093887269496917724609375" lon="-70.89827097952365875244140625">
        <ele>606.79998779296875</ele>
        <time>2026-08-21T16:11:45.000Z</time>
        <extensions>
          <ns3:TrackPointExtension>
            <ns3:hr>96</ns3:hr>
            <ns3:cad>0</ns3:cad>
          </ns3:TrackPointExtension>
        </extensions>
      </trkpt>
      <trkpt lat="45.31288093887269496917724609375" lon="-70.89827097952365875244140625">
        <ele>606.79998779296875</ele>
        <time>2026-08-21T16:11:46.000Z</time>
        <extensions>
          <ns3:TrackPointExtension>
            <ns3:hr>96</ns3:hr>
            <ns3:cad>0</ns3:cad>
          </ns3:TrackPointExtension>
        </extensions>
      </trkpt>
      <trkpt lat="45.31288093887269496917724609375" lon="-70.89827097952365875244140625">
        <ele>606.79998779296875</ele>
        <time>2026-08-21T16:11:47.000Z</time>
        <extensions>
          <ns3:TrackPointExtension>
            <ns3:hr>96</ns3:hr>
            <ns3:cad>0</ns3:cad>
          </ns3:TrackPointExtension>
        </extensions>
      </trkpt>
      <trkpt lat="45.31288093887269496917724609375" lon="-70.89827097952365875244140625">
        <ele>606.79998779296875</ele>
        <time>2026-08-21T16:11:48.000Z</time>
        <extensions>
          <ns3:TrackPointExtension>
            <ns3:hr>96</ns3:hr>
            <ns3:cad>0</ns3:cad>
          </ns3:TrackPointExtension>
        </extensions>
      </trkpt>
      <trkpt lat="45.31288093887269496917724609375" lon="-70.89827097952365875244140625">
        <ele>606.79998779296875</ele>
        <time>2026-08-21T16:11:49.000Z</time>
        <extensions>
          <ns3:TrackPointExtension>
            <ns3:hr>96</ns3:hr>
            <ns3:cad>0</ns3:cad>
          </ns3:TrackPointExtension>
        </extensions>
      </trkpt>
      <trkpt lat="45.31288093887269496917724609375" lon="-70.89827097952365875244140625">
        <ele>606.79998779296875</ele>
        <time>2026-08-21T16:11:50.000Z</time>
        <extensions>
          <ns3:TrackPointExtension>
            <ns3:hr>96</ns3:hr>
            <ns3:cad>0</ns3:cad>
          </ns3:TrackPointExtension>
        </extensions>
      </trkpt>
      <trkpt lat="45.31288093887269496917724609375" lon="-70.89827097952365875244140625">
        <ele>606.5999755859375</ele>
        <time>2026-08-21T16:11:51.000Z</time>
        <extensions>
          <ns3:TrackPointExtension>
            <ns3:hr>96</ns3:hr>
            <ns3:cad>0</ns3:cad>
          </ns3:TrackPointExtension>
        </extensions>
      </trkpt>
      <trkpt lat="45.31288093887269496917724609375" lon="-70.89827097952365875244140625">
        <ele>606.5999755859375</ele>
        <time>2026-08-21T16:11:52.000Z</time>
        <extensions>
          <ns3:TrackPointExtension>
            <ns3:hr>96</ns3:hr>
            <ns3:cad>0</ns3:cad>
          </ns3:TrackPointExtension>
        </extensions>
      </trkpt>
      <trkpt lat="45.31288093887269496917724609375" lon="-70.89827097952365875244140625">
        <ele>606.5999755859375</ele>
        <time>2026-08-21T16:11:53.000Z</time>
        <extensions>
          <ns3:TrackPointExtension>
            <ns3:hr>95</ns3:hr>
            <ns3:cad>0</ns3:cad>
          </ns3:TrackPointExtension>
        </extensions>
      </trkpt>
      <trkpt lat="45.31288093887269496917724609375" lon="-70.89827097952365875244140625">
        <ele>606.5999755859375</ele>
        <time>2026-08-21T16:11:54.000Z</time>
        <extensions>
          <ns3:TrackPointExtension>
            <ns3:hr>95</ns3:hr>
            <ns3:cad>0</ns3:cad>
          </ns3:TrackPointExtension>
        </extensions>
      </trkpt>
      <trkpt lat="45.31288093887269496917724609375" lon="-70.89827097952365875244140625">
        <ele>606.5999755859375</ele>
        <time>2026-08-21T16:11:55.000Z</time>
        <extensions>
          <ns3:TrackPointExtension>
            <ns3:hr>94</ns3:hr>
            <ns3:cad>0</ns3:cad>
          </ns3:TrackPointExtension>
        </extensions>
      </trkpt>
      <trkpt lat="45.31288093887269496917724609375" lon="-70.89827097952365875244140625">
        <ele>606.5999755859375</ele>
        <time>2026-08-21T16:11:56.000Z</time>
        <extensions>
          <ns3:TrackPointExtension>
            <ns3:hr>94</ns3:hr>
            <ns3:cad>0</ns3:cad>
          </ns3:TrackPointExtension>
        </extensions>
      </trkpt>
      <trkpt lat="45.31288093887269496917724609375" lon="-70.89827097952365875244140625">
        <ele>606.5999755859375</ele>
        <time>2026-08-21T16:11:57.000Z</time>
        <extensions>
          <ns3:TrackPointExtension>
            <ns3:hr>94</ns3:hr>
            <ns3:cad>0</ns3:cad>
          </ns3:TrackPointExtension>
        </extensions>
      </trkpt>
      <trkpt lat="45.31288093887269496917724609375" lon="-70.89827097952365875244140625">
        <ele>606.5999755859375</ele>
        <time>2026-08-21T16:11:58.000Z</time>
        <extensions>
          <ns3:TrackPointExtension>
            <ns3:hr>94</ns3:hr>
            <ns3:cad>0</ns3:cad>
          </ns3:TrackPointExtension>
        </extensions>
      </trkpt>
      <trkpt lat="45.31288093887269496917724609375" lon="-70.89827097952365875244140625">
        <ele>606.5999755859375</ele>
        <time>2026-08-21T16:11:59.000Z</time>
        <extensions>
          <ns3:TrackPointExtension>
            <ns3:hr>94</ns3:hr>
            <ns3:cad>0</ns3:cad>
          </ns3:TrackPointExtension>
        </extensions>
      </trkpt>
      <trkpt lat="45.31288093887269496917724609375" lon="-70.89827097952365875244140625">
        <ele>606.5999755859375</ele>
        <time>2026-08-21T16:12:00.000Z</time>
        <extensions>
          <ns3:TrackPointExtension>
            <ns3:hr>94</ns3:hr>
            <ns3:cad>0</ns3:cad>
          </ns3:TrackPointExtension>
        </extensions>
      </trkpt>
      <trkpt lat="45.31288093887269496917724609375" lon="-70.89827097952365875244140625">
        <ele>606.5999755859375</ele>
        <time>2026-08-21T16:12:01.000Z</time>
        <extensions>
          <ns3:TrackPointExtension>
            <ns3:hr>94</ns3:hr>
            <ns3:cad>0</ns3:cad>
          </ns3:TrackPointExtension>
        </extensions>
      </trkpt>
      <trkpt lat="45.31288093887269496917724609375" lon="-70.89827097952365875244140625">
        <ele>606.5999755859375</ele>
        <time>2026-08-21T16:12:02.000Z</time>
        <extensions>
          <ns3:TrackPointExtension>
            <ns3:hr>94</ns3:hr>
            <ns3:cad>0</ns3:cad>
          </ns3:TrackPointExtension>
        </extensions>
      </trkpt>
      <trkpt lat="45.31288093887269496917724609375" lon="-70.89827097952365875244140625">
        <ele>606.5999755859375</ele>
        <time>2026-08-21T16:12:03.000Z</time>
        <extensions>
          <ns3:TrackPointExtension>
            <ns3:hr>93</ns3:hr>
            <ns3:cad>0</ns3:cad>
          </ns3:TrackPointExtension>
        </extensions>
      </trkpt>
      <trkpt lat="45.31288093887269496917724609375" lon="-70.89827097952365875244140625">
        <ele>606.5999755859375</ele>
        <time>2026-08-21T16:12:04.000Z</time>
        <extensions>
          <ns3:TrackPointExtension>
            <ns3:hr>92</ns3:hr>
            <ns3:cad>0</ns3:cad>
          </ns3:TrackPointExtension>
        </extensions>
      </trkpt>
      <trkpt lat="45.31288093887269496917724609375" lon="-70.89827097952365875244140625">
        <ele>606.5999755859375</ele>
        <time>2026-08-21T16:12:05.000Z</time>
        <extensions>
          <ns3:TrackPointExtension>
            <ns3:hr>92</ns3:hr>
            <ns3:cad>0</ns3:cad>
          </ns3:TrackPointExtension>
        </extensions>
      </trkpt>
      <trkpt lat="45.31288093887269496917724609375" lon="-70.89827097952365875244140625">
        <ele>606.5999755859375</ele>
        <time>2026-08-21T16:12:06.000Z</time>
        <extensions>
          <ns3:TrackPointExtension>
            <ns3:hr>90</ns3:hr>
            <ns3:cad>0</ns3:cad>
          </ns3:TrackPointExtension>
        </extensions>
      </trkpt>
      <trkpt lat="45.31288093887269496917724609375" lon="-70.89827097952365875244140625">
        <ele>606.5999755859375</ele>
        <time>2026-08-21T16:12:07.000Z</time>
        <extensions>
          <ns3:TrackPointExtension>
            <ns3:hr>88</ns3:hr>
            <ns3:cad>0</ns3:cad>
          </ns3:TrackPointExtension>
        </extensions>
      </trkpt>
      <trkpt lat="45.31288093887269496917724609375" lon="-70.89827097952365875244140625">
        <ele>606.5999755859375</ele>
        <time>2026-08-21T16:12:08.000Z</time>
        <extensions>
          <ns3:TrackPointExtension>
            <ns3:hr>86</ns3:hr>
            <ns3:cad>0</ns3:cad>
          </ns3:TrackPointExtension>
        </extensions>
      </trkpt>
      <trkpt lat="45.31288093887269496917724609375" lon="-70.89827097952365875244140625">
        <ele>606.5999755859375</ele>
        <time>2026-08-21T16:12:09.000Z</time>
        <extensions>
          <ns3:TrackPointExtension>
            <ns3:hr>85</ns3:hr>
            <ns3:cad>0</ns3:cad>
          </ns3:TrackPointExtension>
        </extensions>
      </trkpt>
      <trkpt lat="45.31288093887269496917724609375" lon="-70.89827097952365875244140625">
        <ele>606.5999755859375</ele>
        <time>2026-08-21T16:12:10.000Z</time>
        <extensions>
          <ns3:TrackPointExtension>
            <ns3:hr>84</ns3:hr>
            <ns3:cad>0</ns3:cad>
          </ns3:TrackPointExtension>
        </extensions>
      </trkpt>
      <trkpt lat="45.31288093887269496917724609375" lon="-70.89827097952365875244140625">
        <ele>606.5999755859375</ele>
        <time>2026-08-21T16:12:11.000Z</time>
        <extensions>
          <ns3:TrackPointExtension>
            <ns3:hr>84</ns3:hr>
            <ns3:cad>0</ns3:cad>
          </ns3:TrackPointExtension>
        </extensions>
      </trkpt>
      <trkpt lat="45.31288093887269496917724609375" lon="-70.89827097952365875244140625">
        <ele>606.79998779296875</ele>
        <time>2026-08-21T16:12:12.000Z</time>
        <extensions>
          <ns3:TrackPointExtension>
            <ns3:hr>84</ns3:hr>
            <ns3:cad>0</ns3:cad>
          </ns3:TrackPointExtension>
        </extensions>
      </trkpt>
      <trkpt lat="45.31288093887269496917724609375" lon="-70.89827097952365875244140625">
        <ele>606.79998779296875</ele>
        <time>2026-08-21T16:12:13.000Z</time>
        <extensions>
          <ns3:TrackPointExtension>
            <ns3:hr>85</ns3:hr>
            <ns3:cad>0</ns3:cad>
          </ns3:TrackPointExtension>
        </extensions>
      </trkpt>
      <trkpt lat="45.31288093887269496917724609375" lon="-70.89827097952365875244140625">
        <ele>606.79998779296875</ele>
        <time>2026-08-21T16:12:14.000Z</time>
        <extensions>
          <ns3:TrackPointExtension>
            <ns3:hr>85</ns3:hr>
            <ns3:cad>0</ns3:cad>
          </ns3:TrackPointExtension>
        </extensions>
      </trkpt>
      <trkpt lat="45.31288093887269496917724609375" lon="-70.89827097952365875244140625">
        <ele>606.79998779296875</ele>
        <time>2026-08-21T16:12:15.000Z</time>
        <extensions>
          <ns3:TrackPointExtension>
            <ns3:hr>86</ns3:hr>
            <ns3:cad>0</ns3:cad>
          </ns3:TrackPointExtension>
        </extensions>
      </trkpt>
      <trkpt lat="45.31288093887269496917724609375" lon="-70.89827097952365875244140625">
        <ele>606.79998779296875</ele>
        <time>2026-08-21T16:12:16.000Z</time>
        <extensions>
          <ns3:TrackPointExtension>
            <ns3:hr>87</ns3:hr>
            <ns3:cad>0</ns3:cad>
          </ns3:TrackPointExtension>
        </extensions>
      </trkpt>
      <trkpt lat="45.31288093887269496917724609375" lon="-70.89827097952365875244140625">
        <ele>606.79998779296875</ele>
        <time>2026-08-21T16:12:17.000Z</time>
        <extensions>
          <ns3:TrackPointExtension>
            <ns3:hr>88</ns3:hr>
            <ns3:cad>0</ns3:cad>
          </ns3:TrackPointExtension>
        </extensions>
      </trkpt>
      <trkpt lat="45.31288093887269496917724609375" lon="-70.89827097952365875244140625">
        <ele>606.79998779296875</ele>
        <time>2026-08-21T16:12:18.000Z</time>
        <extensions>
          <ns3:TrackPointExtension>
            <ns3:hr>88</ns3:hr>
            <ns3:cad>0</ns3:cad>
          </ns3:TrackPointExtension>
        </extensions>
      </trkpt>
      <trkpt lat="45.31288093887269496917724609375" lon="-70.89827097952365875244140625">
        <ele>606.79998779296875</ele>
        <time>2026-08-21T16:12:19.000Z</time>
        <extensions>
          <ns3:TrackPointExtension>
            <ns3:hr>88</ns3:hr>
            <ns3:cad>0</ns3:cad>
          </ns3:TrackPointExtension>
        </extensions>
      </trkpt>
      <trkpt lat="45.31288093887269496917724609375" lon="-70.89827097952365875244140625">
        <ele>606.79998779296875</ele>
        <time>2026-08-21T16:12:20.000Z</time>
        <extensions>
          <ns3:TrackPointExtension>
            <ns3:hr>88</ns3:hr>
            <ns3:cad>0</ns3:cad>
          </ns3:TrackPointExtension>
        </extensions>
      </trkpt>
      <trkpt lat="45.31288093887269496917724609375" lon="-70.89827097952365875244140625">
        <ele>606.79998779296875</ele>
        <time>2026-08-21T16:12:21.000Z</time>
        <extensions>
          <ns3:TrackPointExtension>
            <ns3:hr>88</ns3:hr>
            <ns3:cad>0</ns3:cad>
          </ns3:TrackPointExtension>
        </extensions>
      </trkpt>
      <trkpt lat="45.31288093887269496917724609375" lon="-70.89827097952365875244140625">
        <ele>606.79998779296875</ele>
        <time>2026-08-21T16:12:22.000Z</time>
        <extensions>
          <ns3:TrackPointExtension>
            <ns3:hr>88</ns3:hr>
            <ns3:cad>0</ns3:cad>
          </ns3:TrackPointExtension>
        </extensions>
      </trkpt>
      <trkpt lat="45.31288093887269496917724609375" lon="-70.89827097952365875244140625">
        <ele>606.79998779296875</ele>
        <time>2026-08-21T16:12:23.000Z</time>
        <extensions>
          <ns3:TrackPointExtension>
            <ns3:hr>88</ns3:hr>
            <ns3:cad>0</ns3:cad>
          </ns3:TrackPointExtension>
        </extensions>
      </trkpt>
      <trkpt lat="45.31288093887269496917724609375" lon="-70.89827097952365875244140625">
        <ele>606.79998779296875</ele>
        <time>2026-08-21T16:12:24.000Z</time>
        <extensions>
          <ns3:TrackPointExtension>
            <ns3:hr>88</ns3:hr>
            <ns3:cad>0</ns3:cad>
          </ns3:TrackPointExtension>
        </extensions>
      </trkpt>
      <trkpt lat="45.31288093887269496917724609375" lon="-70.89827097952365875244140625">
        <ele>606.79998779296875</ele>
        <time>2026-08-21T16:12:25.000Z</time>
        <extensions>
          <ns3:TrackPointExtension>
            <ns3:hr>88</ns3:hr>
            <ns3:cad>0</ns3:cad>
          </ns3:TrackPointExtension>
        </extensions>
      </trkpt>
      <trkpt lat="45.31288093887269496917724609375" lon="-70.89827097952365875244140625">
        <ele>606.79998779296875</ele>
        <time>2026-08-21T16:12:26.000Z</time>
        <extensions>
          <ns3:TrackPointExtension>
            <ns3:hr>89</ns3:hr>
            <ns3:cad>0</ns3:cad>
          </ns3:TrackPointExtension>
        </extensions>
      </trkpt>
      <trkpt lat="45.31288093887269496917724609375" lon="-70.89827097952365875244140625">
        <ele>606.79998779296875</ele>
        <time>2026-08-21T16:12:27.000Z</time>
        <extensions>
          <ns3:TrackPointExtension>
            <ns3:hr>89</ns3:hr>
            <ns3:cad>0</ns3:cad>
          </ns3:TrackPointExtension>
        </extensions>
      </trkpt>
      <trkpt lat="45.31288093887269496917724609375" lon="-70.89827097952365875244140625">
        <ele>606.79998779296875</ele>
        <time>2026-08-21T16:12:28.000Z</time>
        <extensions>
          <ns3:TrackPointExtension>
            <ns3:hr>89</ns3:hr>
            <ns3:cad>0</ns3:cad>
          </ns3:TrackPointExtension>
        </extensions>
      </trkpt>
      <trkpt lat="45.31288093887269496917724609375" lon="-70.89827097952365875244140625">
        <ele>606.79998779296875</ele>
        <time>2026-08-21T16:12:29.000Z</time>
        <extensions>
          <ns3:TrackPointExtension>
            <ns3:hr>90</ns3:hr>
            <ns3:cad>0</ns3:cad>
          </ns3:TrackPointExtension>
        </extensions>
      </trkpt>
      <trkpt lat="45.31288093887269496917724609375" lon="-70.89827097952365875244140625">
        <ele>606.79998779296875</ele>
        <time>2026-08-21T16:12:30.000Z</time>
        <extensions>
          <ns3:TrackPointExtension>
            <ns3:hr>90</ns3:hr>
            <ns3:cad>0</ns3:cad>
          </ns3:TrackPointExtension>
        </extensions>
      </trkpt>
      <trkpt lat="45.31288093887269496917724609375" lon="-70.89827097952365875244140625">
        <ele>606.79998779296875</ele>
        <time>2026-08-21T16:12:31.000Z</time>
        <extensions>
          <ns3:TrackPointExtension>
            <ns3:hr>90</ns3:hr>
            <ns3:cad>0</ns3:cad>
          </ns3:TrackPointExtension>
        </extensions>
      </trkpt>
      <trkpt lat="45.31288093887269496917724609375" lon="-70.89827097952365875244140625">
        <ele>606.79998779296875</ele>
        <time>2026-08-21T16:12:32.000Z</time>
        <extensions>
          <ns3:TrackPointExtension>
            <ns3:hr>90</ns3:hr>
            <ns3:cad>0</ns3:cad>
          </ns3:TrackPointExtension>
        </extensions>
      </trkpt>
      <trkpt lat="45.31288093887269496917724609375" lon="-70.89827097952365875244140625">
        <ele>606.79998779296875</ele>
        <time>2026-08-21T16:12:33.000Z</time>
        <extensions>
          <ns3:TrackPointExtension>
            <ns3:hr>90</ns3:hr>
            <ns3:cad>0</ns3:cad>
          </ns3:TrackPointExtension>
        </extensions>
      </trkpt>
      <trkpt lat="45.31288093887269496917724609375" lon="-70.89827097952365875244140625">
        <ele>606.79998779296875</ele>
        <time>2026-08-21T16:12:34.000Z</time>
        <extensions>
          <ns3:TrackPointExtension>
            <ns3:hr>90</ns3:hr>
            <ns3:cad>0</ns3:cad>
          </ns3:TrackPointExtension>
        </extensions>
      </trkpt>
      <trkpt lat="45.31288093887269496917724609375" lon="-70.89827097952365875244140625">
        <ele>606.79998779296875</ele>
        <time>2026-08-21T16:12:35.000Z</time>
        <extensions>
          <ns3:TrackPointExtension>
            <ns3:hr>90</ns3:hr>
            <ns3:cad>0</ns3:cad>
          </ns3:TrackPointExtension>
        </extensions>
      </trkpt>
      <trkpt lat="45.31288093887269496917724609375" lon="-70.89827097952365875244140625">
        <ele>606.79998779296875</ele>
        <time>2026-08-21T16:12:36.000Z</time>
        <extensions>
          <ns3:TrackPointExtension>
            <ns3:hr>89</ns3:hr>
            <ns3:cad>0</ns3:cad>
          </ns3:TrackPointExtension>
        </extensions>
      </trkpt>
      <trkpt lat="45.31288093887269496917724609375" lon="-70.89827097952365875244140625">
        <ele>606.79998779296875</ele>
        <time>2026-08-21T16:12:37.000Z</time>
        <extensions>
          <ns3:TrackPointExtension>
            <ns3:hr>90</ns3:hr>
            <ns3:cad>0</ns3:cad>
          </ns3:TrackPointExtension>
        </extensions>
      </trkpt>
      <trkpt lat="45.31288093887269496917724609375" lon="-70.89827097952365875244140625">
        <ele>606.79998779296875</ele>
        <time>2026-08-21T16:12:38.000Z</time>
        <extensions>
          <ns3:TrackPointExtension>
            <ns3:hr>90</ns3:hr>
            <ns3:cad>0</ns3:cad>
          </ns3:TrackPointExtension>
        </extensions>
      </trkpt>
      <trkpt lat="45.31288093887269496917724609375" lon="-70.89827097952365875244140625">
        <ele>606.79998779296875</ele>
        <time>2026-08-21T16:12:39.000Z</time>
        <extensions>
          <ns3:TrackPointExtension>
            <ns3:hr>90</ns3:hr>
            <ns3:cad>0</ns3:cad>
          </ns3:TrackPointExtension>
        </extensions>
      </trkpt>
      <trkpt lat="45.31288093887269496917724609375" lon="-70.89827097952365875244140625">
        <ele>606.79998779296875</ele>
        <time>2026-08-21T16:12:40.000Z</time>
        <extensions>
          <ns3:TrackPointExtension>
            <ns3:hr>90</ns3:hr>
            <ns3:cad>0</ns3:cad>
          </ns3:TrackPointExtension>
        </extensions>
      </trkpt>
      <trkpt lat="45.31288093887269496917724609375" lon="-70.89827097952365875244140625">
        <ele>606.79998779296875</ele>
        <time>2026-08-21T16:12:41.000Z</time>
        <extensions>
          <ns3:TrackPointExtension>
            <ns3:hr>90</ns3:hr>
            <ns3:cad>0</ns3:cad>
          </ns3:TrackPointExtension>
        </extensions>
      </trkpt>
      <trkpt lat="45.31288093887269496917724609375" lon="-70.89827097952365875244140625">
        <ele>606.79998779296875</ele>
        <time>2026-08-21T16:12:42.000Z</time>
        <extensions>
          <ns3:TrackPointExtension>
            <ns3:hr>90</ns3:hr>
            <ns3:cad>0</ns3:cad>
          </ns3:TrackPointExtension>
        </extensions>
      </trkpt>
      <trkpt lat="45.31288093887269496917724609375" lon="-70.89827097952365875244140625">
        <ele>606.79998779296875</ele>
        <time>2026-08-21T16:12:43.000Z</time>
        <extensions>
          <ns3:TrackPointExtension>
            <ns3:hr>90</ns3:hr>
            <ns3:cad>0</ns3:cad>
          </ns3:TrackPointExtension>
        </extensions>
      </trkpt>
      <trkpt lat="45.31288093887269496917724609375" lon="-70.89827097952365875244140625">
        <ele>606.79998779296875</ele>
        <time>2026-08-21T16:12:44.000Z</time>
        <extensions>
          <ns3:TrackPointExtension>
            <ns3:hr>91</ns3:hr>
            <ns3:cad>0</ns3:cad>
          </ns3:TrackPointExtension>
        </extensions>
      </trkpt>
      <trkpt lat="45.31288093887269496917724609375" lon="-70.89827097952365875244140625">
        <ele>606.79998779296875</ele>
        <time>2026-08-21T16:12:45.000Z</time>
        <extensions>
          <ns3:TrackPointExtension>
            <ns3:hr>93</ns3:hr>
            <ns3:cad>0</ns3:cad>
          </ns3:TrackPointExtension>
        </extensions>
      </trkpt>
      <trkpt lat="45.31288093887269496917724609375" lon="-70.89827097952365875244140625">
        <ele>606.79998779296875</ele>
        <time>2026-08-21T16:12:46.000Z</time>
        <extensions>
          <ns3:TrackPointExtension>
            <ns3:hr>93</ns3:hr>
            <ns3:cad>0</ns3:cad>
          </ns3:TrackPointExtension>
        </extensions>
      </trkpt>
      <trkpt lat="45.31288093887269496917724609375" lon="-70.89827097952365875244140625">
        <ele>606.79998779296875</ele>
        <time>2026-08-21T16:12:47.000Z</time>
        <extensions>
          <ns3:TrackPointExtension>
            <ns3:hr>92</ns3:hr>
            <ns3:cad>0</ns3:cad>
          </ns3:TrackPointExtension>
        </extensions>
      </trkpt>
      <trkpt lat="45.31288093887269496917724609375" lon="-70.89827097952365875244140625">
        <ele>606.79998779296875</ele>
        <time>2026-08-21T16:12:48.000Z</time>
        <extensions>
          <ns3:TrackPointExtension>
            <ns3:hr>91</ns3:hr>
            <ns3:cad>0</ns3:cad>
          </ns3:TrackPointExtension>
        </extensions>
      </trkpt>
      <trkpt lat="45.31288093887269496917724609375" lon="-70.89827097952365875244140625">
        <ele>606.79998779296875</ele>
        <time>2026-08-21T16:12:49.000Z</time>
        <extensions>
          <ns3:TrackPointExtension>
            <ns3:hr>91</ns3:hr>
            <ns3:cad>0</ns3:cad>
          </ns3:TrackPointExtension>
        </extensions>
      </trkpt>
      <trkpt lat="45.312878675758838653564453125" lon="-70.89825597591698169708251953125">
        <ele>606.79998779296875</ele>
        <time>2026-08-21T16:12:50.000Z</time>
        <extensions>
          <ns3:TrackPointExtension>
            <ns3:hr>91</ns3:hr>
            <ns3:cad>0</ns3:cad>
          </ns3:TrackPointExtension>
        </extensions>
      </trkpt>
      <trkpt lat="45.3128821961581707000732421875" lon="-70.89825899340212345123291015625">
        <ele>606.79998779296875</ele>
        <time>2026-08-21T16:12:51.000Z</time>
        <extensions>
          <ns3:TrackPointExtension>
            <ns3:hr>92</ns3:hr>
            <ns3:cad>0</ns3:cad>
          </ns3:TrackPointExtension>
        </extensions>
      </trkpt>
      <trkpt lat="45.31288093887269496917724609375" lon="-70.89827097952365875244140625">
        <ele>606.5999755859375</ele>
        <time>2026-08-21T16:12:52.000Z</time>
        <extensions>
          <ns3:TrackPointExtension>
            <ns3:hr>92</ns3:hr>
            <ns3:cad>0</ns3:cad>
          </ns3:TrackPointExtension>
        </extensions>
      </trkpt>
      <trkpt lat="45.31288093887269496917724609375" lon="-70.89827097952365875244140625">
        <ele>606.79998779296875</ele>
        <time>2026-08-21T16:12:53.000Z</time>
        <extensions>
          <ns3:TrackPointExtension>
            <ns3:hr>93</ns3:hr>
            <ns3:cad>0</ns3:cad>
          </ns3:TrackPointExtension>
        </extensions>
      </trkpt>
      <trkpt lat="45.31288093887269496917724609375" lon="-70.89827097952365875244140625">
        <ele>606.79998779296875</ele>
        <time>2026-08-21T16:12:54.000Z</time>
        <extensions>
          <ns3:TrackPointExtension>
            <ns3:hr>93</ns3:hr>
            <ns3:cad>0</ns3:cad>
          </ns3:TrackPointExtension>
        </extensions>
      </trkpt>
      <trkpt lat="45.31288093887269496917724609375" lon="-70.89827097952365875244140625">
        <ele>606.79998779296875</ele>
        <time>2026-08-21T16:12:55.000Z</time>
        <extensions>
          <ns3:TrackPointExtension>
            <ns3:hr>94</ns3:hr>
            <ns3:cad>0</ns3:cad>
          </ns3:TrackPointExtension>
        </extensions>
      </trkpt>
      <trkpt lat="45.31288093887269496917724609375" lon="-70.89827097952365875244140625">
        <ele>606.79998779296875</ele>
        <time>2026-08-21T16:12:56.000Z</time>
        <extensions>
          <ns3:TrackPointExtension>
            <ns3:hr>96</ns3:hr>
            <ns3:cad>0</ns3:cad>
          </ns3:TrackPointExtension>
        </extensions>
      </trkpt>
      <trkpt lat="45.31288093887269496917724609375" lon="-70.89827097952365875244140625">
        <ele>606.79998779296875</ele>
        <time>2026-08-21T16:12:57.000Z</time>
        <extensions>
          <ns3:TrackPointExtension>
            <ns3:hr>97</ns3:hr>
            <ns3:cad>0</ns3:cad>
          </ns3:TrackPointExtension>
        </extensions>
      </trkpt>
      <trkpt lat="45.31288093887269496917724609375" lon="-70.89827097952365875244140625">
        <ele>606.79998779296875</ele>
        <time>2026-08-21T16:12:58.000Z</time>
        <extensions>
          <ns3:TrackPointExtension>
            <ns3:hr>99</ns3:hr>
            <ns3:cad>0</ns3:cad>
          </ns3:TrackPointExtension>
        </extensions>
      </trkpt>
      <trkpt lat="45.31288093887269496917724609375" lon="-70.89827097952365875244140625">
        <ele>606.79998779296875</ele>
        <time>2026-08-21T16:12:59.000Z</time>
        <extensions>
          <ns3:TrackPointExtension>
            <ns3:hr>99</ns3:hr>
            <ns3:cad>0</ns3:cad>
          </ns3:TrackPointExtension>
        </extensions>
      </trkpt>
      <trkpt lat="45.31288093887269496917724609375" lon="-70.89827097952365875244140625">
        <ele>606.79998779296875</ele>
        <time>2026-08-21T16:13:00.000Z</time>
        <extensions>
          <ns3:TrackPointExtension>
            <ns3:hr>100</ns3:hr>
            <ns3:cad>0</ns3:cad>
          </ns3:TrackPointExtension>
        </extensions>
      </trkpt>
      <trkpt lat="45.31288093887269496917724609375" lon="-70.89827097952365875244140625">
        <ele>606.79998779296875</ele>
        <time>2026-08-21T16:13:01.000Z</time>
        <extensions>
          <ns3:TrackPointExtension>
            <ns3:hr>100</ns3:hr>
            <ns3:cad>0</ns3:cad>
          </ns3:TrackPointExtension>
        </extensions>
      </trkpt>
      <trkpt lat="45.31288093887269496917724609375" lon="-70.89827097952365875244140625">
        <ele>606.79998779296875</ele>
        <time>2026-08-21T16:13:02.000Z</time>
        <extensions>
          <ns3:TrackPointExtension>
            <ns3:hr>99</ns3:hr>
            <ns3:cad>0</ns3:cad>
          </ns3:TrackPointExtension>
        </extensions>
      </trkpt>
      <trkpt lat="45.31288093887269496917724609375" lon="-70.89827097952365875244140625">
        <ele>606.79998779296875</ele>
        <time>2026-08-21T16:13:03.000Z</time>
        <extensions>
          <ns3:TrackPointExtension>
            <ns3:hr>99</ns3:hr>
            <ns3:cad>0</ns3:cad>
          </ns3:TrackPointExtension>
        </extensions>
      </trkpt>
      <trkpt lat="45.3128842078149318695068359375" lon="-70.89826167561113834381103515625">
        <ele>606.79998779296875</ele>
        <time>2026-08-21T16:13:04.000Z</time>
        <extensions>
          <ns3:TrackPointExtension>
            <ns3:hr>98</ns3:hr>
            <ns3:cad>0</ns3:cad>
          </ns3:TrackPointExtension>
        </extensions>
      </trkpt>
      <trkpt lat="45.3128875605762004852294921875" lon="-70.898264609277248382568359375">
        <ele>606.79998779296875</ele>
        <time>2026-08-21T16:13:05.000Z</time>
        <extensions>
          <ns3:TrackPointExtension>
            <ns3:hr>99</ns3:hr>
            <ns3:cad>0</ns3:cad>
          </ns3:TrackPointExtension>
        </extensions>
      </trkpt>
      <trkpt lat="45.31289518810808658599853515625" lon="-70.89826553128659725189208984375">
        <ele>606.79998779296875</ele>
        <time>2026-08-21T16:13:06.000Z</time>
        <extensions>
          <ns3:TrackPointExtension>
            <ns3:hr>100</ns3:hr>
            <ns3:cad>0</ns3:cad>
          </ns3:TrackPointExtension>
        </extensions>
      </trkpt>
      <trkpt lat="45.3128999657928943634033203125" lon="-70.8982704766094684600830078125">
        <ele>606.79998779296875</ele>
        <time>2026-08-21T16:13:07.000Z</time>
        <extensions>
          <ns3:TrackPointExtension>
            <ns3:hr>101</ns3:hr>
            <ns3:cad>0</ns3:cad>
          </ns3:TrackPointExtension>
        </extensions>
      </trkpt>
      <trkpt lat="45.3129023127257823944091796875" lon="-70.89827341027557849884033203125">
        <ele>607</ele>
        <time>2026-08-21T16:13:08.000Z</time>
        <extensions>
          <ns3:TrackPointExtension>
            <ns3:hr>101</ns3:hr>
            <ns3:cad>0</ns3:cad>
          </ns3:TrackPointExtension>
        </extensions>
      </trkpt>
      <trkpt lat="45.31289376318454742431640625" lon="-70.89827290736138820648193359375">
        <ele>607</ele>
        <time>2026-08-21T16:13:09.000Z</time>
        <extensions>
          <ns3:TrackPointExtension>
            <ns3:hr>101</ns3:hr>
            <ns3:cad>0</ns3:cad>
          </ns3:TrackPointExtension>
        </extensions>
      </trkpt>
      <trkpt lat="45.31288781203329563140869140625" lon="-70.8982694707810878753662109375">
        <ele>607</ele>
        <time>2026-08-21T16:13:10.000Z</time>
        <extensions>
          <ns3:TrackPointExtension>
            <ns3:hr>101</ns3:hr>
            <ns3:cad>0</ns3:cad>
          </ns3:TrackPointExtension>
        </extensions>
      </trkpt>
      <trkpt lat="45.3128915838897228240966796875" lon="-70.89826586656272411346435546875">
        <ele>607.20001220703125</ele>
        <time>2026-08-21T16:13:11.000Z</time>
        <extensions>
          <ns3:TrackPointExtension>
            <ns3:hr>101</ns3:hr>
            <ns3:cad>0</ns3:cad>
          </ns3:TrackPointExtension>
        </extensions>
      </trkpt>
      <trkpt lat="45.31289510428905487060546875" lon="-70.8982610888779163360595703125">
        <ele>607.20001220703125</ele>
        <time>2026-08-21T16:13:12.000Z</time>
        <extensions>
          <ns3:TrackPointExtension>
            <ns3:hr>100</ns3:hr>
            <ns3:cad>0</ns3:cad>
          </ns3:TrackPointExtension>
        </extensions>
      </trkpt>
      <trkpt lat="45.3128972835838794708251953125" lon="-70.8982609212398529052734375">
        <ele>607.4000244140625</ele>
        <time>2026-08-21T16:13:13.000Z</time>
        <extensions>
          <ns3:TrackPointExtension>
            <ns3:hr>100</ns3:hr>
            <ns3:cad>0</ns3:cad>
          </ns3:TrackPointExtension>
        </extensions>
      </trkpt>
      <trkpt lat="45.3129009716212749481201171875" lon="-70.8982620947062969207763671875">
        <ele>607.5999755859375</ele>
        <time>2026-08-21T16:13:14.000Z</time>
        <extensions>
          <ns3:TrackPointExtension>
            <ns3:hr>100</ns3:hr>
            <ns3:cad>0</ns3:cad>
          </ns3:TrackPointExtension>
        </extensions>
      </trkpt>
      <trkpt lat="45.3129009716212749481201171875" lon="-70.898262597620487213134765625">
        <ele>607.5999755859375</ele>
        <time>2026-08-21T16:13:15.000Z</time>
        <extensions>
          <ns3:TrackPointExtension>
            <ns3:hr>100</ns3:hr>
            <ns3:cad>0</ns3:cad>
          </ns3:TrackPointExtension>
        </extensions>
      </trkpt>
      <trkpt lat="45.3129009716212749481201171875" lon="-70.898262597620487213134765625">
        <ele>607.5999755859375</ele>
        <time>2026-08-21T16:13:16.000Z</time>
        <extensions>
          <ns3:TrackPointExtension>
            <ns3:hr>98</ns3:hr>
            <ns3:cad>0</ns3:cad>
          </ns3:TrackPointExtension>
        </extensions>
      </trkpt>
      <trkpt lat="45.312901474535465240478515625" lon="-70.89826301671564579010009765625">
        <ele>607.5999755859375</ele>
        <time>2026-08-21T16:13:17.000Z</time>
        <extensions>
          <ns3:TrackPointExtension>
            <ns3:hr>97</ns3:hr>
            <ns3:cad>49</ns3:cad>
          </ns3:TrackPointExtension>
        </extensions>
      </trkpt>
      <trkpt lat="45.31290675513446331024169921875" lon="-70.89826829731464385986328125">
        <ele>607.5999755859375</ele>
        <time>2026-08-21T16:13:18.000Z</time>
        <extensions>
          <ns3:TrackPointExtension>
            <ns3:hr>95</ns3:hr>
            <ns3:cad>49</ns3:cad>
          </ns3:TrackPointExtension>
        </extensions>
      </trkpt>
      <trkpt lat="45.31290692277252674102783203125" lon="-70.898267962038516998291015625">
        <ele>607.5999755859375</ele>
        <time>2026-08-21T16:13:19.000Z</time>
        <extensions>
          <ns3:TrackPointExtension>
            <ns3:hr>94</ns3:hr>
            <ns3:cad>0</ns3:cad>
          </ns3:TrackPointExtension>
        </extensions>
      </trkpt>
      <trkpt lat="45.31290893442928791046142578125" lon="-70.8982714824378490447998046875">
        <ele>607.79998779296875</ele>
        <time>2026-08-21T16:13:20.000Z</time>
        <extensions>
          <ns3:TrackPointExtension>
            <ns3:hr>93</ns3:hr>
            <ns3:cad>0</ns3:cad>
          </ns3:TrackPointExtension>
        </extensions>
      </trkpt>
      <trkpt lat="45.31291094608604907989501953125" lon="-70.8982751704752445220947265625">
        <ele>607.79998779296875</ele>
        <time>2026-08-21T16:13:21.000Z</time>
        <extensions>
          <ns3:TrackPointExtension>
            <ns3:hr>94</ns3:hr>
            <ns3:cad>0</ns3:cad>
          </ns3:TrackPointExtension>
        </extensions>
      </trkpt>
      <trkpt lat="45.31291044317185878753662109375" lon="-70.898277349770069122314453125">
        <ele>607.79998779296875</ele>
        <time>2026-08-21T16:13:22.000Z</time>
        <extensions>
          <ns3:TrackPointExtension>
            <ns3:hr>94</ns3:hr>
            <ns3:cad>0</ns3:cad>
          </ns3:TrackPointExtension>
        </extensions>
      </trkpt>
      <trkpt lat="45.31291061080992221832275390625" lon="-70.89827793650329113006591796875">
        <ele>607.79998779296875</ele>
        <time>2026-08-21T16:13:23.000Z</time>
        <extensions>
          <ns3:TrackPointExtension>
            <ns3:hr>94</ns3:hr>
            <ns3:cad>0</ns3:cad>
          </ns3:TrackPointExtension>
        </extensions>
      </trkpt>
      <trkpt lat="45.31291061080992221832275390625" lon="-70.89827793650329113006591796875">
        <ele>607.79998779296875</ele>
        <time>2026-08-21T16:13:24.000Z</time>
        <extensions>
          <ns3:TrackPointExtension>
            <ns3:hr>94</ns3:hr>
            <ns3:cad>0</ns3:cad>
          </ns3:TrackPointExtension>
        </extensions>
      </trkpt>
      <trkpt lat="45.31291061080992221832275390625" lon="-70.89827793650329113006591796875">
        <ele>607.5999755859375</ele>
        <time>2026-08-21T16:13:25.000Z</time>
        <extensions>
          <ns3:TrackPointExtension>
            <ns3:hr>93</ns3:hr>
            <ns3:cad>0</ns3:cad>
          </ns3:TrackPointExtension>
        </extensions>
      </trkpt>
      <trkpt lat="45.31291061080992221832275390625" lon="-70.89827793650329113006591796875">
        <ele>607.5999755859375</ele>
        <time>2026-08-21T16:13:26.000Z</time>
        <extensions>
          <ns3:TrackPointExtension>
            <ns3:hr>93</ns3:hr>
            <ns3:cad>0</ns3:cad>
          </ns3:TrackPointExtension>
        </extensions>
      </trkpt>
      <trkpt lat="45.31291061080992221832275390625" lon="-70.89827793650329113006591796875">
        <ele>607.4000244140625</ele>
        <time>2026-08-21T16:13:27.000Z</time>
        <extensions>
          <ns3:TrackPointExtension>
            <ns3:hr>93</ns3:hr>
            <ns3:cad>0</ns3:cad>
          </ns3:TrackPointExtension>
        </extensions>
      </trkpt>
      <trkpt lat="45.31291061080992221832275390625" lon="-70.89827793650329113006591796875">
        <ele>607.4000244140625</ele>
        <time>2026-08-21T16:13:28.000Z</time>
        <extensions>
          <ns3:TrackPointExtension>
            <ns3:hr>94</ns3:hr>
            <ns3:cad>0</ns3:cad>
          </ns3:TrackPointExtension>
        </extensions>
      </trkpt>
      <trkpt lat="45.31291061080992221832275390625" lon="-70.89827793650329113006591796875">
        <ele>607.4000244140625</ele>
        <time>2026-08-21T16:13:29.000Z</time>
        <extensions>
          <ns3:TrackPointExtension>
            <ns3:hr>95</ns3:hr>
            <ns3:cad>0</ns3:cad>
          </ns3:TrackPointExtension>
        </extensions>
      </trkpt>
      <trkpt lat="45.31291061080992221832275390625" lon="-70.89827793650329113006591796875">
        <ele>607.4000244140625</ele>
        <time>2026-08-21T16:13:30.000Z</time>
        <extensions>
          <ns3:TrackPointExtension>
            <ns3:hr>97</ns3:hr>
            <ns3:cad>0</ns3:cad>
          </ns3:TrackPointExtension>
        </extensions>
      </trkpt>
      <trkpt lat="45.31291061080992221832275390625" lon="-70.89827793650329113006591796875">
        <ele>607.4000244140625</ele>
        <time>2026-08-21T16:13:31.000Z</time>
        <extensions>
          <ns3:TrackPointExtension>
            <ns3:hr>96</ns3:hr>
            <ns3:cad>0</ns3:cad>
          </ns3:TrackPointExtension>
        </extensions>
      </trkpt>
      <trkpt lat="45.31291061080992221832275390625" lon="-70.89827793650329113006591796875">
        <ele>607.4000244140625</ele>
        <time>2026-08-21T16:13:32.000Z</time>
        <extensions>
          <ns3:TrackPointExtension>
            <ns3:hr>97</ns3:hr>
            <ns3:cad>0</ns3:cad>
          </ns3:TrackPointExtension>
        </extensions>
      </trkpt>
      <trkpt lat="45.31291061080992221832275390625" lon="-70.89827793650329113006591796875">
        <ele>607.20001220703125</ele>
        <time>2026-08-21T16:13:33.000Z</time>
        <extensions>
          <ns3:TrackPointExtension>
            <ns3:hr>97</ns3:hr>
            <ns3:cad>0</ns3:cad>
          </ns3:TrackPointExtension>
        </extensions>
      </trkpt>
      <trkpt lat="45.31291061080992221832275390625" lon="-70.89827793650329113006591796875">
        <ele>607.20001220703125</ele>
        <time>2026-08-21T16:13:34.000Z</time>
        <extensions>
          <ns3:TrackPointExtension>
            <ns3:hr>97</ns3:hr>
            <ns3:cad>0</ns3:cad>
          </ns3:TrackPointExtension>
        </extensions>
      </trkpt>
      <trkpt lat="45.31291061080992221832275390625" lon="-70.89827793650329113006591796875">
        <ele>607</ele>
        <time>2026-08-21T16:13:35.000Z</time>
        <extensions>
          <ns3:TrackPointExtension>
            <ns3:hr>97</ns3:hr>
            <ns3:cad>0</ns3:cad>
          </ns3:TrackPointExtension>
        </extensions>
      </trkpt>
      <trkpt lat="45.31291061080992221832275390625" lon="-70.89827793650329113006591796875">
        <ele>606.79998779296875</ele>
        <time>2026-08-21T16:13:36.000Z</time>
        <extensions>
          <ns3:TrackPointExtension>
            <ns3:hr>96</ns3:hr>
            <ns3:cad>0</ns3:cad>
          </ns3:TrackPointExtension>
        </extensions>
      </trkpt>
      <trkpt lat="45.31291061080992221832275390625" lon="-70.89827793650329113006591796875">
        <ele>606.79998779296875</ele>
        <time>2026-08-21T16:13:37.000Z</time>
        <extensions>
          <ns3:TrackPointExtension>
            <ns3:hr>97</ns3:hr>
            <ns3:cad>0</ns3:cad>
          </ns3:TrackPointExtension>
        </extensions>
      </trkpt>
      <trkpt lat="45.31291061080992221832275390625" lon="-70.89827793650329113006591796875">
        <ele>606.79998779296875</ele>
        <time>2026-08-21T16:13:38.000Z</time>
        <extensions>
          <ns3:TrackPointExtension>
            <ns3:hr>99</ns3:hr>
            <ns3:cad>0</ns3:cad>
          </ns3:TrackPointExtension>
        </extensions>
      </trkpt>
      <trkpt lat="45.31291061080992221832275390625" lon="-70.89827793650329113006591796875">
        <ele>606.79998779296875</ele>
        <time>2026-08-21T16:13:39.000Z</time>
        <extensions>
          <ns3:TrackPointExtension>
            <ns3:hr>99</ns3:hr>
            <ns3:cad>0</ns3:cad>
          </ns3:TrackPointExtension>
        </extensions>
      </trkpt>
      <trkpt lat="45.31291061080992221832275390625" lon="-70.89827793650329113006591796875">
        <ele>606.79998779296875</ele>
        <time>2026-08-21T16:13:40.000Z</time>
        <extensions>
          <ns3:TrackPointExtension>
            <ns3:hr>101</ns3:hr>
            <ns3:cad>0</ns3:cad>
          </ns3:TrackPointExtension>
        </extensions>
      </trkpt>
      <trkpt lat="45.3129060007631778717041015625" lon="-70.89828983880579471588134765625">
        <ele>606.79998779296875</ele>
        <time>2026-08-21T16:13:41.000Z</time>
        <extensions>
          <ns3:TrackPointExtension>
            <ns3:hr>101</ns3:hr>
            <ns3:cad>68</ns3:cad>
          </ns3:TrackPointExtension>
        </extensions>
      </trkpt>
      <trkpt lat="45.31290717422962188720703125" lon="-70.89828975498676300048828125">
        <ele>606.79998779296875</ele>
        <time>2026-08-21T16:13:42.000Z</time>
        <extensions>
          <ns3:TrackPointExtension>
            <ns3:hr>103</ns3:hr>
            <ns3:cad>68</ns3:cad>
          </ns3:TrackPointExtension>
        </extensions>
      </trkpt>
      <trkpt lat="45.31290625222027301788330078125" lon="-70.89829168282449245452880859375">
        <ele>606.79998779296875</ele>
        <time>2026-08-21T16:13:43.000Z</time>
        <extensions>
          <ns3:TrackPointExtension>
            <ns3:hr>104</ns3:hr>
            <ns3:cad>68</ns3:cad>
          </ns3:TrackPointExtension>
        </extensions>
      </trkpt>
      <trkpt lat="45.3129060007631778717041015625" lon="-70.89827525429427623748779296875">
        <ele>607</ele>
        <time>2026-08-21T16:13:44.000Z</time>
        <extensions>
          <ns3:TrackPointExtension>
            <ns3:hr>104</ns3:hr>
            <ns3:cad>0</ns3:cad>
          </ns3:TrackPointExtension>
        </extensions>
      </trkpt>
      <trkpt lat="45.31290390528738498687744140625" lon="-70.89827994816005229949951171875">
        <ele>607</ele>
        <time>2026-08-21T16:13:45.000Z</time>
        <extensions>
          <ns3:TrackPointExtension>
            <ns3:hr>103</ns3:hr>
            <ns3:cad>0</ns3:cad>
          </ns3:TrackPointExtension>
        </extensions>
      </trkpt>
      <trkpt lat="45.3129046596586704254150390625" lon="-70.8982768468558788299560546875">
        <ele>607</ele>
        <time>2026-08-21T16:13:46.000Z</time>
        <extensions>
          <ns3:TrackPointExtension>
            <ns3:hr>102</ns3:hr>
            <ns3:cad>55</ns3:cad>
          </ns3:TrackPointExtension>
        </extensions>
      </trkpt>
      <trkpt lat="45.312903821468353271484375" lon="-70.8982778526842594146728515625">
        <ele>607</ele>
        <time>2026-08-21T16:13:47.000Z</time>
        <extensions>
          <ns3:TrackPointExtension>
            <ns3:hr>102</ns3:hr>
            <ns3:cad>55</ns3:cad>
          </ns3:TrackPointExtension>
        </extensions>
      </trkpt>
      <trkpt lat="45.3129056654870510101318359375" lon="-70.8982768468558788299560546875">
        <ele>607</ele>
        <time>2026-08-21T16:13:48.000Z</time>
        <extensions>
          <ns3:TrackPointExtension>
            <ns3:hr>101</ns3:hr>
            <ns3:cad>55</ns3:cad>
          </ns3:TrackPointExtension>
        </extensions>
      </trkpt>
      <trkpt lat="45.3129105269908905029296875" lon="-70.898274667561054229736328125">
        <ele>607</ele>
        <time>2026-08-21T16:13:49.000Z</time>
        <extensions>
          <ns3:TrackPointExtension>
            <ns3:hr>99</ns3:hr>
            <ns3:cad>55</ns3:cad>
          </ns3:TrackPointExtension>
        </extensions>
      </trkpt>
      <trkpt lat="45.31290893442928791046142578125" lon="-70.89827500283718109130859375">
        <ele>607</ele>
        <time>2026-08-21T16:13:50.000Z</time>
        <extensions>
          <ns3:TrackPointExtension>
            <ns3:hr>97</ns3:hr>
            <ns3:cad>55</ns3:cad>
          </ns3:TrackPointExtension>
        </extensions>
      </trkpt>
      <trkpt lat="45.3129090182483196258544921875" lon="-70.89827408082783222198486328125">
        <ele>607</ele>
        <time>2026-08-21T16:13:51.000Z</time>
        <extensions>
          <ns3:TrackPointExtension>
            <ns3:hr>95</ns3:hr>
            <ns3:cad>0</ns3:cad>
          </ns3:TrackPointExtension>
        </extensions>
      </trkpt>
      <trkpt lat="45.31290960498154163360595703125" lon="-70.8982728235423564910888671875">
        <ele>607</ele>
        <time>2026-08-21T16:13:52.000Z</time>
        <extensions>
          <ns3:TrackPointExtension>
            <ns3:hr>94</ns3:hr>
            <ns3:cad>0</ns3:cad>
          </ns3:TrackPointExtension>
        </extensions>
      </trkpt>
      <trkpt lat="45.31291128136217594146728515625" lon="-70.89827357791364192962646484375">
        <ele>607</ele>
        <time>2026-08-21T16:13:53.000Z</time>
        <extensions>
          <ns3:TrackPointExtension>
            <ns3:hr>94</ns3:hr>
            <ns3:cad>0</ns3:cad>
          </ns3:TrackPointExtension>
        </extensions>
      </trkpt>
      <trkpt lat="45.31291061080992221832275390625" lon="-70.89827793650329113006591796875">
        <ele>607</ele>
        <time>2026-08-21T16:13:54.000Z</time>
        <extensions>
          <ns3:TrackPointExtension>
            <ns3:hr>93</ns3:hr>
            <ns3:cad>0</ns3:cad>
          </ns3:TrackPointExtension>
        </extensions>
      </trkpt>
      <trkpt lat="45.31291061080992221832275390625" lon="-70.89827793650329113006591796875">
        <ele>607</ele>
        <time>2026-08-21T16:13:55.000Z</time>
        <extensions>
          <ns3:TrackPointExtension>
            <ns3:hr>93</ns3:hr>
            <ns3:cad>0</ns3:cad>
          </ns3:TrackPointExtension>
        </extensions>
      </trkpt>
      <trkpt lat="45.31291061080992221832275390625" lon="-70.89827793650329113006591796875">
        <ele>607</ele>
        <time>2026-08-21T16:13:56.000Z</time>
        <extensions>
          <ns3:TrackPointExtension>
            <ns3:hr>93</ns3:hr>
            <ns3:cad>0</ns3:cad>
          </ns3:TrackPointExtension>
        </extensions>
      </trkpt>
      <trkpt lat="45.31291061080992221832275390625" lon="-70.89827793650329113006591796875">
        <ele>607</ele>
        <time>2026-08-21T16:13:57.000Z</time>
        <extensions>
          <ns3:TrackPointExtension>
            <ns3:hr>92</ns3:hr>
            <ns3:cad>0</ns3:cad>
          </ns3:TrackPointExtension>
        </extensions>
      </trkpt>
      <trkpt lat="45.31291061080992221832275390625" lon="-70.89827793650329113006591796875">
        <ele>607</ele>
        <time>2026-08-21T16:13:58.000Z</time>
        <extensions>
          <ns3:TrackPointExtension>
            <ns3:hr>92</ns3:hr>
            <ns3:cad>62</ns3:cad>
          </ns3:TrackPointExtension>
        </extensions>
      </trkpt>
      <trkpt lat="45.3129106946289539337158203125" lon="-70.89827374555170536041259765625">
        <ele>607</ele>
        <time>2026-08-21T16:13:59.000Z</time>
        <extensions>
          <ns3:TrackPointExtension>
            <ns3:hr>92</ns3:hr>
            <ns3:cad>66</ns3:cad>
          </ns3:TrackPointExtension>
        </extensions>
      </trkpt>
      <trkpt lat="45.31291144900023937225341796875" lon="-70.89827156625688076019287109375">
        <ele>607</ele>
        <time>2026-08-21T16:14:00.000Z</time>
        <extensions>
          <ns3:TrackPointExtension>
            <ns3:hr>92</ns3:hr>
            <ns3:cad>66</ns3:cad>
          </ns3:TrackPointExtension>
        </extensions>
      </trkpt>
      <trkpt lat="45.31291044317185878753662109375" lon="-70.8982728235423564910888671875">
        <ele>607</ele>
        <time>2026-08-21T16:14:01.000Z</time>
        <extensions>
          <ns3:TrackPointExtension>
            <ns3:hr>92</ns3:hr>
            <ns3:cad>66</ns3:cad>
          </ns3:TrackPointExtension>
        </extensions>
      </trkpt>
      <trkpt lat="45.31290994025766849517822265625" lon="-70.89827089570462703704833984375">
        <ele>607</ele>
        <time>2026-08-21T16:14:02.000Z</time>
        <extensions>
          <ns3:TrackPointExtension>
            <ns3:hr>92</ns3:hr>
            <ns3:cad>66</ns3:cad>
          </ns3:TrackPointExtension>
        </extensions>
      </trkpt>
      <trkpt lat="45.31290692277252674102783203125" lon="-70.89826653711497783660888671875">
        <ele>607</ele>
        <time>2026-08-21T16:14:03.000Z</time>
        <extensions>
          <ns3:TrackPointExtension>
            <ns3:hr>92</ns3:hr>
            <ns3:cad>66</ns3:cad>
          </ns3:TrackPointExtension>
        </extensions>
      </trkpt>
      <trkpt lat="45.312905497848987579345703125" lon="-70.8982661180198192596435546875">
        <ele>607</ele>
        <time>2026-08-21T16:14:04.000Z</time>
        <extensions>
          <ns3:TrackPointExtension>
            <ns3:hr>91</ns3:hr>
            <ns3:cad>44</ns3:cad>
          </ns3:TrackPointExtension>
        </extensions>
      </trkpt>
      <trkpt lat="45.31290172599256038665771484375" lon="-70.89826762676239013671875">
        <ele>607</ele>
        <time>2026-08-21T16:14:05.000Z</time>
        <extensions>
          <ns3:TrackPointExtension>
            <ns3:hr>91</ns3:hr>
            <ns3:cad>44</ns3:cad>
          </ns3:TrackPointExtension>
        </extensions>
      </trkpt>
      <trkpt lat="45.31289719976484775543212890625" lon="-70.89826955460011959075927734375">
        <ele>607</ele>
        <time>2026-08-21T16:14:06.000Z</time>
        <extensions>
          <ns3:TrackPointExtension>
            <ns3:hr>91</ns3:hr>
            <ns3:cad>0</ns3:cad>
          </ns3:TrackPointExtension>
        </extensions>
      </trkpt>
      <trkpt lat="45.31289032660424709320068359375" lon="-70.8982691355049610137939453125">
        <ele>606.79998779296875</ele>
        <time>2026-08-21T16:14:07.000Z</time>
        <extensions>
          <ns3:TrackPointExtension>
            <ns3:hr>91</ns3:hr>
            <ns3:cad>0</ns3:cad>
          </ns3:TrackPointExtension>
        </extensions>
      </trkpt>
      <trkpt lat="45.31288839876651763916015625" lon="-70.89826921932399272918701171875">
        <ele>606.79998779296875</ele>
        <time>2026-08-21T16:14:08.000Z</time>
        <extensions>
          <ns3:TrackPointExtension>
            <ns3:hr>90</ns3:hr>
            <ns3:cad>0</ns3:cad>
          </ns3:TrackPointExtension>
        </extensions>
      </trkpt>
      <trkpt lat="45.31288580037653446197509765625" lon="-70.89826804585754871368408203125">
        <ele>606.79998779296875</ele>
        <time>2026-08-21T16:14:09.000Z</time>
        <extensions>
          <ns3:TrackPointExtension>
            <ns3:hr>90</ns3:hr>
            <ns3:cad>0</ns3:cad>
          </ns3:TrackPointExtension>
        </extensions>
      </trkpt>
      <trkpt lat="45.3128835372626781463623046875" lon="-70.89826670475304126739501953125">
        <ele>606.79998779296875</ele>
        <time>2026-08-21T16:14:10.000Z</time>
        <extensions>
          <ns3:TrackPointExtension>
            <ns3:hr>90</ns3:hr>
            <ns3:cad>0</ns3:cad>
          </ns3:TrackPointExtension>
        </extensions>
      </trkpt>
      <trkpt lat="45.3128821961581707000732421875" lon="-70.89826561510562896728515625">
        <ele>606.79998779296875</ele>
        <time>2026-08-21T16:14:11.000Z</time>
        <extensions>
          <ns3:TrackPointExtension>
            <ns3:hr>89</ns3:hr>
            <ns3:cad>0</ns3:cad>
          </ns3:TrackPointExtension>
        </extensions>
      </trkpt>
      <trkpt lat="45.3128821961581707000732421875" lon="-70.89826561510562896728515625">
        <ele>606.79998779296875</ele>
        <time>2026-08-21T16:14:12.000Z</time>
        <extensions>
          <ns3:TrackPointExtension>
            <ns3:hr>90</ns3:hr>
            <ns3:cad>0</ns3:cad>
          </ns3:TrackPointExtension>
        </extensions>
      </trkpt>
      <trkpt lat="45.3128821961581707000732421875" lon="-70.89826561510562896728515625">
        <ele>606.79998779296875</ele>
        <time>2026-08-21T16:14:13.000Z</time>
        <extensions>
          <ns3:TrackPointExtension>
            <ns3:hr>89</ns3:hr>
            <ns3:cad>0</ns3:cad>
          </ns3:TrackPointExtension>
        </extensions>
      </trkpt>
      <trkpt lat="45.3128821961581707000732421875" lon="-70.89826561510562896728515625">
        <ele>606.79998779296875</ele>
        <time>2026-08-21T16:14:14.000Z</time>
        <extensions>
          <ns3:TrackPointExtension>
            <ns3:hr>90</ns3:hr>
            <ns3:cad>0</ns3:cad>
          </ns3:TrackPointExtension>
        </extensions>
      </trkpt>
      <trkpt lat="45.3128821961581707000732421875" lon="-70.89826561510562896728515625">
        <ele>606.79998779296875</ele>
        <time>2026-08-21T16:14:15.000Z</time>
        <extensions>
          <ns3:TrackPointExtension>
            <ns3:hr>90</ns3:hr>
            <ns3:cad>0</ns3:cad>
          </ns3:TrackPointExtension>
        </extensions>
      </trkpt>
      <trkpt lat="45.3128821961581707000732421875" lon="-70.89826561510562896728515625">
        <ele>606.79998779296875</ele>
        <time>2026-08-21T16:14:16.000Z</time>
        <extensions>
          <ns3:TrackPointExtension>
            <ns3:hr>90</ns3:hr>
            <ns3:cad>0</ns3:cad>
          </ns3:TrackPointExtension>
        </extensions>
      </trkpt>
      <trkpt lat="45.3128821961581707000732421875" lon="-70.89826561510562896728515625">
        <ele>606.79998779296875</ele>
        <time>2026-08-21T16:14:17.000Z</time>
        <extensions>
          <ns3:TrackPointExtension>
            <ns3:hr>90</ns3:hr>
            <ns3:cad>0</ns3:cad>
          </ns3:TrackPointExtension>
        </extensions>
      </trkpt>
      <trkpt lat="45.3128821961581707000732421875" lon="-70.89826561510562896728515625">
        <ele>606.79998779296875</ele>
        <time>2026-08-21T16:14:18.000Z</time>
        <extensions>
          <ns3:TrackPointExtension>
            <ns3:hr>91</ns3:hr>
            <ns3:cad>83</ns3:cad>
          </ns3:TrackPointExtension>
        </extensions>
      </trkpt>
      <trkpt lat="45.3128845430910587310791015625" lon="-70.898267291486263275146484375">
        <ele>606.79998779296875</ele>
        <time>2026-08-21T16:14:19.000Z</time>
        <extensions>
          <ns3:TrackPointExtension>
            <ns3:hr>91</ns3:hr>
            <ns3:cad>83</ns3:cad>
          </ns3:TrackPointExtension>
        </extensions>
      </trkpt>
      <trkpt lat="45.31288496218621730804443359375" lon="-70.8982662856578826904296875">
        <ele>606.79998779296875</ele>
        <time>2026-08-21T16:14:20.000Z</time>
        <extensions>
          <ns3:TrackPointExtension>
            <ns3:hr>91</ns3:hr>
            <ns3:cad>83</ns3:cad>
          </ns3:TrackPointExtension>
        </extensions>
      </trkpt>
      <trkpt lat="45.31288630329072475433349609375" lon="-70.89826435782015323638916015625">
        <ele>606.79998779296875</ele>
        <time>2026-08-21T16:14:21.000Z</time>
        <extensions>
          <ns3:TrackPointExtension>
            <ns3:hr>92</ns3:hr>
            <ns3:cad>83</ns3:cad>
          </ns3:TrackPointExtension>
        </extensions>
      </trkpt>
      <trkpt lat="45.3128852136433124542236328125" lon="-70.898263938724994659423828125">
        <ele>606.79998779296875</ele>
        <time>2026-08-21T16:14:22.000Z</time>
        <extensions>
          <ns3:TrackPointExtension>
            <ns3:hr>92</ns3:hr>
            <ns3:cad>83</ns3:cad>
          </ns3:TrackPointExtension>
        </extensions>
      </trkpt>
      <trkpt lat="45.31288496218621730804443359375" lon="-70.89826486073434352874755859375">
        <ele>606.79998779296875</ele>
        <time>2026-08-21T16:14:23.000Z</time>
        <extensions>
          <ns3:TrackPointExtension>
            <ns3:hr>93</ns3:hr>
            <ns3:cad>75</ns3:cad>
          </ns3:TrackPointExtension>
        </extensions>
      </trkpt>
      <trkpt lat="45.31288437545299530029296875" lon="-70.89826519601047039031982421875">
        <ele>606.79998779296875</ele>
        <time>2026-08-21T16:14:24.000Z</time>
        <extensions>
          <ns3:TrackPointExtension>
            <ns3:hr>93</ns3:hr>
            <ns3:cad>75</ns3:cad>
          </ns3:TrackPointExtension>
        </extensions>
      </trkpt>
      <trkpt lat="45.312884710729122161865234375" lon="-70.89826871640980243682861328125">
        <ele>606.79998779296875</ele>
        <time>2026-08-21T16:14:25.000Z</time>
        <extensions>
          <ns3:TrackPointExtension>
            <ns3:hr>94</ns3:hr>
            <ns3:cad>62</ns3:cad>
          </ns3:TrackPointExtension>
        </extensions>
      </trkpt>
      <trkpt lat="45.31288244761526584625244140625" lon="-70.898270308971405029296875">
        <ele>606.79998779296875</ele>
        <time>2026-08-21T16:14:26.000Z</time>
        <extensions>
          <ns3:TrackPointExtension>
            <ns3:hr>96</ns3:hr>
            <ns3:cad>62</ns3:cad>
          </ns3:TrackPointExtension>
        </extensions>
      </trkpt>
      <trkpt lat="45.312880016863346099853515625" lon="-70.8982738293707370758056640625">
        <ele>606.79998779296875</ele>
        <time>2026-08-21T16:14:27.000Z</time>
        <extensions>
          <ns3:TrackPointExtension>
            <ns3:hr>97</ns3:hr>
            <ns3:cad>62</ns3:cad>
          </ns3:TrackPointExtension>
        </extensions>
      </trkpt>
      <trkpt lat="45.3128778375685214996337890625" lon="-70.8982748351991176605224609375">
        <ele>606.79998779296875</ele>
        <time>2026-08-21T16:14:28.000Z</time>
        <extensions>
          <ns3:TrackPointExtension>
            <ns3:hr>99</ns3:hr>
            <ns3:cad>62</ns3:cad>
          </ns3:TrackPointExtension>
        </extensions>
      </trkpt>
      <trkpt lat="45.312875322997570037841796875" lon="-70.8982755057513713836669921875">
        <ele>606.79998779296875</ele>
        <time>2026-08-21T16:14:29.000Z</time>
        <extensions>
          <ns3:TrackPointExtension>
            <ns3:hr>100</ns3:hr>
            <ns3:cad>62</ns3:cad>
          </ns3:TrackPointExtension>
        </extensions>
      </trkpt>
      <trkpt lat="45.31287574209272861480712890625" lon="-70.898271985352039337158203125">
        <ele>606.79998779296875</ele>
        <time>2026-08-21T16:14:30.000Z</time>
        <extensions>
          <ns3:TrackPointExtension>
            <ns3:hr>100</ns3:hr>
            <ns3:cad>0</ns3:cad>
          </ns3:TrackPointExtension>
        </extensions>
      </trkpt>
      <trkpt lat="45.3128821961581707000732421875" lon="-70.89826561510562896728515625">
        <ele>606.79998779296875</ele>
        <time>2026-08-21T16:14:31.000Z</time>
        <extensions>
          <ns3:TrackPointExtension>
            <ns3:hr>101</ns3:hr>
            <ns3:cad>0</ns3:cad>
          </ns3:TrackPointExtension>
        </extensions>
      </trkpt>
      <trkpt lat="45.3128821961581707000732421875" lon="-70.89826561510562896728515625">
        <ele>606.79998779296875</ele>
        <time>2026-08-21T16:14:32.000Z</time>
        <extensions>
          <ns3:TrackPointExtension>
            <ns3:hr>101</ns3:hr>
            <ns3:cad>0</ns3:cad>
          </ns3:TrackPointExtension>
        </extensions>
      </trkpt>
      <trkpt lat="45.3128775022923946380615234375" lon="-70.89827089570462703704833984375">
        <ele>606.79998779296875</ele>
        <time>2026-08-21T16:14:33.000Z</time>
        <extensions>
          <ns3:TrackPointExtension>
            <ns3:hr>101</ns3:hr>
            <ns3:cad>83</ns3:cad>
          </ns3:TrackPointExtension>
        </extensions>
      </trkpt>
      <trkpt lat="45.31287775374948978424072265625" lon="-70.8982684649527072906494140625">
        <ele>606.79998779296875</ele>
        <time>2026-08-21T16:14:34.000Z</time>
        <extensions>
          <ns3:TrackPointExtension>
            <ns3:hr>100</ns3:hr>
            <ns3:cad>83</ns3:cad>
          </ns3:TrackPointExtension>
        </extensions>
      </trkpt>
      <trkpt lat="45.3128821961581707000732421875" lon="-70.89826561510562896728515625">
        <ele>606.79998779296875</ele>
        <time>2026-08-21T16:14:35.000Z</time>
        <extensions>
          <ns3:TrackPointExtension>
            <ns3:hr>99</ns3:hr>
            <ns3:cad>0</ns3:cad>
          </ns3:TrackPointExtension>
        </extensions>
      </trkpt>
      <trkpt lat="45.3128821961581707000732421875" lon="-70.89826561510562896728515625">
        <ele>606.79998779296875</ele>
        <time>2026-08-21T16:14:36.000Z</time>
        <extensions>
          <ns3:TrackPointExtension>
            <ns3:hr>98</ns3:hr>
            <ns3:cad>75</ns3:cad>
          </ns3:TrackPointExtension>
        </extensions>
      </trkpt>
      <trkpt lat="45.31287766993045806884765625" lon="-70.89826905168592929840087890625">
        <ele>606.5999755859375</ele>
        <time>2026-08-21T16:14:37.000Z</time>
        <extensions>
          <ns3:TrackPointExtension>
            <ns3:hr>98</ns3:hr>
            <ns3:cad>75</ns3:cad>
          </ns3:TrackPointExtension>
        </extensions>
      </trkpt>
      <trkpt lat="45.3128771670162677764892578125" lon="-70.89826963841915130615234375">
        <ele>606.5999755859375</ele>
        <time>2026-08-21T16:14:38.000Z</time>
        <extensions>
          <ns3:TrackPointExtension>
            <ns3:hr>96</ns3:hr>
            <ns3:cad>0</ns3:cad>
          </ns3:TrackPointExtension>
        </extensions>
      </trkpt>
      <trkpt lat="45.3128821961581707000732421875" lon="-70.89826561510562896728515625">
        <ele>606.5999755859375</ele>
        <time>2026-08-21T16:14:39.000Z</time>
        <extensions>
          <ns3:TrackPointExtension>
            <ns3:hr>96</ns3:hr>
            <ns3:cad>0</ns3:cad>
          </ns3:TrackPointExtension>
        </extensions>
      </trkpt>
      <trkpt lat="45.3128821961581707000732421875" lon="-70.89826561510562896728515625">
        <ele>606.5999755859375</ele>
        <time>2026-08-21T16:14:40.000Z</time>
        <extensions>
          <ns3:TrackPointExtension>
            <ns3:hr>95</ns3:hr>
            <ns3:cad>0</ns3:cad>
          </ns3:TrackPointExtension>
        </extensions>
      </trkpt>
      <trkpt lat="45.3128821961581707000732421875" lon="-70.89826561510562896728515625">
        <ele>606.79998779296875</ele>
        <time>2026-08-21T16:14:41.000Z</time>
        <extensions>
          <ns3:TrackPointExtension>
            <ns3:hr>94</ns3:hr>
            <ns3:cad>0</ns3:cad>
          </ns3:TrackPointExtension>
        </extensions>
      </trkpt>
      <trkpt lat="45.3128821961581707000732421875" lon="-70.89826561510562896728515625">
        <ele>606.79998779296875</ele>
        <time>2026-08-21T16:14:42.000Z</time>
        <extensions>
          <ns3:TrackPointExtension>
            <ns3:hr>93</ns3:hr>
            <ns3:cad>0</ns3:cad>
          </ns3:TrackPointExtension>
        </extensions>
      </trkpt>
      <trkpt lat="45.3128821961581707000732421875" lon="-70.89826561510562896728515625">
        <ele>606.79998779296875</ele>
        <time>2026-08-21T16:14:43.000Z</time>
        <extensions>
          <ns3:TrackPointExtension>
            <ns3:hr>92</ns3:hr>
            <ns3:cad>0</ns3:cad>
          </ns3:TrackPointExtension>
        </extensions>
      </trkpt>
      <trkpt lat="45.3128821961581707000732421875" lon="-70.89826561510562896728515625">
        <ele>606.79998779296875</ele>
        <time>2026-08-21T16:14:44.000Z</time>
        <extensions>
          <ns3:TrackPointExtension>
            <ns3:hr>93</ns3:hr>
            <ns3:cad>0</ns3:cad>
          </ns3:TrackPointExtension>
        </extensions>
      </trkpt>
      <trkpt lat="45.3128821961581707000732421875" lon="-70.89826561510562896728515625">
        <ele>606.79998779296875</ele>
        <time>2026-08-21T16:14:45.000Z</time>
        <extensions>
          <ns3:TrackPointExtension>
            <ns3:hr>95</ns3:hr>
            <ns3:cad>0</ns3:cad>
          </ns3:TrackPointExtension>
        </extensions>
      </trkpt>
      <trkpt lat="45.3128821961581707000732421875" lon="-70.89826561510562896728515625">
        <ele>606.79998779296875</ele>
        <time>2026-08-21T16:14:46.000Z</time>
        <extensions>
          <ns3:TrackPointExtension>
            <ns3:hr>98</ns3:hr>
            <ns3:cad>0</ns3:cad>
          </ns3:TrackPointExtension>
        </extensions>
      </trkpt>
      <trkpt lat="45.3128821961581707000732421875" lon="-70.89826561510562896728515625">
        <ele>606.79998779296875</ele>
        <time>2026-08-21T16:14:47.000Z</time>
        <extensions>
          <ns3:TrackPointExtension>
            <ns3:hr>100</ns3:hr>
            <ns3:cad>0</ns3:cad>
          </ns3:TrackPointExtension>
        </extensions>
      </trkpt>
      <trkpt lat="45.3128821961581707000732421875" lon="-70.89826561510562896728515625">
        <ele>606.5999755859375</ele>
        <time>2026-08-21T16:14:48.000Z</time>
        <extensions>
          <ns3:TrackPointExtension>
            <ns3:hr>101</ns3:hr>
            <ns3:cad>0</ns3:cad>
          </ns3:TrackPointExtension>
        </extensions>
      </trkpt>
      <trkpt lat="45.3128821961581707000732421875" lon="-70.89826561510562896728515625">
        <ele>606.5999755859375</ele>
        <time>2026-08-21T16:14:49.000Z</time>
        <extensions>
          <ns3:TrackPointExtension>
            <ns3:hr>101</ns3:hr>
            <ns3:cad>0</ns3:cad>
          </ns3:TrackPointExtension>
        </extensions>
      </trkpt>
      <trkpt lat="45.3128821961581707000732421875" lon="-70.89826561510562896728515625">
        <ele>606.5999755859375</ele>
        <time>2026-08-21T16:14:50.000Z</time>
        <extensions>
          <ns3:TrackPointExtension>
            <ns3:hr>100</ns3:hr>
            <ns3:cad>0</ns3:cad>
          </ns3:TrackPointExtension>
        </extensions>
      </trkpt>
      <trkpt lat="45.3128821961581707000732421875" lon="-70.89826561510562896728515625">
        <ele>606.5999755859375</ele>
        <time>2026-08-21T16:14:51.000Z</time>
        <extensions>
          <ns3:TrackPointExtension>
            <ns3:hr>100</ns3:hr>
            <ns3:cad>0</ns3:cad>
          </ns3:TrackPointExtension>
        </extensions>
      </trkpt>
      <trkpt lat="45.3128821961581707000732421875" lon="-70.89826561510562896728515625">
        <ele>606.5999755859375</ele>
        <time>2026-08-21T16:14:52.000Z</time>
        <extensions>
          <ns3:TrackPointExtension>
            <ns3:hr>98</ns3:hr>
            <ns3:cad>0</ns3:cad>
          </ns3:TrackPointExtension>
        </extensions>
      </trkpt>
      <trkpt lat="45.3128821961581707000732421875" lon="-70.89826561510562896728515625">
        <ele>606.5999755859375</ele>
        <time>2026-08-21T16:14:53.000Z</time>
        <extensions>
          <ns3:TrackPointExtension>
            <ns3:hr>98</ns3:hr>
            <ns3:cad>0</ns3:cad>
          </ns3:TrackPointExtension>
        </extensions>
      </trkpt>
      <trkpt lat="45.3128821961581707000732421875" lon="-70.89826561510562896728515625">
        <ele>606.79998779296875</ele>
        <time>2026-08-21T16:14:54.000Z</time>
        <extensions>
          <ns3:TrackPointExtension>
            <ns3:hr>97</ns3:hr>
            <ns3:cad>0</ns3:cad>
          </ns3:TrackPointExtension>
        </extensions>
      </trkpt>
      <trkpt lat="45.3128821961581707000732421875" lon="-70.89826561510562896728515625">
        <ele>606.79998779296875</ele>
        <time>2026-08-21T16:14:55.000Z</time>
        <extensions>
          <ns3:TrackPointExtension>
            <ns3:hr>97</ns3:hr>
            <ns3:cad>0</ns3:cad>
          </ns3:TrackPointExtension>
        </extensions>
      </trkpt>
      <trkpt lat="45.3128821961581707000732421875" lon="-70.89826561510562896728515625">
        <ele>606.79998779296875</ele>
        <time>2026-08-21T16:14:56.000Z</time>
        <extensions>
          <ns3:TrackPointExtension>
            <ns3:hr>97</ns3:hr>
            <ns3:cad>0</ns3:cad>
          </ns3:TrackPointExtension>
        </extensions>
      </trkpt>
      <trkpt lat="45.3128821961581707000732421875" lon="-70.89826561510562896728515625">
        <ele>606.79998779296875</ele>
        <time>2026-08-21T16:14:57.000Z</time>
        <extensions>
          <ns3:TrackPointExtension>
            <ns3:hr>97</ns3:hr>
            <ns3:cad>0</ns3:cad>
          </ns3:TrackPointExtension>
        </extensions>
      </trkpt>
      <trkpt lat="45.3128821961581707000732421875" lon="-70.89826561510562896728515625">
        <ele>606.79998779296875</ele>
        <time>2026-08-21T16:14:58.000Z</time>
        <extensions>
          <ns3:TrackPointExtension>
            <ns3:hr>97</ns3:hr>
            <ns3:cad>0</ns3:cad>
          </ns3:TrackPointExtension>
        </extensions>
      </trkpt>
      <trkpt lat="45.3128821961581707000732421875" lon="-70.89826561510562896728515625">
        <ele>606.5999755859375</ele>
        <time>2026-08-21T16:14:59.000Z</time>
        <extensions>
          <ns3:TrackPointExtension>
            <ns3:hr>96</ns3:hr>
            <ns3:cad>0</ns3:cad>
          </ns3:TrackPointExtension>
        </extensions>
      </trkpt>
      <trkpt lat="45.3128821961581707000732421875" lon="-70.89826561510562896728515625">
        <ele>606.5999755859375</ele>
        <time>2026-08-21T16:15:00.000Z</time>
        <extensions>
          <ns3:TrackPointExtension>
            <ns3:hr>96</ns3:hr>
            <ns3:cad>0</ns3:cad>
          </ns3:TrackPointExtension>
        </extensions>
      </trkpt>
      <trkpt lat="45.3128821961581707000732421875" lon="-70.89826561510562896728515625">
        <ele>606.5999755859375</ele>
        <time>2026-08-21T16:15:01.000Z</time>
        <extensions>
          <ns3:TrackPointExtension>
            <ns3:hr>95</ns3:hr>
            <ns3:cad>0</ns3:cad>
          </ns3:TrackPointExtension>
        </extensions>
      </trkpt>
      <trkpt lat="45.3128821961581707000732421875" lon="-70.89826561510562896728515625">
        <ele>606.5999755859375</ele>
        <time>2026-08-21T16:15:02.000Z</time>
        <extensions>
          <ns3:TrackPointExtension>
            <ns3:hr>95</ns3:hr>
            <ns3:cad>0</ns3:cad>
          </ns3:TrackPointExtension>
        </extensions>
      </trkpt>
      <trkpt lat="45.3128821961581707000732421875" lon="-70.89826561510562896728515625">
        <ele>606.5999755859375</ele>
        <time>2026-08-21T16:15:03.000Z</time>
        <extensions>
          <ns3:TrackPointExtension>
            <ns3:hr>94</ns3:hr>
            <ns3:cad>0</ns3:cad>
          </ns3:TrackPointExtension>
        </extensions>
      </trkpt>
      <trkpt lat="45.3128821961581707000732421875" lon="-70.89826561510562896728515625">
        <ele>606.5999755859375</ele>
        <time>2026-08-21T16:15:04.000Z</time>
        <extensions>
          <ns3:TrackPointExtension>
            <ns3:hr>94</ns3:hr>
            <ns3:cad>0</ns3:cad>
          </ns3:TrackPointExtension>
        </extensions>
      </trkpt>
      <trkpt lat="45.3128821961581707000732421875" lon="-70.89826561510562896728515625">
        <ele>606.79998779296875</ele>
        <time>2026-08-21T16:15:05.000Z</time>
        <extensions>
          <ns3:TrackPointExtension>
            <ns3:hr>94</ns3:hr>
            <ns3:cad>0</ns3:cad>
          </ns3:TrackPointExtension>
        </extensions>
      </trkpt>
      <trkpt lat="45.3128821961581707000732421875" lon="-70.89826561510562896728515625">
        <ele>606.79998779296875</ele>
        <time>2026-08-21T16:15:06.000Z</time>
        <extensions>
          <ns3:TrackPointExtension>
            <ns3:hr>94</ns3:hr>
            <ns3:cad>0</ns3:cad>
          </ns3:TrackPointExtension>
        </extensions>
      </trkpt>
      <trkpt lat="45.3128821961581707000732421875" lon="-70.89826561510562896728515625">
        <ele>606.79998779296875</ele>
        <time>2026-08-21T16:15:07.000Z</time>
        <extensions>
          <ns3:TrackPointExtension>
            <ns3:hr>94</ns3:hr>
            <ns3:cad>0</ns3:cad>
          </ns3:TrackPointExtension>
        </extensions>
      </trkpt>
      <trkpt lat="45.3128821961581707000732421875" lon="-70.89826561510562896728515625">
        <ele>606.79998779296875</ele>
        <time>2026-08-21T16:15:08.000Z</time>
        <extensions>
          <ns3:TrackPointExtension>
            <ns3:hr>93</ns3:hr>
            <ns3:cad>0</ns3:cad>
          </ns3:TrackPointExtension>
        </extensions>
      </trkpt>
      <trkpt lat="45.3128821961581707000732421875" lon="-70.89826561510562896728515625">
        <ele>606.79998779296875</ele>
        <time>2026-08-21T16:15:09.000Z</time>
        <extensions>
          <ns3:TrackPointExtension>
            <ns3:hr>94</ns3:hr>
            <ns3:cad>0</ns3:cad>
          </ns3:TrackPointExtension>
        </extensions>
      </trkpt>
      <trkpt lat="45.3128821961581707000732421875" lon="-70.89826561510562896728515625">
        <ele>606.79998779296875</ele>
        <time>2026-08-21T16:15:10.000Z</time>
        <extensions>
          <ns3:TrackPointExtension>
            <ns3:hr>95</ns3:hr>
            <ns3:cad>0</ns3:cad>
          </ns3:TrackPointExtension>
        </extensions>
      </trkpt>
      <trkpt lat="45.3128821961581707000732421875" lon="-70.89826561510562896728515625">
        <ele>606.79998779296875</ele>
        <time>2026-08-21T16:15:11.000Z</time>
        <extensions>
          <ns3:TrackPointExtension>
            <ns3:hr>96</ns3:hr>
            <ns3:cad>0</ns3:cad>
          </ns3:TrackPointExtension>
        </extensions>
      </trkpt>
      <trkpt lat="45.3128821961581707000732421875" lon="-70.89826561510562896728515625">
        <ele>606.5999755859375</ele>
        <time>2026-08-21T16:15:12.000Z</time>
        <extensions>
          <ns3:TrackPointExtension>
            <ns3:hr>96</ns3:hr>
            <ns3:cad>0</ns3:cad>
          </ns3:TrackPointExtension>
        </extensions>
      </trkpt>
      <trkpt lat="45.3128821961581707000732421875" lon="-70.89826561510562896728515625">
        <ele>606.5999755859375</ele>
        <time>2026-08-21T16:15:13.000Z</time>
        <extensions>
          <ns3:TrackPointExtension>
            <ns3:hr>96</ns3:hr>
            <ns3:cad>0</ns3:cad>
          </ns3:TrackPointExtension>
        </extensions>
      </trkpt>
      <trkpt lat="45.3128821961581707000732421875" lon="-70.89826561510562896728515625">
        <ele>606.5999755859375</ele>
        <time>2026-08-21T16:15:14.000Z</time>
        <extensions>
          <ns3:TrackPointExtension>
            <ns3:hr>97</ns3:hr>
            <ns3:cad>0</ns3:cad>
          </ns3:TrackPointExtension>
        </extensions>
      </trkpt>
      <trkpt lat="45.3128821961581707000732421875" lon="-70.89826561510562896728515625">
        <ele>606.79998779296875</ele>
        <time>2026-08-21T16:15:15.000Z</time>
        <extensions>
          <ns3:TrackPointExtension>
            <ns3:hr>97</ns3:hr>
            <ns3:cad>0</ns3:cad>
          </ns3:TrackPointExtension>
        </extensions>
      </trkpt>
      <trkpt lat="45.3128821961581707000732421875" lon="-70.89826561510562896728515625">
        <ele>606.79998779296875</ele>
        <time>2026-08-21T16:15:16.000Z</time>
        <extensions>
          <ns3:TrackPointExtension>
            <ns3:hr>96</ns3:hr>
            <ns3:cad>0</ns3:cad>
          </ns3:TrackPointExtension>
        </extensions>
      </trkpt>
      <trkpt lat="45.3128821961581707000732421875" lon="-70.89826561510562896728515625">
        <ele>606.79998779296875</ele>
        <time>2026-08-21T16:15:17.000Z</time>
        <extensions>
          <ns3:TrackPointExtension>
            <ns3:hr>97</ns3:hr>
            <ns3:cad>0</ns3:cad>
          </ns3:TrackPointExtension>
        </extensions>
      </trkpt>
      <trkpt lat="45.3128821961581707000732421875" lon="-70.89826561510562896728515625">
        <ele>606.79998779296875</ele>
        <time>2026-08-21T16:15:18.000Z</time>
        <extensions>
          <ns3:TrackPointExtension>
            <ns3:hr>97</ns3:hr>
            <ns3:cad>0</ns3:cad>
          </ns3:TrackPointExtension>
        </extensions>
      </trkpt>
      <trkpt lat="45.3128821961581707000732421875" lon="-70.89826561510562896728515625">
        <ele>606.79998779296875</ele>
        <time>2026-08-21T16:15:19.000Z</time>
        <extensions>
          <ns3:TrackPointExtension>
            <ns3:hr>98</ns3:hr>
            <ns3:cad>0</ns3:cad>
          </ns3:TrackPointExtension>
        </extensions>
      </trkpt>
      <trkpt lat="45.3128821961581707000732421875" lon="-70.89826561510562896728515625">
        <ele>606.79998779296875</ele>
        <time>2026-08-21T16:15:20.000Z</time>
        <extensions>
          <ns3:TrackPointExtension>
            <ns3:hr>99</ns3:hr>
            <ns3:cad>0</ns3:cad>
          </ns3:TrackPointExtension>
        </extensions>
      </trkpt>
      <trkpt lat="45.3128821961581707000732421875" lon="-70.89826561510562896728515625">
        <ele>606.79998779296875</ele>
        <time>2026-08-21T16:15:21.000Z</time>
        <extensions>
          <ns3:TrackPointExtension>
            <ns3:hr>99</ns3:hr>
            <ns3:cad>0</ns3:cad>
          </ns3:TrackPointExtension>
        </extensions>
      </trkpt>
      <trkpt lat="45.312874652445316314697265625" lon="-70.8982637710869312286376953125">
        <ele>607</ele>
        <time>2026-08-21T16:15:22.000Z</time>
        <extensions>
          <ns3:TrackPointExtension>
            <ns3:hr>100</ns3:hr>
            <ns3:cad>111</ns3:cad>
          </ns3:TrackPointExtension>
        </extensions>
      </trkpt>
      <trkpt lat="45.312874652445316314697265625" lon="-70.8982600830495357513427734375">
        <ele>607</ele>
        <time>2026-08-21T16:15:23.000Z</time>
        <extensions>
          <ns3:TrackPointExtension>
            <ns3:hr>101</ns3:hr>
            <ns3:cad>111</ns3:cad>
          </ns3:TrackPointExtension>
        </extensions>
      </trkpt>
      <trkpt lat="45.31287473626434803009033203125" lon="-70.898263268172740936279296875">
        <ele>607</ele>
        <time>2026-08-21T16:15:24.000Z</time>
        <extensions>
          <ns3:TrackPointExtension>
            <ns3:hr>101</ns3:hr>
            <ns3:cad>61</ns3:cad>
          </ns3:TrackPointExtension>
        </extensions>
      </trkpt>
      <trkpt lat="45.312876999378204345703125" lon="-70.89826159179210662841796875">
        <ele>606.79998779296875</ele>
        <time>2026-08-21T16:15:25.000Z</time>
        <extensions>
          <ns3:TrackPointExtension>
            <ns3:hr>102</ns3:hr>
            <ns3:cad>0</ns3:cad>
          </ns3:TrackPointExtension>
        </extensions>
      </trkpt>
      <trkpt lat="45.31287624500691890716552734375" lon="-70.8982604183256626129150390625">
        <ele>606.79998779296875</ele>
        <time>2026-08-21T16:15:26.000Z</time>
        <extensions>
          <ns3:TrackPointExtension>
            <ns3:hr>102</ns3:hr>
            <ns3:cad>0</ns3:cad>
          </ns3:TrackPointExtension>
        </extensions>
      </trkpt>
      <trkpt lat="45.31287641264498233795166015625" lon="-70.898259580135345458984375">
        <ele>606.79998779296875</ele>
        <time>2026-08-21T16:15:27.000Z</time>
        <extensions>
          <ns3:TrackPointExtension>
            <ns3:hr>102</ns3:hr>
            <ns3:cad>0</ns3:cad>
          </ns3:TrackPointExtension>
        </extensions>
      </trkpt>
      <trkpt lat="45.31287523917853832244873046875" lon="-70.898259915411472320556640625">
        <ele>606.79998779296875</ele>
        <time>2026-08-21T16:15:28.000Z</time>
        <extensions>
          <ns3:TrackPointExtension>
            <ns3:hr>102</ns3:hr>
            <ns3:cad>0</ns3:cad>
          </ns3:TrackPointExtension>
        </extensions>
      </trkpt>
      <trkpt lat="45.31287339515984058380126953125" lon="-70.8982609212398529052734375">
        <ele>606.79998779296875</ele>
        <time>2026-08-21T16:15:29.000Z</time>
        <extensions>
          <ns3:TrackPointExtension>
            <ns3:hr>102</ns3:hr>
            <ns3:cad>0</ns3:cad>
          </ns3:TrackPointExtension>
        </extensions>
      </trkpt>
      <trkpt lat="45.3128697909414768218994140625" lon="-70.89825446717441082000732421875">
        <ele>606.79998779296875</ele>
        <time>2026-08-21T16:15:30.000Z</time>
        <extensions>
          <ns3:TrackPointExtension>
            <ns3:hr>101</ns3:hr>
            <ns3:cad>0</ns3:cad>
          </ns3:TrackPointExtension>
        </extensions>
      </trkpt>
      <trkpt lat="45.31286803074181079864501953125" lon="-70.8982533775269985198974609375">
        <ele>606.79998779296875</ele>
        <time>2026-08-21T16:15:31.000Z</time>
        <extensions>
          <ns3:TrackPointExtension>
            <ns3:hr>101</ns3:hr>
            <ns3:cad>0</ns3:cad>
          </ns3:TrackPointExtension>
        </extensions>
      </trkpt>
      <trkpt lat="45.31286803074181079864501953125" lon="-70.89825161732733249664306640625">
        <ele>606.79998779296875</ele>
        <time>2026-08-21T16:15:32.000Z</time>
        <extensions>
          <ns3:TrackPointExtension>
            <ns3:hr>100</ns3:hr>
            <ns3:cad>0</ns3:cad>
          </ns3:TrackPointExtension>
        </extensions>
      </trkpt>
      <trkpt lat="45.31286937184631824493408203125" lon="-70.89824876748025417327880859375">
        <ele>606.79998779296875</ele>
        <time>2026-08-21T16:15:33.000Z</time>
        <extensions>
          <ns3:TrackPointExtension>
            <ns3:hr>99</ns3:hr>
            <ns3:cad>0</ns3:cad>
          </ns3:TrackPointExtension>
        </extensions>
      </trkpt>
      <trkpt lat="45.3128691203892230987548828125" lon="-70.89824474416673183441162109375">
        <ele>606.79998779296875</ele>
        <time>2026-08-21T16:15:34.000Z</time>
        <extensions>
          <ns3:TrackPointExtension>
            <ns3:hr>100</ns3:hr>
            <ns3:cad>0</ns3:cad>
          </ns3:TrackPointExtension>
        </extensions>
      </trkpt>
      <trkpt lat="45.31287054531276226043701171875" lon="-70.8982449956238269805908203125">
        <ele>606.79998779296875</ele>
        <time>2026-08-21T16:15:35.000Z</time>
        <extensions>
          <ns3:TrackPointExtension>
            <ns3:hr>100</ns3:hr>
            <ns3:cad>40</ns3:cad>
          </ns3:TrackPointExtension>
        </extensions>
      </trkpt>
      <trkpt lat="45.3128729760646820068359375" lon="-70.89824675582349300384521484375">
        <ele>606.79998779296875</ele>
        <time>2026-08-21T16:15:36.000Z</time>
        <extensions>
          <ns3:TrackPointExtension>
            <ns3:hr>101</ns3:hr>
            <ns3:cad>40</ns3:cad>
          </ns3:TrackPointExtension>
        </extensions>
      </trkpt>
      <trkpt lat="45.31287725083529949188232421875" lon="-70.898250527679920196533203125">
        <ele>606.79998779296875</ele>
        <time>2026-08-21T16:15:37.000Z</time>
        <extensions>
          <ns3:TrackPointExtension>
            <ns3:hr>102</ns3:hr>
            <ns3:cad>40</ns3:cad>
          </ns3:TrackPointExtension>
        </extensions>
      </trkpt>
      <trkpt lat="45.3128798492252826690673828125" lon="-70.8982510305941104888916015625">
        <ele>606.79998779296875</ele>
        <time>2026-08-21T16:15:38.000Z</time>
        <extensions>
          <ns3:TrackPointExtension>
            <ns3:hr>103</ns3:hr>
            <ns3:cad>40</ns3:cad>
          </ns3:TrackPointExtension>
        </extensions>
      </trkpt>
      <trkpt lat="45.3128798492252826690673828125" lon="-70.89825111441314220428466796875">
        <ele>606.79998779296875</ele>
        <time>2026-08-21T16:15:39.000Z</time>
        <extensions>
          <ns3:TrackPointExtension>
            <ns3:hr>103</ns3:hr>
            <ns3:cad>0</ns3:cad>
          </ns3:TrackPointExtension>
        </extensions>
      </trkpt>
      <trkpt lat="45.3128821961581707000732421875" lon="-70.8982523716986179351806640625">
        <ele>606.79998779296875</ele>
        <time>2026-08-21T16:15:40.000Z</time>
        <extensions>
          <ns3:TrackPointExtension>
            <ns3:hr>101</ns3:hr>
            <ns3:cad>0</ns3:cad>
          </ns3:TrackPointExtension>
        </extensions>
      </trkpt>
      <trkpt lat="45.312882028520107269287109375" lon="-70.89825161732733249664306640625">
        <ele>606.79998779296875</ele>
        <time>2026-08-21T16:15:41.000Z</time>
        <extensions>
          <ns3:TrackPointExtension>
            <ns3:hr>99</ns3:hr>
            <ns3:cad>0</ns3:cad>
          </ns3:TrackPointExtension>
        </extensions>
      </trkpt>
      <trkpt lat="45.3128828667104244232177734375" lon="-70.898251868784427642822265625">
        <ele>606.79998779296875</ele>
        <time>2026-08-21T16:15:42.000Z</time>
        <extensions>
          <ns3:TrackPointExtension>
            <ns3:hr>98</ns3:hr>
            <ns3:cad>0</ns3:cad>
          </ns3:TrackPointExtension>
        </extensions>
      </trkpt>
      <trkpt lat="45.312883369624614715576171875" lon="-70.8982517011463642120361328125">
        <ele>606.79998779296875</ele>
        <time>2026-08-21T16:15:43.000Z</time>
        <extensions>
          <ns3:TrackPointExtension>
            <ns3:hr>97</ns3:hr>
            <ns3:cad>0</ns3:cad>
          </ns3:TrackPointExtension>
        </extensions>
      </trkpt>
      <trkpt lat="45.3128835372626781463623046875" lon="-70.89825061149895191192626953125">
        <ele>606.5999755859375</ele>
        <time>2026-08-21T16:15:44.000Z</time>
        <extensions>
          <ns3:TrackPointExtension>
            <ns3:hr>97</ns3:hr>
            <ns3:cad>0</ns3:cad>
          </ns3:TrackPointExtension>
        </extensions>
      </trkpt>
      <trkpt lat="45.31288529746234416961669921875" lon="-70.89825061149895191192626953125">
        <ele>606.5999755859375</ele>
        <time>2026-08-21T16:15:45.000Z</time>
        <extensions>
          <ns3:TrackPointExtension>
            <ns3:hr>97</ns3:hr>
            <ns3:cad>0</ns3:cad>
          </ns3:TrackPointExtension>
        </extensions>
      </trkpt>
      <trkpt lat="45.312880016863346099853515625" lon="-70.89825094677507877349853515625">
        <ele>606.5999755859375</ele>
        <time>2026-08-21T16:15:46.000Z</time>
        <extensions>
          <ns3:TrackPointExtension>
            <ns3:hr>97</ns3:hr>
            <ns3:cad>0</ns3:cad>
          </ns3:TrackPointExtension>
        </extensions>
      </trkpt>
      <trkpt lat="45.31288035213947296142578125" lon="-70.89825010858476161956787109375">
        <ele>606.5999755859375</ele>
        <time>2026-08-21T16:15:47.000Z</time>
        <extensions>
          <ns3:TrackPointExtension>
            <ns3:hr>96</ns3:hr>
            <ns3:cad>0</ns3:cad>
          </ns3:TrackPointExtension>
        </extensions>
      </trkpt>
      <trkpt lat="45.3128788433969020843505859375" lon="-70.89824952185153961181640625">
        <ele>606.5999755859375</ele>
        <time>2026-08-21T16:15:48.000Z</time>
        <extensions>
          <ns3:TrackPointExtension>
            <ns3:hr>96</ns3:hr>
            <ns3:cad>0</ns3:cad>
          </ns3:TrackPointExtension>
        </extensions>
      </trkpt>
      <trkpt lat="45.31287842430174350738525390625" lon="-70.8982490189373493194580078125">
        <ele>606.5999755859375</ele>
        <time>2026-08-21T16:15:49.000Z</time>
        <extensions>
          <ns3:TrackPointExtension>
            <ns3:hr>95</ns3:hr>
            <ns3:cad>71</ns3:cad>
          </ns3:TrackPointExtension>
        </extensions>
      </trkpt>
      <trkpt lat="45.3128778375685214996337890625" lon="-70.8982493542134761810302734375">
        <ele>606.5999755859375</ele>
        <time>2026-08-21T16:15:50.000Z</time>
        <extensions>
          <ns3:TrackPointExtension>
            <ns3:hr>95</ns3:hr>
            <ns3:cad>71</ns3:cad>
          </ns3:TrackPointExtension>
        </extensions>
      </trkpt>
      <trkpt lat="45.312878675758838653564453125" lon="-70.8982460014522075653076171875">
        <ele>606.5999755859375</ele>
        <time>2026-08-21T16:15:51.000Z</time>
        <extensions>
          <ns3:TrackPointExtension>
            <ns3:hr>94</ns3:hr>
            <ns3:cad>75</ns3:cad>
          </ns3:TrackPointExtension>
        </extensions>
      </trkpt>
      <trkpt lat="45.31287825666368007659912109375" lon="-70.8982475101947784423828125">
        <ele>606.79998779296875</ele>
        <time>2026-08-21T16:15:52.000Z</time>
        <extensions>
          <ns3:TrackPointExtension>
            <ns3:hr>94</ns3:hr>
            <ns3:cad>75</ns3:cad>
          </ns3:TrackPointExtension>
        </extensions>
      </trkpt>
      <trkpt lat="45.31287792138755321502685546875" lon="-70.89824843220412731170654296875">
        <ele>606.79998779296875</ele>
        <time>2026-08-21T16:15:53.000Z</time>
        <extensions>
          <ns3:TrackPointExtension>
            <ns3:hr>95</ns3:hr>
            <ns3:cad>75</ns3:cad>
          </ns3:TrackPointExtension>
        </extensions>
      </trkpt>
      <trkpt lat="45.31287792138755321502685546875" lon="-70.89824725873768329620361328125">
        <ele>606.79998779296875</ele>
        <time>2026-08-21T16:15:54.000Z</time>
        <extensions>
          <ns3:TrackPointExtension>
            <ns3:hr>96</ns3:hr>
            <ns3:cad>75</ns3:cad>
          </ns3:TrackPointExtension>
        </extensions>
      </trkpt>
      <trkpt lat="45.31287808902561664581298828125" lon="-70.8982473425567150115966796875">
        <ele>606.79998779296875</ele>
        <time>2026-08-21T16:15:55.000Z</time>
        <extensions>
          <ns3:TrackPointExtension>
            <ns3:hr>97</ns3:hr>
            <ns3:cad>75</ns3:cad>
          </ns3:TrackPointExtension>
        </extensions>
      </trkpt>
      <trkpt lat="45.31287825666368007659912109375" lon="-70.89824608527123928070068359375">
        <ele>606.79998779296875</ele>
        <time>2026-08-21T16:15:56.000Z</time>
        <extensions>
          <ns3:TrackPointExtension>
            <ns3:hr>98</ns3:hr>
            <ns3:cad>75</ns3:cad>
          </ns3:TrackPointExtension>
        </extensions>
      </trkpt>
      <trkpt lat="45.31287909485399723052978515625" lon="-70.8982456661760807037353515625">
        <ele>606.79998779296875</ele>
        <time>2026-08-21T16:15:57.000Z</time>
        <extensions>
          <ns3:TrackPointExtension>
            <ns3:hr>98</ns3:hr>
            <ns3:cad>75</ns3:cad>
          </ns3:TrackPointExtension>
        </extensions>
      </trkpt>
      <trkpt lat="45.31287825666368007659912109375" lon="-70.89824625290930271148681640625">
        <ele>606.79998779296875</ele>
        <time>2026-08-21T16:15:58.000Z</time>
        <extensions>
          <ns3:TrackPointExtension>
            <ns3:hr>99</ns3:hr>
            <ns3:cad>75</ns3:cad>
          </ns3:TrackPointExtension>
        </extensions>
      </trkpt>
      <trkpt lat="45.312876999378204345703125" lon="-70.8982448279857635498046875">
        <ele>606.79998779296875</ele>
        <time>2026-08-21T16:15:59.000Z</time>
        <extensions>
          <ns3:TrackPointExtension>
            <ns3:hr>99</ns3:hr>
            <ns3:cad>75</ns3:cad>
          </ns3:TrackPointExtension>
        </extensions>
      </trkpt>
      <trkpt lat="45.312876999378204345703125" lon="-70.8982429839670658111572265625">
        <ele>606.79998779296875</ele>
        <time>2026-08-21T16:16:00.000Z</time>
        <extensions>
          <ns3:TrackPointExtension>
            <ns3:hr>99</ns3:hr>
            <ns3:cad>75</ns3:cad>
          </ns3:TrackPointExtension>
        </extensions>
      </trkpt>
      <trkpt lat="45.31287741847336292266845703125" lon="-70.89824281632900238037109375">
        <ele>606.79998779296875</ele>
        <time>2026-08-21T16:16:01.000Z</time>
        <extensions>
          <ns3:TrackPointExtension>
            <ns3:hr>98</ns3:hr>
            <ns3:cad>0</ns3:cad>
          </ns3:TrackPointExtension>
        </extensions>
      </trkpt>
      <trkpt lat="45.31287758611142635345458984375" lon="-70.8982443250715732574462890625">
        <ele>606.79998779296875</ele>
        <time>2026-08-21T16:16:02.000Z</time>
        <extensions>
          <ns3:TrackPointExtension>
            <ns3:hr>98</ns3:hr>
            <ns3:cad>0</ns3:cad>
          </ns3:TrackPointExtension>
        </extensions>
      </trkpt>
      <trkpt lat="45.31287540681660175323486328125" lon="-70.89824491180479526519775390625">
        <ele>606.79998779296875</ele>
        <time>2026-08-21T16:16:03.000Z</time>
        <extensions>
          <ns3:TrackPointExtension>
            <ns3:hr>98</ns3:hr>
            <ns3:cad>43</ns3:cad>
          </ns3:TrackPointExtension>
        </extensions>
      </trkpt>
      <trkpt lat="45.3128741495311260223388671875" lon="-70.8982413075864315032958984375">
        <ele>606.79998779296875</ele>
        <time>2026-08-21T16:16:04.000Z</time>
        <extensions>
          <ns3:TrackPointExtension>
            <ns3:hr>99</ns3:hr>
            <ns3:cad>43</ns3:cad>
          </ns3:TrackPointExtension>
        </extensions>
      </trkpt>
      <trkpt lat="45.31287356279790401458740234375" lon="-70.89824038557708263397216796875">
        <ele>606.79998779296875</ele>
        <time>2026-08-21T16:16:05.000Z</time>
        <extensions>
          <ns3:TrackPointExtension>
            <ns3:hr>99</ns3:hr>
            <ns3:cad>43</ns3:cad>
          </ns3:TrackPointExtension>
        </extensions>
      </trkpt>
      <trkpt lat="45.312871299684047698974609375" lon="-70.8982416428625583648681640625">
        <ele>606.79998779296875</ele>
        <time>2026-08-21T16:16:06.000Z</time>
        <extensions>
          <ns3:TrackPointExtension>
            <ns3:hr>99</ns3:hr>
            <ns3:cad>43</ns3:cad>
          </ns3:TrackPointExtension>
        </extensions>
      </trkpt>
      <trkpt lat="45.31286953948438167572021484375" lon="-70.898242481052875518798828125">
        <ele>606.79998779296875</ele>
        <time>2026-08-21T16:16:07.000Z</time>
        <extensions>
          <ns3:TrackPointExtension>
            <ns3:hr>99</ns3:hr>
            <ns3:cad>43</ns3:cad>
          </ns3:TrackPointExtension>
        </extensions>
      </trkpt>
      <trkpt lat="45.3128687851130962371826171875" lon="-70.89824189431965351104736328125">
        <ele>606.79998779296875</ele>
        <time>2026-08-21T16:16:08.000Z</time>
        <extensions>
          <ns3:TrackPointExtension>
            <ns3:hr>99</ns3:hr>
            <ns3:cad>43</ns3:cad>
          </ns3:TrackPointExtension>
        </extensions>
      </trkpt>
      <trkpt lat="45.3128674440085887908935546875" lon="-70.89824155904352664947509765625">
        <ele>606.79998779296875</ele>
        <time>2026-08-21T16:16:09.000Z</time>
        <extensions>
          <ns3:TrackPointExtension>
            <ns3:hr>99</ns3:hr>
            <ns3:cad>57</ns3:cad>
          </ns3:TrackPointExtension>
        </extensions>
      </trkpt>
      <trkpt lat="45.3128674440085887908935546875" lon="-70.8982408046722412109375">
        <ele>606.79998779296875</ele>
        <time>2026-08-21T16:16:10.000Z</time>
        <extensions>
          <ns3:TrackPointExtension>
            <ns3:hr>99</ns3:hr>
            <ns3:cad>57</ns3:cad>
          </ns3:TrackPointExtension>
        </extensions>
      </trkpt>
      <trkpt lat="45.31287121586501598358154296875" lon="-70.89823787100613117218017578125">
        <ele>606.79998779296875</ele>
        <time>2026-08-21T16:16:11.000Z</time>
        <extensions>
          <ns3:TrackPointExtension>
            <ns3:hr>99</ns3:hr>
            <ns3:cad>57</ns3:cad>
          </ns3:TrackPointExtension>
        </extensions>
      </trkpt>
      <trkpt lat="45.31286953948438167572021484375" lon="-70.89823879301548004150390625">
        <ele>606.79998779296875</ele>
        <time>2026-08-21T16:16:12.000Z</time>
        <extensions>
          <ns3:TrackPointExtension>
            <ns3:hr>99</ns3:hr>
            <ns3:cad>57</ns3:cad>
          </ns3:TrackPointExtension>
        </extensions>
      </trkpt>
      <trkpt lat="45.312871970236301422119140625" lon="-70.89823870919644832611083984375">
        <ele>606.79998779296875</ele>
        <time>2026-08-21T16:16:13.000Z</time>
        <extensions>
          <ns3:TrackPointExtension>
            <ns3:hr>99</ns3:hr>
            <ns3:cad>57</ns3:cad>
          </ns3:TrackPointExtension>
        </extensions>
      </trkpt>
      <trkpt lat="45.31287272460758686065673828125" lon="-70.89823854155838489532470703125">
        <ele>606.79998779296875</ele>
        <time>2026-08-21T16:16:14.000Z</time>
        <extensions>
          <ns3:TrackPointExtension>
            <ns3:hr>99</ns3:hr>
            <ns3:cad>57</ns3:cad>
          </ns3:TrackPointExtension>
        </extensions>
      </trkpt>
      <trkpt lat="45.3128724731504917144775390625" lon="-70.8982392959296703338623046875">
        <ele>606.79998779296875</ele>
        <time>2026-08-21T16:16:15.000Z</time>
        <extensions>
          <ns3:TrackPointExtension>
            <ns3:hr>99</ns3:hr>
            <ns3:cad>57</ns3:cad>
          </ns3:TrackPointExtension>
        </extensions>
      </trkpt>
      <trkpt lat="45.31287406571209430694580078125" lon="-70.89823703281581401824951171875">
        <ele>606.79998779296875</ele>
        <time>2026-08-21T16:16:16.000Z</time>
        <extensions>
          <ns3:TrackPointExtension>
            <ns3:hr>98</ns3:hr>
            <ns3:cad>0</ns3:cad>
          </ns3:TrackPointExtension>
        </extensions>
      </trkpt>
      <trkpt lat="45.31287490390241146087646484375" lon="-70.89823611080646514892578125">
        <ele>606.79998779296875</ele>
        <time>2026-08-21T16:16:17.000Z</time>
        <extensions>
          <ns3:TrackPointExtension>
            <ns3:hr>98</ns3:hr>
            <ns3:cad>0</ns3:cad>
          </ns3:TrackPointExtension>
        </extensions>
      </trkpt>
      <trkpt lat="45.31287540681660175323486328125" lon="-70.898237116634845733642578125">
        <ele>606.79998779296875</ele>
        <time>2026-08-21T16:16:18.000Z</time>
        <extensions>
          <ns3:TrackPointExtension>
            <ns3:hr>98</ns3:hr>
            <ns3:cad>0</ns3:cad>
          </ns3:TrackPointExtension>
        </extensions>
      </trkpt>
      <trkpt lat="45.31287641264498233795166015625" lon="-70.8982382901012897491455078125">
        <ele>606.79998779296875</ele>
        <time>2026-08-21T16:16:19.000Z</time>
        <extensions>
          <ns3:TrackPointExtension>
            <ns3:hr>96</ns3:hr>
            <ns3:cad>0</ns3:cad>
          </ns3:TrackPointExtension>
        </extensions>
      </trkpt>
      <trkpt lat="45.3128764964640140533447265625" lon="-70.89823820628225803375244140625">
        <ele>606.79998779296875</ele>
        <time>2026-08-21T16:16:20.000Z</time>
        <extensions>
          <ns3:TrackPointExtension>
            <ns3:hr>97</ns3:hr>
            <ns3:cad>0</ns3:cad>
          </ns3:TrackPointExtension>
        </extensions>
      </trkpt>
      <trkpt lat="45.31287523917853832244873046875" lon="-70.89823837392032146453857421875">
        <ele>606.79998779296875</ele>
        <time>2026-08-21T16:16:21.000Z</time>
        <extensions>
          <ns3:TrackPointExtension>
            <ns3:hr>97</ns3:hr>
            <ns3:cad>0</ns3:cad>
          </ns3:TrackPointExtension>
        </extensions>
      </trkpt>
      <trkpt lat="45.31287725083529949188232421875" lon="-70.89824013411998748779296875">
        <ele>606.79998779296875</ele>
        <time>2026-08-21T16:16:22.000Z</time>
        <extensions>
          <ns3:TrackPointExtension>
            <ns3:hr>97</ns3:hr>
            <ns3:cad>0</ns3:cad>
          </ns3:TrackPointExtension>
        </extensions>
      </trkpt>
      <trkpt lat="45.31287758611142635345458984375" lon="-70.89824105612933635711669921875">
        <ele>606.79998779296875</ele>
        <time>2026-08-21T16:16:23.000Z</time>
        <extensions>
          <ns3:TrackPointExtension>
            <ns3:hr>97</ns3:hr>
            <ns3:cad>0</ns3:cad>
          </ns3:TrackPointExtension>
        </extensions>
      </trkpt>
      <trkpt lat="45.3128783404827117919921875" lon="-70.89824147522449493408203125">
        <ele>606.79998779296875</ele>
        <time>2026-08-21T16:16:24.000Z</time>
        <extensions>
          <ns3:TrackPointExtension>
            <ns3:hr>96</ns3:hr>
            <ns3:cad>0</ns3:cad>
          </ns3:TrackPointExtension>
        </extensions>
      </trkpt>
      <trkpt lat="45.31288362108170986175537109375" lon="-70.8982429839670658111572265625">
        <ele>606.79998779296875</ele>
        <time>2026-08-21T16:16:25.000Z</time>
        <extensions>
          <ns3:TrackPointExtension>
            <ns3:hr>96</ns3:hr>
            <ns3:cad>0</ns3:cad>
          </ns3:TrackPointExtension>
        </extensions>
      </trkpt>
      <trkpt lat="45.31288747675716876983642578125" lon="-70.898242481052875518798828125">
        <ele>606.79998779296875</ele>
        <time>2026-08-21T16:16:26.000Z</time>
        <extensions>
          <ns3:TrackPointExtension>
            <ns3:hr>96</ns3:hr>
            <ns3:cad>0</ns3:cad>
          </ns3:TrackPointExtension>
        </extensions>
      </trkpt>
      <trkpt lat="45.3128865547478199005126953125" lon="-70.89824122376739978790283203125">
        <ele>606.79998779296875</ele>
        <time>2026-08-21T16:16:27.000Z</time>
        <extensions>
          <ns3:TrackPointExtension>
            <ns3:hr>97</ns3:hr>
            <ns3:cad>0</ns3:cad>
          </ns3:TrackPointExtension>
        </extensions>
      </trkpt>
      <trkpt lat="45.3128828667104244232177734375" lon="-70.89824373833835124969482421875">
        <ele>606.79998779296875</ele>
        <time>2026-08-21T16:16:28.000Z</time>
        <extensions>
          <ns3:TrackPointExtension>
            <ns3:hr>97</ns3:hr>
            <ns3:cad>0</ns3:cad>
          </ns3:TrackPointExtension>
        </extensions>
      </trkpt>
      <trkpt lat="45.31288110651075839996337890625" lon="-70.898243822157382965087890625">
        <ele>606.79998779296875</ele>
        <time>2026-08-21T16:16:29.000Z</time>
        <extensions>
          <ns3:TrackPointExtension>
            <ns3:hr>97</ns3:hr>
            <ns3:cad>0</ns3:cad>
          </ns3:TrackPointExtension>
        </extensions>
      </trkpt>
      <trkpt lat="45.3128791786730289459228515625" lon="-70.89824440889060497283935546875">
        <ele>606.79998779296875</ele>
        <time>2026-08-21T16:16:30.000Z</time>
        <extensions>
          <ns3:TrackPointExtension>
            <ns3:hr>97</ns3:hr>
            <ns3:cad>0</ns3:cad>
          </ns3:TrackPointExtension>
        </extensions>
      </trkpt>
      <trkpt lat="45.31287909485399723052978515625" lon="-70.89824457652866840362548828125">
        <ele>606.79998779296875</ele>
        <time>2026-08-21T16:16:31.000Z</time>
        <extensions>
          <ns3:TrackPointExtension>
            <ns3:hr>96</ns3:hr>
            <ns3:cad>0</ns3:cad>
          </ns3:TrackPointExtension>
        </extensions>
      </trkpt>
      <trkpt lat="45.31287708319723606109619140625" lon="-70.89824658818542957305908203125">
        <ele>606.79998779296875</ele>
        <time>2026-08-21T16:16:32.000Z</time>
        <extensions>
          <ns3:TrackPointExtension>
            <ns3:hr>95</ns3:hr>
            <ns3:cad>0</ns3:cad>
          </ns3:TrackPointExtension>
        </extensions>
      </trkpt>
      <trkpt lat="45.3128798492252826690673828125" lon="-70.89824675582349300384521484375">
        <ele>606.79998779296875</ele>
        <time>2026-08-21T16:16:33.000Z</time>
        <extensions>
          <ns3:TrackPointExtension>
            <ns3:hr>95</ns3:hr>
            <ns3:cad>0</ns3:cad>
          </ns3:TrackPointExtension>
        </extensions>
      </trkpt>
      <trkpt lat="45.3128818608820438385009765625" lon="-70.8982490189373493194580078125">
        <ele>606.79998779296875</ele>
        <time>2026-08-21T16:16:34.000Z</time>
        <extensions>
          <ns3:TrackPointExtension>
            <ns3:hr>95</ns3:hr>
            <ns3:cad>0</ns3:cad>
          </ns3:TrackPointExtension>
        </extensions>
      </trkpt>
      <trkpt lat="45.3128821961581707000732421875" lon="-70.89825027622282505035400390625">
        <ele>606.79998779296875</ele>
        <time>2026-08-21T16:16:35.000Z</time>
        <extensions>
          <ns3:TrackPointExtension>
            <ns3:hr>95</ns3:hr>
            <ns3:cad>0</ns3:cad>
          </ns3:TrackPointExtension>
        </extensions>
      </trkpt>
      <trkpt lat="45.31288244761526584625244140625" lon="-70.898253209888935089111328125">
        <ele>606.79998779296875</ele>
        <time>2026-08-21T16:16:36.000Z</time>
        <extensions>
          <ns3:TrackPointExtension>
            <ns3:hr>95</ns3:hr>
            <ns3:cad>0</ns3:cad>
          </ns3:TrackPointExtension>
        </extensions>
      </trkpt>
      <trkpt lat="45.3128815256059169769287109375" lon="-70.8982550539076328277587890625">
        <ele>606.79998779296875</ele>
        <time>2026-08-21T16:16:37.000Z</time>
        <extensions>
          <ns3:TrackPointExtension>
            <ns3:hr>95</ns3:hr>
            <ns3:cad>0</ns3:cad>
          </ns3:TrackPointExtension>
        </extensions>
      </trkpt>
      <trkpt lat="45.3128942660987377166748046875" lon="-70.89826117269694805145263671875">
        <ele>606.79998779296875</ele>
        <time>2026-08-21T16:16:38.000Z</time>
        <extensions>
          <ns3:TrackPointExtension>
            <ns3:hr>95</ns3:hr>
            <ns3:cad>0</ns3:cad>
          </ns3:TrackPointExtension>
        </extensions>
      </trkpt>
      <trkpt lat="45.31288999132812023162841796875" lon="-70.89825966395437717437744140625">
        <ele>606.79998779296875</ele>
        <time>2026-08-21T16:16:39.000Z</time>
        <extensions>
          <ns3:TrackPointExtension>
            <ns3:hr>95</ns3:hr>
            <ns3:cad>0</ns3:cad>
          </ns3:TrackPointExtension>
        </extensions>
      </trkpt>
      <trkpt lat="45.3128862194716930389404296875" lon="-70.8982577361166477203369140625">
        <ele>606.79998779296875</ele>
        <time>2026-08-21T16:16:40.000Z</time>
        <extensions>
          <ns3:TrackPointExtension>
            <ns3:hr>95</ns3:hr>
            <ns3:cad>0</ns3:cad>
          </ns3:TrackPointExtension>
        </extensions>
      </trkpt>
      <trkpt lat="45.3128837049007415771484375" lon="-70.89825530536472797393798828125">
        <ele>606.79998779296875</ele>
        <time>2026-08-21T16:16:41.000Z</time>
        <extensions>
          <ns3:TrackPointExtension>
            <ns3:hr>94</ns3:hr>
            <ns3:cad>0</ns3:cad>
          </ns3:TrackPointExtension>
        </extensions>
      </trkpt>
      <trkpt lat="45.31288169324398040771484375" lon="-70.898255221545696258544921875">
        <ele>606.79998779296875</ele>
        <time>2026-08-21T16:16:42.000Z</time>
        <extensions>
          <ns3:TrackPointExtension>
            <ns3:hr>94</ns3:hr>
            <ns3:cad>0</ns3:cad>
          </ns3:TrackPointExtension>
        </extensions>
      </trkpt>
      <trkpt lat="45.31288035213947296142578125" lon="-70.8982533775269985198974609375">
        <ele>606.79998779296875</ele>
        <time>2026-08-21T16:16:43.000Z</time>
        <extensions>
          <ns3:TrackPointExtension>
            <ns3:hr>94</ns3:hr>
            <ns3:cad>0</ns3:cad>
          </ns3:TrackPointExtension>
        </extensions>
      </trkpt>
      <trkpt lat="45.3128791786730289459228515625" lon="-70.89824440889060497283935546875">
        <ele>606.79998779296875</ele>
        <time>2026-08-21T16:16:44.000Z</time>
        <extensions>
          <ns3:TrackPointExtension>
            <ns3:hr>95</ns3:hr>
            <ns3:cad>0</ns3:cad>
          </ns3:TrackPointExtension>
        </extensions>
      </trkpt>
      <trkpt lat="45.3128791786730289459228515625" lon="-70.89824440889060497283935546875">
        <ele>606.79998779296875</ele>
        <time>2026-08-21T16:16:45.000Z</time>
        <extensions>
          <ns3:TrackPointExtension>
            <ns3:hr>96</ns3:hr>
            <ns3:cad>0</ns3:cad>
          </ns3:TrackPointExtension>
        </extensions>
      </trkpt>
      <trkpt lat="45.3128791786730289459228515625" lon="-70.89824440889060497283935546875">
        <ele>606.79998779296875</ele>
        <time>2026-08-21T16:16:46.000Z</time>
        <extensions>
          <ns3:TrackPointExtension>
            <ns3:hr>96</ns3:hr>
            <ns3:cad>0</ns3:cad>
          </ns3:TrackPointExtension>
        </extensions>
      </trkpt>
      <trkpt lat="45.3128791786730289459228515625" lon="-70.89824440889060497283935546875">
        <ele>606.79998779296875</ele>
        <time>2026-08-21T16:16:47.000Z</time>
        <extensions>
          <ns3:TrackPointExtension>
            <ns3:hr>96</ns3:hr>
            <ns3:cad>0</ns3:cad>
          </ns3:TrackPointExtension>
        </extensions>
      </trkpt>
      <trkpt lat="45.3128791786730289459228515625" lon="-70.89824440889060497283935546875">
        <ele>606.79998779296875</ele>
        <time>2026-08-21T16:16:48.000Z</time>
        <extensions>
          <ns3:TrackPointExtension>
            <ns3:hr>97</ns3:hr>
            <ns3:cad>0</ns3:cad>
          </ns3:TrackPointExtension>
        </extensions>
      </trkpt>
      <trkpt lat="45.3128791786730289459228515625" lon="-70.89824440889060497283935546875">
        <ele>606.79998779296875</ele>
        <time>2026-08-21T16:16:49.000Z</time>
        <extensions>
          <ns3:TrackPointExtension>
            <ns3:hr>97</ns3:hr>
            <ns3:cad>0</ns3:cad>
          </ns3:TrackPointExtension>
        </extensions>
      </trkpt>
      <trkpt lat="45.3128791786730289459228515625" lon="-70.89824440889060497283935546875">
        <ele>606.79998779296875</ele>
        <time>2026-08-21T16:16:50.000Z</time>
        <extensions>
          <ns3:TrackPointExtension>
            <ns3:hr>97</ns3:hr>
            <ns3:cad>0</ns3:cad>
          </ns3:TrackPointExtension>
        </extensions>
      </trkpt>
      <trkpt lat="45.3128791786730289459228515625" lon="-70.89824440889060497283935546875">
        <ele>606.79998779296875</ele>
        <time>2026-08-21T16:16:51.000Z</time>
        <extensions>
          <ns3:TrackPointExtension>
            <ns3:hr>96</ns3:hr>
            <ns3:cad>0</ns3:cad>
          </ns3:TrackPointExtension>
        </extensions>
      </trkpt>
      <trkpt lat="45.3128791786730289459228515625" lon="-70.89824440889060497283935546875">
        <ele>606.79998779296875</ele>
        <time>2026-08-21T16:16:52.000Z</time>
        <extensions>
          <ns3:TrackPointExtension>
            <ns3:hr>95</ns3:hr>
            <ns3:cad>0</ns3:cad>
          </ns3:TrackPointExtension>
        </extensions>
      </trkpt>
      <trkpt lat="45.3128791786730289459228515625" lon="-70.89824440889060497283935546875">
        <ele>606.79998779296875</ele>
        <time>2026-08-21T16:16:53.000Z</time>
        <extensions>
          <ns3:TrackPointExtension>
            <ns3:hr>95</ns3:hr>
            <ns3:cad>0</ns3:cad>
          </ns3:TrackPointExtension>
        </extensions>
      </trkpt>
      <trkpt lat="45.3128791786730289459228515625" lon="-70.89824440889060497283935546875">
        <ele>606.79998779296875</ele>
        <time>2026-08-21T16:16:54.000Z</time>
        <extensions>
          <ns3:TrackPointExtension>
            <ns3:hr>95</ns3:hr>
            <ns3:cad>0</ns3:cad>
          </ns3:TrackPointExtension>
        </extensions>
      </trkpt>
      <trkpt lat="45.3128791786730289459228515625" lon="-70.89824440889060497283935546875">
        <ele>606.79998779296875</ele>
        <time>2026-08-21T16:16:55.000Z</time>
        <extensions>
          <ns3:TrackPointExtension>
            <ns3:hr>94</ns3:hr>
            <ns3:cad>0</ns3:cad>
          </ns3:TrackPointExtension>
        </extensions>
      </trkpt>
      <trkpt lat="45.3128791786730289459228515625" lon="-70.89824440889060497283935546875">
        <ele>606.79998779296875</ele>
        <time>2026-08-21T16:16:56.000Z</time>
        <extensions>
          <ns3:TrackPointExtension>
            <ns3:hr>95</ns3:hr>
            <ns3:cad>0</ns3:cad>
          </ns3:TrackPointExtension>
        </extensions>
      </trkpt>
      <trkpt lat="45.3128791786730289459228515625" lon="-70.89824440889060497283935546875">
        <ele>606.79998779296875</ele>
        <time>2026-08-21T16:16:57.000Z</time>
        <extensions>
          <ns3:TrackPointExtension>
            <ns3:hr>95</ns3:hr>
            <ns3:cad>0</ns3:cad>
          </ns3:TrackPointExtension>
        </extensions>
      </trkpt>
      <trkpt lat="45.3128791786730289459228515625" lon="-70.89824440889060497283935546875">
        <ele>606.79998779296875</ele>
        <time>2026-08-21T16:16:58.000Z</time>
        <extensions>
          <ns3:TrackPointExtension>
            <ns3:hr>95</ns3:hr>
            <ns3:cad>0</ns3:cad>
          </ns3:TrackPointExtension>
        </extensions>
      </trkpt>
      <trkpt lat="45.3128791786730289459228515625" lon="-70.89824440889060497283935546875">
        <ele>606.79998779296875</ele>
        <time>2026-08-21T16:16:59.000Z</time>
        <extensions>
          <ns3:TrackPointExtension>
            <ns3:hr>96</ns3:hr>
            <ns3:cad>0</ns3:cad>
          </ns3:TrackPointExtension>
        </extensions>
      </trkpt>
      <trkpt lat="45.3128791786730289459228515625" lon="-70.89824440889060497283935546875">
        <ele>606.79998779296875</ele>
        <time>2026-08-21T16:17:00.000Z</time>
        <extensions>
          <ns3:TrackPointExtension>
            <ns3:hr>95</ns3:hr>
            <ns3:cad>0</ns3:cad>
          </ns3:TrackPointExtension>
        </extensions>
      </trkpt>
      <trkpt lat="45.31288278289139270782470703125" lon="-70.89825597591698169708251953125">
        <ele>607</ele>
        <time>2026-08-21T16:17:01.000Z</time>
        <extensions>
          <ns3:TrackPointExtension>
            <ns3:hr>95</ns3:hr>
            <ns3:cad>0</ns3:cad>
          </ns3:TrackPointExtension>
        </extensions>
      </trkpt>
      <trkpt lat="45.3128805197775363922119140625" lon="-70.89826033450663089752197265625">
        <ele>607</ele>
        <time>2026-08-21T16:17:02.000Z</time>
        <extensions>
          <ns3:TrackPointExtension>
            <ns3:hr>95</ns3:hr>
            <ns3:cad>0</ns3:cad>
          </ns3:TrackPointExtension>
        </extensions>
      </trkpt>
      <trkpt lat="45.3128778375685214996337890625" lon="-70.8982600830495357513427734375">
        <ele>607</ele>
        <time>2026-08-21T16:17:03.000Z</time>
        <extensions>
          <ns3:TrackPointExtension>
            <ns3:hr>94</ns3:hr>
            <ns3:cad>0</ns3:cad>
          </ns3:TrackPointExtension>
        </extensions>
      </trkpt>
      <trkpt lat="45.312878675758838653564453125" lon="-70.89826268143951892852783203125">
        <ele>606.79998779296875</ele>
        <time>2026-08-21T16:17:04.000Z</time>
        <extensions>
          <ns3:TrackPointExtension>
            <ns3:hr>94</ns3:hr>
            <ns3:cad>0</ns3:cad>
          </ns3:TrackPointExtension>
        </extensions>
      </trkpt>
      <trkpt lat="45.31288512982428073883056640625" lon="-70.8982631005346775054931640625">
        <ele>606.79998779296875</ele>
        <time>2026-08-21T16:17:05.000Z</time>
        <extensions>
          <ns3:TrackPointExtension>
            <ns3:hr>94</ns3:hr>
            <ns3:cad>0</ns3:cad>
          </ns3:TrackPointExtension>
        </extensions>
      </trkpt>
      <trkpt lat="45.3128838725388050079345703125" lon="-70.89826402254402637481689453125">
        <ele>606.79998779296875</ele>
        <time>2026-08-21T16:17:06.000Z</time>
        <extensions>
          <ns3:TrackPointExtension>
            <ns3:hr>93</ns3:hr>
            <ns3:cad>0</ns3:cad>
          </ns3:TrackPointExtension>
        </extensions>
      </trkpt>
      <trkpt lat="45.312885381281375885009765625" lon="-70.89826351962983608245849609375">
        <ele>606.79998779296875</ele>
        <time>2026-08-21T16:17:07.000Z</time>
        <extensions>
          <ns3:TrackPointExtension>
            <ns3:hr>93</ns3:hr>
            <ns3:cad>0</ns3:cad>
          </ns3:TrackPointExtension>
        </extensions>
      </trkpt>
      <trkpt lat="45.31288580037653446197509765625" lon="-70.898265279829502105712890625">
        <ele>606.79998779296875</ele>
        <time>2026-08-21T16:17:08.000Z</time>
        <extensions>
          <ns3:TrackPointExtension>
            <ns3:hr>92</ns3:hr>
            <ns3:cad>0</ns3:cad>
          </ns3:TrackPointExtension>
        </extensions>
      </trkpt>
      <trkpt lat="45.31288580037653446197509765625" lon="-70.89826519601047039031982421875">
        <ele>606.79998779296875</ele>
        <time>2026-08-21T16:17:09.000Z</time>
        <extensions>
          <ns3:TrackPointExtension>
            <ns3:hr>92</ns3:hr>
            <ns3:cad>0</ns3:cad>
          </ns3:TrackPointExtension>
        </extensions>
      </trkpt>
      <trkpt lat="45.31288580037653446197509765625" lon="-70.89826519601047039031982421875">
        <ele>607</ele>
        <time>2026-08-21T16:17:10.000Z</time>
        <extensions>
          <ns3:TrackPointExtension>
            <ns3:hr>92</ns3:hr>
            <ns3:cad>0</ns3:cad>
          </ns3:TrackPointExtension>
        </extensions>
      </trkpt>
      <trkpt lat="45.31288580037653446197509765625" lon="-70.89826519601047039031982421875">
        <ele>607</ele>
        <time>2026-08-21T16:17:11.000Z</time>
        <extensions>
          <ns3:TrackPointExtension>
            <ns3:hr>91</ns3:hr>
            <ns3:cad>0</ns3:cad>
          </ns3:TrackPointExtension>
        </extensions>
      </trkpt>
      <trkpt lat="45.31288580037653446197509765625" lon="-70.89826519601047039031982421875">
        <ele>607</ele>
        <time>2026-08-21T16:17:12.000Z</time>
        <extensions>
          <ns3:TrackPointExtension>
            <ns3:hr>90</ns3:hr>
            <ns3:cad>0</ns3:cad>
          </ns3:TrackPointExtension>
        </extensions>
      </trkpt>
      <trkpt lat="45.31288580037653446197509765625" lon="-70.89826519601047039031982421875">
        <ele>607</ele>
        <time>2026-08-21T16:17:13.000Z</time>
        <extensions>
          <ns3:TrackPointExtension>
            <ns3:hr>89</ns3:hr>
            <ns3:cad>0</ns3:cad>
          </ns3:TrackPointExtension>
        </extensions>
      </trkpt>
      <trkpt lat="45.3128855489194393157958984375" lon="-70.89826536364853382110595703125">
        <ele>607</ele>
        <time>2026-08-21T16:17:14.000Z</time>
        <extensions>
          <ns3:TrackPointExtension>
            <ns3:hr>89</ns3:hr>
            <ns3:cad>0</ns3:cad>
          </ns3:TrackPointExtension>
        </extensions>
      </trkpt>
      <trkpt lat="45.31288169324398040771484375" lon="-70.89826301671564579010009765625">
        <ele>607</ele>
        <time>2026-08-21T16:17:15.000Z</time>
        <extensions>
          <ns3:TrackPointExtension>
            <ns3:hr>89</ns3:hr>
            <ns3:cad>0</ns3:cad>
          </ns3:TrackPointExtension>
        </extensions>
      </trkpt>
      <trkpt lat="45.3128842078149318695068359375" lon="-70.89826771058142185211181640625">
        <ele>607</ele>
        <time>2026-08-21T16:17:16.000Z</time>
        <extensions>
          <ns3:TrackPointExtension>
            <ns3:hr>88</ns3:hr>
            <ns3:cad>0</ns3:cad>
          </ns3:TrackPointExtension>
        </extensions>
      </trkpt>
      <trkpt lat="45.312888734042644500732421875" lon="-70.89828011579811573028564453125">
        <ele>607.20001220703125</ele>
        <time>2026-08-21T16:17:17.000Z</time>
        <extensions>
          <ns3:TrackPointExtension>
            <ns3:hr>88</ns3:hr>
            <ns3:cad>0</ns3:cad>
          </ns3:TrackPointExtension>
        </extensions>
      </trkpt>
      <trkpt lat="45.31289032660424709320068359375" lon="-70.8982835523784160614013671875">
        <ele>607.4000244140625</ele>
        <time>2026-08-21T16:17:18.000Z</time>
        <extensions>
          <ns3:TrackPointExtension>
            <ns3:hr>88</ns3:hr>
            <ns3:cad>0</ns3:cad>
          </ns3:TrackPointExtension>
        </extensions>
      </trkpt>
      <trkpt lat="45.31289267353713512420654296875" lon="-70.89829151518642902374267578125">
        <ele>607.5999755859375</ele>
        <time>2026-08-21T16:17:19.000Z</time>
        <extensions>
          <ns3:TrackPointExtension>
            <ns3:hr>89</ns3:hr>
            <ns3:cad>0</ns3:cad>
          </ns3:TrackPointExtension>
        </extensions>
      </trkpt>
      <trkpt lat="45.31289577484130859375" lon="-70.89829402975738048553466796875">
        <ele>607.79998779296875</ele>
        <time>2026-08-21T16:17:20.000Z</time>
        <extensions>
          <ns3:TrackPointExtension>
            <ns3:hr>89</ns3:hr>
            <ns3:cad>0</ns3:cad>
          </ns3:TrackPointExtension>
        </extensions>
      </trkpt>
      <trkpt lat="45.312897451221942901611328125" lon="-70.89830140583217144012451171875">
        <ele>607.79998779296875</ele>
        <time>2026-08-21T16:17:21.000Z</time>
        <extensions>
          <ns3:TrackPointExtension>
            <ns3:hr>90</ns3:hr>
            <ns3:cad>0</ns3:cad>
          </ns3:TrackPointExtension>
        </extensions>
      </trkpt>
      <trkpt lat="45.31289837323129177093505859375" lon="-70.89830450713634490966796875">
        <ele>607.79998779296875</ele>
        <time>2026-08-21T16:17:22.000Z</time>
        <extensions>
          <ns3:TrackPointExtension>
            <ns3:hr>90</ns3:hr>
            <ns3:cad>0</ns3:cad>
          </ns3:TrackPointExtension>
        </extensions>
      </trkpt>
      <trkpt lat="45.31289820559322834014892578125" lon="-70.89830450713634490966796875">
        <ele>607.79998779296875</ele>
        <time>2026-08-21T16:17:23.000Z</time>
        <extensions>
          <ns3:TrackPointExtension>
            <ns3:hr>91</ns3:hr>
            <ns3:cad>0</ns3:cad>
          </ns3:TrackPointExtension>
        </extensions>
      </trkpt>
      <trkpt lat="45.31289820559322834014892578125" lon="-70.89830450713634490966796875">
        <ele>607.79998779296875</ele>
        <time>2026-08-21T16:17:24.000Z</time>
        <extensions>
          <ns3:TrackPointExtension>
            <ns3:hr>91</ns3:hr>
            <ns3:cad>0</ns3:cad>
          </ns3:TrackPointExtension>
        </extensions>
      </trkpt>
      <trkpt lat="45.31289820559322834014892578125" lon="-70.89830450713634490966796875">
        <ele>607.79998779296875</ele>
        <time>2026-08-21T16:17:25.000Z</time>
        <extensions>
          <ns3:TrackPointExtension>
            <ns3:hr>91</ns3:hr>
            <ns3:cad>0</ns3:cad>
          </ns3:TrackPointExtension>
        </extensions>
      </trkpt>
      <trkpt lat="45.31289820559322834014892578125" lon="-70.89830450713634490966796875">
        <ele>607.79998779296875</ele>
        <time>2026-08-21T16:17:26.000Z</time>
        <extensions>
          <ns3:TrackPointExtension>
            <ns3:hr>91</ns3:hr>
            <ns3:cad>0</ns3:cad>
          </ns3:TrackPointExtension>
        </extensions>
      </trkpt>
      <trkpt lat="45.31289820559322834014892578125" lon="-70.89830450713634490966796875">
        <ele>607.79998779296875</ele>
        <time>2026-08-21T16:17:27.000Z</time>
        <extensions>
          <ns3:TrackPointExtension>
            <ns3:hr>91</ns3:hr>
            <ns3:cad>0</ns3:cad>
          </ns3:TrackPointExtension>
        </extensions>
      </trkpt>
      <trkpt lat="45.31289820559322834014892578125" lon="-70.89830450713634490966796875">
        <ele>607.79998779296875</ele>
        <time>2026-08-21T16:17:28.000Z</time>
        <extensions>
          <ns3:TrackPointExtension>
            <ns3:hr>90</ns3:hr>
            <ns3:cad>0</ns3:cad>
          </ns3:TrackPointExtension>
        </extensions>
      </trkpt>
      <trkpt lat="45.31289820559322834014892578125" lon="-70.89830450713634490966796875">
        <ele>607.79998779296875</ele>
        <time>2026-08-21T16:17:29.000Z</time>
        <extensions>
          <ns3:TrackPointExtension>
            <ns3:hr>91</ns3:hr>
            <ns3:cad>48</ns3:cad>
          </ns3:TrackPointExtension>
        </extensions>
      </trkpt>
      <trkpt lat="45.31289820559322834014892578125" lon="-70.8983050100505352020263671875">
        <ele>607.79998779296875</ele>
        <time>2026-08-21T16:17:30.000Z</time>
        <extensions>
          <ns3:TrackPointExtension>
            <ns3:hr>91</ns3:hr>
            <ns3:cad>48</ns3:cad>
          </ns3:TrackPointExtension>
        </extensions>
      </trkpt>
      <trkpt lat="45.3128986246883869171142578125" lon="-70.89830777607858180999755859375">
        <ele>607.5999755859375</ele>
        <time>2026-08-21T16:17:31.000Z</time>
        <extensions>
          <ns3:TrackPointExtension>
            <ns3:hr>92</ns3:hr>
            <ns3:cad>48</ns3:cad>
          </ns3:TrackPointExtension>
        </extensions>
      </trkpt>
      <trkpt lat="45.31289636157453060150146484375" lon="-70.89830677025020122528076171875">
        <ele>607.5999755859375</ele>
        <time>2026-08-21T16:17:32.000Z</time>
        <extensions>
          <ns3:TrackPointExtension>
            <ns3:hr>92</ns3:hr>
            <ns3:cad>0</ns3:cad>
          </ns3:TrackPointExtension>
        </extensions>
      </trkpt>
      <trkpt lat="45.31289820559322834014892578125" lon="-70.89830450713634490966796875">
        <ele>607.79998779296875</ele>
        <time>2026-08-21T16:17:33.000Z</time>
        <extensions>
          <ns3:TrackPointExtension>
            <ns3:hr>92</ns3:hr>
            <ns3:cad>0</ns3:cad>
          </ns3:TrackPointExtension>
        </extensions>
      </trkpt>
      <trkpt lat="45.31289820559322834014892578125" lon="-70.89830450713634490966796875">
        <ele>607.79998779296875</ele>
        <time>2026-08-21T16:17:34.000Z</time>
        <extensions>
          <ns3:TrackPointExtension>
            <ns3:hr>92</ns3:hr>
            <ns3:cad>0</ns3:cad>
          </ns3:TrackPointExtension>
        </extensions>
      </trkpt>
      <trkpt lat="45.31289820559322834014892578125" lon="-70.89830450713634490966796875">
        <ele>607.79998779296875</ele>
        <time>2026-08-21T16:17:35.000Z</time>
        <extensions>
          <ns3:TrackPointExtension>
            <ns3:hr>92</ns3:hr>
            <ns3:cad>0</ns3:cad>
          </ns3:TrackPointExtension>
        </extensions>
      </trkpt>
      <trkpt lat="45.31289820559322834014892578125" lon="-70.89830450713634490966796875">
        <ele>607.79998779296875</ele>
        <time>2026-08-21T16:17:36.000Z</time>
        <extensions>
          <ns3:TrackPointExtension>
            <ns3:hr>92</ns3:hr>
            <ns3:cad>0</ns3:cad>
          </ns3:TrackPointExtension>
        </extensions>
      </trkpt>
      <trkpt lat="45.31289820559322834014892578125" lon="-70.89830450713634490966796875">
        <ele>607.79998779296875</ele>
        <time>2026-08-21T16:17:37.000Z</time>
        <extensions>
          <ns3:TrackPointExtension>
            <ns3:hr>92</ns3:hr>
            <ns3:cad>0</ns3:cad>
          </ns3:TrackPointExtension>
        </extensions>
      </trkpt>
      <trkpt lat="45.31289820559322834014892578125" lon="-70.89830450713634490966796875">
        <ele>607.79998779296875</ele>
        <time>2026-08-21T16:17:38.000Z</time>
        <extensions>
          <ns3:TrackPointExtension>
            <ns3:hr>92</ns3:hr>
            <ns3:cad>0</ns3:cad>
          </ns3:TrackPointExtension>
        </extensions>
      </trkpt>
      <trkpt lat="45.31289820559322834014892578125" lon="-70.89830450713634490966796875">
        <ele>607.79998779296875</ele>
        <time>2026-08-21T16:17:39.000Z</time>
        <extensions>
          <ns3:TrackPointExtension>
            <ns3:hr>92</ns3:hr>
            <ns3:cad>0</ns3:cad>
          </ns3:TrackPointExtension>
        </extensions>
      </trkpt>
      <trkpt lat="45.31289820559322834014892578125" lon="-70.89830450713634490966796875">
        <ele>607.5999755859375</ele>
        <time>2026-08-21T16:17:40.000Z</time>
        <extensions>
          <ns3:TrackPointExtension>
            <ns3:hr>91</ns3:hr>
            <ns3:cad>0</ns3:cad>
          </ns3:TrackPointExtension>
        </extensions>
      </trkpt>
      <trkpt lat="45.31289820559322834014892578125" lon="-70.89830450713634490966796875">
        <ele>607.5999755859375</ele>
        <time>2026-08-21T16:17:41.000Z</time>
        <extensions>
          <ns3:TrackPointExtension>
            <ns3:hr>91</ns3:hr>
            <ns3:cad>0</ns3:cad>
          </ns3:TrackPointExtension>
        </extensions>
      </trkpt>
      <trkpt lat="45.31289820559322834014892578125" lon="-70.89830450713634490966796875">
        <ele>607.5999755859375</ele>
        <time>2026-08-21T16:17:42.000Z</time>
        <extensions>
          <ns3:TrackPointExtension>
            <ns3:hr>92</ns3:hr>
            <ns3:cad>0</ns3:cad>
          </ns3:TrackPointExtension>
        </extensions>
      </trkpt>
      <trkpt lat="45.31289820559322834014892578125" lon="-70.89830450713634490966796875">
        <ele>607.5999755859375</ele>
        <time>2026-08-21T16:17:43.000Z</time>
        <extensions>
          <ns3:TrackPointExtension>
            <ns3:hr>93</ns3:hr>
            <ns3:cad>0</ns3:cad>
          </ns3:TrackPointExtension>
        </extensions>
      </trkpt>
      <trkpt lat="45.31289820559322834014892578125" lon="-70.89830450713634490966796875">
        <ele>607.5999755859375</ele>
        <time>2026-08-21T16:17:44.000Z</time>
        <extensions>
          <ns3:TrackPointExtension>
            <ns3:hr>94</ns3:hr>
            <ns3:cad>0</ns3:cad>
          </ns3:TrackPointExtension>
        </extensions>
      </trkpt>
      <trkpt lat="45.31289820559322834014892578125" lon="-70.89830450713634490966796875">
        <ele>607.5999755859375</ele>
        <time>2026-08-21T16:17:45.000Z</time>
        <extensions>
          <ns3:TrackPointExtension>
            <ns3:hr>95</ns3:hr>
            <ns3:cad>0</ns3:cad>
          </ns3:TrackPointExtension>
        </extensions>
      </trkpt>
      <trkpt lat="45.31289820559322834014892578125" lon="-70.89830450713634490966796875">
        <ele>607.79998779296875</ele>
        <time>2026-08-21T16:17:46.000Z</time>
        <extensions>
          <ns3:TrackPointExtension>
            <ns3:hr>95</ns3:hr>
            <ns3:cad>0</ns3:cad>
          </ns3:TrackPointExtension>
        </extensions>
      </trkpt>
      <trkpt lat="45.31289820559322834014892578125" lon="-70.89830450713634490966796875">
        <ele>607.79998779296875</ele>
        <time>2026-08-21T16:17:47.000Z</time>
        <extensions>
          <ns3:TrackPointExtension>
            <ns3:hr>96</ns3:hr>
            <ns3:cad>0</ns3:cad>
          </ns3:TrackPointExtension>
        </extensions>
      </trkpt>
      <trkpt lat="45.31289820559322834014892578125" lon="-70.89830450713634490966796875">
        <ele>607.79998779296875</ele>
        <time>2026-08-21T16:17:48.000Z</time>
        <extensions>
          <ns3:TrackPointExtension>
            <ns3:hr>96</ns3:hr>
            <ns3:cad>0</ns3:cad>
          </ns3:TrackPointExtension>
        </extensions>
      </trkpt>
      <trkpt lat="45.31289820559322834014892578125" lon="-70.89830450713634490966796875">
        <ele>607.79998779296875</ele>
        <time>2026-08-21T16:17:49.000Z</time>
        <extensions>
          <ns3:TrackPointExtension>
            <ns3:hr>96</ns3:hr>
            <ns3:cad>0</ns3:cad>
          </ns3:TrackPointExtension>
        </extensions>
      </trkpt>
      <trkpt lat="45.31289820559322834014892578125" lon="-70.89830450713634490966796875">
        <ele>607.5999755859375</ele>
        <time>2026-08-21T16:17:50.000Z</time>
        <extensions>
          <ns3:TrackPointExtension>
            <ns3:hr>96</ns3:hr>
            <ns3:cad>0</ns3:cad>
          </ns3:TrackPointExtension>
        </extensions>
      </trkpt>
      <trkpt lat="45.31289820559322834014892578125" lon="-70.89830450713634490966796875">
        <ele>607.4000244140625</ele>
        <time>2026-08-21T16:17:51.000Z</time>
        <extensions>
          <ns3:TrackPointExtension>
            <ns3:hr>95</ns3:hr>
            <ns3:cad>0</ns3:cad>
          </ns3:TrackPointExtension>
        </extensions>
      </trkpt>
      <trkpt lat="45.31289820559322834014892578125" lon="-70.89830450713634490966796875">
        <ele>607.4000244140625</ele>
        <time>2026-08-21T16:17:52.000Z</time>
        <extensions>
          <ns3:TrackPointExtension>
            <ns3:hr>95</ns3:hr>
            <ns3:cad>0</ns3:cad>
          </ns3:TrackPointExtension>
        </extensions>
      </trkpt>
      <trkpt lat="45.31289317645132541656494140625" lon="-70.89830341748893260955810546875">
        <ele>607.4000244140625</ele>
        <time>2026-08-21T16:17:53.000Z</time>
        <extensions>
          <ns3:TrackPointExtension>
            <ns3:hr>95</ns3:hr>
            <ns3:cad>0</ns3:cad>
          </ns3:TrackPointExtension>
        </extensions>
      </trkpt>
      <trkpt lat="45.31289108097553253173828125" lon="-70.8983009867370128631591796875">
        <ele>607.4000244140625</ele>
        <time>2026-08-21T16:17:54.000Z</time>
        <extensions>
          <ns3:TrackPointExtension>
            <ns3:hr>95</ns3:hr>
            <ns3:cad>0</ns3:cad>
          </ns3:TrackPointExtension>
        </extensions>
      </trkpt>
      <trkpt lat="45.31288580037653446197509765625" lon="-70.89830056764185428619384765625">
        <ele>607.4000244140625</ele>
        <time>2026-08-21T16:17:55.000Z</time>
        <extensions>
          <ns3:TrackPointExtension>
            <ns3:hr>94</ns3:hr>
            <ns3:cad>0</ns3:cad>
          </ns3:TrackPointExtension>
        </extensions>
      </trkpt>
      <trkpt lat="45.3128821961581707000732421875" lon="-70.89829436503350734710693359375">
        <ele>607.20001220703125</ele>
        <time>2026-08-21T16:17:56.000Z</time>
        <extensions>
          <ns3:TrackPointExtension>
            <ns3:hr>94</ns3:hr>
            <ns3:cad>0</ns3:cad>
          </ns3:TrackPointExtension>
        </extensions>
      </trkpt>
      <trkpt lat="45.31287976540625095367431640625" lon="-70.8982892520725727081298828125">
        <ele>607.20001220703125</ele>
        <time>2026-08-21T16:17:57.000Z</time>
        <extensions>
          <ns3:TrackPointExtension>
            <ns3:hr>94</ns3:hr>
            <ns3:cad>0</ns3:cad>
          </ns3:TrackPointExtension>
        </extensions>
      </trkpt>
      <trkpt lat="45.3128788433969020843505859375" lon="-70.89828573167324066162109375">
        <ele>606.79998779296875</ele>
        <time>2026-08-21T16:17:58.000Z</time>
        <extensions>
          <ns3:TrackPointExtension>
            <ns3:hr>93</ns3:hr>
            <ns3:cad>0</ns3:cad>
          </ns3:TrackPointExtension>
        </extensions>
      </trkpt>
      <trkpt lat="45.3128788433969020843505859375" lon="-70.89828581549227237701416015625">
        <ele>606.79998779296875</ele>
        <time>2026-08-21T16:17:59.000Z</time>
        <extensions>
          <ns3:TrackPointExtension>
            <ns3:hr>93</ns3:hr>
            <ns3:cad>0</ns3:cad>
          </ns3:TrackPointExtension>
        </extensions>
      </trkpt>
      <trkpt lat="45.3128788433969020843505859375" lon="-70.89828581549227237701416015625">
        <ele>606.5999755859375</ele>
        <time>2026-08-21T16:18:00.000Z</time>
        <extensions>
          <ns3:TrackPointExtension>
            <ns3:hr>93</ns3:hr>
            <ns3:cad>0</ns3:cad>
          </ns3:TrackPointExtension>
        </extensions>
      </trkpt>
      <trkpt lat="45.3128788433969020843505859375" lon="-70.89828581549227237701416015625">
        <ele>606.5999755859375</ele>
        <time>2026-08-21T16:18:01.000Z</time>
        <extensions>
          <ns3:TrackPointExtension>
            <ns3:hr>94</ns3:hr>
            <ns3:cad>0</ns3:cad>
          </ns3:TrackPointExtension>
        </extensions>
      </trkpt>
      <trkpt lat="45.3128788433969020843505859375" lon="-70.89828581549227237701416015625">
        <ele>606.79998779296875</ele>
        <time>2026-08-21T16:18:02.000Z</time>
        <extensions>
          <ns3:TrackPointExtension>
            <ns3:hr>95</ns3:hr>
            <ns3:cad>0</ns3:cad>
          </ns3:TrackPointExtension>
        </extensions>
      </trkpt>
      <trkpt lat="45.3128788433969020843505859375" lon="-70.89828581549227237701416015625">
        <ele>606.79998779296875</ele>
        <time>2026-08-21T16:18:03.000Z</time>
        <extensions>
          <ns3:TrackPointExtension>
            <ns3:hr>95</ns3:hr>
            <ns3:cad>0</ns3:cad>
          </ns3:TrackPointExtension>
        </extensions>
      </trkpt>
      <trkpt lat="45.3128788433969020843505859375" lon="-70.89828581549227237701416015625">
        <ele>606.79998779296875</ele>
        <time>2026-08-21T16:18:04.000Z</time>
        <extensions>
          <ns3:TrackPointExtension>
            <ns3:hr>95</ns3:hr>
            <ns3:cad>0</ns3:cad>
          </ns3:TrackPointExtension>
        </extensions>
      </trkpt>
      <trkpt lat="45.3128788433969020843505859375" lon="-70.89828581549227237701416015625">
        <ele>606.79998779296875</ele>
        <time>2026-08-21T16:18:05.000Z</time>
        <extensions>
          <ns3:TrackPointExtension>
            <ns3:hr>95</ns3:hr>
            <ns3:cad>0</ns3:cad>
          </ns3:TrackPointExtension>
        </extensions>
      </trkpt>
      <trkpt lat="45.3128788433969020843505859375" lon="-70.89828581549227237701416015625">
        <ele>606.79998779296875</ele>
        <time>2026-08-21T16:18:06.000Z</time>
        <extensions>
          <ns3:TrackPointExtension>
            <ns3:hr>95</ns3:hr>
            <ns3:cad>0</ns3:cad>
          </ns3:TrackPointExtension>
        </extensions>
      </trkpt>
      <trkpt lat="45.3128788433969020843505859375" lon="-70.89828581549227237701416015625">
        <ele>606.79998779296875</ele>
        <time>2026-08-21T16:18:07.000Z</time>
        <extensions>
          <ns3:TrackPointExtension>
            <ns3:hr>96</ns3:hr>
            <ns3:cad>0</ns3:cad>
          </ns3:TrackPointExtension>
        </extensions>
      </trkpt>
      <trkpt lat="45.3128788433969020843505859375" lon="-70.89828581549227237701416015625">
        <ele>606.79998779296875</ele>
        <time>2026-08-21T16:18:08.000Z</time>
        <extensions>
          <ns3:TrackPointExtension>
            <ns3:hr>97</ns3:hr>
            <ns3:cad>0</ns3:cad>
          </ns3:TrackPointExtension>
        </extensions>
      </trkpt>
      <trkpt lat="45.3128788433969020843505859375" lon="-70.89828581549227237701416015625">
        <ele>606.79998779296875</ele>
        <time>2026-08-21T16:18:09.000Z</time>
        <extensions>
          <ns3:TrackPointExtension>
            <ns3:hr>97</ns3:hr>
            <ns3:cad>0</ns3:cad>
          </ns3:TrackPointExtension>
        </extensions>
      </trkpt>
      <trkpt lat="45.3128788433969020843505859375" lon="-70.89828581549227237701416015625">
        <ele>606.79998779296875</ele>
        <time>2026-08-21T16:18:10.000Z</time>
        <extensions>
          <ns3:TrackPointExtension>
            <ns3:hr>97</ns3:hr>
            <ns3:cad>0</ns3:cad>
          </ns3:TrackPointExtension>
        </extensions>
      </trkpt>
      <trkpt lat="45.3128788433969020843505859375" lon="-70.89828581549227237701416015625">
        <ele>606.79998779296875</ele>
        <time>2026-08-21T16:18:11.000Z</time>
        <extensions>
          <ns3:TrackPointExtension>
            <ns3:hr>98</ns3:hr>
            <ns3:cad>0</ns3:cad>
          </ns3:TrackPointExtension>
        </extensions>
      </trkpt>
      <trkpt lat="45.3128788433969020843505859375" lon="-70.89828581549227237701416015625">
        <ele>606.79998779296875</ele>
        <time>2026-08-21T16:18:12.000Z</time>
        <extensions>
          <ns3:TrackPointExtension>
            <ns3:hr>97</ns3:hr>
            <ns3:cad>0</ns3:cad>
          </ns3:TrackPointExtension>
        </extensions>
      </trkpt>
      <trkpt lat="45.3128788433969020843505859375" lon="-70.89828581549227237701416015625">
        <ele>606.79998779296875</ele>
        <time>2026-08-21T16:18:13.000Z</time>
        <extensions>
          <ns3:TrackPointExtension>
            <ns3:hr>97</ns3:hr>
            <ns3:cad>0</ns3:cad>
          </ns3:TrackPointExtension>
        </extensions>
      </trkpt>
      <trkpt lat="45.3128788433969020843505859375" lon="-70.89828581549227237701416015625">
        <ele>606.79998779296875</ele>
        <time>2026-08-21T16:18:14.000Z</time>
        <extensions>
          <ns3:TrackPointExtension>
            <ns3:hr>95</ns3:hr>
            <ns3:cad>0</ns3:cad>
          </ns3:TrackPointExtension>
        </extensions>
      </trkpt>
      <trkpt lat="45.3128788433969020843505859375" lon="-70.89828581549227237701416015625">
        <ele>606.79998779296875</ele>
        <time>2026-08-21T16:18:15.000Z</time>
        <extensions>
          <ns3:TrackPointExtension>
            <ns3:hr>93</ns3:hr>
            <ns3:cad>0</ns3:cad>
          </ns3:TrackPointExtension>
        </extensions>
      </trkpt>
      <trkpt lat="45.3128788433969020843505859375" lon="-70.89828581549227237701416015625">
        <ele>606.79998779296875</ele>
        <time>2026-08-21T16:18:16.000Z</time>
        <extensions>
          <ns3:TrackPointExtension>
            <ns3:hr>89</ns3:hr>
            <ns3:cad>0</ns3:cad>
          </ns3:TrackPointExtension>
        </extensions>
      </trkpt>
      <trkpt lat="45.3128788433969020843505859375" lon="-70.89828581549227237701416015625">
        <ele>607</ele>
        <time>2026-08-21T16:18:17.000Z</time>
        <extensions>
          <ns3:TrackPointExtension>
            <ns3:hr>86</ns3:hr>
            <ns3:cad>0</ns3:cad>
          </ns3:TrackPointExtension>
        </extensions>
      </trkpt>
      <trkpt lat="45.3128788433969020843505859375" lon="-70.89828581549227237701416015625">
        <ele>607.20001220703125</ele>
        <time>2026-08-21T16:18:18.000Z</time>
        <extensions>
          <ns3:TrackPointExtension>
            <ns3:hr>83</ns3:hr>
            <ns3:cad>0</ns3:cad>
          </ns3:TrackPointExtension>
        </extensions>
      </trkpt>
      <trkpt lat="45.3128788433969020843505859375" lon="-70.89828581549227237701416015625">
        <ele>607.4000244140625</ele>
        <time>2026-08-21T16:18:19.000Z</time>
        <extensions>
          <ns3:TrackPointExtension>
            <ns3:hr>82</ns3:hr>
            <ns3:cad>0</ns3:cad>
          </ns3:TrackPointExtension>
        </extensions>
      </trkpt>
      <trkpt lat="45.3128788433969020843505859375" lon="-70.89828581549227237701416015625">
        <ele>607.5999755859375</ele>
        <time>2026-08-21T16:18:20.000Z</time>
        <extensions>
          <ns3:TrackPointExtension>
            <ns3:hr>82</ns3:hr>
            <ns3:cad>0</ns3:cad>
          </ns3:TrackPointExtension>
        </extensions>
      </trkpt>
      <trkpt lat="45.3128788433969020843505859375" lon="-70.89828581549227237701416015625">
        <ele>607.5999755859375</ele>
        <time>2026-08-21T16:18:21.000Z</time>
        <extensions>
          <ns3:TrackPointExtension>
            <ns3:hr>82</ns3:hr>
            <ns3:cad>0</ns3:cad>
          </ns3:TrackPointExtension>
        </extensions>
      </trkpt>
      <trkpt lat="45.3128788433969020843505859375" lon="-70.89828581549227237701416015625">
        <ele>607.4000244140625</ele>
        <time>2026-08-21T16:18:22.000Z</time>
        <extensions>
          <ns3:TrackPointExtension>
            <ns3:hr>83</ns3:hr>
            <ns3:cad>0</ns3:cad>
          </ns3:TrackPointExtension>
        </extensions>
      </trkpt>
      <trkpt lat="45.3128788433969020843505859375" lon="-70.89828581549227237701416015625">
        <ele>607.4000244140625</ele>
        <time>2026-08-21T16:18:23.000Z</time>
        <extensions>
          <ns3:TrackPointExtension>
            <ns3:hr>83</ns3:hr>
            <ns3:cad>0</ns3:cad>
          </ns3:TrackPointExtension>
        </extensions>
      </trkpt>
      <trkpt lat="45.3128788433969020843505859375" lon="-70.89828581549227237701416015625">
        <ele>607.20001220703125</ele>
        <time>2026-08-21T16:18:24.000Z</time>
        <extensions>
          <ns3:TrackPointExtension>
            <ns3:hr>83</ns3:hr>
            <ns3:cad>0</ns3:cad>
          </ns3:TrackPointExtension>
        </extensions>
      </trkpt>
      <trkpt lat="45.3128788433969020843505859375" lon="-70.89828581549227237701416015625">
        <ele>607.20001220703125</ele>
        <time>2026-08-21T16:18:25.000Z</time>
        <extensions>
          <ns3:TrackPointExtension>
            <ns3:hr>83</ns3:hr>
            <ns3:cad>0</ns3:cad>
          </ns3:TrackPointExtension>
        </extensions>
      </trkpt>
      <trkpt lat="45.3128788433969020843505859375" lon="-70.89828581549227237701416015625">
        <ele>607.20001220703125</ele>
        <time>2026-08-21T16:18:26.000Z</time>
        <extensions>
          <ns3:TrackPointExtension>
            <ns3:hr>83</ns3:hr>
            <ns3:cad>0</ns3:cad>
          </ns3:TrackPointExtension>
        </extensions>
      </trkpt>
      <trkpt lat="45.3128788433969020843505859375" lon="-70.89828581549227237701416015625">
        <ele>607.20001220703125</ele>
        <time>2026-08-21T16:18:27.000Z</time>
        <extensions>
          <ns3:TrackPointExtension>
            <ns3:hr>83</ns3:hr>
            <ns3:cad>0</ns3:cad>
          </ns3:TrackPointExtension>
        </extensions>
      </trkpt>
      <trkpt lat="45.3128788433969020843505859375" lon="-70.89828581549227237701416015625">
        <ele>607.20001220703125</ele>
        <time>2026-08-21T16:18:28.000Z</time>
        <extensions>
          <ns3:TrackPointExtension>
            <ns3:hr>84</ns3:hr>
            <ns3:cad>0</ns3:cad>
          </ns3:TrackPointExtension>
        </extensions>
      </trkpt>
      <trkpt lat="45.3128788433969020843505859375" lon="-70.89828581549227237701416015625">
        <ele>607.20001220703125</ele>
        <time>2026-08-21T16:18:29.000Z</time>
        <extensions>
          <ns3:TrackPointExtension>
            <ns3:hr>84</ns3:hr>
            <ns3:cad>0</ns3:cad>
          </ns3:TrackPointExtension>
        </extensions>
      </trkpt>
      <trkpt lat="45.3128788433969020843505859375" lon="-70.89828581549227237701416015625">
        <ele>607.4000244140625</ele>
        <time>2026-08-21T16:18:30.000Z</time>
        <extensions>
          <ns3:TrackPointExtension>
            <ns3:hr>84</ns3:hr>
            <ns3:cad>0</ns3:cad>
          </ns3:TrackPointExtension>
        </extensions>
      </trkpt>
      <trkpt lat="45.31287758611142635345458984375" lon="-70.8982962928712368011474609375">
        <ele>607.4000244140625</ele>
        <time>2026-08-21T16:18:31.000Z</time>
        <extensions>
          <ns3:TrackPointExtension>
            <ns3:hr>84</ns3:hr>
            <ns3:cad>0</ns3:cad>
          </ns3:TrackPointExtension>
        </extensions>
      </trkpt>
      <trkpt lat="45.31287373043596744537353515625" lon="-70.89830375276505947113037109375">
        <ele>607.5999755859375</ele>
        <time>2026-08-21T16:18:32.000Z</time>
        <extensions>
          <ns3:TrackPointExtension>
            <ns3:hr>85</ns3:hr>
            <ns3:cad>0</ns3:cad>
          </ns3:TrackPointExtension>
        </extensions>
      </trkpt>
      <trkpt lat="45.3128771670162677764892578125" lon="-70.8983093686401844024658203125">
        <ele>607.79998779296875</ele>
        <time>2026-08-21T16:18:33.000Z</time>
        <extensions>
          <ns3:TrackPointExtension>
            <ns3:hr>84</ns3:hr>
            <ns3:cad>0</ns3:cad>
          </ns3:TrackPointExtension>
        </extensions>
      </trkpt>
      <trkpt lat="45.3128781728446483612060546875" lon="-70.89831364341080188751220703125">
        <ele>607.79998779296875</ele>
        <time>2026-08-21T16:18:34.000Z</time>
        <extensions>
          <ns3:TrackPointExtension>
            <ns3:hr>84</ns3:hr>
            <ns3:cad>0</ns3:cad>
          </ns3:TrackPointExtension>
        </extensions>
      </trkpt>
      <trkpt lat="45.31287590973079204559326171875" lon="-70.89831816963851451873779296875">
        <ele>607.79998779296875</ele>
        <time>2026-08-21T16:18:35.000Z</time>
        <extensions>
          <ns3:TrackPointExtension>
            <ns3:hr>83</ns3:hr>
            <ns3:cad>0</ns3:cad>
          </ns3:TrackPointExtension>
        </extensions>
      </trkpt>
      <trkpt lat="45.3128764964640140533447265625" lon="-70.89832018129527568817138671875">
        <ele>608</ele>
        <time>2026-08-21T16:18:36.000Z</time>
        <extensions>
          <ns3:TrackPointExtension>
            <ns3:hr>83</ns3:hr>
            <ns3:cad>0</ns3:cad>
          </ns3:TrackPointExtension>
        </extensions>
      </trkpt>
      <trkpt lat="45.31287624500691890716552734375" lon="-70.89832185767590999603271484375">
        <ele>608</ele>
        <time>2026-08-21T16:18:37.000Z</time>
        <extensions>
          <ns3:TrackPointExtension>
            <ns3:hr>84</ns3:hr>
            <ns3:cad>0</ns3:cad>
          </ns3:TrackPointExtension>
        </extensions>
      </trkpt>
      <trkpt lat="45.312876999378204345703125" lon="-70.898322276771068572998046875">
        <ele>608</ele>
        <time>2026-08-21T16:18:38.000Z</time>
        <extensions>
          <ns3:TrackPointExtension>
            <ns3:hr>84</ns3:hr>
            <ns3:cad>0</ns3:cad>
          </ns3:TrackPointExtension>
        </extensions>
      </trkpt>
      <trkpt lat="45.31287574209272861480712890625" lon="-70.898320935666561126708984375">
        <ele>608</ele>
        <time>2026-08-21T16:18:39.000Z</time>
        <extensions>
          <ns3:TrackPointExtension>
            <ns3:hr>85</ns3:hr>
            <ns3:cad>0</ns3:cad>
          </ns3:TrackPointExtension>
        </extensions>
      </trkpt>
      <trkpt lat="45.3128761611878871917724609375" lon="-70.8983217738568782806396484375">
        <ele>608.20001220703125</ele>
        <time>2026-08-21T16:18:40.000Z</time>
        <extensions>
          <ns3:TrackPointExtension>
            <ns3:hr>86</ns3:hr>
            <ns3:cad>0</ns3:cad>
          </ns3:TrackPointExtension>
        </extensions>
      </trkpt>
      <trkpt lat="45.31287289224565029144287109375" lon="-70.89832420460879802703857421875">
        <ele>608</ele>
        <time>2026-08-21T16:18:41.000Z</time>
        <extensions>
          <ns3:TrackPointExtension>
            <ns3:hr>87</ns3:hr>
            <ns3:cad>0</ns3:cad>
          </ns3:TrackPointExtension>
        </extensions>
      </trkpt>
      <trkpt lat="45.31287255696952342987060546875" lon="-70.89832554571330547332763671875">
        <ele>608</ele>
        <time>2026-08-21T16:18:42.000Z</time>
        <extensions>
          <ns3:TrackPointExtension>
            <ns3:hr>87</ns3:hr>
            <ns3:cad>0</ns3:cad>
          </ns3:TrackPointExtension>
        </extensions>
      </trkpt>
      <trkpt lat="45.31287507154047489166259765625" lon="-70.8983247913420200347900390625">
        <ele>608</ele>
        <time>2026-08-21T16:18:43.000Z</time>
        <extensions>
          <ns3:TrackPointExtension>
            <ns3:hr>88</ns3:hr>
            <ns3:cad>0</ns3:cad>
          </ns3:TrackPointExtension>
        </extensions>
      </trkpt>
      <trkpt lat="45.312878005206584930419921875" lon="-70.89832118712365627288818359375">
        <ele>608.20001220703125</ele>
        <time>2026-08-21T16:18:44.000Z</time>
        <extensions>
          <ns3:TrackPointExtension>
            <ns3:hr>88</ns3:hr>
            <ns3:cad>0</ns3:cad>
          </ns3:TrackPointExtension>
        </extensions>
      </trkpt>
      <trkpt lat="45.31287959776818752288818359375" lon="-70.898323617875576019287109375">
        <ele>608.20001220703125</ele>
        <time>2026-08-21T16:18:45.000Z</time>
        <extensions>
          <ns3:TrackPointExtension>
            <ns3:hr>89</ns3:hr>
            <ns3:cad>0</ns3:cad>
          </ns3:TrackPointExtension>
        </extensions>
      </trkpt>
      <trkpt lat="45.3128811903297901153564453125" lon="-70.89832370169460773468017578125">
        <ele>608.20001220703125</ele>
        <time>2026-08-21T16:18:46.000Z</time>
        <extensions>
          <ns3:TrackPointExtension>
            <ns3:hr>89</ns3:hr>
            <ns3:cad>0</ns3:cad>
          </ns3:TrackPointExtension>
        </extensions>
      </trkpt>
      <trkpt lat="45.3128825314342975616455078125" lon="-70.89832487516105175018310546875">
        <ele>608</ele>
        <time>2026-08-21T16:18:47.000Z</time>
        <extensions>
          <ns3:TrackPointExtension>
            <ns3:hr>89</ns3:hr>
            <ns3:cad>0</ns3:cad>
          </ns3:TrackPointExtension>
        </extensions>
      </trkpt>
      <trkpt lat="45.31288303434848785400390625" lon="-70.8983244560658931732177734375">
        <ele>608</ele>
        <time>2026-08-21T16:18:48.000Z</time>
        <extensions>
          <ns3:TrackPointExtension>
            <ns3:hr>89</ns3:hr>
            <ns3:cad>0</ns3:cad>
          </ns3:TrackPointExtension>
        </extensions>
      </trkpt>
      <trkpt lat="45.31288278289139270782470703125" lon="-70.89832420460879802703857421875">
        <ele>608</ele>
        <time>2026-08-21T16:18:49.000Z</time>
        <extensions>
          <ns3:TrackPointExtension>
            <ns3:hr>89</ns3:hr>
            <ns3:cad>0</ns3:cad>
          </ns3:TrackPointExtension>
        </extensions>
      </trkpt>
      <trkpt lat="45.31288278289139270782470703125" lon="-70.89832420460879802703857421875">
        <ele>608</ele>
        <time>2026-08-21T16:18:50.000Z</time>
        <extensions>
          <ns3:TrackPointExtension>
            <ns3:hr>89</ns3:hr>
            <ns3:cad>0</ns3:cad>
          </ns3:TrackPointExtension>
        </extensions>
      </trkpt>
      <trkpt lat="45.312882699072360992431640625" lon="-70.8983241207897663116455078125">
        <ele>608</ele>
        <time>2026-08-21T16:18:51.000Z</time>
        <extensions>
          <ns3:TrackPointExtension>
            <ns3:hr>89</ns3:hr>
            <ns3:cad>0</ns3:cad>
          </ns3:TrackPointExtension>
        </extensions>
      </trkpt>
      <trkpt lat="45.312882363796234130859375" lon="-70.89832537807524204254150390625">
        <ele>608</ele>
        <time>2026-08-21T16:18:52.000Z</time>
        <extensions>
          <ns3:TrackPointExtension>
            <ns3:hr>89</ns3:hr>
            <ns3:cad>0</ns3:cad>
          </ns3:TrackPointExtension>
        </extensions>
      </trkpt>
      <trkpt lat="45.3128811903297901153564453125" lon="-70.89832386933267116546630859375">
        <ele>608.20001220703125</ele>
        <time>2026-08-21T16:18:53.000Z</time>
        <extensions>
          <ns3:TrackPointExtension>
            <ns3:hr>89</ns3:hr>
            <ns3:cad>0</ns3:cad>
          </ns3:TrackPointExtension>
        </extensions>
      </trkpt>
      <trkpt lat="45.31287859193980693817138671875" lon="-70.89832353405654430389404296875">
        <ele>608.20001220703125</ele>
        <time>2026-08-21T16:18:54.000Z</time>
        <extensions>
          <ns3:TrackPointExtension>
            <ns3:hr>89</ns3:hr>
            <ns3:cad>0</ns3:cad>
          </ns3:TrackPointExtension>
        </extensions>
      </trkpt>
      <trkpt lat="45.31288060359656810760498046875" lon="-70.89832252822816371917724609375">
        <ele>608.20001220703125</ele>
        <time>2026-08-21T16:18:55.000Z</time>
        <extensions>
          <ns3:TrackPointExtension>
            <ns3:hr>89</ns3:hr>
            <ns3:cad>0</ns3:cad>
          </ns3:TrackPointExtension>
        </extensions>
      </trkpt>
      <trkpt lat="45.31288512982428073883056640625" lon="-70.8983154036104679107666015625">
        <ele>608.20001220703125</ele>
        <time>2026-08-21T16:18:56.000Z</time>
        <extensions>
          <ns3:TrackPointExtension>
            <ns3:hr>89</ns3:hr>
            <ns3:cad>0</ns3:cad>
          </ns3:TrackPointExtension>
        </extensions>
      </trkpt>
      <trkpt lat="45.3128855489194393157958984375" lon="-70.89831146411597728729248046875">
        <ele>608</ele>
        <time>2026-08-21T16:18:57.000Z</time>
        <extensions>
          <ns3:TrackPointExtension>
            <ns3:hr>90</ns3:hr>
            <ns3:cad>0</ns3:cad>
          </ns3:TrackPointExtension>
        </extensions>
      </trkpt>
      <trkpt lat="45.31288395635783672332763671875" lon="-70.898308865725994110107421875">
        <ele>608</ele>
        <time>2026-08-21T16:18:58.000Z</time>
        <extensions>
          <ns3:TrackPointExtension>
            <ns3:hr>90</ns3:hr>
            <ns3:cad>0</ns3:cad>
          </ns3:TrackPointExtension>
        </extensions>
      </trkpt>
      <trkpt lat="45.3128783404827117919921875" lon="-70.89831246994435787200927734375">
        <ele>607.79998779296875</ele>
        <time>2026-08-21T16:18:59.000Z</time>
        <extensions>
          <ns3:TrackPointExtension>
            <ns3:hr>90</ns3:hr>
            <ns3:cad>0</ns3:cad>
          </ns3:TrackPointExtension>
        </extensions>
      </trkpt>
      <trkpt lat="45.31288362108170986175537109375" lon="-70.89831666089594364166259765625">
        <ele>607.79998779296875</ele>
        <time>2026-08-21T16:19:00.000Z</time>
        <extensions>
          <ns3:TrackPointExtension>
            <ns3:hr>90</ns3:hr>
            <ns3:cad>53</ns3:cad>
          </ns3:TrackPointExtension>
        </extensions>
      </trkpt>
      <trkpt lat="45.31288429163396358489990234375" lon="-70.8983160741627216339111328125">
        <ele>608</ele>
        <time>2026-08-21T16:19:01.000Z</time>
        <extensions>
          <ns3:TrackPointExtension>
            <ns3:hr>89</ns3:hr>
            <ns3:cad>53</ns3:cad>
          </ns3:TrackPointExtension>
        </extensions>
      </trkpt>
      <trkpt lat="45.312884040176868438720703125" lon="-70.89830718934535980224609375">
        <ele>608.20001220703125</ele>
        <time>2026-08-21T16:19:02.000Z</time>
        <extensions>
          <ns3:TrackPointExtension>
            <ns3:hr>89</ns3:hr>
            <ns3:cad>50</ns3:cad>
          </ns3:TrackPointExtension>
        </extensions>
      </trkpt>
      <trkpt lat="45.31288295052945613861083984375" lon="-70.8983060158789157867431640625">
        <ele>608.4000244140625</ele>
        <time>2026-08-21T16:19:03.000Z</time>
        <extensions>
          <ns3:TrackPointExtension>
            <ns3:hr>88</ns3:hr>
            <ns3:cad>0</ns3:cad>
          </ns3:TrackPointExtension>
        </extensions>
      </trkpt>
      <trkpt lat="45.31288177706301212310791015625" lon="-70.89830425567924976348876953125">
        <ele>608.4000244140625</ele>
        <time>2026-08-21T16:19:04.000Z</time>
        <extensions>
          <ns3:TrackPointExtension>
            <ns3:hr>88</ns3:hr>
            <ns3:cad>0</ns3:cad>
          </ns3:TrackPointExtension>
        </extensions>
      </trkpt>
      <trkpt lat="45.31288362108170986175537109375" lon="-70.89830475859344005584716796875">
        <ele>608.5999755859375</ele>
        <time>2026-08-21T16:19:05.000Z</time>
        <extensions>
          <ns3:TrackPointExtension>
            <ns3:hr>87</ns3:hr>
            <ns3:cad>0</ns3:cad>
          </ns3:TrackPointExtension>
        </extensions>
      </trkpt>
      <trkpt lat="45.31288395635783672332763671875" lon="-70.89830542914569377899169921875">
        <ele>608.5999755859375</ele>
        <time>2026-08-21T16:19:06.000Z</time>
        <extensions>
          <ns3:TrackPointExtension>
            <ns3:hr>87</ns3:hr>
            <ns3:cad>0</ns3:cad>
          </ns3:TrackPointExtension>
        </extensions>
      </trkpt>
      <trkpt lat="45.3128835372626781463623046875" lon="-70.89830593205988407135009765625">
        <ele>608.5999755859375</ele>
        <time>2026-08-21T16:19:07.000Z</time>
        <extensions>
          <ns3:TrackPointExtension>
            <ns3:hr>86</ns3:hr>
            <ns3:cad>0</ns3:cad>
          </ns3:TrackPointExtension>
        </extensions>
      </trkpt>
      <trkpt lat="45.31288278289139270782470703125" lon="-70.89832420460879802703857421875">
        <ele>608.79998779296875</ele>
        <time>2026-08-21T16:19:08.000Z</time>
        <extensions>
          <ns3:TrackPointExtension>
            <ns3:hr>86</ns3:hr>
            <ns3:cad>0</ns3:cad>
          </ns3:TrackPointExtension>
        </extensions>
      </trkpt>
      <trkpt lat="45.31288278289139270782470703125" lon="-70.89832420460879802703857421875">
        <ele>608.79998779296875</ele>
        <time>2026-08-21T16:19:09.000Z</time>
        <extensions>
          <ns3:TrackPointExtension>
            <ns3:hr>86</ns3:hr>
            <ns3:cad>0</ns3:cad>
          </ns3:TrackPointExtension>
        </extensions>
      </trkpt>
      <trkpt lat="45.31288278289139270782470703125" lon="-70.89832420460879802703857421875">
        <ele>608.79998779296875</ele>
        <time>2026-08-21T16:19:10.000Z</time>
        <extensions>
          <ns3:TrackPointExtension>
            <ns3:hr>86</ns3:hr>
            <ns3:cad>0</ns3:cad>
          </ns3:TrackPointExtension>
        </extensions>
      </trkpt>
      <trkpt lat="45.3128872253000736236572265625" lon="-70.89831062592566013336181640625">
        <ele>608.5999755859375</ele>
        <time>2026-08-21T16:19:11.000Z</time>
        <extensions>
          <ns3:TrackPointExtension>
            <ns3:hr>86</ns3:hr>
            <ns3:cad>0</ns3:cad>
          </ns3:TrackPointExtension>
        </extensions>
      </trkpt>
      <trkpt lat="45.3128922544419765472412109375" lon="-70.898312889039516448974609375">
        <ele>608.5999755859375</ele>
        <time>2026-08-21T16:19:12.000Z</time>
        <extensions>
          <ns3:TrackPointExtension>
            <ns3:hr>86</ns3:hr>
            <ns3:cad>0</ns3:cad>
          </ns3:TrackPointExtension>
        </extensions>
      </trkpt>
      <trkpt lat="45.3129033185541629791259765625" lon="-70.89831515215337276458740234375">
        <ele>608.4000244140625</ele>
        <time>2026-08-21T16:19:13.000Z</time>
        <extensions>
          <ns3:TrackPointExtension>
            <ns3:hr>87</ns3:hr>
            <ns3:cad>0</ns3:cad>
          </ns3:TrackPointExtension>
        </extensions>
      </trkpt>
      <trkpt lat="45.312912203371524810791015625" lon="-70.8983184210956096649169921875">
        <ele>608.4000244140625</ele>
        <time>2026-08-21T16:19:14.000Z</time>
        <extensions>
          <ns3:TrackPointExtension>
            <ns3:hr>86</ns3:hr>
            <ns3:cad>0</ns3:cad>
          </ns3:TrackPointExtension>
        </extensions>
      </trkpt>
      <trkpt lat="45.31292318366467952728271484375" lon="-70.89832604862749576568603515625">
        <ele>608.4000244140625</ele>
        <time>2026-08-21T16:19:15.000Z</time>
        <extensions>
          <ns3:TrackPointExtension>
            <ns3:hr>86</ns3:hr>
            <ns3:cad>0</ns3:cad>
          </ns3:TrackPointExtension>
        </extensions>
      </trkpt>
      <trkpt lat="45.3129293024539947509765625" lon="-70.89833342470228672027587890625">
        <ele>608.5999755859375</ele>
        <time>2026-08-21T16:19:16.000Z</time>
        <extensions>
          <ns3:TrackPointExtension>
            <ns3:hr>86</ns3:hr>
            <ns3:cad>0</ns3:cad>
          </ns3:TrackPointExtension>
        </extensions>
      </trkpt>
      <trkpt lat="45.3129348345100879669189453125" lon="-70.898340046405792236328125">
        <ele>608.5999755859375</ele>
        <time>2026-08-21T16:19:17.000Z</time>
        <extensions>
          <ns3:TrackPointExtension>
            <ns3:hr>86</ns3:hr>
            <ns3:cad>0</ns3:cad>
          </ns3:TrackPointExtension>
        </extensions>
      </trkpt>
      <trkpt lat="45.3129401989281177520751953125" lon="-70.89834666810929775238037109375">
        <ele>608.5999755859375</ele>
        <time>2026-08-21T16:19:18.000Z</time>
        <extensions>
          <ns3:TrackPointExtension>
            <ns3:hr>86</ns3:hr>
            <ns3:cad>0</ns3:cad>
          </ns3:TrackPointExtension>
        </extensions>
      </trkpt>
      <trkpt lat="45.3129482455551624298095703125" lon="-70.89835345745086669921875">
        <ele>608.79998779296875</ele>
        <time>2026-08-21T16:19:19.000Z</time>
        <extensions>
          <ns3:TrackPointExtension>
            <ns3:hr>85</ns3:hr>
            <ns3:cad>0</ns3:cad>
          </ns3:TrackPointExtension>
        </extensions>
      </trkpt>
      <trkpt lat="45.31295478343963623046875" lon="-70.89835815131664276123046875">
        <ele>608.79998779296875</ele>
        <time>2026-08-21T16:19:20.000Z</time>
        <extensions>
          <ns3:TrackPointExtension>
            <ns3:hr>86</ns3:hr>
            <ns3:cad>0</ns3:cad>
          </ns3:TrackPointExtension>
        </extensions>
      </trkpt>
      <trkpt lat="45.31295872293412685394287109375" lon="-70.89836343191564083099365234375">
        <ele>608.79998779296875</ele>
        <time>2026-08-21T16:19:21.000Z</time>
        <extensions>
          <ns3:TrackPointExtension>
            <ns3:hr>88</ns3:hr>
            <ns3:cad>0</ns3:cad>
          </ns3:TrackPointExtension>
        </extensions>
      </trkpt>
      <trkpt lat="45.3129643388092517852783203125" lon="-70.89836661703884601593017578125">
        <ele>608.79998779296875</ele>
        <time>2026-08-21T16:19:22.000Z</time>
        <extensions>
          <ns3:TrackPointExtension>
            <ns3:hr>101</ns3:hr>
            <ns3:cad>0</ns3:cad>
          </ns3:TrackPointExtension>
        </extensions>
      </trkpt>
      <trkpt lat="45.312965176999568939208984375" lon="-70.89837533421814441680908203125">
        <ele>608.79998779296875</ele>
        <time>2026-08-21T16:19:23.000Z</time>
        <extensions>
          <ns3:TrackPointExtension>
            <ns3:hr>109</ns3:hr>
            <ns3:cad>0</ns3:cad>
          </ns3:TrackPointExtension>
        </extensions>
      </trkpt>
      <trkpt lat="45.31297079287469387054443359375" lon="-70.89838136918842792510986328125">
        <ele>608.79998779296875</ele>
        <time>2026-08-21T16:19:24.000Z</time>
        <extensions>
          <ns3:TrackPointExtension>
            <ns3:hr>111</ns3:hr>
            <ns3:cad>0</ns3:cad>
          </ns3:TrackPointExtension>
        </extensions>
      </trkpt>
      <trkpt lat="45.3129750676453113555908203125" lon="-70.8983891643583774566650390625">
        <ele>608.5999755859375</ele>
        <time>2026-08-21T16:19:25.000Z</time>
        <extensions>
          <ns3:TrackPointExtension>
            <ns3:hr>112</ns3:hr>
            <ns3:cad>0</ns3:cad>
          </ns3:TrackPointExtension>
        </extensions>
      </trkpt>
      <trkpt lat="45.31297967769205570220947265625" lon="-70.8983951993286609649658203125">
        <ele>608.5999755859375</ele>
        <time>2026-08-21T16:19:26.000Z</time>
        <extensions>
          <ns3:TrackPointExtension>
            <ns3:hr>113</ns3:hr>
            <ns3:cad>0</ns3:cad>
          </ns3:TrackPointExtension>
        </extensions>
      </trkpt>
      <trkpt lat="45.31298370100557804107666015625" lon="-70.8984008990228176116943359375">
        <ele>608.5999755859375</ele>
        <time>2026-08-21T16:19:27.000Z</time>
        <extensions>
          <ns3:TrackPointExtension>
            <ns3:hr>113</ns3:hr>
            <ns3:cad>0</ns3:cad>
          </ns3:TrackPointExtension>
        </extensions>
      </trkpt>
      <trkpt lat="45.31298520974814891815185546875" lon="-70.8984102867543697357177734375">
        <ele>608.5999755859375</ele>
        <time>2026-08-21T16:19:28.000Z</time>
        <extensions>
          <ns3:TrackPointExtension>
            <ns3:hr>113</ns3:hr>
            <ns3:cad>0</ns3:cad>
          </ns3:TrackPointExtension>
        </extensions>
      </trkpt>
      <trkpt lat="45.3129894845187664031982421875" lon="-70.8984169922769069671630859375">
        <ele>608.5999755859375</ele>
        <time>2026-08-21T16:19:29.000Z</time>
        <extensions>
          <ns3:TrackPointExtension>
            <ns3:hr>113</ns3:hr>
            <ns3:cad>0</ns3:cad>
          </ns3:TrackPointExtension>
        </extensions>
      </trkpt>
      <trkpt lat="45.31299577094614505767822265625" lon="-70.89842361398041248321533203125">
        <ele>608.5999755859375</ele>
        <time>2026-08-21T16:19:30.000Z</time>
        <extensions>
          <ns3:TrackPointExtension>
            <ns3:hr>112</ns3:hr>
            <ns3:cad>0</ns3:cad>
          </ns3:TrackPointExtension>
        </extensions>
      </trkpt>
      <trkpt lat="45.313004069030284881591796875" lon="-70.89843333698809146881103515625">
        <ele>608.5999755859375</ele>
        <time>2026-08-21T16:19:31.000Z</time>
        <extensions>
          <ns3:TrackPointExtension>
            <ns3:hr>111</ns3:hr>
            <ns3:cad>0</ns3:cad>
          </ns3:TrackPointExtension>
        </extensions>
      </trkpt>
      <trkpt lat="45.3130112774670124053955078125" lon="-70.89844356290996074676513671875">
        <ele>608.5999755859375</ele>
        <time>2026-08-21T16:19:32.000Z</time>
        <extensions>
          <ns3:TrackPointExtension>
            <ns3:hr>109</ns3:hr>
            <ns3:cad>0</ns3:cad>
          </ns3:TrackPointExtension>
        </extensions>
      </trkpt>
      <trkpt lat="45.313016138970851898193359375" lon="-70.89845001697540283203125">
        <ele>608.5999755859375</ele>
        <time>2026-08-21T16:19:33.000Z</time>
        <extensions>
          <ns3:TrackPointExtension>
            <ns3:hr>107</ns3:hr>
            <ns3:cad>0</ns3:cad>
          </ns3:TrackPointExtension>
        </extensions>
      </trkpt>
      <trkpt lat="45.31302192248404026031494140625" lon="-70.8984575606882572174072265625">
        <ele>608.5999755859375</ele>
        <time>2026-08-21T16:19:34.000Z</time>
        <extensions>
          <ns3:TrackPointExtension>
            <ns3:hr>105</ns3:hr>
            <ns3:cad>0</ns3:cad>
          </ns3:TrackPointExtension>
        </extensions>
      </trkpt>
      <trkpt lat="45.313026197254657745361328125" lon="-70.89846552349627017974853515625">
        <ele>608.5999755859375</ele>
        <time>2026-08-21T16:19:35.000Z</time>
        <extensions>
          <ns3:TrackPointExtension>
            <ns3:hr>105</ns3:hr>
            <ns3:cad>0</ns3:cad>
          </ns3:TrackPointExtension>
        </extensions>
      </trkpt>
      <trkpt lat="45.3130310587584972381591796875" lon="-70.898472480475902557373046875">
        <ele>608.5999755859375</ele>
        <time>2026-08-21T16:19:36.000Z</time>
        <extensions>
          <ns3:TrackPointExtension>
            <ns3:hr>105</ns3:hr>
            <ns3:cad>0</ns3:cad>
          </ns3:TrackPointExtension>
        </extensions>
      </trkpt>
      <trkpt lat="45.313034914433956146240234375" lon="-70.89847792871296405792236328125">
        <ele>608.5999755859375</ele>
        <time>2026-08-21T16:19:37.000Z</time>
        <extensions>
          <ns3:TrackPointExtension>
            <ns3:hr>105</ns3:hr>
            <ns3:cad>0</ns3:cad>
          </ns3:TrackPointExtension>
        </extensions>
      </trkpt>
      <trkpt lat="45.3130401112139225006103515625" lon="-70.89848530478775501251220703125">
        <ele>608.5999755859375</ele>
        <time>2026-08-21T16:19:38.000Z</time>
        <extensions>
          <ns3:TrackPointExtension>
            <ns3:hr>105</ns3:hr>
            <ns3:cad>0</ns3:cad>
          </ns3:TrackPointExtension>
        </extensions>
      </trkpt>
      <trkpt lat="45.31304530799388885498046875" lon="-70.898489244282245635986328125">
        <ele>608.5999755859375</ele>
        <time>2026-08-21T16:19:39.000Z</time>
        <extensions>
          <ns3:TrackPointExtension>
            <ns3:hr>105</ns3:hr>
            <ns3:cad>0</ns3:cad>
          </ns3:TrackPointExtension>
        </extensions>
      </trkpt>
      <trkpt lat="45.31305125914514064788818359375" lon="-70.898495279252529144287109375">
        <ele>608.5999755859375</ele>
        <time>2026-08-21T16:19:40.000Z</time>
        <extensions>
          <ns3:TrackPointExtension>
            <ns3:hr>104</ns3:hr>
            <ns3:cad>0</ns3:cad>
          </ns3:TrackPointExtension>
        </extensions>
      </trkpt>
      <trkpt lat="45.31305477954447269439697265625" lon="-70.89849955402314662933349609375">
        <ele>608.5999755859375</ele>
        <time>2026-08-21T16:19:41.000Z</time>
        <extensions>
          <ns3:TrackPointExtension>
            <ns3:hr>105</ns3:hr>
            <ns3:cad>0</ns3:cad>
          </ns3:TrackPointExtension>
        </extensions>
      </trkpt>
      <trkpt lat="45.31306207180023193359375" lon="-70.89850475080311298370361328125">
        <ele>608.5999755859375</ele>
        <time>2026-08-21T16:19:42.000Z</time>
        <extensions>
          <ns3:TrackPointExtension>
            <ns3:hr>104</ns3:hr>
            <ns3:cad>0</ns3:cad>
          </ns3:TrackPointExtension>
        </extensions>
      </trkpt>
      <trkpt lat="45.3130676038563251495361328125" lon="-70.89851313270628452301025390625">
        <ele>608.5999755859375</ele>
        <time>2026-08-21T16:19:43.000Z</time>
        <extensions>
          <ns3:TrackPointExtension>
            <ns3:hr>104</ns3:hr>
            <ns3:cad>0</ns3:cad>
          </ns3:TrackPointExtension>
        </extensions>
      </trkpt>
      <trkpt lat="45.313073135912418365478515625" lon="-70.89852302335202693939208984375">
        <ele>608.5999755859375</ele>
        <time>2026-08-21T16:19:44.000Z</time>
        <extensions>
          <ns3:TrackPointExtension>
            <ns3:hr>103</ns3:hr>
            <ns3:cad>47</ns3:cad>
          </ns3:TrackPointExtension>
        </extensions>
      </trkpt>
      <trkpt lat="45.31307925470173358917236328125" lon="-70.89853358455002307891845703125">
        <ele>608.5999755859375</ele>
        <time>2026-08-21T16:19:45.000Z</time>
        <extensions>
          <ns3:TrackPointExtension>
            <ns3:hr>104</ns3:hr>
            <ns3:cad>47</ns3:cad>
          </ns3:TrackPointExtension>
        </extensions>
      </trkpt>
      <trkpt lat="45.3130857087671756744384765625" lon="-70.89854213409125804901123046875">
        <ele>608.5999755859375</ele>
        <time>2026-08-21T16:19:46.000Z</time>
        <extensions>
          <ns3:TrackPointExtension>
            <ns3:hr>104</ns3:hr>
            <ns3:cad>47</ns3:cad>
          </ns3:TrackPointExtension>
        </extensions>
      </trkpt>
      <trkpt lat="45.3130924142897129058837890625" lon="-70.89854590594768524169921875">
        <ele>608.4000244140625</ele>
        <time>2026-08-21T16:19:47.000Z</time>
        <extensions>
          <ns3:TrackPointExtension>
            <ns3:hr>103</ns3:hr>
            <ns3:cad>49</ns3:cad>
          </ns3:TrackPointExtension>
        </extensions>
      </trkpt>
      <trkpt lat="45.31310540623962879180908203125" lon="-70.89856241829693317413330078125">
        <ele>608.4000244140625</ele>
        <time>2026-08-21T16:19:48.000Z</time>
        <extensions>
          <ns3:TrackPointExtension>
            <ns3:hr>103</ns3:hr>
            <ns3:cad>49</ns3:cad>
          </ns3:TrackPointExtension>
        </extensions>
      </trkpt>
      <trkpt lat="45.3131103515625" lon="-70.89857314713299274444580078125">
        <ele>608.4000244140625</ele>
        <time>2026-08-21T16:19:49.000Z</time>
        <extensions>
          <ns3:TrackPointExtension>
            <ns3:hr>103</ns3:hr>
            <ns3:cad>49</ns3:cad>
          </ns3:TrackPointExtension>
        </extensions>
      </trkpt>
      <trkpt lat="45.3131192363798618316650390625" lon="-70.89858320541679859161376953125">
        <ele>608.4000244140625</ele>
        <time>2026-08-21T16:19:50.000Z</time>
        <extensions>
          <ns3:TrackPointExtension>
            <ns3:hr>103</ns3:hr>
            <ns3:cad>50</ns3:cad>
          </ns3:TrackPointExtension>
        </extensions>
      </trkpt>
      <trkpt lat="45.31312937848269939422607421875" lon="-70.89860022068023681640625">
        <ele>608.4000244140625</ele>
        <time>2026-08-21T16:19:51.000Z</time>
        <extensions>
          <ns3:TrackPointExtension>
            <ns3:hr>103</ns3:hr>
            <ns3:cad>51</ns3:cad>
          </ns3:TrackPointExtension>
        </extensions>
      </trkpt>
      <trkpt lat="45.31314077787101268768310546875" lon="-70.898613631725311279296875">
        <ele>608.4000244140625</ele>
        <time>2026-08-21T16:19:52.000Z</time>
        <extensions>
          <ns3:TrackPointExtension>
            <ns3:hr>103</ns3:hr>
            <ns3:cad>56</ns3:cad>
          </ns3:TrackPointExtension>
        </extensions>
      </trkpt>
      <trkpt lat="45.31315435655415058135986328125" lon="-70.8986122906208038330078125">
        <ele>608.4000244140625</ele>
        <time>2026-08-21T16:19:53.000Z</time>
        <extensions>
          <ns3:TrackPointExtension>
            <ns3:hr>103</ns3:hr>
            <ns3:cad>56</ns3:cad>
          </ns3:TrackPointExtension>
        </extensions>
      </trkpt>
      <trkpt lat="45.31316173262894153594970703125" lon="-70.898603908717632293701171875">
        <ele>608.4000244140625</ele>
        <time>2026-08-21T16:19:54.000Z</time>
        <extensions>
          <ns3:TrackPointExtension>
            <ns3:hr>103</ns3:hr>
            <ns3:cad>56</ns3:cad>
          </ns3:TrackPointExtension>
        </extensions>
      </trkpt>
      <trkpt lat="45.3131735511124134063720703125" lon="-70.89859561063349246978759765625">
        <ele>608.4000244140625</ele>
        <time>2026-08-21T16:19:55.000Z</time>
        <extensions>
          <ns3:TrackPointExtension>
            <ns3:hr>104</ns3:hr>
            <ns3:cad>56</ns3:cad>
          </ns3:TrackPointExtension>
        </extensions>
      </trkpt>
      <trkpt lat="45.3131886385381221771240234375" lon="-70.89859150350093841552734375">
        <ele>608.5999755859375</ele>
        <time>2026-08-21T16:19:56.000Z</time>
        <extensions>
          <ns3:TrackPointExtension>
            <ns3:hr>104</ns3:hr>
            <ns3:cad>56</ns3:cad>
          </ns3:TrackPointExtension>
        </extensions>
      </trkpt>
      <trkpt lat="45.31320582143962383270263671875" lon="-70.8985849656164646148681640625">
        <ele>608.5999755859375</ele>
        <time>2026-08-21T16:19:57.000Z</time>
        <extensions>
          <ns3:TrackPointExtension>
            <ns3:hr>105</ns3:hr>
            <ns3:cad>56</ns3:cad>
          </ns3:TrackPointExtension>
        </extensions>
      </trkpt>
      <trkpt lat="45.3132221661508083343505859375" lon="-70.8985826186835765838623046875">
        <ele>608.79998779296875</ele>
        <time>2026-08-21T16:19:58.000Z</time>
        <extensions>
          <ns3:TrackPointExtension>
            <ns3:hr>105</ns3:hr>
            <ns3:cad>56</ns3:cad>
          </ns3:TrackPointExtension>
        </extensions>
      </trkpt>
      <trkpt lat="45.31323532573878765106201171875" lon="-70.89858035556972026824951171875">
        <ele>608.79998779296875</ele>
        <time>2026-08-21T16:19:59.000Z</time>
        <extensions>
          <ns3:TrackPointExtension>
            <ns3:hr>106</ns3:hr>
            <ns3:cad>56</ns3:cad>
          </ns3:TrackPointExtension>
        </extensions>
      </trkpt>
      <trkpt lat="45.3132442943751811981201171875" lon="-70.89858345687389373779296875">
        <ele>608.79998779296875</ele>
        <time>2026-08-21T16:20:00.000Z</time>
        <extensions>
          <ns3:TrackPointExtension>
            <ns3:hr>106</ns3:hr>
            <ns3:cad>56</ns3:cad>
          </ns3:TrackPointExtension>
        </extensions>
      </trkpt>
      <trkpt lat="45.3132573701441287994384765625" lon="-70.898589827120304107666015625">
        <ele>609</ele>
        <time>2026-08-21T16:20:01.000Z</time>
        <extensions>
          <ns3:TrackPointExtension>
            <ns3:hr>107</ns3:hr>
            <ns3:cad>0</ns3:cad>
          </ns3:TrackPointExtension>
        </extensions>
      </trkpt>
      <trkpt lat="45.313266925513744354248046875" lon="-70.89860089123249053955078125">
        <ele>609</ele>
        <time>2026-08-21T16:20:02.000Z</time>
        <extensions>
          <ns3:TrackPointExtension>
            <ns3:hr>107</ns3:hr>
            <ns3:cad>0</ns3:cad>
          </ns3:TrackPointExtension>
        </extensions>
      </trkpt>
      <trkpt lat="45.31327321194112300872802734375" lon="-70.89861103333532810211181640625">
        <ele>609</ele>
        <time>2026-08-21T16:20:03.000Z</time>
        <extensions>
          <ns3:TrackPointExtension>
            <ns3:hr>108</ns3:hr>
            <ns3:cad>0</ns3:cad>
          </ns3:TrackPointExtension>
        </extensions>
      </trkpt>
      <trkpt lat="45.31327874399721622467041015625" lon="-70.8986184932291507720947265625">
        <ele>609</ele>
        <time>2026-08-21T16:20:04.000Z</time>
        <extensions>
          <ns3:TrackPointExtension>
            <ns3:hr>109</ns3:hr>
            <ns3:cad>0</ns3:cad>
          </ns3:TrackPointExtension>
        </extensions>
      </trkpt>
      <trkpt lat="45.31328846700489521026611328125" lon="-70.89862796477973461151123046875">
        <ele>609</ele>
        <time>2026-08-21T16:20:05.000Z</time>
        <extensions>
          <ns3:TrackPointExtension>
            <ns3:hr>109</ns3:hr>
            <ns3:cad>0</ns3:cad>
          </ns3:TrackPointExtension>
        </extensions>
      </trkpt>
      <trkpt lat="45.31330003403127193450927734375" lon="-70.8986399509012699127197265625">
        <ele>608.79998779296875</ele>
        <time>2026-08-21T16:20:06.000Z</time>
        <extensions>
          <ns3:TrackPointExtension>
            <ns3:hr>109</ns3:hr>
            <ns3:cad>57</ns3:cad>
          </ns3:TrackPointExtension>
        </extensions>
      </trkpt>
      <trkpt lat="45.31330950558185577392578125" lon="-70.8986510150134563446044921875">
        <ele>608.5999755859375</ele>
        <time>2026-08-21T16:20:07.000Z</time>
        <extensions>
          <ns3:TrackPointExtension>
            <ns3:hr>110</ns3:hr>
            <ns3:cad>57</ns3:cad>
          </ns3:TrackPointExtension>
        </extensions>
      </trkpt>
      <trkpt lat="45.31331931240856647491455078125" lon="-70.89865981601178646087646484375">
        <ele>608.5999755859375</ele>
        <time>2026-08-21T16:20:08.000Z</time>
        <extensions>
          <ns3:TrackPointExtension>
            <ns3:hr>110</ns3:hr>
            <ns3:cad>57</ns3:cad>
          </ns3:TrackPointExtension>
        </extensions>
      </trkpt>
      <trkpt lat="45.31332937069237232208251953125" lon="-70.8986697904765605926513671875">
        <ele>608.5999755859375</ele>
        <time>2026-08-21T16:20:09.000Z</time>
        <extensions>
          <ns3:TrackPointExtension>
            <ns3:hr>110</ns3:hr>
            <ns3:cad>57</ns3:cad>
          </ns3:TrackPointExtension>
        </extensions>
      </trkpt>
      <trkpt lat="45.313331969082355499267578125" lon="-70.89867942966520786285400390625">
        <ele>608.5999755859375</ele>
        <time>2026-08-21T16:20:10.000Z</time>
        <extensions>
          <ns3:TrackPointExtension>
            <ns3:hr>110</ns3:hr>
            <ns3:cad>57</ns3:cad>
          </ns3:TrackPointExtension>
        </extensions>
      </trkpt>
      <trkpt lat="45.31334328465163707733154296875" lon="-70.8986996300518512725830078125">
        <ele>608.5999755859375</ele>
        <time>2026-08-21T16:20:11.000Z</time>
        <extensions>
          <ns3:TrackPointExtension>
            <ns3:hr>110</ns3:hr>
            <ns3:cad>57</ns3:cad>
          </ns3:TrackPointExtension>
        </extensions>
      </trkpt>
      <trkpt lat="45.3133552707731723785400390625" lon="-70.8987115323543548583984375">
        <ele>608.5999755859375</ele>
        <time>2026-08-21T16:20:12.000Z</time>
        <extensions>
          <ns3:TrackPointExtension>
            <ns3:hr>110</ns3:hr>
            <ns3:cad>57</ns3:cad>
          </ns3:TrackPointExtension>
        </extensions>
      </trkpt>
      <trkpt lat="45.31335937790572643280029296875" lon="-70.8987227641046047210693359375">
        <ele>608.4000244140625</ele>
        <time>2026-08-21T16:20:13.000Z</time>
        <extensions>
          <ns3:TrackPointExtension>
            <ns3:hr>111</ns3:hr>
            <ns3:cad>57</ns3:cad>
          </ns3:TrackPointExtension>
        </extensions>
      </trkpt>
      <trkpt lat="45.31336843036115169525146484375" lon="-70.89874044992029666900634765625">
        <ele>608.20001220703125</ele>
        <time>2026-08-21T16:20:14.000Z</time>
        <extensions>
          <ns3:TrackPointExtension>
            <ns3:hr>110</ns3:hr>
            <ns3:cad>55</ns3:cad>
          </ns3:TrackPointExtension>
        </extensions>
      </trkpt>
      <trkpt lat="45.31337320804595947265625" lon="-70.89875436387956142425537109375">
        <ele>608</ele>
        <time>2026-08-21T16:20:15.000Z</time>
        <extensions>
          <ns3:TrackPointExtension>
            <ns3:hr>110</ns3:hr>
            <ns3:cad>55</ns3:cad>
          </ns3:TrackPointExtension>
        </extensions>
      </trkpt>
      <trkpt lat="45.31337966211140155792236328125" lon="-70.89876450598239898681640625">
        <ele>608</ele>
        <time>2026-08-21T16:20:16.000Z</time>
        <extensions>
          <ns3:TrackPointExtension>
            <ns3:hr>110</ns3:hr>
            <ns3:cad>55</ns3:cad>
          </ns3:TrackPointExtension>
        </extensions>
      </trkpt>
      <trkpt lat="45.3133934922516345977783203125" lon="-70.89877280406653881072998046875">
        <ele>607.79998779296875</ele>
        <time>2026-08-21T16:20:17.000Z</time>
        <extensions>
          <ns3:TrackPointExtension>
            <ns3:hr>110</ns3:hr>
            <ns3:cad>53</ns3:cad>
          </ns3:TrackPointExtension>
        </extensions>
      </trkpt>
      <trkpt lat="45.31339977867901325225830078125" lon="-70.89879023842513561248779296875">
        <ele>607.79998779296875</ele>
        <time>2026-08-21T16:20:18.000Z</time>
        <extensions>
          <ns3:TrackPointExtension>
            <ns3:hr>110</ns3:hr>
            <ns3:cad>53</ns3:cad>
          </ns3:TrackPointExtension>
        </extensions>
      </trkpt>
      <trkpt lat="45.31339592300355434417724609375" lon="-70.89881488122045993804931640625">
        <ele>607.5999755859375</ele>
        <time>2026-08-21T16:20:19.000Z</time>
        <extensions>
          <ns3:TrackPointExtension>
            <ns3:hr>109</ns3:hr>
            <ns3:cad>53</ns3:cad>
          </ns3:TrackPointExtension>
        </extensions>
      </trkpt>
      <trkpt lat="45.3134005330502986907958984375" lon="-70.8988347463309764862060546875">
        <ele>607.5999755859375</ele>
        <time>2026-08-21T16:20:20.000Z</time>
        <extensions>
          <ns3:TrackPointExtension>
            <ns3:hr>109</ns3:hr>
            <ns3:cad>53</ns3:cad>
          </ns3:TrackPointExtension>
        </extensions>
      </trkpt>
      <trkpt lat="45.31340472400188446044921875" lon="-70.89885033667087554931640625">
        <ele>607.5999755859375</ele>
        <time>2026-08-21T16:20:21.000Z</time>
        <extensions>
          <ns3:TrackPointExtension>
            <ns3:hr>108</ns3:hr>
            <ns3:cad>55</ns3:cad>
          </ns3:TrackPointExtension>
        </extensions>
      </trkpt>
      <trkpt lat="45.3134099207818508148193359375" lon="-70.8988652564585208892822265625">
        <ele>607.4000244140625</ele>
        <time>2026-08-21T16:20:22.000Z</time>
        <extensions>
          <ns3:TrackPointExtension>
            <ns3:hr>108</ns3:hr>
            <ns3:cad>55</ns3:cad>
          </ns3:TrackPointExtension>
        </extensions>
      </trkpt>
      <trkpt lat="45.31341369263827800750732421875" lon="-70.898876152932643890380859375">
        <ele>607.20001220703125</ele>
        <time>2026-08-21T16:20:23.000Z</time>
        <extensions>
          <ns3:TrackPointExtension>
            <ns3:hr>108</ns3:hr>
            <ns3:cad>55</ns3:cad>
          </ns3:TrackPointExtension>
        </extensions>
      </trkpt>
      <trkpt lat="45.31341520138084888458251953125" lon="-70.898887217044830322265625">
        <ele>607</ele>
        <time>2026-08-21T16:20:24.000Z</time>
        <extensions>
          <ns3:TrackPointExtension>
            <ns3:hr>108</ns3:hr>
            <ns3:cad>57</ns3:cad>
          </ns3:TrackPointExtension>
        </extensions>
      </trkpt>
      <trkpt lat="45.31341805122792720794677734375" lon="-70.8989031426608562469482421875">
        <ele>607</ele>
        <time>2026-08-21T16:20:25.000Z</time>
        <extensions>
          <ns3:TrackPointExtension>
            <ns3:hr>107</ns3:hr>
            <ns3:cad>57</ns3:cad>
          </ns3:TrackPointExtension>
        </extensions>
      </trkpt>
      <trkpt lat="45.31342039816081523895263671875" lon="-70.8989145420491695404052734375">
        <ele>606.79998779296875</ele>
        <time>2026-08-21T16:20:26.000Z</time>
        <extensions>
          <ns3:TrackPointExtension>
            <ns3:hr>107</ns3:hr>
            <ns3:cad>57</ns3:cad>
          </ns3:TrackPointExtension>
        </extensions>
      </trkpt>
      <trkpt lat="45.31342559494078159332275390625" lon="-70.898927785456180572509765625">
        <ele>606.79998779296875</ele>
        <time>2026-08-21T16:20:27.000Z</time>
        <extensions>
          <ns3:TrackPointExtension>
            <ns3:hr>107</ns3:hr>
            <ns3:cad>57</ns3:cad>
          </ns3:TrackPointExtension>
        </extensions>
      </trkpt>
      <trkpt lat="45.3134335577487945556640625" lon="-70.89894329197704792022705078125">
        <ele>606.79998779296875</ele>
        <time>2026-08-21T16:20:28.000Z</time>
        <extensions>
          <ns3:TrackPointExtension>
            <ns3:hr>107</ns3:hr>
            <ns3:cad>62</ns3:cad>
          </ns3:TrackPointExtension>
        </extensions>
      </trkpt>
      <trkpt lat="45.3134464658796787261962890625" lon="-70.898966677486896514892578125">
        <ele>606.5999755859375</ele>
        <time>2026-08-21T16:20:29.000Z</time>
        <extensions>
          <ns3:TrackPointExtension>
            <ns3:hr>108</ns3:hr>
            <ns3:cad>57</ns3:cad>
          </ns3:TrackPointExtension>
        </extensions>
      </trkpt>
      <trkpt lat="45.31345711089670658111572265625" lon="-70.89898520149290561676025390625">
        <ele>606.5999755859375</ele>
        <time>2026-08-21T16:20:30.000Z</time>
        <extensions>
          <ns3:TrackPointExtension>
            <ns3:hr>108</ns3:hr>
            <ns3:cad>57</ns3:cad>
          </ns3:TrackPointExtension>
        </extensions>
      </trkpt>
      <trkpt lat="45.313467420637607574462890625" lon="-70.89900129474699497222900390625">
        <ele>606.5999755859375</ele>
        <time>2026-08-21T16:20:31.000Z</time>
        <extensions>
          <ns3:TrackPointExtension>
            <ns3:hr>109</ns3:hr>
            <ns3:cad>57</ns3:cad>
          </ns3:TrackPointExtension>
        </extensions>
      </trkpt>
      <trkpt lat="45.31347714364528656005859375" lon="-70.8990090899169445037841796875">
        <ele>606.4000244140625</ele>
        <time>2026-08-21T16:20:32.000Z</time>
        <extensions>
          <ns3:TrackPointExtension>
            <ns3:hr>110</ns3:hr>
            <ns3:cad>57</ns3:cad>
          </ns3:TrackPointExtension>
        </extensions>
      </trkpt>
      <trkpt lat="45.31349985860288143157958984375" lon="-70.89901386760175228118896484375">
        <ele>606.4000244140625</ele>
        <time>2026-08-21T16:20:33.000Z</time>
        <extensions>
          <ns3:TrackPointExtension>
            <ns3:hr>110</ns3:hr>
            <ns3:cad>56</ns3:cad>
          </ns3:TrackPointExtension>
        </extensions>
      </trkpt>
      <trkpt lat="45.31351578421890735626220703125" lon="-70.8990151248872280120849609375">
        <ele>606.4000244140625</ele>
        <time>2026-08-21T16:20:34.000Z</time>
        <extensions>
          <ns3:TrackPointExtension>
            <ns3:hr>110</ns3:hr>
            <ns3:cad>55</ns3:cad>
          </ns3:TrackPointExtension>
        </extensions>
      </trkpt>
      <trkpt lat="45.31352517195045948028564453125" lon="-70.89901906438171863555908203125">
        <ele>606.4000244140625</ele>
        <time>2026-08-21T16:20:35.000Z</time>
        <extensions>
          <ns3:TrackPointExtension>
            <ns3:hr>110</ns3:hr>
            <ns3:cad>55</ns3:cad>
          </ns3:TrackPointExtension>
        </extensions>
      </trkpt>
      <trkpt lat="45.313532464206218719482421875" lon="-70.89901722036302089691162109375">
        <ele>606.4000244140625</ele>
        <time>2026-08-21T16:20:36.000Z</time>
        <extensions>
          <ns3:TrackPointExtension>
            <ns3:hr>111</ns3:hr>
            <ns3:cad>55</ns3:cad>
          </ns3:TrackPointExtension>
        </extensions>
      </trkpt>
      <trkpt lat="45.313543193042278289794921875" lon="-70.8990174718201160430908203125">
        <ele>606.4000244140625</ele>
        <time>2026-08-21T16:20:37.000Z</time>
        <extensions>
          <ns3:TrackPointExtension>
            <ns3:hr>111</ns3:hr>
            <ns3:cad>55</ns3:cad>
          </ns3:TrackPointExtension>
        </extensions>
      </trkpt>
      <trkpt lat="45.3135581128299236297607421875" lon="-70.8990228362381458282470703125">
        <ele>606.4000244140625</ele>
        <time>2026-08-21T16:20:38.000Z</time>
        <extensions>
          <ns3:TrackPointExtension>
            <ns3:hr>111</ns3:hr>
            <ns3:cad>55</ns3:cad>
          </ns3:TrackPointExtension>
        </extensions>
      </trkpt>
      <trkpt lat="45.3135668300092220306396484375" lon="-70.8990228362381458282470703125">
        <ele>606.4000244140625</ele>
        <time>2026-08-21T16:20:39.000Z</time>
        <extensions>
          <ns3:TrackPointExtension>
            <ns3:hr>111</ns3:hr>
            <ns3:cad>0</ns3:cad>
          </ns3:TrackPointExtension>
        </extensions>
      </trkpt>
      <trkpt lat="45.31357194297015666961669921875" lon="-70.89901529252529144287109375">
        <ele>606.20001220703125</ele>
        <time>2026-08-21T16:20:40.000Z</time>
        <extensions>
          <ns3:TrackPointExtension>
            <ns3:hr>111</ns3:hr>
            <ns3:cad>0</ns3:cad>
          </ns3:TrackPointExtension>
        </extensions>
      </trkpt>
      <trkpt lat="45.31357680447399616241455078125" lon="-70.89900850318372249603271484375">
        <ele>606.4000244140625</ele>
        <time>2026-08-21T16:20:41.000Z</time>
        <extensions>
          <ns3:TrackPointExtension>
            <ns3:hr>112</ns3:hr>
            <ns3:cad>0</ns3:cad>
          </ns3:TrackPointExtension>
        </extensions>
      </trkpt>
      <trkpt lat="45.3135837614536285400390625" lon="-70.8990027196705341339111328125">
        <ele>606.4000244140625</ele>
        <time>2026-08-21T16:20:42.000Z</time>
        <extensions>
          <ns3:TrackPointExtension>
            <ns3:hr>112</ns3:hr>
            <ns3:cad>0</ns3:cad>
          </ns3:TrackPointExtension>
        </extensions>
      </trkpt>
      <trkpt lat="45.3135923109948635101318359375" lon="-70.8990027196705341339111328125">
        <ele>606.4000244140625</ele>
        <time>2026-08-21T16:20:43.000Z</time>
        <extensions>
          <ns3:TrackPointExtension>
            <ns3:hr>112</ns3:hr>
            <ns3:cad>0</ns3:cad>
          </ns3:TrackPointExtension>
        </extensions>
      </trkpt>
      <trkpt lat="45.31360027380287647247314453125" lon="-70.89900414459407329559326171875">
        <ele>606.5999755859375</ele>
        <time>2026-08-21T16:20:44.000Z</time>
        <extensions>
          <ns3:TrackPointExtension>
            <ns3:hr>111</ns3:hr>
            <ns3:cad>0</ns3:cad>
          </ns3:TrackPointExtension>
        </extensions>
      </trkpt>
      <trkpt lat="45.313609577715396881103515625" lon="-70.898999534547328948974609375">
        <ele>606.5999755859375</ele>
        <time>2026-08-21T16:20:45.000Z</time>
        <extensions>
          <ns3:TrackPointExtension>
            <ns3:hr>111</ns3:hr>
            <ns3:cad>48</ns3:cad>
          </ns3:TrackPointExtension>
        </extensions>
      </trkpt>
      <trkpt lat="45.313617289066314697265625" lon="-70.8989909850060939788818359375">
        <ele>606.5999755859375</ele>
        <time>2026-08-21T16:20:46.000Z</time>
        <extensions>
          <ns3:TrackPointExtension>
            <ns3:hr>110</ns3:hr>
            <ns3:cad>48</ns3:cad>
          </ns3:TrackPointExtension>
        </extensions>
      </trkpt>
      <trkpt lat="45.3136251680552959442138671875" lon="-70.89898235164582729339599609375">
        <ele>606.5999755859375</ele>
        <time>2026-08-21T16:20:47.000Z</time>
        <extensions>
          <ns3:TrackPointExtension>
            <ns3:hr>110</ns3:hr>
            <ns3:cad>48</ns3:cad>
          </ns3:TrackPointExtension>
        </extensions>
      </trkpt>
      <trkpt lat="45.3136298619210720062255859375" lon="-70.898973047733306884765625">
        <ele>606.5999755859375</ele>
        <time>2026-08-21T16:20:48.000Z</time>
        <extensions>
          <ns3:TrackPointExtension>
            <ns3:hr>110</ns3:hr>
            <ns3:cad>48</ns3:cad>
          </ns3:TrackPointExtension>
        </extensions>
      </trkpt>
      <trkpt lat="45.31363665126264095306396484375" lon="-70.89896558783948421478271484375">
        <ele>606.79998779296875</ele>
        <time>2026-08-21T16:20:49.000Z</time>
        <extensions>
          <ns3:TrackPointExtension>
            <ns3:hr>110</ns3:hr>
            <ns3:cad>48</ns3:cad>
          </ns3:TrackPointExtension>
        </extensions>
      </trkpt>
      <trkpt lat="45.31364687718451023101806640625" lon="-70.8989609777927398681640625">
        <ele>606.79998779296875</ele>
        <time>2026-08-21T16:20:50.000Z</time>
        <extensions>
          <ns3:TrackPointExtension>
            <ns3:hr>111</ns3:hr>
            <ns3:cad>53</ns3:cad>
          </ns3:TrackPointExtension>
        </extensions>
      </trkpt>
      <trkpt lat="45.3136529959738254547119140625" lon="-70.8989567868411540985107421875">
        <ele>607</ele>
        <time>2026-08-21T16:20:51.000Z</time>
        <extensions>
          <ns3:TrackPointExtension>
            <ns3:hr>111</ns3:hr>
            <ns3:cad>53</ns3:cad>
          </ns3:TrackPointExtension>
        </extensions>
      </trkpt>
      <trkpt lat="45.31365819275379180908203125" lon="-70.89895226061344146728515625">
        <ele>607</ele>
        <time>2026-08-21T16:20:52.000Z</time>
        <extensions>
          <ns3:TrackPointExtension>
            <ns3:hr>112</ns3:hr>
            <ns3:cad>53</ns3:cad>
          </ns3:TrackPointExtension>
        </extensions>
      </trkpt>
      <trkpt lat="45.3136650659143924713134765625" lon="-70.8989520929753780364990234375">
        <ele>607</ele>
        <time>2026-08-21T16:20:53.000Z</time>
        <extensions>
          <ns3:TrackPointExtension>
            <ns3:hr>112</ns3:hr>
            <ns3:cad>50</ns3:cad>
          </ns3:TrackPointExtension>
        </extensions>
      </trkpt>
      <trkpt lat="45.31366984359920024871826171875" lon="-70.89895284734666347503662109375">
        <ele>607.20001220703125</ele>
        <time>2026-08-21T16:20:54.000Z</time>
        <extensions>
          <ns3:TrackPointExtension>
            <ns3:hr>113</ns3:hr>
            <ns3:cad>50</ns3:cad>
          </ns3:TrackPointExtension>
        </extensions>
      </trkpt>
      <trkpt lat="45.3136764653027057647705078125" lon="-70.898953266441822052001953125">
        <ele>607.20001220703125</ele>
        <time>2026-08-21T16:20:55.000Z</time>
        <extensions>
          <ns3:TrackPointExtension>
            <ns3:hr>113</ns3:hr>
            <ns3:cad>0</ns3:cad>
          </ns3:TrackPointExtension>
        </extensions>
      </trkpt>
      <trkpt lat="45.31368627212941646575927734375" lon="-70.8989504165947437286376953125">
        <ele>607</ele>
        <time>2026-08-21T16:20:56.000Z</time>
        <extensions>
          <ns3:TrackPointExtension>
            <ns3:hr>113</ns3:hr>
            <ns3:cad>0</ns3:cad>
          </ns3:TrackPointExtension>
        </extensions>
      </trkpt>
      <trkpt lat="45.31369968317449092864990234375" lon="-70.89894362725317478179931640625">
        <ele>607</ele>
        <time>2026-08-21T16:20:57.000Z</time>
        <extensions>
          <ns3:TrackPointExtension>
            <ns3:hr>113</ns3:hr>
            <ns3:cad>0</ns3:cad>
          </ns3:TrackPointExtension>
        </extensions>
      </trkpt>
      <trkpt lat="45.313710831105709075927734375" lon="-70.89893541298806667327880859375">
        <ele>607</ele>
        <time>2026-08-21T16:20:58.000Z</time>
        <extensions>
          <ns3:TrackPointExtension>
            <ns3:hr>114</ns3:hr>
            <ns3:cad>0</ns3:cad>
          </ns3:TrackPointExtension>
        </extensions>
      </trkpt>
      <trkpt lat="45.31372365541756153106689453125" lon="-70.89892451651394367218017578125">
        <ele>607</ele>
        <time>2026-08-21T16:20:59.000Z</time>
        <extensions>
          <ns3:TrackPointExtension>
            <ns3:hr>114</ns3:hr>
            <ns3:cad>0</ns3:cad>
          </ns3:TrackPointExtension>
        </extensions>
      </trkpt>
      <trkpt lat="45.31372918747365474700927734375" lon="-70.898909680545330047607421875">
        <ele>607</ele>
        <time>2026-08-21T16:21:00.000Z</time>
        <extensions>
          <ns3:TrackPointExtension>
            <ns3:hr>114</ns3:hr>
            <ns3:cad>0</ns3:cad>
          </ns3:TrackPointExtension>
        </extensions>
      </trkpt>
      <trkpt lat="45.31373807229101657867431640625" lon="-70.8988954313099384307861328125">
        <ele>607</ele>
        <time>2026-08-21T16:21:01.000Z</time>
        <extensions>
          <ns3:TrackPointExtension>
            <ns3:hr>114</ns3:hr>
            <ns3:cad>0</ns3:cad>
          </ns3:TrackPointExtension>
        </extensions>
      </trkpt>
      <trkpt lat="45.3137475438416004180908203125" lon="-70.8988833613693714141845703125">
        <ele>607.20001220703125</ele>
        <time>2026-08-21T16:21:02.000Z</time>
        <extensions>
          <ns3:TrackPointExtension>
            <ns3:hr>115</ns3:hr>
            <ns3:cad>0</ns3:cad>
          </ns3:TrackPointExtension>
        </extensions>
      </trkpt>
      <trkpt lat="45.31375743448734283447265625" lon="-70.89886819012463092803955078125">
        <ele>607.20001220703125</ele>
        <time>2026-08-21T16:21:03.000Z</time>
        <extensions>
          <ns3:TrackPointExtension>
            <ns3:hr>115</ns3:hr>
            <ns3:cad>55</ns3:cad>
          </ns3:TrackPointExtension>
        </extensions>
      </trkpt>
      <trkpt lat="45.3137656487524509429931640625" lon="-70.89885209687054157257080078125">
        <ele>607.4000244140625</ele>
        <time>2026-08-21T16:21:04.000Z</time>
        <extensions>
          <ns3:TrackPointExtension>
            <ns3:hr>116</ns3:hr>
            <ns3:cad>55</ns3:cad>
          </ns3:TrackPointExtension>
        </extensions>
      </trkpt>
      <trkpt lat="45.3137733601033687591552734375" lon="-70.8988429605960845947265625">
        <ele>607.4000244140625</ele>
        <time>2026-08-21T16:21:05.000Z</time>
        <extensions>
          <ns3:TrackPointExtension>
            <ns3:hr>116</ns3:hr>
            <ns3:cad>55</ns3:cad>
          </ns3:TrackPointExtension>
        </extensions>
      </trkpt>
      <trkpt lat="45.31378333456814289093017578125" lon="-70.89884388260543346405029296875">
        <ele>607.4000244140625</ele>
        <time>2026-08-21T16:21:06.000Z</time>
        <extensions>
          <ns3:TrackPointExtension>
            <ns3:hr>116</ns3:hr>
            <ns3:cad>55</ns3:cad>
          </ns3:TrackPointExtension>
        </extensions>
      </trkpt>
      <trkpt lat="45.3137938119471073150634765625" lon="-70.89884153567254543304443359375">
        <ele>607.4000244140625</ele>
        <time>2026-08-21T16:21:07.000Z</time>
        <extensions>
          <ns3:TrackPointExtension>
            <ns3:hr>116</ns3:hr>
            <ns3:cad>53</ns3:cad>
          </ns3:TrackPointExtension>
        </extensions>
      </trkpt>
      <trkpt lat="45.31380169093608856201171875" lon="-70.8988360874354839324951171875">
        <ele>607.5999755859375</ele>
        <time>2026-08-21T16:21:08.000Z</time>
        <extensions>
          <ns3:TrackPointExtension>
            <ns3:hr>116</ns3:hr>
            <ns3:cad>52</ns3:cad>
          </ns3:TrackPointExtension>
        </extensions>
      </trkpt>
      <trkpt lat="45.31380839645862579345703125" lon="-70.8988350816071033477783203125">
        <ele>607.4000244140625</ele>
        <time>2026-08-21T16:21:09.000Z</time>
        <extensions>
          <ns3:TrackPointExtension>
            <ns3:hr>116</ns3:hr>
            <ns3:cad>52</ns3:cad>
          </ns3:TrackPointExtension>
        </extensions>
      </trkpt>
      <trkpt lat="45.31382004730403423309326171875" lon="-70.89884086512029170989990234375">
        <ele>607.4000244140625</ele>
        <time>2026-08-21T16:21:10.000Z</time>
        <extensions>
          <ns3:TrackPointExtension>
            <ns3:hr>116</ns3:hr>
            <ns3:cad>52</ns3:cad>
          </ns3:TrackPointExtension>
        </extensions>
      </trkpt>
      <trkpt lat="45.31383253633975982666015625" lon="-70.8988515101373195648193359375">
        <ele>607.20001220703125</ele>
        <time>2026-08-21T16:21:11.000Z</time>
        <extensions>
          <ns3:TrackPointExtension>
            <ns3:hr>116</ns3:hr>
            <ns3:cad>52</ns3:cad>
          </ns3:TrackPointExtension>
        </extensions>
      </trkpt>
      <trkpt lat="45.31384485773742198944091796875" lon="-70.89885704219341278076171875">
        <ele>607.20001220703125</ele>
        <time>2026-08-21T16:21:12.000Z</time>
        <extensions>
          <ns3:TrackPointExtension>
            <ns3:hr>117</ns3:hr>
            <ns3:cad>52</ns3:cad>
          </ns3:TrackPointExtension>
        </extensions>
      </trkpt>
      <trkpt lat="45.3138622082769870758056640625" lon="-70.898857377469539642333984375">
        <ele>607</ele>
        <time>2026-08-21T16:21:13.000Z</time>
        <extensions>
          <ns3:TrackPointExtension>
            <ns3:hr>117</ns3:hr>
            <ns3:cad>55</ns3:cad>
          </ns3:TrackPointExtension>
        </extensions>
      </trkpt>
      <trkpt lat="45.3138793073594570159912109375" lon="-70.898850671947002410888671875">
        <ele>607</ele>
        <time>2026-08-21T16:21:14.000Z</time>
        <extensions>
          <ns3:TrackPointExtension>
            <ns3:hr>117</ns3:hr>
            <ns3:cad>55</ns3:cad>
          </ns3:TrackPointExtension>
        </extensions>
      </trkpt>
      <trkpt lat="45.313893221318721771240234375" lon="-70.8988404460251331329345703125">
        <ele>607</ele>
        <time>2026-08-21T16:21:15.000Z</time>
        <extensions>
          <ns3:TrackPointExtension>
            <ns3:hr>117</ns3:hr>
            <ns3:cad>55</ns3:cad>
          </ns3:TrackPointExtension>
        </extensions>
      </trkpt>
      <trkpt lat="45.3139081411063671112060546875" lon="-70.89882343076169490814208984375">
        <ele>607</ele>
        <time>2026-08-21T16:21:16.000Z</time>
        <extensions>
          <ns3:TrackPointExtension>
            <ns3:hr>117</ns3:hr>
            <ns3:cad>55</ns3:cad>
          </ns3:TrackPointExtension>
        </extensions>
      </trkpt>
      <trkpt lat="45.31391970813274383544921875" lon="-70.89881001971662044525146484375">
        <ele>607</ele>
        <time>2026-08-21T16:21:17.000Z</time>
        <extensions>
          <ns3:TrackPointExtension>
            <ns3:hr>116</ns3:hr>
            <ns3:cad>57</ns3:cad>
          </ns3:TrackPointExtension>
        </extensions>
      </trkpt>
      <trkpt lat="45.3139319457113742828369140625" lon="-70.8987919986248016357421875">
        <ele>606.79998779296875</ele>
        <time>2026-08-21T16:21:18.000Z</time>
        <extensions>
          <ns3:TrackPointExtension>
            <ns3:hr>117</ns3:hr>
            <ns3:cad>57</ns3:cad>
          </ns3:TrackPointExtension>
        </extensions>
      </trkpt>
      <trkpt lat="45.31394183635711669921875" lon="-70.898774564266204833984375">
        <ele>606.79998779296875</ele>
        <time>2026-08-21T16:21:19.000Z</time>
        <extensions>
          <ns3:TrackPointExtension>
            <ns3:hr>117</ns3:hr>
            <ns3:cad>57</ns3:cad>
          </ns3:TrackPointExtension>
        </extensions>
      </trkpt>
      <trkpt lat="45.313949547708034515380859375" lon="-70.8987552858889102935791015625">
        <ele>606.79998779296875</ele>
        <time>2026-08-21T16:21:20.000Z</time>
        <extensions>
          <ns3:TrackPointExtension>
            <ns3:hr>118</ns3:hr>
            <ns3:cad>58</ns3:cad>
          </ns3:TrackPointExtension>
        </extensions>
      </trkpt>
      <trkpt lat="45.3139567561447620391845703125" lon="-70.8987381868064403533935546875">
        <ele>606.79998779296875</ele>
        <time>2026-08-21T16:21:21.000Z</time>
        <extensions>
          <ns3:TrackPointExtension>
            <ns3:hr>119</ns3:hr>
            <ns3:cad>58</ns3:cad>
          </ns3:TrackPointExtension>
        </extensions>
      </trkpt>
      <trkpt lat="45.31396036036312580108642578125" lon="-70.89872603304684162139892578125">
        <ele>607</ele>
        <time>2026-08-21T16:21:22.000Z</time>
        <extensions>
          <ns3:TrackPointExtension>
            <ns3:hr>120</ns3:hr>
            <ns3:cad>58</ns3:cad>
          </ns3:TrackPointExtension>
        </extensions>
      </trkpt>
      <trkpt lat="45.31396689824759960174560546875" lon="-70.898711197078227996826171875">
        <ele>607</ele>
        <time>2026-08-21T16:21:23.000Z</time>
        <extensions>
          <ns3:TrackPointExtension>
            <ns3:hr>121</ns3:hr>
            <ns3:cad>55</ns3:cad>
          </ns3:TrackPointExtension>
        </extensions>
      </trkpt>
      <trkpt lat="45.31397335231304168701171875" lon="-70.89870306663215160369873046875">
        <ele>607</ele>
        <time>2026-08-21T16:21:24.000Z</time>
        <extensions>
          <ns3:TrackPointExtension>
            <ns3:hr>121</ns3:hr>
            <ns3:cad>55</ns3:cad>
          </ns3:TrackPointExtension>
        </extensions>
      </trkpt>
      <trkpt lat="45.31397947110235691070556640625" lon="-70.898695103824138641357421875">
        <ele>607</ele>
        <time>2026-08-21T16:21:25.000Z</time>
        <extensions>
          <ns3:TrackPointExtension>
            <ns3:hr>121</ns3:hr>
            <ns3:cad>0</ns3:cad>
          </ns3:TrackPointExtension>
        </extensions>
      </trkpt>
      <trkpt lat="45.31398416496813297271728515625" lon="-70.89868697337806224822998046875">
        <ele>607</ele>
        <time>2026-08-21T16:21:26.000Z</time>
        <extensions>
          <ns3:TrackPointExtension>
            <ns3:hr>121</ns3:hr>
            <ns3:cad>0</ns3:cad>
          </ns3:TrackPointExtension>
        </extensions>
      </trkpt>
      <trkpt lat="45.31399657018482685089111328125" lon="-70.89868077076971530914306640625">
        <ele>607</ele>
        <time>2026-08-21T16:21:27.000Z</time>
        <extensions>
          <ns3:TrackPointExtension>
            <ns3:hr>120</ns3:hr>
            <ns3:cad>0</ns3:cad>
          </ns3:TrackPointExtension>
        </extensions>
      </trkpt>
      <trkpt lat="45.3140043653547763824462890625" lon="-70.89867523871362209320068359375">
        <ele>607</ele>
        <time>2026-08-21T16:21:28.000Z</time>
        <extensions>
          <ns3:TrackPointExtension>
            <ns3:hr>120</ns3:hr>
            <ns3:cad>0</ns3:cad>
          </ns3:TrackPointExtension>
        </extensions>
      </trkpt>
      <trkpt lat="45.3140104003250598907470703125" lon="-70.8986659348011016845703125">
        <ele>607</ele>
        <time>2026-08-21T16:21:29.000Z</time>
        <extensions>
          <ns3:TrackPointExtension>
            <ns3:hr>119</ns3:hr>
            <ns3:cad>0</ns3:cad>
          </ns3:TrackPointExtension>
        </extensions>
      </trkpt>
      <trkpt lat="45.3140182793140411376953125" lon="-70.89865663088858127593994140625">
        <ele>607</ele>
        <time>2026-08-21T16:21:30.000Z</time>
        <extensions>
          <ns3:TrackPointExtension>
            <ns3:hr>118</ns3:hr>
            <ns3:cad>0</ns3:cad>
          </ns3:TrackPointExtension>
        </extensions>
      </trkpt>
      <trkpt lat="45.31402540393173694610595703125" lon="-70.89863886125385761260986328125">
        <ele>607</ele>
        <time>2026-08-21T16:21:31.000Z</time>
        <extensions>
          <ns3:TrackPointExtension>
            <ns3:hr>116</ns3:hr>
            <ns3:cad>0</ns3:cad>
          </ns3:TrackPointExtension>
        </extensions>
      </trkpt>
      <trkpt lat="45.31402942724525928497314453125" lon="-70.89862930588424205780029296875">
        <ele>606.79998779296875</ele>
        <time>2026-08-21T16:21:32.000Z</time>
        <extensions>
          <ns3:TrackPointExtension>
            <ns3:hr>114</ns3:hr>
            <ns3:cad>0</ns3:cad>
          </ns3:TrackPointExtension>
        </extensions>
      </trkpt>
      <trkpt lat="45.31403227709233760833740234375" lon="-70.89862410910427570343017578125">
        <ele>606.79998779296875</ele>
        <time>2026-08-21T16:21:33.000Z</time>
        <extensions>
          <ns3:TrackPointExtension>
            <ns3:hr>114</ns3:hr>
            <ns3:cad>0</ns3:cad>
          </ns3:TrackPointExtension>
        </extensions>
      </trkpt>
      <trkpt lat="45.31403596512973308563232421875" lon="-70.89862511493265628814697265625">
        <ele>606.79998779296875</ele>
        <time>2026-08-21T16:21:34.000Z</time>
        <extensions>
          <ns3:TrackPointExtension>
            <ns3:hr>114</ns3:hr>
            <ns3:cad>0</ns3:cad>
          </ns3:TrackPointExtension>
        </extensions>
      </trkpt>
      <trkpt lat="45.3140399046242237091064453125" lon="-70.8986238576471805572509765625">
        <ele>606.79998779296875</ele>
        <time>2026-08-21T16:21:35.000Z</time>
        <extensions>
          <ns3:TrackPointExtension>
            <ns3:hr>113</ns3:hr>
            <ns3:cad>0</ns3:cad>
          </ns3:TrackPointExtension>
        </extensions>
      </trkpt>
      <trkpt lat="45.31404082663357257843017578125" lon="-70.89862360619008541107177734375">
        <ele>606.79998779296875</ele>
        <time>2026-08-21T16:21:36.000Z</time>
        <extensions>
          <ns3:TrackPointExtension>
            <ns3:hr>113</ns3:hr>
            <ns3:cad>0</ns3:cad>
          </ns3:TrackPointExtension>
        </extensions>
      </trkpt>
      <trkpt lat="45.31404082663357257843017578125" lon="-70.89862427674233913421630859375">
        <ele>606.79998779296875</ele>
        <time>2026-08-21T16:21:37.000Z</time>
        <extensions>
          <ns3:TrackPointExtension>
            <ns3:hr>113</ns3:hr>
            <ns3:cad>0</ns3:cad>
          </ns3:TrackPointExtension>
        </extensions>
      </trkpt>
      <trkpt lat="45.31403915025293827056884765625" lon="-70.8986258693039417266845703125">
        <ele>606.79998779296875</ele>
        <time>2026-08-21T16:21:38.000Z</time>
        <extensions>
          <ns3:TrackPointExtension>
            <ns3:hr>113</ns3:hr>
            <ns3:cad>0</ns3:cad>
          </ns3:TrackPointExtension>
        </extensions>
      </trkpt>
      <trkpt lat="45.31403847970068454742431640625" lon="-70.8986268751323223114013671875">
        <ele>606.79998779296875</ele>
        <time>2026-08-21T16:21:39.000Z</time>
        <extensions>
          <ns3:TrackPointExtension>
            <ns3:hr>113</ns3:hr>
            <ns3:cad>0</ns3:cad>
          </ns3:TrackPointExtension>
        </extensions>
      </trkpt>
      <trkpt lat="45.31403747387230396270751953125" lon="-70.8986282162368297576904296875">
        <ele>606.79998779296875</ele>
        <time>2026-08-21T16:21:40.000Z</time>
        <extensions>
          <ns3:TrackPointExtension>
            <ns3:hr>112</ns3:hr>
            <ns3:cad>0</ns3:cad>
          </ns3:TrackPointExtension>
        </extensions>
      </trkpt>
      <trkpt lat="45.31403747387230396270751953125" lon="-70.8986282162368297576904296875">
        <ele>606.79998779296875</ele>
        <time>2026-08-21T16:21:41.000Z</time>
        <extensions>
          <ns3:TrackPointExtension>
            <ns3:hr>112</ns3:hr>
            <ns3:cad>0</ns3:cad>
          </ns3:TrackPointExtension>
        </extensions>
      </trkpt>
      <trkpt lat="45.31403747387230396270751953125" lon="-70.8986282162368297576904296875">
        <ele>606.79998779296875</ele>
        <time>2026-08-21T16:21:42.000Z</time>
        <extensions>
          <ns3:TrackPointExtension>
            <ns3:hr>112</ns3:hr>
            <ns3:cad>0</ns3:cad>
          </ns3:TrackPointExtension>
        </extensions>
      </trkpt>
      <trkpt lat="45.31403747387230396270751953125" lon="-70.8986282162368297576904296875">
        <ele>606.79998779296875</ele>
        <time>2026-08-21T16:21:43.000Z</time>
        <extensions>
          <ns3:TrackPointExtension>
            <ns3:hr>112</ns3:hr>
            <ns3:cad>0</ns3:cad>
          </ns3:TrackPointExtension>
        </extensions>
      </trkpt>
      <trkpt lat="45.31403747387230396270751953125" lon="-70.8986282162368297576904296875">
        <ele>606.79998779296875</ele>
        <time>2026-08-21T16:21:44.000Z</time>
        <extensions>
          <ns3:TrackPointExtension>
            <ns3:hr>112</ns3:hr>
            <ns3:cad>0</ns3:cad>
          </ns3:TrackPointExtension>
        </extensions>
      </trkpt>
      <trkpt lat="45.31403747387230396270751953125" lon="-70.8986282162368297576904296875">
        <ele>606.79998779296875</ele>
        <time>2026-08-21T16:21:45.000Z</time>
        <extensions>
          <ns3:TrackPointExtension>
            <ns3:hr>112</ns3:hr>
            <ns3:cad>0</ns3:cad>
          </ns3:TrackPointExtension>
        </extensions>
      </trkpt>
      <trkpt lat="45.31403747387230396270751953125" lon="-70.8986282162368297576904296875">
        <ele>606.79998779296875</ele>
        <time>2026-08-21T16:21:46.000Z</time>
        <extensions>
          <ns3:TrackPointExtension>
            <ns3:hr>112</ns3:hr>
            <ns3:cad>0</ns3:cad>
          </ns3:TrackPointExtension>
        </extensions>
      </trkpt>
      <trkpt lat="45.31403747387230396270751953125" lon="-70.8986282162368297576904296875">
        <ele>606.79998779296875</ele>
        <time>2026-08-21T16:21:47.000Z</time>
        <extensions>
          <ns3:TrackPointExtension>
            <ns3:hr>112</ns3:hr>
            <ns3:cad>0</ns3:cad>
          </ns3:TrackPointExtension>
        </extensions>
      </trkpt>
      <trkpt lat="45.31403747387230396270751953125" lon="-70.8986282162368297576904296875">
        <ele>606.79998779296875</ele>
        <time>2026-08-21T16:21:48.000Z</time>
        <extensions>
          <ns3:TrackPointExtension>
            <ns3:hr>112</ns3:hr>
            <ns3:cad>0</ns3:cad>
          </ns3:TrackPointExtension>
        </extensions>
      </trkpt>
      <trkpt lat="45.31403747387230396270751953125" lon="-70.8986282162368297576904296875">
        <ele>606.79998779296875</ele>
        <time>2026-08-21T16:21:49.000Z</time>
        <extensions>
          <ns3:TrackPointExtension>
            <ns3:hr>112</ns3:hr>
            <ns3:cad>0</ns3:cad>
          </ns3:TrackPointExtension>
        </extensions>
      </trkpt>
      <trkpt lat="45.31403747387230396270751953125" lon="-70.8986282162368297576904296875">
        <ele>606.79998779296875</ele>
        <time>2026-08-21T16:21:50.000Z</time>
        <extensions>
          <ns3:TrackPointExtension>
            <ns3:hr>112</ns3:hr>
            <ns3:cad>0</ns3:cad>
          </ns3:TrackPointExtension>
        </extensions>
      </trkpt>
      <trkpt lat="45.31403747387230396270751953125" lon="-70.8986282162368297576904296875">
        <ele>606.79998779296875</ele>
        <time>2026-08-21T16:21:51.000Z</time>
        <extensions>
          <ns3:TrackPointExtension>
            <ns3:hr>112</ns3:hr>
            <ns3:cad>0</ns3:cad>
          </ns3:TrackPointExtension>
        </extensions>
      </trkpt>
      <trkpt lat="45.31403747387230396270751953125" lon="-70.8986282162368297576904296875">
        <ele>606.79998779296875</ele>
        <time>2026-08-21T16:21:52.000Z</time>
        <extensions>
          <ns3:TrackPointExtension>
            <ns3:hr>113</ns3:hr>
            <ns3:cad>0</ns3:cad>
          </ns3:TrackPointExtension>
        </extensions>
      </trkpt>
      <trkpt lat="45.31403747387230396270751953125" lon="-70.8986282162368297576904296875">
        <ele>606.79998779296875</ele>
        <time>2026-08-21T16:21:53.000Z</time>
        <extensions>
          <ns3:TrackPointExtension>
            <ns3:hr>114</ns3:hr>
            <ns3:cad>0</ns3:cad>
          </ns3:TrackPointExtension>
        </extensions>
      </trkpt>
      <trkpt lat="45.31403747387230396270751953125" lon="-70.8986282162368297576904296875">
        <ele>606.5999755859375</ele>
        <time>2026-08-21T16:21:54.000Z</time>
        <extensions>
          <ns3:TrackPointExtension>
            <ns3:hr>115</ns3:hr>
            <ns3:cad>0</ns3:cad>
          </ns3:TrackPointExtension>
        </extensions>
      </trkpt>
      <trkpt lat="45.31403747387230396270751953125" lon="-70.8986282162368297576904296875">
        <ele>606.5999755859375</ele>
        <time>2026-08-21T16:21:55.000Z</time>
        <extensions>
          <ns3:TrackPointExtension>
            <ns3:hr>116</ns3:hr>
            <ns3:cad>0</ns3:cad>
          </ns3:TrackPointExtension>
        </extensions>
      </trkpt>
      <trkpt lat="45.31403747387230396270751953125" lon="-70.8986282162368297576904296875">
        <ele>606.5999755859375</ele>
        <time>2026-08-21T16:21:56.000Z</time>
        <extensions>
          <ns3:TrackPointExtension>
            <ns3:hr>117</ns3:hr>
            <ns3:cad>0</ns3:cad>
          </ns3:TrackPointExtension>
        </extensions>
      </trkpt>
      <trkpt lat="45.31404149718582630157470703125" lon="-70.89863039553165435791015625">
        <ele>606.5999755859375</ele>
        <time>2026-08-21T16:21:57.000Z</time>
        <extensions>
          <ns3:TrackPointExtension>
            <ns3:hr>117</ns3:hr>
            <ns3:cad>0</ns3:cad>
          </ns3:TrackPointExtension>
        </extensions>
      </trkpt>
      <trkpt lat="45.314045436680316925048828125" lon="-70.898630060255527496337890625">
        <ele>606.79998779296875</ele>
        <time>2026-08-21T16:21:58.000Z</time>
        <extensions>
          <ns3:TrackPointExtension>
            <ns3:hr>116</ns3:hr>
            <ns3:cad>0</ns3:cad>
          </ns3:TrackPointExtension>
        </extensions>
      </trkpt>
      <trkpt lat="45.3140544891357421875" lon="-70.89862545020878314971923828125">
        <ele>606.79998779296875</ele>
        <time>2026-08-21T16:21:59.000Z</time>
        <extensions>
          <ns3:TrackPointExtension>
            <ns3:hr>116</ns3:hr>
            <ns3:cad>0</ns3:cad>
          </ns3:TrackPointExtension>
        </extensions>
      </trkpt>
      <trkpt lat="45.31407452188432216644287109375" lon="-70.8986137993633747100830078125">
        <ele>606.79998779296875</ele>
        <time>2026-08-21T16:22:00.000Z</time>
        <extensions>
          <ns3:TrackPointExtension>
            <ns3:hr>116</ns3:hr>
            <ns3:cad>0</ns3:cad>
          </ns3:TrackPointExtension>
        </extensions>
      </trkpt>
      <trkpt lat="45.31408893875777721405029296875" lon="-70.89860784821212291717529296875">
        <ele>606.5999755859375</ele>
        <time>2026-08-21T16:22:01.000Z</time>
        <extensions>
          <ns3:TrackPointExtension>
            <ns3:hr>115</ns3:hr>
            <ns3:cad>41</ns3:cad>
          </ns3:TrackPointExtension>
        </extensions>
      </trkpt>
      <trkpt lat="45.31410620547831058502197265625" lon="-70.89861170388758182525634765625">
        <ele>606.5999755859375</ele>
        <time>2026-08-21T16:22:02.000Z</time>
        <extensions>
          <ns3:TrackPointExtension>
            <ns3:hr>115</ns3:hr>
            <ns3:cad>41</ns3:cad>
          </ns3:TrackPointExtension>
        </extensions>
      </trkpt>
      <trkpt lat="45.31412028707563877105712890625" lon="-70.8986122906208038330078125">
        <ele>606.5999755859375</ele>
        <time>2026-08-21T16:22:03.000Z</time>
        <extensions>
          <ns3:TrackPointExtension>
            <ns3:hr>113</ns3:hr>
            <ns3:cad>41</ns3:cad>
          </ns3:TrackPointExtension>
        </extensions>
      </trkpt>
      <trkpt lat="45.31413537450134754180908203125" lon="-70.89860885404050350189208984375">
        <ele>606.5999755859375</ele>
        <time>2026-08-21T16:22:04.000Z</time>
        <extensions>
          <ns3:TrackPointExtension>
            <ns3:hr>112</ns3:hr>
            <ns3:cad>0</ns3:cad>
          </ns3:TrackPointExtension>
        </extensions>
      </trkpt>
      <trkpt lat="45.31414744444191455841064453125" lon="-70.8986047469079494476318359375">
        <ele>606.5999755859375</ele>
        <time>2026-08-21T16:22:05.000Z</time>
        <extensions>
          <ns3:TrackPointExtension>
            <ns3:hr>112</ns3:hr>
            <ns3:cad>0</ns3:cad>
          </ns3:TrackPointExtension>
        </extensions>
      </trkpt>
      <trkpt lat="45.314160101115703582763671875" lon="-70.8986037410795688629150390625">
        <ele>606.4000244140625</ele>
        <time>2026-08-21T16:22:06.000Z</time>
        <extensions>
          <ns3:TrackPointExtension>
            <ns3:hr>112</ns3:hr>
            <ns3:cad>0</ns3:cad>
          </ns3:TrackPointExtension>
        </extensions>
      </trkpt>
      <trkpt lat="45.31417577527463436126708984375" lon="-70.89860214851796627044677734375">
        <ele>606.4000244140625</ele>
        <time>2026-08-21T16:22:07.000Z</time>
        <extensions>
          <ns3:TrackPointExtension>
            <ns3:hr>112</ns3:hr>
            <ns3:cad>0</ns3:cad>
          </ns3:TrackPointExtension>
        </extensions>
      </trkpt>
      <trkpt lat="45.31419052742421627044677734375" lon="-70.8985973708331584930419921875">
        <ele>606.4000244140625</ele>
        <time>2026-08-21T16:22:08.000Z</time>
        <extensions>
          <ns3:TrackPointExtension>
            <ns3:hr>112</ns3:hr>
            <ns3:cad>0</ns3:cad>
          </ns3:TrackPointExtension>
        </extensions>
      </trkpt>
      <trkpt lat="45.3142112307250499725341796875" lon="-70.89859527535736560821533203125">
        <ele>606.4000244140625</ele>
        <time>2026-08-21T16:22:09.000Z</time>
        <extensions>
          <ns3:TrackPointExtension>
            <ns3:hr>111</ns3:hr>
            <ns3:cad>0</ns3:cad>
          </ns3:TrackPointExtension>
        </extensions>
      </trkpt>
      <trkpt lat="45.31422413885593414306640625" lon="-70.89860022068023681640625">
        <ele>606.20001220703125</ele>
        <time>2026-08-21T16:22:10.000Z</time>
        <extensions>
          <ns3:TrackPointExtension>
            <ns3:hr>112</ns3:hr>
            <ns3:cad>0</ns3:cad>
          </ns3:TrackPointExtension>
        </extensions>
      </trkpt>
      <trkpt lat="45.3142370469868183135986328125" lon="-70.8986080996692180633544921875">
        <ele>606.20001220703125</ele>
        <time>2026-08-21T16:22:11.000Z</time>
        <extensions>
          <ns3:TrackPointExtension>
            <ns3:hr>112</ns3:hr>
            <ns3:cad>53</ns3:cad>
          </ns3:TrackPointExtension>
        </extensions>
      </trkpt>
      <trkpt lat="45.3142497874796390533447265625" lon="-70.89861354790627956390380859375">
        <ele>606.20001220703125</ele>
        <time>2026-08-21T16:22:12.000Z</time>
        <extensions>
          <ns3:TrackPointExtension>
            <ns3:hr>112</ns3:hr>
            <ns3:cad>55</ns3:cad>
          </ns3:TrackPointExtension>
        </extensions>
      </trkpt>
      <trkpt lat="45.3142662160098552703857421875" lon="-70.89860633946955204010009765625">
        <ele>606</ele>
        <time>2026-08-21T16:22:13.000Z</time>
        <extensions>
          <ns3:TrackPointExtension>
            <ns3:hr>112</ns3:hr>
            <ns3:cad>55</ns3:cad>
          </ns3:TrackPointExtension>
        </extensions>
      </trkpt>
      <trkpt lat="45.31427468173205852508544921875" lon="-70.8985876478254795074462890625">
        <ele>606</ele>
        <time>2026-08-21T16:22:14.000Z</time>
        <extensions>
          <ns3:TrackPointExtension>
            <ns3:hr>111</ns3:hr>
            <ns3:cad>57</ns3:cad>
          </ns3:TrackPointExtension>
        </extensions>
      </trkpt>
      <trkpt lat="45.3142833150923252105712890625" lon="-70.89857331477105617523193359375">
        <ele>606</ele>
        <time>2026-08-21T16:22:15.000Z</time>
        <extensions>
          <ns3:TrackPointExtension>
            <ns3:hr>111</ns3:hr>
            <ns3:cad>57</ns3:cad>
          </ns3:TrackPointExtension>
        </extensions>
      </trkpt>
      <trkpt lat="45.3142923675477504730224609375" lon="-70.89856107719242572784423828125">
        <ele>606.20001220703125</ele>
        <time>2026-08-21T16:22:16.000Z</time>
        <extensions>
          <ns3:TrackPointExtension>
            <ns3:hr>111</ns3:hr>
            <ns3:cad>57</ns3:cad>
          </ns3:TrackPointExtension>
        </extensions>
      </trkpt>
      <trkpt lat="45.31430535949766635894775390625" lon="-70.898552276194095611572265625">
        <ele>606.20001220703125</ele>
        <time>2026-08-21T16:22:17.000Z</time>
        <extensions>
          <ns3:TrackPointExtension>
            <ns3:hr>111</ns3:hr>
            <ns3:cad>57</ns3:cad>
          </ns3:TrackPointExtension>
        </extensions>
      </trkpt>
      <trkpt lat="45.31431877054274082183837890625" lon="-70.89855395257472991943359375">
        <ele>606.20001220703125</ele>
        <time>2026-08-21T16:22:18.000Z</time>
        <extensions>
          <ns3:TrackPointExtension>
            <ns3:hr>111</ns3:hr>
            <ns3:cad>57</ns3:cad>
          </ns3:TrackPointExtension>
        </extensions>
      </trkpt>
      <trkpt lat="45.31433268450200557708740234375" lon="-70.8985613286495208740234375">
        <ele>606.20001220703125</ele>
        <time>2026-08-21T16:22:19.000Z</time>
        <extensions>
          <ns3:TrackPointExtension>
            <ns3:hr>111</ns3:hr>
            <ns3:cad>57</ns3:cad>
          </ns3:TrackPointExtension>
        </extensions>
      </trkpt>
      <trkpt lat="45.3143428266048431396484375" lon="-70.89856174774467945098876953125">
        <ele>606</ele>
        <time>2026-08-21T16:22:20.000Z</time>
        <extensions>
          <ns3:TrackPointExtension>
            <ns3:hr>111</ns3:hr>
            <ns3:cad>57</ns3:cad>
          </ns3:TrackPointExtension>
        </extensions>
      </trkpt>
      <trkpt lat="45.31435531564056873321533203125" lon="-70.8985594846308231353759765625">
        <ele>605.79998779296875</ele>
        <time>2026-08-21T16:22:21.000Z</time>
        <extensions>
          <ns3:TrackPointExtension>
            <ns3:hr>111</ns3:hr>
            <ns3:cad>0</ns3:cad>
          </ns3:TrackPointExtension>
        </extensions>
      </trkpt>
      <trkpt lat="45.3143684752285480499267578125" lon="-70.89855797588825225830078125">
        <ele>605.79998779296875</ele>
        <time>2026-08-21T16:22:22.000Z</time>
        <extensions>
          <ns3:TrackPointExtension>
            <ns3:hr>111</ns3:hr>
            <ns3:cad>0</ns3:cad>
          </ns3:TrackPointExtension>
        </extensions>
      </trkpt>
      <trkpt lat="45.31438096426427364349365234375" lon="-70.8985514380037784576416015625">
        <ele>605.5999755859375</ele>
        <time>2026-08-21T16:22:23.000Z</time>
        <extensions>
          <ns3:TrackPointExtension>
            <ns3:hr>110</ns3:hr>
            <ns3:cad>65</ns3:cad>
          </ns3:TrackPointExtension>
        </extensions>
      </trkpt>
      <trkpt lat="45.31439001671969890594482421875" lon="-70.898532830178737640380859375">
        <ele>605.5999755859375</ele>
        <time>2026-08-21T16:22:24.000Z</time>
        <extensions>
          <ns3:TrackPointExtension>
            <ns3:hr>110</ns3:hr>
            <ns3:cad>65</ns3:cad>
          </ns3:TrackPointExtension>
        </extensions>
      </trkpt>
      <trkpt lat="45.31440108083188533782958984375" lon="-70.8985269628465175628662109375">
        <ele>605.5999755859375</ele>
        <time>2026-08-21T16:22:25.000Z</time>
        <extensions>
          <ns3:TrackPointExtension>
            <ns3:hr>110</ns3:hr>
            <ns3:cad>65</ns3:cad>
          </ns3:TrackPointExtension>
        </extensions>
      </trkpt>
      <trkpt lat="45.31441457569599151611328125" lon="-70.89852302335202693939208984375">
        <ele>605.5999755859375</ele>
        <time>2026-08-21T16:22:26.000Z</time>
        <extensions>
          <ns3:TrackPointExtension>
            <ns3:hr>110</ns3:hr>
            <ns3:cad>57</ns3:cad>
          </ns3:TrackPointExtension>
        </extensions>
      </trkpt>
      <trkpt lat="45.314426980912685394287109375" lon="-70.8985175751149654388427734375">
        <ele>605.5999755859375</ele>
        <time>2026-08-21T16:22:27.000Z</time>
        <extensions>
          <ns3:TrackPointExtension>
            <ns3:hr>110</ns3:hr>
            <ns3:cad>57</ns3:cad>
          </ns3:TrackPointExtension>
        </extensions>
      </trkpt>
      <trkpt lat="45.31443611718714237213134765625" lon="-70.89851179160177707672119140625">
        <ele>605.79998779296875</ele>
        <time>2026-08-21T16:22:28.000Z</time>
        <extensions>
          <ns3:TrackPointExtension>
            <ns3:hr>110</ns3:hr>
            <ns3:cad>57</ns3:cad>
          </ns3:TrackPointExtension>
        </extensions>
      </trkpt>
      <trkpt lat="45.31444533728063106536865234375" lon="-70.8985061757266521453857421875">
        <ele>605.79998779296875</ele>
        <time>2026-08-21T16:22:29.000Z</time>
        <extensions>
          <ns3:TrackPointExtension>
            <ns3:hr>110</ns3:hr>
            <ns3:cad>57</ns3:cad>
          </ns3:TrackPointExtension>
        </extensions>
      </trkpt>
      <trkpt lat="45.31445472501218318939208984375" lon="-70.8985023200511932373046875">
        <ele>605.79998779296875</ele>
        <time>2026-08-21T16:22:30.000Z</time>
        <extensions>
          <ns3:TrackPointExtension>
            <ns3:hr>110</ns3:hr>
            <ns3:cad>57</ns3:cad>
          </ns3:TrackPointExtension>
        </extensions>
      </trkpt>
      <trkpt lat="45.31446545384824275970458984375" lon="-70.89851145632565021514892578125">
        <ele>605.79998779296875</ele>
        <time>2026-08-21T16:22:31.000Z</time>
        <extensions>
          <ns3:TrackPointExtension>
            <ns3:hr>110</ns3:hr>
            <ns3:cad>53</ns3:cad>
          </ns3:TrackPointExtension>
        </extensions>
      </trkpt>
      <trkpt lat="45.31447366811335086822509765625" lon="-70.89851598255336284637451171875">
        <ele>605.79998779296875</ele>
        <time>2026-08-21T16:22:32.000Z</time>
        <extensions>
          <ns3:TrackPointExtension>
            <ns3:hr>109</ns3:hr>
            <ns3:cad>53</ns3:cad>
          </ns3:TrackPointExtension>
        </extensions>
      </trkpt>
      <trkpt lat="45.3144841454923152923583984375" lon="-70.89851765893399715423583984375">
        <ele>605.79998779296875</ele>
        <time>2026-08-21T16:22:33.000Z</time>
        <extensions>
          <ns3:TrackPointExtension>
            <ns3:hr>109</ns3:hr>
            <ns3:cad>54</ns3:cad>
          </ns3:TrackPointExtension>
        </extensions>
      </trkpt>
      <trkpt lat="45.31449831090867519378662109375" lon="-70.89851816184818744659423828125">
        <ele>605.5999755859375</ele>
        <time>2026-08-21T16:22:34.000Z</time>
        <extensions>
          <ns3:TrackPointExtension>
            <ns3:hr>109</ns3:hr>
            <ns3:cad>54</ns3:cad>
          </ns3:TrackPointExtension>
        </extensions>
      </trkpt>
      <trkpt lat="45.31451172195374965667724609375" lon="-70.89851749129593372344970703125">
        <ele>605.5999755859375</ele>
        <time>2026-08-21T16:22:35.000Z</time>
        <extensions>
          <ns3:TrackPointExtension>
            <ns3:hr>109</ns3:hr>
            <ns3:cad>54</ns3:cad>
          </ns3:TrackPointExtension>
        </extensions>
      </trkpt>
      <trkpt lat="45.3145310841500759124755859375" lon="-70.89851506054401397705078125">
        <ele>605.5999755859375</ele>
        <time>2026-08-21T16:22:36.000Z</time>
        <extensions>
          <ns3:TrackPointExtension>
            <ns3:hr>109</ns3:hr>
            <ns3:cad>54</ns3:cad>
          </ns3:TrackPointExtension>
        </extensions>
      </trkpt>
      <trkpt lat="45.31454625539481639862060546875" lon="-70.89851363562047481536865234375">
        <ele>605.5999755859375</ele>
        <time>2026-08-21T16:22:37.000Z</time>
        <extensions>
          <ns3:TrackPointExtension>
            <ns3:hr>109</ns3:hr>
            <ns3:cad>54</ns3:cad>
          </ns3:TrackPointExtension>
        </extensions>
      </trkpt>
      <trkpt lat="45.31455941498279571533203125" lon="-70.89851246215403079986572265625">
        <ele>605.5999755859375</ele>
        <time>2026-08-21T16:22:38.000Z</time>
        <extensions>
          <ns3:TrackPointExtension>
            <ns3:hr>109</ns3:hr>
            <ns3:cad>53</ns3:cad>
          </ns3:TrackPointExtension>
        </extensions>
      </trkpt>
      <trkpt lat="45.31456905417144298553466796875" lon="-70.898509360849857330322265625">
        <ele>605.5999755859375</ele>
        <time>2026-08-21T16:22:39.000Z</time>
        <extensions>
          <ns3:TrackPointExtension>
            <ns3:hr>108</ns3:hr>
            <ns3:cad>53</ns3:cad>
          </ns3:TrackPointExtension>
        </extensions>
      </trkpt>
      <trkpt lat="45.31457425095140933990478515625" lon="-70.8985018171370029449462890625">
        <ele>605.5999755859375</ele>
        <time>2026-08-21T16:22:40.000Z</time>
        <extensions>
          <ns3:TrackPointExtension>
            <ns3:hr>107</ns3:hr>
            <ns3:cad>53</ns3:cad>
          </ns3:TrackPointExtension>
        </extensions>
      </trkpt>
      <trkpt lat="45.31458565033972263336181640625" lon="-70.89849703945219516754150390625">
        <ele>605.5999755859375</ele>
        <time>2026-08-21T16:22:41.000Z</time>
        <extensions>
          <ns3:TrackPointExtension>
            <ns3:hr>107</ns3:hr>
            <ns3:cad>53</ns3:cad>
          </ns3:TrackPointExtension>
        </extensions>
      </trkpt>
      <trkpt lat="45.31459839083254337310791015625" lon="-70.8984862267971038818359375">
        <ele>605.79998779296875</ele>
        <time>2026-08-21T16:22:42.000Z</time>
        <extensions>
          <ns3:TrackPointExtension>
            <ns3:hr>107</ns3:hr>
            <ns3:cad>53</ns3:cad>
          </ns3:TrackPointExtension>
        </extensions>
      </trkpt>
      <trkpt lat="45.31460861675441265106201171875" lon="-70.89847524650394916534423828125">
        <ele>605.79998779296875</ele>
        <time>2026-08-21T16:22:43.000Z</time>
        <extensions>
          <ns3:TrackPointExtension>
            <ns3:hr>106</ns3:hr>
            <ns3:cad>55</ns3:cad>
          </ns3:TrackPointExtension>
        </extensions>
      </trkpt>
      <trkpt lat="45.31462605111300945281982421875" lon="-70.8984585665166378021240234375">
        <ele>605.79998779296875</ele>
        <time>2026-08-21T16:22:44.000Z</time>
        <extensions>
          <ns3:TrackPointExtension>
            <ns3:hr>105</ns3:hr>
            <ns3:cad>55</ns3:cad>
          </ns3:TrackPointExtension>
        </extensions>
      </trkpt>
      <trkpt lat="45.31463845632970333099365234375" lon="-70.89844205416738986968994140625">
        <ele>605.79998779296875</ele>
        <time>2026-08-21T16:22:45.000Z</time>
        <extensions>
          <ns3:TrackPointExtension>
            <ns3:hr>102</ns3:hr>
            <ns3:cad>55</ns3:cad>
          </ns3:TrackPointExtension>
        </extensions>
      </trkpt>
      <trkpt lat="45.31465404666960239410400390625" lon="-70.8984361030161380767822265625">
        <ele>605.79998779296875</ele>
        <time>2026-08-21T16:22:46.000Z</time>
        <extensions>
          <ns3:TrackPointExtension>
            <ns3:hr>100</ns3:hr>
            <ns3:cad>55</ns3:cad>
          </ns3:TrackPointExtension>
        </extensions>
      </trkpt>
      <trkpt lat="45.31467282213270664215087890625" lon="-70.89843417517840862274169921875">
        <ele>605.5999755859375</ele>
        <time>2026-08-21T16:22:47.000Z</time>
        <extensions>
          <ns3:TrackPointExtension>
            <ns3:hr>98</ns3:hr>
            <ns3:cad>55</ns3:cad>
          </ns3:TrackPointExtension>
        </extensions>
      </trkpt>
      <trkpt lat="45.31469042412936687469482421875" lon="-70.89842562563717365264892578125">
        <ele>605.5999755859375</ele>
        <time>2026-08-21T16:22:48.000Z</time>
        <extensions>
          <ns3:TrackPointExtension>
            <ns3:hr>98</ns3:hr>
            <ns3:cad>74</ns3:cad>
          </ns3:TrackPointExtension>
        </extensions>
      </trkpt>
      <trkpt lat="45.3147076070308685302734375" lon="-70.8984163217246532440185546875">
        <ele>605.4000244140625</ele>
        <time>2026-08-21T16:22:49.000Z</time>
        <extensions>
          <ns3:TrackPointExtension>
            <ns3:hr>97</ns3:hr>
            <ns3:cad>74</ns3:cad>
          </ns3:TrackPointExtension>
        </extensions>
      </trkpt>
      <trkpt lat="45.3147288970649242401123046875" lon="-70.8984111249446868896484375">
        <ele>605.4000244140625</ele>
        <time>2026-08-21T16:22:50.000Z</time>
        <extensions>
          <ns3:TrackPointExtension>
            <ns3:hr>97</ns3:hr>
            <ns3:cad>74</ns3:cad>
          </ns3:TrackPointExtension>
        </extensions>
      </trkpt>
      <trkpt lat="45.3147496841847896575927734375" lon="-70.8984052576124668121337890625">
        <ele>605.5999755859375</ele>
        <time>2026-08-21T16:22:51.000Z</time>
        <extensions>
          <ns3:TrackPointExtension>
            <ns3:hr>97</ns3:hr>
            <ns3:cad>74</ns3:cad>
          </ns3:TrackPointExtension>
        </extensions>
      </trkpt>
      <trkpt lat="45.3147691302001476287841796875" lon="-70.8984012342989444732666015625">
        <ele>605.5999755859375</ele>
        <time>2026-08-21T16:22:52.000Z</time>
        <extensions>
          <ns3:TrackPointExtension>
            <ns3:hr>97</ns3:hr>
            <ns3:cad>74</ns3:cad>
          </ns3:TrackPointExtension>
        </extensions>
      </trkpt>
      <trkpt lat="45.31478681601583957672119140625" lon="-70.8984032459557056427001953125">
        <ele>605.5999755859375</ele>
        <time>2026-08-21T16:22:53.000Z</time>
        <extensions>
          <ns3:TrackPointExtension>
            <ns3:hr>98</ns3:hr>
            <ns3:cad>76</ns3:cad>
          </ns3:TrackPointExtension>
        </extensions>
      </trkpt>
      <trkpt lat="45.314805507659912109375" lon="-70.8983921818435192108154296875">
        <ele>605.5999755859375</ele>
        <time>2026-08-21T16:22:54.000Z</time>
        <extensions>
          <ns3:TrackPointExtension>
            <ns3:hr>98</ns3:hr>
            <ns3:cad>76</ns3:cad>
          </ns3:TrackPointExtension>
        </extensions>
      </trkpt>
      <trkpt lat="45.31482269056141376495361328125" lon="-70.89837080799043178558349609375">
        <ele>605.5999755859375</ele>
        <time>2026-08-21T16:22:55.000Z</time>
        <extensions>
          <ns3:TrackPointExtension>
            <ns3:hr>99</ns3:hr>
            <ns3:cad>78</ns3:cad>
          </ns3:TrackPointExtension>
        </extensions>
      </trkpt>
      <trkpt lat="45.31483643688261508941650390625" lon="-70.89834876358509063720703125">
        <ele>605.4000244140625</ele>
        <time>2026-08-21T16:22:56.000Z</time>
        <extensions>
          <ns3:TrackPointExtension>
            <ns3:hr>99</ns3:hr>
            <ns3:cad>79</ns3:cad>
          </ns3:TrackPointExtension>
        </extensions>
      </trkpt>
      <trkpt lat="45.31484381295740604400634765625" lon="-70.89832873083651065826416015625">
        <ele>605.4000244140625</ele>
        <time>2026-08-21T16:22:57.000Z</time>
        <extensions>
          <ns3:TrackPointExtension>
            <ns3:hr>99</ns3:hr>
            <ns3:cad>79</ns3:cad>
          </ns3:TrackPointExtension>
        </extensions>
      </trkpt>
      <trkpt lat="45.3148549608886241912841796875" lon="-70.8983160741627216339111328125">
        <ele>605.20001220703125</ele>
        <time>2026-08-21T16:22:58.000Z</time>
        <extensions>
          <ns3:TrackPointExtension>
            <ns3:hr>100</ns3:hr>
            <ns3:cad>79</ns3:cad>
          </ns3:TrackPointExtension>
        </extensions>
      </trkpt>
      <trkpt lat="45.31486921012401580810546875" lon="-70.8983118832111358642578125">
        <ele>605.20001220703125</ele>
        <time>2026-08-21T16:22:59.000Z</time>
        <extensions>
          <ns3:TrackPointExtension>
            <ns3:hr>100</ns3:hr>
            <ns3:cad>79</ns3:cad>
          </ns3:TrackPointExtension>
        </extensions>
      </trkpt>
      <trkpt lat="45.31488773413002490997314453125" lon="-70.898306183516979217529296875">
        <ele>605.20001220703125</ele>
        <time>2026-08-21T16:23:00.000Z</time>
        <extensions>
          <ns3:TrackPointExtension>
            <ns3:hr>101</ns3:hr>
            <ns3:cad>79</ns3:cad>
          </ns3:TrackPointExtension>
        </extensions>
      </trkpt>
      <trkpt lat="45.31490919180214405059814453125" lon="-70.898301489651203155517578125">
        <ele>605.20001220703125</ele>
        <time>2026-08-21T16:23:01.000Z</time>
        <extensions>
          <ns3:TrackPointExtension>
            <ns3:hr>101</ns3:hr>
            <ns3:cad>79</ns3:cad>
          </ns3:TrackPointExtension>
        </extensions>
      </trkpt>
      <trkpt lat="45.314926542341709136962890625" lon="-70.8982969634234905242919921875">
        <ele>605.20001220703125</ele>
        <time>2026-08-21T16:23:02.000Z</time>
        <extensions>
          <ns3:TrackPointExtension>
            <ns3:hr>101</ns3:hr>
            <ns3:cad>79</ns3:cad>
          </ns3:TrackPointExtension>
        </extensions>
      </trkpt>
      <trkpt lat="45.31494372524321079254150390625" lon="-70.89828615076839923858642578125">
        <ele>605.20001220703125</ele>
        <time>2026-08-21T16:23:03.000Z</time>
        <extensions>
          <ns3:TrackPointExtension>
            <ns3:hr>102</ns3:hr>
            <ns3:cad>0</ns3:cad>
          </ns3:TrackPointExtension>
        </extensions>
      </trkpt>
      <trkpt lat="45.31496233306825160980224609375" lon="-70.898272991180419921875">
        <ele>605</ele>
        <time>2026-08-21T16:23:04.000Z</time>
        <extensions>
          <ns3:TrackPointExtension>
            <ns3:hr>102</ns3:hr>
            <ns3:cad>0</ns3:cad>
          </ns3:TrackPointExtension>
        </extensions>
      </trkpt>
      <trkpt lat="45.31497959978878498077392578125" lon="-70.89825966395437717437744140625">
        <ele>605</ele>
        <time>2026-08-21T16:23:05.000Z</time>
        <extensions>
          <ns3:TrackPointExtension>
            <ns3:hr>102</ns3:hr>
            <ns3:cad>0</ns3:cad>
          </ns3:TrackPointExtension>
        </extensions>
      </trkpt>
      <trkpt lat="45.31499787233769893646240234375" lon="-70.89824072085320949554443359375">
        <ele>605</ele>
        <time>2026-08-21T16:23:06.000Z</time>
        <extensions>
          <ns3:TrackPointExtension>
            <ns3:hr>103</ns3:hr>
            <ns3:cad>0</ns3:cad>
          </ns3:TrackPointExtension>
        </extensions>
      </trkpt>
      <trkpt lat="45.31501648016273975372314453125" lon="-70.898227393627166748046875">
        <ele>605</ele>
        <time>2026-08-21T16:23:07.000Z</time>
        <extensions>
          <ns3:TrackPointExtension>
            <ns3:hr>103</ns3:hr>
            <ns3:cad>0</ns3:cad>
          </ns3:TrackPointExtension>
        </extensions>
      </trkpt>
      <trkpt lat="45.31503609381616115570068359375" lon="-70.89821339584887027740478515625">
        <ele>605</ele>
        <time>2026-08-21T16:23:08.000Z</time>
        <extensions>
          <ns3:TrackPointExtension>
            <ns3:hr>104</ns3:hr>
            <ns3:cad>0</ns3:cad>
          </ns3:TrackPointExtension>
        </extensions>
      </trkpt>
      <trkpt lat="45.315053947269916534423828125" lon="-70.89819277636706829071044921875">
        <ele>605</ele>
        <time>2026-08-21T16:23:09.000Z</time>
        <extensions>
          <ns3:TrackPointExtension>
            <ns3:hr>105</ns3:hr>
            <ns3:cad>0</ns3:cad>
          </ns3:TrackPointExtension>
        </extensions>
      </trkpt>
      <trkpt lat="45.31506995670497417449951171875" lon="-70.89817106723785400390625">
        <ele>604.79998779296875</ele>
        <time>2026-08-21T16:23:10.000Z</time>
        <extensions>
          <ns3:TrackPointExtension>
            <ns3:hr>105</ns3:hr>
            <ns3:cad>76</ns3:cad>
          </ns3:TrackPointExtension>
        </extensions>
      </trkpt>
      <trkpt lat="45.31508722342550754547119140625" lon="-70.898156650364398956298828125">
        <ele>604.79998779296875</ele>
        <time>2026-08-21T16:23:11.000Z</time>
        <extensions>
          <ns3:TrackPointExtension>
            <ns3:hr>106</ns3:hr>
            <ns3:cad>76</ns3:cad>
          </ns3:TrackPointExtension>
        </extensions>
      </trkpt>
      <trkpt lat="45.315105915069580078125" lon="-70.898139216005802154541015625">
        <ele>604.79998779296875</ele>
        <time>2026-08-21T16:23:12.000Z</time>
        <extensions>
          <ns3:TrackPointExtension>
            <ns3:hr>107</ns3:hr>
            <ns3:cad>76</ns3:cad>
          </ns3:TrackPointExtension>
        </extensions>
      </trkpt>
      <trkpt lat="45.3151260316371917724609375" lon="-70.89812203310430049896240234375">
        <ele>604.79998779296875</ele>
        <time>2026-08-21T16:23:13.000Z</time>
        <extensions>
          <ns3:TrackPointExtension>
            <ns3:hr>107</ns3:hr>
            <ns3:cad>76</ns3:cad>
          </ns3:TrackPointExtension>
        </extensions>
      </trkpt>
      <trkpt lat="45.31514505855739116668701171875" lon="-70.89810778386890888214111328125">
        <ele>604.79998779296875</ele>
        <time>2026-08-21T16:23:14.000Z</time>
        <extensions>
          <ns3:TrackPointExtension>
            <ns3:hr>108</ns3:hr>
            <ns3:cad>76</ns3:cad>
          </ns3:TrackPointExtension>
        </extensions>
      </trkpt>
      <trkpt lat="45.31516349874436855316162109375" lon="-70.8980892598628997802734375">
        <ele>604.79998779296875</ele>
        <time>2026-08-21T16:23:15.000Z</time>
        <extensions>
          <ns3:TrackPointExtension>
            <ns3:hr>108</ns3:hr>
            <ns3:cad>74</ns3:cad>
          </ns3:TrackPointExtension>
        </extensions>
      </trkpt>
      <trkpt lat="45.31518034636974334716796875" lon="-70.89807107113301753997802734375">
        <ele>604.79998779296875</ele>
        <time>2026-08-21T16:23:16.000Z</time>
        <extensions>
          <ns3:TrackPointExtension>
            <ns3:hr>109</ns3:hr>
            <ns3:cad>74</ns3:cad>
          </ns3:TrackPointExtension>
        </extensions>
      </trkpt>
      <trkpt lat="45.315199457108974456787109375" lon="-70.89805833064019680023193359375">
        <ele>604.79998779296875</ele>
        <time>2026-08-21T16:23:17.000Z</time>
        <extensions>
          <ns3:TrackPointExtension>
            <ns3:hr>110</ns3:hr>
            <ns3:cad>74</ns3:cad>
          </ns3:TrackPointExtension>
        </extensions>
      </trkpt>
      <trkpt lat="45.31521965749561786651611328125" lon="-70.89804776944220066070556640625">
        <ele>604.5999755859375</ele>
        <time>2026-08-21T16:23:18.000Z</time>
        <extensions>
          <ns3:TrackPointExtension>
            <ns3:hr>110</ns3:hr>
            <ns3:cad>74</ns3:cad>
          </ns3:TrackPointExtension>
        </extensions>
      </trkpt>
      <trkpt lat="45.315238349139690399169921875" lon="-70.89803762733936309814453125">
        <ele>604.5999755859375</ele>
        <time>2026-08-21T16:23:19.000Z</time>
        <extensions>
          <ns3:TrackPointExtension>
            <ns3:hr>111</ns3:hr>
            <ns3:cad>74</ns3:cad>
          </ns3:TrackPointExtension>
        </extensions>
      </trkpt>
      <trkpt lat="45.31525502912700176239013671875" lon="-70.89802513830363750457763671875">
        <ele>604.5999755859375</ele>
        <time>2026-08-21T16:23:20.000Z</time>
        <extensions>
          <ns3:TrackPointExtension>
            <ns3:hr>112</ns3:hr>
            <ns3:cad>74</ns3:cad>
          </ns3:TrackPointExtension>
        </extensions>
      </trkpt>
      <trkpt lat="45.31527196057140827178955078125" lon="-70.89801189489662647247314453125">
        <ele>604.5999755859375</ele>
        <time>2026-08-21T16:23:21.000Z</time>
        <extensions>
          <ns3:TrackPointExtension>
            <ns3:hr>113</ns3:hr>
            <ns3:cad>74</ns3:cad>
          </ns3:TrackPointExtension>
        </extensions>
      </trkpt>
      <trkpt lat="45.3152884729206562042236328125" lon="-70.89799982495605945587158203125">
        <ele>604.4000244140625</ele>
        <time>2026-08-21T16:23:22.000Z</time>
        <extensions>
          <ns3:TrackPointExtension>
            <ns3:hr>113</ns3:hr>
            <ns3:cad>74</ns3:cad>
          </ns3:TrackPointExtension>
        </extensions>
      </trkpt>
      <trkpt lat="45.31530532054603099822998046875" lon="-70.89799471199512481689453125">
        <ele>604.4000244140625</ele>
        <time>2026-08-21T16:23:23.000Z</time>
        <extensions>
          <ns3:TrackPointExtension>
            <ns3:hr>114</ns3:hr>
            <ns3:cad>74</ns3:cad>
          </ns3:TrackPointExtension>
        </extensions>
      </trkpt>
      <trkpt lat="45.31532258726656436920166015625" lon="-70.89798959903419017791748046875">
        <ele>604.20001220703125</ele>
        <time>2026-08-21T16:23:24.000Z</time>
        <extensions>
          <ns3:TrackPointExtension>
            <ns3:hr>114</ns3:hr>
            <ns3:cad>74</ns3:cad>
          </ns3:TrackPointExtension>
        </extensions>
      </trkpt>
      <trkpt lat="45.31534153036773204803466796875" lon="-70.89798540808260440826416015625">
        <ele>604.20001220703125</ele>
        <time>2026-08-21T16:23:25.000Z</time>
        <extensions>
          <ns3:TrackPointExtension>
            <ns3:hr>115</ns3:hr>
            <ns3:cad>75</ns3:cad>
          </ns3:TrackPointExtension>
        </extensions>
      </trkpt>
      <trkpt lat="45.31536349095404148101806640625" lon="-70.89798037894070148468017578125">
        <ele>604</ele>
        <time>2026-08-21T16:23:26.000Z</time>
        <extensions>
          <ns3:TrackPointExtension>
            <ns3:hr>115</ns3:hr>
            <ns3:cad>75</ns3:cad>
          </ns3:TrackPointExtension>
        </extensions>
      </trkpt>
      <trkpt lat="45.31538008712232112884521484375" lon="-70.897971577942371368408203125">
        <ele>604</ele>
        <time>2026-08-21T16:23:27.000Z</time>
        <extensions>
          <ns3:TrackPointExtension>
            <ns3:hr>116</ns3:hr>
            <ns3:cad>75</ns3:cad>
          </ns3:TrackPointExtension>
        </extensions>
      </trkpt>
      <trkpt lat="45.3154004551470279693603515625" lon="-70.89794752188026905059814453125">
        <ele>604</ele>
        <time>2026-08-21T16:23:28.000Z</time>
        <extensions>
          <ns3:TrackPointExtension>
            <ns3:hr>116</ns3:hr>
            <ns3:cad>0</ns3:cad>
          </ns3:TrackPointExtension>
        </extensions>
      </trkpt>
      <trkpt lat="45.31541797332465648651123046875" lon="-70.8979256451129913330078125">
        <ele>604.20001220703125</ele>
        <time>2026-08-21T16:23:29.000Z</time>
        <extensions>
          <ns3:TrackPointExtension>
            <ns3:hr>117</ns3:hr>
            <ns3:cad>0</ns3:cad>
          </ns3:TrackPointExtension>
        </extensions>
      </trkpt>
      <trkpt lat="45.315437503159046173095703125" lon="-70.89790888130664825439453125">
        <ele>604.4000244140625</ele>
        <time>2026-08-21T16:23:30.000Z</time>
        <extensions>
          <ns3:TrackPointExtension>
            <ns3:hr>117</ns3:hr>
            <ns3:cad>0</ns3:cad>
          </ns3:TrackPointExtension>
        </extensions>
      </trkpt>
      <trkpt lat="45.315458960831165313720703125" lon="-70.897902511060237884521484375">
        <ele>604.4000244140625</ele>
        <time>2026-08-21T16:23:31.000Z</time>
        <extensions>
          <ns3:TrackPointExtension>
            <ns3:hr>117</ns3:hr>
            <ns3:cad>0</ns3:cad>
          </ns3:TrackPointExtension>
        </extensions>
      </trkpt>
      <trkpt lat="45.31547178514301776885986328125" lon="-70.89789991267025470733642578125">
        <ele>604.4000244140625</ele>
        <time>2026-08-21T16:23:32.000Z</time>
        <extensions>
          <ns3:TrackPointExtension>
            <ns3:hr>118</ns3:hr>
            <ns3:cad>0</ns3:cad>
          </ns3:TrackPointExtension>
        </extensions>
      </trkpt>
      <trkpt lat="45.315488465130329132080078125" lon="-70.89789086021482944488525390625">
        <ele>604.4000244140625</ele>
        <time>2026-08-21T16:23:33.000Z</time>
        <extensions>
          <ns3:TrackPointExtension>
            <ns3:hr>118</ns3:hr>
            <ns3:cad>0</ns3:cad>
          </ns3:TrackPointExtension>
        </extensions>
      </trkpt>
      <trkpt lat="45.3155027143657207489013671875" lon="-70.8978771977126598358154296875">
        <ele>604.4000244140625</ele>
        <time>2026-08-21T16:23:34.000Z</time>
        <extensions>
          <ns3:TrackPointExtension>
            <ns3:hr>118</ns3:hr>
            <ns3:cad>0</ns3:cad>
          </ns3:TrackPointExtension>
        </extensions>
      </trkpt>
      <trkpt lat="45.3155147843062877655029296875" lon="-70.89786621741950511932373046875">
        <ele>604.20001220703125</ele>
        <time>2026-08-21T16:23:35.000Z</time>
        <extensions>
          <ns3:TrackPointExtension>
            <ns3:hr>118</ns3:hr>
            <ns3:cad>76</ns3:cad>
          </ns3:TrackPointExtension>
        </extensions>
      </trkpt>
      <trkpt lat="45.31553062610328197479248046875" lon="-70.897854231297969818115234375">
        <ele>604.20001220703125</ele>
        <time>2026-08-21T16:23:36.000Z</time>
        <extensions>
          <ns3:TrackPointExtension>
            <ns3:hr>117</ns3:hr>
            <ns3:cad>76</ns3:cad>
          </ns3:TrackPointExtension>
        </extensions>
      </trkpt>
      <trkpt lat="45.315548479557037353515625" lon="-70.89784895069897174835205078125">
        <ele>604</ele>
        <time>2026-08-21T16:23:37.000Z</time>
        <extensions>
          <ns3:TrackPointExtension>
            <ns3:hr>116</ns3:hr>
            <ns3:cad>76</ns3:cad>
          </ns3:TrackPointExtension>
        </extensions>
      </trkpt>
      <trkpt lat="45.315568931400775909423828125" lon="-70.89784140698611736297607421875">
        <ele>604</ele>
        <time>2026-08-21T16:23:38.000Z</time>
        <extensions>
          <ns3:TrackPointExtension>
            <ns3:hr>115</ns3:hr>
            <ns3:cad>76</ns3:cad>
          </ns3:TrackPointExtension>
        </extensions>
      </trkpt>
      <trkpt lat="45.3155754692852497100830078125" lon="-70.89782313443720340728759765625">
        <ele>604</ele>
        <time>2026-08-21T16:23:39.000Z</time>
        <extensions>
          <ns3:TrackPointExtension>
            <ns3:hr>115</ns3:hr>
            <ns3:cad>76</ns3:cad>
          </ns3:TrackPointExtension>
        </extensions>
      </trkpt>
      <trkpt lat="45.31558544375002384185791015625" lon="-70.897799916565418243408203125">
        <ele>604.20001220703125</ele>
        <time>2026-08-21T16:23:40.000Z</time>
        <extensions>
          <ns3:TrackPointExtension>
            <ns3:hr>115</ns3:hr>
            <ns3:cad>76</ns3:cad>
          </ns3:TrackPointExtension>
        </extensions>
      </trkpt>
      <trkpt lat="45.31559583730995655059814453125" lon="-70.89778306894004344940185546875">
        <ele>604.4000244140625</ele>
        <time>2026-08-21T16:23:41.000Z</time>
        <extensions>
          <ns3:TrackPointExtension>
            <ns3:hr>114</ns3:hr>
            <ns3:cad>76</ns3:cad>
          </ns3:TrackPointExtension>
        </extensions>
      </trkpt>
      <trkpt lat="45.3156076557934284210205078125" lon="-70.89777133427560329437255859375">
        <ele>604.5999755859375</ele>
        <time>2026-08-21T16:23:42.000Z</time>
        <extensions>
          <ns3:TrackPointExtension>
            <ns3:hr>115</ns3:hr>
            <ns3:cad>76</ns3:cad>
          </ns3:TrackPointExtension>
        </extensions>
      </trkpt>
      <trkpt lat="45.3156180493533611297607421875" lon="-70.8977620303630828857421875">
        <ele>605</ele>
        <time>2026-08-21T16:23:43.000Z</time>
        <extensions>
          <ns3:TrackPointExtension>
            <ns3:hr>115</ns3:hr>
            <ns3:cad>76</ns3:cad>
          </ns3:TrackPointExtension>
        </extensions>
      </trkpt>
      <trkpt lat="45.3156281076371669769287109375" lon="-70.8977554924786090850830078125">
        <ele>605.20001220703125</ele>
        <time>2026-08-21T16:23:44.000Z</time>
        <extensions>
          <ns3:TrackPointExtension>
            <ns3:hr>115</ns3:hr>
            <ns3:cad>76</ns3:cad>
          </ns3:TrackPointExtension>
        </extensions>
      </trkpt>
      <trkpt lat="45.3156401775777339935302734375" lon="-70.897749625146389007568359375">
        <ele>605.4000244140625</ele>
        <time>2026-08-21T16:23:45.000Z</time>
        <extensions>
          <ns3:TrackPointExtension>
            <ns3:hr>115</ns3:hr>
            <ns3:cad>55</ns3:cad>
          </ns3:TrackPointExtension>
        </extensions>
      </trkpt>
      <trkpt lat="45.31564780510962009429931640625" lon="-70.8977432548999786376953125">
        <ele>605.79998779296875</ele>
        <time>2026-08-21T16:23:46.000Z</time>
        <extensions>
          <ns3:TrackPointExtension>
            <ns3:hr>115</ns3:hr>
            <ns3:cad>55</ns3:cad>
          </ns3:TrackPointExtension>
        </extensions>
      </trkpt>
      <trkpt lat="45.3156562708318233489990234375" lon="-70.89773587882518768310546875">
        <ele>606</ele>
        <time>2026-08-21T16:23:47.000Z</time>
        <extensions>
          <ns3:TrackPointExtension>
            <ns3:hr>116</ns3:hr>
            <ns3:cad>49</ns3:cad>
          </ns3:TrackPointExtension>
        </extensions>
      </trkpt>
      <trkpt lat="45.315664820373058319091796875" lon="-70.89772355742752552032470703125">
        <ele>606</ele>
        <time>2026-08-21T16:23:48.000Z</time>
        <extensions>
          <ns3:TrackPointExtension>
            <ns3:hr>116</ns3:hr>
            <ns3:cad>49</ns3:cad>
          </ns3:TrackPointExtension>
        </extensions>
      </trkpt>
      <trkpt lat="45.31567244790494441986083984375" lon="-70.89771869592368602752685546875">
        <ele>606.20001220703125</ele>
        <time>2026-08-21T16:23:49.000Z</time>
        <extensions>
          <ns3:TrackPointExtension>
            <ns3:hr>116</ns3:hr>
            <ns3:cad>48</ns3:cad>
          </ns3:TrackPointExtension>
        </extensions>
      </trkpt>
      <trkpt lat="45.31568326056003570556640625" lon="-70.89771232567727565765380859375">
        <ele>606.4000244140625</ele>
        <time>2026-08-21T16:23:50.000Z</time>
        <extensions>
          <ns3:TrackPointExtension>
            <ns3:hr>116</ns3:hr>
            <ns3:cad>48</ns3:cad>
          </ns3:TrackPointExtension>
        </extensions>
      </trkpt>
      <trkpt lat="45.31569122336804866790771484375" lon="-70.897698663175106048583984375">
        <ele>606.4000244140625</ele>
        <time>2026-08-21T16:23:51.000Z</time>
        <extensions>
          <ns3:TrackPointExtension>
            <ns3:hr>116</ns3:hr>
            <ns3:cad>48</ns3:cad>
          </ns3:TrackPointExtension>
        </extensions>
      </trkpt>
      <trkpt lat="45.31569977290928363800048828125" lon="-70.89768885634839534759521484375">
        <ele>606.5999755859375</ele>
        <time>2026-08-21T16:23:52.000Z</time>
        <extensions>
          <ns3:TrackPointExtension>
            <ns3:hr>116</ns3:hr>
            <ns3:cad>48</ns3:cad>
          </ns3:TrackPointExtension>
        </extensions>
      </trkpt>
      <trkpt lat="45.31571008265018463134765625" lon="-70.8976730145514011383056640625">
        <ele>606.79998779296875</ele>
        <time>2026-08-21T16:23:53.000Z</time>
        <extensions>
          <ns3:TrackPointExtension>
            <ns3:hr>117</ns3:hr>
            <ns3:cad>48</ns3:cad>
          </ns3:TrackPointExtension>
        </extensions>
      </trkpt>
      <trkpt lat="45.31571678817272186279296875" lon="-70.897663123905658721923828125">
        <ele>607</ele>
        <time>2026-08-21T16:23:54.000Z</time>
        <extensions>
          <ns3:TrackPointExtension>
            <ns3:hr>116</ns3:hr>
            <ns3:cad>48</ns3:cad>
          </ns3:TrackPointExtension>
        </extensions>
      </trkpt>
      <trkpt lat="45.31572910957038402557373046875" lon="-70.89765214361250400543212890625">
        <ele>607.20001220703125</ele>
        <time>2026-08-21T16:23:55.000Z</time>
        <extensions>
          <ns3:TrackPointExtension>
            <ns3:hr>116</ns3:hr>
            <ns3:cad>48</ns3:cad>
          </ns3:TrackPointExtension>
        </extensions>
      </trkpt>
      <trkpt lat="45.31574218533933162689208984375" lon="-70.89763931930065155029296875">
        <ele>607.4000244140625</ele>
        <time>2026-08-21T16:23:56.000Z</time>
        <extensions>
          <ns3:TrackPointExtension>
            <ns3:hr>116</ns3:hr>
            <ns3:cad>48</ns3:cad>
          </ns3:TrackPointExtension>
        </extensions>
      </trkpt>
      <trkpt lat="45.315751321613788604736328125" lon="-70.89762733317911624908447265625">
        <ele>607.4000244140625</ele>
        <time>2026-08-21T16:23:57.000Z</time>
        <extensions>
          <ns3:TrackPointExtension>
            <ns3:hr>116</ns3:hr>
            <ns3:cad>48</ns3:cad>
          </ns3:TrackPointExtension>
        </extensions>
      </trkpt>
      <trkpt lat="45.31575827859342098236083984375" lon="-70.8976133354008197784423828125">
        <ele>607.5999755859375</ele>
        <time>2026-08-21T16:23:58.000Z</time>
        <extensions>
          <ns3:TrackPointExtension>
            <ns3:hr>116</ns3:hr>
            <ns3:cad>48</ns3:cad>
          </ns3:TrackPointExtension>
        </extensions>
      </trkpt>
      <trkpt lat="45.31576800160109996795654296875" lon="-70.8975979126989841461181640625">
        <ele>607.5999755859375</ele>
        <time>2026-08-21T16:23:59.000Z</time>
        <extensions>
          <ns3:TrackPointExtension>
            <ns3:hr>117</ns3:hr>
            <ns3:cad>0</ns3:cad>
          </ns3:TrackPointExtension>
        </extensions>
      </trkpt>
      <trkpt lat="45.315782167017459869384765625" lon="-70.8975848369300365447998046875">
        <ele>607.79998779296875</ele>
        <time>2026-08-21T16:24:00.000Z</time>
        <extensions>
          <ns3:TrackPointExtension>
            <ns3:hr>118</ns3:hr>
            <ns3:cad>0</ns3:cad>
          </ns3:TrackPointExtension>
        </extensions>
      </trkpt>
      <trkpt lat="45.3157893754541873931884765625" lon="-70.89757494628429412841796875">
        <ele>608</ele>
        <time>2026-08-21T16:24:01.000Z</time>
        <extensions>
          <ns3:TrackPointExtension>
            <ns3:hr>119</ns3:hr>
            <ns3:cad>0</ns3:cad>
          </ns3:TrackPointExtension>
        </extensions>
      </trkpt>
      <trkpt lat="45.315800607204437255859375" lon="-70.89756664820015430450439453125">
        <ele>608.20001220703125</ele>
        <time>2026-08-21T16:24:02.000Z</time>
        <extensions>
          <ns3:TrackPointExtension>
            <ns3:hr>124</ns3:hr>
            <ns3:cad>48</ns3:cad>
          </ns3:TrackPointExtension>
        </extensions>
      </trkpt>
      <trkpt lat="45.31581343151628971099853515625" lon="-70.897559188306331634521484375">
        <ele>608.20001220703125</ele>
        <time>2026-08-21T16:24:03.000Z</time>
        <extensions>
          <ns3:TrackPointExtension>
            <ns3:hr>128</ns3:hr>
            <ns3:cad>48</ns3:cad>
          </ns3:TrackPointExtension>
        </extensions>
      </trkpt>
      <trkpt lat="45.31582667492330074310302734375" lon="-70.8975462801754474639892578125">
        <ele>608.4000244140625</ele>
        <time>2026-08-21T16:24:04.000Z</time>
        <extensions>
          <ns3:TrackPointExtension>
            <ns3:hr>130</ns3:hr>
            <ns3:cad>0</ns3:cad>
          </ns3:TrackPointExtension>
        </extensions>
      </trkpt>
      <trkpt lat="45.3158379904925823211669921875" lon="-70.8975301869213581085205078125">
        <ele>608.4000244140625</ele>
        <time>2026-08-21T16:24:05.000Z</time>
        <extensions>
          <ns3:TrackPointExtension>
            <ns3:hr>130</ns3:hr>
            <ns3:cad>0</ns3:cad>
          </ns3:TrackPointExtension>
        </extensions>
      </trkpt>
      <trkpt lat="45.31584561802446842193603515625" lon="-70.8975228108465671539306640625">
        <ele>608.4000244140625</ele>
        <time>2026-08-21T16:24:06.000Z</time>
        <extensions>
          <ns3:TrackPointExtension>
            <ns3:hr>131</ns3:hr>
            <ns3:cad>0</ns3:cad>
          </ns3:TrackPointExtension>
        </extensions>
      </trkpt>
      <trkpt lat="45.31586372293531894683837890625" lon="-70.89750789105892181396484375">
        <ele>608.5999755859375</ele>
        <time>2026-08-21T16:24:07.000Z</time>
        <extensions>
          <ns3:TrackPointExtension>
            <ns3:hr>132</ns3:hr>
            <ns3:cad>0</ns3:cad>
          </ns3:TrackPointExtension>
        </extensions>
      </trkpt>
      <trkpt lat="45.315880067646503448486328125" lon="-70.89749003760516643524169921875">
        <ele>608.5999755859375</ele>
        <time>2026-08-21T16:24:08.000Z</time>
        <extensions>
          <ns3:TrackPointExtension>
            <ns3:hr>132</ns3:hr>
            <ns3:cad>0</ns3:cad>
          </ns3:TrackPointExtension>
        </extensions>
      </trkpt>
      <trkpt lat="45.31589381396770477294921875" lon="-70.89747327379882335662841796875">
        <ele>608.79998779296875</ele>
        <time>2026-08-21T16:24:09.000Z</time>
        <extensions>
          <ns3:TrackPointExtension>
            <ns3:hr>133</ns3:hr>
            <ns3:cad>0</ns3:cad>
          </ns3:TrackPointExtension>
        </extensions>
      </trkpt>
      <trkpt lat="45.3159077279269695281982421875" lon="-70.89745064266026020050048828125">
        <ele>609</ele>
        <time>2026-08-21T16:24:10.000Z</time>
        <extensions>
          <ns3:TrackPointExtension>
            <ns3:hr>134</ns3:hr>
            <ns3:cad>0</ns3:cad>
          </ns3:TrackPointExtension>
        </extensions>
      </trkpt>
      <trkpt lat="45.31592004932463169097900390625" lon="-70.8974348008632659912109375">
        <ele>609.20001220703125</ele>
        <time>2026-08-21T16:24:11.000Z</time>
        <extensions>
          <ns3:TrackPointExtension>
            <ns3:hr>135</ns3:hr>
            <ns3:cad>0</ns3:cad>
          </ns3:TrackPointExtension>
        </extensions>
      </trkpt>
      <trkpt lat="45.31592859886586666107177734375" lon="-70.89742063544690608978271484375">
        <ele>609.4000244140625</ele>
        <time>2026-08-21T16:24:12.000Z</time>
        <extensions>
          <ns3:TrackPointExtension>
            <ns3:hr>136</ns3:hr>
            <ns3:cad>0</ns3:cad>
          </ns3:TrackPointExtension>
        </extensions>
      </trkpt>
      <trkpt lat="45.3159402497112751007080078125" lon="-70.897401608526706695556640625">
        <ele>609.4000244140625</ele>
        <time>2026-08-21T16:24:13.000Z</time>
        <extensions>
          <ns3:TrackPointExtension>
            <ns3:hr>137</ns3:hr>
            <ns3:cad>0</ns3:cad>
          </ns3:TrackPointExtension>
        </extensions>
      </trkpt>
      <trkpt lat="45.31594703905284404754638671875" lon="-70.89738727547228336334228515625">
        <ele>609.5999755859375</ele>
        <time>2026-08-21T16:24:14.000Z</time>
        <extensions>
          <ns3:TrackPointExtension>
            <ns3:hr>138</ns3:hr>
            <ns3:cad>53</ns3:cad>
          </ns3:TrackPointExtension>
        </extensions>
      </trkpt>
      <trkpt lat="45.3159560076892375946044921875" lon="-70.89737369678914546966552734375">
        <ele>609.5999755859375</ele>
        <time>2026-08-21T16:24:15.000Z</time>
        <extensions>
          <ns3:TrackPointExtension>
            <ns3:hr>138</ns3:hr>
            <ns3:cad>53</ns3:cad>
          </ns3:TrackPointExtension>
        </extensions>
      </trkpt>
      <trkpt lat="45.3159653954207897186279296875" lon="-70.89735223911702632904052734375">
        <ele>609.79998779296875</ele>
        <time>2026-08-21T16:24:16.000Z</time>
        <extensions>
          <ns3:TrackPointExtension>
            <ns3:hr>138</ns3:hr>
            <ns3:cad>53</ns3:cad>
          </ns3:TrackPointExtension>
        </extensions>
      </trkpt>
      <trkpt lat="45.31597386114299297332763671875" lon="-70.8973374031484127044677734375">
        <ele>609.79998779296875</ele>
        <time>2026-08-21T16:24:17.000Z</time>
        <extensions>
          <ns3:TrackPointExtension>
            <ns3:hr>139</ns3:hr>
            <ns3:cad>0</ns3:cad>
          </ns3:TrackPointExtension>
        </extensions>
      </trkpt>
      <trkpt lat="45.3159798122942447662353515625" lon="-70.89732038788497447967529296875">
        <ele>610</ele>
        <time>2026-08-21T16:24:18.000Z</time>
        <extensions>
          <ns3:TrackPointExtension>
            <ns3:hr>139</ns3:hr>
            <ns3:cad>0</ns3:cad>
          </ns3:TrackPointExtension>
        </extensions>
      </trkpt>
      <trkpt lat="45.31598475761711597442626953125" lon="-70.89730546809732913970947265625">
        <ele>610.20001220703125</ele>
        <time>2026-08-21T16:24:19.000Z</time>
        <extensions>
          <ns3:TrackPointExtension>
            <ns3:hr>140</ns3:hr>
            <ns3:cad>0</ns3:cad>
          </ns3:TrackPointExtension>
        </extensions>
      </trkpt>
      <trkpt lat="45.31599783338606357574462890625" lon="-70.89728451333940029144287109375">
        <ele>610.20001220703125</ele>
        <time>2026-08-21T16:24:20.000Z</time>
        <extensions>
          <ns3:TrackPointExtension>
            <ns3:hr>141</ns3:hr>
            <ns3:cad>0</ns3:cad>
          </ns3:TrackPointExtension>
        </extensions>
      </trkpt>
      <trkpt lat="45.31600537709891796112060546875" lon="-70.89727311395108699798583984375">
        <ele>610.20001220703125</ele>
        <time>2026-08-21T16:24:21.000Z</time>
        <extensions>
          <ns3:TrackPointExtension>
            <ns3:hr>141</ns3:hr>
            <ns3:cad>0</ns3:cad>
          </ns3:TrackPointExtension>
        </extensions>
      </trkpt>
      <trkpt lat="45.31601308844983577728271484375" lon="-70.897266156971454620361328125">
        <ele>610.4000244140625</ele>
        <time>2026-08-21T16:24:22.000Z</time>
        <extensions>
          <ns3:TrackPointExtension>
            <ns3:hr>142</ns3:hr>
            <ns3:cad>0</ns3:cad>
          </ns3:TrackPointExtension>
        </extensions>
      </trkpt>
      <trkpt lat="45.3160247392952442169189453125" lon="-70.89724763296544551849365234375">
        <ele>610.4000244140625</ele>
        <time>2026-08-21T16:24:23.000Z</time>
        <extensions>
          <ns3:TrackPointExtension>
            <ns3:hr>142</ns3:hr>
            <ns3:cad>0</ns3:cad>
          </ns3:TrackPointExtension>
        </extensions>
      </trkpt>
      <trkpt lat="45.31603303737938404083251953125" lon="-70.89723723940551280975341796875">
        <ele>610.4000244140625</ele>
        <time>2026-08-21T16:24:24.000Z</time>
        <extensions>
          <ns3:TrackPointExtension>
            <ns3:hr>143</ns3:hr>
            <ns3:cad>52</ns3:cad>
          </ns3:TrackPointExtension>
        </extensions>
      </trkpt>
      <trkpt lat="45.3160374797880649566650390625" lon="-70.89722349308431148529052734375">
        <ele>610.5999755859375</ele>
        <time>2026-08-21T16:24:25.000Z</time>
        <extensions>
          <ns3:TrackPointExtension>
            <ns3:hr>143</ns3:hr>
            <ns3:cad>52</ns3:cad>
          </ns3:TrackPointExtension>
        </extensions>
      </trkpt>
      <trkpt lat="45.3160431794822216033935546875" lon="-70.89721611700952053070068359375">
        <ele>610.5999755859375</ele>
        <time>2026-08-21T16:24:26.000Z</time>
        <extensions>
          <ns3:TrackPointExtension>
            <ns3:hr>144</ns3:hr>
            <ns3:cad>52</ns3:cad>
          </ns3:TrackPointExtension>
        </extensions>
      </trkpt>
      <trkpt lat="45.3160579316318035125732421875" lon="-70.89721108786761760711669921875">
        <ele>610.5999755859375</ele>
        <time>2026-08-21T16:24:27.000Z</time>
        <extensions>
          <ns3:TrackPointExtension>
            <ns3:hr>144</ns3:hr>
            <ns3:cad>52</ns3:cad>
          </ns3:TrackPointExtension>
        </extensions>
      </trkpt>
      <trkpt lat="45.3160693310201168060302734375" lon="-70.8972066454589366912841796875">
        <ele>610.5999755859375</ele>
        <time>2026-08-21T16:24:28.000Z</time>
        <extensions>
          <ns3:TrackPointExtension>
            <ns3:hr>144</ns3:hr>
            <ns3:cad>52</ns3:cad>
          </ns3:TrackPointExtension>
        </extensions>
      </trkpt>
      <trkpt lat="45.3160814009606838226318359375" lon="-70.8972012810409069061279296875">
        <ele>610.5999755859375</ele>
        <time>2026-08-21T16:24:29.000Z</time>
        <extensions>
          <ns3:TrackPointExtension>
            <ns3:hr>144</ns3:hr>
            <ns3:cad>52</ns3:cad>
          </ns3:TrackPointExtension>
        </extensions>
      </trkpt>
      <trkpt lat="45.31609305180609226226806640625" lon="-70.8971932344138622283935546875">
        <ele>610.5999755859375</ele>
        <time>2026-08-21T16:24:30.000Z</time>
        <extensions>
          <ns3:TrackPointExtension>
            <ns3:hr>144</ns3:hr>
            <ns3:cad>52</ns3:cad>
          </ns3:TrackPointExtension>
        </extensions>
      </trkpt>
      <trkpt lat="45.31610461883246898651123046875" lon="-70.89718812145292758941650390625">
        <ele>610.5999755859375</ele>
        <time>2026-08-21T16:24:31.000Z</time>
        <extensions>
          <ns3:TrackPointExtension>
            <ns3:hr>145</ns3:hr>
            <ns3:cad>52</ns3:cad>
          </ns3:TrackPointExtension>
        </extensions>
      </trkpt>
      <trkpt lat="45.316117443144321441650390625" lon="-70.89718066155910491943359375">
        <ele>610.5999755859375</ele>
        <time>2026-08-21T16:24:32.000Z</time>
        <extensions>
          <ns3:TrackPointExtension>
            <ns3:hr>144</ns3:hr>
            <ns3:cad>52</ns3:cad>
          </ns3:TrackPointExtension>
        </extensions>
      </trkpt>
      <trkpt lat="45.316127836704254150390625" lon="-70.89717454276978969573974609375">
        <ele>610.5999755859375</ele>
        <time>2026-08-21T16:24:33.000Z</time>
        <extensions>
          <ns3:TrackPointExtension>
            <ns3:hr>144</ns3:hr>
            <ns3:cad>52</ns3:cad>
          </ns3:TrackPointExtension>
        </extensions>
      </trkpt>
      <trkpt lat="45.31613764353096485137939453125" lon="-70.89716590940952301025390625">
        <ele>610.79998779296875</ele>
        <time>2026-08-21T16:24:34.000Z</time>
        <extensions>
          <ns3:TrackPointExtension>
            <ns3:hr>144</ns3:hr>
            <ns3:cad>52</ns3:cad>
          </ns3:TrackPointExtension>
        </extensions>
      </trkpt>
      <trkpt lat="45.31614501960575580596923828125" lon="-70.89715425856411457061767578125">
        <ele>610.79998779296875</ele>
        <time>2026-08-21T16:24:35.000Z</time>
        <extensions>
          <ns3:TrackPointExtension>
            <ns3:hr>143</ns3:hr>
            <ns3:cad>52</ns3:cad>
          </ns3:TrackPointExtension>
        </extensions>
      </trkpt>
      <trkpt lat="45.31614803709089756011962890625" lon="-70.89714084751904010772705078125">
        <ele>611</ele>
        <time>2026-08-21T16:24:36.000Z</time>
        <extensions>
          <ns3:TrackPointExtension>
            <ns3:hr>143</ns3:hr>
            <ns3:cad>52</ns3:cad>
          </ns3:TrackPointExtension>
        </extensions>
      </trkpt>
      <trkpt lat="45.31615239568054676055908203125" lon="-70.89713196270167827606201171875">
        <ele>611</ele>
        <time>2026-08-21T16:24:37.000Z</time>
        <extensions>
          <ns3:TrackPointExtension>
            <ns3:hr>143</ns3:hr>
            <ns3:cad>52</ns3:cad>
          </ns3:TrackPointExtension>
        </extensions>
      </trkpt>
      <trkpt lat="45.31616379506886005401611328125" lon="-70.8971322141587734222412109375">
        <ele>611</ele>
        <time>2026-08-21T16:24:38.000Z</time>
        <extensions>
          <ns3:TrackPointExtension>
            <ns3:hr>143</ns3:hr>
            <ns3:cad>0</ns3:cad>
          </ns3:TrackPointExtension>
        </extensions>
      </trkpt>
      <trkpt lat="45.31617016531527042388916015625" lon="-70.897130705416202545166015625">
        <ele>611.20001220703125</ele>
        <time>2026-08-21T16:24:39.000Z</time>
        <extensions>
          <ns3:TrackPointExtension>
            <ns3:hr>140</ns3:hr>
            <ns3:cad>0</ns3:cad>
          </ns3:TrackPointExtension>
        </extensions>
      </trkpt>
      <trkpt lat="45.31618215143680572509765625" lon="-70.89712777175009250640869140625">
        <ele>611.20001220703125</ele>
        <time>2026-08-21T16:24:40.000Z</time>
        <extensions>
          <ns3:TrackPointExtension>
            <ns3:hr>139</ns3:hr>
            <ns3:cad>0</ns3:cad>
          </ns3:TrackPointExtension>
        </extensions>
      </trkpt>
      <trkpt lat="45.316190533339977264404296875" lon="-70.89712978340685367584228515625">
        <ele>611.20001220703125</ele>
        <time>2026-08-21T16:24:41.000Z</time>
        <extensions>
          <ns3:TrackPointExtension>
            <ns3:hr>139</ns3:hr>
            <ns3:cad>0</ns3:cad>
          </ns3:TrackPointExtension>
        </extensions>
      </trkpt>
      <trkpt lat="45.31620285473763942718505859375" lon="-70.89713598601520061492919921875">
        <ele>611.20001220703125</ele>
        <time>2026-08-21T16:24:42.000Z</time>
        <extensions>
          <ns3:TrackPointExtension>
            <ns3:hr>139</ns3:hr>
            <ns3:cad>0</ns3:cad>
          </ns3:TrackPointExtension>
        </extensions>
      </trkpt>
      <trkpt lat="45.31621777452528476715087890625" lon="-70.897136069834232330322265625">
        <ele>611.20001220703125</ele>
        <time>2026-08-21T16:24:43.000Z</time>
        <extensions>
          <ns3:TrackPointExtension>
            <ns3:hr>140</ns3:hr>
            <ns3:cad>55</ns3:cad>
          </ns3:TrackPointExtension>
        </extensions>
      </trkpt>
      <trkpt lat="45.31623353250324726104736328125" lon="-70.897132046520709991455078125">
        <ele>611.20001220703125</ele>
        <time>2026-08-21T16:24:44.000Z</time>
        <extensions>
          <ns3:TrackPointExtension>
            <ns3:hr>140</ns3:hr>
            <ns3:cad>55</ns3:cad>
          </ns3:TrackPointExtension>
        </extensions>
      </trkpt>
      <trkpt lat="45.31624878756701946258544921875" lon="-70.89712207205593585968017578125">
        <ele>611.20001220703125</ele>
        <time>2026-08-21T16:24:45.000Z</time>
        <extensions>
          <ns3:TrackPointExtension>
            <ns3:hr>140</ns3:hr>
            <ns3:cad>55</ns3:cad>
          </ns3:TrackPointExtension>
        </extensions>
      </trkpt>
      <trkpt lat="45.316261947154998779296875" lon="-70.8971053920686244964599609375">
        <ele>611</ele>
        <time>2026-08-21T16:24:46.000Z</time>
        <extensions>
          <ns3:TrackPointExtension>
            <ns3:hr>140</ns3:hr>
            <ns3:cad>55</ns3:cad>
          </ns3:TrackPointExtension>
        </extensions>
      </trkpt>
      <trkpt lat="45.31627200543880462646484375" lon="-70.89708468876779079437255859375">
        <ele>611</ele>
        <time>2026-08-21T16:24:47.000Z</time>
        <extensions>
          <ns3:TrackPointExtension>
            <ns3:hr>140</ns3:hr>
            <ns3:cad>55</ns3:cad>
          </ns3:TrackPointExtension>
        </extensions>
      </trkpt>
      <trkpt lat="45.3162812255322933197021484375" lon="-70.89706960134208202362060546875">
        <ele>611.20001220703125</ele>
        <time>2026-08-21T16:24:48.000Z</time>
        <extensions>
          <ns3:TrackPointExtension>
            <ns3:hr>140</ns3:hr>
            <ns3:cad>55</ns3:cad>
          </ns3:TrackPointExtension>
        </extensions>
      </trkpt>
      <trkpt lat="45.31629078090190887451171875" lon="-70.897056944668292999267578125">
        <ele>611.20001220703125</ele>
        <time>2026-08-21T16:24:49.000Z</time>
        <extensions>
          <ns3:TrackPointExtension>
            <ns3:hr>139</ns3:hr>
            <ns3:cad>55</ns3:cad>
          </ns3:TrackPointExtension>
        </extensions>
      </trkpt>
      <trkpt lat="45.31630310229957103729248046875" lon="-70.89704110287129878997802734375">
        <ele>611.20001220703125</ele>
        <time>2026-08-21T16:24:50.000Z</time>
        <extensions>
          <ns3:TrackPointExtension>
            <ns3:hr>140</ns3:hr>
            <ns3:cad>55</ns3:cad>
          </ns3:TrackPointExtension>
        </extensions>
      </trkpt>
      <trkpt lat="45.316317267715930938720703125" lon="-70.89702651835978031158447265625">
        <ele>611.4000244140625</ele>
        <time>2026-08-21T16:24:51.000Z</time>
        <extensions>
          <ns3:TrackPointExtension>
            <ns3:hr>140</ns3:hr>
            <ns3:cad>55</ns3:cad>
          </ns3:TrackPointExtension>
        </extensions>
      </trkpt>
      <trkpt lat="45.316330008208751678466796875" lon="-70.8970136940479278564453125">
        <ele>611.4000244140625</ele>
        <time>2026-08-21T16:24:52.000Z</time>
        <extensions>
          <ns3:TrackPointExtension>
            <ns3:hr>140</ns3:hr>
            <ns3:cad>55</ns3:cad>
          </ns3:TrackPointExtension>
        </extensions>
      </trkpt>
      <trkpt lat="45.3163410723209381103515625" lon="-70.89699869044125080108642578125">
        <ele>611.4000244140625</ele>
        <time>2026-08-21T16:24:53.000Z</time>
        <extensions>
          <ns3:TrackPointExtension>
            <ns3:hr>140</ns3:hr>
            <ns3:cad>0</ns3:cad>
          </ns3:TrackPointExtension>
        </extensions>
      </trkpt>
      <trkpt lat="45.3163491189479827880859375" lon="-70.89698896743357181549072265625">
        <ele>611.4000244140625</ele>
        <time>2026-08-21T16:24:54.000Z</time>
        <extensions>
          <ns3:TrackPointExtension>
            <ns3:hr>140</ns3:hr>
            <ns3:cad>0</ns3:cad>
          </ns3:TrackPointExtension>
        </extensions>
      </trkpt>
      <trkpt lat="45.3163593448698520660400390625" lon="-70.89698578231036663055419921875">
        <ele>611.4000244140625</ele>
        <time>2026-08-21T16:24:55.000Z</time>
        <extensions>
          <ns3:TrackPointExtension>
            <ns3:hr>140</ns3:hr>
            <ns3:cad>0</ns3:cad>
          </ns3:TrackPointExtension>
        </extensions>
      </trkpt>
      <trkpt lat="45.3163724206387996673583984375" lon="-70.8969877101480960845947265625">
        <ele>611.4000244140625</ele>
        <time>2026-08-21T16:24:56.000Z</time>
        <extensions>
          <ns3:TrackPointExtension>
            <ns3:hr>140</ns3:hr>
            <ns3:cad>0</ns3:cad>
          </ns3:TrackPointExtension>
        </extensions>
      </trkpt>
      <trkpt lat="45.31638591550290584564208984375" lon="-70.896988548338413238525390625">
        <ele>611.4000244140625</ele>
        <time>2026-08-21T16:24:57.000Z</time>
        <extensions>
          <ns3:TrackPointExtension>
            <ns3:hr>140</ns3:hr>
            <ns3:cad>0</ns3:cad>
          </ns3:TrackPointExtension>
        </extensions>
      </trkpt>
      <trkpt lat="45.31639463268220424652099609375" lon="-70.8969763107597827911376953125">
        <ele>611.4000244140625</ele>
        <time>2026-08-21T16:24:58.000Z</time>
        <extensions>
          <ns3:TrackPointExtension>
            <ns3:hr>139</ns3:hr>
            <ns3:cad>0</ns3:cad>
          </ns3:TrackPointExtension>
        </extensions>
      </trkpt>
      <trkpt lat="45.31640083529055118560791015625" lon="-70.8969649113714694976806640625">
        <ele>611.20001220703125</ele>
        <time>2026-08-21T16:24:59.000Z</time>
        <extensions>
          <ns3:TrackPointExtension>
            <ns3:hr>141</ns3:hr>
            <ns3:cad>0</ns3:cad>
          </ns3:TrackPointExtension>
        </extensions>
      </trkpt>
      <trkpt lat="45.31640821136534214019775390625" lon="-70.89695443399250507354736328125">
        <ele>611.20001220703125</ele>
        <time>2026-08-21T16:25:00.000Z</time>
        <extensions>
          <ns3:TrackPointExtension>
            <ns3:hr>142</ns3:hr>
            <ns3:cad>0</ns3:cad>
          </ns3:TrackPointExtension>
        </extensions>
      </trkpt>
      <trkpt lat="45.31641793437302112579345703125" lon="-70.896950997412204742431640625">
        <ele>611.20001220703125</ele>
        <time>2026-08-21T16:25:01.000Z</time>
        <extensions>
          <ns3:TrackPointExtension>
            <ns3:hr>141</ns3:hr>
            <ns3:cad>0</ns3:cad>
          </ns3:TrackPointExtension>
        </extensions>
      </trkpt>
      <trkpt lat="45.3164227120578289031982421875" lon="-70.8969533443450927734375">
        <ele>611.20001220703125</ele>
        <time>2026-08-21T16:25:02.000Z</time>
        <extensions>
          <ns3:TrackPointExtension>
            <ns3:hr>139</ns3:hr>
            <ns3:cad>0</ns3:cad>
          </ns3:TrackPointExtension>
        </extensions>
      </trkpt>
      <trkpt lat="45.31642782501876354217529296875" lon="-70.8969608880579471588134765625">
        <ele>611</ele>
        <time>2026-08-21T16:25:03.000Z</time>
        <extensions>
          <ns3:TrackPointExtension>
            <ns3:hr>138</ns3:hr>
            <ns3:cad>50</ns3:cad>
          </ns3:TrackPointExtension>
        </extensions>
      </trkpt>
      <trkpt lat="45.31643553636968135833740234375" lon="-70.89697287417948246002197265625">
        <ele>611</ele>
        <time>2026-08-21T16:25:04.000Z</time>
        <extensions>
          <ns3:TrackPointExtension>
            <ns3:hr>138</ns3:hr>
            <ns3:cad>50</ns3:cad>
          </ns3:TrackPointExtension>
        </extensions>
      </trkpt>
      <trkpt lat="45.31644827686250209808349609375" lon="-70.89698008261620998382568359375">
        <ele>611</ele>
        <time>2026-08-21T16:25:05.000Z</time>
        <extensions>
          <ns3:TrackPointExtension>
            <ns3:hr>137</ns3:hr>
            <ns3:cad>53</ns3:cad>
          </ns3:TrackPointExtension>
        </extensions>
      </trkpt>
      <trkpt lat="45.31646110117435455322265625" lon="-70.896983854472637176513671875">
        <ele>611</ele>
        <time>2026-08-21T16:25:06.000Z</time>
        <extensions>
          <ns3:TrackPointExtension>
            <ns3:hr>136</ns3:hr>
            <ns3:cad>53</ns3:cad>
          </ns3:TrackPointExtension>
        </extensions>
      </trkpt>
      <trkpt lat="45.3164753504097461700439453125" lon="-70.89698662050068378448486328125">
        <ele>610.79998779296875</ele>
        <time>2026-08-21T16:25:07.000Z</time>
        <extensions>
          <ns3:TrackPointExtension>
            <ns3:hr>135</ns3:hr>
            <ns3:cad>53</ns3:cad>
          </ns3:TrackPointExtension>
        </extensions>
      </trkpt>
      <trkpt lat="45.3164968080818653106689453125" lon="-70.89698812924325466156005859375">
        <ele>610.79998779296875</ele>
        <time>2026-08-21T16:25:08.000Z</time>
        <extensions>
          <ns3:TrackPointExtension>
            <ns3:hr>135</ns3:hr>
            <ns3:cad>53</ns3:cad>
          </ns3:TrackPointExtension>
        </extensions>
      </trkpt>
      <trkpt lat="45.3165092132985591888427734375" lon="-70.89699089527130126953125">
        <ele>610.79998779296875</ele>
        <time>2026-08-21T16:25:09.000Z</time>
        <extensions>
          <ns3:TrackPointExtension>
            <ns3:hr>134</ns3:hr>
            <ns3:cad>53</ns3:cad>
          </ns3:TrackPointExtension>
        </extensions>
      </trkpt>
      <trkpt lat="45.3165263123810291290283203125" lon="-70.89700154028832912445068359375">
        <ele>610.79998779296875</ele>
        <time>2026-08-21T16:25:10.000Z</time>
        <extensions>
          <ns3:TrackPointExtension>
            <ns3:hr>133</ns3:hr>
            <ns3:cad>53</ns3:cad>
          </ns3:TrackPointExtension>
        </extensions>
      </trkpt>
      <trkpt lat="45.31654031015932559967041015625" lon="-70.8970105089247226715087890625">
        <ele>610.79998779296875</ele>
        <time>2026-08-21T16:25:11.000Z</time>
        <extensions>
          <ns3:TrackPointExtension>
            <ns3:hr>133</ns3:hr>
            <ns3:cad>53</ns3:cad>
          </ns3:TrackPointExtension>
        </extensions>
      </trkpt>
      <trkpt lat="45.31655103899538516998291015625" lon="-70.897018052637577056884765625">
        <ele>610.79998779296875</ele>
        <time>2026-08-21T16:25:12.000Z</time>
        <extensions>
          <ns3:TrackPointExtension>
            <ns3:hr>133</ns3:hr>
            <ns3:cad>72</ns3:cad>
          </ns3:TrackPointExtension>
        </extensions>
      </trkpt>
      <trkpt lat="45.31656780280172824859619140625" lon="-70.897025763988494873046875">
        <ele>610.5999755859375</ele>
        <time>2026-08-21T16:25:13.000Z</time>
        <extensions>
          <ns3:TrackPointExtension>
            <ns3:hr>133</ns3:hr>
            <ns3:cad>51</ns3:cad>
          </ns3:TrackPointExtension>
        </extensions>
      </trkpt>
      <trkpt lat="45.31658322550356388092041015625" lon="-70.89703179895877838134765625">
        <ele>610.4000244140625</ele>
        <time>2026-08-21T16:25:14.000Z</time>
        <extensions>
          <ns3:TrackPointExtension>
            <ns3:hr>133</ns3:hr>
            <ns3:cad>51</ns3:cad>
          </ns3:TrackPointExtension>
        </extensions>
      </trkpt>
      <trkpt lat="45.31659764237701892852783203125" lon="-70.89703942649066448211669921875">
        <ele>610.4000244140625</ele>
        <time>2026-08-21T16:25:15.000Z</time>
        <extensions>
          <ns3:TrackPointExtension>
            <ns3:hr>133</ns3:hr>
            <ns3:cad>70</ns3:cad>
          </ns3:TrackPointExtension>
        </extensions>
      </trkpt>
      <trkpt lat="45.316608957946300506591796875" lon="-70.89704764075577259063720703125">
        <ele>610.20001220703125</ele>
        <time>2026-08-21T16:25:16.000Z</time>
        <extensions>
          <ns3:TrackPointExtension>
            <ns3:hr>133</ns3:hr>
            <ns3:cad>70</ns3:cad>
          </ns3:TrackPointExtension>
        </extensions>
      </trkpt>
      <trkpt lat="45.31662010587751865386962890625" lon="-70.897058285772800445556640625">
        <ele>610.20001220703125</ele>
        <time>2026-08-21T16:25:17.000Z</time>
        <extensions>
          <ns3:TrackPointExtension>
            <ns3:hr>132</ns3:hr>
            <ns3:cad>70</ns3:cad>
          </ns3:TrackPointExtension>
        </extensions>
      </trkpt>
      <trkpt lat="45.31663217581808567047119140625" lon="-70.89707714505493640899658203125">
        <ele>610</ele>
        <time>2026-08-21T16:25:18.000Z</time>
        <extensions>
          <ns3:TrackPointExtension>
            <ns3:hr>132</ns3:hr>
            <ns3:cad>70</ns3:cad>
          </ns3:TrackPointExtension>
        </extensions>
      </trkpt>
      <trkpt lat="45.31664206646382808685302734375" lon="-70.89708653278648853302001953125">
        <ele>610</ele>
        <time>2026-08-21T16:25:19.000Z</time>
        <extensions>
          <ns3:TrackPointExtension>
            <ns3:hr>131</ns3:hr>
            <ns3:cad>70</ns3:cad>
          </ns3:TrackPointExtension>
        </extensions>
      </trkpt>
      <trkpt lat="45.31665329821407794952392578125" lon="-70.89709809981286525726318359375">
        <ele>610</ele>
        <time>2026-08-21T16:25:20.000Z</time>
        <extensions>
          <ns3:TrackPointExtension>
            <ns3:hr>131</ns3:hr>
            <ns3:cad>73</ns3:cad>
          </ns3:TrackPointExtension>
        </extensions>
      </trkpt>
      <trkpt lat="45.31666905619204044342041015625" lon="-70.89711536653339862823486328125">
        <ele>609.79998779296875</ele>
        <time>2026-08-21T16:25:21.000Z</time>
        <extensions>
          <ns3:TrackPointExtension>
            <ns3:hr>131</ns3:hr>
            <ns3:cad>73</ns3:cad>
          </ns3:TrackPointExtension>
        </extensions>
      </trkpt>
      <trkpt lat="45.316682048141956329345703125" lon="-70.89712978340685367584228515625">
        <ele>609.79998779296875</ele>
        <time>2026-08-21T16:25:22.000Z</time>
        <extensions>
          <ns3:TrackPointExtension>
            <ns3:hr>131</ns3:hr>
            <ns3:cad>0</ns3:cad>
          </ns3:TrackPointExtension>
        </extensions>
      </trkpt>
      <trkpt lat="45.31669654883444309234619140625" lon="-70.89713984169065952301025390625">
        <ele>609.5999755859375</ele>
        <time>2026-08-21T16:25:23.000Z</time>
        <extensions>
          <ns3:TrackPointExtension>
            <ns3:hr>131</ns3:hr>
            <ns3:cad>0</ns3:cad>
          </ns3:TrackPointExtension>
        </extensions>
      </trkpt>
      <trkpt lat="45.31671280972659587860107421875" lon="-70.89714738540351390838623046875">
        <ele>609.4000244140625</ele>
        <time>2026-08-21T16:25:24.000Z</time>
        <extensions>
          <ns3:TrackPointExtension>
            <ns3:hr>131</ns3:hr>
            <ns3:cad>0</ns3:cad>
          </ns3:TrackPointExtension>
        </extensions>
      </trkpt>
      <trkpt lat="45.31673929654061794281005859375" lon="-70.897156856954097747802734375">
        <ele>609.4000244140625</ele>
        <time>2026-08-21T16:25:25.000Z</time>
        <extensions>
          <ns3:TrackPointExtension>
            <ns3:hr>131</ns3:hr>
            <ns3:cad>0</ns3:cad>
          </ns3:TrackPointExtension>
        </extensions>
      </trkpt>
      <trkpt lat="45.3167606703937053680419921875" lon="-70.89716113172471523284912109375">
        <ele>609.20001220703125</ele>
        <time>2026-08-21T16:25:26.000Z</time>
        <extensions>
          <ns3:TrackPointExtension>
            <ns3:hr>131</ns3:hr>
            <ns3:cad>0</ns3:cad>
          </ns3:TrackPointExtension>
        </extensions>
      </trkpt>
      <trkpt lat="45.3167740814387798309326171875" lon="-70.89716213755309581756591796875">
        <ele>609.20001220703125</ele>
        <time>2026-08-21T16:25:27.000Z</time>
        <extensions>
          <ns3:TrackPointExtension>
            <ns3:hr>131</ns3:hr>
            <ns3:cad>0</ns3:cad>
          </ns3:TrackPointExtension>
        </extensions>
      </trkpt>
      <trkpt lat="45.3167985565960407257080078125" lon="-70.897169597446918487548828125">
        <ele>609.20001220703125</ele>
        <time>2026-08-21T16:25:28.000Z</time>
        <extensions>
          <ns3:TrackPointExtension>
            <ns3:hr>131</ns3:hr>
            <ns3:cad>0</ns3:cad>
          </ns3:TrackPointExtension>
        </extensions>
      </trkpt>
      <trkpt lat="45.31681741587817668914794921875" lon="-70.89717001654207706451416015625">
        <ele>609.20001220703125</ele>
        <time>2026-08-21T16:25:29.000Z</time>
        <extensions>
          <ns3:TrackPointExtension>
            <ns3:hr>130</ns3:hr>
            <ns3:cad>0</ns3:cad>
          </ns3:TrackPointExtension>
        </extensions>
      </trkpt>
      <trkpt lat="45.3168357722461223602294921875" lon="-70.897159539163112640380859375">
        <ele>609</ele>
        <time>2026-08-21T16:25:30.000Z</time>
        <extensions>
          <ns3:TrackPointExtension>
            <ns3:hr>130</ns3:hr>
            <ns3:cad>68</ns3:cad>
          </ns3:TrackPointExtension>
        </extensions>
      </trkpt>
      <trkpt lat="45.316851697862148284912109375" lon="-70.89714713394641876220703125">
        <ele>609</ele>
        <time>2026-08-21T16:25:31.000Z</time>
        <extensions>
          <ns3:TrackPointExtension>
            <ns3:hr>130</ns3:hr>
            <ns3:cad>68</ns3:cad>
          </ns3:TrackPointExtension>
        </extensions>
      </trkpt>
      <trkpt lat="45.31686536036431789398193359375" lon="-70.897138081490993499755859375">
        <ele>608.79998779296875</ele>
        <time>2026-08-21T16:25:32.000Z</time>
        <extensions>
          <ns3:TrackPointExtension>
            <ns3:hr>130</ns3:hr>
            <ns3:cad>68</ns3:cad>
          </ns3:TrackPointExtension>
        </extensions>
      </trkpt>
      <trkpt lat="45.31688028015196323394775390625" lon="-70.89713263325393199920654296875">
        <ele>608.79998779296875</ele>
        <time>2026-08-21T16:25:33.000Z</time>
        <extensions>
          <ns3:TrackPointExtension>
            <ns3:hr>130</ns3:hr>
            <ns3:cad>68</ns3:cad>
          </ns3:TrackPointExtension>
        </extensions>
      </trkpt>
      <trkpt lat="45.3168927691876888275146484375" lon="-70.89713313616812229156494140625">
        <ele>608.79998779296875</ele>
        <time>2026-08-21T16:25:34.000Z</time>
        <extensions>
          <ns3:TrackPointExtension>
            <ns3:hr>130</ns3:hr>
            <ns3:cad>68</ns3:cad>
          </ns3:TrackPointExtension>
        </extensions>
      </trkpt>
      <trkpt lat="45.3169085271656513214111328125" lon="-70.89713238179683685302734375">
        <ele>608.79998779296875</ele>
        <time>2026-08-21T16:25:35.000Z</time>
        <extensions>
          <ns3:TrackPointExtension>
            <ns3:hr>130</ns3:hr>
            <ns3:cad>68</ns3:cad>
          </ns3:TrackPointExtension>
        </extensions>
      </trkpt>
      <trkpt lat="45.31692336313426494598388671875" lon="-70.8971268497407436370849609375">
        <ele>608.79998779296875</ele>
        <time>2026-08-21T16:25:36.000Z</time>
        <extensions>
          <ns3:TrackPointExtension>
            <ns3:hr>130</ns3:hr>
            <ns3:cad>68</ns3:cad>
          </ns3:TrackPointExtension>
        </extensions>
      </trkpt>
      <trkpt lat="45.31693794764578342437744140625" lon="-70.89712140150368213653564453125">
        <ele>608.79998779296875</ele>
        <time>2026-08-21T16:25:37.000Z</time>
        <extensions>
          <ns3:TrackPointExtension>
            <ns3:hr>130</ns3:hr>
            <ns3:cad>68</ns3:cad>
          </ns3:TrackPointExtension>
        </extensions>
      </trkpt>
      <trkpt lat="45.3169521130621433258056640625" lon="-70.89712559245526790618896484375">
        <ele>608.79998779296875</ele>
        <time>2026-08-21T16:25:38.000Z</time>
        <extensions>
          <ns3:TrackPointExtension>
            <ns3:hr>130</ns3:hr>
            <ns3:cad>68</ns3:cad>
          </ns3:TrackPointExtension>
        </extensions>
      </trkpt>
      <trkpt lat="45.31696669757366180419921875" lon="-70.897134058177471160888671875">
        <ele>608.5999755859375</ele>
        <time>2026-08-21T16:25:39.000Z</time>
        <extensions>
          <ns3:TrackPointExtension>
            <ns3:hr>130</ns3:hr>
            <ns3:cad>68</ns3:cad>
          </ns3:TrackPointExtension>
        </extensions>
      </trkpt>
      <trkpt lat="45.31697968952357769012451171875" lon="-70.8971370756626129150390625">
        <ele>608.5999755859375</ele>
        <time>2026-08-21T16:25:40.000Z</time>
        <extensions>
          <ns3:TrackPointExtension>
            <ns3:hr>130</ns3:hr>
            <ns3:cad>59</ns3:cad>
          </ns3:TrackPointExtension>
        </extensions>
      </trkpt>
      <trkpt lat="45.31699142418801784515380859375" lon="-70.89712969958782196044921875">
        <ele>608.4000244140625</ele>
        <time>2026-08-21T16:25:41.000Z</time>
        <extensions>
          <ns3:TrackPointExtension>
            <ns3:hr>129</ns3:hr>
            <ns3:cad>59</ns3:cad>
          </ns3:TrackPointExtension>
        </extensions>
      </trkpt>
      <trkpt lat="45.31700131483376026153564453125" lon="-70.8971228264272212982177734375">
        <ele>608.4000244140625</ele>
        <time>2026-08-21T16:25:42.000Z</time>
        <extensions>
          <ns3:TrackPointExtension>
            <ns3:hr>129</ns3:hr>
            <ns3:cad>58</ns3:cad>
          </ns3:TrackPointExtension>
        </extensions>
      </trkpt>
      <trkpt lat="45.31701439060270786285400390625" lon="-70.89712156914174556732177734375">
        <ele>608.4000244140625</ele>
        <time>2026-08-21T16:25:43.000Z</time>
        <extensions>
          <ns3:TrackPointExtension>
            <ns3:hr>129</ns3:hr>
            <ns3:cad>58</ns3:cad>
          </ns3:TrackPointExtension>
        </extensions>
      </trkpt>
      <trkpt lat="45.3170255385339260101318359375" lon="-70.89712207205593585968017578125">
        <ele>608.4000244140625</ele>
        <time>2026-08-21T16:25:44.000Z</time>
        <extensions>
          <ns3:TrackPointExtension>
            <ns3:hr>129</ns3:hr>
            <ns3:cad>56</ns3:cad>
          </ns3:TrackPointExtension>
        </extensions>
      </trkpt>
      <trkpt lat="45.3170352615416049957275390625" lon="-70.89712173677980899810791015625">
        <ele>608.4000244140625</ele>
        <time>2026-08-21T16:25:45.000Z</time>
        <extensions>
          <ns3:TrackPointExtension>
            <ns3:hr>129</ns3:hr>
            <ns3:cad>56</ns3:cad>
          </ns3:TrackPointExtension>
        </extensions>
      </trkpt>
      <trkpt lat="45.3170463256537914276123046875" lon="-70.8971141092479228973388671875">
        <ele>608.4000244140625</ele>
        <time>2026-08-21T16:25:46.000Z</time>
        <extensions>
          <ns3:TrackPointExtension>
            <ns3:hr>128</ns3:hr>
            <ns3:cad>56</ns3:cad>
          </ns3:TrackPointExtension>
        </extensions>
      </trkpt>
      <trkpt lat="45.31705797649919986724853515625" lon="-70.897107906639575958251953125">
        <ele>608.4000244140625</ele>
        <time>2026-08-21T16:25:47.000Z</time>
        <extensions>
          <ns3:TrackPointExtension>
            <ns3:hr>127</ns3:hr>
            <ns3:cad>56</ns3:cad>
          </ns3:TrackPointExtension>
        </extensions>
      </trkpt>
      <trkpt lat="45.31707038171589374542236328125" lon="-70.89710212312638759613037109375">
        <ele>608.4000244140625</ele>
        <time>2026-08-21T16:25:48.000Z</time>
        <extensions>
          <ns3:TrackPointExtension>
            <ns3:hr>126</ns3:hr>
            <ns3:cad>56</ns3:cad>
          </ns3:TrackPointExtension>
        </extensions>
      </trkpt>
      <trkpt lat="45.31708379276096820831298828125" lon="-70.8970968425273895263671875">
        <ele>608.4000244140625</ele>
        <time>2026-08-21T16:25:49.000Z</time>
        <extensions>
          <ns3:TrackPointExtension>
            <ns3:hr>126</ns3:hr>
            <ns3:cad>57</ns3:cad>
          </ns3:TrackPointExtension>
        </extensions>
      </trkpt>
      <trkpt lat="45.3170932643115520477294921875" lon="-70.8970913104712963104248046875">
        <ele>608.4000244140625</ele>
        <time>2026-08-21T16:25:50.000Z</time>
        <extensions>
          <ns3:TrackPointExtension>
            <ns3:hr>127</ns3:hr>
            <ns3:cad>57</ns3:cad>
          </ns3:TrackPointExtension>
        </extensions>
      </trkpt>
      <trkpt lat="45.31710491515696048736572265625" lon="-70.89708334766328334808349609375">
        <ele>608.20001220703125</ele>
        <time>2026-08-21T16:25:51.000Z</time>
        <extensions>
          <ns3:TrackPointExtension>
            <ns3:hr>127</ns3:hr>
            <ns3:cad>57</ns3:cad>
          </ns3:TrackPointExtension>
        </extensions>
      </trkpt>
      <trkpt lat="45.3171153925359249114990234375" lon="-70.89707261882722377777099609375">
        <ele>608.20001220703125</ele>
        <time>2026-08-21T16:25:52.000Z</time>
        <extensions>
          <ns3:TrackPointExtension>
            <ns3:hr>126</ns3:hr>
            <ns3:cad>54</ns3:cad>
          </ns3:TrackPointExtension>
        </extensions>
      </trkpt>
      <trkpt lat="45.3171284683048725128173828125" lon="-70.89706775732338428497314453125">
        <ele>608.20001220703125</ele>
        <time>2026-08-21T16:25:53.000Z</time>
        <extensions>
          <ns3:TrackPointExtension>
            <ns3:hr>126</ns3:hr>
            <ns3:cad>54</ns3:cad>
          </ns3:TrackPointExtension>
        </extensions>
      </trkpt>
      <trkpt lat="45.317146740853786468505859375" lon="-70.897057615220546722412109375">
        <ele>608.4000244140625</ele>
        <time>2026-08-21T16:25:54.000Z</time>
        <extensions>
          <ns3:TrackPointExtension>
            <ns3:hr>126</ns3:hr>
            <ns3:cad>54</ns3:cad>
          </ns3:TrackPointExtension>
        </extensions>
      </trkpt>
      <trkpt lat="45.317160822451114654541015625" lon="-70.89704898186028003692626953125">
        <ele>608.4000244140625</ele>
        <time>2026-08-21T16:25:55.000Z</time>
        <extensions>
          <ns3:TrackPointExtension>
            <ns3:hr>126</ns3:hr>
            <ns3:cad>68</ns3:cad>
          </ns3:TrackPointExtension>
        </extensions>
      </trkpt>
      <trkpt lat="45.31717054545879364013671875" lon="-70.89703791774809360504150390625">
        <ele>608.4000244140625</ele>
        <time>2026-08-21T16:25:56.000Z</time>
        <extensions>
          <ns3:TrackPointExtension>
            <ns3:hr>126</ns3:hr>
            <ns3:cad>68</ns3:cad>
          </ns3:TrackPointExtension>
        </extensions>
      </trkpt>
      <trkpt lat="45.317184627056121826171875" lon="-70.8970292843878269195556640625">
        <ele>608.4000244140625</ele>
        <time>2026-08-21T16:25:57.000Z</time>
        <extensions>
          <ns3:TrackPointExtension>
            <ns3:hr>127</ns3:hr>
            <ns3:cad>56</ns3:cad>
          </ns3:TrackPointExtension>
        </extensions>
      </trkpt>
      <trkpt lat="45.31719200313091278076171875" lon="-70.8970190584659576416015625">
        <ele>608.4000244140625</ele>
        <time>2026-08-21T16:25:58.000Z</time>
        <extensions>
          <ns3:TrackPointExtension>
            <ns3:hr>126</ns3:hr>
            <ns3:cad>56</ns3:cad>
          </ns3:TrackPointExtension>
        </extensions>
      </trkpt>
      <trkpt lat="45.31719711609184741973876953125" lon="-70.89700422249734401702880859375">
        <ele>608.4000244140625</ele>
        <time>2026-08-21T16:25:59.000Z</time>
        <extensions>
          <ns3:TrackPointExtension>
            <ns3:hr>126</ns3:hr>
            <ns3:cad>0</ns3:cad>
          </ns3:TrackPointExtension>
        </extensions>
      </trkpt>
      <trkpt lat="45.31720616854727268218994140625" lon="-70.8969860337674617767333984375">
        <ele>608.4000244140625</ele>
        <time>2026-08-21T16:26:00.000Z</time>
        <extensions>
          <ns3:TrackPointExtension>
            <ns3:hr>126</ns3:hr>
            <ns3:cad>0</ns3:cad>
          </ns3:TrackPointExtension>
        </extensions>
      </trkpt>
      <trkpt lat="45.31721874140202999114990234375" lon="-70.89696533046662807464599609375">
        <ele>608.4000244140625</ele>
        <time>2026-08-21T16:26:01.000Z</time>
        <extensions>
          <ns3:TrackPointExtension>
            <ns3:hr>126</ns3:hr>
            <ns3:cad>0</ns3:cad>
          </ns3:TrackPointExtension>
        </extensions>
      </trkpt>
      <trkpt lat="45.3172300569713115692138671875" lon="-70.89694865047931671142578125">
        <ele>608.4000244140625</ele>
        <time>2026-08-21T16:26:02.000Z</time>
        <extensions>
          <ns3:TrackPointExtension>
            <ns3:hr>125</ns3:hr>
            <ns3:cad>55</ns3:cad>
          </ns3:TrackPointExtension>
        </extensions>
      </trkpt>
      <trkpt lat="45.31723558902740478515625" lon="-70.89693431742489337921142578125">
        <ele>608.4000244140625</ele>
        <time>2026-08-21T16:26:03.000Z</time>
        <extensions>
          <ns3:TrackPointExtension>
            <ns3:hr>125</ns3:hr>
            <ns3:cad>55</ns3:cad>
          </ns3:TrackPointExtension>
        </extensions>
      </trkpt>
      <trkpt lat="45.31724338419735431671142578125" lon="-70.89692895300686359405517578125">
        <ele>608.4000244140625</ele>
        <time>2026-08-21T16:26:04.000Z</time>
        <extensions>
          <ns3:TrackPointExtension>
            <ns3:hr>125</ns3:hr>
            <ns3:cad>54</ns3:cad>
          </ns3:TrackPointExtension>
        </extensions>
      </trkpt>
      <trkpt lat="45.3172555379569530487060546875" lon="-70.8969278633594512939453125">
        <ele>608.4000244140625</ele>
        <time>2026-08-21T16:26:05.000Z</time>
        <extensions>
          <ns3:TrackPointExtension>
            <ns3:hr>125</ns3:hr>
            <ns3:cad>54</ns3:cad>
          </ns3:TrackPointExtension>
        </extensions>
      </trkpt>
      <trkpt lat="45.317265428602695465087890625" lon="-70.89692392386496067047119140625">
        <ele>608.4000244140625</ele>
        <time>2026-08-21T16:26:06.000Z</time>
        <extensions>
          <ns3:TrackPointExtension>
            <ns3:hr>126</ns3:hr>
            <ns3:cad>56</ns3:cad>
          </ns3:TrackPointExtension>
        </extensions>
      </trkpt>
      <trkpt lat="45.31727322377264499664306640625" lon="-70.89692140929400920867919921875">
        <ele>608.4000244140625</ele>
        <time>2026-08-21T16:26:07.000Z</time>
        <extensions>
          <ns3:TrackPointExtension>
            <ns3:hr>126</ns3:hr>
            <ns3:cad>56</ns3:cad>
          </ns3:TrackPointExtension>
        </extensions>
      </trkpt>
      <trkpt lat="45.31728344969451427459716796875" lon="-70.89691755361855030059814453125">
        <ele>608.4000244140625</ele>
        <time>2026-08-21T16:26:08.000Z</time>
        <extensions>
          <ns3:TrackPointExtension>
            <ns3:hr>127</ns3:hr>
            <ns3:cad>56</ns3:cad>
          </ns3:TrackPointExtension>
        </extensions>
      </trkpt>
      <trkpt lat="45.31729652546346187591552734375" lon="-70.8969146199524402618408203125">
        <ele>608.4000244140625</ele>
        <time>2026-08-21T16:26:09.000Z</time>
        <extensions>
          <ns3:TrackPointExtension>
            <ns3:hr>129</ns3:hr>
            <ns3:cad>56</ns3:cad>
          </ns3:TrackPointExtension>
        </extensions>
      </trkpt>
      <trkpt lat="45.317308008670806884765625" lon="-70.896914117038249969482421875">
        <ele>608.4000244140625</ele>
        <time>2026-08-21T16:26:10.000Z</time>
        <extensions>
          <ns3:TrackPointExtension>
            <ns3:hr>130</ns3:hr>
            <ns3:cad>56</ns3:cad>
          </ns3:TrackPointExtension>
        </extensions>
      </trkpt>
      <trkpt lat="45.3173200786113739013671875" lon="-70.89691269211471080780029296875">
        <ele>608.20001220703125</ele>
        <time>2026-08-21T16:26:11.000Z</time>
        <extensions>
          <ns3:TrackPointExtension>
            <ns3:hr>129</ns3:hr>
            <ns3:cad>55</ns3:cad>
          </ns3:TrackPointExtension>
        </extensions>
      </trkpt>
      <trkpt lat="45.317334830760955810546875" lon="-70.8969079144299030303955078125">
        <ele>608.20001220703125</ele>
        <time>2026-08-21T16:26:12.000Z</time>
        <extensions>
          <ns3:TrackPointExtension>
            <ns3:hr>130</ns3:hr>
            <ns3:cad>55</ns3:cad>
          </ns3:TrackPointExtension>
        </extensions>
      </trkpt>
      <trkpt lat="45.31734681688249111175537109375" lon="-70.89690648950636386871337890625">
        <ele>608.20001220703125</ele>
        <time>2026-08-21T16:26:13.000Z</time>
        <extensions>
          <ns3:TrackPointExtension>
            <ns3:hr>130</ns3:hr>
            <ns3:cad>55</ns3:cad>
          </ns3:TrackPointExtension>
        </extensions>
      </trkpt>
      <trkpt lat="45.31735905446112155914306640625" lon="-70.89690431021153926849365234375">
        <ele>608.20001220703125</ele>
        <time>2026-08-21T16:26:14.000Z</time>
        <extensions>
          <ns3:TrackPointExtension>
            <ns3:hr>129</ns3:hr>
            <ns3:cad>55</ns3:cad>
          </ns3:TrackPointExtension>
        </extensions>
      </trkpt>
      <trkpt lat="45.3173695318400859832763671875" lon="-70.896903388202190399169921875">
        <ele>608</ele>
        <time>2026-08-21T16:26:15.000Z</time>
        <extensions>
          <ns3:TrackPointExtension>
            <ns3:hr>128</ns3:hr>
            <ns3:cad>55</ns3:cad>
          </ns3:TrackPointExtension>
        </extensions>
      </trkpt>
      <trkpt lat="45.31737950630486011505126953125" lon="-70.89690129272639751434326171875">
        <ele>608</ele>
        <time>2026-08-21T16:26:16.000Z</time>
        <extensions>
          <ns3:TrackPointExtension>
            <ns3:hr>128</ns3:hr>
            <ns3:cad>55</ns3:cad>
          </ns3:TrackPointExtension>
        </extensions>
      </trkpt>
      <trkpt lat="45.31738939695060253143310546875" lon="-70.89690179564058780670166015625">
        <ele>608</ele>
        <time>2026-08-21T16:26:17.000Z</time>
        <extensions>
          <ns3:TrackPointExtension>
            <ns3:hr>127</ns3:hr>
            <ns3:cad>55</ns3:cad>
          </ns3:TrackPointExtension>
        </extensions>
      </trkpt>
      <trkpt lat="45.31739911995828151702880859375" lon="-70.89689944870769977569580078125">
        <ele>608</ele>
        <time>2026-08-21T16:26:18.000Z</time>
        <extensions>
          <ns3:TrackPointExtension>
            <ns3:hr>127</ns3:hr>
            <ns3:cad>55</ns3:cad>
          </ns3:TrackPointExtension>
        </extensions>
      </trkpt>
      <trkpt lat="45.31740666367113590240478515625" lon="-70.8969010412693023681640625">
        <ele>608</ele>
        <time>2026-08-21T16:26:19.000Z</time>
        <extensions>
          <ns3:TrackPointExtension>
            <ns3:hr>127</ns3:hr>
            <ns3:cad>0</ns3:cad>
          </ns3:TrackPointExtension>
        </extensions>
      </trkpt>
      <trkpt lat="45.317418985068798065185546875" lon="-70.89690573513507843017578125">
        <ele>607.79998779296875</ele>
        <time>2026-08-21T16:26:20.000Z</time>
        <extensions>
          <ns3:TrackPointExtension>
            <ns3:hr>127</ns3:hr>
            <ns3:cad>0</ns3:cad>
          </ns3:TrackPointExtension>
        </extensions>
      </trkpt>
      <trkpt lat="45.31742912717163562774658203125" lon="-70.896906070411205291748046875">
        <ele>607.79998779296875</ele>
        <time>2026-08-21T16:26:21.000Z</time>
        <extensions>
          <ns3:TrackPointExtension>
            <ns3:hr>126</ns3:hr>
            <ns3:cad>57</ns3:cad>
          </ns3:TrackPointExtension>
        </extensions>
      </trkpt>
      <trkpt lat="45.31743382103741168975830078125" lon="-70.8969002030789852142333984375">
        <ele>607.79998779296875</ele>
        <time>2026-08-21T16:26:22.000Z</time>
        <extensions>
          <ns3:TrackPointExtension>
            <ns3:hr>126</ns3:hr>
            <ns3:cad>57</ns3:cad>
          </ns3:TrackPointExtension>
        </extensions>
      </trkpt>
      <trkpt lat="45.31743784435093402862548828125" lon="-70.89689374901354312896728515625">
        <ele>607.79998779296875</ele>
        <time>2026-08-21T16:26:23.000Z</time>
        <extensions>
          <ns3:TrackPointExtension>
            <ns3:hr>126</ns3:hr>
            <ns3:cad>57</ns3:cad>
          </ns3:TrackPointExtension>
        </extensions>
      </trkpt>
      <trkpt lat="45.3174486570060253143310546875" lon="-70.89689106680452823638916015625">
        <ele>607.5999755859375</ele>
        <time>2026-08-21T16:26:24.000Z</time>
        <extensions>
          <ns3:TrackPointExtension>
            <ns3:hr>126</ns3:hr>
            <ns3:cad>57</ns3:cad>
          </ns3:TrackPointExtension>
        </extensions>
      </trkpt>
      <trkpt lat="45.3174577094614505767822265625" lon="-70.8968874625861644744873046875">
        <ele>607.5999755859375</ele>
        <time>2026-08-21T16:26:25.000Z</time>
        <extensions>
          <ns3:TrackPointExtension>
            <ns3:hr>126</ns3:hr>
            <ns3:cad>57</ns3:cad>
          </ns3:TrackPointExtension>
        </extensions>
      </trkpt>
      <trkpt lat="45.31746701337397098541259765625" lon="-70.8968867920339107513427734375">
        <ele>607.5999755859375</ele>
        <time>2026-08-21T16:26:26.000Z</time>
        <extensions>
          <ns3:TrackPointExtension>
            <ns3:hr>125</ns3:hr>
            <ns3:cad>0</ns3:cad>
          </ns3:TrackPointExtension>
        </extensions>
      </trkpt>
      <trkpt lat="45.31747765839099884033203125" lon="-70.89688159525394439697265625">
        <ele>607.5999755859375</ele>
        <time>2026-08-21T16:26:27.000Z</time>
        <extensions>
          <ns3:TrackPointExtension>
            <ns3:hr>125</ns3:hr>
            <ns3:cad>0</ns3:cad>
          </ns3:TrackPointExtension>
        </extensions>
      </trkpt>
      <trkpt lat="45.3174852021038532257080078125" lon="-70.896873213350772857666015625">
        <ele>607.5999755859375</ele>
        <time>2026-08-21T16:26:28.000Z</time>
        <extensions>
          <ns3:TrackPointExtension>
            <ns3:hr>125</ns3:hr>
            <ns3:cad>0</ns3:cad>
          </ns3:TrackPointExtension>
        </extensions>
      </trkpt>
      <trkpt lat="45.3174966014921665191650390625" lon="-70.89686072431504726409912109375">
        <ele>607.5999755859375</ele>
        <time>2026-08-21T16:26:29.000Z</time>
        <extensions>
          <ns3:TrackPointExtension>
            <ns3:hr>125</ns3:hr>
            <ns3:cad>0</ns3:cad>
          </ns3:TrackPointExtension>
        </extensions>
      </trkpt>
      <trkpt lat="45.31750523485243320465087890625" lon="-70.8968509174883365631103515625">
        <ele>607.5999755859375</ele>
        <time>2026-08-21T16:26:30.000Z</time>
        <extensions>
          <ns3:TrackPointExtension>
            <ns3:hr>125</ns3:hr>
            <ns3:cad>0</ns3:cad>
          </ns3:TrackPointExtension>
        </extensions>
      </trkpt>
      <trkpt lat="45.31751244328916072845458984375" lon="-70.89684161357581615447998046875">
        <ele>607.5999755859375</ele>
        <time>2026-08-21T16:26:31.000Z</time>
        <extensions>
          <ns3:TrackPointExtension>
            <ns3:hr>124</ns3:hr>
            <ns3:cad>0</ns3:cad>
          </ns3:TrackPointExtension>
        </extensions>
      </trkpt>
      <trkpt lat="45.31752116046845912933349609375" lon="-70.89683356694877147674560546875">
        <ele>607.5999755859375</ele>
        <time>2026-08-21T16:26:32.000Z</time>
        <extensions>
          <ns3:TrackPointExtension>
            <ns3:hr>124</ns3:hr>
            <ns3:cad>0</ns3:cad>
          </ns3:TrackPointExtension>
        </extensions>
      </trkpt>
      <trkpt lat="45.31752769835293292999267578125" lon="-70.8968331478536128997802734375">
        <ele>607.5999755859375</ele>
        <time>2026-08-21T16:26:33.000Z</time>
        <extensions>
          <ns3:TrackPointExtension>
            <ns3:hr>123</ns3:hr>
            <ns3:cad>0</ns3:cad>
          </ns3:TrackPointExtension>
        </extensions>
      </trkpt>
      <trkpt lat="45.3175346553325653076171875" lon="-70.8968365006148815155029296875">
        <ele>607.4000244140625</ele>
        <time>2026-08-21T16:26:34.000Z</time>
        <extensions>
          <ns3:TrackPointExtension>
            <ns3:hr>123</ns3:hr>
            <ns3:cad>0</ns3:cad>
          </ns3:TrackPointExtension>
        </extensions>
      </trkpt>
      <trkpt lat="45.3175411932170391082763671875" lon="-70.89683859609067440032958984375">
        <ele>607.4000244140625</ele>
        <time>2026-08-21T16:26:35.000Z</time>
        <extensions>
          <ns3:TrackPointExtension>
            <ns3:hr>122</ns3:hr>
            <ns3:cad>0</ns3:cad>
          </ns3:TrackPointExtension>
        </extensions>
      </trkpt>
      <trkpt lat="45.31755116768181324005126953125" lon="-70.8968405239284038543701171875">
        <ele>607.4000244140625</ele>
        <time>2026-08-21T16:26:36.000Z</time>
        <extensions>
          <ns3:TrackPointExtension>
            <ns3:hr>121</ns3:hr>
            <ns3:cad>0</ns3:cad>
          </ns3:TrackPointExtension>
        </extensions>
      </trkpt>
      <trkpt lat="45.3175589628517627716064453125" lon="-70.8968391828238964080810546875">
        <ele>607.4000244140625</ele>
        <time>2026-08-21T16:26:37.000Z</time>
        <extensions>
          <ns3:TrackPointExtension>
            <ns3:hr>121</ns3:hr>
            <ns3:cad>0</ns3:cad>
          </ns3:TrackPointExtension>
        </extensions>
      </trkpt>
      <trkpt lat="45.31756692565977573394775390625" lon="-70.89683172293007373809814453125">
        <ele>607.4000244140625</ele>
        <time>2026-08-21T16:26:38.000Z</time>
        <extensions>
          <ns3:TrackPointExtension>
            <ns3:hr>120</ns3:hr>
            <ns3:cad>0</ns3:cad>
          </ns3:TrackPointExtension>
        </extensions>
      </trkpt>
      <trkpt lat="45.31757765449583530426025390625" lon="-70.896827615797519683837890625">
        <ele>607.20001220703125</ele>
        <time>2026-08-21T16:26:39.000Z</time>
        <extensions>
          <ns3:TrackPointExtension>
            <ns3:hr>120</ns3:hr>
            <ns3:cad>0</ns3:cad>
          </ns3:TrackPointExtension>
        </extensions>
      </trkpt>
      <trkpt lat="45.3175888024270534515380859375" lon="-70.89682887308299541473388671875">
        <ele>607.20001220703125</ele>
        <time>2026-08-21T16:26:40.000Z</time>
        <extensions>
          <ns3:TrackPointExtension>
            <ns3:hr>120</ns3:hr>
            <ns3:cad>0</ns3:cad>
          </ns3:TrackPointExtension>
        </extensions>
      </trkpt>
      <trkpt lat="45.31760296784341335296630859375" lon="-70.89683339931070804595947265625">
        <ele>607.20001220703125</ele>
        <time>2026-08-21T16:26:41.000Z</time>
        <extensions>
          <ns3:TrackPointExtension>
            <ns3:hr>120</ns3:hr>
            <ns3:cad>0</ns3:cad>
          </ns3:TrackPointExtension>
        </extensions>
      </trkpt>
      <trkpt lat="45.31761034391820430755615234375" lon="-70.89683406986296176910400390625">
        <ele>607</ele>
        <time>2026-08-21T16:26:42.000Z</time>
        <extensions>
          <ns3:TrackPointExtension>
            <ns3:hr>121</ns3:hr>
            <ns3:cad>0</ns3:cad>
          </ns3:TrackPointExtension>
        </extensions>
      </trkpt>
      <trkpt lat="45.3176213242113590240478515625" lon="-70.89683457277715206146240234375">
        <ele>607</ele>
        <time>2026-08-21T16:26:43.000Z</time>
        <extensions>
          <ns3:TrackPointExtension>
            <ns3:hr>120</ns3:hr>
            <ns3:cad>50</ns3:cad>
          </ns3:TrackPointExtension>
        </extensions>
      </trkpt>
      <trkpt lat="45.31762995757162570953369140625" lon="-70.89683809317648410797119140625">
        <ele>607</ele>
        <time>2026-08-21T16:26:44.000Z</time>
        <extensions>
          <ns3:TrackPointExtension>
            <ns3:hr>120</ns3:hr>
            <ns3:cad>50</ns3:cad>
          </ns3:TrackPointExtension>
        </extensions>
      </trkpt>
      <trkpt lat="45.3176484815776348114013671875" lon="-70.8968420326709747314453125">
        <ele>607</ele>
        <time>2026-08-21T16:26:45.000Z</time>
        <extensions>
          <ns3:TrackPointExtension>
            <ns3:hr>119</ns3:hr>
            <ns3:cad>50</ns3:cad>
          </ns3:TrackPointExtension>
        </extensions>
      </trkpt>
      <trkpt lat="45.3176608867943286895751953125" lon="-70.89684362523257732391357421875">
        <ele>606.79998779296875</ele>
        <time>2026-08-21T16:26:46.000Z</time>
        <extensions>
          <ns3:TrackPointExtension>
            <ns3:hr>119</ns3:hr>
            <ns3:cad>50</ns3:cad>
          </ns3:TrackPointExtension>
        </extensions>
      </trkpt>
      <trkpt lat="45.31767471693456172943115234375" lon="-70.8968438766896724700927734375">
        <ele>606.79998779296875</ele>
        <time>2026-08-21T16:26:47.000Z</time>
        <extensions>
          <ns3:TrackPointExtension>
            <ns3:hr>120</ns3:hr>
            <ns3:cad>50</ns3:cad>
          </ns3:TrackPointExtension>
        </extensions>
      </trkpt>
      <trkpt lat="45.31768913380801677703857421875" lon="-70.8968393504619598388671875">
        <ele>606.5999755859375</ele>
        <time>2026-08-21T16:26:48.000Z</time>
        <extensions>
          <ns3:TrackPointExtension>
            <ns3:hr>120</ns3:hr>
            <ns3:cad>53</ns3:cad>
          </ns3:TrackPointExtension>
        </extensions>
      </trkpt>
      <trkpt lat="45.3177044726908206939697265625" lon="-70.89683809317648410797119140625">
        <ele>606.5999755859375</ele>
        <time>2026-08-21T16:26:49.000Z</time>
        <extensions>
          <ns3:TrackPointExtension>
            <ns3:hr>120</ns3:hr>
            <ns3:cad>53</ns3:cad>
          </ns3:TrackPointExtension>
        </extensions>
      </trkpt>
      <trkpt lat="45.3177152015268802642822265625" lon="-70.8968375064432621002197265625">
        <ele>606.5999755859375</ele>
        <time>2026-08-21T16:26:50.000Z</time>
        <extensions>
          <ns3:TrackPointExtension>
            <ns3:hr>119</ns3:hr>
            <ns3:cad>57</ns3:cad>
          </ns3:TrackPointExtension>
        </extensions>
      </trkpt>
      <trkpt lat="45.31772785820066928863525390625" lon="-70.8968385122716426849365234375">
        <ele>606.5999755859375</ele>
        <time>2026-08-21T16:26:51.000Z</time>
        <extensions>
          <ns3:TrackPointExtension>
            <ns3:hr>119</ns3:hr>
            <ns3:cad>58</ns3:cad>
          </ns3:TrackPointExtension>
        </extensions>
      </trkpt>
      <trkpt lat="45.3177423588931560516357421875" lon="-70.8968381769955158233642578125">
        <ele>606.4000244140625</ele>
        <time>2026-08-21T16:26:52.000Z</time>
        <extensions>
          <ns3:TrackPointExtension>
            <ns3:hr>119</ns3:hr>
            <ns3:cad>58</ns3:cad>
          </ns3:TrackPointExtension>
        </extensions>
      </trkpt>
      <trkpt lat="45.31775753013789653778076171875" lon="-70.89683876372873783111572265625">
        <ele>606.4000244140625</ele>
        <time>2026-08-21T16:26:53.000Z</time>
        <extensions>
          <ns3:TrackPointExtension>
            <ns3:hr>118</ns3:hr>
            <ns3:cad>57</ns3:cad>
          </ns3:TrackPointExtension>
        </extensions>
      </trkpt>
      <trkpt lat="45.31777412630617618560791015625" lon="-70.89684228412806987762451171875">
        <ele>606.4000244140625</ele>
        <time>2026-08-21T16:26:54.000Z</time>
        <extensions>
          <ns3:TrackPointExtension>
            <ns3:hr>118</ns3:hr>
            <ns3:cad>57</ns3:cad>
          </ns3:TrackPointExtension>
        </extensions>
      </trkpt>
      <trkpt lat="45.31778552569448947906494140625" lon="-70.8968411944806575775146484375">
        <ele>606.4000244140625</ele>
        <time>2026-08-21T16:26:55.000Z</time>
        <extensions>
          <ns3:TrackPointExtension>
            <ns3:hr>118</ns3:hr>
            <ns3:cad>57</ns3:cad>
          </ns3:TrackPointExtension>
        </extensions>
      </trkpt>
      <trkpt lat="45.3178006969392299652099609375" lon="-70.89683960191905498504638671875">
        <ele>606.4000244140625</ele>
        <time>2026-08-21T16:26:56.000Z</time>
        <extensions>
          <ns3:TrackPointExtension>
            <ns3:hr>117</ns3:hr>
            <ns3:cad>57</ns3:cad>
          </ns3:TrackPointExtension>
        </extensions>
      </trkpt>
      <trkpt lat="45.3178151138126850128173828125" lon="-70.89684010483324527740478515625">
        <ele>606.4000244140625</ele>
        <time>2026-08-21T16:26:57.000Z</time>
        <extensions>
          <ns3:TrackPointExtension>
            <ns3:hr>117</ns3:hr>
            <ns3:cad>57</ns3:cad>
          </ns3:TrackPointExtension>
        </extensions>
      </trkpt>
      <trkpt lat="45.3178305365145206451416015625" lon="-70.89684764854609966278076171875">
        <ele>606.4000244140625</ele>
        <time>2026-08-21T16:26:58.000Z</time>
        <extensions>
          <ns3:TrackPointExtension>
            <ns3:hr>117</ns3:hr>
            <ns3:cad>57</ns3:cad>
          </ns3:TrackPointExtension>
        </extensions>
      </trkpt>
      <trkpt lat="45.317843444645404815673828125" lon="-70.89685737155377864837646484375">
        <ele>606.20001220703125</ele>
        <time>2026-08-21T16:26:59.000Z</time>
        <extensions>
          <ns3:TrackPointExtension>
            <ns3:hr>116</ns3:hr>
            <ns3:cad>57</ns3:cad>
          </ns3:TrackPointExtension>
        </extensions>
      </trkpt>
      <trkpt lat="45.31786347739398479461669921875" lon="-70.89686189778149127960205078125">
        <ele>606.20001220703125</ele>
        <time>2026-08-21T16:27:00.000Z</time>
        <extensions>
          <ns3:TrackPointExtension>
            <ns3:hr>116</ns3:hr>
            <ns3:cad>57</ns3:cad>
          </ns3:TrackPointExtension>
        </extensions>
      </trkpt>
      <trkpt lat="45.31788225285708904266357421875" lon="-70.89686508290469646453857421875">
        <ele>606</ele>
        <time>2026-08-21T16:27:01.000Z</time>
        <extensions>
          <ns3:TrackPointExtension>
            <ns3:hr>116</ns3:hr>
            <ns3:cad>57</ns3:cad>
          </ns3:TrackPointExtension>
        </extensions>
      </trkpt>
      <trkpt lat="45.31790303997695446014404296875" lon="-70.89686323888599872589111328125">
        <ele>605.79998779296875</ele>
        <time>2026-08-21T16:27:02.000Z</time>
        <extensions>
          <ns3:TrackPointExtension>
            <ns3:hr>116</ns3:hr>
            <ns3:cad>57</ns3:cad>
          </ns3:TrackPointExtension>
        </extensions>
      </trkpt>
      <trkpt lat="45.317919552326202392578125" lon="-70.89686390943825244903564453125">
        <ele>605.5999755859375</ele>
        <time>2026-08-21T16:27:03.000Z</time>
        <extensions>
          <ns3:TrackPointExtension>
            <ns3:hr>116</ns3:hr>
            <ns3:cad>57</ns3:cad>
          </ns3:TrackPointExtension>
        </extensions>
      </trkpt>
      <trkpt lat="45.31793229281902313232421875" lon="-70.8968690223991870880126953125">
        <ele>605.5999755859375</ele>
        <time>2026-08-21T16:27:04.000Z</time>
        <extensions>
          <ns3:TrackPointExtension>
            <ns3:hr>116</ns3:hr>
            <ns3:cad>57</ns3:cad>
          </ns3:TrackPointExtension>
        </extensions>
      </trkpt>
      <trkpt lat="45.3179490566253662109375" lon="-70.8968777395784854888916015625">
        <ele>605.4000244140625</ele>
        <time>2026-08-21T16:27:05.000Z</time>
        <extensions>
          <ns3:TrackPointExtension>
            <ns3:hr>115</ns3:hr>
            <ns3:cad>57</ns3:cad>
          </ns3:TrackPointExtension>
        </extensions>
      </trkpt>
      <trkpt lat="45.31796288676559925079345703125" lon="-70.89688318781554698944091796875">
        <ele>605.4000244140625</ele>
        <time>2026-08-21T16:27:06.000Z</time>
        <extensions>
          <ns3:TrackPointExtension>
            <ns3:hr>116</ns3:hr>
            <ns3:cad>57</ns3:cad>
          </ns3:TrackPointExtension>
        </extensions>
      </trkpt>
      <trkpt lat="45.31798082403838634490966796875" lon="-70.89688830077648162841796875">
        <ele>605.4000244140625</ele>
        <time>2026-08-21T16:27:07.000Z</time>
        <extensions>
          <ns3:TrackPointExtension>
            <ns3:hr>116</ns3:hr>
            <ns3:cad>57</ns3:cad>
          </ns3:TrackPointExtension>
        </extensions>
      </trkpt>
      <trkpt lat="45.3180025331676006317138671875" lon="-70.89689827524125576019287109375">
        <ele>605.20001220703125</ele>
        <time>2026-08-21T16:27:08.000Z</time>
        <extensions>
          <ns3:TrackPointExtension>
            <ns3:hr>115</ns3:hr>
            <ns3:cad>57</ns3:cad>
          </ns3:TrackPointExtension>
        </extensions>
      </trkpt>
      <trkpt lat="45.3180209733545780181884765625" lon="-70.8968998678028583526611328125">
        <ele>605.20001220703125</ele>
        <time>2026-08-21T16:27:09.000Z</time>
        <extensions>
          <ns3:TrackPointExtension>
            <ns3:hr>116</ns3:hr>
            <ns3:cad>57</ns3:cad>
          </ns3:TrackPointExtension>
        </extensions>
      </trkpt>
      <trkpt lat="45.318041257560253143310546875" lon="-70.8968921564519405364990234375">
        <ele>605</ele>
        <time>2026-08-21T16:27:10.000Z</time>
        <extensions>
          <ns3:TrackPointExtension>
            <ns3:hr>117</ns3:hr>
            <ns3:cad>57</ns3:cad>
          </ns3:TrackPointExtension>
        </extensions>
      </trkpt>
      <trkpt lat="45.31805299222469329833984375" lon="-70.89687623083591461181640625">
        <ele>605</ele>
        <time>2026-08-21T16:27:11.000Z</time>
        <extensions>
          <ns3:TrackPointExtension>
            <ns3:hr>117</ns3:hr>
            <ns3:cad>57</ns3:cad>
          </ns3:TrackPointExtension>
        </extensions>
      </trkpt>
      <trkpt lat="45.31806615181267261505126953125" lon="-70.89685854502022266387939453125">
        <ele>604.79998779296875</ele>
        <time>2026-08-21T16:27:12.000Z</time>
        <extensions>
          <ns3:TrackPointExtension>
            <ns3:hr>117</ns3:hr>
            <ns3:cad>0</ns3:cad>
          </ns3:TrackPointExtension>
        </extensions>
      </trkpt>
      <trkpt lat="45.31807486899197101593017578125" lon="-70.8968447148799896240234375">
        <ele>604.5999755859375</ele>
        <time>2026-08-21T16:27:13.000Z</time>
        <extensions>
          <ns3:TrackPointExtension>
            <ns3:hr>118</ns3:hr>
            <ns3:cad>0</ns3:cad>
          </ns3:TrackPointExtension>
        </extensions>
      </trkpt>
      <trkpt lat="45.3180816583335399627685546875" lon="-70.89683725498616695404052734375">
        <ele>604.5999755859375</ele>
        <time>2026-08-21T16:27:14.000Z</time>
        <extensions>
          <ns3:TrackPointExtension>
            <ns3:hr>118</ns3:hr>
            <ns3:cad>0</ns3:cad>
          </ns3:TrackPointExtension>
        </extensions>
      </trkpt>
      <trkpt lat="45.31808978877961635589599609375" lon="-70.89683608151972293853759765625">
        <ele>604.5999755859375</ele>
        <time>2026-08-21T16:27:15.000Z</time>
        <extensions>
          <ns3:TrackPointExtension>
            <ns3:hr>117</ns3:hr>
            <ns3:cad>73</ns3:cad>
          </ns3:TrackPointExtension>
        </extensions>
      </trkpt>
      <trkpt lat="45.31810504384338855743408203125" lon="-70.89684882201254367828369140625">
        <ele>604.5999755859375</ele>
        <time>2026-08-21T16:27:16.000Z</time>
        <extensions>
          <ns3:TrackPointExtension>
            <ns3:hr>118</ns3:hr>
            <ns3:cad>73</ns3:cad>
          </ns3:TrackPointExtension>
        </extensions>
      </trkpt>
      <trkpt lat="45.3181140124797821044921875" lon="-70.8968623168766498565673828125">
        <ele>604.5999755859375</ele>
        <time>2026-08-21T16:27:17.000Z</time>
        <extensions>
          <ns3:TrackPointExtension>
            <ns3:hr>118</ns3:hr>
            <ns3:cad>73</ns3:cad>
          </ns3:TrackPointExtension>
        </extensions>
      </trkpt>
      <trkpt lat="45.31812901608645915985107421875" lon="-70.89688452892005443572998046875">
        <ele>604.5999755859375</ele>
        <time>2026-08-21T16:27:18.000Z</time>
        <extensions>
          <ns3:TrackPointExtension>
            <ns3:hr>117</ns3:hr>
            <ns3:cad>73</ns3:cad>
          </ns3:TrackPointExtension>
        </extensions>
      </trkpt>
      <trkpt lat="45.31814259476959705352783203125" lon="-70.896894671022891998291015625">
        <ele>604.4000244140625</ele>
        <time>2026-08-21T16:27:19.000Z</time>
        <extensions>
          <ns3:TrackPointExtension>
            <ns3:hr>117</ns3:hr>
            <ns3:cad>73</ns3:cad>
          </ns3:TrackPointExtension>
        </extensions>
      </trkpt>
      <trkpt lat="45.31816019676625728607177734375" lon="-70.89690146036446094512939453125">
        <ele>604.4000244140625</ele>
        <time>2026-08-21T16:27:20.000Z</time>
        <extensions>
          <ns3:TrackPointExtension>
            <ns3:hr>117</ns3:hr>
            <ns3:cad>0</ns3:cad>
          </ns3:TrackPointExtension>
        </extensions>
      </trkpt>
      <trkpt lat="45.31817293725907802581787109375" lon="-70.89690229855477809906005859375">
        <ele>604.20001220703125</ele>
        <time>2026-08-21T16:27:21.000Z</time>
        <extensions>
          <ns3:TrackPointExtension>
            <ns3:hr>117</ns3:hr>
            <ns3:cad>0</ns3:cad>
          </ns3:TrackPointExtension>
        </extensions>
      </trkpt>
      <trkpt lat="45.31818668358027935028076171875" lon="-70.896898023784160614013671875">
        <ele>604</ele>
        <time>2026-08-21T16:27:22.000Z</time>
        <extensions>
          <ns3:TrackPointExtension>
            <ns3:hr>117</ns3:hr>
            <ns3:cad>0</ns3:cad>
          </ns3:TrackPointExtension>
        </extensions>
      </trkpt>
      <trkpt lat="45.318200178444385528564453125" lon="-70.8968961797654628753662109375">
        <ele>604</ele>
        <time>2026-08-21T16:27:23.000Z</time>
        <extensions>
          <ns3:TrackPointExtension>
            <ns3:hr>117</ns3:hr>
            <ns3:cad>0</ns3:cad>
          </ns3:TrackPointExtension>
        </extensions>
      </trkpt>
      <trkpt lat="45.31821216456592082977294921875" lon="-70.89689609594643115997314453125">
        <ele>603.79998779296875</ele>
        <time>2026-08-21T16:27:24.000Z</time>
        <extensions>
          <ns3:TrackPointExtension>
            <ns3:hr>118</ns3:hr>
            <ns3:cad>0</ns3:cad>
          </ns3:TrackPointExtension>
        </extensions>
      </trkpt>
      <trkpt lat="45.318224318325519561767578125" lon="-70.8968983590602874755859375">
        <ele>603.79998779296875</ele>
        <time>2026-08-21T16:27:25.000Z</time>
        <extensions>
          <ns3:TrackPointExtension>
            <ns3:hr>118</ns3:hr>
            <ns3:cad>0</ns3:cad>
          </ns3:TrackPointExtension>
        </extensions>
      </trkpt>
      <trkpt lat="45.31824200414121150970458984375" lon="-70.89690347202122211456298828125">
        <ele>603.5999755859375</ele>
        <time>2026-08-21T16:27:26.000Z</time>
        <extensions>
          <ns3:TrackPointExtension>
            <ns3:hr>119</ns3:hr>
            <ns3:cad>0</ns3:cad>
          </ns3:TrackPointExtension>
        </extensions>
      </trkpt>
      <trkpt lat="45.31826061196625232696533203125" lon="-70.89690598659217357635498046875">
        <ele>603.5999755859375</ele>
        <time>2026-08-21T16:27:27.000Z</time>
        <extensions>
          <ns3:TrackPointExtension>
            <ns3:hr>119</ns3:hr>
            <ns3:cad>0</ns3:cad>
          </ns3:TrackPointExtension>
        </extensions>
      </trkpt>
      <trkpt lat="45.3182798065245151519775390625" lon="-70.8969035558402538299560546875">
        <ele>603.4000244140625</ele>
        <time>2026-08-21T16:27:28.000Z</time>
        <extensions>
          <ns3:TrackPointExtension>
            <ns3:hr>119</ns3:hr>
            <ns3:cad>0</ns3:cad>
          </ns3:TrackPointExtension>
        </extensions>
      </trkpt>
      <trkpt lat="45.31829514540731906890869140625" lon="-70.8969025500118732452392578125">
        <ele>603.20001220703125</ele>
        <time>2026-08-21T16:27:29.000Z</time>
        <extensions>
          <ns3:TrackPointExtension>
            <ns3:hr>119</ns3:hr>
            <ns3:cad>0</ns3:cad>
          </ns3:TrackPointExtension>
        </extensions>
      </trkpt>
      <trkpt lat="45.31830520369112491607666015625" lon="-70.89691202156245708465576171875">
        <ele>603</ele>
        <time>2026-08-21T16:27:30.000Z</time>
        <extensions>
          <ns3:TrackPointExtension>
            <ns3:hr>118</ns3:hr>
            <ns3:cad>0</ns3:cad>
          </ns3:TrackPointExtension>
        </extensions>
      </trkpt>
      <trkpt lat="45.318313501775264739990234375" lon="-70.89693658053874969482421875">
        <ele>603</ele>
        <time>2026-08-21T16:27:31.000Z</time>
        <extensions>
          <ns3:TrackPointExtension>
            <ns3:hr>118</ns3:hr>
            <ns3:cad>0</ns3:cad>
          </ns3:TrackPointExtension>
        </extensions>
      </trkpt>
      <trkpt lat="45.31831987202167510986328125" lon="-70.8969504944980144500732421875">
        <ele>602.79998779296875</ele>
        <time>2026-08-21T16:27:32.000Z</time>
        <extensions>
          <ns3:TrackPointExtension>
            <ns3:hr>118</ns3:hr>
            <ns3:cad>68</ns3:cad>
          </ns3:TrackPointExtension>
        </extensions>
      </trkpt>
      <trkpt lat="45.31833286397159099578857421875" lon="-70.89696734212338924407958984375">
        <ele>602.79998779296875</ele>
        <time>2026-08-21T16:27:33.000Z</time>
        <extensions>
          <ns3:TrackPointExtension>
            <ns3:hr>118</ns3:hr>
            <ns3:cad>68</ns3:cad>
          </ns3:TrackPointExtension>
        </extensions>
      </trkpt>
      <trkpt lat="45.31834107823669910430908203125" lon="-70.89698092080652713775634765625">
        <ele>602.79998779296875</ele>
        <time>2026-08-21T16:27:34.000Z</time>
        <extensions>
          <ns3:TrackPointExtension>
            <ns3:hr>117</ns3:hr>
            <ns3:cad>68</ns3:cad>
          </ns3:TrackPointExtension>
        </extensions>
      </trkpt>
      <trkpt lat="45.3183500468730926513671875" lon="-70.8969977684319019317626953125">
        <ele>602.5999755859375</ele>
        <time>2026-08-21T16:27:35.000Z</time>
        <extensions>
          <ns3:TrackPointExtension>
            <ns3:hr>117</ns3:hr>
            <ns3:cad>68</ns3:cad>
          </ns3:TrackPointExtension>
        </extensions>
      </trkpt>
      <trkpt lat="45.3183562494814395904541015625" lon="-70.89701428078114986419677734375">
        <ele>602.4000244140625</ele>
        <time>2026-08-21T16:27:36.000Z</time>
        <extensions>
          <ns3:TrackPointExtension>
            <ns3:hr>117</ns3:hr>
            <ns3:cad>68</ns3:cad>
          </ns3:TrackPointExtension>
        </extensions>
      </trkpt>
      <trkpt lat="45.3183666430413722991943359375" lon="-70.897034816443920135498046875">
        <ele>602.20001220703125</ele>
        <time>2026-08-21T16:27:37.000Z</time>
        <extensions>
          <ns3:TrackPointExtension>
            <ns3:hr>117</ns3:hr>
            <ns3:cad>68</ns3:cad>
          </ns3:TrackPointExtension>
        </extensions>
      </trkpt>
      <trkpt lat="45.318383239209651947021484375" lon="-70.897046886384487152099609375">
        <ele>602</ele>
        <time>2026-08-21T16:27:38.000Z</time>
        <extensions>
          <ns3:TrackPointExtension>
            <ns3:hr>117</ns3:hr>
            <ns3:cad>68</ns3:cad>
          </ns3:TrackPointExtension>
        </extensions>
      </trkpt>
      <trkpt lat="45.31840260140597820281982421875" lon="-70.89705484919250011444091796875">
        <ele>601.79998779296875</ele>
        <time>2026-08-21T16:27:39.000Z</time>
        <extensions>
          <ns3:TrackPointExtension>
            <ns3:hr>117</ns3:hr>
            <ns3:cad>0</ns3:cad>
          </ns3:TrackPointExtension>
        </extensions>
      </trkpt>
      <trkpt lat="45.318420119583606719970703125" lon="-70.8970592916011810302734375">
        <ele>601.5999755859375</ele>
        <time>2026-08-21T16:27:40.000Z</time>
        <extensions>
          <ns3:TrackPointExtension>
            <ns3:hr>116</ns3:hr>
            <ns3:cad>0</ns3:cad>
          </ns3:TrackPointExtension>
        </extensions>
      </trkpt>
      <trkpt lat="45.31843780539929866790771484375" lon="-70.89706524275243282318115234375">
        <ele>601.5999755859375</ele>
        <time>2026-08-21T16:27:41.000Z</time>
        <extensions>
          <ns3:TrackPointExtension>
            <ns3:hr>115</ns3:hr>
            <ns3:cad>0</ns3:cad>
          </ns3:TrackPointExtension>
        </extensions>
      </trkpt>
      <trkpt lat="45.3184598498046398162841796875" lon="-70.8970721997320652008056640625">
        <ele>601.4000244140625</ele>
        <time>2026-08-21T16:27:42.000Z</time>
        <extensions>
          <ns3:TrackPointExtension>
            <ns3:hr>114</ns3:hr>
            <ns3:cad>0</ns3:cad>
          </ns3:TrackPointExtension>
        </extensions>
      </trkpt>
      <trkpt lat="45.31847233884036540985107421875" lon="-70.897071696817874908447265625">
        <ele>601.20001220703125</ele>
        <time>2026-08-21T16:27:43.000Z</time>
        <extensions>
          <ns3:TrackPointExtension>
            <ns3:hr>113</ns3:hr>
            <ns3:cad>0</ns3:cad>
          </ns3:TrackPointExtension>
        </extensions>
      </trkpt>
      <trkpt lat="45.3184893541038036346435546875" lon="-70.8970780670642852783203125">
        <ele>601.20001220703125</ele>
        <time>2026-08-21T16:27:44.000Z</time>
        <extensions>
          <ns3:TrackPointExtension>
            <ns3:hr>113</ns3:hr>
            <ns3:cad>0</ns3:cad>
          </ns3:TrackPointExtension>
        </extensions>
      </trkpt>
      <trkpt lat="45.3185051120817661285400390625" lon="-70.8970889635384082794189453125">
        <ele>601</ele>
        <time>2026-08-21T16:27:45.000Z</time>
        <extensions>
          <ns3:TrackPointExtension>
            <ns3:hr>112</ns3:hr>
            <ns3:cad>0</ns3:cad>
          </ns3:TrackPointExtension>
        </extensions>
      </trkpt>
      <trkpt lat="45.318518690764904022216796875" lon="-70.89710027910768985748291015625">
        <ele>600.5999755859375</ele>
        <time>2026-08-21T16:27:46.000Z</time>
        <extensions>
          <ns3:TrackPointExtension>
            <ns3:hr>112</ns3:hr>
            <ns3:cad>0</ns3:cad>
          </ns3:TrackPointExtension>
        </extensions>
      </trkpt>
      <trkpt lat="45.3185359574854373931884765625" lon="-70.89711721055209636688232421875">
        <ele>600.4000244140625</ele>
        <time>2026-08-21T16:27:47.000Z</time>
        <extensions>
          <ns3:TrackPointExtension>
            <ns3:hr>112</ns3:hr>
            <ns3:cad>67</ns3:cad>
          </ns3:TrackPointExtension>
        </extensions>
      </trkpt>
      <trkpt lat="45.31855112873017787933349609375" lon="-70.89713280089199542999267578125">
        <ele>600</ele>
        <time>2026-08-21T16:27:48.000Z</time>
        <extensions>
          <ns3:TrackPointExtension>
            <ns3:hr>113</ns3:hr>
            <ns3:cad>67</ns3:cad>
          </ns3:TrackPointExtension>
        </extensions>
      </trkpt>
      <trkpt lat="45.31856806017458438873291015625" lon="-70.897151492536067962646484375">
        <ele>599.79998779296875</ele>
        <time>2026-08-21T16:27:49.000Z</time>
        <extensions>
          <ns3:TrackPointExtension>
            <ns3:hr>113</ns3:hr>
            <ns3:cad>69</ns3:cad>
          </ns3:TrackPointExtension>
        </extensions>
      </trkpt>
      <trkpt lat="45.31858549453318119049072265625" lon="-70.897166915237903594970703125">
        <ele>599.5999755859375</ele>
        <time>2026-08-21T16:27:50.000Z</time>
        <extensions>
          <ns3:TrackPointExtension>
            <ns3:hr>113</ns3:hr>
            <ns3:cad>69</ns3:cad>
          </ns3:TrackPointExtension>
        </extensions>
      </trkpt>
      <trkpt lat="45.31860024668276309967041015625" lon="-70.8971808291971683502197265625">
        <ele>599.4000244140625</ele>
        <time>2026-08-21T16:27:51.000Z</time>
        <extensions>
          <ns3:TrackPointExtension>
            <ns3:hr>114</ns3:hr>
            <ns3:cad>69</ns3:cad>
          </ns3:TrackPointExtension>
        </extensions>
      </trkpt>
      <trkpt lat="45.31861483119428157806396484375" lon="-70.89720119722187519073486328125">
        <ele>599.4000244140625</ele>
        <time>2026-08-21T16:27:52.000Z</time>
        <extensions>
          <ns3:TrackPointExtension>
            <ns3:hr>115</ns3:hr>
            <ns3:cad>69</ns3:cad>
          </ns3:TrackPointExtension>
        </extensions>
      </trkpt>
      <trkpt lat="45.318632014095783233642578125" lon="-70.8972202241420745849609375">
        <ele>599.4000244140625</ele>
        <time>2026-08-21T16:27:53.000Z</time>
        <extensions>
          <ns3:TrackPointExtension>
            <ns3:hr>116</ns3:hr>
            <ns3:cad>69</ns3:cad>
          </ns3:TrackPointExtension>
        </extensions>
      </trkpt>
      <trkpt lat="45.31865389086306095123291015625" lon="-70.89723221026360988616943359375">
        <ele>599.4000244140625</ele>
        <time>2026-08-21T16:27:54.000Z</time>
        <extensions>
          <ns3:TrackPointExtension>
            <ns3:hr>117</ns3:hr>
            <ns3:cad>69</ns3:cad>
          </ns3:TrackPointExtension>
        </extensions>
      </trkpt>
      <trkpt lat="45.318672917783260345458984375" lon="-70.89724327437579631805419921875">
        <ele>599.20001220703125</ele>
        <time>2026-08-21T16:27:55.000Z</time>
        <extensions>
          <ns3:TrackPointExtension>
            <ns3:hr>118</ns3:hr>
            <ns3:cad>69</ns3:cad>
          </ns3:TrackPointExtension>
        </extensions>
      </trkpt>
      <trkpt lat="45.3186891786754131317138671875" lon="-70.89725098572671413421630859375">
        <ele>599.20001220703125</ele>
        <time>2026-08-21T16:27:56.000Z</time>
        <extensions>
          <ns3:TrackPointExtension>
            <ns3:hr>119</ns3:hr>
            <ns3:cad>69</ns3:cad>
          </ns3:TrackPointExtension>
        </extensions>
      </trkpt>
      <trkpt lat="45.3187094628810882568359375" lon="-70.897256769239902496337890625">
        <ele>599.20001220703125</ele>
        <time>2026-08-21T16:27:57.000Z</time>
        <extensions>
          <ns3:TrackPointExtension>
            <ns3:hr>120</ns3:hr>
            <ns3:cad>69</ns3:cad>
          </ns3:TrackPointExtension>
        </extensions>
      </trkpt>
      <trkpt lat="45.318729914724826812744140625" lon="-70.89726339094340801239013671875">
        <ele>599.20001220703125</ele>
        <time>2026-08-21T16:27:58.000Z</time>
        <extensions>
          <ns3:TrackPointExtension>
            <ns3:hr>120</ns3:hr>
            <ns3:cad>69</ns3:cad>
          </ns3:TrackPointExtension>
        </extensions>
      </trkpt>
      <trkpt lat="45.3187508694827556610107421875" lon="-70.8972696773707866668701171875">
        <ele>599</ele>
        <time>2026-08-21T16:27:59.000Z</time>
        <extensions>
          <ns3:TrackPointExtension>
            <ns3:hr>120</ns3:hr>
            <ns3:cad>79</ns3:cad>
          </ns3:TrackPointExtension>
        </extensions>
      </trkpt>
      <trkpt lat="45.31877928413450717926025390625" lon="-70.89727931655943393707275390625">
        <ele>599</ele>
        <time>2026-08-21T16:28:00.000Z</time>
        <extensions>
          <ns3:TrackPointExtension>
            <ns3:hr>121</ns3:hr>
            <ns3:cad>79</ns3:cad>
          </ns3:TrackPointExtension>
        </extensions>
      </trkpt>
      <trkpt lat="45.31880543567240238189697265625" lon="-70.89728870429098606109619140625">
        <ele>599</ele>
        <time>2026-08-21T16:28:01.000Z</time>
        <extensions>
          <ns3:TrackPointExtension>
            <ns3:hr>121</ns3:hr>
            <ns3:cad>78</ns3:cad>
          </ns3:TrackPointExtension>
        </extensions>
      </trkpt>
      <trkpt lat="45.31882639043033123016357421875" lon="-70.89729867875576019287109375">
        <ele>599</ele>
        <time>2026-08-21T16:28:02.000Z</time>
        <extensions>
          <ns3:TrackPointExtension>
            <ns3:hr>122</ns3:hr>
            <ns3:cad>78</ns3:cad>
          </ns3:TrackPointExtension>
        </extensions>
      </trkpt>
      <trkpt lat="45.31885002739727497100830078125" lon="-70.89731133542954921722412109375">
        <ele>599</ele>
        <time>2026-08-21T16:28:03.000Z</time>
        <extensions>
          <ns3:TrackPointExtension>
            <ns3:hr>123</ns3:hr>
            <ns3:cad>78</ns3:cad>
          </ns3:TrackPointExtension>
        </extensions>
      </trkpt>
      <trkpt lat="45.31887240707874298095703125" lon="-70.89732860215008258819580078125">
        <ele>599</ele>
        <time>2026-08-21T16:28:04.000Z</time>
        <extensions>
          <ns3:TrackPointExtension>
            <ns3:hr>124</ns3:hr>
            <ns3:cad>80</ns3:cad>
          </ns3:TrackPointExtension>
        </extensions>
      </trkpt>
      <trkpt lat="45.31889461912214756011962890625" lon="-70.89734151028096675872802734375">
        <ele>598.79998779296875</ele>
        <time>2026-08-21T16:28:05.000Z</time>
        <extensions>
          <ns3:TrackPointExtension>
            <ns3:hr>125</ns3:hr>
            <ns3:cad>80</ns3:cad>
          </ns3:TrackPointExtension>
        </extensions>
      </trkpt>
      <trkpt lat="45.3189188428223133087158203125" lon="-70.8973545022308826446533203125">
        <ele>598.79998779296875</ele>
        <time>2026-08-21T16:28:06.000Z</time>
        <extensions>
          <ns3:TrackPointExtension>
            <ns3:hr>125</ns3:hr>
            <ns3:cad>80</ns3:cad>
          </ns3:TrackPointExtension>
        </extensions>
      </trkpt>
      <trkpt lat="45.318935774266719818115234375" lon="-70.8973652310669422149658203125">
        <ele>598.79998779296875</ele>
        <time>2026-08-21T16:28:07.000Z</time>
        <extensions>
          <ns3:TrackPointExtension>
            <ns3:hr>125</ns3:hr>
            <ns3:cad>80</ns3:cad>
          </ns3:TrackPointExtension>
        </extensions>
      </trkpt>
      <trkpt lat="45.3189553879201412200927734375" lon="-70.897374115884304046630859375">
        <ele>598.5999755859375</ele>
        <time>2026-08-21T16:28:08.000Z</time>
        <extensions>
          <ns3:TrackPointExtension>
            <ns3:hr>126</ns3:hr>
            <ns3:cad>80</ns3:cad>
          </ns3:TrackPointExtension>
        </extensions>
      </trkpt>
      <trkpt lat="45.3189748339354991912841796875" lon="-70.89737252332270145416259765625">
        <ele>598.5999755859375</ele>
        <time>2026-08-21T16:28:09.000Z</time>
        <extensions>
          <ns3:TrackPointExtension>
            <ns3:hr>126</ns3:hr>
            <ns3:cad>80</ns3:cad>
          </ns3:TrackPointExtension>
        </extensions>
      </trkpt>
      <trkpt lat="45.31899302266538143157958984375" lon="-70.8973669074475765228271484375">
        <ele>598.5999755859375</ele>
        <time>2026-08-21T16:28:10.000Z</time>
        <extensions>
          <ns3:TrackPointExtension>
            <ns3:hr>126</ns3:hr>
            <ns3:cad>80</ns3:cad>
          </ns3:TrackPointExtension>
        </extensions>
      </trkpt>
      <trkpt lat="45.319009535014629364013671875" lon="-70.8973591960966587066650390625">
        <ele>598.5999755859375</ele>
        <time>2026-08-21T16:28:11.000Z</time>
        <extensions>
          <ns3:TrackPointExtension>
            <ns3:hr>126</ns3:hr>
            <ns3:cad>75</ns3:cad>
          </ns3:TrackPointExtension>
        </extensions>
      </trkpt>
      <trkpt lat="45.319024622440338134765625" lon="-70.89735592715442180633544921875">
        <ele>598.5999755859375</ele>
        <time>2026-08-21T16:28:12.000Z</time>
        <extensions>
          <ns3:TrackPointExtension>
            <ns3:hr>126</ns3:hr>
            <ns3:cad>75</ns3:cad>
          </ns3:TrackPointExtension>
        </extensions>
      </trkpt>
      <trkpt lat="45.31903627328574657440185546875" lon="-70.8973551727831363677978515625">
        <ele>598.5999755859375</ele>
        <time>2026-08-21T16:28:13.000Z</time>
        <extensions>
          <ns3:TrackPointExtension>
            <ns3:hr>126</ns3:hr>
            <ns3:cad>75</ns3:cad>
          </ns3:TrackPointExtension>
        </extensions>
      </trkpt>
      <trkpt lat="45.3190435655415058135986328125" lon="-70.897353999316692352294921875">
        <ele>598.5999755859375</ele>
        <time>2026-08-21T16:28:14.000Z</time>
        <extensions>
          <ns3:TrackPointExtension>
            <ns3:hr>126</ns3:hr>
            <ns3:cad>0</ns3:cad>
          </ns3:TrackPointExtension>
        </extensions>
      </trkpt>
      <trkpt lat="45.31905840151011943817138671875" lon="-70.897364728152751922607421875">
        <ele>598.5999755859375</ele>
        <time>2026-08-21T16:28:15.000Z</time>
        <extensions>
          <ns3:TrackPointExtension>
            <ns3:hr>126</ns3:hr>
            <ns3:cad>0</ns3:cad>
          </ns3:TrackPointExtension>
        </extensions>
      </trkpt>
      <trkpt lat="45.3190740756690502166748046875" lon="-70.89737051166594028472900390625">
        <ele>598.5999755859375</ele>
        <time>2026-08-21T16:28:16.000Z</time>
        <extensions>
          <ns3:TrackPointExtension>
            <ns3:hr>126</ns3:hr>
            <ns3:cad>0</ns3:cad>
          </ns3:TrackPointExtension>
        </extensions>
      </trkpt>
      <trkpt lat="45.31909142620861530303955078125" lon="-70.89737453497946262359619140625">
        <ele>598.5999755859375</ele>
        <time>2026-08-21T16:28:17.000Z</time>
        <extensions>
          <ns3:TrackPointExtension>
            <ns3:hr>125</ns3:hr>
            <ns3:cad>0</ns3:cad>
          </ns3:TrackPointExtension>
        </extensions>
      </trkpt>
      <trkpt lat="45.31910819001495838165283203125" lon="-70.89737285859882831573486328125">
        <ele>598.5999755859375</ele>
        <time>2026-08-21T16:28:18.000Z</time>
        <extensions>
          <ns3:TrackPointExtension>
            <ns3:hr>125</ns3:hr>
            <ns3:cad>0</ns3:cad>
          </ns3:TrackPointExtension>
        </extensions>
      </trkpt>
      <trkpt lat="45.31911975704133510589599609375" lon="-70.8973665721714496612548828125">
        <ele>598.4000244140625</ele>
        <time>2026-08-21T16:28:19.000Z</time>
        <extensions>
          <ns3:TrackPointExtension>
            <ns3:hr>124</ns3:hr>
            <ns3:cad>0</ns3:cad>
          </ns3:TrackPointExtension>
        </extensions>
      </trkpt>
      <trkpt lat="45.31913367100059986114501953125" lon="-70.89735877700150012969970703125">
        <ele>598.4000244140625</ele>
        <time>2026-08-21T16:28:20.000Z</time>
        <extensions>
          <ns3:TrackPointExtension>
            <ns3:hr>124</ns3:hr>
            <ns3:cad>0</ns3:cad>
          </ns3:TrackPointExtension>
        </extensions>
      </trkpt>
      <trkpt lat="45.319149680435657501220703125" lon="-70.89734989218413829803466796875">
        <ele>598.4000244140625</ele>
        <time>2026-08-21T16:28:21.000Z</time>
        <extensions>
          <ns3:TrackPointExtension>
            <ns3:hr>123</ns3:hr>
            <ns3:cad>64</ns3:cad>
          </ns3:TrackPointExtension>
        </extensions>
      </trkpt>
      <trkpt lat="45.31916619278490543365478515625" lon="-70.89733715169131755828857421875">
        <ele>598.4000244140625</ele>
        <time>2026-08-21T16:28:22.000Z</time>
        <extensions>
          <ns3:TrackPointExtension>
            <ns3:hr>123</ns3:hr>
            <ns3:cad>64</ns3:cad>
          </ns3:TrackPointExtension>
        </extensions>
      </trkpt>
      <trkpt lat="45.3191853873431682586669921875" lon="-70.8973239921033382415771484375">
        <ele>598.4000244140625</ele>
        <time>2026-08-21T16:28:23.000Z</time>
        <extensions>
          <ns3:TrackPointExtension>
            <ns3:hr>122</ns3:hr>
            <ns3:cad>64</ns3:cad>
          </ns3:TrackPointExtension>
        </extensions>
      </trkpt>
      <trkpt lat="45.31920231878757476806640625" lon="-70.8973135985434055328369140625">
        <ele>598.4000244140625</ele>
        <time>2026-08-21T16:28:24.000Z</time>
        <extensions>
          <ns3:TrackPointExtension>
            <ns3:hr>122</ns3:hr>
            <ns3:cad>64</ns3:cad>
          </ns3:TrackPointExtension>
        </extensions>
      </trkpt>
      <trkpt lat="45.31921614892780780792236328125" lon="-70.89730161242187023162841796875">
        <ele>598.20001220703125</ele>
        <time>2026-08-21T16:28:25.000Z</time>
        <extensions>
          <ns3:TrackPointExtension>
            <ns3:hr>122</ns3:hr>
            <ns3:cad>64</ns3:cad>
          </ns3:TrackPointExtension>
        </extensions>
      </trkpt>
      <trkpt lat="45.3192303143441677093505859375" lon="-70.89727948419749736785888671875">
        <ele>598</ele>
        <time>2026-08-21T16:28:26.000Z</time>
        <extensions>
          <ns3:TrackPointExtension>
            <ns3:hr>123</ns3:hr>
            <ns3:cad>64</ns3:cad>
          </ns3:TrackPointExtension>
        </extensions>
      </trkpt>
      <trkpt lat="45.319248251616954803466796875" lon="-70.89725769124925136566162109375">
        <ele>598</ele>
        <time>2026-08-21T16:28:27.000Z</time>
        <extensions>
          <ns3:TrackPointExtension>
            <ns3:hr>123</ns3:hr>
            <ns3:cad>64</ns3:cad>
          </ns3:TrackPointExtension>
        </extensions>
      </trkpt>
      <trkpt lat="45.319263003766536712646484375" lon="-70.89724478311836719512939453125">
        <ele>597.5999755859375</ele>
        <time>2026-08-21T16:28:28.000Z</time>
        <extensions>
          <ns3:TrackPointExtension>
            <ns3:hr>123</ns3:hr>
            <ns3:cad>71</ns3:cad>
          </ns3:TrackPointExtension>
        </extensions>
      </trkpt>
      <trkpt lat="45.3192802704870700836181640625" lon="-70.8972381614148616790771484375">
        <ele>597.4000244140625</ele>
        <time>2026-08-21T16:28:29.000Z</time>
        <extensions>
          <ns3:TrackPointExtension>
            <ns3:hr>123</ns3:hr>
            <ns3:cad>71</ns3:cad>
          </ns3:TrackPointExtension>
        </extensions>
      </trkpt>
      <trkpt lat="45.319300554692745208740234375" lon="-70.8972341381013393402099609375">
        <ele>597.20001220703125</ele>
        <time>2026-08-21T16:28:30.000Z</time>
        <extensions>
          <ns3:TrackPointExtension>
            <ns3:hr>123</ns3:hr>
            <ns3:cad>71</ns3:cad>
          </ns3:TrackPointExtension>
        </extensions>
      </trkpt>
      <trkpt lat="45.3193188272416591644287109375" lon="-70.89723137207329273223876953125">
        <ele>597</ele>
        <time>2026-08-21T16:28:31.000Z</time>
        <extensions>
          <ns3:TrackPointExtension>
            <ns3:hr>122</ns3:hr>
            <ns3:cad>71</ns3:cad>
          </ns3:TrackPointExtension>
        </extensions>
      </trkpt>
      <trkpt lat="45.31933148391544818878173828125" lon="-70.89723103679716587066650390625">
        <ele>597</ele>
        <time>2026-08-21T16:28:32.000Z</time>
        <extensions>
          <ns3:TrackPointExtension>
            <ns3:hr>122</ns3:hr>
            <ns3:cad>71</ns3:cad>
          </ns3:TrackPointExtension>
        </extensions>
      </trkpt>
      <trkpt lat="45.31934204511344432830810546875" lon="-70.89723304845392704010009765625">
        <ele>597</ele>
        <time>2026-08-21T16:28:33.000Z</time>
        <extensions>
          <ns3:TrackPointExtension>
            <ns3:hr>122</ns3:hr>
            <ns3:cad>73</ns3:cad>
          </ns3:TrackPointExtension>
        </extensions>
      </trkpt>
      <trkpt lat="45.31935495324432849884033203125" lon="-70.8972284384071826934814453125">
        <ele>597.20001220703125</ele>
        <time>2026-08-21T16:28:34.000Z</time>
        <extensions>
          <ns3:TrackPointExtension>
            <ns3:hr>123</ns3:hr>
            <ns3:cad>73</ns3:cad>
          </ns3:TrackPointExtension>
        </extensions>
      </trkpt>
      <trkpt lat="45.3193624131381511688232421875" lon="-70.89721527881920337677001953125">
        <ele>597.20001220703125</ele>
        <time>2026-08-21T16:28:35.000Z</time>
        <extensions>
          <ns3:TrackPointExtension>
            <ns3:hr>123</ns3:hr>
            <ns3:cad>74</ns3:cad>
          </ns3:TrackPointExtension>
        </extensions>
      </trkpt>
      <trkpt lat="45.3193701244890689849853515625" lon="-70.8971932344138622283935546875">
        <ele>597.20001220703125</ele>
        <time>2026-08-21T16:28:36.000Z</time>
        <extensions>
          <ns3:TrackPointExtension>
            <ns3:hr>124</ns3:hr>
            <ns3:cad>74</ns3:cad>
          </ns3:TrackPointExtension>
        </extensions>
      </trkpt>
      <trkpt lat="45.31937842257320880889892578125" lon="-70.89716465212404727935791015625">
        <ele>597.20001220703125</ele>
        <time>2026-08-21T16:28:37.000Z</time>
        <extensions>
          <ns3:TrackPointExtension>
            <ns3:hr>124</ns3:hr>
            <ns3:cad>74</ns3:cad>
          </ns3:TrackPointExtension>
        </extensions>
      </trkpt>
      <trkpt lat="45.31939149834215641021728515625" lon="-70.897136069834232330322265625">
        <ele>597.20001220703125</ele>
        <time>2026-08-21T16:28:38.000Z</time>
        <extensions>
          <ns3:TrackPointExtension>
            <ns3:hr>124</ns3:hr>
            <ns3:cad>74</ns3:cad>
          </ns3:TrackPointExtension>
        </extensions>
      </trkpt>
      <trkpt lat="45.31939954496920108795166015625" lon="-70.897103212773799896240234375">
        <ele>597.20001220703125</ele>
        <time>2026-08-21T16:28:39.000Z</time>
        <extensions>
          <ns3:TrackPointExtension>
            <ns3:hr>124</ns3:hr>
            <ns3:cad>74</ns3:cad>
          </ns3:TrackPointExtension>
        </extensions>
      </trkpt>
      <trkpt lat="45.31940775923430919647216796875" lon="-70.89706775732338428497314453125">
        <ele>597.20001220703125</ele>
        <time>2026-08-21T16:28:40.000Z</time>
        <extensions>
          <ns3:TrackPointExtension>
            <ns3:hr>124</ns3:hr>
            <ns3:cad>0</ns3:cad>
          </ns3:TrackPointExtension>
        </extensions>
      </trkpt>
      <trkpt lat="45.31941823661327362060546875" lon="-70.89703045785427093505859375">
        <ele>597.20001220703125</ele>
        <time>2026-08-21T16:28:41.000Z</time>
        <extensions>
          <ns3:TrackPointExtension>
            <ns3:hr>124</ns3:hr>
            <ns3:cad>0</ns3:cad>
          </ns3:TrackPointExtension>
        </extensions>
      </trkpt>
      <trkpt lat="45.31942494213581085205078125" lon="-70.89700489304959774017333984375">
        <ele>597.20001220703125</ele>
        <time>2026-08-21T16:28:42.000Z</time>
        <extensions>
          <ns3:TrackPointExtension>
            <ns3:hr>124</ns3:hr>
            <ns3:cad>0</ns3:cad>
          </ns3:TrackPointExtension>
        </extensions>
      </trkpt>
      <trkpt lat="45.31943558715283870697021484375" lon="-70.896987877786159515380859375">
        <ele>597.20001220703125</ele>
        <time>2026-08-21T16:28:43.000Z</time>
        <extensions>
          <ns3:TrackPointExtension>
            <ns3:hr>124</ns3:hr>
            <ns3:cad>0</ns3:cad>
          </ns3:TrackPointExtension>
        </extensions>
      </trkpt>
      <trkpt lat="45.31944380141794681549072265625" lon="-70.896976478397846221923828125">
        <ele>597.20001220703125</ele>
        <time>2026-08-21T16:28:44.000Z</time>
        <extensions>
          <ns3:TrackPointExtension>
            <ns3:hr>125</ns3:hr>
            <ns3:cad>0</ns3:cad>
          </ns3:TrackPointExtension>
        </extensions>
      </trkpt>
      <trkpt lat="45.31945419497787952423095703125" lon="-70.89696742594242095947265625">
        <ele>597.20001220703125</ele>
        <time>2026-08-21T16:28:45.000Z</time>
        <extensions>
          <ns3:TrackPointExtension>
            <ns3:hr>125</ns3:hr>
            <ns3:cad>0</ns3:cad>
          </ns3:TrackPointExtension>
        </extensions>
      </trkpt>
      <trkpt lat="45.31946358270943164825439453125" lon="-70.89695795439183712005615234375">
        <ele>597.20001220703125</ele>
        <time>2026-08-21T16:28:46.000Z</time>
        <extensions>
          <ns3:TrackPointExtension>
            <ns3:hr>125</ns3:hr>
            <ns3:cad>0</ns3:cad>
          </ns3:TrackPointExtension>
        </extensions>
      </trkpt>
      <trkpt lat="45.3194737248122692108154296875" lon="-70.89695041067898273468017578125">
        <ele>597.20001220703125</ele>
        <time>2026-08-21T16:28:47.000Z</time>
        <extensions>
          <ns3:TrackPointExtension>
            <ns3:hr>124</ns3:hr>
            <ns3:cad>0</ns3:cad>
          </ns3:TrackPointExtension>
        </extensions>
      </trkpt>
      <trkpt lat="45.31948654912412166595458984375" lon="-70.89694999158382415771484375">
        <ele>597.20001220703125</ele>
        <time>2026-08-21T16:28:48.000Z</time>
        <extensions>
          <ns3:TrackPointExtension>
            <ns3:hr>124</ns3:hr>
            <ns3:cad>0</ns3:cad>
          </ns3:TrackPointExtension>
        </extensions>
      </trkpt>
      <trkpt lat="45.319505743682384490966796875" lon="-70.8969484828412532806396484375">
        <ele>597</ele>
        <time>2026-08-21T16:28:49.000Z</time>
        <extensions>
          <ns3:TrackPointExtension>
            <ns3:hr>124</ns3:hr>
            <ns3:cad>0</ns3:cad>
          </ns3:TrackPointExtension>
        </extensions>
      </trkpt>
      <trkpt lat="45.31952627934515476226806640625" lon="-70.8969421125948429107666015625">
        <ele>596.79998779296875</ele>
        <time>2026-08-21T16:28:50.000Z</time>
        <extensions>
          <ns3:TrackPointExtension>
            <ns3:hr>123</ns3:hr>
            <ns3:cad>0</ns3:cad>
          </ns3:TrackPointExtension>
        </extensions>
      </trkpt>
      <trkpt lat="45.31954832375049591064453125" lon="-70.8969313837587833404541015625">
        <ele>596.79998779296875</ele>
        <time>2026-08-21T16:28:51.000Z</time>
        <extensions>
          <ns3:TrackPointExtension>
            <ns3:hr>123</ns3:hr>
            <ns3:cad>0</ns3:cad>
          </ns3:TrackPointExtension>
        </extensions>
      </trkpt>
      <trkpt lat="45.3195677697658538818359375" lon="-70.89692291803658008575439453125">
        <ele>596.5999755859375</ele>
        <time>2026-08-21T16:28:52.000Z</time>
        <extensions>
          <ns3:TrackPointExtension>
            <ns3:hr>124</ns3:hr>
            <ns3:cad>75</ns3:cad>
          </ns3:TrackPointExtension>
        </extensions>
      </trkpt>
      <trkpt lat="45.319586209952831268310546875" lon="-70.89690749533474445343017578125">
        <ele>596.5999755859375</ele>
        <time>2026-08-21T16:28:53.000Z</time>
        <extensions>
          <ns3:TrackPointExtension>
            <ns3:hr>126</ns3:hr>
            <ns3:cad>75</ns3:cad>
          </ns3:TrackPointExtension>
        </extensions>
      </trkpt>
      <trkpt lat="45.31960356049239635467529296875" lon="-70.8968941681087017059326171875">
        <ele>596.5999755859375</ele>
        <time>2026-08-21T16:28:54.000Z</time>
        <extensions>
          <ns3:TrackPointExtension>
            <ns3:hr>127</ns3:hr>
            <ns3:cad>75</ns3:cad>
          </ns3:TrackPointExtension>
        </extensions>
      </trkpt>
      <trkpt lat="45.31961764208972454071044921875" lon="-70.89688159525394439697265625">
        <ele>596.5999755859375</ele>
        <time>2026-08-21T16:28:55.000Z</time>
        <extensions>
          <ns3:TrackPointExtension>
            <ns3:hr>128</ns3:hr>
            <ns3:cad>76</ns3:cad>
          </ns3:TrackPointExtension>
        </extensions>
      </trkpt>
      <trkpt lat="45.31963390298187732696533203125" lon="-70.89686684310436248779296875">
        <ele>596.5999755859375</ele>
        <time>2026-08-21T16:28:56.000Z</time>
        <extensions>
          <ns3:TrackPointExtension>
            <ns3:hr>128</ns3:hr>
            <ns3:cad>76</ns3:cad>
          </ns3:TrackPointExtension>
        </extensions>
      </trkpt>
      <trkpt lat="45.31964764930307865142822265625" lon="-70.896843709051609039306640625">
        <ele>596.5999755859375</ele>
        <time>2026-08-21T16:28:57.000Z</time>
        <extensions>
          <ns3:TrackPointExtension>
            <ns3:hr>129</ns3:hr>
            <ns3:cad>76</ns3:cad>
          </ns3:TrackPointExtension>
        </extensions>
      </trkpt>
      <trkpt lat="45.31966072507202625274658203125" lon="-70.89681990444660186767578125">
        <ele>596.5999755859375</ele>
        <time>2026-08-21T16:28:58.000Z</time>
        <extensions>
          <ns3:TrackPointExtension>
            <ns3:hr>129</ns3:hr>
            <ns3:cad>0</ns3:cad>
          </ns3:TrackPointExtension>
        </extensions>
      </trkpt>
      <trkpt lat="45.31966860406100749969482421875" lon="-70.89680674485862255096435546875">
        <ele>596.79998779296875</ele>
        <time>2026-08-21T16:28:59.000Z</time>
        <extensions>
          <ns3:TrackPointExtension>
            <ns3:hr>129</ns3:hr>
            <ns3:cad>0</ns3:cad>
          </ns3:TrackPointExtension>
        </extensions>
      </trkpt>
      <trkpt lat="45.31968134455382823944091796875" lon="-70.896789729595184326171875">
        <ele>596.79998779296875</ele>
        <time>2026-08-21T16:29:00.000Z</time>
        <extensions>
          <ns3:TrackPointExtension>
            <ns3:hr>130</ns3:hr>
            <ns3:cad>0</ns3:cad>
          </ns3:TrackPointExtension>
        </extensions>
      </trkpt>
      <trkpt lat="45.3196909837424755096435546875" lon="-70.89677539654076099395751953125">
        <ele>597</ele>
        <time>2026-08-21T16:29:01.000Z</time>
        <extensions>
          <ns3:TrackPointExtension>
            <ns3:hr>130</ns3:hr>
            <ns3:cad>0</ns3:cad>
          </ns3:TrackPointExtension>
        </extensions>
      </trkpt>
      <trkpt lat="45.3197023831307888031005859375" lon="-70.8967603929340839385986328125">
        <ele>597</ele>
        <time>2026-08-21T16:29:02.000Z</time>
        <extensions>
          <ns3:TrackPointExtension>
            <ns3:hr>130</ns3:hr>
            <ns3:cad>0</ns3:cad>
          </ns3:TrackPointExtension>
        </extensions>
      </trkpt>
      <trkpt lat="45.31971327960491180419921875" lon="-70.89675410650670528411865234375">
        <ele>597</ele>
        <time>2026-08-21T16:29:03.000Z</time>
        <extensions>
          <ns3:TrackPointExtension>
            <ns3:hr>129</ns3:hr>
            <ns3:cad>0</ns3:cad>
          </ns3:TrackPointExtension>
        </extensions>
      </trkpt>
      <trkpt lat="45.3197248466312885284423828125" lon="-70.89674974791705608367919921875">
        <ele>597</ele>
        <time>2026-08-21T16:29:04.000Z</time>
        <extensions>
          <ns3:TrackPointExtension>
            <ns3:hr>129</ns3:hr>
            <ns3:cad>0</ns3:cad>
          </ns3:TrackPointExtension>
        </extensions>
      </trkpt>
      <trkpt lat="45.3197349049150943756103515625" lon="-70.89675016701221466064453125">
        <ele>596.79998779296875</ele>
        <time>2026-08-21T16:29:05.000Z</time>
        <extensions>
          <ns3:TrackPointExtension>
            <ns3:hr>130</ns3:hr>
            <ns3:cad>0</ns3:cad>
          </ns3:TrackPointExtension>
        </extensions>
      </trkpt>
      <trkpt lat="45.319751836359500885009765625" lon="-70.89674589224159717559814453125">
        <ele>596.5999755859375</ele>
        <time>2026-08-21T16:29:06.000Z</time>
        <extensions>
          <ns3:TrackPointExtension>
            <ns3:hr>130</ns3:hr>
            <ns3:cad>0</ns3:cad>
          </ns3:TrackPointExtension>
        </extensions>
      </trkpt>
      <trkpt lat="45.31977203674614429473876953125" lon="-70.8967439644038677215576171875">
        <ele>596.5999755859375</ele>
        <time>2026-08-21T16:29:07.000Z</time>
        <extensions>
          <ns3:TrackPointExtension>
            <ns3:hr>130</ns3:hr>
            <ns3:cad>0</ns3:cad>
          </ns3:TrackPointExtension>
        </extensions>
      </trkpt>
      <trkpt lat="45.31978243030607700347900390625" lon="-70.89674036018550395965576171875">
        <ele>596.5999755859375</ele>
        <time>2026-08-21T16:29:08.000Z</time>
        <extensions>
          <ns3:TrackPointExtension>
            <ns3:hr>130</ns3:hr>
            <ns3:cad>0</ns3:cad>
          </ns3:TrackPointExtension>
        </extensions>
      </trkpt>
      <trkpt lat="45.31979735009372234344482421875" lon="-70.8967399410903453826904296875">
        <ele>596.4000244140625</ele>
        <time>2026-08-21T16:29:09.000Z</time>
        <extensions>
          <ns3:TrackPointExtension>
            <ns3:hr>129</ns3:hr>
            <ns3:cad>0</ns3:cad>
          </ns3:TrackPointExtension>
        </extensions>
      </trkpt>
      <trkpt lat="45.3198136948049068450927734375" lon="-70.89674052782356739044189453125">
        <ele>596.4000244140625</ele>
        <time>2026-08-21T16:29:10.000Z</time>
        <extensions>
          <ns3:TrackPointExtension>
            <ns3:hr>129</ns3:hr>
            <ns3:cad>0</ns3:cad>
          </ns3:TrackPointExtension>
        </extensions>
      </trkpt>
      <trkpt lat="45.31982861459255218505859375" lon="-70.89674756862223148345947265625">
        <ele>596.5999755859375</ele>
        <time>2026-08-21T16:29:11.000Z</time>
        <extensions>
          <ns3:TrackPointExtension>
            <ns3:hr>129</ns3:hr>
            <ns3:cad>0</ns3:cad>
          </ns3:TrackPointExtension>
        </extensions>
      </trkpt>
      <trkpt lat="45.31984093599021434783935546875" lon="-70.8967603929340839385986328125">
        <ele>596.5999755859375</ele>
        <time>2026-08-21T16:29:12.000Z</time>
        <extensions>
          <ns3:TrackPointExtension>
            <ns3:hr>129</ns3:hr>
            <ns3:cad>0</ns3:cad>
          </ns3:TrackPointExtension>
        </extensions>
      </trkpt>
      <trkpt lat="45.31985233537852764129638671875" lon="-70.89677237905561923980712890625">
        <ele>596.5999755859375</ele>
        <time>2026-08-21T16:29:13.000Z</time>
        <extensions>
          <ns3:TrackPointExtension>
            <ns3:hr>128</ns3:hr>
            <ns3:cad>0</ns3:cad>
          </ns3:TrackPointExtension>
        </extensions>
      </trkpt>
      <trkpt lat="45.3198713622987270355224609375" lon="-70.896773301064968109130859375">
        <ele>596.4000244140625</ele>
        <time>2026-08-21T16:29:14.000Z</time>
        <extensions>
          <ns3:TrackPointExtension>
            <ns3:hr>128</ns3:hr>
            <ns3:cad>0</ns3:cad>
          </ns3:TrackPointExtension>
        </extensions>
      </trkpt>
      <trkpt lat="45.3198887966573238372802734375" lon="-70.89677422307431697845458984375">
        <ele>596.4000244140625</ele>
        <time>2026-08-21T16:29:15.000Z</time>
        <extensions>
          <ns3:TrackPointExtension>
            <ns3:hr>128</ns3:hr>
            <ns3:cad>0</ns3:cad>
          </ns3:TrackPointExtension>
        </extensions>
      </trkpt>
      <trkpt lat="45.31990748830139636993408203125" lon="-70.8967784978449344635009765625">
        <ele>596.4000244140625</ele>
        <time>2026-08-21T16:29:16.000Z</time>
        <extensions>
          <ns3:TrackPointExtension>
            <ns3:hr>128</ns3:hr>
            <ns3:cad>0</ns3:cad>
          </ns3:TrackPointExtension>
        </extensions>
      </trkpt>
      <trkpt lat="45.31992115080356597900390625" lon="-70.896780677139759063720703125">
        <ele>596.4000244140625</ele>
        <time>2026-08-21T16:29:17.000Z</time>
        <extensions>
          <ns3:TrackPointExtension>
            <ns3:hr>128</ns3:hr>
            <ns3:cad>61</ns3:cad>
          </ns3:TrackPointExtension>
        </extensions>
      </trkpt>
      <trkpt lat="45.31993766315281391143798828125" lon="-70.89678503572940826416015625">
        <ele>596.20001220703125</ele>
        <time>2026-08-21T16:29:18.000Z</time>
        <extensions>
          <ns3:TrackPointExtension>
            <ns3:hr>128</ns3:hr>
            <ns3:cad>61</ns3:cad>
          </ns3:TrackPointExtension>
        </extensions>
      </trkpt>
      <trkpt lat="45.31995710916817188262939453125" lon="-70.89678662829101085662841796875">
        <ele>596.20001220703125</ele>
        <time>2026-08-21T16:29:19.000Z</time>
        <extensions>
          <ns3:TrackPointExtension>
            <ns3:hr>128</ns3:hr>
            <ns3:cad>61</ns3:cad>
          </ns3:TrackPointExtension>
        </extensions>
      </trkpt>
      <trkpt lat="45.31997387297451496124267578125" lon="-70.8967818506062030792236328125">
        <ele>596.20001220703125</ele>
        <time>2026-08-21T16:29:20.000Z</time>
        <extensions>
          <ns3:TrackPointExtension>
            <ns3:hr>128</ns3:hr>
            <ns3:cad>61</ns3:cad>
          </ns3:TrackPointExtension>
        </extensions>
      </trkpt>
      <trkpt lat="45.31999222934246063232421875" lon="-70.89677296578884124755859375">
        <ele>596.20001220703125</ele>
        <time>2026-08-21T16:29:21.000Z</time>
        <extensions>
          <ns3:TrackPointExtension>
            <ns3:hr>129</ns3:hr>
            <ns3:cad>61</ns3:cad>
          </ns3:TrackPointExtension>
        </extensions>
      </trkpt>
      <trkpt lat="45.32000957988202571868896484375" lon="-70.89677221141755580902099609375">
        <ele>596.20001220703125</ele>
        <time>2026-08-21T16:29:22.000Z</time>
        <extensions>
          <ns3:TrackPointExtension>
            <ns3:hr>131</ns3:hr>
            <ns3:cad>53</ns3:cad>
          </ns3:TrackPointExtension>
        </extensions>
      </trkpt>
      <trkpt lat="45.32001829706132411956787109375" lon="-70.8967805095016956329345703125">
        <ele>596.20001220703125</ele>
        <time>2026-08-21T16:29:23.000Z</time>
        <extensions>
          <ns3:TrackPointExtension>
            <ns3:hr>132</ns3:hr>
            <ns3:cad>53</ns3:cad>
          </ns3:TrackPointExtension>
        </extensions>
      </trkpt>
      <trkpt lat="45.32002936117351055145263671875" lon="-70.89678327552974224090576171875">
        <ele>596.20001220703125</ele>
        <time>2026-08-21T16:29:24.000Z</time>
        <extensions>
          <ns3:TrackPointExtension>
            <ns3:hr>131</ns3:hr>
            <ns3:cad>0</ns3:cad>
          </ns3:TrackPointExtension>
        </extensions>
      </trkpt>
      <trkpt lat="45.320046208798885345458984375" lon="-70.89678579010069370269775390625">
        <ele>596.20001220703125</ele>
        <time>2026-08-21T16:29:25.000Z</time>
        <extensions>
          <ns3:TrackPointExtension>
            <ns3:hr>131</ns3:hr>
            <ns3:cad>0</ns3:cad>
          </ns3:TrackPointExtension>
        </extensions>
      </trkpt>
      <trkpt lat="45.320059619843959808349609375" lon="-70.8967858739197254180908203125">
        <ele>596.20001220703125</ele>
        <time>2026-08-21T16:29:26.000Z</time>
        <extensions>
          <ns3:TrackPointExtension>
            <ns3:hr>131</ns3:hr>
            <ns3:cad>0</ns3:cad>
          </ns3:TrackPointExtension>
        </extensions>
      </trkpt>
      <trkpt lat="45.3200758807361125946044921875" lon="-70.89679752476513385772705078125">
        <ele>596.20001220703125</ele>
        <time>2026-08-21T16:29:27.000Z</time>
        <extensions>
          <ns3:TrackPointExtension>
            <ns3:hr>130</ns3:hr>
            <ns3:cad>61</ns3:cad>
          </ns3:TrackPointExtension>
        </extensions>
      </trkpt>
      <trkpt lat="45.3200869448482990264892578125" lon="-70.89680456556379795074462890625">
        <ele>596.20001220703125</ele>
        <time>2026-08-21T16:29:28.000Z</time>
        <extensions>
          <ns3:TrackPointExtension>
            <ns3:hr>130</ns3:hr>
            <ns3:cad>61</ns3:cad>
          </ns3:TrackPointExtension>
        </extensions>
      </trkpt>
      <trkpt lat="45.32010245136916637420654296875" lon="-70.896810851991176605224609375">
        <ele>596.20001220703125</ele>
        <time>2026-08-21T16:29:29.000Z</time>
        <extensions>
          <ns3:TrackPointExtension>
            <ns3:hr>130</ns3:hr>
            <ns3:cad>61</ns3:cad>
          </ns3:TrackPointExtension>
        </extensions>
      </trkpt>
      <trkpt lat="45.32011686824262142181396484375" lon="-70.896813869476318359375">
        <ele>596.20001220703125</ele>
        <time>2026-08-21T16:29:30.000Z</time>
        <extensions>
          <ns3:TrackPointExtension>
            <ns3:hr>131</ns3:hr>
            <ns3:cad>61</ns3:cad>
          </ns3:TrackPointExtension>
        </extensions>
      </trkpt>
      <trkpt lat="45.3201318718492984771728515625" lon="-70.8968110196292400360107421875">
        <ele>596</ele>
        <time>2026-08-21T16:29:31.000Z</time>
        <extensions>
          <ns3:TrackPointExtension>
            <ns3:hr>131</ns3:hr>
            <ns3:cad>60</ns3:cad>
          </ns3:TrackPointExtension>
        </extensions>
      </trkpt>
      <trkpt lat="45.320151485502719879150390625" lon="-70.89680573903024196624755859375">
        <ele>596</ele>
        <time>2026-08-21T16:29:32.000Z</time>
        <extensions>
          <ns3:TrackPointExtension>
            <ns3:hr>131</ns3:hr>
            <ns3:cad>60</ns3:cad>
          </ns3:TrackPointExtension>
        </extensions>
      </trkpt>
      <trkpt lat="45.3201657347381114959716796875" lon="-70.8968044817447662353515625">
        <ele>596</ele>
        <time>2026-08-21T16:29:33.000Z</time>
        <extensions>
          <ns3:TrackPointExtension>
            <ns3:hr>131</ns3:hr>
            <ns3:cad>60</ns3:cad>
          </ns3:TrackPointExtension>
        </extensions>
      </trkpt>
      <trkpt lat="45.32017889432609081268310546875" lon="-70.89680791832506656646728515625">
        <ele>596</ele>
        <time>2026-08-21T16:29:34.000Z</time>
        <extensions>
          <ns3:TrackPointExtension>
            <ns3:hr>131</ns3:hr>
            <ns3:cad>60</ns3:cad>
          </ns3:TrackPointExtension>
        </extensions>
      </trkpt>
      <trkpt lat="45.32019649632275104522705078125" lon="-70.89681361801922321319580078125">
        <ele>595.79998779296875</ele>
        <time>2026-08-21T16:29:35.000Z</time>
        <extensions>
          <ns3:TrackPointExtension>
            <ns3:hr>131</ns3:hr>
            <ns3:cad>60</ns3:cad>
          </ns3:TrackPointExtension>
        </extensions>
      </trkpt>
      <trkpt lat="45.32020923681557178497314453125" lon="-70.8968183957040309906005859375">
        <ele>595.79998779296875</ele>
        <time>2026-08-21T16:29:36.000Z</time>
        <extensions>
          <ns3:TrackPointExtension>
            <ns3:hr>131</ns3:hr>
            <ns3:cad>63</ns3:cad>
          </ns3:TrackPointExtension>
        </extensions>
      </trkpt>
      <trkpt lat="45.320220552384853363037109375" lon="-70.89682803489267826080322265625">
        <ele>595.79998779296875</ele>
        <time>2026-08-21T16:29:37.000Z</time>
        <extensions>
          <ns3:TrackPointExtension>
            <ns3:hr>131</ns3:hr>
            <ns3:cad>63</ns3:cad>
          </ns3:TrackPointExtension>
        </extensions>
      </trkpt>
      <trkpt lat="45.3202307783067226409912109375" lon="-70.896840356290340423583984375">
        <ele>595.79998779296875</ele>
        <time>2026-08-21T16:29:38.000Z</time>
        <extensions>
          <ns3:TrackPointExtension>
            <ns3:hr>131</ns3:hr>
            <ns3:cad>63</ns3:cad>
          </ns3:TrackPointExtension>
        </extensions>
      </trkpt>
      <trkpt lat="45.3202388249337673187255859375" lon="-70.89685552753508090972900390625">
        <ele>595.79998779296875</ele>
        <time>2026-08-21T16:29:39.000Z</time>
        <extensions>
          <ns3:TrackPointExtension>
            <ns3:hr>131</ns3:hr>
            <ns3:cad>63</ns3:cad>
          </ns3:TrackPointExtension>
        </extensions>
      </trkpt>
      <trkpt lat="45.32023631036281585693359375" lon="-70.8968713693320751190185546875">
        <ele>595.79998779296875</ele>
        <time>2026-08-21T16:29:40.000Z</time>
        <extensions>
          <ns3:TrackPointExtension>
            <ns3:hr>130</ns3:hr>
            <ns3:cad>63</ns3:cad>
          </ns3:TrackPointExtension>
        </extensions>
      </trkpt>
      <trkpt lat="45.32024075277149677276611328125" lon="-70.8968901447951793670654296875">
        <ele>596</ele>
        <time>2026-08-21T16:29:41.000Z</time>
        <extensions>
          <ns3:TrackPointExtension>
            <ns3:hr>130</ns3:hr>
            <ns3:cad>63</ns3:cad>
          </ns3:TrackPointExtension>
        </extensions>
      </trkpt>
      <trkpt lat="45.32024838030338287353515625" lon="-70.8969055674970149993896484375">
        <ele>596</ele>
        <time>2026-08-21T16:29:42.000Z</time>
        <extensions>
          <ns3:TrackPointExtension>
            <ns3:hr>130</ns3:hr>
            <ns3:cad>63</ns3:cad>
          </ns3:TrackPointExtension>
        </extensions>
      </trkpt>
      <trkpt lat="45.32025215215981006622314453125" lon="-70.89691805653274059295654296875">
        <ele>596</ele>
        <time>2026-08-21T16:29:43.000Z</time>
        <extensions>
          <ns3:TrackPointExtension>
            <ns3:hr>130</ns3:hr>
            <ns3:cad>57</ns3:cad>
          </ns3:TrackPointExtension>
        </extensions>
      </trkpt>
      <trkpt lat="45.32025567255914211273193359375" lon="-70.8969347365200519561767578125">
        <ele>596</ele>
        <time>2026-08-21T16:29:44.000Z</time>
        <extensions>
          <ns3:TrackPointExtension>
            <ns3:hr>131</ns3:hr>
            <ns3:cad>57</ns3:cad>
          </ns3:TrackPointExtension>
        </extensions>
      </trkpt>
      <trkpt lat="45.3202629648149013519287109375" lon="-70.89695007540285587310791015625">
        <ele>596</ele>
        <time>2026-08-21T16:29:45.000Z</time>
        <extensions>
          <ns3:TrackPointExtension>
            <ns3:hr>130</ns3:hr>
            <ns3:cad>57</ns3:cad>
          </ns3:TrackPointExtension>
        </extensions>
      </trkpt>
      <trkpt lat="45.3202705085277557373046875" lon="-70.89696382172405719757080078125">
        <ele>596.20001220703125</ele>
        <time>2026-08-21T16:29:46.000Z</time>
        <extensions>
          <ns3:TrackPointExtension>
            <ns3:hr>130</ns3:hr>
            <ns3:cad>57</ns3:cad>
          </ns3:TrackPointExtension>
        </extensions>
      </trkpt>
      <trkpt lat="45.32027880661189556121826171875" lon="-70.89698620140552520751953125">
        <ele>596.20001220703125</ele>
        <time>2026-08-21T16:29:47.000Z</time>
        <extensions>
          <ns3:TrackPointExtension>
            <ns3:hr>130</ns3:hr>
            <ns3:cad>57</ns3:cad>
          </ns3:TrackPointExtension>
        </extensions>
      </trkpt>
      <trkpt lat="45.32028148882091045379638671875" lon="-70.8970031328499317169189453125">
        <ele>596.20001220703125</ele>
        <time>2026-08-21T16:29:48.000Z</time>
        <extensions>
          <ns3:TrackPointExtension>
            <ns3:hr>129</ns3:hr>
            <ns3:cad>57</ns3:cad>
          </ns3:TrackPointExtension>
        </extensions>
      </trkpt>
      <trkpt lat="45.32028098590672016143798828125" lon="-70.89702107012271881103515625">
        <ele>596.20001220703125</ele>
        <time>2026-08-21T16:29:49.000Z</time>
        <extensions>
          <ns3:TrackPointExtension>
            <ns3:hr>129</ns3:hr>
            <ns3:cad>57</ns3:cad>
          </ns3:TrackPointExtension>
        </extensions>
      </trkpt>
      <trkpt lat="45.32028065063059329986572265625" lon="-70.89703716337680816650390625">
        <ele>596.20001220703125</ele>
        <time>2026-08-21T16:29:50.000Z</time>
        <extensions>
          <ns3:TrackPointExtension>
            <ns3:hr>129</ns3:hr>
            <ns3:cad>57</ns3:cad>
          </ns3:TrackPointExtension>
        </extensions>
      </trkpt>
      <trkpt lat="45.3202812373638153076171875" lon="-70.89705417864024639129638671875">
        <ele>596</ele>
        <time>2026-08-21T16:29:51.000Z</time>
        <extensions>
          <ns3:TrackPointExtension>
            <ns3:hr>128</ns3:hr>
            <ns3:cad>57</ns3:cad>
          </ns3:TrackPointExtension>
        </extensions>
      </trkpt>
      <trkpt lat="45.32028366811573505401611328125" lon="-70.89707337319850921630859375">
        <ele>596</ele>
        <time>2026-08-21T16:29:52.000Z</time>
        <extensions>
          <ns3:TrackPointExtension>
            <ns3:hr>128</ns3:hr>
            <ns3:cad>57</ns3:cad>
          </ns3:TrackPointExtension>
        </extensions>
      </trkpt>
      <trkpt lat="45.32028433866798877716064453125" lon="-70.8970939926803112030029296875">
        <ele>595.79998779296875</ele>
        <time>2026-08-21T16:29:53.000Z</time>
        <extensions>
          <ns3:TrackPointExtension>
            <ns3:hr>128</ns3:hr>
            <ns3:cad>58</ns3:cad>
          </ns3:TrackPointExtension>
        </extensions>
      </trkpt>
      <trkpt lat="45.32028383575379848480224609375" lon="-70.8971218205988407135009765625">
        <ele>595.5999755859375</ele>
        <time>2026-08-21T16:29:54.000Z</time>
        <extensions>
          <ns3:TrackPointExtension>
            <ns3:hr>129</ns3:hr>
            <ns3:cad>58</ns3:cad>
          </ns3:TrackPointExtension>
        </extensions>
      </trkpt>
      <trkpt lat="45.32029003836214542388916015625" lon="-70.89714713394641876220703125">
        <ele>595.4000244140625</ele>
        <time>2026-08-21T16:29:55.000Z</time>
        <extensions>
          <ns3:TrackPointExtension>
            <ns3:hr>128</ns3:hr>
            <ns3:cad>58</ns3:cad>
          </ns3:TrackPointExtension>
        </extensions>
      </trkpt>
      <trkpt lat="45.320302359759807586669921875" lon="-70.89716381393373012542724609375">
        <ele>595.4000244140625</ele>
        <time>2026-08-21T16:29:56.000Z</time>
        <extensions>
          <ns3:TrackPointExtension>
            <ns3:hr>128</ns3:hr>
            <ns3:cad>0</ns3:cad>
          </ns3:TrackPointExtension>
        </extensions>
      </trkpt>
      <trkpt lat="45.32031451351940631866455078125" lon="-70.89718041010200977325439453125">
        <ele>595.20001220703125</ele>
        <time>2026-08-21T16:29:57.000Z</time>
        <extensions>
          <ns3:TrackPointExtension>
            <ns3:hr>128</ns3:hr>
            <ns3:cad>0</ns3:cad>
          </ns3:TrackPointExtension>
        </extensions>
      </trkpt>
      <trkpt lat="45.3203219734132289886474609375" lon="-70.89719985611736774444580078125">
        <ele>595.20001220703125</ele>
        <time>2026-08-21T16:29:58.000Z</time>
        <extensions>
          <ns3:TrackPointExtension>
            <ns3:hr>127</ns3:hr>
            <ns3:cad>0</ns3:cad>
          </ns3:TrackPointExtension>
        </extensions>
      </trkpt>
      <trkpt lat="45.32033647410571575164794921875" lon="-70.8972282707691192626953125">
        <ele>595.4000244140625</ele>
        <time>2026-08-21T16:29:59.000Z</time>
        <extensions>
          <ns3:TrackPointExtension>
            <ns3:hr>127</ns3:hr>
            <ns3:cad>0</ns3:cad>
          </ns3:TrackPointExtension>
        </extensions>
      </trkpt>
      <trkpt lat="45.32035022042691707611083984375" lon="-70.89724830351769924163818359375">
        <ele>595.4000244140625</ele>
        <time>2026-08-21T16:30:00.000Z</time>
        <extensions>
          <ns3:TrackPointExtension>
            <ns3:hr>127</ns3:hr>
            <ns3:cad>0</ns3:cad>
          </ns3:TrackPointExtension>
        </extensions>
      </trkpt>
      <trkpt lat="45.320360697805881500244140625" lon="-70.89725919999182224273681640625">
        <ele>595.4000244140625</ele>
        <time>2026-08-21T16:30:01.000Z</time>
        <extensions>
          <ns3:TrackPointExtension>
            <ns3:hr>127</ns3:hr>
            <ns3:cad>67</ns3:cad>
          </ns3:TrackPointExtension>
        </extensions>
      </trkpt>
      <trkpt lat="45.3203756175935268402099609375" lon="-70.8972636424005031585693359375">
        <ele>595.5999755859375</ele>
        <time>2026-08-21T16:30:02.000Z</time>
        <extensions>
          <ns3:TrackPointExtension>
            <ns3:hr>128</ns3:hr>
            <ns3:cad>67</ns3:cad>
          </ns3:TrackPointExtension>
        </extensions>
      </trkpt>
      <trkpt lat="45.320390202105045318603515625" lon="-70.8972767181694507598876953125">
        <ele>595.5999755859375</ele>
        <time>2026-08-21T16:30:03.000Z</time>
        <extensions>
          <ns3:TrackPointExtension>
            <ns3:hr>128</ns3:hr>
            <ns3:cad>73</ns3:cad>
          </ns3:TrackPointExtension>
        </extensions>
      </trkpt>
      <trkpt lat="45.32040000893175601959228515625" lon="-70.8972894586622714996337890625">
        <ele>595.5999755859375</ele>
        <time>2026-08-21T16:30:04.000Z</time>
        <extensions>
          <ns3:TrackPointExtension>
            <ns3:hr>127</ns3:hr>
            <ns3:cad>73</ns3:cad>
          </ns3:TrackPointExtension>
        </extensions>
      </trkpt>
      <trkpt lat="45.32040822319686412811279296875" lon="-70.89730060659348964691162109375">
        <ele>595.5999755859375</ele>
        <time>2026-08-21T16:30:05.000Z</time>
        <extensions>
          <ns3:TrackPointExtension>
            <ns3:hr>127</ns3:hr>
            <ns3:cad>73</ns3:cad>
          </ns3:TrackPointExtension>
        </extensions>
      </trkpt>
      <trkpt lat="45.3204171918332576751708984375" lon="-70.8973135985434055328369140625">
        <ele>595.5999755859375</ele>
        <time>2026-08-21T16:30:06.000Z</time>
        <extensions>
          <ns3:TrackPointExtension>
            <ns3:hr>126</ns3:hr>
            <ns3:cad>73</ns3:cad>
          </ns3:TrackPointExtension>
        </extensions>
      </trkpt>
      <trkpt lat="45.32042599283158779144287109375" lon="-70.89733061380684375762939453125">
        <ele>595.5999755859375</ele>
        <time>2026-08-21T16:30:07.000Z</time>
        <extensions>
          <ns3:TrackPointExtension>
            <ns3:hr>126</ns3:hr>
            <ns3:cad>73</ns3:cad>
          </ns3:TrackPointExtension>
        </extensions>
      </trkpt>
      <trkpt lat="45.32043772749602794647216796875" lon="-70.89735089801251888275146484375">
        <ele>595.4000244140625</ele>
        <time>2026-08-21T16:30:08.000Z</time>
        <extensions>
          <ns3:TrackPointExtension>
            <ns3:hr>126</ns3:hr>
            <ns3:cad>73</ns3:cad>
          </ns3:TrackPointExtension>
        </extensions>
      </trkpt>
      <trkpt lat="45.3204540722072124481201171875" lon="-70.89737336151301860809326171875">
        <ele>595.4000244140625</ele>
        <time>2026-08-21T16:30:09.000Z</time>
        <extensions>
          <ns3:TrackPointExtension>
            <ns3:hr>126</ns3:hr>
            <ns3:cad>73</ns3:cad>
          </ns3:TrackPointExtension>
        </extensions>
      </trkpt>
      <trkpt lat="45.32046723179519176483154296875" lon="-70.89738794602453708648681640625">
        <ele>595.4000244140625</ele>
        <time>2026-08-21T16:30:10.000Z</time>
        <extensions>
          <ns3:TrackPointExtension>
            <ns3:hr>127</ns3:hr>
            <ns3:cad>73</ns3:cad>
          </ns3:TrackPointExtension>
        </extensions>
      </trkpt>
      <trkpt lat="45.3204805590212345123291015625" lon="-70.8973994292318820953369140625">
        <ele>595.4000244140625</ele>
        <time>2026-08-21T16:30:11.000Z</time>
        <extensions>
          <ns3:TrackPointExtension>
            <ns3:hr>127</ns3:hr>
            <ns3:cad>73</ns3:cad>
          </ns3:TrackPointExtension>
        </extensions>
      </trkpt>
      <trkpt lat="45.32050092704594135284423828125" lon="-70.89741476811468601226806640625">
        <ele>595.4000244140625</ele>
        <time>2026-08-21T16:30:12.000Z</time>
        <extensions>
          <ns3:TrackPointExtension>
            <ns3:hr>127</ns3:hr>
            <ns3:cad>73</ns3:cad>
          </ns3:TrackPointExtension>
        </extensions>
      </trkpt>
      <trkpt lat="45.3205211274325847625732421875" lon="-70.89742231182754039764404296875">
        <ele>595.4000244140625</ele>
        <time>2026-08-21T16:30:13.000Z</time>
        <extensions>
          <ns3:TrackPointExtension>
            <ns3:hr>127</ns3:hr>
            <ns3:cad>72</ns3:cad>
          </ns3:TrackPointExtension>
        </extensions>
      </trkpt>
      <trkpt lat="45.32053939998149871826171875" lon="-70.89742876589298248291015625">
        <ele>595.4000244140625</ele>
        <time>2026-08-21T16:30:14.000Z</time>
        <extensions>
          <ns3:TrackPointExtension>
            <ns3:hr>127</ns3:hr>
            <ns3:cad>72</ns3:cad>
          </ns3:TrackPointExtension>
        </extensions>
      </trkpt>
      <trkpt lat="45.32055272720754146575927734375" lon="-70.89744024910032749176025390625">
        <ele>595.20001220703125</ele>
        <time>2026-08-21T16:30:15.000Z</time>
        <extensions>
          <ns3:TrackPointExtension>
            <ns3:hr>127</ns3:hr>
            <ns3:cad>72</ns3:cad>
          </ns3:TrackPointExtension>
        </extensions>
      </trkpt>
      <trkpt lat="45.32056731171905994415283203125" lon="-70.89746086858212947845458984375">
        <ele>595.20001220703125</ele>
        <time>2026-08-21T16:30:16.000Z</time>
        <extensions>
          <ns3:TrackPointExtension>
            <ns3:hr>127</ns3:hr>
            <ns3:cad>72</ns3:cad>
          </ns3:TrackPointExtension>
        </extensions>
      </trkpt>
      <trkpt lat="45.32058659009635448455810546875" lon="-70.897478722035884857177734375">
        <ele>595</ele>
        <time>2026-08-21T16:30:17.000Z</time>
        <extensions>
          <ns3:TrackPointExtension>
            <ns3:hr>127</ns3:hr>
            <ns3:cad>72</ns3:cad>
          </ns3:TrackPointExtension>
        </extensions>
      </trkpt>
      <trkpt lat="45.320611484348773956298828125" lon="-70.89748936705291271209716796875">
        <ele>595</ele>
        <time>2026-08-21T16:30:18.000Z</time>
        <extensions>
          <ns3:TrackPointExtension>
            <ns3:hr>127</ns3:hr>
            <ns3:cad>73</ns3:cad>
          </ns3:TrackPointExtension>
        </extensions>
      </trkpt>
      <trkpt lat="45.320634953677654266357421875" lon="-70.89750043116509914398193359375">
        <ele>595</ele>
        <time>2026-08-21T16:30:19.000Z</time>
        <extensions>
          <ns3:TrackPointExtension>
            <ns3:hr>127</ns3:hr>
            <ns3:cad>73</ns3:cad>
          </ns3:TrackPointExtension>
        </extensions>
      </trkpt>
      <trkpt lat="45.3206565789878368377685546875" lon="-70.897504873573780059814453125">
        <ele>594.79998779296875</ele>
        <time>2026-08-21T16:30:20.000Z</time>
        <extensions>
          <ns3:TrackPointExtension>
            <ns3:hr>127</ns3:hr>
            <ns3:cad>73</ns3:cad>
          </ns3:TrackPointExtension>
        </extensions>
      </trkpt>
      <trkpt lat="45.32067543826997280120849609375" lon="-70.8974973298609256744384765625">
        <ele>594.79998779296875</ele>
        <time>2026-08-21T16:30:21.000Z</time>
        <extensions>
          <ns3:TrackPointExtension>
            <ns3:hr>126</ns3:hr>
            <ns3:cad>73</ns3:cad>
          </ns3:TrackPointExtension>
        </extensions>
      </trkpt>
      <trkpt lat="45.32068918459117412567138671875" lon="-70.89748132042586803436279296875">
        <ele>594.5999755859375</ele>
        <time>2026-08-21T16:30:22.000Z</time>
        <extensions>
          <ns3:TrackPointExtension>
            <ns3:hr>127</ns3:hr>
            <ns3:cad>73</ns3:cad>
          </ns3:TrackPointExtension>
        </extensions>
      </trkpt>
      <trkpt lat="45.3207041881978511810302734375" lon="-70.89745558798313140869140625">
        <ele>594.4000244140625</ele>
        <time>2026-08-21T16:30:23.000Z</time>
        <extensions>
          <ns3:TrackPointExtension>
            <ns3:hr>127</ns3:hr>
            <ns3:cad>73</ns3:cad>
          </ns3:TrackPointExtension>
        </extensions>
      </trkpt>
      <trkpt lat="45.3207132406532764434814453125" lon="-70.897433795034885406494140625">
        <ele>594.20001220703125</ele>
        <time>2026-08-21T16:30:24.000Z</time>
        <extensions>
          <ns3:TrackPointExtension>
            <ns3:hr>127</ns3:hr>
            <ns3:cad>73</ns3:cad>
          </ns3:TrackPointExtension>
        </extensions>
      </trkpt>
      <trkpt lat="45.32072355039417743682861328125" lon="-70.8974185399711132049560546875">
        <ele>594</ele>
        <time>2026-08-21T16:30:25.000Z</time>
        <extensions>
          <ns3:TrackPointExtension>
            <ns3:hr>127</ns3:hr>
            <ns3:cad>0</ns3:cad>
          </ns3:TrackPointExtension>
        </extensions>
      </trkpt>
      <trkpt lat="45.32073922455310821533203125" lon="-70.8974081464111804962158203125">
        <ele>594</ele>
        <time>2026-08-21T16:30:26.000Z</time>
        <extensions>
          <ns3:TrackPointExtension>
            <ns3:hr>127</ns3:hr>
            <ns3:cad>0</ns3:cad>
          </ns3:TrackPointExtension>
        </extensions>
      </trkpt>
      <trkpt lat="45.32075422815978527069091796875" lon="-70.89739062823355197906494140625">
        <ele>594</ele>
        <time>2026-08-21T16:30:27.000Z</time>
        <extensions>
          <ns3:TrackPointExtension>
            <ns3:hr>127</ns3:hr>
            <ns3:cad>0</ns3:cad>
          </ns3:TrackPointExtension>
        </extensions>
      </trkpt>
      <trkpt lat="45.32076311297714710235595703125" lon="-70.89737671427428722381591796875">
        <ele>594</ele>
        <time>2026-08-21T16:30:28.000Z</time>
        <extensions>
          <ns3:TrackPointExtension>
            <ns3:hr>127</ns3:hr>
            <ns3:cad>0</ns3:cad>
          </ns3:TrackPointExtension>
        </extensions>
      </trkpt>
      <trkpt lat="45.32077803276479244232177734375" lon="-70.89736078865826129913330078125">
        <ele>594.20001220703125</ele>
        <time>2026-08-21T16:30:29.000Z</time>
        <extensions>
          <ns3:TrackPointExtension>
            <ns3:hr>128</ns3:hr>
            <ns3:cad>0</ns3:cad>
          </ns3:TrackPointExtension>
        </extensions>
      </trkpt>
      <trkpt lat="45.3207933716475963592529296875" lon="-70.897341929376125335693359375">
        <ele>594.20001220703125</ele>
        <time>2026-08-21T16:30:30.000Z</time>
        <extensions>
          <ns3:TrackPointExtension>
            <ns3:hr>127</ns3:hr>
            <ns3:cad>0</ns3:cad>
          </ns3:TrackPointExtension>
        </extensions>
      </trkpt>
      <trkpt lat="45.32080502249300479888916015625" lon="-70.89732491411268711090087890625">
        <ele>594.4000244140625</ele>
        <time>2026-08-21T16:30:31.000Z</time>
        <extensions>
          <ns3:TrackPointExtension>
            <ns3:hr>127</ns3:hr>
            <ns3:cad>0</ns3:cad>
          </ns3:TrackPointExtension>
        </extensions>
      </trkpt>
      <trkpt lat="45.3208118118345737457275390625" lon="-70.89730647392570972442626953125">
        <ele>594.4000244140625</ele>
        <time>2026-08-21T16:30:32.000Z</time>
        <extensions>
          <ns3:TrackPointExtension>
            <ns3:hr>127</ns3:hr>
            <ns3:cad>51</ns3:cad>
          </ns3:TrackPointExtension>
        </extensions>
      </trkpt>
      <trkpt lat="45.32081591896712779998779296875" lon="-70.89728183113038539886474609375">
        <ele>594.5999755859375</ele>
        <time>2026-08-21T16:30:33.000Z</time>
        <extensions>
          <ns3:TrackPointExtension>
            <ns3:hr>127</ns3:hr>
            <ns3:cad>51</ns3:cad>
          </ns3:TrackPointExtension>
        </extensions>
      </trkpt>
      <trkpt lat="45.32082128338515758514404296875" lon="-70.89726573787629604339599609375">
        <ele>594.5999755859375</ele>
        <time>2026-08-21T16:30:34.000Z</time>
        <extensions>
          <ns3:TrackPointExtension>
            <ns3:hr>127</ns3:hr>
            <ns3:cad>51</ns3:cad>
          </ns3:TrackPointExtension>
        </extensions>
      </trkpt>
      <trkpt lat="45.32082974910736083984375" lon="-70.89726104401051998138427734375">
        <ele>594.5999755859375</ele>
        <time>2026-08-21T16:30:35.000Z</time>
        <extensions>
          <ns3:TrackPointExtension>
            <ns3:hr>126</ns3:hr>
            <ns3:cad>51</ns3:cad>
          </ns3:TrackPointExtension>
        </extensions>
      </trkpt>
      <trkpt lat="45.32084047794342041015625" lon="-70.89725551195442676544189453125">
        <ele>594.5999755859375</ele>
        <time>2026-08-21T16:30:36.000Z</time>
        <extensions>
          <ns3:TrackPointExtension>
            <ns3:hr>127</ns3:hr>
            <ns3:cad>51</ns3:cad>
          </ns3:TrackPointExtension>
        </extensions>
      </trkpt>
      <trkpt lat="45.32084877602756023406982421875" lon="-70.89724277146160602569580078125">
        <ele>594.79998779296875</ele>
        <time>2026-08-21T16:30:37.000Z</time>
        <extensions>
          <ns3:TrackPointExtension>
            <ns3:hr>127</ns3:hr>
            <ns3:cad>54</ns3:cad>
          </ns3:TrackPointExtension>
        </extensions>
      </trkpt>
      <trkpt lat="45.32086268998682498931884765625" lon="-70.89721946977078914642333984375">
        <ele>594.79998779296875</ele>
        <time>2026-08-21T16:30:38.000Z</time>
        <extensions>
          <ns3:TrackPointExtension>
            <ns3:hr>127</ns3:hr>
            <ns3:cad>54</ns3:cad>
          </ns3:TrackPointExtension>
        </extensions>
      </trkpt>
      <trkpt lat="45.32087727449834346771240234375" lon="-70.89720102958381175994873046875">
        <ele>594.79998779296875</ele>
        <time>2026-08-21T16:30:39.000Z</time>
        <extensions>
          <ns3:TrackPointExtension>
            <ns3:hr>127</ns3:hr>
            <ns3:cad>54</ns3:cad>
          </ns3:TrackPointExtension>
        </extensions>
      </trkpt>
      <trkpt lat="45.32088716514408588409423828125" lon="-70.89717890135943889617919921875">
        <ele>594.5999755859375</ele>
        <time>2026-08-21T16:30:40.000Z</time>
        <extensions>
          <ns3:TrackPointExtension>
            <ns3:hr>127</ns3:hr>
            <ns3:cad>54</ns3:cad>
          </ns3:TrackPointExtension>
        </extensions>
      </trkpt>
      <trkpt lat="45.32089940272271633148193359375" lon="-70.89715828187763690948486328125">
        <ele>594.5999755859375</ele>
        <time>2026-08-21T16:30:41.000Z</time>
        <extensions>
          <ns3:TrackPointExtension>
            <ns3:hr>127</ns3:hr>
            <ns3:cad>54</ns3:cad>
          </ns3:TrackPointExtension>
        </extensions>
      </trkpt>
      <trkpt lat="45.320910550653934478759765625" lon="-70.89714386500418186187744140625">
        <ele>594.4000244140625</ele>
        <time>2026-08-21T16:30:42.000Z</time>
        <extensions>
          <ns3:TrackPointExtension>
            <ns3:hr>128</ns3:hr>
            <ns3:cad>54</ns3:cad>
          </ns3:TrackPointExtension>
        </extensions>
      </trkpt>
      <trkpt lat="45.3209264762699604034423828125" lon="-70.89713648892939090728759765625">
        <ele>594</ele>
        <time>2026-08-21T16:30:43.000Z</time>
        <extensions>
          <ns3:TrackPointExtension>
            <ns3:hr>128</ns3:hr>
            <ns3:cad>54</ns3:cad>
          </ns3:TrackPointExtension>
        </extensions>
      </trkpt>
      <trkpt lat="45.32094567082822322845458984375" lon="-70.897136740386486053466796875">
        <ele>593.79998779296875</ele>
        <time>2026-08-21T16:30:44.000Z</time>
        <extensions>
          <ns3:TrackPointExtension>
            <ns3:hr>128</ns3:hr>
            <ns3:cad>74</ns3:cad>
          </ns3:TrackPointExtension>
        </extensions>
      </trkpt>
      <trkpt lat="45.32096394337713718414306640625" lon="-70.89713665656745433807373046875">
        <ele>593.5999755859375</ele>
        <time>2026-08-21T16:30:45.000Z</time>
        <extensions>
          <ns3:TrackPointExtension>
            <ns3:hr>128</ns3:hr>
            <ns3:cad>74</ns3:cad>
          </ns3:TrackPointExtension>
        </extensions>
      </trkpt>
      <trkpt lat="45.32097601331770420074462890625" lon="-70.89712006039917469024658203125">
        <ele>593.4000244140625</ele>
        <time>2026-08-21T16:30:46.000Z</time>
        <extensions>
          <ns3:TrackPointExtension>
            <ns3:hr>128</ns3:hr>
            <ns3:cad>74</ns3:cad>
          </ns3:TrackPointExtension>
        </extensions>
      </trkpt>
      <trkpt lat="45.3209905140101909637451171875" lon="-70.89709944091737270355224609375">
        <ele>593.4000244140625</ele>
        <time>2026-08-21T16:30:47.000Z</time>
        <extensions>
          <ns3:TrackPointExtension>
            <ns3:hr>128</ns3:hr>
            <ns3:cad>74</ns3:cad>
          </ns3:TrackPointExtension>
        </extensions>
      </trkpt>
      <trkpt lat="45.32100602053105831146240234375" lon="-70.89709072373807430267333984375">
        <ele>593.4000244140625</ele>
        <time>2026-08-21T16:30:48.000Z</time>
        <extensions>
          <ns3:TrackPointExtension>
            <ns3:hr>129</ns3:hr>
            <ns3:cad>74</ns3:cad>
          </ns3:TrackPointExtension>
        </extensions>
      </trkpt>
      <trkpt lat="45.32102362252771854400634765625" lon="-70.897084772586822509765625">
        <ele>593.20001220703125</ele>
        <time>2026-08-21T16:30:49.000Z</time>
        <extensions>
          <ns3:TrackPointExtension>
            <ns3:hr>129</ns3:hr>
            <ns3:cad>74</ns3:cad>
          </ns3:TrackPointExtension>
        </extensions>
      </trkpt>
      <trkpt lat="45.32103619538247585296630859375" lon="-70.89707446284592151641845703125">
        <ele>593.20001220703125</ele>
        <time>2026-08-21T16:30:50.000Z</time>
        <extensions>
          <ns3:TrackPointExtension>
            <ns3:hr>129</ns3:hr>
            <ns3:cad>70</ns3:cad>
          </ns3:TrackPointExtension>
        </extensions>
      </trkpt>
      <trkpt lat="45.3210525400936603546142578125" lon="-70.89706172235310077667236328125">
        <ele>593.20001220703125</ele>
        <time>2026-08-21T16:30:51.000Z</time>
        <extensions>
          <ns3:TrackPointExtension>
            <ns3:hr>129</ns3:hr>
            <ns3:cad>70</ns3:cad>
          </ns3:TrackPointExtension>
        </extensions>
      </trkpt>
      <trkpt lat="45.3210669569671154022216796875" lon="-70.89706272818148136138916015625">
        <ele>593</ele>
        <time>2026-08-21T16:30:52.000Z</time>
        <extensions>
          <ns3:TrackPointExtension>
            <ns3:hr>128</ns3:hr>
            <ns3:cad>70</ns3:cad>
          </ns3:TrackPointExtension>
        </extensions>
      </trkpt>
      <trkpt lat="45.3210805356502532958984375" lon="-70.8970688469707965850830078125">
        <ele>592.79998779296875</ele>
        <time>2026-08-21T16:30:53.000Z</time>
        <extensions>
          <ns3:TrackPointExtension>
            <ns3:hr>127</ns3:hr>
            <ns3:cad>70</ns3:cad>
          </ns3:TrackPointExtension>
        </extensions>
      </trkpt>
      <trkpt lat="45.3210926055908203125" lon="-70.89707831852138042449951171875">
        <ele>592.79998779296875</ele>
        <time>2026-08-21T16:30:54.000Z</time>
        <extensions>
          <ns3:TrackPointExtension>
            <ns3:hr>127</ns3:hr>
            <ns3:cad>71</ns3:cad>
          </ns3:TrackPointExtension>
        </extensions>
      </trkpt>
      <trkpt lat="45.3211068548262119293212890625" lon="-70.89708435349166393280029296875">
        <ele>592.79998779296875</ele>
        <time>2026-08-21T16:30:55.000Z</time>
        <extensions>
          <ns3:TrackPointExtension>
            <ns3:hr>126</ns3:hr>
            <ns3:cad>71</ns3:cad>
          </ns3:TrackPointExtension>
        </extensions>
      </trkpt>
      <trkpt lat="45.3211219422519207000732421875" lon="-70.8970866166055202484130859375">
        <ele>592.5999755859375</ele>
        <time>2026-08-21T16:30:56.000Z</time>
        <extensions>
          <ns3:TrackPointExtension>
            <ns3:hr>126</ns3:hr>
            <ns3:cad>71</ns3:cad>
          </ns3:TrackPointExtension>
        </extensions>
      </trkpt>
      <trkpt lat="45.3211380355060100555419921875" lon="-70.8970839343965053558349609375">
        <ele>592.5999755859375</ele>
        <time>2026-08-21T16:30:57.000Z</time>
        <extensions>
          <ns3:TrackPointExtension>
            <ns3:hr>126</ns3:hr>
            <ns3:cad>71</ns3:cad>
          </ns3:TrackPointExtension>
        </extensions>
      </trkpt>
      <trkpt lat="45.32115672715008258819580078125" lon="-70.897082425653934478759765625">
        <ele>592.5999755859375</ele>
        <time>2026-08-21T16:30:58.000Z</time>
        <extensions>
          <ns3:TrackPointExtension>
            <ns3:hr>126</ns3:hr>
            <ns3:cad>71</ns3:cad>
          </ns3:TrackPointExtension>
        </extensions>
      </trkpt>
      <trkpt lat="45.32117466442286968231201171875" lon="-70.89707731269299983978271484375">
        <ele>592.5999755859375</ele>
        <time>2026-08-21T16:30:59.000Z</time>
        <extensions>
          <ns3:TrackPointExtension>
            <ns3:hr>125</ns3:hr>
            <ns3:cad>73</ns3:cad>
          </ns3:TrackPointExtension>
        </extensions>
      </trkpt>
      <trkpt lat="45.32119411043822765350341796875" lon="-70.897067002952098846435546875">
        <ele>592.5999755859375</ele>
        <time>2026-08-21T16:31:00.000Z</time>
        <extensions>
          <ns3:TrackPointExtension>
            <ns3:hr>125</ns3:hr>
            <ns3:cad>73</ns3:cad>
          </ns3:TrackPointExtension>
        </extensions>
      </trkpt>
      <trkpt lat="45.321208275854587554931640625" lon="-70.89705518446862697601318359375">
        <ele>592.5999755859375</ele>
        <time>2026-08-21T16:31:01.000Z</time>
        <extensions>
          <ns3:TrackPointExtension>
            <ns3:hr>125</ns3:hr>
            <ns3:cad>73</ns3:cad>
          </ns3:TrackPointExtension>
        </extensions>
      </trkpt>
      <trkpt lat="45.32122160308063030242919921875" lon="-70.89704529382288455963134765625">
        <ele>592.5999755859375</ele>
        <time>2026-08-21T16:31:02.000Z</time>
        <extensions>
          <ns3:TrackPointExtension>
            <ns3:hr>125</ns3:hr>
            <ns3:cad>72</ns3:cad>
          </ns3:TrackPointExtension>
        </extensions>
      </trkpt>
      <trkpt lat="45.32123534940183162689208984375" lon="-70.8970386721193790435791015625">
        <ele>592.5999755859375</ele>
        <time>2026-08-21T16:31:03.000Z</time>
        <extensions>
          <ns3:TrackPointExtension>
            <ns3:hr>125</ns3:hr>
            <ns3:cad>72</ns3:cad>
          </ns3:TrackPointExtension>
        </extensions>
      </trkpt>
      <trkpt lat="45.3212493471801280975341796875" lon="-70.89703540317714214324951171875">
        <ele>592.79998779296875</ele>
        <time>2026-08-21T16:31:04.000Z</time>
        <extensions>
          <ns3:TrackPointExtension>
            <ns3:hr>125</ns3:hr>
            <ns3:cad>73</ns3:cad>
          </ns3:TrackPointExtension>
        </extensions>
      </trkpt>
      <trkpt lat="45.32126183621585369110107421875" lon="-70.89703657664358615875244140625">
        <ele>592.79998779296875</ele>
        <time>2026-08-21T16:31:05.000Z</time>
        <extensions>
          <ns3:TrackPointExtension>
            <ns3:hr>125</ns3:hr>
            <ns3:cad>73</ns3:cad>
          </ns3:TrackPointExtension>
        </extensions>
      </trkpt>
      <trkpt lat="45.3212781809270381927490234375" lon="-70.89703439734876155853271484375">
        <ele>593</ele>
        <time>2026-08-21T16:31:06.000Z</time>
        <extensions>
          <ns3:TrackPointExtension>
            <ns3:hr>125</ns3:hr>
            <ns3:cad>73</ns3:cad>
          </ns3:TrackPointExtension>
        </extensions>
      </trkpt>
      <trkpt lat="45.321296118199825286865234375" lon="-70.897037498652935028076171875">
        <ele>593</ele>
        <time>2026-08-21T16:31:07.000Z</time>
        <extensions>
          <ns3:TrackPointExtension>
            <ns3:hr>125</ns3:hr>
            <ns3:cad>73</ns3:cad>
          </ns3:TrackPointExtension>
        </extensions>
      </trkpt>
      <trkpt lat="45.32130927778780460357666015625" lon="-70.8970504067838191986083984375">
        <ele>593</ele>
        <time>2026-08-21T16:31:08.000Z</time>
        <extensions>
          <ns3:TrackPointExtension>
            <ns3:hr>125</ns3:hr>
            <ns3:cad>73</ns3:cad>
          </ns3:TrackPointExtension>
        </extensions>
      </trkpt>
      <trkpt lat="45.32132000662386417388916015625" lon="-70.897068344056606292724609375">
        <ele>593</ele>
        <time>2026-08-21T16:31:09.000Z</time>
        <extensions>
          <ns3:TrackPointExtension>
            <ns3:hr>125</ns3:hr>
            <ns3:cad>0</ns3:cad>
          </ns3:TrackPointExtension>
        </extensions>
      </trkpt>
      <trkpt lat="45.32132822088897228240966796875" lon="-70.8970839343965053558349609375">
        <ele>593</ele>
        <time>2026-08-21T16:31:10.000Z</time>
        <extensions>
          <ns3:TrackPointExtension>
            <ns3:hr>125</ns3:hr>
            <ns3:cad>0</ns3:cad>
          </ns3:TrackPointExtension>
        </extensions>
      </trkpt>
      <trkpt lat="45.32133995555341243743896484375" lon="-70.89709793217480182647705078125">
        <ele>593</ele>
        <time>2026-08-21T16:31:11.000Z</time>
        <extensions>
          <ns3:TrackPointExtension>
            <ns3:hr>126</ns3:hr>
            <ns3:cad>0</ns3:cad>
          </ns3:TrackPointExtension>
        </extensions>
      </trkpt>
      <trkpt lat="45.321357809007167816162109375" lon="-70.89710983447730541229248046875">
        <ele>593</ele>
        <time>2026-08-21T16:31:12.000Z</time>
        <extensions>
          <ns3:TrackPointExtension>
            <ns3:hr>126</ns3:hr>
            <ns3:cad>73</ns3:cad>
          </ns3:TrackPointExtension>
        </extensions>
      </trkpt>
      <trkpt lat="45.32137348316609859466552734375" lon="-70.89711754582822322845458984375">
        <ele>593</ele>
        <time>2026-08-21T16:31:13.000Z</time>
        <extensions>
          <ns3:TrackPointExtension>
            <ns3:hr>126</ns3:hr>
            <ns3:cad>73</ns3:cad>
          </ns3:TrackPointExtension>
        </extensions>
      </trkpt>
      <trkpt lat="45.32138966023921966552734375" lon="-70.89712039567530155181884765625">
        <ele>593</ele>
        <time>2026-08-21T16:31:14.000Z</time>
        <extensions>
          <ns3:TrackPointExtension>
            <ns3:hr>126</ns3:hr>
            <ns3:cad>73</ns3:cad>
          </ns3:TrackPointExtension>
        </extensions>
      </trkpt>
      <trkpt lat="45.32140499912202358245849609375" lon="-70.89712073095142841339111328125">
        <ele>593</ele>
        <time>2026-08-21T16:31:15.000Z</time>
        <extensions>
          <ns3:TrackPointExtension>
            <ns3:hr>127</ns3:hr>
            <ns3:cad>73</ns3:cad>
          </ns3:TrackPointExtension>
        </extensions>
      </trkpt>
      <trkpt lat="45.3214226849377155303955078125" lon="-70.89711754582822322845458984375">
        <ele>593</ele>
        <time>2026-08-21T16:31:16.000Z</time>
        <extensions>
          <ns3:TrackPointExtension>
            <ns3:hr>128</ns3:hr>
            <ns3:cad>73</ns3:cad>
          </ns3:TrackPointExtension>
        </extensions>
      </trkpt>
      <trkpt lat="45.32144322060048580169677734375" lon="-70.8971110917627811431884765625">
        <ele>592.79998779296875</ele>
        <time>2026-08-21T16:31:17.000Z</time>
        <extensions>
          <ns3:TrackPointExtension>
            <ns3:hr>129</ns3:hr>
            <ns3:cad>75</ns3:cad>
          </ns3:TrackPointExtension>
        </extensions>
      </trkpt>
      <trkpt lat="45.32145696692168712615966796875" lon="-70.89710346423089504241943359375">
        <ele>592.79998779296875</ele>
        <time>2026-08-21T16:31:18.000Z</time>
        <extensions>
          <ns3:TrackPointExtension>
            <ns3:hr>129</ns3:hr>
            <ns3:cad>75</ns3:cad>
          </ns3:TrackPointExtension>
        </extensions>
      </trkpt>
      <trkpt lat="45.3214749880135059356689453125" lon="-70.89709608815610408782958984375">
        <ele>592.79998779296875</ele>
        <time>2026-08-21T16:31:19.000Z</time>
        <extensions>
          <ns3:TrackPointExtension>
            <ns3:hr>130</ns3:hr>
            <ns3:cad>75</ns3:cad>
          </ns3:TrackPointExtension>
        </extensions>
      </trkpt>
      <trkpt lat="45.32149787060916423797607421875" lon="-70.89710128493607044219970703125">
        <ele>592.79998779296875</ele>
        <time>2026-08-21T16:31:20.000Z</time>
        <extensions>
          <ns3:TrackPointExtension>
            <ns3:hr>130</ns3:hr>
            <ns3:cad>75</ns3:cad>
          </ns3:TrackPointExtension>
        </extensions>
      </trkpt>
      <trkpt lat="45.3215122036635875701904296875" lon="-70.89710497297346591949462890625">
        <ele>592.79998779296875</ele>
        <time>2026-08-21T16:31:21.000Z</time>
        <extensions>
          <ns3:TrackPointExtension>
            <ns3:hr>129</ns3:hr>
            <ns3:cad>0</ns3:cad>
          </ns3:TrackPointExtension>
        </extensions>
      </trkpt>
      <trkpt lat="45.3215256147086620330810546875" lon="-70.89709659107029438018798828125">
        <ele>592.79998779296875</ele>
        <time>2026-08-21T16:31:22.000Z</time>
        <extensions>
          <ns3:TrackPointExtension>
            <ns3:hr>129</ns3:hr>
            <ns3:cad>0</ns3:cad>
          </ns3:TrackPointExtension>
        </extensions>
      </trkpt>
      <trkpt lat="45.321539528667926788330078125" lon="-70.89709089137613773345947265625">
        <ele>592.5999755859375</ele>
        <time>2026-08-21T16:31:23.000Z</time>
        <extensions>
          <ns3:TrackPointExtension>
            <ns3:hr>129</ns3:hr>
            <ns3:cad>0</ns3:cad>
          </ns3:TrackPointExtension>
        </extensions>
      </trkpt>
      <trkpt lat="45.32155570574104785919189453125" lon="-70.89709457941353321075439453125">
        <ele>592.4000244140625</ele>
        <time>2026-08-21T16:31:24.000Z</time>
        <extensions>
          <ns3:TrackPointExtension>
            <ns3:hr>129</ns3:hr>
            <ns3:cad>0</ns3:cad>
          </ns3:TrackPointExtension>
        </extensions>
      </trkpt>
      <trkpt lat="45.321577750146389007568359375" lon="-70.8970966748893260955810546875">
        <ele>592</ele>
        <time>2026-08-21T16:31:25.000Z</time>
        <extensions>
          <ns3:TrackPointExtension>
            <ns3:hr>130</ns3:hr>
            <ns3:cad>0</ns3:cad>
          </ns3:TrackPointExtension>
        </extensions>
      </trkpt>
      <trkpt lat="45.32160113565623760223388671875" lon="-70.8970980159938335418701171875">
        <ele>591.79998779296875</ele>
        <time>2026-08-21T16:31:26.000Z</time>
        <extensions>
          <ns3:TrackPointExtension>
            <ns3:hr>130</ns3:hr>
            <ns3:cad>0</ns3:cad>
          </ns3:TrackPointExtension>
        </extensions>
      </trkpt>
      <trkpt lat="45.32162301242351531982421875" lon="-70.89709558524191379547119140625">
        <ele>591.4000244140625</ele>
        <time>2026-08-21T16:31:27.000Z</time>
        <extensions>
          <ns3:TrackPointExtension>
            <ns3:hr>130</ns3:hr>
            <ns3:cad>0</ns3:cad>
          </ns3:TrackPointExtension>
        </extensions>
      </trkpt>
      <trkpt lat="45.32163667492568492889404296875" lon="-70.89709818363189697265625">
        <ele>591.4000244140625</ele>
        <time>2026-08-21T16:31:28.000Z</time>
        <extensions>
          <ns3:TrackPointExtension>
            <ns3:hr>130</ns3:hr>
            <ns3:cad>0</ns3:cad>
          </ns3:TrackPointExtension>
        </extensions>
      </trkpt>
      <trkpt lat="45.32165209762752056121826171875" lon="-70.89711092412471771240234375">
        <ele>591.20001220703125</ele>
        <time>2026-08-21T16:31:29.000Z</time>
        <extensions>
          <ns3:TrackPointExtension>
            <ns3:hr>130</ns3:hr>
            <ns3:cad>0</ns3:cad>
          </ns3:TrackPointExtension>
        </extensions>
      </trkpt>
      <trkpt lat="45.32167489640414714813232421875" lon="-70.8971231617033481597900390625">
        <ele>591.4000244140625</ele>
        <time>2026-08-21T16:31:30.000Z</time>
        <extensions>
          <ns3:TrackPointExtension>
            <ns3:hr>130</ns3:hr>
            <ns3:cad>0</ns3:cad>
          </ns3:TrackPointExtension>
        </extensions>
      </trkpt>
      <trkpt lat="45.32168470323085784912109375" lon="-70.8971342258155345916748046875">
        <ele>591.4000244140625</ele>
        <time>2026-08-21T16:31:31.000Z</time>
        <extensions>
          <ns3:TrackPointExtension>
            <ns3:hr>130</ns3:hr>
            <ns3:cad>0</ns3:cad>
          </ns3:TrackPointExtension>
        </extensions>
      </trkpt>
      <trkpt lat="45.32169735990464687347412109375" lon="-70.89714847505092620849609375">
        <ele>591.4000244140625</ele>
        <time>2026-08-21T16:31:32.000Z</time>
        <extensions>
          <ns3:TrackPointExtension>
            <ns3:hr>131</ns3:hr>
            <ns3:cad>0</ns3:cad>
          </ns3:TrackPointExtension>
        </extensions>
      </trkpt>
      <trkpt lat="45.3217093460261821746826171875" lon="-70.8971654064953327178955078125">
        <ele>591.5999755859375</ele>
        <time>2026-08-21T16:31:33.000Z</time>
        <extensions>
          <ns3:TrackPointExtension>
            <ns3:hr>132</ns3:hr>
            <ns3:cad>0</ns3:cad>
          </ns3:TrackPointExtension>
        </extensions>
      </trkpt>
      <trkpt lat="45.3217210806906223297119140625" lon="-70.89717839844524860382080078125">
        <ele>591.5999755859375</ele>
        <time>2026-08-21T16:31:34.000Z</time>
        <extensions>
          <ns3:TrackPointExtension>
            <ns3:hr>133</ns3:hr>
            <ns3:cad>0</ns3:cad>
          </ns3:TrackPointExtension>
        </extensions>
      </trkpt>
      <trkpt lat="45.32173893414437770843505859375" lon="-70.89719315059483051300048828125">
        <ele>591.79998779296875</ele>
        <time>2026-08-21T16:31:35.000Z</time>
        <extensions>
          <ns3:TrackPointExtension>
            <ns3:hr>133</ns3:hr>
            <ns3:cad>0</ns3:cad>
          </ns3:TrackPointExtension>
        </extensions>
      </trkpt>
      <trkpt lat="45.32176173292100429534912109375" lon="-70.89719985611736774444580078125">
        <ele>591.5999755859375</ele>
        <time>2026-08-21T16:31:36.000Z</time>
        <extensions>
          <ns3:TrackPointExtension>
            <ns3:hr>134</ns3:hr>
            <ns3:cad>0</ns3:cad>
          </ns3:TrackPointExtension>
        </extensions>
      </trkpt>
      <trkpt lat="45.321784950792789459228515625" lon="-70.89720589108765125274658203125">
        <ele>591.5999755859375</ele>
        <time>2026-08-21T16:31:37.000Z</time>
        <extensions>
          <ns3:TrackPointExtension>
            <ns3:hr>135</ns3:hr>
            <ns3:cad>0</ns3:cad>
          </ns3:TrackPointExtension>
        </extensions>
      </trkpt>
      <trkpt lat="45.32179945148527622222900390625" lon="-70.89721226133406162261962890625">
        <ele>591.5999755859375</ele>
        <time>2026-08-21T16:31:38.000Z</time>
        <extensions>
          <ns3:TrackPointExtension>
            <ns3:hr>135</ns3:hr>
            <ns3:cad>0</ns3:cad>
          </ns3:TrackPointExtension>
        </extensions>
      </trkpt>
      <trkpt lat="45.32181303016841411590576171875" lon="-70.8972267620265483856201171875">
        <ele>591.4000244140625</ele>
        <time>2026-08-21T16:31:39.000Z</time>
        <extensions>
          <ns3:TrackPointExtension>
            <ns3:hr>135</ns3:hr>
            <ns3:cad>0</ns3:cad>
          </ns3:TrackPointExtension>
        </extensions>
      </trkpt>
      <trkpt lat="45.32182543538510799407958984375" lon="-70.89724293909966945648193359375">
        <ele>591.4000244140625</ele>
        <time>2026-08-21T16:31:40.000Z</time>
        <extensions>
          <ns3:TrackPointExtension>
            <ns3:hr>136</ns3:hr>
            <ns3:cad>0</ns3:cad>
          </ns3:TrackPointExtension>
        </extensions>
      </trkpt>
      <trkpt lat="45.3218396008014678955078125" lon="-70.89725584723055362701416015625">
        <ele>591.20001220703125</ele>
        <time>2026-08-21T16:31:41.000Z</time>
        <extensions>
          <ns3:TrackPointExtension>
            <ns3:hr>136</ns3:hr>
            <ns3:cad>0</ns3:cad>
          </ns3:TrackPointExtension>
        </extensions>
      </trkpt>
      <trkpt lat="45.3218545205891132354736328125" lon="-70.89727043174207210540771484375">
        <ele>591.20001220703125</ele>
        <time>2026-08-21T16:31:42.000Z</time>
        <extensions>
          <ns3:TrackPointExtension>
            <ns3:hr>136</ns3:hr>
            <ns3:cad>0</ns3:cad>
          </ns3:TrackPointExtension>
        </extensions>
      </trkpt>
      <trkpt lat="45.32187790609896183013916015625" lon="-70.89728937484323978424072265625">
        <ele>591.20001220703125</ele>
        <time>2026-08-21T16:31:43.000Z</time>
        <extensions>
          <ns3:TrackPointExtension>
            <ns3:hr>136</ns3:hr>
            <ns3:cad>75</ns3:cad>
          </ns3:TrackPointExtension>
        </extensions>
      </trkpt>
      <trkpt lat="45.32189659774303436279296875" lon="-70.89730412699282169342041015625">
        <ele>591</ele>
        <time>2026-08-21T16:31:44.000Z</time>
        <extensions>
          <ns3:TrackPointExtension>
            <ns3:hr>136</ns3:hr>
            <ns3:cad>75</ns3:cad>
          </ns3:TrackPointExtension>
        </extensions>
      </trkpt>
      <trkpt lat="45.3219192288815975189208984375" lon="-70.89731971733272075653076171875">
        <ele>591</ele>
        <time>2026-08-21T16:31:45.000Z</time>
        <extensions>
          <ns3:TrackPointExtension>
            <ns3:hr>135</ns3:hr>
            <ns3:cad>77</ns3:cad>
          </ns3:TrackPointExtension>
        </extensions>
      </trkpt>
      <trkpt lat="45.32193775288760662078857421875" lon="-70.89732742868363857269287109375">
        <ele>591</ele>
        <time>2026-08-21T16:31:46.000Z</time>
        <extensions>
          <ns3:TrackPointExtension>
            <ns3:hr>135</ns3:hr>
            <ns3:cad>77</ns3:cad>
          </ns3:TrackPointExtension>
        </extensions>
      </trkpt>
      <trkpt lat="45.32195904292166233062744140625" lon="-70.89732826687395572662353515625">
        <ele>591</ele>
        <time>2026-08-21T16:31:47.000Z</time>
        <extensions>
          <ns3:TrackPointExtension>
            <ns3:hr>135</ns3:hr>
            <ns3:cad>77</ns3:cad>
          </ns3:TrackPointExtension>
        </extensions>
      </trkpt>
      <trkpt lat="45.321974717080593109130859375" lon="-70.8973333798348903656005859375">
        <ele>591</ele>
        <time>2026-08-21T16:31:48.000Z</time>
        <extensions>
          <ns3:TrackPointExtension>
            <ns3:hr>135</ns3:hr>
            <ns3:cad>79</ns3:cad>
          </ns3:TrackPointExtension>
        </extensions>
      </trkpt>
      <trkpt lat="45.32199055887758731842041015625" lon="-70.897337235510349273681640625">
        <ele>591.20001220703125</ele>
        <time>2026-08-21T16:31:49.000Z</time>
        <extensions>
          <ns3:TrackPointExtension>
            <ns3:hr>135</ns3:hr>
            <ns3:cad>79</ns3:cad>
          </ns3:TrackPointExtension>
        </extensions>
      </trkpt>
      <trkpt lat="45.32200832851231098175048828125" lon="-70.89732742868363857269287109375">
        <ele>591.20001220703125</ele>
        <time>2026-08-21T16:31:50.000Z</time>
        <extensions>
          <ns3:TrackPointExtension>
            <ns3:hr>135</ns3:hr>
            <ns3:cad>79</ns3:cad>
          </ns3:TrackPointExtension>
        </extensions>
      </trkpt>
      <trkpt lat="45.32202609814703464508056640625" lon="-70.89731745421886444091796875">
        <ele>591.20001220703125</ele>
        <time>2026-08-21T16:31:51.000Z</time>
        <extensions>
          <ns3:TrackPointExtension>
            <ns3:hr>135</ns3:hr>
            <ns3:cad>79</ns3:cad>
          </ns3:TrackPointExtension>
        </extensions>
      </trkpt>
      <trkpt lat="45.322041772305965423583984375" lon="-70.89731653220951557159423828125">
        <ele>591.20001220703125</ele>
        <time>2026-08-21T16:31:52.000Z</time>
        <extensions>
          <ns3:TrackPointExtension>
            <ns3:hr>135</ns3:hr>
            <ns3:cad>79</ns3:cad>
          </ns3:TrackPointExtension>
        </extensions>
      </trkpt>
      <trkpt lat="45.3220573626458644866943359375" lon="-70.89732013642787933349609375">
        <ele>591.20001220703125</ele>
        <time>2026-08-21T16:31:53.000Z</time>
        <extensions>
          <ns3:TrackPointExtension>
            <ns3:hr>135</ns3:hr>
            <ns3:cad>55</ns3:cad>
          </ns3:TrackPointExtension>
        </extensions>
      </trkpt>
      <trkpt lat="45.32207219861447811126708984375" lon="-70.89732105843722820281982421875">
        <ele>591.20001220703125</ele>
        <time>2026-08-21T16:31:54.000Z</time>
        <extensions>
          <ns3:TrackPointExtension>
            <ns3:hr>135</ns3:hr>
            <ns3:cad>55</ns3:cad>
          </ns3:TrackPointExtension>
        </extensions>
      </trkpt>
      <trkpt lat="45.32208410091698169708251953125" lon="-70.89732541702687740325927734375">
        <ele>591.20001220703125</ele>
        <time>2026-08-21T16:31:55.000Z</time>
        <extensions>
          <ns3:TrackPointExtension>
            <ns3:hr>134</ns3:hr>
            <ns3:cad>55</ns3:cad>
          </ns3:TrackPointExtension>
        </extensions>
      </trkpt>
      <trkpt lat="45.32209717668592929840087890625" lon="-70.89733145199716091156005859375">
        <ele>591.20001220703125</ele>
        <time>2026-08-21T16:31:56.000Z</time>
        <extensions>
          <ns3:TrackPointExtension>
            <ns3:hr>134</ns3:hr>
            <ns3:cad>55</ns3:cad>
          </ns3:TrackPointExtension>
        </extensions>
      </trkpt>
      <trkpt lat="45.32211042009294033050537109375" lon="-70.8973380737006664276123046875">
        <ele>591.20001220703125</ele>
        <time>2026-08-21T16:31:57.000Z</time>
        <extensions>
          <ns3:TrackPointExtension>
            <ns3:hr>134</ns3:hr>
            <ns3:cad>57</ns3:cad>
          </ns3:TrackPointExtension>
        </extensions>
      </trkpt>
      <trkpt lat="45.32211846671998500823974609375" lon="-70.8973481319844722747802734375">
        <ele>591.20001220703125</ele>
        <time>2026-08-21T16:31:58.000Z</time>
        <extensions>
          <ns3:TrackPointExtension>
            <ns3:hr>134</ns3:hr>
            <ns3:cad>57</ns3:cad>
          </ns3:TrackPointExtension>
        </extensions>
      </trkpt>
      <trkpt lat="45.3221281059086322784423828125" lon="-70.897358022630214691162109375">
        <ele>591</ele>
        <time>2026-08-21T16:31:59.000Z</time>
        <extensions>
          <ns3:TrackPointExtension>
            <ns3:hr>134</ns3:hr>
            <ns3:cad>57</ns3:cad>
          </ns3:TrackPointExtension>
        </extensions>
      </trkpt>
      <trkpt lat="45.32213355414569377899169921875" lon="-70.8973722718656063079833984375">
        <ele>591</ele>
        <time>2026-08-21T16:32:00.000Z</time>
        <extensions>
          <ns3:TrackPointExtension>
            <ns3:hr>134</ns3:hr>
            <ns3:cad>57</ns3:cad>
          </ns3:TrackPointExtension>
        </extensions>
      </trkpt>
      <trkpt lat="45.3221391700208187103271484375" lon="-70.8973840065300464630126953125">
        <ele>591</ele>
        <time>2026-08-21T16:32:01.000Z</time>
        <extensions>
          <ns3:TrackPointExtension>
            <ns3:hr>134</ns3:hr>
            <ns3:cad>57</ns3:cad>
          </ns3:TrackPointExtension>
        </extensions>
      </trkpt>
      <trkpt lat="45.3221453726291656494140625" lon="-70.89739565737545490264892578125">
        <ele>591</ele>
        <time>2026-08-21T16:32:02.000Z</time>
        <extensions>
          <ns3:TrackPointExtension>
            <ns3:hr>134</ns3:hr>
            <ns3:cad>57</ns3:cad>
          </ns3:TrackPointExtension>
        </extensions>
      </trkpt>
      <trkpt lat="45.32215383835136890411376953125" lon="-70.89740973897278308868408203125">
        <ele>590.79998779296875</ele>
        <time>2026-08-21T16:32:03.000Z</time>
        <extensions>
          <ns3:TrackPointExtension>
            <ns3:hr>133</ns3:hr>
            <ns3:cad>57</ns3:cad>
          </ns3:TrackPointExtension>
        </extensions>
      </trkpt>
      <trkpt lat="45.32216456718742847442626953125" lon="-70.89743320830166339874267578125">
        <ele>590.79998779296875</ele>
        <time>2026-08-21T16:32:04.000Z</time>
        <extensions>
          <ns3:TrackPointExtension>
            <ns3:hr>132</ns3:hr>
            <ns3:cad>57</ns3:cad>
          </ns3:TrackPointExtension>
        </extensions>
      </trkpt>
      <trkpt lat="45.32217412255704402923583984375" lon="-70.897446535527706146240234375">
        <ele>590.79998779296875</ele>
        <time>2026-08-21T16:32:05.000Z</time>
        <extensions>
          <ns3:TrackPointExtension>
            <ns3:hr>132</ns3:hr>
            <ns3:cad>0</ns3:cad>
          </ns3:TrackPointExtension>
        </extensions>
      </trkpt>
      <trkpt lat="45.322182588279247283935546875" lon="-70.89746153913438320159912109375">
        <ele>590.79998779296875</ele>
        <time>2026-08-21T16:32:06.000Z</time>
        <extensions>
          <ns3:TrackPointExtension>
            <ns3:hr>131</ns3:hr>
            <ns3:cad>0</ns3:cad>
          </ns3:TrackPointExtension>
        </extensions>
      </trkpt>
      <trkpt lat="45.3221911378204822540283203125" lon="-70.8974772132933139801025390625">
        <ele>590.5999755859375</ele>
        <time>2026-08-21T16:32:07.000Z</time>
        <extensions>
          <ns3:TrackPointExtension>
            <ns3:hr>131</ns3:hr>
            <ns3:cad>0</ns3:cad>
          </ns3:TrackPointExtension>
        </extensions>
      </trkpt>
      <trkpt lat="45.322196669876575469970703125" lon="-70.8975010178983211517333984375">
        <ele>590.4000244140625</ele>
        <time>2026-08-21T16:32:08.000Z</time>
        <extensions>
          <ns3:TrackPointExtension>
            <ns3:hr>131</ns3:hr>
            <ns3:cad>0</ns3:cad>
          </ns3:TrackPointExtension>
        </extensions>
      </trkpt>
      <trkpt lat="45.32220832072198390960693359375" lon="-70.8975191228091716766357421875">
        <ele>590.4000244140625</ele>
        <time>2026-08-21T16:32:09.000Z</time>
        <extensions>
          <ns3:TrackPointExtension>
            <ns3:hr>131</ns3:hr>
            <ns3:cad>0</ns3:cad>
          </ns3:TrackPointExtension>
        </extensions>
      </trkpt>
      <trkpt lat="45.32221636734902858734130859375" lon="-70.897528342902660369873046875">
        <ele>590.20001220703125</ele>
        <time>2026-08-21T16:32:10.000Z</time>
        <extensions>
          <ns3:TrackPointExtension>
            <ns3:hr>131</ns3:hr>
            <ns3:cad>69</ns3:cad>
          </ns3:TrackPointExtension>
        </extensions>
      </trkpt>
      <trkpt lat="45.322222150862216949462890625" lon="-70.89753965847194194793701171875">
        <ele>590.20001220703125</ele>
        <time>2026-08-21T16:32:11.000Z</time>
        <extensions>
          <ns3:TrackPointExtension>
            <ns3:hr>130</ns3:hr>
            <ns3:cad>69</ns3:cad>
          </ns3:TrackPointExtension>
        </extensions>
      </trkpt>
      <trkpt lat="45.32222491689026355743408203125" lon="-70.89755927212536334991455078125">
        <ele>590.4000244140625</ele>
        <time>2026-08-21T16:32:12.000Z</time>
        <extensions>
          <ns3:TrackPointExtension>
            <ns3:hr>131</ns3:hr>
            <ns3:cad>69</ns3:cad>
          </ns3:TrackPointExtension>
        </extensions>
      </trkpt>
      <trkpt lat="45.32222860492765903472900390625" lon="-70.89757335372269153594970703125">
        <ele>590.4000244140625</ele>
        <time>2026-08-21T16:32:13.000Z</time>
        <extensions>
          <ns3:TrackPointExtension>
            <ns3:hr>131</ns3:hr>
            <ns3:cad>69</ns3:cad>
          </ns3:TrackPointExtension>
        </extensions>
      </trkpt>
      <trkpt lat="45.32223162241280078887939453125" lon="-70.89759078808128833770751953125">
        <ele>590.5999755859375</ele>
        <time>2026-08-21T16:32:14.000Z</time>
        <extensions>
          <ns3:TrackPointExtension>
            <ns3:hr>130</ns3:hr>
            <ns3:cad>55</ns3:cad>
          </ns3:TrackPointExtension>
        </extensions>
      </trkpt>
      <trkpt lat="45.32223883084952831268310546875" lon="-70.897608138620853424072265625">
        <ele>591</ele>
        <time>2026-08-21T16:32:15.000Z</time>
        <extensions>
          <ns3:TrackPointExtension>
            <ns3:hr>131</ns3:hr>
            <ns3:cad>55</ns3:cad>
          </ns3:TrackPointExtension>
        </extensions>
      </trkpt>
      <trkpt lat="45.32224385999143123626708984375" lon="-70.8976260758936405181884765625">
        <ele>591.20001220703125</ele>
        <time>2026-08-21T16:32:16.000Z</time>
        <extensions>
          <ns3:TrackPointExtension>
            <ns3:hr>131</ns3:hr>
            <ns3:cad>55</ns3:cad>
          </ns3:TrackPointExtension>
        </extensions>
      </trkpt>
      <trkpt lat="45.32225408591330051422119140625" lon="-70.8976341225206851959228515625">
        <ele>591.4000244140625</ele>
        <time>2026-08-21T16:32:17.000Z</time>
        <extensions>
          <ns3:TrackPointExtension>
            <ns3:hr>130</ns3:hr>
            <ns3:cad>55</ns3:cad>
          </ns3:TrackPointExtension>
        </extensions>
      </trkpt>
      <trkpt lat="45.32226984389126300811767578125" lon="-70.897648371756076812744140625">
        <ele>591.4000244140625</ele>
        <time>2026-08-21T16:32:18.000Z</time>
        <extensions>
          <ns3:TrackPointExtension>
            <ns3:hr>130</ns3:hr>
            <ns3:cad>55</ns3:cad>
          </ns3:TrackPointExtension>
        </extensions>
      </trkpt>
      <trkpt lat="45.3222846798598766326904296875" lon="-70.8976574242115020751953125">
        <ele>591.5999755859375</ele>
        <time>2026-08-21T16:32:19.000Z</time>
        <extensions>
          <ns3:TrackPointExtension>
            <ns3:hr>130</ns3:hr>
            <ns3:cad>51</ns3:cad>
          </ns3:TrackPointExtension>
        </extensions>
      </trkpt>
      <trkpt lat="45.32229415141046047210693359375" lon="-70.89766873978078365325927734375">
        <ele>591.5999755859375</ele>
        <time>2026-08-21T16:32:20.000Z</time>
        <extensions>
          <ns3:TrackPointExtension>
            <ns3:hr>131</ns3:hr>
            <ns3:cad>51</ns3:cad>
          </ns3:TrackPointExtension>
        </extensions>
      </trkpt>
      <trkpt lat="45.32230152748525142669677734375" lon="-70.897682569921016693115234375">
        <ele>591.5999755859375</ele>
        <time>2026-08-21T16:32:21.000Z</time>
        <extensions>
          <ns3:TrackPointExtension>
            <ns3:hr>131</ns3:hr>
            <ns3:cad>51</ns3:cad>
          </ns3:TrackPointExtension>
        </extensions>
      </trkpt>
      <trkpt lat="45.32231158576905727386474609375" lon="-70.8976954780519008636474609375">
        <ele>591.4000244140625</ele>
        <time>2026-08-21T16:32:22.000Z</time>
        <extensions>
          <ns3:TrackPointExtension>
            <ns3:hr>131</ns3:hr>
            <ns3:cad>51</ns3:cad>
          </ns3:TrackPointExtension>
        </extensions>
      </trkpt>
      <trkpt lat="45.32232306897640228271484375" lon="-70.89771148748695850372314453125">
        <ele>591.4000244140625</ele>
        <time>2026-08-21T16:32:23.000Z</time>
        <extensions>
          <ns3:TrackPointExtension>
            <ns3:hr>131</ns3:hr>
            <ns3:cad>51</ns3:cad>
          </ns3:TrackPointExtension>
        </extensions>
      </trkpt>
      <trkpt lat="45.32233572565019130706787109375" lon="-70.89773051440715789794921875">
        <ele>591.20001220703125</ele>
        <time>2026-08-21T16:32:24.000Z</time>
        <extensions>
          <ns3:TrackPointExtension>
            <ns3:hr>131</ns3:hr>
            <ns3:cad>51</ns3:cad>
          </ns3:TrackPointExtension>
        </extensions>
      </trkpt>
      <trkpt lat="45.3223493881523609161376953125" lon="-70.8977487869560718536376953125">
        <ele>591</ele>
        <time>2026-08-21T16:32:25.000Z</time>
        <extensions>
          <ns3:TrackPointExtension>
            <ns3:hr>131</ns3:hr>
            <ns3:cad>0</ns3:cad>
          </ns3:TrackPointExtension>
        </extensions>
      </trkpt>
      <trkpt lat="45.3223601169884204864501953125" lon="-70.89776328764855861663818359375">
        <ele>591</ele>
        <time>2026-08-21T16:32:26.000Z</time>
        <extensions>
          <ns3:TrackPointExtension>
            <ns3:hr>131</ns3:hr>
            <ns3:cad>0</ns3:cad>
          </ns3:TrackPointExtension>
        </extensions>
      </trkpt>
      <trkpt lat="45.322372019290924072265625" lon="-70.89778021909296512603759765625">
        <ele>590.79998779296875</ele>
        <time>2026-08-21T16:32:27.000Z</time>
        <extensions>
          <ns3:TrackPointExtension>
            <ns3:hr>132</ns3:hr>
            <ns3:cad>0</ns3:cad>
          </ns3:TrackPointExtension>
        </extensions>
      </trkpt>
      <trkpt lat="45.32238450832664966583251953125" lon="-70.89779622852802276611328125">
        <ele>590.79998779296875</ele>
        <time>2026-08-21T16:32:28.000Z</time>
        <extensions>
          <ns3:TrackPointExtension>
            <ns3:hr>132</ns3:hr>
            <ns3:cad>0</ns3:cad>
          </ns3:TrackPointExtension>
        </extensions>
      </trkpt>
      <trkpt lat="45.32239959575235843658447265625" lon="-70.89781173504889011383056640625">
        <ele>590.79998779296875</ele>
        <time>2026-08-21T16:32:29.000Z</time>
        <extensions>
          <ns3:TrackPointExtension>
            <ns3:hr>132</ns3:hr>
            <ns3:cad>0</ns3:cad>
          </ns3:TrackPointExtension>
        </extensions>
      </trkpt>
      <trkpt lat="45.322415269911289215087890625" lon="-70.89782078750431537628173828125">
        <ele>590.79998779296875</ele>
        <time>2026-08-21T16:32:30.000Z</time>
        <extensions>
          <ns3:TrackPointExtension>
            <ns3:hr>131</ns3:hr>
            <ns3:cad>0</ns3:cad>
          </ns3:TrackPointExtension>
        </extensions>
      </trkpt>
      <trkpt lat="45.32243161462247371673583984375" lon="-70.89782983995974063873291015625">
        <ele>590.79998779296875</ele>
        <time>2026-08-21T16:32:31.000Z</time>
        <extensions>
          <ns3:TrackPointExtension>
            <ns3:hr>132</ns3:hr>
            <ns3:cad>0</ns3:cad>
          </ns3:TrackPointExtension>
        </extensions>
      </trkpt>
      <trkpt lat="45.32244754023849964141845703125" lon="-70.89783377945423126220703125">
        <ele>590.79998779296875</ele>
        <time>2026-08-21T16:32:32.000Z</time>
        <extensions>
          <ns3:TrackPointExtension>
            <ns3:hr>132</ns3:hr>
            <ns3:cad>0</ns3:cad>
          </ns3:TrackPointExtension>
        </extensions>
      </trkpt>
      <trkpt lat="45.322469584643840789794921875" lon="-70.89783738367259502410888671875">
        <ele>590.79998779296875</ele>
        <time>2026-08-21T16:32:33.000Z</time>
        <extensions>
          <ns3:TrackPointExtension>
            <ns3:hr>132</ns3:hr>
            <ns3:cad>0</ns3:cad>
          </ns3:TrackPointExtension>
        </extensions>
      </trkpt>
      <trkpt lat="45.3224861808121204376220703125" lon="-70.89784090407192707061767578125">
        <ele>590.79998779296875</ele>
        <time>2026-08-21T16:32:34.000Z</time>
        <extensions>
          <ns3:TrackPointExtension>
            <ns3:hr>132</ns3:hr>
            <ns3:cad>0</ns3:cad>
          </ns3:TrackPointExtension>
        </extensions>
      </trkpt>
      <trkpt lat="45.32250545918941497802734375" lon="-70.89785045944154262542724609375">
        <ele>590.5999755859375</ele>
        <time>2026-08-21T16:32:35.000Z</time>
        <extensions>
          <ns3:TrackPointExtension>
            <ns3:hr>131</ns3:hr>
            <ns3:cad>0</ns3:cad>
          </ns3:TrackPointExtension>
        </extensions>
      </trkpt>
      <trkpt lat="45.3225220553576946258544921875" lon="-70.8978547342121601104736328125">
        <ele>590.5999755859375</ele>
        <time>2026-08-21T16:32:36.000Z</time>
        <extensions>
          <ns3:TrackPointExtension>
            <ns3:hr>132</ns3:hr>
            <ns3:cad>0</ns3:cad>
          </ns3:TrackPointExtension>
        </extensions>
      </trkpt>
      <trkpt lat="45.3225381486117839813232421875" lon="-70.89785615913569927215576171875">
        <ele>590.5999755859375</ele>
        <time>2026-08-21T16:32:37.000Z</time>
        <extensions>
          <ns3:TrackPointExtension>
            <ns3:hr>132</ns3:hr>
            <ns3:cad>0</ns3:cad>
          </ns3:TrackPointExtension>
        </extensions>
      </trkpt>
      <trkpt lat="45.3225545771420001983642578125" lon="-70.897862277925014495849609375">
        <ele>590.5999755859375</ele>
        <time>2026-08-21T16:32:38.000Z</time>
        <extensions>
          <ns3:TrackPointExtension>
            <ns3:hr>132</ns3:hr>
            <ns3:cad>0</ns3:cad>
          </ns3:TrackPointExtension>
        </extensions>
      </trkpt>
      <trkpt lat="45.3225730173289775848388671875" lon="-70.89786269702017307281494140625">
        <ele>590.5999755859375</ele>
        <time>2026-08-21T16:32:39.000Z</time>
        <extensions>
          <ns3:TrackPointExtension>
            <ns3:hr>131</ns3:hr>
            <ns3:cad>75</ns3:cad>
          </ns3:TrackPointExtension>
        </extensions>
      </trkpt>
      <trkpt lat="45.32259170897305011749267578125" lon="-70.89786672033369541168212890625">
        <ele>590.79998779296875</ele>
        <time>2026-08-21T16:32:40.000Z</time>
        <extensions>
          <ns3:TrackPointExtension>
            <ns3:hr>131</ns3:hr>
            <ns3:cad>75</ns3:cad>
          </ns3:TrackPointExtension>
        </extensions>
      </trkpt>
      <trkpt lat="45.32261014916002750396728515625" lon="-70.89787535369396209716796875">
        <ele>590.79998779296875</ele>
        <time>2026-08-21T16:32:41.000Z</time>
        <extensions>
          <ns3:TrackPointExtension>
            <ns3:hr>131</ns3:hr>
            <ns3:cad>74</ns3:cad>
          </ns3:TrackPointExtension>
        </extensions>
      </trkpt>
      <trkpt lat="45.32262473367154598236083984375" lon="-70.89788633398711681365966796875">
        <ele>590.5999755859375</ele>
        <time>2026-08-21T16:32:42.000Z</time>
        <extensions>
          <ns3:TrackPointExtension>
            <ns3:hr>131</ns3:hr>
            <ns3:cad>73</ns3:cad>
          </ns3:TrackPointExtension>
        </extensions>
      </trkpt>
      <trkpt lat="45.3226457722485065460205078125" lon="-70.8978988230228424072265625">
        <ele>590.5999755859375</ele>
        <time>2026-08-21T16:32:43.000Z</time>
        <extensions>
          <ns3:TrackPointExtension>
            <ns3:hr>131</ns3:hr>
            <ns3:cad>73</ns3:cad>
          </ns3:TrackPointExtension>
        </extensions>
      </trkpt>
      <trkpt lat="45.32265977002680301666259765625" lon="-70.8979077078402042388916015625">
        <ele>590.5999755859375</ele>
        <time>2026-08-21T16:32:44.000Z</time>
        <extensions>
          <ns3:TrackPointExtension>
            <ns3:hr>131</ns3:hr>
            <ns3:cad>73</ns3:cad>
          </ns3:TrackPointExtension>
        </extensions>
      </trkpt>
      <trkpt lat="45.3226772882044315338134765625" lon="-70.8979207836091518402099609375">
        <ele>590.4000244140625</ele>
        <time>2026-08-21T16:32:45.000Z</time>
        <extensions>
          <ns3:TrackPointExtension>
            <ns3:hr>130</ns3:hr>
            <ns3:cad>73</ns3:cad>
          </ns3:TrackPointExtension>
        </extensions>
      </trkpt>
      <trkpt lat="45.322694890201091766357421875" lon="-70.89792321436107158660888671875">
        <ele>590.4000244140625</ele>
        <time>2026-08-21T16:32:46.000Z</time>
        <extensions>
          <ns3:TrackPointExtension>
            <ns3:hr>130</ns3:hr>
            <ns3:cad>72</ns3:cad>
          </ns3:TrackPointExtension>
        </extensions>
      </trkpt>
      <trkpt lat="45.32271324656903743743896484375" lon="-70.8979261480271816253662109375">
        <ele>590.4000244140625</ele>
        <time>2026-08-21T16:32:47.000Z</time>
        <extensions>
          <ns3:TrackPointExtension>
            <ns3:hr>130</ns3:hr>
            <ns3:cad>72</ns3:cad>
          </ns3:TrackPointExtension>
        </extensions>
      </trkpt>
      <trkpt lat="45.32273051328957080841064453125" lon="-70.897926986217498779296875">
        <ele>590.4000244140625</ele>
        <time>2026-08-21T16:32:48.000Z</time>
        <extensions>
          <ns3:TrackPointExtension>
            <ns3:hr>131</ns3:hr>
            <ns3:cad>72</ns3:cad>
          </ns3:TrackPointExtension>
        </extensions>
      </trkpt>
      <trkpt lat="45.3227493725717067718505859375" lon="-70.89792606420814990997314453125">
        <ele>590.20001220703125</ele>
        <time>2026-08-21T16:32:49.000Z</time>
        <extensions>
          <ns3:TrackPointExtension>
            <ns3:hr>130</ns3:hr>
            <ns3:cad>72</ns3:cad>
          </ns3:TrackPointExtension>
        </extensions>
      </trkpt>
      <trkpt lat="45.3227674774825572967529296875" lon="-70.8979331888258457183837890625">
        <ele>590.20001220703125</ele>
        <time>2026-08-21T16:32:50.000Z</time>
        <extensions>
          <ns3:TrackPointExtension>
            <ns3:hr>130</ns3:hr>
            <ns3:cad>72</ns3:cad>
          </ns3:TrackPointExtension>
        </extensions>
      </trkpt>
      <trkpt lat="45.32278583385050296783447265625" lon="-70.89794106781482696533203125">
        <ele>590</ele>
        <time>2026-08-21T16:32:51.000Z</time>
        <extensions>
          <ns3:TrackPointExtension>
            <ns3:hr>130</ns3:hr>
            <ns3:cad>52</ns3:cad>
          </ns3:TrackPointExtension>
        </extensions>
      </trkpt>
      <trkpt lat="45.32280243001878261566162109375" lon="-70.8979358710348606109619140625">
        <ele>589.79998779296875</ele>
        <time>2026-08-21T16:32:52.000Z</time>
        <extensions>
          <ns3:TrackPointExtension>
            <ns3:hr>130</ns3:hr>
            <ns3:cad>52</ns3:cad>
          </ns3:TrackPointExtension>
        </extensions>
      </trkpt>
      <trkpt lat="45.3228167630732059478759765625" lon="-70.8979352004826068878173828125">
        <ele>589.79998779296875</ele>
        <time>2026-08-21T16:32:53.000Z</time>
        <extensions>
          <ns3:TrackPointExtension>
            <ns3:hr>130</ns3:hr>
            <ns3:cad>52</ns3:cad>
          </ns3:TrackPointExtension>
        </extensions>
      </trkpt>
      <trkpt lat="45.3228362090885639190673828125" lon="-70.89793897233903408050537109375">
        <ele>589.5999755859375</ele>
        <time>2026-08-21T16:32:54.000Z</time>
        <extensions>
          <ns3:TrackPointExtension>
            <ns3:hr>130</ns3:hr>
            <ns3:cad>52</ns3:cad>
          </ns3:TrackPointExtension>
        </extensions>
      </trkpt>
      <trkpt lat="45.32285691238939762115478515625" lon="-70.89793126098811626434326171875">
        <ele>589.5999755859375</ele>
        <time>2026-08-21T16:32:55.000Z</time>
        <extensions>
          <ns3:TrackPointExtension>
            <ns3:hr>130</ns3:hr>
            <ns3:cad>52</ns3:cad>
          </ns3:TrackPointExtension>
        </extensions>
      </trkpt>
      <trkpt lat="45.322869233787059783935546875" lon="-70.89792631566524505615234375">
        <ele>589.5999755859375</ele>
        <time>2026-08-21T16:32:56.000Z</time>
        <extensions>
          <ns3:TrackPointExtension>
            <ns3:hr>130</ns3:hr>
            <ns3:cad>52</ns3:cad>
          </ns3:TrackPointExtension>
        </extensions>
      </trkpt>
      <trkpt lat="45.3228794597089290618896484375" lon="-70.89793662540614604949951171875">
        <ele>589.4000244140625</ele>
        <time>2026-08-21T16:32:57.000Z</time>
        <extensions>
          <ns3:TrackPointExtension>
            <ns3:hr>130</ns3:hr>
            <ns3:cad>52</ns3:cad>
          </ns3:TrackPointExtension>
        </extensions>
      </trkpt>
      <trkpt lat="45.322903431951999664306640625" lon="-70.89795389212667942047119140625">
        <ele>589.4000244140625</ele>
        <time>2026-08-21T16:32:58.000Z</time>
        <extensions>
          <ns3:TrackPointExtension>
            <ns3:hr>129</ns3:hr>
            <ns3:cad>75</ns3:cad>
          </ns3:TrackPointExtension>
        </extensions>
      </trkpt>
      <trkpt lat="45.32292095012962818145751953125" lon="-70.8979569934308528900146484375">
        <ele>589.20001220703125</ele>
        <time>2026-08-21T16:32:59.000Z</time>
        <extensions>
          <ns3:TrackPointExtension>
            <ns3:hr>129</ns3:hr>
            <ns3:cad>75</ns3:cad>
          </ns3:TrackPointExtension>
        </extensions>
      </trkpt>
      <trkpt lat="45.32293737865984439849853515625" lon="-70.8979606814682483673095703125">
        <ele>589.20001220703125</ele>
        <time>2026-08-21T16:33:00.000Z</time>
        <extensions>
          <ns3:TrackPointExtension>
            <ns3:hr>129</ns3:hr>
            <ns3:cad>75</ns3:cad>
          </ns3:TrackPointExtension>
        </extensions>
      </trkpt>
      <trkpt lat="45.32295732758939266204833984375" lon="-70.89796780608594417572021484375">
        <ele>589</ele>
        <time>2026-08-21T16:33:01.000Z</time>
        <extensions>
          <ns3:TrackPointExtension>
            <ns3:hr>129</ns3:hr>
            <ns3:cad>75</ns3:cad>
          </ns3:TrackPointExtension>
        </extensions>
      </trkpt>
      <trkpt lat="45.32297191210091114044189453125" lon="-70.8979710750281810760498046875">
        <ele>589</ele>
        <time>2026-08-21T16:33:02.000Z</time>
        <extensions>
          <ns3:TrackPointExtension>
            <ns3:hr>128</ns3:hr>
            <ns3:cad>75</ns3:cad>
          </ns3:TrackPointExtension>
        </extensions>
      </trkpt>
      <trkpt lat="45.32299253158271312713623046875" lon="-70.89797082357108592987060546875">
        <ele>588.79998779296875</ele>
        <time>2026-08-21T16:33:03.000Z</time>
        <extensions>
          <ns3:TrackPointExtension>
            <ns3:hr>128</ns3:hr>
            <ns3:cad>71</ns3:cad>
          </ns3:TrackPointExtension>
        </extensions>
      </trkpt>
      <trkpt lat="45.32300929538905620574951171875" lon="-70.8979685604572296142578125">
        <ele>588.79998779296875</ele>
        <time>2026-08-21T16:33:04.000Z</time>
        <extensions>
          <ns3:TrackPointExtension>
            <ns3:hr>128</ns3:hr>
            <ns3:cad>71</ns3:cad>
          </ns3:TrackPointExtension>
        </extensions>
      </trkpt>
      <trkpt lat="45.32302580773830413818359375" lon="-70.897972248494625091552734375">
        <ele>588.5999755859375</ele>
        <time>2026-08-21T16:33:05.000Z</time>
        <extensions>
          <ns3:TrackPointExtension>
            <ns3:hr>127</ns3:hr>
            <ns3:cad>71</ns3:cad>
          </ns3:TrackPointExtension>
        </extensions>
      </trkpt>
      <trkpt lat="45.32304164953529834747314453125" lon="-70.8979818038642406463623046875">
        <ele>588.5999755859375</ele>
        <time>2026-08-21T16:33:06.000Z</time>
        <extensions>
          <ns3:TrackPointExtension>
            <ns3:hr>126</ns3:hr>
            <ns3:cad>73</ns3:cad>
          </ns3:TrackPointExtension>
        </extensions>
      </trkpt>
      <trkpt lat="45.3230591677129268646240234375" lon="-70.897991359233856201171875">
        <ele>588.4000244140625</ele>
        <time>2026-08-21T16:33:07.000Z</time>
        <extensions>
          <ns3:TrackPointExtension>
            <ns3:hr>126</ns3:hr>
            <ns3:cad>73</ns3:cad>
          </ns3:TrackPointExtension>
        </extensions>
      </trkpt>
      <trkpt lat="45.323080457746982574462890625" lon="-70.89799546636641025543212890625">
        <ele>588.4000244140625</ele>
        <time>2026-08-21T16:33:08.000Z</time>
        <extensions>
          <ns3:TrackPointExtension>
            <ns3:hr>126</ns3:hr>
            <ns3:cad>76</ns3:cad>
          </ns3:TrackPointExtension>
        </extensions>
      </trkpt>
      <trkpt lat="45.32309554517269134521484375" lon="-70.8980035968124866485595703125">
        <ele>588.4000244140625</ele>
        <time>2026-08-21T16:33:09.000Z</time>
        <extensions>
          <ns3:TrackPointExtension>
            <ns3:hr>126</ns3:hr>
            <ns3:cad>76</ns3:cad>
          </ns3:TrackPointExtension>
        </extensions>
      </trkpt>
      <trkpt lat="45.32310493290424346923828125" lon="-70.898018181324005126953125">
        <ele>588.20001220703125</ele>
        <time>2026-08-21T16:33:10.000Z</time>
        <extensions>
          <ns3:TrackPointExtension>
            <ns3:hr>126</ns3:hr>
            <ns3:cad>76</ns3:cad>
          </ns3:TrackPointExtension>
        </extensions>
      </trkpt>
      <trkpt lat="45.323118008673191070556640625" lon="-70.89803201146423816680908203125">
        <ele>588.20001220703125</ele>
        <time>2026-08-21T16:33:11.000Z</time>
        <extensions>
          <ns3:TrackPointExtension>
            <ns3:hr>126</ns3:hr>
            <ns3:cad>76</ns3:cad>
          </ns3:TrackPointExtension>
        </extensions>
      </trkpt>
      <trkpt lat="45.32313083298504352569580078125" lon="-70.898045003414154052734375">
        <ele>588.20001220703125</ele>
        <time>2026-08-21T16:33:12.000Z</time>
        <extensions>
          <ns3:TrackPointExtension>
            <ns3:hr>126</ns3:hr>
            <ns3:cad>76</ns3:cad>
          </ns3:TrackPointExtension>
        </extensions>
      </trkpt>
      <trkpt lat="45.323144830763339996337890625" lon="-70.89805430732667446136474609375">
        <ele>588.4000244140625</ele>
        <time>2026-08-21T16:33:13.000Z</time>
        <extensions>
          <ns3:TrackPointExtension>
            <ns3:hr>125</ns3:hr>
            <ns3:cad>74</ns3:cad>
          </ns3:TrackPointExtension>
        </extensions>
      </trkpt>
      <trkpt lat="45.32316000200808048248291015625" lon="-70.8980545587837696075439453125">
        <ele>588.20001220703125</ele>
        <time>2026-08-21T16:33:14.000Z</time>
        <extensions>
          <ns3:TrackPointExtension>
            <ns3:hr>125</ns3:hr>
            <ns3:cad>74</ns3:cad>
          </ns3:TrackPointExtension>
        </extensions>
      </trkpt>
      <trkpt lat="45.32317743636667728424072265625" lon="-70.89805665425956249237060546875">
        <ele>588.20001220703125</ele>
        <time>2026-08-21T16:33:15.000Z</time>
        <extensions>
          <ns3:TrackPointExtension>
            <ns3:hr>125</ns3:hr>
            <ns3:cad>0</ns3:cad>
          </ns3:TrackPointExtension>
        </extensions>
      </trkpt>
      <trkpt lat="45.3231889195740222930908203125" lon="-70.89806419797241687774658203125">
        <ele>588.20001220703125</ele>
        <time>2026-08-21T16:33:16.000Z</time>
        <extensions>
          <ns3:TrackPointExtension>
            <ns3:hr>125</ns3:hr>
            <ns3:cad>0</ns3:cad>
          </ns3:TrackPointExtension>
        </extensions>
      </trkpt>
      <trkpt lat="45.3231973014771938323974609375" lon="-70.89807475917041301727294921875">
        <ele>588.20001220703125</ele>
        <time>2026-08-21T16:33:17.000Z</time>
        <extensions>
          <ns3:TrackPointExtension>
            <ns3:hr>126</ns3:hr>
            <ns3:cad>0</ns3:cad>
          </ns3:TrackPointExtension>
        </extensions>
      </trkpt>
      <trkpt lat="45.323214568197727203369140625" lon="-70.898083560168743133544921875">
        <ele>588.20001220703125</ele>
        <time>2026-08-21T16:33:18.000Z</time>
        <extensions>
          <ns3:TrackPointExtension>
            <ns3:hr>126</ns3:hr>
            <ns3:cad>51</ns3:cad>
          </ns3:TrackPointExtension>
        </extensions>
      </trkpt>
      <trkpt lat="45.32323141582310199737548828125" lon="-70.8980914391577243804931640625">
        <ele>588.20001220703125</ele>
        <time>2026-08-21T16:33:19.000Z</time>
        <extensions>
          <ns3:TrackPointExtension>
            <ns3:hr>126</ns3:hr>
            <ns3:cad>51</ns3:cad>
          </ns3:TrackPointExtension>
        </extensions>
      </trkpt>
      <trkpt lat="45.32324616797268390655517578125" lon="-70.8980964682996273040771484375">
        <ele>588</ele>
        <time>2026-08-21T16:33:20.000Z</time>
        <extensions>
          <ns3:TrackPointExtension>
            <ns3:hr>126</ns3:hr>
            <ns3:cad>71</ns3:cad>
          </ns3:TrackPointExtension>
        </extensions>
      </trkpt>
      <trkpt lat="45.32326544634997844696044921875" lon="-70.89809772558510303497314453125">
        <ele>588</ele>
        <time>2026-08-21T16:33:21.000Z</time>
        <extensions>
          <ns3:TrackPointExtension>
            <ns3:hr>125</ns3:hr>
            <ns3:cad>71</ns3:cad>
          </ns3:TrackPointExtension>
        </extensions>
      </trkpt>
      <trkpt lat="45.323280952870845794677734375" lon="-70.8981031738221645355224609375">
        <ele>588</ele>
        <time>2026-08-21T16:33:22.000Z</time>
        <extensions>
          <ns3:TrackPointExtension>
            <ns3:hr>126</ns3:hr>
            <ns3:cad>71</ns3:cad>
          </ns3:TrackPointExtension>
        </extensions>
      </trkpt>
      <trkpt lat="45.32329981215298175811767578125" lon="-70.89810878969728946685791015625">
        <ele>588</ele>
        <time>2026-08-21T16:33:23.000Z</time>
        <extensions>
          <ns3:TrackPointExtension>
            <ns3:hr>126</ns3:hr>
            <ns3:cad>71</ns3:cad>
          </ns3:TrackPointExtension>
        </extensions>
      </trkpt>
      <trkpt lat="45.32331624068319797515869140625" lon="-70.8981080353260040283203125">
        <ele>588</ele>
        <time>2026-08-21T16:33:24.000Z</time>
        <extensions>
          <ns3:TrackPointExtension>
            <ns3:hr>126</ns3:hr>
            <ns3:cad>71</ns3:cad>
          </ns3:TrackPointExtension>
        </extensions>
      </trkpt>
      <trkpt lat="45.32333283685147762298583984375" lon="-70.89811046607792377471923828125">
        <ele>588</ele>
        <time>2026-08-21T16:33:25.000Z</time>
        <extensions>
          <ns3:TrackPointExtension>
            <ns3:hr>125</ns3:hr>
            <ns3:cad>0</ns3:cad>
          </ns3:TrackPointExtension>
        </extensions>
      </trkpt>
      <trkpt lat="45.323345996439456939697265625" lon="-70.898111052811145782470703125">
        <ele>588</ele>
        <time>2026-08-21T16:33:26.000Z</time>
        <extensions>
          <ns3:TrackPointExtension>
            <ns3:hr>126</ns3:hr>
            <ns3:cad>0</ns3:cad>
          </ns3:TrackPointExtension>
        </extensions>
      </trkpt>
      <trkpt lat="45.32335949130356311798095703125" lon="-70.89811566285789012908935546875">
        <ele>588</ele>
        <time>2026-08-21T16:33:27.000Z</time>
        <extensions>
          <ns3:TrackPointExtension>
            <ns3:hr>126</ns3:hr>
            <ns3:cad>0</ns3:cad>
          </ns3:TrackPointExtension>
        </extensions>
      </trkpt>
      <trkpt lat="45.32337558455765247344970703125" lon="-70.89811314828693866729736328125">
        <ele>588</ele>
        <time>2026-08-21T16:33:28.000Z</time>
        <extensions>
          <ns3:TrackPointExtension>
            <ns3:hr>126</ns3:hr>
            <ns3:cad>0</ns3:cad>
          </ns3:TrackPointExtension>
        </extensions>
      </trkpt>
      <trkpt lat="45.32339301891624927520751953125" lon="-70.89810627512633800506591796875">
        <ele>588</ele>
        <time>2026-08-21T16:33:29.000Z</time>
        <extensions>
          <ns3:TrackPointExtension>
            <ns3:hr>126</ns3:hr>
            <ns3:cad>0</ns3:cad>
          </ns3:TrackPointExtension>
        </extensions>
      </trkpt>
      <trkpt lat="45.32340391539037227630615234375" lon="-70.898107029497623443603515625">
        <ele>588</ele>
        <time>2026-08-21T16:33:30.000Z</time>
        <extensions>
          <ns3:TrackPointExtension>
            <ns3:hr>126</ns3:hr>
            <ns3:cad>0</ns3:cad>
          </ns3:TrackPointExtension>
        </extensions>
      </trkpt>
      <trkpt lat="45.32341741025447845458984375" lon="-70.8981142379343509674072265625">
        <ele>588</ele>
        <time>2026-08-21T16:33:31.000Z</time>
        <extensions>
          <ns3:TrackPointExtension>
            <ns3:hr>126</ns3:hr>
            <ns3:cad>0</ns3:cad>
          </ns3:TrackPointExtension>
        </extensions>
      </trkpt>
      <trkpt lat="45.32343291677534580230712890625" lon="-70.8981216140091419219970703125">
        <ele>588</ele>
        <time>2026-08-21T16:33:32.000Z</time>
        <extensions>
          <ns3:TrackPointExtension>
            <ns3:hr>126</ns3:hr>
            <ns3:cad>60</ns3:cad>
          </ns3:TrackPointExtension>
        </extensions>
      </trkpt>
      <trkpt lat="45.32344901002943515777587890625" lon="-70.898130498826503753662109375">
        <ele>588</ele>
        <time>2026-08-21T16:33:33.000Z</time>
        <extensions>
          <ns3:TrackPointExtension>
            <ns3:hr>127</ns3:hr>
            <ns3:cad>60</ns3:cad>
          </ns3:TrackPointExtension>
        </extensions>
      </trkpt>
      <trkpt lat="45.32346460036933422088623046875" lon="-70.898135863244533538818359375">
        <ele>588</ele>
        <time>2026-08-21T16:33:34.000Z</time>
        <extensions>
          <ns3:TrackPointExtension>
            <ns3:hr>128</ns3:hr>
            <ns3:cad>60</ns3:cad>
          </ns3:TrackPointExtension>
        </extensions>
      </trkpt>
      <trkpt lat="45.3234859742224216461181640625" lon="-70.89813410304486751556396484375">
        <ele>588</ele>
        <time>2026-08-21T16:33:35.000Z</time>
        <extensions>
          <ns3:TrackPointExtension>
            <ns3:hr>129</ns3:hr>
            <ns3:cad>60</ns3:cad>
          </ns3:TrackPointExtension>
        </extensions>
      </trkpt>
      <trkpt lat="45.3235027380287647247314453125" lon="-70.8981289900839328765869140625">
        <ele>588</ele>
        <time>2026-08-21T16:33:36.000Z</time>
        <extensions>
          <ns3:TrackPointExtension>
            <ns3:hr>129</ns3:hr>
            <ns3:cad>60</ns3:cad>
          </ns3:TrackPointExtension>
        </extensions>
      </trkpt>
      <trkpt lat="45.3235262073576450347900390625" lon="-70.8981239609420299530029296875">
        <ele>588</ele>
        <time>2026-08-21T16:33:37.000Z</time>
        <extensions>
          <ns3:TrackPointExtension>
            <ns3:hr>128</ns3:hr>
            <ns3:cad>0</ns3:cad>
          </ns3:TrackPointExtension>
        </extensions>
      </trkpt>
      <trkpt lat="45.32354875467717647552490234375" lon="-70.89811080135405063629150390625">
        <ele>588</ele>
        <time>2026-08-21T16:33:38.000Z</time>
        <extensions>
          <ns3:TrackPointExtension>
            <ns3:hr>128</ns3:hr>
            <ns3:cad>0</ns3:cad>
          </ns3:TrackPointExtension>
        </extensions>
      </trkpt>
      <trkpt lat="45.323569960892200469970703125" lon="-70.8981011621654033660888671875">
        <ele>587.79998779296875</ele>
        <time>2026-08-21T16:33:39.000Z</time>
        <extensions>
          <ns3:TrackPointExtension>
            <ns3:hr>128</ns3:hr>
            <ns3:cad>0</ns3:cad>
          </ns3:TrackPointExtension>
        </extensions>
      </trkpt>
      <trkpt lat="45.32358764670789241790771484375" lon="-70.8980860747396945953369140625">
        <ele>587.79998779296875</ele>
        <time>2026-08-21T16:33:40.000Z</time>
        <extensions>
          <ns3:TrackPointExtension>
            <ns3:hr>127</ns3:hr>
            <ns3:cad>75</ns3:cad>
          </ns3:TrackPointExtension>
        </extensions>
      </trkpt>
      <trkpt lat="45.323598794639110565185546875" lon="-70.89806788600981235504150390625">
        <ele>587.5999755859375</ele>
        <time>2026-08-21T16:33:41.000Z</time>
        <extensions>
          <ns3:TrackPointExtension>
            <ns3:hr>127</ns3:hr>
            <ns3:cad>75</ns3:cad>
          </ns3:TrackPointExtension>
        </extensions>
      </trkpt>
      <trkpt lat="45.3236056677997112274169921875" lon="-70.89804240502417087554931640625">
        <ele>587.5999755859375</ele>
        <time>2026-08-21T16:33:42.000Z</time>
        <extensions>
          <ns3:TrackPointExtension>
            <ns3:hr>127</ns3:hr>
            <ns3:cad>75</ns3:cad>
          </ns3:TrackPointExtension>
        </extensions>
      </trkpt>
      <trkpt lat="45.3236133791506290435791015625" lon="-70.89802228845655918121337890625">
        <ele>587.5999755859375</ele>
        <time>2026-08-21T16:33:43.000Z</time>
        <extensions>
          <ns3:TrackPointExtension>
            <ns3:hr>128</ns3:hr>
            <ns3:cad>75</ns3:cad>
          </ns3:TrackPointExtension>
        </extensions>
      </trkpt>
      <trkpt lat="45.3236469067633152008056640625" lon="-70.89796948246657848358154296875">
        <ele>587.5999755859375</ele>
        <time>2026-08-21T16:33:45.000Z</time>
        <extensions>
          <ns3:TrackPointExtension>
            <ns3:hr>128</ns3:hr>
            <ns3:cad>75</ns3:cad>
          </ns3:TrackPointExtension>
        </extensions>
      </trkpt>
      <trkpt lat="45.3236469067633152008056640625" lon="-70.89796948246657848358154296875">
        <ele>587.5999755859375</ele>
        <time>2026-08-21T16:33:46.000Z</time>
        <extensions>
          <ns3:TrackPointExtension>
            <ns3:hr>128</ns3:hr>
            <ns3:cad>75</ns3:cad>
          </ns3:TrackPointExtension>
        </extensions>
      </trkpt>
      <trkpt lat="45.323659814894199371337890625" lon="-70.89795188046991825103759765625">
        <ele>587.5999755859375</ele>
        <time>2026-08-21T16:33:47.000Z</time>
        <extensions>
          <ns3:TrackPointExtension>
            <ns3:hr>128</ns3:hr>
            <ns3:cad>76</ns3:cad>
          </ns3:TrackPointExtension>
        </extensions>
      </trkpt>
      <trkpt lat="45.3236742317676544189453125" lon="-70.8979321829974651336669921875">
        <ele>587.5999755859375</ele>
        <time>2026-08-21T16:33:48.000Z</time>
        <extensions>
          <ns3:TrackPointExtension>
            <ns3:hr>128</ns3:hr>
            <ns3:cad>76</ns3:cad>
          </ns3:TrackPointExtension>
        </extensions>
      </trkpt>
      <trkpt lat="45.323690660297870635986328125" lon="-70.89791064150631427764892578125">
        <ele>587.5999755859375</ele>
        <time>2026-08-21T16:33:49.000Z</time>
        <extensions>
          <ns3:TrackPointExtension>
            <ns3:hr>128</ns3:hr>
            <ns3:cad>76</ns3:cad>
          </ns3:TrackPointExtension>
        </extensions>
      </trkpt>
      <trkpt lat="45.3237089328467845916748046875" lon="-70.8978854119777679443359375">
        <ele>587.4000244140625</ele>
        <time>2026-08-21T16:33:50.000Z</time>
        <extensions>
          <ns3:TrackPointExtension>
            <ns3:hr>127</ns3:hr>
            <ns3:cad>76</ns3:cad>
          </ns3:TrackPointExtension>
        </extensions>
      </trkpt>
      <trkpt lat="45.323723852634429931640625" lon="-70.8978721685707569122314453125">
        <ele>587.5999755859375</ele>
        <time>2026-08-21T16:33:51.000Z</time>
        <extensions>
          <ns3:TrackPointExtension>
            <ns3:hr>128</ns3:hr>
            <ns3:cad>76</ns3:cad>
          </ns3:TrackPointExtension>
        </extensions>
      </trkpt>
      <trkpt lat="45.32374740578234195709228515625" lon="-70.8978714980185031890869140625">
        <ele>587.5999755859375</ele>
        <time>2026-08-21T16:33:52.000Z</time>
        <extensions>
          <ns3:TrackPointExtension>
            <ns3:hr>128</ns3:hr>
            <ns3:cad>73</ns3:cad>
          </ns3:TrackPointExtension>
        </extensions>
      </trkpt>
      <trkpt lat="45.323765091598033905029296875" lon="-70.89786638505756855010986328125">
        <ele>587.4000244140625</ele>
        <time>2026-08-21T16:33:53.000Z</time>
        <extensions>
          <ns3:TrackPointExtension>
            <ns3:hr>128</ns3:hr>
            <ns3:cad>73</ns3:cad>
          </ns3:TrackPointExtension>
        </extensions>
      </trkpt>
      <trkpt lat="45.3237779997289180755615234375" lon="-70.89785649441182613372802734375">
        <ele>587.4000244140625</ele>
        <time>2026-08-21T16:33:54.000Z</time>
        <extensions>
          <ns3:TrackPointExtension>
            <ns3:hr>128</ns3:hr>
            <ns3:cad>74</ns3:cad>
          </ns3:TrackPointExtension>
        </extensions>
      </trkpt>
      <trkpt lat="45.32379199750721454620361328125" lon="-70.8978510461747646331787109375">
        <ele>587.4000244140625</ele>
        <time>2026-08-21T16:33:55.000Z</time>
        <extensions>
          <ns3:TrackPointExtension>
            <ns3:hr>128</ns3:hr>
            <ns3:cad>74</ns3:cad>
          </ns3:TrackPointExtension>
        </extensions>
      </trkpt>
      <trkpt lat="45.323804654181003570556640625" lon="-70.89784828014671802520751953125">
        <ele>587.4000244140625</ele>
        <time>2026-08-21T16:33:56.000Z</time>
        <extensions>
          <ns3:TrackPointExtension>
            <ns3:hr>128</ns3:hr>
            <ns3:cad>74</ns3:cad>
          </ns3:TrackPointExtension>
        </extensions>
      </trkpt>
      <trkpt lat="45.3238195739686489105224609375" lon="-70.89783922769129276275634765625">
        <ele>587.4000244140625</ele>
        <time>2026-08-21T16:33:57.000Z</time>
        <extensions>
          <ns3:TrackPointExtension>
            <ns3:hr>128</ns3:hr>
            <ns3:cad>74</ns3:cad>
          </ns3:TrackPointExtension>
        </extensions>
      </trkpt>
      <trkpt lat="45.3238271176815032958984375" lon="-70.89781978167593479156494140625">
        <ele>587.4000244140625</ele>
        <time>2026-08-21T16:33:58.000Z</time>
        <extensions>
          <ns3:TrackPointExtension>
            <ns3:hr>127</ns3:hr>
            <ns3:cad>74</ns3:cad>
          </ns3:TrackPointExtension>
        </extensions>
      </trkpt>
      <trkpt lat="45.323837511241436004638671875" lon="-70.89779597707092761993408203125">
        <ele>587.20001220703125</ele>
        <time>2026-08-21T16:33:59.000Z</time>
        <extensions>
          <ns3:TrackPointExtension>
            <ns3:hr>126</ns3:hr>
            <ns3:cad>68</ns3:cad>
          </ns3:TrackPointExtension>
        </extensions>
      </trkpt>
      <trkpt lat="45.32384513877332210540771484375" lon="-70.89777401648461818695068359375">
        <ele>587.20001220703125</ele>
        <time>2026-08-21T16:34:00.000Z</time>
        <extensions>
          <ns3:TrackPointExtension>
            <ns3:hr>125</ns3:hr>
            <ns3:cad>68</ns3:cad>
          </ns3:TrackPointExtension>
        </extensions>
      </trkpt>
      <trkpt lat="45.32385519705712795257568359375" lon="-70.89775121770799160003662109375">
        <ele>587.20001220703125</ele>
        <time>2026-08-21T16:34:01.000Z</time>
        <extensions>
          <ns3:TrackPointExtension>
            <ns3:hr>124</ns3:hr>
            <ns3:cad>0</ns3:cad>
          </ns3:TrackPointExtension>
        </extensions>
      </trkpt>
      <trkpt lat="45.3238673508167266845703125" lon="-70.89773319661617279052734375">
        <ele>587.20001220703125</ele>
        <time>2026-08-21T16:34:02.000Z</time>
        <extensions>
          <ns3:TrackPointExtension>
            <ns3:hr>124</ns3:hr>
            <ns3:cad>0</ns3:cad>
          </ns3:TrackPointExtension>
        </extensions>
      </trkpt>
      <trkpt lat="45.3238769061863422393798828125" lon="-70.89771165512502193450927734375">
        <ele>587</ele>
        <time>2026-08-21T16:34:03.000Z</time>
        <extensions>
          <ns3:TrackPointExtension>
            <ns3:hr>125</ns3:hr>
            <ns3:cad>0</ns3:cad>
          </ns3:TrackPointExtension>
        </extensions>
      </trkpt>
      <trkpt lat="45.3238886408507823944091796875" lon="-70.8976927958428859710693359375">
        <ele>587</ele>
        <time>2026-08-21T16:34:04.000Z</time>
        <extensions>
          <ns3:TrackPointExtension>
            <ns3:hr>125</ns3:hr>
            <ns3:cad>0</ns3:cad>
          </ns3:TrackPointExtension>
        </extensions>
      </trkpt>
      <trkpt lat="45.323897860944271087646484375" lon="-70.89768701232969760894775390625">
        <ele>587</ele>
        <time>2026-08-21T16:34:05.000Z</time>
        <extensions>
          <ns3:TrackPointExtension>
            <ns3:hr>126</ns3:hr>
            <ns3:cad>0</ns3:cad>
          </ns3:TrackPointExtension>
        </extensions>
      </trkpt>
      <trkpt lat="45.32391185872256755828857421875" lon="-70.897675193846225738525390625">
        <ele>587</ele>
        <time>2026-08-21T16:34:06.000Z</time>
        <extensions>
          <ns3:TrackPointExtension>
            <ns3:hr>126</ns3:hr>
            <ns3:cad>0</ns3:cad>
          </ns3:TrackPointExtension>
        </extensions>
      </trkpt>
      <trkpt lat="45.323915965855121612548828125" lon="-70.89766890741884708404541015625">
        <ele>587</ele>
        <time>2026-08-21T16:34:07.000Z</time>
        <extensions>
          <ns3:TrackPointExtension>
            <ns3:hr>126</ns3:hr>
            <ns3:cad>0</ns3:cad>
          </ns3:TrackPointExtension>
        </extensions>
      </trkpt>
      <trkpt lat="45.32392158173024654388427734375" lon="-70.89766169898211956024169921875">
        <ele>587.20001220703125</ele>
        <time>2026-08-21T16:34:08.000Z</time>
        <extensions>
          <ns3:TrackPointExtension>
            <ns3:hr>126</ns3:hr>
            <ns3:cad>0</ns3:cad>
          </ns3:TrackPointExtension>
        </extensions>
      </trkpt>
      <trkpt lat="45.32393415458500385284423828125" lon="-70.8976601064205169677734375">
        <ele>587.5999755859375</ele>
        <time>2026-08-21T16:34:09.000Z</time>
        <extensions>
          <ns3:TrackPointExtension>
            <ns3:hr>126</ns3:hr>
            <ns3:cad>0</ns3:cad>
          </ns3:TrackPointExtension>
        </extensions>
      </trkpt>
      <trkpt lat="45.3239469788968563079833984375" lon="-70.8976596035063266754150390625">
        <ele>587.5999755859375</ele>
        <time>2026-08-21T16:34:10.000Z</time>
        <extensions>
          <ns3:TrackPointExtension>
            <ns3:hr>125</ns3:hr>
            <ns3:cad>0</ns3:cad>
          </ns3:TrackPointExtension>
        </extensions>
      </trkpt>
      <trkpt lat="45.3239590488374233245849609375" lon="-70.89766002260148525238037109375">
        <ele>587.79998779296875</ele>
        <time>2026-08-21T16:34:11.000Z</time>
        <extensions>
          <ns3:TrackPointExtension>
            <ns3:hr>125</ns3:hr>
            <ns3:cad>0</ns3:cad>
          </ns3:TrackPointExtension>
        </extensions>
      </trkpt>
      <trkpt lat="45.32397304661571979522705078125" lon="-70.89766077697277069091796875">
        <ele>587.79998779296875</ele>
        <time>2026-08-21T16:34:12.000Z</time>
        <extensions>
          <ns3:TrackPointExtension>
            <ns3:hr>124</ns3:hr>
            <ns3:cad>0</ns3:cad>
          </ns3:TrackPointExtension>
        </extensions>
      </trkpt>
      <trkpt lat="45.32398763112723827362060546875" lon="-70.89766270481050014495849609375">
        <ele>588</ele>
        <time>2026-08-21T16:34:13.000Z</time>
        <extensions>
          <ns3:TrackPointExtension>
            <ns3:hr>124</ns3:hr>
            <ns3:cad>0</ns3:cad>
          </ns3:TrackPointExtension>
        </extensions>
      </trkpt>
      <trkpt lat="45.32401017844676971435546875" lon="-70.89765918441116809844970703125">
        <ele>587.79998779296875</ele>
        <time>2026-08-21T16:34:14.000Z</time>
        <extensions>
          <ns3:TrackPointExtension>
            <ns3:hr>124</ns3:hr>
            <ns3:cad>0</ns3:cad>
          </ns3:TrackPointExtension>
        </extensions>
      </trkpt>
      <trkpt lat="45.324027948081493377685546875" lon="-70.89765633456408977508544921875">
        <ele>587.79998779296875</ele>
        <time>2026-08-21T16:34:15.000Z</time>
        <extensions>
          <ns3:TrackPointExtension>
            <ns3:hr>124</ns3:hr>
            <ns3:cad>0</ns3:cad>
          </ns3:TrackPointExtension>
        </extensions>
      </trkpt>
      <trkpt lat="45.324045382440090179443359375" lon="-70.89766211807727813720703125">
        <ele>587.79998779296875</ele>
        <time>2026-08-21T16:34:16.000Z</time>
        <extensions>
          <ns3:TrackPointExtension>
            <ns3:hr>124</ns3:hr>
            <ns3:cad>0</ns3:cad>
          </ns3:TrackPointExtension>
        </extensions>
      </trkpt>
      <trkpt lat="45.32406206242740154266357421875" lon="-70.8976654708385467529296875">
        <ele>587.79998779296875</ele>
        <time>2026-08-21T16:34:17.000Z</time>
        <extensions>
          <ns3:TrackPointExtension>
            <ns3:hr>124</ns3:hr>
            <ns3:cad>0</ns3:cad>
          </ns3:TrackPointExtension>
        </extensions>
      </trkpt>
      <trkpt lat="45.3240740485489368438720703125" lon="-70.89766681194305419921875">
        <ele>587.79998779296875</ele>
        <time>2026-08-21T16:34:18.000Z</time>
        <extensions>
          <ns3:TrackPointExtension>
            <ns3:hr>124</ns3:hr>
            <ns3:cad>0</ns3:cad>
          </ns3:TrackPointExtension>
        </extensions>
      </trkpt>
      <trkpt lat="45.32408259809017181396484375" lon="-70.89768089354038238525390625">
        <ele>587.79998779296875</ele>
        <time>2026-08-21T16:34:19.000Z</time>
        <extensions>
          <ns3:TrackPointExtension>
            <ns3:hr>125</ns3:hr>
            <ns3:cad>0</ns3:cad>
          </ns3:TrackPointExtension>
        </extensions>
      </trkpt>
      <trkpt lat="45.32409156672656536102294921875" lon="-70.89769707061350345611572265625">
        <ele>587.79998779296875</ele>
        <time>2026-08-21T16:34:20.000Z</time>
        <extensions>
          <ns3:TrackPointExtension>
            <ns3:hr>125</ns3:hr>
            <ns3:cad>0</ns3:cad>
          </ns3:TrackPointExtension>
        </extensions>
      </trkpt>
      <trkpt lat="45.32411050982773303985595703125" lon="-70.89771039783954620361328125">
        <ele>587.5999755859375</ele>
        <time>2026-08-21T16:34:21.000Z</time>
        <extensions>
          <ns3:TrackPointExtension>
            <ns3:hr>126</ns3:hr>
            <ns3:cad>70</ns3:cad>
          </ns3:TrackPointExtension>
        </extensions>
      </trkpt>
      <trkpt lat="45.32412576489150524139404296875" lon="-70.89772540144622325897216796875">
        <ele>587.5999755859375</ele>
        <time>2026-08-21T16:34:22.000Z</time>
        <extensions>
          <ns3:TrackPointExtension>
            <ns3:hr>126</ns3:hr>
            <ns3:cad>70</ns3:cad>
          </ns3:TrackPointExtension>
        </extensions>
      </trkpt>
      <trkpt lat="45.3241431154310703277587890625" lon="-70.89774124324321746826171875">
        <ele>587.5999755859375</ele>
        <time>2026-08-21T16:34:23.000Z</time>
        <extensions>
          <ns3:TrackPointExtension>
            <ns3:hr>126</ns3:hr>
            <ns3:cad>73</ns3:cad>
          </ns3:TrackPointExtension>
        </extensions>
      </trkpt>
      <trkpt lat="45.32415912486612796783447265625" lon="-70.89775691740214824676513671875">
        <ele>587.4000244140625</ele>
        <time>2026-08-21T16:34:24.000Z</time>
        <extensions>
          <ns3:TrackPointExtension>
            <ns3:hr>127</ns3:hr>
            <ns3:cad>74</ns3:cad>
          </ns3:TrackPointExtension>
        </extensions>
      </trkpt>
      <trkpt lat="45.3241776488721370697021484375" lon="-70.8977685682475566864013671875">
        <ele>587.4000244140625</ele>
        <time>2026-08-21T16:34:25.000Z</time>
        <extensions>
          <ns3:TrackPointExtension>
            <ns3:hr>127</ns3:hr>
            <ns3:cad>74</ns3:cad>
          </ns3:TrackPointExtension>
        </extensions>
      </trkpt>
      <trkpt lat="45.32419131137430667877197265625" lon="-70.8977789618074893951416015625">
        <ele>587.4000244140625</ele>
        <time>2026-08-21T16:34:26.000Z</time>
        <extensions>
          <ns3:TrackPointExtension>
            <ns3:hr>127</ns3:hr>
            <ns3:cad>75</ns3:cad>
          </ns3:TrackPointExtension>
        </extensions>
      </trkpt>
      <trkpt lat="45.32420597970485687255859375" lon="-70.8977890200912952423095703125">
        <ele>587.4000244140625</ele>
        <time>2026-08-21T16:34:27.000Z</time>
        <extensions>
          <ns3:TrackPointExtension>
            <ns3:hr>127</ns3:hr>
            <ns3:cad>75</ns3:cad>
          </ns3:TrackPointExtension>
        </extensions>
      </trkpt>
      <trkpt lat="45.32422433607280254364013671875" lon="-70.89780134148895740509033203125">
        <ele>587.5999755859375</ele>
        <time>2026-08-21T16:34:28.000Z</time>
        <extensions>
          <ns3:TrackPointExtension>
            <ns3:hr>128</ns3:hr>
            <ns3:cad>77</ns3:cad>
          </ns3:TrackPointExtension>
        </extensions>
      </trkpt>
      <trkpt lat="45.324244201183319091796875" lon="-70.8978134952485561370849609375">
        <ele>587.5999755859375</ele>
        <time>2026-08-21T16:34:29.000Z</time>
        <extensions>
          <ns3:TrackPointExtension>
            <ns3:hr>128</ns3:hr>
            <ns3:cad>77</ns3:cad>
          </ns3:TrackPointExtension>
        </extensions>
      </trkpt>
      <trkpt lat="45.3242643177509307861328125" lon="-70.8978237211704254150390625">
        <ele>587.5999755859375</ele>
        <time>2026-08-21T16:34:30.000Z</time>
        <extensions>
          <ns3:TrackPointExtension>
            <ns3:hr>128</ns3:hr>
            <ns3:cad>77</ns3:cad>
          </ns3:TrackPointExtension>
        </extensions>
      </trkpt>
      <trkpt lat="45.3242846019566059112548828125" lon="-70.8978359587490558624267578125">
        <ele>587.5999755859375</ele>
        <time>2026-08-21T16:34:31.000Z</time>
        <extensions>
          <ns3:TrackPointExtension>
            <ns3:hr>129</ns3:hr>
            <ns3:cad>77</ns3:cad>
          </ns3:TrackPointExtension>
        </extensions>
      </trkpt>
      <trkpt lat="45.32430312596261501312255859375" lon="-70.897850207984447479248046875">
        <ele>587.5999755859375</ele>
        <time>2026-08-21T16:34:32.000Z</time>
        <extensions>
          <ns3:TrackPointExtension>
            <ns3:hr>129</ns3:hr>
            <ns3:cad>77</ns3:cad>
          </ns3:TrackPointExtension>
        </extensions>
      </trkpt>
      <trkpt lat="45.3243198059499263763427734375" lon="-70.8978559076786041259765625">
        <ele>587.5999755859375</ele>
        <time>2026-08-21T16:34:33.000Z</time>
        <extensions>
          <ns3:TrackPointExtension>
            <ns3:hr>130</ns3:hr>
            <ns3:cad>75</ns3:cad>
          </ns3:TrackPointExtension>
        </extensions>
      </trkpt>
      <trkpt lat="45.32433070242404937744140625" lon="-70.89786236174404621124267578125">
        <ele>587.5999755859375</ele>
        <time>2026-08-21T16:34:34.000Z</time>
        <extensions>
          <ns3:TrackPointExtension>
            <ns3:hr>131</ns3:hr>
            <ns3:cad>75</ns3:cad>
          </ns3:TrackPointExtension>
        </extensions>
      </trkpt>
      <trkpt lat="45.32433765940368175506591796875" lon="-70.8978822268545627593994140625">
        <ele>587.5999755859375</ele>
        <time>2026-08-21T16:34:35.000Z</time>
        <extensions>
          <ns3:TrackPointExtension>
            <ns3:hr>132</ns3:hr>
            <ns3:cad>74</ns3:cad>
          </ns3:TrackPointExtension>
        </extensions>
      </trkpt>
      <trkpt lat="45.32434067688882350921630859375" lon="-70.897895134985446929931640625">
        <ele>587.5999755859375</ele>
        <time>2026-08-21T16:34:36.000Z</time>
        <extensions>
          <ns3:TrackPointExtension>
            <ns3:hr>132</ns3:hr>
            <ns3:cad>74</ns3:cad>
          </ns3:TrackPointExtension>
        </extensions>
      </trkpt>
      <trkpt lat="45.32434034161269664764404296875" lon="-70.89790259487926959991455078125">
        <ele>587.5999755859375</ele>
        <time>2026-08-21T16:34:37.000Z</time>
        <extensions>
          <ns3:TrackPointExtension>
            <ns3:hr>132</ns3:hr>
            <ns3:cad>74</ns3:cad>
          </ns3:TrackPointExtension>
        </extensions>
      </trkpt>
      <trkpt lat="45.32434335909783840179443359375" lon="-70.89791416190564632415771484375">
        <ele>587.4000244140625</ele>
        <time>2026-08-21T16:34:38.000Z</time>
        <extensions>
          <ns3:TrackPointExtension>
            <ns3:hr>133</ns3:hr>
            <ns3:cad>73</ns3:cad>
          </ns3:TrackPointExtension>
        </extensions>
      </trkpt>
      <trkpt lat="45.32435216009616851806640625" lon="-70.8979315124452114105224609375">
        <ele>587.4000244140625</ele>
        <time>2026-08-21T16:34:39.000Z</time>
        <extensions>
          <ns3:TrackPointExtension>
            <ns3:hr>133</ns3:hr>
            <ns3:cad>73</ns3:cad>
          </ns3:TrackPointExtension>
        </extensions>
      </trkpt>
      <trkpt lat="45.32436397857964038848876953125" lon="-70.89794819243252277374267578125">
        <ele>587.20001220703125</ele>
        <time>2026-08-21T16:34:40.000Z</time>
        <extensions>
          <ns3:TrackPointExtension>
            <ns3:hr>133</ns3:hr>
            <ns3:cad>73</ns3:cad>
          </ns3:TrackPointExtension>
        </extensions>
      </trkpt>
      <trkpt lat="45.3243757970631122589111328125" lon="-70.89795825071632862091064453125">
        <ele>587</ele>
        <time>2026-08-21T16:34:41.000Z</time>
        <extensions>
          <ns3:TrackPointExtension>
            <ns3:hr>133</ns3:hr>
            <ns3:cad>75</ns3:cad>
          </ns3:TrackPointExtension>
        </extensions>
      </trkpt>
      <trkpt lat="45.32438694499433040618896484375" lon="-70.897975601255893707275390625">
        <ele>586.79998779296875</ele>
        <time>2026-08-21T16:34:42.000Z</time>
        <extensions>
          <ns3:TrackPointExtension>
            <ns3:hr>133</ns3:hr>
            <ns3:cad>75</ns3:cad>
          </ns3:TrackPointExtension>
        </extensions>
      </trkpt>
      <trkpt lat="45.32439348287880420684814453125" lon="-70.89799605309963226318359375">
        <ele>586.79998779296875</ele>
        <time>2026-08-21T16:34:43.000Z</time>
        <extensions>
          <ns3:TrackPointExtension>
            <ns3:hr>133</ns3:hr>
            <ns3:cad>75</ns3:cad>
          </ns3:TrackPointExtension>
        </extensions>
      </trkpt>
      <trkpt lat="45.32440605573356151580810546875" lon="-70.89801709167659282684326171875">
        <ele>586.79998779296875</ele>
        <time>2026-08-21T16:34:44.000Z</time>
        <extensions>
          <ns3:TrackPointExtension>
            <ns3:hr>132</ns3:hr>
            <ns3:cad>75</ns3:cad>
          </ns3:TrackPointExtension>
        </extensions>
      </trkpt>
      <trkpt lat="45.32441762275993824005126953125" lon="-70.89803603477776050567626953125">
        <ele>586.79998779296875</ele>
        <time>2026-08-21T16:34:45.000Z</time>
        <extensions>
          <ns3:TrackPointExtension>
            <ns3:hr>132</ns3:hr>
            <ns3:cad>73</ns3:cad>
          </ns3:TrackPointExtension>
        </extensions>
      </trkpt>
      <trkpt lat="45.32442835159599781036376953125" lon="-70.8980565704405307769775390625">
        <ele>586.79998779296875</ele>
        <time>2026-08-21T16:34:46.000Z</time>
        <extensions>
          <ns3:TrackPointExtension>
            <ns3:hr>132</ns3:hr>
            <ns3:cad>73</ns3:cad>
          </ns3:TrackPointExtension>
        </extensions>
      </trkpt>
      <trkpt lat="45.32444159500300884246826171875" lon="-70.8980729989707469940185546875">
        <ele>587</ele>
        <time>2026-08-21T16:34:47.000Z</time>
        <extensions>
          <ns3:TrackPointExtension>
            <ns3:hr>132</ns3:hr>
            <ns3:cad>73</ns3:cad>
          </ns3:TrackPointExtension>
        </extensions>
      </trkpt>
      <trkpt lat="45.32445550896227359771728515625" lon="-70.898090936243534088134765625">
        <ele>586.79998779296875</ele>
        <time>2026-08-21T16:34:48.000Z</time>
        <extensions>
          <ns3:TrackPointExtension>
            <ns3:hr>132</ns3:hr>
            <ns3:cad>73</ns3:cad>
          </ns3:TrackPointExtension>
        </extensions>
      </trkpt>
      <trkpt lat="45.3244700096547603607177734375" lon="-70.8981078676879405975341796875">
        <ele>586.79998779296875</ele>
        <time>2026-08-21T16:34:49.000Z</time>
        <extensions>
          <ns3:TrackPointExtension>
            <ns3:hr>132</ns3:hr>
            <ns3:cad>73</ns3:cad>
          </ns3:TrackPointExtension>
        </extensions>
      </trkpt>
      <trkpt lat="45.3244840912520885467529296875" lon="-70.89812136255204677581787109375">
        <ele>586.4000244140625</ele>
        <time>2026-08-21T16:34:50.000Z</time>
        <extensions>
          <ns3:TrackPointExtension>
            <ns3:hr>133</ns3:hr>
            <ns3:cad>77</ns3:cad>
          </ns3:TrackPointExtension>
        </extensions>
      </trkpt>
      <trkpt lat="45.32449540682137012481689453125" lon="-70.89813695289194583892822265625">
        <ele>586.4000244140625</ele>
        <time>2026-08-21T16:34:51.000Z</time>
        <extensions>
          <ns3:TrackPointExtension>
            <ns3:hr>133</ns3:hr>
            <ns3:cad>77</ns3:cad>
          </ns3:TrackPointExtension>
        </extensions>
      </trkpt>
      <trkpt lat="45.324500016868114471435546875" lon="-70.89815002866089344024658203125">
        <ele>586.20001220703125</ele>
        <time>2026-08-21T16:34:52.000Z</time>
        <extensions>
          <ns3:TrackPointExtension>
            <ns3:hr>134</ns3:hr>
            <ns3:cad>75</ns3:cad>
          </ns3:TrackPointExtension>
        </extensions>
      </trkpt>
      <trkpt lat="45.32450529746711254119873046875" lon="-70.8981648646295070648193359375">
        <ele>586.20001220703125</ele>
        <time>2026-08-21T16:34:53.000Z</time>
        <extensions>
          <ns3:TrackPointExtension>
            <ns3:hr>135</ns3:hr>
            <ns3:cad>75</ns3:cad>
          </ns3:TrackPointExtension>
        </extensions>
      </trkpt>
      <trkpt lat="45.3245172835886478424072265625" lon="-70.8981843106448650360107421875">
        <ele>586.20001220703125</ele>
        <time>2026-08-21T16:34:54.000Z</time>
        <extensions>
          <ns3:TrackPointExtension>
            <ns3:hr>135</ns3:hr>
            <ns3:cad>75</ns3:cad>
          </ns3:TrackPointExtension>
        </extensions>
      </trkpt>
      <trkpt lat="45.324529521167278289794921875" lon="-70.89819227345287799835205078125">
        <ele>586.20001220703125</ele>
        <time>2026-08-21T16:34:55.000Z</time>
        <extensions>
          <ns3:TrackPointExtension>
            <ns3:hr>136</ns3:hr>
            <ns3:cad>75</ns3:cad>
          </ns3:TrackPointExtension>
        </extensions>
      </trkpt>
      <trkpt lat="45.3245387412607669830322265625" lon="-70.8982017450034618377685546875">
        <ele>586.20001220703125</ele>
        <time>2026-08-21T16:34:56.000Z</time>
        <extensions>
          <ns3:TrackPointExtension>
            <ns3:hr>136</ns3:hr>
            <ns3:cad>75</ns3:cad>
          </ns3:TrackPointExtension>
        </extensions>
      </trkpt>
      <trkpt lat="45.32454938627779483795166015625" lon="-70.89821867644786834716796875">
        <ele>586.4000244140625</ele>
        <time>2026-08-21T16:34:57.000Z</time>
        <extensions>
          <ns3:TrackPointExtension>
            <ns3:hr>136</ns3:hr>
            <ns3:cad>0</ns3:cad>
          </ns3:TrackPointExtension>
        </extensions>
      </trkpt>
      <trkpt lat="45.3245565108954906463623046875" lon="-70.8982429839670658111572265625">
        <ele>586.4000244140625</ele>
        <time>2026-08-21T16:34:58.000Z</time>
        <extensions>
          <ns3:TrackPointExtension>
            <ns3:hr>136</ns3:hr>
            <ns3:cad>0</ns3:cad>
          </ns3:TrackPointExtension>
        </extensions>
      </trkpt>
      <trkpt lat="45.32456581480801105499267578125" lon="-70.89825681410729885101318359375">
        <ele>586.4000244140625</ele>
        <time>2026-08-21T16:34:59.000Z</time>
        <extensions>
          <ns3:TrackPointExtension>
            <ns3:hr>135</ns3:hr>
            <ns3:cad>0</ns3:cad>
          </ns3:TrackPointExtension>
        </extensions>
      </trkpt>
      <trkpt lat="45.324575118720531463623046875" lon="-70.8982664532959461212158203125">
        <ele>586.4000244140625</ele>
        <time>2026-08-21T16:35:00.000Z</time>
        <extensions>
          <ns3:TrackPointExtension>
            <ns3:hr>135</ns3:hr>
            <ns3:cad>0</ns3:cad>
          </ns3:TrackPointExtension>
        </extensions>
      </trkpt>
      <trkpt lat="45.3245860151946544647216796875" lon="-70.89828263036906719207763671875">
        <ele>586.20001220703125</ele>
        <time>2026-08-21T16:35:01.000Z</time>
        <extensions>
          <ns3:TrackPointExtension>
            <ns3:hr>135</ns3:hr>
            <ns3:cad>0</ns3:cad>
          </ns3:TrackPointExtension>
        </extensions>
      </trkpt>
      <trkpt lat="45.32459951005876064300537109375" lon="-70.8982966281473636627197265625">
        <ele>586.20001220703125</ele>
        <time>2026-08-21T16:35:02.000Z</time>
        <extensions>
          <ns3:TrackPointExtension>
            <ns3:hr>135</ns3:hr>
            <ns3:cad>59</ns3:cad>
          </ns3:TrackPointExtension>
        </extensions>
      </trkpt>
      <trkpt lat="45.324614010751247406005859375" lon="-70.8983063511550426483154296875">
        <ele>586.20001220703125</ele>
        <time>2026-08-21T16:35:03.000Z</time>
        <extensions>
          <ns3:TrackPointExtension>
            <ns3:hr>135</ns3:hr>
            <ns3:cad>61</ns3:cad>
          </ns3:TrackPointExtension>
        </extensions>
      </trkpt>
      <trkpt lat="45.32463119365274906158447265625" lon="-70.898321606218814849853515625">
        <ele>586</ele>
        <time>2026-08-21T16:35:04.000Z</time>
        <extensions>
          <ns3:TrackPointExtension>
            <ns3:hr>135</ns3:hr>
            <ns3:cad>61</ns3:cad>
          </ns3:TrackPointExtension>
        </extensions>
      </trkpt>
      <trkpt lat="45.324646532535552978515625" lon="-70.89833535254001617431640625">
        <ele>586</ele>
        <time>2026-08-21T16:35:05.000Z</time>
        <extensions>
          <ns3:TrackPointExtension>
            <ns3:hr>135</ns3:hr>
            <ns3:cad>61</ns3:cad>
          </ns3:TrackPointExtension>
        </extensions>
      </trkpt>
      <trkpt lat="45.324663631618022918701171875" lon="-70.89834918268024921417236328125">
        <ele>586</ele>
        <time>2026-08-21T16:35:06.000Z</time>
        <extensions>
          <ns3:TrackPointExtension>
            <ns3:hr>135</ns3:hr>
            <ns3:cad>61</ns3:cad>
          </ns3:TrackPointExtension>
        </extensions>
      </trkpt>
      <trkpt lat="45.3246782161295413970947265625" lon="-70.89836460538208484649658203125">
        <ele>585.79998779296875</ele>
        <time>2026-08-21T16:35:07.000Z</time>
        <extensions>
          <ns3:TrackPointExtension>
            <ns3:hr>135</ns3:hr>
            <ns3:cad>61</ns3:cad>
          </ns3:TrackPointExtension>
        </extensions>
      </trkpt>
      <trkpt lat="45.32469539903104305267333984375" lon="-70.89837784878909587860107421875">
        <ele>585.79998779296875</ele>
        <time>2026-08-21T16:35:08.000Z</time>
        <extensions>
          <ns3:TrackPointExtension>
            <ns3:hr>134</ns3:hr>
            <ns3:cad>75</ns3:cad>
          </ns3:TrackPointExtension>
        </extensions>
      </trkpt>
      <trkpt lat="45.3247114084661006927490234375" lon="-70.8983951993286609649658203125">
        <ele>585.79998779296875</ele>
        <time>2026-08-21T16:35:09.000Z</time>
        <extensions>
          <ns3:TrackPointExtension>
            <ns3:hr>134</ns3:hr>
            <ns3:cad>77</ns3:cad>
          </ns3:TrackPointExtension>
        </extensions>
      </trkpt>
      <trkpt lat="45.32472976483404636383056640625" lon="-70.898412130773067474365234375">
        <ele>585.79998779296875</ele>
        <time>2026-08-21T16:35:10.000Z</time>
        <extensions>
          <ns3:TrackPointExtension>
            <ns3:hr>134</ns3:hr>
            <ns3:cad>77</ns3:cad>
          </ns3:TrackPointExtension>
        </extensions>
      </trkpt>
      <trkpt lat="45.324749462306499481201171875" lon="-70.8984223566949367523193359375">
        <ele>585.79998779296875</ele>
        <time>2026-08-21T16:35:11.000Z</time>
        <extensions>
          <ns3:TrackPointExtension>
            <ns3:hr>134</ns3:hr>
            <ns3:cad>77</ns3:cad>
          </ns3:TrackPointExtension>
        </extensions>
      </trkpt>
      <trkpt lat="45.32477167434990406036376953125" lon="-70.89842252433300018310546875">
        <ele>585.5999755859375</ele>
        <time>2026-08-21T16:35:12.000Z</time>
        <extensions>
          <ns3:TrackPointExtension>
            <ns3:hr>134</ns3:hr>
            <ns3:cad>74</ns3:cad>
          </ns3:TrackPointExtension>
        </extensions>
      </trkpt>
      <trkpt lat="45.324788354337215423583984375" lon="-70.89841447770595550537109375">
        <ele>585.5999755859375</ele>
        <time>2026-08-21T16:35:13.000Z</time>
        <extensions>
          <ns3:TrackPointExtension>
            <ns3:hr>134</ns3:hr>
            <ns3:cad>74</ns3:cad>
          </ns3:TrackPointExtension>
        </extensions>
      </trkpt>
      <trkpt lat="45.3248079679906368255615234375" lon="-70.8984102867543697357177734375">
        <ele>585.5999755859375</ele>
        <time>2026-08-21T16:35:14.000Z</time>
        <extensions>
          <ns3:TrackPointExtension>
            <ns3:hr>134</ns3:hr>
            <ns3:cad>74</ns3:cad>
          </ns3:TrackPointExtension>
        </extensions>
      </trkpt>
      <trkpt lat="45.3248240612447261810302734375" lon="-70.89840701781213283538818359375">
        <ele>585.4000244140625</ele>
        <time>2026-08-21T16:35:15.000Z</time>
        <extensions>
          <ns3:TrackPointExtension>
            <ns3:hr>134</ns3:hr>
            <ns3:cad>74</ns3:cad>
          </ns3:TrackPointExtension>
        </extensions>
      </trkpt>
      <trkpt lat="45.32484007067978382110595703125" lon="-70.89840710163116455078125">
        <ele>585.4000244140625</ele>
        <time>2026-08-21T16:35:16.000Z</time>
        <extensions>
          <ns3:TrackPointExtension>
            <ns3:hr>134</ns3:hr>
            <ns3:cad>74</ns3:cad>
          </ns3:TrackPointExtension>
        </extensions>
      </trkpt>
      <trkpt lat="45.32485532574355602264404296875" lon="-70.89841020293533802032470703125">
        <ele>585.4000244140625</ele>
        <time>2026-08-21T16:35:17.000Z</time>
        <extensions>
          <ns3:TrackPointExtension>
            <ns3:hr>134</ns3:hr>
            <ns3:cad>74</ns3:cad>
          </ns3:TrackPointExtension>
        </extensions>
      </trkpt>
      <trkpt lat="45.32487208954989910125732421875" lon="-70.8984139747917652130126953125">
        <ele>585.20001220703125</ele>
        <time>2026-08-21T16:35:18.000Z</time>
        <extensions>
          <ns3:TrackPointExtension>
            <ns3:hr>133</ns3:hr>
            <ns3:cad>74</ns3:cad>
          </ns3:TrackPointExtension>
        </extensions>
      </trkpt>
      <trkpt lat="45.32488767988979816436767578125" lon="-70.89841288514435291290283203125">
        <ele>585</ele>
        <time>2026-08-21T16:35:19.000Z</time>
        <extensions>
          <ns3:TrackPointExtension>
            <ns3:hr>133</ns3:hr>
            <ns3:cad>74</ns3:cad>
          </ns3:TrackPointExtension>
        </extensions>
      </trkpt>
      <trkpt lat="45.324905030429363250732421875" lon="-70.89840500615537166595458984375">
        <ele>585</ele>
        <time>2026-08-21T16:35:20.000Z</time>
        <extensions>
          <ns3:TrackPointExtension>
            <ns3:hr>131</ns3:hr>
            <ns3:cad>74</ns3:cad>
          </ns3:TrackPointExtension>
        </extensions>
      </trkpt>
      <trkpt lat="45.3249187767505645751953125" lon="-70.898399055004119873046875">
        <ele>584.79998779296875</ele>
        <time>2026-08-21T16:35:21.000Z</time>
        <extensions>
          <ns3:TrackPointExtension>
            <ns3:hr>130</ns3:hr>
            <ns3:cad>74</ns3:cad>
          </ns3:TrackPointExtension>
        </extensions>
      </trkpt>
      <trkpt lat="45.3249295055866241455078125" lon="-70.8983977138996124267578125">
        <ele>584.79998779296875</ele>
        <time>2026-08-21T16:35:22.000Z</time>
        <extensions>
          <ns3:TrackPointExtension>
            <ns3:hr>129</ns3:hr>
            <ns3:cad>56</ns3:cad>
          </ns3:TrackPointExtension>
        </extensions>
      </trkpt>
      <trkpt lat="45.32494702376425266265869140625" lon="-70.8984032459557056427001953125">
        <ele>585</ele>
        <time>2026-08-21T16:35:23.000Z</time>
        <extensions>
          <ns3:TrackPointExtension>
            <ns3:hr>128</ns3:hr>
            <ns3:cad>56</ns3:cad>
          </ns3:TrackPointExtension>
        </extensions>
      </trkpt>
      <trkpt lat="45.3249632008373737335205078125" lon="-70.89841154403984546661376953125">
        <ele>585</ele>
        <time>2026-08-21T16:35:24.000Z</time>
        <extensions>
          <ns3:TrackPointExtension>
            <ns3:hr>128</ns3:hr>
            <ns3:cad>56</ns3:cad>
          </ns3:TrackPointExtension>
        </extensions>
      </trkpt>
      <trkpt lat="45.32498021610081195831298828125" lon="-70.898411460220813751220703125">
        <ele>585</ele>
        <time>2026-08-21T16:35:25.000Z</time>
        <extensions>
          <ns3:TrackPointExtension>
            <ns3:hr>128</ns3:hr>
            <ns3:cad>72</ns3:cad>
          </ns3:TrackPointExtension>
        </extensions>
      </trkpt>
      <trkpt lat="45.32500050030648708343505859375" lon="-70.89840668253600597381591796875">
        <ele>585</ele>
        <time>2026-08-21T16:35:26.000Z</time>
        <extensions>
          <ns3:TrackPointExtension>
            <ns3:hr>128</ns3:hr>
            <ns3:cad>72</ns3:cad>
          </ns3:TrackPointExtension>
        </extensions>
      </trkpt>
      <trkpt lat="45.3250208683311939239501953125" lon="-70.898404419422149658203125">
        <ele>585</ele>
        <time>2026-08-21T16:35:27.000Z</time>
        <extensions>
          <ns3:TrackPointExtension>
            <ns3:hr>129</ns3:hr>
            <ns3:cad>69</ns3:cad>
          </ns3:TrackPointExtension>
        </extensions>
      </trkpt>
      <trkpt lat="45.32503989525139331817626953125" lon="-70.89840031228959560394287109375">
        <ele>585</ele>
        <time>2026-08-21T16:35:28.000Z</time>
        <extensions>
          <ns3:TrackPointExtension>
            <ns3:hr>129</ns3:hr>
            <ns3:cad>69</ns3:cad>
          </ns3:TrackPointExtension>
        </extensions>
      </trkpt>
      <trkpt lat="45.32505691051483154296875" lon="-70.89839561842381954193115234375">
        <ele>584.79998779296875</ele>
        <time>2026-08-21T16:35:29.000Z</time>
        <extensions>
          <ns3:TrackPointExtension>
            <ns3:hr>129</ns3:hr>
            <ns3:cad>69</ns3:cad>
          </ns3:TrackPointExtension>
        </extensions>
      </trkpt>
      <trkpt lat="45.325074680149555206298828125" lon="-70.89839142747223377227783203125">
        <ele>584.5999755859375</ele>
        <time>2026-08-21T16:35:30.000Z</time>
        <extensions>
          <ns3:TrackPointExtension>
            <ns3:hr>128</ns3:hr>
            <ns3:cad>69</ns3:cad>
          </ns3:TrackPointExtension>
        </extensions>
      </trkpt>
      <trkpt lat="45.3250931203365325927734375" lon="-70.8983814530074596405029296875">
        <ele>584.5999755859375</ele>
        <time>2026-08-21T16:35:31.000Z</time>
        <extensions>
          <ns3:TrackPointExtension>
            <ns3:hr>128</ns3:hr>
            <ns3:cad>69</ns3:cad>
          </ns3:TrackPointExtension>
        </extensions>
      </trkpt>
      <trkpt lat="45.32510912977159023284912109375" lon="-70.89836510829627513885498046875">
        <ele>584.5999755859375</ele>
        <time>2026-08-21T16:35:32.000Z</time>
        <extensions>
          <ns3:TrackPointExtension>
            <ns3:hr>128</ns3:hr>
            <ns3:cad>73</ns3:cad>
          </ns3:TrackPointExtension>
        </extensions>
      </trkpt>
      <trkpt lat="45.32512731850147247314453125" lon="-70.89834876358509063720703125">
        <ele>584.5999755859375</ele>
        <time>2026-08-21T16:35:33.000Z</time>
        <extensions>
          <ns3:TrackPointExtension>
            <ns3:hr>128</ns3:hr>
            <ns3:cad>73</ns3:cad>
          </ns3:TrackPointExtension>
        </extensions>
      </trkpt>
      <trkpt lat="45.32514399848878383636474609375" lon="-70.89833325706422328948974609375">
        <ele>584.5999755859375</ele>
        <time>2026-08-21T16:35:34.000Z</time>
        <extensions>
          <ns3:TrackPointExtension>
            <ns3:hr>129</ns3:hr>
            <ns3:cad>73</ns3:cad>
          </ns3:TrackPointExtension>
        </extensions>
      </trkpt>
      <trkpt lat="45.32515791244804859161376953125" lon="-70.89831615798175334930419921875">
        <ele>584.79998779296875</ele>
        <time>2026-08-21T16:35:35.000Z</time>
        <extensions>
          <ns3:TrackPointExtension>
            <ns3:hr>129</ns3:hr>
            <ns3:cad>73</ns3:cad>
          </ns3:TrackPointExtension>
        </extensions>
      </trkpt>
      <trkpt lat="45.32516956329345703125" lon="-70.8982972986996173858642578125">
        <ele>584.79998779296875</ele>
        <time>2026-08-21T16:35:36.000Z</time>
        <extensions>
          <ns3:TrackPointExtension>
            <ns3:hr>128</ns3:hr>
            <ns3:cad>76</ns3:cad>
          </ns3:TrackPointExtension>
        </extensions>
      </trkpt>
      <trkpt lat="45.3251821361482143402099609375" lon="-70.89828514494001865386962890625">
        <ele>584.79998779296875</ele>
        <time>2026-08-21T16:35:37.000Z</time>
        <extensions>
          <ns3:TrackPointExtension>
            <ns3:hr>129</ns3:hr>
            <ns3:cad>76</ns3:cad>
          </ns3:TrackPointExtension>
        </extensions>
      </trkpt>
      <trkpt lat="45.32519965432584285736083984375" lon="-70.89827626012265682220458984375">
        <ele>584.79998779296875</ele>
        <time>2026-08-21T16:35:38.000Z</time>
        <extensions>
          <ns3:TrackPointExtension>
            <ns3:hr>129</ns3:hr>
            <ns3:cad>76</ns3:cad>
          </ns3:TrackPointExtension>
        </extensions>
      </trkpt>
      <trkpt lat="45.32521457411348819732666015625" lon="-70.89826687239110469818115234375">
        <ele>584.79998779296875</ele>
        <time>2026-08-21T16:35:39.000Z</time>
        <extensions>
          <ns3:TrackPointExtension>
            <ns3:hr>130</ns3:hr>
            <ns3:cad>55</ns3:cad>
          </ns3:TrackPointExtension>
        </extensions>
      </trkpt>
      <trkpt lat="45.3252253867685794830322265625" lon="-70.89825798757374286651611328125">
        <ele>584.79998779296875</ele>
        <time>2026-08-21T16:35:40.000Z</time>
        <extensions>
          <ns3:TrackPointExtension>
            <ns3:hr>130</ns3:hr>
            <ns3:cad>55</ns3:cad>
          </ns3:TrackPointExtension>
        </extensions>
      </trkpt>
      <trkpt lat="45.32523720525205135345458984375" lon="-70.89824424125254154205322265625">
        <ele>584.79998779296875</ele>
        <time>2026-08-21T16:35:41.000Z</time>
        <extensions>
          <ns3:TrackPointExtension>
            <ns3:hr>130</ns3:hr>
            <ns3:cad>55</ns3:cad>
          </ns3:TrackPointExtension>
        </extensions>
      </trkpt>
      <trkpt lat="45.32524877227842807769775390625" lon="-70.8982248790562152862548828125">
        <ele>584.79998779296875</ele>
        <time>2026-08-21T16:35:42.000Z</time>
        <extensions>
          <ns3:TrackPointExtension>
            <ns3:hr>130</ns3:hr>
            <ns3:cad>55</ns3:cad>
          </ns3:TrackPointExtension>
        </extensions>
      </trkpt>
      <trkpt lat="45.3252585791051387786865234375" lon="-70.898211300373077392578125">
        <ele>584.5999755859375</ele>
        <time>2026-08-21T16:35:43.000Z</time>
        <extensions>
          <ns3:TrackPointExtension>
            <ns3:hr>130</ns3:hr>
            <ns3:cad>55</ns3:cad>
          </ns3:TrackPointExtension>
        </extensions>
      </trkpt>
      <trkpt lat="45.32527056522667407989501953125" lon="-70.898210965096950531005859375">
        <ele>584.5999755859375</ele>
        <time>2026-08-21T16:35:44.000Z</time>
        <extensions>
          <ns3:TrackPointExtension>
            <ns3:hr>129</ns3:hr>
            <ns3:cad>55</ns3:cad>
          </ns3:TrackPointExtension>
        </extensions>
      </trkpt>
      <trkpt lat="45.3252837248146533966064453125" lon="-70.8982104621827602386474609375">
        <ele>584.4000244140625</ele>
        <time>2026-08-21T16:35:45.000Z</time>
        <extensions>
          <ns3:TrackPointExtension>
            <ns3:hr>128</ns3:hr>
            <ns3:cad>55</ns3:cad>
          </ns3:TrackPointExtension>
        </extensions>
      </trkpt>
      <trkpt lat="45.32528716139495372772216796875" lon="-70.898205600678920745849609375">
        <ele>584.4000244140625</ele>
        <time>2026-08-21T16:35:46.000Z</time>
        <extensions>
          <ns3:TrackPointExtension>
            <ns3:hr>127</ns3:hr>
            <ns3:cad>48</ns3:cad>
          </ns3:TrackPointExtension>
        </extensions>
      </trkpt>
      <trkpt lat="45.32528900541365146636962890625" lon="-70.8981990627944469451904296875">
        <ele>584.4000244140625</ele>
        <time>2026-08-21T16:35:47.000Z</time>
        <extensions>
          <ns3:TrackPointExtension>
            <ns3:hr>128</ns3:hr>
            <ns3:cad>48</ns3:cad>
          </ns3:TrackPointExtension>
        </extensions>
      </trkpt>
      <trkpt lat="45.32528548501431941986083984375" lon="-70.8981876634061336517333984375">
        <ele>584.4000244140625</ele>
        <time>2026-08-21T16:35:48.000Z</time>
        <extensions>
          <ns3:TrackPointExtension>
            <ns3:hr>128</ns3:hr>
            <ns3:cad>48</ns3:cad>
          </ns3:TrackPointExtension>
        </extensions>
      </trkpt>
      <trkpt lat="45.325293280184268951416015625" lon="-70.89817819185554981231689453125">
        <ele>584.5999755859375</ele>
        <time>2026-08-21T16:35:49.000Z</time>
        <extensions>
          <ns3:TrackPointExtension>
            <ns3:hr>128</ns3:hr>
            <ns3:cad>0</ns3:cad>
          </ns3:TrackPointExtension>
        </extensions>
      </trkpt>
      <trkpt lat="45.325306020677089691162109375" lon="-70.898176766932010650634765625">
        <ele>585</ele>
        <time>2026-08-21T16:35:50.000Z</time>
        <extensions>
          <ns3:TrackPointExtension>
            <ns3:hr>128</ns3:hr>
            <ns3:cad>0</ns3:cad>
          </ns3:TrackPointExtension>
        </extensions>
      </trkpt>
      <trkpt lat="45.32531700097024440765380859375" lon="-70.898170731961727142333984375">
        <ele>585.20001220703125</ele>
        <time>2026-08-21T16:35:51.000Z</time>
        <extensions>
          <ns3:TrackPointExtension>
            <ns3:hr>127</ns3:hr>
            <ns3:cad>0</ns3:cad>
          </ns3:TrackPointExtension>
        </extensions>
      </trkpt>
      <trkpt lat="45.325328148901462554931640625" lon="-70.89816293679177761077880859375">
        <ele>585.4000244140625</ele>
        <time>2026-08-21T16:35:52.000Z</time>
        <extensions>
          <ns3:TrackPointExtension>
            <ns3:hr>126</ns3:hr>
            <ns3:cad>0</ns3:cad>
          </ns3:TrackPointExtension>
        </extensions>
      </trkpt>
      <trkpt lat="45.3253350220620632171630859375" lon="-70.8981457538902759552001953125">
        <ele>585.5999755859375</ele>
        <time>2026-08-21T16:35:53.000Z</time>
        <extensions>
          <ns3:TrackPointExtension>
            <ns3:hr>126</ns3:hr>
            <ns3:cad>0</ns3:cad>
          </ns3:TrackPointExtension>
        </extensions>
      </trkpt>
      <trkpt lat="45.32533896155655384063720703125" lon="-70.89813309721648693084716796875">
        <ele>585.79998779296875</ele>
        <time>2026-08-21T16:35:54.000Z</time>
        <extensions>
          <ns3:TrackPointExtension>
            <ns3:hr>126</ns3:hr>
            <ns3:cad>0</ns3:cad>
          </ns3:TrackPointExtension>
        </extensions>
      </trkpt>
      <trkpt lat="45.32534181140363216400146484375" lon="-70.89812220074236392974853515625">
        <ele>586</ele>
        <time>2026-08-21T16:35:55.000Z</time>
        <extensions>
          <ns3:TrackPointExtension>
            <ns3:hr>126</ns3:hr>
            <ns3:cad>0</ns3:cad>
          </ns3:TrackPointExtension>
        </extensions>
      </trkpt>
      <trkpt lat="45.32534457743167877197265625" lon="-70.8981125615537166595458984375">
        <ele>586</ele>
        <time>2026-08-21T16:35:56.000Z</time>
        <extensions>
          <ns3:TrackPointExtension>
            <ns3:hr>126</ns3:hr>
            <ns3:cad>50</ns3:cad>
          </ns3:TrackPointExtension>
        </extensions>
      </trkpt>
      <trkpt lat="45.32535354606807231903076171875" lon="-70.89810334146022796630859375">
        <ele>586.20001220703125</ele>
        <time>2026-08-21T16:35:57.000Z</time>
        <extensions>
          <ns3:TrackPointExtension>
            <ns3:hr>127</ns3:hr>
            <ns3:cad>50</ns3:cad>
          </ns3:TrackPointExtension>
        </extensions>
      </trkpt>
      <trkpt lat="45.3253638558089733123779296875" lon="-70.898088254034519195556640625">
        <ele>586.4000244140625</ele>
        <time>2026-08-21T16:35:58.000Z</time>
        <extensions>
          <ns3:TrackPointExtension>
            <ns3:hr>127</ns3:hr>
            <ns3:cad>50</ns3:cad>
          </ns3:TrackPointExtension>
        </extensions>
      </trkpt>
      <trkpt lat="45.32537416554987430572509765625" lon="-70.89807643555104732513427734375">
        <ele>586.4000244140625</ele>
        <time>2026-08-21T16:35:59.000Z</time>
        <extensions>
          <ns3:TrackPointExtension>
            <ns3:hr>128</ns3:hr>
            <ns3:cad>50</ns3:cad>
          </ns3:TrackPointExtension>
        </extensions>
      </trkpt>
      <trkpt lat="45.32538346946239471435546875" lon="-70.89805715717375278472900390625">
        <ele>586.20001220703125</ele>
        <time>2026-08-21T16:36:00.000Z</time>
        <extensions>
          <ns3:TrackPointExtension>
            <ns3:hr>129</ns3:hr>
            <ns3:cad>0</ns3:cad>
          </ns3:TrackPointExtension>
        </extensions>
      </trkpt>
      <trkpt lat="45.32539285719394683837890625" lon="-70.89804240502417087554931640625">
        <ele>586.20001220703125</ele>
        <time>2026-08-21T16:36:01.000Z</time>
        <extensions>
          <ns3:TrackPointExtension>
            <ns3:hr>130</ns3:hr>
            <ns3:cad>0</ns3:cad>
          </ns3:TrackPointExtension>
        </extensions>
      </trkpt>
      <trkpt lat="45.32540366984903812408447265625" lon="-70.8980297483503818511962890625">
        <ele>586.20001220703125</ele>
        <time>2026-08-21T16:36:02.000Z</time>
        <extensions>
          <ns3:TrackPointExtension>
            <ns3:hr>131</ns3:hr>
            <ns3:cad>0</ns3:cad>
          </ns3:TrackPointExtension>
        </extensions>
      </trkpt>
      <trkpt lat="45.3254198469221591949462890625" lon="-70.89802555739879608154296875">
        <ele>586</ele>
        <time>2026-08-21T16:36:03.000Z</time>
        <extensions>
          <ns3:TrackPointExtension>
            <ns3:hr>131</ns3:hr>
            <ns3:cad>0</ns3:cad>
          </ns3:TrackPointExtension>
        </extensions>
      </trkpt>
      <trkpt lat="45.32543820329010486602783203125" lon="-70.89801642112433910369873046875">
        <ele>586</ele>
        <time>2026-08-21T16:36:04.000Z</time>
        <extensions>
          <ns3:TrackPointExtension>
            <ns3:hr>131</ns3:hr>
            <ns3:cad>0</ns3:cad>
          </ns3:TrackPointExtension>
        </extensions>
      </trkpt>
      <trkpt lat="45.32544893212616443634033203125" lon="-70.898009799420833587646484375">
        <ele>586.20001220703125</ele>
        <time>2026-08-21T16:36:05.000Z</time>
        <extensions>
          <ns3:TrackPointExtension>
            <ns3:hr>132</ns3:hr>
            <ns3:cad>0</ns3:cad>
          </ns3:TrackPointExtension>
        </extensions>
      </trkpt>
      <trkpt lat="45.32546418718993663787841796875" lon="-70.898007117211818695068359375">
        <ele>586.20001220703125</ele>
        <time>2026-08-21T16:36:06.000Z</time>
        <extensions>
          <ns3:TrackPointExtension>
            <ns3:hr>132</ns3:hr>
            <ns3:cad>0</ns3:cad>
          </ns3:TrackPointExtension>
        </extensions>
      </trkpt>
      <trkpt lat="45.32547575421631336212158203125" lon="-70.89800451882183551788330078125">
        <ele>586</ele>
        <time>2026-08-21T16:36:07.000Z</time>
        <extensions>
          <ns3:TrackPointExtension>
            <ns3:hr>132</ns3:hr>
            <ns3:cad>0</ns3:cad>
          </ns3:TrackPointExtension>
        </extensions>
      </trkpt>
      <trkpt lat="45.32548899762332439422607421875" lon="-70.89800384826958179473876953125">
        <ele>586</ele>
        <time>2026-08-21T16:36:08.000Z</time>
        <extensions>
          <ns3:TrackPointExtension>
            <ns3:hr>132</ns3:hr>
            <ns3:cad>0</ns3:cad>
          </ns3:TrackPointExtension>
        </extensions>
      </trkpt>
      <trkpt lat="45.3255113773047924041748046875" lon="-70.89800401590764522552490234375">
        <ele>585.79998779296875</ele>
        <time>2026-08-21T16:36:09.000Z</time>
        <extensions>
          <ns3:TrackPointExtension>
            <ns3:hr>132</ns3:hr>
            <ns3:cad>0</ns3:cad>
          </ns3:TrackPointExtension>
        </extensions>
      </trkpt>
      <trkpt lat="45.32552554272115230560302734375" lon="-70.89800418354570865631103515625">
        <ele>585.79998779296875</ele>
        <time>2026-08-21T16:36:10.000Z</time>
        <extensions>
          <ns3:TrackPointExtension>
            <ns3:hr>132</ns3:hr>
            <ns3:cad>0</ns3:cad>
          </ns3:TrackPointExtension>
        </extensions>
      </trkpt>
      <trkpt lat="45.325541384518146514892578125" lon="-70.89800787158310413360595703125">
        <ele>585.79998779296875</ele>
        <time>2026-08-21T16:36:11.000Z</time>
        <extensions>
          <ns3:TrackPointExtension>
            <ns3:hr>131</ns3:hr>
            <ns3:cad>0</ns3:cad>
          </ns3:TrackPointExtension>
        </extensions>
      </trkpt>
      <trkpt lat="45.32555554993450641632080078125" lon="-70.89801189489662647247314453125">
        <ele>585.79998779296875</ele>
        <time>2026-08-21T16:36:12.000Z</time>
        <extensions>
          <ns3:TrackPointExtension>
            <ns3:hr>131</ns3:hr>
            <ns3:cad>0</ns3:cad>
          </ns3:TrackPointExtension>
        </extensions>
      </trkpt>
      <trkpt lat="45.32557382248342037200927734375" lon="-70.89801843278110027313232421875">
        <ele>585.79998779296875</ele>
        <time>2026-08-21T16:36:13.000Z</time>
        <extensions>
          <ns3:TrackPointExtension>
            <ns3:hr>130</ns3:hr>
            <ns3:cad>83</ns3:cad>
          </ns3:TrackPointExtension>
        </extensions>
      </trkpt>
      <trkpt lat="45.3255891613662242889404296875" lon="-70.898023210465908050537109375">
        <ele>586</ele>
        <time>2026-08-21T16:36:14.000Z</time>
        <extensions>
          <ns3:TrackPointExtension>
            <ns3:hr>130</ns3:hr>
            <ns3:cad>83</ns3:cad>
          </ns3:TrackPointExtension>
        </extensions>
      </trkpt>
      <trkpt lat="45.32560902647674083709716796875" lon="-70.898031257092952728271484375">
        <ele>586</ele>
        <time>2026-08-21T16:36:15.000Z</time>
        <extensions>
          <ns3:TrackPointExtension>
            <ns3:hr>131</ns3:hr>
            <ns3:cad>77</ns3:cad>
          </ns3:TrackPointExtension>
        </extensions>
      </trkpt>
      <trkpt lat="45.3256300650537014007568359375" lon="-70.89803804643452167510986328125">
        <ele>586</ele>
        <time>2026-08-21T16:36:16.000Z</time>
        <extensions>
          <ns3:TrackPointExtension>
            <ns3:hr>131</ns3:hr>
            <ns3:cad>77</ns3:cad>
          </ns3:TrackPointExtension>
        </extensions>
      </trkpt>
      <trkpt lat="45.3256464935839176177978515625" lon="-70.89804391376674175262451171875">
        <ele>586</ele>
        <time>2026-08-21T16:36:17.000Z</time>
        <extensions>
          <ns3:TrackPointExtension>
            <ns3:hr>131</ns3:hr>
            <ns3:cad>77</ns3:cad>
          </ns3:TrackPointExtension>
        </extensions>
      </trkpt>
      <trkpt lat="45.325666107237339019775390625" lon="-70.8980558998882770538330078125">
        <ele>586</ele>
        <time>2026-08-21T16:36:18.000Z</time>
        <extensions>
          <ns3:TrackPointExtension>
            <ns3:hr>131</ns3:hr>
            <ns3:cad>76</ns3:cad>
          </ns3:TrackPointExtension>
        </extensions>
      </trkpt>
      <trkpt lat="45.32568379305303096771240234375" lon="-70.8980629406869411468505859375">
        <ele>586</ele>
        <time>2026-08-21T16:36:19.000Z</time>
        <extensions>
          <ns3:TrackPointExtension>
            <ns3:hr>131</ns3:hr>
            <ns3:cad>76</ns3:cad>
          </ns3:TrackPointExtension>
        </extensions>
      </trkpt>
      <trkpt lat="45.32570055685937404632568359375" lon="-70.89807174168527126312255859375">
        <ele>586</ele>
        <time>2026-08-21T16:36:20.000Z</time>
        <extensions>
          <ns3:TrackPointExtension>
            <ns3:hr>132</ns3:hr>
            <ns3:cad>77</ns3:cad>
          </ns3:TrackPointExtension>
        </extensions>
      </trkpt>
      <trkpt lat="45.32571547664701938629150390625" lon="-70.8980827219784259796142578125">
        <ele>585.79998779296875</ele>
        <time>2026-08-21T16:36:21.000Z</time>
        <extensions>
          <ns3:TrackPointExtension>
            <ns3:hr>132</ns3:hr>
            <ns3:cad>77</ns3:cad>
          </ns3:TrackPointExtension>
        </extensions>
      </trkpt>
      <trkpt lat="45.3257296420633792877197265625" lon="-70.8980907686054706573486328125">
        <ele>585.79998779296875</ele>
        <time>2026-08-21T16:36:22.000Z</time>
        <extensions>
          <ns3:TrackPointExtension>
            <ns3:hr>132</ns3:hr>
            <ns3:cad>77</ns3:cad>
          </ns3:TrackPointExtension>
        </extensions>
      </trkpt>
      <trkpt lat="45.32574690878391265869140625" lon="-70.8980991505086421966552734375">
        <ele>585.79998779296875</ele>
        <time>2026-08-21T16:36:23.000Z</time>
        <extensions>
          <ns3:TrackPointExtension>
            <ns3:hr>132</ns3:hr>
            <ns3:cad>77</ns3:cad>
          </ns3:TrackPointExtension>
        </extensions>
      </trkpt>
      <trkpt lat="45.3257648460566997528076171875" lon="-70.89810602366924285888671875">
        <ele>585.5999755859375</ele>
        <time>2026-08-21T16:36:24.000Z</time>
        <extensions>
          <ns3:TrackPointExtension>
            <ns3:hr>132</ns3:hr>
            <ns3:cad>77</ns3:cad>
          </ns3:TrackPointExtension>
        </extensions>
      </trkpt>
      <trkpt lat="45.325780771672725677490234375" lon="-70.89811868034303188323974609375">
        <ele>585.5999755859375</ele>
        <time>2026-08-21T16:36:25.000Z</time>
        <extensions>
          <ns3:TrackPointExtension>
            <ns3:hr>131</ns3:hr>
            <ns3:cad>77</ns3:cad>
          </ns3:TrackPointExtension>
        </extensions>
      </trkpt>
      <trkpt lat="45.325799882411956787109375" lon="-70.8981313370168209075927734375">
        <ele>585.5999755859375</ele>
        <time>2026-08-21T16:36:26.000Z</time>
        <extensions>
          <ns3:TrackPointExtension>
            <ns3:hr>132</ns3:hr>
            <ns3:cad>77</ns3:cad>
          </ns3:TrackPointExtension>
        </extensions>
      </trkpt>
      <trkpt lat="45.32581857405602931976318359375" lon="-70.89814030565321445465087890625">
        <ele>585.5999755859375</ele>
        <time>2026-08-21T16:36:27.000Z</time>
        <extensions>
          <ns3:TrackPointExtension>
            <ns3:hr>132</ns3:hr>
            <ns3:cad>76</ns3:cad>
          </ns3:TrackPointExtension>
        </extensions>
      </trkpt>
      <trkpt lat="45.3258382715284824371337890625" lon="-70.89815153740346431732177734375">
        <ele>585.5999755859375</ele>
        <time>2026-08-21T16:36:28.000Z</time>
        <extensions>
          <ns3:TrackPointExtension>
            <ns3:hr>132</ns3:hr>
            <ns3:cad>76</ns3:cad>
          </ns3:TrackPointExtension>
        </extensions>
      </trkpt>
      <trkpt lat="45.32585595734417438507080078125" lon="-70.8981591649353504180908203125">
        <ele>585.5999755859375</ele>
        <time>2026-08-21T16:36:29.000Z</time>
        <extensions>
          <ns3:TrackPointExtension>
            <ns3:hr>131</ns3:hr>
            <ns3:cad>76</ns3:cad>
          </ns3:TrackPointExtension>
        </extensions>
      </trkpt>
      <trkpt lat="45.32587557099759578704833984375" lon="-70.89816813357174396514892578125">
        <ele>585.5999755859375</ele>
        <time>2026-08-21T16:36:30.000Z</time>
        <extensions>
          <ns3:TrackPointExtension>
            <ns3:hr>132</ns3:hr>
            <ns3:cad>77</ns3:cad>
          </ns3:TrackPointExtension>
        </extensions>
      </trkpt>
      <trkpt lat="45.32589753158390522003173828125" lon="-70.8981759287416934967041015625">
        <ele>585.5999755859375</ele>
        <time>2026-08-21T16:36:31.000Z</time>
        <extensions>
          <ns3:TrackPointExtension>
            <ns3:hr>132</ns3:hr>
            <ns3:cad>77</ns3:cad>
          </ns3:TrackPointExtension>
        </extensions>
      </trkpt>
      <trkpt lat="45.3259204141795635223388671875" lon="-70.89818171225488185882568359375">
        <ele>585.5999755859375</ele>
        <time>2026-08-21T16:36:32.000Z</time>
        <extensions>
          <ns3:TrackPointExtension>
            <ns3:hr>132</ns3:hr>
            <ns3:cad>77</ns3:cad>
          </ns3:TrackPointExtension>
        </extensions>
      </trkpt>
      <trkpt lat="45.3259405307471752166748046875" lon="-70.8981876634061336517333984375">
        <ele>585.4000244140625</ele>
        <time>2026-08-21T16:36:33.000Z</time>
        <extensions>
          <ns3:TrackPointExtension>
            <ns3:hr>132</ns3:hr>
            <ns3:cad>77</ns3:cad>
          </ns3:TrackPointExtension>
        </extensions>
      </trkpt>
      <trkpt lat="45.32596207223832607269287109375" lon="-70.898191519081592559814453125">
        <ele>585.4000244140625</ele>
        <time>2026-08-21T16:36:34.000Z</time>
        <extensions>
          <ns3:TrackPointExtension>
            <ns3:hr>133</ns3:hr>
            <ns3:cad>77</ns3:cad>
          </ns3:TrackPointExtension>
        </extensions>
      </trkpt>
      <trkpt lat="45.3259871341288089752197265625" lon="-70.8981953747570514678955078125">
        <ele>585.4000244140625</ele>
        <time>2026-08-21T16:36:35.000Z</time>
        <extensions>
          <ns3:TrackPointExtension>
            <ns3:hr>133</ns3:hr>
            <ns3:cad>77</ns3:cad>
          </ns3:TrackPointExtension>
        </extensions>
      </trkpt>
      <trkpt lat="45.32600750215351581573486328125" lon="-70.89819763787090778350830078125">
        <ele>585.4000244140625</ele>
        <time>2026-08-21T16:36:36.000Z</time>
        <extensions>
          <ns3:TrackPointExtension>
            <ns3:hr>132</ns3:hr>
            <ns3:cad>77</ns3:cad>
          </ns3:TrackPointExtension>
        </extensions>
      </trkpt>
      <trkpt lat="45.3260250203311443328857421875" lon="-70.89820115827023983001708984375">
        <ele>585.4000244140625</ele>
        <time>2026-08-21T16:36:37.000Z</time>
        <extensions>
          <ns3:TrackPointExtension>
            <ns3:hr>132</ns3:hr>
            <ns3:cad>77</ns3:cad>
          </ns3:TrackPointExtension>
        </extensions>
      </trkpt>
      <trkpt lat="45.32604102976620197296142578125" lon="-70.89820685796439647674560546875">
        <ele>585.4000244140625</ele>
        <time>2026-08-21T16:36:38.000Z</time>
        <extensions>
          <ns3:TrackPointExtension>
            <ns3:hr>132</ns3:hr>
            <ns3:cad>77</ns3:cad>
          </ns3:TrackPointExtension>
        </extensions>
      </trkpt>
      <trkpt lat="45.3260625712573528289794921875" lon="-70.89820920489728450775146484375">
        <ele>585.4000244140625</ele>
        <time>2026-08-21T16:36:39.000Z</time>
        <extensions>
          <ns3:TrackPointExtension>
            <ns3:hr>132</ns3:hr>
            <ns3:cad>75</ns3:cad>
          </ns3:TrackPointExtension>
        </extensions>
      </trkpt>
      <trkpt lat="45.32608293928205966949462890625" lon="-70.89821322821080684661865234375">
        <ele>585.20001220703125</ele>
        <time>2026-08-21T16:36:40.000Z</time>
        <extensions>
          <ns3:TrackPointExtension>
            <ns3:hr>132</ns3:hr>
            <ns3:cad>75</ns3:cad>
          </ns3:TrackPointExtension>
        </extensions>
      </trkpt>
      <trkpt lat="45.3261021338403224945068359375" lon="-70.8982168324291706085205078125">
        <ele>585.20001220703125</ele>
        <time>2026-08-21T16:36:41.000Z</time>
        <extensions>
          <ns3:TrackPointExtension>
            <ns3:hr>132</ns3:hr>
            <ns3:cad>75</ns3:cad>
          </ns3:TrackPointExtension>
        </extensions>
      </trkpt>
      <trkpt lat="45.32611780799925327301025390625" lon="-70.89822211302816867828369140625">
        <ele>585.20001220703125</ele>
        <time>2026-08-21T16:36:42.000Z</time>
        <extensions>
          <ns3:TrackPointExtension>
            <ns3:hr>133</ns3:hr>
            <ns3:cad>75</ns3:cad>
          </ns3:TrackPointExtension>
        </extensions>
      </trkpt>
      <trkpt lat="45.32613893039524555206298828125" lon="-70.8982289023697376251220703125">
        <ele>585</ele>
        <time>2026-08-21T16:36:43.000Z</time>
        <extensions>
          <ns3:TrackPointExtension>
            <ns3:hr>132</ns3:hr>
            <ns3:cad>75</ns3:cad>
          </ns3:TrackPointExtension>
        </extensions>
      </trkpt>
      <trkpt lat="45.32615535892546176910400390625" lon="-70.8982349373400211334228515625">
        <ele>585</ele>
        <time>2026-08-21T16:36:44.000Z</time>
        <extensions>
          <ns3:TrackPointExtension>
            <ns3:hr>133</ns3:hr>
            <ns3:cad>74</ns3:cad>
          </ns3:TrackPointExtension>
        </extensions>
      </trkpt>
      <trkpt lat="45.326175391674041748046875" lon="-70.8982394635677337646484375">
        <ele>585</ele>
        <time>2026-08-21T16:36:45.000Z</time>
        <extensions>
          <ns3:TrackPointExtension>
            <ns3:hr>133</ns3:hr>
            <ns3:cad>74</ns3:cad>
          </ns3:TrackPointExtension>
        </extensions>
      </trkpt>
      <trkpt lat="45.32619425095617771148681640625" lon="-70.8982475101947784423828125">
        <ele>584.79998779296875</ele>
        <time>2026-08-21T16:36:46.000Z</time>
        <extensions>
          <ns3:TrackPointExtension>
            <ns3:hr>133</ns3:hr>
            <ns3:cad>74</ns3:cad>
          </ns3:TrackPointExtension>
        </extensions>
      </trkpt>
      <trkpt lat="45.3262141160666942596435546875" lon="-70.898257903754711151123046875">
        <ele>584.79998779296875</ele>
        <time>2026-08-21T16:36:47.000Z</time>
        <extensions>
          <ns3:TrackPointExtension>
            <ns3:hr>133</ns3:hr>
            <ns3:cad>74</ns3:cad>
          </ns3:TrackPointExtension>
        </extensions>
      </trkpt>
      <trkpt lat="45.3262302093207836151123046875" lon="-70.89827022515237331390380859375">
        <ele>584.79998779296875</ele>
        <time>2026-08-21T16:36:48.000Z</time>
        <extensions>
          <ns3:TrackPointExtension>
            <ns3:hr>133</ns3:hr>
            <ns3:cad>74</ns3:cad>
          </ns3:TrackPointExtension>
        </extensions>
      </trkpt>
      <trkpt lat="45.32625250518321990966796875" lon="-70.89828346855938434600830078125">
        <ele>584.5999755859375</ele>
        <time>2026-08-21T16:36:49.000Z</time>
        <extensions>
          <ns3:TrackPointExtension>
            <ns3:hr>133</ns3:hr>
            <ns3:cad>0</ns3:cad>
          </ns3:TrackPointExtension>
        </extensions>
      </trkpt>
      <trkpt lat="45.3262694366276264190673828125" lon="-70.8982926048338413238525390625">
        <ele>584.5999755859375</ele>
        <time>2026-08-21T16:36:50.000Z</time>
        <extensions>
          <ns3:TrackPointExtension>
            <ns3:hr>132</ns3:hr>
            <ns3:cad>0</ns3:cad>
          </ns3:TrackPointExtension>
        </extensions>
      </trkpt>
      <trkpt lat="45.32628276385366916656494140625" lon="-70.898302160203456878662109375">
        <ele>584.4000244140625</ele>
        <time>2026-08-21T16:36:51.000Z</time>
        <extensions>
          <ns3:TrackPointExtension>
            <ns3:hr>131</ns3:hr>
            <ns3:cad>0</ns3:cad>
          </ns3:TrackPointExtension>
        </extensions>
      </trkpt>
      <trkpt lat="45.32630338333547115325927734375" lon="-70.8983154036104679107666015625">
        <ele>584.20001220703125</ele>
        <time>2026-08-21T16:36:52.000Z</time>
        <extensions>
          <ns3:TrackPointExtension>
            <ns3:hr>131</ns3:hr>
            <ns3:cad>0</ns3:cad>
          </ns3:TrackPointExtension>
        </extensions>
      </trkpt>
      <trkpt lat="45.32632668502628803253173828125" lon="-70.898314900696277618408203125">
        <ele>584.20001220703125</ele>
        <time>2026-08-21T16:36:53.000Z</time>
        <extensions>
          <ns3:TrackPointExtension>
            <ns3:hr>130</ns3:hr>
            <ns3:cad>0</ns3:cad>
          </ns3:TrackPointExtension>
        </extensions>
      </trkpt>
      <trkpt lat="45.32634277828037738800048828125" lon="-70.898313224315643310546875">
        <ele>584</ele>
        <time>2026-08-21T16:36:54.000Z</time>
        <extensions>
          <ns3:TrackPointExtension>
            <ns3:hr>129</ns3:hr>
            <ns3:cad>73</ns3:cad>
          </ns3:TrackPointExtension>
        </extensions>
      </trkpt>
      <trkpt lat="45.3263653255999088287353515625" lon="-70.89831599034368991851806640625">
        <ele>583.79998779296875</ele>
        <time>2026-08-21T16:36:55.000Z</time>
        <extensions>
          <ns3:TrackPointExtension>
            <ns3:hr>129</ns3:hr>
            <ns3:cad>73</ns3:cad>
          </ns3:TrackPointExtension>
        </extensions>
      </trkpt>
      <trkpt lat="45.3263832628726959228515625" lon="-70.8983154036104679107666015625">
        <ele>583.79998779296875</ele>
        <time>2026-08-21T16:36:56.000Z</time>
        <extensions>
          <ns3:TrackPointExtension>
            <ns3:hr>129</ns3:hr>
            <ns3:cad>0</ns3:cad>
          </ns3:TrackPointExtension>
        </extensions>
      </trkpt>
      <trkpt lat="45.32640296034514904022216796875" lon="-70.89831414632499217987060546875">
        <ele>583.79998779296875</ele>
        <time>2026-08-21T16:36:57.000Z</time>
        <extensions>
          <ns3:TrackPointExtension>
            <ns3:hr>129</ns3:hr>
            <ns3:cad>0</ns3:cad>
          </ns3:TrackPointExtension>
        </extensions>
      </trkpt>
      <trkpt lat="45.32642642967402935028076171875" lon="-70.89831531979143619537353515625">
        <ele>583.5999755859375</ele>
        <time>2026-08-21T16:36:58.000Z</time>
        <extensions>
          <ns3:TrackPointExtension>
            <ns3:hr>128</ns3:hr>
            <ns3:cad>0</ns3:cad>
          </ns3:TrackPointExtension>
        </extensions>
      </trkpt>
      <trkpt lat="45.3264451213181018829345703125" lon="-70.89831230230629444122314453125">
        <ele>583.5999755859375</ele>
        <time>2026-08-21T16:36:59.000Z</time>
        <extensions>
          <ns3:TrackPointExtension>
            <ns3:hr>128</ns3:hr>
            <ns3:cad>73</ns3:cad>
          </ns3:TrackPointExtension>
        </extensions>
      </trkpt>
      <trkpt lat="45.32646850682795047760009765625" lon="-70.89830559678375720977783203125">
        <ele>583.5999755859375</ele>
        <time>2026-08-21T16:37:00.000Z</time>
        <extensions>
          <ns3:TrackPointExtension>
            <ns3:hr>128</ns3:hr>
            <ns3:cad>73</ns3:cad>
          </ns3:TrackPointExtension>
        </extensions>
      </trkpt>
      <trkpt lat="45.32649281434714794158935546875" lon="-70.8983040042221546173095703125">
        <ele>583.4000244140625</ele>
        <time>2026-08-21T16:37:01.000Z</time>
        <extensions>
          <ns3:TrackPointExtension>
            <ns3:hr>128</ns3:hr>
            <ns3:cad>73</ns3:cad>
          </ns3:TrackPointExtension>
        </extensions>
      </trkpt>
      <trkpt lat="45.3265115059912204742431640625" lon="-70.8983011543750762939453125">
        <ele>583.4000244140625</ele>
        <time>2026-08-21T16:37:02.000Z</time>
        <extensions>
          <ns3:TrackPointExtension>
            <ns3:hr>128</ns3:hr>
            <ns3:cad>75</ns3:cad>
          </ns3:TrackPointExtension>
        </extensions>
      </trkpt>
      <trkpt lat="45.32653455622494220733642578125" lon="-70.89829470030963420867919921875">
        <ele>583.4000244140625</ele>
        <time>2026-08-21T16:37:03.000Z</time>
        <extensions>
          <ns3:TrackPointExtension>
            <ns3:hr>128</ns3:hr>
            <ns3:cad>75</ns3:cad>
          </ns3:TrackPointExtension>
        </extensions>
      </trkpt>
      <trkpt lat="45.326557941734790802001953125" lon="-70.89828229509294033050537109375">
        <ele>583.4000244140625</ele>
        <time>2026-08-21T16:37:04.000Z</time>
        <extensions>
          <ns3:TrackPointExtension>
            <ns3:hr>128</ns3:hr>
            <ns3:cad>75</ns3:cad>
          </ns3:TrackPointExtension>
        </extensions>
      </trkpt>
      <trkpt lat="45.3265768848359584808349609375" lon="-70.8982631005346775054931640625">
        <ele>583.4000244140625</ele>
        <time>2026-08-21T16:37:05.000Z</time>
        <extensions>
          <ns3:TrackPointExtension>
            <ns3:hr>128</ns3:hr>
            <ns3:cad>75</ns3:cad>
          </ns3:TrackPointExtension>
        </extensions>
      </trkpt>
      <trkpt lat="45.32659390009939670562744140625" lon="-70.8982332609593868255615234375">
        <ele>583.4000244140625</ele>
        <time>2026-08-21T16:37:06.000Z</time>
        <extensions>
          <ns3:TrackPointExtension>
            <ns3:hr>128</ns3:hr>
            <ns3:cad>75</ns3:cad>
          </ns3:TrackPointExtension>
        </extensions>
      </trkpt>
      <trkpt lat="45.3266027010977268218994140625" lon="-70.89820928871631622314453125">
        <ele>583.4000244140625</ele>
        <time>2026-08-21T16:37:07.000Z</time>
        <extensions>
          <ns3:TrackPointExtension>
            <ns3:hr>128</ns3:hr>
            <ns3:cad>75</ns3:cad>
          </ns3:TrackPointExtension>
        </extensions>
      </trkpt>
      <trkpt lat="45.32661133445799350738525390625" lon="-70.8981879986822605133056640625">
        <ele>583.4000244140625</ele>
        <time>2026-08-21T16:37:08.000Z</time>
        <extensions>
          <ns3:TrackPointExtension>
            <ns3:hr>128</ns3:hr>
            <ns3:cad>76</ns3:cad>
          </ns3:TrackPointExtension>
        </extensions>
      </trkpt>
      <trkpt lat="45.3266219794750213623046875" lon="-70.898163355886936187744140625">
        <ele>583.5999755859375</ele>
        <time>2026-08-21T16:37:09.000Z</time>
        <extensions>
          <ns3:TrackPointExtension>
            <ns3:hr>128</ns3:hr>
            <ns3:cad>76</ns3:cad>
          </ns3:TrackPointExtension>
        </extensions>
      </trkpt>
      <trkpt lat="45.32662793062627315521240234375" lon="-70.898141227662563323974609375">
        <ele>583.79998779296875</ele>
        <time>2026-08-21T16:37:10.000Z</time>
        <extensions>
          <ns3:TrackPointExtension>
            <ns3:hr>128</ns3:hr>
            <ns3:cad>76</ns3:cad>
          </ns3:TrackPointExtension>
        </extensions>
      </trkpt>
      <trkpt lat="45.32663228921592235565185546875" lon="-70.8981182612478733062744140625">
        <ele>584</ele>
        <time>2026-08-21T16:37:11.000Z</time>
        <extensions>
          <ns3:TrackPointExtension>
            <ns3:hr>127</ns3:hr>
            <ns3:cad>56</ns3:cad>
          </ns3:TrackPointExtension>
        </extensions>
      </trkpt>
      <trkpt lat="45.32663815654814243316650390625" lon="-70.8980978094041347503662109375">
        <ele>584.20001220703125</ele>
        <time>2026-08-21T16:37:12.000Z</time>
        <extensions>
          <ns3:TrackPointExtension>
            <ns3:hr>128</ns3:hr>
            <ns3:cad>56</ns3:cad>
          </ns3:TrackPointExtension>
        </extensions>
      </trkpt>
      <trkpt lat="45.32664150930941104888916015625" lon="-70.8980780281126499176025390625">
        <ele>584.4000244140625</ele>
        <time>2026-08-21T16:37:13.000Z</time>
        <extensions>
          <ns3:TrackPointExtension>
            <ns3:hr>128</ns3:hr>
            <ns3:cad>55</ns3:cad>
          </ns3:TrackPointExtension>
        </extensions>
      </trkpt>
      <trkpt lat="45.3266395814716815948486328125" lon="-70.89805028401315212249755859375">
        <ele>584.4000244140625</ele>
        <time>2026-08-21T16:37:14.000Z</time>
        <extensions>
          <ns3:TrackPointExtension>
            <ns3:hr>128</ns3:hr>
            <ns3:cad>55</ns3:cad>
          </ns3:TrackPointExtension>
        </extensions>
      </trkpt>
      <trkpt lat="45.32663798891007900238037109375" lon="-70.89802287518978118896484375">
        <ele>584.4000244140625</ele>
        <time>2026-08-21T16:37:15.000Z</time>
        <extensions>
          <ns3:TrackPointExtension>
            <ns3:hr>128</ns3:hr>
            <ns3:cad>55</ns3:cad>
          </ns3:TrackPointExtension>
        </extensions>
      </trkpt>
      <trkpt lat="45.32664217986166477203369140625" lon="-70.8979844860732555389404296875">
        <ele>584.4000244140625</ele>
        <time>2026-08-21T16:37:16.000Z</time>
        <extensions>
          <ns3:TrackPointExtension>
            <ns3:hr>128</ns3:hr>
            <ns3:cad>53</ns3:cad>
          </ns3:TrackPointExtension>
        </extensions>
      </trkpt>
      <trkpt lat="45.32664050348103046417236328125" lon="-70.8979519642889499664306640625">
        <ele>584.4000244140625</ele>
        <time>2026-08-21T16:37:17.000Z</time>
        <extensions>
          <ns3:TrackPointExtension>
            <ns3:hr>128</ns3:hr>
            <ns3:cad>53</ns3:cad>
          </ns3:TrackPointExtension>
        </extensions>
      </trkpt>
      <trkpt lat="45.326632373034954071044921875" lon="-70.8979301713407039642333984375">
        <ele>584.20001220703125</ele>
        <time>2026-08-21T16:37:18.000Z</time>
        <extensions>
          <ns3:TrackPointExtension>
            <ns3:hr>128</ns3:hr>
            <ns3:cad>53</ns3:cad>
          </ns3:TrackPointExtension>
        </extensions>
      </trkpt>
      <trkpt lat="45.32662843354046344757080078125" lon="-70.897917933762073516845703125">
        <ele>584.20001220703125</ele>
        <time>2026-08-21T16:37:19.000Z</time>
        <extensions>
          <ns3:TrackPointExtension>
            <ns3:hr>128</ns3:hr>
            <ns3:cad>53</ns3:cad>
          </ns3:TrackPointExtension>
        </extensions>
      </trkpt>
      <trkpt lat="45.32662390731275081634521484375" lon="-70.897907875478267669677734375">
        <ele>584.20001220703125</ele>
        <time>2026-08-21T16:37:20.000Z</time>
        <extensions>
          <ns3:TrackPointExtension>
            <ns3:hr>128</ns3:hr>
            <ns3:cad>53</ns3:cad>
          </ns3:TrackPointExtension>
        </extensions>
      </trkpt>
      <trkpt lat="45.32662340439856052398681640625" lon="-70.897895134985446929931640625">
        <ele>584.20001220703125</ele>
        <time>2026-08-21T16:37:21.000Z</time>
        <extensions>
          <ns3:TrackPointExtension>
            <ns3:hr>128</ns3:hr>
            <ns3:cad>0</ns3:cad>
          </ns3:TrackPointExtension>
        </extensions>
      </trkpt>
      <trkpt lat="45.32662868499755859375" lon="-70.897887088358402252197265625">
        <ele>584.20001220703125</ele>
        <time>2026-08-21T16:37:22.000Z</time>
        <extensions>
          <ns3:TrackPointExtension>
            <ns3:hr>129</ns3:hr>
            <ns3:cad>0</ns3:cad>
          </ns3:TrackPointExtension>
        </extensions>
      </trkpt>
      <trkpt lat="45.32663069665431976318359375" lon="-70.89787526987493038177490234375">
        <ele>584.20001220703125</ele>
        <time>2026-08-21T16:37:23.000Z</time>
        <extensions>
          <ns3:TrackPointExtension>
            <ns3:hr>129</ns3:hr>
            <ns3:cad>0</ns3:cad>
          </ns3:TrackPointExtension>
        </extensions>
      </trkpt>
      <trkpt lat="45.32663430087268352508544921875" lon="-70.8978570811450481414794921875">
        <ele>584.20001220703125</ele>
        <time>2026-08-21T16:37:24.000Z</time>
        <extensions>
          <ns3:TrackPointExtension>
            <ns3:hr>130</ns3:hr>
            <ns3:cad>0</ns3:cad>
          </ns3:TrackPointExtension>
        </extensions>
      </trkpt>
      <trkpt lat="45.32663480378687381744384765625" lon="-70.89783922769129276275634765625">
        <ele>584.20001220703125</ele>
        <time>2026-08-21T16:37:25.000Z</time>
        <extensions>
          <ns3:TrackPointExtension>
            <ns3:hr>130</ns3:hr>
            <ns3:cad>0</ns3:cad>
          </ns3:TrackPointExtension>
        </extensions>
      </trkpt>
      <trkpt lat="45.32663203775882720947265625" lon="-70.8978218771517276763916015625">
        <ele>584</ele>
        <time>2026-08-21T16:37:26.000Z</time>
        <extensions>
          <ns3:TrackPointExtension>
            <ns3:hr>129</ns3:hr>
            <ns3:cad>0</ns3:cad>
          </ns3:TrackPointExtension>
        </extensions>
      </trkpt>
      <trkpt lat="45.32663145102560520172119140625" lon="-70.897803604602813720703125">
        <ele>584</ele>
        <time>2026-08-21T16:37:27.000Z</time>
        <extensions>
          <ns3:TrackPointExtension>
            <ns3:hr>130</ns3:hr>
            <ns3:cad>0</ns3:cad>
          </ns3:TrackPointExtension>
        </extensions>
      </trkpt>
      <trkpt lat="45.326636731624603271484375" lon="-70.8977826498448848724365234375">
        <ele>584</ele>
        <time>2026-08-21T16:37:28.000Z</time>
        <extensions>
          <ns3:TrackPointExtension>
            <ns3:hr>130</ns3:hr>
            <ns3:cad>0</ns3:cad>
          </ns3:TrackPointExtension>
        </extensions>
      </trkpt>
      <trkpt lat="45.32663606107234954833984375" lon="-70.8977662213146686553955078125">
        <ele>584.20001220703125</ele>
        <time>2026-08-21T16:37:29.000Z</time>
        <extensions>
          <ns3:TrackPointExtension>
            <ns3:hr>130</ns3:hr>
            <ns3:cad>0</ns3:cad>
          </ns3:TrackPointExtension>
        </extensions>
      </trkpt>
      <trkpt lat="45.32663606107234954833984375" lon="-70.8977534808218479156494140625">
        <ele>584.4000244140625</ele>
        <time>2026-08-21T16:37:30.000Z</time>
        <extensions>
          <ns3:TrackPointExtension>
            <ns3:hr>131</ns3:hr>
            <ns3:cad>0</ns3:cad>
          </ns3:TrackPointExtension>
        </extensions>
      </trkpt>
      <trkpt lat="45.32664368860423564910888671875" lon="-70.8977363817393779754638671875">
        <ele>584.5999755859375</ele>
        <time>2026-08-21T16:37:31.000Z</time>
        <extensions>
          <ns3:TrackPointExtension>
            <ns3:hr>131</ns3:hr>
            <ns3:cad>0</ns3:cad>
          </ns3:TrackPointExtension>
        </extensions>
      </trkpt>
      <trkpt lat="45.3266513161361217498779296875" lon="-70.8977176062762737274169921875">
        <ele>584.79998779296875</ele>
        <time>2026-08-21T16:37:32.000Z</time>
        <extensions>
          <ns3:TrackPointExtension>
            <ns3:hr>132</ns3:hr>
            <ns3:cad>0</ns3:cad>
          </ns3:TrackPointExtension>
        </extensions>
      </trkpt>
      <trkpt lat="45.32666196115314960479736328125" lon="-70.89769623242318630218505859375">
        <ele>584.79998779296875</ele>
        <time>2026-08-21T16:37:33.000Z</time>
        <extensions>
          <ns3:TrackPointExtension>
            <ns3:hr>132</ns3:hr>
            <ns3:cad>0</ns3:cad>
          </ns3:TrackPointExtension>
        </extensions>
      </trkpt>
      <trkpt lat="45.3266660682857036590576171875" lon="-70.8976829051971435546875">
        <ele>585</ele>
        <time>2026-08-21T16:37:34.000Z</time>
        <extensions>
          <ns3:TrackPointExtension>
            <ns3:hr>133</ns3:hr>
            <ns3:cad>0</ns3:cad>
          </ns3:TrackPointExtension>
        </extensions>
      </trkpt>
      <trkpt lat="45.3266684152185916900634765625" lon="-70.89767142198979854583740234375">
        <ele>585.20001220703125</ele>
        <time>2026-08-21T16:37:35.000Z</time>
        <extensions>
          <ns3:TrackPointExtension>
            <ns3:hr>133</ns3:hr>
            <ns3:cad>52</ns3:cad>
          </ns3:TrackPointExtension>
        </extensions>
      </trkpt>
      <trkpt lat="45.32667436636984348297119140625" lon="-70.89766371063888072967529296875">
        <ele>585.4000244140625</ele>
        <time>2026-08-21T16:37:36.000Z</time>
        <extensions>
          <ns3:TrackPointExtension>
            <ns3:hr>134</ns3:hr>
            <ns3:cad>52</ns3:cad>
          </ns3:TrackPointExtension>
        </extensions>
      </trkpt>
      <trkpt lat="45.32668995670974254608154296875" lon="-70.897653736174106597900390625">
        <ele>585.4000244140625</ele>
        <time>2026-08-21T16:37:37.000Z</time>
        <extensions>
          <ns3:TrackPointExtension>
            <ns3:hr>135</ns3:hr>
            <ns3:cad>52</ns3:cad>
          </ns3:TrackPointExtension>
        </extensions>
      </trkpt>
      <trkpt lat="45.32670169137418270111083984375" lon="-70.8976466953754425048828125">
        <ele>585.5999755859375</ele>
        <time>2026-08-21T16:37:38.000Z</time>
        <extensions>
          <ns3:TrackPointExtension>
            <ns3:hr>135</ns3:hr>
            <ns3:cad>0</ns3:cad>
          </ns3:TrackPointExtension>
        </extensions>
      </trkpt>
      <trkpt lat="45.3267113305628299713134765625" lon="-70.8976404927670955657958984375">
        <ele>585.4000244140625</ele>
        <time>2026-08-21T16:37:39.000Z</time>
        <extensions>
          <ns3:TrackPointExtension>
            <ns3:hr>136</ns3:hr>
            <ns3:cad>0</ns3:cad>
          </ns3:TrackPointExtension>
        </extensions>
      </trkpt>
      <trkpt lat="45.32672080211341381072998046875" lon="-70.897637642920017242431640625">
        <ele>585.4000244140625</ele>
        <time>2026-08-21T16:37:40.000Z</time>
        <extensions>
          <ns3:TrackPointExtension>
            <ns3:hr>136</ns3:hr>
            <ns3:cad>55</ns3:cad>
          </ns3:TrackPointExtension>
        </extensions>
      </trkpt>
      <trkpt lat="45.3267314471304416656494140625" lon="-70.8976384811103343963623046875">
        <ele>585.4000244140625</ele>
        <time>2026-08-21T16:37:41.000Z</time>
        <extensions>
          <ns3:TrackPointExtension>
            <ns3:hr>136</ns3:hr>
            <ns3:cad>55</ns3:cad>
          </ns3:TrackPointExtension>
        </extensions>
      </trkpt>
      <trkpt lat="45.32674427144229412078857421875" lon="-70.897637642920017242431640625">
        <ele>585.4000244140625</ele>
        <time>2026-08-21T16:37:42.000Z</time>
        <extensions>
          <ns3:TrackPointExtension>
            <ns3:hr>136</ns3:hr>
            <ns3:cad>56</ns3:cad>
          </ns3:TrackPointExtension>
        </extensions>
      </trkpt>
      <trkpt lat="45.32675432972609996795654296875" lon="-70.897634960711002349853515625">
        <ele>585.4000244140625</ele>
        <time>2026-08-21T16:37:43.000Z</time>
        <extensions>
          <ns3:TrackPointExtension>
            <ns3:hr>136</ns3:hr>
            <ns3:cad>57</ns3:cad>
          </ns3:TrackPointExtension>
        </extensions>
      </trkpt>
      <trkpt lat="45.3267622925341129302978515625" lon="-70.89763018302619457244873046875">
        <ele>585.4000244140625</ele>
        <time>2026-08-21T16:37:44.000Z</time>
        <extensions>
          <ns3:TrackPointExtension>
            <ns3:hr>137</ns3:hr>
            <ns3:cad>57</ns3:cad>
          </ns3:TrackPointExtension>
        </extensions>
      </trkpt>
      <trkpt lat="45.32676975242793560028076171875" lon="-70.89762683026492595672607421875">
        <ele>585.4000244140625</ele>
        <time>2026-08-21T16:37:45.000Z</time>
        <extensions>
          <ns3:TrackPointExtension>
            <ns3:hr>137</ns3:hr>
            <ns3:cad>57</ns3:cad>
          </ns3:TrackPointExtension>
        </extensions>
      </trkpt>
      <trkpt lat="45.3267834149301052093505859375" lon="-70.89762230403721332550048828125">
        <ele>585.4000244140625</ele>
        <time>2026-08-21T16:37:46.000Z</time>
        <extensions>
          <ns3:TrackPointExtension>
            <ns3:hr>137</ns3:hr>
            <ns3:cad>57</ns3:cad>
          </ns3:TrackPointExtension>
        </extensions>
      </trkpt>
      <trkpt lat="45.32679758034646511077880859375" lon="-70.89761761017143726348876953125">
        <ele>585.20001220703125</ele>
        <time>2026-08-21T16:37:47.000Z</time>
        <extensions>
          <ns3:TrackPointExtension>
            <ns3:hr>137</ns3:hr>
            <ns3:cad>57</ns3:cad>
          </ns3:TrackPointExtension>
        </extensions>
      </trkpt>
      <trkpt lat="45.32681308686733245849609375" lon="-70.89761023409664630889892578125">
        <ele>585.20001220703125</ele>
        <time>2026-08-21T16:37:48.000Z</time>
        <extensions>
          <ns3:TrackPointExtension>
            <ns3:hr>137</ns3:hr>
            <ns3:cad>57</ns3:cad>
          </ns3:TrackPointExtension>
        </extensions>
      </trkpt>
      <trkpt lat="45.326824821531772613525390625" lon="-70.89760000817477703094482421875">
        <ele>585.20001220703125</ele>
        <time>2026-08-21T16:37:49.000Z</time>
        <extensions>
          <ns3:TrackPointExtension>
            <ns3:hr>137</ns3:hr>
            <ns3:cad>57</ns3:cad>
          </ns3:TrackPointExtension>
        </extensions>
      </trkpt>
      <trkpt lat="45.3268333710730075836181640625" lon="-70.89758961461484432220458984375">
        <ele>585</ele>
        <time>2026-08-21T16:37:50.000Z</time>
        <extensions>
          <ns3:TrackPointExtension>
            <ns3:hr>138</ns3:hr>
            <ns3:cad>57</ns3:cad>
          </ns3:TrackPointExtension>
        </extensions>
      </trkpt>
      <trkpt lat="45.326842926442623138427734375" lon="-70.8975796401500701904296875">
        <ele>585</ele>
        <time>2026-08-21T16:37:51.000Z</time>
        <extensions>
          <ns3:TrackPointExtension>
            <ns3:hr>138</ns3:hr>
            <ns3:cad>57</ns3:cad>
          </ns3:TrackPointExtension>
        </extensions>
      </trkpt>
      <trkpt lat="45.32686463557183742523193359375" lon="-70.897575281560420989990234375">
        <ele>585</ele>
        <time>2026-08-21T16:37:52.000Z</time>
        <extensions>
          <ns3:TrackPointExtension>
            <ns3:hr>138</ns3:hr>
            <ns3:cad>58</ns3:cad>
          </ns3:TrackPointExtension>
        </extensions>
      </trkpt>
      <trkpt lat="45.32688190229237079620361328125" lon="-70.89756731875240802764892578125">
        <ele>585</ele>
        <time>2026-08-21T16:37:53.000Z</time>
        <extensions>
          <ns3:TrackPointExtension>
            <ns3:hr>138</ns3:hr>
            <ns3:cad>58</ns3:cad>
          </ns3:TrackPointExtension>
        </extensions>
      </trkpt>
      <trkpt lat="45.3268943913280963897705078125" lon="-70.89755943976342678070068359375">
        <ele>585</ele>
        <time>2026-08-21T16:37:54.000Z</time>
        <extensions>
          <ns3:TrackPointExtension>
            <ns3:hr>138</ns3:hr>
            <ns3:cad>58</ns3:cad>
          </ns3:TrackPointExtension>
        </extensions>
      </trkpt>
      <trkpt lat="45.32690973021090030670166015625" lon="-70.89755751192569732666015625">
        <ele>585.20001220703125</ele>
        <time>2026-08-21T16:37:55.000Z</time>
        <extensions>
          <ns3:TrackPointExtension>
            <ns3:hr>139</ns3:hr>
            <ns3:cad>58</ns3:cad>
          </ns3:TrackPointExtension>
        </extensions>
      </trkpt>
      <trkpt lat="45.3269223868846893310546875" lon="-70.8975580148398876190185546875">
        <ele>585.20001220703125</ele>
        <time>2026-08-21T16:37:56.000Z</time>
        <extensions>
          <ns3:TrackPointExtension>
            <ns3:hr>138</ns3:hr>
            <ns3:cad>58</ns3:cad>
          </ns3:TrackPointExtension>
        </extensions>
      </trkpt>
      <trkpt lat="45.32693001441657543182373046875" lon="-70.897553823888301849365234375">
        <ele>585.20001220703125</ele>
        <time>2026-08-21T16:37:57.000Z</time>
        <extensions>
          <ns3:TrackPointExtension>
            <ns3:hr>138</ns3:hr>
            <ns3:cad>0</ns3:cad>
          </ns3:TrackPointExtension>
        </extensions>
      </trkpt>
      <trkpt lat="45.32694191671907901763916015625" lon="-70.89755038730800151824951171875">
        <ele>585.20001220703125</ele>
        <time>2026-08-21T16:37:58.000Z</time>
        <extensions>
          <ns3:TrackPointExtension>
            <ns3:hr>138</ns3:hr>
            <ns3:cad>0</ns3:cad>
          </ns3:TrackPointExtension>
        </extensions>
      </trkpt>
      <trkpt lat="45.32696119509637355804443359375" lon="-70.8975459448993206024169921875">
        <ele>585</ele>
        <time>2026-08-21T16:37:59.000Z</time>
        <extensions>
          <ns3:TrackPointExtension>
            <ns3:hr>139</ns3:hr>
            <ns3:cad>53</ns3:cad>
          </ns3:TrackPointExtension>
        </extensions>
      </trkpt>
      <trkpt lat="45.32697628252208232879638671875" lon="-70.89754267595708370208740234375">
        <ele>585</ele>
        <time>2026-08-21T16:38:00.000Z</time>
        <extensions>
          <ns3:TrackPointExtension>
            <ns3:hr>138</ns3:hr>
            <ns3:cad>53</ns3:cad>
          </ns3:TrackPointExtension>
        </extensions>
      </trkpt>
      <trkpt lat="45.3269872628152370452880859375" lon="-70.89754150249063968658447265625">
        <ele>585</ele>
        <time>2026-08-21T16:38:01.000Z</time>
        <extensions>
          <ns3:TrackPointExtension>
            <ns3:hr>138</ns3:hr>
            <ns3:cad>53</ns3:cad>
          </ns3:TrackPointExtension>
        </extensions>
      </trkpt>
      <trkpt lat="45.3270026855170726776123046875" lon="-70.8975415863096714019775390625">
        <ele>585</ele>
        <time>2026-08-21T16:38:02.000Z</time>
        <extensions>
          <ns3:TrackPointExtension>
            <ns3:hr>138</ns3:hr>
            <ns3:cad>53</ns3:cad>
          </ns3:TrackPointExtension>
        </extensions>
      </trkpt>
      <trkpt lat="45.32701701857149600982666015625" lon="-70.897534377872943878173828125">
        <ele>584.79998779296875</ele>
        <time>2026-08-21T16:38:03.000Z</time>
        <extensions>
          <ns3:TrackPointExtension>
            <ns3:hr>138</ns3:hr>
            <ns3:cad>53</ns3:cad>
          </ns3:TrackPointExtension>
        </extensions>
      </trkpt>
      <trkpt lat="45.32702908851206302642822265625" lon="-70.8975301869213581085205078125">
        <ele>584.79998779296875</ele>
        <time>2026-08-21T16:38:04.000Z</time>
        <extensions>
          <ns3:TrackPointExtension>
            <ns3:hr>139</ns3:hr>
            <ns3:cad>53</ns3:cad>
          </ns3:TrackPointExtension>
        </extensions>
      </trkpt>
      <trkpt lat="45.32703696750104427337646484375" lon="-70.8975358866155147552490234375">
        <ele>584.79998779296875</ele>
        <time>2026-08-21T16:38:05.000Z</time>
        <extensions>
          <ns3:TrackPointExtension>
            <ns3:hr>139</ns3:hr>
            <ns3:cad>53</ns3:cad>
          </ns3:TrackPointExtension>
        </extensions>
      </trkpt>
      <trkpt lat="45.327040739357471466064453125" lon="-70.897539071738719940185546875">
        <ele>584.79998779296875</ele>
        <time>2026-08-21T16:38:06.000Z</time>
        <extensions>
          <ns3:TrackPointExtension>
            <ns3:hr>139</ns3:hr>
            <ns3:cad>53</ns3:cad>
          </ns3:TrackPointExtension>
        </extensions>
      </trkpt>
      <trkpt lat="45.32704518176615238189697265625" lon="-70.8975452743470668792724609375">
        <ele>584.79998779296875</ele>
        <time>2026-08-21T16:38:07.000Z</time>
        <extensions>
          <ns3:TrackPointExtension>
            <ns3:hr>140</ns3:hr>
            <ns3:cad>53</ns3:cad>
          </ns3:TrackPointExtension>
        </extensions>
      </trkpt>
      <trkpt lat="45.3270509652793407440185546875" lon="-70.89755441062152385711669921875">
        <ele>584.79998779296875</ele>
        <time>2026-08-21T16:38:08.000Z</time>
        <extensions>
          <ns3:TrackPointExtension>
            <ns3:hr>139</ns3:hr>
            <ns3:cad>53</ns3:cad>
          </ns3:TrackPointExtension>
        </extensions>
      </trkpt>
      <trkpt lat="45.32705607824027538299560546875" lon="-70.8975603617727756500244140625">
        <ele>584.5999755859375</ele>
        <time>2026-08-21T16:38:09.000Z</time>
        <extensions>
          <ns3:TrackPointExtension>
            <ns3:hr>138</ns3:hr>
            <ns3:cad>53</ns3:cad>
          </ns3:TrackPointExtension>
        </extensions>
      </trkpt>
      <trkpt lat="45.32706211321055889129638671875" lon="-70.8975689113140106201171875">
        <ele>584.5999755859375</ele>
        <time>2026-08-21T16:38:10.000Z</time>
        <extensions>
          <ns3:TrackPointExtension>
            <ns3:hr>137</ns3:hr>
            <ns3:cad>53</ns3:cad>
          </ns3:TrackPointExtension>
        </extensions>
      </trkpt>
      <trkpt lat="45.32706982456147670745849609375" lon="-70.89758039452135562896728515625">
        <ele>584.79998779296875</ele>
        <time>2026-08-21T16:38:11.000Z</time>
        <extensions>
          <ns3:TrackPointExtension>
            <ns3:hr>136</ns3:hr>
            <ns3:cad>53</ns3:cad>
          </ns3:TrackPointExtension>
        </extensions>
      </trkpt>
      <trkpt lat="45.32707728445529937744140625" lon="-70.89759162627160549163818359375">
        <ele>584.79998779296875</ele>
        <time>2026-08-21T16:38:12.000Z</time>
        <extensions>
          <ns3:TrackPointExtension>
            <ns3:hr>133</ns3:hr>
            <ns3:cad>53</ns3:cad>
          </ns3:TrackPointExtension>
        </extensions>
      </trkpt>
      <trkpt lat="45.32709245570003986358642578125" lon="-70.89760470204055309295654296875">
        <ele>584.79998779296875</ele>
        <time>2026-08-21T16:38:13.000Z</time>
        <extensions>
          <ns3:TrackPointExtension>
            <ns3:hr>132</ns3:hr>
            <ns3:cad>53</ns3:cad>
          </ns3:TrackPointExtension>
        </extensions>
      </trkpt>
      <trkpt lat="45.32711005769670009613037109375" lon="-70.897606797516345977783203125">
        <ele>584.79998779296875</ele>
        <time>2026-08-21T16:38:14.000Z</time>
        <extensions>
          <ns3:TrackPointExtension>
            <ns3:hr>131</ns3:hr>
            <ns3:cad>53</ns3:cad>
          </ns3:TrackPointExtension>
        </extensions>
      </trkpt>
      <trkpt lat="45.32712195999920368194580078125" lon="-70.89760134927928447723388671875">
        <ele>584.79998779296875</ele>
        <time>2026-08-21T16:38:15.000Z</time>
        <extensions>
          <ns3:TrackPointExtension>
            <ns3:hr>130</ns3:hr>
            <ns3:cad>53</ns3:cad>
          </ns3:TrackPointExtension>
        </extensions>
      </trkpt>
      <trkpt lat="45.32713587395846843719482421875" lon="-70.8976012654602527618408203125">
        <ele>584.79998779296875</ele>
        <time>2026-08-21T16:38:16.000Z</time>
        <extensions>
          <ns3:TrackPointExtension>
            <ns3:hr>130</ns3:hr>
            <ns3:cad>53</ns3:cad>
          </ns3:TrackPointExtension>
        </extensions>
      </trkpt>
      <trkpt lat="45.32714827917516231536865234375" lon="-70.89760520495474338531494140625">
        <ele>584.79998779296875</ele>
        <time>2026-08-21T16:38:17.000Z</time>
        <extensions>
          <ns3:TrackPointExtension>
            <ns3:hr>129</ns3:hr>
            <ns3:cad>0</ns3:cad>
          </ns3:TrackPointExtension>
        </extensions>
      </trkpt>
      <trkpt lat="45.32716177403926849365234375" lon="-70.89761274866759777069091796875">
        <ele>584.79998779296875</ele>
        <time>2026-08-21T16:38:18.000Z</time>
        <extensions>
          <ns3:TrackPointExtension>
            <ns3:hr>129</ns3:hr>
            <ns3:cad>0</ns3:cad>
          </ns3:TrackPointExtension>
        </extensions>
      </trkpt>
      <trkpt lat="45.3271743468940258026123046875" lon="-70.89761962182819843292236328125">
        <ele>584.5999755859375</ele>
        <time>2026-08-21T16:38:19.000Z</time>
        <extensions>
          <ns3:TrackPointExtension>
            <ns3:hr>128</ns3:hr>
            <ns3:cad>0</ns3:cad>
          </ns3:TrackPointExtension>
        </extensions>
      </trkpt>
      <trkpt lat="45.32719303853809833526611328125" lon="-70.89763135649263858795166015625">
        <ele>584.5999755859375</ele>
        <time>2026-08-21T16:38:20.000Z</time>
        <extensions>
          <ns3:TrackPointExtension>
            <ns3:hr>128</ns3:hr>
            <ns3:cad>0</ns3:cad>
          </ns3:TrackPointExtension>
        </extensions>
      </trkpt>
      <trkpt lat="45.32720678485929965972900390625" lon="-70.8976364694535732269287109375">
        <ele>584.5999755859375</ele>
        <time>2026-08-21T16:38:21.000Z</time>
        <extensions>
          <ns3:TrackPointExtension>
            <ns3:hr>128</ns3:hr>
            <ns3:cad>0</ns3:cad>
          </ns3:TrackPointExtension>
        </extensions>
      </trkpt>
      <trkpt lat="45.32721810042858123779296875" lon="-70.89763797819614410400390625">
        <ele>584.4000244140625</ele>
        <time>2026-08-21T16:38:22.000Z</time>
        <extensions>
          <ns3:TrackPointExtension>
            <ns3:hr>128</ns3:hr>
            <ns3:cad>0</ns3:cad>
          </ns3:TrackPointExtension>
        </extensions>
      </trkpt>
      <trkpt lat="45.32723897136747837066650390625" lon="-70.89763521216809749603271484375">
        <ele>584.4000244140625</ele>
        <time>2026-08-21T16:38:23.000Z</time>
        <extensions>
          <ns3:TrackPointExtension>
            <ns3:hr>128</ns3:hr>
            <ns3:cad>0</ns3:cad>
          </ns3:TrackPointExtension>
        </extensions>
      </trkpt>
      <trkpt lat="45.32725296914577484130859375" lon="-70.89763261377811431884765625">
        <ele>584.4000244140625</ele>
        <time>2026-08-21T16:38:24.000Z</time>
        <extensions>
          <ns3:TrackPointExtension>
            <ns3:hr>128</ns3:hr>
            <ns3:cad>0</ns3:cad>
          </ns3:TrackPointExtension>
        </extensions>
      </trkpt>
      <trkpt lat="45.3272668831050395965576171875" lon="-70.897632278501987457275390625">
        <ele>584.4000244140625</ele>
        <time>2026-08-21T16:38:25.000Z</time>
        <extensions>
          <ns3:TrackPointExtension>
            <ns3:hr>128</ns3:hr>
            <ns3:cad>0</ns3:cad>
          </ns3:TrackPointExtension>
        </extensions>
      </trkpt>
      <trkpt lat="45.32727484591305255889892578125" lon="-70.89763269759714603424072265625">
        <ele>584.4000244140625</ele>
        <time>2026-08-21T16:38:26.000Z</time>
        <extensions>
          <ns3:TrackPointExtension>
            <ns3:hr>127</ns3:hr>
            <ns3:cad>0</ns3:cad>
          </ns3:TrackPointExtension>
        </extensions>
      </trkpt>
      <trkpt lat="45.32728557474911212921142578125" lon="-70.89764175005257129669189453125">
        <ele>584.4000244140625</ele>
        <time>2026-08-21T16:38:27.000Z</time>
        <extensions>
          <ns3:TrackPointExtension>
            <ns3:hr>127</ns3:hr>
            <ns3:cad>0</ns3:cad>
          </ns3:TrackPointExtension>
        </extensions>
      </trkpt>
      <trkpt lat="45.3272920288145542144775390625" lon="-70.89764795266091823577880859375">
        <ele>584.5999755859375</ele>
        <time>2026-08-21T16:38:28.000Z</time>
        <extensions>
          <ns3:TrackPointExtension>
            <ns3:hr>125</ns3:hr>
            <ns3:cad>0</ns3:cad>
          </ns3:TrackPointExtension>
        </extensions>
      </trkpt>
      <trkpt lat="45.32730015926063060760498046875" lon="-70.89765943586826324462890625">
        <ele>584.5999755859375</ele>
        <time>2026-08-21T16:38:29.000Z</time>
        <extensions>
          <ns3:TrackPointExtension>
            <ns3:hr>124</ns3:hr>
            <ns3:cad>0</ns3:cad>
          </ns3:TrackPointExtension>
        </extensions>
      </trkpt>
      <trkpt lat="45.3273071162402629852294921875" lon="-70.8976676501333713531494140625">
        <ele>584.5999755859375</ele>
        <time>2026-08-21T16:38:30.000Z</time>
        <extensions>
          <ns3:TrackPointExtension>
            <ns3:hr>124</ns3:hr>
            <ns3:cad>0</ns3:cad>
          </ns3:TrackPointExtension>
        </extensions>
      </trkpt>
      <trkpt lat="45.327319018542766571044921875" lon="-70.897680222988128662109375">
        <ele>584.4000244140625</ele>
        <time>2026-08-21T16:38:31.000Z</time>
        <extensions>
          <ns3:TrackPointExtension>
            <ns3:hr>123</ns3:hr>
            <ns3:cad>0</ns3:cad>
          </ns3:TrackPointExtension>
        </extensions>
      </trkpt>
      <trkpt lat="45.32733142375946044921875" lon="-70.8976917900145053863525390625">
        <ele>584.4000244140625</ele>
        <time>2026-08-21T16:38:32.000Z</time>
        <extensions>
          <ns3:TrackPointExtension>
            <ns3:hr>123</ns3:hr>
            <ns3:cad>0</ns3:cad>
          </ns3:TrackPointExtension>
        </extensions>
      </trkpt>
      <trkpt lat="45.3273433260619640350341796875" lon="-70.89769975282251834869384765625">
        <ele>584.20001220703125</ele>
        <time>2026-08-21T16:38:33.000Z</time>
        <extensions>
          <ns3:TrackPointExtension>
            <ns3:hr>123</ns3:hr>
            <ns3:cad>0</ns3:cad>
          </ns3:TrackPointExtension>
        </extensions>
      </trkpt>
      <trkpt lat="45.327356569468975067138671875" lon="-70.89769656769931316375732421875">
        <ele>584.20001220703125</ele>
        <time>2026-08-21T16:38:34.000Z</time>
        <extensions>
          <ns3:TrackPointExtension>
            <ns3:hr>123</ns3:hr>
            <ns3:cad>0</ns3:cad>
          </ns3:TrackPointExtension>
        </extensions>
      </trkpt>
      <trkpt lat="45.32736537046730518341064453125" lon="-70.89768248610198497772216796875">
        <ele>584.20001220703125</ele>
        <time>2026-08-21T16:38:35.000Z</time>
        <extensions>
          <ns3:TrackPointExtension>
            <ns3:hr>123</ns3:hr>
            <ns3:cad>0</ns3:cad>
          </ns3:TrackPointExtension>
        </extensions>
      </trkpt>
      <trkpt lat="45.3273748420178890228271484375" lon="-70.8976669795811176300048828125">
        <ele>584.20001220703125</ele>
        <time>2026-08-21T16:38:36.000Z</time>
        <extensions>
          <ns3:TrackPointExtension>
            <ns3:hr>124</ns3:hr>
            <ns3:cad>0</ns3:cad>
          </ns3:TrackPointExtension>
        </extensions>
      </trkpt>
      <trkpt lat="45.3273818828165531158447265625" lon="-70.8976532332599163055419921875">
        <ele>584.4000244140625</ele>
        <time>2026-08-21T16:38:37.000Z</time>
        <extensions>
          <ns3:TrackPointExtension>
            <ns3:hr>124</ns3:hr>
            <ns3:cad>0</ns3:cad>
          </ns3:TrackPointExtension>
        </extensions>
      </trkpt>
      <trkpt lat="45.32739403657615184783935546875" lon="-70.89764979667961597442626953125">
        <ele>584.4000244140625</ele>
        <time>2026-08-21T16:38:38.000Z</time>
        <extensions>
          <ns3:TrackPointExtension>
            <ns3:hr>126</ns3:hr>
            <ns3:cad>0</ns3:cad>
          </ns3:TrackPointExtension>
        </extensions>
      </trkpt>
      <trkpt lat="45.327404178678989410400390625" lon="-70.89764996431767940521240234375">
        <ele>584.4000244140625</ele>
        <time>2026-08-21T16:38:39.000Z</time>
        <extensions>
          <ns3:TrackPointExtension>
            <ns3:hr>126</ns3:hr>
            <ns3:cad>0</ns3:cad>
          </ns3:TrackPointExtension>
        </extensions>
      </trkpt>
      <trkpt lat="45.3274204395711421966552734375" lon="-70.897653065621852874755859375">
        <ele>584.20001220703125</ele>
        <time>2026-08-21T16:38:40.000Z</time>
        <extensions>
          <ns3:TrackPointExtension>
            <ns3:hr>127</ns3:hr>
            <ns3:cad>0</ns3:cad>
          </ns3:TrackPointExtension>
        </extensions>
      </trkpt>
      <trkpt lat="45.327431000769138336181640625" lon="-70.8976492099463939666748046875">
        <ele>584.20001220703125</ele>
        <time>2026-08-21T16:38:41.000Z</time>
        <extensions>
          <ns3:TrackPointExtension>
            <ns3:hr>128</ns3:hr>
            <ns3:cad>0</ns3:cad>
          </ns3:TrackPointExtension>
        </extensions>
      </trkpt>
      <trkpt lat="45.32744608819484710693359375" lon="-70.89764560572803020477294921875">
        <ele>584.20001220703125</ele>
        <time>2026-08-21T16:38:42.000Z</time>
        <extensions>
          <ns3:TrackPointExtension>
            <ns3:hr>129</ns3:hr>
            <ns3:cad>0</ns3:cad>
          </ns3:TrackPointExtension>
        </extensions>
      </trkpt>
      <trkpt lat="45.3274563141167163848876953125" lon="-70.89764024131000041961669921875">
        <ele>584.20001220703125</ele>
        <time>2026-08-21T16:38:43.000Z</time>
        <extensions>
          <ns3:TrackPointExtension>
            <ns3:hr>130</ns3:hr>
            <ns3:cad>0</ns3:cad>
          </ns3:TrackPointExtension>
        </extensions>
      </trkpt>
      <trkpt lat="45.32747198827564716339111328125" lon="-70.89763504453003406524658203125">
        <ele>584.20001220703125</ele>
        <time>2026-08-21T16:38:44.000Z</time>
        <extensions>
          <ns3:TrackPointExtension>
            <ns3:hr>131</ns3:hr>
            <ns3:cad>0</ns3:cad>
          </ns3:TrackPointExtension>
        </extensions>
      </trkpt>
      <trkpt lat="45.32748322002589702606201171875" lon="-70.89762683026492595672607421875">
        <ele>584.20001220703125</ele>
        <time>2026-08-21T16:38:45.000Z</time>
        <extensions>
          <ns3:TrackPointExtension>
            <ns3:hr>131</ns3:hr>
            <ns3:cad>0</ns3:cad>
          </ns3:TrackPointExtension>
        </extensions>
      </trkpt>
      <trkpt lat="45.3274910151958465576171875" lon="-70.897618867456912994384765625">
        <ele>584.20001220703125</ele>
        <time>2026-08-21T16:38:46.000Z</time>
        <extensions>
          <ns3:TrackPointExtension>
            <ns3:hr>129</ns3:hr>
            <ns3:cad>0</ns3:cad>
          </ns3:TrackPointExtension>
        </extensions>
      </trkpt>
      <trkpt lat="45.32749445177614688873291015625" lon="-70.8976046182215213775634765625">
        <ele>584.20001220703125</ele>
        <time>2026-08-21T16:38:47.000Z</time>
        <extensions>
          <ns3:TrackPointExtension>
            <ns3:hr>129</ns3:hr>
            <ns3:cad>0</ns3:cad>
          </ns3:TrackPointExtension>
        </extensions>
      </trkpt>
      <trkpt lat="45.3275012411177158355712890625" lon="-70.8975922130048274993896484375">
        <ele>584.20001220703125</ele>
        <time>2026-08-21T16:38:48.000Z</time>
        <extensions>
          <ns3:TrackPointExtension>
            <ns3:hr>128</ns3:hr>
            <ns3:cad>0</ns3:cad>
          </ns3:TrackPointExtension>
        </extensions>
      </trkpt>
      <trkpt lat="45.327516160905361175537109375" lon="-70.89758743532001972198486328125">
        <ele>584.20001220703125</ele>
        <time>2026-08-21T16:38:49.000Z</time>
        <extensions>
          <ns3:TrackPointExtension>
            <ns3:hr>129</ns3:hr>
            <ns3:cad>0</ns3:cad>
          </ns3:TrackPointExtension>
        </extensions>
      </trkpt>
      <trkpt lat="45.3275300748646259307861328125" lon="-70.8975834958255290985107421875">
        <ele>584.20001220703125</ele>
        <time>2026-08-21T16:38:50.000Z</time>
        <extensions>
          <ns3:TrackPointExtension>
            <ns3:hr>129</ns3:hr>
            <ns3:cad>0</ns3:cad>
          </ns3:TrackPointExtension>
        </extensions>
      </trkpt>
      <trkpt lat="45.32754373736679553985595703125" lon="-70.89758022688329219818115234375">
        <ele>584.20001220703125</ele>
        <time>2026-08-21T16:38:51.000Z</time>
        <extensions>
          <ns3:TrackPointExtension>
            <ns3:hr>128</ns3:hr>
            <ns3:cad>0</ns3:cad>
          </ns3:TrackPointExtension>
        </extensions>
      </trkpt>
      <trkpt lat="45.327550359070301055908203125" lon="-70.89757335372269153594970703125">
        <ele>584.20001220703125</ele>
        <time>2026-08-21T16:38:52.000Z</time>
        <extensions>
          <ns3:TrackPointExtension>
            <ns3:hr>128</ns3:hr>
            <ns3:cad>0</ns3:cad>
          </ns3:TrackPointExtension>
        </extensions>
      </trkpt>
      <trkpt lat="45.3275609202682971954345703125" lon="-70.8975570090115070343017578125">
        <ele>584.20001220703125</ele>
        <time>2026-08-21T16:38:53.000Z</time>
        <extensions>
          <ns3:TrackPointExtension>
            <ns3:hr>128</ns3:hr>
            <ns3:cad>0</ns3:cad>
          </ns3:TrackPointExtension>
        </extensions>
      </trkpt>
      <trkpt lat="45.32757575623691082000732421875" lon="-70.8975405804812908172607421875">
        <ele>584.20001220703125</ele>
        <time>2026-08-21T16:38:54.000Z</time>
        <extensions>
          <ns3:TrackPointExtension>
            <ns3:hr>127</ns3:hr>
            <ns3:cad>0</ns3:cad>
          </ns3:TrackPointExtension>
        </extensions>
      </trkpt>
      <trkpt lat="45.3275850601494312286376953125" lon="-70.89752658270299434661865234375">
        <ele>584.20001220703125</ele>
        <time>2026-08-21T16:38:55.000Z</time>
        <extensions>
          <ns3:TrackPointExtension>
            <ns3:hr>127</ns3:hr>
            <ns3:cad>0</ns3:cad>
          </ns3:TrackPointExtension>
        </extensions>
      </trkpt>
      <trkpt lat="45.327592603862285614013671875" lon="-70.897516272962093353271484375">
        <ele>584.20001220703125</ele>
        <time>2026-08-21T16:38:56.000Z</time>
        <extensions>
          <ns3:TrackPointExtension>
            <ns3:hr>127</ns3:hr>
            <ns3:cad>0</ns3:cad>
          </ns3:TrackPointExtension>
        </extensions>
      </trkpt>
      <trkpt lat="45.32759889028966426849365234375" lon="-70.89751015417277812957763671875">
        <ele>584.20001220703125</ele>
        <time>2026-08-21T16:38:57.000Z</time>
        <extensions>
          <ns3:TrackPointExtension>
            <ns3:hr>127</ns3:hr>
            <ns3:cad>0</ns3:cad>
          </ns3:TrackPointExtension>
        </extensions>
      </trkpt>
      <trkpt lat="45.32760878093540668487548828125" lon="-70.897501520812511444091796875">
        <ele>584.4000244140625</ele>
        <time>2026-08-21T16:38:58.000Z</time>
        <extensions>
          <ns3:TrackPointExtension>
            <ns3:hr>127</ns3:hr>
            <ns3:cad>0</ns3:cad>
          </ns3:TrackPointExtension>
        </extensions>
      </trkpt>
      <trkpt lat="45.32761615701019763946533203125" lon="-70.89749582111835479736328125">
        <ele>584.5999755859375</ele>
        <time>2026-08-21T16:38:59.000Z</time>
        <extensions>
          <ns3:TrackPointExtension>
            <ns3:hr>127</ns3:hr>
            <ns3:cad>0</ns3:cad>
          </ns3:TrackPointExtension>
        </extensions>
      </trkpt>
      <trkpt lat="45.3276313282549381256103515625" lon="-70.89748601429164409637451171875">
        <ele>584.79998779296875</ele>
        <time>2026-08-21T16:39:00.000Z</time>
        <extensions>
          <ns3:TrackPointExtension>
            <ns3:hr>127</ns3:hr>
            <ns3:cad>54</ns3:cad>
          </ns3:TrackPointExtension>
        </extensions>
      </trkpt>
      <trkpt lat="45.3276403807103633880615234375" lon="-70.8974777162075042724609375">
        <ele>585</ele>
        <time>2026-08-21T16:39:01.000Z</time>
        <extensions>
          <ns3:TrackPointExtension>
            <ns3:hr>127</ns3:hr>
            <ns3:cad>54</ns3:cad>
          </ns3:TrackPointExtension>
        </extensions>
      </trkpt>
      <trkpt lat="45.32764733768999576568603515625" lon="-70.89746707119047641754150390625">
        <ele>585.20001220703125</ele>
        <time>2026-08-21T16:39:02.000Z</time>
        <extensions>
          <ns3:TrackPointExtension>
            <ns3:hr>127</ns3:hr>
            <ns3:cad>54</ns3:cad>
          </ns3:TrackPointExtension>
        </extensions>
      </trkpt>
      <trkpt lat="45.32765152864158153533935546875" lon="-70.89746497571468353271484375">
        <ele>585.4000244140625</ele>
        <time>2026-08-21T16:39:03.000Z</time>
        <extensions>
          <ns3:TrackPointExtension>
            <ns3:hr>127</ns3:hr>
            <ns3:cad>54</ns3:cad>
          </ns3:TrackPointExtension>
        </extensions>
      </trkpt>
      <trkpt lat="45.32766376622021198272705078125" lon="-70.89746036566793918609619140625">
        <ele>585.79998779296875</ele>
        <time>2026-08-21T16:39:04.000Z</time>
        <extensions>
          <ns3:TrackPointExtension>
            <ns3:hr>127</ns3:hr>
            <ns3:cad>54</ns3:cad>
          </ns3:TrackPointExtension>
        </extensions>
      </trkpt>
      <trkpt lat="45.3276745788753032684326171875" lon="-70.89746673591434955596923828125">
        <ele>586</ele>
        <time>2026-08-21T16:39:05.000Z</time>
        <extensions>
          <ns3:TrackPointExtension>
            <ns3:hr>128</ns3:hr>
            <ns3:cad>54</ns3:cad>
          </ns3:TrackPointExtension>
        </extensions>
      </trkpt>
      <trkpt lat="45.32768472097814083099365234375" lon="-70.89746690355241298675537109375">
        <ele>586.20001220703125</ele>
        <time>2026-08-21T16:39:06.000Z</time>
        <extensions>
          <ns3:TrackPointExtension>
            <ns3:hr>129</ns3:hr>
            <ns3:cad>54</ns3:cad>
          </ns3:TrackPointExtension>
        </extensions>
      </trkpt>
      <trkpt lat="45.32769477926194667816162109375" lon="-70.8974664844572544097900390625">
        <ele>586.20001220703125</ele>
        <time>2026-08-21T16:39:07.000Z</time>
        <extensions>
          <ns3:TrackPointExtension>
            <ns3:hr>131</ns3:hr>
            <ns3:cad>54</ns3:cad>
          </ns3:TrackPointExtension>
        </extensions>
      </trkpt>
      <trkpt lat="45.32770299352705478668212890625" lon="-70.8974678255617618560791015625">
        <ele>586.4000244140625</ele>
        <time>2026-08-21T16:39:08.000Z</time>
        <extensions>
          <ns3:TrackPointExtension>
            <ns3:hr>133</ns3:hr>
            <ns3:cad>54</ns3:cad>
          </ns3:TrackPointExtension>
        </extensions>
      </trkpt>
      <trkpt lat="45.32771254889667034149169921875" lon="-70.8974750339984893798828125">
        <ele>586.5999755859375</ele>
        <time>2026-08-21T16:39:09.000Z</time>
        <extensions>
          <ns3:TrackPointExtension>
            <ns3:hr>136</ns3:hr>
            <ns3:cad>54</ns3:cad>
          </ns3:TrackPointExtension>
        </extensions>
      </trkpt>
      <trkpt lat="45.32772378064692020416259765625" lon="-70.89747863821685314178466796875">
        <ele>586.5999755859375</ele>
        <time>2026-08-21T16:39:10.000Z</time>
        <extensions>
          <ns3:TrackPointExtension>
            <ns3:hr>137</ns3:hr>
            <ns3:cad>0</ns3:cad>
          </ns3:TrackPointExtension>
        </extensions>
      </trkpt>
      <trkpt lat="45.3277305699884891510009765625" lon="-70.89748349972069263458251953125">
        <ele>586.5999755859375</ele>
        <time>2026-08-21T16:39:11.000Z</time>
        <extensions>
          <ns3:TrackPointExtension>
            <ns3:hr>137</ns3:hr>
            <ns3:cad>0</ns3:cad>
          </ns3:TrackPointExtension>
        </extensions>
      </trkpt>
      <trkpt lat="45.327744819223880767822265625" lon="-70.89749255217611789703369140625">
        <ele>586.79998779296875</ele>
        <time>2026-08-21T16:39:12.000Z</time>
        <extensions>
          <ns3:TrackPointExtension>
            <ns3:hr>137</ns3:hr>
            <ns3:cad>0</ns3:cad>
          </ns3:TrackPointExtension>
        </extensions>
      </trkpt>
      <trkpt lat="45.32775512896478176116943359375" lon="-70.8974963240325450897216796875">
        <ele>586.79998779296875</ele>
        <time>2026-08-21T16:39:13.000Z</time>
        <extensions>
          <ns3:TrackPointExtension>
            <ns3:hr>138</ns3:hr>
            <ns3:cad>0</ns3:cad>
          </ns3:TrackPointExtension>
        </extensions>
      </trkpt>
      <trkpt lat="45.32776636071503162384033203125" lon="-70.89750386774539947509765625">
        <ele>586.79998779296875</ele>
        <time>2026-08-21T16:39:14.000Z</time>
        <extensions>
          <ns3:TrackPointExtension>
            <ns3:hr>138</ns3:hr>
            <ns3:cad>0</ns3:cad>
          </ns3:TrackPointExtension>
        </extensions>
      </trkpt>
      <trkpt lat="45.32777809537947177886962890625" lon="-70.89751551859080791473388671875">
        <ele>586.79998779296875</ele>
        <time>2026-08-21T16:39:15.000Z</time>
        <extensions>
          <ns3:TrackPointExtension>
            <ns3:hr>138</ns3:hr>
            <ns3:cad>0</ns3:cad>
          </ns3:TrackPointExtension>
        </extensions>
      </trkpt>
      <trkpt lat="45.3277909196913242340087890625" lon="-70.89752473868429660797119140625">
        <ele>586.5999755859375</ele>
        <time>2026-08-21T16:39:16.000Z</time>
        <extensions>
          <ns3:TrackPointExtension>
            <ns3:hr>139</ns3:hr>
            <ns3:cad>0</ns3:cad>
          </ns3:TrackPointExtension>
        </extensions>
      </trkpt>
      <trkpt lat="45.32780525274574756622314453125" lon="-70.89753094129264354705810546875">
        <ele>586.5999755859375</ele>
        <time>2026-08-21T16:39:17.000Z</time>
        <extensions>
          <ns3:TrackPointExtension>
            <ns3:hr>139</ns3:hr>
            <ns3:cad>0</ns3:cad>
          </ns3:TrackPointExtension>
        </extensions>
      </trkpt>
      <trkpt lat="45.32781816087663173675537109375" lon="-70.897541083395481109619140625">
        <ele>586.5999755859375</ele>
        <time>2026-08-21T16:39:18.000Z</time>
        <extensions>
          <ns3:TrackPointExtension>
            <ns3:hr>139</ns3:hr>
            <ns3:cad>0</ns3:cad>
          </ns3:TrackPointExtension>
        </extensions>
      </trkpt>
      <trkpt lat="45.327838025987148284912109375" lon="-70.89755072258412837982177734375">
        <ele>586.79998779296875</ele>
        <time>2026-08-21T16:39:19.000Z</time>
        <extensions>
          <ns3:TrackPointExtension>
            <ns3:hr>139</ns3:hr>
            <ns3:cad>0</ns3:cad>
          </ns3:TrackPointExtension>
        </extensions>
      </trkpt>
      <trkpt lat="45.3278559632599353790283203125" lon="-70.89756396599113941192626953125">
        <ele>586.79998779296875</ele>
        <time>2026-08-21T16:39:20.000Z</time>
        <extensions>
          <ns3:TrackPointExtension>
            <ns3:hr>139</ns3:hr>
            <ns3:cad>0</ns3:cad>
          </ns3:TrackPointExtension>
        </extensions>
      </trkpt>
      <trkpt lat="45.32786945812404155731201171875" lon="-70.8975670672953128814697265625">
        <ele>586.79998779296875</ele>
        <time>2026-08-21T16:39:21.000Z</time>
        <extensions>
          <ns3:TrackPointExtension>
            <ns3:hr>140</ns3:hr>
            <ns3:cad>0</ns3:cad>
          </ns3:TrackPointExtension>
        </extensions>
      </trkpt>
      <trkpt lat="45.327878929674625396728515625" lon="-70.89756446890532970428466796875">
        <ele>586.79998779296875</ele>
        <time>2026-08-21T16:39:22.000Z</time>
        <extensions>
          <ns3:TrackPointExtension>
            <ns3:hr>140</ns3:hr>
            <ns3:cad>0</ns3:cad>
          </ns3:TrackPointExtension>
        </extensions>
      </trkpt>
      <trkpt lat="45.3278941847383975982666015625" lon="-70.89756748639047145843505859375">
        <ele>587</ele>
        <time>2026-08-21T16:39:23.000Z</time>
        <extensions>
          <ns3:TrackPointExtension>
            <ns3:hr>140</ns3:hr>
            <ns3:cad>0</ns3:cad>
          </ns3:TrackPointExtension>
        </extensions>
      </trkpt>
      <trkpt lat="45.32790767960250377655029296875" lon="-70.89756698347628116607666015625">
        <ele>587</ele>
        <time>2026-08-21T16:39:24.000Z</time>
        <extensions>
          <ns3:TrackPointExtension>
            <ns3:hr>139</ns3:hr>
            <ns3:cad>0</ns3:cad>
          </ns3:TrackPointExtension>
        </extensions>
      </trkpt>
      <trkpt lat="45.32791924662888050079345703125" lon="-70.8975680731236934661865234375">
        <ele>587</ele>
        <time>2026-08-21T16:39:25.000Z</time>
        <extensions>
          <ns3:TrackPointExtension>
            <ns3:hr>140</ns3:hr>
            <ns3:cad>0</ns3:cad>
          </ns3:TrackPointExtension>
        </extensions>
      </trkpt>
      <trkpt lat="45.32793450169265270233154296875" lon="-70.89757469482719898223876953125">
        <ele>587.20001220703125</ele>
        <time>2026-08-21T16:39:26.000Z</time>
        <extensions>
          <ns3:TrackPointExtension>
            <ns3:hr>140</ns3:hr>
            <ns3:cad>0</ns3:cad>
          </ns3:TrackPointExtension>
        </extensions>
      </trkpt>
      <trkpt lat="45.32794757746160030364990234375" lon="-70.897573940455913543701171875">
        <ele>587.20001220703125</ele>
        <time>2026-08-21T16:39:27.000Z</time>
        <extensions>
          <ns3:TrackPointExtension>
            <ns3:hr>139</ns3:hr>
            <ns3:cad>52</ns3:cad>
          </ns3:TrackPointExtension>
        </extensions>
      </trkpt>
      <trkpt lat="45.327956713736057281494140625" lon="-70.89757360517978668212890625">
        <ele>587.20001220703125</ele>
        <time>2026-08-21T16:39:28.000Z</time>
        <extensions>
          <ns3:TrackPointExtension>
            <ns3:hr>140</ns3:hr>
            <ns3:cad>52</ns3:cad>
          </ns3:TrackPointExtension>
        </extensions>
      </trkpt>
      <trkpt lat="45.32797439955174922943115234375" lon="-70.89757586829364299774169921875">
        <ele>587.4000244140625</ele>
        <time>2026-08-21T16:39:29.000Z</time>
        <extensions>
          <ns3:TrackPointExtension>
            <ns3:hr>140</ns3:hr>
            <ns3:cad>0</ns3:cad>
          </ns3:TrackPointExtension>
        </extensions>
      </trkpt>
      <trkpt lat="45.3279883973300457000732421875" lon="-70.8975769579410552978515625">
        <ele>587.4000244140625</ele>
        <time>2026-08-21T16:39:30.000Z</time>
        <extensions>
          <ns3:TrackPointExtension>
            <ns3:hr>140</ns3:hr>
            <ns3:cad>0</ns3:cad>
          </ns3:TrackPointExtension>
        </extensions>
      </trkpt>
      <trkpt lat="45.3279991261661052703857421875" lon="-70.89757603593170642852783203125">
        <ele>587.4000244140625</ele>
        <time>2026-08-21T16:39:31.000Z</time>
        <extensions>
          <ns3:TrackPointExtension>
            <ns3:hr>139</ns3:hr>
            <ns3:cad>0</ns3:cad>
          </ns3:TrackPointExtension>
        </extensions>
      </trkpt>
      <trkpt lat="45.32801077701151371002197265625" lon="-70.89757855050265789031982421875">
        <ele>587.5999755859375</ele>
        <time>2026-08-21T16:39:32.000Z</time>
        <extensions>
          <ns3:TrackPointExtension>
            <ns3:hr>140</ns3:hr>
            <ns3:cad>0</ns3:cad>
          </ns3:TrackPointExtension>
        </extensions>
      </trkpt>
      <trkpt lat="45.32801630906760692596435546875" lon="-70.89758425019681453704833984375">
        <ele>587.5999755859375</ele>
        <time>2026-08-21T16:39:33.000Z</time>
        <extensions>
          <ns3:TrackPointExtension>
            <ns3:hr>140</ns3:hr>
            <ns3:cad>0</ns3:cad>
          </ns3:TrackPointExtension>
        </extensions>
      </trkpt>
      <trkpt lat="45.32801873981952667236328125" lon="-70.8975915424525737762451171875">
        <ele>587.5999755859375</ele>
        <time>2026-08-21T16:39:34.000Z</time>
        <extensions>
          <ns3:TrackPointExtension>
            <ns3:hr>139</ns3:hr>
            <ns3:cad>0</ns3:cad>
          </ns3:TrackPointExtension>
        </extensions>
      </trkpt>
      <trkpt lat="45.3280222602188587188720703125" lon="-70.89760419912636280059814453125">
        <ele>587.5999755859375</ele>
        <time>2026-08-21T16:39:35.000Z</time>
        <extensions>
          <ns3:TrackPointExtension>
            <ns3:hr>140</ns3:hr>
            <ns3:cad>0</ns3:cad>
          </ns3:TrackPointExtension>
        </extensions>
      </trkpt>
      <trkpt lat="45.3280262835323810577392578125" lon="-70.89761115610599517822265625">
        <ele>587.5999755859375</ele>
        <time>2026-08-21T16:39:36.000Z</time>
        <extensions>
          <ns3:TrackPointExtension>
            <ns3:hr>139</ns3:hr>
            <ns3:cad>48</ns3:cad>
          </ns3:TrackPointExtension>
        </extensions>
      </trkpt>
      <trkpt lat="45.32803072594106197357177734375" lon="-70.8976186998188495635986328125">
        <ele>587.5999755859375</ele>
        <time>2026-08-21T16:39:37.000Z</time>
        <extensions>
          <ns3:TrackPointExtension>
            <ns3:hr>138</ns3:hr>
            <ns3:cad>48</ns3:cad>
          </ns3:TrackPointExtension>
        </extensions>
      </trkpt>
      <trkpt lat="45.32803491689264774322509765625" lon="-70.8976274169981479644775390625">
        <ele>587.5999755859375</ele>
        <time>2026-08-21T16:39:38.000Z</time>
        <extensions>
          <ns3:TrackPointExtension>
            <ns3:hr>139</ns3:hr>
            <ns3:cad>48</ns3:cad>
          </ns3:TrackPointExtension>
        </extensions>
      </trkpt>
      <trkpt lat="45.32803558744490146636962890625" lon="-70.89763772673904895782470703125">
        <ele>587.4000244140625</ele>
        <time>2026-08-21T16:39:39.000Z</time>
        <extensions>
          <ns3:TrackPointExtension>
            <ns3:hr>140</ns3:hr>
            <ns3:cad>47</ns3:cad>
          </ns3:TrackPointExtension>
        </extensions>
      </trkpt>
      <trkpt lat="45.32803592272102832794189453125" lon="-70.89764661155641078948974609375">
        <ele>587.4000244140625</ele>
        <time>2026-08-21T16:39:40.000Z</time>
        <extensions>
          <ns3:TrackPointExtension>
            <ns3:hr>138</ns3:hr>
            <ns3:cad>47</ns3:cad>
          </ns3:TrackPointExtension>
        </extensions>
      </trkpt>
      <trkpt lat="45.32803474925458431243896484375" lon="-70.89765264652669429779052734375">
        <ele>587.20001220703125</ele>
        <time>2026-08-21T16:39:41.000Z</time>
        <extensions>
          <ns3:TrackPointExtension>
            <ns3:hr>139</ns3:hr>
            <ns3:cad>50</ns3:cad>
          </ns3:TrackPointExtension>
        </extensions>
      </trkpt>
      <trkpt lat="45.328031815588474273681640625" lon="-70.8976575918495655059814453125">
        <ele>587.20001220703125</ele>
        <time>2026-08-21T16:39:42.000Z</time>
        <extensions>
          <ns3:TrackPointExtension>
            <ns3:hr>138</ns3:hr>
            <ns3:cad>50</ns3:cad>
          </ns3:TrackPointExtension>
        </extensions>
      </trkpt>
      <trkpt lat="45.328032486140727996826171875" lon="-70.89765583164989948272705078125">
        <ele>587.20001220703125</ele>
        <time>2026-08-21T16:39:43.000Z</time>
        <extensions>
          <ns3:TrackPointExtension>
            <ns3:hr>137</ns3:hr>
            <ns3:cad>50</ns3:cad>
          </ns3:TrackPointExtension>
        </extensions>
      </trkpt>
      <trkpt lat="45.3280269540846347808837890625" lon="-70.897664129734039306640625">
        <ele>587</ele>
        <time>2026-08-21T16:39:44.000Z</time>
        <extensions>
          <ns3:TrackPointExtension>
            <ns3:hr>136</ns3:hr>
            <ns3:cad>0</ns3:cad>
          </ns3:TrackPointExtension>
        </extensions>
      </trkpt>
      <trkpt lat="45.32802351750433444976806640625" lon="-70.8976713381707668304443359375">
        <ele>587</ele>
        <time>2026-08-21T16:39:45.000Z</time>
        <extensions>
          <ns3:TrackPointExtension>
            <ns3:hr>136</ns3:hr>
            <ns3:cad>0</ns3:cad>
          </ns3:TrackPointExtension>
        </extensions>
      </trkpt>
      <trkpt lat="45.328023768961429595947265625" lon="-70.8976860903203487396240234375">
        <ele>587</ele>
        <time>2026-08-21T16:39:46.000Z</time>
        <extensions>
          <ns3:TrackPointExtension>
            <ns3:hr>136</ns3:hr>
            <ns3:cad>51</ns3:cad>
          </ns3:TrackPointExtension>
        </extensions>
      </trkpt>
      <trkpt lat="45.3280202485620975494384765625" lon="-70.89770092628896236419677734375">
        <ele>586.79998779296875</ele>
        <time>2026-08-21T16:39:47.000Z</time>
        <extensions>
          <ns3:TrackPointExtension>
            <ns3:hr>136</ns3:hr>
            <ns3:cad>51</ns3:cad>
          </ns3:TrackPointExtension>
        </extensions>
      </trkpt>
      <trkpt lat="45.32801932655274868011474609375" lon="-70.89771785773336887359619140625">
        <ele>586.79998779296875</ele>
        <time>2026-08-21T16:39:48.000Z</time>
        <extensions>
          <ns3:TrackPointExtension>
            <ns3:hr>135</ns3:hr>
            <ns3:cad>52</ns3:cad>
          </ns3:TrackPointExtension>
        </extensions>
      </trkpt>
      <trkpt lat="45.3280225954949855804443359375" lon="-70.89773613028228282928466796875">
        <ele>586.5999755859375</ele>
        <time>2026-08-21T16:39:49.000Z</time>
        <extensions>
          <ns3:TrackPointExtension>
            <ns3:hr>134</ns3:hr>
            <ns3:cad>52</ns3:cad>
          </ns3:TrackPointExtension>
        </extensions>
      </trkpt>
      <trkpt lat="45.32802552916109561920166015625" lon="-70.8977513015270233154296875">
        <ele>586.5999755859375</ele>
        <time>2026-08-21T16:39:50.000Z</time>
        <extensions>
          <ns3:TrackPointExtension>
            <ns3:hr>134</ns3:hr>
            <ns3:cad>52</ns3:cad>
          </ns3:TrackPointExtension>
        </extensions>
      </trkpt>
      <trkpt lat="45.32802837900817394256591796875" lon="-70.89776806533336639404296875">
        <ele>586.4000244140625</ele>
        <time>2026-08-21T16:39:51.000Z</time>
        <extensions>
          <ns3:TrackPointExtension>
            <ns3:hr>133</ns3:hr>
            <ns3:cad>52</ns3:cad>
          </ns3:TrackPointExtension>
        </extensions>
      </trkpt>
      <trkpt lat="45.32803156413137912750244140625" lon="-70.89778290130198001861572265625">
        <ele>586.4000244140625</ele>
        <time>2026-08-21T16:39:52.000Z</time>
        <extensions>
          <ns3:TrackPointExtension>
            <ns3:hr>132</ns3:hr>
            <ns3:cad>52</ns3:cad>
          </ns3:TrackPointExtension>
        </extensions>
      </trkpt>
      <trkpt lat="45.32803441397845745086669921875" lon="-70.8977974019944667816162109375">
        <ele>586.20001220703125</ele>
        <time>2026-08-21T16:39:53.000Z</time>
        <extensions>
          <ns3:TrackPointExtension>
            <ns3:hr>131</ns3:hr>
            <ns3:cad>51</ns3:cad>
          </ns3:TrackPointExtension>
        </extensions>
      </trkpt>
      <trkpt lat="45.3280353359878063201904296875" lon="-70.89781743474304676055908203125">
        <ele>586.20001220703125</ele>
        <time>2026-08-21T16:39:54.000Z</time>
        <extensions>
          <ns3:TrackPointExtension>
            <ns3:hr>129</ns3:hr>
            <ns3:cad>51</ns3:cad>
          </ns3:TrackPointExtension>
        </extensions>
      </trkpt>
      <trkpt lat="45.32803223468363285064697265625" lon="-70.8978332765400409698486328125">
        <ele>586</ele>
        <time>2026-08-21T16:39:55.000Z</time>
        <extensions>
          <ns3:TrackPointExtension>
            <ns3:hr>127</ns3:hr>
            <ns3:cad>51</ns3:cad>
          </ns3:TrackPointExtension>
        </extensions>
      </trkpt>
      <trkpt lat="45.32803139649331569671630859375" lon="-70.89784660376608371734619140625">
        <ele>586</ele>
        <time>2026-08-21T16:39:56.000Z</time>
        <extensions>
          <ns3:TrackPointExtension>
            <ns3:hr>126</ns3:hr>
            <ns3:cad>53</ns3:cad>
          </ns3:TrackPointExtension>
        </extensions>
      </trkpt>
      <trkpt lat="45.328029803931713104248046875" lon="-70.89786571450531482696533203125">
        <ele>585.79998779296875</ele>
        <time>2026-08-21T16:39:57.000Z</time>
        <extensions>
          <ns3:TrackPointExtension>
            <ns3:hr>126</ns3:hr>
            <ns3:cad>53</ns3:cad>
          </ns3:TrackPointExtension>
        </extensions>
      </trkpt>
      <trkpt lat="45.32802653498947620391845703125" lon="-70.8978862501680850982666015625">
        <ele>585.5999755859375</ele>
        <time>2026-08-21T16:39:58.000Z</time>
        <extensions>
          <ns3:TrackPointExtension>
            <ns3:hr>126</ns3:hr>
            <ns3:cad>55</ns3:cad>
          </ns3:TrackPointExtension>
        </extensions>
      </trkpt>
      <trkpt lat="45.3280232660472393035888671875" lon="-70.89790343306958675384521484375">
        <ele>585.5999755859375</ele>
        <time>2026-08-21T16:39:59.000Z</time>
        <extensions>
          <ns3:TrackPointExtension>
            <ns3:hr>126</ns3:hr>
            <ns3:cad>55</ns3:cad>
          </ns3:TrackPointExtension>
        </extensions>
      </trkpt>
      <trkpt lat="45.32801999710500240325927734375" lon="-70.89791617356240749359130859375">
        <ele>585.4000244140625</ele>
        <time>2026-08-21T16:40:00.000Z</time>
        <extensions>
          <ns3:TrackPointExtension>
            <ns3:hr>125</ns3:hr>
            <ns3:cad>55</ns3:cad>
          </ns3:TrackPointExtension>
        </extensions>
      </trkpt>
      <trkpt lat="45.3280222602188587188720703125" lon="-70.8979412354528903961181640625">
        <ele>585.4000244140625</ele>
        <time>2026-08-21T16:40:01.000Z</time>
        <extensions>
          <ns3:TrackPointExtension>
            <ns3:hr>125</ns3:hr>
            <ns3:cad>55</ns3:cad>
          </ns3:TrackPointExtension>
        </extensions>
      </trkpt>
      <trkpt lat="45.32801982946693897247314453125" lon="-70.89795573614537715911865234375">
        <ele>585.20001220703125</ele>
        <time>2026-08-21T16:40:02.000Z</time>
        <extensions>
          <ns3:TrackPointExtension>
            <ns3:hr>124</ns3:hr>
            <ns3:cad>55</ns3:cad>
          </ns3:TrackPointExtension>
        </extensions>
      </trkpt>
      <trkpt lat="45.32801806926727294921875" lon="-70.89797032065689563751220703125">
        <ele>585.20001220703125</ele>
        <time>2026-08-21T16:40:03.000Z</time>
        <extensions>
          <ns3:TrackPointExtension>
            <ns3:hr>124</ns3:hr>
            <ns3:cad>56</ns3:cad>
          </ns3:TrackPointExtension>
        </extensions>
      </trkpt>
      <trkpt lat="45.3280229307711124420166015625" lon="-70.89799278415739536285400390625">
        <ele>585</ele>
        <time>2026-08-21T16:40:04.000Z</time>
        <extensions>
          <ns3:TrackPointExtension>
            <ns3:hr>124</ns3:hr>
            <ns3:cad>56</ns3:cad>
          </ns3:TrackPointExtension>
        </extensions>
      </trkpt>
      <trkpt lat="45.32802485860884189605712890625" lon="-70.89801290072500705718994140625">
        <ele>585</ele>
        <time>2026-08-21T16:40:05.000Z</time>
        <extensions>
          <ns3:TrackPointExtension>
            <ns3:hr>125</ns3:hr>
            <ns3:cad>56</ns3:cad>
          </ns3:TrackPointExtension>
        </extensions>
      </trkpt>
      <trkpt lat="45.32802267931401729583740234375" lon="-70.898040644824504852294921875">
        <ele>585</ele>
        <time>2026-08-21T16:40:06.000Z</time>
        <extensions>
          <ns3:TrackPointExtension>
            <ns3:hr>125</ns3:hr>
            <ns3:cad>56</ns3:cad>
          </ns3:TrackPointExtension>
        </extensions>
      </trkpt>
      <trkpt lat="45.32802234403789043426513671875" lon="-70.89806939475238323211669921875">
        <ele>584.79998779296875</ele>
        <time>2026-08-21T16:40:07.000Z</time>
        <extensions>
          <ns3:TrackPointExtension>
            <ns3:hr>125</ns3:hr>
            <ns3:cad>56</ns3:cad>
          </ns3:TrackPointExtension>
        </extensions>
      </trkpt>
      <trkpt lat="45.3280215896666049957275390625" lon="-70.898101665079593658447265625">
        <ele>584.5999755859375</ele>
        <time>2026-08-21T16:40:08.000Z</time>
        <extensions>
          <ns3:TrackPointExtension>
            <ns3:hr>126</ns3:hr>
            <ns3:cad>56</ns3:cad>
          </ns3:TrackPointExtension>
        </extensions>
      </trkpt>
      <trkpt lat="45.32802217639982700347900390625" lon="-70.898139216005802154541015625">
        <ele>584.5999755859375</ele>
        <time>2026-08-21T16:40:09.000Z</time>
        <extensions>
          <ns3:TrackPointExtension>
            <ns3:hr>126</ns3:hr>
            <ns3:cad>56</ns3:cad>
          </ns3:TrackPointExtension>
        </extensions>
      </trkpt>
      <trkpt lat="45.32802150584757328033447265625" lon="-70.89816763065755367279052734375">
        <ele>584.4000244140625</ele>
        <time>2026-08-21T16:40:10.000Z</time>
        <extensions>
          <ns3:TrackPointExtension>
            <ns3:hr>125</ns3:hr>
            <ns3:cad>77</ns3:cad>
          </ns3:TrackPointExtension>
        </extensions>
      </trkpt>
      <trkpt lat="45.3280220925807952880859375" lon="-70.89820526540279388427734375">
        <ele>584.20001220703125</ele>
        <time>2026-08-21T16:40:11.000Z</time>
        <extensions>
          <ns3:TrackPointExtension>
            <ns3:hr>122</ns3:hr>
            <ns3:cad>77</ns3:cad>
          </ns3:TrackPointExtension>
        </extensions>
      </trkpt>
      <trkpt lat="45.3280205838382244110107421875" lon="-70.89822613634169101715087890625">
        <ele>584.20001220703125</ele>
        <time>2026-08-21T16:40:12.000Z</time>
        <extensions>
          <ns3:TrackPointExtension>
            <ns3:hr>121</ns3:hr>
            <ns3:cad>79</ns3:cad>
          </ns3:TrackPointExtension>
        </extensions>
      </trkpt>
      <trkpt lat="45.32801765017211437225341796875" lon="-70.89824809692800045013427734375">
        <ele>584</ele>
        <time>2026-08-21T16:40:13.000Z</time>
        <extensions>
          <ns3:TrackPointExtension>
            <ns3:hr>120</ns3:hr>
            <ns3:cad>79</ns3:cad>
          </ns3:TrackPointExtension>
        </extensions>
      </trkpt>
      <trkpt lat="45.3280172310769557952880859375" lon="-70.89827206917107105255126953125">
        <ele>584</ele>
        <time>2026-08-21T16:40:14.000Z</time>
        <extensions>
          <ns3:TrackPointExtension>
            <ns3:hr>120</ns3:hr>
            <ns3:cad>79</ns3:cad>
          </ns3:TrackPointExtension>
        </extensions>
      </trkpt>
      <trkpt lat="45.32801748253405094146728515625" lon="-70.89829587377607822418212890625">
        <ele>584</ele>
        <time>2026-08-21T16:40:15.000Z</time>
        <extensions>
          <ns3:TrackPointExtension>
            <ns3:hr>121</ns3:hr>
            <ns3:cad>79</ns3:cad>
          </ns3:TrackPointExtension>
        </extensions>
      </trkpt>
      <trkpt lat="45.32801765017211437225341796875" lon="-70.898322947323322296142578125">
        <ele>584</ele>
        <time>2026-08-21T16:40:16.000Z</time>
        <extensions>
          <ns3:TrackPointExtension>
            <ns3:hr>122</ns3:hr>
            <ns3:cad>79</ns3:cad>
          </ns3:TrackPointExtension>
        </extensions>
      </trkpt>
      <trkpt lat="45.32802150584757328033447265625" lon="-70.89834029786288738250732421875">
        <ele>583.79998779296875</ele>
        <time>2026-08-21T16:40:17.000Z</time>
        <extensions>
          <ns3:TrackPointExtension>
            <ns3:hr>122</ns3:hr>
            <ns3:cad>0</ns3:cad>
          </ns3:TrackPointExtension>
        </extensions>
      </trkpt>
      <trkpt lat="45.32801999710500240325927734375" lon="-70.8983697183430194854736328125">
        <ele>583.79998779296875</ele>
        <time>2026-08-21T16:40:18.000Z</time>
        <extensions>
          <ns3:TrackPointExtension>
            <ns3:hr>122</ns3:hr>
            <ns3:cad>61</ns3:cad>
          </ns3:TrackPointExtension>
        </extensions>
      </trkpt>
      <trkpt lat="45.32801999710500240325927734375" lon="-70.89839704334735870361328125">
        <ele>583.79998779296875</ele>
        <time>2026-08-21T16:40:19.000Z</time>
        <extensions>
          <ns3:TrackPointExtension>
            <ns3:hr>122</ns3:hr>
            <ns3:cad>61</ns3:cad>
          </ns3:TrackPointExtension>
        </extensions>
      </trkpt>
      <trkpt lat="45.32801731489598751068115234375" lon="-70.898424200713634490966796875">
        <ele>583.5999755859375</ele>
        <time>2026-08-21T16:40:20.000Z</time>
        <extensions>
          <ns3:TrackPointExtension>
            <ns3:hr>122</ns3:hr>
            <ns3:cad>62</ns3:cad>
          </ns3:TrackPointExtension>
        </extensions>
      </trkpt>
      <trkpt lat="45.3280152194201946258544921875" lon="-70.89844976551830768585205078125">
        <ele>583.5999755859375</ele>
        <time>2026-08-21T16:40:21.000Z</time>
        <extensions>
          <ns3:TrackPointExtension>
            <ns3:hr>123</ns3:hr>
            <ns3:cad>62</ns3:cad>
          </ns3:TrackPointExtension>
        </extensions>
      </trkpt>
      <trkpt lat="45.3280135430395603179931640625" lon="-70.89847759343683719635009765625">
        <ele>583.5999755859375</ele>
        <time>2026-08-21T16:40:22.000Z</time>
        <extensions>
          <ns3:TrackPointExtension>
            <ns3:hr>123</ns3:hr>
            <ns3:cad>62</ns3:cad>
          </ns3:TrackPointExtension>
        </extensions>
      </trkpt>
      <trkpt lat="45.328012369573116302490234375" lon="-70.89850575663149356842041015625">
        <ele>583.4000244140625</ele>
        <time>2026-08-21T16:40:23.000Z</time>
        <extensions>
          <ns3:TrackPointExtension>
            <ns3:hr>123</ns3:hr>
            <ns3:cad>61</ns3:cad>
          </ns3:TrackPointExtension>
        </extensions>
      </trkpt>
      <trkpt lat="45.3280061669647693634033203125" lon="-70.8985262922942638397216796875">
        <ele>583.4000244140625</ele>
        <time>2026-08-21T16:40:24.000Z</time>
        <extensions>
          <ns3:TrackPointExtension>
            <ns3:hr>123</ns3:hr>
            <ns3:cad>61</ns3:cad>
          </ns3:TrackPointExtension>
        </extensions>
      </trkpt>
      <trkpt lat="45.3280028142035007476806640625" lon="-70.89854481630027294158935546875">
        <ele>583.4000244140625</ele>
        <time>2026-08-21T16:40:25.000Z</time>
        <extensions>
          <ns3:TrackPointExtension>
            <ns3:hr>124</ns3:hr>
            <ns3:cad>61</ns3:cad>
          </ns3:TrackPointExtension>
        </extensions>
      </trkpt>
      <trkpt lat="45.32800323329865932464599609375" lon="-70.8985688723623752593994140625">
        <ele>583.4000244140625</ele>
        <time>2026-08-21T16:40:26.000Z</time>
        <extensions>
          <ns3:TrackPointExtension>
            <ns3:hr>125</ns3:hr>
            <ns3:cad>61</ns3:cad>
          </ns3:TrackPointExtension>
        </extensions>
      </trkpt>
      <trkpt lat="45.32800071872770786285400390625" lon="-70.898591838777065277099609375">
        <ele>583.4000244140625</ele>
        <time>2026-08-21T16:40:27.000Z</time>
        <extensions>
          <ns3:TrackPointExtension>
            <ns3:hr>126</ns3:hr>
            <ns3:cad>59</ns3:cad>
          </ns3:TrackPointExtension>
        </extensions>
      </trkpt>
      <trkpt lat="45.32800038345158100128173828125" lon="-70.898616313934326171875">
        <ele>583.5999755859375</ele>
        <time>2026-08-21T16:40:28.000Z</time>
        <extensions>
          <ns3:TrackPointExtension>
            <ns3:hr>126</ns3:hr>
            <ns3:cad>59</ns3:cad>
          </ns3:TrackPointExtension>
        </extensions>
      </trkpt>
      <trkpt lat="45.3279987908899784088134765625" lon="-70.89864305220544338226318359375">
        <ele>583.4000244140625</ele>
        <time>2026-08-21T16:40:29.000Z</time>
        <extensions>
          <ns3:TrackPointExtension>
            <ns3:hr>126</ns3:hr>
            <ns3:cad>59</ns3:cad>
          </ns3:TrackPointExtension>
        </extensions>
      </trkpt>
      <trkpt lat="45.32799602486193180084228515625" lon="-70.89866928756237030029296875">
        <ele>583.4000244140625</ele>
        <time>2026-08-21T16:40:30.000Z</time>
        <extensions>
          <ns3:TrackPointExtension>
            <ns3:hr>126</ns3:hr>
            <ns3:cad>58</ns3:cad>
          </ns3:TrackPointExtension>
        </extensions>
      </trkpt>
      <trkpt lat="45.32799568958580493927001953125" lon="-70.89869099669158458709716796875">
        <ele>583.4000244140625</ele>
        <time>2026-08-21T16:40:31.000Z</time>
        <extensions>
          <ns3:TrackPointExtension>
            <ns3:hr>126</ns3:hr>
            <ns3:cad>58</ns3:cad>
          </ns3:TrackPointExtension>
        </extensions>
      </trkpt>
      <trkpt lat="45.327993594110012054443359375" lon="-70.89871010743081569671630859375">
        <ele>583.20001220703125</ele>
        <time>2026-08-21T16:40:32.000Z</time>
        <extensions>
          <ns3:TrackPointExtension>
            <ns3:hr>125</ns3:hr>
            <ns3:cad>58</ns3:cad>
          </ns3:TrackPointExtension>
        </extensions>
      </trkpt>
      <trkpt lat="45.3279937617480754852294921875" lon="-70.89873324148356914520263671875">
        <ele>583.20001220703125</ele>
        <time>2026-08-21T16:40:33.000Z</time>
        <extensions>
          <ns3:TrackPointExtension>
            <ns3:hr>126</ns3:hr>
            <ns3:cad>58</ns3:cad>
          </ns3:TrackPointExtension>
        </extensions>
      </trkpt>
      <trkpt lat="45.3279971145093441009521484375" lon="-70.89875184930860996246337890625">
        <ele>583.20001220703125</ele>
        <time>2026-08-21T16:40:34.000Z</time>
        <extensions>
          <ns3:TrackPointExtension>
            <ns3:hr>127</ns3:hr>
            <ns3:cad>59</ns3:cad>
          </ns3:TrackPointExtension>
        </extensions>
      </trkpt>
      <trkpt lat="45.32799602486193180084228515625" lon="-70.89877431280910968780517578125">
        <ele>583.20001220703125</ele>
        <time>2026-08-21T16:40:35.000Z</time>
        <extensions>
          <ns3:TrackPointExtension>
            <ns3:hr>128</ns3:hr>
            <ns3:cad>59</ns3:cad>
          </ns3:TrackPointExtension>
        </extensions>
      </trkpt>
      <trkpt lat="45.3279994614422321319580078125" lon="-70.89879778213798999786376953125">
        <ele>583.20001220703125</ele>
        <time>2026-08-21T16:40:36.000Z</time>
        <extensions>
          <ns3:TrackPointExtension>
            <ns3:hr>128</ns3:hr>
            <ns3:cad>59</ns3:cad>
          </ns3:TrackPointExtension>
        </extensions>
      </trkpt>
      <trkpt lat="45.32799920998513698577880859375" lon="-70.8988196589052677154541015625">
        <ele>583.4000244140625</ele>
        <time>2026-08-21T16:40:37.000Z</time>
        <extensions>
          <ns3:TrackPointExtension>
            <ns3:hr>128</ns3:hr>
            <ns3:cad>58</ns3:cad>
          </ns3:TrackPointExtension>
        </extensions>
      </trkpt>
      <trkpt lat="45.3279977850615978240966796875" lon="-70.89883952401578426361083984375">
        <ele>583.4000244140625</ele>
        <time>2026-08-21T16:40:38.000Z</time>
        <extensions>
          <ns3:TrackPointExtension>
            <ns3:hr>128</ns3:hr>
            <ns3:cad>58</ns3:cad>
          </ns3:TrackPointExtension>
        </extensions>
      </trkpt>
      <trkpt lat="45.32799501903355121612548828125" lon="-70.89885947294533252716064453125">
        <ele>583.4000244140625</ele>
        <time>2026-08-21T16:40:39.000Z</time>
        <extensions>
          <ns3:TrackPointExtension>
            <ns3:hr>127</ns3:hr>
            <ns3:cad>59</ns3:cad>
          </ns3:TrackPointExtension>
        </extensions>
      </trkpt>
      <trkpt lat="45.3279944323003292083740234375" lon="-70.89888126589357852935791015625">
        <ele>583.20001220703125</ele>
        <time>2026-08-21T16:40:40.000Z</time>
        <extensions>
          <ns3:TrackPointExtension>
            <ns3:hr>128</ns3:hr>
            <ns3:cad>57</ns3:cad>
          </ns3:TrackPointExtension>
        </extensions>
      </trkpt>
      <trkpt lat="45.32799267210066318511962890625" lon="-70.8989031426608562469482421875">
        <ele>583.20001220703125</ele>
        <time>2026-08-21T16:40:41.000Z</time>
        <extensions>
          <ns3:TrackPointExtension>
            <ns3:hr>128</ns3:hr>
            <ns3:cad>57</ns3:cad>
          </ns3:TrackPointExtension>
        </extensions>
      </trkpt>
      <trkpt lat="45.3279899060726165771484375" lon="-70.898927785456180572509765625">
        <ele>583.20001220703125</ele>
        <time>2026-08-21T16:40:42.000Z</time>
        <extensions>
          <ns3:TrackPointExtension>
            <ns3:hr>127</ns3:hr>
            <ns3:cad>57</ns3:cad>
          </ns3:TrackPointExtension>
        </extensions>
      </trkpt>
      <trkpt lat="45.32799049280583858489990234375" lon="-70.89895737357437610626220703125">
        <ele>583</ele>
        <time>2026-08-21T16:40:43.000Z</time>
        <extensions>
          <ns3:TrackPointExtension>
            <ns3:hr>127</ns3:hr>
            <ns3:cad>57</ns3:cad>
          </ns3:TrackPointExtension>
        </extensions>
      </trkpt>
      <trkpt lat="45.32798395492136478424072265625" lon="-70.89897396974265575408935546875">
        <ele>583</ele>
        <time>2026-08-21T16:40:44.000Z</time>
        <extensions>
          <ns3:TrackPointExtension>
            <ns3:hr>127</ns3:hr>
            <ns3:cad>58</ns3:cad>
          </ns3:TrackPointExtension>
        </extensions>
      </trkpt>
      <trkpt lat="45.32797791995108127593994140625" lon="-70.89899240992963314056396484375">
        <ele>582.79998779296875</ele>
        <time>2026-08-21T16:40:45.000Z</time>
        <extensions>
          <ns3:TrackPointExtension>
            <ns3:hr>125</ns3:hr>
            <ns3:cad>58</ns3:cad>
          </ns3:TrackPointExtension>
        </extensions>
      </trkpt>
      <trkpt lat="45.32797657884657382965087890625" lon="-70.89901529252529144287109375">
        <ele>582.79998779296875</ele>
        <time>2026-08-21T16:40:46.000Z</time>
        <extensions>
          <ns3:TrackPointExtension>
            <ns3:hr>124</ns3:hr>
            <ns3:cad>58</ns3:cad>
          </ns3:TrackPointExtension>
        </extensions>
      </trkpt>
      <trkpt lat="45.3279739804565906524658203125" lon="-70.89904136024415493011474609375">
        <ele>582.5999755859375</ele>
        <time>2026-08-21T16:40:47.000Z</time>
        <extensions>
          <ns3:TrackPointExtension>
            <ns3:hr>122</ns3:hr>
            <ns3:cad>58</ns3:cad>
          </ns3:TrackPointExtension>
        </extensions>
      </trkpt>
      <trkpt lat="45.32796970568597316741943359375" lon="-70.8990630693733692169189453125">
        <ele>582.5999755859375</ele>
        <time>2026-08-21T16:40:48.000Z</time>
        <extensions>
          <ns3:TrackPointExtension>
            <ns3:hr>120</ns3:hr>
            <ns3:cad>58</ns3:cad>
          </ns3:TrackPointExtension>
        </extensions>
      </trkpt>
      <trkpt lat="45.32796853221952915191650390625" lon="-70.89908394031226634979248046875">
        <ele>582.4000244140625</ele>
        <time>2026-08-21T16:40:49.000Z</time>
        <extensions>
          <ns3:TrackPointExtension>
            <ns3:hr>119</ns3:hr>
            <ns3:cad>61</ns3:cad>
          </ns3:TrackPointExtension>
        </extensions>
      </trkpt>
      <trkpt lat="45.32796417362987995147705078125" lon="-70.89910824783146381378173828125">
        <ele>582.20001220703125</ele>
        <time>2026-08-21T16:40:50.000Z</time>
        <extensions>
          <ns3:TrackPointExtension>
            <ns3:hr>119</ns3:hr>
            <ns3:cad>61</ns3:cad>
          </ns3:TrackPointExtension>
        </extensions>
      </trkpt>
      <trkpt lat="45.32795880921185016632080078125" lon="-70.8991299569606781005859375">
        <ele>582.20001220703125</ele>
        <time>2026-08-21T16:40:51.000Z</time>
        <extensions>
          <ns3:TrackPointExtension>
            <ns3:hr>118</ns3:hr>
            <ns3:cad>60</ns3:cad>
          </ns3:TrackPointExtension>
        </extensions>
      </trkpt>
      <trkpt lat="45.3279531933367252349853515625" lon="-70.89915619231760501861572265625">
        <ele>582</ele>
        <time>2026-08-21T16:40:52.000Z</time>
        <extensions>
          <ns3:TrackPointExtension>
            <ns3:hr>118</ns3:hr>
            <ns3:cad>60</ns3:cad>
          </ns3:TrackPointExtension>
        </extensions>
      </trkpt>
      <trkpt lat="45.32795059494674205780029296875" lon="-70.89918737299740314483642578125">
        <ele>582</ele>
        <time>2026-08-21T16:40:53.000Z</time>
        <extensions>
          <ns3:TrackPointExtension>
            <ns3:hr>118</ns3:hr>
            <ns3:cad>60</ns3:cad>
          </ns3:TrackPointExtension>
        </extensions>
      </trkpt>
      <trkpt lat="45.327945984899997711181640625" lon="-70.89921385981142520904541015625">
        <ele>582</ele>
        <time>2026-08-21T16:40:54.000Z</time>
        <extensions>
          <ns3:TrackPointExtension>
            <ns3:hr>118</ns3:hr>
            <ns3:cad>62</ns3:cad>
          </ns3:TrackPointExtension>
        </extensions>
      </trkpt>
      <trkpt lat="45.32794506289064884185791015625" lon="-70.89923749677836894989013671875">
        <ele>582</ele>
        <time>2026-08-21T16:40:55.000Z</time>
        <extensions>
          <ns3:TrackPointExtension>
            <ns3:hr>118</ns3:hr>
            <ns3:cad>62</ns3:cad>
          </ns3:TrackPointExtension>
        </extensions>
      </trkpt>
      <trkpt lat="45.3279389441013336181640625" lon="-70.899267084896564483642578125">
        <ele>582</ele>
        <time>2026-08-21T16:40:56.000Z</time>
        <extensions>
          <ns3:TrackPointExtension>
            <ns3:hr>118</ns3:hr>
            <ns3:cad>62</ns3:cad>
          </ns3:TrackPointExtension>
        </extensions>
      </trkpt>
      <trkpt lat="45.3279360942542552947998046875" lon="-70.899285860359668731689453125">
        <ele>582</ele>
        <time>2026-08-21T16:40:57.000Z</time>
        <extensions>
          <ns3:TrackPointExtension>
            <ns3:hr>119</ns3:hr>
            <ns3:cad>62</ns3:cad>
          </ns3:TrackPointExtension>
        </extensions>
      </trkpt>
      <trkpt lat="45.32793047837913036346435546875" lon="-70.89930807240307331085205078125">
        <ele>581.79998779296875</ele>
        <time>2026-08-21T16:40:58.000Z</time>
        <extensions>
          <ns3:TrackPointExtension>
            <ns3:hr>119</ns3:hr>
            <ns3:cad>62</ns3:cad>
          </ns3:TrackPointExtension>
        </extensions>
      </trkpt>
      <trkpt lat="45.3279250301420688629150390625" lon="-70.89933405630290508270263671875">
        <ele>581.79998779296875</ele>
        <time>2026-08-21T16:40:59.000Z</time>
        <extensions>
          <ns3:TrackPointExtension>
            <ns3:hr>121</ns3:hr>
            <ns3:cad>62</ns3:cad>
          </ns3:TrackPointExtension>
        </extensions>
      </trkpt>
      <trkpt lat="45.32791807316243648529052734375" lon="-70.89935216121375560760498046875">
        <ele>581.79998779296875</ele>
        <time>2026-08-21T16:41:00.000Z</time>
        <extensions>
          <ns3:TrackPointExtension>
            <ns3:hr>122</ns3:hr>
            <ns3:cad>62</ns3:cad>
          </ns3:TrackPointExtension>
        </extensions>
      </trkpt>
      <trkpt lat="45.32791120000183582305908203125" lon="-70.8993755467236042022705078125">
        <ele>581.79998779296875</ele>
        <time>2026-08-21T16:41:01.000Z</time>
        <extensions>
          <ns3:TrackPointExtension>
            <ns3:hr>122</ns3:hr>
            <ns3:cad>62</ns3:cad>
          </ns3:TrackPointExtension>
        </extensions>
      </trkpt>
      <trkpt lat="45.32790885306894779205322265625" lon="-70.8994008600711822509765625">
        <ele>581.79998779296875</ele>
        <time>2026-08-21T16:41:02.000Z</time>
        <extensions>
          <ns3:TrackPointExtension>
            <ns3:hr>122</ns3:hr>
            <ns3:cad>62</ns3:cad>
          </ns3:TrackPointExtension>
        </extensions>
      </trkpt>
      <trkpt lat="45.32790214754641056060791015625" lon="-70.899424664676189422607421875">
        <ele>581.79998779296875</ele>
        <time>2026-08-21T16:41:03.000Z</time>
        <extensions>
          <ns3:TrackPointExtension>
            <ns3:hr>123</ns3:hr>
            <ns3:cad>0</ns3:cad>
          </ns3:TrackPointExtension>
        </extensions>
      </trkpt>
      <trkpt lat="45.32789477147161960601806640625" lon="-70.8994446136057376861572265625">
        <ele>581.5999755859375</ele>
        <time>2026-08-21T16:41:04.000Z</time>
        <extensions>
          <ns3:TrackPointExtension>
            <ns3:hr>123</ns3:hr>
            <ns3:cad>0</ns3:cad>
          </ns3:TrackPointExtension>
        </extensions>
      </trkpt>
      <trkpt lat="45.32789074815809726715087890625" lon="-70.899472273886203765869140625">
        <ele>581.5999755859375</ele>
        <time>2026-08-21T16:41:05.000Z</time>
        <extensions>
          <ns3:TrackPointExtension>
            <ns3:hr>123</ns3:hr>
            <ns3:cad>0</ns3:cad>
          </ns3:TrackPointExtension>
        </extensions>
      </trkpt>
      <trkpt lat="45.32788890413939952850341796875" lon="-70.89949515648186206817626953125">
        <ele>581.4000244140625</ele>
        <time>2026-08-21T16:41:06.000Z</time>
        <extensions>
          <ns3:TrackPointExtension>
            <ns3:hr>123</ns3:hr>
            <ns3:cad>0</ns3:cad>
          </ns3:TrackPointExtension>
        </extensions>
      </trkpt>
      <trkpt lat="45.327886641025543212890625" lon="-70.8995163626968860626220703125">
        <ele>581.4000244140625</ele>
        <time>2026-08-21T16:41:07.000Z</time>
        <extensions>
          <ns3:TrackPointExtension>
            <ns3:hr>123</ns3:hr>
            <ns3:cad>0</ns3:cad>
          </ns3:TrackPointExtension>
        </extensions>
      </trkpt>
      <trkpt lat="45.32788320444524288177490234375" lon="-70.8995401673018932342529296875">
        <ele>581.4000244140625</ele>
        <time>2026-08-21T16:41:08.000Z</time>
        <extensions>
          <ns3:TrackPointExtension>
            <ns3:hr>124</ns3:hr>
            <ns3:cad>59</ns3:cad>
          </ns3:TrackPointExtension>
        </extensions>
      </trkpt>
      <trkpt lat="45.32787867821753025054931640625" lon="-70.89956170879304409027099609375">
        <ele>581.4000244140625</ele>
        <time>2026-08-21T16:41:09.000Z</time>
        <extensions>
          <ns3:TrackPointExtension>
            <ns3:hr>125</ns3:hr>
            <ns3:cad>59</ns3:cad>
          </ns3:TrackPointExtension>
        </extensions>
      </trkpt>
      <trkpt lat="45.32787348143756389617919921875" lon="-70.899582915008068084716796875">
        <ele>581.4000244140625</ele>
        <time>2026-08-21T16:41:10.000Z</time>
        <extensions>
          <ns3:TrackPointExtension>
            <ns3:hr>125</ns3:hr>
            <ns3:cad>59</ns3:cad>
          </ns3:TrackPointExtension>
        </extensions>
      </trkpt>
      <trkpt lat="45.327870547771453857421875" lon="-70.8996042050421237945556640625">
        <ele>581.4000244140625</ele>
        <time>2026-08-21T16:41:11.000Z</time>
        <extensions>
          <ns3:TrackPointExtension>
            <ns3:hr>126</ns3:hr>
            <ns3:cad>59</ns3:cad>
          </ns3:TrackPointExtension>
        </extensions>
      </trkpt>
      <trkpt lat="45.3278720565140247344970703125" lon="-70.8996256627142429351806640625">
        <ele>581.20001220703125</ele>
        <time>2026-08-21T16:41:12.000Z</time>
        <extensions>
          <ns3:TrackPointExtension>
            <ns3:hr>127</ns3:hr>
            <ns3:cad>59</ns3:cad>
          </ns3:TrackPointExtension>
        </extensions>
      </trkpt>
      <trkpt lat="45.32786895520985126495361328125" lon="-70.899648629128932952880859375">
        <ele>581.20001220703125</ele>
        <time>2026-08-21T16:41:13.000Z</time>
        <extensions>
          <ns3:TrackPointExtension>
            <ns3:hr>128</ns3:hr>
            <ns3:cad>58</ns3:cad>
          </ns3:TrackPointExtension>
        </extensions>
      </trkpt>
      <trkpt lat="45.3278693743050098419189453125" lon="-70.89967000298202037811279296875">
        <ele>581.20001220703125</ele>
        <time>2026-08-21T16:41:14.000Z</time>
        <extensions>
          <ns3:TrackPointExtension>
            <ns3:hr>128</ns3:hr>
            <ns3:cad>58</ns3:cad>
          </ns3:TrackPointExtension>
        </extensions>
      </trkpt>
      <trkpt lat="45.3278687037527561187744140625" lon="-70.89969028718769550323486328125">
        <ele>581.20001220703125</ele>
        <time>2026-08-21T16:41:15.000Z</time>
        <extensions>
          <ns3:TrackPointExtension>
            <ns3:hr>128</ns3:hr>
            <ns3:cad>59</ns3:cad>
          </ns3:TrackPointExtension>
        </extensions>
      </trkpt>
      <trkpt lat="45.327866189181804656982421875" lon="-70.89971258305013179779052734375">
        <ele>581.20001220703125</ele>
        <time>2026-08-21T16:41:16.000Z</time>
        <extensions>
          <ns3:TrackPointExtension>
            <ns3:hr>128</ns3:hr>
            <ns3:cad>59</ns3:cad>
          </ns3:TrackPointExtension>
        </extensions>
      </trkpt>
      <trkpt lat="45.32786610536277294158935546875" lon="-70.89973504655063152313232421875">
        <ele>581.20001220703125</ele>
        <time>2026-08-21T16:41:17.000Z</time>
        <extensions>
          <ns3:TrackPointExtension>
            <ns3:hr>128</ns3:hr>
            <ns3:cad>59</ns3:cad>
          </ns3:TrackPointExtension>
        </extensions>
      </trkpt>
      <trkpt lat="45.32786224968731403350830078125" lon="-70.899754576385021209716796875">
        <ele>581.20001220703125</ele>
        <time>2026-08-21T16:41:18.000Z</time>
        <extensions>
          <ns3:TrackPointExtension>
            <ns3:hr>128</ns3:hr>
            <ns3:cad>59</ns3:cad>
          </ns3:TrackPointExtension>
        </extensions>
      </trkpt>
      <trkpt lat="45.32786057330667972564697265625" lon="-70.899777375161647796630859375">
        <ele>581.20001220703125</ele>
        <time>2026-08-21T16:41:19.000Z</time>
        <extensions>
          <ns3:TrackPointExtension>
            <ns3:hr>128</ns3:hr>
            <ns3:cad>59</ns3:cad>
          </ns3:TrackPointExtension>
        </extensions>
      </trkpt>
      <trkpt lat="45.3278557956218719482421875" lon="-70.89980042539536952972412109375">
        <ele>581.20001220703125</ele>
        <time>2026-08-21T16:41:20.000Z</time>
        <extensions>
          <ns3:TrackPointExtension>
            <ns3:hr>128</ns3:hr>
            <ns3:cad>59</ns3:cad>
          </ns3:TrackPointExtension>
        </extensions>
      </trkpt>
      <trkpt lat="45.32784934155642986297607421875" lon="-70.899821631610393524169921875">
        <ele>581.20001220703125</ele>
        <time>2026-08-21T16:41:21.000Z</time>
        <extensions>
          <ns3:TrackPointExtension>
            <ns3:hr>128</ns3:hr>
            <ns3:cad>59</ns3:cad>
          </ns3:TrackPointExtension>
        </extensions>
      </trkpt>
      <trkpt lat="45.32784598879516124725341796875" lon="-70.899844430387020111083984375">
        <ele>581.20001220703125</ele>
        <time>2026-08-21T16:41:22.000Z</time>
        <extensions>
          <ns3:TrackPointExtension>
            <ns3:hr>128</ns3:hr>
            <ns3:cad>59</ns3:cad>
          </ns3:TrackPointExtension>
        </extensions>
      </trkpt>
      <trkpt lat="45.3278412111103534698486328125" lon="-70.899868905544281005859375">
        <ele>581.4000244140625</ele>
        <time>2026-08-21T16:41:23.000Z</time>
        <extensions>
          <ns3:TrackPointExtension>
            <ns3:hr>127</ns3:hr>
            <ns3:cad>59</ns3:cad>
          </ns3:TrackPointExtension>
        </extensions>
      </trkpt>
      <trkpt lat="45.327838361263275146484375" lon="-70.8998992480337619781494140625">
        <ele>581.4000244140625</ele>
        <time>2026-08-21T16:41:24.000Z</time>
        <extensions>
          <ns3:TrackPointExtension>
            <ns3:hr>127</ns3:hr>
            <ns3:cad>59</ns3:cad>
          </ns3:TrackPointExtension>
        </extensions>
      </trkpt>
      <trkpt lat="45.32783442176878452301025390625" lon="-70.8999200351536273956298828125">
        <ele>581.4000244140625</ele>
        <time>2026-08-21T16:41:25.000Z</time>
        <extensions>
          <ns3:TrackPointExtension>
            <ns3:hr>127</ns3:hr>
            <ns3:cad>59</ns3:cad>
          </ns3:TrackPointExtension>
        </extensions>
      </trkpt>
      <trkpt lat="45.3278264589607715606689453125" lon="-70.89994241483509540557861328125">
        <ele>581.4000244140625</ele>
        <time>2026-08-21T16:41:26.000Z</time>
        <extensions>
          <ns3:TrackPointExtension>
            <ns3:hr>127</ns3:hr>
            <ns3:cad>59</ns3:cad>
          </ns3:TrackPointExtension>
        </extensions>
      </trkpt>
      <trkpt lat="45.32782319001853466033935546875" lon="-70.8999666385352611541748046875">
        <ele>581.4000244140625</ele>
        <time>2026-08-21T16:41:27.000Z</time>
        <extensions>
          <ns3:TrackPointExtension>
            <ns3:hr>127</ns3:hr>
            <ns3:cad>59</ns3:cad>
          </ns3:TrackPointExtension>
        </extensions>
      </trkpt>
      <trkpt lat="45.32782000489532947540283203125" lon="-70.89999027550220489501953125">
        <ele>581.4000244140625</ele>
        <time>2026-08-21T16:41:28.000Z</time>
        <extensions>
          <ns3:TrackPointExtension>
            <ns3:hr>127</ns3:hr>
            <ns3:cad>57</ns3:cad>
          </ns3:TrackPointExtension>
        </extensions>
      </trkpt>
      <trkpt lat="45.3278184123337268829345703125" lon="-70.90001382865011692047119140625">
        <ele>581.4000244140625</ele>
        <time>2026-08-21T16:41:29.000Z</time>
        <extensions>
          <ns3:TrackPointExtension>
            <ns3:hr>127</ns3:hr>
            <ns3:cad>57</ns3:cad>
          </ns3:TrackPointExtension>
        </extensions>
      </trkpt>
      <trkpt lat="45.32782017253339290618896484375" lon="-70.90004123747348785400390625">
        <ele>581.4000244140625</ele>
        <time>2026-08-21T16:41:30.000Z</time>
        <extensions>
          <ns3:TrackPointExtension>
            <ns3:hr>126</ns3:hr>
            <ns3:cad>57</ns3:cad>
          </ns3:TrackPointExtension>
        </extensions>
      </trkpt>
      <trkpt lat="45.32782159745693206787109375" lon="-70.9000665508210659027099609375">
        <ele>581.4000244140625</ele>
        <time>2026-08-21T16:41:31.000Z</time>
        <extensions>
          <ns3:TrackPointExtension>
            <ns3:hr>126</ns3:hr>
            <ns3:cad>58</ns3:cad>
          </ns3:TrackPointExtension>
        </extensions>
      </trkpt>
      <trkpt lat="45.32782369293272495269775390625" lon="-70.9000923670828342437744140625">
        <ele>581.4000244140625</ele>
        <time>2026-08-21T16:41:32.000Z</time>
        <extensions>
          <ns3:TrackPointExtension>
            <ns3:hr>126</ns3:hr>
            <ns3:cad>59</ns3:cad>
          </ns3:TrackPointExtension>
        </extensions>
      </trkpt>
      <trkpt lat="45.32782562077045440673828125" lon="-70.9001168422400951385498046875">
        <ele>581.4000244140625</ele>
        <time>2026-08-21T16:41:33.000Z</time>
        <extensions>
          <ns3:TrackPointExtension>
            <ns3:hr>126</ns3:hr>
            <ns3:cad>59</ns3:cad>
          </ns3:TrackPointExtension>
        </extensions>
      </trkpt>
      <trkpt lat="45.32782888971269130706787109375" lon="-70.90014140121638774871826171875">
        <ele>581.4000244140625</ele>
        <time>2026-08-21T16:41:34.000Z</time>
        <extensions>
          <ns3:TrackPointExtension>
            <ns3:hr>126</ns3:hr>
            <ns3:cad>59</ns3:cad>
          </ns3:TrackPointExtension>
        </extensions>
      </trkpt>
      <trkpt lat="45.3278351761400699615478515625" lon="-70.90016453526914119720458984375">
        <ele>581.4000244140625</ele>
        <time>2026-08-21T16:41:35.000Z</time>
        <extensions>
          <ns3:TrackPointExtension>
            <ns3:hr>126</ns3:hr>
            <ns3:cad>58</ns3:cad>
          </ns3:TrackPointExtension>
        </extensions>
      </trkpt>
      <trkpt lat="45.32783844508230686187744140625" lon="-70.900185741484165191650390625">
        <ele>581.4000244140625</ele>
        <time>2026-08-21T16:41:36.000Z</time>
        <extensions>
          <ns3:TrackPointExtension>
            <ns3:hr>126</ns3:hr>
            <ns3:cad>58</ns3:cad>
          </ns3:TrackPointExtension>
        </extensions>
      </trkpt>
      <trkpt lat="45.32783810980618000030517578125" lon="-70.900213234126567840576171875">
        <ele>581.4000244140625</ele>
        <time>2026-08-21T16:41:37.000Z</time>
        <extensions>
          <ns3:TrackPointExtension>
            <ns3:hr>125</ns3:hr>
            <ns3:cad>58</ns3:cad>
          </ns3:TrackPointExtension>
        </extensions>
      </trkpt>
      <trkpt lat="45.32783978618681430816650390625" lon="-70.90023435652256011962890625">
        <ele>581.4000244140625</ele>
        <time>2026-08-21T16:41:38.000Z</time>
        <extensions>
          <ns3:TrackPointExtension>
            <ns3:hr>125</ns3:hr>
            <ns3:cad>58</ns3:cad>
          </ns3:TrackPointExtension>
        </extensions>
      </trkpt>
      <trkpt lat="45.327843390405178070068359375" lon="-70.90025740675628185272216796875">
        <ele>581.4000244140625</ele>
        <time>2026-08-21T16:41:39.000Z</time>
        <extensions>
          <ns3:TrackPointExtension>
            <ns3:hr>125</ns3:hr>
            <ns3:cad>58</ns3:cad>
          </ns3:TrackPointExtension>
        </extensions>
      </trkpt>
      <trkpt lat="45.3278477489948272705078125" lon="-70.9002774395048618316650390625">
        <ele>581.4000244140625</ele>
        <time>2026-08-21T16:41:40.000Z</time>
        <extensions>
          <ns3:TrackPointExtension>
            <ns3:hr>125</ns3:hr>
            <ns3:cad>58</ns3:cad>
          </ns3:TrackPointExtension>
        </extensions>
      </trkpt>
      <trkpt lat="45.32784498296678066253662109375" lon="-70.9003045968711376190185546875">
        <ele>581.4000244140625</ele>
        <time>2026-08-21T16:41:41.000Z</time>
        <extensions>
          <ns3:TrackPointExtension>
            <ns3:hr>125</ns3:hr>
            <ns3:cad>58</ns3:cad>
          </ns3:TrackPointExtension>
        </extensions>
      </trkpt>
      <trkpt lat="45.32785051502287387847900390625" lon="-70.9003290720283985137939453125">
        <ele>581.4000244140625</ele>
        <time>2026-08-21T16:41:42.000Z</time>
        <extensions>
          <ns3:TrackPointExtension>
            <ns3:hr>125</ns3:hr>
            <ns3:cad>58</ns3:cad>
          </ns3:TrackPointExtension>
        </extensions>
      </trkpt>
      <trkpt lat="45.32785537652671337127685546875" lon="-70.900352038443088531494140625">
        <ele>581.4000244140625</ele>
        <time>2026-08-21T16:41:43.000Z</time>
        <extensions>
          <ns3:TrackPointExtension>
            <ns3:hr>124</ns3:hr>
            <ns3:cad>58</ns3:cad>
          </ns3:TrackPointExtension>
        </extensions>
      </trkpt>
      <trkpt lat="45.32785805873572826385498046875" lon="-70.90037492103874683380126953125">
        <ele>581.4000244140625</ele>
        <time>2026-08-21T16:41:44.000Z</time>
        <extensions>
          <ns3:TrackPointExtension>
            <ns3:hr>124</ns3:hr>
            <ns3:cad>58</ns3:cad>
          </ns3:TrackPointExtension>
        </extensions>
      </trkpt>
      <trkpt lat="45.3278633393347263336181640625" lon="-70.90039922855794429779052734375">
        <ele>581.5999755859375</ele>
        <time>2026-08-21T16:41:45.000Z</time>
        <extensions>
          <ns3:TrackPointExtension>
            <ns3:hr>124</ns3:hr>
            <ns3:cad>59</ns3:cad>
          </ns3:TrackPointExtension>
        </extensions>
      </trkpt>
      <trkpt lat="45.32786761410534381866455078125" lon="-70.9004222787916660308837890625">
        <ele>581.5999755859375</ele>
        <time>2026-08-21T16:41:46.000Z</time>
        <extensions>
          <ns3:TrackPointExtension>
            <ns3:hr>124</ns3:hr>
            <ns3:cad>59</ns3:cad>
          </ns3:TrackPointExtension>
        </extensions>
      </trkpt>
      <trkpt lat="45.327872894704341888427734375" lon="-70.90044683776795864105224609375">
        <ele>581.5999755859375</ele>
        <time>2026-08-21T16:41:47.000Z</time>
        <extensions>
          <ns3:TrackPointExtension>
            <ns3:hr>124</ns3:hr>
            <ns3:cad>59</ns3:cad>
          </ns3:TrackPointExtension>
        </extensions>
      </trkpt>
      <trkpt lat="45.3278780914843082427978515625" lon="-70.9004672057926654815673828125">
        <ele>581.79998779296875</ele>
        <time>2026-08-21T16:41:48.000Z</time>
        <extensions>
          <ns3:TrackPointExtension>
            <ns3:hr>123</ns3:hr>
            <ns3:cad>58</ns3:cad>
          </ns3:TrackPointExtension>
        </extensions>
      </trkpt>
      <trkpt lat="45.3278841264545917510986328125" lon="-70.90049025602638721466064453125">
        <ele>581.79998779296875</ele>
        <time>2026-08-21T16:41:49.000Z</time>
        <extensions>
          <ns3:TrackPointExtension>
            <ns3:hr>123</ns3:hr>
            <ns3:cad>58</ns3:cad>
          </ns3:TrackPointExtension>
        </extensions>
      </trkpt>
      <trkpt lat="45.327890329062938690185546875" lon="-70.9005104564130306243896484375">
        <ele>581.79998779296875</ele>
        <time>2026-08-21T16:41:50.000Z</time>
        <extensions>
          <ns3:TrackPointExtension>
            <ns3:hr>122</ns3:hr>
            <ns3:cad>58</ns3:cad>
          </ns3:TrackPointExtension>
        </extensions>
      </trkpt>
      <trkpt lat="45.3278945200145244598388671875" lon="-70.900534428656101226806640625">
        <ele>581.79998779296875</ele>
        <time>2026-08-21T16:41:51.000Z</time>
        <extensions>
          <ns3:TrackPointExtension>
            <ns3:hr>121</ns3:hr>
            <ns3:cad>58</ns3:cad>
          </ns3:TrackPointExtension>
        </extensions>
      </trkpt>
      <trkpt lat="45.3278995491564273834228515625" lon="-70.90055496431887149810791015625">
        <ele>582</ele>
        <time>2026-08-21T16:41:52.000Z</time>
        <extensions>
          <ns3:TrackPointExtension>
            <ns3:hr>121</ns3:hr>
            <ns3:cad>57</ns3:cad>
          </ns3:TrackPointExtension>
        </extensions>
      </trkpt>
      <trkpt lat="45.32790516503155231475830078125" lon="-70.9005781821906566619873046875">
        <ele>582</ele>
        <time>2026-08-21T16:41:53.000Z</time>
        <extensions>
          <ns3:TrackPointExtension>
            <ns3:hr>121</ns3:hr>
            <ns3:cad>57</ns3:cad>
          </ns3:TrackPointExtension>
        </extensions>
      </trkpt>
      <trkpt lat="45.3279072605073451995849609375" lon="-70.90060005895793437957763671875">
        <ele>582.20001220703125</ele>
        <time>2026-08-21T16:41:54.000Z</time>
        <extensions>
          <ns3:TrackPointExtension>
            <ns3:hr>120</ns3:hr>
            <ns3:cad>57</ns3:cad>
          </ns3:TrackPointExtension>
        </extensions>
      </trkpt>
      <trkpt lat="45.32791069708764553070068359375" lon="-70.9006231091916561126708984375">
        <ele>582.20001220703125</ele>
        <time>2026-08-21T16:41:55.000Z</time>
        <extensions>
          <ns3:TrackPointExtension>
            <ns3:hr>121</ns3:hr>
            <ns3:cad>57</ns3:cad>
          </ns3:TrackPointExtension>
        </extensions>
      </trkpt>
      <trkpt lat="45.32791036181151866912841796875" lon="-70.90064951218664646148681640625">
        <ele>582.4000244140625</ele>
        <time>2026-08-21T16:41:56.000Z</time>
        <extensions>
          <ns3:TrackPointExtension>
            <ns3:hr>121</ns3:hr>
            <ns3:cad>57</ns3:cad>
          </ns3:TrackPointExtension>
        </extensions>
      </trkpt>
      <trkpt lat="45.32791002653539180755615234375" lon="-70.90067155659198760986328125">
        <ele>582.4000244140625</ele>
        <time>2026-08-21T16:41:57.000Z</time>
        <extensions>
          <ns3:TrackPointExtension>
            <ns3:hr>122</ns3:hr>
            <ns3:cad>57</ns3:cad>
          </ns3:TrackPointExtension>
        </extensions>
      </trkpt>
      <trkpt lat="45.32790969125926494598388671875" lon="-70.90068739838898181915283203125">
        <ele>582.4000244140625</ele>
        <time>2026-08-21T16:41:58.000Z</time>
        <extensions>
          <ns3:TrackPointExtension>
            <ns3:hr>122</ns3:hr>
            <ns3:cad>57</ns3:cad>
          </ns3:TrackPointExtension>
        </extensions>
      </trkpt>
      <trkpt lat="45.3279109485447406768798828125" lon="-70.90070776641368865966796875">
        <ele>582.5999755859375</ele>
        <time>2026-08-21T16:41:59.000Z</time>
        <extensions>
          <ns3:TrackPointExtension>
            <ns3:hr>122</ns3:hr>
            <ns3:cad>57</ns3:cad>
          </ns3:TrackPointExtension>
        </extensions>
      </trkpt>
      <trkpt lat="45.3279094398021697998046875" lon="-70.90072654187679290771484375">
        <ele>582.5999755859375</ele>
        <time>2026-08-21T16:42:00.000Z</time>
        <extensions>
          <ns3:TrackPointExtension>
            <ns3:hr>122</ns3:hr>
            <ns3:cad>57</ns3:cad>
          </ns3:TrackPointExtension>
        </extensions>
      </trkpt>
      <trkpt lat="45.32790617085993289947509765625" lon="-70.900741629302501678466796875">
        <ele>582.5999755859375</ele>
        <time>2026-08-21T16:42:01.000Z</time>
        <extensions>
          <ns3:TrackPointExtension>
            <ns3:hr>122</ns3:hr>
            <ns3:cad>57</ns3:cad>
          </ns3:TrackPointExtension>
        </extensions>
      </trkpt>
      <trkpt lat="45.3279062546789646148681640625" lon="-70.90075931511819362640380859375">
        <ele>582.5999755859375</ele>
        <time>2026-08-21T16:42:02.000Z</time>
        <extensions>
          <ns3:TrackPointExtension>
            <ns3:hr>122</ns3:hr>
            <ns3:cad>57</ns3:cad>
          </ns3:TrackPointExtension>
        </extensions>
      </trkpt>
      <trkpt lat="45.327905081212520599365234375" lon="-70.900782532989978790283203125">
        <ele>582.79998779296875</ele>
        <time>2026-08-21T16:42:03.000Z</time>
        <extensions>
          <ns3:TrackPointExtension>
            <ns3:hr>123</ns3:hr>
            <ns3:cad>57</ns3:cad>
          </ns3:TrackPointExtension>
        </extensions>
      </trkpt>
      <trkpt lat="45.32790348865091800689697265625" lon="-70.900801979005336761474609375">
        <ele>582.79998779296875</ele>
        <time>2026-08-21T16:42:04.000Z</time>
        <extensions>
          <ns3:TrackPointExtension>
            <ns3:hr>123</ns3:hr>
            <ns3:cad>57</ns3:cad>
          </ns3:TrackPointExtension>
        </extensions>
      </trkpt>
      <trkpt lat="45.3279040753841400146484375" lon="-70.900823771953582763671875">
        <ele>582.79998779296875</ele>
        <time>2026-08-21T16:42:05.000Z</time>
        <extensions>
          <ns3:TrackPointExtension>
            <ns3:hr>123</ns3:hr>
            <ns3:cad>57</ns3:cad>
          </ns3:TrackPointExtension>
        </extensions>
      </trkpt>
      <trkpt lat="45.32790684141218662261962890625" lon="-70.90084631927311420440673828125">
        <ele>583</ele>
        <time>2026-08-21T16:42:06.000Z</time>
        <extensions>
          <ns3:TrackPointExtension>
            <ns3:hr>123</ns3:hr>
            <ns3:cad>57</ns3:cad>
          </ns3:TrackPointExtension>
        </extensions>
      </trkpt>
      <trkpt lat="45.32790633849799633026123046875" lon="-70.90086693875491619110107421875">
        <ele>583</ele>
        <time>2026-08-21T16:42:07.000Z</time>
        <extensions>
          <ns3:TrackPointExtension>
            <ns3:hr>124</ns3:hr>
            <ns3:cad>57</ns3:cad>
          </ns3:TrackPointExtension>
        </extensions>
      </trkpt>
      <trkpt lat="45.32790030352771282196044921875" lon="-70.90089024044573307037353515625">
        <ele>583</ele>
        <time>2026-08-21T16:42:08.000Z</time>
        <extensions>
          <ns3:TrackPointExtension>
            <ns3:hr>125</ns3:hr>
            <ns3:cad>57</ns3:cad>
          </ns3:TrackPointExtension>
        </extensions>
      </trkpt>
      <trkpt lat="45.327901057898998260498046875" lon="-70.90091429650783538818359375">
        <ele>583.20001220703125</ele>
        <time>2026-08-21T16:42:09.000Z</time>
        <extensions>
          <ns3:TrackPointExtension>
            <ns3:hr>125</ns3:hr>
            <ns3:cad>56</ns3:cad>
          </ns3:TrackPointExtension>
        </extensions>
      </trkpt>
      <trkpt lat="45.3279039077460765838623046875" lon="-70.90093575417995452880859375">
        <ele>583.20001220703125</ele>
        <time>2026-08-21T16:42:10.000Z</time>
        <extensions>
          <ns3:TrackPointExtension>
            <ns3:hr>126</ns3:hr>
            <ns3:cad>56</ns3:cad>
          </ns3:TrackPointExtension>
        </extensions>
      </trkpt>
      <trkpt lat="45.32790566794574260711669921875" lon="-70.90095545165240764617919921875">
        <ele>583.20001220703125</ele>
        <time>2026-08-21T16:42:11.000Z</time>
        <extensions>
          <ns3:TrackPointExtension>
            <ns3:hr>126</ns3:hr>
            <ns3:cad>57</ns3:cad>
          </ns3:TrackPointExtension>
        </extensions>
      </trkpt>
      <trkpt lat="45.3279054164886474609375" lon="-70.9009751491248607635498046875">
        <ele>583.20001220703125</ele>
        <time>2026-08-21T16:42:12.000Z</time>
        <extensions>
          <ns3:TrackPointExtension>
            <ns3:hr>127</ns3:hr>
            <ns3:cad>57</ns3:cad>
          </ns3:TrackPointExtension>
        </extensions>
      </trkpt>
      <trkpt lat="45.32790214754641056060791015625" lon="-70.90099534951150417327880859375">
        <ele>583.20001220703125</ele>
        <time>2026-08-21T16:42:13.000Z</time>
        <extensions>
          <ns3:TrackPointExtension>
            <ns3:hr>128</ns3:hr>
            <ns3:cad>57</ns3:cad>
          </ns3:TrackPointExtension>
        </extensions>
      </trkpt>
      <trkpt lat="45.327903740108013153076171875" lon="-70.901016555726528167724609375">
        <ele>583.4000244140625</ele>
        <time>2026-08-21T16:42:14.000Z</time>
        <extensions>
          <ns3:TrackPointExtension>
            <ns3:hr>128</ns3:hr>
            <ns3:cad>57</ns3:cad>
          </ns3:TrackPointExtension>
        </extensions>
      </trkpt>
      <trkpt lat="45.32790332101285457611083984375" lon="-70.9010435454547405242919921875">
        <ele>583.4000244140625</ele>
        <time>2026-08-21T16:42:15.000Z</time>
        <extensions>
          <ns3:TrackPointExtension>
            <ns3:hr>128</ns3:hr>
            <ns3:cad>57</ns3:cad>
          </ns3:TrackPointExtension>
        </extensions>
      </trkpt>
      <trkpt lat="45.3279025666415691375732421875" lon="-70.90106718242168426513671875">
        <ele>583.4000244140625</ele>
        <time>2026-08-21T16:42:16.000Z</time>
        <extensions>
          <ns3:TrackPointExtension>
            <ns3:hr>129</ns3:hr>
            <ns3:cad>57</ns3:cad>
          </ns3:TrackPointExtension>
        </extensions>
      </trkpt>
      <trkpt lat="45.32790164463222026824951171875" lon="-70.90109123848378658294677734375">
        <ele>583.4000244140625</ele>
        <time>2026-08-21T16:42:17.000Z</time>
        <extensions>
          <ns3:TrackPointExtension>
            <ns3:hr>129</ns3:hr>
            <ns3:cad>57</ns3:cad>
          </ns3:TrackPointExtension>
        </extensions>
      </trkpt>
      <trkpt lat="45.32790030352771282196044921875" lon="-70.90111705474555492401123046875">
        <ele>583.5999755859375</ele>
        <time>2026-08-21T16:42:18.000Z</time>
        <extensions>
          <ns3:TrackPointExtension>
            <ns3:hr>129</ns3:hr>
            <ns3:cad>57</ns3:cad>
          </ns3:TrackPointExtension>
        </extensions>
      </trkpt>
      <trkpt lat="45.32790047116577625274658203125" lon="-70.90114287100732326507568359375">
        <ele>583.5999755859375</ele>
        <time>2026-08-21T16:42:19.000Z</time>
        <extensions>
          <ns3:TrackPointExtension>
            <ns3:hr>128</ns3:hr>
            <ns3:cad>57</ns3:cad>
          </ns3:TrackPointExtension>
        </extensions>
      </trkpt>
      <trkpt lat="45.32790197990834712982177734375" lon="-70.90116441249847412109375">
        <ele>583.5999755859375</ele>
        <time>2026-08-21T16:42:20.000Z</time>
        <extensions>
          <ns3:TrackPointExtension>
            <ns3:hr>129</ns3:hr>
            <ns3:cad>57</ns3:cad>
          </ns3:TrackPointExtension>
        </extensions>
      </trkpt>
      <trkpt lat="45.327901057898998260498046875" lon="-70.90119048021733760833740234375">
        <ele>583.5999755859375</ele>
        <time>2026-08-21T16:42:21.000Z</time>
        <extensions>
          <ns3:TrackPointExtension>
            <ns3:hr>129</ns3:hr>
            <ns3:cad>57</ns3:cad>
          </ns3:TrackPointExtension>
        </extensions>
      </trkpt>
      <trkpt lat="45.327899046242237091064453125" lon="-70.901211015880107879638671875">
        <ele>583.79998779296875</ele>
        <time>2026-08-21T16:42:22.000Z</time>
        <extensions>
          <ns3:TrackPointExtension>
            <ns3:hr>129</ns3:hr>
            <ns3:cad>57</ns3:cad>
          </ns3:TrackPointExtension>
        </extensions>
      </trkpt>
      <trkpt lat="45.32789795659482479095458984375" lon="-70.9012336470186710357666015625">
        <ele>583.79998779296875</ele>
        <time>2026-08-21T16:42:23.000Z</time>
        <extensions>
          <ns3:TrackPointExtension>
            <ns3:hr>129</ns3:hr>
            <ns3:cad>57</ns3:cad>
          </ns3:TrackPointExtension>
        </extensions>
      </trkpt>
      <trkpt lat="45.3278955258429050445556640625" lon="-70.90125502087175846099853515625">
        <ele>583.79998779296875</ele>
        <time>2026-08-21T16:42:24.000Z</time>
        <extensions>
          <ns3:TrackPointExtension>
            <ns3:hr>129</ns3:hr>
            <ns3:cad>57</ns3:cad>
          </ns3:TrackPointExtension>
        </extensions>
      </trkpt>
      <trkpt lat="45.3278995491564273834228515625" lon="-70.9012795798480510711669921875">
        <ele>584</ele>
        <time>2026-08-21T16:42:25.000Z</time>
        <extensions>
          <ns3:TrackPointExtension>
            <ns3:hr>129</ns3:hr>
            <ns3:cad>57</ns3:cad>
          </ns3:TrackPointExtension>
        </extensions>
      </trkpt>
      <trkpt lat="45.32790164463222026824951171875" lon="-70.90129978023469448089599609375">
        <ele>584.20001220703125</ele>
        <time>2026-08-21T16:42:26.000Z</time>
        <extensions>
          <ns3:TrackPointExtension>
            <ns3:hr>129</ns3:hr>
            <ns3:cad>57</ns3:cad>
          </ns3:TrackPointExtension>
        </extensions>
      </trkpt>
      <trkpt lat="45.32790415920317173004150390625" lon="-70.901318304240703582763671875">
        <ele>584.20001220703125</ele>
        <time>2026-08-21T16:42:27.000Z</time>
        <extensions>
          <ns3:TrackPointExtension>
            <ns3:hr>128</ns3:hr>
            <ns3:cad>57</ns3:cad>
          </ns3:TrackPointExtension>
        </extensions>
      </trkpt>
      <trkpt lat="45.327906422317028045654296875" lon="-70.9013359062373638153076171875">
        <ele>584.4000244140625</ele>
        <time>2026-08-21T16:42:28.000Z</time>
        <extensions>
          <ns3:TrackPointExtension>
            <ns3:hr>128</ns3:hr>
            <ns3:cad>56</ns3:cad>
          </ns3:TrackPointExtension>
        </extensions>
      </trkpt>
      <trkpt lat="45.3279054164886474609375" lon="-70.9013600461184978485107421875">
        <ele>584.5999755859375</ele>
        <time>2026-08-21T16:42:29.000Z</time>
        <extensions>
          <ns3:TrackPointExtension>
            <ns3:hr>128</ns3:hr>
            <ns3:cad>56</ns3:cad>
          </ns3:TrackPointExtension>
        </extensions>
      </trkpt>
      <trkpt lat="45.32790617085993289947509765625" lon="-70.90138745494186878204345703125">
        <ele>584.5999755859375</ele>
        <time>2026-08-21T16:42:30.000Z</time>
        <extensions>
          <ns3:TrackPointExtension>
            <ns3:hr>128</ns3:hr>
            <ns3:cad>56</ns3:cad>
          </ns3:TrackPointExtension>
        </extensions>
      </trkpt>
      <trkpt lat="45.32790265046060085296630859375" lon="-70.9014086611568927764892578125">
        <ele>584.79998779296875</ele>
        <time>2026-08-21T16:42:31.000Z</time>
        <extensions>
          <ns3:TrackPointExtension>
            <ns3:hr>128</ns3:hr>
            <ns3:cad>56</ns3:cad>
          </ns3:TrackPointExtension>
        </extensions>
      </trkpt>
      <trkpt lat="45.327899716794490814208984375" lon="-70.90143389068543910980224609375">
        <ele>584.79998779296875</ele>
        <time>2026-08-21T16:42:32.000Z</time>
        <extensions>
          <ns3:TrackPointExtension>
            <ns3:hr>128</ns3:hr>
            <ns3:cad>56</ns3:cad>
          </ns3:TrackPointExtension>
        </extensions>
      </trkpt>
      <trkpt lat="45.32789326272904872894287109375" lon="-70.90145886875689029693603515625">
        <ele>584.79998779296875</ele>
        <time>2026-08-21T16:42:33.000Z</time>
        <extensions>
          <ns3:TrackPointExtension>
            <ns3:hr>128</ns3:hr>
            <ns3:cad>56</ns3:cad>
          </ns3:TrackPointExtension>
        </extensions>
      </trkpt>
      <trkpt lat="45.32788471318781375885009765625" lon="-70.90147487819194793701171875">
        <ele>584.79998779296875</ele>
        <time>2026-08-21T16:42:34.000Z</time>
        <extensions>
          <ns3:TrackPointExtension>
            <ns3:hr>128</ns3:hr>
            <ns3:cad>56</ns3:cad>
          </ns3:TrackPointExtension>
        </extensions>
      </trkpt>
      <trkpt lat="45.327880941331386566162109375" lon="-70.901490636169910430908203125">
        <ele>584.79998779296875</ele>
        <time>2026-08-21T16:42:35.000Z</time>
        <extensions>
          <ns3:TrackPointExtension>
            <ns3:hr>129</ns3:hr>
            <ns3:cad>56</ns3:cad>
          </ns3:TrackPointExtension>
        </extensions>
      </trkpt>
      <trkpt lat="45.32787180505692958831787109375" lon="-70.90150773525238037109375">
        <ele>584.79998779296875</ele>
        <time>2026-08-21T16:42:36.000Z</time>
        <extensions>
          <ns3:TrackPointExtension>
            <ns3:hr>129</ns3:hr>
            <ns3:cad>57</ns3:cad>
          </ns3:TrackPointExtension>
        </extensions>
      </trkpt>
      <trkpt lat="45.32786191441118717193603515625" lon="-70.90153212659060955047607421875">
        <ele>584.79998779296875</ele>
        <time>2026-08-21T16:42:37.000Z</time>
        <extensions>
          <ns3:TrackPointExtension>
            <ns3:hr>129</ns3:hr>
            <ns3:cad>57</ns3:cad>
          </ns3:TrackPointExtension>
        </extensions>
      </trkpt>
      <trkpt lat="45.3278531134128570556640625" lon="-70.90155308134853839874267578125">
        <ele>584.79998779296875</ele>
        <time>2026-08-21T16:42:38.000Z</time>
        <extensions>
          <ns3:TrackPointExtension>
            <ns3:hr>129</ns3:hr>
            <ns3:cad>57</ns3:cad>
          </ns3:TrackPointExtension>
        </extensions>
      </trkpt>
      <trkpt lat="45.3278492577373981475830078125" lon="-70.90157353319227695465087890625">
        <ele>584.5999755859375</ele>
        <time>2026-08-21T16:42:39.000Z</time>
        <extensions>
          <ns3:TrackPointExtension>
            <ns3:hr>129</ns3:hr>
            <ns3:cad>57</ns3:cad>
          </ns3:TrackPointExtension>
        </extensions>
      </trkpt>
      <trkpt lat="45.32785168848931789398193359375" lon="-70.90159767307341098785400390625">
        <ele>584.5999755859375</ele>
        <time>2026-08-21T16:42:40.000Z</time>
        <extensions>
          <ns3:TrackPointExtension>
            <ns3:hr>129</ns3:hr>
            <ns3:cad>57</ns3:cad>
          </ns3:TrackPointExtension>
        </extensions>
      </trkpt>
      <trkpt lat="45.327853448688983917236328125" lon="-70.90161041356623172760009765625">
        <ele>584.5999755859375</ele>
        <time>2026-08-21T16:42:41.000Z</time>
        <extensions>
          <ns3:TrackPointExtension>
            <ns3:hr>129</ns3:hr>
            <ns3:cad>0</ns3:cad>
          </ns3:TrackPointExtension>
        </extensions>
      </trkpt>
      <trkpt lat="45.32785252667963504791259765625" lon="-70.90161024592816829681396484375">
        <ele>584.79998779296875</ele>
        <time>2026-08-21T16:42:42.000Z</time>
        <extensions>
          <ns3:TrackPointExtension>
            <ns3:hr>129</ns3:hr>
            <ns3:cad>0</ns3:cad>
          </ns3:TrackPointExtension>
        </extensions>
      </trkpt>
      <trkpt lat="45.32785269431769847869873046875" lon="-70.90161041356623172760009765625">
        <ele>584.79998779296875</ele>
        <time>2026-08-21T16:42:43.000Z</time>
        <extensions>
          <ns3:TrackPointExtension>
            <ns3:hr>129</ns3:hr>
            <ns3:cad>0</ns3:cad>
          </ns3:TrackPointExtension>
        </extensions>
      </trkpt>
      <trkpt lat="45.32785252667963504791259765625" lon="-70.90161041356623172760009765625">
        <ele>584.79998779296875</ele>
        <time>2026-08-21T16:42:44.000Z</time>
        <extensions>
          <ns3:TrackPointExtension>
            <ns3:hr>129</ns3:hr>
            <ns3:cad>0</ns3:cad>
          </ns3:TrackPointExtension>
        </extensions>
      </trkpt>
      <trkpt lat="45.3278542868793010711669921875" lon="-70.90161837637424468994140625">
        <ele>585</ele>
        <time>2026-08-21T16:42:45.000Z</time>
        <extensions>
          <ns3:TrackPointExtension>
            <ns3:hr>129</ns3:hr>
            <ns3:cad>0</ns3:cad>
          </ns3:TrackPointExtension>
        </extensions>
      </trkpt>
      <trkpt lat="45.32785437069833278656005859375" lon="-70.90161971747875213623046875">
        <ele>585</ele>
        <time>2026-08-21T16:42:46.000Z</time>
        <extensions>
          <ns3:TrackPointExtension>
            <ns3:hr>127</ns3:hr>
            <ns3:cad>0</ns3:cad>
          </ns3:TrackPointExtension>
        </extensions>
      </trkpt>
      <trkpt lat="45.32785504125058650970458984375" lon="-70.901616029441356658935546875">
        <ele>585</ele>
        <time>2026-08-21T16:42:47.000Z</time>
        <extensions>
          <ns3:TrackPointExtension>
            <ns3:hr>126</ns3:hr>
            <ns3:cad>0</ns3:cad>
          </ns3:TrackPointExtension>
        </extensions>
      </trkpt>
      <trkpt lat="45.3278576396405696868896484375" lon="-70.90161435306072235107421875">
        <ele>585</ele>
        <time>2026-08-21T16:42:48.000Z</time>
        <extensions>
          <ns3:TrackPointExtension>
            <ns3:hr>124</ns3:hr>
            <ns3:cad>0</ns3:cad>
          </ns3:TrackPointExtension>
        </extensions>
      </trkpt>
      <trkpt lat="45.32785269431769847869873046875" lon="-70.90161041356623172760009765625">
        <ele>585.20001220703125</ele>
        <time>2026-08-21T16:42:49.000Z</time>
        <extensions>
          <ns3:TrackPointExtension>
            <ns3:hr>124</ns3:hr>
            <ns3:cad>0</ns3:cad>
          </ns3:TrackPointExtension>
        </extensions>
      </trkpt>
      <trkpt lat="45.32785269431769847869873046875" lon="-70.90161041356623172760009765625">
        <ele>585.20001220703125</ele>
        <time>2026-08-21T16:42:50.000Z</time>
        <extensions>
          <ns3:TrackPointExtension>
            <ns3:hr>124</ns3:hr>
            <ns3:cad>0</ns3:cad>
          </ns3:TrackPointExtension>
        </extensions>
      </trkpt>
      <trkpt lat="45.3278586454689502716064453125" lon="-70.90161544270813465118408203125">
        <ele>585.20001220703125</ele>
        <time>2026-08-21T16:42:51.000Z</time>
        <extensions>
          <ns3:TrackPointExtension>
            <ns3:hr>123</ns3:hr>
            <ns3:cad>0</ns3:cad>
          </ns3:TrackPointExtension>
        </extensions>
      </trkpt>
      <trkpt lat="45.32785520888864994049072265625" lon="-70.90163312852382659912109375">
        <ele>585</ele>
        <time>2026-08-21T16:42:52.000Z</time>
        <extensions>
          <ns3:TrackPointExtension>
            <ns3:hr>123</ns3:hr>
            <ns3:cad>0</ns3:cad>
          </ns3:TrackPointExtension>
        </extensions>
      </trkpt>
      <trkpt lat="45.3278531134128570556640625" lon="-70.90165995061397552490234375">
        <ele>585</ele>
        <time>2026-08-21T16:42:53.000Z</time>
        <extensions>
          <ns3:TrackPointExtension>
            <ns3:hr>123</ns3:hr>
            <ns3:cad>0</ns3:cad>
          </ns3:TrackPointExtension>
        </extensions>
      </trkpt>
      <trkpt lat="45.32785110175609588623046875" lon="-70.90168098919093608856201171875">
        <ele>585</ele>
        <time>2026-08-21T16:42:54.000Z</time>
        <extensions>
          <ns3:TrackPointExtension>
            <ns3:hr>124</ns3:hr>
            <ns3:cad>0</ns3:cad>
          </ns3:TrackPointExtension>
        </extensions>
      </trkpt>
      <trkpt lat="45.32784665934741497039794921875" lon="-70.90170144103467464447021484375">
        <ele>585</ele>
        <time>2026-08-21T16:42:55.000Z</time>
        <extensions>
          <ns3:TrackPointExtension>
            <ns3:hr>123</ns3:hr>
            <ns3:cad>0</ns3:cad>
          </ns3:TrackPointExtension>
        </extensions>
      </trkpt>
      <trkpt lat="45.327842049300670623779296875" lon="-70.90171736665070056915283203125">
        <ele>585.20001220703125</ele>
        <time>2026-08-21T16:42:56.000Z</time>
        <extensions>
          <ns3:TrackPointExtension>
            <ns3:hr>124</ns3:hr>
            <ns3:cad>0</ns3:cad>
          </ns3:TrackPointExtension>
        </extensions>
      </trkpt>
      <trkpt lat="45.32783609814941883087158203125" lon="-70.9017332084476947784423828125">
        <ele>585.20001220703125</ele>
        <time>2026-08-21T16:42:57.000Z</time>
        <extensions>
          <ns3:TrackPointExtension>
            <ns3:hr>124</ns3:hr>
            <ns3:cad>0</ns3:cad>
          </ns3:TrackPointExtension>
        </extensions>
      </trkpt>
      <trkpt lat="45.32783140428364276885986328125" lon="-70.90174804441630840301513671875">
        <ele>585.20001220703125</ele>
        <time>2026-08-21T16:42:58.000Z</time>
        <extensions>
          <ns3:TrackPointExtension>
            <ns3:hr>124</ns3:hr>
            <ns3:cad>56</ns3:cad>
          </ns3:TrackPointExtension>
        </extensions>
      </trkpt>
      <trkpt lat="45.32782855443656444549560546875" lon="-70.90175558812916278839111328125">
        <ele>585.20001220703125</ele>
        <time>2026-08-21T16:42:59.000Z</time>
        <extensions>
          <ns3:TrackPointExtension>
            <ns3:hr>124</ns3:hr>
            <ns3:cad>56</ns3:cad>
          </ns3:TrackPointExtension>
        </extensions>
      </trkpt>
      <trkpt lat="45.32782738097012042999267578125" lon="-70.9017620421946048736572265625">
        <ele>585.20001220703125</ele>
        <time>2026-08-21T16:43:00.000Z</time>
        <extensions>
          <ns3:TrackPointExtension>
            <ns3:hr>124</ns3:hr>
            <ns3:cad>56</ns3:cad>
          </ns3:TrackPointExtension>
        </extensions>
      </trkpt>
      <trkpt lat="45.32782369293272495269775390625" lon="-70.9017687477171421051025390625">
        <ele>585.20001220703125</ele>
        <time>2026-08-21T16:43:01.000Z</time>
        <extensions>
          <ns3:TrackPointExtension>
            <ns3:hr>124</ns3:hr>
            <ns3:cad>55</ns3:cad>
          </ns3:TrackPointExtension>
        </extensions>
      </trkpt>
      <trkpt lat="45.3278187476098537445068359375" lon="-70.90177436359226703643798828125">
        <ele>585.20001220703125</ele>
        <time>2026-08-21T16:43:02.000Z</time>
        <extensions>
          <ns3:TrackPointExtension>
            <ns3:hr>124</ns3:hr>
            <ns3:cad>55</ns3:cad>
          </ns3:TrackPointExtension>
        </extensions>
      </trkpt>
      <trkpt lat="45.3278063423931598663330078125" lon="-70.9017925523221492767333984375">
        <ele>585.4000244140625</ele>
        <time>2026-08-21T16:43:03.000Z</time>
        <extensions>
          <ns3:TrackPointExtension>
            <ns3:hr>125</ns3:hr>
            <ns3:cad>55</ns3:cad>
          </ns3:TrackPointExtension>
        </extensions>
      </trkpt>
      <trkpt lat="45.32779905013740062713623046875" lon="-70.90180478990077972412109375">
        <ele>585.4000244140625</ele>
        <time>2026-08-21T16:43:04.000Z</time>
        <extensions>
          <ns3:TrackPointExtension>
            <ns3:hr>125</ns3:hr>
            <ns3:cad>55</ns3:cad>
          </ns3:TrackPointExtension>
        </extensions>
      </trkpt>
      <trkpt lat="45.3277892433106899261474609375" lon="-70.90182281099259853363037109375">
        <ele>585.5999755859375</ele>
        <time>2026-08-21T16:43:05.000Z</time>
        <extensions>
          <ns3:TrackPointExtension>
            <ns3:hr>125</ns3:hr>
            <ns3:cad>0</ns3:cad>
          </ns3:TrackPointExtension>
        </extensions>
      </trkpt>
      <trkpt lat="45.327779352664947509765625" lon="-70.90184091590344905853271484375">
        <ele>585.5999755859375</ele>
        <time>2026-08-21T16:43:06.000Z</time>
        <extensions>
          <ns3:TrackPointExtension>
            <ns3:hr>126</ns3:hr>
            <ns3:cad>0</ns3:cad>
          </ns3:TrackPointExtension>
        </extensions>
      </trkpt>
      <trkpt lat="45.3277708031237125396728515625" lon="-70.9018589369952678680419921875">
        <ele>585.79998779296875</ele>
        <time>2026-08-21T16:43:07.000Z</time>
        <extensions>
          <ns3:TrackPointExtension>
            <ns3:hr>126</ns3:hr>
            <ns3:cad>0</ns3:cad>
          </ns3:TrackPointExtension>
        </extensions>
      </trkpt>
      <trkpt lat="45.32776367850601673126220703125" lon="-70.90187813155353069305419921875">
        <ele>585.79998779296875</ele>
        <time>2026-08-21T16:43:08.000Z</time>
        <extensions>
          <ns3:TrackPointExtension>
            <ns3:hr>126</ns3:hr>
            <ns3:cad>58</ns3:cad>
          </ns3:TrackPointExtension>
        </extensions>
      </trkpt>
      <trkpt lat="45.32775747589766979217529296875" lon="-70.90189791284501552581787109375">
        <ele>585.79998779296875</ele>
        <time>2026-08-21T16:43:09.000Z</time>
        <extensions>
          <ns3:TrackPointExtension>
            <ns3:hr>125</ns3:hr>
            <ns3:cad>58</ns3:cad>
          </ns3:TrackPointExtension>
        </extensions>
      </trkpt>
      <trkpt lat="45.3277506865561008453369140625" lon="-70.9019140899181365966796875">
        <ele>586</ele>
        <time>2026-08-21T16:43:10.000Z</time>
        <extensions>
          <ns3:TrackPointExtension>
            <ns3:hr>125</ns3:hr>
            <ns3:cad>58</ns3:cad>
          </ns3:TrackPointExtension>
        </extensions>
      </trkpt>
      <trkpt lat="45.327742137014865875244140625" lon="-70.9019236452877521514892578125">
        <ele>585.79998779296875</ele>
        <time>2026-08-21T16:43:11.000Z</time>
        <extensions>
          <ns3:TrackPointExtension>
            <ns3:hr>126</ns3:hr>
            <ns3:cad>58</ns3:cad>
          </ns3:TrackPointExtension>
        </extensions>
      </trkpt>
      <trkpt lat="45.32772713340818881988525390625" lon="-70.9019407443702220916748046875">
        <ele>585.79998779296875</ele>
        <time>2026-08-21T16:43:12.000Z</time>
        <extensions>
          <ns3:TrackPointExtension>
            <ns3:hr>126</ns3:hr>
            <ns3:cad>56</ns3:cad>
          </ns3:TrackPointExtension>
        </extensions>
      </trkpt>
      <trkpt lat="45.32771766185760498046875" lon="-70.90195407159626483917236328125">
        <ele>585.79998779296875</ele>
        <time>2026-08-21T16:43:13.000Z</time>
        <extensions>
          <ns3:TrackPointExtension>
            <ns3:hr>126</ns3:hr>
            <ns3:cad>55</ns3:cad>
          </ns3:TrackPointExtension>
        </extensions>
      </trkpt>
      <trkpt lat="45.32770718447864055633544921875" lon="-70.90196815319359302520751953125">
        <ele>585.79998779296875</ele>
        <time>2026-08-21T16:43:14.000Z</time>
        <extensions>
          <ns3:TrackPointExtension>
            <ns3:hr>126</ns3:hr>
            <ns3:cad>55</ns3:cad>
          </ns3:TrackPointExtension>
        </extensions>
      </trkpt>
      <trkpt lat="45.3276967070996761322021484375" lon="-70.9019784629344940185546875">
        <ele>585.79998779296875</ele>
        <time>2026-08-21T16:43:15.000Z</time>
        <extensions>
          <ns3:TrackPointExtension>
            <ns3:hr>125</ns3:hr>
            <ns3:cad>56</ns3:cad>
          </ns3:TrackPointExtension>
        </extensions>
      </trkpt>
      <trkpt lat="45.32768723554909229278564453125" lon="-70.90199598111212253570556640625">
        <ele>585.79998779296875</ele>
        <time>2026-08-21T16:43:16.000Z</time>
        <extensions>
          <ns3:TrackPointExtension>
            <ns3:hr>126</ns3:hr>
            <ns3:cad>56</ns3:cad>
          </ns3:TrackPointExtension>
        </extensions>
      </trkpt>
      <trkpt lat="45.32767717726528644561767578125" lon="-70.90200972743332386016845703125">
        <ele>585.79998779296875</ele>
        <time>2026-08-21T16:43:17.000Z</time>
        <extensions>
          <ns3:TrackPointExtension>
            <ns3:hr>126</ns3:hr>
            <ns3:cad>56</ns3:cad>
          </ns3:TrackPointExtension>
        </extensions>
      </trkpt>
      <trkpt lat="45.32766846008598804473876953125" lon="-70.90202649123966693878173828125">
        <ele>586</ele>
        <time>2026-08-21T16:43:18.000Z</time>
        <extensions>
          <ns3:TrackPointExtension>
            <ns3:hr>126</ns3:hr>
            <ns3:cad>55</ns3:cad>
          </ns3:TrackPointExtension>
        </extensions>
      </trkpt>
      <trkpt lat="45.32765840180218219757080078125" lon="-70.9020456857979297637939453125">
        <ele>586</ele>
        <time>2026-08-21T16:43:19.000Z</time>
        <extensions>
          <ns3:TrackPointExtension>
            <ns3:hr>126</ns3:hr>
            <ns3:cad>55</ns3:cad>
          </ns3:TrackPointExtension>
        </extensions>
      </trkpt>
      <trkpt lat="45.3276497684419155120849609375" lon="-70.90206270106136798858642578125">
        <ele>586</ele>
        <time>2026-08-21T16:43:20.000Z</time>
        <extensions>
          <ns3:TrackPointExtension>
            <ns3:hr>125</ns3:hr>
            <ns3:cad>54</ns3:cad>
          </ns3:TrackPointExtension>
        </extensions>
      </trkpt>
      <trkpt lat="45.32764012925326824188232421875" lon="-70.9020830690860748291015625">
        <ele>586</ele>
        <time>2026-08-21T16:43:21.000Z</time>
        <extensions>
          <ns3:TrackPointExtension>
            <ns3:hr>125</ns3:hr>
            <ns3:cad>54</ns3:cad>
          </ns3:TrackPointExtension>
        </extensions>
      </trkpt>
      <trkpt lat="45.3276333399116992950439453125" lon="-70.90210787951946258544921875">
        <ele>586</ele>
        <time>2026-08-21T16:43:22.000Z</time>
        <extensions>
          <ns3:TrackPointExtension>
            <ns3:hr>125</ns3:hr>
            <ns3:cad>54</ns3:cad>
          </ns3:TrackPointExtension>
        </extensions>
      </trkpt>
      <trkpt lat="45.32763107679784297943115234375" lon="-70.9021295048296451568603515625">
        <ele>586</ele>
        <time>2026-08-21T16:43:23.000Z</time>
        <extensions>
          <ns3:TrackPointExtension>
            <ns3:hr>125</ns3:hr>
            <ns3:cad>54</ns3:cad>
          </ns3:TrackPointExtension>
        </extensions>
      </trkpt>
      <trkpt lat="45.327629484236240386962890625" lon="-70.90215506963431835174560546875">
        <ele>585.79998779296875</ele>
        <time>2026-08-21T16:43:24.000Z</time>
        <extensions>
          <ns3:TrackPointExtension>
            <ns3:hr>125</ns3:hr>
            <ns3:cad>54</ns3:cad>
          </ns3:TrackPointExtension>
        </extensions>
      </trkpt>
      <trkpt lat="45.32762688584625720977783203125" lon="-70.9021757729351520538330078125">
        <ele>586</ele>
        <time>2026-08-21T16:43:25.000Z</time>
        <extensions>
          <ns3:TrackPointExtension>
            <ns3:hr>124</ns3:hr>
            <ns3:cad>55</ns3:cad>
          </ns3:TrackPointExtension>
        </extensions>
      </trkpt>
      <trkpt lat="45.3276252932846546173095703125" lon="-70.90219714678823947906494140625">
        <ele>586</ele>
        <time>2026-08-21T16:43:26.000Z</time>
        <extensions>
          <ns3:TrackPointExtension>
            <ns3:hr>124</ns3:hr>
            <ns3:cad>55</ns3:cad>
          </ns3:TrackPointExtension>
        </extensions>
      </trkpt>
      <trkpt lat="45.3276242874562740325927734375" lon="-70.902218855917453765869140625">
        <ele>586</ele>
        <time>2026-08-21T16:43:27.000Z</time>
        <extensions>
          <ns3:TrackPointExtension>
            <ns3:hr>123</ns3:hr>
            <ns3:cad>56</ns3:cad>
          </ns3:TrackPointExtension>
        </extensions>
      </trkpt>
      <trkpt lat="45.32762671820819377899169921875" lon="-70.9022394753992557525634765625">
        <ele>586</ele>
        <time>2026-08-21T16:43:28.000Z</time>
        <extensions>
          <ns3:TrackPointExtension>
            <ns3:hr>123</ns3:hr>
            <ns3:cad>56</ns3:cad>
          </ns3:TrackPointExtension>
        </extensions>
      </trkpt>
      <trkpt lat="45.3276299871504306793212890625" lon="-70.90226001106202602386474609375">
        <ele>586</ele>
        <time>2026-08-21T16:43:29.000Z</time>
        <extensions>
          <ns3:TrackPointExtension>
            <ns3:hr>123</ns3:hr>
            <ns3:cad>55</ns3:cad>
          </ns3:TrackPointExtension>
        </extensions>
      </trkpt>
      <trkpt lat="45.32763292081654071807861328125" lon="-70.90227928943932056427001953125">
        <ele>586</ele>
        <time>2026-08-21T16:43:30.000Z</time>
        <extensions>
          <ns3:TrackPointExtension>
            <ns3:hr>123</ns3:hr>
            <ns3:cad>55</ns3:cad>
          </ns3:TrackPointExtension>
        </extensions>
      </trkpt>
      <trkpt lat="45.32763375900685787200927734375" lon="-70.90229202993214130401611328125">
        <ele>586</ele>
        <time>2026-08-21T16:43:31.000Z</time>
        <extensions>
          <ns3:TrackPointExtension>
            <ns3:hr>122</ns3:hr>
            <ns3:cad>55</ns3:cad>
          </ns3:TrackPointExtension>
        </extensions>
      </trkpt>
      <trkpt lat="45.3276350162923336029052734375" lon="-70.902308039367198944091796875">
        <ele>585.79998779296875</ele>
        <time>2026-08-21T16:43:32.000Z</time>
        <extensions>
          <ns3:TrackPointExtension>
            <ns3:hr>123</ns3:hr>
            <ns3:cad>55</ns3:cad>
          </ns3:TrackPointExtension>
        </extensions>
      </trkpt>
      <trkpt lat="45.32763409428298473358154296875" lon="-70.902329497039318084716796875">
        <ele>585.5999755859375</ele>
        <time>2026-08-21T16:43:33.000Z</time>
        <extensions>
          <ns3:TrackPointExtension>
            <ns3:hr>123</ns3:hr>
            <ns3:cad>55</ns3:cad>
          </ns3:TrackPointExtension>
        </extensions>
      </trkpt>
      <trkpt lat="45.32763560302555561065673828125" lon="-70.90234936214983463287353515625">
        <ele>585.5999755859375</ele>
        <time>2026-08-21T16:43:34.000Z</time>
        <extensions>
          <ns3:TrackPointExtension>
            <ns3:hr>122</ns3:hr>
            <ns3:cad>55</ns3:cad>
          </ns3:TrackPointExtension>
        </extensions>
      </trkpt>
      <trkpt lat="45.32763929106295108795166015625" lon="-70.9023638628423213958740234375">
        <ele>585.5999755859375</ele>
        <time>2026-08-21T16:43:35.000Z</time>
        <extensions>
          <ns3:TrackPointExtension>
            <ns3:hr>122</ns3:hr>
            <ns3:cad>57</ns3:cad>
          </ns3:TrackPointExtension>
        </extensions>
      </trkpt>
      <trkpt lat="45.32764499075710773468017578125" lon="-70.902379788458347320556640625">
        <ele>585.5999755859375</ele>
        <time>2026-08-21T16:43:36.000Z</time>
        <extensions>
          <ns3:TrackPointExtension>
            <ns3:hr>121</ns3:hr>
            <ns3:cad>57</ns3:cad>
          </ns3:TrackPointExtension>
        </extensions>
      </trkpt>
      <trkpt lat="45.327648930251598358154296875" lon="-70.90239680372178554534912109375">
        <ele>585.5999755859375</ele>
        <time>2026-08-21T16:43:37.000Z</time>
        <extensions>
          <ns3:TrackPointExtension>
            <ns3:hr>121</ns3:hr>
            <ns3:cad>57</ns3:cad>
          </ns3:TrackPointExtension>
        </extensions>
      </trkpt>
      <trkpt lat="45.32765261828899383544921875" lon="-70.90240652672946453094482421875">
        <ele>585.79998779296875</ele>
        <time>2026-08-21T16:43:38.000Z</time>
        <extensions>
          <ns3:TrackPointExtension>
            <ns3:hr>121</ns3:hr>
            <ns3:cad>57</ns3:cad>
          </ns3:TrackPointExtension>
        </extensions>
      </trkpt>
      <trkpt lat="45.3276604972779750823974609375" lon="-70.9024181775748729705810546875">
        <ele>585.79998779296875</ele>
        <time>2026-08-21T16:43:39.000Z</time>
        <extensions>
          <ns3:TrackPointExtension>
            <ns3:hr>121</ns3:hr>
            <ns3:cad>0</ns3:cad>
          </ns3:TrackPointExtension>
        </extensions>
      </trkpt>
      <trkpt lat="45.32766426913440227508544921875" lon="-70.90242546983063220977783203125">
        <ele>585.79998779296875</ele>
        <time>2026-08-21T16:43:40.000Z</time>
        <extensions>
          <ns3:TrackPointExtension>
            <ns3:hr>121</ns3:hr>
            <ns3:cad>0</ns3:cad>
          </ns3:TrackPointExtension>
        </extensions>
      </trkpt>
      <trkpt lat="45.3276658616960048675537109375" lon="-70.902433432638645172119140625">
        <ele>585.79998779296875</ele>
        <time>2026-08-21T16:43:41.000Z</time>
        <extensions>
          <ns3:TrackPointExtension>
            <ns3:hr>120</ns3:hr>
            <ns3:cad>0</ns3:cad>
          </ns3:TrackPointExtension>
        </extensions>
      </trkpt>
      <trkpt lat="45.32766376622021198272705078125" lon="-70.90243971906602382659912109375">
        <ele>585.5999755859375</ele>
        <time>2026-08-21T16:43:42.000Z</time>
        <extensions>
          <ns3:TrackPointExtension>
            <ns3:hr>121</ns3:hr>
            <ns3:cad>0</ns3:cad>
          </ns3:TrackPointExtension>
        </extensions>
      </trkpt>
      <trkpt lat="45.327662341296672821044921875" lon="-70.90244793333113193511962890625">
        <ele>585.5999755859375</ele>
        <time>2026-08-21T16:43:43.000Z</time>
        <extensions>
          <ns3:TrackPointExtension>
            <ns3:hr>121</ns3:hr>
            <ns3:cad>0</ns3:cad>
          </ns3:TrackPointExtension>
        </extensions>
      </trkpt>
      <trkpt lat="45.32765991054475307464599609375" lon="-70.9024527110159397125244140625">
        <ele>585.5999755859375</ele>
        <time>2026-08-21T16:43:44.000Z</time>
        <extensions>
          <ns3:TrackPointExtension>
            <ns3:hr>120</ns3:hr>
            <ns3:cad>0</ns3:cad>
          </ns3:TrackPointExtension>
        </extensions>
      </trkpt>
      <trkpt lat="45.32766024582087993621826171875" lon="-70.90245665051043033599853515625">
        <ele>585.5999755859375</ele>
        <time>2026-08-21T16:43:45.000Z</time>
        <extensions>
          <ns3:TrackPointExtension>
            <ns3:hr>121</ns3:hr>
            <ns3:cad>0</ns3:cad>
          </ns3:TrackPointExtension>
        </extensions>
      </trkpt>
      <trkpt lat="45.3276599943637847900390625" lon="-70.9024600870907306671142578125">
        <ele>585.5999755859375</ele>
        <time>2026-08-21T16:43:46.000Z</time>
        <extensions>
          <ns3:TrackPointExtension>
            <ns3:hr>121</ns3:hr>
            <ns3:cad>0</ns3:cad>
          </ns3:TrackPointExtension>
        </extensions>
      </trkpt>
      <trkpt lat="45.3276599943637847900390625" lon="-70.90247056446969509124755859375">
        <ele>585.5999755859375</ele>
        <time>2026-08-21T16:43:47.000Z</time>
        <extensions>
          <ns3:TrackPointExtension>
            <ns3:hr>121</ns3:hr>
            <ns3:cad>0</ns3:cad>
          </ns3:TrackPointExtension>
        </extensions>
      </trkpt>
      <trkpt lat="45.3276608325541019439697265625" lon="-70.9024838916957378387451171875">
        <ele>585.5999755859375</ele>
        <time>2026-08-21T16:43:48.000Z</time>
        <extensions>
          <ns3:TrackPointExtension>
            <ns3:hr>121</ns3:hr>
            <ns3:cad>0</ns3:cad>
          </ns3:TrackPointExtension>
        </extensions>
      </trkpt>
      <trkpt lat="45.32766125164926052093505859375" lon="-70.9024949558079242706298828125">
        <ele>585.5999755859375</ele>
        <time>2026-08-21T16:43:49.000Z</time>
        <extensions>
          <ns3:TrackPointExtension>
            <ns3:hr>120</ns3:hr>
            <ns3:cad>65</ns3:cad>
          </ns3:TrackPointExtension>
        </extensions>
      </trkpt>
      <trkpt lat="45.32765865325927734375" lon="-70.9025050140917301177978515625">
        <ele>585.79998779296875</ele>
        <time>2026-08-21T16:43:50.000Z</time>
        <extensions>
          <ns3:TrackPointExtension>
            <ns3:hr>121</ns3:hr>
            <ns3:cad>65</ns3:cad>
          </ns3:TrackPointExtension>
        </extensions>
      </trkpt>
      <trkpt lat="45.32765672542154788970947265625" lon="-70.90251884423196315765380859375">
        <ele>585.79998779296875</ele>
        <time>2026-08-21T16:43:51.000Z</time>
        <extensions>
          <ns3:TrackPointExtension>
            <ns3:hr>121</ns3:hr>
            <ns3:cad>65</ns3:cad>
          </ns3:TrackPointExtension>
        </extensions>
      </trkpt>
      <trkpt lat="45.32765530049800872802734375" lon="-70.90253192000091075897216796875">
        <ele>585.79998779296875</ele>
        <time>2026-08-21T16:43:52.000Z</time>
        <extensions>
          <ns3:TrackPointExtension>
            <ns3:hr>121</ns3:hr>
            <ns3:cad>0</ns3:cad>
          </ns3:TrackPointExtension>
        </extensions>
      </trkpt>
      <trkpt lat="45.32765404321253299713134765625" lon="-70.9025455825030803680419921875">
        <ele>585.79998779296875</ele>
        <time>2026-08-21T16:43:53.000Z</time>
        <extensions>
          <ns3:TrackPointExtension>
            <ns3:hr>120</ns3:hr>
            <ns3:cad>0</ns3:cad>
          </ns3:TrackPointExtension>
        </extensions>
      </trkpt>
      <trkpt lat="45.3276561386883258819580078125" lon="-70.902553461492061614990234375">
        <ele>585.79998779296875</ele>
        <time>2026-08-21T16:43:54.000Z</time>
        <extensions>
          <ns3:TrackPointExtension>
            <ns3:hr>119</ns3:hr>
            <ns3:cad>0</ns3:cad>
          </ns3:TrackPointExtension>
        </extensions>
      </trkpt>
      <trkpt lat="45.32765354029834270477294921875" lon="-70.902570225298404693603515625">
        <ele>586</ele>
        <time>2026-08-21T16:43:55.000Z</time>
        <extensions>
          <ns3:TrackPointExtension>
            <ns3:hr>119</ns3:hr>
            <ns3:cad>0</ns3:cad>
          </ns3:TrackPointExtension>
        </extensions>
      </trkpt>
      <trkpt lat="45.3276494331657886505126953125" lon="-70.90259109623730182647705078125">
        <ele>586</ele>
        <time>2026-08-21T16:43:56.000Z</time>
        <extensions>
          <ns3:TrackPointExtension>
            <ns3:hr>118</ns3:hr>
            <ns3:cad>0</ns3:cad>
          </ns3:TrackPointExtension>
        </extensions>
      </trkpt>
      <trkpt lat="45.3276454098522663116455078125" lon="-70.9026072733104228973388671875">
        <ele>586</ele>
        <time>2026-08-21T16:43:57.000Z</time>
        <extensions>
          <ns3:TrackPointExtension>
            <ns3:hr>118</ns3:hr>
            <ns3:cad>0</ns3:cad>
          </ns3:TrackPointExtension>
        </extensions>
      </trkpt>
      <trkpt lat="45.32763778232038021087646484375" lon="-70.90262395329773426055908203125">
        <ele>586</ele>
        <time>2026-08-21T16:43:58.000Z</time>
        <extensions>
          <ns3:TrackPointExtension>
            <ns3:hr>118</ns3:hr>
            <ns3:cad>0</ns3:cad>
          </ns3:TrackPointExtension>
        </extensions>
      </trkpt>
      <trkpt lat="45.32762755639851093292236328125" lon="-70.90263518504798412322998046875">
        <ele>586</ele>
        <time>2026-08-21T16:43:59.000Z</time>
        <extensions>
          <ns3:TrackPointExtension>
            <ns3:hr>119</ns3:hr>
            <ns3:cad>55</ns3:cad>
          </ns3:TrackPointExtension>
        </extensions>
      </trkpt>
      <trkpt lat="45.32762303017079830169677734375" lon="-70.90264499187469482421875">
        <ele>586</ele>
        <time>2026-08-21T16:44:00.000Z</time>
        <extensions>
          <ns3:TrackPointExtension>
            <ns3:hr>118</ns3:hr>
            <ns3:cad>55</ns3:cad>
          </ns3:TrackPointExtension>
        </extensions>
      </trkpt>
      <trkpt lat="45.3276148997247219085693359375" lon="-70.90266502462327480316162109375">
        <ele>586</ele>
        <time>2026-08-21T16:44:01.000Z</time>
        <extensions>
          <ns3:TrackPointExtension>
            <ns3:hr>118</ns3:hr>
            <ns3:cad>56</ns3:cad>
          </ns3:TrackPointExtension>
        </extensions>
      </trkpt>
      <trkpt lat="45.32760844565927982330322265625" lon="-70.90268279425799846649169921875">
        <ele>586.20001220703125</ele>
        <time>2026-08-21T16:44:02.000Z</time>
        <extensions>
          <ns3:TrackPointExtension>
            <ns3:hr>118</ns3:hr>
            <ns3:cad>56</ns3:cad>
          </ns3:TrackPointExtension>
        </extensions>
      </trkpt>
      <trkpt lat="45.32759855501353740692138671875" lon="-70.90270240791141986846923828125">
        <ele>586.20001220703125</ele>
        <time>2026-08-21T16:44:03.000Z</time>
        <extensions>
          <ns3:TrackPointExtension>
            <ns3:hr>118</ns3:hr>
            <ns3:cad>56</ns3:cad>
          </ns3:TrackPointExtension>
        </extensions>
      </trkpt>
      <trkpt lat="45.327595956623554229736328125" lon="-70.90272017754614353179931640625">
        <ele>586.4000244140625</ele>
        <time>2026-08-21T16:44:04.000Z</time>
        <extensions>
          <ns3:TrackPointExtension>
            <ns3:hr>118</ns3:hr>
            <ns3:cad>0</ns3:cad>
          </ns3:TrackPointExtension>
        </extensions>
      </trkpt>
      <trkpt lat="45.32759629189968109130859375" lon="-70.902730487287044525146484375">
        <ele>586.4000244140625</ele>
        <time>2026-08-21T16:44:05.000Z</time>
        <extensions>
          <ns3:TrackPointExtension>
            <ns3:hr>119</ns3:hr>
            <ns3:cad>0</ns3:cad>
          </ns3:TrackPointExtension>
        </extensions>
      </trkpt>
      <trkpt lat="45.32759419642388820648193359375" lon="-70.9027403779327869415283203125">
        <ele>586.4000244140625</ele>
        <time>2026-08-21T16:44:06.000Z</time>
        <extensions>
          <ns3:TrackPointExtension>
            <ns3:hr>119</ns3:hr>
            <ns3:cad>0</ns3:cad>
          </ns3:TrackPointExtension>
        </extensions>
      </trkpt>
      <trkpt lat="45.327583886682987213134765625" lon="-70.9027437306940555572509765625">
        <ele>586.4000244140625</ele>
        <time>2026-08-21T16:44:07.000Z</time>
        <extensions>
          <ns3:TrackPointExtension>
            <ns3:hr>119</ns3:hr>
            <ns3:cad>0</ns3:cad>
          </ns3:TrackPointExtension>
        </extensions>
      </trkpt>
      <trkpt lat="45.32757407985627651214599609375" lon="-70.90275588445365428924560546875">
        <ele>586.4000244140625</ele>
        <time>2026-08-21T16:44:08.000Z</time>
        <extensions>
          <ns3:TrackPointExtension>
            <ns3:hr>120</ns3:hr>
            <ns3:cad>0</ns3:cad>
          </ns3:TrackPointExtension>
        </extensions>
      </trkpt>
      <trkpt lat="45.32757215201854705810546875" lon="-70.902768708765506744384765625">
        <ele>586.4000244140625</ele>
        <time>2026-08-21T16:44:09.000Z</time>
        <extensions>
          <ns3:TrackPointExtension>
            <ns3:hr>120</ns3:hr>
            <ns3:cad>0</ns3:cad>
          </ns3:TrackPointExtension>
        </extensions>
      </trkpt>
      <trkpt lat="45.32757282257080078125" lon="-70.90278371237218379974365234375">
        <ele>586.4000244140625</ele>
        <time>2026-08-21T16:44:10.000Z</time>
        <extensions>
          <ns3:TrackPointExtension>
            <ns3:hr>120</ns3:hr>
            <ns3:cad>0</ns3:cad>
          </ns3:TrackPointExtension>
        </extensions>
      </trkpt>
      <trkpt lat="45.32757240347564220428466796875" lon="-70.9027920104563236236572265625">
        <ele>586.5999755859375</ele>
        <time>2026-08-21T16:44:11.000Z</time>
        <extensions>
          <ns3:TrackPointExtension>
            <ns3:hr>121</ns3:hr>
            <ns3:cad>0</ns3:cad>
          </ns3:TrackPointExtension>
        </extensions>
      </trkpt>
      <trkpt lat="45.3275649435818195343017578125" lon="-70.90280483476817607879638671875">
        <ele>586.5999755859375</ele>
        <time>2026-08-21T16:44:12.000Z</time>
        <extensions>
          <ns3:TrackPointExtension>
            <ns3:hr>122</ns3:hr>
            <ns3:cad>0</ns3:cad>
          </ns3:TrackPointExtension>
        </extensions>
      </trkpt>
      <trkpt lat="45.32755848951637744903564453125" lon="-70.90281539596617221832275390625">
        <ele>586.5999755859375</ele>
        <time>2026-08-21T16:44:13.000Z</time>
        <extensions>
          <ns3:TrackPointExtension>
            <ns3:hr>123</ns3:hr>
            <ns3:cad>0</ns3:cad>
          </ns3:TrackPointExtension>
        </extensions>
      </trkpt>
      <trkpt lat="45.327551364898681640625" lon="-70.90283341705799102783203125">
        <ele>586.5999755859375</ele>
        <time>2026-08-21T16:44:14.000Z</time>
        <extensions>
          <ns3:TrackPointExtension>
            <ns3:hr>124</ns3:hr>
            <ns3:cad>0</ns3:cad>
          </ns3:TrackPointExtension>
        </extensions>
      </trkpt>
      <trkpt lat="45.32754574902355670928955078125" lon="-70.9028486721217632293701171875">
        <ele>586.5999755859375</ele>
        <time>2026-08-21T16:44:15.000Z</time>
        <extensions>
          <ns3:TrackPointExtension>
            <ns3:hr>125</ns3:hr>
            <ns3:cad>0</ns3:cad>
          </ns3:TrackPointExtension>
        </extensions>
      </trkpt>
      <trkpt lat="45.32753770239651203155517578125" lon="-70.90286585502326488494873046875">
        <ele>586.5999755859375</ele>
        <time>2026-08-21T16:44:16.000Z</time>
        <extensions>
          <ns3:TrackPointExtension>
            <ns3:hr>126</ns3:hr>
            <ns3:cad>50</ns3:cad>
          </ns3:TrackPointExtension>
        </extensions>
      </trkpt>
      <trkpt lat="45.3275381214916706085205078125" lon="-70.90288748033344745635986328125">
        <ele>586.5999755859375</ele>
        <time>2026-08-21T16:44:17.000Z</time>
        <extensions>
          <ns3:TrackPointExtension>
            <ns3:hr>126</ns3:hr>
            <ns3:cad>50</ns3:cad>
          </ns3:TrackPointExtension>
        </extensions>
      </trkpt>
      <trkpt lat="45.32753937877714633941650390625" lon="-70.902904160320758819580078125">
        <ele>586.5999755859375</ele>
        <time>2026-08-21T16:44:18.000Z</time>
        <extensions>
          <ns3:TrackPointExtension>
            <ns3:hr>127</ns3:hr>
            <ns3:cad>50</ns3:cad>
          </ns3:TrackPointExtension>
        </extensions>
      </trkpt>
      <trkpt lat="45.32754172571003437042236328125" lon="-70.9029244445264339447021484375">
        <ele>586.5999755859375</ele>
        <time>2026-08-21T16:44:19.000Z</time>
        <extensions>
          <ns3:TrackPointExtension>
            <ns3:hr>127</ns3:hr>
            <ns3:cad>50</ns3:cad>
          </ns3:TrackPointExtension>
        </extensions>
      </trkpt>
      <trkpt lat="45.32754004932940006256103515625" lon="-70.9029452316462993621826171875">
        <ele>586.79998779296875</ele>
        <time>2026-08-21T16:44:20.000Z</time>
        <extensions>
          <ns3:TrackPointExtension>
            <ns3:hr>127</ns3:hr>
            <ns3:cad>50</ns3:cad>
          </ns3:TrackPointExtension>
        </extensions>
      </trkpt>
      <trkpt lat="45.3275351040065288543701171875" lon="-70.9029636718332767486572265625">
        <ele>586.79998779296875</ele>
        <time>2026-08-21T16:44:21.000Z</time>
        <extensions>
          <ns3:TrackPointExtension>
            <ns3:hr>127</ns3:hr>
            <ns3:cad>50</ns3:cad>
          </ns3:TrackPointExtension>
        </extensions>
      </trkpt>
      <trkpt lat="45.32753937877714633941650390625" lon="-70.90298353694379329681396484375">
        <ele>586.79998779296875</ele>
        <time>2026-08-21T16:44:22.000Z</time>
        <extensions>
          <ns3:TrackPointExtension>
            <ns3:hr>127</ns3:hr>
            <ns3:cad>50</ns3:cad>
          </ns3:TrackPointExtension>
        </extensions>
      </trkpt>
      <trkpt lat="45.32753686420619487762451171875" lon="-70.9029914997518062591552734375">
        <ele>586.79998779296875</ele>
        <time>2026-08-21T16:44:23.000Z</time>
        <extensions>
          <ns3:TrackPointExtension>
            <ns3:hr>127</ns3:hr>
            <ns3:cad>50</ns3:cad>
          </ns3:TrackPointExtension>
        </extensions>
      </trkpt>
      <trkpt lat="45.32752831466495990753173828125" lon="-70.9030003845691680908203125">
        <ele>586.79998779296875</ele>
        <time>2026-08-21T16:44:24.000Z</time>
        <extensions>
          <ns3:TrackPointExtension>
            <ns3:hr>128</ns3:hr>
            <ns3:cad>50</ns3:cad>
          </ns3:TrackPointExtension>
        </extensions>
      </trkpt>
      <trkpt lat="45.3275213576853275299072265625" lon="-70.90301672928035259246826171875">
        <ele>586.79998779296875</ele>
        <time>2026-08-21T16:44:25.000Z</time>
        <extensions>
          <ns3:TrackPointExtension>
            <ns3:hr>127</ns3:hr>
            <ns3:cad>50</ns3:cad>
          </ns3:TrackPointExtension>
        </extensions>
      </trkpt>
      <trkpt lat="45.32751725055277347564697265625" lon="-70.9030280448496341705322265625">
        <ele>586.79998779296875</ele>
        <time>2026-08-21T16:44:26.000Z</time>
        <extensions>
          <ns3:TrackPointExtension>
            <ns3:hr>127</ns3:hr>
            <ns3:cad>50</ns3:cad>
          </ns3:TrackPointExtension>
        </extensions>
      </trkpt>
      <trkpt lat="45.32750702463090419769287109375" lon="-70.90304237790405750274658203125">
        <ele>586.79998779296875</ele>
        <time>2026-08-21T16:44:27.000Z</time>
        <extensions>
          <ns3:TrackPointExtension>
            <ns3:hr>128</ns3:hr>
            <ns3:cad>50</ns3:cad>
          </ns3:TrackPointExtension>
        </extensions>
      </trkpt>
      <trkpt lat="45.3274985589087009429931640625" lon="-70.9030588902533054351806640625">
        <ele>586.79998779296875</ele>
        <time>2026-08-21T16:44:28.000Z</time>
        <extensions>
          <ns3:TrackPointExtension>
            <ns3:hr>128</ns3:hr>
            <ns3:cad>50</ns3:cad>
          </ns3:TrackPointExtension>
        </extensions>
      </trkpt>
      <trkpt lat="45.32748808152973651885986328125" lon="-70.90307305566966533660888671875">
        <ele>587</ele>
        <time>2026-08-21T16:44:29.000Z</time>
        <extensions>
          <ns3:TrackPointExtension>
            <ns3:hr>128</ns3:hr>
            <ns3:cad>50</ns3:cad>
          </ns3:TrackPointExtension>
        </extensions>
      </trkpt>
      <trkpt lat="45.32747483812272548675537109375" lon="-70.90308093465864658355712890625">
        <ele>587</ele>
        <time>2026-08-21T16:44:30.000Z</time>
        <extensions>
          <ns3:TrackPointExtension>
            <ns3:hr>127</ns3:hr>
            <ns3:cad>50</ns3:cad>
          </ns3:TrackPointExtension>
        </extensions>
      </trkpt>
      <trkpt lat="45.32746159471571445465087890625" lon="-70.90308747254312038421630859375">
        <ele>587.20001220703125</ele>
        <time>2026-08-21T16:44:31.000Z</time>
        <extensions>
          <ns3:TrackPointExtension>
            <ns3:hr>128</ns3:hr>
            <ns3:cad>0</ns3:cad>
          </ns3:TrackPointExtension>
        </extensions>
      </trkpt>
      <trkpt lat="45.32744885422289371490478515625" lon="-70.90310708619654178619384765625">
        <ele>587.20001220703125</ele>
        <time>2026-08-21T16:44:32.000Z</time>
        <extensions>
          <ns3:TrackPointExtension>
            <ns3:hr>129</ns3:hr>
            <ns3:cad>0</ns3:cad>
          </ns3:TrackPointExtension>
        </extensions>
      </trkpt>
      <trkpt lat="45.32744952477514743804931640625" lon="-70.90312435291707515716552734375">
        <ele>587.20001220703125</ele>
        <time>2026-08-21T16:44:33.000Z</time>
        <extensions>
          <ns3:TrackPointExtension>
            <ns3:hr>129</ns3:hr>
            <ns3:cad>0</ns3:cad>
          </ns3:TrackPointExtension>
        </extensions>
      </trkpt>
      <trkpt lat="45.32744298689067363739013671875" lon="-70.903141535818576812744140625">
        <ele>587.20001220703125</ele>
        <time>2026-08-21T16:44:34.000Z</time>
        <extensions>
          <ns3:TrackPointExtension>
            <ns3:hr>129</ns3:hr>
            <ns3:cad>0</ns3:cad>
          </ns3:TrackPointExtension>
        </extensions>
      </trkpt>
      <trkpt lat="45.3274395503103733062744140625" lon="-70.90315553359687328338623046875">
        <ele>587.4000244140625</ele>
        <time>2026-08-21T16:44:35.000Z</time>
        <extensions>
          <ns3:TrackPointExtension>
            <ns3:hr>129</ns3:hr>
            <ns3:cad>0</ns3:cad>
          </ns3:TrackPointExtension>
        </extensions>
      </trkpt>
      <trkpt lat="45.3274284861981868743896484375" lon="-70.90317137539386749267578125">
        <ele>587.4000244140625</ele>
        <time>2026-08-21T16:44:36.000Z</time>
        <extensions>
          <ns3:TrackPointExtension>
            <ns3:hr>128</ns3:hr>
            <ns3:cad>0</ns3:cad>
          </ns3:TrackPointExtension>
        </extensions>
      </trkpt>
      <trkpt lat="45.32742303796112537384033203125" lon="-70.90319274924695491790771484375">
        <ele>587.4000244140625</ele>
        <time>2026-08-21T16:44:37.000Z</time>
        <extensions>
          <ns3:TrackPointExtension>
            <ns3:hr>129</ns3:hr>
            <ns3:cad>0</ns3:cad>
          </ns3:TrackPointExtension>
        </extensions>
      </trkpt>
      <trkpt lat="45.32742152921855449676513671875" lon="-70.90321772731840610504150390625">
        <ele>587.5999755859375</ele>
        <time>2026-08-21T16:44:38.000Z</time>
        <extensions>
          <ns3:TrackPointExtension>
            <ns3:hr>129</ns3:hr>
            <ns3:cad>0</ns3:cad>
          </ns3:TrackPointExtension>
        </extensions>
      </trkpt>
      <trkpt lat="45.3274212777614593505859375" lon="-70.90323574841022491455078125">
        <ele>587.5999755859375</ele>
        <time>2026-08-21T16:44:39.000Z</time>
        <extensions>
          <ns3:TrackPointExtension>
            <ns3:hr>129</ns3:hr>
            <ns3:cad>0</ns3:cad>
          </ns3:TrackPointExtension>
        </extensions>
      </trkpt>
      <trkpt lat="45.32741792500019073486328125" lon="-70.90326583944261074066162109375">
        <ele>587.5999755859375</ele>
        <time>2026-08-21T16:44:40.000Z</time>
        <extensions>
          <ns3:TrackPointExtension>
            <ns3:hr>130</ns3:hr>
            <ns3:cad>0</ns3:cad>
          </ns3:TrackPointExtension>
        </extensions>
      </trkpt>
      <trkpt lat="45.32741297967731952667236328125" lon="-70.9032744728028774261474609375">
        <ele>587.79998779296875</ele>
        <time>2026-08-21T16:44:41.000Z</time>
        <extensions>
          <ns3:TrackPointExtension>
            <ns3:hr>130</ns3:hr>
            <ns3:cad>0</ns3:cad>
          </ns3:TrackPointExtension>
        </extensions>
      </trkpt>
      <trkpt lat="45.3273999877274036407470703125" lon="-70.9032784961163997650146484375">
        <ele>587.79998779296875</ele>
        <time>2026-08-21T16:44:42.000Z</time>
        <extensions>
          <ns3:TrackPointExtension>
            <ns3:hr>132</ns3:hr>
            <ns3:cad>0</ns3:cad>
          </ns3:TrackPointExtension>
        </extensions>
      </trkpt>
      <trkpt lat="45.32739101909101009368896484375" lon="-70.90328059159219264984130859375">
        <ele>587.79998779296875</ele>
        <time>2026-08-21T16:44:43.000Z</time>
        <extensions>
          <ns3:TrackPointExtension>
            <ns3:hr>135</ns3:hr>
            <ns3:cad>55</ns3:cad>
          </ns3:TrackPointExtension>
        </extensions>
      </trkpt>
      <trkpt lat="45.32737760804593563079833984375" lon="-70.90329333208501338958740234375">
        <ele>588</ele>
        <time>2026-08-21T16:44:44.000Z</time>
        <extensions>
          <ns3:TrackPointExtension>
            <ns3:hr>137</ns3:hr>
            <ns3:cad>55</ns3:cad>
          </ns3:TrackPointExtension>
        </extensions>
      </trkpt>
      <trkpt lat="45.32737190835177898406982421875" lon="-70.9033059887588024139404296875">
        <ele>588</ele>
        <time>2026-08-21T16:44:45.000Z</time>
        <extensions>
          <ns3:TrackPointExtension>
            <ns3:hr>138</ns3:hr>
            <ns3:cad>0</ns3:cad>
          </ns3:TrackPointExtension>
        </extensions>
      </trkpt>
      <trkpt lat="45.32736386172473430633544921875" lon="-70.9033190645277500152587890625">
        <ele>588</ele>
        <time>2026-08-21T16:44:46.000Z</time>
        <extensions>
          <ns3:TrackPointExtension>
            <ns3:hr>138</ns3:hr>
            <ns3:cad>0</ns3:cad>
          </ns3:TrackPointExtension>
        </extensions>
      </trkpt>
      <trkpt lat="45.32735288143157958984375" lon="-70.90333322994410991668701171875">
        <ele>588.20001220703125</ele>
        <time>2026-08-21T16:44:47.000Z</time>
        <extensions>
          <ns3:TrackPointExtension>
            <ns3:hr>139</ns3:hr>
            <ns3:cad>0</ns3:cad>
          </ns3:TrackPointExtension>
        </extensions>
      </trkpt>
      <trkpt lat="45.327344834804534912109375" lon="-70.90334865264594554901123046875">
        <ele>588.20001220703125</ele>
        <time>2026-08-21T16:44:48.000Z</time>
        <extensions>
          <ns3:TrackPointExtension>
            <ns3:hr>139</ns3:hr>
            <ns3:cad>0</ns3:cad>
          </ns3:TrackPointExtension>
        </extensions>
      </trkpt>
      <trkpt lat="45.32733787782490253448486328125" lon="-70.903362147510051727294921875">
        <ele>588.20001220703125</ele>
        <time>2026-08-21T16:44:49.000Z</time>
        <extensions>
          <ns3:TrackPointExtension>
            <ns3:hr>139</ns3:hr>
            <ns3:cad>0</ns3:cad>
          </ns3:TrackPointExtension>
        </extensions>
      </trkpt>
      <trkpt lat="45.32732916064560413360595703125" lon="-70.90337564237415790557861328125">
        <ele>588.20001220703125</ele>
        <time>2026-08-21T16:44:50.000Z</time>
        <extensions>
          <ns3:TrackPointExtension>
            <ns3:hr>139</ns3:hr>
            <ns3:cad>0</ns3:cad>
          </ns3:TrackPointExtension>
        </extensions>
      </trkpt>
      <trkpt lat="45.32732002437114715576171875" lon="-70.9033908136188983917236328125">
        <ele>588.4000244140625</ele>
        <time>2026-08-21T16:44:51.000Z</time>
        <extensions>
          <ns3:TrackPointExtension>
            <ns3:hr>139</ns3:hr>
            <ns3:cad>0</ns3:cad>
          </ns3:TrackPointExtension>
        </extensions>
      </trkpt>
      <trkpt lat="45.3273104690015316009521484375" lon="-70.903409086167812347412109375">
        <ele>588.4000244140625</ele>
        <time>2026-08-21T16:44:52.000Z</time>
        <extensions>
          <ns3:TrackPointExtension>
            <ns3:hr>138</ns3:hr>
            <ns3:cad>0</ns3:cad>
          </ns3:TrackPointExtension>
        </extensions>
      </trkpt>
      <trkpt lat="45.3273005783557891845703125" lon="-70.90342618525028228759765625">
        <ele>588.4000244140625</ele>
        <time>2026-08-21T16:44:53.000Z</time>
        <extensions>
          <ns3:TrackPointExtension>
            <ns3:hr>138</ns3:hr>
            <ns3:cad>55</ns3:cad>
          </ns3:TrackPointExtension>
        </extensions>
      </trkpt>
      <trkpt lat="45.32728708349168300628662109375" lon="-70.90344630181789398193359375">
        <ele>588.5999755859375</ele>
        <time>2026-08-21T16:44:54.000Z</time>
        <extensions>
          <ns3:TrackPointExtension>
            <ns3:hr>138</ns3:hr>
            <ns3:cad>55</ns3:cad>
          </ns3:TrackPointExtension>
        </extensions>
      </trkpt>
      <trkpt lat="45.32727953977882862091064453125" lon="-70.90346633456647396087646484375">
        <ele>588.5999755859375</ele>
        <time>2026-08-21T16:44:55.000Z</time>
        <extensions>
          <ns3:TrackPointExtension>
            <ns3:hr>137</ns3:hr>
            <ns3:cad>55</ns3:cad>
          </ns3:TrackPointExtension>
        </extensions>
      </trkpt>
      <trkpt lat="45.32727970741689205169677734375" lon="-70.90348410420119762420654296875">
        <ele>588.5999755859375</ele>
        <time>2026-08-21T16:44:56.000Z</time>
        <extensions>
          <ns3:TrackPointExtension>
            <ns3:hr>137</ns3:hr>
            <ns3:cad>55</ns3:cad>
          </ns3:TrackPointExtension>
        </extensions>
      </trkpt>
      <trkpt lat="45.327280126512050628662109375" lon="-70.90350070036947727203369140625">
        <ele>588.79998779296875</ele>
        <time>2026-08-21T16:44:57.000Z</time>
        <extensions>
          <ns3:TrackPointExtension>
            <ns3:hr>136</ns3:hr>
            <ns3:cad>55</ns3:cad>
          </ns3:TrackPointExtension>
        </extensions>
      </trkpt>
      <trkpt lat="45.327274091541767120361328125" lon="-70.90352140367031097412109375">
        <ele>588.79998779296875</ele>
        <time>2026-08-21T16:44:58.000Z</time>
        <extensions>
          <ns3:TrackPointExtension>
            <ns3:hr>136</ns3:hr>
            <ns3:cad>0</ns3:cad>
          </ns3:TrackPointExtension>
        </extensions>
      </trkpt>
      <trkpt lat="45.327266715466976165771484375" lon="-70.90354009531438350677490234375">
        <ele>588.79998779296875</ele>
        <time>2026-08-21T16:44:59.000Z</time>
        <extensions>
          <ns3:TrackPointExtension>
            <ns3:hr>137</ns3:hr>
            <ns3:cad>0</ns3:cad>
          </ns3:TrackPointExtension>
        </extensions>
      </trkpt>
      <trkpt lat="45.327261351048946380615234375" lon="-70.9035628102719783782958984375">
        <ele>588.79998779296875</ele>
        <time>2026-08-21T16:45:00.000Z</time>
        <extensions>
          <ns3:TrackPointExtension>
            <ns3:hr>137</ns3:hr>
            <ns3:cad>55</ns3:cad>
          </ns3:TrackPointExtension>
        </extensions>
      </trkpt>
      <trkpt lat="45.3272549808025360107421875" lon="-70.90358217246830463409423828125">
        <ele>588.79998779296875</ele>
        <time>2026-08-21T16:45:01.000Z</time>
        <extensions>
          <ns3:TrackPointExtension>
            <ns3:hr>137</ns3:hr>
            <ns3:cad>55</ns3:cad>
          </ns3:TrackPointExtension>
        </extensions>
      </trkpt>
      <trkpt lat="45.32724567689001560211181640625" lon="-70.90360279195010662078857421875">
        <ele>589</ele>
        <time>2026-08-21T16:45:02.000Z</time>
        <extensions>
          <ns3:TrackPointExtension>
            <ns3:hr>137</ns3:hr>
            <ns3:cad>55</ns3:cad>
          </ns3:TrackPointExtension>
        </extensions>
      </trkpt>
      <trkpt lat="45.32723394222557544708251953125" lon="-70.90362332761287689208984375">
        <ele>589</ele>
        <time>2026-08-21T16:45:03.000Z</time>
        <extensions>
          <ns3:TrackPointExtension>
            <ns3:hr>137</ns3:hr>
            <ns3:cad>55</ns3:cad>
          </ns3:TrackPointExtension>
        </extensions>
      </trkpt>
      <trkpt lat="45.32722690142691135406494140625" lon="-70.90363732539117336273193359375">
        <ele>589.20001220703125</ele>
        <time>2026-08-21T16:45:04.000Z</time>
        <extensions>
          <ns3:TrackPointExtension>
            <ns3:hr>137</ns3:hr>
            <ns3:cad>55</ns3:cad>
          </ns3:TrackPointExtension>
        </extensions>
      </trkpt>
      <trkpt lat="45.32722036354243755340576171875" lon="-70.9036449529230594635009765625">
        <ele>589.20001220703125</ele>
        <time>2026-08-21T16:45:05.000Z</time>
        <extensions>
          <ns3:TrackPointExtension>
            <ns3:hr>137</ns3:hr>
            <ns3:cad>0</ns3:cad>
          </ns3:TrackPointExtension>
        </extensions>
      </trkpt>
      <trkpt lat="45.3272112272679805755615234375" lon="-70.9036548435688018798828125">
        <ele>589.4000244140625</ele>
        <time>2026-08-21T16:45:06.000Z</time>
        <extensions>
          <ns3:TrackPointExtension>
            <ns3:hr>137</ns3:hr>
            <ns3:cad>0</ns3:cad>
          </ns3:TrackPointExtension>
        </extensions>
      </trkpt>
      <trkpt lat="45.32720209099352359771728515625" lon="-70.90366783551871776580810546875">
        <ele>589.5999755859375</ele>
        <time>2026-08-21T16:45:07.000Z</time>
        <extensions>
          <ns3:TrackPointExtension>
            <ns3:hr>137</ns3:hr>
            <ns3:cad>0</ns3:cad>
          </ns3:TrackPointExtension>
        </extensions>
      </trkpt>
      <trkpt lat="45.3271932899951934814453125" lon="-70.90368124656379222869873046875">
        <ele>589.5999755859375</ele>
        <time>2026-08-21T16:45:08.000Z</time>
        <extensions>
          <ns3:TrackPointExtension>
            <ns3:hr>136</ns3:hr>
            <ns3:cad>0</ns3:cad>
          </ns3:TrackPointExtension>
        </extensions>
      </trkpt>
      <trkpt lat="45.3271854110062122344970703125" lon="-70.90370018966495990753173828125">
        <ele>589.79998779296875</ele>
        <time>2026-08-21T16:45:09.000Z</time>
        <extensions>
          <ns3:TrackPointExtension>
            <ns3:hr>136</ns3:hr>
            <ns3:cad>0</ns3:cad>
          </ns3:TrackPointExtension>
        </extensions>
      </trkpt>
      <trkpt lat="45.32717376016080379486083984375" lon="-70.9037197194993495941162109375">
        <ele>589.79998779296875</ele>
        <time>2026-08-21T16:45:10.000Z</time>
        <extensions>
          <ns3:TrackPointExtension>
            <ns3:hr>136</ns3:hr>
            <ns3:cad>0</ns3:cad>
          </ns3:TrackPointExtension>
        </extensions>
      </trkpt>
      <trkpt lat="45.3271636180579662322998046875" lon="-70.9037388302385807037353515625">
        <ele>589.79998779296875</ele>
        <time>2026-08-21T16:45:11.000Z</time>
        <extensions>
          <ns3:TrackPointExtension>
            <ns3:hr>136</ns3:hr>
            <ns3:cad>0</ns3:cad>
          </ns3:TrackPointExtension>
        </extensions>
      </trkpt>
      <trkpt lat="45.32715800218284130096435546875" lon="-70.903745703399181365966796875">
        <ele>589.79998779296875</ele>
        <time>2026-08-21T16:45:12.000Z</time>
        <extensions>
          <ns3:TrackPointExtension>
            <ns3:hr>136</ns3:hr>
            <ns3:cad>0</ns3:cad>
          </ns3:TrackPointExtension>
        </extensions>
      </trkpt>
      <trkpt lat="45.3271518833935260772705078125" lon="-70.9037532471120357513427734375">
        <ele>589.79998779296875</ele>
        <time>2026-08-21T16:45:13.000Z</time>
        <extensions>
          <ns3:TrackPointExtension>
            <ns3:hr>135</ns3:hr>
            <ns3:cad>0</ns3:cad>
          </ns3:TrackPointExtension>
        </extensions>
      </trkpt>
      <trkpt lat="45.3271448425948619842529296875" lon="-70.9037579409778118133544921875">
        <ele>589.79998779296875</ele>
        <time>2026-08-21T16:45:14.000Z</time>
        <extensions>
          <ns3:TrackPointExtension>
            <ns3:hr>135</ns3:hr>
            <ns3:cad>0</ns3:cad>
          </ns3:TrackPointExtension>
        </extensions>
      </trkpt>
      <trkpt lat="45.3271378017961978912353515625" lon="-70.90376540087163448333740234375">
        <ele>589.79998779296875</ele>
        <time>2026-08-21T16:45:15.000Z</time>
        <extensions>
          <ns3:TrackPointExtension>
            <ns3:hr>135</ns3:hr>
            <ns3:cad>0</ns3:cad>
          </ns3:TrackPointExtension>
        </extensions>
      </trkpt>
      <trkpt lat="45.3271321021020412445068359375" lon="-70.9037770517170429229736328125">
        <ele>589.79998779296875</ele>
        <time>2026-08-21T16:45:16.000Z</time>
        <extensions>
          <ns3:TrackPointExtension>
            <ns3:hr>135</ns3:hr>
            <ns3:cad>0</ns3:cad>
          </ns3:TrackPointExtension>
        </extensions>
      </trkpt>
      <trkpt lat="45.32712648622691631317138671875" lon="-70.9037961624562740325927734375">
        <ele>589.79998779296875</ele>
        <time>2026-08-21T16:45:17.000Z</time>
        <extensions>
          <ns3:TrackPointExtension>
            <ns3:hr>134</ns3:hr>
            <ns3:cad>0</ns3:cad>
          </ns3:TrackPointExtension>
        </extensions>
      </trkpt>
      <trkpt lat="45.3271180205047130584716796875" lon="-70.9038152731955051422119140625">
        <ele>589.79998779296875</ele>
        <time>2026-08-21T16:45:18.000Z</time>
        <extensions>
          <ns3:TrackPointExtension>
            <ns3:hr>134</ns3:hr>
            <ns3:cad>50</ns3:cad>
          </ns3:TrackPointExtension>
        </extensions>
      </trkpt>
      <trkpt lat="45.327108465135097503662109375" lon="-70.903826840221881866455078125">
        <ele>590</ele>
        <time>2026-08-21T16:45:19.000Z</time>
        <extensions>
          <ns3:TrackPointExtension>
            <ns3:hr>134</ns3:hr>
            <ns3:cad>50</ns3:cad>
          </ns3:TrackPointExtension>
        </extensions>
      </trkpt>
      <trkpt lat="45.327095724642276763916015625" lon="-70.9038357250392436981201171875">
        <ele>590</ele>
        <time>2026-08-21T16:45:20.000Z</time>
        <extensions>
          <ns3:TrackPointExtension>
            <ns3:hr>134</ns3:hr>
            <ns3:cad>50</ns3:cad>
          </ns3:TrackPointExtension>
        </extensions>
      </trkpt>
      <trkpt lat="45.32708725892007350921630859375" lon="-70.90384486131370067596435546875">
        <ele>590</ele>
        <time>2026-08-21T16:45:21.000Z</time>
        <extensions>
          <ns3:TrackPointExtension>
            <ns3:hr>134</ns3:hr>
            <ns3:cad>50</ns3:cad>
          </ns3:TrackPointExtension>
        </extensions>
      </trkpt>
      <trkpt lat="45.32708088867366313934326171875" lon="-70.90386179275810718536376953125">
        <ele>590</ele>
        <time>2026-08-21T16:45:22.000Z</time>
        <extensions>
          <ns3:TrackPointExtension>
            <ns3:hr>134</ns3:hr>
            <ns3:cad>0</ns3:cad>
          </ns3:TrackPointExtension>
        </extensions>
      </trkpt>
      <trkpt lat="45.32707736827433109283447265625" lon="-70.90388308279216289520263671875">
        <ele>590</ele>
        <time>2026-08-21T16:45:23.000Z</time>
        <extensions>
          <ns3:TrackPointExtension>
            <ns3:hr>133</ns3:hr>
            <ns3:cad>0</ns3:cad>
          </ns3:TrackPointExtension>
        </extensions>
      </trkpt>
      <trkpt lat="45.32706328667700290679931640625" lon="-70.90389967896044254302978515625">
        <ele>590</ele>
        <time>2026-08-21T16:45:24.000Z</time>
        <extensions>
          <ns3:TrackPointExtension>
            <ns3:hr>132</ns3:hr>
            <ns3:cad>0</ns3:cad>
          </ns3:TrackPointExtension>
        </extensions>
      </trkpt>
      <trkpt lat="45.32705138437449932098388671875" lon="-70.9039161913096904754638671875">
        <ele>590</ele>
        <time>2026-08-21T16:45:25.000Z</time>
        <extensions>
          <ns3:TrackPointExtension>
            <ns3:hr>131</ns3:hr>
            <ns3:cad>0</ns3:cad>
          </ns3:TrackPointExtension>
        </extensions>
      </trkpt>
      <trkpt lat="45.32704467885196208953857421875" lon="-70.90392868034541606903076171875">
        <ele>590</ele>
        <time>2026-08-21T16:45:26.000Z</time>
        <extensions>
          <ns3:TrackPointExtension>
            <ns3:hr>131</ns3:hr>
            <ns3:cad>0</ns3:cad>
          </ns3:TrackPointExtension>
        </extensions>
      </trkpt>
      <trkpt lat="45.327035374939441680908203125" lon="-70.90394611470401287078857421875">
        <ele>590.20001220703125</ele>
        <time>2026-08-21T16:45:27.000Z</time>
        <extensions>
          <ns3:TrackPointExtension>
            <ns3:hr>132</ns3:hr>
            <ns3:cad>0</ns3:cad>
          </ns3:TrackPointExtension>
        </extensions>
      </trkpt>
      <trkpt lat="45.32703126780688762664794921875" lon="-70.9039627946913242340087890625">
        <ele>590.20001220703125</ele>
        <time>2026-08-21T16:45:28.000Z</time>
        <extensions>
          <ns3:TrackPointExtension>
            <ns3:hr>132</ns3:hr>
            <ns3:cad>0</ns3:cad>
          </ns3:TrackPointExtension>
        </extensions>
      </trkpt>
      <trkpt lat="45.3270238079130649566650390625" lon="-70.903975032269954681396484375">
        <ele>590.20001220703125</ele>
        <time>2026-08-21T16:45:29.000Z</time>
        <extensions>
          <ns3:TrackPointExtension>
            <ns3:hr>132</ns3:hr>
            <ns3:cad>0</ns3:cad>
          </ns3:TrackPointExtension>
        </extensions>
      </trkpt>
      <trkpt lat="45.32701165415346622467041015625" lon="-70.9039919637143611907958984375">
        <ele>590.20001220703125</ele>
        <time>2026-08-21T16:45:30.000Z</time>
        <extensions>
          <ns3:TrackPointExtension>
            <ns3:hr>132</ns3:hr>
            <ns3:cad>0</ns3:cad>
          </ns3:TrackPointExtension>
        </extensions>
      </trkpt>
      <trkpt lat="45.32699958421289920806884765625" lon="-70.90400529094040393829345703125">
        <ele>590.4000244140625</ele>
        <time>2026-08-21T16:45:31.000Z</time>
        <extensions>
          <ns3:TrackPointExtension>
            <ns3:hr>132</ns3:hr>
            <ns3:cad>0</ns3:cad>
          </ns3:TrackPointExtension>
        </extensions>
      </trkpt>
      <trkpt lat="45.32699690200388431549072265625" lon="-70.9040184505283832550048828125">
        <ele>590.5999755859375</ele>
        <time>2026-08-21T16:45:32.000Z</time>
        <extensions>
          <ns3:TrackPointExtension>
            <ns3:hr>132</ns3:hr>
            <ns3:cad>0</ns3:cad>
          </ns3:TrackPointExtension>
        </extensions>
      </trkpt>
      <trkpt lat="45.3269919566810131072998046875" lon="-70.90404049493372440338134765625">
        <ele>590.5999755859375</ele>
        <time>2026-08-21T16:45:33.000Z</time>
        <extensions>
          <ns3:TrackPointExtension>
            <ns3:hr>132</ns3:hr>
            <ns3:cad>0</ns3:cad>
          </ns3:TrackPointExtension>
        </extensions>
      </trkpt>
      <trkpt lat="45.32698935829102993011474609375" lon="-70.90406212024390697479248046875">
        <ele>590.5999755859375</ele>
        <time>2026-08-21T16:45:34.000Z</time>
        <extensions>
          <ns3:TrackPointExtension>
            <ns3:hr>132</ns3:hr>
            <ns3:cad>0</ns3:cad>
          </ns3:TrackPointExtension>
        </extensions>
      </trkpt>
      <trkpt lat="45.32698214985430240631103515625" lon="-70.9040828235447406768798828125">
        <ele>590.79998779296875</ele>
        <time>2026-08-21T16:45:35.000Z</time>
        <extensions>
          <ns3:TrackPointExtension>
            <ns3:hr>133</ns3:hr>
            <ns3:cad>57</ns3:cad>
          </ns3:TrackPointExtension>
        </extensions>
      </trkpt>
      <trkpt lat="45.326977036893367767333984375" lon="-70.9040992520749568939208984375">
        <ele>590.79998779296875</ele>
        <time>2026-08-21T16:45:36.000Z</time>
        <extensions>
          <ns3:TrackPointExtension>
            <ns3:hr>133</ns3:hr>
            <ns3:cad>57</ns3:cad>
          </ns3:TrackPointExtension>
        </extensions>
      </trkpt>
      <trkpt lat="45.32697628252208232879638671875" lon="-70.90411484241485595703125">
        <ele>590.79998779296875</ele>
        <time>2026-08-21T16:45:37.000Z</time>
        <extensions>
          <ns3:TrackPointExtension>
            <ns3:hr>133</ns3:hr>
            <ns3:cad>57</ns3:cad>
          </ns3:TrackPointExtension>
        </extensions>
      </trkpt>
      <trkpt lat="45.32697527669370174407958984375" lon="-70.90413487516343593597412109375">
        <ele>590.79998779296875</ele>
        <time>2026-08-21T16:45:38.000Z</time>
        <extensions>
          <ns3:TrackPointExtension>
            <ns3:hr>132</ns3:hr>
            <ns3:cad>57</ns3:cad>
          </ns3:TrackPointExtension>
        </extensions>
      </trkpt>
      <trkpt lat="45.32697427086532115936279296875" lon="-70.904149375855922698974609375">
        <ele>590.79998779296875</ele>
        <time>2026-08-21T16:45:39.000Z</time>
        <extensions>
          <ns3:TrackPointExtension>
            <ns3:hr>132</ns3:hr>
            <ns3:cad>57</ns3:cad>
          </ns3:TrackPointExtension>
        </extensions>
      </trkpt>
      <trkpt lat="45.3269745223224163055419921875" lon="-70.9041636250913143157958984375">
        <ele>590.79998779296875</ele>
        <time>2026-08-21T16:45:40.000Z</time>
        <extensions>
          <ns3:TrackPointExtension>
            <ns3:hr>133</ns3:hr>
            <ns3:cad>57</ns3:cad>
          </ns3:TrackPointExtension>
        </extensions>
      </trkpt>
      <trkpt lat="45.3269721753895282745361328125" lon="-70.90418164618313312530517578125">
        <ele>591</ele>
        <time>2026-08-21T16:45:41.000Z</time>
        <extensions>
          <ns3:TrackPointExtension>
            <ns3:hr>134</ns3:hr>
            <ns3:cad>57</ns3:cad>
          </ns3:TrackPointExtension>
        </extensions>
      </trkpt>
      <trkpt lat="45.3269725106656551361083984375" lon="-70.9041994996368885040283203125">
        <ele>591</ele>
        <time>2026-08-21T16:45:42.000Z</time>
        <extensions>
          <ns3:TrackPointExtension>
            <ns3:hr>134</ns3:hr>
            <ns3:cad>57</ns3:cad>
          </ns3:TrackPointExtension>
        </extensions>
      </trkpt>
      <trkpt lat="45.3269668109714984893798828125" lon="-70.90420930646359920501708984375">
        <ele>591</ele>
        <time>2026-08-21T16:45:43.000Z</time>
        <extensions>
          <ns3:TrackPointExtension>
            <ns3:hr>134</ns3:hr>
            <ns3:cad>57</ns3:cad>
          </ns3:TrackPointExtension>
        </extensions>
      </trkpt>
      <trkpt lat="45.3269624523818492889404296875" lon="-70.90422506444156169891357421875">
        <ele>591.20001220703125</ele>
        <time>2026-08-21T16:45:44.000Z</time>
        <extensions>
          <ns3:TrackPointExtension>
            <ns3:hr>134</ns3:hr>
            <ns3:cad>44</ns3:cad>
          </ns3:TrackPointExtension>
        </extensions>
      </trkpt>
      <trkpt lat="45.32695516012609004974365234375" lon="-70.90424685738980770111083984375">
        <ele>591.20001220703125</ele>
        <time>2026-08-21T16:45:45.000Z</time>
        <extensions>
          <ns3:TrackPointExtension>
            <ns3:hr>134</ns3:hr>
            <ns3:cad>44</ns3:cad>
          </ns3:TrackPointExtension>
        </extensions>
      </trkpt>
      <trkpt lat="45.32695231027901172637939453125" lon="-70.90426378883421421051025390625">
        <ele>591.4000244140625</ele>
        <time>2026-08-21T16:45:46.000Z</time>
        <extensions>
          <ns3:TrackPointExtension>
            <ns3:hr>134</ns3:hr>
            <ns3:cad>44</ns3:cad>
          </ns3:TrackPointExtension>
        </extensions>
      </trkpt>
      <trkpt lat="45.32695365138351917266845703125" lon="-70.90428390540182590484619140625">
        <ele>591.4000244140625</ele>
        <time>2026-08-21T16:45:47.000Z</time>
        <extensions>
          <ns3:TrackPointExtension>
            <ns3:hr>134</ns3:hr>
            <ns3:cad>0</ns3:cad>
          </ns3:TrackPointExtension>
        </extensions>
      </trkpt>
      <trkpt lat="45.32695390284061431884765625" lon="-70.90430553071200847625732421875">
        <ele>591.4000244140625</ele>
        <time>2026-08-21T16:45:48.000Z</time>
        <extensions>
          <ns3:TrackPointExtension>
            <ns3:hr>134</ns3:hr>
            <ns3:cad>0</ns3:cad>
          </ns3:TrackPointExtension>
        </extensions>
      </trkpt>
      <trkpt lat="45.32695256173610687255859375" lon="-70.904319025576114654541015625">
        <ele>591.4000244140625</ele>
        <time>2026-08-21T16:45:49.000Z</time>
        <extensions>
          <ns3:TrackPointExtension>
            <ns3:hr>134</ns3:hr>
            <ns3:cad>0</ns3:cad>
          </ns3:TrackPointExtension>
        </extensions>
      </trkpt>
      <trkpt lat="45.326949544250965118408203125" lon="-70.90434073470532894134521484375">
        <ele>591.4000244140625</ele>
        <time>2026-08-21T16:45:50.000Z</time>
        <extensions>
          <ns3:TrackPointExtension>
            <ns3:hr>134</ns3:hr>
            <ns3:cad>0</ns3:cad>
          </ns3:TrackPointExtension>
        </extensions>
      </trkpt>
      <trkpt lat="45.3269456885755062103271484375" lon="-70.9043657965958118438720703125">
        <ele>591.5999755859375</ele>
        <time>2026-08-21T16:45:51.000Z</time>
        <extensions>
          <ns3:TrackPointExtension>
            <ns3:hr>134</ns3:hr>
            <ns3:cad>0</ns3:cad>
          </ns3:TrackPointExtension>
        </extensions>
      </trkpt>
      <trkpt lat="45.32694694586098194122314453125" lon="-70.9043822251260280609130859375">
        <ele>591.5999755859375</ele>
        <time>2026-08-21T16:45:52.000Z</time>
        <extensions>
          <ns3:TrackPointExtension>
            <ns3:hr>134</ns3:hr>
            <ns3:cad>0</ns3:cad>
          </ns3:TrackPointExtension>
        </extensions>
      </trkpt>
      <trkpt lat="45.326948873698711395263671875" lon="-70.90440359897911548614501953125">
        <ele>591.79998779296875</ele>
        <time>2026-08-21T16:45:53.000Z</time>
        <extensions>
          <ns3:TrackPointExtension>
            <ns3:hr>134</ns3:hr>
            <ns3:cad>0</ns3:cad>
          </ns3:TrackPointExtension>
        </extensions>
      </trkpt>
      <trkpt lat="45.326952897012233734130859375" lon="-70.90442237444221973419189453125">
        <ele>592</ele>
        <time>2026-08-21T16:45:54.000Z</time>
        <extensions>
          <ns3:TrackPointExtension>
            <ns3:hr>134</ns3:hr>
            <ns3:cad>0</ns3:cad>
          </ns3:TrackPointExtension>
        </extensions>
      </trkpt>
      <trkpt lat="45.326955579221248626708984375" lon="-70.90444148518145084381103515625">
        <ele>592</ele>
        <time>2026-08-21T16:45:55.000Z</time>
        <extensions>
          <ns3:TrackPointExtension>
            <ns3:hr>134</ns3:hr>
            <ns3:cad>0</ns3:cad>
          </ns3:TrackPointExtension>
        </extensions>
      </trkpt>
      <trkpt lat="45.3269537352025508880615234375" lon="-70.9044546447694301605224609375">
        <ele>592.20001220703125</ele>
        <time>2026-08-21T16:45:56.000Z</time>
        <extensions>
          <ns3:TrackPointExtension>
            <ns3:hr>134</ns3:hr>
            <ns3:cad>54</ns3:cad>
          </ns3:TrackPointExtension>
        </extensions>
      </trkpt>
      <trkpt lat="45.326953232288360595703125" lon="-70.90447300113737583160400390625">
        <ele>592.20001220703125</ele>
        <time>2026-08-21T16:45:57.000Z</time>
        <extensions>
          <ns3:TrackPointExtension>
            <ns3:hr>133</ns3:hr>
            <ns3:cad>54</ns3:cad>
          </ns3:TrackPointExtension>
        </extensions>
      </trkpt>
      <trkpt lat="45.32695448957383632659912109375" lon="-70.90449043549597263336181640625">
        <ele>592.4000244140625</ele>
        <time>2026-08-21T16:45:58.000Z</time>
        <extensions>
          <ns3:TrackPointExtension>
            <ns3:hr>134</ns3:hr>
            <ns3:cad>54</ns3:cad>
          </ns3:TrackPointExtension>
        </extensions>
      </trkpt>
      <trkpt lat="45.3269590996205806732177734375" lon="-70.90451340191066265106201171875">
        <ele>592.5999755859375</ele>
        <time>2026-08-21T16:45:59.000Z</time>
        <extensions>
          <ns3:TrackPointExtension>
            <ns3:hr>133</ns3:hr>
            <ns3:cad>54</ns3:cad>
          </ns3:TrackPointExtension>
        </extensions>
      </trkpt>
      <trkpt lat="45.326966308057308197021484375" lon="-70.90453754179179668426513671875">
        <ele>592.5999755859375</ele>
        <time>2026-08-21T16:46:00.000Z</time>
        <extensions>
          <ns3:TrackPointExtension>
            <ns3:hr>133</ns3:hr>
            <ns3:cad>54</ns3:cad>
          </ns3:TrackPointExtension>
        </extensions>
      </trkpt>
      <trkpt lat="45.32696924172341823577880859375" lon="-70.90456210076808929443359375">
        <ele>592.5999755859375</ele>
        <time>2026-08-21T16:46:01.000Z</time>
        <extensions>
          <ns3:TrackPointExtension>
            <ns3:hr>133</ns3:hr>
            <ns3:cad>54</ns3:cad>
          </ns3:TrackPointExtension>
        </extensions>
      </trkpt>
      <trkpt lat="45.3269668109714984893798828125" lon="-70.9045847319066524505615234375">
        <ele>592.79998779296875</ele>
        <time>2026-08-21T16:46:02.000Z</time>
        <extensions>
          <ns3:TrackPointExtension>
            <ns3:hr>133</ns3:hr>
            <ns3:cad>54</ns3:cad>
          </ns3:TrackPointExtension>
        </extensions>
      </trkpt>
      <trkpt lat="45.32696287147700786590576171875" lon="-70.904604010283946990966796875">
        <ele>592.79998779296875</ele>
        <time>2026-08-21T16:46:03.000Z</time>
        <extensions>
          <ns3:TrackPointExtension>
            <ns3:hr>133</ns3:hr>
            <ns3:cad>54</ns3:cad>
          </ns3:TrackPointExtension>
        </extensions>
      </trkpt>
      <trkpt lat="45.3269587643444538116455078125" lon="-70.90462136082351207733154296875">
        <ele>592.79998779296875</ele>
        <time>2026-08-21T16:46:04.000Z</time>
        <extensions>
          <ns3:TrackPointExtension>
            <ns3:hr>134</ns3:hr>
            <ns3:cad>54</ns3:cad>
          </ns3:TrackPointExtension>
        </extensions>
      </trkpt>
      <trkpt lat="45.32695256173610687255859375" lon="-70.9046266414225101470947265625">
        <ele>592.79998779296875</ele>
        <time>2026-08-21T16:46:05.000Z</time>
        <extensions>
          <ns3:TrackPointExtension>
            <ns3:hr>134</ns3:hr>
            <ns3:cad>54</ns3:cad>
          </ns3:TrackPointExtension>
        </extensions>
      </trkpt>
      <trkpt lat="45.32694543711841106414794921875" lon="-70.9046387113630771636962890625">
        <ele>593</ele>
        <time>2026-08-21T16:46:06.000Z</time>
        <extensions>
          <ns3:TrackPointExtension>
            <ns3:hr>135</ns3:hr>
            <ns3:cad>54</ns3:cad>
          </ns3:TrackPointExtension>
        </extensions>
      </trkpt>
      <trkpt lat="45.32693688757717609405517578125" lon="-70.90465321205556392669677734375">
        <ele>593</ele>
        <time>2026-08-21T16:46:07.000Z</time>
        <extensions>
          <ns3:TrackPointExtension>
            <ns3:hr>135</ns3:hr>
            <ns3:cad>56</ns3:cad>
          </ns3:TrackPointExtension>
        </extensions>
      </trkpt>
      <trkpt lat="45.3269292600452899932861328125" lon="-70.9046702273190021514892578125">
        <ele>593.20001220703125</ele>
        <time>2026-08-21T16:46:08.000Z</time>
        <extensions>
          <ns3:TrackPointExtension>
            <ns3:hr>135</ns3:hr>
            <ns3:cad>56</ns3:cad>
          </ns3:TrackPointExtension>
        </extensions>
      </trkpt>
      <trkpt lat="45.3269222192466259002685546875" lon="-70.904691852629184722900390625">
        <ele>593.4000244140625</ele>
        <time>2026-08-21T16:46:09.000Z</time>
        <extensions>
          <ns3:TrackPointExtension>
            <ns3:hr>135</ns3:hr>
            <ns3:cad>56</ns3:cad>
          </ns3:TrackPointExtension>
        </extensions>
      </trkpt>
      <trkpt lat="45.326917357742786407470703125" lon="-70.90471423231065273284912109375">
        <ele>593.4000244140625</ele>
        <time>2026-08-21T16:46:10.000Z</time>
        <extensions>
          <ns3:TrackPointExtension>
            <ns3:hr>135</ns3:hr>
            <ns3:cad>56</ns3:cad>
          </ns3:TrackPointExtension>
        </extensions>
      </trkpt>
      <trkpt lat="45.32691090367734432220458984375" lon="-70.90473619289696216583251953125">
        <ele>593.4000244140625</ele>
        <time>2026-08-21T16:46:11.000Z</time>
        <extensions>
          <ns3:TrackPointExtension>
            <ns3:hr>135</ns3:hr>
            <ns3:cad>57</ns3:cad>
          </ns3:TrackPointExtension>
        </extensions>
      </trkpt>
      <trkpt lat="45.32690587453544139862060546875" lon="-70.90475128032267093658447265625">
        <ele>593.5999755859375</ele>
        <time>2026-08-21T16:46:12.000Z</time>
        <extensions>
          <ns3:TrackPointExtension>
            <ns3:hr>135</ns3:hr>
            <ns3:cad>57</ns3:cad>
          </ns3:TrackPointExtension>
        </extensions>
      </trkpt>
      <trkpt lat="45.32690268941223621368408203125" lon="-70.9047721512615680694580078125">
        <ele>593.5999755859375</ele>
        <time>2026-08-21T16:46:13.000Z</time>
        <extensions>
          <ns3:TrackPointExtension>
            <ns3:hr>135</ns3:hr>
            <ns3:cad>57</ns3:cad>
          </ns3:TrackPointExtension>
        </extensions>
      </trkpt>
      <trkpt lat="45.32689983956515789031982421875" lon="-70.9047962911427021026611328125">
        <ele>593.79998779296875</ele>
        <time>2026-08-21T16:46:14.000Z</time>
        <extensions>
          <ns3:TrackPointExtension>
            <ns3:hr>136</ns3:hr>
            <ns3:cad>53</ns3:cad>
          </ns3:TrackPointExtension>
        </extensions>
      </trkpt>
      <trkpt lat="45.32690101303160190582275390625" lon="-70.90482227504253387451171875">
        <ele>593.79998779296875</ele>
        <time>2026-08-21T16:46:15.000Z</time>
        <extensions>
          <ns3:TrackPointExtension>
            <ns3:hr>136</ns3:hr>
            <ns3:cad>53</ns3:cad>
          </ns3:TrackPointExtension>
        </extensions>
      </trkpt>
      <trkpt lat="45.3269047848880290985107421875" lon="-70.90484247542917728424072265625">
        <ele>593.79998779296875</ele>
        <time>2026-08-21T16:46:16.000Z</time>
        <extensions>
          <ns3:TrackPointExtension>
            <ns3:hr>136</ns3:hr>
            <ns3:cad>53</ns3:cad>
          </ns3:TrackPointExtension>
        </extensions>
      </trkpt>
      <trkpt lat="45.32690570689737796783447265625" lon="-70.904863178730010986328125">
        <ele>593.79998779296875</ele>
        <time>2026-08-21T16:46:17.000Z</time>
        <extensions>
          <ns3:TrackPointExtension>
            <ns3:hr>136</ns3:hr>
            <ns3:cad>53</ns3:cad>
          </ns3:TrackPointExtension>
        </extensions>
      </trkpt>
      <trkpt lat="45.32690604217350482940673828125" lon="-70.904888324439525604248046875">
        <ele>593.79998779296875</ele>
        <time>2026-08-21T16:46:18.000Z</time>
        <extensions>
          <ns3:TrackPointExtension>
            <ns3:hr>137</ns3:hr>
            <ns3:cad>53</ns3:cad>
          </ns3:TrackPointExtension>
        </extensions>
      </trkpt>
      <trkpt lat="45.326904617249965667724609375" lon="-70.90490668080747127532958984375">
        <ele>593.79998779296875</ele>
        <time>2026-08-21T16:46:19.000Z</time>
        <extensions>
          <ns3:TrackPointExtension>
            <ns3:hr>138</ns3:hr>
            <ns3:cad>53</ns3:cad>
          </ns3:TrackPointExtension>
        </extensions>
      </trkpt>
      <trkpt lat="45.32690637744963169097900390625" lon="-70.904935263097286224365234375">
        <ele>593.79998779296875</ele>
        <time>2026-08-21T16:46:20.000Z</time>
        <extensions>
          <ns3:TrackPointExtension>
            <ns3:hr>138</ns3:hr>
            <ns3:cad>53</ns3:cad>
          </ns3:TrackPointExtension>
        </extensions>
      </trkpt>
      <trkpt lat="45.3269094787538051605224609375" lon="-70.90495646931231021881103515625">
        <ele>593.79998779296875</ele>
        <time>2026-08-21T16:46:21.000Z</time>
        <extensions>
          <ns3:TrackPointExtension>
            <ns3:hr>139</ns3:hr>
            <ns3:cad>55</ns3:cad>
          </ns3:TrackPointExtension>
        </extensions>
      </trkpt>
      <trkpt lat="45.32690654508769512176513671875" lon="-70.90497474186122417449951171875">
        <ele>593.79998779296875</ele>
        <time>2026-08-21T16:46:22.000Z</time>
        <extensions>
          <ns3:TrackPointExtension>
            <ns3:hr>139</ns3:hr>
            <ns3:cad>55</ns3:cad>
          </ns3:TrackPointExtension>
        </extensions>
      </trkpt>
      <trkpt lat="45.32689916901290416717529296875" lon="-70.904994942247867584228515625">
        <ele>594</ele>
        <time>2026-08-21T16:46:23.000Z</time>
        <extensions>
          <ns3:TrackPointExtension>
            <ns3:hr>139</ns3:hr>
            <ns3:cad>55</ns3:cad>
          </ns3:TrackPointExtension>
        </extensions>
      </trkpt>
      <trkpt lat="45.32689179293811321258544921875" lon="-70.9050115384161472320556640625">
        <ele>594</ele>
        <time>2026-08-21T16:46:24.000Z</time>
        <extensions>
          <ns3:TrackPointExtension>
            <ns3:hr>140</ns3:hr>
            <ns3:cad>55</ns3:cad>
          </ns3:TrackPointExtension>
        </extensions>
      </trkpt>
      <trkpt lat="45.3268928825855255126953125" lon="-70.9050340019166469573974609375">
        <ele>594</ele>
        <time>2026-08-21T16:46:25.000Z</time>
        <extensions>
          <ns3:TrackPointExtension>
            <ns3:hr>140</ns3:hr>
            <ns3:cad>55</ns3:cad>
          </ns3:TrackPointExtension>
        </extensions>
      </trkpt>
      <trkpt lat="45.32689799554646015167236328125" lon="-70.90505554340779781341552734375">
        <ele>594</ele>
        <time>2026-08-21T16:46:26.000Z</time>
        <extensions>
          <ns3:TrackPointExtension>
            <ns3:hr>140</ns3:hr>
            <ns3:cad>55</ns3:cad>
          </ns3:TrackPointExtension>
        </extensions>
      </trkpt>
      <trkpt lat="45.32690118066966533660888671875" lon="-70.9050755761563777923583984375">
        <ele>594</ele>
        <time>2026-08-21T16:46:27.000Z</time>
        <extensions>
          <ns3:TrackPointExtension>
            <ns3:hr>140</ns3:hr>
            <ns3:cad>55</ns3:cad>
          </ns3:TrackPointExtension>
        </extensions>
      </trkpt>
      <trkpt lat="45.3268987499177455902099609375" lon="-70.90509644709527492523193359375">
        <ele>594.20001220703125</ele>
        <time>2026-08-21T16:46:28.000Z</time>
        <extensions>
          <ns3:TrackPointExtension>
            <ns3:hr>140</ns3:hr>
            <ns3:cad>0</ns3:cad>
          </ns3:TrackPointExtension>
        </extensions>
      </trkpt>
      <trkpt lat="45.3268982470035552978515625" lon="-70.90511438436806201934814453125">
        <ele>594.20001220703125</ele>
        <time>2026-08-21T16:46:29.000Z</time>
        <extensions>
          <ns3:TrackPointExtension>
            <ns3:hr>141</ns3:hr>
            <ns3:cad>0</ns3:cad>
          </ns3:TrackPointExtension>
        </extensions>
      </trkpt>
      <trkpt lat="45.326895900070667266845703125" lon="-70.90513114817440509796142578125">
        <ele>594.20001220703125</ele>
        <time>2026-08-21T16:46:30.000Z</time>
        <extensions>
          <ns3:TrackPointExtension>
            <ns3:hr>142</ns3:hr>
            <ns3:cad>0</ns3:cad>
          </ns3:TrackPointExtension>
        </extensions>
      </trkpt>
      <trkpt lat="45.32689078710973262786865234375" lon="-70.90514740906655788421630859375">
        <ele>594.4000244140625</ele>
        <time>2026-08-21T16:46:31.000Z</time>
        <extensions>
          <ns3:TrackPointExtension>
            <ns3:hr>143</ns3:hr>
            <ns3:cad>0</ns3:cad>
          </ns3:TrackPointExtension>
        </extensions>
      </trkpt>
      <trkpt lat="45.3268821537494659423828125" lon="-70.9051614068448543548583984375">
        <ele>594.4000244140625</ele>
        <time>2026-08-21T16:46:32.000Z</time>
        <extensions>
          <ns3:TrackPointExtension>
            <ns3:hr>143</ns3:hr>
            <ns3:cad>0</ns3:cad>
          </ns3:TrackPointExtension>
        </extensions>
      </trkpt>
      <trkpt lat="45.326875112950801849365234375" lon="-70.9051744826138019561767578125">
        <ele>594.4000244140625</ele>
        <time>2026-08-21T16:46:33.000Z</time>
        <extensions>
          <ns3:TrackPointExtension>
            <ns3:hr>143</ns3:hr>
            <ns3:cad>0</ns3:cad>
          </ns3:TrackPointExtension>
        </extensions>
      </trkpt>
      <trkpt lat="45.32686765305697917938232421875" lon="-70.90519267134368419647216796875">
        <ele>594.4000244140625</ele>
        <time>2026-08-21T16:46:34.000Z</time>
        <extensions>
          <ns3:TrackPointExtension>
            <ns3:hr>142</ns3:hr>
            <ns3:cad>0</ns3:cad>
          </ns3:TrackPointExtension>
        </extensions>
      </trkpt>
      <trkpt lat="45.326862372457981109619140625" lon="-70.90520574711263179779052734375">
        <ele>594.5999755859375</ele>
        <time>2026-08-21T16:46:35.000Z</time>
        <extensions>
          <ns3:TrackPointExtension>
            <ns3:hr>143</ns3:hr>
            <ns3:cad>57</ns3:cad>
          </ns3:TrackPointExtension>
        </extensions>
      </trkpt>
      <trkpt lat="45.32685910351574420928955078125" lon="-70.90521991252899169921875">
        <ele>594.5999755859375</ele>
        <time>2026-08-21T16:46:36.000Z</time>
        <extensions>
          <ns3:TrackPointExtension>
            <ns3:hr>141</ns3:hr>
            <ns3:cad>57</ns3:cad>
          </ns3:TrackPointExtension>
        </extensions>
      </trkpt>
      <trkpt lat="45.32686178572475910186767578125" lon="-70.90523323975503444671630859375">
        <ele>594.5999755859375</ele>
        <time>2026-08-21T16:46:37.000Z</time>
        <extensions>
          <ns3:TrackPointExtension>
            <ns3:hr>140</ns3:hr>
            <ns3:cad>57</ns3:cad>
          </ns3:TrackPointExtension>
        </extensions>
      </trkpt>
      <trkpt lat="45.32686027698218822479248046875" lon="-70.90524279512465000152587890625">
        <ele>594.79998779296875</ele>
        <time>2026-08-21T16:46:38.000Z</time>
        <extensions>
          <ns3:TrackPointExtension>
            <ns3:hr>140</ns3:hr>
            <ns3:cad>57</ns3:cad>
          </ns3:TrackPointExtension>
        </extensions>
      </trkpt>
      <trkpt lat="45.32685591839253902435302734375" lon="-70.90526056475937366485595703125">
        <ele>594.79998779296875</ele>
        <time>2026-08-21T16:46:39.000Z</time>
        <extensions>
          <ns3:TrackPointExtension>
            <ns3:hr>140</ns3:hr>
            <ns3:cad>57</ns3:cad>
          </ns3:TrackPointExtension>
        </extensions>
      </trkpt>
      <trkpt lat="45.32685466110706329345703125" lon="-70.9052824415266513824462890625">
        <ele>595</ele>
        <time>2026-08-21T16:46:40.000Z</time>
        <extensions>
          <ns3:TrackPointExtension>
            <ns3:hr>139</ns3:hr>
            <ns3:cad>55</ns3:cad>
          </ns3:TrackPointExtension>
        </extensions>
      </trkpt>
      <trkpt lat="45.3268534876406192779541015625" lon="-70.90530968271195888519287109375">
        <ele>595</ele>
        <time>2026-08-21T16:46:41.000Z</time>
        <extensions>
          <ns3:TrackPointExtension>
            <ns3:hr>140</ns3:hr>
            <ns3:cad>55</ns3:cad>
          </ns3:TrackPointExtension>
        </extensions>
      </trkpt>
      <trkpt lat="45.32685072161257266998291015625" lon="-70.90532518923282623291015625">
        <ele>595</ele>
        <time>2026-08-21T16:46:42.000Z</time>
        <extensions>
          <ns3:TrackPointExtension>
            <ns3:hr>140</ns3:hr>
            <ns3:cad>55</ns3:cad>
          </ns3:TrackPointExtension>
        </extensions>
      </trkpt>
      <trkpt lat="45.32684393227100372314453125" lon="-70.9053380973637104034423828125">
        <ele>595</ele>
        <time>2026-08-21T16:46:43.000Z</time>
        <extensions>
          <ns3:TrackPointExtension>
            <ns3:hr>141</ns3:hr>
            <ns3:cad>55</ns3:cad>
          </ns3:TrackPointExtension>
        </extensions>
      </trkpt>
      <trkpt lat="45.3268357180058956146240234375" lon="-70.90534807182848453521728515625">
        <ele>595</ele>
        <time>2026-08-21T16:46:44.000Z</time>
        <extensions>
          <ns3:TrackPointExtension>
            <ns3:hr>141</ns3:hr>
            <ns3:cad>55</ns3:cad>
          </ns3:TrackPointExtension>
        </extensions>
      </trkpt>
      <trkpt lat="45.3268249891698360443115234375" lon="-70.90535796247422695159912109375">
        <ele>595</ele>
        <time>2026-08-21T16:46:45.000Z</time>
        <extensions>
          <ns3:TrackPointExtension>
            <ns3:hr>142</ns3:hr>
            <ns3:cad>54</ns3:cad>
          </ns3:TrackPointExtension>
        </extensions>
      </trkpt>
      <trkpt lat="45.3268162719905376434326171875" lon="-70.90536986477673053741455078125">
        <ele>595</ele>
        <time>2026-08-21T16:46:46.000Z</time>
        <extensions>
          <ns3:TrackPointExtension>
            <ns3:hr>142</ns3:hr>
            <ns3:cad>54</ns3:cad>
          </ns3:TrackPointExtension>
        </extensions>
      </trkpt>
      <trkpt lat="45.326810069382190704345703125" lon="-70.90538025833666324615478515625">
        <ele>595.20001220703125</ele>
        <time>2026-08-21T16:46:47.000Z</time>
        <extensions>
          <ns3:TrackPointExtension>
            <ns3:hr>143</ns3:hr>
            <ns3:cad>54</ns3:cad>
          </ns3:TrackPointExtension>
        </extensions>
      </trkpt>
      <trkpt lat="45.3268038667738437652587890625" lon="-70.90539149008691310882568359375">
        <ele>595.20001220703125</ele>
        <time>2026-08-21T16:46:48.000Z</time>
        <extensions>
          <ns3:TrackPointExtension>
            <ns3:hr>143</ns3:hr>
            <ns3:cad>54</ns3:cad>
          </ns3:TrackPointExtension>
        </extensions>
      </trkpt>
      <trkpt lat="45.326789952814579010009765625" lon="-70.90540808625519275665283203125">
        <ele>595.20001220703125</ele>
        <time>2026-08-21T16:46:49.000Z</time>
        <extensions>
          <ns3:TrackPointExtension>
            <ns3:hr>142</ns3:hr>
            <ns3:cad>54</ns3:cad>
          </ns3:TrackPointExtension>
        </extensions>
      </trkpt>
      <trkpt lat="45.326781235635280609130859375" lon="-70.90541915036737918853759765625">
        <ele>595.4000244140625</ele>
        <time>2026-08-21T16:46:50.000Z</time>
        <extensions>
          <ns3:TrackPointExtension>
            <ns3:hr>141</ns3:hr>
            <ns3:cad>54</ns3:cad>
          </ns3:TrackPointExtension>
        </extensions>
      </trkpt>
      <trkpt lat="45.326770506799221038818359375" lon="-70.905436836183071136474609375">
        <ele>595.5999755859375</ele>
        <time>2026-08-21T16:46:51.000Z</time>
        <extensions>
          <ns3:TrackPointExtension>
            <ns3:hr>140</ns3:hr>
            <ns3:cad>54</ns3:cad>
          </ns3:TrackPointExtension>
        </extensions>
      </trkpt>
      <trkpt lat="45.32675969414412975311279296875" lon="-70.90545670129358768463134765625">
        <ele>595.5999755859375</ele>
        <time>2026-08-21T16:46:52.000Z</time>
        <extensions>
          <ns3:TrackPointExtension>
            <ns3:hr>139</ns3:hr>
            <ns3:cad>54</ns3:cad>
          </ns3:TrackPointExtension>
        </extensions>
      </trkpt>
      <trkpt lat="45.3267586044967174530029296875" lon="-70.90548151172697544097900390625">
        <ele>595.79998779296875</ele>
        <time>2026-08-21T16:46:53.000Z</time>
        <extensions>
          <ns3:TrackPointExtension>
            <ns3:hr>139</ns3:hr>
            <ns3:cad>54</ns3:cad>
          </ns3:TrackPointExtension>
        </extensions>
      </trkpt>
      <trkpt lat="45.32676204107701778411865234375" lon="-70.9055037237703800201416015625">
        <ele>595.79998779296875</ele>
        <time>2026-08-21T16:46:54.000Z</time>
        <extensions>
          <ns3:TrackPointExtension>
            <ns3:hr>138</ns3:hr>
            <ns3:cad>54</ns3:cad>
          </ns3:TrackPointExtension>
        </extensions>
      </trkpt>
      <trkpt lat="45.32676807604730129241943359375" lon="-70.9055308811366558074951171875">
        <ele>595.79998779296875</ele>
        <time>2026-08-21T16:46:55.000Z</time>
        <extensions>
          <ns3:TrackPointExtension>
            <ns3:hr>138</ns3:hr>
            <ns3:cad>62</ns3:cad>
          </ns3:TrackPointExtension>
        </extensions>
      </trkpt>
      <trkpt lat="45.32677553594112396240234375" lon="-70.90556323528289794921875">
        <ele>595.79998779296875</ele>
        <time>2026-08-21T16:46:56.000Z</time>
        <extensions>
          <ns3:TrackPointExtension>
            <ns3:hr>138</ns3:hr>
            <ns3:cad>62</ns3:cad>
          </ns3:TrackPointExtension>
        </extensions>
      </trkpt>
      <trkpt lat="45.32678148709237575531005859375" lon="-70.9055862016975879669189453125">
        <ele>595.79998779296875</ele>
        <time>2026-08-21T16:46:57.000Z</time>
        <extensions>
          <ns3:TrackPointExtension>
            <ns3:hr>137</ns3:hr>
            <ns3:cad>56</ns3:cad>
          </ns3:TrackPointExtension>
        </extensions>
      </trkpt>
      <trkpt lat="45.32678651623427867889404296875" lon="-70.90561713092029094696044921875">
        <ele>595.79998779296875</ele>
        <time>2026-08-21T16:46:58.000Z</time>
        <extensions>
          <ns3:TrackPointExtension>
            <ns3:hr>137</ns3:hr>
            <ns3:cad>0</ns3:cad>
          </ns3:TrackPointExtension>
        </extensions>
      </trkpt>
      <trkpt lat="45.32678768970072269439697265625" lon="-70.9056361578404903411865234375">
        <ele>595.79998779296875</ele>
        <time>2026-08-21T16:46:59.000Z</time>
        <extensions>
          <ns3:TrackPointExtension>
            <ns3:hr>137</ns3:hr>
            <ns3:cad>0</ns3:cad>
          </ns3:TrackPointExtension>
        </extensions>
      </trkpt>
      <trkpt lat="45.32678936608135700225830078125" lon="-70.90565753169357776641845703125">
        <ele>595.79998779296875</ele>
        <time>2026-08-21T16:47:00.000Z</time>
        <extensions>
          <ns3:TrackPointExtension>
            <ns3:hr>137</ns3:hr>
            <ns3:cad>0</ns3:cad>
          </ns3:TrackPointExtension>
        </extensions>
      </trkpt>
      <trkpt lat="45.3267897851765155792236328125" lon="-70.905678905546665191650390625">
        <ele>596</ele>
        <time>2026-08-21T16:47:01.000Z</time>
        <extensions>
          <ns3:TrackPointExtension>
            <ns3:hr>136</ns3:hr>
            <ns3:cad>0</ns3:cad>
          </ns3:TrackPointExtension>
        </extensions>
      </trkpt>
      <trkpt lat="45.32679053954780101776123046875" lon="-70.90570162050426006317138671875">
        <ele>596</ele>
        <time>2026-08-21T16:47:02.000Z</time>
        <extensions>
          <ns3:TrackPointExtension>
            <ns3:hr>137</ns3:hr>
            <ns3:cad>0</ns3:cad>
          </ns3:TrackPointExtension>
        </extensions>
      </trkpt>
      <trkpt lat="45.32679171301424503326416015625" lon="-70.905723161995410919189453125">
        <ele>596</ele>
        <time>2026-08-21T16:47:03.000Z</time>
        <extensions>
          <ns3:TrackPointExtension>
            <ns3:hr>136</ns3:hr>
            <ns3:cad>0</ns3:cad>
          </ns3:TrackPointExtension>
        </extensions>
      </trkpt>
      <trkpt lat="45.32679121010005474090576171875" lon="-70.90574872680008411407470703125">
        <ele>596.20001220703125</ele>
        <time>2026-08-21T16:47:04.000Z</time>
        <extensions>
          <ns3:TrackPointExtension>
            <ns3:hr>136</ns3:hr>
            <ns3:cad>0</ns3:cad>
          </ns3:TrackPointExtension>
        </extensions>
      </trkpt>
      <trkpt lat="45.32678752206265926361083984375" lon="-70.9057692624628543853759765625">
        <ele>596.20001220703125</ele>
        <time>2026-08-21T16:47:05.000Z</time>
        <extensions>
          <ns3:TrackPointExtension>
            <ns3:hr>136</ns3:hr>
            <ns3:cad>0</ns3:cad>
          </ns3:TrackPointExtension>
        </extensions>
      </trkpt>
      <trkpt lat="45.326781906187534332275390625" lon="-70.9057927317917346954345703125">
        <ele>596.4000244140625</ele>
        <time>2026-08-21T16:47:06.000Z</time>
        <extensions>
          <ns3:TrackPointExtension>
            <ns3:hr>136</ns3:hr>
            <ns3:cad>0</ns3:cad>
          </ns3:TrackPointExtension>
        </extensions>
      </trkpt>
      <trkpt lat="45.326779894530773162841796875" lon="-70.90581745840609073638916015625">
        <ele>596.5999755859375</ele>
        <time>2026-08-21T16:47:07.000Z</time>
        <extensions>
          <ns3:TrackPointExtension>
            <ns3:hr>137</ns3:hr>
            <ns3:cad>0</ns3:cad>
          </ns3:TrackPointExtension>
        </extensions>
      </trkpt>
      <trkpt lat="45.3267820738255977630615234375" lon="-70.90584830380976200103759765625">
        <ele>596.5999755859375</ele>
        <time>2026-08-21T16:47:08.000Z</time>
        <extensions>
          <ns3:TrackPointExtension>
            <ns3:hr>138</ns3:hr>
            <ns3:cad>0</ns3:cad>
          </ns3:TrackPointExtension>
        </extensions>
      </trkpt>
      <trkpt lat="45.3267820738255977630615234375" lon="-70.90586976148188114166259765625">
        <ele>596.79998779296875</ele>
        <time>2026-08-21T16:47:09.000Z</time>
        <extensions>
          <ns3:TrackPointExtension>
            <ns3:hr>138</ns3:hr>
            <ns3:cad>0</ns3:cad>
          </ns3:TrackPointExtension>
        </extensions>
      </trkpt>
      <trkpt lat="45.32677997834980487823486328125" lon="-70.90589121915400028228759765625">
        <ele>596.79998779296875</ele>
        <time>2026-08-21T16:47:10.000Z</time>
        <extensions>
          <ns3:TrackPointExtension>
            <ns3:hr>137</ns3:hr>
            <ns3:cad>0</ns3:cad>
          </ns3:TrackPointExtension>
        </extensions>
      </trkpt>
      <trkpt lat="45.32677545212209224700927734375" lon="-70.90591619722545146942138671875">
        <ele>596.79998779296875</ele>
        <time>2026-08-21T16:47:11.000Z</time>
        <extensions>
          <ns3:TrackPointExtension>
            <ns3:hr>137</ns3:hr>
            <ns3:cad>0</ns3:cad>
          </ns3:TrackPointExtension>
        </extensions>
      </trkpt>
      <trkpt lat="45.32677352428436279296875" lon="-70.90593614615499973297119140625">
        <ele>597</ele>
        <time>2026-08-21T16:47:12.000Z</time>
        <extensions>
          <ns3:TrackPointExtension>
            <ns3:hr>138</ns3:hr>
            <ns3:cad>0</ns3:cad>
          </ns3:TrackPointExtension>
        </extensions>
      </trkpt>
      <trkpt lat="45.32677612267434597015380859375" lon="-70.905970595777034759521484375">
        <ele>597</ele>
        <time>2026-08-21T16:47:13.000Z</time>
        <extensions>
          <ns3:TrackPointExtension>
            <ns3:hr>138</ns3:hr>
            <ns3:cad>0</ns3:cad>
          </ns3:TrackPointExtension>
        </extensions>
      </trkpt>
      <trkpt lat="45.32678626477718353271484375" lon="-70.90600186027586460113525390625">
        <ele>597</ele>
        <time>2026-08-21T16:47:14.000Z</time>
        <extensions>
          <ns3:TrackPointExtension>
            <ns3:hr>138</ns3:hr>
            <ns3:cad>0</ns3:cad>
          </ns3:TrackPointExtension>
        </extensions>
      </trkpt>
      <trkpt lat="45.32679498195648193359375" lon="-70.90603270567953586578369140625">
        <ele>597.20001220703125</ele>
        <time>2026-08-21T16:47:15.000Z</time>
        <extensions>
          <ns3:TrackPointExtension>
            <ns3:hr>139</ns3:hr>
            <ns3:cad>0</ns3:cad>
          </ns3:TrackPointExtension>
        </extensions>
      </trkpt>
      <trkpt lat="45.32680445350706577301025390625" lon="-70.90606556273996829986572265625">
        <ele>597.20001220703125</ele>
        <time>2026-08-21T16:47:16.000Z</time>
        <extensions>
          <ns3:TrackPointExtension>
            <ns3:hr>139</ns3:hr>
            <ns3:cad>0</ns3:cad>
          </ns3:TrackPointExtension>
        </extensions>
      </trkpt>
      <trkpt lat="45.32680713571608066558837890625" lon="-70.9060904569923877716064453125">
        <ele>597.20001220703125</ele>
        <time>2026-08-21T16:47:17.000Z</time>
        <extensions>
          <ns3:TrackPointExtension>
            <ns3:hr>138</ns3:hr>
            <ns3:cad>0</ns3:cad>
          </ns3:TrackPointExtension>
        </extensions>
      </trkpt>
      <trkpt lat="45.326810739934444427490234375" lon="-70.90611903928220272064208984375">
        <ele>597.20001220703125</ele>
        <time>2026-08-21T16:47:18.000Z</time>
        <extensions>
          <ns3:TrackPointExtension>
            <ns3:hr>138</ns3:hr>
            <ns3:cad>0</ns3:cad>
          </ns3:TrackPointExtension>
        </extensions>
      </trkpt>
      <trkpt lat="45.32681602053344249725341796875" lon="-70.90613882057368755340576171875">
        <ele>597.20001220703125</ele>
        <time>2026-08-21T16:47:19.000Z</time>
        <extensions>
          <ns3:TrackPointExtension>
            <ns3:hr>138</ns3:hr>
            <ns3:cad>0</ns3:cad>
          </ns3:TrackPointExtension>
        </extensions>
      </trkpt>
      <trkpt lat="45.3268204629421234130859375" lon="-70.90616472065448760986328125">
        <ele>597</ele>
        <time>2026-08-21T16:47:20.000Z</time>
        <extensions>
          <ns3:TrackPointExtension>
            <ns3:hr>137</ns3:hr>
            <ns3:cad>0</ns3:cad>
          </ns3:TrackPointExtension>
        </extensions>
      </trkpt>
      <trkpt lat="45.32682054676115512847900390625" lon="-70.90618860907852649688720703125">
        <ele>597</ele>
        <time>2026-08-21T16:47:21.000Z</time>
        <extensions>
          <ns3:TrackPointExtension>
            <ns3:hr>137</ns3:hr>
            <ns3:cad>0</ns3:cad>
          </ns3:TrackPointExtension>
        </extensions>
      </trkpt>
      <trkpt lat="45.32681317068636417388916015625" lon="-70.90620839037001132965087890625">
        <ele>597.20001220703125</ele>
        <time>2026-08-21T16:47:22.000Z</time>
        <extensions>
          <ns3:TrackPointExtension>
            <ns3:hr>137</ns3:hr>
            <ns3:cad>0</ns3:cad>
          </ns3:TrackPointExtension>
        </extensions>
      </trkpt>
      <trkpt lat="45.32680328004062175750732421875" lon="-70.90622968040406703948974609375">
        <ele>597.20001220703125</ele>
        <time>2026-08-21T16:47:23.000Z</time>
        <extensions>
          <ns3:TrackPointExtension>
            <ns3:hr>137</ns3:hr>
            <ns3:cad>0</ns3:cad>
          </ns3:TrackPointExtension>
        </extensions>
      </trkpt>
      <trkpt lat="45.3267968259751796722412109375" lon="-70.90624962933361530303955078125">
        <ele>597.20001220703125</ele>
        <time>2026-08-21T16:47:24.000Z</time>
        <extensions>
          <ns3:TrackPointExtension>
            <ns3:hr>136</ns3:hr>
            <ns3:cad>0</ns3:cad>
          </ns3:TrackPointExtension>
        </extensions>
      </trkpt>
      <trkpt lat="45.32679456286132335662841796875" lon="-70.906262956559658050537109375">
        <ele>597.20001220703125</ele>
        <time>2026-08-21T16:47:25.000Z</time>
        <extensions>
          <ns3:TrackPointExtension>
            <ns3:hr>136</ns3:hr>
            <ns3:cad>0</ns3:cad>
          </ns3:TrackPointExtension>
        </extensions>
      </trkpt>
      <trkpt lat="45.32678752206265926361083984375" lon="-70.906276702880859375">
        <ele>597.20001220703125</ele>
        <time>2026-08-21T16:47:26.000Z</time>
        <extensions>
          <ns3:TrackPointExtension>
            <ns3:hr>136</ns3:hr>
            <ns3:cad>0</ns3:cad>
          </ns3:TrackPointExtension>
        </extensions>
      </trkpt>
      <trkpt lat="45.3267746977508068084716796875" lon="-70.90628701262176036834716796875">
        <ele>597.4000244140625</ele>
        <time>2026-08-21T16:47:27.000Z</time>
        <extensions>
          <ns3:TrackPointExtension>
            <ns3:hr>136</ns3:hr>
            <ns3:cad>71</ns3:cad>
          </ns3:TrackPointExtension>
        </extensions>
      </trkpt>
      <trkpt lat="45.3267574310302734375" lon="-70.906300842761993408203125">
        <ele>597.4000244140625</ele>
        <time>2026-08-21T16:47:28.000Z</time>
        <extensions>
          <ns3:TrackPointExtension>
            <ns3:hr>136</ns3:hr>
            <ns3:cad>71</ns3:cad>
          </ns3:TrackPointExtension>
        </extensions>
      </trkpt>
      <trkpt lat="45.32674075104296207427978515625" lon="-70.906312577426433563232421875">
        <ele>597.5999755859375</ele>
        <time>2026-08-21T16:47:29.000Z</time>
        <extensions>
          <ns3:TrackPointExtension>
            <ns3:hr>136</ns3:hr>
            <ns3:cad>71</ns3:cad>
          </ns3:TrackPointExtension>
        </extensions>
      </trkpt>
      <trkpt lat="45.32672683708369731903076171875" lon="-70.906320624053478240966796875">
        <ele>597.5999755859375</ele>
        <time>2026-08-21T16:47:30.000Z</time>
        <extensions>
          <ns3:TrackPointExtension>
            <ns3:hr>136</ns3:hr>
            <ns3:cad>72</ns3:cad>
          </ns3:TrackPointExtension>
        </extensions>
      </trkpt>
      <trkpt lat="45.32670739106833934783935546875" lon="-70.90633478946983814239501953125">
        <ele>597.79998779296875</ele>
        <time>2026-08-21T16:47:31.000Z</time>
        <extensions>
          <ns3:TrackPointExtension>
            <ns3:hr>137</ns3:hr>
            <ns3:cad>72</ns3:cad>
          </ns3:TrackPointExtension>
        </extensions>
      </trkpt>
      <trkpt lat="45.32669330947101116180419921875" lon="-70.90634711086750030517578125">
        <ele>598</ele>
        <time>2026-08-21T16:47:32.000Z</time>
        <extensions>
          <ns3:TrackPointExtension>
            <ns3:hr>137</ns3:hr>
            <ns3:cad>72</ns3:cad>
          </ns3:TrackPointExtension>
        </extensions>
      </trkpt>
      <trkpt lat="45.32667855732142925262451171875" lon="-70.90636865235865116119384765625">
        <ele>598</ele>
        <time>2026-08-21T16:47:33.000Z</time>
        <extensions>
          <ns3:TrackPointExtension>
            <ns3:hr>137</ns3:hr>
            <ns3:cad>72</ns3:cad>
          </ns3:TrackPointExtension>
        </extensions>
      </trkpt>
      <trkpt lat="45.3266697563230991363525390625" lon="-70.9063952229917049407958984375">
        <ele>598</ele>
        <time>2026-08-21T16:47:34.000Z</time>
        <extensions>
          <ns3:TrackPointExtension>
            <ns3:hr>137</ns3:hr>
            <ns3:cad>72</ns3:cad>
          </ns3:TrackPointExtension>
        </extensions>
      </trkpt>
      <trkpt lat="45.3266637213528156280517578125" lon="-70.9064237214624881744384765625">
        <ele>598.20001220703125</ele>
        <time>2026-08-21T16:47:35.000Z</time>
        <extensions>
          <ns3:TrackPointExtension>
            <ns3:hr>138</ns3:hr>
            <ns3:cad>72</ns3:cad>
          </ns3:TrackPointExtension>
        </extensions>
      </trkpt>
      <trkpt lat="45.326660536229610443115234375" lon="-70.90645372867584228515625">
        <ele>598.20001220703125</ele>
        <time>2026-08-21T16:47:36.000Z</time>
        <extensions>
          <ns3:TrackPointExtension>
            <ns3:hr>139</ns3:hr>
            <ns3:cad>72</ns3:cad>
          </ns3:TrackPointExtension>
        </extensions>
      </trkpt>
      <trkpt lat="45.32665743492543697357177734375" lon="-70.906485579907894134521484375">
        <ele>598.20001220703125</ele>
        <time>2026-08-21T16:47:37.000Z</time>
        <extensions>
          <ns3:TrackPointExtension>
            <ns3:hr>139</ns3:hr>
            <ns3:cad>73</ns3:cad>
          </ns3:TrackPointExtension>
        </extensions>
      </trkpt>
      <trkpt lat="45.326655842363834381103515625" lon="-70.9065182693302631378173828125">
        <ele>598.20001220703125</ele>
        <time>2026-08-21T16:47:38.000Z</time>
        <extensions>
          <ns3:TrackPointExtension>
            <ns3:hr>139</ns3:hr>
            <ns3:cad>73</ns3:cad>
          </ns3:TrackPointExtension>
        </extensions>
      </trkpt>
      <trkpt lat="45.326658189296722412109375" lon="-70.906545259058475494384765625">
        <ele>598.20001220703125</ele>
        <time>2026-08-21T16:47:39.000Z</time>
        <extensions>
          <ns3:TrackPointExtension>
            <ns3:hr>140</ns3:hr>
            <ns3:cad>73</ns3:cad>
          </ns3:TrackPointExtension>
        </extensions>
      </trkpt>
      <trkpt lat="45.3266607038676738739013671875" lon="-70.90657769702374935150146484375">
        <ele>598.4000244140625</ele>
        <time>2026-08-21T16:47:40.000Z</time>
        <extensions>
          <ns3:TrackPointExtension>
            <ns3:hr>139</ns3:hr>
            <ns3:cad>73</ns3:cad>
          </ns3:TrackPointExtension>
        </extensions>
      </trkpt>
      <trkpt lat="45.32666699029505252838134765625" lon="-70.9066081233322620391845703125">
        <ele>598.4000244140625</ele>
        <time>2026-08-21T16:47:41.000Z</time>
        <extensions>
          <ns3:TrackPointExtension>
            <ns3:hr>139</ns3:hr>
            <ns3:cad>73</ns3:cad>
          </ns3:TrackPointExtension>
        </extensions>
      </trkpt>
      <trkpt lat="45.326674282550811767578125" lon="-70.90663385577499866485595703125">
        <ele>598.4000244140625</ele>
        <time>2026-08-21T16:47:42.000Z</time>
        <extensions>
          <ns3:TrackPointExtension>
            <ns3:hr>139</ns3:hr>
            <ns3:cad>73</ns3:cad>
          </ns3:TrackPointExtension>
        </extensions>
      </trkpt>
      <trkpt lat="45.32668157480657100677490234375" lon="-70.906661264598369598388671875">
        <ele>598.4000244140625</ele>
        <time>2026-08-21T16:47:43.000Z</time>
        <extensions>
          <ns3:TrackPointExtension>
            <ns3:hr>139</ns3:hr>
            <ns3:cad>73</ns3:cad>
          </ns3:TrackPointExtension>
        </extensions>
      </trkpt>
      <trkpt lat="45.32668610103428363800048828125" lon="-70.90668280608952045440673828125">
        <ele>598.4000244140625</ele>
        <time>2026-08-21T16:47:44.000Z</time>
        <extensions>
          <ns3:TrackPointExtension>
            <ns3:hr>139</ns3:hr>
            <ns3:cad>73</ns3:cad>
          </ns3:TrackPointExtension>
        </extensions>
      </trkpt>
      <trkpt lat="45.3266892023384571075439453125" lon="-70.9067013300955295562744140625">
        <ele>598.4000244140625</ele>
        <time>2026-08-21T16:47:45.000Z</time>
        <extensions>
          <ns3:TrackPointExtension>
            <ns3:hr>139</ns3:hr>
            <ns3:cad>73</ns3:cad>
          </ns3:TrackPointExtension>
        </extensions>
      </trkpt>
      <trkpt lat="45.3266975842416286468505859375" lon="-70.9067281521856784820556640625">
        <ele>598.4000244140625</ele>
        <time>2026-08-21T16:47:46.000Z</time>
        <extensions>
          <ns3:TrackPointExtension>
            <ns3:hr>139</ns3:hr>
            <ns3:cad>73</ns3:cad>
          </ns3:TrackPointExtension>
        </extensions>
      </trkpt>
      <trkpt lat="45.32670571468770503997802734375" lon="-70.90674734674394130706787109375">
        <ele>598.5999755859375</ele>
        <time>2026-08-21T16:47:47.000Z</time>
        <extensions>
          <ns3:TrackPointExtension>
            <ns3:hr>140</ns3:hr>
            <ns3:cad>73</ns3:cad>
          </ns3:TrackPointExtension>
        </extensions>
      </trkpt>
      <trkpt lat="45.3267156891524791717529296875" lon="-70.906770564615726470947265625">
        <ele>598.5999755859375</ele>
        <time>2026-08-21T16:47:48.000Z</time>
        <extensions>
          <ns3:TrackPointExtension>
            <ns3:hr>140</ns3:hr>
            <ns3:cad>73</ns3:cad>
          </ns3:TrackPointExtension>
        </extensions>
      </trkpt>
      <trkpt lat="45.3267213888466358184814453125" lon="-70.9067928604781627655029296875">
        <ele>598.5999755859375</ele>
        <time>2026-08-21T16:47:49.000Z</time>
        <extensions>
          <ns3:TrackPointExtension>
            <ns3:hr>140</ns3:hr>
            <ns3:cad>73</ns3:cad>
          </ns3:TrackPointExtension>
        </extensions>
      </trkpt>
      <trkpt lat="45.32672314904630184173583984375" lon="-70.9068159945309162139892578125">
        <ele>598.4000244140625</ele>
        <time>2026-08-21T16:47:50.000Z</time>
        <extensions>
          <ns3:TrackPointExtension>
            <ns3:hr>141</ns3:hr>
            <ns3:cad>73</ns3:cad>
          </ns3:TrackPointExtension>
        </extensions>
      </trkpt>
      <trkpt lat="45.32673060894012451171875" lon="-70.9068386256694793701171875">
        <ele>598.4000244140625</ele>
        <time>2026-08-21T16:47:51.000Z</time>
        <extensions>
          <ns3:TrackPointExtension>
            <ns3:hr>141</ns3:hr>
            <ns3:cad>73</ns3:cad>
          </ns3:TrackPointExtension>
        </extensions>
      </trkpt>
      <trkpt lat="45.3267319500446319580078125" lon="-70.9068605862557888031005859375">
        <ele>598.4000244140625</ele>
        <time>2026-08-21T16:47:52.000Z</time>
        <extensions>
          <ns3:TrackPointExtension>
            <ns3:hr>142</ns3:hr>
            <ns3:cad>43</ns3:cad>
          </ns3:TrackPointExtension>
        </extensions>
      </trkpt>
      <trkpt lat="45.3267304413020610809326171875" lon="-70.906881876289844512939453125">
        <ele>598.4000244140625</ele>
        <time>2026-08-21T16:47:53.000Z</time>
        <extensions>
          <ns3:TrackPointExtension>
            <ns3:hr>142</ns3:hr>
            <ns3:cad>43</ns3:cad>
          </ns3:TrackPointExtension>
        </extensions>
      </trkpt>
      <trkpt lat="45.32672767527401447296142578125" lon="-70.906899310648441314697265625">
        <ele>598.4000244140625</ele>
        <time>2026-08-21T16:47:54.000Z</time>
        <extensions>
          <ns3:TrackPointExtension>
            <ns3:hr>142</ns3:hr>
            <ns3:cad>43</ns3:cad>
          </ns3:TrackPointExtension>
        </extensions>
      </trkpt>
      <trkpt lat="45.3267252445220947265625" lon="-70.9069244563579559326171875">
        <ele>598.4000244140625</ele>
        <time>2026-08-21T16:47:55.000Z</time>
        <extensions>
          <ns3:TrackPointExtension>
            <ns3:hr>142</ns3:hr>
            <ns3:cad>43</ns3:cad>
          </ns3:TrackPointExtension>
        </extensions>
      </trkpt>
      <trkpt lat="45.32672214321792125701904296875" lon="-70.9069484286010265350341796875">
        <ele>598.5999755859375</ele>
        <time>2026-08-21T16:47:56.000Z</time>
        <extensions>
          <ns3:TrackPointExtension>
            <ns3:hr>142</ns3:hr>
            <ns3:cad>43</ns3:cad>
          </ns3:TrackPointExtension>
        </extensions>
      </trkpt>
      <trkpt lat="45.3267200477421283721923828125" lon="-70.90696862898766994476318359375">
        <ele>598.5999755859375</ele>
        <time>2026-08-21T16:47:57.000Z</time>
        <extensions>
          <ns3:TrackPointExtension>
            <ns3:hr>143</ns3:hr>
            <ns3:cad>43</ns3:cad>
          </ns3:TrackPointExtension>
        </extensions>
      </trkpt>
      <trkpt lat="45.32671577297151088714599609375" lon="-70.9069926850497722625732421875">
        <ele>598.5999755859375</ele>
        <time>2026-08-21T16:47:58.000Z</time>
        <extensions>
          <ns3:TrackPointExtension>
            <ns3:hr>143</ns3:hr>
            <ns3:cad>43</ns3:cad>
          </ns3:TrackPointExtension>
        </extensions>
      </trkpt>
      <trkpt lat="45.32671124674379825592041015625" lon="-70.90700852684676647186279296875">
        <ele>598.5999755859375</ele>
        <time>2026-08-21T16:47:59.000Z</time>
        <extensions>
          <ns3:TrackPointExtension>
            <ns3:hr>142</ns3:hr>
            <ns3:cad>43</ns3:cad>
          </ns3:TrackPointExtension>
        </extensions>
      </trkpt>
      <trkpt lat="45.32670739106833934783935546875" lon="-70.90703384019434452056884765625">
        <ele>598.5999755859375</ele>
        <time>2026-08-21T16:48:00.000Z</time>
        <extensions>
          <ns3:TrackPointExtension>
            <ns3:hr>142</ns3:hr>
            <ns3:cad>43</ns3:cad>
          </ns3:TrackPointExtension>
        </extensions>
      </trkpt>
      <trkpt lat="45.32670705579221248626708984375" lon="-70.9070532023906707763671875">
        <ele>598.5999755859375</ele>
        <time>2026-08-21T16:48:01.000Z</time>
        <extensions>
          <ns3:TrackPointExtension>
            <ns3:hr>142</ns3:hr>
            <ns3:cad>43</ns3:cad>
          </ns3:TrackPointExtension>
        </extensions>
      </trkpt>
      <trkpt lat="45.32671024091541767120361328125" lon="-70.90706837363541126251220703125">
        <ele>598.5999755859375</ele>
        <time>2026-08-21T16:48:02.000Z</time>
        <extensions>
          <ns3:TrackPointExtension>
            <ns3:hr>142</ns3:hr>
            <ns3:cad>0</ns3:cad>
          </ns3:TrackPointExtension>
        </extensions>
      </trkpt>
      <trkpt lat="45.32671560533344745635986328125" lon="-70.90708765201270580291748046875">
        <ele>598.5999755859375</ele>
        <time>2026-08-21T16:48:03.000Z</time>
        <extensions>
          <ns3:TrackPointExtension>
            <ns3:hr>143</ns3:hr>
            <ns3:cad>0</ns3:cad>
          </ns3:TrackPointExtension>
        </extensions>
      </trkpt>
      <trkpt lat="45.32672247849404811859130859375" lon="-70.907103158533573150634765625">
        <ele>598.5999755859375</ele>
        <time>2026-08-21T16:48:04.000Z</time>
        <extensions>
          <ns3:TrackPointExtension>
            <ns3:hr>142</ns3:hr>
            <ns3:cad>0</ns3:cad>
          </ns3:TrackPointExtension>
        </extensions>
      </trkpt>
      <trkpt lat="45.32673127949237823486328125" lon="-70.90712369419634342193603515625">
        <ele>598.5999755859375</ele>
        <time>2026-08-21T16:48:05.000Z</time>
        <extensions>
          <ns3:TrackPointExtension>
            <ns3:hr>142</ns3:hr>
            <ns3:cad>0</ns3:cad>
          </ns3:TrackPointExtension>
        </extensions>
      </trkpt>
      <trkpt lat="45.32674460671842098236083984375" lon="-70.90714733116328716278076171875">
        <ele>598.4000244140625</ele>
        <time>2026-08-21T16:48:06.000Z</time>
        <extensions>
          <ns3:TrackPointExtension>
            <ns3:hr>142</ns3:hr>
            <ns3:cad>0</ns3:cad>
          </ns3:TrackPointExtension>
        </extensions>
      </trkpt>
      <trkpt lat="45.32675416208803653717041015625" lon="-70.9071687050163745880126953125">
        <ele>598.4000244140625</ele>
        <time>2026-08-21T16:48:07.000Z</time>
        <extensions>
          <ns3:TrackPointExtension>
            <ns3:hr>143</ns3:hr>
            <ns3:cad>0</ns3:cad>
          </ns3:TrackPointExtension>
        </extensions>
      </trkpt>
      <trkpt lat="45.32677042298018932342529296875" lon="-70.90718924067914485931396484375">
        <ele>598.4000244140625</ele>
        <time>2026-08-21T16:48:08.000Z</time>
        <extensions>
          <ns3:TrackPointExtension>
            <ns3:hr>143</ns3:hr>
            <ns3:cad>0</ns3:cad>
          </ns3:TrackPointExtension>
        </extensions>
      </trkpt>
      <trkpt lat="45.326777212321758270263671875" lon="-70.9071982093155384063720703125">
        <ele>598.4000244140625</ele>
        <time>2026-08-21T16:48:09.000Z</time>
        <extensions>
          <ns3:TrackPointExtension>
            <ns3:hr>143</ns3:hr>
            <ns3:cad>0</ns3:cad>
          </ns3:TrackPointExtension>
        </extensions>
      </trkpt>
      <trkpt lat="45.32678626477718353271484375" lon="-70.90721321292221546173095703125">
        <ele>598.4000244140625</ele>
        <time>2026-08-21T16:48:10.000Z</time>
        <extensions>
          <ns3:TrackPointExtension>
            <ns3:hr>142</ns3:hr>
            <ns3:cad>0</ns3:cad>
          </ns3:TrackPointExtension>
        </extensions>
      </trkpt>
      <trkpt lat="45.3267897851765155792236328125" lon="-70.90722612105309963226318359375">
        <ele>598.5999755859375</ele>
        <time>2026-08-21T16:48:11.000Z</time>
        <extensions>
          <ns3:TrackPointExtension>
            <ns3:hr>142</ns3:hr>
            <ns3:cad>0</ns3:cad>
          </ns3:TrackPointExtension>
        </extensions>
      </trkpt>
      <trkpt lat="45.326792299747467041015625" lon="-70.907235257327556610107421875">
        <ele>598.5999755859375</ele>
        <time>2026-08-21T16:48:12.000Z</time>
        <extensions>
          <ns3:TrackPointExtension>
            <ns3:hr>142</ns3:hr>
            <ns3:cad>0</ns3:cad>
          </ns3:TrackPointExtension>
        </extensions>
      </trkpt>
      <trkpt lat="45.32679623924195766448974609375" lon="-70.9072464890778064727783203125">
        <ele>598.5999755859375</ele>
        <time>2026-08-21T16:48:13.000Z</time>
        <extensions>
          <ns3:TrackPointExtension>
            <ns3:hr>141</ns3:hr>
            <ns3:cad>0</ns3:cad>
          </ns3:TrackPointExtension>
        </extensions>
      </trkpt>
      <trkpt lat="45.32680378295481204986572265625" lon="-70.9072619117796421051025390625">
        <ele>598.5999755859375</ele>
        <time>2026-08-21T16:48:14.000Z</time>
        <extensions>
          <ns3:TrackPointExtension>
            <ns3:hr>141</ns3:hr>
            <ns3:cad>0</ns3:cad>
          </ns3:TrackPointExtension>
        </extensions>
      </trkpt>
      <trkpt lat="45.3268166072666645050048828125" lon="-70.90727741830050945281982421875">
        <ele>598.5999755859375</ele>
        <time>2026-08-21T16:48:15.000Z</time>
        <extensions>
          <ns3:TrackPointExtension>
            <ns3:hr>140</ns3:hr>
            <ns3:cad>0</ns3:cad>
          </ns3:TrackPointExtension>
        </extensions>
      </trkpt>
      <trkpt lat="45.3268296830356121063232421875" lon="-70.9072843752801418304443359375">
        <ele>598.5999755859375</ele>
        <time>2026-08-21T16:48:16.000Z</time>
        <extensions>
          <ns3:TrackPointExtension>
            <ns3:hr>140</ns3:hr>
            <ns3:cad>51</ns3:cad>
          </ns3:TrackPointExtension>
        </extensions>
      </trkpt>
      <trkpt lat="45.32684049569070339202880859375" lon="-70.90728990733623504638671875">
        <ele>598.5999755859375</ele>
        <time>2026-08-21T16:48:17.000Z</time>
        <extensions>
          <ns3:TrackPointExtension>
            <ns3:hr>139</ns3:hr>
            <ns3:cad>51</ns3:cad>
          </ns3:TrackPointExtension>
        </extensions>
      </trkpt>
      <trkpt lat="45.3268606960773468017578125" lon="-70.9072997979819774627685546875">
        <ele>598.5999755859375</ele>
        <time>2026-08-21T16:48:18.000Z</time>
        <extensions>
          <ns3:TrackPointExtension>
            <ns3:hr>138</ns3:hr>
            <ns3:cad>51</ns3:cad>
          </ns3:TrackPointExtension>
        </extensions>
      </trkpt>
      <trkpt lat="45.32687620259821414947509765625" lon="-70.907299630343914031982421875">
        <ele>598.5999755859375</ele>
        <time>2026-08-21T16:48:19.000Z</time>
        <extensions>
          <ns3:TrackPointExtension>
            <ns3:hr>138</ns3:hr>
            <ns3:cad>51</ns3:cad>
          </ns3:TrackPointExtension>
        </extensions>
      </trkpt>
      <trkpt lat="45.326887853443622589111328125" lon="-70.90730155818164348602294921875">
        <ele>598.5999755859375</ele>
        <time>2026-08-21T16:48:20.000Z</time>
        <extensions>
          <ns3:TrackPointExtension>
            <ns3:hr>137</ns3:hr>
            <ns3:cad>51</ns3:cad>
          </ns3:TrackPointExtension>
        </extensions>
      </trkpt>
      <trkpt lat="45.32690118066966533660888671875" lon="-70.90729535557329654693603515625">
        <ele>598.5999755859375</ele>
        <time>2026-08-21T16:48:21.000Z</time>
        <extensions>
          <ns3:TrackPointExtension>
            <ns3:hr>137</ns3:hr>
            <ns3:cad>0</ns3:cad>
          </ns3:TrackPointExtension>
        </extensions>
      </trkpt>
      <trkpt lat="45.32691123895347118377685546875" lon="-70.9072900749742984771728515625">
        <ele>598.4000244140625</ele>
        <time>2026-08-21T16:48:22.000Z</time>
        <extensions>
          <ns3:TrackPointExtension>
            <ns3:hr>136</ns3:hr>
            <ns3:cad>0</ns3:cad>
          </ns3:TrackPointExtension>
        </extensions>
      </trkpt>
      <trkpt lat="45.32692649401724338531494140625" lon="-70.90728999115526676177978515625">
        <ele>598.4000244140625</ele>
        <time>2026-08-21T16:48:23.000Z</time>
        <extensions>
          <ns3:TrackPointExtension>
            <ns3:hr>136</ns3:hr>
            <ns3:cad>0</ns3:cad>
          </ns3:TrackPointExtension>
        </extensions>
      </trkpt>
      <trkpt lat="45.32694040797650814056396484375" lon="-70.90729149989783763885498046875">
        <ele>598.4000244140625</ele>
        <time>2026-08-21T16:48:24.000Z</time>
        <extensions>
          <ns3:TrackPointExtension>
            <ns3:hr>135</ns3:hr>
            <ns3:cad>0</ns3:cad>
          </ns3:TrackPointExtension>
        </extensions>
      </trkpt>
      <trkpt lat="45.3269510529935359954833984375" lon="-70.907293595373630523681640625">
        <ele>598.20001220703125</ele>
        <time>2026-08-21T16:48:25.000Z</time>
        <extensions>
          <ns3:TrackPointExtension>
            <ns3:hr>135</ns3:hr>
            <ns3:cad>0</ns3:cad>
          </ns3:TrackPointExtension>
        </extensions>
      </trkpt>
      <trkpt lat="45.32696329057216644287109375" lon="-70.90729250572621822357177734375">
        <ele>598.20001220703125</ele>
        <time>2026-08-21T16:48:26.000Z</time>
        <extensions>
          <ns3:TrackPointExtension>
            <ns3:hr>135</ns3:hr>
            <ns3:cad>0</ns3:cad>
          </ns3:TrackPointExtension>
        </extensions>
      </trkpt>
      <trkpt lat="45.32697779126465320587158203125" lon="-70.90729149989783763885498046875">
        <ele>598.20001220703125</ele>
        <time>2026-08-21T16:48:27.000Z</time>
        <extensions>
          <ns3:TrackPointExtension>
            <ns3:hr>135</ns3:hr>
            <ns3:cad>0</ns3:cad>
          </ns3:TrackPointExtension>
        </extensions>
      </trkpt>
      <trkpt lat="45.32698868773877620697021484375" lon="-70.90729149989783763885498046875">
        <ele>598.20001220703125</ele>
        <time>2026-08-21T16:48:28.000Z</time>
        <extensions>
          <ns3:TrackPointExtension>
            <ns3:hr>134</ns3:hr>
            <ns3:cad>0</ns3:cad>
          </ns3:TrackPointExtension>
        </extensions>
      </trkpt>
      <trkpt lat="45.3270043618977069854736328125" lon="-70.90729954652488231658935546875">
        <ele>598</ele>
        <time>2026-08-21T16:48:29.000Z</time>
        <extensions>
          <ns3:TrackPointExtension>
            <ns3:hr>134</ns3:hr>
            <ns3:cad>0</ns3:cad>
          </ns3:TrackPointExtension>
        </extensions>
      </trkpt>
      <trkpt lat="45.32702070660889148712158203125" lon="-70.907309688627719879150390625">
        <ele>598</ele>
        <time>2026-08-21T16:48:30.000Z</time>
        <extensions>
          <ns3:TrackPointExtension>
            <ns3:hr>134</ns3:hr>
            <ns3:cad>63</ns3:cad>
          </ns3:TrackPointExtension>
        </extensions>
      </trkpt>
      <trkpt lat="45.3270405717194080352783203125" lon="-70.90731714852154254913330078125">
        <ele>598</ele>
        <time>2026-08-21T16:48:31.000Z</time>
        <extensions>
          <ns3:TrackPointExtension>
            <ns3:hr>134</ns3:hr>
            <ns3:cad>63</ns3:cad>
          </ns3:TrackPointExtension>
        </extensions>
      </trkpt>
      <trkpt lat="45.32705138437449932098388671875" lon="-70.90732469223439693450927734375">
        <ele>598</ele>
        <time>2026-08-21T16:48:32.000Z</time>
        <extensions>
          <ns3:TrackPointExtension>
            <ns3:hr>134</ns3:hr>
            <ns3:cad>63</ns3:cad>
          </ns3:TrackPointExtension>
        </extensions>
      </trkpt>
      <trkpt lat="45.32705909572541713714599609375" lon="-70.90733843855559825897216796875">
        <ele>597.79998779296875</ele>
        <time>2026-08-21T16:48:33.000Z</time>
        <extensions>
          <ns3:TrackPointExtension>
            <ns3:hr>134</ns3:hr>
            <ns3:cad>0</ns3:cad>
          </ns3:TrackPointExtension>
        </extensions>
      </trkpt>
      <trkpt lat="45.32706278376281261444091796875" lon="-70.9073524363338947296142578125">
        <ele>597.79998779296875</ele>
        <time>2026-08-21T16:48:34.000Z</time>
        <extensions>
          <ns3:TrackPointExtension>
            <ns3:hr>133</ns3:hr>
            <ns3:cad>0</ns3:cad>
          </ns3:TrackPointExtension>
        </extensions>
      </trkpt>
      <trkpt lat="45.32706278376281261444091796875" lon="-70.90735964477062225341796875">
        <ele>597.79998779296875</ele>
        <time>2026-08-21T16:48:35.000Z</time>
        <extensions>
          <ns3:TrackPointExtension>
            <ns3:hr>133</ns3:hr>
            <ns3:cad>0</ns3:cad>
          </ns3:TrackPointExtension>
        </extensions>
      </trkpt>
      <trkpt lat="45.32706446014344692230224609375" lon="-70.90737179853022098541259765625">
        <ele>597.79998779296875</ele>
        <time>2026-08-21T16:48:36.000Z</time>
        <extensions>
          <ns3:TrackPointExtension>
            <ns3:hr>133</ns3:hr>
            <ns3:cad>0</ns3:cad>
          </ns3:TrackPointExtension>
        </extensions>
      </trkpt>
      <trkpt lat="45.32706865109503269195556640625" lon="-70.907387472689151763916015625">
        <ele>597.79998779296875</ele>
        <time>2026-08-21T16:48:37.000Z</time>
        <extensions>
          <ns3:TrackPointExtension>
            <ns3:hr>133</ns3:hr>
            <ns3:cad>0</ns3:cad>
          </ns3:TrackPointExtension>
        </extensions>
      </trkpt>
      <trkpt lat="45.327076949179172515869140625" lon="-70.9074018895626068115234375">
        <ele>597.79998779296875</ele>
        <time>2026-08-21T16:48:38.000Z</time>
        <extensions>
          <ns3:TrackPointExtension>
            <ns3:hr>134</ns3:hr>
            <ns3:cad>0</ns3:cad>
          </ns3:TrackPointExtension>
        </extensions>
      </trkpt>
      <trkpt lat="45.32708222977817058563232421875" lon="-70.90740968473255634307861328125">
        <ele>598</ele>
        <time>2026-08-21T16:48:39.000Z</time>
        <extensions>
          <ns3:TrackPointExtension>
            <ns3:hr>133</ns3:hr>
            <ns3:cad>0</ns3:cad>
          </ns3:TrackPointExtension>
        </extensions>
      </trkpt>
      <trkpt lat="45.32708541490137577056884765625" lon="-70.9074208326637744903564453125">
        <ele>597.79998779296875</ele>
        <time>2026-08-21T16:48:40.000Z</time>
        <extensions>
          <ns3:TrackPointExtension>
            <ns3:hr>133</ns3:hr>
            <ns3:cad>0</ns3:cad>
          </ns3:TrackPointExtension>
        </extensions>
      </trkpt>
      <trkpt lat="45.327090360224246978759765625" lon="-70.90744304470717906951904296875">
        <ele>597.79998779296875</ele>
        <time>2026-08-21T16:48:41.000Z</time>
        <extensions>
          <ns3:TrackPointExtension>
            <ns3:hr>133</ns3:hr>
            <ns3:cad>0</ns3:cad>
          </ns3:TrackPointExtension>
        </extensions>
      </trkpt>
      <trkpt lat="45.32709329389035701751708984375" lon="-70.90746617875993251800537109375">
        <ele>598</ele>
        <time>2026-08-21T16:48:42.000Z</time>
        <extensions>
          <ns3:TrackPointExtension>
            <ns3:hr>133</ns3:hr>
            <ns3:cad>0</ns3:cad>
          </ns3:TrackPointExtension>
        </extensions>
      </trkpt>
      <trkpt lat="45.32709740102291107177734375" lon="-70.90748495422303676605224609375">
        <ele>598.20001220703125</ele>
        <time>2026-08-21T16:48:43.000Z</time>
        <extensions>
          <ns3:TrackPointExtension>
            <ns3:hr>133</ns3:hr>
            <ns3:cad>0</ns3:cad>
          </ns3:TrackPointExtension>
        </extensions>
      </trkpt>
      <trkpt lat="45.32709899358451366424560546875" lon="-70.90749777853488922119140625">
        <ele>598.4000244140625</ele>
        <time>2026-08-21T16:48:44.000Z</time>
        <extensions>
          <ns3:TrackPointExtension>
            <ns3:hr>132</ns3:hr>
            <ns3:cad>0</ns3:cad>
          </ns3:TrackPointExtension>
        </extensions>
      </trkpt>
      <trkpt lat="45.3270994126796722412109375" lon="-70.90751093812286853790283203125">
        <ele>598.4000244140625</ele>
        <time>2026-08-21T16:48:45.000Z</time>
        <extensions>
          <ns3:TrackPointExtension>
            <ns3:hr>132</ns3:hr>
            <ns3:cad>0</ns3:cad>
          </ns3:TrackPointExtension>
        </extensions>
      </trkpt>
      <trkpt lat="45.32709580846130847930908203125" lon="-70.90752770192921161651611328125">
        <ele>598.5999755859375</ele>
        <time>2026-08-21T16:48:46.000Z</time>
        <extensions>
          <ns3:TrackPointExtension>
            <ns3:hr>131</ns3:hr>
            <ns3:cad>0</ns3:cad>
          </ns3:TrackPointExtension>
        </extensions>
      </trkpt>
      <trkpt lat="45.3270881809294223785400390625" lon="-70.9075411967933177947998046875">
        <ele>598.79998779296875</ele>
        <time>2026-08-21T16:48:47.000Z</time>
        <extensions>
          <ns3:TrackPointExtension>
            <ns3:hr>131</ns3:hr>
            <ns3:cad>0</ns3:cad>
          </ns3:TrackPointExtension>
        </extensions>
      </trkpt>
      <trkpt lat="45.32708172686398029327392578125" lon="-70.907555110752582550048828125">
        <ele>599</ele>
        <time>2026-08-21T16:48:48.000Z</time>
        <extensions>
          <ns3:TrackPointExtension>
            <ns3:hr>130</ns3:hr>
            <ns3:cad>0</ns3:cad>
          </ns3:TrackPointExtension>
        </extensions>
      </trkpt>
      <trkpt lat="45.3270784579217433929443359375" lon="-70.90756751596927642822265625">
        <ele>599</ele>
        <time>2026-08-21T16:48:49.000Z</time>
        <extensions>
          <ns3:TrackPointExtension>
            <ns3:hr>130</ns3:hr>
            <ns3:cad>0</ns3:cad>
          </ns3:TrackPointExtension>
        </extensions>
      </trkpt>
      <trkpt lat="45.32707485370337963104248046875" lon="-70.90758117847144603729248046875">
        <ele>599.20001220703125</ele>
        <time>2026-08-21T16:48:50.000Z</time>
        <extensions>
          <ns3:TrackPointExtension>
            <ns3:hr>131</ns3:hr>
            <ns3:cad>0</ns3:cad>
          </ns3:TrackPointExtension>
        </extensions>
      </trkpt>
      <trkpt lat="45.32706814818084239959716796875" lon="-70.907596684992313385009765625">
        <ele>599.4000244140625</ele>
        <time>2026-08-21T16:48:51.000Z</time>
        <extensions>
          <ns3:TrackPointExtension>
            <ns3:hr>131</ns3:hr>
            <ns3:cad>0</ns3:cad>
          </ns3:TrackPointExtension>
        </extensions>
      </trkpt>
      <trkpt lat="45.3270603530108928680419921875" lon="-70.9076055698096752166748046875">
        <ele>599.5999755859375</ele>
        <time>2026-08-21T16:48:52.000Z</time>
        <extensions>
          <ns3:TrackPointExtension>
            <ns3:hr>131</ns3:hr>
            <ns3:cad>0</ns3:cad>
          </ns3:TrackPointExtension>
        </extensions>
      </trkpt>
      <trkpt lat="45.32705808989703655242919921875" lon="-70.90762543492019176483154296875">
        <ele>599.5999755859375</ele>
        <time>2026-08-21T16:48:53.000Z</time>
        <extensions>
          <ns3:TrackPointExtension>
            <ns3:hr>131</ns3:hr>
            <ns3:cad>0</ns3:cad>
          </ns3:TrackPointExtension>
        </extensions>
      </trkpt>
      <trkpt lat="45.32706119120121002197265625" lon="-70.9076508320868015289306640625">
        <ele>599.79998779296875</ele>
        <time>2026-08-21T16:48:54.000Z</time>
        <extensions>
          <ns3:TrackPointExtension>
            <ns3:hr>132</ns3:hr>
            <ns3:cad>0</ns3:cad>
          </ns3:TrackPointExtension>
        </extensions>
      </trkpt>
      <trkpt lat="45.3270616941154003143310546875" lon="-70.90767472051084041595458984375">
        <ele>599.79998779296875</ele>
        <time>2026-08-21T16:48:55.000Z</time>
        <extensions>
          <ns3:TrackPointExtension>
            <ns3:hr>133</ns3:hr>
            <ns3:cad>0</ns3:cad>
          </ns3:TrackPointExtension>
        </extensions>
      </trkpt>
      <trkpt lat="45.3270623646676540374755859375" lon="-70.9076870419085025787353515625">
        <ele>600</ele>
        <time>2026-08-21T16:48:56.000Z</time>
        <extensions>
          <ns3:TrackPointExtension>
            <ns3:hr>133</ns3:hr>
            <ns3:cad>0</ns3:cad>
          </ns3:TrackPointExtension>
        </extensions>
      </trkpt>
      <trkpt lat="45.32706194557249546051025390625" lon="-70.90770757757127285003662109375">
        <ele>600</ele>
        <time>2026-08-21T16:48:57.000Z</time>
        <extensions>
          <ns3:TrackPointExtension>
            <ns3:hr>134</ns3:hr>
            <ns3:cad>0</ns3:cad>
          </ns3:TrackPointExtension>
        </extensions>
      </trkpt>
      <trkpt lat="45.32706161029636859893798828125" lon="-70.9077235870063304901123046875">
        <ele>600</ele>
        <time>2026-08-21T16:48:58.000Z</time>
        <extensions>
          <ns3:TrackPointExtension>
            <ns3:hr>134</ns3:hr>
            <ns3:cad>0</ns3:cad>
          </ns3:TrackPointExtension>
        </extensions>
      </trkpt>
      <trkpt lat="45.32705842517316341400146484375" lon="-70.90774076990783214569091796875">
        <ele>600</ele>
        <time>2026-08-21T16:48:59.000Z</time>
        <extensions>
          <ns3:TrackPointExtension>
            <ns3:hr>135</ns3:hr>
            <ns3:cad>0</ns3:cad>
          </ns3:TrackPointExtension>
        </extensions>
      </trkpt>
      <trkpt lat="45.32705540768802165985107421875" lon="-70.90775535441935062408447265625">
        <ele>600</ele>
        <time>2026-08-21T16:49:00.000Z</time>
        <extensions>
          <ns3:TrackPointExtension>
            <ns3:hr>135</ns3:hr>
            <ns3:cad>0</ns3:cad>
          </ns3:TrackPointExtension>
        </extensions>
      </trkpt>
      <trkpt lat="45.32706010155379772186279296875" lon="-70.90777731500566005706787109375">
        <ele>600.20001220703125</ele>
        <time>2026-08-21T16:49:01.000Z</time>
        <extensions>
          <ns3:TrackPointExtension>
            <ns3:hr>135</ns3:hr>
            <ns3:cad>0</ns3:cad>
          </ns3:TrackPointExtension>
        </extensions>
      </trkpt>
      <trkpt lat="45.32706999219954013824462890625" lon="-70.90779709629714488983154296875">
        <ele>600.20001220703125</ele>
        <time>2026-08-21T16:49:02.000Z</time>
        <extensions>
          <ns3:TrackPointExtension>
            <ns3:hr>136</ns3:hr>
            <ns3:cad>0</ns3:cad>
          </ns3:TrackPointExtension>
        </extensions>
      </trkpt>
      <trkpt lat="45.32707334496080875396728515625" lon="-70.907808579504489898681640625">
        <ele>600.4000244140625</ele>
        <time>2026-08-21T16:49:03.000Z</time>
        <extensions>
          <ns3:TrackPointExtension>
            <ns3:hr>136</ns3:hr>
            <ns3:cad>0</ns3:cad>
          </ns3:TrackPointExtension>
        </extensions>
      </trkpt>
      <trkpt lat="45.32707393169403076171875" lon="-70.90781436301767826080322265625">
        <ele>600.4000244140625</ele>
        <time>2026-08-21T16:49:04.000Z</time>
        <extensions>
          <ns3:TrackPointExtension>
            <ns3:hr>136</ns3:hr>
            <ns3:cad>0</ns3:cad>
          </ns3:TrackPointExtension>
        </extensions>
      </trkpt>
      <trkpt lat="45.3270690701901912689208984375" lon="-70.90782760642468929290771484375">
        <ele>600.4000244140625</ele>
        <time>2026-08-21T16:49:05.000Z</time>
        <extensions>
          <ns3:TrackPointExtension>
            <ns3:hr>135</ns3:hr>
            <ns3:cad>0</ns3:cad>
          </ns3:TrackPointExtension>
        </extensions>
      </trkpt>
      <trkpt lat="45.327066220343112945556640625" lon="-70.9078382514417171478271484375">
        <ele>600.4000244140625</ele>
        <time>2026-08-21T16:49:06.000Z</time>
        <extensions>
          <ns3:TrackPointExtension>
            <ns3:hr>136</ns3:hr>
            <ns3:cad>0</ns3:cad>
          </ns3:TrackPointExtension>
        </extensions>
      </trkpt>
      <trkpt lat="45.3270630352199077606201171875" lon="-70.90785090811550617218017578125">
        <ele>600.4000244140625</ele>
        <time>2026-08-21T16:49:07.000Z</time>
        <extensions>
          <ns3:TrackPointExtension>
            <ns3:hr>136</ns3:hr>
            <ns3:cad>0</ns3:cad>
          </ns3:TrackPointExtension>
        </extensions>
      </trkpt>
      <trkpt lat="45.32706060446798801422119140625" lon="-70.9078697673976421356201171875">
        <ele>600.4000244140625</ele>
        <time>2026-08-21T16:49:08.000Z</time>
        <extensions>
          <ns3:TrackPointExtension>
            <ns3:hr>136</ns3:hr>
            <ns3:cad>0</ns3:cad>
          </ns3:TrackPointExtension>
        </extensions>
      </trkpt>
      <trkpt lat="45.32705758698284626007080078125" lon="-70.9078835137188434600830078125">
        <ele>600.4000244140625</ele>
        <time>2026-08-21T16:49:09.000Z</time>
        <extensions>
          <ns3:TrackPointExtension>
            <ns3:hr>136</ns3:hr>
            <ns3:cad>0</ns3:cad>
          </ns3:TrackPointExtension>
        </extensions>
      </trkpt>
      <trkpt lat="45.32705339603126049041748046875" lon="-70.90789600275456905364990234375">
        <ele>600.5999755859375</ele>
        <time>2026-08-21T16:49:10.000Z</time>
        <extensions>
          <ns3:TrackPointExtension>
            <ns3:hr>135</ns3:hr>
            <ns3:cad>0</ns3:cad>
          </ns3:TrackPointExtension>
        </extensions>
      </trkpt>
      <trkpt lat="45.3270536474883556365966796875" lon="-70.9079173766076564788818359375">
        <ele>600.5999755859375</ele>
        <time>2026-08-21T16:49:11.000Z</time>
        <extensions>
          <ns3:TrackPointExtension>
            <ns3:hr>135</ns3:hr>
            <ns3:cad>0</ns3:cad>
          </ns3:TrackPointExtension>
        </extensions>
      </trkpt>
      <trkpt lat="45.32704819925129413604736328125" lon="-70.90793288312852382659912109375">
        <ele>600.5999755859375</ele>
        <time>2026-08-21T16:49:12.000Z</time>
        <extensions>
          <ns3:TrackPointExtension>
            <ns3:hr>135</ns3:hr>
            <ns3:cad>0</ns3:cad>
          </ns3:TrackPointExtension>
        </extensions>
      </trkpt>
      <trkpt lat="45.327042751014232635498046875" lon="-70.907941348850727081298828125">
        <ele>600.5999755859375</ele>
        <time>2026-08-21T16:49:13.000Z</time>
        <extensions>
          <ns3:TrackPointExtension>
            <ns3:hr>135</ns3:hr>
            <ns3:cad>0</ns3:cad>
          </ns3:TrackPointExtension>
        </extensions>
      </trkpt>
      <trkpt lat="45.32703612931072711944580078125" lon="-70.90795333497226238250732421875">
        <ele>600.5999755859375</ele>
        <time>2026-08-21T16:49:14.000Z</time>
        <extensions>
          <ns3:TrackPointExtension>
            <ns3:hr>134</ns3:hr>
            <ns3:cad>46</ns3:cad>
          </ns3:TrackPointExtension>
        </extensions>
      </trkpt>
      <trkpt lat="45.32703344710171222686767578125" lon="-70.907968841493129730224609375">
        <ele>600.5999755859375</ele>
        <time>2026-08-21T16:49:15.000Z</time>
        <extensions>
          <ns3:TrackPointExtension>
            <ns3:hr>134</ns3:hr>
            <ns3:cad>47</ns3:cad>
          </ns3:TrackPointExtension>
        </extensions>
      </trkpt>
      <trkpt lat="45.32702841795980930328369140625" lon="-70.90798485092818737030029296875">
        <ele>600.5999755859375</ele>
        <time>2026-08-21T16:49:16.000Z</time>
        <extensions>
          <ns3:TrackPointExtension>
            <ns3:hr>134</ns3:hr>
            <ns3:cad>47</ns3:cad>
          </ns3:TrackPointExtension>
        </extensions>
      </trkpt>
      <trkpt lat="45.32702171243727207183837890625" lon="-70.9079971723258495330810546875">
        <ele>600.5999755859375</ele>
        <time>2026-08-21T16:49:17.000Z</time>
        <extensions>
          <ns3:TrackPointExtension>
            <ns3:hr>134</ns3:hr>
            <ns3:cad>0</ns3:cad>
          </ns3:TrackPointExtension>
        </extensions>
      </trkpt>
      <trkpt lat="45.32701601274311542510986328125" lon="-70.908015780150890350341796875">
        <ele>600.5999755859375</ele>
        <time>2026-08-21T16:49:18.000Z</time>
        <extensions>
          <ns3:TrackPointExtension>
            <ns3:hr>133</ns3:hr>
            <ns3:cad>0</ns3:cad>
          </ns3:TrackPointExtension>
        </extensions>
      </trkpt>
      <trkpt lat="45.32702020369470119476318359375" lon="-70.90804218314588069915771484375">
        <ele>600.5999755859375</ele>
        <time>2026-08-21T16:49:19.000Z</time>
        <extensions>
          <ns3:TrackPointExtension>
            <ns3:hr>133</ns3:hr>
            <ns3:cad>0</ns3:cad>
          </ns3:TrackPointExtension>
        </extensions>
      </trkpt>
      <trkpt lat="45.32702070660889148712158203125" lon="-70.9080541692674160003662109375">
        <ele>600.79998779296875</ele>
        <time>2026-08-21T16:49:20.000Z</time>
        <extensions>
          <ns3:TrackPointExtension>
            <ns3:hr>133</ns3:hr>
            <ns3:cad>0</ns3:cad>
          </ns3:TrackPointExtension>
        </extensions>
      </trkpt>
      <trkpt lat="45.327018611133098602294921875" lon="-70.90807001106441020965576171875">
        <ele>600.79998779296875</ele>
        <time>2026-08-21T16:49:21.000Z</time>
        <extensions>
          <ns3:TrackPointExtension>
            <ns3:hr>134</ns3:hr>
            <ns3:cad>0</ns3:cad>
          </ns3:TrackPointExtension>
        </extensions>
      </trkpt>
      <trkpt lat="45.32701550982892513275146484375" lon="-70.90808392502367496490478515625">
        <ele>600.79998779296875</ele>
        <time>2026-08-21T16:49:22.000Z</time>
        <extensions>
          <ns3:TrackPointExtension>
            <ns3:hr>134</ns3:hr>
            <ns3:cad>0</ns3:cad>
          </ns3:TrackPointExtension>
        </extensions>
      </trkpt>
      <trkpt lat="45.32701559364795684814453125" lon="-70.90810538269579410552978515625">
        <ele>600.79998779296875</ele>
        <time>2026-08-21T16:49:23.000Z</time>
        <extensions>
          <ns3:TrackPointExtension>
            <ns3:hr>134</ns3:hr>
            <ns3:cad>0</ns3:cad>
          </ns3:TrackPointExtension>
        </extensions>
      </trkpt>
      <trkpt lat="45.327015258371829986572265625" lon="-70.9081234037876129150390625">
        <ele>601</ele>
        <time>2026-08-21T16:49:24.000Z</time>
        <extensions>
          <ns3:TrackPointExtension>
            <ns3:hr>134</ns3:hr>
            <ns3:cad>0</ns3:cad>
          </ns3:TrackPointExtension>
        </extensions>
      </trkpt>
      <trkpt lat="45.327020622789859771728515625" lon="-70.90814310126006603240966796875">
        <ele>601</ele>
        <time>2026-08-21T16:49:25.000Z</time>
        <extensions>
          <ns3:TrackPointExtension>
            <ns3:hr>133</ns3:hr>
            <ns3:cad>0</ns3:cad>
          </ns3:TrackPointExtension>
        </extensions>
      </trkpt>
      <trkpt lat="45.3270201198756694793701171875" lon="-70.9081540815532207489013671875">
        <ele>601</ele>
        <time>2026-08-21T16:49:26.000Z</time>
        <extensions>
          <ns3:TrackPointExtension>
            <ns3:hr>134</ns3:hr>
            <ns3:cad>0</ns3:cad>
          </ns3:TrackPointExtension>
        </extensions>
      </trkpt>
      <trkpt lat="45.32701785676181316375732421875" lon="-70.908172018826007843017578125">
        <ele>601</ele>
        <time>2026-08-21T16:49:27.000Z</time>
        <extensions>
          <ns3:TrackPointExtension>
            <ns3:hr>135</ns3:hr>
            <ns3:cad>52</ns3:cad>
          </ns3:TrackPointExtension>
        </extensions>
      </trkpt>
      <trkpt lat="45.3270201198756694793701171875" lon="-70.9081923030316829681396484375">
        <ele>601</ele>
        <time>2026-08-21T16:49:28.000Z</time>
        <extensions>
          <ns3:TrackPointExtension>
            <ns3:hr>136</ns3:hr>
            <ns3:cad>52</ns3:cad>
          </ns3:TrackPointExtension>
        </extensions>
      </trkpt>
      <trkpt lat="45.327024646103382110595703125" lon="-70.908210240304470062255859375">
        <ele>601</ele>
        <time>2026-08-21T16:49:29.000Z</time>
        <extensions>
          <ns3:TrackPointExtension>
            <ns3:hr>137</ns3:hr>
            <ns3:cad>52</ns3:cad>
          </ns3:TrackPointExtension>
        </extensions>
      </trkpt>
      <trkpt lat="45.32702808268368244171142578125" lon="-70.908232033252716064453125">
        <ele>601</ele>
        <time>2026-08-21T16:49:30.000Z</time>
        <extensions>
          <ns3:TrackPointExtension>
            <ns3:hr>137</ns3:hr>
            <ns3:cad>54</ns3:cad>
          </ns3:TrackPointExtension>
        </extensions>
      </trkpt>
      <trkpt lat="45.3270308487117290496826171875" lon="-70.90824904851615428924560546875">
        <ele>601.20001220703125</ele>
        <time>2026-08-21T16:49:31.000Z</time>
        <extensions>
          <ns3:TrackPointExtension>
            <ns3:hr>138</ns3:hr>
            <ns3:cad>55</ns3:cad>
          </ns3:TrackPointExtension>
        </extensions>
      </trkpt>
      <trkpt lat="45.32703545875847339630126953125" lon="-70.90826832689344882965087890625">
        <ele>601.20001220703125</ele>
        <time>2026-08-21T16:49:32.000Z</time>
        <extensions>
          <ns3:TrackPointExtension>
            <ns3:hr>138</ns3:hr>
            <ns3:cad>56</ns3:cad>
          </ns3:TrackPointExtension>
        </extensions>
      </trkpt>
      <trkpt lat="45.32704199664294719696044921875" lon="-70.908286012709140777587890625">
        <ele>601.20001220703125</ele>
        <time>2026-08-21T16:49:33.000Z</time>
        <extensions>
          <ns3:TrackPointExtension>
            <ns3:hr>137</ns3:hr>
            <ns3:cad>56</ns3:cad>
          </ns3:TrackPointExtension>
        </extensions>
      </trkpt>
      <trkpt lat="45.32705247402191162109375" lon="-70.90830110013484954833984375">
        <ele>601.20001220703125</ele>
        <time>2026-08-21T16:49:34.000Z</time>
        <extensions>
          <ns3:TrackPointExtension>
            <ns3:hr>137</ns3:hr>
            <ns3:cad>54</ns3:cad>
          </ns3:TrackPointExtension>
        </extensions>
      </trkpt>
      <trkpt lat="45.3270626999437808990478515625" lon="-70.908312499523162841796875">
        <ele>601.4000244140625</ele>
        <time>2026-08-21T16:49:35.000Z</time>
        <extensions>
          <ns3:TrackPointExtension>
            <ns3:hr>137</ns3:hr>
            <ns3:cad>54</ns3:cad>
          </ns3:TrackPointExtension>
        </extensions>
      </trkpt>
      <trkpt lat="45.3270747698843479156494140625" lon="-70.908328928053379058837890625">
        <ele>601.4000244140625</ele>
        <time>2026-08-21T16:49:36.000Z</time>
        <extensions>
          <ns3:TrackPointExtension>
            <ns3:hr>136</ns3:hr>
            <ns3:cad>0</ns3:cad>
          </ns3:TrackPointExtension>
        </extensions>
      </trkpt>
      <trkpt lat="45.32708130776882171630859375" lon="-70.90833940543234348297119140625">
        <ele>601.4000244140625</ele>
        <time>2026-08-21T16:49:37.000Z</time>
        <extensions>
          <ns3:TrackPointExtension>
            <ns3:hr>136</ns3:hr>
            <ns3:cad>0</ns3:cad>
          </ns3:TrackPointExtension>
        </extensions>
      </trkpt>
      <trkpt lat="45.32708005048334598541259765625" lon="-70.908351056277751922607421875">
        <ele>601.4000244140625</ele>
        <time>2026-08-21T16:49:38.000Z</time>
        <extensions>
          <ns3:TrackPointExtension>
            <ns3:hr>136</ns3:hr>
            <ns3:cad>0</ns3:cad>
          </ns3:TrackPointExtension>
        </extensions>
      </trkpt>
      <trkpt lat="45.32706848345696926116943359375" lon="-70.9083622880280017852783203125">
        <ele>601.4000244140625</ele>
        <time>2026-08-21T16:49:39.000Z</time>
        <extensions>
          <ns3:TrackPointExtension>
            <ns3:hr>135</ns3:hr>
            <ns3:cad>0</ns3:cad>
          </ns3:TrackPointExtension>
        </extensions>
      </trkpt>
      <trkpt lat="45.327057503163814544677734375" lon="-70.908375196158885955810546875">
        <ele>601.4000244140625</ele>
        <time>2026-08-21T16:49:40.000Z</time>
        <extensions>
          <ns3:TrackPointExtension>
            <ns3:hr>135</ns3:hr>
            <ns3:cad>0</ns3:cad>
          </ns3:TrackPointExtension>
        </extensions>
      </trkpt>
      <trkpt lat="45.3270492888987064361572265625" lon="-70.90838768519461154937744140625">
        <ele>601.4000244140625</ele>
        <time>2026-08-21T16:49:41.000Z</time>
        <extensions>
          <ns3:TrackPointExtension>
            <ns3:hr>134</ns3:hr>
            <ns3:cad>0</ns3:cad>
          </ns3:TrackPointExtension>
        </extensions>
      </trkpt>
      <trkpt lat="45.32704317010939121246337890625" lon="-70.9083996713161468505859375">
        <ele>601.4000244140625</ele>
        <time>2026-08-21T16:49:42.000Z</time>
        <extensions>
          <ns3:TrackPointExtension>
            <ns3:hr>134</ns3:hr>
            <ns3:cad>53</ns3:cad>
          </ns3:TrackPointExtension>
        </extensions>
      </trkpt>
      <trkpt lat="45.32703571021556854248046875" lon="-70.9084085561335086822509765625">
        <ele>601.5999755859375</ele>
        <time>2026-08-21T16:49:43.000Z</time>
        <extensions>
          <ns3:TrackPointExtension>
            <ns3:hr>134</ns3:hr>
            <ns3:cad>53</ns3:cad>
          </ns3:TrackPointExtension>
        </extensions>
      </trkpt>
      <trkpt lat="45.32702791504561901092529296875" lon="-70.9084159322082996368408203125">
        <ele>601.5999755859375</ele>
        <time>2026-08-21T16:49:44.000Z</time>
        <extensions>
          <ns3:TrackPointExtension>
            <ns3:hr>134</ns3:hr>
            <ns3:cad>0</ns3:cad>
          </ns3:TrackPointExtension>
        </extensions>
      </trkpt>
      <trkpt lat="45.327017940580844879150390625" lon="-70.908425152301788330078125">
        <ele>601.5999755859375</ele>
        <time>2026-08-21T16:49:45.000Z</time>
        <extensions>
          <ns3:TrackPointExtension>
            <ns3:hr>134</ns3:hr>
            <ns3:cad>0</ns3:cad>
          </ns3:TrackPointExtension>
        </extensions>
      </trkpt>
      <trkpt lat="45.3270124085247516632080078125" lon="-70.9084345400333404541015625">
        <ele>601.5999755859375</ele>
        <time>2026-08-21T16:49:46.000Z</time>
        <extensions>
          <ns3:TrackPointExtension>
            <ns3:hr>134</ns3:hr>
            <ns3:cad>0</ns3:cad>
          </ns3:TrackPointExtension>
        </extensions>
      </trkpt>
      <trkpt lat="45.32700754702091217041015625" lon="-70.90844619087874889373779296875">
        <ele>601.5999755859375</ele>
        <time>2026-08-21T16:49:47.000Z</time>
        <extensions>
          <ns3:TrackPointExtension>
            <ns3:hr>134</ns3:hr>
            <ns3:cad>73</ns3:cad>
          </ns3:TrackPointExtension>
        </extensions>
      </trkpt>
      <trkpt lat="45.32699556089937686920166015625" lon="-70.90845876373350620269775390625">
        <ele>601.5999755859375</ele>
        <time>2026-08-21T16:49:48.000Z</time>
        <extensions>
          <ns3:TrackPointExtension>
            <ns3:hr>133</ns3:hr>
            <ns3:cad>73</ns3:cad>
          </ns3:TrackPointExtension>
        </extensions>
      </trkpt>
      <trkpt lat="45.32698265276849269866943359375" lon="-70.9084685705602169036865234375">
        <ele>601.5999755859375</ele>
        <time>2026-08-21T16:49:49.000Z</time>
        <extensions>
          <ns3:TrackPointExtension>
            <ns3:hr>133</ns3:hr>
            <ns3:cad>73</ns3:cad>
          </ns3:TrackPointExtension>
        </extensions>
      </trkpt>
      <trkpt lat="45.326968990266323089599609375" lon="-70.9084839932620525360107421875">
        <ele>601.5999755859375</ele>
        <time>2026-08-21T16:49:50.000Z</time>
        <extensions>
          <ns3:TrackPointExtension>
            <ns3:hr>133</ns3:hr>
            <ns3:cad>73</ns3:cad>
          </ns3:TrackPointExtension>
        </extensions>
      </trkpt>
      <trkpt lat="45.326958596706390380859375" lon="-70.9084967337548732757568359375">
        <ele>601.79998779296875</ele>
        <time>2026-08-21T16:49:51.000Z</time>
        <extensions>
          <ns3:TrackPointExtension>
            <ns3:hr>133</ns3:hr>
            <ns3:cad>73</ns3:cad>
          </ns3:TrackPointExtension>
        </extensions>
      </trkpt>
      <trkpt lat="45.3269477002322673797607421875" lon="-70.9085057862102985382080078125">
        <ele>601.79998779296875</ele>
        <time>2026-08-21T16:49:52.000Z</time>
        <extensions>
          <ns3:TrackPointExtension>
            <ns3:hr>132</ns3:hr>
            <ns3:cad>73</ns3:cad>
          </ns3:TrackPointExtension>
        </extensions>
      </trkpt>
      <trkpt lat="45.3269342891871929168701171875" lon="-70.9085158444941043853759765625">
        <ele>601.79998779296875</ele>
        <time>2026-08-21T16:49:53.000Z</time>
        <extensions>
          <ns3:TrackPointExtension>
            <ns3:hr>132</ns3:hr>
            <ns3:cad>73</ns3:cad>
          </ns3:TrackPointExtension>
        </extensions>
      </trkpt>
      <trkpt lat="45.32692230306565761566162109375" lon="-70.908534117043018341064453125">
        <ele>601.79998779296875</ele>
        <time>2026-08-21T16:49:54.000Z</time>
        <extensions>
          <ns3:TrackPointExtension>
            <ns3:hr>132</ns3:hr>
            <ns3:cad>73</ns3:cad>
          </ns3:TrackPointExtension>
        </extensions>
      </trkpt>
      <trkpt lat="45.32691978849470615386962890625" lon="-70.90856571681797504425048828125">
        <ele>601.79998779296875</ele>
        <time>2026-08-21T16:49:55.000Z</time>
        <extensions>
          <ns3:TrackPointExtension>
            <ns3:hr>132</ns3:hr>
            <ns3:cad>73</ns3:cad>
          </ns3:TrackPointExtension>
        </extensions>
      </trkpt>
      <trkpt lat="45.326927416026592254638671875" lon="-70.90860561467707157135009765625">
        <ele>601.79998779296875</ele>
        <time>2026-08-21T16:49:56.000Z</time>
        <extensions>
          <ns3:TrackPointExtension>
            <ns3:hr>132</ns3:hr>
            <ns3:cad>73</ns3:cad>
          </ns3:TrackPointExtension>
        </extensions>
      </trkpt>
      <trkpt lat="45.32693244516849517822265625" lon="-70.908635370433330535888671875">
        <ele>601.79998779296875</ele>
        <time>2026-08-21T16:49:57.000Z</time>
        <extensions>
          <ns3:TrackPointExtension>
            <ns3:hr>131</ns3:hr>
            <ns3:cad>73</ns3:cad>
          </ns3:TrackPointExtension>
        </extensions>
      </trkpt>
      <trkpt lat="45.32694074325263500213623046875" lon="-70.90866043232381343841552734375">
        <ele>601.79998779296875</ele>
        <time>2026-08-21T16:49:58.000Z</time>
        <extensions>
          <ns3:TrackPointExtension>
            <ns3:hr>132</ns3:hr>
            <ns3:cad>73</ns3:cad>
          </ns3:TrackPointExtension>
        </extensions>
      </trkpt>
      <trkpt lat="45.3269523940980434417724609375" lon="-70.90868867933750152587890625">
        <ele>602</ele>
        <time>2026-08-21T16:49:59.000Z</time>
        <extensions>
          <ns3:TrackPointExtension>
            <ns3:hr>132</ns3:hr>
            <ns3:cad>75</ns3:cad>
          </ns3:TrackPointExtension>
        </extensions>
      </trkpt>
      <trkpt lat="45.326958931982517242431640625" lon="-70.90871172957122325897216796875">
        <ele>602</ele>
        <time>2026-08-21T16:50:00.000Z</time>
        <extensions>
          <ns3:TrackPointExtension>
            <ns3:hr>131</ns3:hr>
            <ns3:cad>75</ns3:cad>
          </ns3:TrackPointExtension>
        </extensions>
      </trkpt>
      <trkpt lat="45.3269651345908641815185546875" lon="-70.90873687528073787689208984375">
        <ele>602</ele>
        <time>2026-08-21T16:50:01.000Z</time>
        <extensions>
          <ns3:TrackPointExtension>
            <ns3:hr>132</ns3:hr>
            <ns3:cad>75</ns3:cad>
          </ns3:TrackPointExtension>
        </extensions>
      </trkpt>
      <trkpt lat="45.32696790061891078948974609375" lon="-70.9087612666189670562744140625">
        <ele>602</ele>
        <time>2026-08-21T16:50:02.000Z</time>
        <extensions>
          <ns3:TrackPointExtension>
            <ns3:hr>132</ns3:hr>
            <ns3:cad>75</ns3:cad>
          </ns3:TrackPointExtension>
        </extensions>
      </trkpt>
      <trkpt lat="45.326960273087024688720703125" lon="-70.90878750197589397430419921875">
        <ele>602</ele>
        <time>2026-08-21T16:50:03.000Z</time>
        <extensions>
          <ns3:TrackPointExtension>
            <ns3:hr>132</ns3:hr>
            <ns3:cad>75</ns3:cad>
          </ns3:TrackPointExtension>
        </extensions>
      </trkpt>
      <trkpt lat="45.3269477002322673797607421875" lon="-70.9088095463812351226806640625">
        <ele>602</ele>
        <time>2026-08-21T16:50:04.000Z</time>
        <extensions>
          <ns3:TrackPointExtension>
            <ns3:hr>132</ns3:hr>
            <ns3:cad>72</ns3:cad>
          </ns3:TrackPointExtension>
        </extensions>
      </trkpt>
      <trkpt lat="45.32693789340555667877197265625" lon="-70.90882957912981510162353515625">
        <ele>602</ele>
        <time>2026-08-21T16:50:05.000Z</time>
        <extensions>
          <ns3:TrackPointExtension>
            <ns3:hr>131</ns3:hr>
            <ns3:cad>72</ns3:cad>
          </ns3:TrackPointExtension>
        </extensions>
      </trkpt>
      <trkpt lat="45.326929427683353424072265625" lon="-70.9088464267551898956298828125">
        <ele>602</ele>
        <time>2026-08-21T16:50:06.000Z</time>
        <extensions>
          <ns3:TrackPointExtension>
            <ns3:hr>133</ns3:hr>
            <ns3:cad>73</ns3:cad>
          </ns3:TrackPointExtension>
        </extensions>
      </trkpt>
      <trkpt lat="45.32692029140889644622802734375" lon="-70.9088564850389957427978515625">
        <ele>602.20001220703125</ele>
        <time>2026-08-21T16:50:07.000Z</time>
        <extensions>
          <ns3:TrackPointExtension>
            <ns3:hr>133</ns3:hr>
            <ns3:cad>73</ns3:cad>
          </ns3:TrackPointExtension>
        </extensions>
      </trkpt>
      <trkpt lat="45.32691107131540775299072265625" lon="-70.9088745899498462677001953125">
        <ele>602.20001220703125</ele>
        <time>2026-08-21T16:50:08.000Z</time>
        <extensions>
          <ns3:TrackPointExtension>
            <ns3:hr>132</ns3:hr>
            <ns3:cad>73</ns3:cad>
          </ns3:TrackPointExtension>
        </extensions>
      </trkpt>
      <trkpt lat="45.32690503634512424468994140625" lon="-70.908891521394252777099609375">
        <ele>602.20001220703125</ele>
        <time>2026-08-21T16:50:09.000Z</time>
        <extensions>
          <ns3:TrackPointExtension>
            <ns3:hr>132</ns3:hr>
            <ns3:cad>73</ns3:cad>
          </ns3:TrackPointExtension>
        </extensions>
      </trkpt>
      <trkpt lat="45.3268943913280963897705078125" lon="-70.90891289524734020233154296875">
        <ele>602.20001220703125</ele>
        <time>2026-08-21T16:50:10.000Z</time>
        <extensions>
          <ns3:TrackPointExtension>
            <ns3:hr>132</ns3:hr>
            <ns3:cad>73</ns3:cad>
          </ns3:TrackPointExtension>
        </extensions>
      </trkpt>
      <trkpt lat="45.32688106410205364227294921875" lon="-70.908927731215953826904296875">
        <ele>602.20001220703125</ele>
        <time>2026-08-21T16:50:11.000Z</time>
        <extensions>
          <ns3:TrackPointExtension>
            <ns3:hr>133</ns3:hr>
            <ns3:cad>73</ns3:cad>
          </ns3:TrackPointExtension>
        </extensions>
      </trkpt>
      <trkpt lat="45.3268729336559772491455078125" lon="-70.9089466743171215057373046875">
        <ele>602.4000244140625</ele>
        <time>2026-08-21T16:50:12.000Z</time>
        <extensions>
          <ns3:TrackPointExtension>
            <ns3:hr>134</ns3:hr>
            <ns3:cad>73</ns3:cad>
          </ns3:TrackPointExtension>
        </extensions>
      </trkpt>
      <trkpt lat="45.32686614431440830230712890625" lon="-70.90896762907505035400390625">
        <ele>602.4000244140625</ele>
        <time>2026-08-21T16:50:13.000Z</time>
        <extensions>
          <ns3:TrackPointExtension>
            <ns3:hr>134</ns3:hr>
            <ns3:cad>73</ns3:cad>
          </ns3:TrackPointExtension>
        </extensions>
      </trkpt>
      <trkpt lat="45.32685508020222187042236328125" lon="-70.90899034403264522552490234375">
        <ele>602.4000244140625</ele>
        <time>2026-08-21T16:50:14.000Z</time>
        <extensions>
          <ns3:TrackPointExtension>
            <ns3:hr>135</ns3:hr>
            <ns3:cad>73</ns3:cad>
          </ns3:TrackPointExtension>
        </extensions>
      </trkpt>
      <trkpt lat="45.326848961412906646728515625" lon="-70.909008197486400604248046875">
        <ele>602.4000244140625</ele>
        <time>2026-08-21T16:50:15.000Z</time>
        <extensions>
          <ns3:TrackPointExtension>
            <ns3:hr>135</ns3:hr>
            <ns3:cad>0</ns3:cad>
          </ns3:TrackPointExtension>
        </extensions>
      </trkpt>
      <trkpt lat="45.32684552483260631561279296875" lon="-70.90903292410075664520263671875">
        <ele>602.5999755859375</ele>
        <time>2026-08-21T16:50:16.000Z</time>
        <extensions>
          <ns3:TrackPointExtension>
            <ns3:hr>135</ns3:hr>
            <ns3:cad>0</ns3:cad>
          </ns3:TrackPointExtension>
        </extensions>
      </trkpt>
      <trkpt lat="45.32684586010873317718505859375" lon="-70.90905924327671527862548828125">
        <ele>602.5999755859375</ele>
        <time>2026-08-21T16:50:17.000Z</time>
        <extensions>
          <ns3:TrackPointExtension>
            <ns3:hr>134</ns3:hr>
            <ns3:cad>0</ns3:cad>
          </ns3:TrackPointExtension>
        </extensions>
      </trkpt>
      <trkpt lat="45.32684921287000179290771484375" lon="-70.909085981547832489013671875">
        <ele>602.5999755859375</ele>
        <time>2026-08-21T16:50:18.000Z</time>
        <extensions>
          <ns3:TrackPointExtension>
            <ns3:hr>135</ns3:hr>
            <ns3:cad>0</ns3:cad>
          </ns3:TrackPointExtension>
        </extensions>
      </trkpt>
      <trkpt lat="45.3268499672412872314453125" lon="-70.9091082774102687835693359375">
        <ele>602.5999755859375</ele>
        <time>2026-08-21T16:50:19.000Z</time>
        <extensions>
          <ns3:TrackPointExtension>
            <ns3:hr>135</ns3:hr>
            <ns3:cad>0</ns3:cad>
          </ns3:TrackPointExtension>
        </extensions>
      </trkpt>
      <trkpt lat="45.326852984726428985595703125" lon="-70.9091283939778804779052734375">
        <ele>602.5999755859375</ele>
        <time>2026-08-21T16:50:20.000Z</time>
        <extensions>
          <ns3:TrackPointExtension>
            <ns3:hr>135</ns3:hr>
            <ns3:cad>0</ns3:cad>
          </ns3:TrackPointExtension>
        </extensions>
      </trkpt>
      <trkpt lat="45.326852314174175262451171875" lon="-70.90914440341293811798095703125">
        <ele>602.5999755859375</ele>
        <time>2026-08-21T16:50:21.000Z</time>
        <extensions>
          <ns3:TrackPointExtension>
            <ns3:hr>135</ns3:hr>
            <ns3:cad>0</ns3:cad>
          </ns3:TrackPointExtension>
        </extensions>
      </trkpt>
      <trkpt lat="45.32685474492609500885009765625" lon="-70.9091689623892307281494140625">
        <ele>602.5999755859375</ele>
        <time>2026-08-21T16:50:22.000Z</time>
        <extensions>
          <ns3:TrackPointExtension>
            <ns3:hr>135</ns3:hr>
            <ns3:cad>0</ns3:cad>
          </ns3:TrackPointExtension>
        </extensions>
      </trkpt>
      <trkpt lat="45.326855666935443878173828125" lon="-70.909195281565189361572265625">
        <ele>602.79998779296875</ele>
        <time>2026-08-21T16:50:23.000Z</time>
        <extensions>
          <ns3:TrackPointExtension>
            <ns3:hr>135</ns3:hr>
            <ns3:cad>0</ns3:cad>
          </ns3:TrackPointExtension>
        </extensions>
      </trkpt>
      <trkpt lat="45.32685541547834873199462890625" lon="-70.9092177450656890869140625">
        <ele>602.79998779296875</ele>
        <time>2026-08-21T16:50:24.000Z</time>
        <extensions>
          <ns3:TrackPointExtension>
            <ns3:hr>135</ns3:hr>
            <ns3:cad>0</ns3:cad>
          </ns3:TrackPointExtension>
        </extensions>
      </trkpt>
      <trkpt lat="45.3268598578870296478271484375" lon="-70.90924683026969432830810546875">
        <ele>603</ele>
        <time>2026-08-21T16:50:25.000Z</time>
        <extensions>
          <ns3:TrackPointExtension>
            <ns3:hr>136</ns3:hr>
            <ns3:cad>0</ns3:cad>
          </ns3:TrackPointExtension>
        </extensions>
      </trkpt>
      <trkpt lat="45.32686161808669567108154296875" lon="-70.9092631749808788299560546875">
        <ele>603</ele>
        <time>2026-08-21T16:50:26.000Z</time>
        <extensions>
          <ns3:TrackPointExtension>
            <ns3:hr>136</ns3:hr>
            <ns3:cad>0</ns3:cad>
          </ns3:TrackPointExtension>
        </extensions>
      </trkpt>
      <trkpt lat="45.3268622048199176788330078125" lon="-70.9092822857201099395751953125">
        <ele>603</ele>
        <time>2026-08-21T16:50:27.000Z</time>
        <extensions>
          <ns3:TrackPointExtension>
            <ns3:hr>136</ns3:hr>
            <ns3:cad>0</ns3:cad>
          </ns3:TrackPointExtension>
        </extensions>
      </trkpt>
      <trkpt lat="45.32686178572475910186767578125" lon="-70.90930248610675334930419921875">
        <ele>603</ele>
        <time>2026-08-21T16:50:28.000Z</time>
        <extensions>
          <ns3:TrackPointExtension>
            <ns3:hr>135</ns3:hr>
            <ns3:cad>0</ns3:cad>
          </ns3:TrackPointExtension>
        </extensions>
      </trkpt>
      <trkpt lat="45.3268618695437908172607421875" lon="-70.90931455604732036590576171875">
        <ele>603</ele>
        <time>2026-08-21T16:50:29.000Z</time>
        <extensions>
          <ns3:TrackPointExtension>
            <ns3:hr>136</ns3:hr>
            <ns3:cad>0</ns3:cad>
          </ns3:TrackPointExtension>
        </extensions>
      </trkpt>
      <trkpt lat="45.3268544934689998626708984375" lon="-70.90932025574147701263427734375">
        <ele>603</ele>
        <time>2026-08-21T16:50:30.000Z</time>
        <extensions>
          <ns3:TrackPointExtension>
            <ns3:hr>136</ns3:hr>
            <ns3:cad>0</ns3:cad>
          </ns3:TrackPointExtension>
        </extensions>
      </trkpt>
      <trkpt lat="45.32685063779354095458984375" lon="-70.90932427905499935150146484375">
        <ele>603</ele>
        <time>2026-08-21T16:50:31.000Z</time>
        <extensions>
          <ns3:TrackPointExtension>
            <ns3:hr>136</ns3:hr>
            <ns3:cad>0</ns3:cad>
          </ns3:TrackPointExtension>
        </extensions>
      </trkpt>
      <trkpt lat="45.3268472850322723388671875" lon="-70.9093369357287883758544921875">
        <ele>603</ele>
        <time>2026-08-21T16:50:32.000Z</time>
        <extensions>
          <ns3:TrackPointExtension>
            <ns3:hr>136</ns3:hr>
            <ns3:cad>0</ns3:cad>
          </ns3:TrackPointExtension>
        </extensions>
      </trkpt>
      <trkpt lat="45.3268434293568134307861328125" lon="-70.90934447944164276123046875">
        <ele>603.20001220703125</ele>
        <time>2026-08-21T16:50:33.000Z</time>
        <extensions>
          <ns3:TrackPointExtension>
            <ns3:hr>136</ns3:hr>
            <ns3:cad>0</ns3:cad>
          </ns3:TrackPointExtension>
        </extensions>
      </trkpt>
      <trkpt lat="45.32683479599654674530029296875" lon="-70.90936350636184215545654296875">
        <ele>603.20001220703125</ele>
        <time>2026-08-21T16:50:34.000Z</time>
        <extensions>
          <ns3:TrackPointExtension>
            <ns3:hr>136</ns3:hr>
            <ns3:cad>0</ns3:cad>
          </ns3:TrackPointExtension>
        </extensions>
      </trkpt>
      <trkpt lat="45.3268293477594852447509765625" lon="-70.9093754924833774566650390625">
        <ele>603.20001220703125</ele>
        <time>2026-08-21T16:50:35.000Z</time>
        <extensions>
          <ns3:TrackPointExtension>
            <ns3:hr>136</ns3:hr>
            <ns3:cad>0</ns3:cad>
          </ns3:TrackPointExtension>
        </extensions>
      </trkpt>
      <trkpt lat="45.3268182836472988128662109375" lon="-70.90938932262361049652099609375">
        <ele>603.20001220703125</ele>
        <time>2026-08-21T16:50:36.000Z</time>
        <extensions>
          <ns3:TrackPointExtension>
            <ns3:hr>135</ns3:hr>
            <ns3:cad>0</ns3:cad>
          </ns3:TrackPointExtension>
        </extensions>
      </trkpt>
      <trkpt lat="45.32680931501090526580810546875" lon="-70.9094006381928920745849609375">
        <ele>603.20001220703125</ele>
        <time>2026-08-21T16:50:37.000Z</time>
        <extensions>
          <ns3:TrackPointExtension>
            <ns3:hr>135</ns3:hr>
            <ns3:cad>0</ns3:cad>
          </ns3:TrackPointExtension>
        </extensions>
      </trkpt>
      <trkpt lat="45.3268052078783512115478515625" lon="-70.90941421687602996826171875">
        <ele>603.20001220703125</ele>
        <time>2026-08-21T16:50:38.000Z</time>
        <extensions>
          <ns3:TrackPointExtension>
            <ns3:hr>134</ns3:hr>
            <ns3:cad>0</ns3:cad>
          </ns3:TrackPointExtension>
        </extensions>
      </trkpt>
      <trkpt lat="45.32680193893611431121826171875" lon="-70.90943391434848308563232421875">
        <ele>603.4000244140625</ele>
        <time>2026-08-21T16:50:39.000Z</time>
        <extensions>
          <ns3:TrackPointExtension>
            <ns3:hr>134</ns3:hr>
            <ns3:cad>0</ns3:cad>
          </ns3:TrackPointExtension>
        </extensions>
      </trkpt>
      <trkpt lat="45.326797999441623687744140625" lon="-70.90945176780223846435546875">
        <ele>603.4000244140625</ele>
        <time>2026-08-21T16:50:40.000Z</time>
        <extensions>
          <ns3:TrackPointExtension>
            <ns3:hr>133</ns3:hr>
            <ns3:cad>0</ns3:cad>
          </ns3:TrackPointExtension>
        </extensions>
      </trkpt>
      <trkpt lat="45.3267911262810230255126953125" lon="-70.9094671905040740966796875">
        <ele>603.4000244140625</ele>
        <time>2026-08-21T16:50:41.000Z</time>
        <extensions>
          <ns3:TrackPointExtension>
            <ns3:hr>133</ns3:hr>
            <ns3:cad>0</ns3:cad>
          </ns3:TrackPointExtension>
        </extensions>
      </trkpt>
      <trkpt lat="45.3267871029675006866455078125" lon="-70.90948269702494144439697265625">
        <ele>603.4000244140625</ele>
        <time>2026-08-21T16:50:42.000Z</time>
        <extensions>
          <ns3:TrackPointExtension>
            <ns3:hr>133</ns3:hr>
            <ns3:cad>0</ns3:cad>
          </ns3:TrackPointExtension>
        </extensions>
      </trkpt>
      <trkpt lat="45.32678358256816864013671875" lon="-70.9095032326877117156982421875">
        <ele>603.4000244140625</ele>
        <time>2026-08-21T16:50:43.000Z</time>
        <extensions>
          <ns3:TrackPointExtension>
            <ns3:hr>133</ns3:hr>
            <ns3:cad>0</ns3:cad>
          </ns3:TrackPointExtension>
        </extensions>
      </trkpt>
      <trkpt lat="45.32678064890205860137939453125" lon="-70.90952075086534023284912109375">
        <ele>603.5999755859375</ele>
        <time>2026-08-21T16:50:44.000Z</time>
        <extensions>
          <ns3:TrackPointExtension>
            <ns3:hr>133</ns3:hr>
            <ns3:cad>0</ns3:cad>
          </ns3:TrackPointExtension>
        </extensions>
      </trkpt>
      <trkpt lat="45.3267763741314411163330078125" lon="-70.90953567065298557281494140625">
        <ele>603.5999755859375</ele>
        <time>2026-08-21T16:50:45.000Z</time>
        <extensions>
          <ns3:TrackPointExtension>
            <ns3:hr>133</ns3:hr>
            <ns3:cad>0</ns3:cad>
          </ns3:TrackPointExtension>
        </extensions>
      </trkpt>
      <trkpt lat="45.326771847903728485107421875" lon="-70.90955830179154872894287109375">
        <ele>603.5999755859375</ele>
        <time>2026-08-21T16:50:46.000Z</time>
        <extensions>
          <ns3:TrackPointExtension>
            <ns3:hr>133</ns3:hr>
            <ns3:cad>0</ns3:cad>
          </ns3:TrackPointExtension>
        </extensions>
      </trkpt>
      <trkpt lat="45.3267695009708404541015625" lon="-70.9095852077007293701171875">
        <ele>603.5999755859375</ele>
        <time>2026-08-21T16:50:47.000Z</time>
        <extensions>
          <ns3:TrackPointExtension>
            <ns3:hr>133</ns3:hr>
            <ns3:cad>0</ns3:cad>
          </ns3:TrackPointExtension>
        </extensions>
      </trkpt>
      <trkpt lat="45.32676824368536472320556640625" lon="-70.90960624627768993377685546875">
        <ele>603.79998779296875</ele>
        <time>2026-08-21T16:50:48.000Z</time>
        <extensions>
          <ns3:TrackPointExtension>
            <ns3:hr>133</ns3:hr>
            <ns3:cad>0</ns3:cad>
          </ns3:TrackPointExtension>
        </extensions>
      </trkpt>
      <trkpt lat="45.32676472328603267669677734375" lon="-70.909623764455318450927734375">
        <ele>603.5999755859375</ele>
        <time>2026-08-21T16:50:49.000Z</time>
        <extensions>
          <ns3:TrackPointExtension>
            <ns3:hr>132</ns3:hr>
            <ns3:cad>0</ns3:cad>
          </ns3:TrackPointExtension>
        </extensions>
      </trkpt>
      <trkpt lat="45.3267565928399562835693359375" lon="-70.90964077971875667572021484375">
        <ele>603.79998779296875</ele>
        <time>2026-08-21T16:50:50.000Z</time>
        <extensions>
          <ns3:TrackPointExtension>
            <ns3:hr>132</ns3:hr>
            <ns3:cad>0</ns3:cad>
          </ns3:TrackPointExtension>
        </extensions>
      </trkpt>
      <trkpt lat="45.32674779184162616729736328125" lon="-70.90965284965932369232177734375">
        <ele>603.79998779296875</ele>
        <time>2026-08-21T16:50:51.000Z</time>
        <extensions>
          <ns3:TrackPointExtension>
            <ns3:hr>132</ns3:hr>
            <ns3:cad>0</ns3:cad>
          </ns3:TrackPointExtension>
        </extensions>
      </trkpt>
      <trkpt lat="45.326736979186534881591796875" lon="-70.9096608124673366546630859375">
        <ele>603.79998779296875</ele>
        <time>2026-08-21T16:50:52.000Z</time>
        <extensions>
          <ns3:TrackPointExtension>
            <ns3:hr>132</ns3:hr>
            <ns3:cad>0</ns3:cad>
          </ns3:TrackPointExtension>
        </extensions>
      </trkpt>
      <trkpt lat="45.326730273663997650146484375" lon="-70.9096728824079036712646484375">
        <ele>603.79998779296875</ele>
        <time>2026-08-21T16:50:53.000Z</time>
        <extensions>
          <ns3:TrackPointExtension>
            <ns3:hr>132</ns3:hr>
            <ns3:cad>0</ns3:cad>
          </ns3:TrackPointExtension>
        </extensions>
      </trkpt>
      <trkpt lat="45.3267193771898746490478515625" lon="-70.90968511998653411865234375">
        <ele>604</ele>
        <time>2026-08-21T16:50:54.000Z</time>
        <extensions>
          <ns3:TrackPointExtension>
            <ns3:hr>132</ns3:hr>
            <ns3:cad>0</ns3:cad>
          </ns3:TrackPointExtension>
        </extensions>
      </trkpt>
      <trkpt lat="45.3267069719731807708740234375" lon="-70.9096978604793548583984375">
        <ele>604</ele>
        <time>2026-08-21T16:50:55.000Z</time>
        <extensions>
          <ns3:TrackPointExtension>
            <ns3:hr>132</ns3:hr>
            <ns3:cad>0</ns3:cad>
          </ns3:TrackPointExtension>
        </extensions>
      </trkpt>
      <trkpt lat="45.32669682987034320831298828125" lon="-70.9097097627818584442138671875">
        <ele>604</ele>
        <time>2026-08-21T16:50:56.000Z</time>
        <extensions>
          <ns3:TrackPointExtension>
            <ns3:hr>132</ns3:hr>
            <ns3:cad>0</ns3:cad>
          </ns3:TrackPointExtension>
        </extensions>
      </trkpt>
      <trkpt lat="45.32668702304363250732421875" lon="-70.909721665084362030029296875">
        <ele>604</ele>
        <time>2026-08-21T16:50:57.000Z</time>
        <extensions>
          <ns3:TrackPointExtension>
            <ns3:hr>132</ns3:hr>
            <ns3:cad>0</ns3:cad>
          </ns3:TrackPointExtension>
        </extensions>
      </trkpt>
      <trkpt lat="45.3266729414463043212890625" lon="-70.90973717160522937774658203125">
        <ele>604</ele>
        <time>2026-08-21T16:50:58.000Z</time>
        <extensions>
          <ns3:TrackPointExtension>
            <ns3:hr>132</ns3:hr>
            <ns3:cad>0</ns3:cad>
          </ns3:TrackPointExtension>
        </extensions>
      </trkpt>
      <trkpt lat="45.32666045241057872772216796875" lon="-70.90974739752709865570068359375">
        <ele>604</ele>
        <time>2026-08-21T16:50:59.000Z</time>
        <extensions>
          <ns3:TrackPointExtension>
            <ns3:hr>132</ns3:hr>
            <ns3:cad>0</ns3:cad>
          </ns3:TrackPointExtension>
        </extensions>
      </trkpt>
      <trkpt lat="45.32665257342159748077392578125" lon="-70.9097635746002197265625">
        <ele>604</ele>
        <time>2026-08-21T16:51:00.000Z</time>
        <extensions>
          <ns3:TrackPointExtension>
            <ns3:hr>132</ns3:hr>
            <ns3:cad>53</ns3:cad>
          </ns3:TrackPointExtension>
        </extensions>
      </trkpt>
      <trkpt lat="45.326642431318759918212890625" lon="-70.90978058986365795135498046875">
        <ele>604</ele>
        <time>2026-08-21T16:51:01.000Z</time>
        <extensions>
          <ns3:TrackPointExtension>
            <ns3:hr>132</ns3:hr>
            <ns3:cad>53</ns3:cad>
          </ns3:TrackPointExtension>
        </extensions>
      </trkpt>
      <trkpt lat="45.3266353905200958251953125" lon="-70.90980137698352336883544921875">
        <ele>604.20001220703125</ele>
        <time>2026-08-21T16:51:02.000Z</time>
        <extensions>
          <ns3:TrackPointExtension>
            <ns3:hr>131</ns3:hr>
            <ns3:cad>53</ns3:cad>
          </ns3:TrackPointExtension>
        </extensions>
      </trkpt>
      <trkpt lat="45.32662943936884403228759765625" lon="-70.90982652269303798675537109375">
        <ele>604.20001220703125</ele>
        <time>2026-08-21T16:51:03.000Z</time>
        <extensions>
          <ns3:TrackPointExtension>
            <ns3:hr>132</ns3:hr>
            <ns3:cad>53</ns3:cad>
          </ns3:TrackPointExtension>
        </extensions>
      </trkpt>
      <trkpt lat="45.3266258351504802703857421875" lon="-70.9098453819751739501953125">
        <ele>604.20001220703125</ele>
        <time>2026-08-21T16:51:04.000Z</time>
        <extensions>
          <ns3:TrackPointExtension>
            <ns3:hr>131</ns3:hr>
            <ns3:cad>0</ns3:cad>
          </ns3:TrackPointExtension>
        </extensions>
      </trkpt>
      <trkpt lat="45.32661887817084789276123046875" lon="-70.9098596312105655670166015625">
        <ele>604.20001220703125</ele>
        <time>2026-08-21T16:51:05.000Z</time>
        <extensions>
          <ns3:TrackPointExtension>
            <ns3:hr>131</ns3:hr>
            <ns3:cad>0</ns3:cad>
          </ns3:TrackPointExtension>
        </extensions>
      </trkpt>
      <trkpt lat="45.3266127593815326690673828125" lon="-70.909867174923419952392578125">
        <ele>604.4000244140625</ele>
        <time>2026-08-21T16:51:06.000Z</time>
        <extensions>
          <ns3:TrackPointExtension>
            <ns3:hr>131</ns3:hr>
            <ns3:cad>0</ns3:cad>
          </ns3:TrackPointExtension>
        </extensions>
      </trkpt>
      <trkpt lat="45.32660387456417083740234375" lon="-70.90987849049270153045654296875">
        <ele>604.4000244140625</ele>
        <time>2026-08-21T16:51:07.000Z</time>
        <extensions>
          <ns3:TrackPointExtension>
            <ns3:hr>131</ns3:hr>
            <ns3:cad>0</ns3:cad>
          </ns3:TrackPointExtension>
        </extensions>
      </trkpt>
      <trkpt lat="45.32659180462360382080078125" lon="-70.909894667565822601318359375">
        <ele>604.4000244140625</ele>
        <time>2026-08-21T16:51:08.000Z</time>
        <extensions>
          <ns3:TrackPointExtension>
            <ns3:hr>131</ns3:hr>
            <ns3:cad>0</ns3:cad>
          </ns3:TrackPointExtension>
        </extensions>
      </trkpt>
      <trkpt lat="45.32657839357852935791015625" lon="-70.90990841388702392578125">
        <ele>604.5999755859375</ele>
        <time>2026-08-21T16:51:09.000Z</time>
        <extensions>
          <ns3:TrackPointExtension>
            <ns3:hr>131</ns3:hr>
            <ns3:cad>0</ns3:cad>
          </ns3:TrackPointExtension>
        </extensions>
      </trkpt>
      <trkpt lat="45.32656632363796234130859375" lon="-70.90991587378084659576416015625">
        <ele>604.5999755859375</ele>
        <time>2026-08-21T16:51:10.000Z</time>
        <extensions>
          <ns3:TrackPointExtension>
            <ns3:hr>131</ns3:hr>
            <ns3:cad>0</ns3:cad>
          </ns3:TrackPointExtension>
        </extensions>
      </trkpt>
      <trkpt lat="45.3265497274696826934814453125" lon="-70.90992626734077930450439453125">
        <ele>604.5999755859375</ele>
        <time>2026-08-21T16:51:11.000Z</time>
        <extensions>
          <ns3:TrackPointExtension>
            <ns3:hr>131</ns3:hr>
            <ns3:cad>0</ns3:cad>
          </ns3:TrackPointExtension>
        </extensions>
      </trkpt>
      <trkpt lat="45.32654042355716228485107421875" lon="-70.90993967838585376739501953125">
        <ele>604.5999755859375</ele>
        <time>2026-08-21T16:51:12.000Z</time>
        <extensions>
          <ns3:TrackPointExtension>
            <ns3:hr>132</ns3:hr>
            <ns3:cad>0</ns3:cad>
          </ns3:TrackPointExtension>
        </extensions>
      </trkpt>
      <trkpt lat="45.32653816044330596923828125" lon="-70.90994738973677158355712890625">
        <ele>604.5999755859375</ele>
        <time>2026-08-21T16:51:13.000Z</time>
        <extensions>
          <ns3:TrackPointExtension>
            <ns3:hr>132</ns3:hr>
            <ns3:cad>0</ns3:cad>
          </ns3:TrackPointExtension>
        </extensions>
      </trkpt>
      <trkpt lat="45.32653070054948329925537109375" lon="-70.909961722791194915771484375">
        <ele>604.5999755859375</ele>
        <time>2026-08-21T16:51:14.000Z</time>
        <extensions>
          <ns3:TrackPointExtension>
            <ns3:hr>132</ns3:hr>
            <ns3:cad>0</ns3:cad>
          </ns3:TrackPointExtension>
        </extensions>
      </trkpt>
      <trkpt lat="45.32652265392243862152099609375" lon="-70.90998007915914058685302734375">
        <ele>604.5999755859375</ele>
        <time>2026-08-21T16:51:15.000Z</time>
        <extensions>
          <ns3:TrackPointExtension>
            <ns3:hr>132</ns3:hr>
            <ns3:cad>0</ns3:cad>
          </ns3:TrackPointExtension>
        </extensions>
      </trkpt>
      <trkpt lat="45.3265161998569965362548828125" lon="-70.90999491512775421142578125">
        <ele>604.79998779296875</ele>
        <time>2026-08-21T16:51:16.000Z</time>
        <extensions>
          <ns3:TrackPointExtension>
            <ns3:hr>131</ns3:hr>
            <ns3:cad>0</ns3:cad>
          </ns3:TrackPointExtension>
        </extensions>
      </trkpt>
      <trkpt lat="45.32650999724864959716796875" lon="-70.91001310385763645172119140625">
        <ele>604.79998779296875</ele>
        <time>2026-08-21T16:51:17.000Z</time>
        <extensions>
          <ns3:TrackPointExtension>
            <ns3:hr>130</ns3:hr>
            <ns3:cad>0</ns3:cad>
          </ns3:TrackPointExtension>
        </extensions>
      </trkpt>
      <trkpt lat="45.326502621173858642578125" lon="-70.9100296162068843841552734375">
        <ele>604.79998779296875</ele>
        <time>2026-08-21T16:51:18.000Z</time>
        <extensions>
          <ns3:TrackPointExtension>
            <ns3:hr>130</ns3:hr>
            <ns3:cad>0</ns3:cad>
          </ns3:TrackPointExtension>
        </extensions>
      </trkpt>
      <trkpt lat="45.3264960832893848419189453125" lon="-70.9100524149835109710693359375">
        <ele>605</ele>
        <time>2026-08-21T16:51:19.000Z</time>
        <extensions>
          <ns3:TrackPointExtension>
            <ns3:hr>129</ns3:hr>
            <ns3:cad>0</ns3:cad>
          </ns3:TrackPointExtension>
        </extensions>
      </trkpt>
      <trkpt lat="45.32648183405399322509765625" lon="-70.91007831506431102752685546875">
        <ele>605</ele>
        <time>2026-08-21T16:51:20.000Z</time>
        <extensions>
          <ns3:TrackPointExtension>
            <ns3:hr>129</ns3:hr>
            <ns3:cad>0</ns3:cad>
          </ns3:TrackPointExtension>
        </extensions>
      </trkpt>
      <trkpt lat="45.32646817155182361602783203125" lon="-70.9101013652980327606201171875">
        <ele>605</ele>
        <time>2026-08-21T16:51:21.000Z</time>
        <extensions>
          <ns3:TrackPointExtension>
            <ns3:hr>128</ns3:hr>
            <ns3:cad>0</ns3:cad>
          </ns3:TrackPointExtension>
        </extensions>
      </trkpt>
      <trkpt lat="45.32645761035382747650146484375" lon="-70.9101248346269130706787109375">
        <ele>605.20001220703125</ele>
        <time>2026-08-21T16:51:22.000Z</time>
        <extensions>
          <ns3:TrackPointExtension>
            <ns3:hr>128</ns3:hr>
            <ns3:cad>0</ns3:cad>
          </ns3:TrackPointExtension>
        </extensions>
      </trkpt>
      <trkpt lat="45.32645341940224170684814453125" lon="-70.91014000587165355682373046875">
        <ele>605.20001220703125</ele>
        <time>2026-08-21T16:51:23.000Z</time>
        <extensions>
          <ns3:TrackPointExtension>
            <ns3:hr>127</ns3:hr>
            <ns3:cad>0</ns3:cad>
          </ns3:TrackPointExtension>
        </extensions>
      </trkpt>
      <trkpt lat="45.3264461271464824676513671875" lon="-70.91016464866697788238525390625">
        <ele>605.20001220703125</ele>
        <time>2026-08-21T16:51:24.000Z</time>
        <extensions>
          <ns3:TrackPointExtension>
            <ns3:hr>127</ns3:hr>
            <ns3:cad>0</ns3:cad>
          </ns3:TrackPointExtension>
        </extensions>
      </trkpt>
      <trkpt lat="45.3264511562883853912353515625" lon="-70.9101994335651397705078125">
        <ele>605.20001220703125</ele>
        <time>2026-08-21T16:51:25.000Z</time>
        <extensions>
          <ns3:TrackPointExtension>
            <ns3:hr>127</ns3:hr>
            <ns3:cad>0</ns3:cad>
          </ns3:TrackPointExtension>
        </extensions>
      </trkpt>
      <trkpt lat="45.32645232975482940673828125" lon="-70.91023237444460391998291015625">
        <ele>605.4000244140625</ele>
        <time>2026-08-21T16:51:26.000Z</time>
        <extensions>
          <ns3:TrackPointExtension>
            <ns3:hr>127</ns3:hr>
            <ns3:cad>0</ns3:cad>
          </ns3:TrackPointExtension>
        </extensions>
      </trkpt>
      <trkpt lat="45.3264488093554973602294921875" lon="-70.910266824066638946533203125">
        <ele>605.4000244140625</ele>
        <time>2026-08-21T16:51:27.000Z</time>
        <extensions>
          <ns3:TrackPointExtension>
            <ns3:hr>128</ns3:hr>
            <ns3:cad>0</ns3:cad>
          </ns3:TrackPointExtension>
        </extensions>
      </trkpt>
      <trkpt lat="45.3264467976987361907958984375" lon="-70.910293646156787872314453125">
        <ele>605.4000244140625</ele>
        <time>2026-08-21T16:51:28.000Z</time>
        <extensions>
          <ns3:TrackPointExtension>
            <ns3:hr>128</ns3:hr>
            <ns3:cad>0</ns3:cad>
          </ns3:TrackPointExtension>
        </extensions>
      </trkpt>
      <trkpt lat="45.32644336111843585968017578125" lon="-70.91031736694276332855224609375">
        <ele>605.5999755859375</ele>
        <time>2026-08-21T16:51:29.000Z</time>
        <extensions>
          <ns3:TrackPointExtension>
            <ns3:hr>128</ns3:hr>
            <ns3:cad>0</ns3:cad>
          </ns3:TrackPointExtension>
        </extensions>
      </trkpt>
      <trkpt lat="45.3264414332807064056396484375" lon="-70.91034284792840480804443359375">
        <ele>605.79998779296875</ele>
        <time>2026-08-21T16:51:30.000Z</time>
        <extensions>
          <ns3:TrackPointExtension>
            <ns3:hr>128</ns3:hr>
            <ns3:cad>0</ns3:cad>
          </ns3:TrackPointExtension>
        </extensions>
      </trkpt>
      <trkpt lat="45.326443277299404144287109375" lon="-70.91036749072372913360595703125">
        <ele>605.79998779296875</ele>
        <time>2026-08-21T16:51:31.000Z</time>
        <extensions>
          <ns3:TrackPointExtension>
            <ns3:hr>129</ns3:hr>
            <ns3:cad>70</ns3:cad>
          </ns3:TrackPointExtension>
        </extensions>
      </trkpt>
      <trkpt lat="45.3264367394149303436279296875" lon="-70.91039146296679973602294921875">
        <ele>605.79998779296875</ele>
        <time>2026-08-21T16:51:32.000Z</time>
        <extensions>
          <ns3:TrackPointExtension>
            <ns3:hr>129</ns3:hr>
            <ns3:cad>70</ns3:cad>
          </ns3:TrackPointExtension>
        </extensions>
      </trkpt>
      <trkpt lat="45.32643196173012256622314453125" lon="-70.91041409410536289215087890625">
        <ele>606</ele>
        <time>2026-08-21T16:51:33.000Z</time>
        <extensions>
          <ns3:TrackPointExtension>
            <ns3:hr>130</ns3:hr>
            <ns3:cad>70</ns3:cad>
          </ns3:TrackPointExtension>
        </extensions>
      </trkpt>
      <trkpt lat="45.3264350630342960357666015625" lon="-70.91043890453875064849853515625">
        <ele>606</ele>
        <time>2026-08-21T16:51:34.000Z</time>
        <extensions>
          <ns3:TrackPointExtension>
            <ns3:hr>130</ns3:hr>
            <ns3:cad>70</ns3:cad>
          </ns3:TrackPointExtension>
        </extensions>
      </trkpt>
      <trkpt lat="45.32643229700624942779541015625" lon="-70.91045558452606201171875">
        <ele>606</ele>
        <time>2026-08-21T16:51:35.000Z</time>
        <extensions>
          <ns3:TrackPointExtension>
            <ns3:hr>130</ns3:hr>
            <ns3:cad>70</ns3:cad>
          </ns3:TrackPointExtension>
        </extensions>
      </trkpt>
      <trkpt lat="45.32642508856952190399169921875" lon="-70.91047779656946659088134765625">
        <ele>606</ele>
        <time>2026-08-21T16:51:36.000Z</time>
        <extensions>
          <ns3:TrackPointExtension>
            <ns3:hr>131</ns3:hr>
            <ns3:cad>70</ns3:cad>
          </ns3:TrackPointExtension>
        </extensions>
      </trkpt>
      <trkpt lat="45.32641720958054065704345703125" lon="-70.91049036942422389984130859375">
        <ele>606</ele>
        <time>2026-08-21T16:51:37.000Z</time>
        <extensions>
          <ns3:TrackPointExtension>
            <ns3:hr>131</ns3:hr>
            <ns3:cad>70</ns3:cad>
          </ns3:TrackPointExtension>
        </extensions>
      </trkpt>
      <trkpt lat="45.32640631310641765594482421875" lon="-70.91050931252539157867431640625">
        <ele>606.20001220703125</ele>
        <time>2026-08-21T16:51:38.000Z</time>
        <extensions>
          <ns3:TrackPointExtension>
            <ns3:hr>132</ns3:hr>
            <ns3:cad>70</ns3:cad>
          </ns3:TrackPointExtension>
        </extensions>
      </trkpt>
      <trkpt lat="45.32640044577419757843017578125" lon="-70.91052624396979808807373046875">
        <ele>606.20001220703125</ele>
        <time>2026-08-21T16:51:39.000Z</time>
        <extensions>
          <ns3:TrackPointExtension>
            <ns3:hr>132</ns3:hr>
            <ns3:cad>67</ns3:cad>
          </ns3:TrackPointExtension>
        </extensions>
      </trkpt>
      <trkpt lat="45.326394326984882354736328125" lon="-70.910546779632568359375">
        <ele>606.20001220703125</ele>
        <time>2026-08-21T16:51:40.000Z</time>
        <extensions>
          <ns3:TrackPointExtension>
            <ns3:hr>132</ns3:hr>
            <ns3:cad>67</ns3:cad>
          </ns3:TrackPointExtension>
        </extensions>
      </trkpt>
      <trkpt lat="45.32638904638588428497314453125" lon="-70.91056915931403636932373046875">
        <ele>606.20001220703125</ele>
        <time>2026-08-21T16:51:41.000Z</time>
        <extensions>
          <ns3:TrackPointExtension>
            <ns3:hr>133</ns3:hr>
            <ns3:cad>67</ns3:cad>
          </ns3:TrackPointExtension>
        </extensions>
      </trkpt>
      <trkpt lat="45.3263827599585056304931640625" lon="-70.9105868451297283172607421875">
        <ele>606.4000244140625</ele>
        <time>2026-08-21T16:51:42.000Z</time>
        <extensions>
          <ns3:TrackPointExtension>
            <ns3:hr>134</ns3:hr>
            <ns3:cad>67</ns3:cad>
          </ns3:TrackPointExtension>
        </extensions>
      </trkpt>
      <trkpt lat="45.3263814188539981842041015625" lon="-70.91060352511703968048095703125">
        <ele>606.4000244140625</ele>
        <time>2026-08-21T16:51:43.000Z</time>
        <extensions>
          <ns3:TrackPointExtension>
            <ns3:hr>134</ns3:hr>
            <ns3:cad>67</ns3:cad>
          </ns3:TrackPointExtension>
        </extensions>
      </trkpt>
      <trkpt lat="45.32637722790241241455078125" lon="-70.910624228417873382568359375">
        <ele>606.5999755859375</ele>
        <time>2026-08-21T16:51:44.000Z</time>
        <extensions>
          <ns3:TrackPointExtension>
            <ns3:hr>135</ns3:hr>
            <ns3:cad>59</ns3:cad>
          </ns3:TrackPointExtension>
        </extensions>
      </trkpt>
      <trkpt lat="45.3263720311224460601806640625" lon="-70.91064208187162876129150390625">
        <ele>606.5999755859375</ele>
        <time>2026-08-21T16:51:45.000Z</time>
        <extensions>
          <ns3:TrackPointExtension>
            <ns3:hr>135</ns3:hr>
            <ns3:cad>59</ns3:cad>
          </ns3:TrackPointExtension>
        </extensions>
      </trkpt>
      <trkpt lat="45.3263698518276214599609375" lon="-70.9106575883924961090087890625">
        <ele>606.79998779296875</ele>
        <time>2026-08-21T16:51:46.000Z</time>
        <extensions>
          <ns3:TrackPointExtension>
            <ns3:hr>136</ns3:hr>
            <ns3:cad>59</ns3:cad>
          </ns3:TrackPointExtension>
        </extensions>
      </trkpt>
      <trkpt lat="45.3263653255999088287353515625" lon="-70.91067980043590068817138671875">
        <ele>606.79998779296875</ele>
        <time>2026-08-21T16:51:47.000Z</time>
        <extensions>
          <ns3:TrackPointExtension>
            <ns3:hr>136</ns3:hr>
            <ns3:cad>59</ns3:cad>
          </ns3:TrackPointExtension>
        </extensions>
      </trkpt>
      <trkpt lat="45.32635979354381561279296875" lon="-70.910696648061275482177734375">
        <ele>606.79998779296875</ele>
        <time>2026-08-21T16:51:48.000Z</time>
        <extensions>
          <ns3:TrackPointExtension>
            <ns3:hr>136</ns3:hr>
            <ns3:cad>0</ns3:cad>
          </ns3:TrackPointExtension>
        </extensions>
      </trkpt>
      <trkpt lat="45.32635535113513469696044921875" lon="-70.91070813126862049102783203125">
        <ele>606.79998779296875</ele>
        <time>2026-08-21T16:51:49.000Z</time>
        <extensions>
          <ns3:TrackPointExtension>
            <ns3:hr>135</ns3:hr>
            <ns3:cad>0</ns3:cad>
          </ns3:TrackPointExtension>
        </extensions>
      </trkpt>
      <trkpt lat="45.3263458795845508575439453125" lon="-70.910714082419872283935546875">
        <ele>606.79998779296875</ele>
        <time>2026-08-21T16:51:50.000Z</time>
        <extensions>
          <ns3:TrackPointExtension>
            <ns3:hr>136</ns3:hr>
            <ns3:cad>0</ns3:cad>
          </ns3:TrackPointExtension>
        </extensions>
      </trkpt>
      <trkpt lat="45.3263358213007450103759765625" lon="-70.91072170995175838470458984375">
        <ele>606.79998779296875</ele>
        <time>2026-08-21T16:51:51.000Z</time>
        <extensions>
          <ns3:TrackPointExtension>
            <ns3:hr>135</ns3:hr>
            <ns3:cad>0</ns3:cad>
          </ns3:TrackPointExtension>
        </extensions>
      </trkpt>
      <trkpt lat="45.32633121125400066375732421875" lon="-70.9107377193868160247802734375">
        <ele>606.79998779296875</ele>
        <time>2026-08-21T16:51:52.000Z</time>
        <extensions>
          <ns3:TrackPointExtension>
            <ns3:hr>135</ns3:hr>
            <ns3:cad>0</ns3:cad>
          </ns3:TrackPointExtension>
        </extensions>
      </trkpt>
      <trkpt lat="45.3263274393975734710693359375" lon="-70.91076328419148921966552734375">
        <ele>606.79998779296875</ele>
        <time>2026-08-21T16:51:53.000Z</time>
        <extensions>
          <ns3:TrackPointExtension>
            <ns3:hr>135</ns3:hr>
            <ns3:cad>0</ns3:cad>
          </ns3:TrackPointExtension>
        </extensions>
      </trkpt>
      <trkpt lat="45.32632802613079547882080078125" lon="-70.91079178266227245330810546875">
        <ele>606.79998779296875</ele>
        <time>2026-08-21T16:51:54.000Z</time>
        <extensions>
          <ns3:TrackPointExtension>
            <ns3:hr>134</ns3:hr>
            <ns3:cad>0</ns3:cad>
          </ns3:TrackPointExtension>
        </extensions>
      </trkpt>
      <trkpt lat="45.32633422873914241790771484375" lon="-70.91081223450601100921630859375">
        <ele>606.79998779296875</ele>
        <time>2026-08-21T16:51:55.000Z</time>
        <extensions>
          <ns3:TrackPointExtension>
            <ns3:hr>134</ns3:hr>
            <ns3:cad>0</ns3:cad>
          </ns3:TrackPointExtension>
        </extensions>
      </trkpt>
      <trkpt lat="45.32634160481393337249755859375" lon="-70.91082950122654438018798828125">
        <ele>606.79998779296875</ele>
        <time>2026-08-21T16:51:56.000Z</time>
        <extensions>
          <ns3:TrackPointExtension>
            <ns3:hr>134</ns3:hr>
            <ns3:cad>0</ns3:cad>
          </ns3:TrackPointExtension>
        </extensions>
      </trkpt>
      <trkpt lat="45.32634847797453403472900390625" lon="-70.910845510661602020263671875">
        <ele>606.5999755859375</ele>
        <time>2026-08-21T16:51:57.000Z</time>
        <extensions>
          <ns3:TrackPointExtension>
            <ns3:hr>134</ns3:hr>
            <ns3:cad>0</ns3:cad>
          </ns3:TrackPointExtension>
        </extensions>
      </trkpt>
      <trkpt lat="45.3263562731444835662841796875" lon="-70.9108644537627696990966796875">
        <ele>606.5999755859375</ele>
        <time>2026-08-21T16:51:58.000Z</time>
        <extensions>
          <ns3:TrackPointExtension>
            <ns3:hr>134</ns3:hr>
            <ns3:cad>0</ns3:cad>
          </ns3:TrackPointExtension>
        </extensions>
      </trkpt>
      <trkpt lat="45.3263619728386402130126953125" lon="-70.910884402692317962646484375">
        <ele>606.5999755859375</ele>
        <time>2026-08-21T16:51:59.000Z</time>
        <extensions>
          <ns3:TrackPointExtension>
            <ns3:hr>134</ns3:hr>
            <ns3:cad>0</ns3:cad>
          </ns3:TrackPointExtension>
        </extensions>
      </trkpt>
      <trkpt lat="45.326363146305084228515625" lon="-70.9109077043831348419189453125">
        <ele>606.4000244140625</ele>
        <time>2026-08-21T16:52:00.000Z</time>
        <extensions>
          <ns3:TrackPointExtension>
            <ns3:hr>133</ns3:hr>
            <ns3:cad>57</ns3:cad>
          </ns3:TrackPointExtension>
        </extensions>
      </trkpt>
      <trkpt lat="45.3263613022863864898681640625" lon="-70.91092287562787532806396484375">
        <ele>606.4000244140625</ele>
        <time>2026-08-21T16:52:01.000Z</time>
        <extensions>
          <ns3:TrackPointExtension>
            <ns3:hr>133</ns3:hr>
            <ns3:cad>57</ns3:cad>
          </ns3:TrackPointExtension>
        </extensions>
      </trkpt>
      <trkpt lat="45.3263566084206104278564453125" lon="-70.9109385497868061065673828125">
        <ele>606.20001220703125</ele>
        <time>2026-08-21T16:52:02.000Z</time>
        <extensions>
          <ns3:TrackPointExtension>
            <ns3:hr>133</ns3:hr>
            <ns3:cad>57</ns3:cad>
          </ns3:TrackPointExtension>
        </extensions>
      </trkpt>
      <trkpt lat="45.326348058879375457763671875" lon="-70.9109509550034999847412109375">
        <ele>606.20001220703125</ele>
        <time>2026-08-21T16:52:03.000Z</time>
        <extensions>
          <ns3:TrackPointExtension>
            <ns3:hr>132</ns3:hr>
            <ns3:cad>57</ns3:cad>
          </ns3:TrackPointExtension>
        </extensions>
      </trkpt>
      <trkpt lat="45.3263415209949016571044921875" lon="-70.91096428222954273223876953125">
        <ele>606.20001220703125</ele>
        <time>2026-08-21T16:52:04.000Z</time>
        <extensions>
          <ns3:TrackPointExtension>
            <ns3:hr>131</ns3:hr>
            <ns3:cad>57</ns3:cad>
          </ns3:TrackPointExtension>
        </extensions>
      </trkpt>
      <trkpt lat="45.326335318386554718017578125" lon="-70.910978615283966064453125">
        <ele>606.20001220703125</ele>
        <time>2026-08-21T16:52:05.000Z</time>
        <extensions>
          <ns3:TrackPointExtension>
            <ns3:hr>130</ns3:hr>
            <ns3:cad>57</ns3:cad>
          </ns3:TrackPointExtension>
        </extensions>
      </trkpt>
      <trkpt lat="45.32632785849273204803466796875" lon="-70.91099915094673633575439453125">
        <ele>606.20001220703125</ele>
        <time>2026-08-21T16:52:06.000Z</time>
        <extensions>
          <ns3:TrackPointExtension>
            <ns3:hr>130</ns3:hr>
            <ns3:cad>57</ns3:cad>
          </ns3:TrackPointExtension>
        </extensions>
      </trkpt>
      <trkpt lat="45.32632400281727313995361328125" lon="-70.911024548113346099853515625">
        <ele>606.20001220703125</ele>
        <time>2026-08-21T16:52:07.000Z</time>
        <extensions>
          <ns3:TrackPointExtension>
            <ns3:hr>129</ns3:hr>
            <ns3:cad>57</ns3:cad>
          </ns3:TrackPointExtension>
        </extensions>
      </trkpt>
      <trkpt lat="45.326315872371196746826171875" lon="-70.91105547733604907989501953125">
        <ele>606</ele>
        <time>2026-08-21T16:52:08.000Z</time>
        <extensions>
          <ns3:TrackPointExtension>
            <ns3:hr>128</ns3:hr>
            <ns3:cad>0</ns3:cad>
          </ns3:TrackPointExtension>
        </extensions>
      </trkpt>
      <trkpt lat="45.32630573026835918426513671875" lon="-70.9110845625400543212890625">
        <ele>606</ele>
        <time>2026-08-21T16:52:09.000Z</time>
        <extensions>
          <ns3:TrackPointExtension>
            <ns3:hr>128</ns3:hr>
            <ns3:cad>0</ns3:cad>
          </ns3:TrackPointExtension>
        </extensions>
      </trkpt>
      <trkpt lat="45.32629550434648990631103515625" lon="-70.91110912151634693145751953125">
        <ele>605.79998779296875</ele>
        <time>2026-08-21T16:52:10.000Z</time>
        <extensions>
          <ns3:TrackPointExtension>
            <ns3:hr>127</ns3:hr>
            <ns3:cad>0</ns3:cad>
          </ns3:TrackPointExtension>
        </extensions>
      </trkpt>
      <trkpt lat="45.32628536224365234375" lon="-70.91112923808395862579345703125">
        <ele>605.79998779296875</ele>
        <time>2026-08-21T16:52:11.000Z</time>
        <extensions>
          <ns3:TrackPointExtension>
            <ns3:hr>127</ns3:hr>
            <ns3:cad>0</ns3:cad>
          </ns3:TrackPointExtension>
        </extensions>
      </trkpt>
      <trkpt lat="45.32627823762595653533935546875" lon="-70.91114164330065250396728515625">
        <ele>605.79998779296875</ele>
        <time>2026-08-21T16:52:12.000Z</time>
        <extensions>
          <ns3:TrackPointExtension>
            <ns3:hr>127</ns3:hr>
            <ns3:cad>0</ns3:cad>
          </ns3:TrackPointExtension>
        </extensions>
      </trkpt>
      <trkpt lat="45.3262704424560070037841796875" lon="-70.9111554734408855438232421875">
        <ele>605.79998779296875</ele>
        <time>2026-08-21T16:52:13.000Z</time>
        <extensions>
          <ns3:TrackPointExtension>
            <ns3:hr>126</ns3:hr>
            <ns3:cad>0</ns3:cad>
          </ns3:TrackPointExtension>
        </extensions>
      </trkpt>
      <trkpt lat="45.326261557638645172119140625" lon="-70.9111739136278629302978515625">
        <ele>605.79998779296875</ele>
        <time>2026-08-21T16:52:14.000Z</time>
        <extensions>
          <ns3:TrackPointExtension>
            <ns3:hr>126</ns3:hr>
            <ns3:cad>0</ns3:cad>
          </ns3:TrackPointExtension>
        </extensions>
      </trkpt>
      <trkpt lat="45.3262540139257907867431640625" lon="-70.91119025833904743194580078125">
        <ele>605.79998779296875</ele>
        <time>2026-08-21T16:52:15.000Z</time>
        <extensions>
          <ns3:TrackPointExtension>
            <ns3:hr>126</ns3:hr>
            <ns3:cad>0</ns3:cad>
          </ns3:TrackPointExtension>
        </extensions>
      </trkpt>
      <trkpt lat="45.3262496553361415863037109375" lon="-70.91120903380215167999267578125">
        <ele>605.79998779296875</ele>
        <time>2026-08-21T16:52:16.000Z</time>
        <extensions>
          <ns3:TrackPointExtension>
            <ns3:hr>126</ns3:hr>
            <ns3:cad>0</ns3:cad>
          </ns3:TrackPointExtension>
        </extensions>
      </trkpt>
      <trkpt lat="45.32624437473714351654052734375" lon="-70.911227725446224212646484375">
        <ele>605.5999755859375</ele>
        <time>2026-08-21T16:52:17.000Z</time>
        <extensions>
          <ns3:TrackPointExtension>
            <ns3:hr>125</ns3:hr>
            <ns3:cad>0</ns3:cad>
          </ns3:TrackPointExtension>
        </extensions>
      </trkpt>
      <trkpt lat="45.32623934559524059295654296875" lon="-70.9112453274428844451904296875">
        <ele>605.4000244140625</ele>
        <time>2026-08-21T16:52:18.000Z</time>
        <extensions>
          <ns3:TrackPointExtension>
            <ns3:hr>125</ns3:hr>
            <ns3:cad>0</ns3:cad>
          </ns3:TrackPointExtension>
        </extensions>
      </trkpt>
      <trkpt lat="45.32623364590108394622802734375" lon="-70.91125966049730777740478515625">
        <ele>605.4000244140625</ele>
        <time>2026-08-21T16:52:19.000Z</time>
        <extensions>
          <ns3:TrackPointExtension>
            <ns3:hr>125</ns3:hr>
            <ns3:cad>0</ns3:cad>
          </ns3:TrackPointExtension>
        </extensions>
      </trkpt>
      <trkpt lat="45.32622727565467357635498046875" lon="-70.911277346312999725341796875">
        <ele>605.4000244140625</ele>
        <time>2026-08-21T16:52:20.000Z</time>
        <extensions>
          <ns3:TrackPointExtension>
            <ns3:hr>125</ns3:hr>
            <ns3:cad>0</ns3:cad>
          </ns3:TrackPointExtension>
        </extensions>
      </trkpt>
      <trkpt lat="45.32621889375150203704833984375" lon="-70.91129042208194732666015625">
        <ele>605.4000244140625</ele>
        <time>2026-08-21T16:52:21.000Z</time>
        <extensions>
          <ns3:TrackPointExtension>
            <ns3:hr>125</ns3:hr>
            <ns3:cad>0</ns3:cad>
          </ns3:TrackPointExtension>
        </extensions>
      </trkpt>
      <trkpt lat="45.32621168531477451324462890625" lon="-70.911294110119342803955078125">
        <ele>605.4000244140625</ele>
        <time>2026-08-21T16:52:22.000Z</time>
        <extensions>
          <ns3:TrackPointExtension>
            <ns3:hr>125</ns3:hr>
            <ns3:cad>0</ns3:cad>
          </ns3:TrackPointExtension>
        </extensions>
      </trkpt>
      <trkpt lat="45.32620330341160297393798828125" lon="-70.91130249202251434326171875">
        <ele>605.4000244140625</ele>
        <time>2026-08-21T16:52:23.000Z</time>
        <extensions>
          <ns3:TrackPointExtension>
            <ns3:hr>125</ns3:hr>
            <ns3:cad>0</ns3:cad>
          </ns3:TrackPointExtension>
        </extensions>
      </trkpt>
      <trkpt lat="45.32619274221360683441162109375" lon="-70.911319255828857421875">
        <ele>605.4000244140625</ele>
        <time>2026-08-21T16:52:24.000Z</time>
        <extensions>
          <ns3:TrackPointExtension>
            <ns3:hr>125</ns3:hr>
            <ns3:cad>0</ns3:cad>
          </ns3:TrackPointExtension>
        </extensions>
      </trkpt>
      <trkpt lat="45.32619207166135311126708984375" lon="-70.91134213842451572418212890625">
        <ele>605.20001220703125</ele>
        <time>2026-08-21T16:52:25.000Z</time>
        <extensions>
          <ns3:TrackPointExtension>
            <ns3:hr>125</ns3:hr>
            <ns3:cad>0</ns3:cad>
          </ns3:TrackPointExtension>
        </extensions>
      </trkpt>
      <trkpt lat="45.32618771307170391082763671875" lon="-70.91136091388761997222900390625">
        <ele>605.20001220703125</ele>
        <time>2026-08-21T16:52:26.000Z</time>
        <extensions>
          <ns3:TrackPointExtension>
            <ns3:hr>125</ns3:hr>
            <ns3:cad>0</ns3:cad>
          </ns3:TrackPointExtension>
        </extensions>
      </trkpt>
      <trkpt lat="45.3261802531778812408447265625" lon="-70.91138237155973911285400390625">
        <ele>605.20001220703125</ele>
        <time>2026-08-21T16:52:27.000Z</time>
        <extensions>
          <ns3:TrackPointExtension>
            <ns3:hr>126</ns3:hr>
            <ns3:cad>0</ns3:cad>
          </ns3:TrackPointExtension>
        </extensions>
      </trkpt>
      <trkpt lat="45.32617203891277313232421875" lon="-70.91139913536608219146728515625">
        <ele>605</ele>
        <time>2026-08-21T16:52:28.000Z</time>
        <extensions>
          <ns3:TrackPointExtension>
            <ns3:hr>125</ns3:hr>
            <ns3:cad>0</ns3:cad>
          </ns3:TrackPointExtension>
        </extensions>
      </trkpt>
      <trkpt lat="45.32617069780826568603515625" lon="-70.91142411343753337860107421875">
        <ele>605</ele>
        <time>2026-08-21T16:52:29.000Z</time>
        <extensions>
          <ns3:TrackPointExtension>
            <ns3:hr>125</ns3:hr>
            <ns3:cad>0</ns3:cad>
          </ns3:TrackPointExtension>
        </extensions>
      </trkpt>
      <trkpt lat="45.326167680323123931884765625" lon="-70.911450348794460296630859375">
        <ele>604.79998779296875</ele>
        <time>2026-08-21T16:52:30.000Z</time>
        <extensions>
          <ns3:TrackPointExtension>
            <ns3:hr>125</ns3:hr>
            <ns3:cad>0</ns3:cad>
          </ns3:TrackPointExtension>
        </extensions>
      </trkpt>
      <trkpt lat="45.3261584602296352386474609375" lon="-70.91147138737142086029052734375">
        <ele>604.79998779296875</ele>
        <time>2026-08-21T16:52:31.000Z</time>
        <extensions>
          <ns3:TrackPointExtension>
            <ns3:hr>124</ns3:hr>
            <ns3:cad>0</ns3:cad>
          </ns3:TrackPointExtension>
        </extensions>
      </trkpt>
      <trkpt lat="45.32614387571811676025390625" lon="-70.91148731298744678497314453125">
        <ele>604.5999755859375</ele>
        <time>2026-08-21T16:52:32.000Z</time>
        <extensions>
          <ns3:TrackPointExtension>
            <ns3:hr>125</ns3:hr>
            <ns3:cad>0</ns3:cad>
          </ns3:TrackPointExtension>
        </extensions>
      </trkpt>
      <trkpt lat="45.32613038085401058197021484375" lon="-70.9115003049373626708984375">
        <ele>604.5999755859375</ele>
        <time>2026-08-21T16:52:33.000Z</time>
        <extensions>
          <ns3:TrackPointExtension>
            <ns3:hr>124</ns3:hr>
            <ns3:cad>0</ns3:cad>
          </ns3:TrackPointExtension>
        </extensions>
      </trkpt>
      <trkpt lat="45.3261185623705387115478515625" lon="-70.9115209244191646575927734375">
        <ele>604.5999755859375</ele>
        <time>2026-08-21T16:52:34.000Z</time>
        <extensions>
          <ns3:TrackPointExtension>
            <ns3:hr>124</ns3:hr>
            <ns3:cad>0</ns3:cad>
          </ns3:TrackPointExtension>
        </extensions>
      </trkpt>
      <trkpt lat="45.32611026428639888763427734375" lon="-70.911540873348712921142578125">
        <ele>604.5999755859375</ele>
        <time>2026-08-21T16:52:35.000Z</time>
        <extensions>
          <ns3:TrackPointExtension>
            <ns3:hr>124</ns3:hr>
            <ns3:cad>72</ns3:cad>
          </ns3:TrackPointExtension>
        </extensions>
      </trkpt>
      <trkpt lat="45.32610691152513027191162109375" lon="-70.911560319364070892333984375">
        <ele>604.5999755859375</ele>
        <time>2026-08-21T16:52:36.000Z</time>
        <extensions>
          <ns3:TrackPointExtension>
            <ns3:hr>124</ns3:hr>
            <ns3:cad>72</ns3:cad>
          </ns3:TrackPointExtension>
        </extensions>
      </trkpt>
      <trkpt lat="45.326104648411273956298828125" lon="-70.911583788692951202392578125">
        <ele>604.4000244140625</ele>
        <time>2026-08-21T16:52:37.000Z</time>
        <extensions>
          <ns3:TrackPointExtension>
            <ns3:hr>124</ns3:hr>
            <ns3:cad>72</ns3:cad>
          </ns3:TrackPointExtension>
        </extensions>
      </trkpt>
      <trkpt lat="45.326098613440990447998046875" lon="-70.91160231269896030426025390625">
        <ele>604.4000244140625</ele>
        <time>2026-08-21T16:52:38.000Z</time>
        <extensions>
          <ns3:TrackPointExtension>
            <ns3:hr>124</ns3:hr>
            <ns3:cad>72</ns3:cad>
          </ns3:TrackPointExtension>
        </extensions>
      </trkpt>
      <trkpt lat="45.326091237366199493408203125" lon="-70.91162226162850856781005859375">
        <ele>604.4000244140625</ele>
        <time>2026-08-21T16:52:39.000Z</time>
        <extensions>
          <ns3:TrackPointExtension>
            <ns3:hr>124</ns3:hr>
            <ns3:cad>72</ns3:cad>
          </ns3:TrackPointExtension>
        </extensions>
      </trkpt>
      <trkpt lat="45.32608847133815288543701171875" lon="-70.91164405457675457000732421875">
        <ele>604.4000244140625</ele>
        <time>2026-08-21T16:52:40.000Z</time>
        <extensions>
          <ns3:TrackPointExtension>
            <ns3:hr>125</ns3:hr>
            <ns3:cad>72</ns3:cad>
          </ns3:TrackPointExtension>
        </extensions>
      </trkpt>
      <trkpt lat="45.3260867111384868621826171875" lon="-70.91166283003985881805419921875">
        <ele>604.5999755859375</ele>
        <time>2026-08-21T16:52:41.000Z</time>
        <extensions>
          <ns3:TrackPointExtension>
            <ns3:hr>125</ns3:hr>
            <ns3:cad>72</ns3:cad>
          </ns3:TrackPointExtension>
        </extensions>
      </trkpt>
      <trkpt lat="45.32608352601528167724609375" lon="-70.9116774983704090118408203125">
        <ele>604.5999755859375</ele>
        <time>2026-08-21T16:52:42.000Z</time>
        <extensions>
          <ns3:TrackPointExtension>
            <ns3:hr>124</ns3:hr>
            <ns3:cad>72</ns3:cad>
          </ns3:TrackPointExtension>
        </extensions>
      </trkpt>
      <trkpt lat="45.32608277164399623870849609375" lon="-70.9116826951503753662109375">
        <ele>604.79998779296875</ele>
        <time>2026-08-21T16:52:43.000Z</time>
        <extensions>
          <ns3:TrackPointExtension>
            <ns3:hr>124</ns3:hr>
            <ns3:cad>72</ns3:cad>
          </ns3:TrackPointExtension>
        </extensions>
      </trkpt>
      <trkpt lat="45.326081179082393646240234375" lon="-70.9116852097213268280029296875">
        <ele>604.79998779296875</ele>
        <time>2026-08-21T16:52:44.000Z</time>
        <extensions>
          <ns3:TrackPointExtension>
            <ns3:hr>124</ns3:hr>
            <ns3:cad>0</ns3:cad>
          </ns3:TrackPointExtension>
        </extensions>
      </trkpt>
      <trkpt lat="45.32608352601528167724609375" lon="-70.91169266961514949798583984375">
        <ele>604.79998779296875</ele>
        <time>2026-08-21T16:52:45.000Z</time>
        <extensions>
          <ns3:TrackPointExtension>
            <ns3:hr>124</ns3:hr>
            <ns3:cad>0</ns3:cad>
          </ns3:TrackPointExtension>
        </extensions>
      </trkpt>
      <trkpt lat="45.3260863758623600006103515625" lon="-70.911695100367069244384765625">
        <ele>604.79998779296875</ele>
        <time>2026-08-21T16:52:46.000Z</time>
        <extensions>
          <ns3:TrackPointExtension>
            <ns3:hr>124</ns3:hr>
            <ns3:cad>0</ns3:cad>
          </ns3:TrackPointExtension>
        </extensions>
      </trkpt>
      <trkpt lat="45.32609014771878719329833984375" lon="-70.9117163904011249542236328125">
        <ele>604.79998779296875</ele>
        <time>2026-08-21T16:52:47.000Z</time>
        <extensions>
          <ns3:TrackPointExtension>
            <ns3:hr>124</ns3:hr>
            <ns3:cad>0</ns3:cad>
          </ns3:TrackPointExtension>
        </extensions>
      </trkpt>
      <trkpt lat="45.3260971046984195709228515625" lon="-70.91173357330262660980224609375">
        <ele>604.79998779296875</ele>
        <time>2026-08-21T16:52:48.000Z</time>
        <extensions>
          <ns3:TrackPointExtension>
            <ns3:hr>123</ns3:hr>
            <ns3:cad>0</ns3:cad>
          </ns3:TrackPointExtension>
        </extensions>
      </trkpt>
      <trkpt lat="45.3261085040867328643798828125" lon="-70.91175469569861888885498046875">
        <ele>604.79998779296875</ele>
        <time>2026-08-21T16:52:49.000Z</time>
        <extensions>
          <ns3:TrackPointExtension>
            <ns3:hr>124</ns3:hr>
            <ns3:cad>0</ns3:cad>
          </ns3:TrackPointExtension>
        </extensions>
      </trkpt>
      <trkpt lat="45.32612099312245845794677734375" lon="-70.9117685258388519287109375">
        <ele>604.79998779296875</ele>
        <time>2026-08-21T16:52:50.000Z</time>
        <extensions>
          <ns3:TrackPointExtension>
            <ns3:hr>124</ns3:hr>
            <ns3:cad>0</ns3:cad>
          </ns3:TrackPointExtension>
        </extensions>
      </trkpt>
      <trkpt lat="45.32613180577754974365234375" lon="-70.9117800928652286529541015625">
        <ele>604.79998779296875</ele>
        <time>2026-08-21T16:52:51.000Z</time>
        <extensions>
          <ns3:TrackPointExtension>
            <ns3:hr>123</ns3:hr>
            <ns3:cad>0</ns3:cad>
          </ns3:TrackPointExtension>
        </extensions>
      </trkpt>
      <trkpt lat="45.32614831812679767608642578125" lon="-70.91179442591965198516845703125">
        <ele>604.79998779296875</ele>
        <time>2026-08-21T16:52:52.000Z</time>
        <extensions>
          <ns3:TrackPointExtension>
            <ns3:hr>124</ns3:hr>
            <ns3:cad>0</ns3:cad>
          </ns3:TrackPointExtension>
        </extensions>
      </trkpt>
      <trkpt lat="45.3261686861515045166015625" lon="-70.91181202791631221771240234375">
        <ele>604.79998779296875</ele>
        <time>2026-08-21T16:52:53.000Z</time>
        <extensions>
          <ns3:TrackPointExtension>
            <ns3:hr>124</ns3:hr>
            <ns3:cad>0</ns3:cad>
          </ns3:TrackPointExtension>
        </extensions>
      </trkpt>
      <trkpt lat="45.326179079711437225341796875" lon="-70.91182745061814785003662109375">
        <ele>604.79998779296875</ele>
        <time>2026-08-21T16:52:54.000Z</time>
        <extensions>
          <ns3:TrackPointExtension>
            <ns3:hr>125</ns3:hr>
            <ns3:cad>0</ns3:cad>
          </ns3:TrackPointExtension>
        </extensions>
      </trkpt>
      <trkpt lat="45.326198525726795196533203125" lon="-70.91184538789093494415283203125">
        <ele>604.79998779296875</ele>
        <time>2026-08-21T16:52:55.000Z</time>
        <extensions>
          <ns3:TrackPointExtension>
            <ns3:hr>125</ns3:hr>
            <ns3:cad>0</ns3:cad>
          </ns3:TrackPointExtension>
        </extensions>
      </trkpt>
      <trkpt lat="45.32621537335216999053955078125" lon="-70.91186131350696086883544921875">
        <ele>604.79998779296875</ele>
        <time>2026-08-21T16:52:56.000Z</time>
        <extensions>
          <ns3:TrackPointExtension>
            <ns3:hr>125</ns3:hr>
            <ns3:cad>75</ns3:cad>
          </ns3:TrackPointExtension>
        </extensions>
      </trkpt>
      <trkpt lat="45.32622828148305416107177734375" lon="-70.91187916696071624755859375">
        <ele>604.79998779296875</ele>
        <time>2026-08-21T16:52:57.000Z</time>
        <extensions>
          <ns3:TrackPointExtension>
            <ns3:hr>126</ns3:hr>
            <ns3:cad>75</ns3:cad>
          </ns3:TrackPointExtension>
        </extensions>
      </trkpt>
      <trkpt lat="45.326250158250331878662109375" lon="-70.91190506704151630401611328125">
        <ele>604.5999755859375</ele>
        <time>2026-08-21T16:52:58.000Z</time>
        <extensions>
          <ns3:TrackPointExtension>
            <ns3:hr>126</ns3:hr>
            <ns3:cad>75</ns3:cad>
          </ns3:TrackPointExtension>
        </extensions>
      </trkpt>
      <trkpt lat="45.32626457512378692626953125" lon="-70.911923758685588836669921875">
        <ele>604.4000244140625</ele>
        <time>2026-08-21T16:52:59.000Z</time>
        <extensions>
          <ns3:TrackPointExtension>
            <ns3:hr>127</ns3:hr>
            <ns3:cad>77</ns3:cad>
          </ns3:TrackPointExtension>
        </extensions>
      </trkpt>
      <trkpt lat="45.326279662549495697021484375" lon="-70.9119433723390102386474609375">
        <ele>604.4000244140625</ele>
        <time>2026-08-21T16:53:00.000Z</time>
        <extensions>
          <ns3:TrackPointExtension>
            <ns3:hr>127</ns3:hr>
            <ns3:cad>77</ns3:cad>
          </ns3:TrackPointExtension>
        </extensions>
      </trkpt>
      <trkpt lat="45.32629583962261676788330078125" lon="-70.9119611419737339019775390625">
        <ele>604.4000244140625</ele>
        <time>2026-08-21T16:53:01.000Z</time>
        <extensions>
          <ns3:TrackPointExtension>
            <ns3:hr>127</ns3:hr>
            <ns3:cad>78</ns3:cad>
          </ns3:TrackPointExtension>
        </extensions>
      </trkpt>
      <trkpt lat="45.32630707137286663055419921875" lon="-70.91197832487523555755615234375">
        <ele>604.20001220703125</ele>
        <time>2026-08-21T16:53:02.000Z</time>
        <extensions>
          <ns3:TrackPointExtension>
            <ns3:hr>128</ns3:hr>
            <ns3:cad>78</ns3:cad>
          </ns3:TrackPointExtension>
        </extensions>
      </trkpt>
      <trkpt lat="45.32631553709506988525390625" lon="-70.91199508868157863616943359375">
        <ele>604.20001220703125</ele>
        <time>2026-08-21T16:53:03.000Z</time>
        <extensions>
          <ns3:TrackPointExtension>
            <ns3:hr>128</ns3:hr>
            <ns3:cad>78</ns3:cad>
          </ns3:TrackPointExtension>
        </extensions>
      </trkpt>
      <trkpt lat="45.3263257630169391632080078125" lon="-70.9120072424411773681640625">
        <ele>604.20001220703125</ele>
        <time>2026-08-21T16:53:04.000Z</time>
        <extensions>
          <ns3:TrackPointExtension>
            <ns3:hr>129</ns3:hr>
            <ns3:cad>0</ns3:cad>
          </ns3:TrackPointExtension>
        </extensions>
      </trkpt>
      <trkpt lat="45.32633624039590358734130859375" lon="-70.9120208211243152618408203125">
        <ele>604.20001220703125</ele>
        <time>2026-08-21T16:53:05.000Z</time>
        <extensions>
          <ns3:TrackPointExtension>
            <ns3:hr>129</ns3:hr>
            <ns3:cad>0</ns3:cad>
          </ns3:TrackPointExtension>
        </extensions>
      </trkpt>
      <trkpt lat="45.32634696923196315765380859375" lon="-70.91203716583549976348876953125">
        <ele>604.20001220703125</ele>
        <time>2026-08-21T16:53:06.000Z</time>
        <extensions>
          <ns3:TrackPointExtension>
            <ns3:hr>131</ns3:hr>
            <ns3:cad>59</ns3:cad>
          </ns3:TrackPointExtension>
        </extensions>
      </trkpt>
      <trkpt lat="45.3263592906296253204345703125" lon="-70.91205091215670108795166015625">
        <ele>604.20001220703125</ele>
        <time>2026-08-21T16:53:07.000Z</time>
        <extensions>
          <ns3:TrackPointExtension>
            <ns3:hr>131</ns3:hr>
            <ns3:cad>59</ns3:cad>
          </ns3:TrackPointExtension>
        </extensions>
      </trkpt>
      <trkpt lat="45.32637043856084346771240234375" lon="-70.91206490993499755859375">
        <ele>604.20001220703125</ele>
        <time>2026-08-21T16:53:08.000Z</time>
        <extensions>
          <ns3:TrackPointExtension>
            <ns3:hr>131</ns3:hr>
            <ns3:cad>59</ns3:cad>
          </ns3:TrackPointExtension>
        </extensions>
      </trkpt>
      <trkpt lat="45.32638770528137683868408203125" lon="-70.91207773424685001373291015625">
        <ele>604.20001220703125</ele>
        <time>2026-08-21T16:53:09.000Z</time>
        <extensions>
          <ns3:TrackPointExtension>
            <ns3:hr>130</ns3:hr>
            <ns3:cad>59</ns3:cad>
          </ns3:TrackPointExtension>
        </extensions>
      </trkpt>
      <trkpt lat="45.326399691402912139892578125" lon="-70.9120952524244785308837890625">
        <ele>604.20001220703125</ele>
        <time>2026-08-21T16:53:10.000Z</time>
        <extensions>
          <ns3:TrackPointExtension>
            <ns3:hr>128</ns3:hr>
            <ns3:cad>59</ns3:cad>
          </ns3:TrackPointExtension>
        </extensions>
      </trkpt>
      <trkpt lat="45.326412431895732879638671875" lon="-70.912111513316631317138671875">
        <ele>604.20001220703125</ele>
        <time>2026-08-21T16:53:11.000Z</time>
        <extensions>
          <ns3:TrackPointExtension>
            <ns3:hr>127</ns3:hr>
            <ns3:cad>59</ns3:cad>
          </ns3:TrackPointExtension>
        </extensions>
      </trkpt>
      <trkpt lat="45.32642324455082416534423828125" lon="-70.9121250919997692108154296875">
        <ele>604.20001220703125</ele>
        <time>2026-08-21T16:53:12.000Z</time>
        <extensions>
          <ns3:TrackPointExtension>
            <ns3:hr>126</ns3:hr>
            <ns3:cad>59</ns3:cad>
          </ns3:TrackPointExtension>
        </extensions>
      </trkpt>
      <trkpt lat="45.3264360688626766204833984375" lon="-70.9121378324925899505615234375">
        <ele>604.20001220703125</ele>
        <time>2026-08-21T16:53:13.000Z</time>
        <extensions>
          <ns3:TrackPointExtension>
            <ns3:hr>126</ns3:hr>
            <ns3:cad>59</ns3:cad>
          </ns3:TrackPointExtension>
        </extensions>
      </trkpt>
      <trkpt lat="45.32644906081259250640869140625" lon="-70.9121499024331569671630859375">
        <ele>604.20001220703125</ele>
        <time>2026-08-21T16:53:14.000Z</time>
        <extensions>
          <ns3:TrackPointExtension>
            <ns3:hr>126</ns3:hr>
            <ns3:cad>59</ns3:cad>
          </ns3:TrackPointExtension>
        </extensions>
      </trkpt>
      <trkpt lat="45.32646062783896923065185546875" lon="-70.9121616370975971221923828125">
        <ele>604.20001220703125</ele>
        <time>2026-08-21T16:53:15.000Z</time>
        <extensions>
          <ns3:TrackPointExtension>
            <ns3:hr>126</ns3:hr>
            <ns3:cad>59</ns3:cad>
          </ns3:TrackPointExtension>
        </extensions>
      </trkpt>
      <trkpt lat="45.32647353596985340118408203125" lon="-70.91217546723783016204833984375">
        <ele>604.4000244140625</ele>
        <time>2026-08-21T16:53:16.000Z</time>
        <extensions>
          <ns3:TrackPointExtension>
            <ns3:hr>126</ns3:hr>
            <ns3:cad>59</ns3:cad>
          </ns3:TrackPointExtension>
        </extensions>
      </trkpt>
      <trkpt lat="45.32649256289005279541015625" lon="-70.91219223104417324066162109375">
        <ele>604.4000244140625</ele>
        <time>2026-08-21T16:53:17.000Z</time>
        <extensions>
          <ns3:TrackPointExtension>
            <ns3:hr>127</ns3:hr>
            <ns3:cad>59</ns3:cad>
          </ns3:TrackPointExtension>
        </extensions>
      </trkpt>
      <trkpt lat="45.3265058062970638275146484375" lon="-70.91220111586153507232666015625">
        <ele>604.5999755859375</ele>
        <time>2026-08-21T16:53:18.000Z</time>
        <extensions>
          <ns3:TrackPointExtension>
            <ns3:hr>127</ns3:hr>
            <ns3:cad>59</ns3:cad>
          </ns3:TrackPointExtension>
        </extensions>
      </trkpt>
      <trkpt lat="45.32651846297085285186767578125" lon="-70.91221285052597522735595703125">
        <ele>604.5999755859375</ele>
        <time>2026-08-21T16:53:19.000Z</time>
        <extensions>
          <ns3:TrackPointExtension>
            <ns3:hr>128</ns3:hr>
            <ns3:cad>59</ns3:cad>
          </ns3:TrackPointExtension>
        </extensions>
      </trkpt>
      <trkpt lat="45.3265339694917201995849609375" lon="-70.9122266806662082672119140625">
        <ele>604.5999755859375</ele>
        <time>2026-08-21T16:53:20.000Z</time>
        <extensions>
          <ns3:TrackPointExtension>
            <ns3:hr>128</ns3:hr>
            <ns3:cad>59</ns3:cad>
          </ns3:TrackPointExtension>
        </extensions>
      </trkpt>
      <trkpt lat="45.32654796727001667022705078125" lon="-70.9122405946254730224609375">
        <ele>604.5999755859375</ele>
        <time>2026-08-21T16:53:21.000Z</time>
        <extensions>
          <ns3:TrackPointExtension>
            <ns3:hr>128</ns3:hr>
            <ns3:cad>59</ns3:cad>
          </ns3:TrackPointExtension>
        </extensions>
      </trkpt>
      <trkpt lat="45.326562635600566864013671875" lon="-70.9122538380324840545654296875">
        <ele>604.5999755859375</ele>
        <time>2026-08-21T16:53:22.000Z</time>
        <extensions>
          <ns3:TrackPointExtension>
            <ns3:hr>128</ns3:hr>
            <ns3:cad>59</ns3:cad>
          </ns3:TrackPointExtension>
        </extensions>
      </trkpt>
      <trkpt lat="45.3265742026269435882568359375" lon="-70.91226674616336822509765625">
        <ele>604.4000244140625</ele>
        <time>2026-08-21T16:53:23.000Z</time>
        <extensions>
          <ns3:TrackPointExtension>
            <ns3:hr>128</ns3:hr>
            <ns3:cad>58</ns3:cad>
          </ns3:TrackPointExtension>
        </extensions>
      </trkpt>
      <trkpt lat="45.3265845961868762969970703125" lon="-70.912281163036823272705078125">
        <ele>604.4000244140625</ele>
        <time>2026-08-21T16:53:24.000Z</time>
        <extensions>
          <ns3:TrackPointExtension>
            <ns3:hr>127</ns3:hr>
            <ns3:cad>60</ns3:cad>
          </ns3:TrackPointExtension>
        </extensions>
      </trkpt>
      <trkpt lat="45.32659607939422130584716796875" lon="-70.91229398734867572784423828125">
        <ele>604.20001220703125</ele>
        <time>2026-08-21T16:53:25.000Z</time>
        <extensions>
          <ns3:TrackPointExtension>
            <ns3:hr>127</ns3:hr>
            <ns3:cad>60</ns3:cad>
          </ns3:TrackPointExtension>
        </extensions>
      </trkpt>
      <trkpt lat="45.32661066390573978424072265625" lon="-70.9123049676418304443359375">
        <ele>604.20001220703125</ele>
        <time>2026-08-21T16:53:26.000Z</time>
        <extensions>
          <ns3:TrackPointExtension>
            <ns3:hr>127</ns3:hr>
            <ns3:cad>60</ns3:cad>
          </ns3:TrackPointExtension>
        </extensions>
      </trkpt>
      <trkpt lat="45.3266191296279430389404296875" lon="-70.9123175404965877532958984375">
        <ele>604.20001220703125</ele>
        <time>2026-08-21T16:53:27.000Z</time>
        <extensions>
          <ns3:TrackPointExtension>
            <ns3:hr>128</ns3:hr>
            <ns3:cad>60</ns3:cad>
          </ns3:TrackPointExtension>
        </extensions>
      </trkpt>
      <trkpt lat="45.326632373034954071044921875" lon="-70.912329442799091339111328125">
        <ele>604.20001220703125</ele>
        <time>2026-08-21T16:53:28.000Z</time>
        <extensions>
          <ns3:TrackPointExtension>
            <ns3:hr>128</ns3:hr>
            <ns3:cad>60</ns3:cad>
          </ns3:TrackPointExtension>
        </extensions>
      </trkpt>
      <trkpt lat="45.3266412578523159027099609375" lon="-70.9123470447957515716552734375">
        <ele>604.20001220703125</ele>
        <time>2026-08-21T16:53:29.000Z</time>
        <extensions>
          <ns3:TrackPointExtension>
            <ns3:hr>128</ns3:hr>
            <ns3:cad>60</ns3:cad>
          </ns3:TrackPointExtension>
        </extensions>
      </trkpt>
      <trkpt lat="45.32665290869772434234619140625" lon="-70.9123651497066020965576171875">
        <ele>604.20001220703125</ele>
        <time>2026-08-21T16:53:30.000Z</time>
        <extensions>
          <ns3:TrackPointExtension>
            <ns3:hr>128</ns3:hr>
            <ns3:cad>60</ns3:cad>
          </ns3:TrackPointExtension>
        </extensions>
      </trkpt>
      <trkpt lat="45.32666682265698909759521484375" lon="-70.91237747110426425933837890625">
        <ele>604.20001220703125</ele>
        <time>2026-08-21T16:53:31.000Z</time>
        <extensions>
          <ns3:TrackPointExtension>
            <ns3:hr>128</ns3:hr>
            <ns3:cad>60</ns3:cad>
          </ns3:TrackPointExtension>
        </extensions>
      </trkpt>
      <trkpt lat="45.32668056897819042205810546875" lon="-70.91239172033965587615966796875">
        <ele>604.20001220703125</ele>
        <time>2026-08-21T16:53:32.000Z</time>
        <extensions>
          <ns3:TrackPointExtension>
            <ns3:hr>128</ns3:hr>
            <ns3:cad>60</ns3:cad>
          </ns3:TrackPointExtension>
        </extensions>
      </trkpt>
      <trkpt lat="45.32669230364263057708740234375" lon="-70.9124084003269672393798828125">
        <ele>604.20001220703125</ele>
        <time>2026-08-21T16:53:33.000Z</time>
        <extensions>
          <ns3:TrackPointExtension>
            <ns3:hr>129</ns3:hr>
            <ns3:cad>60</ns3:cad>
          </ns3:TrackPointExtension>
        </extensions>
      </trkpt>
      <trkpt lat="45.3267039544880390167236328125" lon="-70.9124254994094371795654296875">
        <ele>604.20001220703125</ele>
        <time>2026-08-21T16:53:34.000Z</time>
        <extensions>
          <ns3:TrackPointExtension>
            <ns3:hr>128</ns3:hr>
            <ns3:cad>60</ns3:cad>
          </ns3:TrackPointExtension>
        </extensions>
      </trkpt>
      <trkpt lat="45.3267177008092403411865234375" lon="-70.91244251467287540435791015625">
        <ele>604.20001220703125</ele>
        <time>2026-08-21T16:53:35.000Z</time>
        <extensions>
          <ns3:TrackPointExtension>
            <ns3:hr>128</ns3:hr>
            <ns3:cad>59</ns3:cad>
          </ns3:TrackPointExtension>
        </extensions>
      </trkpt>
      <trkpt lat="45.32672935165464878082275390625" lon="-70.91245844028890132904052734375">
        <ele>604.20001220703125</ele>
        <time>2026-08-21T16:53:36.000Z</time>
        <extensions>
          <ns3:TrackPointExtension>
            <ns3:hr>128</ns3:hr>
            <ns3:cad>59</ns3:cad>
          </ns3:TrackPointExtension>
        </extensions>
      </trkpt>
      <trkpt lat="45.3267394937574863433837890625" lon="-70.91247352771461009979248046875">
        <ele>604.20001220703125</ele>
        <time>2026-08-21T16:53:37.000Z</time>
        <extensions>
          <ns3:TrackPointExtension>
            <ns3:hr>128</ns3:hr>
            <ns3:cad>59</ns3:cad>
          </ns3:TrackPointExtension>
        </extensions>
      </trkpt>
      <trkpt lat="45.3267562575638294219970703125" lon="-70.912489034235477447509765625">
        <ele>604.20001220703125</ele>
        <time>2026-08-21T16:53:38.000Z</time>
        <extensions>
          <ns3:TrackPointExtension>
            <ns3:hr>128</ns3:hr>
            <ns3:cad>59</ns3:cad>
          </ns3:TrackPointExtension>
        </extensions>
      </trkpt>
      <trkpt lat="45.3267710097134113311767578125" lon="-70.91250185854732990264892578125">
        <ele>604.20001220703125</ele>
        <time>2026-08-21T16:53:39.000Z</time>
        <extensions>
          <ns3:TrackPointExtension>
            <ns3:hr>128</ns3:hr>
            <ns3:cad>59</ns3:cad>
          </ns3:TrackPointExtension>
        </extensions>
      </trkpt>
      <trkpt lat="45.3267817385494709014892578125" lon="-70.91251493431627750396728515625">
        <ele>604</ele>
        <time>2026-08-21T16:53:40.000Z</time>
        <extensions>
          <ns3:TrackPointExtension>
            <ns3:hr>127</ns3:hr>
            <ns3:cad>59</ns3:cad>
          </ns3:TrackPointExtension>
        </extensions>
      </trkpt>
      <trkpt lat="45.32680110074579715728759765625" lon="-70.91252599842846393585205078125">
        <ele>604</ele>
        <time>2026-08-21T16:53:41.000Z</time>
        <extensions>
          <ns3:TrackPointExtension>
            <ns3:hr>127</ns3:hr>
            <ns3:cad>59</ns3:cad>
          </ns3:TrackPointExtension>
        </extensions>
      </trkpt>
      <trkpt lat="45.326814763247966766357421875" lon="-70.91253873892128467559814453125">
        <ele>604</ele>
        <time>2026-08-21T16:53:42.000Z</time>
        <extensions>
          <ns3:TrackPointExtension>
            <ns3:hr>128</ns3:hr>
            <ns3:cad>59</ns3:cad>
          </ns3:TrackPointExtension>
        </extensions>
      </trkpt>
      <trkpt lat="45.3268259949982166290283203125" lon="-70.91255374252796173095703125">
        <ele>604</ele>
        <time>2026-08-21T16:53:43.000Z</time>
        <extensions>
          <ns3:TrackPointExtension>
            <ns3:hr>127</ns3:hr>
            <ns3:cad>59</ns3:cad>
          </ns3:TrackPointExtension>
        </extensions>
      </trkpt>
      <trkpt lat="45.32684125006198883056640625" lon="-70.91256874613463878631591796875">
        <ele>604</ele>
        <time>2026-08-21T16:53:44.000Z</time>
        <extensions>
          <ns3:TrackPointExtension>
            <ns3:hr>127</ns3:hr>
            <ns3:cad>59</ns3:cad>
          </ns3:TrackPointExtension>
        </extensions>
      </trkpt>
      <trkpt lat="45.326852314174175262451171875" lon="-70.91258584521710872650146484375">
        <ele>604</ele>
        <time>2026-08-21T16:53:45.000Z</time>
        <extensions>
          <ns3:TrackPointExtension>
            <ns3:hr>127</ns3:hr>
            <ns3:cad>59</ns3:cad>
          </ns3:TrackPointExtension>
        </extensions>
      </trkpt>
      <trkpt lat="45.3268633782863616943359375" lon="-70.912604369223117828369140625">
        <ele>604</ele>
        <time>2026-08-21T16:53:46.000Z</time>
        <extensions>
          <ns3:TrackPointExtension>
            <ns3:hr>126</ns3:hr>
            <ns3:cad>59</ns3:cad>
          </ns3:TrackPointExtension>
        </extensions>
      </trkpt>
      <trkpt lat="45.32687519676983356475830078125" lon="-70.91262104921042919158935546875">
        <ele>604</ele>
        <time>2026-08-21T16:53:47.000Z</time>
        <extensions>
          <ns3:TrackPointExtension>
            <ns3:hr>126</ns3:hr>
            <ns3:cad>59</ns3:cad>
          </ns3:TrackPointExtension>
        </extensions>
      </trkpt>
      <trkpt lat="45.3268856741487979888916015625" lon="-70.9126363880932331085205078125">
        <ele>603.79998779296875</ele>
        <time>2026-08-21T16:53:48.000Z</time>
        <extensions>
          <ns3:TrackPointExtension>
            <ns3:hr>126</ns3:hr>
            <ns3:cad>59</ns3:cad>
          </ns3:TrackPointExtension>
        </extensions>
      </trkpt>
      <trkpt lat="45.32689397223293781280517578125" lon="-70.91265566647052764892578125">
        <ele>603.79998779296875</ele>
        <time>2026-08-21T16:53:49.000Z</time>
        <extensions>
          <ns3:TrackPointExtension>
            <ns3:hr>126</ns3:hr>
            <ns3:cad>59</ns3:cad>
          </ns3:TrackPointExtension>
        </extensions>
      </trkpt>
      <trkpt lat="45.32690520398318767547607421875" lon="-70.91267444193363189697265625">
        <ele>604</ele>
        <time>2026-08-21T16:53:50.000Z</time>
        <extensions>
          <ns3:TrackPointExtension>
            <ns3:hr>127</ns3:hr>
            <ns3:cad>60</ns3:cad>
          </ns3:TrackPointExtension>
        </extensions>
      </trkpt>
      <trkpt lat="45.32691928558051586151123046875" lon="-70.9126933850347995758056640625">
        <ele>603.79998779296875</ele>
        <time>2026-08-21T16:53:51.000Z</time>
        <extensions>
          <ns3:TrackPointExtension>
            <ns3:hr>126</ns3:hr>
            <ns3:cad>60</ns3:cad>
          </ns3:TrackPointExtension>
        </extensions>
      </trkpt>
      <trkpt lat="45.3269331157207489013671875" lon="-70.9127088077366352081298828125">
        <ele>603.79998779296875</ele>
        <time>2026-08-21T16:53:52.000Z</time>
        <extensions>
          <ns3:TrackPointExtension>
            <ns3:hr>127</ns3:hr>
            <ns3:cad>59</ns3:cad>
          </ns3:TrackPointExtension>
        </extensions>
      </trkpt>
      <trkpt lat="45.32694510184228420257568359375" lon="-70.91272406280040740966796875">
        <ele>603.79998779296875</ele>
        <time>2026-08-21T16:53:53.000Z</time>
        <extensions>
          <ns3:TrackPointExtension>
            <ns3:hr>127</ns3:hr>
            <ns3:cad>59</ns3:cad>
          </ns3:TrackPointExtension>
        </extensions>
      </trkpt>
      <trkpt lat="45.32695566304028034210205078125" lon="-70.9127394855022430419921875">
        <ele>603.79998779296875</ele>
        <time>2026-08-21T16:53:54.000Z</time>
        <extensions>
          <ns3:TrackPointExtension>
            <ns3:hr>127</ns3:hr>
            <ns3:cad>59</ns3:cad>
          </ns3:TrackPointExtension>
        </extensions>
      </trkpt>
      <trkpt lat="45.326968990266323089599609375" lon="-70.9127547405660152435302734375">
        <ele>603.79998779296875</ele>
        <time>2026-08-21T16:53:55.000Z</time>
        <extensions>
          <ns3:TrackPointExtension>
            <ns3:hr>126</ns3:hr>
            <ns3:cad>59</ns3:cad>
          </ns3:TrackPointExtension>
        </extensions>
      </trkpt>
      <trkpt lat="45.326982401311397552490234375" lon="-70.912768654525279998779296875">
        <ele>603.79998779296875</ele>
        <time>2026-08-21T16:53:56.000Z</time>
        <extensions>
          <ns3:TrackPointExtension>
            <ns3:hr>126</ns3:hr>
            <ns3:cad>59</ns3:cad>
          </ns3:TrackPointExtension>
        </extensions>
      </trkpt>
      <trkpt lat="45.32699908129870891571044921875" lon="-70.91278173029422760009765625">
        <ele>603.79998779296875</ele>
        <time>2026-08-21T16:53:57.000Z</time>
        <extensions>
          <ns3:TrackPointExtension>
            <ns3:hr>126</ns3:hr>
            <ns3:cad>59</ns3:cad>
          </ns3:TrackPointExtension>
        </extensions>
      </trkpt>
      <trkpt lat="45.327011235058307647705078125" lon="-70.91279388405382633209228515625">
        <ele>603.5999755859375</ele>
        <time>2026-08-21T16:53:58.000Z</time>
        <extensions>
          <ns3:TrackPointExtension>
            <ns3:hr>126</ns3:hr>
            <ns3:cad>59</ns3:cad>
          </ns3:TrackPointExtension>
        </extensions>
      </trkpt>
      <trkpt lat="45.32702590338885784149169921875" lon="-70.91281148605048656463623046875">
        <ele>603.5999755859375</ele>
        <time>2026-08-21T16:53:59.000Z</time>
        <extensions>
          <ns3:TrackPointExtension>
            <ns3:hr>126</ns3:hr>
            <ns3:cad>59</ns3:cad>
          </ns3:TrackPointExtension>
        </extensions>
      </trkpt>
      <trkpt lat="45.32703914679586887359619140625" lon="-70.91282866895198822021484375">
        <ele>603.5999755859375</ele>
        <time>2026-08-21T16:54:00.000Z</time>
        <extensions>
          <ns3:TrackPointExtension>
            <ns3:hr>126</ns3:hr>
            <ns3:cad>59</ns3:cad>
          </ns3:TrackPointExtension>
        </extensions>
      </trkpt>
      <trkpt lat="45.32705607824027538299560546875" lon="-70.9128479473292827606201171875">
        <ele>603.4000244140625</ele>
        <time>2026-08-21T16:54:01.000Z</time>
        <extensions>
          <ns3:TrackPointExtension>
            <ns3:hr>126</ns3:hr>
            <ns3:cad>59</ns3:cad>
          </ns3:TrackPointExtension>
        </extensions>
      </trkpt>
      <trkpt lat="45.32707585953176021575927734375" lon="-70.9128653816878795623779296875">
        <ele>603.4000244140625</ele>
        <time>2026-08-21T16:54:02.000Z</time>
        <extensions>
          <ns3:TrackPointExtension>
            <ns3:hr>126</ns3:hr>
            <ns3:cad>58</ns3:cad>
          </ns3:TrackPointExtension>
        </extensions>
      </trkpt>
      <trkpt lat="45.32709429971873760223388671875" lon="-70.912884660065174102783203125">
        <ele>603.4000244140625</ele>
        <time>2026-08-21T16:54:03.000Z</time>
        <extensions>
          <ns3:TrackPointExtension>
            <ns3:hr>125</ns3:hr>
            <ns3:cad>58</ns3:cad>
          </ns3:TrackPointExtension>
        </extensions>
      </trkpt>
      <trkpt lat="45.32711424864828586578369140625" lon="-70.91290418989956378936767578125">
        <ele>603.4000244140625</ele>
        <time>2026-08-21T16:54:04.000Z</time>
        <extensions>
          <ns3:TrackPointExtension>
            <ns3:hr>126</ns3:hr>
            <ns3:cad>0</ns3:cad>
          </ns3:TrackPointExtension>
        </extensions>
      </trkpt>
      <trkpt lat="45.32713017426431179046630859375" lon="-70.9129218757152557373046875">
        <ele>603.4000244140625</ele>
        <time>2026-08-21T16:54:05.000Z</time>
        <extensions>
          <ns3:TrackPointExtension>
            <ns3:hr>126</ns3:hr>
            <ns3:cad>0</ns3:cad>
          </ns3:TrackPointExtension>
        </extensions>
      </trkpt>
      <trkpt lat="45.32715129666030406951904296875" lon="-70.91294844634830951690673828125">
        <ele>603.4000244140625</ele>
        <time>2026-08-21T16:54:06.000Z</time>
        <extensions>
          <ns3:TrackPointExtension>
            <ns3:hr>126</ns3:hr>
            <ns3:cad>0</ns3:cad>
          </ns3:TrackPointExtension>
        </extensions>
      </trkpt>
      <trkpt lat="45.32716839574277400970458984375" lon="-70.912963449954986572265625">
        <ele>603.20001220703125</ele>
        <time>2026-08-21T16:54:07.000Z</time>
        <extensions>
          <ns3:TrackPointExtension>
            <ns3:hr>126</ns3:hr>
            <ns3:cad>40</ns3:cad>
          </ns3:TrackPointExtension>
        </extensions>
      </trkpt>
      <trkpt lat="45.32718650065362453460693359375" lon="-70.91298147104680538177490234375">
        <ele>603.20001220703125</ele>
        <time>2026-08-21T16:54:08.000Z</time>
        <extensions>
          <ns3:TrackPointExtension>
            <ns3:hr>127</ns3:hr>
            <ns3:cad>40</ns3:cad>
          </ns3:TrackPointExtension>
        </extensions>
      </trkpt>
      <trkpt lat="45.327205024659633636474609375" lon="-70.913002006709575653076171875">
        <ele>603.20001220703125</ele>
        <time>2026-08-21T16:54:09.000Z</time>
        <extensions>
          <ns3:TrackPointExtension>
            <ns3:hr>128</ns3:hr>
            <ns3:cad>41</ns3:cad>
          </ns3:TrackPointExtension>
        </extensions>
      </trkpt>
      <trkpt lat="45.32722203992307186126708984375" lon="-70.91302807442843914031982421875">
        <ele>603.20001220703125</ele>
        <time>2026-08-21T16:54:10.000Z</time>
        <extensions>
          <ns3:TrackPointExtension>
            <ns3:hr>128</ns3:hr>
            <ns3:cad>41</ns3:cad>
          </ns3:TrackPointExtension>
        </extensions>
      </trkpt>
      <trkpt lat="45.3272373788058757781982421875" lon="-70.913047604262828826904296875">
        <ele>603.20001220703125</ele>
        <time>2026-08-21T16:54:11.000Z</time>
        <extensions>
          <ns3:TrackPointExtension>
            <ns3:hr>129</ns3:hr>
            <ns3:cad>41</ns3:cad>
          </ns3:TrackPointExtension>
        </extensions>
      </trkpt>
      <trkpt lat="45.32725833356380462646484375" lon="-70.9130688942968845367431640625">
        <ele>603.20001220703125</ele>
        <time>2026-08-21T16:54:12.000Z</time>
        <extensions>
          <ns3:TrackPointExtension>
            <ns3:hr>130</ns3:hr>
            <ns3:cad>41</ns3:cad>
          </ns3:TrackPointExtension>
        </extensions>
      </trkpt>
      <trkpt lat="45.32727417536079883575439453125" lon="-70.9130937047302722930908203125">
        <ele>603.20001220703125</ele>
        <time>2026-08-21T16:54:13.000Z</time>
        <extensions>
          <ns3:TrackPointExtension>
            <ns3:hr>130</ns3:hr>
            <ns3:cad>41</ns3:cad>
          </ns3:TrackPointExtension>
        </extensions>
      </trkpt>
      <trkpt lat="45.327286832034587860107421875" lon="-70.9131144918501377105712890625">
        <ele>603</ele>
        <time>2026-08-21T16:54:14.000Z</time>
        <extensions>
          <ns3:TrackPointExtension>
            <ns3:hr>130</ns3:hr>
            <ns3:cad>41</ns3:cad>
          </ns3:TrackPointExtension>
        </extensions>
      </trkpt>
      <trkpt lat="45.32730569131672382354736328125" lon="-70.91313301585614681243896484375">
        <ele>603</ele>
        <time>2026-08-21T16:54:15.000Z</time>
        <extensions>
          <ns3:TrackPointExtension>
            <ns3:hr>131</ns3:hr>
            <ns3:cad>41</ns3:cad>
          </ns3:TrackPointExtension>
        </extensions>
      </trkpt>
      <trkpt lat="45.327322371304035186767578125" lon="-70.9131553955376148223876953125">
        <ele>603</ele>
        <time>2026-08-21T16:54:16.000Z</time>
        <extensions>
          <ns3:TrackPointExtension>
            <ns3:hr>131</ns3:hr>
            <ns3:cad>41</ns3:cad>
          </ns3:TrackPointExtension>
        </extensions>
      </trkpt>
      <trkpt lat="45.3273354470729827880859375" lon="-70.91317257843911647796630859375">
        <ele>602.79998779296875</ele>
        <time>2026-08-21T16:54:17.000Z</time>
        <extensions>
          <ns3:TrackPointExtension>
            <ns3:hr>131</ns3:hr>
            <ns3:cad>79</ns3:cad>
          </ns3:TrackPointExtension>
        </extensions>
      </trkpt>
      <trkpt lat="45.32735782675445079803466796875" lon="-70.91319336555898189544677734375">
        <ele>602.79998779296875</ele>
        <time>2026-08-21T16:54:18.000Z</time>
        <extensions>
          <ns3:TrackPointExtension>
            <ns3:hr>131</ns3:hr>
            <ns3:cad>79</ns3:cad>
          </ns3:TrackPointExtension>
        </extensions>
      </trkpt>
      <trkpt lat="45.3273758478462696075439453125" lon="-70.9132157452404499053955078125">
        <ele>602.79998779296875</ele>
        <time>2026-08-21T16:54:19.000Z</time>
        <extensions>
          <ns3:TrackPointExtension>
            <ns3:hr>131</ns3:hr>
            <ns3:cad>79</ns3:cad>
          </ns3:TrackPointExtension>
        </extensions>
      </trkpt>
      <trkpt lat="45.327392779290676116943359375" lon="-70.91323125176131725311279296875">
        <ele>602.5999755859375</ele>
        <time>2026-08-21T16:54:20.000Z</time>
        <extensions>
          <ns3:TrackPointExtension>
            <ns3:hr>131</ns3:hr>
            <ns3:cad>79</ns3:cad>
          </ns3:TrackPointExtension>
        </extensions>
      </trkpt>
      <trkpt lat="45.32741230912506580352783203125" lon="-70.91325170360505580902099609375">
        <ele>602.5999755859375</ele>
        <time>2026-08-21T16:54:21.000Z</time>
        <extensions>
          <ns3:TrackPointExtension>
            <ns3:hr>130</ns3:hr>
            <ns3:cad>79</ns3:cad>
          </ns3:TrackPointExtension>
        </extensions>
      </trkpt>
      <trkpt lat="45.32743091695010662078857421875" lon="-70.9132720716297626495361328125">
        <ele>602.5999755859375</ele>
        <time>2026-08-21T16:54:22.000Z</time>
        <extensions>
          <ns3:TrackPointExtension>
            <ns3:hr>131</ns3:hr>
            <ns3:cad>79</ns3:cad>
          </ns3:TrackPointExtension>
        </extensions>
      </trkpt>
      <trkpt lat="45.32744918949902057647705078125" lon="-70.913297049701213836669921875">
        <ele>602.5999755859375</ele>
        <time>2026-08-21T16:54:23.000Z</time>
        <extensions>
          <ns3:TrackPointExtension>
            <ns3:hr>131</ns3:hr>
            <ns3:cad>79</ns3:cad>
          </ns3:TrackPointExtension>
        </extensions>
      </trkpt>
      <trkpt lat="45.32746612094342708587646484375" lon="-70.91332378797233104705810546875">
        <ele>602.5999755859375</ele>
        <time>2026-08-21T16:54:24.000Z</time>
        <extensions>
          <ns3:TrackPointExtension>
            <ns3:hr>131</ns3:hr>
            <ns3:cad>79</ns3:cad>
          </ns3:TrackPointExtension>
        </extensions>
      </trkpt>
      <trkpt lat="45.32748439349234104156494140625" lon="-70.91334926895797252655029296875">
        <ele>602.4000244140625</ele>
        <time>2026-08-21T16:54:25.000Z</time>
        <extensions>
          <ns3:TrackPointExtension>
            <ns3:hr>130</ns3:hr>
            <ns3:cad>79</ns3:cad>
          </ns3:TrackPointExtension>
        </extensions>
      </trkpt>
      <trkpt lat="45.32749998383224010467529296875" lon="-70.9133709780871868133544921875">
        <ele>602.4000244140625</ele>
        <time>2026-08-21T16:54:26.000Z</time>
        <extensions>
          <ns3:TrackPointExtension>
            <ns3:hr>130</ns3:hr>
            <ns3:cad>79</ns3:cad>
          </ns3:TrackPointExtension>
        </extensions>
      </trkpt>
      <trkpt lat="45.32751850783824920654296875" lon="-70.913396291434764862060546875">
        <ele>602.4000244140625</ele>
        <time>2026-08-21T16:54:27.000Z</time>
        <extensions>
          <ns3:TrackPointExtension>
            <ns3:hr>130</ns3:hr>
            <ns3:cad>79</ns3:cad>
          </ns3:TrackPointExtension>
        </extensions>
      </trkpt>
      <trkpt lat="45.32753753475844860076904296875" lon="-70.91341749764978885650634765625">
        <ele>602.20001220703125</ele>
        <time>2026-08-21T16:54:28.000Z</time>
        <extensions>
          <ns3:TrackPointExtension>
            <ns3:hr>130</ns3:hr>
            <ns3:cad>79</ns3:cad>
          </ns3:TrackPointExtension>
        </extensions>
      </trkpt>
      <trkpt lat="45.32755413092672824859619140625" lon="-70.9134376980364322662353515625">
        <ele>602.20001220703125</ele>
        <time>2026-08-21T16:54:29.000Z</time>
        <extensions>
          <ns3:TrackPointExtension>
            <ns3:hr>130</ns3:hr>
            <ns3:cad>79</ns3:cad>
          </ns3:TrackPointExtension>
        </extensions>
      </trkpt>
      <trkpt lat="45.3275770135223865509033203125" lon="-70.9134578146040439605712890625">
        <ele>602.20001220703125</ele>
        <time>2026-08-21T16:54:30.000Z</time>
        <extensions>
          <ns3:TrackPointExtension>
            <ns3:hr>129</ns3:hr>
            <ns3:cad>79</ns3:cad>
          </ns3:TrackPointExtension>
        </extensions>
      </trkpt>
      <trkpt lat="45.32759897410869598388671875" lon="-70.91347952373325824737548828125">
        <ele>602</ele>
        <time>2026-08-21T16:54:31.000Z</time>
        <extensions>
          <ns3:TrackPointExtension>
            <ns3:hr>130</ns3:hr>
            <ns3:cad>79</ns3:cad>
          </ns3:TrackPointExtension>
        </extensions>
      </trkpt>
      <trkpt lat="45.327614732086658477783203125" lon="-70.91350114904344081878662109375">
        <ele>602</ele>
        <time>2026-08-21T16:54:32.000Z</time>
        <extensions>
          <ns3:TrackPointExtension>
            <ns3:hr>130</ns3:hr>
            <ns3:cad>79</ns3:cad>
          </ns3:TrackPointExtension>
        </extensions>
      </trkpt>
      <trkpt lat="45.327638201415538787841796875" lon="-70.9135238640010356903076171875">
        <ele>602</ele>
        <time>2026-08-21T16:54:33.000Z</time>
        <extensions>
          <ns3:TrackPointExtension>
            <ns3:hr>130</ns3:hr>
            <ns3:cad>79</ns3:cad>
          </ns3:TrackPointExtension>
        </extensions>
      </trkpt>
      <trkpt lat="45.3276604972779750823974609375" lon="-70.91354808770120143890380859375">
        <ele>602</ele>
        <time>2026-08-21T16:54:34.000Z</time>
        <extensions>
          <ns3:TrackPointExtension>
            <ns3:hr>130</ns3:hr>
            <ns3:cad>82</ns3:cad>
          </ns3:TrackPointExtension>
        </extensions>
      </trkpt>
      <trkpt lat="45.32768002711236476898193359375" lon="-70.91357222758233547210693359375">
        <ele>602</ele>
        <time>2026-08-21T16:54:35.000Z</time>
        <extensions>
          <ns3:TrackPointExtension>
            <ns3:hr>131</ns3:hr>
            <ns3:cad>82</ns3:cad>
          </ns3:TrackPointExtension>
        </extensions>
      </trkpt>
      <trkpt lat="45.3277014009654521942138671875" lon="-70.913593433797359466552734375">
        <ele>602</ele>
        <time>2026-08-21T16:54:36.000Z</time>
        <extensions>
          <ns3:TrackPointExtension>
            <ns3:hr>133</ns3:hr>
            <ns3:cad>82</ns3:cad>
          </ns3:TrackPointExtension>
        </extensions>
      </trkpt>
      <trkpt lat="45.3277231939136981964111328125" lon="-70.9136200882494449615478515625">
        <ele>601.79998779296875</ele>
        <time>2026-08-21T16:54:37.000Z</time>
        <extensions>
          <ns3:TrackPointExtension>
            <ns3:hr>133</ns3:hr>
            <ns3:cad>82</ns3:cad>
          </ns3:TrackPointExtension>
        </extensions>
      </trkpt>
      <trkpt lat="45.32774649560451507568359375" lon="-70.91364615596830844879150390625">
        <ele>601.79998779296875</ele>
        <time>2026-08-21T16:54:38.000Z</time>
        <extensions>
          <ns3:TrackPointExtension>
            <ns3:hr>133</ns3:hr>
            <ns3:cad>82</ns3:cad>
          </ns3:TrackPointExtension>
        </extensions>
      </trkpt>
      <trkpt lat="45.32776686362922191619873046875" lon="-70.9136683680117130279541015625">
        <ele>601.5999755859375</ele>
        <time>2026-08-21T16:54:39.000Z</time>
        <extensions>
          <ns3:TrackPointExtension>
            <ns3:hr>133</ns3:hr>
            <ns3:cad>41</ns3:cad>
          </ns3:TrackPointExtension>
        </extensions>
      </trkpt>
      <trkpt lat="45.3277959488332271575927734375" lon="-70.9136894904077053070068359375">
        <ele>601.5999755859375</ele>
        <time>2026-08-21T16:54:40.000Z</time>
        <extensions>
          <ns3:TrackPointExtension>
            <ns3:hr>133</ns3:hr>
            <ns3:cad>41</ns3:cad>
          </ns3:TrackPointExtension>
        </extensions>
      </trkpt>
      <trkpt lat="45.3278143890202045440673828125" lon="-70.91371539048850536346435546875">
        <ele>601.5999755859375</ele>
        <time>2026-08-21T16:54:41.000Z</time>
        <extensions>
          <ns3:TrackPointExtension>
            <ns3:hr>133</ns3:hr>
            <ns3:cad>41</ns3:cad>
          </ns3:TrackPointExtension>
        </extensions>
      </trkpt>
      <trkpt lat="45.3278301469981670379638671875" lon="-70.9137370996177196502685546875">
        <ele>601.4000244140625</ele>
        <time>2026-08-21T16:54:42.000Z</time>
        <extensions>
          <ns3:TrackPointExtension>
            <ns3:hr>133</ns3:hr>
            <ns3:cad>41</ns3:cad>
          </ns3:TrackPointExtension>
        </extensions>
      </trkpt>
      <trkpt lat="45.32784984447062015533447265625" lon="-70.9137612394988536834716796875">
        <ele>601.4000244140625</ele>
        <time>2026-08-21T16:54:43.000Z</time>
        <extensions>
          <ns3:TrackPointExtension>
            <ns3:hr>133</ns3:hr>
            <ns3:cad>42</ns3:cad>
          </ns3:TrackPointExtension>
        </extensions>
      </trkpt>
      <trkpt lat="45.3278690390288829803466796875" lon="-70.9137847088277339935302734375">
        <ele>601.4000244140625</ele>
        <time>2026-08-21T16:54:44.000Z</time>
        <extensions>
          <ns3:TrackPointExtension>
            <ns3:hr>133</ns3:hr>
            <ns3:cad>42</ns3:cad>
          </ns3:TrackPointExtension>
        </extensions>
      </trkpt>
      <trkpt lat="45.3278858028352260589599609375" lon="-70.9138028137385845184326171875">
        <ele>601.4000244140625</ele>
        <time>2026-08-21T16:54:45.000Z</time>
        <extensions>
          <ns3:TrackPointExtension>
            <ns3:hr>133</ns3:hr>
            <ns3:cad>42</ns3:cad>
          </ns3:TrackPointExtension>
        </extensions>
      </trkpt>
      <trkpt lat="45.3279072605073451995849609375" lon="-70.91382200829684734344482421875">
        <ele>601.4000244140625</ele>
        <time>2026-08-21T16:54:46.000Z</time>
        <extensions>
          <ns3:TrackPointExtension>
            <ns3:hr>133</ns3:hr>
            <ns3:cad>42</ns3:cad>
          </ns3:TrackPointExtension>
        </extensions>
      </trkpt>
      <trkpt lat="45.32792896963655948638916015625" lon="-70.91384547762572765350341796875">
        <ele>601.20001220703125</ele>
        <time>2026-08-21T16:54:47.000Z</time>
        <extensions>
          <ns3:TrackPointExtension>
            <ns3:hr>133</ns3:hr>
            <ns3:cad>42</ns3:cad>
          </ns3:TrackPointExtension>
        </extensions>
      </trkpt>
      <trkpt lat="45.3279458172619342803955078125" lon="-70.91386743821203708648681640625">
        <ele>601.20001220703125</ele>
        <time>2026-08-21T16:54:48.000Z</time>
        <extensions>
          <ns3:TrackPointExtension>
            <ns3:hr>134</ns3:hr>
            <ns3:cad>82</ns3:cad>
          </ns3:TrackPointExtension>
        </extensions>
      </trkpt>
      <trkpt lat="45.32796618528664112091064453125" lon="-70.9138889797031879425048828125">
        <ele>601.20001220703125</ele>
        <time>2026-08-21T16:54:49.000Z</time>
        <extensions>
          <ns3:TrackPointExtension>
            <ns3:hr>134</ns3:hr>
            <ns3:cad>82</ns3:cad>
          </ns3:TrackPointExtension>
        </extensions>
      </trkpt>
      <trkpt lat="45.3279894031584262847900390625" lon="-70.9139164723455905914306640625">
        <ele>601</ele>
        <time>2026-08-21T16:54:50.000Z</time>
        <extensions>
          <ns3:TrackPointExtension>
            <ns3:hr>134</ns3:hr>
            <ns3:cad>82</ns3:cad>
          </ns3:TrackPointExtension>
        </extensions>
      </trkpt>
      <trkpt lat="45.32800742425024509429931640625" lon="-70.91393868438899517059326171875">
        <ele>601</ele>
        <time>2026-08-21T16:54:51.000Z</time>
        <extensions>
          <ns3:TrackPointExtension>
            <ns3:hr>134</ns3:hr>
            <ns3:cad>41</ns3:cad>
          </ns3:TrackPointExtension>
        </extensions>
      </trkpt>
      <trkpt lat="45.32802619971334934234619140625" lon="-70.91395863331854343414306640625">
        <ele>600.79998779296875</ele>
        <time>2026-08-21T16:54:52.000Z</time>
        <extensions>
          <ns3:TrackPointExtension>
            <ns3:hr>134</ns3:hr>
            <ns3:cad>41</ns3:cad>
          </ns3:TrackPointExtension>
        </extensions>
      </trkpt>
      <trkpt lat="45.32804195769131183624267578125" lon="-70.91397933661937713623046875">
        <ele>600.79998779296875</ele>
        <time>2026-08-21T16:54:53.000Z</time>
        <extensions>
          <ns3:TrackPointExtension>
            <ns3:hr>134</ns3:hr>
            <ns3:cad>41</ns3:cad>
          </ns3:TrackPointExtension>
        </extensions>
      </trkpt>
      <trkpt lat="45.3280624933540821075439453125" lon="-70.91399920172989368438720703125">
        <ele>600.79998779296875</ele>
        <time>2026-08-21T16:54:54.000Z</time>
        <extensions>
          <ns3:TrackPointExtension>
            <ns3:hr>134</ns3:hr>
            <ns3:cad>41</ns3:cad>
          </ns3:TrackPointExtension>
        </extensions>
      </trkpt>
      <trkpt lat="45.3280839510262012481689453125" lon="-70.91402183286845684051513671875">
        <ele>600.79998779296875</ele>
        <time>2026-08-21T16:54:55.000Z</time>
        <extensions>
          <ns3:TrackPointExtension>
            <ns3:hr>134</ns3:hr>
            <ns3:cad>41</ns3:cad>
          </ns3:TrackPointExtension>
        </extensions>
      </trkpt>
      <trkpt lat="45.32809979282319545745849609375" lon="-70.9140425361692905426025390625">
        <ele>600.79998779296875</ele>
        <time>2026-08-21T16:54:56.000Z</time>
        <extensions>
          <ns3:TrackPointExtension>
            <ns3:hr>135</ns3:hr>
            <ns3:cad>41</ns3:cad>
          </ns3:TrackPointExtension>
        </extensions>
      </trkpt>
      <trkpt lat="45.3281191550195217132568359375" lon="-70.91406508348882198333740234375">
        <ele>600.79998779296875</ele>
        <time>2026-08-21T16:54:57.000Z</time>
        <extensions>
          <ns3:TrackPointExtension>
            <ns3:hr>135</ns3:hr>
            <ns3:cad>41</ns3:cad>
          </ns3:TrackPointExtension>
        </extensions>
      </trkpt>
      <trkpt lat="45.32813943922519683837890625" lon="-70.91408788226544857025146484375">
        <ele>600.5999755859375</ele>
        <time>2026-08-21T16:54:58.000Z</time>
        <extensions>
          <ns3:TrackPointExtension>
            <ns3:hr>136</ns3:hr>
            <ns3:cad>41</ns3:cad>
          </ns3:TrackPointExtension>
        </extensions>
      </trkpt>
      <trkpt lat="45.3281570412218570709228515625" lon="-70.9141116030514240264892578125">
        <ele>600.5999755859375</ele>
        <time>2026-08-21T16:54:59.000Z</time>
        <extensions>
          <ns3:TrackPointExtension>
            <ns3:hr>136</ns3:hr>
            <ns3:cad>41</ns3:cad>
          </ns3:TrackPointExtension>
        </extensions>
      </trkpt>
      <trkpt lat="45.32817422412335872650146484375" lon="-70.914133228361606597900390625">
        <ele>600.4000244140625</ele>
        <time>2026-08-21T16:55:00.000Z</time>
        <extensions>
          <ns3:TrackPointExtension>
            <ns3:hr>136</ns3:hr>
            <ns3:cad>41</ns3:cad>
          </ns3:TrackPointExtension>
        </extensions>
      </trkpt>
      <trkpt lat="45.328196771442890167236328125" lon="-70.9141548536717891693115234375">
        <ele>600.4000244140625</ele>
        <time>2026-08-21T16:55:01.000Z</time>
        <extensions>
          <ns3:TrackPointExtension>
            <ns3:hr>136</ns3:hr>
            <ns3:cad>40</ns3:cad>
          </ns3:TrackPointExtension>
        </extensions>
      </trkpt>
      <trkpt lat="45.32821378670632839202880859375" lon="-70.91417371295392513275146484375">
        <ele>600.20001220703125</ele>
        <time>2026-08-21T16:55:02.000Z</time>
        <extensions>
          <ns3:TrackPointExtension>
            <ns3:hr>136</ns3:hr>
            <ns3:cad>40</ns3:cad>
          </ns3:TrackPointExtension>
        </extensions>
      </trkpt>
      <trkpt lat="45.32823541201651096343994140625" lon="-70.91420405544340610504150390625">
        <ele>600.20001220703125</ele>
        <time>2026-08-21T16:55:03.000Z</time>
        <extensions>
          <ns3:TrackPointExtension>
            <ns3:hr>136</ns3:hr>
            <ns3:cad>41</ns3:cad>
          </ns3:TrackPointExtension>
        </extensions>
      </trkpt>
      <trkpt lat="45.32825955189764499664306640625" lon="-70.91422140598297119140625">
        <ele>600.20001220703125</ele>
        <time>2026-08-21T16:55:04.000Z</time>
        <extensions>
          <ns3:TrackPointExtension>
            <ns3:hr>136</ns3:hr>
            <ns3:cad>41</ns3:cad>
          </ns3:TrackPointExtension>
        </extensions>
      </trkpt>
      <trkpt lat="45.32827581278979778289794921875" lon="-70.91424110345542430877685546875">
        <ele>600.20001220703125</ele>
        <time>2026-08-21T16:55:05.000Z</time>
        <extensions>
          <ns3:TrackPointExtension>
            <ns3:hr>136</ns3:hr>
            <ns3:cad>41</ns3:cad>
          </ns3:TrackPointExtension>
        </extensions>
      </trkpt>
      <trkpt lat="45.328298024833202362060546875" lon="-70.91426641680300235748291015625">
        <ele>600.20001220703125</ele>
        <time>2026-08-21T16:55:06.000Z</time>
        <extensions>
          <ns3:TrackPointExtension>
            <ns3:hr>136</ns3:hr>
            <ns3:cad>41</ns3:cad>
          </ns3:TrackPointExtension>
        </extensions>
      </trkpt>
      <trkpt lat="45.32831738702952861785888671875" lon="-70.91428938321769237518310546875">
        <ele>600.20001220703125</ele>
        <time>2026-08-21T16:55:07.000Z</time>
        <extensions>
          <ns3:TrackPointExtension>
            <ns3:hr>136</ns3:hr>
            <ns3:cad>41</ns3:cad>
          </ns3:TrackPointExtension>
        </extensions>
      </trkpt>
      <trkpt lat="45.32833348028361797332763671875" lon="-70.91430497355759143829345703125">
        <ele>600</ele>
        <time>2026-08-21T16:55:08.000Z</time>
        <extensions>
          <ns3:TrackPointExtension>
            <ns3:hr>136</ns3:hr>
            <ns3:cad>41</ns3:cad>
          </ns3:TrackPointExtension>
        </extensions>
      </trkpt>
      <trkpt lat="45.32834756188094615936279296875" lon="-70.91432441957294940948486328125">
        <ele>599.79998779296875</ele>
        <time>2026-08-21T16:55:09.000Z</time>
        <extensions>
          <ns3:TrackPointExtension>
            <ns3:hr>137</ns3:hr>
            <ns3:cad>41</ns3:cad>
          </ns3:TrackPointExtension>
        </extensions>
      </trkpt>
      <trkpt lat="45.3283592127263545989990234375" lon="-70.9143395908176898956298828125">
        <ele>599.79998779296875</ele>
        <time>2026-08-21T16:55:10.000Z</time>
        <extensions>
          <ns3:TrackPointExtension>
            <ns3:hr>136</ns3:hr>
            <ns3:cad>82</ns3:cad>
          </ns3:TrackPointExtension>
        </extensions>
      </trkpt>
      <trkpt lat="45.3283706121146678924560546875" lon="-70.914355181157588958740234375">
        <ele>599.79998779296875</ele>
        <time>2026-08-21T16:55:11.000Z</time>
        <extensions>
          <ns3:TrackPointExtension>
            <ns3:hr>136</ns3:hr>
            <ns3:cad>82</ns3:cad>
          </ns3:TrackPointExtension>
        </extensions>
      </trkpt>
      <trkpt lat="45.3283841907978057861328125" lon="-70.91436767019331455230712890625">
        <ele>599.5999755859375</ele>
        <time>2026-08-21T16:55:12.000Z</time>
        <extensions>
          <ns3:TrackPointExtension>
            <ns3:hr>136</ns3:hr>
            <ns3:cad>82</ns3:cad>
          </ns3:TrackPointExtension>
        </extensions>
      </trkpt>
      <trkpt lat="45.32839483581483364105224609375" lon="-70.9143825061619281768798828125">
        <ele>599.5999755859375</ele>
        <time>2026-08-21T16:55:13.000Z</time>
        <extensions>
          <ns3:TrackPointExtension>
            <ns3:hr>136</ns3:hr>
            <ns3:cad>40</ns3:cad>
          </ns3:TrackPointExtension>
        </extensions>
      </trkpt>
      <trkpt lat="45.32841092906892299652099609375" lon="-70.9143996052443981170654296875">
        <ele>599.5999755859375</ele>
        <time>2026-08-21T16:55:14.000Z</time>
        <extensions>
          <ns3:TrackPointExtension>
            <ns3:hr>136</ns3:hr>
            <ns3:cad>40</ns3:cad>
          </ns3:TrackPointExtension>
        </extensions>
      </trkpt>
      <trkpt lat="45.32842031680047512054443359375" lon="-70.914411842823028564453125">
        <ele>599.5999755859375</ele>
        <time>2026-08-21T16:55:15.000Z</time>
        <extensions>
          <ns3:TrackPointExtension>
            <ns3:hr>136</ns3:hr>
            <ns3:cad>40</ns3:cad>
          </ns3:TrackPointExtension>
        </extensions>
      </trkpt>
      <trkpt lat="45.3284309618175029754638671875" lon="-70.91442818753421306610107421875">
        <ele>599.5999755859375</ele>
        <time>2026-08-21T16:55:16.000Z</time>
        <extensions>
          <ns3:TrackPointExtension>
            <ns3:hr>136</ns3:hr>
            <ns3:cad>0</ns3:cad>
          </ns3:TrackPointExtension>
        </extensions>
      </trkpt>
      <trkpt lat="45.32844847999513149261474609375" lon="-70.9144438616931438446044921875">
        <ele>599.5999755859375</ele>
        <time>2026-08-21T16:55:17.000Z</time>
        <extensions>
          <ns3:TrackPointExtension>
            <ns3:hr>136</ns3:hr>
            <ns3:cad>0</ns3:cad>
          </ns3:TrackPointExtension>
        </extensions>
      </trkpt>
      <trkpt lat="45.32846842892467975616455078125" lon="-70.91446540318429470062255859375">
        <ele>599.5999755859375</ele>
        <time>2026-08-21T16:55:18.000Z</time>
        <extensions>
          <ns3:TrackPointExtension>
            <ns3:hr>136</ns3:hr>
            <ns3:cad>0</ns3:cad>
          </ns3:TrackPointExtension>
        </extensions>
      </trkpt>
      <trkpt lat="45.3284809179604053497314453125" lon="-70.91448669321835041046142578125">
        <ele>599.5999755859375</ele>
        <time>2026-08-21T16:55:19.000Z</time>
        <extensions>
          <ns3:TrackPointExtension>
            <ns3:hr>136</ns3:hr>
            <ns3:cad>0</ns3:cad>
          </ns3:TrackPointExtension>
        </extensions>
      </trkpt>
      <trkpt lat="45.32850195653736591339111328125" lon="-70.9145122580230236053466796875">
        <ele>599.5999755859375</ele>
        <time>2026-08-21T16:55:20.000Z</time>
        <extensions>
          <ns3:TrackPointExtension>
            <ns3:hr>136</ns3:hr>
            <ns3:cad>79</ns3:cad>
          </ns3:TrackPointExtension>
        </extensions>
      </trkpt>
      <trkpt lat="45.32852022908627986907958984375" lon="-70.9145276807248592376708984375">
        <ele>599.5999755859375</ele>
        <time>2026-08-21T16:55:21.000Z</time>
        <extensions>
          <ns3:TrackPointExtension>
            <ns3:hr>136</ns3:hr>
            <ns3:cad>79</ns3:cad>
          </ns3:TrackPointExtension>
        </extensions>
      </trkpt>
      <trkpt lat="45.32853716053068637847900390625" lon="-70.9145447798073291778564453125">
        <ele>599.5999755859375</ele>
        <time>2026-08-21T16:55:22.000Z</time>
        <extensions>
          <ns3:TrackPointExtension>
            <ns3:hr>135</ns3:hr>
            <ns3:cad>79</ns3:cad>
          </ns3:TrackPointExtension>
        </extensions>
      </trkpt>
      <trkpt lat="45.3285540081560611724853515625" lon="-70.9145700931549072265625">
        <ele>599.4000244140625</ele>
        <time>2026-08-21T16:55:23.000Z</time>
        <extensions>
          <ns3:TrackPointExtension>
            <ns3:hr>136</ns3:hr>
            <ns3:cad>79</ns3:cad>
          </ns3:TrackPointExtension>
        </extensions>
      </trkpt>
      <trkpt lat="45.3285727836191654205322265625" lon="-70.91459012590348720550537109375">
        <ele>599.20001220703125</ele>
        <time>2026-08-21T16:55:24.000Z</time>
        <extensions>
          <ns3:TrackPointExtension>
            <ns3:hr>136</ns3:hr>
            <ns3:cad>79</ns3:cad>
          </ns3:TrackPointExtension>
        </extensions>
      </trkpt>
      <trkpt lat="45.328595079481601715087890625" lon="-70.91461191885173320770263671875">
        <ele>599.20001220703125</ele>
        <time>2026-08-21T16:55:25.000Z</time>
        <extensions>
          <ns3:TrackPointExtension>
            <ns3:hr>136</ns3:hr>
            <ns3:cad>79</ns3:cad>
          </ns3:TrackPointExtension>
        </extensions>
      </trkpt>
      <trkpt lat="45.32861209474503993988037109375" lon="-70.914636813104152679443359375">
        <ele>599</ele>
        <time>2026-08-21T16:55:26.000Z</time>
        <extensions>
          <ns3:TrackPointExtension>
            <ns3:hr>137</ns3:hr>
            <ns3:cad>79</ns3:cad>
          </ns3:TrackPointExtension>
        </extensions>
      </trkpt>
      <trkpt lat="45.32862768508493900299072265625" lon="-70.9146550856530666351318359375">
        <ele>599</ele>
        <time>2026-08-21T16:55:27.000Z</time>
        <extensions>
          <ns3:TrackPointExtension>
            <ns3:hr>137</ns3:hr>
            <ns3:cad>79</ns3:cad>
          </ns3:TrackPointExtension>
        </extensions>
      </trkpt>
      <trkpt lat="45.32865040004253387451171875" lon="-70.91468148864805698394775390625">
        <ele>599</ele>
        <time>2026-08-21T16:55:28.000Z</time>
        <extensions>
          <ns3:TrackPointExtension>
            <ns3:hr>137</ns3:hr>
            <ns3:cad>79</ns3:cad>
          </ns3:TrackPointExtension>
        </extensions>
      </trkpt>
      <trkpt lat="45.328671522438526153564453125" lon="-70.914699845016002655029296875">
        <ele>599</ele>
        <time>2026-08-21T16:55:29.000Z</time>
        <extensions>
          <ns3:TrackPointExtension>
            <ns3:hr>137</ns3:hr>
            <ns3:cad>79</ns3:cad>
          </ns3:TrackPointExtension>
        </extensions>
      </trkpt>
      <trkpt lat="45.32868484966456890106201171875" lon="-70.9147174470126628875732421875">
        <ele>599</ele>
        <time>2026-08-21T16:55:30.000Z</time>
        <extensions>
          <ns3:TrackPointExtension>
            <ns3:hr>136</ns3:hr>
            <ns3:cad>79</ns3:cad>
          </ns3:TrackPointExtension>
        </extensions>
      </trkpt>
      <trkpt lat="45.32870412804186344146728515625" lon="-70.9147355519235134124755859375">
        <ele>599</ele>
        <time>2026-08-21T16:55:31.000Z</time>
        <extensions>
          <ns3:TrackPointExtension>
            <ns3:hr>136</ns3:hr>
            <ns3:cad>79</ns3:cad>
          </ns3:TrackPointExtension>
        </extensions>
      </trkpt>
      <trkpt lat="45.32872558571398258209228515625" lon="-70.9147563390433788299560546875">
        <ele>599</ele>
        <time>2026-08-21T16:55:32.000Z</time>
        <extensions>
          <ns3:TrackPointExtension>
            <ns3:hr>136</ns3:hr>
            <ns3:cad>79</ns3:cad>
          </ns3:TrackPointExtension>
        </extensions>
      </trkpt>
      <trkpt lat="45.32874293625354766845703125" lon="-70.9147751145064830780029296875">
        <ele>599</ele>
        <time>2026-08-21T16:55:33.000Z</time>
        <extensions>
          <ns3:TrackPointExtension>
            <ns3:hr>136</ns3:hr>
            <ns3:cad>79</ns3:cad>
          </ns3:TrackPointExtension>
        </extensions>
      </trkpt>
      <trkpt lat="45.32876439392566680908203125" lon="-70.9147999249398708343505859375">
        <ele>599</ele>
        <time>2026-08-21T16:55:34.000Z</time>
        <extensions>
          <ns3:TrackPointExtension>
            <ns3:hr>136</ns3:hr>
            <ns3:cad>79</ns3:cad>
          </ns3:TrackPointExtension>
        </extensions>
      </trkpt>
      <trkpt lat="45.328782163560390472412109375" lon="-70.9148223884403705596923828125">
        <ele>599</ele>
        <time>2026-08-21T16:55:35.000Z</time>
        <extensions>
          <ns3:TrackPointExtension>
            <ns3:hr>136</ns3:hr>
            <ns3:cad>79</ns3:cad>
          </ns3:TrackPointExtension>
        </extensions>
      </trkpt>
      <trkpt lat="45.32879934646189212799072265625" lon="-70.914843343198299407958984375">
        <ele>599</ele>
        <time>2026-08-21T16:55:36.000Z</time>
        <extensions>
          <ns3:TrackPointExtension>
            <ns3:hr>135</ns3:hr>
            <ns3:cad>79</ns3:cad>
          </ns3:TrackPointExtension>
        </extensions>
      </trkpt>
      <trkpt lat="45.3288133442401885986328125" lon="-70.914865471422672271728515625">
        <ele>598.79998779296875</ele>
        <time>2026-08-21T16:55:37.000Z</time>
        <extensions>
          <ns3:TrackPointExtension>
            <ns3:hr>135</ns3:hr>
            <ns3:cad>79</ns3:cad>
          </ns3:TrackPointExtension>
        </extensions>
      </trkpt>
      <trkpt lat="45.32883203588426113128662109375" lon="-70.91488030739128589630126953125">
        <ele>598.79998779296875</ele>
        <time>2026-08-21T16:55:38.000Z</time>
        <extensions>
          <ns3:TrackPointExtension>
            <ns3:hr>135</ns3:hr>
            <ns3:cad>79</ns3:cad>
          </ns3:TrackPointExtension>
        </extensions>
      </trkpt>
      <trkpt lat="45.328850559890270233154296875" lon="-70.91489489190280437469482421875">
        <ele>598.5999755859375</ele>
        <time>2026-08-21T16:55:39.000Z</time>
        <extensions>
          <ns3:TrackPointExtension>
            <ns3:hr>134</ns3:hr>
            <ns3:cad>79</ns3:cad>
          </ns3:TrackPointExtension>
        </extensions>
      </trkpt>
      <trkpt lat="45.3288725204765796661376953125" lon="-70.91491551138460636138916015625">
        <ele>598.5999755859375</ele>
        <time>2026-08-21T16:55:40.000Z</time>
        <extensions>
          <ns3:TrackPointExtension>
            <ns3:hr>134</ns3:hr>
            <ns3:cad>79</ns3:cad>
          </ns3:TrackPointExtension>
        </extensions>
      </trkpt>
      <trkpt lat="45.3288896195590496063232421875" lon="-70.91493152081966400146484375">
        <ele>598.79998779296875</ele>
        <time>2026-08-21T16:55:41.000Z</time>
        <extensions>
          <ns3:TrackPointExtension>
            <ns3:hr>135</ns3:hr>
            <ns3:cad>79</ns3:cad>
          </ns3:TrackPointExtension>
        </extensions>
      </trkpt>
      <trkpt lat="45.32891384325921535491943359375" lon="-70.914952643215656280517578125">
        <ele>598.79998779296875</ele>
        <time>2026-08-21T16:55:42.000Z</time>
        <extensions>
          <ns3:TrackPointExtension>
            <ns3:hr>134</ns3:hr>
            <ns3:cad>79</ns3:cad>
          </ns3:TrackPointExtension>
        </extensions>
      </trkpt>
      <trkpt lat="45.328933708369731903076171875" lon="-70.9149737656116485595703125">
        <ele>598.79998779296875</ele>
        <time>2026-08-21T16:55:43.000Z</time>
        <extensions>
          <ns3:TrackPointExtension>
            <ns3:hr>134</ns3:hr>
            <ns3:cad>79</ns3:cad>
          </ns3:TrackPointExtension>
        </extensions>
      </trkpt>
      <trkpt lat="45.32895223237574100494384765625" lon="-70.914992205798625946044921875">
        <ele>598.79998779296875</ele>
        <time>2026-08-21T16:55:44.000Z</time>
        <extensions>
          <ns3:TrackPointExtension>
            <ns3:hr>135</ns3:hr>
            <ns3:cad>79</ns3:cad>
          </ns3:TrackPointExtension>
        </extensions>
      </trkpt>
      <trkpt lat="45.3289744444191455841064453125" lon="-70.9150148369371891021728515625">
        <ele>598.5999755859375</ele>
        <time>2026-08-21T16:55:45.000Z</time>
        <extensions>
          <ns3:TrackPointExtension>
            <ns3:hr>135</ns3:hr>
            <ns3:cad>79</ns3:cad>
          </ns3:TrackPointExtension>
        </extensions>
      </trkpt>
      <trkpt lat="45.32899213023483753204345703125" lon="-70.91504140757024288177490234375">
        <ele>598.5999755859375</ele>
        <time>2026-08-21T16:55:46.000Z</time>
        <extensions>
          <ns3:TrackPointExtension>
            <ns3:hr>135</ns3:hr>
            <ns3:cad>79</ns3:cad>
          </ns3:TrackPointExtension>
        </extensions>
      </trkpt>
      <trkpt lat="45.329006128013134002685546875" lon="-70.91506353579461574554443359375">
        <ele>598.4000244140625</ele>
        <time>2026-08-21T16:55:47.000Z</time>
        <extensions>
          <ns3:TrackPointExtension>
            <ns3:hr>136</ns3:hr>
            <ns3:cad>80</ns3:cad>
          </ns3:TrackPointExtension>
        </extensions>
      </trkpt>
      <trkpt lat="45.32902079634368419647216796875" lon="-70.915096811950206756591796875">
        <ele>598.4000244140625</ele>
        <time>2026-08-21T16:55:48.000Z</time>
        <extensions>
          <ns3:TrackPointExtension>
            <ns3:hr>136</ns3:hr>
            <ns3:cad>80</ns3:cad>
          </ns3:TrackPointExtension>
        </extensions>
      </trkpt>
      <trkpt lat="45.32903336919844150543212890625" lon="-70.91512598097324371337890625">
        <ele>598.20001220703125</ele>
        <time>2026-08-21T16:55:49.000Z</time>
        <extensions>
          <ns3:TrackPointExtension>
            <ns3:hr>137</ns3:hr>
            <ns3:cad>80</ns3:cad>
          </ns3:TrackPointExtension>
        </extensions>
      </trkpt>
      <trkpt lat="45.329039655625820159912109375" lon="-70.9151534736156463623046875">
        <ele>598.4000244140625</ele>
        <time>2026-08-21T16:55:50.000Z</time>
        <extensions>
          <ns3:TrackPointExtension>
            <ns3:hr>137</ns3:hr>
            <ns3:cad>80</ns3:cad>
          </ns3:TrackPointExtension>
        </extensions>
      </trkpt>
      <trkpt lat="45.32904024235904216766357421875" lon="-70.91518490575253963470458984375">
        <ele>598.4000244140625</ele>
        <time>2026-08-21T16:55:51.000Z</time>
        <extensions>
          <ns3:TrackPointExtension>
            <ns3:hr>138</ns3:hr>
            <ns3:cad>80</ns3:cad>
          </ns3:TrackPointExtension>
        </extensions>
      </trkpt>
      <trkpt lat="45.32903395593166351318359375" lon="-70.915212817490100860595703125">
        <ele>598.4000244140625</ele>
        <time>2026-08-21T16:55:52.000Z</time>
        <extensions>
          <ns3:TrackPointExtension>
            <ns3:hr>138</ns3:hr>
            <ns3:cad>82</ns3:cad>
          </ns3:TrackPointExtension>
        </extensions>
      </trkpt>
      <trkpt lat="45.32903253100812435150146484375" lon="-70.9152391366660594940185546875">
        <ele>598.5999755859375</ele>
        <time>2026-08-21T16:55:53.000Z</time>
        <extensions>
          <ns3:TrackPointExtension>
            <ns3:hr>138</ns3:hr>
            <ns3:cad>82</ns3:cad>
          </ns3:TrackPointExtension>
        </extensions>
      </trkpt>
      <trkpt lat="45.32902079634368419647216796875" lon="-70.91526084579527378082275390625">
        <ele>598.5999755859375</ele>
        <time>2026-08-21T16:55:54.000Z</time>
        <extensions>
          <ns3:TrackPointExtension>
            <ns3:hr>137</ns3:hr>
            <ns3:cad>81</ns3:cad>
          </ns3:TrackPointExtension>
        </extensions>
      </trkpt>
      <trkpt lat="45.3290064632892608642578125" lon="-70.91528196819126605987548828125">
        <ele>598.5999755859375</ele>
        <time>2026-08-21T16:55:55.000Z</time>
        <extensions>
          <ns3:TrackPointExtension>
            <ns3:hr>137</ns3:hr>
            <ns3:cad>81</ns3:cad>
          </ns3:TrackPointExtension>
        </extensions>
      </trkpt>
      <trkpt lat="45.32899447716772556304931640625" lon="-70.91529839672148227691650390625">
        <ele>598.4000244140625</ele>
        <time>2026-08-21T16:55:56.000Z</time>
        <extensions>
          <ns3:TrackPointExtension>
            <ns3:hr>137</ns3:hr>
            <ns3:cad>81</ns3:cad>
          </ns3:TrackPointExtension>
        </extensions>
      </trkpt>
      <trkpt lat="45.32897804863750934600830078125" lon="-70.9153232909739017486572265625">
        <ele>598.4000244140625</ele>
        <time>2026-08-21T16:55:57.000Z</time>
        <extensions>
          <ns3:TrackPointExtension>
            <ns3:hr>138</ns3:hr>
            <ns3:cad>79</ns3:cad>
          </ns3:TrackPointExtension>
        </extensions>
      </trkpt>
      <trkpt lat="45.32896287739276885986328125" lon="-70.91535002924501895904541015625">
        <ele>598.4000244140625</ele>
        <time>2026-08-21T16:55:58.000Z</time>
        <extensions>
          <ns3:TrackPointExtension>
            <ns3:hr>138</ns3:hr>
            <ns3:cad>79</ns3:cad>
          </ns3:TrackPointExtension>
        </extensions>
      </trkpt>
      <trkpt lat="45.3289486281573772430419921875" lon="-70.91537048108875751495361328125">
        <ele>598.4000244140625</ele>
        <time>2026-08-21T16:55:59.000Z</time>
        <extensions>
          <ns3:TrackPointExtension>
            <ns3:hr>138</ns3:hr>
            <ns3:cad>79</ns3:cad>
          </ns3:TrackPointExtension>
        </extensions>
      </trkpt>
      <trkpt lat="45.32893203198909759521484375" lon="-70.91539998538792133331298828125">
        <ele>598.5999755859375</ele>
        <time>2026-08-21T16:56:00.000Z</time>
        <extensions>
          <ns3:TrackPointExtension>
            <ns3:hr>139</ns3:hr>
            <ns3:cad>0</ns3:cad>
          </ns3:TrackPointExtension>
        </extensions>
      </trkpt>
      <trkpt lat="45.3289171122014522552490234375" lon="-70.915420353412628173828125">
        <ele>598.5999755859375</ele>
        <time>2026-08-21T16:56:01.000Z</time>
        <extensions>
          <ns3:TrackPointExtension>
            <ns3:hr>139</ns3:hr>
            <ns3:cad>0</ns3:cad>
          </ns3:TrackPointExtension>
        </extensions>
      </trkpt>
      <trkpt lat="45.32890093512833118438720703125" lon="-70.9154413081705570220947265625">
        <ele>598.5999755859375</ele>
        <time>2026-08-21T16:56:02.000Z</time>
        <extensions>
          <ns3:TrackPointExtension>
            <ns3:hr>139</ns3:hr>
            <ns3:cad>0</ns3:cad>
          </ns3:TrackPointExtension>
        </extensions>
      </trkpt>
      <trkpt lat="45.328884087502956390380859375" lon="-70.91546720825135707855224609375">
        <ele>598.79998779296875</ele>
        <time>2026-08-21T16:56:03.000Z</time>
        <extensions>
          <ns3:TrackPointExtension>
            <ns3:hr>139</ns3:hr>
            <ns3:cad>0</ns3:cad>
          </ns3:TrackPointExtension>
        </extensions>
      </trkpt>
      <trkpt lat="45.328870005905628204345703125" lon="-70.91549604199826717376708984375">
        <ele>598.79998779296875</ele>
        <time>2026-08-21T16:56:04.000Z</time>
        <extensions>
          <ns3:TrackPointExtension>
            <ns3:hr>138</ns3:hr>
            <ns3:cad>0</ns3:cad>
          </ns3:TrackPointExtension>
        </extensions>
      </trkpt>
      <trkpt lat="45.3288574330508708953857421875" lon="-70.9155184216797351837158203125">
        <ele>598.79998779296875</ele>
        <time>2026-08-21T16:56:05.000Z</time>
        <extensions>
          <ns3:TrackPointExtension>
            <ns3:hr>138</ns3:hr>
            <ns3:cad>0</ns3:cad>
          </ns3:TrackPointExtension>
        </extensions>
      </trkpt>
      <trkpt lat="45.32884217798709869384765625" lon="-70.9155422262847423553466796875">
        <ele>598.79998779296875</ele>
        <time>2026-08-21T16:56:06.000Z</time>
        <extensions>
          <ns3:TrackPointExtension>
            <ns3:hr>138</ns3:hr>
            <ns3:cad>0</ns3:cad>
          </ns3:TrackPointExtension>
        </extensions>
      </trkpt>
      <trkpt lat="45.3288282640278339385986328125" lon="-70.91556997038424015045166015625">
        <ele>598.79998779296875</ele>
        <time>2026-08-21T16:56:07.000Z</time>
        <extensions>
          <ns3:TrackPointExtension>
            <ns3:hr>138</ns3:hr>
            <ns3:cad>0</ns3:cad>
          </ns3:TrackPointExtension>
        </extensions>
      </trkpt>
      <trkpt lat="45.32881879247725009918212890625" lon="-70.915593691170215606689453125">
        <ele>598.79998779296875</ele>
        <time>2026-08-21T16:56:08.000Z</time>
        <extensions>
          <ns3:TrackPointExtension>
            <ns3:hr>138</ns3:hr>
            <ns3:cad>0</ns3:cad>
          </ns3:TrackPointExtension>
        </extensions>
      </trkpt>
      <trkpt lat="45.32880303449928760528564453125" lon="-70.9156226925551891326904296875">
        <ele>598.79998779296875</ele>
        <time>2026-08-21T16:56:09.000Z</time>
        <extensions>
          <ns3:TrackPointExtension>
            <ns3:hr>139</ns3:hr>
            <ns3:cad>0</ns3:cad>
          </ns3:TrackPointExtension>
        </extensions>
      </trkpt>
      <trkpt lat="45.32878761179745197296142578125" lon="-70.915648676455020904541015625">
        <ele>598.79998779296875</ele>
        <time>2026-08-21T16:56:10.000Z</time>
        <extensions>
          <ns3:TrackPointExtension>
            <ns3:hr>140</ns3:hr>
            <ns3:cad>0</ns3:cad>
          </ns3:TrackPointExtension>
        </extensions>
      </trkpt>
      <trkpt lat="45.32877646386623382568359375" lon="-70.9156692959368228912353515625">
        <ele>599</ele>
        <time>2026-08-21T16:56:11.000Z</time>
        <extensions>
          <ns3:TrackPointExtension>
            <ns3:hr>140</ns3:hr>
            <ns3:cad>0</ns3:cad>
          </ns3:TrackPointExtension>
        </extensions>
      </trkpt>
      <trkpt lat="45.3287637233734130859375" lon="-70.915696620941162109375">
        <ele>599</ele>
        <time>2026-08-21T16:56:12.000Z</time>
        <extensions>
          <ns3:TrackPointExtension>
            <ns3:hr>140</ns3:hr>
            <ns3:cad>0</ns3:cad>
          </ns3:TrackPointExtension>
        </extensions>
      </trkpt>
      <trkpt lat="45.328749977052211761474609375" lon="-70.91572687961161136627197265625">
        <ele>599</ele>
        <time>2026-08-21T16:56:13.000Z</time>
        <extensions>
          <ns3:TrackPointExtension>
            <ns3:hr>140</ns3:hr>
            <ns3:cad>0</ns3:cad>
          </ns3:TrackPointExtension>
        </extensions>
      </trkpt>
      <trkpt lat="45.328737236559391021728515625" lon="-70.9157417155802249908447265625">
        <ele>599</ele>
        <time>2026-08-21T16:56:14.000Z</time>
        <extensions>
          <ns3:TrackPointExtension>
            <ns3:hr>141</ns3:hr>
            <ns3:cad>0</ns3:cad>
          </ns3:TrackPointExtension>
        </extensions>
      </trkpt>
      <trkpt lat="45.3287179581820964813232421875" lon="-70.91577264480292797088623046875">
        <ele>599</ele>
        <time>2026-08-21T16:56:15.000Z</time>
        <extensions>
          <ns3:TrackPointExtension>
            <ns3:hr>140</ns3:hr>
            <ns3:cad>0</ns3:cad>
          </ns3:TrackPointExtension>
        </extensions>
      </trkpt>
      <trkpt lat="45.3287045471370220184326171875" lon="-70.915788151323795318603515625">
        <ele>599</ele>
        <time>2026-08-21T16:56:16.000Z</time>
        <extensions>
          <ns3:TrackPointExtension>
            <ns3:hr>141</ns3:hr>
            <ns3:cad>0</ns3:cad>
          </ns3:TrackPointExtension>
        </extensions>
      </trkpt>
      <trkpt lat="45.3286899626255035400390625" lon="-70.9158137999475002288818359375">
        <ele>599.20001220703125</ele>
        <time>2026-08-21T16:56:17.000Z</time>
        <extensions>
          <ns3:TrackPointExtension>
            <ns3:hr>140</ns3:hr>
            <ns3:cad>19</ns3:cad>
          </ns3:TrackPointExtension>
        </extensions>
      </trkpt>
      <trkpt lat="45.3286763839423656463623046875" lon="-70.91583467088639736175537109375">
        <ele>599.20001220703125</ele>
        <time>2026-08-21T16:56:18.000Z</time>
        <extensions>
          <ns3:TrackPointExtension>
            <ns3:hr>140</ns3:hr>
            <ns3:cad>19</ns3:cad>
          </ns3:TrackPointExtension>
        </extensions>
      </trkpt>
      <trkpt lat="45.3286604583263397216796875" lon="-70.91585646383464336395263671875">
        <ele>599.20001220703125</ele>
        <time>2026-08-21T16:56:19.000Z</time>
        <extensions>
          <ns3:TrackPointExtension>
            <ns3:hr>140</ns3:hr>
            <ns3:cad>19</ns3:cad>
          </ns3:TrackPointExtension>
        </extensions>
      </trkpt>
      <trkpt lat="45.328650064766407012939453125" lon="-70.91588580049574375152587890625">
        <ele>599.20001220703125</ele>
        <time>2026-08-21T16:56:20.000Z</time>
        <extensions>
          <ns3:TrackPointExtension>
            <ns3:hr>141</ns3:hr>
            <ns3:cad>19</ns3:cad>
          </ns3:TrackPointExtension>
        </extensions>
      </trkpt>
      <trkpt lat="45.328635312616825103759765625" lon="-70.9159153886139392852783203125">
        <ele>599.4000244140625</ele>
        <time>2026-08-21T16:56:21.000Z</time>
        <extensions>
          <ns3:TrackPointExtension>
            <ns3:hr>140</ns3:hr>
            <ns3:cad>0</ns3:cad>
          </ns3:TrackPointExtension>
        </extensions>
      </trkpt>
      <trkpt lat="45.32862382940948009490966796875" lon="-70.91593827120959758758544921875">
        <ele>599.4000244140625</ele>
        <time>2026-08-21T16:56:22.000Z</time>
        <extensions>
          <ns3:TrackPointExtension>
            <ns3:hr>140</ns3:hr>
            <ns3:cad>0</ns3:cad>
          </ns3:TrackPointExtension>
        </extensions>
      </trkpt>
      <trkpt lat="45.3286089934408664703369140625" lon="-70.91596308164298534393310546875">
        <ele>599.4000244140625</ele>
        <time>2026-08-21T16:56:23.000Z</time>
        <extensions>
          <ns3:TrackPointExtension>
            <ns3:hr>140</ns3:hr>
            <ns3:cad>0</ns3:cad>
          </ns3:TrackPointExtension>
        </extensions>
      </trkpt>
      <trkpt lat="45.32858963124454021453857421875" lon="-70.91598856262862682342529296875">
        <ele>599.4000244140625</ele>
        <time>2026-08-21T16:56:24.000Z</time>
        <extensions>
          <ns3:TrackPointExtension>
            <ns3:hr>140</ns3:hr>
            <ns3:cad>40</ns3:cad>
          </ns3:TrackPointExtension>
        </extensions>
      </trkpt>
      <trkpt lat="45.32857638783752918243408203125" lon="-70.9160077571868896484375">
        <ele>599.4000244140625</ele>
        <time>2026-08-21T16:56:25.000Z</time>
        <extensions>
          <ns3:TrackPointExtension>
            <ns3:hr>140</ns3:hr>
            <ns3:cad>40</ns3:cad>
          </ns3:TrackPointExtension>
        </extensions>
      </trkpt>
      <trkpt lat="45.32856331206858158111572265625" lon="-70.91603399254381656646728515625">
        <ele>599.5999755859375</ele>
        <time>2026-08-21T16:56:26.000Z</time>
        <extensions>
          <ns3:TrackPointExtension>
            <ns3:hr>140</ns3:hr>
            <ns3:cad>40</ns3:cad>
          </ns3:TrackPointExtension>
        </extensions>
      </trkpt>
      <trkpt lat="45.3285519964993000030517578125" lon="-70.91605394147336483001708984375">
        <ele>599.5999755859375</ele>
        <time>2026-08-21T16:56:27.000Z</time>
        <extensions>
          <ns3:TrackPointExtension>
            <ns3:hr>140</ns3:hr>
            <ns3:cad>40</ns3:cad>
          </ns3:TrackPointExtension>
        </extensions>
      </trkpt>
      <trkpt lat="45.32853783108294010162353515625" lon="-70.91607414186000823974609375">
        <ele>599.5999755859375</ele>
        <time>2026-08-21T16:56:28.000Z</time>
        <extensions>
          <ns3:TrackPointExtension>
            <ns3:hr>141</ns3:hr>
            <ns3:cad>40</ns3:cad>
          </ns3:TrackPointExtension>
        </extensions>
      </trkpt>
      <trkpt lat="45.3285236656665802001953125" lon="-70.9160957671701908111572265625">
        <ele>599.79998779296875</ele>
        <time>2026-08-21T16:56:29.000Z</time>
        <extensions>
          <ns3:TrackPointExtension>
            <ns3:hr>141</ns3:hr>
            <ns3:cad>40</ns3:cad>
          </ns3:TrackPointExtension>
        </extensions>
      </trkpt>
      <trkpt lat="45.32851184718310832977294921875" lon="-70.9161152131855487823486328125">
        <ele>599.79998779296875</ele>
        <time>2026-08-21T16:56:30.000Z</time>
        <extensions>
          <ns3:TrackPointExtension>
            <ns3:hr>140</ns3:hr>
            <ns3:cad>40</ns3:cad>
          </ns3:TrackPointExtension>
        </extensions>
      </trkpt>
      <trkpt lat="45.32849625684320926666259765625" lon="-70.91614027507603168487548828125">
        <ele>599.79998779296875</ele>
        <time>2026-08-21T16:56:31.000Z</time>
        <extensions>
          <ns3:TrackPointExtension>
            <ns3:hr>141</ns3:hr>
            <ns3:cad>40</ns3:cad>
          </ns3:TrackPointExtension>
        </extensions>
      </trkpt>
      <trkpt lat="45.32848385162651538848876953125" lon="-70.9161638282239437103271484375">
        <ele>599.79998779296875</ele>
        <time>2026-08-21T16:56:32.000Z</time>
        <extensions>
          <ns3:TrackPointExtension>
            <ns3:hr>141</ns3:hr>
            <ns3:cad>40</ns3:cad>
          </ns3:TrackPointExtension>
        </extensions>
      </trkpt>
      <trkpt lat="45.32847563736140727996826171875" lon="-70.9161859564483165740966796875">
        <ele>599.79998779296875</ele>
        <time>2026-08-21T16:56:33.000Z</time>
        <extensions>
          <ns3:TrackPointExtension>
            <ns3:hr>141</ns3:hr>
            <ns3:cad>40</ns3:cad>
          </ns3:TrackPointExtension>
        </extensions>
      </trkpt>
      <trkpt lat="45.328462980687618255615234375" lon="-70.91620481573045253753662109375">
        <ele>599.79998779296875</ele>
        <time>2026-08-21T16:56:34.000Z</time>
        <extensions>
          <ns3:TrackPointExtension>
            <ns3:hr>141</ns3:hr>
            <ns3:cad>80</ns3:cad>
          </ns3:TrackPointExtension>
        </extensions>
      </trkpt>
      <trkpt lat="45.3284487314522266387939453125" lon="-70.91622090898454189300537109375">
        <ele>599.79998779296875</ele>
        <time>2026-08-21T16:56:35.000Z</time>
        <extensions>
          <ns3:TrackPointExtension>
            <ns3:hr>141</ns3:hr>
            <ns3:cad>80</ns3:cad>
          </ns3:TrackPointExtension>
        </extensions>
      </trkpt>
      <trkpt lat="45.32843775115907192230224609375" lon="-70.9162370860576629638671875">
        <ele>600</ele>
        <time>2026-08-21T16:56:36.000Z</time>
        <extensions>
          <ns3:TrackPointExtension>
            <ns3:hr>141</ns3:hr>
            <ns3:cad>0</ns3:cad>
          </ns3:TrackPointExtension>
        </extensions>
      </trkpt>
      <trkpt lat="45.32842819578945636749267578125" lon="-70.91625074855983257293701171875">
        <ele>600</ele>
        <time>2026-08-21T16:56:37.000Z</time>
        <extensions>
          <ns3:TrackPointExtension>
            <ns3:hr>142</ns3:hr>
            <ns3:cad>0</ns3:cad>
          </ns3:TrackPointExtension>
        </extensions>
      </trkpt>
      <trkpt lat="45.3284135274589061737060546875" lon="-70.91627069748938083648681640625">
        <ele>600.20001220703125</ele>
        <time>2026-08-21T16:56:38.000Z</time>
        <extensions>
          <ns3:TrackPointExtension>
            <ns3:hr>142</ns3:hr>
            <ns3:cad>0</ns3:cad>
          </ns3:TrackPointExtension>
        </extensions>
      </trkpt>
      <trkpt lat="45.32839869149029254913330078125" lon="-70.91629500500857830047607421875">
        <ele>600.20001220703125</ele>
        <time>2026-08-21T16:56:39.000Z</time>
        <extensions>
          <ns3:TrackPointExtension>
            <ns3:hr>143</ns3:hr>
            <ns3:cad>0</ns3:cad>
          </ns3:TrackPointExtension>
        </extensions>
      </trkpt>
      <trkpt lat="45.3283903934061527252197265625" lon="-70.91631411574780941009521484375">
        <ele>600.20001220703125</ele>
        <time>2026-08-21T16:56:40.000Z</time>
        <extensions>
          <ns3:TrackPointExtension>
            <ns3:hr>143</ns3:hr>
            <ns3:cad>0</ns3:cad>
          </ns3:TrackPointExtension>
        </extensions>
      </trkpt>
      <trkpt lat="45.3283788263797760009765625" lon="-70.91632626950740814208984375">
        <ele>600.20001220703125</ele>
        <time>2026-08-21T16:56:41.000Z</time>
        <extensions>
          <ns3:TrackPointExtension>
            <ns3:hr>144</ns3:hr>
            <ns3:cad>0</ns3:cad>
          </ns3:TrackPointExtension>
        </extensions>
      </trkpt>
      <trkpt lat="45.3283699415624141693115234375" lon="-70.91634563170373439788818359375">
        <ele>600.20001220703125</ele>
        <time>2026-08-21T16:56:42.000Z</time>
        <extensions>
          <ns3:TrackPointExtension>
            <ns3:hr>144</ns3:hr>
            <ns3:cad>0</ns3:cad>
          </ns3:TrackPointExtension>
        </extensions>
      </trkpt>
      <trkpt lat="45.3283615596592426300048828125" lon="-70.91636390425264835357666015625">
        <ele>600.20001220703125</ele>
        <time>2026-08-21T16:56:43.000Z</time>
        <extensions>
          <ns3:TrackPointExtension>
            <ns3:hr>145</ns3:hr>
            <ns3:cad>0</ns3:cad>
          </ns3:TrackPointExtension>
        </extensions>
      </trkpt>
      <trkpt lat="45.3283501602709293365478515625" lon="-70.91637932695448398590087890625">
        <ele>600.20001220703125</ele>
        <time>2026-08-21T16:56:44.000Z</time>
        <extensions>
          <ns3:TrackPointExtension>
            <ns3:hr>147</ns3:hr>
            <ns3:cad>0</ns3:cad>
          </ns3:TrackPointExtension>
        </extensions>
      </trkpt>
      <trkpt lat="45.32833901233971118927001953125" lon="-70.91639726422727108001708984375">
        <ele>600.4000244140625</ele>
        <time>2026-08-21T16:56:45.000Z</time>
        <extensions>
          <ns3:TrackPointExtension>
            <ns3:hr>147</ns3:hr>
            <ns3:cad>0</ns3:cad>
          </ns3:TrackPointExtension>
        </extensions>
      </trkpt>
      <trkpt lat="45.32832660712301731109619140625" lon="-70.916413776576519012451171875">
        <ele>600.4000244140625</ele>
        <time>2026-08-21T16:56:46.000Z</time>
        <extensions>
          <ns3:TrackPointExtension>
            <ns3:hr>144</ns3:hr>
            <ns3:cad>58</ns3:cad>
          </ns3:TrackPointExtension>
        </extensions>
      </trkpt>
      <trkpt lat="45.328316129744052886962890625" lon="-70.916427858173847198486328125">
        <ele>600.4000244140625</ele>
        <time>2026-08-21T16:56:47.000Z</time>
        <extensions>
          <ns3:TrackPointExtension>
            <ns3:hr>143</ns3:hr>
            <ns3:cad>58</ns3:cad>
          </ns3:TrackPointExtension>
        </extensions>
      </trkpt>
      <trkpt lat="45.3283048979938030242919921875" lon="-70.9164451248943805694580078125">
        <ele>600.4000244140625</ele>
        <time>2026-08-21T16:56:48.000Z</time>
        <extensions>
          <ns3:TrackPointExtension>
            <ns3:hr>143</ns3:hr>
            <ns3:cad>58</ns3:cad>
          </ns3:TrackPointExtension>
        </extensions>
      </trkpt>
      <trkpt lat="45.328296683728694915771484375" lon="-70.91646314598619937896728515625">
        <ele>600.4000244140625</ele>
        <time>2026-08-21T16:56:49.000Z</time>
        <extensions>
          <ns3:TrackPointExtension>
            <ns3:hr>143</ns3:hr>
            <ns3:cad>59</ns3:cad>
          </ns3:TrackPointExtension>
        </extensions>
      </trkpt>
      <trkpt lat="45.32829006202518939971923828125" lon="-70.9164826758205890655517578125">
        <ele>600.4000244140625</ele>
        <time>2026-08-21T16:56:50.000Z</time>
        <extensions>
          <ns3:TrackPointExtension>
            <ns3:hr>142</ns3:hr>
            <ns3:cad>59</ns3:cad>
          </ns3:TrackPointExtension>
        </extensions>
      </trkpt>
      <trkpt lat="45.32828017137944698333740234375" lon="-70.916502289474010467529296875">
        <ele>600.4000244140625</ele>
        <time>2026-08-21T16:56:51.000Z</time>
        <extensions>
          <ns3:TrackPointExtension>
            <ns3:hr>142</ns3:hr>
            <ns3:cad>58</ns3:cad>
          </ns3:TrackPointExtension>
        </extensions>
      </trkpt>
      <trkpt lat="45.32827078364789485931396484375" lon="-70.91651964001357555389404296875">
        <ele>600.4000244140625</ele>
        <time>2026-08-21T16:56:52.000Z</time>
        <extensions>
          <ns3:TrackPointExtension>
            <ns3:hr>142</ns3:hr>
            <ns3:cad>58</ns3:cad>
          </ns3:TrackPointExtension>
        </extensions>
      </trkpt>
      <trkpt lat="45.3282609768211841583251953125" lon="-70.91653791256248950958251953125">
        <ele>600.5999755859375</ele>
        <time>2026-08-21T16:56:53.000Z</time>
        <extensions>
          <ns3:TrackPointExtension>
            <ns3:hr>142</ns3:hr>
            <ns3:cad>57</ns3:cad>
          </ns3:TrackPointExtension>
        </extensions>
      </trkpt>
      <trkpt lat="45.3282522596418857574462890625" lon="-70.91655786149203777313232421875">
        <ele>600.5999755859375</ele>
        <time>2026-08-21T16:56:54.000Z</time>
        <extensions>
          <ns3:TrackPointExtension>
            <ns3:hr>142</ns3:hr>
            <ns3:cad>58</ns3:cad>
          </ns3:TrackPointExtension>
        </extensions>
      </trkpt>
      <trkpt lat="45.328240692615509033203125" lon="-70.91657328419387340545654296875">
        <ele>600.5999755859375</ele>
        <time>2026-08-21T16:56:55.000Z</time>
        <extensions>
          <ns3:TrackPointExtension>
            <ns3:hr>142</ns3:hr>
            <ns3:cad>58</ns3:cad>
          </ns3:TrackPointExtension>
        </extensions>
      </trkpt>
      <trkpt lat="45.3282308019697666168212890625" lon="-70.9165862761437892913818359375">
        <ele>600.5999755859375</ele>
        <time>2026-08-21T16:56:56.000Z</time>
        <extensions>
          <ns3:TrackPointExtension>
            <ns3:hr>142</ns3:hr>
            <ns3:cad>59</ns3:cad>
          </ns3:TrackPointExtension>
        </extensions>
      </trkpt>
      <trkpt lat="45.3282224200665950775146484375" lon="-70.9166053868830204010009765625">
        <ele>600.5999755859375</ele>
        <time>2026-08-21T16:56:57.000Z</time>
        <extensions>
          <ns3:TrackPointExtension>
            <ns3:hr>142</ns3:hr>
            <ns3:cad>59</ns3:cad>
          </ns3:TrackPointExtension>
        </extensions>
      </trkpt>
      <trkpt lat="45.328214876353740692138671875" lon="-70.91662424616515636444091796875">
        <ele>600.5999755859375</ele>
        <time>2026-08-21T16:56:58.000Z</time>
        <extensions>
          <ns3:TrackPointExtension>
            <ns3:hr>142</ns3:hr>
            <ns3:cad>58</ns3:cad>
          </ns3:TrackPointExtension>
        </extensions>
      </trkpt>
      <trkpt lat="45.328203476965427398681640625" lon="-70.9166394174098968505859375">
        <ele>600.79998779296875</ele>
        <time>2026-08-21T16:56:59.000Z</time>
        <extensions>
          <ns3:TrackPointExtension>
            <ns3:hr>142</ns3:hr>
            <ns3:cad>59</ns3:cad>
          </ns3:TrackPointExtension>
        </extensions>
      </trkpt>
      <trkpt lat="45.32819316722452640533447265625" lon="-70.91665341518819332122802734375">
        <ele>600.79998779296875</ele>
        <time>2026-08-21T16:57:00.000Z</time>
        <extensions>
          <ns3:TrackPointExtension>
            <ns3:hr>142</ns3:hr>
            <ns3:cad>59</ns3:cad>
          </ns3:TrackPointExtension>
        </extensions>
      </trkpt>
      <trkpt lat="45.32818713225424289703369140625" lon="-70.91667093336582183837890625">
        <ele>600.79998779296875</ele>
        <time>2026-08-21T16:57:01.000Z</time>
        <extensions>
          <ns3:TrackPointExtension>
            <ns3:hr>142</ns3:hr>
            <ns3:cad>59</ns3:cad>
          </ns3:TrackPointExtension>
        </extensions>
      </trkpt>
      <trkpt lat="45.3281781636178493499755859375" lon="-70.91668861918151378631591796875">
        <ele>601</ele>
        <time>2026-08-21T16:57:02.000Z</time>
        <extensions>
          <ns3:TrackPointExtension>
            <ns3:hr>142</ns3:hr>
            <ns3:cad>59</ns3:cad>
          </ns3:TrackPointExtension>
        </extensions>
      </trkpt>
      <trkpt lat="45.3281707875430583953857421875" lon="-70.91670638881623744964599609375">
        <ele>601</ele>
        <time>2026-08-21T16:57:03.000Z</time>
        <extensions>
          <ns3:TrackPointExtension>
            <ns3:hr>142</ns3:hr>
            <ns3:cad>59</ns3:cad>
          </ns3:TrackPointExtension>
        </extensions>
      </trkpt>
      <trkpt lat="45.32816232182085514068603515625" lon="-70.9167250804603099822998046875">
        <ele>601</ele>
        <time>2026-08-21T16:57:04.000Z</time>
        <extensions>
          <ns3:TrackPointExtension>
            <ns3:hr>142</ns3:hr>
            <ns3:cad>60</ns3:cad>
          </ns3:TrackPointExtension>
        </extensions>
      </trkpt>
      <trkpt lat="45.32815662212669849395751953125" lon="-70.916745029389858245849609375">
        <ele>601</ele>
        <time>2026-08-21T16:57:05.000Z</time>
        <extensions>
          <ns3:TrackPointExtension>
            <ns3:hr>142</ns3:hr>
            <ns3:cad>60</ns3:cad>
          </ns3:TrackPointExtension>
        </extensions>
      </trkpt>
      <trkpt lat="45.3281454741954803466796875" lon="-70.91676355339586734771728515625">
        <ele>601</ele>
        <time>2026-08-21T16:57:06.000Z</time>
        <extensions>
          <ns3:TrackPointExtension>
            <ns3:hr>142</ns3:hr>
            <ns3:cad>60</ns3:cad>
          </ns3:TrackPointExtension>
        </extensions>
      </trkpt>
      <trkpt lat="45.32813717611134052276611328125" lon="-70.9167842566967010498046875">
        <ele>601.20001220703125</ele>
        <time>2026-08-21T16:57:07.000Z</time>
        <extensions>
          <ns3:TrackPointExtension>
            <ns3:hr>142</ns3:hr>
            <ns3:cad>60</ns3:cad>
          </ns3:TrackPointExtension>
        </extensions>
      </trkpt>
      <trkpt lat="45.328131727874279022216796875" lon="-70.91680512763559818267822265625">
        <ele>601.20001220703125</ele>
        <time>2026-08-21T16:57:08.000Z</time>
        <extensions>
          <ns3:TrackPointExtension>
            <ns3:hr>142</ns3:hr>
            <ns3:cad>59</ns3:cad>
          </ns3:TrackPointExtension>
        </extensions>
      </trkpt>
      <trkpt lat="45.32812535762786865234375" lon="-70.91682725585997104644775390625">
        <ele>601.20001220703125</ele>
        <time>2026-08-21T16:57:09.000Z</time>
        <extensions>
          <ns3:TrackPointExtension>
            <ns3:hr>142</ns3:hr>
            <ns3:cad>59</ns3:cad>
          </ns3:TrackPointExtension>
        </extensions>
      </trkpt>
      <trkpt lat="45.32812292687594890594482421875" lon="-70.9168513119220733642578125">
        <ele>601.20001220703125</ele>
        <time>2026-08-21T16:57:10.000Z</time>
        <extensions>
          <ns3:TrackPointExtension>
            <ns3:hr>142</ns3:hr>
            <ns3:cad>59</ns3:cad>
          </ns3:TrackPointExtension>
        </extensions>
      </trkpt>
      <trkpt lat="45.32811404205858707427978515625" lon="-70.9168727695941925048828125">
        <ele>601.20001220703125</ele>
        <time>2026-08-21T16:57:11.000Z</time>
        <extensions>
          <ns3:TrackPointExtension>
            <ns3:hr>141</ns3:hr>
            <ns3:cad>59</ns3:cad>
          </ns3:TrackPointExtension>
        </extensions>
      </trkpt>
      <trkpt lat="45.3281054086983203887939453125" lon="-70.91689414344727993011474609375">
        <ele>601.4000244140625</ele>
        <time>2026-08-21T16:57:12.000Z</time>
        <extensions>
          <ns3:TrackPointExtension>
            <ns3:hr>141</ns3:hr>
            <ns3:cad>59</ns3:cad>
          </ns3:TrackPointExtension>
        </extensions>
      </trkpt>
      <trkpt lat="45.328099541366100311279296875" lon="-70.91691727750003337860107421875">
        <ele>601.4000244140625</ele>
        <time>2026-08-21T16:57:13.000Z</time>
        <extensions>
          <ns3:TrackPointExtension>
            <ns3:hr>140</ns3:hr>
            <ns3:cad>59</ns3:cad>
          </ns3:TrackPointExtension>
        </extensions>
      </trkpt>
      <trkpt lat="45.32809518277645111083984375" lon="-70.91694049537181854248046875">
        <ele>601.4000244140625</ele>
        <time>2026-08-21T16:57:14.000Z</time>
        <extensions>
          <ns3:TrackPointExtension>
            <ns3:hr>139</ns3:hr>
            <ns3:cad>59</ns3:cad>
          </ns3:TrackPointExtension>
        </extensions>
      </trkpt>
      <trkpt lat="45.328085459768772125244140625" lon="-70.916960276663303375244140625">
        <ele>601.5999755859375</ele>
        <time>2026-08-21T16:57:15.000Z</time>
        <extensions>
          <ns3:TrackPointExtension>
            <ns3:hr>139</ns3:hr>
            <ns3:cad>59</ns3:cad>
          </ns3:TrackPointExtension>
        </extensions>
      </trkpt>
      <trkpt lat="45.3280775807797908782958984375" lon="-70.9169812314212322235107421875">
        <ele>601.5999755859375</ele>
        <time>2026-08-21T16:57:16.000Z</time>
        <extensions>
          <ns3:TrackPointExtension>
            <ns3:hr>139</ns3:hr>
            <ns3:cad>59</ns3:cad>
          </ns3:TrackPointExtension>
        </extensions>
      </trkpt>
      <trkpt lat="45.3280725516378879547119140625" lon="-70.91700444929301738739013671875">
        <ele>601.5999755859375</ele>
        <time>2026-08-21T16:57:17.000Z</time>
        <extensions>
          <ns3:TrackPointExtension>
            <ns3:hr>138</ns3:hr>
            <ns3:cad>59</ns3:cad>
          </ns3:TrackPointExtension>
        </extensions>
      </trkpt>
      <trkpt lat="45.32806525938212871551513671875" lon="-70.9170248173177242279052734375">
        <ele>601.5999755859375</ele>
        <time>2026-08-21T16:57:18.000Z</time>
        <extensions>
          <ns3:TrackPointExtension>
            <ns3:hr>138</ns3:hr>
            <ns3:cad>59</ns3:cad>
          </ns3:TrackPointExtension>
        </extensions>
      </trkpt>
      <trkpt lat="45.32805704511702060699462890625" lon="-70.91704769991338253021240234375">
        <ele>601.79998779296875</ele>
        <time>2026-08-21T16:57:19.000Z</time>
        <extensions>
          <ns3:TrackPointExtension>
            <ns3:hr>138</ns3:hr>
            <ns3:cad>59</ns3:cad>
          </ns3:TrackPointExtension>
        </extensions>
      </trkpt>
      <trkpt lat="45.328051261603832244873046875" lon="-70.91707485727965831756591796875">
        <ele>601.79998779296875</ele>
        <time>2026-08-21T16:57:20.000Z</time>
        <extensions>
          <ns3:TrackPointExtension>
            <ns3:hr>138</ns3:hr>
            <ns3:cad>59</ns3:cad>
          </ns3:TrackPointExtension>
        </extensions>
      </trkpt>
      <trkpt lat="45.328044556081295013427734375" lon="-70.91709178872406482696533203125">
        <ele>601.79998779296875</ele>
        <time>2026-08-21T16:57:21.000Z</time>
        <extensions>
          <ns3:TrackPointExtension>
            <ns3:hr>138</ns3:hr>
            <ns3:cad>59</ns3:cad>
          </ns3:TrackPointExtension>
        </extensions>
      </trkpt>
      <trkpt lat="45.32803676091134548187255859375" lon="-70.91711408458650112152099609375">
        <ele>602</ele>
        <time>2026-08-21T16:57:22.000Z</time>
        <extensions>
          <ns3:TrackPointExtension>
            <ns3:hr>138</ns3:hr>
            <ns3:cad>59</ns3:cad>
          </ns3:TrackPointExtension>
        </extensions>
      </trkpt>
      <trkpt lat="45.3280289657413959503173828125" lon="-70.91714241541922092437744140625">
        <ele>602</ele>
        <time>2026-08-21T16:57:23.000Z</time>
        <extensions>
          <ns3:TrackPointExtension>
            <ns3:hr>138</ns3:hr>
            <ns3:cad>59</ns3:cad>
          </ns3:TrackPointExtension>
        </extensions>
      </trkpt>
      <trkpt lat="45.3280232660472393035888671875" lon="-70.91716043651103973388671875">
        <ele>602</ele>
        <time>2026-08-21T16:57:24.000Z</time>
        <extensions>
          <ns3:TrackPointExtension>
            <ns3:hr>137</ns3:hr>
            <ns3:cad>59</ns3:cad>
          </ns3:TrackPointExtension>
        </extensions>
      </trkpt>
      <trkpt lat="45.32801765017211437225341796875" lon="-70.91718499548733234405517578125">
        <ele>602.20001220703125</ele>
        <time>2026-08-21T16:57:25.000Z</time>
        <extensions>
          <ns3:TrackPointExtension>
            <ns3:hr>137</ns3:hr>
            <ns3:cad>59</ns3:cad>
          </ns3:TrackPointExtension>
        </extensions>
      </trkpt>
      <trkpt lat="45.32801278866827487945556640625" lon="-70.9172102250158786773681640625">
        <ele>602.20001220703125</ele>
        <time>2026-08-21T16:57:26.000Z</time>
        <extensions>
          <ns3:TrackPointExtension>
            <ns3:hr>137</ns3:hr>
            <ns3:cad>59</ns3:cad>
          </ns3:TrackPointExtension>
        </extensions>
      </trkpt>
      <trkpt lat="45.32800826244056224822998046875" lon="-70.9172353707253932952880859375">
        <ele>602.20001220703125</ele>
        <time>2026-08-21T16:57:27.000Z</time>
        <extensions>
          <ns3:TrackPointExtension>
            <ns3:hr>137</ns3:hr>
            <ns3:cad>59</ns3:cad>
          </ns3:TrackPointExtension>
        </extensions>
      </trkpt>
      <trkpt lat="45.32800122164189815521240234375" lon="-70.917258672416210174560546875">
        <ele>602.20001220703125</ele>
        <time>2026-08-21T16:57:28.000Z</time>
        <extensions>
          <ns3:TrackPointExtension>
            <ns3:hr>137</ns3:hr>
            <ns3:cad>59</ns3:cad>
          </ns3:TrackPointExtension>
        </extensions>
      </trkpt>
      <trkpt lat="45.327993929386138916015625" lon="-70.91728239320218563079833984375">
        <ele>602.20001220703125</ele>
        <time>2026-08-21T16:57:29.000Z</time>
        <extensions>
          <ns3:TrackPointExtension>
            <ns3:hr>136</ns3:hr>
            <ns3:cad>59</ns3:cad>
          </ns3:TrackPointExtension>
        </extensions>
      </trkpt>
      <trkpt lat="45.327986218035221099853515625" lon="-70.9173030965030193328857421875">
        <ele>602.20001220703125</ele>
        <time>2026-08-21T16:57:30.000Z</time>
        <extensions>
          <ns3:TrackPointExtension>
            <ns3:hr>136</ns3:hr>
            <ns3:cad>59</ns3:cad>
          </ns3:TrackPointExtension>
        </extensions>
      </trkpt>
      <trkpt lat="45.32797875814139842987060546875" lon="-70.9173272363841533660888671875">
        <ele>602.20001220703125</ele>
        <time>2026-08-21T16:57:31.000Z</time>
        <extensions>
          <ns3:TrackPointExtension>
            <ns3:hr>135</ns3:hr>
            <ns3:cad>59</ns3:cad>
          </ns3:TrackPointExtension>
        </extensions>
      </trkpt>
      <trkpt lat="45.32797507010400295257568359375" lon="-70.9173486940562725067138671875">
        <ele>602.4000244140625</ele>
        <time>2026-08-21T16:57:32.000Z</time>
        <extensions>
          <ns3:TrackPointExtension>
            <ns3:hr>135</ns3:hr>
            <ns3:cad>59</ns3:cad>
          </ns3:TrackPointExtension>
        </extensions>
      </trkpt>
      <trkpt lat="45.3279711306095123291015625" lon="-70.917373336851596832275390625">
        <ele>602.4000244140625</ele>
        <time>2026-08-21T16:57:33.000Z</time>
        <extensions>
          <ns3:TrackPointExtension>
            <ns3:hr>134</ns3:hr>
            <ns3:cad>59</ns3:cad>
          </ns3:TrackPointExtension>
        </extensions>
      </trkpt>
      <trkpt lat="45.3279655985534191131591796875" lon="-70.917391441762447357177734375">
        <ele>602.4000244140625</ele>
        <time>2026-08-21T16:57:34.000Z</time>
        <extensions>
          <ns3:TrackPointExtension>
            <ns3:hr>134</ns3:hr>
            <ns3:cad>59</ns3:cad>
          </ns3:TrackPointExtension>
        </extensions>
      </trkpt>
      <trkpt lat="45.32795973122119903564453125" lon="-70.917412899434566497802734375">
        <ele>602.4000244140625</ele>
        <time>2026-08-21T16:57:35.000Z</time>
        <extensions>
          <ns3:TrackPointExtension>
            <ns3:hr>134</ns3:hr>
            <ns3:cad>58</ns3:cad>
          </ns3:TrackPointExtension>
        </extensions>
      </trkpt>
      <trkpt lat="45.32795428298413753509521484375" lon="-70.91743477620184421539306640625">
        <ele>602.5999755859375</ele>
        <time>2026-08-21T16:57:36.000Z</time>
        <extensions>
          <ns3:TrackPointExtension>
            <ns3:hr>134</ns3:hr>
            <ns3:cad>58</ns3:cad>
          </ns3:TrackPointExtension>
        </extensions>
      </trkpt>
      <trkpt lat="45.32794673927128314971923828125" lon="-70.91745522804558277130126953125">
        <ele>602.5999755859375</ele>
        <time>2026-08-21T16:57:37.000Z</time>
        <extensions>
          <ns3:TrackPointExtension>
            <ns3:hr>134</ns3:hr>
            <ns3:cad>58</ns3:cad>
          </ns3:TrackPointExtension>
        </extensions>
      </trkpt>
      <trkpt lat="45.327941291034221649169921875" lon="-70.91747886501252651214599609375">
        <ele>602.5999755859375</ele>
        <time>2026-08-21T16:57:38.000Z</time>
        <extensions>
          <ns3:TrackPointExtension>
            <ns3:hr>133</ns3:hr>
            <ns3:cad>58</ns3:cad>
          </ns3:TrackPointExtension>
        </extensions>
      </trkpt>
      <trkpt lat="45.32793567515909671783447265625" lon="-70.91750107705593109130859375">
        <ele>602.5999755859375</ele>
        <time>2026-08-21T16:57:39.000Z</time>
        <extensions>
          <ns3:TrackPointExtension>
            <ns3:hr>133</ns3:hr>
            <ns3:cad>58</ns3:cad>
          </ns3:TrackPointExtension>
        </extensions>
      </trkpt>
      <trkpt lat="45.3279303945600986480712890625" lon="-70.91752379201352596282958984375">
        <ele>602.5999755859375</ele>
        <time>2026-08-21T16:57:40.000Z</time>
        <extensions>
          <ns3:TrackPointExtension>
            <ns3:hr>133</ns3:hr>
            <ns3:cad>57</ns3:cad>
          </ns3:TrackPointExtension>
        </extensions>
      </trkpt>
      <trkpt lat="45.32792444340884685516357421875" lon="-70.91754592023789882659912109375">
        <ele>602.5999755859375</ele>
        <time>2026-08-21T16:57:41.000Z</time>
        <extensions>
          <ns3:TrackPointExtension>
            <ns3:hr>133</ns3:hr>
            <ns3:cad>57</ns3:cad>
          </ns3:TrackPointExtension>
        </extensions>
      </trkpt>
      <trkpt lat="45.32791681587696075439453125" lon="-70.91756821610033512115478515625">
        <ele>602.5999755859375</ele>
        <time>2026-08-21T16:57:42.000Z</time>
        <extensions>
          <ns3:TrackPointExtension>
            <ns3:hr>133</ns3:hr>
            <ns3:cad>58</ns3:cad>
          </ns3:TrackPointExtension>
        </extensions>
      </trkpt>
      <trkpt lat="45.327910445630550384521484375" lon="-70.9175867401063442230224609375">
        <ele>602.5999755859375</ele>
        <time>2026-08-21T16:57:43.000Z</time>
        <extensions>
          <ns3:TrackPointExtension>
            <ns3:hr>132</ns3:hr>
            <ns3:cad>58</ns3:cad>
          </ns3:TrackPointExtension>
        </extensions>
      </trkpt>
      <trkpt lat="45.3279022313654422760009765625" lon="-70.917605347931385040283203125">
        <ele>602.5999755859375</ele>
        <time>2026-08-21T16:57:44.000Z</time>
        <extensions>
          <ns3:TrackPointExtension>
            <ns3:hr>133</ns3:hr>
            <ns3:cad>58</ns3:cad>
          </ns3:TrackPointExtension>
        </extensions>
      </trkpt>
      <trkpt lat="45.327896364033222198486328125" lon="-70.91762403957545757293701171875">
        <ele>602.5999755859375</ele>
        <time>2026-08-21T16:57:45.000Z</time>
        <extensions>
          <ns3:TrackPointExtension>
            <ns3:hr>133</ns3:hr>
            <ns3:cad>58</ns3:cad>
          </ns3:TrackPointExtension>
        </extensions>
      </trkpt>
      <trkpt lat="45.327888987958431243896484375" lon="-70.91764189302921295166015625">
        <ele>602.5999755859375</ele>
        <time>2026-08-21T16:57:46.000Z</time>
        <extensions>
          <ns3:TrackPointExtension>
            <ns3:hr>132</ns3:hr>
            <ns3:cad>58</ns3:cad>
          </ns3:TrackPointExtension>
        </extensions>
      </trkpt>
      <trkpt lat="45.3278824500739574432373046875" lon="-70.91766175813972949981689453125">
        <ele>602.5999755859375</ele>
        <time>2026-08-21T16:57:47.000Z</time>
        <extensions>
          <ns3:TrackPointExtension>
            <ns3:hr>132</ns3:hr>
            <ns3:cad>58</ns3:cad>
          </ns3:TrackPointExtension>
        </extensions>
      </trkpt>
      <trkpt lat="45.32787230797111988067626953125" lon="-70.91768086887896060943603515625">
        <ele>602.79998779296875</ele>
        <time>2026-08-21T16:57:48.000Z</time>
        <extensions>
          <ns3:TrackPointExtension>
            <ns3:hr>132</ns3:hr>
            <ns3:cad>57</ns3:cad>
          </ns3:TrackPointExtension>
        </extensions>
      </trkpt>
      <trkpt lat="45.32786627300083637237548828125" lon="-70.9176987223327159881591796875">
        <ele>602.79998779296875</ele>
        <time>2026-08-21T16:57:49.000Z</time>
        <extensions>
          <ns3:TrackPointExtension>
            <ns3:hr>132</ns3:hr>
            <ns3:cad>57</ns3:cad>
          </ns3:TrackPointExtension>
        </extensions>
      </trkpt>
      <trkpt lat="45.3278599865734577178955078125" lon="-70.917719341814517974853515625">
        <ele>602.79998779296875</ele>
        <time>2026-08-21T16:57:50.000Z</time>
        <extensions>
          <ns3:TrackPointExtension>
            <ns3:hr>132</ns3:hr>
            <ns3:cad>57</ns3:cad>
          </ns3:TrackPointExtension>
        </extensions>
      </trkpt>
      <trkpt lat="45.32785017974674701690673828125" lon="-70.91773954220116138458251953125">
        <ele>603</ele>
        <time>2026-08-21T16:57:51.000Z</time>
        <extensions>
          <ns3:TrackPointExtension>
            <ns3:hr>132</ns3:hr>
            <ns3:cad>57</ns3:cad>
          </ns3:TrackPointExtension>
        </extensions>
      </trkpt>
      <trkpt lat="45.327843725681304931640625" lon="-70.9177573956549167633056640625">
        <ele>603</ele>
        <time>2026-08-21T16:57:52.000Z</time>
        <extensions>
          <ns3:TrackPointExtension>
            <ns3:hr>131</ns3:hr>
            <ns3:cad>58</ns3:cad>
          </ns3:TrackPointExtension>
        </extensions>
      </trkpt>
      <trkpt lat="45.3278338350355625152587890625" lon="-70.91777524910867214202880859375">
        <ele>603</ele>
        <time>2026-08-21T16:57:53.000Z</time>
        <extensions>
          <ns3:TrackPointExtension>
            <ns3:hr>131</ns3:hr>
            <ns3:cad>57</ns3:cad>
          </ns3:TrackPointExtension>
        </extensions>
      </trkpt>
      <trkpt lat="45.32782503403723239898681640625" lon="-70.9177939407527446746826171875">
        <ele>603.20001220703125</ele>
        <time>2026-08-21T16:57:54.000Z</time>
        <extensions>
          <ns3:TrackPointExtension>
            <ns3:hr>131</ns3:hr>
            <ns3:cad>57</ns3:cad>
          </ns3:TrackPointExtension>
        </extensions>
      </trkpt>
      <trkpt lat="45.32781681977212429046630859375" lon="-70.91781179420650005340576171875">
        <ele>603.20001220703125</ele>
        <time>2026-08-21T16:57:55.000Z</time>
        <extensions>
          <ns3:TrackPointExtension>
            <ns3:hr>131</ns3:hr>
            <ns3:cad>58</ns3:cad>
          </ns3:TrackPointExtension>
        </extensions>
      </trkpt>
      <trkpt lat="45.3278073482215404510498046875" lon="-70.917828641831874847412109375">
        <ele>603.20001220703125</ele>
        <time>2026-08-21T16:57:56.000Z</time>
        <extensions>
          <ns3:TrackPointExtension>
            <ns3:hr>131</ns3:hr>
            <ns3:cad>58</ns3:cad>
          </ns3:TrackPointExtension>
        </extensions>
      </trkpt>
      <trkpt lat="45.32779670320451259613037109375" lon="-70.91784867458045482635498046875">
        <ele>603.20001220703125</ele>
        <time>2026-08-21T16:57:57.000Z</time>
        <extensions>
          <ns3:TrackPointExtension>
            <ns3:hr>132</ns3:hr>
            <ns3:cad>58</ns3:cad>
          </ns3:TrackPointExtension>
        </extensions>
      </trkpt>
      <trkpt lat="45.32779075205326080322265625" lon="-70.91786812059581279754638671875">
        <ele>603.20001220703125</ele>
        <time>2026-08-21T16:57:58.000Z</time>
        <extensions>
          <ns3:TrackPointExtension>
            <ns3:hr>131</ns3:hr>
            <ns3:cad>58</ns3:cad>
          </ns3:TrackPointExtension>
        </extensions>
      </trkpt>
      <trkpt lat="45.32778161577880382537841796875" lon="-70.91788756661117076873779296875">
        <ele>603.4000244140625</ele>
        <time>2026-08-21T16:57:59.000Z</time>
        <extensions>
          <ns3:TrackPointExtension>
            <ns3:hr>132</ns3:hr>
            <ns3:cad>58</ns3:cad>
          </ns3:TrackPointExtension>
        </extensions>
      </trkpt>
      <trkpt lat="45.327770300209522247314453125" lon="-70.91790382750332355499267578125">
        <ele>603.4000244140625</ele>
        <time>2026-08-21T16:58:00.000Z</time>
        <extensions>
          <ns3:TrackPointExtension>
            <ns3:hr>132</ns3:hr>
            <ns3:cad>58</ns3:cad>
          </ns3:TrackPointExtension>
        </extensions>
      </trkpt>
      <trkpt lat="45.32776015810668468475341796875" lon="-70.9179215133190155029296875">
        <ele>603.4000244140625</ele>
        <time>2026-08-21T16:58:01.000Z</time>
        <extensions>
          <ns3:TrackPointExtension>
            <ns3:hr>132</ns3:hr>
            <ns3:cad>58</ns3:cad>
          </ns3:TrackPointExtension>
        </extensions>
      </trkpt>
      <trkpt lat="45.32775144092738628387451171875" lon="-70.91793819330632686614990234375">
        <ele>603.4000244140625</ele>
        <time>2026-08-21T16:58:02.000Z</time>
        <extensions>
          <ns3:TrackPointExtension>
            <ns3:hr>131</ns3:hr>
            <ns3:cad>57</ns3:cad>
          </ns3:TrackPointExtension>
        </extensions>
      </trkpt>
      <trkpt lat="45.32774138264358043670654296875" lon="-70.9179575555026531219482421875">
        <ele>603.5999755859375</ele>
        <time>2026-08-21T16:58:03.000Z</time>
        <extensions>
          <ns3:TrackPointExtension>
            <ns3:hr>132</ns3:hr>
            <ns3:cad>57</ns3:cad>
          </ns3:TrackPointExtension>
        </extensions>
      </trkpt>
      <trkpt lat="45.32773082144558429718017578125" lon="-70.91797574423253536224365234375">
        <ele>603.5999755859375</ele>
        <time>2026-08-21T16:58:04.000Z</time>
        <extensions>
          <ns3:TrackPointExtension>
            <ns3:hr>132</ns3:hr>
            <ns3:cad>57</ns3:cad>
          </ns3:TrackPointExtension>
        </extensions>
      </trkpt>
      <trkpt lat="45.32772026024758815765380859375" lon="-70.917992256581783294677734375">
        <ele>603.5999755859375</ele>
        <time>2026-08-21T16:58:05.000Z</time>
        <extensions>
          <ns3:TrackPointExtension>
            <ns3:hr>131</ns3:hr>
            <ns3:cad>58</ns3:cad>
          </ns3:TrackPointExtension>
        </extensions>
      </trkpt>
      <trkpt lat="45.327709615230560302734375" lon="-70.91800960712134838104248046875">
        <ele>603.5999755859375</ele>
        <time>2026-08-21T16:58:06.000Z</time>
        <extensions>
          <ns3:TrackPointExtension>
            <ns3:hr>132</ns3:hr>
            <ns3:cad>58</ns3:cad>
          </ns3:TrackPointExtension>
        </extensions>
      </trkpt>
      <trkpt lat="45.3276977129280567169189453125" lon="-70.91802838258445262908935546875">
        <ele>603.5999755859375</ele>
        <time>2026-08-21T16:58:07.000Z</time>
        <extensions>
          <ns3:TrackPointExtension>
            <ns3:hr>132</ns3:hr>
            <ns3:cad>57</ns3:cad>
          </ns3:TrackPointExtension>
        </extensions>
      </trkpt>
      <trkpt lat="45.32768840901553630828857421875" lon="-70.918045900762081146240234375">
        <ele>603.79998779296875</ele>
        <time>2026-08-21T16:58:08.000Z</time>
        <extensions>
          <ns3:TrackPointExtension>
            <ns3:hr>132</ns3:hr>
            <ns3:cad>57</ns3:cad>
          </ns3:TrackPointExtension>
        </extensions>
      </trkpt>
      <trkpt lat="45.32767566852271556854248046875" lon="-70.91806232929229736328125">
        <ele>603.79998779296875</ele>
        <time>2026-08-21T16:58:09.000Z</time>
        <extensions>
          <ns3:TrackPointExtension>
            <ns3:hr>132</ns3:hr>
            <ns3:cad>57</ns3:cad>
          </ns3:TrackPointExtension>
        </extensions>
      </trkpt>
      <trkpt lat="45.3276625089347362518310546875" lon="-70.91807917691767215728759765625">
        <ele>603.79998779296875</ele>
        <time>2026-08-21T16:58:10.000Z</time>
        <extensions>
          <ns3:TrackPointExtension>
            <ns3:hr>132</ns3:hr>
            <ns3:cad>57</ns3:cad>
          </ns3:TrackPointExtension>
        </extensions>
      </trkpt>
      <trkpt lat="45.327650606632232666015625" lon="-70.918094180524349212646484375">
        <ele>604</ele>
        <time>2026-08-21T16:58:11.000Z</time>
        <extensions>
          <ns3:TrackPointExtension>
            <ns3:hr>132</ns3:hr>
            <ns3:cad>57</ns3:cad>
          </ns3:TrackPointExtension>
        </extensions>
      </trkpt>
      <trkpt lat="45.327642895281314849853515625" lon="-70.918109603226184844970703125">
        <ele>604</ele>
        <time>2026-08-21T16:58:12.000Z</time>
        <extensions>
          <ns3:TrackPointExtension>
            <ns3:hr>132</ns3:hr>
            <ns3:cad>57</ns3:cad>
          </ns3:TrackPointExtension>
        </extensions>
      </trkpt>
      <trkpt lat="45.32763241790235042572021484375" lon="-70.918123684823513031005859375">
        <ele>604</ele>
        <time>2026-08-21T16:58:13.000Z</time>
        <extensions>
          <ns3:TrackPointExtension>
            <ns3:hr>133</ns3:hr>
            <ns3:cad>57</ns3:cad>
          </ns3:TrackPointExtension>
        </extensions>
      </trkpt>
      <trkpt lat="45.3276212699711322784423828125" lon="-70.9181439690291881561279296875">
        <ele>604</ele>
        <time>2026-08-21T16:58:14.000Z</time>
        <extensions>
          <ns3:TrackPointExtension>
            <ns3:hr>133</ns3:hr>
            <ns3:cad>57</ns3:cad>
          </ns3:TrackPointExtension>
        </extensions>
      </trkpt>
      <trkpt lat="45.32760861329734325408935546875" lon="-70.91816450469195842742919921875">
        <ele>604</ele>
        <time>2026-08-21T16:58:15.000Z</time>
        <extensions>
          <ns3:TrackPointExtension>
            <ns3:hr>133</ns3:hr>
            <ns3:cad>58</ns3:cad>
          </ns3:TrackPointExtension>
        </extensions>
      </trkpt>
      <trkpt lat="45.32759436406195163726806640625" lon="-70.91818763874471187591552734375">
        <ele>604</ele>
        <time>2026-08-21T16:58:16.000Z</time>
        <extensions>
          <ns3:TrackPointExtension>
            <ns3:hr>133</ns3:hr>
            <ns3:cad>58</ns3:cad>
          </ns3:TrackPointExtension>
        </extensions>
      </trkpt>
      <trkpt lat="45.32758078537881374359130859375" lon="-70.9182150475680828094482421875">
        <ele>604.20001220703125</ele>
        <time>2026-08-21T16:58:17.000Z</time>
        <extensions>
          <ns3:TrackPointExtension>
            <ns3:hr>132</ns3:hr>
            <ns3:cad>58</ns3:cad>
          </ns3:TrackPointExtension>
        </extensions>
      </trkpt>
      <trkpt lat="45.32756720669567584991455078125" lon="-70.9182395227253437042236328125">
        <ele>604.20001220703125</ele>
        <time>2026-08-21T16:58:18.000Z</time>
        <extensions>
          <ns3:TrackPointExtension>
            <ns3:hr>132</ns3:hr>
            <ns3:cad>58</ns3:cad>
          </ns3:TrackPointExtension>
        </extensions>
      </trkpt>
      <trkpt lat="45.32754993997514247894287109375" lon="-70.9182676859200000762939453125">
        <ele>604.4000244140625</ele>
        <time>2026-08-21T16:58:19.000Z</time>
        <extensions>
          <ns3:TrackPointExtension>
            <ns3:hr>132</ns3:hr>
            <ns3:cad>0</ns3:cad>
          </ns3:TrackPointExtension>
        </extensions>
      </trkpt>
      <trkpt lat="45.32753166742622852325439453125" lon="-70.91829023323953151702880859375">
        <ele>604.4000244140625</ele>
        <time>2026-08-21T16:58:20.000Z</time>
        <extensions>
          <ns3:TrackPointExtension>
            <ns3:hr>131</ns3:hr>
            <ns3:cad>41</ns3:cad>
          </ns3:TrackPointExtension>
        </extensions>
      </trkpt>
      <trkpt lat="45.32751825638115406036376953125" lon="-70.91830917634069919586181640625">
        <ele>604.5999755859375</ele>
        <time>2026-08-21T16:58:21.000Z</time>
        <extensions>
          <ns3:TrackPointExtension>
            <ns3:hr>130</ns3:hr>
            <ns3:cad>41</ns3:cad>
          </ns3:TrackPointExtension>
        </extensions>
      </trkpt>
      <trkpt lat="45.32750484533607959747314453125" lon="-70.91833616606891155242919921875">
        <ele>604.5999755859375</ele>
        <time>2026-08-21T16:58:22.000Z</time>
        <extensions>
          <ns3:TrackPointExtension>
            <ns3:hr>129</ns3:hr>
            <ns3:cad>41</ns3:cad>
          </ns3:TrackPointExtension>
        </extensions>
      </trkpt>
      <trkpt lat="45.32748858444392681121826171875" lon="-70.91835938394069671630859375">
        <ele>604.79998779296875</ele>
        <time>2026-08-21T16:58:23.000Z</time>
        <extensions>
          <ns3:TrackPointExtension>
            <ns3:hr>128</ns3:hr>
            <ns3:cad>41</ns3:cad>
          </ns3:TrackPointExtension>
        </extensions>
      </trkpt>
      <trkpt lat="45.32747349701821804046630859375" lon="-70.918377824127674102783203125">
        <ele>604.79998779296875</ele>
        <time>2026-08-21T16:58:24.000Z</time>
        <extensions>
          <ns3:TrackPointExtension>
            <ns3:hr>128</ns3:hr>
            <ns3:cad>41</ns3:cad>
          </ns3:TrackPointExtension>
        </extensions>
      </trkpt>
      <trkpt lat="45.32745949923992156982421875" lon="-70.91840229928493499755859375">
        <ele>605</ele>
        <time>2026-08-21T16:58:25.000Z</time>
        <extensions>
          <ns3:TrackPointExtension>
            <ns3:hr>129</ns3:hr>
            <ns3:cad>41</ns3:cad>
          </ns3:TrackPointExtension>
        </extensions>
      </trkpt>
      <trkpt lat="45.32744206488132476806640625" lon="-70.918422751128673553466796875">
        <ele>605</ele>
        <time>2026-08-21T16:58:26.000Z</time>
        <extensions>
          <ns3:TrackPointExtension>
            <ns3:hr>130</ns3:hr>
            <ns3:cad>41</ns3:cad>
          </ns3:TrackPointExtension>
        </extensions>
      </trkpt>
      <trkpt lat="45.32742538489401340484619140625" lon="-70.91844655573368072509765625">
        <ele>605.20001220703125</ele>
        <time>2026-08-21T16:58:27.000Z</time>
        <extensions>
          <ns3:TrackPointExtension>
            <ns3:hr>130</ns3:hr>
            <ns3:cad>81</ns3:cad>
          </ns3:TrackPointExtension>
        </extensions>
      </trkpt>
      <trkpt lat="45.3274100460112094879150390625" lon="-70.9184753894805908203125">
        <ele>605.20001220703125</ele>
        <time>2026-08-21T16:58:28.000Z</time>
        <extensions>
          <ns3:TrackPointExtension>
            <ns3:hr>131</ns3:hr>
            <ns3:cad>81</ns3:cad>
          </ns3:TrackPointExtension>
        </extensions>
      </trkpt>
      <trkpt lat="45.3273936174809932708740234375" lon="-70.91849760152399539947509765625">
        <ele>605.4000244140625</ele>
        <time>2026-08-21T16:58:29.000Z</time>
        <extensions>
          <ns3:TrackPointExtension>
            <ns3:hr>131</ns3:hr>
            <ns3:cad>82</ns3:cad>
          </ns3:TrackPointExtension>
        </extensions>
      </trkpt>
      <trkpt lat="45.32737744040787220001220703125" lon="-70.91852190904319286346435546875">
        <ele>605.4000244140625</ele>
        <time>2026-08-21T16:58:30.000Z</time>
        <extensions>
          <ns3:TrackPointExtension>
            <ns3:hr>132</ns3:hr>
            <ns3:cad>82</ns3:cad>
          </ns3:TrackPointExtension>
        </extensions>
      </trkpt>
      <trkpt lat="45.32736159861087799072265625" lon="-70.91854847967624664306640625">
        <ele>605.4000244140625</ele>
        <time>2026-08-21T16:58:31.000Z</time>
        <extensions>
          <ns3:TrackPointExtension>
            <ns3:hr>132</ns3:hr>
            <ns3:cad>82</ns3:cad>
          </ns3:TrackPointExtension>
        </extensions>
      </trkpt>
      <trkpt lat="45.327344499528408050537109375" lon="-70.91856859624385833740234375">
        <ele>605.4000244140625</ele>
        <time>2026-08-21T16:58:32.000Z</time>
        <extensions>
          <ns3:TrackPointExtension>
            <ns3:hr>132</ns3:hr>
            <ns3:cad>82</ns3:cad>
          </ns3:TrackPointExtension>
        </extensions>
      </trkpt>
      <trkpt lat="45.32732614316046237945556640625" lon="-70.91858963482081890106201171875">
        <ele>605.5999755859375</ele>
        <time>2026-08-21T16:58:33.000Z</time>
        <extensions>
          <ns3:TrackPointExtension>
            <ns3:hr>132</ns3:hr>
            <ns3:cad>82</ns3:cad>
          </ns3:TrackPointExtension>
        </extensions>
      </trkpt>
      <trkpt lat="45.32730854116380214691162109375" lon="-70.91861360706388950347900390625">
        <ele>605.5999755859375</ele>
        <time>2026-08-21T16:58:34.000Z</time>
        <extensions>
          <ns3:TrackPointExtension>
            <ns3:hr>133</ns3:hr>
            <ns3:cad>82</ns3:cad>
          </ns3:TrackPointExtension>
        </extensions>
      </trkpt>
      <trkpt lat="45.3272930346429347991943359375" lon="-70.91863322071731090545654296875">
        <ele>605.79998779296875</ele>
        <time>2026-08-21T16:58:35.000Z</time>
        <extensions>
          <ns3:TrackPointExtension>
            <ns3:hr>133</ns3:hr>
            <ns3:cad>82</ns3:cad>
          </ns3:TrackPointExtension>
        </extensions>
      </trkpt>
      <trkpt lat="45.3272719122469425201416015625" lon="-70.91865719296038150787353515625">
        <ele>605.79998779296875</ele>
        <time>2026-08-21T16:58:36.000Z</time>
        <extensions>
          <ns3:TrackPointExtension>
            <ns3:hr>134</ns3:hr>
            <ns3:cad>82</ns3:cad>
          </ns3:TrackPointExtension>
        </extensions>
      </trkpt>
      <trkpt lat="45.3272548131644725799560546875" lon="-70.91867898590862751007080078125">
        <ele>606</ele>
        <time>2026-08-21T16:58:37.000Z</time>
        <extensions>
          <ns3:TrackPointExtension>
            <ns3:hr>134</ns3:hr>
            <ns3:cad>82</ns3:cad>
          </ns3:TrackPointExtension>
        </extensions>
      </trkpt>
      <trkpt lat="45.32723796553909778594970703125" lon="-70.91870128177106380462646484375">
        <ele>606</ele>
        <time>2026-08-21T16:58:38.000Z</time>
        <extensions>
          <ns3:TrackPointExtension>
            <ns3:hr>135</ns3:hr>
            <ns3:cad>82</ns3:cad>
          </ns3:TrackPointExtension>
        </extensions>
      </trkpt>
      <trkpt lat="45.32722053118050098419189453125" lon="-70.918722487986087799072265625">
        <ele>606</ele>
        <time>2026-08-21T16:58:39.000Z</time>
        <extensions>
          <ns3:TrackPointExtension>
            <ns3:hr>136</ns3:hr>
            <ns3:cad>82</ns3:cad>
          </ns3:TrackPointExtension>
        </extensions>
      </trkpt>
      <trkpt lat="45.32720427028834819793701171875" lon="-70.91874428093433380126953125">
        <ele>606</ele>
        <time>2026-08-21T16:58:40.000Z</time>
        <extensions>
          <ns3:TrackPointExtension>
            <ns3:hr>136</ns3:hr>
            <ns3:cad>82</ns3:cad>
          </ns3:TrackPointExtension>
        </extensions>
      </trkpt>
      <trkpt lat="45.3271879255771636962890625" lon="-70.9187581948935985565185546875">
        <ele>606.20001220703125</ele>
        <time>2026-08-21T16:58:41.000Z</time>
        <extensions>
          <ns3:TrackPointExtension>
            <ns3:hr>137</ns3:hr>
            <ns3:cad>82</ns3:cad>
          </ns3:TrackPointExtension>
        </extensions>
      </trkpt>
      <trkpt lat="45.32717116177082061767578125" lon="-70.9187816642224788665771484375">
        <ele>606.20001220703125</ele>
        <time>2026-08-21T16:58:42.000Z</time>
        <extensions>
          <ns3:TrackPointExtension>
            <ns3:hr>137</ns3:hr>
            <ns3:cad>82</ns3:cad>
          </ns3:TrackPointExtension>
        </extensions>
      </trkpt>
      <trkpt lat="45.327157080173492431640625" lon="-70.9188044629991054534912109375">
        <ele>606.20001220703125</ele>
        <time>2026-08-21T16:58:43.000Z</time>
        <extensions>
          <ns3:TrackPointExtension>
            <ns3:hr>138</ns3:hr>
            <ns3:cad>82</ns3:cad>
          </ns3:TrackPointExtension>
        </extensions>
      </trkpt>
      <trkpt lat="45.32714568078517913818359375" lon="-70.918821729719638824462890625">
        <ele>606.4000244140625</ele>
        <time>2026-08-21T16:58:44.000Z</time>
        <extensions>
          <ns3:TrackPointExtension>
            <ns3:hr>138</ns3:hr>
            <ns3:cad>82</ns3:cad>
          </ns3:TrackPointExtension>
        </extensions>
      </trkpt>
      <trkpt lat="45.32712983898818492889404296875" lon="-70.91884461231529712677001953125">
        <ele>606.5999755859375</ele>
        <time>2026-08-21T16:58:45.000Z</time>
        <extensions>
          <ns3:TrackPointExtension>
            <ns3:hr>138</ns3:hr>
            <ns3:cad>82</ns3:cad>
          </ns3:TrackPointExtension>
        </extensions>
      </trkpt>
      <trkpt lat="45.3271123208105564117431640625" lon="-70.91886389069259166717529296875">
        <ele>606.5999755859375</ele>
        <time>2026-08-21T16:58:46.000Z</time>
        <extensions>
          <ns3:TrackPointExtension>
            <ns3:hr>138</ns3:hr>
            <ns3:cad>82</ns3:cad>
          </ns3:TrackPointExtension>
        </extensions>
      </trkpt>
      <trkpt lat="45.3270982392132282257080078125" lon="-70.91888241469860076904296875">
        <ele>606.5999755859375</ele>
        <time>2026-08-21T16:58:47.000Z</time>
        <extensions>
          <ns3:TrackPointExtension>
            <ns3:hr>139</ns3:hr>
            <ns3:cad>82</ns3:cad>
          </ns3:TrackPointExtension>
        </extensions>
      </trkpt>
      <trkpt lat="45.3270821459591388702392578125" lon="-70.91891032643616199493408203125">
        <ele>606.79998779296875</ele>
        <time>2026-08-21T16:58:48.000Z</time>
        <extensions>
          <ns3:TrackPointExtension>
            <ns3:hr>139</ns3:hr>
            <ns3:cad>82</ns3:cad>
          </ns3:TrackPointExtension>
        </extensions>
      </trkpt>
      <trkpt lat="45.327068902552127838134765625" lon="-70.918929018080234527587890625">
        <ele>606.79998779296875</ele>
        <time>2026-08-21T16:58:49.000Z</time>
        <extensions>
          <ns3:TrackPointExtension>
            <ns3:hr>139</ns3:hr>
            <ns3:cad>82</ns3:cad>
          </ns3:TrackPointExtension>
        </extensions>
      </trkpt>
      <trkpt lat="45.3270586766302585601806640625" lon="-70.91894988901913166046142578125">
        <ele>606.79998779296875</ele>
        <time>2026-08-21T16:58:50.000Z</time>
        <extensions>
          <ns3:TrackPointExtension>
            <ns3:hr>139</ns3:hr>
            <ns3:cad>82</ns3:cad>
          </ns3:TrackPointExtension>
        </extensions>
      </trkpt>
      <trkpt lat="45.32704534940421581268310546875" lon="-70.91897620819509029388427734375">
        <ele>607</ele>
        <time>2026-08-21T16:58:51.000Z</time>
        <extensions>
          <ns3:TrackPointExtension>
            <ns3:hr>139</ns3:hr>
            <ns3:cad>82</ns3:cad>
          </ns3:TrackPointExtension>
        </extensions>
      </trkpt>
      <trkpt lat="45.3270335309207439422607421875" lon="-70.91899699531495571136474609375">
        <ele>607</ele>
        <time>2026-08-21T16:58:52.000Z</time>
        <extensions>
          <ns3:TrackPointExtension>
            <ns3:hr>140</ns3:hr>
            <ns3:cad>82</ns3:cad>
          </ns3:TrackPointExtension>
        </extensions>
      </trkpt>
      <trkpt lat="45.3270197845995426177978515625" lon="-70.919016860425472259521484375">
        <ele>607</ele>
        <time>2026-08-21T16:58:53.000Z</time>
        <extensions>
          <ns3:TrackPointExtension>
            <ns3:hr>140</ns3:hr>
            <ns3:cad>82</ns3:cad>
          </ns3:TrackPointExtension>
        </extensions>
      </trkpt>
      <trkpt lat="45.3270073793828487396240234375" lon="-70.91904074884951114654541015625">
        <ele>607.20001220703125</ele>
        <time>2026-08-21T16:58:54.000Z</time>
        <extensions>
          <ns3:TrackPointExtension>
            <ns3:hr>140</ns3:hr>
            <ns3:cad>79</ns3:cad>
          </ns3:TrackPointExtension>
        </extensions>
      </trkpt>
      <trkpt lat="45.3269956447184085845947265625" lon="-70.919065140187740325927734375">
        <ele>607.20001220703125</ele>
        <time>2026-08-21T16:58:55.000Z</time>
        <extensions>
          <ns3:TrackPointExtension>
            <ns3:hr>140</ns3:hr>
            <ns3:cad>80</ns3:cad>
          </ns3:TrackPointExtension>
        </extensions>
      </trkpt>
      <trkpt lat="45.32698717899620532989501953125" lon="-70.919084250926971435546875">
        <ele>607.20001220703125</ele>
        <time>2026-08-21T16:58:56.000Z</time>
        <extensions>
          <ns3:TrackPointExtension>
            <ns3:hr>139</ns3:hr>
            <ns3:cad>80</ns3:cad>
          </ns3:TrackPointExtension>
        </extensions>
      </trkpt>
      <trkpt lat="45.32697846181690692901611328125" lon="-70.91910545714199542999267578125">
        <ele>607.20001220703125</ele>
        <time>2026-08-21T16:58:57.000Z</time>
        <extensions>
          <ns3:TrackPointExtension>
            <ns3:hr>140</ns3:hr>
            <ns3:cad>80</ns3:cad>
          </ns3:TrackPointExtension>
        </extensions>
      </trkpt>
      <trkpt lat="45.3269698284566402435302734375" lon="-70.919130183756351470947265625">
        <ele>607.20001220703125</ele>
        <time>2026-08-21T16:58:58.000Z</time>
        <extensions>
          <ns3:TrackPointExtension>
            <ns3:hr>140</ns3:hr>
            <ns3:cad>80</ns3:cad>
          </ns3:TrackPointExtension>
        </extensions>
      </trkpt>
      <trkpt lat="45.32695968635380268096923828125" lon="-70.91915172524750232696533203125">
        <ele>607.4000244140625</ele>
        <time>2026-08-21T16:58:59.000Z</time>
        <extensions>
          <ns3:TrackPointExtension>
            <ns3:hr>140</ns3:hr>
            <ns3:cad>60</ns3:cad>
          </ns3:TrackPointExtension>
        </extensions>
      </trkpt>
      <trkpt lat="45.32695046626031398773193359375" lon="-70.91917938552796840667724609375">
        <ele>607.4000244140625</ele>
        <time>2026-08-21T16:59:00.000Z</time>
        <extensions>
          <ns3:TrackPointExtension>
            <ns3:hr>140</ns3:hr>
            <ns3:cad>59</ns3:cad>
          </ns3:TrackPointExtension>
        </extensions>
      </trkpt>
      <trkpt lat="45.3269463591277599334716796875" lon="-70.91919933445751667022705078125">
        <ele>607.4000244140625</ele>
        <time>2026-08-21T16:59:01.000Z</time>
        <extensions>
          <ns3:TrackPointExtension>
            <ns3:hr>140</ns3:hr>
            <ns3:cad>59</ns3:cad>
          </ns3:TrackPointExtension>
        </extensions>
      </trkpt>
      <trkpt lat="45.3269396536052227020263671875" lon="-70.919219367206096649169921875">
        <ele>607.5999755859375</ele>
        <time>2026-08-21T16:59:02.000Z</time>
        <extensions>
          <ns3:TrackPointExtension>
            <ns3:hr>141</ns3:hr>
            <ns3:cad>59</ns3:cad>
          </ns3:TrackPointExtension>
        </extensions>
      </trkpt>
      <trkpt lat="45.3269342891871929168701171875" lon="-70.91924292035400867462158203125">
        <ele>607.5999755859375</ele>
        <time>2026-08-21T16:59:03.000Z</time>
        <extensions>
          <ns3:TrackPointExtension>
            <ns3:hr>141</ns3:hr>
            <ns3:cad>59</ns3:cad>
          </ns3:TrackPointExtension>
        </extensions>
      </trkpt>
      <trkpt lat="45.32692951150238513946533203125" lon="-70.91926597058773040771484375">
        <ele>607.79998779296875</ele>
        <time>2026-08-21T16:59:04.000Z</time>
        <extensions>
          <ns3:TrackPointExtension>
            <ns3:hr>141</ns3:hr>
            <ns3:cad>59</ns3:cad>
          </ns3:TrackPointExtension>
        </extensions>
      </trkpt>
      <trkpt lat="45.32692599110305309295654296875" lon="-70.91928876936435699462890625">
        <ele>607.79998779296875</ele>
        <time>2026-08-21T16:59:05.000Z</time>
        <extensions>
          <ns3:TrackPointExtension>
            <ns3:hr>142</ns3:hr>
            <ns3:cad>59</ns3:cad>
          </ns3:TrackPointExtension>
        </extensions>
      </trkpt>
      <trkpt lat="45.3269202075898647308349609375" lon="-70.91931466944515705108642578125">
        <ele>607.79998779296875</ele>
        <time>2026-08-21T16:59:06.000Z</time>
        <extensions>
          <ns3:TrackPointExtension>
            <ns3:hr>143</ns3:hr>
            <ns3:cad>59</ns3:cad>
          </ns3:TrackPointExtension>
        </extensions>
      </trkpt>
      <trkpt lat="45.32691274769604206085205078125" lon="-70.9193341992795467376708984375">
        <ele>607.79998779296875</ele>
        <time>2026-08-21T16:59:07.000Z</time>
        <extensions>
          <ns3:TrackPointExtension>
            <ns3:hr>144</ns3:hr>
            <ns3:cad>59</ns3:cad>
          </ns3:TrackPointExtension>
        </extensions>
      </trkpt>
      <trkpt lat="45.3269074670970439910888671875" lon="-70.919352807104587554931640625">
        <ele>608</ele>
        <time>2026-08-21T16:59:08.000Z</time>
        <extensions>
          <ns3:TrackPointExtension>
            <ns3:hr>144</ns3:hr>
            <ns3:cad>59</ns3:cad>
          </ns3:TrackPointExtension>
        </extensions>
      </trkpt>
      <trkpt lat="45.3269010968506336212158203125" lon="-70.91936714015901088714599609375">
        <ele>608</ele>
        <time>2026-08-21T16:59:09.000Z</time>
        <extensions>
          <ns3:TrackPointExtension>
            <ns3:hr>144</ns3:hr>
            <ns3:cad>58</ns3:cad>
          </ns3:TrackPointExtension>
        </extensions>
      </trkpt>
      <trkpt lat="45.3268943913280963897705078125" lon="-70.91938708908855915069580078125">
        <ele>608</ele>
        <time>2026-08-21T16:59:10.000Z</time>
        <extensions>
          <ns3:TrackPointExtension>
            <ns3:hr>144</ns3:hr>
            <ns3:cad>58</ns3:cad>
          </ns3:TrackPointExtension>
        </extensions>
      </trkpt>
      <trkpt lat="45.326890535652637481689453125" lon="-70.91940703801810741424560546875">
        <ele>608.20001220703125</ele>
        <time>2026-08-21T16:59:11.000Z</time>
        <extensions>
          <ns3:TrackPointExtension>
            <ns3:hr>143</ns3:hr>
            <ns3:cad>57</ns3:cad>
          </ns3:TrackPointExtension>
        </extensions>
      </trkpt>
      <trkpt lat="45.3268880210816860198974609375" lon="-70.91942380182445049285888671875">
        <ele>608.4000244140625</ele>
        <time>2026-08-21T16:59:12.000Z</time>
        <extensions>
          <ns3:TrackPointExtension>
            <ns3:hr>143</ns3:hr>
            <ns3:cad>57</ns3:cad>
          </ns3:TrackPointExtension>
        </extensions>
      </trkpt>
      <trkpt lat="45.32688424922525882720947265625" lon="-70.919440649449825286865234375">
        <ele>608.5999755859375</ele>
        <time>2026-08-21T16:59:13.000Z</time>
        <extensions>
          <ns3:TrackPointExtension>
            <ns3:hr>143</ns3:hr>
            <ns3:cad>57</ns3:cad>
          </ns3:TrackPointExtension>
        </extensions>
      </trkpt>
      <trkpt lat="45.32688190229237079620361328125" lon="-70.9194611012935638427734375">
        <ele>608.79998779296875</ele>
        <time>2026-08-21T16:59:14.000Z</time>
        <extensions>
          <ns3:TrackPointExtension>
            <ns3:hr>142</ns3:hr>
            <ns3:cad>56</ns3:cad>
          </ns3:TrackPointExtension>
        </extensions>
      </trkpt>
      <trkpt lat="45.32688039354979991912841796875" lon="-70.91948230750858783721923828125">
        <ele>608.79998779296875</ele>
        <time>2026-08-21T16:59:15.000Z</time>
        <extensions>
          <ns3:TrackPointExtension>
            <ns3:hr>142</ns3:hr>
            <ns3:cad>56</ns3:cad>
          </ns3:TrackPointExtension>
        </extensions>
      </trkpt>
      <trkpt lat="45.32687745988368988037109375" lon="-70.91950242407619953155517578125">
        <ele>609</ele>
        <time>2026-08-21T16:59:16.000Z</time>
        <extensions>
          <ns3:TrackPointExtension>
            <ns3:hr>142</ns3:hr>
            <ns3:cad>56</ns3:cad>
          </ns3:TrackPointExtension>
        </extensions>
      </trkpt>
      <trkpt lat="45.3268741071224212646484375" lon="-70.91952371411025524139404296875">
        <ele>609.20001220703125</ele>
        <time>2026-08-21T16:59:17.000Z</time>
        <extensions>
          <ns3:TrackPointExtension>
            <ns3:hr>141</ns3:hr>
            <ns3:cad>57</ns3:cad>
          </ns3:TrackPointExtension>
        </extensions>
      </trkpt>
      <trkpt lat="45.32687268219888210296630859375" lon="-70.91954617761075496673583984375">
        <ele>609.20001220703125</ele>
        <time>2026-08-21T16:59:18.000Z</time>
        <extensions>
          <ns3:TrackPointExtension>
            <ns3:hr>141</ns3:hr>
            <ns3:cad>57</ns3:cad>
          </ns3:TrackPointExtension>
        </extensions>
      </trkpt>
      <trkpt lat="45.3268679045140743255615234375" lon="-70.9195712395012378692626953125">
        <ele>609.20001220703125</ele>
        <time>2026-08-21T16:59:19.000Z</time>
        <extensions>
          <ns3:TrackPointExtension>
            <ns3:hr>141</ns3:hr>
            <ns3:cad>57</ns3:cad>
          </ns3:TrackPointExtension>
        </extensions>
      </trkpt>
      <trkpt lat="45.3268655575811862945556640625" lon="-70.919593535363674163818359375">
        <ele>609.20001220703125</ele>
        <time>2026-08-21T16:59:20.000Z</time>
        <extensions>
          <ns3:TrackPointExtension>
            <ns3:hr>141</ns3:hr>
            <ns3:cad>57</ns3:cad>
          </ns3:TrackPointExtension>
        </extensions>
      </trkpt>
      <trkpt lat="45.326862372457981109619140625" lon="-70.91961742378771305084228515625">
        <ele>609.20001220703125</ele>
        <time>2026-08-21T16:59:21.000Z</time>
        <extensions>
          <ns3:TrackPointExtension>
            <ns3:hr>141</ns3:hr>
            <ns3:cad>57</ns3:cad>
          </ns3:TrackPointExtension>
        </extensions>
      </trkpt>
      <trkpt lat="45.32686178572475910186767578125" lon="-70.9196456708014011383056640625">
        <ele>609.20001220703125</ele>
        <time>2026-08-21T16:59:22.000Z</time>
        <extensions>
          <ns3:TrackPointExtension>
            <ns3:hr>141</ns3:hr>
            <ns3:cad>57</ns3:cad>
          </ns3:TrackPointExtension>
        </extensions>
      </trkpt>
      <trkpt lat="45.3268601931631565093994140625" lon="-70.91967366635799407958984375">
        <ele>609.20001220703125</ele>
        <time>2026-08-21T16:59:23.000Z</time>
        <extensions>
          <ns3:TrackPointExtension>
            <ns3:hr>140</ns3:hr>
            <ns3:cad>57</ns3:cad>
          </ns3:TrackPointExtension>
        </extensions>
      </trkpt>
      <trkpt lat="45.32685625366866588592529296875" lon="-70.91970358975231647491455078125">
        <ele>609.20001220703125</ele>
        <time>2026-08-21T16:59:24.000Z</time>
        <extensions>
          <ns3:TrackPointExtension>
            <ns3:hr>140</ns3:hr>
            <ns3:cad>57</ns3:cad>
          </ns3:TrackPointExtension>
        </extensions>
      </trkpt>
      <trkpt lat="45.32685197889804840087890625" lon="-70.919738374650478363037109375">
        <ele>609.20001220703125</ele>
        <time>2026-08-21T16:59:25.000Z</time>
        <extensions>
          <ns3:TrackPointExtension>
            <ns3:hr>140</ns3:hr>
            <ns3:cad>57</ns3:cad>
          </ns3:TrackPointExtension>
        </extensions>
      </trkpt>
      <trkpt lat="45.3268484584987163543701171875" lon="-70.91977248899638652801513671875">
        <ele>609.20001220703125</ele>
        <time>2026-08-21T16:59:26.000Z</time>
        <extensions>
          <ns3:TrackPointExtension>
            <ns3:hr>140</ns3:hr>
            <ns3:cad>57</ns3:cad>
          </ns3:TrackPointExtension>
        </extensions>
      </trkpt>
      <trkpt lat="45.32684384845197200775146484375" lon="-70.91980232857167720794677734375">
        <ele>609.20001220703125</ele>
        <time>2026-08-21T16:59:27.000Z</time>
        <extensions>
          <ns3:TrackPointExtension>
            <ns3:hr>139</ns3:hr>
            <ns3:cad>79</ns3:cad>
          </ns3:TrackPointExtension>
        </extensions>
      </trkpt>
      <trkpt lat="45.32683295197784900665283203125" lon="-70.91983803547918796539306640625">
        <ele>609.20001220703125</ele>
        <time>2026-08-21T16:59:28.000Z</time>
        <extensions>
          <ns3:TrackPointExtension>
            <ns3:hr>139</ns3:hr>
            <ns3:cad>79</ns3:cad>
          </ns3:TrackPointExtension>
        </extensions>
      </trkpt>
      <trkpt lat="45.3268236480653285980224609375" lon="-70.91987080872058868408203125">
        <ele>609.20001220703125</ele>
        <time>2026-08-21T16:59:29.000Z</time>
        <extensions>
          <ns3:TrackPointExtension>
            <ns3:hr>138</ns3:hr>
            <ns3:cad>79</ns3:cad>
          </ns3:TrackPointExtension>
        </extensions>
      </trkpt>
      <trkpt lat="45.32681576907634735107421875" lon="-70.919897295534610748291015625">
        <ele>609.4000244140625</ele>
        <time>2026-08-21T16:59:30.000Z</time>
        <extensions>
          <ns3:TrackPointExtension>
            <ns3:hr>138</ns3:hr>
            <ns3:cad>79</ns3:cad>
          </ns3:TrackPointExtension>
        </extensions>
      </trkpt>
      <trkpt lat="45.3268025256693363189697265625" lon="-70.9199273027479648590087890625">
        <ele>609.4000244140625</ele>
        <time>2026-08-21T16:59:31.000Z</time>
        <extensions>
          <ns3:TrackPointExtension>
            <ns3:hr>138</ns3:hr>
            <ns3:cad>79</ns3:cad>
          </ns3:TrackPointExtension>
        </extensions>
      </trkpt>
      <trkpt lat="45.32679028809070587158203125" lon="-70.919958986341953277587890625">
        <ele>609.4000244140625</ele>
        <time>2026-08-21T16:59:32.000Z</time>
        <extensions>
          <ns3:TrackPointExtension>
            <ns3:hr>138</ns3:hr>
            <ns3:cad>82</ns3:cad>
          </ns3:TrackPointExtension>
        </extensions>
      </trkpt>
      <trkpt lat="45.3267802298069000244140625" lon="-70.91998388059437274932861328125">
        <ele>609.5999755859375</ele>
        <time>2026-08-21T16:59:33.000Z</time>
        <extensions>
          <ns3:TrackPointExtension>
            <ns3:hr>138</ns3:hr>
            <ns3:cad>82</ns3:cad>
          </ns3:TrackPointExtension>
        </extensions>
      </trkpt>
      <trkpt lat="45.32676690258085727691650390625" lon="-70.92001237906515598297119140625">
        <ele>609.79998779296875</ele>
        <time>2026-08-21T16:59:34.000Z</time>
        <extensions>
          <ns3:TrackPointExtension>
            <ns3:hr>138</ns3:hr>
            <ns3:cad>82</ns3:cad>
          </ns3:TrackPointExtension>
        </extensions>
      </trkpt>
      <trkpt lat="45.3267505578696727752685546875" lon="-70.9200443141162395477294921875">
        <ele>609.79998779296875</ele>
        <time>2026-08-21T16:59:35.000Z</time>
        <extensions>
          <ns3:TrackPointExtension>
            <ns3:hr>138</ns3:hr>
            <ns3:cad>82</ns3:cad>
          </ns3:TrackPointExtension>
        </extensions>
      </trkpt>
      <trkpt lat="45.326737649738788604736328125" lon="-70.92006837017834186553955078125">
        <ele>610</ele>
        <time>2026-08-21T16:59:36.000Z</time>
        <extensions>
          <ns3:TrackPointExtension>
            <ns3:hr>138</ns3:hr>
            <ns3:cad>82</ns3:cad>
          </ns3:TrackPointExtension>
        </extensions>
      </trkpt>
      <trkpt lat="45.3267203830182552337646484375" lon="-70.92009385116398334503173828125">
        <ele>610</ele>
        <time>2026-08-21T16:59:37.000Z</time>
        <extensions>
          <ns3:TrackPointExtension>
            <ns3:hr>138</ns3:hr>
            <ns3:cad>82</ns3:cad>
          </ns3:TrackPointExtension>
        </extensions>
      </trkpt>
      <trkpt lat="45.32670521177351474761962890625" lon="-70.9201182425022125244140625">
        <ele>610</ele>
        <time>2026-08-21T16:59:38.000Z</time>
        <extensions>
          <ns3:TrackPointExtension>
            <ns3:hr>138</ns3:hr>
            <ns3:cad>82</ns3:cad>
          </ns3:TrackPointExtension>
        </extensions>
      </trkpt>
      <trkpt lat="45.32669297419488430023193359375" lon="-70.92014263384044170379638671875">
        <ele>610.20001220703125</ele>
        <time>2026-08-21T16:59:39.000Z</time>
        <extensions>
          <ns3:TrackPointExtension>
            <ns3:hr>138</ns3:hr>
            <ns3:cad>82</ns3:cad>
          </ns3:TrackPointExtension>
        </extensions>
      </trkpt>
      <trkpt lat="45.32667897641658782958984375" lon="-70.9201673604547977447509765625">
        <ele>610.20001220703125</ele>
        <time>2026-08-21T16:59:40.000Z</time>
        <extensions>
          <ns3:TrackPointExtension>
            <ns3:hr>138</ns3:hr>
            <ns3:cad>82</ns3:cad>
          </ns3:TrackPointExtension>
        </extensions>
      </trkpt>
      <trkpt lat="45.3266640566289424896240234375" lon="-70.92018906958401203155517578125">
        <ele>610.4000244140625</ele>
        <time>2026-08-21T16:59:41.000Z</time>
        <extensions>
          <ns3:TrackPointExtension>
            <ns3:hr>139</ns3:hr>
            <ns3:cad>82</ns3:cad>
          </ns3:TrackPointExtension>
        </extensions>
      </trkpt>
      <trkpt lat="45.3266499750316143035888671875" lon="-70.9202139638364315032958984375">
        <ele>610.4000244140625</ele>
        <time>2026-08-21T16:59:42.000Z</time>
        <extensions>
          <ns3:TrackPointExtension>
            <ns3:hr>138</ns3:hr>
            <ns3:cad>82</ns3:cad>
          </ns3:TrackPointExtension>
        </extensions>
      </trkpt>
      <trkpt lat="45.32663631252944469451904296875" lon="-70.92023818753659725189208984375">
        <ele>610.4000244140625</ele>
        <time>2026-08-21T16:59:43.000Z</time>
        <extensions>
          <ns3:TrackPointExtension>
            <ns3:hr>138</ns3:hr>
            <ns3:cad>82</ns3:cad>
          </ns3:TrackPointExtension>
        </extensions>
      </trkpt>
      <trkpt lat="45.3266246616840362548828125" lon="-70.92025310732424259185791015625">
        <ele>610.5999755859375</ele>
        <time>2026-08-21T16:59:44.000Z</time>
        <extensions>
          <ns3:TrackPointExtension>
            <ns3:hr>138</ns3:hr>
            <ns3:cad>40</ns3:cad>
          </ns3:TrackPointExtension>
        </extensions>
      </trkpt>
      <trkpt lat="45.3266110830008983612060546875" lon="-70.92027984559535980224609375">
        <ele>610.5999755859375</ele>
        <time>2026-08-21T16:59:45.000Z</time>
        <extensions>
          <ns3:TrackPointExtension>
            <ns3:hr>139</ns3:hr>
            <ns3:cad>40</ns3:cad>
          </ns3:TrackPointExtension>
        </extensions>
      </trkpt>
      <trkpt lat="45.32660253345966339111328125" lon="-70.92030800879001617431640625">
        <ele>610.5999755859375</ele>
        <time>2026-08-21T16:59:46.000Z</time>
        <extensions>
          <ns3:TrackPointExtension>
            <ns3:hr>138</ns3:hr>
            <ns3:cad>40</ns3:cad>
          </ns3:TrackPointExtension>
        </extensions>
      </trkpt>
      <trkpt lat="45.32659037970006465911865234375" lon="-70.92033055610954761505126953125">
        <ele>610.5999755859375</ele>
        <time>2026-08-21T16:59:47.000Z</time>
        <extensions>
          <ns3:TrackPointExtension>
            <ns3:hr>139</ns3:hr>
            <ns3:cad>40</ns3:cad>
          </ns3:TrackPointExtension>
        </extensions>
      </trkpt>
      <trkpt lat="45.3265765495598316192626953125" lon="-70.9203561209142208099365234375">
        <ele>610.5999755859375</ele>
        <time>2026-08-21T16:59:48.000Z</time>
        <extensions>
          <ns3:TrackPointExtension>
            <ns3:hr>139</ns3:hr>
            <ns3:cad>40</ns3:cad>
          </ns3:TrackPointExtension>
        </extensions>
      </trkpt>
      <trkpt lat="45.326562635600566864013671875" lon="-70.92038118280470371246337890625">
        <ele>610.5999755859375</ele>
        <time>2026-08-21T16:59:49.000Z</time>
        <extensions>
          <ns3:TrackPointExtension>
            <ns3:hr>139</ns3:hr>
            <ns3:cad>40</ns3:cad>
          </ns3:TrackPointExtension>
        </extensions>
      </trkpt>
      <trkpt lat="45.32654997892677783966064453125" lon="-70.9204013831913471221923828125">
        <ele>610.79998779296875</ele>
        <time>2026-08-21T16:59:50.000Z</time>
        <extensions>
          <ns3:TrackPointExtension>
            <ns3:hr>139</ns3:hr>
            <ns3:cad>40</ns3:cad>
          </ns3:TrackPointExtension>
        </extensions>
      </trkpt>
      <trkpt lat="45.32653505913913249969482421875" lon="-70.92042644508183002471923828125">
        <ele>610.79998779296875</ele>
        <time>2026-08-21T16:59:51.000Z</time>
        <extensions>
          <ns3:TrackPointExtension>
            <ns3:hr>139</ns3:hr>
            <ns3:cad>80</ns3:cad>
          </ns3:TrackPointExtension>
        </extensions>
      </trkpt>
      <trkpt lat="45.3265212289988994598388671875" lon="-70.920450501143932342529296875">
        <ele>610.79998779296875</ele>
        <time>2026-08-21T16:59:52.000Z</time>
        <extensions>
          <ns3:TrackPointExtension>
            <ns3:hr>140</ns3:hr>
            <ns3:cad>80</ns3:cad>
          </ns3:TrackPointExtension>
        </extensions>
      </trkpt>
      <trkpt lat="45.3265048004686832427978515625" lon="-70.92046894133090972900390625">
        <ele>610.79998779296875</ele>
        <time>2026-08-21T16:59:53.000Z</time>
        <extensions>
          <ns3:TrackPointExtension>
            <ns3:hr>140</ns3:hr>
            <ns3:cad>80</ns3:cad>
          </ns3:TrackPointExtension>
        </extensions>
      </trkpt>
      <trkpt lat="45.32649164088070392608642578125" lon="-70.9204883873462677001953125">
        <ele>611</ele>
        <time>2026-08-21T16:59:54.000Z</time>
        <extensions>
          <ns3:TrackPointExtension>
            <ns3:hr>140</ns3:hr>
            <ns3:cad>80</ns3:cad>
          </ns3:TrackPointExtension>
        </extensions>
      </trkpt>
      <trkpt lat="45.32647739164531230926513671875" lon="-70.920502804219722747802734375">
        <ele>611</ele>
        <time>2026-08-21T16:59:55.000Z</time>
        <extensions>
          <ns3:TrackPointExtension>
            <ns3:hr>140</ns3:hr>
            <ns3:cad>80</ns3:cad>
          </ns3:TrackPointExtension>
        </extensions>
      </trkpt>
      <trkpt lat="45.326461382210254669189453125" lon="-70.92051579616963863372802734375">
        <ele>611</ele>
        <time>2026-08-21T16:59:56.000Z</time>
        <extensions>
          <ns3:TrackPointExtension>
            <ns3:hr>140</ns3:hr>
            <ns3:cad>80</ns3:cad>
          </ns3:TrackPointExtension>
        </extensions>
      </trkpt>
      <trkpt lat="45.32644922845065593719482421875" lon="-70.9205274470150470733642578125">
        <ele>611</ele>
        <time>2026-08-21T16:59:57.000Z</time>
        <extensions>
          <ns3:TrackPointExtension>
            <ns3:hr>140</ns3:hr>
            <ns3:cad>80</ns3:cad>
          </ns3:TrackPointExtension>
        </extensions>
      </trkpt>
      <trkpt lat="45.3264357335865497589111328125" lon="-70.92054245062172412872314453125">
        <ele>611</ele>
        <time>2026-08-21T16:59:58.000Z</time>
        <extensions>
          <ns3:TrackPointExtension>
            <ns3:hr>140</ns3:hr>
            <ns3:cad>80</ns3:cad>
          </ns3:TrackPointExtension>
        </extensions>
      </trkpt>
      <trkpt lat="45.3264216519892215728759765625" lon="-70.9205582924187183380126953125">
        <ele>611</ele>
        <time>2026-08-21T16:59:59.000Z</time>
        <extensions>
          <ns3:TrackPointExtension>
            <ns3:hr>140</ns3:hr>
            <ns3:cad>80</ns3:cad>
          </ns3:TrackPointExtension>
        </extensions>
      </trkpt>
      <trkpt lat="45.3264112584292888641357421875" lon="-70.92056927271187305450439453125">
        <ele>611</ele>
        <time>2026-08-21T17:00:00.000Z</time>
        <extensions>
          <ns3:TrackPointExtension>
            <ns3:hr>141</ns3:hr>
            <ns3:cad>80</ns3:cad>
          </ns3:TrackPointExtension>
        </extensions>
      </trkpt>
      <trkpt lat="45.32639801502227783203125" lon="-70.920581929385662078857421875">
        <ele>611.20001220703125</ele>
        <time>2026-08-21T17:00:01.000Z</time>
        <extensions>
          <ns3:TrackPointExtension>
            <ns3:hr>141</ns3:hr>
            <ns3:cad>57</ns3:cad>
          </ns3:TrackPointExtension>
        </extensions>
      </trkpt>
      <trkpt lat="45.32638452015817165374755859375" lon="-70.9205941669642925262451171875">
        <ele>611.20001220703125</ele>
        <time>2026-08-21T17:00:02.000Z</time>
        <extensions>
          <ns3:TrackPointExtension>
            <ns3:hr>141</ns3:hr>
            <ns3:cad>57</ns3:cad>
          </ns3:TrackPointExtension>
        </extensions>
      </trkpt>
      <trkpt lat="45.32637312076985836029052734375" lon="-70.92061051167547702789306640625">
        <ele>611.4000244140625</ele>
        <time>2026-08-21T17:00:03.000Z</time>
        <extensions>
          <ns3:TrackPointExtension>
            <ns3:hr>140</ns3:hr>
            <ns3:cad>57</ns3:cad>
          </ns3:TrackPointExtension>
        </extensions>
      </trkpt>
      <trkpt lat="45.32636054791510105133056640625" lon="-70.92062476091086864471435546875">
        <ele>611.4000244140625</ele>
        <time>2026-08-21T17:00:04.000Z</time>
        <extensions>
          <ns3:TrackPointExtension>
            <ns3:hr>141</ns3:hr>
            <ns3:cad>57</ns3:cad>
          </ns3:TrackPointExtension>
        </extensions>
      </trkpt>
      <trkpt lat="45.326350741088390350341796875" lon="-70.9206374175846576690673828125">
        <ele>611.4000244140625</ele>
        <time>2026-08-21T17:00:05.000Z</time>
        <extensions>
          <ns3:TrackPointExtension>
            <ns3:hr>141</ns3:hr>
            <ns3:cad>57</ns3:cad>
          </ns3:TrackPointExtension>
        </extensions>
      </trkpt>
      <trkpt lat="45.32633556984364986419677734375" lon="-70.92065510340034961700439453125">
        <ele>611.4000244140625</ele>
        <time>2026-08-21T17:00:06.000Z</time>
        <extensions>
          <ns3:TrackPointExtension>
            <ns3:hr>141</ns3:hr>
            <ns3:cad>57</ns3:cad>
          </ns3:TrackPointExtension>
        </extensions>
      </trkpt>
      <trkpt lat="45.32632232643663883209228515625" lon="-70.92067169956862926483154296875">
        <ele>611.5999755859375</ele>
        <time>2026-08-21T17:00:07.000Z</time>
        <extensions>
          <ns3:TrackPointExtension>
            <ns3:hr>140</ns3:hr>
            <ns3:cad>57</ns3:cad>
          </ns3:TrackPointExtension>
        </extensions>
      </trkpt>
      <trkpt lat="45.32631109468638896942138671875" lon="-70.9206880442798137664794921875">
        <ele>611.5999755859375</ele>
        <time>2026-08-21T17:00:08.000Z</time>
        <extensions>
          <ns3:TrackPointExtension>
            <ns3:hr>140</ns3:hr>
            <ns3:cad>57</ns3:cad>
          </ns3:TrackPointExtension>
        </extensions>
      </trkpt>
      <trkpt lat="45.326298773288726806640625" lon="-70.920706652104854583740234375">
        <ele>611.79998779296875</ele>
        <time>2026-08-21T17:00:09.000Z</time>
        <extensions>
          <ns3:TrackPointExtension>
            <ns3:hr>139</ns3:hr>
            <ns3:cad>57</ns3:cad>
          </ns3:TrackPointExtension>
        </extensions>
      </trkpt>
      <trkpt lat="45.32628561370074748992919921875" lon="-70.92072375118732452392578125">
        <ele>611.79998779296875</ele>
        <time>2026-08-21T17:00:10.000Z</time>
        <extensions>
          <ns3:TrackPointExtension>
            <ns3:hr>139</ns3:hr>
            <ns3:cad>57</ns3:cad>
          </ns3:TrackPointExtension>
        </extensions>
      </trkpt>
      <trkpt lat="45.32627203501760959625244140625" lon="-70.9207383356988430023193359375">
        <ele>611.79998779296875</ele>
        <time>2026-08-21T17:00:11.000Z</time>
        <extensions>
          <ns3:TrackPointExtension>
            <ns3:hr>140</ns3:hr>
            <ns3:cad>57</ns3:cad>
          </ns3:TrackPointExtension>
        </extensions>
      </trkpt>
      <trkpt lat="45.32625996507704257965087890625" lon="-70.92075300402939319610595703125">
        <ele>612</ele>
        <time>2026-08-21T17:00:12.000Z</time>
        <extensions>
          <ns3:TrackPointExtension>
            <ns3:hr>140</ns3:hr>
            <ns3:cad>57</ns3:cad>
          </ns3:TrackPointExtension>
        </extensions>
      </trkpt>
      <trkpt lat="45.32624906860291957855224609375" lon="-70.9207664988934993743896484375">
        <ele>612</ele>
        <time>2026-08-21T17:00:13.000Z</time>
        <extensions>
          <ns3:TrackPointExtension>
            <ns3:hr>140</ns3:hr>
            <ns3:cad>57</ns3:cad>
          </ns3:TrackPointExtension>
        </extensions>
      </trkpt>
      <trkpt lat="45.32623934559524059295654296875" lon="-70.920777060091495513916015625">
        <ele>612.20001220703125</ele>
        <time>2026-08-21T17:00:14.000Z</time>
        <extensions>
          <ns3:TrackPointExtension>
            <ns3:hr>139</ns3:hr>
            <ns3:cad>57</ns3:cad>
          </ns3:TrackPointExtension>
        </extensions>
      </trkpt>
      <trkpt lat="45.326230712234973907470703125" lon="-70.92079441063106060028076171875">
        <ele>612.20001220703125</ele>
        <time>2026-08-21T17:00:15.000Z</time>
        <extensions>
          <ns3:TrackPointExtension>
            <ns3:hr>139</ns3:hr>
            <ns3:cad>57</ns3:cad>
          </ns3:TrackPointExtension>
        </extensions>
      </trkpt>
      <trkpt lat="45.32622207887470722198486328125" lon="-70.92081452719867229461669921875">
        <ele>612.20001220703125</ele>
        <time>2026-08-21T17:00:16.000Z</time>
        <extensions>
          <ns3:TrackPointExtension>
            <ns3:hr>139</ns3:hr>
            <ns3:cad>57</ns3:cad>
          </ns3:TrackPointExtension>
        </extensions>
      </trkpt>
      <trkpt lat="45.32621202059090137481689453125" lon="-70.92083162628114223480224609375">
        <ele>612.20001220703125</ele>
        <time>2026-08-21T17:00:17.000Z</time>
        <extensions>
          <ns3:TrackPointExtension>
            <ns3:hr>139</ns3:hr>
            <ns3:cad>57</ns3:cad>
          </ns3:TrackPointExtension>
        </extensions>
      </trkpt>
      <trkpt lat="45.32620363868772983551025390625" lon="-70.92084805481135845184326171875">
        <ele>612.4000244140625</ele>
        <time>2026-08-21T17:00:18.000Z</time>
        <extensions>
          <ns3:TrackPointExtension>
            <ns3:hr>139</ns3:hr>
            <ns3:cad>57</ns3:cad>
          </ns3:TrackPointExtension>
        </extensions>
      </trkpt>
      <trkpt lat="45.3261960111558437347412109375" lon="-70.920864902436733245849609375">
        <ele>612.4000244140625</ele>
        <time>2026-08-21T17:00:19.000Z</time>
        <extensions>
          <ns3:TrackPointExtension>
            <ns3:hr>140</ns3:hr>
            <ns3:cad>57</ns3:cad>
          </ns3:TrackPointExtension>
        </extensions>
      </trkpt>
      <trkpt lat="45.326186455786228179931640625" lon="-70.9208773076534271240234375">
        <ele>612.5999755859375</ele>
        <time>2026-08-21T17:00:20.000Z</time>
        <extensions>
          <ns3:TrackPointExtension>
            <ns3:hr>140</ns3:hr>
            <ns3:cad>57</ns3:cad>
          </ns3:TrackPointExtension>
        </extensions>
      </trkpt>
      <trkpt lat="45.3261779062449932098388671875" lon="-70.920891724526882171630859375">
        <ele>612.5999755859375</ele>
        <time>2026-08-21T17:00:21.000Z</time>
        <extensions>
          <ns3:TrackPointExtension>
            <ns3:hr>140</ns3:hr>
            <ns3:cad>57</ns3:cad>
          </ns3:TrackPointExtension>
        </extensions>
      </trkpt>
      <trkpt lat="45.32616608776152133941650390625" lon="-70.92090873979032039642333984375">
        <ele>612.79998779296875</ele>
        <time>2026-08-21T17:00:22.000Z</time>
        <extensions>
          <ns3:TrackPointExtension>
            <ns3:hr>140</ns3:hr>
            <ns3:cad>57</ns3:cad>
          </ns3:TrackPointExtension>
        </extensions>
      </trkpt>
      <trkpt lat="45.32615460455417633056640625" lon="-70.92092013917863368988037109375">
        <ele>612.79998779296875</ele>
        <time>2026-08-21T17:00:23.000Z</time>
        <extensions>
          <ns3:TrackPointExtension>
            <ns3:hr>140</ns3:hr>
            <ns3:cad>57</ns3:cad>
          </ns3:TrackPointExtension>
        </extensions>
      </trkpt>
      <trkpt lat="45.326148234307765960693359375" lon="-70.9209361486136913299560546875">
        <ele>613</ele>
        <time>2026-08-21T17:00:24.000Z</time>
        <extensions>
          <ns3:TrackPointExtension>
            <ns3:hr>140</ns3:hr>
            <ns3:cad>56</ns3:cad>
          </ns3:TrackPointExtension>
        </extensions>
      </trkpt>
      <trkpt lat="45.32613624818623065948486328125" lon="-70.92095433734357357025146484375">
        <ele>613.20001220703125</ele>
        <time>2026-08-21T17:00:25.000Z</time>
        <extensions>
          <ns3:TrackPointExtension>
            <ns3:hr>140</ns3:hr>
            <ns3:cad>56</ns3:cad>
          </ns3:TrackPointExtension>
        </extensions>
      </trkpt>
      <trkpt lat="45.32612652517855167388916015625" lon="-70.9209753759205341339111328125">
        <ele>613.20001220703125</ele>
        <time>2026-08-21T17:00:26.000Z</time>
        <extensions>
          <ns3:TrackPointExtension>
            <ns3:hr>140</ns3:hr>
            <ns3:cad>56</ns3:cad>
          </ns3:TrackPointExtension>
        </extensions>
      </trkpt>
      <trkpt lat="45.32611705362796783447265625" lon="-70.920995660126209259033203125">
        <ele>613.20001220703125</ele>
        <time>2026-08-21T17:00:27.000Z</time>
        <extensions>
          <ns3:TrackPointExtension>
            <ns3:hr>140</ns3:hr>
            <ns3:cad>56</ns3:cad>
          </ns3:TrackPointExtension>
        </extensions>
      </trkpt>
      <trkpt lat="45.32610624097287654876708984375" lon="-70.92101074755191802978515625">
        <ele>613.4000244140625</ele>
        <time>2026-08-21T17:00:28.000Z</time>
        <extensions>
          <ns3:TrackPointExtension>
            <ns3:hr>140</ns3:hr>
            <ns3:cad>56</ns3:cad>
          </ns3:TrackPointExtension>
        </extensions>
      </trkpt>
      <trkpt lat="45.32609148882329463958740234375" lon="-70.92103346250951290130615234375">
        <ele>613.4000244140625</ele>
        <time>2026-08-21T17:00:29.000Z</time>
        <extensions>
          <ns3:TrackPointExtension>
            <ns3:hr>140</ns3:hr>
            <ns3:cad>56</ns3:cad>
          </ns3:TrackPointExtension>
        </extensions>
      </trkpt>
      <trkpt lat="45.3260776586830615997314453125" lon="-70.921056680381298065185546875">
        <ele>613.5999755859375</ele>
        <time>2026-08-21T17:00:30.000Z</time>
        <extensions>
          <ns3:TrackPointExtension>
            <ns3:hr>140</ns3:hr>
            <ns3:cad>56</ns3:cad>
          </ns3:TrackPointExtension>
        </extensions>
      </trkpt>
      <trkpt lat="45.32606734894216060638427734375" lon="-70.921072773635387420654296875">
        <ele>613.5999755859375</ele>
        <time>2026-08-21T17:00:31.000Z</time>
        <extensions>
          <ns3:TrackPointExtension>
            <ns3:hr>140</ns3:hr>
            <ns3:cad>56</ns3:cad>
          </ns3:TrackPointExtension>
        </extensions>
      </trkpt>
      <trkpt lat="45.3260578773915767669677734375" lon="-70.92108610086143016815185546875">
        <ele>613.5999755859375</ele>
        <time>2026-08-21T17:00:32.000Z</time>
        <extensions>
          <ns3:TrackPointExtension>
            <ns3:hr>140</ns3:hr>
            <ns3:cad>56</ns3:cad>
          </ns3:TrackPointExtension>
        </extensions>
      </trkpt>
      <trkpt lat="45.32604874111711978912353515625" lon="-70.92110353522002696990966796875">
        <ele>613.79998779296875</ele>
        <time>2026-08-21T17:00:33.000Z</time>
        <extensions>
          <ns3:TrackPointExtension>
            <ns3:hr>141</ns3:hr>
            <ns3:cad>56</ns3:cad>
          </ns3:TrackPointExtension>
        </extensions>
      </trkpt>
      <trkpt lat="45.32603918574750423431396484375" lon="-70.92112750746309757232666015625">
        <ele>613.79998779296875</ele>
        <time>2026-08-21T17:00:34.000Z</time>
        <extensions>
          <ns3:TrackPointExtension>
            <ns3:hr>141</ns3:hr>
            <ns3:cad>56</ns3:cad>
          </ns3:TrackPointExtension>
        </extensions>
      </trkpt>
      <trkpt lat="45.32603147439658641815185546875" lon="-70.92114812694489955902099609375">
        <ele>613.79998779296875</ele>
        <time>2026-08-21T17:00:35.000Z</time>
        <extensions>
          <ns3:TrackPointExtension>
            <ns3:hr>140</ns3:hr>
            <ns3:cad>56</ns3:cad>
          </ns3:TrackPointExtension>
        </extensions>
      </trkpt>
      <trkpt lat="45.32602242194116115570068359375" lon="-70.9211671538650989532470703125">
        <ele>613.79998779296875</ele>
        <time>2026-08-21T17:00:36.000Z</time>
        <extensions>
          <ns3:TrackPointExtension>
            <ns3:hr>139</ns3:hr>
            <ns3:cad>57</ns3:cad>
          </ns3:TrackPointExtension>
        </extensions>
      </trkpt>
      <trkpt lat="45.32601269893348217010498046875" lon="-70.9211869351565837860107421875">
        <ele>614</ele>
        <time>2026-08-21T17:00:37.000Z</time>
        <extensions>
          <ns3:TrackPointExtension>
            <ns3:hr>139</ns3:hr>
            <ns3:cad>57</ns3:cad>
          </ns3:TrackPointExtension>
        </extensions>
      </trkpt>
      <trkpt lat="45.326002053916454315185546875" lon="-70.92120428569614887237548828125">
        <ele>614</ele>
        <time>2026-08-21T17:00:38.000Z</time>
        <extensions>
          <ns3:TrackPointExtension>
            <ns3:hr>138</ns3:hr>
            <ns3:cad>57</ns3:cad>
          </ns3:TrackPointExtension>
        </extensions>
      </trkpt>
      <trkpt lat="45.3259918279945850372314453125" lon="-70.9212207980453968048095703125">
        <ele>614.20001220703125</ele>
        <time>2026-08-21T17:00:39.000Z</time>
        <extensions>
          <ns3:TrackPointExtension>
            <ns3:hr>138</ns3:hr>
            <ns3:cad>56</ns3:cad>
          </ns3:TrackPointExtension>
        </extensions>
      </trkpt>
      <trkpt lat="45.32598386518657207489013671875" lon="-70.92123831622302532196044921875">
        <ele>614.20001220703125</ele>
        <time>2026-08-21T17:00:40.000Z</time>
        <extensions>
          <ns3:TrackPointExtension>
            <ns3:hr>138</ns3:hr>
            <ns3:cad>56</ns3:cad>
          </ns3:TrackPointExtension>
        </extensions>
      </trkpt>
      <trkpt lat="45.325976908206939697265625" lon="-70.921257175505161285400390625">
        <ele>614.4000244140625</ele>
        <time>2026-08-21T17:00:41.000Z</time>
        <extensions>
          <ns3:TrackPointExtension>
            <ns3:hr>138</ns3:hr>
            <ns3:cad>56</ns3:cad>
          </ns3:TrackPointExtension>
        </extensions>
      </trkpt>
      <trkpt lat="45.32596978358924388885498046875" lon="-70.92127360403537750244140625">
        <ele>614.4000244140625</ele>
        <time>2026-08-21T17:00:42.000Z</time>
        <extensions>
          <ns3:TrackPointExtension>
            <ns3:hr>138</ns3:hr>
            <ns3:cad>56</ns3:cad>
          </ns3:TrackPointExtension>
        </extensions>
      </trkpt>
      <trkpt lat="45.3259606473147869110107421875" lon="-70.92129145748913288116455078125">
        <ele>614.4000244140625</ele>
        <time>2026-08-21T17:00:43.000Z</time>
        <extensions>
          <ns3:TrackPointExtension>
            <ns3:hr>137</ns3:hr>
            <ns3:cad>56</ns3:cad>
          </ns3:TrackPointExtension>
        </extensions>
      </trkpt>
      <trkpt lat="45.32595209777355194091796875" lon="-70.92130989767611026763916015625">
        <ele>614.5999755859375</ele>
        <time>2026-08-21T17:00:44.000Z</time>
        <extensions>
          <ns3:TrackPointExtension>
            <ns3:hr>137</ns3:hr>
            <ns3:cad>56</ns3:cad>
          </ns3:TrackPointExtension>
        </extensions>
      </trkpt>
      <trkpt lat="45.32594480551779270172119140625" lon="-70.92132716439664363861083984375">
        <ele>614.5999755859375</ele>
        <time>2026-08-21T17:00:45.000Z</time>
        <extensions>
          <ns3:TrackPointExtension>
            <ns3:hr>137</ns3:hr>
            <ns3:cad>56</ns3:cad>
          </ns3:TrackPointExtension>
        </extensions>
      </trkpt>
      <trkpt lat="45.3259351663291454315185546875" lon="-70.92134334146976470947265625">
        <ele>614.5999755859375</ele>
        <time>2026-08-21T17:00:46.000Z</time>
        <extensions>
          <ns3:TrackPointExtension>
            <ns3:hr>136</ns3:hr>
            <ns3:cad>56</ns3:cad>
          </ns3:TrackPointExtension>
        </extensions>
      </trkpt>
      <trkpt lat="45.32592485658824443817138671875" lon="-70.92136002145707607269287109375">
        <ele>614.5999755859375</ele>
        <time>2026-08-21T17:00:47.000Z</time>
        <extensions>
          <ns3:TrackPointExtension>
            <ns3:hr>136</ns3:hr>
            <ns3:cad>56</ns3:cad>
          </ns3:TrackPointExtension>
        </extensions>
      </trkpt>
      <trkpt lat="45.32591496594250202178955078125" lon="-70.92137745581567287445068359375">
        <ele>614.79998779296875</ele>
        <time>2026-08-21T17:00:48.000Z</time>
        <extensions>
          <ns3:TrackPointExtension>
            <ns3:hr>136</ns3:hr>
            <ns3:cad>56</ns3:cad>
          </ns3:TrackPointExtension>
        </extensions>
      </trkpt>
      <trkpt lat="45.3259070031344890594482421875" lon="-70.92139656655490398406982421875">
        <ele>614.79998779296875</ele>
        <time>2026-08-21T17:00:49.000Z</time>
        <extensions>
          <ns3:TrackPointExtension>
            <ns3:hr>136</ns3:hr>
            <ns3:cad>56</ns3:cad>
          </ns3:TrackPointExtension>
        </extensions>
      </trkpt>
      <trkpt lat="45.32589836977422237396240234375" lon="-70.9214145876467227935791015625">
        <ele>614.79998779296875</ele>
        <time>2026-08-21T17:00:50.000Z</time>
        <extensions>
          <ns3:TrackPointExtension>
            <ns3:hr>136</ns3:hr>
            <ns3:cad>56</ns3:cad>
          </ns3:TrackPointExtension>
        </extensions>
      </trkpt>
      <trkpt lat="45.325888060033321380615234375" lon="-70.92143277637660503387451171875">
        <ele>614.79998779296875</ele>
        <time>2026-08-21T17:00:51.000Z</time>
        <extensions>
          <ns3:TrackPointExtension>
            <ns3:hr>136</ns3:hr>
            <ns3:cad>56</ns3:cad>
          </ns3:TrackPointExtension>
        </extensions>
      </trkpt>
      <trkpt lat="45.32588009722530841827392578125" lon="-70.92145021073520183563232421875">
        <ele>615</ele>
        <time>2026-08-21T17:00:52.000Z</time>
        <extensions>
          <ns3:TrackPointExtension>
            <ns3:hr>137</ns3:hr>
            <ns3:cad>56</ns3:cad>
          </ns3:TrackPointExtension>
        </extensions>
      </trkpt>
      <trkpt lat="45.3258714638650417327880859375" lon="-70.92146697454154491424560546875">
        <ele>615</ele>
        <time>2026-08-21T17:00:53.000Z</time>
        <extensions>
          <ns3:TrackPointExtension>
            <ns3:hr>136</ns3:hr>
            <ns3:cad>56</ns3:cad>
          </ns3:TrackPointExtension>
        </extensions>
      </trkpt>
      <trkpt lat="45.3258627466857433319091796875" lon="-70.92148155905306339263916015625">
        <ele>615</ele>
        <time>2026-08-21T17:00:54.000Z</time>
        <extensions>
          <ns3:TrackPointExtension>
            <ns3:hr>136</ns3:hr>
            <ns3:cad>56</ns3:cad>
          </ns3:TrackPointExtension>
        </extensions>
      </trkpt>
      <trkpt lat="45.32585310749709606170654296875" lon="-70.92149530537426471710205078125">
        <ele>615</ele>
        <time>2026-08-21T17:00:55.000Z</time>
        <extensions>
          <ns3:TrackPointExtension>
            <ns3:hr>136</ns3:hr>
            <ns3:cad>56</ns3:cad>
          </ns3:TrackPointExtension>
        </extensions>
      </trkpt>
      <trkpt lat="45.3258436359465122222900390625" lon="-70.921511314809322357177734375">
        <ele>615.20001220703125</ele>
        <time>2026-08-21T17:00:56.000Z</time>
        <extensions>
          <ns3:TrackPointExtension>
            <ns3:hr>136</ns3:hr>
            <ns3:cad>56</ns3:cad>
          </ns3:TrackPointExtension>
        </extensions>
      </trkpt>
      <trkpt lat="45.32583466731011867523193359375" lon="-70.9215290844440460205078125">
        <ele>615.20001220703125</ele>
        <time>2026-08-21T17:00:57.000Z</time>
        <extensions>
          <ns3:TrackPointExtension>
            <ns3:hr>136</ns3:hr>
            <ns3:cad>56</ns3:cad>
          </ns3:TrackPointExtension>
        </extensions>
      </trkpt>
      <trkpt lat="45.325823016464710235595703125" lon="-70.9215453453361988067626953125">
        <ele>615.20001220703125</ele>
        <time>2026-08-21T17:00:58.000Z</time>
        <extensions>
          <ns3:TrackPointExtension>
            <ns3:hr>136</ns3:hr>
            <ns3:cad>56</ns3:cad>
          </ns3:TrackPointExtension>
        </extensions>
      </trkpt>
      <trkpt lat="45.32581128180027008056640625" lon="-70.9215580858290195465087890625">
        <ele>615.4000244140625</ele>
        <time>2026-08-21T17:00:59.000Z</time>
        <extensions>
          <ns3:TrackPointExtension>
            <ns3:hr>136</ns3:hr>
            <ns3:cad>56</ns3:cad>
          </ns3:TrackPointExtension>
        </extensions>
      </trkpt>
      <trkpt lat="45.3258012235164642333984375" lon="-70.92157308943569660186767578125">
        <ele>615.4000244140625</ele>
        <time>2026-08-21T17:01:00.000Z</time>
        <extensions>
          <ns3:TrackPointExtension>
            <ns3:hr>136</ns3:hr>
            <ns3:cad>56</ns3:cad>
          </ns3:TrackPointExtension>
        </extensions>
      </trkpt>
      <trkpt lat="45.32579225488007068634033203125" lon="-70.92158817686140537261962890625">
        <ele>615.5999755859375</ele>
        <time>2026-08-21T17:01:01.000Z</time>
        <extensions>
          <ns3:TrackPointExtension>
            <ns3:hr>136</ns3:hr>
            <ns3:cad>56</ns3:cad>
          </ns3:TrackPointExtension>
        </extensions>
      </trkpt>
      <trkpt lat="45.32578236423432826995849609375" lon="-70.92160343192517757415771484375">
        <ele>615.5999755859375</ele>
        <time>2026-08-21T17:01:02.000Z</time>
        <extensions>
          <ns3:TrackPointExtension>
            <ns3:hr>136</ns3:hr>
            <ns3:cad>56</ns3:cad>
          </ns3:TrackPointExtension>
        </extensions>
      </trkpt>
      <trkpt lat="45.32577314414083957672119140625" lon="-70.92162287794053554534912109375">
        <ele>615.5999755859375</ele>
        <time>2026-08-21T17:01:03.000Z</time>
        <extensions>
          <ns3:TrackPointExtension>
            <ns3:hr>136</ns3:hr>
            <ns3:cad>57</ns3:cad>
          </ns3:TrackPointExtension>
        </extensions>
      </trkpt>
      <trkpt lat="45.3257624991238117218017578125" lon="-70.92163846828043460845947265625">
        <ele>615.79998779296875</ele>
        <time>2026-08-21T17:01:04.000Z</time>
        <extensions>
          <ns3:TrackPointExtension>
            <ns3:hr>136</ns3:hr>
            <ns3:cad>57</ns3:cad>
          </ns3:TrackPointExtension>
        </extensions>
      </trkpt>
      <trkpt lat="45.32575227320194244384765625" lon="-70.921653471887111663818359375">
        <ele>615.79998779296875</ele>
        <time>2026-08-21T17:01:05.000Z</time>
        <extensions>
          <ns3:TrackPointExtension>
            <ns3:hr>136</ns3:hr>
            <ns3:cad>57</ns3:cad>
          </ns3:TrackPointExtension>
        </extensions>
      </trkpt>
      <trkpt lat="45.3257427178323268890380859375" lon="-70.92166964896023273468017578125">
        <ele>616</ele>
        <time>2026-08-21T17:01:06.000Z</time>
        <extensions>
          <ns3:TrackPointExtension>
            <ns3:hr>136</ns3:hr>
            <ns3:cad>56</ns3:cad>
          </ns3:TrackPointExtension>
        </extensions>
      </trkpt>
      <trkpt lat="45.32573156990110874176025390625" lon="-70.92168574221432209014892578125">
        <ele>616</ele>
        <time>2026-08-21T17:01:07.000Z</time>
        <extensions>
          <ns3:TrackPointExtension>
            <ns3:hr>136</ns3:hr>
            <ns3:cad>56</ns3:cad>
          </ns3:TrackPointExtension>
        </extensions>
      </trkpt>
      <trkpt lat="45.3257222659885883331298828125" lon="-70.92170007526874542236328125">
        <ele>616</ele>
        <time>2026-08-21T17:01:08.000Z</time>
        <extensions>
          <ns3:TrackPointExtension>
            <ns3:hr>135</ns3:hr>
            <ns3:cad>56</ns3:cad>
          </ns3:TrackPointExtension>
        </extensions>
      </trkpt>
      <trkpt lat="45.3257118724286556243896484375" lon="-70.92171348631381988525390625">
        <ele>616.20001220703125</ele>
        <time>2026-08-21T17:01:09.000Z</time>
        <extensions>
          <ns3:TrackPointExtension>
            <ns3:hr>135</ns3:hr>
            <ns3:cad>56</ns3:cad>
          </ns3:TrackPointExtension>
        </extensions>
      </trkpt>
      <trkpt lat="45.32570105977356433868408203125" lon="-70.9217274002730846405029296875">
        <ele>616.20001220703125</ele>
        <time>2026-08-21T17:01:10.000Z</time>
        <extensions>
          <ns3:TrackPointExtension>
            <ns3:hr>135</ns3:hr>
            <ns3:cad>56</ns3:cad>
          </ns3:TrackPointExtension>
        </extensions>
      </trkpt>
      <trkpt lat="45.3256924264132976531982421875" lon="-70.921739302575588226318359375">
        <ele>616.20001220703125</ele>
        <time>2026-08-21T17:01:11.000Z</time>
        <extensions>
          <ns3:TrackPointExtension>
            <ns3:hr>134</ns3:hr>
            <ns3:cad>56</ns3:cad>
          </ns3:TrackPointExtension>
        </extensions>
      </trkpt>
      <trkpt lat="45.325683541595935821533203125" lon="-70.921753384172916412353515625">
        <ele>616.20001220703125</ele>
        <time>2026-08-21T17:01:12.000Z</time>
        <extensions>
          <ns3:TrackPointExtension>
            <ns3:hr>134</ns3:hr>
            <ns3:cad>56</ns3:cad>
          </ns3:TrackPointExtension>
        </extensions>
      </trkpt>
      <trkpt lat="45.32567457295954227447509765625" lon="-70.921763442456722259521484375">
        <ele>616.4000244140625</ele>
        <time>2026-08-21T17:01:13.000Z</time>
        <extensions>
          <ns3:TrackPointExtension>
            <ns3:hr>134</ns3:hr>
            <ns3:cad>56</ns3:cad>
          </ns3:TrackPointExtension>
        </extensions>
      </trkpt>
      <trkpt lat="45.325666777789592742919921875" lon="-70.921774841845035552978515625">
        <ele>616.4000244140625</ele>
        <time>2026-08-21T17:01:14.000Z</time>
        <extensions>
          <ns3:TrackPointExtension>
            <ns3:hr>134</ns3:hr>
            <ns3:cad>57</ns3:cad>
          </ns3:TrackPointExtension>
        </extensions>
      </trkpt>
      <trkpt lat="45.325654707849025726318359375" lon="-70.92179127037525177001953125">
        <ele>616.4000244140625</ele>
        <time>2026-08-21T17:01:15.000Z</time>
        <extensions>
          <ns3:TrackPointExtension>
            <ns3:hr>134</ns3:hr>
            <ns3:cad>57</ns3:cad>
          </ns3:TrackPointExtension>
        </extensions>
      </trkpt>
      <trkpt lat="45.32564406283199787139892578125" lon="-70.9218001551926136016845703125">
        <ele>616.5999755859375</ele>
        <time>2026-08-21T17:01:16.000Z</time>
        <extensions>
          <ns3:TrackPointExtension>
            <ns3:hr>134</ns3:hr>
            <ns3:cad>57</ns3:cad>
          </ns3:TrackPointExtension>
        </extensions>
      </trkpt>
      <trkpt lat="45.32563148997724056243896484375" lon="-70.92181063257157802581787109375">
        <ele>616.5999755859375</ele>
        <time>2026-08-21T17:01:17.000Z</time>
        <extensions>
          <ns3:TrackPointExtension>
            <ns3:hr>133</ns3:hr>
            <ns3:cad>57</ns3:cad>
          </ns3:TrackPointExtension>
        </extensions>
      </trkpt>
      <trkpt lat="45.32562159933149814605712890625" lon="-70.9218232892453670501708984375">
        <ele>616.5999755859375</ele>
        <time>2026-08-21T17:01:18.000Z</time>
        <extensions>
          <ns3:TrackPointExtension>
            <ns3:hr>133</ns3:hr>
            <ns3:cad>57</ns3:cad>
          </ns3:TrackPointExtension>
        </extensions>
      </trkpt>
      <trkpt lat="45.32561472617089748382568359375" lon="-70.92183996923267841339111328125">
        <ele>616.5999755859375</ele>
        <time>2026-08-21T17:01:19.000Z</time>
        <extensions>
          <ns3:TrackPointExtension>
            <ns3:hr>132</ns3:hr>
            <ns3:cad>57</ns3:cad>
          </ns3:TrackPointExtension>
        </extensions>
      </trkpt>
      <trkpt lat="45.32560500316321849822998046875" lon="-70.92185958288609981536865234375">
        <ele>616.5999755859375</ele>
        <time>2026-08-21T17:01:20.000Z</time>
        <extensions>
          <ns3:TrackPointExtension>
            <ns3:hr>131</ns3:hr>
            <ns3:cad>57</ns3:cad>
          </ns3:TrackPointExtension>
        </extensions>
      </trkpt>
      <trkpt lat="45.32559813000261783599853515625" lon="-70.9218777716159820556640625">
        <ele>616.5999755859375</ele>
        <time>2026-08-21T17:01:21.000Z</time>
        <extensions>
          <ns3:TrackPointExtension>
            <ns3:hr>131</ns3:hr>
            <ns3:cad>57</ns3:cad>
          </ns3:TrackPointExtension>
        </extensions>
      </trkpt>
      <trkpt lat="45.32558237202465534210205078125" lon="-70.92189076356589794158935546875">
        <ele>616.79998779296875</ele>
        <time>2026-08-21T17:01:22.000Z</time>
        <extensions>
          <ns3:TrackPointExtension>
            <ns3:hr>131</ns3:hr>
            <ns3:cad>57</ns3:cad>
          </ns3:TrackPointExtension>
        </extensions>
      </trkpt>
      <trkpt lat="45.3255697153508663177490234375" lon="-70.9219067730009555816650390625">
        <ele>616.79998779296875</ele>
        <time>2026-08-21T17:01:23.000Z</time>
        <extensions>
          <ns3:TrackPointExtension>
            <ns3:hr>131</ns3:hr>
            <ns3:cad>57</ns3:cad>
          </ns3:TrackPointExtension>
        </extensions>
      </trkpt>
      <trkpt lat="45.32556141726672649383544921875" lon="-70.92192395590245723724365234375">
        <ele>616.79998779296875</ele>
        <time>2026-08-21T17:01:24.000Z</time>
        <extensions>
          <ns3:TrackPointExtension>
            <ns3:hr>131</ns3:hr>
            <ns3:cad>58</ns3:cad>
          </ns3:TrackPointExtension>
        </extensions>
      </trkpt>
      <trkpt lat="45.325552113354206085205078125" lon="-70.9219382889568805694580078125">
        <ele>616.79998779296875</ele>
        <time>2026-08-21T17:01:25.000Z</time>
        <extensions>
          <ns3:TrackPointExtension>
            <ns3:hr>131</ns3:hr>
            <ns3:cad>58</ns3:cad>
          </ns3:TrackPointExtension>
        </extensions>
      </trkpt>
      <trkpt lat="45.32553912140429019927978515625" lon="-70.9219515323638916015625">
        <ele>617</ele>
        <time>2026-08-21T17:01:26.000Z</time>
        <extensions>
          <ns3:TrackPointExtension>
            <ns3:hr>131</ns3:hr>
            <ns3:cad>58</ns3:cad>
          </ns3:TrackPointExtension>
        </extensions>
      </trkpt>
      <trkpt lat="45.325527973473072052001953125" lon="-70.921969301998615264892578125">
        <ele>617</ele>
        <time>2026-08-21T17:01:27.000Z</time>
        <extensions>
          <ns3:TrackPointExtension>
            <ns3:hr>131</ns3:hr>
            <ns3:cad>58</ns3:cad>
          </ns3:TrackPointExtension>
        </extensions>
      </trkpt>
      <trkpt lat="45.32551799900829792022705078125" lon="-70.921983383595943450927734375">
        <ele>617</ele>
        <time>2026-08-21T17:01:28.000Z</time>
        <extensions>
          <ns3:TrackPointExtension>
            <ns3:hr>131</ns3:hr>
            <ns3:cad>57</ns3:cad>
          </ns3:TrackPointExtension>
        </extensions>
      </trkpt>
      <trkpt lat="45.3255070187151432037353515625" lon="-70.92199989594519138336181640625">
        <ele>617.20001220703125</ele>
        <time>2026-08-21T17:01:29.000Z</time>
        <extensions>
          <ns3:TrackPointExtension>
            <ns3:hr>131</ns3:hr>
            <ns3:cad>57</ns3:cad>
          </ns3:TrackPointExtension>
        </extensions>
      </trkpt>
      <trkpt lat="45.32549754716455936431884765625" lon="-70.92201632447540760040283203125">
        <ele>617.20001220703125</ele>
        <time>2026-08-21T17:01:30.000Z</time>
        <extensions>
          <ns3:TrackPointExtension>
            <ns3:hr>131</ns3:hr>
            <ns3:cad>57</ns3:cad>
          </ns3:TrackPointExtension>
        </extensions>
      </trkpt>
      <trkpt lat="45.32548463903367519378662109375" lon="-70.92202923260629177093505859375">
        <ele>617.20001220703125</ele>
        <time>2026-08-21T17:01:31.000Z</time>
        <extensions>
          <ns3:TrackPointExtension>
            <ns3:hr>131</ns3:hr>
            <ns3:cad>58</ns3:cad>
          </ns3:TrackPointExtension>
        </extensions>
      </trkpt>
      <trkpt lat="45.32547357492148876190185546875" lon="-70.922043062746524810791015625">
        <ele>617.20001220703125</ele>
        <time>2026-08-21T17:01:32.000Z</time>
        <extensions>
          <ns3:TrackPointExtension>
            <ns3:hr>131</ns3:hr>
            <ns3:cad>58</ns3:cad>
          </ns3:TrackPointExtension>
        </extensions>
      </trkpt>
      <trkpt lat="45.32546049915254116058349609375" lon="-70.92205923981964588165283203125">
        <ele>617.20001220703125</ele>
        <time>2026-08-21T17:01:33.000Z</time>
        <extensions>
          <ns3:TrackPointExtension>
            <ns3:hr>131</ns3:hr>
            <ns3:cad>57</ns3:cad>
          </ns3:TrackPointExtension>
        </extensions>
      </trkpt>
      <trkpt lat="45.3254483453929424285888671875" lon="-70.92207399196922779083251953125">
        <ele>617.20001220703125</ele>
        <time>2026-08-21T17:01:34.000Z</time>
        <extensions>
          <ns3:TrackPointExtension>
            <ns3:hr>131</ns3:hr>
            <ns3:cad>57</ns3:cad>
          </ns3:TrackPointExtension>
        </extensions>
      </trkpt>
      <trkpt lat="45.32543434761464595794677734375" lon="-70.9220851399004459381103515625">
        <ele>617.4000244140625</ele>
        <time>2026-08-21T17:01:35.000Z</time>
        <extensions>
          <ns3:TrackPointExtension>
            <ns3:hr>131</ns3:hr>
            <ns3:cad>57</ns3:cad>
          </ns3:TrackPointExtension>
        </extensions>
      </trkpt>
      <trkpt lat="45.3254238702356815338134765625" lon="-70.92210249044001102447509765625">
        <ele>617.4000244140625</ele>
        <time>2026-08-21T17:01:36.000Z</time>
        <extensions>
          <ns3:TrackPointExtension>
            <ns3:hr>131</ns3:hr>
            <ns3:cad>57</ns3:cad>
          </ns3:TrackPointExtension>
        </extensions>
      </trkpt>
      <trkpt lat="45.3254121355712413787841796875" lon="-70.92211875133216381072998046875">
        <ele>617.5999755859375</ele>
        <time>2026-08-21T17:01:37.000Z</time>
        <extensions>
          <ns3:TrackPointExtension>
            <ns3:hr>131</ns3:hr>
            <ns3:cad>57</ns3:cad>
          </ns3:TrackPointExtension>
        </extensions>
      </trkpt>
      <trkpt lat="45.32539956271648406982421875" lon="-70.9221367724239826202392578125">
        <ele>617.5999755859375</ele>
        <time>2026-08-21T17:01:38.000Z</time>
        <extensions>
          <ns3:TrackPointExtension>
            <ns3:hr>131</ns3:hr>
            <ns3:cad>57</ns3:cad>
          </ns3:TrackPointExtension>
        </extensions>
      </trkpt>
      <trkpt lat="45.3253906778991222381591796875" lon="-70.9221578948199748992919921875">
        <ele>617.79998779296875</ele>
        <time>2026-08-21T17:01:39.000Z</time>
        <extensions>
          <ns3:TrackPointExtension>
            <ns3:hr>131</ns3:hr>
            <ns3:cad>57</ns3:cad>
          </ns3:TrackPointExtension>
        </extensions>
      </trkpt>
      <trkpt lat="45.325383134186267852783203125" lon="-70.92217574827373027801513671875">
        <ele>617.79998779296875</ele>
        <time>2026-08-21T17:01:40.000Z</time>
        <extensions>
          <ns3:TrackPointExtension>
            <ns3:hr>132</ns3:hr>
            <ns3:cad>57</ns3:cad>
          </ns3:TrackPointExtension>
        </extensions>
      </trkpt>
      <trkpt lat="45.325371734797954559326171875" lon="-70.92219133861362934112548828125">
        <ele>618</ele>
        <time>2026-08-21T17:01:41.000Z</time>
        <extensions>
          <ns3:TrackPointExtension>
            <ns3:hr>131</ns3:hr>
            <ns3:cad>57</ns3:cad>
          </ns3:TrackPointExtension>
        </extensions>
      </trkpt>
      <trkpt lat="45.32536125741899013519287109375" lon="-70.922206677496433258056640625">
        <ele>618</ele>
        <time>2026-08-21T17:01:42.000Z</time>
        <extensions>
          <ns3:TrackPointExtension>
            <ns3:hr>131</ns3:hr>
            <ns3:cad>57</ns3:cad>
          </ns3:TrackPointExtension>
        </extensions>
      </trkpt>
      <trkpt lat="45.3253457508981227874755859375" lon="-70.9222239442169666290283203125">
        <ele>618</ele>
        <time>2026-08-21T17:01:43.000Z</time>
        <extensions>
          <ns3:TrackPointExtension>
            <ns3:hr>131</ns3:hr>
            <ns3:cad>58</ns3:cad>
          </ns3:TrackPointExtension>
        </extensions>
      </trkpt>
      <trkpt lat="45.3253366984426975250244140625" lon="-70.9222390316426753997802734375">
        <ele>618</ele>
        <time>2026-08-21T17:01:44.000Z</time>
        <extensions>
          <ns3:TrackPointExtension>
            <ns3:hr>130</ns3:hr>
            <ns3:cad>58</ns3:cad>
          </ns3:TrackPointExtension>
        </extensions>
      </trkpt>
      <trkpt lat="45.32532580196857452392578125" lon="-70.9222591482102870941162109375">
        <ele>618</ele>
        <time>2026-08-21T17:01:45.000Z</time>
        <extensions>
          <ns3:TrackPointExtension>
            <ns3:hr>130</ns3:hr>
            <ns3:cad>58</ns3:cad>
          </ns3:TrackPointExtension>
        </extensions>
      </trkpt>
      <trkpt lat="45.32531415112316608428955078125" lon="-70.92227809131145477294921875">
        <ele>618</ele>
        <time>2026-08-21T17:01:46.000Z</time>
        <extensions>
          <ns3:TrackPointExtension>
            <ns3:hr>130</ns3:hr>
            <ns3:cad>57</ns3:cad>
          </ns3:TrackPointExtension>
        </extensions>
      </trkpt>
      <trkpt lat="45.32530476339161396026611328125" lon="-70.9222906641662120819091796875">
        <ele>618</ele>
        <time>2026-08-21T17:01:47.000Z</time>
        <extensions>
          <ns3:TrackPointExtension>
            <ns3:hr>130</ns3:hr>
            <ns3:cad>57</ns3:cad>
          </ns3:TrackPointExtension>
        </extensions>
      </trkpt>
      <trkpt lat="45.32529654912650585174560546875" lon="-70.92231119982898235321044921875">
        <ele>618</ele>
        <time>2026-08-21T17:01:48.000Z</time>
        <extensions>
          <ns3:TrackPointExtension>
            <ns3:hr>130</ns3:hr>
            <ns3:cad>56</ns3:cad>
          </ns3:TrackPointExtension>
        </extensions>
      </trkpt>
      <trkpt lat="45.32528850249946117401123046875" lon="-70.92233047820627689361572265625">
        <ele>618</ele>
        <time>2026-08-21T17:01:49.000Z</time>
        <extensions>
          <ns3:TrackPointExtension>
            <ns3:hr>130</ns3:hr>
            <ns3:cad>56</ns3:cad>
          </ns3:TrackPointExtension>
        </extensions>
      </trkpt>
      <trkpt lat="45.32527777366340160369873046875" lon="-70.92234657146036624908447265625">
        <ele>618.20001220703125</ele>
        <time>2026-08-21T17:01:50.000Z</time>
        <extensions>
          <ns3:TrackPointExtension>
            <ns3:hr>130</ns3:hr>
            <ns3:cad>57</ns3:cad>
          </ns3:TrackPointExtension>
        </extensions>
      </trkpt>
      <trkpt lat="45.32526939176023006439208984375" lon="-70.92236249707639217376708984375">
        <ele>618.20001220703125</ele>
        <time>2026-08-21T17:01:51.000Z</time>
        <extensions>
          <ns3:TrackPointExtension>
            <ns3:hr>130</ns3:hr>
            <ns3:cad>57</ns3:cad>
          </ns3:TrackPointExtension>
        </extensions>
      </trkpt>
      <trkpt lat="45.32526050694286823272705078125" lon="-70.92237959615886211395263671875">
        <ele>618.20001220703125</ele>
        <time>2026-08-21T17:01:52.000Z</time>
        <extensions>
          <ns3:TrackPointExtension>
            <ns3:hr>131</ns3:hr>
            <ns3:cad>57</ns3:cad>
          </ns3:TrackPointExtension>
        </extensions>
      </trkpt>
      <trkpt lat="45.32525028102099895477294921875" lon="-70.9223956055939197540283203125">
        <ele>618.20001220703125</ele>
        <time>2026-08-21T17:01:53.000Z</time>
        <extensions>
          <ns3:TrackPointExtension>
            <ns3:hr>130</ns3:hr>
            <ns3:cad>57</ns3:cad>
          </ns3:TrackPointExtension>
        </extensions>
      </trkpt>
      <trkpt lat="45.3252411447465419769287109375" lon="-70.922410525381565093994140625">
        <ele>618.20001220703125</ele>
        <time>2026-08-21T17:01:54.000Z</time>
        <extensions>
          <ns3:TrackPointExtension>
            <ns3:hr>130</ns3:hr>
            <ns3:cad>57</ns3:cad>
          </ns3:TrackPointExtension>
        </extensions>
      </trkpt>
      <trkpt lat="45.3252317570149898529052734375" lon="-70.9224264509975910186767578125">
        <ele>618.20001220703125</ele>
        <time>2026-08-21T17:01:55.000Z</time>
        <extensions>
          <ns3:TrackPointExtension>
            <ns3:hr>130</ns3:hr>
            <ns3:cad>57</ns3:cad>
          </ns3:TrackPointExtension>
        </extensions>
      </trkpt>
      <trkpt lat="45.32522161491215229034423828125" lon="-70.9224438853561878204345703125">
        <ele>618.20001220703125</ele>
        <time>2026-08-21T17:01:56.000Z</time>
        <extensions>
          <ns3:TrackPointExtension>
            <ns3:hr>129</ns3:hr>
            <ns3:cad>57</ns3:cad>
          </ns3:TrackPointExtension>
        </extensions>
      </trkpt>
      <trkpt lat="45.32521155662834644317626953125" lon="-70.92246240936219692230224609375">
        <ele>618.20001220703125</ele>
        <time>2026-08-21T17:01:57.000Z</time>
        <extensions>
          <ns3:TrackPointExtension>
            <ns3:hr>129</ns3:hr>
            <ns3:cad>57</ns3:cad>
          </ns3:TrackPointExtension>
        </extensions>
      </trkpt>
      <trkpt lat="45.32520242035388946533203125" lon="-70.92248286120593547821044921875">
        <ele>618.4000244140625</ele>
        <time>2026-08-21T17:01:58.000Z</time>
        <extensions>
          <ns3:TrackPointExtension>
            <ns3:hr>129</ns3:hr>
            <ns3:cad>56</ns3:cad>
          </ns3:TrackPointExtension>
        </extensions>
      </trkpt>
      <trkpt lat="45.3251932002604007720947265625" lon="-70.9225022234022617340087890625">
        <ele>618.4000244140625</ele>
        <time>2026-08-21T17:01:59.000Z</time>
        <extensions>
          <ns3:TrackPointExtension>
            <ns3:hr>130</ns3:hr>
            <ns3:cad>56</ns3:cad>
          </ns3:TrackPointExtension>
        </extensions>
      </trkpt>
      <trkpt lat="45.3251848183572292327880859375" lon="-70.92251949012279510498046875">
        <ele>618.4000244140625</ele>
        <time>2026-08-21T17:02:00.000Z</time>
        <extensions>
          <ns3:TrackPointExtension>
            <ns3:hr>129</ns3:hr>
            <ns3:cad>56</ns3:cad>
          </ns3:TrackPointExtension>
        </extensions>
      </trkpt>
      <trkpt lat="45.325174592435359954833984375" lon="-70.9225401096045970916748046875">
        <ele>618.4000244140625</ele>
        <time>2026-08-21T17:02:01.000Z</time>
        <extensions>
          <ns3:TrackPointExtension>
            <ns3:hr>129</ns3:hr>
            <ns3:cad>56</ns3:cad>
          </ns3:TrackPointExtension>
        </extensions>
      </trkpt>
      <trkpt lat="45.32516218721866607666015625" lon="-70.92255544848740100860595703125">
        <ele>618.5999755859375</ele>
        <time>2026-08-21T17:02:02.000Z</time>
        <extensions>
          <ns3:TrackPointExtension>
            <ns3:hr>128</ns3:hr>
            <ns3:cad>56</ns3:cad>
          </ns3:TrackPointExtension>
        </extensions>
      </trkpt>
      <trkpt lat="45.32515020109713077545166015625" lon="-70.9225696139037609100341796875">
        <ele>618.5999755859375</ele>
        <time>2026-08-21T17:02:03.000Z</time>
        <extensions>
          <ns3:TrackPointExtension>
            <ns3:hr>128</ns3:hr>
            <ns3:cad>56</ns3:cad>
          </ns3:TrackPointExtension>
        </extensions>
      </trkpt>
      <trkpt lat="45.32513880170881748199462890625" lon="-70.9225877188146114349365234375">
        <ele>618.5999755859375</ele>
        <time>2026-08-21T17:02:04.000Z</time>
        <extensions>
          <ns3:TrackPointExtension>
            <ns3:hr>128</ns3:hr>
            <ns3:cad>56</ns3:cad>
          </ns3:TrackPointExtension>
        </extensions>
      </trkpt>
      <trkpt lat="45.32513041980564594268798828125" lon="-70.922606326639652252197265625">
        <ele>618.79998779296875</ele>
        <time>2026-08-21T17:02:05.000Z</time>
        <extensions>
          <ns3:TrackPointExtension>
            <ns3:hr>128</ns3:hr>
            <ns3:cad>56</ns3:cad>
          </ns3:TrackPointExtension>
        </extensions>
      </trkpt>
      <trkpt lat="45.32512203790247440338134765625" lon="-70.92262267135083675384521484375">
        <ele>618.79998779296875</ele>
        <time>2026-08-21T17:02:06.000Z</time>
        <extensions>
          <ns3:TrackPointExtension>
            <ns3:hr>127</ns3:hr>
            <ns3:cad>56</ns3:cad>
          </ns3:TrackPointExtension>
        </extensions>
      </trkpt>
      <trkpt lat="45.32510845921933650970458984375" lon="-70.9226390160620212554931640625">
        <ele>618.79998779296875</ele>
        <time>2026-08-21T17:02:07.000Z</time>
        <extensions>
          <ns3:TrackPointExtension>
            <ns3:hr>127</ns3:hr>
            <ns3:cad>56</ns3:cad>
          </ns3:TrackPointExtension>
        </extensions>
      </trkpt>
      <trkpt lat="45.32509923912584781646728515625" lon="-70.9226517565548419952392578125">
        <ele>618.79998779296875</ele>
        <time>2026-08-21T17:02:08.000Z</time>
        <extensions>
          <ns3:TrackPointExtension>
            <ns3:hr>126</ns3:hr>
            <ns3:cad>57</ns3:cad>
          </ns3:TrackPointExtension>
        </extensions>
      </trkpt>
      <trkpt lat="45.3250902704894542694091796875" lon="-70.92266944237053394317626953125">
        <ele>618.79998779296875</ele>
        <time>2026-08-21T17:02:09.000Z</time>
        <extensions>
          <ns3:TrackPointExtension>
            <ns3:hr>126</ns3:hr>
            <ns3:cad>57</ns3:cad>
          </ns3:TrackPointExtension>
        </extensions>
      </trkpt>
      <trkpt lat="45.3250823915004730224609375" lon="-70.922683775424957275390625">
        <ele>619</ele>
        <time>2026-08-21T17:02:10.000Z</time>
        <extensions>
          <ns3:TrackPointExtension>
            <ns3:hr>126</ns3:hr>
            <ns3:cad>57</ns3:cad>
          </ns3:TrackPointExtension>
        </extensions>
      </trkpt>
      <trkpt lat="45.32507275231182575225830078125" lon="-70.92269919812679290771484375">
        <ele>619</ele>
        <time>2026-08-21T17:02:11.000Z</time>
        <extensions>
          <ns3:TrackPointExtension>
            <ns3:hr>126</ns3:hr>
            <ns3:cad>55</ns3:cad>
          </ns3:TrackPointExtension>
        </extensions>
      </trkpt>
      <trkpt lat="45.3250661306083202362060546875" lon="-70.9227174706757068634033203125">
        <ele>619.20001220703125</ele>
        <time>2026-08-21T17:02:12.000Z</time>
        <extensions>
          <ns3:TrackPointExtension>
            <ns3:hr>126</ns3:hr>
            <ns3:cad>55</ns3:cad>
          </ns3:TrackPointExtension>
        </extensions>
      </trkpt>
      <trkpt lat="45.3250564076006412506103515625" lon="-70.92273431830108165740966796875">
        <ele>619.20001220703125</ele>
        <time>2026-08-21T17:02:13.000Z</time>
        <extensions>
          <ns3:TrackPointExtension>
            <ns3:hr>126</ns3:hr>
            <ns3:cad>55</ns3:cad>
          </ns3:TrackPointExtension>
        </extensions>
      </trkpt>
      <trkpt lat="45.32504961825907230377197265625" lon="-70.92275242321193218231201171875">
        <ele>619.4000244140625</ele>
        <time>2026-08-21T17:02:14.000Z</time>
        <extensions>
          <ns3:TrackPointExtension>
            <ns3:hr>125</ns3:hr>
            <ns3:cad>55</ns3:cad>
          </ns3:TrackPointExtension>
        </extensions>
      </trkpt>
      <trkpt lat="45.32504190690815448760986328125" lon="-70.92277538962662220001220703125">
        <ele>619.4000244140625</ele>
        <time>2026-08-21T17:02:15.000Z</time>
        <extensions>
          <ns3:TrackPointExtension>
            <ns3:hr>125</ns3:hr>
            <ns3:cad>56</ns3:cad>
          </ns3:TrackPointExtension>
        </extensions>
      </trkpt>
      <trkpt lat="45.325034447014331817626953125" lon="-70.92279366217553615570068359375">
        <ele>619.5999755859375</ele>
        <time>2026-08-21T17:02:16.000Z</time>
        <extensions>
          <ns3:TrackPointExtension>
            <ns3:hr>125</ns3:hr>
            <ns3:cad>56</ns3:cad>
          </ns3:TrackPointExtension>
        </extensions>
      </trkpt>
      <trkpt lat="45.32502715475857257843017578125" lon="-70.92281478457152843475341796875">
        <ele>619.5999755859375</ele>
        <time>2026-08-21T17:02:17.000Z</time>
        <extensions>
          <ns3:TrackPointExtension>
            <ns3:hr>125</ns3:hr>
            <ns3:cad>56</ns3:cad>
          </ns3:TrackPointExtension>
        </extensions>
      </trkpt>
      <trkpt lat="45.32501877285540103912353515625" lon="-70.92283339239656925201416015625">
        <ele>619.5999755859375</ele>
        <time>2026-08-21T17:02:18.000Z</time>
        <extensions>
          <ns3:TrackPointExtension>
            <ns3:hr>125</ns3:hr>
            <ns3:cad>56</ns3:cad>
          </ns3:TrackPointExtension>
        </extensions>
      </trkpt>
      <trkpt lat="45.3250072896480560302734375" lon="-70.9228542633354663848876953125">
        <ele>619.79998779296875</ele>
        <time>2026-08-21T17:02:19.000Z</time>
        <extensions>
          <ns3:TrackPointExtension>
            <ns3:hr>125</ns3:hr>
            <ns3:cad>56</ns3:cad>
          </ns3:TrackPointExtension>
        </extensions>
      </trkpt>
      <trkpt lat="45.3249950520694255828857421875" lon="-70.922874547541141510009765625">
        <ele>619.79998779296875</ele>
        <time>2026-08-21T17:02:20.000Z</time>
        <extensions>
          <ns3:TrackPointExtension>
            <ns3:hr>124</ns3:hr>
            <ns3:cad>56</ns3:cad>
          </ns3:TrackPointExtension>
        </extensions>
      </trkpt>
      <trkpt lat="45.32498641870915889739990234375" lon="-70.92289173044264316558837890625">
        <ele>619.79998779296875</ele>
        <time>2026-08-21T17:02:21.000Z</time>
        <extensions>
          <ns3:TrackPointExtension>
            <ns3:hr>124</ns3:hr>
            <ns3:cad>56</ns3:cad>
          </ns3:TrackPointExtension>
        </extensions>
      </trkpt>
      <trkpt lat="45.32497853972017765045166015625" lon="-70.92290732078254222869873046875">
        <ele>620</ele>
        <time>2026-08-21T17:02:22.000Z</time>
        <extensions>
          <ns3:TrackPointExtension>
            <ns3:hr>124</ns3:hr>
            <ns3:cad>56</ns3:cad>
          </ns3:TrackPointExtension>
        </extensions>
      </trkpt>
      <trkpt lat="45.3249715827405452728271484375" lon="-70.92292358167469501495361328125">
        <ele>620</ele>
        <time>2026-08-21T17:02:23.000Z</time>
        <extensions>
          <ns3:TrackPointExtension>
            <ns3:hr>125</ns3:hr>
            <ns3:cad>56</ns3:cad>
          </ns3:TrackPointExtension>
        </extensions>
      </trkpt>
      <trkpt lat="45.32496512867510318756103515625" lon="-70.92294671572744846343994140625">
        <ele>620</ele>
        <time>2026-08-21T17:02:24.000Z</time>
        <extensions>
          <ns3:TrackPointExtension>
            <ns3:hr>125</ns3:hr>
            <ns3:cad>56</ns3:cad>
          </ns3:TrackPointExtension>
        </extensions>
      </trkpt>
      <trkpt lat="45.32495657913386821746826171875" lon="-70.9229638986289501190185546875">
        <ele>620</ele>
        <time>2026-08-21T17:02:25.000Z</time>
        <extensions>
          <ns3:TrackPointExtension>
            <ns3:hr>125</ns3:hr>
            <ns3:cad>56</ns3:cad>
          </ns3:TrackPointExtension>
        </extensions>
      </trkpt>
      <trkpt lat="45.324942581355571746826171875" lon="-70.92297705821692943572998046875">
        <ele>620</ele>
        <time>2026-08-21T17:02:26.000Z</time>
        <extensions>
          <ns3:TrackPointExtension>
            <ns3:hr>125</ns3:hr>
            <ns3:cad>56</ns3:cad>
          </ns3:TrackPointExtension>
        </extensions>
      </trkpt>
      <trkpt lat="45.3249348700046539306640625" lon="-70.922995917499065399169921875">
        <ele>620</ele>
        <time>2026-08-21T17:02:27.000Z</time>
        <extensions>
          <ns3:TrackPointExtension>
            <ns3:hr>125</ns3:hr>
            <ns3:cad>56</ns3:cad>
          </ns3:TrackPointExtension>
        </extensions>
      </trkpt>
      <trkpt lat="45.3249266557395458221435546875" lon="-70.92301377095282077789306640625">
        <ele>620.20001220703125</ele>
        <time>2026-08-21T17:02:28.000Z</time>
        <extensions>
          <ns3:TrackPointExtension>
            <ns3:hr>126</ns3:hr>
            <ns3:cad>56</ns3:cad>
          </ns3:TrackPointExtension>
        </extensions>
      </trkpt>
      <trkpt lat="45.32491684891283512115478515625" lon="-70.92303271405398845672607421875">
        <ele>620.20001220703125</ele>
        <time>2026-08-21T17:02:29.000Z</time>
        <extensions>
          <ns3:TrackPointExtension>
            <ns3:hr>126</ns3:hr>
            <ns3:cad>56</ns3:cad>
          </ns3:TrackPointExtension>
        </extensions>
      </trkpt>
      <trkpt lat="45.32491098158061504364013671875" lon="-70.923054255545139312744140625">
        <ele>620.20001220703125</ele>
        <time>2026-08-21T17:02:30.000Z</time>
        <extensions>
          <ns3:TrackPointExtension>
            <ns3:hr>126</ns3:hr>
            <ns3:cad>57</ns3:cad>
          </ns3:TrackPointExtension>
        </extensions>
      </trkpt>
      <trkpt lat="45.32490293495357036590576171875" lon="-70.9230740368366241455078125">
        <ele>620.20001220703125</ele>
        <time>2026-08-21T17:02:31.000Z</time>
        <extensions>
          <ns3:TrackPointExtension>
            <ns3:hr>125</ns3:hr>
            <ns3:cad>57</ns3:cad>
          </ns3:TrackPointExtension>
        </extensions>
      </trkpt>
      <trkpt lat="45.324897654354572296142578125" lon="-70.92309440486133098602294921875">
        <ele>620.20001220703125</ele>
        <time>2026-08-21T17:02:32.000Z</time>
        <extensions>
          <ns3:TrackPointExtension>
            <ns3:hr>126</ns3:hr>
            <ns3:cad>57</ns3:cad>
          </ns3:TrackPointExtension>
        </extensions>
      </trkpt>
      <trkpt lat="45.3248897753655910491943359375" lon="-70.923117287456989288330078125">
        <ele>620.4000244140625</ele>
        <time>2026-08-21T17:02:33.000Z</time>
        <extensions>
          <ns3:TrackPointExtension>
            <ns3:hr>126</ns3:hr>
            <ns3:cad>56</ns3:cad>
          </ns3:TrackPointExtension>
        </extensions>
      </trkpt>
      <trkpt lat="45.32488323748111724853515625" lon="-70.92313631437718868255615234375">
        <ele>620.4000244140625</ele>
        <time>2026-08-21T17:02:34.000Z</time>
        <extensions>
          <ns3:TrackPointExtension>
            <ns3:hr>126</ns3:hr>
            <ns3:cad>56</ns3:cad>
          </ns3:TrackPointExtension>
        </extensions>
      </trkpt>
      <trkpt lat="45.32487393356859683990478515625" lon="-70.92315475456416606903076171875">
        <ele>620.4000244140625</ele>
        <time>2026-08-21T17:02:35.000Z</time>
        <extensions>
          <ns3:TrackPointExtension>
            <ns3:hr>126</ns3:hr>
            <ns3:cad>56</ns3:cad>
          </ns3:TrackPointExtension>
        </extensions>
      </trkpt>
      <trkpt lat="45.32486312091350555419921875" lon="-70.92317604459822177886962890625">
        <ele>620.4000244140625</ele>
        <time>2026-08-21T17:02:36.000Z</time>
        <extensions>
          <ns3:TrackPointExtension>
            <ns3:hr>126</ns3:hr>
            <ns3:cad>56</ns3:cad>
          </ns3:TrackPointExtension>
        </extensions>
      </trkpt>
      <trkpt lat="45.3248542360961437225341796875" lon="-70.92319917865097522735595703125">
        <ele>620.5999755859375</ele>
        <time>2026-08-21T17:02:37.000Z</time>
        <extensions>
          <ns3:TrackPointExtension>
            <ns3:hr>126</ns3:hr>
            <ns3:cad>56</ns3:cad>
          </ns3:TrackPointExtension>
        </extensions>
      </trkpt>
      <trkpt lat="45.32484694384038448333740234375" lon="-70.923220552504062652587890625">
        <ele>620.5999755859375</ele>
        <time>2026-08-21T17:02:38.000Z</time>
        <extensions>
          <ns3:TrackPointExtension>
            <ns3:hr>126</ns3:hr>
            <ns3:cad>56</ns3:cad>
          </ns3:TrackPointExtension>
        </extensions>
      </trkpt>
      <trkpt lat="45.324838645756244659423828125" lon="-70.9232376515865325927734375">
        <ele>620.5999755859375</ele>
        <time>2026-08-21T17:02:39.000Z</time>
        <extensions>
          <ns3:TrackPointExtension>
            <ns3:hr>126</ns3:hr>
            <ns3:cad>56</ns3:cad>
          </ns3:TrackPointExtension>
        </extensions>
      </trkpt>
      <trkpt lat="45.32483235932886600494384765625" lon="-70.92325785197317600250244140625">
        <ele>620.5999755859375</ele>
        <time>2026-08-21T17:02:40.000Z</time>
        <extensions>
          <ns3:TrackPointExtension>
            <ns3:hr>125</ns3:hr>
            <ns3:cad>56</ns3:cad>
          </ns3:TrackPointExtension>
        </extensions>
      </trkpt>
      <trkpt lat="45.32482481561601161956787109375" lon="-70.9232777170836925506591796875">
        <ele>620.79998779296875</ele>
        <time>2026-08-21T17:02:41.000Z</time>
        <extensions>
          <ns3:TrackPointExtension>
            <ns3:hr>125</ns3:hr>
            <ns3:cad>56</ns3:cad>
          </ns3:TrackPointExtension>
        </extensions>
      </trkpt>
      <trkpt lat="45.32481928355991840362548828125" lon="-70.9232968278229236602783203125">
        <ele>620.79998779296875</ele>
        <time>2026-08-21T17:02:42.000Z</time>
        <extensions>
          <ns3:TrackPointExtension>
            <ns3:hr>125</ns3:hr>
            <ns3:cad>56</ns3:cad>
          </ns3:TrackPointExtension>
        </extensions>
      </trkpt>
      <trkpt lat="45.3248109854757785797119140625" lon="-70.923316776752471923828125">
        <ele>620.79998779296875</ele>
        <time>2026-08-21T17:02:43.000Z</time>
        <extensions>
          <ns3:TrackPointExtension>
            <ns3:hr>125</ns3:hr>
            <ns3:cad>57</ns3:cad>
          </ns3:TrackPointExtension>
        </extensions>
      </trkpt>
      <trkpt lat="45.32480369322001934051513671875" lon="-70.92333622276782989501953125">
        <ele>620.79998779296875</ele>
        <time>2026-08-21T17:02:44.000Z</time>
        <extensions>
          <ns3:TrackPointExtension>
            <ns3:hr>126</ns3:hr>
            <ns3:cad>57</ns3:cad>
          </ns3:TrackPointExtension>
        </extensions>
      </trkpt>
      <trkpt lat="45.3247948922216892242431640625" lon="-70.9233544953167438507080078125">
        <ele>620.79998779296875</ele>
        <time>2026-08-21T17:02:45.000Z</time>
        <extensions>
          <ns3:TrackPointExtension>
            <ns3:hr>125</ns3:hr>
            <ns3:cad>57</ns3:cad>
          </ns3:TrackPointExtension>
        </extensions>
      </trkpt>
      <trkpt lat="45.32478743232786655426025390625" lon="-70.9233752824366092681884765625">
        <ele>621</ele>
        <time>2026-08-21T17:02:46.000Z</time>
        <extensions>
          <ns3:TrackPointExtension>
            <ns3:hr>126</ns3:hr>
            <ns3:cad>56</ns3:cad>
          </ns3:TrackPointExtension>
        </extensions>
      </trkpt>
      <trkpt lat="45.324780978262424468994140625" lon="-70.92339179478585720062255859375">
        <ele>621</ele>
        <time>2026-08-21T17:02:47.000Z</time>
        <extensions>
          <ns3:TrackPointExtension>
            <ns3:hr>126</ns3:hr>
            <ns3:cad>56</ns3:cad>
          </ns3:TrackPointExtension>
        </extensions>
      </trkpt>
      <trkpt lat="45.3247757814824581146240234375" lon="-70.92340906150639057159423828125">
        <ele>621</ele>
        <time>2026-08-21T17:02:48.000Z</time>
        <extensions>
          <ns3:TrackPointExtension>
            <ns3:hr>126</ns3:hr>
            <ns3:cad>56</ns3:cad>
          </ns3:TrackPointExtension>
        </extensions>
      </trkpt>
      <trkpt lat="45.324769578874111175537109375" lon="-70.923426412045955657958984375">
        <ele>621</ele>
        <time>2026-08-21T17:02:49.000Z</time>
        <extensions>
          <ns3:TrackPointExtension>
            <ns3:hr>126</ns3:hr>
            <ns3:cad>56</ns3:cad>
          </ns3:TrackPointExtension>
        </extensions>
      </trkpt>
      <trkpt lat="45.32475985586643218994140625" lon="-70.92345155775547027587890625">
        <ele>621.20001220703125</ele>
        <time>2026-08-21T17:02:50.000Z</time>
        <extensions>
          <ns3:TrackPointExtension>
            <ns3:hr>126</ns3:hr>
            <ns3:cad>56</ns3:cad>
          </ns3:TrackPointExtension>
        </extensions>
      </trkpt>
      <trkpt lat="45.324754156172275543212890625" lon="-70.9234678186476230621337890625">
        <ele>621.20001220703125</ele>
        <time>2026-08-21T17:02:51.000Z</time>
        <extensions>
          <ns3:TrackPointExtension>
            <ns3:hr>126</ns3:hr>
            <ns3:cad>57</ns3:cad>
          </ns3:TrackPointExtension>
        </extensions>
      </trkpt>
      <trkpt lat="45.3247469477355480194091796875" lon="-70.9234865941107273101806640625">
        <ele>621.20001220703125</ele>
        <time>2026-08-21T17:02:52.000Z</time>
        <extensions>
          <ns3:TrackPointExtension>
            <ns3:hr>126</ns3:hr>
            <ns3:cad>57</ns3:cad>
          </ns3:TrackPointExtension>
        </extensions>
      </trkpt>
      <trkpt lat="45.32474082894623279571533203125" lon="-70.92350780032575130462646484375">
        <ele>621.20001220703125</ele>
        <time>2026-08-21T17:02:53.000Z</time>
        <extensions>
          <ns3:TrackPointExtension>
            <ns3:hr>127</ns3:hr>
            <ns3:cad>57</ns3:cad>
          </ns3:TrackPointExtension>
        </extensions>
      </trkpt>
      <trkpt lat="45.324732363224029541015625" lon="-70.92353194020688533782958984375">
        <ele>621.4000244140625</ele>
        <time>2026-08-21T17:02:54.000Z</time>
        <extensions>
          <ns3:TrackPointExtension>
            <ns3:hr>127</ns3:hr>
            <ns3:cad>57</ns3:cad>
          </ns3:TrackPointExtension>
        </extensions>
      </trkpt>
      <trkpt lat="45.32472490333020687103271484375" lon="-70.923555828630924224853515625">
        <ele>621.4000244140625</ele>
        <time>2026-08-21T17:02:55.000Z</time>
        <extensions>
          <ns3:TrackPointExtension>
            <ns3:hr>127</ns3:hr>
            <ns3:cad>57</ns3:cad>
          </ns3:TrackPointExtension>
        </extensions>
      </trkpt>
      <trkpt lat="45.324717946350574493408203125" lon="-70.9235782921314239501953125">
        <ele>621.4000244140625</ele>
        <time>2026-08-21T17:02:56.000Z</time>
        <extensions>
          <ns3:TrackPointExtension>
            <ns3:hr>127</ns3:hr>
            <ns3:cad>57</ns3:cad>
          </ns3:TrackPointExtension>
        </extensions>
      </trkpt>
      <trkpt lat="45.32471157610416412353515625" lon="-70.92359513975679874420166015625">
        <ele>621.5999755859375</ele>
        <time>2026-08-21T17:02:57.000Z</time>
        <extensions>
          <ns3:TrackPointExtension>
            <ns3:hr>127</ns3:hr>
            <ns3:cad>57</ns3:cad>
          </ns3:TrackPointExtension>
        </extensions>
      </trkpt>
      <trkpt lat="45.32470579259097576141357421875" lon="-70.9236143343150615692138671875">
        <ele>621.5999755859375</ele>
        <time>2026-08-21T17:02:58.000Z</time>
        <extensions>
          <ns3:TrackPointExtension>
            <ns3:hr>128</ns3:hr>
            <ns3:cad>58</ns3:cad>
          </ns3:TrackPointExtension>
        </extensions>
      </trkpt>
      <trkpt lat="45.32469548285007476806640625" lon="-70.92363486997783184051513671875">
        <ele>621.5999755859375</ele>
        <time>2026-08-21T17:02:59.000Z</time>
        <extensions>
          <ns3:TrackPointExtension>
            <ns3:hr>127</ns3:hr>
            <ns3:cad>58</ns3:cad>
          </ns3:TrackPointExtension>
        </extensions>
      </trkpt>
      <trkpt lat="45.32468986697494983673095703125" lon="-70.9236518852412700653076171875">
        <ele>621.5999755859375</ele>
        <time>2026-08-21T17:03:00.000Z</time>
        <extensions>
          <ns3:TrackPointExtension>
            <ns3:hr>127</ns3:hr>
            <ns3:cad>57</ns3:cad>
          </ns3:TrackPointExtension>
        </extensions>
      </trkpt>
      <trkpt lat="45.32468433491885662078857421875" lon="-70.92367376200854778289794921875">
        <ele>621.79998779296875</ele>
        <time>2026-08-21T17:03:01.000Z</time>
        <extensions>
          <ns3:TrackPointExtension>
            <ns3:hr>128</ns3:hr>
            <ns3:cad>57</ns3:cad>
          </ns3:TrackPointExtension>
        </extensions>
      </trkpt>
      <trkpt lat="45.3246795572340488433837890625" lon="-70.92369421385228633880615234375">
        <ele>621.79998779296875</ele>
        <time>2026-08-21T17:03:02.000Z</time>
        <extensions>
          <ns3:TrackPointExtension>
            <ns3:hr>127</ns3:hr>
            <ns3:cad>57</ns3:cad>
          </ns3:TrackPointExtension>
        </extensions>
      </trkpt>
      <trkpt lat="45.3246755339205265045166015625" lon="-70.92371449805796146392822265625">
        <ele>621.79998779296875</ele>
        <time>2026-08-21T17:03:03.000Z</time>
        <extensions>
          <ns3:TrackPointExtension>
            <ns3:hr>127</ns3:hr>
            <ns3:cad>57</ns3:cad>
          </ns3:TrackPointExtension>
        </extensions>
      </trkpt>
      <trkpt lat="45.324671678245067596435546875" lon="-70.92373360879719257354736328125">
        <ele>621.79998779296875</ele>
        <time>2026-08-21T17:03:04.000Z</time>
        <extensions>
          <ns3:TrackPointExtension>
            <ns3:hr>126</ns3:hr>
            <ns3:cad>57</ns3:cad>
          </ns3:TrackPointExtension>
        </extensions>
      </trkpt>
      <trkpt lat="45.32466623000800609588623046875" lon="-70.92375623993575572967529296875">
        <ele>621.79998779296875</ele>
        <time>2026-08-21T17:03:05.000Z</time>
        <extensions>
          <ns3:TrackPointExtension>
            <ns3:hr>126</ns3:hr>
            <ns3:cad>56</ns3:cad>
          </ns3:TrackPointExtension>
        </extensions>
      </trkpt>
      <trkpt lat="45.3246601112186908721923828125" lon="-70.92377350665628910064697265625">
        <ele>621.79998779296875</ele>
        <time>2026-08-21T17:03:06.000Z</time>
        <extensions>
          <ns3:TrackPointExtension>
            <ns3:hr>125</ns3:hr>
            <ns3:cad>56</ns3:cad>
          </ns3:TrackPointExtension>
        </extensions>
      </trkpt>
      <trkpt lat="45.3246534056961536407470703125" lon="-70.92379110865294933319091796875">
        <ele>622</ele>
        <time>2026-08-21T17:03:07.000Z</time>
        <extensions>
          <ns3:TrackPointExtension>
            <ns3:hr>125</ns3:hr>
            <ns3:cad>56</ns3:cad>
          </ns3:TrackPointExtension>
        </extensions>
      </trkpt>
      <trkpt lat="45.32464628107845783233642578125" lon="-70.923811309039592742919921875">
        <ele>622</ele>
        <time>2026-08-21T17:03:08.000Z</time>
        <extensions>
          <ns3:TrackPointExtension>
            <ns3:hr>124</ns3:hr>
            <ns3:cad>56</ns3:cad>
          </ns3:TrackPointExtension>
        </extensions>
      </trkpt>
      <trkpt lat="45.32464024610817432403564453125" lon="-70.92383167706429958343505859375">
        <ele>622</ele>
        <time>2026-08-21T17:03:09.000Z</time>
        <extensions>
          <ns3:TrackPointExtension>
            <ns3:hr>124</ns3:hr>
            <ns3:cad>56</ns3:cad>
          </ns3:TrackPointExtension>
        </extensions>
      </trkpt>
      <trkpt lat="45.324634797871112823486328125" lon="-70.92385414056479930877685546875">
        <ele>622</ele>
        <time>2026-08-21T17:03:10.000Z</time>
        <extensions>
          <ns3:TrackPointExtension>
            <ns3:hr>124</ns3:hr>
            <ns3:cad>55</ns3:cad>
          </ns3:TrackPointExtension>
        </extensions>
      </trkpt>
      <trkpt lat="45.324628762900829315185546875" lon="-70.9238751791417598724365234375">
        <ele>622.20001220703125</ele>
        <time>2026-08-21T17:03:11.000Z</time>
        <extensions>
          <ns3:TrackPointExtension>
            <ns3:hr>124</ns3:hr>
            <ns3:cad>55</ns3:cad>
          </ns3:TrackPointExtension>
        </extensions>
      </trkpt>
      <trkpt lat="45.32461828552186489105224609375" lon="-70.92389889992773532867431640625">
        <ele>622.20001220703125</ele>
        <time>2026-08-21T17:03:12.000Z</time>
        <extensions>
          <ns3:TrackPointExtension>
            <ns3:hr>124</ns3:hr>
            <ns3:cad>55</ns3:cad>
          </ns3:TrackPointExtension>
        </extensions>
      </trkpt>
      <trkpt lat="45.3246125020086765289306640625" lon="-70.92392119579017162322998046875">
        <ele>622.4000244140625</ele>
        <time>2026-08-21T17:03:13.000Z</time>
        <extensions>
          <ns3:TrackPointExtension>
            <ns3:hr>123</ns3:hr>
            <ns3:cad>57</ns3:cad>
          </ns3:TrackPointExtension>
        </extensions>
      </trkpt>
      <trkpt lat="45.32460319809615612030029296875" lon="-70.92394030652940273284912109375">
        <ele>622.4000244140625</ele>
        <time>2026-08-21T17:03:14.000Z</time>
        <extensions>
          <ns3:TrackPointExtension>
            <ns3:hr>124</ns3:hr>
            <ns3:cad>57</ns3:cad>
          </ns3:TrackPointExtension>
        </extensions>
      </trkpt>
      <trkpt lat="45.3245974145829677581787109375" lon="-70.9239586628973484039306640625">
        <ele>622.5999755859375</ele>
        <time>2026-08-21T17:03:15.000Z</time>
        <extensions>
          <ns3:TrackPointExtension>
            <ns3:hr>124</ns3:hr>
            <ns3:cad>56</ns3:cad>
          </ns3:TrackPointExtension>
        </extensions>
      </trkpt>
      <trkpt lat="45.32459213398396968841552734375" lon="-70.9239767678081989288330078125">
        <ele>622.5999755859375</ele>
        <time>2026-08-21T17:03:16.000Z</time>
        <extensions>
          <ns3:TrackPointExtension>
            <ns3:hr>124</ns3:hr>
            <ns3:cad>56</ns3:cad>
          </ns3:TrackPointExtension>
        </extensions>
      </trkpt>
      <trkpt lat="45.3245850093662738800048828125" lon="-70.92399277724325656890869140625">
        <ele>622.5999755859375</ele>
        <time>2026-08-21T17:03:17.000Z</time>
        <extensions>
          <ns3:TrackPointExtension>
            <ns3:hr>124</ns3:hr>
            <ns3:cad>56</ns3:cad>
          </ns3:TrackPointExtension>
        </extensions>
      </trkpt>
      <trkpt lat="45.3245772980153560638427734375" lon="-70.92401457019150257110595703125">
        <ele>622.5999755859375</ele>
        <time>2026-08-21T17:03:18.000Z</time>
        <extensions>
          <ns3:TrackPointExtension>
            <ns3:hr>124</ns3:hr>
            <ns3:cad>57</ns3:cad>
          </ns3:TrackPointExtension>
        </extensions>
      </trkpt>
      <trkpt lat="45.32457335852086544036865234375" lon="-70.9240320883691310882568359375">
        <ele>622.79998779296875</ele>
        <time>2026-08-21T17:03:19.000Z</time>
        <extensions>
          <ns3:TrackPointExtension>
            <ns3:hr>124</ns3:hr>
            <ns3:cad>57</ns3:cad>
          </ns3:TrackPointExtension>
        </extensions>
      </trkpt>
      <trkpt lat="45.32456715591251850128173828125" lon="-70.9240495227277278900146484375">
        <ele>622.79998779296875</ele>
        <time>2026-08-21T17:03:20.000Z</time>
        <extensions>
          <ns3:TrackPointExtension>
            <ns3:hr>124</ns3:hr>
            <ns3:cad>57</ns3:cad>
          </ns3:TrackPointExtension>
        </extensions>
      </trkpt>
      <trkpt lat="45.324561037123203277587890625" lon="-70.92406922020018100738525390625">
        <ele>622.79998779296875</ele>
        <time>2026-08-21T17:03:21.000Z</time>
        <extensions>
          <ns3:TrackPointExtension>
            <ns3:hr>125</ns3:hr>
            <ns3:cad>57</ns3:cad>
          </ns3:TrackPointExtension>
        </extensions>
      </trkpt>
      <trkpt lat="45.3245568461716175079345703125" lon="-70.92408648692071437835693359375">
        <ele>623</ele>
        <time>2026-08-21T17:03:22.000Z</time>
        <extensions>
          <ns3:TrackPointExtension>
            <ns3:hr>125</ns3:hr>
            <ns3:cad>57</ns3:cad>
          </ns3:TrackPointExtension>
        </extensions>
      </trkpt>
      <trkpt lat="45.324550308287143707275390625" lon="-70.92410576529800891876220703125">
        <ele>623.20001220703125</ele>
        <time>2026-08-21T17:03:23.000Z</time>
        <extensions>
          <ns3:TrackPointExtension>
            <ns3:hr>125</ns3:hr>
            <ns3:cad>57</ns3:cad>
          </ns3:TrackPointExtension>
        </extensions>
      </trkpt>
      <trkpt lat="45.3245397470891475677490234375" lon="-70.9241256304085254669189453125">
        <ele>623.20001220703125</ele>
        <time>2026-08-21T17:03:24.000Z</time>
        <extensions>
          <ns3:TrackPointExtension>
            <ns3:hr>125</ns3:hr>
            <ns3:cad>57</ns3:cad>
          </ns3:TrackPointExtension>
        </extensions>
      </trkpt>
      <trkpt lat="45.32453044317662715911865234375" lon="-70.92414759099483489990234375">
        <ele>623.4000244140625</ele>
        <time>2026-08-21T17:03:25.000Z</time>
        <extensions>
          <ns3:TrackPointExtension>
            <ns3:hr>125</ns3:hr>
            <ns3:cad>57</ns3:cad>
          </ns3:TrackPointExtension>
        </extensions>
      </trkpt>
      <trkpt lat="45.3245196305215358734130859375" lon="-70.92416376806795597076416015625">
        <ele>623.4000244140625</ele>
        <time>2026-08-21T17:03:26.000Z</time>
        <extensions>
          <ns3:TrackPointExtension>
            <ns3:hr>125</ns3:hr>
            <ns3:cad>57</ns3:cad>
          </ns3:TrackPointExtension>
        </extensions>
      </trkpt>
      <trkpt lat="45.32451049424707889556884765625" lon="-70.92417734675109386444091796875">
        <ele>623.4000244140625</ele>
        <time>2026-08-21T17:03:27.000Z</time>
        <extensions>
          <ns3:TrackPointExtension>
            <ns3:hr>125</ns3:hr>
            <ns3:cad>56</ns3:cad>
          </ns3:TrackPointExtension>
        </extensions>
      </trkpt>
      <trkpt lat="45.3245011903345584869384765625" lon="-70.9241973794996738433837890625">
        <ele>623.5999755859375</ele>
        <time>2026-08-21T17:03:28.000Z</time>
        <extensions>
          <ns3:TrackPointExtension>
            <ns3:hr>124</ns3:hr>
            <ns3:cad>56</ns3:cad>
          </ns3:TrackPointExtension>
        </extensions>
      </trkpt>
      <trkpt lat="45.3244928084313869476318359375" lon="-70.924216993153095245361328125">
        <ele>623.5999755859375</ele>
        <time>2026-08-21T17:03:29.000Z</time>
        <extensions>
          <ns3:TrackPointExtension>
            <ns3:hr>124</ns3:hr>
            <ns3:cad>56</ns3:cad>
          </ns3:TrackPointExtension>
        </extensions>
      </trkpt>
      <trkpt lat="45.32448585145175457000732421875" lon="-70.92423937283456325531005859375">
        <ele>623.5999755859375</ele>
        <time>2026-08-21T17:03:30.000Z</time>
        <extensions>
          <ns3:TrackPointExtension>
            <ns3:hr>124</ns3:hr>
            <ns3:cad>56</ns3:cad>
          </ns3:TrackPointExtension>
        </extensions>
      </trkpt>
      <trkpt lat="45.32447931356728076934814453125" lon="-70.9242614172399044036865234375">
        <ele>623.5999755859375</ele>
        <time>2026-08-21T17:03:31.000Z</time>
        <extensions>
          <ns3:TrackPointExtension>
            <ns3:hr>124</ns3:hr>
            <ns3:cad>56</ns3:cad>
          </ns3:TrackPointExtension>
        </extensions>
      </trkpt>
      <trkpt lat="45.32447093166410923004150390625" lon="-70.9242811985313892364501953125">
        <ele>623.5999755859375</ele>
        <time>2026-08-21T17:03:32.000Z</time>
        <extensions>
          <ns3:TrackPointExtension>
            <ns3:hr>124</ns3:hr>
            <ns3:cad>56</ns3:cad>
          </ns3:TrackPointExtension>
        </extensions>
      </trkpt>
      <trkpt lat="45.32446347177028656005859375" lon="-70.92429938726127147674560546875">
        <ele>623.79998779296875</ele>
        <time>2026-08-21T17:03:33.000Z</time>
        <extensions>
          <ns3:TrackPointExtension>
            <ns3:hr>124</ns3:hr>
            <ns3:cad>56</ns3:cad>
          </ns3:TrackPointExtension>
        </extensions>
      </trkpt>
      <trkpt lat="45.3244535811245441436767578125" lon="-70.92431480996310710906982421875">
        <ele>623.79998779296875</ele>
        <time>2026-08-21T17:03:34.000Z</time>
        <extensions>
          <ns3:TrackPointExtension>
            <ns3:hr>124</ns3:hr>
            <ns3:cad>56</ns3:cad>
          </ns3:TrackPointExtension>
        </extensions>
      </trkpt>
      <trkpt lat="45.32444360665977001190185546875" lon="-70.924335010349750518798828125">
        <ele>623.79998779296875</ele>
        <time>2026-08-21T17:03:35.000Z</time>
        <extensions>
          <ns3:TrackPointExtension>
            <ns3:hr>125</ns3:hr>
            <ns3:cad>56</ns3:cad>
          </ns3:TrackPointExtension>
        </extensions>
      </trkpt>
      <trkpt lat="45.3244301117956638336181640625" lon="-70.92435202561318874359130859375">
        <ele>623.79998779296875</ele>
        <time>2026-08-21T17:03:36.000Z</time>
        <extensions>
          <ns3:TrackPointExtension>
            <ns3:hr>126</ns3:hr>
            <ns3:cad>56</ns3:cad>
          </ns3:TrackPointExtension>
        </extensions>
      </trkpt>
      <trkpt lat="45.32442097552120685577392578125" lon="-70.92436945997178554534912109375">
        <ele>623.79998779296875</ele>
        <time>2026-08-21T17:03:37.000Z</time>
        <extensions>
          <ns3:TrackPointExtension>
            <ns3:hr>126</ns3:hr>
            <ns3:cad>55</ns3:cad>
          </ns3:TrackPointExtension>
        </extensions>
      </trkpt>
      <trkpt lat="45.3244133479893207550048828125" lon="-70.9243869781494140625">
        <ele>623.79998779296875</ele>
        <time>2026-08-21T17:03:38.000Z</time>
        <extensions>
          <ns3:TrackPointExtension>
            <ns3:hr>125</ns3:hr>
            <ns3:cad>55</ns3:cad>
          </ns3:TrackPointExtension>
        </extensions>
      </trkpt>
      <trkpt lat="45.32440312206745147705078125" lon="-70.92440097592771053314208984375">
        <ele>623.79998779296875</ele>
        <time>2026-08-21T17:03:39.000Z</time>
        <extensions>
          <ns3:TrackPointExtension>
            <ns3:hr>124</ns3:hr>
            <ns3:cad>55</ns3:cad>
          </ns3:TrackPointExtension>
        </extensions>
      </trkpt>
      <trkpt lat="45.3243908844888210296630859375" lon="-70.92441438697278499603271484375">
        <ele>623.79998779296875</ele>
        <time>2026-08-21T17:03:40.000Z</time>
        <extensions>
          <ns3:TrackPointExtension>
            <ns3:hr>123</ns3:hr>
            <ns3:cad>57</ns3:cad>
          </ns3:TrackPointExtension>
        </extensions>
      </trkpt>
      <trkpt lat="45.3243823349475860595703125" lon="-70.92443014495074748992919921875">
        <ele>623.79998779296875</ele>
        <time>2026-08-21T17:03:41.000Z</time>
        <extensions>
          <ns3:TrackPointExtension>
            <ns3:hr>122</ns3:hr>
            <ns3:cad>57</ns3:cad>
          </ns3:TrackPointExtension>
        </extensions>
      </trkpt>
      <trkpt lat="45.32437219284474849700927734375" lon="-70.92444489710032939910888671875">
        <ele>623.79998779296875</ele>
        <time>2026-08-21T17:03:42.000Z</time>
        <extensions>
          <ns3:TrackPointExtension>
            <ns3:hr>121</ns3:hr>
            <ns3:cad>58</ns3:cad>
          </ns3:TrackPointExtension>
        </extensions>
      </trkpt>
      <trkpt lat="45.3243623860180377960205078125" lon="-70.9244595654308795928955078125">
        <ele>623.79998779296875</ele>
        <time>2026-08-21T17:03:43.000Z</time>
        <extensions>
          <ns3:TrackPointExtension>
            <ns3:hr>121</ns3:hr>
            <ns3:cad>58</ns3:cad>
          </ns3:TrackPointExtension>
        </extensions>
      </trkpt>
      <trkpt lat="45.32435475848615169525146484375" lon="-70.92447641305625438690185546875">
        <ele>623.79998779296875</ele>
        <time>2026-08-21T17:03:44.000Z</time>
        <extensions>
          <ns3:TrackPointExtension>
            <ns3:hr>120</ns3:hr>
            <ns3:cad>58</ns3:cad>
          </ns3:TrackPointExtension>
        </extensions>
      </trkpt>
      <trkpt lat="45.32434503547847270965576171875" lon="-70.92449317686259746551513671875">
        <ele>623.79998779296875</ele>
        <time>2026-08-21T17:03:45.000Z</time>
        <extensions>
          <ns3:TrackPointExtension>
            <ns3:hr>120</ns3:hr>
            <ns3:cad>58</ns3:cad>
          </ns3:TrackPointExtension>
        </extensions>
      </trkpt>
      <trkpt lat="45.32433070242404937744140625" lon="-70.9245095215737819671630859375">
        <ele>623.79998779296875</ele>
        <time>2026-08-21T17:03:46.000Z</time>
        <extensions>
          <ns3:TrackPointExtension>
            <ns3:hr>120</ns3:hr>
            <ns3:cad>58</ns3:cad>
          </ns3:TrackPointExtension>
        </extensions>
      </trkpt>
      <trkpt lat="45.32431502826511859893798828125" lon="-70.9245264530181884765625">
        <ele>623.79998779296875</ele>
        <time>2026-08-21T17:03:47.000Z</time>
        <extensions>
          <ns3:TrackPointExtension>
            <ns3:hr>119</ns3:hr>
            <ns3:cad>58</ns3:cad>
          </ns3:TrackPointExtension>
        </extensions>
      </trkpt>
      <trkpt lat="45.32430346123874187469482421875" lon="-70.92453642748296260833740234375">
        <ele>623.79998779296875</ele>
        <time>2026-08-21T17:03:48.000Z</time>
        <extensions>
          <ns3:TrackPointExtension>
            <ns3:hr>119</ns3:hr>
            <ns3:cad>58</ns3:cad>
          </ns3:TrackPointExtension>
        </extensions>
      </trkpt>
      <trkpt lat="45.32429122366011142730712890625" lon="-70.92455252073705196380615234375">
        <ele>623.79998779296875</ele>
        <time>2026-08-21T17:03:49.000Z</time>
        <extensions>
          <ns3:TrackPointExtension>
            <ns3:hr>119</ns3:hr>
            <ns3:cad>58</ns3:cad>
          </ns3:TrackPointExtension>
        </extensions>
      </trkpt>
      <trkpt lat="45.32427865080535411834716796875" lon="-70.92456693761050701141357421875">
        <ele>623.79998779296875</ele>
        <time>2026-08-21T17:03:50.000Z</time>
        <extensions>
          <ns3:TrackPointExtension>
            <ns3:hr>118</ns3:hr>
            <ns3:cad>58</ns3:cad>
          </ns3:TrackPointExtension>
        </extensions>
      </trkpt>
      <trkpt lat="45.3242695145308971405029296875" lon="-70.92458621598780155181884765625">
        <ele>623.79998779296875</ele>
        <time>2026-08-21T17:03:51.000Z</time>
        <extensions>
          <ns3:TrackPointExtension>
            <ns3:hr>118</ns3:hr>
            <ns3:cad>58</ns3:cad>
          </ns3:TrackPointExtension>
        </extensions>
      </trkpt>
      <trkpt lat="45.32425987534224987030029296875" lon="-70.9246074222028255462646484375">
        <ele>623.79998779296875</ele>
        <time>2026-08-21T17:03:52.000Z</time>
        <extensions>
          <ns3:TrackPointExtension>
            <ns3:hr>118</ns3:hr>
            <ns3:cad>56</ns3:cad>
          </ns3:TrackPointExtension>
        </extensions>
      </trkpt>
      <trkpt lat="45.32424780540168285369873046875" lon="-70.92462594620883464813232421875">
        <ele>624</ele>
        <time>2026-08-21T17:03:53.000Z</time>
        <extensions>
          <ns3:TrackPointExtension>
            <ns3:hr>118</ns3:hr>
            <ns3:cad>56</ns3:cad>
          </ns3:TrackPointExtension>
        </extensions>
      </trkpt>
      <trkpt lat="45.3242383338510990142822265625" lon="-70.92464371584355831146240234375">
        <ele>624</ele>
        <time>2026-08-21T17:03:54.000Z</time>
        <extensions>
          <ns3:TrackPointExtension>
            <ns3:hr>118</ns3:hr>
            <ns3:cad>56</ns3:cad>
          </ns3:TrackPointExtension>
        </extensions>
      </trkpt>
      <trkpt lat="45.3242299519479274749755859375" lon="-70.92466265894472599029541015625">
        <ele>624</ele>
        <time>2026-08-21T17:03:55.000Z</time>
        <extensions>
          <ns3:TrackPointExtension>
            <ns3:hr>118</ns3:hr>
            <ns3:cad>57</ns3:cad>
          </ns3:TrackPointExtension>
        </extensions>
      </trkpt>
      <trkpt lat="45.32422131858766078948974609375" lon="-70.9246795065701007843017578125">
        <ele>624</ele>
        <time>2026-08-21T17:03:56.000Z</time>
        <extensions>
          <ns3:TrackPointExtension>
            <ns3:hr>118</ns3:hr>
            <ns3:cad>57</ns3:cad>
          </ns3:TrackPointExtension>
        </extensions>
      </trkpt>
      <trkpt lat="45.32421511597931385040283203125" lon="-70.9246969409286975860595703125">
        <ele>624</ele>
        <time>2026-08-21T17:03:57.000Z</time>
        <extensions>
          <ns3:TrackPointExtension>
            <ns3:hr>118</ns3:hr>
            <ns3:cad>57</ns3:cad>
          </ns3:TrackPointExtension>
        </extensions>
      </trkpt>
      <trkpt lat="45.3242051415145397186279296875" lon="-70.9247120283544063568115234375">
        <ele>624.20001220703125</ele>
        <time>2026-08-21T17:03:58.000Z</time>
        <extensions>
          <ns3:TrackPointExtension>
            <ns3:hr>118</ns3:hr>
            <ns3:cad>57</ns3:cad>
          </ns3:TrackPointExtension>
        </extensions>
      </trkpt>
      <trkpt lat="45.3241930715739727020263671875" lon="-70.9247244335711002349853515625">
        <ele>624.20001220703125</ele>
        <time>2026-08-21T17:03:59.000Z</time>
        <extensions>
          <ns3:TrackPointExtension>
            <ns3:hr>118</ns3:hr>
            <ns3:cad>57</ns3:cad>
          </ns3:TrackPointExtension>
        </extensions>
      </trkpt>
      <trkpt lat="45.324182175099849700927734375" lon="-70.9247410297393798828125">
        <ele>624.20001220703125</ele>
        <time>2026-08-21T17:04:00.000Z</time>
        <extensions>
          <ns3:TrackPointExtension>
            <ns3:hr>117</ns3:hr>
            <ns3:cad>56</ns3:cad>
          </ns3:TrackPointExtension>
        </extensions>
      </trkpt>
      <trkpt lat="45.32417153008282184600830078125" lon="-70.92476181685924530029296875">
        <ele>624.20001220703125</ele>
        <time>2026-08-21T17:04:01.000Z</time>
        <extensions>
          <ns3:TrackPointExtension>
            <ns3:hr>117</ns3:hr>
            <ns3:cad>56</ns3:cad>
          </ns3:TrackPointExtension>
        </extensions>
      </trkpt>
      <trkpt lat="45.32416306436061859130859375" lon="-70.92478000558912754058837890625">
        <ele>624.4000244140625</ele>
        <time>2026-08-21T17:04:02.000Z</time>
        <extensions>
          <ns3:TrackPointExtension>
            <ns3:hr>117</ns3:hr>
            <ns3:cad>56</ns3:cad>
          </ns3:TrackPointExtension>
        </extensions>
      </trkpt>
      <trkpt lat="45.32415258698165416717529296875" lon="-70.92479710467159748077392578125">
        <ele>624.4000244140625</ele>
        <time>2026-08-21T17:04:03.000Z</time>
        <extensions>
          <ns3:TrackPointExtension>
            <ns3:hr>117</ns3:hr>
            <ns3:cad>56</ns3:cad>
          </ns3:TrackPointExtension>
        </extensions>
      </trkpt>
      <trkpt lat="45.32414563000202178955078125" lon="-70.92481655068695545196533203125">
        <ele>624.4000244140625</ele>
        <time>2026-08-21T17:04:04.000Z</time>
        <extensions>
          <ns3:TrackPointExtension>
            <ns3:hr>117</ns3:hr>
            <ns3:cad>56</ns3:cad>
          </ns3:TrackPointExtension>
        </extensions>
      </trkpt>
      <trkpt lat="45.3241343982517719268798828125" lon="-70.9248367510735988616943359375">
        <ele>624.5999755859375</ele>
        <time>2026-08-21T17:04:05.000Z</time>
        <extensions>
          <ns3:TrackPointExtension>
            <ns3:hr>117</ns3:hr>
            <ns3:cad>56</ns3:cad>
          </ns3:TrackPointExtension>
        </extensions>
      </trkpt>
      <trkpt lat="45.32412425614893436431884765625" lon="-70.92485661618411540985107421875">
        <ele>624.5999755859375</ele>
        <time>2026-08-21T17:04:06.000Z</time>
        <extensions>
          <ns3:TrackPointExtension>
            <ns3:hr>117</ns3:hr>
            <ns3:cad>56</ns3:cad>
          </ns3:TrackPointExtension>
        </extensions>
      </trkpt>
      <trkpt lat="45.324118137359619140625" lon="-70.9248759783804416656494140625">
        <ele>624.79998779296875</ele>
        <time>2026-08-21T17:04:07.000Z</time>
        <extensions>
          <ns3:TrackPointExtension>
            <ns3:hr>117</ns3:hr>
            <ns3:cad>56</ns3:cad>
          </ns3:TrackPointExtension>
        </extensions>
      </trkpt>
      <trkpt lat="45.32411067746579647064208984375" lon="-70.924896933138370513916015625">
        <ele>624.79998779296875</ele>
        <time>2026-08-21T17:04:08.000Z</time>
        <extensions>
          <ns3:TrackPointExtension>
            <ns3:hr>118</ns3:hr>
            <ns3:cad>56</ns3:cad>
          </ns3:TrackPointExtension>
        </extensions>
      </trkpt>
      <trkpt lat="45.32410380430519580841064453125" lon="-70.92492015101015567779541015625">
        <ele>624.79998779296875</ele>
        <time>2026-08-21T17:04:09.000Z</time>
        <extensions>
          <ns3:TrackPointExtension>
            <ns3:hr>119</ns3:hr>
            <ns3:cad>56</ns3:cad>
          </ns3:TrackPointExtension>
        </extensions>
      </trkpt>
      <trkpt lat="45.32409626059234142303466796875" lon="-70.92494286596775054931640625">
        <ele>625</ele>
        <time>2026-08-21T17:04:10.000Z</time>
        <extensions>
          <ns3:TrackPointExtension>
            <ns3:hr>120</ns3:hr>
            <ns3:cad>56</ns3:cad>
          </ns3:TrackPointExtension>
        </extensions>
      </trkpt>
      <trkpt lat="45.32408620230853557586669921875" lon="-70.92496356926858425140380859375">
        <ele>625</ele>
        <time>2026-08-21T17:04:11.000Z</time>
        <extensions>
          <ns3:TrackPointExtension>
            <ns3:hr>121</ns3:hr>
            <ns3:cad>56</ns3:cad>
          </ns3:TrackPointExtension>
        </extensions>
      </trkpt>
      <trkpt lat="45.32408083789050579071044921875" lon="-70.924982093274593353271484375">
        <ele>625</ele>
        <time>2026-08-21T17:04:12.000Z</time>
        <extensions>
          <ns3:TrackPointExtension>
            <ns3:hr>122</ns3:hr>
            <ns3:cad>56</ns3:cad>
          </ns3:TrackPointExtension>
        </extensions>
      </trkpt>
      <trkpt lat="45.3240792453289031982421875" lon="-70.9250060655176639556884765625">
        <ele>625</ele>
        <time>2026-08-21T17:04:13.000Z</time>
        <extensions>
          <ns3:TrackPointExtension>
            <ns3:hr>122</ns3:hr>
            <ns3:cad>56</ns3:cad>
          </ns3:TrackPointExtension>
        </extensions>
      </trkpt>
      <trkpt lat="45.32407279126346111297607421875" lon="-70.9250265173614025115966796875">
        <ele>625</ele>
        <time>2026-08-21T17:04:14.000Z</time>
        <extensions>
          <ns3:TrackPointExtension>
            <ns3:hr>123</ns3:hr>
            <ns3:cad>56</ns3:cad>
          </ns3:TrackPointExtension>
        </extensions>
      </trkpt>
      <trkpt lat="45.32406742684543132781982421875" lon="-70.9250454604625701904296875">
        <ele>625</ele>
        <time>2026-08-21T17:04:15.000Z</time>
        <extensions>
          <ns3:TrackPointExtension>
            <ns3:hr>123</ns3:hr>
            <ns3:cad>56</ns3:cad>
          </ns3:TrackPointExtension>
        </extensions>
      </trkpt>
      <trkpt lat="45.32406021840870380401611328125" lon="-70.925066582858562469482421875">
        <ele>625</ele>
        <time>2026-08-21T17:04:16.000Z</time>
        <extensions>
          <ns3:TrackPointExtension>
            <ns3:hr>124</ns3:hr>
            <ns3:cad>56</ns3:cad>
          </ns3:TrackPointExtension>
        </extensions>
      </trkpt>
      <trkpt lat="45.32405552454292774200439453125" lon="-70.92508778907358646392822265625">
        <ele>625</ele>
        <time>2026-08-21T17:04:17.000Z</time>
        <extensions>
          <ns3:TrackPointExtension>
            <ns3:hr>124</ns3:hr>
            <ns3:cad>56</ns3:cad>
          </ns3:TrackPointExtension>
        </extensions>
      </trkpt>
      <trkpt lat="45.32404907047748565673828125" lon="-70.925108157098293304443359375">
        <ele>625.20001220703125</ele>
        <time>2026-08-21T17:04:18.000Z</time>
        <extensions>
          <ns3:TrackPointExtension>
            <ns3:hr>124</ns3:hr>
            <ns3:cad>56</ns3:cad>
          </ns3:TrackPointExtension>
        </extensions>
      </trkpt>
      <trkpt lat="45.32404446043074131011962890625" lon="-70.92512869276106357574462890625">
        <ele>625.20001220703125</ele>
        <time>2026-08-21T17:04:19.000Z</time>
        <extensions>
          <ns3:TrackPointExtension>
            <ns3:hr>124</ns3:hr>
            <ns3:cad>56</ns3:cad>
          </ns3:TrackPointExtension>
        </extensions>
      </trkpt>
      <trkpt lat="45.3240378387272357940673828125" lon="-70.9251502342522144317626953125">
        <ele>625.4000244140625</ele>
        <time>2026-08-21T17:04:20.000Z</time>
        <extensions>
          <ns3:TrackPointExtension>
            <ns3:hr>124</ns3:hr>
            <ns3:cad>56</ns3:cad>
          </ns3:TrackPointExtension>
        </extensions>
      </trkpt>
      <trkpt lat="45.32403356395661830902099609375" lon="-70.92516993172466754913330078125">
        <ele>625.4000244140625</ele>
        <time>2026-08-21T17:04:21.000Z</time>
        <extensions>
          <ns3:TrackPointExtension>
            <ns3:hr>124</ns3:hr>
            <ns3:cad>56</ns3:cad>
          </ns3:TrackPointExtension>
        </extensions>
      </trkpt>
      <trkpt lat="45.3240284509956836700439453125" lon="-70.925190635025501251220703125">
        <ele>625.4000244140625</ele>
        <time>2026-08-21T17:04:22.000Z</time>
        <extensions>
          <ns3:TrackPointExtension>
            <ns3:hr>125</ns3:hr>
            <ns3:cad>56</ns3:cad>
          </ns3:TrackPointExtension>
        </extensions>
      </trkpt>
      <trkpt lat="45.3240200690925121307373046875" lon="-70.92521267943084239959716796875">
        <ele>625.5999755859375</ele>
        <time>2026-08-21T17:04:23.000Z</time>
        <extensions>
          <ns3:TrackPointExtension>
            <ns3:hr>124</ns3:hr>
            <ns3:cad>56</ns3:cad>
          </ns3:TrackPointExtension>
        </extensions>
      </trkpt>
      <trkpt lat="45.3240183927118778228759765625" lon="-70.9252337180078029632568359375">
        <ele>625.5999755859375</ele>
        <time>2026-08-21T17:04:24.000Z</time>
        <extensions>
          <ns3:TrackPointExtension>
            <ns3:hr>124</ns3:hr>
            <ns3:cad>56</ns3:cad>
          </ns3:TrackPointExtension>
        </extensions>
      </trkpt>
      <trkpt lat="45.32401277683675289154052734375" lon="-70.925258696079254150390625">
        <ele>625.5999755859375</ele>
        <time>2026-08-21T17:04:25.000Z</time>
        <extensions>
          <ns3:TrackPointExtension>
            <ns3:hr>125</ns3:hr>
            <ns3:cad>56</ns3:cad>
          </ns3:TrackPointExtension>
        </extensions>
      </trkpt>
      <trkpt lat="45.32400640659034252166748046875" lon="-70.925280489027500152587890625">
        <ele>625.5999755859375</ele>
        <time>2026-08-21T17:04:26.000Z</time>
        <extensions>
          <ns3:TrackPointExtension>
            <ns3:hr>124</ns3:hr>
            <ns3:cad>56</ns3:cad>
          </ns3:TrackPointExtension>
        </extensions>
      </trkpt>
      <trkpt lat="45.32400439493358135223388671875" lon="-70.92530094087123870849609375">
        <ele>625.79998779296875</ele>
        <time>2026-08-21T17:04:27.000Z</time>
        <extensions>
          <ns3:TrackPointExtension>
            <ns3:hr>124</ns3:hr>
            <ns3:cad>57</ns3:cad>
          </ns3:TrackPointExtension>
        </extensions>
      </trkpt>
      <trkpt lat="45.3239986114203929901123046875" lon="-70.9253245778381824493408203125">
        <ele>625.79998779296875</ele>
        <time>2026-08-21T17:04:28.000Z</time>
        <extensions>
          <ns3:TrackPointExtension>
            <ns3:hr>124</ns3:hr>
            <ns3:cad>57</ns3:cad>
          </ns3:TrackPointExtension>
        </extensions>
      </trkpt>
      <trkpt lat="45.32399634830653667449951171875" lon="-70.9253458678722381591796875">
        <ele>625.79998779296875</ele>
        <time>2026-08-21T17:04:29.000Z</time>
        <extensions>
          <ns3:TrackPointExtension>
            <ns3:hr>124</ns3:hr>
            <ns3:cad>57</ns3:cad>
          </ns3:TrackPointExtension>
        </extensions>
      </trkpt>
      <trkpt lat="45.32399215735495090484619140625" lon="-70.92536405660212039947509765625">
        <ele>625.79998779296875</ele>
        <time>2026-08-21T17:04:30.000Z</time>
        <extensions>
          <ns3:TrackPointExtension>
            <ns3:hr>124</ns3:hr>
            <ns3:cad>56</ns3:cad>
          </ns3:TrackPointExtension>
        </extensions>
      </trkpt>
      <trkpt lat="45.3239888884127140045166015625" lon="-70.92538752593100070953369140625">
        <ele>625.79998779296875</ele>
        <time>2026-08-21T17:04:31.000Z</time>
        <extensions>
          <ns3:TrackPointExtension>
            <ns3:hr>124</ns3:hr>
            <ns3:cad>56</ns3:cad>
          </ns3:TrackPointExtension>
        </extensions>
      </trkpt>
      <trkpt lat="45.323986709117889404296875" lon="-70.92541158199310302734375">
        <ele>625.79998779296875</ele>
        <time>2026-08-21T17:04:32.000Z</time>
        <extensions>
          <ns3:TrackPointExtension>
            <ns3:hr>124</ns3:hr>
            <ns3:cad>56</ns3:cad>
          </ns3:TrackPointExtension>
        </extensions>
      </trkpt>
      <trkpt lat="45.3239848650991916656494140625" lon="-70.92543505132198333740234375">
        <ele>625.79998779296875</ele>
        <time>2026-08-21T17:04:33.000Z</time>
        <extensions>
          <ns3:TrackPointExtension>
            <ns3:hr>125</ns3:hr>
            <ns3:cad>57</ns3:cad>
          </ns3:TrackPointExtension>
        </extensions>
      </trkpt>
      <trkpt lat="45.32398478128015995025634765625" lon="-70.925458855926990509033203125">
        <ele>625.79998779296875</ele>
        <time>2026-08-21T17:04:34.000Z</time>
        <extensions>
          <ns3:TrackPointExtension>
            <ns3:hr>125</ns3:hr>
            <ns3:cad>57</ns3:cad>
          </ns3:TrackPointExtension>
        </extensions>
      </trkpt>
      <trkpt lat="45.32398310489952564239501953125" lon="-70.92548425309360027313232421875">
        <ele>626</ele>
        <time>2026-08-21T17:04:35.000Z</time>
        <extensions>
          <ns3:TrackPointExtension>
            <ns3:hr>125</ns3:hr>
            <ns3:cad>57</ns3:cad>
          </ns3:TrackPointExtension>
        </extensions>
      </trkpt>
      <trkpt lat="45.32398159615695476531982421875" lon="-70.9255069680511951446533203125">
        <ele>626</ele>
        <time>2026-08-21T17:04:36.000Z</time>
        <extensions>
          <ns3:TrackPointExtension>
            <ns3:hr>125</ns3:hr>
            <ns3:cad>57</ns3:cad>
          </ns3:TrackPointExtension>
        </extensions>
      </trkpt>
      <trkpt lat="45.32398310489952564239501953125" lon="-70.925527922809123992919921875">
        <ele>626</ele>
        <time>2026-08-21T17:04:37.000Z</time>
        <extensions>
          <ns3:TrackPointExtension>
            <ns3:hr>125</ns3:hr>
            <ns3:cad>59</ns3:cad>
          </ns3:TrackPointExtension>
        </extensions>
      </trkpt>
      <trkpt lat="45.32398344017565250396728515625" lon="-70.925551392138004302978515625">
        <ele>626</ele>
        <time>2026-08-21T17:04:38.000Z</time>
        <extensions>
          <ns3:TrackPointExtension>
            <ns3:hr>125</ns3:hr>
            <ns3:cad>59</ns3:cad>
          </ns3:TrackPointExtension>
        </extensions>
      </trkpt>
      <trkpt lat="45.3239845298230648040771484375" lon="-70.92557729221880435943603515625">
        <ele>626</ele>
        <time>2026-08-21T17:04:39.000Z</time>
        <extensions>
          <ns3:TrackPointExtension>
            <ns3:hr>125</ns3:hr>
            <ns3:cad>59</ns3:cad>
          </ns3:TrackPointExtension>
        </extensions>
      </trkpt>
      <trkpt lat="45.32398209907114505767822265625" lon="-70.92559707351028919219970703125">
        <ele>626</ele>
        <time>2026-08-21T17:04:40.000Z</time>
        <extensions>
          <ns3:TrackPointExtension>
            <ns3:hr>126</ns3:hr>
            <ns3:cad>59</ns3:cad>
          </ns3:TrackPointExtension>
        </extensions>
      </trkpt>
      <trkpt lat="45.32397757284343242645263671875" lon="-70.9256192855536937713623046875">
        <ele>626.20001220703125</ele>
        <time>2026-08-21T17:04:41.000Z</time>
        <extensions>
          <ns3:TrackPointExtension>
            <ns3:hr>125</ns3:hr>
            <ns3:cad>59</ns3:cad>
          </ns3:TrackPointExtension>
        </extensions>
      </trkpt>
      <trkpt lat="45.32397530972957611083984375" lon="-70.9256404079496860504150390625">
        <ele>626.20001220703125</ele>
        <time>2026-08-21T17:04:42.000Z</time>
        <extensions>
          <ns3:TrackPointExtension>
            <ns3:hr>125</ns3:hr>
            <ns3:cad>59</ns3:cad>
          </ns3:TrackPointExtension>
        </extensions>
      </trkpt>
      <trkpt lat="45.323974303901195526123046875" lon="-70.92566027306020259857177734375">
        <ele>626.20001220703125</ele>
        <time>2026-08-21T17:04:43.000Z</time>
        <extensions>
          <ns3:TrackPointExtension>
            <ns3:hr>124</ns3:hr>
            <ns3:cad>59</ns3:cad>
          </ns3:TrackPointExtension>
        </extensions>
      </trkpt>
      <trkpt lat="45.32397489063441753387451171875" lon="-70.9256809763610363006591796875">
        <ele>626.4000244140625</ele>
        <time>2026-08-21T17:04:44.000Z</time>
        <extensions>
          <ns3:TrackPointExtension>
            <ns3:hr>124</ns3:hr>
            <ns3:cad>59</ns3:cad>
          </ns3:TrackPointExtension>
        </extensions>
      </trkpt>
      <trkpt lat="45.32397371716797351837158203125" lon="-70.92570461332798004150390625">
        <ele>626.4000244140625</ele>
        <time>2026-08-21T17:04:45.000Z</time>
        <extensions>
          <ns3:TrackPointExtension>
            <ns3:hr>124</ns3:hr>
            <ns3:cad>59</ns3:cad>
          </ns3:TrackPointExtension>
        </extensions>
      </trkpt>
      <trkpt lat="45.323973633348941802978515625" lon="-70.925733111798763275146484375">
        <ele>626.4000244140625</ele>
        <time>2026-08-21T17:04:46.000Z</time>
        <extensions>
          <ns3:TrackPointExtension>
            <ns3:hr>124</ns3:hr>
            <ns3:cad>59</ns3:cad>
          </ns3:TrackPointExtension>
        </extensions>
      </trkpt>
      <trkpt lat="45.32397204078733921051025390625" lon="-70.925758592784404754638671875">
        <ele>626.4000244140625</ele>
        <time>2026-08-21T17:04:47.000Z</time>
        <extensions>
          <ns3:TrackPointExtension>
            <ns3:hr>125</ns3:hr>
            <ns3:cad>58</ns3:cad>
          </ns3:TrackPointExtension>
        </extensions>
      </trkpt>
      <trkpt lat="45.32396986149251461029052734375" lon="-70.925774686038494110107421875">
        <ele>626.4000244140625</ele>
        <time>2026-08-21T17:04:48.000Z</time>
        <extensions>
          <ns3:TrackPointExtension>
            <ns3:hr>125</ns3:hr>
            <ns3:cad>58</ns3:cad>
          </ns3:TrackPointExtension>
        </extensions>
      </trkpt>
      <trkpt lat="45.3239681012928485870361328125" lon="-70.9257991611957550048828125">
        <ele>626.4000244140625</ele>
        <time>2026-08-21T17:04:49.000Z</time>
        <extensions>
          <ns3:TrackPointExtension>
            <ns3:hr>125</ns3:hr>
            <ns3:cad>58</ns3:cad>
          </ns3:TrackPointExtension>
        </extensions>
      </trkpt>
      <trkpt lat="45.3239691071212291717529296875" lon="-70.925824642181396484375">
        <ele>626.4000244140625</ele>
        <time>2026-08-21T17:04:50.000Z</time>
        <extensions>
          <ns3:TrackPointExtension>
            <ns3:hr>126</ns3:hr>
            <ns3:cad>58</ns3:cad>
          </ns3:TrackPointExtension>
        </extensions>
      </trkpt>
      <trkpt lat="45.32396667636930942535400390625" lon="-70.92584953643381595611572265625">
        <ele>626.4000244140625</ele>
        <time>2026-08-21T17:04:51.000Z</time>
        <extensions>
          <ns3:TrackPointExtension>
            <ns3:hr>127</ns3:hr>
            <ns3:cad>58</ns3:cad>
          </ns3:TrackPointExtension>
        </extensions>
      </trkpt>
      <trkpt lat="45.32396684400737285614013671875" lon="-70.92587484978139400482177734375">
        <ele>626.5999755859375</ele>
        <time>2026-08-21T17:04:52.000Z</time>
        <extensions>
          <ns3:TrackPointExtension>
            <ns3:hr>127</ns3:hr>
            <ns3:cad>58</ns3:cad>
          </ns3:TrackPointExtension>
        </extensions>
      </trkpt>
      <trkpt lat="45.323966257274150848388671875" lon="-70.92589681036770343780517578125">
        <ele>626.5999755859375</ele>
        <time>2026-08-21T17:04:53.000Z</time>
        <extensions>
          <ns3:TrackPointExtension>
            <ns3:hr>127</ns3:hr>
            <ns3:cad>58</ns3:cad>
          </ns3:TrackPointExtension>
        </extensions>
      </trkpt>
      <trkpt lat="45.3239665925502777099609375" lon="-70.92592044733464717864990234375">
        <ele>626.79998779296875</ele>
        <time>2026-08-21T17:04:54.000Z</time>
        <extensions>
          <ns3:TrackPointExtension>
            <ns3:hr>128</ns3:hr>
            <ns3:cad>58</ns3:cad>
          </ns3:TrackPointExtension>
        </extensions>
      </trkpt>
      <trkpt lat="45.3239694423973560333251953125" lon="-70.92594332993030548095703125">
        <ele>626.79998779296875</ele>
        <time>2026-08-21T17:04:55.000Z</time>
        <extensions>
          <ns3:TrackPointExtension>
            <ns3:hr>128</ns3:hr>
            <ns3:cad>57</ns3:cad>
          </ns3:TrackPointExtension>
        </extensions>
      </trkpt>
      <trkpt lat="45.3239665925502777099609375" lon="-70.9259683080017566680908203125">
        <ele>626.79998779296875</ele>
        <time>2026-08-21T17:04:56.000Z</time>
        <extensions>
          <ns3:TrackPointExtension>
            <ns3:hr>128</ns3:hr>
            <ns3:cad>57</ns3:cad>
          </ns3:TrackPointExtension>
        </extensions>
      </trkpt>
      <trkpt lat="45.32396617345511913299560546875" lon="-70.92599202878773212432861328125">
        <ele>626.79998779296875</ele>
        <time>2026-08-21T17:04:57.000Z</time>
        <extensions>
          <ns3:TrackPointExtension>
            <ns3:hr>128</ns3:hr>
            <ns3:cad>57</ns3:cad>
          </ns3:TrackPointExtension>
        </extensions>
      </trkpt>
      <trkpt lat="45.3239637427031993865966796875" lon="-70.92601583339273929595947265625">
        <ele>627</ele>
        <time>2026-08-21T17:04:58.000Z</time>
        <extensions>
          <ns3:TrackPointExtension>
            <ns3:hr>129</ns3:hr>
            <ns3:cad>57</ns3:cad>
          </ns3:TrackPointExtension>
        </extensions>
      </trkpt>
      <trkpt lat="45.323960892856121063232421875" lon="-70.9260393865406513214111328125">
        <ele>627</ele>
        <time>2026-08-21T17:04:59.000Z</time>
        <extensions>
          <ns3:TrackPointExtension>
            <ns3:hr>129</ns3:hr>
            <ns3:cad>57</ns3:cad>
          </ns3:TrackPointExtension>
        </extensions>
      </trkpt>
      <trkpt lat="45.32395728863775730133056640625" lon="-70.9260605089366436004638671875">
        <ele>627</ele>
        <time>2026-08-21T17:05:00.000Z</time>
        <extensions>
          <ns3:TrackPointExtension>
            <ns3:hr>129</ns3:hr>
            <ns3:cad>57</ns3:cad>
          </ns3:TrackPointExtension>
        </extensions>
      </trkpt>
      <trkpt lat="45.3239556960761547088623046875" lon="-70.92608154751360416412353515625">
        <ele>627</ele>
        <time>2026-08-21T17:05:01.000Z</time>
        <extensions>
          <ns3:TrackPointExtension>
            <ns3:hr>129</ns3:hr>
            <ns3:cad>57</ns3:cad>
          </ns3:TrackPointExtension>
        </extensions>
      </trkpt>
      <trkpt lat="45.3239543549716472625732421875" lon="-70.92610250227153301239013671875">
        <ele>627</ele>
        <time>2026-08-21T17:05:02.000Z</time>
        <extensions>
          <ns3:TrackPointExtension>
            <ns3:hr>129</ns3:hr>
            <ns3:cad>57</ns3:cad>
          </ns3:TrackPointExtension>
        </extensions>
      </trkpt>
      <trkpt lat="45.3239536844193935394287109375" lon="-70.9261191822588443756103515625">
        <ele>627</ele>
        <time>2026-08-21T17:05:03.000Z</time>
        <extensions>
          <ns3:TrackPointExtension>
            <ns3:hr>129</ns3:hr>
            <ns3:cad>58</ns3:cad>
          </ns3:TrackPointExtension>
        </extensions>
      </trkpt>
      <trkpt lat="45.323948152363300323486328125" lon="-70.92614122666418552398681640625">
        <ele>627</ele>
        <time>2026-08-21T17:05:04.000Z</time>
        <extensions>
          <ns3:TrackPointExtension>
            <ns3:hr>129</ns3:hr>
            <ns3:cad>58</ns3:cad>
          </ns3:TrackPointExtension>
        </extensions>
      </trkpt>
      <trkpt lat="45.32394471578299999237060546875" lon="-70.9261654503643512725830078125">
        <ele>627.20001220703125</ele>
        <time>2026-08-21T17:05:05.000Z</time>
        <extensions>
          <ns3:TrackPointExtension>
            <ns3:hr>128</ns3:hr>
            <ns3:cad>58</ns3:cad>
          </ns3:TrackPointExtension>
        </extensions>
      </trkpt>
      <trkpt lat="45.32393868081271648406982421875" lon="-70.92618741095066070556640625">
        <ele>627.20001220703125</ele>
        <time>2026-08-21T17:05:06.000Z</time>
        <extensions>
          <ns3:TrackPointExtension>
            <ns3:hr>127</ns3:hr>
            <ns3:cad>58</ns3:cad>
          </ns3:TrackPointExtension>
        </extensions>
      </trkpt>
      <trkpt lat="45.32393465749919414520263671875" lon="-70.92621230520308017730712890625">
        <ele>627.4000244140625</ele>
        <time>2026-08-21T17:05:07.000Z</time>
        <extensions>
          <ns3:TrackPointExtension>
            <ns3:hr>125</ns3:hr>
            <ns3:cad>57</ns3:cad>
          </ns3:TrackPointExtension>
        </extensions>
      </trkpt>
      <trkpt lat="45.3239305503666400909423828125" lon="-70.92623543925583362579345703125">
        <ele>627.4000244140625</ele>
        <time>2026-08-21T17:05:08.000Z</time>
        <extensions>
          <ns3:TrackPointExtension>
            <ns3:hr>125</ns3:hr>
            <ns3:cad>57</ns3:cad>
          </ns3:TrackPointExtension>
        </extensions>
      </trkpt>
      <trkpt lat="45.3239263594150543212890625" lon="-70.92625505290925502777099609375">
        <ele>627.4000244140625</ele>
        <time>2026-08-21T17:05:09.000Z</time>
        <extensions>
          <ns3:TrackPointExtension>
            <ns3:hr>125</ns3:hr>
            <ns3:cad>57</ns3:cad>
          </ns3:TrackPointExtension>
        </extensions>
      </trkpt>
      <trkpt lat="45.3239208273589611053466796875" lon="-70.926275588572025299072265625">
        <ele>627.4000244140625</ele>
        <time>2026-08-21T17:05:10.000Z</time>
        <extensions>
          <ns3:TrackPointExtension>
            <ns3:hr>125</ns3:hr>
            <ns3:cad>56</ns3:cad>
          </ns3:TrackPointExtension>
        </extensions>
      </trkpt>
      <trkpt lat="45.32391353510320186614990234375" lon="-70.926293022930622100830078125">
        <ele>627.4000244140625</ele>
        <time>2026-08-21T17:05:11.000Z</time>
        <extensions>
          <ns3:TrackPointExtension>
            <ns3:hr>125</ns3:hr>
            <ns3:cad>56</ns3:cad>
          </ns3:TrackPointExtension>
        </extensions>
      </trkpt>
      <trkpt lat="45.32390817068517208099365234375" lon="-70.9263149835169315338134765625">
        <ele>627.5999755859375</ele>
        <time>2026-08-21T17:05:12.000Z</time>
        <extensions>
          <ns3:TrackPointExtension>
            <ns3:hr>125</ns3:hr>
            <ns3:cad>57</ns3:cad>
          </ns3:TrackPointExtension>
        </extensions>
      </trkpt>
      <trkpt lat="45.3239022195339202880859375" lon="-70.926335938274860382080078125">
        <ele>627.5999755859375</ele>
        <time>2026-08-21T17:05:13.000Z</time>
        <extensions>
          <ns3:TrackPointExtension>
            <ns3:hr>125</ns3:hr>
            <ns3:cad>57</ns3:cad>
          </ns3:TrackPointExtension>
        </extensions>
      </trkpt>
      <trkpt lat="45.3238968551158905029296875" lon="-70.92635513283312320709228515625">
        <ele>627.5999755859375</ele>
        <time>2026-08-21T17:05:14.000Z</time>
        <extensions>
          <ns3:TrackPointExtension>
            <ns3:hr>125</ns3:hr>
            <ns3:cad>57</ns3:cad>
          </ns3:TrackPointExtension>
        </extensions>
      </trkpt>
      <trkpt lat="45.32389350235462188720703125" lon="-70.92637248337268829345703125">
        <ele>627.5999755859375</ele>
        <time>2026-08-21T17:05:15.000Z</time>
        <extensions>
          <ns3:TrackPointExtension>
            <ns3:hr>124</ns3:hr>
            <ns3:cad>57</ns3:cad>
          </ns3:TrackPointExtension>
        </extensions>
      </trkpt>
      <trkpt lat="45.3238893114030361175537109375" lon="-70.9263917617499828338623046875">
        <ele>627.5999755859375</ele>
        <time>2026-08-21T17:05:16.000Z</time>
        <extensions>
          <ns3:TrackPointExtension>
            <ns3:hr>124</ns3:hr>
            <ns3:cad>57</ns3:cad>
          </ns3:TrackPointExtension>
        </extensions>
      </trkpt>
      <trkpt lat="45.3238822706043720245361328125" lon="-70.92641363851726055145263671875">
        <ele>627.79998779296875</ele>
        <time>2026-08-21T17:05:17.000Z</time>
        <extensions>
          <ns3:TrackPointExtension>
            <ns3:hr>124</ns3:hr>
            <ns3:cad>57</ns3:cad>
          </ns3:TrackPointExtension>
        </extensions>
      </trkpt>
      <trkpt lat="45.32387179322540760040283203125" lon="-70.92642989940941333770751953125">
        <ele>627.79998779296875</ele>
        <time>2026-08-21T17:05:18.000Z</time>
        <extensions>
          <ns3:TrackPointExtension>
            <ns3:hr>124</ns3:hr>
            <ns3:cad>57</ns3:cad>
          </ns3:TrackPointExtension>
        </extensions>
      </trkpt>
      <trkpt lat="45.3238614834845066070556640625" lon="-70.926442556083202362060546875">
        <ele>627.79998779296875</ele>
        <time>2026-08-21T17:05:19.000Z</time>
        <extensions>
          <ns3:TrackPointExtension>
            <ns3:hr>124</ns3:hr>
            <ns3:cad>57</ns3:cad>
          </ns3:TrackPointExtension>
        </extensions>
      </trkpt>
      <trkpt lat="45.32385528087615966796875" lon="-70.92645990662276744842529296875">
        <ele>628</ele>
        <time>2026-08-21T17:05:20.000Z</time>
        <extensions>
          <ns3:TrackPointExtension>
            <ns3:hr>124</ns3:hr>
            <ns3:cad>57</ns3:cad>
          </ns3:TrackPointExtension>
        </extensions>
      </trkpt>
      <trkpt lat="45.32384547404944896697998046875" lon="-70.92647432349622249603271484375">
        <ele>628</ele>
        <time>2026-08-21T17:05:21.000Z</time>
        <extensions>
          <ns3:TrackPointExtension>
            <ns3:hr>124</ns3:hr>
            <ns3:cad>57</ns3:cad>
          </ns3:TrackPointExtension>
        </extensions>
      </trkpt>
      <trkpt lat="45.3238329850137233734130859375" lon="-70.9264936856925487518310546875">
        <ele>628</ele>
        <time>2026-08-21T17:05:22.000Z</time>
        <extensions>
          <ns3:TrackPointExtension>
            <ns3:hr>125</ns3:hr>
            <ns3:cad>58</ns3:cad>
          </ns3:TrackPointExtension>
        </extensions>
      </trkpt>
      <trkpt lat="45.32382368110120296478271484375" lon="-70.9265131317079067230224609375">
        <ele>628</ele>
        <time>2026-08-21T17:05:23.000Z</time>
        <extensions>
          <ns3:TrackPointExtension>
            <ns3:hr>124</ns3:hr>
            <ns3:cad>57</ns3:cad>
          </ns3:TrackPointExtension>
        </extensions>
      </trkpt>
      <trkpt lat="45.32381412573158740997314453125" lon="-70.926533080637454986572265625">
        <ele>628.20001220703125</ele>
        <time>2026-08-21T17:05:24.000Z</time>
        <extensions>
          <ns3:TrackPointExtension>
            <ns3:hr>124</ns3:hr>
            <ns3:cad>57</ns3:cad>
          </ns3:TrackPointExtension>
        </extensions>
      </trkpt>
      <trkpt lat="45.32380742020905017852783203125" lon="-70.92655244283378124237060546875">
        <ele>628.20001220703125</ele>
        <time>2026-08-21T17:05:25.000Z</time>
        <extensions>
          <ns3:TrackPointExtension>
            <ns3:hr>124</ns3:hr>
            <ns3:cad>57</ns3:cad>
          </ns3:TrackPointExtension>
        </extensions>
      </trkpt>
      <trkpt lat="45.32379870302975177764892578125" lon="-70.926567949354648590087890625">
        <ele>628.4000244140625</ele>
        <time>2026-08-21T17:05:26.000Z</time>
        <extensions>
          <ns3:TrackPointExtension>
            <ns3:hr>124</ns3:hr>
            <ns3:cad>57</ns3:cad>
          </ns3:TrackPointExtension>
        </extensions>
      </trkpt>
      <trkpt lat="45.323795937001705169677734375" lon="-70.92658630572259426116943359375">
        <ele>628.4000244140625</ele>
        <time>2026-08-21T17:05:27.000Z</time>
        <extensions>
          <ns3:TrackPointExtension>
            <ns3:hr>124</ns3:hr>
            <ns3:cad>57</ns3:cad>
          </ns3:TrackPointExtension>
        </extensions>
      </trkpt>
      <trkpt lat="45.3237873874604701995849609375" lon="-70.9266070090234279632568359375">
        <ele>628.4000244140625</ele>
        <time>2026-08-21T17:05:28.000Z</time>
        <extensions>
          <ns3:TrackPointExtension>
            <ns3:hr>124</ns3:hr>
            <ns3:cad>57</ns3:cad>
          </ns3:TrackPointExtension>
        </extensions>
      </trkpt>
      <trkpt lat="45.32377942465245723724365234375" lon="-70.92662419192492961883544921875">
        <ele>628.4000244140625</ele>
        <time>2026-08-21T17:05:29.000Z</time>
        <extensions>
          <ns3:TrackPointExtension>
            <ns3:hr>124</ns3:hr>
            <ns3:cad>57</ns3:cad>
          </ns3:TrackPointExtension>
        </extensions>
      </trkpt>
      <trkpt lat="45.32377146184444427490234375" lon="-70.9266413748264312744140625">
        <ele>628.4000244140625</ele>
        <time>2026-08-21T17:05:30.000Z</time>
        <extensions>
          <ns3:TrackPointExtension>
            <ns3:hr>124</ns3:hr>
            <ns3:cad>57</ns3:cad>
          </ns3:TrackPointExtension>
        </extensions>
      </trkpt>
      <trkpt lat="45.32376131974160671234130859375" lon="-70.92665889300405979156494140625">
        <ele>628.5999755859375</ele>
        <time>2026-08-21T17:05:31.000Z</time>
        <extensions>
          <ns3:TrackPointExtension>
            <ns3:hr>124</ns3:hr>
            <ns3:cad>57</ns3:cad>
          </ns3:TrackPointExtension>
        </extensions>
      </trkpt>
      <trkpt lat="45.32375142909586429595947265625" lon="-70.92667691409587860107421875">
        <ele>628.5999755859375</ele>
        <time>2026-08-21T17:05:32.000Z</time>
        <extensions>
          <ns3:TrackPointExtension>
            <ns3:hr>124</ns3:hr>
            <ns3:cad>55</ns3:cad>
          </ns3:TrackPointExtension>
        </extensions>
      </trkpt>
      <trkpt lat="45.323738940060138702392578125" lon="-70.92669476754963397979736328125">
        <ele>628.5999755859375</ele>
        <time>2026-08-21T17:05:33.000Z</time>
        <extensions>
          <ns3:TrackPointExtension>
            <ns3:hr>123</ns3:hr>
            <ns3:cad>55</ns3:cad>
          </ns3:TrackPointExtension>
        </extensions>
      </trkpt>
      <trkpt lat="45.32372452318668365478515625" lon="-70.9267116151750087738037109375">
        <ele>628.5999755859375</ele>
        <time>2026-08-21T17:05:34.000Z</time>
        <extensions>
          <ns3:TrackPointExtension>
            <ns3:hr>123</ns3:hr>
            <ns3:cad>55</ns3:cad>
          </ns3:TrackPointExtension>
        </extensions>
      </trkpt>
      <trkpt lat="45.323718488216400146484375" lon="-70.92673131264746189117431640625">
        <ele>628.5999755859375</ele>
        <time>2026-08-21T17:05:35.000Z</time>
        <extensions>
          <ns3:TrackPointExtension>
            <ns3:hr>123</ns3:hr>
            <ns3:cad>57</ns3:cad>
          </ns3:TrackPointExtension>
        </extensions>
      </trkpt>
      <trkpt lat="45.3237099386751651763916015625" lon="-70.92675159685313701629638671875">
        <ele>628.5999755859375</ele>
        <time>2026-08-21T17:05:36.000Z</time>
        <extensions>
          <ns3:TrackPointExtension>
            <ns3:hr>123</ns3:hr>
            <ns3:cad>57</ns3:cad>
          </ns3:TrackPointExtension>
        </extensions>
      </trkpt>
      <trkpt lat="45.32370172441005706787109375" lon="-70.9267726354300975799560546875">
        <ele>628.5999755859375</ele>
        <time>2026-08-21T17:05:37.000Z</time>
        <extensions>
          <ns3:TrackPointExtension>
            <ns3:hr>123</ns3:hr>
            <ns3:cad>57</ns3:cad>
          </ns3:TrackPointExtension>
        </extensions>
      </trkpt>
      <trkpt lat="45.32369325868785381317138671875" lon="-70.92679166235029697418212890625">
        <ele>628.5999755859375</ele>
        <time>2026-08-21T17:05:38.000Z</time>
        <extensions>
          <ns3:TrackPointExtension>
            <ns3:hr>123</ns3:hr>
            <ns3:cad>57</ns3:cad>
          </ns3:TrackPointExtension>
        </extensions>
      </trkpt>
      <trkpt lat="45.32368563115596771240234375" lon="-70.9268103539943695068359375">
        <ele>628.5999755859375</ele>
        <time>2026-08-21T17:05:39.000Z</time>
        <extensions>
          <ns3:TrackPointExtension>
            <ns3:hr>123</ns3:hr>
            <ns3:cad>57</ns3:cad>
          </ns3:TrackPointExtension>
        </extensions>
      </trkpt>
      <trkpt lat="45.32367984764277935028076171875" lon="-70.9268344938755035400390625">
        <ele>628.79998779296875</ele>
        <time>2026-08-21T17:05:40.000Z</time>
        <extensions>
          <ns3:TrackPointExtension>
            <ns3:hr>123</ns3:hr>
            <ns3:cad>57</ns3:cad>
          </ns3:TrackPointExtension>
        </extensions>
      </trkpt>
      <trkpt lat="45.323671214282512664794921875" lon="-70.92685536481440067291259765625">
        <ele>628.79998779296875</ele>
        <time>2026-08-21T17:05:41.000Z</time>
        <extensions>
          <ns3:TrackPointExtension>
            <ns3:hr>123</ns3:hr>
            <ns3:cad>57</ns3:cad>
          </ns3:TrackPointExtension>
        </extensions>
      </trkpt>
      <trkpt lat="45.32366375438868999481201171875" lon="-70.9268742240965366363525390625">
        <ele>628.79998779296875</ele>
        <time>2026-08-21T17:05:42.000Z</time>
        <extensions>
          <ns3:TrackPointExtension>
            <ns3:hr>124</ns3:hr>
            <ns3:cad>57</ns3:cad>
          </ns3:TrackPointExtension>
        </extensions>
      </trkpt>
      <trkpt lat="45.32365822233259677886962890625" lon="-70.926895178854465484619140625">
        <ele>628.79998779296875</ele>
        <time>2026-08-21T17:05:43.000Z</time>
        <extensions>
          <ns3:TrackPointExtension>
            <ns3:hr>124</ns3:hr>
            <ns3:cad>57</ns3:cad>
          </ns3:TrackPointExtension>
        </extensions>
      </trkpt>
      <trkpt lat="45.32365076243877410888671875" lon="-70.926917307078838348388671875">
        <ele>628.79998779296875</ele>
        <time>2026-08-21T17:05:44.000Z</time>
        <extensions>
          <ns3:TrackPointExtension>
            <ns3:hr>124</ns3:hr>
            <ns3:cad>57</ns3:cad>
          </ns3:TrackPointExtension>
        </extensions>
      </trkpt>
      <trkpt lat="45.3236448951065540313720703125" lon="-70.9269372560083866119384765625">
        <ele>629</ele>
        <time>2026-08-21T17:05:45.000Z</time>
        <extensions>
          <ns3:TrackPointExtension>
            <ns3:hr>124</ns3:hr>
            <ns3:cad>56</ns3:cad>
          </ns3:TrackPointExtension>
        </extensions>
      </trkpt>
      <trkpt lat="45.32363659702241420745849609375" lon="-70.92695980332791805267333984375">
        <ele>629</ele>
        <time>2026-08-21T17:05:46.000Z</time>
        <extensions>
          <ns3:TrackPointExtension>
            <ns3:hr>124</ns3:hr>
            <ns3:cad>56</ns3:cad>
          </ns3:TrackPointExtension>
        </extensions>
      </trkpt>
      <trkpt lat="45.32362930476665496826171875" lon="-70.92698008753359317779541015625">
        <ele>629</ele>
        <time>2026-08-21T17:05:47.000Z</time>
        <extensions>
          <ns3:TrackPointExtension>
            <ns3:hr>123</ns3:hr>
            <ns3:cad>56</ns3:cad>
          </ns3:TrackPointExtension>
        </extensions>
      </trkpt>
      <trkpt lat="45.32362251542508602142333984375" lon="-70.92700120992958545684814453125">
        <ele>629</ele>
        <time>2026-08-21T17:05:48.000Z</time>
        <extensions>
          <ns3:TrackPointExtension>
            <ns3:hr>124</ns3:hr>
            <ns3:cad>56</ns3:cad>
          </ns3:TrackPointExtension>
        </extensions>
      </trkpt>
      <trkpt lat="45.32361631281673908233642578125" lon="-70.92702099122107028961181640625">
        <ele>629</ele>
        <time>2026-08-21T17:05:49.000Z</time>
        <extensions>
          <ns3:TrackPointExtension>
            <ns3:hr>124</ns3:hr>
            <ns3:cad>56</ns3:cad>
          </ns3:TrackPointExtension>
        </extensions>
      </trkpt>
      <trkpt lat="45.32361027784645557403564453125" lon="-70.92704345472157001495361328125">
        <ele>629</ele>
        <time>2026-08-21T17:05:50.000Z</time>
        <extensions>
          <ns3:TrackPointExtension>
            <ns3:hr>124</ns3:hr>
            <ns3:cad>57</ns3:cad>
          </ns3:TrackPointExtension>
        </extensions>
      </trkpt>
      <trkpt lat="45.3235999681055545806884765625" lon="-70.9270656667649745941162109375">
        <ele>629</ele>
        <time>2026-08-21T17:05:51.000Z</time>
        <extensions>
          <ns3:TrackPointExtension>
            <ns3:hr>123</ns3:hr>
            <ns3:cad>57</ns3:cad>
          </ns3:TrackPointExtension>
        </extensions>
      </trkpt>
      <trkpt lat="45.32359619624912738800048828125" lon="-70.92708502896130084991455078125">
        <ele>629</ele>
        <time>2026-08-21T17:05:52.000Z</time>
        <extensions>
          <ns3:TrackPointExtension>
            <ns3:hr>124</ns3:hr>
            <ns3:cad>57</ns3:cad>
          </ns3:TrackPointExtension>
        </extensions>
      </trkpt>
      <trkpt lat="45.323590748012065887451171875" lon="-70.9271085821092128753662109375">
        <ele>629.20001220703125</ele>
        <time>2026-08-21T17:05:53.000Z</time>
        <extensions>
          <ns3:TrackPointExtension>
            <ns3:hr>124</ns3:hr>
            <ns3:cad>57</ns3:cad>
          </ns3:TrackPointExtension>
        </extensions>
      </trkpt>
      <trkpt lat="45.32358731143176555633544921875" lon="-70.9271354041993618011474609375">
        <ele>629.20001220703125</ele>
        <time>2026-08-21T17:05:54.000Z</time>
        <extensions>
          <ns3:TrackPointExtension>
            <ns3:hr>124</ns3:hr>
            <ns3:cad>57</ns3:cad>
          </ns3:TrackPointExtension>
        </extensions>
      </trkpt>
      <trkpt lat="45.3235828690230846405029296875" lon="-70.92715644277632236480712890625">
        <ele>629.20001220703125</ele>
        <time>2026-08-21T17:05:55.000Z</time>
        <extensions>
          <ns3:TrackPointExtension>
            <ns3:hr>124</ns3:hr>
            <ns3:cad>57</ns3:cad>
          </ns3:TrackPointExtension>
        </extensions>
      </trkpt>
      <trkpt lat="45.32357624731957912445068359375" lon="-70.92717873863875865936279296875">
        <ele>629.20001220703125</ele>
        <time>2026-08-21T17:05:56.000Z</time>
        <extensions>
          <ns3:TrackPointExtension>
            <ns3:hr>124</ns3:hr>
            <ns3:cad>57</ns3:cad>
          </ns3:TrackPointExtension>
        </extensions>
      </trkpt>
      <trkpt lat="45.323569290339946746826171875" lon="-70.9272041358053684234619140625">
        <ele>629.20001220703125</ele>
        <time>2026-08-21T17:05:57.000Z</time>
        <extensions>
          <ns3:TrackPointExtension>
            <ns3:hr>123</ns3:hr>
            <ns3:cad>57</ns3:cad>
          </ns3:TrackPointExtension>
        </extensions>
      </trkpt>
      <trkpt lat="45.32356719486415386199951171875" lon="-70.92722835950553417205810546875">
        <ele>629.20001220703125</ele>
        <time>2026-08-21T17:05:58.000Z</time>
        <extensions>
          <ns3:TrackPointExtension>
            <ns3:hr>124</ns3:hr>
            <ns3:cad>57</ns3:cad>
          </ns3:TrackPointExtension>
        </extensions>
      </trkpt>
      <trkpt lat="45.32356350682675838470458984375" lon="-70.927246548235416412353515625">
        <ele>629.20001220703125</ele>
        <time>2026-08-21T17:05:59.000Z</time>
        <extensions>
          <ns3:TrackPointExtension>
            <ns3:hr>124</ns3:hr>
            <ns3:cad>57</ns3:cad>
          </ns3:TrackPointExtension>
        </extensions>
      </trkpt>
      <trkpt lat="45.3235614113509654998779296875" lon="-70.92726859264075756072998046875">
        <ele>629.20001220703125</ele>
        <time>2026-08-21T17:06:00.000Z</time>
        <extensions>
          <ns3:TrackPointExtension>
            <ns3:hr>124</ns3:hr>
            <ns3:cad>57</ns3:cad>
          </ns3:TrackPointExtension>
        </extensions>
      </trkpt>
      <trkpt lat="45.32356032170355319976806640625" lon="-70.9272904694080352783203125">
        <ele>629.4000244140625</ele>
        <time>2026-08-21T17:06:01.000Z</time>
        <extensions>
          <ns3:TrackPointExtension>
            <ns3:hr>123</ns3:hr>
            <ns3:cad>57</ns3:cad>
          </ns3:TrackPointExtension>
        </extensions>
      </trkpt>
      <trkpt lat="45.323557555675506591796875" lon="-70.9273104183375835418701171875">
        <ele>629.4000244140625</ele>
        <time>2026-08-21T17:06:02.000Z</time>
        <extensions>
          <ns3:TrackPointExtension>
            <ns3:hr>123</ns3:hr>
            <ns3:cad>57</ns3:cad>
          </ns3:TrackPointExtension>
        </extensions>
      </trkpt>
      <trkpt lat="45.323557555675506591796875" lon="-70.9273307025432586669921875">
        <ele>629.5999755859375</ele>
        <time>2026-08-21T17:06:03.000Z</time>
        <extensions>
          <ns3:TrackPointExtension>
            <ns3:hr>123</ns3:hr>
            <ns3:cad>56</ns3:cad>
          </ns3:TrackPointExtension>
        </extensions>
      </trkpt>
      <trkpt lat="45.323555208742618560791015625" lon="-70.92735148966312408447265625">
        <ele>629.5999755859375</ele>
        <time>2026-08-21T17:06:04.000Z</time>
        <extensions>
          <ns3:TrackPointExtension>
            <ns3:hr>124</ns3:hr>
            <ns3:cad>56</ns3:cad>
          </ns3:TrackPointExtension>
        </extensions>
      </trkpt>
      <trkpt lat="45.32355210743844509124755859375" lon="-70.92737236060202121734619140625">
        <ele>629.5999755859375</ele>
        <time>2026-08-21T17:06:05.000Z</time>
        <extensions>
          <ns3:TrackPointExtension>
            <ns3:hr>124</ns3:hr>
            <ns3:cad>56</ns3:cad>
          </ns3:TrackPointExtension>
        </extensions>
      </trkpt>
      <trkpt lat="45.32354808412492275238037109375" lon="-70.9273923933506011962890625">
        <ele>629.5999755859375</ele>
        <time>2026-08-21T17:06:06.000Z</time>
        <extensions>
          <ns3:TrackPointExtension>
            <ns3:hr>124</ns3:hr>
            <ns3:cad>56</ns3:cad>
          </ns3:TrackPointExtension>
        </extensions>
      </trkpt>
      <trkpt lat="45.32354573719203472137451171875" lon="-70.927410162985324859619140625">
        <ele>629.79998779296875</ele>
        <time>2026-08-21T17:06:07.000Z</time>
        <extensions>
          <ns3:TrackPointExtension>
            <ns3:hr>123</ns3:hr>
            <ns3:cad>56</ns3:cad>
          </ns3:TrackPointExtension>
        </extensions>
      </trkpt>
      <trkpt lat="45.3235423006117343902587890625" lon="-70.9274327941238880157470703125">
        <ele>629.79998779296875</ele>
        <time>2026-08-21T17:06:08.000Z</time>
        <extensions>
          <ns3:TrackPointExtension>
            <ns3:hr>124</ns3:hr>
            <ns3:cad>56</ns3:cad>
          </ns3:TrackPointExtension>
        </extensions>
      </trkpt>
      <trkpt lat="45.3235379420220851898193359375" lon="-70.9274522401392459869384765625">
        <ele>630</ele>
        <time>2026-08-21T17:06:09.000Z</time>
        <extensions>
          <ns3:TrackPointExtension>
            <ns3:hr>124</ns3:hr>
            <ns3:cad>56</ns3:cad>
          </ns3:TrackPointExtension>
        </extensions>
      </trkpt>
      <trkpt lat="45.3235349245369434356689453125" lon="-70.927471853792667388916015625">
        <ele>630</ele>
        <time>2026-08-21T17:06:10.000Z</time>
        <extensions>
          <ns3:TrackPointExtension>
            <ns3:hr>124</ns3:hr>
            <ns3:cad>56</ns3:cad>
          </ns3:TrackPointExtension>
        </extensions>
      </trkpt>
      <trkpt lat="45.32353316433727741241455078125" lon="-70.9274943172931671142578125">
        <ele>630</ele>
        <time>2026-08-21T17:06:11.000Z</time>
        <extensions>
          <ns3:TrackPointExtension>
            <ns3:hr>124</ns3:hr>
            <ns3:cad>56</ns3:cad>
          </ns3:TrackPointExtension>
        </extensions>
      </trkpt>
      <trkpt lat="45.32352964393794536590576171875" lon="-70.9275132603943347930908203125">
        <ele>630.20001220703125</ele>
        <time>2026-08-21T17:06:12.000Z</time>
        <extensions>
          <ns3:TrackPointExtension>
            <ns3:hr>124</ns3:hr>
            <ns3:cad>57</ns3:cad>
          </ns3:TrackPointExtension>
        </extensions>
      </trkpt>
      <trkpt lat="45.3235248662531375885009765625" lon="-70.92753597535192966461181640625">
        <ele>630.20001220703125</ele>
        <time>2026-08-21T17:06:13.000Z</time>
        <extensions>
          <ns3:TrackPointExtension>
            <ns3:hr>124</ns3:hr>
            <ns3:cad>57</ns3:cad>
          </ns3:TrackPointExtension>
        </extensions>
      </trkpt>
      <trkpt lat="45.3235215134918689727783203125" lon="-70.927558355033397674560546875">
        <ele>630.4000244140625</ele>
        <time>2026-08-21T17:06:14.000Z</time>
        <extensions>
          <ns3:TrackPointExtension>
            <ns3:hr>124</ns3:hr>
            <ns3:cad>57</ns3:cad>
          </ns3:TrackPointExtension>
        </extensions>
      </trkpt>
      <trkpt lat="45.3235151432454586029052734375" lon="-70.92757922597229480743408203125">
        <ele>630.4000244140625</ele>
        <time>2026-08-21T17:06:15.000Z</time>
        <extensions>
          <ns3:TrackPointExtension>
            <ns3:hr>124</ns3:hr>
            <ns3:cad>57</ns3:cad>
          </ns3:TrackPointExtension>
        </extensions>
      </trkpt>
      <trkpt lat="45.32351153902709484100341796875" lon="-70.92760001309216022491455078125">
        <ele>630.4000244140625</ele>
        <time>2026-08-21T17:06:16.000Z</time>
        <extensions>
          <ns3:TrackPointExtension>
            <ns3:hr>124</ns3:hr>
            <ns3:cad>57</ns3:cad>
          </ns3:TrackPointExtension>
        </extensions>
      </trkpt>
      <trkpt lat="45.32350785098969936370849609375" lon="-70.927619375288486480712890625">
        <ele>630.4000244140625</ele>
        <time>2026-08-21T17:06:17.000Z</time>
        <extensions>
          <ns3:TrackPointExtension>
            <ns3:hr>124</ns3:hr>
            <ns3:cad>57</ns3:cad>
          </ns3:TrackPointExtension>
        </extensions>
      </trkpt>
      <trkpt lat="45.3235025703907012939453125" lon="-70.92764292843639850616455078125">
        <ele>630.4000244140625</ele>
        <time>2026-08-21T17:06:18.000Z</time>
        <extensions>
          <ns3:TrackPointExtension>
            <ns3:hr>124</ns3:hr>
            <ns3:cad>58</ns3:cad>
          </ns3:TrackPointExtension>
        </extensions>
      </trkpt>
      <trkpt lat="45.32349209301173686981201171875" lon="-70.9276606142520904541015625">
        <ele>630.4000244140625</ele>
        <time>2026-08-21T17:06:19.000Z</time>
        <extensions>
          <ns3:TrackPointExtension>
            <ns3:hr>124</ns3:hr>
            <ns3:cad>58</ns3:cad>
          </ns3:TrackPointExtension>
        </extensions>
      </trkpt>
      <trkpt lat="45.3234809450805187225341796875" lon="-70.92768165282905101776123046875">
        <ele>630.4000244140625</ele>
        <time>2026-08-21T17:06:20.000Z</time>
        <extensions>
          <ns3:TrackPointExtension>
            <ns3:hr>124</ns3:hr>
            <ns3:cad>58</ns3:cad>
          </ns3:TrackPointExtension>
        </extensions>
      </trkpt>
      <trkpt lat="45.323471389710903167724609375" lon="-70.92770327813923358917236328125">
        <ele>630.4000244140625</ele>
        <time>2026-08-21T17:06:21.000Z</time>
        <extensions>
          <ns3:TrackPointExtension>
            <ns3:hr>124</ns3:hr>
            <ns3:cad>58</ns3:cad>
          </ns3:TrackPointExtension>
        </extensions>
      </trkpt>
      <trkpt lat="45.32346409745514392852783203125" lon="-70.92772138305008411407470703125">
        <ele>630.5999755859375</ele>
        <time>2026-08-21T17:06:22.000Z</time>
        <extensions>
          <ns3:TrackPointExtension>
            <ns3:hr>124</ns3:hr>
            <ns3:cad>56</ns3:cad>
          </ns3:TrackPointExtension>
        </extensions>
      </trkpt>
      <trkpt lat="45.3234578110277652740478515625" lon="-70.9277412481606006622314453125">
        <ele>630.5999755859375</ele>
        <time>2026-08-21T17:06:23.000Z</time>
        <extensions>
          <ns3:TrackPointExtension>
            <ns3:hr>123</ns3:hr>
            <ns3:cad>56</ns3:cad>
          </ns3:TrackPointExtension>
        </extensions>
      </trkpt>
      <trkpt lat="45.32345102168619632720947265625" lon="-70.927762873470783233642578125">
        <ele>630.5999755859375</ele>
        <time>2026-08-21T17:06:24.000Z</time>
        <extensions>
          <ns3:TrackPointExtension>
            <ns3:hr>123</ns3:hr>
            <ns3:cad>56</ns3:cad>
          </ns3:TrackPointExtension>
        </extensions>
      </trkpt>
      <trkpt lat="45.32344884239137172698974609375" lon="-70.9277818165719509124755859375">
        <ele>630.5999755859375</ele>
        <time>2026-08-21T17:06:25.000Z</time>
        <extensions>
          <ns3:TrackPointExtension>
            <ns3:hr>123</ns3:hr>
            <ns3:cad>56</ns3:cad>
          </ns3:TrackPointExtension>
        </extensions>
      </trkpt>
      <trkpt lat="45.32344289124011993408203125" lon="-70.92780034057796001434326171875">
        <ele>630.79998779296875</ele>
        <time>2026-08-21T17:06:26.000Z</time>
        <extensions>
          <ns3:TrackPointExtension>
            <ns3:hr>123</ns3:hr>
            <ns3:cad>56</ns3:cad>
          </ns3:TrackPointExtension>
        </extensions>
      </trkpt>
      <trkpt lat="45.32343425787985324859619140625" lon="-70.927821211516857147216796875">
        <ele>630.79998779296875</ele>
        <time>2026-08-21T17:06:27.000Z</time>
        <extensions>
          <ns3:TrackPointExtension>
            <ns3:hr>123</ns3:hr>
            <ns3:cad>56</ns3:cad>
          </ns3:TrackPointExtension>
        </extensions>
      </trkpt>
      <trkpt lat="45.32342411577701568603515625" lon="-70.92784007079899311065673828125">
        <ele>630.79998779296875</ele>
        <time>2026-08-21T17:06:28.000Z</time>
        <extensions>
          <ns3:TrackPointExtension>
            <ns3:hr>123</ns3:hr>
            <ns3:cad>56</ns3:cad>
          </ns3:TrackPointExtension>
        </extensions>
      </trkpt>
      <trkpt lat="45.3234140574932098388671875" lon="-70.92786136083304882049560546875">
        <ele>630.79998779296875</ele>
        <time>2026-08-21T17:06:29.000Z</time>
        <extensions>
          <ns3:TrackPointExtension>
            <ns3:hr>123</ns3:hr>
            <ns3:cad>57</ns3:cad>
          </ns3:TrackPointExtension>
        </extensions>
      </trkpt>
      <trkpt lat="45.323408357799053192138671875" lon="-70.927876867353916168212890625">
        <ele>631</ele>
        <time>2026-08-21T17:06:30.000Z</time>
        <extensions>
          <ns3:TrackPointExtension>
            <ns3:hr>123</ns3:hr>
            <ns3:cad>57</ns3:cad>
          </ns3:TrackPointExtension>
        </extensions>
      </trkpt>
      <trkpt lat="45.32339888624846935272216796875" lon="-70.9278934635221958160400390625">
        <ele>631</ele>
        <time>2026-08-21T17:06:31.000Z</time>
        <extensions>
          <ns3:TrackPointExtension>
            <ns3:hr>123</ns3:hr>
            <ns3:cad>57</ns3:cad>
          </ns3:TrackPointExtension>
        </extensions>
      </trkpt>
      <trkpt lat="45.32338782213628292083740234375" lon="-70.92791282571852207183837890625">
        <ele>631.20001220703125</ele>
        <time>2026-08-21T17:06:32.000Z</time>
        <extensions>
          <ns3:TrackPointExtension>
            <ns3:hr>123</ns3:hr>
            <ns3:cad>57</ns3:cad>
          </ns3:TrackPointExtension>
        </extensions>
      </trkpt>
      <trkpt lat="45.3233791887760162353515625" lon="-70.92793126590549945831298828125">
        <ele>631.20001220703125</ele>
        <time>2026-08-21T17:06:33.000Z</time>
        <extensions>
          <ns3:TrackPointExtension>
            <ns3:hr>123</ns3:hr>
            <ns3:cad>57</ns3:cad>
          </ns3:TrackPointExtension>
        </extensions>
      </trkpt>
      <trkpt lat="45.32336921431124210357666015625" lon="-70.9279471077024936676025390625">
        <ele>631.4000244140625</ele>
        <time>2026-08-21T17:06:34.000Z</time>
        <extensions>
          <ns3:TrackPointExtension>
            <ns3:hr>123</ns3:hr>
            <ns3:cad>56</ns3:cad>
          </ns3:TrackPointExtension>
        </extensions>
      </trkpt>
      <trkpt lat="45.32336116768419742584228515625" lon="-70.92796294949948787689208984375">
        <ele>631.4000244140625</ele>
        <time>2026-08-21T17:06:35.000Z</time>
        <extensions>
          <ns3:TrackPointExtension>
            <ns3:hr>123</ns3:hr>
            <ns3:cad>56</ns3:cad>
          </ns3:TrackPointExtension>
        </extensions>
      </trkpt>
      <trkpt lat="45.32335010357201099395751953125" lon="-70.9279803000390529632568359375">
        <ele>631.5999755859375</ele>
        <time>2026-08-21T17:06:36.000Z</time>
        <extensions>
          <ns3:TrackPointExtension>
            <ns3:hr>124</ns3:hr>
            <ns3:cad>56</ns3:cad>
          </ns3:TrackPointExtension>
        </extensions>
      </trkpt>
      <trkpt lat="45.32333937473595142364501953125" lon="-70.92799723148345947265625">
        <ele>631.5999755859375</ele>
        <time>2026-08-21T17:06:37.000Z</time>
        <extensions>
          <ns3:TrackPointExtension>
            <ns3:hr>124</ns3:hr>
            <ns3:cad>56</ns3:cad>
          </ns3:TrackPointExtension>
        </extensions>
      </trkpt>
      <trkpt lat="45.3233282268047332763671875" lon="-70.9280138276517391204833984375">
        <ele>631.5999755859375</ele>
        <time>2026-08-21T17:06:38.000Z</time>
        <extensions>
          <ns3:TrackPointExtension>
            <ns3:hr>124</ns3:hr>
            <ns3:cad>56</ns3:cad>
          </ns3:TrackPointExtension>
        </extensions>
      </trkpt>
      <trkpt lat="45.32331741414964199066162109375" lon="-70.92803000472486019134521484375">
        <ele>631.79998779296875</ele>
        <time>2026-08-21T17:06:39.000Z</time>
        <extensions>
          <ns3:TrackPointExtension>
            <ns3:hr>124</ns3:hr>
            <ns3:cad>56</ns3:cad>
          </ns3:TrackPointExtension>
        </extensions>
      </trkpt>
      <trkpt lat="45.3233069367706775665283203125" lon="-70.9280463494360446929931640625">
        <ele>631.79998779296875</ele>
        <time>2026-08-21T17:06:40.000Z</time>
        <extensions>
          <ns3:TrackPointExtension>
            <ns3:hr>124</ns3:hr>
            <ns3:cad>56</ns3:cad>
          </ns3:TrackPointExtension>
        </extensions>
      </trkpt>
      <trkpt lat="45.32329738140106201171875" lon="-70.92806252650916576385498046875">
        <ele>632</ele>
        <time>2026-08-21T17:06:41.000Z</time>
        <extensions>
          <ns3:TrackPointExtension>
            <ns3:hr>124</ns3:hr>
            <ns3:cad>56</ns3:cad>
          </ns3:TrackPointExtension>
        </extensions>
      </trkpt>
      <trkpt lat="45.32328656874597072601318359375" lon="-70.9280805476009845733642578125">
        <ele>632</ele>
        <time>2026-08-21T17:06:42.000Z</time>
        <extensions>
          <ns3:TrackPointExtension>
            <ns3:hr>125</ns3:hr>
            <ns3:cad>57</ns3:cad>
          </ns3:TrackPointExtension>
        </extensions>
      </trkpt>
      <trkpt lat="45.32327592372894287109375" lon="-70.928096808493137359619140625">
        <ele>632.20001220703125</ele>
        <time>2026-08-21T17:06:43.000Z</time>
        <extensions>
          <ns3:TrackPointExtension>
            <ns3:hr>125</ns3:hr>
            <ns3:cad>57</ns3:cad>
          </ns3:TrackPointExtension>
        </extensions>
      </trkpt>
      <trkpt lat="45.3232633508741855621337890625" lon="-70.9281100519001483917236328125">
        <ele>632.4000244140625</ele>
        <time>2026-08-21T17:06:44.000Z</time>
        <extensions>
          <ns3:TrackPointExtension>
            <ns3:hr>125</ns3:hr>
            <ns3:cad>57</ns3:cad>
          </ns3:TrackPointExtension>
        </extensions>
      </trkpt>
      <trkpt lat="45.3232509456574916839599609375" lon="-70.92812404967844486236572265625">
        <ele>632.4000244140625</ele>
        <time>2026-08-21T17:06:45.000Z</time>
        <extensions>
          <ns3:TrackPointExtension>
            <ns3:hr>125</ns3:hr>
            <ns3:cad>57</ns3:cad>
          </ns3:TrackPointExtension>
        </extensions>
      </trkpt>
      <trkpt lat="45.32324038445949554443359375" lon="-70.92813595198094844818115234375">
        <ele>632.4000244140625</ele>
        <time>2026-08-21T17:06:46.000Z</time>
        <extensions>
          <ns3:TrackPointExtension>
            <ns3:hr>125</ns3:hr>
            <ns3:cad>57</ns3:cad>
          </ns3:TrackPointExtension>
        </extensions>
      </trkpt>
      <trkpt lat="45.32322806306183338165283203125" lon="-70.92814869247376918792724609375">
        <ele>632.5999755859375</ele>
        <time>2026-08-21T17:06:47.000Z</time>
        <extensions>
          <ns3:TrackPointExtension>
            <ns3:hr>125</ns3:hr>
            <ns3:cad>57</ns3:cad>
          </ns3:TrackPointExtension>
        </extensions>
      </trkpt>
      <trkpt lat="45.3232180885970592498779296875" lon="-70.928165204823017120361328125">
        <ele>632.5999755859375</ele>
        <time>2026-08-21T17:06:48.000Z</time>
        <extensions>
          <ns3:TrackPointExtension>
            <ns3:hr>125</ns3:hr>
            <ns3:cad>57</ns3:cad>
          </ns3:TrackPointExtension>
        </extensions>
      </trkpt>
      <trkpt lat="45.3232090361416339874267578125" lon="-70.9281797893345355987548828125">
        <ele>632.79998779296875</ele>
        <time>2026-08-21T17:06:49.000Z</time>
        <extensions>
          <ns3:TrackPointExtension>
            <ns3:hr>125</ns3:hr>
            <ns3:cad>56</ns3:cad>
          </ns3:TrackPointExtension>
        </extensions>
      </trkpt>
      <trkpt lat="45.32320023514330387115478515625" lon="-70.9281992353498935699462890625">
        <ele>632.79998779296875</ele>
        <time>2026-08-21T17:06:50.000Z</time>
        <extensions>
          <ns3:TrackPointExtension>
            <ns3:hr>124</ns3:hr>
            <ns3:cad>56</ns3:cad>
          </ns3:TrackPointExtension>
        </extensions>
      </trkpt>
      <trkpt lat="45.323190428316593170166015625" lon="-70.928218178451061248779296875">
        <ele>632.79998779296875</ele>
        <time>2026-08-21T17:06:51.000Z</time>
        <extensions>
          <ns3:TrackPointExtension>
            <ns3:hr>125</ns3:hr>
            <ns3:cad>56</ns3:cad>
          </ns3:TrackPointExtension>
        </extensions>
      </trkpt>
      <trkpt lat="45.3231805376708507537841796875" lon="-70.9282346069812774658203125">
        <ele>633</ele>
        <time>2026-08-21T17:06:52.000Z</time>
        <extensions>
          <ns3:TrackPointExtension>
            <ns3:hr>125</ns3:hr>
            <ns3:cad>57</ns3:cad>
          </ns3:TrackPointExtension>
        </extensions>
      </trkpt>
      <trkpt lat="45.32317089848220348358154296875" lon="-70.92825095169246196746826171875">
        <ele>633</ele>
        <time>2026-08-21T17:06:53.000Z</time>
        <extensions>
          <ns3:TrackPointExtension>
            <ns3:hr>125</ns3:hr>
            <ns3:cad>57</ns3:cad>
          </ns3:TrackPointExtension>
        </extensions>
      </trkpt>
      <trkpt lat="45.32315765507519245147705078125" lon="-70.92826821841299533843994140625">
        <ele>633</ele>
        <time>2026-08-21T17:06:54.000Z</time>
        <extensions>
          <ns3:TrackPointExtension>
            <ns3:hr>124</ns3:hr>
            <ns3:cad>56</ns3:cad>
          </ns3:TrackPointExtension>
        </extensions>
      </trkpt>
      <trkpt lat="45.32315027900040149688720703125" lon="-70.928287245333194732666015625">
        <ele>633.20001220703125</ele>
        <time>2026-08-21T17:06:55.000Z</time>
        <extensions>
          <ns3:TrackPointExtension>
            <ns3:hr>125</ns3:hr>
            <ns3:cad>56</ns3:cad>
          </ns3:TrackPointExtension>
        </extensions>
      </trkpt>
      <trkpt lat="45.3231409750878810882568359375" lon="-70.9283048473298549652099609375">
        <ele>633.20001220703125</ele>
        <time>2026-08-21T17:06:56.000Z</time>
        <extensions>
          <ns3:TrackPointExtension>
            <ns3:hr>125</ns3:hr>
            <ns3:cad>56</ns3:cad>
          </ns3:TrackPointExtension>
        </extensions>
      </trkpt>
      <trkpt lat="45.32313317991793155670166015625" lon="-70.92832135967910289764404296875">
        <ele>633.20001220703125</ele>
        <time>2026-08-21T17:06:57.000Z</time>
        <extensions>
          <ns3:TrackPointExtension>
            <ns3:hr>124</ns3:hr>
            <ns3:cad>55</ns3:cad>
          </ns3:TrackPointExtension>
        </extensions>
      </trkpt>
      <trkpt lat="45.32312362454831600189208984375" lon="-70.928338207304477691650390625">
        <ele>633.4000244140625</ele>
        <time>2026-08-21T17:06:58.000Z</time>
        <extensions>
          <ns3:TrackPointExtension>
            <ns3:hr>125</ns3:hr>
            <ns3:cad>55</ns3:cad>
          </ns3:TrackPointExtension>
        </extensions>
      </trkpt>
      <trkpt lat="45.323113985359668731689453125" lon="-70.92835522256791591644287109375">
        <ele>633.4000244140625</ele>
        <time>2026-08-21T17:06:59.000Z</time>
        <extensions>
          <ns3:TrackPointExtension>
            <ns3:hr>125</ns3:hr>
            <ns3:cad>56</ns3:cad>
          </ns3:TrackPointExtension>
        </extensions>
      </trkpt>
      <trkpt lat="45.3231051005423069000244140625" lon="-70.92837265692651271820068359375">
        <ele>633.4000244140625</ele>
        <time>2026-08-21T17:07:00.000Z</time>
        <extensions>
          <ns3:TrackPointExtension>
            <ns3:hr>125</ns3:hr>
            <ns3:cad>56</ns3:cad>
          </ns3:TrackPointExtension>
        </extensions>
      </trkpt>
      <trkpt lat="45.3230943717062473297119140625" lon="-70.92838975600898265838623046875">
        <ele>633.5999755859375</ele>
        <time>2026-08-21T17:07:01.000Z</time>
        <extensions>
          <ns3:TrackPointExtension>
            <ns3:hr>125</ns3:hr>
            <ns3:cad>56</ns3:cad>
          </ns3:TrackPointExtension>
        </extensions>
      </trkpt>
      <trkpt lat="45.32308171503245830535888671875" lon="-70.9284107945859432220458984375">
        <ele>633.5999755859375</ele>
        <time>2026-08-21T17:07:02.000Z</time>
        <extensions>
          <ns3:TrackPointExtension>
            <ns3:hr>125</ns3:hr>
            <ns3:cad>56</ns3:cad>
          </ns3:TrackPointExtension>
        </extensions>
      </trkpt>
      <trkpt lat="45.32307517714798450469970703125" lon="-70.92843116261065006256103515625">
        <ele>633.5999755859375</ele>
        <time>2026-08-21T17:07:03.000Z</time>
        <extensions>
          <ns3:TrackPointExtension>
            <ns3:hr>125</ns3:hr>
            <ns3:cad>56</ns3:cad>
          </ns3:TrackPointExtension>
        </extensions>
      </trkpt>
      <trkpt lat="45.323066376149654388427734375" lon="-70.9284486807882785797119140625">
        <ele>633.5999755859375</ele>
        <time>2026-08-21T17:07:04.000Z</time>
        <extensions>
          <ns3:TrackPointExtension>
            <ns3:hr>125</ns3:hr>
            <ns3:cad>57</ns3:cad>
          </ns3:TrackPointExtension>
        </extensions>
      </trkpt>
      <trkpt lat="45.3230564855039119720458984375" lon="-70.92846619896590709686279296875">
        <ele>633.79998779296875</ele>
        <time>2026-08-21T17:07:05.000Z</time>
        <extensions>
          <ns3:TrackPointExtension>
            <ns3:hr>126</ns3:hr>
            <ns3:cad>57</ns3:cad>
          </ns3:TrackPointExtension>
        </extensions>
      </trkpt>
      <trkpt lat="45.3230484388768672943115234375" lon="-70.92848363332450389862060546875">
        <ele>633.5999755859375</ele>
        <time>2026-08-21T17:07:06.000Z</time>
        <extensions>
          <ns3:TrackPointExtension>
            <ns3:hr>126</ns3:hr>
            <ns3:cad>57</ns3:cad>
          </ns3:TrackPointExtension>
        </extensions>
      </trkpt>
      <trkpt lat="45.32304014079272747039794921875" lon="-70.92850408516824245452880859375">
        <ele>633.5999755859375</ele>
        <time>2026-08-21T17:07:07.000Z</time>
        <extensions>
          <ns3:TrackPointExtension>
            <ns3:hr>126</ns3:hr>
            <ns3:cad>56</ns3:cad>
          </ns3:TrackPointExtension>
        </extensions>
      </trkpt>
      <trkpt lat="45.323031507432460784912109375" lon="-70.928524620831012725830078125">
        <ele>633.79998779296875</ele>
        <time>2026-08-21T17:07:08.000Z</time>
        <extensions>
          <ns3:TrackPointExtension>
            <ns3:hr>126</ns3:hr>
            <ns3:cad>56</ns3:cad>
          </ns3:TrackPointExtension>
        </extensions>
      </trkpt>
      <trkpt lat="45.32302354462444782257080078125" lon="-70.9285430610179901123046875">
        <ele>633.79998779296875</ele>
        <time>2026-08-21T17:07:09.000Z</time>
        <extensions>
          <ns3:TrackPointExtension>
            <ns3:hr>126</ns3:hr>
            <ns3:cad>57</ns3:cad>
          </ns3:TrackPointExtension>
        </extensions>
      </trkpt>
      <trkpt lat="45.32301264815032482147216796875" lon="-70.92856242321431636810302734375">
        <ele>634</ele>
        <time>2026-08-21T17:07:10.000Z</time>
        <extensions>
          <ns3:TrackPointExtension>
            <ns3:hr>125</ns3:hr>
            <ns3:cad>57</ns3:cad>
          </ns3:TrackPointExtension>
        </extensions>
      </trkpt>
      <trkpt lat="45.32300443388521671295166015625" lon="-70.92858019284904003143310546875">
        <ele>634</ele>
        <time>2026-08-21T17:07:11.000Z</time>
        <extensions>
          <ns3:TrackPointExtension>
            <ns3:hr>126</ns3:hr>
            <ns3:cad>57</ns3:cad>
          </ns3:TrackPointExtension>
        </extensions>
      </trkpt>
      <trkpt lat="45.32299898564815521240234375" lon="-70.92859896831214427947998046875">
        <ele>634</ele>
        <time>2026-08-21T17:07:12.000Z</time>
        <extensions>
          <ns3:TrackPointExtension>
            <ns3:hr>126</ns3:hr>
            <ns3:cad>56</ns3:cad>
          </ns3:TrackPointExtension>
        </extensions>
      </trkpt>
      <trkpt lat="45.3229870833456516265869140625" lon="-70.928619839251041412353515625">
        <ele>634</ele>
        <time>2026-08-21T17:07:13.000Z</time>
        <extensions>
          <ns3:TrackPointExtension>
            <ns3:hr>126</ns3:hr>
            <ns3:cad>56</ns3:cad>
          </ns3:TrackPointExtension>
        </extensions>
      </trkpt>
      <trkpt lat="45.3229795396327972412109375" lon="-70.928639955818653106689453125">
        <ele>634</ele>
        <time>2026-08-21T17:07:14.000Z</time>
        <extensions>
          <ns3:TrackPointExtension>
            <ns3:hr>126</ns3:hr>
            <ns3:cad>57</ns3:cad>
          </ns3:TrackPointExtension>
        </extensions>
      </trkpt>
      <trkpt lat="45.32297040335834026336669921875" lon="-70.9286610782146453857421875">
        <ele>634</ele>
        <time>2026-08-21T17:07:15.000Z</time>
        <extensions>
          <ns3:TrackPointExtension>
            <ns3:hr>125</ns3:hr>
            <ns3:cad>57</ns3:cad>
          </ns3:TrackPointExtension>
        </extensions>
      </trkpt>
      <trkpt lat="45.3229639492928981781005859375" lon="-70.92868245206773281097412109375">
        <ele>634</ele>
        <time>2026-08-21T17:07:16.000Z</time>
        <extensions>
          <ns3:TrackPointExtension>
            <ns3:hr>126</ns3:hr>
            <ns3:cad>57</ns3:cad>
          </ns3:TrackPointExtension>
        </extensions>
      </trkpt>
      <trkpt lat="45.32295715995132923126220703125" lon="-70.92870122753083705902099609375">
        <ele>634</ele>
        <time>2026-08-21T17:07:17.000Z</time>
        <extensions>
          <ns3:TrackPointExtension>
            <ns3:hr>126</ns3:hr>
            <ns3:cad>57</ns3:cad>
          </ns3:TrackPointExtension>
        </extensions>
      </trkpt>
      <trkpt lat="45.32295062206685543060302734375" lon="-70.92871631495654582977294921875">
        <ele>634</ele>
        <time>2026-08-21T17:07:18.000Z</time>
        <extensions>
          <ns3:TrackPointExtension>
            <ns3:hr>126</ns3:hr>
            <ns3:cad>57</ns3:cad>
          </ns3:TrackPointExtension>
        </extensions>
      </trkpt>
      <trkpt lat="45.32294693402945995330810546875" lon="-70.92873257584869861602783203125">
        <ele>634</ele>
        <time>2026-08-21T17:07:19.000Z</time>
        <extensions>
          <ns3:TrackPointExtension>
            <ns3:hr>127</ns3:hr>
            <ns3:cad>57</ns3:cad>
          </ns3:TrackPointExtension>
        </extensions>
      </trkpt>
      <trkpt lat="45.32294156961143016815185546875" lon="-70.928750932216644287109375">
        <ele>634</ele>
        <time>2026-08-21T17:07:20.000Z</time>
        <extensions>
          <ns3:TrackPointExtension>
            <ns3:hr>127</ns3:hr>
            <ns3:cad>57</ns3:cad>
          </ns3:TrackPointExtension>
        </extensions>
      </trkpt>
      <trkpt lat="45.322934277355670928955078125" lon="-70.928767360746860504150390625">
        <ele>634</ele>
        <time>2026-08-21T17:07:21.000Z</time>
        <extensions>
          <ns3:TrackPointExtension>
            <ns3:hr>127</ns3:hr>
            <ns3:cad>57</ns3:cad>
          </ns3:TrackPointExtension>
        </extensions>
      </trkpt>
      <trkpt lat="45.32292849384248256683349609375" lon="-70.928788818418979644775390625">
        <ele>634</ele>
        <time>2026-08-21T17:07:22.000Z</time>
        <extensions>
          <ns3:TrackPointExtension>
            <ns3:hr>127</ns3:hr>
            <ns3:cad>56</ns3:cad>
          </ns3:TrackPointExtension>
        </extensions>
      </trkpt>
      <trkpt lat="45.32292162068188190460205078125" lon="-70.92881337739527225494384765625">
        <ele>634.20001220703125</ele>
        <time>2026-08-21T17:07:23.000Z</time>
        <extensions>
          <ns3:TrackPointExtension>
            <ns3:hr>127</ns3:hr>
            <ns3:cad>56</ns3:cad>
          </ns3:TrackPointExtension>
        </extensions>
      </trkpt>
      <trkpt lat="45.32291608862578868865966796875" lon="-70.92883517034351825714111328125">
        <ele>634.20001220703125</ele>
        <time>2026-08-21T17:07:24.000Z</time>
        <extensions>
          <ns3:TrackPointExtension>
            <ns3:hr>126</ns3:hr>
            <ns3:cad>56</ns3:cad>
          </ns3:TrackPointExtension>
        </extensions>
      </trkpt>
      <trkpt lat="45.32291156239807605743408203125" lon="-70.928858220577239990234375">
        <ele>634.20001220703125</ele>
        <time>2026-08-21T17:07:25.000Z</time>
        <extensions>
          <ns3:TrackPointExtension>
            <ns3:hr>126</ns3:hr>
            <ns3:cad>56</ns3:cad>
          </ns3:TrackPointExtension>
        </extensions>
      </trkpt>
      <trkpt lat="45.3229029290378093719482421875" lon="-70.9288808517158031463623046875">
        <ele>634.4000244140625</ele>
        <time>2026-08-21T17:07:26.000Z</time>
        <extensions>
          <ns3:TrackPointExtension>
            <ns3:hr>126</ns3:hr>
            <ns3:cad>56</ns3:cad>
          </ns3:TrackPointExtension>
        </extensions>
      </trkpt>
      <trkpt lat="45.3228958882391452789306640625" lon="-70.928899459540843963623046875">
        <ele>634.4000244140625</ele>
        <time>2026-08-21T17:07:27.000Z</time>
        <extensions>
          <ns3:TrackPointExtension>
            <ns3:hr>126</ns3:hr>
            <ns3:cad>56</ns3:cad>
          </ns3:TrackPointExtension>
        </extensions>
      </trkpt>
      <trkpt lat="45.32288901507854461669921875" lon="-70.92891865409910678863525390625">
        <ele>634.5999755859375</ele>
        <time>2026-08-21T17:07:28.000Z</time>
        <extensions>
          <ns3:TrackPointExtension>
            <ns3:hr>126</ns3:hr>
            <ns3:cad>56</ns3:cad>
          </ns3:TrackPointExtension>
        </extensions>
      </trkpt>
      <trkpt lat="45.3228834830224514007568359375" lon="-70.92893759720027446746826171875">
        <ele>634.5999755859375</ele>
        <time>2026-08-21T17:07:29.000Z</time>
        <extensions>
          <ns3:TrackPointExtension>
            <ns3:hr>126</ns3:hr>
            <ns3:cad>56</ns3:cad>
          </ns3:TrackPointExtension>
        </extensions>
      </trkpt>
      <trkpt lat="45.32287585549056529998779296875" lon="-70.92896006070077419281005859375">
        <ele>634.79998779296875</ele>
        <time>2026-08-21T17:07:30.000Z</time>
        <extensions>
          <ns3:TrackPointExtension>
            <ns3:hr>126</ns3:hr>
            <ns3:cad>56</ns3:cad>
          </ns3:TrackPointExtension>
        </extensions>
      </trkpt>
      <trkpt lat="45.32286948524415493011474609375" lon="-70.9289807640016078948974609375">
        <ele>634.79998779296875</ele>
        <time>2026-08-21T17:07:31.000Z</time>
        <extensions>
          <ns3:TrackPointExtension>
            <ns3:hr>126</ns3:hr>
            <ns3:cad>56</ns3:cad>
          </ns3:TrackPointExtension>
        </extensions>
      </trkpt>
      <trkpt lat="45.32286395318806171417236328125" lon="-70.9289995394647121429443359375">
        <ele>634.79998779296875</ele>
        <time>2026-08-21T17:07:32.000Z</time>
        <extensions>
          <ns3:TrackPointExtension>
            <ns3:hr>126</ns3:hr>
            <ns3:cad>56</ns3:cad>
          </ns3:TrackPointExtension>
        </extensions>
      </trkpt>
      <trkpt lat="45.32285758294165134429931640625" lon="-70.929019488394260406494140625">
        <ele>635</ele>
        <time>2026-08-21T17:07:33.000Z</time>
        <extensions>
          <ns3:TrackPointExtension>
            <ns3:hr>126</ns3:hr>
            <ns3:cad>56</ns3:cad>
          </ns3:TrackPointExtension>
        </extensions>
      </trkpt>
      <trkpt lat="45.32285255379974842071533203125" lon="-70.929040275514125823974609375">
        <ele>635</ele>
        <time>2026-08-21T17:07:34.000Z</time>
        <extensions>
          <ns3:TrackPointExtension>
            <ns3:hr>126</ns3:hr>
            <ns3:cad>56</ns3:cad>
          </ns3:TrackPointExtension>
        </extensions>
      </trkpt>
      <trkpt lat="45.322847776114940643310546875" lon="-70.92906215228140354156494140625">
        <ele>635</ele>
        <time>2026-08-21T17:07:35.000Z</time>
        <extensions>
          <ns3:TrackPointExtension>
            <ns3:hr>126</ns3:hr>
            <ns3:cad>56</ns3:cad>
          </ns3:TrackPointExtension>
        </extensions>
      </trkpt>
      <trkpt lat="45.32284216023981571197509765625" lon="-70.92908159829676151275634765625">
        <ele>635</ele>
        <time>2026-08-21T17:07:36.000Z</time>
        <extensions>
          <ns3:TrackPointExtension>
            <ns3:hr>126</ns3:hr>
            <ns3:cad>56</ns3:cad>
          </ns3:TrackPointExtension>
        </extensions>
      </trkpt>
      <trkpt lat="45.3228365443646907806396484375" lon="-70.929103307425975799560546875">
        <ele>635</ele>
        <time>2026-08-21T17:07:37.000Z</time>
        <extensions>
          <ns3:TrackPointExtension>
            <ns3:hr>126</ns3:hr>
            <ns3:cad>56</ns3:cad>
          </ns3:TrackPointExtension>
        </extensions>
      </trkpt>
      <trkpt lat="45.32283159904181957244873046875" lon="-70.929123423993587493896484375">
        <ele>635.20001220703125</ele>
        <time>2026-08-21T17:07:38.000Z</time>
        <extensions>
          <ns3:TrackPointExtension>
            <ns3:hr>126</ns3:hr>
            <ns3:cad>56</ns3:cad>
          </ns3:TrackPointExtension>
        </extensions>
      </trkpt>
      <trkpt lat="45.3228224627673625946044921875" lon="-70.9291420318186283111572265625">
        <ele>635.20001220703125</ele>
        <time>2026-08-21T17:07:39.000Z</time>
        <extensions>
          <ns3:TrackPointExtension>
            <ns3:hr>125</ns3:hr>
            <ns3:cad>56</ns3:cad>
          </ns3:TrackPointExtension>
        </extensions>
      </trkpt>
      <trkpt lat="45.3228187747299671173095703125" lon="-70.9291611425578594207763671875">
        <ele>635.4000244140625</ele>
        <time>2026-08-21T17:07:40.000Z</time>
        <extensions>
          <ns3:TrackPointExtension>
            <ns3:hr>125</ns3:hr>
            <ns3:cad>56</ns3:cad>
          </ns3:TrackPointExtension>
        </extensions>
      </trkpt>
      <trkpt lat="45.3228147514164447784423828125" lon="-70.92918301932513713836669921875">
        <ele>635.4000244140625</ele>
        <time>2026-08-21T17:07:41.000Z</time>
        <extensions>
          <ns3:TrackPointExtension>
            <ns3:hr>124</ns3:hr>
            <ns3:cad>56</ns3:cad>
          </ns3:TrackPointExtension>
        </extensions>
      </trkpt>
      <trkpt lat="45.322807542979717254638671875" lon="-70.92920363880693912506103515625">
        <ele>635.5999755859375</ele>
        <time>2026-08-21T17:07:42.000Z</time>
        <extensions>
          <ns3:TrackPointExtension>
            <ns3:hr>124</ns3:hr>
            <ns3:cad>56</ns3:cad>
          </ns3:TrackPointExtension>
        </extensions>
      </trkpt>
      <trkpt lat="45.3228020109236240386962890625" lon="-70.92922635376453399658203125">
        <ele>635.5999755859375</ele>
        <time>2026-08-21T17:07:43.000Z</time>
        <extensions>
          <ns3:TrackPointExtension>
            <ns3:hr>124</ns3:hr>
            <ns3:cad>56</ns3:cad>
          </ns3:TrackPointExtension>
        </extensions>
      </trkpt>
      <trkpt lat="45.32279572449624538421630859375" lon="-70.9292471408843994140625">
        <ele>635.5999755859375</ele>
        <time>2026-08-21T17:07:44.000Z</time>
        <extensions>
          <ns3:TrackPointExtension>
            <ns3:hr>124</ns3:hr>
            <ns3:cad>55</ns3:cad>
          </ns3:TrackPointExtension>
        </extensions>
      </trkpt>
      <trkpt lat="45.32279103063046932220458984375" lon="-70.92927061021327972412109375">
        <ele>635.5999755859375</ele>
        <time>2026-08-21T17:07:45.000Z</time>
        <extensions>
          <ns3:TrackPointExtension>
            <ns3:hr>124</ns3:hr>
            <ns3:cad>55</ns3:cad>
          </ns3:TrackPointExtension>
        </extensions>
      </trkpt>
      <trkpt lat="45.322786085307598114013671875" lon="-70.92929399572312831878662109375">
        <ele>635.5999755859375</ele>
        <time>2026-08-21T17:07:46.000Z</time>
        <extensions>
          <ns3:TrackPointExtension>
            <ns3:hr>123</ns3:hr>
            <ns3:cad>55</ns3:cad>
          </ns3:TrackPointExtension>
        </extensions>
      </trkpt>
      <trkpt lat="45.3227798826992511749267578125" lon="-70.92931327410042285919189453125">
        <ele>635.5999755859375</ele>
        <time>2026-08-21T17:07:47.000Z</time>
        <extensions>
          <ns3:TrackPointExtension>
            <ns3:hr>123</ns3:hr>
            <ns3:cad>56</ns3:cad>
          </ns3:TrackPointExtension>
        </extensions>
      </trkpt>
      <trkpt lat="45.3227721713483333587646484375" lon="-70.9293348155915737152099609375">
        <ele>635.79998779296875</ele>
        <time>2026-08-21T17:07:48.000Z</time>
        <extensions>
          <ns3:TrackPointExtension>
            <ns3:hr>123</ns3:hr>
            <ns3:cad>56</ns3:cad>
          </ns3:TrackPointExtension>
        </extensions>
      </trkpt>
      <trkpt lat="45.3227668069303035736083984375" lon="-70.9293530881404876708984375">
        <ele>635.79998779296875</ele>
        <time>2026-08-21T17:07:49.000Z</time>
        <extensions>
          <ns3:TrackPointExtension>
            <ns3:hr>123</ns3:hr>
            <ns3:cad>56</ns3:cad>
          </ns3:TrackPointExtension>
        </extensions>
      </trkpt>
      <trkpt lat="45.32276202924549579620361328125" lon="-70.92937312088906764984130859375">
        <ele>635.79998779296875</ele>
        <time>2026-08-21T17:07:50.000Z</time>
        <extensions>
          <ns3:TrackPointExtension>
            <ns3:hr>123</ns3:hr>
            <ns3:cad>56</ns3:cad>
          </ns3:TrackPointExtension>
        </extensions>
      </trkpt>
      <trkpt lat="45.32275599427521228790283203125" lon="-70.92938988469541072845458984375">
        <ele>635.79998779296875</ele>
        <time>2026-08-21T17:07:51.000Z</time>
        <extensions>
          <ns3:TrackPointExtension>
            <ns3:hr>123</ns3:hr>
            <ns3:cad>56</ns3:cad>
          </ns3:TrackPointExtension>
        </extensions>
      </trkpt>
      <trkpt lat="45.322747863829135894775390625" lon="-70.92940949834883213043212890625">
        <ele>636</ele>
        <time>2026-08-21T17:07:52.000Z</time>
        <extensions>
          <ns3:TrackPointExtension>
            <ns3:hr>122</ns3:hr>
            <ns3:cad>56</ns3:cad>
          </ns3:TrackPointExtension>
        </extensions>
      </trkpt>
      <trkpt lat="45.322742499411106109619140625" lon="-70.92942927964031696319580078125">
        <ele>636</ele>
        <time>2026-08-21T17:07:53.000Z</time>
        <extensions>
          <ns3:TrackPointExtension>
            <ns3:hr>122</ns3:hr>
            <ns3:cad>56</ns3:cad>
          </ns3:TrackPointExtension>
        </extensions>
      </trkpt>
      <trkpt lat="45.3227341175079345703125" lon="-70.929444618523120880126953125">
        <ele>636.20001220703125</ele>
        <time>2026-08-21T17:07:54.000Z</time>
        <extensions>
          <ns3:TrackPointExtension>
            <ns3:hr>122</ns3:hr>
            <ns3:cad>56</ns3:cad>
          </ns3:TrackPointExtension>
        </extensions>
      </trkpt>
      <trkpt lat="45.32272548414766788482666015625" lon="-70.92946238815784454345703125">
        <ele>636.20001220703125</ele>
        <time>2026-08-21T17:07:55.000Z</time>
        <extensions>
          <ns3:TrackPointExtension>
            <ns3:hr>122</ns3:hr>
            <ns3:cad>56</ns3:cad>
          </ns3:TrackPointExtension>
        </extensions>
      </trkpt>
      <trkpt lat="45.32272045500576496124267578125" lon="-70.92948116362094879150390625">
        <ele>636.20001220703125</ele>
        <time>2026-08-21T17:07:56.000Z</time>
        <extensions>
          <ns3:TrackPointExtension>
            <ns3:hr>123</ns3:hr>
            <ns3:cad>56</ns3:cad>
          </ns3:TrackPointExtension>
        </extensions>
      </trkpt>
      <trkpt lat="45.322717018425464630126953125" lon="-70.929504297673702239990234375">
        <ele>636.20001220703125</ele>
        <time>2026-08-21T17:07:57.000Z</time>
        <extensions>
          <ns3:TrackPointExtension>
            <ns3:hr>123</ns3:hr>
            <ns3:cad>56</ns3:cad>
          </ns3:TrackPointExtension>
        </extensions>
      </trkpt>
      <trkpt lat="45.32270930707454681396484375" lon="-70.92952500097453594207763671875">
        <ele>636.4000244140625</ele>
        <time>2026-08-21T17:07:58.000Z</time>
        <extensions>
          <ns3:TrackPointExtension>
            <ns3:hr>123</ns3:hr>
            <ns3:cad>56</ns3:cad>
          </ns3:TrackPointExtension>
        </extensions>
      </trkpt>
      <trkpt lat="45.32270285300910472869873046875" lon="-70.929547213017940521240234375">
        <ele>636.4000244140625</ele>
        <time>2026-08-21T17:07:59.000Z</time>
        <extensions>
          <ns3:TrackPointExtension>
            <ns3:hr>122</ns3:hr>
            <ns3:cad>56</ns3:cad>
          </ns3:TrackPointExtension>
        </extensions>
      </trkpt>
      <trkpt lat="45.32269597984850406646728515625" lon="-70.9295671619474887847900390625">
        <ele>636.4000244140625</ele>
        <time>2026-08-21T17:08:00.000Z</time>
        <extensions>
          <ns3:TrackPointExtension>
            <ns3:hr>123</ns3:hr>
            <ns3:cad>56</ns3:cad>
          </ns3:TrackPointExtension>
        </extensions>
      </trkpt>
      <trkpt lat="45.3226898610591888427734375" lon="-70.9295876137912273406982421875">
        <ele>636.4000244140625</ele>
        <time>2026-08-21T17:08:01.000Z</time>
        <extensions>
          <ns3:TrackPointExtension>
            <ns3:hr>123</ns3:hr>
            <ns3:cad>56</ns3:cad>
          </ns3:TrackPointExtension>
        </extensions>
      </trkpt>
      <trkpt lat="45.3226839937269687652587890625" lon="-70.9296105802059173583984375">
        <ele>636.4000244140625</ele>
        <time>2026-08-21T17:08:02.000Z</time>
        <extensions>
          <ns3:TrackPointExtension>
            <ns3:hr>123</ns3:hr>
            <ns3:cad>57</ns3:cad>
          </ns3:TrackPointExtension>
        </extensions>
      </trkpt>
      <trkpt lat="45.32267670147120952606201171875" lon="-70.92962759546935558319091796875">
        <ele>636.4000244140625</ele>
        <time>2026-08-21T17:08:03.000Z</time>
        <extensions>
          <ns3:TrackPointExtension>
            <ns3:hr>123</ns3:hr>
            <ns3:cad>57</ns3:cad>
          </ns3:TrackPointExtension>
        </extensions>
      </trkpt>
      <trkpt lat="45.322672091424465179443359375" lon="-70.92964720912277698516845703125">
        <ele>636.5999755859375</ele>
        <time>2026-08-21T17:08:04.000Z</time>
        <extensions>
          <ns3:TrackPointExtension>
            <ns3:hr>123</ns3:hr>
            <ns3:cad>57</ns3:cad>
          </ns3:TrackPointExtension>
        </extensions>
      </trkpt>
      <trkpt lat="45.32266614027321338653564453125" lon="-70.92966548167169094085693359375">
        <ele>636.5999755859375</ele>
        <time>2026-08-21T17:08:05.000Z</time>
        <extensions>
          <ns3:TrackPointExtension>
            <ns3:hr>122</ns3:hr>
            <ns3:cad>56</ns3:cad>
          </ns3:TrackPointExtension>
        </extensions>
      </trkpt>
      <trkpt lat="45.32266044057905673980712890625" lon="-70.929683335125446319580078125">
        <ele>636.5999755859375</ele>
        <time>2026-08-21T17:08:06.000Z</time>
        <extensions>
          <ns3:TrackPointExtension>
            <ns3:hr>122</ns3:hr>
            <ns3:cad>56</ns3:cad>
          </ns3:TrackPointExtension>
        </extensions>
      </trkpt>
      <trkpt lat="45.32265566289424896240234375" lon="-70.929703451693058013916015625">
        <ele>636.5999755859375</ele>
        <time>2026-08-21T17:08:07.000Z</time>
        <extensions>
          <ns3:TrackPointExtension>
            <ns3:hr>122</ns3:hr>
            <ns3:cad>56</ns3:cad>
          </ns3:TrackPointExtension>
        </extensions>
      </trkpt>
      <trkpt lat="45.32264904119074344635009765625" lon="-70.929720886051654815673828125">
        <ele>636.5999755859375</ele>
        <time>2026-08-21T17:08:08.000Z</time>
        <extensions>
          <ns3:TrackPointExtension>
            <ns3:hr>122</ns3:hr>
            <ns3:cad>56</ns3:cad>
          </ns3:TrackPointExtension>
        </extensions>
      </trkpt>
      <trkpt lat="45.3226404078304767608642578125" lon="-70.92974133789539337158203125">
        <ele>636.5999755859375</ele>
        <time>2026-08-21T17:08:09.000Z</time>
        <extensions>
          <ns3:TrackPointExtension>
            <ns3:hr>122</ns3:hr>
            <ns3:cad>56</ns3:cad>
          </ns3:TrackPointExtension>
        </extensions>
      </trkpt>
      <trkpt lat="45.3226283378899097442626953125" lon="-70.9297612868249416351318359375">
        <ele>636.5999755859375</ele>
        <time>2026-08-21T17:08:10.000Z</time>
        <extensions>
          <ns3:TrackPointExtension>
            <ns3:hr>122</ns3:hr>
            <ns3:cad>56</ns3:cad>
          </ns3:TrackPointExtension>
        </extensions>
      </trkpt>
      <trkpt lat="45.32261819578707218170166015625" lon="-70.92977578751742839813232421875">
        <ele>636.5999755859375</ele>
        <time>2026-08-21T17:08:11.000Z</time>
        <extensions>
          <ns3:TrackPointExtension>
            <ns3:hr>122</ns3:hr>
            <ns3:cad>56</ns3:cad>
          </ns3:TrackPointExtension>
        </extensions>
      </trkpt>
      <trkpt lat="45.32260964624583721160888671875" lon="-70.9297928027808666229248046875">
        <ele>636.79998779296875</ele>
        <time>2026-08-21T17:08:12.000Z</time>
        <extensions>
          <ns3:TrackPointExtension>
            <ns3:hr>122</ns3:hr>
            <ns3:cad>56</ns3:cad>
          </ns3:TrackPointExtension>
        </extensions>
      </trkpt>
      <trkpt lat="45.32260025851428508758544921875" lon="-70.92981107532978057861328125">
        <ele>636.79998779296875</ele>
        <time>2026-08-21T17:08:13.000Z</time>
        <extensions>
          <ns3:TrackPointExtension>
            <ns3:hr>122</ns3:hr>
            <ns3:cad>56</ns3:cad>
          </ns3:TrackPointExtension>
        </extensions>
      </trkpt>
      <trkpt lat="45.322593636810779571533203125" lon="-70.929827503859996795654296875">
        <ele>636.79998779296875</ele>
        <time>2026-08-21T17:08:14.000Z</time>
        <extensions>
          <ns3:TrackPointExtension>
            <ns3:hr>122</ns3:hr>
            <ns3:cad>56</ns3:cad>
          </ns3:TrackPointExtension>
        </extensions>
      </trkpt>
      <trkpt lat="45.32258500345051288604736328125" lon="-70.9298437647521495819091796875">
        <ele>636.79998779296875</ele>
        <time>2026-08-21T17:08:15.000Z</time>
        <extensions>
          <ns3:TrackPointExtension>
            <ns3:hr>122</ns3:hr>
            <ns3:cad>56</ns3:cad>
          </ns3:TrackPointExtension>
        </extensions>
      </trkpt>
      <trkpt lat="45.32257653772830963134765625" lon="-70.92986010946333408355712890625">
        <ele>636.79998779296875</ele>
        <time>2026-08-21T17:08:16.000Z</time>
        <extensions>
          <ns3:TrackPointExtension>
            <ns3:hr>122</ns3:hr>
            <ns3:cad>56</ns3:cad>
          </ns3:TrackPointExtension>
        </extensions>
      </trkpt>
      <trkpt lat="45.3225686587393283843994140625" lon="-70.92987720854580402374267578125">
        <ele>636.79998779296875</ele>
        <time>2026-08-21T17:08:17.000Z</time>
        <extensions>
          <ns3:TrackPointExtension>
            <ns3:hr>122</ns3:hr>
            <ns3:cad>56</ns3:cad>
          </ns3:TrackPointExtension>
        </extensions>
      </trkpt>
      <trkpt lat="45.32255918718874454498291015625" lon="-70.929893217980861663818359375">
        <ele>636.79998779296875</ele>
        <time>2026-08-21T17:08:18.000Z</time>
        <extensions>
          <ns3:TrackPointExtension>
            <ns3:hr>123</ns3:hr>
            <ns3:cad>56</ns3:cad>
          </ns3:TrackPointExtension>
        </extensions>
      </trkpt>
      <trkpt lat="45.322550050914287567138671875" lon="-70.92990688048303127288818359375">
        <ele>637</ele>
        <time>2026-08-21T17:08:19.000Z</time>
        <extensions>
          <ns3:TrackPointExtension>
            <ns3:hr>124</ns3:hr>
            <ns3:cad>56</ns3:cad>
          </ns3:TrackPointExtension>
        </extensions>
      </trkpt>
      <trkpt lat="45.3225398249924182891845703125" lon="-70.92992163263261318206787109375">
        <ele>637</ele>
        <time>2026-08-21T17:08:20.000Z</time>
        <extensions>
          <ns3:TrackPointExtension>
            <ns3:hr>124</ns3:hr>
            <ns3:cad>56</ns3:cad>
          </ns3:TrackPointExtension>
        </extensions>
      </trkpt>
      <trkpt lat="45.3225307725369930267333984375" lon="-70.92993504367768764495849609375">
        <ele>637</ele>
        <time>2026-08-21T17:08:21.000Z</time>
        <extensions>
          <ns3:TrackPointExtension>
            <ns3:hr>123</ns3:hr>
            <ns3:cad>56</ns3:cad>
          </ns3:TrackPointExtension>
        </extensions>
      </trkpt>
      <trkpt lat="45.3225237317383289337158203125" lon="-70.929954908788204193115234375">
        <ele>637</ele>
        <time>2026-08-21T17:08:22.000Z</time>
        <extensions>
          <ns3:TrackPointExtension>
            <ns3:hr>123</ns3:hr>
            <ns3:cad>56</ns3:cad>
          </ns3:TrackPointExtension>
        </extensions>
      </trkpt>
      <trkpt lat="45.32251484692096710205078125" lon="-70.9299715049564838409423828125">
        <ele>637.20001220703125</ele>
        <time>2026-08-21T17:08:23.000Z</time>
        <extensions>
          <ns3:TrackPointExtension>
            <ns3:hr>123</ns3:hr>
            <ns3:cad>56</ns3:cad>
          </ns3:TrackPointExtension>
        </extensions>
      </trkpt>
      <trkpt lat="45.32250872813165187835693359375" lon="-70.92998600564897060394287109375">
        <ele>637.20001220703125</ele>
        <time>2026-08-21T17:08:24.000Z</time>
        <extensions>
          <ns3:TrackPointExtension>
            <ns3:hr>123</ns3:hr>
            <ns3:cad>57</ns3:cad>
          </ns3:TrackPointExtension>
        </extensions>
      </trkpt>
      <trkpt lat="45.3225009329617023468017578125" lon="-70.9300026856362819671630859375">
        <ele>637.4000244140625</ele>
        <time>2026-08-21T17:08:25.000Z</time>
        <extensions>
          <ns3:TrackPointExtension>
            <ns3:hr>123</ns3:hr>
            <ns3:cad>57</ns3:cad>
          </ns3:TrackPointExtension>
        </extensions>
      </trkpt>
      <trkpt lat="45.32249607145786285400390625" lon="-70.93001760542392730712890625">
        <ele>637.5999755859375</ele>
        <time>2026-08-21T17:08:26.000Z</time>
        <extensions>
          <ns3:TrackPointExtension>
            <ns3:hr>123</ns3:hr>
            <ns3:cad>57</ns3:cad>
          </ns3:TrackPointExtension>
        </extensions>
      </trkpt>
      <trkpt lat="45.3224875219166278839111328125" lon="-70.93003462068736553192138671875">
        <ele>637.5999755859375</ele>
        <time>2026-08-21T17:08:27.000Z</time>
        <extensions>
          <ns3:TrackPointExtension>
            <ns3:hr>122</ns3:hr>
            <ns3:cad>57</ns3:cad>
          </ns3:TrackPointExtension>
        </extensions>
      </trkpt>
      <trkpt lat="45.3224779665470123291015625" lon="-70.9300502948462963104248046875">
        <ele>637.79998779296875</ele>
        <time>2026-08-21T17:08:28.000Z</time>
        <extensions>
          <ns3:TrackPointExtension>
            <ns3:hr>122</ns3:hr>
            <ns3:cad>57</ns3:cad>
          </ns3:TrackPointExtension>
        </extensions>
      </trkpt>
      <trkpt lat="45.322469584643840789794921875" lon="-70.93007066287100315093994140625">
        <ele>637.79998779296875</ele>
        <time>2026-08-21T17:08:29.000Z</time>
        <extensions>
          <ns3:TrackPointExtension>
            <ns3:hr>122</ns3:hr>
            <ns3:cad>57</ns3:cad>
          </ns3:TrackPointExtension>
        </extensions>
      </trkpt>
      <trkpt lat="45.32246028073132038116455078125" lon="-70.93009161762893199920654296875">
        <ele>637.79998779296875</ele>
        <time>2026-08-21T17:08:30.000Z</time>
        <extensions>
          <ns3:TrackPointExtension>
            <ns3:hr>122</ns3:hr>
            <ns3:cad>55</ns3:cad>
          </ns3:TrackPointExtension>
        </extensions>
      </trkpt>
      <trkpt lat="45.32244821079075336456298828125" lon="-70.93010653741657733917236328125">
        <ele>637.79998779296875</ele>
        <time>2026-08-21T17:08:31.000Z</time>
        <extensions>
          <ns3:TrackPointExtension>
            <ns3:hr>122</ns3:hr>
            <ns3:cad>55</ns3:cad>
          </ns3:TrackPointExtension>
        </extensions>
      </trkpt>
      <trkpt lat="45.3224365599453449249267578125" lon="-70.9301213733851909637451171875">
        <ele>638</ele>
        <time>2026-08-21T17:08:32.000Z</time>
        <extensions>
          <ns3:TrackPointExtension>
            <ns3:hr>121</ns3:hr>
            <ns3:cad>54</ns3:cad>
          </ns3:TrackPointExtension>
        </extensions>
      </trkpt>
      <trkpt lat="45.32242373563349246978759765625" lon="-70.9301357902586460113525390625">
        <ele>638</ele>
        <time>2026-08-21T17:08:33.000Z</time>
        <extensions>
          <ns3:TrackPointExtension>
            <ns3:hr>121</ns3:hr>
            <ns3:cad>54</ns3:cad>
          </ns3:TrackPointExtension>
        </extensions>
      </trkpt>
      <trkpt lat="45.32241426408290863037109375" lon="-70.93015213496983051300048828125">
        <ele>638</ele>
        <time>2026-08-21T17:08:34.000Z</time>
        <extensions>
          <ns3:TrackPointExtension>
            <ns3:hr>122</ns3:hr>
            <ns3:cad>55</ns3:cad>
          </ns3:TrackPointExtension>
        </extensions>
      </trkpt>
      <trkpt lat="45.32240412198007106781005859375" lon="-70.93016705475747585296630859375">
        <ele>638.20001220703125</ele>
        <time>2026-08-21T17:08:35.000Z</time>
        <extensions>
          <ns3:TrackPointExtension>
            <ns3:hr>122</ns3:hr>
            <ns3:cad>55</ns3:cad>
          </ns3:TrackPointExtension>
        </extensions>
      </trkpt>
      <trkpt lat="45.32239540480077266693115234375" lon="-70.93018046580255031585693359375">
        <ele>638.20001220703125</ele>
        <time>2026-08-21T17:08:36.000Z</time>
        <extensions>
          <ns3:TrackPointExtension>
            <ns3:hr>121</ns3:hr>
            <ns3:cad>55</ns3:cad>
          </ns3:TrackPointExtension>
        </extensions>
      </trkpt>
      <trkpt lat="45.322383753955364227294921875" lon="-70.93019924126565456390380859375">
        <ele>638.20001220703125</ele>
        <time>2026-08-21T17:08:37.000Z</time>
        <extensions>
          <ns3:TrackPointExtension>
            <ns3:hr>121</ns3:hr>
            <ns3:cad>55</ns3:cad>
          </ns3:TrackPointExtension>
        </extensions>
      </trkpt>
      <trkpt lat="45.32237545587122440338134765625" lon="-70.9302129037678241729736328125">
        <ele>638.4000244140625</ele>
        <time>2026-08-21T17:08:38.000Z</time>
        <extensions>
          <ns3:TrackPointExtension>
            <ns3:hr>122</ns3:hr>
            <ns3:cad>55</ns3:cad>
          </ns3:TrackPointExtension>
        </extensions>
      </trkpt>
      <trkpt lat="45.32236640341579914093017578125" lon="-70.93023142777383327484130859375">
        <ele>638.4000244140625</ele>
        <time>2026-08-21T17:08:39.000Z</time>
        <extensions>
          <ns3:TrackPointExtension>
            <ns3:hr>122</ns3:hr>
            <ns3:cad>55</ns3:cad>
          </ns3:TrackPointExtension>
        </extensions>
      </trkpt>
      <trkpt lat="45.32235768623650074005126953125" lon="-70.9302528016269207000732421875">
        <ele>638.4000244140625</ele>
        <time>2026-08-21T17:08:40.000Z</time>
        <extensions>
          <ns3:TrackPointExtension>
            <ns3:hr>122</ns3:hr>
            <ns3:cad>55</ns3:cad>
          </ns3:TrackPointExtension>
        </extensions>
      </trkpt>
      <trkpt lat="45.32234930433332920074462890625" lon="-70.93027367256581783294677734375">
        <ele>638.5999755859375</ele>
        <time>2026-08-21T17:08:41.000Z</time>
        <extensions>
          <ns3:TrackPointExtension>
            <ns3:hr>122</ns3:hr>
            <ns3:cad>55</ns3:cad>
          </ns3:TrackPointExtension>
        </extensions>
      </trkpt>
      <trkpt lat="45.32234109006822109222412109375" lon="-70.93029295094311237335205078125">
        <ele>638.5999755859375</ele>
        <time>2026-08-21T17:08:42.000Z</time>
        <extensions>
          <ns3:TrackPointExtension>
            <ns3:hr>122</ns3:hr>
            <ns3:cad>55</ns3:cad>
          </ns3:TrackPointExtension>
        </extensions>
      </trkpt>
      <trkpt lat="45.32233522273600101470947265625" lon="-70.9303151629865169525146484375">
        <ele>638.5999755859375</ele>
        <time>2026-08-21T17:08:43.000Z</time>
        <extensions>
          <ns3:TrackPointExtension>
            <ns3:hr>122</ns3:hr>
            <ns3:cad>55</ns3:cad>
          </ns3:TrackPointExtension>
        </extensions>
      </trkpt>
      <trkpt lat="45.322329439222812652587890625" lon="-70.93033636920154094696044921875">
        <ele>638.5999755859375</ele>
        <time>2026-08-21T17:08:44.000Z</time>
        <extensions>
          <ns3:TrackPointExtension>
            <ns3:hr>122</ns3:hr>
            <ns3:cad>55</ns3:cad>
          </ns3:TrackPointExtension>
        </extensions>
      </trkpt>
      <trkpt lat="45.32232164405286312103271484375" lon="-70.93035547994077205657958984375">
        <ele>638.5999755859375</ele>
        <time>2026-08-21T17:08:45.000Z</time>
        <extensions>
          <ns3:TrackPointExtension>
            <ns3:hr>122</ns3:hr>
            <ns3:cad>55</ns3:cad>
          </ns3:TrackPointExtension>
        </extensions>
      </trkpt>
      <trkpt lat="45.322313010692596435546875" lon="-70.93037542887032032012939453125">
        <ele>638.79998779296875</ele>
        <time>2026-08-21T17:08:46.000Z</time>
        <extensions>
          <ns3:TrackPointExtension>
            <ns3:hr>122</ns3:hr>
            <ns3:cad>55</ns3:cad>
          </ns3:TrackPointExtension>
        </extensions>
      </trkpt>
      <trkpt lat="45.32230454497039318084716796875" lon="-70.93039386905729770660400390625">
        <ele>638.79998779296875</ele>
        <time>2026-08-21T17:08:47.000Z</time>
        <extensions>
          <ns3:TrackPointExtension>
            <ns3:hr>122</ns3:hr>
            <ns3:cad>55</ns3:cad>
          </ns3:TrackPointExtension>
        </extensions>
      </trkpt>
      <trkpt lat="45.3223001025617122650146484375" lon="-70.93040912412106990814208984375">
        <ele>638.79998779296875</ele>
        <time>2026-08-21T17:08:48.000Z</time>
        <extensions>
          <ns3:TrackPointExtension>
            <ns3:hr>122</ns3:hr>
            <ns3:cad>55</ns3:cad>
          </ns3:TrackPointExtension>
        </extensions>
      </trkpt>
      <trkpt lat="45.32229599542915821075439453125" lon="-70.93042664229869842529296875">
        <ele>639</ele>
        <time>2026-08-21T17:08:49.000Z</time>
        <extensions>
          <ns3:TrackPointExtension>
            <ns3:hr>122</ns3:hr>
            <ns3:cad>55</ns3:cad>
          </ns3:TrackPointExtension>
        </extensions>
      </trkpt>
      <trkpt lat="45.32228685915470123291015625" lon="-70.9304472617805004119873046875">
        <ele>639</ele>
        <time>2026-08-21T17:08:50.000Z</time>
        <extensions>
          <ns3:TrackPointExtension>
            <ns3:hr>122</ns3:hr>
            <ns3:cad>55</ns3:cad>
          </ns3:TrackPointExtension>
        </extensions>
      </trkpt>
      <trkpt lat="45.322278477251529693603515625" lon="-70.93045706860721111297607421875">
        <ele>639.20001220703125</ele>
        <time>2026-08-21T17:08:51.000Z</time>
        <extensions>
          <ns3:TrackPointExtension>
            <ns3:hr>122</ns3:hr>
            <ns3:cad>55</ns3:cad>
          </ns3:TrackPointExtension>
        </extensions>
      </trkpt>
      <trkpt lat="45.3222695924341678619384765625" lon="-70.93047634698450565338134765625">
        <ele>639.20001220703125</ele>
        <time>2026-08-21T17:08:52.000Z</time>
        <extensions>
          <ns3:TrackPointExtension>
            <ns3:hr>122</ns3:hr>
            <ns3:cad>55</ns3:cad>
          </ns3:TrackPointExtension>
        </extensions>
      </trkpt>
      <trkpt lat="45.32226112671196460723876953125" lon="-70.93049730174243450164794921875">
        <ele>639.4000244140625</ele>
        <time>2026-08-21T17:08:53.000Z</time>
        <extensions>
          <ns3:TrackPointExtension>
            <ns3:hr>122</ns3:hr>
            <ns3:cad>55</ns3:cad>
          </ns3:TrackPointExtension>
        </extensions>
      </trkpt>
      <trkpt lat="45.3222526609897613525390625" lon="-70.93051842413842678070068359375">
        <ele>639.4000244140625</ele>
        <time>2026-08-21T17:08:54.000Z</time>
        <extensions>
          <ns3:TrackPointExtension>
            <ns3:hr>122</ns3:hr>
            <ns3:cad>55</ns3:cad>
          </ns3:TrackPointExtension>
        </extensions>
      </trkpt>
      <trkpt lat="45.32224268652498722076416015625" lon="-70.93053518794476985931396484375">
        <ele>639.4000244140625</ele>
        <time>2026-08-21T17:08:55.000Z</time>
        <extensions>
          <ns3:TrackPointExtension>
            <ns3:hr>123</ns3:hr>
            <ns3:cad>55</ns3:cad>
          </ns3:TrackPointExtension>
        </extensions>
      </trkpt>
      <trkpt lat="45.3222313709557056427001953125" lon="-70.93054759316146373748779296875">
        <ele>639.4000244140625</ele>
        <time>2026-08-21T17:08:56.000Z</time>
        <extensions>
          <ns3:TrackPointExtension>
            <ns3:hr>122</ns3:hr>
            <ns3:cad>55</ns3:cad>
          </ns3:TrackPointExtension>
        </extensions>
      </trkpt>
      <trkpt lat="45.32222240231931209564208984375" lon="-70.93055815435945987701416015625">
        <ele>639.5999755859375</ele>
        <time>2026-08-21T17:08:57.000Z</time>
        <extensions>
          <ns3:TrackPointExtension>
            <ns3:hr>122</ns3:hr>
            <ns3:cad>56</ns3:cad>
          </ns3:TrackPointExtension>
        </extensions>
      </trkpt>
      <trkpt lat="45.32221443951129913330078125" lon="-70.93057240359485149383544921875">
        <ele>639.5999755859375</ele>
        <time>2026-08-21T17:08:58.000Z</time>
        <extensions>
          <ns3:TrackPointExtension>
            <ns3:hr>121</ns3:hr>
            <ns3:cad>56</ns3:cad>
          </ns3:TrackPointExtension>
        </extensions>
      </trkpt>
      <trkpt lat="45.3222062252461910247802734375" lon="-70.93058514408767223358154296875">
        <ele>639.5999755859375</ele>
        <time>2026-08-21T17:08:59.000Z</time>
        <extensions>
          <ns3:TrackPointExtension>
            <ns3:hr>121</ns3:hr>
            <ns3:cad>56</ns3:cad>
          </ns3:TrackPointExtension>
        </extensions>
      </trkpt>
      <trkpt lat="45.3221981786191463470458984375" lon="-70.9306008182466030120849609375">
        <ele>639.79998779296875</ele>
        <time>2026-08-21T17:09:00.000Z</time>
        <extensions>
          <ns3:TrackPointExtension>
            <ns3:hr>120</ns3:hr>
            <ns3:cad>55</ns3:cad>
          </ns3:TrackPointExtension>
        </extensions>
      </trkpt>
      <trkpt lat="45.3221894614398479461669921875" lon="-70.930617749691009521484375">
        <ele>639.79998779296875</ele>
        <time>2026-08-21T17:09:01.000Z</time>
        <extensions>
          <ns3:TrackPointExtension>
            <ns3:hr>120</ns3:hr>
            <ns3:cad>55</ns3:cad>
          </ns3:TrackPointExtension>
        </extensions>
      </trkpt>
      <trkpt lat="45.32218032516539096832275390625" lon="-70.930636189877986907958984375">
        <ele>639.79998779296875</ele>
        <time>2026-08-21T17:09:02.000Z</time>
        <extensions>
          <ns3:TrackPointExtension>
            <ns3:hr>120</ns3:hr>
            <ns3:cad>54</ns3:cad>
          </ns3:TrackPointExtension>
        </extensions>
      </trkpt>
      <trkpt lat="45.32216993160545825958251953125" lon="-70.93065169639885425567626953125">
        <ele>640</ele>
        <time>2026-08-21T17:09:03.000Z</time>
        <extensions>
          <ns3:TrackPointExtension>
            <ns3:hr>120</ns3:hr>
            <ns3:cad>54</ns3:cad>
          </ns3:TrackPointExtension>
        </extensions>
      </trkpt>
      <trkpt lat="45.32216255553066730499267578125" lon="-70.93066795729100704193115234375">
        <ele>640</ele>
        <time>2026-08-21T17:09:04.000Z</time>
        <extensions>
          <ns3:TrackPointExtension>
            <ns3:hr>120</ns3:hr>
            <ns3:cad>54</ns3:cad>
          </ns3:TrackPointExtension>
        </extensions>
      </trkpt>
      <trkpt lat="45.3221545927226543426513671875" lon="-70.9306836314499378204345703125">
        <ele>640.20001220703125</ele>
        <time>2026-08-21T17:09:05.000Z</time>
        <extensions>
          <ns3:TrackPointExtension>
            <ns3:hr>120</ns3:hr>
            <ns3:cad>54</ns3:cad>
          </ns3:TrackPointExtension>
        </extensions>
      </trkpt>
      <trkpt lat="45.3221445344388484954833984375" lon="-70.9306997247040271759033203125">
        <ele>640.20001220703125</ele>
        <time>2026-08-21T17:09:06.000Z</time>
        <extensions>
          <ns3:TrackPointExtension>
            <ns3:hr>121</ns3:hr>
            <ns3:cad>54</ns3:cad>
          </ns3:TrackPointExtension>
        </extensions>
      </trkpt>
      <trkpt lat="45.322132296860218048095703125" lon="-70.93071154318749904632568359375">
        <ele>640.20001220703125</ele>
        <time>2026-08-21T17:09:07.000Z</time>
        <extensions>
          <ns3:TrackPointExtension>
            <ns3:hr>121</ns3:hr>
            <ns3:cad>55</ns3:cad>
          </ns3:TrackPointExtension>
        </extensions>
      </trkpt>
      <trkpt lat="45.32212056219577789306640625" lon="-70.93072093091905117034912109375">
        <ele>640.4000244140625</ele>
        <time>2026-08-21T17:09:08.000Z</time>
        <extensions>
          <ns3:TrackPointExtension>
            <ns3:hr>121</ns3:hr>
            <ns3:cad>55</ns3:cad>
          </ns3:TrackPointExtension>
        </extensions>
      </trkpt>
      <trkpt lat="45.322110839188098907470703125" lon="-70.9307345934212207794189453125">
        <ele>640.5999755859375</ele>
        <time>2026-08-21T17:09:09.000Z</time>
        <extensions>
          <ns3:TrackPointExtension>
            <ns3:hr>122</ns3:hr>
            <ns3:cad>55</ns3:cad>
          </ns3:TrackPointExtension>
        </extensions>
      </trkpt>
      <trkpt lat="45.322102792561054229736328125" lon="-70.930750854313373565673828125">
        <ele>640.79998779296875</ele>
        <time>2026-08-21T17:09:10.000Z</time>
        <extensions>
          <ns3:TrackPointExtension>
            <ns3:hr>122</ns3:hr>
            <ns3:cad>56</ns3:cad>
          </ns3:TrackPointExtension>
        </extensions>
      </trkpt>
      <trkpt lat="45.32209248282015323638916015625" lon="-70.93076728284358978271484375">
        <ele>640.79998779296875</ele>
        <time>2026-08-21T17:09:11.000Z</time>
        <extensions>
          <ns3:TrackPointExtension>
            <ns3:hr>123</ns3:hr>
            <ns3:cad>56</ns3:cad>
          </ns3:TrackPointExtension>
        </extensions>
      </trkpt>
      <trkpt lat="45.32207890413701534271240234375" lon="-70.930778682231903076171875">
        <ele>640.79998779296875</ele>
        <time>2026-08-21T17:09:12.000Z</time>
        <extensions>
          <ns3:TrackPointExtension>
            <ns3:hr>124</ns3:hr>
            <ns3:cad>56</ns3:cad>
          </ns3:TrackPointExtension>
        </extensions>
      </trkpt>
      <trkpt lat="45.32206884585320949554443359375" lon="-70.93078731559216976165771484375">
        <ele>640.79998779296875</ele>
        <time>2026-08-21T17:09:13.000Z</time>
        <extensions>
          <ns3:TrackPointExtension>
            <ns3:hr>124</ns3:hr>
            <ns3:cad>56</ns3:cad>
          </ns3:TrackPointExtension>
        </extensions>
      </trkpt>
      <trkpt lat="45.32206029631197452545166015625" lon="-70.9308029897511005401611328125">
        <ele>641</ele>
        <time>2026-08-21T17:09:14.000Z</time>
        <extensions>
          <ns3:TrackPointExtension>
            <ns3:hr>125</ns3:hr>
            <ns3:cad>57</ns3:cad>
          </ns3:TrackPointExtension>
        </extensions>
      </trkpt>
      <trkpt lat="45.322051160037517547607421875" lon="-70.93081916682422161102294921875">
        <ele>641</ele>
        <time>2026-08-21T17:09:15.000Z</time>
        <extensions>
          <ns3:TrackPointExtension>
            <ns3:hr>125</ns3:hr>
            <ns3:cad>57</ns3:cad>
          </ns3:TrackPointExtension>
        </extensions>
      </trkpt>
      <trkpt lat="45.3220416046679019927978515625" lon="-70.930831320583820343017578125">
        <ele>641</ele>
        <time>2026-08-21T17:09:16.000Z</time>
        <extensions>
          <ns3:TrackPointExtension>
            <ns3:hr>125</ns3:hr>
            <ns3:cad>57</ns3:cad>
          </ns3:TrackPointExtension>
        </extensions>
      </trkpt>
      <trkpt lat="45.3220312111079692840576171875" lon="-70.93084364198148250579833984375">
        <ele>641.20001220703125</ele>
        <time>2026-08-21T17:09:17.000Z</time>
        <extensions>
          <ns3:TrackPointExtension>
            <ns3:hr>126</ns3:hr>
            <ns3:cad>57</ns3:cad>
          </ns3:TrackPointExtension>
        </extensions>
      </trkpt>
      <trkpt lat="45.3220208175480365753173828125" lon="-70.93086250126361846923828125">
        <ele>641.20001220703125</ele>
        <time>2026-08-21T17:09:18.000Z</time>
        <extensions>
          <ns3:TrackPointExtension>
            <ns3:hr>126</ns3:hr>
            <ns3:cad>57</ns3:cad>
          </ns3:TrackPointExtension>
        </extensions>
      </trkpt>
      <trkpt lat="45.3220137767493724822998046875" lon="-70.93087214045226573944091796875">
        <ele>641.20001220703125</ele>
        <time>2026-08-21T17:09:19.000Z</time>
        <extensions>
          <ns3:TrackPointExtension>
            <ns3:hr>126</ns3:hr>
            <ns3:cad>55</ns3:cad>
          </ns3:TrackPointExtension>
        </extensions>
      </trkpt>
      <trkpt lat="45.3220047242939472198486328125" lon="-70.9308837912976741790771484375">
        <ele>641.4000244140625</ele>
        <time>2026-08-21T17:09:20.000Z</time>
        <extensions>
          <ns3:TrackPointExtension>
            <ns3:hr>126</ns3:hr>
            <ns3:cad>55</ns3:cad>
          </ns3:TrackPointExtension>
        </extensions>
      </trkpt>
      <trkpt lat="45.32199458219110965728759765625" lon="-70.93089762143790721893310546875">
        <ele>641.4000244140625</ele>
        <time>2026-08-21T17:09:21.000Z</time>
        <extensions>
          <ns3:TrackPointExtension>
            <ns3:hr>127</ns3:hr>
            <ns3:cad>55</ns3:cad>
          </ns3:TrackPointExtension>
        </extensions>
      </trkpt>
      <trkpt lat="45.32198301516473293304443359375" lon="-70.9309119544923305511474609375">
        <ele>641.4000244140625</ele>
        <time>2026-08-21T17:09:22.000Z</time>
        <extensions>
          <ns3:TrackPointExtension>
            <ns3:hr>128</ns3:hr>
            <ns3:cad>55</ns3:cad>
          </ns3:TrackPointExtension>
        </extensions>
      </trkpt>
      <trkpt lat="45.32197329215705394744873046875" lon="-70.93092695809900760650634765625">
        <ele>641.5999755859375</ele>
        <time>2026-08-21T17:09:23.000Z</time>
        <extensions>
          <ns3:TrackPointExtension>
            <ns3:hr>129</ns3:hr>
            <ns3:cad>55</ns3:cad>
          </ns3:TrackPointExtension>
        </extensions>
      </trkpt>
      <trkpt lat="45.321959964931011199951171875" lon="-70.93093869276344776153564453125">
        <ele>641.79998779296875</ele>
        <time>2026-08-21T17:09:24.000Z</time>
        <extensions>
          <ns3:TrackPointExtension>
            <ns3:hr>129</ns3:hr>
            <ns3:cad>56</ns3:cad>
          </ns3:TrackPointExtension>
        </extensions>
      </trkpt>
      <trkpt lat="45.321943201124668121337890625" lon="-70.93094707466661930084228515625">
        <ele>642</ele>
        <time>2026-08-21T17:09:25.000Z</time>
        <extensions>
          <ns3:TrackPointExtension>
            <ns3:hr>129</ns3:hr>
            <ns3:cad>55</ns3:cad>
          </ns3:TrackPointExtension>
        </extensions>
      </trkpt>
      <trkpt lat="45.32193155027925968170166015625" lon="-70.9309585578739643096923828125">
        <ele>642</ele>
        <time>2026-08-21T17:09:26.000Z</time>
        <extensions>
          <ns3:TrackPointExtension>
            <ns3:hr>129</ns3:hr>
            <ns3:cad>55</ns3:cad>
          </ns3:TrackPointExtension>
        </extensions>
      </trkpt>
      <trkpt lat="45.32191537320613861083984375" lon="-70.93096844851970672607421875">
        <ele>642.20001220703125</ele>
        <time>2026-08-21T17:09:27.000Z</time>
        <extensions>
          <ns3:TrackPointExtension>
            <ns3:hr>128</ns3:hr>
            <ns3:cad>55</ns3:cad>
          </ns3:TrackPointExtension>
        </extensions>
      </trkpt>
      <trkpt lat="45.321902297437191009521484375" lon="-70.9309813566505908966064453125">
        <ele>642.20001220703125</ele>
        <time>2026-08-21T17:09:28.000Z</time>
        <extensions>
          <ns3:TrackPointExtension>
            <ns3:hr>128</ns3:hr>
            <ns3:cad>55</ns3:cad>
          </ns3:TrackPointExtension>
        </extensions>
      </trkpt>
      <trkpt lat="45.3218932449817657470703125" lon="-70.930994935333728790283203125">
        <ele>642.20001220703125</ele>
        <time>2026-08-21T17:09:29.000Z</time>
        <extensions>
          <ns3:TrackPointExtension>
            <ns3:hr>128</ns3:hr>
            <ns3:cad>55</ns3:cad>
          </ns3:TrackPointExtension>
        </extensions>
      </trkpt>
      <trkpt lat="45.32188092358410358428955078125" lon="-70.9310034848749637603759765625">
        <ele>642.4000244140625</ele>
        <time>2026-08-21T17:09:30.000Z</time>
        <extensions>
          <ns3:TrackPointExtension>
            <ns3:hr>129</ns3:hr>
            <ns3:cad>55</ns3:cad>
          </ns3:TrackPointExtension>
        </extensions>
      </trkpt>
      <trkpt lat="45.321869440376758575439453125" lon="-70.9310101903975009918212890625">
        <ele>642.4000244140625</ele>
        <time>2026-08-21T17:09:31.000Z</time>
        <extensions>
          <ns3:TrackPointExtension>
            <ns3:hr>129</ns3:hr>
            <ns3:cad>55</ns3:cad>
          </ns3:TrackPointExtension>
        </extensions>
      </trkpt>
      <trkpt lat="45.3218555264174938201904296875" lon="-70.931020416319370269775390625">
        <ele>642.5999755859375</ele>
        <time>2026-08-21T17:09:32.000Z</time>
        <extensions>
          <ns3:TrackPointExtension>
            <ns3:hr>129</ns3:hr>
            <ns3:cad>55</ns3:cad>
          </ns3:TrackPointExtension>
        </extensions>
      </trkpt>
      <trkpt lat="45.3218454681336879730224609375" lon="-70.93103290535509586334228515625">
        <ele>642.5999755859375</ele>
        <time>2026-08-21T17:09:33.000Z</time>
        <extensions>
          <ns3:TrackPointExtension>
            <ns3:hr>129</ns3:hr>
            <ns3:cad>55</ns3:cad>
          </ns3:TrackPointExtension>
        </extensions>
      </trkpt>
      <trkpt lat="45.32183415256440639495849609375" lon="-70.9310457296669483184814453125">
        <ele>642.5999755859375</ele>
        <time>2026-08-21T17:09:34.000Z</time>
        <extensions>
          <ns3:TrackPointExtension>
            <ns3:hr>128</ns3:hr>
            <ns3:cad>56</ns3:cad>
          </ns3:TrackPointExtension>
        </extensions>
      </trkpt>
      <trkpt lat="45.32182015478610992431640625" lon="-70.93105469830334186553955078125">
        <ele>642.79998779296875</ele>
        <time>2026-08-21T17:09:35.000Z</time>
        <extensions>
          <ns3:TrackPointExtension>
            <ns3:hr>128</ns3:hr>
            <ns3:cad>56</ns3:cad>
          </ns3:TrackPointExtension>
        </extensions>
      </trkpt>
      <trkpt lat="45.321807749569416046142578125" lon="-70.93106425367295742034912109375">
        <ele>642.79998779296875</ele>
        <time>2026-08-21T17:09:36.000Z</time>
        <extensions>
          <ns3:TrackPointExtension>
            <ns3:hr>128</ns3:hr>
            <ns3:cad>56</ns3:cad>
          </ns3:TrackPointExtension>
        </extensions>
      </trkpt>
      <trkpt lat="45.3217975236475467681884765625" lon="-70.93107464723289012908935546875">
        <ele>642.79998779296875</ele>
        <time>2026-08-21T17:09:37.000Z</time>
        <extensions>
          <ns3:TrackPointExtension>
            <ns3:hr>127</ns3:hr>
            <ns3:cad>56</ns3:cad>
          </ns3:TrackPointExtension>
        </extensions>
      </trkpt>
      <trkpt lat="45.3217847831547260284423828125" lon="-70.93108378350734710693359375">
        <ele>643</ele>
        <time>2026-08-21T17:09:38.000Z</time>
        <extensions>
          <ns3:TrackPointExtension>
            <ns3:hr>128</ns3:hr>
            <ns3:cad>55</ns3:cad>
          </ns3:TrackPointExtension>
        </extensions>
      </trkpt>
      <trkpt lat="45.32177078537642955780029296875" lon="-70.93108990229666233062744140625">
        <ele>643</ele>
        <time>2026-08-21T17:09:39.000Z</time>
        <extensions>
          <ns3:TrackPointExtension>
            <ns3:hr>128</ns3:hr>
            <ns3:cad>55</ns3:cad>
          </ns3:TrackPointExtension>
        </extensions>
      </trkpt>
      <trkpt lat="45.3217559494078159332275390625" lon="-70.93110130168497562408447265625">
        <ele>643.20001220703125</ele>
        <time>2026-08-21T17:09:40.000Z</time>
        <extensions>
          <ns3:TrackPointExtension>
            <ns3:hr>127</ns3:hr>
            <ns3:cad>55</ns3:cad>
          </ns3:TrackPointExtension>
        </extensions>
      </trkpt>
      <trkpt lat="45.3217403590679168701171875" lon="-70.9311114437878131866455078125">
        <ele>643.20001220703125</ele>
        <time>2026-08-21T17:09:41.000Z</time>
        <extensions>
          <ns3:TrackPointExtension>
            <ns3:hr>128</ns3:hr>
            <ns3:cad>55</ns3:cad>
          </ns3:TrackPointExtension>
        </extensions>
      </trkpt>
      <trkpt lat="45.321727283298969268798828125" lon="-70.9311188198626041412353515625">
        <ele>643.20001220703125</ele>
        <time>2026-08-21T17:09:42.000Z</time>
        <extensions>
          <ns3:TrackPointExtension>
            <ns3:hr>128</ns3:hr>
            <ns3:cad>55</ns3:cad>
          </ns3:TrackPointExtension>
        </extensions>
      </trkpt>
      <trkpt lat="45.3217143751680850982666015625" lon="-70.93112745322287082672119140625">
        <ele>643.4000244140625</ele>
        <time>2026-08-21T17:09:43.000Z</time>
        <extensions>
          <ns3:TrackPointExtension>
            <ns3:hr>128</ns3:hr>
            <ns3:cad>55</ns3:cad>
          </ns3:TrackPointExtension>
        </extensions>
      </trkpt>
      <trkpt lat="45.32170121558010578155517578125" lon="-70.93113332055509090423583984375">
        <ele>643.4000244140625</ele>
        <time>2026-08-21T17:09:44.000Z</time>
        <extensions>
          <ns3:TrackPointExtension>
            <ns3:hr>128</ns3:hr>
            <ns3:cad>55</ns3:cad>
          </ns3:TrackPointExtension>
        </extensions>
      </trkpt>
      <trkpt lat="45.32168805599212646484375" lon="-70.93114279210567474365234375">
        <ele>643.5999755859375</ele>
        <time>2026-08-21T17:09:45.000Z</time>
        <extensions>
          <ns3:TrackPointExtension>
            <ns3:hr>128</ns3:hr>
            <ns3:cad>55</ns3:cad>
          </ns3:TrackPointExtension>
        </extensions>
      </trkpt>
      <trkpt lat="45.32167665660381317138671875" lon="-70.931151844561100006103515625">
        <ele>643.5999755859375</ele>
        <time>2026-08-21T17:09:46.000Z</time>
        <extensions>
          <ns3:TrackPointExtension>
            <ns3:hr>128</ns3:hr>
            <ns3:cad>55</ns3:cad>
          </ns3:TrackPointExtension>
        </extensions>
      </trkpt>
      <trkpt lat="45.32166148535907268524169921875" lon="-70.93115846626460552215576171875">
        <ele>643.79998779296875</ele>
        <time>2026-08-21T17:09:47.000Z</time>
        <extensions>
          <ns3:TrackPointExtension>
            <ns3:hr>128</ns3:hr>
            <ns3:cad>55</ns3:cad>
          </ns3:TrackPointExtension>
        </extensions>
      </trkpt>
      <trkpt lat="45.32164891250431537628173828125" lon="-70.93116827309131622314453125">
        <ele>643.79998779296875</ele>
        <time>2026-08-21T17:09:48.000Z</time>
        <extensions>
          <ns3:TrackPointExtension>
            <ns3:hr>128</ns3:hr>
            <ns3:cad>55</ns3:cad>
          </ns3:TrackPointExtension>
        </extensions>
      </trkpt>
      <trkpt lat="45.3216349147260189056396484375" lon="-70.9311815164983272552490234375">
        <ele>644</ele>
        <time>2026-08-21T17:09:49.000Z</time>
        <extensions>
          <ns3:TrackPointExtension>
            <ns3:hr>128</ns3:hr>
            <ns3:cad>55</ns3:cad>
          </ns3:TrackPointExtension>
        </extensions>
      </trkpt>
      <trkpt lat="45.32162058167159557342529296875" lon="-70.93119316734373569488525390625">
        <ele>644</ele>
        <time>2026-08-21T17:09:50.000Z</time>
        <extensions>
          <ns3:TrackPointExtension>
            <ns3:hr>129</ns3:hr>
            <ns3:cad>55</ns3:cad>
          </ns3:TrackPointExtension>
        </extensions>
      </trkpt>
      <trkpt lat="45.32160499133169651031494140625" lon="-70.9312023036181926727294921875">
        <ele>644.20001220703125</ele>
        <time>2026-08-21T17:09:51.000Z</time>
        <extensions>
          <ns3:TrackPointExtension>
            <ns3:hr>129</ns3:hr>
            <ns3:cad>55</ns3:cad>
          </ns3:TrackPointExtension>
        </extensions>
      </trkpt>
      <trkpt lat="45.32158738933503627777099609375" lon="-70.93121093697845935821533203125">
        <ele>644.20001220703125</ele>
        <time>2026-08-21T17:09:52.000Z</time>
        <extensions>
          <ns3:TrackPointExtension>
            <ns3:hr>129</ns3:hr>
            <ns3:cad>56</ns3:cad>
          </ns3:TrackPointExtension>
        </extensions>
      </trkpt>
      <trkpt lat="45.32156961970031261444091796875" lon="-70.9312183968722820281982421875">
        <ele>644.20001220703125</ele>
        <time>2026-08-21T17:09:53.000Z</time>
        <extensions>
          <ns3:TrackPointExtension>
            <ns3:hr>131</ns3:hr>
            <ns3:cad>56</ns3:cad>
          </ns3:TrackPointExtension>
        </extensions>
      </trkpt>
      <trkpt lat="45.321556292474269866943359375" lon="-70.93122728168964385986328125">
        <ele>644.4000244140625</ele>
        <time>2026-08-21T17:09:54.000Z</time>
        <extensions>
          <ns3:TrackPointExtension>
            <ns3:hr>131</ns3:hr>
            <ns3:cad>56</ns3:cad>
          </ns3:TrackPointExtension>
        </extensions>
      </trkpt>
      <trkpt lat="45.321543216705322265625" lon="-70.93123457394540309906005859375">
        <ele>644.4000244140625</ele>
        <time>2026-08-21T17:09:55.000Z</time>
        <extensions>
          <ns3:TrackPointExtension>
            <ns3:hr>131</ns3:hr>
            <ns3:cad>56</ns3:cad>
          </ns3:TrackPointExtension>
        </extensions>
      </trkpt>
      <trkpt lat="45.32153072766959667205810546875" lon="-70.93124178238213062286376953125">
        <ele>644.4000244140625</ele>
        <time>2026-08-21T17:09:56.000Z</time>
        <extensions>
          <ns3:TrackPointExtension>
            <ns3:hr>132</ns3:hr>
            <ns3:cad>56</ns3:cad>
          </ns3:TrackPointExtension>
        </extensions>
      </trkpt>
      <trkpt lat="45.321519076824188232421875" lon="-70.93124932609498500823974609375">
        <ele>644.5999755859375</ele>
        <time>2026-08-21T17:09:57.000Z</time>
        <extensions>
          <ns3:TrackPointExtension>
            <ns3:hr>132</ns3:hr>
            <ns3:cad>56</ns3:cad>
          </ns3:TrackPointExtension>
        </extensions>
      </trkpt>
      <trkpt lat="45.32150725834071636199951171875" lon="-70.93125787563621997833251953125">
        <ele>644.5999755859375</ele>
        <time>2026-08-21T17:09:58.000Z</time>
        <extensions>
          <ns3:TrackPointExtension>
            <ns3:hr>132</ns3:hr>
            <ns3:cad>56</ns3:cad>
          </ns3:TrackPointExtension>
        </extensions>
      </trkpt>
      <trkpt lat="45.3214954398572444915771484375" lon="-70.9312636591494083404541015625">
        <ele>644.79998779296875</ele>
        <time>2026-08-21T17:09:59.000Z</time>
        <extensions>
          <ns3:TrackPointExtension>
            <ns3:hr>131</ns3:hr>
            <ns3:cad>56</ns3:cad>
          </ns3:TrackPointExtension>
        </extensions>
      </trkpt>
      <trkpt lat="45.3214847110211849212646484375" lon="-70.9312673471868038177490234375">
        <ele>644.79998779296875</ele>
        <time>2026-08-21T17:10:00.000Z</time>
        <extensions>
          <ns3:TrackPointExtension>
            <ns3:hr>131</ns3:hr>
            <ns3:cad>56</ns3:cad>
          </ns3:TrackPointExtension>
        </extensions>
      </trkpt>
      <trkpt lat="45.32147306017577648162841796875" lon="-70.9312735497951507568359375">
        <ele>644.79998779296875</ele>
        <time>2026-08-21T17:10:01.000Z</time>
        <extensions>
          <ns3:TrackPointExtension>
            <ns3:hr>132</ns3:hr>
            <ns3:cad>56</ns3:cad>
          </ns3:TrackPointExtension>
        </extensions>
      </trkpt>
      <trkpt lat="45.32146048732101917266845703125" lon="-70.93128134496510028839111328125">
        <ele>645</ele>
        <time>2026-08-21T17:10:02.000Z</time>
        <extensions>
          <ns3:TrackPointExtension>
            <ns3:hr>132</ns3:hr>
            <ns3:cad>56</ns3:cad>
          </ns3:TrackPointExtension>
        </extensions>
      </trkpt>
      <trkpt lat="45.3214454837143421173095703125" lon="-70.93129274435341358184814453125">
        <ele>645</ele>
        <time>2026-08-21T17:10:03.000Z</time>
        <extensions>
          <ns3:TrackPointExtension>
            <ns3:hr>132</ns3:hr>
            <ns3:cad>56</ns3:cad>
          </ns3:TrackPointExtension>
        </extensions>
      </trkpt>
      <trkpt lat="45.32142964191734790802001953125" lon="-70.93129836022853851318359375">
        <ele>645</ele>
        <time>2026-08-21T17:10:04.000Z</time>
        <extensions>
          <ns3:TrackPointExtension>
            <ns3:hr>133</ns3:hr>
            <ns3:cad>56</ns3:cad>
          </ns3:TrackPointExtension>
        </extensions>
      </trkpt>
      <trkpt lat="45.32141606323421001434326171875" lon="-70.93130766414105892181396484375">
        <ele>645.20001220703125</ele>
        <time>2026-08-21T17:10:05.000Z</time>
        <extensions>
          <ns3:TrackPointExtension>
            <ns3:hr>133</ns3:hr>
            <ns3:cad>55</ns3:cad>
          </ns3:TrackPointExtension>
        </extensions>
      </trkpt>
      <trkpt lat="45.32140013761818408966064453125" lon="-70.93132090754806995391845703125">
        <ele>645.20001220703125</ele>
        <time>2026-08-21T17:10:06.000Z</time>
        <extensions>
          <ns3:TrackPointExtension>
            <ns3:hr>133</ns3:hr>
            <ns3:cad>55</ns3:cad>
          </ns3:TrackPointExtension>
        </extensions>
      </trkpt>
      <trkpt lat="45.32138505019247531890869140625" lon="-70.93133096583187580108642578125">
        <ele>645.20001220703125</ele>
        <time>2026-08-21T17:10:07.000Z</time>
        <extensions>
          <ns3:TrackPointExtension>
            <ns3:hr>132</ns3:hr>
            <ns3:cad>56</ns3:cad>
          </ns3:TrackPointExtension>
        </extensions>
      </trkpt>
      <trkpt lat="45.3213653527200222015380859375" lon="-70.93133750371634960174560546875">
        <ele>645.4000244140625</ele>
        <time>2026-08-21T17:10:08.000Z</time>
        <extensions>
          <ns3:TrackPointExtension>
            <ns3:hr>132</ns3:hr>
            <ns3:cad>56</ns3:cad>
          </ns3:TrackPointExtension>
        </extensions>
      </trkpt>
      <trkpt lat="45.321355126798152923583984375" lon="-70.93134940601885318756103515625">
        <ele>645.5999755859375</ele>
        <time>2026-08-21T17:10:09.000Z</time>
        <extensions>
          <ns3:TrackPointExtension>
            <ns3:hr>132</ns3:hr>
            <ns3:cad>56</ns3:cad>
          </ns3:TrackPointExtension>
        </extensions>
      </trkpt>
      <trkpt lat="45.32134213484823703765869140625" lon="-70.9313582070171833038330078125">
        <ele>645.5999755859375</ele>
        <time>2026-08-21T17:10:10.000Z</time>
        <extensions>
          <ns3:TrackPointExtension>
            <ns3:hr>132</ns3:hr>
            <ns3:cad>57</ns3:cad>
          </ns3:TrackPointExtension>
        </extensions>
      </trkpt>
      <trkpt lat="45.3213291428983211517333984375" lon="-70.93136734329164028167724609375">
        <ele>645.79998779296875</ele>
        <time>2026-08-21T17:10:11.000Z</time>
        <extensions>
          <ns3:TrackPointExtension>
            <ns3:hr>132</ns3:hr>
            <ns3:cad>57</ns3:cad>
          </ns3:TrackPointExtension>
        </extensions>
      </trkpt>
      <trkpt lat="45.32131455838680267333984375" lon="-70.9313786588609218597412109375">
        <ele>645.79998779296875</ele>
        <time>2026-08-21T17:10:12.000Z</time>
        <extensions>
          <ns3:TrackPointExtension>
            <ns3:hr>132</ns3:hr>
            <ns3:cad>57</ns3:cad>
          </ns3:TrackPointExtension>
        </extensions>
      </trkpt>
      <trkpt lat="45.32130290754139423370361328125" lon="-70.93138913623988628387451171875">
        <ele>645.79998779296875</ele>
        <time>2026-08-21T17:10:13.000Z</time>
        <extensions>
          <ns3:TrackPointExtension>
            <ns3:hr>132</ns3:hr>
            <ns3:cad>57</ns3:cad>
          </ns3:TrackPointExtension>
        </extensions>
      </trkpt>
      <trkpt lat="45.32129083760082721710205078125" lon="-70.93139894306659698486328125">
        <ele>646</ele>
        <time>2026-08-21T17:10:14.000Z</time>
        <extensions>
          <ns3:TrackPointExtension>
            <ns3:hr>132</ns3:hr>
            <ns3:cad>57</ns3:cad>
          </ns3:TrackPointExtension>
        </extensions>
      </trkpt>
      <trkpt lat="45.3212751634418964385986328125" lon="-70.93141009099781513214111328125">
        <ele>646</ele>
        <time>2026-08-21T17:10:15.000Z</time>
        <extensions>
          <ns3:TrackPointExtension>
            <ns3:hr>132</ns3:hr>
            <ns3:cad>55</ns3:cad>
          </ns3:TrackPointExtension>
        </extensions>
      </trkpt>
      <trkpt lat="45.32126049511134624481201171875" lon="-70.931421406567096710205078125">
        <ele>646</ele>
        <time>2026-08-21T17:10:16.000Z</time>
        <extensions>
          <ns3:TrackPointExtension>
            <ns3:hr>132</ns3:hr>
            <ns3:cad>55</ns3:cad>
          </ns3:TrackPointExtension>
        </extensions>
      </trkpt>
      <trkpt lat="45.32124524004757404327392578125" lon="-70.93143305741250514984130859375">
        <ele>646.20001220703125</ele>
        <time>2026-08-21T17:10:17.000Z</time>
        <extensions>
          <ns3:TrackPointExtension>
            <ns3:hr>132</ns3:hr>
            <ns3:cad>55</ns3:cad>
          </ns3:TrackPointExtension>
        </extensions>
      </trkpt>
      <trkpt lat="45.3212292306125164031982421875" lon="-70.93144982121884822845458984375">
        <ele>646.20001220703125</ele>
        <time>2026-08-21T17:10:18.000Z</time>
        <extensions>
          <ns3:TrackPointExtension>
            <ns3:hr>132</ns3:hr>
            <ns3:cad>55</ns3:cad>
          </ns3:TrackPointExtension>
        </extensions>
      </trkpt>
      <trkpt lat="45.3212148137390613555908203125" lon="-70.93146775849163532257080078125">
        <ele>646.20001220703125</ele>
        <time>2026-08-21T17:10:19.000Z</time>
        <extensions>
          <ns3:TrackPointExtension>
            <ns3:hr>131</ns3:hr>
            <ns3:cad>55</ns3:cad>
          </ns3:TrackPointExtension>
        </extensions>
      </trkpt>
      <trkpt lat="45.3212003968656063079833984375" lon="-70.931483767926692962646484375">
        <ele>646.4000244140625</ele>
        <time>2026-08-21T17:10:20.000Z</time>
        <extensions>
          <ns3:TrackPointExtension>
            <ns3:hr>132</ns3:hr>
            <ns3:cad>55</ns3:cad>
          </ns3:TrackPointExtension>
        </extensions>
      </trkpt>
      <trkpt lat="45.3211869858205318450927734375" lon="-70.9314961731433868408203125">
        <ele>646.4000244140625</ele>
        <time>2026-08-21T17:10:21.000Z</time>
        <extensions>
          <ns3:TrackPointExtension>
            <ns3:hr>132</ns3:hr>
            <ns3:cad>55</ns3:cad>
          </ns3:TrackPointExtension>
        </extensions>
      </trkpt>
      <trkpt lat="45.32117332331836223602294921875" lon="-70.9315122663974761962890625">
        <ele>646.5999755859375</ele>
        <time>2026-08-21T17:10:22.000Z</time>
        <extensions>
          <ns3:TrackPointExtension>
            <ns3:hr>131</ns3:hr>
            <ns3:cad>55</ns3:cad>
          </ns3:TrackPointExtension>
        </extensions>
      </trkpt>
      <trkpt lat="45.3211601637303829193115234375" lon="-70.931528694927692413330078125">
        <ele>646.5999755859375</ele>
        <time>2026-08-21T17:10:23.000Z</time>
        <extensions>
          <ns3:TrackPointExtension>
            <ns3:hr>132</ns3:hr>
            <ns3:cad>55</ns3:cad>
          </ns3:TrackPointExtension>
        </extensions>
      </trkpt>
      <trkpt lat="45.32114834524691104888916015625" lon="-70.93154654838144779205322265625">
        <ele>646.79998779296875</ele>
        <time>2026-08-21T17:10:24.000Z</time>
        <extensions>
          <ns3:TrackPointExtension>
            <ns3:hr>132</ns3:hr>
            <ns3:cad>55</ns3:cad>
          </ns3:TrackPointExtension>
        </extensions>
      </trkpt>
      <trkpt lat="45.3211387060582637786865234375" lon="-70.93156079761683940887451171875">
        <ele>646.79998779296875</ele>
        <time>2026-08-21T17:10:25.000Z</time>
        <extensions>
          <ns3:TrackPointExtension>
            <ns3:hr>132</ns3:hr>
            <ns3:cad>55</ns3:cad>
          </ns3:TrackPointExtension>
        </extensions>
      </trkpt>
      <trkpt lat="45.32112671993672847747802734375" lon="-70.93157588504254817962646484375">
        <ele>647</ele>
        <time>2026-08-21T17:10:26.000Z</time>
        <extensions>
          <ns3:TrackPointExtension>
            <ns3:hr>132</ns3:hr>
            <ns3:cad>55</ns3:cad>
          </ns3:TrackPointExtension>
        </extensions>
      </trkpt>
      <trkpt lat="45.32111515291035175323486328125" lon="-70.93158669769763946533203125">
        <ele>647</ele>
        <time>2026-08-21T17:10:27.000Z</time>
        <extensions>
          <ns3:TrackPointExtension>
            <ns3:hr>132</ns3:hr>
            <ns3:cad>55</ns3:cad>
          </ns3:TrackPointExtension>
        </extensions>
      </trkpt>
      <trkpt lat="45.32110475935041904449462890625" lon="-70.93159851618111133575439453125">
        <ele>647.20001220703125</ele>
        <time>2026-08-21T17:10:28.000Z</time>
        <extensions>
          <ns3:TrackPointExtension>
            <ns3:hr>131</ns3:hr>
            <ns3:cad>55</ns3:cad>
          </ns3:TrackPointExtension>
        </extensions>
      </trkpt>
      <trkpt lat="45.32109352760016918182373046875" lon="-70.93161276541650295257568359375">
        <ele>647.20001220703125</ele>
        <time>2026-08-21T17:10:29.000Z</time>
        <extensions>
          <ns3:TrackPointExtension>
            <ns3:hr>131</ns3:hr>
            <ns3:cad>55</ns3:cad>
          </ns3:TrackPointExtension>
        </extensions>
      </trkpt>
      <trkpt lat="45.32108112238347530364990234375" lon="-70.93162835575640201568603515625">
        <ele>647.4000244140625</ele>
        <time>2026-08-21T17:10:30.000Z</time>
        <extensions>
          <ns3:TrackPointExtension>
            <ns3:hr>132</ns3:hr>
            <ns3:cad>55</ns3:cad>
          </ns3:TrackPointExtension>
        </extensions>
      </trkpt>
      <trkpt lat="45.3210693039000034332275390625" lon="-70.93164511956274509429931640625">
        <ele>647.5999755859375</ele>
        <time>2026-08-21T17:10:31.000Z</time>
        <extensions>
          <ns3:TrackPointExtension>
            <ns3:hr>132</ns3:hr>
            <ns3:cad>55</ns3:cad>
          </ns3:TrackPointExtension>
        </extensions>
      </trkpt>
      <trkpt lat="45.3210592456161975860595703125" lon="-70.93166389502584934234619140625">
        <ele>647.79998779296875</ele>
        <time>2026-08-21T17:10:32.000Z</time>
        <extensions>
          <ns3:TrackPointExtension>
            <ns3:hr>132</ns3:hr>
            <ns3:cad>55</ns3:cad>
          </ns3:TrackPointExtension>
        </extensions>
      </trkpt>
      <trkpt lat="45.3210478462278842926025390625" lon="-70.9316834248602390289306640625">
        <ele>647.79998779296875</ele>
        <time>2026-08-21T17:10:33.000Z</time>
        <extensions>
          <ns3:TrackPointExtension>
            <ns3:hr>132</ns3:hr>
            <ns3:cad>55</ns3:cad>
          </ns3:TrackPointExtension>
        </extensions>
      </trkpt>
      <trkpt lat="45.321035273373126983642578125" lon="-70.93170245178043842315673828125">
        <ele>648</ele>
        <time>2026-08-21T17:10:34.000Z</time>
        <extensions>
          <ns3:TrackPointExtension>
            <ns3:hr>132</ns3:hr>
            <ns3:cad>55</ns3:cad>
          </ns3:TrackPointExtension>
        </extensions>
      </trkpt>
      <trkpt lat="45.32102395780384540557861328125" lon="-70.93171619810163974761962890625">
        <ele>648</ele>
        <time>2026-08-21T17:10:35.000Z</time>
        <extensions>
          <ns3:TrackPointExtension>
            <ns3:hr>132</ns3:hr>
            <ns3:cad>54</ns3:cad>
          </ns3:TrackPointExtension>
        </extensions>
      </trkpt>
      <trkpt lat="45.3210109658539295196533203125" lon="-70.93173413537442684173583984375">
        <ele>648.20001220703125</ele>
        <time>2026-08-21T17:10:36.000Z</time>
        <extensions>
          <ns3:TrackPointExtension>
            <ns3:hr>132</ns3:hr>
            <ns3:cad>54</ns3:cad>
          </ns3:TrackPointExtension>
        </extensions>
      </trkpt>
      <trkpt lat="45.3210035897791385650634765625" lon="-70.9317555092275142669677734375">
        <ele>648.4000244140625</ele>
        <time>2026-08-21T17:10:37.000Z</time>
        <extensions>
          <ns3:TrackPointExtension>
            <ns3:hr>132</ns3:hr>
            <ns3:cad>54</ns3:cad>
          </ns3:TrackPointExtension>
        </extensions>
      </trkpt>
      <trkpt lat="45.32099361531436443328857421875" lon="-70.93177185393869876861572265625">
        <ele>648.4000244140625</ele>
        <time>2026-08-21T17:10:38.000Z</time>
        <extensions>
          <ns3:TrackPointExtension>
            <ns3:hr>131</ns3:hr>
            <ns3:cad>55</ns3:cad>
          </ns3:TrackPointExtension>
        </extensions>
      </trkpt>
      <trkpt lat="45.32098724506795406341552734375" lon="-70.9317893721163272857666015625">
        <ele>648.5999755859375</ele>
        <time>2026-08-21T17:10:39.000Z</time>
        <extensions>
          <ns3:TrackPointExtension>
            <ns3:hr>131</ns3:hr>
            <ns3:cad>55</ns3:cad>
          </ns3:TrackPointExtension>
        </extensions>
      </trkpt>
      <trkpt lat="45.3209794498980045318603515625" lon="-70.93180370517075061798095703125">
        <ele>648.5999755859375</ele>
        <time>2026-08-21T17:10:40.000Z</time>
        <extensions>
          <ns3:TrackPointExtension>
            <ns3:hr>131</ns3:hr>
            <ns3:cad>55</ns3:cad>
          </ns3:TrackPointExtension>
        </extensions>
      </trkpt>
      <trkpt lat="45.3209693916141986846923828125" lon="-70.93181376345455646514892578125">
        <ele>648.79998779296875</ele>
        <time>2026-08-21T17:10:41.000Z</time>
        <extensions>
          <ns3:TrackPointExtension>
            <ns3:hr>132</ns3:hr>
            <ns3:cad>55</ns3:cad>
          </ns3:TrackPointExtension>
        </extensions>
      </trkpt>
      <trkpt lat="45.32096109353005886077880859375" lon="-70.9318296052515506744384765625">
        <ele>649</ele>
        <time>2026-08-21T17:10:42.000Z</time>
        <extensions>
          <ns3:TrackPointExtension>
            <ns3:hr>132</ns3:hr>
            <ns3:cad>55</ns3:cad>
          </ns3:TrackPointExtension>
        </extensions>
      </trkpt>
      <trkpt lat="45.320952124893665313720703125" lon="-70.9318448603153228759765625">
        <ele>649</ele>
        <time>2026-08-21T17:10:43.000Z</time>
        <extensions>
          <ns3:TrackPointExtension>
            <ns3:hr>132</ns3:hr>
            <ns3:cad>55</ns3:cad>
          </ns3:TrackPointExtension>
        </extensions>
      </trkpt>
      <trkpt lat="45.32094617374241352081298828125" lon="-70.93185986392199993133544921875">
        <ele>649.20001220703125</ele>
        <time>2026-08-21T17:10:44.000Z</time>
        <extensions>
          <ns3:TrackPointExtension>
            <ns3:hr>132</ns3:hr>
            <ns3:cad>55</ns3:cad>
          </ns3:TrackPointExtension>
        </extensions>
      </trkpt>
      <trkpt lat="45.3209385462105274200439453125" lon="-70.931875370442867279052734375">
        <ele>649.20001220703125</ele>
        <time>2026-08-21T17:10:45.000Z</time>
        <extensions>
          <ns3:TrackPointExtension>
            <ns3:hr>132</ns3:hr>
            <ns3:cad>55</ns3:cad>
          </ns3:TrackPointExtension>
        </extensions>
      </trkpt>
      <trkpt lat="45.32092940993607044219970703125" lon="-70.93189246952533721923828125">
        <ele>649.4000244140625</ele>
        <time>2026-08-21T17:10:46.000Z</time>
        <extensions>
          <ns3:TrackPointExtension>
            <ns3:hr>132</ns3:hr>
            <ns3:cad>55</ns3:cad>
          </ns3:TrackPointExtension>
        </extensions>
      </trkpt>
      <trkpt lat="45.32092119567096233367919921875" lon="-70.93190747313201427459716796875">
        <ele>649.4000244140625</ele>
        <time>2026-08-21T17:10:47.000Z</time>
        <extensions>
          <ns3:TrackPointExtension>
            <ns3:hr>132</ns3:hr>
            <ns3:cad>55</ns3:cad>
          </ns3:TrackPointExtension>
        </extensions>
      </trkpt>
      <trkpt lat="45.32091365195810794830322265625" lon="-70.93192356638610363006591796875">
        <ele>649.4000244140625</ele>
        <time>2026-08-21T17:10:48.000Z</time>
        <extensions>
          <ns3:TrackPointExtension>
            <ns3:hr>132</ns3:hr>
            <ns3:cad>55</ns3:cad>
          </ns3:TrackPointExtension>
        </extensions>
      </trkpt>
      <trkpt lat="45.320907868444919586181640625" lon="-70.93193798325955867767333984375">
        <ele>649.5999755859375</ele>
        <time>2026-08-21T17:10:49.000Z</time>
        <extensions>
          <ns3:TrackPointExtension>
            <ns3:hr>131</ns3:hr>
            <ns3:cad>55</ns3:cad>
          </ns3:TrackPointExtension>
        </extensions>
      </trkpt>
      <trkpt lat="45.32090141437947750091552734375" lon="-70.93195281922817230224609375">
        <ele>649.5999755859375</ele>
        <time>2026-08-21T17:10:50.000Z</time>
        <extensions>
          <ns3:TrackPointExtension>
            <ns3:hr>131</ns3:hr>
            <ns3:cad>55</ns3:cad>
          </ns3:TrackPointExtension>
        </extensions>
      </trkpt>
      <trkpt lat="45.3208949603140354156494140625" lon="-70.9319707565009593963623046875">
        <ele>649.79998779296875</ele>
        <time>2026-08-21T17:10:51.000Z</time>
        <extensions>
          <ns3:TrackPointExtension>
            <ns3:hr>131</ns3:hr>
            <ns3:cad>55</ns3:cad>
          </ns3:TrackPointExtension>
        </extensions>
      </trkpt>
      <trkpt lat="45.3208909370005130767822265625" lon="-70.931989364326000213623046875">
        <ele>649.79998779296875</ele>
        <time>2026-08-21T17:10:52.000Z</time>
        <extensions>
          <ns3:TrackPointExtension>
            <ns3:hr>131</ns3:hr>
            <ns3:cad>55</ns3:cad>
          </ns3:TrackPointExtension>
        </extensions>
      </trkpt>
      <trkpt lat="45.3208845667541027069091796875" lon="-70.9320073015987873077392578125">
        <ele>650</ele>
        <time>2026-08-21T17:10:53.000Z</time>
        <extensions>
          <ns3:TrackPointExtension>
            <ns3:hr>131</ns3:hr>
            <ns3:cad>55</ns3:cad>
          </ns3:TrackPointExtension>
        </extensions>
      </trkpt>
      <trkpt lat="45.32087576575577259063720703125" lon="-70.9320254065096378326416015625">
        <ele>650</ele>
        <time>2026-08-21T17:10:54.000Z</time>
        <extensions>
          <ns3:TrackPointExtension>
            <ns3:hr>131</ns3:hr>
            <ns3:cad>55</ns3:cad>
          </ns3:TrackPointExtension>
        </extensions>
      </trkpt>
      <trkpt lat="45.32087006606161594390869140625" lon="-70.9320433437824249267578125">
        <ele>650.20001220703125</ele>
        <time>2026-08-21T17:10:55.000Z</time>
        <extensions>
          <ns3:TrackPointExtension>
            <ns3:hr>131</ns3:hr>
            <ns3:cad>53</ns3:cad>
          </ns3:TrackPointExtension>
        </extensions>
      </trkpt>
      <trkpt lat="45.32086403109133243560791015625" lon="-70.93206153251230716705322265625">
        <ele>650.20001220703125</ele>
        <time>2026-08-21T17:10:56.000Z</time>
        <extensions>
          <ns3:TrackPointExtension>
            <ns3:hr>132</ns3:hr>
            <ns3:cad>53</ns3:cad>
          </ns3:TrackPointExtension>
        </extensions>
      </trkpt>
      <trkpt lat="45.32085724174976348876953125" lon="-70.932077877223491668701171875">
        <ele>650.20001220703125</ele>
        <time>2026-08-21T17:10:57.000Z</time>
        <extensions>
          <ns3:TrackPointExtension>
            <ns3:hr>132</ns3:hr>
            <ns3:cad>53</ns3:cad>
          </ns3:TrackPointExtension>
        </extensions>
      </trkpt>
      <trkpt lat="45.32084827311336994171142578125" lon="-70.93209564685821533203125">
        <ele>650.4000244140625</ele>
        <time>2026-08-21T17:10:58.000Z</time>
        <extensions>
          <ns3:TrackPointExtension>
            <ns3:hr>132</ns3:hr>
            <ns3:cad>53</ns3:cad>
          </ns3:TrackPointExtension>
        </extensions>
      </trkpt>
      <trkpt lat="45.32083846628665924072265625" lon="-70.93211433850228786468505859375">
        <ele>650.4000244140625</ele>
        <time>2026-08-21T17:10:59.000Z</time>
        <extensions>
          <ns3:TrackPointExtension>
            <ns3:hr>132</ns3:hr>
            <ns3:cad>53</ns3:cad>
          </ns3:TrackPointExtension>
        </extensions>
      </trkpt>
      <trkpt lat="45.32082916237413883209228515625" lon="-70.9321291744709014892578125">
        <ele>650.4000244140625</ele>
        <time>2026-08-21T17:11:00.000Z</time>
        <extensions>
          <ns3:TrackPointExtension>
            <ns3:hr>132</ns3:hr>
            <ns3:cad>55</ns3:cad>
          </ns3:TrackPointExtension>
        </extensions>
      </trkpt>
      <trkpt lat="45.3208208642899990081787109375" lon="-70.93214057385921478271484375">
        <ele>650.5999755859375</ele>
        <time>2026-08-21T17:11:01.000Z</time>
        <extensions>
          <ns3:TrackPointExtension>
            <ns3:hr>132</ns3:hr>
            <ns3:cad>55</ns3:cad>
          </ns3:TrackPointExtension>
        </extensions>
      </trkpt>
      <trkpt lat="45.3208121471107006072998046875" lon="-70.9321558289229869842529296875">
        <ele>650.5999755859375</ele>
        <time>2026-08-21T17:11:02.000Z</time>
        <extensions>
          <ns3:TrackPointExtension>
            <ns3:hr>131</ns3:hr>
            <ns3:cad>54</ns3:cad>
          </ns3:TrackPointExtension>
        </extensions>
      </trkpt>
      <trkpt lat="45.32080351375043392181396484375" lon="-70.9321685694158077239990234375">
        <ele>650.5999755859375</ele>
        <time>2026-08-21T17:11:03.000Z</time>
        <extensions>
          <ns3:TrackPointExtension>
            <ns3:hr>132</ns3:hr>
            <ns3:cad>54</ns3:cad>
          </ns3:TrackPointExtension>
        </extensions>
      </trkpt>
      <trkpt lat="45.32079395838081836700439453125" lon="-70.93217468820512294769287109375">
        <ele>650.5999755859375</ele>
        <time>2026-08-21T17:11:04.000Z</time>
        <extensions>
          <ns3:TrackPointExtension>
            <ns3:hr>132</ns3:hr>
            <ns3:cad>54</ns3:cad>
          </ns3:TrackPointExtension>
        </extensions>
      </trkpt>
      <trkpt lat="45.3207846544682979583740234375" lon="-70.9321846626698970794677734375">
        <ele>650.79998779296875</ele>
        <time>2026-08-21T17:11:05.000Z</time>
        <extensions>
          <ns3:TrackPointExtension>
            <ns3:hr>131</ns3:hr>
            <ns3:cad>53</ns3:cad>
          </ns3:TrackPointExtension>
        </extensions>
      </trkpt>
      <trkpt lat="45.32077820040285587310791015625" lon="-70.93219648115336894989013671875">
        <ele>650.79998779296875</ele>
        <time>2026-08-21T17:11:06.000Z</time>
        <extensions>
          <ns3:TrackPointExtension>
            <ns3:hr>131</ns3:hr>
            <ns3:cad>53</ns3:cad>
          </ns3:TrackPointExtension>
        </extensions>
      </trkpt>
      <trkpt lat="45.32076864503324031829833984375" lon="-70.932210981845855712890625">
        <ele>650.79998779296875</ele>
        <time>2026-08-21T17:11:07.000Z</time>
        <extensions>
          <ns3:TrackPointExtension>
            <ns3:hr>130</ns3:hr>
            <ns3:cad>53</ns3:cad>
          </ns3:TrackPointExtension>
        </extensions>
      </trkpt>
      <trkpt lat="45.32075707800686359405517578125" lon="-70.932217352092266082763671875">
        <ele>651</ele>
        <time>2026-08-21T17:11:08.000Z</time>
        <extensions>
          <ns3:TrackPointExtension>
            <ns3:hr>130</ns3:hr>
            <ns3:cad>53</ns3:cad>
          </ns3:TrackPointExtension>
        </extensions>
      </trkpt>
      <trkpt lat="45.320753641426563262939453125" lon="-70.932222045958042144775390625">
        <ele>651</ele>
        <time>2026-08-21T17:11:09.000Z</time>
        <extensions>
          <ns3:TrackPointExtension>
            <ns3:hr>130</ns3:hr>
            <ns3:cad>53</ns3:cad>
          </ns3:TrackPointExtension>
        </extensions>
      </trkpt>
      <trkpt lat="45.3207531385123729705810546875" lon="-70.93222506344318389892578125">
        <ele>651</ele>
        <time>2026-08-21T17:11:10.000Z</time>
        <extensions>
          <ns3:TrackPointExtension>
            <ns3:hr>130</ns3:hr>
            <ns3:cad>52</ns3:cad>
          </ns3:TrackPointExtension>
        </extensions>
      </trkpt>
      <trkpt lat="45.32074333168566226959228515625" lon="-70.9322178550064563751220703125">
        <ele>651</ele>
        <time>2026-08-21T17:11:11.000Z</time>
        <extensions>
          <ns3:TrackPointExtension>
            <ns3:hr>130</ns3:hr>
            <ns3:cad>52</ns3:cad>
          </ns3:TrackPointExtension>
        </extensions>
      </trkpt>
      <trkpt lat="45.32073654234409332275390625" lon="-70.93222196213901042938232421875">
        <ele>651.20001220703125</ele>
        <time>2026-08-21T17:11:12.000Z</time>
        <extensions>
          <ns3:TrackPointExtension>
            <ns3:hr>130</ns3:hr>
            <ns3:cad>0</ns3:cad>
          </ns3:TrackPointExtension>
        </extensions>
      </trkpt>
      <trkpt lat="45.3207360394299030303955078125" lon="-70.9322299249470233917236328125">
        <ele>651</ele>
        <time>2026-08-21T17:11:13.000Z</time>
        <extensions>
          <ns3:TrackPointExtension>
            <ns3:hr>130</ns3:hr>
            <ns3:cad>0</ns3:cad>
          </ns3:TrackPointExtension>
        </extensions>
      </trkpt>
      <trkpt lat="45.32073411159217357635498046875" lon="-70.93223570846021175384521484375">
        <ele>651</ele>
        <time>2026-08-21T17:11:14.000Z</time>
        <extensions>
          <ns3:TrackPointExtension>
            <ns3:hr>129</ns3:hr>
            <ns3:cad>0</ns3:cad>
          </ns3:TrackPointExtension>
        </extensions>
      </trkpt>
      <trkpt lat="45.32073511742055416107177734375" lon="-70.9322391450405120849609375">
        <ele>651</ele>
        <time>2026-08-21T17:11:15.000Z</time>
        <extensions>
          <ns3:TrackPointExtension>
            <ns3:hr>129</ns3:hr>
            <ns3:cad>0</ns3:cad>
          </ns3:TrackPointExtension>
        </extensions>
      </trkpt>
      <trkpt lat="45.32073478214442729949951171875" lon="-70.93223939649760723114013671875">
        <ele>651</ele>
        <time>2026-08-21T17:11:16.000Z</time>
        <extensions>
          <ns3:TrackPointExtension>
            <ns3:hr>129</ns3:hr>
            <ns3:cad>0</ns3:cad>
          </ns3:TrackPointExtension>
        </extensions>
      </trkpt>
      <trkpt lat="45.32073478214442729949951171875" lon="-70.93223939649760723114013671875">
        <ele>651</ele>
        <time>2026-08-21T17:11:17.000Z</time>
        <extensions>
          <ns3:TrackPointExtension>
            <ns3:hr>129</ns3:hr>
            <ns3:cad>0</ns3:cad>
          </ns3:TrackPointExtension>
        </extensions>
      </trkpt>
      <trkpt lat="45.32073478214442729949951171875" lon="-70.93223939649760723114013671875">
        <ele>651</ele>
        <time>2026-08-21T17:11:18.000Z</time>
        <extensions>
          <ns3:TrackPointExtension>
            <ns3:hr>130</ns3:hr>
            <ns3:cad>0</ns3:cad>
          </ns3:TrackPointExtension>
        </extensions>
      </trkpt>
      <trkpt lat="45.3207345306873321533203125" lon="-70.93223981559276580810546875">
        <ele>651</ele>
        <time>2026-08-21T17:11:19.000Z</time>
        <extensions>
          <ns3:TrackPointExtension>
            <ns3:hr>130</ns3:hr>
            <ns3:cad>0</ns3:cad>
          </ns3:TrackPointExtension>
        </extensions>
      </trkpt>
      <trkpt lat="45.3207372128963470458984375" lon="-70.93226035125553607940673828125">
        <ele>651</ele>
        <time>2026-08-21T17:11:20.000Z</time>
        <extensions>
          <ns3:TrackPointExtension>
            <ns3:hr>130</ns3:hr>
            <ns3:cad>0</ns3:cad>
          </ns3:TrackPointExtension>
        </extensions>
      </trkpt>
      <trkpt lat="45.32073796726763248443603515625" lon="-70.93227627687156200408935546875">
        <ele>651</ele>
        <time>2026-08-21T17:11:21.000Z</time>
        <extensions>
          <ns3:TrackPointExtension>
            <ns3:hr>130</ns3:hr>
            <ns3:cad>0</ns3:cad>
          </ns3:TrackPointExtension>
        </extensions>
      </trkpt>
      <trkpt lat="45.3207387216389179229736328125" lon="-70.9322941303253173828125">
        <ele>651</ele>
        <time>2026-08-21T17:11:22.000Z</time>
        <extensions>
          <ns3:TrackPointExtension>
            <ns3:hr>130</ns3:hr>
            <ns3:cad>0</ns3:cad>
          </ns3:TrackPointExtension>
        </extensions>
      </trkpt>
      <trkpt lat="45.3207357041537761688232421875" lon="-70.93231081031262874603271484375">
        <ele>651</ele>
        <time>2026-08-21T17:11:23.000Z</time>
        <extensions>
          <ns3:TrackPointExtension>
            <ns3:hr>129</ns3:hr>
            <ns3:cad>50</ns3:cad>
          </ns3:TrackPointExtension>
        </extensions>
      </trkpt>
      <trkpt lat="45.32073092646896839141845703125" lon="-70.93232539482414722442626953125">
        <ele>651.20001220703125</ele>
        <time>2026-08-21T17:11:24.000Z</time>
        <extensions>
          <ns3:TrackPointExtension>
            <ns3:hr>129</ns3:hr>
            <ns3:cad>50</ns3:cad>
          </ns3:TrackPointExtension>
        </extensions>
      </trkpt>
      <trkpt lat="45.32072673551738262176513671875" lon="-70.93233863823115825653076171875">
        <ele>651.20001220703125</ele>
        <time>2026-08-21T17:11:25.000Z</time>
        <extensions>
          <ns3:TrackPointExtension>
            <ns3:hr>129</ns3:hr>
            <ns3:cad>50</ns3:cad>
          </ns3:TrackPointExtension>
        </extensions>
      </trkpt>
      <trkpt lat="45.3207222931087017059326171875" lon="-70.93235137872397899627685546875">
        <ele>651.20001220703125</ele>
        <time>2026-08-21T17:11:26.000Z</time>
        <extensions>
          <ns3:TrackPointExtension>
            <ns3:hr>128</ns3:hr>
            <ns3:cad>50</ns3:cad>
          </ns3:TrackPointExtension>
        </extensions>
      </trkpt>
      <trkpt lat="45.32072120346128940582275390625" lon="-70.9323586709797382354736328125">
        <ele>651.4000244140625</ele>
        <time>2026-08-21T17:11:27.000Z</time>
        <extensions>
          <ns3:TrackPointExtension>
            <ns3:hr>128</ns3:hr>
            <ns3:cad>51</ns3:cad>
          </ns3:TrackPointExtension>
        </extensions>
      </trkpt>
      <trkpt lat="45.3207170963287353515625" lon="-70.9323630295693874359130859375">
        <ele>651.4000244140625</ele>
        <time>2026-08-21T17:11:28.000Z</time>
        <extensions>
          <ns3:TrackPointExtension>
            <ns3:hr>129</ns3:hr>
            <ns3:cad>52</ns3:cad>
          </ns3:TrackPointExtension>
        </extensions>
      </trkpt>
      <trkpt lat="45.32070569694042205810546875" lon="-70.9323697350919246673583984375">
        <ele>651.4000244140625</ele>
        <time>2026-08-21T17:11:29.000Z</time>
        <extensions>
          <ns3:TrackPointExtension>
            <ns3:hr>129</ns3:hr>
            <ns3:cad>52</ns3:cad>
          </ns3:TrackPointExtension>
        </extensions>
      </trkpt>
      <trkpt lat="45.32069957815110683441162109375" lon="-70.93238465487957000732421875">
        <ele>651.4000244140625</ele>
        <time>2026-08-21T17:11:30.000Z</time>
        <extensions>
          <ns3:TrackPointExtension>
            <ns3:hr>129</ns3:hr>
            <ns3:cad>54</ns3:cad>
          </ns3:TrackPointExtension>
        </extensions>
      </trkpt>
      <trkpt lat="45.3206934593617916107177734375" lon="-70.93240074813365936279296875">
        <ele>651.4000244140625</ele>
        <time>2026-08-21T17:11:31.000Z</time>
        <extensions>
          <ns3:TrackPointExtension>
            <ns3:hr>130</ns3:hr>
            <ns3:cad>54</ns3:cad>
          </ns3:TrackPointExtension>
        </extensions>
      </trkpt>
      <trkpt lat="45.32068700529634952545166015625" lon="-70.93241508118808269500732421875">
        <ele>651.5999755859375</ele>
        <time>2026-08-21T17:11:32.000Z</time>
        <extensions>
          <ns3:TrackPointExtension>
            <ns3:hr>130</ns3:hr>
            <ns3:cad>53</ns3:cad>
          </ns3:TrackPointExtension>
        </extensions>
      </trkpt>
      <trkpt lat="45.3206777013838291168212890625" lon="-70.93242865987122058868408203125">
        <ele>651.5999755859375</ele>
        <time>2026-08-21T17:11:33.000Z</time>
        <extensions>
          <ns3:TrackPointExtension>
            <ns3:hr>130</ns3:hr>
            <ns3:cad>53</ns3:cad>
          </ns3:TrackPointExtension>
        </extensions>
      </trkpt>
      <trkpt lat="45.3206683136522769927978515625" lon="-70.93244341202080249786376953125">
        <ele>651.5999755859375</ele>
        <time>2026-08-21T17:11:34.000Z</time>
        <extensions>
          <ns3:TrackPointExtension>
            <ns3:hr>130</ns3:hr>
            <ns3:cad>53</ns3:cad>
          </ns3:TrackPointExtension>
        </extensions>
      </trkpt>
      <trkpt lat="45.32066118903458118438720703125" lon="-70.9324572421610355377197265625">
        <ele>651.79998779296875</ele>
        <time>2026-08-21T17:11:35.000Z</time>
        <extensions>
          <ns3:TrackPointExtension>
            <ns3:hr>128</ns3:hr>
            <ns3:cad>51</ns3:cad>
          </ns3:TrackPointExtension>
        </extensions>
      </trkpt>
      <trkpt lat="45.3206518851220607757568359375" lon="-70.9324713237583637237548828125">
        <ele>651.79998779296875</ele>
        <time>2026-08-21T17:11:36.000Z</time>
        <extensions>
          <ns3:TrackPointExtension>
            <ns3:hr>128</ns3:hr>
            <ns3:cad>51</ns3:cad>
          </ns3:TrackPointExtension>
        </extensions>
      </trkpt>
      <trkpt lat="45.3206435032188892364501953125" lon="-70.932485572993755340576171875">
        <ele>651.79998779296875</ele>
        <time>2026-08-21T17:11:37.000Z</time>
        <extensions>
          <ns3:TrackPointExtension>
            <ns3:hr>128</ns3:hr>
            <ns3:cad>52</ns3:cad>
          </ns3:TrackPointExtension>
        </extensions>
      </trkpt>
      <trkpt lat="45.3206352889537811279296875" lon="-70.93250024132430553436279296875">
        <ele>651.79998779296875</ele>
        <time>2026-08-21T17:11:38.000Z</time>
        <extensions>
          <ns3:TrackPointExtension>
            <ns3:hr>126</ns3:hr>
            <ns3:cad>53</ns3:cad>
          </ns3:TrackPointExtension>
        </extensions>
      </trkpt>
      <trkpt lat="45.3206287510693073272705078125" lon="-70.93251650221645832061767578125">
        <ele>652</ele>
        <time>2026-08-21T17:11:39.000Z</time>
        <extensions>
          <ns3:TrackPointExtension>
            <ns3:hr>125</ns3:hr>
            <ns3:cad>53</ns3:cad>
          </ns3:TrackPointExtension>
        </extensions>
      </trkpt>
      <trkpt lat="45.32062129117548465728759765625" lon="-70.9325346909463405609130859375">
        <ele>652</ele>
        <time>2026-08-21T17:11:40.000Z</time>
        <extensions>
          <ns3:TrackPointExtension>
            <ns3:hr>125</ns3:hr>
            <ns3:cad>54</ns3:cad>
          </ns3:TrackPointExtension>
        </extensions>
      </trkpt>
      <trkpt lat="45.3206138312816619873046875" lon="-70.93254935927689075469970703125">
        <ele>652</ele>
        <time>2026-08-21T17:11:41.000Z</time>
        <extensions>
          <ns3:TrackPointExtension>
            <ns3:hr>125</ns3:hr>
            <ns3:cad>54</ns3:cad>
          </ns3:TrackPointExtension>
        </extensions>
      </trkpt>
      <trkpt lat="45.32060435973107814788818359375" lon="-70.9325591661036014556884765625">
        <ele>652</ele>
        <time>2026-08-21T17:11:42.000Z</time>
        <extensions>
          <ns3:TrackPointExtension>
            <ns3:hr>124</ns3:hr>
            <ns3:cad>54</ns3:cad>
          </ns3:TrackPointExtension>
        </extensions>
      </trkpt>
      <trkpt lat="45.32059430144727230072021484375" lon="-70.932570733129978179931640625">
        <ele>652</ele>
        <time>2026-08-21T17:11:43.000Z</time>
        <extensions>
          <ns3:TrackPointExtension>
            <ns3:hr>124</ns3:hr>
            <ns3:cad>54</ns3:cad>
          </ns3:TrackPointExtension>
        </extensions>
      </trkpt>
      <trkpt lat="45.3205865062773227691650390625" lon="-70.9325836412608623504638671875">
        <ele>652.20001220703125</ele>
        <time>2026-08-21T17:11:44.000Z</time>
        <extensions>
          <ns3:TrackPointExtension>
            <ns3:hr>124</ns3:hr>
            <ns3:cad>54</ns3:cad>
          </ns3:TrackPointExtension>
        </extensions>
      </trkpt>
      <trkpt lat="45.3205798007547855377197265625" lon="-70.93259713612496852874755859375">
        <ele>652.20001220703125</ele>
        <time>2026-08-21T17:11:45.000Z</time>
        <extensions>
          <ns3:TrackPointExtension>
            <ns3:hr>124</ns3:hr>
            <ns3:cad>53</ns3:cad>
          </ns3:TrackPointExtension>
        </extensions>
      </trkpt>
      <trkpt lat="45.32057158648967742919921875" lon="-70.932610295712947845458984375">
        <ele>652.20001220703125</ele>
        <time>2026-08-21T17:11:46.000Z</time>
        <extensions>
          <ns3:TrackPointExtension>
            <ns3:hr>124</ns3:hr>
            <ns3:cad>53</ns3:cad>
          </ns3:TrackPointExtension>
        </extensions>
      </trkpt>
      <trkpt lat="45.3205653838813304901123046875" lon="-70.93262831680476665496826171875">
        <ele>652.4000244140625</ele>
        <time>2026-08-21T17:11:47.000Z</time>
        <extensions>
          <ns3:TrackPointExtension>
            <ns3:hr>124</ns3:hr>
            <ns3:cad>52</ns3:cad>
          </ns3:TrackPointExtension>
        </extensions>
      </trkpt>
      <trkpt lat="45.32055758871138095855712890625" lon="-70.932639800012111663818359375">
        <ele>652.4000244140625</ele>
        <time>2026-08-21T17:11:48.000Z</time>
        <extensions>
          <ns3:TrackPointExtension>
            <ns3:hr>123</ns3:hr>
            <ns3:cad>53</ns3:cad>
          </ns3:TrackPointExtension>
        </extensions>
      </trkpt>
      <trkpt lat="45.3205476142466068267822265625" lon="-70.932651869952678680419921875">
        <ele>652.5999755859375</ele>
        <time>2026-08-21T17:11:49.000Z</time>
        <extensions>
          <ns3:TrackPointExtension>
            <ns3:hr>123</ns3:hr>
            <ns3:cad>53</ns3:cad>
          </ns3:TrackPointExtension>
        </extensions>
      </trkpt>
      <trkpt lat="45.320538394153118133544921875" lon="-70.93266553245484828948974609375">
        <ele>652.5999755859375</ele>
        <time>2026-08-21T17:11:50.000Z</time>
        <extensions>
          <ns3:TrackPointExtension>
            <ns3:hr>122</ns3:hr>
            <ns3:cad>51</ns3:cad>
          </ns3:TrackPointExtension>
        </extensions>
      </trkpt>
      <trkpt lat="45.32053026370704174041748046875" lon="-70.93267810530960559844970703125">
        <ele>652.79998779296875</ele>
        <time>2026-08-21T17:11:51.000Z</time>
        <extensions>
          <ns3:TrackPointExtension>
            <ns3:hr>122</ns3:hr>
            <ns3:cad>51</ns3:cad>
          </ns3:TrackPointExtension>
        </extensions>
      </trkpt>
      <trkpt lat="45.32052473165094852447509765625" lon="-70.93268866650760173797607421875">
        <ele>652.79998779296875</ele>
        <time>2026-08-21T17:11:52.000Z</time>
        <extensions>
          <ns3:TrackPointExtension>
            <ns3:hr>122</ns3:hr>
            <ns3:cad>51</ns3:cad>
          </ns3:TrackPointExtension>
        </extensions>
      </trkpt>
      <trkpt lat="45.3205241449177265167236328125" lon="-70.9326919354498386383056640625">
        <ele>652.79998779296875</ele>
        <time>2026-08-21T17:11:53.000Z</time>
        <extensions>
          <ns3:TrackPointExtension>
            <ns3:hr>122</ns3:hr>
            <ns3:cad>51</ns3:cad>
          </ns3:TrackPointExtension>
        </extensions>
      </trkpt>
      <trkpt lat="45.3205140866339206695556640625" lon="-70.93270920217037200927734375">
        <ele>653</ele>
        <time>2026-08-21T17:11:54.000Z</time>
        <extensions>
          <ns3:TrackPointExtension>
            <ns3:hr>121</ns3:hr>
            <ns3:cad>51</ns3:cad>
          </ns3:TrackPointExtension>
        </extensions>
      </trkpt>
      <trkpt lat="45.3205036930739879608154296875" lon="-70.9327251277863979339599609375">
        <ele>653</ele>
        <time>2026-08-21T17:11:55.000Z</time>
        <extensions>
          <ns3:TrackPointExtension>
            <ns3:hr>121</ns3:hr>
            <ns3:cad>51</ns3:cad>
          </ns3:TrackPointExtension>
        </extensions>
      </trkpt>
      <trkpt lat="45.32049640081822872161865234375" lon="-70.9327407181262969970703125">
        <ele>653</ele>
        <time>2026-08-21T17:11:56.000Z</time>
        <extensions>
          <ns3:TrackPointExtension>
            <ns3:hr>121</ns3:hr>
            <ns3:cad>51</ns3:cad>
          </ns3:TrackPointExtension>
        </extensions>
      </trkpt>
      <trkpt lat="45.32048751600086688995361328125" lon="-70.93275521881878376007080078125">
        <ele>653</ele>
        <time>2026-08-21T17:11:57.000Z</time>
        <extensions>
          <ns3:TrackPointExtension>
            <ns3:hr>120</ns3:hr>
            <ns3:cad>51</ns3:cad>
          </ns3:TrackPointExtension>
        </extensions>
      </trkpt>
      <trkpt lat="45.3204762004315853118896484375" lon="-70.93276678584516048431396484375">
        <ele>653</ele>
        <time>2026-08-21T17:11:58.000Z</time>
        <extensions>
          <ns3:TrackPointExtension>
            <ns3:hr>120</ns3:hr>
            <ns3:cad>51</ns3:cad>
          </ns3:TrackPointExtension>
        </extensions>
      </trkpt>
      <trkpt lat="45.32046790234744548797607421875" lon="-70.9327797777950763702392578125">
        <ele>653</ele>
        <time>2026-08-21T17:11:59.000Z</time>
        <extensions>
          <ns3:TrackPointExtension>
            <ns3:hr>120</ns3:hr>
            <ns3:cad>51</ns3:cad>
          </ns3:TrackPointExtension>
        </extensions>
      </trkpt>
      <trkpt lat="45.32046102918684482574462890625" lon="-70.9327983856201171875">
        <ele>653</ele>
        <time>2026-08-21T17:12:00.000Z</time>
        <extensions>
          <ns3:TrackPointExtension>
            <ns3:hr>120</ns3:hr>
            <ns3:cad>54</ns3:cad>
          </ns3:TrackPointExtension>
        </extensions>
      </trkpt>
      <trkpt lat="45.32044895924627780914306640625" lon="-70.9328106231987476348876953125">
        <ele>653</ele>
        <time>2026-08-21T17:12:01.000Z</time>
        <extensions>
          <ns3:TrackPointExtension>
            <ns3:hr>119</ns3:hr>
            <ns3:cad>54</ns3:cad>
          </ns3:TrackPointExtension>
        </extensions>
      </trkpt>
      <trkpt lat="45.32044258899986743927001953125" lon="-70.93282931484282016754150390625">
        <ele>653.20001220703125</ele>
        <time>2026-08-21T17:12:02.000Z</time>
        <extensions>
          <ns3:TrackPointExtension>
            <ns3:hr>118</ns3:hr>
            <ns3:cad>53</ns3:cad>
          </ns3:TrackPointExtension>
        </extensions>
      </trkpt>
      <trkpt lat="45.32043370418250560760498046875" lon="-70.932847671210765838623046875">
        <ele>653.20001220703125</ele>
        <time>2026-08-21T17:12:03.000Z</time>
        <extensions>
          <ns3:TrackPointExtension>
            <ns3:hr>118</ns3:hr>
            <ns3:cad>54</ns3:cad>
          </ns3:TrackPointExtension>
        </extensions>
      </trkpt>
      <trkpt lat="45.32042582519352436065673828125" lon="-70.9328640997409820556640625">
        <ele>653.20001220703125</ele>
        <time>2026-08-21T17:12:04.000Z</time>
        <extensions>
          <ns3:TrackPointExtension>
            <ns3:hr>119</ns3:hr>
            <ns3:cad>54</ns3:cad>
          </ns3:TrackPointExtension>
        </extensions>
      </trkpt>
      <trkpt lat="45.32041526399552822113037109375" lon="-70.93287818133831024169921875">
        <ele>653.4000244140625</ele>
        <time>2026-08-21T17:12:05.000Z</time>
        <extensions>
          <ns3:TrackPointExtension>
            <ns3:hr>120</ns3:hr>
            <ns3:cad>54</ns3:cad>
          </ns3:TrackPointExtension>
        </extensions>
      </trkpt>
      <trkpt lat="45.3204046189785003662109375" lon="-70.93289016745984554290771484375">
        <ele>653.4000244140625</ele>
        <time>2026-08-21T17:12:06.000Z</time>
        <extensions>
          <ns3:TrackPointExtension>
            <ns3:hr>121</ns3:hr>
            <ns3:cad>54</ns3:cad>
          </ns3:TrackPointExtension>
        </extensions>
      </trkpt>
      <trkpt lat="45.32039296813309192657470703125" lon="-70.9329031594097614288330078125">
        <ele>653.4000244140625</ele>
        <time>2026-08-21T17:12:07.000Z</time>
        <extensions>
          <ns3:TrackPointExtension>
            <ns3:hr>121</ns3:hr>
            <ns3:cad>54</ns3:cad>
          </ns3:TrackPointExtension>
        </extensions>
      </trkpt>
      <trkpt lat="45.32038257457315921783447265625" lon="-70.93291564844548702239990234375">
        <ele>653.4000244140625</ele>
        <time>2026-08-21T17:12:08.000Z</time>
        <extensions>
          <ns3:TrackPointExtension>
            <ns3:hr>121</ns3:hr>
            <ns3:cad>55</ns3:cad>
          </ns3:TrackPointExtension>
        </extensions>
      </trkpt>
      <trkpt lat="45.32037234865128993988037109375" lon="-70.932923443615436553955078125">
        <ele>653.4000244140625</ele>
        <time>2026-08-21T17:12:09.000Z</time>
        <extensions>
          <ns3:TrackPointExtension>
            <ns3:hr>121</ns3:hr>
            <ns3:cad>55</ns3:cad>
          </ns3:TrackPointExtension>
        </extensions>
      </trkpt>
      <trkpt lat="45.320360697805881500244140625" lon="-70.93293241225183010101318359375">
        <ele>653.4000244140625</ele>
        <time>2026-08-21T17:12:10.000Z</time>
        <extensions>
          <ns3:TrackPointExtension>
            <ns3:hr>121</ns3:hr>
            <ns3:cad>55</ns3:cad>
          </ns3:TrackPointExtension>
        </extensions>
      </trkpt>
      <trkpt lat="45.320349968969821929931640625" lon="-70.932944230735301971435546875">
        <ele>653.4000244140625</ele>
        <time>2026-08-21T17:12:11.000Z</time>
        <extensions>
          <ns3:TrackPointExtension>
            <ns3:hr>121</ns3:hr>
            <ns3:cad>55</ns3:cad>
          </ns3:TrackPointExtension>
        </extensions>
      </trkpt>
      <trkpt lat="45.32033932395279407501220703125" lon="-70.93295571394264698028564453125">
        <ele>653.4000244140625</ele>
        <time>2026-08-21T17:12:12.000Z</time>
        <extensions>
          <ns3:TrackPointExtension>
            <ns3:hr>121</ns3:hr>
            <ns3:cad>55</ns3:cad>
          </ns3:TrackPointExtension>
        </extensions>
      </trkpt>
      <trkpt lat="45.32032926566898822784423828125" lon="-70.93296728096902370452880859375">
        <ele>653.4000244140625</ele>
        <time>2026-08-21T17:12:13.000Z</time>
        <extensions>
          <ns3:TrackPointExtension>
            <ns3:hr>122</ns3:hr>
            <ns3:cad>54</ns3:cad>
          </ns3:TrackPointExtension>
        </extensions>
      </trkpt>
      <trkpt lat="45.3203186206519603729248046875" lon="-70.9329785965383052825927734375">
        <ele>653.5999755859375</ele>
        <time>2026-08-21T17:12:14.000Z</time>
        <extensions>
          <ns3:TrackPointExtension>
            <ns3:hr>122</ns3:hr>
            <ns3:cad>54</ns3:cad>
          </ns3:TrackPointExtension>
        </extensions>
      </trkpt>
      <trkpt lat="45.3203075565397739410400390625" lon="-70.93299158848822116851806640625">
        <ele>653.5999755859375</ele>
        <time>2026-08-21T17:12:15.000Z</time>
        <extensions>
          <ns3:TrackPointExtension>
            <ns3:hr>122</ns3:hr>
            <ns3:cad>55</ns3:cad>
          </ns3:TrackPointExtension>
        </extensions>
      </trkpt>
      <trkpt lat="45.3202973306179046630859375" lon="-70.933005250990390777587890625">
        <ele>653.5999755859375</ele>
        <time>2026-08-21T17:12:16.000Z</time>
        <extensions>
          <ns3:TrackPointExtension>
            <ns3:hr>122</ns3:hr>
            <ns3:cad>55</ns3:cad>
          </ns3:TrackPointExtension>
        </extensions>
      </trkpt>
      <trkpt lat="45.32028819434344768524169921875" lon="-70.93301891349256038665771484375">
        <ele>653.5999755859375</ele>
        <time>2026-08-21T17:12:17.000Z</time>
        <extensions>
          <ns3:TrackPointExtension>
            <ns3:hr>122</ns3:hr>
            <ns3:cad>55</ns3:cad>
          </ns3:TrackPointExtension>
        </extensions>
      </trkpt>
      <trkpt lat="45.32027721405029296875" lon="-70.9330315701663494110107421875">
        <ele>653.5999755859375</ele>
        <time>2026-08-21T17:12:18.000Z</time>
        <extensions>
          <ns3:TrackPointExtension>
            <ns3:hr>123</ns3:hr>
            <ns3:cad>54</ns3:cad>
          </ns3:TrackPointExtension>
        </extensions>
      </trkpt>
      <trkpt lat="45.32026891596615314483642578125" lon="-70.9330479986965656280517578125">
        <ele>653.79998779296875</ele>
        <time>2026-08-21T17:12:19.000Z</time>
        <extensions>
          <ns3:TrackPointExtension>
            <ns3:hr>123</ns3:hr>
            <ns3:cad>54</ns3:cad>
          </ns3:TrackPointExtension>
        </extensions>
      </trkpt>
      <trkpt lat="45.32025919295847415924072265625" lon="-70.9330599009990692138671875">
        <ele>653.79998779296875</ele>
        <time>2026-08-21T17:12:20.000Z</time>
        <extensions>
          <ns3:TrackPointExtension>
            <ns3:hr>123</ns3:hr>
            <ns3:cad>54</ns3:cad>
          </ns3:TrackPointExtension>
        </extensions>
      </trkpt>
      <trkpt lat="45.32024846412241458892822265625" lon="-70.93307071365416049957275390625">
        <ele>653.79998779296875</ele>
        <time>2026-08-21T17:12:21.000Z</time>
        <extensions>
          <ns3:TrackPointExtension>
            <ns3:hr>124</ns3:hr>
            <ns3:cad>54</ns3:cad>
          </ns3:TrackPointExtension>
        </extensions>
      </trkpt>
      <trkpt lat="45.3202383220195770263671875" lon="-70.93308261595666408538818359375">
        <ele>654</ele>
        <time>2026-08-21T17:12:22.000Z</time>
        <extensions>
          <ns3:TrackPointExtension>
            <ns3:hr>123</ns3:hr>
            <ns3:cad>55</ns3:cad>
          </ns3:TrackPointExtension>
        </extensions>
      </trkpt>
      <trkpt lat="45.320225916802883148193359375" lon="-70.9330949373543262481689453125">
        <ele>654</ele>
        <time>2026-08-21T17:12:23.000Z</time>
        <extensions>
          <ns3:TrackPointExtension>
            <ns3:hr>123</ns3:hr>
            <ns3:cad>55</ns3:cad>
          </ns3:TrackPointExtension>
        </extensions>
      </trkpt>
      <trkpt lat="45.32021376304328441619873046875" lon="-70.9331066720187664031982421875">
        <ele>654.20001220703125</ele>
        <time>2026-08-21T17:12:24.000Z</time>
        <extensions>
          <ns3:TrackPointExtension>
            <ns3:hr>123</ns3:hr>
            <ns3:cad>55</ns3:cad>
          </ns3:TrackPointExtension>
        </extensions>
      </trkpt>
      <trkpt lat="45.32020152546465396881103515625" lon="-70.933117233216762542724609375">
        <ele>654.20001220703125</ele>
        <time>2026-08-21T17:12:25.000Z</time>
        <extensions>
          <ns3:TrackPointExtension>
            <ns3:hr>124</ns3:hr>
            <ns3:cad>55</ns3:cad>
          </ns3:TrackPointExtension>
        </extensions>
      </trkpt>
      <trkpt lat="45.32019071280956268310546875" lon="-70.93312737531960010528564453125">
        <ele>654.20001220703125</ele>
        <time>2026-08-21T17:12:26.000Z</time>
        <extensions>
          <ns3:TrackPointExtension>
            <ns3:hr>124</ns3:hr>
            <ns3:cad>55</ns3:cad>
          </ns3:TrackPointExtension>
        </extensions>
      </trkpt>
      <trkpt lat="45.32017587684094905853271484375" lon="-70.93313634395599365234375">
        <ele>654.4000244140625</ele>
        <time>2026-08-21T17:12:27.000Z</time>
        <extensions>
          <ns3:TrackPointExtension>
            <ns3:hr>124</ns3:hr>
            <ns3:cad>55</ns3:cad>
          </ns3:TrackPointExtension>
        </extensions>
      </trkpt>
      <trkpt lat="45.3201640583574771881103515625" lon="-70.93314816243946552276611328125">
        <ele>654.4000244140625</ele>
        <time>2026-08-21T17:12:28.000Z</time>
        <extensions>
          <ns3:TrackPointExtension>
            <ns3:hr>123</ns3:hr>
            <ns3:cad>55</ns3:cad>
          </ns3:TrackPointExtension>
        </extensions>
      </trkpt>
      <trkpt lat="45.32015156932175159454345703125" lon="-70.9331566281616687774658203125">
        <ele>654.4000244140625</ele>
        <time>2026-08-21T17:12:29.000Z</time>
        <extensions>
          <ns3:TrackPointExtension>
            <ns3:hr>124</ns3:hr>
            <ns3:cad>55</ns3:cad>
          </ns3:TrackPointExtension>
        </extensions>
      </trkpt>
      <trkpt lat="45.320138745009899139404296875" lon="-70.93316777609288692474365234375">
        <ele>654.4000244140625</ele>
        <time>2026-08-21T17:12:30.000Z</time>
        <extensions>
          <ns3:TrackPointExtension>
            <ns3:hr>124</ns3:hr>
            <ns3:cad>55</ns3:cad>
          </ns3:TrackPointExtension>
        </extensions>
      </trkpt>
      <trkpt lat="45.32012608833611011505126953125" lon="-70.93317314051091670989990234375">
        <ele>654.5999755859375</ele>
        <time>2026-08-21T17:12:31.000Z</time>
        <extensions>
          <ns3:TrackPointExtension>
            <ns3:hr>124</ns3:hr>
            <ns3:cad>55</ns3:cad>
          </ns3:TrackPointExtension>
        </extensions>
      </trkpt>
      <trkpt lat="45.32011653296649456024169921875" lon="-70.9331874735653400421142578125">
        <ele>654.5999755859375</ele>
        <time>2026-08-21T17:12:32.000Z</time>
        <extensions>
          <ns3:TrackPointExtension>
            <ns3:hr>124</ns3:hr>
            <ns3:cad>55</ns3:cad>
          </ns3:TrackPointExtension>
        </extensions>
      </trkpt>
      <trkpt lat="45.320101194083690643310546875" lon="-70.93320138752460479736328125">
        <ele>654.79998779296875</ele>
        <time>2026-08-21T17:12:33.000Z</time>
        <extensions>
          <ns3:TrackPointExtension>
            <ns3:hr>124</ns3:hr>
            <ns3:cad>55</ns3:cad>
          </ns3:TrackPointExtension>
        </extensions>
      </trkpt>
      <trkpt lat="45.32008887268602848052978515625" lon="-70.933211781084537506103515625">
        <ele>654.79998779296875</ele>
        <time>2026-08-21T17:12:34.000Z</time>
        <extensions>
          <ns3:TrackPointExtension>
            <ns3:hr>124</ns3:hr>
            <ns3:cad>55</ns3:cad>
          </ns3:TrackPointExtension>
        </extensions>
      </trkpt>
      <trkpt lat="45.320076383650302886962890625" lon="-70.933221168816089630126953125">
        <ele>654.79998779296875</ele>
        <time>2026-08-21T17:12:35.000Z</time>
        <extensions>
          <ns3:TrackPointExtension>
            <ns3:hr>125</ns3:hr>
            <ns3:cad>56</ns3:cad>
          </ns3:TrackPointExtension>
        </extensions>
      </trkpt>
      <trkpt lat="45.32006439752876758575439453125" lon="-70.93323214910924434661865234375">
        <ele>654.79998779296875</ele>
        <time>2026-08-21T17:12:36.000Z</time>
        <extensions>
          <ns3:TrackPointExtension>
            <ns3:hr>125</ns3:hr>
            <ns3:cad>56</ns3:cad>
          </ns3:TrackPointExtension>
        </extensions>
      </trkpt>
      <trkpt lat="45.32005350105464458465576171875" lon="-70.93324371613562107086181640625">
        <ele>654.79998779296875</ele>
        <time>2026-08-21T17:12:37.000Z</time>
        <extensions>
          <ns3:TrackPointExtension>
            <ns3:hr>125</ns3:hr>
            <ns3:cad>56</ns3:cad>
          </ns3:TrackPointExtension>
        </extensions>
      </trkpt>
      <trkpt lat="45.32004327513277530670166015625" lon="-70.9332508407533168792724609375">
        <ele>655</ele>
        <time>2026-08-21T17:12:38.000Z</time>
        <extensions>
          <ns3:TrackPointExtension>
            <ns3:hr>124</ns3:hr>
            <ns3:cad>56</ns3:cad>
          </ns3:TrackPointExtension>
        </extensions>
      </trkpt>
      <trkpt lat="45.320032797753810882568359375" lon="-70.93326651491224765777587890625">
        <ele>655</ele>
        <time>2026-08-21T17:12:39.000Z</time>
        <extensions>
          <ns3:TrackPointExtension>
            <ns3:hr>125</ns3:hr>
            <ns3:cad>55</ns3:cad>
          </ns3:TrackPointExtension>
        </extensions>
      </trkpt>
      <trkpt lat="45.320023410022258758544921875" lon="-70.93327875249087810516357421875">
        <ele>655.20001220703125</ele>
        <time>2026-08-21T17:12:40.000Z</time>
        <extensions>
          <ns3:TrackPointExtension>
            <ns3:hr>125</ns3:hr>
            <ns3:cad>55</ns3:cad>
          </ns3:TrackPointExtension>
        </extensions>
      </trkpt>
      <trkpt lat="45.32001108862459659576416015625" lon="-70.93328730203211307525634765625">
        <ele>655.20001220703125</ele>
        <time>2026-08-21T17:12:41.000Z</time>
        <extensions>
          <ns3:TrackPointExtension>
            <ns3:hr>126</ns3:hr>
            <ns3:cad>55</ns3:cad>
          </ns3:TrackPointExtension>
        </extensions>
      </trkpt>
      <trkpt lat="45.31999918632209300994873046875" lon="-70.93329618684947490692138671875">
        <ele>655.4000244140625</ele>
        <time>2026-08-21T17:12:42.000Z</time>
        <extensions>
          <ns3:TrackPointExtension>
            <ns3:hr>126</ns3:hr>
            <ns3:cad>55</ns3:cad>
          </ns3:TrackPointExtension>
        </extensions>
      </trkpt>
      <trkpt lat="45.319987870752811431884765625" lon="-70.9333128668367862701416015625">
        <ele>655.4000244140625</ele>
        <time>2026-08-21T17:12:43.000Z</time>
        <extensions>
          <ns3:TrackPointExtension>
            <ns3:hr>126</ns3:hr>
            <ns3:cad>56</ns3:cad>
          </ns3:TrackPointExtension>
        </extensions>
      </trkpt>
      <trkpt lat="45.3199752978980541229248046875" lon="-70.9333249367773532867431640625">
        <ele>655.4000244140625</ele>
        <time>2026-08-21T17:12:44.000Z</time>
        <extensions>
          <ns3:TrackPointExtension>
            <ns3:hr>126</ns3:hr>
            <ns3:cad>56</ns3:cad>
          </ns3:TrackPointExtension>
        </extensions>
      </trkpt>
      <trkpt lat="45.31996465288102626800537109375" lon="-70.933342874050140380859375">
        <ele>655.4000244140625</ele>
        <time>2026-08-21T17:12:45.000Z</time>
        <extensions>
          <ns3:TrackPointExtension>
            <ns3:hr>125</ns3:hr>
            <ns3:cad>56</ns3:cad>
          </ns3:TrackPointExtension>
        </extensions>
      </trkpt>
      <trkpt lat="45.3199511580169200897216796875" lon="-70.93334890902042388916015625">
        <ele>655.4000244140625</ele>
        <time>2026-08-21T17:12:46.000Z</time>
        <extensions>
          <ns3:TrackPointExtension>
            <ns3:hr>125</ns3:hr>
            <ns3:cad>56</ns3:cad>
          </ns3:TrackPointExtension>
        </extensions>
      </trkpt>
      <trkpt lat="45.31993732787668704986572265625" lon="-70.93335150741040706634521484375">
        <ele>655.4000244140625</ele>
        <time>2026-08-21T17:12:47.000Z</time>
        <extensions>
          <ns3:TrackPointExtension>
            <ns3:hr>125</ns3:hr>
            <ns3:cad>56</ns3:cad>
          </ns3:TrackPointExtension>
        </extensions>
      </trkpt>
      <trkpt lat="45.3199243359267711639404296875" lon="-70.933363996446132659912109375">
        <ele>655.4000244140625</ele>
        <time>2026-08-21T17:12:48.000Z</time>
        <extensions>
          <ns3:TrackPointExtension>
            <ns3:hr>124</ns3:hr>
            <ns3:cad>55</ns3:cad>
          </ns3:TrackPointExtension>
        </extensions>
      </trkpt>
      <trkpt lat="45.31991184689104557037353515625" lon="-70.93337439000606536865234375">
        <ele>655.4000244140625</ele>
        <time>2026-08-21T17:12:49.000Z</time>
        <extensions>
          <ns3:TrackPointExtension>
            <ns3:hr>124</ns3:hr>
            <ns3:cad>55</ns3:cad>
          </ns3:TrackPointExtension>
        </extensions>
      </trkpt>
      <trkpt lat="45.3198965080082416534423828125" lon="-70.933390147984027862548828125">
        <ele>655.4000244140625</ele>
        <time>2026-08-21T17:12:50.000Z</time>
        <extensions>
          <ns3:TrackPointExtension>
            <ns3:hr>124</ns3:hr>
            <ns3:cad>0</ns3:cad>
          </ns3:TrackPointExtension>
        </extensions>
      </trkpt>
      <trkpt lat="45.319882594048976898193359375" lon="-70.9334043972194194793701171875">
        <ele>655.4000244140625</ele>
        <time>2026-08-21T17:12:51.000Z</time>
        <extensions>
          <ns3:TrackPointExtension>
            <ns3:hr>124</ns3:hr>
            <ns3:cad>0</ns3:cad>
          </ns3:TrackPointExtension>
        </extensions>
      </trkpt>
      <trkpt lat="45.31987488269805908203125" lon="-70.9334228374063968658447265625">
        <ele>655.4000244140625</ele>
        <time>2026-08-21T17:12:52.000Z</time>
        <extensions>
          <ns3:TrackPointExtension>
            <ns3:hr>124</ns3:hr>
            <ns3:cad>0</ns3:cad>
          </ns3:TrackPointExtension>
        </extensions>
      </trkpt>
      <trkpt lat="45.31986608169972896575927734375" lon="-70.93343901447951793670654296875">
        <ele>655.4000244140625</ele>
        <time>2026-08-21T17:12:53.000Z</time>
        <extensions>
          <ns3:TrackPointExtension>
            <ns3:hr>124</ns3:hr>
            <ns3:cad>55</ns3:cad>
          </ns3:TrackPointExtension>
        </extensions>
      </trkpt>
      <trkpt lat="45.31986088491976261138916015625" lon="-70.933449827134609222412109375">
        <ele>655.4000244140625</ele>
        <time>2026-08-21T17:12:54.000Z</time>
        <extensions>
          <ns3:TrackPointExtension>
            <ns3:hr>124</ns3:hr>
            <ns3:cad>55</ns3:cad>
          </ns3:TrackPointExtension>
        </extensions>
      </trkpt>
      <trkpt lat="45.3198539279401302337646484375" lon="-70.93345678411424160003662109375">
        <ele>655.4000244140625</ele>
        <time>2026-08-21T17:12:55.000Z</time>
        <extensions>
          <ns3:TrackPointExtension>
            <ns3:hr>124</ns3:hr>
            <ns3:cad>55</ns3:cad>
          </ns3:TrackPointExtension>
        </extensions>
      </trkpt>
      <trkpt lat="45.3198452107608318328857421875" lon="-70.9334660880267620086669921875">
        <ele>655.4000244140625</ele>
        <time>2026-08-21T17:12:56.000Z</time>
        <extensions>
          <ns3:TrackPointExtension>
            <ns3:hr>123</ns3:hr>
            <ns3:cad>55</ns3:cad>
          </ns3:TrackPointExtension>
        </extensions>
      </trkpt>
      <trkpt lat="45.31983892433345317840576171875" lon="-70.93348276801407337188720703125">
        <ele>655.4000244140625</ele>
        <time>2026-08-21T17:12:57.000Z</time>
        <extensions>
          <ns3:TrackPointExtension>
            <ns3:hr>124</ns3:hr>
            <ns3:cad>51</ns3:cad>
          </ns3:TrackPointExtension>
        </extensions>
      </trkpt>
      <trkpt lat="45.31984009779989719390869140625" lon="-70.933496095240116119384765625">
        <ele>655.4000244140625</ele>
        <time>2026-08-21T17:12:58.000Z</time>
        <extensions>
          <ns3:TrackPointExtension>
            <ns3:hr>124</ns3:hr>
            <ns3:cad>48</ns3:cad>
          </ns3:TrackPointExtension>
        </extensions>
      </trkpt>
      <trkpt lat="45.31984127126634120941162109375" lon="-70.9335126914083957672119140625">
        <ele>655.4000244140625</ele>
        <time>2026-08-21T17:12:59.000Z</time>
        <extensions>
          <ns3:TrackPointExtension>
            <ns3:hr>123</ns3:hr>
            <ns3:cad>48</ns3:cad>
          </ns3:TrackPointExtension>
        </extensions>
      </trkpt>
      <trkpt lat="45.31984412111341953277587890625" lon="-70.93353423289954662322998046875">
        <ele>655.4000244140625</ele>
        <time>2026-08-21T17:13:00.000Z</time>
        <extensions>
          <ns3:TrackPointExtension>
            <ns3:hr>123</ns3:hr>
            <ns3:cad>48</ns3:cad>
          </ns3:TrackPointExtension>
        </extensions>
      </trkpt>
      <trkpt lat="45.319850742816925048828125" lon="-70.93355451710522174835205078125">
        <ele>655.4000244140625</ele>
        <time>2026-08-21T17:13:01.000Z</time>
        <extensions>
          <ns3:TrackPointExtension>
            <ns3:hr>123</ns3:hr>
            <ns3:cad>48</ns3:cad>
          </ns3:TrackPointExtension>
        </extensions>
      </trkpt>
      <trkpt lat="45.319857113063335418701171875" lon="-70.93357111327350139617919921875">
        <ele>655.4000244140625</ele>
        <time>2026-08-21T17:13:02.000Z</time>
        <extensions>
          <ns3:TrackPointExtension>
            <ns3:hr>122</ns3:hr>
            <ns3:cad>48</ns3:cad>
          </ns3:TrackPointExtension>
        </extensions>
      </trkpt>
      <trkpt lat="45.31986608169972896575927734375" lon="-70.93358653597533702850341796875">
        <ele>655.4000244140625</ele>
        <time>2026-08-21T17:13:03.000Z</time>
        <extensions>
          <ns3:TrackPointExtension>
            <ns3:hr>122</ns3:hr>
            <ns3:cad>48</ns3:cad>
          </ns3:TrackPointExtension>
        </extensions>
      </trkpt>
      <trkpt lat="45.31987530179321765899658203125" lon="-70.93359525315463542938232421875">
        <ele>655.20001220703125</ele>
        <time>2026-08-21T17:13:04.000Z</time>
        <extensions>
          <ns3:TrackPointExtension>
            <ns3:hr>122</ns3:hr>
            <ns3:cad>48</ns3:cad>
          </ns3:TrackPointExtension>
        </extensions>
      </trkpt>
      <trkpt lat="45.319894663989543914794921875" lon="-70.9336099214851856231689453125">
        <ele>655.20001220703125</ele>
        <time>2026-08-21T17:13:05.000Z</time>
        <extensions>
          <ns3:TrackPointExtension>
            <ns3:hr>122</ns3:hr>
            <ns3:cad>48</ns3:cad>
          </ns3:TrackPointExtension>
        </extensions>
      </trkpt>
      <trkpt lat="45.31990312971174716949462890625" lon="-70.93361721374094486236572265625">
        <ele>655.20001220703125</ele>
        <time>2026-08-21T17:13:06.000Z</time>
        <extensions>
          <ns3:TrackPointExtension>
            <ns3:hr>122</ns3:hr>
            <ns3:cad>48</ns3:cad>
          </ns3:TrackPointExtension>
        </extensions>
      </trkpt>
      <trkpt lat="45.31991167925298213958740234375" lon="-70.93362308107316493988037109375">
        <ele>655.20001220703125</ele>
        <time>2026-08-21T17:13:07.000Z</time>
        <extensions>
          <ns3:TrackPointExtension>
            <ns3:hr>122</ns3:hr>
            <ns3:cad>48</ns3:cad>
          </ns3:TrackPointExtension>
        </extensions>
      </trkpt>
      <trkpt lat="45.31992374919354915618896484375" lon="-70.93363188207149505615234375">
        <ele>655.20001220703125</ele>
        <time>2026-08-21T17:13:08.000Z</time>
        <extensions>
          <ns3:TrackPointExtension>
            <ns3:hr>122</ns3:hr>
            <ns3:cad>59</ns3:cad>
          </ns3:TrackPointExtension>
        </extensions>
      </trkpt>
      <trkpt lat="45.3199357353150844573974609375" lon="-70.9336411021649837493896484375">
        <ele>655.20001220703125</ele>
        <time>2026-08-21T17:13:09.000Z</time>
        <extensions>
          <ns3:TrackPointExtension>
            <ns3:hr>122</ns3:hr>
            <ns3:cad>59</ns3:cad>
          </ns3:TrackPointExtension>
        </extensions>
      </trkpt>
      <trkpt lat="45.31993883661925792694091796875" lon="-70.9336498193442821502685546875">
        <ele>655.4000244140625</ele>
        <time>2026-08-21T17:13:10.000Z</time>
        <extensions>
          <ns3:TrackPointExtension>
            <ns3:hr>123</ns3:hr>
            <ns3:cad>59</ns3:cad>
          </ns3:TrackPointExtension>
        </extensions>
      </trkpt>
      <trkpt lat="45.319942273199558258056640625" lon="-70.93366147018969058990478515625">
        <ele>655.4000244140625</ele>
        <time>2026-08-21T17:13:11.000Z</time>
        <extensions>
          <ns3:TrackPointExtension>
            <ns3:hr>123</ns3:hr>
            <ns3:cad>59</ns3:cad>
          </ns3:TrackPointExtension>
        </extensions>
      </trkpt>
      <trkpt lat="45.3199461288750171661376953125" lon="-70.9336741268634796142578125">
        <ele>655.4000244140625</ele>
        <time>2026-08-21T17:13:12.000Z</time>
        <extensions>
          <ns3:TrackPointExtension>
            <ns3:hr>123</ns3:hr>
            <ns3:cad>59</ns3:cad>
          </ns3:TrackPointExtension>
        </extensions>
      </trkpt>
      <trkpt lat="45.31994554214179515838623046875" lon="-70.9336883760988712310791015625">
        <ele>655.5999755859375</ele>
        <time>2026-08-21T17:13:13.000Z</time>
        <extensions>
          <ns3:TrackPointExtension>
            <ns3:hr>123</ns3:hr>
            <ns3:cad>59</ns3:cad>
          </ns3:TrackPointExtension>
        </extensions>
      </trkpt>
      <trkpt lat="45.31994855962693691253662109375" lon="-70.93370438553392887115478515625">
        <ele>655.5999755859375</ele>
        <time>2026-08-21T17:13:14.000Z</time>
        <extensions>
          <ns3:TrackPointExtension>
            <ns3:hr>123</ns3:hr>
            <ns3:cad>0</ns3:cad>
          </ns3:TrackPointExtension>
        </extensions>
      </trkpt>
      <trkpt lat="45.31995040364563465118408203125" lon="-70.93372232280671596527099609375">
        <ele>655.79998779296875</ele>
        <time>2026-08-21T17:13:15.000Z</time>
        <extensions>
          <ns3:TrackPointExtension>
            <ns3:hr>123</ns3:hr>
            <ns3:cad>0</ns3:cad>
          </ns3:TrackPointExtension>
        </extensions>
      </trkpt>
      <trkpt lat="45.3199602104723453521728515625" lon="-70.93374797143042087554931640625">
        <ele>655.79998779296875</ele>
        <time>2026-08-21T17:13:16.000Z</time>
        <extensions>
          <ns3:TrackPointExtension>
            <ns3:hr>123</ns3:hr>
            <ns3:cad>0</ns3:cad>
          </ns3:TrackPointExtension>
        </extensions>
      </trkpt>
      <trkpt lat="45.3199692629277706146240234375" lon="-70.9337711893022060394287109375">
        <ele>656</ele>
        <time>2026-08-21T17:13:17.000Z</time>
        <extensions>
          <ns3:TrackPointExtension>
            <ns3:hr>123</ns3:hr>
            <ns3:cad>0</ns3:cad>
          </ns3:TrackPointExtension>
        </extensions>
      </trkpt>
      <trkpt lat="45.3199799917638301849365234375" lon="-70.93379407189786434173583984375">
        <ele>656</ele>
        <time>2026-08-21T17:13:18.000Z</time>
        <extensions>
          <ns3:TrackPointExtension>
            <ns3:hr>124</ns3:hr>
            <ns3:cad>0</ns3:cad>
          </ns3:TrackPointExtension>
        </extensions>
      </trkpt>
      <trkpt lat="45.31998912803828716278076171875" lon="-70.9338097460567951202392578125">
        <ele>656.20001220703125</ele>
        <time>2026-08-21T17:13:19.000Z</time>
        <extensions>
          <ns3:TrackPointExtension>
            <ns3:hr>123</ns3:hr>
            <ns3:cad>0</ns3:cad>
          </ns3:TrackPointExtension>
        </extensions>
      </trkpt>
      <trkpt lat="45.31999893486499786376953125" lon="-70.9338244982063770294189453125">
        <ele>656.20001220703125</ele>
        <time>2026-08-21T17:13:20.000Z</time>
        <extensions>
          <ns3:TrackPointExtension>
            <ns3:hr>123</ns3:hr>
            <ns3:cad>0</ns3:cad>
          </ns3:TrackPointExtension>
        </extensions>
      </trkpt>
      <trkpt lat="45.32000706531107425689697265625" lon="-70.9338369034230709075927734375">
        <ele>656.4000244140625</ele>
        <time>2026-08-21T17:13:21.000Z</time>
        <extensions>
          <ns3:TrackPointExtension>
            <ns3:hr>123</ns3:hr>
            <ns3:cad>0</ns3:cad>
          </ns3:TrackPointExtension>
        </extensions>
      </trkpt>
      <trkpt lat="45.32001628540456295013427734375" lon="-70.93384453095495700836181640625">
        <ele>656.4000244140625</ele>
        <time>2026-08-21T17:13:22.000Z</time>
        <extensions>
          <ns3:TrackPointExtension>
            <ns3:hr>123</ns3:hr>
            <ns3:cad>0</ns3:cad>
          </ns3:TrackPointExtension>
        </extensions>
      </trkpt>
      <trkpt lat="45.32002483494579792022705078125" lon="-70.93385475687682628631591796875">
        <ele>656.5999755859375</ele>
        <time>2026-08-21T17:13:23.000Z</time>
        <extensions>
          <ns3:TrackPointExtension>
            <ns3:hr>123</ns3:hr>
            <ns3:cad>0</ns3:cad>
          </ns3:TrackPointExtension>
        </extensions>
      </trkpt>
      <trkpt lat="45.3200353123247623443603515625" lon="-70.93386598862707614898681640625">
        <ele>656.5999755859375</ele>
        <time>2026-08-21T17:13:24.000Z</time>
        <extensions>
          <ns3:TrackPointExtension>
            <ns3:hr>123</ns3:hr>
            <ns3:cad>0</ns3:cad>
          </ns3:TrackPointExtension>
        </extensions>
      </trkpt>
      <trkpt lat="45.32004210166633129119873046875" lon="-70.9338764660060405731201171875">
        <ele>656.5999755859375</ele>
        <time>2026-08-21T17:13:25.000Z</time>
        <extensions>
          <ns3:TrackPointExtension>
            <ns3:hr>123</ns3:hr>
            <ns3:cad>0</ns3:cad>
          </ns3:TrackPointExtension>
        </extensions>
      </trkpt>
      <trkpt lat="45.3200500644743442535400390625" lon="-70.93389381654560565948486328125">
        <ele>656.79998779296875</ele>
        <time>2026-08-21T17:13:26.000Z</time>
        <extensions>
          <ns3:TrackPointExtension>
            <ns3:hr>124</ns3:hr>
            <ns3:cad>0</ns3:cad>
          </ns3:TrackPointExtension>
        </extensions>
      </trkpt>
      <trkpt lat="45.3200586140155792236328125" lon="-70.93390949070453643798828125">
        <ele>656.79998779296875</ele>
        <time>2026-08-21T17:13:27.000Z</time>
        <extensions>
          <ns3:TrackPointExtension>
            <ns3:hr>124</ns3:hr>
            <ns3:cad>0</ns3:cad>
          </ns3:TrackPointExtension>
        </extensions>
      </trkpt>
      <trkpt lat="45.3200639784336090087890625" lon="-70.93392617069184780120849609375">
        <ele>656.79998779296875</ele>
        <time>2026-08-21T17:13:28.000Z</time>
        <extensions>
          <ns3:TrackPointExtension>
            <ns3:hr>124</ns3:hr>
            <ns3:cad>0</ns3:cad>
          </ns3:TrackPointExtension>
        </extensions>
      </trkpt>
      <trkpt lat="45.32006221823394298553466796875" lon="-70.9339364804327487945556640625">
        <ele>656.79998779296875</ele>
        <time>2026-08-21T17:13:29.000Z</time>
        <extensions>
          <ns3:TrackPointExtension>
            <ns3:hr>124</ns3:hr>
            <ns3:cad>0</ns3:cad>
          </ns3:TrackPointExtension>
        </extensions>
      </trkpt>
      <trkpt lat="45.320056267082691192626953125" lon="-70.93395374715328216552734375">
        <ele>656.79998779296875</ele>
        <time>2026-08-21T17:13:30.000Z</time>
        <extensions>
          <ns3:TrackPointExtension>
            <ns3:hr>123</ns3:hr>
            <ns3:cad>0</ns3:cad>
          </ns3:TrackPointExtension>
        </extensions>
      </trkpt>
      <trkpt lat="45.320051573216915130615234375" lon="-70.933970846235752105712890625">
        <ele>657</ele>
        <time>2026-08-21T17:13:31.000Z</time>
        <extensions>
          <ns3:TrackPointExtension>
            <ns3:hr>124</ns3:hr>
            <ns3:cad>0</ns3:cad>
          </ns3:TrackPointExtension>
        </extensions>
      </trkpt>
      <trkpt lat="45.32005199231207370758056640625" lon="-70.933991968631744384765625">
        <ele>657</ele>
        <time>2026-08-21T17:13:32.000Z</time>
        <extensions>
          <ns3:TrackPointExtension>
            <ns3:hr>124</ns3:hr>
            <ns3:cad>0</ns3:cad>
          </ns3:TrackPointExtension>
        </extensions>
      </trkpt>
      <trkpt lat="45.32005366869270801544189453125" lon="-70.9340196289122104644775390625">
        <ele>657.20001220703125</ele>
        <time>2026-08-21T17:13:33.000Z</time>
        <extensions>
          <ns3:TrackPointExtension>
            <ns3:hr>124</ns3:hr>
            <ns3:cad>0</ns3:cad>
          </ns3:TrackPointExtension>
        </extensions>
      </trkpt>
      <trkpt lat="45.3200550936162471771240234375" lon="-70.93403982929885387420654296875">
        <ele>657.20001220703125</ele>
        <time>2026-08-21T17:13:34.000Z</time>
        <extensions>
          <ns3:TrackPointExtension>
            <ns3:hr>125</ns3:hr>
            <ns3:cad>52</ns3:cad>
          </ns3:TrackPointExtension>
        </extensions>
      </trkpt>
      <trkpt lat="45.3200537525117397308349609375" lon="-70.93406866304576396942138671875">
        <ele>657.20001220703125</ele>
        <time>2026-08-21T17:13:35.000Z</time>
        <extensions>
          <ns3:TrackPointExtension>
            <ns3:hr>125</ns3:hr>
            <ns3:cad>46</ns3:cad>
          </ns3:TrackPointExtension>
        </extensions>
      </trkpt>
      <trkpt lat="45.3200554288923740386962890625" lon="-70.93409481458365917205810546875">
        <ele>657.20001220703125</ele>
        <time>2026-08-21T17:13:36.000Z</time>
        <extensions>
          <ns3:TrackPointExtension>
            <ns3:hr>125</ns3:hr>
            <ns3:cad>46</ns3:cad>
          </ns3:TrackPointExtension>
        </extensions>
      </trkpt>
      <trkpt lat="45.32005970366299152374267578125" lon="-70.9341185353696346282958984375">
        <ele>657.20001220703125</ele>
        <time>2026-08-21T17:13:37.000Z</time>
        <extensions>
          <ns3:TrackPointExtension>
            <ns3:hr>124</ns3:hr>
            <ns3:cad>0</ns3:cad>
          </ns3:TrackPointExtension>
        </extensions>
      </trkpt>
      <trkpt lat="45.3200638107955455780029296875" lon="-70.93413881957530975341796875">
        <ele>657.20001220703125</ele>
        <time>2026-08-21T17:13:38.000Z</time>
        <extensions>
          <ns3:TrackPointExtension>
            <ns3:hr>124</ns3:hr>
            <ns3:cad>0</ns3:cad>
          </ns3:TrackPointExtension>
        </extensions>
      </trkpt>
      <trkpt lat="45.32007160596549510955810546875" lon="-70.9341651387512683868408203125">
        <ele>657.20001220703125</ele>
        <time>2026-08-21T17:13:39.000Z</time>
        <extensions>
          <ns3:TrackPointExtension>
            <ns3:hr>124</ns3:hr>
            <ns3:cad>0</ns3:cad>
          </ns3:TrackPointExtension>
        </extensions>
      </trkpt>
      <trkpt lat="45.3200782276690006256103515625" lon="-70.9341916255652904510498046875">
        <ele>657.20001220703125</ele>
        <time>2026-08-21T17:13:40.000Z</time>
        <extensions>
          <ns3:TrackPointExtension>
            <ns3:hr>125</ns3:hr>
            <ns3:cad>0</ns3:cad>
          </ns3:TrackPointExtension>
        </extensions>
      </trkpt>
      <trkpt lat="45.320081748068332672119140625" lon="-70.934208892285823822021484375">
        <ele>657.20001220703125</ele>
        <time>2026-08-21T17:13:41.000Z</time>
        <extensions>
          <ns3:TrackPointExtension>
            <ns3:hr>125</ns3:hr>
            <ns3:cad>0</ns3:cad>
          </ns3:TrackPointExtension>
        </extensions>
      </trkpt>
      <trkpt lat="45.3200882859528064727783203125" lon="-70.934229679405689239501953125">
        <ele>657.20001220703125</ele>
        <time>2026-08-21T17:13:42.000Z</time>
        <extensions>
          <ns3:TrackPointExtension>
            <ns3:hr>125</ns3:hr>
            <ns3:cad>0</ns3:cad>
          </ns3:TrackPointExtension>
        </extensions>
      </trkpt>
      <trkpt lat="45.3200909681618213653564453125" lon="-70.93425021506845951080322265625">
        <ele>657.20001220703125</ele>
        <time>2026-08-21T17:13:43.000Z</time>
        <extensions>
          <ns3:TrackPointExtension>
            <ns3:hr>125</ns3:hr>
            <ns3:cad>0</ns3:cad>
          </ns3:TrackPointExtension>
        </extensions>
      </trkpt>
      <trkpt lat="45.32009021379053592681884765625" lon="-70.934273265302181243896484375">
        <ele>657.20001220703125</ele>
        <time>2026-08-21T17:13:44.000Z</time>
        <extensions>
          <ns3:TrackPointExtension>
            <ns3:hr>126</ns3:hr>
            <ns3:cad>0</ns3:cad>
          </ns3:TrackPointExtension>
        </extensions>
      </trkpt>
      <trkpt lat="45.32009054906666278839111328125" lon="-70.93429128639400005340576171875">
        <ele>657.20001220703125</ele>
        <time>2026-08-21T17:13:45.000Z</time>
        <extensions>
          <ns3:TrackPointExtension>
            <ns3:hr>126</ns3:hr>
            <ns3:cad>0</ns3:cad>
          </ns3:TrackPointExtension>
        </extensions>
      </trkpt>
      <trkpt lat="45.32009306363761425018310546875" lon="-70.93431022949516773223876953125">
        <ele>657.20001220703125</ele>
        <time>2026-08-21T17:13:46.000Z</time>
        <extensions>
          <ns3:TrackPointExtension>
            <ns3:hr>127</ns3:hr>
            <ns3:cad>0</ns3:cad>
          </ns3:TrackPointExtension>
        </extensions>
      </trkpt>
      <trkpt lat="45.32009775750339031219482421875" lon="-70.93432389199733734130859375">
        <ele>657.20001220703125</ele>
        <time>2026-08-21T17:13:47.000Z</time>
        <extensions>
          <ns3:TrackPointExtension>
            <ns3:hr>128</ns3:hr>
            <ns3:cad>0</ns3:cad>
          </ns3:TrackPointExtension>
        </extensions>
      </trkpt>
      <trkpt lat="45.32010245136916637420654296875" lon="-70.93434543348848819732666015625">
        <ele>657.20001220703125</ele>
        <time>2026-08-21T17:13:48.000Z</time>
        <extensions>
          <ns3:TrackPointExtension>
            <ns3:hr>128</ns3:hr>
            <ns3:cad>0</ns3:cad>
          </ns3:TrackPointExtension>
        </extensions>
      </trkpt>
      <trkpt lat="45.32010932452976703643798828125" lon="-70.9343609400093555450439453125">
        <ele>657.20001220703125</ele>
        <time>2026-08-21T17:13:49.000Z</time>
        <extensions>
          <ns3:TrackPointExtension>
            <ns3:hr>128</ns3:hr>
            <ns3:cad>53</ns3:cad>
          </ns3:TrackPointExtension>
        </extensions>
      </trkpt>
      <trkpt lat="45.32011502422392368316650390625" lon="-70.93437544070184230804443359375">
        <ele>657.20001220703125</ele>
        <time>2026-08-21T17:13:50.000Z</time>
        <extensions>
          <ns3:TrackPointExtension>
            <ns3:hr>128</ns3:hr>
            <ns3:cad>0</ns3:cad>
          </ns3:TrackPointExtension>
        </extensions>
      </trkpt>
      <trkpt lat="45.3201218135654926300048828125" lon="-70.93439438380300998687744140625">
        <ele>657.20001220703125</ele>
        <time>2026-08-21T17:13:51.000Z</time>
        <extensions>
          <ns3:TrackPointExtension>
            <ns3:hr>128</ns3:hr>
            <ns3:cad>0</ns3:cad>
          </ns3:TrackPointExtension>
        </extensions>
      </trkpt>
      <trkpt lat="45.3201308660209178924560546875" lon="-70.93441869132220745086669921875">
        <ele>657.20001220703125</ele>
        <time>2026-08-21T17:13:52.000Z</time>
        <extensions>
          <ns3:TrackPointExtension>
            <ns3:hr>129</ns3:hr>
            <ns3:cad>0</ns3:cad>
          </ns3:TrackPointExtension>
        </extensions>
      </trkpt>
      <trkpt lat="45.32013664953410625457763671875" lon="-70.93443729914724826812744140625">
        <ele>657.4000244140625</ele>
        <time>2026-08-21T17:13:53.000Z</time>
        <extensions>
          <ns3:TrackPointExtension>
            <ns3:hr>129</ns3:hr>
            <ns3:cad>0</ns3:cad>
          </ns3:TrackPointExtension>
        </extensions>
      </trkpt>
      <trkpt lat="45.32014737837016582489013671875" lon="-70.93446210958063602447509765625">
        <ele>657.4000244140625</ele>
        <time>2026-08-21T17:13:54.000Z</time>
        <extensions>
          <ns3:TrackPointExtension>
            <ns3:hr>129</ns3:hr>
            <ns3:cad>0</ns3:cad>
          </ns3:TrackPointExtension>
        </extensions>
      </trkpt>
      <trkpt lat="45.32015676610171794891357421875" lon="-70.93448205851018428802490234375">
        <ele>657.4000244140625</ele>
        <time>2026-08-21T17:13:55.000Z</time>
        <extensions>
          <ns3:TrackPointExtension>
            <ns3:hr>130</ns3:hr>
            <ns3:cad>0</ns3:cad>
          </ns3:TrackPointExtension>
        </extensions>
      </trkpt>
      <trkpt lat="45.32016523182392120361328125" lon="-70.93449681065976619720458984375">
        <ele>657.4000244140625</ele>
        <time>2026-08-21T17:13:56.000Z</time>
        <extensions>
          <ns3:TrackPointExtension>
            <ns3:hr>130</ns3:hr>
            <ns3:cad>0</ns3:cad>
          </ns3:TrackPointExtension>
        </extensions>
      </trkpt>
      <trkpt lat="45.320174954831600189208984375" lon="-70.93451835215091705322265625">
        <ele>657.4000244140625</ele>
        <time>2026-08-21T17:13:57.000Z</time>
        <extensions>
          <ns3:TrackPointExtension>
            <ns3:hr>130</ns3:hr>
            <ns3:cad>0</ns3:cad>
          </ns3:TrackPointExtension>
        </extensions>
      </trkpt>
      <trkpt lat="45.32018710859119892120361328125" lon="-70.93453989364206790924072265625">
        <ele>657.4000244140625</ele>
        <time>2026-08-21T17:13:58.000Z</time>
        <extensions>
          <ns3:TrackPointExtension>
            <ns3:hr>129</ns3:hr>
            <ns3:cad>0</ns3:cad>
          </ns3:TrackPointExtension>
        </extensions>
      </trkpt>
      <trkpt lat="45.3201952390372753143310546875" lon="-70.93455699272453784942626953125">
        <ele>657.4000244140625</ele>
        <time>2026-08-21T17:13:59.000Z</time>
        <extensions>
          <ns3:TrackPointExtension>
            <ns3:hr>128</ns3:hr>
            <ns3:cad>62</ns3:cad>
          </ns3:TrackPointExtension>
        </extensions>
      </trkpt>
      <trkpt lat="45.32020018436014652252197265625" lon="-70.93457476235926151275634765625">
        <ele>657.4000244140625</ele>
        <time>2026-08-21T17:14:00.000Z</time>
        <extensions>
          <ns3:TrackPointExtension>
            <ns3:hr>128</ns3:hr>
            <ns3:cad>62</ns3:cad>
          </ns3:TrackPointExtension>
        </extensions>
      </trkpt>
      <trkpt lat="45.3201989270746707916259765625" lon="-70.934585742652416229248046875">
        <ele>657.4000244140625</ele>
        <time>2026-08-21T17:14:01.000Z</time>
        <extensions>
          <ns3:TrackPointExtension>
            <ns3:hr>127</ns3:hr>
            <ns3:cad>62</ns3:cad>
          </ns3:TrackPointExtension>
        </extensions>
      </trkpt>
      <trkpt lat="45.32019582577049732208251953125" lon="-70.93460057862102985382080078125">
        <ele>657.5999755859375</ele>
        <time>2026-08-21T17:14:02.000Z</time>
        <extensions>
          <ns3:TrackPointExtension>
            <ns3:hr>127</ns3:hr>
            <ns3:cad>62</ns3:cad>
          </ns3:TrackPointExtension>
        </extensions>
      </trkpt>
      <trkpt lat="45.32018593512475490570068359375" lon="-70.93461348675191402435302734375">
        <ele>657.5999755859375</ele>
        <time>2026-08-21T17:14:03.000Z</time>
        <extensions>
          <ns3:TrackPointExtension>
            <ns3:hr>127</ns3:hr>
            <ns3:cad>62</ns3:cad>
          </ns3:TrackPointExtension>
        </extensions>
      </trkpt>
      <trkpt lat="45.3201806545257568359375" lon="-70.93462203629314899444580078125">
        <ele>657.5999755859375</ele>
        <time>2026-08-21T17:14:04.000Z</time>
        <extensions>
          <ns3:TrackPointExtension>
            <ns3:hr>127</ns3:hr>
            <ns3:cad>0</ns3:cad>
          </ns3:TrackPointExtension>
        </extensions>
      </trkpt>
      <trkpt lat="45.3201764635741710662841796875" lon="-70.93462765216827392578125">
        <ele>657.5999755859375</ele>
        <time>2026-08-21T17:14:05.000Z</time>
        <extensions>
          <ns3:TrackPointExtension>
            <ns3:hr>127</ns3:hr>
            <ns3:cad>0</ns3:cad>
          </ns3:TrackPointExtension>
        </extensions>
      </trkpt>
      <trkpt lat="45.3201684169471263885498046875" lon="-70.93463963828980922698974609375">
        <ele>657.5999755859375</ele>
        <time>2026-08-21T17:14:06.000Z</time>
        <extensions>
          <ns3:TrackPointExtension>
            <ns3:hr>128</ns3:hr>
            <ns3:cad>0</ns3:cad>
          </ns3:TrackPointExtension>
        </extensions>
      </trkpt>
      <trkpt lat="45.32016414217650890350341796875" lon="-70.93464667908847332000732421875">
        <ele>657.5999755859375</ele>
        <time>2026-08-21T17:14:07.000Z</time>
        <extensions>
          <ns3:TrackPointExtension>
            <ns3:hr>128</ns3:hr>
            <ns3:cad>0</ns3:cad>
          </ns3:TrackPointExtension>
        </extensions>
      </trkpt>
      <trkpt lat="45.320156179368495941162109375" lon="-70.9346596710383892059326171875">
        <ele>657.5999755859375</ele>
        <time>2026-08-21T17:14:08.000Z</time>
        <extensions>
          <ns3:TrackPointExtension>
            <ns3:hr>128</ns3:hr>
            <ns3:cad>0</ns3:cad>
          </ns3:TrackPointExtension>
        </extensions>
      </trkpt>
      <trkpt lat="45.3201516531407833099365234375" lon="-70.934670232236385345458984375">
        <ele>657.5999755859375</ele>
        <time>2026-08-21T17:14:09.000Z</time>
        <extensions>
          <ns3:TrackPointExtension>
            <ns3:hr>128</ns3:hr>
            <ns3:cad>0</ns3:cad>
          </ns3:TrackPointExtension>
        </extensions>
      </trkpt>
      <trkpt lat="45.32015274278819561004638671875" lon="-70.93468724749982357025146484375">
        <ele>657.5999755859375</ele>
        <time>2026-08-21T17:14:10.000Z</time>
        <extensions>
          <ns3:TrackPointExtension>
            <ns3:hr>128</ns3:hr>
            <ns3:cad>0</ns3:cad>
          </ns3:TrackPointExtension>
        </extensions>
      </trkpt>
      <trkpt lat="45.32014939002692699432373046875" lon="-70.93470015563070774078369140625">
        <ele>657.79998779296875</ele>
        <time>2026-08-21T17:14:11.000Z</time>
        <extensions>
          <ns3:TrackPointExtension>
            <ns3:hr>128</ns3:hr>
            <ns3:cad>0</ns3:cad>
          </ns3:TrackPointExtension>
        </extensions>
      </trkpt>
      <trkpt lat="45.32014687545597553253173828125" lon="-70.93471147119998931884765625">
        <ele>657.79998779296875</ele>
        <time>2026-08-21T17:14:12.000Z</time>
        <extensions>
          <ns3:TrackPointExtension>
            <ns3:hr>129</ns3:hr>
            <ns3:cad>50</ns3:cad>
          </ns3:TrackPointExtension>
        </extensions>
      </trkpt>
      <trkpt lat="45.32014385797083377838134765625" lon="-70.93471976928412914276123046875">
        <ele>657.79998779296875</ele>
        <time>2026-08-21T17:14:13.000Z</time>
        <extensions>
          <ns3:TrackPointExtension>
            <ns3:hr>128</ns3:hr>
            <ns3:cad>50</ns3:cad>
          </ns3:TrackPointExtension>
        </extensions>
      </trkpt>
      <trkpt lat="45.3201365657150745391845703125" lon="-70.93473485670983791351318359375">
        <ele>658</ele>
        <time>2026-08-21T17:14:14.000Z</time>
        <extensions>
          <ns3:TrackPointExtension>
            <ns3:hr>128</ns3:hr>
            <ns3:cad>50</ns3:cad>
          </ns3:TrackPointExtension>
        </extensions>
      </trkpt>
      <trkpt lat="45.32012508250772953033447265625" lon="-70.9347491897642612457275390625">
        <ele>658</ele>
        <time>2026-08-21T17:14:15.000Z</time>
        <extensions>
          <ns3:TrackPointExtension>
            <ns3:hr>128</ns3:hr>
            <ns3:cad>53</ns3:cad>
          </ns3:TrackPointExtension>
        </extensions>
      </trkpt>
      <trkpt lat="45.32011418603360652923583984375" lon="-70.93475463800132274627685546875">
        <ele>658</ele>
        <time>2026-08-21T17:14:16.000Z</time>
        <extensions>
          <ns3:TrackPointExtension>
            <ns3:hr>128</ns3:hr>
            <ns3:cad>53</ns3:cad>
          </ns3:TrackPointExtension>
        </extensions>
      </trkpt>
      <trkpt lat="45.320108234882354736328125" lon="-70.9347723238170146942138671875">
        <ele>658</ele>
        <time>2026-08-21T17:14:17.000Z</time>
        <extensions>
          <ns3:TrackPointExtension>
            <ns3:hr>128</ns3:hr>
            <ns3:cad>53</ns3:cad>
          </ns3:TrackPointExtension>
        </extensions>
      </trkpt>
      <trkpt lat="45.32010613940656185150146484375" lon="-70.93479084782302379608154296875">
        <ele>658.20001220703125</ele>
        <time>2026-08-21T17:14:18.000Z</time>
        <extensions>
          <ns3:TrackPointExtension>
            <ns3:hr>128</ns3:hr>
            <ns3:cad>53</ns3:cad>
          </ns3:TrackPointExtension>
        </extensions>
      </trkpt>
      <trkpt lat="45.32010194845497608184814453125" lon="-70.9348132275044918060302734375">
        <ele>658.20001220703125</ele>
        <time>2026-08-21T17:14:19.000Z</time>
        <extensions>
          <ns3:TrackPointExtension>
            <ns3:hr>127</ns3:hr>
            <ns3:cad>53</ns3:cad>
          </ns3:TrackPointExtension>
        </extensions>
      </trkpt>
      <trkpt lat="45.32009105198085308074951171875" lon="-70.9348333440721035003662109375">
        <ele>658.4000244140625</ele>
        <time>2026-08-21T17:14:20.000Z</time>
        <extensions>
          <ns3:TrackPointExtension>
            <ns3:hr>128</ns3:hr>
            <ns3:cad>53</ns3:cad>
          </ns3:TrackPointExtension>
        </extensions>
      </trkpt>
      <trkpt lat="45.320075042545795440673828125" lon="-70.93484616838395595550537109375">
        <ele>658.4000244140625</ele>
        <time>2026-08-21T17:14:21.000Z</time>
        <extensions>
          <ns3:TrackPointExtension>
            <ns3:hr>128</ns3:hr>
            <ns3:cad>53</ns3:cad>
          </ns3:TrackPointExtension>
        </extensions>
      </trkpt>
      <trkpt lat="45.32006188295781612396240234375" lon="-70.93485455028712749481201171875">
        <ele>658.4000244140625</ele>
        <time>2026-08-21T17:14:22.000Z</time>
        <extensions>
          <ns3:TrackPointExtension>
            <ns3:hr>128</ns3:hr>
            <ns3:cad>52</ns3:cad>
          </ns3:TrackPointExtension>
        </extensions>
      </trkpt>
      <trkpt lat="45.320054255425930023193359375" lon="-70.93486930243670940399169921875">
        <ele>658.4000244140625</ele>
        <time>2026-08-21T17:14:23.000Z</time>
        <extensions>
          <ns3:TrackPointExtension>
            <ns3:hr>128</ns3:hr>
            <ns3:cad>52</ns3:cad>
          </ns3:TrackPointExtension>
        </extensions>
      </trkpt>
      <trkpt lat="45.3200490586459636688232421875" lon="-70.934877097606658935546875">
        <ele>658.4000244140625</ele>
        <time>2026-08-21T17:14:24.000Z</time>
        <extensions>
          <ns3:TrackPointExtension>
            <ns3:hr>128</ns3:hr>
            <ns3:cad>52</ns3:cad>
          </ns3:TrackPointExtension>
        </extensions>
      </trkpt>
      <trkpt lat="45.32004629261791706085205078125" lon="-70.93488472513854503631591796875">
        <ele>658.4000244140625</ele>
        <time>2026-08-21T17:14:25.000Z</time>
        <extensions>
          <ns3:TrackPointExtension>
            <ns3:hr>128</ns3:hr>
            <ns3:cad>52</ns3:cad>
          </ns3:TrackPointExtension>
        </extensions>
      </trkpt>
      <trkpt lat="45.320044867694377899169921875" lon="-70.934892185032367706298828125">
        <ele>658.5999755859375</ele>
        <time>2026-08-21T17:14:26.000Z</time>
        <extensions>
          <ns3:TrackPointExtension>
            <ns3:hr>128</ns3:hr>
            <ns3:cad>52</ns3:cad>
          </ns3:TrackPointExtension>
        </extensions>
      </trkpt>
      <trkpt lat="45.320043526589870452880859375" lon="-70.93490567989647388458251953125">
        <ele>658.79998779296875</ele>
        <time>2026-08-21T17:14:27.000Z</time>
        <extensions>
          <ns3:TrackPointExtension>
            <ns3:hr>127</ns3:hr>
            <ns3:cad>56</ns3:cad>
          </ns3:TrackPointExtension>
        </extensions>
      </trkpt>
      <trkpt lat="45.320038162171840667724609375" lon="-70.93491724692285060882568359375">
        <ele>659</ele>
        <time>2026-08-21T17:14:28.000Z</time>
        <extensions>
          <ns3:TrackPointExtension>
            <ns3:hr>128</ns3:hr>
            <ns3:cad>56</ns3:cad>
          </ns3:TrackPointExtension>
        </extensions>
      </trkpt>
      <trkpt lat="45.32003573141992092132568359375" lon="-70.93492898158729076385498046875">
        <ele>659.20001220703125</ele>
        <time>2026-08-21T17:14:29.000Z</time>
        <extensions>
          <ns3:TrackPointExtension>
            <ns3:hr>128</ns3:hr>
            <ns3:cad>56</ns3:cad>
          </ns3:TrackPointExtension>
        </extensions>
      </trkpt>
      <trkpt lat="45.3200346417725086212158203125" lon="-70.93493920750916004180908203125">
        <ele>659.4000244140625</ele>
        <time>2026-08-21T17:14:30.000Z</time>
        <extensions>
          <ns3:TrackPointExtension>
            <ns3:hr>128</ns3:hr>
            <ns3:cad>0</ns3:cad>
          </ns3:TrackPointExtension>
        </extensions>
      </trkpt>
      <trkpt lat="45.3200336359441280364990234375" lon="-70.93494859524071216583251953125">
        <ele>659.5999755859375</ele>
        <time>2026-08-21T17:14:31.000Z</time>
        <extensions>
          <ns3:TrackPointExtension>
            <ns3:hr>128</ns3:hr>
            <ns3:cad>0</ns3:cad>
          </ns3:TrackPointExtension>
        </extensions>
      </trkpt>
      <trkpt lat="45.32002919353544712066650390625" lon="-70.93495882116258144378662109375">
        <ele>659.79998779296875</ele>
        <time>2026-08-21T17:14:32.000Z</time>
        <extensions>
          <ns3:TrackPointExtension>
            <ns3:hr>127</ns3:hr>
            <ns3:cad>0</ns3:cad>
          </ns3:TrackPointExtension>
        </extensions>
      </trkpt>
      <trkpt lat="45.3200296126306056976318359375" lon="-70.934976004064083099365234375">
        <ele>660.20001220703125</ele>
        <time>2026-08-21T17:14:33.000Z</time>
        <extensions>
          <ns3:TrackPointExtension>
            <ns3:hr>128</ns3:hr>
            <ns3:cad>0</ns3:cad>
          </ns3:TrackPointExtension>
        </extensions>
      </trkpt>
      <trkpt lat="45.32002550549805164337158203125" lon="-70.93499134294688701629638671875">
        <ele>660.4000244140625</ele>
        <time>2026-08-21T17:14:34.000Z</time>
        <extensions>
          <ns3:TrackPointExtension>
            <ns3:hr>128</ns3:hr>
            <ns3:cad>0</ns3:cad>
          </ns3:TrackPointExtension>
        </extensions>
      </trkpt>
      <trkpt lat="45.3200165368616580963134765625" lon="-70.935000479221343994140625">
        <ele>660.5999755859375</ele>
        <time>2026-08-21T17:14:35.000Z</time>
        <extensions>
          <ns3:TrackPointExtension>
            <ns3:hr>128</ns3:hr>
            <ns3:cad>0</ns3:cad>
          </ns3:TrackPointExtension>
        </extensions>
      </trkpt>
      <trkpt lat="45.32000689767301082611083984375" lon="-70.93501213006675243377685546875">
        <ele>661</ele>
        <time>2026-08-21T17:14:36.000Z</time>
        <extensions>
          <ns3:TrackPointExtension>
            <ns3:hr>128</ns3:hr>
            <ns3:cad>0</ns3:cad>
          </ns3:TrackPointExtension>
        </extensions>
      </trkpt>
      <trkpt lat="45.32000287435948848724365234375" lon="-70.935023613274097442626953125">
        <ele>661.20001220703125</ele>
        <time>2026-08-21T17:14:37.000Z</time>
        <extensions>
          <ns3:TrackPointExtension>
            <ns3:hr>128</ns3:hr>
            <ns3:cad>0</ns3:cad>
          </ns3:TrackPointExtension>
        </extensions>
      </trkpt>
      <trkpt lat="45.319999270141124725341796875" lon="-70.93503459356725215911865234375">
        <ele>661.4000244140625</ele>
        <time>2026-08-21T17:14:38.000Z</time>
        <extensions>
          <ns3:TrackPointExtension>
            <ns3:hr>128</ns3:hr>
            <ns3:cad>0</ns3:cad>
          </ns3:TrackPointExtension>
        </extensions>
      </trkpt>
      <trkpt lat="45.31999382190406322479248046875" lon="-70.93504766933619976043701171875">
        <ele>661.5999755859375</ele>
        <time>2026-08-21T17:14:39.000Z</time>
        <extensions>
          <ns3:TrackPointExtension>
            <ns3:hr>129</ns3:hr>
            <ns3:cad>0</ns3:cad>
          </ns3:TrackPointExtension>
        </extensions>
      </trkpt>
      <trkpt lat="45.31998711638152599334716796875" lon="-70.9350613318383693695068359375">
        <ele>661.79998779296875</ele>
        <time>2026-08-21T17:14:40.000Z</time>
        <extensions>
          <ns3:TrackPointExtension>
            <ns3:hr>128</ns3:hr>
            <ns3:cad>0</ns3:cad>
          </ns3:TrackPointExtension>
        </extensions>
      </trkpt>
      <trkpt lat="45.31998686492443084716796875" lon="-70.9350794367492198944091796875">
        <ele>662.20001220703125</ele>
        <time>2026-08-21T17:14:41.000Z</time>
        <extensions>
          <ns3:TrackPointExtension>
            <ns3:hr>129</ns3:hr>
            <ns3:cad>53</ns3:cad>
          </ns3:TrackPointExtension>
        </extensions>
      </trkpt>
      <trkpt lat="45.3199866972863674163818359375" lon="-70.93509444035589694976806640625">
        <ele>662.4000244140625</ele>
        <time>2026-08-21T17:14:42.000Z</time>
        <extensions>
          <ns3:TrackPointExtension>
            <ns3:hr>129</ns3:hr>
            <ns3:cad>53</ns3:cad>
          </ns3:TrackPointExtension>
        </extensions>
      </trkpt>
      <trkpt lat="45.31998544000089168548583984375" lon="-70.9351039119064807891845703125">
        <ele>662.79998779296875</ele>
        <time>2026-08-21T17:14:43.000Z</time>
        <extensions>
          <ns3:TrackPointExtension>
            <ns3:hr>129</ns3:hr>
            <ns3:cad>53</ns3:cad>
          </ns3:TrackPointExtension>
        </extensions>
      </trkpt>
      <trkpt lat="45.31998761929571628570556640625" lon="-70.9351156465709209442138671875">
        <ele>663</ele>
        <time>2026-08-21T17:14:44.000Z</time>
        <extensions>
          <ns3:TrackPointExtension>
            <ns3:hr>129</ns3:hr>
            <ns3:cad>49</ns3:cad>
          </ns3:TrackPointExtension>
        </extensions>
      </trkpt>
      <trkpt lat="45.319990217685699462890625" lon="-70.93512780033051967620849609375">
        <ele>663.20001220703125</ele>
        <time>2026-08-21T17:14:45.000Z</time>
        <extensions>
          <ns3:TrackPointExtension>
            <ns3:hr>129</ns3:hr>
            <ns3:cad>49</ns3:cad>
          </ns3:TrackPointExtension>
        </extensions>
      </trkpt>
      <trkpt lat="45.3199870325624942779541015625" lon="-70.93514330685138702392578125">
        <ele>663.4000244140625</ele>
        <time>2026-08-21T17:14:46.000Z</time>
        <extensions>
          <ns3:TrackPointExtension>
            <ns3:hr>129</ns3:hr>
            <ns3:cad>47</ns3:cad>
          </ns3:TrackPointExtension>
        </extensions>
      </trkpt>
      <trkpt lat="45.3199843503534793853759765625" lon="-70.935148335993289947509765625">
        <ele>663.5999755859375</ele>
        <time>2026-08-21T17:14:47.000Z</time>
        <extensions>
          <ns3:TrackPointExtension>
            <ns3:hr>129</ns3:hr>
            <ns3:cad>47</ns3:cad>
          </ns3:TrackPointExtension>
        </extensions>
      </trkpt>
      <trkpt lat="45.31998326070606708526611328125" lon="-70.93515663407742977142333984375">
        <ele>663.79998779296875</ele>
        <time>2026-08-21T17:14:48.000Z</time>
        <extensions>
          <ns3:TrackPointExtension>
            <ns3:hr>129</ns3:hr>
            <ns3:cad>47</ns3:cad>
          </ns3:TrackPointExtension>
        </extensions>
      </trkpt>
      <trkpt lat="45.31997621990740299224853515625" lon="-70.93516920693218708038330078125">
        <ele>664</ele>
        <time>2026-08-21T17:14:49.000Z</time>
        <extensions>
          <ns3:TrackPointExtension>
            <ns3:hr>130</ns3:hr>
            <ns3:cad>47</ns3:cad>
          </ns3:TrackPointExtension>
        </extensions>
      </trkpt>
      <trkpt lat="45.3199746273458003997802734375" lon="-70.93518680892884731292724609375">
        <ele>664.4000244140625</ele>
        <time>2026-08-21T17:14:50.000Z</time>
        <extensions>
          <ns3:TrackPointExtension>
            <ns3:hr>131</ns3:hr>
            <ns3:cad>47</ns3:cad>
          </ns3:TrackPointExtension>
        </extensions>
      </trkpt>
      <trkpt lat="45.31997303478419780731201171875" lon="-70.93519820831716060638427734375">
        <ele>664.5999755859375</ele>
        <time>2026-08-21T17:14:51.000Z</time>
        <extensions>
          <ns3:TrackPointExtension>
            <ns3:hr>132</ns3:hr>
            <ns3:cad>49</ns3:cad>
          </ns3:TrackPointExtension>
        </extensions>
      </trkpt>
      <trkpt lat="45.319973118603229522705078125" lon="-70.93521346338093280792236328125">
        <ele>664.79998779296875</ele>
        <time>2026-08-21T17:14:52.000Z</time>
        <extensions>
          <ns3:TrackPointExtension>
            <ns3:hr>135</ns3:hr>
            <ns3:cad>49</ns3:cad>
          </ns3:TrackPointExtension>
        </extensions>
      </trkpt>
      <trkpt lat="45.31997387297451496124267578125" lon="-70.93522687442600727081298828125">
        <ele>665</ele>
        <time>2026-08-21T17:14:53.000Z</time>
        <extensions>
          <ns3:TrackPointExtension>
            <ns3:hr>136</ns3:hr>
            <ns3:cad>49</ns3:cad>
          </ns3:TrackPointExtension>
        </extensions>
      </trkpt>
      <trkpt lat="45.31997119076550006866455078125" lon="-70.93523743562400341033935546875">
        <ele>665.20001220703125</ele>
        <time>2026-08-21T17:14:54.000Z</time>
        <extensions>
          <ns3:TrackPointExtension>
            <ns3:hr>137</ns3:hr>
            <ns3:cad>45</ns3:cad>
          </ns3:TrackPointExtension>
        </extensions>
      </trkpt>
      <trkpt lat="45.31996817328035831451416015625" lon="-70.935242213308811187744140625">
        <ele>665.4000244140625</ele>
        <time>2026-08-21T17:14:55.000Z</time>
        <extensions>
          <ns3:TrackPointExtension>
            <ns3:hr>138</ns3:hr>
            <ns3:cad>45</ns3:cad>
          </ns3:TrackPointExtension>
        </extensions>
      </trkpt>
      <trkpt lat="45.3199655748903751373291015625" lon="-70.9352432191371917724609375">
        <ele>665.79998779296875</ele>
        <time>2026-08-21T17:14:56.000Z</time>
        <extensions>
          <ns3:TrackPointExtension>
            <ns3:hr>139</ns3:hr>
            <ns3:cad>45</ns3:cad>
          </ns3:TrackPointExtension>
        </extensions>
      </trkpt>
      <trkpt lat="45.31996482051908969879150390625" lon="-70.93524849973618984222412109375">
        <ele>666</ele>
        <time>2026-08-21T17:14:57.000Z</time>
        <extensions>
          <ns3:TrackPointExtension>
            <ns3:hr>139</ns3:hr>
            <ns3:cad>45</ns3:cad>
          </ns3:TrackPointExtension>
        </extensions>
      </trkpt>
      <trkpt lat="45.3199625574052333831787109375" lon="-70.93525654636323451995849609375">
        <ele>666.4000244140625</ele>
        <time>2026-08-21T17:14:58.000Z</time>
        <extensions>
          <ns3:TrackPointExtension>
            <ns3:hr>140</ns3:hr>
            <ns3:cad>45</ns3:cad>
          </ns3:TrackPointExtension>
        </extensions>
      </trkpt>
      <trkpt lat="45.31996314413845539093017578125" lon="-70.93526291660964488983154296875">
        <ele>666.5999755859375</ele>
        <time>2026-08-21T17:14:59.000Z</time>
        <extensions>
          <ns3:TrackPointExtension>
            <ns3:hr>141</ns3:hr>
            <ns3:cad>45</ns3:cad>
          </ns3:TrackPointExtension>
        </extensions>
      </trkpt>
      <trkpt lat="45.3199588693678379058837890625" lon="-70.9352779202163219451904296875">
        <ele>666.79998779296875</ele>
        <time>2026-08-21T17:15:00.000Z</time>
        <extensions>
          <ns3:TrackPointExtension>
            <ns3:hr>142</ns3:hr>
            <ns3:cad>45</ns3:cad>
          </ns3:TrackPointExtension>
        </extensions>
      </trkpt>
      <trkpt lat="45.3199568577110767364501953125" lon="-70.93528470955789089202880859375">
        <ele>667</ele>
        <time>2026-08-21T17:15:01.000Z</time>
        <extensions>
          <ns3:TrackPointExtension>
            <ns3:hr>143</ns3:hr>
            <ns3:cad>45</ns3:cad>
          </ns3:TrackPointExtension>
        </extensions>
      </trkpt>
      <trkpt lat="45.319958031177520751953125" lon="-70.93528957106173038482666015625">
        <ele>667</ele>
        <time>2026-08-21T17:15:02.000Z</time>
        <extensions>
          <ns3:TrackPointExtension>
            <ns3:hr>143</ns3:hr>
            <ns3:cad>0</ns3:cad>
          </ns3:TrackPointExtension>
        </extensions>
      </trkpt>
      <trkpt lat="45.31995601952075958251953125" lon="-70.93530314974486827850341796875">
        <ele>667.20001220703125</ele>
        <time>2026-08-21T17:15:03.000Z</time>
        <extensions>
          <ns3:TrackPointExtension>
            <ns3:hr>144</ns3:hr>
            <ns3:cad>0</ns3:cad>
          </ns3:TrackPointExtension>
        </extensions>
      </trkpt>
      <trkpt lat="45.31995199620723724365234375" lon="-70.9353181533515453338623046875">
        <ele>667.4000244140625</ele>
        <time>2026-08-21T17:15:04.000Z</time>
        <extensions>
          <ns3:TrackPointExtension>
            <ns3:hr>144</ns3:hr>
            <ns3:cad>0</ns3:cad>
          </ns3:TrackPointExtension>
        </extensions>
      </trkpt>
      <trkpt lat="45.3199504874646663665771484375" lon="-70.93532628379762172698974609375">
        <ele>667.79998779296875</ele>
        <time>2026-08-21T17:15:05.000Z</time>
        <extensions>
          <ns3:TrackPointExtension>
            <ns3:hr>143</ns3:hr>
            <ns3:cad>0</ns3:cad>
          </ns3:TrackPointExtension>
        </extensions>
      </trkpt>
      <trkpt lat="45.31994503922760486602783203125" lon="-70.93534371815621852874755859375">
        <ele>668</ele>
        <time>2026-08-21T17:15:06.000Z</time>
        <extensions>
          <ns3:TrackPointExtension>
            <ns3:hr>144</ns3:hr>
            <ns3:cad>0</ns3:cad>
          </ns3:TrackPointExtension>
        </extensions>
      </trkpt>
      <trkpt lat="45.31994269229471683502197265625" lon="-70.9353558719158172607421875">
        <ele>668.20001220703125</ele>
        <time>2026-08-21T17:15:07.000Z</time>
        <extensions>
          <ns3:TrackPointExtension>
            <ns3:hr>144</ns3:hr>
            <ns3:cad>0</ns3:cad>
          </ns3:TrackPointExtension>
        </extensions>
      </trkpt>
      <trkpt lat="45.319944955408573150634765625" lon="-70.93537171371281147003173828125">
        <ele>668.4000244140625</ele>
        <time>2026-08-21T17:15:08.000Z</time>
        <extensions>
          <ns3:TrackPointExtension>
            <ns3:hr>145</ns3:hr>
            <ns3:cad>0</ns3:cad>
          </ns3:TrackPointExtension>
        </extensions>
      </trkpt>
      <trkpt lat="45.31994839198887348175048828125" lon="-70.93538730405271053314208984375">
        <ele>668.5999755859375</ele>
        <time>2026-08-21T17:15:09.000Z</time>
        <extensions>
          <ns3:TrackPointExtension>
            <ns3:hr>145</ns3:hr>
            <ns3:cad>0</ns3:cad>
          </ns3:TrackPointExtension>
        </extensions>
      </trkpt>
      <trkpt lat="45.31994906254112720489501953125" lon="-70.9353999607264995574951171875">
        <ele>668.79998779296875</ele>
        <time>2026-08-21T17:15:10.000Z</time>
        <extensions>
          <ns3:TrackPointExtension>
            <ns3:hr>145</ns3:hr>
            <ns3:cad>0</ns3:cad>
          </ns3:TrackPointExtension>
        </extensions>
      </trkpt>
      <trkpt lat="45.31994998455047607421875" lon="-70.935409851372241973876953125">
        <ele>669</ele>
        <time>2026-08-21T17:15:11.000Z</time>
        <extensions>
          <ns3:TrackPointExtension>
            <ns3:hr>146</ns3:hr>
            <ns3:cad>0</ns3:cad>
          </ns3:TrackPointExtension>
        </extensions>
      </trkpt>
      <trkpt lat="45.31995107419788837432861328125" lon="-70.9354173950850963592529296875">
        <ele>669.20001220703125</ele>
        <time>2026-08-21T17:15:12.000Z</time>
        <extensions>
          <ns3:TrackPointExtension>
            <ns3:hr>145</ns3:hr>
            <ns3:cad>0</ns3:cad>
          </ns3:TrackPointExtension>
        </extensions>
      </trkpt>
      <trkpt lat="45.31995467841625213623046875" lon="-70.93542468734085559844970703125">
        <ele>669.4000244140625</ele>
        <time>2026-08-21T17:15:13.000Z</time>
        <extensions>
          <ns3:TrackPointExtension>
            <ns3:hr>145</ns3:hr>
            <ns3:cad>0</ns3:cad>
          </ns3:TrackPointExtension>
        </extensions>
      </trkpt>
      <trkpt lat="45.3199615515768527984619140625" lon="-70.9354401938617229461669921875">
        <ele>669.5999755859375</ele>
        <time>2026-08-21T17:15:14.000Z</time>
        <extensions>
          <ns3:TrackPointExtension>
            <ns3:hr>146</ns3:hr>
            <ns3:cad>0</ns3:cad>
          </ns3:TrackPointExtension>
        </extensions>
      </trkpt>
      <trkpt lat="45.3199665807187557220458984375" lon="-70.93543591909110546112060546875">
        <ele>669.79998779296875</ele>
        <time>2026-08-21T17:15:15.000Z</time>
        <extensions>
          <ns3:TrackPointExtension>
            <ns3:hr>146</ns3:hr>
            <ns3:cad>0</ns3:cad>
          </ns3:TrackPointExtension>
        </extensions>
      </trkpt>
      <trkpt lat="45.3199732862412929534912109375" lon="-70.93543826602399349212646484375">
        <ele>669.79998779296875</ele>
        <time>2026-08-21T17:15:16.000Z</time>
        <extensions>
          <ns3:TrackPointExtension>
            <ns3:hr>146</ns3:hr>
            <ns3:cad>0</ns3:cad>
          </ns3:TrackPointExtension>
        </extensions>
      </trkpt>
      <trkpt lat="45.3199776448309421539306640625" lon="-70.9354401938617229461669921875">
        <ele>670</ele>
        <time>2026-08-21T17:15:17.000Z</time>
        <extensions>
          <ns3:TrackPointExtension>
            <ns3:hr>146</ns3:hr>
            <ns3:cad>0</ns3:cad>
          </ns3:TrackPointExtension>
        </extensions>
      </trkpt>
      <trkpt lat="45.3199846856296062469482421875" lon="-70.93544145114719867706298828125">
        <ele>670.20001220703125</ele>
        <time>2026-08-21T17:15:18.000Z</time>
        <extensions>
          <ns3:TrackPointExtension>
            <ns3:hr>146</ns3:hr>
            <ns3:cad>0</ns3:cad>
          </ns3:TrackPointExtension>
        </extensions>
      </trkpt>
      <trkpt lat="45.319987200200557708740234375" lon="-70.935443378984928131103515625">
        <ele>670.4000244140625</ele>
        <time>2026-08-21T17:15:19.000Z</time>
        <extensions>
          <ns3:TrackPointExtension>
            <ns3:hr>147</ns3:hr>
            <ns3:cad>0</ns3:cad>
          </ns3:TrackPointExtension>
        </extensions>
      </trkpt>
      <trkpt lat="45.31999214552342891693115234375" lon="-70.9354445524513721466064453125">
        <ele>670.5999755859375</ele>
        <time>2026-08-21T17:15:20.000Z</time>
        <extensions>
          <ns3:TrackPointExtension>
            <ns3:hr>146</ns3:hr>
            <ns3:cad>0</ns3:cad>
          </ns3:TrackPointExtension>
        </extensions>
      </trkpt>
      <trkpt lat="45.3199974261224269866943359375" lon="-70.93544782139360904693603515625">
        <ele>670.79998779296875</ele>
        <time>2026-08-21T17:15:21.000Z</time>
        <extensions>
          <ns3:TrackPointExtension>
            <ns3:hr>146</ns3:hr>
            <ns3:cad>42</ns3:cad>
          </ns3:TrackPointExtension>
        </extensions>
      </trkpt>
      <trkpt lat="45.32000371254980564117431640625" lon="-70.93545201234519481658935546875">
        <ele>671.20001220703125</ele>
        <time>2026-08-21T17:15:22.000Z</time>
        <extensions>
          <ns3:TrackPointExtension>
            <ns3:hr>146</ns3:hr>
            <ns3:cad>42</ns3:cad>
          </ns3:TrackPointExtension>
        </extensions>
      </trkpt>
      <trkpt lat="45.32001008279621601104736328125" lon="-70.93545318581163883209228515625">
        <ele>671.4000244140625</ele>
        <time>2026-08-21T17:15:23.000Z</time>
        <extensions>
          <ns3:TrackPointExtension>
            <ns3:hr>146</ns3:hr>
            <ns3:cad>42</ns3:cad>
          </ns3:TrackPointExtension>
        </extensions>
      </trkpt>
      <trkpt lat="45.32002307474613189697265625" lon="-70.9354515932500362396240234375">
        <ele>671.5999755859375</ele>
        <time>2026-08-21T17:15:24.000Z</time>
        <extensions>
          <ns3:TrackPointExtension>
            <ns3:hr>145</ns3:hr>
            <ns3:cad>0</ns3:cad>
          </ns3:TrackPointExtension>
        </extensions>
      </trkpt>
      <trkpt lat="45.320038497447967529296875" lon="-70.9354509226977825164794921875">
        <ele>671.5999755859375</ele>
        <time>2026-08-21T17:15:25.000Z</time>
        <extensions>
          <ns3:TrackPointExtension>
            <ns3:hr>145</ns3:hr>
            <ns3:cad>0</ns3:cad>
          </ns3:TrackPointExtension>
        </extensions>
      </trkpt>
      <trkpt lat="45.32005098648369312286376953125" lon="-70.93544648028910160064697265625">
        <ele>671.5999755859375</ele>
        <time>2026-08-21T17:15:26.000Z</time>
        <extensions>
          <ns3:TrackPointExtension>
            <ns3:hr>144</ns3:hr>
            <ns3:cad>0</ns3:cad>
          </ns3:TrackPointExtension>
        </extensions>
      </trkpt>
      <trkpt lat="45.32006020657718181610107421875" lon="-70.9354479052126407623291015625">
        <ele>671.79998779296875</ele>
        <time>2026-08-21T17:15:27.000Z</time>
        <extensions>
          <ns3:TrackPointExtension>
            <ns3:hr>144</ns3:hr>
            <ns3:cad>41</ns3:cad>
          </ns3:TrackPointExtension>
        </extensions>
      </trkpt>
      <trkpt lat="45.32006909139454364776611328125" lon="-70.9354489110410213470458984375">
        <ele>671.79998779296875</ele>
        <time>2026-08-21T17:15:28.000Z</time>
        <extensions>
          <ns3:TrackPointExtension>
            <ns3:hr>144</ns3:hr>
            <ns3:cad>41</ns3:cad>
          </ns3:TrackPointExtension>
        </extensions>
      </trkpt>
      <trkpt lat="45.3200829215347766876220703125" lon="-70.93545234762132167816162109375">
        <ele>672</ele>
        <time>2026-08-21T17:15:29.000Z</time>
        <extensions>
          <ns3:TrackPointExtension>
            <ns3:hr>144</ns3:hr>
            <ns3:cad>41</ns3:cad>
          </ns3:TrackPointExtension>
        </extensions>
      </trkpt>
      <trkpt lat="45.32009147107601165771484375" lon="-70.935453437268733978271484375">
        <ele>672.20001220703125</ele>
        <time>2026-08-21T17:15:30.000Z</time>
        <extensions>
          <ns3:TrackPointExtension>
            <ns3:hr>145</ns3:hr>
            <ns3:cad>41</ns3:cad>
          </ns3:TrackPointExtension>
        </extensions>
      </trkpt>
      <trkpt lat="45.3201003558933734893798828125" lon="-70.93545083887875080108642578125">
        <ele>672.4000244140625</ele>
        <time>2026-08-21T17:15:31.000Z</time>
        <extensions>
          <ns3:TrackPointExtension>
            <ns3:hr>146</ns3:hr>
            <ns3:cad>0</ns3:cad>
          </ns3:TrackPointExtension>
        </extensions>
      </trkpt>
      <trkpt lat="45.3201068937778472900390625" lon="-70.93545670621097087860107421875">
        <ele>672.5999755859375</ele>
        <time>2026-08-21T17:15:32.000Z</time>
        <extensions>
          <ns3:TrackPointExtension>
            <ns3:hr>146</ns3:hr>
            <ns3:cad>0</ns3:cad>
          </ns3:TrackPointExtension>
        </extensions>
      </trkpt>
      <trkpt lat="45.32011234201490879058837890625" lon="-70.935461483895778656005859375">
        <ele>672.79998779296875</ele>
        <time>2026-08-21T17:15:33.000Z</time>
        <extensions>
          <ns3:TrackPointExtension>
            <ns3:hr>147</ns3:hr>
            <ns3:cad>0</ns3:cad>
          </ns3:TrackPointExtension>
        </extensions>
      </trkpt>
      <trkpt lat="45.32011829316616058349609375" lon="-70.93546383082866668701171875">
        <ele>673.20001220703125</ele>
        <time>2026-08-21T17:15:34.000Z</time>
        <extensions>
          <ns3:TrackPointExtension>
            <ns3:hr>148</ns3:hr>
            <ns3:cad>41</ns3:cad>
          </ns3:TrackPointExtension>
        </extensions>
      </trkpt>
      <trkpt lat="45.3201305307447910308837890625" lon="-70.93546793796122074127197265625">
        <ele>673.4000244140625</ele>
        <time>2026-08-21T17:15:35.000Z</time>
        <extensions>
          <ns3:TrackPointExtension>
            <ns3:hr>149</ns3:hr>
            <ns3:cad>41</ns3:cad>
          </ns3:TrackPointExtension>
        </extensions>
      </trkpt>
      <trkpt lat="45.320143438875675201416015625" lon="-70.93546324409544467926025390625">
        <ele>673.4000244140625</ele>
        <time>2026-08-21T17:15:36.000Z</time>
        <extensions>
          <ns3:TrackPointExtension>
            <ns3:hr>148</ns3:hr>
            <ns3:cad>41</ns3:cad>
          </ns3:TrackPointExtension>
        </extensions>
      </trkpt>
      <trkpt lat="45.3201546706259250640869140625" lon="-70.93545620329678058624267578125">
        <ele>673.5999755859375</ele>
        <time>2026-08-21T17:15:37.000Z</time>
        <extensions>
          <ns3:TrackPointExtension>
            <ns3:hr>148</ns3:hr>
            <ns3:cad>41</ns3:cad>
          </ns3:TrackPointExtension>
        </extensions>
      </trkpt>
      <trkpt lat="45.32016246579587459564208984375" lon="-70.93544907867908477783203125">
        <ele>673.79998779296875</ele>
        <time>2026-08-21T17:15:38.000Z</time>
        <extensions>
          <ns3:TrackPointExtension>
            <ns3:hr>147</ns3:hr>
            <ns3:cad>47</ns3:cad>
          </ns3:TrackPointExtension>
        </extensions>
      </trkpt>
      <trkpt lat="45.32017269171774387359619140625" lon="-70.93544228933751583099365234375">
        <ele>673.79998779296875</ele>
        <time>2026-08-21T17:15:39.000Z</time>
        <extensions>
          <ns3:TrackPointExtension>
            <ns3:hr>147</ns3:hr>
            <ns3:cad>47</ns3:cad>
          </ns3:TrackPointExtension>
        </extensions>
      </trkpt>
      <trkpt lat="45.3201811574399471282958984375" lon="-70.9354401938617229461669921875">
        <ele>673.79998779296875</ele>
        <time>2026-08-21T17:15:40.000Z</time>
        <extensions>
          <ns3:TrackPointExtension>
            <ns3:hr>148</ns3:hr>
            <ns3:cad>47</ns3:cad>
          </ns3:TrackPointExtension>
        </extensions>
      </trkpt>
      <trkpt lat="45.3201927244663238525390625" lon="-70.93544044531881809234619140625">
        <ele>673.79998779296875</ele>
        <time>2026-08-21T17:15:41.000Z</time>
        <extensions>
          <ns3:TrackPointExtension>
            <ns3:hr>148</ns3:hr>
            <ns3:cad>0</ns3:cad>
          </ns3:TrackPointExtension>
        </extensions>
      </trkpt>
      <trkpt lat="45.3202026151120662689208984375" lon="-70.93544237315654754638671875">
        <ele>673.79998779296875</ele>
        <time>2026-08-21T17:15:42.000Z</time>
        <extensions>
          <ns3:TrackPointExtension>
            <ns3:hr>147</ns3:hr>
            <ns3:cad>0</ns3:cad>
          </ns3:TrackPointExtension>
        </extensions>
      </trkpt>
      <trkpt lat="45.32021217048168182373046875" lon="-70.93544446863234043121337890625">
        <ele>674</ele>
        <time>2026-08-21T17:15:43.000Z</time>
        <extensions>
          <ns3:TrackPointExtension>
            <ns3:hr>147</ns3:hr>
            <ns3:cad>0</ns3:cad>
          </ns3:TrackPointExtension>
        </extensions>
      </trkpt>
      <trkpt lat="45.3202250786125659942626953125" lon="-70.93544815666973590850830078125">
        <ele>674.20001220703125</ele>
        <time>2026-08-21T17:15:44.000Z</time>
        <extensions>
          <ns3:TrackPointExtension>
            <ns3:hr>147</ns3:hr>
            <ns3:cad>0</ns3:cad>
          </ns3:TrackPointExtension>
        </extensions>
      </trkpt>
      <trkpt lat="45.32023287378251552581787109375" lon="-70.93544564209878444671630859375">
        <ele>674.4000244140625</ele>
        <time>2026-08-21T17:15:45.000Z</time>
        <extensions>
          <ns3:TrackPointExtension>
            <ns3:hr>147</ns3:hr>
            <ns3:cad>0</ns3:cad>
          </ns3:TrackPointExtension>
        </extensions>
      </trkpt>
      <trkpt lat="45.32024301588535308837890625" lon="-70.935439355671405792236328125">
        <ele>674.5999755859375</ele>
        <time>2026-08-21T17:15:46.000Z</time>
        <extensions>
          <ns3:TrackPointExtension>
            <ns3:hr>147</ns3:hr>
            <ns3:cad>0</ns3:cad>
          </ns3:TrackPointExtension>
        </extensions>
      </trkpt>
      <trkpt lat="45.32025416381657123565673828125" lon="-70.93543759547173976898193359375">
        <ele>674.79998779296875</ele>
        <time>2026-08-21T17:15:47.000Z</time>
        <extensions>
          <ns3:TrackPointExtension>
            <ns3:hr>147</ns3:hr>
            <ns3:cad>0</ns3:cad>
          </ns3:TrackPointExtension>
        </extensions>
      </trkpt>
      <trkpt lat="45.32026086933910846710205078125" lon="-70.93543809838593006134033203125">
        <ele>675</ele>
        <time>2026-08-21T17:15:48.000Z</time>
        <extensions>
          <ns3:TrackPointExtension>
            <ns3:hr>147</ns3:hr>
            <ns3:cad>0</ns3:cad>
          </ns3:TrackPointExtension>
        </extensions>
      </trkpt>
      <trkpt lat="45.32026472501456737518310546875" lon="-70.9354351647198200225830078125">
        <ele>675.20001220703125</ele>
        <time>2026-08-21T17:15:49.000Z</time>
        <extensions>
          <ns3:TrackPointExtension>
            <ns3:hr>147</ns3:hr>
            <ns3:cad>0</ns3:cad>
          </ns3:TrackPointExtension>
        </extensions>
      </trkpt>
      <trkpt lat="45.3202731907367706298828125" lon="-70.9354336559772491455078125">
        <ele>675.4000244140625</ele>
        <time>2026-08-21T17:15:50.000Z</time>
        <extensions>
          <ns3:TrackPointExtension>
            <ns3:hr>146</ns3:hr>
            <ns3:cad>0</ns3:cad>
          </ns3:TrackPointExtension>
        </extensions>
      </trkpt>
      <trkpt lat="45.32028190791606903076171875" lon="-70.9354375116527080535888671875">
        <ele>675.5999755859375</ele>
        <time>2026-08-21T17:15:51.000Z</time>
        <extensions>
          <ns3:TrackPointExtension>
            <ns3:hr>146</ns3:hr>
            <ns3:cad>0</ns3:cad>
          </ns3:TrackPointExtension>
        </extensions>
      </trkpt>
      <trkpt lat="45.32028819434344768524169921875" lon="-70.93543943949043750762939453125">
        <ele>675.79998779296875</ele>
        <time>2026-08-21T17:15:52.000Z</time>
        <extensions>
          <ns3:TrackPointExtension>
            <ns3:hr>145</ns3:hr>
            <ns3:cad>0</ns3:cad>
          </ns3:TrackPointExtension>
        </extensions>
      </trkpt>
      <trkpt lat="45.32029531896114349365234375" lon="-70.93543994240462779998779296875">
        <ele>676</ele>
        <time>2026-08-21T17:15:53.000Z</time>
        <extensions>
          <ns3:TrackPointExtension>
            <ns3:hr>145</ns3:hr>
            <ns3:cad>0</ns3:cad>
          </ns3:TrackPointExtension>
        </extensions>
      </trkpt>
      <trkpt lat="45.32030495814979076385498046875" lon="-70.93544212169945240020751953125">
        <ele>676</ele>
        <time>2026-08-21T17:15:54.000Z</time>
        <extensions>
          <ns3:TrackPointExtension>
            <ns3:hr>145</ns3:hr>
            <ns3:cad>0</ns3:cad>
          </ns3:TrackPointExtension>
        </extensions>
      </trkpt>
      <trkpt lat="45.320315100252628326416015625" lon="-70.93544597737491130828857421875">
        <ele>676.20001220703125</ele>
        <time>2026-08-21T17:15:55.000Z</time>
        <extensions>
          <ns3:TrackPointExtension>
            <ns3:hr>145</ns3:hr>
            <ns3:cad>0</ns3:cad>
          </ns3:TrackPointExtension>
        </extensions>
      </trkpt>
      <trkpt lat="45.32032549381256103515625" lon="-70.9354519285261631011962890625">
        <ele>676.20001220703125</ele>
        <time>2026-08-21T17:15:56.000Z</time>
        <extensions>
          <ns3:TrackPointExtension>
            <ns3:hr>145</ns3:hr>
            <ns3:cad>0</ns3:cad>
          </ns3:TrackPointExtension>
        </extensions>
      </trkpt>
      <trkpt lat="45.32033312134444713592529296875" lon="-70.9354566223919391632080078125">
        <ele>676.4000244140625</ele>
        <time>2026-08-21T17:15:57.000Z</time>
        <extensions>
          <ns3:TrackPointExtension>
            <ns3:hr>144</ns3:hr>
            <ns3:cad>0</ns3:cad>
          </ns3:TrackPointExtension>
        </extensions>
      </trkpt>
      <trkpt lat="45.32033823430538177490234375" lon="-70.93545712530612945556640625">
        <ele>676.5999755859375</ele>
        <time>2026-08-21T17:15:58.000Z</time>
        <extensions>
          <ns3:TrackPointExtension>
            <ns3:hr>144</ns3:hr>
            <ns3:cad>0</ns3:cad>
          </ns3:TrackPointExtension>
        </extensions>
      </trkpt>
      <trkpt lat="45.320341251790523529052734375" lon="-70.93545821495354175567626953125">
        <ele>677</ele>
        <time>2026-08-21T17:15:59.000Z</time>
        <extensions>
          <ns3:TrackPointExtension>
            <ns3:hr>144</ns3:hr>
            <ns3:cad>0</ns3:cad>
          </ns3:TrackPointExtension>
        </extensions>
      </trkpt>
      <trkpt lat="45.32034904696047306060791015625" lon="-70.93546240590512752532958984375">
        <ele>677.20001220703125</ele>
        <time>2026-08-21T17:16:00.000Z</time>
        <extensions>
          <ns3:TrackPointExtension>
            <ns3:hr>145</ns3:hr>
            <ns3:cad>0</ns3:cad>
          </ns3:TrackPointExtension>
        </extensions>
      </trkpt>
      <trkpt lat="45.32035642303526401519775390625" lon="-70.9354686923325061798095703125">
        <ele>677.5999755859375</ele>
        <time>2026-08-21T17:16:01.000Z</time>
        <extensions>
          <ns3:TrackPointExtension>
            <ns3:hr>145</ns3:hr>
            <ns3:cad>0</ns3:cad>
          </ns3:TrackPointExtension>
        </extensions>
      </trkpt>
      <trkpt lat="45.32035809941589832305908203125" lon="-70.935470201075077056884765625">
        <ele>677.79998779296875</ele>
        <time>2026-08-21T17:16:02.000Z</time>
        <extensions>
          <ns3:TrackPointExtension>
            <ns3:hr>145</ns3:hr>
            <ns3:cad>0</ns3:cad>
          </ns3:TrackPointExtension>
        </extensions>
      </trkpt>
      <trkpt lat="45.32035927288234233856201171875" lon="-70.9354723803699016571044921875">
        <ele>678</ele>
        <time>2026-08-21T17:16:03.000Z</time>
        <extensions>
          <ns3:TrackPointExtension>
            <ns3:hr>146</ns3:hr>
            <ns3:cad>0</ns3:cad>
          </ns3:TrackPointExtension>
        </extensions>
      </trkpt>
      <trkpt lat="45.32036161981523036956787109375" lon="-70.93547447584569454193115234375">
        <ele>678.20001220703125</ele>
        <time>2026-08-21T17:16:04.000Z</time>
        <extensions>
          <ns3:TrackPointExtension>
            <ns3:hr>146</ns3:hr>
            <ns3:cad>0</ns3:cad>
          </ns3:TrackPointExtension>
        </extensions>
      </trkpt>
      <trkpt lat="45.3203635476529598236083984375" lon="-70.93548168428242206573486328125">
        <ele>678.5999755859375</ele>
        <time>2026-08-21T17:16:05.000Z</time>
        <extensions>
          <ns3:TrackPointExtension>
            <ns3:hr>146</ns3:hr>
            <ns3:cad>0</ns3:cad>
          </ns3:TrackPointExtension>
        </extensions>
      </trkpt>
      <trkpt lat="45.320367403328418731689453125" lon="-70.9354844503104686737060546875">
        <ele>678.79998779296875</ele>
        <time>2026-08-21T17:16:06.000Z</time>
        <extensions>
          <ns3:TrackPointExtension>
            <ns3:hr>146</ns3:hr>
            <ns3:cad>0</ns3:cad>
          </ns3:TrackPointExtension>
        </extensions>
      </trkpt>
      <trkpt lat="45.32036983408033847808837890625" lon="-70.93548537231981754302978515625">
        <ele>679.20001220703125</ele>
        <time>2026-08-21T17:16:07.000Z</time>
        <extensions>
          <ns3:TrackPointExtension>
            <ns3:hr>146</ns3:hr>
            <ns3:cad>0</ns3:cad>
          </ns3:TrackPointExtension>
        </extensions>
      </trkpt>
      <trkpt lat="45.320374779403209686279296875" lon="-70.93548805452883243560791015625">
        <ele>679.4000244140625</ele>
        <time>2026-08-21T17:16:08.000Z</time>
        <extensions>
          <ns3:TrackPointExtension>
            <ns3:hr>146</ns3:hr>
            <ns3:cad>0</ns3:cad>
          </ns3:TrackPointExtension>
        </extensions>
      </trkpt>
      <trkpt lat="45.3203786350786685943603515625" lon="-70.93548989854753017425537109375">
        <ele>679.5999755859375</ele>
        <time>2026-08-21T17:16:09.000Z</time>
        <extensions>
          <ns3:TrackPointExtension>
            <ns3:hr>146</ns3:hr>
            <ns3:cad>0</ns3:cad>
          </ns3:TrackPointExtension>
        </extensions>
      </trkpt>
      <trkpt lat="45.320382155478000640869140625" lon="-70.93549199402332305908203125">
        <ele>679.79998779296875</ele>
        <time>2026-08-21T17:16:10.000Z</time>
        <extensions>
          <ns3:TrackPointExtension>
            <ns3:hr>146</ns3:hr>
            <ns3:cad>0</ns3:cad>
          </ns3:TrackPointExtension>
        </extensions>
      </trkpt>
      <trkpt lat="45.3203880228102207183837890625" lon="-70.9354998730123043060302734375">
        <ele>680.20001220703125</ele>
        <time>2026-08-21T17:16:11.000Z</time>
        <extensions>
          <ns3:TrackPointExtension>
            <ns3:hr>146</ns3:hr>
            <ns3:cad>0</ns3:cad>
          </ns3:TrackPointExtension>
        </extensions>
      </trkpt>
      <trkpt lat="45.32039187848567962646484375" lon="-70.93550045974552631378173828125">
        <ele>680.4000244140625</ele>
        <time>2026-08-21T17:16:12.000Z</time>
        <extensions>
          <ns3:TrackPointExtension>
            <ns3:hr>145</ns3:hr>
            <ns3:cad>0</ns3:cad>
          </ns3:TrackPointExtension>
        </extensions>
      </trkpt>
      <trkpt lat="45.32039866782724857330322265625" lon="-70.9355018846690654754638671875">
        <ele>680.5999755859375</ele>
        <time>2026-08-21T17:16:13.000Z</time>
        <extensions>
          <ns3:TrackPointExtension>
            <ns3:hr>146</ns3:hr>
            <ns3:cad>0</ns3:cad>
          </ns3:TrackPointExtension>
        </extensions>
      </trkpt>
      <trkpt lat="45.3204010985791683197021484375" lon="-70.9355022199451923370361328125">
        <ele>680.79998779296875</ele>
        <time>2026-08-21T17:16:14.000Z</time>
        <extensions>
          <ns3:TrackPointExtension>
            <ns3:hr>146</ns3:hr>
            <ns3:cad>0</ns3:cad>
          </ns3:TrackPointExtension>
        </extensions>
      </trkpt>
      <trkpt lat="45.32040528953075408935546875" lon="-70.9355082549154758453369140625">
        <ele>681</ele>
        <time>2026-08-21T17:16:15.000Z</time>
        <extensions>
          <ns3:TrackPointExtension>
            <ns3:hr>146</ns3:hr>
            <ns3:cad>0</ns3:cad>
          </ns3:TrackPointExtension>
        </extensions>
      </trkpt>
      <trkpt lat="45.32041333615779876708984375" lon="-70.9355196543037891387939453125">
        <ele>681.20001220703125</ele>
        <time>2026-08-21T17:16:16.000Z</time>
        <extensions>
          <ns3:TrackPointExtension>
            <ns3:hr>146</ns3:hr>
            <ns3:cad>0</ns3:cad>
          </ns3:TrackPointExtension>
        </extensions>
      </trkpt>
      <trkpt lat="45.3204188682138919830322265625" lon="-70.935521833598613739013671875">
        <ele>681.20001220703125</ele>
        <time>2026-08-21T17:16:17.000Z</time>
        <extensions>
          <ns3:TrackPointExtension>
            <ns3:hr>145</ns3:hr>
            <ns3:cad>0</ns3:cad>
          </ns3:TrackPointExtension>
        </extensions>
      </trkpt>
      <trkpt lat="45.32042984850704669952392578125" lon="-70.9355266951024532318115234375">
        <ele>681.4000244140625</ele>
        <time>2026-08-21T17:16:18.000Z</time>
        <extensions>
          <ns3:TrackPointExtension>
            <ns3:hr>146</ns3:hr>
            <ns3:cad>0</ns3:cad>
          </ns3:TrackPointExtension>
        </extensions>
      </trkpt>
      <trkpt lat="45.32043454237282276153564453125" lon="-70.93552862294018268585205078125">
        <ele>681.5999755859375</ele>
        <time>2026-08-21T17:16:19.000Z</time>
        <extensions>
          <ns3:TrackPointExtension>
            <ns3:hr>146</ns3:hr>
            <ns3:cad>0</ns3:cad>
          </ns3:TrackPointExtension>
        </extensions>
      </trkpt>
      <trkpt lat="45.32044292427599430084228515625" lon="-70.93553281389176845550537109375">
        <ele>681.79998779296875</ele>
        <time>2026-08-21T17:16:20.000Z</time>
        <extensions>
          <ns3:TrackPointExtension>
            <ns3:hr>145</ns3:hr>
            <ns3:cad>0</ns3:cad>
          </ns3:TrackPointExtension>
        </extensions>
      </trkpt>
      <trkpt lat="45.32045382075011730194091796875" lon="-70.9355407766997814178466796875">
        <ele>682</ele>
        <time>2026-08-21T17:16:21.000Z</time>
        <extensions>
          <ns3:TrackPointExtension>
            <ns3:hr>146</ns3:hr>
            <ns3:cad>0</ns3:cad>
          </ns3:TrackPointExtension>
        </extensions>
      </trkpt>
      <trkpt lat="45.3204560838639736175537109375" lon="-70.9355377592146396636962890625">
        <ele>682.20001220703125</ele>
        <time>2026-08-21T17:16:22.000Z</time>
        <extensions>
          <ns3:TrackPointExtension>
            <ns3:hr>146</ns3:hr>
            <ns3:cad>0</ns3:cad>
          </ns3:TrackPointExtension>
        </extensions>
      </trkpt>
      <trkpt lat="45.3204604424536228179931640625" lon="-70.935537256300449371337890625">
        <ele>682.5999755859375</ele>
        <time>2026-08-21T17:16:23.000Z</time>
        <extensions>
          <ns3:TrackPointExtension>
            <ns3:hr>146</ns3:hr>
            <ns3:cad>0</ns3:cad>
          </ns3:TrackPointExtension>
        </extensions>
      </trkpt>
      <trkpt lat="45.3204651363193988800048828125" lon="-70.93553759157657623291015625">
        <ele>682.79998779296875</ele>
        <time>2026-08-21T17:16:24.000Z</time>
        <extensions>
          <ns3:TrackPointExtension>
            <ns3:hr>146</ns3:hr>
            <ns3:cad>0</ns3:cad>
          </ns3:TrackPointExtension>
        </extensions>
      </trkpt>
      <trkpt lat="45.32047142274677753448486328125" lon="-70.93553717248141765594482421875">
        <ele>683</ele>
        <time>2026-08-21T17:16:25.000Z</time>
        <extensions>
          <ns3:TrackPointExtension>
            <ns3:hr>146</ns3:hr>
            <ns3:cad>0</ns3:cad>
          </ns3:TrackPointExtension>
        </extensions>
      </trkpt>
      <trkpt lat="45.3204765357077121734619140625" lon="-70.9355409443378448486328125">
        <ele>683.20001220703125</ele>
        <time>2026-08-21T17:16:26.000Z</time>
        <extensions>
          <ns3:TrackPointExtension>
            <ns3:hr>146</ns3:hr>
            <ns3:cad>0</ns3:cad>
          </ns3:TrackPointExtension>
        </extensions>
      </trkpt>
      <trkpt lat="45.320486761629581451416015625" lon="-70.93554153107106685638427734375">
        <ele>683.4000244140625</ele>
        <time>2026-08-21T17:16:27.000Z</time>
        <extensions>
          <ns3:TrackPointExtension>
            <ns3:hr>146</ns3:hr>
            <ns3:cad>0</ns3:cad>
          </ns3:TrackPointExtension>
        </extensions>
      </trkpt>
      <trkpt lat="45.320494472980499267578125" lon="-70.935540609061717987060546875">
        <ele>683.5999755859375</ele>
        <time>2026-08-21T17:16:28.000Z</time>
        <extensions>
          <ns3:TrackPointExtension>
            <ns3:hr>146</ns3:hr>
            <ns3:cad>0</ns3:cad>
          </ns3:TrackPointExtension>
        </extensions>
      </trkpt>
      <trkpt lat="45.32050184905529022216796875" lon="-70.93554035760462284088134765625">
        <ele>683.5999755859375</ele>
        <time>2026-08-21T17:16:29.000Z</time>
        <extensions>
          <ns3:TrackPointExtension>
            <ns3:hr>147</ns3:hr>
            <ns3:cad>0</ns3:cad>
          </ns3:TrackPointExtension>
        </extensions>
      </trkpt>
      <trkpt lat="45.3205167688429355621337890625" lon="-70.93554639257490634918212890625">
        <ele>683.79998779296875</ele>
        <time>2026-08-21T17:16:30.000Z</time>
        <extensions>
          <ns3:TrackPointExtension>
            <ns3:hr>147</ns3:hr>
            <ns3:cad>0</ns3:cad>
          </ns3:TrackPointExtension>
        </extensions>
      </trkpt>
      <trkpt lat="45.32052473165094852447509765625" lon="-70.93555008061230182647705078125">
        <ele>684</ele>
        <time>2026-08-21T17:16:31.000Z</time>
        <extensions>
          <ns3:TrackPointExtension>
            <ns3:hr>147</ns3:hr>
            <ns3:cad>0</ns3:cad>
          </ns3:TrackPointExtension>
        </extensions>
      </trkpt>
      <trkpt lat="45.3205321915447711944580078125" lon="-70.93555510975420475006103515625">
        <ele>684</ele>
        <time>2026-08-21T17:16:32.000Z</time>
        <extensions>
          <ns3:TrackPointExtension>
            <ns3:hr>147</ns3:hr>
            <ns3:cad>0</ns3:cad>
          </ns3:TrackPointExtension>
        </extensions>
      </trkpt>
      <trkpt lat="45.32054208219051361083984375" lon="-70.9355592168867588043212890625">
        <ele>684.20001220703125</ele>
        <time>2026-08-21T17:16:33.000Z</time>
        <extensions>
          <ns3:TrackPointExtension>
            <ns3:hr>147</ns3:hr>
            <ns3:cad>0</ns3:cad>
          </ns3:TrackPointExtension>
        </extensions>
      </trkpt>
      <trkpt lat="45.3205492906272411346435546875" lon="-70.93556399457156658172607421875">
        <ele>684.4000244140625</ele>
        <time>2026-08-21T17:16:34.000Z</time>
        <extensions>
          <ns3:TrackPointExtension>
            <ns3:hr>148</ns3:hr>
            <ns3:cad>0</ns3:cad>
          </ns3:TrackPointExtension>
        </extensions>
      </trkpt>
      <trkpt lat="45.32055289484560489654541015625" lon="-70.9355639107525348663330078125">
        <ele>684.5999755859375</ele>
        <time>2026-08-21T17:16:35.000Z</time>
        <extensions>
          <ns3:TrackPointExtension>
            <ns3:hr>147</ns3:hr>
            <ns3:cad>52</ns3:cad>
          </ns3:TrackPointExtension>
        </extensions>
      </trkpt>
      <trkpt lat="45.32056219875812530517578125" lon="-70.935567431151866912841796875">
        <ele>684.5999755859375</ele>
        <time>2026-08-21T17:16:36.000Z</time>
        <extensions>
          <ns3:TrackPointExtension>
            <ns3:hr>147</ns3:hr>
            <ns3:cad>52</ns3:cad>
          </ns3:TrackPointExtension>
        </extensions>
      </trkpt>
      <trkpt lat="45.32056848518550395965576171875" lon="-70.93557086773216724395751953125">
        <ele>684.79998779296875</ele>
        <time>2026-08-21T17:16:37.000Z</time>
        <extensions>
          <ns3:TrackPointExtension>
            <ns3:hr>146</ns3:hr>
            <ns3:cad>52</ns3:cad>
          </ns3:TrackPointExtension>
        </extensions>
      </trkpt>
      <trkpt lat="45.32057401724159717559814453125" lon="-70.93557153828442096710205078125">
        <ele>685</ele>
        <time>2026-08-21T17:16:38.000Z</time>
        <extensions>
          <ns3:TrackPointExtension>
            <ns3:hr>146</ns3:hr>
            <ns3:cad>0</ns3:cad>
          </ns3:TrackPointExtension>
        </extensions>
      </trkpt>
      <trkpt lat="45.32057560980319976806640625" lon="-70.9355732984840869903564453125">
        <ele>685</ele>
        <time>2026-08-21T17:16:39.000Z</time>
        <extensions>
          <ns3:TrackPointExtension>
            <ns3:hr>146</ns3:hr>
            <ns3:cad>0</ns3:cad>
          </ns3:TrackPointExtension>
        </extensions>
      </trkpt>
      <trkpt lat="45.3205776214599609375" lon="-70.93557422049343585968017578125">
        <ele>685.20001220703125</ele>
        <time>2026-08-21T17:16:40.000Z</time>
        <extensions>
          <ns3:TrackPointExtension>
            <ns3:hr>146</ns3:hr>
            <ns3:cad>0</ns3:cad>
          </ns3:TrackPointExtension>
        </extensions>
      </trkpt>
      <trkpt lat="45.3205798007547855377197265625" lon="-70.935575477778911590576171875">
        <ele>685.4000244140625</ele>
        <time>2026-08-21T17:16:41.000Z</time>
        <extensions>
          <ns3:TrackPointExtension>
            <ns3:hr>146</ns3:hr>
            <ns3:cad>75</ns3:cad>
          </ns3:TrackPointExtension>
        </extensions>
      </trkpt>
      <trkpt lat="45.32058156095445156097412109375" lon="-70.93557522632181644439697265625">
        <ele>685.4000244140625</ele>
        <time>2026-08-21T17:16:42.000Z</time>
        <extensions>
          <ns3:TrackPointExtension>
            <ns3:hr>146</ns3:hr>
            <ns3:cad>75</ns3:cad>
          </ns3:TrackPointExtension>
        </extensions>
      </trkpt>
      <trkpt lat="45.3205814771354198455810546875" lon="-70.9355769865214824676513671875">
        <ele>685.5999755859375</ele>
        <time>2026-08-21T17:16:43.000Z</time>
        <extensions>
          <ns3:TrackPointExtension>
            <ns3:hr>146</ns3:hr>
            <ns3:cad>75</ns3:cad>
          </ns3:TrackPointExtension>
        </extensions>
      </trkpt>
      <trkpt lat="45.32057871110737323760986328125" lon="-70.93557757325470447540283203125">
        <ele>685.5999755859375</ele>
        <time>2026-08-21T17:16:44.000Z</time>
        <extensions>
          <ns3:TrackPointExtension>
            <ns3:hr>146</ns3:hr>
            <ns3:cad>75</ns3:cad>
          </ns3:TrackPointExtension>
        </extensions>
      </trkpt>
      <trkpt lat="45.320577956736087799072265625" lon="-70.93557556159794330596923828125">
        <ele>685.79998779296875</ele>
        <time>2026-08-21T17:16:45.000Z</time>
        <extensions>
          <ns3:TrackPointExtension>
            <ns3:hr>146</ns3:hr>
            <ns3:cad>0</ns3:cad>
          </ns3:TrackPointExtension>
        </extensions>
      </trkpt>
      <trkpt lat="45.3205804713070392608642578125" lon="-70.9355773217976093292236328125">
        <ele>686</ele>
        <time>2026-08-21T17:16:46.000Z</time>
        <extensions>
          <ns3:TrackPointExtension>
            <ns3:hr>146</ns3:hr>
            <ns3:cad>0</ns3:cad>
          </ns3:TrackPointExtension>
        </extensions>
      </trkpt>
      <trkpt lat="45.3205811418592929840087890625" lon="-70.9355766512453556060791015625">
        <ele>686.20001220703125</ele>
        <time>2026-08-21T17:16:47.000Z</time>
        <extensions>
          <ns3:TrackPointExtension>
            <ns3:hr>146</ns3:hr>
            <ns3:cad>0</ns3:cad>
          </ns3:TrackPointExtension>
        </extensions>
      </trkpt>
      <trkpt lat="45.32057804055511951446533203125" lon="-70.9355692751705646514892578125">
        <ele>686.4000244140625</ele>
        <time>2026-08-21T17:16:48.000Z</time>
        <extensions>
          <ns3:TrackPointExtension>
            <ns3:hr>146</ns3:hr>
            <ns3:cad>0</ns3:cad>
          </ns3:TrackPointExtension>
        </extensions>
      </trkpt>
      <trkpt lat="45.3205781243741512298583984375" lon="-70.9355702809989452362060546875">
        <ele>686.5999755859375</ele>
        <time>2026-08-21T17:16:49.000Z</time>
        <extensions>
          <ns3:TrackPointExtension>
            <ns3:hr>146</ns3:hr>
            <ns3:cad>0</ns3:cad>
          </ns3:TrackPointExtension>
        </extensions>
      </trkpt>
      <trkpt lat="45.32057301141321659088134765625" lon="-70.935569107532501220703125">
        <ele>686.79998779296875</ele>
        <time>2026-08-21T17:16:50.000Z</time>
        <extensions>
          <ns3:TrackPointExtension>
            <ns3:hr>145</ns3:hr>
            <ns3:cad>0</ns3:cad>
          </ns3:TrackPointExtension>
        </extensions>
      </trkpt>
      <trkpt lat="45.32057158648967742919921875" lon="-70.935572795569896697998046875">
        <ele>687</ele>
        <time>2026-08-21T17:16:51.000Z</time>
        <extensions>
          <ns3:TrackPointExtension>
            <ns3:hr>144</ns3:hr>
            <ns3:cad>0</ns3:cad>
          </ns3:TrackPointExtension>
        </extensions>
      </trkpt>
      <trkpt lat="45.32056798227131366729736328125" lon="-70.93557723797857761383056640625">
        <ele>687.20001220703125</ele>
        <time>2026-08-21T17:16:52.000Z</time>
        <extensions>
          <ns3:TrackPointExtension>
            <ns3:hr>144</ns3:hr>
            <ns3:cad>68</ns3:cad>
          </ns3:TrackPointExtension>
        </extensions>
      </trkpt>
      <trkpt lat="45.3205660544335842132568359375" lon="-70.93557941727340221405029296875">
        <ele>687.4000244140625</ele>
        <time>2026-08-21T17:16:53.000Z</time>
        <extensions>
          <ns3:TrackPointExtension>
            <ns3:hr>144</ns3:hr>
            <ns3:cad>68</ns3:cad>
          </ns3:TrackPointExtension>
        </extensions>
      </trkpt>
      <trkpt lat="45.32056295312941074371337890625" lon="-70.935578830540180206298828125">
        <ele>687.5999755859375</ele>
        <time>2026-08-21T17:16:54.000Z</time>
        <extensions>
          <ns3:TrackPointExtension>
            <ns3:hr>144</ns3:hr>
            <ns3:cad>68</ns3:cad>
          </ns3:TrackPointExtension>
        </extensions>
      </trkpt>
      <trkpt lat="45.3205653838813304901123046875" lon="-70.93557639978826045989990234375">
        <ele>688</ele>
        <time>2026-08-21T17:16:55.000Z</time>
        <extensions>
          <ns3:TrackPointExtension>
            <ns3:hr>144</ns3:hr>
            <ns3:cad>0</ns3:cad>
          </ns3:TrackPointExtension>
        </extensions>
      </trkpt>
      <trkpt lat="45.32056194730103015899658203125" lon="-70.93558142893016338348388671875">
        <ele>688.20001220703125</ele>
        <time>2026-08-21T17:16:56.000Z</time>
        <extensions>
          <ns3:TrackPointExtension>
            <ns3:hr>143</ns3:hr>
            <ns3:cad>0</ns3:cad>
          </ns3:TrackPointExtension>
        </extensions>
      </trkpt>
      <trkpt lat="45.32055549323558807373046875" lon="-70.9355883859097957611083984375">
        <ele>688.4000244140625</ele>
        <time>2026-08-21T17:16:57.000Z</time>
        <extensions>
          <ns3:TrackPointExtension>
            <ns3:hr>144</ns3:hr>
            <ns3:cad>0</ns3:cad>
          </ns3:TrackPointExtension>
        </extensions>
      </trkpt>
      <trkpt lat="45.32054937444627285003662109375" lon="-70.93559098429977893829345703125">
        <ele>688.4000244140625</ele>
        <time>2026-08-21T17:16:58.000Z</time>
        <extensions>
          <ns3:TrackPointExtension>
            <ns3:hr>144</ns3:hr>
            <ns3:cad>0</ns3:cad>
          </ns3:TrackPointExtension>
        </extensions>
      </trkpt>
      <trkpt lat="45.32054342329502105712890625" lon="-70.93559467233717441558837890625">
        <ele>688.79998779296875</ele>
        <time>2026-08-21T17:16:59.000Z</time>
        <extensions>
          <ns3:TrackPointExtension>
            <ns3:hr>144</ns3:hr>
            <ns3:cad>0</ns3:cad>
          </ns3:TrackPointExtension>
        </extensions>
      </trkpt>
      <trkpt lat="45.32053160481154918670654296875" lon="-70.9355972707271575927734375">
        <ele>689</ele>
        <time>2026-08-21T17:17:00.000Z</time>
        <extensions>
          <ns3:TrackPointExtension>
            <ns3:hr>144</ns3:hr>
            <ns3:cad>0</ns3:cad>
          </ns3:TrackPointExtension>
        </extensions>
      </trkpt>
      <trkpt lat="45.32052238471806049346923828125" lon="-70.9355972707271575927734375">
        <ele>689</ele>
        <time>2026-08-21T17:17:01.000Z</time>
        <extensions>
          <ns3:TrackPointExtension>
            <ns3:hr>143</ns3:hr>
            <ns3:cad>0</ns3:cad>
          </ns3:TrackPointExtension>
        </extensions>
      </trkpt>
      <trkpt lat="45.320513583719730377197265625" lon="-70.93560238368809223175048828125">
        <ele>689.20001220703125</ele>
        <time>2026-08-21T17:17:02.000Z</time>
        <extensions>
          <ns3:TrackPointExtension>
            <ns3:hr>144</ns3:hr>
            <ns3:cad>0</ns3:cad>
          </ns3:TrackPointExtension>
        </extensions>
      </trkpt>
      <trkpt lat="45.32050847075879573822021484375" lon="-70.9356105141341686248779296875">
        <ele>689.20001220703125</ele>
        <time>2026-08-21T17:17:03.000Z</time>
        <extensions>
          <ns3:TrackPointExtension>
            <ns3:hr>144</ns3:hr>
            <ns3:cad>0</ns3:cad>
          </ns3:TrackPointExtension>
        </extensions>
      </trkpt>
      <trkpt lat="45.320501513779163360595703125" lon="-70.935622416436672210693359375">
        <ele>689.4000244140625</ele>
        <time>2026-08-21T17:17:04.000Z</time>
        <extensions>
          <ns3:TrackPointExtension>
            <ns3:hr>144</ns3:hr>
            <ns3:cad>0</ns3:cad>
          </ns3:TrackPointExtension>
        </extensions>
      </trkpt>
      <trkpt lat="45.32049623318016529083251953125" lon="-70.93563389964401721954345703125">
        <ele>689.4000244140625</ele>
        <time>2026-08-21T17:17:05.000Z</time>
        <extensions>
          <ns3:TrackPointExtension>
            <ns3:hr>144</ns3:hr>
            <ns3:cad>0</ns3:cad>
          </ns3:TrackPointExtension>
        </extensions>
      </trkpt>
      <trkpt lat="45.32049489207565784454345703125" lon="-70.93563616275787353515625">
        <ele>689.5999755859375</ele>
        <time>2026-08-21T17:17:06.000Z</time>
        <extensions>
          <ns3:TrackPointExtension>
            <ns3:hr>143</ns3:hr>
            <ns3:cad>0</ns3:cad>
          </ns3:TrackPointExtension>
        </extensions>
      </trkpt>
      <trkpt lat="45.32048734836280345916748046875" lon="-70.93564429320394992828369140625">
        <ele>689.5999755859375</ele>
        <time>2026-08-21T17:17:07.000Z</time>
        <extensions>
          <ns3:TrackPointExtension>
            <ns3:hr>144</ns3:hr>
            <ns3:cad>0</ns3:cad>
          </ns3:TrackPointExtension>
        </extensions>
      </trkpt>
      <trkpt lat="45.32047963701188564300537109375" lon="-70.9356517530977725982666015625">
        <ele>689.79998779296875</ele>
        <time>2026-08-21T17:17:08.000Z</time>
        <extensions>
          <ns3:TrackPointExtension>
            <ns3:hr>144</ns3:hr>
            <ns3:cad>0</ns3:cad>
          </ns3:TrackPointExtension>
        </extensions>
      </trkpt>
      <trkpt lat="45.3204705007374286651611328125" lon="-70.93566709198057651519775390625">
        <ele>689.79998779296875</ele>
        <time>2026-08-21T17:17:09.000Z</time>
        <extensions>
          <ns3:TrackPointExtension>
            <ns3:hr>144</ns3:hr>
            <ns3:cad>0</ns3:cad>
          </ns3:TrackPointExtension>
        </extensions>
      </trkpt>
      <trkpt lat="45.32046488486230373382568359375" lon="-70.93568167649209499359130859375">
        <ele>690</ele>
        <time>2026-08-21T17:17:10.000Z</time>
        <extensions>
          <ns3:TrackPointExtension>
            <ns3:hr>144</ns3:hr>
            <ns3:cad>47</ns3:cad>
          </ns3:TrackPointExtension>
        </extensions>
      </trkpt>
      <trkpt lat="45.32046186737716197967529296875" lon="-70.93569441698491573333740234375">
        <ele>690</ele>
        <time>2026-08-21T17:17:11.000Z</time>
        <extensions>
          <ns3:TrackPointExtension>
            <ns3:hr>144</ns3:hr>
            <ns3:cad>47</ns3:cad>
          </ns3:TrackPointExtension>
        </extensions>
      </trkpt>
      <trkpt lat="45.32046161592006683349609375" lon="-70.935710929334163665771484375">
        <ele>690.20001220703125</ele>
        <time>2026-08-21T17:17:12.000Z</time>
        <extensions>
          <ns3:TrackPointExtension>
            <ns3:hr>144</ns3:hr>
            <ns3:cad>0</ns3:cad>
          </ns3:TrackPointExtension>
        </extensions>
      </trkpt>
      <trkpt lat="45.32046253792941570281982421875" lon="-70.935718975961208343505859375">
        <ele>690.20001220703125</ele>
        <time>2026-08-21T17:17:13.000Z</time>
        <extensions>
          <ns3:TrackPointExtension>
            <ns3:hr>144</ns3:hr>
            <ns3:cad>0</ns3:cad>
          </ns3:TrackPointExtension>
        </extensions>
      </trkpt>
      <trkpt lat="45.3204621188342571258544921875" lon="-70.93573615886270999908447265625">
        <ele>690.4000244140625</ele>
        <time>2026-08-21T17:17:14.000Z</time>
        <extensions>
          <ns3:TrackPointExtension>
            <ns3:hr>144</ns3:hr>
            <ns3:cad>0</ns3:cad>
          </ns3:TrackPointExtension>
        </extensions>
      </trkpt>
      <trkpt lat="45.32046756707131862640380859375" lon="-70.9357543475925922393798828125">
        <ele>690.79998779296875</ele>
        <time>2026-08-21T17:17:15.000Z</time>
        <extensions>
          <ns3:TrackPointExtension>
            <ns3:hr>144</ns3:hr>
            <ns3:cad>43</ns3:cad>
          </ns3:TrackPointExtension>
        </extensions>
      </trkpt>
      <trkpt lat="45.3204661421477794647216796875" lon="-70.93576901592314243316650390625">
        <ele>691</ele>
        <time>2026-08-21T17:17:16.000Z</time>
        <extensions>
          <ns3:TrackPointExtension>
            <ns3:hr>144</ns3:hr>
            <ns3:cad>43</ns3:cad>
          </ns3:TrackPointExtension>
        </extensions>
      </trkpt>
      <trkpt lat="45.32047175802290439605712890625" lon="-70.9357815049588680267333984375">
        <ele>691.20001220703125</ele>
        <time>2026-08-21T17:17:17.000Z</time>
        <extensions>
          <ns3:TrackPointExtension>
            <ns3:hr>145</ns3:hr>
            <ns3:cad>43</ns3:cad>
          </ns3:TrackPointExtension>
        </extensions>
      </trkpt>
      <trkpt lat="45.32047226093709468841552734375" lon="-70.9357858635485172271728515625">
        <ele>691.4000244140625</ele>
        <time>2026-08-21T17:17:18.000Z</time>
        <extensions>
          <ns3:TrackPointExtension>
            <ns3:hr>145</ns3:hr>
            <ns3:cad>0</ns3:cad>
          </ns3:TrackPointExtension>
        </extensions>
      </trkpt>
      <trkpt lat="45.320475362241268157958984375" lon="-70.93578812666237354278564453125">
        <ele>691.5999755859375</ele>
        <time>2026-08-21T17:17:19.000Z</time>
        <extensions>
          <ns3:TrackPointExtension>
            <ns3:hr>144</ns3:hr>
            <ns3:cad>0</ns3:cad>
          </ns3:TrackPointExtension>
        </extensions>
      </trkpt>
      <trkpt lat="45.320480056107044219970703125" lon="-70.9357917308807373046875">
        <ele>691.79998779296875</ele>
        <time>2026-08-21T17:17:20.000Z</time>
        <extensions>
          <ns3:TrackPointExtension>
            <ns3:hr>144</ns3:hr>
            <ns3:cad>0</ns3:cad>
          </ns3:TrackPointExtension>
        </extensions>
      </trkpt>
      <trkpt lat="45.3204849176108837127685546875" lon="-70.93579550273716449737548828125">
        <ele>691.79998779296875</ele>
        <time>2026-08-21T17:17:21.000Z</time>
        <extensions>
          <ns3:TrackPointExtension>
            <ns3:hr>144</ns3:hr>
            <ns3:cad>0</ns3:cad>
          </ns3:TrackPointExtension>
        </extensions>
      </trkpt>
      <trkpt lat="45.3204936347901821136474609375" lon="-70.935800112783908843994140625">
        <ele>692</ele>
        <time>2026-08-21T17:17:22.000Z</time>
        <extensions>
          <ns3:TrackPointExtension>
            <ns3:hr>144</ns3:hr>
            <ns3:cad>0</ns3:cad>
          </ns3:TrackPointExtension>
        </extensions>
      </trkpt>
      <trkpt lat="45.320492126047611236572265625" lon="-70.9357979334890842437744140625">
        <ele>692.20001220703125</ele>
        <time>2026-08-21T17:17:23.000Z</time>
        <extensions>
          <ns3:TrackPointExtension>
            <ns3:hr>144</ns3:hr>
            <ns3:cad>0</ns3:cad>
          </ns3:TrackPointExtension>
        </extensions>
      </trkpt>
      <trkpt lat="45.3205003403127193450927734375" lon="-70.935799777507781982421875">
        <ele>692.4000244140625</ele>
        <time>2026-08-21T17:17:24.000Z</time>
        <extensions>
          <ns3:TrackPointExtension>
            <ns3:hr>144</ns3:hr>
            <ns3:cad>0</ns3:cad>
          </ns3:TrackPointExtension>
        </extensions>
      </trkpt>
      <trkpt lat="45.3205038607120513916015625" lon="-70.93579516746103763580322265625">
        <ele>692.5999755859375</ele>
        <time>2026-08-21T17:17:25.000Z</time>
        <extensions>
          <ns3:TrackPointExtension>
            <ns3:hr>144</ns3:hr>
            <ns3:cad>0</ns3:cad>
          </ns3:TrackPointExtension>
        </extensions>
      </trkpt>
      <trkpt lat="45.3205093927681446075439453125" lon="-70.935797430574893951416015625">
        <ele>692.79998779296875</ele>
        <time>2026-08-21T17:17:26.000Z</time>
        <extensions>
          <ns3:TrackPointExtension>
            <ns3:hr>144</ns3:hr>
            <ns3:cad>0</ns3:cad>
          </ns3:TrackPointExtension>
        </extensions>
      </trkpt>
      <trkpt lat="45.32050981186330318450927734375" lon="-70.9357989393174648284912109375">
        <ele>693</ele>
        <time>2026-08-21T17:17:27.000Z</time>
        <extensions>
          <ns3:TrackPointExtension>
            <ns3:hr>144</ns3:hr>
            <ns3:cad>0</ns3:cad>
          </ns3:TrackPointExtension>
        </extensions>
      </trkpt>
      <trkpt lat="45.32051257789134979248046875" lon="-70.9358011186122894287109375">
        <ele>693.20001220703125</ele>
        <time>2026-08-21T17:17:28.000Z</time>
        <extensions>
          <ns3:TrackPointExtension>
            <ns3:hr>144</ns3:hr>
            <ns3:cad>0</ns3:cad>
          </ns3:TrackPointExtension>
        </extensions>
      </trkpt>
      <trkpt lat="45.3205124102532863616943359375" lon="-70.9358053095638751983642578125">
        <ele>693.4000244140625</ele>
        <time>2026-08-21T17:17:29.000Z</time>
        <extensions>
          <ns3:TrackPointExtension>
            <ns3:hr>144</ns3:hr>
            <ns3:cad>0</ns3:cad>
          </ns3:TrackPointExtension>
        </extensions>
      </trkpt>
      <trkpt lat="45.32051584683358669281005859375" lon="-70.93581394292414188385009765625">
        <ele>693.5999755859375</ele>
        <time>2026-08-21T17:17:30.000Z</time>
        <extensions>
          <ns3:TrackPointExtension>
            <ns3:hr>144</ns3:hr>
            <ns3:cad>0</ns3:cad>
          </ns3:TrackPointExtension>
        </extensions>
      </trkpt>
      <trkpt lat="45.32051551155745983123779296875" lon="-70.9358153678476810455322265625">
        <ele>694</ele>
        <time>2026-08-21T17:17:31.000Z</time>
        <extensions>
          <ns3:TrackPointExtension>
            <ns3:hr>144</ns3:hr>
            <ns3:cad>0</ns3:cad>
          </ns3:TrackPointExtension>
        </extensions>
      </trkpt>
      <trkpt lat="45.32052121125161647796630859375" lon="-70.9358217380940914154052734375">
        <ele>694.20001220703125</ele>
        <time>2026-08-21T17:17:32.000Z</time>
        <extensions>
          <ns3:TrackPointExtension>
            <ns3:hr>144</ns3:hr>
            <ns3:cad>0</ns3:cad>
          </ns3:TrackPointExtension>
        </extensions>
      </trkpt>
      <trkpt lat="45.3205204568803310394287109375" lon="-70.935822911560535430908203125">
        <ele>694.4000244140625</ele>
        <time>2026-08-21T17:17:33.000Z</time>
        <extensions>
          <ns3:TrackPointExtension>
            <ns3:hr>144</ns3:hr>
            <ns3:cad>0</ns3:cad>
          </ns3:TrackPointExtension>
        </extensions>
      </trkpt>
      <trkpt lat="45.32051702030003070831298828125" lon="-70.93582802452147006988525390625">
        <ele>694.5999755859375</ele>
        <time>2026-08-21T17:17:34.000Z</time>
        <extensions>
          <ns3:TrackPointExtension>
            <ns3:hr>144</ns3:hr>
            <ns3:cad>0</ns3:cad>
          </ns3:TrackPointExtension>
        </extensions>
      </trkpt>
      <trkpt lat="45.3205157630145549774169921875" lon="-70.93582861125469207763671875">
        <ele>694.79998779296875</ele>
        <time>2026-08-21T17:17:35.000Z</time>
        <extensions>
          <ns3:TrackPointExtension>
            <ns3:hr>144</ns3:hr>
            <ns3:cad>0</ns3:cad>
          </ns3:TrackPointExtension>
        </extensions>
      </trkpt>
      <trkpt lat="45.320516936480998992919921875" lon="-70.93583338893949985504150390625">
        <ele>695</ele>
        <time>2026-08-21T17:17:36.000Z</time>
        <extensions>
          <ns3:TrackPointExtension>
            <ns3:hr>144</ns3:hr>
            <ns3:cad>0</ns3:cad>
          </ns3:TrackPointExtension>
        </extensions>
      </trkpt>
      <trkpt lat="45.32052037306129932403564453125" lon="-70.93583724461495876312255859375">
        <ele>695</ele>
        <time>2026-08-21T17:17:37.000Z</time>
        <extensions>
          <ns3:TrackPointExtension>
            <ns3:hr>144</ns3:hr>
            <ns3:cad>0</ns3:cad>
          </ns3:TrackPointExtension>
        </extensions>
      </trkpt>
      <trkpt lat="45.3205224685370922088623046875" lon="-70.93584470450878143310546875">
        <ele>695.20001220703125</ele>
        <time>2026-08-21T17:17:38.000Z</time>
        <extensions>
          <ns3:TrackPointExtension>
            <ns3:hr>144</ns3:hr>
            <ns3:cad>0</ns3:cad>
          </ns3:TrackPointExtension>
        </extensions>
      </trkpt>
      <trkpt lat="45.320522971451282501220703125" lon="-70.93584998510777950286865234375">
        <ele>695.4000244140625</ele>
        <time>2026-08-21T17:17:39.000Z</time>
        <extensions>
          <ns3:TrackPointExtension>
            <ns3:hr>144</ns3:hr>
            <ns3:cad>0</ns3:cad>
          </ns3:TrackPointExtension>
        </extensions>
      </trkpt>
      <trkpt lat="45.32052774913609027862548828125" lon="-70.9358592890202999114990234375">
        <ele>695.5999755859375</ele>
        <time>2026-08-21T17:17:40.000Z</time>
        <extensions>
          <ns3:TrackPointExtension>
            <ns3:hr>144</ns3:hr>
            <ns3:cad>0</ns3:cad>
          </ns3:TrackPointExtension>
        </extensions>
      </trkpt>
      <trkpt lat="45.32053076662123203277587890625" lon="-70.93586255796253681182861328125">
        <ele>696</ele>
        <time>2026-08-21T17:17:41.000Z</time>
        <extensions>
          <ns3:TrackPointExtension>
            <ns3:hr>145</ns3:hr>
            <ns3:cad>0</ns3:cad>
          </ns3:TrackPointExtension>
        </extensions>
      </trkpt>
      <trkpt lat="45.32053135335445404052734375" lon="-70.9358643181622028350830078125">
        <ele>696.20001220703125</ele>
        <time>2026-08-21T17:17:42.000Z</time>
        <extensions>
          <ns3:TrackPointExtension>
            <ns3:hr>145</ns3:hr>
            <ns3:cad>0</ns3:cad>
          </ns3:TrackPointExtension>
        </extensions>
      </trkpt>
      <trkpt lat="45.32053135335445404052734375" lon="-70.9358646534383296966552734375">
        <ele>696.4000244140625</ele>
        <time>2026-08-21T17:17:43.000Z</time>
        <extensions>
          <ns3:TrackPointExtension>
            <ns3:hr>146</ns3:hr>
            <ns3:cad>0</ns3:cad>
          </ns3:TrackPointExtension>
        </extensions>
      </trkpt>
      <trkpt lat="45.3205328620970249176025390625" lon="-70.93587161041796207427978515625">
        <ele>696.4000244140625</ele>
        <time>2026-08-21T17:17:44.000Z</time>
        <extensions>
          <ns3:TrackPointExtension>
            <ns3:hr>146</ns3:hr>
            <ns3:cad>0</ns3:cad>
          </ns3:TrackPointExtension>
        </extensions>
      </trkpt>
      <trkpt lat="45.32052892260253429412841796875" lon="-70.9358686767518520355224609375">
        <ele>696.5999755859375</ele>
        <time>2026-08-21T17:17:45.000Z</time>
        <extensions>
          <ns3:TrackPointExtension>
            <ns3:hr>146</ns3:hr>
            <ns3:cad>0</ns3:cad>
          </ns3:TrackPointExtension>
        </extensions>
      </trkpt>
      <trkpt lat="45.32052464783191680908203125" lon="-70.93586809001863002777099609375">
        <ele>696.79998779296875</ele>
        <time>2026-08-21T17:17:46.000Z</time>
        <extensions>
          <ns3:TrackPointExtension>
            <ns3:hr>146</ns3:hr>
            <ns3:cad>0</ns3:cad>
          </ns3:TrackPointExtension>
        </extensions>
      </trkpt>
      <trkpt lat="45.3205241449177265167236328125" lon="-70.9358720295131206512451171875">
        <ele>697</ele>
        <time>2026-08-21T17:17:47.000Z</time>
        <extensions>
          <ns3:TrackPointExtension>
            <ns3:hr>146</ns3:hr>
            <ns3:cad>0</ns3:cad>
          </ns3:TrackPointExtension>
        </extensions>
      </trkpt>
      <trkpt lat="45.32052204944193363189697265625" lon="-70.9358599595725536346435546875">
        <ele>697.20001220703125</ele>
        <time>2026-08-21T17:17:48.000Z</time>
        <extensions>
          <ns3:TrackPointExtension>
            <ns3:hr>147</ns3:hr>
            <ns3:cad>0</ns3:cad>
          </ns3:TrackPointExtension>
        </extensions>
      </trkpt>
      <trkpt lat="45.320518277585506439208984375" lon="-70.93586272560060024261474609375">
        <ele>697.5999755859375</ele>
        <time>2026-08-21T17:17:49.000Z</time>
        <extensions>
          <ns3:TrackPointExtension>
            <ns3:hr>146</ns3:hr>
            <ns3:cad>0</ns3:cad>
          </ns3:TrackPointExtension>
        </extensions>
      </trkpt>
      <trkpt lat="45.3205184452235698699951171875" lon="-70.93586624599993228912353515625">
        <ele>697.79998779296875</ele>
        <time>2026-08-21T17:17:50.000Z</time>
        <extensions>
          <ns3:TrackPointExtension>
            <ns3:hr>146</ns3:hr>
            <ns3:cad>0</ns3:cad>
          </ns3:TrackPointExtension>
        </extensions>
      </trkpt>
      <trkpt lat="45.32051886431872844696044921875" lon="-70.93587152659893035888671875">
        <ele>697.79998779296875</ele>
        <time>2026-08-21T17:17:51.000Z</time>
        <extensions>
          <ns3:TrackPointExtension>
            <ns3:hr>146</ns3:hr>
            <ns3:cad>0</ns3:cad>
          </ns3:TrackPointExtension>
        </extensions>
      </trkpt>
      <trkpt lat="45.3205164335668087005615234375" lon="-70.9358810819685459136962890625">
        <ele>698</ele>
        <time>2026-08-21T17:17:52.000Z</time>
        <extensions>
          <ns3:TrackPointExtension>
            <ns3:hr>146</ns3:hr>
            <ns3:cad>0</ns3:cad>
          </ns3:TrackPointExtension>
        </extensions>
      </trkpt>
      <trkpt lat="45.3205167688429355621337890625" lon="-70.93588619492948055267333984375">
        <ele>698.20001220703125</ele>
        <time>2026-08-21T17:17:53.000Z</time>
        <extensions>
          <ns3:TrackPointExtension>
            <ns3:hr>146</ns3:hr>
            <ns3:cad>0</ns3:cad>
          </ns3:TrackPointExtension>
        </extensions>
      </trkpt>
      <trkpt lat="45.32051517628133296966552734375" lon="-70.93589474447071552276611328125">
        <ele>698.20001220703125</ele>
        <time>2026-08-21T17:17:54.000Z</time>
        <extensions>
          <ns3:TrackPointExtension>
            <ns3:hr>146</ns3:hr>
            <ns3:cad>60</ns3:cad>
          </ns3:TrackPointExtension>
        </extensions>
      </trkpt>
      <trkpt lat="45.32051282934844493865966796875" lon="-70.93590631149709224700927734375">
        <ele>698.4000244140625</ele>
        <time>2026-08-21T17:17:55.000Z</time>
        <extensions>
          <ns3:TrackPointExtension>
            <ns3:hr>146</ns3:hr>
            <ns3:cad>60</ns3:cad>
          </ns3:TrackPointExtension>
        </extensions>
      </trkpt>
      <trkpt lat="45.3205150924623012542724609375" lon="-70.9359025396406650543212890625">
        <ele>698.5999755859375</ele>
        <time>2026-08-21T17:17:56.000Z</time>
        <extensions>
          <ns3:TrackPointExtension>
            <ns3:hr>146</ns3:hr>
            <ns3:cad>60</ns3:cad>
          </ns3:TrackPointExtension>
        </extensions>
      </trkpt>
      <trkpt lat="45.3205144219100475311279296875" lon="-70.93590932898223400115966796875">
        <ele>698.5999755859375</ele>
        <time>2026-08-21T17:17:57.000Z</time>
        <extensions>
          <ns3:TrackPointExtension>
            <ns3:hr>146</ns3:hr>
            <ns3:cad>60</ns3:cad>
          </ns3:TrackPointExtension>
        </extensions>
      </trkpt>
      <trkpt lat="45.320512242615222930908203125" lon="-70.93591653741896152496337890625">
        <ele>699</ele>
        <time>2026-08-21T17:17:58.000Z</time>
        <extensions>
          <ns3:TrackPointExtension>
            <ns3:hr>146</ns3:hr>
            <ns3:cad>60</ns3:cad>
          </ns3:TrackPointExtension>
        </extensions>
      </trkpt>
      <trkpt lat="45.32050721347332000732421875" lon="-70.93592240475118160247802734375">
        <ele>699.20001220703125</ele>
        <time>2026-08-21T17:17:59.000Z</time>
        <extensions>
          <ns3:TrackPointExtension>
            <ns3:hr>147</ns3:hr>
            <ns3:cad>60</ns3:cad>
          </ns3:TrackPointExtension>
        </extensions>
      </trkpt>
      <trkpt lat="45.32050595618784427642822265625" lon="-70.93592307530343532562255859375">
        <ele>699.4000244140625</ele>
        <time>2026-08-21T17:18:00.000Z</time>
        <extensions>
          <ns3:TrackPointExtension>
            <ns3:hr>147</ns3:hr>
            <ns3:cad>0</ns3:cad>
          </ns3:TrackPointExtension>
        </extensions>
      </trkpt>
      <trkpt lat="45.320499502122402191162109375" lon="-70.93593397177755832672119140625">
        <ele>699.5999755859375</ele>
        <time>2026-08-21T17:18:01.000Z</time>
        <extensions>
          <ns3:TrackPointExtension>
            <ns3:hr>146</ns3:hr>
            <ns3:cad>0</ns3:cad>
          </ns3:TrackPointExtension>
        </extensions>
      </trkpt>
      <trkpt lat="45.3204989992082118988037109375" lon="-70.935952328145503997802734375">
        <ele>699.79998779296875</ele>
        <time>2026-08-21T17:18:02.000Z</time>
        <extensions>
          <ns3:TrackPointExtension>
            <ns3:hr>147</ns3:hr>
            <ns3:cad>0</ns3:cad>
          </ns3:TrackPointExtension>
        </extensions>
      </trkpt>
      <trkpt lat="45.3204989992082118988037109375" lon="-70.93596397899091243743896484375">
        <ele>700</ele>
        <time>2026-08-21T17:18:03.000Z</time>
        <extensions>
          <ns3:TrackPointExtension>
            <ns3:hr>146</ns3:hr>
            <ns3:cad>0</ns3:cad>
          </ns3:TrackPointExtension>
        </extensions>
      </trkpt>
      <trkpt lat="45.3205026872456073760986328125" lon="-70.9359769709408283233642578125">
        <ele>700</ele>
        <time>2026-08-21T17:18:04.000Z</time>
        <extensions>
          <ns3:TrackPointExtension>
            <ns3:hr>146</ns3:hr>
            <ns3:cad>0</ns3:cad>
          </ns3:TrackPointExtension>
        </extensions>
      </trkpt>
      <trkpt lat="45.3205023519694805145263671875" lon="-70.93598828651010990142822265625">
        <ele>700.20001220703125</ele>
        <time>2026-08-21T17:18:05.000Z</time>
        <extensions>
          <ns3:TrackPointExtension>
            <ns3:hr>146</ns3:hr>
            <ns3:cad>0</ns3:cad>
          </ns3:TrackPointExtension>
        </extensions>
      </trkpt>
      <trkpt lat="45.3205023519694805145263671875" lon="-70.93599918298423290252685546875">
        <ele>700.4000244140625</ele>
        <time>2026-08-21T17:18:06.000Z</time>
        <extensions>
          <ns3:TrackPointExtension>
            <ns3:hr>146</ns3:hr>
            <ns3:cad>0</ns3:cad>
          </ns3:TrackPointExtension>
        </extensions>
      </trkpt>
      <trkpt lat="45.3205016814172267913818359375" lon="-70.936008989810943603515625">
        <ele>700.5999755859375</ele>
        <time>2026-08-21T17:18:07.000Z</time>
        <extensions>
          <ns3:TrackPointExtension>
            <ns3:hr>146</ns3:hr>
            <ns3:cad>0</ns3:cad>
          </ns3:TrackPointExtension>
        </extensions>
      </trkpt>
      <trkpt lat="45.320498831570148468017578125" lon="-70.93601427040994167327880859375">
        <ele>700.79998779296875</ele>
        <time>2026-08-21T17:18:08.000Z</time>
        <extensions>
          <ns3:TrackPointExtension>
            <ns3:hr>146</ns3:hr>
            <ns3:cad>0</ns3:cad>
          </ns3:TrackPointExtension>
        </extensions>
      </trkpt>
      <trkpt lat="45.32049640081822872161865234375" lon="-70.9360237419605255126953125">
        <ele>700.79998779296875</ele>
        <time>2026-08-21T17:18:09.000Z</time>
        <extensions>
          <ns3:TrackPointExtension>
            <ns3:hr>146</ns3:hr>
            <ns3:cad>0</ns3:cad>
          </ns3:TrackPointExtension>
        </extensions>
      </trkpt>
      <trkpt lat="45.32049723900854587554931640625" lon="-70.9360366500914096832275390625">
        <ele>701</ele>
        <time>2026-08-21T17:18:10.000Z</time>
        <extensions>
          <ns3:TrackPointExtension>
            <ns3:hr>146</ns3:hr>
            <ns3:cad>0</ns3:cad>
          </ns3:TrackPointExtension>
        </extensions>
      </trkpt>
      <trkpt lat="45.3204966522753238677978515625" lon="-70.93604628928005695343017578125">
        <ele>701.20001220703125</ele>
        <time>2026-08-21T17:18:11.000Z</time>
        <extensions>
          <ns3:TrackPointExtension>
            <ns3:hr>146</ns3:hr>
            <ns3:cad>72</ns3:cad>
          </ns3:TrackPointExtension>
        </extensions>
      </trkpt>
      <trkpt lat="45.3204979933798313140869140625" lon="-70.936058945953845977783203125">
        <ele>701.4000244140625</ele>
        <time>2026-08-21T17:18:12.000Z</time>
        <extensions>
          <ns3:TrackPointExtension>
            <ns3:hr>145</ns3:hr>
            <ns3:cad>74</ns3:cad>
          </ns3:TrackPointExtension>
        </extensions>
      </trkpt>
      <trkpt lat="45.32049623318016529083251953125" lon="-70.93607026152312755584716796875">
        <ele>701.5999755859375</ele>
        <time>2026-08-21T17:18:13.000Z</time>
        <extensions>
          <ns3:TrackPointExtension>
            <ns3:hr>144</ns3:hr>
            <ns3:cad>74</ns3:cad>
          </ns3:TrackPointExtension>
        </extensions>
      </trkpt>
      <trkpt lat="45.32049522735178470611572265625" lon="-70.93607361428439617156982421875">
        <ele>701.5999755859375</ele>
        <time>2026-08-21T17:18:14.000Z</time>
        <extensions>
          <ns3:TrackPointExtension>
            <ns3:hr>144</ns3:hr>
            <ns3:cad>77</ns3:cad>
          </ns3:TrackPointExtension>
        </extensions>
      </trkpt>
      <trkpt lat="45.3204912878572940826416015625" lon="-70.9360812418162822723388671875">
        <ele>701.79998779296875</ele>
        <time>2026-08-21T17:18:15.000Z</time>
        <extensions>
          <ns3:TrackPointExtension>
            <ns3:hr>144</ns3:hr>
            <ns3:cad>77</ns3:cad>
          </ns3:TrackPointExtension>
        </extensions>
      </trkpt>
      <trkpt lat="45.32048885710537433624267578125" lon="-70.936089456081390380859375">
        <ele>702</ele>
        <time>2026-08-21T17:18:16.000Z</time>
        <extensions>
          <ns3:TrackPointExtension>
            <ns3:hr>144</ns3:hr>
            <ns3:cad>40</ns3:cad>
          </ns3:TrackPointExtension>
        </extensions>
      </trkpt>
      <trkpt lat="45.32048349268734455108642578125" lon="-70.93609523959457874298095703125">
        <ele>702</ele>
        <time>2026-08-21T17:18:17.000Z</time>
        <extensions>
          <ns3:TrackPointExtension>
            <ns3:hr>144</ns3:hr>
            <ns3:cad>40</ns3:cad>
          </ns3:TrackPointExtension>
        </extensions>
      </trkpt>
      <trkpt lat="45.32047511078417301177978515625" lon="-70.93610043637454509735107421875">
        <ele>702</ele>
        <time>2026-08-21T17:18:18.000Z</time>
        <extensions>
          <ns3:TrackPointExtension>
            <ns3:hr>144</ns3:hr>
            <ns3:cad>40</ns3:cad>
          </ns3:TrackPointExtension>
        </extensions>
      </trkpt>
      <trkpt lat="45.320470333099365234375" lon="-70.93610278330743312835693359375">
        <ele>702.20001220703125</ele>
        <time>2026-08-21T17:18:19.000Z</time>
        <extensions>
          <ns3:TrackPointExtension>
            <ns3:hr>144</ns3:hr>
            <ns3:cad>41</ns3:cad>
          </ns3:TrackPointExtension>
        </extensions>
      </trkpt>
      <trkpt lat="45.32046563923358917236328125" lon="-70.93610177747905254364013671875">
        <ele>702.20001220703125</ele>
        <time>2026-08-21T17:18:20.000Z</time>
        <extensions>
          <ns3:TrackPointExtension>
            <ns3:hr>145</ns3:hr>
            <ns3:cad>41</ns3:cad>
          </ns3:TrackPointExtension>
        </extensions>
      </trkpt>
      <trkpt lat="45.32045801170170307159423828125" lon="-70.93610177747905254364013671875">
        <ele>702.4000244140625</ele>
        <time>2026-08-21T17:18:21.000Z</time>
        <extensions>
          <ns3:TrackPointExtension>
            <ns3:hr>145</ns3:hr>
            <ns3:cad>40</ns3:cad>
          </ns3:TrackPointExtension>
        </extensions>
      </trkpt>
      <trkpt lat="45.32045432366430759429931640625" lon="-70.936106555163860321044921875">
        <ele>702.4000244140625</ele>
        <time>2026-08-21T17:18:22.000Z</time>
        <extensions>
          <ns3:TrackPointExtension>
            <ns3:hr>144</ns3:hr>
            <ns3:cad>40</ns3:cad>
          </ns3:TrackPointExtension>
        </extensions>
      </trkpt>
      <trkpt lat="45.32045030035078525543212890625" lon="-70.93611284159123897552490234375">
        <ele>702.5999755859375</ele>
        <time>2026-08-21T17:18:23.000Z</time>
        <extensions>
          <ns3:TrackPointExtension>
            <ns3:hr>144</ns3:hr>
            <ns3:cad>40</ns3:cad>
          </ns3:TrackPointExtension>
        </extensions>
      </trkpt>
      <trkpt lat="45.3204448521137237548828125" lon="-70.936123318970203399658203125">
        <ele>702.5999755859375</ele>
        <time>2026-08-21T17:18:24.000Z</time>
        <extensions>
          <ns3:TrackPointExtension>
            <ns3:hr>144</ns3:hr>
            <ns3:cad>40</ns3:cad>
          </ns3:TrackPointExtension>
        </extensions>
      </trkpt>
      <trkpt lat="45.32044074498116970062255859375" lon="-70.936132036149501800537109375">
        <ele>702.79998779296875</ele>
        <time>2026-08-21T17:18:25.000Z</time>
        <extensions>
          <ns3:TrackPointExtension>
            <ns3:hr>144</ns3:hr>
            <ns3:cad>40</ns3:cad>
          </ns3:TrackPointExtension>
        </extensions>
      </trkpt>
      <trkpt lat="45.32043479382991790771484375" lon="-70.93614435754716396331787109375">
        <ele>703</ele>
        <time>2026-08-21T17:18:26.000Z</time>
        <extensions>
          <ns3:TrackPointExtension>
            <ns3:hr>144</ns3:hr>
            <ns3:cad>75</ns3:cad>
          </ns3:TrackPointExtension>
        </extensions>
      </trkpt>
      <trkpt lat="45.32043303363025188446044921875" lon="-70.93615978024899959564208984375">
        <ele>703.20001220703125</ele>
        <time>2026-08-21T17:18:27.000Z</time>
        <extensions>
          <ns3:TrackPointExtension>
            <ns3:hr>143</ns3:hr>
            <ns3:cad>75</ns3:cad>
          </ns3:TrackPointExtension>
        </extensions>
      </trkpt>
      <trkpt lat="45.32043454237282276153564453125" lon="-70.93616179190576076507568359375">
        <ele>703.4000244140625</ele>
        <time>2026-08-21T17:18:28.000Z</time>
        <extensions>
          <ns3:TrackPointExtension>
            <ns3:hr>143</ns3:hr>
            <ns3:cad>75</ns3:cad>
          </ns3:TrackPointExtension>
        </extensions>
      </trkpt>
      <trkpt lat="45.32043320126831531524658203125" lon="-70.93617402948439121246337890625">
        <ele>703.5999755859375</ele>
        <time>2026-08-21T17:18:29.000Z</time>
        <extensions>
          <ns3:TrackPointExtension>
            <ns3:hr>143</ns3:hr>
            <ns3:cad>75</ns3:cad>
          </ns3:TrackPointExtension>
        </extensions>
      </trkpt>
      <trkpt lat="45.3204314410686492919921875" lon="-70.9361828304827213287353515625">
        <ele>703.79998779296875</ele>
        <time>2026-08-21T17:18:30.000Z</time>
        <extensions>
          <ns3:TrackPointExtension>
            <ns3:hr>142</ns3:hr>
            <ns3:cad>75</ns3:cad>
          </ns3:TrackPointExtension>
        </extensions>
      </trkpt>
      <trkpt lat="45.3204306028783321380615234375" lon="-70.9361868537962436676025390625">
        <ele>704</ele>
        <time>2026-08-21T17:18:31.000Z</time>
        <extensions>
          <ns3:TrackPointExtension>
            <ns3:hr>142</ns3:hr>
            <ns3:cad>75</ns3:cad>
          </ns3:TrackPointExtension>
        </extensions>
      </trkpt>
      <trkpt lat="45.32042448408901691436767578125" lon="-70.9361938945949077606201171875">
        <ele>704.20001220703125</ele>
        <time>2026-08-21T17:18:32.000Z</time>
        <extensions>
          <ns3:TrackPointExtension>
            <ns3:hr>142</ns3:hr>
            <ns3:cad>75</ns3:cad>
          </ns3:TrackPointExtension>
        </extensions>
      </trkpt>
      <trkpt lat="45.320419706404209136962890625" lon="-70.93619464896619319915771484375">
        <ele>704.4000244140625</ele>
        <time>2026-08-21T17:18:33.000Z</time>
        <extensions>
          <ns3:TrackPointExtension>
            <ns3:hr>142</ns3:hr>
            <ns3:cad>75</ns3:cad>
          </ns3:TrackPointExtension>
        </extensions>
      </trkpt>
      <trkpt lat="45.32041509635746479034423828125" lon="-70.936198420822620391845703125">
        <ele>704.5999755859375</ele>
        <time>2026-08-21T17:18:34.000Z</time>
        <extensions>
          <ns3:TrackPointExtension>
            <ns3:hr>142</ns3:hr>
            <ns3:cad>0</ns3:cad>
          </ns3:TrackPointExtension>
        </extensions>
      </trkpt>
      <trkpt lat="45.32040302641689777374267578125" lon="-70.93620638363063335418701171875">
        <ele>704.79998779296875</ele>
        <time>2026-08-21T17:18:35.000Z</time>
        <extensions>
          <ns3:TrackPointExtension>
            <ns3:hr>142</ns3:hr>
            <ns3:cad>0</ns3:cad>
          </ns3:TrackPointExtension>
        </extensions>
      </trkpt>
      <trkpt lat="45.3203960694372653961181640625" lon="-70.93621694482862949371337890625">
        <ele>704.79998779296875</ele>
        <time>2026-08-21T17:18:36.000Z</time>
        <extensions>
          <ns3:TrackPointExtension>
            <ns3:hr>141</ns3:hr>
            <ns3:cad>0</ns3:cad>
          </ns3:TrackPointExtension>
        </extensions>
      </trkpt>
      <trkpt lat="45.32038894481956958770751953125" lon="-70.93622432090342044830322265625">
        <ele>705</ele>
        <time>2026-08-21T17:18:37.000Z</time>
        <extensions>
          <ns3:TrackPointExtension>
            <ns3:hr>141</ns3:hr>
            <ns3:cad>0</ns3:cad>
          </ns3:TrackPointExtension>
        </extensions>
      </trkpt>
      <trkpt lat="45.3203850053250789642333984375" lon="-70.9362415038049221038818359375">
        <ele>705.20001220703125</ele>
        <time>2026-08-21T17:18:38.000Z</time>
        <extensions>
          <ns3:TrackPointExtension>
            <ns3:hr>141</ns3:hr>
            <ns3:cad>19</ns3:cad>
          </ns3:TrackPointExtension>
        </extensions>
      </trkpt>
      <trkpt lat="45.32038257457315921783447265625" lon="-70.93625265173614025115966796875">
        <ele>705.20001220703125</ele>
        <time>2026-08-21T17:18:39.000Z</time>
        <extensions>
          <ns3:TrackPointExtension>
            <ns3:hr>140</ns3:hr>
            <ns3:cad>41</ns3:cad>
          </ns3:TrackPointExtension>
        </extensions>
      </trkpt>
      <trkpt lat="45.32037938944995403289794921875" lon="-70.9362622909247875213623046875">
        <ele>705.4000244140625</ele>
        <time>2026-08-21T17:18:40.000Z</time>
        <extensions>
          <ns3:TrackPointExtension>
            <ns3:hr>140</ns3:hr>
            <ns3:cad>41</ns3:cad>
          </ns3:TrackPointExtension>
        </extensions>
      </trkpt>
      <trkpt lat="45.320376120507717132568359375" lon="-70.9362710081040859222412109375">
        <ele>705.5999755859375</ele>
        <time>2026-08-21T17:18:41.000Z</time>
        <extensions>
          <ns3:TrackPointExtension>
            <ns3:hr>140</ns3:hr>
            <ns3:cad>43</ns3:cad>
          </ns3:TrackPointExtension>
        </extensions>
      </trkpt>
      <trkpt lat="45.32037033699452877044677734375" lon="-70.93628450296819210052490234375">
        <ele>705.79998779296875</ele>
        <time>2026-08-21T17:18:42.000Z</time>
        <extensions>
          <ns3:TrackPointExtension>
            <ns3:hr>139</ns3:hr>
            <ns3:cad>43</ns3:cad>
          </ns3:TrackPointExtension>
        </extensions>
      </trkpt>
      <trkpt lat="45.3203672356903553009033203125" lon="-70.936284922063350677490234375">
        <ele>706</ele>
        <time>2026-08-21T17:18:43.000Z</time>
        <extensions>
          <ns3:TrackPointExtension>
            <ns3:hr>138</ns3:hr>
            <ns3:cad>43</ns3:cad>
          </ns3:TrackPointExtension>
        </extensions>
      </trkpt>
      <trkpt lat="45.3203615359961986541748046875" lon="-70.936293639242649078369140625">
        <ele>706.20001220703125</ele>
        <time>2026-08-21T17:18:44.000Z</time>
        <extensions>
          <ns3:TrackPointExtension>
            <ns3:hr>139</ns3:hr>
            <ns3:cad>43</ns3:cad>
          </ns3:TrackPointExtension>
        </extensions>
      </trkpt>
      <trkpt lat="45.320356003940105438232421875" lon="-70.9363072179257869720458984375">
        <ele>706.4000244140625</ele>
        <time>2026-08-21T17:18:45.000Z</time>
        <extensions>
          <ns3:TrackPointExtension>
            <ns3:hr>139</ns3:hr>
            <ns3:cad>43</ns3:cad>
          </ns3:TrackPointExtension>
        </extensions>
      </trkpt>
      <trkpt lat="45.320349633693695068359375" lon="-70.936307720839977264404296875">
        <ele>706.79998779296875</ele>
        <time>2026-08-21T17:18:46.000Z</time>
        <extensions>
          <ns3:TrackPointExtension>
            <ns3:hr>138</ns3:hr>
            <ns3:cad>43</ns3:cad>
          </ns3:TrackPointExtension>
        </extensions>
      </trkpt>
      <trkpt lat="45.3203437663614749908447265625" lon="-70.93630696646869182586669921875">
        <ele>707</ele>
        <time>2026-08-21T17:18:47.000Z</time>
        <extensions>
          <ns3:TrackPointExtension>
            <ns3:hr>138</ns3:hr>
            <ns3:cad>43</ns3:cad>
          </ns3:TrackPointExtension>
        </extensions>
      </trkpt>
      <trkpt lat="45.32033345662057399749755859375" lon="-70.93630629591643810272216796875">
        <ele>707.20001220703125</ele>
        <time>2026-08-21T17:18:48.000Z</time>
        <extensions>
          <ns3:TrackPointExtension>
            <ns3:hr>138</ns3:hr>
            <ns3:cad>43</ns3:cad>
          </ns3:TrackPointExtension>
        </extensions>
      </trkpt>
      <trkpt lat="45.3203233145177364349365234375" lon="-70.936311073601245880126953125">
        <ele>707.20001220703125</ele>
        <time>2026-08-21T17:18:49.000Z</time>
        <extensions>
          <ns3:TrackPointExtension>
            <ns3:hr>138</ns3:hr>
            <ns3:cad>43</ns3:cad>
          </ns3:TrackPointExtension>
        </extensions>
      </trkpt>
      <trkpt lat="45.3203189559280872344970703125" lon="-70.93631652183830738067626953125">
        <ele>707.4000244140625</ele>
        <time>2026-08-21T17:18:50.000Z</time>
        <extensions>
          <ns3:TrackPointExtension>
            <ns3:hr>138</ns3:hr>
            <ns3:cad>43</ns3:cad>
          </ns3:TrackPointExtension>
        </extensions>
      </trkpt>
      <trkpt lat="45.32030931673943996429443359375" lon="-70.93633311800658702850341796875">
        <ele>707.4000244140625</ele>
        <time>2026-08-21T17:18:51.000Z</time>
        <extensions>
          <ns3:TrackPointExtension>
            <ns3:hr>138</ns3:hr>
            <ns3:cad>0</ns3:cad>
          </ns3:TrackPointExtension>
        </extensions>
      </trkpt>
      <trkpt lat="45.32030596397817134857177734375" lon="-70.93634200282394886016845703125">
        <ele>707.5999755859375</ele>
        <time>2026-08-21T17:18:52.000Z</time>
        <extensions>
          <ns3:TrackPointExtension>
            <ns3:hr>138</ns3:hr>
            <ns3:cad>0</ns3:cad>
          </ns3:TrackPointExtension>
        </extensions>
      </trkpt>
      <trkpt lat="45.320301689207553863525390625" lon="-70.93635725788772106170654296875">
        <ele>707.5999755859375</ele>
        <time>2026-08-21T17:18:53.000Z</time>
        <extensions>
          <ns3:TrackPointExtension>
            <ns3:hr>138</ns3:hr>
            <ns3:cad>60</ns3:cad>
          </ns3:TrackPointExtension>
        </extensions>
      </trkpt>
      <trkpt lat="45.3203018568456172943115234375" lon="-70.93636798672378063201904296875">
        <ele>707.79998779296875</ele>
        <time>2026-08-21T17:18:54.000Z</time>
        <extensions>
          <ns3:TrackPointExtension>
            <ns3:hr>138</ns3:hr>
            <ns3:cad>60</ns3:cad>
          </ns3:TrackPointExtension>
        </extensions>
      </trkpt>
      <trkpt lat="45.32030479051172733306884765625" lon="-70.93638290651142597198486328125">
        <ele>708</ele>
        <time>2026-08-21T17:18:55.000Z</time>
        <extensions>
          <ns3:TrackPointExtension>
            <ns3:hr>138</ns3:hr>
            <ns3:cad>60</ns3:cad>
          </ns3:TrackPointExtension>
        </extensions>
      </trkpt>
      <trkpt lat="45.32030311413109302520751953125" lon="-70.9363920427858829498291015625">
        <ele>708</ele>
        <time>2026-08-21T17:18:56.000Z</time>
        <extensions>
          <ns3:TrackPointExtension>
            <ns3:hr>138</ns3:hr>
            <ns3:cad>0</ns3:cad>
          </ns3:TrackPointExtension>
        </extensions>
      </trkpt>
      <trkpt lat="45.3203015215694904327392578125" lon="-70.93640126287937164306640625">
        <ele>708</ele>
        <time>2026-08-21T17:18:57.000Z</time>
        <extensions>
          <ns3:TrackPointExtension>
            <ns3:hr>138</ns3:hr>
            <ns3:cad>0</ns3:cad>
          </ns3:TrackPointExtension>
        </extensions>
      </trkpt>
      <trkpt lat="45.3203026950359344482421875" lon="-70.93641601502895355224609375">
        <ele>708.20001220703125</ele>
        <time>2026-08-21T17:18:58.000Z</time>
        <extensions>
          <ns3:TrackPointExtension>
            <ns3:hr>137</ns3:hr>
            <ns3:cad>0</ns3:cad>
          </ns3:TrackPointExtension>
        </extensions>
      </trkpt>
      <trkpt lat="45.3203042037785053253173828125" lon="-70.93641526065766811370849609375">
        <ele>708.20001220703125</ele>
        <time>2026-08-21T17:18:59.000Z</time>
        <extensions>
          <ns3:TrackPointExtension>
            <ns3:hr>138</ns3:hr>
            <ns3:cad>0</ns3:cad>
          </ns3:TrackPointExtension>
        </extensions>
      </trkpt>
      <trkpt lat="45.3203018568456172943115234375" lon="-70.9364192001521587371826171875">
        <ele>708.4000244140625</ele>
        <time>2026-08-21T17:19:00.000Z</time>
        <extensions>
          <ns3:TrackPointExtension>
            <ns3:hr>137</ns3:hr>
            <ns3:cad>0</ns3:cad>
          </ns3:TrackPointExtension>
        </extensions>
      </trkpt>
      <trkpt lat="45.3203001804649829864501953125" lon="-70.93642330728471279144287109375">
        <ele>708.5999755859375</ele>
        <time>2026-08-21T17:19:01.000Z</time>
        <extensions>
          <ns3:TrackPointExtension>
            <ns3:hr>138</ns3:hr>
            <ns3:cad>0</ns3:cad>
          </ns3:TrackPointExtension>
        </extensions>
      </trkpt>
      <trkpt lat="45.320297665894031524658203125" lon="-70.936422049999237060546875">
        <ele>708.79998779296875</ele>
        <time>2026-08-21T17:19:02.000Z</time>
        <extensions>
          <ns3:TrackPointExtension>
            <ns3:hr>138</ns3:hr>
            <ns3:cad>0</ns3:cad>
          </ns3:TrackPointExtension>
        </extensions>
      </trkpt>
      <trkpt lat="45.32029506750404834747314453125" lon="-70.93642950989305973052978515625">
        <ele>709</ele>
        <time>2026-08-21T17:19:03.000Z</time>
        <extensions>
          <ns3:TrackPointExtension>
            <ns3:hr>138</ns3:hr>
            <ns3:cad>0</ns3:cad>
          </ns3:TrackPointExtension>
        </extensions>
      </trkpt>
      <trkpt lat="45.32029322348535060882568359375" lon="-70.936438143253326416015625">
        <ele>709</ele>
        <time>2026-08-21T17:19:04.000Z</time>
        <extensions>
          <ns3:TrackPointExtension>
            <ns3:hr>138</ns3:hr>
            <ns3:cad>0</ns3:cad>
          </ns3:TrackPointExtension>
        </extensions>
      </trkpt>
      <trkpt lat="45.32029288820922374725341796875" lon="-70.93644359149038791656494140625">
        <ele>709.20001220703125</ele>
        <time>2026-08-21T17:19:05.000Z</time>
        <extensions>
          <ns3:TrackPointExtension>
            <ns3:hr>137</ns3:hr>
            <ns3:cad>0</ns3:cad>
          </ns3:TrackPointExtension>
        </extensions>
      </trkpt>
      <trkpt lat="45.32028861343860626220703125" lon="-70.93645415268838405609130859375">
        <ele>709.4000244140625</ele>
        <time>2026-08-21T17:19:06.000Z</time>
        <extensions>
          <ns3:TrackPointExtension>
            <ns3:hr>137</ns3:hr>
            <ns3:cad>0</ns3:cad>
          </ns3:TrackPointExtension>
        </extensions>
      </trkpt>
      <trkpt lat="45.3202877752482891082763671875" lon="-70.93646102584898471832275390625">
        <ele>709.5999755859375</ele>
        <time>2026-08-21T17:19:07.000Z</time>
        <extensions>
          <ns3:TrackPointExtension>
            <ns3:hr>137</ns3:hr>
            <ns3:cad>0</ns3:cad>
          </ns3:TrackPointExtension>
        </extensions>
      </trkpt>
      <trkpt lat="45.32028584741055965423583984375" lon="-70.93647510744631290435791015625">
        <ele>709.79998779296875</ele>
        <time>2026-08-21T17:19:08.000Z</time>
        <extensions>
          <ns3:TrackPointExtension>
            <ns3:hr>137</ns3:hr>
            <ns3:cad>0</ns3:cad>
          </ns3:TrackPointExtension>
        </extensions>
      </trkpt>
      <trkpt lat="45.32028995454311370849609375" lon="-70.936480723321437835693359375">
        <ele>710</ele>
        <time>2026-08-21T17:19:09.000Z</time>
        <extensions>
          <ns3:TrackPointExtension>
            <ns3:hr>136</ns3:hr>
            <ns3:cad>0</ns3:cad>
          </ns3:TrackPointExtension>
        </extensions>
      </trkpt>
      <trkpt lat="45.32029054127633571624755859375" lon="-70.936491452157497406005859375">
        <ele>710</ele>
        <time>2026-08-21T17:19:10.000Z</time>
        <extensions>
          <ns3:TrackPointExtension>
            <ns3:hr>136</ns3:hr>
            <ns3:cad>0</ns3:cad>
          </ns3:TrackPointExtension>
        </extensions>
      </trkpt>
      <trkpt lat="45.3202897869050502777099609375" lon="-70.93650025315582752227783203125">
        <ele>710.20001220703125</ele>
        <time>2026-08-21T17:19:11.000Z</time>
        <extensions>
          <ns3:TrackPointExtension>
            <ns3:hr>136</ns3:hr>
            <ns3:cad>0</ns3:cad>
          </ns3:TrackPointExtension>
        </extensions>
      </trkpt>
      <trkpt lat="45.32028819434344768524169921875" lon="-70.9365006722509860992431640625">
        <ele>710.4000244140625</ele>
        <time>2026-08-21T17:19:12.000Z</time>
        <extensions>
          <ns3:TrackPointExtension>
            <ns3:hr>136</ns3:hr>
            <ns3:cad>0</ns3:cad>
          </ns3:TrackPointExtension>
        </extensions>
      </trkpt>
      <trkpt lat="45.32028517685830593109130859375" lon="-70.93651525676250457763671875">
        <ele>710.5999755859375</ele>
        <time>2026-08-21T17:19:13.000Z</time>
        <extensions>
          <ns3:TrackPointExtension>
            <ns3:hr>136</ns3:hr>
            <ns3:cad>0</ns3:cad>
          </ns3:TrackPointExtension>
        </extensions>
      </trkpt>
      <trkpt lat="45.32028668560087680816650390625" lon="-70.9365254826843738555908203125">
        <ele>711</ele>
        <time>2026-08-21T17:19:14.000Z</time>
        <extensions>
          <ns3:TrackPointExtension>
            <ns3:hr>136</ns3:hr>
            <ns3:cad>0</ns3:cad>
          </ns3:TrackPointExtension>
        </extensions>
      </trkpt>
      <trkpt lat="45.32029037363827228546142578125" lon="-70.9365375526249408721923828125">
        <ele>711.20001220703125</ele>
        <time>2026-08-21T17:19:15.000Z</time>
        <extensions>
          <ns3:TrackPointExtension>
            <ns3:hr>135</ns3:hr>
            <ns3:cad>0</ns3:cad>
          </ns3:TrackPointExtension>
        </extensions>
      </trkpt>
      <trkpt lat="45.3202931396663188934326171875" lon="-70.93654601834714412689208984375">
        <ele>711.5999755859375</ele>
        <time>2026-08-21T17:19:16.000Z</time>
        <extensions>
          <ns3:TrackPointExtension>
            <ns3:hr>136</ns3:hr>
            <ns3:cad>0</ns3:cad>
          </ns3:TrackPointExtension>
        </extensions>
      </trkpt>
      <trkpt lat="45.32030294649302959442138671875" lon="-70.93655414879322052001953125">
        <ele>711.79998779296875</ele>
        <time>2026-08-21T17:19:17.000Z</time>
        <extensions>
          <ns3:TrackPointExtension>
            <ns3:hr>136</ns3:hr>
            <ns3:cad>0</ns3:cad>
          </ns3:TrackPointExtension>
        </extensions>
      </trkpt>
      <trkpt lat="45.32031049020588397979736328125" lon="-70.93656479381024837493896484375">
        <ele>712</ele>
        <time>2026-08-21T17:19:18.000Z</time>
        <extensions>
          <ns3:TrackPointExtension>
            <ns3:hr>137</ns3:hr>
            <ns3:cad>0</ns3:cad>
          </ns3:TrackPointExtension>
        </extensions>
      </trkpt>
      <trkpt lat="45.32031216658651828765869140625" lon="-70.93657149933278560638427734375">
        <ele>712.20001220703125</ele>
        <time>2026-08-21T17:19:19.000Z</time>
        <extensions>
          <ns3:TrackPointExtension>
            <ns3:hr>137</ns3:hr>
            <ns3:cad>0</ns3:cad>
          </ns3:TrackPointExtension>
        </extensions>
      </trkpt>
      <trkpt lat="45.32031719572842121124267578125" lon="-70.9365771152079105377197265625">
        <ele>712.4000244140625</ele>
        <time>2026-08-21T17:19:20.000Z</time>
        <extensions>
          <ns3:TrackPointExtension>
            <ns3:hr>137</ns3:hr>
            <ns3:cad>0</ns3:cad>
          </ns3:TrackPointExtension>
        </extensions>
      </trkpt>
      <trkpt lat="45.32031937502324581146240234375" lon="-70.9365811385214328765869140625">
        <ele>712.79998779296875</ele>
        <time>2026-08-21T17:19:21.000Z</time>
        <extensions>
          <ns3:TrackPointExtension>
            <ns3:hr>137</ns3:hr>
            <ns3:cad>0</ns3:cad>
          </ns3:TrackPointExtension>
        </extensions>
      </trkpt>
      <trkpt lat="45.320320464670658111572265625" lon="-70.93658725731074810028076171875">
        <ele>713</ele>
        <time>2026-08-21T17:19:22.000Z</time>
        <extensions>
          <ns3:TrackPointExtension>
            <ns3:hr>137</ns3:hr>
            <ns3:cad>0</ns3:cad>
          </ns3:TrackPointExtension>
        </extensions>
      </trkpt>
      <trkpt lat="45.32031669281423091888427734375" lon="-70.9365891851484775543212890625">
        <ele>713.20001220703125</ele>
        <time>2026-08-21T17:19:23.000Z</time>
        <extensions>
          <ns3:TrackPointExtension>
            <ns3:hr>137</ns3:hr>
            <ns3:cad>0</ns3:cad>
          </ns3:TrackPointExtension>
        </extensions>
      </trkpt>
      <trkpt lat="45.32031769864261150360107421875" lon="-70.93659915961325168609619140625">
        <ele>713.4000244140625</ele>
        <time>2026-08-21T17:19:24.000Z</time>
        <extensions>
          <ns3:TrackPointExtension>
            <ns3:hr>138</ns3:hr>
            <ns3:cad>0</ns3:cad>
          </ns3:TrackPointExtension>
        </extensions>
      </trkpt>
      <trkpt lat="45.32031971029937267303466796875" lon="-70.9366057813167572021484375">
        <ele>713.5999755859375</ele>
        <time>2026-08-21T17:19:25.000Z</time>
        <extensions>
          <ns3:TrackPointExtension>
            <ns3:hr>138</ns3:hr>
            <ns3:cad>0</ns3:cad>
          </ns3:TrackPointExtension>
        </extensions>
      </trkpt>
      <trkpt lat="45.32032121904194355010986328125" lon="-70.93661106191575527191162109375">
        <ele>713.79998779296875</ele>
        <time>2026-08-21T17:19:26.000Z</time>
        <extensions>
          <ns3:TrackPointExtension>
            <ns3:hr>138</ns3:hr>
            <ns3:cad>0</ns3:cad>
          </ns3:TrackPointExtension>
        </extensions>
      </trkpt>
      <trkpt lat="45.3203270025551319122314453125" lon="-70.93662547878921031951904296875">
        <ele>714</ele>
        <time>2026-08-21T17:19:27.000Z</time>
        <extensions>
          <ns3:TrackPointExtension>
            <ns3:hr>139</ns3:hr>
            <ns3:cad>0</ns3:cad>
          </ns3:TrackPointExtension>
        </extensions>
      </trkpt>
      <trkpt lat="45.32033152878284454345703125" lon="-70.93663503415882587432861328125">
        <ele>714.20001220703125</ele>
        <time>2026-08-21T17:19:28.000Z</time>
        <extensions>
          <ns3:TrackPointExtension>
            <ns3:hr>139</ns3:hr>
            <ns3:cad>0</ns3:cad>
          </ns3:TrackPointExtension>
        </extensions>
      </trkpt>
      <trkpt lat="45.3203373961150646209716796875" lon="-70.93663888983428478240966796875">
        <ele>714.4000244140625</ele>
        <time>2026-08-21T17:19:29.000Z</time>
        <extensions>
          <ns3:TrackPointExtension>
            <ns3:hr>139</ns3:hr>
            <ns3:cad>0</ns3:cad>
          </ns3:TrackPointExtension>
        </extensions>
      </trkpt>
      <trkpt lat="45.3203437663614749908447265625" lon="-70.9366438351571559906005859375">
        <ele>714.5999755859375</ele>
        <time>2026-08-21T17:19:30.000Z</time>
        <extensions>
          <ns3:TrackPointExtension>
            <ns3:hr>140</ns3:hr>
            <ns3:cad>0</ns3:cad>
          </ns3:TrackPointExtension>
        </extensions>
      </trkpt>
      <trkpt lat="45.320349633693695068359375" lon="-70.93665397725999355316162109375">
        <ele>714.79998779296875</ele>
        <time>2026-08-21T17:19:31.000Z</time>
        <extensions>
          <ns3:TrackPointExtension>
            <ns3:hr>139</ns3:hr>
            <ns3:cad>0</ns3:cad>
          </ns3:TrackPointExtension>
        </extensions>
      </trkpt>
      <trkpt lat="45.320351310074329376220703125" lon="-70.93665917403995990753173828125">
        <ele>715</ele>
        <time>2026-08-21T17:19:32.000Z</time>
        <extensions>
          <ns3:TrackPointExtension>
            <ns3:hr>140</ns3:hr>
            <ns3:cad>0</ns3:cad>
          </ns3:TrackPointExtension>
        </extensions>
      </trkpt>
      <trkpt lat="45.32034770585596561431884765625" lon="-70.93665867112576961517333984375">
        <ele>715.4000244140625</ele>
        <time>2026-08-21T17:19:33.000Z</time>
        <extensions>
          <ns3:TrackPointExtension>
            <ns3:hr>140</ns3:hr>
            <ns3:cad>0</ns3:cad>
          </ns3:TrackPointExtension>
        </extensions>
      </trkpt>
      <trkpt lat="45.3203487955033779144287109375" lon="-70.9366626106202602386474609375">
        <ele>715.5999755859375</ele>
        <time>2026-08-21T17:19:34.000Z</time>
        <extensions>
          <ns3:TrackPointExtension>
            <ns3:hr>140</ns3:hr>
            <ns3:cad>0</ns3:cad>
          </ns3:TrackPointExtension>
        </extensions>
      </trkpt>
      <trkpt lat="45.32035122625529766082763671875" lon="-70.9366652928292751312255859375">
        <ele>715.79998779296875</ele>
        <time>2026-08-21T17:19:35.000Z</time>
        <extensions>
          <ns3:TrackPointExtension>
            <ns3:hr>140</ns3:hr>
            <ns3:cad>0</ns3:cad>
          </ns3:TrackPointExtension>
        </extensions>
      </trkpt>
      <trkpt lat="45.3203590214252471923828125" lon="-70.93667493201792240142822265625">
        <ele>716</ele>
        <time>2026-08-21T17:19:36.000Z</time>
        <extensions>
          <ns3:TrackPointExtension>
            <ns3:hr>141</ns3:hr>
            <ns3:cad>0</ns3:cad>
          </ns3:TrackPointExtension>
        </extensions>
      </trkpt>
      <trkpt lat="45.32036530785262584686279296875" lon="-70.93668163754045963287353515625">
        <ele>716</ele>
        <time>2026-08-21T17:19:37.000Z</time>
        <extensions>
          <ns3:TrackPointExtension>
            <ns3:hr>141</ns3:hr>
            <ns3:cad>0</ns3:cad>
          </ns3:TrackPointExtension>
        </extensions>
      </trkpt>
      <trkpt lat="45.32037570141255855560302734375" lon="-70.9366916120052337646484375">
        <ele>716</ele>
        <time>2026-08-21T17:19:38.000Z</time>
        <extensions>
          <ns3:TrackPointExtension>
            <ns3:hr>141</ns3:hr>
            <ns3:cad>0</ns3:cad>
          </ns3:TrackPointExtension>
        </extensions>
      </trkpt>
      <trkpt lat="45.3203839994966983795166015625" lon="-70.9366951324045658111572265625">
        <ele>716</ele>
        <time>2026-08-21T17:19:39.000Z</time>
        <extensions>
          <ns3:TrackPointExtension>
            <ns3:hr>142</ns3:hr>
            <ns3:cad>0</ns3:cad>
          </ns3:TrackPointExtension>
        </extensions>
      </trkpt>
      <trkpt lat="45.3203923813998699188232421875" lon="-70.93670167028903961181640625">
        <ele>716</ele>
        <time>2026-08-21T17:19:40.000Z</time>
        <extensions>
          <ns3:TrackPointExtension>
            <ns3:hr>142</ns3:hr>
            <ns3:cad>0</ns3:cad>
          </ns3:TrackPointExtension>
        </extensions>
      </trkpt>
      <trkpt lat="45.32039967365562915802001953125" lon="-70.936708711087703704833984375">
        <ele>716</ele>
        <time>2026-08-21T17:19:41.000Z</time>
        <extensions>
          <ns3:TrackPointExtension>
            <ns3:hr>142</ns3:hr>
            <ns3:cad>0</ns3:cad>
          </ns3:TrackPointExtension>
        </extensions>
      </trkpt>
      <trkpt lat="45.320403277873992919921875" lon="-70.93671281822025775909423828125">
        <ele>716.20001220703125</ele>
        <time>2026-08-21T17:19:42.000Z</time>
        <extensions>
          <ns3:TrackPointExtension>
            <ns3:hr>142</ns3:hr>
            <ns3:cad>0</ns3:cad>
          </ns3:TrackPointExtension>
        </extensions>
      </trkpt>
      <trkpt lat="45.32040721736848354339599609375" lon="-70.93671868555247783660888671875">
        <ele>716.4000244140625</ele>
        <time>2026-08-21T17:19:43.000Z</time>
        <extensions>
          <ns3:TrackPointExtension>
            <ns3:hr>143</ns3:hr>
            <ns3:cad>0</ns3:cad>
          </ns3:TrackPointExtension>
        </extensions>
      </trkpt>
      <trkpt lat="45.32040922902524471282958984375" lon="-70.93672446906566619873046875">
        <ele>716.5999755859375</ele>
        <time>2026-08-21T17:19:44.000Z</time>
        <extensions>
          <ns3:TrackPointExtension>
            <ns3:hr>143</ns3:hr>
            <ns3:cad>0</ns3:cad>
          </ns3:TrackPointExtension>
        </extensions>
      </trkpt>
      <trkpt lat="45.32041107304394245147705078125" lon="-70.9367266483604907989501953125">
        <ele>716.79998779296875</ele>
        <time>2026-08-21T17:19:45.000Z</time>
        <extensions>
          <ns3:TrackPointExtension>
            <ns3:hr>143</ns3:hr>
            <ns3:cad>0</ns3:cad>
          </ns3:TrackPointExtension>
        </extensions>
      </trkpt>
      <trkpt lat="45.32041065394878387451171875" lon="-70.93672991730272769927978515625">
        <ele>717</ele>
        <time>2026-08-21T17:19:46.000Z</time>
        <extensions>
          <ns3:TrackPointExtension>
            <ns3:hr>142</ns3:hr>
            <ns3:cad>0</ns3:cad>
          </ns3:TrackPointExtension>
        </extensions>
      </trkpt>
      <trkpt lat="45.32041258178651332855224609375" lon="-70.93673410825431346893310546875">
        <ele>717.20001220703125</ele>
        <time>2026-08-21T17:19:47.000Z</time>
        <extensions>
          <ns3:TrackPointExtension>
            <ns3:hr>143</ns3:hr>
            <ns3:cad>0</ns3:cad>
          </ns3:TrackPointExtension>
        </extensions>
      </trkpt>
      <trkpt lat="45.3204155154526233673095703125" lon="-70.93672974966466426849365234375">
        <ele>717.4000244140625</ele>
        <time>2026-08-21T17:19:48.000Z</time>
        <extensions>
          <ns3:TrackPointExtension>
            <ns3:hr>143</ns3:hr>
            <ns3:cad>0</ns3:cad>
          </ns3:TrackPointExtension>
        </extensions>
      </trkpt>
      <trkpt lat="45.32041409052908420562744140625" lon="-70.93673008494079113006591796875">
        <ele>717.5999755859375</ele>
        <time>2026-08-21T17:19:49.000Z</time>
        <extensions>
          <ns3:TrackPointExtension>
            <ns3:hr>143</ns3:hr>
            <ns3:cad>0</ns3:cad>
          </ns3:TrackPointExtension>
        </extensions>
      </trkpt>
      <trkpt lat="45.3204135037958621978759765625" lon="-70.93673192895948886871337890625">
        <ele>717.79998779296875</ele>
        <time>2026-08-21T17:19:50.000Z</time>
        <extensions>
          <ns3:TrackPointExtension>
            <ns3:hr>144</ns3:hr>
            <ns3:cad>0</ns3:cad>
          </ns3:TrackPointExtension>
        </extensions>
      </trkpt>
      <trkpt lat="45.320411659777164459228515625" lon="-70.9367367066442966461181640625">
        <ele>718</ele>
        <time>2026-08-21T17:19:51.000Z</time>
        <extensions>
          <ns3:TrackPointExtension>
            <ns3:hr>144</ns3:hr>
            <ns3:cad>0</ns3:cad>
          </ns3:TrackPointExtension>
        </extensions>
      </trkpt>
      <trkpt lat="45.32041023485362529754638671875" lon="-70.9367377124726772308349609375">
        <ele>718.20001220703125</ele>
        <time>2026-08-21T17:19:52.000Z</time>
        <extensions>
          <ns3:TrackPointExtension>
            <ns3:hr>144</ns3:hr>
            <ns3:cad>0</ns3:cad>
          </ns3:TrackPointExtension>
        </extensions>
      </trkpt>
      <trkpt lat="45.320408307015895843505859375" lon="-70.93674098141491413116455078125">
        <ele>718.4000244140625</ele>
        <time>2026-08-21T17:19:53.000Z</time>
        <extensions>
          <ns3:TrackPointExtension>
            <ns3:hr>144</ns3:hr>
            <ns3:cad>0</ns3:cad>
          </ns3:TrackPointExtension>
        </extensions>
      </trkpt>
      <trkpt lat="45.32040604390203952789306640625" lon="-70.9367447532713413238525390625">
        <ele>718.5999755859375</ele>
        <time>2026-08-21T17:19:54.000Z</time>
        <extensions>
          <ns3:TrackPointExtension>
            <ns3:hr>144</ns3:hr>
            <ns3:cad>0</ns3:cad>
          </ns3:TrackPointExtension>
        </extensions>
      </trkpt>
      <trkpt lat="45.320403277873992919921875" lon="-70.936748273670673370361328125">
        <ele>718.79998779296875</ele>
        <time>2026-08-21T17:19:55.000Z</time>
        <extensions>
          <ns3:TrackPointExtension>
            <ns3:hr>144</ns3:hr>
            <ns3:cad>19</ns3:cad>
          </ns3:TrackPointExtension>
        </extensions>
      </trkpt>
      <trkpt lat="45.32040185295045375823974609375" lon="-70.93674995005130767822265625">
        <ele>718.79998779296875</ele>
        <time>2026-08-21T17:19:56.000Z</time>
        <extensions>
          <ns3:TrackPointExtension>
            <ns3:hr>144</ns3:hr>
            <ns3:cad>19</ns3:cad>
          </ns3:TrackPointExtension>
        </extensions>
      </trkpt>
      <trkpt lat="45.32039732672274112701416015625" lon="-70.936756990849971771240234375">
        <ele>719</ele>
        <time>2026-08-21T17:19:57.000Z</time>
        <extensions>
          <ns3:TrackPointExtension>
            <ns3:hr>144</ns3:hr>
            <ns3:cad>19</ns3:cad>
          </ns3:TrackPointExtension>
        </extensions>
      </trkpt>
      <trkpt lat="45.32039330340921878814697265625" lon="-70.93676160089671611785888671875">
        <ele>719.20001220703125</ele>
        <time>2026-08-21T17:19:58.000Z</time>
        <extensions>
          <ns3:TrackPointExtension>
            <ns3:hr>144</ns3:hr>
            <ns3:cad>0</ns3:cad>
          </ns3:TrackPointExtension>
        </extensions>
      </trkpt>
      <trkpt lat="45.320390202105045318603515625" lon="-70.9367693960666656494140625">
        <ele>719.20001220703125</ele>
        <time>2026-08-21T17:19:59.000Z</time>
        <extensions>
          <ns3:TrackPointExtension>
            <ns3:hr>144</ns3:hr>
            <ns3:cad>0</ns3:cad>
          </ns3:TrackPointExtension>
        </extensions>
      </trkpt>
      <trkpt lat="45.3203873522579669952392578125" lon="-70.93678808771073818206787109375">
        <ele>719.4000244140625</ele>
        <time>2026-08-21T17:20:00.000Z</time>
        <extensions>
          <ns3:TrackPointExtension>
            <ns3:hr>144</ns3:hr>
            <ns3:cad>0</ns3:cad>
          </ns3:TrackPointExtension>
        </extensions>
      </trkpt>
      <trkpt lat="45.32038383185863494873046875" lon="-70.936802923679351806640625">
        <ele>719.5999755859375</ele>
        <time>2026-08-21T17:20:01.000Z</time>
        <extensions>
          <ns3:TrackPointExtension>
            <ns3:hr>145</ns3:hr>
            <ns3:cad>0</ns3:cad>
          </ns3:TrackPointExtension>
        </extensions>
      </trkpt>
      <trkpt lat="45.32038190402090549468994140625" lon="-70.93681340105831623077392578125">
        <ele>719.5999755859375</ele>
        <time>2026-08-21T17:20:02.000Z</time>
        <extensions>
          <ns3:TrackPointExtension>
            <ns3:hr>145</ns3:hr>
            <ns3:cad>66</ns3:cad>
          </ns3:TrackPointExtension>
        </extensions>
      </trkpt>
      <trkpt lat="45.32038056291639804840087890625" lon="-70.936830081045627593994140625">
        <ele>719.79998779296875</ele>
        <time>2026-08-21T17:20:03.000Z</time>
        <extensions>
          <ns3:TrackPointExtension>
            <ns3:hr>145</ns3:hr>
            <ns3:cad>66</ns3:cad>
          </ns3:TrackPointExtension>
        </extensions>
      </trkpt>
      <trkpt lat="45.320381484925746917724609375" lon="-70.9368322603404521942138671875">
        <ele>720</ele>
        <time>2026-08-21T17:20:04.000Z</time>
        <extensions>
          <ns3:TrackPointExtension>
            <ns3:hr>145</ns3:hr>
            <ns3:cad>66</ns3:cad>
          </ns3:TrackPointExtension>
        </extensions>
      </trkpt>
      <trkpt lat="45.320379473268985748291015625" lon="-70.936834774911403656005859375">
        <ele>720</ele>
        <time>2026-08-21T17:20:05.000Z</time>
        <extensions>
          <ns3:TrackPointExtension>
            <ns3:hr>145</ns3:hr>
            <ns3:cad>66</ns3:cad>
          </ns3:TrackPointExtension>
        </extensions>
      </trkpt>
      <trkpt lat="45.32038056291639804840087890625" lon="-70.9368336014449596405029296875">
        <ele>720.20001220703125</ele>
        <time>2026-08-21T17:20:06.000Z</time>
        <extensions>
          <ns3:TrackPointExtension>
            <ns3:hr>144</ns3:hr>
            <ns3:cad>66</ns3:cad>
          </ns3:TrackPointExtension>
        </extensions>
      </trkpt>
      <trkpt lat="45.3203819878399372100830078125" lon="-70.93683234415948390960693359375">
        <ele>720.4000244140625</ele>
        <time>2026-08-21T17:20:07.000Z</time>
        <extensions>
          <ns3:TrackPointExtension>
            <ns3:hr>145</ns3:hr>
            <ns3:cad>0</ns3:cad>
          </ns3:TrackPointExtension>
        </extensions>
      </trkpt>
      <trkpt lat="45.32038223929703235626220703125" lon="-70.93683251179754734039306640625">
        <ele>720.5999755859375</ele>
        <time>2026-08-21T17:20:08.000Z</time>
        <extensions>
          <ns3:TrackPointExtension>
            <ns3:hr>145</ns3:hr>
            <ns3:cad>0</ns3:cad>
          </ns3:TrackPointExtension>
        </extensions>
      </trkpt>
      <trkpt lat="45.32038123346865177154541015625" lon="-70.9368399716913700103759765625">
        <ele>720.5999755859375</ele>
        <time>2026-08-21T17:20:09.000Z</time>
        <extensions>
          <ns3:TrackPointExtension>
            <ns3:hr>144</ns3:hr>
            <ns3:cad>0</ns3:cad>
          </ns3:TrackPointExtension>
        </extensions>
      </trkpt>
      <trkpt lat="45.3203833289444446563720703125" lon="-70.936842150986194610595703125">
        <ele>721</ele>
        <time>2026-08-21T17:20:10.000Z</time>
        <extensions>
          <ns3:TrackPointExtension>
            <ns3:hr>144</ns3:hr>
            <ns3:cad>0</ns3:cad>
          </ns3:TrackPointExtension>
        </extensions>
      </trkpt>
      <trkpt lat="45.32038810662925243377685546875" lon="-70.93684441410005092620849609375">
        <ele>721.20001220703125</ele>
        <time>2026-08-21T17:20:11.000Z</time>
        <extensions>
          <ns3:TrackPointExtension>
            <ns3:hr>143</ns3:hr>
            <ns3:cad>0</ns3:cad>
          </ns3:TrackPointExtension>
        </extensions>
      </trkpt>
      <trkpt lat="45.3203896991908550262451171875" lon="-70.9368490241467952728271484375">
        <ele>721.4000244140625</ele>
        <time>2026-08-21T17:20:12.000Z</time>
        <extensions>
          <ns3:TrackPointExtension>
            <ns3:hr>142</ns3:hr>
            <ns3:cad>0</ns3:cad>
          </ns3:TrackPointExtension>
        </extensions>
      </trkpt>
      <trkpt lat="45.32038760371506214141845703125" lon="-70.93684877268970012664794921875">
        <ele>721.5999755859375</ele>
        <time>2026-08-21T17:20:13.000Z</time>
        <extensions>
          <ns3:TrackPointExtension>
            <ns3:hr>142</ns3:hr>
            <ns3:cad>0</ns3:cad>
          </ns3:TrackPointExtension>
        </extensions>
      </trkpt>
      <trkpt lat="45.320383496582508087158203125" lon="-70.93685095198452472686767578125">
        <ele>721.79998779296875</ele>
        <time>2026-08-21T17:20:14.000Z</time>
        <extensions>
          <ns3:TrackPointExtension>
            <ns3:hr>142</ns3:hr>
            <ns3:cad>0</ns3:cad>
          </ns3:TrackPointExtension>
        </extensions>
      </trkpt>
      <trkpt lat="45.32038114964962005615234375" lon="-70.93685480765998363494873046875">
        <ele>722</ele>
        <time>2026-08-21T17:20:15.000Z</time>
        <extensions>
          <ns3:TrackPointExtension>
            <ns3:hr>142</ns3:hr>
            <ns3:cad>0</ns3:cad>
          </ns3:TrackPointExtension>
        </extensions>
      </trkpt>
      <trkpt lat="45.32037871889770030975341796875" lon="-70.9368590824306011199951171875">
        <ele>722.20001220703125</ele>
        <time>2026-08-21T17:20:16.000Z</time>
        <extensions>
          <ns3:TrackPointExtension>
            <ns3:hr>142</ns3:hr>
            <ns3:cad>0</ns3:cad>
          </ns3:TrackPointExtension>
        </extensions>
      </trkpt>
      <trkpt lat="45.3203749470412731170654296875" lon="-70.93686419539153575897216796875">
        <ele>722.4000244140625</ele>
        <time>2026-08-21T17:20:17.000Z</time>
        <extensions>
          <ns3:TrackPointExtension>
            <ns3:hr>142</ns3:hr>
            <ns3:cad>0</ns3:cad>
          </ns3:TrackPointExtension>
        </extensions>
      </trkpt>
      <trkpt lat="45.32037201337516307830810546875" lon="-70.936867631971836090087890625">
        <ele>722.5999755859375</ele>
        <time>2026-08-21T17:20:18.000Z</time>
        <extensions>
          <ns3:TrackPointExtension>
            <ns3:hr>142</ns3:hr>
            <ns3:cad>0</ns3:cad>
          </ns3:TrackPointExtension>
        </extensions>
      </trkpt>
      <trkpt lat="45.32037050463259220123291015625" lon="-70.93687894754111766815185546875">
        <ele>722.79998779296875</ele>
        <time>2026-08-21T17:20:19.000Z</time>
        <extensions>
          <ns3:TrackPointExtension>
            <ns3:hr>142</ns3:hr>
            <ns3:cad>0</ns3:cad>
          </ns3:TrackPointExtension>
        </extensions>
      </trkpt>
      <trkpt lat="45.32037033699452877044677734375" lon="-70.9368895925581455230712890625">
        <ele>723</ele>
        <time>2026-08-21T17:20:20.000Z</time>
        <extensions>
          <ns3:TrackPointExtension>
            <ns3:hr>142</ns3:hr>
            <ns3:cad>0</ns3:cad>
          </ns3:TrackPointExtension>
        </extensions>
      </trkpt>
      <trkpt lat="45.32036949880421161651611328125" lon="-70.9368954598903656005859375">
        <ele>723.20001220703125</ele>
        <time>2026-08-21T17:20:21.000Z</time>
        <extensions>
          <ns3:TrackPointExtension>
            <ns3:hr>142</ns3:hr>
            <ns3:cad>0</ns3:cad>
          </ns3:TrackPointExtension>
        </extensions>
      </trkpt>
      <trkpt lat="45.320367403328418731689453125" lon="-70.93690895475447177886962890625">
        <ele>723.4000244140625</ele>
        <time>2026-08-21T17:20:22.000Z</time>
        <extensions>
          <ns3:TrackPointExtension>
            <ns3:hr>141</ns3:hr>
            <ns3:cad>0</ns3:cad>
          </ns3:TrackPointExtension>
        </extensions>
      </trkpt>
      <trkpt lat="45.32036748714745044708251953125" lon="-70.93691566027700901031494140625">
        <ele>723.5999755859375</ele>
        <time>2026-08-21T17:20:23.000Z</time>
        <extensions>
          <ns3:TrackPointExtension>
            <ns3:hr>142</ns3:hr>
            <ns3:cad>0</ns3:cad>
          </ns3:TrackPointExtension>
        </extensions>
      </trkpt>
      <trkpt lat="45.32036849297583103179931640625" lon="-70.9369160793721675872802734375">
        <ele>723.79998779296875</ele>
        <time>2026-08-21T17:20:24.000Z</time>
        <extensions>
          <ns3:TrackPointExtension>
            <ns3:hr>143</ns3:hr>
            <ns3:cad>0</ns3:cad>
          </ns3:TrackPointExtension>
        </extensions>
      </trkpt>
      <trkpt lat="45.32036329619586467742919921875" lon="-70.93692907132208347320556640625">
        <ele>724</ele>
        <time>2026-08-21T17:20:25.000Z</time>
        <extensions>
          <ns3:TrackPointExtension>
            <ns3:hr>143</ns3:hr>
            <ns3:cad>0</ns3:cad>
          </ns3:TrackPointExtension>
        </extensions>
      </trkpt>
      <trkpt lat="45.3203638829290866851806640625" lon="-70.9369415603578090667724609375">
        <ele>724.4000244140625</ele>
        <time>2026-08-21T17:20:26.000Z</time>
        <extensions>
          <ns3:TrackPointExtension>
            <ns3:hr>144</ns3:hr>
            <ns3:cad>0</ns3:cad>
          </ns3:TrackPointExtension>
        </extensions>
      </trkpt>
      <trkpt lat="45.3203662298619747161865234375" lon="-70.93694214709103107452392578125">
        <ele>724.5999755859375</ele>
        <time>2026-08-21T17:20:27.000Z</time>
        <extensions>
          <ns3:TrackPointExtension>
            <ns3:hr>144</ns3:hr>
            <ns3:cad>0</ns3:cad>
          </ns3:TrackPointExtension>
        </extensions>
      </trkpt>
      <trkpt lat="45.3203655593097209930419921875" lon="-70.9369499422609806060791015625">
        <ele>724.79998779296875</ele>
        <time>2026-08-21T17:20:28.000Z</time>
        <extensions>
          <ns3:TrackPointExtension>
            <ns3:hr>144</ns3:hr>
            <ns3:cad>0</ns3:cad>
          </ns3:TrackPointExtension>
        </extensions>
      </trkpt>
      <trkpt lat="45.320364721119403839111328125" lon="-70.93696142546832561492919921875">
        <ele>725</ele>
        <time>2026-08-21T17:20:29.000Z</time>
        <extensions>
          <ns3:TrackPointExtension>
            <ns3:hr>144</ns3:hr>
            <ns3:cad>0</ns3:cad>
          </ns3:TrackPointExtension>
        </extensions>
      </trkpt>
      <trkpt lat="45.32036631368100643157958984375" lon="-70.9369683824479579925537109375">
        <ele>725</ele>
        <time>2026-08-21T17:20:30.000Z</time>
        <extensions>
          <ns3:TrackPointExtension>
            <ns3:hr>144</ns3:hr>
            <ns3:cad>0</ns3:cad>
          </ns3:TrackPointExtension>
        </extensions>
      </trkpt>
      <trkpt lat="45.32036530785262584686279296875" lon="-70.9369737468659877777099609375">
        <ele>725.4000244140625</ele>
        <time>2026-08-21T17:20:31.000Z</time>
        <extensions>
          <ns3:TrackPointExtension>
            <ns3:hr>143</ns3:hr>
            <ns3:cad>0</ns3:cad>
          </ns3:TrackPointExtension>
        </extensions>
      </trkpt>
      <trkpt lat="45.320363380014896392822265625" lon="-70.9369824640452861785888671875">
        <ele>725.4000244140625</ele>
        <time>2026-08-21T17:20:32.000Z</time>
        <extensions>
          <ns3:TrackPointExtension>
            <ns3:hr>144</ns3:hr>
            <ns3:cad>0</ns3:cad>
          </ns3:TrackPointExtension>
        </extensions>
      </trkpt>
      <trkpt lat="45.320364721119403839111328125" lon="-70.93698137439787387847900390625">
        <ele>725.5999755859375</ele>
        <time>2026-08-21T17:20:33.000Z</time>
        <extensions>
          <ns3:TrackPointExtension>
            <ns3:hr>144</ns3:hr>
            <ns3:cad>0</ns3:cad>
          </ns3:TrackPointExtension>
        </extensions>
      </trkpt>
      <trkpt lat="45.3203632123768329620361328125" lon="-70.9369905106723308563232421875">
        <ele>725.79998779296875</ele>
        <time>2026-08-21T17:20:34.000Z</time>
        <extensions>
          <ns3:TrackPointExtension>
            <ns3:hr>144</ns3:hr>
            <ns3:cad>0</ns3:cad>
          </ns3:TrackPointExtension>
        </extensions>
      </trkpt>
      <trkpt lat="45.32036304473876953125" lon="-70.9369975514709949493408203125">
        <ele>726</ele>
        <time>2026-08-21T17:20:35.000Z</time>
        <extensions>
          <ns3:TrackPointExtension>
            <ns3:hr>144</ns3:hr>
            <ns3:cad>0</ns3:cad>
          </ns3:TrackPointExtension>
        </extensions>
      </trkpt>
      <trkpt lat="45.3203635476529598236083984375" lon="-70.9370086155831813812255859375">
        <ele>726.20001220703125</ele>
        <time>2026-08-21T17:20:36.000Z</time>
        <extensions>
          <ns3:TrackPointExtension>
            <ns3:hr>145</ns3:hr>
            <ns3:cad>0</ns3:cad>
          </ns3:TrackPointExtension>
        </extensions>
      </trkpt>
      <trkpt lat="45.32036681659519672393798828125" lon="-70.93701892532408237457275390625">
        <ele>726.4000244140625</ele>
        <time>2026-08-21T17:20:37.000Z</time>
        <extensions>
          <ns3:TrackPointExtension>
            <ns3:hr>145</ns3:hr>
            <ns3:cad>0</ns3:cad>
          </ns3:TrackPointExtension>
        </extensions>
      </trkpt>
      <trkpt lat="45.32036949880421161651611328125" lon="-70.937026552855968475341796875">
        <ele>726.5999755859375</ele>
        <time>2026-08-21T17:20:38.000Z</time>
        <extensions>
          <ns3:TrackPointExtension>
            <ns3:hr>145</ns3:hr>
            <ns3:cad>0</ns3:cad>
          </ns3:TrackPointExtension>
        </extensions>
      </trkpt>
      <trkpt lat="45.320371426641941070556640625" lon="-70.9370362758636474609375">
        <ele>726.79998779296875</ele>
        <time>2026-08-21T17:20:39.000Z</time>
        <extensions>
          <ns3:TrackPointExtension>
            <ns3:hr>145</ns3:hr>
            <ns3:cad>0</ns3:cad>
          </ns3:TrackPointExtension>
        </extensions>
      </trkpt>
      <trkpt lat="45.3203722648322582244873046875" lon="-70.93704205937683582305908203125">
        <ele>726.79998779296875</ele>
        <time>2026-08-21T17:20:40.000Z</time>
        <extensions>
          <ns3:TrackPointExtension>
            <ns3:hr>145</ns3:hr>
            <ns3:cad>0</ns3:cad>
          </ns3:TrackPointExtension>
        </extensions>
      </trkpt>
      <trkpt lat="45.32036840915679931640625" lon="-70.9370438195765018463134765625">
        <ele>727</ele>
        <time>2026-08-21T17:20:41.000Z</time>
        <extensions>
          <ns3:TrackPointExtension>
            <ns3:hr>146</ns3:hr>
            <ns3:cad>0</ns3:cad>
          </ns3:TrackPointExtension>
        </extensions>
      </trkpt>
      <trkpt lat="45.32036773860454559326171875" lon="-70.93704943545162677764892578125">
        <ele>727.20001220703125</ele>
        <time>2026-08-21T17:20:42.000Z</time>
        <extensions>
          <ns3:TrackPointExtension>
            <ns3:hr>146</ns3:hr>
            <ns3:cad>0</ns3:cad>
          </ns3:TrackPointExtension>
        </extensions>
      </trkpt>
      <trkpt lat="45.32036765478551387786865234375" lon="-70.93704876489937305450439453125">
        <ele>727.4000244140625</ele>
        <time>2026-08-21T17:20:43.000Z</time>
        <extensions>
          <ns3:TrackPointExtension>
            <ns3:hr>146</ns3:hr>
            <ns3:cad>0</ns3:cad>
          </ns3:TrackPointExtension>
        </extensions>
      </trkpt>
      <trkpt lat="45.32036178745329380035400390625" lon="-70.9370615892112255096435546875">
        <ele>727.5999755859375</ele>
        <time>2026-08-21T17:20:44.000Z</time>
        <extensions>
          <ns3:TrackPointExtension>
            <ns3:hr>146</ns3:hr>
            <ns3:cad>0</ns3:cad>
          </ns3:TrackPointExtension>
        </extensions>
      </trkpt>
      <trkpt lat="45.320362038910388946533203125" lon="-70.937068462371826171875">
        <ele>727.79998779296875</ele>
        <time>2026-08-21T17:20:45.000Z</time>
        <extensions>
          <ns3:TrackPointExtension>
            <ns3:hr>146</ns3:hr>
            <ns3:cad>0</ns3:cad>
          </ns3:TrackPointExtension>
        </extensions>
      </trkpt>
      <trkpt lat="45.320360362529754638671875" lon="-70.93708262778818607330322265625">
        <ele>728</ele>
        <time>2026-08-21T17:20:46.000Z</time>
        <extensions>
          <ns3:TrackPointExtension>
            <ns3:hr>146</ns3:hr>
            <ns3:cad>77</ns3:cad>
          </ns3:TrackPointExtension>
        </extensions>
      </trkpt>
      <trkpt lat="45.32035969197750091552734375" lon="-70.93709327280521392822265625">
        <ele>728.20001220703125</ele>
        <time>2026-08-21T17:20:47.000Z</time>
        <extensions>
          <ns3:TrackPointExtension>
            <ns3:hr>145</ns3:hr>
            <ns3:cad>77</ns3:cad>
          </ns3:TrackPointExtension>
        </extensions>
      </trkpt>
      <trkpt lat="45.32036044634878635406494140625" lon="-70.93710492365062236785888671875">
        <ele>728.5999755859375</ele>
        <time>2026-08-21T17:20:48.000Z</time>
        <extensions>
          <ns3:TrackPointExtension>
            <ns3:hr>145</ns3:hr>
            <ns3:cad>77</ns3:cad>
          </ns3:TrackPointExtension>
        </extensions>
      </trkpt>
      <trkpt lat="45.32035960815846920013427734375" lon="-70.9371222741901874542236328125">
        <ele>728.79998779296875</ele>
        <time>2026-08-21T17:20:49.000Z</time>
        <extensions>
          <ns3:TrackPointExtension>
            <ns3:hr>145</ns3:hr>
            <ns3:cad>0</ns3:cad>
          </ns3:TrackPointExtension>
        </extensions>
      </trkpt>
      <trkpt lat="45.320360697805881500244140625" lon="-70.93713006936013698577880859375">
        <ele>729</ele>
        <time>2026-08-21T17:20:50.000Z</time>
        <extensions>
          <ns3:TrackPointExtension>
            <ns3:hr>146</ns3:hr>
            <ns3:cad>0</ns3:cad>
          </ns3:TrackPointExtension>
        </extensions>
      </trkpt>
      <trkpt lat="45.320362709462642669677734375" lon="-70.9371403791010379791259765625">
        <ele>729.20001220703125</ele>
        <time>2026-08-21T17:20:51.000Z</time>
        <extensions>
          <ns3:TrackPointExtension>
            <ns3:hr>146</ns3:hr>
            <ns3:cad>0</ns3:cad>
          </ns3:TrackPointExtension>
        </extensions>
      </trkpt>
      <trkpt lat="45.32036262564361095428466796875" lon="-70.93715404160320758819580078125">
        <ele>729.4000244140625</ele>
        <time>2026-08-21T17:20:52.000Z</time>
        <extensions>
          <ns3:TrackPointExtension>
            <ns3:hr>146</ns3:hr>
            <ns3:cad>0</ns3:cad>
          </ns3:TrackPointExtension>
        </extensions>
      </trkpt>
      <trkpt lat="45.32036379911005496978759765625" lon="-70.93715965747833251953125">
        <ele>729.5999755859375</ele>
        <time>2026-08-21T17:20:53.000Z</time>
        <extensions>
          <ns3:TrackPointExtension>
            <ns3:hr>145</ns3:hr>
            <ns3:cad>0</ns3:cad>
          </ns3:TrackPointExtension>
        </extensions>
      </trkpt>
      <trkpt lat="45.32036212272942066192626953125" lon="-70.93716527335345745086669921875">
        <ele>729.79998779296875</ele>
        <time>2026-08-21T17:20:54.000Z</time>
        <extensions>
          <ns3:TrackPointExtension>
            <ns3:hr>146</ns3:hr>
            <ns3:cad>0</ns3:cad>
          </ns3:TrackPointExtension>
        </extensions>
      </trkpt>
      <trkpt lat="45.32036128453910350799560546875" lon="-70.93716762028634548187255859375">
        <ele>730</ele>
        <time>2026-08-21T17:20:55.000Z</time>
        <extensions>
          <ns3:TrackPointExtension>
            <ns3:hr>146</ns3:hr>
            <ns3:cad>0</ns3:cad>
          </ns3:TrackPointExtension>
        </extensions>
      </trkpt>
      <trkpt lat="45.32036363147199153900146484375" lon="-70.93717449344694614410400390625">
        <ele>730.20001220703125</ele>
        <time>2026-08-21T17:20:56.000Z</time>
        <extensions>
          <ns3:TrackPointExtension>
            <ns3:hr>145</ns3:hr>
            <ns3:cad>0</ns3:cad>
          </ns3:TrackPointExtension>
        </extensions>
      </trkpt>
      <trkpt lat="45.32036849297583103179931640625" lon="-70.937186814844608306884765625">
        <ele>730.4000244140625</ele>
        <time>2026-08-21T17:20:57.000Z</time>
        <extensions>
          <ns3:TrackPointExtension>
            <ns3:hr>146</ns3:hr>
            <ns3:cad>0</ns3:cad>
          </ns3:TrackPointExtension>
        </extensions>
      </trkpt>
      <trkpt lat="45.32037016935646533966064453125" lon="-70.9371940232813358306884765625">
        <ele>730.5999755859375</ele>
        <time>2026-08-21T17:20:58.000Z</time>
        <extensions>
          <ns3:TrackPointExtension>
            <ns3:hr>146</ns3:hr>
            <ns3:cad>0</ns3:cad>
          </ns3:TrackPointExtension>
        </extensions>
      </trkpt>
      <trkpt lat="45.32037519849836826324462890625" lon="-70.93720835633575916290283203125">
        <ele>730.79998779296875</ele>
        <time>2026-08-21T17:20:59.000Z</time>
        <extensions>
          <ns3:TrackPointExtension>
            <ns3:hr>147</ns3:hr>
            <ns3:cad>0</ns3:cad>
          </ns3:TrackPointExtension>
        </extensions>
      </trkpt>
      <trkpt lat="45.32037704251706600189208984375" lon="-70.9372131340205669403076171875">
        <ele>730.79998779296875</ele>
        <time>2026-08-21T17:21:00.000Z</time>
        <extensions>
          <ns3:TrackPointExtension>
            <ns3:hr>148</ns3:hr>
            <ns3:cad>0</ns3:cad>
          </ns3:TrackPointExtension>
        </extensions>
      </trkpt>
      <trkpt lat="45.32037637196481227874755859375" lon="-70.93721372075378894805908203125">
        <ele>731</ele>
        <time>2026-08-21T17:21:01.000Z</time>
        <extensions>
          <ns3:TrackPointExtension>
            <ns3:hr>148</ns3:hr>
            <ns3:cad>0</ns3:cad>
          </ns3:TrackPointExtension>
        </extensions>
      </trkpt>
      <trkpt lat="45.3203705884516239166259765625" lon="-70.937212295830249786376953125">
        <ele>731.20001220703125</ele>
        <time>2026-08-21T17:21:02.000Z</time>
        <extensions>
          <ns3:TrackPointExtension>
            <ns3:hr>148</ns3:hr>
            <ns3:cad>0</ns3:cad>
          </ns3:TrackPointExtension>
        </extensions>
      </trkpt>
      <trkpt lat="45.32036782242357730865478515625" lon="-70.9372094459831714630126953125">
        <ele>731.4000244140625</ele>
        <time>2026-08-21T17:21:03.000Z</time>
        <extensions>
          <ns3:TrackPointExtension>
            <ns3:hr>147</ns3:hr>
            <ns3:cad>0</ns3:cad>
          </ns3:TrackPointExtension>
        </extensions>
      </trkpt>
      <trkpt lat="45.32036094926297664642333984375" lon="-70.93721271492540836334228515625">
        <ele>731.5999755859375</ele>
        <time>2026-08-21T17:21:04.000Z</time>
        <extensions>
          <ns3:TrackPointExtension>
            <ns3:hr>148</ns3:hr>
            <ns3:cad>0</ns3:cad>
          </ns3:TrackPointExtension>
        </extensions>
      </trkpt>
      <trkpt lat="45.32035860233008861541748046875" lon="-70.93721573241055011749267578125">
        <ele>731.79998779296875</ele>
        <time>2026-08-21T17:21:05.000Z</time>
        <extensions>
          <ns3:TrackPointExtension>
            <ns3:hr>147</ns3:hr>
            <ns3:cad>0</ns3:cad>
          </ns3:TrackPointExtension>
        </extensions>
      </trkpt>
      <trkpt lat="45.3203568421304225921630859375" lon="-70.93721657060086727142333984375">
        <ele>731.79998779296875</ele>
        <time>2026-08-21T17:21:06.000Z</time>
        <extensions>
          <ns3:TrackPointExtension>
            <ns3:hr>147</ns3:hr>
            <ns3:cad>0</ns3:cad>
          </ns3:TrackPointExtension>
        </extensions>
      </trkpt>
      <trkpt lat="45.32035172916948795318603515625" lon="-70.93722545541822910308837890625">
        <ele>732</ele>
        <time>2026-08-21T17:21:07.000Z</time>
        <extensions>
          <ns3:TrackPointExtension>
            <ns3:hr>147</ns3:hr>
            <ns3:cad>0</ns3:cad>
          </ns3:TrackPointExtension>
        </extensions>
      </trkpt>
      <trkpt lat="45.32034988515079021453857421875" lon="-70.93722981400787830352783203125">
        <ele>732.20001220703125</ele>
        <time>2026-08-21T17:21:08.000Z</time>
        <extensions>
          <ns3:TrackPointExtension>
            <ns3:hr>148</ns3:hr>
            <ns3:cad>0</ns3:cad>
          </ns3:TrackPointExtension>
        </extensions>
      </trkpt>
      <trkpt lat="45.32034686766564846038818359375" lon="-70.93723836354911327362060546875">
        <ele>732.4000244140625</ele>
        <time>2026-08-21T17:21:09.000Z</time>
        <extensions>
          <ns3:TrackPointExtension>
            <ns3:hr>147</ns3:hr>
            <ns3:cad>0</ns3:cad>
          </ns3:TrackPointExtension>
        </extensions>
      </trkpt>
      <trkpt lat="45.32034653238952159881591796875" lon="-70.93723836354911327362060546875">
        <ele>732.4000244140625</ele>
        <time>2026-08-21T17:21:10.000Z</time>
        <extensions>
          <ns3:TrackPointExtension>
            <ns3:hr>147</ns3:hr>
            <ns3:cad>0</ns3:cad>
          </ns3:TrackPointExtension>
        </extensions>
      </trkpt>
      <trkpt lat="45.3203427605330944061279296875" lon="-70.93724615871906280517578125">
        <ele>732.5999755859375</ele>
        <time>2026-08-21T17:21:11.000Z</time>
        <extensions>
          <ns3:TrackPointExtension>
            <ns3:hr>147</ns3:hr>
            <ns3:cad>0</ns3:cad>
          </ns3:TrackPointExtension>
        </extensions>
      </trkpt>
      <trkpt lat="45.32033915631473064422607421875" lon="-70.93725345097482204437255859375">
        <ele>732.79998779296875</ele>
        <time>2026-08-21T17:21:12.000Z</time>
        <extensions>
          <ns3:TrackPointExtension>
            <ns3:hr>148</ns3:hr>
            <ns3:cad>0</ns3:cad>
          </ns3:TrackPointExtension>
        </extensions>
      </trkpt>
      <trkpt lat="45.32034150324761867523193359375" lon="-70.93725697137415409088134765625">
        <ele>733</ele>
        <time>2026-08-21T17:21:13.000Z</time>
        <extensions>
          <ns3:TrackPointExtension>
            <ns3:hr>147</ns3:hr>
            <ns3:cad>0</ns3:cad>
          </ns3:TrackPointExtension>
        </extensions>
      </trkpt>
      <trkpt lat="45.3203363902866840362548828125" lon="-70.93725965358316898345947265625">
        <ele>733.20001220703125</ele>
        <time>2026-08-21T17:21:14.000Z</time>
        <extensions>
          <ns3:TrackPointExtension>
            <ns3:hr>147</ns3:hr>
            <ns3:cad>0</ns3:cad>
          </ns3:TrackPointExtension>
        </extensions>
      </trkpt>
      <trkpt lat="45.3203321993350982666015625" lon="-70.9372583962976932525634765625">
        <ele>733.4000244140625</ele>
        <time>2026-08-21T17:21:15.000Z</time>
        <extensions>
          <ns3:TrackPointExtension>
            <ns3:hr>147</ns3:hr>
            <ns3:cad>0</ns3:cad>
          </ns3:TrackPointExtension>
        </extensions>
      </trkpt>
      <trkpt lat="45.3203293494880199432373046875" lon="-70.93725822865962982177734375">
        <ele>733.5999755859375</ele>
        <time>2026-08-21T17:21:16.000Z</time>
        <extensions>
          <ns3:TrackPointExtension>
            <ns3:hr>147</ns3:hr>
            <ns3:cad>0</ns3:cad>
          </ns3:TrackPointExtension>
        </extensions>
      </trkpt>
      <trkpt lat="45.3203241527080535888671875" lon="-70.9372600726783275604248046875">
        <ele>733.79998779296875</ele>
        <time>2026-08-21T17:21:17.000Z</time>
        <extensions>
          <ns3:TrackPointExtension>
            <ns3:hr>146</ns3:hr>
            <ns3:cad>0</ns3:cad>
          </ns3:TrackPointExtension>
        </extensions>
      </trkpt>
      <trkpt lat="45.3203161060810089111328125" lon="-70.93726401217281818389892578125">
        <ele>734</ele>
        <time>2026-08-21T17:21:18.000Z</time>
        <extensions>
          <ns3:TrackPointExtension>
            <ns3:hr>145</ns3:hr>
            <ns3:cad>0</ns3:cad>
          </ns3:TrackPointExtension>
        </extensions>
      </trkpt>
      <trkpt lat="45.32031049020588397979736328125" lon="-70.9372768364846706390380859375">
        <ele>734.20001220703125</ele>
        <time>2026-08-21T17:21:19.000Z</time>
        <extensions>
          <ns3:TrackPointExtension>
            <ns3:hr>144</ns3:hr>
            <ns3:cad>0</ns3:cad>
          </ns3:TrackPointExtension>
        </extensions>
      </trkpt>
      <trkpt lat="45.32030043192207813262939453125" lon="-70.93728731386363506317138671875">
        <ele>734.4000244140625</ele>
        <time>2026-08-21T17:21:20.000Z</time>
        <extensions>
          <ns3:TrackPointExtension>
            <ns3:hr>143</ns3:hr>
            <ns3:cad>0</ns3:cad>
          </ns3:TrackPointExtension>
        </extensions>
      </trkpt>
      <trkpt lat="45.32029707916080951690673828125" lon="-70.9373023174703121185302734375">
        <ele>734.5999755859375</ele>
        <time>2026-08-21T17:21:21.000Z</time>
        <extensions>
          <ns3:TrackPointExtension>
            <ns3:hr>143</ns3:hr>
            <ns3:cad>0</ns3:cad>
          </ns3:TrackPointExtension>
        </extensions>
      </trkpt>
      <trkpt lat="45.32029372639954090118408203125" lon="-70.93731321394443511962890625">
        <ele>735</ele>
        <time>2026-08-21T17:21:22.000Z</time>
        <extensions>
          <ns3:TrackPointExtension>
            <ns3:hr>143</ns3:hr>
            <ns3:cad>0</ns3:cad>
          </ns3:TrackPointExtension>
        </extensions>
      </trkpt>
      <trkpt lat="45.32028802670538425445556640625" lon="-70.937329642474651336669921875">
        <ele>735.20001220703125</ele>
        <time>2026-08-21T17:21:23.000Z</time>
        <extensions>
          <ns3:TrackPointExtension>
            <ns3:hr>143</ns3:hr>
            <ns3:cad>0</ns3:cad>
          </ns3:TrackPointExtension>
        </extensions>
      </trkpt>
      <trkpt lat="45.32028324902057647705078125" lon="-70.937341712415218353271484375">
        <ele>735.4000244140625</ele>
        <time>2026-08-21T17:21:24.000Z</time>
        <extensions>
          <ns3:TrackPointExtension>
            <ns3:hr>143</ns3:hr>
            <ns3:cad>0</ns3:cad>
          </ns3:TrackPointExtension>
        </extensions>
      </trkpt>
      <trkpt lat="45.32028148882091045379638671875" lon="-70.937355123460292816162109375">
        <ele>735.5999755859375</ele>
        <time>2026-08-21T17:21:25.000Z</time>
        <extensions>
          <ns3:TrackPointExtension>
            <ns3:hr>143</ns3:hr>
            <ns3:cad>0</ns3:cad>
          </ns3:TrackPointExtension>
        </extensions>
      </trkpt>
      <trkpt lat="45.320280902087688446044921875" lon="-70.9373594820499420166015625">
        <ele>735.5999755859375</ele>
        <time>2026-08-21T17:21:26.000Z</time>
        <extensions>
          <ns3:TrackPointExtension>
            <ns3:hr>144</ns3:hr>
            <ns3:cad>0</ns3:cad>
          </ns3:TrackPointExtension>
        </extensions>
      </trkpt>
      <trkpt lat="45.32027880661189556121826171875" lon="-70.93737465329468250274658203125">
        <ele>736</ele>
        <time>2026-08-21T17:21:27.000Z</time>
        <extensions>
          <ns3:TrackPointExtension>
            <ns3:hr>144</ns3:hr>
            <ns3:cad>0</ns3:cad>
          </ns3:TrackPointExtension>
        </extensions>
      </trkpt>
      <trkpt lat="45.32028190791606903076171875" lon="-70.93737817369401454925537109375">
        <ele>736</ele>
        <time>2026-08-21T17:21:28.000Z</time>
        <extensions>
          <ns3:TrackPointExtension>
            <ns3:hr>144</ns3:hr>
            <ns3:cad>0</ns3:cad>
          </ns3:TrackPointExtension>
        </extensions>
      </trkpt>
      <trkpt lat="45.32027880661189556121826171875" lon="-70.93738965690135955810546875">
        <ele>736.4000244140625</ele>
        <time>2026-08-21T17:21:29.000Z</time>
        <extensions>
          <ns3:TrackPointExtension>
            <ns3:hr>143</ns3:hr>
            <ns3:cad>0</ns3:cad>
          </ns3:TrackPointExtension>
        </extensions>
      </trkpt>
      <trkpt lat="45.320274531841278076171875" lon="-70.93739929609000682830810546875">
        <ele>736.5999755859375</ele>
        <time>2026-08-21T17:21:30.000Z</time>
        <extensions>
          <ns3:TrackPointExtension>
            <ns3:hr>144</ns3:hr>
            <ns3:cad>0</ns3:cad>
          </ns3:TrackPointExtension>
        </extensions>
      </trkpt>
      <trkpt lat="45.3202746994793415069580078125" lon="-70.93740415759384632110595703125">
        <ele>736.79998779296875</ele>
        <time>2026-08-21T17:21:31.000Z</time>
        <extensions>
          <ns3:TrackPointExtension>
            <ns3:hr>144</ns3:hr>
            <ns3:cad>0</ns3:cad>
          </ns3:TrackPointExtension>
        </extensions>
      </trkpt>
      <trkpt lat="45.3202716819941997528076171875" lon="-70.93741941265761852264404296875">
        <ele>737</ele>
        <time>2026-08-21T17:21:32.000Z</time>
        <extensions>
          <ns3:TrackPointExtension>
            <ns3:hr>144</ns3:hr>
            <ns3:cad>0</ns3:cad>
          </ns3:TrackPointExtension>
        </extensions>
      </trkpt>
      <trkpt lat="45.3202663175761699676513671875" lon="-70.93742578290402889251708984375">
        <ele>737.20001220703125</ele>
        <time>2026-08-21T17:21:33.000Z</time>
        <extensions>
          <ns3:TrackPointExtension>
            <ns3:hr>144</ns3:hr>
            <ns3:cad>0</ns3:cad>
          </ns3:TrackPointExtension>
        </extensions>
      </trkpt>
      <trkpt lat="45.32026472501456737518310546875" lon="-70.93743123114109039306640625">
        <ele>737.4000244140625</ele>
        <time>2026-08-21T17:21:34.000Z</time>
        <extensions>
          <ns3:TrackPointExtension>
            <ns3:hr>144</ns3:hr>
            <ns3:cad>0</ns3:cad>
          </ns3:TrackPointExtension>
        </extensions>
      </trkpt>
      <trkpt lat="45.32025718130171298980712890625" lon="-70.93743785284459590911865234375">
        <ele>737.4000244140625</ele>
        <time>2026-08-21T17:21:35.000Z</time>
        <extensions>
          <ns3:TrackPointExtension>
            <ns3:hr>145</ns3:hr>
            <ns3:cad>0</ns3:cad>
          </ns3:TrackPointExtension>
        </extensions>
      </trkpt>
      <trkpt lat="45.3202502243220806121826171875" lon="-70.9374495036900043487548828125">
        <ele>737.5999755859375</ele>
        <time>2026-08-21T17:21:36.000Z</time>
        <extensions>
          <ns3:TrackPointExtension>
            <ns3:hr>145</ns3:hr>
            <ns3:cad>0</ns3:cad>
          </ns3:TrackPointExtension>
        </extensions>
      </trkpt>
      <trkpt lat="45.320248715579509735107421875" lon="-70.937455035746097564697265625">
        <ele>737.79998779296875</ele>
        <time>2026-08-21T17:21:37.000Z</time>
        <extensions>
          <ns3:TrackPointExtension>
            <ns3:hr>145</ns3:hr>
            <ns3:cad>0</ns3:cad>
          </ns3:TrackPointExtension>
        </extensions>
      </trkpt>
      <trkpt lat="45.32024930231273174285888671875" lon="-70.9374511800706386566162109375">
        <ele>738</ele>
        <time>2026-08-21T17:21:38.000Z</time>
        <extensions>
          <ns3:TrackPointExtension>
            <ns3:hr>145</ns3:hr>
            <ns3:cad>0</ns3:cad>
          </ns3:TrackPointExtension>
        </extensions>
      </trkpt>
      <trkpt lat="45.32024779357016086578369140625" lon="-70.93745193444192409515380859375">
        <ele>738</ele>
        <time>2026-08-21T17:21:39.000Z</time>
        <extensions>
          <ns3:TrackPointExtension>
            <ns3:hr>144</ns3:hr>
            <ns3:cad>0</ns3:cad>
          </ns3:TrackPointExtension>
        </extensions>
      </trkpt>
      <trkpt lat="45.3202448599040508270263671875" lon="-70.9374562092125415802001953125">
        <ele>738</ele>
        <time>2026-08-21T17:21:40.000Z</time>
        <extensions>
          <ns3:TrackPointExtension>
            <ns3:hr>145</ns3:hr>
            <ns3:cad>0</ns3:cad>
          </ns3:TrackPointExtension>
        </extensions>
      </trkpt>
      <trkpt lat="45.3202448599040508270263671875" lon="-70.9374562092125415802001953125">
        <ele>738</ele>
        <time>2026-08-21T17:21:41.000Z</time>
        <extensions>
          <ns3:TrackPointExtension>
            <ns3:hr>145</ns3:hr>
            <ns3:cad>0</ns3:cad>
          </ns3:TrackPointExtension>
        </extensions>
      </trkpt>
      <trkpt lat="45.3202448599040508270263671875" lon="-70.9374562092125415802001953125">
        <ele>738</ele>
        <time>2026-08-21T17:21:42.000Z</time>
        <extensions>
          <ns3:TrackPointExtension>
            <ns3:hr>145</ns3:hr>
            <ns3:cad>0</ns3:cad>
          </ns3:TrackPointExtension>
        </extensions>
      </trkpt>
      <trkpt lat="45.3202448599040508270263671875" lon="-70.9374562092125415802001953125">
        <ele>738</ele>
        <time>2026-08-21T17:21:43.000Z</time>
        <extensions>
          <ns3:TrackPointExtension>
            <ns3:hr>145</ns3:hr>
            <ns3:cad>0</ns3:cad>
          </ns3:TrackPointExtension>
        </extensions>
      </trkpt>
      <trkpt lat="45.3202448599040508270263671875" lon="-70.9374562092125415802001953125">
        <ele>738</ele>
        <time>2026-08-21T17:21:44.000Z</time>
        <extensions>
          <ns3:TrackPointExtension>
            <ns3:hr>144</ns3:hr>
            <ns3:cad>0</ns3:cad>
          </ns3:TrackPointExtension>
        </extensions>
      </trkpt>
      <trkpt lat="45.32024377025663852691650390625" lon="-70.9374568797647953033447265625">
        <ele>738.20001220703125</ele>
        <time>2026-08-21T17:21:45.000Z</time>
        <extensions>
          <ns3:TrackPointExtension>
            <ns3:hr>144</ns3:hr>
            <ns3:cad>0</ns3:cad>
          </ns3:TrackPointExtension>
        </extensions>
      </trkpt>
      <trkpt lat="45.3202378191053867340087890625" lon="-70.93746668659150600433349609375">
        <ele>738.20001220703125</ele>
        <time>2026-08-21T17:21:46.000Z</time>
        <extensions>
          <ns3:TrackPointExtension>
            <ns3:hr>143</ns3:hr>
            <ns3:cad>0</ns3:cad>
          </ns3:TrackPointExtension>
        </extensions>
      </trkpt>
      <trkpt lat="45.320231616497039794921875" lon="-70.93747624196112155914306640625">
        <ele>738.4000244140625</ele>
        <time>2026-08-21T17:21:47.000Z</time>
        <extensions>
          <ns3:TrackPointExtension>
            <ns3:hr>141</ns3:hr>
            <ns3:cad>0</ns3:cad>
          </ns3:TrackPointExtension>
        </extensions>
      </trkpt>
      <trkpt lat="45.3202247433364391326904296875" lon="-70.93748613260686397552490234375">
        <ele>738.4000244140625</ele>
        <time>2026-08-21T17:21:48.000Z</time>
        <extensions>
          <ns3:TrackPointExtension>
            <ns3:hr>140</ns3:hr>
            <ns3:cad>0</ns3:cad>
          </ns3:TrackPointExtension>
        </extensions>
      </trkpt>
      <trkpt lat="45.32021946273744106292724609375" lon="-70.93749166466295719146728515625">
        <ele>738.5999755859375</ele>
        <time>2026-08-21T17:21:49.000Z</time>
        <extensions>
          <ns3:TrackPointExtension>
            <ns3:hr>139</ns3:hr>
            <ns3:cad>0</ns3:cad>
          </ns3:TrackPointExtension>
        </extensions>
      </trkpt>
      <trkpt lat="45.3202093206346035003662109375" lon="-70.937494598329067230224609375">
        <ele>738.5999755859375</ele>
        <time>2026-08-21T17:21:50.000Z</time>
        <extensions>
          <ns3:TrackPointExtension>
            <ns3:hr>138</ns3:hr>
            <ns3:cad>0</ns3:cad>
          </ns3:TrackPointExtension>
        </extensions>
      </trkpt>
      <trkpt lat="45.32019733451306819915771484375" lon="-70.93749753199517726898193359375">
        <ele>738.79998779296875</ele>
        <time>2026-08-21T17:21:51.000Z</time>
        <extensions>
          <ns3:TrackPointExtension>
            <ns3:hr>138</ns3:hr>
            <ns3:cad>0</ns3:cad>
          </ns3:TrackPointExtension>
        </extensions>
      </trkpt>
      <trkpt lat="45.3201912157237529754638671875" lon="-70.93750272877514362335205078125">
        <ele>738.79998779296875</ele>
        <time>2026-08-21T17:21:52.000Z</time>
        <extensions>
          <ns3:TrackPointExtension>
            <ns3:hr>138</ns3:hr>
            <ns3:cad>0</ns3:cad>
          </ns3:TrackPointExtension>
        </extensions>
      </trkpt>
      <trkpt lat="45.32018559984862804412841796875" lon="-70.9375096857547760009765625">
        <ele>739</ele>
        <time>2026-08-21T17:21:53.000Z</time>
        <extensions>
          <ns3:TrackPointExtension>
            <ns3:hr>138</ns3:hr>
            <ns3:cad>0</ns3:cad>
          </ns3:TrackPointExtension>
        </extensions>
      </trkpt>
      <trkpt lat="45.3201761282980442047119140625" lon="-70.937514714896678924560546875">
        <ele>739</ele>
        <time>2026-08-21T17:21:54.000Z</time>
        <extensions>
          <ns3:TrackPointExtension>
            <ns3:hr>137</ns3:hr>
            <ns3:cad>0</ns3:cad>
          </ns3:TrackPointExtension>
        </extensions>
      </trkpt>
      <trkpt lat="45.3201603703200817108154296875" lon="-70.93752242624759674072265625">
        <ele>739.20001220703125</ele>
        <time>2026-08-21T17:21:55.000Z</time>
        <extensions>
          <ns3:TrackPointExtension>
            <ns3:hr>138</ns3:hr>
            <ns3:cad>0</ns3:cad>
          </ns3:TrackPointExtension>
        </extensions>
      </trkpt>
      <trkpt lat="45.3201526589691638946533203125" lon="-70.93752938322722911834716796875">
        <ele>739.20001220703125</ele>
        <time>2026-08-21T17:21:56.000Z</time>
        <extensions>
          <ns3:TrackPointExtension>
            <ns3:hr>138</ns3:hr>
            <ns3:cad>0</ns3:cad>
          </ns3:TrackPointExtension>
        </extensions>
      </trkpt>
      <trkpt lat="45.3201429359614849090576171875" lon="-70.93753189779818058013916015625">
        <ele>739.4000244140625</ele>
        <time>2026-08-21T17:21:57.000Z</time>
        <extensions>
          <ns3:TrackPointExtension>
            <ns3:hr>137</ns3:hr>
            <ns3:cad>43</ns3:cad>
          </ns3:TrackPointExtension>
        </extensions>
      </trkpt>
      <trkpt lat="45.32012742944061756134033203125" lon="-70.9375390224158763885498046875">
        <ele>739.5999755859375</ele>
        <time>2026-08-21T17:21:58.000Z</time>
        <extensions>
          <ns3:TrackPointExtension>
            <ns3:hr>138</ns3:hr>
            <ns3:cad>44</ns3:cad>
          </ns3:TrackPointExtension>
        </extensions>
      </trkpt>
      <trkpt lat="45.3201174549758434295654296875" lon="-70.9375477395951747894287109375">
        <ele>739.5999755859375</ele>
        <time>2026-08-21T17:21:59.000Z</time>
        <extensions>
          <ns3:TrackPointExtension>
            <ns3:hr>138</ns3:hr>
            <ns3:cad>44</ns3:cad>
          </ns3:TrackPointExtension>
        </extensions>
      </trkpt>
      <trkpt lat="45.32010563649237155914306640625" lon="-70.93755587004125118255615234375">
        <ele>739.79998779296875</ele>
        <time>2026-08-21T17:22:00.000Z</time>
        <extensions>
          <ns3:TrackPointExtension>
            <ns3:hr>138</ns3:hr>
            <ns3:cad>44</ns3:cad>
          </ns3:TrackPointExtension>
        </extensions>
      </trkpt>
      <trkpt lat="45.32009624876081943511962890625" lon="-70.9375621564686298370361328125">
        <ele>739.79998779296875</ele>
        <time>2026-08-21T17:22:01.000Z</time>
        <extensions>
          <ns3:TrackPointExtension>
            <ns3:hr>138</ns3:hr>
            <ns3:cad>44</ns3:cad>
          </ns3:TrackPointExtension>
        </extensions>
      </trkpt>
      <trkpt lat="45.32008551992475986480712890625" lon="-70.937572382390499114990234375">
        <ele>739.79998779296875</ele>
        <time>2026-08-21T17:22:02.000Z</time>
        <extensions>
          <ns3:TrackPointExtension>
            <ns3:hr>138</ns3:hr>
            <ns3:cad>0</ns3:cad>
          </ns3:TrackPointExtension>
        </extensions>
      </trkpt>
      <trkpt lat="45.32007127068936824798583984375" lon="-70.9375876374542713165283203125">
        <ele>740</ele>
        <time>2026-08-21T17:22:03.000Z</time>
        <extensions>
          <ns3:TrackPointExtension>
            <ns3:hr>138</ns3:hr>
            <ns3:cad>0</ns3:cad>
          </ns3:TrackPointExtension>
        </extensions>
      </trkpt>
      <trkpt lat="45.32006255351006984710693359375" lon="-70.93759886920452117919921875">
        <ele>740.20001220703125</ele>
        <time>2026-08-21T17:22:04.000Z</time>
        <extensions>
          <ns3:TrackPointExtension>
            <ns3:hr>138</ns3:hr>
            <ns3:cad>0</ns3:cad>
          </ns3:TrackPointExtension>
        </extensions>
      </trkpt>
      <trkpt lat="45.3200571052730083465576171875" lon="-70.93760834075510501861572265625">
        <ele>740.4000244140625</ele>
        <time>2026-08-21T17:22:05.000Z</time>
        <extensions>
          <ns3:TrackPointExtension>
            <ns3:hr>138</ns3:hr>
            <ns3:cad>0</ns3:cad>
          </ns3:TrackPointExtension>
        </extensions>
      </trkpt>
      <trkpt lat="45.320049226284027099609375" lon="-70.9376178123056888580322265625">
        <ele>740.4000244140625</ele>
        <time>2026-08-21T17:22:06.000Z</time>
        <extensions>
          <ns3:TrackPointExtension>
            <ns3:hr>139</ns3:hr>
            <ns3:cad>0</ns3:cad>
          </ns3:TrackPointExtension>
        </extensions>
      </trkpt>
      <trkpt lat="45.3200403414666652679443359375" lon="-70.937634743750095367431640625">
        <ele>740.5999755859375</ele>
        <time>2026-08-21T17:22:07.000Z</time>
        <extensions>
          <ns3:TrackPointExtension>
            <ns3:hr>139</ns3:hr>
            <ns3:cad>47</ns3:cad>
          </ns3:TrackPointExtension>
        </extensions>
      </trkpt>
      <trkpt lat="45.32003455795347690582275390625" lon="-70.93764287419617176055908203125">
        <ele>740.79998779296875</ele>
        <time>2026-08-21T17:22:08.000Z</time>
        <extensions>
          <ns3:TrackPointExtension>
            <ns3:hr>139</ns3:hr>
            <ns3:cad>47</ns3:cad>
          </ns3:TrackPointExtension>
        </extensions>
      </trkpt>
      <trkpt lat="45.32002684660255908966064453125" lon="-70.9376563690602779388427734375">
        <ele>740.79998779296875</ele>
        <time>2026-08-21T17:22:09.000Z</time>
        <extensions>
          <ns3:TrackPointExtension>
            <ns3:hr>138</ns3:hr>
            <ns3:cad>47</ns3:cad>
          </ns3:TrackPointExtension>
        </extensions>
      </trkpt>
      <trkpt lat="45.3200208954513072967529296875" lon="-70.9376701153814792633056640625">
        <ele>741</ele>
        <time>2026-08-21T17:22:10.000Z</time>
        <extensions>
          <ns3:TrackPointExtension>
            <ns3:hr>139</ns3:hr>
            <ns3:cad>44</ns3:cad>
          </ns3:TrackPointExtension>
        </extensions>
      </trkpt>
      <trkpt lat="45.32001477666199207305908203125" lon="-70.93768444843590259552001953125">
        <ele>741</ele>
        <time>2026-08-21T17:22:11.000Z</time>
        <extensions>
          <ns3:TrackPointExtension>
            <ns3:hr>139</ns3:hr>
            <ns3:cad>44</ns3:cad>
          </ns3:TrackPointExtension>
        </extensions>
      </trkpt>
      <trkpt lat="45.32000966370105743408203125" lon="-70.93768872320652008056640625">
        <ele>741.20001220703125</ele>
        <time>2026-08-21T17:22:12.000Z</time>
        <extensions>
          <ns3:TrackPointExtension>
            <ns3:hr>138</ns3:hr>
            <ns3:cad>43</ns3:cad>
          </ns3:TrackPointExtension>
        </extensions>
      </trkpt>
      <trkpt lat="45.320001281797885894775390625" lon="-70.93769702129065990447998046875">
        <ele>741.20001220703125</ele>
        <time>2026-08-21T17:22:13.000Z</time>
        <extensions>
          <ns3:TrackPointExtension>
            <ns3:hr>138</ns3:hr>
            <ns3:cad>43</ns3:cad>
          </ns3:TrackPointExtension>
        </extensions>
      </trkpt>
      <trkpt lat="45.3199930675327777862548828125" lon="-70.9377049840986728668212890625">
        <ele>741.20001220703125</ele>
        <time>2026-08-21T17:22:14.000Z</time>
        <extensions>
          <ns3:TrackPointExtension>
            <ns3:hr>138</ns3:hr>
            <ns3:cad>45</ns3:cad>
          </ns3:TrackPointExtension>
        </extensions>
      </trkpt>
      <trkpt lat="45.3199833445250988006591796875" lon="-70.93771378509700298309326171875">
        <ele>741.4000244140625</ele>
        <time>2026-08-21T17:22:15.000Z</time>
        <extensions>
          <ns3:TrackPointExtension>
            <ns3:hr>139</ns3:hr>
            <ns3:cad>45</ns3:cad>
          </ns3:TrackPointExtension>
        </extensions>
      </trkpt>
      <trkpt lat="45.31997135840356349945068359375" lon="-70.9377173893153667449951171875">
        <ele>741.4000244140625</ele>
        <time>2026-08-21T17:22:16.000Z</time>
        <extensions>
          <ns3:TrackPointExtension>
            <ns3:hr>138</ns3:hr>
            <ns3:cad>45</ns3:cad>
          </ns3:TrackPointExtension>
        </extensions>
      </trkpt>
      <trkpt lat="45.31996079720556735992431640625" lon="-70.93772266991436481475830078125">
        <ele>741.4000244140625</ele>
        <time>2026-08-21T17:22:17.000Z</time>
        <extensions>
          <ns3:TrackPointExtension>
            <ns3:hr>138</ns3:hr>
            <ns3:cad>0</ns3:cad>
          </ns3:TrackPointExtension>
        </extensions>
      </trkpt>
      <trkpt lat="45.31995073892176151275634765625" lon="-70.93772895634174346923828125">
        <ele>741.4000244140625</ele>
        <time>2026-08-21T17:22:18.000Z</time>
        <extensions>
          <ns3:TrackPointExtension>
            <ns3:hr>138</ns3:hr>
            <ns3:cad>0</ns3:cad>
          </ns3:TrackPointExtension>
        </extensions>
      </trkpt>
      <trkpt lat="45.319938249886035919189453125" lon="-70.93773624859750270843505859375">
        <ele>741.4000244140625</ele>
        <time>2026-08-21T17:22:19.000Z</time>
        <extensions>
          <ns3:TrackPointExtension>
            <ns3:hr>137</ns3:hr>
            <ns3:cad>0</ns3:cad>
          </ns3:TrackPointExtension>
        </extensions>
      </trkpt>
      <trkpt lat="45.31992492265999317169189453125" lon="-70.93774077482521533966064453125">
        <ele>741.4000244140625</ele>
        <time>2026-08-21T17:22:20.000Z</time>
        <extensions>
          <ns3:TrackPointExtension>
            <ns3:hr>136</ns3:hr>
            <ns3:cad>0</ns3:cad>
          </ns3:TrackPointExtension>
        </extensions>
      </trkpt>
      <trkpt lat="45.31991033814847469329833984375" lon="-70.9377489052712917327880859375">
        <ele>741.4000244140625</ele>
        <time>2026-08-21T17:22:21.000Z</time>
        <extensions>
          <ns3:TrackPointExtension>
            <ns3:hr>135</ns3:hr>
            <ns3:cad>0</ns3:cad>
          </ns3:TrackPointExtension>
        </extensions>
      </trkpt>
      <trkpt lat="45.31990061514079570770263671875" lon="-70.9377606399357318878173828125">
        <ele>741.20001220703125</ele>
        <time>2026-08-21T17:22:22.000Z</time>
        <extensions>
          <ns3:TrackPointExtension>
            <ns3:hr>135</ns3:hr>
            <ns3:cad>51</ns3:cad>
          </ns3:TrackPointExtension>
        </extensions>
      </trkpt>
      <trkpt lat="45.31989089213311672210693359375" lon="-70.93777715228497982025146484375">
        <ele>741.20001220703125</ele>
        <time>2026-08-21T17:22:23.000Z</time>
        <extensions>
          <ns3:TrackPointExtension>
            <ns3:hr>134</ns3:hr>
            <ns3:cad>51</ns3:cad>
          </ns3:TrackPointExtension>
        </extensions>
      </trkpt>
      <trkpt lat="45.31988167203962802886962890625" lon="-70.9377955086529254913330078125">
        <ele>741.20001220703125</ele>
        <time>2026-08-21T17:22:24.000Z</time>
        <extensions>
          <ns3:TrackPointExtension>
            <ns3:hr>134</ns3:hr>
            <ns3:cad>51</ns3:cad>
          </ns3:TrackPointExtension>
        </extensions>
      </trkpt>
      <trkpt lat="45.31987781636416912078857421875" lon="-70.93781612813472747802734375">
        <ele>741.20001220703125</ele>
        <time>2026-08-21T17:22:25.000Z</time>
        <extensions>
          <ns3:TrackPointExtension>
            <ns3:hr>134</ns3:hr>
            <ns3:cad>51</ns3:cad>
          </ns3:TrackPointExtension>
        </extensions>
      </trkpt>
      <trkpt lat="45.31987613998353481292724609375" lon="-70.93784152530133724212646484375">
        <ele>741.20001220703125</ele>
        <time>2026-08-21T17:22:26.000Z</time>
        <extensions>
          <ns3:TrackPointExtension>
            <ns3:hr>134</ns3:hr>
            <ns3:cad>51</ns3:cad>
          </ns3:TrackPointExtension>
        </extensions>
      </trkpt>
      <trkpt lat="45.31987278722226619720458984375" lon="-70.937862396240234375">
        <ele>741</ele>
        <time>2026-08-21T17:22:27.000Z</time>
        <extensions>
          <ns3:TrackPointExtension>
            <ns3:hr>134</ns3:hr>
            <ns3:cad>50</ns3:cad>
          </ns3:TrackPointExtension>
        </extensions>
      </trkpt>
      <trkpt lat="45.31986482441425323486328125" lon="-70.93788242898881435394287109375">
        <ele>740.79998779296875</ele>
        <time>2026-08-21T17:22:28.000Z</time>
        <extensions>
          <ns3:TrackPointExtension>
            <ns3:hr>134</ns3:hr>
            <ns3:cad>50</ns3:cad>
          </ns3:TrackPointExtension>
        </extensions>
      </trkpt>
      <trkpt lat="45.3198569454252719879150390625" lon="-70.93789969570934772491455078125">
        <ele>740.79998779296875</ele>
        <time>2026-08-21T17:22:29.000Z</time>
        <extensions>
          <ns3:TrackPointExtension>
            <ns3:hr>134</ns3:hr>
            <ns3:cad>53</ns3:cad>
          </ns3:TrackPointExtension>
        </extensions>
      </trkpt>
      <trkpt lat="45.31985409557819366455078125" lon="-70.93792081810534000396728515625">
        <ele>740.5999755859375</ele>
        <time>2026-08-21T17:22:30.000Z</time>
        <extensions>
          <ns3:TrackPointExtension>
            <ns3:hr>134</ns3:hr>
            <ns3:cad>53</ns3:cad>
          </ns3:TrackPointExtension>
        </extensions>
      </trkpt>
      <trkpt lat="45.3198552690446376800537109375" lon="-70.93794462271034717559814453125">
        <ele>740.5999755859375</ele>
        <time>2026-08-21T17:22:31.000Z</time>
        <extensions>
          <ns3:TrackPointExtension>
            <ns3:hr>132</ns3:hr>
            <ns3:cad>53</ns3:cad>
          </ns3:TrackPointExtension>
        </extensions>
      </trkpt>
      <trkpt lat="45.31985484994947910308837890625" lon="-70.937967002391815185546875">
        <ele>740.5999755859375</ele>
        <time>2026-08-21T17:22:32.000Z</time>
        <extensions>
          <ns3:TrackPointExtension>
            <ns3:hr>131</ns3:hr>
            <ns3:cad>54</ns3:cad>
          </ns3:TrackPointExtension>
        </extensions>
      </trkpt>
      <trkpt lat="45.31985753215849399566650390625" lon="-70.93798569403588771820068359375">
        <ele>740.5999755859375</ele>
        <time>2026-08-21T17:22:33.000Z</time>
        <extensions>
          <ns3:TrackPointExtension>
            <ns3:hr>131</ns3:hr>
            <ns3:cad>54</ns3:cad>
          </ns3:TrackPointExtension>
        </extensions>
      </trkpt>
      <trkpt lat="45.31985484994947910308837890625" lon="-70.93800363130867481231689453125">
        <ele>740.5999755859375</ele>
        <time>2026-08-21T17:22:34.000Z</time>
        <extensions>
          <ns3:TrackPointExtension>
            <ns3:hr>131</ns3:hr>
            <ns3:cad>55</ns3:cad>
          </ns3:TrackPointExtension>
        </extensions>
      </trkpt>
      <trkpt lat="45.31985669396817684173583984375" lon="-70.93802659772336483001708984375">
        <ele>740.79998779296875</ele>
        <time>2026-08-21T17:22:35.000Z</time>
        <extensions>
          <ns3:TrackPointExtension>
            <ns3:hr>131</ns3:hr>
            <ns3:cad>55</ns3:cad>
          </ns3:TrackPointExtension>
        </extensions>
      </trkpt>
      <trkpt lat="45.3198601305484771728515625" lon="-70.93804503791034221649169921875">
        <ele>740.79998779296875</ele>
        <time>2026-08-21T17:22:36.000Z</time>
        <extensions>
          <ns3:TrackPointExtension>
            <ns3:hr>130</ns3:hr>
            <ns3:cad>55</ns3:cad>
          </ns3:TrackPointExtension>
        </extensions>
      </trkpt>
      <trkpt lat="45.31986742280423641204833984375" lon="-70.93806398101150989532470703125">
        <ele>740.79998779296875</ele>
        <time>2026-08-21T17:22:37.000Z</time>
        <extensions>
          <ns3:TrackPointExtension>
            <ns3:hr>130</ns3:hr>
            <ns3:cad>55</ns3:cad>
          </ns3:TrackPointExtension>
        </extensions>
      </trkpt>
      <trkpt lat="45.31987152993679046630859375" lon="-70.93808292411267757415771484375">
        <ele>740.79998779296875</ele>
        <time>2026-08-21T17:22:38.000Z</time>
        <extensions>
          <ns3:TrackPointExtension>
            <ns3:hr>130</ns3:hr>
            <ns3:cad>55</ns3:cad>
          </ns3:TrackPointExtension>
        </extensions>
      </trkpt>
      <trkpt lat="45.319876559078693389892578125" lon="-70.93809901736676692962646484375">
        <ele>740.79998779296875</ele>
        <time>2026-08-21T17:22:39.000Z</time>
        <extensions>
          <ns3:TrackPointExtension>
            <ns3:hr>130</ns3:hr>
            <ns3:cad>55</ns3:cad>
          </ns3:TrackPointExtension>
        </extensions>
      </trkpt>
      <trkpt lat="45.31988016329705715179443359375" lon="-70.93811787664890289306640625">
        <ele>740.79998779296875</ele>
        <time>2026-08-21T17:22:40.000Z</time>
        <extensions>
          <ns3:TrackPointExtension>
            <ns3:hr>129</ns3:hr>
            <ns3:cad>55</ns3:cad>
          </ns3:TrackPointExtension>
        </extensions>
      </trkpt>
      <trkpt lat="45.31988301314413547515869140625" lon="-70.93813220970332622528076171875">
        <ele>741</ele>
        <time>2026-08-21T17:22:41.000Z</time>
        <extensions>
          <ns3:TrackPointExtension>
            <ns3:hr>129</ns3:hr>
            <ns3:cad>55</ns3:cad>
          </ns3:TrackPointExtension>
        </extensions>
      </trkpt>
      <trkpt lat="45.31988888047635555267333984375" lon="-70.93815249390900135040283203125">
        <ele>741</ele>
        <time>2026-08-21T17:22:42.000Z</time>
        <extensions>
          <ns3:TrackPointExtension>
            <ns3:hr>128</ns3:hr>
            <ns3:cad>55</ns3:cad>
          </ns3:TrackPointExtension>
        </extensions>
      </trkpt>
      <trkpt lat="45.31989407725632190704345703125" lon="-70.9381669946014881134033203125">
        <ele>741</ele>
        <time>2026-08-21T17:22:43.000Z</time>
        <extensions>
          <ns3:TrackPointExtension>
            <ns3:hr>128</ns3:hr>
            <ns3:cad>55</ns3:cad>
          </ns3:TrackPointExtension>
        </extensions>
      </trkpt>
      <trkpt lat="45.31989575363695621490478515625" lon="-70.93818099237978458404541015625">
        <ele>741</ele>
        <time>2026-08-21T17:22:44.000Z</time>
        <extensions>
          <ns3:TrackPointExtension>
            <ns3:hr>128</ns3:hr>
            <ns3:cad>0</ns3:cad>
          </ns3:TrackPointExtension>
        </extensions>
      </trkpt>
      <trkpt lat="45.31989474780857563018798828125" lon="-70.93819968402385711669921875">
        <ele>741</ele>
        <time>2026-08-21T17:22:45.000Z</time>
        <extensions>
          <ns3:TrackPointExtension>
            <ns3:hr>129</ns3:hr>
            <ns3:cad>0</ns3:cad>
          </ns3:TrackPointExtension>
        </extensions>
      </trkpt>
      <trkpt lat="45.3198908083140850067138671875" lon="-70.9382199682295322418212890625">
        <ele>741</ele>
        <time>2026-08-21T17:22:46.000Z</time>
        <extensions>
          <ns3:TrackPointExtension>
            <ns3:hr>129</ns3:hr>
            <ns3:cad>0</ns3:cad>
          </ns3:TrackPointExtension>
        </extensions>
      </trkpt>
      <trkpt lat="45.3198908083140850067138671875" lon="-70.93823698349297046661376953125">
        <ele>740.79998779296875</ele>
        <time>2026-08-21T17:22:47.000Z</time>
        <extensions>
          <ns3:TrackPointExtension>
            <ns3:hr>129</ns3:hr>
            <ns3:cad>0</ns3:cad>
          </ns3:TrackPointExtension>
        </extensions>
      </trkpt>
      <trkpt lat="45.3198904730379581451416015625" lon="-70.93825173564255237579345703125">
        <ele>740.79998779296875</ele>
        <time>2026-08-21T17:22:48.000Z</time>
        <extensions>
          <ns3:TrackPointExtension>
            <ns3:hr>129</ns3:hr>
            <ns3:cad>0</ns3:cad>
          </ns3:TrackPointExtension>
        </extensions>
      </trkpt>
      <trkpt lat="45.31989122740924358367919921875" lon="-70.938267074525356292724609375">
        <ele>741</ele>
        <time>2026-08-21T17:22:49.000Z</time>
        <extensions>
          <ns3:TrackPointExtension>
            <ns3:hr>129</ns3:hr>
            <ns3:cad>55</ns3:cad>
          </ns3:TrackPointExtension>
        </extensions>
      </trkpt>
      <trkpt lat="45.31989173032343387603759765625" lon="-70.93827604316174983978271484375">
        <ele>741</ele>
        <time>2026-08-21T17:22:50.000Z</time>
        <extensions>
          <ns3:TrackPointExtension>
            <ns3:hr>128</ns3:hr>
            <ns3:cad>55</ns3:cad>
          </ns3:TrackPointExtension>
        </extensions>
      </trkpt>
      <trkpt lat="45.31989458017051219940185546875" lon="-70.938294231891632080078125">
        <ele>741.20001220703125</ele>
        <time>2026-08-21T17:22:51.000Z</time>
        <extensions>
          <ns3:TrackPointExtension>
            <ns3:hr>128</ns3:hr>
            <ns3:cad>55</ns3:cad>
          </ns3:TrackPointExtension>
        </extensions>
      </trkpt>
      <trkpt lat="45.3199038840830326080322265625" lon="-70.93830873258411884307861328125">
        <ele>741.4000244140625</ele>
        <time>2026-08-21T17:22:52.000Z</time>
        <extensions>
          <ns3:TrackPointExtension>
            <ns3:hr>128</ns3:hr>
            <ns3:cad>55</ns3:cad>
          </ns3:TrackPointExtension>
        </extensions>
      </trkpt>
      <trkpt lat="45.3199139423668384552001953125" lon="-70.93832046724855899810791015625">
        <ele>741.5999755859375</ele>
        <time>2026-08-21T17:22:53.000Z</time>
        <extensions>
          <ns3:TrackPointExtension>
            <ns3:hr>128</ns3:hr>
            <ns3:cad>55</ns3:cad>
          </ns3:TrackPointExtension>
        </extensions>
      </trkpt>
      <trkpt lat="45.31992249190807342529296875" lon="-70.938334129750728607177734375">
        <ele>741.79998779296875</ele>
        <time>2026-08-21T17:22:54.000Z</time>
        <extensions>
          <ns3:TrackPointExtension>
            <ns3:hr>128</ns3:hr>
            <ns3:cad>55</ns3:cad>
          </ns3:TrackPointExtension>
        </extensions>
      </trkpt>
      <trkpt lat="45.31992944888770580291748046875" lon="-70.9383503906428813934326171875">
        <ele>741.79998779296875</ele>
        <time>2026-08-21T17:22:55.000Z</time>
        <extensions>
          <ns3:TrackPointExtension>
            <ns3:hr>127</ns3:hr>
            <ns3:cad>55</ns3:cad>
          </ns3:TrackPointExtension>
        </extensions>
      </trkpt>
      <trkpt lat="45.31993699260056018829345703125" lon="-70.9383653104305267333984375">
        <ele>742</ele>
        <time>2026-08-21T17:22:56.000Z</time>
        <extensions>
          <ns3:TrackPointExtension>
            <ns3:hr>128</ns3:hr>
            <ns3:cad>50</ns3:cad>
          </ns3:TrackPointExtension>
        </extensions>
      </trkpt>
      <trkpt lat="45.3199434466660022735595703125" lon="-70.9383755363523960113525390625">
        <ele>742</ele>
        <time>2026-08-21T17:22:57.000Z</time>
        <extensions>
          <ns3:TrackPointExtension>
            <ns3:hr>127</ns3:hr>
            <ns3:cad>50</ns3:cad>
          </ns3:TrackPointExtension>
        </extensions>
      </trkpt>
      <trkpt lat="45.31994805671274662017822265625" lon="-70.93839204870164394378662109375">
        <ele>742.20001220703125</ele>
        <time>2026-08-21T17:22:58.000Z</time>
        <extensions>
          <ns3:TrackPointExtension>
            <ns3:hr>127</ns3:hr>
            <ns3:cad>50</ns3:cad>
          </ns3:TrackPointExtension>
        </extensions>
      </trkpt>
      <trkpt lat="45.31995560042560100555419921875" lon="-70.9384083934128284454345703125">
        <ele>742.4000244140625</ele>
        <time>2026-08-21T17:22:59.000Z</time>
        <extensions>
          <ns3:TrackPointExtension>
            <ns3:hr>127</ns3:hr>
            <ns3:cad>49</ns3:cad>
          </ns3:TrackPointExtension>
        </extensions>
      </trkpt>
      <trkpt lat="45.319963060319423675537109375" lon="-70.938417613506317138671875">
        <ele>742.5999755859375</ele>
        <time>2026-08-21T17:23:00.000Z</time>
        <extensions>
          <ns3:TrackPointExtension>
            <ns3:hr>127</ns3:hr>
            <ns3:cad>49</ns3:cad>
          </ns3:TrackPointExtension>
        </extensions>
      </trkpt>
      <trkpt lat="45.3199726156890392303466796875" lon="-70.93843312002718448638916015625">
        <ele>742.79998779296875</ele>
        <time>2026-08-21T17:23:01.000Z</time>
        <extensions>
          <ns3:TrackPointExtension>
            <ns3:hr>127</ns3:hr>
            <ns3:cad>50</ns3:cad>
          </ns3:TrackPointExtension>
        </extensions>
      </trkpt>
      <trkpt lat="45.3199799917638301849365234375" lon="-70.93844368122518062591552734375">
        <ele>743</ele>
        <time>2026-08-21T17:23:02.000Z</time>
        <extensions>
          <ns3:TrackPointExtension>
            <ns3:hr>128</ns3:hr>
            <ns3:cad>50</ns3:cad>
          </ns3:TrackPointExtension>
        </extensions>
      </trkpt>
      <trkpt lat="45.31998728401958942413330078125" lon="-70.93845239840447902679443359375">
        <ele>743</ele>
        <time>2026-08-21T17:23:03.000Z</time>
        <extensions>
          <ns3:TrackPointExtension>
            <ns3:hr>128</ns3:hr>
            <ns3:cad>50</ns3:cad>
          </ns3:TrackPointExtension>
        </extensions>
      </trkpt>
      <trkpt lat="45.3199913911521434783935546875" lon="-70.93845860101282596588134765625">
        <ele>743.20001220703125</ele>
        <time>2026-08-21T17:23:04.000Z</time>
        <extensions>
          <ns3:TrackPointExtension>
            <ns3:hr>128</ns3:hr>
            <ns3:cad>52</ns3:cad>
          </ns3:TrackPointExtension>
        </extensions>
      </trkpt>
      <trkpt lat="45.31999968923628330230712890625" lon="-70.9384674020111560821533203125">
        <ele>743.4000244140625</ele>
        <time>2026-08-21T17:23:05.000Z</time>
        <extensions>
          <ns3:TrackPointExtension>
            <ns3:hr>128</ns3:hr>
            <ns3:cad>52</ns3:cad>
          </ns3:TrackPointExtension>
        </extensions>
      </trkpt>
      <trkpt lat="45.32000639475882053375244140625" lon="-70.9384779632091522216796875">
        <ele>743.5999755859375</ele>
        <time>2026-08-21T17:23:06.000Z</time>
        <extensions>
          <ns3:TrackPointExtension>
            <ns3:hr>128</ns3:hr>
            <ns3:cad>0</ns3:cad>
          </ns3:TrackPointExtension>
        </extensions>
      </trkpt>
      <trkpt lat="45.32001242972910404205322265625" lon="-70.93848860822618007659912109375">
        <ele>744</ele>
        <time>2026-08-21T17:23:07.000Z</time>
        <extensions>
          <ns3:TrackPointExtension>
            <ns3:hr>130</ns3:hr>
            <ns3:cad>0</ns3:cad>
          </ns3:TrackPointExtension>
        </extensions>
      </trkpt>
      <trkpt lat="45.3200168721377849578857421875" lon="-70.9384979121387004852294921875">
        <ele>744.20001220703125</ele>
        <time>2026-08-21T17:23:08.000Z</time>
        <extensions>
          <ns3:TrackPointExtension>
            <ns3:hr>131</ns3:hr>
            <ns3:cad>0</ns3:cad>
          </ns3:TrackPointExtension>
        </extensions>
      </trkpt>
      <trkpt lat="45.320020727813243865966796875" lon="-70.93850403092801570892333984375">
        <ele>744.4000244140625</ele>
        <time>2026-08-21T17:23:09.000Z</time>
        <extensions>
          <ns3:TrackPointExtension>
            <ns3:hr>132</ns3:hr>
            <ns3:cad>0</ns3:cad>
          </ns3:TrackPointExtension>
        </extensions>
      </trkpt>
      <trkpt lat="45.32002508640289306640625" lon="-70.93851358629763126373291015625">
        <ele>744.79998779296875</ele>
        <time>2026-08-21T17:23:10.000Z</time>
        <extensions>
          <ns3:TrackPointExtension>
            <ns3:hr>132</ns3:hr>
            <ns3:cad>0</ns3:cad>
          </ns3:TrackPointExtension>
        </extensions>
      </trkpt>
      <trkpt lat="45.32003070227801799774169921875" lon="-70.938524901866912841796875">
        <ele>745</ele>
        <time>2026-08-21T17:23:11.000Z</time>
        <extensions>
          <ns3:TrackPointExtension>
            <ns3:hr>132</ns3:hr>
            <ns3:cad>0</ns3:cad>
          </ns3:TrackPointExtension>
        </extensions>
      </trkpt>
      <trkpt lat="45.32003782689571380615234375" lon="-70.9385337866842746734619140625">
        <ele>745.20001220703125</ele>
        <time>2026-08-21T17:23:12.000Z</time>
        <extensions>
          <ns3:TrackPointExtension>
            <ns3:hr>132</ns3:hr>
            <ns3:cad>0</ns3:cad>
          </ns3:TrackPointExtension>
        </extensions>
      </trkpt>
      <trkpt lat="45.32004260458052158355712890625" lon="-70.93853604979813098907470703125">
        <ele>745.4000244140625</ele>
        <time>2026-08-21T17:23:13.000Z</time>
        <extensions>
          <ns3:TrackPointExtension>
            <ns3:hr>132</ns3:hr>
            <ns3:cad>0</ns3:cad>
          </ns3:TrackPointExtension>
        </extensions>
      </trkpt>
      <trkpt lat="45.32004863955080509185791015625" lon="-70.93854459933936595916748046875">
        <ele>745.4000244140625</ele>
        <time>2026-08-21T17:23:14.000Z</time>
        <extensions>
          <ns3:TrackPointExtension>
            <ns3:hr>132</ns3:hr>
            <ns3:cad>0</ns3:cad>
          </ns3:TrackPointExtension>
        </extensions>
      </trkpt>
      <trkpt lat="45.32005869783461093902587890625" lon="-70.9385555796325206756591796875">
        <ele>745.5999755859375</ele>
        <time>2026-08-21T17:23:15.000Z</time>
        <extensions>
          <ns3:TrackPointExtension>
            <ns3:hr>133</ns3:hr>
            <ns3:cad>0</ns3:cad>
          </ns3:TrackPointExtension>
        </extensions>
      </trkpt>
      <trkpt lat="45.32007135450839996337890625" lon="-70.93856756575405597686767578125">
        <ele>745.5999755859375</ele>
        <time>2026-08-21T17:23:16.000Z</time>
        <extensions>
          <ns3:TrackPointExtension>
            <ns3:hr>132</ns3:hr>
            <ns3:cad>44</ns3:cad>
          </ns3:TrackPointExtension>
        </extensions>
      </trkpt>
      <trkpt lat="45.320080406963825225830078125" lon="-70.93857913278043270111083984375">
        <ele>745.79998779296875</ele>
        <time>2026-08-21T17:23:17.000Z</time>
        <extensions>
          <ns3:TrackPointExtension>
            <ns3:hr>132</ns3:hr>
            <ns3:cad>44</ns3:cad>
          </ns3:TrackPointExtension>
        </extensions>
      </trkpt>
      <trkpt lat="45.3200881183147430419921875" lon="-70.93859137035906314849853515625">
        <ele>745.79998779296875</ele>
        <time>2026-08-21T17:23:18.000Z</time>
        <extensions>
          <ns3:TrackPointExtension>
            <ns3:hr>133</ns3:hr>
            <ns3:cad>47</ns3:cad>
          </ns3:TrackPointExtension>
        </extensions>
      </trkpt>
      <trkpt lat="45.32009574584662914276123046875" lon="-70.9386052004992961883544921875">
        <ele>745.79998779296875</ele>
        <time>2026-08-21T17:23:19.000Z</time>
        <extensions>
          <ns3:TrackPointExtension>
            <ns3:hr>133</ns3:hr>
            <ns3:cad>49</ns3:cad>
          </ns3:TrackPointExtension>
        </extensions>
      </trkpt>
      <trkpt lat="45.3200996853411197662353515625" lon="-70.93861618079245090484619140625">
        <ele>745.79998779296875</ele>
        <time>2026-08-21T17:23:20.000Z</time>
        <extensions>
          <ns3:TrackPointExtension>
            <ns3:hr>134</ns3:hr>
            <ns3:cad>49</ns3:cad>
          </ns3:TrackPointExtension>
        </extensions>
      </trkpt>
      <trkpt lat="45.3201060555875301361083984375" lon="-70.938632190227508544921875">
        <ele>746</ele>
        <time>2026-08-21T17:23:21.000Z</time>
        <extensions>
          <ns3:TrackPointExtension>
            <ns3:hr>134</ns3:hr>
            <ns3:cad>49</ns3:cad>
          </ns3:TrackPointExtension>
        </extensions>
      </trkpt>
      <trkpt lat="45.32011351548135280609130859375" lon="-70.93865163624286651611328125">
        <ele>746</ele>
        <time>2026-08-21T17:23:22.000Z</time>
        <extensions>
          <ns3:TrackPointExtension>
            <ns3:hr>134</ns3:hr>
            <ns3:cad>49</ns3:cad>
          </ns3:TrackPointExtension>
        </extensions>
      </trkpt>
      <trkpt lat="45.32012273557484149932861328125" lon="-70.93867217190563678741455078125">
        <ele>746</ele>
        <time>2026-08-21T17:23:23.000Z</time>
        <extensions>
          <ns3:TrackPointExtension>
            <ns3:hr>135</ns3:hr>
            <ns3:cad>48</ns3:cad>
          </ns3:TrackPointExtension>
        </extensions>
      </trkpt>
      <trkpt lat="45.32013296149671077728271484375" lon="-70.93868658877909183502197265625">
        <ele>746.20001220703125</ele>
        <time>2026-08-21T17:23:24.000Z</time>
        <extensions>
          <ns3:TrackPointExtension>
            <ns3:hr>135</ns3:hr>
            <ns3:cad>48</ns3:cad>
          </ns3:TrackPointExtension>
        </extensions>
      </trkpt>
      <trkpt lat="45.3201446123421192169189453125" lon="-70.938694886863231658935546875">
        <ele>746.4000244140625</ele>
        <time>2026-08-21T17:23:25.000Z</time>
        <extensions>
          <ns3:TrackPointExtension>
            <ns3:hr>135</ns3:hr>
            <ns3:cad>48</ns3:cad>
          </ns3:TrackPointExtension>
        </extensions>
      </trkpt>
      <trkpt lat="45.320155508816242218017578125" lon="-70.93870352022349834442138671875">
        <ele>746.4000244140625</ele>
        <time>2026-08-21T17:23:26.000Z</time>
        <extensions>
          <ns3:TrackPointExtension>
            <ns3:hr>136</ns3:hr>
            <ns3:cad>48</ns3:cad>
          </ns3:TrackPointExtension>
        </extensions>
      </trkpt>
      <trkpt lat="45.320169590413570404052734375" lon="-70.9387111477553844451904296875">
        <ele>746.5999755859375</ele>
        <time>2026-08-21T17:23:27.000Z</time>
        <extensions>
          <ns3:TrackPointExtension>
            <ns3:hr>136</ns3:hr>
            <ns3:cad>48</ns3:cad>
          </ns3:TrackPointExtension>
        </extensions>
      </trkpt>
      <trkpt lat="45.3201821632683277130126953125" lon="-70.9387161768972873687744140625">
        <ele>746.5999755859375</ele>
        <time>2026-08-21T17:23:28.000Z</time>
        <extensions>
          <ns3:TrackPointExtension>
            <ns3:hr>137</ns3:hr>
            <ns3:cad>48</ns3:cad>
          </ns3:TrackPointExtension>
        </extensions>
      </trkpt>
      <trkpt lat="45.3202021121978759765625" lon="-70.9387265704572200775146484375">
        <ele>746.79998779296875</ele>
        <time>2026-08-21T17:23:29.000Z</time>
        <extensions>
          <ns3:TrackPointExtension>
            <ns3:hr>137</ns3:hr>
            <ns3:cad>51</ns3:cad>
          </ns3:TrackPointExtension>
        </extensions>
      </trkpt>
      <trkpt lat="45.32021191902458667755126953125" lon="-70.93873218633234500885009765625">
        <ele>747</ele>
        <time>2026-08-21T17:23:30.000Z</time>
        <extensions>
          <ns3:TrackPointExtension>
            <ns3:hr>137</ns3:hr>
            <ns3:cad>51</ns3:cad>
          </ns3:TrackPointExtension>
        </extensions>
      </trkpt>
      <trkpt lat="45.320222564041614532470703125" lon="-70.93873604200780391693115234375">
        <ele>747</ele>
        <time>2026-08-21T17:23:31.000Z</time>
        <extensions>
          <ns3:TrackPointExtension>
            <ns3:hr>137</ns3:hr>
            <ns3:cad>51</ns3:cad>
          </ns3:TrackPointExtension>
        </extensions>
      </trkpt>
      <trkpt lat="45.320234633982181549072265625" lon="-70.93873386271297931671142578125">
        <ele>747.20001220703125</ele>
        <time>2026-08-21T17:23:32.000Z</time>
        <extensions>
          <ns3:TrackPointExtension>
            <ns3:hr>137</ns3:hr>
            <ns3:cad>51</ns3:cad>
          </ns3:TrackPointExtension>
        </extensions>
      </trkpt>
      <trkpt lat="45.32024829648435115814208984375" lon="-70.93873453326523303985595703125">
        <ele>747.4000244140625</ele>
        <time>2026-08-21T17:23:33.000Z</time>
        <extensions>
          <ns3:TrackPointExtension>
            <ns3:hr>137</ns3:hr>
            <ns3:cad>51</ns3:cad>
          </ns3:TrackPointExtension>
        </extensions>
      </trkpt>
      <trkpt lat="45.32026313245296478271484375" lon="-70.93873537145555019378662109375">
        <ele>747.4000244140625</ele>
        <time>2026-08-21T17:23:34.000Z</time>
        <extensions>
          <ns3:TrackPointExtension>
            <ns3:hr>138</ns3:hr>
            <ns3:cad>51</ns3:cad>
          </ns3:TrackPointExtension>
        </extensions>
      </trkpt>
      <trkpt lat="45.3202767111361026763916015625" lon="-70.93873788602650165557861328125">
        <ele>747.5999755859375</ele>
        <time>2026-08-21T17:23:35.000Z</time>
        <extensions>
          <ns3:TrackPointExtension>
            <ns3:hr>139</ns3:hr>
            <ns3:cad>46</ns3:cad>
          </ns3:TrackPointExtension>
        </extensions>
      </trkpt>
      <trkpt lat="45.320285595953464508056640625" lon="-70.93874014914035797119140625">
        <ele>747.79998779296875</ele>
        <time>2026-08-21T17:23:36.000Z</time>
        <extensions>
          <ns3:TrackPointExtension>
            <ns3:hr>139</ns3:hr>
            <ns3:cad>46</ns3:cad>
          </ns3:TrackPointExtension>
        </extensions>
      </trkpt>
      <trkpt lat="45.3202941454946994781494140625" lon="-70.938743837177753448486328125">
        <ele>748</ele>
        <time>2026-08-21T17:23:37.000Z</time>
        <extensions>
          <ns3:TrackPointExtension>
            <ns3:hr>139</ns3:hr>
            <ns3:cad>46</ns3:cad>
          </ns3:TrackPointExtension>
        </extensions>
      </trkpt>
      <trkpt lat="45.3203042037785053253173828125" lon="-70.93874660320580005645751953125">
        <ele>748</ele>
        <time>2026-08-21T17:23:38.000Z</time>
        <extensions>
          <ns3:TrackPointExtension>
            <ns3:hr>139</ns3:hr>
            <ns3:cad>46</ns3:cad>
          </ns3:TrackPointExtension>
        </extensions>
      </trkpt>
      <trkpt lat="45.320318453013896942138671875" lon="-70.9387543983757495880126953125">
        <ele>748.4000244140625</ele>
        <time>2026-08-21T17:23:39.000Z</time>
        <extensions>
          <ns3:TrackPointExtension>
            <ns3:hr>138</ns3:hr>
            <ns3:cad>46</ns3:cad>
          </ns3:TrackPointExtension>
        </extensions>
      </trkpt>
      <trkpt lat="45.3203276731073856353759765625" lon="-70.938757918775081634521484375">
        <ele>748.4000244140625</ele>
        <time>2026-08-21T17:23:40.000Z</time>
        <extensions>
          <ns3:TrackPointExtension>
            <ns3:hr>138</ns3:hr>
            <ns3:cad>46</ns3:cad>
          </ns3:TrackPointExtension>
        </extensions>
      </trkpt>
      <trkpt lat="45.3203384019434452056884765625" lon="-70.93876152299344539642333984375">
        <ele>748.5999755859375</ele>
        <time>2026-08-21T17:23:41.000Z</time>
        <extensions>
          <ns3:TrackPointExtension>
            <ns3:hr>138</ns3:hr>
            <ns3:cad>48</ns3:cad>
          </ns3:TrackPointExtension>
        </extensions>
      </trkpt>
      <trkpt lat="45.32034971751272678375244140625" lon="-70.93876789323985576629638671875">
        <ele>748.79998779296875</ele>
        <time>2026-08-21T17:23:42.000Z</time>
        <extensions>
          <ns3:TrackPointExtension>
            <ns3:hr>138</ns3:hr>
            <ns3:cad>48</ns3:cad>
          </ns3:TrackPointExtension>
        </extensions>
      </trkpt>
      <trkpt lat="45.32036245800554752349853515625" lon="-70.93877233564853668212890625">
        <ele>749</ele>
        <time>2026-08-21T17:23:43.000Z</time>
        <extensions>
          <ns3:TrackPointExtension>
            <ns3:hr>138</ns3:hr>
            <ns3:cad>47</ns3:cad>
          </ns3:TrackPointExtension>
        </extensions>
      </trkpt>
      <trkpt lat="45.32037444412708282470703125" lon="-70.9387771971523761749267578125">
        <ele>749</ele>
        <time>2026-08-21T17:23:44.000Z</time>
        <extensions>
          <ns3:TrackPointExtension>
            <ns3:hr>138</ns3:hr>
            <ns3:cad>47</ns3:cad>
          </ns3:TrackPointExtension>
        </extensions>
      </trkpt>
      <trkpt lat="45.32038508914411067962646484375" lon="-70.93878281302750110626220703125">
        <ele>749.20001220703125</ele>
        <time>2026-08-21T17:23:45.000Z</time>
        <extensions>
          <ns3:TrackPointExtension>
            <ns3:hr>138</ns3:hr>
            <ns3:cad>47</ns3:cad>
          </ns3:TrackPointExtension>
        </extensions>
      </trkpt>
      <trkpt lat="45.3204000927507877349853515625" lon="-70.93879119493067264556884765625">
        <ele>749.4000244140625</ele>
        <time>2026-08-21T17:23:46.000Z</time>
        <extensions>
          <ns3:TrackPointExtension>
            <ns3:hr>138</ns3:hr>
            <ns3:cad>0</ns3:cad>
          </ns3:TrackPointExtension>
        </extensions>
      </trkpt>
      <trkpt lat="45.320404954254627227783203125" lon="-70.93879354186356067657470703125">
        <ele>749.4000244140625</ele>
        <time>2026-08-21T17:23:47.000Z</time>
        <extensions>
          <ns3:TrackPointExtension>
            <ns3:hr>138</ns3:hr>
            <ns3:cad>0</ns3:cad>
          </ns3:TrackPointExtension>
        </extensions>
      </trkpt>
      <trkpt lat="45.32041375525295734405517578125" lon="-70.9387979842722415924072265625">
        <ele>749.79998779296875</ele>
        <time>2026-08-21T17:23:48.000Z</time>
        <extensions>
          <ns3:TrackPointExtension>
            <ns3:hr>138</ns3:hr>
            <ns3:cad>0</ns3:cad>
          </ns3:TrackPointExtension>
        </extensions>
      </trkpt>
      <trkpt lat="45.32042331062257289886474609375" lon="-70.9387986548244953155517578125">
        <ele>750</ele>
        <time>2026-08-21T17:23:49.000Z</time>
        <extensions>
          <ns3:TrackPointExtension>
            <ns3:hr>139</ns3:hr>
            <ns3:cad>0</ns3:cad>
          </ns3:TrackPointExtension>
        </extensions>
      </trkpt>
      <trkpt lat="45.32043236307799816131591796875" lon="-70.93880058266222476959228515625">
        <ele>750.4000244140625</ele>
        <time>2026-08-21T17:23:50.000Z</time>
        <extensions>
          <ns3:TrackPointExtension>
            <ns3:hr>138</ns3:hr>
            <ns3:cad>0</ns3:cad>
          </ns3:TrackPointExtension>
        </extensions>
      </trkpt>
      <trkpt lat="45.3204420022666454315185546875" lon="-70.93880116939544677734375">
        <ele>750.5999755859375</ele>
        <time>2026-08-21T17:23:51.000Z</time>
        <extensions>
          <ns3:TrackPointExtension>
            <ns3:hr>139</ns3:hr>
            <ns3:cad>47</ns3:cad>
          </ns3:TrackPointExtension>
        </extensions>
      </trkpt>
      <trkpt lat="45.32045164145529270172119140625" lon="-70.93880326487123966217041015625">
        <ele>750.5999755859375</ele>
        <time>2026-08-21T17:23:52.000Z</time>
        <extensions>
          <ns3:TrackPointExtension>
            <ns3:hr>139</ns3:hr>
            <ns3:cad>47</ns3:cad>
          </ns3:TrackPointExtension>
        </extensions>
      </trkpt>
      <trkpt lat="45.32045868225395679473876953125" lon="-70.9388060308992862701416015625">
        <ele>750.79998779296875</ele>
        <time>2026-08-21T17:23:53.000Z</time>
        <extensions>
          <ns3:TrackPointExtension>
            <ns3:hr>139</ns3:hr>
            <ns3:cad>47</ns3:cad>
          </ns3:TrackPointExtension>
        </extensions>
      </trkpt>
      <trkpt lat="45.32046488486230373382568359375" lon="-70.9388157539069652557373046875">
        <ele>750.79998779296875</ele>
        <time>2026-08-21T17:23:54.000Z</time>
        <extensions>
          <ns3:TrackPointExtension>
            <ns3:hr>139</ns3:hr>
            <ns3:cad>47</ns3:cad>
          </ns3:TrackPointExtension>
        </extensions>
      </trkpt>
      <trkpt lat="45.3204768709838390350341796875" lon="-70.9388251416385173797607421875">
        <ele>750.79998779296875</ele>
        <time>2026-08-21T17:23:55.000Z</time>
        <extensions>
          <ns3:TrackPointExtension>
            <ns3:hr>139</ns3:hr>
            <ns3:cad>46</ns3:cad>
          </ns3:TrackPointExtension>
        </extensions>
      </trkpt>
      <trkpt lat="45.320482738316059112548828125" lon="-70.9388305060565471649169921875">
        <ele>751</ele>
        <time>2026-08-21T17:23:56.000Z</time>
        <extensions>
          <ns3:TrackPointExtension>
            <ns3:hr>139</ns3:hr>
            <ns3:cad>46</ns3:cad>
          </ns3:TrackPointExtension>
        </extensions>
      </trkpt>
      <trkpt lat="45.3204916231334209442138671875" lon="-70.9388358704745769500732421875">
        <ele>751.20001220703125</ele>
        <time>2026-08-21T17:23:57.000Z</time>
        <extensions>
          <ns3:TrackPointExtension>
            <ns3:hr>139</ns3:hr>
            <ns3:cad>46</ns3:cad>
          </ns3:TrackPointExtension>
        </extensions>
      </trkpt>
      <trkpt lat="45.32049606554210186004638671875" lon="-70.9388392232358455657958984375">
        <ele>751.5999755859375</ele>
        <time>2026-08-21T17:23:58.000Z</time>
        <extensions>
          <ns3:TrackPointExtension>
            <ns3:hr>139</ns3:hr>
            <ns3:cad>46</ns3:cad>
          </ns3:TrackPointExtension>
        </extensions>
      </trkpt>
      <trkpt lat="45.32050377689301967620849609375" lon="-70.93884877860546112060546875">
        <ele>751.79998779296875</ele>
        <time>2026-08-21T17:23:59.000Z</time>
        <extensions>
          <ns3:TrackPointExtension>
            <ns3:hr>139</ns3:hr>
            <ns3:cad>46</ns3:cad>
          </ns3:TrackPointExtension>
        </extensions>
      </trkpt>
      <trkpt lat="45.32051249407231807708740234375" lon="-70.938856489956378936767578125">
        <ele>752</ele>
        <time>2026-08-21T17:24:00.000Z</time>
        <extensions>
          <ns3:TrackPointExtension>
            <ns3:hr>139</ns3:hr>
            <ns3:cad>46</ns3:cad>
          </ns3:TrackPointExtension>
        </extensions>
      </trkpt>
      <trkpt lat="45.32051735557615756988525390625" lon="-70.938857160508632659912109375">
        <ele>752.20001220703125</ele>
        <time>2026-08-21T17:24:01.000Z</time>
        <extensions>
          <ns3:TrackPointExtension>
            <ns3:hr>138</ns3:hr>
            <ns3:cad>46</ns3:cad>
          </ns3:TrackPointExtension>
        </extensions>
      </trkpt>
      <trkpt lat="45.32052858732640743255615234375" lon="-70.93886277638375759124755859375">
        <ele>752.4000244140625</ele>
        <time>2026-08-21T17:24:02.000Z</time>
        <extensions>
          <ns3:TrackPointExtension>
            <ns3:hr>138</ns3:hr>
            <ns3:cad>46</ns3:cad>
          </ns3:TrackPointExtension>
        </extensions>
      </trkpt>
      <trkpt lat="45.32053881324827671051025390625" lon="-70.9388633631169795989990234375">
        <ele>752.5999755859375</ele>
        <time>2026-08-21T17:24:03.000Z</time>
        <extensions>
          <ns3:TrackPointExtension>
            <ns3:hr>138</ns3:hr>
            <ns3:cad>44</ns3:cad>
          </ns3:TrackPointExtension>
        </extensions>
      </trkpt>
      <trkpt lat="45.32055146992206573486328125" lon="-70.93886847607791423797607421875">
        <ele>752.79998779296875</ele>
        <time>2026-08-21T17:24:04.000Z</time>
        <extensions>
          <ns3:TrackPointExtension>
            <ns3:hr>138</ns3:hr>
            <ns3:cad>44</ns3:cad>
          </ns3:TrackPointExtension>
        </extensions>
      </trkpt>
      <trkpt lat="45.32055817544460296630859375" lon="-70.93887283466756343841552734375">
        <ele>752.79998779296875</ele>
        <time>2026-08-21T17:24:05.000Z</time>
        <extensions>
          <ns3:TrackPointExtension>
            <ns3:hr>138</ns3:hr>
            <ns3:cad>44</ns3:cad>
          </ns3:TrackPointExtension>
        </extensions>
      </trkpt>
      <trkpt lat="45.32056328840553760528564453125" lon="-70.938879288733005523681640625">
        <ele>753</ele>
        <time>2026-08-21T17:24:06.000Z</time>
        <extensions>
          <ns3:TrackPointExtension>
            <ns3:hr>139</ns3:hr>
            <ns3:cad>44</ns3:cad>
          </ns3:TrackPointExtension>
        </extensions>
      </trkpt>
      <trkpt lat="45.32056831754744052886962890625" lon="-70.93888624571263790130615234375">
        <ele>753.20001220703125</ele>
        <time>2026-08-21T17:24:07.000Z</time>
        <extensions>
          <ns3:TrackPointExtension>
            <ns3:hr>139</ns3:hr>
            <ns3:cad>44</ns3:cad>
          </ns3:TrackPointExtension>
        </extensions>
      </trkpt>
      <trkpt lat="45.3205762803554534912109375" lon="-70.93889445997774600982666015625">
        <ele>753.4000244140625</ele>
        <time>2026-08-21T17:24:08.000Z</time>
        <extensions>
          <ns3:TrackPointExtension>
            <ns3:hr>139</ns3:hr>
            <ns3:cad>44</ns3:cad>
          </ns3:TrackPointExtension>
        </extensions>
      </trkpt>
      <trkpt lat="45.32058097422122955322265625" lon="-70.9388958849012851715087890625">
        <ele>753.5999755859375</ele>
        <time>2026-08-21T17:24:09.000Z</time>
        <extensions>
          <ns3:TrackPointExtension>
            <ns3:hr>139</ns3:hr>
            <ns3:cad>44</ns3:cad>
          </ns3:TrackPointExtension>
        </extensions>
      </trkpt>
      <trkpt lat="45.32058726064860820770263671875" lon="-70.93890099786221981048583984375">
        <ele>754</ele>
        <time>2026-08-21T17:24:10.000Z</time>
        <extensions>
          <ns3:TrackPointExtension>
            <ns3:hr>140</ns3:hr>
            <ns3:cad>47</ns3:cad>
          </ns3:TrackPointExtension>
        </extensions>
      </trkpt>
      <trkpt lat="45.32059840857982635498046875" lon="-70.93890569172799587249755859375">
        <ele>754.20001220703125</ele>
        <time>2026-08-21T17:24:11.000Z</time>
        <extensions>
          <ns3:TrackPointExtension>
            <ns3:hr>140</ns3:hr>
            <ns3:cad>47</ns3:cad>
          </ns3:TrackPointExtension>
        </extensions>
      </trkpt>
      <trkpt lat="45.320606790482997894287109375" lon="-70.93891105614602565765380859375">
        <ele>754.4000244140625</ele>
        <time>2026-08-21T17:24:12.000Z</time>
        <extensions>
          <ns3:TrackPointExtension>
            <ns3:hr>140</ns3:hr>
            <ns3:cad>46</ns3:cad>
          </ns3:TrackPointExtension>
        </extensions>
      </trkpt>
      <trkpt lat="45.320612825453281402587890625" lon="-70.93891189433634281158447265625">
        <ele>754.5999755859375</ele>
        <time>2026-08-21T17:24:13.000Z</time>
        <extensions>
          <ns3:TrackPointExtension>
            <ns3:hr>140</ns3:hr>
            <ns3:cad>46</ns3:cad>
          </ns3:TrackPointExtension>
        </extensions>
      </trkpt>
      <trkpt lat="45.32062112353742122650146484375" lon="-70.9389151632785797119140625">
        <ele>754.79998779296875</ele>
        <time>2026-08-21T17:24:14.000Z</time>
        <extensions>
          <ns3:TrackPointExtension>
            <ns3:hr>140</ns3:hr>
            <ns3:cad>46</ns3:cad>
          </ns3:TrackPointExtension>
        </extensions>
      </trkpt>
      <trkpt lat="45.32063151709735393524169921875" lon="-70.9389203600585460662841796875">
        <ele>755</ele>
        <time>2026-08-21T17:24:15.000Z</time>
        <extensions>
          <ns3:TrackPointExtension>
            <ns3:hr>140</ns3:hr>
            <ns3:cad>43</ns3:cad>
          </ns3:TrackPointExtension>
        </extensions>
      </trkpt>
      <trkpt lat="45.32063755206763744354248046875" lon="-70.93892212025821208953857421875">
        <ele>755.20001220703125</ele>
        <time>2026-08-21T17:24:16.000Z</time>
        <extensions>
          <ns3:TrackPointExtension>
            <ns3:hr>141</ns3:hr>
            <ns3:cad>43</ns3:cad>
          </ns3:TrackPointExtension>
        </extensions>
      </trkpt>
      <trkpt lat="45.3206498734652996063232421875" lon="-70.93893234618008136749267578125">
        <ele>755.4000244140625</ele>
        <time>2026-08-21T17:24:17.000Z</time>
        <extensions>
          <ns3:TrackPointExtension>
            <ns3:hr>140</ns3:hr>
            <ns3:cad>43</ns3:cad>
          </ns3:TrackPointExtension>
        </extensions>
      </trkpt>
      <trkpt lat="45.32065230421721935272216796875" lon="-70.93893452547490596771240234375">
        <ele>755.5999755859375</ele>
        <time>2026-08-21T17:24:18.000Z</time>
        <extensions>
          <ns3:TrackPointExtension>
            <ns3:hr>140</ns3:hr>
            <ns3:cad>42</ns3:cad>
          </ns3:TrackPointExtension>
        </extensions>
      </trkpt>
      <trkpt lat="45.320659093558788299560546875" lon="-70.9389377944171428680419921875">
        <ele>755.79998779296875</ele>
        <time>2026-08-21T17:24:19.000Z</time>
        <extensions>
          <ns3:TrackPointExtension>
            <ns3:hr>140</ns3:hr>
            <ns3:cad>42</ns3:cad>
          </ns3:TrackPointExtension>
        </extensions>
      </trkpt>
      <trkpt lat="45.320664457976818084716796875" lon="-70.93894005753099918365478515625">
        <ele>756</ele>
        <time>2026-08-21T17:24:20.000Z</time>
        <extensions>
          <ns3:TrackPointExtension>
            <ns3:hr>140</ns3:hr>
            <ns3:cad>41</ns3:cad>
          </ns3:TrackPointExtension>
        </extensions>
      </trkpt>
      <trkpt lat="45.3206723369657993316650390625" lon="-70.9389441646635532379150390625">
        <ele>756.20001220703125</ele>
        <time>2026-08-21T17:24:21.000Z</time>
        <extensions>
          <ns3:TrackPointExtension>
            <ns3:hr>140</ns3:hr>
            <ns3:cad>41</ns3:cad>
          </ns3:TrackPointExtension>
        </extensions>
      </trkpt>
      <trkpt lat="45.3206840716302394866943359375" lon="-70.93895397149026393890380859375">
        <ele>756.4000244140625</ele>
        <time>2026-08-21T17:24:22.000Z</time>
        <extensions>
          <ns3:TrackPointExtension>
            <ns3:hr>140</ns3:hr>
            <ns3:cad>0</ns3:cad>
          </ns3:TrackPointExtension>
        </extensions>
      </trkpt>
      <trkpt lat="45.320689938962459564208984375" lon="-70.9389572404325008392333984375">
        <ele>756.5999755859375</ele>
        <time>2026-08-21T17:24:23.000Z</time>
        <extensions>
          <ns3:TrackPointExtension>
            <ns3:hr>141</ns3:hr>
            <ns3:cad>0</ns3:cad>
          </ns3:TrackPointExtension>
        </extensions>
      </trkpt>
      <trkpt lat="45.32070041634142398834228515625" lon="-70.93896017409861087799072265625">
        <ele>756.79998779296875</ele>
        <time>2026-08-21T17:24:24.000Z</time>
        <extensions>
          <ns3:TrackPointExtension>
            <ns3:hr>140</ns3:hr>
            <ns3:cad>0</ns3:cad>
          </ns3:TrackPointExtension>
        </extensions>
      </trkpt>
      <trkpt lat="45.32071433030068874359130859375" lon="-70.93896050937473773956298828125">
        <ele>757</ele>
        <time>2026-08-21T17:24:25.000Z</time>
        <extensions>
          <ns3:TrackPointExtension>
            <ns3:hr>140</ns3:hr>
            <ns3:cad>0</ns3:cad>
          </ns3:TrackPointExtension>
        </extensions>
      </trkpt>
      <trkpt lat="45.32072137109935283660888671875" lon="-70.938956737518310546875">
        <ele>757.20001220703125</ele>
        <time>2026-08-21T17:24:26.000Z</time>
        <extensions>
          <ns3:TrackPointExtension>
            <ns3:hr>140</ns3:hr>
            <ns3:cad>0</ns3:cad>
          </ns3:TrackPointExtension>
        </extensions>
      </trkpt>
      <trkpt lat="45.32072790898382663726806640625" lon="-70.93895531259477138519287109375">
        <ele>757.4000244140625</ele>
        <time>2026-08-21T17:24:27.000Z</time>
        <extensions>
          <ns3:TrackPointExtension>
            <ns3:hr>140</ns3:hr>
            <ns3:cad>42</ns3:cad>
          </ns3:TrackPointExtension>
        </extensions>
      </trkpt>
      <trkpt lat="45.32073662616312503814697265625" lon="-70.938959084451198577880859375">
        <ele>757.4000244140625</ele>
        <time>2026-08-21T17:24:28.000Z</time>
        <extensions>
          <ns3:TrackPointExtension>
            <ns3:hr>141</ns3:hr>
            <ns3:cad>42</ns3:cad>
          </ns3:TrackPointExtension>
        </extensions>
      </trkpt>
      <trkpt lat="45.320746265351772308349609375" lon="-70.9389656223356723785400390625">
        <ele>757.5999755859375</ele>
        <time>2026-08-21T17:24:29.000Z</time>
        <extensions>
          <ns3:TrackPointExtension>
            <ns3:hr>140</ns3:hr>
            <ns3:cad>42</ns3:cad>
          </ns3:TrackPointExtension>
        </extensions>
      </trkpt>
      <trkpt lat="45.32074986957013607025146484375" lon="-70.93897040002048015594482421875">
        <ele>757.79998779296875</ele>
        <time>2026-08-21T17:24:30.000Z</time>
        <extensions>
          <ns3:TrackPointExtension>
            <ns3:hr>140</ns3:hr>
            <ns3:cad>42</ns3:cad>
          </ns3:TrackPointExtension>
        </extensions>
      </trkpt>
      <trkpt lat="45.3207517974078655242919921875" lon="-70.9389756806194782257080078125">
        <ele>758</ele>
        <time>2026-08-21T17:24:31.000Z</time>
        <extensions>
          <ns3:TrackPointExtension>
            <ns3:hr>141</ns3:hr>
            <ns3:cad>42</ns3:cad>
          </ns3:TrackPointExtension>
        </extensions>
      </trkpt>
      <trkpt lat="45.32075691036880016326904296875" lon="-70.9389843977987766265869140625">
        <ele>758.20001220703125</ele>
        <time>2026-08-21T17:24:32.000Z</time>
        <extensions>
          <ns3:TrackPointExtension>
            <ns3:hr>141</ns3:hr>
            <ns3:cad>0</ns3:cad>
          </ns3:TrackPointExtension>
        </extensions>
      </trkpt>
      <trkpt lat="45.3207585029304027557373046875" lon="-70.93898699618875980377197265625">
        <ele>758.4000244140625</ele>
        <time>2026-08-21T17:24:33.000Z</time>
        <extensions>
          <ns3:TrackPointExtension>
            <ns3:hr>141</ns3:hr>
            <ns3:cad>0</ns3:cad>
          </ns3:TrackPointExtension>
        </extensions>
      </trkpt>
      <trkpt lat="45.32076311297714710235595703125" lon="-70.93899428844451904296875">
        <ele>758.5999755859375</ele>
        <time>2026-08-21T17:24:34.000Z</time>
        <extensions>
          <ns3:TrackPointExtension>
            <ns3:hr>140</ns3:hr>
            <ns3:cad>0</ns3:cad>
          </ns3:TrackPointExtension>
        </extensions>
      </trkpt>
      <trkpt lat="45.32076604664325714111328125" lon="-70.9390038438141345977783203125">
        <ele>758.79998779296875</ele>
        <time>2026-08-21T17:24:35.000Z</time>
        <extensions>
          <ns3:TrackPointExtension>
            <ns3:hr>140</ns3:hr>
            <ns3:cad>0</ns3:cad>
          </ns3:TrackPointExtension>
        </extensions>
      </trkpt>
      <trkpt lat="45.32077141106128692626953125" lon="-70.93901113606989383697509765625">
        <ele>758.79998779296875</ele>
        <time>2026-08-21T17:24:36.000Z</time>
        <extensions>
          <ns3:TrackPointExtension>
            <ns3:hr>140</ns3:hr>
            <ns3:cad>0</ns3:cad>
          </ns3:TrackPointExtension>
        </extensions>
      </trkpt>
      <trkpt lat="45.32077769748866558074951171875" lon="-70.93902178108692169189453125">
        <ele>759</ele>
        <time>2026-08-21T17:24:37.000Z</time>
        <extensions>
          <ns3:TrackPointExtension>
            <ns3:hr>140</ns3:hr>
            <ns3:cad>75</ns3:cad>
          </ns3:TrackPointExtension>
        </extensions>
      </trkpt>
      <trkpt lat="45.320783816277980804443359375" lon="-70.93903175555169582366943359375">
        <ele>759</ele>
        <time>2026-08-21T17:24:38.000Z</time>
        <extensions>
          <ns3:TrackPointExtension>
            <ns3:hr>141</ns3:hr>
            <ns3:cad>77</ns3:cad>
          </ns3:TrackPointExtension>
        </extensions>
      </trkpt>
      <trkpt lat="45.32079010270535945892333984375" lon="-70.93903720378875732421875">
        <ele>759.20001220703125</ele>
        <time>2026-08-21T17:24:39.000Z</time>
        <extensions>
          <ns3:TrackPointExtension>
            <ns3:hr>141</ns3:hr>
            <ns3:cad>77</ns3:cad>
          </ns3:TrackPointExtension>
        </extensions>
      </trkpt>
      <trkpt lat="45.32079647295176982879638671875" lon="-70.93904650770127773284912109375">
        <ele>759.20001220703125</ele>
        <time>2026-08-21T17:24:40.000Z</time>
        <extensions>
          <ns3:TrackPointExtension>
            <ns3:hr>140</ns3:hr>
            <ns3:cad>77</ns3:cad>
          </ns3:TrackPointExtension>
        </extensions>
      </trkpt>
      <trkpt lat="45.32080099917948246002197265625" lon="-70.9390600025653839111328125">
        <ele>759.4000244140625</ele>
        <time>2026-08-21T17:24:41.000Z</time>
        <extensions>
          <ns3:TrackPointExtension>
            <ns3:hr>140</ns3:hr>
            <ns3:cad>77</ns3:cad>
          </ns3:TrackPointExtension>
        </extensions>
      </trkpt>
      <trkpt lat="45.32080720178782939910888671875" lon="-70.93907416798174381256103515625">
        <ele>759.4000244140625</ele>
        <time>2026-08-21T17:24:42.000Z</time>
        <extensions>
          <ns3:TrackPointExtension>
            <ns3:hr>140</ns3:hr>
            <ns3:cad>40</ns3:cad>
          </ns3:TrackPointExtension>
        </extensions>
      </trkpt>
      <trkpt lat="45.3208168409764766693115234375" lon="-70.939087159931659698486328125">
        <ele>759.5999755859375</ele>
        <time>2026-08-21T17:24:43.000Z</time>
        <extensions>
          <ns3:TrackPointExtension>
            <ns3:hr>140</ns3:hr>
            <ns3:cad>40</ns3:cad>
          </ns3:TrackPointExtension>
        </extensions>
      </trkpt>
      <trkpt lat="45.32082497142255306243896484375" lon="-70.93910283409059047698974609375">
        <ele>759.5999755859375</ele>
        <time>2026-08-21T17:24:44.000Z</time>
        <extensions>
          <ns3:TrackPointExtension>
            <ns3:hr>140</ns3:hr>
            <ns3:cad>40</ns3:cad>
          </ns3:TrackPointExtension>
        </extensions>
      </trkpt>
      <trkpt lat="45.320830754935741424560546875" lon="-70.93911473639309406280517578125">
        <ele>759.5999755859375</ele>
        <time>2026-08-21T17:24:45.000Z</time>
        <extensions>
          <ns3:TrackPointExtension>
            <ns3:hr>141</ns3:hr>
            <ns3:cad>48</ns3:cad>
          </ns3:TrackPointExtension>
        </extensions>
      </trkpt>
      <trkpt lat="45.32083670608699321746826171875" lon="-70.939126722514629364013671875">
        <ele>759.79998779296875</ele>
        <time>2026-08-21T17:24:46.000Z</time>
        <extensions>
          <ns3:TrackPointExtension>
            <ns3:hr>141</ns3:hr>
            <ns3:cad>48</ns3:cad>
          </ns3:TrackPointExtension>
        </extensions>
      </trkpt>
      <trkpt lat="45.320843160152435302734375" lon="-70.93914222903549671173095703125">
        <ele>759.79998779296875</ele>
        <time>2026-08-21T17:24:47.000Z</time>
        <extensions>
          <ns3:TrackPointExtension>
            <ns3:hr>141</ns3:hr>
            <ns3:cad>0</ns3:cad>
          </ns3:TrackPointExtension>
        </extensions>
      </trkpt>
      <trkpt lat="45.32084919512271881103515625" lon="-70.9391580708324909210205078125">
        <ele>760</ele>
        <time>2026-08-21T17:24:48.000Z</time>
        <extensions>
          <ns3:TrackPointExtension>
            <ns3:hr>142</ns3:hr>
            <ns3:cad>0</ns3:cad>
          </ns3:TrackPointExtension>
        </extensions>
      </trkpt>
      <trkpt lat="45.32085455954074859619140625" lon="-70.939166285097599029541015625">
        <ele>760.20001220703125</ele>
        <time>2026-08-21T17:24:49.000Z</time>
        <extensions>
          <ns3:TrackPointExtension>
            <ns3:hr>143</ns3:hr>
            <ns3:cad>0</ns3:cad>
          </ns3:TrackPointExtension>
        </extensions>
      </trkpt>
      <trkpt lat="45.320860259234905242919921875" lon="-70.93917693011462688446044921875">
        <ele>760.4000244140625</ele>
        <time>2026-08-21T17:24:50.000Z</time>
        <extensions>
          <ns3:TrackPointExtension>
            <ns3:hr>142</ns3:hr>
            <ns3:cad>0</ns3:cad>
          </ns3:TrackPointExtension>
        </extensions>
      </trkpt>
      <trkpt lat="45.3208698146045207977294921875" lon="-70.93919788487255573272705078125">
        <ele>760.5999755859375</ele>
        <time>2026-08-21T17:24:51.000Z</time>
        <extensions>
          <ns3:TrackPointExtension>
            <ns3:hr>142</ns3:hr>
            <ns3:cad>0</ns3:cad>
          </ns3:TrackPointExtension>
        </extensions>
      </trkpt>
      <trkpt lat="45.32087341882288455963134765625" lon="-70.9392102062702178955078125">
        <ele>760.5999755859375</ele>
        <time>2026-08-21T17:24:52.000Z</time>
        <extensions>
          <ns3:TrackPointExtension>
            <ns3:hr>142</ns3:hr>
            <ns3:cad>0</ns3:cad>
          </ns3:TrackPointExtension>
        </extensions>
      </trkpt>
      <trkpt lat="45.3208735026419162750244140625" lon="-70.93921624124050140380859375">
        <ele>760.79998779296875</ele>
        <time>2026-08-21T17:24:53.000Z</time>
        <extensions>
          <ns3:TrackPointExtension>
            <ns3:hr>142</ns3:hr>
            <ns3:cad>0</ns3:cad>
          </ns3:TrackPointExtension>
        </extensions>
      </trkpt>
      <trkpt lat="45.32087526284158229827880859375" lon="-70.93922973610460758209228515625">
        <ele>761</ele>
        <time>2026-08-21T17:24:54.000Z</time>
        <extensions>
          <ns3:TrackPointExtension>
            <ns3:hr>141</ns3:hr>
            <ns3:cad>0</ns3:cad>
          </ns3:TrackPointExtension>
        </extensions>
      </trkpt>
      <trkpt lat="45.32088045962154865264892578125" lon="-70.93924063257873058319091796875">
        <ele>761.20001220703125</ele>
        <time>2026-08-21T17:24:55.000Z</time>
        <extensions>
          <ns3:TrackPointExtension>
            <ns3:hr>140</ns3:hr>
            <ns3:cad>0</ns3:cad>
          </ns3:TrackPointExtension>
        </extensions>
      </trkpt>
      <trkpt lat="45.32088582403957843780517578125" lon="-70.93924867920577526092529296875">
        <ele>761.20001220703125</ele>
        <time>2026-08-21T17:24:56.000Z</time>
        <extensions>
          <ns3:TrackPointExtension>
            <ns3:hr>140</ns3:hr>
            <ns3:cad>0</ns3:cad>
          </ns3:TrackPointExtension>
        </extensions>
      </trkpt>
      <trkpt lat="45.32089169137179851531982421875" lon="-70.93926141969859600067138671875">
        <ele>761.4000244140625</ele>
        <time>2026-08-21T17:24:57.000Z</time>
        <extensions>
          <ns3:TrackPointExtension>
            <ns3:hr>139</ns3:hr>
            <ns3:cad>0</ns3:cad>
          </ns3:TrackPointExtension>
        </extensions>
      </trkpt>
      <trkpt lat="45.3208996541798114776611328125" lon="-70.9392730705440044403076171875">
        <ele>761.5999755859375</ele>
        <time>2026-08-21T17:24:58.000Z</time>
        <extensions>
          <ns3:TrackPointExtension>
            <ns3:hr>139</ns3:hr>
            <ns3:cad>0</ns3:cad>
          </ns3:TrackPointExtension>
        </extensions>
      </trkpt>
      <trkpt lat="45.3209107182919979095458984375" lon="-70.9392911754548549652099609375">
        <ele>761.79998779296875</ele>
        <time>2026-08-21T17:24:59.000Z</time>
        <extensions>
          <ns3:TrackPointExtension>
            <ns3:hr>139</ns3:hr>
            <ns3:cad>47</ns3:cad>
          </ns3:TrackPointExtension>
        </extensions>
      </trkpt>
      <trkpt lat="45.32092002220451831817626953125" lon="-70.93930341303348541259765625">
        <ele>762</ele>
        <time>2026-08-21T17:25:00.000Z</time>
        <extensions>
          <ns3:TrackPointExtension>
            <ns3:hr>138</ns3:hr>
            <ns3:cad>47</ns3:cad>
          </ns3:TrackPointExtension>
        </extensions>
      </trkpt>
      <trkpt lat="45.32092656008899211883544921875" lon="-70.93931020237505435943603515625">
        <ele>762.20001220703125</ele>
        <time>2026-08-21T17:25:01.000Z</time>
        <extensions>
          <ns3:TrackPointExtension>
            <ns3:hr>138</ns3:hr>
            <ns3:cad>47</ns3:cad>
          </ns3:TrackPointExtension>
        </extensions>
      </trkpt>
      <trkpt lat="45.3209318406879901885986328125" lon="-70.93932160176336765289306640625">
        <ele>762.20001220703125</ele>
        <time>2026-08-21T17:25:02.000Z</time>
        <extensions>
          <ns3:TrackPointExtension>
            <ns3:hr>138</ns3:hr>
            <ns3:cad>47</ns3:cad>
          </ns3:TrackPointExtension>
        </extensions>
      </trkpt>
      <trkpt lat="45.32093812711536884307861328125" lon="-70.93933903612196445465087890625">
        <ele>762.4000244140625</ele>
        <time>2026-08-21T17:25:03.000Z</time>
        <extensions>
          <ns3:TrackPointExtension>
            <ns3:hr>138</ns3:hr>
            <ns3:cad>47</ns3:cad>
          </ns3:TrackPointExtension>
        </extensions>
      </trkpt>
      <trkpt lat="45.32094231806695461273193359375" lon="-70.93935529701411724090576171875">
        <ele>762.4000244140625</ele>
        <time>2026-08-21T17:25:04.000Z</time>
        <extensions>
          <ns3:TrackPointExtension>
            <ns3:hr>138</ns3:hr>
            <ns3:cad>47</ns3:cad>
          </ns3:TrackPointExtension>
        </extensions>
      </trkpt>
      <trkpt lat="45.3209482692182064056396484375" lon="-70.9393656067550182342529296875">
        <ele>762.5999755859375</ele>
        <time>2026-08-21T17:25:05.000Z</time>
        <extensions>
          <ns3:TrackPointExtension>
            <ns3:hr>138</ns3:hr>
            <ns3:cad>47</ns3:cad>
          </ns3:TrackPointExtension>
        </extensions>
      </trkpt>
      <trkpt lat="45.3209563158452510833740234375" lon="-70.93937449157238006591796875">
        <ele>762.5999755859375</ele>
        <time>2026-08-21T17:25:06.000Z</time>
        <extensions>
          <ns3:TrackPointExtension>
            <ns3:hr>138</ns3:hr>
            <ns3:cad>47</ns3:cad>
          </ns3:TrackPointExtension>
        </extensions>
      </trkpt>
      <trkpt lat="45.32096411101520061492919921875" lon="-70.93938681297004222869873046875">
        <ele>762.79998779296875</ele>
        <time>2026-08-21T17:25:07.000Z</time>
        <extensions>
          <ns3:TrackPointExtension>
            <ns3:hr>138</ns3:hr>
            <ns3:cad>47</ns3:cad>
          </ns3:TrackPointExtension>
        </extensions>
      </trkpt>
      <trkpt lat="45.32096922397613525390625" lon="-70.93939905054867267608642578125">
        <ele>763</ele>
        <time>2026-08-21T17:25:08.000Z</time>
        <extensions>
          <ns3:TrackPointExtension>
            <ns3:hr>137</ns3:hr>
            <ns3:cad>47</ns3:cad>
          </ns3:TrackPointExtension>
        </extensions>
      </trkpt>
      <trkpt lat="45.32097483985126018524169921875" lon="-70.93941849656403064727783203125">
        <ele>763.20001220703125</ele>
        <time>2026-08-21T17:25:09.000Z</time>
        <extensions>
          <ns3:TrackPointExtension>
            <ns3:hr>137</ns3:hr>
            <ns3:cad>48</ns3:cad>
          </ns3:TrackPointExtension>
        </extensions>
      </trkpt>
      <trkpt lat="45.32098489813506603240966796875" lon="-70.9394333325326442718505859375">
        <ele>763.20001220703125</ele>
        <time>2026-08-21T17:25:10.000Z</time>
        <extensions>
          <ns3:TrackPointExtension>
            <ns3:hr>137</ns3:hr>
            <ns3:cad>48</ns3:cad>
          </ns3:TrackPointExtension>
        </extensions>
      </trkpt>
      <trkpt lat="45.3209978900849819183349609375" lon="-70.93943878076970577239990234375">
        <ele>763.4000244140625</ele>
        <time>2026-08-21T17:25:11.000Z</time>
        <extensions>
          <ns3:TrackPointExtension>
            <ns3:hr>137</ns3:hr>
            <ns3:cad>48</ns3:cad>
          </ns3:TrackPointExtension>
        </extensions>
      </trkpt>
      <trkpt lat="45.32101121731102466583251953125" lon="-70.93943995423614978790283203125">
        <ele>763.4000244140625</ele>
        <time>2026-08-21T17:25:12.000Z</time>
        <extensions>
          <ns3:TrackPointExtension>
            <ns3:hr>137</ns3:hr>
            <ns3:cad>47</ns3:cad>
          </ns3:TrackPointExtension>
        </extensions>
      </trkpt>
      <trkpt lat="45.32102756202220916748046875" lon="-70.939437858760356903076171875">
        <ele>763.4000244140625</ele>
        <time>2026-08-21T17:25:13.000Z</time>
        <extensions>
          <ns3:TrackPointExtension>
            <ns3:hr>138</ns3:hr>
            <ns3:cad>47</ns3:cad>
          </ns3:TrackPointExtension>
        </extensions>
      </trkpt>
      <trkpt lat="45.32104088924825191497802734375" lon="-70.939441211521625518798828125">
        <ele>763.5999755859375</ele>
        <time>2026-08-21T17:25:14.000Z</time>
        <extensions>
          <ns3:TrackPointExtension>
            <ns3:hr>137</ns3:hr>
            <ns3:cad>0</ns3:cad>
          </ns3:TrackPointExtension>
        </extensions>
      </trkpt>
      <trkpt lat="45.3210535459220409393310546875" lon="-70.93944950960576534271240234375">
        <ele>763.5999755859375</ele>
        <time>2026-08-21T17:25:15.000Z</time>
        <extensions>
          <ns3:TrackPointExtension>
            <ns3:hr>137</ns3:hr>
            <ns3:cad>0</ns3:cad>
          </ns3:TrackPointExtension>
        </extensions>
      </trkpt>
      <trkpt lat="45.3210652805864810943603515625" lon="-70.9394581429660320281982421875">
        <ele>763.5999755859375</ele>
        <time>2026-08-21T17:25:16.000Z</time>
        <extensions>
          <ns3:TrackPointExtension>
            <ns3:hr>137</ns3:hr>
            <ns3:cad>50</ns3:cad>
          </ns3:TrackPointExtension>
        </extensions>
      </trkpt>
      <trkpt lat="45.321076847612857818603515625" lon="-70.939463339745998382568359375">
        <ele>763.79998779296875</ele>
        <time>2026-08-21T17:25:17.000Z</time>
        <extensions>
          <ns3:TrackPointExtension>
            <ns3:hr>136</ns3:hr>
            <ns3:cad>50</ns3:cad>
          </ns3:TrackPointExtension>
        </extensions>
      </trkpt>
      <trkpt lat="45.3210897557437419891357421875" lon="-70.93946702778339385986328125">
        <ele>763.79998779296875</ele>
        <time>2026-08-21T17:25:18.000Z</time>
        <extensions>
          <ns3:TrackPointExtension>
            <ns3:hr>136</ns3:hr>
            <ns3:cad>50</ns3:cad>
          </ns3:TrackPointExtension>
        </extensions>
      </trkpt>
      <trkpt lat="45.32110241241753101348876953125" lon="-70.93947180546820163726806640625">
        <ele>764</ele>
        <time>2026-08-21T17:25:19.000Z</time>
        <extensions>
          <ns3:TrackPointExtension>
            <ns3:hr>135</ns3:hr>
            <ns3:cad>50</ns3:cad>
          </ns3:TrackPointExtension>
        </extensions>
      </trkpt>
      <trkpt lat="45.3211162425577640533447265625" lon="-70.9394762478768825531005859375">
        <ele>764</ele>
        <time>2026-08-21T17:25:20.000Z</time>
        <extensions>
          <ns3:TrackPointExtension>
            <ns3:hr>134</ns3:hr>
            <ns3:cad>50</ns3:cad>
          </ns3:TrackPointExtension>
        </extensions>
      </trkpt>
      <trkpt lat="45.32113124616444110870361328125" lon="-70.93948337249457836151123046875">
        <ele>764</ele>
        <time>2026-08-21T17:25:21.000Z</time>
        <extensions>
          <ns3:TrackPointExtension>
            <ns3:hr>134</ns3:hr>
            <ns3:cad>49</ns3:cad>
          </ns3:TrackPointExtension>
        </extensions>
      </trkpt>
      <trkpt lat="45.32114063389599323272705078125" lon="-70.93948488123714923858642578125">
        <ele>764.20001220703125</ele>
        <time>2026-08-21T17:25:22.000Z</time>
        <extensions>
          <ns3:TrackPointExtension>
            <ns3:hr>134</ns3:hr>
            <ns3:cad>48</ns3:cad>
          </ns3:TrackPointExtension>
        </extensions>
      </trkpt>
      <trkpt lat="45.321150608360767364501953125" lon="-70.93949141912162303924560546875">
        <ele>764.20001220703125</ele>
        <time>2026-08-21T17:25:23.000Z</time>
        <extensions>
          <ns3:TrackPointExtension>
            <ns3:hr>134</ns3:hr>
            <ns3:cad>48</ns3:cad>
          </ns3:TrackPointExtension>
        </extensions>
      </trkpt>
      <trkpt lat="45.32116158865392208099365234375" lon="-70.939498879015445709228515625">
        <ele>764.4000244140625</ele>
        <time>2026-08-21T17:25:24.000Z</time>
        <extensions>
          <ns3:TrackPointExtension>
            <ns3:hr>134</ns3:hr>
            <ns3:cad>48</ns3:cad>
          </ns3:TrackPointExtension>
        </extensions>
      </trkpt>
      <trkpt lat="45.32116946764290332794189453125" lon="-70.93950281850993633270263671875">
        <ele>764.5999755859375</ele>
        <time>2026-08-21T17:25:25.000Z</time>
        <extensions>
          <ns3:TrackPointExtension>
            <ns3:hr>134</ns3:hr>
            <ns3:cad>48</ns3:cad>
          </ns3:TrackPointExtension>
        </extensions>
      </trkpt>
      <trkpt lat="45.3211782686412334442138671875" lon="-70.93951052986085414886474609375">
        <ele>764.79998779296875</ele>
        <time>2026-08-21T17:25:26.000Z</time>
        <extensions>
          <ns3:TrackPointExtension>
            <ns3:hr>135</ns3:hr>
            <ns3:cad>0</ns3:cad>
          </ns3:TrackPointExtension>
        </extensions>
      </trkpt>
      <trkpt lat="45.32117910683155059814453125" lon="-70.93950994312763214111328125">
        <ele>765</ele>
        <time>2026-08-21T17:25:27.000Z</time>
        <extensions>
          <ns3:TrackPointExtension>
            <ns3:hr>135</ns3:hr>
            <ns3:cad>0</ns3:cad>
          </ns3:TrackPointExtension>
        </extensions>
      </trkpt>
      <trkpt lat="45.32119042240083217620849609375" lon="-70.9395168162882328033447265625">
        <ele>765</ele>
        <time>2026-08-21T17:25:28.000Z</time>
        <extensions>
          <ns3:TrackPointExtension>
            <ns3:hr>135</ns3:hr>
            <ns3:cad>0</ns3:cad>
          </ns3:TrackPointExtension>
        </extensions>
      </trkpt>
      <trkpt lat="45.321196205914020538330078125" lon="-70.93952125869691371917724609375">
        <ele>765.4000244140625</ele>
        <time>2026-08-21T17:25:29.000Z</time>
        <extensions>
          <ns3:TrackPointExtension>
            <ns3:hr>135</ns3:hr>
            <ns3:cad>0</ns3:cad>
          </ns3:TrackPointExtension>
        </extensions>
      </trkpt>
      <trkpt lat="45.3212010674178600311279296875" lon="-70.93952528201043605804443359375">
        <ele>765.4000244140625</ele>
        <time>2026-08-21T17:25:30.000Z</time>
        <extensions>
          <ns3:TrackPointExtension>
            <ns3:hr>134</ns3:hr>
            <ns3:cad>0</ns3:cad>
          </ns3:TrackPointExtension>
        </extensions>
      </trkpt>
      <trkpt lat="45.32121288590133190155029296875" lon="-70.9395329095423221588134765625">
        <ele>765.5999755859375</ele>
        <time>2026-08-21T17:25:31.000Z</time>
        <extensions>
          <ns3:TrackPointExtension>
            <ns3:hr>133</ns3:hr>
            <ns3:cad>0</ns3:cad>
          </ns3:TrackPointExtension>
        </extensions>
      </trkpt>
      <trkpt lat="45.321224369108676910400390625" lon="-70.9395409561693668365478515625">
        <ele>765.79998779296875</ele>
        <time>2026-08-21T17:25:32.000Z</time>
        <extensions>
          <ns3:TrackPointExtension>
            <ns3:hr>133</ns3:hr>
            <ns3:cad>0</ns3:cad>
          </ns3:TrackPointExtension>
        </extensions>
      </trkpt>
      <trkpt lat="45.3212352655827999114990234375" lon="-70.93954749405384063720703125">
        <ele>766</ele>
        <time>2026-08-21T17:25:33.000Z</time>
        <extensions>
          <ns3:TrackPointExtension>
            <ns3:hr>132</ns3:hr>
            <ns3:cad>0</ns3:cad>
          </ns3:TrackPointExtension>
        </extensions>
      </trkpt>
      <trkpt lat="45.32124482095241546630859375" lon="-70.939552523195743560791015625">
        <ele>766.20001220703125</ele>
        <time>2026-08-21T17:25:34.000Z</time>
        <extensions>
          <ns3:TrackPointExtension>
            <ns3:hr>132</ns3:hr>
            <ns3:cad>42</ns3:cad>
          </ns3:TrackPointExtension>
        </extensions>
      </trkpt>
      <trkpt lat="45.3212570585310459136962890625" lon="-70.93955763615667819976806640625">
        <ele>766.4000244140625</ele>
        <time>2026-08-21T17:25:35.000Z</time>
        <extensions>
          <ns3:TrackPointExtension>
            <ns3:hr>132</ns3:hr>
            <ns3:cad>42</ns3:cad>
          </ns3:TrackPointExtension>
        </extensions>
      </trkpt>
      <trkpt lat="45.3212681226432323455810546875" lon="-70.93956199474632740020751953125">
        <ele>766.4000244140625</ele>
        <time>2026-08-21T17:25:36.000Z</time>
        <extensions>
          <ns3:TrackPointExtension>
            <ns3:hr>133</ns3:hr>
            <ns3:cad>50</ns3:cad>
          </ns3:TrackPointExtension>
        </extensions>
      </trkpt>
      <trkpt lat="45.3212795220315456390380859375" lon="-70.9395687840878963470458984375">
        <ele>766.5999755859375</ele>
        <time>2026-08-21T17:25:37.000Z</time>
        <extensions>
          <ns3:TrackPointExtension>
            <ns3:hr>133</ns3:hr>
            <ns3:cad>50</ns3:cad>
          </ns3:TrackPointExtension>
        </extensions>
      </trkpt>
      <trkpt lat="45.32128497026860713958740234375" lon="-70.9395723044872283935546875">
        <ele>766.79998779296875</ele>
        <time>2026-08-21T17:25:38.000Z</time>
        <extensions>
          <ns3:TrackPointExtension>
            <ns3:hr>134</ns3:hr>
            <ns3:cad>50</ns3:cad>
          </ns3:TrackPointExtension>
        </extensions>
      </trkpt>
      <trkpt lat="45.3212922625243663787841796875" lon="-70.93957565724849700927734375">
        <ele>767</ele>
        <time>2026-08-21T17:25:39.000Z</time>
        <extensions>
          <ns3:TrackPointExtension>
            <ns3:hr>134</ns3:hr>
            <ns3:cad>50</ns3:cad>
          </ns3:TrackPointExtension>
        </extensions>
      </trkpt>
      <trkpt lat="45.321304835379123687744140625" lon="-70.93957959674298763275146484375">
        <ele>767.20001220703125</ele>
        <time>2026-08-21T17:25:40.000Z</time>
        <extensions>
          <ns3:TrackPointExtension>
            <ns3:hr>134</ns3:hr>
            <ns3:cad>50</ns3:cad>
          </ns3:TrackPointExtension>
        </extensions>
      </trkpt>
      <trkpt lat="45.321315228939056396484375" lon="-70.93958496116101741790771484375">
        <ele>767.4000244140625</ele>
        <time>2026-08-21T17:25:41.000Z</time>
        <extensions>
          <ns3:TrackPointExtension>
            <ns3:hr>133</ns3:hr>
            <ns3:cad>43</ns3:cad>
          </ns3:TrackPointExtension>
        </extensions>
      </trkpt>
      <trkpt lat="45.321322269737720489501953125" lon="-70.93958898447453975677490234375">
        <ele>767.5999755859375</ele>
        <time>2026-08-21T17:25:42.000Z</time>
        <extensions>
          <ns3:TrackPointExtension>
            <ns3:hr>134</ns3:hr>
            <ns3:cad>43</ns3:cad>
          </ns3:TrackPointExtension>
        </extensions>
      </trkpt>
      <trkpt lat="45.321326963603496551513671875" lon="-70.93959082849323749542236328125">
        <ele>767.79998779296875</ele>
        <time>2026-08-21T17:25:43.000Z</time>
        <extensions>
          <ns3:TrackPointExtension>
            <ns3:hr>134</ns3:hr>
            <ns3:cad>43</ns3:cad>
          </ns3:TrackPointExtension>
        </extensions>
      </trkpt>
      <trkpt lat="45.32133727334439754486083984375" lon="-70.93959820456802845001220703125">
        <ele>768</ele>
        <time>2026-08-21T17:25:44.000Z</time>
        <extensions>
          <ns3:TrackPointExtension>
            <ns3:hr>133</ns3:hr>
            <ns3:cad>44</ns3:cad>
          </ns3:TrackPointExtension>
        </extensions>
      </trkpt>
      <trkpt lat="45.32135152257978916168212890625" lon="-70.9396043233573436737060546875">
        <ele>768.20001220703125</ele>
        <time>2026-08-21T17:25:45.000Z</time>
        <extensions>
          <ns3:TrackPointExtension>
            <ns3:hr>134</ns3:hr>
            <ns3:cad>44</ns3:cad>
          </ns3:TrackPointExtension>
        </extensions>
      </trkpt>
      <trkpt lat="45.32136074267327785491943359375" lon="-70.93960843048989772796630859375">
        <ele>768.20001220703125</ele>
        <time>2026-08-21T17:25:46.000Z</time>
        <extensions>
          <ns3:TrackPointExtension>
            <ns3:hr>134</ns3:hr>
            <ns3:cad>48</ns3:cad>
          </ns3:TrackPointExtension>
        </extensions>
      </trkpt>
      <trkpt lat="45.32136728055775165557861328125" lon="-70.93961463309824466705322265625">
        <ele>768.4000244140625</ele>
        <time>2026-08-21T17:25:47.000Z</time>
        <extensions>
          <ns3:TrackPointExtension>
            <ns3:hr>135</ns3:hr>
            <ns3:cad>48</ns3:cad>
          </ns3:TrackPointExtension>
        </extensions>
      </trkpt>
      <trkpt lat="45.3213737346231937408447265625" lon="-70.9396187402307987213134765625">
        <ele>768.5999755859375</ele>
        <time>2026-08-21T17:25:48.000Z</time>
        <extensions>
          <ns3:TrackPointExtension>
            <ns3:hr>135</ns3:hr>
            <ns3:cad>48</ns3:cad>
          </ns3:TrackPointExtension>
        </extensions>
      </trkpt>
      <trkpt lat="45.32138152979314327239990234375" lon="-70.93962603248655796051025390625">
        <ele>768.79998779296875</ele>
        <time>2026-08-21T17:25:49.000Z</time>
        <extensions>
          <ns3:TrackPointExtension>
            <ns3:hr>135</ns3:hr>
            <ns3:cad>48</ns3:cad>
          </ns3:TrackPointExtension>
        </extensions>
      </trkpt>
      <trkpt lat="45.32138957642018795013427734375" lon="-70.93963407911360263824462890625">
        <ele>769</ele>
        <time>2026-08-21T17:25:50.000Z</time>
        <extensions>
          <ns3:TrackPointExtension>
            <ns3:hr>135</ns3:hr>
            <ns3:cad>48</ns3:cad>
          </ns3:TrackPointExtension>
        </extensions>
      </trkpt>
      <trkpt lat="45.32139862887561321258544921875" lon="-70.9396368451416492462158203125">
        <ele>769</ele>
        <time>2026-08-21T17:25:51.000Z</time>
        <extensions>
          <ns3:TrackPointExtension>
            <ns3:hr>136</ns3:hr>
            <ns3:cad>48</ns3:cad>
          </ns3:TrackPointExtension>
        </extensions>
      </trkpt>
      <trkpt lat="45.32140835188329219818115234375" lon="-70.939640700817108154296875">
        <ele>769.20001220703125</ele>
        <time>2026-08-21T17:25:52.000Z</time>
        <extensions>
          <ns3:TrackPointExtension>
            <ns3:hr>136</ns3:hr>
            <ns3:cad>48</ns3:cad>
          </ns3:TrackPointExtension>
        </extensions>
      </trkpt>
      <trkpt lat="45.32141891308128833770751953125" lon="-70.93964564613997936248779296875">
        <ele>769.4000244140625</ele>
        <time>2026-08-21T17:25:53.000Z</time>
        <extensions>
          <ns3:TrackPointExtension>
            <ns3:hr>136</ns3:hr>
            <ns3:cad>0</ns3:cad>
          </ns3:TrackPointExtension>
        </extensions>
      </trkpt>
      <trkpt lat="45.32142846845090389251708984375" lon="-70.93965687789022922515869140625">
        <ele>769.5999755859375</ele>
        <time>2026-08-21T17:25:54.000Z</time>
        <extensions>
          <ns3:TrackPointExtension>
            <ns3:hr>137</ns3:hr>
            <ns3:cad>0</ns3:cad>
          </ns3:TrackPointExtension>
        </extensions>
      </trkpt>
      <trkpt lat="45.32143986783921718597412109375" lon="-70.93966341577470302581787109375">
        <ele>769.79998779296875</ele>
        <time>2026-08-21T17:25:55.000Z</time>
        <extensions>
          <ns3:TrackPointExtension>
            <ns3:hr>137</ns3:hr>
            <ns3:cad>0</ns3:cad>
          </ns3:TrackPointExtension>
        </extensions>
      </trkpt>
      <trkpt lat="45.32144640572369098663330078125" lon="-70.93966643325984477996826171875">
        <ele>770</ele>
        <time>2026-08-21T17:25:56.000Z</time>
        <extensions>
          <ns3:TrackPointExtension>
            <ns3:hr>137</ns3:hr>
            <ns3:cad>0</ns3:cad>
          </ns3:TrackPointExtension>
        </extensions>
      </trkpt>
      <trkpt lat="45.3214552067220211029052734375" lon="-70.93967095948755741119384765625">
        <ele>770</ele>
        <time>2026-08-21T17:25:57.000Z</time>
        <extensions>
          <ns3:TrackPointExtension>
            <ns3:hr>138</ns3:hr>
            <ns3:cad>0</ns3:cad>
          </ns3:TrackPointExtension>
        </extensions>
      </trkpt>
      <trkpt lat="45.3214659355580806732177734375" lon="-70.939676575362682342529296875">
        <ele>770.20001220703125</ele>
        <time>2026-08-21T17:25:58.000Z</time>
        <extensions>
          <ns3:TrackPointExtension>
            <ns3:hr>138</ns3:hr>
            <ns3:cad>47</ns3:cad>
          </ns3:TrackPointExtension>
        </extensions>
      </trkpt>
      <trkpt lat="45.3214729763567447662353515625" lon="-70.93969023786485195159912109375">
        <ele>770.4000244140625</ele>
        <time>2026-08-21T17:25:59.000Z</time>
        <extensions>
          <ns3:TrackPointExtension>
            <ns3:hr>139</ns3:hr>
            <ns3:cad>46</ns3:cad>
          </ns3:TrackPointExtension>
        </extensions>
      </trkpt>
      <trkpt lat="45.32148412428796291351318359375" lon="-70.939693339169025421142578125">
        <ele>770.4000244140625</ele>
        <time>2026-08-21T17:26:00.000Z</time>
        <extensions>
          <ns3:TrackPointExtension>
            <ns3:hr>140</ns3:hr>
            <ns3:cad>46</ns3:cad>
          </ns3:TrackPointExtension>
        </extensions>
      </trkpt>
      <trkpt lat="45.321492254734039306640625" lon="-70.93970012851059436798095703125">
        <ele>770.5999755859375</ele>
        <time>2026-08-21T17:26:01.000Z</time>
        <extensions>
          <ns3:TrackPointExtension>
            <ns3:hr>140</ns3:hr>
            <ns3:cad>46</ns3:cad>
          </ns3:TrackPointExtension>
        </extensions>
      </trkpt>
      <trkpt lat="45.321503989398479461669921875" lon="-70.9397090971469879150390625">
        <ele>770.79998779296875</ele>
        <time>2026-08-21T17:26:02.000Z</time>
        <extensions>
          <ns3:TrackPointExtension>
            <ns3:hr>140</ns3:hr>
            <ns3:cad>46</ns3:cad>
          </ns3:TrackPointExtension>
        </extensions>
      </trkpt>
      <trkpt lat="45.321516729891300201416015625" lon="-70.939715467393398284912109375">
        <ele>771</ele>
        <time>2026-08-21T17:26:03.000Z</time>
        <extensions>
          <ns3:TrackPointExtension>
            <ns3:hr>139</ns3:hr>
            <ns3:cad>49</ns3:cad>
          </ns3:TrackPointExtension>
        </extensions>
      </trkpt>
      <trkpt lat="45.32153005711734294891357421875" lon="-70.93972275964915752410888671875">
        <ele>771.20001220703125</ele>
        <time>2026-08-21T17:26:04.000Z</time>
        <extensions>
          <ns3:TrackPointExtension>
            <ns3:hr>140</ns3:hr>
            <ns3:cad>49</ns3:cad>
          </ns3:TrackPointExtension>
        </extensions>
      </trkpt>
      <trkpt lat="45.321538858115673065185546875" lon="-70.93972560949623584747314453125">
        <ele>771.4000244140625</ele>
        <time>2026-08-21T17:26:05.000Z</time>
        <extensions>
          <ns3:TrackPointExtension>
            <ns3:hr>139</ns3:hr>
            <ns3:cad>49</ns3:cad>
          </ns3:TrackPointExtension>
        </extensions>
      </trkpt>
      <trkpt lat="45.3215472400188446044921875" lon="-70.9397310577332973480224609375">
        <ele>771.5999755859375</ele>
        <time>2026-08-21T17:26:06.000Z</time>
        <extensions>
          <ns3:TrackPointExtension>
            <ns3:hr>139</ns3:hr>
            <ns3:cad>49</ns3:cad>
          </ns3:TrackPointExtension>
        </extensions>
      </trkpt>
      <trkpt lat="45.3215564601123332977294921875" lon="-70.93973734416067600250244140625">
        <ele>771.79998779296875</ele>
        <time>2026-08-21T17:26:07.000Z</time>
        <extensions>
          <ns3:TrackPointExtension>
            <ns3:hr>139</ns3:hr>
            <ns3:cad>49</ns3:cad>
          </ns3:TrackPointExtension>
        </extensions>
      </trkpt>
      <trkpt lat="45.32156995497643947601318359375" lon="-70.939747653901576995849609375">
        <ele>772</ele>
        <time>2026-08-21T17:26:08.000Z</time>
        <extensions>
          <ns3:TrackPointExtension>
            <ns3:hr>138</ns3:hr>
            <ns3:cad>47</ns3:cad>
          </ns3:TrackPointExtension>
        </extensions>
      </trkpt>
      <trkpt lat="45.321579761803150177001953125" lon="-70.939757041633129119873046875">
        <ele>772</ele>
        <time>2026-08-21T17:26:09.000Z</time>
        <extensions>
          <ns3:TrackPointExtension>
            <ns3:hr>138</ns3:hr>
            <ns3:cad>47</ns3:cad>
          </ns3:TrackPointExtension>
        </extensions>
      </trkpt>
      <trkpt lat="45.32158822752535343170166015625" lon="-70.9397659264504909515380859375">
        <ele>772.20001220703125</ele>
        <time>2026-08-21T17:26:10.000Z</time>
        <extensions>
          <ns3:TrackPointExtension>
            <ns3:hr>139</ns3:hr>
            <ns3:cad>49</ns3:cad>
          </ns3:TrackPointExtension>
        </extensions>
      </trkpt>
      <trkpt lat="45.3215956874191761016845703125" lon="-70.9397739730775356292724609375">
        <ele>772.20001220703125</ele>
        <time>2026-08-21T17:26:11.000Z</time>
        <extensions>
          <ns3:TrackPointExtension>
            <ns3:hr>139</ns3:hr>
            <ns3:cad>49</ns3:cad>
          </ns3:TrackPointExtension>
        </extensions>
      </trkpt>
      <trkpt lat="45.32160599716007709503173828125" lon="-70.9397806786000728607177734375">
        <ele>772.20001220703125</ele>
        <time>2026-08-21T17:26:12.000Z</time>
        <extensions>
          <ns3:TrackPointExtension>
            <ns3:hr>139</ns3:hr>
            <ns3:cad>49</ns3:cad>
          </ns3:TrackPointExtension>
        </extensions>
      </trkpt>
      <trkpt lat="45.32161152921617031097412109375" lon="-70.93978428281843662261962890625">
        <ele>772.20001220703125</ele>
        <time>2026-08-21T17:26:13.000Z</time>
        <extensions>
          <ns3:TrackPointExtension>
            <ns3:hr>140</ns3:hr>
            <ns3:cad>49</ns3:cad>
          </ns3:TrackPointExtension>
        </extensions>
      </trkpt>
      <trkpt lat="45.32161295413970947265625" lon="-70.93978218734264373779296875">
        <ele>772.4000244140625</ele>
        <time>2026-08-21T17:26:14.000Z</time>
        <extensions>
          <ns3:TrackPointExtension>
            <ns3:hr>140</ns3:hr>
            <ns3:cad>49</ns3:cad>
          </ns3:TrackPointExtension>
        </extensions>
      </trkpt>
      <trkpt lat="45.321613289415836334228515625" lon="-70.9397810138761997222900390625">
        <ele>772.20001220703125</ele>
        <time>2026-08-21T17:26:15.000Z</time>
        <extensions>
          <ns3:TrackPointExtension>
            <ns3:hr>140</ns3:hr>
            <ns3:cad>0</ns3:cad>
          </ns3:TrackPointExtension>
        </extensions>
      </trkpt>
      <trkpt lat="45.321613959968090057373046875" lon="-70.93978143297135829925537109375">
        <ele>772.20001220703125</ele>
        <time>2026-08-21T17:26:16.000Z</time>
        <extensions>
          <ns3:TrackPointExtension>
            <ns3:hr>140</ns3:hr>
            <ns3:cad>0</ns3:cad>
          </ns3:TrackPointExtension>
        </extensions>
      </trkpt>
      <trkpt lat="45.3216137923300266265869140625" lon="-70.939781852066516876220703125">
        <ele>772.20001220703125</ele>
        <time>2026-08-21T17:26:17.000Z</time>
        <extensions>
          <ns3:TrackPointExtension>
            <ns3:hr>139</ns3:hr>
            <ns3:cad>0</ns3:cad>
          </ns3:TrackPointExtension>
        </extensions>
      </trkpt>
      <trkpt lat="45.3216137923300266265869140625" lon="-70.939781852066516876220703125">
        <ele>772.20001220703125</ele>
        <time>2026-08-21T17:26:18.000Z</time>
        <extensions>
          <ns3:TrackPointExtension>
            <ns3:hr>139</ns3:hr>
            <ns3:cad>0</ns3:cad>
          </ns3:TrackPointExtension>
        </extensions>
      </trkpt>
      <trkpt lat="45.3216137923300266265869140625" lon="-70.939781852066516876220703125">
        <ele>772.20001220703125</ele>
        <time>2026-08-21T17:26:19.000Z</time>
        <extensions>
          <ns3:TrackPointExtension>
            <ns3:hr>138</ns3:hr>
            <ns3:cad>0</ns3:cad>
          </ns3:TrackPointExtension>
        </extensions>
      </trkpt>
      <trkpt lat="45.3216137923300266265869140625" lon="-70.939781852066516876220703125">
        <ele>772.20001220703125</ele>
        <time>2026-08-21T17:26:20.000Z</time>
        <extensions>
          <ns3:TrackPointExtension>
            <ns3:hr>137</ns3:hr>
            <ns3:cad>0</ns3:cad>
          </ns3:TrackPointExtension>
        </extensions>
      </trkpt>
      <trkpt lat="45.32161387614905834197998046875" lon="-70.93978243879973888397216796875">
        <ele>772.20001220703125</ele>
        <time>2026-08-21T17:26:21.000Z</time>
        <extensions>
          <ns3:TrackPointExtension>
            <ns3:hr>136</ns3:hr>
            <ns3:cad>0</ns3:cad>
          </ns3:TrackPointExtension>
        </extensions>
      </trkpt>
      <trkpt lat="45.3216221742331981658935546875" lon="-70.93978662975132465362548828125">
        <ele>772.4000244140625</ele>
        <time>2026-08-21T17:26:22.000Z</time>
        <extensions>
          <ns3:TrackPointExtension>
            <ns3:hr>134</ns3:hr>
            <ns3:cad>0</ns3:cad>
          </ns3:TrackPointExtension>
        </extensions>
      </trkpt>
      <trkpt lat="45.32163105905055999755859375" lon="-70.9397910721600055694580078125">
        <ele>772.5999755859375</ele>
        <time>2026-08-21T17:26:23.000Z</time>
        <extensions>
          <ns3:TrackPointExtension>
            <ns3:hr>133</ns3:hr>
            <ns3:cad>0</ns3:cad>
          </ns3:TrackPointExtension>
        </extensions>
      </trkpt>
      <trkpt lat="45.32163986004889011383056640625" lon="-70.93979417346417903900146484375">
        <ele>772.5999755859375</ele>
        <time>2026-08-21T17:26:24.000Z</time>
        <extensions>
          <ns3:TrackPointExtension>
            <ns3:hr>131</ns3:hr>
            <ns3:cad>0</ns3:cad>
          </ns3:TrackPointExtension>
        </extensions>
      </trkpt>
      <trkpt lat="45.32165109179913997650146484375" lon="-70.9397991187870502471923828125">
        <ele>772.79998779296875</ele>
        <time>2026-08-21T17:26:25.000Z</time>
        <extensions>
          <ns3:TrackPointExtension>
            <ns3:hr>130</ns3:hr>
            <ns3:cad>0</ns3:cad>
          </ns3:TrackPointExtension>
        </extensions>
      </trkpt>
      <trkpt lat="45.3216598927974700927734375" lon="-70.93980305828154087066650390625">
        <ele>773</ele>
        <time>2026-08-21T17:26:26.000Z</time>
        <extensions>
          <ns3:TrackPointExtension>
            <ns3:hr>130</ns3:hr>
            <ns3:cad>44</ns3:cad>
          </ns3:TrackPointExtension>
        </extensions>
      </trkpt>
      <trkpt lat="45.32166567631065845489501953125" lon="-70.93980540521442890167236328125">
        <ele>773.20001220703125</ele>
        <time>2026-08-21T17:26:27.000Z</time>
        <extensions>
          <ns3:TrackPointExtension>
            <ns3:hr>130</ns3:hr>
            <ns3:cad>44</ns3:cad>
          </ns3:TrackPointExtension>
        </extensions>
      </trkpt>
      <trkpt lat="45.3216731362044811248779296875" lon="-70.9398137032985687255859375">
        <ele>773.20001220703125</ele>
        <time>2026-08-21T17:26:28.000Z</time>
        <extensions>
          <ns3:TrackPointExtension>
            <ns3:hr>130</ns3:hr>
            <ns3:cad>44</ns3:cad>
          </ns3:TrackPointExtension>
        </extensions>
      </trkpt>
      <trkpt lat="45.32168193720281124114990234375" lon="-70.9398217499256134033203125">
        <ele>773.4000244140625</ele>
        <time>2026-08-21T17:26:29.000Z</time>
        <extensions>
          <ns3:TrackPointExtension>
            <ns3:hr>131</ns3:hr>
            <ns3:cad>44</ns3:cad>
          </ns3:TrackPointExtension>
        </extensions>
      </trkpt>
      <trkpt lat="45.32168998382985591888427734375" lon="-70.93983038328588008880615234375">
        <ele>773.4000244140625</ele>
        <time>2026-08-21T17:26:30.000Z</time>
        <extensions>
          <ns3:TrackPointExtension>
            <ns3:hr>132</ns3:hr>
            <ns3:cad>47</ns3:cad>
          </ns3:TrackPointExtension>
        </extensions>
      </trkpt>
      <trkpt lat="45.32169903628528118133544921875" lon="-70.939836837351322174072265625">
        <ele>773.5999755859375</ele>
        <time>2026-08-21T17:26:31.000Z</time>
        <extensions>
          <ns3:TrackPointExtension>
            <ns3:hr>132</ns3:hr>
            <ns3:cad>47</ns3:cad>
          </ns3:TrackPointExtension>
        </extensions>
      </trkpt>
      <trkpt lat="45.321706831455230712890625" lon="-70.93984480015933513641357421875">
        <ele>773.5999755859375</ele>
        <time>2026-08-21T17:26:32.000Z</time>
        <extensions>
          <ns3:TrackPointExtension>
            <ns3:hr>132</ns3:hr>
            <ns3:cad>47</ns3:cad>
          </ns3:TrackPointExtension>
        </extensions>
      </trkpt>
      <trkpt lat="45.3217147104442119598388671875" lon="-70.93985326588153839111328125">
        <ele>773.79998779296875</ele>
        <time>2026-08-21T17:26:33.000Z</time>
        <extensions>
          <ns3:TrackPointExtension>
            <ns3:hr>133</ns3:hr>
            <ns3:cad>45</ns3:cad>
          </ns3:TrackPointExtension>
        </extensions>
      </trkpt>
      <trkpt lat="45.32172627747058868408203125" lon="-70.9398648329079151153564453125">
        <ele>774</ele>
        <time>2026-08-21T17:26:34.000Z</time>
        <extensions>
          <ns3:TrackPointExtension>
            <ns3:hr>134</ns3:hr>
            <ns3:cad>45</ns3:cad>
          </ns3:TrackPointExtension>
        </extensions>
      </trkpt>
      <trkpt lat="45.321740694344043731689453125" lon="-70.9398738853633403778076171875">
        <ele>774</ele>
        <time>2026-08-21T17:26:35.000Z</time>
        <extensions>
          <ns3:TrackPointExtension>
            <ns3:hr>135</ns3:hr>
            <ns3:cad>49</ns3:cad>
          </ns3:TrackPointExtension>
        </extensions>
      </trkpt>
      <trkpt lat="45.3217536024749279022216796875" lon="-70.9398805908858776092529296875">
        <ele>774.20001220703125</ele>
        <time>2026-08-21T17:26:36.000Z</time>
        <extensions>
          <ns3:TrackPointExtension>
            <ns3:hr>135</ns3:hr>
            <ns3:cad>49</ns3:cad>
          </ns3:TrackPointExtension>
        </extensions>
      </trkpt>
      <trkpt lat="45.321761481463909149169921875" lon="-70.9398856200277805328369140625">
        <ele>774.20001220703125</ele>
        <time>2026-08-21T17:26:37.000Z</time>
        <extensions>
          <ns3:TrackPointExtension>
            <ns3:hr>135</ns3:hr>
            <ns3:cad>48</ns3:cad>
          </ns3:TrackPointExtension>
        </extensions>
      </trkpt>
      <trkpt lat="45.32177464105188846588134765625" lon="-70.93989090062677860260009765625">
        <ele>774.4000244140625</ele>
        <time>2026-08-21T17:26:38.000Z</time>
        <extensions>
          <ns3:TrackPointExtension>
            <ns3:hr>136</ns3:hr>
            <ns3:cad>47</ns3:cad>
          </ns3:TrackPointExtension>
        </extensions>
      </trkpt>
      <trkpt lat="45.3217918239533901214599609375" lon="-70.93988888897001743316650390625">
        <ele>774.5999755859375</ele>
        <time>2026-08-21T17:26:39.000Z</time>
        <extensions>
          <ns3:TrackPointExtension>
            <ns3:hr>136</ns3:hr>
            <ns3:cad>47</ns3:cad>
          </ns3:TrackPointExtension>
        </extensions>
      </trkpt>
      <trkpt lat="45.3218114376068115234375" lon="-70.93987983651459217071533203125">
        <ele>774.5999755859375</ele>
        <time>2026-08-21T17:26:40.000Z</time>
        <extensions>
          <ns3:TrackPointExtension>
            <ns3:hr>136</ns3:hr>
            <ns3:cad>49</ns3:cad>
          </ns3:TrackPointExtension>
        </extensions>
      </trkpt>
      <trkpt lat="45.3218219988048076629638671875" lon="-70.93987564556300640106201171875">
        <ele>774.5999755859375</ele>
        <time>2026-08-21T17:26:41.000Z</time>
        <extensions>
          <ns3:TrackPointExtension>
            <ns3:hr>136</ns3:hr>
            <ns3:cad>50</ns3:cad>
          </ns3:TrackPointExtension>
        </extensions>
      </trkpt>
      <trkpt lat="45.32183180563151836395263671875" lon="-70.93986776657402515411376953125">
        <ele>774.79998779296875</ele>
        <time>2026-08-21T17:26:42.000Z</time>
        <extensions>
          <ns3:TrackPointExtension>
            <ns3:hr>135</ns3:hr>
            <ns3:cad>50</ns3:cad>
          </ns3:TrackPointExtension>
        </extensions>
      </trkpt>
      <trkpt lat="45.32184337265789508819580078125" lon="-70.93985863029956817626953125">
        <ele>774.79998779296875</ele>
        <time>2026-08-21T17:26:43.000Z</time>
        <extensions>
          <ns3:TrackPointExtension>
            <ns3:hr>135</ns3:hr>
            <ns3:cad>50</ns3:cad>
          </ns3:TrackPointExtension>
        </extensions>
      </trkpt>
      <trkpt lat="45.32185762189328670501708984375" lon="-70.9398485720157623291015625">
        <ele>774.79998779296875</ele>
        <time>2026-08-21T17:26:44.000Z</time>
        <extensions>
          <ns3:TrackPointExtension>
            <ns3:hr>135</ns3:hr>
            <ns3:cad>50</ns3:cad>
          </ns3:TrackPointExtension>
        </extensions>
      </trkpt>
      <trkpt lat="45.321871452033519744873046875" lon="-70.9398440457880496978759765625">
        <ele>774.79998779296875</ele>
        <time>2026-08-21T17:26:45.000Z</time>
        <extensions>
          <ns3:TrackPointExtension>
            <ns3:hr>135</ns3:hr>
            <ns3:cad>50</ns3:cad>
          </ns3:TrackPointExtension>
        </extensions>
      </trkpt>
      <trkpt lat="45.32188813202083110809326171875" lon="-70.9398504160344600677490234375">
        <ele>775</ele>
        <time>2026-08-21T17:26:46.000Z</time>
        <extensions>
          <ns3:TrackPointExtension>
            <ns3:hr>135</ns3:hr>
            <ns3:cad>50</ns3:cad>
          </ns3:TrackPointExtension>
        </extensions>
      </trkpt>
      <trkpt lat="45.3218967653810977935791015625" lon="-70.93985117040574550628662109375">
        <ele>775</ele>
        <time>2026-08-21T17:26:47.000Z</time>
        <extensions>
          <ns3:TrackPointExtension>
            <ns3:hr>134</ns3:hr>
            <ns3:cad>0</ns3:cad>
          </ns3:TrackPointExtension>
        </extensions>
      </trkpt>
      <trkpt lat="45.321904309093952178955078125" lon="-70.9398544393479824066162109375">
        <ele>775</ele>
        <time>2026-08-21T17:26:48.000Z</time>
        <extensions>
          <ns3:TrackPointExtension>
            <ns3:hr>134</ns3:hr>
            <ns3:cad>0</ns3:cad>
          </ns3:TrackPointExtension>
        </extensions>
      </trkpt>
      <trkpt lat="45.32191495411098003387451171875" lon="-70.93985703773796558380126953125">
        <ele>775.20001220703125</ele>
        <time>2026-08-21T17:26:49.000Z</time>
        <extensions>
          <ns3:TrackPointExtension>
            <ns3:hr>134</ns3:hr>
            <ns3:cad>0</ns3:cad>
          </ns3:TrackPointExtension>
        </extensions>
      </trkpt>
      <trkpt lat="45.32193456776440143585205078125" lon="-70.9398641623556613922119140625">
        <ele>775.20001220703125</ele>
        <time>2026-08-21T17:26:50.000Z</time>
        <extensions>
          <ns3:TrackPointExtension>
            <ns3:hr>134</ns3:hr>
            <ns3:cad>0</ns3:cad>
          </ns3:TrackPointExtension>
        </extensions>
      </trkpt>
      <trkpt lat="45.321947894990444183349609375" lon="-70.9398638270795345306396484375">
        <ele>775.20001220703125</ele>
        <time>2026-08-21T17:26:51.000Z</time>
        <extensions>
          <ns3:TrackPointExtension>
            <ns3:hr>134</ns3:hr>
            <ns3:cad>0</ns3:cad>
          </ns3:TrackPointExtension>
        </extensions>
      </trkpt>
      <trkpt lat="45.321961306035518646240234375" lon="-70.9398671798408031463623046875">
        <ele>775.4000244140625</ele>
        <time>2026-08-21T17:26:52.000Z</time>
        <extensions>
          <ns3:TrackPointExtension>
            <ns3:hr>134</ns3:hr>
            <ns3:cad>57</ns3:cad>
          </ns3:TrackPointExtension>
        </extensions>
      </trkpt>
      <trkpt lat="45.3219737112522125244140625" lon="-70.939869023859500885009765625">
        <ele>775.4000244140625</ele>
        <time>2026-08-21T17:26:53.000Z</time>
        <extensions>
          <ns3:TrackPointExtension>
            <ns3:hr>133</ns3:hr>
            <ns3:cad>57</ns3:cad>
          </ns3:TrackPointExtension>
        </extensions>
      </trkpt>
      <trkpt lat="45.32198284752666950225830078125" lon="-70.93987162224948406219482421875">
        <ele>775.4000244140625</ele>
        <time>2026-08-21T17:26:54.000Z</time>
        <extensions>
          <ns3:TrackPointExtension>
            <ns3:hr>132</ns3:hr>
            <ns3:cad>57</ns3:cad>
          </ns3:TrackPointExtension>
        </extensions>
      </trkpt>
      <trkpt lat="45.32199139706790447235107421875" lon="-70.93987095169723033905029296875">
        <ele>775.5999755859375</ele>
        <time>2026-08-21T17:26:55.000Z</time>
        <extensions>
          <ns3:TrackPointExtension>
            <ns3:hr>131</ns3:hr>
            <ns3:cad>0</ns3:cad>
          </ns3:TrackPointExtension>
        </extensions>
      </trkpt>
      <trkpt lat="45.32200254499912261962890625" lon="-70.93987614847719669342041015625">
        <ele>775.5999755859375</ele>
        <time>2026-08-21T17:26:56.000Z</time>
        <extensions>
          <ns3:TrackPointExtension>
            <ns3:hr>130</ns3:hr>
            <ns3:cad>0</ns3:cad>
          </ns3:TrackPointExtension>
        </extensions>
      </trkpt>
      <trkpt lat="45.32201134599745273590087890625" lon="-70.939884446561336517333984375">
        <ele>775.79998779296875</ele>
        <time>2026-08-21T17:26:57.000Z</time>
        <extensions>
          <ns3:TrackPointExtension>
            <ns3:hr>131</ns3:hr>
            <ns3:cad>0</ns3:cad>
          </ns3:TrackPointExtension>
        </extensions>
      </trkpt>
      <trkpt lat="45.32201905734837055206298828125" lon="-70.93989341519773006439208984375">
        <ele>775.79998779296875</ele>
        <time>2026-08-21T17:26:58.000Z</time>
        <extensions>
          <ns3:TrackPointExtension>
            <ns3:hr>131</ns3:hr>
            <ns3:cad>53</ns3:cad>
          </ns3:TrackPointExtension>
        </extensions>
      </trkpt>
      <trkpt lat="45.3220255114138126373291015625" lon="-70.9398976899683475494384765625">
        <ele>776</ele>
        <time>2026-08-21T17:26:59.000Z</time>
        <extensions>
          <ns3:TrackPointExtension>
            <ns3:hr>130</ns3:hr>
            <ns3:cad>53</ns3:cad>
          </ns3:TrackPointExtension>
        </extensions>
      </trkpt>
      <trkpt lat="45.3220255114138126373291015625" lon="-70.93990062363445758819580078125">
        <ele>776.20001220703125</ele>
        <time>2026-08-21T17:27:00.000Z</time>
        <extensions>
          <ns3:TrackPointExtension>
            <ns3:hr>130</ns3:hr>
            <ns3:cad>53</ns3:cad>
          </ns3:TrackPointExtension>
        </extensions>
      </trkpt>
      <trkpt lat="45.32203280366957187652587890625" lon="-70.93991227447986602783203125">
        <ele>776.20001220703125</ele>
        <time>2026-08-21T17:27:01.000Z</time>
        <extensions>
          <ns3:TrackPointExtension>
            <ns3:hr>130</ns3:hr>
            <ns3:cad>53</ns3:cad>
          </ns3:TrackPointExtension>
        </extensions>
      </trkpt>
      <trkpt lat="45.32203615643084049224853515625" lon="-70.93992878682911396026611328125">
        <ele>776.4000244140625</ele>
        <time>2026-08-21T17:27:02.000Z</time>
        <extensions>
          <ns3:TrackPointExtension>
            <ns3:hr>130</ns3:hr>
            <ns3:cad>51</ns3:cad>
          </ns3:TrackPointExtension>
        </extensions>
      </trkpt>
      <trkpt lat="45.32204235903918743133544921875" lon="-70.93994789756834506988525390625">
        <ele>776.5999755859375</ele>
        <time>2026-08-21T17:27:03.000Z</time>
        <extensions>
          <ns3:TrackPointExtension>
            <ns3:hr>130</ns3:hr>
            <ns3:cad>48</ns3:cad>
          </ns3:TrackPointExtension>
        </extensions>
      </trkpt>
      <trkpt lat="45.3220506571233272552490234375" lon="-70.939962901175022125244140625">
        <ele>776.79998779296875</ele>
        <time>2026-08-21T17:27:04.000Z</time>
        <extensions>
          <ns3:TrackPointExtension>
            <ns3:hr>130</ns3:hr>
            <ns3:cad>48</ns3:cad>
          </ns3:TrackPointExtension>
        </extensions>
      </trkpt>
      <trkpt lat="45.32205828465521335601806640625" lon="-70.939976312220096588134765625">
        <ele>777</ele>
        <time>2026-08-21T17:27:05.000Z</time>
        <extensions>
          <ns3:TrackPointExtension>
            <ns3:hr>129</ns3:hr>
            <ns3:cad>48</ns3:cad>
          </ns3:TrackPointExtension>
        </extensions>
      </trkpt>
      <trkpt lat="45.3220627270638942718505859375" lon="-70.93999047763645648956298828125">
        <ele>777</ele>
        <time>2026-08-21T17:27:06.000Z</time>
        <extensions>
          <ns3:TrackPointExtension>
            <ns3:hr>129</ns3:hr>
            <ns3:cad>48</ns3:cad>
          </ns3:TrackPointExtension>
        </extensions>
      </trkpt>
      <trkpt lat="45.3220694325864315032958984375" lon="-70.94000875018537044525146484375">
        <ele>777.20001220703125</ele>
        <time>2026-08-21T17:27:07.000Z</time>
        <extensions>
          <ns3:TrackPointExtension>
            <ns3:hr>128</ns3:hr>
            <ns3:cad>51</ns3:cad>
          </ns3:TrackPointExtension>
        </extensions>
      </trkpt>
      <trkpt lat="45.32208007760345935821533203125" lon="-70.94002350233495235443115234375">
        <ele>777.4000244140625</ele>
        <time>2026-08-21T17:27:08.000Z</time>
        <extensions>
          <ns3:TrackPointExtension>
            <ns3:hr>128</ns3:hr>
            <ns3:cad>50</ns3:cad>
          </ns3:TrackPointExtension>
        </extensions>
      </trkpt>
      <trkpt lat="45.32209105789661407470703125" lon="-70.9400341473519802093505859375">
        <ele>777.4000244140625</ele>
        <time>2026-08-21T17:27:09.000Z</time>
        <extensions>
          <ns3:TrackPointExtension>
            <ns3:hr>128</ns3:hr>
            <ns3:cad>50</ns3:cad>
          </ns3:TrackPointExtension>
        </extensions>
      </trkpt>
      <trkpt lat="45.32210371457040309906005859375" lon="-70.940041355788707733154296875">
        <ele>777.5999755859375</ele>
        <time>2026-08-21T17:27:10.000Z</time>
        <extensions>
          <ns3:TrackPointExtension>
            <ns3:hr>128</ns3:hr>
            <ns3:cad>50</ns3:cad>
          </ns3:TrackPointExtension>
        </extensions>
      </trkpt>
      <trkpt lat="45.3221167065203189849853515625" lon="-70.940043367445468902587890625">
        <ele>777.79998779296875</ele>
        <time>2026-08-21T17:27:11.000Z</time>
        <extensions>
          <ns3:TrackPointExtension>
            <ns3:hr>129</ns3:hr>
            <ns3:cad>50</ns3:cad>
          </ns3:TrackPointExtension>
        </extensions>
      </trkpt>
      <trkpt lat="45.322129614651203155517578125" lon="-70.94004814513027667999267578125">
        <ele>778</ele>
        <time>2026-08-21T17:27:12.000Z</time>
        <extensions>
          <ns3:TrackPointExtension>
            <ns3:hr>129</ns3:hr>
            <ns3:cad>48</ns3:cad>
          </ns3:TrackPointExtension>
        </extensions>
      </trkpt>
      <trkpt lat="45.3221411816775798797607421875" lon="-70.940050072968006134033203125">
        <ele>778.20001220703125</ele>
        <time>2026-08-21T17:27:13.000Z</time>
        <extensions>
          <ns3:TrackPointExtension>
            <ns3:hr>130</ns3:hr>
            <ns3:cad>48</ns3:cad>
          </ns3:TrackPointExtension>
        </extensions>
      </trkpt>
      <trkpt lat="45.322157107293605804443359375" lon="-70.9400576166808605194091796875">
        <ele>778.4000244140625</ele>
        <time>2026-08-21T17:27:14.000Z</time>
        <extensions>
          <ns3:TrackPointExtension>
            <ns3:hr>130</ns3:hr>
            <ns3:cad>48</ns3:cad>
          </ns3:TrackPointExtension>
        </extensions>
      </trkpt>
      <trkpt lat="45.32217018306255340576171875" lon="-70.94006859697401523590087890625">
        <ele>778.4000244140625</ele>
        <time>2026-08-21T17:27:15.000Z</time>
        <extensions>
          <ns3:TrackPointExtension>
            <ns3:hr>130</ns3:hr>
            <ns3:cad>50</ns3:cad>
          </ns3:TrackPointExtension>
        </extensions>
      </trkpt>
      <trkpt lat="45.32218082807958126068115234375" lon="-70.94007111154496669769287109375">
        <ele>778.5999755859375</ele>
        <time>2026-08-21T17:27:16.000Z</time>
        <extensions>
          <ns3:TrackPointExtension>
            <ns3:hr>130</ns3:hr>
            <ns3:cad>50</ns3:cad>
          </ns3:TrackPointExtension>
        </extensions>
      </trkpt>
      <trkpt lat="45.32218853943049907684326171875" lon="-70.9400787390768527984619140625">
        <ele>778.5999755859375</ele>
        <time>2026-08-21T17:27:17.000Z</time>
        <extensions>
          <ns3:TrackPointExtension>
            <ns3:hr>131</ns3:hr>
            <ns3:cad>49</ns3:cad>
          </ns3:TrackPointExtension>
        </extensions>
      </trkpt>
      <trkpt lat="45.32219775952398777008056640625" lon="-70.94009156338870525360107421875">
        <ele>778.79998779296875</ele>
        <time>2026-08-21T17:27:18.000Z</time>
        <extensions>
          <ns3:TrackPointExtension>
            <ns3:hr>131</ns3:hr>
            <ns3:cad>49</ns3:cad>
          </ns3:TrackPointExtension>
        </extensions>
      </trkpt>
      <trkpt lat="45.32220882363617420196533203125" lon="-70.9401033818721771240234375">
        <ele>779</ele>
        <time>2026-08-21T17:27:19.000Z</time>
        <extensions>
          <ns3:TrackPointExtension>
            <ns3:hr>132</ns3:hr>
            <ns3:cad>49</ns3:cad>
          </ns3:TrackPointExtension>
        </extensions>
      </trkpt>
      <trkpt lat="45.3222209773957729339599609375" lon="-70.94011302106082439422607421875">
        <ele>779</ele>
        <time>2026-08-21T17:27:20.000Z</time>
        <extensions>
          <ns3:TrackPointExtension>
            <ns3:hr>132</ns3:hr>
            <ns3:cad>50</ns3:cad>
          </ns3:TrackPointExtension>
        </extensions>
      </trkpt>
      <trkpt lat="45.3222300298511981964111328125" lon="-70.940119810402393341064453125">
        <ele>779.20001220703125</ele>
        <time>2026-08-21T17:27:21.000Z</time>
        <extensions>
          <ns3:TrackPointExtension>
            <ns3:hr>132</ns3:hr>
            <ns3:cad>50</ns3:cad>
          </ns3:TrackPointExtension>
        </extensions>
      </trkpt>
      <trkpt lat="45.3222414292395114898681640625" lon="-70.9401250071823596954345703125">
        <ele>779.4000244140625</ele>
        <time>2026-08-21T17:27:22.000Z</time>
        <extensions>
          <ns3:TrackPointExtension>
            <ns3:hr>131</ns3:hr>
            <ns3:cad>50</ns3:cad>
          </ns3:TrackPointExtension>
        </extensions>
      </trkpt>
      <trkpt lat="45.32225308008491992950439453125" lon="-70.94013330526649951934814453125">
        <ele>779.4000244140625</ele>
        <time>2026-08-21T17:27:23.000Z</time>
        <extensions>
          <ns3:TrackPointExtension>
            <ns3:hr>131</ns3:hr>
            <ns3:cad>50</ns3:cad>
          </ns3:TrackPointExtension>
        </extensions>
      </trkpt>
      <trkpt lat="45.32226380892097949981689453125" lon="-70.9401417709887027740478515625">
        <ele>779.5999755859375</ele>
        <time>2026-08-21T17:27:24.000Z</time>
        <extensions>
          <ns3:TrackPointExtension>
            <ns3:hr>132</ns3:hr>
            <ns3:cad>49</ns3:cad>
          </ns3:TrackPointExtension>
        </extensions>
      </trkpt>
      <trkpt lat="45.32227747142314910888671875" lon="-70.94014755450189113616943359375">
        <ele>779.5999755859375</ele>
        <time>2026-08-21T17:27:25.000Z</time>
        <extensions>
          <ns3:TrackPointExtension>
            <ns3:hr>132</ns3:hr>
            <ns3:cad>51</ns3:cad>
          </ns3:TrackPointExtension>
        </extensions>
      </trkpt>
      <trkpt lat="45.322290547192096710205078125" lon="-70.940153338015079498291015625">
        <ele>779.79998779296875</ele>
        <time>2026-08-21T17:27:26.000Z</time>
        <extensions>
          <ns3:TrackPointExtension>
            <ns3:hr>132</ns3:hr>
            <ns3:cad>51</ns3:cad>
          </ns3:TrackPointExtension>
        </extensions>
      </trkpt>
      <trkpt lat="45.32229968346655368804931640625" lon="-70.94016012735664844512939453125">
        <ele>779.79998779296875</ele>
        <time>2026-08-21T17:27:27.000Z</time>
        <extensions>
          <ns3:TrackPointExtension>
            <ns3:hr>132</ns3:hr>
            <ns3:cad>51</ns3:cad>
          </ns3:TrackPointExtension>
        </extensions>
      </trkpt>
      <trkpt lat="45.32231057994067668914794921875" lon="-70.9401645697653293609619140625">
        <ele>780</ele>
        <time>2026-08-21T17:27:28.000Z</time>
        <extensions>
          <ns3:TrackPointExtension>
            <ns3:hr>132</ns3:hr>
            <ns3:cad>51</ns3:cad>
          </ns3:TrackPointExtension>
        </extensions>
      </trkpt>
      <trkpt lat="45.32231745310127735137939453125" lon="-70.94016867689788341522216796875">
        <ele>780.20001220703125</ele>
        <time>2026-08-21T17:27:29.000Z</time>
        <extensions>
          <ns3:TrackPointExtension>
            <ns3:hr>131</ns3:hr>
            <ns3:cad>51</ns3:cad>
          </ns3:TrackPointExtension>
        </extensions>
      </trkpt>
      <trkpt lat="45.32232784666121006011962890625" lon="-70.94017446041107177734375">
        <ele>780.20001220703125</ele>
        <time>2026-08-21T17:27:30.000Z</time>
        <extensions>
          <ns3:TrackPointExtension>
            <ns3:hr>132</ns3:hr>
            <ns3:cad>50</ns3:cad>
          </ns3:TrackPointExtension>
        </extensions>
      </trkpt>
      <trkpt lat="45.32234184443950653076171875" lon="-70.94017806462943553924560546875">
        <ele>780.4000244140625</ele>
        <time>2026-08-21T17:27:31.000Z</time>
        <extensions>
          <ns3:TrackPointExtension>
            <ns3:hr>132</ns3:hr>
            <ns3:cad>50</ns3:cad>
          </ns3:TrackPointExtension>
        </extensions>
      </trkpt>
      <trkpt lat="45.32235316000878810882568359375" lon="-70.94018007628619670867919921875">
        <ele>780.5999755859375</ele>
        <time>2026-08-21T17:27:32.000Z</time>
        <extensions>
          <ns3:TrackPointExtension>
            <ns3:hr>132</ns3:hr>
            <ns3:cad>47</ns3:cad>
          </ns3:TrackPointExtension>
        </extensions>
      </trkpt>
      <trkpt lat="45.32236590050160884857177734375" lon="-70.94018594361841678619384765625">
        <ele>780.79998779296875</ele>
        <time>2026-08-21T17:27:33.000Z</time>
        <extensions>
          <ns3:TrackPointExtension>
            <ns3:hr>132</ns3:hr>
            <ns3:cad>47</ns3:cad>
          </ns3:TrackPointExtension>
        </extensions>
      </trkpt>
      <trkpt lat="45.32237495295703411102294921875" lon="-70.94019063748419284820556640625">
        <ele>780.79998779296875</ele>
        <time>2026-08-21T17:27:34.000Z</time>
        <extensions>
          <ns3:TrackPointExtension>
            <ns3:hr>132</ns3:hr>
            <ns3:cad>48</ns3:cad>
          </ns3:TrackPointExtension>
        </extensions>
      </trkpt>
      <trkpt lat="45.3223876096308231353759765625" lon="-70.9401980973780155181884765625">
        <ele>781</ele>
        <time>2026-08-21T17:27:35.000Z</time>
        <extensions>
          <ns3:TrackPointExtension>
            <ns3:hr>131</ns3:hr>
            <ns3:cad>48</ns3:cad>
          </ns3:TrackPointExtension>
        </extensions>
      </trkpt>
      <trkpt lat="45.322398841381072998046875" lon="-70.94020572490990161895751953125">
        <ele>781.20001220703125</ele>
        <time>2026-08-21T17:27:36.000Z</time>
        <extensions>
          <ns3:TrackPointExtension>
            <ns3:hr>132</ns3:hr>
            <ns3:cad>50</ns3:cad>
          </ns3:TrackPointExtension>
        </extensions>
      </trkpt>
      <trkpt lat="45.32241292297840118408203125" lon="-70.9402128495275974273681640625">
        <ele>781.20001220703125</ele>
        <time>2026-08-21T17:27:37.000Z</time>
        <extensions>
          <ns3:TrackPointExtension>
            <ns3:hr>132</ns3:hr>
            <ns3:cad>50</ns3:cad>
          </ns3:TrackPointExtension>
        </extensions>
      </trkpt>
      <trkpt lat="45.32242675311863422393798828125" lon="-70.94022165052592754364013671875">
        <ele>781.20001220703125</ele>
        <time>2026-08-21T17:27:38.000Z</time>
        <extensions>
          <ns3:TrackPointExtension>
            <ns3:hr>132</ns3:hr>
            <ns3:cad>50</ns3:cad>
          </ns3:TrackPointExtension>
        </extensions>
      </trkpt>
      <trkpt lat="45.3224430978298187255859375" lon="-70.94023254700005054473876953125">
        <ele>781.4000244140625</ele>
        <time>2026-08-21T17:27:39.000Z</time>
        <extensions>
          <ns3:TrackPointExtension>
            <ns3:hr>133</ns3:hr>
            <ns3:cad>50</ns3:cad>
          </ns3:TrackPointExtension>
        </extensions>
      </trkpt>
      <trkpt lat="45.32245525158941745758056640625" lon="-70.94023975543677806854248046875">
        <ele>781.4000244140625</ele>
        <time>2026-08-21T17:27:40.000Z</time>
        <extensions>
          <ns3:TrackPointExtension>
            <ns3:hr>133</ns3:hr>
            <ns3:cad>50</ns3:cad>
          </ns3:TrackPointExtension>
        </extensions>
      </trkpt>
      <trkpt lat="45.32246581278741359710693359375" lon="-70.94024227000772953033447265625">
        <ele>781.4000244140625</ele>
        <time>2026-08-21T17:27:41.000Z</time>
        <extensions>
          <ns3:TrackPointExtension>
            <ns3:hr>134</ns3:hr>
            <ns3:cad>50</ns3:cad>
          </ns3:TrackPointExtension>
        </extensions>
      </trkpt>
      <trkpt lat="45.3224788047373294830322265625" lon="-70.9402470476925373077392578125">
        <ele>781.4000244140625</ele>
        <time>2026-08-21T17:27:42.000Z</time>
        <extensions>
          <ns3:TrackPointExtension>
            <ns3:hr>134</ns3:hr>
            <ns3:cad>0</ns3:cad>
          </ns3:TrackPointExtension>
        </extensions>
      </trkpt>
      <trkpt lat="45.32249095849692821502685546875" lon="-70.940253920853137969970703125">
        <ele>781.5999755859375</ele>
        <time>2026-08-21T17:27:43.000Z</time>
        <extensions>
          <ns3:TrackPointExtension>
            <ns3:hr>134</ns3:hr>
            <ns3:cad>0</ns3:cad>
          </ns3:TrackPointExtension>
        </extensions>
      </trkpt>
      <trkpt lat="45.3225079737603664398193359375" lon="-70.9402611292898654937744140625">
        <ele>781.5999755859375</ele>
        <time>2026-08-21T17:27:44.000Z</time>
        <extensions>
          <ns3:TrackPointExtension>
            <ns3:hr>134</ns3:hr>
            <ns3:cad>50</ns3:cad>
          </ns3:TrackPointExtension>
        </extensions>
      </trkpt>
      <trkpt lat="45.32252230681478977203369140625" lon="-70.940267331898212432861328125">
        <ele>781.5999755859375</ele>
        <time>2026-08-21T17:27:45.000Z</time>
        <extensions>
          <ns3:TrackPointExtension>
            <ns3:hr>134</ns3:hr>
            <ns3:cad>50</ns3:cad>
          </ns3:TrackPointExtension>
        </extensions>
      </trkpt>
      <trkpt lat="45.32253772951662540435791015625" lon="-70.9402768872678279876708984375">
        <ele>781.5999755859375</ele>
        <time>2026-08-21T17:27:46.000Z</time>
        <extensions>
          <ns3:TrackPointExtension>
            <ns3:hr>134</ns3:hr>
            <ns3:cad>50</ns3:cad>
          </ns3:TrackPointExtension>
        </extensions>
      </trkpt>
      <trkpt lat="45.32255147583782672882080078125" lon="-70.94028200022876262664794921875">
        <ele>781.79998779296875</ele>
        <time>2026-08-21T17:27:47.000Z</time>
        <extensions>
          <ns3:TrackPointExtension>
            <ns3:hr>134</ns3:hr>
            <ns3:cad>50</ns3:cad>
          </ns3:TrackPointExtension>
        </extensions>
      </trkpt>
      <trkpt lat="45.322561450302600860595703125" lon="-70.94028535299003124237060546875">
        <ele>781.79998779296875</ele>
        <time>2026-08-21T17:27:48.000Z</time>
        <extensions>
          <ns3:TrackPointExtension>
            <ns3:hr>134</ns3:hr>
            <ns3:cad>50</ns3:cad>
          </ns3:TrackPointExtension>
        </extensions>
      </trkpt>
      <trkpt lat="45.32256974838674068450927734375" lon="-70.94029314815998077392578125">
        <ele>781.79998779296875</ele>
        <time>2026-08-21T17:27:49.000Z</time>
        <extensions>
          <ns3:TrackPointExtension>
            <ns3:hr>134</ns3:hr>
            <ns3:cad>50</ns3:cad>
          </ns3:TrackPointExtension>
        </extensions>
      </trkpt>
      <trkpt lat="45.3225837461650371551513671875" lon="-70.94030027277767658233642578125">
        <ele>782</ele>
        <time>2026-08-21T17:27:50.000Z</time>
        <extensions>
          <ns3:TrackPointExtension>
            <ns3:hr>133</ns3:hr>
            <ns3:cad>50</ns3:cad>
          </ns3:TrackPointExtension>
        </extensions>
      </trkpt>
      <trkpt lat="45.32259891740977764129638671875" lon="-70.94030748121440410614013671875">
        <ele>782.20001220703125</ele>
        <time>2026-08-21T17:27:51.000Z</time>
        <extensions>
          <ns3:TrackPointExtension>
            <ns3:hr>134</ns3:hr>
            <ns3:cad>52</ns3:cad>
          </ns3:TrackPointExtension>
        </extensions>
      </trkpt>
      <trkpt lat="45.3226098977029323577880859375" lon="-70.94031418673694133758544921875">
        <ele>782.20001220703125</ele>
        <time>2026-08-21T17:27:52.000Z</time>
        <extensions>
          <ns3:TrackPointExtension>
            <ns3:hr>134</ns3:hr>
            <ns3:cad>50</ns3:cad>
          </ns3:TrackPointExtension>
        </extensions>
      </trkpt>
      <trkpt lat="45.322623141109943389892578125" lon="-70.94032709486782550811767578125">
        <ele>782.20001220703125</ele>
        <time>2026-08-21T17:27:53.000Z</time>
        <extensions>
          <ns3:TrackPointExtension>
            <ns3:hr>134</ns3:hr>
            <ns3:cad>50</ns3:cad>
          </ns3:TrackPointExtension>
        </extensions>
      </trkpt>
      <trkpt lat="45.3226330317556858062744140625" lon="-70.940336398780345916748046875">
        <ele>782.20001220703125</ele>
        <time>2026-08-21T17:27:54.000Z</time>
        <extensions>
          <ns3:TrackPointExtension>
            <ns3:hr>133</ns3:hr>
            <ns3:cad>50</ns3:cad>
          </ns3:TrackPointExtension>
        </extensions>
      </trkpt>
      <trkpt lat="45.322645939886569976806640625" lon="-70.94034369103610515594482421875">
        <ele>782.20001220703125</ele>
        <time>2026-08-21T17:27:55.000Z</time>
        <extensions>
          <ns3:TrackPointExtension>
            <ns3:hr>133</ns3:hr>
            <ns3:cad>50</ns3:cad>
          </ns3:TrackPointExtension>
        </extensions>
      </trkpt>
      <trkpt lat="45.322655327618122100830078125" lon="-70.9403509832918643951416015625">
        <ele>782.20001220703125</ele>
        <time>2026-08-21T17:27:56.000Z</time>
        <extensions>
          <ns3:TrackPointExtension>
            <ns3:hr>133</ns3:hr>
            <ns3:cad>50</ns3:cad>
          </ns3:TrackPointExtension>
        </extensions>
      </trkpt>
      <trkpt lat="45.3226709179580211639404296875" lon="-70.9403583593666553497314453125">
        <ele>782.4000244140625</ele>
        <time>2026-08-21T17:27:57.000Z</time>
        <extensions>
          <ns3:TrackPointExtension>
            <ns3:hr>134</ns3:hr>
            <ns3:cad>50</ns3:cad>
          </ns3:TrackPointExtension>
        </extensions>
      </trkpt>
      <trkpt lat="45.32268508337438106536865234375" lon="-70.94036196358501911163330078125">
        <ele>782.4000244140625</ele>
        <time>2026-08-21T17:27:58.000Z</time>
        <extensions>
          <ns3:TrackPointExtension>
            <ns3:hr>135</ns3:hr>
            <ns3:cad>50</ns3:cad>
          </ns3:TrackPointExtension>
        </extensions>
      </trkpt>
      <trkpt lat="45.322701595723628997802734375" lon="-70.94036129303276538848876953125">
        <ele>782.4000244140625</ele>
        <time>2026-08-21T17:27:59.000Z</time>
        <extensions>
          <ns3:TrackPointExtension>
            <ns3:hr>134</ns3:hr>
            <ns3:cad>50</ns3:cad>
          </ns3:TrackPointExtension>
        </extensions>
      </trkpt>
      <trkpt lat="45.3227178566157817840576171875" lon="-70.9403637237846851348876953125">
        <ele>782.5999755859375</ele>
        <time>2026-08-21T17:28:00.000Z</time>
        <extensions>
          <ns3:TrackPointExtension>
            <ns3:hr>134</ns3:hr>
            <ns3:cad>50</ns3:cad>
          </ns3:TrackPointExtension>
        </extensions>
      </trkpt>
      <trkpt lat="45.32273235730826854705810546875" lon="-70.94037286005914211273193359375">
        <ele>782.5999755859375</ele>
        <time>2026-08-21T17:28:01.000Z</time>
        <extensions>
          <ns3:TrackPointExtension>
            <ns3:hr>133</ns3:hr>
            <ns3:cad>50</ns3:cad>
          </ns3:TrackPointExtension>
        </extensions>
      </trkpt>
      <trkpt lat="45.32275398261845111846923828125" lon="-70.94038140960037708282470703125">
        <ele>782.79998779296875</ele>
        <time>2026-08-21T17:28:02.000Z</time>
        <extensions>
          <ns3:TrackPointExtension>
            <ns3:hr>132</ns3:hr>
            <ns3:cad>50</ns3:cad>
          </ns3:TrackPointExtension>
        </extensions>
      </trkpt>
      <trkpt lat="45.3227676451206207275390625" lon="-70.94038861803710460662841796875">
        <ele>782.79998779296875</ele>
        <time>2026-08-21T17:28:03.000Z</time>
        <extensions>
          <ns3:TrackPointExtension>
            <ns3:hr>130</ns3:hr>
            <ns3:cad>50</ns3:cad>
          </ns3:TrackPointExtension>
        </extensions>
      </trkpt>
      <trkpt lat="45.32278566621243953704833984375" lon="-70.94039213843643665313720703125">
        <ele>782.79998779296875</ele>
        <time>2026-08-21T17:28:04.000Z</time>
        <extensions>
          <ns3:TrackPointExtension>
            <ns3:hr>130</ns3:hr>
            <ns3:cad>50</ns3:cad>
          </ns3:TrackPointExtension>
        </extensions>
      </trkpt>
      <trkpt lat="45.322804190218448638916015625" lon="-70.94039917923510074615478515625">
        <ele>782.5999755859375</ele>
        <time>2026-08-21T17:28:05.000Z</time>
        <extensions>
          <ns3:TrackPointExtension>
            <ns3:hr>130</ns3:hr>
            <ns3:cad>50</ns3:cad>
          </ns3:TrackPointExtension>
        </extensions>
      </trkpt>
      <trkpt lat="45.32282137311995029449462890625" lon="-70.9404042921960353851318359375">
        <ele>782.5999755859375</ele>
        <time>2026-08-21T17:28:06.000Z</time>
        <extensions>
          <ns3:TrackPointExtension>
            <ns3:hr>129</ns3:hr>
            <ns3:cad>71</ns3:cad>
          </ns3:TrackPointExtension>
        </extensions>
      </trkpt>
      <trkpt lat="45.322841741144657135009765625" lon="-70.940416865050792694091796875">
        <ele>782.5999755859375</ele>
        <time>2026-08-21T17:28:07.000Z</time>
        <extensions>
          <ns3:TrackPointExtension>
            <ns3:hr>130</ns3:hr>
            <ns3:cad>71</ns3:cad>
          </ns3:TrackPointExtension>
        </extensions>
      </trkpt>
      <trkpt lat="45.322853811085224151611328125" lon="-70.94042046926915645599365234375">
        <ele>782.5999755859375</ele>
        <time>2026-08-21T17:28:08.000Z</time>
        <extensions>
          <ns3:TrackPointExtension>
            <ns3:hr>130</ns3:hr>
            <ns3:cad>71</ns3:cad>
          </ns3:TrackPointExtension>
        </extensions>
      </trkpt>
      <trkpt lat="45.322873257100582122802734375" lon="-70.94042784534394741058349609375">
        <ele>782.79998779296875</ele>
        <time>2026-08-21T17:28:09.000Z</time>
        <extensions>
          <ns3:TrackPointExtension>
            <ns3:hr>130</ns3:hr>
            <ns3:cad>71</ns3:cad>
          </ns3:TrackPointExtension>
        </extensions>
      </trkpt>
      <trkpt lat="45.32288591377437114715576171875" lon="-70.9404337964951992034912109375">
        <ele>782.79998779296875</ele>
        <time>2026-08-21T17:28:10.000Z</time>
        <extensions>
          <ns3:TrackPointExtension>
            <ns3:hr>130</ns3:hr>
            <ns3:cad>71</ns3:cad>
          </ns3:TrackPointExtension>
        </extensions>
      </trkpt>
      <trkpt lat="45.3229017555713653564453125" lon="-70.9404445253312587738037109375">
        <ele>782.79998779296875</ele>
        <time>2026-08-21T17:28:11.000Z</time>
        <extensions>
          <ns3:TrackPointExtension>
            <ns3:hr>130</ns3:hr>
            <ns3:cad>71</ns3:cad>
          </ns3:TrackPointExtension>
        </extensions>
      </trkpt>
      <trkpt lat="45.32291759736835956573486328125" lon="-70.94045651145279407501220703125">
        <ele>782.79998779296875</ele>
        <time>2026-08-21T17:28:12.000Z</time>
        <extensions>
          <ns3:TrackPointExtension>
            <ns3:hr>130</ns3:hr>
            <ns3:cad>71</ns3:cad>
          </ns3:TrackPointExtension>
        </extensions>
      </trkpt>
      <trkpt lat="45.32293285243213176727294921875" lon="-70.9404666535556316375732421875">
        <ele>782.79998779296875</ele>
        <time>2026-08-21T17:28:13.000Z</time>
        <extensions>
          <ns3:TrackPointExtension>
            <ns3:hr>130</ns3:hr>
            <ns3:cad>70</ns3:cad>
          </ns3:TrackPointExtension>
        </extensions>
      </trkpt>
      <trkpt lat="45.32294609583914279937744140625" lon="-70.94047578983008861541748046875">
        <ele>782.79998779296875</ele>
        <time>2026-08-21T17:28:14.000Z</time>
        <extensions>
          <ns3:TrackPointExtension>
            <ns3:hr>130</ns3:hr>
            <ns3:cad>70</ns3:cad>
          </ns3:TrackPointExtension>
        </extensions>
      </trkpt>
      <trkpt lat="45.32295933924615383148193359375" lon="-70.9404815733432769775390625">
        <ele>783</ele>
        <time>2026-08-21T17:28:15.000Z</time>
        <extensions>
          <ns3:TrackPointExtension>
            <ns3:hr>130</ns3:hr>
            <ns3:cad>70</ns3:cad>
          </ns3:TrackPointExtension>
        </extensions>
      </trkpt>
      <trkpt lat="45.32297241501510143280029296875" lon="-70.94048702158033847808837890625">
        <ele>783</ele>
        <time>2026-08-21T17:28:16.000Z</time>
        <extensions>
          <ns3:TrackPointExtension>
            <ns3:hr>130</ns3:hr>
            <ns3:cad>70</ns3:cad>
          </ns3:TrackPointExtension>
        </extensions>
      </trkpt>
      <trkpt lat="45.32298582606017589569091796875" lon="-70.94049003906548023223876953125">
        <ele>783</ele>
        <time>2026-08-21T17:28:17.000Z</time>
        <extensions>
          <ns3:TrackPointExtension>
            <ns3:hr>130</ns3:hr>
            <ns3:cad>70</ns3:cad>
          </ns3:TrackPointExtension>
        </extensions>
      </trkpt>
      <trkpt lat="45.32299672253429889678955078125" lon="-70.9404928050935268402099609375">
        <ele>783</ele>
        <time>2026-08-21T17:28:18.000Z</time>
        <extensions>
          <ns3:TrackPointExtension>
            <ns3:hr>130</ns3:hr>
            <ns3:cad>70</ns3:cad>
          </ns3:TrackPointExtension>
        </extensions>
      </trkpt>
      <trkpt lat="45.32301465980708599090576171875" lon="-70.94049875624477863311767578125">
        <ele>783</ele>
        <time>2026-08-21T17:28:19.000Z</time>
        <extensions>
          <ns3:TrackPointExtension>
            <ns3:hr>130</ns3:hr>
            <ns3:cad>70</ns3:cad>
          </ns3:TrackPointExtension>
        </extensions>
      </trkpt>
      <trkpt lat="45.32302379608154296875" lon="-70.9405025281012058258056640625">
        <ele>783</ele>
        <time>2026-08-21T17:28:20.000Z</time>
        <extensions>
          <ns3:TrackPointExtension>
            <ns3:hr>130</ns3:hr>
            <ns3:cad>70</ns3:cad>
          </ns3:TrackPointExtension>
        </extensions>
      </trkpt>
      <trkpt lat="45.32304215244948863983154296875" lon="-70.94051015563309192657470703125">
        <ele>783</ele>
        <time>2026-08-21T17:28:21.000Z</time>
        <extensions>
          <ns3:TrackPointExtension>
            <ns3:hr>130</ns3:hr>
            <ns3:cad>55</ns3:cad>
          </ns3:TrackPointExtension>
        </extensions>
      </trkpt>
      <trkpt lat="45.32305271364748477935791015625" lon="-70.9405137598514556884765625">
        <ele>783</ele>
        <time>2026-08-21T17:28:22.000Z</time>
        <extensions>
          <ns3:TrackPointExtension>
            <ns3:hr>129</ns3:hr>
            <ns3:cad>55</ns3:cad>
          </ns3:TrackPointExtension>
        </extensions>
      </trkpt>
      <trkpt lat="45.32306738197803497314453125" lon="-70.94052247703075408935546875">
        <ele>782.79998779296875</ele>
        <time>2026-08-21T17:28:23.000Z</time>
        <extensions>
          <ns3:TrackPointExtension>
            <ns3:hr>129</ns3:hr>
            <ns3:cad>55</ns3:cad>
          </ns3:TrackPointExtension>
        </extensions>
      </trkpt>
      <trkpt lat="45.32308079302310943603515625" lon="-70.9405320324003696441650390625">
        <ele>782.79998779296875</ele>
        <time>2026-08-21T17:28:24.000Z</time>
        <extensions>
          <ns3:TrackPointExtension>
            <ns3:hr>129</ns3:hr>
            <ns3:cad>61</ns3:cad>
          </ns3:TrackPointExtension>
        </extensions>
      </trkpt>
      <trkpt lat="45.3230943717062473297119140625" lon="-70.94054318033158779144287109375">
        <ele>782.79998779296875</ele>
        <time>2026-08-21T17:28:25.000Z</time>
        <extensions>
          <ns3:TrackPointExtension>
            <ns3:hr>128</ns3:hr>
            <ns3:cad>61</ns3:cad>
          </ns3:TrackPointExtension>
        </extensions>
      </trkpt>
      <trkpt lat="45.32310887239873409271240234375" lon="-70.94055709429085254669189453125">
        <ele>782.79998779296875</ele>
        <time>2026-08-21T17:28:26.000Z</time>
        <extensions>
          <ns3:TrackPointExtension>
            <ns3:hr>127</ns3:hr>
            <ns3:cad>61</ns3:cad>
          </ns3:TrackPointExtension>
        </extensions>
      </trkpt>
      <trkpt lat="45.32312178052961826324462890625" lon="-70.94056882895529270172119140625">
        <ele>782.79998779296875</ele>
        <time>2026-08-21T17:28:27.000Z</time>
        <extensions>
          <ns3:TrackPointExtension>
            <ns3:hr>126</ns3:hr>
            <ns3:cad>61</ns3:cad>
          </ns3:TrackPointExtension>
        </extensions>
      </trkpt>
      <trkpt lat="45.323135443031787872314453125" lon="-70.9405767917633056640625">
        <ele>782.79998779296875</ele>
        <time>2026-08-21T17:28:28.000Z</time>
        <extensions>
          <ns3:TrackPointExtension>
            <ns3:hr>126</ns3:hr>
            <ns3:cad>56</ns3:cad>
          </ns3:TrackPointExtension>
        </extensions>
      </trkpt>
      <trkpt lat="45.3231485188007354736328125" lon="-70.9405829943716526031494140625">
        <ele>782.79998779296875</ele>
        <time>2026-08-21T17:28:29.000Z</time>
        <extensions>
          <ns3:TrackPointExtension>
            <ns3:hr>125</ns3:hr>
            <ns3:cad>55</ns3:cad>
          </ns3:TrackPointExtension>
        </extensions>
      </trkpt>
      <trkpt lat="45.32315832562744617462158203125" lon="-70.94058827497065067291259765625">
        <ele>782.79998779296875</ele>
        <time>2026-08-21T17:28:30.000Z</time>
        <extensions>
          <ns3:TrackPointExtension>
            <ns3:hr>125</ns3:hr>
            <ns3:cad>55</ns3:cad>
          </ns3:TrackPointExtension>
        </extensions>
      </trkpt>
      <trkpt lat="45.32316804863512516021728515625" lon="-70.940594561398029327392578125">
        <ele>783</ele>
        <time>2026-08-21T17:28:31.000Z</time>
        <extensions>
          <ns3:TrackPointExtension>
            <ns3:hr>125</ns3:hr>
            <ns3:cad>55</ns3:cad>
          </ns3:TrackPointExtension>
        </extensions>
      </trkpt>
      <trkpt lat="45.323179699480533599853515625" lon="-70.940604619681835174560546875">
        <ele>783</ele>
        <time>2026-08-21T17:28:32.000Z</time>
        <extensions>
          <ns3:TrackPointExtension>
            <ns3:hr>125</ns3:hr>
            <ns3:cad>55</ns3:cad>
          </ns3:TrackPointExtension>
        </extensions>
      </trkpt>
      <trkpt lat="45.3231889195740222930908203125" lon="-70.94061233103275299072265625">
        <ele>783</ele>
        <time>2026-08-21T17:28:33.000Z</time>
        <extensions>
          <ns3:TrackPointExtension>
            <ns3:hr>126</ns3:hr>
            <ns3:cad>53</ns3:cad>
          </ns3:TrackPointExtension>
        </extensions>
      </trkpt>
      <trkpt lat="45.32319537363946437835693359375" lon="-70.94062163494527339935302734375">
        <ele>783</ele>
        <time>2026-08-21T17:28:34.000Z</time>
        <extensions>
          <ns3:TrackPointExtension>
            <ns3:hr>126</ns3:hr>
            <ns3:cad>53</ns3:cad>
          </ns3:TrackPointExtension>
        </extensions>
      </trkpt>
      <trkpt lat="45.32320157624781131744384765625" lon="-70.940634794533252716064453125">
        <ele>783</ele>
        <time>2026-08-21T17:28:35.000Z</time>
        <extensions>
          <ns3:TrackPointExtension>
            <ns3:hr>126</ns3:hr>
            <ns3:cad>53</ns3:cad>
          </ns3:TrackPointExtension>
        </extensions>
      </trkpt>
      <trkpt lat="45.3232073597609996795654296875" lon="-70.9406480379402637481689453125">
        <ele>783</ele>
        <time>2026-08-21T17:28:36.000Z</time>
        <extensions>
          <ns3:TrackPointExtension>
            <ns3:hr>125</ns3:hr>
            <ns3:cad>53</ns3:cad>
          </ns3:TrackPointExtension>
        </extensions>
      </trkpt>
      <trkpt lat="45.3232137300074100494384765625" lon="-70.940655581653118133544921875">
        <ele>783.20001220703125</ele>
        <time>2026-08-21T17:28:37.000Z</time>
        <extensions>
          <ns3:TrackPointExtension>
            <ns3:hr>124</ns3:hr>
            <ns3:cad>53</ns3:cad>
          </ns3:TrackPointExtension>
        </extensions>
      </trkpt>
      <trkpt lat="45.32322295010089874267578125" lon="-70.94067108817398548126220703125">
        <ele>783.20001220703125</ele>
        <time>2026-08-21T17:28:38.000Z</time>
        <extensions>
          <ns3:TrackPointExtension>
            <ns3:hr>123</ns3:hr>
            <ns3:cad>0</ns3:cad>
          </ns3:TrackPointExtension>
        </extensions>
      </trkpt>
      <trkpt lat="45.32323426567018032073974609375" lon="-70.94068651087582111358642578125">
        <ele>783.20001220703125</ele>
        <time>2026-08-21T17:28:39.000Z</time>
        <extensions>
          <ns3:TrackPointExtension>
            <ns3:hr>123</ns3:hr>
            <ns3:cad>0</ns3:cad>
          </ns3:TrackPointExtension>
        </extensions>
      </trkpt>
      <trkpt lat="45.32323560677468776702880859375" lon="-70.940697155892848968505859375">
        <ele>783.20001220703125</ele>
        <time>2026-08-21T17:28:40.000Z</time>
        <extensions>
          <ns3:TrackPointExtension>
            <ns3:hr>123</ns3:hr>
            <ns3:cad>0</ns3:cad>
          </ns3:TrackPointExtension>
        </extensions>
      </trkpt>
      <trkpt lat="45.323232673108577728271484375" lon="-70.9407124109566211700439453125">
        <ele>783.20001220703125</ele>
        <time>2026-08-21T17:28:41.000Z</time>
        <extensions>
          <ns3:TrackPointExtension>
            <ns3:hr>123</ns3:hr>
            <ns3:cad>0</ns3:cad>
          </ns3:TrackPointExtension>
        </extensions>
      </trkpt>
      <trkpt lat="45.32323225401341915130615234375" lon="-70.94072842039167881011962890625">
        <ele>783.20001220703125</ele>
        <time>2026-08-21T17:28:42.000Z</time>
        <extensions>
          <ns3:TrackPointExtension>
            <ns3:hr>123</ns3:hr>
            <ns3:cad>0</ns3:cad>
          </ns3:TrackPointExtension>
        </extensions>
      </trkpt>
      <trkpt lat="45.32323745079338550567626953125" lon="-70.94074769876897335052490234375">
        <ele>783.4000244140625</ele>
        <time>2026-08-21T17:28:43.000Z</time>
        <extensions>
          <ns3:TrackPointExtension>
            <ns3:hr>123</ns3:hr>
            <ns3:cad>0</ns3:cad>
          </ns3:TrackPointExtension>
        </extensions>
      </trkpt>
      <trkpt lat="45.32324382103979587554931640625" lon="-70.94075825996696949005126953125">
        <ele>783.4000244140625</ele>
        <time>2026-08-21T17:28:44.000Z</time>
        <extensions>
          <ns3:TrackPointExtension>
            <ns3:hr>123</ns3:hr>
            <ns3:cad>0</ns3:cad>
          </ns3:TrackPointExtension>
        </extensions>
      </trkpt>
      <trkpt lat="45.32324985601007938385009765625" lon="-70.94077016226947307586669921875">
        <ele>783.4000244140625</ele>
        <time>2026-08-21T17:28:45.000Z</time>
        <extensions>
          <ns3:TrackPointExtension>
            <ns3:hr>122</ns3:hr>
            <ns3:cad>51</ns3:cad>
          </ns3:TrackPointExtension>
        </extensions>
      </trkpt>
      <trkpt lat="45.3232566453516483306884765625" lon="-70.94078541733324527740478515625">
        <ele>783.5999755859375</ele>
        <time>2026-08-21T17:28:46.000Z</time>
        <extensions>
          <ns3:TrackPointExtension>
            <ns3:hr>122</ns3:hr>
            <ns3:cad>51</ns3:cad>
          </ns3:TrackPointExtension>
        </extensions>
      </trkpt>
      <trkpt lat="45.3232623450458049774169921875" lon="-70.940802432596683502197265625">
        <ele>783.5999755859375</ele>
        <time>2026-08-21T17:28:47.000Z</time>
        <extensions>
          <ns3:TrackPointExtension>
            <ns3:hr>122</ns3:hr>
            <ns3:cad>51</ns3:cad>
          </ns3:TrackPointExtension>
        </extensions>
      </trkpt>
      <trkpt lat="45.32326854765415191650390625" lon="-70.94081408344209194183349609375">
        <ele>783.79998779296875</ele>
        <time>2026-08-21T17:28:48.000Z</time>
        <extensions>
          <ns3:TrackPointExtension>
            <ns3:hr>122</ns3:hr>
            <ns3:cad>50</ns3:cad>
          </ns3:TrackPointExtension>
        </extensions>
      </trkpt>
      <trkpt lat="45.32327483408153057098388671875" lon="-70.94083168543875217437744140625">
        <ele>783.79998779296875</ele>
        <time>2026-08-21T17:28:49.000Z</time>
        <extensions>
          <ns3:TrackPointExtension>
            <ns3:hr>121</ns3:hr>
            <ns3:cad>50</ns3:cad>
          </ns3:TrackPointExtension>
        </extensions>
      </trkpt>
      <trkpt lat="45.32328170724213123321533203125" lon="-70.940847694873809814453125">
        <ele>784</ele>
        <time>2026-08-21T17:28:50.000Z</time>
        <extensions>
          <ns3:TrackPointExtension>
            <ns3:hr>121</ns3:hr>
            <ns3:cad>53</ns3:cad>
          </ns3:TrackPointExtension>
        </extensions>
      </trkpt>
      <trkpt lat="45.32328539527952671051025390625" lon="-70.9408642910420894622802734375">
        <ele>784</ele>
        <time>2026-08-21T17:28:51.000Z</time>
        <extensions>
          <ns3:TrackPointExtension>
            <ns3:hr>121</ns3:hr>
            <ns3:cad>53</ns3:cad>
          </ns3:TrackPointExtension>
        </extensions>
      </trkpt>
      <trkpt lat="45.32328874804079532623291015625" lon="-70.940878875553607940673828125">
        <ele>784.20001220703125</ele>
        <time>2026-08-21T17:28:52.000Z</time>
        <extensions>
          <ns3:TrackPointExtension>
            <ns3:hr>122</ns3:hr>
            <ns3:cad>53</ns3:cad>
          </ns3:TrackPointExtension>
        </extensions>
      </trkpt>
      <trkpt lat="45.32329293899238109588623046875" lon="-70.9408917836844921112060546875">
        <ele>784.4000244140625</ele>
        <time>2026-08-21T17:28:53.000Z</time>
        <extensions>
          <ns3:TrackPointExtension>
            <ns3:hr>121</ns3:hr>
            <ns3:cad>0</ns3:cad>
          </ns3:TrackPointExtension>
        </extensions>
      </trkpt>
      <trkpt lat="45.32329830341041088104248046875" lon="-70.940912067890167236328125">
        <ele>784.4000244140625</ele>
        <time>2026-08-21T17:28:54.000Z</time>
        <extensions>
          <ns3:TrackPointExtension>
            <ns3:hr>121</ns3:hr>
            <ns3:cad>0</ns3:cad>
          </ns3:TrackPointExtension>
        </extensions>
      </trkpt>
      <trkpt lat="45.323299728333950042724609375" lon="-70.9409303404390811920166015625">
        <ele>784.5999755859375</ele>
        <time>2026-08-21T17:28:55.000Z</time>
        <extensions>
          <ns3:TrackPointExtension>
            <ns3:hr>122</ns3:hr>
            <ns3:cad>0</ns3:cad>
          </ns3:TrackPointExtension>
        </extensions>
      </trkpt>
      <trkpt lat="45.32329939305782318115234375" lon="-70.94094836153090000152587890625">
        <ele>784.79998779296875</ele>
        <time>2026-08-21T17:28:56.000Z</time>
        <extensions>
          <ns3:TrackPointExtension>
            <ns3:hr>122</ns3:hr>
            <ns3:cad>0</ns3:cad>
          </ns3:TrackPointExtension>
        </extensions>
      </trkpt>
      <trkpt lat="45.32330366782844066619873046875" lon="-70.940961353480815887451171875">
        <ele>785</ele>
        <time>2026-08-21T17:28:57.000Z</time>
        <extensions>
          <ns3:TrackPointExtension>
            <ns3:hr>122</ns3:hr>
            <ns3:cad>0</ns3:cad>
          </ns3:TrackPointExtension>
        </extensions>
      </trkpt>
      <trkpt lat="45.32330635003745555877685546875" lon="-70.94097032211720943450927734375">
        <ele>785.20001220703125</ele>
        <time>2026-08-21T17:28:58.000Z</time>
        <extensions>
          <ns3:TrackPointExtension>
            <ns3:hr>122</ns3:hr>
            <ns3:cad>53</ns3:cad>
          </ns3:TrackPointExtension>
        </extensions>
      </trkpt>
      <trkpt lat="45.32330500893294811248779296875" lon="-70.9409796260297298431396484375">
        <ele>785.4000244140625</ele>
        <time>2026-08-21T17:28:59.000Z</time>
        <extensions>
          <ns3:TrackPointExtension>
            <ns3:hr>122</ns3:hr>
            <ns3:cad>53</ns3:cad>
          </ns3:TrackPointExtension>
        </extensions>
      </trkpt>
      <trkpt lat="45.32330702058970928192138671875" lon="-70.940997563302516937255859375">
        <ele>785.5999755859375</ele>
        <time>2026-08-21T17:29:00.000Z</time>
        <extensions>
          <ns3:TrackPointExtension>
            <ns3:hr>122</ns3:hr>
            <ns3:cad>50</ns3:cad>
          </ns3:TrackPointExtension>
        </extensions>
      </trkpt>
      <trkpt lat="45.32330970279872417449951171875" lon="-70.94101139344274997711181640625">
        <ele>785.79998779296875</ele>
        <time>2026-08-21T17:29:01.000Z</time>
        <extensions>
          <ns3:TrackPointExtension>
            <ns3:hr>123</ns3:hr>
            <ns3:cad>48</ns3:cad>
          </ns3:TrackPointExtension>
        </extensions>
      </trkpt>
      <trkpt lat="45.32331003807485103607177734375" lon="-70.94102614559233188629150390625">
        <ele>786.20001220703125</ele>
        <time>2026-08-21T17:29:02.000Z</time>
        <extensions>
          <ns3:TrackPointExtension>
            <ns3:hr>123</ns3:hr>
            <ns3:cad>48</ns3:cad>
          </ns3:TrackPointExtension>
        </extensions>
      </trkpt>
      <trkpt lat="45.3233094513416290283203125" lon="-70.94103637151420116424560546875">
        <ele>786.4000244140625</ele>
        <time>2026-08-21T17:29:03.000Z</time>
        <extensions>
          <ns3:TrackPointExtension>
            <ns3:hr>124</ns3:hr>
            <ns3:cad>48</ns3:cad>
          </ns3:TrackPointExtension>
        </extensions>
      </trkpt>
      <trkpt lat="45.32330718822777271270751953125" lon="-70.9410466812551021575927734375">
        <ele>786.5999755859375</ele>
        <time>2026-08-21T17:29:04.000Z</time>
        <extensions>
          <ns3:TrackPointExtension>
            <ns3:hr>125</ns3:hr>
            <ns3:cad>48</ns3:cad>
          </ns3:TrackPointExtension>
        </extensions>
      </trkpt>
      <trkpt lat="45.32330852933228015899658203125" lon="-70.9410604275763034820556640625">
        <ele>786.5999755859375</ele>
        <time>2026-08-21T17:29:05.000Z</time>
        <extensions>
          <ns3:TrackPointExtension>
            <ns3:hr>125</ns3:hr>
            <ns3:cad>47</ns3:cad>
          </ns3:TrackPointExtension>
        </extensions>
      </trkpt>
      <trkpt lat="45.3233159892261028289794921875" lon="-70.94107794575393199920654296875">
        <ele>786.79998779296875</ele>
        <time>2026-08-21T17:29:06.000Z</time>
        <extensions>
          <ns3:TrackPointExtension>
            <ns3:hr>126</ns3:hr>
            <ns3:cad>47</ns3:cad>
          </ns3:TrackPointExtension>
        </extensions>
      </trkpt>
      <trkpt lat="45.3233250416815280914306640625" lon="-70.94109420664608478546142578125">
        <ele>787</ele>
        <time>2026-08-21T17:29:07.000Z</time>
        <extensions>
          <ns3:TrackPointExtension>
            <ns3:hr>126</ns3:hr>
            <ns3:cad>47</ns3:cad>
          </ns3:TrackPointExtension>
        </extensions>
      </trkpt>
      <trkpt lat="45.32332764007151126861572265625" lon="-70.94110191799700260162353515625">
        <ele>787</ele>
        <time>2026-08-21T17:29:08.000Z</time>
        <extensions>
          <ns3:TrackPointExtension>
            <ns3:hr>126</ns3:hr>
            <ns3:cad>48</ns3:cad>
          </ns3:TrackPointExtension>
        </extensions>
      </trkpt>
      <trkpt lat="45.3233300708234310150146484375" lon="-70.94111432321369647979736328125">
        <ele>787</ele>
        <time>2026-08-21T17:29:09.000Z</time>
        <extensions>
          <ns3:TrackPointExtension>
            <ns3:hr>126</ns3:hr>
            <ns3:cad>48</ns3:cad>
          </ns3:TrackPointExtension>
        </extensions>
      </trkpt>
      <trkpt lat="45.32333426177501678466796875" lon="-70.94113108702003955841064453125">
        <ele>787.20001220703125</ele>
        <time>2026-08-21T17:29:10.000Z</time>
        <extensions>
          <ns3:TrackPointExtension>
            <ns3:hr>127</ns3:hr>
            <ns3:cad>48</ns3:cad>
          </ns3:TrackPointExtension>
        </extensions>
      </trkpt>
      <trkpt lat="45.3233354352414608001708984375" lon="-70.94114743173122406005859375">
        <ele>787.4000244140625</ele>
        <time>2026-08-21T17:29:11.000Z</time>
        <extensions>
          <ns3:TrackPointExtension>
            <ns3:hr>126</ns3:hr>
            <ns3:cad>48</ns3:cad>
          </ns3:TrackPointExtension>
        </extensions>
      </trkpt>
      <trkpt lat="45.323337614536285400390625" lon="-70.941164530813694000244140625">
        <ele>787.5999755859375</ele>
        <time>2026-08-21T17:29:12.000Z</time>
        <extensions>
          <ns3:TrackPointExtension>
            <ns3:hr>127</ns3:hr>
            <ns3:cad>47</ns3:cad>
          </ns3:TrackPointExtension>
        </extensions>
      </trkpt>
      <trkpt lat="45.32334633171558380126953125" lon="-70.94117785803973674774169921875">
        <ele>787.5999755859375</ele>
        <time>2026-08-21T17:29:13.000Z</time>
        <extensions>
          <ns3:TrackPointExtension>
            <ns3:hr>127</ns3:hr>
            <ns3:cad>47</ns3:cad>
          </ns3:TrackPointExtension>
        </extensions>
      </trkpt>
      <trkpt lat="45.3233501873910427093505859375" lon="-70.94119160436093807220458984375">
        <ele>787.79998779296875</ele>
        <time>2026-08-21T17:29:14.000Z</time>
        <extensions>
          <ns3:TrackPointExtension>
            <ns3:hr>127</ns3:hr>
            <ns3:cad>47</ns3:cad>
          </ns3:TrackPointExtension>
        </extensions>
      </trkpt>
      <trkpt lat="45.32335362397134304046630859375" lon="-70.94120970927178859710693359375">
        <ele>787.79998779296875</ele>
        <time>2026-08-21T17:29:15.000Z</time>
        <extensions>
          <ns3:TrackPointExtension>
            <ns3:hr>127</ns3:hr>
            <ns3:cad>47</ns3:cad>
          </ns3:TrackPointExtension>
        </extensions>
      </trkpt>
      <trkpt lat="45.32335831783711910247802734375" lon="-70.94122496433556079864501953125">
        <ele>788</ele>
        <time>2026-08-21T17:29:16.000Z</time>
        <extensions>
          <ns3:TrackPointExtension>
            <ns3:hr>127</ns3:hr>
            <ns3:cad>47</ns3:cad>
          </ns3:TrackPointExtension>
        </extensions>
      </trkpt>
      <trkpt lat="45.32336586154997348785400390625" lon="-70.9412444941699504852294921875">
        <ele>788.20001220703125</ele>
        <time>2026-08-21T17:29:17.000Z</time>
        <extensions>
          <ns3:TrackPointExtension>
            <ns3:hr>128</ns3:hr>
            <ns3:cad>47</ns3:cad>
          </ns3:TrackPointExtension>
        </extensions>
      </trkpt>
      <trkpt lat="45.32336737029254436492919921875" lon="-70.94126083888113498687744140625">
        <ele>788.4000244140625</ele>
        <time>2026-08-21T17:29:18.000Z</time>
        <extensions>
          <ns3:TrackPointExtension>
            <ns3:hr>128</ns3:hr>
            <ns3:cad>0</ns3:cad>
          </ns3:TrackPointExtension>
        </extensions>
      </trkpt>
      <trkpt lat="45.3233676217496395111083984375" lon="-70.9412716515362262725830078125">
        <ele>788.4000244140625</ele>
        <time>2026-08-21T17:29:19.000Z</time>
        <extensions>
          <ns3:TrackPointExtension>
            <ns3:hr>128</ns3:hr>
            <ns3:cad>0</ns3:cad>
          </ns3:TrackPointExtension>
        </extensions>
      </trkpt>
      <trkpt lat="45.32336954958736896514892578125" lon="-70.94128833152353763580322265625">
        <ele>788.5999755859375</ele>
        <time>2026-08-21T17:29:20.000Z</time>
        <extensions>
          <ns3:TrackPointExtension>
            <ns3:hr>128</ns3:hr>
            <ns3:cad>0</ns3:cad>
          </ns3:TrackPointExtension>
        </extensions>
      </trkpt>
      <trkpt lat="45.3233706392347812652587890625" lon="-70.94129872508347034454345703125">
        <ele>788.5999755859375</ele>
        <time>2026-08-21T17:29:21.000Z</time>
        <extensions>
          <ns3:TrackPointExtension>
            <ns3:hr>129</ns3:hr>
            <ns3:cad>0</ns3:cad>
          </ns3:TrackPointExtension>
        </extensions>
      </trkpt>
      <trkpt lat="45.32336938194930553436279296875" lon="-70.9413065202534198760986328125">
        <ele>788.5999755859375</ele>
        <time>2026-08-21T17:29:22.000Z</time>
        <extensions>
          <ns3:TrackPointExtension>
            <ns3:hr>129</ns3:hr>
            <ns3:cad>0</ns3:cad>
          </ns3:TrackPointExtension>
        </extensions>
      </trkpt>
      <trkpt lat="45.3233679570257663726806640625" lon="-70.94132688827812671661376953125">
        <ele>788.79998779296875</ele>
        <time>2026-08-21T17:29:23.000Z</time>
        <extensions>
          <ns3:TrackPointExtension>
            <ns3:hr>129</ns3:hr>
            <ns3:cad>0</ns3:cad>
          </ns3:TrackPointExtension>
        </extensions>
      </trkpt>
      <trkpt lat="45.323365442454814910888671875" lon="-70.94134465791285037994384765625">
        <ele>788.79998779296875</ele>
        <time>2026-08-21T17:29:24.000Z</time>
        <extensions>
          <ns3:TrackPointExtension>
            <ns3:hr>130</ns3:hr>
            <ns3:cad>0</ns3:cad>
          </ns3:TrackPointExtension>
        </extensions>
      </trkpt>
      <trkpt lat="45.32336778938770294189453125" lon="-70.94135756604373455047607421875">
        <ele>789</ele>
        <time>2026-08-21T17:29:25.000Z</time>
        <extensions>
          <ns3:TrackPointExtension>
            <ns3:hr>131</ns3:hr>
            <ns3:cad>0</ns3:cad>
          </ns3:TrackPointExtension>
        </extensions>
      </trkpt>
      <trkpt lat="45.32336904667317867279052734375" lon="-70.9413742460310459136962890625">
        <ele>789</ele>
        <time>2026-08-21T17:29:26.000Z</time>
        <extensions>
          <ns3:TrackPointExtension>
            <ns3:hr>132</ns3:hr>
            <ns3:cad>0</ns3:cad>
          </ns3:TrackPointExtension>
        </extensions>
      </trkpt>
      <trkpt lat="45.32337206415832042694091796875" lon="-70.94138681888580322265625">
        <ele>789.20001220703125</ele>
        <time>2026-08-21T17:29:27.000Z</time>
        <extensions>
          <ns3:TrackPointExtension>
            <ns3:hr>132</ns3:hr>
            <ns3:cad>0</ns3:cad>
          </ns3:TrackPointExtension>
        </extensions>
      </trkpt>
      <trkpt lat="45.32337826676666736602783203125" lon="-70.94140903092920780181884765625">
        <ele>789.4000244140625</ele>
        <time>2026-08-21T17:29:28.000Z</time>
        <extensions>
          <ns3:TrackPointExtension>
            <ns3:hr>132</ns3:hr>
            <ns3:cad>0</ns3:cad>
          </ns3:TrackPointExtension>
        </extensions>
      </trkpt>
      <trkpt lat="45.3233806975185871124267578125" lon="-70.94142177142202854156494140625">
        <ele>789.4000244140625</ele>
        <time>2026-08-21T17:29:29.000Z</time>
        <extensions>
          <ns3:TrackPointExtension>
            <ns3:hr>132</ns3:hr>
            <ns3:cad>0</ns3:cad>
          </ns3:TrackPointExtension>
        </extensions>
      </trkpt>
      <trkpt lat="45.32338715158402919769287109375" lon="-70.9414376132190227508544921875">
        <ele>789.4000244140625</ele>
        <time>2026-08-21T17:29:30.000Z</time>
        <extensions>
          <ns3:TrackPointExtension>
            <ns3:hr>132</ns3:hr>
            <ns3:cad>48</ns3:cad>
          </ns3:TrackPointExtension>
        </extensions>
      </trkpt>
      <trkpt lat="45.32339436002075672149658203125" lon="-70.9414533711969852447509765625">
        <ele>789.5999755859375</ele>
        <time>2026-08-21T17:29:31.000Z</time>
        <extensions>
          <ns3:TrackPointExtension>
            <ns3:hr>133</ns3:hr>
            <ns3:cad>48</ns3:cad>
          </ns3:TrackPointExtension>
        </extensions>
      </trkpt>
      <trkpt lat="45.32339997589588165283203125" lon="-70.9414674527943134307861328125">
        <ele>789.5999755859375</ele>
        <time>2026-08-21T17:29:32.000Z</time>
        <extensions>
          <ns3:TrackPointExtension>
            <ns3:hr>132</ns3:hr>
            <ns3:cad>48</ns3:cad>
          </ns3:TrackPointExtension>
        </extensions>
      </trkpt>
      <trkpt lat="45.32340341247618198394775390625" lon="-70.94148430041968822479248046875">
        <ele>789.79998779296875</ele>
        <time>2026-08-21T17:29:33.000Z</time>
        <extensions>
          <ns3:TrackPointExtension>
            <ns3:hr>132</ns3:hr>
            <ns3:cad>48</ns3:cad>
          </ns3:TrackPointExtension>
        </extensions>
      </trkpt>
      <trkpt lat="45.32340492121875286102294921875" lon="-70.94149821437895298004150390625">
        <ele>789.79998779296875</ele>
        <time>2026-08-21T17:29:34.000Z</time>
        <extensions>
          <ns3:TrackPointExtension>
            <ns3:hr>132</ns3:hr>
            <ns3:cad>48</ns3:cad>
          </ns3:TrackPointExtension>
        </extensions>
      </trkpt>
      <trkpt lat="45.323407016694545745849609375" lon="-70.94150944612920284271240234375">
        <ele>790</ele>
        <time>2026-08-21T17:29:35.000Z</time>
        <extensions>
          <ns3:TrackPointExtension>
            <ns3:hr>133</ns3:hr>
            <ns3:cad>46</ns3:cad>
          </ns3:TrackPointExtension>
        </extensions>
      </trkpt>
      <trkpt lat="45.3234152309596538543701171875" lon="-70.9415251202881336212158203125">
        <ele>790.20001220703125</ele>
        <time>2026-08-21T17:29:36.000Z</time>
        <extensions>
          <ns3:TrackPointExtension>
            <ns3:hr>132</ns3:hr>
            <ns3:cad>46</ns3:cad>
          </ns3:TrackPointExtension>
        </extensions>
      </trkpt>
      <trkpt lat="45.3234207630157470703125" lon="-70.941534675657749176025390625">
        <ele>790.4000244140625</ele>
        <time>2026-08-21T17:29:37.000Z</time>
        <extensions>
          <ns3:TrackPointExtension>
            <ns3:hr>132</ns3:hr>
            <ns3:cad>0</ns3:cad>
          </ns3:TrackPointExtension>
        </extensions>
      </trkpt>
      <trkpt lat="45.323420427739620208740234375" lon="-70.94155135564506053924560546875">
        <ele>790.4000244140625</ele>
        <time>2026-08-21T17:29:38.000Z</time>
        <extensions>
          <ns3:TrackPointExtension>
            <ns3:hr>133</ns3:hr>
            <ns3:cad>50</ns3:cad>
          </ns3:TrackPointExtension>
        </extensions>
      </trkpt>
      <trkpt lat="45.323427133262157440185546875" lon="-70.9415656886994838714599609375">
        <ele>790.5999755859375</ele>
        <time>2026-08-21T17:29:39.000Z</time>
        <extensions>
          <ns3:TrackPointExtension>
            <ns3:hr>132</ns3:hr>
            <ns3:cad>50</ns3:cad>
          </ns3:TrackPointExtension>
        </extensions>
      </trkpt>
      <trkpt lat="45.32343258149921894073486328125" lon="-70.9415807761251926422119140625">
        <ele>790.5999755859375</ele>
        <time>2026-08-21T17:29:40.000Z</time>
        <extensions>
          <ns3:TrackPointExtension>
            <ns3:hr>132</ns3:hr>
            <ns3:cad>46</ns3:cad>
          </ns3:TrackPointExtension>
        </extensions>
      </trkpt>
      <trkpt lat="45.32343727536499500274658203125" lon="-70.94159577973186969757080078125">
        <ele>790.5999755859375</ele>
        <time>2026-08-21T17:29:41.000Z</time>
        <extensions>
          <ns3:TrackPointExtension>
            <ns3:hr>132</ns3:hr>
            <ns3:cad>46</ns3:cad>
          </ns3:TrackPointExtension>
        </extensions>
      </trkpt>
      <trkpt lat="45.3234430588781833648681640625" lon="-70.94161153770983219146728515625">
        <ele>790.5999755859375</ele>
        <time>2026-08-21T17:29:42.000Z</time>
        <extensions>
          <ns3:TrackPointExtension>
            <ns3:hr>132</ns3:hr>
            <ns3:cad>46</ns3:cad>
          </ns3:TrackPointExtension>
        </extensions>
      </trkpt>
      <trkpt lat="45.32345504499971866607666015625" lon="-70.9416233561933040618896484375">
        <ele>790.5999755859375</ele>
        <time>2026-08-21T17:29:43.000Z</time>
        <extensions>
          <ns3:TrackPointExtension>
            <ns3:hr>133</ns3:hr>
            <ns3:cad>46</ns3:cad>
          </ns3:TrackPointExtension>
        </extensions>
      </trkpt>
      <trkpt lat="45.32346828840672969818115234375" lon="-70.94162913970649242401123046875">
        <ele>790.79998779296875</ele>
        <time>2026-08-21T17:29:44.000Z</time>
        <extensions>
          <ns3:TrackPointExtension>
            <ns3:hr>132</ns3:hr>
            <ns3:cad>46</ns3:cad>
          </ns3:TrackPointExtension>
        </extensions>
      </trkpt>
      <trkpt lat="45.32347683794796466827392578125" lon="-70.94162712804973125457763671875">
        <ele>790.79998779296875</ele>
        <time>2026-08-21T17:29:45.000Z</time>
        <extensions>
          <ns3:TrackPointExtension>
            <ns3:hr>132</ns3:hr>
            <ns3:cad>0</ns3:cad>
          </ns3:TrackPointExtension>
        </extensions>
      </trkpt>
      <trkpt lat="45.32348220236599445343017578125" lon="-70.94163064844906330108642578125">
        <ele>790.79998779296875</ele>
        <time>2026-08-21T17:29:46.000Z</time>
        <extensions>
          <ns3:TrackPointExtension>
            <ns3:hr>132</ns3:hr>
            <ns3:cad>0</ns3:cad>
          </ns3:TrackPointExtension>
        </extensions>
      </trkpt>
      <trkpt lat="45.32348806969821453094482421875" lon="-70.94163886271417140960693359375">
        <ele>791</ele>
        <time>2026-08-21T17:29:47.000Z</time>
        <extensions>
          <ns3:TrackPointExtension>
            <ns3:hr>132</ns3:hr>
            <ns3:cad>0</ns3:cad>
          </ns3:TrackPointExtension>
        </extensions>
      </trkpt>
      <trkpt lat="45.32349293120205402374267578125" lon="-70.9416488371789455413818359375">
        <ele>791</ele>
        <time>2026-08-21T17:29:48.000Z</time>
        <extensions>
          <ns3:TrackPointExtension>
            <ns3:hr>132</ns3:hr>
            <ns3:cad>0</ns3:cad>
          </ns3:TrackPointExtension>
        </extensions>
      </trkpt>
      <trkpt lat="45.32349829562008380889892578125" lon="-70.9416595660150051116943359375">
        <ele>791.20001220703125</ele>
        <time>2026-08-21T17:29:49.000Z</time>
        <extensions>
          <ns3:TrackPointExtension>
            <ns3:hr>133</ns3:hr>
            <ns3:cad>50</ns3:cad>
          </ns3:TrackPointExtension>
        </extensions>
      </trkpt>
      <trkpt lat="45.32350734807550907135009765625" lon="-70.94167339615523815155029296875">
        <ele>791.4000244140625</ele>
        <time>2026-08-21T17:29:50.000Z</time>
        <extensions>
          <ns3:TrackPointExtension>
            <ns3:hr>133</ns3:hr>
            <ns3:cad>50</ns3:cad>
          </ns3:TrackPointExtension>
        </extensions>
      </trkpt>
      <trkpt lat="45.323520340025424957275390625" lon="-70.9416880644857883453369140625">
        <ele>791.4000244140625</ele>
        <time>2026-08-21T17:29:51.000Z</time>
        <extensions>
          <ns3:TrackPointExtension>
            <ns3:hr>133</ns3:hr>
            <ns3:cad>50</ns3:cad>
          </ns3:TrackPointExtension>
        </extensions>
      </trkpt>
      <trkpt lat="45.32353341579437255859375" lon="-70.9416984580457210540771484375">
        <ele>791.4000244140625</ele>
        <time>2026-08-21T17:29:52.000Z</time>
        <extensions>
          <ns3:TrackPointExtension>
            <ns3:hr>132</ns3:hr>
            <ns3:cad>53</ns3:cad>
          </ns3:TrackPointExtension>
        </extensions>
      </trkpt>
      <trkpt lat="45.3235436417162418365478515625" lon="-70.94170373864471912384033203125">
        <ele>791.5999755859375</ele>
        <time>2026-08-21T17:29:53.000Z</time>
        <extensions>
          <ns3:TrackPointExtension>
            <ns3:hr>132</ns3:hr>
            <ns3:cad>53</ns3:cad>
          </ns3:TrackPointExtension>
        </extensions>
      </trkpt>
      <trkpt lat="45.32355395145714282989501953125" lon="-70.9417111985385417938232421875">
        <ele>791.5999755859375</ele>
        <time>2026-08-21T17:29:54.000Z</time>
        <extensions>
          <ns3:TrackPointExtension>
            <ns3:hr>132</ns3:hr>
            <ns3:cad>53</ns3:cad>
          </ns3:TrackPointExtension>
        </extensions>
      </trkpt>
      <trkpt lat="45.32356216572225093841552734375" lon="-70.94172033481299877166748046875">
        <ele>791.79998779296875</ele>
        <time>2026-08-21T17:29:55.000Z</time>
        <extensions>
          <ns3:TrackPointExtension>
            <ns3:hr>132</ns3:hr>
            <ns3:cad>53</ns3:cad>
          </ns3:TrackPointExtension>
        </extensions>
      </trkpt>
      <trkpt lat="45.32357205636799335479736328125" lon="-70.94172871671617031097412109375">
        <ele>791.79998779296875</ele>
        <time>2026-08-21T17:29:56.000Z</time>
        <extensions>
          <ns3:TrackPointExtension>
            <ns3:hr>132</ns3:hr>
            <ns3:cad>53</ns3:cad>
          </ns3:TrackPointExtension>
        </extensions>
      </trkpt>
      <trkpt lat="45.32358446158468723297119140625" lon="-70.94173441641032695770263671875">
        <ele>792</ele>
        <time>2026-08-21T17:29:57.000Z</time>
        <extensions>
          <ns3:TrackPointExtension>
            <ns3:hr>132</ns3:hr>
            <ns3:cad>53</ns3:cad>
          </ns3:TrackPointExtension>
        </extensions>
      </trkpt>
      <trkpt lat="45.32359552569687366485595703125" lon="-70.94173776917159557342529296875">
        <ele>792</ele>
        <time>2026-08-21T17:29:58.000Z</time>
        <extensions>
          <ns3:TrackPointExtension>
            <ns3:hr>133</ns3:hr>
            <ns3:cad>53</ns3:cad>
          </ns3:TrackPointExtension>
        </extensions>
      </trkpt>
      <trkpt lat="45.3236076794564723968505859375" lon="-70.9417447261512279510498046875">
        <ele>792.20001220703125</ele>
        <time>2026-08-21T17:29:59.000Z</time>
        <extensions>
          <ns3:TrackPointExtension>
            <ns3:hr>132</ns3:hr>
            <ns3:cad>50</ns3:cad>
          </ns3:TrackPointExtension>
        </extensions>
      </trkpt>
      <trkpt lat="45.3236210905015468597412109375" lon="-70.94175386242568492889404296875">
        <ele>792.20001220703125</ele>
        <time>2026-08-21T17:30:00.000Z</time>
        <extensions>
          <ns3:TrackPointExtension>
            <ns3:hr>132</ns3:hr>
            <ns3:cad>49</ns3:cad>
          </ns3:TrackPointExtension>
        </extensions>
      </trkpt>
      <trkpt lat="45.3236311487853527069091796875" lon="-70.941759310662746429443359375">
        <ele>792.20001220703125</ele>
        <time>2026-08-21T17:30:01.000Z</time>
        <extensions>
          <ns3:TrackPointExtension>
            <ns3:hr>132</ns3:hr>
            <ns3:cad>49</ns3:cad>
          </ns3:TrackPointExtension>
        </extensions>
      </trkpt>
      <trkpt lat="45.32364699058234691619873046875" lon="-70.94176727347075939178466796875">
        <ele>792.20001220703125</ele>
        <time>2026-08-21T17:30:02.000Z</time>
        <extensions>
          <ns3:TrackPointExtension>
            <ns3:hr>132</ns3:hr>
            <ns3:cad>50</ns3:cad>
          </ns3:TrackPointExtension>
        </extensions>
      </trkpt>
      <trkpt lat="45.32365872524678707122802734375" lon="-70.94177364371716976165771484375">
        <ele>792.20001220703125</ele>
        <time>2026-08-21T17:30:03.000Z</time>
        <extensions>
          <ns3:TrackPointExtension>
            <ns3:hr>131</ns3:hr>
            <ns3:cad>50</ns3:cad>
          </ns3:TrackPointExtension>
        </extensions>
      </trkpt>
      <trkpt lat="45.323671214282512664794921875" lon="-70.9417829476296901702880859375">
        <ele>792.20001220703125</ele>
        <time>2026-08-21T17:30:04.000Z</time>
        <extensions>
          <ns3:TrackPointExtension>
            <ns3:hr>131</ns3:hr>
            <ns3:cad>52</ns3:cad>
          </ns3:TrackPointExtension>
        </extensions>
      </trkpt>
      <trkpt lat="45.3236851282417774200439453125" lon="-70.941797532141208648681640625">
        <ele>792.4000244140625</ele>
        <time>2026-08-21T17:30:05.000Z</time>
        <extensions>
          <ns3:TrackPointExtension>
            <ns3:hr>131</ns3:hr>
            <ns3:cad>52</ns3:cad>
          </ns3:TrackPointExtension>
        </extensions>
      </trkpt>
      <trkpt lat="45.32369577325880527496337890625" lon="-70.94180817715823650360107421875">
        <ele>792.4000244140625</ele>
        <time>2026-08-21T17:30:06.000Z</time>
        <extensions>
          <ns3:TrackPointExtension>
            <ns3:hr>130</ns3:hr>
            <ns3:cad>52</ns3:cad>
          </ns3:TrackPointExtension>
        </extensions>
      </trkpt>
      <trkpt lat="45.32370449043810367584228515625" lon="-70.94182066619396209716796875">
        <ele>792.4000244140625</ele>
        <time>2026-08-21T17:30:07.000Z</time>
        <extensions>
          <ns3:TrackPointExtension>
            <ns3:hr>130</ns3:hr>
            <ns3:cad>51</ns3:cad>
          </ns3:TrackPointExtension>
        </extensions>
      </trkpt>
      <trkpt lat="45.3237119503319263458251953125" lon="-70.9418312273919582366943359375">
        <ele>792.4000244140625</ele>
        <time>2026-08-21T17:30:08.000Z</time>
        <extensions>
          <ns3:TrackPointExtension>
            <ns3:hr>130</ns3:hr>
            <ns3:cad>51</ns3:cad>
          </ns3:TrackPointExtension>
        </extensions>
      </trkpt>
      <trkpt lat="45.3237196616828441619873046875" lon="-70.9418422915041446685791015625">
        <ele>792.4000244140625</ele>
        <time>2026-08-21T17:30:09.000Z</time>
        <extensions>
          <ns3:TrackPointExtension>
            <ns3:hr>130</ns3:hr>
            <ns3:cad>52</ns3:cad>
          </ns3:TrackPointExtension>
        </extensions>
      </trkpt>
      <trkpt lat="45.32372226007282733917236328125" lon="-70.9418570436537265777587890625">
        <ele>792.4000244140625</ele>
        <time>2026-08-21T17:30:10.000Z</time>
        <extensions>
          <ns3:TrackPointExtension>
            <ns3:hr>130</ns3:hr>
            <ns3:cad>53</ns3:cad>
          </ns3:TrackPointExtension>
        </extensions>
      </trkpt>
      <trkpt lat="45.32372544519603252410888671875" lon="-70.9418721310794353485107421875">
        <ele>792.5999755859375</ele>
        <time>2026-08-21T17:30:11.000Z</time>
        <extensions>
          <ns3:TrackPointExtension>
            <ns3:hr>130</ns3:hr>
            <ns3:cad>53</ns3:cad>
          </ns3:TrackPointExtension>
        </extensions>
      </trkpt>
      <trkpt lat="45.32372946850955486297607421875" lon="-70.941885374486446380615234375">
        <ele>792.5999755859375</ele>
        <time>2026-08-21T17:30:12.000Z</time>
        <extensions>
          <ns3:TrackPointExtension>
            <ns3:hr>130</ns3:hr>
            <ns3:cad>53</ns3:cad>
          </ns3:TrackPointExtension>
        </extensions>
      </trkpt>
      <trkpt lat="45.32373013906180858612060546875" lon="-70.94189534895122051239013671875">
        <ele>792.5999755859375</ele>
        <time>2026-08-21T17:30:13.000Z</time>
        <extensions>
          <ns3:TrackPointExtension>
            <ns3:hr>130</ns3:hr>
            <ns3:cad>53</ns3:cad>
          </ns3:TrackPointExtension>
        </extensions>
      </trkpt>
      <trkpt lat="45.3237324021756649017333984375" lon="-70.94191194511950016021728515625">
        <ele>792.5999755859375</ele>
        <time>2026-08-21T17:30:14.000Z</time>
        <extensions>
          <ns3:TrackPointExtension>
            <ns3:hr>130</ns3:hr>
            <ns3:cad>53</ns3:cad>
          </ns3:TrackPointExtension>
        </extensions>
      </trkpt>
      <trkpt lat="45.32373852096498012542724609375" lon="-70.9419254399836063385009765625">
        <ele>792.79998779296875</ele>
        <time>2026-08-21T17:30:15.000Z</time>
        <extensions>
          <ns3:TrackPointExtension>
            <ns3:hr>131</ns3:hr>
            <ns3:cad>53</ns3:cad>
          </ns3:TrackPointExtension>
        </extensions>
      </trkpt>
      <trkpt lat="45.3237431310117244720458984375" lon="-70.9419353306293487548828125">
        <ele>792.79998779296875</ele>
        <time>2026-08-21T17:30:16.000Z</time>
        <extensions>
          <ns3:TrackPointExtension>
            <ns3:hr>131</ns3:hr>
            <ns3:cad>53</ns3:cad>
          </ns3:TrackPointExtension>
        </extensions>
      </trkpt>
      <trkpt lat="45.32374857924878597259521484375" lon="-70.94194538891315460205078125">
        <ele>793</ele>
        <time>2026-08-21T17:30:17.000Z</time>
        <extensions>
          <ns3:TrackPointExtension>
            <ns3:hr>131</ns3:hr>
            <ns3:cad>53</ns3:cad>
          </ns3:TrackPointExtension>
        </extensions>
      </trkpt>
      <trkpt lat="45.3237535245716571807861328125" lon="-70.94196022488176822662353515625">
        <ele>793</ele>
        <time>2026-08-21T17:30:18.000Z</time>
        <extensions>
          <ns3:TrackPointExtension>
            <ns3:hr>130</ns3:hr>
            <ns3:cad>53</ns3:cad>
          </ns3:TrackPointExtension>
        </extensions>
      </trkpt>
      <trkpt lat="45.32375562004745006561279296875" lon="-70.9419747255742549896240234375">
        <ele>793.20001220703125</ele>
        <time>2026-08-21T17:30:19.000Z</time>
        <extensions>
          <ns3:TrackPointExtension>
            <ns3:hr>130</ns3:hr>
            <ns3:cad>50</ns3:cad>
          </ns3:TrackPointExtension>
        </extensions>
      </trkpt>
      <trkpt lat="45.32375679351389408111572265625" lon="-70.94199257902801036834716796875">
        <ele>793.20001220703125</ele>
        <time>2026-08-21T17:30:20.000Z</time>
        <extensions>
          <ns3:TrackPointExtension>
            <ns3:hr>130</ns3:hr>
            <ns3:cad>50</ns3:cad>
          </ns3:TrackPointExtension>
        </extensions>
      </trkpt>
      <trkpt lat="45.32375629059970378875732421875" lon="-70.94200733117759227752685546875">
        <ele>793.20001220703125</ele>
        <time>2026-08-21T17:30:21.000Z</time>
        <extensions>
          <ns3:TrackPointExtension>
            <ns3:hr>130</ns3:hr>
            <ns3:cad>50</ns3:cad>
          </ns3:TrackPointExtension>
        </extensions>
      </trkpt>
      <trkpt lat="45.32375578768551349639892578125" lon="-70.9420223347842693328857421875">
        <ele>793.20001220703125</ele>
        <time>2026-08-21T17:30:22.000Z</time>
        <extensions>
          <ns3:TrackPointExtension>
            <ns3:hr>130</ns3:hr>
            <ns3:cad>51</ns3:cad>
          </ns3:TrackPointExtension>
        </extensions>
      </trkpt>
      <trkpt lat="45.32376366667449474334716796875" lon="-70.942042954266071319580078125">
        <ele>793.20001220703125</ele>
        <time>2026-08-21T17:30:23.000Z</time>
        <extensions>
          <ns3:TrackPointExtension>
            <ns3:hr>129</ns3:hr>
            <ns3:cad>51</ns3:cad>
          </ns3:TrackPointExtension>
        </extensions>
      </trkpt>
      <trkpt lat="45.3237679414451122283935546875" lon="-70.94205175526440143585205078125">
        <ele>793.4000244140625</ele>
        <time>2026-08-21T17:30:24.000Z</time>
        <extensions>
          <ns3:TrackPointExtension>
            <ns3:hr>129</ns3:hr>
            <ns3:cad>0</ns3:cad>
          </ns3:TrackPointExtension>
        </extensions>
      </trkpt>
      <trkpt lat="45.32377406023442745208740234375" lon="-70.94206885434687137603759765625">
        <ele>793.5999755859375</ele>
        <time>2026-08-21T17:30:25.000Z</time>
        <extensions>
          <ns3:TrackPointExtension>
            <ns3:hr>129</ns3:hr>
            <ns3:cad>0</ns3:cad>
          </ns3:TrackPointExtension>
        </extensions>
      </trkpt>
      <trkpt lat="45.32378026284277439117431640625" lon="-70.94208620488643646240234375">
        <ele>793.5999755859375</ele>
        <time>2026-08-21T17:30:26.000Z</time>
        <extensions>
          <ns3:TrackPointExtension>
            <ns3:hr>129</ns3:hr>
            <ns3:cad>0</ns3:cad>
          </ns3:TrackPointExtension>
        </extensions>
      </trkpt>
      <trkpt lat="45.3237843699753284454345703125" lon="-70.94210120849311351776123046875">
        <ele>793.5999755859375</ele>
        <time>2026-08-21T17:30:27.000Z</time>
        <extensions>
          <ns3:TrackPointExtension>
            <ns3:hr>128</ns3:hr>
            <ns3:cad>51</ns3:cad>
          </ns3:TrackPointExtension>
        </extensions>
      </trkpt>
      <trkpt lat="45.32379065640270709991455078125" lon="-70.9421192295849323272705078125">
        <ele>793.79998779296875</ele>
        <time>2026-08-21T17:30:28.000Z</time>
        <extensions>
          <ns3:TrackPointExtension>
            <ns3:hr>128</ns3:hr>
            <ns3:cad>51</ns3:cad>
          </ns3:TrackPointExtension>
        </extensions>
      </trkpt>
      <trkpt lat="45.3237949311733245849609375" lon="-70.9421366639435291290283203125">
        <ele>793.79998779296875</ele>
        <time>2026-08-21T17:30:29.000Z</time>
        <extensions>
          <ns3:TrackPointExtension>
            <ns3:hr>128</ns3:hr>
            <ns3:cad>51</ns3:cad>
          </ns3:TrackPointExtension>
        </extensions>
      </trkpt>
      <trkpt lat="45.32379702664911746978759765625" lon="-70.942152924835681915283203125">
        <ele>794</ele>
        <time>2026-08-21T17:30:30.000Z</time>
        <extensions>
          <ns3:TrackPointExtension>
            <ns3:hr>128</ns3:hr>
            <ns3:cad>51</ns3:cad>
          </ns3:TrackPointExtension>
        </extensions>
      </trkpt>
      <trkpt lat="45.323800630867481231689453125" lon="-70.9421651624143123626708984375">
        <ele>794.20001220703125</ele>
        <time>2026-08-21T17:30:31.000Z</time>
        <extensions>
          <ns3:TrackPointExtension>
            <ns3:hr>128</ns3:hr>
            <ns3:cad>51</ns3:cad>
          </ns3:TrackPointExtension>
        </extensions>
      </trkpt>
      <trkpt lat="45.32380507327616214752197265625" lon="-70.942179746925830841064453125">
        <ele>794.4000244140625</ele>
        <time>2026-08-21T17:30:32.000Z</time>
        <extensions>
          <ns3:TrackPointExtension>
            <ns3:hr>128</ns3:hr>
            <ns3:cad>51</ns3:cad>
          </ns3:TrackPointExtension>
        </extensions>
      </trkpt>
      <trkpt lat="45.3238081745803356170654296875" lon="-70.9421926550567150115966796875">
        <ele>794.5999755859375</ele>
        <time>2026-08-21T17:30:33.000Z</time>
        <extensions>
          <ns3:TrackPointExtension>
            <ns3:hr>128</ns3:hr>
            <ns3:cad>51</ns3:cad>
          </ns3:TrackPointExtension>
        </extensions>
      </trkpt>
      <trkpt lat="45.32381244935095310211181640625" lon="-70.9422030486166477203369140625">
        <ele>794.79998779296875</ele>
        <time>2026-08-21T17:30:34.000Z</time>
        <extensions>
          <ns3:TrackPointExtension>
            <ns3:hr>128</ns3:hr>
            <ns3:cad>49</ns3:cad>
          </ns3:TrackPointExtension>
        </extensions>
      </trkpt>
      <trkpt lat="45.32381437718868255615234375" lon="-70.942210257053375244140625">
        <ele>795</ele>
        <time>2026-08-21T17:30:35.000Z</time>
        <extensions>
          <ns3:TrackPointExtension>
            <ns3:hr>127</ns3:hr>
            <ns3:cad>49</ns3:cad>
          </ns3:TrackPointExtension>
        </extensions>
      </trkpt>
      <trkpt lat="45.32381311990320682525634765625" lon="-70.9422147832810878753662109375">
        <ele>795.20001220703125</ele>
        <time>2026-08-21T17:30:36.000Z</time>
        <extensions>
          <ns3:TrackPointExtension>
            <ns3:hr>126</ns3:hr>
            <ns3:cad>47</ns3:cad>
          </ns3:TrackPointExtension>
        </extensions>
      </trkpt>
      <trkpt lat="45.3238125331699848175048828125" lon="-70.94222140498459339141845703125">
        <ele>795.4000244140625</ele>
        <time>2026-08-21T17:30:37.000Z</time>
        <extensions>
          <ns3:TrackPointExtension>
            <ns3:hr>126</ns3:hr>
            <ns3:cad>47</ns3:cad>
          </ns3:TrackPointExtension>
        </extensions>
      </trkpt>
      <trkpt lat="45.32381161116063594818115234375" lon="-70.9422238357365131378173828125">
        <ele>795.5999755859375</ele>
        <time>2026-08-21T17:30:38.000Z</time>
        <extensions>
          <ns3:TrackPointExtension>
            <ns3:hr>126</ns3:hr>
            <ns3:cad>47</ns3:cad>
          </ns3:TrackPointExtension>
        </extensions>
      </trkpt>
      <trkpt lat="45.3238085098564624786376953125" lon="-70.94222299754619598388671875">
        <ele>795.79998779296875</ele>
        <time>2026-08-21T17:30:39.000Z</time>
        <extensions>
          <ns3:TrackPointExtension>
            <ns3:hr>126</ns3:hr>
            <ns3:cad>0</ns3:cad>
          </ns3:TrackPointExtension>
        </extensions>
      </trkpt>
      <trkpt lat="45.32380876131355762481689453125" lon="-70.9422302059829235076904296875">
        <ele>796</ele>
        <time>2026-08-21T17:30:40.000Z</time>
        <extensions>
          <ns3:TrackPointExtension>
            <ns3:hr>126</ns3:hr>
            <ns3:cad>0</ns3:cad>
          </ns3:TrackPointExtension>
        </extensions>
      </trkpt>
      <trkpt lat="45.32380926422774791717529296875" lon="-70.94223498366773128509521484375">
        <ele>796.20001220703125</ele>
        <time>2026-08-21T17:30:41.000Z</time>
        <extensions>
          <ns3:TrackPointExtension>
            <ns3:hr>126</ns3:hr>
            <ns3:cad>0</ns3:cad>
          </ns3:TrackPointExtension>
        </extensions>
      </trkpt>
      <trkpt lat="45.32380993478000164031982421875" lon="-70.9422375820577144622802734375">
        <ele>796.4000244140625</ele>
        <time>2026-08-21T17:30:42.000Z</time>
        <extensions>
          <ns3:TrackPointExtension>
            <ns3:hr>126</ns3:hr>
            <ns3:cad>0</ns3:cad>
          </ns3:TrackPointExtension>
        </extensions>
      </trkpt>
      <trkpt lat="45.3238125331699848175048828125" lon="-70.9422405995428562164306640625">
        <ele>796.5999755859375</ele>
        <time>2026-08-21T17:30:43.000Z</time>
        <extensions>
          <ns3:TrackPointExtension>
            <ns3:hr>126</ns3:hr>
            <ns3:cad>0</ns3:cad>
          </ns3:TrackPointExtension>
        </extensions>
      </trkpt>
      <trkpt lat="45.32381546683609485626220703125" lon="-70.94224336557090282440185546875">
        <ele>796.79998779296875</ele>
        <time>2026-08-21T17:30:44.000Z</time>
        <extensions>
          <ns3:TrackPointExtension>
            <ns3:hr>126</ns3:hr>
            <ns3:cad>0</ns3:cad>
          </ns3:TrackPointExtension>
        </extensions>
      </trkpt>
      <trkpt lat="45.32381580211222171783447265625" lon="-70.94224336557090282440185546875">
        <ele>797</ele>
        <time>2026-08-21T17:30:45.000Z</time>
        <extensions>
          <ns3:TrackPointExtension>
            <ns3:hr>127</ns3:hr>
            <ns3:cad>0</ns3:cad>
          </ns3:TrackPointExtension>
        </extensions>
      </trkpt>
      <trkpt lat="45.323816053569316864013671875" lon="-70.9422436170279979705810546875">
        <ele>797.20001220703125</ele>
        <time>2026-08-21T17:30:46.000Z</time>
        <extensions>
          <ns3:TrackPointExtension>
            <ns3:hr>127</ns3:hr>
            <ns3:cad>0</ns3:cad>
          </ns3:TrackPointExtension>
        </extensions>
      </trkpt>
      <trkpt lat="45.3238145448267459869384765625" lon="-70.94224847853183746337890625">
        <ele>797.4000244140625</ele>
        <time>2026-08-21T17:30:47.000Z</time>
        <extensions>
          <ns3:TrackPointExtension>
            <ns3:hr>127</ns3:hr>
            <ns3:cad>0</ns3:cad>
          </ns3:TrackPointExtension>
        </extensions>
      </trkpt>
      <trkpt lat="45.3238105215132236480712890625" lon="-70.94224588014185428619384765625">
        <ele>797.5999755859375</ele>
        <time>2026-08-21T17:30:48.000Z</time>
        <extensions>
          <ns3:TrackPointExtension>
            <ns3:hr>127</ns3:hr>
            <ns3:cad>0</ns3:cad>
          </ns3:TrackPointExtension>
        </extensions>
      </trkpt>
      <trkpt lat="45.323810018599033355712890625" lon="-70.9422546811401844024658203125">
        <ele>797.79998779296875</ele>
        <time>2026-08-21T17:30:49.000Z</time>
        <extensions>
          <ns3:TrackPointExtension>
            <ns3:hr>128</ns3:hr>
            <ns3:cad>75</ns3:cad>
          </ns3:TrackPointExtension>
        </extensions>
      </trkpt>
      <trkpt lat="45.32381144352257251739501953125" lon="-70.9422630630433559417724609375">
        <ele>798</ele>
        <time>2026-08-21T17:30:50.000Z</time>
        <extensions>
          <ns3:TrackPointExtension>
            <ns3:hr>128</ns3:hr>
            <ns3:cad>75</ns3:cad>
          </ns3:TrackPointExtension>
        </extensions>
      </trkpt>
      <trkpt lat="45.323815383017063140869140625" lon="-70.9422781504690647125244140625">
        <ele>798.20001220703125</ele>
        <time>2026-08-21T17:30:51.000Z</time>
        <extensions>
          <ns3:TrackPointExtension>
            <ns3:hr>128</ns3:hr>
            <ns3:cad>0</ns3:cad>
          </ns3:TrackPointExtension>
        </extensions>
      </trkpt>
      <trkpt lat="45.32381714321672916412353515625" lon="-70.9422858618199825286865234375">
        <ele>798.4000244140625</ele>
        <time>2026-08-21T17:30:52.000Z</time>
        <extensions>
          <ns3:TrackPointExtension>
            <ns3:hr>128</ns3:hr>
            <ns3:cad>0</ns3:cad>
          </ns3:TrackPointExtension>
        </extensions>
      </trkpt>
      <trkpt lat="45.32382049597799777984619140625" lon="-70.94229633919894695281982421875">
        <ele>798.5999755859375</ele>
        <time>2026-08-21T17:30:53.000Z</time>
        <extensions>
          <ns3:TrackPointExtension>
            <ns3:hr>128</ns3:hr>
            <ns3:cad>0</ns3:cad>
          </ns3:TrackPointExtension>
        </extensions>
      </trkpt>
      <trkpt lat="45.32382351346313953399658203125" lon="-70.94230421818792819976806640625">
        <ele>798.79998779296875</ele>
        <time>2026-08-21T17:30:54.000Z</time>
        <extensions>
          <ns3:TrackPointExtension>
            <ns3:hr>129</ns3:hr>
            <ns3:cad>0</ns3:cad>
          </ns3:TrackPointExtension>
        </extensions>
      </trkpt>
      <trkpt lat="45.32383189536631107330322265625" lon="-70.94232249073684215545654296875">
        <ele>799.20001220703125</ele>
        <time>2026-08-21T17:30:55.000Z</time>
        <extensions>
          <ns3:TrackPointExtension>
            <ns3:hr>129</ns3:hr>
            <ns3:cad>0</ns3:cad>
          </ns3:TrackPointExtension>
        </extensions>
      </trkpt>
      <trkpt lat="45.32383725978434085845947265625" lon="-70.9423351474106311798095703125">
        <ele>799.4000244140625</ele>
        <time>2026-08-21T17:30:56.000Z</time>
        <extensions>
          <ns3:TrackPointExtension>
            <ns3:hr>130</ns3:hr>
            <ns3:cad>0</ns3:cad>
          </ns3:TrackPointExtension>
        </extensions>
      </trkpt>
      <trkpt lat="45.32384480349719524383544921875" lon="-70.94234461896121501922607421875">
        <ele>799.5999755859375</ele>
        <time>2026-08-21T17:30:57.000Z</time>
        <extensions>
          <ns3:TrackPointExtension>
            <ns3:hr>130</ns3:hr>
            <ns3:cad>0</ns3:cad>
          </ns3:TrackPointExtension>
        </extensions>
      </trkpt>
      <trkpt lat="45.32385016791522502899169921875" lon="-70.9423515759408473968505859375">
        <ele>799.79998779296875</ele>
        <time>2026-08-21T17:30:58.000Z</time>
        <extensions>
          <ns3:TrackPointExtension>
            <ns3:hr>131</ns3:hr>
            <ns3:cad>0</ns3:cad>
          </ns3:TrackPointExtension>
        </extensions>
      </trkpt>
      <trkpt lat="45.32385519705712795257568359375" lon="-70.942357443273067474365234375">
        <ele>800</ele>
        <time>2026-08-21T17:30:59.000Z</time>
        <extensions>
          <ns3:TrackPointExtension>
            <ns3:hr>132</ns3:hr>
            <ns3:cad>0</ns3:cad>
          </ns3:TrackPointExtension>
        </extensions>
      </trkpt>
      <trkpt lat="45.32386441715061664581298828125" lon="-70.9423616342246532440185546875">
        <ele>800.20001220703125</ele>
        <time>2026-08-21T17:31:00.000Z</time>
        <extensions>
          <ns3:TrackPointExtension>
            <ns3:hr>133</ns3:hr>
            <ns3:cad>0</ns3:cad>
          </ns3:TrackPointExtension>
        </extensions>
      </trkpt>
      <trkpt lat="45.323872379958629608154296875" lon="-70.9423693455755710601806640625">
        <ele>800.4000244140625</ele>
        <time>2026-08-21T17:31:01.000Z</time>
        <extensions>
          <ns3:TrackPointExtension>
            <ns3:hr>134</ns3:hr>
            <ns3:cad>0</ns3:cad>
          </ns3:TrackPointExtension>
        </extensions>
      </trkpt>
      <trkpt lat="45.32388210296630859375" lon="-70.9423787333071231842041015625">
        <ele>800.5999755859375</ele>
        <time>2026-08-21T17:31:02.000Z</time>
        <extensions>
          <ns3:TrackPointExtension>
            <ns3:hr>134</ns3:hr>
            <ns3:cad>0</ns3:cad>
          </ns3:TrackPointExtension>
        </extensions>
      </trkpt>
      <trkpt lat="45.32388679683208465576171875" lon="-70.9423847682774066925048828125">
        <ele>800.79998779296875</ele>
        <time>2026-08-21T17:31:03.000Z</time>
        <extensions>
          <ns3:TrackPointExtension>
            <ns3:hr>135</ns3:hr>
            <ns3:cad>0</ns3:cad>
          </ns3:TrackPointExtension>
        </extensions>
      </trkpt>
      <trkpt lat="45.3239000402390956878662109375" lon="-70.94239340163767337799072265625">
        <ele>801</ele>
        <time>2026-08-21T17:31:04.000Z</time>
        <extensions>
          <ns3:TrackPointExtension>
            <ns3:hr>135</ns3:hr>
            <ns3:cad>0</ns3:cad>
          </ns3:TrackPointExtension>
        </extensions>
      </trkpt>
      <trkpt lat="45.32390364445745944976806640625" lon="-70.94239591620862483978271484375">
        <ele>801.20001220703125</ele>
        <time>2026-08-21T17:31:05.000Z</time>
        <extensions>
          <ns3:TrackPointExtension>
            <ns3:hr>136</ns3:hr>
            <ns3:cad>0</ns3:cad>
          </ns3:TrackPointExtension>
        </extensions>
      </trkpt>
      <trkpt lat="45.323905907571315765380859375" lon="-70.94239725731313228607177734375">
        <ele>801.4000244140625</ele>
        <time>2026-08-21T17:31:06.000Z</time>
        <extensions>
          <ns3:TrackPointExtension>
            <ns3:hr>136</ns3:hr>
            <ns3:cad>0</ns3:cad>
          </ns3:TrackPointExtension>
        </extensions>
      </trkpt>
      <trkpt lat="45.3239107690751552581787109375" lon="-70.94240077771246433258056640625">
        <ele>801.5999755859375</ele>
        <time>2026-08-21T17:31:07.000Z</time>
        <extensions>
          <ns3:TrackPointExtension>
            <ns3:hr>136</ns3:hr>
            <ns3:cad>0</ns3:cad>
          </ns3:TrackPointExtension>
        </extensions>
      </trkpt>
      <trkpt lat="45.323913954198360443115234375" lon="-70.94240312464535236358642578125">
        <ele>801.79998779296875</ele>
        <time>2026-08-21T17:31:08.000Z</time>
        <extensions>
          <ns3:TrackPointExtension>
            <ns3:hr>136</ns3:hr>
            <ns3:cad>0</ns3:cad>
          </ns3:TrackPointExtension>
        </extensions>
      </trkpt>
      <trkpt lat="45.32391889952123165130615234375" lon="-70.94240530394017696380615234375">
        <ele>802</ele>
        <time>2026-08-21T17:31:09.000Z</time>
        <extensions>
          <ns3:TrackPointExtension>
            <ns3:hr>135</ns3:hr>
            <ns3:cad>0</ns3:cad>
          </ns3:TrackPointExtension>
        </extensions>
      </trkpt>
      <trkpt lat="45.32392309047281742095947265625" lon="-70.94240815378725528717041015625">
        <ele>802.20001220703125</ele>
        <time>2026-08-21T17:31:10.000Z</time>
        <extensions>
          <ns3:TrackPointExtension>
            <ns3:hr>136</ns3:hr>
            <ns3:cad>0</ns3:cad>
          </ns3:TrackPointExtension>
        </extensions>
      </trkpt>
      <trkpt lat="45.32392275519669055938720703125" lon="-70.94240698032081127166748046875">
        <ele>802.4000244140625</ele>
        <time>2026-08-21T17:31:11.000Z</time>
        <extensions>
          <ns3:TrackPointExtension>
            <ns3:hr>136</ns3:hr>
            <ns3:cad>0</ns3:cad>
          </ns3:TrackPointExtension>
        </extensions>
      </trkpt>
      <trkpt lat="45.32392300665378570556640625" lon="-70.9424092434346675872802734375">
        <ele>802.5999755859375</ele>
        <time>2026-08-21T17:31:12.000Z</time>
        <extensions>
          <ns3:TrackPointExtension>
            <ns3:hr>136</ns3:hr>
            <ns3:cad>0</ns3:cad>
          </ns3:TrackPointExtension>
        </extensions>
      </trkpt>
      <trkpt lat="45.32392007298767566680908203125" lon="-70.94240446574985980987548828125">
        <ele>802.79998779296875</ele>
        <time>2026-08-21T17:31:13.000Z</time>
        <extensions>
          <ns3:TrackPointExtension>
            <ns3:hr>136</ns3:hr>
            <ns3:cad>0</ns3:cad>
          </ns3:TrackPointExtension>
        </extensions>
      </trkpt>
      <trkpt lat="45.32391806133091449737548828125" lon="-70.94240429811179637908935546875">
        <ele>802.79998779296875</ele>
        <time>2026-08-21T17:31:14.000Z</time>
        <extensions>
          <ns3:TrackPointExtension>
            <ns3:hr>136</ns3:hr>
            <ns3:cad>0</ns3:cad>
          </ns3:TrackPointExtension>
        </extensions>
      </trkpt>
      <trkpt lat="45.32391965389251708984375" lon="-70.9424099139869213104248046875">
        <ele>803</ele>
        <time>2026-08-21T17:31:15.000Z</time>
        <extensions>
          <ns3:TrackPointExtension>
            <ns3:hr>136</ns3:hr>
            <ns3:cad>0</ns3:cad>
          </ns3:TrackPointExtension>
        </extensions>
      </trkpt>
      <trkpt lat="45.3239183127880096435546875" lon="-70.9424125961959362030029296875">
        <ele>803.20001220703125</ele>
        <time>2026-08-21T17:31:16.000Z</time>
        <extensions>
          <ns3:TrackPointExtension>
            <ns3:hr>136</ns3:hr>
            <ns3:cad>0</ns3:cad>
          </ns3:TrackPointExtension>
        </extensions>
      </trkpt>
      <trkpt lat="45.32391898334026336669921875" lon="-70.9424181282520294189453125">
        <ele>803.4000244140625</ele>
        <time>2026-08-21T17:31:17.000Z</time>
        <extensions>
          <ns3:TrackPointExtension>
            <ns3:hr>136</ns3:hr>
            <ns3:cad>0</ns3:cad>
          </ns3:TrackPointExtension>
        </extensions>
      </trkpt>
      <trkpt lat="45.3239214979112148284912109375" lon="-70.9424256719648838043212890625">
        <ele>803.5999755859375</ele>
        <time>2026-08-21T17:31:18.000Z</time>
        <extensions>
          <ns3:TrackPointExtension>
            <ns3:hr>136</ns3:hr>
            <ns3:cad>0</ns3:cad>
          </ns3:TrackPointExtension>
        </extensions>
      </trkpt>
      <trkpt lat="45.32392158173024654388427734375" lon="-70.942427851259708404541015625">
        <ele>803.79998779296875</ele>
        <time>2026-08-21T17:31:19.000Z</time>
        <extensions>
          <ns3:TrackPointExtension>
            <ns3:hr>136</ns3:hr>
            <ns3:cad>0</ns3:cad>
          </ns3:TrackPointExtension>
        </extensions>
      </trkpt>
      <trkpt lat="45.3239261917769908905029296875" lon="-70.94243212603032588958740234375">
        <ele>804</ele>
        <time>2026-08-21T17:31:20.000Z</time>
        <extensions>
          <ns3:TrackPointExtension>
            <ns3:hr>136</ns3:hr>
            <ns3:cad>0</ns3:cad>
          </ns3:TrackPointExtension>
        </extensions>
      </trkpt>
      <trkpt lat="45.3239271976053714752197265625" lon="-70.942439921200275421142578125">
        <ele>804.20001220703125</ele>
        <time>2026-08-21T17:31:21.000Z</time>
        <extensions>
          <ns3:TrackPointExtension>
            <ns3:hr>136</ns3:hr>
            <ns3:cad>0</ns3:cad>
          </ns3:TrackPointExtension>
        </extensions>
      </trkpt>
      <trkpt lat="45.32392895780503749847412109375" lon="-70.9424484707415103912353515625">
        <ele>804.20001220703125</ele>
        <time>2026-08-21T17:31:22.000Z</time>
        <extensions>
          <ns3:TrackPointExtension>
            <ns3:hr>136</ns3:hr>
            <ns3:cad>0</ns3:cad>
          </ns3:TrackPointExtension>
        </extensions>
      </trkpt>
      <trkpt lat="45.323932059109210968017578125" lon="-70.94245039857923984527587890625">
        <ele>804.4000244140625</ele>
        <time>2026-08-21T17:31:23.000Z</time>
        <extensions>
          <ns3:TrackPointExtension>
            <ns3:hr>136</ns3:hr>
            <ns3:cad>0</ns3:cad>
          </ns3:TrackPointExtension>
        </extensions>
      </trkpt>
      <trkpt lat="45.32393599860370159149169921875" lon="-70.94245743937790393829345703125">
        <ele>804.5999755859375</ele>
        <time>2026-08-21T17:31:24.000Z</time>
        <extensions>
          <ns3:TrackPointExtension>
            <ns3:hr>137</ns3:hr>
            <ns3:cad>0</ns3:cad>
          </ns3:TrackPointExtension>
        </extensions>
      </trkpt>
      <trkpt lat="45.3239352442324161529541015625" lon="-70.9424645639955997467041015625">
        <ele>804.79998779296875</ele>
        <time>2026-08-21T17:31:25.000Z</time>
        <extensions>
          <ns3:TrackPointExtension>
            <ns3:hr>137</ns3:hr>
            <ns3:cad>0</ns3:cad>
          </ns3:TrackPointExtension>
        </extensions>
      </trkpt>
      <trkpt lat="45.3239375911653041839599609375" lon="-70.94246934168040752410888671875">
        <ele>805</ele>
        <time>2026-08-21T17:31:26.000Z</time>
        <extensions>
          <ns3:TrackPointExtension>
            <ns3:hr>138</ns3:hr>
            <ns3:cad>66</ns3:cad>
          </ns3:TrackPointExtension>
        </extensions>
      </trkpt>
      <trkpt lat="45.32394220121204853057861328125" lon="-70.94248258508741855621337890625">
        <ele>805.20001220703125</ele>
        <time>2026-08-21T17:31:27.000Z</time>
        <extensions>
          <ns3:TrackPointExtension>
            <ns3:hr>138</ns3:hr>
            <ns3:cad>66</ns3:cad>
          </ns3:TrackPointExtension>
        </extensions>
      </trkpt>
      <trkpt lat="45.323943458497524261474609375" lon="-70.942494235932826995849609375">
        <ele>805.20001220703125</ele>
        <time>2026-08-21T17:31:28.000Z</time>
        <extensions>
          <ns3:TrackPointExtension>
            <ns3:hr>138</ns3:hr>
            <ns3:cad>66</ns3:cad>
          </ns3:TrackPointExtension>
        </extensions>
      </trkpt>
      <trkpt lat="45.32394471578299999237060546875" lon="-70.9424980916082859039306640625">
        <ele>805.4000244140625</ele>
        <time>2026-08-21T17:31:29.000Z</time>
        <extensions>
          <ns3:TrackPointExtension>
            <ns3:hr>138</ns3:hr>
            <ns3:cad>66</ns3:cad>
          </ns3:TrackPointExtension>
        </extensions>
      </trkpt>
      <trkpt lat="45.3239466436207294464111328125" lon="-70.94250488094985485076904296875">
        <ele>805.5999755859375</ele>
        <time>2026-08-21T17:31:30.000Z</time>
        <extensions>
          <ns3:TrackPointExtension>
            <ns3:hr>139</ns3:hr>
            <ns3:cad>66</ns3:cad>
          </ns3:TrackPointExtension>
        </extensions>
      </trkpt>
      <trkpt lat="45.32394714653491973876953125" lon="-70.942513011395931243896484375">
        <ele>805.79998779296875</ele>
        <time>2026-08-21T17:31:31.000Z</time>
        <extensions>
          <ns3:TrackPointExtension>
            <ns3:hr>139</ns3:hr>
            <ns3:cad>0</ns3:cad>
          </ns3:TrackPointExtension>
        </extensions>
      </trkpt>
      <trkpt lat="45.323946475982666015625" lon="-70.9425175376236438751220703125">
        <ele>806.20001220703125</ele>
        <time>2026-08-21T17:31:32.000Z</time>
        <extensions>
          <ns3:TrackPointExtension>
            <ns3:hr>140</ns3:hr>
            <ns3:cad>0</ns3:cad>
          </ns3:TrackPointExtension>
        </extensions>
      </trkpt>
      <trkpt lat="45.32394790090620517730712890625" lon="-70.9425131790339946746826171875">
        <ele>806.4000244140625</ele>
        <time>2026-08-21T17:31:33.000Z</time>
        <extensions>
          <ns3:TrackPointExtension>
            <ns3:hr>140</ns3:hr>
            <ns3:cad>0</ns3:cad>
          </ns3:TrackPointExtension>
        </extensions>
      </trkpt>
      <trkpt lat="45.323946140706539154052734375" lon="-70.94252030365169048309326171875">
        <ele>806.79998779296875</ele>
        <time>2026-08-21T17:31:34.000Z</time>
        <extensions>
          <ns3:TrackPointExtension>
            <ns3:hr>140</ns3:hr>
            <ns3:cad>0</ns3:cad>
          </ns3:TrackPointExtension>
        </extensions>
      </trkpt>
      <trkpt lat="45.32394337467849254608154296875" lon="-70.94253002665936946868896484375">
        <ele>807</ele>
        <time>2026-08-21T17:31:35.000Z</time>
        <extensions>
          <ns3:TrackPointExtension>
            <ns3:hr>141</ns3:hr>
            <ns3:cad>0</ns3:cad>
          </ns3:TrackPointExtension>
        </extensions>
      </trkpt>
      <trkpt lat="45.32394186593592166900634765625" lon="-70.9425349719822406768798828125">
        <ele>807</ele>
        <time>2026-08-21T17:31:36.000Z</time>
        <extensions>
          <ns3:TrackPointExtension>
            <ns3:hr>141</ns3:hr>
            <ns3:cad>0</ns3:cad>
          </ns3:TrackPointExtension>
        </extensions>
      </trkpt>
      <trkpt lat="45.32393968664109706878662109375" lon="-70.9425436891615390777587890625">
        <ele>807.20001220703125</ele>
        <time>2026-08-21T17:31:37.000Z</time>
        <extensions>
          <ns3:TrackPointExtension>
            <ns3:hr>141</ns3:hr>
            <ns3:cad>0</ns3:cad>
          </ns3:TrackPointExtension>
        </extensions>
      </trkpt>
      <trkpt lat="45.32393616624176502227783203125" lon="-70.94255181960761547088623046875">
        <ele>807.4000244140625</ele>
        <time>2026-08-21T17:31:38.000Z</time>
        <extensions>
          <ns3:TrackPointExtension>
            <ns3:hr>142</ns3:hr>
            <ns3:cad>0</ns3:cad>
          </ns3:TrackPointExtension>
        </extensions>
      </trkpt>
      <trkpt lat="45.3239352442324161529541015625" lon="-70.94255332835018634796142578125">
        <ele>807.5999755859375</ele>
        <time>2026-08-21T17:31:39.000Z</time>
        <extensions>
          <ns3:TrackPointExtension>
            <ns3:hr>142</ns3:hr>
            <ns3:cad>0</ns3:cad>
          </ns3:TrackPointExtension>
        </extensions>
      </trkpt>
      <trkpt lat="45.3239305503666400909423828125" lon="-70.94256640411913394927978515625">
        <ele>807.79998779296875</ele>
        <time>2026-08-21T17:31:40.000Z</time>
        <extensions>
          <ns3:TrackPointExtension>
            <ns3:hr>142</ns3:hr>
            <ns3:cad>0</ns3:cad>
          </ns3:TrackPointExtension>
        </extensions>
      </trkpt>
      <trkpt lat="45.3239290416240692138671875" lon="-70.942574702203273773193359375">
        <ele>808.20001220703125</ele>
        <time>2026-08-21T17:31:41.000Z</time>
        <extensions>
          <ns3:TrackPointExtension>
            <ns3:hr>142</ns3:hr>
            <ns3:cad>40</ns3:cad>
          </ns3:TrackPointExtension>
        </extensions>
      </trkpt>
      <trkpt lat="45.323930047452449798583984375" lon="-70.94258509576320648193359375">
        <ele>808.4000244140625</ele>
        <time>2026-08-21T17:31:42.000Z</time>
        <extensions>
          <ns3:TrackPointExtension>
            <ns3:hr>143</ns3:hr>
            <ns3:cad>40</ns3:cad>
          </ns3:TrackPointExtension>
        </extensions>
      </trkpt>
      <trkpt lat="45.32393063418567180633544921875" lon="-70.94260076992213726043701171875">
        <ele>808.5999755859375</ele>
        <time>2026-08-21T17:31:43.000Z</time>
        <extensions>
          <ns3:TrackPointExtension>
            <ns3:hr>143</ns3:hr>
            <ns3:cad>0</ns3:cad>
          </ns3:TrackPointExtension>
        </extensions>
      </trkpt>
      <trkpt lat="45.32393038272857666015625" lon="-70.94260613434016704559326171875">
        <ele>808.79998779296875</ele>
        <time>2026-08-21T17:31:44.000Z</time>
        <extensions>
          <ns3:TrackPointExtension>
            <ns3:hr>143</ns3:hr>
            <ns3:cad>0</ns3:cad>
          </ns3:TrackPointExtension>
        </extensions>
      </trkpt>
      <trkpt lat="45.32393013127148151397705078125" lon="-70.9426087327301502227783203125">
        <ele>809.20001220703125</ele>
        <time>2026-08-21T17:31:45.000Z</time>
        <extensions>
          <ns3:TrackPointExtension>
            <ns3:hr>143</ns3:hr>
            <ns3:cad>0</ns3:cad>
          </ns3:TrackPointExtension>
        </extensions>
      </trkpt>
      <trkpt lat="45.3239339031279087066650390625" lon="-70.94262004829943180084228515625">
        <ele>809.4000244140625</ele>
        <time>2026-08-21T17:31:46.000Z</time>
        <extensions>
          <ns3:TrackPointExtension>
            <ns3:hr>144</ns3:hr>
            <ns3:cad>0</ns3:cad>
          </ns3:TrackPointExtension>
        </extensions>
      </trkpt>
      <trkpt lat="45.32393465749919414520263671875" lon="-70.94261988066136837005615234375">
        <ele>809.5999755859375</ele>
        <time>2026-08-21T17:31:47.000Z</time>
        <extensions>
          <ns3:TrackPointExtension>
            <ns3:hr>144</ns3:hr>
            <ns3:cad>0</ns3:cad>
          </ns3:TrackPointExtension>
        </extensions>
      </trkpt>
      <trkpt lat="45.32393909990787506103515625" lon="-70.9426315315067768096923828125">
        <ele>809.79998779296875</ele>
        <time>2026-08-21T17:31:48.000Z</time>
        <extensions>
          <ns3:TrackPointExtension>
            <ns3:hr>144</ns3:hr>
            <ns3:cad>0</ns3:cad>
          </ns3:TrackPointExtension>
        </extensions>
      </trkpt>
      <trkpt lat="45.3239397704601287841796875" lon="-70.9426328726112842559814453125">
        <ele>810</ele>
        <time>2026-08-21T17:31:49.000Z</time>
        <extensions>
          <ns3:TrackPointExtension>
            <ns3:hr>145</ns3:hr>
            <ns3:cad>0</ns3:cad>
          </ns3:TrackPointExtension>
        </extensions>
      </trkpt>
      <trkpt lat="45.32394186593592166900634765625" lon="-70.94263731501996517181396484375">
        <ele>810.20001220703125</ele>
        <time>2026-08-21T17:31:50.000Z</time>
        <extensions>
          <ns3:TrackPointExtension>
            <ns3:hr>145</ns3:hr>
            <ns3:cad>0</ns3:cad>
          </ns3:TrackPointExtension>
        </extensions>
      </trkpt>
      <trkpt lat="45.32394186593592166900634765625" lon="-70.94264502637088298797607421875">
        <ele>810.4000244140625</ele>
        <time>2026-08-21T17:31:51.000Z</time>
        <extensions>
          <ns3:TrackPointExtension>
            <ns3:hr>145</ns3:hr>
            <ns3:cad>0</ns3:cad>
          </ns3:TrackPointExtension>
        </extensions>
      </trkpt>
      <trkpt lat="45.32394446432590484619140625" lon="-70.9426469542086124420166015625">
        <ele>810.5999755859375</ele>
        <time>2026-08-21T17:31:52.000Z</time>
        <extensions>
          <ns3:TrackPointExtension>
            <ns3:hr>145</ns3:hr>
            <ns3:cad>0</ns3:cad>
          </ns3:TrackPointExtension>
        </extensions>
      </trkpt>
      <trkpt lat="45.32394404523074626922607421875" lon="-70.942652486264705657958984375">
        <ele>810.79998779296875</ele>
        <time>2026-08-21T17:31:53.000Z</time>
        <extensions>
          <ns3:TrackPointExtension>
            <ns3:hr>145</ns3:hr>
            <ns3:cad>0</ns3:cad>
          </ns3:TrackPointExtension>
        </extensions>
      </trkpt>
      <trkpt lat="45.3239436261355876922607421875" lon="-70.94265575520694255828857421875">
        <ele>811</ele>
        <time>2026-08-21T17:31:54.000Z</time>
        <extensions>
          <ns3:TrackPointExtension>
            <ns3:hr>145</ns3:hr>
            <ns3:cad>0</ns3:cad>
          </ns3:TrackPointExtension>
        </extensions>
      </trkpt>
      <trkpt lat="45.3239406086504459381103515625" lon="-70.9426620416343212127685546875">
        <ele>811.20001220703125</ele>
        <time>2026-08-21T17:31:55.000Z</time>
        <extensions>
          <ns3:TrackPointExtension>
            <ns3:hr>145</ns3:hr>
            <ns3:cad>0</ns3:cad>
          </ns3:TrackPointExtension>
        </extensions>
      </trkpt>
      <trkpt lat="45.32393717207014560699462890625" lon="-70.9426734410226345062255859375">
        <ele>811.4000244140625</ele>
        <time>2026-08-21T17:31:56.000Z</time>
        <extensions>
          <ns3:TrackPointExtension>
            <ns3:hr>145</ns3:hr>
            <ns3:cad>0</ns3:cad>
          </ns3:TrackPointExtension>
        </extensions>
      </trkpt>
      <trkpt lat="45.323934070765972137451171875" lon="-70.94267637468874454498291015625">
        <ele>811.5999755859375</ele>
        <time>2026-08-21T17:31:57.000Z</time>
        <extensions>
          <ns3:TrackPointExtension>
            <ns3:hr>145</ns3:hr>
            <ns3:cad>0</ns3:cad>
          </ns3:TrackPointExtension>
        </extensions>
      </trkpt>
      <trkpt lat="45.3239308856427669525146484375" lon="-70.9426848404109477996826171875">
        <ele>811.79998779296875</ele>
        <time>2026-08-21T17:31:58.000Z</time>
        <extensions>
          <ns3:TrackPointExtension>
            <ns3:hr>145</ns3:hr>
            <ns3:cad>0</ns3:cad>
          </ns3:TrackPointExtension>
        </extensions>
      </trkpt>
      <trkpt lat="45.32392879016697406768798828125" lon="-70.94269112683832645416259765625">
        <ele>812</ele>
        <time>2026-08-21T17:31:59.000Z</time>
        <extensions>
          <ns3:TrackPointExtension>
            <ns3:hr>145</ns3:hr>
            <ns3:cad>0</ns3:cad>
          </ns3:TrackPointExtension>
        </extensions>
      </trkpt>
      <trkpt lat="45.32392560504376888275146484375" lon="-70.94270252622663974761962890625">
        <ele>812.20001220703125</ele>
        <time>2026-08-21T17:32:00.000Z</time>
        <extensions>
          <ns3:TrackPointExtension>
            <ns3:hr>146</ns3:hr>
            <ns3:cad>0</ns3:cad>
          </ns3:TrackPointExtension>
        </extensions>
      </trkpt>
      <trkpt lat="45.3239208273589611053466796875" lon="-70.9427106566727161407470703125">
        <ele>812.4000244140625</ele>
        <time>2026-08-21T17:32:01.000Z</time>
        <extensions>
          <ns3:TrackPointExtension>
            <ns3:hr>146</ns3:hr>
            <ns3:cad>0</ns3:cad>
          </ns3:TrackPointExtension>
        </extensions>
      </trkpt>
      <trkpt lat="45.3239184804260730743408203125" lon="-70.94271518290042877197265625">
        <ele>812.4000244140625</ele>
        <time>2026-08-21T17:32:02.000Z</time>
        <extensions>
          <ns3:TrackPointExtension>
            <ns3:hr>146</ns3:hr>
            <ns3:cad>0</ns3:cad>
          </ns3:TrackPointExtension>
        </extensions>
      </trkpt>
      <trkpt lat="45.32391361892223358154296875" lon="-70.94271878711879253387451171875">
        <ele>812.5999755859375</ele>
        <time>2026-08-21T17:32:03.000Z</time>
        <extensions>
          <ns3:TrackPointExtension>
            <ns3:hr>145</ns3:hr>
            <ns3:cad>0</ns3:cad>
          </ns3:TrackPointExtension>
        </extensions>
      </trkpt>
      <trkpt lat="45.32390733249485492706298828125" lon="-70.9427237324416637420654296875">
        <ele>812.79998779296875</ele>
        <time>2026-08-21T17:32:04.000Z</time>
        <extensions>
          <ns3:TrackPointExtension>
            <ns3:hr>145</ns3:hr>
            <ns3:cad>0</ns3:cad>
          </ns3:TrackPointExtension>
        </extensions>
      </trkpt>
      <trkpt lat="45.3239027224481105804443359375" lon="-70.942730605602264404296875">
        <ele>813</ele>
        <time>2026-08-21T17:32:05.000Z</time>
        <extensions>
          <ns3:TrackPointExtension>
            <ns3:hr>144</ns3:hr>
            <ns3:cad>0</ns3:cad>
          </ns3:TrackPointExtension>
        </extensions>
      </trkpt>
      <trkpt lat="45.32389744184911251068115234375" lon="-70.94273974187672138214111328125">
        <ele>813.20001220703125</ele>
        <time>2026-08-21T17:32:06.000Z</time>
        <extensions>
          <ns3:TrackPointExtension>
            <ns3:hr>144</ns3:hr>
            <ns3:cad>0</ns3:cad>
          </ns3:TrackPointExtension>
        </extensions>
      </trkpt>
      <trkpt lat="45.32389107160270214080810546875" lon="-70.9427488781511783599853515625">
        <ele>813.20001220703125</ele>
        <time>2026-08-21T17:32:07.000Z</time>
        <extensions>
          <ns3:TrackPointExtension>
            <ns3:hr>144</ns3:hr>
            <ns3:cad>0</ns3:cad>
          </ns3:TrackPointExtension>
        </extensions>
      </trkpt>
      <trkpt lat="45.32388822175562381744384765625" lon="-70.9427596069872379302978515625">
        <ele>813.4000244140625</ele>
        <time>2026-08-21T17:32:08.000Z</time>
        <extensions>
          <ns3:TrackPointExtension>
            <ns3:hr>144</ns3:hr>
            <ns3:cad>0</ns3:cad>
          </ns3:TrackPointExtension>
        </extensions>
      </trkpt>
      <trkpt lat="45.32388872466981410980224609375" lon="-70.94276170246303081512451171875">
        <ele>813.79998779296875</ele>
        <time>2026-08-21T17:32:09.000Z</time>
        <extensions>
          <ns3:TrackPointExtension>
            <ns3:hr>144</ns3:hr>
            <ns3:cad>0</ns3:cad>
          </ns3:TrackPointExtension>
        </extensions>
      </trkpt>
      <trkpt lat="45.32388746738433837890625" lon="-70.94277310185134410858154296875">
        <ele>814</ele>
        <time>2026-08-21T17:32:10.000Z</time>
        <extensions>
          <ns3:TrackPointExtension>
            <ns3:hr>144</ns3:hr>
            <ns3:cad>0</ns3:cad>
          </ns3:TrackPointExtension>
        </extensions>
      </trkpt>
      <trkpt lat="45.32388604246079921722412109375" lon="-70.94278533942997455596923828125">
        <ele>814.20001220703125</ele>
        <time>2026-08-21T17:32:11.000Z</time>
        <extensions>
          <ns3:TrackPointExtension>
            <ns3:hr>145</ns3:hr>
            <ns3:cad>0</ns3:cad>
          </ns3:TrackPointExtension>
        </extensions>
      </trkpt>
      <trkpt lat="45.32388545572757720947265625" lon="-70.94280160032212734222412109375">
        <ele>814.4000244140625</ele>
        <time>2026-08-21T17:32:12.000Z</time>
        <extensions>
          <ns3:TrackPointExtension>
            <ns3:hr>145</ns3:hr>
            <ns3:cad>0</ns3:cad>
          </ns3:TrackPointExtension>
        </extensions>
      </trkpt>
      <trkpt lat="45.32388688065111637115478515625" lon="-70.9428129158914089202880859375">
        <ele>814.79998779296875</ele>
        <time>2026-08-21T17:32:13.000Z</time>
        <extensions>
          <ns3:TrackPointExtension>
            <ns3:hr>145</ns3:hr>
            <ns3:cad>0</ns3:cad>
          </ns3:TrackPointExtension>
        </extensions>
      </trkpt>
      <trkpt lat="45.3238886408507823944091796875" lon="-70.9428226388990879058837890625">
        <ele>815</ele>
        <time>2026-08-21T17:32:14.000Z</time>
        <extensions>
          <ns3:TrackPointExtension>
            <ns3:hr>145</ns3:hr>
            <ns3:cad>0</ns3:cad>
          </ns3:TrackPointExtension>
        </extensions>
      </trkpt>
      <trkpt lat="45.32388973049819469451904296875" lon="-70.9428298473358154296875">
        <ele>815.20001220703125</ele>
        <time>2026-08-21T17:32:15.000Z</time>
        <extensions>
          <ns3:TrackPointExtension>
            <ns3:hr>144</ns3:hr>
            <ns3:cad>0</ns3:cad>
          </ns3:TrackPointExtension>
        </extensions>
      </trkpt>
      <trkpt lat="45.323894508183002471923828125" lon="-70.9428434260189533233642578125">
        <ele>815.4000244140625</ele>
        <time>2026-08-21T17:32:16.000Z</time>
        <extensions>
          <ns3:TrackPointExtension>
            <ns3:hr>145</ns3:hr>
            <ns3:cad>0</ns3:cad>
          </ns3:TrackPointExtension>
        </extensions>
      </trkpt>
      <trkpt lat="45.32389509491622447967529296875" lon="-70.94285063445568084716796875">
        <ele>815.5999755859375</ele>
        <time>2026-08-21T17:32:17.000Z</time>
        <extensions>
          <ns3:TrackPointExtension>
            <ns3:hr>144</ns3:hr>
            <ns3:cad>0</ns3:cad>
          </ns3:TrackPointExtension>
        </extensions>
      </trkpt>
      <trkpt lat="45.32389643602073192596435546875" lon="-70.9428534843027591705322265625">
        <ele>815.79998779296875</ele>
        <time>2026-08-21T17:32:18.000Z</time>
        <extensions>
          <ns3:TrackPointExtension>
            <ns3:hr>144</ns3:hr>
            <ns3:cad>0</ns3:cad>
          </ns3:TrackPointExtension>
        </extensions>
      </trkpt>
      <trkpt lat="45.3239027224481105804443359375" lon="-70.94286530278623104095458984375">
        <ele>816.20001220703125</ele>
        <time>2026-08-21T17:32:19.000Z</time>
        <extensions>
          <ns3:TrackPointExtension>
            <ns3:hr>143</ns3:hr>
            <ns3:cad>0</ns3:cad>
          </ns3:TrackPointExtension>
        </extensions>
      </trkpt>
      <trkpt lat="45.3239022195339202880859375" lon="-70.9428638778626918792724609375">
        <ele>816.4000244140625</ele>
        <time>2026-08-21T17:32:20.000Z</time>
        <extensions>
          <ns3:TrackPointExtension>
            <ns3:hr>144</ns3:hr>
            <ns3:cad>0</ns3:cad>
          </ns3:TrackPointExtension>
        </extensions>
      </trkpt>
      <trkpt lat="45.3239057399332523345947265625" lon="-70.94287117011845111846923828125">
        <ele>816.5999755859375</ele>
        <time>2026-08-21T17:32:21.000Z</time>
        <extensions>
          <ns3:TrackPointExtension>
            <ns3:hr>144</ns3:hr>
            <ns3:cad>0</ns3:cad>
          </ns3:TrackPointExtension>
        </extensions>
      </trkpt>
      <trkpt lat="45.32391361892223358154296875" lon="-70.942881815135478973388671875">
        <ele>816.79998779296875</ele>
        <time>2026-08-21T17:32:22.000Z</time>
        <extensions>
          <ns3:TrackPointExtension>
            <ns3:hr>144</ns3:hr>
            <ns3:cad>0</ns3:cad>
          </ns3:TrackPointExtension>
        </extensions>
      </trkpt>
      <trkpt lat="45.32391655258834362030029296875" lon="-70.942887850105762481689453125">
        <ele>817</ele>
        <time>2026-08-21T17:32:23.000Z</time>
        <extensions>
          <ns3:TrackPointExtension>
            <ns3:hr>144</ns3:hr>
            <ns3:cad>0</ns3:cad>
          </ns3:TrackPointExtension>
        </extensions>
      </trkpt>
      <trkpt lat="45.32391588203608989715576171875" lon="-70.94289832748472690582275390625">
        <ele>817.20001220703125</ele>
        <time>2026-08-21T17:32:24.000Z</time>
        <extensions>
          <ns3:TrackPointExtension>
            <ns3:hr>144</ns3:hr>
            <ns3:cad>0</ns3:cad>
          </ns3:TrackPointExtension>
        </extensions>
      </trkpt>
      <trkpt lat="45.32391554675996303558349609375" lon="-70.9429031051695346832275390625">
        <ele>817.4000244140625</ele>
        <time>2026-08-21T17:32:25.000Z</time>
        <extensions>
          <ns3:TrackPointExtension>
            <ns3:hr>145</ns3:hr>
            <ns3:cad>0</ns3:cad>
          </ns3:TrackPointExtension>
        </extensions>
      </trkpt>
      <trkpt lat="45.32391571439802646636962890625" lon="-70.9429121576249599456787109375">
        <ele>817.5999755859375</ele>
        <time>2026-08-21T17:32:26.000Z</time>
        <extensions>
          <ns3:TrackPointExtension>
            <ns3:hr>145</ns3:hr>
            <ns3:cad>0</ns3:cad>
          </ns3:TrackPointExtension>
        </extensions>
      </trkpt>
      <trkpt lat="45.3239178098738193511962890625" lon="-70.94291693530976772308349609375">
        <ele>818</ele>
        <time>2026-08-21T17:32:27.000Z</time>
        <extensions>
          <ns3:TrackPointExtension>
            <ns3:hr>145</ns3:hr>
            <ns3:cad>0</ns3:cad>
          </ns3:TrackPointExtension>
        </extensions>
      </trkpt>
      <trkpt lat="45.32391873188316822052001953125" lon="-70.94292347319424152374267578125">
        <ele>818.20001220703125</ele>
        <time>2026-08-21T17:32:28.000Z</time>
        <extensions>
          <ns3:TrackPointExtension>
            <ns3:hr>144</ns3:hr>
            <ns3:cad>19</ns3:cad>
          </ns3:TrackPointExtension>
        </extensions>
      </trkpt>
      <trkpt lat="45.32391521148383617401123046875" lon="-70.942929424345493316650390625">
        <ele>818.4000244140625</ele>
        <time>2026-08-21T17:32:29.000Z</time>
        <extensions>
          <ns3:TrackPointExtension>
            <ns3:hr>144</ns3:hr>
            <ns3:cad>19</ns3:cad>
          </ns3:TrackPointExtension>
        </extensions>
      </trkpt>
      <trkpt lat="45.32391554675996303558349609375" lon="-70.9429346211254596710205078125">
        <ele>818.5999755859375</ele>
        <time>2026-08-21T17:32:30.000Z</time>
        <extensions>
          <ns3:TrackPointExtension>
            <ns3:hr>145</ns3:hr>
            <ns3:cad>0</ns3:cad>
          </ns3:TrackPointExtension>
        </extensions>
      </trkpt>
      <trkpt lat="45.3239124454557895660400390625" lon="-70.942944847047328948974609375">
        <ele>818.79998779296875</ele>
        <time>2026-08-21T17:32:31.000Z</time>
        <extensions>
          <ns3:TrackPointExtension>
            <ns3:hr>146</ns3:hr>
            <ns3:cad>0</ns3:cad>
          </ns3:TrackPointExtension>
        </extensions>
      </trkpt>
      <trkpt lat="45.32390850596129894256591796875" lon="-70.9429544024169445037841796875">
        <ele>819</ele>
        <time>2026-08-21T17:32:32.000Z</time>
        <extensions>
          <ns3:TrackPointExtension>
            <ns3:hr>146</ns3:hr>
            <ns3:cad>0</ns3:cad>
          </ns3:TrackPointExtension>
        </extensions>
      </trkpt>
      <trkpt lat="45.323911271989345550537109375" lon="-70.9429597668349742889404296875">
        <ele>819.20001220703125</ele>
        <time>2026-08-21T17:32:33.000Z</time>
        <extensions>
          <ns3:TrackPointExtension>
            <ns3:hr>146</ns3:hr>
            <ns3:cad>0</ns3:cad>
          </ns3:TrackPointExtension>
        </extensions>
      </trkpt>
      <trkpt lat="45.3239121101796627044677734375" lon="-70.9429704956710338592529296875">
        <ele>819.4000244140625</ele>
        <time>2026-08-21T17:32:34.000Z</time>
        <extensions>
          <ns3:TrackPointExtension>
            <ns3:hr>146</ns3:hr>
            <ns3:cad>0</ns3:cad>
          </ns3:TrackPointExtension>
        </extensions>
      </trkpt>
      <trkpt lat="45.32391135580837726593017578125" lon="-70.9429813921451568603515625">
        <ele>819.5999755859375</ele>
        <time>2026-08-21T17:32:35.000Z</time>
        <extensions>
          <ns3:TrackPointExtension>
            <ns3:hr>147</ns3:hr>
            <ns3:cad>0</ns3:cad>
          </ns3:TrackPointExtension>
        </extensions>
      </trkpt>
      <trkpt lat="45.32391093671321868896484375" lon="-70.942994467914104461669921875">
        <ele>819.79998779296875</ele>
        <time>2026-08-21T17:32:36.000Z</time>
        <extensions>
          <ns3:TrackPointExtension>
            <ns3:hr>146</ns3:hr>
            <ns3:cad>43</ns3:cad>
          </ns3:TrackPointExtension>
        </extensions>
      </trkpt>
      <trkpt lat="45.32390984706580638885498046875" lon="-70.94299958087503910064697265625">
        <ele>820</ele>
        <time>2026-08-21T17:32:37.000Z</time>
        <extensions>
          <ns3:TrackPointExtension>
            <ns3:hr>146</ns3:hr>
            <ns3:cad>43</ns3:cad>
          </ns3:TrackPointExtension>
        </extensions>
      </trkpt>
      <trkpt lat="45.32391085289418697357177734375" lon="-70.9430082142353057861328125">
        <ele>820.4000244140625</ele>
        <time>2026-08-21T17:32:38.000Z</time>
        <extensions>
          <ns3:TrackPointExtension>
            <ns3:hr>147</ns3:hr>
            <ns3:cad>43</ns3:cad>
          </ns3:TrackPointExtension>
        </extensions>
      </trkpt>
      <trkpt lat="45.32391336746513843536376953125" lon="-70.9430134110152721405029296875">
        <ele>820.5999755859375</ele>
        <time>2026-08-21T17:32:39.000Z</time>
        <extensions>
          <ns3:TrackPointExtension>
            <ns3:hr>147</ns3:hr>
            <ns3:cad>43</ns3:cad>
          </ns3:TrackPointExtension>
        </extensions>
      </trkpt>
      <trkpt lat="45.3239142894744873046875" lon="-70.94302522949874401092529296875">
        <ele>820.79998779296875</ele>
        <time>2026-08-21T17:32:40.000Z</time>
        <extensions>
          <ns3:TrackPointExtension>
            <ns3:hr>148</ns3:hr>
            <ns3:cad>0</ns3:cad>
          </ns3:TrackPointExtension>
        </extensions>
      </trkpt>
      <trkpt lat="45.32391655258834362030029296875" lon="-70.943028666079044342041015625">
        <ele>821</ele>
        <time>2026-08-21T17:32:41.000Z</time>
        <extensions>
          <ns3:TrackPointExtension>
            <ns3:hr>148</ns3:hr>
            <ns3:cad>0</ns3:cad>
          </ns3:TrackPointExtension>
        </extensions>
      </trkpt>
      <trkpt lat="45.323917977511882781982421875" lon="-70.9430335275828838348388671875">
        <ele>821.4000244140625</ele>
        <time>2026-08-21T17:32:42.000Z</time>
        <extensions>
          <ns3:TrackPointExtension>
            <ns3:hr>148</ns3:hr>
            <ns3:cad>0</ns3:cad>
          </ns3:TrackPointExtension>
        </extensions>
      </trkpt>
      <trkpt lat="45.32391957007348537445068359375" lon="-70.943043418228626251220703125">
        <ele>821.5999755859375</ele>
        <time>2026-08-21T17:32:43.000Z</time>
        <extensions>
          <ns3:TrackPointExtension>
            <ns3:hr>148</ns3:hr>
            <ns3:cad>0</ns3:cad>
          </ns3:TrackPointExtension>
        </extensions>
      </trkpt>
      <trkpt lat="45.323922671377658843994140625" lon="-70.94304752536118030548095703125">
        <ele>821.79998779296875</ele>
        <time>2026-08-21T17:32:44.000Z</time>
        <extensions>
          <ns3:TrackPointExtension>
            <ns3:hr>147</ns3:hr>
            <ns3:cad>0</ns3:cad>
          </ns3:TrackPointExtension>
        </extensions>
      </trkpt>
      <trkpt lat="45.323925353586673736572265625" lon="-70.94305557198822498321533203125">
        <ele>822</ele>
        <time>2026-08-21T17:32:45.000Z</time>
        <extensions>
          <ns3:TrackPointExtension>
            <ns3:hr>147</ns3:hr>
            <ns3:cad>0</ns3:cad>
          </ns3:TrackPointExtension>
        </extensions>
      </trkpt>
      <trkpt lat="45.32392568886280059814453125" lon="-70.94305976293981075286865234375">
        <ele>822.20001220703125</ele>
        <time>2026-08-21T17:32:46.000Z</time>
        <extensions>
          <ns3:TrackPointExtension>
            <ns3:hr>147</ns3:hr>
            <ns3:cad>0</ns3:cad>
          </ns3:TrackPointExtension>
        </extensions>
      </trkpt>
      <trkpt lat="45.323928706347942352294921875" lon="-70.9430663846433162689208984375">
        <ele>822.4000244140625</ele>
        <time>2026-08-21T17:32:47.000Z</time>
        <extensions>
          <ns3:TrackPointExtension>
            <ns3:hr>147</ns3:hr>
            <ns3:cad>0</ns3:cad>
          </ns3:TrackPointExtension>
        </extensions>
      </trkpt>
      <trkpt lat="45.3239295445382595062255859375" lon="-70.94307032413780689239501953125">
        <ele>822.5999755859375</ele>
        <time>2026-08-21T17:32:48.000Z</time>
        <extensions>
          <ns3:TrackPointExtension>
            <ns3:hr>148</ns3:hr>
            <ns3:cad>0</ns3:cad>
          </ns3:TrackPointExtension>
        </extensions>
      </trkpt>
      <trkpt lat="45.3239317238330841064453125" lon="-70.94307887367904186248779296875">
        <ele>822.79998779296875</ele>
        <time>2026-08-21T17:32:49.000Z</time>
        <extensions>
          <ns3:TrackPointExtension>
            <ns3:hr>148</ns3:hr>
            <ns3:cad>0</ns3:cad>
          </ns3:TrackPointExtension>
        </extensions>
      </trkpt>
      <trkpt lat="45.32393314875662326812744140625" lon="-70.94308256171643733978271484375">
        <ele>823</ele>
        <time>2026-08-21T17:32:50.000Z</time>
        <extensions>
          <ns3:TrackPointExtension>
            <ns3:hr>148</ns3:hr>
            <ns3:cad>0</ns3:cad>
          </ns3:TrackPointExtension>
        </extensions>
      </trkpt>
      <trkpt lat="45.323935411870479583740234375" lon="-70.94309178180992603302001953125">
        <ele>823.20001220703125</ele>
        <time>2026-08-21T17:32:51.000Z</time>
        <extensions>
          <ns3:TrackPointExtension>
            <ns3:hr>148</ns3:hr>
            <ns3:cad>0</ns3:cad>
          </ns3:TrackPointExtension>
        </extensions>
      </trkpt>
      <trkpt lat="45.3239369206130504608154296875" lon="-70.9430958889424800872802734375">
        <ele>823.4000244140625</ele>
        <time>2026-08-21T17:32:52.000Z</time>
        <extensions>
          <ns3:TrackPointExtension>
            <ns3:hr>149</ns3:hr>
            <ns3:cad>0</ns3:cad>
          </ns3:TrackPointExtension>
        </extensions>
      </trkpt>
      <trkpt lat="45.3239392675459384918212890625" lon="-70.94310468994081020355224609375">
        <ele>823.5999755859375</ele>
        <time>2026-08-21T17:32:53.000Z</time>
        <extensions>
          <ns3:TrackPointExtension>
            <ns3:hr>149</ns3:hr>
            <ns3:cad>0</ns3:cad>
          </ns3:TrackPointExtension>
        </extensions>
      </trkpt>
      <trkpt lat="45.32394454814493656158447265625" lon="-70.9431146644055843353271484375">
        <ele>824</ele>
        <time>2026-08-21T17:32:54.000Z</time>
        <extensions>
          <ns3:TrackPointExtension>
            <ns3:hr>150</ns3:hr>
            <ns3:cad>0</ns3:cad>
          </ns3:TrackPointExtension>
        </extensions>
      </trkpt>
      <trkpt lat="45.32394689507782459259033203125" lon="-70.9431208670139312744140625">
        <ele>824.20001220703125</ele>
        <time>2026-08-21T17:32:55.000Z</time>
        <extensions>
          <ns3:TrackPointExtension>
            <ns3:hr>150</ns3:hr>
            <ns3:cad>0</ns3:cad>
          </ns3:TrackPointExtension>
        </extensions>
      </trkpt>
      <trkpt lat="45.3239530138671398162841796875" lon="-70.94312983565032482147216796875">
        <ele>824.4000244140625</ele>
        <time>2026-08-21T17:32:56.000Z</time>
        <extensions>
          <ns3:TrackPointExtension>
            <ns3:hr>150</ns3:hr>
            <ns3:cad>0</ns3:cad>
          </ns3:TrackPointExtension>
        </extensions>
      </trkpt>
      <trkpt lat="45.3239577077329158782958984375" lon="-70.94313737936317920684814453125">
        <ele>824.5999755859375</ele>
        <time>2026-08-21T17:32:57.000Z</time>
        <extensions>
          <ns3:TrackPointExtension>
            <ns3:hr>150</ns3:hr>
            <ns3:cad>0</ns3:cad>
          </ns3:TrackPointExtension>
        </extensions>
      </trkpt>
      <trkpt lat="45.32396231777966022491455078125" lon="-70.9431421570479869842529296875">
        <ele>824.79998779296875</ele>
        <time>2026-08-21T17:32:58.000Z</time>
        <extensions>
          <ns3:TrackPointExtension>
            <ns3:hr>150</ns3:hr>
            <ns3:cad>0</ns3:cad>
          </ns3:TrackPointExtension>
        </extensions>
      </trkpt>
      <trkpt lat="45.32396499998867511749267578125" lon="-70.94314701855182647705078125">
        <ele>825</ele>
        <time>2026-08-21T17:32:59.000Z</time>
        <extensions>
          <ns3:TrackPointExtension>
            <ns3:hr>150</ns3:hr>
            <ns3:cad>0</ns3:cad>
          </ns3:TrackPointExtension>
        </extensions>
      </trkpt>
      <trkpt lat="45.32396784983575344085693359375" lon="-70.94315246678888797760009765625">
        <ele>825.20001220703125</ele>
        <time>2026-08-21T17:33:00.000Z</time>
        <extensions>
          <ns3:TrackPointExtension>
            <ns3:hr>150</ns3:hr>
            <ns3:cad>0</ns3:cad>
          </ns3:TrackPointExtension>
        </extensions>
      </trkpt>
      <trkpt lat="45.32397304661571979522705078125" lon="-70.943162105977535247802734375">
        <ele>825.4000244140625</ele>
        <time>2026-08-21T17:33:01.000Z</time>
        <extensions>
          <ns3:TrackPointExtension>
            <ns3:hr>150</ns3:hr>
            <ns3:cad>0</ns3:cad>
          </ns3:TrackPointExtension>
        </extensions>
      </trkpt>
      <trkpt lat="45.32397396862506866455078125" lon="-70.94316571019589900970458984375">
        <ele>825.5999755859375</ele>
        <time>2026-08-21T17:33:02.000Z</time>
        <extensions>
          <ns3:TrackPointExtension>
            <ns3:hr>150</ns3:hr>
            <ns3:cad>0</ns3:cad>
          </ns3:TrackPointExtension>
        </extensions>
      </trkpt>
      <trkpt lat="45.32397807575762271881103515625" lon="-70.94317518174648284912109375">
        <ele>825.79998779296875</ele>
        <time>2026-08-21T17:33:03.000Z</time>
        <extensions>
          <ns3:TrackPointExtension>
            <ns3:hr>150</ns3:hr>
            <ns3:cad>0</ns3:cad>
          </ns3:TrackPointExtension>
        </extensions>
      </trkpt>
      <trkpt lat="45.32397656701505184173583984375" lon="-70.9431763552129268646240234375">
        <ele>826</ele>
        <time>2026-08-21T17:33:04.000Z</time>
        <extensions>
          <ns3:TrackPointExtension>
            <ns3:hr>149</ns3:hr>
            <ns3:cad>0</ns3:cad>
          </ns3:TrackPointExtension>
        </extensions>
      </trkpt>
      <trkpt lat="45.3239773213863372802734375" lon="-70.94318683259189128875732421875">
        <ele>826.4000244140625</ele>
        <time>2026-08-21T17:33:05.000Z</time>
        <extensions>
          <ns3:TrackPointExtension>
            <ns3:hr>149</ns3:hr>
            <ns3:cad>0</ns3:cad>
          </ns3:TrackPointExtension>
        </extensions>
      </trkpt>
      <trkpt lat="45.3239741362631320953369140625" lon="-70.9431854076683521270751953125">
        <ele>826.5999755859375</ele>
        <time>2026-08-21T17:33:06.000Z</time>
        <extensions>
          <ns3:TrackPointExtension>
            <ns3:hr>148</ns3:hr>
            <ns3:cad>0</ns3:cad>
          </ns3:TrackPointExtension>
        </extensions>
      </trkpt>
      <trkpt lat="45.3239721246063709259033203125" lon="-70.94319420866668224334716796875">
        <ele>826.79998779296875</ele>
        <time>2026-08-21T17:33:07.000Z</time>
        <extensions>
          <ns3:TrackPointExtension>
            <ns3:hr>148</ns3:hr>
            <ns3:cad>0</ns3:cad>
          </ns3:TrackPointExtension>
        </extensions>
      </trkpt>
      <trkpt lat="45.32397262752056121826171875" lon="-70.9431974776089191436767578125">
        <ele>827</ele>
        <time>2026-08-21T17:33:08.000Z</time>
        <extensions>
          <ns3:TrackPointExtension>
            <ns3:hr>147</ns3:hr>
            <ns3:cad>0</ns3:cad>
          </ns3:TrackPointExtension>
        </extensions>
      </trkpt>
      <trkpt lat="45.32397103495895862579345703125" lon="-70.94319957308471202850341796875">
        <ele>827.20001220703125</ele>
        <time>2026-08-21T17:33:09.000Z</time>
        <extensions>
          <ns3:TrackPointExtension>
            <ns3:hr>147</ns3:hr>
            <ns3:cad>0</ns3:cad>
          </ns3:TrackPointExtension>
        </extensions>
      </trkpt>
      <trkpt lat="45.323974974453449249267578125" lon="-70.94320359639823436737060546875">
        <ele>827.4000244140625</ele>
        <time>2026-08-21T17:33:10.000Z</time>
        <extensions>
          <ns3:TrackPointExtension>
            <ns3:hr>147</ns3:hr>
            <ns3:cad>0</ns3:cad>
          </ns3:TrackPointExtension>
        </extensions>
      </trkpt>
      <trkpt lat="45.32397556118667125701904296875" lon="-70.94320200383663177490234375">
        <ele>827.5999755859375</ele>
        <time>2026-08-21T17:33:11.000Z</time>
        <extensions>
          <ns3:TrackPointExtension>
            <ns3:hr>147</ns3:hr>
            <ns3:cad>0</ns3:cad>
          </ns3:TrackPointExtension>
        </extensions>
      </trkpt>
      <trkpt lat="45.32397530972957611083984375" lon="-70.94319739378988742828369140625">
        <ele>827.79998779296875</ele>
        <time>2026-08-21T17:33:12.000Z</time>
        <extensions>
          <ns3:TrackPointExtension>
            <ns3:hr>147</ns3:hr>
            <ns3:cad>0</ns3:cad>
          </ns3:TrackPointExtension>
        </extensions>
      </trkpt>
      <trkpt lat="45.3239791654050350189208984375" lon="-70.94320963136851787567138671875">
        <ele>828</ele>
        <time>2026-08-21T17:33:13.000Z</time>
        <extensions>
          <ns3:TrackPointExtension>
            <ns3:hr>147</ns3:hr>
            <ns3:cad>0</ns3:cad>
          </ns3:TrackPointExtension>
        </extensions>
      </trkpt>
      <trkpt lat="45.3239811770617961883544921875" lon="-70.94321667216718196868896484375">
        <ele>828.20001220703125</ele>
        <time>2026-08-21T17:33:14.000Z</time>
        <extensions>
          <ns3:TrackPointExtension>
            <ns3:hr>148</ns3:hr>
            <ns3:cad>0</ns3:cad>
          </ns3:TrackPointExtension>
        </extensions>
      </trkpt>
      <trkpt lat="45.32398260198533535003662109375" lon="-70.94322119839489459991455078125">
        <ele>828.4000244140625</ele>
        <time>2026-08-21T17:33:15.000Z</time>
        <extensions>
          <ns3:TrackPointExtension>
            <ns3:hr>149</ns3:hr>
            <ns3:cad>0</ns3:cad>
          </ns3:TrackPointExtension>
        </extensions>
      </trkpt>
      <trkpt lat="45.32398595474660396575927734375" lon="-70.943239890038967132568359375">
        <ele>828.5999755859375</ele>
        <time>2026-08-21T17:33:16.000Z</time>
        <extensions>
          <ns3:TrackPointExtension>
            <ns3:hr>149</ns3:hr>
            <ns3:cad>0</ns3:cad>
          </ns3:TrackPointExtension>
        </extensions>
      </trkpt>
      <trkpt lat="45.32398696057498455047607421875" lon="-70.94324450008571147918701171875">
        <ele>829</ele>
        <time>2026-08-21T17:33:17.000Z</time>
        <extensions>
          <ns3:TrackPointExtension>
            <ns3:hr>149</ns3:hr>
            <ns3:cad>0</ns3:cad>
          </ns3:TrackPointExtension>
        </extensions>
      </trkpt>
      <trkpt lat="45.32398846931755542755126953125" lon="-70.9432437457144260406494140625">
        <ele>829.20001220703125</ele>
        <time>2026-08-21T17:33:18.000Z</time>
        <extensions>
          <ns3:TrackPointExtension>
            <ns3:hr>148</ns3:hr>
            <ns3:cad>0</ns3:cad>
          </ns3:TrackPointExtension>
        </extensions>
      </trkpt>
      <trkpt lat="45.32398913986980915069580078125" lon="-70.94325439073145389556884765625">
        <ele>829.4000244140625</ele>
        <time>2026-08-21T17:33:19.000Z</time>
        <extensions>
          <ns3:TrackPointExtension>
            <ns3:hr>148</ns3:hr>
            <ns3:cad>0</ns3:cad>
          </ns3:TrackPointExtension>
        </extensions>
      </trkpt>
      <trkpt lat="45.32398964278399944305419921875" lon="-70.9432668797671794891357421875">
        <ele>829.5999755859375</ele>
        <time>2026-08-21T17:33:20.000Z</time>
        <extensions>
          <ns3:TrackPointExtension>
            <ns3:hr>148</ns3:hr>
            <ns3:cad>0</ns3:cad>
          </ns3:TrackPointExtension>
        </extensions>
      </trkpt>
      <trkpt lat="45.323988385498523712158203125" lon="-70.94327199272811412811279296875">
        <ele>829.79998779296875</ele>
        <time>2026-08-21T17:33:21.000Z</time>
        <extensions>
          <ns3:TrackPointExtension>
            <ns3:hr>148</ns3:hr>
            <ns3:cad>0</ns3:cad>
          </ns3:TrackPointExtension>
        </extensions>
      </trkpt>
      <trkpt lat="45.3239892236888408660888671875" lon="-70.94327584840357303619384765625">
        <ele>830</ele>
        <time>2026-08-21T17:33:22.000Z</time>
        <extensions>
          <ns3:TrackPointExtension>
            <ns3:hr>148</ns3:hr>
            <ns3:cad>0</ns3:cad>
          </ns3:TrackPointExtension>
        </extensions>
      </trkpt>
      <trkpt lat="45.32398662529885768890380859375" lon="-70.94329319894313812255859375">
        <ele>830.4000244140625</ele>
        <time>2026-08-21T17:33:23.000Z</time>
        <extensions>
          <ns3:TrackPointExtension>
            <ns3:hr>148</ns3:hr>
            <ns3:cad>0</ns3:cad>
          </ns3:TrackPointExtension>
        </extensions>
      </trkpt>
      <trkpt lat="45.32398872077465057373046875" lon="-70.94330166466534137725830078125">
        <ele>830.5999755859375</ele>
        <time>2026-08-21T17:33:24.000Z</time>
        <extensions>
          <ns3:TrackPointExtension>
            <ns3:hr>148</ns3:hr>
            <ns3:cad>0</ns3:cad>
          </ns3:TrackPointExtension>
        </extensions>
      </trkpt>
      <trkpt lat="45.32398897223174571990966796875" lon="-70.943309627473354339599609375">
        <ele>830.79998779296875</ele>
        <time>2026-08-21T17:33:25.000Z</time>
        <extensions>
          <ns3:TrackPointExtension>
            <ns3:hr>147</ns3:hr>
            <ns3:cad>0</ns3:cad>
          </ns3:TrackPointExtension>
        </extensions>
      </trkpt>
      <trkpt lat="45.32398645766079425811767578125" lon="-70.94331893138587474822998046875">
        <ele>831</ele>
        <time>2026-08-21T17:33:26.000Z</time>
        <extensions>
          <ns3:TrackPointExtension>
            <ns3:hr>147</ns3:hr>
            <ns3:cad>0</ns3:cad>
          </ns3:TrackPointExtension>
        </extensions>
      </trkpt>
      <trkpt lat="45.323989056050777435302734375" lon="-70.94332940876483917236328125">
        <ele>831.4000244140625</ele>
        <time>2026-08-21T17:33:27.000Z</time>
        <extensions>
          <ns3:TrackPointExtension>
            <ns3:hr>148</ns3:hr>
            <ns3:cad>0</ns3:cad>
          </ns3:TrackPointExtension>
        </extensions>
      </trkpt>
      <trkpt lat="45.323990397155284881591796875" lon="-70.943336784839630126953125">
        <ele>831.5999755859375</ele>
        <time>2026-08-21T17:33:28.000Z</time>
        <extensions>
          <ns3:TrackPointExtension>
            <ns3:hr>148</ns3:hr>
            <ns3:cad>0</ns3:cad>
          </ns3:TrackPointExtension>
        </extensions>
      </trkpt>
      <trkpt lat="45.32399366609752178192138671875" lon="-70.9433490224182605743408203125">
        <ele>831.79998779296875</ele>
        <time>2026-08-21T17:33:29.000Z</time>
        <extensions>
          <ns3:TrackPointExtension>
            <ns3:hr>148</ns3:hr>
            <ns3:cad>0</ns3:cad>
          </ns3:TrackPointExtension>
        </extensions>
      </trkpt>
      <trkpt lat="45.32399416901171207427978515625" lon="-70.94335748814046382904052734375">
        <ele>832</ele>
        <time>2026-08-21T17:33:30.000Z</time>
        <extensions>
          <ns3:TrackPointExtension>
            <ns3:hr>148</ns3:hr>
            <ns3:cad>0</ns3:cad>
          </ns3:TrackPointExtension>
        </extensions>
      </trkpt>
      <trkpt lat="45.3239939175546169281005859375" lon="-70.9433651156723499298095703125">
        <ele>832</ele>
        <time>2026-08-21T17:33:31.000Z</time>
        <extensions>
          <ns3:TrackPointExtension>
            <ns3:hr>148</ns3:hr>
            <ns3:cad>0</ns3:cad>
          </ns3:TrackPointExtension>
        </extensions>
      </trkpt>
      <trkpt lat="45.32399551011621952056884765625" lon="-70.94337634742259979248046875">
        <ele>832.20001220703125</ele>
        <time>2026-08-21T17:33:32.000Z</time>
        <extensions>
          <ns3:TrackPointExtension>
            <ns3:hr>148</ns3:hr>
            <ns3:cad>0</ns3:cad>
          </ns3:TrackPointExtension>
        </extensions>
      </trkpt>
      <trkpt lat="45.3240009583532810211181640625" lon="-70.9433828853070735931396484375">
        <ele>832.4000244140625</ele>
        <time>2026-08-21T17:33:33.000Z</time>
        <extensions>
          <ns3:TrackPointExtension>
            <ns3:hr>148</ns3:hr>
            <ns3:cad>0</ns3:cad>
          </ns3:TrackPointExtension>
        </extensions>
      </trkpt>
      <trkpt lat="45.32400355674326419830322265625" lon="-70.9433882497251033782958984375">
        <ele>832.5999755859375</ele>
        <time>2026-08-21T17:33:34.000Z</time>
        <extensions>
          <ns3:TrackPointExtension>
            <ns3:hr>148</ns3:hr>
            <ns3:cad>0</ns3:cad>
          </ns3:TrackPointExtension>
        </extensions>
      </trkpt>
      <trkpt lat="45.32401143573224544525146484375" lon="-70.9434033371508121490478515625">
        <ele>832.79998779296875</ele>
        <time>2026-08-21T17:33:35.000Z</time>
        <extensions>
          <ns3:TrackPointExtension>
            <ns3:hr>148</ns3:hr>
            <ns3:cad>0</ns3:cad>
          </ns3:TrackPointExtension>
        </extensions>
      </trkpt>
      <trkpt lat="45.32401612959802150726318359375" lon="-70.94340425916016101837158203125">
        <ele>833</ele>
        <time>2026-08-21T17:33:36.000Z</time>
        <extensions>
          <ns3:TrackPointExtension>
            <ns3:hr>148</ns3:hr>
            <ns3:cad>0</ns3:cad>
          </ns3:TrackPointExtension>
        </extensions>
      </trkpt>
      <trkpt lat="45.32402233220636844635009765625" lon="-70.94340585172176361083984375">
        <ele>833.20001220703125</ele>
        <time>2026-08-21T17:33:37.000Z</time>
        <extensions>
          <ns3:TrackPointExtension>
            <ns3:hr>148</ns3:hr>
            <ns3:cad>0</ns3:cad>
          </ns3:TrackPointExtension>
        </extensions>
      </trkpt>
      <trkpt lat="45.32402618788182735443115234375" lon="-70.94340627081692218780517578125">
        <ele>833.4000244140625</ele>
        <time>2026-08-21T17:33:38.000Z</time>
        <extensions>
          <ns3:TrackPointExtension>
            <ns3:hr>148</ns3:hr>
            <ns3:cad>0</ns3:cad>
          </ns3:TrackPointExtension>
        </extensions>
      </trkpt>
      <trkpt lat="45.32403104938566684722900390625" lon="-70.94341247342526912689208984375">
        <ele>833.5999755859375</ele>
        <time>2026-08-21T17:33:39.000Z</time>
        <extensions>
          <ns3:TrackPointExtension>
            <ns3:hr>149</ns3:hr>
            <ns3:cad>0</ns3:cad>
          </ns3:TrackPointExtension>
        </extensions>
      </trkpt>
      <trkpt lat="45.32403456978499889373779296875" lon="-70.9434157423675060272216796875">
        <ele>833.79998779296875</ele>
        <time>2026-08-21T17:33:40.000Z</time>
        <extensions>
          <ns3:TrackPointExtension>
            <ns3:hr>149</ns3:hr>
            <ns3:cad>0</ns3:cad>
          </ns3:TrackPointExtension>
        </extensions>
      </trkpt>
      <trkpt lat="45.324038676917552947998046875" lon="-70.94342060387134552001953125">
        <ele>834</ele>
        <time>2026-08-21T17:33:41.000Z</time>
        <extensions>
          <ns3:TrackPointExtension>
            <ns3:hr>149</ns3:hr>
            <ns3:cad>0</ns3:cad>
          </ns3:TrackPointExtension>
        </extensions>
      </trkpt>
      <trkpt lat="45.324040353298187255859375" lon="-70.94341951422393321990966796875">
        <ele>834.20001220703125</ele>
        <time>2026-08-21T17:33:42.000Z</time>
        <extensions>
          <ns3:TrackPointExtension>
            <ns3:hr>149</ns3:hr>
            <ns3:cad>0</ns3:cad>
          </ns3:TrackPointExtension>
        </extensions>
      </trkpt>
      <trkpt lat="45.32404831610620021820068359375" lon="-70.9434268064796924591064453125">
        <ele>834.4000244140625</ele>
        <time>2026-08-21T17:33:43.000Z</time>
        <extensions>
          <ns3:TrackPointExtension>
            <ns3:hr>149</ns3:hr>
            <ns3:cad>0</ns3:cad>
          </ns3:TrackPointExtension>
        </extensions>
      </trkpt>
      <trkpt lat="45.32405200414359569549560546875" lon="-70.94342957250773906707763671875">
        <ele>834.5999755859375</ele>
        <time>2026-08-21T17:33:44.000Z</time>
        <extensions>
          <ns3:TrackPointExtension>
            <ns3:hr>148</ns3:hr>
            <ns3:cad>0</ns3:cad>
          </ns3:TrackPointExtension>
        </extensions>
      </trkpt>
      <trkpt lat="45.3240599669516086578369140625" lon="-70.94343669712543487548828125">
        <ele>834.79998779296875</ele>
        <time>2026-08-21T17:33:45.000Z</time>
        <extensions>
          <ns3:TrackPointExtension>
            <ns3:hr>149</ns3:hr>
            <ns3:cad>0</ns3:cad>
          </ns3:TrackPointExtension>
        </extensions>
      </trkpt>
      <trkpt lat="45.3240685164928436279296875" lon="-70.94344264827668666839599609375">
        <ele>835</ele>
        <time>2026-08-21T17:33:46.000Z</time>
        <extensions>
          <ns3:TrackPointExtension>
            <ns3:hr>148</ns3:hr>
            <ns3:cad>0</ns3:cad>
          </ns3:TrackPointExtension>
        </extensions>
      </trkpt>
      <trkpt lat="45.32407262362539768218994140625" lon="-70.943445079028606414794921875">
        <ele>835</ele>
        <time>2026-08-21T17:33:47.000Z</time>
        <extensions>
          <ns3:TrackPointExtension>
            <ns3:hr>148</ns3:hr>
            <ns3:cad>0</ns3:cad>
          </ns3:TrackPointExtension>
        </extensions>
      </trkpt>
      <trkpt lat="45.3240750543773174285888671875" lon="-70.9434522874653339385986328125">
        <ele>835.4000244140625</ele>
        <time>2026-08-21T17:33:48.000Z</time>
        <extensions>
          <ns3:TrackPointExtension>
            <ns3:hr>148</ns3:hr>
            <ns3:cad>0</ns3:cad>
          </ns3:TrackPointExtension>
        </extensions>
      </trkpt>
      <trkpt lat="45.32407857477664947509765625" lon="-70.9434542991220951080322265625">
        <ele>835.5999755859375</ele>
        <time>2026-08-21T17:33:49.000Z</time>
        <extensions>
          <ns3:TrackPointExtension>
            <ns3:hr>148</ns3:hr>
            <ns3:cad>0</ns3:cad>
          </ns3:TrackPointExtension>
        </extensions>
      </trkpt>
      <trkpt lat="45.3240787424147129058837890625" lon="-70.943457819521427154541015625">
        <ele>835.79998779296875</ele>
        <time>2026-08-21T17:33:50.000Z</time>
        <extensions>
          <ns3:TrackPointExtension>
            <ns3:hr>148</ns3:hr>
            <ns3:cad>0</ns3:cad>
          </ns3:TrackPointExtension>
        </extensions>
      </trkpt>
      <trkpt lat="45.32408167608082294464111328125" lon="-70.943465195596218109130859375">
        <ele>836</ele>
        <time>2026-08-21T17:33:51.000Z</time>
        <extensions>
          <ns3:TrackPointExtension>
            <ns3:hr>148</ns3:hr>
            <ns3:cad>0</ns3:cad>
          </ns3:TrackPointExtension>
        </extensions>
      </trkpt>
      <trkpt lat="45.32408335246145725250244140625" lon="-70.9434697218239307403564453125">
        <ele>836.20001220703125</ele>
        <time>2026-08-21T17:33:52.000Z</time>
        <extensions>
          <ns3:TrackPointExtension>
            <ns3:hr>149</ns3:hr>
            <ns3:cad>0</ns3:cad>
          </ns3:TrackPointExtension>
        </extensions>
      </trkpt>
      <trkpt lat="45.324089638888835906982421875" lon="-70.94347852282226085662841796875">
        <ele>836.5999755859375</ele>
        <time>2026-08-21T17:33:53.000Z</time>
        <extensions>
          <ns3:TrackPointExtension>
            <ns3:hr>149</ns3:hr>
            <ns3:cad>0</ns3:cad>
          </ns3:TrackPointExtension>
        </extensions>
      </trkpt>
      <trkpt lat="45.32409022562205791473388671875" lon="-70.9434864856302738189697265625">
        <ele>836.79998779296875</ele>
        <time>2026-08-21T17:33:54.000Z</time>
        <extensions>
          <ns3:TrackPointExtension>
            <ns3:hr>149</ns3:hr>
            <ns3:cad>0</ns3:cad>
          </ns3:TrackPointExtension>
        </extensions>
      </trkpt>
      <trkpt lat="45.32409525476396083831787109375" lon="-70.9434952028095722198486328125">
        <ele>837</ele>
        <time>2026-08-21T17:33:55.000Z</time>
        <extensions>
          <ns3:TrackPointExtension>
            <ns3:hr>149</ns3:hr>
            <ns3:cad>0</ns3:cad>
          </ns3:TrackPointExtension>
        </extensions>
      </trkpt>
      <trkpt lat="45.32410564832389354705810546875" lon="-70.94350718893110752105712890625">
        <ele>837.20001220703125</ele>
        <time>2026-08-21T17:33:56.000Z</time>
        <extensions>
          <ns3:TrackPointExtension>
            <ns3:hr>149</ns3:hr>
            <ns3:cad>19</ns3:cad>
          </ns3:TrackPointExtension>
        </extensions>
      </trkpt>
      <trkpt lat="45.32410807907581329345703125" lon="-70.94350836239755153656005859375">
        <ele>837.4000244140625</ele>
        <time>2026-08-21T17:33:57.000Z</time>
        <extensions>
          <ns3:TrackPointExtension>
            <ns3:hr>149</ns3:hr>
            <ns3:cad>0</ns3:cad>
          </ns3:TrackPointExtension>
        </extensions>
      </trkpt>
      <trkpt lat="45.3241183049976825714111328125" lon="-70.94352059997618198394775390625">
        <ele>837.5999755859375</ele>
        <time>2026-08-21T17:33:58.000Z</time>
        <extensions>
          <ns3:TrackPointExtension>
            <ns3:hr>149</ns3:hr>
            <ns3:cad>0</ns3:cad>
          </ns3:TrackPointExtension>
        </extensions>
      </trkpt>
      <trkpt lat="45.32412542961537837982177734375" lon="-70.9435277245938777923583984375">
        <ele>837.79998779296875</ele>
        <time>2026-08-21T17:33:59.000Z</time>
        <extensions>
          <ns3:TrackPointExtension>
            <ns3:hr>148</ns3:hr>
            <ns3:cad>0</ns3:cad>
          </ns3:TrackPointExtension>
        </extensions>
      </trkpt>
      <trkpt lat="45.32413079403340816497802734375" lon="-70.9435327537357807159423828125">
        <ele>838</ele>
        <time>2026-08-21T17:34:00.000Z</time>
        <extensions>
          <ns3:TrackPointExtension>
            <ns3:hr>147</ns3:hr>
            <ns3:cad>0</ns3:cad>
          </ns3:TrackPointExtension>
        </extensions>
      </trkpt>
      <trkpt lat="45.32413356006145477294921875" lon="-70.94353266991674900054931640625">
        <ele>838.20001220703125</ele>
        <time>2026-08-21T17:34:01.000Z</time>
        <extensions>
          <ns3:TrackPointExtension>
            <ns3:hr>147</ns3:hr>
            <ns3:cad>0</ns3:cad>
          </ns3:TrackPointExtension>
        </extensions>
      </trkpt>
      <trkpt lat="45.32414504326879978179931640625" lon="-70.943539626896381378173828125">
        <ele>838.4000244140625</ele>
        <time>2026-08-21T17:34:02.000Z</time>
        <extensions>
          <ns3:TrackPointExtension>
            <ns3:hr>148</ns3:hr>
            <ns3:cad>0</ns3:cad>
          </ns3:TrackPointExtension>
        </extensions>
      </trkpt>
      <trkpt lat="45.32414420507848262786865234375" lon="-70.94354054890573024749755859375">
        <ele>838.5999755859375</ele>
        <time>2026-08-21T17:34:03.000Z</time>
        <extensions>
          <ns3:TrackPointExtension>
            <ns3:hr>148</ns3:hr>
            <ns3:cad>0</ns3:cad>
          </ns3:TrackPointExtension>
        </extensions>
      </trkpt>
      <trkpt lat="45.32414806075394153594970703125" lon="-70.943545661866664886474609375">
        <ele>838.79998779296875</ele>
        <time>2026-08-21T17:34:04.000Z</time>
        <extensions>
          <ns3:TrackPointExtension>
            <ns3:hr>147</ns3:hr>
            <ns3:cad>0</ns3:cad>
          </ns3:TrackPointExtension>
        </extensions>
      </trkpt>
      <trkpt lat="45.3241555206477642059326171875" lon="-70.9435525350272655487060546875">
        <ele>839</ele>
        <time>2026-08-21T17:34:05.000Z</time>
        <extensions>
          <ns3:TrackPointExtension>
            <ns3:hr>147</ns3:hr>
            <ns3:cad>0</ns3:cad>
          </ns3:TrackPointExtension>
        </extensions>
      </trkpt>
      <trkpt lat="45.3241592086851596832275390625" lon="-70.9435572288930416107177734375">
        <ele>839.20001220703125</ele>
        <time>2026-08-21T17:34:06.000Z</time>
        <extensions>
          <ns3:TrackPointExtension>
            <ns3:hr>146</ns3:hr>
            <ns3:cad>0</ns3:cad>
          </ns3:TrackPointExtension>
        </extensions>
      </trkpt>
      <trkpt lat="45.32416465692222118377685546875" lon="-70.94356569461524486541748046875">
        <ele>839.4000244140625</ele>
        <time>2026-08-21T17:34:07.000Z</time>
        <extensions>
          <ns3:TrackPointExtension>
            <ns3:hr>146</ns3:hr>
            <ns3:cad>0</ns3:cad>
          </ns3:TrackPointExtension>
        </extensions>
      </trkpt>
      <trkpt lat="45.32416834495961666107177734375" lon="-70.94356787391006946563720703125">
        <ele>839.4000244140625</ele>
        <time>2026-08-21T17:34:08.000Z</time>
        <extensions>
          <ns3:TrackPointExtension>
            <ns3:hr>147</ns3:hr>
            <ns3:cad>0</ns3:cad>
          </ns3:TrackPointExtension>
        </extensions>
      </trkpt>
      <trkpt lat="45.324171446263790130615234375" lon="-70.94356946647167205810546875">
        <ele>839.5999755859375</ele>
        <time>2026-08-21T17:34:09.000Z</time>
        <extensions>
          <ns3:TrackPointExtension>
            <ns3:hr>147</ns3:hr>
            <ns3:cad>0</ns3:cad>
          </ns3:TrackPointExtension>
        </extensions>
      </trkpt>
      <trkpt lat="45.32417303882539272308349609375" lon="-70.94357290305197238922119140625">
        <ele>839.79998779296875</ele>
        <time>2026-08-21T17:34:10.000Z</time>
        <extensions>
          <ns3:TrackPointExtension>
            <ns3:hr>147</ns3:hr>
            <ns3:cad>0</ns3:cad>
          </ns3:TrackPointExtension>
        </extensions>
      </trkpt>
      <trkpt lat="45.324171446263790130615234375" lon="-70.9435741603374481201171875">
        <ele>840.20001220703125</ele>
        <time>2026-08-21T17:34:11.000Z</time>
        <extensions>
          <ns3:TrackPointExtension>
            <ns3:hr>146</ns3:hr>
            <ns3:cad>0</ns3:cad>
          </ns3:TrackPointExtension>
        </extensions>
      </trkpt>
      <trkpt lat="45.3241769783198833465576171875" lon="-70.94358162023127079010009765625">
        <ele>840.4000244140625</ele>
        <time>2026-08-21T17:34:12.000Z</time>
        <extensions>
          <ns3:TrackPointExtension>
            <ns3:hr>146</ns3:hr>
            <ns3:cad>0</ns3:cad>
          </ns3:TrackPointExtension>
        </extensions>
      </trkpt>
      <trkpt lat="45.324180163443088531494140625" lon="-70.94358279369771480560302734375">
        <ele>840.5999755859375</ele>
        <time>2026-08-21T17:34:13.000Z</time>
        <extensions>
          <ns3:TrackPointExtension>
            <ns3:hr>146</ns3:hr>
            <ns3:cad>0</ns3:cad>
          </ns3:TrackPointExtension>
        </extensions>
      </trkpt>
      <trkpt lat="45.32417890615761280059814453125" lon="-70.9435847215354442596435546875">
        <ele>840.79998779296875</ele>
        <time>2026-08-21T17:34:14.000Z</time>
        <extensions>
          <ns3:TrackPointExtension>
            <ns3:hr>146</ns3:hr>
            <ns3:cad>0</ns3:cad>
          </ns3:TrackPointExtension>
        </extensions>
      </trkpt>
      <trkpt lat="45.32417840324342250823974609375" lon="-70.9435971267521381378173828125">
        <ele>841</ele>
        <time>2026-08-21T17:34:15.000Z</time>
        <extensions>
          <ns3:TrackPointExtension>
            <ns3:hr>145</ns3:hr>
            <ns3:cad>0</ns3:cad>
          </ns3:TrackPointExtension>
        </extensions>
      </trkpt>
      <trkpt lat="45.324181504547595977783203125" lon="-70.943605005741119384765625">
        <ele>841.20001220703125</ele>
        <time>2026-08-21T17:34:16.000Z</time>
        <extensions>
          <ns3:TrackPointExtension>
            <ns3:hr>145</ns3:hr>
            <ns3:cad>0</ns3:cad>
          </ns3:TrackPointExtension>
        </extensions>
      </trkpt>
      <trkpt lat="45.3241850249469280242919921875" lon="-70.943621098995208740234375">
        <ele>841.4000244140625</ele>
        <time>2026-08-21T17:34:17.000Z</time>
        <extensions>
          <ns3:TrackPointExtension>
            <ns3:hr>145</ns3:hr>
            <ns3:cad>0</ns3:cad>
          </ns3:TrackPointExtension>
        </extensions>
      </trkpt>
      <trkpt lat="45.32418577931821346282958984375" lon="-70.94362135045230388641357421875">
        <ele>841.5999755859375</ele>
        <time>2026-08-21T17:34:18.000Z</time>
        <extensions>
          <ns3:TrackPointExtension>
            <ns3:hr>145</ns3:hr>
            <ns3:cad>0</ns3:cad>
          </ns3:TrackPointExtension>
        </extensions>
      </trkpt>
      <trkpt lat="45.324188880622386932373046875" lon="-70.94363576732575893402099609375">
        <ele>841.79998779296875</ele>
        <time>2026-08-21T17:34:19.000Z</time>
        <extensions>
          <ns3:TrackPointExtension>
            <ns3:hr>145</ns3:hr>
            <ns3:cad>0</ns3:cad>
          </ns3:TrackPointExtension>
        </extensions>
      </trkpt>
      <trkpt lat="45.32419256865978240966796875" lon="-70.94363811425864696502685546875">
        <ele>842</ele>
        <time>2026-08-21T17:34:20.000Z</time>
        <extensions>
          <ns3:TrackPointExtension>
            <ns3:hr>145</ns3:hr>
            <ns3:cad>0</ns3:cad>
          </ns3:TrackPointExtension>
        </extensions>
      </trkpt>
      <trkpt lat="45.3242001123726367950439453125" lon="-70.94364917837083339691162109375">
        <ele>842</ele>
        <time>2026-08-21T17:34:21.000Z</time>
        <extensions>
          <ns3:TrackPointExtension>
            <ns3:hr>145</ns3:hr>
            <ns3:cad>0</ns3:cad>
          </ns3:TrackPointExtension>
        </extensions>
      </trkpt>
      <trkpt lat="45.32420329749584197998046875" lon="-70.94365102238953113555908203125">
        <ele>842.20001220703125</ele>
        <time>2026-08-21T17:34:22.000Z</time>
        <extensions>
          <ns3:TrackPointExtension>
            <ns3:hr>145</ns3:hr>
            <ns3:cad>0</ns3:cad>
          </ns3:TrackPointExtension>
        </extensions>
      </trkpt>
      <trkpt lat="45.32420773990452289581298828125" lon="-70.94365663826465606689453125">
        <ele>842.4000244140625</ele>
        <time>2026-08-21T17:34:23.000Z</time>
        <extensions>
          <ns3:TrackPointExtension>
            <ns3:hr>145</ns3:hr>
            <ns3:cad>0</ns3:cad>
          </ns3:TrackPointExtension>
        </extensions>
      </trkpt>
      <trkpt lat="45.3242121823132038116455078125" lon="-70.94365990720689296722412109375">
        <ele>842.5999755859375</ele>
        <time>2026-08-21T17:34:24.000Z</time>
        <extensions>
          <ns3:TrackPointExtension>
            <ns3:hr>145</ns3:hr>
            <ns3:cad>0</ns3:cad>
          </ns3:TrackPointExtension>
        </extensions>
      </trkpt>
      <trkpt lat="45.32421670854091644287109375" lon="-70.9436601586639881134033203125">
        <ele>842.79998779296875</ele>
        <time>2026-08-21T17:34:25.000Z</time>
        <extensions>
          <ns3:TrackPointExtension>
            <ns3:hr>146</ns3:hr>
            <ns3:cad>0</ns3:cad>
          </ns3:TrackPointExtension>
        </extensions>
      </trkpt>
      <trkpt lat="45.32422517426311969757080078125" lon="-70.94366694800555706024169921875">
        <ele>843</ele>
        <time>2026-08-21T17:34:26.000Z</time>
        <extensions>
          <ns3:TrackPointExtension>
            <ns3:hr>146</ns3:hr>
            <ns3:cad>0</ns3:cad>
          </ns3:TrackPointExtension>
        </extensions>
      </trkpt>
      <trkpt lat="45.324228443205356597900390625" lon="-70.9436661936342716217041015625">
        <ele>843.20001220703125</ele>
        <time>2026-08-21T17:34:27.000Z</time>
        <extensions>
          <ns3:TrackPointExtension>
            <ns3:hr>146</ns3:hr>
            <ns3:cad>0</ns3:cad>
          </ns3:TrackPointExtension>
        </extensions>
      </trkpt>
      <trkpt lat="45.3242359869182109832763671875" lon="-70.94366912730038166046142578125">
        <ele>843.4000244140625</ele>
        <time>2026-08-21T17:34:28.000Z</time>
        <extensions>
          <ns3:TrackPointExtension>
            <ns3:hr>146</ns3:hr>
            <ns3:cad>0</ns3:cad>
          </ns3:TrackPointExtension>
        </extensions>
      </trkpt>
      <trkpt lat="45.324244536459445953369140625" lon="-70.94366845674812793731689453125">
        <ele>843.4000244140625</ele>
        <time>2026-08-21T17:34:29.000Z</time>
        <extensions>
          <ns3:TrackPointExtension>
            <ns3:hr>146</ns3:hr>
            <ns3:cad>0</ns3:cad>
          </ns3:TrackPointExtension>
        </extensions>
      </trkpt>
      <trkpt lat="45.32426037825644016265869140625" lon="-70.9436725638806819915771484375">
        <ele>843.5999755859375</ele>
        <time>2026-08-21T17:34:30.000Z</time>
        <extensions>
          <ns3:TrackPointExtension>
            <ns3:hr>146</ns3:hr>
            <ns3:cad>0</ns3:cad>
          </ns3:TrackPointExtension>
        </extensions>
      </trkpt>
      <trkpt lat="45.32427194528281688690185546875" lon="-70.94367851503193378448486328125">
        <ele>843.79998779296875</ele>
        <time>2026-08-21T17:34:31.000Z</time>
        <extensions>
          <ns3:TrackPointExtension>
            <ns3:hr>147</ns3:hr>
            <ns3:cad>69</ns3:cad>
          </ns3:TrackPointExtension>
        </extensions>
      </trkpt>
      <trkpt lat="45.32427730970084667205810546875" lon="-70.9436779282987117767333984375">
        <ele>844</ele>
        <time>2026-08-21T17:34:32.000Z</time>
        <extensions>
          <ns3:TrackPointExtension>
            <ns3:hr>147</ns3:hr>
            <ns3:cad>69</ns3:cad>
          </ns3:TrackPointExtension>
        </extensions>
      </trkpt>
      <trkpt lat="45.324283428490161895751953125" lon="-70.94367952086031436920166015625">
        <ele>844.20001220703125</ele>
        <time>2026-08-21T17:34:33.000Z</time>
        <extensions>
          <ns3:TrackPointExtension>
            <ns3:hr>147</ns3:hr>
            <ns3:cad>75</ns3:cad>
          </ns3:TrackPointExtension>
        </extensions>
      </trkpt>
      <trkpt lat="45.3242929838597774505615234375" lon="-70.943685136735439300537109375">
        <ele>844.4000244140625</ele>
        <time>2026-08-21T17:34:34.000Z</time>
        <extensions>
          <ns3:TrackPointExtension>
            <ns3:hr>146</ns3:hr>
            <ns3:cad>0</ns3:cad>
          </ns3:TrackPointExtension>
        </extensions>
      </trkpt>
      <trkpt lat="45.32430094666779041290283203125" lon="-70.94368622638285160064697265625">
        <ele>844.5999755859375</ele>
        <time>2026-08-21T17:34:35.000Z</time>
        <extensions>
          <ns3:TrackPointExtension>
            <ns3:hr>147</ns3:hr>
            <ns3:cad>0</ns3:cad>
          </ns3:TrackPointExtension>
        </extensions>
      </trkpt>
      <trkpt lat="45.32430597580969333648681640625" lon="-70.9436859749257564544677734375">
        <ele>844.5999755859375</ele>
        <time>2026-08-21T17:34:36.000Z</time>
        <extensions>
          <ns3:TrackPointExtension>
            <ns3:hr>147</ns3:hr>
            <ns3:cad>0</ns3:cad>
          </ns3:TrackPointExtension>
        </extensions>
      </trkpt>
      <trkpt lat="45.3243104182183742523193359375" lon="-70.943684466183185577392578125">
        <ele>844.79998779296875</ele>
        <time>2026-08-21T17:34:37.000Z</time>
        <extensions>
          <ns3:TrackPointExtension>
            <ns3:hr>147</ns3:hr>
            <ns3:cad>0</ns3:cad>
          </ns3:TrackPointExtension>
        </extensions>
      </trkpt>
      <trkpt lat="45.3243181295692920684814453125" lon="-70.94368907622992992401123046875">
        <ele>844.79998779296875</ele>
        <time>2026-08-21T17:34:38.000Z</time>
        <extensions>
          <ns3:TrackPointExtension>
            <ns3:hr>146</ns3:hr>
            <ns3:cad>0</ns3:cad>
          </ns3:TrackPointExtension>
        </extensions>
      </trkpt>
      <trkpt lat="45.32432173378765583038330078125" lon="-70.94369444064795970916748046875">
        <ele>845</ele>
        <time>2026-08-21T17:34:39.000Z</time>
        <extensions>
          <ns3:TrackPointExtension>
            <ns3:hr>146</ns3:hr>
            <ns3:cad>0</ns3:cad>
          </ns3:TrackPointExtension>
        </extensions>
      </trkpt>
      <trkpt lat="45.3243244998157024383544921875" lon="-70.9436967037618160247802734375">
        <ele>845.20001220703125</ele>
        <time>2026-08-21T17:34:40.000Z</time>
        <extensions>
          <ns3:TrackPointExtension>
            <ns3:hr>146</ns3:hr>
            <ns3:cad>0</ns3:cad>
          </ns3:TrackPointExtension>
        </extensions>
      </trkpt>
      <trkpt lat="45.32432802021503448486328125" lon="-70.94369712285697460174560546875">
        <ele>845.4000244140625</ele>
        <time>2026-08-21T17:34:41.000Z</time>
        <extensions>
          <ns3:TrackPointExtension>
            <ns3:hr>145</ns3:hr>
            <ns3:cad>0</ns3:cad>
          </ns3:TrackPointExtension>
        </extensions>
      </trkpt>
      <trkpt lat="45.32432843931019306182861328125" lon="-70.9436930157244205474853515625">
        <ele>845.5999755859375</ele>
        <time>2026-08-21T17:34:42.000Z</time>
        <extensions>
          <ns3:TrackPointExtension>
            <ns3:hr>145</ns3:hr>
            <ns3:cad>0</ns3:cad>
          </ns3:TrackPointExtension>
        </extensions>
      </trkpt>
      <trkpt lat="45.32433145679533481597900390625" lon="-70.94369377009570598602294921875">
        <ele>845.79998779296875</ele>
        <time>2026-08-21T17:34:43.000Z</time>
        <extensions>
          <ns3:TrackPointExtension>
            <ns3:hr>145</ns3:hr>
            <ns3:cad>0</ns3:cad>
          </ns3:TrackPointExtension>
        </extensions>
      </trkpt>
      <trkpt lat="45.32433740794658660888671875" lon="-70.94369494356215000152587890625">
        <ele>845.79998779296875</ele>
        <time>2026-08-21T17:34:44.000Z</time>
        <extensions>
          <ns3:TrackPointExtension>
            <ns3:hr>145</ns3:hr>
            <ns3:cad>0</ns3:cad>
          </ns3:TrackPointExtension>
        </extensions>
      </trkpt>
      <trkpt lat="45.32434520311653614044189453125" lon="-70.94369762577116489410400390625">
        <ele>846</ele>
        <time>2026-08-21T17:34:45.000Z</time>
        <extensions>
          <ns3:TrackPointExtension>
            <ns3:hr>145</ns3:hr>
            <ns3:cad>0</ns3:cad>
          </ns3:TrackPointExtension>
        </extensions>
      </trkpt>
      <trkpt lat="45.32434989698231220245361328125" lon="-70.9436977095901966094970703125">
        <ele>846</ele>
        <time>2026-08-21T17:34:46.000Z</time>
        <extensions>
          <ns3:TrackPointExtension>
            <ns3:hr>145</ns3:hr>
            <ns3:cad>0</ns3:cad>
          </ns3:TrackPointExtension>
        </extensions>
      </trkpt>
      <trkpt lat="45.3243593685328960418701171875" lon="-70.943699218332767486572265625">
        <ele>846.20001220703125</ele>
        <time>2026-08-21T17:34:47.000Z</time>
        <extensions>
          <ns3:TrackPointExtension>
            <ns3:hr>144</ns3:hr>
            <ns3:cad>0</ns3:cad>
          </ns3:TrackPointExtension>
        </extensions>
      </trkpt>
      <trkpt lat="45.324362553656101226806640625" lon="-70.94369628466665744781494140625">
        <ele>846.20001220703125</ele>
        <time>2026-08-21T17:34:48.000Z</time>
        <extensions>
          <ns3:TrackPointExtension>
            <ns3:hr>144</ns3:hr>
            <ns3:cad>0</ns3:cad>
          </ns3:TrackPointExtension>
        </extensions>
      </trkpt>
      <trkpt lat="45.32436649315059185028076171875" lon="-70.94369159080088138580322265625">
        <ele>846.4000244140625</ele>
        <time>2026-08-21T17:34:49.000Z</time>
        <extensions>
          <ns3:TrackPointExtension>
            <ns3:hr>144</ns3:hr>
            <ns3:cad>44</ns3:cad>
          </ns3:TrackPointExtension>
        </extensions>
      </trkpt>
      <trkpt lat="45.3243784792721271514892578125" lon="-70.9436899982392787933349609375">
        <ele>846.4000244140625</ele>
        <time>2026-08-21T17:34:50.000Z</time>
        <extensions>
          <ns3:TrackPointExtension>
            <ns3:hr>144</ns3:hr>
            <ns3:cad>44</ns3:cad>
          </ns3:TrackPointExtension>
        </extensions>
      </trkpt>
      <trkpt lat="45.3243878670036792755126953125" lon="-70.943686477839946746826171875">
        <ele>846.5999755859375</ele>
        <time>2026-08-21T17:34:51.000Z</time>
        <extensions>
          <ns3:TrackPointExtension>
            <ns3:hr>144</ns3:hr>
            <ns3:cad>55</ns3:cad>
          </ns3:TrackPointExtension>
        </extensions>
      </trkpt>
      <trkpt lat="45.32440739683806896209716796875" lon="-70.9436806105077266693115234375">
        <ele>846.5999755859375</ele>
        <time>2026-08-21T17:34:52.000Z</time>
        <extensions>
          <ns3:TrackPointExtension>
            <ns3:hr>143</ns3:hr>
            <ns3:cad>55</ns3:cad>
          </ns3:TrackPointExtension>
        </extensions>
      </trkpt>
      <trkpt lat="45.32442164607346057891845703125" lon="-70.9436765871942043304443359375">
        <ele>846.5999755859375</ele>
        <time>2026-08-21T17:34:53.000Z</time>
        <extensions>
          <ns3:TrackPointExtension>
            <ns3:hr>143</ns3:hr>
            <ns3:cad>0</ns3:cad>
          </ns3:TrackPointExtension>
        </extensions>
      </trkpt>
      <trkpt lat="45.32443120144307613372802734375" lon="-70.9436752460896968841552734375">
        <ele>846.79998779296875</ele>
        <time>2026-08-21T17:34:54.000Z</time>
        <extensions>
          <ns3:TrackPointExtension>
            <ns3:hr>143</ns3:hr>
            <ns3:cad>0</ns3:cad>
          </ns3:TrackPointExtension>
        </extensions>
      </trkpt>
      <trkpt lat="45.324438996613025665283203125" lon="-70.9436762519180774688720703125">
        <ele>847</ele>
        <time>2026-08-21T17:34:55.000Z</time>
        <extensions>
          <ns3:TrackPointExtension>
            <ns3:hr>143</ns3:hr>
            <ns3:cad>0</ns3:cad>
          </ns3:TrackPointExtension>
        </extensions>
      </trkpt>
      <trkpt lat="45.32444360665977001190185546875" lon="-70.94367600046098232269287109375">
        <ele>847</ele>
        <time>2026-08-21T17:34:56.000Z</time>
        <extensions>
          <ns3:TrackPointExtension>
            <ns3:hr>142</ns3:hr>
            <ns3:cad>0</ns3:cad>
          </ns3:TrackPointExtension>
        </extensions>
      </trkpt>
      <trkpt lat="45.32445165328681468963623046875" lon="-70.9436806105077266693115234375">
        <ele>847.20001220703125</ele>
        <time>2026-08-21T17:34:57.000Z</time>
        <extensions>
          <ns3:TrackPointExtension>
            <ns3:hr>143</ns3:hr>
            <ns3:cad>0</ns3:cad>
          </ns3:TrackPointExtension>
        </extensions>
      </trkpt>
      <trkpt lat="45.32445517368614673614501953125" lon="-70.94368287362158298492431640625">
        <ele>847.4000244140625</ele>
        <time>2026-08-21T17:34:58.000Z</time>
        <extensions>
          <ns3:TrackPointExtension>
            <ns3:hr>143</ns3:hr>
            <ns3:cad>0</ns3:cad>
          </ns3:TrackPointExtension>
        </extensions>
      </trkpt>
      <trkpt lat="45.324453413486480712890625" lon="-70.943683795630931854248046875">
        <ele>847.5999755859375</ele>
        <time>2026-08-21T17:34:59.000Z</time>
        <extensions>
          <ns3:TrackPointExtension>
            <ns3:hr>142</ns3:hr>
            <ns3:cad>0</ns3:cad>
          </ns3:TrackPointExtension>
        </extensions>
      </trkpt>
      <trkpt lat="45.3244539164006710052490234375" lon="-70.94368689693510532379150390625">
        <ele>848</ele>
        <time>2026-08-21T17:35:00.000Z</time>
        <extensions>
          <ns3:TrackPointExtension>
            <ns3:hr>142</ns3:hr>
            <ns3:cad>0</ns3:cad>
          </ns3:TrackPointExtension>
        </extensions>
      </trkpt>
      <trkpt lat="45.324456430971622467041015625" lon="-70.9436975419521331787109375">
        <ele>848.20001220703125</ele>
        <time>2026-08-21T17:35:01.000Z</time>
        <extensions>
          <ns3:TrackPointExtension>
            <ns3:hr>142</ns3:hr>
            <ns3:cad>0</ns3:cad>
          </ns3:TrackPointExtension>
        </extensions>
      </trkpt>
      <trkpt lat="45.324455760419368743896484375" lon="-70.94370097853243350982666015625">
        <ele>848.5999755859375</ele>
        <time>2026-08-21T17:35:02.000Z</time>
        <extensions>
          <ns3:TrackPointExtension>
            <ns3:hr>142</ns3:hr>
            <ns3:cad>0</ns3:cad>
          </ns3:TrackPointExtension>
        </extensions>
      </trkpt>
      <trkpt lat="45.32445752061903476715087890625" lon="-70.9437050856649875640869140625">
        <ele>848.79998779296875</ele>
        <time>2026-08-21T17:35:03.000Z</time>
        <extensions>
          <ns3:TrackPointExtension>
            <ns3:hr>143</ns3:hr>
            <ns3:cad>0</ns3:cad>
          </ns3:TrackPointExtension>
        </extensions>
      </trkpt>
      <trkpt lat="45.3244547545909881591796875" lon="-70.9437127970159053802490234375">
        <ele>849</ele>
        <time>2026-08-21T17:35:04.000Z</time>
        <extensions>
          <ns3:TrackPointExtension>
            <ns3:hr>142</ns3:hr>
            <ns3:cad>0</ns3:cad>
          </ns3:TrackPointExtension>
        </extensions>
      </trkpt>
      <trkpt lat="45.324453413486480712890625" lon="-70.9437148086726665496826171875">
        <ele>849.20001220703125</ele>
        <time>2026-08-21T17:35:05.000Z</time>
        <extensions>
          <ns3:TrackPointExtension>
            <ns3:hr>142</ns3:hr>
            <ns3:cad>0</ns3:cad>
          </ns3:TrackPointExtension>
        </extensions>
      </trkpt>
      <trkpt lat="45.32444997690618038177490234375" lon="-70.94371707178652286529541015625">
        <ele>849.4000244140625</ele>
        <time>2026-08-21T17:35:06.000Z</time>
        <extensions>
          <ns3:TrackPointExtension>
            <ns3:hr>142</ns3:hr>
            <ns3:cad>0</ns3:cad>
          </ns3:TrackPointExtension>
        </extensions>
      </trkpt>
      <trkpt lat="45.3244522400200366973876953125" lon="-70.943725369870662689208984375">
        <ele>849.5999755859375</ele>
        <time>2026-08-21T17:35:07.000Z</time>
        <extensions>
          <ns3:TrackPointExtension>
            <ns3:hr>143</ns3:hr>
            <ns3:cad>0</ns3:cad>
          </ns3:TrackPointExtension>
        </extensions>
      </trkpt>
      <trkpt lat="45.32445140182971954345703125" lon="-70.9437319077551364898681640625">
        <ele>849.79998779296875</ele>
        <time>2026-08-21T17:35:08.000Z</time>
        <extensions>
          <ns3:TrackPointExtension>
            <ns3:hr>142</ns3:hr>
            <ns3:cad>0</ns3:cad>
          </ns3:TrackPointExtension>
        </extensions>
      </trkpt>
      <trkpt lat="45.32445165328681468963623046875" lon="-70.94374255277216434478759765625">
        <ele>850.20001220703125</ele>
        <time>2026-08-21T17:35:09.000Z</time>
        <extensions>
          <ns3:TrackPointExtension>
            <ns3:hr>142</ns3:hr>
            <ns3:cad>0</ns3:cad>
          </ns3:TrackPointExtension>
        </extensions>
      </trkpt>
      <trkpt lat="45.3244532458484172821044921875" lon="-70.943751521408557891845703125">
        <ele>850.4000244140625</ele>
        <time>2026-08-21T17:35:10.000Z</time>
        <extensions>
          <ns3:TrackPointExtension>
            <ns3:hr>141</ns3:hr>
            <ns3:cad>0</ns3:cad>
          </ns3:TrackPointExtension>
        </extensions>
      </trkpt>
      <trkpt lat="45.324451066553592681884765625" lon="-70.94375680200755596160888671875">
        <ele>850.5999755859375</ele>
        <time>2026-08-21T17:35:11.000Z</time>
        <extensions>
          <ns3:TrackPointExtension>
            <ns3:hr>141</ns3:hr>
            <ns3:cad>0</ns3:cad>
          </ns3:TrackPointExtension>
        </extensions>
      </trkpt>
      <trkpt lat="45.324451066553592681884765625" lon="-70.94376652501523494720458984375">
        <ele>850.79998779296875</ele>
        <time>2026-08-21T17:35:12.000Z</time>
        <extensions>
          <ns3:TrackPointExtension>
            <ns3:hr>141</ns3:hr>
            <ns3:cad>0</ns3:cad>
          </ns3:TrackPointExtension>
        </extensions>
      </trkpt>
      <trkpt lat="45.32445140182971954345703125" lon="-70.94377624802291393280029296875">
        <ele>851</ele>
        <time>2026-08-21T17:35:13.000Z</time>
        <extensions>
          <ns3:TrackPointExtension>
            <ns3:hr>141</ns3:hr>
            <ns3:cad>0</ns3:cad>
          </ns3:TrackPointExtension>
        </extensions>
      </trkpt>
      <trkpt lat="45.32445299439132213592529296875" lon="-70.94378144480288028717041015625">
        <ele>851.4000244140625</ele>
        <time>2026-08-21T17:35:14.000Z</time>
        <extensions>
          <ns3:TrackPointExtension>
            <ns3:hr>142</ns3:hr>
            <ns3:cad>0</ns3:cad>
          </ns3:TrackPointExtension>
        </extensions>
      </trkpt>
      <trkpt lat="45.32445182092487812042236328125" lon="-70.943785049021244049072265625">
        <ele>851.5999755859375</ele>
        <time>2026-08-21T17:35:15.000Z</time>
        <extensions>
          <ns3:TrackPointExtension>
            <ns3:hr>141</ns3:hr>
            <ns3:cad>0</ns3:cad>
          </ns3:TrackPointExtension>
        </extensions>
      </trkpt>
      <trkpt lat="45.324452407658100128173828125" lon="-70.9437892399728298187255859375">
        <ele>851.79998779296875</ele>
        <time>2026-08-21T17:35:16.000Z</time>
        <extensions>
          <ns3:TrackPointExtension>
            <ns3:hr>141</ns3:hr>
            <ns3:cad>0</ns3:cad>
          </ns3:TrackPointExtension>
        </extensions>
      </trkpt>
      <trkpt lat="45.3244522400200366973876953125" lon="-70.94379485584795475006103515625">
        <ele>852</ele>
        <time>2026-08-21T17:35:17.000Z</time>
        <extensions>
          <ns3:TrackPointExtension>
            <ns3:hr>142</ns3:hr>
            <ns3:cad>0</ns3:cad>
          </ns3:TrackPointExtension>
        </extensions>
      </trkpt>
      <trkpt lat="45.3244545869529247283935546875" lon="-70.94380156137049198150634765625">
        <ele>852.20001220703125</ele>
        <time>2026-08-21T17:35:18.000Z</time>
        <extensions>
          <ns3:TrackPointExtension>
            <ns3:hr>141</ns3:hr>
            <ns3:cad>0</ns3:cad>
          </ns3:TrackPointExtension>
        </extensions>
      </trkpt>
      <trkpt lat="45.32445886172354221343994140625" lon="-70.9438169002532958984375">
        <ele>852.5999755859375</ele>
        <time>2026-08-21T17:35:19.000Z</time>
        <extensions>
          <ns3:TrackPointExtension>
            <ns3:hr>142</ns3:hr>
            <ns3:cad>0</ns3:cad>
          </ns3:TrackPointExtension>
        </extensions>
      </trkpt>
      <trkpt lat="45.32446087338030338287353515625" lon="-70.94382285140454769134521484375">
        <ele>852.79998779296875</ele>
        <time>2026-08-21T17:35:20.000Z</time>
        <extensions>
          <ns3:TrackPointExtension>
            <ns3:hr>142</ns3:hr>
            <ns3:cad>0</ns3:cad>
          </ns3:TrackPointExtension>
        </extensions>
      </trkpt>
      <trkpt lat="45.32446405850350856781005859375" lon="-70.9438288025557994842529296875">
        <ele>853</ele>
        <time>2026-08-21T17:35:21.000Z</time>
        <extensions>
          <ns3:TrackPointExtension>
            <ns3:hr>142</ns3:hr>
            <ns3:cad>0</ns3:cad>
          </ns3:TrackPointExtension>
        </extensions>
      </trkpt>
      <trkpt lat="45.32447193749248981475830078125" lon="-70.9438418783247470855712890625">
        <ele>853.20001220703125</ele>
        <time>2026-08-21T17:35:22.000Z</time>
        <extensions>
          <ns3:TrackPointExtension>
            <ns3:hr>141</ns3:hr>
            <ns3:cad>0</ns3:cad>
          </ns3:TrackPointExtension>
        </extensions>
      </trkpt>
      <trkpt lat="45.3244757093489170074462890625" lon="-70.94384699128568172454833984375">
        <ele>853.4000244140625</ele>
        <time>2026-08-21T17:35:23.000Z</time>
        <extensions>
          <ns3:TrackPointExtension>
            <ns3:hr>142</ns3:hr>
            <ns3:cad>41</ns3:cad>
          </ns3:TrackPointExtension>
        </extensions>
      </trkpt>
      <trkpt lat="45.32448199577629566192626953125" lon="-70.94385621137917041778564453125">
        <ele>853.5999755859375</ele>
        <time>2026-08-21T17:35:24.000Z</time>
        <extensions>
          <ns3:TrackPointExtension>
            <ns3:hr>142</ns3:hr>
            <ns3:cad>41</ns3:cad>
          </ns3:TrackPointExtension>
        </extensions>
      </trkpt>
      <trkpt lat="45.3244884498417377471923828125" lon="-70.94386518001556396484375">
        <ele>853.79998779296875</ele>
        <time>2026-08-21T17:35:25.000Z</time>
        <extensions>
          <ns3:TrackPointExtension>
            <ns3:hr>142</ns3:hr>
            <ns3:cad>41</ns3:cad>
          </ns3:TrackPointExtension>
        </extensions>
      </trkpt>
      <trkpt lat="45.3244921378791332244873046875" lon="-70.94387180171906948089599609375">
        <ele>854</ele>
        <time>2026-08-21T17:35:26.000Z</time>
        <extensions>
          <ns3:TrackPointExtension>
            <ns3:hr>142</ns3:hr>
            <ns3:cad>41</ns3:cad>
          </ns3:TrackPointExtension>
        </extensions>
      </trkpt>
      <trkpt lat="45.3244931437075138092041015625" lon="-70.94387481920421123504638671875">
        <ele>854.4000244140625</ele>
        <time>2026-08-21T17:35:27.000Z</time>
        <extensions>
          <ns3:TrackPointExtension>
            <ns3:hr>143</ns3:hr>
            <ns3:cad>20</ns3:cad>
          </ns3:TrackPointExtension>
        </extensions>
      </trkpt>
      <trkpt lat="45.3244949877262115478515625" lon="-70.94388253055512905120849609375">
        <ele>854.5999755859375</ele>
        <time>2026-08-21T17:35:28.000Z</time>
        <extensions>
          <ns3:TrackPointExtension>
            <ns3:hr>142</ns3:hr>
            <ns3:cad>20</ns3:cad>
          </ns3:TrackPointExtension>
        </extensions>
      </trkpt>
      <trkpt lat="45.32449322752654552459716796875" lon="-70.94389024190604686737060546875">
        <ele>854.79998779296875</ele>
        <time>2026-08-21T17:35:29.000Z</time>
        <extensions>
          <ns3:TrackPointExtension>
            <ns3:hr>143</ns3:hr>
            <ns3:cad>20</ns3:cad>
          </ns3:TrackPointExtension>
        </extensions>
      </trkpt>
      <trkpt lat="45.3244941495358943939208984375" lon="-70.94389510340988636016845703125">
        <ele>855</ele>
        <time>2026-08-21T17:35:30.000Z</time>
        <extensions>
          <ns3:TrackPointExtension>
            <ns3:hr>143</ns3:hr>
            <ns3:cad>20</ns3:cad>
          </ns3:TrackPointExtension>
        </extensions>
      </trkpt>
      <trkpt lat="45.3244938142597675323486328125" lon="-70.94390482641756534576416015625">
        <ele>855.20001220703125</ele>
        <time>2026-08-21T17:35:31.000Z</time>
        <extensions>
          <ns3:TrackPointExtension>
            <ns3:hr>143</ns3:hr>
            <ns3:cad>20</ns3:cad>
          </ns3:TrackPointExtension>
        </extensions>
      </trkpt>
      <trkpt lat="45.32449440099298954010009765625" lon="-70.9439136274158954620361328125">
        <ele>855.4000244140625</ele>
        <time>2026-08-21T17:35:32.000Z</time>
        <extensions>
          <ns3:TrackPointExtension>
            <ns3:hr>143</ns3:hr>
            <ns3:cad>80</ns3:cad>
          </ns3:TrackPointExtension>
        </extensions>
      </trkpt>
      <trkpt lat="45.32449389807879924774169921875" lon="-70.94392351806163787841796875">
        <ele>855.5999755859375</ele>
        <time>2026-08-21T17:35:33.000Z</time>
        <extensions>
          <ns3:TrackPointExtension>
            <ns3:hr>144</ns3:hr>
            <ns3:cad>80</ns3:cad>
          </ns3:TrackPointExtension>
        </extensions>
      </trkpt>
      <trkpt lat="45.32449473626911640167236328125" lon="-70.94393651001155376434326171875">
        <ele>855.5999755859375</ele>
        <time>2026-08-21T17:35:34.000Z</time>
        <extensions>
          <ns3:TrackPointExtension>
            <ns3:hr>144</ns3:hr>
            <ns3:cad>80</ns3:cad>
          </ns3:TrackPointExtension>
        </extensions>
      </trkpt>
      <trkpt lat="45.32449473626911640167236328125" lon="-70.9439488314092159271240234375">
        <ele>855.79998779296875</ele>
        <time>2026-08-21T17:35:35.000Z</time>
        <extensions>
          <ns3:TrackPointExtension>
            <ns3:hr>145</ns3:hr>
            <ns3:cad>51</ns3:cad>
          </ns3:TrackPointExtension>
        </extensions>
      </trkpt>
      <trkpt lat="45.324493981897830963134765625" lon="-70.94396450556814670562744140625">
        <ele>856</ele>
        <time>2026-08-21T17:35:36.000Z</time>
        <extensions>
          <ns3:TrackPointExtension>
            <ns3:hr>145</ns3:hr>
            <ns3:cad>51</ns3:cad>
          </ns3:TrackPointExtension>
        </extensions>
      </trkpt>
      <trkpt lat="45.32449708320200443267822265625" lon="-70.94397582113742828369140625">
        <ele>856</ele>
        <time>2026-08-21T17:35:37.000Z</time>
        <extensions>
          <ns3:TrackPointExtension>
            <ns3:hr>145</ns3:hr>
            <ns3:cad>51</ns3:cad>
          </ns3:TrackPointExtension>
        </extensions>
      </trkpt>
      <trkpt lat="45.32449641264975070953369140625" lon="-70.94398294575512409210205078125">
        <ele>856.20001220703125</ele>
        <time>2026-08-21T17:35:38.000Z</time>
        <extensions>
          <ns3:TrackPointExtension>
            <ns3:hr>145</ns3:hr>
            <ns3:cad>51</ns3:cad>
          </ns3:TrackPointExtension>
        </extensions>
      </trkpt>
      <trkpt lat="45.32449607737362384796142578125" lon="-70.9439927525818347930908203125">
        <ele>856.4000244140625</ele>
        <time>2026-08-21T17:35:39.000Z</time>
        <extensions>
          <ns3:TrackPointExtension>
            <ns3:hr>145</ns3:hr>
            <ns3:cad>51</ns3:cad>
          </ns3:TrackPointExtension>
        </extensions>
      </trkpt>
      <trkpt lat="45.32449699938297271728515625" lon="-70.94399970956146717071533203125">
        <ele>856.5999755859375</ele>
        <time>2026-08-21T17:35:40.000Z</time>
        <extensions>
          <ns3:TrackPointExtension>
            <ns3:hr>146</ns3:hr>
            <ns3:cad>47</ns3:cad>
          </ns3:TrackPointExtension>
        </extensions>
      </trkpt>
      <trkpt lat="45.324493311345577239990234375" lon="-70.94400775618851184844970703125">
        <ele>856.5999755859375</ele>
        <time>2026-08-21T17:35:41.000Z</time>
        <extensions>
          <ns3:TrackPointExtension>
            <ns3:hr>146</ns3:hr>
            <ns3:cad>47</ns3:cad>
          </ns3:TrackPointExtension>
        </extensions>
      </trkpt>
      <trkpt lat="45.32449297606945037841796875" lon="-70.94401337206363677978515625">
        <ele>856.79998779296875</ele>
        <time>2026-08-21T17:35:42.000Z</time>
        <extensions>
          <ns3:TrackPointExtension>
            <ns3:hr>147</ns3:hr>
            <ns3:cad>47</ns3:cad>
          </ns3:TrackPointExtension>
        </extensions>
      </trkpt>
      <trkpt lat="45.32449305988848209381103515625" lon="-70.9440246038138866424560546875">
        <ele>856.79998779296875</ele>
        <time>2026-08-21T17:35:43.000Z</time>
        <extensions>
          <ns3:TrackPointExtension>
            <ns3:hr>147</ns3:hr>
            <ns3:cad>47</ns3:cad>
          </ns3:TrackPointExtension>
        </extensions>
      </trkpt>
      <trkpt lat="45.32449121586978435516357421875" lon="-70.94404153525829315185546875">
        <ele>857</ele>
        <time>2026-08-21T17:35:44.000Z</time>
        <extensions>
          <ns3:TrackPointExtension>
            <ns3:hr>147</ns3:hr>
            <ns3:cad>47</ns3:cad>
          </ns3:TrackPointExtension>
        </extensions>
      </trkpt>
      <trkpt lat="45.32449574209749698638916015625" lon="-70.94405628740787506103515625">
        <ele>857.20001220703125</ele>
        <time>2026-08-21T17:35:45.000Z</time>
        <extensions>
          <ns3:TrackPointExtension>
            <ns3:hr>146</ns3:hr>
            <ns3:cad>0</ns3:cad>
          </ns3:TrackPointExtension>
        </extensions>
      </trkpt>
      <trkpt lat="45.3244968317449092864990234375" lon="-70.94406626187264919281005859375">
        <ele>857.4000244140625</ele>
        <time>2026-08-21T17:35:46.000Z</time>
        <extensions>
          <ns3:TrackPointExtension>
            <ns3:hr>147</ns3:hr>
            <ns3:cad>0</ns3:cad>
          </ns3:TrackPointExtension>
        </extensions>
      </trkpt>
      <trkpt lat="45.32450110651552677154541015625" lon="-70.9440799243748188018798828125">
        <ele>857.5999755859375</ele>
        <time>2026-08-21T17:35:47.000Z</time>
        <extensions>
          <ns3:TrackPointExtension>
            <ns3:hr>146</ns3:hr>
            <ns3:cad>0</ns3:cad>
          </ns3:TrackPointExtension>
        </extensions>
      </trkpt>
      <trkpt lat="45.32450479455292224884033203125" lon="-70.94408235512673854827880859375">
        <ele>857.5999755859375</ele>
        <time>2026-08-21T17:35:48.000Z</time>
        <extensions>
          <ns3:TrackPointExtension>
            <ns3:hr>146</ns3:hr>
            <ns3:cad>0</ns3:cad>
          </ns3:TrackPointExtension>
        </extensions>
      </trkpt>
      <trkpt lat="45.32451384700834751129150390625" lon="-70.94408956356346607208251953125">
        <ele>857.79998779296875</ele>
        <time>2026-08-21T17:35:49.000Z</time>
        <extensions>
          <ns3:TrackPointExtension>
            <ns3:hr>145</ns3:hr>
            <ns3:cad>0</ns3:cad>
          </ns3:TrackPointExtension>
        </extensions>
      </trkpt>
      <trkpt lat="45.32451837323606014251708984375" lon="-70.9440990351140499114990234375">
        <ele>858</ele>
        <time>2026-08-21T17:35:50.000Z</time>
        <extensions>
          <ns3:TrackPointExtension>
            <ns3:hr>145</ns3:hr>
            <ns3:cad>0</ns3:cad>
          </ns3:TrackPointExtension>
        </extensions>
      </trkpt>
      <trkpt lat="45.32451979815959930419921875" lon="-70.94410590827465057373046875">
        <ele>858.20001220703125</ele>
        <time>2026-08-21T17:35:51.000Z</time>
        <extensions>
          <ns3:TrackPointExtension>
            <ns3:hr>145</ns3:hr>
            <ns3:cad>0</ns3:cad>
          </ns3:TrackPointExtension>
        </extensions>
      </trkpt>
      <trkpt lat="45.32453052699565887451171875" lon="-70.94411470927298069000244140625">
        <ele>858.4000244140625</ele>
        <time>2026-08-21T17:35:52.000Z</time>
        <extensions>
          <ns3:TrackPointExtension>
            <ns3:hr>145</ns3:hr>
            <ns3:cad>0</ns3:cad>
          </ns3:TrackPointExtension>
        </extensions>
      </trkpt>
      <trkpt lat="45.32453513704240322113037109375" lon="-70.94412066042423248291015625">
        <ele>858.79998779296875</ele>
        <time>2026-08-21T17:35:53.000Z</time>
        <extensions>
          <ns3:TrackPointExtension>
            <ns3:hr>144</ns3:hr>
            <ns3:cad>0</ns3:cad>
          </ns3:TrackPointExtension>
        </extensions>
      </trkpt>
      <trkpt lat="45.32454201020300388336181640625" lon="-70.94412459991872310638427734375">
        <ele>859</ele>
        <time>2026-08-21T17:35:54.000Z</time>
        <extensions>
          <ns3:TrackPointExtension>
            <ns3:hr>144</ns3:hr>
            <ns3:cad>0</ns3:cad>
          </ns3:TrackPointExtension>
        </extensions>
      </trkpt>
      <trkpt lat="45.324548967182636260986328125" lon="-70.94412962906062602996826171875">
        <ele>859.20001220703125</ele>
        <time>2026-08-21T17:35:55.000Z</time>
        <extensions>
          <ns3:TrackPointExtension>
            <ns3:hr>144</ns3:hr>
            <ns3:cad>0</ns3:cad>
          </ns3:TrackPointExtension>
        </extensions>
      </trkpt>
      <trkpt lat="45.32455123029649257659912109375" lon="-70.944131053984165191650390625">
        <ele>859.4000244140625</ele>
        <time>2026-08-21T17:35:56.000Z</time>
        <extensions>
          <ns3:TrackPointExtension>
            <ns3:hr>144</ns3:hr>
            <ns3:cad>0</ns3:cad>
          </ns3:TrackPointExtension>
        </extensions>
      </trkpt>
      <trkpt lat="45.324558354914188385009765625" lon="-70.94414102844893932342529296875">
        <ele>859.5999755859375</ele>
        <time>2026-08-21T17:35:57.000Z</time>
        <extensions>
          <ns3:TrackPointExtension>
            <ns3:hr>145</ns3:hr>
            <ns3:cad>0</ns3:cad>
          </ns3:TrackPointExtension>
        </extensions>
      </trkpt>
      <trkpt lat="45.324563719332218170166015625" lon="-70.94414588995277881622314453125">
        <ele>859.79998779296875</ele>
        <time>2026-08-21T17:35:58.000Z</time>
        <extensions>
          <ns3:TrackPointExtension>
            <ns3:hr>144</ns3:hr>
            <ns3:cad>0</ns3:cad>
          </ns3:TrackPointExtension>
        </extensions>
      </trkpt>
      <trkpt lat="45.32456648536026477813720703125" lon="-70.94415024854242801666259765625">
        <ele>860</ele>
        <time>2026-08-21T17:35:59.000Z</time>
        <extensions>
          <ns3:TrackPointExtension>
            <ns3:hr>144</ns3:hr>
            <ns3:cad>0</ns3:cad>
          </ns3:TrackPointExtension>
        </extensions>
      </trkpt>
      <trkpt lat="45.3245702572166919708251953125" lon="-70.94414454884827136993408203125">
        <ele>860.20001220703125</ele>
        <time>2026-08-21T17:36:00.000Z</time>
        <extensions>
          <ns3:TrackPointExtension>
            <ns3:hr>144</ns3:hr>
            <ns3:cad>0</ns3:cad>
          </ns3:TrackPointExtension>
        </extensions>
      </trkpt>
      <trkpt lat="45.3245781362056732177734375" lon="-70.9441556967794895172119140625">
        <ele>860.4000244140625</ele>
        <time>2026-08-21T17:36:01.000Z</time>
        <extensions>
          <ns3:TrackPointExtension>
            <ns3:hr>145</ns3:hr>
            <ns3:cad>0</ns3:cad>
          </ns3:TrackPointExtension>
        </extensions>
      </trkpt>
      <trkpt lat="45.32458224333822727203369140625" lon="-70.94415687024593353271484375">
        <ele>860.5999755859375</ele>
        <time>2026-08-21T17:36:02.000Z</time>
        <extensions>
          <ns3:TrackPointExtension>
            <ns3:hr>145</ns3:hr>
            <ns3:cad>0</ns3:cad>
          </ns3:TrackPointExtension>
        </extensions>
      </trkpt>
      <trkpt lat="45.324587859213352203369140625" lon="-70.94416416250169277191162109375">
        <ele>860.79998779296875</ele>
        <time>2026-08-21T17:36:03.000Z</time>
        <extensions>
          <ns3:TrackPointExtension>
            <ns3:hr>145</ns3:hr>
            <ns3:cad>0</ns3:cad>
          </ns3:TrackPointExtension>
        </extensions>
      </trkpt>
      <trkpt lat="45.32459733076393604278564453125" lon="-70.9441758133471012115478515625">
        <ele>861</ele>
        <time>2026-08-21T17:36:04.000Z</time>
        <extensions>
          <ns3:TrackPointExtension>
            <ns3:hr>145</ns3:hr>
            <ns3:cad>0</ns3:cad>
          </ns3:TrackPointExtension>
        </extensions>
      </trkpt>
      <trkpt lat="45.32460168935358524322509765625" lon="-70.944177322089672088623046875">
        <ele>861.20001220703125</ele>
        <time>2026-08-21T17:36:05.000Z</time>
        <extensions>
          <ns3:TrackPointExtension>
            <ns3:hr>145</ns3:hr>
            <ns3:cad>0</ns3:cad>
          </ns3:TrackPointExtension>
        </extensions>
      </trkpt>
      <trkpt lat="45.324609316885471343994140625" lon="-70.9441857039928436279296875">
        <ele>861.4000244140625</ele>
        <time>2026-08-21T17:36:06.000Z</time>
        <extensions>
          <ns3:TrackPointExtension>
            <ns3:hr>144</ns3:hr>
            <ns3:cad>0</ns3:cad>
          </ns3:TrackPointExtension>
        </extensions>
      </trkpt>
      <trkpt lat="45.32461577095091342926025390625" lon="-70.94419308006763458251953125">
        <ele>861.5999755859375</ele>
        <time>2026-08-21T17:36:07.000Z</time>
        <extensions>
          <ns3:TrackPointExtension>
            <ns3:hr>144</ns3:hr>
            <ns3:cad>75</ns3:cad>
          </ns3:TrackPointExtension>
        </extensions>
      </trkpt>
      <trkpt lat="45.32461962662637233734130859375" lon="-70.94419266097247600555419921875">
        <ele>861.79998779296875</ele>
        <time>2026-08-21T17:36:08.000Z</time>
        <extensions>
          <ns3:TrackPointExtension>
            <ns3:hr>144</ns3:hr>
            <ns3:cad>75</ns3:cad>
          </ns3:TrackPointExtension>
        </extensions>
      </trkpt>
      <trkpt lat="45.324628092348575592041015625" lon="-70.94420087523758411407470703125">
        <ele>861.79998779296875</ele>
        <time>2026-08-21T17:36:09.000Z</time>
        <extensions>
          <ns3:TrackPointExtension>
            <ns3:hr>144</ns3:hr>
            <ns3:cad>0</ns3:cad>
          </ns3:TrackPointExtension>
        </extensions>
      </trkpt>
      <trkpt lat="45.32463236711919307708740234375" lon="-70.94420389272272586822509765625">
        <ele>862</ele>
        <time>2026-08-21T17:36:10.000Z</time>
        <extensions>
          <ns3:TrackPointExtension>
            <ns3:hr>144</ns3:hr>
            <ns3:cad>0</ns3:cad>
          </ns3:TrackPointExtension>
        </extensions>
      </trkpt>
      <trkpt lat="45.32464007847011089324951171875" lon="-70.94420758076012134552001953125">
        <ele>862.20001220703125</ele>
        <time>2026-08-21T17:36:11.000Z</time>
        <extensions>
          <ns3:TrackPointExtension>
            <ns3:hr>145</ns3:hr>
            <ns3:cad>0</ns3:cad>
          </ns3:TrackPointExtension>
        </extensions>
      </trkpt>
      <trkpt lat="45.3246480412781238555908203125" lon="-70.9442160464823246002197265625">
        <ele>862.4000244140625</ele>
        <time>2026-08-21T17:36:12.000Z</time>
        <extensions>
          <ns3:TrackPointExtension>
            <ns3:hr>144</ns3:hr>
            <ns3:cad>0</ns3:cad>
          </ns3:TrackPointExtension>
        </extensions>
      </trkpt>
      <trkpt lat="45.32464946620166301727294921875" lon="-70.9442183934152126312255859375">
        <ele>862.5999755859375</ele>
        <time>2026-08-21T17:36:13.000Z</time>
        <extensions>
          <ns3:TrackPointExtension>
            <ns3:hr>144</ns3:hr>
            <ns3:cad>0</ns3:cad>
          </ns3:TrackPointExtension>
        </extensions>
      </trkpt>
      <trkpt lat="45.32465524971485137939453125" lon="-70.94422132708132266998291015625">
        <ele>862.5999755859375</ele>
        <time>2026-08-21T17:36:14.000Z</time>
        <extensions>
          <ns3:TrackPointExtension>
            <ns3:hr>144</ns3:hr>
            <ns3:cad>0</ns3:cad>
          </ns3:TrackPointExtension>
        </extensions>
      </trkpt>
      <trkpt lat="45.32466270960867404937744140625" lon="-70.94422602094709873199462890625">
        <ele>862.79998779296875</ele>
        <time>2026-08-21T17:36:15.000Z</time>
        <extensions>
          <ns3:TrackPointExtension>
            <ns3:hr>144</ns3:hr>
            <ns3:cad>0</ns3:cad>
          </ns3:TrackPointExtension>
        </extensions>
      </trkpt>
      <trkpt lat="45.32466740347445011138916015625" lon="-70.94422987662255764007568359375">
        <ele>863</ele>
        <time>2026-08-21T17:36:16.000Z</time>
        <extensions>
          <ns3:TrackPointExtension>
            <ns3:hr>145</ns3:hr>
            <ns3:cad>0</ns3:cad>
          </ns3:TrackPointExtension>
        </extensions>
      </trkpt>
      <trkpt lat="45.324666313827037811279296875" lon="-70.9442318044602870941162109375">
        <ele>863.20001220703125</ele>
        <time>2026-08-21T17:36:17.000Z</time>
        <extensions>
          <ns3:TrackPointExtension>
            <ns3:hr>144</ns3:hr>
            <ns3:cad>0</ns3:cad>
          </ns3:TrackPointExtension>
        </extensions>
      </trkpt>
      <trkpt lat="45.3246693313121795654296875" lon="-70.9442371688783168792724609375">
        <ele>863.4000244140625</ele>
        <time>2026-08-21T17:36:18.000Z</time>
        <extensions>
          <ns3:TrackPointExtension>
            <ns3:hr>144</ns3:hr>
            <ns3:cad>0</ns3:cad>
          </ns3:TrackPointExtension>
        </extensions>
      </trkpt>
      <trkpt lat="45.32467092387378215789794921875" lon="-70.94424060545861721038818359375">
        <ele>863.5999755859375</ele>
        <time>2026-08-21T17:36:19.000Z</time>
        <extensions>
          <ns3:TrackPointExtension>
            <ns3:hr>145</ns3:hr>
            <ns3:cad>0</ns3:cad>
          </ns3:TrackPointExtension>
        </extensions>
      </trkpt>
      <trkpt lat="45.32467477954924106597900390625" lon="-70.94424647279083728790283203125">
        <ele>863.79998779296875</ele>
        <time>2026-08-21T17:36:20.000Z</time>
        <extensions>
          <ns3:TrackPointExtension>
            <ns3:hr>145</ns3:hr>
            <ns3:cad>0</ns3:cad>
          </ns3:TrackPointExtension>
        </extensions>
      </trkpt>
      <trkpt lat="45.32467930577695369720458984375" lon="-70.94425401650369167327880859375">
        <ele>863.79998779296875</ele>
        <time>2026-08-21T17:36:21.000Z</time>
        <extensions>
          <ns3:TrackPointExtension>
            <ns3:hr>145</ns3:hr>
            <ns3:cad>0</ns3:cad>
          </ns3:TrackPointExtension>
        </extensions>
      </trkpt>
      <trkpt lat="45.32468232326209545135498046875" lon="-70.9442566148936748504638671875">
        <ele>864</ele>
        <time>2026-08-21T17:36:22.000Z</time>
        <extensions>
          <ns3:TrackPointExtension>
            <ns3:hr>144</ns3:hr>
            <ns3:cad>0</ns3:cad>
          </ns3:TrackPointExtension>
        </extensions>
      </trkpt>
      <trkpt lat="45.324686430394649505615234375" lon="-70.94426072202622890472412109375">
        <ele>864.20001220703125</ele>
        <time>2026-08-21T17:36:23.000Z</time>
        <extensions>
          <ns3:TrackPointExtension>
            <ns3:hr>144</ns3:hr>
            <ns3:cad>0</ns3:cad>
          </ns3:TrackPointExtension>
        </extensions>
      </trkpt>
      <trkpt lat="45.32469104044139385223388671875" lon="-70.9442690201103687286376953125">
        <ele>864.20001220703125</ele>
        <time>2026-08-21T17:36:24.000Z</time>
        <extensions>
          <ns3:TrackPointExtension>
            <ns3:hr>144</ns3:hr>
            <ns3:cad>68</ns3:cad>
          </ns3:TrackPointExtension>
        </extensions>
      </trkpt>
      <trkpt lat="45.3246946446597576141357421875" lon="-70.9442768990993499755859375">
        <ele>864.4000244140625</ele>
        <time>2026-08-21T17:36:25.000Z</time>
        <extensions>
          <ns3:TrackPointExtension>
            <ns3:hr>144</ns3:hr>
            <ns3:cad>68</ns3:cad>
          </ns3:TrackPointExtension>
        </extensions>
      </trkpt>
      <trkpt lat="45.32469724304974079132080078125" lon="-70.94428150914609432220458984375">
        <ele>864.5999755859375</ele>
        <time>2026-08-21T17:36:26.000Z</time>
        <extensions>
          <ns3:TrackPointExtension>
            <ns3:hr>144</ns3:hr>
            <ns3:cad>61</ns3:cad>
          </ns3:TrackPointExtension>
        </extensions>
      </trkpt>
      <trkpt lat="45.3247036971151828765869140625" lon="-70.944291315972805023193359375">
        <ele>864.79998779296875</ele>
        <time>2026-08-21T17:36:27.000Z</time>
        <extensions>
          <ns3:TrackPointExtension>
            <ns3:hr>144</ns3:hr>
            <ns3:cad>61</ns3:cad>
          </ns3:TrackPointExtension>
        </extensions>
      </trkpt>
      <trkpt lat="45.3247117437422275543212890625" lon="-70.9443002007901668548583984375">
        <ele>864.79998779296875</ele>
        <time>2026-08-21T17:36:28.000Z</time>
        <extensions>
          <ns3:TrackPointExtension>
            <ns3:hr>144</ns3:hr>
            <ns3:cad>61</ns3:cad>
          </ns3:TrackPointExtension>
        </extensions>
      </trkpt>
      <trkpt lat="45.3247187845408916473388671875" lon="-70.9443055652081966400146484375">
        <ele>865</ele>
        <time>2026-08-21T17:36:29.000Z</time>
        <extensions>
          <ns3:TrackPointExtension>
            <ns3:hr>143</ns3:hr>
            <ns3:cad>61</ns3:cad>
          </ns3:TrackPointExtension>
        </extensions>
      </trkpt>
      <trkpt lat="45.32471886835992336273193359375" lon="-70.94431101344525814056396484375">
        <ele>865.20001220703125</ele>
        <time>2026-08-21T17:36:30.000Z</time>
        <extensions>
          <ns3:TrackPointExtension>
            <ns3:hr>143</ns3:hr>
            <ns3:cad>61</ns3:cad>
          </ns3:TrackPointExtension>
        </extensions>
      </trkpt>
      <trkpt lat="45.324725322425365447998046875" lon="-70.9443171322345733642578125">
        <ele>865.4000244140625</ele>
        <time>2026-08-21T17:36:31.000Z</time>
        <extensions>
          <ns3:TrackPointExtension>
            <ns3:hr>142</ns3:hr>
            <ns3:cad>69</ns3:cad>
          </ns3:TrackPointExtension>
        </extensions>
      </trkpt>
      <trkpt lat="45.3247310221195220947265625" lon="-70.94432274810969829559326171875">
        <ele>865.5999755859375</ele>
        <time>2026-08-21T17:36:32.000Z</time>
        <extensions>
          <ns3:TrackPointExtension>
            <ns3:hr>142</ns3:hr>
            <ns3:cad>69</ns3:cad>
          </ns3:TrackPointExtension>
        </extensions>
      </trkpt>
      <trkpt lat="45.32473839819431304931640625" lon="-70.94432576559484004974365234375">
        <ele>865.79998779296875</ele>
        <time>2026-08-21T17:36:33.000Z</time>
        <extensions>
          <ns3:TrackPointExtension>
            <ns3:hr>142</ns3:hr>
            <ns3:cad>69</ns3:cad>
          </ns3:TrackPointExtension>
        </extensions>
      </trkpt>
      <trkpt lat="45.324743427336215972900390625" lon="-70.9443266876041889190673828125">
        <ele>866</ele>
        <time>2026-08-21T17:36:34.000Z</time>
        <extensions>
          <ns3:TrackPointExtension>
            <ns3:hr>142</ns3:hr>
            <ns3:cad>69</ns3:cad>
          </ns3:TrackPointExtension>
        </extensions>
      </trkpt>
      <trkpt lat="45.32474988140165805816650390625" lon="-70.94433397985994815826416015625">
        <ele>866.20001220703125</ele>
        <time>2026-08-21T17:36:35.000Z</time>
        <extensions>
          <ns3:TrackPointExtension>
            <ns3:hr>142</ns3:hr>
            <ns3:cad>69</ns3:cad>
          </ns3:TrackPointExtension>
        </extensions>
      </trkpt>
      <trkpt lat="45.3247580118477344512939453125" lon="-70.94434504397213459014892578125">
        <ele>866.4000244140625</ele>
        <time>2026-08-21T17:36:36.000Z</time>
        <extensions>
          <ns3:TrackPointExtension>
            <ns3:hr>142</ns3:hr>
            <ns3:cad>75</ns3:cad>
          </ns3:TrackPointExtension>
        </extensions>
      </trkpt>
      <trkpt lat="45.324764885008335113525390625" lon="-70.944347642362117767333984375">
        <ele>866.5999755859375</ele>
        <time>2026-08-21T17:36:37.000Z</time>
        <extensions>
          <ns3:TrackPointExtension>
            <ns3:hr>142</ns3:hr>
            <ns3:cad>75</ns3:cad>
          </ns3:TrackPointExtension>
        </extensions>
      </trkpt>
      <trkpt lat="45.32477133907377719879150390625" lon="-70.94435275532305240631103515625">
        <ele>866.5999755859375</ele>
        <time>2026-08-21T17:36:38.000Z</time>
        <extensions>
          <ns3:TrackPointExtension>
            <ns3:hr>142</ns3:hr>
            <ns3:cad>75</ns3:cad>
          </ns3:TrackPointExtension>
        </extensions>
      </trkpt>
      <trkpt lat="45.32478324137628078460693359375" lon="-70.9443595446646213531494140625">
        <ele>866.79998779296875</ele>
        <time>2026-08-21T17:36:39.000Z</time>
        <extensions>
          <ns3:TrackPointExtension>
            <ns3:hr>142</ns3:hr>
            <ns3:cad>0</ns3:cad>
          </ns3:TrackPointExtension>
        </extensions>
      </trkpt>
      <trkpt lat="45.32478801906108856201171875" lon="-70.9443632327020168304443359375">
        <ele>867</ele>
        <time>2026-08-21T17:36:40.000Z</time>
        <extensions>
          <ns3:TrackPointExtension>
            <ns3:hr>142</ns3:hr>
            <ns3:cad>0</ns3:cad>
          </ns3:TrackPointExtension>
        </extensions>
      </trkpt>
      <trkpt lat="45.32479028217494487762451171875" lon="-70.94436733983457088470458984375">
        <ele>867.20001220703125</ele>
        <time>2026-08-21T17:36:41.000Z</time>
        <extensions>
          <ns3:TrackPointExtension>
            <ns3:hr>142</ns3:hr>
            <ns3:cad>0</ns3:cad>
          </ns3:TrackPointExtension>
        </extensions>
      </trkpt>
      <trkpt lat="45.324802435934543609619140625" lon="-70.94437890686094760894775390625">
        <ele>867.20001220703125</ele>
        <time>2026-08-21T17:36:42.000Z</time>
        <extensions>
          <ns3:TrackPointExtension>
            <ns3:hr>142</ns3:hr>
            <ns3:cad>0</ns3:cad>
          </ns3:TrackPointExtension>
        </extensions>
      </trkpt>
      <trkpt lat="45.32481291331350803375244140625" lon="-70.94438427127897739410400390625">
        <ele>867.4000244140625</ele>
        <time>2026-08-21T17:36:43.000Z</time>
        <extensions>
          <ns3:TrackPointExtension>
            <ns3:hr>142</ns3:hr>
            <ns3:cad>0</ns3:cad>
          </ns3:TrackPointExtension>
        </extensions>
      </trkpt>
      <trkpt lat="45.324819870293140411376953125" lon="-70.9443883784115314483642578125">
        <ele>867.5999755859375</ele>
        <time>2026-08-21T17:36:44.000Z</time>
        <extensions>
          <ns3:TrackPointExtension>
            <ns3:hr>142</ns3:hr>
            <ns3:cad>0</ns3:cad>
          </ns3:TrackPointExtension>
        </extensions>
      </trkpt>
      <trkpt lat="45.32482825219631195068359375" lon="-70.94439013861119747161865234375">
        <ele>867.79998779296875</ele>
        <time>2026-08-21T17:36:45.000Z</time>
        <extensions>
          <ns3:TrackPointExtension>
            <ns3:hr>142</ns3:hr>
            <ns3:cad>0</ns3:cad>
          </ns3:TrackPointExtension>
        </extensions>
      </trkpt>
      <trkpt lat="45.32483453862369060516357421875" lon="-70.944393575191497802734375">
        <ele>868</ele>
        <time>2026-08-21T17:36:46.000Z</time>
        <extensions>
          <ns3:TrackPointExtension>
            <ns3:hr>141</ns3:hr>
            <ns3:cad>0</ns3:cad>
          </ns3:TrackPointExtension>
        </extensions>
      </trkpt>
      <trkpt lat="45.32484074123203754425048828125" lon="-70.94439952634274959564208984375">
        <ele>868</ele>
        <time>2026-08-21T17:36:47.000Z</time>
        <extensions>
          <ns3:TrackPointExtension>
            <ns3:hr>142</ns3:hr>
            <ns3:cad>0</ns3:cad>
          </ns3:TrackPointExtension>
        </extensions>
      </trkpt>
      <trkpt lat="45.32484434545040130615234375" lon="-70.9444058127701282501220703125">
        <ele>868.20001220703125</ele>
        <time>2026-08-21T17:36:48.000Z</time>
        <extensions>
          <ns3:TrackPointExtension>
            <ns3:hr>142</ns3:hr>
            <ns3:cad>0</ns3:cad>
          </ns3:TrackPointExtension>
        </extensions>
      </trkpt>
      <trkpt lat="45.3248463571071624755859375" lon="-70.9444118477404117584228515625">
        <ele>868.4000244140625</ele>
        <time>2026-08-21T17:36:49.000Z</time>
        <extensions>
          <ns3:TrackPointExtension>
            <ns3:hr>142</ns3:hr>
            <ns3:cad>0</ns3:cad>
          </ns3:TrackPointExtension>
        </extensions>
      </trkpt>
      <trkpt lat="45.3248535655438899993896484375" lon="-70.9444168768823146820068359375">
        <ele>868.4000244140625</ele>
        <time>2026-08-21T17:36:50.000Z</time>
        <extensions>
          <ns3:TrackPointExtension>
            <ns3:hr>142</ns3:hr>
            <ns3:cad>0</ns3:cad>
          </ns3:TrackPointExtension>
        </extensions>
      </trkpt>
      <trkpt lat="45.324858091771602630615234375" lon="-70.9444245882332324981689453125">
        <ele>868.5999755859375</ele>
        <time>2026-08-21T17:36:51.000Z</time>
        <extensions>
          <ns3:TrackPointExtension>
            <ns3:hr>142</ns3:hr>
            <ns3:cad>0</ns3:cad>
          </ns3:TrackPointExtension>
        </extensions>
      </trkpt>
      <trkpt lat="45.32486043870449066162109375" lon="-70.944430790841579437255859375">
        <ele>868.79998779296875</ele>
        <time>2026-08-21T17:36:52.000Z</time>
        <extensions>
          <ns3:TrackPointExtension>
            <ns3:hr>142</ns3:hr>
            <ns3:cad>0</ns3:cad>
          </ns3:TrackPointExtension>
        </extensions>
      </trkpt>
      <trkpt lat="45.3248606063425540924072265625" lon="-70.94443808309733867645263671875">
        <ele>869</ele>
        <time>2026-08-21T17:36:53.000Z</time>
        <extensions>
          <ns3:TrackPointExtension>
            <ns3:hr>142</ns3:hr>
            <ns3:cad>41</ns3:cad>
          </ns3:TrackPointExtension>
        </extensions>
      </trkpt>
      <trkpt lat="45.32485934905707836151123046875" lon="-70.94444654881954193115234375">
        <ele>869</ele>
        <time>2026-08-21T17:36:54.000Z</time>
        <extensions>
          <ns3:TrackPointExtension>
            <ns3:hr>143</ns3:hr>
            <ns3:cad>77</ns3:cad>
          </ns3:TrackPointExtension>
        </extensions>
      </trkpt>
      <trkpt lat="45.324862115085124969482421875" lon="-70.944454930722713470458984375">
        <ele>869.20001220703125</ele>
        <time>2026-08-21T17:36:55.000Z</time>
        <extensions>
          <ns3:TrackPointExtension>
            <ns3:hr>143</ns3:hr>
            <ns3:cad>77</ns3:cad>
          </ns3:TrackPointExtension>
        </extensions>
      </trkpt>
      <trkpt lat="45.3248636238276958465576171875" lon="-70.944459624588489532470703125">
        <ele>869.4000244140625</ele>
        <time>2026-08-21T17:36:56.000Z</time>
        <extensions>
          <ns3:TrackPointExtension>
            <ns3:hr>143</ns3:hr>
            <ns3:cad>45</ns3:cad>
          </ns3:TrackPointExtension>
        </extensions>
      </trkpt>
      <trkpt lat="45.32486957497894763946533203125" lon="-70.94447337090969085693359375">
        <ele>869.5999755859375</ele>
        <time>2026-08-21T17:36:57.000Z</time>
        <extensions>
          <ns3:TrackPointExtension>
            <ns3:hr>142</ns3:hr>
            <ns3:cad>45</ns3:cad>
          </ns3:TrackPointExtension>
        </extensions>
      </trkpt>
      <trkpt lat="45.32487309537827968597412109375" lon="-70.94448066316545009613037109375">
        <ele>869.79998779296875</ele>
        <time>2026-08-21T17:36:58.000Z</time>
        <extensions>
          <ns3:TrackPointExtension>
            <ns3:hr>142</ns3:hr>
            <ns3:cad>45</ns3:cad>
          </ns3:TrackPointExtension>
        </extensions>
      </trkpt>
      <trkpt lat="45.32487921416759490966796875" lon="-70.94448636285960674285888671875">
        <ele>870</ele>
        <time>2026-08-21T17:36:59.000Z</time>
        <extensions>
          <ns3:TrackPointExtension>
            <ns3:hr>142</ns3:hr>
            <ns3:cad>76</ns3:cad>
          </ns3:TrackPointExtension>
        </extensions>
      </trkpt>
      <trkpt lat="45.3248865902423858642578125" lon="-70.94449692405760288238525390625">
        <ele>870</ele>
        <time>2026-08-21T17:37:00.000Z</time>
        <extensions>
          <ns3:TrackPointExtension>
            <ns3:hr>142</ns3:hr>
            <ns3:cad>76</ns3:cad>
          </ns3:TrackPointExtension>
        </extensions>
      </trkpt>
      <trkpt lat="45.32489128410816192626953125" lon="-70.94450145028531551361083984375">
        <ele>870.20001220703125</ele>
        <time>2026-08-21T17:37:01.000Z</time>
        <extensions>
          <ns3:TrackPointExtension>
            <ns3:hr>142</ns3:hr>
            <ns3:cad>76</ns3:cad>
          </ns3:TrackPointExtension>
        </extensions>
      </trkpt>
      <trkpt lat="45.32489974983036518096923828125" lon="-70.9445100836455821990966796875">
        <ele>870.20001220703125</ele>
        <time>2026-08-21T17:37:02.000Z</time>
        <extensions>
          <ns3:TrackPointExtension>
            <ns3:hr>142</ns3:hr>
            <ns3:cad>76</ns3:cad>
          </ns3:TrackPointExtension>
        </extensions>
      </trkpt>
      <trkpt lat="45.32490913756191730499267578125" lon="-70.94452039338648319244384765625">
        <ele>870.4000244140625</ele>
        <time>2026-08-21T17:37:03.000Z</time>
        <extensions>
          <ns3:TrackPointExtension>
            <ns3:hr>142</ns3:hr>
            <ns3:cad>76</ns3:cad>
          </ns3:TrackPointExtension>
        </extensions>
      </trkpt>
      <trkpt lat="45.32492078840732574462890625" lon="-70.94452969729900360107421875">
        <ele>870.5999755859375</ele>
        <time>2026-08-21T17:37:04.000Z</time>
        <extensions>
          <ns3:TrackPointExtension>
            <ns3:hr>142</ns3:hr>
            <ns3:cad>76</ns3:cad>
          </ns3:TrackPointExtension>
        </extensions>
      </trkpt>
      <trkpt lat="45.324929170310497283935546875" lon="-70.9445369057357311248779296875">
        <ele>870.5999755859375</ele>
        <time>2026-08-21T17:37:05.000Z</time>
        <extensions>
          <ns3:TrackPointExtension>
            <ns3:hr>142</ns3:hr>
            <ns3:cad>76</ns3:cad>
          </ns3:TrackPointExtension>
        </extensions>
      </trkpt>
      <trkpt lat="45.32493478618562221527099609375" lon="-70.94454268924891948699951171875">
        <ele>870.79998779296875</ele>
        <time>2026-08-21T17:37:06.000Z</time>
        <extensions>
          <ns3:TrackPointExtension>
            <ns3:hr>142</ns3:hr>
            <ns3:cad>42</ns3:cad>
          </ns3:TrackPointExtension>
        </extensions>
      </trkpt>
      <trkpt lat="45.32494467683136463165283203125" lon="-70.94455123879015445709228515625">
        <ele>871</ele>
        <time>2026-08-21T17:37:07.000Z</time>
        <extensions>
          <ns3:TrackPointExtension>
            <ns3:hr>142</ns3:hr>
            <ns3:cad>42</ns3:cad>
          </ns3:TrackPointExtension>
        </extensions>
      </trkpt>
      <trkpt lat="45.3249518014490604400634765625" lon="-70.944559536874294281005859375">
        <ele>871</ele>
        <time>2026-08-21T17:37:08.000Z</time>
        <extensions>
          <ns3:TrackPointExtension>
            <ns3:hr>142</ns3:hr>
            <ns3:cad>43</ns3:cad>
          </ns3:TrackPointExtension>
        </extensions>
      </trkpt>
      <trkpt lat="45.32496026717126369476318359375" lon="-70.9445664100348949432373046875">
        <ele>871.20001220703125</ele>
        <time>2026-08-21T17:37:09.000Z</time>
        <extensions>
          <ns3:TrackPointExtension>
            <ns3:hr>142</ns3:hr>
            <ns3:cad>43</ns3:cad>
          </ns3:TrackPointExtension>
        </extensions>
      </trkpt>
      <trkpt lat="45.3249705769121646881103515625" lon="-70.944574289023876190185546875">
        <ele>871.4000244140625</ele>
        <time>2026-08-21T17:37:10.000Z</time>
        <extensions>
          <ns3:TrackPointExtension>
            <ns3:hr>142</ns3:hr>
            <ns3:cad>43</ns3:cad>
          </ns3:TrackPointExtension>
        </extensions>
      </trkpt>
      <trkpt lat="45.32497887499630451202392578125" lon="-70.94458200037479400634765625">
        <ele>871.4000244140625</ele>
        <time>2026-08-21T17:37:11.000Z</time>
        <extensions>
          <ns3:TrackPointExtension>
            <ns3:hr>142</ns3:hr>
            <ns3:cad>41</ns3:cad>
          </ns3:TrackPointExtension>
        </extensions>
      </trkpt>
      <trkpt lat="45.32498742453753948211669921875" lon="-70.94458627514541149139404296875">
        <ele>871.5999755859375</ele>
        <time>2026-08-21T17:37:12.000Z</time>
        <extensions>
          <ns3:TrackPointExtension>
            <ns3:hr>142</ns3:hr>
            <ns3:cad>41</ns3:cad>
          </ns3:TrackPointExtension>
        </extensions>
      </trkpt>
      <trkpt lat="45.32499329186975955963134765625" lon="-70.94459113664925098419189453125">
        <ele>871.5999755859375</ele>
        <time>2026-08-21T17:37:13.000Z</time>
        <extensions>
          <ns3:TrackPointExtension>
            <ns3:hr>142</ns3:hr>
            <ns3:cad>78</ns3:cad>
          </ns3:TrackPointExtension>
        </extensions>
      </trkpt>
      <trkpt lat="45.32499731518328189849853515625" lon="-70.9445949085056781768798828125">
        <ele>871.79998779296875</ele>
        <time>2026-08-21T17:37:14.000Z</time>
        <extensions>
          <ns3:TrackPointExtension>
            <ns3:hr>142</ns3:hr>
            <ns3:cad>78</ns3:cad>
          </ns3:TrackPointExtension>
        </extensions>
      </trkpt>
      <trkpt lat="45.325004942715167999267578125" lon="-70.94459968619048595428466796875">
        <ele>872</ele>
        <time>2026-08-21T17:37:15.000Z</time>
        <extensions>
          <ns3:TrackPointExtension>
            <ns3:hr>142</ns3:hr>
            <ns3:cad>78</ns3:cad>
          </ns3:TrackPointExtension>
        </extensions>
      </trkpt>
      <trkpt lat="45.325012318789958953857421875" lon="-70.94460354186594486236572265625">
        <ele>872</ele>
        <time>2026-08-21T17:37:16.000Z</time>
        <extensions>
          <ns3:TrackPointExtension>
            <ns3:hr>142</ns3:hr>
            <ns3:cad>43</ns3:cad>
          </ns3:TrackPointExtension>
        </extensions>
      </trkpt>
      <trkpt lat="45.32502212561666965484619140625" lon="-70.9446106664836406707763671875">
        <ele>872.20001220703125</ele>
        <time>2026-08-21T17:37:17.000Z</time>
        <extensions>
          <ns3:TrackPointExtension>
            <ns3:hr>142</ns3:hr>
            <ns3:cad>43</ns3:cad>
          </ns3:TrackPointExtension>
        </extensions>
      </trkpt>
      <trkpt lat="45.32502966932952404022216796875" lon="-70.94461728818714618682861328125">
        <ele>872.20001220703125</ele>
        <time>2026-08-21T17:37:18.000Z</time>
        <extensions>
          <ns3:TrackPointExtension>
            <ns3:hr>142</ns3:hr>
            <ns3:cad>43</ns3:cad>
          </ns3:TrackPointExtension>
        </extensions>
      </trkpt>
      <trkpt lat="45.32503620721399784088134765625" lon="-70.9446244128048419952392578125">
        <ele>872.4000244140625</ele>
        <time>2026-08-21T17:37:19.000Z</time>
        <extensions>
          <ns3:TrackPointExtension>
            <ns3:hr>142</ns3:hr>
            <ns3:cad>43</ns3:cad>
          </ns3:TrackPointExtension>
        </extensions>
      </trkpt>
      <trkpt lat="45.32504190690815448760986328125" lon="-70.9446341358125209808349609375">
        <ele>872.4000244140625</ele>
        <time>2026-08-21T17:37:20.000Z</time>
        <extensions>
          <ns3:TrackPointExtension>
            <ns3:hr>142</ns3:hr>
            <ns3:cad>43</ns3:cad>
          </ns3:TrackPointExtension>
        </extensions>
      </trkpt>
      <trkpt lat="45.3250483609735965728759765625" lon="-70.94464209862053394317626953125">
        <ele>872.4000244140625</ele>
        <time>2026-08-21T17:37:21.000Z</time>
        <extensions>
          <ns3:TrackPointExtension>
            <ns3:hr>142</ns3:hr>
            <ns3:cad>43</ns3:cad>
          </ns3:TrackPointExtension>
        </extensions>
      </trkpt>
      <trkpt lat="45.325054563581943511962890625" lon="-70.94464905560016632080078125">
        <ele>872.5999755859375</ele>
        <time>2026-08-21T17:37:22.000Z</time>
        <extensions>
          <ns3:TrackPointExtension>
            <ns3:hr>142</ns3:hr>
            <ns3:cad>43</ns3:cad>
          </ns3:TrackPointExtension>
        </extensions>
      </trkpt>
      <trkpt lat="45.32505892217159271240234375" lon="-70.94465400092303752899169921875">
        <ele>872.79998779296875</ele>
        <time>2026-08-21T17:37:23.000Z</time>
        <extensions>
          <ns3:TrackPointExtension>
            <ns3:hr>142</ns3:hr>
            <ns3:cad>44</ns3:cad>
          </ns3:TrackPointExtension>
        </extensions>
      </trkpt>
      <trkpt lat="45.325065292418003082275390625" lon="-70.94466104172170162200927734375">
        <ele>872.79998779296875</ele>
        <time>2026-08-21T17:37:24.000Z</time>
        <extensions>
          <ns3:TrackPointExtension>
            <ns3:hr>141</ns3:hr>
            <ns3:cad>44</ns3:cad>
          </ns3:TrackPointExtension>
        </extensions>
      </trkpt>
      <trkpt lat="45.325074009597301483154296875" lon="-70.944662131369113922119140625">
        <ele>873</ele>
        <time>2026-08-21T17:37:25.000Z</time>
        <extensions>
          <ns3:TrackPointExtension>
            <ns3:hr>141</ns3:hr>
            <ns3:cad>44</ns3:cad>
          </ns3:TrackPointExtension>
        </extensions>
      </trkpt>
      <trkpt lat="45.3250839002430438995361328125" lon="-70.94466422684490680694580078125">
        <ele>873</ele>
        <time>2026-08-21T17:37:26.000Z</time>
        <extensions>
          <ns3:TrackPointExtension>
            <ns3:hr>141</ns3:hr>
            <ns3:cad>44</ns3:cad>
          </ns3:TrackPointExtension>
        </extensions>
      </trkpt>
      <trkpt lat="45.3250939585268497467041015625" lon="-70.94466556794941425323486328125">
        <ele>873</ele>
        <time>2026-08-21T17:37:27.000Z</time>
        <extensions>
          <ns3:TrackPointExtension>
            <ns3:hr>140</ns3:hr>
            <ns3:cad>44</ns3:cad>
          </ns3:TrackPointExtension>
        </extensions>
      </trkpt>
      <trkpt lat="45.3251030109822750091552734375" lon="-70.94466405920684337615966796875">
        <ele>873.20001220703125</ele>
        <time>2026-08-21T17:37:28.000Z</time>
        <extensions>
          <ns3:TrackPointExtension>
            <ns3:hr>140</ns3:hr>
            <ns3:cad>0</ns3:cad>
          </ns3:TrackPointExtension>
        </extensions>
      </trkpt>
      <trkpt lat="45.32511348836123943328857421875" lon="-70.94466690905392169952392578125">
        <ele>873.20001220703125</ele>
        <time>2026-08-21T17:37:29.000Z</time>
        <extensions>
          <ns3:TrackPointExtension>
            <ns3:hr>139</ns3:hr>
            <ns3:cad>0</ns3:cad>
          </ns3:TrackPointExtension>
        </extensions>
      </trkpt>
      <trkpt lat="45.3251194395124912261962890625" lon="-70.9446706809103488922119140625">
        <ele>873.20001220703125</ele>
        <time>2026-08-21T17:37:30.000Z</time>
        <extensions>
          <ns3:TrackPointExtension>
            <ns3:hr>139</ns3:hr>
            <ns3:cad>0</ns3:cad>
          </ns3:TrackPointExtension>
        </extensions>
      </trkpt>
      <trkpt lat="45.32512539066374301910400390625" lon="-70.9446752071380615234375">
        <ele>873.20001220703125</ele>
        <time>2026-08-21T17:37:31.000Z</time>
        <extensions>
          <ns3:TrackPointExtension>
            <ns3:hr>138</ns3:hr>
            <ns3:cad>0</ns3:cad>
          </ns3:TrackPointExtension>
        </extensions>
      </trkpt>
      <trkpt lat="45.32512639649212360382080078125" lon="-70.94467881135642528533935546875">
        <ele>873.20001220703125</ele>
        <time>2026-08-21T17:37:32.000Z</time>
        <extensions>
          <ns3:TrackPointExtension>
            <ns3:hr>138</ns3:hr>
            <ns3:cad>0</ns3:cad>
          </ns3:TrackPointExtension>
        </extensions>
      </trkpt>
      <trkpt lat="45.32512589357793331146240234375" lon="-70.94468400813639163970947265625">
        <ele>873.4000244140625</ele>
        <time>2026-08-21T17:37:33.000Z</time>
        <extensions>
          <ns3:TrackPointExtension>
            <ns3:hr>138</ns3:hr>
            <ns3:cad>0</ns3:cad>
          </ns3:TrackPointExtension>
        </extensions>
      </trkpt>
      <trkpt lat="45.32513243146240711212158203125" lon="-70.94469062983989715576171875">
        <ele>873.20001220703125</ele>
        <time>2026-08-21T17:37:34.000Z</time>
        <extensions>
          <ns3:TrackPointExtension>
            <ns3:hr>138</ns3:hr>
            <ns3:cad>0</ns3:cad>
          </ns3:TrackPointExtension>
        </extensions>
      </trkpt>
      <trkpt lat="45.32513679005205631256103515625" lon="-70.9446971677243709564208984375">
        <ele>873.4000244140625</ele>
        <time>2026-08-21T17:37:35.000Z</time>
        <extensions>
          <ns3:TrackPointExtension>
            <ns3:hr>138</ns3:hr>
            <ns3:cad>47</ns3:cad>
          </ns3:TrackPointExtension>
        </extensions>
      </trkpt>
      <trkpt lat="45.32514207065105438232421875" lon="-70.944708399474620819091796875">
        <ele>873.4000244140625</ele>
        <time>2026-08-21T17:37:36.000Z</time>
        <extensions>
          <ns3:TrackPointExtension>
            <ns3:hr>138</ns3:hr>
            <ns3:cad>47</ns3:cad>
          </ns3:TrackPointExtension>
        </extensions>
      </trkpt>
      <trkpt lat="45.325148440897464752197265625" lon="-70.94471837393939495086669921875">
        <ele>873.5999755859375</ele>
        <time>2026-08-21T17:37:37.000Z</time>
        <extensions>
          <ns3:TrackPointExtension>
            <ns3:hr>138</ns3:hr>
            <ns3:cad>47</ns3:cad>
          </ns3:TrackPointExtension>
        </extensions>
      </trkpt>
      <trkpt lat="45.32515623606741428375244140625" lon="-70.94472952187061309814453125">
        <ele>873.5999755859375</ele>
        <time>2026-08-21T17:37:38.000Z</time>
        <extensions>
          <ns3:TrackPointExtension>
            <ns3:hr>138</ns3:hr>
            <ns3:cad>48</ns3:cad>
          </ns3:TrackPointExtension>
        </extensions>
      </trkpt>
      <trkpt lat="45.325165204703807830810546875" lon="-70.94473446719348430633544921875">
        <ele>873.5999755859375</ele>
        <time>2026-08-21T17:37:39.000Z</time>
        <extensions>
          <ns3:TrackPointExtension>
            <ns3:hr>137</ns3:hr>
            <ns3:cad>48</ns3:cad>
          </ns3:TrackPointExtension>
        </extensions>
      </trkpt>
      <trkpt lat="45.325173251330852508544921875" lon="-70.94473916105926036834716796875">
        <ele>873.79998779296875</ele>
        <time>2026-08-21T17:37:40.000Z</time>
        <extensions>
          <ns3:TrackPointExtension>
            <ns3:hr>137</ns3:hr>
            <ns3:cad>47</ns3:cad>
          </ns3:TrackPointExtension>
        </extensions>
      </trkpt>
      <trkpt lat="45.32518096268177032470703125" lon="-70.9447491355240345001220703125">
        <ele>873.79998779296875</ele>
        <time>2026-08-21T17:37:41.000Z</time>
        <extensions>
          <ns3:TrackPointExtension>
            <ns3:hr>137</ns3:hr>
            <ns3:cad>47</ns3:cad>
          </ns3:TrackPointExtension>
        </extensions>
      </trkpt>
      <trkpt lat="45.3251896798610687255859375" lon="-70.94475877471268177032470703125">
        <ele>873.79998779296875</ele>
        <time>2026-08-21T17:37:42.000Z</time>
        <extensions>
          <ns3:TrackPointExtension>
            <ns3:hr>136</ns3:hr>
            <ns3:cad>47</ns3:cad>
          </ns3:TrackPointExtension>
        </extensions>
      </trkpt>
      <trkpt lat="45.32519705593585968017578125" lon="-70.94476782716810703277587890625">
        <ele>873.79998779296875</ele>
        <time>2026-08-21T17:37:43.000Z</time>
        <extensions>
          <ns3:TrackPointExtension>
            <ns3:hr>136</ns3:hr>
            <ns3:cad>49</ns3:cad>
          </ns3:TrackPointExtension>
        </extensions>
      </trkpt>
      <trkpt lat="45.32520401291549205780029296875" lon="-70.944776795804500579833984375">
        <ele>874</ele>
        <time>2026-08-21T17:37:44.000Z</time>
        <extensions>
          <ns3:TrackPointExtension>
            <ns3:hr>136</ns3:hr>
            <ns3:cad>49</ns3:cad>
          </ns3:TrackPointExtension>
        </extensions>
      </trkpt>
      <trkpt lat="45.325212813913822174072265625" lon="-70.94478559680283069610595703125">
        <ele>874</ele>
        <time>2026-08-21T17:37:45.000Z</time>
        <extensions>
          <ns3:TrackPointExtension>
            <ns3:hr>136</ns3:hr>
            <ns3:cad>49</ns3:cad>
          </ns3:TrackPointExtension>
        </extensions>
      </trkpt>
      <trkpt lat="45.3252159990370273590087890625" lon="-70.9447937272489070892333984375">
        <ele>874</ele>
        <time>2026-08-21T17:37:46.000Z</time>
        <extensions>
          <ns3:TrackPointExtension>
            <ns3:hr>136</ns3:hr>
            <ns3:cad>49</ns3:cad>
          </ns3:TrackPointExtension>
        </extensions>
      </trkpt>
      <trkpt lat="45.3252247162163257598876953125" lon="-70.94480269588530063629150390625">
        <ele>874</ele>
        <time>2026-08-21T17:37:47.000Z</time>
        <extensions>
          <ns3:TrackPointExtension>
            <ns3:hr>135</ns3:hr>
            <ns3:cad>49</ns3:cad>
          </ns3:TrackPointExtension>
        </extensions>
      </trkpt>
      <trkpt lat="45.32523619942367076873779296875" lon="-70.94480873085558414459228515625">
        <ele>874</ele>
        <time>2026-08-21T17:37:48.000Z</time>
        <extensions>
          <ns3:TrackPointExtension>
            <ns3:hr>136</ns3:hr>
            <ns3:cad>50</ns3:cad>
          </ns3:TrackPointExtension>
        </extensions>
      </trkpt>
      <trkpt lat="45.32524273730814456939697265625" lon="-70.9448146820068359375">
        <ele>874</ele>
        <time>2026-08-21T17:37:49.000Z</time>
        <extensions>
          <ns3:TrackPointExtension>
            <ns3:hr>136</ns3:hr>
            <ns3:cad>50</ns3:cad>
          </ns3:TrackPointExtension>
        </extensions>
      </trkpt>
      <trkpt lat="45.3252505324780941009521484375" lon="-70.94482515938580036163330078125">
        <ele>874.20001220703125</ele>
        <time>2026-08-21T17:37:50.000Z</time>
        <extensions>
          <ns3:TrackPointExtension>
            <ns3:hr>136</ns3:hr>
            <ns3:cad>50</ns3:cad>
          </ns3:TrackPointExtension>
        </extensions>
      </trkpt>
      <trkpt lat="45.32525816000998020172119140625" lon="-70.94483186490833759307861328125">
        <ele>874.20001220703125</ele>
        <time>2026-08-21T17:37:51.000Z</time>
        <extensions>
          <ns3:TrackPointExtension>
            <ns3:hr>135</ns3:hr>
            <ns3:cad>48</ns3:cad>
          </ns3:TrackPointExtension>
        </extensions>
      </trkpt>
      <trkpt lat="45.32526411116123199462890625" lon="-70.94483991153538227081298828125">
        <ele>874.20001220703125</ele>
        <time>2026-08-21T17:37:52.000Z</time>
        <extensions>
          <ns3:TrackPointExtension>
            <ns3:hr>136</ns3:hr>
            <ns3:cad>48</ns3:cad>
          </ns3:TrackPointExtension>
        </extensions>
      </trkpt>
      <trkpt lat="45.32526972703635692596435546875" lon="-70.94485315494239330291748046875">
        <ele>874.4000244140625</ele>
        <time>2026-08-21T17:37:53.000Z</time>
        <extensions>
          <ns3:TrackPointExtension>
            <ns3:hr>135</ns3:hr>
            <ns3:cad>50</ns3:cad>
          </ns3:TrackPointExtension>
        </extensions>
      </trkpt>
      <trkpt lat="45.3252781927585601806640625" lon="-70.94486656598746776580810546875">
        <ele>874.4000244140625</ele>
        <time>2026-08-21T17:37:54.000Z</time>
        <extensions>
          <ns3:TrackPointExtension>
            <ns3:hr>135</ns3:hr>
            <ns3:cad>50</ns3:cad>
          </ns3:TrackPointExtension>
        </extensions>
      </trkpt>
      <trkpt lat="45.3252875804901123046875" lon="-70.94487327151000499725341796875">
        <ele>874.5999755859375</ele>
        <time>2026-08-21T17:37:55.000Z</time>
        <extensions>
          <ns3:TrackPointExtension>
            <ns3:hr>134</ns3:hr>
            <ns3:cad>50</ns3:cad>
          </ns3:TrackPointExtension>
        </extensions>
      </trkpt>
      <trkpt lat="45.3252991475164890289306640625" lon="-70.94487695954740047454833984375">
        <ele>874.5999755859375</ele>
        <time>2026-08-21T17:37:56.000Z</time>
        <extensions>
          <ns3:TrackPointExtension>
            <ns3:hr>134</ns3:hr>
            <ns3:cad>52</ns3:cad>
          </ns3:TrackPointExtension>
        </extensions>
      </trkpt>
      <trkpt lat="45.3253088705241680145263671875" lon="-70.9448772110044956207275390625">
        <ele>874.5999755859375</ele>
        <time>2026-08-21T17:37:57.000Z</time>
        <extensions>
          <ns3:TrackPointExtension>
            <ns3:hr>133</ns3:hr>
            <ns3:cad>52</ns3:cad>
          </ns3:TrackPointExtension>
        </extensions>
      </trkpt>
      <trkpt lat="45.325320772826671600341796875" lon="-70.94488299451768398284912109375">
        <ele>874.79998779296875</ele>
        <time>2026-08-21T17:37:58.000Z</time>
        <extensions>
          <ns3:TrackPointExtension>
            <ns3:hr>132</ns3:hr>
            <ns3:cad>49</ns3:cad>
          </ns3:TrackPointExtension>
        </extensions>
      </trkpt>
      <trkpt lat="45.32532974146306514739990234375" lon="-70.94488911330699920654296875">
        <ele>874.79998779296875</ele>
        <time>2026-08-21T17:37:59.000Z</time>
        <extensions>
          <ns3:TrackPointExtension>
            <ns3:hr>132</ns3:hr>
            <ns3:cad>49</ns3:cad>
          </ns3:TrackPointExtension>
        </extensions>
      </trkpt>
      <trkpt lat="45.325340889394283294677734375" lon="-70.94489741139113903045654296875">
        <ele>874.79998779296875</ele>
        <time>2026-08-21T17:38:00.000Z</time>
        <extensions>
          <ns3:TrackPointExtension>
            <ns3:hr>131</ns3:hr>
            <ns3:cad>48</ns3:cad>
          </ns3:TrackPointExtension>
        </extensions>
      </trkpt>
      <trkpt lat="45.3253494389355182647705078125" lon="-70.94490311108529567718505859375">
        <ele>874.79998779296875</ele>
        <time>2026-08-21T17:38:01.000Z</time>
        <extensions>
          <ns3:TrackPointExtension>
            <ns3:hr>130</ns3:hr>
            <ns3:cad>48</ns3:cad>
          </ns3:TrackPointExtension>
        </extensions>
      </trkpt>
      <trkpt lat="45.325356982648372650146484375" lon="-70.94490788877010345458984375">
        <ele>875</ele>
        <time>2026-08-21T17:38:02.000Z</time>
        <extensions>
          <ns3:TrackPointExtension>
            <ns3:hr>129</ns3:hr>
            <ns3:cad>47</ns3:cad>
          </ns3:TrackPointExtension>
        </extensions>
      </trkpt>
      <trkpt lat="45.3253631852567195892333984375" lon="-70.9449150972068309783935546875">
        <ele>875</ele>
        <time>2026-08-21T17:38:03.000Z</time>
        <extensions>
          <ns3:TrackPointExtension>
            <ns3:hr>129</ns3:hr>
            <ns3:cad>47</ns3:cad>
          </ns3:TrackPointExtension>
        </extensions>
      </trkpt>
      <trkpt lat="45.32536947168409824371337890625" lon="-70.94492264091968536376953125">
        <ele>875.20001220703125</ele>
        <time>2026-08-21T17:38:04.000Z</time>
        <extensions>
          <ns3:TrackPointExtension>
            <ns3:hr>128</ns3:hr>
            <ns3:cad>47</ns3:cad>
          </ns3:TrackPointExtension>
        </extensions>
      </trkpt>
      <trkpt lat="45.3253747522830963134765625" lon="-70.94493077136576175689697265625">
        <ele>875.4000244140625</ele>
        <time>2026-08-21T17:38:05.000Z</time>
        <extensions>
          <ns3:TrackPointExtension>
            <ns3:hr>128</ns3:hr>
            <ns3:cad>50</ns3:cad>
          </ns3:TrackPointExtension>
        </extensions>
      </trkpt>
      <trkpt lat="45.3253799490630626678466796875" lon="-70.9449395723640918731689453125">
        <ele>875.5999755859375</ele>
        <time>2026-08-21T17:38:06.000Z</time>
        <extensions>
          <ns3:TrackPointExtension>
            <ns3:hr>128</ns3:hr>
            <ns3:cad>50</ns3:cad>
          </ns3:TrackPointExtension>
        </extensions>
      </trkpt>
      <trkpt lat="45.32538522966206073760986328125" lon="-70.94495055265724658966064453125">
        <ele>875.5999755859375</ele>
        <time>2026-08-21T17:38:07.000Z</time>
        <extensions>
          <ns3:TrackPointExtension>
            <ns3:hr>128</ns3:hr>
            <ns3:cad>48</ns3:cad>
          </ns3:TrackPointExtension>
        </extensions>
      </trkpt>
      <trkpt lat="45.3253916837275028228759765625" lon="-70.9449593536555767059326171875">
        <ele>875.79998779296875</ele>
        <time>2026-08-21T17:38:08.000Z</time>
        <extensions>
          <ns3:TrackPointExtension>
            <ns3:hr>128</ns3:hr>
            <ns3:cad>47</ns3:cad>
          </ns3:TrackPointExtension>
        </extensions>
      </trkpt>
      <trkpt lat="45.32539847306907176971435546875" lon="-70.9449663944542407989501953125">
        <ele>876</ele>
        <time>2026-08-21T17:38:09.000Z</time>
        <extensions>
          <ns3:TrackPointExtension>
            <ns3:hr>128</ns3:hr>
            <ns3:cad>47</ns3:cad>
          </ns3:TrackPointExtension>
        </extensions>
      </trkpt>
      <trkpt lat="45.3254050947725772857666015625" lon="-70.94497167505323886871337890625">
        <ele>876.20001220703125</ele>
        <time>2026-08-21T17:38:10.000Z</time>
        <extensions>
          <ns3:TrackPointExtension>
            <ns3:hr>128</ns3:hr>
            <ns3:cad>45</ns3:cad>
          </ns3:TrackPointExtension>
        </extensions>
      </trkpt>
      <trkpt lat="45.32541339285671710968017578125" lon="-70.944978296756744384765625">
        <ele>876.20001220703125</ele>
        <time>2026-08-21T17:38:11.000Z</time>
        <extensions>
          <ns3:TrackPointExtension>
            <ns3:hr>128</ns3:hr>
            <ns3:cad>45</ns3:cad>
          </ns3:TrackPointExtension>
        </extensions>
      </trkpt>
      <trkpt lat="45.3254191763699054718017578125" lon="-70.94498424790799617767333984375">
        <ele>876.20001220703125</ele>
        <time>2026-08-21T17:38:12.000Z</time>
        <extensions>
          <ns3:TrackPointExtension>
            <ns3:hr>129</ns3:hr>
            <ns3:cad>46</ns3:cad>
          </ns3:TrackPointExtension>
        </extensions>
      </trkpt>
      <trkpt lat="45.325423367321491241455078125" lon="-70.94498810358345508575439453125">
        <ele>876.4000244140625</ele>
        <time>2026-08-21T17:38:13.000Z</time>
        <extensions>
          <ns3:TrackPointExtension>
            <ns3:hr>129</ns3:hr>
            <ns3:cad>46</ns3:cad>
          </ns3:TrackPointExtension>
        </extensions>
      </trkpt>
      <trkpt lat="45.32542965374886989593505859375" lon="-70.944994725286960601806640625">
        <ele>876.4000244140625</ele>
        <time>2026-08-21T17:38:14.000Z</time>
        <extensions>
          <ns3:TrackPointExtension>
            <ns3:hr>130</ns3:hr>
            <ns3:cad>46</ns3:cad>
          </ns3:TrackPointExtension>
        </extensions>
      </trkpt>
      <trkpt lat="45.3254352696239948272705078125" lon="-70.9450059570372104644775390625">
        <ele>876.4000244140625</ele>
        <time>2026-08-21T17:38:15.000Z</time>
        <extensions>
          <ns3:TrackPointExtension>
            <ns3:hr>130</ns3:hr>
            <ns3:cad>45</ns3:cad>
          </ns3:TrackPointExtension>
        </extensions>
      </trkpt>
      <trkpt lat="45.32544247806072235107421875" lon="-70.94501475803554058074951171875">
        <ele>876.5999755859375</ele>
        <time>2026-08-21T17:38:16.000Z</time>
        <extensions>
          <ns3:TrackPointExtension>
            <ns3:hr>130</ns3:hr>
            <ns3:cad>45</ns3:cad>
          </ns3:TrackPointExtension>
        </extensions>
      </trkpt>
      <trkpt lat="45.32544859685003757476806640625" lon="-70.94502213411033153533935546875">
        <ele>876.5999755859375</ele>
        <time>2026-08-21T17:38:17.000Z</time>
        <extensions>
          <ns3:TrackPointExtension>
            <ns3:hr>129</ns3:hr>
            <ns3:cad>45</ns3:cad>
          </ns3:TrackPointExtension>
        </extensions>
      </trkpt>
      <trkpt lat="45.3254573978483676910400390625" lon="-70.9450307674705982208251953125">
        <ele>876.79998779296875</ele>
        <time>2026-08-21T17:38:18.000Z</time>
        <extensions>
          <ns3:TrackPointExtension>
            <ns3:hr>128</ns3:hr>
            <ns3:cad>45</ns3:cad>
          </ns3:TrackPointExtension>
        </extensions>
      </trkpt>
      <trkpt lat="45.3254637680947780609130859375" lon="-70.94503889791667461395263671875">
        <ele>876.79998779296875</ele>
        <time>2026-08-21T17:38:19.000Z</time>
        <extensions>
          <ns3:TrackPointExtension>
            <ns3:hr>128</ns3:hr>
            <ns3:cad>45</ns3:cad>
          </ns3:TrackPointExtension>
        </extensions>
      </trkpt>
      <trkpt lat="45.3254734911024570465087890625" lon="-70.94504744745790958404541015625">
        <ele>877</ele>
        <time>2026-08-21T17:38:20.000Z</time>
        <extensions>
          <ns3:TrackPointExtension>
            <ns3:hr>128</ns3:hr>
            <ns3:cad>46</ns3:cad>
          </ns3:TrackPointExtension>
        </extensions>
      </trkpt>
      <trkpt lat="45.32548229210078716278076171875" lon="-70.9450559131801128387451171875">
        <ele>877</ele>
        <time>2026-08-21T17:38:21.000Z</time>
        <extensions>
          <ns3:TrackPointExtension>
            <ns3:hr>128</ns3:hr>
            <ns3:cad>46</ns3:cad>
          </ns3:TrackPointExtension>
        </extensions>
      </trkpt>
      <trkpt lat="45.32549209892749786376953125" lon="-70.94506521709263324737548828125">
        <ele>877.20001220703125</ele>
        <time>2026-08-21T17:38:22.000Z</time>
        <extensions>
          <ns3:TrackPointExtension>
            <ns3:hr>128</ns3:hr>
            <ns3:cad>46</ns3:cad>
          </ns3:TrackPointExtension>
        </extensions>
      </trkpt>
      <trkpt lat="45.32550014555454254150390625" lon="-70.9450735151767730712890625">
        <ele>877.20001220703125</ele>
        <time>2026-08-21T17:38:23.000Z</time>
        <extensions>
          <ns3:TrackPointExtension>
            <ns3:hr>128</ns3:hr>
            <ns3:cad>45</ns3:cad>
          </ns3:TrackPointExtension>
        </extensions>
      </trkpt>
      <trkpt lat="45.32550752162933349609375" lon="-70.9450837410986423492431640625">
        <ele>877.4000244140625</ele>
        <time>2026-08-21T17:38:24.000Z</time>
        <extensions>
          <ns3:TrackPointExtension>
            <ns3:hr>128</ns3:hr>
            <ns3:cad>45</ns3:cad>
          </ns3:TrackPointExtension>
        </extensions>
      </trkpt>
      <trkpt lat="45.32551598735153675079345703125" lon="-70.9450944699347019195556640625">
        <ele>877.4000244140625</ele>
        <time>2026-08-21T17:38:25.000Z</time>
        <extensions>
          <ns3:TrackPointExtension>
            <ns3:hr>128</ns3:hr>
            <ns3:cad>45</ns3:cad>
          </ns3:TrackPointExtension>
        </extensions>
      </trkpt>
      <trkpt lat="45.32552503980696201324462890625" lon="-70.94510260038077831268310546875">
        <ele>877.5999755859375</ele>
        <time>2026-08-21T17:38:26.000Z</time>
        <extensions>
          <ns3:TrackPointExtension>
            <ns3:hr>128</ns3:hr>
            <ns3:cad>45</ns3:cad>
          </ns3:TrackPointExtension>
        </extensions>
      </trkpt>
      <trkpt lat="45.3255341760814189910888671875" lon="-70.945112742483615875244140625">
        <ele>877.79998779296875</ele>
        <time>2026-08-21T17:38:27.000Z</time>
        <extensions>
          <ns3:TrackPointExtension>
            <ns3:hr>128</ns3:hr>
            <ns3:cad>49</ns3:cad>
          </ns3:TrackPointExtension>
        </extensions>
      </trkpt>
      <trkpt lat="45.3255437314510345458984375" lon="-70.94511978328227996826171875">
        <ele>877.79998779296875</ele>
        <time>2026-08-21T17:38:28.000Z</time>
        <extensions>
          <ns3:TrackPointExtension>
            <ns3:hr>128</ns3:hr>
            <ns3:cad>49</ns3:cad>
          </ns3:TrackPointExtension>
        </extensions>
      </trkpt>
      <trkpt lat="45.3255539573729038238525390625" lon="-70.945128165185451507568359375">
        <ele>878</ele>
        <time>2026-08-21T17:38:29.000Z</time>
        <extensions>
          <ns3:TrackPointExtension>
            <ns3:hr>128</ns3:hr>
            <ns3:cad>49</ns3:cad>
          </ns3:TrackPointExtension>
        </extensions>
      </trkpt>
      <trkpt lat="45.32556057907640933990478515625" lon="-70.94513327814638614654541015625">
        <ele>878.20001220703125</ele>
        <time>2026-08-21T17:38:30.000Z</time>
        <extensions>
          <ns3:TrackPointExtension>
            <ns3:hr>129</ns3:hr>
            <ns3:cad>47</ns3:cad>
          </ns3:TrackPointExtension>
        </extensions>
      </trkpt>
      <trkpt lat="45.32556963153183460235595703125" lon="-70.9451407380402088165283203125">
        <ele>878.4000244140625</ele>
        <time>2026-08-21T17:38:31.000Z</time>
        <extensions>
          <ns3:TrackPointExtension>
            <ns3:hr>129</ns3:hr>
            <ns3:cad>47</ns3:cad>
          </ns3:TrackPointExtension>
        </extensions>
      </trkpt>
      <trkpt lat="45.32557415775954723358154296875" lon="-70.94514794647693634033203125">
        <ele>878.5999755859375</ele>
        <time>2026-08-21T17:38:32.000Z</time>
        <extensions>
          <ns3:TrackPointExtension>
            <ns3:hr>130</ns3:hr>
            <ns3:cad>46</ns3:cad>
          </ns3:TrackPointExtension>
        </extensions>
      </trkpt>
      <trkpt lat="45.32558153383433818817138671875" lon="-70.9451561607420444488525390625">
        <ele>878.79998779296875</ele>
        <time>2026-08-21T17:38:33.000Z</time>
        <extensions>
          <ns3:TrackPointExtension>
            <ns3:hr>130</ns3:hr>
            <ns3:cad>46</ns3:cad>
          </ns3:TrackPointExtension>
        </extensions>
      </trkpt>
      <trkpt lat="45.325588323175907135009765625" lon="-70.9451638720929622650146484375">
        <ele>878.79998779296875</ele>
        <time>2026-08-21T17:38:34.000Z</time>
        <extensions>
          <ns3:TrackPointExtension>
            <ns3:hr>130</ns3:hr>
            <ns3:cad>46</ns3:cad>
          </ns3:TrackPointExtension>
        </extensions>
      </trkpt>
      <trkpt lat="45.3255962021648883819580078125" lon="-70.94517317600548267364501953125">
        <ele>879</ele>
        <time>2026-08-21T17:38:35.000Z</time>
        <extensions>
          <ns3:TrackPointExtension>
            <ns3:hr>130</ns3:hr>
            <ns3:cad>44</ns3:cad>
          </ns3:TrackPointExtension>
        </extensions>
      </trkpt>
      <trkpt lat="45.325601063668727874755859375" lon="-70.94518088735640048980712890625">
        <ele>879</ele>
        <time>2026-08-21T17:38:36.000Z</time>
        <extensions>
          <ns3:TrackPointExtension>
            <ns3:hr>130</ns3:hr>
            <ns3:cad>44</ns3:cad>
          </ns3:TrackPointExtension>
        </extensions>
      </trkpt>
      <trkpt lat="45.3256055898964405059814453125" lon="-70.94518692232668399810791015625">
        <ele>879.20001220703125</ele>
        <time>2026-08-21T17:38:37.000Z</time>
        <extensions>
          <ns3:TrackPointExtension>
            <ns3:hr>130</ns3:hr>
            <ns3:cad>44</ns3:cad>
          </ns3:TrackPointExtension>
        </extensions>
      </trkpt>
      <trkpt lat="45.3256136365234851837158203125" lon="-70.94519144855439662933349609375">
        <ele>879.4000244140625</ele>
        <time>2026-08-21T17:38:38.000Z</time>
        <extensions>
          <ns3:TrackPointExtension>
            <ns3:hr>130</ns3:hr>
            <ns3:cad>44</ns3:cad>
          </ns3:TrackPointExtension>
        </extensions>
      </trkpt>
      <trkpt lat="45.3256216831505298614501953125" lon="-70.9451947174966335296630859375">
        <ele>879.5999755859375</ele>
        <time>2026-08-21T17:38:39.000Z</time>
        <extensions>
          <ns3:TrackPointExtension>
            <ns3:hr>130</ns3:hr>
            <ns3:cad>44</ns3:cad>
          </ns3:TrackPointExtension>
        </extensions>
      </trkpt>
      <trkpt lat="45.3256310708820819854736328125" lon="-70.9452030993998050689697265625">
        <ele>879.79998779296875</ele>
        <time>2026-08-21T17:38:40.000Z</time>
        <extensions>
          <ns3:TrackPointExtension>
            <ns3:hr>130</ns3:hr>
            <ns3:cad>45</ns3:cad>
          </ns3:TrackPointExtension>
        </extensions>
      </trkpt>
      <trkpt lat="45.3256401233375072479248046875" lon="-70.945207290351390838623046875">
        <ele>880</ele>
        <time>2026-08-21T17:38:41.000Z</time>
        <extensions>
          <ns3:TrackPointExtension>
            <ns3:hr>130</ns3:hr>
            <ns3:cad>45</ns3:cad>
          </ns3:TrackPointExtension>
        </extensions>
      </trkpt>
      <trkpt lat="45.3256434760987758636474609375" lon="-70.9452114813029766082763671875">
        <ele>880.20001220703125</ele>
        <time>2026-08-21T17:38:42.000Z</time>
        <extensions>
          <ns3:TrackPointExtension>
            <ns3:hr>130</ns3:hr>
            <ns3:cad>45</ns3:cad>
          </ns3:TrackPointExtension>
        </extensions>
      </trkpt>
      <trkpt lat="45.3256538696587085723876953125" lon="-70.9452161751687526702880859375">
        <ele>880.4000244140625</ele>
        <time>2026-08-21T17:38:43.000Z</time>
        <extensions>
          <ns3:TrackPointExtension>
            <ns3:hr>130</ns3:hr>
            <ns3:cad>45</ns3:cad>
          </ns3:TrackPointExtension>
        </extensions>
      </trkpt>
      <trkpt lat="45.3256642632186412811279296875" lon="-70.9452215395867824554443359375">
        <ele>880.5999755859375</ele>
        <time>2026-08-21T17:38:44.000Z</time>
        <extensions>
          <ns3:TrackPointExtension>
            <ns3:hr>130</ns3:hr>
            <ns3:cad>47</ns3:cad>
          </ns3:TrackPointExtension>
        </extensions>
      </trkpt>
      <trkpt lat="45.32567717134952545166015625" lon="-70.945228077471256256103515625">
        <ele>880.79998779296875</ele>
        <time>2026-08-21T17:38:45.000Z</time>
        <extensions>
          <ns3:TrackPointExtension>
            <ns3:hr>130</ns3:hr>
            <ns3:cad>47</ns3:cad>
          </ns3:TrackPointExtension>
        </extensions>
      </trkpt>
      <trkpt lat="45.32568731345236301422119140625" lon="-70.9452299214899539947509765625">
        <ele>880.79998779296875</ele>
        <time>2026-08-21T17:38:46.000Z</time>
        <extensions>
          <ns3:TrackPointExtension>
            <ns3:hr>131</ns3:hr>
            <ns3:cad>47</ns3:cad>
          </ns3:TrackPointExtension>
        </extensions>
      </trkpt>
      <trkpt lat="45.32570064067840576171875" lon="-70.94523352570831775665283203125">
        <ele>881</ele>
        <time>2026-08-21T17:38:47.000Z</time>
        <extensions>
          <ns3:TrackPointExtension>
            <ns3:hr>131</ns3:hr>
            <ns3:cad>47</ns3:cad>
          </ns3:TrackPointExtension>
        </extensions>
      </trkpt>
      <trkpt lat="45.32571178860962390899658203125" lon="-70.94523553736507892608642578125">
        <ele>881</ele>
        <time>2026-08-21T17:38:48.000Z</time>
        <extensions>
          <ns3:TrackPointExtension>
            <ns3:hr>131</ns3:hr>
            <ns3:cad>47</ns3:cad>
          </ns3:TrackPointExtension>
        </extensions>
      </trkpt>
      <trkpt lat="45.32572402618825435638427734375" lon="-70.94523889012634754180908203125">
        <ele>881.20001220703125</ele>
        <time>2026-08-21T17:38:49.000Z</time>
        <extensions>
          <ns3:TrackPointExtension>
            <ns3:hr>132</ns3:hr>
            <ns3:cad>44</ns3:cad>
          </ns3:TrackPointExtension>
        </extensions>
      </trkpt>
      <trkpt lat="45.325735509395599365234375" lon="-70.94524123705923557281494140625">
        <ele>881.20001220703125</ele>
        <time>2026-08-21T17:38:50.000Z</time>
        <extensions>
          <ns3:TrackPointExtension>
            <ns3:hr>132</ns3:hr>
            <ns3:cad>44</ns3:cad>
          </ns3:TrackPointExtension>
        </extensions>
      </trkpt>
      <trkpt lat="45.325745232403278350830078125" lon="-70.9452386386692523956298828125">
        <ele>881.4000244140625</ele>
        <time>2026-08-21T17:38:51.000Z</time>
        <extensions>
          <ns3:TrackPointExtension>
            <ns3:hr>132</ns3:hr>
            <ns3:cad>44</ns3:cad>
          </ns3:TrackPointExtension>
        </extensions>
      </trkpt>
      <trkpt lat="45.32575604505836963653564453125" lon="-70.9452346153557300567626953125">
        <ele>881.5999755859375</ele>
        <time>2026-08-21T17:38:52.000Z</time>
        <extensions>
          <ns3:TrackPointExtension>
            <ns3:hr>132</ns3:hr>
            <ns3:cad>46</ns3:cad>
          </ns3:TrackPointExtension>
        </extensions>
      </trkpt>
      <trkpt lat="45.32576878555119037628173828125" lon="-70.9452312625944614410400390625">
        <ele>881.79998779296875</ele>
        <time>2026-08-21T17:38:53.000Z</time>
        <extensions>
          <ns3:TrackPointExtension>
            <ns3:hr>132</ns3:hr>
            <ns3:cad>46</ns3:cad>
          </ns3:TrackPointExtension>
        </extensions>
      </trkpt>
      <trkpt lat="45.32577909529209136962890625" lon="-70.94522933475673198699951171875">
        <ele>882</ele>
        <time>2026-08-21T17:38:54.000Z</time>
        <extensions>
          <ns3:TrackPointExtension>
            <ns3:hr>132</ns3:hr>
            <ns3:cad>47</ns3:cad>
          </ns3:TrackPointExtension>
        </extensions>
      </trkpt>
      <trkpt lat="45.32578269951045513153076171875" lon="-70.9452322684228420257568359375">
        <ele>882.20001220703125</ele>
        <time>2026-08-21T17:38:55.000Z</time>
        <extensions>
          <ns3:TrackPointExtension>
            <ns3:hr>132</ns3:hr>
            <ns3:cad>47</ns3:cad>
          </ns3:TrackPointExtension>
        </extensions>
      </trkpt>
      <trkpt lat="45.3257832862436771392822265625" lon="-70.9452352859079837799072265625">
        <ele>882.20001220703125</ele>
        <time>2026-08-21T17:38:56.000Z</time>
        <extensions>
          <ns3:TrackPointExtension>
            <ns3:hr>132</ns3:hr>
            <ns3:cad>47</ns3:cad>
          </ns3:TrackPointExtension>
        </extensions>
      </trkpt>
      <trkpt lat="45.3257839567959308624267578125" lon="-70.94523419626057147979736328125">
        <ele>882.20001220703125</ele>
        <time>2026-08-21T17:38:57.000Z</time>
        <extensions>
          <ns3:TrackPointExtension>
            <ns3:hr>133</ns3:hr>
            <ns3:cad>0</ns3:cad>
          </ns3:TrackPointExtension>
        </extensions>
      </trkpt>
      <trkpt lat="45.3257816098630428314208984375" lon="-70.94523134641349315643310546875">
        <ele>882.20001220703125</ele>
        <time>2026-08-21T17:38:58.000Z</time>
        <extensions>
          <ns3:TrackPointExtension>
            <ns3:hr>133</ns3:hr>
            <ns3:cad>0</ns3:cad>
          </ns3:TrackPointExtension>
        </extensions>
      </trkpt>
      <trkpt lat="45.32578269951045513153076171875" lon="-70.94523386098444461822509765625">
        <ele>882.20001220703125</ele>
        <time>2026-08-21T17:38:59.000Z</time>
        <extensions>
          <ns3:TrackPointExtension>
            <ns3:hr>133</ns3:hr>
            <ns3:cad>0</ns3:cad>
          </ns3:TrackPointExtension>
        </extensions>
      </trkpt>
      <trkpt lat="45.3257878124713897705078125" lon="-70.94523251987993717193603515625">
        <ele>882.20001220703125</ele>
        <time>2026-08-21T17:39:00.000Z</time>
        <extensions>
          <ns3:TrackPointExtension>
            <ns3:hr>134</ns3:hr>
            <ns3:cad>0</ns3:cad>
          </ns3:TrackPointExtension>
        </extensions>
      </trkpt>
      <trkpt lat="45.325788818299770355224609375" lon="-70.94522682018578052520751953125">
        <ele>882.20001220703125</ele>
        <time>2026-08-21T17:39:01.000Z</time>
        <extensions>
          <ns3:TrackPointExtension>
            <ns3:hr>133</ns3:hr>
            <ns3:cad>0</ns3:cad>
          </ns3:TrackPointExtension>
        </extensions>
      </trkpt>
      <trkpt lat="45.3257958590984344482421875" lon="-70.945224724709987640380859375">
        <ele>882.4000244140625</ele>
        <time>2026-08-21T17:39:02.000Z</time>
        <extensions>
          <ns3:TrackPointExtension>
            <ns3:hr>132</ns3:hr>
            <ns3:cad>0</ns3:cad>
          </ns3:TrackPointExtension>
        </extensions>
      </trkpt>
      <trkpt lat="45.32580901868641376495361328125" lon="-70.945219695568084716796875">
        <ele>882.5999755859375</ele>
        <time>2026-08-21T17:39:03.000Z</time>
        <extensions>
          <ns3:TrackPointExtension>
            <ns3:hr>132</ns3:hr>
            <ns3:cad>0</ns3:cad>
          </ns3:TrackPointExtension>
        </extensions>
      </trkpt>
      <trkpt lat="45.325814969837665557861328125" lon="-70.945214666426181793212890625">
        <ele>882.79998779296875</ele>
        <time>2026-08-21T17:39:04.000Z</time>
        <extensions>
          <ns3:TrackPointExtension>
            <ns3:hr>131</ns3:hr>
            <ns3:cad>0</ns3:cad>
          </ns3:TrackPointExtension>
        </extensions>
      </trkpt>
      <trkpt lat="45.32582678832113742828369140625" lon="-70.94521072693169116973876953125">
        <ele>883</ele>
        <time>2026-08-21T17:39:05.000Z</time>
        <extensions>
          <ns3:TrackPointExtension>
            <ns3:hr>131</ns3:hr>
            <ns3:cad>40</ns3:cad>
          </ns3:TrackPointExtension>
        </extensions>
      </trkpt>
      <trkpt lat="45.3258332423865795135498046875" lon="-70.94520620070397853851318359375">
        <ele>883.20001220703125</ele>
        <time>2026-08-21T17:39:06.000Z</time>
        <extensions>
          <ns3:TrackPointExtension>
            <ns3:hr>131</ns3:hr>
            <ns3:cad>40</ns3:cad>
          </ns3:TrackPointExtension>
        </extensions>
      </trkpt>
      <trkpt lat="45.32584103755652904510498046875" lon="-70.94520066864788532257080078125">
        <ele>883.20001220703125</ele>
        <time>2026-08-21T17:39:07.000Z</time>
        <extensions>
          <ns3:TrackPointExtension>
            <ns3:hr>131</ns3:hr>
            <ns3:cad>42</ns3:cad>
          </ns3:TrackPointExtension>
        </extensions>
      </trkpt>
      <trkpt lat="45.32585109584033489227294921875" lon="-70.945198573172092437744140625">
        <ele>883.20001220703125</ele>
        <time>2026-08-21T17:39:08.000Z</time>
        <extensions>
          <ns3:TrackPointExtension>
            <ns3:hr>131</ns3:hr>
            <ns3:cad>42</ns3:cad>
          </ns3:TrackPointExtension>
        </extensions>
      </trkpt>
      <trkpt lat="45.32585830427706241607666015625" lon="-70.94519647769629955291748046875">
        <ele>883.4000244140625</ele>
        <time>2026-08-21T17:39:09.000Z</time>
        <extensions>
          <ns3:TrackPointExtension>
            <ns3:hr>130</ns3:hr>
            <ns3:cad>42</ns3:cad>
          </ns3:TrackPointExtension>
        </extensions>
      </trkpt>
      <trkpt lat="45.32586718909442424774169921875" lon="-70.94519480131566524505615234375">
        <ele>883.4000244140625</ele>
        <time>2026-08-21T17:39:10.000Z</time>
        <extensions>
          <ns3:TrackPointExtension>
            <ns3:hr>130</ns3:hr>
            <ns3:cad>42</ns3:cad>
          </ns3:TrackPointExtension>
        </extensions>
      </trkpt>
      <trkpt lat="45.32587473280727863311767578125" lon="-70.945192538201808929443359375">
        <ele>883.5999755859375</ele>
        <time>2026-08-21T17:39:11.000Z</time>
        <extensions>
          <ns3:TrackPointExtension>
            <ns3:hr>130</ns3:hr>
            <ns3:cad>42</ns3:cad>
          </ns3:TrackPointExtension>
        </extensions>
      </trkpt>
      <trkpt lat="45.32588210888206958770751953125" lon="-70.945189855992794036865234375">
        <ele>883.5999755859375</ele>
        <time>2026-08-21T17:39:12.000Z</time>
        <extensions>
          <ns3:TrackPointExtension>
            <ns3:hr>129</ns3:hr>
            <ns3:cad>43</ns3:cad>
          </ns3:TrackPointExtension>
        </extensions>
      </trkpt>
      <trkpt lat="45.3258902393281459808349609375" lon="-70.9451893530786037445068359375">
        <ele>883.79998779296875</ele>
        <time>2026-08-21T17:39:13.000Z</time>
        <extensions>
          <ns3:TrackPointExtension>
            <ns3:hr>130</ns3:hr>
            <ns3:cad>43</ns3:cad>
          </ns3:TrackPointExtension>
        </extensions>
      </trkpt>
      <trkpt lat="45.32589887268841266632080078125" lon="-70.94518792815506458282470703125">
        <ele>884</ele>
        <time>2026-08-21T17:39:14.000Z</time>
        <extensions>
          <ns3:TrackPointExtension>
            <ns3:hr>130</ns3:hr>
            <ns3:cad>44</ns3:cad>
          </ns3:TrackPointExtension>
        </extensions>
      </trkpt>
      <trkpt lat="45.3259053267538547515869140625" lon="-70.9451866708695888519287109375">
        <ele>884.20001220703125</ele>
        <time>2026-08-21T17:39:15.000Z</time>
        <extensions>
          <ns3:TrackPointExtension>
            <ns3:hr>130</ns3:hr>
            <ns3:cad>44</ns3:cad>
          </ns3:TrackPointExtension>
        </extensions>
      </trkpt>
      <trkpt lat="45.3259123675525188446044921875" lon="-70.94518910162150859832763671875">
        <ele>884.20001220703125</ele>
        <time>2026-08-21T17:39:16.000Z</time>
        <extensions>
          <ns3:TrackPointExtension>
            <ns3:hr>130</ns3:hr>
            <ns3:cad>44</ns3:cad>
          </ns3:TrackPointExtension>
        </extensions>
      </trkpt>
      <trkpt lat="45.32591949217021465301513671875" lon="-70.9451873414218425750732421875">
        <ele>884.4000244140625</ele>
        <time>2026-08-21T17:39:17.000Z</time>
        <extensions>
          <ns3:TrackPointExtension>
            <ns3:hr>130</ns3:hr>
            <ns3:cad>44</ns3:cad>
          </ns3:TrackPointExtension>
        </extensions>
      </trkpt>
      <trkpt lat="45.325926952064037322998046875" lon="-70.9451888501644134521484375">
        <ele>884.4000244140625</ele>
        <time>2026-08-21T17:39:18.000Z</time>
        <extensions>
          <ns3:TrackPointExtension>
            <ns3:hr>130</ns3:hr>
            <ns3:cad>44</ns3:cad>
          </ns3:TrackPointExtension>
        </extensions>
      </trkpt>
      <trkpt lat="45.32593424431979656219482421875" lon="-70.9451901912689208984375">
        <ele>884.5999755859375</ele>
        <time>2026-08-21T17:39:19.000Z</time>
        <extensions>
          <ns3:TrackPointExtension>
            <ns3:hr>130</ns3:hr>
            <ns3:cad>43</ns3:cad>
          </ns3:TrackPointExtension>
        </extensions>
      </trkpt>
      <trkpt lat="45.32594178803265094757080078125" lon="-70.94519312493503093719482421875">
        <ele>884.79998779296875</ele>
        <time>2026-08-21T17:39:20.000Z</time>
        <extensions>
          <ns3:TrackPointExtension>
            <ns3:hr>130</ns3:hr>
            <ns3:cad>43</ns3:cad>
          </ns3:TrackPointExtension>
        </extensions>
      </trkpt>
      <trkpt lat="45.32594933174550533294677734375" lon="-70.94519756734371185302734375">
        <ele>884.79998779296875</ele>
        <time>2026-08-21T17:39:21.000Z</time>
        <extensions>
          <ns3:TrackPointExtension>
            <ns3:hr>130</ns3:hr>
            <ns3:cad>43</ns3:cad>
          </ns3:TrackPointExtension>
        </extensions>
      </trkpt>
      <trkpt lat="45.32595687545835971832275390625" lon="-70.94520050100982189178466796875">
        <ele>885</ele>
        <time>2026-08-21T17:39:22.000Z</time>
        <extensions>
          <ns3:TrackPointExtension>
            <ns3:hr>129</ns3:hr>
            <ns3:cad>47</ns3:cad>
          </ns3:TrackPointExtension>
        </extensions>
      </trkpt>
      <trkpt lat="45.3259675204753875732421875" lon="-70.94519714824855327606201171875">
        <ele>885.20001220703125</ele>
        <time>2026-08-21T17:39:23.000Z</time>
        <extensions>
          <ns3:TrackPointExtension>
            <ns3:hr>129</ns3:hr>
            <ns3:cad>47</ns3:cad>
          </ns3:TrackPointExtension>
        </extensions>
      </trkpt>
      <trkpt lat="45.32597757875919342041015625" lon="-70.94519681297242641448974609375">
        <ele>885.20001220703125</ele>
        <time>2026-08-21T17:39:24.000Z</time>
        <extensions>
          <ns3:TrackPointExtension>
            <ns3:hr>130</ns3:hr>
            <ns3:cad>47</ns3:cad>
          </ns3:TrackPointExtension>
        </extensions>
      </trkpt>
      <trkpt lat="45.32598839141428470611572265625" lon="-70.94519429840147495269775390625">
        <ele>885.4000244140625</ele>
        <time>2026-08-21T17:39:25.000Z</time>
        <extensions>
          <ns3:TrackPointExtension>
            <ns3:hr>130</ns3:hr>
            <ns3:cad>47</ns3:cad>
          </ns3:TrackPointExtension>
        </extensions>
      </trkpt>
      <trkpt lat="45.32599945552647113800048828125" lon="-70.94519094564020633697509765625">
        <ele>885.4000244140625</ele>
        <time>2026-08-21T17:39:26.000Z</time>
        <extensions>
          <ns3:TrackPointExtension>
            <ns3:hr>130</ns3:hr>
            <ns3:cad>46</ns3:cad>
          </ns3:TrackPointExtension>
        </extensions>
      </trkpt>
      <trkpt lat="45.3260112740099430084228515625" lon="-70.94518658705055713653564453125">
        <ele>885.5999755859375</ele>
        <time>2026-08-21T17:39:27.000Z</time>
        <extensions>
          <ns3:TrackPointExtension>
            <ns3:hr>130</ns3:hr>
            <ns3:cad>46</ns3:cad>
          </ns3:TrackPointExtension>
        </extensions>
      </trkpt>
      <trkpt lat="45.3260206617414951324462890625" lon="-70.94518004916608333587646484375">
        <ele>885.5999755859375</ele>
        <time>2026-08-21T17:39:28.000Z</time>
        <extensions>
          <ns3:TrackPointExtension>
            <ns3:hr>130</ns3:hr>
            <ns3:cad>46</ns3:cad>
          </ns3:TrackPointExtension>
        </extensions>
      </trkpt>
      <trkpt lat="45.32602988183498382568359375" lon="-70.94517367891967296600341796875">
        <ele>885.79998779296875</ele>
        <time>2026-08-21T17:39:29.000Z</time>
        <extensions>
          <ns3:TrackPointExtension>
            <ns3:hr>130</ns3:hr>
            <ns3:cad>45</ns3:cad>
          </ns3:TrackPointExtension>
        </extensions>
      </trkpt>
      <trkpt lat="45.32603700645267963409423828125" lon="-70.94516479410231113433837890625">
        <ele>885.79998779296875</ele>
        <time>2026-08-21T17:39:30.000Z</time>
        <extensions>
          <ns3:TrackPointExtension>
            <ns3:hr>130</ns3:hr>
            <ns3:cad>45</ns3:cad>
          </ns3:TrackPointExtension>
        </extensions>
      </trkpt>
      <trkpt lat="45.32604689709842205047607421875" lon="-70.9451561607420444488525390625">
        <ele>885.79998779296875</ele>
        <time>2026-08-21T17:39:31.000Z</time>
        <extensions>
          <ns3:TrackPointExtension>
            <ns3:hr>130</ns3:hr>
            <ns3:cad>46</ns3:cad>
          </ns3:TrackPointExtension>
        </extensions>
      </trkpt>
      <trkpt lat="45.32605695538222789764404296875" lon="-70.94514786265790462493896484375">
        <ele>886</ele>
        <time>2026-08-21T17:39:32.000Z</time>
        <extensions>
          <ns3:TrackPointExtension>
            <ns3:hr>130</ns3:hr>
            <ns3:cad>46</ns3:cad>
          </ns3:TrackPointExtension>
        </extensions>
      </trkpt>
      <trkpt lat="45.32606718130409717559814453125" lon="-70.9451404027640819549560546875">
        <ele>886</ele>
        <time>2026-08-21T17:39:33.000Z</time>
        <extensions>
          <ns3:TrackPointExtension>
            <ns3:hr>130</ns3:hr>
            <ns3:cad>46</ns3:cad>
          </ns3:TrackPointExtension>
        </extensions>
      </trkpt>
      <trkpt lat="45.3260729648172855377197265625" lon="-70.94513327814638614654541015625">
        <ele>886</ele>
        <time>2026-08-21T17:39:34.000Z</time>
        <extensions>
          <ns3:TrackPointExtension>
            <ns3:hr>130</ns3:hr>
            <ns3:cad>45</ns3:cad>
          </ns3:TrackPointExtension>
        </extensions>
      </trkpt>
      <trkpt lat="45.32608210109174251556396484375" lon="-70.945128165185451507568359375">
        <ele>886.20001220703125</ele>
        <time>2026-08-21T17:39:35.000Z</time>
        <extensions>
          <ns3:TrackPointExtension>
            <ns3:hr>130</ns3:hr>
            <ns3:cad>45</ns3:cad>
          </ns3:TrackPointExtension>
        </extensions>
      </trkpt>
      <trkpt lat="45.32609182409942150115966796875" lon="-70.9451258182525634765625">
        <ele>886.20001220703125</ele>
        <time>2026-08-21T17:39:36.000Z</time>
        <extensions>
          <ns3:TrackPointExtension>
            <ns3:hr>130</ns3:hr>
            <ns3:cad>48</ns3:cad>
          </ns3:TrackPointExtension>
        </extensions>
      </trkpt>
      <trkpt lat="45.32609903253614902496337890625" lon="-70.945124141871929168701171875">
        <ele>886.20001220703125</ele>
        <time>2026-08-21T17:39:37.000Z</time>
        <extensions>
          <ns3:TrackPointExtension>
            <ns3:hr>130</ns3:hr>
            <ns3:cad>48</ns3:cad>
          </ns3:TrackPointExtension>
        </extensions>
      </trkpt>
      <trkpt lat="45.32610833644866943359375" lon="-70.945122130215167999267578125">
        <ele>886.4000244140625</ele>
        <time>2026-08-21T17:39:38.000Z</time>
        <extensions>
          <ns3:TrackPointExtension>
            <ns3:hr>130</ns3:hr>
            <ns3:cad>48</ns3:cad>
          </ns3:TrackPointExtension>
        </extensions>
      </trkpt>
      <trkpt lat="45.3261165507137775421142578125" lon="-70.94512112438678741455078125">
        <ele>886.4000244140625</ele>
        <time>2026-08-21T17:39:39.000Z</time>
        <extensions>
          <ns3:TrackPointExtension>
            <ns3:hr>130</ns3:hr>
            <ns3:cad>46</ns3:cad>
          </ns3:TrackPointExtension>
        </extensions>
      </trkpt>
      <trkpt lat="45.32612451352179050445556640625" lon="-70.9451212920248508453369140625">
        <ele>886.4000244140625</ele>
        <time>2026-08-21T17:39:40.000Z</time>
        <extensions>
          <ns3:TrackPointExtension>
            <ns3:hr>130</ns3:hr>
            <ns3:cad>46</ns3:cad>
          </ns3:TrackPointExtension>
        </extensions>
      </trkpt>
      <trkpt lat="45.32613054849207401275634765625" lon="-70.945124141871929168701171875">
        <ele>886.5999755859375</ele>
        <time>2026-08-21T17:39:41.000Z</time>
        <extensions>
          <ns3:TrackPointExtension>
            <ns3:hr>130</ns3:hr>
            <ns3:cad>46</ns3:cad>
          </ns3:TrackPointExtension>
        </extensions>
      </trkpt>
      <trkpt lat="45.32614094205200672149658203125" lon="-70.9451258182525634765625">
        <ele>886.5999755859375</ele>
        <time>2026-08-21T17:39:42.000Z</time>
        <extensions>
          <ns3:TrackPointExtension>
            <ns3:hr>130</ns3:hr>
            <ns3:cad>45</ns3:cad>
          </ns3:TrackPointExtension>
        </extensions>
      </trkpt>
      <trkpt lat="45.32615083269774913787841796875" lon="-70.945128835737705230712890625">
        <ele>886.5999755859375</ele>
        <time>2026-08-21T17:39:43.000Z</time>
        <extensions>
          <ns3:TrackPointExtension>
            <ns3:hr>130</ns3:hr>
            <ns3:cad>45</ns3:cad>
          </ns3:TrackPointExtension>
        </extensions>
      </trkpt>
      <trkpt lat="45.32616189680993556976318359375" lon="-70.945132859051227569580078125">
        <ele>886.5999755859375</ele>
        <time>2026-08-21T17:39:44.000Z</time>
        <extensions>
          <ns3:TrackPointExtension>
            <ns3:hr>129</ns3:hr>
            <ns3:cad>46</ns3:cad>
          </ns3:TrackPointExtension>
        </extensions>
      </trkpt>
      <trkpt lat="45.32617606222629547119140625" lon="-70.9451340325176715850830078125">
        <ele>886.5999755859375</ele>
        <time>2026-08-21T17:39:45.000Z</time>
        <extensions>
          <ns3:TrackPointExtension>
            <ns3:hr>129</ns3:hr>
            <ns3:cad>46</ns3:cad>
          </ns3:TrackPointExtension>
        </extensions>
      </trkpt>
      <trkpt lat="45.3261886350810527801513671875" lon="-70.94513361342251300811767578125">
        <ele>886.5999755859375</ele>
        <time>2026-08-21T17:39:46.000Z</time>
        <extensions>
          <ns3:TrackPointExtension>
            <ns3:hr>128</ns3:hr>
            <ns3:cad>48</ns3:cad>
          </ns3:TrackPointExtension>
        </extensions>
      </trkpt>
      <trkpt lat="45.3261996991932392120361328125" lon="-70.94513109885156154632568359375">
        <ele>886.5999755859375</ele>
        <time>2026-08-21T17:39:47.000Z</time>
        <extensions>
          <ns3:TrackPointExtension>
            <ns3:hr>127</ns3:hr>
            <ns3:cad>48</ns3:cad>
          </ns3:TrackPointExtension>
        </extensions>
      </trkpt>
      <trkpt lat="45.3262157924473285675048828125" lon="-70.94512782990932464599609375">
        <ele>886.79998779296875</ele>
        <time>2026-08-21T17:39:48.000Z</time>
        <extensions>
          <ns3:TrackPointExtension>
            <ns3:hr>126</ns3:hr>
            <ns3:cad>48</ns3:cad>
          </ns3:TrackPointExtension>
        </extensions>
      </trkpt>
      <trkpt lat="45.32622911967337131500244140625" lon="-70.945123471319675445556640625">
        <ele>886.79998779296875</ele>
        <time>2026-08-21T17:39:49.000Z</time>
        <extensions>
          <ns3:TrackPointExtension>
            <ns3:hr>126</ns3:hr>
            <ns3:cad>50</ns3:cad>
          </ns3:TrackPointExtension>
        </extensions>
      </trkpt>
      <trkpt lat="45.3262422792613506317138671875" lon="-70.9451182745397090911865234375">
        <ele>886.79998779296875</ele>
        <time>2026-08-21T17:39:50.000Z</time>
        <extensions>
          <ns3:TrackPointExtension>
            <ns3:hr>126</ns3:hr>
            <ns3:cad>50</ns3:cad>
          </ns3:TrackPointExtension>
        </extensions>
      </trkpt>
      <trkpt lat="45.3262560255825519561767578125" lon="-70.94511433504521846771240234375">
        <ele>886.79998779296875</ele>
        <time>2026-08-21T17:39:51.000Z</time>
        <extensions>
          <ns3:TrackPointExtension>
            <ns3:hr>126</ns3:hr>
            <ns3:cad>51</ns3:cad>
          </ns3:TrackPointExtension>
        </extensions>
      </trkpt>
      <trkpt lat="45.326268263161182403564453125" lon="-70.94511098228394985198974609375">
        <ele>886.79998779296875</ele>
        <time>2026-08-21T17:39:52.000Z</time>
        <extensions>
          <ns3:TrackPointExtension>
            <ns3:hr>126</ns3:hr>
            <ns3:cad>52</ns3:cad>
          </ns3:TrackPointExtension>
        </extensions>
      </trkpt>
      <trkpt lat="45.326280333101749420166015625" lon="-70.94510729424655437469482421875">
        <ele>886.79998779296875</ele>
        <time>2026-08-21T17:39:53.000Z</time>
        <extensions>
          <ns3:TrackPointExtension>
            <ns3:hr>126</ns3:hr>
            <ns3:cad>52</ns3:cad>
          </ns3:TrackPointExtension>
        </extensions>
      </trkpt>
      <trkpt lat="45.32629181630909442901611328125" lon="-70.9451065398752689361572265625">
        <ele>886.79998779296875</ele>
        <time>2026-08-21T17:39:54.000Z</time>
        <extensions>
          <ns3:TrackPointExtension>
            <ns3:hr>127</ns3:hr>
            <ns3:cad>52</ns3:cad>
          </ns3:TrackPointExtension>
        </extensions>
      </trkpt>
      <trkpt lat="45.3263049758970737457275390625" lon="-70.94510645605623722076416015625">
        <ele>887</ele>
        <time>2026-08-21T17:39:55.000Z</time>
        <extensions>
          <ns3:TrackPointExtension>
            <ns3:hr>127</ns3:hr>
            <ns3:cad>52</ns3:cad>
          </ns3:TrackPointExtension>
        </extensions>
      </trkpt>
      <trkpt lat="45.32631712965667247772216796875" lon="-70.94510846771299839019775390625">
        <ele>887</ele>
        <time>2026-08-21T17:39:56.000Z</time>
        <extensions>
          <ns3:TrackPointExtension>
            <ns3:hr>127</ns3:hr>
            <ns3:cad>52</ns3:cad>
          </ns3:TrackPointExtension>
        </extensions>
      </trkpt>
      <trkpt lat="45.326328277587890625" lon="-70.945107378065586090087890625">
        <ele>887</ele>
        <time>2026-08-21T17:39:57.000Z</time>
        <extensions>
          <ns3:TrackPointExtension>
            <ns3:hr>128</ns3:hr>
            <ns3:cad>51</ns3:cad>
          </ns3:TrackPointExtension>
        </extensions>
      </trkpt>
      <trkpt lat="45.3263430297374725341796875" lon="-70.94510125927627086639404296875">
        <ele>887.20001220703125</ele>
        <time>2026-08-21T17:39:58.000Z</time>
        <extensions>
          <ns3:TrackPointExtension>
            <ns3:hr>128</ns3:hr>
            <ns3:cad>51</ns3:cad>
          </ns3:TrackPointExtension>
        </extensions>
      </trkpt>
      <trkpt lat="45.32635350711643695831298828125" lon="-70.94509120099246501922607421875">
        <ele>887.4000244140625</ele>
        <time>2026-08-21T17:39:59.000Z</time>
        <extensions>
          <ns3:TrackPointExtension>
            <ns3:hr>128</ns3:hr>
            <ns3:cad>51</ns3:cad>
          </ns3:TrackPointExtension>
        </extensions>
      </trkpt>
      <trkpt lat="45.32636582851409912109375" lon="-70.945085585117340087890625">
        <ele>887.4000244140625</ele>
        <time>2026-08-21T17:40:00.000Z</time>
        <extensions>
          <ns3:TrackPointExtension>
            <ns3:hr>128</ns3:hr>
            <ns3:cad>51</ns3:cad>
          </ns3:TrackPointExtension>
        </extensions>
      </trkpt>
      <trkpt lat="45.32637764699757099151611328125" lon="-70.94507678411900997161865234375">
        <ele>887.4000244140625</ele>
        <time>2026-08-21T17:40:01.000Z</time>
        <extensions>
          <ns3:TrackPointExtension>
            <ns3:hr>128</ns3:hr>
            <ns3:cad>52</ns3:cad>
          </ns3:TrackPointExtension>
        </extensions>
      </trkpt>
      <trkpt lat="45.326391644775867462158203125" lon="-70.9450666420161724090576171875">
        <ele>887.4000244140625</ele>
        <time>2026-08-21T17:40:02.000Z</time>
        <extensions>
          <ns3:TrackPointExtension>
            <ns3:hr>128</ns3:hr>
            <ns3:cad>53</ns3:cad>
          </ns3:TrackPointExtension>
        </extensions>
      </trkpt>
      <trkpt lat="45.32640212215483188629150390625" lon="-70.94505800865590572357177734375">
        <ele>887.5999755859375</ele>
        <time>2026-08-21T17:40:03.000Z</time>
        <extensions>
          <ns3:TrackPointExtension>
            <ns3:hr>128</ns3:hr>
            <ns3:cad>53</ns3:cad>
          </ns3:TrackPointExtension>
        </extensions>
      </trkpt>
      <trkpt lat="45.3264115937054157257080078125" lon="-70.94505675137042999267578125">
        <ele>887.5999755859375</ele>
        <time>2026-08-21T17:40:04.000Z</time>
        <extensions>
          <ns3:TrackPointExtension>
            <ns3:hr>127</ns3:hr>
            <ns3:cad>54</ns3:cad>
          </ns3:TrackPointExtension>
        </extensions>
      </trkpt>
      <trkpt lat="45.326422490179538726806640625" lon="-70.9450505487620830535888671875">
        <ele>887.5999755859375</ele>
        <time>2026-08-21T17:40:05.000Z</time>
        <extensions>
          <ns3:TrackPointExtension>
            <ns3:hr>127</ns3:hr>
            <ns3:cad>54</ns3:cad>
          </ns3:TrackPointExtension>
        </extensions>
      </trkpt>
      <trkpt lat="45.32643430866301059722900390625" lon="-70.94504677690565586090087890625">
        <ele>887.5999755859375</ele>
        <time>2026-08-21T17:40:06.000Z</time>
        <extensions>
          <ns3:TrackPointExtension>
            <ns3:hr>126</ns3:hr>
            <ns3:cad>55</ns3:cad>
          </ns3:TrackPointExtension>
        </extensions>
      </trkpt>
      <trkpt lat="45.326445288956165313720703125" lon="-70.945040993392467498779296875">
        <ele>887.79998779296875</ele>
        <time>2026-08-21T17:40:07.000Z</time>
        <extensions>
          <ns3:TrackPointExtension>
            <ns3:hr>126</ns3:hr>
            <ns3:cad>54</ns3:cad>
          </ns3:TrackPointExtension>
        </extensions>
      </trkpt>
      <trkpt lat="45.32645861618220806121826171875" lon="-70.9450359642505645751953125">
        <ele>887.79998779296875</ele>
        <time>2026-08-21T17:40:08.000Z</time>
        <extensions>
          <ns3:TrackPointExtension>
            <ns3:hr>126</ns3:hr>
            <ns3:cad>51</ns3:cad>
          </ns3:TrackPointExtension>
        </extensions>
      </trkpt>
      <trkpt lat="45.32646842300891876220703125" lon="-70.9450300969183444976806640625">
        <ele>888</ele>
        <time>2026-08-21T17:40:09.000Z</time>
        <extensions>
          <ns3:TrackPointExtension>
            <ns3:hr>126</ns3:hr>
            <ns3:cad>50</ns3:cad>
          </ns3:TrackPointExtension>
        </extensions>
      </trkpt>
      <trkpt lat="45.3264773078262805938720703125" lon="-70.9450220502912998199462890625">
        <ele>888.20001220703125</ele>
        <time>2026-08-21T17:40:10.000Z</time>
        <extensions>
          <ns3:TrackPointExtension>
            <ns3:hr>126</ns3:hr>
            <ns3:cad>50</ns3:cad>
          </ns3:TrackPointExtension>
        </extensions>
      </trkpt>
      <trkpt lat="45.3264878690242767333984375" lon="-70.94501576386392116546630859375">
        <ele>888.20001220703125</ele>
        <time>2026-08-21T17:40:11.000Z</time>
        <extensions>
          <ns3:TrackPointExtension>
            <ns3:hr>126</ns3:hr>
            <ns3:cad>50</ns3:cad>
          </ns3:TrackPointExtension>
        </extensions>
      </trkpt>
      <trkpt lat="45.3264997713267803192138671875" lon="-70.94501073472201824188232421875">
        <ele>888.4000244140625</ele>
        <time>2026-08-21T17:40:12.000Z</time>
        <extensions>
          <ns3:TrackPointExtension>
            <ns3:hr>126</ns3:hr>
            <ns3:cad>50</ns3:cad>
          </ns3:TrackPointExtension>
        </extensions>
      </trkpt>
      <trkpt lat="45.326513014733791351318359375" lon="-70.94500553794205188751220703125">
        <ele>888.4000244140625</ele>
        <time>2026-08-21T17:40:13.000Z</time>
        <extensions>
          <ns3:TrackPointExtension>
            <ns3:hr>126</ns3:hr>
            <ns3:cad>51</ns3:cad>
          </ns3:TrackPointExtension>
        </extensions>
      </trkpt>
      <trkpt lat="45.32652600668370723724365234375" lon="-70.9450049512088298797607421875">
        <ele>888.5999755859375</ele>
        <time>2026-08-21T17:40:14.000Z</time>
        <extensions>
          <ns3:TrackPointExtension>
            <ns3:hr>126</ns3:hr>
            <ns3:cad>51</ns3:cad>
          </ns3:TrackPointExtension>
        </extensions>
      </trkpt>
      <trkpt lat="45.32653790898621082305908203125" lon="-70.9450089745223522186279296875">
        <ele>888.5999755859375</ele>
        <time>2026-08-21T17:40:15.000Z</time>
        <extensions>
          <ns3:TrackPointExtension>
            <ns3:hr>126</ns3:hr>
            <ns3:cad>51</ns3:cad>
          </ns3:TrackPointExtension>
        </extensions>
      </trkpt>
      <trkpt lat="45.326547883450984954833984375" lon="-70.94500738196074962615966796875">
        <ele>889</ele>
        <time>2026-08-21T17:40:16.000Z</time>
        <extensions>
          <ns3:TrackPointExtension>
            <ns3:hr>126</ns3:hr>
            <ns3:cad>52</ns3:cad>
          </ns3:TrackPointExtension>
        </extensions>
      </trkpt>
      <trkpt lat="45.3265597857534885406494140625" lon="-70.9450005926191806793212890625">
        <ele>889.20001220703125</ele>
        <time>2026-08-21T17:40:17.000Z</time>
        <extensions>
          <ns3:TrackPointExtension>
            <ns3:hr>126</ns3:hr>
            <ns3:cad>52</ns3:cad>
          </ns3:TrackPointExtension>
        </extensions>
      </trkpt>
      <trkpt lat="45.3265705145895481109619140625" lon="-70.9449945576488971710205078125">
        <ele>889.4000244140625</ele>
        <time>2026-08-21T17:40:18.000Z</time>
        <extensions>
          <ns3:TrackPointExtension>
            <ns3:hr>126</ns3:hr>
            <ns3:cad>53</ns3:cad>
          </ns3:TrackPointExtension>
        </extensions>
      </trkpt>
      <trkpt lat="45.3265745379030704498291015625" lon="-70.94498458318412303924560546875">
        <ele>889.5999755859375</ele>
        <time>2026-08-21T17:40:19.000Z</time>
        <extensions>
          <ns3:TrackPointExtension>
            <ns3:hr>125</ns3:hr>
            <ns3:cad>52</ns3:cad>
          </ns3:TrackPointExtension>
        </extensions>
      </trkpt>
      <trkpt lat="45.32657898031175136566162109375" lon="-70.9449777938425540924072265625">
        <ele>889.5999755859375</ele>
        <time>2026-08-21T17:40:20.000Z</time>
        <extensions>
          <ns3:TrackPointExtension>
            <ns3:hr>125</ns3:hr>
            <ns3:cad>52</ns3:cad>
          </ns3:TrackPointExtension>
        </extensions>
      </trkpt>
      <trkpt lat="45.32657931558787822723388671875" lon="-70.94497636891901493072509765625">
        <ele>889.79998779296875</ele>
        <time>2026-08-21T17:40:21.000Z</time>
        <extensions>
          <ns3:TrackPointExtension>
            <ns3:hr>125</ns3:hr>
            <ns3:cad>0</ns3:cad>
          </ns3:TrackPointExtension>
        </extensions>
      </trkpt>
      <trkpt lat="45.32657981850206851959228515625" lon="-70.9449737705290317535400390625">
        <ele>889.79998779296875</ele>
        <time>2026-08-21T17:40:22.000Z</time>
        <extensions>
          <ns3:TrackPointExtension>
            <ns3:hr>125</ns3:hr>
            <ns3:cad>0</ns3:cad>
          </ns3:TrackPointExtension>
        </extensions>
      </trkpt>
      <trkpt lat="45.3265809081494808197021484375" lon="-70.944971926510334014892578125">
        <ele>889.79998779296875</ele>
        <time>2026-08-21T17:40:23.000Z</time>
        <extensions>
          <ns3:TrackPointExtension>
            <ns3:hr>124</ns3:hr>
            <ns3:cad>0</ns3:cad>
          </ns3:TrackPointExtension>
        </extensions>
      </trkpt>
      <trkpt lat="45.32658040523529052734375" lon="-70.9449714235961437225341796875">
        <ele>889.79998779296875</ele>
        <time>2026-08-21T17:40:24.000Z</time>
        <extensions>
          <ns3:TrackPointExtension>
            <ns3:hr>124</ns3:hr>
            <ns3:cad>0</ns3:cad>
          </ns3:TrackPointExtension>
        </extensions>
      </trkpt>
      <trkpt lat="45.32657981850206851959228515625" lon="-70.94497133977711200714111328125">
        <ele>889.79998779296875</ele>
        <time>2026-08-21T17:40:25.000Z</time>
        <extensions>
          <ns3:TrackPointExtension>
            <ns3:hr>124</ns3:hr>
            <ns3:cad>0</ns3:cad>
          </ns3:TrackPointExtension>
        </extensions>
      </trkpt>
      <trkpt lat="45.32657973468303680419921875" lon="-70.9449714235961437225341796875">
        <ele>889.79998779296875</ele>
        <time>2026-08-21T17:40:26.000Z</time>
        <extensions>
          <ns3:TrackPointExtension>
            <ns3:hr>125</ns3:hr>
            <ns3:cad>0</ns3:cad>
          </ns3:TrackPointExtension>
        </extensions>
      </trkpt>
      <trkpt lat="45.32657973468303680419921875" lon="-70.9449714235961437225341796875">
        <ele>889.79998779296875</ele>
        <time>2026-08-21T17:40:27.000Z</time>
        <extensions>
          <ns3:TrackPointExtension>
            <ns3:hr>125</ns3:hr>
            <ns3:cad>0</ns3:cad>
          </ns3:TrackPointExtension>
        </extensions>
      </trkpt>
      <trkpt lat="45.32657973468303680419921875" lon="-70.9449714235961437225341796875">
        <ele>889.79998779296875</ele>
        <time>2026-08-21T17:40:28.000Z</time>
        <extensions>
          <ns3:TrackPointExtension>
            <ns3:hr>126</ns3:hr>
            <ns3:cad>0</ns3:cad>
          </ns3:TrackPointExtension>
        </extensions>
      </trkpt>
      <trkpt lat="45.32657973468303680419921875" lon="-70.9449714235961437225341796875">
        <ele>889.79998779296875</ele>
        <time>2026-08-21T17:40:29.000Z</time>
        <extensions>
          <ns3:TrackPointExtension>
            <ns3:hr>126</ns3:hr>
            <ns3:cad>0</ns3:cad>
          </ns3:TrackPointExtension>
        </extensions>
      </trkpt>
      <trkpt lat="45.32657973468303680419921875" lon="-70.9449714235961437225341796875">
        <ele>889.79998779296875</ele>
        <time>2026-08-21T17:40:30.000Z</time>
        <extensions>
          <ns3:TrackPointExtension>
            <ns3:hr>126</ns3:hr>
            <ns3:cad>0</ns3:cad>
          </ns3:TrackPointExtension>
        </extensions>
      </trkpt>
      <trkpt lat="45.32657973468303680419921875" lon="-70.9449714235961437225341796875">
        <ele>889.79998779296875</ele>
        <time>2026-08-21T17:40:31.000Z</time>
        <extensions>
          <ns3:TrackPointExtension>
            <ns3:hr>125</ns3:hr>
            <ns3:cad>0</ns3:cad>
          </ns3:TrackPointExtension>
        </extensions>
      </trkpt>
      <trkpt lat="45.32657973468303680419921875" lon="-70.9449714235961437225341796875">
        <ele>889.79998779296875</ele>
        <time>2026-08-21T17:40:32.000Z</time>
        <extensions>
          <ns3:TrackPointExtension>
            <ns3:hr>125</ns3:hr>
            <ns3:cad>0</ns3:cad>
          </ns3:TrackPointExtension>
        </extensions>
      </trkpt>
      <trkpt lat="45.32657973468303680419921875" lon="-70.9449714235961437225341796875">
        <ele>889.79998779296875</ele>
        <time>2026-08-21T17:40:33.000Z</time>
        <extensions>
          <ns3:TrackPointExtension>
            <ns3:hr>124</ns3:hr>
            <ns3:cad>0</ns3:cad>
          </ns3:TrackPointExtension>
        </extensions>
      </trkpt>
      <trkpt lat="45.32657973468303680419921875" lon="-70.9449714235961437225341796875">
        <ele>889.79998779296875</ele>
        <time>2026-08-21T17:40:34.000Z</time>
        <extensions>
          <ns3:TrackPointExtension>
            <ns3:hr>124</ns3:hr>
            <ns3:cad>0</ns3:cad>
          </ns3:TrackPointExtension>
        </extensions>
      </trkpt>
      <trkpt lat="45.32657973468303680419921875" lon="-70.9449714235961437225341796875">
        <ele>889.79998779296875</ele>
        <time>2026-08-21T17:40:35.000Z</time>
        <extensions>
          <ns3:TrackPointExtension>
            <ns3:hr>124</ns3:hr>
            <ns3:cad>0</ns3:cad>
          </ns3:TrackPointExtension>
        </extensions>
      </trkpt>
      <trkpt lat="45.32657973468303680419921875" lon="-70.9449714235961437225341796875">
        <ele>889.5999755859375</ele>
        <time>2026-08-21T17:40:36.000Z</time>
        <extensions>
          <ns3:TrackPointExtension>
            <ns3:hr>124</ns3:hr>
            <ns3:cad>0</ns3:cad>
          </ns3:TrackPointExtension>
        </extensions>
      </trkpt>
      <trkpt lat="45.32657973468303680419921875" lon="-70.9449714235961437225341796875">
        <ele>889.5999755859375</ele>
        <time>2026-08-21T17:40:37.000Z</time>
        <extensions>
          <ns3:TrackPointExtension>
            <ns3:hr>123</ns3:hr>
            <ns3:cad>0</ns3:cad>
          </ns3:TrackPointExtension>
        </extensions>
      </trkpt>
      <trkpt lat="45.32657973468303680419921875" lon="-70.9449714235961437225341796875">
        <ele>889.5999755859375</ele>
        <time>2026-08-21T17:40:38.000Z</time>
        <extensions>
          <ns3:TrackPointExtension>
            <ns3:hr>124</ns3:hr>
            <ns3:cad>0</ns3:cad>
          </ns3:TrackPointExtension>
        </extensions>
      </trkpt>
      <trkpt lat="45.32657973468303680419921875" lon="-70.9449714235961437225341796875">
        <ele>889.5999755859375</ele>
        <time>2026-08-21T17:40:39.000Z</time>
        <extensions>
          <ns3:TrackPointExtension>
            <ns3:hr>124</ns3:hr>
            <ns3:cad>0</ns3:cad>
          </ns3:TrackPointExtension>
        </extensions>
      </trkpt>
      <trkpt lat="45.32657973468303680419921875" lon="-70.9449714235961437225341796875">
        <ele>889.4000244140625</ele>
        <time>2026-08-21T17:40:40.000Z</time>
        <extensions>
          <ns3:TrackPointExtension>
            <ns3:hr>123</ns3:hr>
            <ns3:cad>0</ns3:cad>
          </ns3:TrackPointExtension>
        </extensions>
      </trkpt>
      <trkpt lat="45.32657973468303680419921875" lon="-70.9449714235961437225341796875">
        <ele>889.4000244140625</ele>
        <time>2026-08-21T17:40:41.000Z</time>
        <extensions>
          <ns3:TrackPointExtension>
            <ns3:hr>123</ns3:hr>
            <ns3:cad>0</ns3:cad>
          </ns3:TrackPointExtension>
        </extensions>
      </trkpt>
      <trkpt lat="45.32657973468303680419921875" lon="-70.9449714235961437225341796875">
        <ele>889.4000244140625</ele>
        <time>2026-08-21T17:40:42.000Z</time>
        <extensions>
          <ns3:TrackPointExtension>
            <ns3:hr>123</ns3:hr>
            <ns3:cad>0</ns3:cad>
          </ns3:TrackPointExtension>
        </extensions>
      </trkpt>
      <trkpt lat="45.32657973468303680419921875" lon="-70.9449714235961437225341796875">
        <ele>889.20001220703125</ele>
        <time>2026-08-21T17:40:43.000Z</time>
        <extensions>
          <ns3:TrackPointExtension>
            <ns3:hr>123</ns3:hr>
            <ns3:cad>0</ns3:cad>
          </ns3:TrackPointExtension>
        </extensions>
      </trkpt>
      <trkpt lat="45.32657973468303680419921875" lon="-70.9449714235961437225341796875">
        <ele>889.20001220703125</ele>
        <time>2026-08-21T17:40:44.000Z</time>
        <extensions>
          <ns3:TrackPointExtension>
            <ns3:hr>123</ns3:hr>
            <ns3:cad>0</ns3:cad>
          </ns3:TrackPointExtension>
        </extensions>
      </trkpt>
      <trkpt lat="45.32657973468303680419921875" lon="-70.9449714235961437225341796875">
        <ele>889.20001220703125</ele>
        <time>2026-08-21T17:40:45.000Z</time>
        <extensions>
          <ns3:TrackPointExtension>
            <ns3:hr>123</ns3:hr>
            <ns3:cad>0</ns3:cad>
          </ns3:TrackPointExtension>
        </extensions>
      </trkpt>
      <trkpt lat="45.32657973468303680419921875" lon="-70.9449714235961437225341796875">
        <ele>889.20001220703125</ele>
        <time>2026-08-21T17:40:46.000Z</time>
        <extensions>
          <ns3:TrackPointExtension>
            <ns3:hr>124</ns3:hr>
            <ns3:cad>0</ns3:cad>
          </ns3:TrackPointExtension>
        </extensions>
      </trkpt>
      <trkpt lat="45.32657973468303680419921875" lon="-70.9449714235961437225341796875">
        <ele>889.20001220703125</ele>
        <time>2026-08-21T17:40:47.000Z</time>
        <extensions>
          <ns3:TrackPointExtension>
            <ns3:hr>124</ns3:hr>
            <ns3:cad>0</ns3:cad>
          </ns3:TrackPointExtension>
        </extensions>
      </trkpt>
      <trkpt lat="45.32657973468303680419921875" lon="-70.9449714235961437225341796875">
        <ele>889.4000244140625</ele>
        <time>2026-08-21T17:40:48.000Z</time>
        <extensions>
          <ns3:TrackPointExtension>
            <ns3:hr>124</ns3:hr>
            <ns3:cad>0</ns3:cad>
          </ns3:TrackPointExtension>
        </extensions>
      </trkpt>
      <trkpt lat="45.3265876136720180511474609375" lon="-70.94497201032936573028564453125">
        <ele>889.4000244140625</ele>
        <time>2026-08-21T17:40:49.000Z</time>
        <extensions>
          <ns3:TrackPointExtension>
            <ns3:hr>124</ns3:hr>
            <ns3:cad>0</ns3:cad>
          </ns3:TrackPointExtension>
        </extensions>
      </trkpt>
      <trkpt lat="45.3265949897468090057373046875" lon="-70.9449700824916362762451171875">
        <ele>889.4000244140625</ele>
        <time>2026-08-21T17:40:50.000Z</time>
        <extensions>
          <ns3:TrackPointExtension>
            <ns3:hr>124</ns3:hr>
            <ns3:cad>60</ns3:cad>
          </ns3:TrackPointExtension>
        </extensions>
      </trkpt>
      <trkpt lat="45.32660412602126598358154296875" lon="-70.94496631063520908355712890625">
        <ele>889.5999755859375</ele>
        <time>2026-08-21T17:40:51.000Z</time>
        <extensions>
          <ns3:TrackPointExtension>
            <ns3:hr>123</ns3:hr>
            <ns3:cad>0</ns3:cad>
          </ns3:TrackPointExtension>
        </extensions>
      </trkpt>
      <trkpt lat="45.32661435194313526153564453125" lon="-70.94496295787394046783447265625">
        <ele>889.5999755859375</ele>
        <time>2026-08-21T17:40:52.000Z</time>
        <extensions>
          <ns3:TrackPointExtension>
            <ns3:hr>124</ns3:hr>
            <ns3:cad>0</ns3:cad>
          </ns3:TrackPointExtension>
        </extensions>
      </trkpt>
      <trkpt lat="45.32662591896951198577880859375" lon="-70.9449586831033229827880859375">
        <ele>889.5999755859375</ele>
        <time>2026-08-21T17:40:53.000Z</time>
        <extensions>
          <ns3:TrackPointExtension>
            <ns3:hr>124</ns3:hr>
            <ns3:cad>0</ns3:cad>
          </ns3:TrackPointExtension>
        </extensions>
      </trkpt>
      <trkpt lat="45.3266395814716815948486328125" lon="-70.94495541416108608245849609375">
        <ele>889.5999755859375</ele>
        <time>2026-08-21T17:40:54.000Z</time>
        <extensions>
          <ns3:TrackPointExtension>
            <ns3:hr>124</ns3:hr>
            <ns3:cad>0</ns3:cad>
          </ns3:TrackPointExtension>
        </extensions>
      </trkpt>
      <trkpt lat="45.32665559090673923492431640625" lon="-70.94495348632335662841796875">
        <ele>889.5999755859375</ele>
        <time>2026-08-21T17:40:55.000Z</time>
        <extensions>
          <ns3:TrackPointExtension>
            <ns3:hr>124</ns3:hr>
            <ns3:cad>50</ns3:cad>
          </ns3:TrackPointExtension>
        </extensions>
      </trkpt>
      <trkpt lat="45.3266677446663379669189453125" lon="-70.94494879245758056640625">
        <ele>889.5999755859375</ele>
        <time>2026-08-21T17:40:56.000Z</time>
        <extensions>
          <ns3:TrackPointExtension>
            <ns3:hr>125</ns3:hr>
            <ns3:cad>51</ns3:cad>
          </ns3:TrackPointExtension>
        </extensions>
      </trkpt>
      <trkpt lat="45.32667553983628749847412109375" lon="-70.9449486248195171356201171875">
        <ele>889.79998779296875</ele>
        <time>2026-08-21T17:40:57.000Z</time>
        <extensions>
          <ns3:TrackPointExtension>
            <ns3:hr>125</ns3:hr>
            <ns3:cad>51</ns3:cad>
          </ns3:TrackPointExtension>
        </extensions>
      </trkpt>
      <trkpt lat="45.32668693922460079193115234375" lon="-70.9449509717524051666259765625">
        <ele>890</ele>
        <time>2026-08-21T17:40:58.000Z</time>
        <extensions>
          <ns3:TrackPointExtension>
            <ns3:hr>124</ns3:hr>
            <ns3:cad>52</ns3:cad>
          </ns3:TrackPointExtension>
        </extensions>
      </trkpt>
      <trkpt lat="45.32670118845999240875244140625" lon="-70.94494946300983428955078125">
        <ele>890.20001220703125</ele>
        <time>2026-08-21T17:40:59.000Z</time>
        <extensions>
          <ns3:TrackPointExtension>
            <ns3:hr>124</ns3:hr>
            <ns3:cad>52</ns3:cad>
          </ns3:TrackPointExtension>
        </extensions>
      </trkpt>
      <trkpt lat="45.32671359367668628692626953125" lon="-70.94494770281016826629638671875">
        <ele>890.20001220703125</ele>
        <time>2026-08-21T17:41:00.000Z</time>
        <extensions>
          <ns3:TrackPointExtension>
            <ns3:hr>124</ns3:hr>
            <ns3:cad>52</ns3:cad>
          </ns3:TrackPointExtension>
        </extensions>
      </trkpt>
      <trkpt lat="45.32672700472176074981689453125" lon="-70.944944433867931365966796875">
        <ele>890.20001220703125</ele>
        <time>2026-08-21T17:41:01.000Z</time>
        <extensions>
          <ns3:TrackPointExtension>
            <ns3:hr>124</ns3:hr>
            <ns3:cad>53</ns3:cad>
          </ns3:TrackPointExtension>
        </extensions>
      </trkpt>
      <trkpt lat="45.32673857174813747406005859375" lon="-70.94494049437344074249267578125">
        <ele>890.20001220703125</ele>
        <time>2026-08-21T17:41:02.000Z</time>
        <extensions>
          <ns3:TrackPointExtension>
            <ns3:hr>124</ns3:hr>
            <ns3:cad>53</ns3:cad>
          </ns3:TrackPointExtension>
        </extensions>
      </trkpt>
      <trkpt lat="45.326752401888370513916015625" lon="-70.9449325315654277801513671875">
        <ele>890.20001220703125</ele>
        <time>2026-08-21T17:41:03.000Z</time>
        <extensions>
          <ns3:TrackPointExtension>
            <ns3:hr>123</ns3:hr>
            <ns3:cad>55</ns3:cad>
          </ns3:TrackPointExtension>
        </extensions>
      </trkpt>
      <trkpt lat="45.32676757313311100006103515625" lon="-70.9449244849383831024169921875">
        <ele>890</ele>
        <time>2026-08-21T17:41:04.000Z</time>
        <extensions>
          <ns3:TrackPointExtension>
            <ns3:hr>123</ns3:hr>
            <ns3:cad>55</ns3:cad>
          </ns3:TrackPointExtension>
        </extensions>
      </trkpt>
      <trkpt lat="45.32678316347301006317138671875" lon="-70.94492356292903423309326171875">
        <ele>889.79998779296875</ele>
        <time>2026-08-21T17:41:05.000Z</time>
        <extensions>
          <ns3:TrackPointExtension>
            <ns3:hr>123</ns3:hr>
            <ns3:cad>55</ns3:cad>
          </ns3:TrackPointExtension>
        </extensions>
      </trkpt>
      <trkpt lat="45.3268008492887020111083984375" lon="-70.9449206292629241943359375">
        <ele>889.79998779296875</ele>
        <time>2026-08-21T17:41:06.000Z</time>
        <extensions>
          <ns3:TrackPointExtension>
            <ns3:hr>123</ns3:hr>
            <ns3:cad>55</ns3:cad>
          </ns3:TrackPointExtension>
        </extensions>
      </trkpt>
      <trkpt lat="45.32681635580956935882568359375" lon="-70.94491325318813323974609375">
        <ele>889.79998779296875</ele>
        <time>2026-08-21T17:41:07.000Z</time>
        <extensions>
          <ns3:TrackPointExtension>
            <ns3:hr>123</ns3:hr>
            <ns3:cad>55</ns3:cad>
          </ns3:TrackPointExtension>
        </extensions>
      </trkpt>
      <trkpt lat="45.3268327005207538604736328125" lon="-70.94490478746592998504638671875">
        <ele>889.79998779296875</ele>
        <time>2026-08-21T17:41:08.000Z</time>
        <extensions>
          <ns3:TrackPointExtension>
            <ns3:hr>123</ns3:hr>
            <ns3:cad>55</ns3:cad>
          </ns3:TrackPointExtension>
        </extensions>
      </trkpt>
      <trkpt lat="45.32684803940355777740478515625" lon="-70.94490026123821735382080078125">
        <ele>890</ele>
        <time>2026-08-21T17:41:09.000Z</time>
        <extensions>
          <ns3:TrackPointExtension>
            <ns3:hr>123</ns3:hr>
            <ns3:cad>55</ns3:cad>
          </ns3:TrackPointExtension>
        </extensions>
      </trkpt>
      <trkpt lat="45.326867736876010894775390625" lon="-70.9448956511914730072021484375">
        <ele>890</ele>
        <time>2026-08-21T17:41:10.000Z</time>
        <extensions>
          <ns3:TrackPointExtension>
            <ns3:hr>123</ns3:hr>
            <ns3:cad>55</ns3:cad>
          </ns3:TrackPointExtension>
        </extensions>
      </trkpt>
      <trkpt lat="45.32688282430171966552734375" lon="-70.9448882751166820526123046875">
        <ele>890</ele>
        <time>2026-08-21T17:41:11.000Z</time>
        <extensions>
          <ns3:TrackPointExtension>
            <ns3:hr>123</ns3:hr>
            <ns3:cad>55</ns3:cad>
          </ns3:TrackPointExtension>
        </extensions>
      </trkpt>
      <trkpt lat="45.32690084539353847503662109375" lon="-70.9448785521090030670166015625">
        <ele>890</ele>
        <time>2026-08-21T17:41:12.000Z</time>
        <extensions>
          <ns3:TrackPointExtension>
            <ns3:hr>123</ns3:hr>
            <ns3:cad>55</ns3:cad>
          </ns3:TrackPointExtension>
        </extensions>
      </trkpt>
      <trkpt lat="45.3269118256866931915283203125" lon="-70.944865979254245758056640625">
        <ele>890</ele>
        <time>2026-08-21T17:41:13.000Z</time>
        <extensions>
          <ns3:TrackPointExtension>
            <ns3:hr>123</ns3:hr>
            <ns3:cad>0</ns3:cad>
          </ns3:TrackPointExtension>
        </extensions>
      </trkpt>
      <trkpt lat="45.3269366361200809478759765625" lon="-70.9448550827801227569580078125">
        <ele>890</ele>
        <time>2026-08-21T17:41:14.000Z</time>
        <extensions>
          <ns3:TrackPointExtension>
            <ns3:hr>123</ns3:hr>
            <ns3:cad>0</ns3:cad>
          </ns3:TrackPointExtension>
        </extensions>
      </trkpt>
      <trkpt lat="45.326949544250965118408203125" lon="-70.94483672641217708587646484375">
        <ele>890</ele>
        <time>2026-08-21T17:41:15.000Z</time>
        <extensions>
          <ns3:TrackPointExtension>
            <ns3:hr>123</ns3:hr>
            <ns3:cad>0</ns3:cad>
          </ns3:TrackPointExtension>
        </extensions>
      </trkpt>
      <trkpt lat="45.3269634582102298736572265625" lon="-70.94481476582586765289306640625">
        <ele>890</ele>
        <time>2026-08-21T17:41:16.000Z</time>
        <extensions>
          <ns3:TrackPointExtension>
            <ns3:hr>122</ns3:hr>
            <ns3:cad>0</ns3:cad>
          </ns3:TrackPointExtension>
        </extensions>
      </trkpt>
      <trkpt lat="45.326969660818576812744140625" lon="-70.9447838366031646728515625">
        <ele>890</ele>
        <time>2026-08-21T17:41:17.000Z</time>
        <extensions>
          <ns3:TrackPointExtension>
            <ns3:hr>120</ns3:hr>
            <ns3:cad>0</ns3:cad>
          </ns3:TrackPointExtension>
        </extensions>
      </trkpt>
      <trkpt lat="45.3269812278449535369873046875" lon="-70.94475910998880863189697265625">
        <ele>890</ele>
        <time>2026-08-21T17:41:18.000Z</time>
        <extensions>
          <ns3:TrackPointExtension>
            <ns3:hr>119</ns3:hr>
            <ns3:cad>0</ns3:cad>
          </ns3:TrackPointExtension>
        </extensions>
      </trkpt>
      <trkpt lat="45.326989106833934783935546875" lon="-70.94474536366760730743408203125">
        <ele>890</ele>
        <time>2026-08-21T17:41:19.000Z</time>
        <extensions>
          <ns3:TrackPointExtension>
            <ns3:hr>119</ns3:hr>
            <ns3:cad>0</ns3:cad>
          </ns3:TrackPointExtension>
        </extensions>
      </trkpt>
      <trkpt lat="45.32700042240321636199951171875" lon="-70.9447328746318817138671875">
        <ele>890.20001220703125</ele>
        <time>2026-08-21T17:41:20.000Z</time>
        <extensions>
          <ns3:TrackPointExtension>
            <ns3:hr>119</ns3:hr>
            <ns3:cad>0</ns3:cad>
          </ns3:TrackPointExtension>
        </extensions>
      </trkpt>
      <trkpt lat="45.32700327225029468536376953125" lon="-70.94473027624189853668212890625">
        <ele>890.20001220703125</ele>
        <time>2026-08-21T17:41:21.000Z</time>
        <extensions>
          <ns3:TrackPointExtension>
            <ns3:hr>118</ns3:hr>
            <ns3:cad>0</ns3:cad>
          </ns3:TrackPointExtension>
        </extensions>
      </trkpt>
      <trkpt lat="45.32701970078051090240478515625" lon="-70.94473212026059627532958984375">
        <ele>890.4000244140625</ele>
        <time>2026-08-21T17:41:22.000Z</time>
        <extensions>
          <ns3:TrackPointExtension>
            <ns3:hr>118</ns3:hr>
            <ns3:cad>0</ns3:cad>
          </ns3:TrackPointExtension>
        </extensions>
      </trkpt>
      <trkpt lat="45.3270352073013782501220703125" lon="-70.9447333775460720062255859375">
        <ele>890.4000244140625</ele>
        <time>2026-08-21T17:41:23.000Z</time>
        <extensions>
          <ns3:TrackPointExtension>
            <ns3:hr>117</ns3:hr>
            <ns3:cad>0</ns3:cad>
          </ns3:TrackPointExtension>
        </extensions>
      </trkpt>
      <trkpt lat="45.32705389894545078277587890625" lon="-70.94473614357411861419677734375">
        <ele>890.4000244140625</ele>
        <time>2026-08-21T17:41:24.000Z</time>
        <extensions>
          <ns3:TrackPointExtension>
            <ns3:hr>117</ns3:hr>
            <ns3:cad>0</ns3:cad>
          </ns3:TrackPointExtension>
        </extensions>
      </trkpt>
      <trkpt lat="45.32707133330404758453369140625" lon="-70.94474100507795810699462890625">
        <ele>890.20001220703125</ele>
        <time>2026-08-21T17:41:25.000Z</time>
        <extensions>
          <ns3:TrackPointExtension>
            <ns3:hr>118</ns3:hr>
            <ns3:cad>0</ns3:cad>
          </ns3:TrackPointExtension>
        </extensions>
      </trkpt>
      <trkpt lat="45.3270858339965343475341796875" lon="-70.94472927041351795196533203125">
        <ele>890.20001220703125</ele>
        <time>2026-08-21T17:41:26.000Z</time>
        <extensions>
          <ns3:TrackPointExtension>
            <ns3:hr>118</ns3:hr>
            <ns3:cad>0</ns3:cad>
          </ns3:TrackPointExtension>
        </extensions>
      </trkpt>
      <trkpt lat="45.3271032683551311492919921875" lon="-70.94472306780517101287841796875">
        <ele>890</ele>
        <time>2026-08-21T17:41:27.000Z</time>
        <extensions>
          <ns3:TrackPointExtension>
            <ns3:hr>118</ns3:hr>
            <ns3:cad>0</ns3:cad>
          </ns3:TrackPointExtension>
        </extensions>
      </trkpt>
      <trkpt lat="45.32712288200855255126953125" lon="-70.94470965676009654998779296875">
        <ele>890</ele>
        <time>2026-08-21T17:41:28.000Z</time>
        <extensions>
          <ns3:TrackPointExtension>
            <ns3:hr>118</ns3:hr>
            <ns3:cad>0</ns3:cad>
          </ns3:TrackPointExtension>
        </extensions>
      </trkpt>
      <trkpt lat="45.32713486813008785247802734375" lon="-70.94469599425792694091796875">
        <ele>889.79998779296875</ele>
        <time>2026-08-21T17:41:29.000Z</time>
        <extensions>
          <ns3:TrackPointExtension>
            <ns3:hr>119</ns3:hr>
            <ns3:cad>0</ns3:cad>
          </ns3:TrackPointExtension>
        </extensions>
      </trkpt>
      <trkpt lat="45.32715012319386005401611328125" lon="-70.9446819126605987548828125">
        <ele>889.79998779296875</ele>
        <time>2026-08-21T17:41:30.000Z</time>
        <extensions>
          <ns3:TrackPointExtension>
            <ns3:hr>119</ns3:hr>
            <ns3:cad>0</ns3:cad>
          </ns3:TrackPointExtension>
        </extensions>
      </trkpt>
      <trkpt lat="45.3271639533340930938720703125" lon="-70.94466590322554111480712890625">
        <ele>889.79998779296875</ele>
        <time>2026-08-21T17:41:31.000Z</time>
        <extensions>
          <ns3:TrackPointExtension>
            <ns3:hr>120</ns3:hr>
            <ns3:cad>0</ns3:cad>
          </ns3:TrackPointExtension>
        </extensions>
      </trkpt>
      <trkpt lat="45.32717526890337467193603515625" lon="-70.944652073085308074951171875">
        <ele>889.79998779296875</ele>
        <time>2026-08-21T17:41:32.000Z</time>
        <extensions>
          <ns3:TrackPointExtension>
            <ns3:hr>120</ns3:hr>
            <ns3:cad>0</ns3:cad>
          </ns3:TrackPointExtension>
        </extensions>
      </trkpt>
      <trkpt lat="45.327188260853290557861328125" lon="-70.9446341358125209808349609375">
        <ele>889.79998779296875</ele>
        <time>2026-08-21T17:41:33.000Z</time>
        <extensions>
          <ns3:TrackPointExtension>
            <ns3:hr>120</ns3:hr>
            <ns3:cad>0</ns3:cad>
          </ns3:TrackPointExtension>
        </extensions>
      </trkpt>
      <trkpt lat="45.32720276154577732086181640625" lon="-70.94461762346327304840087890625">
        <ele>889.79998779296875</ele>
        <time>2026-08-21T17:41:34.000Z</time>
        <extensions>
          <ns3:TrackPointExtension>
            <ns3:hr>120</ns3:hr>
            <ns3:cad>0</ns3:cad>
          </ns3:TrackPointExtension>
        </extensions>
      </trkpt>
      <trkpt lat="45.32721583731472492218017578125" lon="-70.944603793323040008544921875">
        <ele>889.5999755859375</ele>
        <time>2026-08-21T17:41:35.000Z</time>
        <extensions>
          <ns3:TrackPointExtension>
            <ns3:hr>120</ns3:hr>
            <ns3:cad>0</ns3:cad>
          </ns3:TrackPointExtension>
        </extensions>
      </trkpt>
      <trkpt lat="45.32722606323659420013427734375" lon="-70.94459499232470989227294921875">
        <ele>889.5999755859375</ele>
        <time>2026-08-21T17:41:36.000Z</time>
        <extensions>
          <ns3:TrackPointExtension>
            <ns3:hr>119</ns3:hr>
            <ns3:cad>0</ns3:cad>
          </ns3:TrackPointExtension>
        </extensions>
      </trkpt>
      <trkpt lat="45.32724048011004924774169921875" lon="-70.94458493404090404510498046875">
        <ele>889.5999755859375</ele>
        <time>2026-08-21T17:41:37.000Z</time>
        <extensions>
          <ns3:TrackPointExtension>
            <ns3:hr>119</ns3:hr>
            <ns3:cad>0</ns3:cad>
          </ns3:TrackPointExtension>
        </extensions>
      </trkpt>
      <trkpt lat="45.327257998287677764892578125" lon="-70.944575630128383636474609375">
        <ele>889.5999755859375</ele>
        <time>2026-08-21T17:41:38.000Z</time>
        <extensions>
          <ns3:TrackPointExtension>
            <ns3:hr>119</ns3:hr>
            <ns3:cad>0</ns3:cad>
          </ns3:TrackPointExtension>
        </extensions>
      </trkpt>
      <trkpt lat="45.32727585174143314361572265625" lon="-70.94456615857779979705810546875">
        <ele>889.5999755859375</ele>
        <time>2026-08-21T17:41:39.000Z</time>
        <extensions>
          <ns3:TrackPointExtension>
            <ns3:hr>118</ns3:hr>
            <ns3:cad>0</ns3:cad>
          </ns3:TrackPointExtension>
        </extensions>
      </trkpt>
      <trkpt lat="45.3272890113294124603271484375" lon="-70.9445540048182010650634765625">
        <ele>889.5999755859375</ele>
        <time>2026-08-21T17:41:40.000Z</time>
        <extensions>
          <ns3:TrackPointExtension>
            <ns3:hr>118</ns3:hr>
            <ns3:cad>0</ns3:cad>
          </ns3:TrackPointExtension>
        </extensions>
      </trkpt>
      <trkpt lat="45.32730619423091411590576171875" lon="-70.94454050995409488677978515625">
        <ele>889.5999755859375</ele>
        <time>2026-08-21T17:41:41.000Z</time>
        <extensions>
          <ns3:TrackPointExtension>
            <ns3:hr>118</ns3:hr>
            <ns3:cad>0</ns3:cad>
          </ns3:TrackPointExtension>
        </extensions>
      </trkpt>
      <trkpt lat="45.327316336333751678466796875" lon="-70.944532044231891632080078125">
        <ele>889.5999755859375</ele>
        <time>2026-08-21T17:41:42.000Z</time>
        <extensions>
          <ns3:TrackPointExtension>
            <ns3:hr>118</ns3:hr>
            <ns3:cad>0</ns3:cad>
          </ns3:TrackPointExtension>
        </extensions>
      </trkpt>
      <trkpt lat="45.32733343541622161865234375" lon="-70.94452743418514728546142578125">
        <ele>889.4000244140625</ele>
        <time>2026-08-21T17:41:43.000Z</time>
        <extensions>
          <ns3:TrackPointExtension>
            <ns3:hr>119</ns3:hr>
            <ns3:cad>0</ns3:cad>
          </ns3:TrackPointExtension>
        </extensions>
      </trkpt>
      <trkpt lat="45.3273461759090423583984375" lon="-70.94452592544257640838623046875">
        <ele>889.4000244140625</ele>
        <time>2026-08-21T17:41:44.000Z</time>
        <extensions>
          <ns3:TrackPointExtension>
            <ns3:hr>120</ns3:hr>
            <ns3:cad>0</ns3:cad>
          </ns3:TrackPointExtension>
        </extensions>
      </trkpt>
      <trkpt lat="45.32736151479184627532958984375" lon="-70.9445248357951641082763671875">
        <ele>889.4000244140625</ele>
        <time>2026-08-21T17:41:45.000Z</time>
        <extensions>
          <ns3:TrackPointExtension>
            <ns3:hr>120</ns3:hr>
            <ns3:cad>69</ns3:cad>
          </ns3:TrackPointExtension>
        </extensions>
      </trkpt>
      <trkpt lat="45.32737961970269680023193359375" lon="-70.9445288591086864471435546875">
        <ele>889.4000244140625</ele>
        <time>2026-08-21T17:41:46.000Z</time>
        <extensions>
          <ns3:TrackPointExtension>
            <ns3:hr>120</ns3:hr>
            <ns3:cad>69</ns3:cad>
          </ns3:TrackPointExtension>
        </extensions>
      </trkpt>
      <trkpt lat="45.32739504240453243255615234375" lon="-70.94453296624124050140380859375">
        <ele>889.4000244140625</ele>
        <time>2026-08-21T17:41:47.000Z</time>
        <extensions>
          <ns3:TrackPointExtension>
            <ns3:hr>120</ns3:hr>
            <ns3:cad>69</ns3:cad>
          </ns3:TrackPointExtension>
        </extensions>
      </trkpt>
      <trkpt lat="45.3274117223918437957763671875" lon="-70.9445402584969997406005859375">
        <ele>889.4000244140625</ele>
        <time>2026-08-21T17:41:48.000Z</time>
        <extensions>
          <ns3:TrackPointExtension>
            <ns3:hr>120</ns3:hr>
            <ns3:cad>69</ns3:cad>
          </ns3:TrackPointExtension>
        </extensions>
      </trkpt>
      <trkpt lat="45.32742739655077457427978515625" lon="-70.94454537145793437957763671875">
        <ele>889.4000244140625</ele>
        <time>2026-08-21T17:41:49.000Z</time>
        <extensions>
          <ns3:TrackPointExtension>
            <ns3:hr>119</ns3:hr>
            <ns3:cad>71</ns3:cad>
          </ns3:TrackPointExtension>
        </extensions>
      </trkpt>
      <trkpt lat="45.3274439089000225067138671875" lon="-70.94454771839082241058349609375">
        <ele>889.20001220703125</ele>
        <time>2026-08-21T17:41:50.000Z</time>
        <extensions>
          <ns3:TrackPointExtension>
            <ns3:hr>119</ns3:hr>
            <ns3:cad>71</ns3:cad>
          </ns3:TrackPointExtension>
        </extensions>
      </trkpt>
      <trkpt lat="45.3274610079824924468994140625" lon="-70.94455241225659847259521484375">
        <ele>889.20001220703125</ele>
        <time>2026-08-21T17:41:51.000Z</time>
        <extensions>
          <ns3:TrackPointExtension>
            <ns3:hr>119</ns3:hr>
            <ns3:cad>71</ns3:cad>
          </ns3:TrackPointExtension>
        </extensions>
      </trkpt>
      <trkpt lat="45.327469222247600555419921875" lon="-70.94455492682754993438720703125">
        <ele>889</ele>
        <time>2026-08-21T17:41:52.000Z</time>
        <extensions>
          <ns3:TrackPointExtension>
            <ns3:hr>119</ns3:hr>
            <ns3:cad>17</ns3:cad>
          </ns3:TrackPointExtension>
        </extensions>
      </trkpt>
      <trkpt lat="45.3274804539978504180908203125" lon="-70.94455786049365997314453125">
        <ele>889</ele>
        <time>2026-08-21T17:41:53.000Z</time>
        <extensions>
          <ns3:TrackPointExtension>
            <ns3:hr>119</ns3:hr>
            <ns3:cad>17</ns3:cad>
          </ns3:TrackPointExtension>
        </extensions>
      </trkpt>
      <trkpt lat="45.3274963796138763427734375" lon="-70.9445692598819732666015625">
        <ele>888.79998779296875</ele>
        <time>2026-08-21T17:41:54.000Z</time>
        <extensions>
          <ns3:TrackPointExtension>
            <ns3:hr>118</ns3:hr>
            <ns3:cad>17</ns3:cad>
          </ns3:TrackPointExtension>
        </extensions>
      </trkpt>
      <trkpt lat="45.32750819809734821319580078125" lon="-70.9445734508335590362548828125">
        <ele>888.79998779296875</ele>
        <time>2026-08-21T17:41:55.000Z</time>
        <extensions>
          <ns3:TrackPointExtension>
            <ns3:hr>118</ns3:hr>
            <ns3:cad>17</ns3:cad>
          </ns3:TrackPointExtension>
        </extensions>
      </trkpt>
      <trkpt lat="45.3275210224092006683349609375" lon="-70.94458174891769886016845703125">
        <ele>888.5999755859375</ele>
        <time>2026-08-21T17:41:56.000Z</time>
        <extensions>
          <ns3:TrackPointExtension>
            <ns3:hr>117</ns3:hr>
            <ns3:cad>17</ns3:cad>
          </ns3:TrackPointExtension>
        </extensions>
      </trkpt>
      <trkpt lat="45.3275339305400848388671875" lon="-70.94458602368831634521484375">
        <ele>888.5999755859375</ele>
        <time>2026-08-21T17:41:57.000Z</time>
        <extensions>
          <ns3:TrackPointExtension>
            <ns3:hr>116</ns3:hr>
            <ns3:cad>55</ns3:cad>
          </ns3:TrackPointExtension>
        </extensions>
      </trkpt>
      <trkpt lat="45.327549017965793609619140625" lon="-70.94458862207829952239990234375">
        <ele>888.5999755859375</ele>
        <time>2026-08-21T17:41:58.000Z</time>
        <extensions>
          <ns3:TrackPointExtension>
            <ns3:hr>115</ns3:hr>
            <ns3:cad>55</ns3:cad>
          </ns3:TrackPointExtension>
        </extensions>
      </trkpt>
      <trkpt lat="45.3275629319250583648681640625" lon="-70.94459482468664646148681640625">
        <ele>888.4000244140625</ele>
        <time>2026-08-21T17:41:59.000Z</time>
        <extensions>
          <ns3:TrackPointExtension>
            <ns3:hr>113</ns3:hr>
            <ns3:cad>57</ns3:cad>
          </ns3:TrackPointExtension>
        </extensions>
      </trkpt>
      <trkpt lat="45.3275766782462596893310546875" lon="-70.94460203312337398529052734375">
        <ele>888.4000244140625</ele>
        <time>2026-08-21T17:42:00.000Z</time>
        <extensions>
          <ns3:TrackPointExtension>
            <ns3:hr>112</ns3:hr>
            <ns3:cad>57</ns3:cad>
          </ns3:TrackPointExtension>
        </extensions>
      </trkpt>
      <trkpt lat="45.3275890834629535675048828125" lon="-70.94461209140717983245849609375">
        <ele>888.4000244140625</ele>
        <time>2026-08-21T17:42:01.000Z</time>
        <extensions>
          <ns3:TrackPointExtension>
            <ns3:hr>111</ns3:hr>
            <ns3:cad>57</ns3:cad>
          </ns3:TrackPointExtension>
        </extensions>
      </trkpt>
      <trkpt lat="45.32760509289801120758056640625" lon="-70.9446183778345584869384765625">
        <ele>888.20001220703125</ele>
        <time>2026-08-21T17:42:02.000Z</time>
        <extensions>
          <ns3:TrackPointExtension>
            <ns3:hr>111</ns3:hr>
            <ns3:cad>57</ns3:cad>
          </ns3:TrackPointExtension>
        </extensions>
      </trkpt>
      <trkpt lat="45.327619425952434539794921875" lon="-70.9446291066706180572509765625">
        <ele>888</ele>
        <time>2026-08-21T17:42:03.000Z</time>
        <extensions>
          <ns3:TrackPointExtension>
            <ns3:hr>110</ns3:hr>
            <ns3:cad>57</ns3:cad>
          </ns3:TrackPointExtension>
        </extensions>
      </trkpt>
      <trkpt lat="45.32763250172138214111328125" lon="-70.94464100897312164306640625">
        <ele>887.5999755859375</ele>
        <time>2026-08-21T17:42:04.000Z</time>
        <extensions>
          <ns3:TrackPointExtension>
            <ns3:hr>110</ns3:hr>
            <ns3:cad>57</ns3:cad>
          </ns3:TrackPointExtension>
        </extensions>
      </trkpt>
      <trkpt lat="45.32765035517513751983642578125" lon="-70.94464880414307117462158203125">
        <ele>887.4000244140625</ele>
        <time>2026-08-21T17:42:05.000Z</time>
        <extensions>
          <ns3:TrackPointExtension>
            <ns3:hr>109</ns3:hr>
            <ns3:cad>57</ns3:cad>
          </ns3:TrackPointExtension>
        </extensions>
      </trkpt>
      <trkpt lat="45.3276661969721317291259765625" lon="-70.94465567730367183685302734375">
        <ele>887.20001220703125</ele>
        <time>2026-08-21T17:42:06.000Z</time>
        <extensions>
          <ns3:TrackPointExtension>
            <ns3:hr>109</ns3:hr>
            <ns3:cad>57</ns3:cad>
          </ns3:TrackPointExtension>
        </extensions>
      </trkpt>
      <trkpt lat="45.32768120057880878448486328125" lon="-70.94466690905392169952392578125">
        <ele>887</ele>
        <time>2026-08-21T17:42:07.000Z</time>
        <extensions>
          <ns3:TrackPointExtension>
            <ns3:hr>109</ns3:hr>
            <ns3:cad>72</ns3:cad>
          </ns3:TrackPointExtension>
        </extensions>
      </trkpt>
      <trkpt lat="45.327697880566120147705078125" lon="-70.94467763788998126983642578125">
        <ele>886.79998779296875</ele>
        <time>2026-08-21T17:42:08.000Z</time>
        <extensions>
          <ns3:TrackPointExtension>
            <ns3:hr>109</ns3:hr>
            <ns3:cad>72</ns3:cad>
          </ns3:TrackPointExtension>
        </extensions>
      </trkpt>
      <trkpt lat="45.327720679342746734619140625" lon="-70.94468794763088226318359375">
        <ele>886.5999755859375</ele>
        <time>2026-08-21T17:42:09.000Z</time>
        <extensions>
          <ns3:TrackPointExtension>
            <ns3:hr>109</ns3:hr>
            <ns3:cad>72</ns3:cad>
          </ns3:TrackPointExtension>
        </extensions>
      </trkpt>
      <trkpt lat="45.3277350962162017822265625" lon="-70.9446944855153560638427734375">
        <ele>886.5999755859375</ele>
        <time>2026-08-21T17:42:10.000Z</time>
        <extensions>
          <ns3:TrackPointExtension>
            <ns3:hr>109</ns3:hr>
            <ns3:cad>72</ns3:cad>
          </ns3:TrackPointExtension>
        </extensions>
      </trkpt>
      <trkpt lat="45.3277563862502574920654296875" lon="-70.9447075612843036651611328125">
        <ele>886.4000244140625</ele>
        <time>2026-08-21T17:42:11.000Z</time>
        <extensions>
          <ns3:TrackPointExtension>
            <ns3:hr>109</ns3:hr>
            <ns3:cad>72</ns3:cad>
          </ns3:TrackPointExtension>
        </extensions>
      </trkpt>
      <trkpt lat="45.32777130603790283203125" lon="-70.94471787102520465850830078125">
        <ele>886.4000244140625</ele>
        <time>2026-08-21T17:42:12.000Z</time>
        <extensions>
          <ns3:TrackPointExtension>
            <ns3:hr>109</ns3:hr>
            <ns3:cad>72</ns3:cad>
          </ns3:TrackPointExtension>
        </extensions>
      </trkpt>
      <trkpt lat="45.327788405120372772216796875" lon="-70.94472005032002925872802734375">
        <ele>886.4000244140625</ele>
        <time>2026-08-21T17:42:13.000Z</time>
        <extensions>
          <ns3:TrackPointExtension>
            <ns3:hr>109</ns3:hr>
            <ns3:cad>72</ns3:cad>
          </ns3:TrackPointExtension>
        </extensions>
      </trkpt>
      <trkpt lat="45.32781212590634822845458984375" lon="-70.9447233192622661590576171875">
        <ele>886.20001220703125</ele>
        <time>2026-08-21T17:42:14.000Z</time>
        <extensions>
          <ns3:TrackPointExtension>
            <ns3:hr>110</ns3:hr>
            <ns3:cad>72</ns3:cad>
          </ns3:TrackPointExtension>
        </extensions>
      </trkpt>
      <trkpt lat="45.327830649912357330322265625" lon="-70.94472541473805904388427734375">
        <ele>886</ele>
        <time>2026-08-21T17:42:15.000Z</time>
        <extensions>
          <ns3:TrackPointExtension>
            <ns3:hr>110</ns3:hr>
            <ns3:cad>72</ns3:cad>
          </ns3:TrackPointExtension>
        </extensions>
      </trkpt>
      <trkpt lat="45.3278495930135250091552734375" lon="-70.94473312608897686004638671875">
        <ele>885.5999755859375</ele>
        <time>2026-08-21T17:42:16.000Z</time>
        <extensions>
          <ns3:TrackPointExtension>
            <ns3:hr>111</ns3:hr>
            <ns3:cad>71</ns3:cad>
          </ns3:TrackPointExtension>
        </extensions>
      </trkpt>
      <trkpt lat="45.3278670273721218109130859375" lon="-70.9447404183447360992431640625">
        <ele>885.5999755859375</ele>
        <time>2026-08-21T17:42:17.000Z</time>
        <extensions>
          <ns3:TrackPointExtension>
            <ns3:hr>111</ns3:hr>
            <ns3:cad>71</ns3:cad>
          </ns3:TrackPointExtension>
        </extensions>
      </trkpt>
      <trkpt lat="45.32788504846394062042236328125" lon="-70.94474368728697299957275390625">
        <ele>885.20001220703125</ele>
        <time>2026-08-21T17:42:18.000Z</time>
        <extensions>
          <ns3:TrackPointExtension>
            <ns3:hr>111</ns3:hr>
            <ns3:cad>71</ns3:cad>
          </ns3:TrackPointExtension>
        </extensions>
      </trkpt>
      <trkpt lat="45.32790449447929859161376953125" lon="-70.944747626781463623046875">
        <ele>885</ele>
        <time>2026-08-21T17:42:19.000Z</time>
        <extensions>
          <ns3:TrackPointExtension>
            <ns3:hr>111</ns3:hr>
            <ns3:cad>71</ns3:cad>
          </ns3:TrackPointExtension>
        </extensions>
      </trkpt>
      <trkpt lat="45.327922515571117401123046875" lon="-70.944758690893650054931640625">
        <ele>885</ele>
        <time>2026-08-21T17:42:20.000Z</time>
        <extensions>
          <ns3:TrackPointExtension>
            <ns3:hr>112</ns3:hr>
            <ns3:cad>71</ns3:cad>
          </ns3:TrackPointExtension>
        </extensions>
      </trkpt>
      <trkpt lat="45.327947326004505157470703125" lon="-70.94476698897778987884521484375">
        <ele>884.79998779296875</ele>
        <time>2026-08-21T17:42:21.000Z</time>
        <extensions>
          <ns3:TrackPointExtension>
            <ns3:hr>112</ns3:hr>
            <ns3:cad>73</ns3:cad>
          </ns3:TrackPointExtension>
        </extensions>
      </trkpt>
      <trkpt lat="45.32796450890600681304931640625" lon="-70.944776125252246856689453125">
        <ele>884.5999755859375</ele>
        <time>2026-08-21T17:42:22.000Z</time>
        <extensions>
          <ns3:TrackPointExtension>
            <ns3:hr>112</ns3:hr>
            <ns3:cad>73</ns3:cad>
          </ns3:TrackPointExtension>
        </extensions>
      </trkpt>
      <trkpt lat="45.32798278145492076873779296875" lon="-70.944782830774784088134765625">
        <ele>884.4000244140625</ele>
        <time>2026-08-21T17:42:23.000Z</time>
        <extensions>
          <ns3:TrackPointExtension>
            <ns3:hr>112</ns3:hr>
            <ns3:cad>73</ns3:cad>
          </ns3:TrackPointExtension>
        </extensions>
      </trkpt>
      <trkpt lat="45.32800105400383472442626953125" lon="-70.94478542916476726531982421875">
        <ele>884.20001220703125</ele>
        <time>2026-08-21T17:42:24.000Z</time>
        <extensions>
          <ns3:TrackPointExtension>
            <ns3:hr>112</ns3:hr>
            <ns3:cad>73</ns3:cad>
          </ns3:TrackPointExtension>
        </extensions>
      </trkpt>
      <trkpt lat="45.328019745647907257080078125" lon="-70.94479179941117763519287109375">
        <ele>884.20001220703125</ele>
        <time>2026-08-21T17:42:25.000Z</time>
        <extensions>
          <ns3:TrackPointExtension>
            <ns3:hr>111</ns3:hr>
            <ns3:cad>73</ns3:cad>
          </ns3:TrackPointExtension>
        </extensions>
      </trkpt>
      <trkpt lat="45.32803592272102832794189453125" lon="-70.94479917548596858978271484375">
        <ele>883.79998779296875</ele>
        <time>2026-08-21T17:42:26.000Z</time>
        <extensions>
          <ns3:TrackPointExtension>
            <ns3:hr>110</ns3:hr>
            <ns3:cad>72</ns3:cad>
          </ns3:TrackPointExtension>
        </extensions>
      </trkpt>
      <trkpt lat="45.32805285416543483734130859375" lon="-70.944801270961761474609375">
        <ele>883.5999755859375</ele>
        <time>2026-08-21T17:42:27.000Z</time>
        <extensions>
          <ns3:TrackPointExtension>
            <ns3:hr>110</ns3:hr>
            <ns3:cad>72</ns3:cad>
          </ns3:TrackPointExtension>
        </extensions>
      </trkpt>
      <trkpt lat="45.32806928269565105438232421875" lon="-70.9448088146746158599853515625">
        <ele>883.4000244140625</ele>
        <time>2026-08-21T17:42:28.000Z</time>
        <extensions>
          <ns3:TrackPointExtension>
            <ns3:hr>109</ns3:hr>
            <ns3:cad>72</ns3:cad>
          </ns3:TrackPointExtension>
        </extensions>
      </trkpt>
      <trkpt lat="45.328085459768772125244140625" lon="-70.944819040596485137939453125">
        <ele>883</ele>
        <time>2026-08-21T17:42:29.000Z</time>
        <extensions>
          <ns3:TrackPointExtension>
            <ns3:hr>109</ns3:hr>
            <ns3:cad>72</ns3:cad>
          </ns3:TrackPointExtension>
        </extensions>
      </trkpt>
      <trkpt lat="45.328096188604831695556640625" lon="-70.9448289312422275543212890625">
        <ele>882.79998779296875</ele>
        <time>2026-08-21T17:42:30.000Z</time>
        <extensions>
          <ns3:TrackPointExtension>
            <ns3:hr>110</ns3:hr>
            <ns3:cad>72</ns3:cad>
          </ns3:TrackPointExtension>
        </extensions>
      </trkpt>
      <trkpt lat="45.32810934819281101226806640625" lon="-70.94484192319214344024658203125">
        <ele>882.4000244140625</ele>
        <time>2026-08-21T17:42:31.000Z</time>
        <extensions>
          <ns3:TrackPointExtension>
            <ns3:hr>114</ns3:hr>
            <ns3:cad>72</ns3:cad>
          </ns3:TrackPointExtension>
        </extensions>
      </trkpt>
      <trkpt lat="45.32812477089464664459228515625" lon="-70.9448493830859661102294921875">
        <ele>882.20001220703125</ele>
        <time>2026-08-21T17:42:32.000Z</time>
        <extensions>
          <ns3:TrackPointExtension>
            <ns3:hr>119</ns3:hr>
            <ns3:cad>74</ns3:cad>
          </ns3:TrackPointExtension>
        </extensions>
      </trkpt>
      <trkpt lat="45.3281402774155139923095703125" lon="-70.94485600478947162628173828125">
        <ele>882</ele>
        <time>2026-08-21T17:42:33.000Z</time>
        <extensions>
          <ns3:TrackPointExtension>
            <ns3:hr>121</ns3:hr>
            <ns3:cad>74</ns3:cad>
          </ns3:TrackPointExtension>
        </extensions>
      </trkpt>
      <trkpt lat="45.32815561629831790924072265625" lon="-70.9448624588549137115478515625">
        <ele>881.79998779296875</ele>
        <time>2026-08-21T17:42:34.000Z</time>
        <extensions>
          <ns3:TrackPointExtension>
            <ns3:hr>121</ns3:hr>
            <ns3:cad>71</ns3:cad>
          </ns3:TrackPointExtension>
        </extensions>
      </trkpt>
      <trkpt lat="45.32817405648529529571533203125" lon="-70.944869332015514373779296875">
        <ele>881.5999755859375</ele>
        <time>2026-08-21T17:42:35.000Z</time>
        <extensions>
          <ns3:TrackPointExtension>
            <ns3:hr>122</ns3:hr>
            <ns3:cad>71</ns3:cad>
          </ns3:TrackPointExtension>
        </extensions>
      </trkpt>
      <trkpt lat="45.32818906009197235107421875" lon="-70.9448765404522418975830078125">
        <ele>881.4000244140625</ele>
        <time>2026-08-21T17:42:36.000Z</time>
        <extensions>
          <ns3:TrackPointExtension>
            <ns3:hr>122</ns3:hr>
            <ns3:cad>71</ns3:cad>
          </ns3:TrackPointExtension>
        </extensions>
      </trkpt>
      <trkpt lat="45.32820490188896656036376953125" lon="-70.94488064758479595184326171875">
        <ele>881.20001220703125</ele>
        <time>2026-08-21T17:42:37.000Z</time>
        <extensions>
          <ns3:TrackPointExtension>
            <ns3:hr>122</ns3:hr>
            <ns3:cad>71</ns3:cad>
          </ns3:TrackPointExtension>
        </extensions>
      </trkpt>
      <trkpt lat="45.32822200097143650054931640625" lon="-70.944892466068267822265625">
        <ele>881</ele>
        <time>2026-08-21T17:42:38.000Z</time>
        <extensions>
          <ns3:TrackPointExtension>
            <ns3:hr>122</ns3:hr>
            <ns3:cad>71</ns3:cad>
          </ns3:TrackPointExtension>
        </extensions>
      </trkpt>
      <trkpt lat="45.328240357339382171630859375" lon="-70.9449005126953125">
        <ele>880.5999755859375</ele>
        <time>2026-08-21T17:42:39.000Z</time>
        <extensions>
          <ns3:TrackPointExtension>
            <ns3:hr>122</ns3:hr>
            <ns3:cad>71</ns3:cad>
          </ns3:TrackPointExtension>
        </extensions>
      </trkpt>
      <trkpt lat="45.3282562829554080963134765625" lon="-70.94490629620850086212158203125">
        <ele>880.4000244140625</ele>
        <time>2026-08-21T17:42:40.000Z</time>
        <extensions>
          <ns3:TrackPointExtension>
            <ns3:hr>122</ns3:hr>
            <ns3:cad>71</ns3:cad>
          </ns3:TrackPointExtension>
        </extensions>
      </trkpt>
      <trkpt lat="45.3282737173140048980712890625" lon="-70.94490931369364261627197265625">
        <ele>880</ele>
        <time>2026-08-21T17:42:41.000Z</time>
        <extensions>
          <ns3:TrackPointExtension>
            <ns3:hr>122</ns3:hr>
            <ns3:cad>71</ns3:cad>
          </ns3:TrackPointExtension>
        </extensions>
      </trkpt>
      <trkpt lat="45.32828922383487224578857421875" lon="-70.94491635449230670928955078125">
        <ele>879.79998779296875</ele>
        <time>2026-08-21T17:42:42.000Z</time>
        <extensions>
          <ns3:TrackPointExtension>
            <ns3:hr>122</ns3:hr>
            <ns3:cad>71</ns3:cad>
          </ns3:TrackPointExtension>
        </extensions>
      </trkpt>
      <trkpt lat="45.32830900512635707855224609375" lon="-70.94492574222385883331298828125">
        <ele>879.4000244140625</ele>
        <time>2026-08-21T17:42:43.000Z</time>
        <extensions>
          <ns3:TrackPointExtension>
            <ns3:hr>121</ns3:hr>
            <ns3:cad>71</ns3:cad>
          </ns3:TrackPointExtension>
        </extensions>
      </trkpt>
      <trkpt lat="45.3283236734569072723388671875" lon="-70.9449259936809539794921875">
        <ele>879.20001220703125</ele>
        <time>2026-08-21T17:42:44.000Z</time>
        <extensions>
          <ns3:TrackPointExtension>
            <ns3:hr>122</ns3:hr>
            <ns3:cad>71</ns3:cad>
          </ns3:TrackPointExtension>
        </extensions>
      </trkpt>
      <trkpt lat="45.3283374197781085968017578125" lon="-70.944937728345394134521484375">
        <ele>878.79998779296875</ele>
        <time>2026-08-21T17:42:45.000Z</time>
        <extensions>
          <ns3:TrackPointExtension>
            <ns3:hr>122</ns3:hr>
            <ns3:cad>71</ns3:cad>
          </ns3:TrackPointExtension>
        </extensions>
      </trkpt>
      <trkpt lat="45.3283555246889591217041015625" lon="-70.94494585879147052764892578125">
        <ele>878.5999755859375</ele>
        <time>2026-08-21T17:42:46.000Z</time>
        <extensions>
          <ns3:TrackPointExtension>
            <ns3:hr>121</ns3:hr>
            <ns3:cad>71</ns3:cad>
          </ns3:TrackPointExtension>
        </extensions>
      </trkpt>
      <trkpt lat="45.32837036065757274627685546875" lon="-70.94495440833270549774169921875">
        <ele>878.20001220703125</ele>
        <time>2026-08-21T17:42:47.000Z</time>
        <extensions>
          <ns3:TrackPointExtension>
            <ns3:hr>121</ns3:hr>
            <ns3:cad>71</ns3:cad>
          </ns3:TrackPointExtension>
        </extensions>
      </trkpt>
      <trkpt lat="45.32838259823620319366455078125" lon="-70.9449657239019870758056640625">
        <ele>878</ele>
        <time>2026-08-21T17:42:48.000Z</time>
        <extensions>
          <ns3:TrackPointExtension>
            <ns3:hr>120</ns3:hr>
            <ns3:cad>75</ns3:cad>
          </ns3:TrackPointExtension>
        </extensions>
      </trkpt>
      <trkpt lat="45.32840221188962459564208984375" lon="-70.9449737705290317535400390625">
        <ele>878</ele>
        <time>2026-08-21T17:42:49.000Z</time>
        <extensions>
          <ns3:TrackPointExtension>
            <ns3:hr>119</ns3:hr>
            <ns3:cad>75</ns3:cad>
          </ns3:TrackPointExtension>
        </extensions>
      </trkpt>
      <trkpt lat="45.328417383134365081787109375" lon="-70.94498030841350555419921875">
        <ele>877.79998779296875</ele>
        <time>2026-08-21T17:42:50.000Z</time>
        <extensions>
          <ns3:TrackPointExtension>
            <ns3:hr>118</ns3:hr>
            <ns3:cad>75</ns3:cad>
          </ns3:TrackPointExtension>
        </extensions>
      </trkpt>
      <trkpt lat="45.32843649387359619140625" lon="-70.94498743303120136260986328125">
        <ele>877.79998779296875</ele>
        <time>2026-08-21T17:42:51.000Z</time>
        <extensions>
          <ns3:TrackPointExtension>
            <ns3:hr>118</ns3:hr>
            <ns3:cad>75</ns3:cad>
          </ns3:TrackPointExtension>
        </extensions>
      </trkpt>
      <trkpt lat="45.32845216803252696990966796875" lon="-70.94499598257243633270263671875">
        <ele>877.5999755859375</ele>
        <time>2026-08-21T17:42:52.000Z</time>
        <extensions>
          <ns3:TrackPointExtension>
            <ns3:hr>117</ns3:hr>
            <ns3:cad>75</ns3:cad>
          </ns3:TrackPointExtension>
        </extensions>
      </trkpt>
      <trkpt lat="45.32847211696207523345947265625" lon="-70.94500084407627582550048828125">
        <ele>877.4000244140625</ele>
        <time>2026-08-21T17:42:53.000Z</time>
        <extensions>
          <ns3:TrackPointExtension>
            <ns3:hr>117</ns3:hr>
            <ns3:cad>75</ns3:cad>
          </ns3:TrackPointExtension>
        </extensions>
      </trkpt>
      <trkpt lat="45.3284889645874500274658203125" lon="-70.9450059570372104644775390625">
        <ele>877.20001220703125</ele>
        <time>2026-08-21T17:42:54.000Z</time>
        <extensions>
          <ns3:TrackPointExtension>
            <ns3:hr>117</ns3:hr>
            <ns3:cad>75</ns3:cad>
          </ns3:TrackPointExtension>
        </extensions>
      </trkpt>
      <trkpt lat="45.32850899733603000640869140625" lon="-70.94501777552068233489990234375">
        <ele>877</ele>
        <time>2026-08-21T17:42:55.000Z</time>
        <extensions>
          <ns3:TrackPointExtension>
            <ns3:hr>117</ns3:hr>
            <ns3:cad>75</ns3:cad>
          </ns3:TrackPointExtension>
        </extensions>
      </trkpt>
      <trkpt lat="45.3285255096852779388427734375" lon="-70.94502858817577362060546875">
        <ele>876.79998779296875</ele>
        <time>2026-08-21T17:42:56.000Z</time>
        <extensions>
          <ns3:TrackPointExtension>
            <ns3:hr>117</ns3:hr>
            <ns3:cad>75</ns3:cad>
          </ns3:TrackPointExtension>
        </extensions>
      </trkpt>
      <trkpt lat="45.3285426087677478790283203125" lon="-70.94503906555473804473876953125">
        <ele>876.4000244140625</ele>
        <time>2026-08-21T17:42:57.000Z</time>
        <extensions>
          <ns3:TrackPointExtension>
            <ns3:hr>117</ns3:hr>
            <ns3:cad>75</ns3:cad>
          </ns3:TrackPointExtension>
        </extensions>
      </trkpt>
      <trkpt lat="45.328559540212154388427734375" lon="-70.9450478665530681610107421875">
        <ele>876.20001220703125</ele>
        <time>2026-08-21T17:42:58.000Z</time>
        <extensions>
          <ns3:TrackPointExtension>
            <ns3:hr>117</ns3:hr>
            <ns3:cad>69</ns3:cad>
          </ns3:TrackPointExtension>
        </extensions>
      </trkpt>
      <trkpt lat="45.32857856713235378265380859375" lon="-70.94505616463720798492431640625">
        <ele>876</ele>
        <time>2026-08-21T17:42:59.000Z</time>
        <extensions>
          <ns3:TrackPointExtension>
            <ns3:hr>117</ns3:hr>
            <ns3:cad>69</ns3:cad>
          </ns3:TrackPointExtension>
        </extensions>
      </trkpt>
      <trkpt lat="45.32859273254871368408203125" lon="-70.9450629539787769317626953125">
        <ele>875.79998779296875</ele>
        <time>2026-08-21T17:43:00.000Z</time>
        <extensions>
          <ns3:TrackPointExtension>
            <ns3:hr>117</ns3:hr>
            <ns3:cad>69</ns3:cad>
          </ns3:TrackPointExtension>
        </extensions>
      </trkpt>
      <trkpt lat="45.32861175946891307830810546875" lon="-70.9450689889490604400634765625">
        <ele>875.5999755859375</ele>
        <time>2026-08-21T17:43:01.000Z</time>
        <extensions>
          <ns3:TrackPointExtension>
            <ns3:hr>118</ns3:hr>
            <ns3:cad>69</ns3:cad>
          </ns3:TrackPointExtension>
        </extensions>
      </trkpt>
      <trkpt lat="45.3286287747323513031005859375" lon="-70.94507376663386821746826171875">
        <ele>875.4000244140625</ele>
        <time>2026-08-21T17:43:02.000Z</time>
        <extensions>
          <ns3:TrackPointExtension>
            <ns3:hr>118</ns3:hr>
            <ns3:cad>69</ns3:cad>
          </ns3:TrackPointExtension>
        </extensions>
      </trkpt>
      <trkpt lat="45.32864562235772609710693359375" lon="-70.94507628120481967926025390625">
        <ele>875.20001220703125</ele>
        <time>2026-08-21T17:43:03.000Z</time>
        <extensions>
          <ns3:TrackPointExtension>
            <ns3:hr>118</ns3:hr>
            <ns3:cad>69</ns3:cad>
          </ns3:TrackPointExtension>
        </extensions>
      </trkpt>
      <trkpt lat="45.32866607420146465301513671875" lon="-70.94507980160415172576904296875">
        <ele>875</ele>
        <time>2026-08-21T17:43:04.000Z</time>
        <extensions>
          <ns3:TrackPointExtension>
            <ns3:hr>118</ns3:hr>
            <ns3:cad>67</ns3:cad>
          </ns3:TrackPointExtension>
        </extensions>
      </trkpt>
      <trkpt lat="45.3286794014275074005126953125" lon="-70.9450840763747692108154296875">
        <ele>874.79998779296875</ele>
        <time>2026-08-21T17:43:05.000Z</time>
        <extensions>
          <ns3:TrackPointExtension>
            <ns3:hr>118</ns3:hr>
            <ns3:cad>67</ns3:cad>
          </ns3:TrackPointExtension>
        </extensions>
      </trkpt>
      <trkpt lat="45.32869608141481876373291015625" lon="-70.94508893787860870361328125">
        <ele>874.5999755859375</ele>
        <time>2026-08-21T17:43:06.000Z</time>
        <extensions>
          <ns3:TrackPointExtension>
            <ns3:hr>119</ns3:hr>
            <ns3:cad>67</ns3:cad>
          </ns3:TrackPointExtension>
        </extensions>
      </trkpt>
      <trkpt lat="45.32871301285922527313232421875" lon="-70.9451003372669219970703125">
        <ele>874.5999755859375</ele>
        <time>2026-08-21T17:43:07.000Z</time>
        <extensions>
          <ns3:TrackPointExtension>
            <ns3:hr>119</ns3:hr>
            <ns3:cad>67</ns3:cad>
          </ns3:TrackPointExtension>
        </extensions>
      </trkpt>
      <trkpt lat="45.32873061485588550567626953125" lon="-70.94510913826525211334228515625">
        <ele>874.4000244140625</ele>
        <time>2026-08-21T17:43:08.000Z</time>
        <extensions>
          <ns3:TrackPointExtension>
            <ns3:hr>119</ns3:hr>
            <ns3:cad>66</ns3:cad>
          </ns3:TrackPointExtension>
        </extensions>
      </trkpt>
      <trkpt lat="45.32875056378543376922607421875" lon="-70.9451102279126644134521484375">
        <ele>874.20001220703125</ele>
        <time>2026-08-21T17:43:09.000Z</time>
        <extensions>
          <ns3:TrackPointExtension>
            <ns3:hr>119</ns3:hr>
            <ns3:cad>66</ns3:cad>
          </ns3:TrackPointExtension>
        </extensions>
      </trkpt>
      <trkpt lat="45.32876749522984027862548828125" lon="-70.94511081464588642120361328125">
        <ele>874</ele>
        <time>2026-08-21T17:43:10.000Z</time>
        <extensions>
          <ns3:TrackPointExtension>
            <ns3:hr>117</ns3:hr>
            <ns3:cad>66</ns3:cad>
          </ns3:TrackPointExtension>
        </extensions>
      </trkpt>
      <trkpt lat="45.32878660596907138824462890625" lon="-70.94511148519814014434814453125">
        <ele>873.79998779296875</ele>
        <time>2026-08-21T17:43:11.000Z</time>
        <extensions>
          <ns3:TrackPointExtension>
            <ns3:hr>117</ns3:hr>
            <ns3:cad>68</ns3:cad>
          </ns3:TrackPointExtension>
        </extensions>
      </trkpt>
      <trkpt lat="45.3288011066615581512451171875" lon="-70.9451162628829479217529296875">
        <ele>873.79998779296875</ele>
        <time>2026-08-21T17:43:12.000Z</time>
        <extensions>
          <ns3:TrackPointExtension>
            <ns3:hr>117</ns3:hr>
            <ns3:cad>68</ns3:cad>
          </ns3:TrackPointExtension>
        </extensions>
      </trkpt>
      <trkpt lat="45.32882030121982097625732421875" lon="-70.945117771625518798828125">
        <ele>873.5999755859375</ele>
        <time>2026-08-21T17:43:13.000Z</time>
        <extensions>
          <ns3:TrackPointExtension>
            <ns3:hr>117</ns3:hr>
            <ns3:cad>68</ns3:cad>
          </ns3:TrackPointExtension>
        </extensions>
      </trkpt>
      <trkpt lat="45.3288379870355129241943359375" lon="-70.9451212920248508453369140625">
        <ele>873.5999755859375</ele>
        <time>2026-08-21T17:43:14.000Z</time>
        <extensions>
          <ns3:TrackPointExtension>
            <ns3:hr>116</ns3:hr>
            <ns3:cad>68</ns3:cad>
          </ns3:TrackPointExtension>
        </extensions>
      </trkpt>
      <trkpt lat="45.32885751686990261077880859375" lon="-70.94512087292969226837158203125">
        <ele>873.4000244140625</ele>
        <time>2026-08-21T17:43:15.000Z</time>
        <extensions>
          <ns3:TrackPointExtension>
            <ns3:hr>116</ns3:hr>
            <ns3:cad>68</ns3:cad>
          </ns3:TrackPointExtension>
        </extensions>
      </trkpt>
      <trkpt lat="45.328875370323657989501953125" lon="-70.94511986710131168365478515625">
        <ele>873.4000244140625</ele>
        <time>2026-08-21T17:43:16.000Z</time>
        <extensions>
          <ns3:TrackPointExtension>
            <ns3:hr>115</ns3:hr>
            <ns3:cad>70</ns3:cad>
          </ns3:TrackPointExtension>
        </extensions>
      </trkpt>
      <trkpt lat="45.3288923017680644989013671875" lon="-70.945128500461578369140625">
        <ele>873.4000244140625</ele>
        <time>2026-08-21T17:43:17.000Z</time>
        <extensions>
          <ns3:TrackPointExtension>
            <ns3:hr>114</ns3:hr>
            <ns3:cad>70</ns3:cad>
          </ns3:TrackPointExtension>
        </extensions>
      </trkpt>
      <trkpt lat="45.32890797592699527740478515625" lon="-70.945137552917003631591796875">
        <ele>873.20001220703125</ele>
        <time>2026-08-21T17:43:18.000Z</time>
        <extensions>
          <ns3:TrackPointExtension>
            <ns3:hr>114</ns3:hr>
            <ns3:cad>70</ns3:cad>
          </ns3:TrackPointExtension>
        </extensions>
      </trkpt>
      <trkpt lat="45.32892289571464061737060546875" lon="-70.94514551572501659393310546875">
        <ele>872.79998779296875</ele>
        <time>2026-08-21T17:43:19.000Z</time>
        <extensions>
          <ns3:TrackPointExtension>
            <ns3:hr>112</ns3:hr>
            <ns3:cad>70</ns3:cad>
          </ns3:TrackPointExtension>
        </extensions>
      </trkpt>
      <trkpt lat="45.3289372287690639495849609375" lon="-70.94514987431466579437255859375">
        <ele>872.5999755859375</ele>
        <time>2026-08-21T17:43:20.000Z</time>
        <extensions>
          <ns3:TrackPointExtension>
            <ns3:hr>110</ns3:hr>
            <ns3:cad>66</ns3:cad>
          </ns3:TrackPointExtension>
        </extensions>
      </trkpt>
      <trkpt lat="45.3289519809186458587646484375" lon="-70.94515792094171047210693359375">
        <ele>872.4000244140625</ele>
        <time>2026-08-21T17:43:21.000Z</time>
        <extensions>
          <ns3:TrackPointExtension>
            <ns3:hr>109</ns3:hr>
            <ns3:cad>66</ns3:cad>
          </ns3:TrackPointExtension>
        </extensions>
      </trkpt>
      <trkpt lat="45.32896949909627437591552734375" lon="-70.945161022245883941650390625">
        <ele>872.20001220703125</ele>
        <time>2026-08-21T17:43:22.000Z</time>
        <extensions>
          <ns3:TrackPointExtension>
            <ns3:hr>109</ns3:hr>
            <ns3:cad>66</ns3:cad>
          </ns3:TrackPointExtension>
        </extensions>
      </trkpt>
      <trkpt lat="45.32898592762649059295654296875" lon="-70.9451709128916263580322265625">
        <ele>872</ele>
        <time>2026-08-21T17:43:23.000Z</time>
        <extensions>
          <ns3:TrackPointExtension>
            <ns3:hr>109</ns3:hr>
            <ns3:cad>66</ns3:cad>
          </ns3:TrackPointExtension>
        </extensions>
      </trkpt>
      <trkpt lat="45.3289975784718990325927734375" lon="-70.94518281519412994384765625">
        <ele>871.5999755859375</ele>
        <time>2026-08-21T17:43:24.000Z</time>
        <extensions>
          <ns3:TrackPointExtension>
            <ns3:hr>108</ns3:hr>
            <ns3:cad>66</ns3:cad>
          </ns3:TrackPointExtension>
        </extensions>
      </trkpt>
      <trkpt lat="45.329013504087924957275390625" lon="-70.9451953880488872528076171875">
        <ele>871.20001220703125</ele>
        <time>2026-08-21T17:43:25.000Z</time>
        <extensions>
          <ns3:TrackPointExtension>
            <ns3:hr>109</ns3:hr>
            <ns3:cad>66</ns3:cad>
          </ns3:TrackPointExtension>
        </extensions>
      </trkpt>
      <trkpt lat="45.32902549020946025848388671875" lon="-70.945208631455898284912109375">
        <ele>871</ele>
        <time>2026-08-21T17:43:26.000Z</time>
        <extensions>
          <ns3:TrackPointExtension>
            <ns3:hr>110</ns3:hr>
            <ns3:cad>72</ns3:cad>
          </ns3:TrackPointExtension>
        </extensions>
      </trkpt>
      <trkpt lat="45.329037643969058990478515625" lon="-70.945222377777099609375">
        <ele>870.79998779296875</ele>
        <time>2026-08-21T17:43:27.000Z</time>
        <extensions>
          <ns3:TrackPointExtension>
            <ns3:hr>112</ns3:hr>
            <ns3:cad>72</ns3:cad>
          </ns3:TrackPointExtension>
        </extensions>
      </trkpt>
      <trkpt lat="45.32904610969126224517822265625" lon="-70.94524123705923557281494140625">
        <ele>870.5999755859375</ele>
        <time>2026-08-21T17:43:28.000Z</time>
        <extensions>
          <ns3:TrackPointExtension>
            <ns3:hr>114</ns3:hr>
            <ns3:cad>72</ns3:cad>
          </ns3:TrackPointExtension>
        </extensions>
      </trkpt>
      <trkpt lat="45.32905600033700466156005859375" lon="-70.94525531865656375885009765625">
        <ele>870.4000244140625</ele>
        <time>2026-08-21T17:43:29.000Z</time>
        <extensions>
          <ns3:TrackPointExtension>
            <ns3:hr>115</ns3:hr>
            <ns3:cad>72</ns3:cad>
          </ns3:TrackPointExtension>
        </extensions>
      </trkpt>
      <trkpt lat="45.329065136611461639404296875" lon="-70.94527074135839939117431640625">
        <ele>870.20001220703125</ele>
        <time>2026-08-21T17:43:30.000Z</time>
        <extensions>
          <ns3:TrackPointExtension>
            <ns3:hr>115</ns3:hr>
            <ns3:cad>71</ns3:cad>
          </ns3:TrackPointExtension>
        </extensions>
      </trkpt>
      <trkpt lat="45.329074524343013763427734375" lon="-70.94528918154537677764892578125">
        <ele>870</ele>
        <time>2026-08-21T17:43:31.000Z</time>
        <extensions>
          <ns3:TrackPointExtension>
            <ns3:hr>116</ns3:hr>
            <ns3:cad>71</ns3:cad>
          </ns3:TrackPointExtension>
        </extensions>
      </trkpt>
      <trkpt lat="45.32908433116972446441650390625" lon="-70.9453073702752590179443359375">
        <ele>870</ele>
        <time>2026-08-21T17:43:32.000Z</time>
        <extensions>
          <ns3:TrackPointExtension>
            <ns3:hr>116</ns3:hr>
            <ns3:cad>69</ns3:cad>
          </ns3:TrackPointExtension>
        </extensions>
      </trkpt>
      <trkpt lat="45.3290917910635471343994140625" lon="-70.94532237388193607330322265625">
        <ele>869.79998779296875</ele>
        <time>2026-08-21T17:43:33.000Z</time>
        <extensions>
          <ns3:TrackPointExtension>
            <ns3:hr>117</ns3:hr>
            <ns3:cad>69</ns3:cad>
          </ns3:TrackPointExtension>
        </extensions>
      </trkpt>
      <trkpt lat="45.32910210080444812774658203125" lon="-70.94533494673669338226318359375">
        <ele>869.5999755859375</ele>
        <time>2026-08-21T17:43:34.000Z</time>
        <extensions>
          <ns3:TrackPointExtension>
            <ns3:hr>118</ns3:hr>
            <ns3:cad>69</ns3:cad>
          </ns3:TrackPointExtension>
        </extensions>
      </trkpt>
      <trkpt lat="45.32911500893533229827880859375" lon="-70.94535590149462223052978515625">
        <ele>869.20001220703125</ele>
        <time>2026-08-21T17:43:35.000Z</time>
        <extensions>
          <ns3:TrackPointExtension>
            <ns3:hr>118</ns3:hr>
            <ns3:cad>69</ns3:cad>
          </ns3:TrackPointExtension>
        </extensions>
      </trkpt>
      <trkpt lat="45.32912707887589931488037109375" lon="-70.945373587310314178466796875">
        <ele>869</ele>
        <time>2026-08-21T17:43:36.000Z</time>
        <extensions>
          <ns3:TrackPointExtension>
            <ns3:hr>118</ns3:hr>
            <ns3:cad>69</ns3:cad>
          </ns3:TrackPointExtension>
        </extensions>
      </trkpt>
      <trkpt lat="45.3291347064077854156494140625" lon="-70.94539940357208251953125">
        <ele>868.5999755859375</ele>
        <time>2026-08-21T17:43:37.000Z</time>
        <extensions>
          <ns3:TrackPointExtension>
            <ns3:hr>118</ns3:hr>
            <ns3:cad>69</ns3:cad>
          </ns3:TrackPointExtension>
        </extensions>
      </trkpt>
      <trkpt lat="45.3291427530348300933837890625" lon="-70.94541658647358417510986328125">
        <ele>868.4000244140625</ele>
        <time>2026-08-21T17:43:38.000Z</time>
        <extensions>
          <ns3:TrackPointExtension>
            <ns3:hr>115</ns3:hr>
            <ns3:cad>69</ns3:cad>
          </ns3:TrackPointExtension>
        </extensions>
      </trkpt>
      <trkpt lat="45.329146943986415863037109375" lon="-70.94543586485087871551513671875">
        <ele>868</ele>
        <time>2026-08-21T17:43:39.000Z</time>
        <extensions>
          <ns3:TrackPointExtension>
            <ns3:hr>114</ns3:hr>
            <ns3:cad>69</ns3:cad>
          </ns3:TrackPointExtension>
        </extensions>
      </trkpt>
      <trkpt lat="45.32914954237639904022216796875" lon="-70.945457406342029571533203125">
        <ele>868</ele>
        <time>2026-08-21T17:43:40.000Z</time>
        <extensions>
          <ns3:TrackPointExtension>
            <ns3:hr>113</ns3:hr>
            <ns3:cad>69</ns3:cad>
          </ns3:TrackPointExtension>
        </extensions>
      </trkpt>
      <trkpt lat="45.32915532588958740234375" lon="-70.94547291286289691925048828125">
        <ele>867.79998779296875</ele>
        <time>2026-08-21T17:43:41.000Z</time>
        <extensions>
          <ns3:TrackPointExtension>
            <ns3:hr>113</ns3:hr>
            <ns3:cad>69</ns3:cad>
          </ns3:TrackPointExtension>
        </extensions>
      </trkpt>
      <trkpt lat="45.3291591815650463104248046875" lon="-70.9454892575740814208984375">
        <ele>867.79998779296875</ele>
        <time>2026-08-21T17:43:42.000Z</time>
        <extensions>
          <ns3:TrackPointExtension>
            <ns3:hr>114</ns3:hr>
            <ns3:cad>68</ns3:cad>
          </ns3:TrackPointExtension>
        </extensions>
      </trkpt>
      <trkpt lat="45.329163372516632080078125" lon="-70.9455065242946147918701171875">
        <ele>867.79998779296875</ele>
        <time>2026-08-21T17:43:43.000Z</time>
        <extensions>
          <ns3:TrackPointExtension>
            <ns3:hr>114</ns3:hr>
            <ns3:cad>68</ns3:cad>
          </ns3:TrackPointExtension>
        </extensions>
      </trkpt>
      <trkpt lat="45.32917049713432788848876953125" lon="-70.9455330111086368560791015625">
        <ele>867.5999755859375</ele>
        <time>2026-08-21T17:43:44.000Z</time>
        <extensions>
          <ns3:TrackPointExtension>
            <ns3:hr>115</ns3:hr>
            <ns3:cad>68</ns3:cad>
          </ns3:TrackPointExtension>
        </extensions>
      </trkpt>
      <trkpt lat="45.32917787320911884307861328125" lon="-70.94555019401013851165771484375">
        <ele>867.4000244140625</ele>
        <time>2026-08-21T17:43:45.000Z</time>
        <extensions>
          <ns3:TrackPointExtension>
            <ns3:hr>115</ns3:hr>
            <ns3:cad>68</ns3:cad>
          </ns3:TrackPointExtension>
        </extensions>
      </trkpt>
      <trkpt lat="45.32918239943683147430419921875" lon="-70.9455702267587184906005859375">
        <ele>867.4000244140625</ele>
        <time>2026-08-21T17:43:46.000Z</time>
        <extensions>
          <ns3:TrackPointExtension>
            <ns3:hr>115</ns3:hr>
            <ns3:cad>68</ns3:cad>
          </ns3:TrackPointExtension>
        </extensions>
      </trkpt>
      <trkpt lat="45.32918642275035381317138671875" lon="-70.9455906786024570465087890625">
        <ele>867.20001220703125</ele>
        <time>2026-08-21T17:43:47.000Z</time>
        <extensions>
          <ns3:TrackPointExtension>
            <ns3:hr>115</ns3:hr>
            <ns3:cad>68</ns3:cad>
          </ns3:TrackPointExtension>
        </extensions>
      </trkpt>
      <trkpt lat="45.3291888535022735595703125" lon="-70.9456128068268299102783203125">
        <ele>866.79998779296875</ele>
        <time>2026-08-21T17:43:48.000Z</time>
        <extensions>
          <ns3:TrackPointExtension>
            <ns3:hr>116</ns3:hr>
            <ns3:cad>68</ns3:cad>
          </ns3:TrackPointExtension>
        </extensions>
      </trkpt>
      <trkpt lat="45.32919866032898426055908203125" lon="-70.9456362761557102203369140625">
        <ele>866.5999755859375</ele>
        <time>2026-08-21T17:43:49.000Z</time>
        <extensions>
          <ns3:TrackPointExtension>
            <ns3:hr>116</ns3:hr>
            <ns3:cad>68</ns3:cad>
          </ns3:TrackPointExtension>
        </extensions>
      </trkpt>
      <trkpt lat="45.329202599823474884033203125" lon="-70.94565211795270442962646484375">
        <ele>866.4000244140625</ele>
        <time>2026-08-21T17:43:50.000Z</time>
        <extensions>
          <ns3:TrackPointExtension>
            <ns3:hr>116</ns3:hr>
            <ns3:cad>68</ns3:cad>
          </ns3:TrackPointExtension>
        </extensions>
      </trkpt>
      <trkpt lat="45.32920888625085353851318359375" lon="-70.9456698037683963775634765625">
        <ele>866.20001220703125</ele>
        <time>2026-08-21T17:43:51.000Z</time>
        <extensions>
          <ns3:TrackPointExtension>
            <ns3:hr>117</ns3:hr>
            <ns3:cad>68</ns3:cad>
          </ns3:TrackPointExtension>
        </extensions>
      </trkpt>
      <trkpt lat="45.32922062091529369354248046875" lon="-70.94568908214569091796875">
        <ele>866</ele>
        <time>2026-08-21T17:43:52.000Z</time>
        <extensions>
          <ns3:TrackPointExtension>
            <ns3:hr>117</ns3:hr>
            <ns3:cad>68</ns3:cad>
          </ns3:TrackPointExtension>
        </extensions>
      </trkpt>
      <trkpt lat="45.3292357921600341796875" lon="-70.9457033313810825347900390625">
        <ele>865.79998779296875</ele>
        <time>2026-08-21T17:43:53.000Z</time>
        <extensions>
          <ns3:TrackPointExtension>
            <ns3:hr>117</ns3:hr>
            <ns3:cad>68</ns3:cad>
          </ns3:TrackPointExtension>
        </extensions>
      </trkpt>
      <trkpt lat="45.32924643717706203460693359375" lon="-70.94571682624518871307373046875">
        <ele>865.5999755859375</ele>
        <time>2026-08-21T17:43:54.000Z</time>
        <extensions>
          <ns3:TrackPointExtension>
            <ns3:hr>116</ns3:hr>
            <ns3:cad>66</ns3:cad>
          </ns3:TrackPointExtension>
        </extensions>
      </trkpt>
      <trkpt lat="45.32925247214734554290771484375" lon="-70.94573459587991237640380859375">
        <ele>865.4000244140625</ele>
        <time>2026-08-21T17:43:55.000Z</time>
        <extensions>
          <ns3:TrackPointExtension>
            <ns3:hr>116</ns3:hr>
            <ns3:cad>66</ns3:cad>
          </ns3:TrackPointExtension>
        </extensions>
      </trkpt>
      <trkpt lat="45.32925716601312160491943359375" lon="-70.945753119885921478271484375">
        <ele>865.20001220703125</ele>
        <time>2026-08-21T17:43:56.000Z</time>
        <extensions>
          <ns3:TrackPointExtension>
            <ns3:hr>116</ns3:hr>
            <ns3:cad>66</ns3:cad>
          </ns3:TrackPointExtension>
        </extensions>
      </trkpt>
      <trkpt lat="45.32926303334534168243408203125" lon="-70.945771895349025726318359375">
        <ele>864.79998779296875</ele>
        <time>2026-08-21T17:43:57.000Z</time>
        <extensions>
          <ns3:TrackPointExtension>
            <ns3:hr>116</ns3:hr>
            <ns3:cad>66</ns3:cad>
          </ns3:TrackPointExtension>
        </extensions>
      </trkpt>
      <trkpt lat="45.329262278974056243896484375" lon="-70.94578287564218044281005859375">
        <ele>864.79998779296875</ele>
        <time>2026-08-21T17:43:58.000Z</time>
        <extensions>
          <ns3:TrackPointExtension>
            <ns3:hr>115</ns3:hr>
            <ns3:cad>66</ns3:cad>
          </ns3:TrackPointExtension>
        </extensions>
      </trkpt>
      <trkpt lat="45.3292671404778957366943359375" lon="-70.94580181874334812164306640625">
        <ele>864.5999755859375</ele>
        <time>2026-08-21T17:43:59.000Z</time>
        <extensions>
          <ns3:TrackPointExtension>
            <ns3:hr>113</ns3:hr>
            <ns3:cad>66</ns3:cad>
          </ns3:TrackPointExtension>
        </extensions>
      </trkpt>
      <trkpt lat="45.32926554791629314422607421875" lon="-70.94582076184451580047607421875">
        <ele>864.5999755859375</ele>
        <time>2026-08-21T17:44:00.000Z</time>
        <extensions>
          <ns3:TrackPointExtension>
            <ns3:hr>112</ns3:hr>
            <ns3:cad>66</ns3:cad>
          </ns3:TrackPointExtension>
        </extensions>
      </trkpt>
      <trkpt lat="45.32926755957305431365966796875" lon="-70.94584389589726924896240234375">
        <ele>864.4000244140625</ele>
        <time>2026-08-21T17:44:01.000Z</time>
        <extensions>
          <ns3:TrackPointExtension>
            <ns3:hr>112</ns3:hr>
            <ns3:cad>66</ns3:cad>
          </ns3:TrackPointExtension>
        </extensions>
      </trkpt>
      <trkpt lat="45.32926730811595916748046875" lon="-70.945861078798770904541015625">
        <ele>864.4000244140625</ele>
        <time>2026-08-21T17:44:02.000Z</time>
        <extensions>
          <ns3:TrackPointExtension>
            <ns3:hr>112</ns3:hr>
            <ns3:cad>66</ns3:cad>
          </ns3:TrackPointExtension>
        </extensions>
      </trkpt>
      <trkpt lat="45.32927309162914752960205078125" lon="-70.94587977044284343719482421875">
        <ele>864.20001220703125</ele>
        <time>2026-08-21T17:44:03.000Z</time>
        <extensions>
          <ns3:TrackPointExtension>
            <ns3:hr>112</ns3:hr>
            <ns3:cad>66</ns3:cad>
          </ns3:TrackPointExtension>
        </extensions>
      </trkpt>
      <trkpt lat="45.3292773663997650146484375" lon="-70.9458951093256473541259765625">
        <ele>864</ele>
        <time>2026-08-21T17:44:04.000Z</time>
        <extensions>
          <ns3:TrackPointExtension>
            <ns3:hr>112</ns3:hr>
            <ns3:cad>66</ns3:cad>
          </ns3:TrackPointExtension>
        </extensions>
      </trkpt>
      <trkpt lat="45.3292842395603656768798828125" lon="-70.9459179081022739410400390625">
        <ele>863.5999755859375</ele>
        <time>2026-08-21T17:44:05.000Z</time>
        <extensions>
          <ns3:TrackPointExtension>
            <ns3:hr>112</ns3:hr>
            <ns3:cad>66</ns3:cad>
          </ns3:TrackPointExtension>
        </extensions>
      </trkpt>
      <trkpt lat="45.32928935252130031585693359375" lon="-70.94593785703182220458984375">
        <ele>863.4000244140625</ele>
        <time>2026-08-21T17:44:06.000Z</time>
        <extensions>
          <ns3:TrackPointExtension>
            <ns3:hr>112</ns3:hr>
            <ns3:cad>66</ns3:cad>
          </ns3:TrackPointExtension>
        </extensions>
      </trkpt>
      <trkpt lat="45.3292953036725521087646484375" lon="-70.94596057198941707611083984375">
        <ele>863</ele>
        <time>2026-08-21T17:44:07.000Z</time>
        <extensions>
          <ns3:TrackPointExtension>
            <ns3:hr>112</ns3:hr>
            <ns3:cad>66</ns3:cad>
          </ns3:TrackPointExtension>
        </extensions>
      </trkpt>
      <trkpt lat="45.32930083572864532470703125" lon="-70.9459789283573627471923828125">
        <ele>862.79998779296875</ele>
        <time>2026-08-21T17:44:08.000Z</time>
        <extensions>
          <ns3:TrackPointExtension>
            <ns3:hr>112</ns3:hr>
            <ns3:cad>66</ns3:cad>
          </ns3:TrackPointExtension>
        </extensions>
      </trkpt>
      <trkpt lat="45.3293050266802310943603515625" lon="-70.94599661417305469512939453125">
        <ele>862.4000244140625</ele>
        <time>2026-08-21T17:44:09.000Z</time>
        <extensions>
          <ns3:TrackPointExtension>
            <ns3:hr>112</ns3:hr>
            <ns3:cad>66</ns3:cad>
          </ns3:TrackPointExtension>
        </extensions>
      </trkpt>
      <trkpt lat="45.32931215129792690277099609375" lon="-70.94601840712130069732666015625">
        <ele>862.20001220703125</ele>
        <time>2026-08-21T17:44:10.000Z</time>
        <extensions>
          <ns3:TrackPointExtension>
            <ns3:hr>111</ns3:hr>
            <ns3:cad>66</ns3:cad>
          </ns3:TrackPointExtension>
        </extensions>
      </trkpt>
      <trkpt lat="45.32931827008724212646484375" lon="-70.94603902660310268402099609375">
        <ele>862</ele>
        <time>2026-08-21T17:44:11.000Z</time>
        <extensions>
          <ns3:TrackPointExtension>
            <ns3:hr>111</ns3:hr>
            <ns3:cad>66</ns3:cad>
          </ns3:TrackPointExtension>
        </extensions>
      </trkpt>
      <trkpt lat="45.32932975329458713531494140625" lon="-70.9460590593516826629638671875">
        <ele>861.79998779296875</ele>
        <time>2026-08-21T17:44:12.000Z</time>
        <extensions>
          <ns3:TrackPointExtension>
            <ns3:hr>111</ns3:hr>
            <ns3:cad>66</ns3:cad>
          </ns3:TrackPointExtension>
        </extensions>
      </trkpt>
      <trkpt lat="45.3293355368077754974365234375" lon="-70.94607590697705745697021484375">
        <ele>861.5999755859375</ele>
        <time>2026-08-21T17:44:13.000Z</time>
        <extensions>
          <ns3:TrackPointExtension>
            <ns3:hr>112</ns3:hr>
            <ns3:cad>66</ns3:cad>
          </ns3:TrackPointExtension>
        </extensions>
      </trkpt>
      <trkpt lat="45.32933981157839298248291015625" lon="-70.94609283842146396636962890625">
        <ele>861.20001220703125</ele>
        <time>2026-08-21T17:44:14.000Z</time>
        <extensions>
          <ns3:TrackPointExtension>
            <ns3:hr>112</ns3:hr>
            <ns3:cad>0</ns3:cad>
          </ns3:TrackPointExtension>
        </extensions>
      </trkpt>
      <trkpt lat="45.329345427453517913818359375" lon="-70.9461160562932491302490234375">
        <ele>861</ele>
        <time>2026-08-21T17:44:15.000Z</time>
        <extensions>
          <ns3:TrackPointExtension>
            <ns3:hr>112</ns3:hr>
            <ns3:cad>0</ns3:cad>
          </ns3:TrackPointExtension>
        </extensions>
      </trkpt>
      <trkpt lat="45.32935523428022861480712890625" lon="-70.94613541848957538604736328125">
        <ele>860.79998779296875</ele>
        <time>2026-08-21T17:44:16.000Z</time>
        <extensions>
          <ns3:TrackPointExtension>
            <ns3:hr>113</ns3:hr>
            <ns3:cad>0</ns3:cad>
          </ns3:TrackPointExtension>
        </extensions>
      </trkpt>
      <trkpt lat="45.32936009578406810760498046875" lon="-70.94615645706653594970703125">
        <ele>860.4000244140625</ele>
        <time>2026-08-21T17:44:17.000Z</time>
        <extensions>
          <ns3:TrackPointExtension>
            <ns3:hr>113</ns3:hr>
            <ns3:cad>0</ns3:cad>
          </ns3:TrackPointExtension>
        </extensions>
      </trkpt>
      <trkpt lat="45.32936629839241504669189453125" lon="-70.9461759030818939208984375">
        <ele>860.20001220703125</ele>
        <time>2026-08-21T17:44:18.000Z</time>
        <extensions>
          <ns3:TrackPointExtension>
            <ns3:hr>113</ns3:hr>
            <ns3:cad>0</ns3:cad>
          </ns3:TrackPointExtension>
        </extensions>
      </trkpt>
      <trkpt lat="45.3293724171817302703857421875" lon="-70.94619375653564929962158203125">
        <ele>859.79998779296875</ele>
        <time>2026-08-21T17:44:19.000Z</time>
        <extensions>
          <ns3:TrackPointExtension>
            <ns3:hr>112</ns3:hr>
            <ns3:cad>0</ns3:cad>
          </ns3:TrackPointExtension>
        </extensions>
      </trkpt>
      <trkpt lat="45.32937652431428432464599609375" lon="-70.94620741903781890869140625">
        <ele>859.4000244140625</ele>
        <time>2026-08-21T17:44:20.000Z</time>
        <extensions>
          <ns3:TrackPointExtension>
            <ns3:hr>112</ns3:hr>
            <ns3:cad>0</ns3:cad>
          </ns3:TrackPointExtension>
        </extensions>
      </trkpt>
      <trkpt lat="45.3293861635029315948486328125" lon="-70.94622393138706684112548828125">
        <ele>859.20001220703125</ele>
        <time>2026-08-21T17:44:21.000Z</time>
        <extensions>
          <ns3:TrackPointExtension>
            <ns3:hr>112</ns3:hr>
            <ns3:cad>0</ns3:cad>
          </ns3:TrackPointExtension>
        </extensions>
      </trkpt>
      <trkpt lat="45.32939798198640346527099609375" lon="-70.94624907709658145904541015625">
        <ele>858.5999755859375</ele>
        <time>2026-08-21T17:44:22.000Z</time>
        <extensions>
          <ns3:TrackPointExtension>
            <ns3:hr>112</ns3:hr>
            <ns3:cad>0</ns3:cad>
          </ns3:TrackPointExtension>
        </extensions>
      </trkpt>
      <trkpt lat="45.3294049389660358428955078125" lon="-70.9462724626064300537109375">
        <ele>858.4000244140625</ele>
        <time>2026-08-21T17:44:23.000Z</time>
        <extensions>
          <ns3:TrackPointExtension>
            <ns3:hr>111</ns3:hr>
            <ns3:cad>0</ns3:cad>
          </ns3:TrackPointExtension>
        </extensions>
      </trkpt>
      <trkpt lat="45.32940954901278018951416015625" lon="-70.94629450701177120208740234375">
        <ele>858</ele>
        <time>2026-08-21T17:44:24.000Z</time>
        <extensions>
          <ns3:TrackPointExtension>
            <ns3:hr>112</ns3:hr>
            <ns3:cad>75</ns3:cad>
          </ns3:TrackPointExtension>
        </extensions>
      </trkpt>
      <trkpt lat="45.32941759563982486724853515625" lon="-70.94631873071193695068359375">
        <ele>857.5999755859375</ele>
        <time>2026-08-21T17:44:25.000Z</time>
        <extensions>
          <ns3:TrackPointExtension>
            <ns3:hr>112</ns3:hr>
            <ns3:cad>75</ns3:cad>
          </ns3:TrackPointExtension>
        </extensions>
      </trkpt>
      <trkpt lat="45.3294297493994235992431640625" lon="-70.94633406959474086761474609375">
        <ele>857.20001220703125</ele>
        <time>2026-08-21T17:44:26.000Z</time>
        <extensions>
          <ns3:TrackPointExtension>
            <ns3:hr>112</ns3:hr>
            <ns3:cad>74</ns3:cad>
          </ns3:TrackPointExtension>
        </extensions>
      </trkpt>
      <trkpt lat="45.3294401429593563079833984375" lon="-70.9463598020374774932861328125">
        <ele>856.79998779296875</ele>
        <time>2026-08-21T17:44:27.000Z</time>
        <extensions>
          <ns3:TrackPointExtension>
            <ns3:hr>112</ns3:hr>
            <ns3:cad>74</ns3:cad>
          </ns3:TrackPointExtension>
        </extensions>
      </trkpt>
      <trkpt lat="45.32944542355835437774658203125" lon="-70.946377404034137725830078125">
        <ele>856.5999755859375</ele>
        <time>2026-08-21T17:44:28.000Z</time>
        <extensions>
          <ns3:TrackPointExtension>
            <ns3:hr>112</ns3:hr>
            <ns3:cad>74</ns3:cad>
          </ns3:TrackPointExtension>
        </extensions>
      </trkpt>
      <trkpt lat="45.32945179380476474761962890625" lon="-70.9463960118591785430908203125">
        <ele>856.4000244140625</ele>
        <time>2026-08-21T17:44:29.000Z</time>
        <extensions>
          <ns3:TrackPointExtension>
            <ns3:hr>112</ns3:hr>
            <ns3:cad>74</ns3:cad>
          </ns3:TrackPointExtension>
        </extensions>
      </trkpt>
      <trkpt lat="45.32945782877504825592041015625" lon="-70.9464208222925662994384765625">
        <ele>856</ele>
        <time>2026-08-21T17:44:30.000Z</time>
        <extensions>
          <ns3:TrackPointExtension>
            <ns3:hr>112</ns3:hr>
            <ns3:cad>74</ns3:cad>
          </ns3:TrackPointExtension>
        </extensions>
      </trkpt>
      <trkpt lat="45.32946470193564891815185546875" lon="-70.9464426152408123016357421875">
        <ele>855.79998779296875</ele>
        <time>2026-08-21T17:44:31.000Z</time>
        <extensions>
          <ns3:TrackPointExtension>
            <ns3:hr>112</ns3:hr>
            <ns3:cad>74</ns3:cad>
          </ns3:TrackPointExtension>
        </extensions>
      </trkpt>
      <trkpt lat="45.3294723294675350189208984375" lon="-70.94646130688488483428955078125">
        <ele>855.4000244140625</ele>
        <time>2026-08-21T17:44:32.000Z</time>
        <extensions>
          <ns3:TrackPointExtension>
            <ns3:hr>112</ns3:hr>
            <ns3:cad>74</ns3:cad>
          </ns3:TrackPointExtension>
        </extensions>
      </trkpt>
      <trkpt lat="45.3294823877513408660888671875" lon="-70.946483351290225982666015625">
        <ele>855.20001220703125</ele>
        <time>2026-08-21T17:44:33.000Z</time>
        <extensions>
          <ns3:TrackPointExtension>
            <ns3:hr>111</ns3:hr>
            <ns3:cad>74</ns3:cad>
          </ns3:TrackPointExtension>
        </extensions>
      </trkpt>
      <trkpt lat="45.32949395477771759033203125" lon="-70.946502126753330230712890625">
        <ele>854.79998779296875</ele>
        <time>2026-08-21T17:44:34.000Z</time>
        <extensions>
          <ns3:TrackPointExtension>
            <ns3:hr>111</ns3:hr>
            <ns3:cad>71</ns3:cad>
          </ns3:TrackPointExtension>
        </extensions>
      </trkpt>
      <trkpt lat="45.32950560562312602996826171875" lon="-70.94652433879673480987548828125">
        <ele>854.5999755859375</ele>
        <time>2026-08-21T17:44:35.000Z</time>
        <extensions>
          <ns3:TrackPointExtension>
            <ns3:hr>111</ns3:hr>
            <ns3:cad>71</ns3:cad>
          </ns3:TrackPointExtension>
        </extensions>
      </trkpt>
      <trkpt lat="45.32951147295534610748291015625" lon="-70.946542359888553619384765625">
        <ele>854.20001220703125</ele>
        <time>2026-08-21T17:44:36.000Z</time>
        <extensions>
          <ns3:TrackPointExtension>
            <ns3:hr>112</ns3:hr>
            <ns3:cad>71</ns3:cad>
          </ns3:TrackPointExtension>
        </extensions>
      </trkpt>
      <trkpt lat="45.32952153123915195465087890625" lon="-70.9465700201690196990966796875">
        <ele>853.79998779296875</ele>
        <time>2026-08-21T17:44:37.000Z</time>
        <extensions>
          <ns3:TrackPointExtension>
            <ns3:hr>113</ns3:hr>
            <ns3:cad>75</ns3:cad>
          </ns3:TrackPointExtension>
        </extensions>
      </trkpt>
      <trkpt lat="45.32953443937003612518310546875" lon="-70.94659139402210712432861328125">
        <ele>853.5999755859375</ele>
        <time>2026-08-21T17:44:38.000Z</time>
        <extensions>
          <ns3:TrackPointExtension>
            <ns3:hr>114</ns3:hr>
            <ns3:cad>75</ns3:cad>
          </ns3:TrackPointExtension>
        </extensions>
      </trkpt>
      <trkpt lat="45.329549610614776611328125" lon="-70.9466159529983997344970703125">
        <ele>853.20001220703125</ele>
        <time>2026-08-21T17:44:39.000Z</time>
        <extensions>
          <ns3:TrackPointExtension>
            <ns3:hr>115</ns3:hr>
            <ns3:cad>75</ns3:cad>
          </ns3:TrackPointExtension>
        </extensions>
      </trkpt>
      <trkpt lat="45.329560339450836181640625" lon="-70.94663615338504314422607421875">
        <ele>853</ele>
        <time>2026-08-21T17:44:40.000Z</time>
        <extensions>
          <ns3:TrackPointExtension>
            <ns3:hr>115</ns3:hr>
            <ns3:cad>75</ns3:cad>
          </ns3:TrackPointExtension>
        </extensions>
      </trkpt>
      <trkpt lat="45.32957316376268863677978515625" lon="-70.94666205346584320068359375">
        <ele>852.79998779296875</ele>
        <time>2026-08-21T17:44:41.000Z</time>
        <extensions>
          <ns3:TrackPointExtension>
            <ns3:hr>115</ns3:hr>
            <ns3:cad>75</ns3:cad>
          </ns3:TrackPointExtension>
        </extensions>
      </trkpt>
      <trkpt lat="45.3295829705893993377685546875" lon="-70.94667856581509113311767578125">
        <ele>852.5999755859375</ele>
        <time>2026-08-21T17:44:42.000Z</time>
        <extensions>
          <ns3:TrackPointExtension>
            <ns3:hr>115</ns3:hr>
            <ns3:cad>75</ns3:cad>
          </ns3:TrackPointExtension>
        </extensions>
      </trkpt>
      <trkpt lat="45.32959445379674434661865234375" lon="-70.94669985584914684295654296875">
        <ele>852.5999755859375</ele>
        <time>2026-08-21T17:44:43.000Z</time>
        <extensions>
          <ns3:TrackPointExtension>
            <ns3:hr>116</ns3:hr>
            <ns3:cad>72</ns3:cad>
          </ns3:TrackPointExtension>
        </extensions>
      </trkpt>
      <trkpt lat="45.32960685901343822479248046875" lon="-70.946723408997058868408203125">
        <ele>852.4000244140625</ele>
        <time>2026-08-21T17:44:44.000Z</time>
        <extensions>
          <ns3:TrackPointExtension>
            <ns3:hr>115</ns3:hr>
            <ns3:cad>0</ns3:cad>
          </ns3:TrackPointExtension>
        </extensions>
      </trkpt>
      <trkpt lat="45.32961733639240264892578125" lon="-70.9467391669750213623046875">
        <ele>852.20001220703125</ele>
        <time>2026-08-21T17:44:45.000Z</time>
        <extensions>
          <ns3:TrackPointExtension>
            <ns3:hr>116</ns3:hr>
            <ns3:cad>0</ns3:cad>
          </ns3:TrackPointExtension>
        </extensions>
      </trkpt>
      <trkpt lat="45.3296292386949062347412109375" lon="-70.94675702042877674102783203125">
        <ele>851.79998779296875</ele>
        <time>2026-08-21T17:44:46.000Z</time>
        <extensions>
          <ns3:TrackPointExtension>
            <ns3:hr>116</ns3:hr>
            <ns3:cad>0</ns3:cad>
          </ns3:TrackPointExtension>
        </extensions>
      </trkpt>
      <trkpt lat="45.32964005134999752044677734375" lon="-70.94677881337702274322509765625">
        <ele>851.5999755859375</ele>
        <time>2026-08-21T17:44:47.000Z</time>
        <extensions>
          <ns3:TrackPointExtension>
            <ns3:hr>116</ns3:hr>
            <ns3:cad>0</ns3:cad>
          </ns3:TrackPointExtension>
        </extensions>
      </trkpt>
      <trkpt lat="45.329647846519947052001953125" lon="-70.94680295325815677642822265625">
        <ele>851.20001220703125</ele>
        <time>2026-08-21T17:44:48.000Z</time>
        <extensions>
          <ns3:TrackPointExtension>
            <ns3:hr>115</ns3:hr>
            <ns3:cad>70</ns3:cad>
          </ns3:TrackPointExtension>
        </extensions>
      </trkpt>
      <trkpt lat="45.3296563960611820220947265625" lon="-70.94682273454964160919189453125">
        <ele>851</ele>
        <time>2026-08-21T17:44:49.000Z</time>
        <extensions>
          <ns3:TrackPointExtension>
            <ns3:hr>116</ns3:hr>
            <ns3:cad>70</ns3:cad>
          </ns3:TrackPointExtension>
        </extensions>
      </trkpt>
      <trkpt lat="45.32966427505016326904296875" lon="-70.946846120059490203857421875">
        <ele>850.5999755859375</ele>
        <time>2026-08-21T17:44:50.000Z</time>
        <extensions>
          <ns3:TrackPointExtension>
            <ns3:hr>116</ns3:hr>
            <ns3:cad>70</ns3:cad>
          </ns3:TrackPointExtension>
        </extensions>
      </trkpt>
      <trkpt lat="45.32967475242912769317626953125" lon="-70.94686984084546566009521484375">
        <ele>850.4000244140625</ele>
        <time>2026-08-21T17:44:51.000Z</time>
        <extensions>
          <ns3:TrackPointExtension>
            <ns3:hr>117</ns3:hr>
            <ns3:cad>75</ns3:cad>
          </ns3:TrackPointExtension>
        </extensions>
      </trkpt>
      <trkpt lat="45.3296828828752040863037109375" lon="-70.94689029268920421600341796875">
        <ele>850.20001220703125</ele>
        <time>2026-08-21T17:44:52.000Z</time>
        <extensions>
          <ns3:TrackPointExtension>
            <ns3:hr>117</ns3:hr>
            <ns3:cad>75</ns3:cad>
          </ns3:TrackPointExtension>
        </extensions>
      </trkpt>
      <trkpt lat="45.3296855650842189788818359375" lon="-70.94690822996199131011962890625">
        <ele>850</ele>
        <time>2026-08-21T17:44:53.000Z</time>
        <extensions>
          <ns3:TrackPointExtension>
            <ns3:hr>118</ns3:hr>
            <ns3:cad>74</ns3:cad>
          </ns3:TrackPointExtension>
        </extensions>
      </trkpt>
      <trkpt lat="45.32969109714031219482421875" lon="-70.94693639315664768218994140625">
        <ele>849.5999755859375</ele>
        <time>2026-08-21T17:44:54.000Z</time>
        <extensions>
          <ns3:TrackPointExtension>
            <ns3:hr>118</ns3:hr>
            <ns3:cad>72</ns3:cad>
          </ns3:TrackPointExtension>
        </extensions>
      </trkpt>
      <trkpt lat="45.32969855703413486480712890625" lon="-70.94695382751524448394775390625">
        <ele>849.4000244140625</ele>
        <time>2026-08-21T17:44:55.000Z</time>
        <extensions>
          <ns3:TrackPointExtension>
            <ns3:hr>118</ns3:hr>
            <ns3:cad>72</ns3:cad>
          </ns3:TrackPointExtension>
        </extensions>
      </trkpt>
      <trkpt lat="45.329707525670528411865234375" lon="-70.94697779975831508636474609375">
        <ele>849</ele>
        <time>2026-08-21T17:44:56.000Z</time>
        <extensions>
          <ns3:TrackPointExtension>
            <ns3:hr>119</ns3:hr>
            <ns3:cad>71</ns3:cad>
          </ns3:TrackPointExtension>
        </extensions>
      </trkpt>
      <trkpt lat="45.32971867360174655914306640625" lon="-70.9470045380294322967529296875">
        <ele>848.5999755859375</ele>
        <time>2026-08-21T17:44:57.000Z</time>
        <extensions>
          <ns3:TrackPointExtension>
            <ns3:hr>119</ns3:hr>
            <ns3:cad>71</ns3:cad>
          </ns3:TrackPointExtension>
        </extensions>
      </trkpt>
      <trkpt lat="45.329726301133632659912109375" lon="-70.94702524133026599884033203125">
        <ele>848.20001220703125</ele>
        <time>2026-08-21T17:44:58.000Z</time>
        <extensions>
          <ns3:TrackPointExtension>
            <ns3:hr>120</ns3:hr>
            <ns3:cad>71</ns3:cad>
          </ns3:TrackPointExtension>
        </extensions>
      </trkpt>
      <trkpt lat="45.32973610796034336090087890625" lon="-70.94704854302108287811279296875">
        <ele>847.79998779296875</ele>
        <time>2026-08-21T17:44:59.000Z</time>
        <extensions>
          <ns3:TrackPointExtension>
            <ns3:hr>120</ns3:hr>
            <ns3:cad>75</ns3:cad>
          </ns3:TrackPointExtension>
        </extensions>
      </trkpt>
      <trkpt lat="45.329745747148990631103515625" lon="-70.947072766721248626708984375">
        <ele>847.4000244140625</ele>
        <time>2026-08-21T17:45:00.000Z</time>
        <extensions>
          <ns3:TrackPointExtension>
            <ns3:hr>120</ns3:hr>
            <ns3:cad>75</ns3:cad>
          </ns3:TrackPointExtension>
        </extensions>
      </trkpt>
      <trkpt lat="45.32975438050925731658935546875" lon="-70.9470873512327671051025390625">
        <ele>847.20001220703125</ele>
        <time>2026-08-21T17:45:01.000Z</time>
        <extensions>
          <ns3:TrackPointExtension>
            <ns3:hr>120</ns3:hr>
            <ns3:cad>75</ns3:cad>
          </ns3:TrackPointExtension>
        </extensions>
      </trkpt>
      <trkpt lat="45.3297643549740314483642578125" lon="-70.94711040146648883819580078125">
        <ele>846.79998779296875</ele>
        <time>2026-08-21T17:45:02.000Z</time>
        <extensions>
          <ns3:TrackPointExtension>
            <ns3:hr>120</ns3:hr>
            <ns3:cad>75</ns3:cad>
          </ns3:TrackPointExtension>
        </extensions>
      </trkpt>
      <trkpt lat="45.32977315597236156463623046875" lon="-70.94713135622441768646240234375">
        <ele>846.5999755859375</ele>
        <time>2026-08-21T17:45:03.000Z</time>
        <extensions>
          <ns3:TrackPointExtension>
            <ns3:hr>120</ns3:hr>
            <ns3:cad>75</ns3:cad>
          </ns3:TrackPointExtension>
        </extensions>
      </trkpt>
      <trkpt lat="45.32977818511426448822021484375" lon="-70.94714929349720478057861328125">
        <ele>846.20001220703125</ele>
        <time>2026-08-21T17:45:04.000Z</time>
        <extensions>
          <ns3:TrackPointExtension>
            <ns3:hr>120</ns3:hr>
            <ns3:cad>75</ns3:cad>
          </ns3:TrackPointExtension>
        </extensions>
      </trkpt>
      <trkpt lat="45.329785645008087158203125" lon="-70.94717259518802165985107421875">
        <ele>846</ele>
        <time>2026-08-21T17:45:05.000Z</time>
        <extensions>
          <ns3:TrackPointExtension>
            <ns3:hr>121</ns3:hr>
            <ns3:cad>75</ns3:cad>
          </ns3:TrackPointExtension>
        </extensions>
      </trkpt>
      <trkpt lat="45.32979813404381275177001953125" lon="-70.9471922926604747772216796875">
        <ele>845.5999755859375</ele>
        <time>2026-08-21T17:45:06.000Z</time>
        <extensions>
          <ns3:TrackPointExtension>
            <ns3:hr>121</ns3:hr>
            <ns3:cad>73</ns3:cad>
          </ns3:TrackPointExtension>
        </extensions>
      </trkpt>
      <trkpt lat="45.32980165444314479827880859375" lon="-70.94721601344645023345947265625">
        <ele>845.20001220703125</ele>
        <time>2026-08-21T17:45:07.000Z</time>
        <extensions>
          <ns3:TrackPointExtension>
            <ns3:hr>120</ns3:hr>
            <ns3:cad>73</ns3:cad>
          </ns3:TrackPointExtension>
        </extensions>
      </trkpt>
      <trkpt lat="45.3298092819750308990478515625" lon="-70.94724677503108978271484375">
        <ele>845</ele>
        <time>2026-08-21T17:45:08.000Z</time>
        <extensions>
          <ns3:TrackPointExtension>
            <ns3:hr>120</ns3:hr>
            <ns3:cad>73</ns3:cad>
          </ns3:TrackPointExtension>
        </extensions>
      </trkpt>
      <trkpt lat="45.32981623895466327667236328125" lon="-70.9472710825502872467041015625">
        <ele>844.5999755859375</ele>
        <time>2026-08-21T17:45:09.000Z</time>
        <extensions>
          <ns3:TrackPointExtension>
            <ns3:hr>120</ns3:hr>
            <ns3:cad>73</ns3:cad>
          </ns3:TrackPointExtension>
        </extensions>
      </trkpt>
      <trkpt lat="45.32982227392494678497314453125" lon="-70.9472911991178989410400390625">
        <ele>844.20001220703125</ele>
        <time>2026-08-21T17:45:10.000Z</time>
        <extensions>
          <ns3:TrackPointExtension>
            <ns3:hr>120</ns3:hr>
            <ns3:cad>73</ns3:cad>
          </ns3:TrackPointExtension>
        </extensions>
      </trkpt>
      <trkpt lat="45.32983099110424518585205078125" lon="-70.94731676392257213592529296875">
        <ele>844</ele>
        <time>2026-08-21T17:45:11.000Z</time>
        <extensions>
          <ns3:TrackPointExtension>
            <ns3:hr>120</ns3:hr>
            <ns3:cad>73</ns3:cad>
          </ns3:TrackPointExtension>
        </extensions>
      </trkpt>
      <trkpt lat="45.3298428095877170562744140625" lon="-70.947349369525909423828125">
        <ele>843.79998779296875</ele>
        <time>2026-08-21T17:45:12.000Z</time>
        <extensions>
          <ns3:TrackPointExtension>
            <ns3:hr>120</ns3:hr>
            <ns3:cad>73</ns3:cad>
          </ns3:TrackPointExtension>
        </extensions>
      </trkpt>
      <trkpt lat="45.329851023852825164794921875" lon="-70.94737283885478973388671875">
        <ele>843.5999755859375</ele>
        <time>2026-08-21T17:45:13.000Z</time>
        <extensions>
          <ns3:TrackPointExtension>
            <ns3:hr>120</ns3:hr>
            <ns3:cad>73</ns3:cad>
          </ns3:TrackPointExtension>
        </extensions>
      </trkpt>
      <trkpt lat="45.3298609144985675811767578125" lon="-70.94739655964076519012451171875">
        <ele>843.4000244140625</ele>
        <time>2026-08-21T17:45:14.000Z</time>
        <extensions>
          <ns3:TrackPointExtension>
            <ns3:hr>120</ns3:hr>
            <ns3:cad>73</ns3:cad>
          </ns3:TrackPointExtension>
        </extensions>
      </trkpt>
      <trkpt lat="45.32986753620207309722900390625" lon="-70.9474150836467742919921875">
        <ele>843.20001220703125</ele>
        <time>2026-08-21T17:45:15.000Z</time>
        <extensions>
          <ns3:TrackPointExtension>
            <ns3:hr>120</ns3:hr>
            <ns3:cad>73</ns3:cad>
          </ns3:TrackPointExtension>
        </extensions>
      </trkpt>
      <trkpt lat="45.3298781812191009521484375" lon="-70.94743947498500347137451171875">
        <ele>843.20001220703125</ele>
        <time>2026-08-21T17:45:16.000Z</time>
        <extensions>
          <ns3:TrackPointExtension>
            <ns3:hr>120</ns3:hr>
            <ns3:cad>73</ns3:cad>
          </ns3:TrackPointExtension>
        </extensions>
      </trkpt>
      <trkpt lat="45.32988748513162136077880859375" lon="-70.9474665485322475433349609375">
        <ele>843</ele>
        <time>2026-08-21T17:45:17.000Z</time>
        <extensions>
          <ns3:TrackPointExtension>
            <ns3:hr>121</ns3:hr>
            <ns3:cad>73</ns3:cad>
          </ns3:TrackPointExtension>
        </extensions>
      </trkpt>
      <trkpt lat="45.3298984654247760772705078125" lon="-70.9474861621856689453125">
        <ele>843</ele>
        <time>2026-08-21T17:45:18.000Z</time>
        <extensions>
          <ns3:TrackPointExtension>
            <ns3:hr>120</ns3:hr>
            <ns3:cad>71</ns3:cad>
          </ns3:TrackPointExtension>
        </extensions>
      </trkpt>
      <trkpt lat="45.329910703003406524658203125" lon="-70.94751239754259586334228515625">
        <ele>842.79998779296875</ele>
        <time>2026-08-21T17:45:19.000Z</time>
        <extensions>
          <ns3:TrackPointExtension>
            <ns3:hr>120</ns3:hr>
            <ns3:cad>71</ns3:cad>
          </ns3:TrackPointExtension>
        </extensions>
      </trkpt>
      <trkpt lat="45.3299239464104175567626953125" lon="-70.947534777224063873291015625">
        <ele>842.79998779296875</ele>
        <time>2026-08-21T17:45:20.000Z</time>
        <extensions>
          <ns3:TrackPointExtension>
            <ns3:hr>120</ns3:hr>
            <ns3:cad>71</ns3:cad>
          </ns3:TrackPointExtension>
        </extensions>
      </trkpt>
      <trkpt lat="45.32994196750223636627197265625" lon="-70.9475513733923435211181640625">
        <ele>842.5999755859375</ele>
        <time>2026-08-21T17:45:21.000Z</time>
        <extensions>
          <ns3:TrackPointExtension>
            <ns3:hr>121</ns3:hr>
            <ns3:cad>71</ns3:cad>
          </ns3:TrackPointExtension>
        </extensions>
      </trkpt>
      <trkpt lat="45.329962670803070068359375" lon="-70.94756687991321086883544921875">
        <ele>842.4000244140625</ele>
        <time>2026-08-21T17:45:22.000Z</time>
        <extensions>
          <ns3:TrackPointExtension>
            <ns3:hr>120</ns3:hr>
            <ns3:cad>71</ns3:cad>
          </ns3:TrackPointExtension>
        </extensions>
      </trkpt>
      <trkpt lat="45.32997633330523967742919921875" lon="-70.9475785307586193084716796875">
        <ele>842.4000244140625</ele>
        <time>2026-08-21T17:45:23.000Z</time>
        <extensions>
          <ns3:TrackPointExtension>
            <ns3:hr>120</ns3:hr>
            <ns3:cad>71</ns3:cad>
          </ns3:TrackPointExtension>
        </extensions>
      </trkpt>
      <trkpt lat="45.32999142073094844818115234375" lon="-70.94759336672723293304443359375">
        <ele>842.20001220703125</ele>
        <time>2026-08-21T17:45:24.000Z</time>
        <extensions>
          <ns3:TrackPointExtension>
            <ns3:hr>120</ns3:hr>
            <ns3:cad>71</ns3:cad>
          </ns3:TrackPointExtension>
        </extensions>
      </trkpt>
      <trkpt lat="45.33000315539538860321044921875" lon="-70.94760426320135593414306640625">
        <ele>842.20001220703125</ele>
        <time>2026-08-21T17:45:25.000Z</time>
        <extensions>
          <ns3:TrackPointExtension>
            <ns3:hr>120</ns3:hr>
            <ns3:cad>75</ns3:cad>
          </ns3:TrackPointExtension>
        </extensions>
      </trkpt>
      <trkpt lat="45.330011956393718719482421875" lon="-70.94762689433991909027099609375">
        <ele>842.20001220703125</ele>
        <time>2026-08-21T17:45:26.000Z</time>
        <extensions>
          <ns3:TrackPointExtension>
            <ns3:hr>119</ns3:hr>
            <ns3:cad>75</ns3:cad>
          </ns3:TrackPointExtension>
        </extensions>
      </trkpt>
      <trkpt lat="45.330013297498226165771484375" lon="-70.94764717854559421539306640625">
        <ele>842</ele>
        <time>2026-08-21T17:45:27.000Z</time>
        <extensions>
          <ns3:TrackPointExtension>
            <ns3:hr>119</ns3:hr>
            <ns3:cad>75</ns3:cad>
          </ns3:TrackPointExtension>
        </extensions>
      </trkpt>
      <trkpt lat="45.33001639880239963531494140625" lon="-70.94767349772155284881591796875">
        <ele>842</ele>
        <time>2026-08-21T17:45:28.000Z</time>
        <extensions>
          <ns3:TrackPointExtension>
            <ns3:hr>119</ns3:hr>
            <ns3:cad>75</ns3:cad>
          </ns3:TrackPointExtension>
        </extensions>
      </trkpt>
      <trkpt lat="45.33002100884914398193359375" lon="-70.94770233146846294403076171875">
        <ele>842</ele>
        <time>2026-08-21T17:45:29.000Z</time>
        <extensions>
          <ns3:TrackPointExtension>
            <ns3:hr>120</ns3:hr>
            <ns3:cad>75</ns3:cad>
          </ns3:TrackPointExtension>
        </extensions>
      </trkpt>
      <trkpt lat="45.33002503216266632080078125" lon="-70.94772730953991413116455078125">
        <ele>841.79998779296875</ele>
        <time>2026-08-21T17:45:30.000Z</time>
        <extensions>
          <ns3:TrackPointExtension>
            <ns3:hr>119</ns3:hr>
            <ns3:cad>75</ns3:cad>
          </ns3:TrackPointExtension>
        </extensions>
      </trkpt>
      <trkpt lat="45.330030731856822967529296875" lon="-70.94774901866912841796875">
        <ele>841.79998779296875</ele>
        <time>2026-08-21T17:45:31.000Z</time>
        <extensions>
          <ns3:TrackPointExtension>
            <ns3:hr>118</ns3:hr>
            <ns3:cad>75</ns3:cad>
          </ns3:TrackPointExtension>
        </extensions>
      </trkpt>
      <trkpt lat="45.3300416283309459686279296875" lon="-70.947776176035404205322265625">
        <ele>841.79998779296875</ele>
        <time>2026-08-21T17:45:32.000Z</time>
        <extensions>
          <ns3:TrackPointExtension>
            <ns3:hr>118</ns3:hr>
            <ns3:cad>70</ns3:cad>
          </ns3:TrackPointExtension>
        </extensions>
      </trkpt>
      <trkpt lat="45.33004875294864177703857421875" lon="-70.94780199229717254638671875">
        <ele>841.79998779296875</ele>
        <time>2026-08-21T17:45:33.000Z</time>
        <extensions>
          <ns3:TrackPointExtension>
            <ns3:hr>119</ns3:hr>
            <ns3:cad>70</ns3:cad>
          </ns3:TrackPointExtension>
        </extensions>
      </trkpt>
      <trkpt lat="45.33005654811859130859375" lon="-70.94782386906445026397705078125">
        <ele>841.79998779296875</ele>
        <time>2026-08-21T17:45:34.000Z</time>
        <extensions>
          <ns3:TrackPointExtension>
            <ns3:hr>119</ns3:hr>
            <ns3:cad>70</ns3:cad>
          </ns3:TrackPointExtension>
        </extensions>
      </trkpt>
      <trkpt lat="45.3300624154508113861083984375" lon="-70.94784264452755451202392578125">
        <ele>841.79998779296875</ele>
        <time>2026-08-21T17:45:35.000Z</time>
        <extensions>
          <ns3:TrackPointExtension>
            <ns3:hr>119</ns3:hr>
            <ns3:cad>70</ns3:cad>
          </ns3:TrackPointExtension>
        </extensions>
      </trkpt>
      <trkpt lat="45.3300721384584903717041015625" lon="-70.947866030037403106689453125">
        <ele>841.5999755859375</ele>
        <time>2026-08-21T17:45:36.000Z</time>
        <extensions>
          <ns3:TrackPointExtension>
            <ns3:hr>119</ns3:hr>
            <ns3:cad>70</ns3:cad>
          </ns3:TrackPointExtension>
        </extensions>
      </trkpt>
      <trkpt lat="45.33007943071424961090087890625" lon="-70.9478863142430782318115234375">
        <ele>841.4000244140625</ele>
        <time>2026-08-21T17:45:37.000Z</time>
        <extensions>
          <ns3:TrackPointExtension>
            <ns3:hr>119</ns3:hr>
            <ns3:cad>74</ns3:cad>
          </ns3:TrackPointExtension>
        </extensions>
      </trkpt>
      <trkpt lat="45.33009049482643604278564453125" lon="-70.9479158185422420501708984375">
        <ele>841.4000244140625</ele>
        <time>2026-08-21T17:45:38.000Z</time>
        <extensions>
          <ns3:TrackPointExtension>
            <ns3:hr>119</ns3:hr>
            <ns3:cad>74</ns3:cad>
          </ns3:TrackPointExtension>
        </extensions>
      </trkpt>
      <trkpt lat="45.33009879291057586669921875" lon="-70.9479407966136932373046875">
        <ele>841.4000244140625</ele>
        <time>2026-08-21T17:45:39.000Z</time>
        <extensions>
          <ns3:TrackPointExtension>
            <ns3:hr>119</ns3:hr>
            <ns3:cad>73</ns3:cad>
          </ns3:TrackPointExtension>
        </extensions>
      </trkpt>
      <trkpt lat="45.33010474406182765960693359375" lon="-70.94795621931552886962890625">
        <ele>841.20001220703125</ele>
        <time>2026-08-21T17:45:40.000Z</time>
        <extensions>
          <ns3:TrackPointExtension>
            <ns3:hr>119</ns3:hr>
            <ns3:cad>73</ns3:cad>
          </ns3:TrackPointExtension>
        </extensions>
      </trkpt>
      <trkpt lat="45.3301120363175868988037109375" lon="-70.947982706129550933837890625">
        <ele>841.20001220703125</ele>
        <time>2026-08-21T17:45:41.000Z</time>
        <extensions>
          <ns3:TrackPointExtension>
            <ns3:hr>118</ns3:hr>
            <ns3:cad>73</ns3:cad>
          </ns3:TrackPointExtension>
        </extensions>
      </trkpt>
      <trkpt lat="45.3301184065639972686767578125" lon="-70.94800894148647785186767578125">
        <ele>841.20001220703125</ele>
        <time>2026-08-21T17:45:42.000Z</time>
        <extensions>
          <ns3:TrackPointExtension>
            <ns3:hr>119</ns3:hr>
            <ns3:cad>73</ns3:cad>
          </ns3:TrackPointExtension>
        </extensions>
      </trkpt>
      <trkpt lat="45.33012703992426395416259765625" lon="-70.94803090207278728485107421875">
        <ele>841</ele>
        <time>2026-08-21T17:45:43.000Z</time>
        <extensions>
          <ns3:TrackPointExtension>
            <ns3:hr>119</ns3:hr>
            <ns3:cad>73</ns3:cad>
          </ns3:TrackPointExtension>
        </extensions>
      </trkpt>
      <trkpt lat="45.33013676293194293975830078125" lon="-70.94805772416293621063232421875">
        <ele>841</ele>
        <time>2026-08-21T17:45:44.000Z</time>
        <extensions>
          <ns3:TrackPointExtension>
            <ns3:hr>119</ns3:hr>
            <ns3:cad>73</ns3:cad>
          </ns3:TrackPointExtension>
        </extensions>
      </trkpt>
      <trkpt lat="45.33014514483511447906494140625" lon="-70.9480762481689453125">
        <ele>841</ele>
        <time>2026-08-21T17:45:45.000Z</time>
        <extensions>
          <ns3:TrackPointExtension>
            <ns3:hr>119</ns3:hr>
            <ns3:cad>73</ns3:cad>
          </ns3:TrackPointExtension>
        </extensions>
      </trkpt>
      <trkpt lat="45.33015889115631580352783203125" lon="-70.94810449518263339996337890625">
        <ele>840.79998779296875</ele>
        <time>2026-08-21T17:45:46.000Z</time>
        <extensions>
          <ns3:TrackPointExtension>
            <ns3:hr>119</ns3:hr>
            <ns3:cad>73</ns3:cad>
          </ns3:TrackPointExtension>
        </extensions>
      </trkpt>
      <trkpt lat="45.3301720507442951202392578125" lon="-70.94812788069248199462890625">
        <ele>840.79998779296875</ele>
        <time>2026-08-21T17:45:47.000Z</time>
        <extensions>
          <ns3:TrackPointExtension>
            <ns3:hr>119</ns3:hr>
            <ns3:cad>74</ns3:cad>
          </ns3:TrackPointExtension>
        </extensions>
      </trkpt>
      <trkpt lat="45.33018906600773334503173828125" lon="-70.94813936389982700347900390625">
        <ele>840.79998779296875</ele>
        <time>2026-08-21T17:45:48.000Z</time>
        <extensions>
          <ns3:TrackPointExtension>
            <ns3:hr>119</ns3:hr>
            <ns3:cad>74</ns3:cad>
          </ns3:TrackPointExtension>
        </extensions>
      </trkpt>
      <trkpt lat="45.33021136187016963958740234375" lon="-70.948145650327205657958984375">
        <ele>840.5999755859375</ele>
        <time>2026-08-21T17:45:49.000Z</time>
        <extensions>
          <ns3:TrackPointExtension>
            <ns3:hr>119</ns3:hr>
            <ns3:cad>74</ns3:cad>
          </ns3:TrackPointExtension>
        </extensions>
      </trkpt>
      <trkpt lat="45.33022963441908359527587890625" lon="-70.94815176911652088165283203125">
        <ele>840.5999755859375</ele>
        <time>2026-08-21T17:45:50.000Z</time>
        <extensions>
          <ns3:TrackPointExtension>
            <ns3:hr>120</ns3:hr>
            <ns3:cad>74</ns3:cad>
          </ns3:TrackPointExtension>
        </extensions>
      </trkpt>
      <trkpt lat="45.33024673350155353546142578125" lon="-70.948160402476787567138671875">
        <ele>840.5999755859375</ele>
        <time>2026-08-21T17:45:51.000Z</time>
        <extensions>
          <ns3:TrackPointExtension>
            <ns3:hr>120</ns3:hr>
            <ns3:cad>74</ns3:cad>
          </ns3:TrackPointExtension>
        </extensions>
      </trkpt>
      <trkpt lat="45.3302655927836894989013671875" lon="-70.94817121513187885284423828125">
        <ele>840.5999755859375</ele>
        <time>2026-08-21T17:45:52.000Z</time>
        <extensions>
          <ns3:TrackPointExtension>
            <ns3:hr>121</ns3:hr>
            <ns3:cad>74</ns3:cad>
          </ns3:TrackPointExtension>
        </extensions>
      </trkpt>
      <trkpt lat="45.33028344623744487762451171875" lon="-70.9481739811599254608154296875">
        <ele>840.5999755859375</ele>
        <time>2026-08-21T17:45:53.000Z</time>
        <extensions>
          <ns3:TrackPointExtension>
            <ns3:hr>121</ns3:hr>
            <ns3:cad>74</ns3:cad>
          </ns3:TrackPointExtension>
        </extensions>
      </trkpt>
      <trkpt lat="45.33030129969120025634765625" lon="-70.94817859120666980743408203125">
        <ele>840.5999755859375</ele>
        <time>2026-08-21T17:45:54.000Z</time>
        <extensions>
          <ns3:TrackPointExtension>
            <ns3:hr>121</ns3:hr>
            <ns3:cad>74</ns3:cad>
          </ns3:TrackPointExtension>
        </extensions>
      </trkpt>
      <trkpt lat="45.33031336963176727294921875" lon="-70.94818479381501674652099609375">
        <ele>840.5999755859375</ele>
        <time>2026-08-21T17:45:55.000Z</time>
        <extensions>
          <ns3:TrackPointExtension>
            <ns3:hr>122</ns3:hr>
            <ns3:cad>74</ns3:cad>
          </ns3:TrackPointExtension>
        </extensions>
      </trkpt>
      <trkpt lat="45.33033072017133235931396484375" lon="-70.94819317571818828582763671875">
        <ele>840.5999755859375</ele>
        <time>2026-08-21T17:45:56.000Z</time>
        <extensions>
          <ns3:TrackPointExtension>
            <ns3:hr>122</ns3:hr>
            <ns3:cad>74</ns3:cad>
          </ns3:TrackPointExtension>
        </extensions>
      </trkpt>
      <trkpt lat="45.33034597523510456085205078125" lon="-70.94820071943104267120361328125">
        <ele>840.4000244140625</ele>
        <time>2026-08-21T17:45:57.000Z</time>
        <extensions>
          <ns3:TrackPointExtension>
            <ns3:hr>122</ns3:hr>
            <ns3:cad>74</ns3:cad>
          </ns3:TrackPointExtension>
        </extensions>
      </trkpt>
      <trkpt lat="45.330358631908893585205078125" lon="-70.9482081793248653411865234375">
        <ele>840.4000244140625</ele>
        <time>2026-08-21T17:45:58.000Z</time>
        <extensions>
          <ns3:TrackPointExtension>
            <ns3:hr>123</ns3:hr>
            <ns3:cad>74</ns3:cad>
          </ns3:TrackPointExtension>
        </extensions>
      </trkpt>
      <trkpt lat="45.33036977984011173248291015625" lon="-70.94821781851351261138916015625">
        <ele>840.4000244140625</ele>
        <time>2026-08-21T17:45:59.000Z</time>
        <extensions>
          <ns3:TrackPointExtension>
            <ns3:hr>123</ns3:hr>
            <ns3:cad>0</ns3:cad>
          </ns3:TrackPointExtension>
        </extensions>
      </trkpt>
      <trkpt lat="45.33038184978067874908447265625" lon="-70.94822385348379611968994140625">
        <ele>840.4000244140625</ele>
        <time>2026-08-21T17:46:00.000Z</time>
        <extensions>
          <ns3:TrackPointExtension>
            <ns3:hr>125</ns3:hr>
            <ns3:cad>0</ns3:cad>
          </ns3:TrackPointExtension>
        </extensions>
      </trkpt>
      <trkpt lat="45.330395512282848358154296875" lon="-70.9482313133776187896728515625">
        <ele>840.20001220703125</ele>
        <time>2026-08-21T17:46:01.000Z</time>
        <extensions>
          <ns3:TrackPointExtension>
            <ns3:hr>125</ns3:hr>
            <ns3:cad>0</ns3:cad>
          </ns3:TrackPointExtension>
        </extensions>
      </trkpt>
      <trkpt lat="45.330406911671161651611328125" lon="-70.94824061729013919830322265625">
        <ele>840.20001220703125</ele>
        <time>2026-08-21T17:46:02.000Z</time>
        <extensions>
          <ns3:TrackPointExtension>
            <ns3:hr>124</ns3:hr>
            <ns3:cad>0</ns3:cad>
          </ns3:TrackPointExtension>
        </extensions>
      </trkpt>
      <trkpt lat="45.33041990362107753753662109375" lon="-70.94824832864105701446533203125">
        <ele>840</ele>
        <time>2026-08-21T17:46:03.000Z</time>
        <extensions>
          <ns3:TrackPointExtension>
            <ns3:hr>123</ns3:hr>
            <ns3:cad>0</ns3:cad>
          </ns3:TrackPointExtension>
        </extensions>
      </trkpt>
      <trkpt lat="45.3304325602948665618896484375" lon="-70.9482572972774505615234375">
        <ele>840</ele>
        <time>2026-08-21T17:46:04.000Z</time>
        <extensions>
          <ns3:TrackPointExtension>
            <ns3:hr>123</ns3:hr>
            <ns3:cad>0</ns3:cad>
          </ns3:TrackPointExtension>
        </extensions>
      </trkpt>
      <trkpt lat="45.33044571988284587860107421875" lon="-70.94826601445674896240234375">
        <ele>840</ele>
        <time>2026-08-21T17:46:05.000Z</time>
        <extensions>
          <ns3:TrackPointExtension>
            <ns3:hr>122</ns3:hr>
            <ns3:cad>0</ns3:cad>
          </ns3:TrackPointExtension>
        </extensions>
      </trkpt>
      <trkpt lat="45.33046013675630092620849609375" lon="-70.9482745639979839324951171875">
        <ele>840</ele>
        <time>2026-08-21T17:46:06.000Z</time>
        <extensions>
          <ns3:TrackPointExtension>
            <ns3:hr>121</ns3:hr>
            <ns3:cad>0</ns3:cad>
          </ns3:TrackPointExtension>
        </extensions>
      </trkpt>
      <trkpt lat="45.330475978553295135498046875" lon="-70.948280431330204010009765625">
        <ele>840</ele>
        <time>2026-08-21T17:46:07.000Z</time>
        <extensions>
          <ns3:TrackPointExtension>
            <ns3:hr>121</ns3:hr>
            <ns3:cad>0</ns3:cad>
          </ns3:TrackPointExtension>
        </extensions>
      </trkpt>
      <trkpt lat="45.330493748188018798828125" lon="-70.9482876397669315338134765625">
        <ele>839.79998779296875</ele>
        <time>2026-08-21T17:46:08.000Z</time>
        <extensions>
          <ns3:TrackPointExtension>
            <ns3:hr>122</ns3:hr>
            <ns3:cad>0</ns3:cad>
          </ns3:TrackPointExtension>
        </extensions>
      </trkpt>
      <trkpt lat="45.33050724305212497711181640625" lon="-70.948292501270771026611328125">
        <ele>839.79998779296875</ele>
        <time>2026-08-21T17:46:09.000Z</time>
        <extensions>
          <ns3:TrackPointExtension>
            <ns3:hr>123</ns3:hr>
            <ns3:cad>0</ns3:cad>
          </ns3:TrackPointExtension>
        </extensions>
      </trkpt>
      <trkpt lat="45.33052266575396060943603515625" lon="-70.94829744659364223480224609375">
        <ele>839.79998779296875</ele>
        <time>2026-08-21T17:46:10.000Z</time>
        <extensions>
          <ns3:TrackPointExtension>
            <ns3:hr>123</ns3:hr>
            <ns3:cad>0</ns3:cad>
          </ns3:TrackPointExtension>
        </extensions>
      </trkpt>
      <trkpt lat="45.3305338136851787567138671875" lon="-70.9483013860881328582763671875">
        <ele>839.79998779296875</ele>
        <time>2026-08-21T17:46:11.000Z</time>
        <extensions>
          <ns3:TrackPointExtension>
            <ns3:hr>124</ns3:hr>
            <ns3:cad>56</ns3:cad>
          </ns3:TrackPointExtension>
        </extensions>
      </trkpt>
      <trkpt lat="45.3305448777973651885986328125" lon="-70.94831295311450958251953125">
        <ele>839.79998779296875</ele>
        <time>2026-08-21T17:46:12.000Z</time>
        <extensions>
          <ns3:TrackPointExtension>
            <ns3:hr>124</ns3:hr>
            <ns3:cad>56</ns3:cad>
          </ns3:TrackPointExtension>
        </extensions>
      </trkpt>
      <trkpt lat="45.33055552281439304351806640625" lon="-70.9483248554170131683349609375">
        <ele>839.79998779296875</ele>
        <time>2026-08-21T17:46:13.000Z</time>
        <extensions>
          <ns3:TrackPointExtension>
            <ns3:hr>123</ns3:hr>
            <ns3:cad>56</ns3:cad>
          </ns3:TrackPointExtension>
        </extensions>
      </trkpt>
      <trkpt lat="45.3305629827082157135009765625" lon="-70.94833700917661190032958984375">
        <ele>839.79998779296875</ele>
        <time>2026-08-21T17:46:14.000Z</time>
        <extensions>
          <ns3:TrackPointExtension>
            <ns3:hr>123</ns3:hr>
            <ns3:cad>56</ns3:cad>
          </ns3:TrackPointExtension>
        </extensions>
      </trkpt>
      <trkpt lat="45.3305755555629730224609375" lon="-70.9483489952981472015380859375">
        <ele>839.79998779296875</ele>
        <time>2026-08-21T17:46:15.000Z</time>
        <extensions>
          <ns3:TrackPointExtension>
            <ns3:hr>123</ns3:hr>
            <ns3:cad>56</ns3:cad>
          </ns3:TrackPointExtension>
        </extensions>
      </trkpt>
      <trkpt lat="45.33058955334126949310302734375" lon="-70.9483583830296993255615234375">
        <ele>839.79998779296875</ele>
        <time>2026-08-21T17:46:16.000Z</time>
        <extensions>
          <ns3:TrackPointExtension>
            <ns3:hr>123</ns3:hr>
            <ns3:cad>56</ns3:cad>
          </ns3:TrackPointExtension>
        </extensions>
      </trkpt>
      <trkpt lat="45.33060162328183650970458984375" lon="-70.94836525619029998779296875">
        <ele>839.79998779296875</ele>
        <time>2026-08-21T17:46:17.000Z</time>
        <extensions>
          <ns3:TrackPointExtension>
            <ns3:hr>124</ns3:hr>
            <ns3:cad>56</ns3:cad>
          </ns3:TrackPointExtension>
        </extensions>
      </trkpt>
      <trkpt lat="45.33061511814594268798828125" lon="-70.94836953096091747283935546875">
        <ele>839.79998779296875</ele>
        <time>2026-08-21T17:46:18.000Z</time>
        <extensions>
          <ns3:TrackPointExtension>
            <ns3:hr>123</ns3:hr>
            <ns3:cad>56</ns3:cad>
          </ns3:TrackPointExtension>
        </extensions>
      </trkpt>
      <trkpt lat="45.3306307084858417510986328125" lon="-70.94837464392185211181640625">
        <ele>839.5999755859375</ele>
        <time>2026-08-21T17:46:19.000Z</time>
        <extensions>
          <ns3:TrackPointExtension>
            <ns3:hr>123</ns3:hr>
            <ns3:cad>56</ns3:cad>
          </ns3:TrackPointExtension>
        </extensions>
      </trkpt>
      <trkpt lat="45.33064386807382106781005859375" lon="-70.9483828581869602203369140625">
        <ele>839.5999755859375</ele>
        <time>2026-08-21T17:46:20.000Z</time>
        <extensions>
          <ns3:TrackPointExtension>
            <ns3:hr>123</ns3:hr>
            <ns3:cad>56</ns3:cad>
          </ns3:TrackPointExtension>
        </extensions>
      </trkpt>
      <trkpt lat="45.3306555189192295074462890625" lon="-70.94839165918529033660888671875">
        <ele>839.5999755859375</ele>
        <time>2026-08-21T17:46:21.000Z</time>
        <extensions>
          <ns3:TrackPointExtension>
            <ns3:hr>123</ns3:hr>
            <ns3:cad>56</ns3:cad>
          </ns3:TrackPointExtension>
        </extensions>
      </trkpt>
      <trkpt lat="45.33066297881305217742919921875" lon="-70.94840146601200103759765625">
        <ele>839.5999755859375</ele>
        <time>2026-08-21T17:46:22.000Z</time>
        <extensions>
          <ns3:TrackPointExtension>
            <ns3:hr>122</ns3:hr>
            <ns3:cad>56</ns3:cad>
          </ns3:TrackPointExtension>
        </extensions>
      </trkpt>
      <trkpt lat="45.3306734561920166015625" lon="-70.9484113566577434539794921875">
        <ele>839.5999755859375</ele>
        <time>2026-08-21T17:46:23.000Z</time>
        <extensions>
          <ns3:TrackPointExtension>
            <ns3:hr>122</ns3:hr>
            <ns3:cad>56</ns3:cad>
          </ns3:TrackPointExtension>
        </extensions>
      </trkpt>
      <trkpt lat="45.33068661577999591827392578125" lon="-70.94842267222702503204345703125">
        <ele>839.4000244140625</ele>
        <time>2026-08-21T17:46:24.000Z</time>
        <extensions>
          <ns3:TrackPointExtension>
            <ns3:hr>122</ns3:hr>
            <ns3:cad>54</ns3:cad>
          </ns3:TrackPointExtension>
        </extensions>
      </trkpt>
      <trkpt lat="45.33070120029151439666748046875" lon="-70.94842954538762569427490234375">
        <ele>839.4000244140625</ele>
        <time>2026-08-21T17:46:25.000Z</time>
        <extensions>
          <ns3:TrackPointExtension>
            <ns3:hr>122</ns3:hr>
            <ns3:cad>54</ns3:cad>
          </ns3:TrackPointExtension>
        </extensions>
      </trkpt>
      <trkpt lat="45.330714024603366851806640625" lon="-70.9484297968447208404541015625">
        <ele>839.4000244140625</ele>
        <time>2026-08-21T17:46:26.000Z</time>
        <extensions>
          <ns3:TrackPointExtension>
            <ns3:hr>123</ns3:hr>
            <ns3:cad>57</ns3:cad>
          </ns3:TrackPointExtension>
        </extensions>
      </trkpt>
      <trkpt lat="45.33072802238166332244873046875" lon="-70.9484354965388774871826171875">
        <ele>839.4000244140625</ele>
        <time>2026-08-21T17:46:27.000Z</time>
        <extensions>
          <ns3:TrackPointExtension>
            <ns3:hr>122</ns3:hr>
            <ns3:cad>57</ns3:cad>
          </ns3:TrackPointExtension>
        </extensions>
      </trkpt>
      <trkpt lat="45.33074361272156238555908203125" lon="-70.94844312407076358795166015625">
        <ele>839.4000244140625</ele>
        <time>2026-08-21T17:46:28.000Z</time>
        <extensions>
          <ns3:TrackPointExtension>
            <ns3:hr>122</ns3:hr>
            <ns3:cad>58</ns3:cad>
          </ns3:TrackPointExtension>
        </extensions>
      </trkpt>
      <trkpt lat="45.3307567723095417022705078125" lon="-70.948454439640045166015625">
        <ele>839.20001220703125</ele>
        <time>2026-08-21T17:46:29.000Z</time>
        <extensions>
          <ns3:TrackPointExtension>
            <ns3:hr>122</ns3:hr>
            <ns3:cad>58</ns3:cad>
          </ns3:TrackPointExtension>
        </extensions>
      </trkpt>
      <trkpt lat="45.3307681716978549957275390625" lon="-70.94846441410481929779052734375">
        <ele>839.20001220703125</ele>
        <time>2026-08-21T17:46:30.000Z</time>
        <extensions>
          <ns3:TrackPointExtension>
            <ns3:hr>122</ns3:hr>
            <ns3:cad>58</ns3:cad>
          </ns3:TrackPointExtension>
        </extensions>
      </trkpt>
      <trkpt lat="45.330781079828739166259765625" lon="-70.94847447238862514495849609375">
        <ele>839.20001220703125</ele>
        <time>2026-08-21T17:46:31.000Z</time>
        <extensions>
          <ns3:TrackPointExtension>
            <ns3:hr>122</ns3:hr>
            <ns3:cad>58</ns3:cad>
          </ns3:TrackPointExtension>
        </extensions>
      </trkpt>
      <trkpt lat="45.3307939879596233367919921875" lon="-70.94848587177693843841552734375">
        <ele>839.20001220703125</ele>
        <time>2026-08-21T17:46:32.000Z</time>
        <extensions>
          <ns3:TrackPointExtension>
            <ns3:hr>122</ns3:hr>
            <ns3:cad>58</ns3:cad>
          </ns3:TrackPointExtension>
        </extensions>
      </trkpt>
      <trkpt lat="45.3308010287582874298095703125" lon="-70.9485018812119960784912109375">
        <ele>839.20001220703125</ele>
        <time>2026-08-21T17:46:33.000Z</time>
        <extensions>
          <ns3:TrackPointExtension>
            <ns3:hr>122</ns3:hr>
            <ns3:cad>58</ns3:cad>
          </ns3:TrackPointExtension>
        </extensions>
      </trkpt>
      <trkpt lat="45.33081083558499813079833984375" lon="-70.94851923175156116485595703125">
        <ele>839.20001220703125</ele>
        <time>2026-08-21T17:46:34.000Z</time>
        <extensions>
          <ns3:TrackPointExtension>
            <ns3:hr>122</ns3:hr>
            <ns3:cad>58</ns3:cad>
          </ns3:TrackPointExtension>
        </extensions>
      </trkpt>
      <trkpt lat="45.330820642411708831787109375" lon="-70.94853364862501621246337890625">
        <ele>839.20001220703125</ele>
        <time>2026-08-21T17:46:35.000Z</time>
        <extensions>
          <ns3:TrackPointExtension>
            <ns3:hr>122</ns3:hr>
            <ns3:cad>58</ns3:cad>
          </ns3:TrackPointExtension>
        </extensions>
      </trkpt>
      <trkpt lat="45.33083078451454639434814453125" lon="-70.9485498256981372833251953125">
        <ele>839.20001220703125</ele>
        <time>2026-08-21T17:46:36.000Z</time>
        <extensions>
          <ns3:TrackPointExtension>
            <ns3:hr>122</ns3:hr>
            <ns3:cad>58</ns3:cad>
          </ns3:TrackPointExtension>
        </extensions>
      </trkpt>
      <trkpt lat="45.3308389149606227874755859375" lon="-70.9485675953328609466552734375">
        <ele>839.20001220703125</ele>
        <time>2026-08-21T17:46:37.000Z</time>
        <extensions>
          <ns3:TrackPointExtension>
            <ns3:hr>122</ns3:hr>
            <ns3:cad>58</ns3:cad>
          </ns3:TrackPointExtension>
        </extensions>
      </trkpt>
      <trkpt lat="45.33084352500736713409423828125" lon="-70.94859215430915355682373046875">
        <ele>839.20001220703125</ele>
        <time>2026-08-21T17:46:38.000Z</time>
        <extensions>
          <ns3:TrackPointExtension>
            <ns3:hr>122</ns3:hr>
            <ns3:cad>58</ns3:cad>
          </ns3:TrackPointExtension>
        </extensions>
      </trkpt>
      <trkpt lat="45.33085240982472896575927734375" lon="-70.94861109741032123565673828125">
        <ele>839</ele>
        <time>2026-08-21T17:46:39.000Z</time>
        <extensions>
          <ns3:TrackPointExtension>
            <ns3:hr>122</ns3:hr>
            <ns3:cad>58</ns3:cad>
          </ns3:TrackPointExtension>
        </extensions>
      </trkpt>
      <trkpt lat="45.3308617137372493743896484375" lon="-70.9486279450356960296630859375">
        <ele>839</ele>
        <time>2026-08-21T17:46:40.000Z</time>
        <extensions>
          <ns3:TrackPointExtension>
            <ns3:hr>122</ns3:hr>
            <ns3:cad>70</ns3:cad>
          </ns3:TrackPointExtension>
        </extensions>
      </trkpt>
      <trkpt lat="45.33087193965911865234375" lon="-70.94864998944103717803955078125">
        <ele>839</ele>
        <time>2026-08-21T17:46:41.000Z</time>
        <extensions>
          <ns3:TrackPointExtension>
            <ns3:hr>122</ns3:hr>
            <ns3:cad>71</ns3:cad>
          </ns3:TrackPointExtension>
        </extensions>
      </trkpt>
      <trkpt lat="45.3308818303048610687255859375" lon="-70.94867530278861522674560546875">
        <ele>839</ele>
        <time>2026-08-21T17:46:42.000Z</time>
        <extensions>
          <ns3:TrackPointExtension>
            <ns3:hr>122</ns3:hr>
            <ns3:cad>71</ns3:cad>
          </ns3:TrackPointExtension>
        </extensions>
      </trkpt>
      <trkpt lat="45.33089281059801578521728515625" lon="-70.9486980177462100982666015625">
        <ele>839</ele>
        <time>2026-08-21T17:46:43.000Z</time>
        <extensions>
          <ns3:TrackPointExtension>
            <ns3:hr>122</ns3:hr>
            <ns3:cad>71</ns3:cad>
          </ns3:TrackPointExtension>
        </extensions>
      </trkpt>
      <trkpt lat="45.33090077340602874755859375" lon="-70.94871318899095058441162109375">
        <ele>839</ele>
        <time>2026-08-21T17:46:44.000Z</time>
        <extensions>
          <ns3:TrackPointExtension>
            <ns3:hr>122</ns3:hr>
            <ns3:cad>71</ns3:cad>
          </ns3:TrackPointExtension>
        </extensions>
      </trkpt>
      <trkpt lat="45.330908484756946563720703125" lon="-70.94873196445405483245849609375">
        <ele>839</ele>
        <time>2026-08-21T17:46:45.000Z</time>
        <extensions>
          <ns3:TrackPointExtension>
            <ns3:hr>123</ns3:hr>
            <ns3:cad>74</ns3:cad>
          </ns3:TrackPointExtension>
        </extensions>
      </trkpt>
      <trkpt lat="45.33091141842305660247802734375" lon="-70.94875627197325229644775390625">
        <ele>839.20001220703125</ele>
        <time>2026-08-21T17:46:46.000Z</time>
        <extensions>
          <ns3:TrackPointExtension>
            <ns3:hr>124</ns3:hr>
            <ns3:cad>75</ns3:cad>
          </ns3:TrackPointExtension>
        </extensions>
      </trkpt>
      <trkpt lat="45.3309173695743083953857421875" lon="-70.948779992759227752685546875">
        <ele>839</ele>
        <time>2026-08-21T17:46:47.000Z</time>
        <extensions>
          <ns3:TrackPointExtension>
            <ns3:hr>124</ns3:hr>
            <ns3:cad>75</ns3:cad>
          </ns3:TrackPointExtension>
        </extensions>
      </trkpt>
      <trkpt lat="45.33092533238232135772705078125" lon="-70.94880421645939350128173828125">
        <ele>839</ele>
        <time>2026-08-21T17:46:48.000Z</time>
        <extensions>
          <ns3:TrackPointExtension>
            <ns3:hr>124</ns3:hr>
            <ns3:cad>75</ns3:cad>
          </ns3:TrackPointExtension>
        </extensions>
      </trkpt>
      <trkpt lat="45.330935977399349212646484375" lon="-70.948824584484100341796875">
        <ele>839</ele>
        <time>2026-08-21T17:46:49.000Z</time>
        <extensions>
          <ns3:TrackPointExtension>
            <ns3:hr>124</ns3:hr>
            <ns3:cad>75</ns3:cad>
          </ns3:TrackPointExtension>
        </extensions>
      </trkpt>
      <trkpt lat="45.3309492208063602447509765625" lon="-70.9488492272794246673583984375">
        <ele>839</ele>
        <time>2026-08-21T17:46:50.000Z</time>
        <extensions>
          <ns3:TrackPointExtension>
            <ns3:hr>125</ns3:hr>
            <ns3:cad>77</ns3:cad>
          </ns3:TrackPointExtension>
        </extensions>
      </trkpt>
      <trkpt lat="45.3309612907469272613525390625" lon="-70.948872528970241546630859375">
        <ele>839</ele>
        <time>2026-08-21T17:46:51.000Z</time>
        <extensions>
          <ns3:TrackPointExtension>
            <ns3:hr>125</ns3:hr>
            <ns3:cad>77</ns3:cad>
          </ns3:TrackPointExtension>
        </extensions>
      </trkpt>
      <trkpt lat="45.33097176812589168548583984375" lon="-70.94889189116656780242919921875">
        <ele>839</ele>
        <time>2026-08-21T17:46:52.000Z</time>
        <extensions>
          <ns3:TrackPointExtension>
            <ns3:hr>125</ns3:hr>
            <ns3:cad>77</ns3:cad>
          </ns3:TrackPointExtension>
        </extensions>
      </trkpt>
      <trkpt lat="45.3309800662100315093994140625" lon="-70.948918797075748443603515625">
        <ele>838.79998779296875</ele>
        <time>2026-08-21T17:46:53.000Z</time>
        <extensions>
          <ns3:TrackPointExtension>
            <ns3:hr>126</ns3:hr>
            <ns3:cad>76</ns3:cad>
          </ns3:TrackPointExtension>
        </extensions>
      </trkpt>
      <trkpt lat="45.3309864364564418792724609375" lon="-70.94894067384302616119384765625">
        <ele>838.79998779296875</ele>
        <time>2026-08-21T17:46:54.000Z</time>
        <extensions>
          <ns3:TrackPointExtension>
            <ns3:hr>126</ns3:hr>
            <ns3:cad>76</ns3:cad>
          </ns3:TrackPointExtension>
        </extensions>
      </trkpt>
      <trkpt lat="45.330994985997676849365234375" lon="-70.9489675797522068023681640625">
        <ele>838.79998779296875</ele>
        <time>2026-08-21T17:46:55.000Z</time>
        <extensions>
          <ns3:TrackPointExtension>
            <ns3:hr>127</ns3:hr>
            <ns3:cad>76</ns3:cad>
          </ns3:TrackPointExtension>
        </extensions>
      </trkpt>
      <trkpt lat="45.33100269734859466552734375" lon="-70.9489917196333408355712890625">
        <ele>839</ele>
        <time>2026-08-21T17:46:56.000Z</time>
        <extensions>
          <ns3:TrackPointExtension>
            <ns3:hr>127</ns3:hr>
            <ns3:cad>76</ns3:cad>
          </ns3:TrackPointExtension>
        </extensions>
      </trkpt>
      <trkpt lat="45.33100915141403675079345703125" lon="-70.94901326112449169158935546875">
        <ele>839</ele>
        <time>2026-08-21T17:46:57.000Z</time>
        <extensions>
          <ns3:TrackPointExtension>
            <ns3:hr>127</ns3:hr>
            <ns3:cad>76</ns3:cad>
          </ns3:TrackPointExtension>
        </extensions>
      </trkpt>
      <trkpt lat="45.33101652748882770538330078125" lon="-70.94903714954853057861328125">
        <ele>839</ele>
        <time>2026-08-21T17:46:58.000Z</time>
        <extensions>
          <ns3:TrackPointExtension>
            <ns3:hr>127</ns3:hr>
            <ns3:cad>76</ns3:cad>
          </ns3:TrackPointExtension>
        </extensions>
      </trkpt>
      <trkpt lat="45.33102859742939472198486328125" lon="-70.9490631334483623504638671875">
        <ele>839</ele>
        <time>2026-08-21T17:46:59.000Z</time>
        <extensions>
          <ns3:TrackPointExtension>
            <ns3:hr>128</ns3:hr>
            <ns3:cad>76</ns3:cad>
          </ns3:TrackPointExtension>
        </extensions>
      </trkpt>
      <trkpt lat="45.3310404159128665924072265625" lon="-70.949077717959880828857421875">
        <ele>839</ele>
        <time>2026-08-21T17:47:00.000Z</time>
        <extensions>
          <ns3:TrackPointExtension>
            <ns3:hr>128</ns3:hr>
            <ns3:cad>76</ns3:cad>
          </ns3:TrackPointExtension>
        </extensions>
      </trkpt>
      <trkpt lat="45.3310501389205455780029296875" lon="-70.9490912966430187225341796875">
        <ele>839</ele>
        <time>2026-08-21T17:47:01.000Z</time>
        <extensions>
          <ns3:TrackPointExtension>
            <ns3:hr>128</ns3:hr>
            <ns3:cad>76</ns3:cad>
          </ns3:TrackPointExtension>
        </extensions>
      </trkpt>
      <trkpt lat="45.33106313087046146392822265625" lon="-70.9491067193448543548583984375">
        <ele>839</ele>
        <time>2026-08-21T17:47:02.000Z</time>
        <extensions>
          <ns3:TrackPointExtension>
            <ns3:hr>128</ns3:hr>
            <ns3:cad>76</ns3:cad>
          </ns3:TrackPointExtension>
        </extensions>
      </trkpt>
      <trkpt lat="45.33107335679233074188232421875" lon="-70.94912163913249969482421875">
        <ele>839</ele>
        <time>2026-08-21T17:47:03.000Z</time>
        <extensions>
          <ns3:TrackPointExtension>
            <ns3:hr>129</ns3:hr>
            <ns3:cad>76</ns3:cad>
          </ns3:TrackPointExtension>
        </extensions>
      </trkpt>
      <trkpt lat="45.33108408562839031219482421875" lon="-70.949139408767223358154296875">
        <ele>839</ele>
        <time>2026-08-21T17:47:04.000Z</time>
        <extensions>
          <ns3:TrackPointExtension>
            <ns3:hr>128</ns3:hr>
            <ns3:cad>76</ns3:cad>
          </ns3:TrackPointExtension>
        </extensions>
      </trkpt>
      <trkpt lat="45.3310923837125301361083984375" lon="-70.949154831469058990478515625">
        <ele>838.79998779296875</ele>
        <time>2026-08-21T17:47:05.000Z</time>
        <extensions>
          <ns3:TrackPointExtension>
            <ns3:hr>129</ns3:hr>
            <ns3:cad>59</ns3:cad>
          </ns3:TrackPointExtension>
        </extensions>
      </trkpt>
      <trkpt lat="45.33109883777797222137451171875" lon="-70.9491734392940998077392578125">
        <ele>838.79998779296875</ele>
        <time>2026-08-21T17:47:06.000Z</time>
        <extensions>
          <ns3:TrackPointExtension>
            <ns3:hr>129</ns3:hr>
            <ns3:cad>59</ns3:cad>
          </ns3:TrackPointExtension>
        </extensions>
      </trkpt>
      <trkpt lat="45.33110571093857288360595703125" lon="-70.9491918794810771942138671875">
        <ele>838.79998779296875</ele>
        <time>2026-08-21T17:47:07.000Z</time>
        <extensions>
          <ns3:TrackPointExtension>
            <ns3:hr>129</ns3:hr>
            <ns3:cad>59</ns3:cad>
          </ns3:TrackPointExtension>
        </extensions>
      </trkpt>
      <trkpt lat="45.331113338470458984375" lon="-70.94921224750578403472900390625">
        <ele>838.79998779296875</ele>
        <time>2026-08-21T17:47:08.000Z</time>
        <extensions>
          <ns3:TrackPointExtension>
            <ns3:hr>129</ns3:hr>
            <ns3:cad>59</ns3:cad>
          </ns3:TrackPointExtension>
        </extensions>
      </trkpt>
      <trkpt lat="45.331120379269123077392578125" lon="-70.949231274425983428955078125">
        <ele>838.79998779296875</ele>
        <time>2026-08-21T17:47:09.000Z</time>
        <extensions>
          <ns3:TrackPointExtension>
            <ns3:hr>128</ns3:hr>
            <ns3:cad>59</ns3:cad>
          </ns3:TrackPointExtension>
        </extensions>
      </trkpt>
      <trkpt lat="45.3311292640864849090576171875" lon="-70.94925063662230968475341796875">
        <ele>838.5999755859375</ele>
        <time>2026-08-21T17:47:10.000Z</time>
        <extensions>
          <ns3:TrackPointExtension>
            <ns3:hr>129</ns3:hr>
            <ns3:cad>55</ns3:cad>
          </ns3:TrackPointExtension>
        </extensions>
      </trkpt>
      <trkpt lat="45.33113856799900531768798828125" lon="-70.9492684900760650634765625">
        <ele>838.79998779296875</ele>
        <time>2026-08-21T17:47:11.000Z</time>
        <extensions>
          <ns3:TrackPointExtension>
            <ns3:hr>129</ns3:hr>
            <ns3:cad>55</ns3:cad>
          </ns3:TrackPointExtension>
        </extensions>
      </trkpt>
      <trkpt lat="45.33114862628281116485595703125" lon="-70.94928902573883533477783203125">
        <ele>838.79998779296875</ele>
        <time>2026-08-21T17:47:12.000Z</time>
        <extensions>
          <ns3:TrackPointExtension>
            <ns3:hr>128</ns3:hr>
            <ns3:cad>0</ns3:cad>
          </ns3:TrackPointExtension>
        </extensions>
      </trkpt>
      <trkpt lat="45.33115667290985584259033203125" lon="-70.9493055380880832672119140625">
        <ele>838.79998779296875</ele>
        <time>2026-08-21T17:47:13.000Z</time>
        <extensions>
          <ns3:TrackPointExtension>
            <ns3:hr>128</ns3:hr>
            <ns3:cad>0</ns3:cad>
          </ns3:TrackPointExtension>
        </extensions>
      </trkpt>
      <trkpt lat="45.33116287551820278167724609375" lon="-70.94932079315185546875">
        <ele>838.79998779296875</ele>
        <time>2026-08-21T17:47:14.000Z</time>
        <extensions>
          <ns3:TrackPointExtension>
            <ns3:hr>128</ns3:hr>
            <ns3:cad>0</ns3:cad>
          </ns3:TrackPointExtension>
        </extensions>
      </trkpt>
      <trkpt lat="45.33116773702204227447509765625" lon="-70.9493400715291500091552734375">
        <ele>838.79998779296875</ele>
        <time>2026-08-21T17:47:15.000Z</time>
        <extensions>
          <ns3:TrackPointExtension>
            <ns3:hr>128</ns3:hr>
            <ns3:cad>0</ns3:cad>
          </ns3:TrackPointExtension>
        </extensions>
      </trkpt>
      <trkpt lat="45.3311763703823089599609375" lon="-70.94935960136353969573974609375">
        <ele>838.79998779296875</ele>
        <time>2026-08-21T17:47:16.000Z</time>
        <extensions>
          <ns3:TrackPointExtension>
            <ns3:hr>129</ns3:hr>
            <ns3:cad>0</ns3:cad>
          </ns3:TrackPointExtension>
        </extensions>
      </trkpt>
      <trkpt lat="45.33118668012320995330810546875" lon="-70.94937779009342193603515625">
        <ele>838.79998779296875</ele>
        <time>2026-08-21T17:47:17.000Z</time>
        <extensions>
          <ns3:TrackPointExtension>
            <ns3:hr>129</ns3:hr>
            <ns3:cad>0</ns3:cad>
          </ns3:TrackPointExtension>
        </extensions>
      </trkpt>
      <trkpt lat="45.33119707368314266204833984375" lon="-70.9493927098810672760009765625">
        <ele>838.79998779296875</ele>
        <time>2026-08-21T17:47:18.000Z</time>
        <extensions>
          <ns3:TrackPointExtension>
            <ns3:hr>129</ns3:hr>
            <ns3:cad>0</ns3:cad>
          </ns3:TrackPointExtension>
        </extensions>
      </trkpt>
      <trkpt lat="45.3312100656330585479736328125" lon="-70.9494084678590297698974609375">
        <ele>838.79998779296875</ele>
        <time>2026-08-21T17:47:19.000Z</time>
        <extensions>
          <ns3:TrackPointExtension>
            <ns3:hr>129</ns3:hr>
            <ns3:cad>55</ns3:cad>
          </ns3:TrackPointExtension>
        </extensions>
      </trkpt>
      <trkpt lat="45.331224985420703887939453125" lon="-70.9494248963892459869384765625">
        <ele>838.79998779296875</ele>
        <time>2026-08-21T17:47:20.000Z</time>
        <extensions>
          <ns3:TrackPointExtension>
            <ns3:hr>129</ns3:hr>
            <ns3:cad>55</ns3:cad>
          </ns3:TrackPointExtension>
        </extensions>
      </trkpt>
      <trkpt lat="45.331242084503173828125" lon="-70.9494362957775592803955078125">
        <ele>838.79998779296875</ele>
        <time>2026-08-21T17:47:21.000Z</time>
        <extensions>
          <ns3:TrackPointExtension>
            <ns3:hr>128</ns3:hr>
            <ns3:cad>55</ns3:cad>
          </ns3:TrackPointExtension>
        </extensions>
      </trkpt>
      <trkpt lat="45.33126228488981723785400390625" lon="-70.94944777898490428924560546875">
        <ele>838.79998779296875</ele>
        <time>2026-08-21T17:47:22.000Z</time>
        <extensions>
          <ns3:TrackPointExtension>
            <ns3:hr>128</ns3:hr>
            <ns3:cad>0</ns3:cad>
          </ns3:TrackPointExtension>
        </extensions>
      </trkpt>
      <trkpt lat="45.33128323964774608612060546875" lon="-70.9494562447071075439453125">
        <ele>838.79998779296875</ele>
        <time>2026-08-21T17:47:23.000Z</time>
        <extensions>
          <ns3:TrackPointExtension>
            <ns3:hr>128</ns3:hr>
            <ns3:cad>0</ns3:cad>
          </ns3:TrackPointExtension>
        </extensions>
      </trkpt>
      <trkpt lat="45.331302769482135772705078125" lon="-70.94946018420159816741943359375">
        <ele>838.5999755859375</ele>
        <time>2026-08-21T17:47:24.000Z</time>
        <extensions>
          <ns3:TrackPointExtension>
            <ns3:hr>128</ns3:hr>
            <ns3:cad>0</ns3:cad>
          </ns3:TrackPointExtension>
        </extensions>
      </trkpt>
      <trkpt lat="45.331318192183971405029296875" lon="-70.949459932744503021240234375">
        <ele>838.5999755859375</ele>
        <time>2026-08-21T17:47:25.000Z</time>
        <extensions>
          <ns3:TrackPointExtension>
            <ns3:hr>128</ns3:hr>
            <ns3:cad>0</ns3:cad>
          </ns3:TrackPointExtension>
        </extensions>
      </trkpt>
      <trkpt lat="45.331333614885807037353515625" lon="-70.9494587592780590057373046875">
        <ele>838.5999755859375</ele>
        <time>2026-08-21T17:47:26.000Z</time>
        <extensions>
          <ns3:TrackPointExtension>
            <ns3:hr>129</ns3:hr>
            <ns3:cad>0</ns3:cad>
          </ns3:TrackPointExtension>
        </extensions>
      </trkpt>
      <trkpt lat="45.331348367035388946533203125" lon="-70.9494557417929172515869140625">
        <ele>838.5999755859375</ele>
        <time>2026-08-21T17:47:27.000Z</time>
        <extensions>
          <ns3:TrackPointExtension>
            <ns3:hr>128</ns3:hr>
            <ns3:cad>55</ns3:cad>
          </ns3:TrackPointExtension>
        </extensions>
      </trkpt>
      <trkpt lat="45.33136253245174884796142578125" lon="-70.94945062883198261260986328125">
        <ele>838.5999755859375</ele>
        <time>2026-08-21T17:47:28.000Z</time>
        <extensions>
          <ns3:TrackPointExtension>
            <ns3:hr>127</ns3:hr>
            <ns3:cad>55</ns3:cad>
          </ns3:TrackPointExtension>
        </extensions>
      </trkpt>
      <trkpt lat="45.33137544058263301849365234375" lon="-70.9494500420987606048583984375">
        <ele>838.5999755859375</ele>
        <time>2026-08-21T17:47:29.000Z</time>
        <extensions>
          <ns3:TrackPointExtension>
            <ns3:hr>127</ns3:hr>
            <ns3:cad>56</ns3:cad>
          </ns3:TrackPointExtension>
        </extensions>
      </trkpt>
      <trkpt lat="45.33138901926577091217041015625" lon="-70.94944526441395282745361328125">
        <ele>838.5999755859375</ele>
        <time>2026-08-21T17:47:30.000Z</time>
        <extensions>
          <ns3:TrackPointExtension>
            <ns3:hr>127</ns3:hr>
            <ns3:cad>56</ns3:cad>
          </ns3:TrackPointExtension>
        </extensions>
      </trkpt>
      <trkpt lat="45.33140410669147968292236328125" lon="-70.94943721778690814971923828125">
        <ele>838.4000244140625</ele>
        <time>2026-08-21T17:47:31.000Z</time>
        <extensions>
          <ns3:TrackPointExtension>
            <ns3:hr>126</ns3:hr>
            <ns3:cad>56</ns3:cad>
          </ns3:TrackPointExtension>
        </extensions>
      </trkpt>
      <trkpt lat="45.33142087049782276153564453125" lon="-70.94942472875118255615234375">
        <ele>838.4000244140625</ele>
        <time>2026-08-21T17:47:32.000Z</time>
        <extensions>
          <ns3:TrackPointExtension>
            <ns3:hr>126</ns3:hr>
            <ns3:cad>54</ns3:cad>
          </ns3:TrackPointExtension>
        </extensions>
      </trkpt>
      <trkpt lat="45.3314365446567535400390625" lon="-70.9494138322770595550537109375">
        <ele>838.4000244140625</ele>
        <time>2026-08-21T17:47:33.000Z</time>
        <extensions>
          <ns3:TrackPointExtension>
            <ns3:hr>126</ns3:hr>
            <ns3:cad>54</ns3:cad>
          </ns3:TrackPointExtension>
        </extensions>
      </trkpt>
      <trkpt lat="45.331453643739223480224609375" lon="-70.94940586946904659271240234375">
        <ele>838.4000244140625</ele>
        <time>2026-08-21T17:47:34.000Z</time>
        <extensions>
          <ns3:TrackPointExtension>
            <ns3:hr>126</ns3:hr>
            <ns3:cad>54</ns3:cad>
          </ns3:TrackPointExtension>
        </extensions>
      </trkpt>
      <trkpt lat="45.33147183246910572052001953125" lon="-70.9493970684707164764404296875">
        <ele>838.4000244140625</ele>
        <time>2026-08-21T17:47:35.000Z</time>
        <extensions>
          <ns3:TrackPointExtension>
            <ns3:hr>126</ns3:hr>
            <ns3:cad>59</ns3:cad>
          </ns3:TrackPointExtension>
        </extensions>
      </trkpt>
      <trkpt lat="45.33148842863738536834716796875" lon="-70.94938558526337146759033203125">
        <ele>838.4000244140625</ele>
        <time>2026-08-21T17:47:36.000Z</time>
        <extensions>
          <ns3:TrackPointExtension>
            <ns3:hr>126</ns3:hr>
            <ns3:cad>59</ns3:cad>
          </ns3:TrackPointExtension>
        </extensions>
      </trkpt>
      <trkpt lat="45.33149898983538150787353515625" lon="-70.94937452115118503570556640625">
        <ele>838.4000244140625</ele>
        <time>2026-08-21T17:47:37.000Z</time>
        <extensions>
          <ns3:TrackPointExtension>
            <ns3:hr>126</ns3:hr>
            <ns3:cad>59</ns3:cad>
          </ns3:TrackPointExtension>
        </extensions>
      </trkpt>
      <trkpt lat="45.3315181843936443328857421875" lon="-70.949357338249683380126953125">
        <ele>838.4000244140625</ele>
        <time>2026-08-21T17:47:38.000Z</time>
        <extensions>
          <ns3:TrackPointExtension>
            <ns3:hr>126</ns3:hr>
            <ns3:cad>59</ns3:cad>
          </ns3:TrackPointExtension>
        </extensions>
      </trkpt>
      <trkpt lat="45.3315352834761142730712890625" lon="-70.9493347071111202239990234375">
        <ele>838.4000244140625</ele>
        <time>2026-08-21T17:47:39.000Z</time>
        <extensions>
          <ns3:TrackPointExtension>
            <ns3:hr>126</ns3:hr>
            <ns3:cad>0</ns3:cad>
          </ns3:TrackPointExtension>
        </extensions>
      </trkpt>
      <trkpt lat="45.331550203263759613037109375" lon="-70.9493194520473480224609375">
        <ele>838.4000244140625</ele>
        <time>2026-08-21T17:47:40.000Z</time>
        <extensions>
          <ns3:TrackPointExtension>
            <ns3:hr>125</ns3:hr>
            <ns3:cad>0</ns3:cad>
          </ns3:TrackPointExtension>
        </extensions>
      </trkpt>
      <trkpt lat="45.33156621269881725311279296875" lon="-70.94930713064968585968017578125">
        <ele>838.4000244140625</ele>
        <time>2026-08-21T17:47:41.000Z</time>
        <extensions>
          <ns3:TrackPointExtension>
            <ns3:hr>126</ns3:hr>
            <ns3:cad>75</ns3:cad>
          </ns3:TrackPointExtension>
        </extensions>
      </trkpt>
      <trkpt lat="45.33158448524773120880126953125" lon="-70.94929422251880168914794921875">
        <ele>838.20001220703125</ele>
        <time>2026-08-21T17:47:42.000Z</time>
        <extensions>
          <ns3:TrackPointExtension>
            <ns3:hr>126</ns3:hr>
            <ns3:cad>75</ns3:cad>
          </ns3:TrackPointExtension>
        </extensions>
      </trkpt>
      <trkpt lat="45.331598818302154541015625" lon="-70.94927930273115634918212890625">
        <ele>838</ele>
        <time>2026-08-21T17:47:43.000Z</time>
        <extensions>
          <ns3:TrackPointExtension>
            <ns3:hr>126</ns3:hr>
            <ns3:cad>75</ns3:cad>
          </ns3:TrackPointExtension>
        </extensions>
      </trkpt>
      <trkpt lat="45.3316160850226879119873046875" lon="-70.9492539055645465850830078125">
        <ele>837.79998779296875</ele>
        <time>2026-08-21T17:47:44.000Z</time>
        <extensions>
          <ns3:TrackPointExtension>
            <ns3:hr>126</ns3:hr>
            <ns3:cad>75</ns3:cad>
          </ns3:TrackPointExtension>
        </extensions>
      </trkpt>
      <trkpt lat="45.33162899315357208251953125" lon="-70.949233956634998321533203125">
        <ele>837.79998779296875</ele>
        <time>2026-08-21T17:47:45.000Z</time>
        <extensions>
          <ns3:TrackPointExtension>
            <ns3:hr>126</ns3:hr>
            <ns3:cad>75</ns3:cad>
          </ns3:TrackPointExtension>
        </extensions>
      </trkpt>
      <trkpt lat="45.3316455893218517303466796875" lon="-70.94921627081930637359619140625">
        <ele>837.5999755859375</ele>
        <time>2026-08-21T17:47:46.000Z</time>
        <extensions>
          <ns3:TrackPointExtension>
            <ns3:hr>127</ns3:hr>
            <ns3:cad>73</ns3:cad>
          </ns3:TrackPointExtension>
        </extensions>
      </trkpt>
      <trkpt lat="45.331668555736541748046875" lon="-70.94920252449810504913330078125">
        <ele>837.5999755859375</ele>
        <time>2026-08-21T17:47:47.000Z</time>
        <extensions>
          <ns3:TrackPointExtension>
            <ns3:hr>127</ns3:hr>
            <ns3:cad>73</ns3:cad>
          </ns3:TrackPointExtension>
        </extensions>
      </trkpt>
      <trkpt lat="45.33168490044772624969482421875" lon="-70.94919766299426555633544921875">
        <ele>837.4000244140625</ele>
        <time>2026-08-21T17:47:48.000Z</time>
        <extensions>
          <ns3:TrackPointExtension>
            <ns3:hr>127</ns3:hr>
            <ns3:cad>73</ns3:cad>
          </ns3:TrackPointExtension>
        </extensions>
      </trkpt>
      <trkpt lat="45.331703759729862213134765625" lon="-70.9491868503391742706298828125">
        <ele>837.4000244140625</ele>
        <time>2026-08-21T17:47:49.000Z</time>
        <extensions>
          <ns3:TrackPointExtension>
            <ns3:hr>128</ns3:hr>
            <ns3:cad>73</ns3:cad>
          </ns3:TrackPointExtension>
        </extensions>
      </trkpt>
      <trkpt lat="45.33171574585139751434326171875" lon="-70.94917503185570240020751953125">
        <ele>837.20001220703125</ele>
        <time>2026-08-21T17:47:50.000Z</time>
        <extensions>
          <ns3:TrackPointExtension>
            <ns3:hr>128</ns3:hr>
            <ns3:cad>73</ns3:cad>
          </ns3:TrackPointExtension>
        </extensions>
      </trkpt>
      <trkpt lat="45.33173183910548686981201171875" lon="-70.9491531550884246826171875">
        <ele>837</ele>
        <time>2026-08-21T17:47:51.000Z</time>
        <extensions>
          <ns3:TrackPointExtension>
            <ns3:hr>128</ns3:hr>
            <ns3:cad>73</ns3:cad>
          </ns3:TrackPointExtension>
        </extensions>
      </trkpt>
      <trkpt lat="45.33174340613186359405517578125" lon="-70.94912289641797542572021484375">
        <ele>836.79998779296875</ele>
        <time>2026-08-21T17:47:52.000Z</time>
        <extensions>
          <ns3:TrackPointExtension>
            <ns3:hr>128</ns3:hr>
            <ns3:cad>73</ns3:cad>
          </ns3:TrackPointExtension>
        </extensions>
      </trkpt>
      <trkpt lat="45.331757068634033203125" lon="-70.94910412095487117767333984375">
        <ele>836.5999755859375</ele>
        <time>2026-08-21T17:47:53.000Z</time>
        <extensions>
          <ns3:TrackPointExtension>
            <ns3:hr>129</ns3:hr>
            <ns3:cad>73</ns3:cad>
          </ns3:TrackPointExtension>
        </extensions>
      </trkpt>
      <trkpt lat="45.3317706473171710968017578125" lon="-70.94908970408141613006591796875">
        <ele>836.4000244140625</ele>
        <time>2026-08-21T17:47:54.000Z</time>
        <extensions>
          <ns3:TrackPointExtension>
            <ns3:hr>129</ns3:hr>
            <ns3:cad>73</ns3:cad>
          </ns3:TrackPointExtension>
        </extensions>
      </trkpt>
      <trkpt lat="45.33178883604705333709716796875" lon="-70.94908081926405429840087890625">
        <ele>836.20001220703125</ele>
        <time>2026-08-21T17:47:55.000Z</time>
        <extensions>
          <ns3:TrackPointExtension>
            <ns3:hr>129</ns3:hr>
            <ns3:cad>73</ns3:cad>
          </ns3:TrackPointExtension>
        </extensions>
      </trkpt>
      <trkpt lat="45.331805683672428131103515625" lon="-70.94907092861831188201904296875">
        <ele>836.20001220703125</ele>
        <time>2026-08-21T17:47:56.000Z</time>
        <extensions>
          <ns3:TrackPointExtension>
            <ns3:hr>129</ns3:hr>
            <ns3:cad>75</ns3:cad>
          </ns3:TrackPointExtension>
        </extensions>
      </trkpt>
      <trkpt lat="45.331817753612995147705078125" lon="-70.9490646421909332275390625">
        <ele>836</ele>
        <time>2026-08-21T17:47:57.000Z</time>
        <extensions>
          <ns3:TrackPointExtension>
            <ns3:hr>128</ns3:hr>
            <ns3:cad>75</ns3:cad>
          </ns3:TrackPointExtension>
        </extensions>
      </trkpt>
      <trkpt lat="45.33183326013386249542236328125" lon="-70.94906372018158435821533203125">
        <ele>836</ele>
        <time>2026-08-21T17:47:58.000Z</time>
        <extensions>
          <ns3:TrackPointExtension>
            <ns3:hr>129</ns3:hr>
            <ns3:cad>75</ns3:cad>
          </ns3:TrackPointExtension>
        </extensions>
      </trkpt>
      <trkpt lat="45.33184600062668323516845703125" lon="-70.94906573183834552764892578125">
        <ele>835.79998779296875</ele>
        <time>2026-08-21T17:47:59.000Z</time>
        <extensions>
          <ns3:TrackPointExtension>
            <ns3:hr>129</ns3:hr>
            <ns3:cad>75</ns3:cad>
          </ns3:TrackPointExtension>
        </extensions>
      </trkpt>
      <trkpt lat="45.331859327852725982666015625" lon="-70.94907126389443874359130859375">
        <ele>835.79998779296875</ele>
        <time>2026-08-21T17:48:00.000Z</time>
        <extensions>
          <ns3:TrackPointExtension>
            <ns3:hr>128</ns3:hr>
            <ns3:cad>75</ns3:cad>
          </ns3:TrackPointExtension>
        </extensions>
      </trkpt>
      <trkpt lat="45.33187332563102245330810546875" lon="-70.94907428137958049774169921875">
        <ele>835.79998779296875</ele>
        <time>2026-08-21T17:48:01.000Z</time>
        <extensions>
          <ns3:TrackPointExtension>
            <ns3:hr>128</ns3:hr>
            <ns3:cad>79</ns3:cad>
          </ns3:TrackPointExtension>
        </extensions>
      </trkpt>
      <trkpt lat="45.331885814666748046875" lon="-70.94907260499894618988037109375">
        <ele>835.5999755859375</ele>
        <time>2026-08-21T17:48:02.000Z</time>
        <extensions>
          <ns3:TrackPointExtension>
            <ns3:hr>128</ns3:hr>
            <ns3:cad>79</ns3:cad>
          </ns3:TrackPointExtension>
        </extensions>
      </trkpt>
      <trkpt lat="45.33190182410180568695068359375" lon="-70.94906824640929698944091796875">
        <ele>835.5999755859375</ele>
        <time>2026-08-21T17:48:03.000Z</time>
        <extensions>
          <ns3:TrackPointExtension>
            <ns3:hr>128</ns3:hr>
            <ns3:cad>79</ns3:cad>
          </ns3:TrackPointExtension>
        </extensions>
      </trkpt>
      <trkpt lat="45.331917665898799896240234375" lon="-70.94906187616288661956787109375">
        <ele>835.5999755859375</ele>
        <time>2026-08-21T17:48:04.000Z</time>
        <extensions>
          <ns3:TrackPointExtension>
            <ns3:hr>128</ns3:hr>
            <ns3:cad>79</ns3:cad>
          </ns3:TrackPointExtension>
        </extensions>
      </trkpt>
      <trkpt lat="45.33193409442901611328125" lon="-70.94905684702098369598388671875">
        <ele>835.4000244140625</ele>
        <time>2026-08-21T17:48:05.000Z</time>
        <extensions>
          <ns3:TrackPointExtension>
            <ns3:hr>127</ns3:hr>
            <ns3:cad>79</ns3:cad>
          </ns3:TrackPointExtension>
        </extensions>
      </trkpt>
      <trkpt lat="45.33194993622601032257080078125" lon="-70.949050225317478179931640625">
        <ele>835.4000244140625</ele>
        <time>2026-08-21T17:48:06.000Z</time>
        <extensions>
          <ns3:TrackPointExtension>
            <ns3:hr>126</ns3:hr>
            <ns3:cad>79</ns3:cad>
          </ns3:TrackPointExtension>
        </extensions>
      </trkpt>
      <trkpt lat="45.33196385018527507781982421875" lon="-70.9490467049181461334228515625">
        <ele>835.4000244140625</ele>
        <time>2026-08-21T17:48:07.000Z</time>
        <extensions>
          <ns3:TrackPointExtension>
            <ns3:hr>125</ns3:hr>
            <ns3:cad>79</ns3:cad>
          </ns3:TrackPointExtension>
        </extensions>
      </trkpt>
      <trkpt lat="45.3319756686687469482421875" lon="-70.9490410052239894866943359375">
        <ele>835.4000244140625</ele>
        <time>2026-08-21T17:48:08.000Z</time>
        <extensions>
          <ns3:TrackPointExtension>
            <ns3:hr>125</ns3:hr>
            <ns3:cad>52</ns3:cad>
          </ns3:TrackPointExtension>
        </extensions>
      </trkpt>
      <trkpt lat="45.331982709467411041259765625" lon="-70.9490351378917694091796875">
        <ele>835.5999755859375</ele>
        <time>2026-08-21T17:48:09.000Z</time>
        <extensions>
          <ns3:TrackPointExtension>
            <ns3:hr>125</ns3:hr>
            <ns3:cad>51</ns3:cad>
          </ns3:TrackPointExtension>
        </extensions>
      </trkpt>
      <trkpt lat="45.33199503086507320404052734375" lon="-70.949035473167896270751953125">
        <ele>835.4000244140625</ele>
        <time>2026-08-21T17:48:10.000Z</time>
        <extensions>
          <ns3:TrackPointExtension>
            <ns3:hr>125</ns3:hr>
            <ns3:cad>51</ns3:cad>
          </ns3:TrackPointExtension>
        </extensions>
      </trkpt>
      <trkpt lat="45.3320073522627353668212890625" lon="-70.94903890974819660186767578125">
        <ele>835.4000244140625</ele>
        <time>2026-08-21T17:48:11.000Z</time>
        <extensions>
          <ns3:TrackPointExtension>
            <ns3:hr>125</ns3:hr>
            <ns3:cad>55</ns3:cad>
          </ns3:TrackPointExtension>
        </extensions>
      </trkpt>
      <trkpt lat="45.33202084712684154510498046875" lon="-70.9490413405001163482666015625">
        <ele>835.4000244140625</ele>
        <time>2026-08-21T17:48:12.000Z</time>
        <extensions>
          <ns3:TrackPointExtension>
            <ns3:hr>125</ns3:hr>
            <ns3:cad>55</ns3:cad>
          </ns3:TrackPointExtension>
        </extensions>
      </trkpt>
      <trkpt lat="45.33203073777258396148681640625" lon="-70.94904310069978237152099609375">
        <ele>835.4000244140625</ele>
        <time>2026-08-21T17:48:13.000Z</time>
        <extensions>
          <ns3:TrackPointExtension>
            <ns3:hr>124</ns3:hr>
            <ns3:cad>55</ns3:cad>
          </ns3:TrackPointExtension>
        </extensions>
      </trkpt>
      <trkpt lat="45.33204297535121440887451171875" lon="-70.949045531451702117919921875">
        <ele>835.20001220703125</ele>
        <time>2026-08-21T17:48:14.000Z</time>
        <extensions>
          <ns3:TrackPointExtension>
            <ns3:hr>124</ns3:hr>
            <ns3:cad>55</ns3:cad>
          </ns3:TrackPointExtension>
        </extensions>
      </trkpt>
      <trkpt lat="45.33205546438694000244140625" lon="-70.949050895869731903076171875">
        <ele>835.20001220703125</ele>
        <time>2026-08-21T17:48:15.000Z</time>
        <extensions>
          <ns3:TrackPointExtension>
            <ns3:hr>124</ns3:hr>
            <ns3:cad>55</ns3:cad>
          </ns3:TrackPointExtension>
        </extensions>
      </trkpt>
      <trkpt lat="45.33207180909812450408935546875" lon="-70.949058271944522857666015625">
        <ele>835</ele>
        <time>2026-08-21T17:48:16.000Z</time>
        <extensions>
          <ns3:TrackPointExtension>
            <ns3:hr>123</ns3:hr>
            <ns3:cad>55</ns3:cad>
          </ns3:TrackPointExtension>
        </extensions>
      </trkpt>
      <trkpt lat="45.33208438195288181304931640625" lon="-70.94906137324869632720947265625">
        <ele>835</ele>
        <time>2026-08-21T17:48:17.000Z</time>
        <extensions>
          <ns3:TrackPointExtension>
            <ns3:hr>123</ns3:hr>
            <ns3:cad>55</ns3:cad>
          </ns3:TrackPointExtension>
        </extensions>
      </trkpt>
      <trkpt lat="45.332100056111812591552734375" lon="-70.94907092861831188201904296875">
        <ele>835</ele>
        <time>2026-08-21T17:48:18.000Z</time>
        <extensions>
          <ns3:TrackPointExtension>
            <ns3:hr>123</ns3:hr>
            <ns3:cad>68</ns3:cad>
          </ns3:TrackPointExtension>
        </extensions>
      </trkpt>
      <trkpt lat="45.3321159817278385162353515625" lon="-70.94908274710178375244140625">
        <ele>834.79998779296875</ele>
        <time>2026-08-21T17:48:19.000Z</time>
        <extensions>
          <ns3:TrackPointExtension>
            <ns3:hr>123</ns3:hr>
            <ns3:cad>68</ns3:cad>
          </ns3:TrackPointExtension>
        </extensions>
      </trkpt>
      <trkpt lat="45.33213065005838871002197265625" lon="-70.949087776243686676025390625">
        <ele>834.79998779296875</ele>
        <time>2026-08-21T17:48:20.000Z</time>
        <extensions>
          <ns3:TrackPointExtension>
            <ns3:hr>122</ns3:hr>
            <ns3:cad>68</ns3:cad>
          </ns3:TrackPointExtension>
        </extensions>
      </trkpt>
      <trkpt lat="45.33214590512216091156005859375" lon="-70.94909775070846080780029296875">
        <ele>834.5999755859375</ele>
        <time>2026-08-21T17:48:21.000Z</time>
        <extensions>
          <ns3:TrackPointExtension>
            <ns3:hr>122</ns3:hr>
            <ns3:cad>73</ns3:cad>
          </ns3:TrackPointExtension>
        </extensions>
      </trkpt>
      <trkpt lat="45.33216007053852081298828125" lon="-70.9491087310016155242919921875">
        <ele>834.5999755859375</ele>
        <time>2026-08-21T17:48:22.000Z</time>
        <extensions>
          <ns3:TrackPointExtension>
            <ns3:hr>122</ns3:hr>
            <ns3:cad>73</ns3:cad>
          </ns3:TrackPointExtension>
        </extensions>
      </trkpt>
      <trkpt lat="45.33217641524970531463623046875" lon="-70.94911837019026279449462890625">
        <ele>834.4000244140625</ele>
        <time>2026-08-21T17:48:23.000Z</time>
        <extensions>
          <ns3:TrackPointExtension>
            <ns3:hr>122</ns3:hr>
            <ns3:cad>73</ns3:cad>
          </ns3:TrackPointExtension>
        </extensions>
      </trkpt>
      <trkpt lat="45.3321969509124755859375" lon="-70.9491271711885929107666015625">
        <ele>834.4000244140625</ele>
        <time>2026-08-21T17:48:24.000Z</time>
        <extensions>
          <ns3:TrackPointExtension>
            <ns3:hr>122</ns3:hr>
            <ns3:cad>73</ns3:cad>
          </ns3:TrackPointExtension>
        </extensions>
      </trkpt>
      <trkpt lat="45.33221178688108921051025390625" lon="-70.94912960194051265716552734375">
        <ele>834.20001220703125</ele>
        <time>2026-08-21T17:48:25.000Z</time>
        <extensions>
          <ns3:TrackPointExtension>
            <ns3:hr>123</ns3:hr>
            <ns3:cad>73</ns3:cad>
          </ns3:TrackPointExtension>
        </extensions>
      </trkpt>
      <trkpt lat="45.33222704194486141204833984375" lon="-70.9491379000246524810791015625">
        <ele>834.20001220703125</ele>
        <time>2026-08-21T17:48:26.000Z</time>
        <extensions>
          <ns3:TrackPointExtension>
            <ns3:hr>122</ns3:hr>
            <ns3:cad>73</ns3:cad>
          </ns3:TrackPointExtension>
        </extensions>
      </trkpt>
      <trkpt lat="45.3322443924844264984130859375" lon="-70.949143432080745697021484375">
        <ele>834.20001220703125</ele>
        <time>2026-08-21T17:48:27.000Z</time>
        <extensions>
          <ns3:TrackPointExtension>
            <ns3:hr>122</ns3:hr>
            <ns3:cad>73</ns3:cad>
          </ns3:TrackPointExtension>
        </extensions>
      </trkpt>
      <trkpt lat="45.3322573006153106689453125" lon="-70.949146114289760589599609375">
        <ele>834.20001220703125</ele>
        <time>2026-08-21T17:48:28.000Z</time>
        <extensions>
          <ns3:TrackPointExtension>
            <ns3:hr>122</ns3:hr>
            <ns3:cad>60</ns3:cad>
          </ns3:TrackPointExtension>
        </extensions>
      </trkpt>
      <trkpt lat="45.33227146603167057037353515625" lon="-70.9491509757936000823974609375">
        <ele>834</ele>
        <time>2026-08-21T17:48:29.000Z</time>
        <extensions>
          <ns3:TrackPointExtension>
            <ns3:hr>122</ns3:hr>
            <ns3:cad>60</ns3:cad>
          </ns3:TrackPointExtension>
        </extensions>
      </trkpt>
      <trkpt lat="45.3322849608957767486572265625" lon="-70.949153490364551544189453125">
        <ele>833.79998779296875</ele>
        <time>2026-08-21T17:48:30.000Z</time>
        <extensions>
          <ns3:TrackPointExtension>
            <ns3:hr>122</ns3:hr>
            <ns3:cad>0</ns3:cad>
          </ns3:TrackPointExtension>
        </extensions>
      </trkpt>
      <trkpt lat="45.3323003835976123809814453125" lon="-70.94916027970612049102783203125">
        <ele>833.79998779296875</ele>
        <time>2026-08-21T17:48:31.000Z</time>
        <extensions>
          <ns3:TrackPointExtension>
            <ns3:hr>122</ns3:hr>
            <ns3:cad>0</ns3:cad>
          </ns3:TrackPointExtension>
        </extensions>
      </trkpt>
      <trkpt lat="45.33231295645236968994140625" lon="-70.94916128553450107574462890625">
        <ele>833.5999755859375</ele>
        <time>2026-08-21T17:48:32.000Z</time>
        <extensions>
          <ns3:TrackPointExtension>
            <ns3:hr>122</ns3:hr>
            <ns3:cad>0</ns3:cad>
          </ns3:TrackPointExtension>
        </extensions>
      </trkpt>
      <trkpt lat="45.33232636749744415283203125" lon="-70.94916279427707195281982421875">
        <ele>833.4000244140625</ele>
        <time>2026-08-21T17:48:33.000Z</time>
        <extensions>
          <ns3:TrackPointExtension>
            <ns3:hr>122</ns3:hr>
            <ns3:cad>52</ns3:cad>
          </ns3:TrackPointExtension>
        </extensions>
      </trkpt>
      <trkpt lat="45.33234120346605777740478515625" lon="-70.949168242514133453369140625">
        <ele>833.4000244140625</ele>
        <time>2026-08-21T17:48:34.000Z</time>
        <extensions>
          <ns3:TrackPointExtension>
            <ns3:hr>122</ns3:hr>
            <ns3:cad>52</ns3:cad>
          </ns3:TrackPointExtension>
        </extensions>
      </trkpt>
      <trkpt lat="45.332351513206958770751953125" lon="-70.94917125999927520751953125">
        <ele>833.20001220703125</ele>
        <time>2026-08-21T17:48:35.000Z</time>
        <extensions>
          <ns3:TrackPointExtension>
            <ns3:hr>121</ns3:hr>
            <ns3:cad>52</ns3:cad>
          </ns3:TrackPointExtension>
        </extensions>
      </trkpt>
      <trkpt lat="45.332368947565555572509765625" lon="-70.94917603768408298492431640625">
        <ele>833</ele>
        <time>2026-08-21T17:48:36.000Z</time>
        <extensions>
          <ns3:TrackPointExtension>
            <ns3:hr>121</ns3:hr>
            <ns3:cad>52</ns3:cad>
          </ns3:TrackPointExtension>
        </extensions>
      </trkpt>
      <trkpt lat="45.3323838673532009124755859375" lon="-70.9491851739585399627685546875">
        <ele>833</ele>
        <time>2026-08-21T17:48:37.000Z</time>
        <extensions>
          <ns3:TrackPointExtension>
            <ns3:hr>121</ns3:hr>
            <ns3:cad>52</ns3:cad>
          </ns3:TrackPointExtension>
        </extensions>
      </trkpt>
      <trkpt lat="45.332397781312465667724609375" lon="-70.949204452335834503173828125">
        <ele>832.79998779296875</ele>
        <time>2026-08-21T17:48:38.000Z</time>
        <extensions>
          <ns3:TrackPointExtension>
            <ns3:hr>121</ns3:hr>
            <ns3:cad>52</ns3:cad>
          </ns3:TrackPointExtension>
        </extensions>
      </trkpt>
      <trkpt lat="45.33241027034819126129150390625" lon="-70.94921610318124294281005859375">
        <ele>832.5999755859375</ele>
        <time>2026-08-21T17:48:39.000Z</time>
        <extensions>
          <ns3:TrackPointExtension>
            <ns3:hr>121</ns3:hr>
            <ns3:cad>52</ns3:cad>
          </ns3:TrackPointExtension>
        </extensions>
      </trkpt>
      <trkpt lat="45.33242284320294857025146484375" lon="-70.94922758638858795166015625">
        <ele>832.4000244140625</ele>
        <time>2026-08-21T17:48:40.000Z</time>
        <extensions>
          <ns3:TrackPointExtension>
            <ns3:hr>121</ns3:hr>
            <ns3:cad>69</ns3:cad>
          </ns3:TrackPointExtension>
        </extensions>
      </trkpt>
      <trkpt lat="45.3324358351528644561767578125" lon="-70.94924024306237697601318359375">
        <ele>832.20001220703125</ele>
        <time>2026-08-21T17:48:41.000Z</time>
        <extensions>
          <ns3:TrackPointExtension>
            <ns3:hr>122</ns3:hr>
            <ns3:cad>70</ns3:cad>
          </ns3:TrackPointExtension>
        </extensions>
      </trkpt>
      <trkpt lat="45.3324499167501926422119140625" lon="-70.94925164245069026947021484375">
        <ele>831.79998779296875</ele>
        <time>2026-08-21T17:48:42.000Z</time>
        <extensions>
          <ns3:TrackPointExtension>
            <ns3:hr>122</ns3:hr>
            <ns3:cad>70</ns3:cad>
          </ns3:TrackPointExtension>
        </extensions>
      </trkpt>
      <trkpt lat="45.3324656747281551361083984375" lon="-70.94926019199192523956298828125">
        <ele>831.5999755859375</ele>
        <time>2026-08-21T17:48:43.000Z</time>
        <extensions>
          <ns3:TrackPointExtension>
            <ns3:hr>122</ns3:hr>
            <ns3:cad>70</ns3:cad>
          </ns3:TrackPointExtension>
        </extensions>
      </trkpt>
      <trkpt lat="45.3324837796390056610107421875" lon="-70.9492736868560314178466796875">
        <ele>831.4000244140625</ele>
        <time>2026-08-21T17:48:44.000Z</time>
        <extensions>
          <ns3:TrackPointExtension>
            <ns3:hr>122</ns3:hr>
            <ns3:cad>70</ns3:cad>
          </ns3:TrackPointExtension>
        </extensions>
      </trkpt>
      <trkpt lat="45.33249828033149242401123046875" lon="-70.94928525388240814208984375">
        <ele>831.20001220703125</ele>
        <time>2026-08-21T17:48:45.000Z</time>
        <extensions>
          <ns3:TrackPointExtension>
            <ns3:hr>121</ns3:hr>
            <ns3:cad>70</ns3:cad>
          </ns3:TrackPointExtension>
        </extensions>
      </trkpt>
      <trkpt lat="45.3325142897665500640869140625" lon="-70.9492984972894191741943359375">
        <ele>830.79998779296875</ele>
        <time>2026-08-21T17:48:46.000Z</time>
        <extensions>
          <ns3:TrackPointExtension>
            <ns3:hr>121</ns3:hr>
            <ns3:cad>70</ns3:cad>
          </ns3:TrackPointExtension>
        </extensions>
      </trkpt>
      <trkpt lat="45.33252929337322711944580078125" lon="-70.949305035173892974853515625">
        <ele>830.5999755859375</ele>
        <time>2026-08-21T17:48:47.000Z</time>
        <extensions>
          <ns3:TrackPointExtension>
            <ns3:hr>121</ns3:hr>
            <ns3:cad>70</ns3:cad>
          </ns3:TrackPointExtension>
        </extensions>
      </trkpt>
      <trkpt lat="45.332542620599269866943359375" lon="-70.9493192844092845916748046875">
        <ele>830.4000244140625</ele>
        <time>2026-08-21T17:48:48.000Z</time>
        <extensions>
          <ns3:TrackPointExtension>
            <ns3:hr>121</ns3:hr>
            <ns3:cad>70</ns3:cad>
          </ns3:TrackPointExtension>
        </extensions>
      </trkpt>
      <trkpt lat="45.3325605578720569610595703125" lon="-70.9493347071111202239990234375">
        <ele>830</ele>
        <time>2026-08-21T17:48:49.000Z</time>
        <extensions>
          <ns3:TrackPointExtension>
            <ns3:hr>120</ns3:hr>
            <ns3:cad>70</ns3:cad>
          </ns3:TrackPointExtension>
        </extensions>
      </trkpt>
      <trkpt lat="45.3325746394693851470947265625" lon="-70.94934803433716297149658203125">
        <ele>829.79998779296875</ele>
        <time>2026-08-21T17:48:50.000Z</time>
        <extensions>
          <ns3:TrackPointExtension>
            <ns3:hr>120</ns3:hr>
            <ns3:cad>70</ns3:cad>
          </ns3:TrackPointExtension>
        </extensions>
      </trkpt>
      <trkpt lat="45.332591570913791656494140625" lon="-70.94935976900160312652587890625">
        <ele>829.4000244140625</ele>
        <time>2026-08-21T17:48:51.000Z</time>
        <extensions>
          <ns3:TrackPointExtension>
            <ns3:hr>120</ns3:hr>
            <ns3:cad>70</ns3:cad>
          </ns3:TrackPointExtension>
        </extensions>
      </trkpt>
      <trkpt lat="45.3326031379401683807373046875" lon="-70.949369408190250396728515625">
        <ele>829.20001220703125</ele>
        <time>2026-08-21T17:48:52.000Z</time>
        <extensions>
          <ns3:TrackPointExtension>
            <ns3:hr>119</ns3:hr>
            <ns3:cad>70</ns3:cad>
          </ns3:TrackPointExtension>
        </extensions>
      </trkpt>
      <trkpt lat="45.33261872828006744384765625" lon="-70.94938072375953197479248046875">
        <ele>828.79998779296875</ele>
        <time>2026-08-21T17:48:53.000Z</time>
        <extensions>
          <ns3:TrackPointExtension>
            <ns3:hr>119</ns3:hr>
            <ns3:cad>70</ns3:cad>
          </ns3:TrackPointExtension>
        </extensions>
      </trkpt>
      <trkpt lat="45.33263079822063446044921875" lon="-70.949391536414623260498046875">
        <ele>828.4000244140625</ele>
        <time>2026-08-21T17:48:54.000Z</time>
        <extensions>
          <ns3:TrackPointExtension>
            <ns3:hr>118</ns3:hr>
            <ns3:cad>70</ns3:cad>
          </ns3:TrackPointExtension>
        </extensions>
      </trkpt>
      <trkpt lat="45.33264731056988239288330078125" lon="-70.949398912489414215087890625">
        <ele>828</ele>
        <time>2026-08-21T17:48:55.000Z</time>
        <extensions>
          <ns3:TrackPointExtension>
            <ns3:hr>117</ns3:hr>
            <ns3:cad>0</ns3:cad>
          </ns3:TrackPointExtension>
        </extensions>
      </trkpt>
      <trkpt lat="45.33265653066337108612060546875" lon="-70.94941106624901294708251953125">
        <ele>827.5999755859375</ele>
        <time>2026-08-21T17:48:56.000Z</time>
        <extensions>
          <ns3:TrackPointExtension>
            <ns3:hr>116</ns3:hr>
            <ns3:cad>0</ns3:cad>
          </ns3:TrackPointExtension>
        </extensions>
      </trkpt>
      <trkpt lat="45.33267010934650897979736328125" lon="-70.949425399303436279296875">
        <ele>827.4000244140625</ele>
        <time>2026-08-21T17:48:57.000Z</time>
        <extensions>
          <ns3:TrackPointExtension>
            <ns3:hr>115</ns3:hr>
            <ns3:cad>0</ns3:cad>
          </ns3:TrackPointExtension>
        </extensions>
      </trkpt>
      <trkpt lat="45.33268854953348636627197265625" lon="-70.949438475072383880615234375">
        <ele>827</ele>
        <time>2026-08-21T17:48:58.000Z</time>
        <extensions>
          <ns3:TrackPointExtension>
            <ns3:hr>114</ns3:hr>
            <ns3:cad>0</ns3:cad>
          </ns3:TrackPointExtension>
        </extensions>
      </trkpt>
      <trkpt lat="45.3327007032930850982666015625" lon="-70.94945129938423633575439453125">
        <ele>826.5999755859375</ele>
        <time>2026-08-21T17:48:59.000Z</time>
        <extensions>
          <ns3:TrackPointExtension>
            <ns3:hr>112</ns3:hr>
            <ns3:cad>0</ns3:cad>
          </ns3:TrackPointExtension>
        </extensions>
      </trkpt>
      <trkpt lat="45.33271126449108123779296875" lon="-70.94946839846670627593994140625">
        <ele>826.20001220703125</ele>
        <time>2026-08-21T17:49:00.000Z</time>
        <extensions>
          <ns3:TrackPointExtension>
            <ns3:hr>114</ns3:hr>
            <ns3:cad>0</ns3:cad>
          </ns3:TrackPointExtension>
        </extensions>
      </trkpt>
      <trkpt lat="45.33272392116487026214599609375" lon="-70.949479043483734130859375">
        <ele>826</ele>
        <time>2026-08-21T17:49:01.000Z</time>
        <extensions>
          <ns3:TrackPointExtension>
            <ns3:hr>114</ns3:hr>
            <ns3:cad>0</ns3:cad>
          </ns3:TrackPointExtension>
        </extensions>
      </trkpt>
      <trkpt lat="45.33274102024734020233154296875" lon="-70.9494875930249691009521484375">
        <ele>825.5999755859375</ele>
        <time>2026-08-21T17:49:02.000Z</time>
        <extensions>
          <ns3:TrackPointExtension>
            <ns3:hr>114</ns3:hr>
            <ns3:cad>0</ns3:cad>
          </ns3:TrackPointExtension>
        </extensions>
      </trkpt>
      <trkpt lat="45.3327588737010955810546875" lon="-70.9495016746222972869873046875">
        <ele>825.20001220703125</ele>
        <time>2026-08-21T17:49:03.000Z</time>
        <extensions>
          <ns3:TrackPointExtension>
            <ns3:hr>115</ns3:hr>
            <ns3:cad>0</ns3:cad>
          </ns3:TrackPointExtension>
        </extensions>
      </trkpt>
      <trkpt lat="45.3327741287648677825927734375" lon="-70.9495120681822299957275390625">
        <ele>825</ele>
        <time>2026-08-21T17:49:04.000Z</time>
        <extensions>
          <ns3:TrackPointExtension>
            <ns3:hr>117</ns3:hr>
            <ns3:cad>0</ns3:cad>
          </ns3:TrackPointExtension>
        </extensions>
      </trkpt>
      <trkpt lat="45.33278561197221279144287109375" lon="-70.9495248086750507354736328125">
        <ele>824.5999755859375</ele>
        <time>2026-08-21T17:49:05.000Z</time>
        <extensions>
          <ns3:TrackPointExtension>
            <ns3:hr>119</ns3:hr>
            <ns3:cad>0</ns3:cad>
          </ns3:TrackPointExtension>
        </extensions>
      </trkpt>
      <trkpt lat="45.33280103467404842376708984375" lon="-70.94954400323331356048583984375">
        <ele>824.20001220703125</ele>
        <time>2026-08-21T17:49:06.000Z</time>
        <extensions>
          <ns3:TrackPointExtension>
            <ns3:hr>119</ns3:hr>
            <ns3:cad>0</ns3:cad>
          </ns3:TrackPointExtension>
        </extensions>
      </trkpt>
      <trkpt lat="45.332816205918788909912109375" lon="-70.949562527239322662353515625">
        <ele>823.79998779296875</ele>
        <time>2026-08-21T17:49:07.000Z</time>
        <extensions>
          <ns3:TrackPointExtension>
            <ns3:hr>120</ns3:hr>
            <ns3:cad>0</ns3:cad>
          </ns3:TrackPointExtension>
        </extensions>
      </trkpt>
      <trkpt lat="45.33282668329775333404541015625" lon="-70.94957451336085796356201171875">
        <ele>823.4000244140625</ele>
        <time>2026-08-21T17:49:08.000Z</time>
        <extensions>
          <ns3:TrackPointExtension>
            <ns3:hr>120</ns3:hr>
            <ns3:cad>0</ns3:cad>
          </ns3:TrackPointExtension>
        </extensions>
      </trkpt>
      <trkpt lat="45.33284177072346210479736328125" lon="-70.9495831467211246490478515625">
        <ele>823.20001220703125</ele>
        <time>2026-08-21T17:49:09.000Z</time>
        <extensions>
          <ns3:TrackPointExtension>
            <ns3:hr>120</ns3:hr>
            <ns3:cad>0</ns3:cad>
          </ns3:TrackPointExtension>
        </extensions>
      </trkpt>
      <trkpt lat="45.332848727703094482421875" lon="-70.94958758912980556488037109375">
        <ele>823</ele>
        <time>2026-08-21T17:49:10.000Z</time>
        <extensions>
          <ns3:TrackPointExtension>
            <ns3:hr>120</ns3:hr>
            <ns3:cad>0</ns3:cad>
          </ns3:TrackPointExtension>
        </extensions>
      </trkpt>
      <trkpt lat="45.332867167890071868896484375" lon="-70.949602760374546051025390625">
        <ele>822.5999755859375</ele>
        <time>2026-08-21T17:49:11.000Z</time>
        <extensions>
          <ns3:TrackPointExtension>
            <ns3:hr>120</ns3:hr>
            <ns3:cad>0</ns3:cad>
          </ns3:TrackPointExtension>
        </extensions>
      </trkpt>
      <trkpt lat="45.33288284204900264739990234375" lon="-70.9496170096099376678466796875">
        <ele>822.4000244140625</ele>
        <time>2026-08-21T17:49:12.000Z</time>
        <extensions>
          <ns3:TrackPointExtension>
            <ns3:hr>120</ns3:hr>
            <ns3:cad>75</ns3:cad>
          </ns3:TrackPointExtension>
        </extensions>
      </trkpt>
      <trkpt lat="45.33289474435150623321533203125" lon="-70.9496257267892360687255859375">
        <ele>822</ele>
        <time>2026-08-21T17:49:13.000Z</time>
        <extensions>
          <ns3:TrackPointExtension>
            <ns3:hr>120</ns3:hr>
            <ns3:cad>75</ns3:cad>
          </ns3:TrackPointExtension>
        </extensions>
      </trkpt>
      <trkpt lat="45.33291066996753215789794921875" lon="-70.94963855110108852386474609375">
        <ele>821.79998779296875</ele>
        <time>2026-08-21T17:49:14.000Z</time>
        <extensions>
          <ns3:TrackPointExtension>
            <ns3:hr>119</ns3:hr>
            <ns3:cad>75</ns3:cad>
          </ns3:TrackPointExtension>
        </extensions>
      </trkpt>
      <trkpt lat="45.3329266794025897979736328125" lon="-70.94964844174683094024658203125">
        <ele>821.4000244140625</ele>
        <time>2026-08-21T17:49:15.000Z</time>
        <extensions>
          <ns3:TrackPointExtension>
            <ns3:hr>119</ns3:hr>
            <ns3:cad>75</ns3:cad>
          </ns3:TrackPointExtension>
        </extensions>
      </trkpt>
      <trkpt lat="45.3329474665224552154541015625" lon="-70.94965405762195587158203125">
        <ele>821</ele>
        <time>2026-08-21T17:49:16.000Z</time>
        <extensions>
          <ns3:TrackPointExtension>
            <ns3:hr>119</ns3:hr>
            <ns3:cad>75</ns3:cad>
          </ns3:TrackPointExtension>
        </extensions>
      </trkpt>
      <trkpt lat="45.332965739071369171142578125" lon="-70.949658416211605072021484375">
        <ele>820.5999755859375</ele>
        <time>2026-08-21T17:49:17.000Z</time>
        <extensions>
          <ns3:TrackPointExtension>
            <ns3:hr>119</ns3:hr>
            <ns3:cad>75</ns3:cad>
          </ns3:TrackPointExtension>
        </extensions>
      </trkpt>
      <trkpt lat="45.33298493362963199615478515625" lon="-70.9496683068573474884033203125">
        <ele>820.20001220703125</ele>
        <time>2026-08-21T17:49:18.000Z</time>
        <extensions>
          <ns3:TrackPointExtension>
            <ns3:hr>118</ns3:hr>
            <ns3:cad>75</ns3:cad>
          </ns3:TrackPointExtension>
        </extensions>
      </trkpt>
      <trkpt lat="45.33300496637821197509765625" lon="-70.94968146644532680511474609375">
        <ele>819.79998779296875</ele>
        <time>2026-08-21T17:49:19.000Z</time>
        <extensions>
          <ns3:TrackPointExtension>
            <ns3:hr>118</ns3:hr>
            <ns3:cad>75</ns3:cad>
          </ns3:TrackPointExtension>
        </extensions>
      </trkpt>
      <trkpt lat="45.333018712699413299560546875" lon="-70.94969269819557666778564453125">
        <ele>819.4000244140625</ele>
        <time>2026-08-21T17:49:20.000Z</time>
        <extensions>
          <ns3:TrackPointExtension>
            <ns3:hr>118</ns3:hr>
            <ns3:cad>75</ns3:cad>
          </ns3:TrackPointExtension>
        </extensions>
      </trkpt>
      <trkpt lat="45.33303656615316867828369140625" lon="-70.9497030079364776611328125">
        <ele>819.20001220703125</ele>
        <time>2026-08-21T17:49:21.000Z</time>
        <extensions>
          <ns3:TrackPointExtension>
            <ns3:hr>118</ns3:hr>
            <ns3:cad>75</ns3:cad>
          </ns3:TrackPointExtension>
        </extensions>
      </trkpt>
      <trkpt lat="45.33305886201560497283935546875" lon="-70.9497142396867275238037109375">
        <ele>818.79998779296875</ele>
        <time>2026-08-21T17:49:22.000Z</time>
        <extensions>
          <ns3:TrackPointExtension>
            <ns3:hr>119</ns3:hr>
            <ns3:cad>75</ns3:cad>
          </ns3:TrackPointExtension>
        </extensions>
      </trkpt>
      <trkpt lat="45.33307964913547039031982421875" lon="-70.94972245395183563232421875">
        <ele>818.4000244140625</ele>
        <time>2026-08-21T17:49:23.000Z</time>
        <extensions>
          <ns3:TrackPointExtension>
            <ns3:hr>119</ns3:hr>
            <ns3:cad>75</ns3:cad>
          </ns3:TrackPointExtension>
        </extensions>
      </trkpt>
      <trkpt lat="45.3330959938466548919677734375" lon="-70.94973511062562465667724609375">
        <ele>818</ele>
        <time>2026-08-21T17:49:24.000Z</time>
        <extensions>
          <ns3:TrackPointExtension>
            <ns3:hr>120</ns3:hr>
            <ns3:cad>75</ns3:cad>
          </ns3:TrackPointExtension>
        </extensions>
      </trkpt>
      <trkpt lat="45.333117954432964324951171875" lon="-70.9497484378516674041748046875">
        <ele>817.79998779296875</ele>
        <time>2026-08-21T17:49:25.000Z</time>
        <extensions>
          <ns3:TrackPointExtension>
            <ns3:hr>121</ns3:hr>
            <ns3:cad>75</ns3:cad>
          </ns3:TrackPointExtension>
        </extensions>
      </trkpt>
      <trkpt lat="45.3331355564296245574951171875" lon="-70.94975975342094898223876953125">
        <ele>817.4000244140625</ele>
        <time>2026-08-21T17:49:26.000Z</time>
        <extensions>
          <ns3:TrackPointExtension>
            <ns3:hr>122</ns3:hr>
            <ns3:cad>75</ns3:cad>
          </ns3:TrackPointExtension>
        </extensions>
      </trkpt>
      <trkpt lat="45.33314955420792102813720703125" lon="-70.94977316446602344512939453125">
        <ele>817.20001220703125</ele>
        <time>2026-08-21T17:49:27.000Z</time>
        <extensions>
          <ns3:TrackPointExtension>
            <ns3:hr>123</ns3:hr>
            <ns3:cad>75</ns3:cad>
          </ns3:TrackPointExtension>
        </extensions>
      </trkpt>
      <trkpt lat="45.333166904747486114501953125" lon="-70.94978489913046360015869140625">
        <ele>817</ele>
        <time>2026-08-21T17:49:28.000Z</time>
        <extensions>
          <ns3:TrackPointExtension>
            <ns3:hr>123</ns3:hr>
            <ns3:cad>75</ns3:cad>
          </ns3:TrackPointExtension>
        </extensions>
      </trkpt>
      <trkpt lat="45.333185680210590362548828125" lon="-70.9497967176139354705810546875">
        <ele>816.5999755859375</ele>
        <time>2026-08-21T17:49:29.000Z</time>
        <extensions>
          <ns3:TrackPointExtension>
            <ns3:hr>123</ns3:hr>
            <ns3:cad>77</ns3:cad>
          </ns3:TrackPointExtension>
        </extensions>
      </trkpt>
      <trkpt lat="45.3332036174833774566650390625" lon="-70.9498129785060882568359375">
        <ele>816.4000244140625</ele>
        <time>2026-08-21T17:49:30.000Z</time>
        <extensions>
          <ns3:TrackPointExtension>
            <ns3:hr>123</ns3:hr>
            <ns3:cad>77</ns3:cad>
          </ns3:TrackPointExtension>
        </extensions>
      </trkpt>
      <trkpt lat="45.3332217223942279815673828125" lon="-70.94982328824698925018310546875">
        <ele>816.20001220703125</ele>
        <time>2026-08-21T17:49:31.000Z</time>
        <extensions>
          <ns3:TrackPointExtension>
            <ns3:hr>123</ns3:hr>
            <ns3:cad>76</ns3:cad>
          </ns3:TrackPointExtension>
        </extensions>
      </trkpt>
      <trkpt lat="45.333245359361171722412109375" lon="-70.94983703456819057464599609375">
        <ele>816</ele>
        <time>2026-08-21T17:49:32.000Z</time>
        <extensions>
          <ns3:TrackPointExtension>
            <ns3:hr>122</ns3:hr>
            <ns3:cad>76</ns3:cad>
          </ns3:TrackPointExtension>
        </extensions>
      </trkpt>
      <trkpt lat="45.3332612849771976470947265625" lon="-70.9498500265181064605712890625">
        <ele>815.79998779296875</ele>
        <time>2026-08-21T17:49:33.000Z</time>
        <extensions>
          <ns3:TrackPointExtension>
            <ns3:hr>122</ns3:hr>
            <ns3:cad>76</ns3:cad>
          </ns3:TrackPointExtension>
        </extensions>
      </trkpt>
      <trkpt lat="45.33327327109873294830322265625" lon="-70.94986301846802234649658203125">
        <ele>815.5999755859375</ele>
        <time>2026-08-21T17:49:34.000Z</time>
        <extensions>
          <ns3:TrackPointExtension>
            <ns3:hr>122</ns3:hr>
            <ns3:cad>77</ns3:cad>
          </ns3:TrackPointExtension>
        </extensions>
      </trkpt>
      <trkpt lat="45.33328592777252197265625" lon="-70.94988313503563404083251953125">
        <ele>815.5999755859375</ele>
        <time>2026-08-21T17:49:35.000Z</time>
        <extensions>
          <ns3:TrackPointExtension>
            <ns3:hr>123</ns3:hr>
            <ns3:cad>77</ns3:cad>
          </ns3:TrackPointExtension>
        </extensions>
      </trkpt>
      <trkpt lat="45.33330176956951618194580078125" lon="-70.9498962946236133575439453125">
        <ele>815.4000244140625</ele>
        <time>2026-08-21T17:49:36.000Z</time>
        <extensions>
          <ns3:TrackPointExtension>
            <ns3:hr>122</ns3:hr>
            <ns3:cad>77</ns3:cad>
          </ns3:TrackPointExtension>
        </extensions>
      </trkpt>
      <trkpt lat="45.33331618644297122955322265625" lon="-70.949907861649990081787109375">
        <ele>815.4000244140625</ele>
        <time>2026-08-21T17:49:37.000Z</time>
        <extensions>
          <ns3:TrackPointExtension>
            <ns3:hr>122</ns3:hr>
            <ns3:cad>77</ns3:cad>
          </ns3:TrackPointExtension>
        </extensions>
      </trkpt>
      <trkpt lat="45.33333085477352142333984375" lon="-70.94992496073246002197265625">
        <ele>815.20001220703125</ele>
        <time>2026-08-21T17:49:38.000Z</time>
        <extensions>
          <ns3:TrackPointExtension>
            <ns3:hr>122</ns3:hr>
            <ns3:cad>77</ns3:cad>
          </ns3:TrackPointExtension>
        </extensions>
      </trkpt>
      <trkpt lat="45.33334560692310333251953125" lon="-70.94993962906301021575927734375">
        <ele>815</ele>
        <time>2026-08-21T17:49:39.000Z</time>
        <extensions>
          <ns3:TrackPointExtension>
            <ns3:hr>123</ns3:hr>
            <ns3:cad>77</ns3:cad>
          </ns3:TrackPointExtension>
        </extensions>
      </trkpt>
      <trkpt lat="45.33336329273879528045654296875" lon="-70.9499539621174335479736328125">
        <ele>815</ele>
        <time>2026-08-21T17:49:40.000Z</time>
        <extensions>
          <ns3:TrackPointExtension>
            <ns3:hr>122</ns3:hr>
            <ns3:cad>77</ns3:cad>
          </ns3:TrackPointExtension>
        </extensions>
      </trkpt>
      <trkpt lat="45.33338240347802639007568359375" lon="-70.9499660320580005645751953125">
        <ele>814.79998779296875</ele>
        <time>2026-08-21T17:49:41.000Z</time>
        <extensions>
          <ns3:TrackPointExtension>
            <ns3:hr>122</ns3:hr>
            <ns3:cad>77</ns3:cad>
          </ns3:TrackPointExtension>
        </extensions>
      </trkpt>
      <trkpt lat="45.33339883200824260711669921875" lon="-70.94997726380825042724609375">
        <ele>814.5999755859375</ele>
        <time>2026-08-21T17:49:42.000Z</time>
        <extensions>
          <ns3:TrackPointExtension>
            <ns3:hr>122</ns3:hr>
            <ns3:cad>77</ns3:cad>
          </ns3:TrackPointExtension>
        </extensions>
      </trkpt>
      <trkpt lat="45.3334151767194271087646484375" lon="-70.94998874701559543609619140625">
        <ele>814.5999755859375</ele>
        <time>2026-08-21T17:49:43.000Z</time>
        <extensions>
          <ns3:TrackPointExtension>
            <ns3:hr>123</ns3:hr>
            <ns3:cad>77</ns3:cad>
          </ns3:TrackPointExtension>
        </extensions>
      </trkpt>
      <trkpt lat="45.3334316052496433258056640625" lon="-70.94999779947102069854736328125">
        <ele>814.4000244140625</ele>
        <time>2026-08-21T17:49:44.000Z</time>
        <extensions>
          <ns3:TrackPointExtension>
            <ns3:hr>122</ns3:hr>
            <ns3:cad>77</ns3:cad>
          </ns3:TrackPointExtension>
        </extensions>
      </trkpt>
      <trkpt lat="45.33344912342727184295654296875" lon="-70.9500069357454776763916015625">
        <ele>814.20001220703125</ele>
        <time>2026-08-21T17:49:45.000Z</time>
        <extensions>
          <ns3:TrackPointExtension>
            <ns3:hr>122</ns3:hr>
            <ns3:cad>77</ns3:cad>
          </ns3:TrackPointExtension>
        </extensions>
      </trkpt>
      <trkpt lat="45.33346898853778839111328125" lon="-70.9500206820666790008544921875">
        <ele>814.20001220703125</ele>
        <time>2026-08-21T17:49:46.000Z</time>
        <extensions>
          <ns3:TrackPointExtension>
            <ns3:hr>122</ns3:hr>
            <ns3:cad>73</ns3:cad>
          </ns3:TrackPointExtension>
        </extensions>
      </trkpt>
      <trkpt lat="45.3334835730493068695068359375" lon="-70.95003132708370685577392578125">
        <ele>814</ele>
        <time>2026-08-21T17:49:47.000Z</time>
        <extensions>
          <ns3:TrackPointExtension>
            <ns3:hr>122</ns3:hr>
            <ns3:cad>73</ns3:cad>
          </ns3:TrackPointExtension>
        </extensions>
      </trkpt>
      <trkpt lat="45.33350075595080852508544921875" lon="-70.95004188828170299530029296875">
        <ele>813.79998779296875</ele>
        <time>2026-08-21T17:49:48.000Z</time>
        <extensions>
          <ns3:TrackPointExtension>
            <ns3:hr>122</ns3:hr>
            <ns3:cad>72</ns3:cad>
          </ns3:TrackPointExtension>
        </extensions>
      </trkpt>
      <trkpt lat="45.33351718448102474212646484375" lon="-70.9500488452613353729248046875">
        <ele>813.5999755859375</ele>
        <time>2026-08-21T17:49:49.000Z</time>
        <extensions>
          <ns3:TrackPointExtension>
            <ns3:hr>122</ns3:hr>
            <ns3:cad>72</ns3:cad>
          </ns3:TrackPointExtension>
        </extensions>
      </trkpt>
      <trkpt lat="45.3335382230579853057861328125" lon="-70.95005370676517486572265625">
        <ele>813.4000244140625</ele>
        <time>2026-08-21T17:49:50.000Z</time>
        <extensions>
          <ns3:TrackPointExtension>
            <ns3:hr>122</ns3:hr>
            <ns3:cad>72</ns3:cad>
          </ns3:TrackPointExtension>
        </extensions>
      </trkpt>
      <trkpt lat="45.333559848368167877197265625" lon="-70.95006041228771209716796875">
        <ele>813.20001220703125</ele>
        <time>2026-08-21T17:49:51.000Z</time>
        <extensions>
          <ns3:TrackPointExtension>
            <ns3:hr>122</ns3:hr>
            <ns3:cad>72</ns3:cad>
          </ns3:TrackPointExtension>
        </extensions>
      </trkpt>
      <trkpt lat="45.3335764445364475250244140625" lon="-70.95006854273378849029541015625">
        <ele>813</ele>
        <time>2026-08-21T17:49:52.000Z</time>
        <extensions>
          <ns3:TrackPointExtension>
            <ns3:hr>122</ns3:hr>
            <ns3:cad>72</ns3:cad>
          </ns3:TrackPointExtension>
        </extensions>
      </trkpt>
      <trkpt lat="45.3335922025144100189208984375" lon="-70.95007876865565776824951171875">
        <ele>812.5999755859375</ele>
        <time>2026-08-21T17:49:53.000Z</time>
        <extensions>
          <ns3:TrackPointExtension>
            <ns3:hr>122</ns3:hr>
            <ns3:cad>72</ns3:cad>
          </ns3:TrackPointExtension>
        </extensions>
      </trkpt>
      <trkpt lat="45.3336096368730068206787109375" lon="-70.95009125769138336181640625">
        <ele>812.4000244140625</ele>
        <time>2026-08-21T17:49:54.000Z</time>
        <extensions>
          <ns3:TrackPointExtension>
            <ns3:hr>122</ns3:hr>
            <ns3:cad>72</ns3:cad>
          </ns3:TrackPointExtension>
        </extensions>
      </trkpt>
      <trkpt lat="45.333626233041286468505859375" lon="-70.9501026570796966552734375">
        <ele>812.20001220703125</ele>
        <time>2026-08-21T17:49:55.000Z</time>
        <extensions>
          <ns3:TrackPointExtension>
            <ns3:hr>122</ns3:hr>
            <ns3:cad>72</ns3:cad>
          </ns3:TrackPointExtension>
        </extensions>
      </trkpt>
      <trkpt lat="45.33364509232342243194580078125" lon="-70.9501160681247711181640625">
        <ele>811.79998779296875</ele>
        <time>2026-08-21T17:49:56.000Z</time>
        <extensions>
          <ns3:TrackPointExtension>
            <ns3:hr>122</ns3:hr>
            <ns3:cad>73</ns3:cad>
          </ns3:TrackPointExtension>
        </extensions>
      </trkpt>
      <trkpt lat="45.333661772310733795166015625" lon="-70.9501269645988941192626953125">
        <ele>811.5999755859375</ele>
        <time>2026-08-21T17:49:57.000Z</time>
        <extensions>
          <ns3:TrackPointExtension>
            <ns3:hr>122</ns3:hr>
            <ns3:cad>73</ns3:cad>
          </ns3:TrackPointExtension>
        </extensions>
      </trkpt>
      <trkpt lat="45.33367811702191829681396484375" lon="-70.9501386992633342742919921875">
        <ele>811.20001220703125</ele>
        <time>2026-08-21T17:49:58.000Z</time>
        <extensions>
          <ns3:TrackPointExtension>
            <ns3:hr>122</ns3:hr>
            <ns3:cad>72</ns3:cad>
          </ns3:TrackPointExtension>
        </extensions>
      </trkpt>
      <trkpt lat="45.33369521610438823699951171875" lon="-70.95015035010874271392822265625">
        <ele>810.79998779296875</ele>
        <time>2026-08-21T17:49:59.000Z</time>
        <extensions>
          <ns3:TrackPointExtension>
            <ns3:hr>123</ns3:hr>
            <ns3:cad>72</ns3:cad>
          </ns3:TrackPointExtension>
        </extensions>
      </trkpt>
      <trkpt lat="45.33371080644428730010986328125" lon="-70.95016376115381717681884765625">
        <ele>810.5999755859375</ele>
        <time>2026-08-21T17:50:00.000Z</time>
        <extensions>
          <ns3:TrackPointExtension>
            <ns3:hr>123</ns3:hr>
            <ns3:cad>72</ns3:cad>
          </ns3:TrackPointExtension>
        </extensions>
      </trkpt>
      <trkpt lat="45.333722792565822601318359375" lon="-70.95017465762794017791748046875">
        <ele>810.4000244140625</ele>
        <time>2026-08-21T17:50:01.000Z</time>
        <extensions>
          <ns3:TrackPointExtension>
            <ns3:hr>123</ns3:hr>
            <ns3:cad>76</ns3:cad>
          </ns3:TrackPointExtension>
        </extensions>
      </trkpt>
      <trkpt lat="45.33373561687767505645751953125" lon="-70.9501883201301097869873046875">
        <ele>810</ele>
        <time>2026-08-21T17:50:02.000Z</time>
        <extensions>
          <ns3:TrackPointExtension>
            <ns3:hr>124</ns3:hr>
            <ns3:cad>76</ns3:cad>
          </ns3:TrackPointExtension>
        </extensions>
      </trkpt>
      <trkpt lat="45.33374969847500324249267578125" lon="-70.95020231790840625762939453125">
        <ele>809.79998779296875</ele>
        <time>2026-08-21T17:50:03.000Z</time>
        <extensions>
          <ns3:TrackPointExtension>
            <ns3:hr>124</ns3:hr>
            <ns3:cad>77</ns3:cad>
          </ns3:TrackPointExtension>
        </extensions>
      </trkpt>
      <trkpt lat="45.33376403152942657470703125" lon="-70.950213633477687835693359375">
        <ele>809.5999755859375</ele>
        <time>2026-08-21T17:50:04.000Z</time>
        <extensions>
          <ns3:TrackPointExtension>
            <ns3:hr>123</ns3:hr>
            <ns3:cad>77</ns3:cad>
          </ns3:TrackPointExtension>
        </extensions>
      </trkpt>
      <trkpt lat="45.33378205262124538421630859375" lon="-70.950224697589874267578125">
        <ele>809.4000244140625</ele>
        <time>2026-08-21T17:50:05.000Z</time>
        <extensions>
          <ns3:TrackPointExtension>
            <ns3:hr>123</ns3:hr>
            <ns3:cad>77</ns3:cad>
          </ns3:TrackPointExtension>
        </extensions>
      </trkpt>
      <trkpt lat="45.33379714004695415496826171875" lon="-70.95023651607334613800048828125">
        <ele>809.20001220703125</ele>
        <time>2026-08-21T17:50:06.000Z</time>
        <extensions>
          <ns3:TrackPointExtension>
            <ns3:hr>123</ns3:hr>
            <ns3:cad>73</ns3:cad>
          </ns3:TrackPointExtension>
        </extensions>
      </trkpt>
      <trkpt lat="45.3338108025491237640380859375" lon="-70.95025277696549892425537109375">
        <ele>809</ele>
        <time>2026-08-21T17:50:07.000Z</time>
        <extensions>
          <ns3:TrackPointExtension>
            <ns3:hr>123</ns3:hr>
            <ns3:cad>73</ns3:cad>
          </ns3:TrackPointExtension>
        </extensions>
      </trkpt>
      <trkpt lat="45.3338258899748325347900390625" lon="-70.95026618801057338714599609375">
        <ele>808.79998779296875</ele>
        <time>2026-08-21T17:50:08.000Z</time>
        <extensions>
          <ns3:TrackPointExtension>
            <ns3:hr>123</ns3:hr>
            <ns3:cad>73</ns3:cad>
          </ns3:TrackPointExtension>
        </extensions>
      </trkpt>
      <trkpt lat="45.33384089358150959014892578125" lon="-70.9502801857888698577880859375">
        <ele>808.5999755859375</ele>
        <time>2026-08-21T17:50:09.000Z</time>
        <extensions>
          <ns3:TrackPointExtension>
            <ns3:hr>123</ns3:hr>
            <ns3:cad>73</ns3:cad>
          </ns3:TrackPointExtension>
        </extensions>
      </trkpt>
      <trkpt lat="45.33385966904461383819580078125" lon="-70.9502882324159145355224609375">
        <ele>808.4000244140625</ele>
        <time>2026-08-21T17:50:10.000Z</time>
        <extensions>
          <ns3:TrackPointExtension>
            <ns3:hr>122</ns3:hr>
            <ns3:cad>73</ns3:cad>
          </ns3:TrackPointExtension>
        </extensions>
      </trkpt>
      <trkpt lat="45.33387257717549800872802734375" lon="-70.95029384829103946685791015625">
        <ele>808.20001220703125</ele>
        <time>2026-08-21T17:50:11.000Z</time>
        <extensions>
          <ns3:TrackPointExtension>
            <ns3:hr>122</ns3:hr>
            <ns3:cad>73</ns3:cad>
          </ns3:TrackPointExtension>
        </extensions>
      </trkpt>
      <trkpt lat="45.3338838927447795867919921875" lon="-70.95030491240322589874267578125">
        <ele>807.79998779296875</ele>
        <time>2026-08-21T17:50:12.000Z</time>
        <extensions>
          <ns3:TrackPointExtension>
            <ns3:hr>122</ns3:hr>
            <ns3:cad>73</ns3:cad>
          </ns3:TrackPointExtension>
        </extensions>
      </trkpt>
      <trkpt lat="45.33389286138117313385009765625" lon="-70.95031597651541233062744140625">
        <ele>807.5999755859375</ele>
        <time>2026-08-21T17:50:13.000Z</time>
        <extensions>
          <ns3:TrackPointExtension>
            <ns3:hr>123</ns3:hr>
            <ns3:cad>71</ns3:cad>
          </ns3:TrackPointExtension>
        </extensions>
      </trkpt>
      <trkpt lat="45.33390660770237445831298828125" lon="-70.950329303741455078125">
        <ele>807.4000244140625</ele>
        <time>2026-08-21T17:50:14.000Z</time>
        <extensions>
          <ns3:TrackPointExtension>
            <ns3:hr>122</ns3:hr>
            <ns3:cad>71</ns3:cad>
          </ns3:TrackPointExtension>
        </extensions>
      </trkpt>
      <trkpt lat="45.33391599543392658233642578125" lon="-70.950337015092372894287109375">
        <ele>807</ele>
        <time>2026-08-21T17:50:15.000Z</time>
        <extensions>
          <ns3:TrackPointExtension>
            <ns3:hr>122</ns3:hr>
            <ns3:cad>71</ns3:cad>
          </ns3:TrackPointExtension>
        </extensions>
      </trkpt>
      <trkpt lat="45.33392630517482757568359375" lon="-70.950348079204559326171875">
        <ele>807</ele>
        <time>2026-08-21T17:50:16.000Z</time>
        <extensions>
          <ns3:TrackPointExtension>
            <ns3:hr>121</ns3:hr>
            <ns3:cad>71</ns3:cad>
          </ns3:TrackPointExtension>
        </extensions>
      </trkpt>
      <trkpt lat="45.3339335136115550994873046875" lon="-70.95034413971006870269775390625">
        <ele>806.79998779296875</ele>
        <time>2026-08-21T17:50:17.000Z</time>
        <extensions>
          <ns3:TrackPointExtension>
            <ns3:hr>121</ns3:hr>
            <ns3:cad>71</ns3:cad>
          </ns3:TrackPointExtension>
        </extensions>
      </trkpt>
      <trkpt lat="45.33394633792340755462646484375" lon="-70.950348414480686187744140625">
        <ele>806.5999755859375</ele>
        <time>2026-08-21T17:50:18.000Z</time>
        <extensions>
          <ns3:TrackPointExtension>
            <ns3:hr>120</ns3:hr>
            <ns3:cad>70</ns3:cad>
          </ns3:TrackPointExtension>
        </extensions>
      </trkpt>
      <trkpt lat="45.33395773731172084808349609375" lon="-70.9503616578876972198486328125">
        <ele>806.4000244140625</ele>
        <time>2026-08-21T17:50:19.000Z</time>
        <extensions>
          <ns3:TrackPointExtension>
            <ns3:hr>120</ns3:hr>
            <ns3:cad>70</ns3:cad>
          </ns3:TrackPointExtension>
        </extensions>
      </trkpt>
      <trkpt lat="45.33396930433809757232666015625" lon="-70.950375236570835113525390625">
        <ele>806</ele>
        <time>2026-08-21T17:50:20.000Z</time>
        <extensions>
          <ns3:TrackPointExtension>
            <ns3:hr>119</ns3:hr>
            <ns3:cad>60</ns3:cad>
          </ns3:TrackPointExtension>
        </extensions>
      </trkpt>
      <trkpt lat="45.3339811228215694427490234375" lon="-70.950390659272670745849609375">
        <ele>805.79998779296875</ele>
        <time>2026-08-21T17:50:21.000Z</time>
        <extensions>
          <ns3:TrackPointExtension>
            <ns3:hr>119</ns3:hr>
            <ns3:cad>0</ns3:cad>
          </ns3:TrackPointExtension>
        </extensions>
      </trkpt>
      <trkpt lat="45.33399679698050022125244140625" lon="-70.95040666870772838592529296875">
        <ele>805.4000244140625</ele>
        <time>2026-08-21T17:50:22.000Z</time>
        <extensions>
          <ns3:TrackPointExtension>
            <ns3:hr>118</ns3:hr>
            <ns3:cad>0</ns3:cad>
          </ns3:TrackPointExtension>
        </extensions>
      </trkpt>
      <trkpt lat="45.33401372842490673065185546875" lon="-70.9504173137247562408447265625">
        <ele>805.20001220703125</ele>
        <time>2026-08-21T17:50:23.000Z</time>
        <extensions>
          <ns3:TrackPointExtension>
            <ns3:hr>118</ns3:hr>
            <ns3:cad>0</ns3:cad>
          </ns3:TrackPointExtension>
        </extensions>
      </trkpt>
      <trkpt lat="45.3340240381658077239990234375" lon="-70.95042795874178409576416015625">
        <ele>804.79998779296875</ele>
        <time>2026-08-21T17:50:24.000Z</time>
        <extensions>
          <ns3:TrackPointExtension>
            <ns3:hr>117</ns3:hr>
            <ns3:cad>0</ns3:cad>
          </ns3:TrackPointExtension>
        </extensions>
      </trkpt>
      <trkpt lat="45.334039293229579925537109375" lon="-70.95044556073844432830810546875">
        <ele>804.5999755859375</ele>
        <time>2026-08-21T17:50:25.000Z</time>
        <extensions>
          <ns3:TrackPointExtension>
            <ns3:hr>116</ns3:hr>
            <ns3:cad>68</ns3:cad>
          </ns3:TrackPointExtension>
        </extensions>
      </trkpt>
      <trkpt lat="45.334054715931415557861328125" lon="-70.95045997761189937591552734375">
        <ele>804.4000244140625</ele>
        <time>2026-08-21T17:50:26.000Z</time>
        <extensions>
          <ns3:TrackPointExtension>
            <ns3:hr>115</ns3:hr>
            <ns3:cad>68</ns3:cad>
          </ns3:TrackPointExtension>
        </extensions>
      </trkpt>
      <trkpt lat="45.33406980335712432861328125" lon="-70.95046802423894405364990234375">
        <ele>804</ele>
        <time>2026-08-21T17:50:27.000Z</time>
        <extensions>
          <ns3:TrackPointExtension>
            <ns3:hr>115</ns3:hr>
            <ns3:cad>68</ns3:cad>
          </ns3:TrackPointExtension>
        </extensions>
      </trkpt>
      <trkpt lat="45.33408849500119686126708984375" lon="-70.95047489739954471588134765625">
        <ele>803.79998779296875</ele>
        <time>2026-08-21T17:50:28.000Z</time>
        <extensions>
          <ns3:TrackPointExtension>
            <ns3:hr>115</ns3:hr>
            <ns3:cad>0</ns3:cad>
          </ns3:TrackPointExtension>
        </extensions>
      </trkpt>
      <trkpt lat="45.33410425297915935516357421875" lon="-70.95048210583627223968505859375">
        <ele>803.4000244140625</ele>
        <time>2026-08-21T17:50:29.000Z</time>
        <extensions>
          <ns3:TrackPointExtension>
            <ns3:hr>115</ns3:hr>
            <ns3:cad>0</ns3:cad>
          </ns3:TrackPointExtension>
        </extensions>
      </trkpt>
      <trkpt lat="45.33412076532840728759765625" lon="-70.95049702562391757965087890625">
        <ele>803</ele>
        <time>2026-08-21T17:50:30.000Z</time>
        <extensions>
          <ns3:TrackPointExtension>
            <ns3:hr>116</ns3:hr>
            <ns3:cad>0</ns3:cad>
          </ns3:TrackPointExtension>
        </extensions>
      </trkpt>
      <trkpt lat="45.3341343440115451812744140625" lon="-70.95051060430705547332763671875">
        <ele>802.5999755859375</ele>
        <time>2026-08-21T17:50:31.000Z</time>
        <extensions>
          <ns3:TrackPointExtension>
            <ns3:hr>116</ns3:hr>
            <ns3:cad>0</ns3:cad>
          </ns3:TrackPointExtension>
        </extensions>
      </trkpt>
      <trkpt lat="45.3341511078178882598876953125" lon="-70.95052175223827362060546875">
        <ele>802.20001220703125</ele>
        <time>2026-08-21T17:50:32.000Z</time>
        <extensions>
          <ns3:TrackPointExtension>
            <ns3:hr>117</ns3:hr>
            <ns3:cad>0</ns3:cad>
          </ns3:TrackPointExtension>
        </extensions>
      </trkpt>
      <trkpt lat="45.33416636288166046142578125" lon="-70.95052904449403285980224609375">
        <ele>801.79998779296875</ele>
        <time>2026-08-21T17:50:33.000Z</time>
        <extensions>
          <ns3:TrackPointExtension>
            <ns3:hr>117</ns3:hr>
            <ns3:cad>79</ns3:cad>
          </ns3:TrackPointExtension>
        </extensions>
      </trkpt>
      <trkpt lat="45.33417868427932262420654296875" lon="-70.95053759403526782989501953125">
        <ele>801.4000244140625</ele>
        <time>2026-08-21T17:50:34.000Z</time>
        <extensions>
          <ns3:TrackPointExtension>
            <ns3:hr>118</ns3:hr>
            <ns3:cad>79</ns3:cad>
          </ns3:TrackPointExtension>
        </extensions>
      </trkpt>
      <trkpt lat="45.33419243060052394866943359375" lon="-70.95054723322391510009765625">
        <ele>801.20001220703125</ele>
        <time>2026-08-21T17:50:35.000Z</time>
        <extensions>
          <ns3:TrackPointExtension>
            <ns3:hr>118</ns3:hr>
            <ns3:cad>79</ns3:cad>
          </ns3:TrackPointExtension>
        </extensions>
      </trkpt>
      <trkpt lat="45.3342060931026935577392578125" lon="-70.950554944574832916259765625">
        <ele>801</ele>
        <time>2026-08-21T17:50:36.000Z</time>
        <extensions>
          <ns3:TrackPointExtension>
            <ns3:hr>118</ns3:hr>
            <ns3:cad>79</ns3:cad>
          </ns3:TrackPointExtension>
        </extensions>
      </trkpt>
      <trkpt lat="45.33422109670937061309814453125" lon="-70.95056592486798763275146484375">
        <ele>800.5999755859375</ele>
        <time>2026-08-21T17:50:37.000Z</time>
        <extensions>
          <ns3:TrackPointExtension>
            <ns3:hr>118</ns3:hr>
            <ns3:cad>79</ns3:cad>
          </ns3:TrackPointExtension>
        </extensions>
      </trkpt>
      <trkpt lat="45.33423199318349361419677734375" lon="-70.9505779109895229339599609375">
        <ele>800.4000244140625</ele>
        <time>2026-08-21T17:50:38.000Z</time>
        <extensions>
          <ns3:TrackPointExtension>
            <ns3:hr>118</ns3:hr>
            <ns3:cad>76</ns3:cad>
          </ns3:TrackPointExtension>
        </extensions>
      </trkpt>
      <trkpt lat="45.33424456603825092315673828125" lon="-70.9505953453481197357177734375">
        <ele>800.20001220703125</ele>
        <time>2026-08-21T17:50:39.000Z</time>
        <extensions>
          <ns3:TrackPointExtension>
            <ns3:hr>118</ns3:hr>
            <ns3:cad>76</ns3:cad>
          </ns3:TrackPointExtension>
        </extensions>
      </trkpt>
      <trkpt lat="45.33425445668399333953857421875" lon="-70.9506100974977016448974609375">
        <ele>799.79998779296875</ele>
        <time>2026-08-21T17:50:40.000Z</time>
        <extensions>
          <ns3:TrackPointExtension>
            <ns3:hr>118</ns3:hr>
            <ns3:cad>76</ns3:cad>
          </ns3:TrackPointExtension>
        </extensions>
      </trkpt>
      <trkpt lat="45.334267280995845794677734375" lon="-70.950624682009220123291015625">
        <ele>799.5999755859375</ele>
        <time>2026-08-21T17:50:41.000Z</time>
        <extensions>
          <ns3:TrackPointExtension>
            <ns3:hr>117</ns3:hr>
            <ns3:cad>76</ns3:cad>
          </ns3:TrackPointExtension>
        </extensions>
      </trkpt>
      <trkpt lat="45.33428345806896686553955078125" lon="-70.95063532702624797821044921875">
        <ele>799.4000244140625</ele>
        <time>2026-08-21T17:50:42.000Z</time>
        <extensions>
          <ns3:TrackPointExtension>
            <ns3:hr>117</ns3:hr>
            <ns3:cad>76</ns3:cad>
          </ns3:TrackPointExtension>
        </extensions>
      </trkpt>
      <trkpt lat="45.33429888077080249786376953125" lon="-70.95064647495746612548828125">
        <ele>799</ele>
        <time>2026-08-21T17:50:43.000Z</time>
        <extensions>
          <ns3:TrackPointExtension>
            <ns3:hr>117</ns3:hr>
            <ns3:cad>76</ns3:cad>
          </ns3:TrackPointExtension>
        </extensions>
      </trkpt>
      <trkpt lat="45.33431790769100189208984375" lon="-70.950657539069652557373046875">
        <ele>798.79998779296875</ele>
        <time>2026-08-21T17:50:44.000Z</time>
        <extensions>
          <ns3:TrackPointExtension>
            <ns3:hr>116</ns3:hr>
            <ns3:cad>76</ns3:cad>
          </ns3:TrackPointExtension>
        </extensions>
      </trkpt>
      <trkpt lat="45.334330312907695770263671875" lon="-70.95066952519118785858154296875">
        <ele>798.5999755859375</ele>
        <time>2026-08-21T17:50:45.000Z</time>
        <extensions>
          <ns3:TrackPointExtension>
            <ns3:hr>115</ns3:hr>
            <ns3:cad>76</ns3:cad>
          </ns3:TrackPointExtension>
        </extensions>
      </trkpt>
      <trkpt lat="45.33434431068599224090576171875" lon="-70.95068779774010181427001953125">
        <ele>798.20001220703125</ele>
        <time>2026-08-21T17:50:46.000Z</time>
        <extensions>
          <ns3:TrackPointExtension>
            <ns3:hr>115</ns3:hr>
            <ns3:cad>76</ns3:cad>
          </ns3:TrackPointExtension>
        </extensions>
      </trkpt>
      <trkpt lat="45.3343589790165424346923828125" lon="-70.9506986103951930999755859375">
        <ele>797.79998779296875</ele>
        <time>2026-08-21T17:50:47.000Z</time>
        <extensions>
          <ns3:TrackPointExtension>
            <ns3:hr>115</ns3:hr>
            <ns3:cad>76</ns3:cad>
          </ns3:TrackPointExtension>
        </extensions>
      </trkpt>
      <trkpt lat="45.3343744017183780670166015625" lon="-70.9507073275744915008544921875">
        <ele>797.5999755859375</ele>
        <time>2026-08-21T17:50:48.000Z</time>
        <extensions>
          <ns3:TrackPointExtension>
            <ns3:hr>115</ns3:hr>
            <ns3:cad>76</ns3:cad>
          </ns3:TrackPointExtension>
        </extensions>
      </trkpt>
      <trkpt lat="45.3343898244202136993408203125" lon="-70.9507214091718196868896484375">
        <ele>797.20001220703125</ele>
        <time>2026-08-21T17:50:49.000Z</time>
        <extensions>
          <ns3:TrackPointExtension>
            <ns3:hr>115</ns3:hr>
            <ns3:cad>76</ns3:cad>
          </ns3:TrackPointExtension>
        </extensions>
      </trkpt>
      <trkpt lat="45.33440885134041309356689453125" lon="-70.95073507167398929595947265625">
        <ele>796.79998779296875</ele>
        <time>2026-08-21T17:50:50.000Z</time>
        <extensions>
          <ns3:TrackPointExtension>
            <ns3:hr>116</ns3:hr>
            <ns3:cad>76</ns3:cad>
          </ns3:TrackPointExtension>
        </extensions>
      </trkpt>
      <trkpt lat="45.334424190223217010498046875" lon="-70.95074613578617572784423828125">
        <ele>796.5999755859375</ele>
        <time>2026-08-21T17:50:51.000Z</time>
        <extensions>
          <ns3:TrackPointExtension>
            <ns3:hr>117</ns3:hr>
            <ns3:cad>76</ns3:cad>
          </ns3:TrackPointExtension>
        </extensions>
      </trkpt>
      <trkpt lat="45.33444053493440151214599609375" lon="-70.95075954683125019073486328125">
        <ele>796.20001220703125</ele>
        <time>2026-08-21T17:50:52.000Z</time>
        <extensions>
          <ns3:TrackPointExtension>
            <ns3:hr>117</ns3:hr>
            <ns3:cad>75</ns3:cad>
          </ns3:TrackPointExtension>
        </extensions>
      </trkpt>
      <trkpt lat="45.33445411361753940582275390625" lon="-70.95077144913375377655029296875">
        <ele>795.79998779296875</ele>
        <time>2026-08-21T17:50:53.000Z</time>
        <extensions>
          <ns3:TrackPointExtension>
            <ns3:hr>118</ns3:hr>
            <ns3:cad>75</ns3:cad>
          </ns3:TrackPointExtension>
        </extensions>
      </trkpt>
      <trkpt lat="45.3344701230525970458984375" lon="-70.95078553073108196258544921875">
        <ele>795.5999755859375</ele>
        <time>2026-08-21T17:50:54.000Z</time>
        <extensions>
          <ns3:TrackPointExtension>
            <ns3:hr>118</ns3:hr>
            <ns3:cad>75</ns3:cad>
          </ns3:TrackPointExtension>
        </extensions>
      </trkpt>
      <trkpt lat="45.33448579721152782440185546875" lon="-70.9507971815764904022216796875">
        <ele>795.20001220703125</ele>
        <time>2026-08-21T17:50:55.000Z</time>
        <extensions>
          <ns3:TrackPointExtension>
            <ns3:hr>118</ns3:hr>
            <ns3:cad>76</ns3:cad>
          </ns3:TrackPointExtension>
        </extensions>
      </trkpt>
      <trkpt lat="45.33449870534241199493408203125" lon="-70.95081285573542118072509765625">
        <ele>795</ele>
        <time>2026-08-21T17:50:56.000Z</time>
        <extensions>
          <ns3:TrackPointExtension>
            <ns3:hr>118</ns3:hr>
            <ns3:cad>76</ns3:cad>
          </ns3:TrackPointExtension>
        </extensions>
      </trkpt>
      <trkpt lat="45.33451412804424762725830078125" lon="-70.95082978717982769012451171875">
        <ele>794.79998779296875</ele>
        <time>2026-08-21T17:50:57.000Z</time>
        <extensions>
          <ns3:TrackPointExtension>
            <ns3:hr>118</ns3:hr>
            <ns3:cad>76</ns3:cad>
          </ns3:TrackPointExtension>
        </extensions>
      </trkpt>
      <trkpt lat="45.33453206531703472137451171875" lon="-70.95084537751972675323486328125">
        <ele>794.5999755859375</ele>
        <time>2026-08-21T17:50:58.000Z</time>
        <extensions>
          <ns3:TrackPointExtension>
            <ns3:hr>118</ns3:hr>
            <ns3:cad>77</ns3:cad>
          </ns3:TrackPointExtension>
        </extensions>
      </trkpt>
      <trkpt lat="45.33454732038080692291259765625" lon="-70.95085593871772289276123046875">
        <ele>794.4000244140625</ele>
        <time>2026-08-21T17:50:59.000Z</time>
        <extensions>
          <ns3:TrackPointExtension>
            <ns3:hr>119</ns3:hr>
            <ns3:cad>77</ns3:cad>
          </ns3:TrackPointExtension>
        </extensions>
      </trkpt>
      <trkpt lat="45.3345631621778011322021484375" lon="-70.95086717046797275543212890625">
        <ele>794.20001220703125</ele>
        <time>2026-08-21T17:51:00.000Z</time>
        <extensions>
          <ns3:TrackPointExtension>
            <ns3:hr>119</ns3:hr>
            <ns3:cad>77</ns3:cad>
          </ns3:TrackPointExtension>
        </extensions>
      </trkpt>
      <trkpt lat="45.33457984216511249542236328125" lon="-70.95087639056146144866943359375">
        <ele>794</ele>
        <time>2026-08-21T17:51:01.000Z</time>
        <extensions>
          <ns3:TrackPointExtension>
            <ns3:hr>120</ns3:hr>
            <ns3:cad>77</ns3:cad>
          </ns3:TrackPointExtension>
        </extensions>
      </trkpt>
      <trkpt lat="45.3345950134098529815673828125" lon="-70.950886867940425872802734375">
        <ele>793.79998779296875</ele>
        <time>2026-08-21T17:51:02.000Z</time>
        <extensions>
          <ns3:TrackPointExtension>
            <ns3:hr>120</ns3:hr>
            <ns3:cad>76</ns3:cad>
          </ns3:TrackPointExtension>
        </extensions>
      </trkpt>
      <trkpt lat="45.3346151299774646759033203125" lon="-70.95090002752840518951416015625">
        <ele>793.5999755859375</ele>
        <time>2026-08-21T17:51:03.000Z</time>
        <extensions>
          <ns3:TrackPointExtension>
            <ns3:hr>120</ns3:hr>
            <ns3:cad>76</ns3:cad>
          </ns3:TrackPointExtension>
        </extensions>
      </trkpt>
      <trkpt lat="45.33463298343122005462646484375" lon="-70.95091528259217739105224609375">
        <ele>793.4000244140625</ele>
        <time>2026-08-21T17:51:04.000Z</time>
        <extensions>
          <ns3:TrackPointExtension>
            <ns3:hr>120</ns3:hr>
            <ns3:cad>76</ns3:cad>
          </ns3:TrackPointExtension>
        </extensions>
      </trkpt>
      <trkpt lat="45.33465276472270488739013671875" lon="-70.9509302861988544464111328125">
        <ele>793.4000244140625</ele>
        <time>2026-08-21T17:51:05.000Z</time>
        <extensions>
          <ns3:TrackPointExtension>
            <ns3:hr>120</ns3:hr>
            <ns3:cad>75</ns3:cad>
          </ns3:TrackPointExtension>
        </extensions>
      </trkpt>
      <trkpt lat="45.3346761502325534820556640625" lon="-70.9509450383484363555908203125">
        <ele>793.20001220703125</ele>
        <time>2026-08-21T17:51:06.000Z</time>
        <extensions>
          <ns3:TrackPointExtension>
            <ns3:hr>120</ns3:hr>
            <ns3:cad>75</ns3:cad>
          </ns3:TrackPointExtension>
        </extensions>
      </trkpt>
      <trkpt lat="45.334695763885974884033203125" lon="-70.9509527496993541717529296875">
        <ele>793</ele>
        <time>2026-08-21T17:51:07.000Z</time>
        <extensions>
          <ns3:TrackPointExtension>
            <ns3:hr>120</ns3:hr>
            <ns3:cad>75</ns3:cad>
          </ns3:TrackPointExtension>
        </extensions>
      </trkpt>
      <trkpt lat="45.334717221558094024658203125" lon="-70.95096155069768428802490234375">
        <ele>793</ele>
        <time>2026-08-21T17:51:08.000Z</time>
        <extensions>
          <ns3:TrackPointExtension>
            <ns3:hr>121</ns3:hr>
            <ns3:cad>75</ns3:cad>
          </ns3:TrackPointExtension>
        </extensions>
      </trkpt>
      <trkpt lat="45.33474580384790897369384765625" lon="-70.9509675018489360809326171875">
        <ele>792.79998779296875</ele>
        <time>2026-08-21T17:51:09.000Z</time>
        <extensions>
          <ns3:TrackPointExtension>
            <ns3:hr>120</ns3:hr>
            <ns3:cad>75</ns3:cad>
          </ns3:TrackPointExtension>
        </extensions>
      </trkpt>
      <trkpt lat="45.334764830768108367919921875" lon="-70.95097010023891925811767578125">
        <ele>792.5999755859375</ele>
        <time>2026-08-21T17:51:10.000Z</time>
        <extensions>
          <ns3:TrackPointExtension>
            <ns3:hr>120</ns3:hr>
            <ns3:cad>75</ns3:cad>
          </ns3:TrackPointExtension>
        </extensions>
      </trkpt>
      <trkpt lat="45.3347888030111789703369140625" lon="-70.95097362063825130462646484375">
        <ele>792.5999755859375</ele>
        <time>2026-08-21T17:51:11.000Z</time>
        <extensions>
          <ns3:TrackPointExtension>
            <ns3:hr>120</ns3:hr>
            <ns3:cad>75</ns3:cad>
          </ns3:TrackPointExtension>
        </extensions>
      </trkpt>
      <trkpt lat="45.33481118269264698028564453125" lon="-70.95097596757113933563232421875">
        <ele>792.5999755859375</ele>
        <time>2026-08-21T17:51:12.000Z</time>
        <extensions>
          <ns3:TrackPointExtension>
            <ns3:hr>120</ns3:hr>
            <ns3:cad>75</ns3:cad>
          </ns3:TrackPointExtension>
        </extensions>
      </trkpt>
      <trkpt lat="45.334828533232212066650390625" lon="-70.9509792365133762359619140625">
        <ele>792.5999755859375</ele>
        <time>2026-08-21T17:51:13.000Z</time>
        <extensions>
          <ns3:TrackPointExtension>
            <ns3:hr>120</ns3:hr>
            <ns3:cad>75</ns3:cad>
          </ns3:TrackPointExtension>
        </extensions>
      </trkpt>
      <trkpt lat="45.3348509967327117919921875" lon="-70.9509735368192195892333984375">
        <ele>792.79998779296875</ele>
        <time>2026-08-21T17:51:14.000Z</time>
        <extensions>
          <ns3:TrackPointExtension>
            <ns3:hr>119</ns3:hr>
            <ns3:cad>75</ns3:cad>
          </ns3:TrackPointExtension>
        </extensions>
      </trkpt>
      <trkpt lat="45.33487153239548206329345703125" lon="-70.95096942968666553497314453125">
        <ele>793</ele>
        <time>2026-08-21T17:51:15.000Z</time>
        <extensions>
          <ns3:TrackPointExtension>
            <ns3:hr>120</ns3:hr>
            <ns3:cad>75</ns3:cad>
          </ns3:TrackPointExtension>
        </extensions>
      </trkpt>
      <trkpt lat="45.3348870389163494110107421875" lon="-70.9509698487818241119384765625">
        <ele>793.20001220703125</ele>
        <time>2026-08-21T17:51:16.000Z</time>
        <extensions>
          <ns3:TrackPointExtension>
            <ns3:hr>120</ns3:hr>
            <ns3:cad>75</ns3:cad>
          </ns3:TrackPointExtension>
        </extensions>
      </trkpt>
      <trkpt lat="45.33490757457911968231201171875" lon="-70.95096808858215808868408203125">
        <ele>793.20001220703125</ele>
        <time>2026-08-21T17:51:17.000Z</time>
        <extensions>
          <ns3:TrackPointExtension>
            <ns3:hr>121</ns3:hr>
            <ns3:cad>75</ns3:cad>
          </ns3:TrackPointExtension>
        </extensions>
      </trkpt>
      <trkpt lat="45.3349222429096698760986328125" lon="-70.95096834003925323486328125">
        <ele>793.4000244140625</ele>
        <time>2026-08-21T17:51:18.000Z</time>
        <extensions>
          <ns3:TrackPointExtension>
            <ns3:hr>121</ns3:hr>
            <ns3:cad>75</ns3:cad>
          </ns3:TrackPointExtension>
        </extensions>
      </trkpt>
      <trkpt lat="45.33494411967694759368896484375" lon="-70.95096834003925323486328125">
        <ele>793.5999755859375</ele>
        <time>2026-08-21T17:51:19.000Z</time>
        <extensions>
          <ns3:TrackPointExtension>
            <ns3:hr>122</ns3:hr>
            <ns3:cad>75</ns3:cad>
          </ns3:TrackPointExtension>
        </extensions>
      </trkpt>
      <trkpt lat="45.3349621407687664031982421875" lon="-70.95096523873507976531982421875">
        <ele>793.79998779296875</ele>
        <time>2026-08-21T17:51:20.000Z</time>
        <extensions>
          <ns3:TrackPointExtension>
            <ns3:hr>123</ns3:hr>
            <ns3:cad>75</ns3:cad>
          </ns3:TrackPointExtension>
        </extensions>
      </trkpt>
      <trkpt lat="45.33498016186058521270751953125" lon="-70.9509648196399211883544921875">
        <ele>794</ele>
        <time>2026-08-21T17:51:21.000Z</time>
        <extensions>
          <ns3:TrackPointExtension>
            <ns3:hr>123</ns3:hr>
            <ns3:cad>75</ns3:cad>
          </ns3:TrackPointExtension>
        </extensions>
      </trkpt>
      <trkpt lat="45.3350033797323703765869140625" lon="-70.95096339471638202667236328125">
        <ele>794</ele>
        <time>2026-08-21T17:51:22.000Z</time>
        <extensions>
          <ns3:TrackPointExtension>
            <ns3:hr>124</ns3:hr>
            <ns3:cad>72</ns3:cad>
          </ns3:TrackPointExtension>
        </extensions>
      </trkpt>
      <trkpt lat="45.3350199759006500244140625" lon="-70.950959958136081695556640625">
        <ele>794.20001220703125</ele>
        <time>2026-08-21T17:51:23.000Z</time>
        <extensions>
          <ns3:TrackPointExtension>
            <ns3:hr>124</ns3:hr>
            <ns3:cad>72</ns3:cad>
          </ns3:TrackPointExtension>
        </extensions>
      </trkpt>
      <trkpt lat="45.33503933809697628021240234375" lon="-70.95095668919384479522705078125">
        <ele>794.4000244140625</ele>
        <time>2026-08-21T17:51:24.000Z</time>
        <extensions>
          <ns3:TrackPointExtension>
            <ns3:hr>124</ns3:hr>
            <ns3:cad>72</ns3:cad>
          </ns3:TrackPointExtension>
        </extensions>
      </trkpt>
      <trkpt lat="45.335062555968761444091796875" lon="-70.9509561024606227874755859375">
        <ele>794.5999755859375</ele>
        <time>2026-08-21T17:51:25.000Z</time>
        <extensions>
          <ns3:TrackPointExtension>
            <ns3:hr>124</ns3:hr>
            <ns3:cad>72</ns3:cad>
          </ns3:TrackPointExtension>
        </extensions>
      </trkpt>
      <trkpt lat="45.335077978670597076416015625" lon="-70.95095719210803508758544921875">
        <ele>794.5999755859375</ele>
        <time>2026-08-21T17:51:26.000Z</time>
        <extensions>
          <ns3:TrackPointExtension>
            <ns3:hr>124</ns3:hr>
            <ns3:cad>72</ns3:cad>
          </ns3:TrackPointExtension>
        </extensions>
      </trkpt>
      <trkpt lat="45.33510052599012851715087890625" lon="-70.95095350407063961029052734375">
        <ele>794.79998779296875</ele>
        <time>2026-08-21T17:51:27.000Z</time>
        <extensions>
          <ns3:TrackPointExtension>
            <ns3:hr>125</ns3:hr>
            <ns3:cad>72</ns3:cad>
          </ns3:TrackPointExtension>
        </extensions>
      </trkpt>
      <trkpt lat="45.3351210616528987884521484375" lon="-70.95094495452940464019775390625">
        <ele>795</ele>
        <time>2026-08-21T17:51:28.000Z</time>
        <extensions>
          <ns3:TrackPointExtension>
            <ns3:hr>126</ns3:hr>
            <ns3:cad>72</ns3:cad>
          </ns3:TrackPointExtension>
        </extensions>
      </trkpt>
      <trkpt lat="45.335141010582447052001953125" lon="-70.95094243995845317840576171875">
        <ele>795</ele>
        <time>2026-08-21T17:51:29.000Z</time>
        <extensions>
          <ns3:TrackPointExtension>
            <ns3:hr>127</ns3:hr>
            <ns3:cad>0</ns3:cad>
          </ns3:TrackPointExtension>
        </extensions>
      </trkpt>
      <trkpt lat="45.335154421627521514892578125" lon="-70.95094176940619945526123046875">
        <ele>795.20001220703125</ele>
        <time>2026-08-21T17:51:30.000Z</time>
        <extensions>
          <ns3:TrackPointExtension>
            <ns3:hr>127</ns3:hr>
            <ns3:cad>0</ns3:cad>
          </ns3:TrackPointExtension>
        </extensions>
      </trkpt>
      <trkpt lat="45.33516691066324710845947265625" lon="-70.950943864881992340087890625">
        <ele>795.20001220703125</ele>
        <time>2026-08-21T17:51:31.000Z</time>
        <extensions>
          <ns3:TrackPointExtension>
            <ns3:hr>128</ns3:hr>
            <ns3:cad>0</ns3:cad>
          </ns3:TrackPointExtension>
        </extensions>
      </trkpt>
      <trkpt lat="45.33517755568027496337890625" lon="-70.950941853225231170654296875">
        <ele>795.4000244140625</ele>
        <time>2026-08-21T17:51:32.000Z</time>
        <extensions>
          <ns3:TrackPointExtension>
            <ns3:hr>128</ns3:hr>
            <ns3:cad>0</ns3:cad>
          </ns3:TrackPointExtension>
        </extensions>
      </trkpt>
      <trkpt lat="45.33519054763019084930419921875" lon="-70.950937159359455108642578125">
        <ele>795.4000244140625</ele>
        <time>2026-08-21T17:51:33.000Z</time>
        <extensions>
          <ns3:TrackPointExtension>
            <ns3:hr>128</ns3:hr>
            <ns3:cad>0</ns3:cad>
          </ns3:TrackPointExtension>
        </extensions>
      </trkpt>
      <trkpt lat="45.33520379103720188140869140625" lon="-70.95093204639852046966552734375">
        <ele>795.5999755859375</ele>
        <time>2026-08-21T17:51:34.000Z</time>
        <extensions>
          <ns3:TrackPointExtension>
            <ns3:hr>128</ns3:hr>
            <ns3:cad>0</ns3:cad>
          </ns3:TrackPointExtension>
        </extensions>
      </trkpt>
      <trkpt lat="45.3352132625877857208251953125" lon="-70.9509286098182201385498046875">
        <ele>795.79998779296875</ele>
        <time>2026-08-21T17:51:35.000Z</time>
        <extensions>
          <ns3:TrackPointExtension>
            <ns3:hr>129</ns3:hr>
            <ns3:cad>0</ns3:cad>
          </ns3:TrackPointExtension>
        </extensions>
      </trkpt>
      <trkpt lat="45.33523178659379482269287109375" lon="-70.950924418866634368896484375">
        <ele>796</ele>
        <time>2026-08-21T17:51:36.000Z</time>
        <extensions>
          <ns3:TrackPointExtension>
            <ns3:hr>129</ns3:hr>
            <ns3:cad>0</ns3:cad>
          </ns3:TrackPointExtension>
        </extensions>
      </trkpt>
      <trkpt lat="45.335240922868251800537109375" lon="-70.9509259276092052459716796875">
        <ele>796.20001220703125</ele>
        <time>2026-08-21T17:51:37.000Z</time>
        <extensions>
          <ns3:TrackPointExtension>
            <ns3:hr>130</ns3:hr>
            <ns3:cad>0</ns3:cad>
          </ns3:TrackPointExtension>
        </extensions>
      </trkpt>
      <trkpt lat="45.335261039435863494873046875" lon="-70.95093070529401302337646484375">
        <ele>796.4000244140625</ele>
        <time>2026-08-21T17:51:38.000Z</time>
        <extensions>
          <ns3:TrackPointExtension>
            <ns3:hr>131</ns3:hr>
            <ns3:cad>0</ns3:cad>
          </ns3:TrackPointExtension>
        </extensions>
      </trkpt>
      <trkpt lat="45.3352721035480499267578125" lon="-70.95093472860753536224365234375">
        <ele>796.5999755859375</ele>
        <time>2026-08-21T17:51:39.000Z</time>
        <extensions>
          <ns3:TrackPointExtension>
            <ns3:hr>131</ns3:hr>
            <ns3:cad>0</ns3:cad>
          </ns3:TrackPointExtension>
        </extensions>
      </trkpt>
      <trkpt lat="45.33528241328895092010498046875" lon="-70.9509341418743133544921875">
        <ele>796.79998779296875</ele>
        <time>2026-08-21T17:51:40.000Z</time>
        <extensions>
          <ns3:TrackPointExtension>
            <ns3:hr>132</ns3:hr>
            <ns3:cad>0</ns3:cad>
          </ns3:TrackPointExtension>
        </extensions>
      </trkpt>
      <trkpt lat="45.3352923877537250518798828125" lon="-70.95093154348433017730712890625">
        <ele>797</ele>
        <time>2026-08-21T17:51:41.000Z</time>
        <extensions>
          <ns3:TrackPointExtension>
            <ns3:hr>133</ns3:hr>
            <ns3:cad>0</ns3:cad>
          </ns3:TrackPointExtension>
        </extensions>
      </trkpt>
      <trkpt lat="45.3352947346866130828857421875" lon="-70.95092517323791980743408203125">
        <ele>797.20001220703125</ele>
        <time>2026-08-21T17:51:42.000Z</time>
        <extensions>
          <ns3:TrackPointExtension>
            <ns3:hr>134</ns3:hr>
            <ns3:cad>0</ns3:cad>
          </ns3:TrackPointExtension>
        </extensions>
      </trkpt>
      <trkpt lat="45.33531158231198787689208984375" lon="-70.95091846771538257598876953125">
        <ele>797.4000244140625</ele>
        <time>2026-08-21T17:51:43.000Z</time>
        <extensions>
          <ns3:TrackPointExtension>
            <ns3:hr>134</ns3:hr>
            <ns3:cad>0</ns3:cad>
          </ns3:TrackPointExtension>
        </extensions>
      </trkpt>
      <trkpt lat="45.33531996421515941619873046875" lon="-70.9509193897247314453125">
        <ele>797.5999755859375</ele>
        <time>2026-08-21T17:51:44.000Z</time>
        <extensions>
          <ns3:TrackPointExtension>
            <ns3:hr>134</ns3:hr>
            <ns3:cad>0</ns3:cad>
          </ns3:TrackPointExtension>
        </extensions>
      </trkpt>
      <trkpt lat="45.3353265859186649322509765625" lon="-70.95091595314443111419677734375">
        <ele>797.79998779296875</ele>
        <time>2026-08-21T17:51:45.000Z</time>
        <extensions>
          <ns3:TrackPointExtension>
            <ns3:hr>135</ns3:hr>
            <ns3:cad>0</ns3:cad>
          </ns3:TrackPointExtension>
        </extensions>
      </trkpt>
      <trkpt lat="45.33533354289829730987548828125" lon="-70.9509162046015262603759765625">
        <ele>798</ele>
        <time>2026-08-21T17:51:46.000Z</time>
        <extensions>
          <ns3:TrackPointExtension>
            <ns3:hr>135</ns3:hr>
            <ns3:cad>51</ns3:cad>
          </ns3:TrackPointExtension>
        </extensions>
      </trkpt>
      <trkpt lat="45.33533991314470767974853515625" lon="-70.9509100019931793212890625">
        <ele>798.20001220703125</ele>
        <time>2026-08-21T17:51:47.000Z</time>
        <extensions>
          <ns3:TrackPointExtension>
            <ns3:hr>136</ns3:hr>
            <ns3:cad>51</ns3:cad>
          </ns3:TrackPointExtension>
        </extensions>
      </trkpt>
      <trkpt lat="45.33534863032400608062744140625" lon="-70.9509111754596233367919921875">
        <ele>798.4000244140625</ele>
        <time>2026-08-21T17:51:48.000Z</time>
        <extensions>
          <ns3:TrackPointExtension>
            <ns3:hr>137</ns3:hr>
            <ns3:cad>51</ns3:cad>
          </ns3:TrackPointExtension>
        </extensions>
      </trkpt>
      <trkpt lat="45.3353524021804332733154296875" lon="-70.9509100019931793212890625">
        <ele>798.79998779296875</ele>
        <time>2026-08-21T17:51:49.000Z</time>
        <extensions>
          <ns3:TrackPointExtension>
            <ns3:hr>137</ns3:hr>
            <ns3:cad>51</ns3:cad>
          </ns3:TrackPointExtension>
        </extensions>
      </trkpt>
      <trkpt lat="45.33536002971231937408447265625" lon="-70.950909666717052459716796875">
        <ele>799</ele>
        <time>2026-08-21T17:51:50.000Z</time>
        <extensions>
          <ns3:TrackPointExtension>
            <ns3:hr>138</ns3:hr>
            <ns3:cad>51</ns3:cad>
          </ns3:TrackPointExtension>
        </extensions>
      </trkpt>
      <trkpt lat="45.335373021662235260009765625" lon="-70.95090857706964015960693359375">
        <ele>799.20001220703125</ele>
        <time>2026-08-21T17:51:51.000Z</time>
        <extensions>
          <ns3:TrackPointExtension>
            <ns3:hr>139</ns3:hr>
            <ns3:cad>41</ns3:cad>
          </ns3:TrackPointExtension>
        </extensions>
      </trkpt>
      <trkpt lat="45.33537914045155048370361328125" lon="-70.950904302299022674560546875">
        <ele>799.5999755859375</ele>
        <time>2026-08-21T17:51:52.000Z</time>
        <extensions>
          <ns3:TrackPointExtension>
            <ns3:hr>140</ns3:hr>
            <ns3:cad>41</ns3:cad>
          </ns3:TrackPointExtension>
        </extensions>
      </trkpt>
      <trkpt lat="45.33538182266056537628173828125" lon="-70.95090522430837154388427734375">
        <ele>799.79998779296875</ele>
        <time>2026-08-21T17:51:53.000Z</time>
        <extensions>
          <ns3:TrackPointExtension>
            <ns3:hr>141</ns3:hr>
            <ns3:cad>41</ns3:cad>
          </ns3:TrackPointExtension>
        </extensions>
      </trkpt>
      <trkpt lat="45.33539481461048126220703125" lon="-70.9509051404893398284912109375">
        <ele>800.20001220703125</ele>
        <time>2026-08-21T17:51:54.000Z</time>
        <extensions>
          <ns3:TrackPointExtension>
            <ns3:hr>142</ns3:hr>
            <ns3:cad>41</ns3:cad>
          </ns3:TrackPointExtension>
        </extensions>
      </trkpt>
      <trkpt lat="45.3354000113904476165771484375" lon="-70.9509027935564517974853515625">
        <ele>800.4000244140625</ele>
        <time>2026-08-21T17:51:55.000Z</time>
        <extensions>
          <ns3:TrackPointExtension>
            <ns3:hr>143</ns3:hr>
            <ns3:cad>41</ns3:cad>
          </ns3:TrackPointExtension>
        </extensions>
      </trkpt>
      <trkpt lat="45.3354080580174922943115234375" lon="-70.95090002752840518951416015625">
        <ele>800.5999755859375</ele>
        <time>2026-08-21T17:51:56.000Z</time>
        <extensions>
          <ns3:TrackPointExtension>
            <ns3:hr>143</ns3:hr>
            <ns3:cad>0</ns3:cad>
          </ns3:TrackPointExtension>
        </extensions>
      </trkpt>
      <trkpt lat="45.33541300334036350250244140625" lon="-70.95089684240520000457763671875">
        <ele>800.79998779296875</ele>
        <time>2026-08-21T17:51:57.000Z</time>
        <extensions>
          <ns3:TrackPointExtension>
            <ns3:hr>144</ns3:hr>
            <ns3:cad>41</ns3:cad>
          </ns3:TrackPointExtension>
        </extensions>
      </trkpt>
      <trkpt lat="45.33541870303452014923095703125" lon="-70.9508939087390899658203125">
        <ele>801</ele>
        <time>2026-08-21T17:51:58.000Z</time>
        <extensions>
          <ns3:TrackPointExtension>
            <ns3:hr>145</ns3:hr>
            <ns3:cad>41</ns3:cad>
          </ns3:TrackPointExtension>
        </extensions>
      </trkpt>
      <trkpt lat="45.335428006947040557861328125" lon="-70.9508939087390899658203125">
        <ele>801.20001220703125</ele>
        <time>2026-08-21T17:51:59.000Z</time>
        <extensions>
          <ns3:TrackPointExtension>
            <ns3:hr>146</ns3:hr>
            <ns3:cad>41</ns3:cad>
          </ns3:TrackPointExtension>
        </extensions>
      </trkpt>
      <trkpt lat="45.3354372270405292510986328125" lon="-70.9508992731571197509765625">
        <ele>801.4000244140625</ele>
        <time>2026-08-21T17:52:00.000Z</time>
        <extensions>
          <ns3:TrackPointExtension>
            <ns3:hr>146</ns3:hr>
            <ns3:cad>41</ns3:cad>
          </ns3:TrackPointExtension>
        </extensions>
      </trkpt>
      <trkpt lat="45.33544451929628849029541015625" lon="-70.950903631746768951416015625">
        <ele>801.5999755859375</ele>
        <time>2026-08-21T17:52:01.000Z</time>
        <extensions>
          <ns3:TrackPointExtension>
            <ns3:hr>148</ns3:hr>
            <ns3:cad>41</ns3:cad>
          </ns3:TrackPointExtension>
        </extensions>
      </trkpt>
      <trkpt lat="45.33545357175171375274658203125" lon="-70.95090991817414760589599609375">
        <ele>801.79998779296875</ele>
        <time>2026-08-21T17:52:02.000Z</time>
        <extensions>
          <ns3:TrackPointExtension>
            <ns3:hr>149</ns3:hr>
            <ns3:cad>42</ns3:cad>
          </ns3:TrackPointExtension>
        </extensions>
      </trkpt>
      <trkpt lat="45.335464887320995330810546875" lon="-70.95091477967798709869384765625">
        <ele>801.79998779296875</ele>
        <time>2026-08-21T17:52:03.000Z</time>
        <extensions>
          <ns3:TrackPointExtension>
            <ns3:hr>149</ns3:hr>
            <ns3:cad>42</ns3:cad>
          </ns3:TrackPointExtension>
        </extensions>
      </trkpt>
      <trkpt lat="45.33547603525221347808837890625" lon="-70.9509162046015262603759765625">
        <ele>802</ele>
        <time>2026-08-21T17:52:04.000Z</time>
        <extensions>
          <ns3:TrackPointExtension>
            <ns3:hr>150</ns3:hr>
            <ns3:cad>43</ns3:cad>
          </ns3:TrackPointExtension>
        </extensions>
      </trkpt>
      <trkpt lat="45.3354871831834316253662109375" lon="-70.950916707515716552734375">
        <ele>802.20001220703125</ele>
        <time>2026-08-21T17:52:05.000Z</time>
        <extensions>
          <ns3:TrackPointExtension>
            <ns3:hr>149</ns3:hr>
            <ns3:cad>43</ns3:cad>
          </ns3:TrackPointExtension>
        </extensions>
      </trkpt>
      <trkpt lat="45.3354962356388568878173828125" lon="-70.95091578550636768341064453125">
        <ele>802.20001220703125</ele>
        <time>2026-08-21T17:52:06.000Z</time>
        <extensions>
          <ns3:TrackPointExtension>
            <ns3:hr>149</ns3:hr>
            <ns3:cad>43</ns3:cad>
          </ns3:TrackPointExtension>
        </extensions>
      </trkpt>
      <trkpt lat="45.3355042822659015655517578125" lon="-70.95091226510703563690185546875">
        <ele>802.20001220703125</ele>
        <time>2026-08-21T17:52:07.000Z</time>
        <extensions>
          <ns3:TrackPointExtension>
            <ns3:hr>150</ns3:hr>
            <ns3:cad>43</ns3:cad>
          </ns3:TrackPointExtension>
        </extensions>
      </trkpt>
      <trkpt lat="45.3355176933109760284423828125" lon="-70.95091226510703563690185546875">
        <ele>802.4000244140625</ele>
        <time>2026-08-21T17:52:08.000Z</time>
        <extensions>
          <ns3:TrackPointExtension>
            <ns3:hr>150</ns3:hr>
            <ns3:cad>50</ns3:cad>
          </ns3:TrackPointExtension>
        </extensions>
      </trkpt>
      <trkpt lat="45.33553303219377994537353515625" lon="-70.95091578550636768341064453125">
        <ele>802.4000244140625</ele>
        <time>2026-08-21T17:52:09.000Z</time>
        <extensions>
          <ns3:TrackPointExtension>
            <ns3:hr>150</ns3:hr>
            <ns3:cad>50</ns3:cad>
          </ns3:TrackPointExtension>
        </extensions>
      </trkpt>
      <trkpt lat="45.33554367721080780029296875" lon="-70.95091176219284534454345703125">
        <ele>802.5999755859375</ele>
        <time>2026-08-21T17:52:10.000Z</time>
        <extensions>
          <ns3:TrackPointExtension>
            <ns3:hr>150</ns3:hr>
            <ns3:cad>50</ns3:cad>
          </ns3:TrackPointExtension>
        </extensions>
      </trkpt>
      <trkpt lat="45.3355537354946136474609375" lon="-70.95091092400252819061279296875">
        <ele>802.79998779296875</ele>
        <time>2026-08-21T17:52:11.000Z</time>
        <extensions>
          <ns3:TrackPointExtension>
            <ns3:hr>150</ns3:hr>
            <ns3:cad>48</ns3:cad>
          </ns3:TrackPointExtension>
        </extensions>
      </trkpt>
      <trkpt lat="45.33556723035871982574462890625" lon="-70.95090690068900585174560546875">
        <ele>803</ele>
        <time>2026-08-21T17:52:12.000Z</time>
        <extensions>
          <ns3:TrackPointExtension>
            <ns3:hr>150</ns3:hr>
            <ns3:cad>48</ns3:cad>
          </ns3:TrackPointExtension>
        </extensions>
      </trkpt>
      <trkpt lat="45.33557443879544734954833984375" lon="-70.950908996164798736572265625">
        <ele>803.20001220703125</ele>
        <time>2026-08-21T17:52:13.000Z</time>
        <extensions>
          <ns3:TrackPointExtension>
            <ns3:hr>149</ns3:hr>
            <ns3:cad>48</ns3:cad>
          </ns3:TrackPointExtension>
        </extensions>
      </trkpt>
      <trkpt lat="45.3355867601931095123291015625" lon="-70.9509004466235637664794921875">
        <ele>803.20001220703125</ele>
        <time>2026-08-21T17:52:14.000Z</time>
        <extensions>
          <ns3:TrackPointExtension>
            <ns3:hr>149</ns3:hr>
            <ns3:cad>48</ns3:cad>
          </ns3:TrackPointExtension>
        </extensions>
      </trkpt>
      <trkpt lat="45.3356011770665645599365234375" lon="-70.95089432783424854278564453125">
        <ele>803.20001220703125</ele>
        <time>2026-08-21T17:52:15.000Z</time>
        <extensions>
          <ns3:TrackPointExtension>
            <ns3:hr>149</ns3:hr>
            <ns3:cad>48</ns3:cad>
          </ns3:TrackPointExtension>
        </extensions>
      </trkpt>
      <trkpt lat="45.33560897223651409149169921875" lon="-70.950889550149440765380859375">
        <ele>803.4000244140625</ele>
        <time>2026-08-21T17:52:16.000Z</time>
        <extensions>
          <ns3:TrackPointExtension>
            <ns3:hr>149</ns3:hr>
            <ns3:cad>48</ns3:cad>
          </ns3:TrackPointExtension>
        </extensions>
      </trkpt>
      <trkpt lat="45.3356181085109710693359375" lon="-70.95088946633040904998779296875">
        <ele>803.4000244140625</ele>
        <time>2026-08-21T17:52:17.000Z</time>
        <extensions>
          <ns3:TrackPointExtension>
            <ns3:hr>148</ns3:hr>
            <ns3:cad>48</ns3:cad>
          </ns3:TrackPointExtension>
        </extensions>
      </trkpt>
      <trkpt lat="45.3356315195560455322265625" lon="-70.95088946633040904998779296875">
        <ele>803.4000244140625</ele>
        <time>2026-08-21T17:52:18.000Z</time>
        <extensions>
          <ns3:TrackPointExtension>
            <ns3:hr>149</ns3:hr>
            <ns3:cad>47</ns3:cad>
          </ns3:TrackPointExtension>
        </extensions>
      </trkpt>
      <trkpt lat="45.33564032055437564849853515625" lon="-70.95088963396847248077392578125">
        <ele>803.5999755859375</ele>
        <time>2026-08-21T17:52:19.000Z</time>
        <extensions>
          <ns3:TrackPointExtension>
            <ns3:hr>149</ns3:hr>
            <ns3:cad>50</ns3:cad>
          </ns3:TrackPointExtension>
        </extensions>
      </trkpt>
      <trkpt lat="45.33565725199878215789794921875" lon="-70.95089181326329708099365234375">
        <ele>803.5999755859375</ele>
        <time>2026-08-21T17:52:20.000Z</time>
        <extensions>
          <ns3:TrackPointExtension>
            <ns3:hr>148</ns3:hr>
            <ns3:cad>50</ns3:cad>
          </ns3:TrackPointExtension>
        </extensions>
      </trkpt>
      <trkpt lat="45.33566839993000030517578125" lon="-70.9508930705487728118896484375">
        <ele>803.79998779296875</ele>
        <time>2026-08-21T17:52:21.000Z</time>
        <extensions>
          <ns3:TrackPointExtension>
            <ns3:hr>148</ns3:hr>
            <ns3:cad>50</ns3:cad>
          </ns3:TrackPointExtension>
        </extensions>
      </trkpt>
      <trkpt lat="45.3356860019266605377197265625" lon="-70.9508897177875041961669921875">
        <ele>803.79998779296875</ele>
        <time>2026-08-21T17:52:22.000Z</time>
        <extensions>
          <ns3:TrackPointExtension>
            <ns3:hr>148</ns3:hr>
            <ns3:cad>50</ns3:cad>
          </ns3:TrackPointExtension>
        </extensions>
      </trkpt>
      <trkpt lat="45.3357024304568767547607421875" lon="-70.9508885443210601806640625">
        <ele>804</ele>
        <time>2026-08-21T17:52:23.000Z</time>
        <extensions>
          <ns3:TrackPointExtension>
            <ns3:hr>147</ns3:hr>
            <ns3:cad>52</ns3:cad>
          </ns3:TrackPointExtension>
        </extensions>
      </trkpt>
      <trkpt lat="45.33571693114936351776123046875" lon="-70.95088913105428218841552734375">
        <ele>804</ele>
        <time>2026-08-21T17:52:24.000Z</time>
        <extensions>
          <ns3:TrackPointExtension>
            <ns3:hr>146</ns3:hr>
            <ns3:cad>52</ns3:cad>
          </ns3:TrackPointExtension>
        </extensions>
      </trkpt>
      <trkpt lat="45.33573268912732601165771484375" lon="-70.9508897177875041961669921875">
        <ele>804</ele>
        <time>2026-08-21T17:52:25.000Z</time>
        <extensions>
          <ns3:TrackPointExtension>
            <ns3:hr>146</ns3:hr>
            <ns3:cad>52</ns3:cad>
          </ns3:TrackPointExtension>
        </extensions>
      </trkpt>
      <trkpt lat="45.33574618399143218994140625" lon="-70.95088787376880645751953125">
        <ele>804</ele>
        <time>2026-08-21T17:52:26.000Z</time>
        <extensions>
          <ns3:TrackPointExtension>
            <ns3:hr>146</ns3:hr>
            <ns3:cad>51</ns3:cad>
          </ns3:TrackPointExtension>
        </extensions>
      </trkpt>
      <trkpt lat="45.335761606693267822265625" lon="-70.9508840180933475494384765625">
        <ele>804</ele>
        <time>2026-08-21T17:52:27.000Z</time>
        <extensions>
          <ns3:TrackPointExtension>
            <ns3:hr>146</ns3:hr>
            <ns3:cad>51</ns3:cad>
          </ns3:TrackPointExtension>
        </extensions>
      </trkpt>
      <trkpt lat="45.33577342517673969268798828125" lon="-70.9508763067424297332763671875">
        <ele>804</ele>
        <time>2026-08-21T17:52:28.000Z</time>
        <extensions>
          <ns3:TrackPointExtension>
            <ns3:hr>145</ns3:hr>
            <ns3:cad>55</ns3:cad>
          </ns3:TrackPointExtension>
        </extensions>
      </trkpt>
      <trkpt lat="45.335786752402782440185546875" lon="-70.95086767338216304779052734375">
        <ele>803.79998779296875</ele>
        <time>2026-08-21T17:52:29.000Z</time>
        <extensions>
          <ns3:TrackPointExtension>
            <ns3:hr>145</ns3:hr>
            <ns3:cad>55</ns3:cad>
          </ns3:TrackPointExtension>
        </extensions>
      </trkpt>
      <trkpt lat="45.3357989899814128875732421875" lon="-70.95086063258349895477294921875">
        <ele>803.79998779296875</ele>
        <time>2026-08-21T17:52:30.000Z</time>
        <extensions>
          <ns3:TrackPointExtension>
            <ns3:hr>144</ns3:hr>
            <ns3:cad>55</ns3:cad>
          </ns3:TrackPointExtension>
        </extensions>
      </trkpt>
      <trkpt lat="45.33581147901713848114013671875" lon="-70.95085459761321544647216796875">
        <ele>804</ele>
        <time>2026-08-21T17:52:31.000Z</time>
        <extensions>
          <ns3:TrackPointExtension>
            <ns3:hr>143</ns3:hr>
            <ns3:cad>54</ns3:cad>
          </ns3:TrackPointExtension>
        </extensions>
      </trkpt>
      <trkpt lat="45.33582396805286407470703125" lon="-70.95084889791905879974365234375">
        <ele>804</ele>
        <time>2026-08-21T17:52:32.000Z</time>
        <extensions>
          <ns3:TrackPointExtension>
            <ns3:hr>143</ns3:hr>
            <ns3:cad>54</ns3:cad>
          </ns3:TrackPointExtension>
        </extensions>
      </trkpt>
      <trkpt lat="45.335835702717304229736328125" lon="-70.95084018073976039886474609375">
        <ele>804</ele>
        <time>2026-08-21T17:52:33.000Z</time>
        <extensions>
          <ns3:TrackPointExtension>
            <ns3:hr>142</ns3:hr>
            <ns3:cad>55</ns3:cad>
          </ns3:TrackPointExtension>
        </extensions>
      </trkpt>
      <trkpt lat="45.33584835939109325408935546875" lon="-70.95083867199718952178955078125">
        <ele>804</ele>
        <time>2026-08-21T17:52:34.000Z</time>
        <extensions>
          <ns3:TrackPointExtension>
            <ns3:hr>142</ns3:hr>
            <ns3:cad>55</ns3:cad>
          </ns3:TrackPointExtension>
        </extensions>
      </trkpt>
      <trkpt lat="45.33586084842681884765625" lon="-70.9508364088833332061767578125">
        <ele>804</ele>
        <time>2026-08-21T17:52:35.000Z</time>
        <extensions>
          <ns3:TrackPointExtension>
            <ns3:hr>142</ns3:hr>
            <ns3:cad>55</ns3:cad>
          </ns3:TrackPointExtension>
        </extensions>
      </trkpt>
      <trkpt lat="45.335874259471893310546875" lon="-70.950836241245269775390625">
        <ele>804</ele>
        <time>2026-08-21T17:52:36.000Z</time>
        <extensions>
          <ns3:TrackPointExtension>
            <ns3:hr>142</ns3:hr>
            <ns3:cad>54</ns3:cad>
          </ns3:TrackPointExtension>
        </extensions>
      </trkpt>
      <trkpt lat="45.3358868323266506195068359375" lon="-70.95083213411271572113037109375">
        <ele>804</ele>
        <time>2026-08-21T17:52:37.000Z</time>
        <extensions>
          <ns3:TrackPointExtension>
            <ns3:hr>141</ns3:hr>
            <ns3:cad>54</ns3:cad>
          </ns3:TrackPointExtension>
        </extensions>
      </trkpt>
      <trkpt lat="45.3358985669910907745361328125" lon="-70.95082559622824192047119140625">
        <ele>804</ele>
        <time>2026-08-21T17:52:38.000Z</time>
        <extensions>
          <ns3:TrackPointExtension>
            <ns3:hr>141</ns3:hr>
            <ns3:cad>55</ns3:cad>
          </ns3:TrackPointExtension>
        </extensions>
      </trkpt>
      <trkpt lat="45.33591139130294322967529296875" lon="-70.95082526095211505889892578125">
        <ele>804</ele>
        <time>2026-08-21T17:52:39.000Z</time>
        <extensions>
          <ns3:TrackPointExtension>
            <ns3:hr>140</ns3:hr>
            <ns3:cad>55</ns3:cad>
          </ns3:TrackPointExtension>
        </extensions>
      </trkpt>
      <trkpt lat="45.33592597581446170806884765625" lon="-70.95082358457148075103759765625">
        <ele>804</ele>
        <time>2026-08-21T17:52:40.000Z</time>
        <extensions>
          <ns3:TrackPointExtension>
            <ns3:hr>140</ns3:hr>
            <ns3:cad>55</ns3:cad>
          </ns3:TrackPointExtension>
        </extensions>
      </trkpt>
      <trkpt lat="45.33593938685953617095947265625" lon="-70.9508253447711467742919921875">
        <ele>804</ele>
        <time>2026-08-21T17:52:41.000Z</time>
        <extensions>
          <ns3:TrackPointExtension>
            <ns3:hr>140</ns3:hr>
            <ns3:cad>55</ns3:cad>
          </ns3:TrackPointExtension>
        </extensions>
      </trkpt>
      <trkpt lat="45.335953049361705780029296875" lon="-70.95082509331405162811279296875">
        <ele>804</ele>
        <time>2026-08-21T17:52:42.000Z</time>
        <extensions>
          <ns3:TrackPointExtension>
            <ns3:hr>140</ns3:hr>
            <ns3:cad>55</ns3:cad>
          </ns3:TrackPointExtension>
        </extensions>
      </trkpt>
      <trkpt lat="45.33596822060644626617431640625" lon="-70.9508240036666393280029296875">
        <ele>804</ele>
        <time>2026-08-21T17:52:43.000Z</time>
        <extensions>
          <ns3:TrackPointExtension>
            <ns3:hr>139</ns3:hr>
            <ns3:cad>55</ns3:cad>
          </ns3:TrackPointExtension>
        </extensions>
      </trkpt>
      <trkpt lat="45.33598246984183788299560546875" lon="-70.95082391984760761260986328125">
        <ele>804</ele>
        <time>2026-08-21T17:52:44.000Z</time>
        <extensions>
          <ns3:TrackPointExtension>
            <ns3:hr>138</ns3:hr>
            <ns3:cad>55</ns3:cad>
          </ns3:TrackPointExtension>
        </extensions>
      </trkpt>
      <trkpt lat="45.335997641086578369140625" lon="-70.950823836028575897216796875">
        <ele>803.79998779296875</ele>
        <time>2026-08-21T17:52:45.000Z</time>
        <extensions>
          <ns3:TrackPointExtension>
            <ns3:hr>138</ns3:hr>
            <ns3:cad>56</ns3:cad>
          </ns3:TrackPointExtension>
        </extensions>
      </trkpt>
      <trkpt lat="45.3360115550458431243896484375" lon="-70.9508228302001953125">
        <ele>803.79998779296875</ele>
        <time>2026-08-21T17:52:46.000Z</time>
        <extensions>
          <ns3:TrackPointExtension>
            <ns3:hr>138</ns3:hr>
            <ns3:cad>56</ns3:cad>
          </ns3:TrackPointExtension>
        </extensions>
      </trkpt>
      <trkpt lat="45.33602488227188587188720703125" lon="-70.9508243389427661895751953125">
        <ele>803.79998779296875</ele>
        <time>2026-08-21T17:52:47.000Z</time>
        <extensions>
          <ns3:TrackPointExtension>
            <ns3:hr>138</ns3:hr>
            <ns3:cad>56</ns3:cad>
          </ns3:TrackPointExtension>
        </extensions>
      </trkpt>
      <trkpt lat="45.33603963442146778106689453125" lon="-70.9508214890956878662109375">
        <ele>803.5999755859375</ele>
        <time>2026-08-21T17:52:48.000Z</time>
        <extensions>
          <ns3:TrackPointExtension>
            <ns3:hr>138</ns3:hr>
            <ns3:cad>57</ns3:cad>
          </ns3:TrackPointExtension>
        </extensions>
      </trkpt>
      <trkpt lat="45.33605539239943027496337890625" lon="-70.95082174055278301239013671875">
        <ele>803.5999755859375</ele>
        <time>2026-08-21T17:52:49.000Z</time>
        <extensions>
          <ns3:TrackPointExtension>
            <ns3:hr>138</ns3:hr>
            <ns3:cad>57</ns3:cad>
          </ns3:TrackPointExtension>
        </extensions>
      </trkpt>
      <trkpt lat="45.33606897108256816864013671875" lon="-70.95081947743892669677734375">
        <ele>803.5999755859375</ele>
        <time>2026-08-21T17:52:50.000Z</time>
        <extensions>
          <ns3:TrackPointExtension>
            <ns3:hr>137</ns3:hr>
            <ns3:cad>57</ns3:cad>
          </ns3:TrackPointExtension>
        </extensions>
      </trkpt>
      <trkpt lat="45.3360859863460063934326171875" lon="-70.9508188068866729736328125">
        <ele>803.5999755859375</ele>
        <time>2026-08-21T17:52:51.000Z</time>
        <extensions>
          <ns3:TrackPointExtension>
            <ns3:hr>137</ns3:hr>
            <ns3:cad>56</ns3:cad>
          </ns3:TrackPointExtension>
        </extensions>
      </trkpt>
      <trkpt lat="45.33610316924750804901123046875" lon="-70.95081738196313381195068359375">
        <ele>803.5999755859375</ele>
        <time>2026-08-21T17:52:52.000Z</time>
        <extensions>
          <ns3:TrackPointExtension>
            <ns3:hr>137</ns3:hr>
            <ns3:cad>56</ns3:cad>
          </ns3:TrackPointExtension>
        </extensions>
      </trkpt>
      <trkpt lat="45.33611909486353397369384765625" lon="-70.95082123763859272003173828125">
        <ele>803.5999755859375</ele>
        <time>2026-08-21T17:52:53.000Z</time>
        <extensions>
          <ns3:TrackPointExtension>
            <ns3:hr>137</ns3:hr>
            <ns3:cad>56</ns3:cad>
          </ns3:TrackPointExtension>
        </extensions>
      </trkpt>
      <trkpt lat="45.33613384701311588287353515625" lon="-70.9508189745247364044189453125">
        <ele>803.5999755859375</ele>
        <time>2026-08-21T17:52:54.000Z</time>
        <extensions>
          <ns3:TrackPointExtension>
            <ns3:hr>137</ns3:hr>
            <ns3:cad>56</ns3:cad>
          </ns3:TrackPointExtension>
        </extensions>
      </trkpt>
      <trkpt lat="45.33615211956202983856201171875" lon="-70.950820483267307281494140625">
        <ele>803.5999755859375</ele>
        <time>2026-08-21T17:52:55.000Z</time>
        <extensions>
          <ns3:TrackPointExtension>
            <ns3:hr>137</ns3:hr>
            <ns3:cad>56</ns3:cad>
          </ns3:TrackPointExtension>
        </extensions>
      </trkpt>
      <trkpt lat="45.33616536296904087066650390625" lon="-70.95082006417214870452880859375">
        <ele>803.5999755859375</ele>
        <time>2026-08-21T17:52:56.000Z</time>
        <extensions>
          <ns3:TrackPointExtension>
            <ns3:hr>137</ns3:hr>
            <ns3:cad>56</ns3:cad>
          </ns3:TrackPointExtension>
        </extensions>
      </trkpt>
      <trkpt lat="45.336182378232479095458984375" lon="-70.95081872306764125823974609375">
        <ele>803.5999755859375</ele>
        <time>2026-08-21T17:52:57.000Z</time>
        <extensions>
          <ns3:TrackPointExtension>
            <ns3:hr>137</ns3:hr>
            <ns3:cad>56</ns3:cad>
          </ns3:TrackPointExtension>
        </extensions>
      </trkpt>
      <trkpt lat="45.3361999802291393280029296875" lon="-70.9508199803531169891357421875">
        <ele>803.5999755859375</ele>
        <time>2026-08-21T17:52:58.000Z</time>
        <extensions>
          <ns3:TrackPointExtension>
            <ns3:hr>137</ns3:hr>
            <ns3:cad>0</ns3:cad>
          </ns3:TrackPointExtension>
        </extensions>
      </trkpt>
      <trkpt lat="45.33621498383581638336181640625" lon="-70.95081956125795841217041015625">
        <ele>803.5999755859375</ele>
        <time>2026-08-21T17:52:59.000Z</time>
        <extensions>
          <ns3:TrackPointExtension>
            <ns3:hr>137</ns3:hr>
            <ns3:cad>0</ns3:cad>
          </ns3:TrackPointExtension>
        </extensions>
      </trkpt>
      <trkpt lat="45.33623325638473033905029296875" lon="-70.95081754960119724273681640625">
        <ele>803.5999755859375</ele>
        <time>2026-08-21T17:53:00.000Z</time>
        <extensions>
          <ns3:TrackPointExtension>
            <ns3:hr>137</ns3:hr>
            <ns3:cad>0</ns3:cad>
          </ns3:TrackPointExtension>
        </extensions>
      </trkpt>
      <trkpt lat="45.33624817617237567901611328125" lon="-70.950811095535755157470703125">
        <ele>803.79998779296875</ele>
        <time>2026-08-21T17:53:01.000Z</time>
        <extensions>
          <ns3:TrackPointExtension>
            <ns3:hr>137</ns3:hr>
            <ns3:cad>0</ns3:cad>
          </ns3:TrackPointExtension>
        </extensions>
      </trkpt>
      <trkpt lat="45.33626225776970386505126953125" lon="-70.95080866478383541107177734375">
        <ele>803.79998779296875</ele>
        <time>2026-08-21T17:53:02.000Z</time>
        <extensions>
          <ns3:TrackPointExtension>
            <ns3:hr>135</ns3:hr>
            <ns3:cad>0</ns3:cad>
          </ns3:TrackPointExtension>
        </extensions>
      </trkpt>
      <trkpt lat="45.3362787701189517974853515625" lon="-70.950805731117725372314453125">
        <ele>804</ele>
        <time>2026-08-21T17:53:03.000Z</time>
        <extensions>
          <ns3:TrackPointExtension>
            <ns3:hr>133</ns3:hr>
            <ns3:cad>0</ns3:cad>
          </ns3:TrackPointExtension>
        </extensions>
      </trkpt>
      <trkpt lat="45.33628807403147220611572265625" lon="-70.95080363564193248748779296875">
        <ele>804.20001220703125</ele>
        <time>2026-08-21T17:53:04.000Z</time>
        <extensions>
          <ns3:TrackPointExtension>
            <ns3:hr>132</ns3:hr>
            <ns3:cad>0</ns3:cad>
          </ns3:TrackPointExtension>
        </extensions>
      </trkpt>
      <trkpt lat="45.3363002277910709381103515625" lon="-70.9508015401661396026611328125">
        <ele>804.4000244140625</ele>
        <time>2026-08-21T17:53:05.000Z</time>
        <extensions>
          <ns3:TrackPointExtension>
            <ns3:hr>131</ns3:hr>
            <ns3:cad>0</ns3:cad>
          </ns3:TrackPointExtension>
        </extensions>
      </trkpt>
      <trkpt lat="45.33631171099841594696044921875" lon="-70.9508028812706470489501953125">
        <ele>804.5999755859375</ele>
        <time>2026-08-21T17:53:06.000Z</time>
        <extensions>
          <ns3:TrackPointExtension>
            <ns3:hr>130</ns3:hr>
            <ns3:cad>55</ns3:cad>
          </ns3:TrackPointExtension>
        </extensions>
      </trkpt>
      <trkpt lat="45.33632562495768070220947265625" lon="-70.9508032165467739105224609375">
        <ele>804.79998779296875</ele>
        <time>2026-08-21T17:53:07.000Z</time>
        <extensions>
          <ns3:TrackPointExtension>
            <ns3:hr>130</ns3:hr>
            <ns3:cad>55</ns3:cad>
          </ns3:TrackPointExtension>
        </extensions>
      </trkpt>
      <trkpt lat="45.3363317437469959259033203125" lon="-70.95080246217548847198486328125">
        <ele>805</ele>
        <time>2026-08-21T17:53:08.000Z</time>
        <extensions>
          <ns3:TrackPointExtension>
            <ns3:hr>128</ns3:hr>
            <ns3:cad>55</ns3:cad>
          </ns3:TrackPointExtension>
        </extensions>
      </trkpt>
      <trkpt lat="45.33634364604949951171875" lon="-70.95079801976680755615234375">
        <ele>805</ele>
        <time>2026-08-21T17:53:09.000Z</time>
        <extensions>
          <ns3:TrackPointExtension>
            <ns3:hr>125</ns3:hr>
            <ns3:cad>55</ns3:cad>
          </ns3:TrackPointExtension>
        </extensions>
      </trkpt>
      <trkpt lat="45.3363582305610179901123046875" lon="-70.95079542137682437896728515625">
        <ele>805.4000244140625</ele>
        <time>2026-08-21T17:53:10.000Z</time>
        <extensions>
          <ns3:TrackPointExtension>
            <ns3:hr>125</ns3:hr>
            <ns3:cad>52</ns3:cad>
          </ns3:TrackPointExtension>
        </extensions>
      </trkpt>
      <trkpt lat="45.33637105487287044525146484375" lon="-70.9507921524345874786376953125">
        <ele>805.5999755859375</ele>
        <time>2026-08-21T17:53:11.000Z</time>
        <extensions>
          <ns3:TrackPointExtension>
            <ns3:hr>124</ns3:hr>
            <ns3:cad>52</ns3:cad>
          </ns3:TrackPointExtension>
        </extensions>
      </trkpt>
      <trkpt lat="45.3363840468227863311767578125" lon="-70.95078368671238422393798828125">
        <ele>805.5999755859375</ele>
        <time>2026-08-21T17:53:12.000Z</time>
        <extensions>
          <ns3:TrackPointExtension>
            <ns3:hr>124</ns3:hr>
            <ns3:cad>52</ns3:cad>
          </ns3:TrackPointExtension>
        </extensions>
      </trkpt>
      <trkpt lat="45.33639603294432163238525390625" lon="-70.95077614299952983856201171875">
        <ele>805.79998779296875</ele>
        <time>2026-08-21T17:53:13.000Z</time>
        <extensions>
          <ns3:TrackPointExtension>
            <ns3:hr>125</ns3:hr>
            <ns3:cad>52</ns3:cad>
          </ns3:TrackPointExtension>
        </extensions>
      </trkpt>
      <trkpt lat="45.33641397021710872650146484375" lon="-70.950782597064971923828125">
        <ele>806</ele>
        <time>2026-08-21T17:53:14.000Z</time>
        <extensions>
          <ns3:TrackPointExtension>
            <ns3:hr>127</ns3:hr>
            <ns3:cad>52</ns3:cad>
          </ns3:TrackPointExtension>
        </extensions>
      </trkpt>
      <trkpt lat="45.33642922528088092803955078125" lon="-70.95077949576079845428466796875">
        <ele>806</ele>
        <time>2026-08-21T17:53:15.000Z</time>
        <extensions>
          <ns3:TrackPointExtension>
            <ns3:hr>128</ns3:hr>
            <ns3:cad>52</ns3:cad>
          </ns3:TrackPointExtension>
        </extensions>
      </trkpt>
      <trkpt lat="45.3364442288875579833984375" lon="-70.9507737122476100921630859375">
        <ele>806</ele>
        <time>2026-08-21T17:53:16.000Z</time>
        <extensions>
          <ns3:TrackPointExtension>
            <ns3:hr>128</ns3:hr>
            <ns3:cad>50</ns3:cad>
          </ns3:TrackPointExtension>
        </extensions>
      </trkpt>
      <trkpt lat="45.3364603221416473388671875" lon="-70.9507691860198974609375">
        <ele>806</ele>
        <time>2026-08-21T17:53:17.000Z</time>
        <extensions>
          <ns3:TrackPointExtension>
            <ns3:hr>128</ns3:hr>
            <ns3:cad>50</ns3:cad>
          </ns3:TrackPointExtension>
        </extensions>
      </trkpt>
      <trkpt lat="45.3364762477576732635498046875" lon="-70.95076709054410457611083984375">
        <ele>806</ele>
        <time>2026-08-21T17:53:18.000Z</time>
        <extensions>
          <ns3:TrackPointExtension>
            <ns3:hr>129</ns3:hr>
            <ns3:cad>0</ns3:cad>
          </ns3:TrackPointExtension>
        </extensions>
      </trkpt>
      <trkpt lat="45.33649527467787265777587890625" lon="-70.95076222904026508331298828125">
        <ele>806</ele>
        <time>2026-08-21T17:53:19.000Z</time>
        <extensions>
          <ns3:TrackPointExtension>
            <ns3:hr>129</ns3:hr>
            <ns3:cad>0</ns3:cad>
          </ns3:TrackPointExtension>
        </extensions>
      </trkpt>
      <trkpt lat="45.336516313254833221435546875" lon="-70.9507609717547893524169921875">
        <ele>806</ele>
        <time>2026-08-21T17:53:20.000Z</time>
        <extensions>
          <ns3:TrackPointExtension>
            <ns3:hr>129</ns3:hr>
            <ns3:cad>0</ns3:cad>
          </ns3:TrackPointExtension>
        </extensions>
      </trkpt>
      <trkpt lat="45.3365329094231128692626953125" lon="-70.9507569484412670135498046875">
        <ele>806.20001220703125</ele>
        <time>2026-08-21T17:53:21.000Z</time>
        <extensions>
          <ns3:TrackPointExtension>
            <ns3:hr>129</ns3:hr>
            <ns3:cad>0</ns3:cad>
          </ns3:TrackPointExtension>
        </extensions>
      </trkpt>
      <trkpt lat="45.33655310980975627899169921875" lon="-70.95075082965195178985595703125">
        <ele>806.20001220703125</ele>
        <time>2026-08-21T17:53:22.000Z</time>
        <extensions>
          <ns3:TrackPointExtension>
            <ns3:hr>129</ns3:hr>
            <ns3:cad>0</ns3:cad>
          </ns3:TrackPointExtension>
        </extensions>
      </trkpt>
      <trkpt lat="45.33657900989055633544921875" lon="-70.95073557458817958831787109375">
        <ele>806.20001220703125</ele>
        <time>2026-08-21T17:53:23.000Z</time>
        <extensions>
          <ns3:TrackPointExtension>
            <ns3:hr>129</ns3:hr>
            <ns3:cad>0</ns3:cad>
          </ns3:TrackPointExtension>
        </extensions>
      </trkpt>
      <trkpt lat="45.33659250475466251373291015625" lon="-70.9507254324853420257568359375">
        <ele>806.20001220703125</ele>
        <time>2026-08-21T17:53:24.000Z</time>
        <extensions>
          <ns3:TrackPointExtension>
            <ns3:hr>130</ns3:hr>
            <ns3:cad>0</ns3:cad>
          </ns3:TrackPointExtension>
        </extensions>
      </trkpt>
      <trkpt lat="45.33661228604614734649658203125" lon="-70.9507147036492824554443359375">
        <ele>806.20001220703125</ele>
        <time>2026-08-21T17:53:25.000Z</time>
        <extensions>
          <ns3:TrackPointExtension>
            <ns3:hr>130</ns3:hr>
            <ns3:cad>75</ns3:cad>
          </ns3:TrackPointExtension>
        </extensions>
      </trkpt>
      <trkpt lat="45.33663022331893444061279296875" lon="-70.9507100097835063934326171875">
        <ele>806.20001220703125</ele>
        <time>2026-08-21T17:53:26.000Z</time>
        <extensions>
          <ns3:TrackPointExtension>
            <ns3:hr>130</ns3:hr>
            <ns3:cad>75</ns3:cad>
          </ns3:TrackPointExtension>
        </extensions>
      </trkpt>
      <trkpt lat="45.3366552852094173431396484375" lon="-70.9507140330970287322998046875">
        <ele>806.20001220703125</ele>
        <time>2026-08-21T17:53:27.000Z</time>
        <extensions>
          <ns3:TrackPointExtension>
            <ns3:hr>130</ns3:hr>
            <ns3:cad>75</ns3:cad>
          </ns3:TrackPointExtension>
        </extensions>
      </trkpt>
      <trkpt lat="45.33667263574898242950439453125" lon="-70.95071487128734588623046875">
        <ele>806.20001220703125</ele>
        <time>2026-08-21T17:53:28.000Z</time>
        <extensions>
          <ns3:TrackPointExtension>
            <ns3:hr>130</ns3:hr>
            <ns3:cad>76</ns3:cad>
          </ns3:TrackPointExtension>
        </extensions>
      </trkpt>
      <trkpt lat="45.33669174648821353912353515625" lon="-70.95071277581155300140380859375">
        <ele>806</ele>
        <time>2026-08-21T17:53:29.000Z</time>
        <extensions>
          <ns3:TrackPointExtension>
            <ns3:hr>130</ns3:hr>
            <ns3:cad>76</ns3:cad>
          </ns3:TrackPointExtension>
        </extensions>
      </trkpt>
      <trkpt lat="45.33671068958938121795654296875" lon="-70.9507048130035400390625">
        <ele>806.20001220703125</ele>
        <time>2026-08-21T17:53:30.000Z</time>
        <extensions>
          <ns3:TrackPointExtension>
            <ns3:hr>131</ns3:hr>
            <ns3:cad>76</ns3:cad>
          </ns3:TrackPointExtension>
        </extensions>
      </trkpt>
      <trkpt lat="45.33673114143311977386474609375" lon="-70.95069534145295619964599609375">
        <ele>806.20001220703125</ele>
        <time>2026-08-21T17:53:31.000Z</time>
        <extensions>
          <ns3:TrackPointExtension>
            <ns3:hr>132</ns3:hr>
            <ns3:cad>76</ns3:cad>
          </ns3:TrackPointExtension>
        </extensions>
      </trkpt>
      <trkpt lat="45.3367468155920505523681640625" lon="-70.95068871974945068359375">
        <ele>806.20001220703125</ele>
        <time>2026-08-21T17:53:32.000Z</time>
        <extensions>
          <ns3:TrackPointExtension>
            <ns3:hr>133</ns3:hr>
            <ns3:cad>76</ns3:cad>
          </ns3:TrackPointExtension>
        </extensions>
      </trkpt>
      <trkpt lat="45.3367634117603302001953125" lon="-70.950680337846279144287109375">
        <ele>806.4000244140625</ele>
        <time>2026-08-21T17:53:33.000Z</time>
        <extensions>
          <ns3:TrackPointExtension>
            <ns3:hr>134</ns3:hr>
            <ns3:cad>76</ns3:cad>
          </ns3:TrackPointExtension>
        </extensions>
      </trkpt>
      <trkpt lat="45.3367793373763561248779296875" lon="-70.95067086629569530487060546875">
        <ele>806.4000244140625</ele>
        <time>2026-08-21T17:53:34.000Z</time>
        <extensions>
          <ns3:TrackPointExtension>
            <ns3:hr>135</ns3:hr>
            <ns3:cad>76</ns3:cad>
          </ns3:TrackPointExtension>
        </extensions>
      </trkpt>
      <trkpt lat="45.3367937542498111724853515625" lon="-70.95065795816481113433837890625">
        <ele>806.4000244140625</ele>
        <time>2026-08-21T17:53:35.000Z</time>
        <extensions>
          <ns3:TrackPointExtension>
            <ns3:hr>135</ns3:hr>
            <ns3:cad>76</ns3:cad>
          </ns3:TrackPointExtension>
        </extensions>
      </trkpt>
      <trkpt lat="45.336808003485202789306640625" lon="-70.95064572058618068695068359375">
        <ele>806.5999755859375</ele>
        <time>2026-08-21T17:53:36.000Z</time>
        <extensions>
          <ns3:TrackPointExtension>
            <ns3:hr>135</ns3:hr>
            <ns3:cad>76</ns3:cad>
          </ns3:TrackPointExtension>
        </extensions>
      </trkpt>
      <trkpt lat="45.336817391216754913330078125" lon="-70.950636081397533416748046875">
        <ele>806.5999755859375</ele>
        <time>2026-08-21T17:53:37.000Z</time>
        <extensions>
          <ns3:TrackPointExtension>
            <ns3:hr>135</ns3:hr>
            <ns3:cad>60</ns3:cad>
          </ns3:TrackPointExtension>
        </extensions>
      </trkpt>
      <trkpt lat="45.33683273009955883026123046875" lon="-70.9506258554756641387939453125">
        <ele>806.79998779296875</ele>
        <time>2026-08-21T17:53:38.000Z</time>
        <extensions>
          <ns3:TrackPointExtension>
            <ns3:hr>135</ns3:hr>
            <ns3:cad>60</ns3:cad>
          </ns3:TrackPointExtension>
        </extensions>
      </trkpt>
      <trkpt lat="45.33684052526950836181640625" lon="-70.9506191499531269073486328125">
        <ele>807</ele>
        <time>2026-08-21T17:53:39.000Z</time>
        <extensions>
          <ns3:TrackPointExtension>
            <ns3:hr>135</ns3:hr>
            <ns3:cad>60</ns3:cad>
          </ns3:TrackPointExtension>
        </extensions>
      </trkpt>
      <trkpt lat="45.33684647642076015472412109375" lon="-70.95061428844928741455078125">
        <ele>807.4000244140625</ele>
        <time>2026-08-21T17:53:40.000Z</time>
        <extensions>
          <ns3:TrackPointExtension>
            <ns3:hr>135</ns3:hr>
            <ns3:cad>60</ns3:cad>
          </ns3:TrackPointExtension>
        </extensions>
      </trkpt>
      <trkpt lat="45.3368577919900417327880859375" lon="-70.950605571269989013671875">
        <ele>807.5999755859375</ele>
        <time>2026-08-21T17:53:41.000Z</time>
        <extensions>
          <ns3:TrackPointExtension>
            <ns3:hr>136</ns3:hr>
            <ns3:cad>60</ns3:cad>
          </ns3:TrackPointExtension>
        </extensions>
      </trkpt>
      <trkpt lat="45.33686340786516666412353515625" lon="-70.95060531981289386749267578125">
        <ele>808</ele>
        <time>2026-08-21T17:53:42.000Z</time>
        <extensions>
          <ns3:TrackPointExtension>
            <ns3:hr>136</ns3:hr>
            <ns3:cad>53</ns3:cad>
          </ns3:TrackPointExtension>
        </extensions>
      </trkpt>
      <trkpt lat="45.33687732182443141937255859375" lon="-70.95060431398451328277587890625">
        <ele>808.20001220703125</ele>
        <time>2026-08-21T17:53:43.000Z</time>
        <extensions>
          <ns3:TrackPointExtension>
            <ns3:hr>135</ns3:hr>
            <ns3:cad>53</ns3:cad>
          </ns3:TrackPointExtension>
        </extensions>
      </trkpt>
      <trkpt lat="45.33688352443277835845947265625" lon="-70.9506007097661495208740234375">
        <ele>808.4000244140625</ele>
        <time>2026-08-21T17:53:44.000Z</time>
        <extensions>
          <ns3:TrackPointExtension>
            <ns3:hr>135</ns3:hr>
            <ns3:cad>53</ns3:cad>
          </ns3:TrackPointExtension>
        </extensions>
      </trkpt>
      <trkpt lat="45.33689081668853759765625" lon="-70.9505983628332614898681640625">
        <ele>808.79998779296875</ele>
        <time>2026-08-21T17:53:45.000Z</time>
        <extensions>
          <ns3:TrackPointExtension>
            <ns3:hr>136</ns3:hr>
            <ns3:cad>0</ns3:cad>
          </ns3:TrackPointExtension>
        </extensions>
      </trkpt>
      <trkpt lat="45.3368961811065673828125" lon="-70.95059459097683429718017578125">
        <ele>809</ele>
        <time>2026-08-21T17:53:46.000Z</time>
        <extensions>
          <ns3:TrackPointExtension>
            <ns3:hr>136</ns3:hr>
            <ns3:cad>0</ns3:cad>
          </ns3:TrackPointExtension>
        </extensions>
      </trkpt>
      <trkpt lat="45.336907915771007537841796875" lon="-70.950589813292026519775390625">
        <ele>809.20001220703125</ele>
        <time>2026-08-21T17:53:47.000Z</time>
        <extensions>
          <ns3:TrackPointExtension>
            <ns3:hr>136</ns3:hr>
            <ns3:cad>0</ns3:cad>
          </ns3:TrackPointExtension>
        </extensions>
      </trkpt>
      <trkpt lat="45.33692074008285999298095703125" lon="-70.95058503560721874237060546875">
        <ele>809.5999755859375</ele>
        <time>2026-08-21T17:53:48.000Z</time>
        <extensions>
          <ns3:TrackPointExtension>
            <ns3:hr>136</ns3:hr>
            <ns3:cad>0</ns3:cad>
          </ns3:TrackPointExtension>
        </extensions>
      </trkpt>
      <trkpt lat="45.336933396756649017333984375" lon="-70.9505755640566349029541015625">
        <ele>809.79998779296875</ele>
        <time>2026-08-21T17:53:49.000Z</time>
        <extensions>
          <ns3:TrackPointExtension>
            <ns3:hr>136</ns3:hr>
            <ns3:cad>0</ns3:cad>
          </ns3:TrackPointExtension>
        </extensions>
      </trkpt>
      <trkpt lat="45.33693733625113964080810546875" lon="-70.9505668468773365020751953125">
        <ele>810</ele>
        <time>2026-08-21T17:53:50.000Z</time>
        <extensions>
          <ns3:TrackPointExtension>
            <ns3:hr>136</ns3:hr>
            <ns3:cad>48</ns3:cad>
          </ns3:TrackPointExtension>
        </extensions>
      </trkpt>
      <trkpt lat="45.336949825286865234375" lon="-70.95055720768868923187255859375">
        <ele>810.20001220703125</ele>
        <time>2026-08-21T17:53:51.000Z</time>
        <extensions>
          <ns3:TrackPointExtension>
            <ns3:hr>136</ns3:hr>
            <ns3:cad>48</ns3:cad>
          </ns3:TrackPointExtension>
        </extensions>
      </trkpt>
      <trkpt lat="45.33695879392325878143310546875" lon="-70.95054882578551769256591796875">
        <ele>810.20001220703125</ele>
        <time>2026-08-21T17:53:52.000Z</time>
        <extensions>
          <ns3:TrackPointExtension>
            <ns3:hr>136</ns3:hr>
            <ns3:cad>48</ns3:cad>
          </ns3:TrackPointExtension>
        </extensions>
      </trkpt>
      <trkpt lat="45.336969606578350067138671875" lon="-70.95053960569202899932861328125">
        <ele>810.20001220703125</ele>
        <time>2026-08-21T17:53:53.000Z</time>
        <extensions>
          <ns3:TrackPointExtension>
            <ns3:hr>136</ns3:hr>
            <ns3:cad>0</ns3:cad>
          </ns3:TrackPointExtension>
        </extensions>
      </trkpt>
      <trkpt lat="45.33698377199470996856689453125" lon="-70.950534828007221221923828125">
        <ele>810.20001220703125</ele>
        <time>2026-08-21T17:53:54.000Z</time>
        <extensions>
          <ns3:TrackPointExtension>
            <ns3:hr>138</ns3:hr>
            <ns3:cad>0</ns3:cad>
          </ns3:TrackPointExtension>
        </extensions>
      </trkpt>
      <trkpt lat="45.33699684776365756988525390625" lon="-70.950530804693698883056640625">
        <ele>810</ele>
        <time>2026-08-21T17:53:55.000Z</time>
        <extensions>
          <ns3:TrackPointExtension>
            <ns3:hr>140</ns3:hr>
            <ns3:cad>0</ns3:cad>
          </ns3:TrackPointExtension>
        </extensions>
      </trkpt>
      <trkpt lat="45.3370110131800174713134765625" lon="-70.950526781380176544189453125">
        <ele>809.79998779296875</ele>
        <time>2026-08-21T17:53:56.000Z</time>
        <extensions>
          <ns3:TrackPointExtension>
            <ns3:hr>141</ns3:hr>
            <ns3:cad>0</ns3:cad>
          </ns3:TrackPointExtension>
        </extensions>
      </trkpt>
      <trkpt lat="45.3370244242250919342041015625" lon="-70.950525440275669097900390625">
        <ele>809.79998779296875</ele>
        <time>2026-08-21T17:53:57.000Z</time>
        <extensions>
          <ns3:TrackPointExtension>
            <ns3:hr>143</ns3:hr>
            <ns3:cad>45</ns3:cad>
          </ns3:TrackPointExtension>
        </extensions>
      </trkpt>
      <trkpt lat="45.33704127185046672821044921875" lon="-70.95051907002925872802734375">
        <ele>809.5999755859375</ele>
        <time>2026-08-21T17:53:58.000Z</time>
        <extensions>
          <ns3:TrackPointExtension>
            <ns3:hr>144</ns3:hr>
            <ns3:cad>45</ns3:cad>
          </ns3:TrackPointExtension>
        </extensions>
      </trkpt>
      <trkpt lat="45.33705669455230236053466796875" lon="-70.95050591044127941131591796875">
        <ele>809.4000244140625</ele>
        <time>2026-08-21T17:53:59.000Z</time>
        <extensions>
          <ns3:TrackPointExtension>
            <ns3:hr>144</ns3:hr>
            <ns3:cad>45</ns3:cad>
          </ns3:TrackPointExtension>
        </extensions>
      </trkpt>
      <trkpt lat="45.33707161433994770050048828125" lon="-70.95049568451941013336181640625">
        <ele>809.20001220703125</ele>
        <time>2026-08-21T17:54:00.000Z</time>
        <extensions>
          <ns3:TrackPointExtension>
            <ns3:hr>143</ns3:hr>
            <ns3:cad>45</ns3:cad>
          </ns3:TrackPointExtension>
        </extensions>
      </trkpt>
      <trkpt lat="45.33708301372826099395751953125" lon="-70.9504890628159046173095703125">
        <ele>809.20001220703125</ele>
        <time>2026-08-21T17:54:01.000Z</time>
        <extensions>
          <ns3:TrackPointExtension>
            <ns3:hr>143</ns3:hr>
            <ns3:cad>45</ns3:cad>
          </ns3:TrackPointExtension>
        </extensions>
      </trkpt>
      <trkpt lat="45.33710028044879436492919921875" lon="-70.95047959126532077789306640625">
        <ele>809.20001220703125</ele>
        <time>2026-08-21T17:54:02.000Z</time>
        <extensions>
          <ns3:TrackPointExtension>
            <ns3:hr>143</ns3:hr>
            <ns3:cad>45</ns3:cad>
          </ns3:TrackPointExtension>
        </extensions>
      </trkpt>
      <trkpt lat="45.3371147811412811279296875" lon="-70.95046676695346832275390625">
        <ele>809.20001220703125</ele>
        <time>2026-08-21T17:54:03.000Z</time>
        <extensions>
          <ns3:TrackPointExtension>
            <ns3:hr>142</ns3:hr>
            <ns3:cad>45</ns3:cad>
          </ns3:TrackPointExtension>
        </extensions>
      </trkpt>
      <trkpt lat="45.337129533290863037109375" lon="-70.9504567086696624755859375">
        <ele>809.20001220703125</ele>
        <time>2026-08-21T17:54:04.000Z</time>
        <extensions>
          <ns3:TrackPointExtension>
            <ns3:hr>143</ns3:hr>
            <ns3:cad>71</ns3:cad>
          </ns3:TrackPointExtension>
        </extensions>
      </trkpt>
      <trkpt lat="45.33714629709720611572265625" lon="-70.95044975169003009796142578125">
        <ele>809.20001220703125</ele>
        <time>2026-08-21T17:54:05.000Z</time>
        <extensions>
          <ns3:TrackPointExtension>
            <ns3:hr>143</ns3:hr>
            <ns3:cad>71</ns3:cad>
          </ns3:TrackPointExtension>
        </extensions>
      </trkpt>
      <trkpt lat="45.33716012723743915557861328125" lon="-70.9504448063671588897705078125">
        <ele>809</ele>
        <time>2026-08-21T17:54:06.000Z</time>
        <extensions>
          <ns3:TrackPointExtension>
            <ns3:hr>144</ns3:hr>
            <ns3:cad>71</ns3:cad>
          </ns3:TrackPointExtension>
        </extensions>
      </trkpt>
      <trkpt lat="45.3371818363666534423828125" lon="-70.95044069923460483551025390625">
        <ele>809</ele>
        <time>2026-08-21T17:54:07.000Z</time>
        <extensions>
          <ns3:TrackPointExtension>
            <ns3:hr>143</ns3:hr>
            <ns3:cad>71</ns3:cad>
          </ns3:TrackPointExtension>
        </extensions>
      </trkpt>
      <trkpt lat="45.33720136620104312896728515625" lon="-70.9504364244639873504638671875">
        <ele>808.79998779296875</ele>
        <time>2026-08-21T17:54:08.000Z</time>
        <extensions>
          <ns3:TrackPointExtension>
            <ns3:hr>144</ns3:hr>
            <ns3:cad>71</ns3:cad>
          </ns3:TrackPointExtension>
        </extensions>
      </trkpt>
      <trkpt lat="45.337219052016735076904296875" lon="-70.95043332315981388092041015625">
        <ele>808.79998779296875</ele>
        <time>2026-08-21T17:54:09.000Z</time>
        <extensions>
          <ns3:TrackPointExtension>
            <ns3:hr>143</ns3:hr>
            <ns3:cad>71</ns3:cad>
          </ns3:TrackPointExtension>
        </extensions>
      </trkpt>
      <trkpt lat="45.33723958767950534820556640625" lon="-70.950428880751132965087890625">
        <ele>808.79998779296875</ele>
        <time>2026-08-21T17:54:10.000Z</time>
        <extensions>
          <ns3:TrackPointExtension>
            <ns3:hr>143</ns3:hr>
            <ns3:cad>71</ns3:cad>
          </ns3:TrackPointExtension>
        </extensions>
      </trkpt>
      <trkpt lat="45.33725492656230926513671875" lon="-70.95042108558118343353271484375">
        <ele>809</ele>
        <time>2026-08-21T17:54:11.000Z</time>
        <extensions>
          <ns3:TrackPointExtension>
            <ns3:hr>142</ns3:hr>
            <ns3:cad>71</ns3:cad>
          </ns3:TrackPointExtension>
        </extensions>
      </trkpt>
      <trkpt lat="45.33727562986314296722412109375" lon="-70.9504137933254241943359375">
        <ele>809</ele>
        <time>2026-08-21T17:54:12.000Z</time>
        <extensions>
          <ns3:TrackPointExtension>
            <ns3:hr>142</ns3:hr>
            <ns3:cad>75</ns3:cad>
          </ns3:TrackPointExtension>
        </extensions>
      </trkpt>
      <trkpt lat="45.33729993738234043121337890625" lon="-70.950403399765491485595703125">
        <ele>809.20001220703125</ele>
        <time>2026-08-21T17:54:13.000Z</time>
        <extensions>
          <ns3:TrackPointExtension>
            <ns3:hr>142</ns3:hr>
            <ns3:cad>75</ns3:cad>
          </ns3:TrackPointExtension>
        </extensions>
      </trkpt>
      <trkpt lat="45.33731737174093723297119140625" lon="-70.9503898210823535919189453125">
        <ele>809.20001220703125</ele>
        <time>2026-08-21T17:54:14.000Z</time>
        <extensions>
          <ns3:TrackPointExtension>
            <ns3:hr>141</ns3:hr>
            <ns3:cad>76</ns3:cad>
          </ns3:TrackPointExtension>
        </extensions>
      </trkpt>
      <trkpt lat="45.33733782358467578887939453125" lon="-70.95037867315113544464111328125">
        <ele>809.20001220703125</ele>
        <time>2026-08-21T17:54:15.000Z</time>
        <extensions>
          <ns3:TrackPointExtension>
            <ns3:hr>141</ns3:hr>
            <ns3:cad>76</ns3:cad>
          </ns3:TrackPointExtension>
        </extensions>
      </trkpt>
      <trkpt lat="45.33735659904778003692626953125" lon="-70.95036241225898265838623046875">
        <ele>809.20001220703125</ele>
        <time>2026-08-21T17:54:16.000Z</time>
        <extensions>
          <ns3:TrackPointExtension>
            <ns3:hr>140</ns3:hr>
            <ns3:cad>76</ns3:cad>
          </ns3:TrackPointExtension>
        </extensions>
      </trkpt>
      <trkpt lat="45.33737638033926486968994140625" lon="-70.95035252161324024200439453125">
        <ele>809.20001220703125</ele>
        <time>2026-08-21T17:54:17.000Z</time>
        <extensions>
          <ns3:TrackPointExtension>
            <ns3:hr>139</ns3:hr>
            <ns3:cad>76</ns3:cad>
          </ns3:TrackPointExtension>
        </extensions>
      </trkpt>
      <trkpt lat="45.3373878635466098785400390625" lon="-70.950344391167163848876953125">
        <ele>809.20001220703125</ele>
        <time>2026-08-21T17:54:18.000Z</time>
        <extensions>
          <ns3:TrackPointExtension>
            <ns3:hr>139</ns3:hr>
            <ns3:cad>76</ns3:cad>
          </ns3:TrackPointExtension>
        </extensions>
      </trkpt>
      <trkpt lat="45.33740571700036525726318359375" lon="-70.9503381885588169097900390625">
        <ele>809.4000244140625</ele>
        <time>2026-08-21T17:54:19.000Z</time>
        <extensions>
          <ns3:TrackPointExtension>
            <ns3:hr>138</ns3:hr>
            <ns3:cad>0</ns3:cad>
          </ns3:TrackPointExtension>
        </extensions>
      </trkpt>
      <trkpt lat="45.33742063678801059722900390625" lon="-70.95033324323594570159912109375">
        <ele>809.4000244140625</ele>
        <time>2026-08-21T17:54:20.000Z</time>
        <extensions>
          <ns3:TrackPointExtension>
            <ns3:hr>138</ns3:hr>
            <ns3:cad>0</ns3:cad>
          </ns3:TrackPointExtension>
        </extensions>
      </trkpt>
      <trkpt lat="45.3374326229095458984375" lon="-70.9503341652452945709228515625">
        <ele>809.4000244140625</ele>
        <time>2026-08-21T17:54:21.000Z</time>
        <extensions>
          <ns3:TrackPointExtension>
            <ns3:hr>137</ns3:hr>
            <ns3:cad>0</ns3:cad>
          </ns3:TrackPointExtension>
        </extensions>
      </trkpt>
      <trkpt lat="45.33744561485946178436279296875" lon="-70.95033542253077030181884765625">
        <ele>809.4000244140625</ele>
        <time>2026-08-21T17:54:22.000Z</time>
        <extensions>
          <ns3:TrackPointExtension>
            <ns3:hr>137</ns3:hr>
            <ns3:cad>0</ns3:cad>
          </ns3:TrackPointExtension>
        </extensions>
      </trkpt>
      <trkpt lat="45.33745634369552135467529296875" lon="-70.950334332883358001708984375">
        <ele>809.4000244140625</ele>
        <time>2026-08-21T17:54:23.000Z</time>
        <extensions>
          <ns3:TrackPointExtension>
            <ns3:hr>137</ns3:hr>
            <ns3:cad>0</ns3:cad>
          </ns3:TrackPointExtension>
        </extensions>
      </trkpt>
      <trkpt lat="45.33746858127415180206298828125" lon="-70.95033726654946804046630859375">
        <ele>809.4000244140625</ele>
        <time>2026-08-21T17:54:24.000Z</time>
        <extensions>
          <ns3:TrackPointExtension>
            <ns3:hr>137</ns3:hr>
            <ns3:cad>57</ns3:cad>
          </ns3:TrackPointExtension>
        </extensions>
      </trkpt>
      <trkpt lat="45.33748165704309940338134765625" lon="-70.95033802092075347900390625">
        <ele>809.4000244140625</ele>
        <time>2026-08-21T17:54:25.000Z</time>
        <extensions>
          <ns3:TrackPointExtension>
            <ns3:hr>137</ns3:hr>
            <ns3:cad>57</ns3:cad>
          </ns3:TrackPointExtension>
        </extensions>
      </trkpt>
      <trkpt lat="45.33749657683074474334716796875" lon="-70.95033693127334117889404296875">
        <ele>809.4000244140625</ele>
        <time>2026-08-21T17:54:26.000Z</time>
        <extensions>
          <ns3:TrackPointExtension>
            <ns3:hr>136</ns3:hr>
            <ns3:cad>57</ns3:cad>
          </ns3:TrackPointExtension>
        </extensions>
      </trkpt>
      <trkpt lat="45.33751065842807292938232421875" lon="-70.9503405354917049407958984375">
        <ele>809.5999755859375</ele>
        <time>2026-08-21T17:54:27.000Z</time>
        <extensions>
          <ns3:TrackPointExtension>
            <ns3:hr>136</ns3:hr>
            <ns3:cad>57</ns3:cad>
          </ns3:TrackPointExtension>
        </extensions>
      </trkpt>
      <trkpt lat="45.33752641640603542327880859375" lon="-70.9503536112606525421142578125">
        <ele>809.5999755859375</ele>
        <time>2026-08-21T17:54:28.000Z</time>
        <extensions>
          <ns3:TrackPointExtension>
            <ns3:hr>137</ns3:hr>
            <ns3:cad>57</ns3:cad>
          </ns3:TrackPointExtension>
        </extensions>
      </trkpt>
      <trkpt lat="45.3375404141843318939208984375" lon="-70.95036040060222148895263671875">
        <ele>809.5999755859375</ele>
        <time>2026-08-21T17:54:29.000Z</time>
        <extensions>
          <ns3:TrackPointExtension>
            <ns3:hr>137</ns3:hr>
            <ns3:cad>57</ns3:cad>
          </ns3:TrackPointExtension>
        </extensions>
      </trkpt>
      <trkpt lat="45.33755608834326267242431640625" lon="-70.9503717161715030670166015625">
        <ele>809.5999755859375</ele>
        <time>2026-08-21T17:54:30.000Z</time>
        <extensions>
          <ns3:TrackPointExtension>
            <ns3:hr>137</ns3:hr>
            <ns3:cad>57</ns3:cad>
          </ns3:TrackPointExtension>
        </extensions>
      </trkpt>
      <trkpt lat="45.337571762502193450927734375" lon="-70.95038361847400665283203125">
        <ele>809.79998779296875</ele>
        <time>2026-08-21T17:54:31.000Z</time>
        <extensions>
          <ns3:TrackPointExtension>
            <ns3:hr>137</ns3:hr>
            <ns3:cad>0</ns3:cad>
          </ns3:TrackPointExtension>
        </extensions>
      </trkpt>
      <trkpt lat="45.3375913761556148529052734375" lon="-70.95039568841457366943359375">
        <ele>809.79998779296875</ele>
        <time>2026-08-21T17:54:32.000Z</time>
        <extensions>
          <ns3:TrackPointExtension>
            <ns3:hr>136</ns3:hr>
            <ns3:cad>0</ns3:cad>
          </ns3:TrackPointExtension>
        </extensions>
      </trkpt>
      <trkpt lat="45.33761300146579742431640625" lon="-70.950406081974506378173828125">
        <ele>809.79998779296875</ele>
        <time>2026-08-21T17:54:33.000Z</time>
        <extensions>
          <ns3:TrackPointExtension>
            <ns3:hr>136</ns3:hr>
            <ns3:cad>0</ns3:cad>
          </ns3:TrackPointExtension>
        </extensions>
      </trkpt>
      <trkpt lat="45.33762867562472820281982421875" lon="-70.950415134429931640625">
        <ele>810</ele>
        <time>2026-08-21T17:54:34.000Z</time>
        <extensions>
          <ns3:TrackPointExtension>
            <ns3:hr>135</ns3:hr>
            <ns3:cad>76</ns3:cad>
          </ns3:TrackPointExtension>
        </extensions>
      </trkpt>
      <trkpt lat="45.33764627762138843536376953125" lon="-70.9504272043704986572265625">
        <ele>810</ele>
        <time>2026-08-21T17:54:35.000Z</time>
        <extensions>
          <ns3:TrackPointExtension>
            <ns3:hr>135</ns3:hr>
            <ns3:cad>76</ns3:cad>
          </ns3:TrackPointExtension>
        </extensions>
      </trkpt>
      <trkpt lat="45.3376686573028564453125" lon="-70.95044128596782684326171875">
        <ele>810.20001220703125</ele>
        <time>2026-08-21T17:54:36.000Z</time>
        <extensions>
          <ns3:TrackPointExtension>
            <ns3:hr>135</ns3:hr>
            <ns3:cad>76</ns3:cad>
          </ns3:TrackPointExtension>
        </extensions>
      </trkpt>
      <trkpt lat="45.33768064342439174652099609375" lon="-70.95045142807066440582275390625">
        <ele>810.20001220703125</ele>
        <time>2026-08-21T17:54:37.000Z</time>
        <extensions>
          <ns3:TrackPointExtension>
            <ns3:hr>135</ns3:hr>
            <ns3:cad>76</ns3:cad>
          </ns3:TrackPointExtension>
        </extensions>
      </trkpt>
      <trkpt lat="45.33769958652555942535400390625" lon="-70.9504635818302631378173828125">
        <ele>810.4000244140625</ele>
        <time>2026-08-21T17:54:38.000Z</time>
        <extensions>
          <ns3:TrackPointExtension>
            <ns3:hr>136</ns3:hr>
            <ns3:cad>76</ns3:cad>
          </ns3:TrackPointExtension>
        </extensions>
      </trkpt>
      <trkpt lat="45.3377147577702999114990234375" lon="-70.9504749812185764312744140625">
        <ele>810.4000244140625</ele>
        <time>2026-08-21T17:54:39.000Z</time>
        <extensions>
          <ns3:TrackPointExtension>
            <ns3:hr>135</ns3:hr>
            <ns3:cad>76</ns3:cad>
          </ns3:TrackPointExtension>
        </extensions>
      </trkpt>
      <trkpt lat="45.3377278335392475128173828125" lon="-70.9504942595958709716796875">
        <ele>810.5999755859375</ele>
        <time>2026-08-21T17:54:40.000Z</time>
        <extensions>
          <ns3:TrackPointExtension>
            <ns3:hr>135</ns3:hr>
            <ns3:cad>76</ns3:cad>
          </ns3:TrackPointExtension>
        </extensions>
      </trkpt>
      <trkpt lat="45.33774602226912975311279296875" lon="-70.95051236450672149658203125">
        <ele>810.5999755859375</ele>
        <time>2026-08-21T17:54:41.000Z</time>
        <extensions>
          <ns3:TrackPointExtension>
            <ns3:hr>135</ns3:hr>
            <ns3:cad>76</ns3:cad>
          </ns3:TrackPointExtension>
        </extensions>
      </trkpt>
      <trkpt lat="45.33776345662772655487060546875" lon="-70.95052585937082767486572265625">
        <ele>810.5999755859375</ele>
        <time>2026-08-21T17:54:42.000Z</time>
        <extensions>
          <ns3:TrackPointExtension>
            <ns3:hr>135</ns3:hr>
            <ns3:cad>76</ns3:cad>
          </ns3:TrackPointExtension>
        </extensions>
      </trkpt>
      <trkpt lat="45.337778627872467041015625" lon="-70.950537510216236114501953125">
        <ele>810.79998779296875</ele>
        <time>2026-08-21T17:54:43.000Z</time>
        <extensions>
          <ns3:TrackPointExtension>
            <ns3:hr>136</ns3:hr>
            <ns3:cad>76</ns3:cad>
          </ns3:TrackPointExtension>
        </extensions>
      </trkpt>
      <trkpt lat="45.3377965651452541351318359375" lon="-70.9505534358322620391845703125">
        <ele>810.79998779296875</ele>
        <time>2026-08-21T17:54:44.000Z</time>
        <extensions>
          <ns3:TrackPointExtension>
            <ns3:hr>136</ns3:hr>
            <ns3:cad>75</ns3:cad>
          </ns3:TrackPointExtension>
        </extensions>
      </trkpt>
      <trkpt lat="45.33781819045543670654296875" lon="-70.95056592486798763275146484375">
        <ele>811</ele>
        <time>2026-08-21T17:54:45.000Z</time>
        <extensions>
          <ns3:TrackPointExtension>
            <ns3:hr>136</ns3:hr>
            <ns3:cad>75</ns3:cad>
          </ns3:TrackPointExtension>
        </extensions>
      </trkpt>
      <trkpt lat="45.33783386461436748504638671875" lon="-70.950573049485683441162109375">
        <ele>811</ele>
        <time>2026-08-21T17:54:46.000Z</time>
        <extensions>
          <ns3:TrackPointExtension>
            <ns3:hr>137</ns3:hr>
            <ns3:cad>74</ns3:cad>
          </ns3:TrackPointExtension>
        </extensions>
      </trkpt>
      <trkpt lat="45.3378555737435817718505859375" lon="-70.95058386214077472686767578125">
        <ele>811.20001220703125</ele>
        <time>2026-08-21T17:54:47.000Z</time>
        <extensions>
          <ns3:TrackPointExtension>
            <ns3:hr>137</ns3:hr>
            <ns3:cad>74</ns3:cad>
          </ns3:TrackPointExtension>
        </extensions>
      </trkpt>
      <trkpt lat="45.337870158255100250244140625" lon="-70.9505956806242465972900390625">
        <ele>811.20001220703125</ele>
        <time>2026-08-21T17:54:48.000Z</time>
        <extensions>
          <ns3:TrackPointExtension>
            <ns3:hr>137</ns3:hr>
            <ns3:cad>74</ns3:cad>
          </ns3:TrackPointExtension>
        </extensions>
      </trkpt>
      <trkpt lat="45.33788801170885562896728515625" lon="-70.95061051659286022186279296875">
        <ele>811.20001220703125</ele>
        <time>2026-08-21T17:54:49.000Z</time>
        <extensions>
          <ns3:TrackPointExtension>
            <ns3:hr>137</ns3:hr>
            <ns3:cad>74</ns3:cad>
          </ns3:TrackPointExtension>
        </extensions>
      </trkpt>
      <trkpt lat="45.33790259622037410736083984375" lon="-70.9506198205053806304931640625">
        <ele>811.20001220703125</ele>
        <time>2026-08-21T17:54:50.000Z</time>
        <extensions>
          <ns3:TrackPointExtension>
            <ns3:hr>137</ns3:hr>
            <ns3:cad>74</ns3:cad>
          </ns3:TrackPointExtension>
        </extensions>
      </trkpt>
      <trkpt lat="45.33792036585509777069091796875" lon="-70.95062728039920330047607421875">
        <ele>811.20001220703125</ele>
        <time>2026-08-21T17:54:51.000Z</time>
        <extensions>
          <ns3:TrackPointExtension>
            <ns3:hr>136</ns3:hr>
            <ns3:cad>76</ns3:cad>
          </ns3:TrackPointExtension>
        </extensions>
      </trkpt>
      <trkpt lat="45.33793947659432888031005859375" lon="-70.9506362490355968475341796875">
        <ele>811.20001220703125</ele>
        <time>2026-08-21T17:54:52.000Z</time>
        <extensions>
          <ns3:TrackPointExtension>
            <ns3:hr>137</ns3:hr>
            <ns3:cad>77</ns3:cad>
          </ns3:TrackPointExtension>
        </extensions>
      </trkpt>
      <trkpt lat="45.3379531390964984893798828125" lon="-70.95064203254878520965576171875">
        <ele>811.20001220703125</ele>
        <time>2026-08-21T17:54:53.000Z</time>
        <extensions>
          <ns3:TrackPointExtension>
            <ns3:hr>137</ns3:hr>
            <ns3:cad>77</ns3:cad>
          </ns3:TrackPointExtension>
        </extensions>
      </trkpt>
      <trkpt lat="45.33797417767345905303955078125" lon="-70.950649492442607879638671875">
        <ele>811.4000244140625</ele>
        <time>2026-08-21T17:54:54.000Z</time>
        <extensions>
          <ns3:TrackPointExtension>
            <ns3:hr>137</ns3:hr>
            <ns3:cad>77</ns3:cad>
          </ns3:TrackPointExtension>
        </extensions>
      </trkpt>
      <trkpt lat="45.3379920311272144317626953125" lon="-70.950659215450286865234375">
        <ele>811.4000244140625</ele>
        <time>2026-08-21T17:54:55.000Z</time>
        <extensions>
          <ns3:TrackPointExtension>
            <ns3:hr>137</ns3:hr>
            <ns3:cad>77</ns3:cad>
          </ns3:TrackPointExtension>
        </extensions>
      </trkpt>
      <trkpt lat="45.33800862729549407958984375" lon="-70.9506734646856784820556640625">
        <ele>811.4000244140625</ele>
        <time>2026-08-21T17:54:56.000Z</time>
        <extensions>
          <ns3:TrackPointExtension>
            <ns3:hr>137</ns3:hr>
            <ns3:cad>74</ns3:cad>
          </ns3:TrackPointExtension>
        </extensions>
      </trkpt>
      <trkpt lat="45.33802203834056854248046875" lon="-70.9506900608539581298828125">
        <ele>811.5999755859375</ele>
        <time>2026-08-21T17:54:57.000Z</time>
        <extensions>
          <ns3:TrackPointExtension>
            <ns3:hr>137</ns3:hr>
            <ns3:cad>74</ns3:cad>
          </ns3:TrackPointExtension>
        </extensions>
      </trkpt>
      <trkpt lat="45.338036119937896728515625" lon="-70.95070724375545978546142578125">
        <ele>811.5999755859375</ele>
        <time>2026-08-21T17:54:58.000Z</time>
        <extensions>
          <ns3:TrackPointExtension>
            <ns3:hr>137</ns3:hr>
            <ns3:cad>74</ns3:cad>
          </ns3:TrackPointExtension>
        </extensions>
      </trkpt>
      <trkpt lat="45.33805045299232006072998046875" lon="-70.95071981661021709442138671875">
        <ele>811.5999755859375</ele>
        <time>2026-08-21T17:54:59.000Z</time>
        <extensions>
          <ns3:TrackPointExtension>
            <ns3:hr>137</ns3:hr>
            <ns3:cad>76</ns3:cad>
          </ns3:TrackPointExtension>
        </extensions>
      </trkpt>
      <trkpt lat="45.33806252293288707733154296875" lon="-70.95072803087532520294189453125">
        <ele>811.5999755859375</ele>
        <time>2026-08-21T17:55:00.000Z</time>
        <extensions>
          <ns3:TrackPointExtension>
            <ns3:hr>137</ns3:hr>
            <ns3:cad>76</ns3:cad>
          </ns3:TrackPointExtension>
        </extensions>
      </trkpt>
      <trkpt lat="45.3380735032260417938232421875" lon="-70.950739346444606781005859375">
        <ele>811.5999755859375</ele>
        <time>2026-08-21T17:55:01.000Z</time>
        <extensions>
          <ns3:TrackPointExtension>
            <ns3:hr>137</ns3:hr>
            <ns3:cad>76</ns3:cad>
          </ns3:TrackPointExtension>
        </extensions>
      </trkpt>
      <trkpt lat="45.3380818851292133331298828125" lon="-70.9507472254335880279541015625">
        <ele>811.5999755859375</ele>
        <time>2026-08-21T17:55:02.000Z</time>
        <extensions>
          <ns3:TrackPointExtension>
            <ns3:hr>138</ns3:hr>
            <ns3:cad>76</ns3:cad>
          </ns3:TrackPointExtension>
        </extensions>
      </trkpt>
      <trkpt lat="45.338094122707843780517578125" lon="-70.950755774974822998046875">
        <ele>811.5999755859375</ele>
        <time>2026-08-21T17:55:03.000Z</time>
        <extensions>
          <ns3:TrackPointExtension>
            <ns3:hr>138</ns3:hr>
            <ns3:cad>76</ns3:cad>
          </ns3:TrackPointExtension>
        </extensions>
      </trkpt>
      <trkpt lat="45.3381050191819667816162109375" lon="-70.950761139392852783203125">
        <ele>811.5999755859375</ele>
        <time>2026-08-21T17:55:04.000Z</time>
        <extensions>
          <ns3:TrackPointExtension>
            <ns3:hr>138</ns3:hr>
            <ns3:cad>76</ns3:cad>
          </ns3:TrackPointExtension>
        </extensions>
      </trkpt>
      <trkpt lat="45.33812136389315128326416015625" lon="-70.9507691860198974609375">
        <ele>811.5999755859375</ele>
        <time>2026-08-21T17:55:05.000Z</time>
        <extensions>
          <ns3:TrackPointExtension>
            <ns3:hr>138</ns3:hr>
            <ns3:cad>76</ns3:cad>
          </ns3:TrackPointExtension>
        </extensions>
      </trkpt>
      <trkpt lat="45.33813645131886005401611328125" lon="-70.95077346079051494598388671875">
        <ele>811.79998779296875</ele>
        <time>2026-08-21T17:55:06.000Z</time>
        <extensions>
          <ns3:TrackPointExtension>
            <ns3:hr>138</ns3:hr>
            <ns3:cad>76</ns3:cad>
          </ns3:TrackPointExtension>
        </extensions>
      </trkpt>
      <trkpt lat="45.33815078437328338623046875" lon="-70.950780920684337615966796875">
        <ele>811.79998779296875</ele>
        <time>2026-08-21T17:55:07.000Z</time>
        <extensions>
          <ns3:TrackPointExtension>
            <ns3:hr>138</ns3:hr>
            <ns3:cad>54</ns3:cad>
          </ns3:TrackPointExtension>
        </extensions>
      </trkpt>
      <trkpt lat="45.3381640277802944183349609375" lon="-70.95079240389168262481689453125">
        <ele>812</ele>
        <time>2026-08-21T17:55:08.000Z</time>
        <extensions>
          <ns3:TrackPointExtension>
            <ns3:hr>138</ns3:hr>
            <ns3:cad>54</ns3:cad>
          </ns3:TrackPointExtension>
        </extensions>
      </trkpt>
      <trkpt lat="45.33817601390182971954345703125" lon="-70.9508052282035350799560546875">
        <ele>812</ele>
        <time>2026-08-21T17:55:09.000Z</time>
        <extensions>
          <ns3:TrackPointExtension>
            <ns3:hr>138</ns3:hr>
            <ns3:cad>54</ns3:cad>
          </ns3:TrackPointExtension>
        </extensions>
      </trkpt>
      <trkpt lat="45.33818925730884075164794921875" lon="-70.9508119337260723114013671875">
        <ele>812.20001220703125</ele>
        <time>2026-08-21T17:55:10.000Z</time>
        <extensions>
          <ns3:TrackPointExtension>
            <ns3:hr>138</ns3:hr>
            <ns3:cad>54</ns3:cad>
          </ns3:TrackPointExtension>
        </extensions>
      </trkpt>
      <trkpt lat="45.338202081620693206787109375" lon="-70.9508172981441020965576171875">
        <ele>812.20001220703125</ele>
        <time>2026-08-21T17:55:11.000Z</time>
        <extensions>
          <ns3:TrackPointExtension>
            <ns3:hr>138</ns3:hr>
            <ns3:cad>52</ns3:cad>
          </ns3:TrackPointExtension>
        </extensions>
      </trkpt>
      <trkpt lat="45.33821406774222850799560546875" lon="-70.95082090236246585845947265625">
        <ele>812.4000244140625</ele>
        <time>2026-08-21T17:55:12.000Z</time>
        <extensions>
          <ns3:TrackPointExtension>
            <ns3:hr>138</ns3:hr>
            <ns3:cad>52</ns3:cad>
          </ns3:TrackPointExtension>
        </extensions>
      </trkpt>
      <trkpt lat="45.3382223658263683319091796875" lon="-70.95082676969468593597412109375">
        <ele>812.4000244140625</ele>
        <time>2026-08-21T17:55:13.000Z</time>
        <extensions>
          <ns3:TrackPointExtension>
            <ns3:hr>137</ns3:hr>
            <ns3:cad>51</ns3:cad>
          </ns3:TrackPointExtension>
        </extensions>
      </trkpt>
      <trkpt lat="45.33823519013822078704833984375" lon="-70.950832553207874298095703125">
        <ele>812.4000244140625</ele>
        <time>2026-08-21T17:55:14.000Z</time>
        <extensions>
          <ns3:TrackPointExtension>
            <ns3:hr>137</ns3:hr>
            <ns3:cad>55</ns3:cad>
          </ns3:TrackPointExtension>
        </extensions>
      </trkpt>
      <trkpt lat="45.33824776299297809600830078125" lon="-70.95083733089268207550048828125">
        <ele>812.4000244140625</ele>
        <time>2026-08-21T17:55:15.000Z</time>
        <extensions>
          <ns3:TrackPointExtension>
            <ns3:hr>137</ns3:hr>
            <ns3:cad>55</ns3:cad>
          </ns3:TrackPointExtension>
        </extensions>
      </trkpt>
      <trkpt lat="45.33825664781033992767333984375" lon="-70.9508441202342510223388671875">
        <ele>812.4000244140625</ele>
        <time>2026-08-21T17:55:16.000Z</time>
        <extensions>
          <ns3:TrackPointExtension>
            <ns3:hr>137</ns3:hr>
            <ns3:cad>53</ns3:cad>
          </ns3:TrackPointExtension>
        </extensions>
      </trkpt>
      <trkpt lat="45.33826880156993865966796875" lon="-70.95085107721388339996337890625">
        <ele>812.5999755859375</ele>
        <time>2026-08-21T17:55:17.000Z</time>
        <extensions>
          <ns3:TrackPointExtension>
            <ns3:hr>137</ns3:hr>
            <ns3:cad>53</ns3:cad>
          </ns3:TrackPointExtension>
        </extensions>
      </trkpt>
      <trkpt lat="45.33828355371952056884765625" lon="-70.950862728059291839599609375">
        <ele>812.5999755859375</ele>
        <time>2026-08-21T17:55:18.000Z</time>
        <extensions>
          <ns3:TrackPointExtension>
            <ns3:hr>136</ns3:hr>
            <ns3:cad>52</ns3:cad>
          </ns3:TrackPointExtension>
        </extensions>
      </trkpt>
      <trkpt lat="45.3382927738130092620849609375" lon="-70.95087186433374881744384765625">
        <ele>812.5999755859375</ele>
        <time>2026-08-21T17:55:19.000Z</time>
        <extensions>
          <ns3:TrackPointExtension>
            <ns3:hr>136</ns3:hr>
            <ns3:cad>52</ns3:cad>
          </ns3:TrackPointExtension>
        </extensions>
      </trkpt>
      <trkpt lat="45.33830258063971996307373046875" lon="-70.950876139104366302490234375">
        <ele>812.79998779296875</ele>
        <time>2026-08-21T17:55:20.000Z</time>
        <extensions>
          <ns3:TrackPointExtension>
            <ns3:hr>136</ns3:hr>
            <ns3:cad>52</ns3:cad>
          </ns3:TrackPointExtension>
        </extensions>
      </trkpt>
      <trkpt lat="45.3383164107799530029296875" lon="-70.9508830122649669647216796875">
        <ele>812.79998779296875</ele>
        <time>2026-08-21T17:55:21.000Z</time>
        <extensions>
          <ns3:TrackPointExtension>
            <ns3:hr>136</ns3:hr>
            <ns3:cad>52</ns3:cad>
          </ns3:TrackPointExtension>
        </extensions>
      </trkpt>
      <trkpt lat="45.3383299894630908966064453125" lon="-70.9508885443210601806640625">
        <ele>813</ele>
        <time>2026-08-21T17:55:22.000Z</time>
        <extensions>
          <ns3:TrackPointExtension>
            <ns3:hr>135</ns3:hr>
            <ns3:cad>52</ns3:cad>
          </ns3:TrackPointExtension>
        </extensions>
      </trkpt>
      <trkpt lat="45.33834080211818218231201171875" lon="-70.9508954174816608428955078125">
        <ele>813</ele>
        <time>2026-08-21T17:55:23.000Z</time>
        <extensions>
          <ns3:TrackPointExtension>
            <ns3:hr>135</ns3:hr>
            <ns3:cad>54</ns3:cad>
          </ns3:TrackPointExtension>
        </extensions>
      </trkpt>
      <trkpt lat="45.33835287205874919891357421875" lon="-70.95090488903224468231201171875">
        <ele>813</ele>
        <time>2026-08-21T17:55:24.000Z</time>
        <extensions>
          <ns3:TrackPointExtension>
            <ns3:hr>135</ns3:hr>
            <ns3:cad>54</ns3:cad>
          </ns3:TrackPointExtension>
        </extensions>
      </trkpt>
      <trkpt lat="45.33836058340966701507568359375" lon="-70.95091628842055797576904296875">
        <ele>813.20001220703125</ele>
        <time>2026-08-21T17:55:25.000Z</time>
        <extensions>
          <ns3:TrackPointExtension>
            <ns3:hr>134</ns3:hr>
            <ns3:cad>54</ns3:cad>
          </ns3:TrackPointExtension>
        </extensions>
      </trkpt>
      <trkpt lat="45.338373072445392608642578125" lon="-70.9509276039898395538330078125">
        <ele>813.4000244140625</ele>
        <time>2026-08-21T17:55:26.000Z</time>
        <extensions>
          <ns3:TrackPointExtension>
            <ns3:hr>135</ns3:hr>
            <ns3:cad>54</ns3:cad>
          </ns3:TrackPointExtension>
        </extensions>
      </trkpt>
      <trkpt lat="45.33838220871984958648681640625" lon="-70.95092944800853729248046875">
        <ele>813.4000244140625</ele>
        <time>2026-08-21T17:55:27.000Z</time>
        <extensions>
          <ns3:TrackPointExtension>
            <ns3:hr>135</ns3:hr>
            <ns3:cad>54</ns3:cad>
          </ns3:TrackPointExtension>
        </extensions>
      </trkpt>
      <trkpt lat="45.33839997835457324981689453125" lon="-70.95093992538750171661376953125">
        <ele>813.79998779296875</ele>
        <time>2026-08-21T17:55:28.000Z</time>
        <extensions>
          <ns3:TrackPointExtension>
            <ns3:hr>135</ns3:hr>
            <ns3:cad>56</ns3:cad>
          </ns3:TrackPointExtension>
        </extensions>
      </trkpt>
      <trkpt lat="45.33840735442936420440673828125" lon="-70.950942523777484893798828125">
        <ele>814</ele>
        <time>2026-08-21T17:55:29.000Z</time>
        <extensions>
          <ns3:TrackPointExtension>
            <ns3:hr>136</ns3:hr>
            <ns3:cad>55</ns3:cad>
          </ns3:TrackPointExtension>
        </extensions>
      </trkpt>
      <trkpt lat="45.3384161554276943206787109375" lon="-70.950948894023895263671875">
        <ele>814.20001220703125</ele>
        <time>2026-08-21T17:55:30.000Z</time>
        <extensions>
          <ns3:TrackPointExtension>
            <ns3:hr>136</ns3:hr>
            <ns3:cad>55</ns3:cad>
          </ns3:TrackPointExtension>
        </extensions>
      </trkpt>
      <trkpt lat="45.33842361532151699066162109375" lon="-70.95095484517514705657958984375">
        <ele>814.5999755859375</ele>
        <time>2026-08-21T17:55:31.000Z</time>
        <extensions>
          <ns3:TrackPointExtension>
            <ns3:hr>136</ns3:hr>
            <ns3:cad>52</ns3:cad>
          </ns3:TrackPointExtension>
        </extensions>
      </trkpt>
      <trkpt lat="45.338428728282451629638671875" lon="-70.9509636461734771728515625">
        <ele>814.79998779296875</ele>
        <time>2026-08-21T17:55:32.000Z</time>
        <extensions>
          <ns3:TrackPointExtension>
            <ns3:hr>136</ns3:hr>
            <ns3:cad>52</ns3:cad>
          </ns3:TrackPointExtension>
        </extensions>
      </trkpt>
      <trkpt lat="45.33843107521533966064453125" lon="-70.95097261480987071990966796875">
        <ele>815</ele>
        <time>2026-08-21T17:55:33.000Z</time>
        <extensions>
          <ns3:TrackPointExtension>
            <ns3:hr>136</ns3:hr>
            <ns3:cad>52</ns3:cad>
          </ns3:TrackPointExtension>
        </extensions>
      </trkpt>
      <trkpt lat="45.33842998556792736053466796875" lon="-70.95097906887531280517578125">
        <ele>815.4000244140625</ele>
        <time>2026-08-21T17:55:34.000Z</time>
        <extensions>
          <ns3:TrackPointExtension>
            <ns3:hr>137</ns3:hr>
            <ns3:cad>52</ns3:cad>
          </ns3:TrackPointExtension>
        </extensions>
      </trkpt>
      <trkpt lat="45.33843283541500568389892578125" lon="-70.9509802423417568206787109375">
        <ele>815.5999755859375</ele>
        <time>2026-08-21T17:55:35.000Z</time>
        <extensions>
          <ns3:TrackPointExtension>
            <ns3:hr>136</ns3:hr>
            <ns3:cad>52</ns3:cad>
          </ns3:TrackPointExtension>
        </extensions>
      </trkpt>
      <trkpt lat="45.338436774909496307373046875" lon="-70.95098719932138919830322265625">
        <ele>815.79998779296875</ele>
        <time>2026-08-21T17:55:36.000Z</time>
        <extensions>
          <ns3:TrackPointExtension>
            <ns3:hr>136</ns3:hr>
            <ns3:cad>52</ns3:cad>
          </ns3:TrackPointExtension>
        </extensions>
      </trkpt>
      <trkpt lat="45.33844021148979663848876953125" lon="-70.95098845660686492919921875">
        <ele>816.20001220703125</ele>
        <time>2026-08-21T17:55:37.000Z</time>
        <extensions>
          <ns3:TrackPointExtension>
            <ns3:hr>137</ns3:hr>
            <ns3:cad>52</ns3:cad>
          </ns3:TrackPointExtension>
        </extensions>
      </trkpt>
      <trkpt lat="45.33844607882201671600341796875" lon="-70.95099918544292449951171875">
        <ele>816.4000244140625</ele>
        <time>2026-08-21T17:55:38.000Z</time>
        <extensions>
          <ns3:TrackPointExtension>
            <ns3:hr>137</ns3:hr>
            <ns3:cad>47</ns3:cad>
          </ns3:TrackPointExtension>
        </extensions>
      </trkpt>
      <trkpt lat="45.33844591118395328521728515625" lon="-70.9510013647377490997314453125">
        <ele>816.79998779296875</ele>
        <time>2026-08-21T17:55:39.000Z</time>
        <extensions>
          <ns3:TrackPointExtension>
            <ns3:hr>137</ns3:hr>
            <ns3:cad>0</ns3:cad>
          </ns3:TrackPointExtension>
        </extensions>
      </trkpt>
      <trkpt lat="45.338454544544219970703125" lon="-70.9510119259357452392578125">
        <ele>817</ele>
        <time>2026-08-21T17:55:40.000Z</time>
        <extensions>
          <ns3:TrackPointExtension>
            <ns3:hr>138</ns3:hr>
            <ns3:cad>0</ns3:cad>
          </ns3:TrackPointExtension>
        </extensions>
      </trkpt>
      <trkpt lat="45.33846384845674037933349609375" lon="-70.95101972110569477081298828125">
        <ele>817.4000244140625</ele>
        <time>2026-08-21T17:55:41.000Z</time>
        <extensions>
          <ns3:TrackPointExtension>
            <ns3:hr>138</ns3:hr>
            <ns3:cad>0</ns3:cad>
          </ns3:TrackPointExtension>
        </extensions>
      </trkpt>
      <trkpt lat="45.33846317790448665618896484375" lon="-70.95102005638182163238525390625">
        <ele>817.5999755859375</ele>
        <time>2026-08-21T17:55:42.000Z</time>
        <extensions>
          <ns3:TrackPointExtension>
            <ns3:hr>138</ns3:hr>
            <ns3:cad>0</ns3:cad>
          </ns3:TrackPointExtension>
        </extensions>
      </trkpt>
      <trkpt lat="45.3384677879512310028076171875" lon="-70.95103204250335693359375">
        <ele>817.79998779296875</ele>
        <time>2026-08-21T17:55:43.000Z</time>
        <extensions>
          <ns3:TrackPointExtension>
            <ns3:hr>138</ns3:hr>
            <ns3:cad>43</ns3:cad>
          </ns3:TrackPointExtension>
        </extensions>
      </trkpt>
      <trkpt lat="45.33846770413219928741455078125" lon="-70.951036401093006134033203125">
        <ele>818</ele>
        <time>2026-08-21T17:55:44.000Z</time>
        <extensions>
          <ns3:TrackPointExtension>
            <ns3:hr>138</ns3:hr>
            <ns3:cad>43</ns3:cad>
          </ns3:TrackPointExtension>
        </extensions>
      </trkpt>
      <trkpt lat="45.3384768404066562652587890625" lon="-70.95105308108031749725341796875">
        <ele>818.4000244140625</ele>
        <time>2026-08-21T17:55:45.000Z</time>
        <extensions>
          <ns3:TrackPointExtension>
            <ns3:hr>139</ns3:hr>
            <ns3:cad>43</ns3:cad>
          </ns3:TrackPointExtension>
        </extensions>
      </trkpt>
      <trkpt lat="45.3384828753769397735595703125" lon="-70.95106313936412334442138671875">
        <ele>818.5999755859375</ele>
        <time>2026-08-21T17:55:46.000Z</time>
        <extensions>
          <ns3:TrackPointExtension>
            <ns3:hr>139</ns3:hr>
            <ns3:cad>43</ns3:cad>
          </ns3:TrackPointExtension>
        </extensions>
      </trkpt>
      <trkpt lat="45.33849050290882587432861328125" lon="-70.9510721080005168914794921875">
        <ele>818.79998779296875</ele>
        <time>2026-08-21T17:55:47.000Z</time>
        <extensions>
          <ns3:TrackPointExtension>
            <ns3:hr>140</ns3:hr>
            <ns3:cad>43</ns3:cad>
          </ns3:TrackPointExtension>
        </extensions>
      </trkpt>
      <trkpt lat="45.33850257284939289093017578125" lon="-70.95108157955110073089599609375">
        <ele>819</ele>
        <time>2026-08-21T17:55:48.000Z</time>
        <extensions>
          <ns3:TrackPointExtension>
            <ns3:hr>141</ns3:hr>
            <ns3:cad>43</ns3:cad>
          </ns3:TrackPointExtension>
        </extensions>
      </trkpt>
      <trkpt lat="45.3385122120380401611328125" lon="-70.95109130255877971649169921875">
        <ele>819.20001220703125</ele>
        <time>2026-08-21T17:55:49.000Z</time>
        <extensions>
          <ns3:TrackPointExtension>
            <ns3:hr>142</ns3:hr>
            <ns3:cad>43</ns3:cad>
          </ns3:TrackPointExtension>
        </extensions>
      </trkpt>
      <trkpt lat="45.33851732499897480010986328125" lon="-70.9511002711951732635498046875">
        <ele>819.4000244140625</ele>
        <time>2026-08-21T17:55:50.000Z</time>
        <extensions>
          <ns3:TrackPointExtension>
            <ns3:hr>142</ns3:hr>
            <ns3:cad>43</ns3:cad>
          </ns3:TrackPointExtension>
        </extensions>
      </trkpt>
      <trkpt lat="45.33852285705506801605224609375" lon="-70.9511058032512664794921875">
        <ele>819.5999755859375</ele>
        <time>2026-08-21T17:55:51.000Z</time>
        <extensions>
          <ns3:TrackPointExtension>
            <ns3:hr>142</ns3:hr>
            <ns3:cad>43</ns3:cad>
          </ns3:TrackPointExtension>
        </extensions>
      </trkpt>
      <trkpt lat="45.33852939493954181671142578125" lon="-70.95111845992505550384521484375">
        <ele>819.5999755859375</ele>
        <time>2026-08-21T17:55:52.000Z</time>
        <extensions>
          <ns3:TrackPointExtension>
            <ns3:hr>143</ns3:hr>
            <ns3:cad>43</ns3:cad>
          </ns3:TrackPointExtension>
        </extensions>
      </trkpt>
      <trkpt lat="45.33853576518595218658447265625" lon="-70.95112927258014678955078125">
        <ele>820</ele>
        <time>2026-08-21T17:55:53.000Z</time>
        <extensions>
          <ns3:TrackPointExtension>
            <ns3:hr>143</ns3:hr>
            <ns3:cad>0</ns3:cad>
          </ns3:TrackPointExtension>
        </extensions>
      </trkpt>
      <trkpt lat="45.3385398723185062408447265625" lon="-70.9511448629200458526611328125">
        <ele>820.20001220703125</ele>
        <time>2026-08-21T17:55:54.000Z</time>
        <extensions>
          <ns3:TrackPointExtension>
            <ns3:hr>144</ns3:hr>
            <ns3:cad>0</ns3:cad>
          </ns3:TrackPointExtension>
        </extensions>
      </trkpt>
      <trkpt lat="45.33854230307042598724365234375" lon="-70.95116087235510349273681640625">
        <ele>820.4000244140625</ele>
        <time>2026-08-21T17:55:55.000Z</time>
        <extensions>
          <ns3:TrackPointExtension>
            <ns3:hr>145</ns3:hr>
            <ns3:cad>0</ns3:cad>
          </ns3:TrackPointExtension>
        </extensions>
      </trkpt>
      <trkpt lat="45.33854330889880657196044921875" lon="-70.95116682350635528564453125">
        <ele>820.5999755859375</ele>
        <time>2026-08-21T17:55:56.000Z</time>
        <extensions>
          <ns3:TrackPointExtension>
            <ns3:hr>146</ns3:hr>
            <ns3:cad>0</ns3:cad>
          </ns3:TrackPointExtension>
        </extensions>
      </trkpt>
      <trkpt lat="45.33855102024972438812255859375" lon="-70.9511755406856536865234375">
        <ele>820.79998779296875</ele>
        <time>2026-08-21T17:55:57.000Z</time>
        <extensions>
          <ns3:TrackPointExtension>
            <ns3:hr>146</ns3:hr>
            <ns3:cad>0</ns3:cad>
          </ns3:TrackPointExtension>
        </extensions>
      </trkpt>
      <trkpt lat="45.3385526128113269805908203125" lon="-70.95118417404592037200927734375">
        <ele>821</ele>
        <time>2026-08-21T17:55:58.000Z</time>
        <extensions>
          <ns3:TrackPointExtension>
            <ns3:hr>146</ns3:hr>
            <ns3:cad>47</ns3:cad>
          </ns3:TrackPointExtension>
        </extensions>
      </trkpt>
      <trkpt lat="45.33855311572551727294921875" lon="-70.9511854313313961029052734375">
        <ele>821</ele>
        <time>2026-08-21T17:55:59.000Z</time>
        <extensions>
          <ns3:TrackPointExtension>
            <ns3:hr>146</ns3:hr>
            <ns3:cad>47</ns3:cad>
          </ns3:TrackPointExtension>
        </extensions>
      </trkpt>
      <trkpt lat="45.33855521120131015777587890625" lon="-70.95119104720652103424072265625">
        <ele>821.20001220703125</ele>
        <time>2026-08-21T17:56:00.000Z</time>
        <extensions>
          <ns3:TrackPointExtension>
            <ns3:hr>146</ns3:hr>
            <ns3:cad>0</ns3:cad>
          </ns3:TrackPointExtension>
        </extensions>
      </trkpt>
      <trkpt lat="45.3385522775352001190185546875" lon="-70.9511907957494258880615234375">
        <ele>821.4000244140625</ele>
        <time>2026-08-21T17:56:01.000Z</time>
        <extensions>
          <ns3:TrackPointExtension>
            <ns3:hr>146</ns3:hr>
            <ns3:cad>0</ns3:cad>
          </ns3:TrackPointExtension>
        </extensions>
      </trkpt>
      <trkpt lat="45.33854775130748748779296875" lon="-70.9512008540332317352294921875">
        <ele>821.5999755859375</ele>
        <time>2026-08-21T17:56:02.000Z</time>
        <extensions>
          <ns3:TrackPointExtension>
            <ns3:hr>146</ns3:hr>
            <ns3:cad>0</ns3:cad>
          </ns3:TrackPointExtension>
        </extensions>
      </trkpt>
      <trkpt lat="45.33855185844004154205322265625" lon="-70.95121535472571849822998046875">
        <ele>821.79998779296875</ele>
        <time>2026-08-21T17:56:03.000Z</time>
        <extensions>
          <ns3:TrackPointExtension>
            <ns3:hr>146</ns3:hr>
            <ns3:cad>0</ns3:cad>
          </ns3:TrackPointExtension>
        </extensions>
      </trkpt>
      <trkpt lat="45.3385566361248493194580078125" lon="-70.95121770165860652923583984375">
        <ele>822</ele>
        <time>2026-08-21T17:56:04.000Z</time>
        <extensions>
          <ns3:TrackPointExtension>
            <ns3:hr>146</ns3:hr>
            <ns3:cad>0</ns3:cad>
          </ns3:TrackPointExtension>
        </extensions>
      </trkpt>
      <trkpt lat="45.338562168180942535400390625" lon="-70.9512283466756343841552734375">
        <ele>822.20001220703125</ele>
        <time>2026-08-21T17:56:05.000Z</time>
        <extensions>
          <ns3:TrackPointExtension>
            <ns3:hr>145</ns3:hr>
            <ns3:cad>0</ns3:cad>
          </ns3:TrackPointExtension>
        </extensions>
      </trkpt>
      <trkpt lat="45.33856275491416454315185546875" lon="-70.95123630948364734649658203125">
        <ele>822.4000244140625</ele>
        <time>2026-08-21T17:56:06.000Z</time>
        <extensions>
          <ns3:TrackPointExtension>
            <ns3:hr>146</ns3:hr>
            <ns3:cad>0</ns3:cad>
          </ns3:TrackPointExtension>
        </extensions>
      </trkpt>
      <trkpt lat="45.33856342546641826629638671875" lon="-70.9512400813400745391845703125">
        <ele>822.5999755859375</ele>
        <time>2026-08-21T17:56:07.000Z</time>
        <extensions>
          <ns3:TrackPointExtension>
            <ns3:hr>146</ns3:hr>
            <ns3:cad>0</ns3:cad>
          </ns3:TrackPointExtension>
        </extensions>
      </trkpt>
      <trkpt lat="45.33856476657092571258544921875" lon="-70.951249636709690093994140625">
        <ele>822.79998779296875</ele>
        <time>2026-08-21T17:56:08.000Z</time>
        <extensions>
          <ns3:TrackPointExtension>
            <ns3:hr>145</ns3:hr>
            <ns3:cad>0</ns3:cad>
          </ns3:TrackPointExtension>
        </extensions>
      </trkpt>
      <trkpt lat="45.33857029862701892852783203125" lon="-70.9512558393180370330810546875">
        <ele>823</ele>
        <time>2026-08-21T17:56:09.000Z</time>
        <extensions>
          <ns3:TrackPointExtension>
            <ns3:hr>145</ns3:hr>
            <ns3:cad>0</ns3:cad>
          </ns3:TrackPointExtension>
        </extensions>
      </trkpt>
      <trkpt lat="45.33857800997793674468994140625" lon="-70.95126229338347911834716796875">
        <ele>823</ele>
        <time>2026-08-21T17:56:10.000Z</time>
        <extensions>
          <ns3:TrackPointExtension>
            <ns3:hr>145</ns3:hr>
            <ns3:cad>0</ns3:cad>
          </ns3:TrackPointExtension>
        </extensions>
      </trkpt>
      <trkpt lat="45.3385801054537296295166015625" lon="-70.95126765780150890350341796875">
        <ele>823.20001220703125</ele>
        <time>2026-08-21T17:56:11.000Z</time>
        <extensions>
          <ns3:TrackPointExtension>
            <ns3:hr>145</ns3:hr>
            <ns3:cad>0</ns3:cad>
          </ns3:TrackPointExtension>
        </extensions>
      </trkpt>
      <trkpt lat="45.33858354203402996063232421875" lon="-70.95127503387629985809326171875">
        <ele>823.4000244140625</ele>
        <time>2026-08-21T17:56:12.000Z</time>
        <extensions>
          <ns3:TrackPointExtension>
            <ns3:hr>145</ns3:hr>
            <ns3:cad>0</ns3:cad>
          </ns3:TrackPointExtension>
        </extensions>
      </trkpt>
      <trkpt lat="45.33858857117593288421630859375" lon="-70.95128525979816913604736328125">
        <ele>823.5999755859375</ele>
        <time>2026-08-21T17:56:13.000Z</time>
        <extensions>
          <ns3:TrackPointExtension>
            <ns3:hr>144</ns3:hr>
            <ns3:cad>0</ns3:cad>
          </ns3:TrackPointExtension>
        </extensions>
      </trkpt>
      <trkpt lat="45.33859125338494777679443359375" lon="-70.9512883611023426055908203125">
        <ele>823.79998779296875</ele>
        <time>2026-08-21T17:56:14.000Z</time>
        <extensions>
          <ns3:TrackPointExtension>
            <ns3:hr>144</ns3:hr>
            <ns3:cad>0</ns3:cad>
          </ns3:TrackPointExtension>
        </extensions>
      </trkpt>
      <trkpt lat="45.33859443850815296173095703125" lon="-70.951291210949420928955078125">
        <ele>824</ele>
        <time>2026-08-21T17:56:15.000Z</time>
        <extensions>
          <ns3:TrackPointExtension>
            <ns3:hr>144</ns3:hr>
            <ns3:cad>0</ns3:cad>
          </ns3:TrackPointExtension>
        </extensions>
      </trkpt>
      <trkpt lat="45.33859829418361186981201171875" lon="-70.95129665918648242950439453125">
        <ele>824</ele>
        <time>2026-08-21T17:56:16.000Z</time>
        <extensions>
          <ns3:TrackPointExtension>
            <ns3:hr>145</ns3:hr>
            <ns3:cad>0</ns3:cad>
          </ns3:TrackPointExtension>
        </extensions>
      </trkpt>
      <trkpt lat="45.3386015631258487701416015625" lon="-70.95130152069032192230224609375">
        <ele>824.20001220703125</ele>
        <time>2026-08-21T17:56:17.000Z</time>
        <extensions>
          <ns3:TrackPointExtension>
            <ns3:hr>144</ns3:hr>
            <ns3:cad>0</ns3:cad>
          </ns3:TrackPointExtension>
        </extensions>
      </trkpt>
      <trkpt lat="45.3386020660400390625" lon="-70.951301269233226776123046875">
        <ele>824.4000244140625</ele>
        <time>2026-08-21T17:56:18.000Z</time>
        <extensions>
          <ns3:TrackPointExtension>
            <ns3:hr>144</ns3:hr>
            <ns3:cad>0</ns3:cad>
          </ns3:TrackPointExtension>
        </extensions>
      </trkpt>
      <trkpt lat="45.33860181458294391632080078125" lon="-70.95130068250000476837158203125">
        <ele>824.4000244140625</ele>
        <time>2026-08-21T17:56:19.000Z</time>
        <extensions>
          <ns3:TrackPointExtension>
            <ns3:hr>145</ns3:hr>
            <ns3:cad>0</ns3:cad>
          </ns3:TrackPointExtension>
        </extensions>
      </trkpt>
      <trkpt lat="45.3386045806109905242919921875" lon="-70.95130487345159053802490234375">
        <ele>824.5999755859375</ele>
        <time>2026-08-21T17:56:20.000Z</time>
        <extensions>
          <ns3:TrackPointExtension>
            <ns3:hr>144</ns3:hr>
            <ns3:cad>0</ns3:cad>
          </ns3:TrackPointExtension>
        </extensions>
      </trkpt>
      <trkpt lat="45.338601730763912200927734375" lon="-70.95130705274641513824462890625">
        <ele>824.79998779296875</ele>
        <time>2026-08-21T17:56:21.000Z</time>
        <extensions>
          <ns3:TrackPointExtension>
            <ns3:hr>144</ns3:hr>
            <ns3:cad>0</ns3:cad>
          </ns3:TrackPointExtension>
        </extensions>
      </trkpt>
      <trkpt lat="45.33860198222100734710693359375" lon="-70.951316021382808685302734375">
        <ele>824.79998779296875</ele>
        <time>2026-08-21T17:56:22.000Z</time>
        <extensions>
          <ns3:TrackPointExtension>
            <ns3:hr>144</ns3:hr>
            <ns3:cad>0</ns3:cad>
          </ns3:TrackPointExtension>
        </extensions>
      </trkpt>
      <trkpt lat="45.33860147930681705474853515625" lon="-70.951324403285980224609375">
        <ele>825</ele>
        <time>2026-08-21T17:56:23.000Z</time>
        <extensions>
          <ns3:TrackPointExtension>
            <ns3:hr>144</ns3:hr>
            <ns3:cad>0</ns3:cad>
          </ns3:TrackPointExtension>
        </extensions>
      </trkpt>
      <trkpt lat="45.33860114403069019317626953125" lon="-70.95132105052471160888671875">
        <ele>825.20001220703125</ele>
        <time>2026-08-21T17:56:24.000Z</time>
        <extensions>
          <ns3:TrackPointExtension>
            <ns3:hr>144</ns3:hr>
            <ns3:cad>0</ns3:cad>
          </ns3:TrackPointExtension>
        </extensions>
      </trkpt>
      <trkpt lat="45.33860298804938793182373046875" lon="-70.95132716931402683258056640625">
        <ele>825.20001220703125</ele>
        <time>2026-08-21T17:56:25.000Z</time>
        <extensions>
          <ns3:TrackPointExtension>
            <ns3:hr>144</ns3:hr>
            <ns3:cad>0</ns3:cad>
          </ns3:TrackPointExtension>
        </extensions>
      </trkpt>
      <trkpt lat="45.338607765734195709228515625" lon="-70.95133622176945209503173828125">
        <ele>825.4000244140625</ele>
        <time>2026-08-21T17:56:26.000Z</time>
        <extensions>
          <ns3:TrackPointExtension>
            <ns3:hr>144</ns3:hr>
            <ns3:cad>0</ns3:cad>
          </ns3:TrackPointExtension>
        </extensions>
      </trkpt>
      <trkpt lat="45.33861103467643260955810546875" lon="-70.9513456933200359344482421875">
        <ele>825.5999755859375</ele>
        <time>2026-08-21T17:56:27.000Z</time>
        <extensions>
          <ns3:TrackPointExtension>
            <ns3:hr>144</ns3:hr>
            <ns3:cad>0</ns3:cad>
          </ns3:TrackPointExtension>
        </extensions>
      </trkpt>
      <trkpt lat="45.33862243406474590301513671875" lon="-70.95135315321385860443115234375">
        <ele>825.5999755859375</ele>
        <time>2026-08-21T17:56:28.000Z</time>
        <extensions>
          <ns3:TrackPointExtension>
            <ns3:hr>143</ns3:hr>
            <ns3:cad>0</ns3:cad>
          </ns3:TrackPointExtension>
        </extensions>
      </trkpt>
      <trkpt lat="45.338627882301807403564453125" lon="-70.951359607279300689697265625">
        <ele>825.79998779296875</ele>
        <time>2026-08-21T17:56:29.000Z</time>
        <extensions>
          <ns3:TrackPointExtension>
            <ns3:hr>143</ns3:hr>
            <ns3:cad>0</ns3:cad>
          </ns3:TrackPointExtension>
        </extensions>
      </trkpt>
      <trkpt lat="45.3386275470256805419921875" lon="-70.95136488787829875946044921875">
        <ele>826</ele>
        <time>2026-08-21T17:56:30.000Z</time>
        <extensions>
          <ns3:TrackPointExtension>
            <ns3:hr>143</ns3:hr>
            <ns3:cad>0</ns3:cad>
          </ns3:TrackPointExtension>
        </extensions>
      </trkpt>
      <trkpt lat="45.3386290557682514190673828125" lon="-70.95137192867696285247802734375">
        <ele>826.20001220703125</ele>
        <time>2026-08-21T17:56:31.000Z</time>
        <extensions>
          <ns3:TrackPointExtension>
            <ns3:hr>144</ns3:hr>
            <ns3:cad>0</ns3:cad>
          </ns3:TrackPointExtension>
        </extensions>
      </trkpt>
      <trkpt lat="45.33862930722534656524658203125" lon="-70.95137729309499263763427734375">
        <ele>826.4000244140625</ele>
        <time>2026-08-21T17:56:32.000Z</time>
        <extensions>
          <ns3:TrackPointExtension>
            <ns3:hr>144</ns3:hr>
            <ns3:cad>0</ns3:cad>
          </ns3:TrackPointExtension>
        </extensions>
      </trkpt>
      <trkpt lat="45.33862947486340999603271484375" lon="-70.9513767063617706298828125">
        <ele>826.5999755859375</ele>
        <time>2026-08-21T17:56:33.000Z</time>
        <extensions>
          <ns3:TrackPointExtension>
            <ns3:hr>144</ns3:hr>
            <ns3:cad>0</ns3:cad>
          </ns3:TrackPointExtension>
        </extensions>
      </trkpt>
      <trkpt lat="45.3386360965669155120849609375" lon="-70.9513927996158599853515625">
        <ele>826.79998779296875</ele>
        <time>2026-08-21T17:56:34.000Z</time>
        <extensions>
          <ns3:TrackPointExtension>
            <ns3:hr>144</ns3:hr>
            <ns3:cad>0</ns3:cad>
          </ns3:TrackPointExtension>
        </extensions>
      </trkpt>
      <trkpt lat="45.33863894641399383544921875" lon="-70.951399169862270355224609375">
        <ele>827</ele>
        <time>2026-08-21T17:56:35.000Z</time>
        <extensions>
          <ns3:TrackPointExtension>
            <ns3:hr>143</ns3:hr>
            <ns3:cad>0</ns3:cad>
          </ns3:TrackPointExtension>
        </extensions>
      </trkpt>
      <trkpt lat="45.33863961696624755859375" lon="-70.9514063782989978790283203125">
        <ele>827.20001220703125</ele>
        <time>2026-08-21T17:56:36.000Z</time>
        <extensions>
          <ns3:TrackPointExtension>
            <ns3:hr>144</ns3:hr>
            <ns3:cad>0</ns3:cad>
          </ns3:TrackPointExtension>
        </extensions>
      </trkpt>
      <trkpt lat="45.3386414609849452972412109375" lon="-70.95141082070767879486083984375">
        <ele>827.4000244140625</ele>
        <time>2026-08-21T17:56:37.000Z</time>
        <extensions>
          <ns3:TrackPointExtension>
            <ns3:hr>144</ns3:hr>
            <ns3:cad>0</ns3:cad>
          </ns3:TrackPointExtension>
        </extensions>
      </trkpt>
      <trkpt lat="45.3386461548507213592529296875" lon="-70.9514201246201992034912109375">
        <ele>827.5999755859375</ele>
        <time>2026-08-21T17:56:38.000Z</time>
        <extensions>
          <ns3:TrackPointExtension>
            <ns3:hr>144</ns3:hr>
            <ns3:cad>0</ns3:cad>
          </ns3:TrackPointExtension>
        </extensions>
      </trkpt>
      <trkpt lat="45.33864296972751617431640625" lon="-70.951423309743404388427734375">
        <ele>827.79998779296875</ele>
        <time>2026-08-21T17:56:39.000Z</time>
        <extensions>
          <ns3:TrackPointExtension>
            <ns3:hr>143</ns3:hr>
            <ns3:cad>0</ns3:cad>
          </ns3:TrackPointExtension>
        </extensions>
      </trkpt>
      <trkpt lat="45.33864338882267475128173828125" lon="-70.951430015265941619873046875">
        <ele>827.79998779296875</ele>
        <time>2026-08-21T17:56:40.000Z</time>
        <extensions>
          <ns3:TrackPointExtension>
            <ns3:hr>144</ns3:hr>
            <ns3:cad>0</ns3:cad>
          </ns3:TrackPointExtension>
        </extensions>
      </trkpt>
      <trkpt lat="45.33864456228911876678466796875" lon="-70.9514343738555908203125">
        <ele>828</ele>
        <time>2026-08-21T17:56:41.000Z</time>
        <extensions>
          <ns3:TrackPointExtension>
            <ns3:hr>144</ns3:hr>
            <ns3:cad>0</ns3:cad>
          </ns3:TrackPointExtension>
        </extensions>
      </trkpt>
      <trkpt lat="45.3386531956493854522705078125" lon="-70.95144703052937984466552734375">
        <ele>828.4000244140625</ele>
        <time>2026-08-21T17:56:42.000Z</time>
        <extensions>
          <ns3:TrackPointExtension>
            <ns3:hr>144</ns3:hr>
            <ns3:cad>0</ns3:cad>
          </ns3:TrackPointExtension>
        </extensions>
      </trkpt>
      <trkpt lat="45.33866048790514469146728515625" lon="-70.951456166803836822509765625">
        <ele>828.5999755859375</ele>
        <time>2026-08-21T17:56:43.000Z</time>
        <extensions>
          <ns3:TrackPointExtension>
            <ns3:hr>144</ns3:hr>
            <ns3:cad>0</ns3:cad>
          </ns3:TrackPointExtension>
        </extensions>
      </trkpt>
      <trkpt lat="45.33865696750581264495849609375" lon="-70.9514518082141876220703125">
        <ele>828.79998779296875</ele>
        <time>2026-08-21T17:56:44.000Z</time>
        <extensions>
          <ns3:TrackPointExtension>
            <ns3:hr>144</ns3:hr>
            <ns3:cad>0</ns3:cad>
          </ns3:TrackPointExtension>
        </extensions>
      </trkpt>
      <trkpt lat="45.3386635892093181610107421875" lon="-70.9514606930315494537353515625">
        <ele>829</ele>
        <time>2026-08-21T17:56:45.000Z</time>
        <extensions>
          <ns3:TrackPointExtension>
            <ns3:hr>144</ns3:hr>
            <ns3:cad>0</ns3:cad>
          </ns3:TrackPointExtension>
        </extensions>
      </trkpt>
      <trkpt lat="45.33866769634187221527099609375" lon="-70.95146480016410350799560546875">
        <ele>829.20001220703125</ele>
        <time>2026-08-21T17:56:46.000Z</time>
        <extensions>
          <ns3:TrackPointExtension>
            <ns3:hr>145</ns3:hr>
            <ns3:cad>0</ns3:cad>
          </ns3:TrackPointExtension>
        </extensions>
      </trkpt>
      <trkpt lat="45.33867021091282367706298828125" lon="-70.9514670632779598236083984375">
        <ele>829.4000244140625</ele>
        <time>2026-08-21T17:56:47.000Z</time>
        <extensions>
          <ns3:TrackPointExtension>
            <ns3:hr>145</ns3:hr>
            <ns3:cad>0</ns3:cad>
          </ns3:TrackPointExtension>
        </extensions>
      </trkpt>
      <trkpt lat="45.338675491511821746826171875" lon="-70.95147661864757537841796875">
        <ele>829.5999755859375</ele>
        <time>2026-08-21T17:56:48.000Z</time>
        <extensions>
          <ns3:TrackPointExtension>
            <ns3:hr>145</ns3:hr>
            <ns3:cad>0</ns3:cad>
          </ns3:TrackPointExtension>
        </extensions>
      </trkpt>
      <trkpt lat="45.3386780060827732086181640625" lon="-70.9514808095991611480712890625">
        <ele>829.79998779296875</ele>
        <time>2026-08-21T17:56:49.000Z</time>
        <extensions>
          <ns3:TrackPointExtension>
            <ns3:hr>145</ns3:hr>
            <ns3:cad>0</ns3:cad>
          </ns3:TrackPointExtension>
        </extensions>
      </trkpt>
      <trkpt lat="45.33868462778627872467041015625" lon="-70.95148894004523754119873046875">
        <ele>830.20001220703125</ele>
        <time>2026-08-21T17:56:50.000Z</time>
        <extensions>
          <ns3:TrackPointExtension>
            <ns3:hr>145</ns3:hr>
            <ns3:cad>0</ns3:cad>
          </ns3:TrackPointExtension>
        </extensions>
      </trkpt>
      <trkpt lat="45.33868697471916675567626953125" lon="-70.951492376625537872314453125">
        <ele>830.4000244140625</ele>
        <time>2026-08-21T17:56:51.000Z</time>
        <extensions>
          <ns3:TrackPointExtension>
            <ns3:hr>146</ns3:hr>
            <ns3:cad>0</ns3:cad>
          </ns3:TrackPointExtension>
        </extensions>
      </trkpt>
      <trkpt lat="45.33869284205138683319091796875" lon="-70.95149916596710681915283203125">
        <ele>830.5999755859375</ele>
        <time>2026-08-21T17:56:52.000Z</time>
        <extensions>
          <ns3:TrackPointExtension>
            <ns3:hr>146</ns3:hr>
            <ns3:cad>0</ns3:cad>
          </ns3:TrackPointExtension>
        </extensions>
      </trkpt>
      <trkpt lat="45.33869921229779720306396484375" lon="-70.951505117118358612060546875">
        <ele>830.79998779296875</ele>
        <time>2026-08-21T17:56:53.000Z</time>
        <extensions>
          <ns3:TrackPointExtension>
            <ns3:hr>146</ns3:hr>
            <ns3:cad>0</ns3:cad>
          </ns3:TrackPointExtension>
        </extensions>
      </trkpt>
      <trkpt lat="45.33870658837258815765380859375" lon="-70.95151224173605442047119140625">
        <ele>830.79998779296875</ele>
        <time>2026-08-21T17:56:54.000Z</time>
        <extensions>
          <ns3:TrackPointExtension>
            <ns3:hr>146</ns3:hr>
            <ns3:cad>0</ns3:cad>
          </ns3:TrackPointExtension>
        </extensions>
      </trkpt>
      <trkpt lat="45.3387138806283473968505859375" lon="-70.9515243954956531524658203125">
        <ele>831</ele>
        <time>2026-08-21T17:56:55.000Z</time>
        <extensions>
          <ns3:TrackPointExtension>
            <ns3:hr>146</ns3:hr>
            <ns3:cad>70</ns3:cad>
          </ns3:TrackPointExtension>
        </extensions>
      </trkpt>
      <trkpt lat="45.33871647901833057403564453125" lon="-70.95153051428496837615966796875">
        <ele>831</ele>
        <time>2026-08-21T17:56:56.000Z</time>
        <extensions>
          <ns3:TrackPointExtension>
            <ns3:hr>146</ns3:hr>
            <ns3:cad>70</ns3:cad>
          </ns3:TrackPointExtension>
        </extensions>
      </trkpt>
      <trkpt lat="45.33872134052217006683349609375" lon="-70.95153721980750560760498046875">
        <ele>831.20001220703125</ele>
        <time>2026-08-21T17:56:57.000Z</time>
        <extensions>
          <ns3:TrackPointExtension>
            <ns3:hr>145</ns3:hr>
            <ns3:cad>70</ns3:cad>
          </ns3:TrackPointExtension>
        </extensions>
      </trkpt>
      <trkpt lat="45.3387299738824367523193359375" lon="-70.95154501497745513916015625">
        <ele>831.4000244140625</ele>
        <time>2026-08-21T17:56:58.000Z</time>
        <extensions>
          <ns3:TrackPointExtension>
            <ns3:hr>146</ns3:hr>
            <ns3:cad>70</ns3:cad>
          </ns3:TrackPointExtension>
        </extensions>
      </trkpt>
      <trkpt lat="45.33873944543302059173583984375" lon="-70.951554067432880401611328125">
        <ele>831.5999755859375</ele>
        <time>2026-08-21T17:56:59.000Z</time>
        <extensions>
          <ns3:TrackPointExtension>
            <ns3:hr>146</ns3:hr>
            <ns3:cad>70</ns3:cad>
          </ns3:TrackPointExtension>
        </extensions>
      </trkpt>
      <trkpt lat="45.3387464024126529693603515625" lon="-70.95156303606927394866943359375">
        <ele>831.5999755859375</ele>
        <time>2026-08-21T17:57:00.000Z</time>
        <extensions>
          <ns3:TrackPointExtension>
            <ns3:hr>147</ns3:hr>
            <ns3:cad>78</ns3:cad>
          </ns3:TrackPointExtension>
        </extensions>
      </trkpt>
      <trkpt lat="45.33875017426908016204833984375" lon="-70.95156823284924030303955078125">
        <ele>831.79998779296875</ele>
        <time>2026-08-21T17:57:01.000Z</time>
        <extensions>
          <ns3:TrackPointExtension>
            <ns3:hr>147</ns3:hr>
            <ns3:cad>78</ns3:cad>
          </ns3:TrackPointExtension>
        </extensions>
      </trkpt>
      <trkpt lat="45.33875101245939731597900390625" lon="-70.95158466137945652008056640625">
        <ele>832</ele>
        <time>2026-08-21T17:57:02.000Z</time>
        <extensions>
          <ns3:TrackPointExtension>
            <ns3:hr>147</ns3:hr>
            <ns3:cad>41</ns3:cad>
          </ns3:TrackPointExtension>
        </extensions>
      </trkpt>
      <trkpt lat="45.33875570632517337799072265625" lon="-70.95159555785357952117919921875">
        <ele>832.20001220703125</ele>
        <time>2026-08-21T17:57:03.000Z</time>
        <extensions>
          <ns3:TrackPointExtension>
            <ns3:hr>147</ns3:hr>
            <ns3:cad>47</ns3:cad>
          </ns3:TrackPointExtension>
        </extensions>
      </trkpt>
      <trkpt lat="45.33875696361064910888671875" lon="-70.95160595141351222991943359375">
        <ele>832.20001220703125</ele>
        <time>2026-08-21T17:57:04.000Z</time>
        <extensions>
          <ns3:TrackPointExtension>
            <ns3:hr>147</ns3:hr>
            <ns3:cad>47</ns3:cad>
          </ns3:TrackPointExtension>
        </extensions>
      </trkpt>
      <trkpt lat="45.33876123838126659393310546875" lon="-70.95161885954439640045166015625">
        <ele>832.4000244140625</ele>
        <time>2026-08-21T17:57:05.000Z</time>
        <extensions>
          <ns3:TrackPointExtension>
            <ns3:hr>146</ns3:hr>
            <ns3:cad>47</ns3:cad>
          </ns3:TrackPointExtension>
        </extensions>
      </trkpt>
      <trkpt lat="45.3387675248086452484130859375" lon="-70.95163218677043914794921875">
        <ele>832.5999755859375</ele>
        <time>2026-08-21T17:57:06.000Z</time>
        <extensions>
          <ns3:TrackPointExtension>
            <ns3:hr>147</ns3:hr>
            <ns3:cad>47</ns3:cad>
          </ns3:TrackPointExtension>
        </extensions>
      </trkpt>
      <trkpt lat="45.3387745656073093414306640625" lon="-70.9516518004238605499267578125">
        <ele>832.5999755859375</ele>
        <time>2026-08-21T17:57:07.000Z</time>
        <extensions>
          <ns3:TrackPointExtension>
            <ns3:hr>147</ns3:hr>
            <ns3:cad>46</ns3:cad>
          </ns3:TrackPointExtension>
        </extensions>
      </trkpt>
      <trkpt lat="45.3387831151485443115234375" lon="-70.9516688995063304901123046875">
        <ele>832.5999755859375</ele>
        <time>2026-08-21T17:57:08.000Z</time>
        <extensions>
          <ns3:TrackPointExtension>
            <ns3:hr>147</ns3:hr>
            <ns3:cad>46</ns3:cad>
          </ns3:TrackPointExtension>
        </extensions>
      </trkpt>
      <trkpt lat="45.33879040740430355072021484375" lon="-70.95168474130332469940185546875">
        <ele>832.4000244140625</ele>
        <time>2026-08-21T17:57:09.000Z</time>
        <extensions>
          <ns3:TrackPointExtension>
            <ns3:hr>148</ns3:hr>
            <ns3:cad>47</ns3:cad>
          </ns3:TrackPointExtension>
        </extensions>
      </trkpt>
      <trkpt lat="45.33879376016557216644287109375" lon="-70.95170385204255580902099609375">
        <ele>832.4000244140625</ele>
        <time>2026-08-21T17:57:10.000Z</time>
        <extensions>
          <ns3:TrackPointExtension>
            <ns3:hr>148</ns3:hr>
            <ns3:cad>49</ns3:cad>
          </ns3:TrackPointExtension>
        </extensions>
      </trkpt>
      <trkpt lat="45.338798873126506805419921875" lon="-70.9517191909253597259521484375">
        <ele>832.5999755859375</ele>
        <time>2026-08-21T17:57:11.000Z</time>
        <extensions>
          <ns3:TrackPointExtension>
            <ns3:hr>147</ns3:hr>
            <ns3:cad>49</ns3:cad>
          </ns3:TrackPointExtension>
        </extensions>
      </trkpt>
      <trkpt lat="45.338802225887775421142578125" lon="-70.9517319314181804656982421875">
        <ele>832.5999755859375</ele>
        <time>2026-08-21T17:57:12.000Z</time>
        <extensions>
          <ns3:TrackPointExtension>
            <ns3:hr>147</ns3:hr>
            <ns3:cad>49</ns3:cad>
          </ns3:TrackPointExtension>
        </extensions>
      </trkpt>
      <trkpt lat="45.338805578649044036865234375" lon="-70.9517443366348743438720703125">
        <ele>832.79998779296875</ele>
        <time>2026-08-21T17:57:13.000Z</time>
        <extensions>
          <ns3:TrackPointExtension>
            <ns3:hr>147</ns3:hr>
            <ns3:cad>49</ns3:cad>
          </ns3:TrackPointExtension>
        </extensions>
      </trkpt>
      <trkpt lat="45.33880650065839290618896484375" lon="-70.95175900496542453765869140625">
        <ele>832.79998779296875</ele>
        <time>2026-08-21T17:57:14.000Z</time>
        <extensions>
          <ns3:TrackPointExtension>
            <ns3:hr>146</ns3:hr>
            <ns3:cad>49</ns3:cad>
          </ns3:TrackPointExtension>
        </extensions>
      </trkpt>
      <trkpt lat="45.3388104401528835296630859375" lon="-70.95177476294338703155517578125">
        <ele>833</ele>
        <time>2026-08-21T17:57:15.000Z</time>
        <extensions>
          <ns3:TrackPointExtension>
            <ns3:hr>147</ns3:hr>
            <ns3:cad>50</ns3:cad>
          </ns3:TrackPointExtension>
        </extensions>
      </trkpt>
      <trkpt lat="45.33881337381899356842041015625" lon="-70.95178632996976375579833984375">
        <ele>833.20001220703125</ele>
        <time>2026-08-21T17:57:16.000Z</time>
        <extensions>
          <ns3:TrackPointExtension>
            <ns3:hr>147</ns3:hr>
            <ns3:cad>50</ns3:cad>
          </ns3:TrackPointExtension>
        </extensions>
      </trkpt>
      <trkpt lat="45.338816978037357330322265625" lon="-70.951798819005489349365234375">
        <ele>833.4000244140625</ele>
        <time>2026-08-21T17:57:17.000Z</time>
        <extensions>
          <ns3:TrackPointExtension>
            <ns3:hr>147</ns3:hr>
            <ns3:cad>17</ns3:cad>
          </ns3:TrackPointExtension>
        </extensions>
      </trkpt>
      <trkpt lat="45.33882158808410167694091796875" lon="-70.95181189477443695068359375">
        <ele>833.5999755859375</ele>
        <time>2026-08-21T17:57:18.000Z</time>
        <extensions>
          <ns3:TrackPointExtension>
            <ns3:hr>146</ns3:hr>
            <ns3:cad>17</ns3:cad>
          </ns3:TrackPointExtension>
        </extensions>
      </trkpt>
      <trkpt lat="45.33882535994052886962890625" lon="-70.95182572491466999053955078125">
        <ele>833.5999755859375</ele>
        <time>2026-08-21T17:57:19.000Z</time>
        <extensions>
          <ns3:TrackPointExtension>
            <ns3:hr>146</ns3:hr>
            <ns3:cad>44</ns3:cad>
          </ns3:TrackPointExtension>
        </extensions>
      </trkpt>
      <trkpt lat="45.3388305567204952239990234375" lon="-70.95183729194104671478271484375">
        <ele>833.79998779296875</ele>
        <time>2026-08-21T17:57:20.000Z</time>
        <extensions>
          <ns3:TrackPointExtension>
            <ns3:hr>145</ns3:hr>
            <ns3:cad>44</ns3:cad>
          </ns3:TrackPointExtension>
        </extensions>
      </trkpt>
      <trkpt lat="45.3388345800340175628662109375" lon="-70.95184248872101306915283203125">
        <ele>834</ele>
        <time>2026-08-21T17:57:21.000Z</time>
        <extensions>
          <ns3:TrackPointExtension>
            <ns3:hr>145</ns3:hr>
            <ns3:cad>44</ns3:cad>
          </ns3:TrackPointExtension>
        </extensions>
      </trkpt>
      <trkpt lat="45.3388365916907787322998046875" lon="-70.95184885896742343902587890625">
        <ele>834.20001220703125</ele>
        <time>2026-08-21T17:57:22.000Z</time>
        <extensions>
          <ns3:TrackPointExtension>
            <ns3:hr>145</ns3:hr>
            <ns3:cad>41</ns3:cad>
          </ns3:TrackPointExtension>
        </extensions>
      </trkpt>
      <trkpt lat="45.3388406150043010711669921875" lon="-70.9518553130328655242919921875">
        <ele>834.20001220703125</ele>
        <time>2026-08-21T17:57:23.000Z</time>
        <extensions>
          <ns3:TrackPointExtension>
            <ns3:hr>145</ns3:hr>
            <ns3:cad>41</ns3:cad>
          </ns3:TrackPointExtension>
        </extensions>
      </trkpt>
      <trkpt lat="45.33884673379361629486083984375" lon="-70.95186696387827396392822265625">
        <ele>834.4000244140625</ele>
        <time>2026-08-21T17:57:24.000Z</time>
        <extensions>
          <ns3:TrackPointExtension>
            <ns3:hr>144</ns3:hr>
            <ns3:cad>66</ns3:cad>
          </ns3:TrackPointExtension>
        </extensions>
      </trkpt>
      <trkpt lat="45.33885352313518524169921875" lon="-70.95187635160982608795166015625">
        <ele>834.5999755859375</ele>
        <time>2026-08-21T17:57:25.000Z</time>
        <extensions>
          <ns3:TrackPointExtension>
            <ns3:hr>144</ns3:hr>
            <ns3:cad>66</ns3:cad>
          </ns3:TrackPointExtension>
        </extensions>
      </trkpt>
      <trkpt lat="45.3388593904674053192138671875" lon="-70.951879285275936126708984375">
        <ele>834.79998779296875</ele>
        <time>2026-08-21T17:57:26.000Z</time>
        <extensions>
          <ns3:TrackPointExtension>
            <ns3:hr>144</ns3:hr>
            <ns3:cad>66</ns3:cad>
          </ns3:TrackPointExtension>
        </extensions>
      </trkpt>
      <trkpt lat="45.338862240314483642578125" lon="-70.9518849849700927734375">
        <ele>834.79998779296875</ele>
        <time>2026-08-21T17:57:27.000Z</time>
        <extensions>
          <ns3:TrackPointExtension>
            <ns3:hr>144</ns3:hr>
            <ns3:cad>0</ns3:cad>
          </ns3:TrackPointExtension>
        </extensions>
      </trkpt>
      <trkpt lat="45.33886718563735485076904296875" lon="-70.95189747400581836700439453125">
        <ele>835</ele>
        <time>2026-08-21T17:57:28.000Z</time>
        <extensions>
          <ns3:TrackPointExtension>
            <ns3:hr>143</ns3:hr>
            <ns3:cad>0</ns3:cad>
          </ns3:TrackPointExtension>
        </extensions>
      </trkpt>
      <trkpt lat="45.33886827528476715087890625" lon="-70.95190669409930706024169921875">
        <ele>835.4000244140625</ele>
        <time>2026-08-21T17:57:29.000Z</time>
        <extensions>
          <ns3:TrackPointExtension>
            <ns3:hr>143</ns3:hr>
            <ns3:cad>0</ns3:cad>
          </ns3:TrackPointExtension>
        </extensions>
      </trkpt>
      <trkpt lat="45.33887363970279693603515625" lon="-70.95191675238311290740966796875">
        <ele>835.5999755859375</ele>
        <time>2026-08-21T17:57:30.000Z</time>
        <extensions>
          <ns3:TrackPointExtension>
            <ns3:hr>142</ns3:hr>
            <ns3:cad>0</ns3:cad>
          </ns3:TrackPointExtension>
        </extensions>
      </trkpt>
      <trkpt lat="45.33887690864503383636474609375" lon="-70.9519267268478870391845703125">
        <ele>835.79998779296875</ele>
        <time>2026-08-21T17:57:31.000Z</time>
        <extensions>
          <ns3:TrackPointExtension>
            <ns3:hr>142</ns3:hr>
            <ns3:cad>0</ns3:cad>
          </ns3:TrackPointExtension>
        </extensions>
      </trkpt>
      <trkpt lat="45.33887875266373157501220703125" lon="-70.9519374556839466094970703125">
        <ele>836</ele>
        <time>2026-08-21T17:57:32.000Z</time>
        <extensions>
          <ns3:TrackPointExtension>
            <ns3:hr>142</ns3:hr>
            <ns3:cad>0</ns3:cad>
          </ns3:TrackPointExtension>
        </extensions>
      </trkpt>
      <trkpt lat="45.3388796746730804443359375" lon="-70.951946675777435302734375">
        <ele>836.20001220703125</ele>
        <time>2026-08-21T17:57:33.000Z</time>
        <extensions>
          <ns3:TrackPointExtension>
            <ns3:hr>142</ns3:hr>
            <ns3:cad>0</ns3:cad>
          </ns3:TrackPointExtension>
        </extensions>
      </trkpt>
      <trkpt lat="45.338878333568572998046875" lon="-70.95194843597710132598876953125">
        <ele>836.4000244140625</ele>
        <time>2026-08-21T17:57:34.000Z</time>
        <extensions>
          <ns3:TrackPointExtension>
            <ns3:hr>142</ns3:hr>
            <ns3:cad>0</ns3:cad>
          </ns3:TrackPointExtension>
        </extensions>
      </trkpt>
      <trkpt lat="45.338880009949207305908203125" lon="-70.95195648260414600372314453125">
        <ele>836.5999755859375</ele>
        <time>2026-08-21T17:57:35.000Z</time>
        <extensions>
          <ns3:TrackPointExtension>
            <ns3:hr>142</ns3:hr>
            <ns3:cad>0</ns3:cad>
          </ns3:TrackPointExtension>
        </extensions>
      </trkpt>
      <trkpt lat="45.33888327889144420623779296875" lon="-70.95196503214538097381591796875">
        <ele>836.79998779296875</ele>
        <time>2026-08-21T17:57:36.000Z</time>
        <extensions>
          <ns3:TrackPointExtension>
            <ns3:hr>142</ns3:hr>
            <ns3:cad>0</ns3:cad>
          </ns3:TrackPointExtension>
        </extensions>
      </trkpt>
      <trkpt lat="45.338887386023998260498046875" lon="-70.95197140239179134368896484375">
        <ele>837</ele>
        <time>2026-08-21T17:57:37.000Z</time>
        <extensions>
          <ns3:TrackPointExtension>
            <ns3:hr>142</ns3:hr>
            <ns3:cad>0</ns3:cad>
          </ns3:TrackPointExtension>
        </extensions>
      </trkpt>
      <trkpt lat="45.33889182843267917633056640625" lon="-70.95197961665689945220947265625">
        <ele>837.20001220703125</ele>
        <time>2026-08-21T17:57:38.000Z</time>
        <extensions>
          <ns3:TrackPointExtension>
            <ns3:hr>142</ns3:hr>
            <ns3:cad>0</ns3:cad>
          </ns3:TrackPointExtension>
        </extensions>
      </trkpt>
      <trkpt lat="45.33889870159327983856201171875" lon="-70.95199034549295902252197265625">
        <ele>837.4000244140625</ele>
        <time>2026-08-21T17:57:39.000Z</time>
        <extensions>
          <ns3:TrackPointExtension>
            <ns3:hr>142</ns3:hr>
            <ns3:cad>0</ns3:cad>
          </ns3:TrackPointExtension>
        </extensions>
      </trkpt>
      <trkpt lat="45.33890272490680217742919921875" lon="-70.9519978053867816925048828125">
        <ele>837.5999755859375</ele>
        <time>2026-08-21T17:57:40.000Z</time>
        <extensions>
          <ns3:TrackPointExtension>
            <ns3:hr>141</ns3:hr>
            <ns3:cad>0</ns3:cad>
          </ns3:TrackPointExtension>
        </extensions>
      </trkpt>
      <trkpt lat="45.3389076702296733856201171875" lon="-70.95200794748961925506591796875">
        <ele>837.79998779296875</ele>
        <time>2026-08-21T17:57:41.000Z</time>
        <extensions>
          <ns3:TrackPointExtension>
            <ns3:hr>141</ns3:hr>
            <ns3:cad>0</ns3:cad>
          </ns3:TrackPointExtension>
        </extensions>
      </trkpt>
      <trkpt lat="45.33891244791448116302490234375" lon="-70.95201616175472736358642578125">
        <ele>838</ele>
        <time>2026-08-21T17:57:42.000Z</time>
        <extensions>
          <ns3:TrackPointExtension>
            <ns3:hr>140</ns3:hr>
            <ns3:cad>0</ns3:cad>
          </ns3:TrackPointExtension>
        </extensions>
      </trkpt>
      <trkpt lat="45.33891789615154266357421875" lon="-70.9520229510962963104248046875">
        <ele>838.20001220703125</ele>
        <time>2026-08-21T17:57:43.000Z</time>
        <extensions>
          <ns3:TrackPointExtension>
            <ns3:hr>141</ns3:hr>
            <ns3:cad>0</ns3:cad>
          </ns3:TrackPointExtension>
        </extensions>
      </trkpt>
      <trkpt lat="45.33892334438860416412353515625" lon="-70.95203183591365814208984375">
        <ele>838.4000244140625</ele>
        <time>2026-08-21T17:57:44.000Z</time>
        <extensions>
          <ns3:TrackPointExtension>
            <ns3:hr>140</ns3:hr>
            <ns3:cad>73</ns3:cad>
          </ns3:TrackPointExtension>
        </extensions>
      </trkpt>
      <trkpt lat="45.3389274515211582183837890625" lon="-70.95204248093068599700927734375">
        <ele>838.5999755859375</ele>
        <time>2026-08-21T17:57:45.000Z</time>
        <extensions>
          <ns3:TrackPointExtension>
            <ns3:hr>140</ns3:hr>
            <ns3:cad>41</ns3:cad>
          </ns3:TrackPointExtension>
        </extensions>
      </trkpt>
      <trkpt lat="45.3389301337301731109619140625" lon="-70.9520537964999675750732421875">
        <ele>838.5999755859375</ele>
        <time>2026-08-21T17:57:46.000Z</time>
        <extensions>
          <ns3:TrackPointExtension>
            <ns3:hr>140</ns3:hr>
            <ns3:cad>40</ns3:cad>
          </ns3:TrackPointExtension>
        </extensions>
      </trkpt>
      <trkpt lat="45.338935665786266326904296875" lon="-70.952065698802471160888671875">
        <ele>838.79998779296875</ele>
        <time>2026-08-21T17:57:47.000Z</time>
        <extensions>
          <ns3:TrackPointExtension>
            <ns3:hr>141</ns3:hr>
            <ns3:cad>40</ns3:cad>
          </ns3:TrackPointExtension>
        </extensions>
      </trkpt>
      <trkpt lat="45.33893801271915435791015625" lon="-70.9520739130675792694091796875">
        <ele>839</ele>
        <time>2026-08-21T17:57:48.000Z</time>
        <extensions>
          <ns3:TrackPointExtension>
            <ns3:hr>141</ns3:hr>
            <ns3:cad>40</ns3:cad>
          </ns3:TrackPointExtension>
        </extensions>
      </trkpt>
      <trkpt lat="45.33894228748977184295654296875" lon="-70.95208355225622653961181640625">
        <ele>839.20001220703125</ele>
        <time>2026-08-21T17:57:49.000Z</time>
        <extensions>
          <ns3:TrackPointExtension>
            <ns3:hr>141</ns3:hr>
            <ns3:cad>79</ns3:cad>
          </ns3:TrackPointExtension>
        </extensions>
      </trkpt>
      <trkpt lat="45.338948406279087066650390625" lon="-70.952093861997127532958984375">
        <ele>839.4000244140625</ele>
        <time>2026-08-21T17:57:50.000Z</time>
        <extensions>
          <ns3:TrackPointExtension>
            <ns3:hr>141</ns3:hr>
            <ns3:cad>79</ns3:cad>
          </ns3:TrackPointExtension>
        </extensions>
      </trkpt>
      <trkpt lat="45.338953100144863128662109375" lon="-70.9521017409861087799072265625">
        <ele>839.5999755859375</ele>
        <time>2026-08-21T17:57:51.000Z</time>
        <extensions>
          <ns3:TrackPointExtension>
            <ns3:hr>141</ns3:hr>
            <ns3:cad>41</ns3:cad>
          </ns3:TrackPointExtension>
        </extensions>
      </trkpt>
      <trkpt lat="45.3389599733054637908935546875" lon="-70.9521138109266757965087890625">
        <ele>839.79998779296875</ele>
        <time>2026-08-21T17:57:52.000Z</time>
        <extensions>
          <ns3:TrackPointExtension>
            <ns3:hr>142</ns3:hr>
            <ns3:cad>41</ns3:cad>
          </ns3:TrackPointExtension>
        </extensions>
      </trkpt>
      <trkpt lat="45.338964499533176422119140625" lon="-70.9521218575537204742431640625">
        <ele>840</ele>
        <time>2026-08-21T17:57:53.000Z</time>
        <extensions>
          <ns3:TrackPointExtension>
            <ns3:hr>142</ns3:hr>
            <ns3:cad>41</ns3:cad>
          </ns3:TrackPointExtension>
        </extensions>
      </trkpt>
      <trkpt lat="45.3389717079699039459228515625" lon="-70.9521309100091457366943359375">
        <ele>840</ele>
        <time>2026-08-21T17:57:54.000Z</time>
        <extensions>
          <ns3:TrackPointExtension>
            <ns3:hr>142</ns3:hr>
            <ns3:cad>41</ns3:cad>
          </ns3:TrackPointExtension>
        </extensions>
      </trkpt>
      <trkpt lat="45.3389800898730754852294921875" lon="-70.95214172266423702239990234375">
        <ele>840.20001220703125</ele>
        <time>2026-08-21T17:57:55.000Z</time>
        <extensions>
          <ns3:TrackPointExtension>
            <ns3:hr>142</ns3:hr>
            <ns3:cad>41</ns3:cad>
          </ns3:TrackPointExtension>
        </extensions>
      </trkpt>
      <trkpt lat="45.3389841131865978240966796875" lon="-70.9521537087857723236083984375">
        <ele>840.20001220703125</ele>
        <time>2026-08-21T17:57:56.000Z</time>
        <extensions>
          <ns3:TrackPointExtension>
            <ns3:hr>142</ns3:hr>
            <ns3:cad>41</ns3:cad>
          </ns3:TrackPointExtension>
        </extensions>
      </trkpt>
      <trkpt lat="45.33898939378559589385986328125" lon="-70.95216862857341766357421875">
        <ele>840.4000244140625</ele>
        <time>2026-08-21T17:57:57.000Z</time>
        <extensions>
          <ns3:TrackPointExtension>
            <ns3:hr>142</ns3:hr>
            <ns3:cad>41</ns3:cad>
          </ns3:TrackPointExtension>
        </extensions>
      </trkpt>
      <trkpt lat="45.33899425528943538665771484375" lon="-70.952178351581096649169921875">
        <ele>840.5999755859375</ele>
        <time>2026-08-21T17:57:58.000Z</time>
        <extensions>
          <ns3:TrackPointExtension>
            <ns3:hr>142</ns3:hr>
            <ns3:cad>41</ns3:cad>
          </ns3:TrackPointExtension>
        </extensions>
      </trkpt>
      <trkpt lat="45.33900045789778232574462890625" lon="-70.9521879069507122039794921875">
        <ele>840.79998779296875</ele>
        <time>2026-08-21T17:57:59.000Z</time>
        <extensions>
          <ns3:TrackPointExtension>
            <ns3:hr>142</ns3:hr>
            <ns3:cad>0</ns3:cad>
          </ns3:TrackPointExtension>
        </extensions>
      </trkpt>
      <trkpt lat="45.339002721011638641357421875" lon="-70.95219553448259830474853515625">
        <ele>841</ele>
        <time>2026-08-21T17:58:00.000Z</time>
        <extensions>
          <ns3:TrackPointExtension>
            <ns3:hr>141</ns3:hr>
            <ns3:cad>0</ns3:cad>
          </ns3:TrackPointExtension>
        </extensions>
      </trkpt>
      <trkpt lat="45.3390059061348438262939453125" lon="-70.9522113762795925140380859375">
        <ele>841</ele>
        <time>2026-08-21T17:58:01.000Z</time>
        <extensions>
          <ns3:TrackPointExtension>
            <ns3:hr>141</ns3:hr>
            <ns3:cad>0</ns3:cad>
          </ns3:TrackPointExtension>
        </extensions>
      </trkpt>
      <trkpt lat="45.33900951035320758819580078125" lon="-70.95222252421081066131591796875">
        <ele>841</ele>
        <time>2026-08-21T17:58:02.000Z</time>
        <extensions>
          <ns3:TrackPointExtension>
            <ns3:hr>141</ns3:hr>
            <ns3:cad>41</ns3:cad>
          </ns3:TrackPointExtension>
        </extensions>
      </trkpt>
      <trkpt lat="45.33901504240930080413818359375" lon="-70.95223358832299709320068359375">
        <ele>841.20001220703125</ele>
        <time>2026-08-21T17:58:03.000Z</time>
        <extensions>
          <ns3:TrackPointExtension>
            <ns3:hr>140</ns3:hr>
            <ns3:cad>41</ns3:cad>
          </ns3:TrackPointExtension>
        </extensions>
      </trkpt>
      <trkpt lat="45.3390213288366794586181640625" lon="-70.95224498771131038665771484375">
        <ele>841.4000244140625</ele>
        <time>2026-08-21T17:58:04.000Z</time>
        <extensions>
          <ns3:TrackPointExtension>
            <ns3:hr>140</ns3:hr>
            <ns3:cad>41</ns3:cad>
          </ns3:TrackPointExtension>
        </extensions>
      </trkpt>
      <trkpt lat="45.33902652561664581298828125" lon="-70.95225437544286251068115234375">
        <ele>841.4000244140625</ele>
        <time>2026-08-21T17:58:05.000Z</time>
        <extensions>
          <ns3:TrackPointExtension>
            <ns3:hr>140</ns3:hr>
            <ns3:cad>41</ns3:cad>
          </ns3:TrackPointExtension>
        </extensions>
      </trkpt>
      <trkpt lat="45.33903381787240505218505859375" lon="-70.95226585865020751953125">
        <ele>841.5999755859375</ele>
        <time>2026-08-21T17:58:06.000Z</time>
        <extensions>
          <ns3:TrackPointExtension>
            <ns3:hr>140</ns3:hr>
            <ns3:cad>41</ns3:cad>
          </ns3:TrackPointExtension>
        </extensions>
      </trkpt>
      <trkpt lat="45.33904085867106914520263671875" lon="-70.9522747434675693511962890625">
        <ele>841.79998779296875</ele>
        <time>2026-08-21T17:58:07.000Z</time>
        <extensions>
          <ns3:TrackPointExtension>
            <ns3:hr>140</ns3:hr>
            <ns3:cad>42</ns3:cad>
          </ns3:TrackPointExtension>
        </extensions>
      </trkpt>
      <trkpt lat="45.33904588781297206878662109375" lon="-70.95228840596973896026611328125">
        <ele>842</ele>
        <time>2026-08-21T17:58:08.000Z</time>
        <extensions>
          <ns3:TrackPointExtension>
            <ns3:hr>140</ns3:hr>
            <ns3:cad>42</ns3:cad>
          </ns3:TrackPointExtension>
        </extensions>
      </trkpt>
      <trkpt lat="45.33904991112649440765380859375" lon="-70.95229963771998882293701171875">
        <ele>842</ele>
        <time>2026-08-21T17:58:09.000Z</time>
        <extensions>
          <ns3:TrackPointExtension>
            <ns3:hr>139</ns3:hr>
            <ns3:cad>43</ns3:cad>
          </ns3:TrackPointExtension>
        </extensions>
      </trkpt>
      <trkpt lat="45.33905594609677791595458984375" lon="-70.952309779822826385498046875">
        <ele>842.20001220703125</ele>
        <time>2026-08-21T17:58:10.000Z</time>
        <extensions>
          <ns3:TrackPointExtension>
            <ns3:hr>139</ns3:hr>
            <ns3:cad>43</ns3:cad>
          </ns3:TrackPointExtension>
        </extensions>
      </trkpt>
      <trkpt lat="45.33906030468642711639404296875" lon="-70.95232428051531314849853515625">
        <ele>842.4000244140625</ele>
        <time>2026-08-21T17:58:11.000Z</time>
        <extensions>
          <ns3:TrackPointExtension>
            <ns3:hr>138</ns3:hr>
            <ns3:cad>43</ns3:cad>
          </ns3:TrackPointExtension>
        </extensions>
      </trkpt>
      <trkpt lat="45.33906097523868083953857421875" lon="-70.9523290582001209259033203125">
        <ele>842.4000244140625</ele>
        <time>2026-08-21T17:58:12.000Z</time>
        <extensions>
          <ns3:TrackPointExtension>
            <ns3:hr>138</ns3:hr>
            <ns3:cad>43</ns3:cad>
          </ns3:TrackPointExtension>
        </extensions>
      </trkpt>
      <trkpt lat="45.339067094027996063232421875" lon="-70.95233903266489505767822265625">
        <ele>842.5999755859375</ele>
        <time>2026-08-21T17:58:13.000Z</time>
        <extensions>
          <ns3:TrackPointExtension>
            <ns3:hr>138</ns3:hr>
            <ns3:cad>43</ns3:cad>
          </ns3:TrackPointExtension>
        </extensions>
      </trkpt>
      <trkpt lat="45.33907589502632617950439453125" lon="-70.9523548744618892669677734375">
        <ele>842.79998779296875</ele>
        <time>2026-08-21T17:58:14.000Z</time>
        <extensions>
          <ns3:TrackPointExtension>
            <ns3:hr>138</ns3:hr>
            <ns3:cad>41</ns3:cad>
          </ns3:TrackPointExtension>
        </extensions>
      </trkpt>
      <trkpt lat="45.3390857018530368804931640625" lon="-70.95236501656472682952880859375">
        <ele>842.79998779296875</ele>
        <time>2026-08-21T17:58:15.000Z</time>
        <extensions>
          <ns3:TrackPointExtension>
            <ns3:hr>138</ns3:hr>
            <ns3:cad>41</ns3:cad>
          </ns3:TrackPointExtension>
        </extensions>
      </trkpt>
      <trkpt lat="45.3390954248607158660888671875" lon="-70.9523770026862621307373046875">
        <ele>843</ele>
        <time>2026-08-21T17:58:16.000Z</time>
        <extensions>
          <ns3:TrackPointExtension>
            <ns3:hr>138</ns3:hr>
            <ns3:cad>41</ns3:cad>
          </ns3:TrackPointExtension>
        </extensions>
      </trkpt>
      <trkpt lat="45.33910841681063175201416015625" lon="-70.95238781534135341644287109375">
        <ele>843</ele>
        <time>2026-08-21T17:58:17.000Z</time>
        <extensions>
          <ns3:TrackPointExtension>
            <ns3:hr>138</ns3:hr>
            <ns3:cad>46</ns3:cad>
          </ns3:TrackPointExtension>
        </extensions>
      </trkpt>
      <trkpt lat="45.3391158767044544219970703125" lon="-70.9523957781493663787841796875">
        <ele>843</ele>
        <time>2026-08-21T17:58:18.000Z</time>
        <extensions>
          <ns3:TrackPointExtension>
            <ns3:hr>138</ns3:hr>
            <ns3:cad>46</ns3:cad>
          </ns3:TrackPointExtension>
        </extensions>
      </trkpt>
      <trkpt lat="45.33912182785570621490478515625" lon="-70.9524028189480304718017578125">
        <ele>843</ele>
        <time>2026-08-21T17:58:19.000Z</time>
        <extensions>
          <ns3:TrackPointExtension>
            <ns3:hr>137</ns3:hr>
            <ns3:cad>0</ns3:cad>
          </ns3:TrackPointExtension>
        </extensions>
      </trkpt>
      <trkpt lat="45.3391212411224842071533203125" lon="-70.95241564325988292694091796875">
        <ele>843.20001220703125</ele>
        <time>2026-08-21T17:58:20.000Z</time>
        <extensions>
          <ns3:TrackPointExtension>
            <ns3:hr>138</ns3:hr>
            <ns3:cad>0</ns3:cad>
          </ns3:TrackPointExtension>
        </extensions>
      </trkpt>
      <trkpt lat="45.33911394886672496795654296875" lon="-70.95241849310696125030517578125">
        <ele>843.20001220703125</ele>
        <time>2026-08-21T17:58:21.000Z</time>
        <extensions>
          <ns3:TrackPointExtension>
            <ns3:hr>138</ns3:hr>
            <ns3:cad>0</ns3:cad>
          </ns3:TrackPointExtension>
        </extensions>
      </trkpt>
      <trkpt lat="45.33911503851413726806640625" lon="-70.95242016948759555816650390625">
        <ele>843.4000244140625</ele>
        <time>2026-08-21T17:58:22.000Z</time>
        <extensions>
          <ns3:TrackPointExtension>
            <ns3:hr>138</ns3:hr>
            <ns3:cad>48</ns3:cad>
          </ns3:TrackPointExtension>
        </extensions>
      </trkpt>
      <trkpt lat="45.33911780454218387603759765625" lon="-70.95242201350629329681396484375">
        <ele>843.4000244140625</ele>
        <time>2026-08-21T17:58:23.000Z</time>
        <extensions>
          <ns3:TrackPointExtension>
            <ns3:hr>138</ns3:hr>
            <ns3:cad>48</ns3:cad>
          </ns3:TrackPointExtension>
        </extensions>
      </trkpt>
      <trkpt lat="45.33911344595253467559814453125" lon="-70.95242151059210300445556640625">
        <ele>843.5999755859375</ele>
        <time>2026-08-21T17:58:24.000Z</time>
        <extensions>
          <ns3:TrackPointExtension>
            <ns3:hr>138</ns3:hr>
            <ns3:cad>48</ns3:cad>
          </ns3:TrackPointExtension>
        </extensions>
      </trkpt>
      <trkpt lat="45.33910959027707576751708984375" lon="-70.9524254500865936279296875">
        <ele>843.5999755859375</ele>
        <time>2026-08-21T17:58:25.000Z</time>
        <extensions>
          <ns3:TrackPointExtension>
            <ns3:hr>138</ns3:hr>
            <ns3:cad>48</ns3:cad>
          </ns3:TrackPointExtension>
        </extensions>
      </trkpt>
      <trkpt lat="45.33910724334418773651123046875" lon="-70.95243056304752826690673828125">
        <ele>843.79998779296875</ele>
        <time>2026-08-21T17:58:26.000Z</time>
        <extensions>
          <ns3:TrackPointExtension>
            <ns3:hr>138</ns3:hr>
            <ns3:cad>48</ns3:cad>
          </ns3:TrackPointExtension>
        </extensions>
      </trkpt>
      <trkpt lat="45.3391028009355068206787109375" lon="-70.9524360112845897674560546875">
        <ele>843.79998779296875</ele>
        <time>2026-08-21T17:58:27.000Z</time>
        <extensions>
          <ns3:TrackPointExtension>
            <ns3:hr>138</ns3:hr>
            <ns3:cad>48</ns3:cad>
          </ns3:TrackPointExtension>
        </extensions>
      </trkpt>
      <trkpt lat="45.33909718506038188934326171875" lon="-70.95244280062615871429443359375">
        <ele>844</ele>
        <time>2026-08-21T17:58:28.000Z</time>
        <extensions>
          <ns3:TrackPointExtension>
            <ns3:hr>138</ns3:hr>
            <ns3:cad>48</ns3:cad>
          </ns3:TrackPointExtension>
        </extensions>
      </trkpt>
      <trkpt lat="45.3390924073755741119384765625" lon="-70.9524531103670597076416015625">
        <ele>844</ele>
        <time>2026-08-21T17:58:29.000Z</time>
        <extensions>
          <ns3:TrackPointExtension>
            <ns3:hr>138</ns3:hr>
            <ns3:cad>0</ns3:cad>
          </ns3:TrackPointExtension>
        </extensions>
      </trkpt>
      <trkpt lat="45.33908897079527378082275390625" lon="-70.95246325246989727020263671875">
        <ele>844</ele>
        <time>2026-08-21T17:58:30.000Z</time>
        <extensions>
          <ns3:TrackPointExtension>
            <ns3:hr>138</ns3:hr>
            <ns3:cad>0</ns3:cad>
          </ns3:TrackPointExtension>
        </extensions>
      </trkpt>
      <trkpt lat="45.339088551700115203857421875" lon="-70.95247196964919567108154296875">
        <ele>844.20001220703125</ele>
        <time>2026-08-21T17:58:31.000Z</time>
        <extensions>
          <ns3:TrackPointExtension>
            <ns3:hr>138</ns3:hr>
            <ns3:cad>0</ns3:cad>
          </ns3:TrackPointExtension>
        </extensions>
      </trkpt>
      <trkpt lat="45.33908897079527378082275390625" lon="-70.95247632823884487152099609375">
        <ele>844.20001220703125</ele>
        <time>2026-08-21T17:58:32.000Z</time>
        <extensions>
          <ns3:TrackPointExtension>
            <ns3:hr>138</ns3:hr>
            <ns3:cad>40</ns3:cad>
          </ns3:TrackPointExtension>
        </extensions>
      </trkpt>
      <trkpt lat="45.339089222252368927001953125" lon="-70.9524842910468578338623046875">
        <ele>844.4000244140625</ele>
        <time>2026-08-21T17:58:33.000Z</time>
        <extensions>
          <ns3:TrackPointExtension>
            <ns3:hr>138</ns3:hr>
            <ns3:cad>40</ns3:cad>
          </ns3:TrackPointExtension>
        </extensions>
      </trkpt>
      <trkpt lat="45.3390883840620517730712890625" lon="-70.95249325968325138092041015625">
        <ele>844.4000244140625</ele>
        <time>2026-08-21T17:58:34.000Z</time>
        <extensions>
          <ns3:TrackPointExtension>
            <ns3:hr>137</ns3:hr>
            <ns3:cad>40</ns3:cad>
          </ns3:TrackPointExtension>
        </extensions>
      </trkpt>
      <trkpt lat="45.3390867076814174652099609375" lon="-70.9524923376739025115966796875">
        <ele>844.4000244140625</ele>
        <time>2026-08-21T17:58:35.000Z</time>
        <extensions>
          <ns3:TrackPointExtension>
            <ns3:hr>138</ns3:hr>
            <ns3:cad>40</ns3:cad>
          </ns3:TrackPointExtension>
        </extensions>
      </trkpt>
      <trkpt lat="45.3390873782336711883544921875" lon="-70.95249183475971221923828125">
        <ele>844.5999755859375</ele>
        <time>2026-08-21T17:58:36.000Z</time>
        <extensions>
          <ns3:TrackPointExtension>
            <ns3:hr>138</ns3:hr>
            <ns3:cad>40</ns3:cad>
          </ns3:TrackPointExtension>
        </extensions>
      </trkpt>
      <trkpt lat="45.33908662386238574981689453125" lon="-70.95249325968325138092041015625">
        <ele>844.5999755859375</ele>
        <time>2026-08-21T17:58:37.000Z</time>
        <extensions>
          <ns3:TrackPointExtension>
            <ns3:hr>138</ns3:hr>
            <ns3:cad>40</ns3:cad>
          </ns3:TrackPointExtension>
        </extensions>
      </trkpt>
      <trkpt lat="45.33908394165337085723876953125" lon="-70.95249577425420284271240234375">
        <ele>844.5999755859375</ele>
        <time>2026-08-21T17:58:38.000Z</time>
        <extensions>
          <ns3:TrackPointExtension>
            <ns3:hr>138</ns3:hr>
            <ns3:cad>0</ns3:cad>
          </ns3:TrackPointExtension>
        </extensions>
      </trkpt>
      <trkpt lat="45.33908360637724399566650390625" lon="-70.95249929465353488922119140625">
        <ele>844.5999755859375</ele>
        <time>2026-08-21T17:58:39.000Z</time>
        <extensions>
          <ns3:TrackPointExtension>
            <ns3:hr>137</ns3:hr>
            <ns3:cad>0</ns3:cad>
          </ns3:TrackPointExtension>
        </extensions>
      </trkpt>
      <trkpt lat="45.339083857834339141845703125" lon="-70.952499546110630035400390625">
        <ele>844.4000244140625</ele>
        <time>2026-08-21T17:58:40.000Z</time>
        <extensions>
          <ns3:TrackPointExtension>
            <ns3:hr>138</ns3:hr>
            <ns3:cad>0</ns3:cad>
          </ns3:TrackPointExtension>
        </extensions>
      </trkpt>
      <trkpt lat="45.339083857834339141845703125" lon="-70.952499546110630035400390625">
        <ele>844.4000244140625</ele>
        <time>2026-08-21T17:58:41.000Z</time>
        <extensions>
          <ns3:TrackPointExtension>
            <ns3:hr>138</ns3:hr>
            <ns3:cad>0</ns3:cad>
          </ns3:TrackPointExtension>
        </extensions>
      </trkpt>
      <trkpt lat="45.339083857834339141845703125" lon="-70.952499546110630035400390625">
        <ele>844.4000244140625</ele>
        <time>2026-08-21T17:58:42.000Z</time>
        <extensions>
          <ns3:TrackPointExtension>
            <ns3:hr>137</ns3:hr>
            <ns3:cad>0</ns3:cad>
          </ns3:TrackPointExtension>
        </extensions>
      </trkpt>
      <trkpt lat="45.339083857834339141845703125" lon="-70.952499546110630035400390625">
        <ele>844.4000244140625</ele>
        <time>2026-08-21T17:58:43.000Z</time>
        <extensions>
          <ns3:TrackPointExtension>
            <ns3:hr>137</ns3:hr>
            <ns3:cad>0</ns3:cad>
          </ns3:TrackPointExtension>
        </extensions>
      </trkpt>
      <trkpt lat="45.339083857834339141845703125" lon="-70.952499546110630035400390625">
        <ele>844.4000244140625</ele>
        <time>2026-08-21T17:58:44.000Z</time>
        <extensions>
          <ns3:TrackPointExtension>
            <ns3:hr>137</ns3:hr>
            <ns3:cad>0</ns3:cad>
          </ns3:TrackPointExtension>
        </extensions>
      </trkpt>
      <trkpt lat="45.339083857834339141845703125" lon="-70.952499546110630035400390625">
        <ele>844.20001220703125</ele>
        <time>2026-08-21T17:58:45.000Z</time>
        <extensions>
          <ns3:TrackPointExtension>
            <ns3:hr>137</ns3:hr>
            <ns3:cad>0</ns3:cad>
          </ns3:TrackPointExtension>
        </extensions>
      </trkpt>
      <trkpt lat="45.339083857834339141845703125" lon="-70.952499546110630035400390625">
        <ele>844.20001220703125</ele>
        <time>2026-08-21T17:58:46.000Z</time>
        <extensions>
          <ns3:TrackPointExtension>
            <ns3:hr>136</ns3:hr>
            <ns3:cad>0</ns3:cad>
          </ns3:TrackPointExtension>
        </extensions>
      </trkpt>
      <trkpt lat="45.339083857834339141845703125" lon="-70.952499546110630035400390625">
        <ele>844.20001220703125</ele>
        <time>2026-08-21T17:58:47.000Z</time>
        <extensions>
          <ns3:TrackPointExtension>
            <ns3:hr>135</ns3:hr>
            <ns3:cad>0</ns3:cad>
          </ns3:TrackPointExtension>
        </extensions>
      </trkpt>
      <trkpt lat="45.339083857834339141845703125" lon="-70.952499546110630035400390625">
        <ele>844.20001220703125</ele>
        <time>2026-08-21T17:58:48.000Z</time>
        <extensions>
          <ns3:TrackPointExtension>
            <ns3:hr>135</ns3:hr>
            <ns3:cad>0</ns3:cad>
          </ns3:TrackPointExtension>
        </extensions>
      </trkpt>
      <trkpt lat="45.339083187282085418701171875" lon="-70.95250147394835948944091796875">
        <ele>844.20001220703125</ele>
        <time>2026-08-21T17:58:49.000Z</time>
        <extensions>
          <ns3:TrackPointExtension>
            <ns3:hr>134</ns3:hr>
            <ns3:cad>0</ns3:cad>
          </ns3:TrackPointExtension>
        </extensions>
      </trkpt>
      <trkpt lat="45.33908226527273654937744140625" lon="-70.95251999795436859130859375">
        <ele>844.20001220703125</ele>
        <time>2026-08-21T17:58:50.000Z</time>
        <extensions>
          <ns3:TrackPointExtension>
            <ns3:hr>134</ns3:hr>
            <ns3:cad>0</ns3:cad>
          </ns3:TrackPointExtension>
        </extensions>
      </trkpt>
      <trkpt lat="45.339083187282085418701171875" lon="-70.95253449864685535430908203125">
        <ele>844.4000244140625</ele>
        <time>2026-08-21T17:58:51.000Z</time>
        <extensions>
          <ns3:TrackPointExtension>
            <ns3:hr>133</ns3:hr>
            <ns3:cad>0</ns3:cad>
          </ns3:TrackPointExtension>
        </extensions>
      </trkpt>
      <trkpt lat="45.33908444456756114959716796875" lon="-70.95254682004451751708984375">
        <ele>844.4000244140625</ele>
        <time>2026-08-21T17:58:52.000Z</time>
        <extensions>
          <ns3:TrackPointExtension>
            <ns3:hr>132</ns3:hr>
            <ns3:cad>0</ns3:cad>
          </ns3:TrackPointExtension>
        </extensions>
      </trkpt>
      <trkpt lat="45.339084528386592864990234375" lon="-70.95256014727056026458740234375">
        <ele>844.5999755859375</ele>
        <time>2026-08-21T17:58:53.000Z</time>
        <extensions>
          <ns3:TrackPointExtension>
            <ns3:hr>132</ns3:hr>
            <ns3:cad>0</ns3:cad>
          </ns3:TrackPointExtension>
        </extensions>
      </trkpt>
      <trkpt lat="45.3390848636627197265625" lon="-70.95257355831563472747802734375">
        <ele>844.5999755859375</ele>
        <time>2026-08-21T17:58:54.000Z</time>
        <extensions>
          <ns3:TrackPointExtension>
            <ns3:hr>132</ns3:hr>
            <ns3:cad>41</ns3:cad>
          </ns3:TrackPointExtension>
        </extensions>
      </trkpt>
      <trkpt lat="45.33908779732882976531982421875" lon="-70.95258302986621856689453125">
        <ele>844.79998779296875</ele>
        <time>2026-08-21T17:58:55.000Z</time>
        <extensions>
          <ns3:TrackPointExtension>
            <ns3:hr>132</ns3:hr>
            <ns3:cad>41</ns3:cad>
          </ns3:TrackPointExtension>
        </extensions>
      </trkpt>
      <trkpt lat="45.33908863551914691925048828125" lon="-70.952592082321643829345703125">
        <ele>845</ele>
        <time>2026-08-21T17:58:56.000Z</time>
        <extensions>
          <ns3:TrackPointExtension>
            <ns3:hr>132</ns3:hr>
            <ns3:cad>40</ns3:cad>
          </ns3:TrackPointExtension>
        </extensions>
      </trkpt>
      <trkpt lat="45.33908880315721035003662109375" lon="-70.95260121859610080718994140625">
        <ele>845.20001220703125</ele>
        <time>2026-08-21T17:58:57.000Z</time>
        <extensions>
          <ns3:TrackPointExtension>
            <ns3:hr>132</ns3:hr>
            <ns3:cad>40</ns3:cad>
          </ns3:TrackPointExtension>
        </extensions>
      </trkpt>
      <trkpt lat="45.3390910662710666656494140625" lon="-70.952603816986083984375">
        <ele>845.4000244140625</ele>
        <time>2026-08-21T17:58:58.000Z</time>
        <extensions>
          <ns3:TrackPointExtension>
            <ns3:hr>133</ns3:hr>
            <ns3:cad>0</ns3:cad>
          </ns3:TrackPointExtension>
        </extensions>
      </trkpt>
      <trkpt lat="45.33909115009009838104248046875" lon="-70.9526023082435131072998046875">
        <ele>845.5999755859375</ele>
        <time>2026-08-21T17:58:59.000Z</time>
        <extensions>
          <ns3:TrackPointExtension>
            <ns3:hr>134</ns3:hr>
            <ns3:cad>0</ns3:cad>
          </ns3:TrackPointExtension>
        </extensions>
      </trkpt>
      <trkpt lat="45.3390900604426860809326171875" lon="-70.95260909758508205413818359375">
        <ele>845.5999755859375</ele>
        <time>2026-08-21T17:59:00.000Z</time>
        <extensions>
          <ns3:TrackPointExtension>
            <ns3:hr>134</ns3:hr>
            <ns3:cad>0</ns3:cad>
          </ns3:TrackPointExtension>
        </extensions>
      </trkpt>
      <trkpt lat="45.3390907309949398040771484375" lon="-70.95261915586888790130615234375">
        <ele>845.79998779296875</ele>
        <time>2026-08-21T17:59:01.000Z</time>
        <extensions>
          <ns3:TrackPointExtension>
            <ns3:hr>134</ns3:hr>
            <ns3:cad>41</ns3:cad>
          </ns3:TrackPointExtension>
        </extensions>
      </trkpt>
      <trkpt lat="45.339091233909130096435546875" lon="-70.952624268829822540283203125">
        <ele>846</ele>
        <time>2026-08-21T17:59:02.000Z</time>
        <extensions>
          <ns3:TrackPointExtension>
            <ns3:hr>134</ns3:hr>
            <ns3:cad>41</ns3:cad>
          </ns3:TrackPointExtension>
        </extensions>
      </trkpt>
      <trkpt lat="45.3390877135097980499267578125" lon="-70.952618904411792755126953125">
        <ele>846</ele>
        <time>2026-08-21T17:59:03.000Z</time>
        <extensions>
          <ns3:TrackPointExtension>
            <ns3:hr>134</ns3:hr>
            <ns3:cad>0</ns3:cad>
          </ns3:TrackPointExtension>
        </extensions>
      </trkpt>
      <trkpt lat="45.339088551700115203857421875" lon="-70.95261898823082447052001953125">
        <ele>846.20001220703125</ele>
        <time>2026-08-21T17:59:04.000Z</time>
        <extensions>
          <ns3:TrackPointExtension>
            <ns3:hr>133</ns3:hr>
            <ns3:cad>0</ns3:cad>
          </ns3:TrackPointExtension>
        </extensions>
      </trkpt>
      <trkpt lat="45.33909131772816181182861328125" lon="-70.952610187232494354248046875">
        <ele>846.20001220703125</ele>
        <time>2026-08-21T17:59:05.000Z</time>
        <extensions>
          <ns3:TrackPointExtension>
            <ns3:hr>134</ns3:hr>
            <ns3:cad>0</ns3:cad>
          </ns3:TrackPointExtension>
        </extensions>
      </trkpt>
      <trkpt lat="45.33909081481397151947021484375" lon="-70.95261027105152606964111328125">
        <ele>846.4000244140625</ele>
        <time>2026-08-21T17:59:06.000Z</time>
        <extensions>
          <ns3:TrackPointExtension>
            <ns3:hr>134</ns3:hr>
            <ns3:cad>0</ns3:cad>
          </ns3:TrackPointExtension>
        </extensions>
      </trkpt>
      <trkpt lat="45.33909064717590808868408203125" lon="-70.9526167251169681549072265625">
        <ele>846.4000244140625</ele>
        <time>2026-08-21T17:59:07.000Z</time>
        <extensions>
          <ns3:TrackPointExtension>
            <ns3:hr>133</ns3:hr>
            <ns3:cad>0</ns3:cad>
          </ns3:TrackPointExtension>
        </extensions>
      </trkpt>
      <trkpt lat="45.339088551700115203857421875" lon="-70.9526257775723934173583984375">
        <ele>846.4000244140625</ele>
        <time>2026-08-21T17:59:08.000Z</time>
        <extensions>
          <ns3:TrackPointExtension>
            <ns3:hr>132</ns3:hr>
            <ns3:cad>0</ns3:cad>
          </ns3:TrackPointExtension>
        </extensions>
      </trkpt>
      <trkpt lat="45.339087545871734619140625" lon="-70.9526351653039455413818359375">
        <ele>846.5999755859375</ele>
        <time>2026-08-21T17:59:09.000Z</time>
        <extensions>
          <ns3:TrackPointExtension>
            <ns3:hr>132</ns3:hr>
            <ns3:cad>0</ns3:cad>
          </ns3:TrackPointExtension>
        </extensions>
      </trkpt>
      <trkpt lat="45.339087881147861480712890625" lon="-70.95265201292932033538818359375">
        <ele>846.79998779296875</ele>
        <time>2026-08-21T17:59:10.000Z</time>
        <extensions>
          <ns3:TrackPointExtension>
            <ns3:hr>131</ns3:hr>
            <ns3:cad>0</ns3:cad>
          </ns3:TrackPointExtension>
        </extensions>
      </trkpt>
      <trkpt lat="45.33908746205270290374755859375" lon="-70.95266173593699932098388671875">
        <ele>846.79998779296875</ele>
        <time>2026-08-21T17:59:11.000Z</time>
        <extensions>
          <ns3:TrackPointExtension>
            <ns3:hr>130</ns3:hr>
            <ns3:cad>0</ns3:cad>
          </ns3:TrackPointExtension>
        </extensions>
      </trkpt>
      <trkpt lat="45.33908712677657604217529296875" lon="-70.95267514698207378387451171875">
        <ele>847</ele>
        <time>2026-08-21T17:59:12.000Z</time>
        <extensions>
          <ns3:TrackPointExtension>
            <ns3:hr>130</ns3:hr>
            <ns3:cad>0</ns3:cad>
          </ns3:TrackPointExtension>
        </extensions>
      </trkpt>
      <trkpt lat="45.33908955752849578857421875" lon="-70.95268503762781620025634765625">
        <ele>847</ele>
        <time>2026-08-21T17:59:13.000Z</time>
        <extensions>
          <ns3:TrackPointExtension>
            <ns3:hr>130</ns3:hr>
            <ns3:cad>79</ns3:cad>
          </ns3:TrackPointExtension>
        </extensions>
      </trkpt>
      <trkpt lat="45.33909014426171779632568359375" lon="-70.95269543118774890899658203125">
        <ele>847.20001220703125</ele>
        <time>2026-08-21T17:59:14.000Z</time>
        <extensions>
          <ns3:TrackPointExtension>
            <ns3:hr>130</ns3:hr>
            <ns3:cad>79</ns3:cad>
          </ns3:TrackPointExtension>
        </extensions>
      </trkpt>
      <trkpt lat="45.3390944190323352813720703125" lon="-70.95270683057606220245361328125">
        <ele>847.4000244140625</ele>
        <time>2026-08-21T17:59:15.000Z</time>
        <extensions>
          <ns3:TrackPointExtension>
            <ns3:hr>129</ns3:hr>
            <ns3:cad>79</ns3:cad>
          </ns3:TrackPointExtension>
        </extensions>
      </trkpt>
      <trkpt lat="45.3390964306890964508056640625" lon="-70.952717475593090057373046875">
        <ele>847.5999755859375</ele>
        <time>2026-08-21T17:59:16.000Z</time>
        <extensions>
          <ns3:TrackPointExtension>
            <ns3:hr>130</ns3:hr>
            <ns3:cad>41</ns3:cad>
          </ns3:TrackPointExtension>
        </extensions>
      </trkpt>
      <trkpt lat="45.3391001187264919281005859375" lon="-70.95272879116237163543701171875">
        <ele>847.79998779296875</ele>
        <time>2026-08-21T17:59:17.000Z</time>
        <extensions>
          <ns3:TrackPointExtension>
            <ns3:hr>130</ns3:hr>
            <ns3:cad>41</ns3:cad>
          </ns3:TrackPointExtension>
        </extensions>
      </trkpt>
      <trkpt lat="45.3391038067638874053955078125" lon="-70.95274136401712894439697265625">
        <ele>848</ele>
        <time>2026-08-21T17:59:18.000Z</time>
        <extensions>
          <ns3:TrackPointExtension>
            <ns3:hr>129</ns3:hr>
            <ns3:cad>41</ns3:cad>
          </ns3:TrackPointExtension>
        </extensions>
      </trkpt>
      <trkpt lat="45.3391061536967754364013671875" lon="-70.95275108702480792999267578125">
        <ele>848.20001220703125</ele>
        <time>2026-08-21T17:59:19.000Z</time>
        <extensions>
          <ns3:TrackPointExtension>
            <ns3:hr>130</ns3:hr>
            <ns3:cad>41</ns3:cad>
          </ns3:TrackPointExtension>
        </extensions>
      </trkpt>
      <trkpt lat="45.33910674042999744415283203125" lon="-70.9527634084224700927734375">
        <ele>848.4000244140625</ele>
        <time>2026-08-21T17:59:20.000Z</time>
        <extensions>
          <ns3:TrackPointExtension>
            <ns3:hr>130</ns3:hr>
            <ns3:cad>41</ns3:cad>
          </ns3:TrackPointExtension>
        </extensions>
      </trkpt>
      <trkpt lat="45.3391098417341709136962890625" lon="-70.95277992077171802520751953125">
        <ele>848.5999755859375</ele>
        <time>2026-08-21T17:59:21.000Z</time>
        <extensions>
          <ns3:TrackPointExtension>
            <ns3:hr>130</ns3:hr>
            <ns3:cad>41</ns3:cad>
          </ns3:TrackPointExtension>
        </extensions>
      </trkpt>
      <trkpt lat="45.33911227248609066009521484375" lon="-70.9527955949306488037109375">
        <ele>848.79998779296875</ele>
        <time>2026-08-21T17:59:22.000Z</time>
        <extensions>
          <ns3:TrackPointExtension>
            <ns3:hr>131</ns3:hr>
            <ns3:cad>41</ns3:cad>
          </ns3:TrackPointExtension>
        </extensions>
      </trkpt>
      <trkpt lat="45.33911244012415409088134765625" lon="-70.9528095088899135589599609375">
        <ele>849</ele>
        <time>2026-08-21T17:59:23.000Z</time>
        <extensions>
          <ns3:TrackPointExtension>
            <ns3:hr>132</ns3:hr>
            <ns3:cad>43</ns3:cad>
          </ns3:TrackPointExtension>
        </extensions>
      </trkpt>
      <trkpt lat="45.3391128592193126678466796875" lon="-70.95282367430627346038818359375">
        <ele>849</ele>
        <time>2026-08-21T17:59:24.000Z</time>
        <extensions>
          <ns3:TrackPointExtension>
            <ns3:hr>133</ns3:hr>
            <ns3:cad>43</ns3:cad>
          </ns3:TrackPointExtension>
        </extensions>
      </trkpt>
      <trkpt lat="45.3391158767044544219970703125" lon="-70.95283172093331813812255859375">
        <ele>849.20001220703125</ele>
        <time>2026-08-21T17:59:25.000Z</time>
        <extensions>
          <ns3:TrackPointExtension>
            <ns3:hr>133</ns3:hr>
            <ns3:cad>43</ns3:cad>
          </ns3:TrackPointExtension>
        </extensions>
      </trkpt>
      <trkpt lat="45.339119732379913330078125" lon="-70.952843539416790008544921875">
        <ele>849.20001220703125</ele>
        <time>2026-08-21T17:59:26.000Z</time>
        <extensions>
          <ns3:TrackPointExtension>
            <ns3:hr>133</ns3:hr>
            <ns3:cad>43</ns3:cad>
          </ns3:TrackPointExtension>
        </extensions>
      </trkpt>
      <trkpt lat="45.33911897800862789154052734375" lon="-70.95285929739475250244140625">
        <ele>849.4000244140625</ele>
        <time>2026-08-21T17:59:27.000Z</time>
        <extensions>
          <ns3:TrackPointExtension>
            <ns3:hr>134</ns3:hr>
            <ns3:cad>43</ns3:cad>
          </ns3:TrackPointExtension>
        </extensions>
      </trkpt>
      <trkpt lat="45.33911612816154956817626953125" lon="-70.952873714268207550048828125">
        <ele>849.5999755859375</ele>
        <time>2026-08-21T17:59:28.000Z</time>
        <extensions>
          <ns3:TrackPointExtension>
            <ns3:hr>134</ns3:hr>
            <ns3:cad>40</ns3:cad>
          </ns3:TrackPointExtension>
        </extensions>
      </trkpt>
      <trkpt lat="45.339114032685756683349609375" lon="-70.95288771204650402069091796875">
        <ele>849.5999755859375</ele>
        <time>2026-08-21T17:59:29.000Z</time>
        <extensions>
          <ns3:TrackPointExtension>
            <ns3:hr>134</ns3:hr>
            <ns3:cad>40</ns3:cad>
          </ns3:TrackPointExtension>
        </extensions>
      </trkpt>
      <trkpt lat="45.33911176957190036773681640625" lon="-70.952899195253849029541015625">
        <ele>849.79998779296875</ele>
        <time>2026-08-21T17:59:30.000Z</time>
        <extensions>
          <ns3:TrackPointExtension>
            <ns3:hr>135</ns3:hr>
            <ns3:cad>0</ns3:cad>
          </ns3:TrackPointExtension>
        </extensions>
      </trkpt>
      <trkpt lat="45.3391085006296634674072265625" lon="-70.95291428267955780029296875">
        <ele>849.79998779296875</ele>
        <time>2026-08-21T17:59:31.000Z</time>
        <extensions>
          <ns3:TrackPointExtension>
            <ns3:hr>135</ns3:hr>
            <ns3:cad>44</ns3:cad>
          </ns3:TrackPointExtension>
        </extensions>
      </trkpt>
      <trkpt lat="45.3391048125922679901123046875" lon="-70.9529248438775539398193359375">
        <ele>850</ele>
        <time>2026-08-21T17:59:32.000Z</time>
        <extensions>
          <ns3:TrackPointExtension>
            <ns3:hr>136</ns3:hr>
            <ns3:cad>44</ns3:cad>
          </ns3:TrackPointExtension>
        </extensions>
      </trkpt>
      <trkpt lat="45.33910405822098255157470703125" lon="-70.95293347723782062530517578125">
        <ele>850.20001220703125</ele>
        <time>2026-08-21T17:59:33.000Z</time>
        <extensions>
          <ns3:TrackPointExtension>
            <ns3:hr>136</ns3:hr>
            <ns3:cad>44</ns3:cad>
          </ns3:TrackPointExtension>
        </extensions>
      </trkpt>
      <trkpt lat="45.33910238184034824371337890625" lon="-70.9529446251690387725830078125">
        <ele>850.20001220703125</ele>
        <time>2026-08-21T17:59:34.000Z</time>
        <extensions>
          <ns3:TrackPointExtension>
            <ns3:hr>136</ns3:hr>
            <ns3:cad>44</ns3:cad>
          </ns3:TrackPointExtension>
        </extensions>
      </trkpt>
      <trkpt lat="45.339098274707794189453125" lon="-70.9529556892812252044677734375">
        <ele>850.4000244140625</ele>
        <time>2026-08-21T17:59:35.000Z</time>
        <extensions>
          <ns3:TrackPointExtension>
            <ns3:hr>136</ns3:hr>
            <ns3:cad>44</ns3:cad>
          </ns3:TrackPointExtension>
        </extensions>
      </trkpt>
      <trkpt lat="45.33909399993717670440673828125" lon="-70.95297052524983882904052734375">
        <ele>850.4000244140625</ele>
        <time>2026-08-21T17:59:36.000Z</time>
        <extensions>
          <ns3:TrackPointExtension>
            <ns3:hr>136</ns3:hr>
            <ns3:cad>44</ns3:cad>
          </ns3:TrackPointExtension>
        </extensions>
      </trkpt>
      <trkpt lat="45.3390914015471935272216796875" lon="-70.95298259519040584564208984375">
        <ele>850.5999755859375</ele>
        <time>2026-08-21T17:59:37.000Z</time>
        <extensions>
          <ns3:TrackPointExtension>
            <ns3:hr>136</ns3:hr>
            <ns3:cad>44</ns3:cad>
          </ns3:TrackPointExtension>
        </extensions>
      </trkpt>
      <trkpt lat="45.3390883840620517730712890625" lon="-70.9529999457299709320068359375">
        <ele>850.5999755859375</ele>
        <time>2026-08-21T17:59:38.000Z</time>
        <extensions>
          <ns3:TrackPointExtension>
            <ns3:hr>135</ns3:hr>
            <ns3:cad>44</ns3:cad>
          </ns3:TrackPointExtension>
        </extensions>
      </trkpt>
      <trkpt lat="45.33908762969076633453369140625" lon="-70.95301377587020397186279296875">
        <ele>850.79998779296875</ele>
        <time>2026-08-21T17:59:39.000Z</time>
        <extensions>
          <ns3:TrackPointExtension>
            <ns3:hr>135</ns3:hr>
            <ns3:cad>44</ns3:cad>
          </ns3:TrackPointExtension>
        </extensions>
      </trkpt>
      <trkpt lat="45.33908863551914691925048828125" lon="-70.95303204841911792755126953125">
        <ele>850.79998779296875</ele>
        <time>2026-08-21T17:59:40.000Z</time>
        <extensions>
          <ns3:TrackPointExtension>
            <ns3:hr>134</ns3:hr>
            <ns3:cad>42</ns3:cad>
          </ns3:TrackPointExtension>
        </extensions>
      </trkpt>
      <trkpt lat="45.3390888869762420654296875" lon="-70.95304478891193866729736328125">
        <ele>851</ele>
        <time>2026-08-21T17:59:41.000Z</time>
        <extensions>
          <ns3:TrackPointExtension>
            <ns3:hr>134</ns3:hr>
            <ns3:cad>47</ns3:cad>
          </ns3:TrackPointExtension>
        </extensions>
      </trkpt>
      <trkpt lat="45.33908980898559093475341796875" lon="-70.95306104980409145355224609375">
        <ele>851</ele>
        <time>2026-08-21T17:59:42.000Z</time>
        <extensions>
          <ns3:TrackPointExtension>
            <ns3:hr>134</ns3:hr>
            <ns3:cad>47</ns3:cad>
          </ns3:TrackPointExtension>
        </extensions>
      </trkpt>
      <trkpt lat="45.339088551700115203857421875" lon="-70.953075550496578216552734375">
        <ele>851.20001220703125</ele>
        <time>2026-08-21T17:59:43.000Z</time>
        <extensions>
          <ns3:TrackPointExtension>
            <ns3:hr>134</ns3:hr>
            <ns3:cad>48</ns3:cad>
          </ns3:TrackPointExtension>
        </extensions>
      </trkpt>
      <trkpt lat="45.33908830024302005767822265625" lon="-70.953090302646160125732421875">
        <ele>851.20001220703125</ele>
        <time>2026-08-21T17:59:44.000Z</time>
        <extensions>
          <ns3:TrackPointExtension>
            <ns3:hr>135</ns3:hr>
            <ns3:cad>48</ns3:cad>
          </ns3:TrackPointExtension>
        </extensions>
      </trkpt>
      <trkpt lat="45.33908679150044918060302734375" lon="-70.95310664735734462738037109375">
        <ele>851.20001220703125</ele>
        <time>2026-08-21T17:59:45.000Z</time>
        <extensions>
          <ns3:TrackPointExtension>
            <ns3:hr>134</ns3:hr>
            <ns3:cad>48</ns3:cad>
          </ns3:TrackPointExtension>
        </extensions>
      </trkpt>
      <trkpt lat="45.3390840254724025726318359375" lon="-70.95312642864882946014404296875">
        <ele>851.20001220703125</ele>
        <time>2026-08-21T17:59:46.000Z</time>
        <extensions>
          <ns3:TrackPointExtension>
            <ns3:hr>134</ns3:hr>
            <ns3:cad>48</ns3:cad>
          </ns3:TrackPointExtension>
        </extensions>
      </trkpt>
      <trkpt lat="45.33908209763467311859130859375" lon="-70.9531431086361408233642578125">
        <ele>851.20001220703125</ele>
        <time>2026-08-21T17:59:47.000Z</time>
        <extensions>
          <ns3:TrackPointExtension>
            <ns3:hr>134</ns3:hr>
            <ns3:cad>48</ns3:cad>
          </ns3:TrackPointExtension>
        </extensions>
      </trkpt>
      <trkpt lat="45.33908176235854625701904296875" lon="-70.95315693877637386322021484375">
        <ele>851.20001220703125</ele>
        <time>2026-08-21T17:59:48.000Z</time>
        <extensions>
          <ns3:TrackPointExtension>
            <ns3:hr>134</ns3:hr>
            <ns3:cad>48</ns3:cad>
          </ns3:TrackPointExtension>
        </extensions>
      </trkpt>
      <trkpt lat="45.339079163968563079833984375" lon="-70.95316649414598941802978515625">
        <ele>851.20001220703125</ele>
        <time>2026-08-21T17:59:49.000Z</time>
        <extensions>
          <ns3:TrackPointExtension>
            <ns3:hr>133</ns3:hr>
            <ns3:cad>48</ns3:cad>
          </ns3:TrackPointExtension>
        </extensions>
      </trkpt>
      <trkpt lat="45.33907840959727764129638671875" lon="-70.95318476669490337371826171875">
        <ele>851.20001220703125</ele>
        <time>2026-08-21T17:59:50.000Z</time>
        <extensions>
          <ns3:TrackPointExtension>
            <ns3:hr>133</ns3:hr>
            <ns3:cad>48</ns3:cad>
          </ns3:TrackPointExtension>
        </extensions>
      </trkpt>
      <trkpt lat="45.33907790668308734893798828125" lon="-70.9531980939209461212158203125">
        <ele>851.20001220703125</ele>
        <time>2026-08-21T17:59:51.000Z</time>
        <extensions>
          <ns3:TrackPointExtension>
            <ns3:hr>133</ns3:hr>
            <ns3:cad>52</ns3:cad>
          </ns3:TrackPointExtension>
        </extensions>
      </trkpt>
      <trkpt lat="45.3390753082931041717529296875" lon="-70.95321175642311573028564453125">
        <ele>851.20001220703125</ele>
        <time>2026-08-21T17:59:52.000Z</time>
        <extensions>
          <ns3:TrackPointExtension>
            <ns3:hr>132</ns3:hr>
            <ns3:cad>52</ns3:cad>
          </ns3:TrackPointExtension>
        </extensions>
      </trkpt>
      <trkpt lat="45.33907388336956501007080078125" lon="-70.9532202221453189849853515625">
        <ele>851.20001220703125</ele>
        <time>2026-08-21T17:59:53.000Z</time>
        <extensions>
          <ns3:TrackPointExtension>
            <ns3:hr>132</ns3:hr>
            <ns3:cad>52</ns3:cad>
          </ns3:TrackPointExtension>
        </extensions>
      </trkpt>
      <trkpt lat="45.33907136879861354827880859375" lon="-70.953237153589725494384765625">
        <ele>851.20001220703125</ele>
        <time>2026-08-21T17:59:54.000Z</time>
        <extensions>
          <ns3:TrackPointExtension>
            <ns3:hr>132</ns3:hr>
            <ns3:cad>52</ns3:cad>
          </ns3:TrackPointExtension>
        </extensions>
      </trkpt>
      <trkpt lat="45.33906851895153522491455078125" lon="-70.95325400121510028839111328125">
        <ele>851.20001220703125</ele>
        <time>2026-08-21T17:59:55.000Z</time>
        <extensions>
          <ns3:TrackPointExtension>
            <ns3:hr>132</ns3:hr>
            <ns3:cad>52</ns3:cad>
          </ns3:TrackPointExtension>
        </extensions>
      </trkpt>
      <trkpt lat="45.33906298689544200897216796875" lon="-70.95326967537403106689453125">
        <ele>851.20001220703125</ele>
        <time>2026-08-21T17:59:56.000Z</time>
        <extensions>
          <ns3:TrackPointExtension>
            <ns3:hr>132</ns3:hr>
            <ns3:cad>52</ns3:cad>
          </ns3:TrackPointExtension>
        </extensions>
      </trkpt>
      <trkpt lat="45.339054353535175323486328125" lon="-70.95328451134264469146728515625">
        <ele>851.20001220703125</ele>
        <time>2026-08-21T17:59:57.000Z</time>
        <extensions>
          <ns3:TrackPointExtension>
            <ns3:hr>132</ns3:hr>
            <ns3:cad>52</ns3:cad>
          </ns3:TrackPointExtension>
        </extensions>
      </trkpt>
      <trkpt lat="45.33904789946973323822021484375" lon="-70.9532998502254486083984375">
        <ele>851.20001220703125</ele>
        <time>2026-08-21T17:59:58.000Z</time>
        <extensions>
          <ns3:TrackPointExtension>
            <ns3:hr>132</ns3:hr>
            <ns3:cad>50</ns3:cad>
          </ns3:TrackPointExtension>
        </extensions>
      </trkpt>
      <trkpt lat="45.33904085867106914520263671875" lon="-70.95332206226885318756103515625">
        <ele>851.20001220703125</ele>
        <time>2026-08-21T17:59:59.000Z</time>
        <extensions>
          <ns3:TrackPointExtension>
            <ns3:hr>132</ns3:hr>
            <ns3:cad>50</ns3:cad>
          </ns3:TrackPointExtension>
        </extensions>
      </trkpt>
      <trkpt lat="45.33903633244335651397705078125" lon="-70.953338406980037689208984375">
        <ele>851.20001220703125</ele>
        <time>2026-08-21T18:00:00.000Z</time>
        <extensions>
          <ns3:TrackPointExtension>
            <ns3:hr>132</ns3:hr>
            <ns3:cad>50</ns3:cad>
          </ns3:TrackPointExtension>
        </extensions>
      </trkpt>
      <trkpt lat="45.33902828581631183624267578125" lon="-70.95335927791893482208251953125">
        <ele>851</ele>
        <time>2026-08-21T18:00:01.000Z</time>
        <extensions>
          <ns3:TrackPointExtension>
            <ns3:hr>131</ns3:hr>
            <ns3:cad>52</ns3:cad>
          </ns3:TrackPointExtension>
        </extensions>
      </trkpt>
      <trkpt lat="45.339020825922489166259765625" lon="-70.95337822102010250091552734375">
        <ele>850.79998779296875</ele>
        <time>2026-08-21T18:00:02.000Z</time>
        <extensions>
          <ns3:TrackPointExtension>
            <ns3:hr>132</ns3:hr>
            <ns3:cad>52</ns3:cad>
          </ns3:TrackPointExtension>
        </extensions>
      </trkpt>
      <trkpt lat="45.339012108743190765380859375" lon="-70.9533979184925556182861328125">
        <ele>850.79998779296875</ele>
        <time>2026-08-21T18:00:03.000Z</time>
        <extensions>
          <ns3:TrackPointExtension>
            <ns3:hr>132</ns3:hr>
            <ns3:cad>55</ns3:cad>
          </ns3:TrackPointExtension>
        </extensions>
      </trkpt>
      <trkpt lat="45.33900029025971889495849609375" lon="-70.95341493375599384307861328125">
        <ele>850.5999755859375</ele>
        <time>2026-08-21T18:00:04.000Z</time>
        <extensions>
          <ns3:TrackPointExtension>
            <ns3:hr>131</ns3:hr>
            <ns3:cad>55</ns3:cad>
          </ns3:TrackPointExtension>
        </extensions>
      </trkpt>
      <trkpt lat="45.33898872323334217071533203125" lon="-70.95343203283846378326416015625">
        <ele>850.4000244140625</ele>
        <time>2026-08-21T18:00:05.000Z</time>
        <extensions>
          <ns3:TrackPointExtension>
            <ns3:hr>132</ns3:hr>
            <ns3:cad>55</ns3:cad>
          </ns3:TrackPointExtension>
        </extensions>
      </trkpt>
      <trkpt lat="45.33898268826305866241455078125" lon="-70.9534488804638385772705078125">
        <ele>850.20001220703125</ele>
        <time>2026-08-21T18:00:06.000Z</time>
        <extensions>
          <ns3:TrackPointExtension>
            <ns3:hr>131</ns3:hr>
            <ns3:cad>58</ns3:cad>
          </ns3:TrackPointExtension>
        </extensions>
      </trkpt>
      <trkpt lat="45.3389774076640605926513671875" lon="-70.95346706919372081756591796875">
        <ele>850.20001220703125</ele>
        <time>2026-08-21T18:00:07.000Z</time>
        <extensions>
          <ns3:TrackPointExtension>
            <ns3:hr>131</ns3:hr>
            <ns3:cad>58</ns3:cad>
          </ns3:TrackPointExtension>
        </extensions>
      </trkpt>
      <trkpt lat="45.3389686904847621917724609375" lon="-70.95348282717168331146240234375">
        <ele>850.20001220703125</ele>
        <time>2026-08-21T18:00:08.000Z</time>
        <extensions>
          <ns3:TrackPointExtension>
            <ns3:hr>131</ns3:hr>
            <ns3:cad>56</ns3:cad>
          </ns3:TrackPointExtension>
        </extensions>
      </trkpt>
      <trkpt lat="45.33896215260028839111328125" lon="-70.953502357006072998046875">
        <ele>850</ele>
        <time>2026-08-21T18:00:09.000Z</time>
        <extensions>
          <ns3:TrackPointExtension>
            <ns3:hr>132</ns3:hr>
            <ns3:cad>56</ns3:cad>
          </ns3:TrackPointExtension>
        </extensions>
      </trkpt>
      <trkpt lat="45.33895603381097316741943359375" lon="-70.95352238975465297698974609375">
        <ele>850</ele>
        <time>2026-08-21T18:00:10.000Z</time>
        <extensions>
          <ns3:TrackPointExtension>
            <ns3:hr>131</ns3:hr>
            <ns3:cad>56</ns3:cad>
          </ns3:TrackPointExtension>
        </extensions>
      </trkpt>
      <trkpt lat="45.338957123458385467529296875" lon="-70.95354502089321613311767578125">
        <ele>849.79998779296875</ele>
        <time>2026-08-21T18:00:11.000Z</time>
        <extensions>
          <ns3:TrackPointExtension>
            <ns3:hr>131</ns3:hr>
            <ns3:cad>56</ns3:cad>
          </ns3:TrackPointExtension>
        </extensions>
      </trkpt>
      <trkpt lat="45.33895100466907024383544921875" lon="-70.95356211997568607330322265625">
        <ele>849.5999755859375</ele>
        <time>2026-08-21T18:00:12.000Z</time>
        <extensions>
          <ns3:TrackPointExtension>
            <ns3:hr>132</ns3:hr>
            <ns3:cad>56</ns3:cad>
          </ns3:TrackPointExtension>
        </extensions>
      </trkpt>
      <trkpt lat="45.338945724070072174072265625" lon="-70.953582823276519775390625">
        <ele>849.5999755859375</ele>
        <time>2026-08-21T18:00:13.000Z</time>
        <extensions>
          <ns3:TrackPointExtension>
            <ns3:hr>131</ns3:hr>
            <ns3:cad>56</ns3:cad>
          </ns3:TrackPointExtension>
        </extensions>
      </trkpt>
      <trkpt lat="45.3389368392527103424072265625" lon="-70.95360604114830493927001953125">
        <ele>849.5999755859375</ele>
        <time>2026-08-21T18:00:14.000Z</time>
        <extensions>
          <ns3:TrackPointExtension>
            <ns3:hr>129</ns3:hr>
            <ns3:cad>56</ns3:cad>
          </ns3:TrackPointExtension>
        </extensions>
      </trkpt>
      <trkpt lat="45.338933654129505157470703125" lon="-70.95362666063010692596435546875">
        <ele>849.4000244140625</ele>
        <time>2026-08-21T18:00:15.000Z</time>
        <extensions>
          <ns3:TrackPointExtension>
            <ns3:hr>128</ns3:hr>
            <ns3:cad>56</ns3:cad>
          </ns3:TrackPointExtension>
        </extensions>
      </trkpt>
      <trkpt lat="45.33892854116857051849365234375" lon="-70.95364811830222606658935546875">
        <ele>849.4000244140625</ele>
        <time>2026-08-21T18:00:16.000Z</time>
        <extensions>
          <ns3:TrackPointExtension>
            <ns3:hr>126</ns3:hr>
            <ns3:cad>56</ns3:cad>
          </ns3:TrackPointExtension>
        </extensions>
      </trkpt>
      <trkpt lat="45.33892460167407989501953125" lon="-70.95367862842977046966552734375">
        <ele>849.20001220703125</ele>
        <time>2026-08-21T18:00:17.000Z</time>
        <extensions>
          <ns3:TrackPointExtension>
            <ns3:hr>126</ns3:hr>
            <ns3:cad>56</ns3:cad>
          </ns3:TrackPointExtension>
        </extensions>
      </trkpt>
      <trkpt lat="45.33891730941832065582275390625" lon="-70.9537026844918727874755859375">
        <ele>849.20001220703125</ele>
        <time>2026-08-21T18:00:18.000Z</time>
        <extensions>
          <ns3:TrackPointExtension>
            <ns3:hr>125</ns3:hr>
            <ns3:cad>56</ns3:cad>
          </ns3:TrackPointExtension>
        </extensions>
      </trkpt>
      <trkpt lat="45.3389096818864345550537109375" lon="-70.9537241421639919281005859375">
        <ele>849</ele>
        <time>2026-08-21T18:00:19.000Z</time>
        <extensions>
          <ns3:TrackPointExtension>
            <ns3:hr>125</ns3:hr>
            <ns3:cad>56</ns3:cad>
          </ns3:TrackPointExtension>
        </extensions>
      </trkpt>
      <trkpt lat="45.33889987505972385406494140625" lon="-70.95373730175197124481201171875">
        <ele>848.79998779296875</ele>
        <time>2026-08-21T18:00:20.000Z</time>
        <extensions>
          <ns3:TrackPointExtension>
            <ns3:hr>124</ns3:hr>
            <ns3:cad>56</ns3:cad>
          </ns3:TrackPointExtension>
        </extensions>
      </trkpt>
      <trkpt lat="45.3388848714530467987060546875" lon="-70.9537496231496334075927734375">
        <ele>848.5999755859375</ele>
        <time>2026-08-21T18:00:21.000Z</time>
        <extensions>
          <ns3:TrackPointExtension>
            <ns3:hr>124</ns3:hr>
            <ns3:cad>56</ns3:cad>
          </ns3:TrackPointExtension>
        </extensions>
      </trkpt>
      <trkpt lat="45.33887439407408237457275390625" lon="-70.95376831479370594024658203125">
        <ele>848.4000244140625</ele>
        <time>2026-08-21T18:00:22.000Z</time>
        <extensions>
          <ns3:TrackPointExtension>
            <ns3:hr>124</ns3:hr>
            <ns3:cad>56</ns3:cad>
          </ns3:TrackPointExtension>
        </extensions>
      </trkpt>
      <trkpt lat="45.3388657607138156890869140625" lon="-70.95378776080906391143798828125">
        <ele>848.20001220703125</ele>
        <time>2026-08-21T18:00:23.000Z</time>
        <extensions>
          <ns3:TrackPointExtension>
            <ns3:hr>124</ns3:hr>
            <ns3:cad>56</ns3:cad>
          </ns3:TrackPointExtension>
        </extensions>
      </trkpt>
      <trkpt lat="45.33885620534420013427734375" lon="-70.95380251295864582061767578125">
        <ele>848.20001220703125</ele>
        <time>2026-08-21T18:00:24.000Z</time>
        <extensions>
          <ns3:TrackPointExtension>
            <ns3:hr>123</ns3:hr>
            <ns3:cad>56</ns3:cad>
          </ns3:TrackPointExtension>
        </extensions>
      </trkpt>
      <trkpt lat="45.33884170465171337127685546875" lon="-70.95382983796298503875732421875">
        <ele>848</ele>
        <time>2026-08-21T18:00:25.000Z</time>
        <extensions>
          <ns3:TrackPointExtension>
            <ns3:hr>122</ns3:hr>
            <ns3:cad>56</ns3:cad>
          </ns3:TrackPointExtension>
        </extensions>
      </trkpt>
      <trkpt lat="45.33882896415889263153076171875" lon="-70.9538552351295948028564453125">
        <ele>847.79998779296875</ele>
        <time>2026-08-21T18:00:26.000Z</time>
        <extensions>
          <ns3:TrackPointExtension>
            <ns3:hr>122</ns3:hr>
            <ns3:cad>70</ns3:cad>
          </ns3:TrackPointExtension>
        </extensions>
      </trkpt>
      <trkpt lat="45.3388179838657379150390625" lon="-70.95388012938201427459716796875">
        <ele>847.79998779296875</ele>
        <time>2026-08-21T18:00:27.000Z</time>
        <extensions>
          <ns3:TrackPointExtension>
            <ns3:hr>122</ns3:hr>
            <ns3:cad>70</ns3:cad>
          </ns3:TrackPointExtension>
        </extensions>
      </trkpt>
      <trkpt lat="45.33881002105772495269775390625" lon="-70.95390963368117809295654296875">
        <ele>847.5999755859375</ele>
        <time>2026-08-21T18:00:28.000Z</time>
        <extensions>
          <ns3:TrackPointExtension>
            <ns3:hr>123</ns3:hr>
            <ns3:cad>0</ns3:cad>
          </ns3:TrackPointExtension>
        </extensions>
      </trkpt>
      <trkpt lat="45.3388003818690776824951171875" lon="-70.9539390541613101959228515625">
        <ele>847.4000244140625</ele>
        <time>2026-08-21T18:00:29.000Z</time>
        <extensions>
          <ns3:TrackPointExtension>
            <ns3:hr>123</ns3:hr>
            <ns3:cad>0</ns3:cad>
          </ns3:TrackPointExtension>
        </extensions>
      </trkpt>
      <trkpt lat="45.33878956921398639678955078125" lon="-70.95396763645112514495849609375">
        <ele>847.20001220703125</ele>
        <time>2026-08-21T18:00:30.000Z</time>
        <extensions>
          <ns3:TrackPointExtension>
            <ns3:hr>123</ns3:hr>
            <ns3:cad>0</ns3:cad>
          </ns3:TrackPointExtension>
        </extensions>
      </trkpt>
      <trkpt lat="45.33878185786306858062744140625" lon="-70.9539880044758319854736328125">
        <ele>847</ele>
        <time>2026-08-21T18:00:31.000Z</time>
        <extensions>
          <ns3:TrackPointExtension>
            <ns3:hr>123</ns3:hr>
            <ns3:cad>0</ns3:cad>
          </ns3:TrackPointExtension>
        </extensions>
      </trkpt>
      <trkpt lat="45.33877305686473846435546875" lon="-70.9540158323943614959716796875">
        <ele>847</ele>
        <time>2026-08-21T18:00:32.000Z</time>
        <extensions>
          <ns3:TrackPointExtension>
            <ns3:hr>124</ns3:hr>
            <ns3:cad>0</ns3:cad>
          </ns3:TrackPointExtension>
        </extensions>
      </trkpt>
      <trkpt lat="45.33876257948577404022216796875" lon="-70.954049527645111083984375">
        <ele>846.79998779296875</ele>
        <time>2026-08-21T18:00:33.000Z</time>
        <extensions>
          <ns3:TrackPointExtension>
            <ns3:hr>124</ns3:hr>
            <ns3:cad>0</ns3:cad>
          </ns3:TrackPointExtension>
        </extensions>
      </trkpt>
      <trkpt lat="45.33875570632517337799072265625" lon="-70.9540738351643085479736328125">
        <ele>846.79998779296875</ele>
        <time>2026-08-21T18:00:34.000Z</time>
        <extensions>
          <ns3:TrackPointExtension>
            <ns3:hr>124</ns3:hr>
            <ns3:cad>0</ns3:cad>
          </ns3:TrackPointExtension>
        </extensions>
      </trkpt>
      <trkpt lat="45.33874782733619213104248046875" lon="-70.9541050158441066741943359375">
        <ele>846.79998779296875</ele>
        <time>2026-08-21T18:00:35.000Z</time>
        <extensions>
          <ns3:TrackPointExtension>
            <ns3:hr>123</ns3:hr>
            <ns3:cad>76</ns3:cad>
          </ns3:TrackPointExtension>
        </extensions>
      </trkpt>
      <trkpt lat="45.33874229528009891510009765625" lon="-70.9541298262774944305419921875">
        <ele>846.5999755859375</ele>
        <time>2026-08-21T18:00:36.000Z</time>
        <extensions>
          <ns3:TrackPointExtension>
            <ns3:hr>123</ns3:hr>
            <ns3:cad>76</ns3:cad>
          </ns3:TrackPointExtension>
        </extensions>
      </trkpt>
      <trkpt lat="45.33873508684337139129638671875" lon="-70.9541559778153896331787109375">
        <ele>846.5999755859375</ele>
        <time>2026-08-21T18:00:37.000Z</time>
        <extensions>
          <ns3:TrackPointExtension>
            <ns3:hr>123</ns3:hr>
            <ns3:cad>77</ns3:cad>
          </ns3:TrackPointExtension>
        </extensions>
      </trkpt>
      <trkpt lat="45.33872745931148529052734375" lon="-70.95418657176196575164794921875">
        <ele>846.4000244140625</ele>
        <time>2026-08-21T18:00:38.000Z</time>
        <extensions>
          <ns3:TrackPointExtension>
            <ns3:hr>123</ns3:hr>
            <ns3:cad>77</ns3:cad>
          </ns3:TrackPointExtension>
        </extensions>
      </trkpt>
      <trkpt lat="45.33872201107442378997802734375" lon="-70.95420978963375091552734375">
        <ele>846.4000244140625</ele>
        <time>2026-08-21T18:00:39.000Z</time>
        <extensions>
          <ns3:TrackPointExtension>
            <ns3:hr>123</ns3:hr>
            <ns3:cad>77</ns3:cad>
          </ns3:TrackPointExtension>
        </extensions>
      </trkpt>
      <trkpt lat="45.33871002495288848876953125" lon="-70.95423133112490177154541015625">
        <ele>846.20001220703125</ele>
        <time>2026-08-21T18:00:40.000Z</time>
        <extensions>
          <ns3:TrackPointExtension>
            <ns3:hr>124</ns3:hr>
            <ns3:cad>76</ns3:cad>
          </ns3:TrackPointExtension>
        </extensions>
      </trkpt>
      <trkpt lat="45.33869661390781402587890625" lon="-70.9542558901011943817138671875">
        <ele>846</ele>
        <time>2026-08-21T18:00:41.000Z</time>
        <extensions>
          <ns3:TrackPointExtension>
            <ns3:hr>123</ns3:hr>
            <ns3:cad>76</ns3:cad>
          </ns3:TrackPointExtension>
        </extensions>
      </trkpt>
      <trkpt lat="45.338686220347881317138671875" lon="-70.9542783536016941070556640625">
        <ele>846</ele>
        <time>2026-08-21T18:00:42.000Z</time>
        <extensions>
          <ns3:TrackPointExtension>
            <ns3:hr>123</ns3:hr>
            <ns3:cad>75</ns3:cad>
          </ns3:TrackPointExtension>
        </extensions>
      </trkpt>
      <trkpt lat="45.33867792226374149322509765625" lon="-70.95430006273090839385986328125">
        <ele>846</ele>
        <time>2026-08-21T18:00:43.000Z</time>
        <extensions>
          <ns3:TrackPointExtension>
            <ns3:hr>124</ns3:hr>
            <ns3:cad>75</ns3:cad>
          </ns3:TrackPointExtension>
        </extensions>
      </trkpt>
      <trkpt lat="45.33866970799863338470458984375" lon="-70.95432914793491363525390625">
        <ele>845.79998779296875</ele>
        <time>2026-08-21T18:00:44.000Z</time>
        <extensions>
          <ns3:TrackPointExtension>
            <ns3:hr>124</ns3:hr>
            <ns3:cad>75</ns3:cad>
          </ns3:TrackPointExtension>
        </extensions>
      </trkpt>
      <trkpt lat="45.33866484649479389190673828125" lon="-70.9543539583683013916015625">
        <ele>845.79998779296875</ele>
        <time>2026-08-21T18:00:45.000Z</time>
        <extensions>
          <ns3:TrackPointExtension>
            <ns3:hr>124</ns3:hr>
            <ns3:cad>75</ns3:cad>
          </ns3:TrackPointExtension>
        </extensions>
      </trkpt>
      <trkpt lat="45.3386605717241764068603515625" lon="-70.95437918789684772491455078125">
        <ele>845.79998779296875</ele>
        <time>2026-08-21T18:00:46.000Z</time>
        <extensions>
          <ns3:TrackPointExtension>
            <ns3:hr>125</ns3:hr>
            <ns3:cad>75</ns3:cad>
          </ns3:TrackPointExtension>
        </extensions>
      </trkpt>
      <trkpt lat="45.33865629695355892181396484375" lon="-70.95441120676696300506591796875">
        <ele>845.5999755859375</ele>
        <time>2026-08-21T18:00:47.000Z</time>
        <extensions>
          <ns3:TrackPointExtension>
            <ns3:hr>126</ns3:hr>
            <ns3:cad>75</ns3:cad>
          </ns3:TrackPointExtension>
        </extensions>
      </trkpt>
      <trkpt lat="45.33865110017359256744384765625" lon="-70.95443936996161937713623046875">
        <ele>845.5999755859375</ele>
        <time>2026-08-21T18:00:48.000Z</time>
        <extensions>
          <ns3:TrackPointExtension>
            <ns3:hr>126</ns3:hr>
            <ns3:cad>75</ns3:cad>
          </ns3:TrackPointExtension>
        </extensions>
      </trkpt>
      <trkpt lat="45.33864322118461132049560546875" lon="-70.95447130501270294189453125">
        <ele>845.4000244140625</ele>
        <time>2026-08-21T18:00:49.000Z</time>
        <extensions>
          <ns3:TrackPointExtension>
            <ns3:hr>126</ns3:hr>
            <ns3:cad>75</ns3:cad>
          </ns3:TrackPointExtension>
        </extensions>
      </trkpt>
      <trkpt lat="45.3386374376714229583740234375" lon="-70.9544969536364078521728515625">
        <ele>845.20001220703125</ele>
        <time>2026-08-21T18:00:50.000Z</time>
        <extensions>
          <ns3:TrackPointExtension>
            <ns3:hr>126</ns3:hr>
            <ns3:cad>75</ns3:cad>
          </ns3:TrackPointExtension>
        </extensions>
      </trkpt>
      <trkpt lat="45.33862779848277568817138671875" lon="-70.954523272812366485595703125">
        <ele>845.20001220703125</ele>
        <time>2026-08-21T18:00:51.000Z</time>
        <extensions>
          <ns3:TrackPointExtension>
            <ns3:hr>126</ns3:hr>
            <ns3:cad>75</ns3:cad>
          </ns3:TrackPointExtension>
        </extensions>
      </trkpt>
      <trkpt lat="45.33861958421766757965087890625" lon="-70.95455638132989406585693359375">
        <ele>845</ele>
        <time>2026-08-21T18:00:52.000Z</time>
        <extensions>
          <ns3:TrackPointExtension>
            <ns3:hr>125</ns3:hr>
            <ns3:cad>78</ns3:cad>
          </ns3:TrackPointExtension>
        </extensions>
      </trkpt>
      <trkpt lat="45.33861321397125720977783203125" lon="-70.9545811079442501068115234375">
        <ele>845</ele>
        <time>2026-08-21T18:00:53.000Z</time>
        <extensions>
          <ns3:TrackPointExtension>
            <ns3:hr>126</ns3:hr>
            <ns3:cad>78</ns3:cad>
          </ns3:TrackPointExtension>
        </extensions>
      </trkpt>
      <trkpt lat="45.33860734663903713226318359375" lon="-70.9546119533479213714599609375">
        <ele>844.79998779296875</ele>
        <time>2026-08-21T18:00:54.000Z</time>
        <extensions>
          <ns3:TrackPointExtension>
            <ns3:hr>126</ns3:hr>
            <ns3:cad>78</ns3:cad>
          </ns3:TrackPointExtension>
        </extensions>
      </trkpt>
      <trkpt lat="45.33860399387776851654052734375" lon="-70.9546414576470851898193359375">
        <ele>844.5999755859375</ele>
        <time>2026-08-21T18:00:55.000Z</time>
        <extensions>
          <ns3:TrackPointExtension>
            <ns3:hr>126</ns3:hr>
            <ns3:cad>77</ns3:cad>
          </ns3:TrackPointExtension>
        </extensions>
      </trkpt>
      <trkpt lat="45.3386025689542293548583984375" lon="-70.95467381179332733154296875">
        <ele>844.5999755859375</ele>
        <time>2026-08-21T18:00:56.000Z</time>
        <extensions>
          <ns3:TrackPointExtension>
            <ns3:hr>126</ns3:hr>
            <ns3:cad>77</ns3:cad>
          </ns3:TrackPointExtension>
        </extensions>
      </trkpt>
      <trkpt lat="45.33860273659229278564453125" lon="-70.9547024779021739959716796875">
        <ele>844.5999755859375</ele>
        <time>2026-08-21T18:00:57.000Z</time>
        <extensions>
          <ns3:TrackPointExtension>
            <ns3:hr>126</ns3:hr>
            <ns3:cad>76</ns3:cad>
          </ns3:TrackPointExtension>
        </extensions>
      </trkpt>
      <trkpt lat="45.3386060893535614013671875" lon="-70.9547326527535915374755859375">
        <ele>844.4000244140625</ele>
        <time>2026-08-21T18:00:58.000Z</time>
        <extensions>
          <ns3:TrackPointExtension>
            <ns3:hr>126</ns3:hr>
            <ns3:cad>76</ns3:cad>
          </ns3:TrackPointExtension>
        </extensions>
      </trkpt>
      <trkpt lat="45.3386086039245128631591796875" lon="-70.954763330519199371337890625">
        <ele>844.4000244140625</ele>
        <time>2026-08-21T18:00:59.000Z</time>
        <extensions>
          <ns3:TrackPointExtension>
            <ns3:hr>125</ns3:hr>
            <ns3:cad>76</ns3:cad>
          </ns3:TrackPointExtension>
        </extensions>
      </trkpt>
      <trkpt lat="45.33860801719129085540771484375" lon="-70.95478939823806285858154296875">
        <ele>844.4000244140625</ele>
        <time>2026-08-21T18:01:00.000Z</time>
        <extensions>
          <ns3:TrackPointExtension>
            <ns3:hr>126</ns3:hr>
            <ns3:cad>76</ns3:cad>
          </ns3:TrackPointExtension>
        </extensions>
      </trkpt>
      <trkpt lat="45.338609106838703155517578125" lon="-70.9548198245465755462646484375">
        <ele>844.5999755859375</ele>
        <time>2026-08-21T18:01:01.000Z</time>
        <extensions>
          <ns3:TrackPointExtension>
            <ns3:hr>126</ns3:hr>
            <ns3:cad>76</ns3:cad>
          </ns3:TrackPointExtension>
        </extensions>
      </trkpt>
      <trkpt lat="45.3386042453348636627197265625" lon="-70.95484019257128238677978515625">
        <ele>844.5999755859375</ele>
        <time>2026-08-21T18:01:02.000Z</time>
        <extensions>
          <ns3:TrackPointExtension>
            <ns3:hr>126</ns3:hr>
            <ns3:cad>75</ns3:cad>
          </ns3:TrackPointExtension>
        </extensions>
      </trkpt>
      <trkpt lat="45.3385985456407070159912109375" lon="-70.9548637457191944122314453125">
        <ele>844.4000244140625</ele>
        <time>2026-08-21T18:01:03.000Z</time>
        <extensions>
          <ns3:TrackPointExtension>
            <ns3:hr>126</ns3:hr>
            <ns3:cad>74</ns3:cad>
          </ns3:TrackPointExtension>
        </extensions>
      </trkpt>
      <trkpt lat="45.33859577961266040802001953125" lon="-70.9548877179622650146484375">
        <ele>844.4000244140625</ele>
        <time>2026-08-21T18:01:04.000Z</time>
        <extensions>
          <ns3:TrackPointExtension>
            <ns3:hr>126</ns3:hr>
            <ns3:cad>74</ns3:cad>
          </ns3:TrackPointExtension>
        </extensions>
      </trkpt>
      <trkpt lat="45.33859427087008953094482421875" lon="-70.95490825362503528594970703125">
        <ele>844.4000244140625</ele>
        <time>2026-08-21T18:01:05.000Z</time>
        <extensions>
          <ns3:TrackPointExtension>
            <ns3:hr>125</ns3:hr>
            <ns3:cad>73</ns3:cad>
          </ns3:TrackPointExtension>
        </extensions>
      </trkpt>
      <trkpt lat="45.33859075047075748443603515625" lon="-70.95492602325975894927978515625">
        <ele>844.4000244140625</ele>
        <time>2026-08-21T18:01:06.000Z</time>
        <extensions>
          <ns3:TrackPointExtension>
            <ns3:hr>126</ns3:hr>
            <ns3:cad>73</ns3:cad>
          </ns3:TrackPointExtension>
        </extensions>
      </trkpt>
      <trkpt lat="45.33858857117593288421630859375" lon="-70.95494764856994152069091796875">
        <ele>844.20001220703125</ele>
        <time>2026-08-21T18:01:07.000Z</time>
        <extensions>
          <ns3:TrackPointExtension>
            <ns3:hr>126</ns3:hr>
            <ns3:cad>73</ns3:cad>
          </ns3:TrackPointExtension>
        </extensions>
      </trkpt>
      <trkpt lat="45.33858270384371280670166015625" lon="-70.9549619816243648529052734375">
        <ele>844.20001220703125</ele>
        <time>2026-08-21T18:01:08.000Z</time>
        <extensions>
          <ns3:TrackPointExtension>
            <ns3:hr>126</ns3:hr>
            <ns3:cad>73</ns3:cad>
          </ns3:TrackPointExtension>
        </extensions>
      </trkpt>
      <trkpt lat="45.33857951872050762176513671875" lon="-70.95497849397361278533935546875">
        <ele>844.20001220703125</ele>
        <time>2026-08-21T18:01:09.000Z</time>
        <extensions>
          <ns3:TrackPointExtension>
            <ns3:hr>126</ns3:hr>
            <ns3:cad>73</ns3:cad>
          </ns3:TrackPointExtension>
        </extensions>
      </trkpt>
      <trkpt lat="45.33857784233987331390380859375" lon="-70.95499592833220958709716796875">
        <ele>844.20001220703125</ele>
        <time>2026-08-21T18:01:10.000Z</time>
        <extensions>
          <ns3:TrackPointExtension>
            <ns3:hr>125</ns3:hr>
            <ns3:cad>58</ns3:cad>
          </ns3:TrackPointExtension>
        </extensions>
      </trkpt>
      <trkpt lat="45.33857717178761959075927734375" lon="-70.955013446509838104248046875">
        <ele>844.20001220703125</ele>
        <time>2026-08-21T18:01:11.000Z</time>
        <extensions>
          <ns3:TrackPointExtension>
            <ns3:hr>126</ns3:hr>
            <ns3:cad>58</ns3:cad>
          </ns3:TrackPointExtension>
        </extensions>
      </trkpt>
      <trkpt lat="45.33857725560665130615234375" lon="-70.955031216144561767578125">
        <ele>844.20001220703125</ele>
        <time>2026-08-21T18:01:12.000Z</time>
        <extensions>
          <ns3:TrackPointExtension>
            <ns3:hr>126</ns3:hr>
            <ns3:cad>55</ns3:cad>
          </ns3:TrackPointExtension>
        </extensions>
      </trkpt>
      <trkpt lat="45.3385814465582370758056640625" lon="-70.955050997436046600341796875">
        <ele>844.20001220703125</ele>
        <time>2026-08-21T18:01:13.000Z</time>
        <extensions>
          <ns3:TrackPointExtension>
            <ns3:hr>126</ns3:hr>
            <ns3:cad>54</ns3:cad>
          </ns3:TrackPointExtension>
        </extensions>
      </trkpt>
      <trkpt lat="45.3385881520807743072509765625" lon="-70.95507304184138774871826171875">
        <ele>844.20001220703125</ele>
        <time>2026-08-21T18:01:14.000Z</time>
        <extensions>
          <ns3:TrackPointExtension>
            <ns3:hr>126</ns3:hr>
            <ns3:cad>54</ns3:cad>
          </ns3:TrackPointExtension>
        </extensions>
      </trkpt>
      <trkpt lat="45.33859058283269405364990234375" lon="-70.955095589160919189453125">
        <ele>844</ele>
        <time>2026-08-21T18:01:15.000Z</time>
        <extensions>
          <ns3:TrackPointExtension>
            <ns3:hr>125</ns3:hr>
            <ns3:cad>55</ns3:cad>
          </ns3:TrackPointExtension>
        </extensions>
      </trkpt>
      <trkpt lat="45.3385921753942966461181640625" lon="-70.955116711556911468505859375">
        <ele>843.79998779296875</ele>
        <time>2026-08-21T18:01:16.000Z</time>
        <extensions>
          <ns3:TrackPointExtension>
            <ns3:hr>124</ns3:hr>
            <ns3:cad>55</ns3:cad>
          </ns3:TrackPointExtension>
        </extensions>
      </trkpt>
      <trkpt lat="45.33859712071716785430908203125" lon="-70.9551373310387134552001953125">
        <ele>843.5999755859375</ele>
        <time>2026-08-21T18:01:17.000Z</time>
        <extensions>
          <ns3:TrackPointExtension>
            <ns3:hr>124</ns3:hr>
            <ns3:cad>56</ns3:cad>
          </ns3:TrackPointExtension>
        </extensions>
      </trkpt>
      <trkpt lat="45.33859695307910442352294921875" lon="-70.95515836961567401885986328125">
        <ele>843.4000244140625</ele>
        <time>2026-08-21T18:01:18.000Z</time>
        <extensions>
          <ns3:TrackPointExtension>
            <ns3:hr>124</ns3:hr>
            <ns3:cad>56</ns3:cad>
          </ns3:TrackPointExtension>
        </extensions>
      </trkpt>
      <trkpt lat="45.33859695307910442352294921875" lon="-70.9551768936216831207275390625">
        <ele>843.4000244140625</ele>
        <time>2026-08-21T18:01:19.000Z</time>
        <extensions>
          <ns3:TrackPointExtension>
            <ns3:hr>124</ns3:hr>
            <ns3:cad>56</ns3:cad>
          </ns3:TrackPointExtension>
        </extensions>
      </trkpt>
      <trkpt lat="45.3386002220213413238525390625" lon="-70.9551973454654216766357421875">
        <ele>843.20001220703125</ele>
        <time>2026-08-21T18:01:20.000Z</time>
        <extensions>
          <ns3:TrackPointExtension>
            <ns3:hr>124</ns3:hr>
            <ns3:cad>56</ns3:cad>
          </ns3:TrackPointExtension>
        </extensions>
      </trkpt>
      <trkpt lat="45.33860248513519763946533203125" lon="-70.95521871931850910186767578125">
        <ele>843</ele>
        <time>2026-08-21T18:01:21.000Z</time>
        <extensions>
          <ns3:TrackPointExtension>
            <ns3:hr>123</ns3:hr>
            <ns3:cad>56</ns3:cad>
          </ns3:TrackPointExtension>
        </extensions>
      </trkpt>
      <trkpt lat="45.3386114537715911865234375" lon="-70.955240093171596527099609375">
        <ele>843</ele>
        <time>2026-08-21T18:01:22.000Z</time>
        <extensions>
          <ns3:TrackPointExtension>
            <ns3:hr>124</ns3:hr>
            <ns3:cad>56</ns3:cad>
          </ns3:TrackPointExtension>
        </extensions>
      </trkpt>
      <trkpt lat="45.3386176563799381256103515625" lon="-70.9552573598921298980712890625">
        <ele>843</ele>
        <time>2026-08-21T18:01:23.000Z</time>
        <extensions>
          <ns3:TrackPointExtension>
            <ns3:hr>123</ns3:hr>
            <ns3:cad>58</ns3:cad>
          </ns3:TrackPointExtension>
        </extensions>
      </trkpt>
      <trkpt lat="45.33862176351249217987060546875" lon="-70.95527487806975841522216796875">
        <ele>842.79998779296875</ele>
        <time>2026-08-21T18:01:24.000Z</time>
        <extensions>
          <ns3:TrackPointExtension>
            <ns3:hr>123</ns3:hr>
            <ns3:cad>58</ns3:cad>
          </ns3:TrackPointExtension>
        </extensions>
      </trkpt>
      <trkpt lat="45.33862209878861904144287109375" lon="-70.95529214479029178619384765625">
        <ele>842.79998779296875</ele>
        <time>2026-08-21T18:01:25.000Z</time>
        <extensions>
          <ns3:TrackPointExtension>
            <ns3:hr>123</ns3:hr>
            <ns3:cad>58</ns3:cad>
          </ns3:TrackPointExtension>
        </extensions>
      </trkpt>
      <trkpt lat="45.3386203385889530181884765625" lon="-70.95530723221600055694580078125">
        <ele>842.79998779296875</ele>
        <time>2026-08-21T18:01:26.000Z</time>
        <extensions>
          <ns3:TrackPointExtension>
            <ns3:hr>123</ns3:hr>
            <ns3:cad>58</ns3:cad>
          </ns3:TrackPointExtension>
        </extensions>
      </trkpt>
      <trkpt lat="45.33861757256090641021728515625" lon="-70.9553257562220096588134765625">
        <ele>842.5999755859375</ele>
        <time>2026-08-21T18:01:27.000Z</time>
        <extensions>
          <ns3:TrackPointExtension>
            <ns3:hr>123</ns3:hr>
            <ns3:cad>57</ns3:cad>
          </ns3:TrackPointExtension>
        </extensions>
      </trkpt>
      <trkpt lat="45.33861480653285980224609375" lon="-70.95534176565706729888916015625">
        <ele>842.4000244140625</ele>
        <time>2026-08-21T18:01:28.000Z</time>
        <extensions>
          <ns3:TrackPointExtension>
            <ns3:hr>124</ns3:hr>
            <ns3:cad>57</ns3:cad>
          </ns3:TrackPointExtension>
        </extensions>
      </trkpt>
      <trkpt lat="45.3386119566857814788818359375" lon="-70.95536221750080585479736328125">
        <ele>842.4000244140625</ele>
        <time>2026-08-21T18:01:29.000Z</time>
        <extensions>
          <ns3:TrackPointExtension>
            <ns3:hr>124</ns3:hr>
            <ns3:cad>57</ns3:cad>
          </ns3:TrackPointExtension>
        </extensions>
      </trkpt>
      <trkpt lat="45.3386082686483860015869140625" lon="-70.9553777240216732025146484375">
        <ele>842.20001220703125</ele>
        <time>2026-08-21T18:01:30.000Z</time>
        <extensions>
          <ns3:TrackPointExtension>
            <ns3:hr>124</ns3:hr>
            <ns3:cad>57</ns3:cad>
          </ns3:TrackPointExtension>
        </extensions>
      </trkpt>
      <trkpt lat="45.33860131166875362396240234375" lon="-70.9553904645144939422607421875">
        <ele>842.20001220703125</ele>
        <time>2026-08-21T18:01:31.000Z</time>
        <extensions>
          <ns3:TrackPointExtension>
            <ns3:hr>124</ns3:hr>
            <ns3:cad>57</ns3:cad>
          </ns3:TrackPointExtension>
        </extensions>
      </trkpt>
      <trkpt lat="45.33859309740364551544189453125" lon="-70.95540161244571208953857421875">
        <ele>842</ele>
        <time>2026-08-21T18:01:32.000Z</time>
        <extensions>
          <ns3:TrackPointExtension>
            <ns3:hr>124</ns3:hr>
            <ns3:cad>57</ns3:cad>
          </ns3:TrackPointExtension>
        </extensions>
      </trkpt>
      <trkpt lat="45.3385824523866176605224609375" lon="-70.955420471727848052978515625">
        <ele>841.79998779296875</ele>
        <time>2026-08-21T18:01:33.000Z</time>
        <extensions>
          <ns3:TrackPointExtension>
            <ns3:hr>123</ns3:hr>
            <ns3:cad>57</ns3:cad>
          </ns3:TrackPointExtension>
        </extensions>
      </trkpt>
      <trkpt lat="45.3385712206363677978515625" lon="-70.9554397501051425933837890625">
        <ele>841.5999755859375</ele>
        <time>2026-08-21T18:01:34.000Z</time>
        <extensions>
          <ns3:TrackPointExtension>
            <ns3:hr>124</ns3:hr>
            <ns3:cad>57</ns3:cad>
          </ns3:TrackPointExtension>
        </extensions>
      </trkpt>
      <trkpt lat="45.33856309019029140472412109375" lon="-70.95545810647308826446533203125">
        <ele>841.20001220703125</ele>
        <time>2026-08-21T18:01:35.000Z</time>
        <extensions>
          <ns3:TrackPointExtension>
            <ns3:hr>124</ns3:hr>
            <ns3:cad>57</ns3:cad>
          </ns3:TrackPointExtension>
        </extensions>
      </trkpt>
      <trkpt lat="45.3385576419532299041748046875" lon="-70.95547956414520740509033203125">
        <ele>841</ele>
        <time>2026-08-21T18:01:36.000Z</time>
        <extensions>
          <ns3:TrackPointExtension>
            <ns3:hr>124</ns3:hr>
            <ns3:cad>57</ns3:cad>
          </ns3:TrackPointExtension>
        </extensions>
      </trkpt>
      <trkpt lat="45.33855169080197811126708984375" lon="-70.95550253055989742279052734375">
        <ele>840.79998779296875</ele>
        <time>2026-08-21T18:01:37.000Z</time>
        <extensions>
          <ns3:TrackPointExtension>
            <ns3:hr>124</ns3:hr>
            <ns3:cad>60</ns3:cad>
          </ns3:TrackPointExtension>
        </extensions>
      </trkpt>
      <trkpt lat="45.3385452367365360260009765625" lon="-70.95552180893719196319580078125">
        <ele>840.5999755859375</ele>
        <time>2026-08-21T18:01:38.000Z</time>
        <extensions>
          <ns3:TrackPointExtension>
            <ns3:hr>123</ns3:hr>
            <ns3:cad>60</ns3:cad>
          </ns3:TrackPointExtension>
        </extensions>
      </trkpt>
      <trkpt lat="45.3385368548333644866943359375" lon="-70.9555389918386936187744140625">
        <ele>840.4000244140625</ele>
        <time>2026-08-21T18:01:39.000Z</time>
        <extensions>
          <ns3:TrackPointExtension>
            <ns3:hr>124</ns3:hr>
            <ns3:cad>60</ns3:cad>
          </ns3:TrackPointExtension>
        </extensions>
      </trkpt>
      <trkpt lat="45.33852989785373210906982421875" lon="-70.95555516891181468963623046875">
        <ele>840.20001220703125</ele>
        <time>2026-08-21T18:01:40.000Z</time>
        <extensions>
          <ns3:TrackPointExtension>
            <ns3:hr>123</ns3:hr>
            <ns3:cad>63</ns3:cad>
          </ns3:TrackPointExtension>
        </extensions>
      </trkpt>
      <trkpt lat="45.3385200910270214080810546875" lon="-70.955565981566905975341796875">
        <ele>840</ele>
        <time>2026-08-21T18:01:41.000Z</time>
        <extensions>
          <ns3:TrackPointExtension>
            <ns3:hr>123</ns3:hr>
            <ns3:cad>63</ns3:cad>
          </ns3:TrackPointExtension>
        </extensions>
      </trkpt>
      <trkpt lat="45.33851279877126216888427734375" lon="-70.9555792249739170074462890625">
        <ele>839.79998779296875</ele>
        <time>2026-08-21T18:01:42.000Z</time>
        <extensions>
          <ns3:TrackPointExtension>
            <ns3:hr>122</ns3:hr>
            <ns3:cad>63</ns3:cad>
          </ns3:TrackPointExtension>
        </extensions>
      </trkpt>
      <trkpt lat="45.33850642852485179901123046875" lon="-70.95559406094253063201904296875">
        <ele>839.5999755859375</ele>
        <time>2026-08-21T18:01:43.000Z</time>
        <extensions>
          <ns3:TrackPointExtension>
            <ns3:hr>122</ns3:hr>
            <ns3:cad>63</ns3:cad>
          </ns3:TrackPointExtension>
        </extensions>
      </trkpt>
      <trkpt lat="45.33849620260298252105712890625" lon="-70.95560797490179538726806640625">
        <ele>839.20001220703125</ele>
        <time>2026-08-21T18:01:44.000Z</time>
        <extensions>
          <ns3:TrackPointExtension>
            <ns3:hr>122</ns3:hr>
            <ns3:cad>63</ns3:cad>
          </ns3:TrackPointExtension>
        </extensions>
      </trkpt>
      <trkpt lat="45.3384889103472232818603515625" lon="-70.955621302127838134765625">
        <ele>839</ele>
        <time>2026-08-21T18:01:45.000Z</time>
        <extensions>
          <ns3:TrackPointExtension>
            <ns3:hr>123</ns3:hr>
            <ns3:cad>61</ns3:cad>
          </ns3:TrackPointExtension>
        </extensions>
      </trkpt>
      <trkpt lat="45.33847876824438571929931640625" lon="-70.9556459449231624603271484375">
        <ele>838.79998779296875</ele>
        <time>2026-08-21T18:01:46.000Z</time>
        <extensions>
          <ns3:TrackPointExtension>
            <ns3:hr>123</ns3:hr>
            <ns3:cad>61</ns3:cad>
          </ns3:TrackPointExtension>
        </extensions>
      </trkpt>
      <trkpt lat="45.33846736885607242584228515625" lon="-70.95566782169044017791748046875">
        <ele>838.4000244140625</ele>
        <time>2026-08-21T18:01:47.000Z</time>
        <extensions>
          <ns3:TrackPointExtension>
            <ns3:hr>124</ns3:hr>
            <ns3:cad>60</ns3:cad>
          </ns3:TrackPointExtension>
        </extensions>
      </trkpt>
      <trkpt lat="45.3384594060480594635009765625" lon="-70.9556865133345127105712890625">
        <ele>838.20001220703125</ele>
        <time>2026-08-21T18:01:48.000Z</time>
        <extensions>
          <ns3:TrackPointExtension>
            <ns3:hr>124</ns3:hr>
            <ns3:cad>60</ns3:cad>
          </ns3:TrackPointExtension>
        </extensions>
      </trkpt>
      <trkpt lat="45.3384496830403804779052734375" lon="-70.955718196928501129150390625">
        <ele>837.79998779296875</ele>
        <time>2026-08-21T18:01:49.000Z</time>
        <extensions>
          <ns3:TrackPointExtension>
            <ns3:hr>124</ns3:hr>
            <ns3:cad>60</ns3:cad>
          </ns3:TrackPointExtension>
        </extensions>
      </trkpt>
      <trkpt lat="45.33844188787043094635009765625" lon="-70.955739654600620269775390625">
        <ele>837.4000244140625</ele>
        <time>2026-08-21T18:01:50.000Z</time>
        <extensions>
          <ns3:TrackPointExtension>
            <ns3:hr>123</ns3:hr>
            <ns3:cad>41</ns3:cad>
          </ns3:TrackPointExtension>
        </extensions>
      </trkpt>
      <trkpt lat="45.33843317069113254547119140625" lon="-70.95576639287173748016357421875">
        <ele>837</ele>
        <time>2026-08-21T18:01:51.000Z</time>
        <extensions>
          <ns3:TrackPointExtension>
            <ns3:hr>123</ns3:hr>
            <ns3:cad>41</ns3:cad>
          </ns3:TrackPointExtension>
        </extensions>
      </trkpt>
      <trkpt lat="45.3384245373308658599853515625" lon="-70.9557904489338397979736328125">
        <ele>836.79998779296875</ele>
        <time>2026-08-21T18:01:52.000Z</time>
        <extensions>
          <ns3:TrackPointExtension>
            <ns3:hr>123</ns3:hr>
            <ns3:cad>41</ns3:cad>
          </ns3:TrackPointExtension>
        </extensions>
      </trkpt>
      <trkpt lat="45.33841657452285289764404296875" lon="-70.95582070760428905487060546875">
        <ele>836.20001220703125</ele>
        <time>2026-08-21T18:01:53.000Z</time>
        <extensions>
          <ns3:TrackPointExtension>
            <ns3:hr>124</ns3:hr>
            <ns3:cad>41</ns3:cad>
          </ns3:TrackPointExtension>
        </extensions>
      </trkpt>
      <trkpt lat="45.33840970136225223541259765625" lon="-70.95583696849644184112548828125">
        <ele>835.79998779296875</ele>
        <time>2026-08-21T18:01:54.000Z</time>
        <extensions>
          <ns3:TrackPointExtension>
            <ns3:hr>123</ns3:hr>
            <ns3:cad>41</ns3:cad>
          </ns3:TrackPointExtension>
        </extensions>
      </trkpt>
      <trkpt lat="45.3384030796587467193603515625" lon="-70.95585725270211696624755859375">
        <ele>835.4000244140625</ele>
        <time>2026-08-21T18:01:55.000Z</time>
        <extensions>
          <ns3:TrackPointExtension>
            <ns3:hr>124</ns3:hr>
            <ns3:cad>77</ns3:cad>
          </ns3:TrackPointExtension>
        </extensions>
      </trkpt>
      <trkpt lat="45.33839528448879718780517578125" lon="-70.95587887801229953765869140625">
        <ele>835</ele>
        <time>2026-08-21T18:01:56.000Z</time>
        <extensions>
          <ns3:TrackPointExtension>
            <ns3:hr>124</ns3:hr>
            <ns3:cad>77</ns3:cad>
          </ns3:TrackPointExtension>
        </extensions>
      </trkpt>
      <trkpt lat="45.33838204108178615570068359375" lon="-70.955900587141513824462890625">
        <ele>834.79998779296875</ele>
        <time>2026-08-21T18:01:57.000Z</time>
        <extensions>
          <ns3:TrackPointExtension>
            <ns3:hr>124</ns3:hr>
            <ns3:cad>77</ns3:cad>
          </ns3:TrackPointExtension>
        </extensions>
      </trkpt>
      <trkpt lat="45.33836804330348968505859375" lon="-70.95591659657657146453857421875">
        <ele>834.4000244140625</ele>
        <time>2026-08-21T18:01:58.000Z</time>
        <extensions>
          <ns3:TrackPointExtension>
            <ns3:hr>124</ns3:hr>
            <ns3:cad>77</ns3:cad>
          </ns3:TrackPointExtension>
        </extensions>
      </trkpt>
      <trkpt lat="45.338351614773273468017578125" lon="-70.95593579113483428955078125">
        <ele>834.20001220703125</ele>
        <time>2026-08-21T18:01:59.000Z</time>
        <extensions>
          <ns3:TrackPointExtension>
            <ns3:hr>123</ns3:hr>
            <ns3:cad>77</ns3:cad>
          </ns3:TrackPointExtension>
        </extensions>
      </trkpt>
      <trkpt lat="45.338337533175945281982421875" lon="-70.9559564106166362762451171875">
        <ele>833.79998779296875</ele>
        <time>2026-08-21T18:02:00.000Z</time>
        <extensions>
          <ns3:TrackPointExtension>
            <ns3:hr>124</ns3:hr>
            <ns3:cad>77</ns3:cad>
          </ns3:TrackPointExtension>
        </extensions>
      </trkpt>
      <trkpt lat="45.3383259661495685577392578125" lon="-70.955984406173229217529296875">
        <ele>833.5999755859375</ele>
        <time>2026-08-21T18:02:01.000Z</time>
        <extensions>
          <ns3:TrackPointExtension>
            <ns3:hr>124</ns3:hr>
            <ns3:cad>77</ns3:cad>
          </ns3:TrackPointExtension>
        </extensions>
      </trkpt>
      <trkpt lat="45.33831113018095493316650390625" lon="-70.956007875502109527587890625">
        <ele>833.4000244140625</ele>
        <time>2026-08-21T18:02:02.000Z</time>
        <extensions>
          <ns3:TrackPointExtension>
            <ns3:hr>124</ns3:hr>
            <ns3:cad>77</ns3:cad>
          </ns3:TrackPointExtension>
        </extensions>
      </trkpt>
      <trkpt lat="45.3382978029549121856689453125" lon="-70.95602723769843578338623046875">
        <ele>833.20001220703125</ele>
        <time>2026-08-21T18:02:03.000Z</time>
        <extensions>
          <ns3:TrackPointExtension>
            <ns3:hr>124</ns3:hr>
            <ns3:cad>77</ns3:cad>
          </ns3:TrackPointExtension>
        </extensions>
      </trkpt>
      <trkpt lat="45.3382877446711063385009765625" lon="-70.95605372451245784759521484375">
        <ele>833</ele>
        <time>2026-08-21T18:02:04.000Z</time>
        <extensions>
          <ns3:TrackPointExtension>
            <ns3:hr>124</ns3:hr>
            <ns3:cad>77</ns3:cad>
          </ns3:TrackPointExtension>
        </extensions>
      </trkpt>
      <trkpt lat="45.33828045241534709930419921875" lon="-70.95607769675552845001220703125">
        <ele>832.79998779296875</ele>
        <time>2026-08-21T18:02:05.000Z</time>
        <extensions>
          <ns3:TrackPointExtension>
            <ns3:hr>124</ns3:hr>
            <ns3:cad>74</ns3:cad>
          </ns3:TrackPointExtension>
        </extensions>
      </trkpt>
      <trkpt lat="45.33827223815023899078369140625" lon="-70.956103764474391937255859375">
        <ele>832.5999755859375</ele>
        <time>2026-08-21T18:02:06.000Z</time>
        <extensions>
          <ns3:TrackPointExtension>
            <ns3:hr>124</ns3:hr>
            <ns3:cad>74</ns3:cad>
          </ns3:TrackPointExtension>
        </extensions>
      </trkpt>
      <trkpt lat="45.33826385624706745147705078125" lon="-70.956129245460033416748046875">
        <ele>832.4000244140625</ele>
        <time>2026-08-21T18:02:07.000Z</time>
        <extensions>
          <ns3:TrackPointExtension>
            <ns3:hr>123</ns3:hr>
            <ns3:cad>75</ns3:cad>
          </ns3:TrackPointExtension>
        </extensions>
      </trkpt>
      <trkpt lat="45.33825111575424671173095703125" lon="-70.9561481885612010955810546875">
        <ele>832</ele>
        <time>2026-08-21T18:02:08.000Z</time>
        <extensions>
          <ns3:TrackPointExtension>
            <ns3:hr>123</ns3:hr>
            <ns3:cad>75</ns3:cad>
          </ns3:TrackPointExtension>
        </extensions>
      </trkpt>
      <trkpt lat="45.33824139274656772613525390625" lon="-70.95617677085101604461669921875">
        <ele>831.5999755859375</ele>
        <time>2026-08-21T18:02:09.000Z</time>
        <extensions>
          <ns3:TrackPointExtension>
            <ns3:hr>123</ns3:hr>
            <ns3:cad>75</ns3:cad>
          </ns3:TrackPointExtension>
        </extensions>
      </trkpt>
      <trkpt lat="45.3382357768714427947998046875" lon="-70.95620007254183292388916015625">
        <ele>831.4000244140625</ele>
        <time>2026-08-21T18:02:10.000Z</time>
        <extensions>
          <ns3:TrackPointExtension>
            <ns3:hr>123</ns3:hr>
            <ns3:cad>76</ns3:cad>
          </ns3:TrackPointExtension>
        </extensions>
      </trkpt>
      <trkpt lat="45.33822990953922271728515625" lon="-70.95622412860393524169921875">
        <ele>831</ele>
        <time>2026-08-21T18:02:11.000Z</time>
        <extensions>
          <ns3:TrackPointExtension>
            <ns3:hr>123</ns3:hr>
            <ns3:cad>76</ns3:cad>
          </ns3:TrackPointExtension>
        </extensions>
      </trkpt>
      <trkpt lat="45.33822529949247837066650390625" lon="-70.9562541358172893524169921875">
        <ele>830.5999755859375</ele>
        <time>2026-08-21T18:02:12.000Z</time>
        <extensions>
          <ns3:TrackPointExtension>
            <ns3:hr>122</ns3:hr>
            <ns3:cad>76</ns3:cad>
          </ns3:TrackPointExtension>
        </extensions>
      </trkpt>
      <trkpt lat="45.338224880397319793701171875" lon="-70.956287495791912078857421875">
        <ele>830.4000244140625</ele>
        <time>2026-08-21T18:02:13.000Z</time>
        <extensions>
          <ns3:TrackPointExtension>
            <ns3:hr>122</ns3:hr>
            <ns3:cad>76</ns3:cad>
          </ns3:TrackPointExtension>
        </extensions>
      </trkpt>
      <trkpt lat="45.33822429366409778594970703125" lon="-70.9563188441097736358642578125">
        <ele>830</ele>
        <time>2026-08-21T18:02:14.000Z</time>
        <extensions>
          <ns3:TrackPointExtension>
            <ns3:hr>122</ns3:hr>
            <ns3:cad>76</ns3:cad>
          </ns3:TrackPointExtension>
        </extensions>
      </trkpt>
      <trkpt lat="45.33821993507444858551025390625" lon="-70.9563414752483367919921875">
        <ele>829.5999755859375</ele>
        <time>2026-08-21T18:02:15.000Z</time>
        <extensions>
          <ns3:TrackPointExtension>
            <ns3:hr>122</ns3:hr>
            <ns3:cad>76</ns3:cad>
          </ns3:TrackPointExtension>
        </extensions>
      </trkpt>
      <trkpt lat="45.33821406774222850799560546875" lon="-70.9563637711107730865478515625">
        <ele>829.20001220703125</ele>
        <time>2026-08-21T18:02:16.000Z</time>
        <extensions>
          <ns3:TrackPointExtension>
            <ns3:hr>122</ns3:hr>
            <ns3:cad>76</ns3:cad>
          </ns3:TrackPointExtension>
        </extensions>
      </trkpt>
      <trkpt lat="45.3382052667438983917236328125" lon="-70.95638598315417766571044921875">
        <ele>829</ele>
        <time>2026-08-21T18:02:17.000Z</time>
        <extensions>
          <ns3:TrackPointExtension>
            <ns3:hr>122</ns3:hr>
            <ns3:cad>76</ns3:cad>
          </ns3:TrackPointExtension>
        </extensions>
      </trkpt>
      <trkpt lat="45.33819445408880710601806640625" lon="-70.956406183540821075439453125">
        <ele>828.5999755859375</ele>
        <time>2026-08-21T18:02:18.000Z</time>
        <extensions>
          <ns3:TrackPointExtension>
            <ns3:hr>122</ns3:hr>
            <ns3:cad>76</ns3:cad>
          </ns3:TrackPointExtension>
        </extensions>
      </trkpt>
      <trkpt lat="45.33818456344306468963623046875" lon="-70.956426300108432769775390625">
        <ele>828.20001220703125</ele>
        <time>2026-08-21T18:02:19.000Z</time>
        <extensions>
          <ns3:TrackPointExtension>
            <ns3:hr>122</ns3:hr>
            <ns3:cad>76</ns3:cad>
          </ns3:TrackPointExtension>
        </extensions>
      </trkpt>
      <trkpt lat="45.33817148767411708831787109375" lon="-70.9564405493438243865966796875">
        <ele>828</ele>
        <time>2026-08-21T18:02:20.000Z</time>
        <extensions>
          <ns3:TrackPointExtension>
            <ns3:hr>122</ns3:hr>
            <ns3:cad>76</ns3:cad>
          </ns3:TrackPointExtension>
        </extensions>
      </trkpt>
      <trkpt lat="45.33815757371485233306884765625" lon="-70.95645756460726261138916015625">
        <ele>827.79998779296875</ele>
        <time>2026-08-21T18:02:21.000Z</time>
        <extensions>
          <ns3:TrackPointExtension>
            <ns3:hr>122</ns3:hr>
            <ns3:cad>76</ns3:cad>
          </ns3:TrackPointExtension>
        </extensions>
      </trkpt>
      <trkpt lat="45.338147096335887908935546875" lon="-70.95647902227938175201416015625">
        <ele>827.4000244140625</ele>
        <time>2026-08-21T18:02:22.000Z</time>
        <extensions>
          <ns3:TrackPointExtension>
            <ns3:hr>122</ns3:hr>
            <ns3:cad>73</ns3:cad>
          </ns3:TrackPointExtension>
        </extensions>
      </trkpt>
      <trkpt lat="45.33813946880400180816650390625" lon="-70.95650617964565753936767578125">
        <ele>827.20001220703125</ele>
        <time>2026-08-21T18:02:23.000Z</time>
        <extensions>
          <ns3:TrackPointExtension>
            <ns3:hr>122</ns3:hr>
            <ns3:cad>73</ns3:cad>
          </ns3:TrackPointExtension>
        </extensions>
      </trkpt>
      <trkpt lat="45.33812840469181537628173828125" lon="-70.95652093179523944854736328125">
        <ele>827</ele>
        <time>2026-08-21T18:02:24.000Z</time>
        <extensions>
          <ns3:TrackPointExtension>
            <ns3:hr>122</ns3:hr>
            <ns3:cad>73</ns3:cad>
          </ns3:TrackPointExtension>
        </extensions>
      </trkpt>
      <trkpt lat="45.338120274245738983154296875" lon="-70.9565480053424835205078125">
        <ele>826.79998779296875</ele>
        <time>2026-08-21T18:02:25.000Z</time>
        <extensions>
          <ns3:TrackPointExtension>
            <ns3:hr>122</ns3:hr>
            <ns3:cad>72</ns3:cad>
          </ns3:TrackPointExtension>
        </extensions>
      </trkpt>
      <trkpt lat="45.33811164088547229766845703125" lon="-70.9565729834139347076416015625">
        <ele>826.5999755859375</ele>
        <time>2026-08-21T18:02:26.000Z</time>
        <extensions>
          <ns3:TrackPointExtension>
            <ns3:hr>123</ns3:hr>
            <ns3:cad>72</ns3:cad>
          </ns3:TrackPointExtension>
        </extensions>
      </trkpt>
      <trkpt lat="45.33810317516326904296875" lon="-70.95659184269607067108154296875">
        <ele>826.4000244140625</ele>
        <time>2026-08-21T18:02:27.000Z</time>
        <extensions>
          <ns3:TrackPointExtension>
            <ns3:hr>123</ns3:hr>
            <ns3:cad>72</ns3:cad>
          </ns3:TrackPointExtension>
        </extensions>
      </trkpt>
      <trkpt lat="45.3380926139652729034423828125" lon="-70.9566108696162700653076171875">
        <ele>826.20001220703125</ele>
        <time>2026-08-21T18:02:28.000Z</time>
        <extensions>
          <ns3:TrackPointExtension>
            <ns3:hr>123</ns3:hr>
            <ns3:cad>72</ns3:cad>
          </ns3:TrackPointExtension>
        </extensions>
      </trkpt>
      <trkpt lat="45.3380835615098476409912109375" lon="-70.9566329978406429290771484375">
        <ele>825.79998779296875</ele>
        <time>2026-08-21T18:02:29.000Z</time>
        <extensions>
          <ns3:TrackPointExtension>
            <ns3:hr>122</ns3:hr>
            <ns3:cad>72</ns3:cad>
          </ns3:TrackPointExtension>
        </extensions>
      </trkpt>
      <trkpt lat="45.33807559870183467864990234375" lon="-70.9566601552069187164306640625">
        <ele>825.5999755859375</ele>
        <time>2026-08-21T18:02:30.000Z</time>
        <extensions>
          <ns3:TrackPointExtension>
            <ns3:hr>122</ns3:hr>
            <ns3:cad>70</ns3:cad>
          </ns3:TrackPointExtension>
        </extensions>
      </trkpt>
      <trkpt lat="45.33806738443672657012939453125" lon="-70.95668412744998931884765625">
        <ele>825.4000244140625</ele>
        <time>2026-08-21T18:02:31.000Z</time>
        <extensions>
          <ns3:TrackPointExtension>
            <ns3:hr>122</ns3:hr>
            <ns3:cad>70</ns3:cad>
          </ns3:TrackPointExtension>
        </extensions>
      </trkpt>
      <trkpt lat="45.33806185238063335418701171875" lon="-70.956715978682041168212890625">
        <ele>825</ele>
        <time>2026-08-21T18:02:32.000Z</time>
        <extensions>
          <ns3:TrackPointExtension>
            <ns3:hr>122</ns3:hr>
            <ns3:cad>70</ns3:cad>
          </ns3:TrackPointExtension>
        </extensions>
      </trkpt>
      <trkpt lat="45.338059924542903900146484375" lon="-70.95674254931509494781494140625">
        <ele>824.79998779296875</ele>
        <time>2026-08-21T18:02:33.000Z</time>
        <extensions>
          <ns3:TrackPointExtension>
            <ns3:hr>122</ns3:hr>
            <ns3:cad>70</ns3:cad>
          </ns3:TrackPointExtension>
        </extensions>
      </trkpt>
      <trkpt lat="45.33805917017161846160888671875" lon="-70.95676685683429241180419921875">
        <ele>824.4000244140625</ele>
        <time>2026-08-21T18:02:34.000Z</time>
        <extensions>
          <ns3:TrackPointExtension>
            <ns3:hr>122</ns3:hr>
            <ns3:cad>70</ns3:cad>
          </ns3:TrackPointExtension>
        </extensions>
      </trkpt>
      <trkpt lat="45.33806025981903076171875" lon="-70.95679669640958309173583984375">
        <ele>824.20001220703125</ele>
        <time>2026-08-21T18:02:35.000Z</time>
        <extensions>
          <ns3:TrackPointExtension>
            <ns3:hr>122</ns3:hr>
            <ns3:cad>72</ns3:cad>
          </ns3:TrackPointExtension>
        </extensions>
      </trkpt>
      <trkpt lat="45.33806252293288707733154296875" lon="-70.95682184211909770965576171875">
        <ele>823.79998779296875</ele>
        <time>2026-08-21T18:02:36.000Z</time>
        <extensions>
          <ns3:TrackPointExtension>
            <ns3:hr>121</ns3:hr>
            <ns3:cad>72</ns3:cad>
          </ns3:TrackPointExtension>
        </extensions>
      </trkpt>
      <trkpt lat="45.33806202001869678497314453125" lon="-70.9568542800843715667724609375">
        <ele>823.5999755859375</ele>
        <time>2026-08-21T18:02:37.000Z</time>
        <extensions>
          <ns3:TrackPointExtension>
            <ns3:hr>122</ns3:hr>
            <ns3:cad>73</ns3:cad>
          </ns3:TrackPointExtension>
        </extensions>
      </trkpt>
      <trkpt lat="45.33806352876126766204833984375" lon="-70.9568821080029010772705078125">
        <ele>823.4000244140625</ele>
        <time>2026-08-21T18:02:38.000Z</time>
        <extensions>
          <ns3:TrackPointExtension>
            <ns3:hr>122</ns3:hr>
            <ns3:cad>73</ns3:cad>
          </ns3:TrackPointExtension>
        </extensions>
      </trkpt>
      <trkpt lat="45.338061936199665069580078125" lon="-70.95690666697919368743896484375">
        <ele>823</ele>
        <time>2026-08-21T18:02:39.000Z</time>
        <extensions>
          <ns3:TrackPointExtension>
            <ns3:hr>122</ns3:hr>
            <ns3:cad>73</ns3:cad>
          </ns3:TrackPointExtension>
        </extensions>
      </trkpt>
      <trkpt lat="45.3380604274570941925048828125" lon="-70.95693415962159633636474609375">
        <ele>822.5999755859375</ele>
        <time>2026-08-21T18:02:40.000Z</time>
        <extensions>
          <ns3:TrackPointExtension>
            <ns3:hr>122</ns3:hr>
            <ns3:cad>74</ns3:cad>
          </ns3:TrackPointExtension>
        </extensions>
      </trkpt>
      <trkpt lat="45.33806771971285343170166015625" lon="-70.95696249045431613922119140625">
        <ele>822.20001220703125</ele>
        <time>2026-08-21T18:02:41.000Z</time>
        <extensions>
          <ns3:TrackPointExtension>
            <ns3:hr>122</ns3:hr>
            <ns3:cad>74</ns3:cad>
          </ns3:TrackPointExtension>
        </extensions>
      </trkpt>
      <trkpt lat="45.3380763530731201171875" lon="-70.95699551515281200408935546875">
        <ele>822</ele>
        <time>2026-08-21T18:02:42.000Z</time>
        <extensions>
          <ns3:TrackPointExtension>
            <ns3:hr>122</ns3:hr>
            <ns3:cad>78</ns3:cad>
          </ns3:TrackPointExtension>
        </extensions>
      </trkpt>
      <trkpt lat="45.3380798734724521636962890625" lon="-70.957014374434947967529296875">
        <ele>821.5999755859375</ele>
        <time>2026-08-21T18:02:43.000Z</time>
        <extensions>
          <ns3:TrackPointExtension>
            <ns3:hr>121</ns3:hr>
            <ns3:cad>78</ns3:cad>
          </ns3:TrackPointExtension>
        </extensions>
      </trkpt>
      <trkpt lat="45.33808465115725994110107421875" lon="-70.957039855420589447021484375">
        <ele>821.20001220703125</ele>
        <time>2026-08-21T18:02:44.000Z</time>
        <extensions>
          <ns3:TrackPointExtension>
            <ns3:hr>121</ns3:hr>
            <ns3:cad>78</ns3:cad>
          </ns3:TrackPointExtension>
        </extensions>
      </trkpt>
      <trkpt lat="45.33808532170951366424560546875" lon="-70.9570725448429584503173828125">
        <ele>821</ele>
        <time>2026-08-21T18:02:45.000Z</time>
        <extensions>
          <ns3:TrackPointExtension>
            <ns3:hr>121</ns3:hr>
            <ns3:cad>78</ns3:cad>
          </ns3:TrackPointExtension>
        </extensions>
      </trkpt>
      <trkpt lat="45.338082052767276763916015625" lon="-70.95709274522960186004638671875">
        <ele>820.79998779296875</ele>
        <time>2026-08-21T18:02:46.000Z</time>
        <extensions>
          <ns3:TrackPointExtension>
            <ns3:hr>120</ns3:hr>
            <ns3:cad>78</ns3:cad>
          </ns3:TrackPointExtension>
        </extensions>
      </trkpt>
      <trkpt lat="45.3380775265395641326904296875" lon="-70.9571198187768459320068359375">
        <ele>820.4000244140625</ele>
        <time>2026-08-21T18:02:47.000Z</time>
        <extensions>
          <ns3:TrackPointExtension>
            <ns3:hr>120</ns3:hr>
            <ns3:cad>0</ns3:cad>
          </ns3:TrackPointExtension>
        </extensions>
      </trkpt>
      <trkpt lat="45.33807543106377124786376953125" lon="-70.95714286901056766510009765625">
        <ele>820.4000244140625</ele>
        <time>2026-08-21T18:02:48.000Z</time>
        <extensions>
          <ns3:TrackPointExtension>
            <ns3:hr>120</ns3:hr>
            <ns3:cad>0</ns3:cad>
          </ns3:TrackPointExtension>
        </extensions>
      </trkpt>
      <trkpt lat="45.3380738385021686553955078125" lon="-70.9571603871881961822509765625">
        <ele>820.20001220703125</ele>
        <time>2026-08-21T18:02:49.000Z</time>
        <extensions>
          <ns3:TrackPointExtension>
            <ns3:hr>120</ns3:hr>
            <ns3:cad>0</ns3:cad>
          </ns3:TrackPointExtension>
        </extensions>
      </trkpt>
      <trkpt lat="45.33807165920734405517578125" lon="-70.95718712545931339263916015625">
        <ele>820</ele>
        <time>2026-08-21T18:02:50.000Z</time>
        <extensions>
          <ns3:TrackPointExtension>
            <ns3:hr>120</ns3:hr>
            <ns3:cad>0</ns3:cad>
          </ns3:TrackPointExtension>
        </extensions>
      </trkpt>
      <trkpt lat="45.33807702362537384033203125" lon="-70.9572147019207477569580078125">
        <ele>820</ele>
        <time>2026-08-21T18:02:51.000Z</time>
        <extensions>
          <ns3:TrackPointExtension>
            <ns3:hr>121</ns3:hr>
            <ns3:cad>0</ns3:cad>
          </ns3:TrackPointExtension>
        </extensions>
      </trkpt>
      <trkpt lat="45.3380818851292133331298828125" lon="-70.95722953788936138153076171875">
        <ele>819.79998779296875</ele>
        <time>2026-08-21T18:02:52.000Z</time>
        <extensions>
          <ns3:TrackPointExtension>
            <ns3:hr>120</ns3:hr>
            <ns3:cad>0</ns3:cad>
          </ns3:TrackPointExtension>
        </extensions>
      </trkpt>
      <trkpt lat="45.33808582462370395660400390625" lon="-70.95723842270672321319580078125">
        <ele>819.79998779296875</ele>
        <time>2026-08-21T18:02:53.000Z</time>
        <extensions>
          <ns3:TrackPointExtension>
            <ns3:hr>120</ns3:hr>
            <ns3:cad>0</ns3:cad>
          </ns3:TrackPointExtension>
        </extensions>
      </trkpt>
      <trkpt lat="45.33809135667979717254638671875" lon="-70.9572398476302623748779296875">
        <ele>819.5999755859375</ele>
        <time>2026-08-21T18:02:54.000Z</time>
        <extensions>
          <ns3:TrackPointExtension>
            <ns3:hr>120</ns3:hr>
            <ns3:cad>0</ns3:cad>
          </ns3:TrackPointExtension>
        </extensions>
      </trkpt>
      <trkpt lat="45.3380932845175266265869140625" lon="-70.95724043436348438262939453125">
        <ele>819.5999755859375</ele>
        <time>2026-08-21T18:02:55.000Z</time>
        <extensions>
          <ns3:TrackPointExtension>
            <ns3:hr>120</ns3:hr>
            <ns3:cad>0</ns3:cad>
          </ns3:TrackPointExtension>
        </extensions>
      </trkpt>
      <trkpt lat="45.33809420652687549591064453125" lon="-70.95724278129637241363525390625">
        <ele>819.4000244140625</ele>
        <time>2026-08-21T18:02:56.000Z</time>
        <extensions>
          <ns3:TrackPointExtension>
            <ns3:hr>120</ns3:hr>
            <ns3:cad>0</ns3:cad>
          </ns3:TrackPointExtension>
        </extensions>
      </trkpt>
      <trkpt lat="45.338092781603336334228515625" lon="-70.9572428651154041290283203125">
        <ele>819.4000244140625</ele>
        <time>2026-08-21T18:02:57.000Z</time>
        <extensions>
          <ns3:TrackPointExtension>
            <ns3:hr>121</ns3:hr>
            <ns3:cad>0</ns3:cad>
          </ns3:TrackPointExtension>
        </extensions>
      </trkpt>
      <trkpt lat="45.338092781603336334228515625" lon="-70.9572428651154041290283203125">
        <ele>819.5999755859375</ele>
        <time>2026-08-21T18:02:58.000Z</time>
        <extensions>
          <ns3:TrackPointExtension>
            <ns3:hr>121</ns3:hr>
            <ns3:cad>0</ns3:cad>
          </ns3:TrackPointExtension>
        </extensions>
      </trkpt>
      <trkpt lat="45.338092781603336334228515625" lon="-70.9572428651154041290283203125">
        <ele>819.5999755859375</ele>
        <time>2026-08-21T18:02:59.000Z</time>
        <extensions>
          <ns3:TrackPointExtension>
            <ns3:hr>121</ns3:hr>
            <ns3:cad>0</ns3:cad>
          </ns3:TrackPointExtension>
        </extensions>
      </trkpt>
      <trkpt lat="45.338092781603336334228515625" lon="-70.9572428651154041290283203125">
        <ele>819.5999755859375</ele>
        <time>2026-08-21T18:03:00.000Z</time>
        <extensions>
          <ns3:TrackPointExtension>
            <ns3:hr>121</ns3:hr>
            <ns3:cad>0</ns3:cad>
          </ns3:TrackPointExtension>
        </extensions>
      </trkpt>
      <trkpt lat="45.33809244632720947265625" lon="-70.95724336802959442138671875">
        <ele>819.5999755859375</ele>
        <time>2026-08-21T18:03:01.000Z</time>
        <extensions>
          <ns3:TrackPointExtension>
            <ns3:hr>120</ns3:hr>
            <ns3:cad>0</ns3:cad>
          </ns3:TrackPointExtension>
        </extensions>
      </trkpt>
      <trkpt lat="45.338097475469112396240234375" lon="-70.95725820399820804595947265625">
        <ele>819.5999755859375</ele>
        <time>2026-08-21T18:03:02.000Z</time>
        <extensions>
          <ns3:TrackPointExtension>
            <ns3:hr>118</ns3:hr>
            <ns3:cad>0</ns3:cad>
          </ns3:TrackPointExtension>
        </extensions>
      </trkpt>
      <trkpt lat="45.33809982240200042724609375" lon="-70.95726750791072845458984375">
        <ele>819.5999755859375</ele>
        <time>2026-08-21T18:03:03.000Z</time>
        <extensions>
          <ns3:TrackPointExtension>
            <ns3:hr>117</ns3:hr>
            <ns3:cad>0</ns3:cad>
          </ns3:TrackPointExtension>
        </extensions>
      </trkpt>
      <trkpt lat="45.33810317516326904296875" lon="-70.957271866500377655029296875">
        <ele>819.5999755859375</ele>
        <time>2026-08-21T18:03:04.000Z</time>
        <extensions>
          <ns3:TrackPointExtension>
            <ns3:hr>116</ns3:hr>
            <ns3:cad>0</ns3:cad>
          </ns3:TrackPointExtension>
        </extensions>
      </trkpt>
      <trkpt lat="45.33810979686677455902099609375" lon="-70.9572844393551349639892578125">
        <ele>819.5999755859375</ele>
        <time>2026-08-21T18:03:05.000Z</time>
        <extensions>
          <ns3:TrackPointExtension>
            <ns3:hr>117</ns3:hr>
            <ns3:cad>0</ns3:cad>
          </ns3:TrackPointExtension>
        </extensions>
      </trkpt>
      <trkpt lat="45.338118933141231536865234375" lon="-70.957298018038272857666015625">
        <ele>819.5999755859375</ele>
        <time>2026-08-21T18:03:06.000Z</time>
        <extensions>
          <ns3:TrackPointExtension>
            <ns3:hr>117</ns3:hr>
            <ns3:cad>0</ns3:cad>
          </ns3:TrackPointExtension>
        </extensions>
      </trkpt>
      <trkpt lat="45.33812505193054676055908203125" lon="-70.95730866305530071258544921875">
        <ele>819.5999755859375</ele>
        <time>2026-08-21T18:03:07.000Z</time>
        <extensions>
          <ns3:TrackPointExtension>
            <ns3:hr>118</ns3:hr>
            <ns3:cad>0</ns3:cad>
          </ns3:TrackPointExtension>
        </extensions>
      </trkpt>
      <trkpt lat="45.33812153153121471405029296875" lon="-70.95732006244361400604248046875">
        <ele>819.4000244140625</ele>
        <time>2026-08-21T18:03:08.000Z</time>
        <extensions>
          <ns3:TrackPointExtension>
            <ns3:hr>119</ns3:hr>
            <ns3:cad>0</ns3:cad>
          </ns3:TrackPointExtension>
        </extensions>
      </trkpt>
      <trkpt lat="45.3381192684173583984375" lon="-70.957338251173496246337890625">
        <ele>819.4000244140625</ele>
        <time>2026-08-21T18:03:09.000Z</time>
        <extensions>
          <ns3:TrackPointExtension>
            <ns3:hr>121</ns3:hr>
            <ns3:cad>0</ns3:cad>
          </ns3:TrackPointExtension>
        </extensions>
      </trkpt>
      <trkpt lat="45.33811993896961212158203125" lon="-70.957356356084346771240234375">
        <ele>819.20001220703125</ele>
        <time>2026-08-21T18:03:10.000Z</time>
        <extensions>
          <ns3:TrackPointExtension>
            <ns3:hr>122</ns3:hr>
            <ns3:cad>0</ns3:cad>
          </ns3:TrackPointExtension>
        </extensions>
      </trkpt>
      <trkpt lat="45.33812639303505420684814453125" lon="-70.9573687613010406494140625">
        <ele>819.20001220703125</ele>
        <time>2026-08-21T18:03:11.000Z</time>
        <extensions>
          <ns3:TrackPointExtension>
            <ns3:hr>123</ns3:hr>
            <ns3:cad>0</ns3:cad>
          </ns3:TrackPointExtension>
        </extensions>
      </trkpt>
      <trkpt lat="45.338131003081798553466796875" lon="-70.95738225616514682769775390625">
        <ele>819</ele>
        <time>2026-08-21T18:03:12.000Z</time>
        <extensions>
          <ns3:TrackPointExtension>
            <ns3:hr>123</ns3:hr>
            <ns3:cad>0</ns3:cad>
          </ns3:TrackPointExtension>
        </extensions>
      </trkpt>
      <trkpt lat="45.3381351940333843231201171875" lon="-70.95739759504795074462890625">
        <ele>819</ele>
        <time>2026-08-21T18:03:13.000Z</time>
        <extensions>
          <ns3:TrackPointExtension>
            <ns3:hr>122</ns3:hr>
            <ns3:cad>0</ns3:cad>
          </ns3:TrackPointExtension>
        </extensions>
      </trkpt>
      <trkpt lat="45.33813779242336750030517578125" lon="-70.95740740187466144561767578125">
        <ele>818.79998779296875</ele>
        <time>2026-08-21T18:03:14.000Z</time>
        <extensions>
          <ns3:TrackPointExtension>
            <ns3:hr>122</ns3:hr>
            <ns3:cad>0</ns3:cad>
          </ns3:TrackPointExtension>
        </extensions>
      </trkpt>
      <trkpt lat="45.33813846297562122344970703125" lon="-70.95740756951272487640380859375">
        <ele>818.79998779296875</ele>
        <time>2026-08-21T18:03:15.000Z</time>
        <extensions>
          <ns3:TrackPointExtension>
            <ns3:hr>122</ns3:hr>
            <ns3:cad>0</ns3:cad>
          </ns3:TrackPointExtension>
        </extensions>
      </trkpt>
      <trkpt lat="45.33814013935625553131103515625" lon="-70.95740991644561290740966796875">
        <ele>818.5999755859375</ele>
        <time>2026-08-21T18:03:16.000Z</time>
        <extensions>
          <ns3:TrackPointExtension>
            <ns3:hr>122</ns3:hr>
            <ns3:cad>0</ns3:cad>
          </ns3:TrackPointExtension>
        </extensions>
      </trkpt>
      <trkpt lat="45.3381392173469066619873046875" lon="-70.957411341369152069091796875">
        <ele>818.5999755859375</ele>
        <time>2026-08-21T18:03:17.000Z</time>
        <extensions>
          <ns3:TrackPointExtension>
            <ns3:hr>122</ns3:hr>
            <ns3:cad>0</ns3:cad>
          </ns3:TrackPointExtension>
        </extensions>
      </trkpt>
      <trkpt lat="45.33814332447946071624755859375" lon="-70.957413017749786376953125">
        <ele>818.5999755859375</ele>
        <time>2026-08-21T18:03:18.000Z</time>
        <extensions>
          <ns3:TrackPointExtension>
            <ns3:hr>122</ns3:hr>
            <ns3:cad>0</ns3:cad>
          </ns3:TrackPointExtension>
        </extensions>
      </trkpt>
      <trkpt lat="45.33814583905041217803955078125" lon="-70.95741561613976955413818359375">
        <ele>818.79998779296875</ele>
        <time>2026-08-21T18:03:19.000Z</time>
        <extensions>
          <ns3:TrackPointExtension>
            <ns3:hr>121</ns3:hr>
            <ns3:cad>0</ns3:cad>
          </ns3:TrackPointExtension>
        </extensions>
      </trkpt>
      <trkpt lat="45.3381465934216976165771484375" lon="-70.95741343684494495391845703125">
        <ele>818.79998779296875</ele>
        <time>2026-08-21T18:03:20.000Z</time>
        <extensions>
          <ns3:TrackPointExtension>
            <ns3:hr>122</ns3:hr>
            <ns3:cad>0</ns3:cad>
          </ns3:TrackPointExtension>
        </extensions>
      </trkpt>
      <trkpt lat="45.33814734779298305511474609375" lon="-70.95741293393075466156005859375">
        <ele>819</ele>
        <time>2026-08-21T18:03:21.000Z</time>
        <extensions>
          <ns3:TrackPointExtension>
            <ns3:hr>121</ns3:hr>
            <ns3:cad>0</ns3:cad>
          </ns3:TrackPointExtension>
        </extensions>
      </trkpt>
      <trkpt lat="45.33814768306910991668701171875" lon="-70.957412682473659515380859375">
        <ele>819</ele>
        <time>2026-08-21T18:03:22.000Z</time>
        <extensions>
          <ns3:TrackPointExtension>
            <ns3:hr>121</ns3:hr>
            <ns3:cad>0</ns3:cad>
          </ns3:TrackPointExtension>
        </extensions>
      </trkpt>
      <trkpt lat="45.3381465934216976165771484375" lon="-70.95741746015846729278564453125">
        <ele>819</ele>
        <time>2026-08-21T18:03:23.000Z</time>
        <extensions>
          <ns3:TrackPointExtension>
            <ns3:hr>121</ns3:hr>
            <ns3:cad>0</ns3:cad>
          </ns3:TrackPointExtension>
        </extensions>
      </trkpt>
      <trkpt lat="45.33814617432653903961181640625" lon="-70.9574272669851779937744140625">
        <ele>819</ele>
        <time>2026-08-21T18:03:24.000Z</time>
        <extensions>
          <ns3:TrackPointExtension>
            <ns3:hr>122</ns3:hr>
            <ns3:cad>0</ns3:cad>
          </ns3:TrackPointExtension>
        </extensions>
      </trkpt>
      <trkpt lat="45.33814349211752414703369140625" lon="-70.95744662918150424957275390625">
        <ele>819</ele>
        <time>2026-08-21T18:03:25.000Z</time>
        <extensions>
          <ns3:TrackPointExtension>
            <ns3:hr>121</ns3:hr>
            <ns3:cad>0</ns3:cad>
          </ns3:TrackPointExtension>
        </extensions>
      </trkpt>
      <trkpt lat="45.3381405584514141082763671875" lon="-70.957465656101703643798828125">
        <ele>818.79998779296875</ele>
        <time>2026-08-21T18:03:26.000Z</time>
        <extensions>
          <ns3:TrackPointExtension>
            <ns3:hr>121</ns3:hr>
            <ns3:cad>47</ns3:cad>
          </ns3:TrackPointExtension>
        </extensions>
      </trkpt>
      <trkpt lat="45.33813913352787494659423828125" lon="-70.95747831277549266815185546875">
        <ele>818.79998779296875</ele>
        <time>2026-08-21T18:03:27.000Z</time>
        <extensions>
          <ns3:TrackPointExtension>
            <ns3:hr>121</ns3:hr>
            <ns3:cad>55</ns3:cad>
          </ns3:TrackPointExtension>
        </extensions>
      </trkpt>
      <trkpt lat="45.3381392173469066619873046875" lon="-70.95750446431338787078857421875">
        <ele>818.5999755859375</ele>
        <time>2026-08-21T18:03:28.000Z</time>
        <extensions>
          <ns3:TrackPointExtension>
            <ns3:hr>120</ns3:hr>
            <ns3:cad>59</ns3:cad>
          </ns3:TrackPointExtension>
        </extensions>
      </trkpt>
      <trkpt lat="45.33813494257628917694091796875" lon="-70.95752474851906299591064453125">
        <ele>818.4000244140625</ele>
        <time>2026-08-21T18:03:29.000Z</time>
        <extensions>
          <ns3:TrackPointExtension>
            <ns3:hr>120</ns3:hr>
            <ns3:cad>59</ns3:cad>
          </ns3:TrackPointExtension>
        </extensions>
      </trkpt>
      <trkpt lat="45.33813242800533771514892578125" lon="-70.9575439430773258209228515625">
        <ele>818.4000244140625</ele>
        <time>2026-08-21T18:03:30.000Z</time>
        <extensions>
          <ns3:TrackPointExtension>
            <ns3:hr>119</ns3:hr>
            <ns3:cad>59</ns3:cad>
          </ns3:TrackPointExtension>
        </extensions>
      </trkpt>
      <trkpt lat="45.33813544549047946929931640625" lon="-70.957560203969478607177734375">
        <ele>818.20001220703125</ele>
        <time>2026-08-21T18:03:31.000Z</time>
        <extensions>
          <ns3:TrackPointExtension>
            <ns3:hr>119</ns3:hr>
            <ns3:cad>59</ns3:cad>
          </ns3:TrackPointExtension>
        </extensions>
      </trkpt>
      <trkpt lat="45.338130332529544830322265625" lon="-70.9575806558132171630859375">
        <ele>818.20001220703125</ele>
        <time>2026-08-21T18:03:32.000Z</time>
        <extensions>
          <ns3:TrackPointExtension>
            <ns3:hr>119</ns3:hr>
            <ns3:cad>59</ns3:cad>
          </ns3:TrackPointExtension>
        </extensions>
      </trkpt>
      <trkpt lat="45.33812169916927814483642578125" lon="-70.95759549178183078765869140625">
        <ele>818</ele>
        <time>2026-08-21T18:03:33.000Z</time>
        <extensions>
          <ns3:TrackPointExtension>
            <ns3:hr>118</ns3:hr>
            <ns3:cad>59</ns3:cad>
          </ns3:TrackPointExtension>
        </extensions>
      </trkpt>
      <trkpt lat="45.33810895867645740509033203125" lon="-70.95761954784393310546875">
        <ele>818</ele>
        <time>2026-08-21T18:03:34.000Z</time>
        <extensions>
          <ns3:TrackPointExtension>
            <ns3:hr>117</ns3:hr>
            <ns3:cad>59</ns3:cad>
          </ns3:TrackPointExtension>
        </extensions>
      </trkpt>
      <trkpt lat="45.3380956314504146575927734375" lon="-70.95763136632740497589111328125">
        <ele>818</ele>
        <time>2026-08-21T18:03:35.000Z</time>
        <extensions>
          <ns3:TrackPointExtension>
            <ns3:hr>115</ns3:hr>
            <ns3:cad>60</ns3:cad>
          </ns3:TrackPointExtension>
        </extensions>
      </trkpt>
      <trkpt lat="45.33808347769081592559814453125" lon="-70.9576425142586231231689453125">
        <ele>818</ele>
        <time>2026-08-21T18:03:36.000Z</time>
        <extensions>
          <ns3:TrackPointExtension>
            <ns3:hr>114</ns3:hr>
            <ns3:cad>60</ns3:cad>
          </ns3:TrackPointExtension>
        </extensions>
      </trkpt>
      <trkpt lat="45.33807165920734405517578125" lon="-70.95765349455177783966064453125">
        <ele>818</ele>
        <time>2026-08-21T18:03:37.000Z</time>
        <extensions>
          <ns3:TrackPointExtension>
            <ns3:hr>113</ns3:hr>
            <ns3:cad>60</ns3:cad>
          </ns3:TrackPointExtension>
        </extensions>
      </trkpt>
      <trkpt lat="45.338056571781635284423828125" lon="-70.957668162882328033447265625">
        <ele>817.79998779296875</ele>
        <time>2026-08-21T18:03:38.000Z</time>
        <extensions>
          <ns3:TrackPointExtension>
            <ns3:hr>113</ns3:hr>
            <ns3:cad>60</ns3:cad>
          </ns3:TrackPointExtension>
        </extensions>
      </trkpt>
      <trkpt lat="45.33804592676460742950439453125" lon="-70.957683585584163665771484375">
        <ele>817.79998779296875</ele>
        <time>2026-08-21T18:03:39.000Z</time>
        <extensions>
          <ns3:TrackPointExtension>
            <ns3:hr>113</ns3:hr>
            <ns3:cad>60</ns3:cad>
          </ns3:TrackPointExtension>
        </extensions>
      </trkpt>
      <trkpt lat="45.33803821541368961334228515625" lon="-70.9577028639614582061767578125">
        <ele>817.5999755859375</ele>
        <time>2026-08-21T18:03:40.000Z</time>
        <extensions>
          <ns3:TrackPointExtension>
            <ns3:hr>113</ns3:hr>
            <ns3:cad>60</ns3:cad>
          </ns3:TrackPointExtension>
        </extensions>
      </trkpt>
      <trkpt lat="45.33802949823439121246337890625" lon="-70.95772373490035533905029296875">
        <ele>817.5999755859375</ele>
        <time>2026-08-21T18:03:41.000Z</time>
        <extensions>
          <ns3:TrackPointExtension>
            <ns3:hr>113</ns3:hr>
            <ns3:cad>0</ns3:cad>
          </ns3:TrackPointExtension>
        </extensions>
      </trkpt>
      <trkpt lat="45.33802178688347339630126953125" lon="-70.9577457793056964874267578125">
        <ele>817.5999755859375</ele>
        <time>2026-08-21T18:03:42.000Z</time>
        <extensions>
          <ns3:TrackPointExtension>
            <ns3:hr>113</ns3:hr>
            <ns3:cad>0</ns3:cad>
          </ns3:TrackPointExtension>
        </extensions>
      </trkpt>
      <trkpt lat="45.3380119800567626953125" lon="-70.9577739425003528594970703125">
        <ele>817.4000244140625</ele>
        <time>2026-08-21T18:03:43.000Z</time>
        <extensions>
          <ns3:TrackPointExtension>
            <ns3:hr>113</ns3:hr>
            <ns3:cad>0</ns3:cad>
          </ns3:TrackPointExtension>
        </extensions>
      </trkpt>
      <trkpt lat="45.337998233735561370849609375" lon="-70.957798920571804046630859375">
        <ele>817.4000244140625</ele>
        <time>2026-08-21T18:03:44.000Z</time>
        <extensions>
          <ns3:TrackPointExtension>
            <ns3:hr>113</ns3:hr>
            <ns3:cad>0</ns3:cad>
          </ns3:TrackPointExtension>
        </extensions>
      </trkpt>
      <trkpt lat="45.337984822690486907958984375" lon="-70.95782532356679439544677734375">
        <ele>817.20001220703125</ele>
        <time>2026-08-21T18:03:45.000Z</time>
        <extensions>
          <ns3:TrackPointExtension>
            <ns3:hr>113</ns3:hr>
            <ns3:cad>0</ns3:cad>
          </ns3:TrackPointExtension>
        </extensions>
      </trkpt>
      <trkpt lat="45.337977111339569091796875" lon="-70.95784418284893035888671875">
        <ele>817.20001220703125</ele>
        <time>2026-08-21T18:03:46.000Z</time>
        <extensions>
          <ns3:TrackPointExtension>
            <ns3:hr>113</ns3:hr>
            <ns3:cad>73</ns3:cad>
          </ns3:TrackPointExtension>
        </extensions>
      </trkpt>
      <trkpt lat="45.33796344883739948272705078125" lon="-70.95786555670201778411865234375">
        <ele>817.20001220703125</ele>
        <time>2026-08-21T18:03:47.000Z</time>
        <extensions>
          <ns3:TrackPointExtension>
            <ns3:hr>114</ns3:hr>
            <ns3:cad>73</ns3:cad>
          </ns3:TrackPointExtension>
        </extensions>
      </trkpt>
      <trkpt lat="45.33795087598264217376708984375" lon="-70.95789271406829357147216796875">
        <ele>817</ele>
        <time>2026-08-21T18:03:48.000Z</time>
        <extensions>
          <ns3:TrackPointExtension>
            <ns3:hr>114</ns3:hr>
            <ns3:cad>73</ns3:cad>
          </ns3:TrackPointExtension>
        </extensions>
      </trkpt>
      <trkpt lat="45.33794115297496318817138671875" lon="-70.95791794359683990478515625">
        <ele>816.79998779296875</ele>
        <time>2026-08-21T18:03:49.000Z</time>
        <extensions>
          <ns3:TrackPointExtension>
            <ns3:hr>114</ns3:hr>
            <ns3:cad>73</ns3:cad>
          </ns3:TrackPointExtension>
        </extensions>
      </trkpt>
      <trkpt lat="45.3379300050437450408935546875" lon="-70.9579395689070224761962890625">
        <ele>816.5999755859375</ele>
        <time>2026-08-21T18:03:50.000Z</time>
        <extensions>
          <ns3:TrackPointExtension>
            <ns3:hr>114</ns3:hr>
            <ns3:cad>73</ns3:cad>
          </ns3:TrackPointExtension>
        </extensions>
      </trkpt>
      <trkpt lat="45.33792003057897090911865234375" lon="-70.9579637087881565093994140625">
        <ele>816.4000244140625</ele>
        <time>2026-08-21T18:03:51.000Z</time>
        <extensions>
          <ns3:TrackPointExtension>
            <ns3:hr>114</ns3:hr>
            <ns3:cad>74</ns3:cad>
          </ns3:TrackPointExtension>
        </extensions>
      </trkpt>
      <trkpt lat="45.337913744151592254638671875" lon="-70.95799597911536693572998046875">
        <ele>816.4000244140625</ele>
        <time>2026-08-21T18:03:52.000Z</time>
        <extensions>
          <ns3:TrackPointExtension>
            <ns3:hr>115</ns3:hr>
            <ns3:cad>74</ns3:cad>
          </ns3:TrackPointExtension>
        </extensions>
      </trkpt>
      <trkpt lat="45.33790812827646732330322265625" lon="-70.95801827497780323028564453125">
        <ele>816.20001220703125</ele>
        <time>2026-08-21T18:03:53.000Z</time>
        <extensions>
          <ns3:TrackPointExtension>
            <ns3:hr>116</ns3:hr>
            <ns3:cad>74</ns3:cad>
          </ns3:TrackPointExtension>
        </extensions>
      </trkpt>
      <trkpt lat="45.3378968127071857452392578125" lon="-70.95804937183856964111328125">
        <ele>816.20001220703125</ele>
        <time>2026-08-21T18:03:54.000Z</time>
        <extensions>
          <ns3:TrackPointExtension>
            <ns3:hr>116</ns3:hr>
            <ns3:cad>74</ns3:cad>
          </ns3:TrackPointExtension>
        </extensions>
      </trkpt>
      <trkpt lat="45.33788700588047504425048828125" lon="-70.9580803848803043365478515625">
        <ele>816.20001220703125</ele>
        <time>2026-08-21T18:03:55.000Z</time>
        <extensions>
          <ns3:TrackPointExtension>
            <ns3:hr>117</ns3:hr>
            <ns3:cad>74</ns3:cad>
          </ns3:TrackPointExtension>
        </extensions>
      </trkpt>
      <trkpt lat="45.3378800489008426666259765625" lon="-70.958105027675628662109375">
        <ele>816</ele>
        <time>2026-08-21T18:03:56.000Z</time>
        <extensions>
          <ns3:TrackPointExtension>
            <ns3:hr>117</ns3:hr>
            <ns3:cad>74</ns3:cad>
          </ns3:TrackPointExtension>
        </extensions>
      </trkpt>
      <trkpt lat="45.3378716669976711273193359375" lon="-70.95813796855509281158447265625">
        <ele>816</ele>
        <time>2026-08-21T18:03:57.000Z</time>
        <extensions>
          <ns3:TrackPointExtension>
            <ns3:hr>117</ns3:hr>
            <ns3:cad>74</ns3:cad>
          </ns3:TrackPointExtension>
        </extensions>
      </trkpt>
      <trkpt lat="45.33786236308515071868896484375" lon="-70.958163700997829437255859375">
        <ele>816</ele>
        <time>2026-08-21T18:03:58.000Z</time>
        <extensions>
          <ns3:TrackPointExtension>
            <ns3:hr>117</ns3:hr>
            <ns3:cad>74</ns3:cad>
          </ns3:TrackPointExtension>
        </extensions>
      </trkpt>
      <trkpt lat="45.33785398118197917938232421875" lon="-70.95818373374640941619873046875">
        <ele>816</ele>
        <time>2026-08-21T18:03:59.000Z</time>
        <extensions>
          <ns3:TrackPointExtension>
            <ns3:hr>117</ns3:hr>
            <ns3:cad>74</ns3:cad>
          </ns3:TrackPointExtension>
        </extensions>
      </trkpt>
      <trkpt lat="45.33783989958465099334716796875" lon="-70.95820628106594085693359375">
        <ele>815.79998779296875</ele>
        <time>2026-08-21T18:04:00.000Z</time>
        <extensions>
          <ns3:TrackPointExtension>
            <ns3:hr>118</ns3:hr>
            <ns3:cad>74</ns3:cad>
          </ns3:TrackPointExtension>
        </extensions>
      </trkpt>
      <trkpt lat="45.33783034421503543853759765625" lon="-70.958228074014186859130859375">
        <ele>815.79998779296875</ele>
        <time>2026-08-21T18:04:01.000Z</time>
        <extensions>
          <ns3:TrackPointExtension>
            <ns3:hr>118</ns3:hr>
            <ns3:cad>74</ns3:cad>
          </ns3:TrackPointExtension>
        </extensions>
      </trkpt>
      <trkpt lat="45.33782355487346649169921875" lon="-70.95825280062854290008544921875">
        <ele>815.79998779296875</ele>
        <time>2026-08-21T18:04:02.000Z</time>
        <extensions>
          <ns3:TrackPointExtension>
            <ns3:hr>118</ns3:hr>
            <ns3:cad>74</ns3:cad>
          </ns3:TrackPointExtension>
        </extensions>
      </trkpt>
      <trkpt lat="45.33781391568481922149658203125" lon="-70.95828079618513584136962890625">
        <ele>815.5999755859375</ele>
        <time>2026-08-21T18:04:03.000Z</time>
        <extensions>
          <ns3:TrackPointExtension>
            <ns3:hr>118</ns3:hr>
            <ns3:cad>74</ns3:cad>
          </ns3:TrackPointExtension>
        </extensions>
      </trkpt>
      <trkpt lat="45.33780268393456935882568359375" lon="-70.9583102166652679443359375">
        <ele>815.5999755859375</ele>
        <time>2026-08-21T18:04:04.000Z</time>
        <extensions>
          <ns3:TrackPointExtension>
            <ns3:hr>118</ns3:hr>
            <ns3:cad>74</ns3:cad>
          </ns3:TrackPointExtension>
        </extensions>
      </trkpt>
      <trkpt lat="45.33779136836528778076171875" lon="-70.958329327404499053955078125">
        <ele>815.4000244140625</ele>
        <time>2026-08-21T18:04:05.000Z</time>
        <extensions>
          <ns3:TrackPointExtension>
            <ns3:hr>117</ns3:hr>
            <ns3:cad>74</ns3:cad>
          </ns3:TrackPointExtension>
        </extensions>
      </trkpt>
      <trkpt lat="45.33777703531086444854736328125" lon="-70.95834533683955669403076171875">
        <ele>815.4000244140625</ele>
        <time>2026-08-21T18:04:06.000Z</time>
        <extensions>
          <ns3:TrackPointExtension>
            <ns3:hr>117</ns3:hr>
            <ns3:cad>74</ns3:cad>
          </ns3:TrackPointExtension>
        </extensions>
      </trkpt>
      <trkpt lat="45.33776312135159969329833984375" lon="-70.95836578868329524993896484375">
        <ele>815.20001220703125</ele>
        <time>2026-08-21T18:04:07.000Z</time>
        <extensions>
          <ns3:TrackPointExtension>
            <ns3:hr>117</ns3:hr>
            <ns3:cad>74</ns3:cad>
          </ns3:TrackPointExtension>
        </extensions>
      </trkpt>
      <trkpt lat="45.33775306306779384613037109375" lon="-70.95838590525090694427490234375">
        <ele>815.20001220703125</ele>
        <time>2026-08-21T18:04:08.000Z</time>
        <extensions>
          <ns3:TrackPointExtension>
            <ns3:hr>117</ns3:hr>
            <ns3:cad>75</ns3:cad>
          </ns3:TrackPointExtension>
        </extensions>
      </trkpt>
      <trkpt lat="45.3377424180507659912109375" lon="-70.95840652473270893096923828125">
        <ele>815.20001220703125</ele>
        <time>2026-08-21T18:04:09.000Z</time>
        <extensions>
          <ns3:TrackPointExtension>
            <ns3:hr>117</ns3:hr>
            <ns3:cad>75</ns3:cad>
          </ns3:TrackPointExtension>
        </extensions>
      </trkpt>
      <trkpt lat="45.3377316892147064208984375" lon="-70.9584287367761135101318359375">
        <ele>815.20001220703125</ele>
        <time>2026-08-21T18:04:10.000Z</time>
        <extensions>
          <ns3:TrackPointExtension>
            <ns3:hr>117</ns3:hr>
            <ns3:cad>75</ns3:cad>
          </ns3:TrackPointExtension>
        </extensions>
      </trkpt>
      <trkpt lat="45.33772028982639312744140625" lon="-70.9584414772689342498779296875">
        <ele>815.4000244140625</ele>
        <time>2026-08-21T18:04:11.000Z</time>
        <extensions>
          <ns3:TrackPointExtension>
            <ns3:hr>117</ns3:hr>
            <ns3:cad>74</ns3:cad>
          </ns3:TrackPointExtension>
        </extensions>
      </trkpt>
      <trkpt lat="45.337708890438079833984375" lon="-70.95846536569297313690185546875">
        <ele>815.4000244140625</ele>
        <time>2026-08-21T18:04:12.000Z</time>
        <extensions>
          <ns3:TrackPointExtension>
            <ns3:hr>118</ns3:hr>
            <ns3:cad>74</ns3:cad>
          </ns3:TrackPointExtension>
        </extensions>
      </trkpt>
      <trkpt lat="45.33769925124943256378173828125" lon="-70.95848380587995052337646484375">
        <ele>815.5999755859375</ele>
        <time>2026-08-21T18:04:13.000Z</time>
        <extensions>
          <ns3:TrackPointExtension>
            <ns3:hr>118</ns3:hr>
            <ns3:cad>70</ns3:cad>
          </ns3:TrackPointExtension>
        </extensions>
      </trkpt>
      <trkpt lat="45.3376882709562778472900390625" lon="-70.95850576646625995635986328125">
        <ele>815.5999755859375</ele>
        <time>2026-08-21T18:04:14.000Z</time>
        <extensions>
          <ns3:TrackPointExtension>
            <ns3:hr>118</ns3:hr>
            <ns3:cad>70</ns3:cad>
          </ns3:TrackPointExtension>
        </extensions>
      </trkpt>
      <trkpt lat="45.3376780450344085693359375" lon="-70.95852672122418880462646484375">
        <ele>815.79998779296875</ele>
        <time>2026-08-21T18:04:15.000Z</time>
        <extensions>
          <ns3:TrackPointExtension>
            <ns3:hr>119</ns3:hr>
            <ns3:cad>70</ns3:cad>
          </ns3:TrackPointExtension>
        </extensions>
      </trkpt>
      <trkpt lat="45.3376671485602855682373046875" lon="-70.95854633487761020660400390625">
        <ele>815.5999755859375</ele>
        <time>2026-08-21T18:04:16.000Z</time>
        <extensions>
          <ns3:TrackPointExtension>
            <ns3:hr>119</ns3:hr>
            <ns3:cad>70</ns3:cad>
          </ns3:TrackPointExtension>
        </extensions>
      </trkpt>
      <trkpt lat="45.337656252086162567138671875" lon="-70.95855924300849437713623046875">
        <ele>815.79998779296875</ele>
        <time>2026-08-21T18:04:17.000Z</time>
        <extensions>
          <ns3:TrackPointExtension>
            <ns3:hr>120</ns3:hr>
            <ns3:cad>70</ns3:cad>
          </ns3:TrackPointExtension>
        </extensions>
      </trkpt>
      <trkpt lat="45.33764812164008617401123046875" lon="-70.95857231877744197845458984375">
        <ele>815.79998779296875</ele>
        <time>2026-08-21T18:04:18.000Z</time>
        <extensions>
          <ns3:TrackPointExtension>
            <ns3:hr>120</ns3:hr>
            <ns3:cad>70</ns3:cad>
          </ns3:TrackPointExtension>
        </extensions>
      </trkpt>
      <trkpt lat="45.33763638697564601898193359375" lon="-70.958592854440212249755859375">
        <ele>815.79998779296875</ele>
        <time>2026-08-21T18:04:19.000Z</time>
        <extensions>
          <ns3:TrackPointExtension>
            <ns3:hr>121</ns3:hr>
            <ns3:cad>70</ns3:cad>
          </ns3:TrackPointExtension>
        </extensions>
      </trkpt>
      <trkpt lat="45.3376282565295696258544921875" lon="-70.9586050920188426971435546875">
        <ele>815.79998779296875</ele>
        <time>2026-08-21T18:04:20.000Z</time>
        <extensions>
          <ns3:TrackPointExtension>
            <ns3:hr>121</ns3:hr>
            <ns3:cad>70</ns3:cad>
          </ns3:TrackPointExtension>
        </extensions>
      </trkpt>
      <trkpt lat="45.33761811442673206329345703125" lon="-70.958616994321346282958984375">
        <ele>815.79998779296875</ele>
        <time>2026-08-21T18:04:21.000Z</time>
        <extensions>
          <ns3:TrackPointExtension>
            <ns3:hr>122</ns3:hr>
            <ns3:cad>70</ns3:cad>
          </ns3:TrackPointExtension>
        </extensions>
      </trkpt>
      <trkpt lat="45.3376007638871669769287109375" lon="-70.9586299024522304534912109375">
        <ele>815.79998779296875</ele>
        <time>2026-08-21T18:04:22.000Z</time>
        <extensions>
          <ns3:TrackPointExtension>
            <ns3:hr>122</ns3:hr>
            <ns3:cad>70</ns3:cad>
          </ns3:TrackPointExtension>
        </extensions>
      </trkpt>
      <trkpt lat="45.33759062178432941436767578125" lon="-70.95863635651767253875732421875">
        <ele>816</ele>
        <time>2026-08-21T18:04:23.000Z</time>
        <extensions>
          <ns3:TrackPointExtension>
            <ns3:hr>123</ns3:hr>
            <ns3:cad>70</ns3:cad>
          </ns3:TrackPointExtension>
        </extensions>
      </trkpt>
      <trkpt lat="45.33758240751922130584716796875" lon="-70.95864222384989261627197265625">
        <ele>816</ele>
        <time>2026-08-21T18:04:24.000Z</time>
        <extensions>
          <ns3:TrackPointExtension>
            <ns3:hr>123</ns3:hr>
            <ns3:cad>70</ns3:cad>
          </ns3:TrackPointExtension>
        </extensions>
      </trkpt>
      <trkpt lat="45.33757134340703487396240234375" lon="-70.95865060575306415557861328125">
        <ele>816.20001220703125</ele>
        <time>2026-08-21T18:04:25.000Z</time>
        <extensions>
          <ns3:TrackPointExtension>
            <ns3:hr>125</ns3:hr>
            <ns3:cad>54</ns3:cad>
          </ns3:TrackPointExtension>
        </extensions>
      </trkpt>
      <trkpt lat="45.33756329677999019622802734375" lon="-70.9586614184081554412841796875">
        <ele>816.4000244140625</ele>
        <time>2026-08-21T18:04:26.000Z</time>
        <extensions>
          <ns3:TrackPointExtension>
            <ns3:hr>127</ns3:hr>
            <ns3:cad>54</ns3:cad>
          </ns3:TrackPointExtension>
        </extensions>
      </trkpt>
      <trkpt lat="45.33755441196262836456298828125" lon="-70.9586724825203418731689453125">
        <ele>816.5999755859375</ele>
        <time>2026-08-21T18:04:27.000Z</time>
        <extensions>
          <ns3:TrackPointExtension>
            <ns3:hr>128</ns3:hr>
            <ns3:cad>54</ns3:cad>
          </ns3:TrackPointExtension>
        </extensions>
      </trkpt>
      <trkpt lat="45.3375412523746490478515625" lon="-70.95868363045156002044677734375">
        <ele>816.5999755859375</ele>
        <time>2026-08-21T18:04:28.000Z</time>
        <extensions>
          <ns3:TrackPointExtension>
            <ns3:hr>129</ns3:hr>
            <ns3:cad>54</ns3:cad>
          </ns3:TrackPointExtension>
        </extensions>
      </trkpt>
      <trkpt lat="45.337526164948940277099609375" lon="-70.958693437278270721435546875">
        <ele>816.79998779296875</ele>
        <time>2026-08-21T18:04:29.000Z</time>
        <extensions>
          <ns3:TrackPointExtension>
            <ns3:hr>129</ns3:hr>
            <ns3:cad>54</ns3:cad>
          </ns3:TrackPointExtension>
        </extensions>
      </trkpt>
      <trkpt lat="45.3375144302845001220703125" lon="-70.9587053395807743072509765625">
        <ele>816.79998779296875</ele>
        <time>2026-08-21T18:04:30.000Z</time>
        <extensions>
          <ns3:TrackPointExtension>
            <ns3:hr>129</ns3:hr>
            <ns3:cad>54</ns3:cad>
          </ns3:TrackPointExtension>
        </extensions>
      </trkpt>
      <trkpt lat="45.3375063836574554443359375" lon="-70.95872151665389537811279296875">
        <ele>816.79998779296875</ele>
        <time>2026-08-21T18:04:31.000Z</time>
        <extensions>
          <ns3:TrackPointExtension>
            <ns3:hr>130</ns3:hr>
            <ns3:cad>54</ns3:cad>
          </ns3:TrackPointExtension>
        </extensions>
      </trkpt>
      <trkpt lat="45.33749640919268131256103515625" lon="-70.95873358659446239471435546875">
        <ele>817</ele>
        <time>2026-08-21T18:04:32.000Z</time>
        <extensions>
          <ns3:TrackPointExtension>
            <ns3:hr>130</ns3:hr>
            <ns3:cad>54</ns3:cad>
          </ns3:TrackPointExtension>
        </extensions>
      </trkpt>
      <trkpt lat="45.33748551271855831146240234375" lon="-70.9587425552308559417724609375">
        <ele>817</ele>
        <time>2026-08-21T18:04:33.000Z</time>
        <extensions>
          <ns3:TrackPointExtension>
            <ns3:hr>130</ns3:hr>
            <ns3:cad>53</ns3:cad>
          </ns3:TrackPointExtension>
        </extensions>
      </trkpt>
      <trkpt lat="45.33747243694961071014404296875" lon="-70.95875353552401065826416015625">
        <ele>817</ele>
        <time>2026-08-21T18:04:34.000Z</time>
        <extensions>
          <ns3:TrackPointExtension>
            <ns3:hr>130</ns3:hr>
            <ns3:cad>53</ns3:cad>
          </ns3:TrackPointExtension>
        </extensions>
      </trkpt>
      <trkpt lat="45.33745877444744110107421875" lon="-70.9587680362164974212646484375">
        <ele>817</ele>
        <time>2026-08-21T18:04:35.000Z</time>
        <extensions>
          <ns3:TrackPointExtension>
            <ns3:hr>130</ns3:hr>
            <ns3:cad>53</ns3:cad>
          </ns3:TrackPointExtension>
        </extensions>
      </trkpt>
      <trkpt lat="45.33744796179234981536865234375" lon="-70.95877901650965213775634765625">
        <ele>817</ele>
        <time>2026-08-21T18:04:36.000Z</time>
        <extensions>
          <ns3:TrackPointExtension>
            <ns3:hr>130</ns3:hr>
            <ns3:cad>53</ns3:cad>
          </ns3:TrackPointExtension>
        </extensions>
      </trkpt>
      <trkpt lat="45.33743790350854396820068359375" lon="-70.95878991298377513885498046875">
        <ele>817.20001220703125</ele>
        <time>2026-08-21T18:04:37.000Z</time>
        <extensions>
          <ns3:TrackPointExtension>
            <ns3:hr>129</ns3:hr>
            <ns3:cad>53</ns3:cad>
          </ns3:TrackPointExtension>
        </extensions>
      </trkpt>
      <trkpt lat="45.33742927014827728271484375" lon="-70.95880080945789813995361328125">
        <ele>817.20001220703125</ele>
        <time>2026-08-21T18:04:38.000Z</time>
        <extensions>
          <ns3:TrackPointExtension>
            <ns3:hr>129</ns3:hr>
            <ns3:cad>56</ns3:cad>
          </ns3:TrackPointExtension>
        </extensions>
      </trkpt>
      <trkpt lat="45.337421894073486328125" lon="-70.95881371758878231048583984375">
        <ele>817.20001220703125</ele>
        <time>2026-08-21T18:04:39.000Z</time>
        <extensions>
          <ns3:TrackPointExtension>
            <ns3:hr>129</ns3:hr>
            <ns3:cad>56</ns3:cad>
          </ns3:TrackPointExtension>
        </extensions>
      </trkpt>
      <trkpt lat="45.3374136798083782196044921875" lon="-70.95882511697709560394287109375">
        <ele>817.4000244140625</ele>
        <time>2026-08-21T18:04:40.000Z</time>
        <extensions>
          <ns3:TrackPointExtension>
            <ns3:hr>128</ns3:hr>
            <ns3:cad>56</ns3:cad>
          </ns3:TrackPointExtension>
        </extensions>
      </trkpt>
      <trkpt lat="45.33740202896296977996826171875" lon="-70.9588359296321868896484375">
        <ele>817.5999755859375</ele>
        <time>2026-08-21T18:04:41.000Z</time>
        <extensions>
          <ns3:TrackPointExtension>
            <ns3:hr>129</ns3:hr>
            <ns3:cad>56</ns3:cad>
          </ns3:TrackPointExtension>
        </extensions>
      </trkpt>
      <trkpt lat="45.3373949043452739715576171875" lon="-70.95884271897375583648681640625">
        <ele>817.5999755859375</ele>
        <time>2026-08-21T18:04:42.000Z</time>
        <extensions>
          <ns3:TrackPointExtension>
            <ns3:hr>129</ns3:hr>
            <ns3:cad>56</ns3:cad>
          </ns3:TrackPointExtension>
        </extensions>
      </trkpt>
      <trkpt lat="45.33739347942173480987548828125" lon="-70.95884623937308788299560546875">
        <ele>817.79998779296875</ele>
        <time>2026-08-21T18:04:43.000Z</time>
        <extensions>
          <ns3:TrackPointExtension>
            <ns3:hr>128</ns3:hr>
            <ns3:cad>51</ns3:cad>
          </ns3:TrackPointExtension>
        </extensions>
      </trkpt>
      <trkpt lat="45.3373902104794979095458984375" lon="-70.958850681781768798828125">
        <ele>818</ele>
        <time>2026-08-21T18:04:44.000Z</time>
        <extensions>
          <ns3:TrackPointExtension>
            <ns3:hr>129</ns3:hr>
            <ns3:cad>51</ns3:cad>
          </ns3:TrackPointExtension>
        </extensions>
      </trkpt>
      <trkpt lat="45.33738157711923122406005859375" lon="-70.95885193906724452972412109375">
        <ele>818.20001220703125</ele>
        <time>2026-08-21T18:04:45.000Z</time>
        <extensions>
          <ns3:TrackPointExtension>
            <ns3:hr>129</ns3:hr>
            <ns3:cad>51</ns3:cad>
          </ns3:TrackPointExtension>
        </extensions>
      </trkpt>
      <trkpt lat="45.33737537451088428497314453125" lon="-70.9588558785617351531982421875">
        <ele>818.4000244140625</ele>
        <time>2026-08-21T18:04:46.000Z</time>
        <extensions>
          <ns3:TrackPointExtension>
            <ns3:hr>129</ns3:hr>
            <ns3:cad>51</ns3:cad>
          </ns3:TrackPointExtension>
        </extensions>
      </trkpt>
      <trkpt lat="45.33736766315996646881103515625" lon="-70.9588595665991306304931640625">
        <ele>818.5999755859375</ele>
        <time>2026-08-21T18:04:47.000Z</time>
        <extensions>
          <ns3:TrackPointExtension>
            <ns3:hr>129</ns3:hr>
            <ns3:cad>51</ns3:cad>
          </ns3:TrackPointExtension>
        </extensions>
      </trkpt>
      <trkpt lat="45.3373627178370952606201171875" lon="-70.95885897986590862274169921875">
        <ele>818.79998779296875</ele>
        <time>2026-08-21T18:04:48.000Z</time>
        <extensions>
          <ns3:TrackPointExtension>
            <ns3:hr>129</ns3:hr>
            <ns3:cad>45</ns3:cad>
          </ns3:TrackPointExtension>
        </extensions>
      </trkpt>
      <trkpt lat="45.33735391683876514434814453125" lon="-70.95886115916073322296142578125">
        <ele>819</ele>
        <time>2026-08-21T18:04:49.000Z</time>
        <extensions>
          <ns3:TrackPointExtension>
            <ns3:hr>130</ns3:hr>
            <ns3:cad>45</ns3:cad>
          </ns3:TrackPointExtension>
        </extensions>
      </trkpt>
      <trkpt lat="45.337347798049449920654296875" lon="-70.9588654339313507080078125">
        <ele>819.20001220703125</ele>
        <time>2026-08-21T18:04:50.000Z</time>
        <extensions>
          <ns3:TrackPointExtension>
            <ns3:hr>130</ns3:hr>
            <ns3:cad>43</ns3:cad>
          </ns3:TrackPointExtension>
        </extensions>
      </trkpt>
      <trkpt lat="45.3373392485082149505615234375" lon="-70.9588706307113170623779296875">
        <ele>819.4000244140625</ele>
        <time>2026-08-21T18:04:51.000Z</time>
        <extensions>
          <ns3:TrackPointExtension>
            <ns3:hr>130</ns3:hr>
            <ns3:cad>43</ns3:cad>
          </ns3:TrackPointExtension>
        </extensions>
      </trkpt>
      <trkpt lat="45.33733011223375797271728515625" lon="-70.9588759951293468475341796875">
        <ele>819.4000244140625</ele>
        <time>2026-08-21T18:04:52.000Z</time>
        <extensions>
          <ns3:TrackPointExtension>
            <ns3:hr>130</ns3:hr>
            <ns3:cad>43</ns3:cad>
          </ns3:TrackPointExtension>
        </extensions>
      </trkpt>
      <trkpt lat="45.33732206560671329498291015625" lon="-70.95888228155672550201416015625">
        <ele>819.5999755859375</ele>
        <time>2026-08-21T18:04:53.000Z</time>
        <extensions>
          <ns3:TrackPointExtension>
            <ns3:hr>130</ns3:hr>
            <ns3:cad>41</ns3:cad>
          </ns3:TrackPointExtension>
        </extensions>
      </trkpt>
      <trkpt lat="45.3373134322464466094970703125" lon="-70.95888798125088214874267578125">
        <ele>819.79998779296875</ele>
        <time>2026-08-21T18:04:54.000Z</time>
        <extensions>
          <ns3:TrackPointExtension>
            <ns3:hr>130</ns3:hr>
            <ns3:cad>41</ns3:cad>
          </ns3:TrackPointExtension>
        </extensions>
      </trkpt>
      <trkpt lat="45.3373040445148944854736328125" lon="-70.9588927589356899261474609375">
        <ele>819.79998779296875</ele>
        <time>2026-08-21T18:04:55.000Z</time>
        <extensions>
          <ns3:TrackPointExtension>
            <ns3:hr>131</ns3:hr>
            <ns3:cad>41</ns3:cad>
          </ns3:TrackPointExtension>
        </extensions>
      </trkpt>
      <trkpt lat="45.33729356713593006134033203125" lon="-70.9588981233537197113037109375">
        <ele>820</ele>
        <time>2026-08-21T18:04:56.000Z</time>
        <extensions>
          <ns3:TrackPointExtension>
            <ns3:hr>131</ns3:hr>
            <ns3:cad>43</ns3:cad>
          </ns3:TrackPointExtension>
        </extensions>
      </trkpt>
      <trkpt lat="45.33728484995663166046142578125" lon="-70.95890633761882781982421875">
        <ele>820</ele>
        <time>2026-08-21T18:04:57.000Z</time>
        <extensions>
          <ns3:TrackPointExtension>
            <ns3:hr>131</ns3:hr>
            <ns3:cad>43</ns3:cad>
          </ns3:TrackPointExtension>
        </extensions>
      </trkpt>
      <trkpt lat="45.33727546222507953643798828125" lon="-70.95891865901648998260498046875">
        <ele>820.20001220703125</ele>
        <time>2026-08-21T18:04:58.000Z</time>
        <extensions>
          <ns3:TrackPointExtension>
            <ns3:hr>131</ns3:hr>
            <ns3:cad>44</ns3:cad>
          </ns3:TrackPointExtension>
        </extensions>
      </trkpt>
      <trkpt lat="45.33726632595062255859375" lon="-70.95893047749996185302734375">
        <ele>820.20001220703125</ele>
        <time>2026-08-21T18:04:59.000Z</time>
        <extensions>
          <ns3:TrackPointExtension>
            <ns3:hr>131</ns3:hr>
            <ns3:cad>44</ns3:cad>
          </ns3:TrackPointExtension>
        </extensions>
      </trkpt>
      <trkpt lat="45.33725769259035587310791015625" lon="-70.958940200507640838623046875">
        <ele>820.4000244140625</ele>
        <time>2026-08-21T18:05:00.000Z</time>
        <extensions>
          <ns3:TrackPointExtension>
            <ns3:hr>132</ns3:hr>
            <ns3:cad>44</ns3:cad>
          </ns3:TrackPointExtension>
        </extensions>
      </trkpt>
      <trkpt lat="45.337251909077167510986328125" lon="-70.9589467383921146392822265625">
        <ele>820.4000244140625</ele>
        <time>2026-08-21T18:05:01.000Z</time>
        <extensions>
          <ns3:TrackPointExtension>
            <ns3:hr>132</ns3:hr>
            <ns3:cad>46</ns3:cad>
          </ns3:TrackPointExtension>
        </extensions>
      </trkpt>
      <trkpt lat="45.337245203554630279541015625" lon="-70.9589551202952861785888671875">
        <ele>820.5999755859375</ele>
        <time>2026-08-21T18:05:02.000Z</time>
        <extensions>
          <ns3:TrackPointExtension>
            <ns3:hr>133</ns3:hr>
            <ns3:cad>46</ns3:cad>
          </ns3:TrackPointExtension>
        </extensions>
      </trkpt>
      <trkpt lat="45.33723958767950534820556640625" lon="-70.95896459184587001800537109375">
        <ele>820.79998779296875</ele>
        <time>2026-08-21T18:05:03.000Z</time>
        <extensions>
          <ns3:TrackPointExtension>
            <ns3:hr>134</ns3:hr>
            <ns3:cad>47</ns3:cad>
          </ns3:TrackPointExtension>
        </extensions>
      </trkpt>
      <trkpt lat="45.33723204396665096282958984375" lon="-70.95897666178643703460693359375">
        <ele>821</ele>
        <time>2026-08-21T18:05:04.000Z</time>
        <extensions>
          <ns3:TrackPointExtension>
            <ns3:hr>135</ns3:hr>
            <ns3:cad>47</ns3:cad>
          </ns3:TrackPointExtension>
        </extensions>
      </trkpt>
      <trkpt lat="45.33722785301506519317626953125" lon="-70.95898537896573543548583984375">
        <ele>821.20001220703125</ele>
        <time>2026-08-21T18:05:05.000Z</time>
        <extensions>
          <ns3:TrackPointExtension>
            <ns3:hr>135</ns3:hr>
            <ns3:cad>45</ns3:cad>
          </ns3:TrackPointExtension>
        </extensions>
      </trkpt>
      <trkpt lat="45.337224416434764862060546875" lon="-70.95899543724954128265380859375">
        <ele>821.5999755859375</ele>
        <time>2026-08-21T18:05:06.000Z</time>
        <extensions>
          <ns3:TrackPointExtension>
            <ns3:hr>136</ns3:hr>
            <ns3:cad>45</ns3:cad>
          </ns3:TrackPointExtension>
        </extensions>
      </trkpt>
      <trkpt lat="45.3372182138264179229736328125" lon="-70.9590034000575542449951171875">
        <ele>821.79998779296875</ele>
        <time>2026-08-21T18:05:07.000Z</time>
        <extensions>
          <ns3:TrackPointExtension>
            <ns3:hr>136</ns3:hr>
            <ns3:cad>45</ns3:cad>
          </ns3:TrackPointExtension>
        </extensions>
      </trkpt>
      <trkpt lat="45.33721075393259525299072265625" lon="-70.95901429653167724609375">
        <ele>822</ele>
        <time>2026-08-21T18:05:08.000Z</time>
        <extensions>
          <ns3:TrackPointExtension>
            <ns3:hr>136</ns3:hr>
            <ns3:cad>47</ns3:cad>
          </ns3:TrackPointExtension>
        </extensions>
      </trkpt>
      <trkpt lat="45.33720538951456546783447265625" lon="-70.95902301371097564697265625">
        <ele>822</ele>
        <time>2026-08-21T18:05:09.000Z</time>
        <extensions>
          <ns3:TrackPointExtension>
            <ns3:hr>137</ns3:hr>
            <ns3:cad>47</ns3:cad>
          </ns3:TrackPointExtension>
        </extensions>
      </trkpt>
      <trkpt lat="45.3371991030871868133544921875" lon="-70.95903365872800350189208984375">
        <ele>822.20001220703125</ele>
        <time>2026-08-21T18:05:10.000Z</time>
        <extensions>
          <ns3:TrackPointExtension>
            <ns3:hr>137</ns3:hr>
            <ns3:cad>49</ns3:cad>
          </ns3:TrackPointExtension>
        </extensions>
      </trkpt>
      <trkpt lat="45.3371913917362689971923828125" lon="-70.95904187299311161041259765625">
        <ele>822.4000244140625</ele>
        <time>2026-08-21T18:05:11.000Z</time>
        <extensions>
          <ns3:TrackPointExtension>
            <ns3:hr>138</ns3:hr>
            <ns3:cad>48</ns3:cad>
          </ns3:TrackPointExtension>
        </extensions>
      </trkpt>
      <trkpt lat="45.33718443475663661956787109375" lon="-70.9590510092675685882568359375">
        <ele>822.5999755859375</ele>
        <time>2026-08-21T18:05:12.000Z</time>
        <extensions>
          <ns3:TrackPointExtension>
            <ns3:hr>139</ns3:hr>
            <ns3:cad>48</ns3:cad>
          </ns3:TrackPointExtension>
        </extensions>
      </trkpt>
      <trkpt lat="45.3371764719486236572265625" lon="-70.95906366594135761260986328125">
        <ele>822.79998779296875</ele>
        <time>2026-08-21T18:05:13.000Z</time>
        <extensions>
          <ns3:TrackPointExtension>
            <ns3:hr>140</ns3:hr>
            <ns3:cad>47</ns3:cad>
          </ns3:TrackPointExtension>
        </extensions>
      </trkpt>
      <trkpt lat="45.33717119134962558746337890625" lon="-70.9590778313577175140380859375">
        <ele>823.20001220703125</ele>
        <time>2026-08-21T18:05:14.000Z</time>
        <extensions>
          <ns3:TrackPointExtension>
            <ns3:hr>141</ns3:hr>
            <ns3:cad>47</ns3:cad>
          </ns3:TrackPointExtension>
        </extensions>
      </trkpt>
      <trkpt lat="45.33716515637934207916259765625" lon="-70.95909266732633113861083984375">
        <ele>823.4000244140625</ele>
        <time>2026-08-21T18:05:15.000Z</time>
        <extensions>
          <ns3:TrackPointExtension>
            <ns3:hr>143</ns3:hr>
            <ns3:cad>47</ns3:cad>
          </ns3:TrackPointExtension>
        </extensions>
      </trkpt>
      <trkpt lat="45.337160043418407440185546875" lon="-70.959105156362056732177734375">
        <ele>823.5999755859375</ele>
        <time>2026-08-21T18:05:16.000Z</time>
        <extensions>
          <ns3:TrackPointExtension>
            <ns3:hr>143</ns3:hr>
            <ns3:cad>46</ns3:cad>
          </ns3:TrackPointExtension>
        </extensions>
      </trkpt>
      <trkpt lat="45.33715493045747280120849609375" lon="-70.959121249616146087646484375">
        <ele>823.5999755859375</ele>
        <time>2026-08-21T18:05:17.000Z</time>
        <extensions>
          <ns3:TrackPointExtension>
            <ns3:hr>144</ns3:hr>
            <ns3:cad>46</ns3:cad>
          </ns3:TrackPointExtension>
        </extensions>
      </trkpt>
      <trkpt lat="45.33714856021106243133544921875" lon="-70.9591378457844257354736328125">
        <ele>823.5999755859375</ele>
        <time>2026-08-21T18:05:18.000Z</time>
        <extensions>
          <ns3:TrackPointExtension>
            <ns3:hr>144</ns3:hr>
            <ns3:cad>47</ns3:cad>
          </ns3:TrackPointExtension>
        </extensions>
      </trkpt>
      <trkpt lat="45.33714302815496921539306640625" lon="-70.95915150828659534454345703125">
        <ele>823.79998779296875</ele>
        <time>2026-08-21T18:05:19.000Z</time>
        <extensions>
          <ns3:TrackPointExtension>
            <ns3:hr>144</ns3:hr>
            <ns3:cad>47</ns3:cad>
          </ns3:TrackPointExtension>
        </extensions>
      </trkpt>
      <trkpt lat="45.33713531680405139923095703125" lon="-70.95917045138776302337646484375">
        <ele>823.79998779296875</ele>
        <time>2026-08-21T18:05:20.000Z</time>
        <extensions>
          <ns3:TrackPointExtension>
            <ns3:hr>144</ns3:hr>
            <ns3:cad>50</ns3:cad>
          </ns3:TrackPointExtension>
        </extensions>
      </trkpt>
      <trkpt lat="45.337132550776004791259765625" lon="-70.95918805338442325592041015625">
        <ele>823.79998779296875</ele>
        <time>2026-08-21T18:05:21.000Z</time>
        <extensions>
          <ns3:TrackPointExtension>
            <ns3:hr>144</ns3:hr>
            <ns3:cad>51</ns3:cad>
          </ns3:TrackPointExtension>
        </extensions>
      </trkpt>
      <trkpt lat="45.3371290303766727447509765625" lon="-70.95920632593333721160888671875">
        <ele>823.79998779296875</ele>
        <time>2026-08-21T18:05:22.000Z</time>
        <extensions>
          <ns3:TrackPointExtension>
            <ns3:hr>144</ns3:hr>
            <ns3:cad>51</ns3:cad>
          </ns3:TrackPointExtension>
        </extensions>
      </trkpt>
      <trkpt lat="45.33712525852024555206298828125" lon="-70.95922392792999744415283203125">
        <ele>823.79998779296875</ele>
        <time>2026-08-21T18:05:23.000Z</time>
        <extensions>
          <ns3:TrackPointExtension>
            <ns3:hr>144</ns3:hr>
            <ns3:cad>52</ns3:cad>
          </ns3:TrackPointExtension>
        </extensions>
      </trkpt>
      <trkpt lat="45.33712022937834262847900390625" lon="-70.95923817716538906097412109375">
        <ele>824</ele>
        <time>2026-08-21T18:05:24.000Z</time>
        <extensions>
          <ns3:TrackPointExtension>
            <ns3:hr>144</ns3:hr>
            <ns3:cad>51</ns3:cad>
          </ns3:TrackPointExtension>
        </extensions>
      </trkpt>
      <trkpt lat="45.3371156193315982818603515625" lon="-70.95925678499042987823486328125">
        <ele>824</ele>
        <time>2026-08-21T18:05:25.000Z</time>
        <extensions>
          <ns3:TrackPointExtension>
            <ns3:hr>144</ns3:hr>
            <ns3:cad>51</ns3:cad>
          </ns3:TrackPointExtension>
        </extensions>
      </trkpt>
      <trkpt lat="45.337113440036773681640625" lon="-70.9592736326158046722412109375">
        <ele>824.20001220703125</ele>
        <time>2026-08-21T18:05:26.000Z</time>
        <extensions>
          <ns3:TrackPointExtension>
            <ns3:hr>144</ns3:hr>
            <ns3:cad>50</ns3:cad>
          </ns3:TrackPointExtension>
        </extensions>
      </trkpt>
      <trkpt lat="45.3371099196374416351318359375" lon="-70.95928863622248172760009765625">
        <ele>824.20001220703125</ele>
        <time>2026-08-21T18:05:27.000Z</time>
        <extensions>
          <ns3:TrackPointExtension>
            <ns3:hr>145</ns3:hr>
            <ns3:cad>50</ns3:cad>
          </ns3:TrackPointExtension>
        </extensions>
      </trkpt>
      <trkpt lat="45.33710631541907787322998046875" lon="-70.95930598676204681396484375">
        <ele>824.4000244140625</ele>
        <time>2026-08-21T18:05:28.000Z</time>
        <extensions>
          <ns3:TrackPointExtension>
            <ns3:hr>144</ns3:hr>
            <ns3:cad>48</ns3:cad>
          </ns3:TrackPointExtension>
        </extensions>
      </trkpt>
      <trkpt lat="45.33710346557199954986572265625" lon="-70.95932182855904102325439453125">
        <ele>824.5999755859375</ele>
        <time>2026-08-21T18:05:29.000Z</time>
        <extensions>
          <ns3:TrackPointExtension>
            <ns3:hr>144</ns3:hr>
            <ns3:cad>48</ns3:cad>
          </ns3:TrackPointExtension>
        </extensions>
      </trkpt>
      <trkpt lat="45.33710028044879436492919921875" lon="-70.9593353234231472015380859375">
        <ele>824.5999755859375</ele>
        <time>2026-08-21T18:05:30.000Z</time>
        <extensions>
          <ns3:TrackPointExtension>
            <ns3:hr>145</ns3:hr>
            <ns3:cad>48</ns3:cad>
          </ns3:TrackPointExtension>
        </extensions>
      </trkpt>
      <trkpt lat="45.33709642477333545684814453125" lon="-70.95934999175369739532470703125">
        <ele>824.5999755859375</ele>
        <time>2026-08-21T18:05:31.000Z</time>
        <extensions>
          <ns3:TrackPointExtension>
            <ns3:hr>144</ns3:hr>
            <ns3:cad>50</ns3:cad>
          </ns3:TrackPointExtension>
        </extensions>
      </trkpt>
      <trkpt lat="45.33709156326949596405029296875" lon="-70.959363989531993865966796875">
        <ele>824.5999755859375</ele>
        <time>2026-08-21T18:05:32.000Z</time>
        <extensions>
          <ns3:TrackPointExtension>
            <ns3:hr>144</ns3:hr>
            <ns3:cad>50</ns3:cad>
          </ns3:TrackPointExtension>
        </extensions>
      </trkpt>
      <trkpt lat="45.33708586357533931732177734375" lon="-70.9593795798718929290771484375">
        <ele>824.79998779296875</ele>
        <time>2026-08-21T18:05:33.000Z</time>
        <extensions>
          <ns3:TrackPointExtension>
            <ns3:hr>145</ns3:hr>
            <ns3:cad>51</ns3:cad>
          </ns3:TrackPointExtension>
        </extensions>
      </trkpt>
      <trkpt lat="45.33707999624311923980712890625" lon="-70.9593943320214748382568359375">
        <ele>824.79998779296875</ele>
        <time>2026-08-21T18:05:34.000Z</time>
        <extensions>
          <ns3:TrackPointExtension>
            <ns3:hr>144</ns3:hr>
            <ns3:cad>52</ns3:cad>
          </ns3:TrackPointExtension>
        </extensions>
      </trkpt>
      <trkpt lat="45.33707194961607456207275390625" lon="-70.9594152867794036865234375">
        <ele>824.79998779296875</ele>
        <time>2026-08-21T18:05:35.000Z</time>
        <extensions>
          <ns3:TrackPointExtension>
            <ns3:hr>144</ns3:hr>
            <ns3:cad>53</ns3:cad>
          </ns3:TrackPointExtension>
        </extensions>
      </trkpt>
      <trkpt lat="45.3370673395693302154541015625" lon="-70.95942894928157329559326171875">
        <ele>825</ele>
        <time>2026-08-21T18:05:36.000Z</time>
        <extensions>
          <ns3:TrackPointExtension>
            <ns3:hr>143</ns3:hr>
            <ns3:cad>53</ns3:cad>
          </ns3:TrackPointExtension>
        </extensions>
      </trkpt>
      <trkpt lat="45.33706155605614185333251953125" lon="-70.959447138011455535888671875">
        <ele>825</ele>
        <time>2026-08-21T18:05:37.000Z</time>
        <extensions>
          <ns3:TrackPointExtension>
            <ns3:hr>143</ns3:hr>
            <ns3:cad>53</ns3:cad>
          </ns3:TrackPointExtension>
        </extensions>
      </trkpt>
      <trkpt lat="45.3370562754571437835693359375" lon="-70.95946297980844974517822265625">
        <ele>825</ele>
        <time>2026-08-21T18:05:38.000Z</time>
        <extensions>
          <ns3:TrackPointExtension>
            <ns3:hr>142</ns3:hr>
            <ns3:cad>52</ns3:cad>
          </ns3:TrackPointExtension>
        </extensions>
      </trkpt>
      <trkpt lat="45.3370488993823528289794921875" lon="-70.959475971758365631103515625">
        <ele>825.20001220703125</ele>
        <time>2026-08-21T18:05:39.000Z</time>
        <extensions>
          <ns3:TrackPointExtension>
            <ns3:hr>142</ns3:hr>
            <ns3:cad>52</ns3:cad>
          </ns3:TrackPointExtension>
        </extensions>
      </trkpt>
      <trkpt lat="45.337040014564990997314453125" lon="-70.95949013717472553253173828125">
        <ele>825.20001220703125</ele>
        <time>2026-08-21T18:05:40.000Z</time>
        <extensions>
          <ns3:TrackPointExtension>
            <ns3:hr>142</ns3:hr>
            <ns3:cad>53</ns3:cad>
          </ns3:TrackPointExtension>
        </extensions>
      </trkpt>
      <trkpt lat="45.3370344825088977813720703125" lon="-70.9595032967627048492431640625">
        <ele>825.20001220703125</ele>
        <time>2026-08-21T18:05:41.000Z</time>
        <extensions>
          <ns3:TrackPointExtension>
            <ns3:hr>141</ns3:hr>
            <ns3:cad>53</ns3:cad>
          </ns3:TrackPointExtension>
        </extensions>
      </trkpt>
      <trkpt lat="45.33702886663377285003662109375" lon="-70.95952047966420650482177734375">
        <ele>825.20001220703125</ele>
        <time>2026-08-21T18:05:42.000Z</time>
        <extensions>
          <ns3:TrackPointExtension>
            <ns3:hr>139</ns3:hr>
            <ns3:cad>53</ns3:cad>
          </ns3:TrackPointExtension>
        </extensions>
      </trkpt>
      <trkpt lat="45.33702299930155277252197265625" lon="-70.9595374949276447296142578125">
        <ele>825.20001220703125</ele>
        <time>2026-08-21T18:05:43.000Z</time>
        <extensions>
          <ns3:TrackPointExtension>
            <ns3:hr>139</ns3:hr>
            <ns3:cad>53</ns3:cad>
          </ns3:TrackPointExtension>
        </extensions>
      </trkpt>
      <trkpt lat="45.33701864071190357208251953125" lon="-70.959555096924304962158203125">
        <ele>825.20001220703125</ele>
        <time>2026-08-21T18:05:44.000Z</time>
        <extensions>
          <ns3:TrackPointExtension>
            <ns3:hr>138</ns3:hr>
            <ns3:cad>53</ns3:cad>
          </ns3:TrackPointExtension>
        </extensions>
      </trkpt>
      <trkpt lat="45.337013863027095794677734375" lon="-70.95957093872129917144775390625">
        <ele>825.4000244140625</ele>
        <time>2026-08-21T18:05:45.000Z</time>
        <extensions>
          <ns3:TrackPointExtension>
            <ns3:hr>138</ns3:hr>
            <ns3:cad>53</ns3:cad>
          </ns3:TrackPointExtension>
        </extensions>
      </trkpt>
      <trkpt lat="45.337009839713573455810546875" lon="-70.9595869481563568115234375">
        <ele>825.4000244140625</ele>
        <time>2026-08-21T18:05:46.000Z</time>
        <extensions>
          <ns3:TrackPointExtension>
            <ns3:hr>138</ns3:hr>
            <ns3:cad>53</ns3:cad>
          </ns3:TrackPointExtension>
        </extensions>
      </trkpt>
      <trkpt lat="45.33700556494295597076416015625" lon="-70.95960438251495361328125">
        <ele>825.4000244140625</ele>
        <time>2026-08-21T18:05:47.000Z</time>
        <extensions>
          <ns3:TrackPointExtension>
            <ns3:hr>138</ns3:hr>
            <ns3:cad>53</ns3:cad>
          </ns3:TrackPointExtension>
        </extensions>
      </trkpt>
      <trkpt lat="45.33700145781040191650390625" lon="-70.95962257124483585357666015625">
        <ele>825.4000244140625</ele>
        <time>2026-08-21T18:05:48.000Z</time>
        <extensions>
          <ns3:TrackPointExtension>
            <ns3:hr>138</ns3:hr>
            <ns3:cad>53</ns3:cad>
          </ns3:TrackPointExtension>
        </extensions>
      </trkpt>
      <trkpt lat="45.33699885942041873931884765625" lon="-70.9596404246985912322998046875">
        <ele>825.4000244140625</ele>
        <time>2026-08-21T18:05:49.000Z</time>
        <extensions>
          <ns3:TrackPointExtension>
            <ns3:hr>137</ns3:hr>
            <ns3:cad>53</ns3:cad>
          </ns3:TrackPointExtension>
        </extensions>
      </trkpt>
      <trkpt lat="45.3369952552020549774169921875" lon="-70.9596566855907440185546875">
        <ele>825.5999755859375</ele>
        <time>2026-08-21T18:05:50.000Z</time>
        <extensions>
          <ns3:TrackPointExtension>
            <ns3:hr>137</ns3:hr>
            <ns3:cad>53</ns3:cad>
          </ns3:TrackPointExtension>
        </extensions>
      </trkpt>
      <trkpt lat="45.336987711489200592041015625" lon="-70.95966699533164501190185546875">
        <ele>825.5999755859375</ele>
        <time>2026-08-21T18:05:51.000Z</time>
        <extensions>
          <ns3:TrackPointExtension>
            <ns3:hr>136</ns3:hr>
            <ns3:cad>53</ns3:cad>
          </ns3:TrackPointExtension>
        </extensions>
      </trkpt>
      <trkpt lat="45.3369821794331073760986328125" lon="-70.95968375913798809051513671875">
        <ele>825.79998779296875</ele>
        <time>2026-08-21T18:05:52.000Z</time>
        <extensions>
          <ns3:TrackPointExtension>
            <ns3:hr>136</ns3:hr>
            <ns3:cad>53</ns3:cad>
          </ns3:TrackPointExtension>
        </extensions>
      </trkpt>
      <trkpt lat="45.33698134124279022216796875" lon="-70.95970488153398036956787109375">
        <ele>826</ele>
        <time>2026-08-21T18:05:53.000Z</time>
        <extensions>
          <ns3:TrackPointExtension>
            <ns3:hr>136</ns3:hr>
            <ns3:cad>53</ns3:cad>
          </ns3:TrackPointExtension>
        </extensions>
      </trkpt>
      <trkpt lat="45.33697740174829959869384765625" lon="-70.95972516573965549468994140625">
        <ele>826</ele>
        <time>2026-08-21T18:05:54.000Z</time>
        <extensions>
          <ns3:TrackPointExtension>
            <ns3:hr>136</ns3:hr>
            <ns3:cad>53</ns3:cad>
          </ns3:TrackPointExtension>
        </extensions>
      </trkpt>
      <trkpt lat="45.33697287552058696746826171875" lon="-70.95974930562078952789306640625">
        <ele>826</ele>
        <time>2026-08-21T18:05:55.000Z</time>
        <extensions>
          <ns3:TrackPointExtension>
            <ns3:hr>135</ns3:hr>
            <ns3:cad>53</ns3:cad>
          </ns3:TrackPointExtension>
        </extensions>
      </trkpt>
      <trkpt lat="45.3369711153209209442138671875" lon="-70.9597698412835597991943359375">
        <ele>826</ele>
        <time>2026-08-21T18:05:56.000Z</time>
        <extensions>
          <ns3:TrackPointExtension>
            <ns3:hr>135</ns3:hr>
            <ns3:cad>54</ns3:cad>
          </ns3:TrackPointExtension>
        </extensions>
      </trkpt>
      <trkpt lat="45.3369684331119060516357421875" lon="-70.95978685654699802398681640625">
        <ele>826</ele>
        <time>2026-08-21T18:05:57.000Z</time>
        <extensions>
          <ns3:TrackPointExtension>
            <ns3:hr>134</ns3:hr>
            <ns3:cad>54</ns3:cad>
          </ns3:TrackPointExtension>
        </extensions>
      </trkpt>
      <trkpt lat="45.33696524798870086669921875" lon="-70.9598057158291339874267578125">
        <ele>826</ele>
        <time>2026-08-21T18:05:58.000Z</time>
        <extensions>
          <ns3:TrackPointExtension>
            <ns3:hr>134</ns3:hr>
            <ns3:cad>53</ns3:cad>
          </ns3:TrackPointExtension>
        </extensions>
      </trkpt>
      <trkpt lat="45.33696516416966915130615234375" lon="-70.9598224796354770660400390625">
        <ele>826</ele>
        <time>2026-08-21T18:05:59.000Z</time>
        <extensions>
          <ns3:TrackPointExtension>
            <ns3:hr>134</ns3:hr>
            <ns3:cad>53</ns3:cad>
          </ns3:TrackPointExtension>
        </extensions>
      </trkpt>
      <trkpt lat="45.3369630686938762664794921875" lon="-70.95983848907053470611572265625">
        <ele>826</ele>
        <time>2026-08-21T18:06:00.000Z</time>
        <extensions>
          <ns3:TrackPointExtension>
            <ns3:hr>134</ns3:hr>
            <ns3:cad>53</ns3:cad>
          </ns3:TrackPointExtension>
        </extensions>
      </trkpt>
      <trkpt lat="45.3369565308094024658203125" lon="-70.95985709689557552337646484375">
        <ele>826</ele>
        <time>2026-08-21T18:06:01.000Z</time>
        <extensions>
          <ns3:TrackPointExtension>
            <ns3:hr>134</ns3:hr>
            <ns3:cad>54</ns3:cad>
          </ns3:TrackPointExtension>
        </extensions>
      </trkpt>
      <trkpt lat="45.3369509987533092498779296875" lon="-70.95987620763480663299560546875">
        <ele>826</ele>
        <time>2026-08-21T18:06:02.000Z</time>
        <extensions>
          <ns3:TrackPointExtension>
            <ns3:hr>134</ns3:hr>
            <ns3:cad>54</ns3:cad>
          </ns3:TrackPointExtension>
        </extensions>
      </trkpt>
      <trkpt lat="45.3369463048875331878662109375" lon="-70.9598959051072597503662109375">
        <ele>826</ele>
        <time>2026-08-21T18:06:03.000Z</time>
        <extensions>
          <ns3:TrackPointExtension>
            <ns3:hr>134</ns3:hr>
            <ns3:cad>56</ns3:cad>
          </ns3:TrackPointExtension>
        </extensions>
      </trkpt>
      <trkpt lat="45.33694270066916942596435546875" lon="-70.959916524589061737060546875">
        <ele>826</ele>
        <time>2026-08-21T18:06:04.000Z</time>
        <extensions>
          <ns3:TrackPointExtension>
            <ns3:hr>133</ns3:hr>
            <ns3:cad>56</ns3:cad>
          </ns3:TrackPointExtension>
        </extensions>
      </trkpt>
      <trkpt lat="45.33693582750856876373291015625" lon="-70.95993454568088054656982421875">
        <ele>826</ele>
        <time>2026-08-21T18:06:05.000Z</time>
        <extensions>
          <ns3:TrackPointExtension>
            <ns3:hr>134</ns3:hr>
            <ns3:cad>56</ns3:cad>
          </ns3:TrackPointExtension>
        </extensions>
      </trkpt>
      <trkpt lat="45.33693046309053897857666015625" lon="-70.9599552489817142486572265625">
        <ele>826</ele>
        <time>2026-08-21T18:06:06.000Z</time>
        <extensions>
          <ns3:TrackPointExtension>
            <ns3:hr>133</ns3:hr>
            <ns3:cad>56</ns3:cad>
          </ns3:TrackPointExtension>
        </extensions>
      </trkpt>
      <trkpt lat="45.33692635595798492431640625" lon="-70.959975533187389373779296875">
        <ele>826</ele>
        <time>2026-08-21T18:06:07.000Z</time>
        <extensions>
          <ns3:TrackPointExtension>
            <ns3:hr>133</ns3:hr>
            <ns3:cad>56</ns3:cad>
          </ns3:TrackPointExtension>
        </extensions>
      </trkpt>
      <trkpt lat="45.3369214944541454315185546875" lon="-70.95999372191727161407470703125">
        <ele>826</ele>
        <time>2026-08-21T18:06:08.000Z</time>
        <extensions>
          <ns3:TrackPointExtension>
            <ns3:hr>133</ns3:hr>
            <ns3:cad>56</ns3:cad>
          </ns3:TrackPointExtension>
        </extensions>
      </trkpt>
      <trkpt lat="45.33691755495965480804443359375" lon="-70.96001149155199527740478515625">
        <ele>826</ele>
        <time>2026-08-21T18:06:09.000Z</time>
        <extensions>
          <ns3:TrackPointExtension>
            <ns3:hr>132</ns3:hr>
            <ns3:cad>56</ns3:cad>
          </ns3:TrackPointExtension>
        </extensions>
      </trkpt>
      <trkpt lat="45.336913950741291046142578125" lon="-70.960029177367687225341796875">
        <ele>826</ele>
        <time>2026-08-21T18:06:10.000Z</time>
        <extensions>
          <ns3:TrackPointExtension>
            <ns3:hr>131</ns3:hr>
            <ns3:cad>56</ns3:cad>
          </ns3:TrackPointExtension>
        </extensions>
      </trkpt>
      <trkpt lat="45.3369107656180858612060546875" lon="-70.96004921011626720428466796875">
        <ele>826.20001220703125</ele>
        <time>2026-08-21T18:06:11.000Z</time>
        <extensions>
          <ns3:TrackPointExtension>
            <ns3:hr>131</ns3:hr>
            <ns3:cad>56</ns3:cad>
          </ns3:TrackPointExtension>
        </extensions>
      </trkpt>
      <trkpt lat="45.3369077481329441070556640625" lon="-70.9600724279880523681640625">
        <ele>826.20001220703125</ele>
        <time>2026-08-21T18:06:12.000Z</time>
        <extensions>
          <ns3:TrackPointExtension>
            <ns3:hr>130</ns3:hr>
            <ns3:cad>56</ns3:cad>
          </ns3:TrackPointExtension>
        </extensions>
      </trkpt>
      <trkpt lat="45.3369064070284366607666015625" lon="-70.96008944325149059295654296875">
        <ele>826.4000244140625</ele>
        <time>2026-08-21T18:06:13.000Z</time>
        <extensions>
          <ns3:TrackPointExtension>
            <ns3:hr>130</ns3:hr>
            <ns3:cad>56</ns3:cad>
          </ns3:TrackPointExtension>
        </extensions>
      </trkpt>
      <trkpt lat="45.33690632320940494537353515625" lon="-70.960110984742641448974609375">
        <ele>826.4000244140625</ele>
        <time>2026-08-21T18:06:14.000Z</time>
        <extensions>
          <ns3:TrackPointExtension>
            <ns3:hr>130</ns3:hr>
            <ns3:cad>56</ns3:cad>
          </ns3:TrackPointExtension>
        </extensions>
      </trkpt>
      <trkpt lat="45.3369028866291046142578125" lon="-70.96013353206217288970947265625">
        <ele>826.5999755859375</ele>
        <time>2026-08-21T18:06:15.000Z</time>
        <extensions>
          <ns3:TrackPointExtension>
            <ns3:hr>130</ns3:hr>
            <ns3:cad>56</ns3:cad>
          </ns3:TrackPointExtension>
        </extensions>
      </trkpt>
      <trkpt lat="45.33689810894429683685302734375" lon="-70.96015482209622859954833984375">
        <ele>826.5999755859375</ele>
        <time>2026-08-21T18:06:16.000Z</time>
        <extensions>
          <ns3:TrackPointExtension>
            <ns3:hr>130</ns3:hr>
            <ns3:cad>56</ns3:cad>
          </ns3:TrackPointExtension>
        </extensions>
      </trkpt>
      <trkpt lat="45.336893163621425628662109375" lon="-70.96017577685415744781494140625">
        <ele>826.79998779296875</ele>
        <time>2026-08-21T18:06:17.000Z</time>
        <extensions>
          <ns3:TrackPointExtension>
            <ns3:hr>129</ns3:hr>
            <ns3:cad>56</ns3:cad>
          </ns3:TrackPointExtension>
        </extensions>
      </trkpt>
      <trkpt lat="45.33688654191792011260986328125" lon="-70.9601946361362934112548828125">
        <ele>826.79998779296875</ele>
        <time>2026-08-21T18:06:18.000Z</time>
        <extensions>
          <ns3:TrackPointExtension>
            <ns3:hr>128</ns3:hr>
            <ns3:cad>54</ns3:cad>
          </ns3:TrackPointExtension>
        </extensions>
      </trkpt>
      <trkpt lat="45.33687748946249485015869140625" lon="-70.96021131612360477447509765625">
        <ele>826.79998779296875</ele>
        <time>2026-08-21T18:06:19.000Z</time>
        <extensions>
          <ns3:TrackPointExtension>
            <ns3:hr>128</ns3:hr>
            <ns3:cad>54</ns3:cad>
          </ns3:TrackPointExtension>
        </extensions>
      </trkpt>
      <trkpt lat="45.33687028102576732635498046875" lon="-70.9602281637489795684814453125">
        <ele>826.79998779296875</ele>
        <time>2026-08-21T18:06:20.000Z</time>
        <extensions>
          <ns3:TrackPointExtension>
            <ns3:hr>128</ns3:hr>
            <ns3:cad>54</ns3:cad>
          </ns3:TrackPointExtension>
        </extensions>
      </trkpt>
      <trkpt lat="45.33686525188386440277099609375" lon="-70.9602449275553226470947265625">
        <ele>826.79998779296875</ele>
        <time>2026-08-21T18:06:21.000Z</time>
        <extensions>
          <ns3:TrackPointExtension>
            <ns3:hr>127</ns3:hr>
            <ns3:cad>54</ns3:cad>
          </ns3:TrackPointExtension>
        </extensions>
      </trkpt>
      <trkpt lat="45.33685795962810516357421875" lon="-70.9602690674364566802978515625">
        <ele>826.79998779296875</ele>
        <time>2026-08-21T18:06:22.000Z</time>
        <extensions>
          <ns3:TrackPointExtension>
            <ns3:hr>128</ns3:hr>
            <ns3:cad>54</ns3:cad>
          </ns3:TrackPointExtension>
        </extensions>
      </trkpt>
      <trkpt lat="45.33685217611491680145263671875" lon="-70.9602942131459712982177734375">
        <ele>826.5999755859375</ele>
        <time>2026-08-21T18:06:23.000Z</time>
        <extensions>
          <ns3:TrackPointExtension>
            <ns3:hr>128</ns3:hr>
            <ns3:cad>53</ns3:cad>
          </ns3:TrackPointExtension>
        </extensions>
      </trkpt>
      <trkpt lat="45.336844883859157562255859375" lon="-70.96032011322677135467529296875">
        <ele>826.5999755859375</ele>
        <time>2026-08-21T18:06:24.000Z</time>
        <extensions>
          <ns3:TrackPointExtension>
            <ns3:hr>128</ns3:hr>
            <ns3:cad>53</ns3:cad>
          </ns3:TrackPointExtension>
        </extensions>
      </trkpt>
      <trkpt lat="45.3368385136127471923828125" lon="-70.96034995280206203460693359375">
        <ele>826.4000244140625</ele>
        <time>2026-08-21T18:06:25.000Z</time>
        <extensions>
          <ns3:TrackPointExtension>
            <ns3:hr>128</ns3:hr>
            <ns3:cad>53</ns3:cad>
          </ns3:TrackPointExtension>
        </extensions>
      </trkpt>
      <trkpt lat="45.33683457411825656890869140625" lon="-70.960377193987369537353515625">
        <ele>826.4000244140625</ele>
        <time>2026-08-21T18:06:26.000Z</time>
        <extensions>
          <ns3:TrackPointExtension>
            <ns3:hr>128</ns3:hr>
            <ns3:cad>75</ns3:cad>
          </ns3:TrackPointExtension>
        </extensions>
      </trkpt>
      <trkpt lat="45.336829461157321929931640625" lon="-70.96040141768753528594970703125">
        <ele>826.4000244140625</ele>
        <time>2026-08-21T18:06:27.000Z</time>
        <extensions>
          <ns3:TrackPointExtension>
            <ns3:hr>127</ns3:hr>
            <ns3:cad>75</ns3:cad>
          </ns3:TrackPointExtension>
        </extensions>
      </trkpt>
      <trkpt lat="45.3368197381496429443359375" lon="-70.96042874269187450408935546875">
        <ele>826.20001220703125</ele>
        <time>2026-08-21T18:06:28.000Z</time>
        <extensions>
          <ns3:TrackPointExtension>
            <ns3:hr>128</ns3:hr>
            <ns3:cad>75</ns3:cad>
          </ns3:TrackPointExtension>
        </extensions>
      </trkpt>
      <trkpt lat="45.33681144006550312042236328125" lon="-70.96045372076332569122314453125">
        <ele>826.20001220703125</ele>
        <time>2026-08-21T18:06:29.000Z</time>
        <extensions>
          <ns3:TrackPointExtension>
            <ns3:hr>127</ns3:hr>
            <ns3:cad>75</ns3:cad>
          </ns3:TrackPointExtension>
        </extensions>
      </trkpt>
      <trkpt lat="45.3368115238845348358154296875" lon="-70.96048506908118724822998046875">
        <ele>826.20001220703125</ele>
        <time>2026-08-21T18:06:30.000Z</time>
        <extensions>
          <ns3:TrackPointExtension>
            <ns3:hr>128</ns3:hr>
            <ns3:cad>75</ns3:cad>
          </ns3:TrackPointExtension>
        </extensions>
      </trkpt>
      <trkpt lat="45.3368090093135833740234375" lon="-70.96051624976098537445068359375">
        <ele>826</ele>
        <time>2026-08-21T18:06:31.000Z</time>
        <extensions>
          <ns3:TrackPointExtension>
            <ns3:hr>127</ns3:hr>
            <ns3:cad>73</ns3:cad>
          </ns3:TrackPointExtension>
        </extensions>
      </trkpt>
      <trkpt lat="45.33680875785648822784423828125" lon="-70.96054273657500743865966796875">
        <ele>826</ele>
        <time>2026-08-21T18:06:32.000Z</time>
        <extensions>
          <ns3:TrackPointExtension>
            <ns3:hr>127</ns3:hr>
            <ns3:cad>73</ns3:cad>
          </ns3:TrackPointExtension>
        </extensions>
      </trkpt>
      <trkpt lat="45.336808674037456512451171875" lon="-70.9605698101222515106201171875">
        <ele>825.79998779296875</ele>
        <time>2026-08-21T18:06:33.000Z</time>
        <extensions>
          <ns3:TrackPointExtension>
            <ns3:hr>127</ns3:hr>
            <ns3:cad>73</ns3:cad>
          </ns3:TrackPointExtension>
        </extensions>
      </trkpt>
      <trkpt lat="45.3368081711232662200927734375" lon="-70.9605895914137363433837890625">
        <ele>825.79998779296875</ele>
        <time>2026-08-21T18:06:34.000Z</time>
        <extensions>
          <ns3:TrackPointExtension>
            <ns3:hr>127</ns3:hr>
            <ns3:cad>73</ns3:cad>
          </ns3:TrackPointExtension>
        </extensions>
      </trkpt>
      <trkpt lat="45.33680699765682220458984375" lon="-70.96061130054295063018798828125">
        <ele>825.79998779296875</ele>
        <time>2026-08-21T18:06:35.000Z</time>
        <extensions>
          <ns3:TrackPointExtension>
            <ns3:hr>127</ns3:hr>
            <ns3:cad>73</ns3:cad>
          </ns3:TrackPointExtension>
        </extensions>
      </trkpt>
      <trkpt lat="45.336802639067173004150390625" lon="-70.9606258012354373931884765625">
        <ele>825.79998779296875</ele>
        <time>2026-08-21T18:06:36.000Z</time>
        <extensions>
          <ns3:TrackPointExtension>
            <ns3:hr>128</ns3:hr>
            <ns3:cad>0</ns3:cad>
          </ns3:TrackPointExtension>
        </extensions>
      </trkpt>
      <trkpt lat="45.33679450862109661102294921875" lon="-70.9606355242431163787841796875">
        <ele>825.5999755859375</ele>
        <time>2026-08-21T18:06:37.000Z</time>
        <extensions>
          <ns3:TrackPointExtension>
            <ns3:hr>127</ns3:hr>
            <ns3:cad>0</ns3:cad>
          </ns3:TrackPointExtension>
        </extensions>
      </trkpt>
      <trkpt lat="45.33678419888019561767578125" lon="-70.960647761821746826171875">
        <ele>825.5999755859375</ele>
        <time>2026-08-21T18:06:38.000Z</time>
        <extensions>
          <ns3:TrackPointExtension>
            <ns3:hr>127</ns3:hr>
            <ns3:cad>0</ns3:cad>
          </ns3:TrackPointExtension>
        </extensions>
      </trkpt>
      <trkpt lat="45.33677657134830951690673828125" lon="-70.96066209487617015838623046875">
        <ele>825.5999755859375</ele>
        <time>2026-08-21T18:06:39.000Z</time>
        <extensions>
          <ns3:TrackPointExtension>
            <ns3:hr>127</ns3:hr>
            <ns3:cad>0</ns3:cad>
          </ns3:TrackPointExtension>
        </extensions>
      </trkpt>
      <trkpt lat="45.3367689438164234161376953125" lon="-70.960679613053798675537109375">
        <ele>825.5999755859375</ele>
        <time>2026-08-21T18:06:40.000Z</time>
        <extensions>
          <ns3:TrackPointExtension>
            <ns3:hr>127</ns3:hr>
            <ns3:cad>0</ns3:cad>
          </ns3:TrackPointExtension>
        </extensions>
      </trkpt>
      <trkpt lat="45.3367642499506473541259765625" lon="-70.96070048399269580841064453125">
        <ele>825.79998779296875</ele>
        <time>2026-08-21T18:06:41.000Z</time>
        <extensions>
          <ns3:TrackPointExtension>
            <ns3:hr>127</ns3:hr>
            <ns3:cad>55</ns3:cad>
          </ns3:TrackPointExtension>
        </extensions>
      </trkpt>
      <trkpt lat="45.3367605619132518768310546875" lon="-70.960721187293529510498046875">
        <ele>825.79998779296875</ele>
        <time>2026-08-21T18:06:42.000Z</time>
        <extensions>
          <ns3:TrackPointExtension>
            <ns3:hr>126</ns3:hr>
            <ns3:cad>55</ns3:cad>
          </ns3:TrackPointExtension>
        </extensions>
      </trkpt>
      <trkpt lat="45.3367582149803638458251953125" lon="-70.96074096858501434326171875">
        <ele>825.79998779296875</ele>
        <time>2026-08-21T18:06:43.000Z</time>
        <extensions>
          <ns3:TrackPointExtension>
            <ns3:hr>126</ns3:hr>
            <ns3:cad>56</ns3:cad>
          </ns3:TrackPointExtension>
        </extensions>
      </trkpt>
      <trkpt lat="45.33675494603812694549560546875" lon="-70.960766114294528961181640625">
        <ele>825.79998779296875</ele>
        <time>2026-08-21T18:06:44.000Z</time>
        <extensions>
          <ns3:TrackPointExtension>
            <ns3:hr>126</ns3:hr>
            <ns3:cad>56</ns3:cad>
          </ns3:TrackPointExtension>
        </extensions>
      </trkpt>
      <trkpt lat="45.3367545269429683685302734375" lon="-70.96079134382307529449462890625">
        <ele>826</ele>
        <time>2026-08-21T18:06:45.000Z</time>
        <extensions>
          <ns3:TrackPointExtension>
            <ns3:hr>125</ns3:hr>
            <ns3:cad>56</ns3:cad>
          </ns3:TrackPointExtension>
        </extensions>
      </trkpt>
      <trkpt lat="45.33675544895231723785400390625" lon="-70.96081431023776531219482421875">
        <ele>826</ele>
        <time>2026-08-21T18:06:46.000Z</time>
        <extensions>
          <ns3:TrackPointExtension>
            <ns3:hr>125</ns3:hr>
            <ns3:cad>55</ns3:cad>
          </ns3:TrackPointExtension>
        </extensions>
      </trkpt>
      <trkpt lat="45.3367553651332855224609375" lon="-70.96083861775696277618408203125">
        <ele>826</ele>
        <time>2026-08-21T18:06:47.000Z</time>
        <extensions>
          <ns3:TrackPointExtension>
            <ns3:hr>124</ns3:hr>
            <ns3:cad>55</ns3:cad>
          </ns3:TrackPointExtension>
        </extensions>
      </trkpt>
      <trkpt lat="45.33675008453428745269775390625" lon="-70.9608615003526210784912109375">
        <ele>826.20001220703125</ele>
        <time>2026-08-21T18:06:48.000Z</time>
        <extensions>
          <ns3:TrackPointExtension>
            <ns3:hr>124</ns3:hr>
            <ns3:cad>55</ns3:cad>
          </ns3:TrackPointExtension>
        </extensions>
      </trkpt>
      <trkpt lat="45.33674664795398712158203125" lon="-70.9608816169202327728271484375">
        <ele>826.20001220703125</ele>
        <time>2026-08-21T18:06:49.000Z</time>
        <extensions>
          <ns3:TrackPointExtension>
            <ns3:hr>124</ns3:hr>
            <ns3:cad>75</ns3:cad>
          </ns3:TrackPointExtension>
        </extensions>
      </trkpt>
      <trkpt lat="45.33674589358270168304443359375" lon="-70.960903577506542205810546875">
        <ele>826.4000244140625</ele>
        <time>2026-08-21T18:06:50.000Z</time>
        <extensions>
          <ns3:TrackPointExtension>
            <ns3:hr>125</ns3:hr>
            <ns3:cad>75</ns3:cad>
          </ns3:TrackPointExtension>
        </extensions>
      </trkpt>
      <trkpt lat="45.33674321137368679046630859375" lon="-70.960918329656124114990234375">
        <ele>826.5999755859375</ele>
        <time>2026-08-21T18:06:51.000Z</time>
        <extensions>
          <ns3:TrackPointExtension>
            <ns3:hr>124</ns3:hr>
            <ns3:cad>75</ns3:cad>
          </ns3:TrackPointExtension>
        </extensions>
      </trkpt>
      <trkpt lat="45.3367421217262744903564453125" lon="-70.960934422910213470458984375">
        <ele>826.79998779296875</ele>
        <time>2026-08-21T18:06:52.000Z</time>
        <extensions>
          <ns3:TrackPointExtension>
            <ns3:hr>124</ns3:hr>
            <ns3:cad>75</ns3:cad>
          </ns3:TrackPointExtension>
        </extensions>
      </trkpt>
      <trkpt lat="45.33673834986984729766845703125" lon="-70.960952527821063995361328125">
        <ele>826.79998779296875</ele>
        <time>2026-08-21T18:06:53.000Z</time>
        <extensions>
          <ns3:TrackPointExtension>
            <ns3:hr>125</ns3:hr>
            <ns3:cad>75</ns3:cad>
          </ns3:TrackPointExtension>
        </extensions>
      </trkpt>
      <trkpt lat="45.33673449419438838958740234375" lon="-70.96096602268517017364501953125">
        <ele>827</ele>
        <time>2026-08-21T18:06:54.000Z</time>
        <extensions>
          <ns3:TrackPointExtension>
            <ns3:hr>125</ns3:hr>
            <ns3:cad>75</ns3:cad>
          </ns3:TrackPointExtension>
        </extensions>
      </trkpt>
      <trkpt lat="45.336729548871517181396484375" lon="-70.960985384881496429443359375">
        <ele>827</ele>
        <time>2026-08-21T18:06:55.000Z</time>
        <extensions>
          <ns3:TrackPointExtension>
            <ns3:hr>125</ns3:hr>
            <ns3:cad>75</ns3:cad>
          </ns3:TrackPointExtension>
        </extensions>
      </trkpt>
      <trkpt lat="45.33672460354864597320556640625" lon="-70.9610031545162200927734375">
        <ele>827.20001220703125</ele>
        <time>2026-08-21T18:06:56.000Z</time>
        <extensions>
          <ns3:TrackPointExtension>
            <ns3:hr>126</ns3:hr>
            <ns3:cad>75</ns3:cad>
          </ns3:TrackPointExtension>
        </extensions>
      </trkpt>
      <trkpt lat="45.33671873621642589569091796875" lon="-70.9610165655612945556640625">
        <ele>827.20001220703125</ele>
        <time>2026-08-21T18:06:57.000Z</time>
        <extensions>
          <ns3:TrackPointExtension>
            <ns3:hr>127</ns3:hr>
            <ns3:cad>75</ns3:cad>
          </ns3:TrackPointExtension>
        </extensions>
      </trkpt>
      <trkpt lat="45.33671471290290355682373046875" lon="-70.96103173680603504180908203125">
        <ele>827.20001220703125</ele>
        <time>2026-08-21T18:06:58.000Z</time>
        <extensions>
          <ns3:TrackPointExtension>
            <ns3:hr>128</ns3:hr>
            <ns3:cad>75</ns3:cad>
          </ns3:TrackPointExtension>
        </extensions>
      </trkpt>
      <trkpt lat="45.33670783974230289459228515625" lon="-70.9610487520694732666015625">
        <ele>827.20001220703125</ele>
        <time>2026-08-21T18:06:59.000Z</time>
        <extensions>
          <ns3:TrackPointExtension>
            <ns3:hr>129</ns3:hr>
            <ns3:cad>75</ns3:cad>
          </ns3:TrackPointExtension>
        </extensions>
      </trkpt>
      <trkpt lat="45.3366992063820362091064453125" lon="-70.9610675275325775146484375">
        <ele>827.4000244140625</ele>
        <time>2026-08-21T18:07:00.000Z</time>
        <extensions>
          <ns3:TrackPointExtension>
            <ns3:hr>129</ns3:hr>
            <ns3:cad>75</ns3:cad>
          </ns3:TrackPointExtension>
        </extensions>
      </trkpt>
      <trkpt lat="45.33668571151793003082275390625" lon="-70.96108789555728435516357421875">
        <ele>827.4000244140625</ele>
        <time>2026-08-21T18:07:01.000Z</time>
        <extensions>
          <ns3:TrackPointExtension>
            <ns3:hr>129</ns3:hr>
            <ns3:cad>75</ns3:cad>
          </ns3:TrackPointExtension>
        </extensions>
      </trkpt>
      <trkpt lat="45.3366800956428050994873046875" lon="-70.96110667102038860321044921875">
        <ele>827.4000244140625</ele>
        <time>2026-08-21T18:07:02.000Z</time>
        <extensions>
          <ns3:TrackPointExtension>
            <ns3:hr>130</ns3:hr>
            <ns3:cad>75</ns3:cad>
          </ns3:TrackPointExtension>
        </extensions>
      </trkpt>
      <trkpt lat="45.336675904691219329833984375" lon="-70.9611250273883342742919921875">
        <ele>827.5999755859375</ele>
        <time>2026-08-21T18:07:03.000Z</time>
        <extensions>
          <ns3:TrackPointExtension>
            <ns3:hr>130</ns3:hr>
            <ns3:cad>75</ns3:cad>
          </ns3:TrackPointExtension>
        </extensions>
      </trkpt>
      <trkpt lat="45.33667112700641155242919921875" lon="-70.96114438958466053009033203125">
        <ele>827.5999755859375</ele>
        <time>2026-08-21T18:07:04.000Z</time>
        <extensions>
          <ns3:TrackPointExtension>
            <ns3:hr>130</ns3:hr>
            <ns3:cad>75</ns3:cad>
          </ns3:TrackPointExtension>
        </extensions>
      </trkpt>
      <trkpt lat="45.336663834750652313232421875" lon="-70.96116417087614536285400390625">
        <ele>827.79998779296875</ele>
        <time>2026-08-21T18:07:05.000Z</time>
        <extensions>
          <ns3:TrackPointExtension>
            <ns3:hr>130</ns3:hr>
            <ns3:cad>75</ns3:cad>
          </ns3:TrackPointExtension>
        </extensions>
      </trkpt>
      <trkpt lat="45.33665520139038562774658203125" lon="-70.9611853770911693572998046875">
        <ele>827.79998779296875</ele>
        <time>2026-08-21T18:07:06.000Z</time>
        <extensions>
          <ns3:TrackPointExtension>
            <ns3:hr>131</ns3:hr>
            <ns3:cad>75</ns3:cad>
          </ns3:TrackPointExtension>
        </extensions>
      </trkpt>
      <trkpt lat="45.3366479091346263885498046875" lon="-70.9612070024013519287109375">
        <ele>827.79998779296875</ele>
        <time>2026-08-21T18:07:07.000Z</time>
        <extensions>
          <ns3:TrackPointExtension>
            <ns3:hr>131</ns3:hr>
            <ns3:cad>75</ns3:cad>
          </ns3:TrackPointExtension>
        </extensions>
      </trkpt>
      <trkpt lat="45.3366398625075817108154296875" lon="-70.9612276218831539154052734375">
        <ele>827.79998779296875</ele>
        <time>2026-08-21T18:07:08.000Z</time>
        <extensions>
          <ns3:TrackPointExtension>
            <ns3:hr>131</ns3:hr>
            <ns3:cad>75</ns3:cad>
          </ns3:TrackPointExtension>
        </extensions>
      </trkpt>
      <trkpt lat="45.33663542009890079498291015625" lon="-70.96124279312789440155029296875">
        <ele>827.79998779296875</ele>
        <time>2026-08-21T18:07:09.000Z</time>
        <extensions>
          <ns3:TrackPointExtension>
            <ns3:hr>131</ns3:hr>
            <ns3:cad>54</ns3:cad>
          </ns3:TrackPointExtension>
        </extensions>
      </trkpt>
      <trkpt lat="45.33662863075733184814453125" lon="-70.96126290969550609588623046875">
        <ele>827.79998779296875</ele>
        <time>2026-08-21T18:07:10.000Z</time>
        <extensions>
          <ns3:TrackPointExtension>
            <ns3:hr>131</ns3:hr>
            <ns3:cad>54</ns3:cad>
          </ns3:TrackPointExtension>
        </extensions>
      </trkpt>
      <trkpt lat="45.3366214223206043243408203125" lon="-70.961275398731231689453125">
        <ele>827.79998779296875</ele>
        <time>2026-08-21T18:07:11.000Z</time>
        <extensions>
          <ns3:TrackPointExtension>
            <ns3:hr>130</ns3:hr>
            <ns3:cad>53</ns3:cad>
          </ns3:TrackPointExtension>
        </extensions>
      </trkpt>
      <trkpt lat="45.336612202227115631103515625" lon="-70.961282439529895782470703125">
        <ele>828</ele>
        <time>2026-08-21T18:07:12.000Z</time>
        <extensions>
          <ns3:TrackPointExtension>
            <ns3:hr>131</ns3:hr>
            <ns3:cad>53</ns3:cad>
          </ns3:TrackPointExtension>
        </extensions>
      </trkpt>
      <trkpt lat="45.33659904263913631439208984375" lon="-70.96129325218498706817626953125">
        <ele>827.79998779296875</ele>
        <time>2026-08-21T18:07:13.000Z</time>
        <extensions>
          <ns3:TrackPointExtension>
            <ns3:hr>131</ns3:hr>
            <ns3:cad>53</ns3:cad>
          </ns3:TrackPointExtension>
        </extensions>
      </trkpt>
      <trkpt lat="45.3365890681743621826171875" lon="-70.9613067470490932464599609375">
        <ele>827.79998779296875</ele>
        <time>2026-08-21T18:07:14.000Z</time>
        <extensions>
          <ns3:TrackPointExtension>
            <ns3:hr>132</ns3:hr>
            <ns3:cad>57</ns3:cad>
          </ns3:TrackPointExtension>
        </extensions>
      </trkpt>
      <trkpt lat="45.33658328466117382049560546875" lon="-70.961318649351596832275390625">
        <ele>827.79998779296875</ele>
        <time>2026-08-21T18:07:15.000Z</time>
        <extensions>
          <ns3:TrackPointExtension>
            <ns3:hr>133</ns3:hr>
            <ns3:cad>57</ns3:cad>
          </ns3:TrackPointExtension>
        </extensions>
      </trkpt>
      <trkpt lat="45.3365721367299556732177734375" lon="-70.961329378187656402587890625">
        <ele>827.79998779296875</ele>
        <time>2026-08-21T18:07:16.000Z</time>
        <extensions>
          <ns3:TrackPointExtension>
            <ns3:hr>134</ns3:hr>
            <ns3:cad>57</ns3:cad>
          </ns3:TrackPointExtension>
        </extensions>
      </trkpt>
      <trkpt lat="45.33655964769423007965087890625" lon="-70.96133901737630367279052734375">
        <ele>827.79998779296875</ele>
        <time>2026-08-21T18:07:17.000Z</time>
        <extensions>
          <ns3:TrackPointExtension>
            <ns3:hr>135</ns3:hr>
            <ns3:cad>57</ns3:cad>
          </ns3:TrackPointExtension>
        </extensions>
      </trkpt>
      <trkpt lat="45.33654590137302875518798828125" lon="-70.961348153650760650634765625">
        <ele>827.79998779296875</ele>
        <time>2026-08-21T18:07:18.000Z</time>
        <extensions>
          <ns3:TrackPointExtension>
            <ns3:hr>136</ns3:hr>
            <ns3:cad>57</ns3:cad>
          </ns3:TrackPointExtension>
        </extensions>
      </trkpt>
      <trkpt lat="45.33653366379439830780029296875" lon="-70.9613624028861522674560546875">
        <ele>828</ele>
        <time>2026-08-21T18:07:19.000Z</time>
        <extensions>
          <ns3:TrackPointExtension>
            <ns3:hr>136</ns3:hr>
            <ns3:cad>57</ns3:cad>
          </ns3:TrackPointExtension>
        </extensions>
      </trkpt>
      <trkpt lat="45.33652092330157756805419921875" lon="-70.96136516891419887542724609375">
        <ele>828</ele>
        <time>2026-08-21T18:07:20.000Z</time>
        <extensions>
          <ns3:TrackPointExtension>
            <ns3:hr>136</ns3:hr>
            <ns3:cad>57</ns3:cad>
          </ns3:TrackPointExtension>
        </extensions>
      </trkpt>
      <trkpt lat="45.33651086501777172088623046875" lon="-70.9613714553415775299072265625">
        <ele>828</ele>
        <time>2026-08-21T18:07:21.000Z</time>
        <extensions>
          <ns3:TrackPointExtension>
            <ns3:hr>137</ns3:hr>
            <ns3:cad>57</ns3:cad>
          </ns3:TrackPointExtension>
        </extensions>
      </trkpt>
      <trkpt lat="45.3364993818104267120361328125" lon="-70.96138738095760345458984375">
        <ele>828.20001220703125</ele>
        <time>2026-08-21T18:07:22.000Z</time>
        <extensions>
          <ns3:TrackPointExtension>
            <ns3:hr>137</ns3:hr>
            <ns3:cad>57</ns3:cad>
          </ns3:TrackPointExtension>
        </extensions>
      </trkpt>
      <trkpt lat="45.336486808955669403076171875" lon="-70.96140774898231029510498046875">
        <ele>828.20001220703125</ele>
        <time>2026-08-21T18:07:23.000Z</time>
        <extensions>
          <ns3:TrackPointExtension>
            <ns3:hr>136</ns3:hr>
            <ns3:cad>57</ns3:cad>
          </ns3:TrackPointExtension>
        </extensions>
      </trkpt>
      <trkpt lat="45.33647851087152957916259765625" lon="-70.961417220532894134521484375">
        <ele>828.4000244140625</ele>
        <time>2026-08-21T18:07:24.000Z</time>
        <extensions>
          <ns3:TrackPointExtension>
            <ns3:hr>136</ns3:hr>
            <ns3:cad>57</ns3:cad>
          </ns3:TrackPointExtension>
        </extensions>
      </trkpt>
      <trkpt lat="45.3364722244441509246826171875" lon="-70.96143163740634918212890625">
        <ele>828.5999755859375</ele>
        <time>2026-08-21T18:07:25.000Z</time>
        <extensions>
          <ns3:TrackPointExtension>
            <ns3:hr>136</ns3:hr>
            <ns3:cad>57</ns3:cad>
          </ns3:TrackPointExtension>
        </extensions>
      </trkpt>
      <trkpt lat="45.33646308816969394683837890625" lon="-70.96143909730017185211181640625">
        <ele>828.79998779296875</ele>
        <time>2026-08-21T18:07:26.000Z</time>
        <extensions>
          <ns3:TrackPointExtension>
            <ns3:hr>136</ns3:hr>
            <ns3:cad>54</ns3:cad>
          </ns3:TrackPointExtension>
        </extensions>
      </trkpt>
      <trkpt lat="45.33645336516201496124267578125" lon="-70.9614522568881511688232421875">
        <ele>829.20001220703125</ele>
        <time>2026-08-21T18:07:27.000Z</time>
        <extensions>
          <ns3:TrackPointExtension>
            <ns3:hr>136</ns3:hr>
            <ns3:cad>51</ns3:cad>
          </ns3:TrackPointExtension>
        </extensions>
      </trkpt>
      <trkpt lat="45.33644489943981170654296875" lon="-70.96146809868514537811279296875">
        <ele>829.4000244140625</ele>
        <time>2026-08-21T18:07:28.000Z</time>
        <extensions>
          <ns3:TrackPointExtension>
            <ns3:hr>136</ns3:hr>
            <ns3:cad>51</ns3:cad>
          </ns3:TrackPointExtension>
        </extensions>
      </trkpt>
      <trkpt lat="45.33643417060375213623046875" lon="-70.9614794142544269561767578125">
        <ele>829.79998779296875</ele>
        <time>2026-08-21T18:07:29.000Z</time>
        <extensions>
          <ns3:TrackPointExtension>
            <ns3:hr>136</ns3:hr>
            <ns3:cad>51</ns3:cad>
          </ns3:TrackPointExtension>
        </extensions>
      </trkpt>
      <trkpt lat="45.33642604015767574310302734375" lon="-70.9614924900233745574951171875">
        <ele>829.79998779296875</ele>
        <time>2026-08-21T18:07:30.000Z</time>
        <extensions>
          <ns3:TrackPointExtension>
            <ns3:hr>136</ns3:hr>
            <ns3:cad>51</ns3:cad>
          </ns3:TrackPointExtension>
        </extensions>
      </trkpt>
      <trkpt lat="45.33642034046351909637451171875" lon="-70.96150003373622894287109375">
        <ele>830</ele>
        <time>2026-08-21T18:07:31.000Z</time>
        <extensions>
          <ns3:TrackPointExtension>
            <ns3:hr>136</ns3:hr>
            <ns3:cad>52</ns3:cad>
          </ns3:TrackPointExtension>
        </extensions>
      </trkpt>
      <trkpt lat="45.33641095273196697235107421875" lon="-70.961510427296161651611328125">
        <ele>830.20001220703125</ele>
        <time>2026-08-21T18:07:32.000Z</time>
        <extensions>
          <ns3:TrackPointExtension>
            <ns3:hr>135</ns3:hr>
            <ns3:cad>53</ns3:cad>
          </ns3:TrackPointExtension>
        </extensions>
      </trkpt>
      <trkpt lat="45.33640122972428798675537109375" lon="-70.9615181386470794677734375">
        <ele>830.4000244140625</ele>
        <time>2026-08-21T18:07:33.000Z</time>
        <extensions>
          <ns3:TrackPointExtension>
            <ns3:hr>135</ns3:hr>
            <ns3:cad>53</ns3:cad>
          </ns3:TrackPointExtension>
        </extensions>
      </trkpt>
      <trkpt lat="45.3363884054124355316162109375" lon="-70.9615260176360607147216796875">
        <ele>830.5999755859375</ele>
        <time>2026-08-21T18:07:34.000Z</time>
        <extensions>
          <ns3:TrackPointExtension>
            <ns3:hr>136</ns3:hr>
            <ns3:cad>53</ns3:cad>
          </ns3:TrackPointExtension>
        </extensions>
      </trkpt>
      <trkpt lat="45.33638077788054943084716796875" lon="-70.961534567177295684814453125">
        <ele>830.79998779296875</ele>
        <time>2026-08-21T18:07:35.000Z</time>
        <extensions>
          <ns3:TrackPointExtension>
            <ns3:hr>136</ns3:hr>
            <ns3:cad>53</ns3:cad>
          </ns3:TrackPointExtension>
        </extensions>
      </trkpt>
      <trkpt lat="45.33636711537837982177734375" lon="-70.96154705621302127838134765625">
        <ele>830.79998779296875</ele>
        <time>2026-08-21T18:07:36.000Z</time>
        <extensions>
          <ns3:TrackPointExtension>
            <ns3:hr>136</ns3:hr>
            <ns3:cad>53</ns3:cad>
          </ns3:TrackPointExtension>
        </extensions>
      </trkpt>
      <trkpt lat="45.33635110594332218170166015625" lon="-70.9615556895732879638671875">
        <ele>831</ele>
        <time>2026-08-21T18:07:37.000Z</time>
        <extensions>
          <ns3:TrackPointExtension>
            <ns3:hr>136</ns3:hr>
            <ns3:cad>53</ns3:cad>
          </ns3:TrackPointExtension>
        </extensions>
      </trkpt>
      <trkpt lat="45.33633870072662830352783203125" lon="-70.961564742028713226318359375">
        <ele>831.20001220703125</ele>
        <time>2026-08-21T18:07:38.000Z</time>
        <extensions>
          <ns3:TrackPointExtension>
            <ns3:hr>137</ns3:hr>
            <ns3:cad>53</ns3:cad>
          </ns3:TrackPointExtension>
        </extensions>
      </trkpt>
      <trkpt lat="45.33632755279541015625" lon="-70.96157102845609188079833984375">
        <ele>831.20001220703125</ele>
        <time>2026-08-21T18:07:39.000Z</time>
        <extensions>
          <ns3:TrackPointExtension>
            <ns3:hr>136</ns3:hr>
            <ns3:cad>50</ns3:cad>
          </ns3:TrackPointExtension>
        </extensions>
      </trkpt>
      <trkpt lat="45.33631271682679653167724609375" lon="-70.961584188044071197509765625">
        <ele>831.4000244140625</ele>
        <time>2026-08-21T18:07:40.000Z</time>
        <extensions>
          <ns3:TrackPointExtension>
            <ns3:hr>137</ns3:hr>
            <ns3:cad>50</ns3:cad>
          </ns3:TrackPointExtension>
        </extensions>
      </trkpt>
      <trkpt lat="45.336301736533641815185546875" lon="-70.96159391105175018310546875">
        <ele>831.5999755859375</ele>
        <time>2026-08-21T18:07:41.000Z</time>
        <extensions>
          <ns3:TrackPointExtension>
            <ns3:hr>138</ns3:hr>
            <ns3:cad>52</ns3:cad>
          </ns3:TrackPointExtension>
        </extensions>
      </trkpt>
      <trkpt lat="45.336290337145328521728515625" lon="-70.96160757355391979217529296875">
        <ele>831.79998779296875</ele>
        <time>2026-08-21T18:07:42.000Z</time>
        <extensions>
          <ns3:TrackPointExtension>
            <ns3:hr>138</ns3:hr>
            <ns3:cad>52</ns3:cad>
          </ns3:TrackPointExtension>
        </extensions>
      </trkpt>
      <trkpt lat="45.33628086559474468231201171875" lon="-70.96162064932286739349365234375">
        <ele>831.79998779296875</ele>
        <time>2026-08-21T18:07:43.000Z</time>
        <extensions>
          <ns3:TrackPointExtension>
            <ns3:hr>138</ns3:hr>
            <ns3:cad>52</ns3:cad>
          </ns3:TrackPointExtension>
        </extensions>
      </trkpt>
      <trkpt lat="45.33627332188189029693603515625" lon="-70.961634479463100433349609375">
        <ele>831.79998779296875</ele>
        <time>2026-08-21T18:07:44.000Z</time>
        <extensions>
          <ns3:TrackPointExtension>
            <ns3:hr>138</ns3:hr>
            <ns3:cad>51</ns3:cad>
          </ns3:TrackPointExtension>
        </extensions>
      </trkpt>
      <trkpt lat="45.3362583182752132415771484375" lon="-70.96164696849882602691650390625">
        <ele>832</ele>
        <time>2026-08-21T18:07:45.000Z</time>
        <extensions>
          <ns3:TrackPointExtension>
            <ns3:hr>138</ns3:hr>
            <ns3:cad>51</ns3:cad>
          </ns3:TrackPointExtension>
        </extensions>
      </trkpt>
      <trkpt lat="45.336244404315948486328125" lon="-70.961656607687473297119140625">
        <ele>832</ele>
        <time>2026-08-21T18:07:46.000Z</time>
        <extensions>
          <ns3:TrackPointExtension>
            <ns3:hr>138</ns3:hr>
            <ns3:cad>54</ns3:cad>
          </ns3:TrackPointExtension>
        </extensions>
      </trkpt>
      <trkpt lat="45.33623560331761837005615234375" lon="-70.96167571842670440673828125">
        <ele>832.20001220703125</ele>
        <time>2026-08-21T18:07:47.000Z</time>
        <extensions>
          <ns3:TrackPointExtension>
            <ns3:hr>138</ns3:hr>
            <ns3:cad>54</ns3:cad>
          </ns3:TrackPointExtension>
        </extensions>
      </trkpt>
      <trkpt lat="45.3362264670431613922119140625" lon="-70.9616898000240325927734375">
        <ele>832.20001220703125</ele>
        <time>2026-08-21T18:07:48.000Z</time>
        <extensions>
          <ns3:TrackPointExtension>
            <ns3:hr>138</ns3:hr>
            <ns3:cad>54</ns3:cad>
          </ns3:TrackPointExtension>
        </extensions>
      </trkpt>
      <trkpt lat="45.336214564740657806396484375" lon="-70.96170061267912387847900390625">
        <ele>832.4000244140625</ele>
        <time>2026-08-21T18:07:49.000Z</time>
        <extensions>
          <ns3:TrackPointExtension>
            <ns3:hr>138</ns3:hr>
            <ns3:cad>52</ns3:cad>
          </ns3:TrackPointExtension>
        </extensions>
      </trkpt>
      <trkpt lat="45.33620274625718593597412109375" lon="-70.96171519719064235687255859375">
        <ele>832.5999755859375</ele>
        <time>2026-08-21T18:07:50.000Z</time>
        <extensions>
          <ns3:TrackPointExtension>
            <ns3:hr>139</ns3:hr>
            <ns3:cad>52</ns3:cad>
          </ns3:TrackPointExtension>
        </extensions>
      </trkpt>
      <trkpt lat="45.336197130382061004638671875" lon="-70.96172592602670192718505859375">
        <ele>832.5999755859375</ele>
        <time>2026-08-21T18:07:51.000Z</time>
        <extensions>
          <ns3:TrackPointExtension>
            <ns3:hr>139</ns3:hr>
            <ns3:cad>52</ns3:cad>
          </ns3:TrackPointExtension>
        </extensions>
      </trkpt>
      <trkpt lat="45.33618606626987457275390625" lon="-70.96174218691885471343994140625">
        <ele>832.79998779296875</ele>
        <time>2026-08-21T18:07:52.000Z</time>
        <extensions>
          <ns3:TrackPointExtension>
            <ns3:hr>138</ns3:hr>
            <ns3:cad>50</ns3:cad>
          </ns3:TrackPointExtension>
        </extensions>
      </trkpt>
      <trkpt lat="45.3361781872808933258056640625" lon="-70.9617550112307071685791015625">
        <ele>832.79998779296875</ele>
        <time>2026-08-21T18:07:53.000Z</time>
        <extensions>
          <ns3:TrackPointExtension>
            <ns3:hr>138</ns3:hr>
            <ns3:cad>50</ns3:cad>
          </ns3:TrackPointExtension>
        </extensions>
      </trkpt>
      <trkpt lat="45.3361704759299755096435546875" lon="-70.9617704339325428009033203125">
        <ele>833</ele>
        <time>2026-08-21T18:07:54.000Z</time>
        <extensions>
          <ns3:TrackPointExtension>
            <ns3:hr>138</ns3:hr>
            <ns3:cad>50</ns3:cad>
          </ns3:TrackPointExtension>
        </extensions>
      </trkpt>
      <trkpt lat="45.33616519533097743988037109375" lon="-70.96178526990115642547607421875">
        <ele>833</ele>
        <time>2026-08-21T18:07:55.000Z</time>
        <extensions>
          <ns3:TrackPointExtension>
            <ns3:hr>139</ns3:hr>
            <ns3:cad>50</ns3:cad>
          </ns3:TrackPointExtension>
        </extensions>
      </trkpt>
      <trkpt lat="45.33615832217037677764892578125" lon="-70.9617942385375499725341796875">
        <ele>833.20001220703125</ele>
        <time>2026-08-21T18:07:56.000Z</time>
        <extensions>
          <ns3:TrackPointExtension>
            <ns3:hr>138</ns3:hr>
            <ns3:cad>50</ns3:cad>
          </ns3:TrackPointExtension>
        </extensions>
      </trkpt>
      <trkpt lat="45.33615044318139553070068359375" lon="-70.961807481944561004638671875">
        <ele>833.4000244140625</ele>
        <time>2026-08-21T18:07:57.000Z</time>
        <extensions>
          <ns3:TrackPointExtension>
            <ns3:hr>138</ns3:hr>
            <ns3:cad>50</ns3:cad>
          </ns3:TrackPointExtension>
        </extensions>
      </trkpt>
      <trkpt lat="45.33614289946854114532470703125" lon="-70.9618150256574153900146484375">
        <ele>833.4000244140625</ele>
        <time>2026-08-21T18:07:58.000Z</time>
        <extensions>
          <ns3:TrackPointExtension>
            <ns3:hr>138</ns3:hr>
            <ns3:cad>50</ns3:cad>
          </ns3:TrackPointExtension>
        </extensions>
      </trkpt>
      <trkpt lat="45.336129404604434967041015625" lon="-70.96182282082736492156982421875">
        <ele>833.5999755859375</ele>
        <time>2026-08-21T18:07:59.000Z</time>
        <extensions>
          <ns3:TrackPointExtension>
            <ns3:hr>139</ns3:hr>
            <ns3:cad>48</ns3:cad>
          </ns3:TrackPointExtension>
        </extensions>
      </trkpt>
      <trkpt lat="45.3361185081303119659423828125" lon="-70.96183036454021930694580078125">
        <ele>833.79998779296875</ele>
        <time>2026-08-21T18:08:00.000Z</time>
        <extensions>
          <ns3:TrackPointExtension>
            <ns3:hr>138</ns3:hr>
            <ns3:cad>48</ns3:cad>
          </ns3:TrackPointExtension>
        </extensions>
      </trkpt>
      <trkpt lat="45.3361081145703792572021484375" lon="-70.96183975227177143096923828125">
        <ele>834</ele>
        <time>2026-08-21T18:08:01.000Z</time>
        <extensions>
          <ns3:TrackPointExtension>
            <ns3:hr>138</ns3:hr>
            <ns3:cad>51</ns3:cad>
          </ns3:TrackPointExtension>
        </extensions>
      </trkpt>
      <trkpt lat="45.33609545789659023284912109375" lon="-70.961849726736545562744140625">
        <ele>834</ele>
        <time>2026-08-21T18:08:02.000Z</time>
        <extensions>
          <ns3:TrackPointExtension>
            <ns3:hr>138</ns3:hr>
            <ns3:cad>51</ns3:cad>
          </ns3:TrackPointExtension>
        </extensions>
      </trkpt>
      <trkpt lat="45.336083136498928070068359375" lon="-70.96185819245874881744384765625">
        <ele>834.20001220703125</ele>
        <time>2026-08-21T18:08:03.000Z</time>
        <extensions>
          <ns3:TrackPointExtension>
            <ns3:hr>139</ns3:hr>
            <ns3:cad>51</ns3:cad>
          </ns3:TrackPointExtension>
        </extensions>
      </trkpt>
      <trkpt lat="45.33607416786253452301025390625" lon="-70.96186858601868152618408203125">
        <ele>834.4000244140625</ele>
        <time>2026-08-21T18:08:04.000Z</time>
        <extensions>
          <ns3:TrackPointExtension>
            <ns3:hr>139</ns3:hr>
            <ns3:cad>51</ns3:cad>
          </ns3:TrackPointExtension>
        </extensions>
      </trkpt>
      <trkpt lat="45.3360635228455066680908203125" lon="-70.96188090741634368896484375">
        <ele>834.5999755859375</ele>
        <time>2026-08-21T18:08:05.000Z</time>
        <extensions>
          <ns3:TrackPointExtension>
            <ns3:hr>139</ns3:hr>
            <ns3:cad>51</ns3:cad>
          </ns3:TrackPointExtension>
        </extensions>
      </trkpt>
      <trkpt lat="45.3360526263713836669921875" lon="-70.9618928097188472747802734375">
        <ele>834.79998779296875</ele>
        <time>2026-08-21T18:08:06.000Z</time>
        <extensions>
          <ns3:TrackPointExtension>
            <ns3:hr>140</ns3:hr>
            <ns3:cad>51</ns3:cad>
          </ns3:TrackPointExtension>
        </extensions>
      </trkpt>
      <trkpt lat="45.3360407240688800811767578125" lon="-70.96190345473587512969970703125">
        <ele>835</ele>
        <time>2026-08-21T18:08:07.000Z</time>
        <extensions>
          <ns3:TrackPointExtension>
            <ns3:hr>140</ns3:hr>
            <ns3:cad>50</ns3:cad>
          </ns3:TrackPointExtension>
        </extensions>
      </trkpt>
      <trkpt lat="45.3360313363373279571533203125" lon="-70.96191301010549068450927734375">
        <ele>835.20001220703125</ele>
        <time>2026-08-21T18:08:08.000Z</time>
        <extensions>
          <ns3:TrackPointExtension>
            <ns3:hr>141</ns3:hr>
            <ns3:cad>50</ns3:cad>
          </ns3:TrackPointExtension>
        </extensions>
      </trkpt>
      <trkpt lat="45.33602203242480754852294921875" lon="-70.9619246609508991241455078125">
        <ele>835.4000244140625</ele>
        <time>2026-08-21T18:08:09.000Z</time>
        <extensions>
          <ns3:TrackPointExtension>
            <ns3:hr>141</ns3:hr>
            <ns3:cad>49</ns3:cad>
          </ns3:TrackPointExtension>
        </extensions>
      </trkpt>
      <trkpt lat="45.33601331524550914764404296875" lon="-70.96193832345306873321533203125">
        <ele>835.4000244140625</ele>
        <time>2026-08-21T18:08:10.000Z</time>
        <extensions>
          <ns3:TrackPointExtension>
            <ns3:hr>141</ns3:hr>
            <ns3:cad>49</ns3:cad>
          </ns3:TrackPointExtension>
        </extensions>
      </trkpt>
      <trkpt lat="45.33600174821913242340087890625" lon="-70.96195022575557231903076171875">
        <ele>835.5999755859375</ele>
        <time>2026-08-21T18:08:11.000Z</time>
        <extensions>
          <ns3:TrackPointExtension>
            <ns3:hr>141</ns3:hr>
            <ns3:cad>49</ns3:cad>
          </ns3:TrackPointExtension>
        </extensions>
      </trkpt>
      <trkpt lat="45.33599420450627803802490234375" lon="-70.961963050067424774169921875">
        <ele>835.5999755859375</ele>
        <time>2026-08-21T18:08:12.000Z</time>
        <extensions>
          <ns3:TrackPointExtension>
            <ns3:hr>141</ns3:hr>
            <ns3:cad>53</ns3:cad>
          </ns3:TrackPointExtension>
        </extensions>
      </trkpt>
      <trkpt lat="45.33598624169826507568359375" lon="-70.96197520382702350616455078125">
        <ele>835.79998779296875</ele>
        <time>2026-08-21T18:08:13.000Z</time>
        <extensions>
          <ns3:TrackPointExtension>
            <ns3:hr>142</ns3:hr>
            <ns3:cad>53</ns3:cad>
          </ns3:TrackPointExtension>
        </extensions>
      </trkpt>
      <trkpt lat="45.3359746746718883514404296875" lon="-70.9619890339672565460205078125">
        <ele>836</ele>
        <time>2026-08-21T18:08:14.000Z</time>
        <extensions>
          <ns3:TrackPointExtension>
            <ns3:hr>142</ns3:hr>
            <ns3:cad>53</ns3:cad>
          </ns3:TrackPointExtension>
        </extensions>
      </trkpt>
      <trkpt lat="45.335967801511287689208984375" lon="-70.96199263818562030792236328125">
        <ele>836.4000244140625</ele>
        <time>2026-08-21T18:08:15.000Z</time>
        <extensions>
          <ns3:TrackPointExtension>
            <ns3:hr>142</ns3:hr>
            <ns3:cad>53</ns3:cad>
          </ns3:TrackPointExtension>
        </extensions>
      </trkpt>
      <trkpt lat="45.33595933578908443450927734375" lon="-70.96199749968945980072021484375">
        <ele>836.5999755859375</ele>
        <time>2026-08-21T18:08:16.000Z</time>
        <extensions>
          <ns3:TrackPointExtension>
            <ns3:hr>143</ns3:hr>
            <ns3:cad>53</ns3:cad>
          </ns3:TrackPointExtension>
        </extensions>
      </trkpt>
      <trkpt lat="45.3359501995146274566650390625" lon="-70.962006635963916778564453125">
        <ele>836.79998779296875</ele>
        <time>2026-08-21T18:08:17.000Z</time>
        <extensions>
          <ns3:TrackPointExtension>
            <ns3:hr>143</ns3:hr>
            <ns3:cad>53</ns3:cad>
          </ns3:TrackPointExtension>
        </extensions>
      </trkpt>
      <trkpt lat="45.335936956107616424560546875" lon="-70.9620168618857860565185546875">
        <ele>836.79998779296875</ele>
        <time>2026-08-21T18:08:18.000Z</time>
        <extensions>
          <ns3:TrackPointExtension>
            <ns3:hr>142</ns3:hr>
            <ns3:cad>53</ns3:cad>
          </ns3:TrackPointExtension>
        </extensions>
      </trkpt>
      <trkpt lat="45.33592446707189083099365234375" lon="-70.96202264539897441864013671875">
        <ele>837</ele>
        <time>2026-08-21T18:08:19.000Z</time>
        <extensions>
          <ns3:TrackPointExtension>
            <ns3:hr>142</ns3:hr>
            <ns3:cad>50</ns3:cad>
          </ns3:TrackPointExtension>
        </extensions>
      </trkpt>
      <trkpt lat="45.33591390587389469146728515625" lon="-70.96203002147376537322998046875">
        <ele>837.20001220703125</ele>
        <time>2026-08-21T18:08:20.000Z</time>
        <extensions>
          <ns3:TrackPointExtension>
            <ns3:hr>142</ns3:hr>
            <ns3:cad>50</ns3:cad>
          </ns3:TrackPointExtension>
        </extensions>
      </trkpt>
      <trkpt lat="45.3359059430658817291259765625" lon="-70.96203857101500034332275390625">
        <ele>837.4000244140625</ele>
        <time>2026-08-21T18:08:21.000Z</time>
        <extensions>
          <ns3:TrackPointExtension>
            <ns3:hr>142</ns3:hr>
            <ns3:cad>48</ns3:cad>
          </ns3:TrackPointExtension>
        </extensions>
      </trkpt>
      <trkpt lat="45.3358962200582027435302734375" lon="-70.96204695291817188262939453125">
        <ele>837.5999755859375</ele>
        <time>2026-08-21T18:08:22.000Z</time>
        <extensions>
          <ns3:TrackPointExtension>
            <ns3:hr>142</ns3:hr>
            <ns3:cad>50</ns3:cad>
          </ns3:TrackPointExtension>
        </extensions>
      </trkpt>
      <trkpt lat="45.33588658086955547332763671875" lon="-70.96205248497426509857177734375">
        <ele>837.79998779296875</ele>
        <time>2026-08-21T18:08:23.000Z</time>
        <extensions>
          <ns3:TrackPointExtension>
            <ns3:hr>143</ns3:hr>
            <ns3:cad>50</ns3:cad>
          </ns3:TrackPointExtension>
        </extensions>
      </trkpt>
      <trkpt lat="45.33587761223316192626953125" lon="-70.96206069923937320709228515625">
        <ele>838</ele>
        <time>2026-08-21T18:08:24.000Z</time>
        <extensions>
          <ns3:TrackPointExtension>
            <ns3:hr>142</ns3:hr>
            <ns3:cad>50</ns3:cad>
          </ns3:TrackPointExtension>
        </extensions>
      </trkpt>
      <trkpt lat="45.33586679957807064056396484375" lon="-70.9620721824467182159423828125">
        <ele>838.20001220703125</ele>
        <time>2026-08-21T18:08:25.000Z</time>
        <extensions>
          <ns3:TrackPointExtension>
            <ns3:hr>142</ns3:hr>
            <ns3:cad>50</ns3:cad>
          </ns3:TrackPointExtension>
        </extensions>
      </trkpt>
      <trkpt lat="45.335858501493930816650390625" lon="-70.96208081580698490142822265625">
        <ele>838.20001220703125</ele>
        <time>2026-08-21T18:08:26.000Z</time>
        <extensions>
          <ns3:TrackPointExtension>
            <ns3:hr>142</ns3:hr>
            <ns3:cad>49</ns3:cad>
          </ns3:TrackPointExtension>
        </extensions>
      </trkpt>
      <trkpt lat="45.3358476050198078155517578125" lon="-70.96209120936691761016845703125">
        <ele>838.4000244140625</ele>
        <time>2026-08-21T18:08:27.000Z</time>
        <extensions>
          <ns3:TrackPointExtension>
            <ns3:hr>141</ns3:hr>
            <ns3:cad>49</ns3:cad>
          </ns3:TrackPointExtension>
        </extensions>
      </trkpt>
      <trkpt lat="45.3358368761837482452392578125" lon="-70.9621047042310237884521484375">
        <ele>838.4000244140625</ele>
        <time>2026-08-21T18:08:28.000Z</time>
        <extensions>
          <ns3:TrackPointExtension>
            <ns3:hr>141</ns3:hr>
            <ns3:cad>49</ns3:cad>
          </ns3:TrackPointExtension>
        </extensions>
      </trkpt>
      <trkpt lat="45.33582371659576892852783203125" lon="-70.96211585216224193572998046875">
        <ele>838.5999755859375</ele>
        <time>2026-08-21T18:08:29.000Z</time>
        <extensions>
          <ns3:TrackPointExtension>
            <ns3:hr>141</ns3:hr>
            <ns3:cad>95</ns3:cad>
          </ns3:TrackPointExtension>
        </extensions>
      </trkpt>
      <trkpt lat="45.335809886455535888671875" lon="-70.9621261619031429290771484375">
        <ele>838.79998779296875</ele>
        <time>2026-08-21T18:08:30.000Z</time>
        <extensions>
          <ns3:TrackPointExtension>
            <ns3:hr>141</ns3:hr>
            <ns3:cad>49</ns3:cad>
          </ns3:TrackPointExtension>
        </extensions>
      </trkpt>
      <trkpt lat="45.3358013369143009185791015625" lon="-70.962139070034027099609375">
        <ele>838.79998779296875</ele>
        <time>2026-08-21T18:08:31.000Z</time>
        <extensions>
          <ns3:TrackPointExtension>
            <ns3:hr>141</ns3:hr>
            <ns3:cad>49</ns3:cad>
          </ns3:TrackPointExtension>
        </extensions>
      </trkpt>
      <trkpt lat="45.33579178154468536376953125" lon="-70.962145440280437469482421875">
        <ele>839</ele>
        <time>2026-08-21T18:08:32.000Z</time>
        <extensions>
          <ns3:TrackPointExtension>
            <ns3:hr>141</ns3:hr>
            <ns3:cad>49</ns3:cad>
          </ns3:TrackPointExtension>
        </extensions>
      </trkpt>
      <trkpt lat="45.33578264527022838592529296875" lon="-70.96215642057359218597412109375">
        <ele>839.20001220703125</ele>
        <time>2026-08-21T18:08:33.000Z</time>
        <extensions>
          <ns3:TrackPointExtension>
            <ns3:hr>141</ns3:hr>
            <ns3:cad>49</ns3:cad>
          </ns3:TrackPointExtension>
        </extensions>
      </trkpt>
      <trkpt lat="45.335772670805454254150390625" lon="-70.96216396428644657135009765625">
        <ele>839.20001220703125</ele>
        <time>2026-08-21T18:08:34.000Z</time>
        <extensions>
          <ns3:TrackPointExtension>
            <ns3:hr>141</ns3:hr>
            <ns3:cad>49</ns3:cad>
          </ns3:TrackPointExtension>
        </extensions>
      </trkpt>
      <trkpt lat="45.33576227724552154541015625" lon="-70.96218123100697994232177734375">
        <ele>839.4000244140625</ele>
        <time>2026-08-21T18:08:35.000Z</time>
        <extensions>
          <ns3:TrackPointExtension>
            <ns3:hr>141</ns3:hr>
            <ns3:cad>49</ns3:cad>
          </ns3:TrackPointExtension>
        </extensions>
      </trkpt>
      <trkpt lat="45.33575179986655712127685546875" lon="-70.96219833008944988250732421875">
        <ele>839.4000244140625</ele>
        <time>2026-08-21T18:08:36.000Z</time>
        <extensions>
          <ns3:TrackPointExtension>
            <ns3:hr>140</ns3:hr>
            <ns3:cad>49</ns3:cad>
          </ns3:TrackPointExtension>
        </extensions>
      </trkpt>
      <trkpt lat="45.33574375323951244354248046875" lon="-70.96220922656357288360595703125">
        <ele>839.5999755859375</ele>
        <time>2026-08-21T18:08:37.000Z</time>
        <extensions>
          <ns3:TrackPointExtension>
            <ns3:hr>141</ns3:hr>
            <ns3:cad>49</ns3:cad>
          </ns3:TrackPointExtension>
        </extensions>
      </trkpt>
      <trkpt lat="45.33573805354535579681396484375" lon="-70.96221609972417354583740234375">
        <ele>839.79998779296875</ele>
        <time>2026-08-21T18:08:38.000Z</time>
        <extensions>
          <ns3:TrackPointExtension>
            <ns3:hr>141</ns3:hr>
            <ns3:cad>49</ns3:cad>
          </ns3:TrackPointExtension>
        </extensions>
      </trkpt>
      <trkpt lat="45.33573118038475513458251953125" lon="-70.96223018132150173187255859375">
        <ele>839.79998779296875</ele>
        <time>2026-08-21T18:08:39.000Z</time>
        <extensions>
          <ns3:TrackPointExtension>
            <ns3:hr>141</ns3:hr>
            <ns3:cad>49</ns3:cad>
          </ns3:TrackPointExtension>
        </extensions>
      </trkpt>
      <trkpt lat="45.33572548069059848785400390625" lon="-70.96223621629178524017333984375">
        <ele>840.20001220703125</ele>
        <time>2026-08-21T18:08:40.000Z</time>
        <extensions>
          <ns3:TrackPointExtension>
            <ns3:hr>142</ns3:hr>
            <ns3:cad>49</ns3:cad>
          </ns3:TrackPointExtension>
        </extensions>
      </trkpt>
      <trkpt lat="45.33571307547390460968017578125" lon="-70.962241999804973602294921875">
        <ele>840.4000244140625</ele>
        <time>2026-08-21T18:08:41.000Z</time>
        <extensions>
          <ns3:TrackPointExtension>
            <ns3:hr>142</ns3:hr>
            <ns3:cad>49</ns3:cad>
          </ns3:TrackPointExtension>
        </extensions>
      </trkpt>
      <trkpt lat="45.3356977365911006927490234375" lon="-70.962248034775257110595703125">
        <ele>840.5999755859375</ele>
        <time>2026-08-21T18:08:42.000Z</time>
        <extensions>
          <ns3:TrackPointExtension>
            <ns3:hr>142</ns3:hr>
            <ns3:cad>51</ns3:cad>
          </ns3:TrackPointExtension>
        </extensions>
      </trkpt>
      <trkpt lat="45.33568927086889743804931640625" lon="-70.96225532703101634979248046875">
        <ele>840.5999755859375</ele>
        <time>2026-08-21T18:08:43.000Z</time>
        <extensions>
          <ns3:TrackPointExtension>
            <ns3:hr>142</ns3:hr>
            <ns3:cad>51</ns3:cad>
          </ns3:TrackPointExtension>
        </extensions>
      </trkpt>
      <trkpt lat="45.33568122424185276031494140625" lon="-70.96226404421031475067138671875">
        <ele>840.79998779296875</ele>
        <time>2026-08-21T18:08:44.000Z</time>
        <extensions>
          <ns3:TrackPointExtension>
            <ns3:hr>142</ns3:hr>
            <ns3:cad>51</ns3:cad>
          </ns3:TrackPointExtension>
        </extensions>
      </trkpt>
      <trkpt lat="45.33567351289093494415283203125" lon="-70.96227762289345264434814453125">
        <ele>841</ele>
        <time>2026-08-21T18:08:45.000Z</time>
        <extensions>
          <ns3:TrackPointExtension>
            <ns3:hr>142</ns3:hr>
            <ns3:cad>51</ns3:cad>
          </ns3:TrackPointExtension>
        </extensions>
      </trkpt>
      <trkpt lat="45.3356648795306682586669921875" lon="-70.96228784881532192230224609375">
        <ele>841</ele>
        <time>2026-08-21T18:08:46.000Z</time>
        <extensions>
          <ns3:TrackPointExtension>
            <ns3:hr>142</ns3:hr>
            <ns3:cad>51</ns3:cad>
          </ns3:TrackPointExtension>
        </extensions>
      </trkpt>
      <trkpt lat="45.335654318332672119140625" lon="-70.962299667298793792724609375">
        <ele>841</ele>
        <time>2026-08-21T18:08:47.000Z</time>
        <extensions>
          <ns3:TrackPointExtension>
            <ns3:hr>142</ns3:hr>
            <ns3:cad>51</ns3:cad>
          </ns3:TrackPointExtension>
        </extensions>
      </trkpt>
      <trkpt lat="45.3356516361236572265625" lon="-70.9623149223625659942626953125">
        <ele>841.20001220703125</ele>
        <time>2026-08-21T18:08:48.000Z</time>
        <extensions>
          <ns3:TrackPointExtension>
            <ns3:hr>142</ns3:hr>
            <ns3:cad>51</ns3:cad>
          </ns3:TrackPointExtension>
        </extensions>
      </trkpt>
      <trkpt lat="45.33564417622983455657958984375" lon="-70.9623266570270061492919921875">
        <ele>841.20001220703125</ele>
        <time>2026-08-21T18:08:49.000Z</time>
        <extensions>
          <ns3:TrackPointExtension>
            <ns3:hr>142</ns3:hr>
            <ns3:cad>51</ns3:cad>
          </ns3:TrackPointExtension>
        </extensions>
      </trkpt>
      <trkpt lat="45.33564048819243907928466796875" lon="-70.96233579330146312713623046875">
        <ele>841.4000244140625</ele>
        <time>2026-08-21T18:08:50.000Z</time>
        <extensions>
          <ns3:TrackPointExtension>
            <ns3:hr>142</ns3:hr>
            <ns3:cad>47</ns3:cad>
          </ns3:TrackPointExtension>
        </extensions>
      </trkpt>
      <trkpt lat="45.33563478849828243255615234375" lon="-70.9623477794229984283447265625">
        <ele>841.5999755859375</ele>
        <time>2026-08-21T18:08:51.000Z</time>
        <extensions>
          <ns3:TrackPointExtension>
            <ns3:hr>142</ns3:hr>
            <ns3:cad>47</ns3:cad>
          </ns3:TrackPointExtension>
        </extensions>
      </trkpt>
      <trkpt lat="45.335627831518650054931640625" lon="-70.9623568318784236907958984375">
        <ele>841.79998779296875</ele>
        <time>2026-08-21T18:08:52.000Z</time>
        <extensions>
          <ns3:TrackPointExtension>
            <ns3:hr>142</ns3:hr>
            <ns3:cad>47</ns3:cad>
          </ns3:TrackPointExtension>
        </extensions>
      </trkpt>
      <trkpt lat="45.3356219641864299774169921875" lon="-70.96236160956323146820068359375">
        <ele>842</ele>
        <time>2026-08-21T18:08:53.000Z</time>
        <extensions>
          <ns3:TrackPointExtension>
            <ns3:hr>142</ns3:hr>
            <ns3:cad>47</ns3:cad>
          </ns3:TrackPointExtension>
        </extensions>
      </trkpt>
      <trkpt lat="45.3356181085109710693359375" lon="-70.9623732604086399078369140625">
        <ele>842.20001220703125</ele>
        <time>2026-08-21T18:08:54.000Z</time>
        <extensions>
          <ns3:TrackPointExtension>
            <ns3:hr>142</ns3:hr>
            <ns3:cad>47</ns3:cad>
          </ns3:TrackPointExtension>
        </extensions>
      </trkpt>
      <trkpt lat="45.3356135822832584381103515625" lon="-70.96238424070179462432861328125">
        <ele>842.4000244140625</ele>
        <time>2026-08-21T18:08:55.000Z</time>
        <extensions>
          <ns3:TrackPointExtension>
            <ns3:hr>142</ns3:hr>
            <ns3:cad>47</ns3:cad>
          </ns3:TrackPointExtension>
        </extensions>
      </trkpt>
      <trkpt lat="45.3356085531413555145263671875" lon="-70.96239245496690273284912109375">
        <ele>842.5999755859375</ele>
        <time>2026-08-21T18:08:56.000Z</time>
        <extensions>
          <ns3:TrackPointExtension>
            <ns3:hr>142</ns3:hr>
            <ns3:cad>47</ns3:cad>
          </ns3:TrackPointExtension>
        </extensions>
      </trkpt>
      <trkpt lat="45.33560159616172313690185546875" lon="-70.9624032676219940185546875">
        <ele>842.79998779296875</ele>
        <time>2026-08-21T18:08:57.000Z</time>
        <extensions>
          <ns3:TrackPointExtension>
            <ns3:hr>142</ns3:hr>
            <ns3:cad>44</ns3:cad>
          </ns3:TrackPointExtension>
        </extensions>
      </trkpt>
      <trkpt lat="45.33559522591531276702880859375" lon="-70.96241039223968982696533203125">
        <ele>843</ele>
        <time>2026-08-21T18:08:58.000Z</time>
        <extensions>
          <ns3:TrackPointExtension>
            <ns3:hr>141</ns3:hr>
            <ns3:cad>44</ns3:cad>
          </ns3:TrackPointExtension>
        </extensions>
      </trkpt>
      <trkpt lat="45.335586927831172943115234375" lon="-70.962423384189605712890625">
        <ele>843.20001220703125</ele>
        <time>2026-08-21T18:08:59.000Z</time>
        <extensions>
          <ns3:TrackPointExtension>
            <ns3:hr>141</ns3:hr>
            <ns3:cad>0</ns3:cad>
          </ns3:TrackPointExtension>
        </extensions>
      </trkpt>
      <trkpt lat="45.3355767019093036651611328125" lon="-70.96242967061698436737060546875">
        <ele>843.4000244140625</ele>
        <time>2026-08-21T18:09:00.000Z</time>
        <extensions>
          <ns3:TrackPointExtension>
            <ns3:hr>141</ns3:hr>
            <ns3:cad>46</ns3:cad>
          </ns3:TrackPointExtension>
        </extensions>
      </trkpt>
      <trkpt lat="45.33556974492967128753662109375" lon="-70.9624406509101390838623046875">
        <ele>843.5999755859375</ele>
        <time>2026-08-21T18:09:01.000Z</time>
        <extensions>
          <ns3:TrackPointExtension>
            <ns3:hr>141</ns3:hr>
            <ns3:cad>46</ns3:cad>
          </ns3:TrackPointExtension>
        </extensions>
      </trkpt>
      <trkpt lat="45.3355609439313411712646484375" lon="-70.962450541555881500244140625">
        <ele>843.5999755859375</ele>
        <time>2026-08-21T18:09:02.000Z</time>
        <extensions>
          <ns3:TrackPointExtension>
            <ns3:hr>141</ns3:hr>
            <ns3:cad>0</ns3:cad>
          </ns3:TrackPointExtension>
        </extensions>
      </trkpt>
      <trkpt lat="45.3355492092669010162353515625" lon="-70.9624622762203216552734375">
        <ele>843.79998779296875</ele>
        <time>2026-08-21T18:09:03.000Z</time>
        <extensions>
          <ns3:TrackPointExtension>
            <ns3:hr>142</ns3:hr>
            <ns3:cad>0</ns3:cad>
          </ns3:TrackPointExtension>
        </extensions>
      </trkpt>
      <trkpt lat="45.3355349600315093994140625" lon="-70.96246898174285888671875">
        <ele>843.79998779296875</ele>
        <time>2026-08-21T18:09:04.000Z</time>
        <extensions>
          <ns3:TrackPointExtension>
            <ns3:hr>142</ns3:hr>
            <ns3:cad>0</ns3:cad>
          </ns3:TrackPointExtension>
        </extensions>
      </trkpt>
      <trkpt lat="45.33552833832800388336181640625" lon="-70.96247945912182331085205078125">
        <ele>844</ele>
        <time>2026-08-21T18:09:05.000Z</time>
        <extensions>
          <ns3:TrackPointExtension>
            <ns3:hr>142</ns3:hr>
            <ns3:cad>0</ns3:cad>
          </ns3:TrackPointExtension>
        </extensions>
      </trkpt>
      <trkpt lat="45.3355183638632297515869140625" lon="-70.96249043941497802734375">
        <ele>844</ele>
        <time>2026-08-21T18:09:06.000Z</time>
        <extensions>
          <ns3:TrackPointExtension>
            <ns3:hr>143</ns3:hr>
            <ns3:cad>0</ns3:cad>
          </ns3:TrackPointExtension>
        </extensions>
      </trkpt>
      <trkpt lat="45.33551174215972423553466796875" lon="-70.96249722875654697418212890625">
        <ele>844.20001220703125</ele>
        <time>2026-08-21T18:09:07.000Z</time>
        <extensions>
          <ns3:TrackPointExtension>
            <ns3:hr>142</ns3:hr>
            <ns3:cad>47</ns3:cad>
          </ns3:TrackPointExtension>
        </extensions>
      </trkpt>
      <trkpt lat="45.33549900166690349578857421875" lon="-70.962505526840686798095703125">
        <ele>844.20001220703125</ele>
        <time>2026-08-21T18:09:08.000Z</time>
        <extensions>
          <ns3:TrackPointExtension>
            <ns3:hr>142</ns3:hr>
            <ns3:cad>47</ns3:cad>
          </ns3:TrackPointExtension>
        </extensions>
      </trkpt>
      <trkpt lat="45.33548424951732158660888671875" lon="-70.96251617185771465301513671875">
        <ele>844.20001220703125</ele>
        <time>2026-08-21T18:09:09.000Z</time>
        <extensions>
          <ns3:TrackPointExtension>
            <ns3:hr>142</ns3:hr>
            <ns3:cad>47</ns3:cad>
          </ns3:TrackPointExtension>
        </extensions>
      </trkpt>
      <trkpt lat="45.335471928119659423828125" lon="-70.9625251404941082000732421875">
        <ele>844.20001220703125</ele>
        <time>2026-08-21T18:09:10.000Z</time>
        <extensions>
          <ns3:TrackPointExtension>
            <ns3:hr>142</ns3:hr>
            <ns3:cad>47</ns3:cad>
          </ns3:TrackPointExtension>
        </extensions>
      </trkpt>
      <trkpt lat="45.33546262420713901519775390625" lon="-70.96253947354853153228759765625">
        <ele>844.20001220703125</ele>
        <time>2026-08-21T18:09:11.000Z</time>
        <extensions>
          <ns3:TrackPointExtension>
            <ns3:hr>143</ns3:hr>
            <ns3:cad>47</ns3:cad>
          </ns3:TrackPointExtension>
        </extensions>
      </trkpt>
      <trkpt lat="45.3354543261229991912841796875" lon="-70.96255238167941570281982421875">
        <ele>844.20001220703125</ele>
        <time>2026-08-21T18:09:12.000Z</time>
        <extensions>
          <ns3:TrackPointExtension>
            <ns3:hr>143</ns3:hr>
            <ns3:cad>48</ns3:cad>
          </ns3:TrackPointExtension>
        </extensions>
      </trkpt>
      <trkpt lat="45.33544518984854221343994140625" lon="-70.962564535439014434814453125">
        <ele>844.20001220703125</ele>
        <time>2026-08-21T18:09:13.000Z</time>
        <extensions>
          <ns3:TrackPointExtension>
            <ns3:hr>144</ns3:hr>
            <ns3:cad>48</ns3:cad>
          </ns3:TrackPointExtension>
        </extensions>
      </trkpt>
      <trkpt lat="45.33543697558343410491943359375" lon="-70.96257065422832965850830078125">
        <ele>844.20001220703125</ele>
        <time>2026-08-21T18:09:14.000Z</time>
        <extensions>
          <ns3:TrackPointExtension>
            <ns3:hr>144</ns3:hr>
            <ns3:cad>51</ns3:cad>
          </ns3:TrackPointExtension>
        </extensions>
      </trkpt>
      <trkpt lat="45.33542876131832599639892578125" lon="-70.9625814668834209442138671875">
        <ele>844.4000244140625</ele>
        <time>2026-08-21T18:09:15.000Z</time>
        <extensions>
          <ns3:TrackPointExtension>
            <ns3:hr>144</ns3:hr>
            <ns3:cad>51</ns3:cad>
          </ns3:TrackPointExtension>
        </extensions>
      </trkpt>
      <trkpt lat="45.33541602082550525665283203125" lon="-70.962594710290431976318359375">
        <ele>844.4000244140625</ele>
        <time>2026-08-21T18:09:16.000Z</time>
        <extensions>
          <ns3:TrackPointExtension>
            <ns3:hr>143</ns3:hr>
            <ns3:cad>51</ns3:cad>
          </ns3:TrackPointExtension>
        </extensions>
      </trkpt>
      <trkpt lat="45.33540663309395313262939453125" lon="-70.96260820515453815460205078125">
        <ele>844.4000244140625</ele>
        <time>2026-08-21T18:09:17.000Z</time>
        <extensions>
          <ns3:TrackPointExtension>
            <ns3:hr>143</ns3:hr>
            <ns3:cad>53</ns3:cad>
          </ns3:TrackPointExtension>
        </extensions>
      </trkpt>
      <trkpt lat="45.3353963233530521392822265625" lon="-70.9626240469515323638916015625">
        <ele>844.4000244140625</ele>
        <time>2026-08-21T18:09:18.000Z</time>
        <extensions>
          <ns3:TrackPointExtension>
            <ns3:hr>142</ns3:hr>
            <ns3:cad>53</ns3:cad>
          </ns3:TrackPointExtension>
        </extensions>
      </trkpt>
      <trkpt lat="45.3353892825543880462646484375" lon="-70.96263720653951168060302734375">
        <ele>844.5999755859375</ele>
        <time>2026-08-21T18:09:19.000Z</time>
        <extensions>
          <ns3:TrackPointExtension>
            <ns3:hr>142</ns3:hr>
            <ns3:cad>53</ns3:cad>
          </ns3:TrackPointExtension>
        </extensions>
      </trkpt>
      <trkpt lat="45.33537612296640872955322265625" lon="-70.96264877356588840484619140625">
        <ele>844.5999755859375</ele>
        <time>2026-08-21T18:09:20.000Z</time>
        <extensions>
          <ns3:TrackPointExtension>
            <ns3:hr>142</ns3:hr>
            <ns3:cad>53</ns3:cad>
          </ns3:TrackPointExtension>
        </extensions>
      </trkpt>
      <trkpt lat="45.33536204136908054351806640625" lon="-70.96265799365937709808349609375">
        <ele>844.79998779296875</ele>
        <time>2026-08-21T18:09:21.000Z</time>
        <extensions>
          <ns3:TrackPointExtension>
            <ns3:hr>142</ns3:hr>
            <ns3:cad>53</ns3:cad>
          </ns3:TrackPointExtension>
        </extensions>
      </trkpt>
      <trkpt lat="45.335351563990116119384765625" lon="-70.9626686386764049530029296875">
        <ele>844.79998779296875</ele>
        <time>2026-08-21T18:09:22.000Z</time>
        <extensions>
          <ns3:TrackPointExtension>
            <ns3:hr>142</ns3:hr>
            <ns3:cad>53</ns3:cad>
          </ns3:TrackPointExtension>
        </extensions>
      </trkpt>
      <trkpt lat="45.33534293062984943389892578125" lon="-70.9626837261021137237548828125">
        <ele>845</ele>
        <time>2026-08-21T18:09:23.000Z</time>
        <extensions>
          <ns3:TrackPointExtension>
            <ns3:hr>142</ns3:hr>
            <ns3:cad>53</ns3:cad>
          </ns3:TrackPointExtension>
        </extensions>
      </trkpt>
      <trkpt lat="45.33533287234604358673095703125" lon="-70.962696634232997894287109375">
        <ele>845</ele>
        <time>2026-08-21T18:09:24.000Z</time>
        <extensions>
          <ns3:TrackPointExtension>
            <ns3:hr>142</ns3:hr>
            <ns3:cad>55</ns3:cad>
          </ns3:TrackPointExtension>
        </extensions>
      </trkpt>
      <trkpt lat="45.33532566390931606292724609375" lon="-70.962705351412296295166015625">
        <ele>845</ele>
        <time>2026-08-21T18:09:25.000Z</time>
        <extensions>
          <ns3:TrackPointExtension>
            <ns3:hr>141</ns3:hr>
            <ns3:cad>55</ns3:cad>
          </ns3:TrackPointExtension>
        </extensions>
      </trkpt>
      <trkpt lat="45.335313342511653900146484375" lon="-70.96271499060094356536865234375">
        <ele>845</ele>
        <time>2026-08-21T18:09:26.000Z</time>
        <extensions>
          <ns3:TrackPointExtension>
            <ns3:hr>141</ns3:hr>
            <ns3:cad>55</ns3:cad>
          </ns3:TrackPointExtension>
        </extensions>
      </trkpt>
      <trkpt lat="45.33530320040881633758544921875" lon="-70.9627269767224788665771484375">
        <ele>845</ele>
        <time>2026-08-21T18:09:27.000Z</time>
        <extensions>
          <ns3:TrackPointExtension>
            <ns3:hr>141</ns3:hr>
            <ns3:cad>56</ns3:cad>
          </ns3:TrackPointExtension>
        </extensions>
      </trkpt>
      <trkpt lat="45.3352917172014713287353515625" lon="-70.96273762173950672149658203125">
        <ele>845.20001220703125</ele>
        <time>2026-08-21T18:09:28.000Z</time>
        <extensions>
          <ns3:TrackPointExtension>
            <ns3:hr>140</ns3:hr>
            <ns3:cad>56</ns3:cad>
          </ns3:TrackPointExtension>
        </extensions>
      </trkpt>
      <trkpt lat="45.3352803178131580352783203125" lon="-70.9627492725849151611328125">
        <ele>845.20001220703125</ele>
        <time>2026-08-21T18:09:29.000Z</time>
        <extensions>
          <ns3:TrackPointExtension>
            <ns3:hr>140</ns3:hr>
            <ns3:cad>55</ns3:cad>
          </ns3:TrackPointExtension>
        </extensions>
      </trkpt>
      <trkpt lat="45.3352716006338596343994140625" lon="-70.96276829950511455535888671875">
        <ele>845.20001220703125</ele>
        <time>2026-08-21T18:09:30.000Z</time>
        <extensions>
          <ns3:TrackPointExtension>
            <ns3:hr>140</ns3:hr>
            <ns3:cad>55</ns3:cad>
          </ns3:TrackPointExtension>
        </extensions>
      </trkpt>
      <trkpt lat="45.33526095561683177947998046875" lon="-70.9627856500446796417236328125">
        <ele>845.20001220703125</ele>
        <time>2026-08-21T18:09:31.000Z</time>
        <extensions>
          <ns3:TrackPointExtension>
            <ns3:hr>140</ns3:hr>
            <ns3:cad>55</ns3:cad>
          </ns3:TrackPointExtension>
        </extensions>
      </trkpt>
      <trkpt lat="45.33525190316140651702880859375" lon="-70.96280769445002079010009765625">
        <ele>845.20001220703125</ele>
        <time>2026-08-21T18:09:32.000Z</time>
        <extensions>
          <ns3:TrackPointExtension>
            <ns3:hr>140</ns3:hr>
            <ns3:cad>55</ns3:cad>
          </ns3:TrackPointExtension>
        </extensions>
      </trkpt>
      <trkpt lat="45.3352420963346958160400390625" lon="-70.9628243744373321533203125">
        <ele>845.20001220703125</ele>
        <time>2026-08-21T18:09:33.000Z</time>
        <extensions>
          <ns3:TrackPointExtension>
            <ns3:hr>140</ns3:hr>
            <ns3:cad>55</ns3:cad>
          </ns3:TrackPointExtension>
        </extensions>
      </trkpt>
      <trkpt lat="45.3352320380508899688720703125" lon="-70.962838791310787200927734375">
        <ele>845</ele>
        <time>2026-08-21T18:09:34.000Z</time>
        <extensions>
          <ns3:TrackPointExtension>
            <ns3:hr>140</ns3:hr>
            <ns3:cad>54</ns3:cad>
          </ns3:TrackPointExtension>
        </extensions>
      </trkpt>
      <trkpt lat="45.335220135748386383056640625" lon="-70.96284809522330760955810546875">
        <ele>845</ele>
        <time>2026-08-21T18:09:35.000Z</time>
        <extensions>
          <ns3:TrackPointExtension>
            <ns3:hr>140</ns3:hr>
            <ns3:cad>55</ns3:cad>
          </ns3:TrackPointExtension>
        </extensions>
      </trkpt>
      <trkpt lat="45.33520731143653392791748046875" lon="-70.96285547129809856414794921875">
        <ele>845</ele>
        <time>2026-08-21T18:09:36.000Z</time>
        <extensions>
          <ns3:TrackPointExtension>
            <ns3:hr>140</ns3:hr>
            <ns3:cad>55</ns3:cad>
          </ns3:TrackPointExtension>
        </extensions>
      </trkpt>
      <trkpt lat="45.3351998515427112579345703125" lon="-70.962859578430652618408203125">
        <ele>845</ele>
        <time>2026-08-21T18:09:37.000Z</time>
        <extensions>
          <ns3:TrackPointExtension>
            <ns3:hr>140</ns3:hr>
            <ns3:cad>55</ns3:cad>
          </ns3:TrackPointExtension>
        </extensions>
      </trkpt>
      <trkpt lat="45.335192643105983734130859375" lon="-70.9628778509795665740966796875">
        <ele>845</ele>
        <time>2026-08-21T18:09:38.000Z</time>
        <extensions>
          <ns3:TrackPointExtension>
            <ns3:hr>139</ns3:hr>
            <ns3:cad>55</ns3:cad>
          </ns3:TrackPointExtension>
        </extensions>
      </trkpt>
      <trkpt lat="45.33518048934638500213623046875" lon="-70.962888412177562713623046875">
        <ele>845</ele>
        <time>2026-08-21T18:09:39.000Z</time>
        <extensions>
          <ns3:TrackPointExtension>
            <ns3:hr>139</ns3:hr>
            <ns3:cad>55</ns3:cad>
          </ns3:TrackPointExtension>
        </extensions>
      </trkpt>
      <trkpt lat="45.33516959287226200103759765625" lon="-70.96290224231779575347900390625">
        <ele>845</ele>
        <time>2026-08-21T18:09:40.000Z</time>
        <extensions>
          <ns3:TrackPointExtension>
            <ns3:hr>139</ns3:hr>
            <ns3:cad>55</ns3:cad>
          </ns3:TrackPointExtension>
        </extensions>
      </trkpt>
      <trkpt lat="45.33515819348394870758056640625" lon="-70.9629140608012676239013671875">
        <ele>845</ele>
        <time>2026-08-21T18:09:41.000Z</time>
        <extensions>
          <ns3:TrackPointExtension>
            <ns3:hr>139</ns3:hr>
            <ns3:cad>55</ns3:cad>
          </ns3:TrackPointExtension>
        </extensions>
      </trkpt>
      <trkpt lat="45.3351462073624134063720703125" lon="-70.96292755566537380218505859375">
        <ele>845</ele>
        <time>2026-08-21T18:09:42.000Z</time>
        <extensions>
          <ns3:TrackPointExtension>
            <ns3:hr>139</ns3:hr>
            <ns3:cad>55</ns3:cad>
          </ns3:TrackPointExtension>
        </extensions>
      </trkpt>
      <trkpt lat="45.33513355068862438201904296875" lon="-70.96293929032981395721435546875">
        <ele>845</ele>
        <time>2026-08-21T18:09:43.000Z</time>
        <extensions>
          <ns3:TrackPointExtension>
            <ns3:hr>138</ns3:hr>
            <ns3:cad>55</ns3:cad>
          </ns3:TrackPointExtension>
        </extensions>
      </trkpt>
      <trkpt lat="45.33512198366224765777587890625" lon="-70.9629504382610321044921875">
        <ele>845</ele>
        <time>2026-08-21T18:09:44.000Z</time>
        <extensions>
          <ns3:TrackPointExtension>
            <ns3:hr>138</ns3:hr>
            <ns3:cad>55</ns3:cad>
          </ns3:TrackPointExtension>
        </extensions>
      </trkpt>
      <trkpt lat="45.33511360175907611846923828125" lon="-70.962957479059696197509765625">
        <ele>845</ele>
        <time>2026-08-21T18:09:45.000Z</time>
        <extensions>
          <ns3:TrackPointExtension>
            <ns3:hr>138</ns3:hr>
            <ns3:cad>55</ns3:cad>
          </ns3:TrackPointExtension>
        </extensions>
      </trkpt>
      <trkpt lat="45.3351019509136676788330078125" lon="-70.96296711824834346771240234375">
        <ele>845</ele>
        <time>2026-08-21T18:09:46.000Z</time>
        <extensions>
          <ns3:TrackPointExtension>
            <ns3:hr>139</ns3:hr>
            <ns3:cad>55</ns3:cad>
          </ns3:TrackPointExtension>
        </extensions>
      </trkpt>
      <trkpt lat="45.33509097062051296234130859375" lon="-70.962981618940830230712890625">
        <ele>845</ele>
        <time>2026-08-21T18:09:47.000Z</time>
        <extensions>
          <ns3:TrackPointExtension>
            <ns3:hr>138</ns3:hr>
            <ns3:cad>55</ns3:cad>
          </ns3:TrackPointExtension>
        </extensions>
      </trkpt>
      <trkpt lat="45.33508141525089740753173828125" lon="-70.9629941917955875396728515625">
        <ele>845</ele>
        <time>2026-08-21T18:09:48.000Z</time>
        <extensions>
          <ns3:TrackPointExtension>
            <ns3:hr>138</ns3:hr>
            <ns3:cad>55</ns3:cad>
          </ns3:TrackPointExtension>
        </extensions>
      </trkpt>
      <trkpt lat="45.335070602595806121826171875" lon="-70.9630092792212963104248046875">
        <ele>845</ele>
        <time>2026-08-21T18:09:49.000Z</time>
        <extensions>
          <ns3:TrackPointExtension>
            <ns3:hr>138</ns3:hr>
            <ns3:cad>0</ns3:cad>
          </ns3:TrackPointExtension>
        </extensions>
      </trkpt>
      <trkpt lat="45.335058532655239105224609375" lon="-70.9630280546844005584716796875">
        <ele>845</ele>
        <time>2026-08-21T18:09:50.000Z</time>
        <extensions>
          <ns3:TrackPointExtension>
            <ns3:hr>137</ns3:hr>
            <ns3:cad>0</ns3:cad>
          </ns3:TrackPointExtension>
        </extensions>
      </trkpt>
      <trkpt lat="45.335048474371433258056640625" lon="-70.96303719095885753631591796875">
        <ele>845</ele>
        <time>2026-08-21T18:09:51.000Z</time>
        <extensions>
          <ns3:TrackPointExtension>
            <ns3:hr>136</ns3:hr>
            <ns3:cad>0</ns3:cad>
          </ns3:TrackPointExtension>
        </extensions>
      </trkpt>
      <trkpt lat="45.3350312076508998870849609375" lon="-70.96304473467171192169189453125">
        <ele>845.20001220703125</ele>
        <time>2026-08-21T18:09:52.000Z</time>
        <extensions>
          <ns3:TrackPointExtension>
            <ns3:hr>134</ns3:hr>
            <ns3:cad>0</ns3:cad>
          </ns3:TrackPointExtension>
        </extensions>
      </trkpt>
      <trkpt lat="45.33501955680549144744873046875" lon="-70.96305378712713718414306640625">
        <ele>845.20001220703125</ele>
        <time>2026-08-21T18:09:53.000Z</time>
        <extensions>
          <ns3:TrackPointExtension>
            <ns3:hr>133</ns3:hr>
            <ns3:cad>0</ns3:cad>
          </ns3:TrackPointExtension>
        </extensions>
      </trkpt>
      <trkpt lat="45.33500589430332183837890625" lon="-70.96306979656219482421875">
        <ele>845.20001220703125</ele>
        <time>2026-08-21T18:09:54.000Z</time>
        <extensions>
          <ns3:TrackPointExtension>
            <ns3:hr>131</ns3:hr>
            <ns3:cad>0</ns3:cad>
          </ns3:TrackPointExtension>
        </extensions>
      </trkpt>
      <trkpt lat="45.3349929861724376678466796875" lon="-70.96308396197855472564697265625">
        <ele>845.20001220703125</ele>
        <time>2026-08-21T18:09:55.000Z</time>
        <extensions>
          <ns3:TrackPointExtension>
            <ns3:hr>131</ns3:hr>
            <ns3:cad>0</ns3:cad>
          </ns3:TrackPointExtension>
        </extensions>
      </trkpt>
      <trkpt lat="45.33498083241283893585205078125" lon="-70.9630974568426609039306640625">
        <ele>845.20001220703125</ele>
        <time>2026-08-21T18:09:56.000Z</time>
        <extensions>
          <ns3:TrackPointExtension>
            <ns3:hr>129</ns3:hr>
            <ns3:cad>0</ns3:cad>
          </ns3:TrackPointExtension>
        </extensions>
      </trkpt>
      <trkpt lat="45.33496574498713016510009765625" lon="-70.963112376630306243896484375">
        <ele>845.20001220703125</ele>
        <time>2026-08-21T18:09:57.000Z</time>
        <extensions>
          <ns3:TrackPointExtension>
            <ns3:hr>128</ns3:hr>
            <ns3:cad>53</ns3:cad>
          </ns3:TrackPointExtension>
        </extensions>
      </trkpt>
      <trkpt lat="45.33495753072202205657958984375" lon="-70.9631202556192874908447265625">
        <ele>845.4000244140625</ele>
        <time>2026-08-21T18:09:58.000Z</time>
        <extensions>
          <ns3:TrackPointExtension>
            <ns3:hr>128</ns3:hr>
            <ns3:cad>53</ns3:cad>
          </ns3:TrackPointExtension>
        </extensions>
      </trkpt>
      <trkpt lat="45.33494713716208934783935546875" lon="-70.9631319902837276458740234375">
        <ele>845.5999755859375</ele>
        <time>2026-08-21T18:09:59.000Z</time>
        <extensions>
          <ns3:TrackPointExtension>
            <ns3:hr>128</ns3:hr>
            <ns3:cad>53</ns3:cad>
          </ns3:TrackPointExtension>
        </extensions>
      </trkpt>
      <trkpt lat="45.3349343128502368927001953125" lon="-70.9631460718810558319091796875">
        <ele>845.5999755859375</ele>
        <time>2026-08-21T18:10:00.000Z</time>
        <extensions>
          <ns3:TrackPointExtension>
            <ns3:hr>128</ns3:hr>
            <ns3:cad>53</ns3:cad>
          </ns3:TrackPointExtension>
        </extensions>
      </trkpt>
      <trkpt lat="45.33492417074739933013916015625" lon="-70.96315520815551280975341796875">
        <ele>845.79998779296875</ele>
        <time>2026-08-21T18:10:01.000Z</time>
        <extensions>
          <ns3:TrackPointExtension>
            <ns3:hr>128</ns3:hr>
            <ns3:cad>53</ns3:cad>
          </ns3:TrackPointExtension>
        </extensions>
      </trkpt>
      <trkpt lat="45.3349141962826251983642578125" lon="-70.96316702663898468017578125">
        <ele>845.79998779296875</ele>
        <time>2026-08-21T18:10:02.000Z</time>
        <extensions>
          <ns3:TrackPointExtension>
            <ns3:hr>127</ns3:hr>
            <ns3:cad>55</ns3:cad>
          </ns3:TrackPointExtension>
        </extensions>
      </trkpt>
      <trkpt lat="45.334902964532375335693359375" lon="-70.963179431855678558349609375">
        <ele>845.79998779296875</ele>
        <time>2026-08-21T18:10:03.000Z</time>
        <extensions>
          <ns3:TrackPointExtension>
            <ns3:hr>128</ns3:hr>
            <ns3:cad>55</ns3:cad>
          </ns3:TrackPointExtension>
        </extensions>
      </trkpt>
      <trkpt lat="45.33489315770566463470458984375" lon="-70.9631873108446598052978515625">
        <ele>845.79998779296875</ele>
        <time>2026-08-21T18:10:04.000Z</time>
        <extensions>
          <ns3:TrackPointExtension>
            <ns3:hr>128</ns3:hr>
            <ns3:cad>55</ns3:cad>
          </ns3:TrackPointExtension>
        </extensions>
      </trkpt>
      <trkpt lat="45.3348810039460659027099609375" lon="-70.96319577656686305999755859375">
        <ele>845.79998779296875</ele>
        <time>2026-08-21T18:10:05.000Z</time>
        <extensions>
          <ns3:TrackPointExtension>
            <ns3:hr>128</ns3:hr>
            <ns3:cad>55</ns3:cad>
          </ns3:TrackPointExtension>
        </extensions>
      </trkpt>
      <trkpt lat="45.33487572334706783294677734375" lon="-70.96320281736552715301513671875">
        <ele>846</ele>
        <time>2026-08-21T18:10:06.000Z</time>
        <extensions>
          <ns3:TrackPointExtension>
            <ns3:hr>128</ns3:hr>
            <ns3:cad>55</ns3:cad>
          </ns3:TrackPointExtension>
        </extensions>
      </trkpt>
      <trkpt lat="45.3348598815500736236572265625" lon="-70.96321790479123592376708984375">
        <ele>846</ele>
        <time>2026-08-21T18:10:07.000Z</time>
        <extensions>
          <ns3:TrackPointExtension>
            <ns3:hr>129</ns3:hr>
            <ns3:cad>55</ns3:cad>
          </ns3:TrackPointExtension>
        </extensions>
      </trkpt>
      <trkpt lat="45.33485024236142635345458984375" lon="-70.9632295556366443634033203125">
        <ele>846</ele>
        <time>2026-08-21T18:10:08.000Z</time>
        <extensions>
          <ns3:TrackPointExtension>
            <ns3:hr>129</ns3:hr>
            <ns3:cad>55</ns3:cad>
          </ns3:TrackPointExtension>
        </extensions>
      </trkpt>
      <trkpt lat="45.33483733423054218292236328125" lon="-70.96324036829173564910888671875">
        <ele>846</ele>
        <time>2026-08-21T18:10:09.000Z</time>
        <extensions>
          <ns3:TrackPointExtension>
            <ns3:hr>129</ns3:hr>
            <ns3:cad>55</ns3:cad>
          </ns3:TrackPointExtension>
        </extensions>
      </trkpt>
      <trkpt lat="45.33482350409030914306640625" lon="-70.96325042657554149627685546875">
        <ele>846.20001220703125</ele>
        <time>2026-08-21T18:10:10.000Z</time>
        <extensions>
          <ns3:TrackPointExtension>
            <ns3:hr>129</ns3:hr>
            <ns3:cad>55</ns3:cad>
          </ns3:TrackPointExtension>
        </extensions>
      </trkpt>
      <trkpt lat="45.33480833284556865692138671875" lon="-70.96325344406068325042724609375">
        <ele>846.20001220703125</ele>
        <time>2026-08-21T18:10:11.000Z</time>
        <extensions>
          <ns3:TrackPointExtension>
            <ns3:hr>130</ns3:hr>
            <ns3:cad>55</ns3:cad>
          </ns3:TrackPointExtension>
        </extensions>
      </trkpt>
      <trkpt lat="45.3347894735634326934814453125" lon="-70.96326350234448909759521484375">
        <ele>846.20001220703125</ele>
        <time>2026-08-21T18:10:12.000Z</time>
        <extensions>
          <ns3:TrackPointExtension>
            <ns3:hr>130</ns3:hr>
            <ns3:cad>55</ns3:cad>
          </ns3:TrackPointExtension>
        </extensions>
      </trkpt>
      <trkpt lat="45.3347770683467388153076171875" lon="-70.96327163279056549072265625">
        <ele>846.4000244140625</ele>
        <time>2026-08-21T18:10:13.000Z</time>
        <extensions>
          <ns3:TrackPointExtension>
            <ns3:hr>130</ns3:hr>
            <ns3:cad>55</ns3:cad>
          </ns3:TrackPointExtension>
        </extensions>
      </trkpt>
      <trkpt lat="45.3347639925777912139892578125" lon="-70.963283367455005645751953125">
        <ele>846.4000244140625</ele>
        <time>2026-08-21T18:10:14.000Z</time>
        <extensions>
          <ns3:TrackPointExtension>
            <ns3:hr>130</ns3:hr>
            <ns3:cad>55</ns3:cad>
          </ns3:TrackPointExtension>
        </extensions>
      </trkpt>
      <trkpt lat="45.33475502394139766693115234375" lon="-70.9632939286530017852783203125">
        <ele>846.4000244140625</ele>
        <time>2026-08-21T18:10:15.000Z</time>
        <extensions>
          <ns3:TrackPointExtension>
            <ns3:hr>130</ns3:hr>
            <ns3:cad>55</ns3:cad>
          </ns3:TrackPointExtension>
        </extensions>
      </trkpt>
      <trkpt lat="45.3347435407340526580810546875" lon="-70.96330247819423675537109375">
        <ele>846.4000244140625</ele>
        <time>2026-08-21T18:10:16.000Z</time>
        <extensions>
          <ns3:TrackPointExtension>
            <ns3:hr>130</ns3:hr>
            <ns3:cad>55</ns3:cad>
          </ns3:TrackPointExtension>
        </extensions>
      </trkpt>
      <trkpt lat="45.334731973707675933837890625" lon="-70.96331161446869373321533203125">
        <ele>846.4000244140625</ele>
        <time>2026-08-21T18:10:17.000Z</time>
        <extensions>
          <ns3:TrackPointExtension>
            <ns3:hr>129</ns3:hr>
            <ns3:cad>55</ns3:cad>
          </ns3:TrackPointExtension>
        </extensions>
      </trkpt>
      <trkpt lat="45.334719903767108917236328125" lon="-70.9633230976760387420654296875">
        <ele>846.4000244140625</ele>
        <time>2026-08-21T18:10:18.000Z</time>
        <extensions>
          <ns3:TrackPointExtension>
            <ns3:hr>130</ns3:hr>
            <ns3:cad>55</ns3:cad>
          </ns3:TrackPointExtension>
        </extensions>
      </trkpt>
      <trkpt lat="45.33470657654106616973876953125" lon="-70.9633351676166057586669921875">
        <ele>846.4000244140625</ele>
        <time>2026-08-21T18:10:19.000Z</time>
        <extensions>
          <ns3:TrackPointExtension>
            <ns3:hr>130</ns3:hr>
            <ns3:cad>55</ns3:cad>
          </ns3:TrackPointExtension>
        </extensions>
      </trkpt>
      <trkpt lat="45.3346929140388965606689453125" lon="-70.963348411023616790771484375">
        <ele>846.4000244140625</ele>
        <time>2026-08-21T18:10:20.000Z</time>
        <extensions>
          <ns3:TrackPointExtension>
            <ns3:hr>130</ns3:hr>
            <ns3:cad>55</ns3:cad>
          </ns3:TrackPointExtension>
        </extensions>
      </trkpt>
      <trkpt lat="45.33468361012637615203857421875" lon="-70.96336475573480129241943359375">
        <ele>846.5999755859375</ele>
        <time>2026-08-21T18:10:21.000Z</time>
        <extensions>
          <ns3:TrackPointExtension>
            <ns3:hr>130</ns3:hr>
            <ns3:cad>55</ns3:cad>
          </ns3:TrackPointExtension>
        </extensions>
      </trkpt>
      <trkpt lat="45.334672965109348297119140625" lon="-70.96337682567536830902099609375">
        <ele>846.5999755859375</ele>
        <time>2026-08-21T18:10:22.000Z</time>
        <extensions>
          <ns3:TrackPointExtension>
            <ns3:hr>130</ns3:hr>
            <ns3:cad>55</ns3:cad>
          </ns3:TrackPointExtension>
        </extensions>
      </trkpt>
      <trkpt lat="45.33466550521552562713623046875" lon="-70.96338839270174503326416015625">
        <ele>846.79998779296875</ele>
        <time>2026-08-21T18:10:23.000Z</time>
        <extensions>
          <ns3:TrackPointExtension>
            <ns3:hr>129</ns3:hr>
            <ns3:cad>53</ns3:cad>
          </ns3:TrackPointExtension>
        </extensions>
      </trkpt>
      <trkpt lat="45.3346603922545909881591796875" lon="-70.963408760726451873779296875">
        <ele>847</ele>
        <time>2026-08-21T18:10:24.000Z</time>
        <extensions>
          <ns3:TrackPointExtension>
            <ns3:hr>130</ns3:hr>
            <ns3:cad>53</ns3:cad>
          </ns3:TrackPointExtension>
        </extensions>
      </trkpt>
      <trkpt lat="45.33465377055108547210693359375" lon="-70.96342141740024089813232421875">
        <ele>847.20001220703125</ele>
        <time>2026-08-21T18:10:25.000Z</time>
        <extensions>
          <ns3:TrackPointExtension>
            <ns3:hr>129</ns3:hr>
            <ns3:cad>53</ns3:cad>
          </ns3:TrackPointExtension>
        </extensions>
      </trkpt>
      <trkpt lat="45.3346442990005016326904296875" lon="-70.96343533135950565338134765625">
        <ele>847.4000244140625</ele>
        <time>2026-08-21T18:10:26.000Z</time>
        <extensions>
          <ns3:TrackPointExtension>
            <ns3:hr>129</ns3:hr>
            <ns3:cad>53</ns3:cad>
          </ns3:TrackPointExtension>
        </extensions>
      </trkpt>
      <trkpt lat="45.33463482744991779327392578125" lon="-70.9634478203952312469482421875">
        <ele>847.5999755859375</ele>
        <time>2026-08-21T18:10:27.000Z</time>
        <extensions>
          <ns3:TrackPointExtension>
            <ns3:hr>128</ns3:hr>
            <ns3:cad>52</ns3:cad>
          </ns3:TrackPointExtension>
        </extensions>
      </trkpt>
      <trkpt lat="45.33462359569966793060302734375" lon="-70.9634588845074176788330078125">
        <ele>847.79998779296875</ele>
        <time>2026-08-21T18:10:28.000Z</time>
        <extensions>
          <ns3:TrackPointExtension>
            <ns3:hr>128</ns3:hr>
            <ns3:cad>52</ns3:cad>
          </ns3:TrackPointExtension>
        </extensions>
      </trkpt>
      <trkpt lat="45.33461471088230609893798828125" lon="-70.9634696133434772491455078125">
        <ele>847.79998779296875</ele>
        <time>2026-08-21T18:10:29.000Z</time>
        <extensions>
          <ns3:TrackPointExtension>
            <ns3:hr>127</ns3:hr>
            <ns3:cad>52</ns3:cad>
          </ns3:TrackPointExtension>
        </extensions>
      </trkpt>
      <trkpt lat="45.33460146747529506683349609375" lon="-70.9634793363511562347412109375">
        <ele>847.79998779296875</ele>
        <time>2026-08-21T18:10:30.000Z</time>
        <extensions>
          <ns3:TrackPointExtension>
            <ns3:hr>127</ns3:hr>
            <ns3:cad>52</ns3:cad>
          </ns3:TrackPointExtension>
        </extensions>
      </trkpt>
      <trkpt lat="45.3345873020589351654052734375" lon="-70.96348495222628116607666015625">
        <ele>848</ele>
        <time>2026-08-21T18:10:31.000Z</time>
        <extensions>
          <ns3:TrackPointExtension>
            <ns3:hr>128</ns3:hr>
            <ns3:cad>52</ns3:cad>
          </ns3:TrackPointExtension>
        </extensions>
      </trkpt>
      <trkpt lat="45.3345795907080173492431640625" lon="-70.9634934179484844207763671875">
        <ele>848.20001220703125</ele>
        <time>2026-08-21T18:10:32.000Z</time>
        <extensions>
          <ns3:TrackPointExtension>
            <ns3:hr>129</ns3:hr>
            <ns3:cad>51</ns3:cad>
          </ns3:TrackPointExtension>
        </extensions>
      </trkpt>
      <trkpt lat="45.33456676639616489410400390625" lon="-70.96350632607936859130859375">
        <ele>848.20001220703125</ele>
        <time>2026-08-21T18:10:33.000Z</time>
        <extensions>
          <ns3:TrackPointExtension>
            <ns3:hr>130</ns3:hr>
            <ns3:cad>52</ns3:cad>
          </ns3:TrackPointExtension>
        </extensions>
      </trkpt>
      <trkpt lat="45.33455662429332733154296875" lon="-70.96351562999188899993896484375">
        <ele>848.4000244140625</ele>
        <time>2026-08-21T18:10:34.000Z</time>
        <extensions>
          <ns3:TrackPointExtension>
            <ns3:hr>130</ns3:hr>
            <ns3:cad>52</ns3:cad>
          </ns3:TrackPointExtension>
        </extensions>
      </trkpt>
      <trkpt lat="45.3345450572669506072998046875" lon="-70.96352300606667995452880859375">
        <ele>848.4000244140625</ele>
        <time>2026-08-21T18:10:35.000Z</time>
        <extensions>
          <ns3:TrackPointExtension>
            <ns3:hr>130</ns3:hr>
            <ns3:cad>52</ns3:cad>
          </ns3:TrackPointExtension>
        </extensions>
      </trkpt>
      <trkpt lat="45.33453156240284442901611328125" lon="-70.96353507600724697113037109375">
        <ele>848.4000244140625</ele>
        <time>2026-08-21T18:10:36.000Z</time>
        <extensions>
          <ns3:TrackPointExtension>
            <ns3:hr>130</ns3:hr>
            <ns3:cad>52</ns3:cad>
          </ns3:TrackPointExtension>
        </extensions>
      </trkpt>
      <trkpt lat="45.33451748080551624298095703125" lon="-70.96354446373879909515380859375">
        <ele>848.4000244140625</ele>
        <time>2026-08-21T18:10:37.000Z</time>
        <extensions>
          <ns3:TrackPointExtension>
            <ns3:hr>130</ns3:hr>
            <ns3:cad>52</ns3:cad>
          </ns3:TrackPointExtension>
        </extensions>
      </trkpt>
      <trkpt lat="45.33450163900852203369140625" lon="-70.96355385147035121917724609375">
        <ele>848.4000244140625</ele>
        <time>2026-08-21T18:10:38.000Z</time>
        <extensions>
          <ns3:TrackPointExtension>
            <ns3:hr>130</ns3:hr>
            <ns3:cad>52</ns3:cad>
          </ns3:TrackPointExtension>
        </extensions>
      </trkpt>
      <trkpt lat="45.3344880603253841400146484375" lon="-70.9635665081441402435302734375">
        <ele>848.5999755859375</ele>
        <time>2026-08-21T18:10:39.000Z</time>
        <extensions>
          <ns3:TrackPointExtension>
            <ns3:hr>130</ns3:hr>
            <ns3:cad>52</ns3:cad>
          </ns3:TrackPointExtension>
        </extensions>
      </trkpt>
      <trkpt lat="45.33447439782321453094482421875" lon="-70.96357933245599269866943359375">
        <ele>848.5999755859375</ele>
        <time>2026-08-21T18:10:40.000Z</time>
        <extensions>
          <ns3:TrackPointExtension>
            <ns3:hr>130</ns3:hr>
            <ns3:cad>53</ns3:cad>
          </ns3:TrackPointExtension>
        </extensions>
      </trkpt>
      <trkpt lat="45.33446517772972583770751953125" lon="-70.9635946713387966156005859375">
        <ele>848.5999755859375</ele>
        <time>2026-08-21T18:10:41.000Z</time>
        <extensions>
          <ns3:TrackPointExtension>
            <ns3:hr>130</ns3:hr>
            <ns3:cad>53</ns3:cad>
          </ns3:TrackPointExtension>
        </extensions>
      </trkpt>
      <trkpt lat="45.33445796929299831390380859375" lon="-70.96360850147902965545654296875">
        <ele>848.79998779296875</ele>
        <time>2026-08-21T18:10:42.000Z</time>
        <extensions>
          <ns3:TrackPointExtension>
            <ns3:hr>130</ns3:hr>
            <ns3:cad>57</ns3:cad>
          </ns3:TrackPointExtension>
        </extensions>
      </trkpt>
      <trkpt lat="45.334447324275970458984375" lon="-70.96362157724797725677490234375">
        <ele>848.79998779296875</ele>
        <time>2026-08-21T18:10:43.000Z</time>
        <extensions>
          <ns3:TrackPointExtension>
            <ns3:hr>130</ns3:hr>
            <ns3:cad>57</ns3:cad>
          </ns3:TrackPointExtension>
        </extensions>
      </trkpt>
      <trkpt lat="45.33443584106862545013427734375" lon="-70.96363482065498828887939453125">
        <ele>848.79998779296875</ele>
        <time>2026-08-21T18:10:44.000Z</time>
        <extensions>
          <ns3:TrackPointExtension>
            <ns3:hr>130</ns3:hr>
            <ns3:cad>57</ns3:cad>
          </ns3:TrackPointExtension>
        </extensions>
      </trkpt>
      <trkpt lat="45.3344270400702953338623046875" lon="-70.96365292556583881378173828125">
        <ele>849</ele>
        <time>2026-08-21T18:10:45.000Z</time>
        <extensions>
          <ns3:TrackPointExtension>
            <ns3:hr>130</ns3:hr>
            <ns3:cad>55</ns3:cad>
          </ns3:TrackPointExtension>
        </extensions>
      </trkpt>
      <trkpt lat="45.33441823907196521759033203125" lon="-70.96366834826767444610595703125">
        <ele>849</ele>
        <time>2026-08-21T18:10:46.000Z</time>
        <extensions>
          <ns3:TrackPointExtension>
            <ns3:hr>130</ns3:hr>
            <ns3:cad>55</ns3:cad>
          </ns3:TrackPointExtension>
        </extensions>
      </trkpt>
      <trkpt lat="45.3344079293310642242431640625" lon="-70.9636808373034000396728515625">
        <ele>849.20001220703125</ele>
        <time>2026-08-21T18:10:47.000Z</time>
        <extensions>
          <ns3:TrackPointExtension>
            <ns3:hr>130</ns3:hr>
            <ns3:cad>54</ns3:cad>
          </ns3:TrackPointExtension>
        </extensions>
      </trkpt>
      <trkpt lat="45.3343968652188777923583984375" lon="-70.9636915661394596099853515625">
        <ele>849.20001220703125</ele>
        <time>2026-08-21T18:10:48.000Z</time>
        <extensions>
          <ns3:TrackPointExtension>
            <ns3:hr>131</ns3:hr>
            <ns3:cad>0</ns3:cad>
          </ns3:TrackPointExtension>
        </extensions>
      </trkpt>
      <trkpt lat="45.33438622020184993743896484375" lon="-70.96370137296617031097412109375">
        <ele>849.20001220703125</ele>
        <time>2026-08-21T18:10:49.000Z</time>
        <extensions>
          <ns3:TrackPointExtension>
            <ns3:hr>131</ns3:hr>
            <ns3:cad>0</ns3:cad>
          </ns3:TrackPointExtension>
        </extensions>
      </trkpt>
      <trkpt lat="45.3343774192035198211669921875" lon="-70.96371143124997615814208984375">
        <ele>849.20001220703125</ele>
        <time>2026-08-21T18:10:50.000Z</time>
        <extensions>
          <ns3:TrackPointExtension>
            <ns3:hr>132</ns3:hr>
            <ns3:cad>0</ns3:cad>
          </ns3:TrackPointExtension>
        </extensions>
      </trkpt>
      <trkpt lat="45.3343650139868259429931640625" lon="-70.963723920285701751708984375">
        <ele>849.20001220703125</ele>
        <time>2026-08-21T18:10:51.000Z</time>
        <extensions>
          <ns3:TrackPointExtension>
            <ns3:hr>132</ns3:hr>
            <ns3:cad>0</ns3:cad>
          </ns3:TrackPointExtension>
        </extensions>
      </trkpt>
      <trkpt lat="45.33435453660786151885986328125" lon="-70.96373372711241245269775390625">
        <ele>849.20001220703125</ele>
        <time>2026-08-21T18:10:52.000Z</time>
        <extensions>
          <ns3:TrackPointExtension>
            <ns3:hr>132</ns3:hr>
            <ns3:cad>53</ns3:cad>
          </ns3:TrackPointExtension>
        </extensions>
      </trkpt>
      <trkpt lat="45.33433802425861358642578125" lon="-70.96374127082526683807373046875">
        <ele>849.4000244140625</ele>
        <time>2026-08-21T18:10:53.000Z</time>
        <extensions>
          <ns3:TrackPointExtension>
            <ns3:hr>133</ns3:hr>
            <ns3:cad>53</ns3:cad>
          </ns3:TrackPointExtension>
        </extensions>
      </trkpt>
      <trkpt lat="45.3343251161277294158935546875" lon="-70.9637495689094066619873046875">
        <ele>849.4000244140625</ele>
        <time>2026-08-21T18:10:54.000Z</time>
        <extensions>
          <ns3:TrackPointExtension>
            <ns3:hr>133</ns3:hr>
            <ns3:cad>53</ns3:cad>
          </ns3:TrackPointExtension>
        </extensions>
      </trkpt>
      <trkpt lat="45.33430893905460834503173828125" lon="-70.96375845372676849365234375">
        <ele>849.4000244140625</ele>
        <time>2026-08-21T18:10:55.000Z</time>
        <extensions>
          <ns3:TrackPointExtension>
            <ns3:hr>133</ns3:hr>
            <ns3:cad>55</ns3:cad>
          </ns3:TrackPointExtension>
        </extensions>
      </trkpt>
      <trkpt lat="45.33429770730435848236083984375" lon="-70.96376272849738597869873046875">
        <ele>849.5999755859375</ele>
        <time>2026-08-21T18:10:56.000Z</time>
        <extensions>
          <ns3:TrackPointExtension>
            <ns3:hr>133</ns3:hr>
            <ns3:cad>55</ns3:cad>
          </ns3:TrackPointExtension>
        </extensions>
      </trkpt>
      <trkpt lat="45.33428345806896686553955078125" lon="-70.9637737087905406951904296875">
        <ele>849.5999755859375</ele>
        <time>2026-08-21T18:10:57.000Z</time>
        <extensions>
          <ns3:TrackPointExtension>
            <ns3:hr>132</ns3:hr>
            <ns3:cad>55</ns3:cad>
          </ns3:TrackPointExtension>
        </extensions>
      </trkpt>
      <trkpt lat="45.334270298480987548828125" lon="-70.963790304958820343017578125">
        <ele>849.79998779296875</ele>
        <time>2026-08-21T18:10:58.000Z</time>
        <extensions>
          <ns3:TrackPointExtension>
            <ns3:hr>132</ns3:hr>
            <ns3:cad>53</ns3:cad>
          </ns3:TrackPointExtension>
        </extensions>
      </trkpt>
      <trkpt lat="45.33426099456846714019775390625" lon="-70.9638058952987194061279296875">
        <ele>849.79998779296875</ele>
        <time>2026-08-21T18:10:59.000Z</time>
        <extensions>
          <ns3:TrackPointExtension>
            <ns3:hr>132</ns3:hr>
            <ns3:cad>53</ns3:cad>
          </ns3:TrackPointExtension>
        </extensions>
      </trkpt>
      <trkpt lat="45.33424825407564640045166015625" lon="-70.963821820914745330810546875">
        <ele>850</ele>
        <time>2026-08-21T18:11:00.000Z</time>
        <extensions>
          <ns3:TrackPointExtension>
            <ns3:hr>132</ns3:hr>
            <ns3:cad>53</ns3:cad>
          </ns3:TrackPointExtension>
        </extensions>
      </trkpt>
      <trkpt lat="45.33423668704926967620849609375" lon="-70.96383950673043727874755859375">
        <ele>850</ele>
        <time>2026-08-21T18:11:01.000Z</time>
        <extensions>
          <ns3:TrackPointExtension>
            <ns3:hr>132</ns3:hr>
            <ns3:cad>53</ns3:cad>
          </ns3:TrackPointExtension>
        </extensions>
      </trkpt>
      <trkpt lat="45.33422746695578098297119140625" lon="-70.96385912038385868072509765625">
        <ele>850</ele>
        <time>2026-08-21T18:11:02.000Z</time>
        <extensions>
          <ns3:TrackPointExtension>
            <ns3:hr>132</ns3:hr>
            <ns3:cad>53</ns3:cad>
          </ns3:TrackPointExtension>
        </extensions>
      </trkpt>
      <trkpt lat="45.334216989576816558837890625" lon="-70.96387689001858234405517578125">
        <ele>850</ele>
        <time>2026-08-21T18:11:03.000Z</time>
        <extensions>
          <ns3:TrackPointExtension>
            <ns3:hr>132</ns3:hr>
            <ns3:cad>53</ns3:cad>
          </ns3:TrackPointExtension>
        </extensions>
      </trkpt>
      <trkpt lat="45.3342034108936786651611328125" lon="-70.963888876140117645263671875">
        <ele>850</ele>
        <time>2026-08-21T18:11:04.000Z</time>
        <extensions>
          <ns3:TrackPointExtension>
            <ns3:hr>133</ns3:hr>
            <ns3:cad>53</ns3:cad>
          </ns3:TrackPointExtension>
        </extensions>
      </trkpt>
      <trkpt lat="45.3341911733150482177734375" lon="-70.963900946080684661865234375">
        <ele>850</ele>
        <time>2026-08-21T18:11:05.000Z</time>
        <extensions>
          <ns3:TrackPointExtension>
            <ns3:hr>133</ns3:hr>
            <ns3:cad>53</ns3:cad>
          </ns3:TrackPointExtension>
        </extensions>
      </trkpt>
      <trkpt lat="45.33418019302189350128173828125" lon="-70.9639118425548076629638671875">
        <ele>850.20001220703125</ele>
        <time>2026-08-21T18:11:06.000Z</time>
        <extensions>
          <ns3:TrackPointExtension>
            <ns3:hr>133</ns3:hr>
            <ns3:cad>53</ns3:cad>
          </ns3:TrackPointExtension>
        </extensions>
      </trkpt>
      <trkpt lat="45.33416829071938991546630859375" lon="-70.96392952837049961090087890625">
        <ele>850.20001220703125</ele>
        <time>2026-08-21T18:11:07.000Z</time>
        <extensions>
          <ns3:TrackPointExtension>
            <ns3:hr>133</ns3:hr>
            <ns3:cad>53</ns3:cad>
          </ns3:TrackPointExtension>
        </extensions>
      </trkpt>
      <trkpt lat="45.334157310426235198974609375" lon="-70.9639373235404491424560546875">
        <ele>850.20001220703125</ele>
        <time>2026-08-21T18:11:08.000Z</time>
        <extensions>
          <ns3:TrackPointExtension>
            <ns3:hr>133</ns3:hr>
            <ns3:cad>53</ns3:cad>
          </ns3:TrackPointExtension>
        </extensions>
      </trkpt>
      <trkpt lat="45.33414599485695362091064453125" lon="-70.9639477171003818511962890625">
        <ele>850.4000244140625</ele>
        <time>2026-08-21T18:11:09.000Z</time>
        <extensions>
          <ns3:TrackPointExtension>
            <ns3:hr>133</ns3:hr>
            <ns3:cad>53</ns3:cad>
          </ns3:TrackPointExtension>
        </extensions>
      </trkpt>
      <trkpt lat="45.33413526602089405059814453125" lon="-70.96396557055413722991943359375">
        <ele>850.4000244140625</ele>
        <time>2026-08-21T18:11:10.000Z</time>
        <extensions>
          <ns3:TrackPointExtension>
            <ns3:hr>133</ns3:hr>
            <ns3:cad>54</ns3:cad>
          </ns3:TrackPointExtension>
        </extensions>
      </trkpt>
      <trkpt lat="45.33412923105061054229736328125" lon="-70.963979065418243408203125">
        <ele>850.4000244140625</ele>
        <time>2026-08-21T18:11:11.000Z</time>
        <extensions>
          <ns3:TrackPointExtension>
            <ns3:hr>133</ns3:hr>
            <ns3:cad>54</ns3:cad>
          </ns3:TrackPointExtension>
        </extensions>
      </trkpt>
      <trkpt lat="45.3341179154813289642333984375" lon="-70.9639849327504634857177734375">
        <ele>850.4000244140625</ele>
        <time>2026-08-21T18:11:12.000Z</time>
        <extensions>
          <ns3:TrackPointExtension>
            <ns3:hr>132</ns3:hr>
            <ns3:cad>52</ns3:cad>
          </ns3:TrackPointExtension>
        </extensions>
      </trkpt>
      <trkpt lat="45.33409989438951015472412109375" lon="-70.9640013612806797027587890625">
        <ele>850.5999755859375</ele>
        <time>2026-08-21T18:11:13.000Z</time>
        <extensions>
          <ns3:TrackPointExtension>
            <ns3:hr>133</ns3:hr>
            <ns3:cad>52</ns3:cad>
          </ns3:TrackPointExtension>
        </extensions>
      </trkpt>
      <trkpt lat="45.33408966846764087677001953125" lon="-70.9640238247811794281005859375">
        <ele>850.5999755859375</ele>
        <time>2026-08-21T18:11:14.000Z</time>
        <extensions>
          <ns3:TrackPointExtension>
            <ns3:hr>133</ns3:hr>
            <ns3:cad>52</ns3:cad>
          </ns3:TrackPointExtension>
        </extensions>
      </trkpt>
      <trkpt lat="45.33407541923224925994873046875" lon="-70.9640399180352687835693359375">
        <ele>850.5999755859375</ele>
        <time>2026-08-21T18:11:15.000Z</time>
        <extensions>
          <ns3:TrackPointExtension>
            <ns3:hr>133</ns3:hr>
            <ns3:cad>52</ns3:cad>
          </ns3:TrackPointExtension>
        </extensions>
      </trkpt>
      <trkpt lat="45.33406401984393596649169921875" lon="-70.96405894495546817779541015625">
        <ele>850.5999755859375</ele>
        <time>2026-08-21T18:11:16.000Z</time>
        <extensions>
          <ns3:TrackPointExtension>
            <ns3:hr>132</ns3:hr>
            <ns3:cad>52</ns3:cad>
          </ns3:TrackPointExtension>
        </extensions>
      </trkpt>
      <trkpt lat="45.33405580557882785797119140625" lon="-70.9640778042376041412353515625">
        <ele>850.79998779296875</ele>
        <time>2026-08-21T18:11:17.000Z</time>
        <extensions>
          <ns3:TrackPointExtension>
            <ns3:hr>132</ns3:hr>
            <ns3:cad>52</ns3:cad>
          </ns3:TrackPointExtension>
        </extensions>
      </trkpt>
      <trkpt lat="45.33404700458049774169921875" lon="-70.96409641206264495849609375">
        <ele>850.79998779296875</ele>
        <time>2026-08-21T18:11:18.000Z</time>
        <extensions>
          <ns3:TrackPointExtension>
            <ns3:hr>132</ns3:hr>
            <ns3:cad>52</ns3:cad>
          </ns3:TrackPointExtension>
        </extensions>
      </trkpt>
      <trkpt lat="45.3340414725244045257568359375" lon="-70.9641163609921932220458984375">
        <ele>850.79998779296875</ele>
        <time>2026-08-21T18:11:19.000Z</time>
        <extensions>
          <ns3:TrackPointExtension>
            <ns3:hr>132</ns3:hr>
            <ns3:cad>52</ns3:cad>
          </ns3:TrackPointExtension>
        </extensions>
      </trkpt>
      <trkpt lat="45.33403367735445499420166015625" lon="-70.964134633541107177734375">
        <ele>850.79998779296875</ele>
        <time>2026-08-21T18:11:20.000Z</time>
        <extensions>
          <ns3:TrackPointExtension>
            <ns3:hr>132</ns3:hr>
            <ns3:cad>55</ns3:cad>
          </ns3:TrackPointExtension>
        </extensions>
      </trkpt>
      <trkpt lat="45.33402563072741031646728515625" lon="-70.96415248699486255645751953125">
        <ele>851</ele>
        <time>2026-08-21T18:11:21.000Z</time>
        <extensions>
          <ns3:TrackPointExtension>
            <ns3:hr>132</ns3:hr>
            <ns3:cad>55</ns3:cad>
          </ns3:TrackPointExtension>
        </extensions>
      </trkpt>
      <trkpt lat="45.33401791937649250030517578125" lon="-70.9641735255718231201171875">
        <ele>851</ele>
        <time>2026-08-21T18:11:22.000Z</time>
        <extensions>
          <ns3:TrackPointExtension>
            <ns3:hr>132</ns3:hr>
            <ns3:cad>56</ns3:cad>
          </ns3:TrackPointExtension>
        </extensions>
      </trkpt>
      <trkpt lat="45.3340082801878452301025390625" lon="-70.96418919973075389862060546875">
        <ele>851</ele>
        <time>2026-08-21T18:11:23.000Z</time>
        <extensions>
          <ns3:TrackPointExtension>
            <ns3:hr>132</ns3:hr>
            <ns3:cad>56</ns3:cad>
          </ns3:TrackPointExtension>
        </extensions>
      </trkpt>
      <trkpt lat="45.33399897627532482147216796875" lon="-70.964213423430919647216796875">
        <ele>851.20001220703125</ele>
        <time>2026-08-21T18:11:24.000Z</time>
        <extensions>
          <ns3:TrackPointExtension>
            <ns3:hr>132</ns3:hr>
            <ns3:cad>56</ns3:cad>
          </ns3:TrackPointExtension>
        </extensions>
      </trkpt>
      <trkpt lat="45.3339900076389312744140625" lon="-70.964238233864307403564453125">
        <ele>851.4000244140625</ele>
        <time>2026-08-21T18:11:25.000Z</time>
        <extensions>
          <ns3:TrackPointExtension>
            <ns3:hr>132</ns3:hr>
            <ns3:cad>56</ns3:cad>
          </ns3:TrackPointExtension>
        </extensions>
      </trkpt>
      <trkpt lat="45.3339814580976963043212890625" lon="-70.964268408715724945068359375">
        <ele>851.4000244140625</ele>
        <time>2026-08-21T18:11:26.000Z</time>
        <extensions>
          <ns3:TrackPointExtension>
            <ns3:hr>133</ns3:hr>
            <ns3:cad>56</ns3:cad>
          </ns3:TrackPointExtension>
        </extensions>
      </trkpt>
      <trkpt lat="45.33397701568901538848876953125" lon="-70.964293219149112701416015625">
        <ele>851.4000244140625</ele>
        <time>2026-08-21T18:11:27.000Z</time>
        <extensions>
          <ns3:TrackPointExtension>
            <ns3:hr>133</ns3:hr>
            <ns3:cad>56</ns3:cad>
          </ns3:TrackPointExtension>
        </extensions>
      </trkpt>
      <trkpt lat="45.3339717350900173187255859375" lon="-70.96431903541088104248046875">
        <ele>851.4000244140625</ele>
        <time>2026-08-21T18:11:28.000Z</time>
        <extensions>
          <ns3:TrackPointExtension>
            <ns3:hr>134</ns3:hr>
            <ns3:cad>56</ns3:cad>
          </ns3:TrackPointExtension>
        </extensions>
      </trkpt>
      <trkpt lat="45.333964191377162933349609375" lon="-70.964346192777156829833984375">
        <ele>851.5999755859375</ele>
        <time>2026-08-21T18:11:29.000Z</time>
        <extensions>
          <ns3:TrackPointExtension>
            <ns3:hr>135</ns3:hr>
            <ns3:cad>56</ns3:cad>
          </ns3:TrackPointExtension>
        </extensions>
      </trkpt>
      <trkpt lat="45.33395488746464252471923828125" lon="-70.9643661417067050933837890625">
        <ele>851.5999755859375</ele>
        <time>2026-08-21T18:11:30.000Z</time>
        <extensions>
          <ns3:TrackPointExtension>
            <ns3:hr>135</ns3:hr>
            <ns3:cad>56</ns3:cad>
          </ns3:TrackPointExtension>
        </extensions>
      </trkpt>
      <trkpt lat="45.333945751190185546875" lon="-70.964383743703365325927734375">
        <ele>851.5999755859375</ele>
        <time>2026-08-21T18:11:31.000Z</time>
        <extensions>
          <ns3:TrackPointExtension>
            <ns3:hr>133</ns3:hr>
            <ns3:cad>56</ns3:cad>
          </ns3:TrackPointExtension>
        </extensions>
      </trkpt>
      <trkpt lat="45.33393862657248973846435546875" lon="-70.964405201375484466552734375">
        <ele>851.5999755859375</ele>
        <time>2026-08-21T18:11:32.000Z</time>
        <extensions>
          <ns3:TrackPointExtension>
            <ns3:hr>133</ns3:hr>
            <ns3:cad>56</ns3:cad>
          </ns3:TrackPointExtension>
        </extensions>
      </trkpt>
      <trkpt lat="45.33392253331840038299560546875" lon="-70.96442364156246185302734375">
        <ele>851.5999755859375</ele>
        <time>2026-08-21T18:11:33.000Z</time>
        <extensions>
          <ns3:TrackPointExtension>
            <ns3:hr>133</ns3:hr>
            <ns3:cad>56</ns3:cad>
          </ns3:TrackPointExtension>
        </extensions>
      </trkpt>
      <trkpt lat="45.33391264267265796661376953125" lon="-70.9644392319023609161376953125">
        <ele>851.5999755859375</ele>
        <time>2026-08-21T18:11:34.000Z</time>
        <extensions>
          <ns3:TrackPointExtension>
            <ns3:hr>132</ns3:hr>
            <ns3:cad>56</ns3:cad>
          </ns3:TrackPointExtension>
        </extensions>
      </trkpt>
      <trkpt lat="45.33390409313142299652099609375" lon="-70.96445809118449687957763671875">
        <ele>851.5999755859375</ele>
        <time>2026-08-21T18:11:35.000Z</time>
        <extensions>
          <ns3:TrackPointExtension>
            <ns3:hr>132</ns3:hr>
            <ns3:cad>56</ns3:cad>
          </ns3:TrackPointExtension>
        </extensions>
      </trkpt>
      <trkpt lat="45.3338966332376003265380859375" lon="-70.9644771181046962738037109375">
        <ele>851.5999755859375</ele>
        <time>2026-08-21T18:11:36.000Z</time>
        <extensions>
          <ns3:TrackPointExtension>
            <ns3:hr>132</ns3:hr>
            <ns3:cad>56</ns3:cad>
          </ns3:TrackPointExtension>
        </extensions>
      </trkpt>
      <trkpt lat="45.33388833515346050262451171875" lon="-70.9645022638142108917236328125">
        <ele>851.79998779296875</ele>
        <time>2026-08-21T18:11:37.000Z</time>
        <extensions>
          <ns3:TrackPointExtension>
            <ns3:hr>132</ns3:hr>
            <ns3:cad>56</ns3:cad>
          </ns3:TrackPointExtension>
        </extensions>
      </trkpt>
      <trkpt lat="45.3338815458118915557861328125" lon="-70.9645300917327404022216796875">
        <ele>851.79998779296875</ele>
        <time>2026-08-21T18:11:38.000Z</time>
        <extensions>
          <ns3:TrackPointExtension>
            <ns3:hr>133</ns3:hr>
            <ns3:cad>56</ns3:cad>
          </ns3:TrackPointExtension>
        </extensions>
      </trkpt>
      <trkpt lat="45.33387601375579833984375" lon="-70.9645572490990161895751953125">
        <ele>852</ele>
        <time>2026-08-21T18:11:39.000Z</time>
        <extensions>
          <ns3:TrackPointExtension>
            <ns3:hr>132</ns3:hr>
            <ns3:cad>56</ns3:cad>
          </ns3:TrackPointExtension>
        </extensions>
      </trkpt>
      <trkpt lat="45.33386939205229282379150390625" lon="-70.964576862752437591552734375">
        <ele>852</ele>
        <time>2026-08-21T18:11:40.000Z</time>
        <extensions>
          <ns3:TrackPointExtension>
            <ns3:hr>132</ns3:hr>
            <ns3:cad>0</ns3:cad>
          </ns3:TrackPointExtension>
        </extensions>
      </trkpt>
      <trkpt lat="45.33385899849236011505126953125" lon="-70.96459002234041690826416015625">
        <ele>852</ele>
        <time>2026-08-21T18:11:41.000Z</time>
        <extensions>
          <ns3:TrackPointExtension>
            <ns3:hr>133</ns3:hr>
            <ns3:cad>72</ns3:cad>
          </ns3:TrackPointExtension>
        </extensions>
      </trkpt>
      <trkpt lat="45.3338416479527950286865234375" lon="-70.96460200846195220947265625">
        <ele>852</ele>
        <time>2026-08-21T18:11:42.000Z</time>
        <extensions>
          <ns3:TrackPointExtension>
            <ns3:hr>133</ns3:hr>
            <ns3:cad>72</ns3:cad>
          </ns3:TrackPointExtension>
        </extensions>
      </trkpt>
      <trkpt lat="45.333823375403881072998046875" lon="-70.964620113372802734375">
        <ele>852</ele>
        <time>2026-08-21T18:11:43.000Z</time>
        <extensions>
          <ns3:TrackPointExtension>
            <ns3:hr>133</ns3:hr>
            <ns3:cad>72</ns3:cad>
          </ns3:TrackPointExtension>
        </extensions>
      </trkpt>
      <trkpt lat="45.33380904234945774078369140625" lon="-70.96463553607463836669921875">
        <ele>852</ele>
        <time>2026-08-21T18:11:44.000Z</time>
        <extensions>
          <ns3:TrackPointExtension>
            <ns3:hr>133</ns3:hr>
            <ns3:cad>72</ns3:cad>
          </ns3:TrackPointExtension>
        </extensions>
      </trkpt>
      <trkpt lat="45.33379294909536838531494140625" lon="-70.96464894711971282958984375">
        <ele>852</ele>
        <time>2026-08-21T18:11:45.000Z</time>
        <extensions>
          <ns3:TrackPointExtension>
            <ns3:hr>134</ns3:hr>
            <ns3:cad>72</ns3:cad>
          </ns3:TrackPointExtension>
        </extensions>
      </trkpt>
      <trkpt lat="45.33377744257450103759765625" lon="-70.96466378308832645416259765625">
        <ele>852</ele>
        <time>2026-08-21T18:11:46.000Z</time>
        <extensions>
          <ns3:TrackPointExtension>
            <ns3:hr>135</ns3:hr>
            <ns3:cad>72</ns3:cad>
          </ns3:TrackPointExtension>
        </extensions>
      </trkpt>
      <trkpt lat="45.33376243896782398223876953125" lon="-70.9646806307137012481689453125">
        <ele>852.20001220703125</ele>
        <time>2026-08-21T18:11:47.000Z</time>
        <extensions>
          <ns3:TrackPointExtension>
            <ns3:hr>135</ns3:hr>
            <ns3:cad>72</ns3:cad>
          </ns3:TrackPointExtension>
        </extensions>
      </trkpt>
      <trkpt lat="45.33375489525496959686279296875" lon="-70.9647004120051860809326171875">
        <ele>852.20001220703125</ele>
        <time>2026-08-21T18:11:48.000Z</time>
        <extensions>
          <ns3:TrackPointExtension>
            <ns3:hr>135</ns3:hr>
            <ns3:cad>72</ns3:cad>
          </ns3:TrackPointExtension>
        </extensions>
      </trkpt>
      <trkpt lat="45.33374886028468608856201171875" lon="-70.96471558324992656707763671875">
        <ele>852.20001220703125</ele>
        <time>2026-08-21T18:11:49.000Z</time>
        <extensions>
          <ns3:TrackPointExtension>
            <ns3:hr>136</ns3:hr>
            <ns3:cad>72</ns3:cad>
          </ns3:TrackPointExtension>
        </extensions>
      </trkpt>
      <trkpt lat="45.3337414003908634185791015625" lon="-70.96473301760852336883544921875">
        <ele>852.20001220703125</ele>
        <time>2026-08-21T18:11:50.000Z</time>
        <extensions>
          <ns3:TrackPointExtension>
            <ns3:hr>136</ns3:hr>
            <ns3:cad>72</ns3:cad>
          </ns3:TrackPointExtension>
        </extensions>
      </trkpt>
      <trkpt lat="45.333734191954135894775390625" lon="-70.96474994905292987823486328125">
        <ele>852.4000244140625</ele>
        <time>2026-08-21T18:11:51.000Z</time>
        <extensions>
          <ns3:TrackPointExtension>
            <ns3:hr>136</ns3:hr>
            <ns3:cad>72</ns3:cad>
          </ns3:TrackPointExtension>
        </extensions>
      </trkpt>
      <trkpt lat="45.33373092301189899444580078125" lon="-70.96476486884057521820068359375">
        <ele>852.4000244140625</ele>
        <time>2026-08-21T18:11:52.000Z</time>
        <extensions>
          <ns3:TrackPointExtension>
            <ns3:hr>136</ns3:hr>
            <ns3:cad>72</ns3:cad>
          </ns3:TrackPointExtension>
        </extensions>
      </trkpt>
      <trkpt lat="45.33372790552675724029541015625" lon="-70.96477945335209369659423828125">
        <ele>852.4000244140625</ele>
        <time>2026-08-21T18:11:53.000Z</time>
        <extensions>
          <ns3:TrackPointExtension>
            <ns3:hr>136</ns3:hr>
            <ns3:cad>72</ns3:cad>
          </ns3:TrackPointExtension>
        </extensions>
      </trkpt>
      <trkpt lat="45.3337217867374420166015625" lon="-70.964798144996166229248046875">
        <ele>852.5999755859375</ele>
        <time>2026-08-21T18:11:54.000Z</time>
        <extensions>
          <ns3:TrackPointExtension>
            <ns3:hr>136</ns3:hr>
            <ns3:cad>72</ns3:cad>
          </ns3:TrackPointExtension>
        </extensions>
      </trkpt>
      <trkpt lat="45.3337169252336025238037109375" lon="-70.9648194350302219390869140625">
        <ele>852.5999755859375</ele>
        <time>2026-08-21T18:11:55.000Z</time>
        <extensions>
          <ns3:TrackPointExtension>
            <ns3:hr>136</ns3:hr>
            <ns3:cad>56</ns3:cad>
          </ns3:TrackPointExtension>
        </extensions>
      </trkpt>
      <trkpt lat="45.3337108902633190155029296875" lon="-70.96483695320785045623779296875">
        <ele>852.79998779296875</ele>
        <time>2026-08-21T18:11:56.000Z</time>
        <extensions>
          <ns3:TrackPointExtension>
            <ns3:hr>136</ns3:hr>
            <ns3:cad>56</ns3:cad>
          </ns3:TrackPointExtension>
        </extensions>
      </trkpt>
      <trkpt lat="45.3337065316736698150634765625" lon="-70.96486008726060390472412109375">
        <ele>852.79998779296875</ele>
        <time>2026-08-21T18:11:57.000Z</time>
        <extensions>
          <ns3:TrackPointExtension>
            <ns3:hr>136</ns3:hr>
            <ns3:cad>56</ns3:cad>
          </ns3:TrackPointExtension>
        </extensions>
      </trkpt>
      <trkpt lat="45.333703346550464630126953125" lon="-70.9648844785988330841064453125">
        <ele>853</ele>
        <time>2026-08-21T18:11:58.000Z</time>
        <extensions>
          <ns3:TrackPointExtension>
            <ns3:hr>136</ns3:hr>
            <ns3:cad>56</ns3:cad>
          </ns3:TrackPointExtension>
        </extensions>
      </trkpt>
      <trkpt lat="45.33369840122759342193603515625" lon="-70.96490602008998394012451171875">
        <ele>853</ele>
        <time>2026-08-21T18:11:59.000Z</time>
        <extensions>
          <ns3:TrackPointExtension>
            <ns3:hr>136</ns3:hr>
            <ns3:cad>56</ns3:cad>
          </ns3:TrackPointExtension>
        </extensions>
      </trkpt>
      <trkpt lat="45.33369203098118305206298828125" lon="-70.96492546610534191131591796875">
        <ele>853</ele>
        <time>2026-08-21T18:12:00.000Z</time>
        <extensions>
          <ns3:TrackPointExtension>
            <ns3:hr>137</ns3:hr>
            <ns3:cad>56</ns3:cad>
          </ns3:TrackPointExtension>
        </extensions>
      </trkpt>
      <trkpt lat="45.33368582837283611297607421875" lon="-70.96494407393038272857666015625">
        <ele>853.20001220703125</ele>
        <time>2026-08-21T18:12:01.000Z</time>
        <extensions>
          <ns3:TrackPointExtension>
            <ns3:hr>136</ns3:hr>
            <ns3:cad>56</ns3:cad>
          </ns3:TrackPointExtension>
        </extensions>
      </trkpt>
      <trkpt lat="45.33368088304996490478515625" lon="-70.964967124164104461669921875">
        <ele>853.20001220703125</ele>
        <time>2026-08-21T18:12:02.000Z</time>
        <extensions>
          <ns3:TrackPointExtension>
            <ns3:hr>136</ns3:hr>
            <ns3:cad>56</ns3:cad>
          </ns3:TrackPointExtension>
        </extensions>
      </trkpt>
      <trkpt lat="45.333674848079681396484375" lon="-70.9649830497801303863525390625">
        <ele>853.20001220703125</ele>
        <time>2026-08-21T18:12:03.000Z</time>
        <extensions>
          <ns3:TrackPointExtension>
            <ns3:hr>137</ns3:hr>
            <ns3:cad>57</ns3:cad>
          </ns3:TrackPointExtension>
        </extensions>
      </trkpt>
      <trkpt lat="45.33366680145263671875" lon="-70.9649996459484100341796875">
        <ele>853.20001220703125</ele>
        <time>2026-08-21T18:12:04.000Z</time>
        <extensions>
          <ns3:TrackPointExtension>
            <ns3:hr>137</ns3:hr>
            <ns3:cad>57</ns3:cad>
          </ns3:TrackPointExtension>
        </extensions>
      </trkpt>
      <trkpt lat="45.33365984447300434112548828125" lon="-70.96501640975475311279296875">
        <ele>853.20001220703125</ele>
        <time>2026-08-21T18:12:05.000Z</time>
        <extensions>
          <ns3:TrackPointExtension>
            <ns3:hr>137</ns3:hr>
            <ns3:cad>57</ns3:cad>
          </ns3:TrackPointExtension>
        </extensions>
      </trkpt>
      <trkpt lat="45.3336502052843570709228515625" lon="-70.96502982079982757568359375">
        <ele>853.20001220703125</ele>
        <time>2026-08-21T18:12:06.000Z</time>
        <extensions>
          <ns3:TrackPointExtension>
            <ns3:hr>137</ns3:hr>
            <ns3:cad>56</ns3:cad>
          </ns3:TrackPointExtension>
        </extensions>
      </trkpt>
      <trkpt lat="45.33363704569637775421142578125" lon="-70.9650467522442340850830078125">
        <ele>853.20001220703125</ele>
        <time>2026-08-21T18:12:07.000Z</time>
        <extensions>
          <ns3:TrackPointExtension>
            <ns3:hr>136</ns3:hr>
            <ns3:cad>56</ns3:cad>
          </ns3:TrackPointExtension>
        </extensions>
      </trkpt>
      <trkpt lat="45.33362497575581073760986328125" lon="-70.96507097594439983367919921875">
        <ele>853.20001220703125</ele>
        <time>2026-08-21T18:12:08.000Z</time>
        <extensions>
          <ns3:TrackPointExtension>
            <ns3:hr>137</ns3:hr>
            <ns3:cad>53</ns3:cad>
          </ns3:TrackPointExtension>
        </extensions>
      </trkpt>
      <trkpt lat="45.3336171805858612060546875" lon="-70.96509151160717010498046875">
        <ele>853.20001220703125</ele>
        <time>2026-08-21T18:12:09.000Z</time>
        <extensions>
          <ns3:TrackPointExtension>
            <ns3:hr>137</ns3:hr>
            <ns3:cad>53</ns3:cad>
          </ns3:TrackPointExtension>
        </extensions>
      </trkpt>
      <trkpt lat="45.33360569737851619720458984375" lon="-70.965110957622528076171875">
        <ele>853.4000244140625</ele>
        <time>2026-08-21T18:12:10.000Z</time>
        <extensions>
          <ns3:TrackPointExtension>
            <ns3:hr>137</ns3:hr>
            <ns3:cad>53</ns3:cad>
          </ns3:TrackPointExtension>
        </extensions>
      </trkpt>
      <trkpt lat="45.33359094522893428802490234375" lon="-70.9651248715817928314208984375">
        <ele>853.4000244140625</ele>
        <time>2026-08-21T18:12:11.000Z</time>
        <extensions>
          <ns3:TrackPointExtension>
            <ns3:hr>138</ns3:hr>
            <ns3:cad>53</ns3:cad>
          </ns3:TrackPointExtension>
        </extensions>
      </trkpt>
      <trkpt lat="45.333581306040287017822265625" lon="-70.9651443175971508026123046875">
        <ele>853.4000244140625</ele>
        <time>2026-08-21T18:12:12.000Z</time>
        <extensions>
          <ns3:TrackPointExtension>
            <ns3:hr>137</ns3:hr>
            <ns3:cad>53</ns3:cad>
          </ns3:TrackPointExtension>
        </extensions>
      </trkpt>
      <trkpt lat="45.33357300795614719390869140625" lon="-70.96516317687928676605224609375">
        <ele>853.4000244140625</ele>
        <time>2026-08-21T18:12:13.000Z</time>
        <extensions>
          <ns3:TrackPointExtension>
            <ns3:hr>138</ns3:hr>
            <ns3:cad>53</ns3:cad>
          </ns3:TrackPointExtension>
        </extensions>
      </trkpt>
      <trkpt lat="45.3335616923868656158447265625" lon="-70.9651848860085010528564453125">
        <ele>853.5999755859375</ele>
        <time>2026-08-21T18:12:14.000Z</time>
        <extensions>
          <ns3:TrackPointExtension>
            <ns3:hr>138</ns3:hr>
            <ns3:cad>53</ns3:cad>
          </ns3:TrackPointExtension>
        </extensions>
      </trkpt>
      <trkpt lat="45.33355305902659893035888671875" lon="-70.96520273946225643157958984375">
        <ele>853.5999755859375</ele>
        <time>2026-08-21T18:12:15.000Z</time>
        <extensions>
          <ns3:TrackPointExtension>
            <ns3:hr>138</ns3:hr>
            <ns3:cad>0</ns3:cad>
          </ns3:TrackPointExtension>
        </extensions>
      </trkpt>
      <trkpt lat="45.33354350365698337554931640625" lon="-70.9652251191437244415283203125">
        <ele>853.5999755859375</ele>
        <time>2026-08-21T18:12:16.000Z</time>
        <extensions>
          <ns3:TrackPointExtension>
            <ns3:hr>138</ns3:hr>
            <ns3:cad>0</ns3:cad>
          </ns3:TrackPointExtension>
        </extensions>
      </trkpt>
      <trkpt lat="45.33353595994412899017333984375" lon="-70.965242721140384674072265625">
        <ele>853.5999755859375</ele>
        <time>2026-08-21T18:12:17.000Z</time>
        <extensions>
          <ns3:TrackPointExtension>
            <ns3:hr>137</ns3:hr>
            <ns3:cad>0</ns3:cad>
          </ns3:TrackPointExtension>
        </extensions>
      </trkpt>
      <trkpt lat="45.33352741040289402008056640625" lon="-70.965262837707996368408203125">
        <ele>853.5999755859375</ele>
        <time>2026-08-21T18:12:18.000Z</time>
        <extensions>
          <ns3:TrackPointExtension>
            <ns3:hr>138</ns3:hr>
            <ns3:cad>57</ns3:cad>
          </ns3:TrackPointExtension>
        </extensions>
      </trkpt>
      <trkpt lat="45.33351953141391277313232421875" lon="-70.96527901478111743927001953125">
        <ele>853.5999755859375</ele>
        <time>2026-08-21T18:12:19.000Z</time>
        <extensions>
          <ns3:TrackPointExtension>
            <ns3:hr>138</ns3:hr>
            <ns3:cad>57</ns3:cad>
          </ns3:TrackPointExtension>
        </extensions>
      </trkpt>
      <trkpt lat="45.33351399935781955718994140625" lon="-70.96530298702418804168701171875">
        <ele>853.5999755859375</ele>
        <time>2026-08-21T18:12:20.000Z</time>
        <extensions>
          <ns3:TrackPointExtension>
            <ns3:hr>138</ns3:hr>
            <ns3:cad>57</ns3:cad>
          </ns3:TrackPointExtension>
        </extensions>
      </trkpt>
      <trkpt lat="45.333512909710407257080078125" lon="-70.965322516858577728271484375">
        <ele>853.79998779296875</ele>
        <time>2026-08-21T18:12:21.000Z</time>
        <extensions>
          <ns3:TrackPointExtension>
            <ns3:hr>138</ns3:hr>
            <ns3:cad>57</ns3:cad>
          </ns3:TrackPointExtension>
        </extensions>
      </trkpt>
      <trkpt lat="45.33350922167301177978515625" lon="-70.96533425152301788330078125">
        <ele>853.5999755859375</ele>
        <time>2026-08-21T18:12:22.000Z</time>
        <extensions>
          <ns3:TrackPointExtension>
            <ns3:hr>137</ns3:hr>
            <ns3:cad>57</ns3:cad>
          </ns3:TrackPointExtension>
        </extensions>
      </trkpt>
      <trkpt lat="45.333503186702728271484375" lon="-70.9653461538255214691162109375">
        <ele>853.5999755859375</ele>
        <time>2026-08-21T18:12:23.000Z</time>
        <extensions>
          <ns3:TrackPointExtension>
            <ns3:hr>138</ns3:hr>
            <ns3:cad>55</ns3:cad>
          </ns3:TrackPointExtension>
        </extensions>
      </trkpt>
      <trkpt lat="45.3335060365498065948486328125" lon="-70.965350009500980377197265625">
        <ele>853.79998779296875</ele>
        <time>2026-08-21T18:12:24.000Z</time>
        <extensions>
          <ns3:TrackPointExtension>
            <ns3:hr>138</ns3:hr>
            <ns3:cad>55</ns3:cad>
          </ns3:TrackPointExtension>
        </extensions>
      </trkpt>
      <trkpt lat="45.33351064659655094146728515625" lon="-70.9653404541313648223876953125">
        <ele>853.79998779296875</ele>
        <time>2026-08-21T18:12:25.000Z</time>
        <extensions>
          <ns3:TrackPointExtension>
            <ns3:hr>137</ns3:hr>
            <ns3:cad>0</ns3:cad>
          </ns3:TrackPointExtension>
        </extensions>
      </trkpt>
      <trkpt lat="45.33351299352943897247314453125" lon="-70.965329892933368682861328125">
        <ele>853.79998779296875</ele>
        <time>2026-08-21T18:12:26.000Z</time>
        <extensions>
          <ns3:TrackPointExtension>
            <ns3:hr>137</ns3:hr>
            <ns3:cad>0</ns3:cad>
          </ns3:TrackPointExtension>
        </extensions>
      </trkpt>
      <trkpt lat="45.33350746147334575653076171875" lon="-70.9653314016759395599365234375">
        <ele>853.79998779296875</ele>
        <time>2026-08-21T18:12:27.000Z</time>
        <extensions>
          <ns3:TrackPointExtension>
            <ns3:hr>136</ns3:hr>
            <ns3:cad>0</ns3:cad>
          </ns3:TrackPointExtension>
        </extensions>
      </trkpt>
      <trkpt lat="45.33349673263728618621826171875" lon="-70.965342633426189422607421875">
        <ele>853.79998779296875</ele>
        <time>2026-08-21T18:12:28.000Z</time>
        <extensions>
          <ns3:TrackPointExtension>
            <ns3:hr>136</ns3:hr>
            <ns3:cad>0</ns3:cad>
          </ns3:TrackPointExtension>
        </extensions>
      </trkpt>
      <trkpt lat="45.3334932960569858551025390625" lon="-70.96535461954772472381591796875">
        <ele>853.79998779296875</ele>
        <time>2026-08-21T18:12:29.000Z</time>
        <extensions>
          <ns3:TrackPointExtension>
            <ns3:hr>135</ns3:hr>
            <ns3:cad>0</ns3:cad>
          </ns3:TrackPointExtension>
        </extensions>
      </trkpt>
      <trkpt lat="45.33349069766700267791748046875" lon="-70.96537113189697265625">
        <ele>853.79998779296875</ele>
        <time>2026-08-21T18:12:30.000Z</time>
        <extensions>
          <ns3:TrackPointExtension>
            <ns3:hr>135</ns3:hr>
            <ns3:cad>0</ns3:cad>
          </ns3:TrackPointExtension>
        </extensions>
      </trkpt>
      <trkpt lat="45.33348784781992435455322265625" lon="-70.96538479439914226531982421875">
        <ele>853.79998779296875</ele>
        <time>2026-08-21T18:12:31.000Z</time>
        <extensions>
          <ns3:TrackPointExtension>
            <ns3:hr>134</ns3:hr>
            <ns3:cad>0</ns3:cad>
          </ns3:TrackPointExtension>
        </extensions>
      </trkpt>
      <trkpt lat="45.33348684199154376983642578125" lon="-70.9653971157968044281005859375">
        <ele>853.5999755859375</ele>
        <time>2026-08-21T18:12:32.000Z</time>
        <extensions>
          <ns3:TrackPointExtension>
            <ns3:hr>133</ns3:hr>
            <ns3:cad>0</ns3:cad>
          </ns3:TrackPointExtension>
        </extensions>
      </trkpt>
      <trkpt lat="45.3334879316389560699462890625" lon="-70.9654041565954685211181640625">
        <ele>853.5999755859375</ele>
        <time>2026-08-21T18:12:33.000Z</time>
        <extensions>
          <ns3:TrackPointExtension>
            <ns3:hr>132</ns3:hr>
            <ns3:cad>0</ns3:cad>
          </ns3:TrackPointExtension>
        </extensions>
      </trkpt>
      <trkpt lat="45.33348432742059230804443359375" lon="-70.965409688651561737060546875">
        <ele>853.79998779296875</ele>
        <time>2026-08-21T18:12:34.000Z</time>
        <extensions>
          <ns3:TrackPointExtension>
            <ns3:hr>131</ns3:hr>
            <ns3:cad>0</ns3:cad>
          </ns3:TrackPointExtension>
        </extensions>
      </trkpt>
      <trkpt lat="45.3334818966686725616455078125" lon="-70.96541446633636951446533203125">
        <ele>853.79998779296875</ele>
        <time>2026-08-21T18:12:35.000Z</time>
        <extensions>
          <ns3:TrackPointExtension>
            <ns3:hr>131</ns3:hr>
            <ns3:cad>0</ns3:cad>
          </ns3:TrackPointExtension>
        </extensions>
      </trkpt>
      <trkpt lat="45.33347929827868938446044921875" lon="-70.965417735278606414794921875">
        <ele>853.79998779296875</ele>
        <time>2026-08-21T18:12:36.000Z</time>
        <extensions>
          <ns3:TrackPointExtension>
            <ns3:hr>131</ns3:hr>
            <ns3:cad>0</ns3:cad>
          </ns3:TrackPointExtension>
        </extensions>
      </trkpt>
      <trkpt lat="45.3334798850119113922119140625" lon="-70.96541798673570156097412109375">
        <ele>853.79998779296875</ele>
        <time>2026-08-21T18:12:37.000Z</time>
        <extensions>
          <ns3:TrackPointExtension>
            <ns3:hr>131</ns3:hr>
            <ns3:cad>0</ns3:cad>
          </ns3:TrackPointExtension>
        </extensions>
      </trkpt>
      <trkpt lat="45.3334798850119113922119140625" lon="-70.96541798673570156097412109375">
        <ele>853.79998779296875</ele>
        <time>2026-08-21T18:12:38.000Z</time>
        <extensions>
          <ns3:TrackPointExtension>
            <ns3:hr>132</ns3:hr>
            <ns3:cad>0</ns3:cad>
          </ns3:TrackPointExtension>
        </extensions>
      </trkpt>
      <trkpt lat="45.3334795497357845306396484375" lon="-70.9654179029166698455810546875">
        <ele>853.79998779296875</ele>
        <time>2026-08-21T18:12:39.000Z</time>
        <extensions>
          <ns3:TrackPointExtension>
            <ns3:hr>131</ns3:hr>
            <ns3:cad>0</ns3:cad>
          </ns3:TrackPointExtension>
        </extensions>
      </trkpt>
      <trkpt lat="45.33347561024129390716552734375" lon="-70.9654289670288562774658203125">
        <ele>853.79998779296875</ele>
        <time>2026-08-21T18:12:40.000Z</time>
        <extensions>
          <ns3:TrackPointExtension>
            <ns3:hr>132</ns3:hr>
            <ns3:cad>0</ns3:cad>
          </ns3:TrackPointExtension>
        </extensions>
      </trkpt>
      <trkpt lat="45.333473347127437591552734375" lon="-70.96543692983686923980712890625">
        <ele>853.79998779296875</ele>
        <time>2026-08-21T18:12:41.000Z</time>
        <extensions>
          <ns3:TrackPointExtension>
            <ns3:hr>131</ns3:hr>
            <ns3:cad>0</ns3:cad>
          </ns3:TrackPointExtension>
        </extensions>
      </trkpt>
      <trkpt lat="45.3334681503474712371826171875" lon="-70.96544799394905567169189453125">
        <ele>853.79998779296875</ele>
        <time>2026-08-21T18:12:42.000Z</time>
        <extensions>
          <ns3:TrackPointExtension>
            <ns3:hr>131</ns3:hr>
            <ns3:cad>0</ns3:cad>
          </ns3:TrackPointExtension>
        </extensions>
      </trkpt>
      <trkpt lat="45.33346035517752170562744140625" lon="-70.96546123735606670379638671875">
        <ele>853.79998779296875</ele>
        <time>2026-08-21T18:12:43.000Z</time>
        <extensions>
          <ns3:TrackPointExtension>
            <ns3:hr>130</ns3:hr>
            <ns3:cad>0</ns3:cad>
          </ns3:TrackPointExtension>
        </extensions>
      </trkpt>
      <trkpt lat="45.33345180563628673553466796875" lon="-70.96546961925923824310302734375">
        <ele>853.79998779296875</ele>
        <time>2026-08-21T18:12:44.000Z</time>
        <extensions>
          <ns3:TrackPointExtension>
            <ns3:hr>130</ns3:hr>
            <ns3:cad>0</ns3:cad>
          </ns3:TrackPointExtension>
        </extensions>
      </trkpt>
      <trkpt lat="45.3334440104663372039794921875" lon="-70.96548018045723438262939453125">
        <ele>853.79998779296875</ele>
        <time>2026-08-21T18:12:45.000Z</time>
        <extensions>
          <ns3:TrackPointExtension>
            <ns3:hr>130</ns3:hr>
            <ns3:cad>41</ns3:cad>
          </ns3:TrackPointExtension>
        </extensions>
      </trkpt>
      <trkpt lat="45.33343621529638767242431640625" lon="-70.96548856236040592193603515625">
        <ele>853.79998779296875</ele>
        <time>2026-08-21T18:12:46.000Z</time>
        <extensions>
          <ns3:TrackPointExtension>
            <ns3:hr>129</ns3:hr>
            <ns3:cad>44</ns3:cad>
          </ns3:TrackPointExtension>
        </extensions>
      </trkpt>
      <trkpt lat="45.33342607319355010986328125" lon="-70.96549677662551403045654296875">
        <ele>853.79998779296875</ele>
        <time>2026-08-21T18:12:47.000Z</time>
        <extensions>
          <ns3:TrackPointExtension>
            <ns3:hr>129</ns3:hr>
            <ns3:cad>44</ns3:cad>
          </ns3:TrackPointExtension>
        </extensions>
      </trkpt>
      <trkpt lat="45.3334155119955539703369140625" lon="-70.96550549380481243133544921875">
        <ele>854</ele>
        <time>2026-08-21T18:12:48.000Z</time>
        <extensions>
          <ns3:TrackPointExtension>
            <ns3:hr>128</ns3:hr>
            <ns3:cad>52</ns3:cad>
          </ns3:TrackPointExtension>
        </extensions>
      </trkpt>
      <trkpt lat="45.33340302295982837677001953125" lon="-70.965516977012157440185546875">
        <ele>854</ele>
        <time>2026-08-21T18:12:49.000Z</time>
        <extensions>
          <ns3:TrackPointExtension>
            <ns3:hr>128</ns3:hr>
            <ns3:cad>52</ns3:cad>
          </ns3:TrackPointExtension>
        </extensions>
      </trkpt>
      <trkpt lat="45.33339296467602252960205078125" lon="-70.965529717504978179931640625">
        <ele>854</ele>
        <time>2026-08-21T18:12:50.000Z</time>
        <extensions>
          <ns3:TrackPointExtension>
            <ns3:hr>128</ns3:hr>
            <ns3:cad>52</ns3:cad>
          </ns3:TrackPointExtension>
        </extensions>
      </trkpt>
      <trkpt lat="45.33338340930640697479248046875" lon="-70.96553784795105457305908203125">
        <ele>854</ele>
        <time>2026-08-21T18:12:51.000Z</time>
        <extensions>
          <ns3:TrackPointExtension>
            <ns3:hr>128</ns3:hr>
            <ns3:cad>52</ns3:cad>
          </ns3:TrackPointExtension>
        </extensions>
      </trkpt>
      <trkpt lat="45.33337452448904514312744140625" lon="-70.96554539166390895843505859375">
        <ele>854.20001220703125</ele>
        <time>2026-08-21T18:12:52.000Z</time>
        <extensions>
          <ns3:TrackPointExtension>
            <ns3:hr>128</ns3:hr>
            <ns3:cad>52</ns3:cad>
          </ns3:TrackPointExtension>
        </extensions>
      </trkpt>
      <trkpt lat="45.33336597494781017303466796875" lon="-70.96556014381349086761474609375">
        <ele>854.20001220703125</ele>
        <time>2026-08-21T18:12:53.000Z</time>
        <extensions>
          <ns3:TrackPointExtension>
            <ns3:hr>128</ns3:hr>
            <ns3:cad>53</ns3:cad>
          </ns3:TrackPointExtension>
        </extensions>
      </trkpt>
      <trkpt lat="45.33336144872009754180908203125" lon="-70.96557657234370708465576171875">
        <ele>854.20001220703125</ele>
        <time>2026-08-21T18:12:54.000Z</time>
        <extensions>
          <ns3:TrackPointExtension>
            <ns3:hr>127</ns3:hr>
            <ns3:cad>53</ns3:cad>
          </ns3:TrackPointExtension>
        </extensions>
      </trkpt>
      <trkpt lat="45.33335776068270206451416015625" lon="-70.9655843675136566162109375">
        <ele>854.20001220703125</ele>
        <time>2026-08-21T18:12:55.000Z</time>
        <extensions>
          <ns3:TrackPointExtension>
            <ns3:hr>127</ns3:hr>
            <ns3:cad>52</ns3:cad>
          </ns3:TrackPointExtension>
        </extensions>
      </trkpt>
      <trkpt lat="45.333355329930782318115234375" lon="-70.96559702418744564056396484375">
        <ele>854.4000244140625</ele>
        <time>2026-08-21T18:12:56.000Z</time>
        <extensions>
          <ns3:TrackPointExtension>
            <ns3:hr>126</ns3:hr>
            <ns3:cad>52</ns3:cad>
          </ns3:TrackPointExtension>
        </extensions>
      </trkpt>
      <trkpt lat="45.333352647721767425537109375" lon="-70.9656059928238391876220703125">
        <ele>854.4000244140625</ele>
        <time>2026-08-21T18:12:57.000Z</time>
        <extensions>
          <ns3:TrackPointExtension>
            <ns3:hr>126</ns3:hr>
            <ns3:cad>52</ns3:cad>
          </ns3:TrackPointExtension>
        </extensions>
      </trkpt>
      <trkpt lat="45.33335306681692600250244140625" lon="-70.96561395563185214996337890625">
        <ele>854.4000244140625</ele>
        <time>2026-08-21T18:12:58.000Z</time>
        <extensions>
          <ns3:TrackPointExtension>
            <ns3:hr>126</ns3:hr>
            <ns3:cad>0</ns3:cad>
          </ns3:TrackPointExtension>
        </extensions>
      </trkpt>
      <trkpt lat="45.3333516418933868408203125" lon="-70.965622253715991973876953125">
        <ele>854.4000244140625</ele>
        <time>2026-08-21T18:12:59.000Z</time>
        <extensions>
          <ns3:TrackPointExtension>
            <ns3:hr>127</ns3:hr>
            <ns3:cad>0</ns3:cad>
          </ns3:TrackPointExtension>
        </extensions>
      </trkpt>
      <trkpt lat="45.3333491273224353790283203125" lon="-70.96563423983752727508544921875">
        <ele>854.4000244140625</ele>
        <time>2026-08-21T18:13:00.000Z</time>
        <extensions>
          <ns3:TrackPointExtension>
            <ns3:hr>127</ns3:hr>
            <ns3:cad>0</ns3:cad>
          </ns3:TrackPointExtension>
        </extensions>
      </trkpt>
      <trkpt lat="45.3333491273224353790283203125" lon="-70.9656442143023014068603515625">
        <ele>854.4000244140625</ele>
        <time>2026-08-21T18:13:01.000Z</time>
        <extensions>
          <ns3:TrackPointExtension>
            <ns3:hr>128</ns3:hr>
            <ns3:cad>0</ns3:cad>
          </ns3:TrackPointExtension>
        </extensions>
      </trkpt>
      <trkpt lat="45.33334719948470592498779296875" lon="-70.96565133891999721527099609375">
        <ele>854.4000244140625</ele>
        <time>2026-08-21T18:13:02.000Z</time>
        <extensions>
          <ns3:TrackPointExtension>
            <ns3:hr>128</ns3:hr>
            <ns3:cad>0</ns3:cad>
          </ns3:TrackPointExtension>
        </extensions>
      </trkpt>
      <trkpt lat="45.33335172571241855621337890625" lon="-70.96565854735672473907470703125">
        <ele>854.5999755859375</ele>
        <time>2026-08-21T18:13:03.000Z</time>
        <extensions>
          <ns3:TrackPointExtension>
            <ns3:hr>128</ns3:hr>
            <ns3:cad>0</ns3:cad>
          </ns3:TrackPointExtension>
        </extensions>
      </trkpt>
      <trkpt lat="45.33335457555949687957763671875" lon="-70.9656623192131519317626953125">
        <ele>854.5999755859375</ele>
        <time>2026-08-21T18:13:04.000Z</time>
        <extensions>
          <ns3:TrackPointExtension>
            <ns3:hr>127</ns3:hr>
            <ns3:cad>0</ns3:cad>
          </ns3:TrackPointExtension>
        </extensions>
      </trkpt>
      <trkpt lat="45.333356000483036041259765625" lon="-70.965665839612483978271484375">
        <ele>854.5999755859375</ele>
        <time>2026-08-21T18:13:05.000Z</time>
        <extensions>
          <ns3:TrackPointExtension>
            <ns3:hr>127</ns3:hr>
            <ns3:cad>0</ns3:cad>
          </ns3:TrackPointExtension>
        </extensions>
      </trkpt>
      <trkpt lat="45.3333548270165920257568359375" lon="-70.96566055901348590850830078125">
        <ele>854.5999755859375</ele>
        <time>2026-08-21T18:13:06.000Z</time>
        <extensions>
          <ns3:TrackPointExtension>
            <ns3:hr>126</ns3:hr>
            <ns3:cad>0</ns3:cad>
          </ns3:TrackPointExtension>
        </extensions>
      </trkpt>
      <trkpt lat="45.33335323445498943328857421875" lon="-70.96566340886056423187255859375">
        <ele>854.79998779296875</ele>
        <time>2026-08-21T18:13:07.000Z</time>
        <extensions>
          <ns3:TrackPointExtension>
            <ns3:hr>126</ns3:hr>
            <ns3:cad>0</ns3:cad>
          </ns3:TrackPointExtension>
        </extensions>
      </trkpt>
      <trkpt lat="45.3333484567701816558837890625" lon="-70.96566441468894481658935546875">
        <ele>854.79998779296875</ele>
        <time>2026-08-21T18:13:08.000Z</time>
        <extensions>
          <ns3:TrackPointExtension>
            <ns3:hr>125</ns3:hr>
            <ns3:cad>0</ns3:cad>
          </ns3:TrackPointExtension>
        </extensions>
      </trkpt>
      <trkpt lat="45.33335105516016483306884765625" lon="-70.965667851269245147705078125">
        <ele>854.79998779296875</ele>
        <time>2026-08-21T18:13:09.000Z</time>
        <extensions>
          <ns3:TrackPointExtension>
            <ns3:hr>125</ns3:hr>
            <ns3:cad>0</ns3:cad>
          </ns3:TrackPointExtension>
        </extensions>
      </trkpt>
      <trkpt lat="45.3333516418933868408203125" lon="-70.9656693600118160247802734375">
        <ele>854.5999755859375</ele>
        <time>2026-08-21T18:13:10.000Z</time>
        <extensions>
          <ns3:TrackPointExtension>
            <ns3:hr>124</ns3:hr>
            <ns3:cad>0</ns3:cad>
          </ns3:TrackPointExtension>
        </extensions>
      </trkpt>
      <trkpt lat="45.33335088752210140228271484375" lon="-70.9656767360866069793701171875">
        <ele>854.5999755859375</ele>
        <time>2026-08-21T18:13:11.000Z</time>
        <extensions>
          <ns3:TrackPointExtension>
            <ns3:hr>124</ns3:hr>
            <ns3:cad>0</ns3:cad>
          </ns3:TrackPointExtension>
        </extensions>
      </trkpt>
      <trkpt lat="45.333349965512752532958984375" lon="-70.96568067558109760284423828125">
        <ele>854.5999755859375</ele>
        <time>2026-08-21T18:13:12.000Z</time>
        <extensions>
          <ns3:TrackPointExtension>
            <ns3:hr>124</ns3:hr>
            <ns3:cad>0</ns3:cad>
          </ns3:TrackPointExtension>
        </extensions>
      </trkpt>
      <trkpt lat="45.333347953855991363525390625" lon="-70.96568352542817592620849609375">
        <ele>854.5999755859375</ele>
        <time>2026-08-21T18:13:13.000Z</time>
        <extensions>
          <ns3:TrackPointExtension>
            <ns3:hr>124</ns3:hr>
            <ns3:cad>0</ns3:cad>
          </ns3:TrackPointExtension>
        </extensions>
      </trkpt>
      <trkpt lat="45.33334694802761077880859375" lon="-70.9656898118555545806884765625">
        <ele>854.5999755859375</ele>
        <time>2026-08-21T18:13:14.000Z</time>
        <extensions>
          <ns3:TrackPointExtension>
            <ns3:hr>124</ns3:hr>
            <ns3:cad>0</ns3:cad>
          </ns3:TrackPointExtension>
        </extensions>
      </trkpt>
      <trkpt lat="45.33334585838019847869873046875" lon="-70.96569794230163097381591796875">
        <ele>854.5999755859375</ele>
        <time>2026-08-21T18:13:15.000Z</time>
        <extensions>
          <ns3:TrackPointExtension>
            <ns3:hr>124</ns3:hr>
            <ns3:cad>0</ns3:cad>
          </ns3:TrackPointExtension>
        </extensions>
      </trkpt>
      <trkpt lat="45.33334669657051563262939453125" lon="-70.96570448018610477447509765625">
        <ele>854.5999755859375</ele>
        <time>2026-08-21T18:13:16.000Z</time>
        <extensions>
          <ns3:TrackPointExtension>
            <ns3:hr>123</ns3:hr>
            <ns3:cad>0</ns3:cad>
          </ns3:TrackPointExtension>
        </extensions>
      </trkpt>
      <trkpt lat="45.33334636129438877105712890625" lon="-70.965715460479259490966796875">
        <ele>854.79998779296875</ele>
        <time>2026-08-21T18:13:17.000Z</time>
        <extensions>
          <ns3:TrackPointExtension>
            <ns3:hr>123</ns3:hr>
            <ns3:cad>0</ns3:cad>
          </ns3:TrackPointExtension>
        </extensions>
      </trkpt>
      <trkpt lat="45.3333461098372936248779296875" lon="-70.96572543494403362274169921875">
        <ele>854.79998779296875</ele>
        <time>2026-08-21T18:13:18.000Z</time>
        <extensions>
          <ns3:TrackPointExtension>
            <ns3:hr>123</ns3:hr>
            <ns3:cad>0</ns3:cad>
          </ns3:TrackPointExtension>
        </extensions>
      </trkpt>
      <trkpt lat="45.3333464451134204864501953125" lon="-70.9657372534275054931640625">
        <ele>854.79998779296875</ele>
        <time>2026-08-21T18:13:19.000Z</time>
        <extensions>
          <ns3:TrackPointExtension>
            <ns3:hr>124</ns3:hr>
            <ns3:cad>0</ns3:cad>
          </ns3:TrackPointExtension>
        </extensions>
      </trkpt>
      <trkpt lat="45.3333464451134204864501953125" lon="-70.96574890427291393280029296875">
        <ele>855</ele>
        <time>2026-08-21T18:13:20.000Z</time>
        <extensions>
          <ns3:TrackPointExtension>
            <ns3:hr>123</ns3:hr>
            <ns3:cad>0</ns3:cad>
          </ns3:TrackPointExtension>
        </extensions>
      </trkpt>
      <trkpt lat="45.33334694802761077880859375" lon="-70.96576080657541751861572265625">
        <ele>855.20001220703125</ele>
        <time>2026-08-21T18:13:21.000Z</time>
        <extensions>
          <ns3:TrackPointExtension>
            <ns3:hr>123</ns3:hr>
            <ns3:cad>41</ns3:cad>
          </ns3:TrackPointExtension>
        </extensions>
      </trkpt>
      <trkpt lat="45.33334954641759395599365234375" lon="-70.96577136777341365814208984375">
        <ele>855.4000244140625</ele>
        <time>2026-08-21T18:13:22.000Z</time>
        <extensions>
          <ns3:TrackPointExtension>
            <ns3:hr>123</ns3:hr>
            <ns3:cad>41</ns3:cad>
          </ns3:TrackPointExtension>
        </extensions>
      </trkpt>
      <trkpt lat="45.333351977169513702392578125" lon="-70.9657806716859340667724609375">
        <ele>855.5999755859375</ele>
        <time>2026-08-21T18:13:23.000Z</time>
        <extensions>
          <ns3:TrackPointExtension>
            <ns3:hr>124</ns3:hr>
            <ns3:cad>41</ns3:cad>
          </ns3:TrackPointExtension>
        </extensions>
      </trkpt>
      <trkpt lat="45.33334770239889621734619140625" lon="-70.96579098142683506011962890625">
        <ele>855.79998779296875</ele>
        <time>2026-08-21T18:13:24.000Z</time>
        <extensions>
          <ns3:TrackPointExtension>
            <ns3:hr>124</ns3:hr>
            <ns3:cad>41</ns3:cad>
          </ns3:TrackPointExtension>
        </extensions>
      </trkpt>
      <trkpt lat="45.3333454392850399017333984375" lon="-70.9657924063503742218017578125">
        <ele>856</ele>
        <time>2026-08-21T18:13:25.000Z</time>
        <extensions>
          <ns3:TrackPointExtension>
            <ns3:hr>124</ns3:hr>
            <ns3:cad>41</ns3:cad>
          </ns3:TrackPointExtension>
        </extensions>
      </trkpt>
      <trkpt lat="45.3333437629044055938720703125" lon="-70.9657890535891056060791015625">
        <ele>856.20001220703125</ele>
        <time>2026-08-21T18:13:26.000Z</time>
        <extensions>
          <ns3:TrackPointExtension>
            <ns3:hr>124</ns3:hr>
            <ns3:cad>0</ns3:cad>
          </ns3:TrackPointExtension>
        </extensions>
      </trkpt>
      <trkpt lat="45.3333447687327861785888671875" lon="-70.965788550674915313720703125">
        <ele>856.20001220703125</ele>
        <time>2026-08-21T18:13:27.000Z</time>
        <extensions>
          <ns3:TrackPointExtension>
            <ns3:hr>124</ns3:hr>
            <ns3:cad>0</ns3:cad>
          </ns3:TrackPointExtension>
        </extensions>
      </trkpt>
      <trkpt lat="45.33334426581859588623046875" lon="-70.9657890535891056060791015625">
        <ele>856.20001220703125</ele>
        <time>2026-08-21T18:13:28.000Z</time>
        <extensions>
          <ns3:TrackPointExtension>
            <ns3:hr>123</ns3:hr>
            <ns3:cad>0</ns3:cad>
          </ns3:TrackPointExtension>
        </extensions>
      </trkpt>
      <trkpt lat="45.33334426581859588623046875" lon="-70.9657890535891056060791015625">
        <ele>856.4000244140625</ele>
        <time>2026-08-21T18:13:29.000Z</time>
        <extensions>
          <ns3:TrackPointExtension>
            <ns3:hr>123</ns3:hr>
            <ns3:cad>0</ns3:cad>
          </ns3:TrackPointExtension>
        </extensions>
      </trkpt>
      <trkpt lat="45.33334426581859588623046875" lon="-70.9657890535891056060791015625">
        <ele>856.4000244140625</ele>
        <time>2026-08-21T18:13:30.000Z</time>
        <extensions>
          <ns3:TrackPointExtension>
            <ns3:hr>123</ns3:hr>
            <ns3:cad>0</ns3:cad>
          </ns3:TrackPointExtension>
        </extensions>
      </trkpt>
      <trkpt lat="45.33334426581859588623046875" lon="-70.9657890535891056060791015625">
        <ele>856.4000244140625</ele>
        <time>2026-08-21T18:13:31.000Z</time>
        <extensions>
          <ns3:TrackPointExtension>
            <ns3:hr>122</ns3:hr>
            <ns3:cad>0</ns3:cad>
          </ns3:TrackPointExtension>
        </extensions>
      </trkpt>
      <trkpt lat="45.33334426581859588623046875" lon="-70.9657890535891056060791015625">
        <ele>856.5999755859375</ele>
        <time>2026-08-21T18:13:32.000Z</time>
        <extensions>
          <ns3:TrackPointExtension>
            <ns3:hr>122</ns3:hr>
            <ns3:cad>0</ns3:cad>
          </ns3:TrackPointExtension>
        </extensions>
      </trkpt>
      <trkpt lat="45.33334426581859588623046875" lon="-70.9657890535891056060791015625">
        <ele>856.79998779296875</ele>
        <time>2026-08-21T18:13:33.000Z</time>
        <extensions>
          <ns3:TrackPointExtension>
            <ns3:hr>122</ns3:hr>
            <ns3:cad>0</ns3:cad>
          </ns3:TrackPointExtension>
        </extensions>
      </trkpt>
      <trkpt lat="45.33334426581859588623046875" lon="-70.9657890535891056060791015625">
        <ele>856.79998779296875</ele>
        <time>2026-08-21T18:13:34.000Z</time>
        <extensions>
          <ns3:TrackPointExtension>
            <ns3:hr>122</ns3:hr>
            <ns3:cad>0</ns3:cad>
          </ns3:TrackPointExtension>
        </extensions>
      </trkpt>
      <trkpt lat="45.33334426581859588623046875" lon="-70.9657890535891056060791015625">
        <ele>857</ele>
        <time>2026-08-21T18:13:35.000Z</time>
        <extensions>
          <ns3:TrackPointExtension>
            <ns3:hr>122</ns3:hr>
            <ns3:cad>0</ns3:cad>
          </ns3:TrackPointExtension>
        </extensions>
      </trkpt>
      <trkpt lat="45.33334535546600818634033203125" lon="-70.9657908976078033447265625">
        <ele>857</ele>
        <time>2026-08-21T18:13:36.000Z</time>
        <extensions>
          <ns3:TrackPointExtension>
            <ns3:hr>122</ns3:hr>
            <ns3:cad>0</ns3:cad>
          </ns3:TrackPointExtension>
        </extensions>
      </trkpt>
      <trkpt lat="45.33334602601826190948486328125" lon="-70.9658017940819263458251953125">
        <ele>857.20001220703125</ele>
        <time>2026-08-21T18:13:37.000Z</time>
        <extensions>
          <ns3:TrackPointExtension>
            <ns3:hr>122</ns3:hr>
            <ns3:cad>0</ns3:cad>
          </ns3:TrackPointExtension>
        </extensions>
      </trkpt>
      <trkpt lat="45.33334904350340366363525390625" lon="-70.96580891869962215423583984375">
        <ele>857.4000244140625</ele>
        <time>2026-08-21T18:13:38.000Z</time>
        <extensions>
          <ns3:TrackPointExtension>
            <ns3:hr>122</ns3:hr>
            <ns3:cad>0</ns3:cad>
          </ns3:TrackPointExtension>
        </extensions>
      </trkpt>
      <trkpt lat="45.33334921114146709442138671875" lon="-70.96581478603184223175048828125">
        <ele>857.5999755859375</ele>
        <time>2026-08-21T18:13:39.000Z</time>
        <extensions>
          <ns3:TrackPointExtension>
            <ns3:hr>123</ns3:hr>
            <ns3:cad>0</ns3:cad>
          </ns3:TrackPointExtension>
        </extensions>
      </trkpt>
      <trkpt lat="45.33334870822727680206298828125" lon="-70.96581436693668365478515625">
        <ele>858</ele>
        <time>2026-08-21T18:13:40.000Z</time>
        <extensions>
          <ns3:TrackPointExtension>
            <ns3:hr>124</ns3:hr>
            <ns3:cad>0</ns3:cad>
          </ns3:TrackPointExtension>
        </extensions>
      </trkpt>
      <trkpt lat="45.33335239626467227935791015625" lon="-70.9658229164779186248779296875">
        <ele>858.20001220703125</ele>
        <time>2026-08-21T18:13:41.000Z</time>
        <extensions>
          <ns3:TrackPointExtension>
            <ns3:hr>125</ns3:hr>
            <ns3:cad>0</ns3:cad>
          </ns3:TrackPointExtension>
        </extensions>
      </trkpt>
      <trkpt lat="45.3333568386733531951904296875" lon="-70.96582752652466297149658203125">
        <ele>858.4000244140625</ele>
        <time>2026-08-21T18:13:42.000Z</time>
        <extensions>
          <ns3:TrackPointExtension>
            <ns3:hr>126</ns3:hr>
            <ns3:cad>0</ns3:cad>
          </ns3:TrackPointExtension>
        </extensions>
      </trkpt>
      <trkpt lat="45.33335725776851177215576171875" lon="-70.96582752652466297149658203125">
        <ele>858.5999755859375</ele>
        <time>2026-08-21T18:13:43.000Z</time>
        <extensions>
          <ns3:TrackPointExtension>
            <ns3:hr>126</ns3:hr>
            <ns3:cad>0</ns3:cad>
          </ns3:TrackPointExtension>
        </extensions>
      </trkpt>
      <trkpt lat="45.33336211927235126495361328125" lon="-70.96583624370396137237548828125">
        <ele>858.79998779296875</ele>
        <time>2026-08-21T18:13:44.000Z</time>
        <extensions>
          <ns3:TrackPointExtension>
            <ns3:hr>125</ns3:hr>
            <ns3:cad>0</ns3:cad>
          </ns3:TrackPointExtension>
        </extensions>
      </trkpt>
      <trkpt lat="45.33336262218654155731201171875" lon="-70.96583590842783451080322265625">
        <ele>859</ele>
        <time>2026-08-21T18:13:45.000Z</time>
        <extensions>
          <ns3:TrackPointExtension>
            <ns3:hr>125</ns3:hr>
            <ns3:cad>0</ns3:cad>
          </ns3:TrackPointExtension>
        </extensions>
      </trkpt>
      <trkpt lat="45.33336128108203411102294921875" lon="-70.96584177576005458831787109375">
        <ele>859.20001220703125</ele>
        <time>2026-08-21T18:13:46.000Z</time>
        <extensions>
          <ns3:TrackPointExtension>
            <ns3:hr>125</ns3:hr>
            <ns3:cad>0</ns3:cad>
          </ns3:TrackPointExtension>
        </extensions>
      </trkpt>
      <trkpt lat="45.3333622030913829803466796875" lon="-70.9658433683216571807861328125">
        <ele>859.4000244140625</ele>
        <time>2026-08-21T18:13:47.000Z</time>
        <extensions>
          <ns3:TrackPointExtension>
            <ns3:hr>125</ns3:hr>
            <ns3:cad>0</ns3:cad>
          </ns3:TrackPointExtension>
        </extensions>
      </trkpt>
      <trkpt lat="45.33336547203361988067626953125" lon="-70.9658552706241607666015625">
        <ele>859.5999755859375</ele>
        <time>2026-08-21T18:13:48.000Z</time>
        <extensions>
          <ns3:TrackPointExtension>
            <ns3:hr>125</ns3:hr>
            <ns3:cad>0</ns3:cad>
          </ns3:TrackPointExtension>
        </extensions>
      </trkpt>
      <trkpt lat="45.33336563967168331146240234375" lon="-70.96585652790963649749755859375">
        <ele>859.79998779296875</ele>
        <time>2026-08-21T18:13:49.000Z</time>
        <extensions>
          <ns3:TrackPointExtension>
            <ns3:hr>125</ns3:hr>
            <ns3:cad>0</ns3:cad>
          </ns3:TrackPointExtension>
        </extensions>
      </trkpt>
      <trkpt lat="45.333369411528110504150390625" lon="-70.9658624790608882904052734375">
        <ele>860</ele>
        <time>2026-08-21T18:13:50.000Z</time>
        <extensions>
          <ns3:TrackPointExtension>
            <ns3:hr>126</ns3:hr>
            <ns3:cad>0</ns3:cad>
          </ns3:TrackPointExtension>
        </extensions>
      </trkpt>
      <trkpt lat="45.33337175846099853515625" lon="-70.96586725674569606781005859375">
        <ele>860.20001220703125</ele>
        <time>2026-08-21T18:13:51.000Z</time>
        <extensions>
          <ns3:TrackPointExtension>
            <ns3:hr>126</ns3:hr>
            <ns3:cad>0</ns3:cad>
          </ns3:TrackPointExtension>
        </extensions>
      </trkpt>
      <trkpt lat="45.33336932770907878875732421875" lon="-70.9658681787550449371337890625">
        <ele>860.20001220703125</ele>
        <time>2026-08-21T18:13:52.000Z</time>
        <extensions>
          <ns3:TrackPointExtension>
            <ns3:hr>126</ns3:hr>
            <ns3:cad>0</ns3:cad>
          </ns3:TrackPointExtension>
        </extensions>
      </trkpt>
      <trkpt lat="45.3333665616810321807861328125" lon="-70.96586792729794979095458984375">
        <ele>860.4000244140625</ele>
        <time>2026-08-21T18:13:53.000Z</time>
        <extensions>
          <ns3:TrackPointExtension>
            <ns3:hr>126</ns3:hr>
            <ns3:cad>0</ns3:cad>
          </ns3:TrackPointExtension>
        </extensions>
      </trkpt>
      <trkpt lat="45.33336639404296875" lon="-70.965874381363391876220703125">
        <ele>860.5999755859375</ele>
        <time>2026-08-21T18:13:54.000Z</time>
        <extensions>
          <ns3:TrackPointExtension>
            <ns3:hr>126</ns3:hr>
            <ns3:cad>0</ns3:cad>
          </ns3:TrackPointExtension>
        </extensions>
      </trkpt>
      <trkpt lat="45.333364717662334442138671875" lon="-70.9658802486956119537353515625">
        <ele>860.79998779296875</ele>
        <time>2026-08-21T18:13:55.000Z</time>
        <extensions>
          <ns3:TrackPointExtension>
            <ns3:hr>126</ns3:hr>
            <ns3:cad>0</ns3:cad>
          </ns3:TrackPointExtension>
        </extensions>
      </trkpt>
      <trkpt lat="45.33336698077619075775146484375" lon="-70.9658799134194850921630859375">
        <ele>861</ele>
        <time>2026-08-21T18:13:56.000Z</time>
        <extensions>
          <ns3:TrackPointExtension>
            <ns3:hr>126</ns3:hr>
            <ns3:cad>0</ns3:cad>
          </ns3:TrackPointExtension>
        </extensions>
      </trkpt>
      <trkpt lat="45.33336714841425418853759765625" lon="-70.9658812545239925384521484375">
        <ele>861.20001220703125</ele>
        <time>2026-08-21T18:13:57.000Z</time>
        <extensions>
          <ns3:TrackPointExtension>
            <ns3:hr>126</ns3:hr>
            <ns3:cad>0</ns3:cad>
          </ns3:TrackPointExtension>
        </extensions>
      </trkpt>
      <trkpt lat="45.333367399871349334716796875" lon="-70.9658815898001194000244140625">
        <ele>861.5999755859375</ele>
        <time>2026-08-21T18:13:58.000Z</time>
        <extensions>
          <ns3:TrackPointExtension>
            <ns3:hr>126</ns3:hr>
            <ns3:cad>0</ns3:cad>
          </ns3:TrackPointExtension>
        </extensions>
      </trkpt>
      <trkpt lat="45.3333672322332859039306640625" lon="-70.965881757438182830810546875">
        <ele>861.79998779296875</ele>
        <time>2026-08-21T18:13:59.000Z</time>
        <extensions>
          <ns3:TrackPointExtension>
            <ns3:hr>127</ns3:hr>
            <ns3:cad>0</ns3:cad>
          </ns3:TrackPointExtension>
        </extensions>
      </trkpt>
      <trkpt lat="45.333368740975856781005859375" lon="-70.96588603220880031585693359375">
        <ele>862</ele>
        <time>2026-08-21T18:14:00.000Z</time>
        <extensions>
          <ns3:TrackPointExtension>
            <ns3:hr>127</ns3:hr>
            <ns3:cad>0</ns3:cad>
          </ns3:TrackPointExtension>
        </extensions>
      </trkpt>
      <trkpt lat="45.333369076251983642578125" lon="-70.9658901393413543701171875">
        <ele>862.20001220703125</ele>
        <time>2026-08-21T18:14:01.000Z</time>
        <extensions>
          <ns3:TrackPointExtension>
            <ns3:hr>127</ns3:hr>
            <ns3:cad>0</ns3:cad>
          </ns3:TrackPointExtension>
        </extensions>
      </trkpt>
      <trkpt lat="45.33337418921291828155517578125" lon="-70.96590111963450908660888671875">
        <ele>862.4000244140625</ele>
        <time>2026-08-21T18:14:02.000Z</time>
        <extensions>
          <ns3:TrackPointExtension>
            <ns3:hr>128</ns3:hr>
            <ns3:cad>0</ns3:cad>
          </ns3:TrackPointExtension>
        </extensions>
      </trkpt>
      <trkpt lat="45.33337351866066455841064453125" lon="-70.96590246073901653289794921875">
        <ele>862.79998779296875</ele>
        <time>2026-08-21T18:14:03.000Z</time>
        <extensions>
          <ns3:TrackPointExtension>
            <ns3:hr>128</ns3:hr>
            <ns3:cad>0</ns3:cad>
          </ns3:TrackPointExtension>
        </extensions>
      </trkpt>
      <trkpt lat="45.33337536267936229705810546875" lon="-70.9659094177186489105224609375">
        <ele>863</ele>
        <time>2026-08-21T18:14:04.000Z</time>
        <extensions>
          <ns3:TrackPointExtension>
            <ns3:hr>128</ns3:hr>
            <ns3:cad>0</ns3:cad>
          </ns3:TrackPointExtension>
        </extensions>
      </trkpt>
      <trkpt lat="45.3333769552409648895263671875" lon="-70.9659151174128055572509765625">
        <ele>863.20001220703125</ele>
        <time>2026-08-21T18:14:05.000Z</time>
        <extensions>
          <ns3:TrackPointExtension>
            <ns3:hr>128</ns3:hr>
            <ns3:cad>0</ns3:cad>
          </ns3:TrackPointExtension>
        </extensions>
      </trkpt>
      <trkpt lat="45.333380810916423797607421875" lon="-70.96592358313500881195068359375">
        <ele>863.4000244140625</ele>
        <time>2026-08-21T18:14:06.000Z</time>
        <extensions>
          <ns3:TrackPointExtension>
            <ns3:hr>128</ns3:hr>
            <ns3:cad>0</ns3:cad>
          </ns3:TrackPointExtension>
        </extensions>
      </trkpt>
      <trkpt lat="45.33338072709739208221435546875" lon="-70.96593665890395641326904296875">
        <ele>863.5999755859375</ele>
        <time>2026-08-21T18:14:07.000Z</time>
        <extensions>
          <ns3:TrackPointExtension>
            <ns3:hr>128</ns3:hr>
            <ns3:cad>0</ns3:cad>
          </ns3:TrackPointExtension>
        </extensions>
      </trkpt>
      <trkpt lat="45.33338181674480438232421875" lon="-70.96594504080712795257568359375">
        <ele>863.79998779296875</ele>
        <time>2026-08-21T18:14:08.000Z</time>
        <extensions>
          <ns3:TrackPointExtension>
            <ns3:hr>128</ns3:hr>
            <ns3:cad>0</ns3:cad>
          </ns3:TrackPointExtension>
        </extensions>
      </trkpt>
      <trkpt lat="45.33338047564029693603515625" lon="-70.96594403497874736785888671875">
        <ele>864</ele>
        <time>2026-08-21T18:14:09.000Z</time>
        <extensions>
          <ns3:TrackPointExtension>
            <ns3:hr>129</ns3:hr>
            <ns3:cad>0</ns3:cad>
          </ns3:TrackPointExtension>
        </extensions>
      </trkpt>
      <trkpt lat="45.333381481468677520751953125" lon="-70.9659479744732379913330078125">
        <ele>864.20001220703125</ele>
        <time>2026-08-21T18:14:10.000Z</time>
        <extensions>
          <ns3:TrackPointExtension>
            <ns3:hr>129</ns3:hr>
            <ns3:cad>0</ns3:cad>
          </ns3:TrackPointExtension>
        </extensions>
      </trkpt>
      <trkpt lat="45.33338089473545551300048828125" lon="-70.9659499861299991607666015625">
        <ele>864.4000244140625</ele>
        <time>2026-08-21T18:14:11.000Z</time>
        <extensions>
          <ns3:TrackPointExtension>
            <ns3:hr>130</ns3:hr>
            <ns3:cad>0</ns3:cad>
          </ns3:TrackPointExtension>
        </extensions>
      </trkpt>
      <trkpt lat="45.3333776257932186126708984375" lon="-70.96595250070095062255859375">
        <ele>864.4000244140625</ele>
        <time>2026-08-21T18:14:12.000Z</time>
        <extensions>
          <ns3:TrackPointExtension>
            <ns3:hr>130</ns3:hr>
            <ns3:cad>0</ns3:cad>
          </ns3:TrackPointExtension>
        </extensions>
      </trkpt>
      <trkpt lat="45.33337720669806003570556640625" lon="-70.96594738774001598358154296875">
        <ele>864.5999755859375</ele>
        <time>2026-08-21T18:14:13.000Z</time>
        <extensions>
          <ns3:TrackPointExtension>
            <ns3:hr>131</ns3:hr>
            <ns3:cad>0</ns3:cad>
          </ns3:TrackPointExtension>
        </extensions>
      </trkpt>
      <trkpt lat="45.3333752788603305816650390625" lon="-70.96594856120645999908447265625">
        <ele>864.79998779296875</ele>
        <time>2026-08-21T18:14:14.000Z</time>
        <extensions>
          <ns3:TrackPointExtension>
            <ns3:hr>132</ns3:hr>
            <ns3:cad>0</ns3:cad>
          </ns3:TrackPointExtension>
        </extensions>
      </trkpt>
      <trkpt lat="45.33337519504129886627197265625" lon="-70.96596063114702701568603515625">
        <ele>864.79998779296875</ele>
        <time>2026-08-21T18:14:15.000Z</time>
        <extensions>
          <ns3:TrackPointExtension>
            <ns3:hr>133</ns3:hr>
            <ns3:cad>0</ns3:cad>
          </ns3:TrackPointExtension>
        </extensions>
      </trkpt>
      <trkpt lat="45.333375446498394012451171875" lon="-70.965962223708629608154296875">
        <ele>865</ele>
        <time>2026-08-21T18:14:16.000Z</time>
        <extensions>
          <ns3:TrackPointExtension>
            <ns3:hr>134</ns3:hr>
            <ns3:cad>0</ns3:cad>
          </ns3:TrackPointExtension>
        </extensions>
      </trkpt>
      <trkpt lat="45.33337737433612346649169921875" lon="-70.96596457064151763916015625">
        <ele>865.20001220703125</ele>
        <time>2026-08-21T18:14:17.000Z</time>
        <extensions>
          <ns3:TrackPointExtension>
            <ns3:hr>135</ns3:hr>
            <ns3:cad>0</ns3:cad>
          </ns3:TrackPointExtension>
        </extensions>
      </trkpt>
      <trkpt lat="45.33337972126901149749755859375" lon="-70.9659717790782451629638671875">
        <ele>865.4000244140625</ele>
        <time>2026-08-21T18:14:18.000Z</time>
        <extensions>
          <ns3:TrackPointExtension>
            <ns3:hr>135</ns3:hr>
            <ns3:cad>0</ns3:cad>
          </ns3:TrackPointExtension>
        </extensions>
      </trkpt>
      <trkpt lat="45.333378128707408905029296875" lon="-70.96597840078175067901611328125">
        <ele>865.79998779296875</ele>
        <time>2026-08-21T18:14:19.000Z</time>
        <extensions>
          <ns3:TrackPointExtension>
            <ns3:hr>135</ns3:hr>
            <ns3:cad>0</ns3:cad>
          </ns3:TrackPointExtension>
        </extensions>
      </trkpt>
      <trkpt lat="45.33337318338453769683837890625" lon="-70.96597923897206783294677734375">
        <ele>866</ele>
        <time>2026-08-21T18:14:20.000Z</time>
        <extensions>
          <ns3:TrackPointExtension>
            <ns3:hr>135</ns3:hr>
            <ns3:cad>0</ns3:cad>
          </ns3:TrackPointExtension>
        </extensions>
      </trkpt>
      <trkpt lat="45.33337402157485485076904296875" lon="-70.965987704694271087646484375">
        <ele>866.20001220703125</ele>
        <time>2026-08-21T18:14:21.000Z</time>
        <extensions>
          <ns3:TrackPointExtension>
            <ns3:hr>134</ns3:hr>
            <ns3:cad>0</ns3:cad>
          </ns3:TrackPointExtension>
        </extensions>
      </trkpt>
      <trkpt lat="45.33337385393679141998291015625" lon="-70.96598871052265167236328125">
        <ele>866.4000244140625</ele>
        <time>2026-08-21T18:14:22.000Z</time>
        <extensions>
          <ns3:TrackPointExtension>
            <ns3:hr>134</ns3:hr>
            <ns3:cad>0</ns3:cad>
          </ns3:TrackPointExtension>
        </extensions>
      </trkpt>
      <trkpt lat="45.3333742730319499969482421875" lon="-70.96598896197974681854248046875">
        <ele>866.5999755859375</ele>
        <time>2026-08-21T18:14:23.000Z</time>
        <extensions>
          <ns3:TrackPointExtension>
            <ns3:hr>134</ns3:hr>
            <ns3:cad>0</ns3:cad>
          </ns3:TrackPointExtension>
        </extensions>
      </trkpt>
      <trkpt lat="45.33337402157485485076904296875" lon="-70.96599432639777660369873046875">
        <ele>866.79998779296875</ele>
        <time>2026-08-21T18:14:24.000Z</time>
        <extensions>
          <ns3:TrackPointExtension>
            <ns3:hr>135</ns3:hr>
            <ns3:cad>0</ns3:cad>
          </ns3:TrackPointExtension>
        </extensions>
      </trkpt>
      <trkpt lat="45.3333739377558231353759765625" lon="-70.9659949131309986114501953125">
        <ele>867</ele>
        <time>2026-08-21T18:14:25.000Z</time>
        <extensions>
          <ns3:TrackPointExtension>
            <ns3:hr>135</ns3:hr>
            <ns3:cad>0</ns3:cad>
          </ns3:TrackPointExtension>
        </extensions>
      </trkpt>
      <trkpt lat="45.33337586559355258941650390625" lon="-70.96600304357707500457763671875">
        <ele>867</ele>
        <time>2026-08-21T18:14:26.000Z</time>
        <extensions>
          <ns3:TrackPointExtension>
            <ns3:hr>136</ns3:hr>
            <ns3:cad>68</ns3:cad>
          </ns3:TrackPointExtension>
        </extensions>
      </trkpt>
      <trkpt lat="45.33337703905999660491943359375" lon="-70.96600589342415332794189453125">
        <ele>867.20001220703125</ele>
        <time>2026-08-21T18:14:27.000Z</time>
        <extensions>
          <ns3:TrackPointExtension>
            <ns3:hr>136</ns3:hr>
            <ns3:cad>0</ns3:cad>
          </ns3:TrackPointExtension>
        </extensions>
      </trkpt>
      <trkpt lat="45.33337972126901149749755859375" lon="-70.9660130180418491363525390625">
        <ele>867.4000244140625</ele>
        <time>2026-08-21T18:14:28.000Z</time>
        <extensions>
          <ns3:TrackPointExtension>
            <ns3:hr>136</ns3:hr>
            <ns3:cad>0</ns3:cad>
          </ns3:TrackPointExtension>
        </extensions>
      </trkpt>
      <trkpt lat="45.3333809785544872283935546875" lon="-70.966017544269561767578125">
        <ele>867.5999755859375</ele>
        <time>2026-08-21T18:14:29.000Z</time>
        <extensions>
          <ns3:TrackPointExtension>
            <ns3:hr>136</ns3:hr>
            <ns3:cad>0</ns3:cad>
          </ns3:TrackPointExtension>
        </extensions>
      </trkpt>
      <trkpt lat="45.333383493125438690185546875" lon="-70.96601963974535465240478515625">
        <ele>867.79998779296875</ele>
        <time>2026-08-21T18:14:30.000Z</time>
        <extensions>
          <ns3:TrackPointExtension>
            <ns3:hr>137</ns3:hr>
            <ns3:cad>0</ns3:cad>
          </ns3:TrackPointExtension>
        </extensions>
      </trkpt>
      <trkpt lat="45.333385169506072998046875" lon="-70.9660247527062892913818359375">
        <ele>868</ele>
        <time>2026-08-21T18:14:31.000Z</time>
        <extensions>
          <ns3:TrackPointExtension>
            <ns3:hr>138</ns3:hr>
            <ns3:cad>0</ns3:cad>
          </ns3:TrackPointExtension>
        </extensions>
      </trkpt>
      <trkpt lat="45.3333850018680095672607421875" lon="-70.9660338051617145538330078125">
        <ele>868.20001220703125</ele>
        <time>2026-08-21T18:14:32.000Z</time>
        <extensions>
          <ns3:TrackPointExtension>
            <ns3:hr>138</ns3:hr>
            <ns3:cad>0</ns3:cad>
          </ns3:TrackPointExtension>
        </extensions>
      </trkpt>
      <trkpt lat="45.33338558860123157501220703125" lon="-70.96603137440979480743408203125">
        <ele>868.4000244140625</ele>
        <time>2026-08-21T18:14:33.000Z</time>
        <extensions>
          <ns3:TrackPointExtension>
            <ns3:hr>139</ns3:hr>
            <ns3:cad>0</ns3:cad>
          </ns3:TrackPointExtension>
        </extensions>
      </trkpt>
      <trkpt lat="45.33338542096316814422607421875" lon="-70.96603162586688995361328125">
        <ele>868.79998779296875</ele>
        <time>2026-08-21T18:14:34.000Z</time>
        <extensions>
          <ns3:TrackPointExtension>
            <ns3:hr>139</ns3:hr>
            <ns3:cad>0</ns3:cad>
          </ns3:TrackPointExtension>
        </extensions>
      </trkpt>
      <trkpt lat="45.33338575623929500579833984375" lon="-70.96603724174201488494873046875">
        <ele>869</ele>
        <time>2026-08-21T18:14:35.000Z</time>
        <extensions>
          <ns3:TrackPointExtension>
            <ns3:hr>139</ns3:hr>
            <ns3:cad>0</ns3:cad>
          </ns3:TrackPointExtension>
        </extensions>
      </trkpt>
      <trkpt lat="45.3333865106105804443359375" lon="-70.9660492278635501861572265625">
        <ele>869</ele>
        <time>2026-08-21T18:14:36.000Z</time>
        <extensions>
          <ns3:TrackPointExtension>
            <ns3:hr>140</ns3:hr>
            <ns3:cad>0</ns3:cad>
          </ns3:TrackPointExtension>
        </extensions>
      </trkpt>
      <trkpt lat="45.333388857543468475341796875" lon="-70.96606691367924213409423828125">
        <ele>869.20001220703125</ele>
        <time>2026-08-21T18:14:37.000Z</time>
        <extensions>
          <ns3:TrackPointExtension>
            <ns3:hr>140</ns3:hr>
            <ns3:cad>0</ns3:cad>
          </ns3:TrackPointExtension>
        </extensions>
      </trkpt>
      <trkpt lat="45.3333876840770244598388671875" lon="-70.96607043407857418060302734375">
        <ele>869.4000244140625</ele>
        <time>2026-08-21T18:14:38.000Z</time>
        <extensions>
          <ns3:TrackPointExtension>
            <ns3:hr>140</ns3:hr>
            <ns3:cad>0</ns3:cad>
          </ns3:TrackPointExtension>
        </extensions>
      </trkpt>
      <trkpt lat="45.33338944427669048309326171875" lon="-70.9660805761814117431640625">
        <ele>869.5999755859375</ele>
        <time>2026-08-21T18:14:39.000Z</time>
        <extensions>
          <ns3:TrackPointExtension>
            <ns3:hr>140</ns3:hr>
            <ns3:cad>0</ns3:cad>
          </ns3:TrackPointExtension>
        </extensions>
      </trkpt>
      <trkpt lat="45.33339112065732479095458984375" lon="-70.9660921432077884674072265625">
        <ele>869.79998779296875</ele>
        <time>2026-08-21T18:14:40.000Z</time>
        <extensions>
          <ns3:TrackPointExtension>
            <ns3:hr>140</ns3:hr>
            <ns3:cad>0</ns3:cad>
          </ns3:TrackPointExtension>
        </extensions>
      </trkpt>
      <trkpt lat="45.33339254558086395263671875" lon="-70.9660975076258182525634765625">
        <ele>870.20001220703125</ele>
        <time>2026-08-21T18:14:41.000Z</time>
        <extensions>
          <ns3:TrackPointExtension>
            <ns3:hr>141</ns3:hr>
            <ns3:cad>0</ns3:cad>
          </ns3:TrackPointExtension>
        </extensions>
      </trkpt>
      <trkpt lat="45.33339078538119792938232421875" lon="-70.96609910018742084503173828125">
        <ele>870.4000244140625</ele>
        <time>2026-08-21T18:14:42.000Z</time>
        <extensions>
          <ns3:TrackPointExtension>
            <ns3:hr>141</ns3:hr>
            <ns3:cad>0</ns3:cad>
          </ns3:TrackPointExtension>
        </extensions>
      </trkpt>
      <trkpt lat="45.33338726498186588287353515625" lon="-70.96610731445252895355224609375">
        <ele>870.5999755859375</ele>
        <time>2026-08-21T18:14:43.000Z</time>
        <extensions>
          <ns3:TrackPointExtension>
            <ns3:hr>141</ns3:hr>
            <ns3:cad>0</ns3:cad>
          </ns3:TrackPointExtension>
        </extensions>
      </trkpt>
      <trkpt lat="45.33338625915348529815673828125" lon="-70.96611016429960727691650390625">
        <ele>870.79998779296875</ele>
        <time>2026-08-21T18:14:44.000Z</time>
        <extensions>
          <ns3:TrackPointExtension>
            <ns3:hr>141</ns3:hr>
            <ns3:cad>0</ns3:cad>
          </ns3:TrackPointExtension>
        </extensions>
      </trkpt>
      <trkpt lat="45.333387516438961029052734375" lon="-70.96611418761312961578369140625">
        <ele>870.79998779296875</ele>
        <time>2026-08-21T18:14:45.000Z</time>
        <extensions>
          <ns3:TrackPointExtension>
            <ns3:hr>141</ns3:hr>
            <ns3:cad>0</ns3:cad>
          </ns3:TrackPointExtension>
        </extensions>
      </trkpt>
      <trkpt lat="45.33338676206767559051513671875" lon="-70.96612424589693546295166015625">
        <ele>871</ele>
        <time>2026-08-21T18:14:46.000Z</time>
        <extensions>
          <ns3:TrackPointExtension>
            <ns3:hr>140</ns3:hr>
            <ns3:cad>0</ns3:cad>
          </ns3:TrackPointExtension>
        </extensions>
      </trkpt>
      <trkpt lat="45.33338625915348529815673828125" lon="-70.9661350585520267486572265625">
        <ele>871.20001220703125</ele>
        <time>2026-08-21T18:14:47.000Z</time>
        <extensions>
          <ns3:TrackPointExtension>
            <ns3:hr>140</ns3:hr>
            <ns3:cad>0</ns3:cad>
          </ns3:TrackPointExtension>
        </extensions>
      </trkpt>
      <trkpt lat="45.3333846665918827056884765625" lon="-70.96614486537873744964599609375">
        <ele>871.4000244140625</ele>
        <time>2026-08-21T18:14:48.000Z</time>
        <extensions>
          <ns3:TrackPointExtension>
            <ns3:hr>140</ns3:hr>
            <ns3:cad>0</ns3:cad>
          </ns3:TrackPointExtension>
        </extensions>
      </trkpt>
      <trkpt lat="45.33338424749672412872314453125" lon="-70.96615324728190898895263671875">
        <ele>871.5999755859375</ele>
        <time>2026-08-21T18:14:49.000Z</time>
        <extensions>
          <ns3:TrackPointExtension>
            <ns3:hr>140</ns3:hr>
            <ns3:cad>0</ns3:cad>
          </ns3:TrackPointExtension>
        </extensions>
      </trkpt>
      <trkpt lat="45.33338810317218303680419921875" lon="-70.966162718832492828369140625">
        <ele>871.79998779296875</ele>
        <time>2026-08-21T18:14:50.000Z</time>
        <extensions>
          <ns3:TrackPointExtension>
            <ns3:hr>140</ns3:hr>
            <ns3:cad>0</ns3:cad>
          </ns3:TrackPointExtension>
        </extensions>
      </trkpt>
      <trkpt lat="45.3333985805511474609375" lon="-70.96616900525987148284912109375">
        <ele>872</ele>
        <time>2026-08-21T18:14:51.000Z</time>
        <extensions>
          <ns3:TrackPointExtension>
            <ns3:hr>141</ns3:hr>
            <ns3:cad>0</ns3:cad>
          </ns3:TrackPointExtension>
        </extensions>
      </trkpt>
      <trkpt lat="45.333401598036289215087890625" lon="-70.96617604605853557586669921875">
        <ele>872.20001220703125</ele>
        <time>2026-08-21T18:14:52.000Z</time>
        <extensions>
          <ns3:TrackPointExtension>
            <ns3:hr>141</ns3:hr>
            <ns3:cad>0</ns3:cad>
          </ns3:TrackPointExtension>
        </extensions>
      </trkpt>
      <trkpt lat="45.3333980776369571685791015625" lon="-70.96617202274501323699951171875">
        <ele>872.20001220703125</ele>
        <time>2026-08-21T18:14:53.000Z</time>
        <extensions>
          <ns3:TrackPointExtension>
            <ns3:hr>142</ns3:hr>
            <ns3:cad>0</ns3:cad>
          </ns3:TrackPointExtension>
        </extensions>
      </trkpt>
      <trkpt lat="45.33339849673211574554443359375" lon="-70.96617755480110645294189453125">
        <ele>872.4000244140625</ele>
        <time>2026-08-21T18:14:54.000Z</time>
        <extensions>
          <ns3:TrackPointExtension>
            <ns3:hr>143</ns3:hr>
            <ns3:cad>0</ns3:cad>
          </ns3:TrackPointExtension>
        </extensions>
      </trkpt>
      <trkpt lat="45.33340168185532093048095703125" lon="-70.96617914736270904541015625">
        <ele>872.5999755859375</ele>
        <time>2026-08-21T18:14:55.000Z</time>
        <extensions>
          <ns3:TrackPointExtension>
            <ns3:hr>142</ns3:hr>
            <ns3:cad>0</ns3:cad>
          </ns3:TrackPointExtension>
        </extensions>
      </trkpt>
      <trkpt lat="45.33340050838887691497802734375" lon="-70.96618711017072200775146484375">
        <ele>872.79998779296875</ele>
        <time>2026-08-21T18:14:56.000Z</time>
        <extensions>
          <ns3:TrackPointExtension>
            <ns3:hr>142</ns3:hr>
            <ns3:cad>0</ns3:cad>
          </ns3:TrackPointExtension>
        </extensions>
      </trkpt>
      <trkpt lat="45.3334021009504795074462890625" lon="-70.9661964140832424163818359375">
        <ele>873</ele>
        <time>2026-08-21T18:14:57.000Z</time>
        <extensions>
          <ns3:TrackPointExtension>
            <ns3:hr>142</ns3:hr>
            <ns3:cad>0</ns3:cad>
          </ns3:TrackPointExtension>
        </extensions>
      </trkpt>
      <trkpt lat="45.33340536989271640777587890625" lon="-70.96620806492865085601806640625">
        <ele>873.20001220703125</ele>
        <time>2026-08-21T18:14:58.000Z</time>
        <extensions>
          <ns3:TrackPointExtension>
            <ns3:hr>142</ns3:hr>
            <ns3:cad>0</ns3:cad>
          </ns3:TrackPointExtension>
        </extensions>
      </trkpt>
      <trkpt lat="45.33340805210173130035400390625" lon="-70.966221056878566741943359375">
        <ele>873.4000244140625</ele>
        <time>2026-08-21T18:14:59.000Z</time>
        <extensions>
          <ns3:TrackPointExtension>
            <ns3:hr>142</ns3:hr>
            <ns3:cad>0</ns3:cad>
          </ns3:TrackPointExtension>
        </extensions>
      </trkpt>
      <trkpt lat="45.33341274596750736236572265625" lon="-70.96623589284718036651611328125">
        <ele>873.5999755859375</ele>
        <time>2026-08-21T18:15:00.000Z</time>
        <extensions>
          <ns3:TrackPointExtension>
            <ns3:hr>142</ns3:hr>
            <ns3:cad>0</ns3:cad>
          </ns3:TrackPointExtension>
        </extensions>
      </trkpt>
      <trkpt lat="45.3334138356149196624755859375" lon="-70.96624544821679592132568359375">
        <ele>873.5999755859375</ele>
        <time>2026-08-21T18:15:01.000Z</time>
        <extensions>
          <ns3:TrackPointExtension>
            <ns3:hr>142</ns3:hr>
            <ns3:cad>0</ns3:cad>
          </ns3:TrackPointExtension>
        </extensions>
      </trkpt>
      <trkpt lat="45.3334148414433002471923828125" lon="-70.9662594459950923919677734375">
        <ele>873.79998779296875</ele>
        <time>2026-08-21T18:15:02.000Z</time>
        <extensions>
          <ns3:TrackPointExtension>
            <ns3:hr>142</ns3:hr>
            <ns3:cad>0</ns3:cad>
          </ns3:TrackPointExtension>
        </extensions>
      </trkpt>
      <trkpt lat="45.33341341651976108551025390625" lon="-70.966265983879566192626953125">
        <ele>873.79998779296875</ele>
        <time>2026-08-21T18:15:03.000Z</time>
        <extensions>
          <ns3:TrackPointExtension>
            <ns3:hr>142</ns3:hr>
            <ns3:cad>0</ns3:cad>
          </ns3:TrackPointExtension>
        </extensions>
      </trkpt>
      <trkpt lat="45.3334158472716808319091796875" lon="-70.96627646125853061676025390625">
        <ele>874</ele>
        <time>2026-08-21T18:15:04.000Z</time>
        <extensions>
          <ns3:TrackPointExtension>
            <ns3:hr>142</ns3:hr>
            <ns3:cad>74</ns3:cad>
          </ns3:TrackPointExtension>
        </extensions>
      </trkpt>
      <trkpt lat="45.3334222175180912017822265625" lon="-70.9662825800478458404541015625">
        <ele>874.20001220703125</ele>
        <time>2026-08-21T18:15:05.000Z</time>
        <extensions>
          <ns3:TrackPointExtension>
            <ns3:hr>142</ns3:hr>
            <ns3:cad>74</ns3:cad>
          </ns3:TrackPointExtension>
        </extensions>
      </trkpt>
      <trkpt lat="45.3334262408316135406494140625" lon="-70.96629188396036624908447265625">
        <ele>874.4000244140625</ele>
        <time>2026-08-21T18:15:06.000Z</time>
        <extensions>
          <ns3:TrackPointExtension>
            <ns3:hr>142</ns3:hr>
            <ns3:cad>74</ns3:cad>
          </ns3:TrackPointExtension>
        </extensions>
      </trkpt>
      <trkpt lat="45.33342515118420124053955078125" lon="-70.9662993438541889190673828125">
        <ele>874.5999755859375</ele>
        <time>2026-08-21T18:15:07.000Z</time>
        <extensions>
          <ns3:TrackPointExtension>
            <ns3:hr>142</ns3:hr>
            <ns3:cad>0</ns3:cad>
          </ns3:TrackPointExtension>
        </extensions>
      </trkpt>
      <trkpt lat="45.3334232233464717864990234375" lon="-70.96631057560443878173828125">
        <ele>874.5999755859375</ele>
        <time>2026-08-21T18:15:08.000Z</time>
        <extensions>
          <ns3:TrackPointExtension>
            <ns3:hr>143</ns3:hr>
            <ns3:cad>0</ns3:cad>
          </ns3:TrackPointExtension>
        </extensions>
      </trkpt>
      <trkpt lat="45.33342246897518634796142578125" lon="-70.9663127548992633819580078125">
        <ele>874.79998779296875</ele>
        <time>2026-08-21T18:15:09.000Z</time>
        <extensions>
          <ns3:TrackPointExtension>
            <ns3:hr>143</ns3:hr>
            <ns3:cad>0</ns3:cad>
          </ns3:TrackPointExtension>
        </extensions>
      </trkpt>
      <trkpt lat="45.3334202058613300323486328125" lon="-70.96630864776670932769775390625">
        <ele>874.79998779296875</ele>
        <time>2026-08-21T18:15:10.000Z</time>
        <extensions>
          <ns3:TrackPointExtension>
            <ns3:hr>143</ns3:hr>
            <ns3:cad>0</ns3:cad>
          </ns3:TrackPointExtension>
        </extensions>
      </trkpt>
      <trkpt lat="45.33341978676617145538330078125" lon="-70.96630831249058246612548828125">
        <ele>874.79998779296875</ele>
        <time>2026-08-21T18:15:11.000Z</time>
        <extensions>
          <ns3:TrackPointExtension>
            <ns3:hr>143</ns3:hr>
            <ns3:cad>0</ns3:cad>
          </ns3:TrackPointExtension>
        </extensions>
      </trkpt>
      <trkpt lat="45.33341961912810802459716796875" lon="-70.96630814485251903533935546875">
        <ele>874.79998779296875</ele>
        <time>2026-08-21T18:15:12.000Z</time>
        <extensions>
          <ns3:TrackPointExtension>
            <ns3:hr>143</ns3:hr>
            <ns3:cad>0</ns3:cad>
          </ns3:TrackPointExtension>
        </extensions>
      </trkpt>
      <trkpt lat="45.333417020738124847412109375" lon="-70.9663060493767261505126953125">
        <ele>875</ele>
        <time>2026-08-21T18:15:13.000Z</time>
        <extensions>
          <ns3:TrackPointExtension>
            <ns3:hr>143</ns3:hr>
            <ns3:cad>0</ns3:cad>
          </ns3:TrackPointExtension>
        </extensions>
      </trkpt>
      <trkpt lat="45.3334044478833675384521484375" lon="-70.96630378626286983489990234375">
        <ele>875</ele>
        <time>2026-08-21T18:15:14.000Z</time>
        <extensions>
          <ns3:TrackPointExtension>
            <ns3:hr>143</ns3:hr>
            <ns3:cad>0</ns3:cad>
          </ns3:TrackPointExtension>
        </extensions>
      </trkpt>
      <trkpt lat="45.33339983783662319183349609375" lon="-70.96630579791963100433349609375">
        <ele>875.20001220703125</ele>
        <time>2026-08-21T18:15:15.000Z</time>
        <extensions>
          <ns3:TrackPointExtension>
            <ns3:hr>142</ns3:hr>
            <ns3:cad>0</ns3:cad>
          </ns3:TrackPointExtension>
        </extensions>
      </trkpt>
      <trkpt lat="45.333393551409244537353515625" lon="-70.96631283871829509735107421875">
        <ele>875.4000244140625</ele>
        <time>2026-08-21T18:15:16.000Z</time>
        <extensions>
          <ns3:TrackPointExtension>
            <ns3:hr>142</ns3:hr>
            <ns3:cad>0</ns3:cad>
          </ns3:TrackPointExtension>
        </extensions>
      </trkpt>
      <trkpt lat="45.333385504782199859619140625" lon="-70.9663214720785617828369140625">
        <ele>875.5999755859375</ele>
        <time>2026-08-21T18:15:17.000Z</time>
        <extensions>
          <ns3:TrackPointExtension>
            <ns3:hr>142</ns3:hr>
            <ns3:cad>0</ns3:cad>
          </ns3:TrackPointExtension>
        </extensions>
      </trkpt>
      <trkpt lat="45.333380140364170074462890625" lon="-70.96632993780076503753662109375">
        <ele>875.79998779296875</ele>
        <time>2026-08-21T18:15:18.000Z</time>
        <extensions>
          <ns3:TrackPointExtension>
            <ns3:hr>142</ns3:hr>
            <ns3:cad>0</ns3:cad>
          </ns3:TrackPointExtension>
        </extensions>
      </trkpt>
      <trkpt lat="45.33338055945932865142822265625" lon="-70.96633262000977993011474609375">
        <ele>876</ele>
        <time>2026-08-21T18:15:19.000Z</time>
        <extensions>
          <ns3:TrackPointExtension>
            <ns3:hr>142</ns3:hr>
            <ns3:cad>0</ns3:cad>
          </ns3:TrackPointExtension>
        </extensions>
      </trkpt>
      <trkpt lat="45.3333793021738529205322265625" lon="-70.96633764915168285369873046875">
        <ele>876.20001220703125</ele>
        <time>2026-08-21T18:15:20.000Z</time>
        <extensions>
          <ns3:TrackPointExtension>
            <ns3:hr>142</ns3:hr>
            <ns3:cad>0</ns3:cad>
          </ns3:TrackPointExtension>
        </extensions>
      </trkpt>
      <trkpt lat="45.3333682380616664886474609375" lon="-70.96634007990360260009765625">
        <ele>876.5999755859375</ele>
        <time>2026-08-21T18:15:21.000Z</time>
        <extensions>
          <ns3:TrackPointExtension>
            <ns3:hr>142</ns3:hr>
            <ns3:cad>0</ns3:cad>
          </ns3:TrackPointExtension>
        </extensions>
      </trkpt>
      <trkpt lat="45.33336983062326908111572265625" lon="-70.96633932553231716156005859375">
        <ele>876.79998779296875</ele>
        <time>2026-08-21T18:15:22.000Z</time>
        <extensions>
          <ns3:TrackPointExtension>
            <ns3:hr>142</ns3:hr>
            <ns3:cad>0</ns3:cad>
          </ns3:TrackPointExtension>
        </extensions>
      </trkpt>
      <trkpt lat="45.33336966298520565032958984375" lon="-70.966339074075222015380859375">
        <ele>877</ele>
        <time>2026-08-21T18:15:23.000Z</time>
        <extensions>
          <ns3:TrackPointExtension>
            <ns3:hr>142</ns3:hr>
            <ns3:cad>0</ns3:cad>
          </ns3:TrackPointExtension>
        </extensions>
      </trkpt>
      <trkpt lat="45.33336932770907878875732421875" lon="-70.96633873879909515380859375">
        <ele>877.20001220703125</ele>
        <time>2026-08-21T18:15:24.000Z</time>
        <extensions>
          <ns3:TrackPointExtension>
            <ns3:hr>142</ns3:hr>
            <ns3:cad>0</ns3:cad>
          </ns3:TrackPointExtension>
        </extensions>
      </trkpt>
      <trkpt lat="45.33336178399622440338134765625" lon="-70.9663452766835689544677734375">
        <ele>877.5999755859375</ele>
        <time>2026-08-21T18:15:25.000Z</time>
        <extensions>
          <ns3:TrackPointExtension>
            <ns3:hr>142</ns3:hr>
            <ns3:cad>0</ns3:cad>
          </ns3:TrackPointExtension>
        </extensions>
      </trkpt>
      <trkpt lat="45.33336580730974674224853515625" lon="-70.9663434326648712158203125">
        <ele>877.79998779296875</ele>
        <time>2026-08-21T18:15:26.000Z</time>
        <extensions>
          <ns3:TrackPointExtension>
            <ns3:hr>142</ns3:hr>
            <ns3:cad>0</ns3:cad>
          </ns3:TrackPointExtension>
        </extensions>
      </trkpt>
      <trkpt lat="45.33336278982460498809814453125" lon="-70.96635156311094760894775390625">
        <ele>878</ele>
        <time>2026-08-21T18:15:27.000Z</time>
        <extensions>
          <ns3:TrackPointExtension>
            <ns3:hr>143</ns3:hr>
            <ns3:cad>0</ns3:cad>
          </ns3:TrackPointExtension>
        </extensions>
      </trkpt>
      <trkpt lat="45.333358347415924072265625" lon="-70.96636212430894374847412109375">
        <ele>878.20001220703125</ele>
        <time>2026-08-21T18:15:28.000Z</time>
        <extensions>
          <ns3:TrackPointExtension>
            <ns3:hr>142</ns3:hr>
            <ns3:cad>0</ns3:cad>
          </ns3:TrackPointExtension>
        </extensions>
      </trkpt>
      <trkpt lat="45.33335424028337001800537109375" lon="-70.9663702547550201416015625">
        <ele>878.4000244140625</ele>
        <time>2026-08-21T18:15:29.000Z</time>
        <extensions>
          <ns3:TrackPointExtension>
            <ns3:hr>143</ns3:hr>
            <ns3:cad>0</ns3:cad>
          </ns3:TrackPointExtension>
        </extensions>
      </trkpt>
      <trkpt lat="45.33335055224597454071044921875" lon="-70.9663777984678745269775390625">
        <ele>878.5999755859375</ele>
        <time>2026-08-21T18:15:30.000Z</time>
        <extensions>
          <ns3:TrackPointExtension>
            <ns3:hr>143</ns3:hr>
            <ns3:cad>0</ns3:cad>
          </ns3:TrackPointExtension>
        </extensions>
      </trkpt>
      <trkpt lat="45.333347283303737640380859375" lon="-70.96638559363782405853271484375">
        <ele>878.79998779296875</ele>
        <time>2026-08-21T18:15:31.000Z</time>
        <extensions>
          <ns3:TrackPointExtension>
            <ns3:hr>142</ns3:hr>
            <ns3:cad>0</ns3:cad>
          </ns3:TrackPointExtension>
        </extensions>
      </trkpt>
      <trkpt lat="45.3333444334566593170166015625" lon="-70.9663972444832324981689453125">
        <ele>878.79998779296875</ele>
        <time>2026-08-21T18:15:32.000Z</time>
        <extensions>
          <ns3:TrackPointExtension>
            <ns3:hr>143</ns3:hr>
            <ns3:cad>0</ns3:cad>
          </ns3:TrackPointExtension>
        </extensions>
      </trkpt>
      <trkpt lat="45.33333932049572467803955078125" lon="-70.96640571020543575286865234375">
        <ele>879</ele>
        <time>2026-08-21T18:15:33.000Z</time>
        <extensions>
          <ns3:TrackPointExtension>
            <ns3:hr>143</ns3:hr>
            <ns3:cad>0</ns3:cad>
          </ns3:TrackPointExtension>
        </extensions>
      </trkpt>
      <trkpt lat="45.33333647064864635467529296875" lon="-70.9664096496999263763427734375">
        <ele>879.20001220703125</ele>
        <time>2026-08-21T18:15:34.000Z</time>
        <extensions>
          <ns3:TrackPointExtension>
            <ns3:hr>142</ns3:hr>
            <ns3:cad>76</ns3:cad>
          </ns3:TrackPointExtension>
        </extensions>
      </trkpt>
      <trkpt lat="45.33333395607769489288330078125" lon="-70.9664160199463367462158203125">
        <ele>879.20001220703125</ele>
        <time>2026-08-21T18:15:35.000Z</time>
        <extensions>
          <ns3:TrackPointExtension>
            <ns3:hr>143</ns3:hr>
            <ns3:cad>76</ns3:cad>
          </ns3:TrackPointExtension>
        </extensions>
      </trkpt>
      <trkpt lat="45.33333043567836284637451171875" lon="-70.966422222554683685302734375">
        <ele>879.4000244140625</ele>
        <time>2026-08-21T18:15:36.000Z</time>
        <extensions>
          <ns3:TrackPointExtension>
            <ns3:hr>143</ns3:hr>
            <ns3:cad>76</ns3:cad>
          </ns3:TrackPointExtension>
        </extensions>
      </trkpt>
      <trkpt lat="45.333326160907745361328125" lon="-70.966426245868206024169921875">
        <ele>879.5999755859375</ele>
        <time>2026-08-21T18:15:37.000Z</time>
        <extensions>
          <ns3:TrackPointExtension>
            <ns3:hr>143</ns3:hr>
            <ns3:cad>0</ns3:cad>
          </ns3:TrackPointExtension>
        </extensions>
      </trkpt>
      <trkpt lat="45.33332440070807933807373046875" lon="-70.966430604457855224609375">
        <ele>879.5999755859375</ele>
        <time>2026-08-21T18:15:38.000Z</time>
        <extensions>
          <ns3:TrackPointExtension>
            <ns3:hr>143</ns3:hr>
            <ns3:cad>0</ns3:cad>
          </ns3:TrackPointExtension>
        </extensions>
      </trkpt>
      <trkpt lat="45.3333206288516521453857421875" lon="-70.96643286757171154022216796875">
        <ele>879.79998779296875</ele>
        <time>2026-08-21T18:15:39.000Z</time>
        <extensions>
          <ns3:TrackPointExtension>
            <ns3:hr>144</ns3:hr>
            <ns3:cad>0</ns3:cad>
          </ns3:TrackPointExtension>
        </extensions>
      </trkpt>
      <trkpt lat="45.333315767347812652587890625" lon="-70.96643554978072643280029296875">
        <ele>880</ele>
        <time>2026-08-21T18:15:40.000Z</time>
        <extensions>
          <ns3:TrackPointExtension>
            <ns3:hr>143</ns3:hr>
            <ns3:cad>0</ns3:cad>
          </ns3:TrackPointExtension>
        </extensions>
      </trkpt>
      <trkpt lat="45.3333095647394657135009765625" lon="-70.9664373099803924560546875">
        <ele>880.20001220703125</ele>
        <time>2026-08-21T18:15:41.000Z</time>
        <extensions>
          <ns3:TrackPointExtension>
            <ns3:hr>143</ns3:hr>
            <ns3:cad>0</ns3:cad>
          </ns3:TrackPointExtension>
        </extensions>
      </trkpt>
      <trkpt lat="45.33330244012176990509033203125" lon="-70.96644359640777111053466796875">
        <ele>880.4000244140625</ele>
        <time>2026-08-21T18:15:42.000Z</time>
        <extensions>
          <ns3:TrackPointExtension>
            <ns3:hr>143</ns3:hr>
            <ns3:cad>0</ns3:cad>
          </ns3:TrackPointExtension>
        </extensions>
      </trkpt>
      <trkpt lat="45.3332953155040740966796875" lon="-70.96644862554967403411865234375">
        <ele>880.5999755859375</ele>
        <time>2026-08-21T18:15:43.000Z</time>
        <extensions>
          <ns3:TrackPointExtension>
            <ns3:hr>144</ns3:hr>
            <ns3:cad>0</ns3:cad>
          </ns3:TrackPointExtension>
        </extensions>
      </trkpt>
      <trkpt lat="45.3332938067615032196044921875" lon="-70.96644812263548374176025390625">
        <ele>880.79998779296875</ele>
        <time>2026-08-21T18:15:44.000Z</time>
        <extensions>
          <ns3:TrackPointExtension>
            <ns3:hr>144</ns3:hr>
            <ns3:cad>0</ns3:cad>
          </ns3:TrackPointExtension>
        </extensions>
      </trkpt>
      <trkpt lat="45.33328601159155368804931640625" lon="-70.9664529003202915191650390625">
        <ele>880.79998779296875</ele>
        <time>2026-08-21T18:15:45.000Z</time>
        <extensions>
          <ns3:TrackPointExtension>
            <ns3:hr>144</ns3:hr>
            <ns3:cad>0</ns3:cad>
          </ns3:TrackPointExtension>
        </extensions>
      </trkpt>
      <trkpt lat="45.33327897079288959503173828125" lon="-70.96645751036703586578369140625">
        <ele>881</ele>
        <time>2026-08-21T18:15:46.000Z</time>
        <extensions>
          <ns3:TrackPointExtension>
            <ns3:hr>144</ns3:hr>
            <ns3:cad>0</ns3:cad>
          </ns3:TrackPointExtension>
        </extensions>
      </trkpt>
      <trkpt lat="45.3332773782312870025634765625" lon="-70.96646136604249477386474609375">
        <ele>881.20001220703125</ele>
        <time>2026-08-21T18:15:47.000Z</time>
        <extensions>
          <ns3:TrackPointExtension>
            <ns3:hr>144</ns3:hr>
            <ns3:cad>0</ns3:cad>
          </ns3:TrackPointExtension>
        </extensions>
      </trkpt>
      <trkpt lat="45.33326891250908374786376953125" lon="-70.96646480262279510498046875">
        <ele>881.20001220703125</ele>
        <time>2026-08-21T18:15:48.000Z</time>
        <extensions>
          <ns3:TrackPointExtension>
            <ns3:hr>143</ns3:hr>
            <ns3:cad>0</ns3:cad>
          </ns3:TrackPointExtension>
        </extensions>
      </trkpt>
      <trkpt lat="45.33326421864330768585205078125" lon="-70.96646773628890514373779296875">
        <ele>881.4000244140625</ele>
        <time>2026-08-21T18:15:49.000Z</time>
        <extensions>
          <ns3:TrackPointExtension>
            <ns3:hr>143</ns3:hr>
            <ns3:cad>0</ns3:cad>
          </ns3:TrackPointExtension>
        </extensions>
      </trkpt>
      <trkpt lat="45.33325969241559505462646484375" lon="-70.96647963859140872955322265625">
        <ele>881.5999755859375</ele>
        <time>2026-08-21T18:15:50.000Z</time>
        <extensions>
          <ns3:TrackPointExtension>
            <ns3:hr>143</ns3:hr>
            <ns3:cad>0</ns3:cad>
          </ns3:TrackPointExtension>
        </extensions>
      </trkpt>
      <trkpt lat="45.33324996940791606903076171875" lon="-70.9664936363697052001953125">
        <ele>881.79998779296875</ele>
        <time>2026-08-21T18:15:51.000Z</time>
        <extensions>
          <ns3:TrackPointExtension>
            <ns3:hr>142</ns3:hr>
            <ns3:cad>0</ns3:cad>
          </ns3:TrackPointExtension>
        </extensions>
      </trkpt>
      <trkpt lat="45.3332448564469814300537109375" lon="-70.96649958752095699310302734375">
        <ele>882</ele>
        <time>2026-08-21T18:15:52.000Z</time>
        <extensions>
          <ns3:TrackPointExtension>
            <ns3:hr>142</ns3:hr>
            <ns3:cad>0</ns3:cad>
          </ns3:TrackPointExtension>
        </extensions>
      </trkpt>
      <trkpt lat="45.3332398273050785064697265625" lon="-70.96650092862546443939208984375">
        <ele>882.20001220703125</ele>
        <time>2026-08-21T18:15:53.000Z</time>
        <extensions>
          <ns3:TrackPointExtension>
            <ns3:hr>142</ns3:hr>
            <ns3:cad>0</ns3:cad>
          </ns3:TrackPointExtension>
        </extensions>
      </trkpt>
      <trkpt lat="45.33322918228805065155029296875" lon="-70.96651710569858551025390625">
        <ele>882.4000244140625</ele>
        <time>2026-08-21T18:15:54.000Z</time>
        <extensions>
          <ns3:TrackPointExtension>
            <ns3:hr>142</ns3:hr>
            <ns3:cad>0</ns3:cad>
          </ns3:TrackPointExtension>
        </extensions>
      </trkpt>
      <trkpt lat="45.3332180343568325042724609375" lon="-70.96653093583881855010986328125">
        <ele>882.5999755859375</ele>
        <time>2026-08-21T18:15:55.000Z</time>
        <extensions>
          <ns3:TrackPointExtension>
            <ns3:hr>142</ns3:hr>
            <ns3:cad>0</ns3:cad>
          </ns3:TrackPointExtension>
        </extensions>
      </trkpt>
      <trkpt lat="45.33321124501526355743408203125" lon="-70.9665397368371486663818359375">
        <ele>882.5999755859375</ele>
        <time>2026-08-21T18:15:56.000Z</time>
        <extensions>
          <ns3:TrackPointExtension>
            <ns3:hr>142</ns3:hr>
            <ns3:cad>0</ns3:cad>
          </ns3:TrackPointExtension>
        </extensions>
      </trkpt>
      <trkpt lat="45.3332041203975677490234375" lon="-70.96655071713030338287353515625">
        <ele>882.5999755859375</ele>
        <time>2026-08-21T18:15:57.000Z</time>
        <extensions>
          <ns3:TrackPointExtension>
            <ns3:hr>142</ns3:hr>
            <ns3:cad>0</ns3:cad>
          </ns3:TrackPointExtension>
        </extensions>
      </trkpt>
      <trkpt lat="45.33319666050374507904052734375" lon="-70.96655809320509433746337890625">
        <ele>882.5999755859375</ele>
        <time>2026-08-21T18:15:58.000Z</time>
        <extensions>
          <ns3:TrackPointExtension>
            <ns3:hr>142</ns3:hr>
            <ns3:cad>0</ns3:cad>
          </ns3:TrackPointExtension>
        </extensions>
      </trkpt>
      <trkpt lat="45.33318626694381237030029296875" lon="-70.966564714908599853515625">
        <ele>882.5999755859375</ele>
        <time>2026-08-21T18:15:59.000Z</time>
        <extensions>
          <ns3:TrackPointExtension>
            <ns3:hr>142</ns3:hr>
            <ns3:cad>0</ns3:cad>
          </ns3:TrackPointExtension>
        </extensions>
      </trkpt>
      <trkpt lat="45.33317503519356250762939453125" lon="-70.96657284535467624664306640625">
        <ele>882.5999755859375</ele>
        <time>2026-08-21T18:16:00.000Z</time>
        <extensions>
          <ns3:TrackPointExtension>
            <ns3:hr>142</ns3:hr>
            <ns3:cad>0</ns3:cad>
          </ns3:TrackPointExtension>
        </extensions>
      </trkpt>
      <trkpt lat="45.3331665694713592529296875" lon="-70.9665749408304691314697265625">
        <ele>882.79998779296875</ele>
        <time>2026-08-21T18:16:01.000Z</time>
        <extensions>
          <ns3:TrackPointExtension>
            <ns3:hr>142</ns3:hr>
            <ns3:cad>0</ns3:cad>
          </ns3:TrackPointExtension>
        </extensions>
      </trkpt>
      <trkpt lat="45.3331570141017436981201171875" lon="-70.96657812595367431640625">
        <ele>883</ele>
        <time>2026-08-21T18:16:02.000Z</time>
        <extensions>
          <ns3:TrackPointExtension>
            <ns3:hr>143</ns3:hr>
            <ns3:cad>0</ns3:cad>
          </ns3:TrackPointExtension>
        </extensions>
      </trkpt>
      <trkpt lat="45.33315123058855533599853515625" lon="-70.9665963985025882720947265625">
        <ele>883</ele>
        <time>2026-08-21T18:16:03.000Z</time>
        <extensions>
          <ns3:TrackPointExtension>
            <ns3:hr>143</ns3:hr>
            <ns3:cad>0</ns3:cad>
          </ns3:TrackPointExtension>
        </extensions>
      </trkpt>
      <trkpt lat="45.3331424295902252197265625" lon="-70.966618023812770843505859375">
        <ele>883</ele>
        <time>2026-08-21T18:16:04.000Z</time>
        <extensions>
          <ns3:TrackPointExtension>
            <ns3:hr>144</ns3:hr>
            <ns3:cad>41</ns3:cad>
          </ns3:TrackPointExtension>
        </extensions>
      </trkpt>
      <trkpt lat="45.33313773572444915771484375" lon="-70.96662816591560840606689453125">
        <ele>883</ele>
        <time>2026-08-21T18:16:05.000Z</time>
        <extensions>
          <ns3:TrackPointExtension>
            <ns3:hr>144</ns3:hr>
            <ns3:cad>41</ns3:cad>
          </ns3:TrackPointExtension>
        </extensions>
      </trkpt>
      <trkpt lat="45.33312893472611904144287109375" lon="-70.96663570962846279144287109375">
        <ele>882.79998779296875</ele>
        <time>2026-08-21T18:16:06.000Z</time>
        <extensions>
          <ns3:TrackPointExtension>
            <ns3:hr>144</ns3:hr>
            <ns3:cad>41</ns3:cad>
          </ns3:TrackPointExtension>
        </extensions>
      </trkpt>
      <trkpt lat="45.33312139101326465606689453125" lon="-70.96663772128522396087646484375">
        <ele>882.79998779296875</ele>
        <time>2026-08-21T18:16:07.000Z</time>
        <extensions>
          <ns3:TrackPointExtension>
            <ns3:hr>145</ns3:hr>
            <ns3:cad>41</ns3:cad>
          </ns3:TrackPointExtension>
        </extensions>
      </trkpt>
      <trkpt lat="45.333113260567188262939453125" lon="-70.9666416607797145843505859375">
        <ele>882.79998779296875</ele>
        <time>2026-08-21T18:16:08.000Z</time>
        <extensions>
          <ns3:TrackPointExtension>
            <ns3:hr>145</ns3:hr>
            <ns3:cad>41</ns3:cad>
          </ns3:TrackPointExtension>
        </extensions>
      </trkpt>
      <trkpt lat="45.33309909515082836151123046875" lon="-70.96665079705417156219482421875">
        <ele>882.79998779296875</ele>
        <time>2026-08-21T18:16:09.000Z</time>
        <extensions>
          <ns3:TrackPointExtension>
            <ns3:hr>145</ns3:hr>
            <ns3:cad>0</ns3:cad>
          </ns3:TrackPointExtension>
        </extensions>
      </trkpt>
      <trkpt lat="45.33308769576251506805419921875" lon="-70.9666611067950725555419921875">
        <ele>882.79998779296875</ele>
        <time>2026-08-21T18:16:10.000Z</time>
        <extensions>
          <ns3:TrackPointExtension>
            <ns3:hr>145</ns3:hr>
            <ns3:cad>0</ns3:cad>
          </ns3:TrackPointExtension>
        </extensions>
      </trkpt>
      <trkpt lat="45.3330758772790431976318359375" lon="-70.9666694886982440948486328125">
        <ele>882.79998779296875</ele>
        <time>2026-08-21T18:16:11.000Z</time>
        <extensions>
          <ns3:TrackPointExtension>
            <ns3:hr>145</ns3:hr>
            <ns3:cad>0</ns3:cad>
          </ns3:TrackPointExtension>
        </extensions>
      </trkpt>
      <trkpt lat="45.333066321909427642822265625" lon="-70.96668113954365253448486328125">
        <ele>882.79998779296875</ele>
        <time>2026-08-21T18:16:12.000Z</time>
        <extensions>
          <ns3:TrackPointExtension>
            <ns3:hr>144</ns3:hr>
            <ns3:cad>0</ns3:cad>
          </ns3:TrackPointExtension>
        </extensions>
      </trkpt>
      <trkpt lat="45.333056263625621795654296875" lon="-70.966692455112934112548828125">
        <ele>882.79998779296875</ele>
        <time>2026-08-21T18:16:13.000Z</time>
        <extensions>
          <ns3:TrackPointExtension>
            <ns3:hr>144</ns3:hr>
            <ns3:cad>0</ns3:cad>
          </ns3:TrackPointExtension>
        </extensions>
      </trkpt>
      <trkpt lat="45.33304729498922824859619140625" lon="-70.96670083701610565185546875">
        <ele>882.79998779296875</ele>
        <time>2026-08-21T18:16:14.000Z</time>
        <extensions>
          <ns3:TrackPointExtension>
            <ns3:hr>144</ns3:hr>
            <ns3:cad>51</ns3:cad>
          </ns3:TrackPointExtension>
        </extensions>
      </trkpt>
      <trkpt lat="45.3330379910767078399658203125" lon="-70.9667140804231166839599609375">
        <ele>882.79998779296875</ele>
        <time>2026-08-21T18:16:15.000Z</time>
        <extensions>
          <ns3:TrackPointExtension>
            <ns3:hr>143</ns3:hr>
            <ns3:cad>51</ns3:cad>
          </ns3:TrackPointExtension>
        </extensions>
      </trkpt>
      <trkpt lat="45.33303338102996349334716796875" lon="-70.96673394553363323211669921875">
        <ele>882.79998779296875</ele>
        <time>2026-08-21T18:16:16.000Z</time>
        <extensions>
          <ns3:TrackPointExtension>
            <ns3:hr>143</ns3:hr>
            <ns3:cad>51</ns3:cad>
          </ns3:TrackPointExtension>
        </extensions>
      </trkpt>
      <trkpt lat="45.3330229036509990692138671875" lon="-70.96675003878772258758544921875">
        <ele>882.5999755859375</ele>
        <time>2026-08-21T18:16:17.000Z</time>
        <extensions>
          <ns3:TrackPointExtension>
            <ns3:hr>142</ns3:hr>
            <ns3:cad>51</ns3:cad>
          </ns3:TrackPointExtension>
        </extensions>
      </trkpt>
      <trkpt lat="45.33301569521427154541015625" lon="-70.966763533651828765869140625">
        <ele>882.5999755859375</ele>
        <time>2026-08-21T18:16:18.000Z</time>
        <extensions>
          <ns3:TrackPointExtension>
            <ns3:hr>141</ns3:hr>
            <ns3:cad>51</ns3:cad>
          </ns3:TrackPointExtension>
        </extensions>
      </trkpt>
      <trkpt lat="45.33300722949206829071044921875" lon="-70.9667740948498249053955078125">
        <ele>882.5999755859375</ele>
        <time>2026-08-21T18:16:19.000Z</time>
        <extensions>
          <ns3:TrackPointExtension>
            <ns3:hr>140</ns3:hr>
            <ns3:cad>53</ns3:cad>
          </ns3:TrackPointExtension>
        </extensions>
      </trkpt>
      <trkpt lat="45.333001278340816497802734375" lon="-70.96678641624748706817626953125">
        <ele>882.4000244140625</ele>
        <time>2026-08-21T18:16:20.000Z</time>
        <extensions>
          <ns3:TrackPointExtension>
            <ns3:hr>140</ns3:hr>
            <ns3:cad>53</ns3:cad>
          </ns3:TrackPointExtension>
        </extensions>
      </trkpt>
      <trkpt lat="45.33299583010375499725341796875" lon="-70.96679748035967350006103515625">
        <ele>882.20001220703125</ele>
        <time>2026-08-21T18:16:21.000Z</time>
        <extensions>
          <ns3:TrackPointExtension>
            <ns3:hr>139</ns3:hr>
            <ns3:cad>53</ns3:cad>
          </ns3:TrackPointExtension>
        </extensions>
      </trkpt>
      <trkpt lat="45.332988537847995758056640625" lon="-70.96680787391960620880126953125">
        <ele>882.20001220703125</ele>
        <time>2026-08-21T18:16:22.000Z</time>
        <extensions>
          <ns3:TrackPointExtension>
            <ns3:hr>139</ns3:hr>
            <ns3:cad>53</ns3:cad>
          </ns3:TrackPointExtension>
        </extensions>
      </trkpt>
      <trkpt lat="45.3329779766499996185302734375" lon="-70.96681726165115833282470703125">
        <ele>882.20001220703125</ele>
        <time>2026-08-21T18:16:23.000Z</time>
        <extensions>
          <ns3:TrackPointExtension>
            <ns3:hr>139</ns3:hr>
            <ns3:cad>53</ns3:cad>
          </ns3:TrackPointExtension>
        </extensions>
      </trkpt>
      <trkpt lat="45.3329726122319698333740234375" lon="-70.96682782284915447235107421875">
        <ele>882.20001220703125</ele>
        <time>2026-08-21T18:16:24.000Z</time>
        <extensions>
          <ns3:TrackPointExtension>
            <ns3:hr>138</ns3:hr>
            <ns3:cad>55</ns3:cad>
          </ns3:TrackPointExtension>
        </extensions>
      </trkpt>
      <trkpt lat="45.33296414650976657867431640625" lon="-70.966833271086215972900390625">
        <ele>882.20001220703125</ele>
        <time>2026-08-21T18:16:25.000Z</time>
        <extensions>
          <ns3:TrackPointExtension>
            <ns3:hr>137</ns3:hr>
            <ns3:cad>55</ns3:cad>
          </ns3:TrackPointExtension>
        </extensions>
      </trkpt>
      <trkpt lat="45.33295559696853160858154296875" lon="-70.9668455086648464202880859375">
        <ele>882.4000244140625</ele>
        <time>2026-08-21T18:16:26.000Z</time>
        <extensions>
          <ns3:TrackPointExtension>
            <ns3:hr>137</ns3:hr>
            <ns3:cad>0</ns3:cad>
          </ns3:TrackPointExtension>
        </extensions>
      </trkpt>
      <trkpt lat="45.33294822089374065399169921875" lon="-70.966850705444812774658203125">
        <ele>882.4000244140625</ele>
        <time>2026-08-21T18:16:27.000Z</time>
        <extensions>
          <ns3:TrackPointExtension>
            <ns3:hr>137</ns3:hr>
            <ns3:cad>0</ns3:cad>
          </ns3:TrackPointExtension>
        </extensions>
      </trkpt>
      <trkpt lat="45.3329394198954105377197265625" lon="-70.96685933880507946014404296875">
        <ele>882.4000244140625</ele>
        <time>2026-08-21T18:16:28.000Z</time>
        <extensions>
          <ns3:TrackPointExtension>
            <ns3:hr>136</ns3:hr>
            <ns3:cad>0</ns3:cad>
          </ns3:TrackPointExtension>
        </extensions>
      </trkpt>
      <trkpt lat="45.33293296582996845245361328125" lon="-70.96686621196568012237548828125">
        <ele>882.4000244140625</ele>
        <time>2026-08-21T18:16:29.000Z</time>
        <extensions>
          <ns3:TrackPointExtension>
            <ns3:hr>134</ns3:hr>
            <ns3:cad>0</ns3:cad>
          </ns3:TrackPointExtension>
        </extensions>
      </trkpt>
      <trkpt lat="45.3329179622232913970947265625" lon="-70.96687174402177333831787109375">
        <ele>882.4000244140625</ele>
        <time>2026-08-21T18:16:30.000Z</time>
        <extensions>
          <ns3:TrackPointExtension>
            <ns3:hr>132</ns3:hr>
            <ns3:cad>0</ns3:cad>
          </ns3:TrackPointExtension>
        </extensions>
      </trkpt>
      <trkpt lat="45.3329095803201198577880859375" lon="-70.966872163116931915283203125">
        <ele>882.4000244140625</ele>
        <time>2026-08-21T18:16:31.000Z</time>
        <extensions>
          <ns3:TrackPointExtension>
            <ns3:hr>131</ns3:hr>
            <ns3:cad>0</ns3:cad>
          </ns3:TrackPointExtension>
        </extensions>
      </trkpt>
      <trkpt lat="45.332900024950504302978515625" lon="-70.9668825566768646240234375">
        <ele>882.20001220703125</ele>
        <time>2026-08-21T18:16:32.000Z</time>
        <extensions>
          <ns3:TrackPointExtension>
            <ns3:hr>129</ns3:hr>
            <ns3:cad>0</ns3:cad>
          </ns3:TrackPointExtension>
        </extensions>
      </trkpt>
      <trkpt lat="45.33288787119090557098388671875" lon="-70.9668887592852115631103515625">
        <ele>882</ele>
        <time>2026-08-21T18:16:33.000Z</time>
        <extensions>
          <ns3:TrackPointExtension>
            <ns3:hr>128</ns3:hr>
            <ns3:cad>0</ns3:cad>
          </ns3:TrackPointExtension>
        </extensions>
      </trkpt>
      <trkpt lat="45.33287730999290943145751953125" lon="-70.96689336933195590972900390625">
        <ele>881.5999755859375</ele>
        <time>2026-08-21T18:16:34.000Z</time>
        <extensions>
          <ns3:TrackPointExtension>
            <ns3:hr>128</ns3:hr>
            <ns3:cad>48</ns3:cad>
          </ns3:TrackPointExtension>
        </extensions>
      </trkpt>
      <trkpt lat="45.33286524005234241485595703125" lon="-70.96689420752227306365966796875">
        <ele>881.4000244140625</ele>
        <time>2026-08-21T18:16:35.000Z</time>
        <extensions>
          <ns3:TrackPointExtension>
            <ns3:hr>128</ns3:hr>
            <ns3:cad>48</ns3:cad>
          </ns3:TrackPointExtension>
        </extensions>
      </trkpt>
      <trkpt lat="45.33285208046436309814453125" lon="-70.96688901074230670928955078125">
        <ele>881.20001220703125</ele>
        <time>2026-08-21T18:16:36.000Z</time>
        <extensions>
          <ns3:TrackPointExtension>
            <ns3:hr>128</ns3:hr>
            <ns3:cad>75</ns3:cad>
          </ns3:TrackPointExtension>
        </extensions>
      </trkpt>
      <trkpt lat="45.33284244127571582794189453125" lon="-70.96688465215265750885009765625">
        <ele>881</ele>
        <time>2026-08-21T18:16:37.000Z</time>
        <extensions>
          <ns3:TrackPointExtension>
            <ns3:hr>128</ns3:hr>
            <ns3:cad>75</ns3:cad>
          </ns3:TrackPointExtension>
        </extensions>
      </trkpt>
      <trkpt lat="45.33283070661127567291259765625" lon="-70.966892279684543609619140625">
        <ele>880.79998779296875</ele>
        <time>2026-08-21T18:16:38.000Z</time>
        <extensions>
          <ns3:TrackPointExtension>
            <ns3:hr>128</ns3:hr>
            <ns3:cad>75</ns3:cad>
          </ns3:TrackPointExtension>
        </extensions>
      </trkpt>
      <trkpt lat="45.3328177146613597869873046875" lon="-70.96690610982477664947509765625">
        <ele>880.5999755859375</ele>
        <time>2026-08-21T18:16:39.000Z</time>
        <extensions>
          <ns3:TrackPointExtension>
            <ns3:hr>128</ns3:hr>
            <ns3:cad>75</ns3:cad>
          </ns3:TrackPointExtension>
        </extensions>
      </trkpt>
      <trkpt lat="45.3328039683401584625244140625" lon="-70.96692421473562717437744140625">
        <ele>880.20001220703125</ele>
        <time>2026-08-21T18:16:40.000Z</time>
        <extensions>
          <ns3:TrackPointExtension>
            <ns3:hr>127</ns3:hr>
            <ns3:cad>75</ns3:cad>
          </ns3:TrackPointExtension>
        </extensions>
      </trkpt>
      <trkpt lat="45.33279550261795520782470703125" lon="-70.96693259663879871368408203125">
        <ele>880</ele>
        <time>2026-08-21T18:16:41.000Z</time>
        <extensions>
          <ns3:TrackPointExtension>
            <ns3:hr>128</ns3:hr>
            <ns3:cad>0</ns3:cad>
          </ns3:TrackPointExtension>
        </extensions>
      </trkpt>
      <trkpt lat="45.3327868692576885223388671875" lon="-70.96694014035165309906005859375">
        <ele>879.5999755859375</ele>
        <time>2026-08-21T18:16:42.000Z</time>
        <extensions>
          <ns3:TrackPointExtension>
            <ns3:hr>127</ns3:hr>
            <ns3:cad>51</ns3:cad>
          </ns3:TrackPointExtension>
        </extensions>
      </trkpt>
      <trkpt lat="45.332775972783565521240234375" lon="-70.96694634296000003814697265625">
        <ele>879.4000244140625</ele>
        <time>2026-08-21T18:16:43.000Z</time>
        <extensions>
          <ns3:TrackPointExtension>
            <ns3:hr>127</ns3:hr>
            <ns3:cad>51</ns3:cad>
          </ns3:TrackPointExtension>
        </extensions>
      </trkpt>
      <trkpt lat="45.3327660821378231048583984375" lon="-70.9669514559209346771240234375">
        <ele>879.4000244140625</ele>
        <time>2026-08-21T18:16:44.000Z</time>
        <extensions>
          <ns3:TrackPointExtension>
            <ns3:hr>127</ns3:hr>
            <ns3:cad>51</ns3:cad>
          </ns3:TrackPointExtension>
        </extensions>
      </trkpt>
      <trkpt lat="45.33275594003498554229736328125" lon="-70.9669534675776958465576171875">
        <ele>879.4000244140625</ele>
        <time>2026-08-21T18:16:45.000Z</time>
        <extensions>
          <ns3:TrackPointExtension>
            <ns3:hr>127</ns3:hr>
            <ns3:cad>51</ns3:cad>
          </ns3:TrackPointExtension>
        </extensions>
      </trkpt>
      <trkpt lat="45.332742445170879364013671875" lon="-70.96695790998637676239013671875">
        <ele>879.4000244140625</ele>
        <time>2026-08-21T18:16:46.000Z</time>
        <extensions>
          <ns3:TrackPointExtension>
            <ns3:hr>128</ns3:hr>
            <ns3:cad>51</ns3:cad>
          </ns3:TrackPointExtension>
        </extensions>
      </trkpt>
      <trkpt lat="45.33273079432547092437744140625" lon="-70.96696159802377223968505859375">
        <ele>879.5999755859375</ele>
        <time>2026-08-21T18:16:47.000Z</time>
        <extensions>
          <ns3:TrackPointExtension>
            <ns3:hr>127</ns3:hr>
            <ns3:cad>51</ns3:cad>
          </ns3:TrackPointExtension>
        </extensions>
      </trkpt>
      <trkpt lat="45.33272207714617252349853515625" lon="-70.96696847118437290191650390625">
        <ele>879.79998779296875</ele>
        <time>2026-08-21T18:16:48.000Z</time>
        <extensions>
          <ns3:TrackPointExtension>
            <ns3:hr>127</ns3:hr>
            <ns3:cad>51</ns3:cad>
          </ns3:TrackPointExtension>
        </extensions>
      </trkpt>
      <trkpt lat="45.33271201886236667633056640625" lon="-70.96697182394564151763916015625">
        <ele>880</ele>
        <time>2026-08-21T18:16:49.000Z</time>
        <extensions>
          <ns3:TrackPointExtension>
            <ns3:hr>128</ns3:hr>
            <ns3:cad>48</ns3:cad>
          </ns3:TrackPointExtension>
        </extensions>
      </trkpt>
      <trkpt lat="45.3327040560543537139892578125" lon="-70.9669782780110836029052734375">
        <ele>880</ele>
        <time>2026-08-21T18:16:50.000Z</time>
        <extensions>
          <ns3:TrackPointExtension>
            <ns3:hr>127</ns3:hr>
            <ns3:cad>48</ns3:cad>
          </ns3:TrackPointExtension>
        </extensions>
      </trkpt>
      <trkpt lat="45.33269659616053104400634765625" lon="-70.96698741428554058074951171875">
        <ele>880.20001220703125</ele>
        <time>2026-08-21T18:16:51.000Z</time>
        <extensions>
          <ns3:TrackPointExtension>
            <ns3:hr>127</ns3:hr>
            <ns3:cad>48</ns3:cad>
          </ns3:TrackPointExtension>
        </extensions>
      </trkpt>
      <trkpt lat="45.33269248902797698974609375" lon="-70.967004261910915374755859375">
        <ele>880.4000244140625</ele>
        <time>2026-08-21T18:16:52.000Z</time>
        <extensions>
          <ns3:TrackPointExtension>
            <ns3:hr>128</ns3:hr>
            <ns3:cad>48</ns3:cad>
          </ns3:TrackPointExtension>
        </extensions>
      </trkpt>
      <trkpt lat="45.33268452621996402740478515625" lon="-70.96701893024146556854248046875">
        <ele>880.4000244140625</ele>
        <time>2026-08-21T18:16:53.000Z</time>
        <extensions>
          <ns3:TrackPointExtension>
            <ns3:hr>127</ns3:hr>
            <ns3:cad>48</ns3:cad>
          </ns3:TrackPointExtension>
        </extensions>
      </trkpt>
      <trkpt lat="45.332672037184238433837890625" lon="-70.9670258872210979461669921875">
        <ele>880.4000244140625</ele>
        <time>2026-08-21T18:16:54.000Z</time>
        <extensions>
          <ns3:TrackPointExtension>
            <ns3:hr>127</ns3:hr>
            <ns3:cad>48</ns3:cad>
          </ns3:TrackPointExtension>
        </extensions>
      </trkpt>
      <trkpt lat="45.33266164362430572509765625" lon="-70.9670302458107471466064453125">
        <ele>880.4000244140625</ele>
        <time>2026-08-21T18:16:55.000Z</time>
        <extensions>
          <ns3:TrackPointExtension>
            <ns3:hr>128</ns3:hr>
            <ns3:cad>48</ns3:cad>
          </ns3:TrackPointExtension>
        </extensions>
      </trkpt>
      <trkpt lat="45.3326540999114513397216796875" lon="-70.96703611314296722412109375">
        <ele>880.5999755859375</ele>
        <time>2026-08-21T18:16:56.000Z</time>
        <extensions>
          <ns3:TrackPointExtension>
            <ns3:hr>127</ns3:hr>
            <ns3:cad>45</ns3:cad>
          </ns3:TrackPointExtension>
        </extensions>
      </trkpt>
      <trkpt lat="45.3326500765979290008544921875" lon="-70.967047177255153656005859375">
        <ele>880.5999755859375</ele>
        <time>2026-08-21T18:16:57.000Z</time>
        <extensions>
          <ns3:TrackPointExtension>
            <ns3:hr>128</ns3:hr>
            <ns3:cad>44</ns3:cad>
          </ns3:TrackPointExtension>
        </extensions>
      </trkpt>
      <trkpt lat="45.3326403535902500152587890625" lon="-70.96705514006316661834716796875">
        <ele>880.79998779296875</ele>
        <time>2026-08-21T18:16:58.000Z</time>
        <extensions>
          <ns3:TrackPointExtension>
            <ns3:hr>128</ns3:hr>
            <ns3:cad>44</ns3:cad>
          </ns3:TrackPointExtension>
        </extensions>
      </trkpt>
      <trkpt lat="45.3326339833438396453857421875" lon="-70.9670604206621646881103515625">
        <ele>880.79998779296875</ele>
        <time>2026-08-21T18:16:59.000Z</time>
        <extensions>
          <ns3:TrackPointExtension>
            <ns3:hr>127</ns3:hr>
            <ns3:cad>44</ns3:cad>
          </ns3:TrackPointExtension>
        </extensions>
      </trkpt>
      <trkpt lat="45.33262434415519237518310546875" lon="-70.96707039512693881988525390625">
        <ele>880.79998779296875</ele>
        <time>2026-08-21T18:17:00.000Z</time>
        <extensions>
          <ns3:TrackPointExtension>
            <ns3:hr>127</ns3:hr>
            <ns3:cad>44</ns3:cad>
          </ns3:TrackPointExtension>
        </extensions>
      </trkpt>
      <trkpt lat="45.3326155431568622589111328125" lon="-70.96707559190690517425537109375">
        <ele>880.5999755859375</ele>
        <time>2026-08-21T18:17:01.000Z</time>
        <extensions>
          <ns3:TrackPointExtension>
            <ns3:hr>127</ns3:hr>
            <ns3:cad>44</ns3:cad>
          </ns3:TrackPointExtension>
        </extensions>
      </trkpt>
      <trkpt lat="45.33260741271078586578369140625" lon="-70.96707961522042751312255859375">
        <ele>880.5999755859375</ele>
        <time>2026-08-21T18:17:02.000Z</time>
        <extensions>
          <ns3:TrackPointExtension>
            <ns3:hr>128</ns3:hr>
            <ns3:cad>44</ns3:cad>
          </ns3:TrackPointExtension>
        </extensions>
      </trkpt>
      <trkpt lat="45.33260137774050235748291015625" lon="-70.96709487028419971466064453125">
        <ele>880.5999755859375</ele>
        <time>2026-08-21T18:17:03.000Z</time>
        <extensions>
          <ns3:TrackPointExtension>
            <ns3:hr>127</ns3:hr>
            <ns3:cad>44</ns3:cad>
          </ns3:TrackPointExtension>
        </extensions>
      </trkpt>
      <trkpt lat="45.33259450457990169525146484375" lon="-70.96710543148219585418701171875">
        <ele>880.4000244140625</ele>
        <time>2026-08-21T18:17:04.000Z</time>
        <extensions>
          <ns3:TrackPointExtension>
            <ns3:hr>127</ns3:hr>
            <ns3:cad>44</ns3:cad>
          </ns3:TrackPointExtension>
        </extensions>
      </trkpt>
      <trkpt lat="45.33258394338190555572509765625" lon="-70.96711146645247936248779296875">
        <ele>880.4000244140625</ele>
        <time>2026-08-21T18:17:05.000Z</time>
        <extensions>
          <ns3:TrackPointExtension>
            <ns3:hr>128</ns3:hr>
            <ns3:cad>44</ns3:cad>
          </ns3:TrackPointExtension>
        </extensions>
      </trkpt>
      <trkpt lat="45.3325738012790679931640625" lon="-70.96711381338536739349365234375">
        <ele>880.4000244140625</ele>
        <time>2026-08-21T18:17:06.000Z</time>
        <extensions>
          <ns3:TrackPointExtension>
            <ns3:hr>127</ns3:hr>
            <ns3:cad>44</ns3:cad>
          </ns3:TrackPointExtension>
        </extensions>
      </trkpt>
      <trkpt lat="45.33256500028073787689208984375" lon="-70.9671117179095745086669921875">
        <ele>880.4000244140625</ele>
        <time>2026-08-21T18:17:07.000Z</time>
        <extensions>
          <ns3:TrackPointExtension>
            <ns3:hr>127</ns3:hr>
            <ns3:cad>48</ns3:cad>
          </ns3:TrackPointExtension>
        </extensions>
      </trkpt>
      <trkpt lat="45.33255561254918575286865234375" lon="-70.96710744313895702362060546875">
        <ele>880.4000244140625</ele>
        <time>2026-08-21T18:17:08.000Z</time>
        <extensions>
          <ns3:TrackPointExtension>
            <ns3:hr>128</ns3:hr>
            <ns3:cad>48</ns3:cad>
          </ns3:TrackPointExtension>
        </extensions>
      </trkpt>
      <trkpt lat="45.33254496753215789794921875" lon="-70.9671105444431304931640625">
        <ele>880.20001220703125</ele>
        <time>2026-08-21T18:17:09.000Z</time>
        <extensions>
          <ns3:TrackPointExtension>
            <ns3:hr>127</ns3:hr>
            <ns3:cad>48</ns3:cad>
          </ns3:TrackPointExtension>
        </extensions>
      </trkpt>
      <trkpt lat="45.3325350768864154815673828125" lon="-70.96711414866149425506591796875">
        <ele>880.20001220703125</ele>
        <time>2026-08-21T18:17:10.000Z</time>
        <extensions>
          <ns3:TrackPointExtension>
            <ns3:hr>127</ns3:hr>
            <ns3:cad>48</ns3:cad>
          </ns3:TrackPointExtension>
        </extensions>
      </trkpt>
      <trkpt lat="45.332523845136165618896484375" lon="-70.96711783669888973236083984375">
        <ele>880.20001220703125</ele>
        <time>2026-08-21T18:17:11.000Z</time>
        <extensions>
          <ns3:TrackPointExtension>
            <ns3:hr>127</ns3:hr>
            <ns3:cad>46</ns3:cad>
          </ns3:TrackPointExtension>
        </extensions>
      </trkpt>
      <trkpt lat="45.33251143991947174072265625" lon="-70.9671239554882049560546875">
        <ele>880</ele>
        <time>2026-08-21T18:17:12.000Z</time>
        <extensions>
          <ns3:TrackPointExtension>
            <ns3:hr>128</ns3:hr>
            <ns3:cad>46</ns3:cad>
          </ns3:TrackPointExtension>
        </extensions>
      </trkpt>
      <trkpt lat="45.3325013816356658935546875" lon="-70.96713024191558361053466796875">
        <ele>880</ele>
        <time>2026-08-21T18:17:13.000Z</time>
        <extensions>
          <ns3:TrackPointExtension>
            <ns3:hr>127</ns3:hr>
            <ns3:cad>46</ns3:cad>
          </ns3:TrackPointExtension>
        </extensions>
      </trkpt>
      <trkpt lat="45.33249199390411376953125" lon="-70.9671388752758502960205078125">
        <ele>880</ele>
        <time>2026-08-21T18:17:14.000Z</time>
        <extensions>
          <ns3:TrackPointExtension>
            <ns3:hr>127</ns3:hr>
            <ns3:cad>46</ns3:cad>
          </ns3:TrackPointExtension>
        </extensions>
      </trkpt>
      <trkpt lat="45.33248637802898883819580078125" lon="-70.9671427309513092041015625">
        <ele>880</ele>
        <time>2026-08-21T18:17:15.000Z</time>
        <extensions>
          <ns3:TrackPointExtension>
            <ns3:hr>128</ns3:hr>
            <ns3:cad>46</ns3:cad>
          </ns3:TrackPointExtension>
        </extensions>
      </trkpt>
      <trkpt lat="45.3324770741164684295654296875" lon="-70.967139042913913726806640625">
        <ele>880</ele>
        <time>2026-08-21T18:17:16.000Z</time>
        <extensions>
          <ns3:TrackPointExtension>
            <ns3:hr>127</ns3:hr>
            <ns3:cad>51</ns3:cad>
          </ns3:TrackPointExtension>
        </extensions>
      </trkpt>
      <trkpt lat="45.33246718347072601318359375" lon="-70.9671371988952159881591796875">
        <ele>880.20001220703125</ele>
        <time>2026-08-21T18:17:17.000Z</time>
        <extensions>
          <ns3:TrackPointExtension>
            <ns3:hr>127</ns3:hr>
            <ns3:cad>50</ns3:cad>
          </ns3:TrackPointExtension>
        </extensions>
      </trkpt>
      <trkpt lat="45.3324596397578716278076171875" lon="-70.9671427309513092041015625">
        <ele>880.20001220703125</ele>
        <time>2026-08-21T18:17:18.000Z</time>
        <extensions>
          <ns3:TrackPointExtension>
            <ns3:hr>126</ns3:hr>
            <ns3:cad>50</ns3:cad>
          </ns3:TrackPointExtension>
        </extensions>
      </trkpt>
      <trkpt lat="45.3324531018733978271484375" lon="-70.9671506099402904510498046875">
        <ele>880.4000244140625</ele>
        <time>2026-08-21T18:17:19.000Z</time>
        <extensions>
          <ns3:TrackPointExtension>
            <ns3:hr>126</ns3:hr>
            <ns3:cad>49</ns3:cad>
          </ns3:TrackPointExtension>
        </extensions>
      </trkpt>
      <trkpt lat="45.33244027756154537200927734375" lon="-70.96715706400573253631591796875">
        <ele>880.4000244140625</ele>
        <time>2026-08-21T18:17:20.000Z</time>
        <extensions>
          <ns3:TrackPointExtension>
            <ns3:hr>126</ns3:hr>
            <ns3:cad>49</ns3:cad>
          </ns3:TrackPointExtension>
        </extensions>
      </trkpt>
      <trkpt lat="45.3324287943542003631591796875" lon="-70.96716142259538173675537109375">
        <ele>880.5999755859375</ele>
        <time>2026-08-21T18:17:21.000Z</time>
        <extensions>
          <ns3:TrackPointExtension>
            <ns3:hr>125</ns3:hr>
            <ns3:cad>47</ns3:cad>
          </ns3:TrackPointExtension>
        </extensions>
      </trkpt>
      <trkpt lat="45.3324197418987751007080078125" lon="-70.96716846339404582977294921875">
        <ele>880.79998779296875</ele>
        <time>2026-08-21T18:17:22.000Z</time>
        <extensions>
          <ns3:TrackPointExtension>
            <ns3:hr>125</ns3:hr>
            <ns3:cad>45</ns3:cad>
          </ns3:TrackPointExtension>
        </extensions>
      </trkpt>
      <trkpt lat="45.33241177909076213836669921875" lon="-70.967175252735614776611328125">
        <ele>880.79998779296875</ele>
        <time>2026-08-21T18:17:23.000Z</time>
        <extensions>
          <ns3:TrackPointExtension>
            <ns3:hr>125</ns3:hr>
            <ns3:cad>45</ns3:cad>
          </ns3:TrackPointExtension>
        </extensions>
      </trkpt>
      <trkpt lat="45.3324033133685588836669921875" lon="-70.9671804495155811309814453125">
        <ele>881</ele>
        <time>2026-08-21T18:17:24.000Z</time>
        <extensions>
          <ns3:TrackPointExtension>
            <ns3:hr>125</ns3:hr>
            <ns3:cad>45</ns3:cad>
          </ns3:TrackPointExtension>
        </extensions>
      </trkpt>
      <trkpt lat="45.33239183016121387481689453125" lon="-70.9671856462955474853515625">
        <ele>881</ele>
        <time>2026-08-21T18:17:25.000Z</time>
        <extensions>
          <ns3:TrackPointExtension>
            <ns3:hr>124</ns3:hr>
            <ns3:cad>45</ns3:cad>
          </ns3:TrackPointExtension>
        </extensions>
      </trkpt>
      <trkpt lat="45.33238445408642292022705078125" lon="-70.9671952016651630401611328125">
        <ele>881.20001220703125</ele>
        <time>2026-08-21T18:17:26.000Z</time>
        <extensions>
          <ns3:TrackPointExtension>
            <ns3:hr>125</ns3:hr>
            <ns3:cad>45</ns3:cad>
          </ns3:TrackPointExtension>
        </extensions>
      </trkpt>
      <trkpt lat="45.3323806822299957275390625" lon="-70.96720249392092227935791015625">
        <ele>881.4000244140625</ele>
        <time>2026-08-21T18:17:27.000Z</time>
        <extensions>
          <ns3:TrackPointExtension>
            <ns3:hr>125</ns3:hr>
            <ns3:cad>45</ns3:cad>
          </ns3:TrackPointExtension>
        </extensions>
      </trkpt>
      <trkpt lat="45.33237473107874393463134765625" lon="-70.96720785833895206451416015625">
        <ele>881.4000244140625</ele>
        <time>2026-08-21T18:17:28.000Z</time>
        <extensions>
          <ns3:TrackPointExtension>
            <ns3:hr>126</ns3:hr>
            <ns3:cad>45</ns3:cad>
          </ns3:TrackPointExtension>
        </extensions>
      </trkpt>
      <trkpt lat="45.33236718736588954925537109375" lon="-70.96721313893795013427734375">
        <ele>881.4000244140625</ele>
        <time>2026-08-21T18:17:29.000Z</time>
        <extensions>
          <ns3:TrackPointExtension>
            <ns3:hr>126</ns3:hr>
            <ns3:cad>45</ns3:cad>
          </ns3:TrackPointExtension>
        </extensions>
      </trkpt>
      <trkpt lat="45.33235930837690830230712890625" lon="-70.96722193993628025054931640625">
        <ele>881.4000244140625</ele>
        <time>2026-08-21T18:17:30.000Z</time>
        <extensions>
          <ns3:TrackPointExtension>
            <ns3:hr>126</ns3:hr>
            <ns3:cad>45</ns3:cad>
          </ns3:TrackPointExtension>
        </extensions>
      </trkpt>
      <trkpt lat="45.332353524863719940185546875" lon="-70.96723250113427639007568359375">
        <ele>881.4000244140625</ele>
        <time>2026-08-21T18:17:31.000Z</time>
        <extensions>
          <ns3:TrackPointExtension>
            <ns3:hr>126</ns3:hr>
            <ns3:cad>45</ns3:cad>
          </ns3:TrackPointExtension>
        </extensions>
      </trkpt>
      <trkpt lat="45.332349836826324462890625" lon="-70.96724289469420909881591796875">
        <ele>881.20001220703125</ele>
        <time>2026-08-21T18:17:32.000Z</time>
        <extensions>
          <ns3:TrackPointExtension>
            <ns3:hr>126</ns3:hr>
            <ns3:cad>45</ns3:cad>
          </ns3:TrackPointExtension>
        </extensions>
      </trkpt>
      <trkpt lat="45.3323419578373432159423828125" lon="-70.96724800765514373779296875">
        <ele>881.20001220703125</ele>
        <time>2026-08-21T18:17:33.000Z</time>
        <extensions>
          <ns3:TrackPointExtension>
            <ns3:hr>126</ns3:hr>
            <ns3:cad>45</ns3:cad>
          </ns3:TrackPointExtension>
        </extensions>
      </trkpt>
      <trkpt lat="45.33233298920094966888427734375" lon="-70.9672486782073974609375">
        <ele>881</ele>
        <time>2026-08-21T18:17:34.000Z</time>
        <extensions>
          <ns3:TrackPointExtension>
            <ns3:hr>127</ns3:hr>
            <ns3:cad>48</ns3:cad>
          </ns3:TrackPointExtension>
        </extensions>
      </trkpt>
      <trkpt lat="45.33232234418392181396484375" lon="-70.9672542102634906768798828125">
        <ele>881</ele>
        <time>2026-08-21T18:17:35.000Z</time>
        <extensions>
          <ns3:TrackPointExtension>
            <ns3:hr>128</ns3:hr>
            <ns3:cad>48</ns3:cad>
          </ns3:TrackPointExtension>
        </extensions>
      </trkpt>
      <trkpt lat="45.3323111124336719512939453125" lon="-70.96726116724312305450439453125">
        <ele>881</ele>
        <time>2026-08-21T18:17:36.000Z</time>
        <extensions>
          <ns3:TrackPointExtension>
            <ns3:hr>129</ns3:hr>
            <ns3:cad>48</ns3:cad>
          </ns3:TrackPointExtension>
        </extensions>
      </trkpt>
      <trkpt lat="45.33230247907340526580810546875" lon="-70.96726686693727970123291015625">
        <ele>881</ele>
        <time>2026-08-21T18:17:37.000Z</time>
        <extensions>
          <ns3:TrackPointExtension>
            <ns3:hr>129</ns3:hr>
            <ns3:cad>50</ns3:cad>
          </ns3:TrackPointExtension>
        </extensions>
      </trkpt>
      <trkpt lat="45.3322921693325042724609375" lon="-70.96727273426949977874755859375">
        <ele>881</ele>
        <time>2026-08-21T18:17:38.000Z</time>
        <extensions>
          <ns3:TrackPointExtension>
            <ns3:hr>130</ns3:hr>
            <ns3:cad>50</ns3:cad>
          </ns3:TrackPointExtension>
        </extensions>
      </trkpt>
      <trkpt lat="45.33228370361030101776123046875" lon="-70.96728011034429073333740234375">
        <ele>881</ele>
        <time>2026-08-21T18:17:39.000Z</time>
        <extensions>
          <ns3:TrackPointExtension>
            <ns3:hr>131</ns3:hr>
            <ns3:cad>50</ns3:cad>
          </ns3:TrackPointExtension>
        </extensions>
      </trkpt>
      <trkpt lat="45.33227465115487575531005859375" lon="-70.9672887437045574188232421875">
        <ele>881</ele>
        <time>2026-08-21T18:17:40.000Z</time>
        <extensions>
          <ns3:TrackPointExtension>
            <ns3:hr>131</ns3:hr>
            <ns3:cad>50</ns3:cad>
          </ns3:TrackPointExtension>
        </extensions>
      </trkpt>
      <trkpt lat="45.3322681970894336700439453125" lon="-70.96729762852191925048828125">
        <ele>880.79998779296875</ele>
        <time>2026-08-21T18:17:41.000Z</time>
        <extensions>
          <ns3:TrackPointExtension>
            <ns3:hr>132</ns3:hr>
            <ns3:cad>50</ns3:cad>
          </ns3:TrackPointExtension>
        </extensions>
      </trkpt>
      <trkpt lat="45.33225755207240581512451171875" lon="-70.96729896962642669677734375">
        <ele>880.5999755859375</ele>
        <time>2026-08-21T18:17:42.000Z</time>
        <extensions>
          <ns3:TrackPointExtension>
            <ns3:hr>132</ns3:hr>
            <ns3:cad>0</ns3:cad>
          </ns3:TrackPointExtension>
        </extensions>
      </trkpt>
      <trkpt lat="45.332246236503124237060546875" lon="-70.96729905344545841217041015625">
        <ele>880.4000244140625</ele>
        <time>2026-08-21T18:17:43.000Z</time>
        <extensions>
          <ns3:TrackPointExtension>
            <ns3:hr>132</ns3:hr>
            <ns3:cad>0</ns3:cad>
          </ns3:TrackPointExtension>
        </extensions>
      </trkpt>
      <trkpt lat="45.33223777078092098236083984375" lon="-70.967305339872837066650390625">
        <ele>880.4000244140625</ele>
        <time>2026-08-21T18:17:44.000Z</time>
        <extensions>
          <ns3:TrackPointExtension>
            <ns3:hr>132</ns3:hr>
            <ns3:cad>0</ns3:cad>
          </ns3:TrackPointExtension>
        </extensions>
      </trkpt>
      <trkpt lat="45.33223223872482776641845703125" lon="-70.96730165183544158935546875">
        <ele>880.4000244140625</ele>
        <time>2026-08-21T18:17:45.000Z</time>
        <extensions>
          <ns3:TrackPointExtension>
            <ns3:hr>131</ns3:hr>
            <ns3:cad>0</ns3:cad>
          </ns3:TrackPointExtension>
        </extensions>
      </trkpt>
      <trkpt lat="45.3322293050587177276611328125" lon="-70.96731028519570827484130859375">
        <ele>880.4000244140625</ele>
        <time>2026-08-21T18:17:46.000Z</time>
        <extensions>
          <ns3:TrackPointExtension>
            <ns3:hr>132</ns3:hr>
            <ns3:cad>0</ns3:cad>
          </ns3:TrackPointExtension>
        </extensions>
      </trkpt>
      <trkpt lat="45.332221426069736480712890625" lon="-70.9673182480037212371826171875">
        <ele>880.5999755859375</ele>
        <time>2026-08-21T18:17:47.000Z</time>
        <extensions>
          <ns3:TrackPointExtension>
            <ns3:hr>132</ns3:hr>
            <ns3:cad>0</ns3:cad>
          </ns3:TrackPointExtension>
        </extensions>
      </trkpt>
      <trkpt lat="45.3322165645658969879150390625" lon="-70.9673232771456241607666015625">
        <ele>880.5999755859375</ele>
        <time>2026-08-21T18:17:48.000Z</time>
        <extensions>
          <ns3:TrackPointExtension>
            <ns3:hr>131</ns3:hr>
            <ns3:cad>0</ns3:cad>
          </ns3:TrackPointExtension>
        </extensions>
      </trkpt>
      <trkpt lat="45.33221773803234100341796875" lon="-70.96732118166983127593994140625">
        <ele>880.5999755859375</ele>
        <time>2026-08-21T18:17:49.000Z</time>
        <extensions>
          <ns3:TrackPointExtension>
            <ns3:hr>131</ns3:hr>
            <ns3:cad>0</ns3:cad>
          </ns3:TrackPointExtension>
        </extensions>
      </trkpt>
      <trkpt lat="45.33221916295588016510009765625" lon="-70.96731841564178466796875">
        <ele>880.5999755859375</ele>
        <time>2026-08-21T18:17:50.000Z</time>
        <extensions>
          <ns3:TrackPointExtension>
            <ns3:hr>131</ns3:hr>
            <ns3:cad>0</ns3:cad>
          </ns3:TrackPointExtension>
        </extensions>
      </trkpt>
      <trkpt lat="45.33221866004168987274169921875" lon="-70.96731799654662609100341796875">
        <ele>880.5999755859375</ele>
        <time>2026-08-21T18:17:51.000Z</time>
        <extensions>
          <ns3:TrackPointExtension>
            <ns3:hr>130</ns3:hr>
            <ns3:cad>0</ns3:cad>
          </ns3:TrackPointExtension>
        </extensions>
      </trkpt>
      <trkpt lat="45.33221664838492870330810546875" lon="-70.96731900237500667572021484375">
        <ele>880.5999755859375</ele>
        <time>2026-08-21T18:17:52.000Z</time>
        <extensions>
          <ns3:TrackPointExtension>
            <ns3:hr>130</ns3:hr>
            <ns3:cad>0</ns3:cad>
          </ns3:TrackPointExtension>
        </extensions>
      </trkpt>
      <trkpt lat="45.3322142176330089569091796875" lon="-70.96732185222208499908447265625">
        <ele>880.5999755859375</ele>
        <time>2026-08-21T18:17:53.000Z</time>
        <extensions>
          <ns3:TrackPointExtension>
            <ns3:hr>130</ns3:hr>
            <ns3:cad>0</ns3:cad>
          </ns3:TrackPointExtension>
        </extensions>
      </trkpt>
      <trkpt lat="45.3322142176330089569091796875" lon="-70.96732185222208499908447265625">
        <ele>880.79998779296875</ele>
        <time>2026-08-21T18:17:54.000Z</time>
        <extensions>
          <ns3:TrackPointExtension>
            <ns3:hr>130</ns3:hr>
            <ns3:cad>0</ns3:cad>
          </ns3:TrackPointExtension>
        </extensions>
      </trkpt>
      <trkpt lat="45.3322142176330089569091796875" lon="-70.96732185222208499908447265625">
        <ele>880.79998779296875</ele>
        <time>2026-08-21T18:17:55.000Z</time>
        <extensions>
          <ns3:TrackPointExtension>
            <ns3:hr>129</ns3:hr>
            <ns3:cad>0</ns3:cad>
          </ns3:TrackPointExtension>
        </extensions>
      </trkpt>
      <trkpt lat="45.3322142176330089569091796875" lon="-70.96732185222208499908447265625">
        <ele>880.79998779296875</ele>
        <time>2026-08-21T18:17:56.000Z</time>
        <extensions>
          <ns3:TrackPointExtension>
            <ns3:hr>130</ns3:hr>
            <ns3:cad>0</ns3:cad>
          </ns3:TrackPointExtension>
        </extensions>
      </trkpt>
      <trkpt lat="45.3322142176330089569091796875" lon="-70.96732185222208499908447265625">
        <ele>880.79998779296875</ele>
        <time>2026-08-21T18:17:57.000Z</time>
        <extensions>
          <ns3:TrackPointExtension>
            <ns3:hr>129</ns3:hr>
            <ns3:cad>0</ns3:cad>
          </ns3:TrackPointExtension>
        </extensions>
      </trkpt>
      <trkpt lat="45.3322152234613895416259765625" lon="-70.9673224389553070068359375">
        <ele>880.5999755859375</ele>
        <time>2026-08-21T18:17:58.000Z</time>
        <extensions>
          <ns3:TrackPointExtension>
            <ns3:hr>129</ns3:hr>
            <ns3:cad>0</ns3:cad>
          </ns3:TrackPointExtension>
        </extensions>
      </trkpt>
      <trkpt lat="45.33221061341464519500732421875" lon="-70.96733777783811092376708984375">
        <ele>880.4000244140625</ele>
        <time>2026-08-21T18:17:59.000Z</time>
        <extensions>
          <ns3:TrackPointExtension>
            <ns3:hr>129</ns3:hr>
            <ns3:cad>0</ns3:cad>
          </ns3:TrackPointExtension>
        </extensions>
      </trkpt>
      <trkpt lat="45.33220726065337657928466796875" lon="-70.96734984777867794036865234375">
        <ele>880.20001220703125</ele>
        <time>2026-08-21T18:18:00.000Z</time>
        <extensions>
          <ns3:TrackPointExtension>
            <ns3:hr>130</ns3:hr>
            <ns3:cad>0</ns3:cad>
          </ns3:TrackPointExtension>
        </extensions>
      </trkpt>
      <trkpt lat="45.3322108648717403411865234375" lon="-70.96735822968184947967529296875">
        <ele>880</ele>
        <time>2026-08-21T18:18:01.000Z</time>
        <extensions>
          <ns3:TrackPointExtension>
            <ns3:hr>129</ns3:hr>
            <ns3:cad>52</ns3:cad>
          </ns3:TrackPointExtension>
        </extensions>
      </trkpt>
      <trkpt lat="45.3322152234613895416259765625" lon="-70.9673708863556385040283203125">
        <ele>879.5999755859375</ele>
        <time>2026-08-21T18:18:02.000Z</time>
        <extensions>
          <ns3:TrackPointExtension>
            <ns3:hr>129</ns3:hr>
            <ns3:cad>54</ns3:cad>
          </ns3:TrackPointExtension>
        </extensions>
      </trkpt>
      <trkpt lat="45.332216061651706695556640625" lon="-70.96738102845847606658935546875">
        <ele>879.4000244140625</ele>
        <time>2026-08-21T18:18:03.000Z</time>
        <extensions>
          <ns3:TrackPointExtension>
            <ns3:hr>129</ns3:hr>
            <ns3:cad>54</ns3:cad>
          </ns3:TrackPointExtension>
        </extensions>
      </trkpt>
      <trkpt lat="45.33221396617591381072998046875" lon="-70.96738882362842559814453125">
        <ele>879.20001220703125</ele>
        <time>2026-08-21T18:18:04.000Z</time>
        <extensions>
          <ns3:TrackPointExtension>
            <ns3:hr>127</ns3:hr>
            <ns3:cad>54</ns3:cad>
          </ns3:TrackPointExtension>
        </extensions>
      </trkpt>
      <trkpt lat="45.33221664838492870330810546875" lon="-70.96740382723510265350341796875">
        <ele>878.79998779296875</ele>
        <time>2026-08-21T18:18:05.000Z</time>
        <extensions>
          <ns3:TrackPointExtension>
            <ns3:hr>127</ns3:hr>
            <ns3:cad>54</ns3:cad>
          </ns3:TrackPointExtension>
        </extensions>
      </trkpt>
      <trkpt lat="45.33222167752683162689208984375" lon="-70.967417657375335693359375">
        <ele>878.4000244140625</ele>
        <time>2026-08-21T18:18:06.000Z</time>
        <extensions>
          <ns3:TrackPointExtension>
            <ns3:hr>126</ns3:hr>
            <ns3:cad>54</ns3:cad>
          </ns3:TrackPointExtension>
        </extensions>
      </trkpt>
      <trkpt lat="45.332222767174243927001953125" lon="-70.967426039278507232666015625">
        <ele>878.20001220703125</ele>
        <time>2026-08-21T18:18:07.000Z</time>
        <extensions>
          <ns3:TrackPointExtension>
            <ns3:hr>127</ns3:hr>
            <ns3:cad>54</ns3:cad>
          </ns3:TrackPointExtension>
        </extensions>
      </trkpt>
      <trkpt lat="45.33222553320229053497314453125" lon="-70.96743039786815643310546875">
        <ele>878</ele>
        <time>2026-08-21T18:18:08.000Z</time>
        <extensions>
          <ns3:TrackPointExtension>
            <ns3:hr>127</ns3:hr>
            <ns3:cad>54</ns3:cad>
          </ns3:TrackPointExtension>
        </extensions>
      </trkpt>
      <trkpt lat="45.3322256170213222503662109375" lon="-70.967432744801044464111328125">
        <ele>877.5999755859375</ele>
        <time>2026-08-21T18:18:09.000Z</time>
        <extensions>
          <ns3:TrackPointExtension>
            <ns3:hr>128</ns3:hr>
            <ns3:cad>54</ns3:cad>
          </ns3:TrackPointExtension>
        </extensions>
      </trkpt>
      <trkpt lat="45.33222578465938568115234375" lon="-70.96744271926581859588623046875">
        <ele>877.4000244140625</ele>
        <time>2026-08-21T18:18:10.000Z</time>
        <extensions>
          <ns3:TrackPointExtension>
            <ns3:hr>128</ns3:hr>
            <ns3:cad>54</ns3:cad>
          </ns3:TrackPointExtension>
        </extensions>
      </trkpt>
      <trkpt lat="45.3322239406406879425048828125" lon="-70.9674557112157344818115234375">
        <ele>877</ele>
        <time>2026-08-21T18:18:11.000Z</time>
        <extensions>
          <ns3:TrackPointExtension>
            <ns3:hr>128</ns3:hr>
            <ns3:cad>54</ns3:cad>
          </ns3:TrackPointExtension>
        </extensions>
      </trkpt>
      <trkpt lat="45.3322215937077999114990234375" lon="-70.9674617461860179901123046875">
        <ele>876.79998779296875</ele>
        <time>2026-08-21T18:18:12.000Z</time>
        <extensions>
          <ns3:TrackPointExtension>
            <ns3:hr>127</ns3:hr>
            <ns3:cad>54</ns3:cad>
          </ns3:TrackPointExtension>
        </extensions>
      </trkpt>
      <trkpt lat="45.33222042024135589599609375" lon="-70.96746652387082576751708984375">
        <ele>876.4000244140625</ele>
        <time>2026-08-21T18:18:13.000Z</time>
        <extensions>
          <ns3:TrackPointExtension>
            <ns3:hr>127</ns3:hr>
            <ns3:cad>54</ns3:cad>
          </ns3:TrackPointExtension>
        </extensions>
      </trkpt>
      <trkpt lat="45.3322182409465312957763671875" lon="-70.96747591160237789154052734375">
        <ele>876.20001220703125</ele>
        <time>2026-08-21T18:18:14.000Z</time>
        <extensions>
          <ns3:TrackPointExtension>
            <ns3:hr>126</ns3:hr>
            <ns3:cad>54</ns3:cad>
          </ns3:TrackPointExtension>
        </extensions>
      </trkpt>
      <trkpt lat="45.332215726375579833984375" lon="-70.9674771688878536224365234375">
        <ele>876</ele>
        <time>2026-08-21T18:18:15.000Z</time>
        <extensions>
          <ns3:TrackPointExtension>
            <ns3:hr>126</ns3:hr>
            <ns3:cad>54</ns3:cad>
          </ns3:TrackPointExtension>
        </extensions>
      </trkpt>
      <trkpt lat="45.33221413381397724151611328125" lon="-70.96747926436364650726318359375">
        <ele>875.79998779296875</ele>
        <time>2026-08-21T18:18:16.000Z</time>
        <extensions>
          <ns3:TrackPointExtension>
            <ns3:hr>125</ns3:hr>
            <ns3:cad>54</ns3:cad>
          </ns3:TrackPointExtension>
        </extensions>
      </trkpt>
      <trkpt lat="45.33221212215721607208251953125" lon="-70.967483036220073699951171875">
        <ele>875.5999755859375</ele>
        <time>2026-08-21T18:18:17.000Z</time>
        <extensions>
          <ns3:TrackPointExtension>
            <ns3:hr>123</ns3:hr>
            <ns3:cad>54</ns3:cad>
          </ns3:TrackPointExtension>
        </extensions>
      </trkpt>
      <trkpt lat="45.3322098590433597564697265625" lon="-70.96748831681907176971435546875">
        <ele>875.4000244140625</ele>
        <time>2026-08-21T18:18:18.000Z</time>
        <extensions>
          <ns3:TrackPointExtension>
            <ns3:hr>121</ns3:hr>
            <ns3:cad>54</ns3:cad>
          </ns3:TrackPointExtension>
        </extensions>
      </trkpt>
      <trkpt lat="45.33220943994820117950439453125" lon="-70.9674905799329280853271484375">
        <ele>875.4000244140625</ele>
        <time>2026-08-21T18:18:19.000Z</time>
        <extensions>
          <ns3:TrackPointExtension>
            <ns3:hr>121</ns3:hr>
            <ns3:cad>54</ns3:cad>
          </ns3:TrackPointExtension>
        </extensions>
      </trkpt>
      <trkpt lat="45.33220566809177398681640625" lon="-70.9674932621419429779052734375">
        <ele>875.4000244140625</ele>
        <time>2026-08-21T18:18:20.000Z</time>
        <extensions>
          <ns3:TrackPointExtension>
            <ns3:hr>121</ns3:hr>
            <ns3:cad>54</ns3:cad>
          </ns3:TrackPointExtension>
        </extensions>
      </trkpt>
      <trkpt lat="45.332203321158885955810546875" lon="-70.96750038675963878631591796875">
        <ele>875.20001220703125</ele>
        <time>2026-08-21T18:18:21.000Z</time>
        <extensions>
          <ns3:TrackPointExtension>
            <ns3:hr>120</ns3:hr>
            <ns3:cad>54</ns3:cad>
          </ns3:TrackPointExtension>
        </extensions>
      </trkpt>
      <trkpt lat="45.3321991302073001861572265625" lon="-70.96750524826347827911376953125">
        <ele>875</ele>
        <time>2026-08-21T18:18:22.000Z</time>
        <extensions>
          <ns3:TrackPointExtension>
            <ns3:hr>119</ns3:hr>
            <ns3:cad>54</ns3:cad>
          </ns3:TrackPointExtension>
        </extensions>
      </trkpt>
      <trkpt lat="45.332197286188602447509765625" lon="-70.9675046615302562713623046875">
        <ele>875</ele>
        <time>2026-08-21T18:18:23.000Z</time>
        <extensions>
          <ns3:TrackPointExtension>
            <ns3:hr>119</ns3:hr>
            <ns3:cad>54</ns3:cad>
          </ns3:TrackPointExtension>
        </extensions>
      </trkpt>
      <trkpt lat="45.33219720236957073211669921875" lon="-70.96750424243509769439697265625">
        <ele>874.79998779296875</ele>
        <time>2026-08-21T18:18:24.000Z</time>
        <extensions>
          <ns3:TrackPointExtension>
            <ns3:hr>118</ns3:hr>
            <ns3:cad>0</ns3:cad>
          </ns3:TrackPointExtension>
        </extensions>
      </trkpt>
      <trkpt lat="45.332197286188602447509765625" lon="-70.9675043262541294097900390625">
        <ele>874.79998779296875</ele>
        <time>2026-08-21T18:18:25.000Z</time>
        <extensions>
          <ns3:TrackPointExtension>
            <ns3:hr>118</ns3:hr>
            <ns3:cad>0</ns3:cad>
          </ns3:TrackPointExtension>
        </extensions>
      </trkpt>
      <trkpt lat="45.332197286188602447509765625" lon="-70.9675043262541294097900390625">
        <ele>874.5999755859375</ele>
        <time>2026-08-21T18:18:26.000Z</time>
        <extensions>
          <ns3:TrackPointExtension>
            <ns3:hr>118</ns3:hr>
            <ns3:cad>0</ns3:cad>
          </ns3:TrackPointExtension>
        </extensions>
      </trkpt>
      <trkpt lat="45.332197286188602447509765625" lon="-70.9675043262541294097900390625">
        <ele>874.5999755859375</ele>
        <time>2026-08-21T18:18:27.000Z</time>
        <extensions>
          <ns3:TrackPointExtension>
            <ns3:hr>118</ns3:hr>
            <ns3:cad>0</ns3:cad>
          </ns3:TrackPointExtension>
        </extensions>
      </trkpt>
      <trkpt lat="45.332197286188602447509765625" lon="-70.9675043262541294097900390625">
        <ele>874.5999755859375</ele>
        <time>2026-08-21T18:18:28.000Z</time>
        <extensions>
          <ns3:TrackPointExtension>
            <ns3:hr>118</ns3:hr>
            <ns3:cad>0</ns3:cad>
          </ns3:TrackPointExtension>
        </extensions>
      </trkpt>
      <trkpt lat="45.332197286188602447509765625" lon="-70.9675043262541294097900390625">
        <ele>874.5999755859375</ele>
        <time>2026-08-21T18:18:29.000Z</time>
        <extensions>
          <ns3:TrackPointExtension>
            <ns3:hr>118</ns3:hr>
            <ns3:cad>0</ns3:cad>
          </ns3:TrackPointExtension>
        </extensions>
      </trkpt>
      <trkpt lat="45.332197286188602447509765625" lon="-70.9675043262541294097900390625">
        <ele>874.5999755859375</ele>
        <time>2026-08-21T18:18:30.000Z</time>
        <extensions>
          <ns3:TrackPointExtension>
            <ns3:hr>118</ns3:hr>
            <ns3:cad>0</ns3:cad>
          </ns3:TrackPointExtension>
        </extensions>
      </trkpt>
      <trkpt lat="45.332197286188602447509765625" lon="-70.9675043262541294097900390625">
        <ele>874.5999755859375</ele>
        <time>2026-08-21T18:18:31.000Z</time>
        <extensions>
          <ns3:TrackPointExtension>
            <ns3:hr>118</ns3:hr>
            <ns3:cad>0</ns3:cad>
          </ns3:TrackPointExtension>
        </extensions>
      </trkpt>
      <trkpt lat="45.332197286188602447509765625" lon="-70.9675043262541294097900390625">
        <ele>874.5999755859375</ele>
        <time>2026-08-21T18:18:32.000Z</time>
        <extensions>
          <ns3:TrackPointExtension>
            <ns3:hr>117</ns3:hr>
            <ns3:cad>0</ns3:cad>
          </ns3:TrackPointExtension>
        </extensions>
      </trkpt>
      <trkpt lat="45.332197286188602447509765625" lon="-70.9675043262541294097900390625">
        <ele>874.5999755859375</ele>
        <time>2026-08-21T18:18:33.000Z</time>
        <extensions>
          <ns3:TrackPointExtension>
            <ns3:hr>116</ns3:hr>
            <ns3:cad>0</ns3:cad>
          </ns3:TrackPointExtension>
        </extensions>
      </trkpt>
      <trkpt lat="45.332197286188602447509765625" lon="-70.9675043262541294097900390625">
        <ele>874.5999755859375</ele>
        <time>2026-08-21T18:18:34.000Z</time>
        <extensions>
          <ns3:TrackPointExtension>
            <ns3:hr>115</ns3:hr>
            <ns3:cad>0</ns3:cad>
          </ns3:TrackPointExtension>
        </extensions>
      </trkpt>
      <trkpt lat="45.332197286188602447509765625" lon="-70.9675043262541294097900390625">
        <ele>874.5999755859375</ele>
        <time>2026-08-21T18:18:35.000Z</time>
        <extensions>
          <ns3:TrackPointExtension>
            <ns3:hr>114</ns3:hr>
            <ns3:cad>0</ns3:cad>
          </ns3:TrackPointExtension>
        </extensions>
      </trkpt>
      <trkpt lat="45.332197286188602447509765625" lon="-70.9675043262541294097900390625">
        <ele>874.5999755859375</ele>
        <time>2026-08-21T18:18:36.000Z</time>
        <extensions>
          <ns3:TrackPointExtension>
            <ns3:hr>114</ns3:hr>
            <ns3:cad>0</ns3:cad>
          </ns3:TrackPointExtension>
        </extensions>
      </trkpt>
      <trkpt lat="45.332197286188602447509765625" lon="-70.9675043262541294097900390625">
        <ele>874.5999755859375</ele>
        <time>2026-08-21T18:18:37.000Z</time>
        <extensions>
          <ns3:TrackPointExtension>
            <ns3:hr>114</ns3:hr>
            <ns3:cad>0</ns3:cad>
          </ns3:TrackPointExtension>
        </extensions>
      </trkpt>
      <trkpt lat="45.332197286188602447509765625" lon="-70.9675043262541294097900390625">
        <ele>874.5999755859375</ele>
        <time>2026-08-21T18:18:38.000Z</time>
        <extensions>
          <ns3:TrackPointExtension>
            <ns3:hr>114</ns3:hr>
            <ns3:cad>0</ns3:cad>
          </ns3:TrackPointExtension>
        </extensions>
      </trkpt>
      <trkpt lat="45.332197286188602447509765625" lon="-70.9675043262541294097900390625">
        <ele>874.5999755859375</ele>
        <time>2026-08-21T18:18:39.000Z</time>
        <extensions>
          <ns3:TrackPointExtension>
            <ns3:hr>115</ns3:hr>
            <ns3:cad>0</ns3:cad>
          </ns3:TrackPointExtension>
        </extensions>
      </trkpt>
      <trkpt lat="45.332197286188602447509765625" lon="-70.9675043262541294097900390625">
        <ele>874.5999755859375</ele>
        <time>2026-08-21T18:18:40.000Z</time>
        <extensions>
          <ns3:TrackPointExtension>
            <ns3:hr>115</ns3:hr>
            <ns3:cad>0</ns3:cad>
          </ns3:TrackPointExtension>
        </extensions>
      </trkpt>
      <trkpt lat="45.33220306970179080963134765625" lon="-70.96751111559569835662841796875">
        <ele>874.4000244140625</ele>
        <time>2026-08-21T18:18:41.000Z</time>
        <extensions>
          <ns3:TrackPointExtension>
            <ns3:hr>116</ns3:hr>
            <ns3:cad>0</ns3:cad>
          </ns3:TrackPointExtension>
        </extensions>
      </trkpt>
      <trkpt lat="45.33220164477825164794921875" lon="-70.9675194136798381805419921875">
        <ele>874.4000244140625</ele>
        <time>2026-08-21T18:18:42.000Z</time>
        <extensions>
          <ns3:TrackPointExtension>
            <ns3:hr>116</ns3:hr>
            <ns3:cad>0</ns3:cad>
          </ns3:TrackPointExtension>
        </extensions>
      </trkpt>
      <trkpt lat="45.33219820819795131683349609375" lon="-70.9675234369933605194091796875">
        <ele>874.20001220703125</ele>
        <time>2026-08-21T18:18:43.000Z</time>
        <extensions>
          <ns3:TrackPointExtension>
            <ns3:hr>116</ns3:hr>
            <ns3:cad>0</ns3:cad>
          </ns3:TrackPointExtension>
        </extensions>
      </trkpt>
      <trkpt lat="45.3321977891027927398681640625" lon="-70.967530310153961181640625">
        <ele>874</ele>
        <time>2026-08-21T18:18:44.000Z</time>
        <extensions>
          <ns3:TrackPointExtension>
            <ns3:hr>116</ns3:hr>
            <ns3:cad>0</ns3:cad>
          </ns3:TrackPointExtension>
        </extensions>
      </trkpt>
      <trkpt lat="45.33219317905604839324951171875" lon="-70.96753458492457866668701171875">
        <ele>873.79998779296875</ele>
        <time>2026-08-21T18:18:45.000Z</time>
        <extensions>
          <ns3:TrackPointExtension>
            <ns3:hr>116</ns3:hr>
            <ns3:cad>0</ns3:cad>
          </ns3:TrackPointExtension>
        </extensions>
      </trkpt>
      <trkpt lat="45.33219384960830211639404296875" lon="-70.9675428830087184906005859375">
        <ele>873.5999755859375</ele>
        <time>2026-08-21T18:18:46.000Z</time>
        <extensions>
          <ns3:TrackPointExtension>
            <ns3:hr>118</ns3:hr>
            <ns3:cad>0</ns3:cad>
          </ns3:TrackPointExtension>
        </extensions>
      </trkpt>
      <trkpt lat="45.33219250850379467010498046875" lon="-70.96755084581673145294189453125">
        <ele>873.4000244140625</ele>
        <time>2026-08-21T18:18:47.000Z</time>
        <extensions>
          <ns3:TrackPointExtension>
            <ns3:hr>119</ns3:hr>
            <ns3:cad>0</ns3:cad>
          </ns3:TrackPointExtension>
        </extensions>
      </trkpt>
      <trkpt lat="45.33218965865671634674072265625" lon="-70.967548079788684844970703125">
        <ele>873.20001220703125</ele>
        <time>2026-08-21T18:18:48.000Z</time>
        <extensions>
          <ns3:TrackPointExtension>
            <ns3:hr>120</ns3:hr>
            <ns3:cad>0</ns3:cad>
          </ns3:TrackPointExtension>
        </extensions>
      </trkpt>
      <trkpt lat="45.3321853838860988616943359375" lon="-70.9675509296357631683349609375">
        <ele>873.20001220703125</ele>
        <time>2026-08-21T18:18:49.000Z</time>
        <extensions>
          <ns3:TrackPointExtension>
            <ns3:hr>120</ns3:hr>
            <ns3:cad>0</ns3:cad>
          </ns3:TrackPointExtension>
        </extensions>
      </trkpt>
      <trkpt lat="45.33218412660062313079833984375" lon="-70.96755939535796642303466796875">
        <ele>873</ele>
        <time>2026-08-21T18:18:50.000Z</time>
        <extensions>
          <ns3:TrackPointExtension>
            <ns3:hr>121</ns3:hr>
            <ns3:cad>0</ns3:cad>
          </ns3:TrackPointExtension>
        </extensions>
      </trkpt>
      <trkpt lat="45.3321827016770839691162109375" lon="-70.96756777726113796234130859375">
        <ele>872.79998779296875</ele>
        <time>2026-08-21T18:18:51.000Z</time>
        <extensions>
          <ns3:TrackPointExtension>
            <ns3:hr>120</ns3:hr>
            <ns3:cad>0</ns3:cad>
          </ns3:TrackPointExtension>
        </extensions>
      </trkpt>
      <trkpt lat="45.332181192934513092041015625" lon="-70.96757347695529460906982421875">
        <ele>872.79998779296875</ele>
        <time>2026-08-21T18:18:52.000Z</time>
        <extensions>
          <ns3:TrackPointExtension>
            <ns3:hr>120</ns3:hr>
            <ns3:cad>0</ns3:cad>
          </ns3:TrackPointExtension>
        </extensions>
      </trkpt>
      <trkpt lat="45.33218211494386196136474609375" lon="-70.96758537925779819488525390625">
        <ele>872.5999755859375</ele>
        <time>2026-08-21T18:18:53.000Z</time>
        <extensions>
          <ns3:TrackPointExtension>
            <ns3:hr>120</ns3:hr>
            <ns3:cad>0</ns3:cad>
          </ns3:TrackPointExtension>
        </extensions>
      </trkpt>
      <trkpt lat="45.33217892982065677642822265625" lon="-70.9675901569426059722900390625">
        <ele>872.4000244140625</ele>
        <time>2026-08-21T18:18:54.000Z</time>
        <extensions>
          <ns3:TrackPointExtension>
            <ns3:hr>120</ns3:hr>
            <ns3:cad>0</ns3:cad>
          </ns3:TrackPointExtension>
        </extensions>
      </trkpt>
      <trkpt lat="45.33217809163033962249755859375" lon="-70.967596359550952911376953125">
        <ele>872.4000244140625</ele>
        <time>2026-08-21T18:18:55.000Z</time>
        <extensions>
          <ns3:TrackPointExtension>
            <ns3:hr>121</ns3:hr>
            <ns3:cad>0</ns3:cad>
          </ns3:TrackPointExtension>
        </extensions>
      </trkpt>
      <trkpt lat="45.3321783430874347686767578125" lon="-70.9676022268831729888916015625">
        <ele>872.20001220703125</ele>
        <time>2026-08-21T18:18:56.000Z</time>
        <extensions>
          <ns3:TrackPointExtension>
            <ns3:hr>120</ns3:hr>
            <ns3:cad>0</ns3:cad>
          </ns3:TrackPointExtension>
        </extensions>
      </trkpt>
      <trkpt lat="45.33218412660062313079833984375" lon="-70.96761320717632770538330078125">
        <ele>872</ele>
        <time>2026-08-21T18:18:57.000Z</time>
        <extensions>
          <ns3:TrackPointExtension>
            <ns3:hr>120</ns3:hr>
            <ns3:cad>0</ns3:cad>
          </ns3:TrackPointExtension>
        </extensions>
      </trkpt>
      <trkpt lat="45.332185216248035430908203125" lon="-70.96762142144143581390380859375">
        <ele>871.79998779296875</ele>
        <time>2026-08-21T18:18:58.000Z</time>
        <extensions>
          <ns3:TrackPointExtension>
            <ns3:hr>119</ns3:hr>
            <ns3:cad>0</ns3:cad>
          </ns3:TrackPointExtension>
        </extensions>
      </trkpt>
      <trkpt lat="45.33219032920897006988525390625" lon="-70.96763500012457370758056640625">
        <ele>871.5999755859375</ele>
        <time>2026-08-21T18:18:59.000Z</time>
        <extensions>
          <ns3:TrackPointExtension>
            <ns3:hr>119</ns3:hr>
            <ns3:cad>0</ns3:cad>
          </ns3:TrackPointExtension>
        </extensions>
      </trkpt>
      <trkpt lat="45.3321969509124755859375" lon="-70.96764229238033294677734375">
        <ele>871.5999755859375</ele>
        <time>2026-08-21T18:19:00.000Z</time>
        <extensions>
          <ns3:TrackPointExtension>
            <ns3:hr>118</ns3:hr>
            <ns3:cad>0</ns3:cad>
          </ns3:TrackPointExtension>
        </extensions>
      </trkpt>
      <trkpt lat="45.33220374025404453277587890625" lon="-70.96765042282640933990478515625">
        <ele>871.4000244140625</ele>
        <time>2026-08-21T18:19:01.000Z</time>
        <extensions>
          <ns3:TrackPointExtension>
            <ns3:hr>116</ns3:hr>
            <ns3:cad>0</ns3:cad>
          </ns3:TrackPointExtension>
        </extensions>
      </trkpt>
      <trkpt lat="45.3322148881852626800537109375" lon="-70.967655368149280548095703125">
        <ele>871.4000244140625</ele>
        <time>2026-08-21T18:19:02.000Z</time>
        <extensions>
          <ns3:TrackPointExtension>
            <ns3:hr>114</ns3:hr>
            <ns3:cad>0</ns3:cad>
          </ns3:TrackPointExtension>
        </extensions>
      </trkpt>
      <trkpt lat="45.332220755517482757568359375" lon="-70.96765168011188507080078125">
        <ele>871.4000244140625</ele>
        <time>2026-08-21T18:19:03.000Z</time>
        <extensions>
          <ns3:TrackPointExtension>
            <ns3:hr>113</ns3:hr>
            <ns3:cad>0</ns3:cad>
          </ns3:TrackPointExtension>
        </extensions>
      </trkpt>
      <trkpt lat="45.332231484353542327880859375" lon="-70.96765679307281970977783203125">
        <ele>871.20001220703125</ele>
        <time>2026-08-21T18:19:04.000Z</time>
        <extensions>
          <ns3:TrackPointExtension>
            <ns3:hr>113</ns3:hr>
            <ns3:cad>0</ns3:cad>
          </ns3:TrackPointExtension>
        </extensions>
      </trkpt>
      <trkpt lat="45.332230813801288604736328125" lon="-70.96766106784343719482421875">
        <ele>871.20001220703125</ele>
        <time>2026-08-21T18:19:05.000Z</time>
        <extensions>
          <ns3:TrackPointExtension>
            <ns3:hr>112</ns3:hr>
            <ns3:cad>0</ns3:cad>
          </ns3:TrackPointExtension>
        </extensions>
      </trkpt>
      <trkpt lat="45.3322360105812549591064453125" lon="-70.967664420604705810546875">
        <ele>871.20001220703125</ele>
        <time>2026-08-21T18:19:06.000Z</time>
        <extensions>
          <ns3:TrackPointExtension>
            <ns3:hr>113</ns3:hr>
            <ns3:cad>0</ns3:cad>
          </ns3:TrackPointExtension>
        </extensions>
      </trkpt>
      <trkpt lat="45.3322403691709041595458984375" lon="-70.967670790851116180419921875">
        <ele>871.20001220703125</ele>
        <time>2026-08-21T18:19:07.000Z</time>
        <extensions>
          <ns3:TrackPointExtension>
            <ns3:hr>113</ns3:hr>
            <ns3:cad>0</ns3:cad>
          </ns3:TrackPointExtension>
        </extensions>
      </trkpt>
      <trkpt lat="45.3322464041411876678466796875" lon="-70.96767556853592395782470703125">
        <ele>871</ele>
        <time>2026-08-21T18:19:08.000Z</time>
        <extensions>
          <ns3:TrackPointExtension>
            <ns3:hr>114</ns3:hr>
            <ns3:cad>0</ns3:cad>
          </ns3:TrackPointExtension>
        </extensions>
      </trkpt>
      <trkpt lat="45.33225788734853267669677734375" lon="-70.96767523325979709625244140625">
        <ele>871</ele>
        <time>2026-08-21T18:19:09.000Z</time>
        <extensions>
          <ns3:TrackPointExtension>
            <ns3:hr>114</ns3:hr>
            <ns3:cad>0</ns3:cad>
          </ns3:TrackPointExtension>
        </extensions>
      </trkpt>
      <trkpt lat="45.33226258121430873870849609375" lon="-70.96767942421138286590576171875">
        <ele>870.79998779296875</ele>
        <time>2026-08-21T18:19:10.000Z</time>
        <extensions>
          <ns3:TrackPointExtension>
            <ns3:hr>114</ns3:hr>
            <ns3:cad>0</ns3:cad>
          </ns3:TrackPointExtension>
        </extensions>
      </trkpt>
      <trkpt lat="45.33226693980395793914794921875" lon="-70.9676877222955226898193359375">
        <ele>870.79998779296875</ele>
        <time>2026-08-21T18:19:11.000Z</time>
        <extensions>
          <ns3:TrackPointExtension>
            <ns3:hr>114</ns3:hr>
            <ns3:cad>0</ns3:cad>
          </ns3:TrackPointExtension>
        </extensions>
      </trkpt>
      <trkpt lat="45.33226978965103626251220703125" lon="-70.96769702620804309844970703125">
        <ele>870.5999755859375</ele>
        <time>2026-08-21T18:19:12.000Z</time>
        <extensions>
          <ns3:TrackPointExtension>
            <ns3:hr>114</ns3:hr>
            <ns3:cad>0</ns3:cad>
          </ns3:TrackPointExtension>
        </extensions>
      </trkpt>
      <trkpt lat="45.33227196894586086273193359375" lon="-70.9677059948444366455078125">
        <ele>870.4000244140625</ele>
        <time>2026-08-21T18:19:13.000Z</time>
        <extensions>
          <ns3:TrackPointExtension>
            <ns3:hr>114</ns3:hr>
            <ns3:cad>0</ns3:cad>
          </ns3:TrackPointExtension>
        </extensions>
      </trkpt>
      <trkpt lat="45.332272052764892578125" lon="-70.967709682881832122802734375">
        <ele>870.20001220703125</ele>
        <time>2026-08-21T18:19:14.000Z</time>
        <extensions>
          <ns3:TrackPointExtension>
            <ns3:hr>113</ns3:hr>
            <ns3:cad>0</ns3:cad>
          </ns3:TrackPointExtension>
        </extensions>
      </trkpt>
      <trkpt lat="45.33226911909878253936767578125" lon="-70.96772150136530399322509765625">
        <ele>870</ele>
        <time>2026-08-21T18:19:15.000Z</time>
        <extensions>
          <ns3:TrackPointExtension>
            <ns3:hr>113</ns3:hr>
            <ns3:cad>0</ns3:cad>
          </ns3:TrackPointExtension>
        </extensions>
      </trkpt>
      <trkpt lat="45.3322641737759113311767578125" lon="-70.96773340366780757904052734375">
        <ele>869.5999755859375</ele>
        <time>2026-08-21T18:19:16.000Z</time>
        <extensions>
          <ns3:TrackPointExtension>
            <ns3:hr>112</ns3:hr>
            <ns3:cad>0</ns3:cad>
          </ns3:TrackPointExtension>
        </extensions>
      </trkpt>
      <trkpt lat="45.33225989900529384613037109375" lon="-70.96775033511221408843994140625">
        <ele>869.4000244140625</ele>
        <time>2026-08-21T18:19:17.000Z</time>
        <extensions>
          <ns3:TrackPointExtension>
            <ns3:hr>112</ns3:hr>
            <ns3:cad>0</ns3:cad>
          </ns3:TrackPointExtension>
        </extensions>
      </trkpt>
      <trkpt lat="45.33226124010980129241943359375" lon="-70.96775921992957592010498046875">
        <ele>869</ele>
        <time>2026-08-21T18:19:18.000Z</time>
        <extensions>
          <ns3:TrackPointExtension>
            <ns3:hr>112</ns3:hr>
            <ns3:cad>0</ns3:cad>
          </ns3:TrackPointExtension>
        </extensions>
      </trkpt>
      <trkpt lat="45.3322584740817546844482421875" lon="-70.96777237951755523681640625">
        <ele>868.79998779296875</ele>
        <time>2026-08-21T18:19:19.000Z</time>
        <extensions>
          <ns3:TrackPointExtension>
            <ns3:hr>111</ns3:hr>
            <ns3:cad>0</ns3:cad>
          </ns3:TrackPointExtension>
        </extensions>
      </trkpt>
      <trkpt lat="45.33225554041564464569091796875" lon="-70.9677862934768199920654296875">
        <ele>868.4000244140625</ele>
        <time>2026-08-21T18:19:20.000Z</time>
        <extensions>
          <ns3:TrackPointExtension>
            <ns3:hr>112</ns3:hr>
            <ns3:cad>0</ns3:cad>
          </ns3:TrackPointExtension>
        </extensions>
      </trkpt>
      <trkpt lat="45.3322547860443592071533203125" lon="-70.96779786050319671630859375">
        <ele>868.20001220703125</ele>
        <time>2026-08-21T18:19:21.000Z</time>
        <extensions>
          <ns3:TrackPointExtension>
            <ns3:hr>112</ns3:hr>
            <ns3:cad>0</ns3:cad>
          </ns3:TrackPointExtension>
        </extensions>
      </trkpt>
      <trkpt lat="45.33225285820662975311279296875" lon="-70.967802889645099639892578125">
        <ele>868</ele>
        <time>2026-08-21T18:19:22.000Z</time>
        <extensions>
          <ns3:TrackPointExtension>
            <ns3:hr>112</ns3:hr>
            <ns3:cad>0</ns3:cad>
          </ns3:TrackPointExtension>
        </extensions>
      </trkpt>
      <trkpt lat="45.332246907055377960205078125" lon="-70.967812947928905487060546875">
        <ele>868</ele>
        <time>2026-08-21T18:19:23.000Z</time>
        <extensions>
          <ns3:TrackPointExtension>
            <ns3:hr>113</ns3:hr>
            <ns3:cad>0</ns3:cad>
          </ns3:TrackPointExtension>
        </extensions>
      </trkpt>
      <trkpt lat="45.332244224846363067626953125" lon="-70.967819653451442718505859375">
        <ele>867.79998779296875</ele>
        <time>2026-08-21T18:19:24.000Z</time>
        <extensions>
          <ns3:TrackPointExtension>
            <ns3:hr>113</ns3:hr>
            <ns3:cad>0</ns3:cad>
          </ns3:TrackPointExtension>
        </extensions>
      </trkpt>
      <trkpt lat="45.33223743550479412078857421875" lon="-70.96783130429685115814208984375">
        <ele>867.5999755859375</ele>
        <time>2026-08-21T18:19:25.000Z</time>
        <extensions>
          <ns3:TrackPointExtension>
            <ns3:hr>115</ns3:hr>
            <ns3:cad>0</ns3:cad>
          </ns3:TrackPointExtension>
        </extensions>
      </trkpt>
      <trkpt lat="45.33223257400095462799072265625" lon="-70.96784505061805248260498046875">
        <ele>867.4000244140625</ele>
        <time>2026-08-21T18:19:26.000Z</time>
        <extensions>
          <ns3:TrackPointExtension>
            <ns3:hr>117</ns3:hr>
            <ns3:cad>0</ns3:cad>
          </ns3:TrackPointExtension>
        </extensions>
      </trkpt>
      <trkpt lat="45.3322272934019565582275390625" lon="-70.9678593836724758148193359375">
        <ele>867.4000244140625</ele>
        <time>2026-08-21T18:19:27.000Z</time>
        <extensions>
          <ns3:TrackPointExtension>
            <ns3:hr>118</ns3:hr>
            <ns3:cad>0</ns3:cad>
          </ns3:TrackPointExtension>
        </extensions>
      </trkpt>
      <trkpt lat="45.332226790487766265869140625" lon="-70.967874638736248016357421875">
        <ele>867.20001220703125</ele>
        <time>2026-08-21T18:19:28.000Z</time>
        <extensions>
          <ns3:TrackPointExtension>
            <ns3:hr>119</ns3:hr>
            <ns3:cad>0</ns3:cad>
          </ns3:TrackPointExtension>
        </extensions>
      </trkpt>
      <trkpt lat="45.33222855068743228912353515625" lon="-70.96788913942873477935791015625">
        <ele>867</ele>
        <time>2026-08-21T18:19:29.000Z</time>
        <extensions>
          <ns3:TrackPointExtension>
            <ns3:hr>118</ns3:hr>
            <ns3:cad>52</ns3:cad>
          </ns3:TrackPointExtension>
        </extensions>
      </trkpt>
      <trkpt lat="45.33223173581063747406005859375" lon="-70.96790607087314128875732421875">
        <ele>867</ele>
        <time>2026-08-21T18:19:30.000Z</time>
        <extensions>
          <ns3:TrackPointExtension>
            <ns3:hr>118</ns3:hr>
            <ns3:cad>52</ns3:cad>
          </ns3:TrackPointExtension>
        </extensions>
      </trkpt>
      <trkpt lat="45.33223927952349185943603515625" lon="-70.96791051328182220458984375">
        <ele>866.79998779296875</ele>
        <time>2026-08-21T18:19:31.000Z</time>
        <extensions>
          <ns3:TrackPointExtension>
            <ns3:hr>118</ns3:hr>
            <ns3:cad>52</ns3:cad>
          </ns3:TrackPointExtension>
        </extensions>
      </trkpt>
      <trkpt lat="45.33224632032215595245361328125" lon="-70.96791797317564487457275390625">
        <ele>866.5999755859375</ele>
        <time>2026-08-21T18:19:32.000Z</time>
        <extensions>
          <ns3:TrackPointExtension>
            <ns3:hr>116</ns3:hr>
            <ns3:cad>57</ns3:cad>
          </ns3:TrackPointExtension>
        </extensions>
      </trkpt>
      <trkpt lat="45.3322465717792510986328125" lon="-70.96792266704142093658447265625">
        <ele>866.4000244140625</ele>
        <time>2026-08-21T18:19:33.000Z</time>
        <extensions>
          <ns3:TrackPointExtension>
            <ns3:hr>115</ns3:hr>
            <ns3:cad>57</ns3:cad>
          </ns3:TrackPointExtension>
        </extensions>
      </trkpt>
      <trkpt lat="45.33224816434085369110107421875" lon="-70.96793658100068569183349609375">
        <ele>866.20001220703125</ele>
        <time>2026-08-21T18:19:34.000Z</time>
        <extensions>
          <ns3:TrackPointExtension>
            <ns3:hr>114</ns3:hr>
            <ns3:cad>0</ns3:cad>
          </ns3:TrackPointExtension>
        </extensions>
      </trkpt>
      <trkpt lat="45.3322487510740756988525390625" lon="-70.967947058379650115966796875">
        <ele>866</ele>
        <time>2026-08-21T18:19:35.000Z</time>
        <extensions>
          <ns3:TrackPointExtension>
            <ns3:hr>112</ns3:hr>
            <ns3:cad>0</ns3:cad>
          </ns3:TrackPointExtension>
        </extensions>
      </trkpt>
      <trkpt lat="45.33225151710212230682373046875" lon="-70.9679556079208850860595703125">
        <ele>865.5999755859375</ele>
        <time>2026-08-21T18:19:36.000Z</time>
        <extensions>
          <ns3:TrackPointExtension>
            <ns3:hr>111</ns3:hr>
            <ns3:cad>0</ns3:cad>
          </ns3:TrackPointExtension>
        </extensions>
      </trkpt>
      <trkpt lat="45.33224883489310741424560546875" lon="-70.96797077916562557220458984375">
        <ele>865.4000244140625</ele>
        <time>2026-08-21T18:19:37.000Z</time>
        <extensions>
          <ns3:TrackPointExtension>
            <ns3:hr>110</ns3:hr>
            <ns3:cad>0</ns3:cad>
          </ns3:TrackPointExtension>
        </extensions>
      </trkpt>
      <trkpt lat="45.33224615268409252166748046875" lon="-70.967983938753604888916015625">
        <ele>864.79998779296875</ele>
        <time>2026-08-21T18:19:38.000Z</time>
        <extensions>
          <ns3:TrackPointExtension>
            <ns3:hr>110</ns3:hr>
            <ns3:cad>0</ns3:cad>
          </ns3:TrackPointExtension>
        </extensions>
      </trkpt>
      <trkpt lat="45.33224162645637989044189453125" lon="-70.96800061874091625213623046875">
        <ele>864.4000244140625</ele>
        <time>2026-08-21T18:19:39.000Z</time>
        <extensions>
          <ns3:TrackPointExtension>
            <ns3:hr>110</ns3:hr>
            <ns3:cad>0</ns3:cad>
          </ns3:TrackPointExtension>
        </extensions>
      </trkpt>
      <trkpt lat="45.332237519323825836181640625" lon="-70.9680152870714664459228515625">
        <ele>864</ele>
        <time>2026-08-21T18:19:40.000Z</time>
        <extensions>
          <ns3:TrackPointExtension>
            <ns3:hr>110</ns3:hr>
            <ns3:cad>0</ns3:cad>
          </ns3:TrackPointExtension>
        </extensions>
      </trkpt>
      <trkpt lat="45.3322396986186504364013671875" lon="-70.96803196705877780914306640625">
        <ele>863.79998779296875</ele>
        <time>2026-08-21T18:19:41.000Z</time>
        <extensions>
          <ns3:TrackPointExtension>
            <ns3:hr>111</ns3:hr>
            <ns3:cad>0</ns3:cad>
          </ns3:TrackPointExtension>
        </extensions>
      </trkpt>
      <trkpt lat="45.332241542637348175048828125" lon="-70.96804956905543804168701171875">
        <ele>863.4000244140625</ele>
        <time>2026-08-21T18:19:42.000Z</time>
        <extensions>
          <ns3:TrackPointExtension>
            <ns3:hr>111</ns3:hr>
            <ns3:cad>0</ns3:cad>
          </ns3:TrackPointExtension>
        </extensions>
      </trkpt>
      <trkpt lat="45.3322398662567138671875" lon="-70.9680618904531002044677734375">
        <ele>863</ele>
        <time>2026-08-21T18:19:43.000Z</time>
        <extensions>
          <ns3:TrackPointExtension>
            <ns3:hr>111</ns3:hr>
            <ns3:cad>0</ns3:cad>
          </ns3:TrackPointExtension>
        </extensions>
      </trkpt>
      <trkpt lat="45.33223785459995269775390625" lon="-70.96806935034692287445068359375">
        <ele>862.79998779296875</ele>
        <time>2026-08-21T18:19:44.000Z</time>
        <extensions>
          <ns3:TrackPointExtension>
            <ns3:hr>111</ns3:hr>
            <ns3:cad>0</ns3:cad>
          </ns3:TrackPointExtension>
        </extensions>
      </trkpt>
      <trkpt lat="45.332234837114810943603515625" lon="-70.96807739697396755218505859375">
        <ele>862.5999755859375</ele>
        <time>2026-08-21T18:19:45.000Z</time>
        <extensions>
          <ns3:TrackPointExtension>
            <ns3:hr>111</ns3:hr>
            <ns3:cad>0</ns3:cad>
          </ns3:TrackPointExtension>
        </extensions>
      </trkpt>
      <trkpt lat="45.33222888596355915069580078125" lon="-70.96808276139199733734130859375">
        <ele>862.20001220703125</ele>
        <time>2026-08-21T18:19:46.000Z</time>
        <extensions>
          <ns3:TrackPointExtension>
            <ns3:hr>110</ns3:hr>
            <ns3:cad>0</ns3:cad>
          </ns3:TrackPointExtension>
        </extensions>
      </trkpt>
      <trkpt lat="45.33222536556422710418701171875" lon="-70.9680897183716297149658203125">
        <ele>861.79998779296875</ele>
        <time>2026-08-21T18:19:47.000Z</time>
        <extensions>
          <ns3:TrackPointExtension>
            <ns3:hr>110</ns3:hr>
            <ns3:cad>0</ns3:cad>
          </ns3:TrackPointExtension>
        </extensions>
      </trkpt>
      <trkpt lat="45.3322184085845947265625" lon="-70.9681081585586071014404296875">
        <ele>861.4000244140625</ele>
        <time>2026-08-21T18:19:48.000Z</time>
        <extensions>
          <ns3:TrackPointExtension>
            <ns3:hr>111</ns3:hr>
            <ns3:cad>0</ns3:cad>
          </ns3:TrackPointExtension>
        </extensions>
      </trkpt>
      <trkpt lat="45.3322168998420238494873046875" lon="-70.96812752075493335723876953125">
        <ele>861.20001220703125</ele>
        <time>2026-08-21T18:19:49.000Z</time>
        <extensions>
          <ns3:TrackPointExtension>
            <ns3:hr>111</ns3:hr>
            <ns3:cad>0</ns3:cad>
          </ns3:TrackPointExtension>
        </extensions>
      </trkpt>
      <trkpt lat="45.33221715129911899566650390625" lon="-70.9681416861712932586669921875">
        <ele>860.79998779296875</ele>
        <time>2026-08-21T18:19:50.000Z</time>
        <extensions>
          <ns3:TrackPointExtension>
            <ns3:hr>111</ns3:hr>
            <ns3:cad>0</ns3:cad>
          </ns3:TrackPointExtension>
        </extensions>
      </trkpt>
      <trkpt lat="45.33221916295588016510009765625" lon="-70.96815836615860462188720703125">
        <ele>860.4000244140625</ele>
        <time>2026-08-21T18:19:51.000Z</time>
        <extensions>
          <ns3:TrackPointExtension>
            <ns3:hr>111</ns3:hr>
            <ns3:cad>0</ns3:cad>
          </ns3:TrackPointExtension>
        </extensions>
      </trkpt>
      <trkpt lat="45.33221866004168987274169921875" lon="-70.96817965619266033172607421875">
        <ele>860.20001220703125</ele>
        <time>2026-08-21T18:19:52.000Z</time>
        <extensions>
          <ns3:TrackPointExtension>
            <ns3:hr>111</ns3:hr>
            <ns3:cad>0</ns3:cad>
          </ns3:TrackPointExtension>
        </extensions>
      </trkpt>
      <trkpt lat="45.3322197496891021728515625" lon="-70.968195833265781402587890625">
        <ele>859.79998779296875</ele>
        <time>2026-08-21T18:19:53.000Z</time>
        <extensions>
          <ns3:TrackPointExtension>
            <ns3:hr>111</ns3:hr>
            <ns3:cad>0</ns3:cad>
          </ns3:TrackPointExtension>
        </extensions>
      </trkpt>
      <trkpt lat="45.33221832476556301116943359375" lon="-70.9682057239115238189697265625">
        <ele>859.4000244140625</ele>
        <time>2026-08-21T18:19:54.000Z</time>
        <extensions>
          <ns3:TrackPointExtension>
            <ns3:hr>111</ns3:hr>
            <ns3:cad>0</ns3:cad>
          </ns3:TrackPointExtension>
        </extensions>
      </trkpt>
      <trkpt lat="45.33221329562366008758544921875" lon="-70.96822173334658145904541015625">
        <ele>859</ele>
        <time>2026-08-21T18:19:55.000Z</time>
        <extensions>
          <ns3:TrackPointExtension>
            <ns3:hr>111</ns3:hr>
            <ns3:cad>0</ns3:cad>
          </ns3:TrackPointExtension>
        </extensions>
      </trkpt>
      <trkpt lat="45.3322075121104717254638671875" lon="-70.9682352282106876373291015625">
        <ele>858.5999755859375</ele>
        <time>2026-08-21T18:19:56.000Z</time>
        <extensions>
          <ns3:TrackPointExtension>
            <ns3:hr>111</ns3:hr>
            <ns3:cad>0</ns3:cad>
          </ns3:TrackPointExtension>
        </extensions>
      </trkpt>
      <trkpt lat="45.3321994654834270477294921875" lon="-70.96824151463806629180908203125">
        <ele>858.20001220703125</ele>
        <time>2026-08-21T18:19:57.000Z</time>
        <extensions>
          <ns3:TrackPointExtension>
            <ns3:hr>111</ns3:hr>
            <ns3:cad>0</ns3:cad>
          </ns3:TrackPointExtension>
        </extensions>
      </trkpt>
      <trkpt lat="45.33219225704669952392578125" lon="-70.9682442806661128997802734375">
        <ele>858</ele>
        <time>2026-08-21T18:19:58.000Z</time>
        <extensions>
          <ns3:TrackPointExtension>
            <ns3:hr>112</ns3:hr>
            <ns3:cad>0</ns3:cad>
          </ns3:TrackPointExtension>
        </extensions>
      </trkpt>
      <trkpt lat="45.33218915574252605438232421875" lon="-70.96824436448514461517333984375">
        <ele>857.5999755859375</ele>
        <time>2026-08-21T18:19:59.000Z</time>
        <extensions>
          <ns3:TrackPointExtension>
            <ns3:hr>112</ns3:hr>
            <ns3:cad>0</ns3:cad>
          </ns3:TrackPointExtension>
        </extensions>
      </trkpt>
      <trkpt lat="45.3321900777518749237060546875" lon="-70.96823950298130512237548828125">
        <ele>857.4000244140625</ele>
        <time>2026-08-21T18:20:00.000Z</time>
        <extensions>
          <ns3:TrackPointExtension>
            <ns3:hr>113</ns3:hr>
            <ns3:cad>0</ns3:cad>
          </ns3:TrackPointExtension>
        </extensions>
      </trkpt>
      <trkpt lat="45.3321863897144794464111328125" lon="-70.96823514439165592193603515625">
        <ele>857.4000244140625</ele>
        <time>2026-08-21T18:20:01.000Z</time>
        <extensions>
          <ns3:TrackPointExtension>
            <ns3:hr>113</ns3:hr>
            <ns3:cad>0</ns3:cad>
          </ns3:TrackPointExtension>
        </extensions>
      </trkpt>
      <trkpt lat="45.33218085765838623046875" lon="-70.96823128871619701385498046875">
        <ele>857.5999755859375</ele>
        <time>2026-08-21T18:20:02.000Z</time>
        <extensions>
          <ns3:TrackPointExtension>
            <ns3:hr>114</ns3:hr>
            <ns3:cad>66</ns3:cad>
          </ns3:TrackPointExtension>
        </extensions>
      </trkpt>
      <trkpt lat="45.33217373304069042205810546875" lon="-70.96823413856327533721923828125">
        <ele>857.5999755859375</ele>
        <time>2026-08-21T18:20:03.000Z</time>
        <extensions>
          <ns3:TrackPointExtension>
            <ns3:hr>114</ns3:hr>
            <ns3:cad>66</ns3:cad>
          </ns3:TrackPointExtension>
        </extensions>
      </trkpt>
      <trkpt lat="45.33216669224202632904052734375" lon="-70.9682372398674488067626953125">
        <ele>857.79998779296875</ele>
        <time>2026-08-21T18:20:04.000Z</time>
        <extensions>
          <ns3:TrackPointExtension>
            <ns3:hr>114</ns3:hr>
            <ns3:cad>66</ns3:cad>
          </ns3:TrackPointExtension>
        </extensions>
      </trkpt>
      <trkpt lat="45.33216216601431369781494140625" lon="-70.9682472981512546539306640625">
        <ele>857.79998779296875</ele>
        <time>2026-08-21T18:20:05.000Z</time>
        <extensions>
          <ns3:TrackPointExtension>
            <ns3:hr>114</ns3:hr>
            <ns3:cad>0</ns3:cad>
          </ns3:TrackPointExtension>
        </extensions>
      </trkpt>
      <trkpt lat="45.3321565501391887664794921875" lon="-70.96825249493122100830078125">
        <ele>857.79998779296875</ele>
        <time>2026-08-21T18:20:06.000Z</time>
        <extensions>
          <ns3:TrackPointExtension>
            <ns3:hr>114</ns3:hr>
            <ns3:cad>0</ns3:cad>
          </ns3:TrackPointExtension>
        </extensions>
      </trkpt>
      <trkpt lat="45.33215210773050785064697265625" lon="-70.96825878135859966278076171875">
        <ele>857.79998779296875</ele>
        <time>2026-08-21T18:20:07.000Z</time>
        <extensions>
          <ns3:TrackPointExtension>
            <ns3:hr>114</ns3:hr>
            <ns3:cad>0</ns3:cad>
          </ns3:TrackPointExtension>
        </extensions>
      </trkpt>
      <trkpt lat="45.33214691095054149627685546875" lon="-70.9682643972337245941162109375">
        <ele>857.79998779296875</ele>
        <time>2026-08-21T18:20:08.000Z</time>
        <extensions>
          <ns3:TrackPointExtension>
            <ns3:hr>114</ns3:hr>
            <ns3:cad>0</ns3:cad>
          </ns3:TrackPointExtension>
        </extensions>
      </trkpt>
      <trkpt lat="45.33214892260730266571044921875" lon="-70.9682744555175304412841796875">
        <ele>857.5999755859375</ele>
        <time>2026-08-21T18:20:09.000Z</time>
        <extensions>
          <ns3:TrackPointExtension>
            <ns3:hr>115</ns3:hr>
            <ns3:cad>0</ns3:cad>
          </ns3:TrackPointExtension>
        </extensions>
      </trkpt>
      <trkpt lat="45.33215059898793697357177734375" lon="-70.9682773053646087646484375">
        <ele>857.5999755859375</ele>
        <time>2026-08-21T18:20:10.000Z</time>
        <extensions>
          <ns3:TrackPointExtension>
            <ns3:hr>115</ns3:hr>
            <ns3:cad>0</ns3:cad>
          </ns3:TrackPointExtension>
        </extensions>
      </trkpt>
      <trkpt lat="45.33215478993952274322509765625" lon="-70.96828644163906574249267578125">
        <ele>857.4000244140625</ele>
        <time>2026-08-21T18:20:11.000Z</time>
        <extensions>
          <ns3:TrackPointExtension>
            <ns3:hr>115</ns3:hr>
            <ns3:cad>0</ns3:cad>
          </ns3:TrackPointExtension>
        </extensions>
      </trkpt>
      <trkpt lat="45.33215361647307872772216796875" lon="-70.968294404447078704833984375">
        <ele>857.20001220703125</ele>
        <time>2026-08-21T18:20:12.000Z</time>
        <extensions>
          <ns3:TrackPointExtension>
            <ns3:hr>115</ns3:hr>
            <ns3:cad>0</ns3:cad>
          </ns3:TrackPointExtension>
        </extensions>
      </trkpt>
      <trkpt lat="45.33215210773050785064697265625" lon="-70.96830035559833049774169921875">
        <ele>857</ele>
        <time>2026-08-21T18:20:13.000Z</time>
        <extensions>
          <ns3:TrackPointExtension>
            <ns3:hr>115</ns3:hr>
            <ns3:cad>0</ns3:cad>
          </ns3:TrackPointExtension>
        </extensions>
      </trkpt>
      <trkpt lat="45.33215244300663471221923828125" lon="-70.9683086536824703216552734375">
        <ele>856.79998779296875</ele>
        <time>2026-08-21T18:20:14.000Z</time>
        <extensions>
          <ns3:TrackPointExtension>
            <ns3:hr>116</ns3:hr>
            <ns3:cad>0</ns3:cad>
          </ns3:TrackPointExtension>
        </extensions>
      </trkpt>
      <trkpt lat="45.33215277828276157379150390625" lon="-70.9683200530707836151123046875">
        <ele>856.5999755859375</ele>
        <time>2026-08-21T18:20:15.000Z</time>
        <extensions>
          <ns3:TrackPointExtension>
            <ns3:hr>115</ns3:hr>
            <ns3:cad>0</ns3:cad>
          </ns3:TrackPointExtension>
        </extensions>
      </trkpt>
      <trkpt lat="45.3321525268256664276123046875" lon="-70.96833237446844577789306640625">
        <ele>856.4000244140625</ele>
        <time>2026-08-21T18:20:16.000Z</time>
        <extensions>
          <ns3:TrackPointExtension>
            <ns3:hr>115</ns3:hr>
            <ns3:cad>0</ns3:cad>
          </ns3:TrackPointExtension>
        </extensions>
      </trkpt>
      <trkpt lat="45.332153700292110443115234375" lon="-70.96833975054323673248291015625">
        <ele>856.20001220703125</ele>
        <time>2026-08-21T18:20:17.000Z</time>
        <extensions>
          <ns3:TrackPointExtension>
            <ns3:hr>116</ns3:hr>
            <ns3:cad>47</ns3:cad>
          </ns3:TrackPointExtension>
        </extensions>
      </trkpt>
      <trkpt lat="45.3321538679301738739013671875" lon="-70.96834637224674224853515625">
        <ele>856</ele>
        <time>2026-08-21T18:20:18.000Z</time>
        <extensions>
          <ns3:TrackPointExtension>
            <ns3:hr>116</ns3:hr>
            <ns3:cad>47</ns3:cad>
          </ns3:TrackPointExtension>
        </extensions>
      </trkpt>
      <trkpt lat="45.3321515209972858428955078125" lon="-70.96835064701735973358154296875">
        <ele>855.79998779296875</ele>
        <time>2026-08-21T18:20:19.000Z</time>
        <extensions>
          <ns3:TrackPointExtension>
            <ns3:hr>116</ns3:hr>
            <ns3:cad>47</ns3:cad>
          </ns3:TrackPointExtension>
        </extensions>
      </trkpt>
      <trkpt lat="45.3321473300457000732421875" lon="-70.9683549217879772186279296875">
        <ele>855.5999755859375</ele>
        <time>2026-08-21T18:20:20.000Z</time>
        <extensions>
          <ns3:TrackPointExtension>
            <ns3:hr>116</ns3:hr>
            <ns3:cad>47</ns3:cad>
          </ns3:TrackPointExtension>
        </extensions>
      </trkpt>
      <trkpt lat="45.33214238472282886505126953125" lon="-70.9683656506240367889404296875">
        <ele>855.5999755859375</ele>
        <time>2026-08-21T18:20:21.000Z</time>
        <extensions>
          <ns3:TrackPointExtension>
            <ns3:hr>116</ns3:hr>
            <ns3:cad>47</ns3:cad>
          </ns3:TrackPointExtension>
        </extensions>
      </trkpt>
      <trkpt lat="45.33214037306606769561767578125" lon="-70.96837344579398632049560546875">
        <ele>855.4000244140625</ele>
        <time>2026-08-21T18:20:22.000Z</time>
        <extensions>
          <ns3:TrackPointExtension>
            <ns3:hr>117</ns3:hr>
            <ns3:cad>41</ns3:cad>
          </ns3:TrackPointExtension>
        </extensions>
      </trkpt>
      <trkpt lat="45.3321381099522113800048828125" lon="-70.9683760441839694976806640625">
        <ele>855.20001220703125</ele>
        <time>2026-08-21T18:20:23.000Z</time>
        <extensions>
          <ns3:TrackPointExtension>
            <ns3:hr>117</ns3:hr>
            <ns3:cad>41</ns3:cad>
          </ns3:TrackPointExtension>
        </extensions>
      </trkpt>
      <trkpt lat="45.3321317397058010101318359375" lon="-70.96838065423071384429931640625">
        <ele>855.20001220703125</ele>
        <time>2026-08-21T18:20:24.000Z</time>
        <extensions>
          <ns3:TrackPointExtension>
            <ns3:hr>117</ns3:hr>
            <ns3:cad>41</ns3:cad>
          </ns3:TrackPointExtension>
        </extensions>
      </trkpt>
      <trkpt lat="45.332124195992946624755859375" lon="-70.9683914668858051300048828125">
        <ele>855</ele>
        <time>2026-08-21T18:20:25.000Z</time>
        <extensions>
          <ns3:TrackPointExtension>
            <ns3:hr>117</ns3:hr>
            <ns3:cad>41</ns3:cad>
          </ns3:TrackPointExtension>
        </extensions>
      </trkpt>
      <trkpt lat="45.33212109468877315521240234375" lon="-70.9684035368263721466064453125">
        <ele>854.79998779296875</ele>
        <time>2026-08-21T18:20:26.000Z</time>
        <extensions>
          <ns3:TrackPointExtension>
            <ns3:hr>117</ns3:hr>
            <ns3:cad>41</ns3:cad>
          </ns3:TrackPointExtension>
        </extensions>
      </trkpt>
      <trkpt lat="45.3321176581084728240966796875" lon="-70.96841820515692234039306640625">
        <ele>854.5999755859375</ele>
        <time>2026-08-21T18:20:27.000Z</time>
        <extensions>
          <ns3:TrackPointExtension>
            <ns3:hr>117</ns3:hr>
            <ns3:cad>43</ns3:cad>
          </ns3:TrackPointExtension>
        </extensions>
      </trkpt>
      <trkpt lat="45.332115478813648223876953125" lon="-70.96842826344072818756103515625">
        <ele>854.4000244140625</ele>
        <time>2026-08-21T18:20:28.000Z</time>
        <extensions>
          <ns3:TrackPointExtension>
            <ns3:hr>117</ns3:hr>
            <ns3:cad>43</ns3:cad>
          </ns3:TrackPointExtension>
        </extensions>
      </trkpt>
      <trkpt lat="45.3321143053472042083740234375" lon="-70.9684394113719463348388671875">
        <ele>854.20001220703125</ele>
        <time>2026-08-21T18:20:29.000Z</time>
        <extensions>
          <ns3:TrackPointExtension>
            <ns3:hr>117</ns3:hr>
            <ns3:cad>43</ns3:cad>
          </ns3:TrackPointExtension>
        </extensions>
      </trkpt>
      <trkpt lat="45.332114137709140777587890625" lon="-70.968448631465435028076171875">
        <ele>854</ele>
        <time>2026-08-21T18:20:30.000Z</time>
        <extensions>
          <ns3:TrackPointExtension>
            <ns3:hr>118</ns3:hr>
            <ns3:cad>0</ns3:cad>
          </ns3:TrackPointExtension>
        </extensions>
      </trkpt>
      <trkpt lat="45.33211338333785533905029296875" lon="-70.968453995883464813232421875">
        <ele>853.79998779296875</ele>
        <time>2026-08-21T18:20:31.000Z</time>
        <extensions>
          <ns3:TrackPointExtension>
            <ns3:hr>118</ns3:hr>
            <ns3:cad>0</ns3:cad>
          </ns3:TrackPointExtension>
        </extensions>
      </trkpt>
      <trkpt lat="45.33211204223334789276123046875" lon="-70.96846246160566806793212890625">
        <ele>853.5999755859375</ele>
        <time>2026-08-21T18:20:32.000Z</time>
        <extensions>
          <ns3:TrackPointExtension>
            <ns3:hr>118</ns3:hr>
            <ns3:cad>0</ns3:cad>
          </ns3:TrackPointExtension>
        </extensions>
      </trkpt>
      <trkpt lat="45.332110114395618438720703125" lon="-70.96846438944339752197265625">
        <ele>853.4000244140625</ele>
        <time>2026-08-21T18:20:33.000Z</time>
        <extensions>
          <ns3:TrackPointExtension>
            <ns3:hr>118</ns3:hr>
            <ns3:cad>0</ns3:cad>
          </ns3:TrackPointExtension>
        </extensions>
      </trkpt>
      <trkpt lat="45.33210768364369869232177734375" lon="-70.96847386099398136138916015625">
        <ele>853.20001220703125</ele>
        <time>2026-08-21T18:20:34.000Z</time>
        <extensions>
          <ns3:TrackPointExtension>
            <ns3:hr>117</ns3:hr>
            <ns3:cad>0</ns3:cad>
          </ns3:TrackPointExtension>
        </extensions>
      </trkpt>
      <trkpt lat="45.33210718072950839996337890625" lon="-70.96848593093454837799072265625">
        <ele>853</ele>
        <time>2026-08-21T18:20:35.000Z</time>
        <extensions>
          <ns3:TrackPointExtension>
            <ns3:hr>118</ns3:hr>
            <ns3:cad>0</ns3:cad>
          </ns3:TrackPointExtension>
        </extensions>
      </trkpt>
      <trkpt lat="45.332106761634349822998046875" lon="-70.96850059926509857177734375">
        <ele>852.79998779296875</ele>
        <time>2026-08-21T18:20:36.000Z</time>
        <extensions>
          <ns3:TrackPointExtension>
            <ns3:hr>118</ns3:hr>
            <ns3:cad>0</ns3:cad>
          </ns3:TrackPointExtension>
        </extensions>
      </trkpt>
      <trkpt lat="45.33210885711014270782470703125" lon="-70.96851509995758533477783203125">
        <ele>852.5999755859375</ele>
        <time>2026-08-21T18:20:37.000Z</time>
        <extensions>
          <ns3:TrackPointExtension>
            <ns3:hr>118</ns3:hr>
            <ns3:cad>0</ns3:cad>
          </ns3:TrackPointExtension>
        </extensions>
      </trkpt>
      <trkpt lat="45.33211019821465015411376953125" lon="-70.968528091907501220703125">
        <ele>852.4000244140625</ele>
        <time>2026-08-21T18:20:38.000Z</time>
        <extensions>
          <ns3:TrackPointExtension>
            <ns3:hr>118</ns3:hr>
            <ns3:cad>0</ns3:cad>
          </ns3:TrackPointExtension>
        </extensions>
      </trkpt>
      <trkpt lat="45.33211053349077701568603515625" lon="-70.96854024566709995269775390625">
        <ele>852.20001220703125</ele>
        <time>2026-08-21T18:20:39.000Z</time>
        <extensions>
          <ns3:TrackPointExtension>
            <ns3:hr>118</ns3:hr>
            <ns3:cad>0</ns3:cad>
          </ns3:TrackPointExtension>
        </extensions>
      </trkpt>
      <trkpt lat="45.3321111202239990234375" lon="-70.968544520437717437744140625">
        <ele>852</ele>
        <time>2026-08-21T18:20:40.000Z</time>
        <extensions>
          <ns3:TrackPointExtension>
            <ns3:hr>118</ns3:hr>
            <ns3:cad>0</ns3:cad>
          </ns3:TrackPointExtension>
        </extensions>
      </trkpt>
      <trkpt lat="45.332112126052379608154296875" lon="-70.96855667419731616973876953125">
        <ele>852</ele>
        <time>2026-08-21T18:20:41.000Z</time>
        <extensions>
          <ns3:TrackPointExtension>
            <ns3:hr>117</ns3:hr>
            <ns3:cad>0</ns3:cad>
          </ns3:TrackPointExtension>
        </extensions>
      </trkpt>
      <trkpt lat="45.3321111202239990234375" lon="-70.96857109107077121734619140625">
        <ele>851.79998779296875</ele>
        <time>2026-08-21T18:20:42.000Z</time>
        <extensions>
          <ns3:TrackPointExtension>
            <ns3:hr>118</ns3:hr>
            <ns3:cad>0</ns3:cad>
          </ns3:TrackPointExtension>
        </extensions>
      </trkpt>
      <trkpt lat="45.3321143053472042083740234375" lon="-70.96858047880232334136962890625">
        <ele>851.5999755859375</ele>
        <time>2026-08-21T18:20:43.000Z</time>
        <extensions>
          <ns3:TrackPointExtension>
            <ns3:hr>117</ns3:hr>
            <ns3:cad>0</ns3:cad>
          </ns3:TrackPointExtension>
        </extensions>
      </trkpt>
      <trkpt lat="45.332113802433013916015625" lon="-70.9685872681438922882080078125">
        <ele>851.4000244140625</ele>
        <time>2026-08-21T18:20:44.000Z</time>
        <extensions>
          <ns3:TrackPointExtension>
            <ns3:hr>117</ns3:hr>
            <ns3:cad>0</ns3:cad>
          </ns3:TrackPointExtension>
        </extensions>
      </trkpt>
      <trkpt lat="45.3321178257465362548828125" lon="-70.968596823513507843017578125">
        <ele>851.20001220703125</ele>
        <time>2026-08-21T18:20:45.000Z</time>
        <extensions>
          <ns3:TrackPointExtension>
            <ns3:hr>117</ns3:hr>
            <ns3:cad>0</ns3:cad>
          </ns3:TrackPointExtension>
        </extensions>
      </trkpt>
      <trkpt lat="45.33211807720363140106201171875" lon="-70.9686047025024890899658203125">
        <ele>851</ele>
        <time>2026-08-21T18:20:46.000Z</time>
        <extensions>
          <ns3:TrackPointExtension>
            <ns3:hr>116</ns3:hr>
            <ns3:cad>0</ns3:cad>
          </ns3:TrackPointExtension>
        </extensions>
      </trkpt>
      <trkpt lat="45.332119166851043701171875" lon="-70.9686174429953098297119140625">
        <ele>850.79998779296875</ele>
        <time>2026-08-21T18:20:47.000Z</time>
        <extensions>
          <ns3:TrackPointExtension>
            <ns3:hr>116</ns3:hr>
            <ns3:cad>0</ns3:cad>
          </ns3:TrackPointExtension>
        </extensions>
      </trkpt>
      <trkpt lat="45.332122184336185455322265625" lon="-70.96862859092652797698974609375">
        <ele>850.5999755859375</ele>
        <time>2026-08-21T18:20:48.000Z</time>
        <extensions>
          <ns3:TrackPointExtension>
            <ns3:hr>116</ns3:hr>
            <ns3:cad>0</ns3:cad>
          </ns3:TrackPointExtension>
        </extensions>
      </trkpt>
      <trkpt lat="45.33212511800229549407958984375" lon="-70.9686338715255260467529296875">
        <ele>850.4000244140625</ele>
        <time>2026-08-21T18:20:49.000Z</time>
        <extensions>
          <ns3:TrackPointExtension>
            <ns3:hr>116</ns3:hr>
            <ns3:cad>0</ns3:cad>
          </ns3:TrackPointExtension>
        </extensions>
      </trkpt>
      <trkpt lat="45.3321340866386890411376953125" lon="-70.96864736638963222503662109375">
        <ele>850.20001220703125</ele>
        <time>2026-08-21T18:20:50.000Z</time>
        <extensions>
          <ns3:TrackPointExtension>
            <ns3:hr>116</ns3:hr>
            <ns3:cad>0</ns3:cad>
          </ns3:TrackPointExtension>
        </extensions>
      </trkpt>
      <trkpt lat="45.332140289247035980224609375" lon="-70.9686556644737720489501953125">
        <ele>850</ele>
        <time>2026-08-21T18:20:51.000Z</time>
        <extensions>
          <ns3:TrackPointExtension>
            <ns3:hr>116</ns3:hr>
            <ns3:cad>0</ns3:cad>
          </ns3:TrackPointExtension>
        </extensions>
      </trkpt>
      <trkpt lat="45.33214607276022434234619140625" lon="-70.9686650522053241729736328125">
        <ele>850</ele>
        <time>2026-08-21T18:20:52.000Z</time>
        <extensions>
          <ns3:TrackPointExtension>
            <ns3:hr>116</ns3:hr>
            <ns3:cad>0</ns3:cad>
          </ns3:TrackPointExtension>
        </extensions>
      </trkpt>
      <trkpt lat="45.33215445466339588165283203125" lon="-70.9686724282801151275634765625">
        <ele>849.79998779296875</ele>
        <time>2026-08-21T18:20:53.000Z</time>
        <extensions>
          <ns3:TrackPointExtension>
            <ns3:hr>116</ns3:hr>
            <ns3:cad>0</ns3:cad>
          </ns3:TrackPointExtension>
        </extensions>
      </trkpt>
      <trkpt lat="45.332161746919155120849609375" lon="-70.96867502667009830474853515625">
        <ele>849.79998779296875</ele>
        <time>2026-08-21T18:20:54.000Z</time>
        <extensions>
          <ns3:TrackPointExtension>
            <ns3:hr>116</ns3:hr>
            <ns3:cad>0</ns3:cad>
          </ns3:TrackPointExtension>
        </extensions>
      </trkpt>
      <trkpt lat="45.3321662731468677520751953125" lon="-70.9686821512877941131591796875">
        <ele>849.5999755859375</ele>
        <time>2026-08-21T18:20:55.000Z</time>
        <extensions>
          <ns3:TrackPointExtension>
            <ns3:hr>116</ns3:hr>
            <ns3:cad>0</ns3:cad>
          </ns3:TrackPointExtension>
        </extensions>
      </trkpt>
      <trkpt lat="45.3321716375648975372314453125" lon="-70.96868961118161678314208984375">
        <ele>849.4000244140625</ele>
        <time>2026-08-21T18:20:56.000Z</time>
        <extensions>
          <ns3:TrackPointExtension>
            <ns3:hr>116</ns3:hr>
            <ns3:cad>0</ns3:cad>
          </ns3:TrackPointExtension>
        </extensions>
      </trkpt>
      <trkpt lat="45.33217574469745159149169921875" lon="-70.96869111992418766021728515625">
        <ele>849.20001220703125</ele>
        <time>2026-08-21T18:20:57.000Z</time>
        <extensions>
          <ns3:TrackPointExtension>
            <ns3:hr>116</ns3:hr>
            <ns3:cad>0</ns3:cad>
          </ns3:TrackPointExtension>
        </extensions>
      </trkpt>
      <trkpt lat="45.33217909745872020721435546875" lon="-70.96869933418929576873779296875">
        <ele>849</ele>
        <time>2026-08-21T18:20:58.000Z</time>
        <extensions>
          <ns3:TrackPointExtension>
            <ns3:hr>116</ns3:hr>
            <ns3:cad>0</ns3:cad>
          </ns3:TrackPointExtension>
        </extensions>
      </trkpt>
      <trkpt lat="45.33217892982065677642822265625" lon="-70.9687026031315326690673828125">
        <ele>848.79998779296875</ele>
        <time>2026-08-21T18:20:59.000Z</time>
        <extensions>
          <ns3:TrackPointExtension>
            <ns3:hr>116</ns3:hr>
            <ns3:cad>0</ns3:cad>
          </ns3:TrackPointExtension>
        </extensions>
      </trkpt>
      <trkpt lat="45.3321800194680690765380859375" lon="-70.96871115267276763916015625">
        <ele>848.5999755859375</ele>
        <time>2026-08-21T18:21:00.000Z</time>
        <extensions>
          <ns3:TrackPointExtension>
            <ns3:hr>116</ns3:hr>
            <ns3:cad>0</ns3:cad>
          </ns3:TrackPointExtension>
        </extensions>
      </trkpt>
      <trkpt lat="45.33218647353351116180419921875" lon="-70.96871760673820972442626953125">
        <ele>848.4000244140625</ele>
        <time>2026-08-21T18:21:01.000Z</time>
        <extensions>
          <ns3:TrackPointExtension>
            <ns3:hr>116</ns3:hr>
            <ns3:cad>0</ns3:cad>
          </ns3:TrackPointExtension>
        </extensions>
      </trkpt>
      <trkpt lat="45.3321900777518749237060546875" lon="-70.9687225520610809326171875">
        <ele>848</ele>
        <time>2026-08-21T18:21:02.000Z</time>
        <extensions>
          <ns3:TrackPointExtension>
            <ns3:hr>116</ns3:hr>
            <ns3:cad>0</ns3:cad>
          </ns3:TrackPointExtension>
        </extensions>
      </trkpt>
      <trkpt lat="45.33219535835087299346923828125" lon="-70.96872917376458644866943359375">
        <ele>847.5999755859375</ele>
        <time>2026-08-21T18:21:03.000Z</time>
        <extensions>
          <ns3:TrackPointExtension>
            <ns3:hr>116</ns3:hr>
            <ns3:cad>0</ns3:cad>
          </ns3:TrackPointExtension>
        </extensions>
      </trkpt>
      <trkpt lat="45.332202650606632232666015625" lon="-70.968735627830028533935546875">
        <ele>847.4000244140625</ele>
        <time>2026-08-21T18:21:04.000Z</time>
        <extensions>
          <ns3:TrackPointExtension>
            <ns3:hr>116</ns3:hr>
            <ns3:cad>0</ns3:cad>
          </ns3:TrackPointExtension>
        </extensions>
      </trkpt>
      <trkpt lat="45.33220541663467884063720703125" lon="-70.96873529255390167236328125">
        <ele>847</ele>
        <time>2026-08-21T18:21:05.000Z</time>
        <extensions>
          <ns3:TrackPointExtension>
            <ns3:hr>116</ns3:hr>
            <ns3:cad>0</ns3:cad>
          </ns3:TrackPointExtension>
        </extensions>
      </trkpt>
      <trkpt lat="45.332210361957550048828125" lon="-70.968739651143550872802734375">
        <ele>846.79998779296875</ele>
        <time>2026-08-21T18:21:06.000Z</time>
        <extensions>
          <ns3:TrackPointExtension>
            <ns3:hr>116</ns3:hr>
            <ns3:cad>0</ns3:cad>
          </ns3:TrackPointExtension>
        </extensions>
      </trkpt>
      <trkpt lat="45.33221195451915264129638671875" lon="-70.96874543465673923492431640625">
        <ele>846.4000244140625</ele>
        <time>2026-08-21T18:21:07.000Z</time>
        <extensions>
          <ns3:TrackPointExtension>
            <ns3:hr>116</ns3:hr>
            <ns3:cad>0</ns3:cad>
          </ns3:TrackPointExtension>
        </extensions>
      </trkpt>
      <trkpt lat="45.3322132118046283721923828125" lon="-70.96875448711216449737548828125">
        <ele>846</ele>
        <time>2026-08-21T18:21:08.000Z</time>
        <extensions>
          <ns3:TrackPointExtension>
            <ns3:hr>116</ns3:hr>
            <ns3:cad>0</ns3:cad>
          </ns3:TrackPointExtension>
        </extensions>
      </trkpt>
      <trkpt lat="45.332218743860721588134765625" lon="-70.9687627851963043212890625">
        <ele>845.5999755859375</ele>
        <time>2026-08-21T18:21:09.000Z</time>
        <extensions>
          <ns3:TrackPointExtension>
            <ns3:hr>116</ns3:hr>
            <ns3:cad>0</ns3:cad>
          </ns3:TrackPointExtension>
        </extensions>
      </trkpt>
      <trkpt lat="45.33222301863133907318115234375" lon="-70.9687693230807781219482421875">
        <ele>845.4000244140625</ele>
        <time>2026-08-21T18:21:10.000Z</time>
        <extensions>
          <ns3:TrackPointExtension>
            <ns3:hr>115</ns3:hr>
            <ns3:cad>0</ns3:cad>
          </ns3:TrackPointExtension>
        </extensions>
      </trkpt>
      <trkpt lat="45.33222368918359279632568359375" lon="-70.96877326257526874542236328125">
        <ele>845</ele>
        <time>2026-08-21T18:21:11.000Z</time>
        <extensions>
          <ns3:TrackPointExtension>
            <ns3:hr>115</ns3:hr>
            <ns3:cad>0</ns3:cad>
          </ns3:TrackPointExtension>
        </extensions>
      </trkpt>
      <trkpt lat="45.33222536556422710418701171875" lon="-70.9687766991555690765380859375">
        <ele>844.79998779296875</ele>
        <time>2026-08-21T18:21:12.000Z</time>
        <extensions>
          <ns3:TrackPointExtension>
            <ns3:hr>115</ns3:hr>
            <ns3:cad>0</ns3:cad>
          </ns3:TrackPointExtension>
        </extensions>
      </trkpt>
      <trkpt lat="45.33222804777324199676513671875" lon="-70.96877343021333217620849609375">
        <ele>844.79998779296875</ele>
        <time>2026-08-21T18:21:13.000Z</time>
        <extensions>
          <ns3:TrackPointExtension>
            <ns3:hr>115</ns3:hr>
            <ns3:cad>0</ns3:cad>
          </ns3:TrackPointExtension>
        </extensions>
      </trkpt>
      <trkpt lat="45.3322329930961132049560546875" lon="-70.9687770344316959381103515625">
        <ele>844.5999755859375</ele>
        <time>2026-08-21T18:21:14.000Z</time>
        <extensions>
          <ns3:TrackPointExtension>
            <ns3:hr>114</ns3:hr>
            <ns3:cad>0</ns3:cad>
          </ns3:TrackPointExtension>
        </extensions>
      </trkpt>
      <trkpt lat="45.33223651349544525146484375" lon="-70.96877259202301502227783203125">
        <ele>844.5999755859375</ele>
        <time>2026-08-21T18:21:15.000Z</time>
        <extensions>
          <ns3:TrackPointExtension>
            <ns3:hr>115</ns3:hr>
            <ns3:cad>0</ns3:cad>
          </ns3:TrackPointExtension>
        </extensions>
      </trkpt>
      <trkpt lat="45.3322385251522064208984375" lon="-70.9687726758420467376708984375">
        <ele>844.4000244140625</ele>
        <time>2026-08-21T18:21:16.000Z</time>
        <extensions>
          <ns3:TrackPointExtension>
            <ns3:hr>115</ns3:hr>
            <ns3:cad>0</ns3:cad>
          </ns3:TrackPointExtension>
        </extensions>
      </trkpt>
      <trkpt lat="45.33223927952349185943603515625" lon="-70.9687763638794422149658203125">
        <ele>844.4000244140625</ele>
        <time>2026-08-21T18:21:17.000Z</time>
        <extensions>
          <ns3:TrackPointExtension>
            <ns3:hr>115</ns3:hr>
            <ns3:cad>0</ns3:cad>
          </ns3:TrackPointExtension>
        </extensions>
      </trkpt>
      <trkpt lat="45.33223726786673069000244140625" lon="-70.9687827341258525848388671875">
        <ele>844.4000244140625</ele>
        <time>2026-08-21T18:21:18.000Z</time>
        <extensions>
          <ns3:TrackPointExtension>
            <ns3:hr>114</ns3:hr>
            <ns3:cad>0</ns3:cad>
          </ns3:TrackPointExtension>
        </extensions>
      </trkpt>
      <trkpt lat="45.3322385251522064208984375" lon="-70.9687922894954681396484375">
        <ele>844.20001220703125</ele>
        <time>2026-08-21T18:21:19.000Z</time>
        <extensions>
          <ns3:TrackPointExtension>
            <ns3:hr>114</ns3:hr>
            <ns3:cad>0</ns3:cad>
          </ns3:TrackPointExtension>
        </extensions>
      </trkpt>
      <trkpt lat="45.332240872085094451904296875" lon="-70.9688041917979717254638671875">
        <ele>844</ele>
        <time>2026-08-21T18:21:20.000Z</time>
        <extensions>
          <ns3:TrackPointExtension>
            <ns3:hr>113</ns3:hr>
            <ns3:cad>0</ns3:cad>
          </ns3:TrackPointExtension>
        </extensions>
      </trkpt>
      <trkpt lat="45.33224112354218959808349609375" lon="-70.968812406063079833984375">
        <ele>843.79998779296875</ele>
        <time>2026-08-21T18:21:21.000Z</time>
        <extensions>
          <ns3:TrackPointExtension>
            <ns3:hr>113</ns3:hr>
            <ns3:cad>0</ns3:cad>
          </ns3:TrackPointExtension>
        </extensions>
      </trkpt>
      <trkpt lat="45.33224523067474365234375" lon="-70.96882958896458148956298828125">
        <ele>843.5999755859375</ele>
        <time>2026-08-21T18:21:22.000Z</time>
        <extensions>
          <ns3:TrackPointExtension>
            <ns3:hr>112</ns3:hr>
            <ns3:cad>0</ns3:cad>
          </ns3:TrackPointExtension>
        </extensions>
      </trkpt>
      <trkpt lat="45.33224380575120449066162109375" lon="-70.9688313491642475128173828125">
        <ele>843.4000244140625</ele>
        <time>2026-08-21T18:21:23.000Z</time>
        <extensions>
          <ns3:TrackPointExtension>
            <ns3:hr>112</ns3:hr>
            <ns3:cad>0</ns3:cad>
          </ns3:TrackPointExtension>
        </extensions>
      </trkpt>
      <trkpt lat="45.33224816434085369110107421875" lon="-70.9688293375074863433837890625">
        <ele>843.4000244140625</ele>
        <time>2026-08-21T18:21:24.000Z</time>
        <extensions>
          <ns3:TrackPointExtension>
            <ns3:hr>113</ns3:hr>
            <ns3:cad>0</ns3:cad>
          </ns3:TrackPointExtension>
        </extensions>
      </trkpt>
      <trkpt lat="45.33225604332983493804931640625" lon="-70.9688320197165012359619140625">
        <ele>843.20001220703125</ele>
        <time>2026-08-21T18:21:25.000Z</time>
        <extensions>
          <ns3:TrackPointExtension>
            <ns3:hr>114</ns3:hr>
            <ns3:cad>0</ns3:cad>
          </ns3:TrackPointExtension>
        </extensions>
      </trkpt>
      <trkpt lat="45.33225805498659610748291015625" lon="-70.96883545629680156707763671875">
        <ele>843.20001220703125</ele>
        <time>2026-08-21T18:21:26.000Z</time>
        <extensions>
          <ns3:TrackPointExtension>
            <ns3:hr>114</ns3:hr>
            <ns3:cad>0</ns3:cad>
          </ns3:TrackPointExtension>
        </extensions>
      </trkpt>
      <trkpt lat="45.33226006664335727691650390625" lon="-70.96884149126708507537841796875">
        <ele>843.20001220703125</ele>
        <time>2026-08-21T18:21:27.000Z</time>
        <extensions>
          <ns3:TrackPointExtension>
            <ns3:hr>114</ns3:hr>
            <ns3:cad>50</ns3:cad>
          </ns3:TrackPointExtension>
        </extensions>
      </trkpt>
      <trkpt lat="45.3322626650333404541015625" lon="-70.96884534694254398345947265625">
        <ele>843</ele>
        <time>2026-08-21T18:21:28.000Z</time>
        <extensions>
          <ns3:TrackPointExtension>
            <ns3:hr>114</ns3:hr>
            <ns3:cad>50</ns3:cad>
          </ns3:TrackPointExtension>
        </extensions>
      </trkpt>
      <trkpt lat="45.3322692029178142547607421875" lon="-70.96884886734187602996826171875">
        <ele>843</ele>
        <time>2026-08-21T18:21:29.000Z</time>
        <extensions>
          <ns3:TrackPointExtension>
            <ns3:hr>115</ns3:hr>
            <ns3:cad>50</ns3:cad>
          </ns3:TrackPointExtension>
        </extensions>
      </trkpt>
      <trkpt lat="45.33227666281163692474365234375" lon="-70.96885473467409610748291015625">
        <ele>842.79998779296875</ele>
        <time>2026-08-21T18:21:30.000Z</time>
        <extensions>
          <ns3:TrackPointExtension>
            <ns3:hr>114</ns3:hr>
            <ns3:cad>0</ns3:cad>
          </ns3:TrackPointExtension>
        </extensions>
      </trkpt>
      <trkpt lat="45.33227079547941684722900390625" lon="-70.9688538126647472381591796875">
        <ele>842.5999755859375</ele>
        <time>2026-08-21T18:21:31.000Z</time>
        <extensions>
          <ns3:TrackPointExtension>
            <ns3:hr>114</ns3:hr>
            <ns3:cad>0</ns3:cad>
          </ns3:TrackPointExtension>
        </extensions>
      </trkpt>
      <trkpt lat="45.3322692029178142547607421875" lon="-70.96885926090180873870849609375">
        <ele>842.5999755859375</ele>
        <time>2026-08-21T18:21:32.000Z</time>
        <extensions>
          <ns3:TrackPointExtension>
            <ns3:hr>113</ns3:hr>
            <ns3:cad>0</ns3:cad>
          </ns3:TrackPointExtension>
        </extensions>
      </trkpt>
      <trkpt lat="45.332278423011302947998046875" lon="-70.96887920983135700225830078125">
        <ele>842.4000244140625</ele>
        <time>2026-08-21T18:21:33.000Z</time>
        <extensions>
          <ns3:TrackPointExtension>
            <ns3:hr>112</ns3:hr>
            <ns3:cad>0</ns3:cad>
          </ns3:TrackPointExtension>
        </extensions>
      </trkpt>
      <trkpt lat="45.33228236250579357147216796875" lon="-70.96888524480164051055908203125">
        <ele>842.20001220703125</ele>
        <time>2026-08-21T18:21:34.000Z</time>
        <extensions>
          <ns3:TrackPointExtension>
            <ns3:hr>112</ns3:hr>
            <ns3:cad>0</ns3:cad>
          </ns3:TrackPointExtension>
        </extensions>
      </trkpt>
      <trkpt lat="45.33228688873350620269775390625" lon="-70.96889010630548000335693359375">
        <ele>842</ele>
        <time>2026-08-21T18:21:35.000Z</time>
        <extensions>
          <ns3:TrackPointExtension>
            <ns3:hr>112</ns3:hr>
            <ns3:cad>0</ns3:cad>
          </ns3:TrackPointExtension>
        </extensions>
      </trkpt>
      <trkpt lat="45.33229057677090167999267578125" lon="-70.96889815293252468109130859375">
        <ele>841.79998779296875</ele>
        <time>2026-08-21T18:21:36.000Z</time>
        <extensions>
          <ns3:TrackPointExtension>
            <ns3:hr>112</ns3:hr>
            <ns3:cad>0</ns3:cad>
          </ns3:TrackPointExtension>
        </extensions>
      </trkpt>
      <trkpt lat="45.33230197615921497344970703125" lon="-70.96891173161566257476806640625">
        <ele>841.79998779296875</ele>
        <time>2026-08-21T18:21:37.000Z</time>
        <extensions>
          <ns3:TrackPointExtension>
            <ns3:hr>112</ns3:hr>
            <ns3:cad>0</ns3:cad>
          </ns3:TrackPointExtension>
        </extensions>
      </trkpt>
      <trkpt lat="45.332311950623989105224609375" lon="-70.96891894005239009857177734375">
        <ele>841.4000244140625</ele>
        <time>2026-08-21T18:21:38.000Z</time>
        <extensions>
          <ns3:TrackPointExtension>
            <ns3:hr>112</ns3:hr>
            <ns3:cad>0</ns3:cad>
          </ns3:TrackPointExtension>
        </extensions>
      </trkpt>
      <trkpt lat="45.3323208354413509368896484375" lon="-70.96892547793686389923095703125">
        <ele>841.20001220703125</ele>
        <time>2026-08-21T18:21:39.000Z</time>
        <extensions>
          <ns3:TrackPointExtension>
            <ns3:hr>112</ns3:hr>
            <ns3:cad>0</ns3:cad>
          </ns3:TrackPointExtension>
        </extensions>
      </trkpt>
      <trkpt lat="45.3323255293071269989013671875" lon="-70.96893285401165485382080078125">
        <ele>841</ele>
        <time>2026-08-21T18:21:40.000Z</time>
        <extensions>
          <ns3:TrackPointExtension>
            <ns3:hr>113</ns3:hr>
            <ns3:cad>0</ns3:cad>
          </ns3:TrackPointExtension>
        </extensions>
      </trkpt>
      <trkpt lat="45.33233248628675937652587890625" lon="-70.96894450485706329345703125">
        <ele>840.79998779296875</ele>
        <time>2026-08-21T18:21:41.000Z</time>
        <extensions>
          <ns3:TrackPointExtension>
            <ns3:hr>112</ns3:hr>
            <ns3:cad>0</ns3:cad>
          </ns3:TrackPointExtension>
        </extensions>
      </trkpt>
      <trkpt lat="45.332342796027660369873046875" lon="-70.9689639508724212646484375">
        <ele>840.5999755859375</ele>
        <time>2026-08-21T18:21:42.000Z</time>
        <extensions>
          <ns3:TrackPointExtension>
            <ns3:hr>111</ns3:hr>
            <ns3:cad>0</ns3:cad>
          </ns3:TrackPointExtension>
        </extensions>
      </trkpt>
      <trkpt lat="45.33235042355954647064208984375" lon="-70.9689778648316860198974609375">
        <ele>840.4000244140625</ele>
        <time>2026-08-21T18:21:43.000Z</time>
        <extensions>
          <ns3:TrackPointExtension>
            <ns3:hr>111</ns3:hr>
            <ns3:cad>55</ns3:cad>
          </ns3:TrackPointExtension>
        </extensions>
      </trkpt>
      <trkpt lat="45.33235847018659114837646484375" lon="-70.96899471245706081390380859375">
        <ele>840.4000244140625</ele>
        <time>2026-08-21T18:21:44.000Z</time>
        <extensions>
          <ns3:TrackPointExtension>
            <ns3:hr>111</ns3:hr>
            <ns3:cad>55</ns3:cad>
          </ns3:TrackPointExtension>
        </extensions>
      </trkpt>
      <trkpt lat="45.3323603980243206024169921875" lon="-70.9690103866159915924072265625">
        <ele>840.20001220703125</ele>
        <time>2026-08-21T18:21:45.000Z</time>
        <extensions>
          <ns3:TrackPointExtension>
            <ns3:hr>111</ns3:hr>
            <ns3:cad>0</ns3:cad>
          </ns3:TrackPointExtension>
        </extensions>
      </trkpt>
      <trkpt lat="45.3323597274720668792724609375" lon="-70.9690278209745883941650390625">
        <ele>840.20001220703125</ele>
        <time>2026-08-21T18:21:46.000Z</time>
        <extensions>
          <ns3:TrackPointExtension>
            <ns3:hr>111</ns3:hr>
            <ns3:cad>0</ns3:cad>
          </ns3:TrackPointExtension>
        </extensions>
      </trkpt>
      <trkpt lat="45.33235847018659114837646484375" lon="-70.9690489433705806732177734375">
        <ele>840.20001220703125</ele>
        <time>2026-08-21T18:21:47.000Z</time>
        <extensions>
          <ns3:TrackPointExtension>
            <ns3:hr>112</ns3:hr>
            <ns3:cad>0</ns3:cad>
          </ns3:TrackPointExtension>
        </extensions>
      </trkpt>
      <trkpt lat="45.332369618117809295654296875" lon="-70.96906654536724090576171875">
        <ele>840.20001220703125</ele>
        <time>2026-08-21T18:21:48.000Z</time>
        <extensions>
          <ns3:TrackPointExtension>
            <ns3:hr>112</ns3:hr>
            <ns3:cad>0</ns3:cad>
          </ns3:TrackPointExtension>
        </extensions>
      </trkpt>
      <trkpt lat="45.3323785029351711273193359375" lon="-70.96907584927976131439208984375">
        <ele>840</ele>
        <time>2026-08-21T18:21:49.000Z</time>
        <extensions>
          <ns3:TrackPointExtension>
            <ns3:hr>112</ns3:hr>
            <ns3:cad>0</ns3:cad>
          </ns3:TrackPointExtension>
        </extensions>
      </trkpt>
      <trkpt lat="45.33238562755286693572998046875" lon="-70.969083644449710845947265625">
        <ele>840.20001220703125</ele>
        <time>2026-08-21T18:21:50.000Z</time>
        <extensions>
          <ns3:TrackPointExtension>
            <ns3:hr>112</ns3:hr>
            <ns3:cad>56</ns3:cad>
          </ns3:TrackPointExtension>
        </extensions>
      </trkpt>
      <trkpt lat="45.33239250071346759796142578125" lon="-70.969093702733516693115234375">
        <ele>840.20001220703125</ele>
        <time>2026-08-21T18:21:51.000Z</time>
        <extensions>
          <ns3:TrackPointExtension>
            <ns3:hr>112</ns3:hr>
            <ns3:cad>56</ns3:cad>
          </ns3:TrackPointExtension>
        </extensions>
      </trkpt>
      <trkpt lat="45.3324070014059543609619140625" lon="-70.96910501830279827117919921875">
        <ele>840.4000244140625</ele>
        <time>2026-08-21T18:21:52.000Z</time>
        <extensions>
          <ns3:TrackPointExtension>
            <ns3:hr>111</ns3:hr>
            <ns3:cad>52</ns3:cad>
          </ns3:TrackPointExtension>
        </extensions>
      </trkpt>
      <trkpt lat="45.3324200771749019622802734375" lon="-70.96911080181598663330078125">
        <ele>840.4000244140625</ele>
        <time>2026-08-21T18:21:53.000Z</time>
        <extensions>
          <ns3:TrackPointExtension>
            <ns3:hr>111</ns3:hr>
            <ns3:cad>51</ns3:cad>
          </ns3:TrackPointExtension>
        </extensions>
      </trkpt>
      <trkpt lat="45.3324334882199764251708984375" lon="-70.96912178210914134979248046875">
        <ele>840.5999755859375</ele>
        <time>2026-08-21T18:21:54.000Z</time>
        <extensions>
          <ns3:TrackPointExtension>
            <ns3:hr>110</ns3:hr>
            <ns3:cad>51</ns3:cad>
          </ns3:TrackPointExtension>
        </extensions>
      </trkpt>
      <trkpt lat="45.3324448876082897186279296875" lon="-70.96912831999361515045166015625">
        <ele>840.5999755859375</ele>
        <time>2026-08-21T18:21:55.000Z</time>
        <extensions>
          <ns3:TrackPointExtension>
            <ns3:hr>109</ns3:hr>
            <ns3:cad>75</ns3:cad>
          </ns3:TrackPointExtension>
        </extensions>
      </trkpt>
      <trkpt lat="45.33246290870010852813720703125" lon="-70.9691438265144824981689453125">
        <ele>840.5999755859375</ele>
        <time>2026-08-21T18:21:56.000Z</time>
        <extensions>
          <ns3:TrackPointExtension>
            <ns3:hr>108</ns3:hr>
            <ns3:cad>75</ns3:cad>
          </ns3:TrackPointExtension>
        </extensions>
      </trkpt>
      <trkpt lat="45.3324777446687221527099609375" lon="-70.96914768218994140625">
        <ele>840.5999755859375</ele>
        <time>2026-08-21T18:21:57.000Z</time>
        <extensions>
          <ns3:TrackPointExtension>
            <ns3:hr>108</ns3:hr>
            <ns3:cad>55</ns3:cad>
          </ns3:TrackPointExtension>
        </extensions>
      </trkpt>
      <trkpt lat="45.33249157480895519256591796875" lon="-70.96915128640830516815185546875">
        <ele>840.5999755859375</ele>
        <time>2026-08-21T18:21:58.000Z</time>
        <extensions>
          <ns3:TrackPointExtension>
            <ns3:hr>108</ns3:hr>
            <ns3:cad>0</ns3:cad>
          </ns3:TrackPointExtension>
        </extensions>
      </trkpt>
      <trkpt lat="45.3325028903782367706298828125" lon="-70.9691565670073032379150390625">
        <ele>840.5999755859375</ele>
        <time>2026-08-21T18:21:59.000Z</time>
        <extensions>
          <ns3:TrackPointExtension>
            <ns3:hr>108</ns3:hr>
            <ns3:cad>0</ns3:cad>
          </ns3:TrackPointExtension>
        </extensions>
      </trkpt>
      <trkpt lat="45.33250682987272739410400390625" lon="-70.9691696427762508392333984375">
        <ele>840.4000244140625</ele>
        <time>2026-08-21T18:22:00.000Z</time>
        <extensions>
          <ns3:TrackPointExtension>
            <ns3:hr>108</ns3:hr>
            <ns3:cad>0</ns3:cad>
          </ns3:TrackPointExtension>
        </extensions>
      </trkpt>
      <trkpt lat="45.33251437358558177947998046875" lon="-70.9691857360303401947021484375">
        <ele>840.4000244140625</ele>
        <time>2026-08-21T18:22:01.000Z</time>
        <extensions>
          <ns3:TrackPointExtension>
            <ns3:hr>108</ns3:hr>
            <ns3:cad>0</ns3:cad>
          </ns3:TrackPointExtension>
        </extensions>
      </trkpt>
      <trkpt lat="45.33251822926104068756103515625" lon="-70.96920342184603214263916015625">
        <ele>840.4000244140625</ele>
        <time>2026-08-21T18:22:02.000Z</time>
        <extensions>
          <ns3:TrackPointExtension>
            <ns3:hr>108</ns3:hr>
            <ns3:cad>0</ns3:cad>
          </ns3:TrackPointExtension>
        </extensions>
      </trkpt>
      <trkpt lat="45.33251755870878696441650390625" lon="-70.96920912154018878936767578125">
        <ele>840.5999755859375</ele>
        <time>2026-08-21T18:22:03.000Z</time>
        <extensions>
          <ns3:TrackPointExtension>
            <ns3:hr>108</ns3:hr>
            <ns3:cad>0</ns3:cad>
          </ns3:TrackPointExtension>
        </extensions>
      </trkpt>
      <trkpt lat="45.3325199894607067108154296875" lon="-70.96923275850713253021240234375">
        <ele>840.5999755859375</ele>
        <time>2026-08-21T18:22:04.000Z</time>
        <extensions>
          <ns3:TrackPointExtension>
            <ns3:hr>108</ns3:hr>
            <ns3:cad>0</ns3:cad>
          </ns3:TrackPointExtension>
        </extensions>
      </trkpt>
      <trkpt lat="45.33252778463065624237060546875" lon="-70.96924399025738239288330078125">
        <ele>840.79998779296875</ele>
        <time>2026-08-21T18:22:05.000Z</time>
        <extensions>
          <ns3:TrackPointExtension>
            <ns3:hr>108</ns3:hr>
            <ns3:cad>0</ns3:cad>
          </ns3:TrackPointExtension>
        </extensions>
      </trkpt>
      <trkpt lat="45.332535244524478912353515625" lon="-70.96925689838826656341552734375">
        <ele>840.79998779296875</ele>
        <time>2026-08-21T18:22:06.000Z</time>
        <extensions>
          <ns3:TrackPointExtension>
            <ns3:hr>108</ns3:hr>
            <ns3:cad>0</ns3:cad>
          </ns3:TrackPointExtension>
        </extensions>
      </trkpt>
      <trkpt lat="45.3325464762747287750244140625" lon="-70.96927349455654621124267578125">
        <ele>840.79998779296875</ele>
        <time>2026-08-21T18:22:07.000Z</time>
        <extensions>
          <ns3:TrackPointExtension>
            <ns3:hr>108</ns3:hr>
            <ns3:cad>0</ns3:cad>
          </ns3:TrackPointExtension>
        </extensions>
      </trkpt>
      <trkpt lat="45.33255946822464466094970703125" lon="-70.96929319202899932861328125">
        <ele>840.79998779296875</ele>
        <time>2026-08-21T18:22:08.000Z</time>
        <extensions>
          <ns3:TrackPointExtension>
            <ns3:hr>108</ns3:hr>
            <ns3:cad>0</ns3:cad>
          </ns3:TrackPointExtension>
        </extensions>
      </trkpt>
      <trkpt lat="45.33257178962230682373046875" lon="-70.96930769272148609161376953125">
        <ele>840.5999755859375</ele>
        <time>2026-08-21T18:22:09.000Z</time>
        <extensions>
          <ns3:TrackPointExtension>
            <ns3:hr>108</ns3:hr>
            <ns3:cad>0</ns3:cad>
          </ns3:TrackPointExtension>
        </extensions>
      </trkpt>
      <trkpt lat="45.33258377574384212493896484375" lon="-70.9693319164216518402099609375">
        <ele>840.5999755859375</ele>
        <time>2026-08-21T18:22:10.000Z</time>
        <extensions>
          <ns3:TrackPointExtension>
            <ns3:hr>109</ns3:hr>
            <ns3:cad>0</ns3:cad>
          </ns3:TrackPointExtension>
        </extensions>
      </trkpt>
      <trkpt lat="45.33259651623666286468505859375" lon="-70.96934943459928035736083984375">
        <ele>840.4000244140625</ele>
        <time>2026-08-21T18:22:11.000Z</time>
        <extensions>
          <ns3:TrackPointExtension>
            <ns3:hr>109</ns3:hr>
            <ns3:cad>0</ns3:cad>
          </ns3:TrackPointExtension>
        </extensions>
      </trkpt>
      <trkpt lat="45.3326078318059444427490234375" lon="-70.96935982815921306610107421875">
        <ele>840.4000244140625</ele>
        <time>2026-08-21T18:22:12.000Z</time>
        <extensions>
          <ns3:TrackPointExtension>
            <ns3:hr>110</ns3:hr>
            <ns3:cad>0</ns3:cad>
          </ns3:TrackPointExtension>
        </extensions>
      </trkpt>
      <trkpt lat="45.33262384124100208282470703125" lon="-70.96937323920428752899169921875">
        <ele>840.20001220703125</ele>
        <time>2026-08-21T18:22:13.000Z</time>
        <extensions>
          <ns3:TrackPointExtension>
            <ns3:hr>111</ns3:hr>
            <ns3:cad>0</ns3:cad>
          </ns3:TrackPointExtension>
        </extensions>
      </trkpt>
      <trkpt lat="45.33263758756220340728759765625" lon="-70.9693828783929347991943359375">
        <ele>840.20001220703125</ele>
        <time>2026-08-21T18:22:14.000Z</time>
        <extensions>
          <ns3:TrackPointExtension>
            <ns3:hr>112</ns3:hr>
            <ns3:cad>0</ns3:cad>
          </ns3:TrackPointExtension>
        </extensions>
      </trkpt>
      <trkpt lat="45.3326530940830707550048828125" lon="-70.96940039657056331634521484375">
        <ele>840</ele>
        <time>2026-08-21T18:22:15.000Z</time>
        <extensions>
          <ns3:TrackPointExtension>
            <ns3:hr>112</ns3:hr>
            <ns3:cad>70</ns3:cad>
          </ns3:TrackPointExtension>
        </extensions>
      </trkpt>
      <trkpt lat="45.3326685167849063873291015625" lon="-70.96941581927239894866943359375">
        <ele>840</ele>
        <time>2026-08-21T18:22:16.000Z</time>
        <extensions>
          <ns3:TrackPointExtension>
            <ns3:hr>112</ns3:hr>
            <ns3:cad>71</ns3:cad>
          </ns3:TrackPointExtension>
        </extensions>
      </trkpt>
      <trkpt lat="45.3326842747628688812255859375" lon="-70.969429649412631988525390625">
        <ele>839.79998779296875</ele>
        <time>2026-08-21T18:22:17.000Z</time>
        <extensions>
          <ns3:TrackPointExtension>
            <ns3:hr>113</ns3:hr>
            <ns3:cad>71</ns3:cad>
          </ns3:TrackPointExtension>
        </extensions>
      </trkpt>
      <trkpt lat="45.33269139938056468963623046875" lon="-70.96944113261997699737548828125">
        <ele>839.79998779296875</ele>
        <time>2026-08-21T18:22:18.000Z</time>
        <extensions>
          <ns3:TrackPointExtension>
            <ns3:hr>112</ns3:hr>
            <ns3:cad>71</ns3:cad>
          </ns3:TrackPointExtension>
        </extensions>
      </trkpt>
      <trkpt lat="45.33270129002630710601806640625" lon="-70.9694616682827472686767578125">
        <ele>840</ele>
        <time>2026-08-21T18:22:19.000Z</time>
        <extensions>
          <ns3:TrackPointExtension>
            <ns3:hr>112</ns3:hr>
            <ns3:cad>71</ns3:cad>
          </ns3:TrackPointExtension>
        </extensions>
      </trkpt>
      <trkpt lat="45.332710258662700653076171875" lon="-70.96947683952748775482177734375">
        <ele>840</ele>
        <time>2026-08-21T18:22:20.000Z</time>
        <extensions>
          <ns3:TrackPointExtension>
            <ns3:hr>112</ns3:hr>
            <ns3:cad>71</ns3:cad>
          </ns3:TrackPointExtension>
        </extensions>
      </trkpt>
      <trkpt lat="45.33272291533648967742919921875" lon="-70.96948823891580104827880859375">
        <ele>840.20001220703125</ele>
        <time>2026-08-21T18:22:21.000Z</time>
        <extensions>
          <ns3:TrackPointExtension>
            <ns3:hr>112</ns3:hr>
            <ns3:cad>71</ns3:cad>
          </ns3:TrackPointExtension>
        </extensions>
      </trkpt>
      <trkpt lat="45.3327325545251369476318359375" lon="-70.96950240433216094970703125">
        <ele>840.20001220703125</ele>
        <time>2026-08-21T18:22:22.000Z</time>
        <extensions>
          <ns3:TrackPointExtension>
            <ns3:hr>112</ns3:hr>
            <ns3:cad>71</ns3:cad>
          </ns3:TrackPointExtension>
        </extensions>
      </trkpt>
      <trkpt lat="45.33274135552346706390380859375" lon="-70.9695149771869182586669921875">
        <ele>840.4000244140625</ele>
        <time>2026-08-21T18:22:23.000Z</time>
        <extensions>
          <ns3:TrackPointExtension>
            <ns3:hr>113</ns3:hr>
            <ns3:cad>71</ns3:cad>
          </ns3:TrackPointExtension>
        </extensions>
      </trkpt>
      <trkpt lat="45.33274973742663860321044921875" lon="-70.96952646039426326751708984375">
        <ele>840.4000244140625</ele>
        <time>2026-08-21T18:22:24.000Z</time>
        <extensions>
          <ns3:TrackPointExtension>
            <ns3:hr>112</ns3:hr>
            <ns3:cad>71</ns3:cad>
          </ns3:TrackPointExtension>
        </extensions>
      </trkpt>
      <trkpt lat="45.3327593766152858734130859375" lon="-70.96953802742063999176025390625">
        <ele>840.5999755859375</ele>
        <time>2026-08-21T18:22:25.000Z</time>
        <extensions>
          <ns3:TrackPointExtension>
            <ns3:hr>113</ns3:hr>
            <ns3:cad>71</ns3:cad>
          </ns3:TrackPointExtension>
        </extensions>
      </trkpt>
      <trkpt lat="45.332768596708774566650390625" lon="-70.9695521928369998931884765625">
        <ele>840.5999755859375</ele>
        <time>2026-08-21T18:22:26.000Z</time>
        <extensions>
          <ns3:TrackPointExtension>
            <ns3:hr>113</ns3:hr>
            <ns3:cad>71</ns3:cad>
          </ns3:TrackPointExtension>
        </extensions>
      </trkpt>
      <trkpt lat="45.33277555368840694427490234375" lon="-70.96956602297723293304443359375">
        <ele>840.5999755859375</ele>
        <time>2026-08-21T18:22:27.000Z</time>
        <extensions>
          <ns3:TrackPointExtension>
            <ns3:hr>116</ns3:hr>
            <ns3:cad>71</ns3:cad>
          </ns3:TrackPointExtension>
        </extensions>
      </trkpt>
      <trkpt lat="45.332785360515117645263671875" lon="-70.96958245150744915008544921875">
        <ele>840.5999755859375</ele>
        <time>2026-08-21T18:22:28.000Z</time>
        <extensions>
          <ns3:TrackPointExtension>
            <ns3:hr>118</ns3:hr>
            <ns3:cad>0</ns3:cad>
          </ns3:TrackPointExtension>
        </extensions>
      </trkpt>
      <trkpt lat="45.3327992744743824005126953125" lon="-70.96959468908607959747314453125">
        <ele>840.5999755859375</ele>
        <time>2026-08-21T18:22:29.000Z</time>
        <extensions>
          <ns3:TrackPointExtension>
            <ns3:hr>118</ns3:hr>
            <ns3:cad>0</ns3:cad>
          </ns3:TrackPointExtension>
        </extensions>
      </trkpt>
      <trkpt lat="45.3328093327581882476806640625" lon="-70.96959888003766536712646484375">
        <ele>840.79998779296875</ele>
        <time>2026-08-21T18:22:30.000Z</time>
        <extensions>
          <ns3:TrackPointExtension>
            <ns3:hr>118</ns3:hr>
            <ns3:cad>0</ns3:cad>
          </ns3:TrackPointExtension>
        </extensions>
      </trkpt>
      <trkpt lat="45.33282819204032421112060546875" lon="-70.96960910595953464508056640625">
        <ele>840.79998779296875</ele>
        <time>2026-08-21T18:22:31.000Z</time>
        <extensions>
          <ns3:TrackPointExtension>
            <ns3:hr>118</ns3:hr>
            <ns3:cad>0</ns3:cad>
          </ns3:TrackPointExtension>
        </extensions>
      </trkpt>
      <trkpt lat="45.332841016352176666259765625" lon="-70.96962402574717998504638671875">
        <ele>840.79998779296875</ele>
        <time>2026-08-21T18:22:32.000Z</time>
        <extensions>
          <ns3:TrackPointExtension>
            <ns3:hr>119</ns3:hr>
            <ns3:cad>0</ns3:cad>
          </ns3:TrackPointExtension>
        </extensions>
      </trkpt>
      <trkpt lat="45.33285073935985565185546875" lon="-70.96963517367839813232421875">
        <ele>840.79998779296875</ele>
        <time>2026-08-21T18:22:33.000Z</time>
        <extensions>
          <ns3:TrackPointExtension>
            <ns3:hr>118</ns3:hr>
            <ns3:cad>0</ns3:cad>
          </ns3:TrackPointExtension>
        </extensions>
      </trkpt>
      <trkpt lat="45.33286222256720066070556640625" lon="-70.969650261104106903076171875">
        <ele>840.79998779296875</ele>
        <time>2026-08-21T18:22:34.000Z</time>
        <extensions>
          <ns3:TrackPointExtension>
            <ns3:hr>118</ns3:hr>
            <ns3:cad>0</ns3:cad>
          </ns3:TrackPointExtension>
        </extensions>
      </trkpt>
      <trkpt lat="45.3328670002520084381103515625" lon="-70.96966601908206939697265625">
        <ele>840.79998779296875</ele>
        <time>2026-08-21T18:22:35.000Z</time>
        <extensions>
          <ns3:TrackPointExtension>
            <ns3:hr>118</ns3:hr>
            <ns3:cad>0</ns3:cad>
          </ns3:TrackPointExtension>
        </extensions>
      </trkpt>
      <trkpt lat="45.332871861755847930908203125" lon="-70.969691164791584014892578125">
        <ele>841</ele>
        <time>2026-08-21T18:22:36.000Z</time>
        <extensions>
          <ns3:TrackPointExtension>
            <ns3:hr>119</ns3:hr>
            <ns3:cad>0</ns3:cad>
          </ns3:TrackPointExtension>
        </extensions>
      </trkpt>
      <trkpt lat="45.332886278629302978515625" lon="-70.96971689723432064056396484375">
        <ele>841</ele>
        <time>2026-08-21T18:22:37.000Z</time>
        <extensions>
          <ns3:TrackPointExtension>
            <ns3:hr>119</ns3:hr>
            <ns3:cad>0</ns3:cad>
          </ns3:TrackPointExtension>
        </extensions>
      </trkpt>
      <trkpt lat="45.33289541490375995635986328125" lon="-70.96972980536520481109619140625">
        <ele>841</ele>
        <time>2026-08-21T18:22:38.000Z</time>
        <extensions>
          <ns3:TrackPointExtension>
            <ns3:hr>119</ns3:hr>
            <ns3:cad>0</ns3:cad>
          </ns3:TrackPointExtension>
        </extensions>
      </trkpt>
      <trkpt lat="45.332907736301422119140625" lon="-70.96975193358957767486572265625">
        <ele>841</ele>
        <time>2026-08-21T18:22:39.000Z</time>
        <extensions>
          <ns3:TrackPointExtension>
            <ns3:hr>119</ns3:hr>
            <ns3:cad>0</ns3:cad>
          </ns3:TrackPointExtension>
        </extensions>
      </trkpt>
      <trkpt lat="45.332920141518115997314453125" lon="-70.96976928412914276123046875">
        <ele>841.20001220703125</ele>
        <time>2026-08-21T18:22:40.000Z</time>
        <extensions>
          <ns3:TrackPointExtension>
            <ns3:hr>119</ns3:hr>
            <ns3:cad>0</ns3:cad>
          </ns3:TrackPointExtension>
        </extensions>
      </trkpt>
      <trkpt lat="45.33293548040091991424560546875" lon="-70.9697855450212955474853515625">
        <ele>841</ele>
        <time>2026-08-21T18:22:41.000Z</time>
        <extensions>
          <ns3:TrackPointExtension>
            <ns3:hr>119</ns3:hr>
            <ns3:cad>0</ns3:cad>
          </ns3:TrackPointExtension>
        </extensions>
      </trkpt>
      <trkpt lat="45.3329441137611865997314453125" lon="-70.96980457194149494171142578125">
        <ele>841</ele>
        <time>2026-08-21T18:22:42.000Z</time>
        <extensions>
          <ns3:TrackPointExtension>
            <ns3:hr>119</ns3:hr>
            <ns3:cad>0</ns3:cad>
          </ns3:TrackPointExtension>
        </extensions>
      </trkpt>
      <trkpt lat="45.33294788561761379241943359375" lon="-70.9698311425745487213134765625">
        <ele>841</ele>
        <time>2026-08-21T18:22:43.000Z</time>
        <extensions>
          <ns3:TrackPointExtension>
            <ns3:hr>119</ns3:hr>
            <ns3:cad>70</ns3:cad>
          </ns3:TrackPointExtension>
        </extensions>
      </trkpt>
      <trkpt lat="45.332948304712772369384765625" lon="-70.9698571264743804931640625">
        <ele>840.79998779296875</ele>
        <time>2026-08-21T18:22:44.000Z</time>
        <extensions>
          <ns3:TrackPointExtension>
            <ns3:hr>119</ns3:hr>
            <ns3:cad>70</ns3:cad>
          </ns3:TrackPointExtension>
        </extensions>
      </trkpt>
      <trkpt lat="45.3329528309404850006103515625" lon="-70.9698772430419921875">
        <ele>840.79998779296875</ele>
        <time>2026-08-21T18:22:45.000Z</time>
        <extensions>
          <ns3:TrackPointExtension>
            <ns3:hr>120</ns3:hr>
            <ns3:cad>70</ns3:cad>
          </ns3:TrackPointExtension>
        </extensions>
      </trkpt>
      <trkpt lat="45.33295827917754650115966796875" lon="-70.96989660523831844329833984375">
        <ele>840.79998779296875</ele>
        <time>2026-08-21T18:22:46.000Z</time>
        <extensions>
          <ns3:TrackPointExtension>
            <ns3:hr>120</ns3:hr>
            <ns3:cad>67</ns3:cad>
          </ns3:TrackPointExtension>
        </extensions>
      </trkpt>
      <trkpt lat="45.332962386310100555419921875" lon="-70.96991873346269130706787109375">
        <ele>840.79998779296875</ele>
        <time>2026-08-21T18:22:47.000Z</time>
        <extensions>
          <ns3:TrackPointExtension>
            <ns3:hr>121</ns3:hr>
            <ns3:cad>67</ns3:cad>
          </ns3:TrackPointExtension>
        </extensions>
      </trkpt>
      <trkpt lat="45.3329665772616863250732421875" lon="-70.96993901766836643218994140625">
        <ele>841</ele>
        <time>2026-08-21T18:22:48.000Z</time>
        <extensions>
          <ns3:TrackPointExtension>
            <ns3:hr>123</ns3:hr>
            <ns3:cad>67</ns3:cad>
          </ns3:TrackPointExtension>
        </extensions>
      </trkpt>
      <trkpt lat="45.3329722769558429718017578125" lon="-70.9699575416743755340576171875">
        <ele>841</ele>
        <time>2026-08-21T18:22:49.000Z</time>
        <extensions>
          <ns3:TrackPointExtension>
            <ns3:hr>124</ns3:hr>
            <ns3:cad>67</ns3:cad>
          </ns3:TrackPointExtension>
        </extensions>
      </trkpt>
      <trkpt lat="45.332979150116443634033203125" lon="-70.96997338347136974334716796875">
        <ele>841.20001220703125</ele>
        <time>2026-08-21T18:22:50.000Z</time>
        <extensions>
          <ns3:TrackPointExtension>
            <ns3:hr>125</ns3:hr>
            <ns3:cad>56</ns3:cad>
          </ns3:TrackPointExtension>
        </extensions>
      </trkpt>
      <trkpt lat="45.3329853527247905731201171875" lon="-70.96998947672545909881591796875">
        <ele>841.20001220703125</ele>
        <time>2026-08-21T18:22:51.000Z</time>
        <extensions>
          <ns3:TrackPointExtension>
            <ns3:hr>126</ns3:hr>
            <ns3:cad>56</ns3:cad>
          </ns3:TrackPointExtension>
        </extensions>
      </trkpt>
      <trkpt lat="45.33299046568572521209716796875" lon="-70.97000640816986560821533203125">
        <ele>841.4000244140625</ele>
        <time>2026-08-21T18:22:52.000Z</time>
        <extensions>
          <ns3:TrackPointExtension>
            <ns3:hr>126</ns3:hr>
            <ns3:cad>56</ns3:cad>
          </ns3:TrackPointExtension>
        </extensions>
      </trkpt>
      <trkpt lat="45.33299348317086696624755859375" lon="-70.97001680172979831695556640625">
        <ele>841.5999755859375</ele>
        <time>2026-08-21T18:22:53.000Z</time>
        <extensions>
          <ns3:TrackPointExtension>
            <ns3:hr>127</ns3:hr>
            <ns3:cad>53</ns3:cad>
          </ns3:TrackPointExtension>
        </extensions>
      </trkpt>
      <trkpt lat="45.33299465663731098175048828125" lon="-70.97002853639423847198486328125">
        <ele>841.79998779296875</ele>
        <time>2026-08-21T18:22:54.000Z</time>
        <extensions>
          <ns3:TrackPointExtension>
            <ns3:hr>127</ns3:hr>
            <ns3:cad>53</ns3:cad>
          </ns3:TrackPointExtension>
        </extensions>
      </trkpt>
      <trkpt lat="45.332994572818279266357421875" lon="-70.970040857791900634765625">
        <ele>842</ele>
        <time>2026-08-21T18:22:55.000Z</time>
        <extensions>
          <ns3:TrackPointExtension>
            <ns3:hr>128</ns3:hr>
            <ns3:cad>53</ns3:cad>
          </ns3:TrackPointExtension>
        </extensions>
      </trkpt>
      <trkpt lat="45.33299834467470645904541015625" lon="-70.9700514189898967742919921875">
        <ele>842.4000244140625</ele>
        <time>2026-08-21T18:22:56.000Z</time>
        <extensions>
          <ns3:TrackPointExtension>
            <ns3:hr>128</ns3:hr>
            <ns3:cad>52</ns3:cad>
          </ns3:TrackPointExtension>
        </extensions>
      </trkpt>
      <trkpt lat="45.33299817703664302825927734375" lon="-70.9700631536543369293212890625">
        <ele>842.5999755859375</ele>
        <time>2026-08-21T18:22:57.000Z</time>
        <extensions>
          <ns3:TrackPointExtension>
            <ns3:hr>128</ns3:hr>
            <ns3:cad>52</ns3:cad>
          </ns3:TrackPointExtension>
        </extensions>
      </trkpt>
      <trkpt lat="45.33299867995083332061767578125" lon="-70.9700752235949039459228515625">
        <ele>842.79998779296875</ele>
        <time>2026-08-21T18:22:58.000Z</time>
        <extensions>
          <ns3:TrackPointExtension>
            <ns3:hr>127</ns3:hr>
            <ns3:cad>52</ns3:cad>
          </ns3:TrackPointExtension>
        </extensions>
      </trkpt>
      <trkpt lat="45.3329975903034210205078125" lon="-70.9700879640877246856689453125">
        <ele>843</ele>
        <time>2026-08-21T18:22:59.000Z</time>
        <extensions>
          <ns3:TrackPointExtension>
            <ns3:hr>127</ns3:hr>
            <ns3:cad>52</ns3:cad>
          </ns3:TrackPointExtension>
        </extensions>
      </trkpt>
      <trkpt lat="45.33299616537988185882568359375" lon="-70.970100201666355133056640625">
        <ele>843.20001220703125</ele>
        <time>2026-08-21T18:23:00.000Z</time>
        <extensions>
          <ns3:TrackPointExtension>
            <ns3:hr>127</ns3:hr>
            <ns3:cad>47</ns3:cad>
          </ns3:TrackPointExtension>
        </extensions>
      </trkpt>
      <trkpt lat="45.33299482427537441253662109375" lon="-70.97011537291109561920166015625">
        <ele>843.4000244140625</ele>
        <time>2026-08-21T18:23:01.000Z</time>
        <extensions>
          <ns3:TrackPointExtension>
            <ns3:hr>127</ns3:hr>
            <ns3:cad>45</ns3:cad>
          </ns3:TrackPointExtension>
        </extensions>
      </trkpt>
      <trkpt lat="45.33299515955150127410888671875" lon="-70.97013230435550212860107421875">
        <ele>843.5999755859375</ele>
        <time>2026-08-21T18:23:02.000Z</time>
        <extensions>
          <ns3:TrackPointExtension>
            <ns3:hr>128</ns3:hr>
            <ns3:cad>45</ns3:cad>
          </ns3:TrackPointExtension>
        </extensions>
      </trkpt>
      <trkpt lat="45.3329957462847232818603515625" lon="-70.97014688886702060699462890625">
        <ele>843.5999755859375</ele>
        <time>2026-08-21T18:23:03.000Z</time>
        <extensions>
          <ns3:TrackPointExtension>
            <ns3:hr>128</ns3:hr>
            <ns3:cad>45</ns3:cad>
          </ns3:TrackPointExtension>
        </extensions>
      </trkpt>
      <trkpt lat="45.3329927287995815277099609375" lon="-70.9701660834252834320068359375">
        <ele>843.79998779296875</ele>
        <time>2026-08-21T18:23:04.000Z</time>
        <extensions>
          <ns3:TrackPointExtension>
            <ns3:hr>129</ns3:hr>
            <ns3:cad>45</ns3:cad>
          </ns3:TrackPointExtension>
        </extensions>
      </trkpt>
      <trkpt lat="45.3329949080944061279296875" lon="-70.9701858647167682647705078125">
        <ele>844</ele>
        <time>2026-08-21T18:23:05.000Z</time>
        <extensions>
          <ns3:TrackPointExtension>
            <ns3:hr>129</ns3:hr>
            <ns3:cad>48</ns3:cad>
          </ns3:TrackPointExtension>
        </extensions>
      </trkpt>
      <trkpt lat="45.3329964168369770050048828125" lon="-70.9702019579708576202392578125">
        <ele>844.20001220703125</ele>
        <time>2026-08-21T18:23:06.000Z</time>
        <extensions>
          <ns3:TrackPointExtension>
            <ns3:hr>129</ns3:hr>
            <ns3:cad>48</ns3:cad>
          </ns3:TrackPointExtension>
        </extensions>
      </trkpt>
      <trkpt lat="45.33300094306468963623046875" lon="-70.970220230519771575927734375">
        <ele>844.4000244140625</ele>
        <time>2026-08-21T18:23:07.000Z</time>
        <extensions>
          <ns3:TrackPointExtension>
            <ns3:hr>130</ns3:hr>
            <ns3:cad>48</ns3:cad>
          </ns3:TrackPointExtension>
        </extensions>
      </trkpt>
      <trkpt lat="45.33300362527370452880859375" lon="-70.97023732960224151611328125">
        <ele>844.4000244140625</ele>
        <time>2026-08-21T18:23:08.000Z</time>
        <extensions>
          <ns3:TrackPointExtension>
            <ns3:hr>131</ns3:hr>
            <ns3:cad>50</ns3:cad>
          </ns3:TrackPointExtension>
        </extensions>
      </trkpt>
      <trkpt lat="45.33300689421594142913818359375" lon="-70.97025736235082149505615234375">
        <ele>844.4000244140625</ele>
        <time>2026-08-21T18:23:09.000Z</time>
        <extensions>
          <ns3:TrackPointExtension>
            <ns3:hr>130</ns3:hr>
            <ns3:cad>50</ns3:cad>
          </ns3:TrackPointExtension>
        </extensions>
      </trkpt>
      <trkpt lat="45.3330084867775440216064453125" lon="-70.9702700190246105194091796875">
        <ele>844.5999755859375</ele>
        <time>2026-08-21T18:23:10.000Z</time>
        <extensions>
          <ns3:TrackPointExtension>
            <ns3:hr>131</ns3:hr>
            <ns3:cad>0</ns3:cad>
          </ns3:TrackPointExtension>
        </extensions>
      </trkpt>
      <trkpt lat="45.33301225863397121429443359375" lon="-70.97028921358287334442138671875">
        <ele>844.5999755859375</ele>
        <time>2026-08-21T18:23:11.000Z</time>
        <extensions>
          <ns3:TrackPointExtension>
            <ns3:hr>131</ns3:hr>
            <ns3:cad>0</ns3:cad>
          </ns3:TrackPointExtension>
        </extensions>
      </trkpt>
      <trkpt lat="45.33301628194749355316162109375" lon="-70.9703062288463115692138671875">
        <ele>844.5999755859375</ele>
        <time>2026-08-21T18:23:12.000Z</time>
        <extensions>
          <ns3:TrackPointExtension>
            <ns3:hr>131</ns3:hr>
            <ns3:cad>0</ns3:cad>
          </ns3:TrackPointExtension>
        </extensions>
      </trkpt>
      <trkpt lat="45.3330195508897304534912109375" lon="-70.97032181918621063232421875">
        <ele>844.79998779296875</ele>
        <time>2026-08-21T18:23:13.000Z</time>
        <extensions>
          <ns3:TrackPointExtension>
            <ns3:hr>131</ns3:hr>
            <ns3:cad>51</ns3:cad>
          </ns3:TrackPointExtension>
        </extensions>
      </trkpt>
      <trkpt lat="45.33302097581326961517333984375" lon="-70.97033196128904819488525390625">
        <ele>844.79998779296875</ele>
        <time>2026-08-21T18:23:14.000Z</time>
        <extensions>
          <ns3:TrackPointExtension>
            <ns3:hr>132</ns3:hr>
            <ns3:cad>51</ns3:cad>
          </ns3:TrackPointExtension>
        </extensions>
      </trkpt>
      <trkpt lat="45.33302240073680877685546875" lon="-70.9703427739441394805908203125">
        <ele>844.79998779296875</ele>
        <time>2026-08-21T18:23:15.000Z</time>
        <extensions>
          <ns3:TrackPointExtension>
            <ns3:hr>132</ns3:hr>
            <ns3:cad>51</ns3:cad>
          </ns3:TrackPointExtension>
        </extensions>
      </trkpt>
      <trkpt lat="45.33302399329841136932373046875" lon="-70.970359034836292266845703125">
        <ele>845</ele>
        <time>2026-08-21T18:23:16.000Z</time>
        <extensions>
          <ns3:TrackPointExtension>
            <ns3:hr>132</ns3:hr>
            <ns3:cad>51</ns3:cad>
          </ns3:TrackPointExtension>
        </extensions>
      </trkpt>
      <trkpt lat="45.33302784897387027740478515625" lon="-70.970371775329113006591796875">
        <ele>845</ele>
        <time>2026-08-21T18:23:17.000Z</time>
        <extensions>
          <ns3:TrackPointExtension>
            <ns3:hr>133</ns3:hr>
            <ns3:cad>51</ns3:cad>
          </ns3:TrackPointExtension>
        </extensions>
      </trkpt>
      <trkpt lat="45.333033464848995208740234375" lon="-70.97038627602159976959228515625">
        <ele>845</ele>
        <time>2026-08-21T18:23:18.000Z</time>
        <extensions>
          <ns3:TrackPointExtension>
            <ns3:hr>133</ns3:hr>
            <ns3:cad>50</ns3:cad>
          </ns3:TrackPointExtension>
        </extensions>
      </trkpt>
      <trkpt lat="45.3330359794199466705322265625" lon="-70.970400273799896240234375">
        <ele>845.20001220703125</ele>
        <time>2026-08-21T18:23:19.000Z</time>
        <extensions>
          <ns3:TrackPointExtension>
            <ns3:hr>133</ns3:hr>
            <ns3:cad>47</ns3:cad>
          </ns3:TrackPointExtension>
        </extensions>
      </trkpt>
      <trkpt lat="45.3330386616289615631103515625" lon="-70.97041569650173187255859375">
        <ele>845</ele>
        <time>2026-08-21T18:23:20.000Z</time>
        <extensions>
          <ns3:TrackPointExtension>
            <ns3:hr>133</ns3:hr>
            <ns3:cad>47</ns3:cad>
          </ns3:TrackPointExtension>
        </extensions>
      </trkpt>
      <trkpt lat="45.33303908072412014007568359375" lon="-70.9704222343862056732177734375">
        <ele>845.20001220703125</ele>
        <time>2026-08-21T18:23:21.000Z</time>
        <extensions>
          <ns3:TrackPointExtension>
            <ns3:hr>133</ns3:hr>
            <ns3:cad>47</ns3:cad>
          </ns3:TrackPointExtension>
        </extensions>
      </trkpt>
      <trkpt lat="45.33304209820926189422607421875" lon="-70.97043313086032867431640625">
        <ele>845.20001220703125</ele>
        <time>2026-08-21T18:23:22.000Z</time>
        <extensions>
          <ns3:TrackPointExtension>
            <ns3:hr>132</ns3:hr>
            <ns3:cad>47</ns3:cad>
          </ns3:TrackPointExtension>
        </extensions>
      </trkpt>
      <trkpt lat="45.33304427750408649444580078125" lon="-70.97044411115348339080810546875">
        <ele>845.20001220703125</ele>
        <time>2026-08-21T18:23:23.000Z</time>
        <extensions>
          <ns3:TrackPointExtension>
            <ns3:hr>133</ns3:hr>
            <ns3:cad>42</ns3:cad>
          </ns3:TrackPointExtension>
        </extensions>
      </trkpt>
      <trkpt lat="45.33304410986602306365966796875" lon="-70.97045592963695526123046875">
        <ele>845.20001220703125</ele>
        <time>2026-08-21T18:23:24.000Z</time>
        <extensions>
          <ns3:TrackPointExtension>
            <ns3:hr>133</ns3:hr>
            <ns3:cad>42</ns3:cad>
          </ns3:TrackPointExtension>
        </extensions>
      </trkpt>
      <trkpt lat="45.3330446965992450714111328125" lon="-70.97046758048236370086669921875">
        <ele>845.4000244140625</ele>
        <time>2026-08-21T18:23:25.000Z</time>
        <extensions>
          <ns3:TrackPointExtension>
            <ns3:hr>132</ns3:hr>
            <ns3:cad>42</ns3:cad>
          </ns3:TrackPointExtension>
        </extensions>
      </trkpt>
      <trkpt lat="45.3330458700656890869140625" lon="-70.970479063689708709716796875">
        <ele>845.5999755859375</ele>
        <time>2026-08-21T18:23:26.000Z</time>
        <extensions>
          <ns3:TrackPointExtension>
            <ns3:hr>132</ns3:hr>
            <ns3:cad>41</ns3:cad>
          </ns3:TrackPointExtension>
        </extensions>
      </trkpt>
      <trkpt lat="45.33304578624665737152099609375" lon="-70.97049104981124401092529296875">
        <ele>845.79998779296875</ele>
        <time>2026-08-21T18:23:27.000Z</time>
        <extensions>
          <ns3:TrackPointExtension>
            <ns3:hr>132</ns3:hr>
            <ns3:cad>41</ns3:cad>
          </ns3:TrackPointExtension>
        </extensions>
      </trkpt>
      <trkpt lat="45.333044528961181640625" lon="-70.9705030359327793121337890625">
        <ele>845.79998779296875</ele>
        <time>2026-08-21T18:23:28.000Z</time>
        <extensions>
          <ns3:TrackPointExtension>
            <ns3:hr>132</ns3:hr>
            <ns3:cad>40</ns3:cad>
          </ns3:TrackPointExtension>
        </extensions>
      </trkpt>
      <trkpt lat="45.33303983509540557861328125" lon="-70.970515273511409759521484375">
        <ele>845.79998779296875</ele>
        <time>2026-08-21T18:23:29.000Z</time>
        <extensions>
          <ns3:TrackPointExtension>
            <ns3:hr>133</ns3:hr>
            <ns3:cad>40</ns3:cad>
          </ns3:TrackPointExtension>
        </extensions>
      </trkpt>
      <trkpt lat="45.33303421922028064727783203125" lon="-70.9705291874706745147705078125">
        <ele>845.79998779296875</ele>
        <time>2026-08-21T18:23:30.000Z</time>
        <extensions>
          <ns3:TrackPointExtension>
            <ns3:hr>132</ns3:hr>
            <ns3:cad>40</ns3:cad>
          </ns3:TrackPointExtension>
        </extensions>
      </trkpt>
      <trkpt lat="45.33303036354482173919677734375" lon="-70.9705379046499729156494140625">
        <ele>846</ele>
        <time>2026-08-21T18:23:31.000Z</time>
        <extensions>
          <ns3:TrackPointExtension>
            <ns3:hr>132</ns3:hr>
            <ns3:cad>40</ns3:cad>
          </ns3:TrackPointExtension>
        </extensions>
      </trkpt>
      <trkpt lat="45.33302449621260166168212890625" lon="-70.97054385580122470855712890625">
        <ele>846</ele>
        <time>2026-08-21T18:23:32.000Z</time>
        <extensions>
          <ns3:TrackPointExtension>
            <ns3:hr>132</ns3:hr>
            <ns3:cad>40</ns3:cad>
          </ns3:TrackPointExtension>
        </extensions>
      </trkpt>
      <trkpt lat="45.3330222330987453460693359375" lon="-70.97055374644696712493896484375">
        <ele>846</ele>
        <time>2026-08-21T18:23:33.000Z</time>
        <extensions>
          <ns3:TrackPointExtension>
            <ns3:hr>132</ns3:hr>
            <ns3:cad>42</ns3:cad>
          </ns3:TrackPointExtension>
        </extensions>
      </trkpt>
      <trkpt lat="45.3330215625464916229248046875" lon="-70.97056263126432895660400390625">
        <ele>846.20001220703125</ele>
        <time>2026-08-21T18:23:34.000Z</time>
        <extensions>
          <ns3:TrackPointExtension>
            <ns3:hr>131</ns3:hr>
            <ns3:cad>42</ns3:cad>
          </ns3:TrackPointExtension>
        </extensions>
      </trkpt>
      <trkpt lat="45.3330208919942378997802734375" lon="-70.9705732762813568115234375">
        <ele>846.20001220703125</ele>
        <time>2026-08-21T18:23:35.000Z</time>
        <extensions>
          <ns3:TrackPointExtension>
            <ns3:hr>131</ns3:hr>
            <ns3:cad>42</ns3:cad>
          </ns3:TrackPointExtension>
        </extensions>
      </trkpt>
      <trkpt lat="45.3330208919942378997802734375" lon="-70.9705851785838603973388671875">
        <ele>846.4000244140625</ele>
        <time>2026-08-21T18:23:36.000Z</time>
        <extensions>
          <ns3:TrackPointExtension>
            <ns3:hr>131</ns3:hr>
            <ns3:cad>42</ns3:cad>
          </ns3:TrackPointExtension>
        </extensions>
      </trkpt>
      <trkpt lat="45.33302097581326961517333984375" lon="-70.9705965779721736907958984375">
        <ele>846.4000244140625</ele>
        <time>2026-08-21T18:23:37.000Z</time>
        <extensions>
          <ns3:TrackPointExtension>
            <ns3:hr>130</ns3:hr>
            <ns3:cad>42</ns3:cad>
          </ns3:TrackPointExtension>
        </extensions>
      </trkpt>
      <trkpt lat="45.33302214927971363067626953125" lon="-70.97060856409370899200439453125">
        <ele>846.4000244140625</ele>
        <time>2026-08-21T18:23:38.000Z</time>
        <extensions>
          <ns3:TrackPointExtension>
            <ns3:hr>130</ns3:hr>
            <ns3:cad>40</ns3:cad>
          </ns3:TrackPointExtension>
        </extensions>
      </trkpt>
      <trkpt lat="45.3330232389271259307861328125" lon="-70.97062314860522747039794921875">
        <ele>846.4000244140625</ele>
        <time>2026-08-21T18:23:39.000Z</time>
        <extensions>
          <ns3:TrackPointExtension>
            <ns3:hr>130</ns3:hr>
            <ns3:cad>0</ns3:cad>
          </ns3:TrackPointExtension>
        </extensions>
      </trkpt>
      <trkpt lat="45.3330245800316333770751953125" lon="-70.9706341288983821868896484375">
        <ele>846.4000244140625</ele>
        <time>2026-08-21T18:23:40.000Z</time>
        <extensions>
          <ns3:TrackPointExtension>
            <ns3:hr>130</ns3:hr>
            <ns3:cad>0</ns3:cad>
          </ns3:TrackPointExtension>
        </extensions>
      </trkpt>
      <trkpt lat="45.33302508294582366943359375" lon="-70.97064242698252201080322265625">
        <ele>846.4000244140625</ele>
        <time>2026-08-21T18:23:41.000Z</time>
        <extensions>
          <ns3:TrackPointExtension>
            <ns3:hr>130</ns3:hr>
            <ns3:cad>0</ns3:cad>
          </ns3:TrackPointExtension>
        </extensions>
      </trkpt>
      <trkpt lat="45.3330245800316333770751953125" lon="-70.9706502221524715423583984375">
        <ele>846.4000244140625</ele>
        <time>2026-08-21T18:23:42.000Z</time>
        <extensions>
          <ns3:TrackPointExtension>
            <ns3:hr>129</ns3:hr>
            <ns3:cad>0</ns3:cad>
          </ns3:TrackPointExtension>
        </extensions>
      </trkpt>
      <trkpt lat="45.3330249153077602386474609375" lon="-70.97065818496048450469970703125">
        <ele>846.20001220703125</ele>
        <time>2026-08-21T18:23:43.000Z</time>
        <extensions>
          <ns3:TrackPointExtension>
            <ns3:hr>129</ns3:hr>
            <ns3:cad>0</ns3:cad>
          </ns3:TrackPointExtension>
        </extensions>
      </trkpt>
      <trkpt lat="45.33302617259323596954345703125" lon="-70.9706596098840236663818359375">
        <ele>846.20001220703125</ele>
        <time>2026-08-21T18:23:44.000Z</time>
        <extensions>
          <ns3:TrackPointExtension>
            <ns3:hr>128</ns3:hr>
            <ns3:cad>0</ns3:cad>
          </ns3:TrackPointExtension>
        </extensions>
      </trkpt>
      <trkpt lat="45.3330270946025848388671875" lon="-70.970657765865325927734375">
        <ele>846</ele>
        <time>2026-08-21T18:23:45.000Z</time>
        <extensions>
          <ns3:TrackPointExtension>
            <ns3:hr>128</ns3:hr>
            <ns3:cad>0</ns3:cad>
          </ns3:TrackPointExtension>
        </extensions>
      </trkpt>
      <trkpt lat="45.33302634023129940032958984375" lon="-70.97065784968435764312744140625">
        <ele>846</ele>
        <time>2026-08-21T18:23:46.000Z</time>
        <extensions>
          <ns3:TrackPointExtension>
            <ns3:hr>128</ns3:hr>
            <ns3:cad>0</ns3:cad>
          </ns3:TrackPointExtension>
        </extensions>
      </trkpt>
      <trkpt lat="45.33302634023129940032958984375" lon="-70.97065784968435764312744140625">
        <ele>846</ele>
        <time>2026-08-21T18:23:47.000Z</time>
        <extensions>
          <ns3:TrackPointExtension>
            <ns3:hr>128</ns3:hr>
            <ns3:cad>0</ns3:cad>
          </ns3:TrackPointExtension>
        </extensions>
      </trkpt>
      <trkpt lat="45.33302634023129940032958984375" lon="-70.97065784968435764312744140625">
        <ele>846</ele>
        <time>2026-08-21T18:23:48.000Z</time>
        <extensions>
          <ns3:TrackPointExtension>
            <ns3:hr>128</ns3:hr>
            <ns3:cad>0</ns3:cad>
          </ns3:TrackPointExtension>
        </extensions>
      </trkpt>
      <trkpt lat="45.33302634023129940032958984375" lon="-70.97065784968435764312744140625">
        <ele>846</ele>
        <time>2026-08-21T18:23:49.000Z</time>
        <extensions>
          <ns3:TrackPointExtension>
            <ns3:hr>128</ns3:hr>
            <ns3:cad>0</ns3:cad>
          </ns3:TrackPointExtension>
        </extensions>
      </trkpt>
      <trkpt lat="45.33302634023129940032958984375" lon="-70.97065784968435764312744140625">
        <ele>846</ele>
        <time>2026-08-21T18:23:50.000Z</time>
        <extensions>
          <ns3:TrackPointExtension>
            <ns3:hr>127</ns3:hr>
            <ns3:cad>0</ns3:cad>
          </ns3:TrackPointExtension>
        </extensions>
      </trkpt>
      <trkpt lat="45.33302550204098224639892578125" lon="-70.9706582687795162200927734375">
        <ele>845.79998779296875</ele>
        <time>2026-08-21T18:23:51.000Z</time>
        <extensions>
          <ns3:TrackPointExtension>
            <ns3:hr>126</ns3:hr>
            <ns3:cad>0</ns3:cad>
          </ns3:TrackPointExtension>
        </extensions>
      </trkpt>
      <trkpt lat="45.3330229036509990692138671875" lon="-70.970668159425258636474609375">
        <ele>845.79998779296875</ele>
        <time>2026-08-21T18:23:52.000Z</time>
        <extensions>
          <ns3:TrackPointExtension>
            <ns3:hr>124</ns3:hr>
            <ns3:cad>0</ns3:cad>
          </ns3:TrackPointExtension>
        </extensions>
      </trkpt>
      <trkpt lat="45.33302315510809421539306640625" lon="-70.97067947499454021453857421875">
        <ele>845.5999755859375</ele>
        <time>2026-08-21T18:23:53.000Z</time>
        <extensions>
          <ns3:TrackPointExtension>
            <ns3:hr>122</ns3:hr>
            <ns3:cad>0</ns3:cad>
          </ns3:TrackPointExtension>
        </extensions>
      </trkpt>
      <trkpt lat="45.3330225683748722076416015625" lon="-70.970688275992870330810546875">
        <ele>845.5999755859375</ele>
        <time>2026-08-21T18:23:54.000Z</time>
        <extensions>
          <ns3:TrackPointExtension>
            <ns3:hr>122</ns3:hr>
            <ns3:cad>0</ns3:cad>
          </ns3:TrackPointExtension>
        </extensions>
      </trkpt>
      <trkpt lat="45.33302281983196735382080078125" lon="-70.9706978313624858856201171875">
        <ele>845.4000244140625</ele>
        <time>2026-08-21T18:23:55.000Z</time>
        <extensions>
          <ns3:TrackPointExtension>
            <ns3:hr>122</ns3:hr>
            <ns3:cad>0</ns3:cad>
          </ns3:TrackPointExtension>
        </extensions>
      </trkpt>
      <trkpt lat="45.33302105963230133056640625" lon="-70.97070763818919658660888671875">
        <ele>845.4000244140625</ele>
        <time>2026-08-21T18:23:56.000Z</time>
        <extensions>
          <ns3:TrackPointExtension>
            <ns3:hr>123</ns3:hr>
            <ns3:cad>0</ns3:cad>
          </ns3:TrackPointExtension>
        </extensions>
      </trkpt>
      <trkpt lat="45.33301745541393756866455078125" lon="-70.97071920521557331085205078125">
        <ele>845.20001220703125</ele>
        <time>2026-08-21T18:23:57.000Z</time>
        <extensions>
          <ns3:TrackPointExtension>
            <ns3:hr>123</ns3:hr>
            <ns3:cad>0</ns3:cad>
          </ns3:TrackPointExtension>
        </extensions>
      </trkpt>
      <trkpt lat="45.3330125100910663604736328125" lon="-70.9707288444042205810546875">
        <ele>845</ele>
        <time>2026-08-21T18:23:58.000Z</time>
        <extensions>
          <ns3:TrackPointExtension>
            <ns3:hr>124</ns3:hr>
            <ns3:cad>0</ns3:cad>
          </ns3:TrackPointExtension>
        </extensions>
      </trkpt>
      <trkpt lat="45.3330084867775440216064453125" lon="-70.97074158489704132080078125">
        <ele>844.79998779296875</ele>
        <time>2026-08-21T18:23:59.000Z</time>
        <extensions>
          <ns3:TrackPointExtension>
            <ns3:hr>125</ns3:hr>
            <ns3:cad>50</ns3:cad>
          </ns3:TrackPointExtension>
        </extensions>
      </trkpt>
      <trkpt lat="45.33300505019724369049072265625" lon="-70.970755331218242645263671875">
        <ele>844.5999755859375</ele>
        <time>2026-08-21T18:24:00.000Z</time>
        <extensions>
          <ns3:TrackPointExtension>
            <ns3:hr>126</ns3:hr>
            <ns3:cad>50</ns3:cad>
          </ns3:TrackPointExtension>
        </extensions>
      </trkpt>
      <trkpt lat="45.33300404436886310577392578125" lon="-70.9707702510058879852294921875">
        <ele>844.4000244140625</ele>
        <time>2026-08-21T18:24:01.000Z</time>
        <extensions>
          <ns3:TrackPointExtension>
            <ns3:hr>125</ns3:hr>
            <ns3:cad>51</ns3:cad>
          </ns3:TrackPointExtension>
        </extensions>
      </trkpt>
      <trkpt lat="45.3330061398446559906005859375" lon="-70.9707819856703281402587890625">
        <ele>844.20001220703125</ele>
        <time>2026-08-21T18:24:02.000Z</time>
        <extensions>
          <ns3:TrackPointExtension>
            <ns3:hr>124</ns3:hr>
            <ns3:cad>51</ns3:cad>
          </ns3:TrackPointExtension>
        </extensions>
      </trkpt>
      <trkpt lat="45.333005301654338836669921875" lon="-70.9707947261631488800048828125">
        <ele>844</ele>
        <time>2026-08-21T18:24:03.000Z</time>
        <extensions>
          <ns3:TrackPointExtension>
            <ns3:hr>124</ns3:hr>
            <ns3:cad>55</ns3:cad>
          </ns3:TrackPointExtension>
        </extensions>
      </trkpt>
      <trkpt lat="45.333003289997577667236328125" lon="-70.970806963741779327392578125">
        <ele>843.5999755859375</ele>
        <time>2026-08-21T18:24:04.000Z</time>
        <extensions>
          <ns3:TrackPointExtension>
            <ns3:hr>124</ns3:hr>
            <ns3:cad>55</ns3:cad>
          </ns3:TrackPointExtension>
        </extensions>
      </trkpt>
      <trkpt lat="45.3330027870833873748779296875" lon="-70.9708218835294246673583984375">
        <ele>843.4000244140625</ele>
        <time>2026-08-21T18:24:05.000Z</time>
        <extensions>
          <ns3:TrackPointExtension>
            <ns3:hr>123</ns3:hr>
            <ns3:cad>55</ns3:cad>
          </ns3:TrackPointExtension>
        </extensions>
      </trkpt>
      <trkpt lat="45.33300152979791164398193359375" lon="-70.97083722241222858428955078125">
        <ele>843</ele>
        <time>2026-08-21T18:24:06.000Z</time>
        <extensions>
          <ns3:TrackPointExtension>
            <ns3:hr>123</ns3:hr>
            <ns3:cad>55</ns3:cad>
          </ns3:TrackPointExtension>
        </extensions>
      </trkpt>
      <trkpt lat="45.333000607788562774658203125" lon="-70.97085147164762020111083984375">
        <ele>842.79998779296875</ele>
        <time>2026-08-21T18:24:07.000Z</time>
        <extensions>
          <ns3:TrackPointExtension>
            <ns3:hr>123</ns3:hr>
            <ns3:cad>55</ns3:cad>
          </ns3:TrackPointExtension>
        </extensions>
      </trkpt>
      <trkpt lat="45.333001948893070220947265625" lon="-70.97086639143526554107666015625">
        <ele>842.5999755859375</ele>
        <time>2026-08-21T18:24:08.000Z</time>
        <extensions>
          <ns3:TrackPointExtension>
            <ns3:hr>124</ns3:hr>
            <ns3:cad>55</ns3:cad>
          </ns3:TrackPointExtension>
        </extensions>
      </trkpt>
      <trkpt lat="45.33300102688372135162353515625" lon="-70.97087879665195941925048828125">
        <ele>842.5999755859375</ele>
        <time>2026-08-21T18:24:09.000Z</time>
        <extensions>
          <ns3:TrackPointExtension>
            <ns3:hr>123</ns3:hr>
            <ns3:cad>55</ns3:cad>
          </ns3:TrackPointExtension>
        </extensions>
      </trkpt>
      <trkpt lat="45.33300094306468963623046875" lon="-70.97088902257382869720458984375">
        <ele>842.4000244140625</ele>
        <time>2026-08-21T18:24:10.000Z</time>
        <extensions>
          <ns3:TrackPointExtension>
            <ns3:hr>123</ns3:hr>
            <ns3:cad>55</ns3:cad>
          </ns3:TrackPointExtension>
        </extensions>
      </trkpt>
      <trkpt lat="45.3330021165311336517333984375" lon="-70.97089941613376140594482421875">
        <ele>842.4000244140625</ele>
        <time>2026-08-21T18:24:11.000Z</time>
        <extensions>
          <ns3:TrackPointExtension>
            <ns3:hr>123</ns3:hr>
            <ns3:cad>51</ns3:cad>
          </ns3:TrackPointExtension>
        </extensions>
      </trkpt>
      <trkpt lat="45.333004631102085113525390625" lon="-70.97090897150337696075439453125">
        <ele>842.20001220703125</ele>
        <time>2026-08-21T18:24:12.000Z</time>
        <extensions>
          <ns3:TrackPointExtension>
            <ns3:hr>122</ns3:hr>
            <ns3:cad>51</ns3:cad>
          </ns3:TrackPointExtension>
        </extensions>
      </trkpt>
      <trkpt lat="45.33300655893981456756591796875" lon="-70.970921628177165985107421875">
        <ele>842</ele>
        <time>2026-08-21T18:24:13.000Z</time>
        <extensions>
          <ns3:TrackPointExtension>
            <ns3:hr>121</ns3:hr>
            <ns3:cad>50</ns3:cad>
          </ns3:TrackPointExtension>
        </extensions>
      </trkpt>
      <trkpt lat="45.33301024697721004486083984375" lon="-70.97093797288835048675537109375">
        <ele>841.79998779296875</ele>
        <time>2026-08-21T18:24:14.000Z</time>
        <extensions>
          <ns3:TrackPointExtension>
            <ns3:hr>119</ns3:hr>
            <ns3:cad>0</ns3:cad>
          </ns3:TrackPointExtension>
        </extensions>
      </trkpt>
      <trkpt lat="45.33300974406301975250244140625" lon="-70.97095088101923465728759765625">
        <ele>841.5999755859375</ele>
        <time>2026-08-21T18:24:15.000Z</time>
        <extensions>
          <ns3:TrackPointExtension>
            <ns3:hr>117</ns3:hr>
            <ns3:cad>0</ns3:cad>
          </ns3:TrackPointExtension>
        </extensions>
      </trkpt>
      <trkpt lat="45.3330029547214508056640625" lon="-70.9709630347788333892822265625">
        <ele>841.20001220703125</ele>
        <time>2026-08-21T18:24:16.000Z</time>
        <extensions>
          <ns3:TrackPointExtension>
            <ns3:hr>116</ns3:hr>
            <ns3:cad>0</ns3:cad>
          </ns3:TrackPointExtension>
        </extensions>
      </trkpt>
      <trkpt lat="45.33299935050308704376220703125" lon="-70.970971249043941497802734375">
        <ele>841</ele>
        <time>2026-08-21T18:24:17.000Z</time>
        <extensions>
          <ns3:TrackPointExtension>
            <ns3:hr>115</ns3:hr>
            <ns3:cad>0</ns3:cad>
          </ns3:TrackPointExtension>
        </extensions>
      </trkpt>
      <trkpt lat="45.33300035633146762847900390625" lon="-70.97098373807966709136962890625">
        <ele>841</ele>
        <time>2026-08-21T18:24:18.000Z</time>
        <extensions>
          <ns3:TrackPointExtension>
            <ns3:hr>115</ns3:hr>
            <ns3:cad>0</ns3:cad>
          </ns3:TrackPointExtension>
        </extensions>
      </trkpt>
      <trkpt lat="45.3330007754266262054443359375" lon="-70.97100469283759593963623046875">
        <ele>840.79998779296875</ele>
        <time>2026-08-21T18:24:19.000Z</time>
        <extensions>
          <ns3:TrackPointExtension>
            <ns3:hr>115</ns3:hr>
            <ns3:cad>0</ns3:cad>
          </ns3:TrackPointExtension>
        </extensions>
      </trkpt>
      <trkpt lat="45.3330014459788799285888671875" lon="-70.97102581523358821868896484375">
        <ele>840.5999755859375</ele>
        <time>2026-08-21T18:24:20.000Z</time>
        <extensions>
          <ns3:TrackPointExtension>
            <ns3:hr>114</ns3:hr>
            <ns3:cad>0</ns3:cad>
          </ns3:TrackPointExtension>
        </extensions>
      </trkpt>
      <trkpt lat="45.33300303854048252105712890625" lon="-70.97104324959218502044677734375">
        <ele>840.4000244140625</ele>
        <time>2026-08-21T18:24:21.000Z</time>
        <extensions>
          <ns3:TrackPointExtension>
            <ns3:hr>114</ns3:hr>
            <ns3:cad>60</ns3:cad>
          </ns3:TrackPointExtension>
        </extensions>
      </trkpt>
      <trkpt lat="45.3329987637698650360107421875" lon="-70.971060432493686676025390625">
        <ele>840.20001220703125</ele>
        <time>2026-08-21T18:24:22.000Z</time>
        <extensions>
          <ns3:TrackPointExtension>
            <ns3:hr>114</ns3:hr>
            <ns3:cad>60</ns3:cad>
          </ns3:TrackPointExtension>
        </extensions>
      </trkpt>
      <trkpt lat="45.33299767412245273590087890625" lon="-70.97107979469001293182373046875">
        <ele>840</ele>
        <time>2026-08-21T18:24:23.000Z</time>
        <extensions>
          <ns3:TrackPointExtension>
            <ns3:hr>113</ns3:hr>
            <ns3:cad>60</ns3:cad>
          </ns3:TrackPointExtension>
        </extensions>
      </trkpt>
      <trkpt lat="45.3329949080944061279296875" lon="-70.9710961394011974334716796875">
        <ele>840</ele>
        <time>2026-08-21T18:24:24.000Z</time>
        <extensions>
          <ns3:TrackPointExtension>
            <ns3:hr>114</ns3:hr>
            <ns3:cad>57</ns3:cad>
          </ns3:TrackPointExtension>
        </extensions>
      </trkpt>
      <trkpt lat="45.33298962749540805816650390625" lon="-70.9711075387895107269287109375">
        <ele>839.79998779296875</ele>
        <time>2026-08-21T18:24:25.000Z</time>
        <extensions>
          <ns3:TrackPointExtension>
            <ns3:hr>114</ns3:hr>
            <ns3:cad>57</ns3:cad>
          </ns3:TrackPointExtension>
        </extensions>
      </trkpt>
      <trkpt lat="45.33298376016318798065185546875" lon="-70.9711212851107120513916015625">
        <ele>839.79998779296875</ele>
        <time>2026-08-21T18:24:26.000Z</time>
        <extensions>
          <ns3:TrackPointExtension>
            <ns3:hr>114</ns3:hr>
            <ns3:cad>57</ns3:cad>
          </ns3:TrackPointExtension>
        </extensions>
      </trkpt>
      <trkpt lat="45.33297948539257049560546875" lon="-70.97113243304193019866943359375">
        <ele>839.79998779296875</ele>
        <time>2026-08-21T18:24:27.000Z</time>
        <extensions>
          <ns3:TrackPointExtension>
            <ns3:hr>113</ns3:hr>
            <ns3:cad>56</ns3:cad>
          </ns3:TrackPointExtension>
        </extensions>
      </trkpt>
      <trkpt lat="45.33297621645033359527587890625" lon="-70.97114928066730499267578125">
        <ele>839.79998779296875</ele>
        <time>2026-08-21T18:24:28.000Z</time>
        <extensions>
          <ns3:TrackPointExtension>
            <ns3:hr>115</ns3:hr>
            <ns3:cad>56</ns3:cad>
          </ns3:TrackPointExtension>
        </extensions>
      </trkpt>
      <trkpt lat="45.33297420479357242584228515625" lon="-70.97116830758750438690185546875">
        <ele>839.79998779296875</ele>
        <time>2026-08-21T18:24:29.000Z</time>
        <extensions>
          <ns3:TrackPointExtension>
            <ns3:hr>115</ns3:hr>
            <ns3:cad>56</ns3:cad>
          </ns3:TrackPointExtension>
        </extensions>
      </trkpt>
      <trkpt lat="45.33297202549874782562255859375" lon="-70.97118590958416461944580078125">
        <ele>839.5999755859375</ele>
        <time>2026-08-21T18:24:30.000Z</time>
        <extensions>
          <ns3:TrackPointExtension>
            <ns3:hr>115</ns3:hr>
            <ns3:cad>56</ns3:cad>
          </ns3:TrackPointExtension>
        </extensions>
      </trkpt>
      <trkpt lat="45.3329675830900669097900390625" lon="-70.97120367921888828277587890625">
        <ele>839.5999755859375</ele>
        <time>2026-08-21T18:24:31.000Z</time>
        <extensions>
          <ns3:TrackPointExtension>
            <ns3:hr>115</ns3:hr>
            <ns3:cad>56</ns3:cad>
          </ns3:TrackPointExtension>
        </extensions>
      </trkpt>
      <trkpt lat="45.33296649344265460968017578125" lon="-70.97121859900653362274169921875">
        <ele>839.5999755859375</ele>
        <time>2026-08-21T18:24:32.000Z</time>
        <extensions>
          <ns3:TrackPointExtension>
            <ns3:hr>115</ns3:hr>
            <ns3:cad>57</ns3:cad>
          </ns3:TrackPointExtension>
        </extensions>
      </trkpt>
      <trkpt lat="45.33296163193881511688232421875" lon="-70.9712342731654644012451171875">
        <ele>839.5999755859375</ele>
        <time>2026-08-21T18:24:33.000Z</time>
        <extensions>
          <ns3:TrackPointExtension>
            <ns3:hr>114</ns3:hr>
            <ns3:cad>57</ns3:cad>
          </ns3:TrackPointExtension>
        </extensions>
      </trkpt>
      <trkpt lat="45.332957692444324493408203125" lon="-70.9712470136582851409912109375">
        <ele>839.5999755859375</ele>
        <time>2026-08-21T18:24:34.000Z</time>
        <extensions>
          <ns3:TrackPointExtension>
            <ns3:hr>113</ns3:hr>
            <ns3:cad>51</ns3:cad>
          </ns3:TrackPointExtension>
        </extensions>
      </trkpt>
      <trkpt lat="45.332956351339817047119140625" lon="-70.97126335836946964263916015625">
        <ele>839.5999755859375</ele>
        <time>2026-08-21T18:24:35.000Z</time>
        <extensions>
          <ns3:TrackPointExtension>
            <ns3:hr>112</ns3:hr>
            <ns3:cad>51</ns3:cad>
          </ns3:TrackPointExtension>
        </extensions>
      </trkpt>
      <trkpt lat="45.332955010235309600830078125" lon="-70.971281044185161590576171875">
        <ele>839.5999755859375</ele>
        <time>2026-08-21T18:24:36.000Z</time>
        <extensions>
          <ns3:TrackPointExtension>
            <ns3:hr>110</ns3:hr>
            <ns3:cad>53</ns3:cad>
          </ns3:TrackPointExtension>
        </extensions>
      </trkpt>
      <trkpt lat="45.33295190893113613128662109375" lon="-70.97129219211637973785400390625">
        <ele>839.5999755859375</ele>
        <time>2026-08-21T18:24:37.000Z</time>
        <extensions>
          <ns3:TrackPointExtension>
            <ns3:hr>109</ns3:hr>
            <ns3:cad>53</ns3:cad>
          </ns3:TrackPointExtension>
        </extensions>
      </trkpt>
      <trkpt lat="45.33294905908405780792236328125" lon="-70.97130375914275646209716796875">
        <ele>839.5999755859375</ele>
        <time>2026-08-21T18:24:38.000Z</time>
        <extensions>
          <ns3:TrackPointExtension>
            <ns3:hr>109</ns3:hr>
            <ns3:cad>53</ns3:cad>
          </ns3:TrackPointExtension>
        </extensions>
      </trkpt>
      <trkpt lat="45.33294470049440860748291015625" lon="-70.97131197340786457061767578125">
        <ele>839.5999755859375</ele>
        <time>2026-08-21T18:24:39.000Z</time>
        <extensions>
          <ns3:TrackPointExtension>
            <ns3:hr>109</ns3:hr>
            <ns3:cad>49</ns3:cad>
          </ns3:TrackPointExtension>
        </extensions>
      </trkpt>
      <trkpt lat="45.3329414315521717071533203125" lon="-70.9713241271674633026123046875">
        <ele>839.4000244140625</ele>
        <time>2026-08-21T18:24:40.000Z</time>
        <extensions>
          <ns3:TrackPointExtension>
            <ns3:hr>109</ns3:hr>
            <ns3:cad>49</ns3:cad>
          </ns3:TrackPointExtension>
        </extensions>
      </trkpt>
      <trkpt lat="45.33293849788606166839599609375" lon="-70.97133435308933258056640625">
        <ele>839.4000244140625</ele>
        <time>2026-08-21T18:24:41.000Z</time>
        <extensions>
          <ns3:TrackPointExtension>
            <ns3:hr>110</ns3:hr>
            <ns3:cad>0</ns3:cad>
          </ns3:TrackPointExtension>
        </extensions>
      </trkpt>
      <trkpt lat="45.33293430693447589874267578125" lon="-70.97134650684893131256103515625">
        <ele>839.4000244140625</ele>
        <time>2026-08-21T18:24:42.000Z</time>
        <extensions>
          <ns3:TrackPointExtension>
            <ns3:hr>110</ns3:hr>
            <ns3:cad>0</ns3:cad>
          </ns3:TrackPointExtension>
        </extensions>
      </trkpt>
      <trkpt lat="45.33292843960225582122802734375" lon="-70.97134935669600963592529296875">
        <ele>839.5999755859375</ele>
        <time>2026-08-21T18:24:43.000Z</time>
        <extensions>
          <ns3:TrackPointExtension>
            <ns3:hr>110</ns3:hr>
            <ns3:cad>0</ns3:cad>
          </ns3:TrackPointExtension>
        </extensions>
      </trkpt>
      <trkpt lat="45.33292525447905063629150390625" lon="-70.9713600017130374908447265625">
        <ele>839.79998779296875</ele>
        <time>2026-08-21T18:24:44.000Z</time>
        <extensions>
          <ns3:TrackPointExtension>
            <ns3:hr>110</ns3:hr>
            <ns3:cad>0</ns3:cad>
          </ns3:TrackPointExtension>
        </extensions>
      </trkpt>
      <trkpt lat="45.3329229913651943206787109375" lon="-70.97137366421520709991455078125">
        <ele>840</ele>
        <time>2026-08-21T18:24:45.000Z</time>
        <extensions>
          <ns3:TrackPointExtension>
            <ns3:hr>111</ns3:hr>
            <ns3:cad>0</ns3:cad>
          </ns3:TrackPointExtension>
        </extensions>
      </trkpt>
      <trkpt lat="45.3329209797084331512451171875" lon="-70.9713858179748058319091796875">
        <ele>840.20001220703125</ele>
        <time>2026-08-21T18:24:46.000Z</time>
        <extensions>
          <ns3:TrackPointExtension>
            <ns3:hr>110</ns3:hr>
            <ns3:cad>0</ns3:cad>
          </ns3:TrackPointExtension>
        </extensions>
      </trkpt>
      <trkpt lat="45.3329213149845600128173828125" lon="-70.971397720277309417724609375">
        <ele>840.20001220703125</ele>
        <time>2026-08-21T18:24:47.000Z</time>
        <extensions>
          <ns3:TrackPointExtension>
            <ns3:hr>110</ns3:hr>
            <ns3:cad>0</ns3:cad>
          </ns3:TrackPointExtension>
        </extensions>
      </trkpt>
      <trkpt lat="45.332918465137481689453125" lon="-70.97141507081687450408935546875">
        <ele>840.4000244140625</ele>
        <time>2026-08-21T18:24:48.000Z</time>
        <extensions>
          <ns3:TrackPointExtension>
            <ns3:hr>109</ns3:hr>
            <ns3:cad>0</ns3:cad>
          </ns3:TrackPointExtension>
        </extensions>
      </trkpt>
      <trkpt lat="45.33291838131844997406005859375" lon="-70.97143216989934444427490234375">
        <ele>840.4000244140625</ele>
        <time>2026-08-21T18:24:49.000Z</time>
        <extensions>
          <ns3:TrackPointExtension>
            <ns3:hr>109</ns3:hr>
            <ns3:cad>44</ns3:cad>
          </ns3:TrackPointExtension>
        </extensions>
      </trkpt>
      <trkpt lat="45.3329196386039257049560546875" lon="-70.97144457511603832244873046875">
        <ele>840.4000244140625</ele>
        <time>2026-08-21T18:24:50.000Z</time>
        <extensions>
          <ns3:TrackPointExtension>
            <ns3:hr>109</ns3:hr>
            <ns3:cad>44</ns3:cad>
          </ns3:TrackPointExtension>
        </extensions>
      </trkpt>
      <trkpt lat="45.332922823727130889892578125" lon="-70.9714615903794765472412109375">
        <ele>840.4000244140625</ele>
        <time>2026-08-21T18:24:51.000Z</time>
        <extensions>
          <ns3:TrackPointExtension>
            <ns3:hr>108</ns3:hr>
            <ns3:cad>47</ns3:cad>
          </ns3:TrackPointExtension>
        </extensions>
      </trkpt>
      <trkpt lat="45.33293162472546100616455078125" lon="-70.97148179076611995697021484375">
        <ele>840.4000244140625</ele>
        <time>2026-08-21T18:24:52.000Z</time>
        <extensions>
          <ns3:TrackPointExtension>
            <ns3:hr>108</ns3:hr>
            <ns3:cad>47</ns3:cad>
          </ns3:TrackPointExtension>
        </extensions>
      </trkpt>
      <trkpt lat="45.33294855616986751556396484375" lon="-70.97148380242288112640380859375">
        <ele>840.20001220703125</ele>
        <time>2026-08-21T18:24:53.000Z</time>
        <extensions>
          <ns3:TrackPointExtension>
            <ns3:hr>109</ns3:hr>
            <ns3:cad>47</ns3:cad>
          </ns3:TrackPointExtension>
        </extensions>
      </trkpt>
      <trkpt lat="45.33296196721494197845458984375" lon="-70.97148061729967594146728515625">
        <ele>840.20001220703125</ele>
        <time>2026-08-21T18:24:54.000Z</time>
        <extensions>
          <ns3:TrackPointExtension>
            <ns3:hr>110</ns3:hr>
            <ns3:cad>48</ns3:cad>
          </ns3:TrackPointExtension>
        </extensions>
      </trkpt>
      <trkpt lat="45.332973785698413848876953125" lon="-70.97147558815777301788330078125">
        <ele>840</ele>
        <time>2026-08-21T18:24:55.000Z</time>
        <extensions>
          <ns3:TrackPointExtension>
            <ns3:hr>112</ns3:hr>
            <ns3:cad>48</ns3:cad>
          </ns3:TrackPointExtension>
        </extensions>
      </trkpt>
      <trkpt lat="45.33298979513347148895263671875" lon="-70.9714766778051853179931640625">
        <ele>840</ele>
        <time>2026-08-21T18:24:56.000Z</time>
        <extensions>
          <ns3:TrackPointExtension>
            <ns3:hr>115</ns3:hr>
            <ns3:cad>48</ns3:cad>
          </ns3:TrackPointExtension>
        </extensions>
      </trkpt>
      <trkpt lat="45.3329967521131038665771484375" lon="-70.9714813716709613800048828125">
        <ele>839.79998779296875</ele>
        <time>2026-08-21T18:24:57.000Z</time>
        <extensions>
          <ns3:TrackPointExtension>
            <ns3:hr>115</ns3:hr>
            <ns3:cad>48</ns3:cad>
          </ns3:TrackPointExtension>
        </extensions>
      </trkpt>
      <trkpt lat="45.33301242627203464508056640625" lon="-70.9714884124696254730224609375">
        <ele>839.79998779296875</ele>
        <time>2026-08-21T18:24:58.000Z</time>
        <extensions>
          <ns3:TrackPointExtension>
            <ns3:hr>115</ns3:hr>
            <ns3:cad>48</ns3:cad>
          </ns3:TrackPointExtension>
        </extensions>
      </trkpt>
      <trkpt lat="45.33302533440291881561279296875" lon="-70.97149469889700412750244140625">
        <ele>839.5999755859375</ele>
        <time>2026-08-21T18:24:59.000Z</time>
        <extensions>
          <ns3:TrackPointExtension>
            <ns3:hr>115</ns3:hr>
            <ns3:cad>0</ns3:cad>
          </ns3:TrackPointExtension>
        </extensions>
      </trkpt>
      <trkpt lat="45.3330373205244541168212890625" lon="-70.97150358371436595916748046875">
        <ele>839.79998779296875</ele>
        <time>2026-08-21T18:25:00.000Z</time>
        <extensions>
          <ns3:TrackPointExtension>
            <ns3:hr>116</ns3:hr>
            <ns3:cad>60</ns3:cad>
          </ns3:TrackPointExtension>
        </extensions>
      </trkpt>
      <trkpt lat="45.33305031247437000274658203125" lon="-70.97150878049433231353759765625">
        <ele>839.79998779296875</ele>
        <time>2026-08-21T18:25:01.000Z</time>
        <extensions>
          <ns3:TrackPointExtension>
            <ns3:hr>116</ns3:hr>
            <ns3:cad>60</ns3:cad>
          </ns3:TrackPointExtension>
        </extensions>
      </trkpt>
      <trkpt lat="45.33306422643363475799560546875" lon="-70.97150626592338085174560546875">
        <ele>839.79998779296875</ele>
        <time>2026-08-21T18:25:02.000Z</time>
        <extensions>
          <ns3:TrackPointExtension>
            <ns3:hr>117</ns3:hr>
            <ns3:cad>60</ns3:cad>
          </ns3:TrackPointExtension>
        </extensions>
      </trkpt>
      <trkpt lat="45.33307445235550403594970703125" lon="-70.97149469889700412750244140625">
        <ele>839.79998779296875</ele>
        <time>2026-08-21T18:25:03.000Z</time>
        <extensions>
          <ns3:TrackPointExtension>
            <ns3:hr>117</ns3:hr>
            <ns3:cad>60</ns3:cad>
          </ns3:TrackPointExtension>
        </extensions>
      </trkpt>
      <trkpt lat="45.33308266662061214447021484375" lon="-70.97148723900318145751953125">
        <ele>839.79998779296875</ele>
        <time>2026-08-21T18:25:04.000Z</time>
        <extensions>
          <ns3:TrackPointExtension>
            <ns3:hr>117</ns3:hr>
            <ns3:cad>54</ns3:cad>
          </ns3:TrackPointExtension>
        </extensions>
      </trkpt>
      <trkpt lat="45.33309238962829113006591796875" lon="-70.97147910855710506439208984375">
        <ele>839.79998779296875</ele>
        <time>2026-08-21T18:25:05.000Z</time>
        <extensions>
          <ns3:TrackPointExtension>
            <ns3:hr>118</ns3:hr>
            <ns3:cad>53</ns3:cad>
          </ns3:TrackPointExtension>
        </extensions>
      </trkpt>
      <trkpt lat="45.33310228027403354644775390625" lon="-70.9714744985103607177734375">
        <ele>839.5999755859375</ele>
        <time>2026-08-21T18:25:06.000Z</time>
        <extensions>
          <ns3:TrackPointExtension>
            <ns3:hr>118</ns3:hr>
            <ns3:cad>53</ns3:cad>
          </ns3:TrackPointExtension>
        </extensions>
      </trkpt>
      <trkpt lat="45.33311418257653713226318359375" lon="-70.9714776836335659027099609375">
        <ele>839.5999755859375</ele>
        <time>2026-08-21T18:25:07.000Z</time>
        <extensions>
          <ns3:TrackPointExtension>
            <ns3:hr>118</ns3:hr>
            <ns3:cad>53</ns3:cad>
          </ns3:TrackPointExtension>
        </extensions>
      </trkpt>
      <trkpt lat="45.33312357030808925628662109375" lon="-70.97147776745259761810302734375">
        <ele>839.4000244140625</ele>
        <time>2026-08-21T18:25:08.000Z</time>
        <extensions>
          <ns3:TrackPointExtension>
            <ns3:hr>119</ns3:hr>
            <ns3:cad>53</ns3:cad>
          </ns3:TrackPointExtension>
        </extensions>
      </trkpt>
      <trkpt lat="45.333135388791561126708984375" lon="-70.9714773483574390411376953125">
        <ele>839.20001220703125</ele>
        <time>2026-08-21T18:25:09.000Z</time>
        <extensions>
          <ns3:TrackPointExtension>
            <ns3:hr>119</ns3:hr>
            <ns3:cad>55</ns3:cad>
          </ns3:TrackPointExtension>
        </extensions>
      </trkpt>
      <trkpt lat="45.33314737491309642791748046875" lon="-70.9714833833277225494384765625">
        <ele>839</ele>
        <time>2026-08-21T18:25:10.000Z</time>
        <extensions>
          <ns3:TrackPointExtension>
            <ns3:hr>119</ns3:hr>
            <ns3:cad>55</ns3:cad>
          </ns3:TrackPointExtension>
        </extensions>
      </trkpt>
      <trkpt lat="45.33316179178655147552490234375" lon="-70.971482209861278533935546875">
        <ele>838.79998779296875</ele>
        <time>2026-08-21T18:25:11.000Z</time>
        <extensions>
          <ns3:TrackPointExtension>
            <ns3:hr>119</ns3:hr>
            <ns3:cad>55</ns3:cad>
          </ns3:TrackPointExtension>
        </extensions>
      </trkpt>
      <trkpt lat="45.333176963031291961669921875" lon="-70.97147827036678791046142578125">
        <ele>838.5999755859375</ele>
        <time>2026-08-21T18:25:12.000Z</time>
        <extensions>
          <ns3:TrackPointExtension>
            <ns3:hr>120</ns3:hr>
            <ns3:cad>59</ns3:cad>
          </ns3:TrackPointExtension>
        </extensions>
      </trkpt>
      <trkpt lat="45.33319045789539813995361328125" lon="-70.971476174890995025634765625">
        <ele>838.4000244140625</ele>
        <time>2026-08-21T18:25:13.000Z</time>
        <extensions>
          <ns3:TrackPointExtension>
            <ns3:hr>120</ns3:hr>
            <ns3:cad>59</ns3:cad>
          </ns3:TrackPointExtension>
        </extensions>
      </trkpt>
      <trkpt lat="45.33320521004498004913330078125" lon="-70.971475504338741302490234375">
        <ele>838.20001220703125</ele>
        <time>2026-08-21T18:25:14.000Z</time>
        <extensions>
          <ns3:TrackPointExtension>
            <ns3:hr>120</ns3:hr>
            <ns3:cad>59</ns3:cad>
          </ns3:TrackPointExtension>
        </extensions>
      </trkpt>
      <trkpt lat="45.33322297967970371246337890625" lon="-70.971476174890995025634765625">
        <ele>838</ele>
        <time>2026-08-21T18:25:15.000Z</time>
        <extensions>
          <ns3:TrackPointExtension>
            <ns3:hr>119</ns3:hr>
            <ns3:cad>60</ns3:cad>
          </ns3:TrackPointExtension>
        </extensions>
      </trkpt>
      <trkpt lat="45.33323957584798336029052734375" lon="-70.97148078493773937225341796875">
        <ele>837.79998779296875</ele>
        <time>2026-08-21T18:25:16.000Z</time>
        <extensions>
          <ns3:TrackPointExtension>
            <ns3:hr>120</ns3:hr>
            <ns3:cad>60</ns3:cad>
          </ns3:TrackPointExtension>
        </extensions>
      </trkpt>
      <trkpt lat="45.33325533382594585418701171875" lon="-70.971489250659942626953125">
        <ele>837.79998779296875</ele>
        <time>2026-08-21T18:25:17.000Z</time>
        <extensions>
          <ns3:TrackPointExtension>
            <ns3:hr>120</ns3:hr>
            <ns3:cad>60</ns3:cad>
          </ns3:TrackPointExtension>
        </extensions>
      </trkpt>
      <trkpt lat="45.3332743607461452484130859375" lon="-70.97149704582989215850830078125">
        <ele>837.5999755859375</ele>
        <time>2026-08-21T18:25:18.000Z</time>
        <extensions>
          <ns3:TrackPointExtension>
            <ns3:hr>119</ns3:hr>
            <ns3:cad>60</ns3:cad>
          </ns3:TrackPointExtension>
        </extensions>
      </trkpt>
      <trkpt lat="45.33328659832477569580078125" lon="-70.9715001471340656280517578125">
        <ele>837.4000244140625</ele>
        <time>2026-08-21T18:25:19.000Z</time>
        <extensions>
          <ns3:TrackPointExtension>
            <ns3:hr>118</ns3:hr>
            <ns3:cad>60</ns3:cad>
          </ns3:TrackPointExtension>
        </extensions>
      </trkpt>
      <trkpt lat="45.33330244012176990509033203125" lon="-70.97150995396077632904052734375">
        <ele>837.20001220703125</ele>
        <time>2026-08-21T18:25:20.000Z</time>
        <extensions>
          <ns3:TrackPointExtension>
            <ns3:hr>117</ns3:hr>
            <ns3:cad>60</ns3:cad>
          </ns3:TrackPointExtension>
        </extensions>
      </trkpt>
      <trkpt lat="45.33331383951008319854736328125" lon="-70.97151598893105983734130859375">
        <ele>837</ele>
        <time>2026-08-21T18:25:21.000Z</time>
        <extensions>
          <ns3:TrackPointExtension>
            <ns3:hr>117</ns3:hr>
            <ns3:cad>60</ns3:cad>
          </ns3:TrackPointExtension>
        </extensions>
      </trkpt>
      <trkpt lat="45.33333546482026576995849609375" lon="-70.97151649184525012969970703125">
        <ele>836.5999755859375</ele>
        <time>2026-08-21T18:25:22.000Z</time>
        <extensions>
          <ns3:TrackPointExtension>
            <ns3:hr>116</ns3:hr>
            <ns3:cad>60</ns3:cad>
          </ns3:TrackPointExtension>
        </extensions>
      </trkpt>
      <trkpt lat="45.33335407264530658721923828125" lon="-70.9715091995894908905029296875">
        <ele>836.20001220703125</ele>
        <time>2026-08-21T18:25:23.000Z</time>
        <extensions>
          <ns3:TrackPointExtension>
            <ns3:hr>116</ns3:hr>
            <ns3:cad>60</ns3:cad>
          </ns3:TrackPointExtension>
        </extensions>
      </trkpt>
      <trkpt lat="45.333370752632617950439453125" lon="-70.9714998118579387664794921875">
        <ele>836</ele>
        <time>2026-08-21T18:25:24.000Z</time>
        <extensions>
          <ns3:TrackPointExtension>
            <ns3:hr>116</ns3:hr>
            <ns3:cad>60</ns3:cad>
          </ns3:TrackPointExtension>
        </extensions>
      </trkpt>
      <trkpt lat="45.3333826549351215362548828125" lon="-70.971490256488323211669921875">
        <ele>835.79998779296875</ele>
        <time>2026-08-21T18:25:25.000Z</time>
        <extensions>
          <ns3:TrackPointExtension>
            <ns3:hr>116</ns3:hr>
            <ns3:cad>60</ns3:cad>
          </ns3:TrackPointExtension>
        </extensions>
      </trkpt>
      <trkpt lat="45.333394221961498260498046875" lon="-70.9714879095554351806640625">
        <ele>835.5999755859375</ele>
        <time>2026-08-21T18:25:26.000Z</time>
        <extensions>
          <ns3:TrackPointExtension>
            <ns3:hr>116</ns3:hr>
            <ns3:cad>60</ns3:cad>
          </ns3:TrackPointExtension>
        </extensions>
      </trkpt>
      <trkpt lat="45.33340754918754100799560546875" lon="-70.97149117849767208099365234375">
        <ele>835.5999755859375</ele>
        <time>2026-08-21T18:25:27.000Z</time>
        <extensions>
          <ns3:TrackPointExtension>
            <ns3:hr>117</ns3:hr>
            <ns3:cad>60</ns3:cad>
          </ns3:TrackPointExtension>
        </extensions>
      </trkpt>
      <trkpt lat="45.33342649228870868682861328125" lon="-70.9714927710592746734619140625">
        <ele>835.4000244140625</ele>
        <time>2026-08-21T18:25:28.000Z</time>
        <extensions>
          <ns3:TrackPointExtension>
            <ns3:hr>117</ns3:hr>
            <ns3:cad>60</ns3:cad>
          </ns3:TrackPointExtension>
        </extensions>
      </trkpt>
      <trkpt lat="45.33343973569571971893310546875" lon="-70.97149302251636981964111328125">
        <ele>835.4000244140625</ele>
        <time>2026-08-21T18:25:29.000Z</time>
        <extensions>
          <ns3:TrackPointExtension>
            <ns3:hr>117</ns3:hr>
            <ns3:cad>69</ns3:cad>
          </ns3:TrackPointExtension>
        </extensions>
      </trkpt>
      <trkpt lat="45.33345733769237995147705078125" lon="-70.97150023095309734344482421875">
        <ele>835.20001220703125</ele>
        <time>2026-08-21T18:25:30.000Z</time>
        <extensions>
          <ns3:TrackPointExtension>
            <ns3:hr>116</ns3:hr>
            <ns3:cad>69</ns3:cad>
          </ns3:TrackPointExtension>
        </extensions>
      </trkpt>
      <trkpt lat="45.3334721736609935760498046875" lon="-70.97150257788598537445068359375">
        <ele>835</ele>
        <time>2026-08-21T18:25:31.000Z</time>
        <extensions>
          <ns3:TrackPointExtension>
            <ns3:hr>116</ns3:hr>
            <ns3:cad>69</ns3:cad>
          </ns3:TrackPointExtension>
        </extensions>
      </trkpt>
      <trkpt lat="45.33347879536449909210205078125" lon="-70.971500314772129058837890625">
        <ele>834.79998779296875</ele>
        <time>2026-08-21T18:25:32.000Z</time>
        <extensions>
          <ns3:TrackPointExtension>
            <ns3:hr>116</ns3:hr>
            <ns3:cad>0</ns3:cad>
          </ns3:TrackPointExtension>
        </extensions>
      </trkpt>
      <trkpt lat="45.33349656499922275543212890625" lon="-70.97149771638214588165283203125">
        <ele>834.5999755859375</ele>
        <time>2026-08-21T18:25:33.000Z</time>
        <extensions>
          <ns3:TrackPointExtension>
            <ns3:hr>116</ns3:hr>
            <ns3:cad>0</ns3:cad>
          </ns3:TrackPointExtension>
        </extensions>
      </trkpt>
      <trkpt lat="45.33351123332977294921875" lon="-70.9714998118579387664794921875">
        <ele>834.4000244140625</ele>
        <time>2026-08-21T18:25:34.000Z</time>
        <extensions>
          <ns3:TrackPointExtension>
            <ns3:hr>116</ns3:hr>
            <ns3:cad>70</ns3:cad>
          </ns3:TrackPointExtension>
        </extensions>
      </trkpt>
      <trkpt lat="45.33352791331708431243896484375" lon="-70.97150526009500026702880859375">
        <ele>834</ele>
        <time>2026-08-21T18:25:35.000Z</time>
        <extensions>
          <ns3:TrackPointExtension>
            <ns3:hr>115</ns3:hr>
            <ns3:cad>70</ns3:cad>
          </ns3:TrackPointExtension>
        </extensions>
      </trkpt>
      <trkpt lat="45.33354409039020538330078125" lon="-70.97150601446628570556640625">
        <ele>833.79998779296875</ele>
        <time>2026-08-21T18:25:36.000Z</time>
        <extensions>
          <ns3:TrackPointExtension>
            <ns3:hr>114</ns3:hr>
            <ns3:cad>70</ns3:cad>
          </ns3:TrackPointExtension>
        </extensions>
      </trkpt>
      <trkpt lat="45.33355875872075557708740234375" lon="-70.97151012159883975982666015625">
        <ele>833.4000244140625</ele>
        <time>2026-08-21T18:25:37.000Z</time>
        <extensions>
          <ns3:TrackPointExtension>
            <ns3:hr>114</ns3:hr>
            <ns3:cad>70</ns3:cad>
          </ns3:TrackPointExtension>
        </extensions>
      </trkpt>
      <trkpt lat="45.33357351087033748626708984375" lon="-70.97152085043489933013916015625">
        <ele>833.20001220703125</ele>
        <time>2026-08-21T18:25:38.000Z</time>
        <extensions>
          <ns3:TrackPointExtension>
            <ns3:hr>114</ns3:hr>
            <ns3:cad>70</ns3:cad>
          </ns3:TrackPointExtension>
        </extensions>
      </trkpt>
      <trkpt lat="45.33359211869537830352783203125" lon="-70.9715289808809757232666015625">
        <ele>832.79998779296875</ele>
        <time>2026-08-21T18:25:39.000Z</time>
        <extensions>
          <ns3:TrackPointExtension>
            <ns3:hr>114</ns3:hr>
            <ns3:cad>0</ns3:cad>
          </ns3:TrackPointExtension>
        </extensions>
      </trkpt>
      <trkpt lat="45.33360687084496021270751953125" lon="-70.971535854041576385498046875">
        <ele>832.5999755859375</ele>
        <time>2026-08-21T18:25:40.000Z</time>
        <extensions>
          <ns3:TrackPointExtension>
            <ns3:hr>114</ns3:hr>
            <ns3:cad>0</ns3:cad>
          </ns3:TrackPointExtension>
        </extensions>
      </trkpt>
      <trkpt lat="45.33361726440489292144775390625" lon="-70.97154197283089160919189453125">
        <ele>832.5999755859375</ele>
        <time>2026-08-21T18:25:41.000Z</time>
        <extensions>
          <ns3:TrackPointExtension>
            <ns3:hr>114</ns3:hr>
            <ns3:cad>0</ns3:cad>
          </ns3:TrackPointExtension>
        </extensions>
      </trkpt>
      <trkpt lat="45.333631932735443115234375" lon="-70.97155404277145862579345703125">
        <ele>832.4000244140625</ele>
        <time>2026-08-21T18:25:42.000Z</time>
        <extensions>
          <ns3:TrackPointExtension>
            <ns3:hr>113</ns3:hr>
            <ns3:cad>0</ns3:cad>
          </ns3:TrackPointExtension>
        </extensions>
      </trkpt>
      <trkpt lat="45.33364727161824703216552734375" lon="-70.97155789844691753387451171875">
        <ele>832.20001220703125</ele>
        <time>2026-08-21T18:25:43.000Z</time>
        <extensions>
          <ns3:TrackPointExtension>
            <ns3:hr>113</ns3:hr>
            <ns3:cad>0</ns3:cad>
          </ns3:TrackPointExtension>
        </extensions>
      </trkpt>
      <trkpt lat="45.33366621471941471099853515625" lon="-70.97155429422855377197265625">
        <ele>832</ele>
        <time>2026-08-21T18:25:44.000Z</time>
        <extensions>
          <ns3:TrackPointExtension>
            <ns3:hr>113</ns3:hr>
            <ns3:cad>0</ns3:cad>
          </ns3:TrackPointExtension>
        </extensions>
      </trkpt>
      <trkpt lat="45.33368549309670925140380859375" lon="-70.97154758870601654052734375">
        <ele>831.79998779296875</ele>
        <time>2026-08-21T18:25:45.000Z</time>
        <extensions>
          <ns3:TrackPointExtension>
            <ns3:hr>113</ns3:hr>
            <ns3:cad>0</ns3:cad>
          </ns3:TrackPointExtension>
        </extensions>
      </trkpt>
      <trkpt lat="45.3336976468563079833984375" lon="-70.9715477563440799713134765625">
        <ele>831.4000244140625</ele>
        <time>2026-08-21T18:25:46.000Z</time>
        <extensions>
          <ns3:TrackPointExtension>
            <ns3:hr>113</ns3:hr>
            <ns3:cad>0</ns3:cad>
          </ns3:TrackPointExtension>
        </extensions>
      </trkpt>
      <trkpt lat="45.3337115608155727386474609375" lon="-70.97155069001019001007080078125">
        <ele>831.20001220703125</ele>
        <time>2026-08-21T18:25:47.000Z</time>
        <extensions>
          <ns3:TrackPointExtension>
            <ns3:hr>113</ns3:hr>
            <ns3:cad>0</ns3:cad>
          </ns3:TrackPointExtension>
        </extensions>
      </trkpt>
      <trkpt lat="45.3337216190993785858154296875" lon="-70.97155605442821979522705078125">
        <ele>831</ele>
        <time>2026-08-21T18:25:48.000Z</time>
        <extensions>
          <ns3:TrackPointExtension>
            <ns3:hr>114</ns3:hr>
            <ns3:cad>0</ns3:cad>
          </ns3:TrackPointExtension>
        </extensions>
      </trkpt>
      <trkpt lat="45.33373720943927764892578125" lon="-70.97156502306461334228515625">
        <ele>830.79998779296875</ele>
        <time>2026-08-21T18:25:49.000Z</time>
        <extensions>
          <ns3:TrackPointExtension>
            <ns3:hr>115</ns3:hr>
            <ns3:cad>0</ns3:cad>
          </ns3:TrackPointExtension>
        </extensions>
      </trkpt>
      <trkpt lat="45.33375271596014499664306640625" lon="-70.971577428281307220458984375">
        <ele>830.4000244140625</ele>
        <time>2026-08-21T18:25:50.000Z</time>
        <extensions>
          <ns3:TrackPointExtension>
            <ns3:hr>115</ns3:hr>
            <ns3:cad>71</ns3:cad>
          </ns3:TrackPointExtension>
        </extensions>
      </trkpt>
      <trkpt lat="45.33376361243426799774169921875" lon="-70.97158706746995449066162109375">
        <ele>830.20001220703125</ele>
        <time>2026-08-21T18:25:51.000Z</time>
        <extensions>
          <ns3:TrackPointExtension>
            <ns3:hr>115</ns3:hr>
            <ns3:cad>71</ns3:cad>
          </ns3:TrackPointExtension>
        </extensions>
      </trkpt>
      <trkpt lat="45.333778448402881622314453125" lon="-70.97159855067729949951171875">
        <ele>829.79998779296875</ele>
        <time>2026-08-21T18:25:52.000Z</time>
        <extensions>
          <ns3:TrackPointExtension>
            <ns3:hr>115</ns3:hr>
            <ns3:cad>71</ns3:cad>
          </ns3:TrackPointExtension>
        </extensions>
      </trkpt>
      <trkpt lat="45.3337926976382732391357421875" lon="-70.9716121293604373931884765625">
        <ele>829.5999755859375</ele>
        <time>2026-08-21T18:25:53.000Z</time>
        <extensions>
          <ns3:TrackPointExtension>
            <ns3:hr>116</ns3:hr>
            <ns3:cad>71</ns3:cad>
          </ns3:TrackPointExtension>
        </extensions>
      </trkpt>
      <trkpt lat="45.3338067792356014251708984375" lon="-70.97161975689232349395751953125">
        <ele>829.4000244140625</ele>
        <time>2026-08-21T18:25:54.000Z</time>
        <extensions>
          <ns3:TrackPointExtension>
            <ns3:hr>116</ns3:hr>
            <ns3:cad>71</ns3:cad>
          </ns3:TrackPointExtension>
        </extensions>
      </trkpt>
      <trkpt lat="45.33382580615580081939697265625" lon="-70.9716252051293849945068359375">
        <ele>829</ele>
        <time>2026-08-21T18:25:55.000Z</time>
        <extensions>
          <ns3:TrackPointExtension>
            <ns3:hr>116</ns3:hr>
            <ns3:cad>70</ns3:cad>
          </ns3:TrackPointExtension>
        </extensions>
      </trkpt>
      <trkpt lat="45.333845503628253936767578125" lon="-70.97162763588130474090576171875">
        <ele>828.79998779296875</ele>
        <time>2026-08-21T18:25:56.000Z</time>
        <extensions>
          <ns3:TrackPointExtension>
            <ns3:hr>116</ns3:hr>
            <ns3:cad>70</ns3:cad>
          </ns3:TrackPointExtension>
        </extensions>
      </trkpt>
      <trkpt lat="45.33386117778718471527099609375" lon="-70.971631072461605072021484375">
        <ele>828.5999755859375</ele>
        <time>2026-08-21T18:25:57.000Z</time>
        <extensions>
          <ns3:TrackPointExtension>
            <ns3:hr>116</ns3:hr>
            <ns3:cad>70</ns3:cad>
          </ns3:TrackPointExtension>
        </extensions>
      </trkpt>
      <trkpt lat="45.333876349031925201416015625" lon="-70.97163115628063678741455078125">
        <ele>828.20001220703125</ele>
        <time>2026-08-21T18:25:58.000Z</time>
        <extensions>
          <ns3:TrackPointExtension>
            <ns3:hr>115</ns3:hr>
            <ns3:cad>70</ns3:cad>
          </ns3:TrackPointExtension>
        </extensions>
      </trkpt>
      <trkpt lat="45.333895795047283172607421875" lon="-70.97162663005292415618896484375">
        <ele>828</ele>
        <time>2026-08-21T18:25:59.000Z</time>
        <extensions>
          <ns3:TrackPointExtension>
            <ns3:hr>116</ns3:hr>
            <ns3:cad>70</ns3:cad>
          </ns3:TrackPointExtension>
        </extensions>
      </trkpt>
      <trkpt lat="45.3339144028723239898681640625" lon="-70.9716205112636089324951171875">
        <ele>827.79998779296875</ele>
        <time>2026-08-21T18:26:00.000Z</time>
        <extensions>
          <ns3:TrackPointExtension>
            <ns3:hr>117</ns3:hr>
            <ns3:cad>0</ns3:cad>
          </ns3:TrackPointExtension>
        </extensions>
      </trkpt>
      <trkpt lat="45.33392362296581268310546875" lon="-70.97161774523556232452392578125">
        <ele>827.5999755859375</ele>
        <time>2026-08-21T18:26:01.000Z</time>
        <extensions>
          <ns3:TrackPointExtension>
            <ns3:hr>117</ns3:hr>
            <ns3:cad>0</ns3:cad>
          </ns3:TrackPointExtension>
        </extensions>
      </trkpt>
      <trkpt lat="45.33391851000487804412841796875" lon="-70.9716161526739597320556640625">
        <ele>827.4000244140625</ele>
        <time>2026-08-21T18:26:02.000Z</time>
        <extensions>
          <ns3:TrackPointExtension>
            <ns3:hr>118</ns3:hr>
            <ns3:cad>0</ns3:cad>
          </ns3:TrackPointExtension>
        </extensions>
      </trkpt>
      <trkpt lat="45.3339174203574657440185546875" lon="-70.971613638103008270263671875">
        <ele>827.4000244140625</ele>
        <time>2026-08-21T18:26:03.000Z</time>
        <extensions>
          <ns3:TrackPointExtension>
            <ns3:hr>118</ns3:hr>
            <ns3:cad>0</ns3:cad>
          </ns3:TrackPointExtension>
        </extensions>
      </trkpt>
      <trkpt lat="45.3339177556335926055908203125" lon="-70.97161137498915195465087890625">
        <ele>827.20001220703125</ele>
        <time>2026-08-21T18:26:04.000Z</time>
        <extensions>
          <ns3:TrackPointExtension>
            <ns3:hr>118</ns3:hr>
            <ns3:cad>0</ns3:cad>
          </ns3:TrackPointExtension>
        </extensions>
      </trkpt>
      <trkpt lat="45.33392001874744892120361328125" lon="-70.97161305136978626251220703125">
        <ele>827.20001220703125</ele>
        <time>2026-08-21T18:26:05.000Z</time>
        <extensions>
          <ns3:TrackPointExtension>
            <ns3:hr>118</ns3:hr>
            <ns3:cad>0</ns3:cad>
          </ns3:TrackPointExtension>
        </extensions>
      </trkpt>
      <trkpt lat="45.3339237906038761138916015625" lon="-70.971610955893993377685546875">
        <ele>827.20001220703125</ele>
        <time>2026-08-21T18:26:06.000Z</time>
        <extensions>
          <ns3:TrackPointExtension>
            <ns3:hr>118</ns3:hr>
            <ns3:cad>0</ns3:cad>
          </ns3:TrackPointExtension>
        </extensions>
      </trkpt>
      <trkpt lat="45.33392672426998615264892578125" lon="-70.97160668112337589263916015625">
        <ele>827.20001220703125</ele>
        <time>2026-08-21T18:26:07.000Z</time>
        <extensions>
          <ns3:TrackPointExtension>
            <ns3:hr>118</ns3:hr>
            <ns3:cad>0</ns3:cad>
          </ns3:TrackPointExtension>
        </extensions>
      </trkpt>
      <trkpt lat="45.333927311003208160400390625" lon="-70.97160718403756618499755859375">
        <ele>827.20001220703125</ele>
        <time>2026-08-21T18:26:08.000Z</time>
        <extensions>
          <ns3:TrackPointExtension>
            <ns3:hr>119</ns3:hr>
            <ns3:cad>0</ns3:cad>
          </ns3:TrackPointExtension>
        </extensions>
      </trkpt>
      <trkpt lat="45.33393845893442630767822265625" lon="-70.971607267856597900390625">
        <ele>827.20001220703125</ele>
        <time>2026-08-21T18:26:09.000Z</time>
        <extensions>
          <ns3:TrackPointExtension>
            <ns3:hr>119</ns3:hr>
            <ns3:cad>0</ns3:cad>
          </ns3:TrackPointExtension>
        </extensions>
      </trkpt>
      <trkpt lat="45.33394642174243927001953125" lon="-70.971604920923709869384765625">
        <ele>827.20001220703125</ele>
        <time>2026-08-21T18:26:10.000Z</time>
        <extensions>
          <ns3:TrackPointExtension>
            <ns3:hr>119</ns3:hr>
            <ns3:cad>0</ns3:cad>
          </ns3:TrackPointExtension>
        </extensions>
      </trkpt>
      <trkpt lat="45.33395354636013507843017578125" lon="-70.9716091118752956390380859375">
        <ele>827.20001220703125</ele>
        <time>2026-08-21T18:26:11.000Z</time>
        <extensions>
          <ns3:TrackPointExtension>
            <ns3:hr>119</ns3:hr>
            <ns3:cad>0</ns3:cad>
          </ns3:TrackPointExtension>
        </extensions>
      </trkpt>
      <trkpt lat="45.3339551389217376708984375" lon="-70.971609614789485931396484375">
        <ele>827.20001220703125</ele>
        <time>2026-08-21T18:26:12.000Z</time>
        <extensions>
          <ns3:TrackPointExtension>
            <ns3:hr>119</ns3:hr>
            <ns3:cad>0</ns3:cad>
          </ns3:TrackPointExtension>
        </extensions>
      </trkpt>
      <trkpt lat="45.33395974896848201751708984375" lon="-70.97161171026527881622314453125">
        <ele>827</ele>
        <time>2026-08-21T18:26:13.000Z</time>
        <extensions>
          <ns3:TrackPointExtension>
            <ns3:hr>118</ns3:hr>
            <ns3:cad>0</ns3:cad>
          </ns3:TrackPointExtension>
        </extensions>
      </trkpt>
      <trkpt lat="45.33395807258784770965576171875" lon="-70.97161204554140567779541015625">
        <ele>827</ele>
        <time>2026-08-21T18:26:14.000Z</time>
        <extensions>
          <ns3:TrackPointExtension>
            <ns3:hr>119</ns3:hr>
            <ns3:cad>0</ns3:cad>
          </ns3:TrackPointExtension>
        </extensions>
      </trkpt>
      <trkpt lat="45.3339539654552936553955078125" lon="-70.9716077707707881927490234375">
        <ele>827</ele>
        <time>2026-08-21T18:26:15.000Z</time>
        <extensions>
          <ns3:TrackPointExtension>
            <ns3:hr>119</ns3:hr>
            <ns3:cad>0</ns3:cad>
          </ns3:TrackPointExtension>
        </extensions>
      </trkpt>
      <trkpt lat="45.33395404927432537078857421875" lon="-70.9716074354946613311767578125">
        <ele>826.79998779296875</ele>
        <time>2026-08-21T18:26:16.000Z</time>
        <extensions>
          <ns3:TrackPointExtension>
            <ns3:hr>119</ns3:hr>
            <ns3:cad>0</ns3:cad>
          </ns3:TrackPointExtension>
        </extensions>
      </trkpt>
      <trkpt lat="45.33395404927432537078857421875" lon="-70.9716074354946613311767578125">
        <ele>826.79998779296875</ele>
        <time>2026-08-21T18:26:17.000Z</time>
        <extensions>
          <ns3:TrackPointExtension>
            <ns3:hr>119</ns3:hr>
            <ns3:cad>41</ns3:cad>
          </ns3:TrackPointExtension>
        </extensions>
      </trkpt>
      <trkpt lat="45.33395455218851566314697265625" lon="-70.97160659730434417724609375">
        <ele>826.5999755859375</ele>
        <time>2026-08-21T18:26:18.000Z</time>
        <extensions>
          <ns3:TrackPointExtension>
            <ns3:hr>118</ns3:hr>
            <ns3:cad>41</ns3:cad>
          </ns3:TrackPointExtension>
        </extensions>
      </trkpt>
      <trkpt lat="45.33395589329302310943603515625" lon="-70.97160450182855129241943359375">
        <ele>826.5999755859375</ele>
        <time>2026-08-21T18:26:19.000Z</time>
        <extensions>
          <ns3:TrackPointExtension>
            <ns3:hr>118</ns3:hr>
            <ns3:cad>41</ns3:cad>
          </ns3:TrackPointExtension>
        </extensions>
      </trkpt>
      <trkpt lat="45.33395756967365741729736328125" lon="-70.9716057591140270233154296875">
        <ele>826.5999755859375</ele>
        <time>2026-08-21T18:26:20.000Z</time>
        <extensions>
          <ns3:TrackPointExtension>
            <ns3:hr>118</ns3:hr>
            <ns3:cad>0</ns3:cad>
          </ns3:TrackPointExtension>
        </extensions>
      </trkpt>
      <trkpt lat="45.3339553065598011016845703125" lon="-70.97160198725759983062744140625">
        <ele>826.4000244140625</ele>
        <time>2026-08-21T18:26:21.000Z</time>
        <extensions>
          <ns3:TrackPointExtension>
            <ns3:hr>117</ns3:hr>
            <ns3:cad>0</ns3:cad>
          </ns3:TrackPointExtension>
        </extensions>
      </trkpt>
      <trkpt lat="45.33395404927432537078857421875" lon="-70.9716074354946613311767578125">
        <ele>826.4000244140625</ele>
        <time>2026-08-21T18:26:22.000Z</time>
        <extensions>
          <ns3:TrackPointExtension>
            <ns3:hr>117</ns3:hr>
            <ns3:cad>0</ns3:cad>
          </ns3:TrackPointExtension>
        </extensions>
      </trkpt>
      <trkpt lat="45.33395404927432537078857421875" lon="-70.9716074354946613311767578125">
        <ele>826.4000244140625</ele>
        <time>2026-08-21T18:26:23.000Z</time>
        <extensions>
          <ns3:TrackPointExtension>
            <ns3:hr>117</ns3:hr>
            <ns3:cad>0</ns3:cad>
          </ns3:TrackPointExtension>
        </extensions>
      </trkpt>
      <trkpt lat="45.33395404927432537078857421875" lon="-70.9716074354946613311767578125">
        <ele>826.4000244140625</ele>
        <time>2026-08-21T18:26:24.000Z</time>
        <extensions>
          <ns3:TrackPointExtension>
            <ns3:hr>117</ns3:hr>
            <ns3:cad>0</ns3:cad>
          </ns3:TrackPointExtension>
        </extensions>
      </trkpt>
      <trkpt lat="45.33395404927432537078857421875" lon="-70.9716074354946613311767578125">
        <ele>826.5999755859375</ele>
        <time>2026-08-21T18:26:25.000Z</time>
        <extensions>
          <ns3:TrackPointExtension>
            <ns3:hr>117</ns3:hr>
            <ns3:cad>0</ns3:cad>
          </ns3:TrackPointExtension>
        </extensions>
      </trkpt>
      <trkpt lat="45.33395404927432537078857421875" lon="-70.9716074354946613311767578125">
        <ele>826.5999755859375</ele>
        <time>2026-08-21T18:26:26.000Z</time>
        <extensions>
          <ns3:TrackPointExtension>
            <ns3:hr>117</ns3:hr>
            <ns3:cad>0</ns3:cad>
          </ns3:TrackPointExtension>
        </extensions>
      </trkpt>
      <trkpt lat="45.3339564800262451171875" lon="-70.9715993888676166534423828125">
        <ele>826.79998779296875</ele>
        <time>2026-08-21T18:26:27.000Z</time>
        <extensions>
          <ns3:TrackPointExtension>
            <ns3:hr>117</ns3:hr>
            <ns3:cad>0</ns3:cad>
          </ns3:TrackPointExtension>
        </extensions>
      </trkpt>
      <trkpt lat="45.33396326936781406402587890625" lon="-70.97159863449633121490478515625">
        <ele>827</ele>
        <time>2026-08-21T18:26:28.000Z</time>
        <extensions>
          <ns3:TrackPointExtension>
            <ns3:hr>117</ns3:hr>
            <ns3:cad>0</ns3:cad>
          </ns3:TrackPointExtension>
        </extensions>
      </trkpt>
      <trkpt lat="45.33397181890904903411865234375" lon="-70.97159863449633121490478515625">
        <ele>827</ele>
        <time>2026-08-21T18:26:29.000Z</time>
        <extensions>
          <ns3:TrackPointExtension>
            <ns3:hr>117</ns3:hr>
            <ns3:cad>0</ns3:cad>
          </ns3:TrackPointExtension>
        </extensions>
      </trkpt>
      <trkpt lat="45.33398330211639404296875" lon="-70.97160098142921924591064453125">
        <ele>826.79998779296875</ele>
        <time>2026-08-21T18:26:30.000Z</time>
        <extensions>
          <ns3:TrackPointExtension>
            <ns3:hr>116</ns3:hr>
            <ns3:cad>0</ns3:cad>
          </ns3:TrackPointExtension>
        </extensions>
      </trkpt>
      <trkpt lat="45.3339901752769947052001953125" lon="-70.97160617820918560028076171875">
        <ele>826.5999755859375</ele>
        <time>2026-08-21T18:26:31.000Z</time>
        <extensions>
          <ns3:TrackPointExtension>
            <ns3:hr>116</ns3:hr>
            <ns3:cad>0</ns3:cad>
          </ns3:TrackPointExtension>
        </extensions>
      </trkpt>
      <trkpt lat="45.3339992277324199676513671875" lon="-70.971611626446247100830078125">
        <ele>826.4000244140625</ele>
        <time>2026-08-21T18:26:32.000Z</time>
        <extensions>
          <ns3:TrackPointExtension>
            <ns3:hr>115</ns3:hr>
            <ns3:cad>61</ns3:cad>
          </ns3:TrackPointExtension>
        </extensions>
      </trkpt>
      <trkpt lat="45.33400853164494037628173828125" lon="-70.9716151468455791473388671875">
        <ele>826</ele>
        <time>2026-08-21T18:26:33.000Z</time>
        <extensions>
          <ns3:TrackPointExtension>
            <ns3:hr>113</ns3:hr>
            <ns3:cad>61</ns3:cad>
          </ns3:TrackPointExtension>
        </extensions>
      </trkpt>
      <trkpt lat="45.3340156562626361846923828125" lon="-70.97161405719816684722900390625">
        <ele>825.79998779296875</ele>
        <time>2026-08-21T18:26:34.000Z</time>
        <extensions>
          <ns3:TrackPointExtension>
            <ns3:hr>113</ns3:hr>
            <ns3:cad>61</ns3:cad>
          </ns3:TrackPointExtension>
        </extensions>
      </trkpt>
      <trkpt lat="45.3340250439941883087158203125" lon="-70.97161338664591312408447265625">
        <ele>825.5999755859375</ele>
        <time>2026-08-21T18:26:35.000Z</time>
        <extensions>
          <ns3:TrackPointExtension>
            <ns3:hr>114</ns3:hr>
            <ns3:cad>61</ns3:cad>
          </ns3:TrackPointExtension>
        </extensions>
      </trkpt>
      <trkpt lat="45.3340361081063747406005859375" lon="-70.9716158173978328704833984375">
        <ele>825.4000244140625</ele>
        <time>2026-08-21T18:26:36.000Z</time>
        <extensions>
          <ns3:TrackPointExtension>
            <ns3:hr>114</ns3:hr>
            <ns3:cad>61</ns3:cad>
          </ns3:TrackPointExtension>
        </extensions>
      </trkpt>
      <trkpt lat="45.33404289744794368743896484375" lon="-70.9716225229203701019287109375">
        <ele>825.4000244140625</ele>
        <time>2026-08-21T18:26:37.000Z</time>
        <extensions>
          <ns3:TrackPointExtension>
            <ns3:hr>114</ns3:hr>
            <ns3:cad>61</ns3:cad>
          </ns3:TrackPointExtension>
        </extensions>
      </trkpt>
      <trkpt lat="45.33404977060854434967041015625" lon="-70.97162713296711444854736328125">
        <ele>825.20001220703125</ele>
        <time>2026-08-21T18:26:38.000Z</time>
        <extensions>
          <ns3:TrackPointExtension>
            <ns3:hr>113</ns3:hr>
            <ns3:cad>61</ns3:cad>
          </ns3:TrackPointExtension>
        </extensions>
      </trkpt>
      <trkpt lat="45.3340575657784938812255859375" lon="-70.9716329164803028106689453125">
        <ele>825</ele>
        <time>2026-08-21T18:26:39.000Z</time>
        <extensions>
          <ns3:TrackPointExtension>
            <ns3:hr>112</ns3:hr>
            <ns3:cad>61</ns3:cad>
          </ns3:TrackPointExtension>
        </extensions>
      </trkpt>
      <trkpt lat="45.33406309783458709716796875" lon="-70.9716386161744594573974609375">
        <ele>825</ele>
        <time>2026-08-21T18:26:40.000Z</time>
        <extensions>
          <ns3:TrackPointExtension>
            <ns3:hr>111</ns3:hr>
            <ns3:cad>61</ns3:cad>
          </ns3:TrackPointExtension>
        </extensions>
      </trkpt>
      <trkpt lat="45.33407407812774181365966796875" lon="-70.97164037637412548065185546875">
        <ele>824.79998779296875</ele>
        <time>2026-08-21T18:26:41.000Z</time>
        <extensions>
          <ns3:TrackPointExtension>
            <ns3:hr>111</ns3:hr>
            <ns3:cad>61</ns3:cad>
          </ns3:TrackPointExtension>
        </extensions>
      </trkpt>
      <trkpt lat="45.334086902439594268798828125" lon="-70.971647836267948150634765625">
        <ele>824.79998779296875</ele>
        <time>2026-08-21T18:26:42.000Z</time>
        <extensions>
          <ns3:TrackPointExtension>
            <ns3:hr>111</ns3:hr>
            <ns3:cad>61</ns3:cad>
          </ns3:TrackPointExtension>
        </extensions>
      </trkpt>
      <trkpt lat="45.33410324715077877044677734375" lon="-70.971655882894992828369140625">
        <ele>824.5999755859375</ele>
        <time>2026-08-21T18:26:43.000Z</time>
        <extensions>
          <ns3:TrackPointExtension>
            <ns3:hr>111</ns3:hr>
            <ns3:cad>61</ns3:cad>
          </ns3:TrackPointExtension>
        </extensions>
      </trkpt>
      <trkpt lat="45.3341205976903438568115234375" lon="-70.971661917865276336669921875">
        <ele>824.4000244140625</ele>
        <time>2026-08-21T18:26:44.000Z</time>
        <extensions>
          <ns3:TrackPointExtension>
            <ns3:hr>110</ns3:hr>
            <ns3:cad>61</ns3:cad>
          </ns3:TrackPointExtension>
        </extensions>
      </trkpt>
      <trkpt lat="45.33413711003959178924560546875" lon="-70.97166568972170352935791015625">
        <ele>824</ele>
        <time>2026-08-21T18:26:45.000Z</time>
        <extensions>
          <ns3:TrackPointExtension>
            <ns3:hr>109</ns3:hr>
            <ns3:cad>61</ns3:cad>
          </ns3:TrackPointExtension>
        </extensions>
      </trkpt>
      <trkpt lat="45.334153957664966583251953125" lon="-70.9716718085110187530517578125">
        <ele>823.79998779296875</ele>
        <time>2026-08-21T18:26:46.000Z</time>
        <extensions>
          <ns3:TrackPointExtension>
            <ns3:hr>109</ns3:hr>
            <ns3:cad>61</ns3:cad>
          </ns3:TrackPointExtension>
        </extensions>
      </trkpt>
      <trkpt lat="45.334169380366802215576171875" lon="-70.971675328910350799560546875">
        <ele>823.4000244140625</ele>
        <time>2026-08-21T18:26:47.000Z</time>
        <extensions>
          <ns3:TrackPointExtension>
            <ns3:hr>108</ns3:hr>
            <ns3:cad>61</ns3:cad>
          </ns3:TrackPointExtension>
        </extensions>
      </trkpt>
      <trkpt lat="45.33418270759284496307373046875" lon="-70.9716788493096828460693359375">
        <ele>823.20001220703125</ele>
        <time>2026-08-21T18:26:48.000Z</time>
        <extensions>
          <ns3:TrackPointExtension>
            <ns3:hr>107</ns3:hr>
            <ns3:cad>61</ns3:cad>
          </ns3:TrackPointExtension>
        </extensions>
      </trkpt>
      <trkpt lat="45.33420114777982234954833984375" lon="-70.97166962921619415283203125">
        <ele>822.79998779296875</ele>
        <time>2026-08-21T18:26:49.000Z</time>
        <extensions>
          <ns3:TrackPointExtension>
            <ns3:hr>107</ns3:hr>
            <ns3:cad>61</ns3:cad>
          </ns3:TrackPointExtension>
        </extensions>
      </trkpt>
      <trkpt lat="45.33421539701521396636962890625" lon="-70.971663258969783782958984375">
        <ele>822.79998779296875</ele>
        <time>2026-08-21T18:26:50.000Z</time>
        <extensions>
          <ns3:TrackPointExtension>
            <ns3:hr>107</ns3:hr>
            <ns3:cad>69</ns3:cad>
          </ns3:TrackPointExtension>
        </extensions>
      </trkpt>
      <trkpt lat="45.33423048444092273712158203125" lon="-70.97165999002754688262939453125">
        <ele>822.5999755859375</ele>
        <time>2026-08-21T18:26:51.000Z</time>
        <extensions>
          <ns3:TrackPointExtension>
            <ns3:hr>108</ns3:hr>
            <ns3:cad>69</ns3:cad>
          </ns3:TrackPointExtension>
        </extensions>
      </trkpt>
      <trkpt lat="45.33424557186663150787353515625" lon="-70.9716557152569293975830078125">
        <ele>822.4000244140625</ele>
        <time>2026-08-21T18:26:52.000Z</time>
        <extensions>
          <ns3:TrackPointExtension>
            <ns3:hr>109</ns3:hr>
            <ns3:cad>69</ns3:cad>
          </ns3:TrackPointExtension>
        </extensions>
      </trkpt>
      <trkpt lat="45.33426283858716487884521484375" lon="-70.971649847924709320068359375">
        <ele>822.20001220703125</ele>
        <time>2026-08-21T18:26:53.000Z</time>
        <extensions>
          <ns3:TrackPointExtension>
            <ns3:hr>110</ns3:hr>
            <ns3:cad>69</ns3:cad>
          </ns3:TrackPointExtension>
        </extensions>
      </trkpt>
      <trkpt lat="45.33428278751671314239501953125" lon="-70.97164289094507694244384765625">
        <ele>822.20001220703125</ele>
        <time>2026-08-21T18:26:54.000Z</time>
        <extensions>
          <ns3:TrackPointExtension>
            <ns3:hr>111</ns3:hr>
            <ns3:cad>69</ns3:cad>
          </ns3:TrackPointExtension>
        </extensions>
      </trkpt>
      <trkpt lat="45.33429837785661220550537109375" lon="-70.97163953818380832672119140625">
        <ele>822</ele>
        <time>2026-08-21T18:26:55.000Z</time>
        <extensions>
          <ns3:TrackPointExtension>
            <ns3:hr>112</ns3:hr>
            <ns3:cad>69</ns3:cad>
          </ns3:TrackPointExtension>
        </extensions>
      </trkpt>
      <trkpt lat="45.33431111834943294525146484375" lon="-70.97163903526961803436279296875">
        <ele>821.79998779296875</ele>
        <time>2026-08-21T18:26:56.000Z</time>
        <extensions>
          <ns3:TrackPointExtension>
            <ns3:hr>112</ns3:hr>
            <ns3:cad>69</ns3:cad>
          </ns3:TrackPointExtension>
        </extensions>
      </trkpt>
      <trkpt lat="45.33432268537580966949462890625" lon="-70.9716500155627727508544921875">
        <ele>821.4000244140625</ele>
        <time>2026-08-21T18:26:57.000Z</time>
        <extensions>
          <ns3:TrackPointExtension>
            <ns3:hr>112</ns3:hr>
            <ns3:cad>69</ns3:cad>
          </ns3:TrackPointExtension>
        </extensions>
      </trkpt>
      <trkpt lat="45.33433442004024982452392578125" lon="-70.9716570563614368438720703125">
        <ele>821.20001220703125</ele>
        <time>2026-08-21T18:26:58.000Z</time>
        <extensions>
          <ns3:TrackPointExtension>
            <ns3:hr>113</ns3:hr>
            <ns3:cad>69</ns3:cad>
          </ns3:TrackPointExtension>
        </extensions>
      </trkpt>
      <trkpt lat="45.33434900455176830291748046875" lon="-70.97165931947529315948486328125">
        <ele>821.20001220703125</ele>
        <time>2026-08-21T18:26:59.000Z</time>
        <extensions>
          <ns3:TrackPointExtension>
            <ns3:hr>113</ns3:hr>
            <ns3:cad>69</ns3:cad>
          </ns3:TrackPointExtension>
        </extensions>
      </trkpt>
      <trkpt lat="45.33436216413974761962890625" lon="-70.97165219485759735107421875">
        <ele>821</ele>
        <time>2026-08-21T18:27:00.000Z</time>
        <extensions>
          <ns3:TrackPointExtension>
            <ns3:hr>113</ns3:hr>
            <ns3:cad>62</ns3:cad>
          </ns3:TrackPointExtension>
        </extensions>
      </trkpt>
      <trkpt lat="45.33437347970902919769287109375" lon="-70.97164842300117015838623046875">
        <ele>820.79998779296875</ele>
        <time>2026-08-21T18:27:01.000Z</time>
        <extensions>
          <ns3:TrackPointExtension>
            <ns3:hr>113</ns3:hr>
            <ns3:cad>58</ns3:cad>
          </ns3:TrackPointExtension>
        </extensions>
      </trkpt>
      <trkpt lat="45.334386639297008514404296875" lon="-70.9716530330479145050048828125">
        <ele>820.5999755859375</ele>
        <time>2026-08-21T18:27:02.000Z</time>
        <extensions>
          <ns3:TrackPointExtension>
            <ns3:hr>113</ns3:hr>
            <ns3:cad>58</ns3:cad>
          </ns3:TrackPointExtension>
        </extensions>
      </trkpt>
      <trkpt lat="45.3344002179801464080810546875" lon="-70.97165797837078571319580078125">
        <ele>820.4000244140625</ele>
        <time>2026-08-21T18:27:03.000Z</time>
        <extensions>
          <ns3:TrackPointExtension>
            <ns3:hr>114</ns3:hr>
            <ns3:cad>64</ns3:cad>
          </ns3:TrackPointExtension>
        </extensions>
      </trkpt>
      <trkpt lat="45.33441404812037944793701171875" lon="-70.9716624207794666290283203125">
        <ele>820</ele>
        <time>2026-08-21T18:27:04.000Z</time>
        <extensions>
          <ns3:TrackPointExtension>
            <ns3:hr>114</ns3:hr>
            <ns3:cad>64</ns3:cad>
          </ns3:TrackPointExtension>
        </extensions>
      </trkpt>
      <trkpt lat="45.3344303928315639495849609375" lon="-70.97166535444557666778564453125">
        <ele>819.79998779296875</ele>
        <time>2026-08-21T18:27:05.000Z</time>
        <extensions>
          <ns3:TrackPointExtension>
            <ns3:hr>114</ns3:hr>
            <ns3:cad>64</ns3:cad>
          </ns3:TrackPointExtension>
        </extensions>
      </trkpt>
      <trkpt lat="45.33444288186728954315185546875" lon="-70.97166694700717926025390625">
        <ele>819.4000244140625</ele>
        <time>2026-08-21T18:27:06.000Z</time>
        <extensions>
          <ns3:TrackPointExtension>
            <ns3:hr>114</ns3:hr>
            <ns3:cad>69</ns3:cad>
          </ns3:TrackPointExtension>
        </extensions>
      </trkpt>
      <trkpt lat="45.3344585560262203216552734375" lon="-70.97166904248297214508056640625">
        <ele>819.20001220703125</ele>
        <time>2026-08-21T18:27:07.000Z</time>
        <extensions>
          <ns3:TrackPointExtension>
            <ns3:hr>114</ns3:hr>
            <ns3:cad>69</ns3:cad>
          </ns3:TrackPointExtension>
        </extensions>
      </trkpt>
      <trkpt lat="45.33447573892772197723388671875" lon="-70.97167122177779674530029296875">
        <ele>819</ele>
        <time>2026-08-21T18:27:08.000Z</time>
        <extensions>
          <ns3:TrackPointExtension>
            <ns3:hr>113</ns3:hr>
            <ns3:cad>68</ns3:cad>
          </ns3:TrackPointExtension>
        </extensions>
      </trkpt>
      <trkpt lat="45.33449132926762104034423828125" lon="-70.971666611731052398681640625">
        <ele>818.79998779296875</ele>
        <time>2026-08-21T18:27:09.000Z</time>
        <extensions>
          <ns3:TrackPointExtension>
            <ns3:hr>113</ns3:hr>
            <ns3:cad>68</ns3:cad>
          </ns3:TrackPointExtension>
        </extensions>
      </trkpt>
      <trkpt lat="45.33450541086494922637939453125" lon="-70.97166133113205432891845703125">
        <ele>818.5999755859375</ele>
        <time>2026-08-21T18:27:10.000Z</time>
        <extensions>
          <ns3:TrackPointExtension>
            <ns3:hr>113</ns3:hr>
            <ns3:cad>67</ns3:cad>
          </ns3:TrackPointExtension>
        </extensions>
      </trkpt>
      <trkpt lat="45.33451773226261138916015625" lon="-70.971654541790485382080078125">
        <ele>818.4000244140625</ele>
        <time>2026-08-21T18:27:11.000Z</time>
        <extensions>
          <ns3:TrackPointExtension>
            <ns3:hr>112</ns3:hr>
            <ns3:cad>69</ns3:cad>
          </ns3:TrackPointExtension>
        </extensions>
      </trkpt>
      <trkpt lat="45.3345360048115253448486328125" lon="-70.97165060229599475860595703125">
        <ele>818</ele>
        <time>2026-08-21T18:27:12.000Z</time>
        <extensions>
          <ns3:TrackPointExtension>
            <ns3:hr>113</ns3:hr>
            <ns3:cad>69</ns3:cad>
          </ns3:TrackPointExtension>
        </extensions>
      </trkpt>
      <trkpt lat="45.3345537744462490081787109375" lon="-70.9716513566672801971435546875">
        <ele>817.79998779296875</ele>
        <time>2026-08-21T18:27:13.000Z</time>
        <extensions>
          <ns3:TrackPointExtension>
            <ns3:hr>113</ns3:hr>
            <ns3:cad>69</ns3:cad>
          </ns3:TrackPointExtension>
        </extensions>
      </trkpt>
      <trkpt lat="45.33457011915743350982666015625" lon="-70.97164942882955074310302734375">
        <ele>817.5999755859375</ele>
        <time>2026-08-21T18:27:14.000Z</time>
        <extensions>
          <ns3:TrackPointExtension>
            <ns3:hr>113</ns3:hr>
            <ns3:cad>69</ns3:cad>
          </ns3:TrackPointExtension>
        </extensions>
      </trkpt>
      <trkpt lat="45.33458604477345943450927734375" lon="-70.9716461598873138427734375">
        <ele>817.4000244140625</ele>
        <time>2026-08-21T18:27:15.000Z</time>
        <extensions>
          <ns3:TrackPointExtension>
            <ns3:hr>114</ns3:hr>
            <ns3:cad>0</ns3:cad>
          </ns3:TrackPointExtension>
        </extensions>
      </trkpt>
      <trkpt lat="45.334597863256931304931640625" lon="-70.97165076993405818939208984375">
        <ele>817.20001220703125</ele>
        <time>2026-08-21T18:27:16.000Z</time>
        <extensions>
          <ns3:TrackPointExtension>
            <ns3:hr>113</ns3:hr>
            <ns3:cad>0</ns3:cad>
          </ns3:TrackPointExtension>
        </extensions>
      </trkpt>
      <trkpt lat="45.33461772836744785308837890625" lon="-70.97164976410567760467529296875">
        <ele>817</ele>
        <time>2026-08-21T18:27:17.000Z</time>
        <extensions>
          <ns3:TrackPointExtension>
            <ns3:hr>114</ns3:hr>
            <ns3:cad>0</ns3:cad>
          </ns3:TrackPointExtension>
        </extensions>
      </trkpt>
      <trkpt lat="45.33463063649833202362060546875" lon="-70.97164104692637920379638671875">
        <ele>816.5999755859375</ele>
        <time>2026-08-21T18:27:18.000Z</time>
        <extensions>
          <ns3:TrackPointExtension>
            <ns3:hr>114</ns3:hr>
            <ns3:cad>0</ns3:cad>
          </ns3:TrackPointExtension>
        </extensions>
      </trkpt>
      <trkpt lat="45.33464823849499225616455078125" lon="-70.97163098864257335662841796875">
        <ele>816.20001220703125</ele>
        <time>2026-08-21T18:27:19.000Z</time>
        <extensions>
          <ns3:TrackPointExtension>
            <ns3:hr>114</ns3:hr>
            <ns3:cad>0</ns3:cad>
          </ns3:TrackPointExtension>
        </extensions>
      </trkpt>
      <trkpt lat="45.33466466702520847320556640625" lon="-70.9716285578906536102294921875">
        <ele>816</ele>
        <time>2026-08-21T18:27:20.000Z</time>
        <extensions>
          <ns3:TrackPointExtension>
            <ns3:hr>114</ns3:hr>
            <ns3:cad>0</ns3:cad>
          </ns3:TrackPointExtension>
        </extensions>
      </trkpt>
      <trkpt lat="45.3346805088222026824951171875" lon="-70.971623361110687255859375">
        <ele>815.5999755859375</ele>
        <time>2026-08-21T18:27:21.000Z</time>
        <extensions>
          <ns3:TrackPointExtension>
            <ns3:hr>114</ns3:hr>
            <ns3:cad>0</ns3:cad>
          </ns3:TrackPointExtension>
        </extensions>
      </trkpt>
      <trkpt lat="45.33469475805759429931640625" lon="-70.97160902805626392364501953125">
        <ele>815.4000244140625</ele>
        <time>2026-08-21T18:27:22.000Z</time>
        <extensions>
          <ns3:TrackPointExtension>
            <ns3:hr>115</ns3:hr>
            <ns3:cad>0</ns3:cad>
          </ns3:TrackPointExtension>
        </extensions>
      </trkpt>
      <trkpt lat="45.334705822169780731201171875" lon="-70.97158773802220821380615234375">
        <ele>815</ele>
        <time>2026-08-21T18:27:23.000Z</time>
        <extensions>
          <ns3:TrackPointExtension>
            <ns3:hr>116</ns3:hr>
            <ns3:cad>0</ns3:cad>
          </ns3:TrackPointExtension>
        </extensions>
      </trkpt>
      <trkpt lat="45.33471755683422088623046875" lon="-70.97156695090234279632568359375">
        <ele>814.79998779296875</ele>
        <time>2026-08-21T18:27:24.000Z</time>
        <extensions>
          <ns3:TrackPointExtension>
            <ns3:hr>116</ns3:hr>
            <ns3:cad>0</ns3:cad>
          </ns3:TrackPointExtension>
        </extensions>
      </trkpt>
      <trkpt lat="45.33472828567028045654296875" lon="-70.9715484268963336944580078125">
        <ele>814.4000244140625</ele>
        <time>2026-08-21T18:27:25.000Z</time>
        <extensions>
          <ns3:TrackPointExtension>
            <ns3:hr>116</ns3:hr>
            <ns3:cad>0</ns3:cad>
          </ns3:TrackPointExtension>
        </extensions>
      </trkpt>
      <trkpt lat="45.33473859541118144989013671875" lon="-70.97152939997613430023193359375">
        <ele>814.20001220703125</ele>
        <time>2026-08-21T18:27:26.000Z</time>
        <extensions>
          <ns3:TrackPointExtension>
            <ns3:hr>117</ns3:hr>
            <ns3:cad>76</ns3:cad>
          </ns3:TrackPointExtension>
        </extensions>
      </trkpt>
      <trkpt lat="45.3347539342939853668212890625" lon="-70.971511043608188629150390625">
        <ele>814</ele>
        <time>2026-08-21T18:27:27.000Z</time>
        <extensions>
          <ns3:TrackPointExtension>
            <ns3:hr>117</ns3:hr>
            <ns3:cad>76</ns3:cad>
          </ns3:TrackPointExtension>
        </extensions>
      </trkpt>
      <trkpt lat="45.33476985991001129150390625" lon="-70.97149017266929149627685546875">
        <ele>813.79998779296875</ele>
        <time>2026-08-21T18:27:28.000Z</time>
        <extensions>
          <ns3:TrackPointExtension>
            <ns3:hr>117</ns3:hr>
            <ns3:cad>76</ns3:cad>
          </ns3:TrackPointExtension>
        </extensions>
      </trkpt>
      <trkpt lat="45.33477866090834140777587890625" lon="-70.9714776836335659027099609375">
        <ele>813.5999755859375</ele>
        <time>2026-08-21T18:27:29.000Z</time>
        <extensions>
          <ns3:TrackPointExtension>
            <ns3:hr>117</ns3:hr>
            <ns3:cad>76</ns3:cad>
          </ns3:TrackPointExtension>
        </extensions>
      </trkpt>
      <trkpt lat="45.33479089848697185516357421875" lon="-70.97147324122488498687744140625">
        <ele>813.4000244140625</ele>
        <time>2026-08-21T18:27:30.000Z</time>
        <extensions>
          <ns3:TrackPointExtension>
            <ns3:hr>117</ns3:hr>
            <ns3:cad>76</ns3:cad>
          </ns3:TrackPointExtension>
        </extensions>
      </trkpt>
      <trkpt lat="45.334801040589809417724609375" lon="-70.9714825451374053955078125">
        <ele>813.4000244140625</ele>
        <time>2026-08-21T18:27:31.000Z</time>
        <extensions>
          <ns3:TrackPointExtension>
            <ns3:hr>116</ns3:hr>
            <ns3:cad>76</ns3:cad>
          </ns3:TrackPointExtension>
        </extensions>
      </trkpt>
      <trkpt lat="45.3348055668175220489501953125" lon="-70.97149520181119441986083984375">
        <ele>813.20001220703125</ele>
        <time>2026-08-21T18:27:32.000Z</time>
        <extensions>
          <ns3:TrackPointExtension>
            <ns3:hr>114</ns3:hr>
            <ns3:cad>76</ns3:cad>
          </ns3:TrackPointExtension>
        </extensions>
      </trkpt>
      <trkpt lat="45.334805734455585479736328125" lon="-70.97151598893105983734130859375">
        <ele>813.20001220703125</ele>
        <time>2026-08-21T18:27:33.000Z</time>
        <extensions>
          <ns3:TrackPointExtension>
            <ns3:hr>113</ns3:hr>
            <ns3:cad>76</ns3:cad>
          </ns3:TrackPointExtension>
        </extensions>
      </trkpt>
      <trkpt lat="45.33480967395007610321044921875" lon="-70.971533842384815216064453125">
        <ele>813</ele>
        <time>2026-08-21T18:27:34.000Z</time>
        <extensions>
          <ns3:TrackPointExtension>
            <ns3:hr>113</ns3:hr>
            <ns3:cad>76</ns3:cad>
          </ns3:TrackPointExtension>
        </extensions>
      </trkpt>
      <trkpt lat="45.33482140861451625823974609375" lon="-70.97154582850635051727294921875">
        <ele>813</ele>
        <time>2026-08-21T18:27:35.000Z</time>
        <extensions>
          <ns3:TrackPointExtension>
            <ns3:hr>112</ns3:hr>
            <ns3:cad>60</ns3:cad>
          </ns3:TrackPointExtension>
        </extensions>
      </trkpt>
      <trkpt lat="45.3348384238779544830322265625" lon="-70.971558652818202972412109375">
        <ele>813</ele>
        <time>2026-08-21T18:27:36.000Z</time>
        <extensions>
          <ns3:TrackPointExtension>
            <ns3:hr>112</ns3:hr>
            <ns3:cad>60</ns3:cad>
          </ns3:TrackPointExtension>
        </extensions>
      </trkpt>
      <trkpt lat="45.33485258929431438446044921875" lon="-70.9715641848742961883544921875">
        <ele>813</ele>
        <time>2026-08-21T18:27:37.000Z</time>
        <extensions>
          <ns3:TrackPointExtension>
            <ns3:hr>112</ns3:hr>
            <ns3:cad>60</ns3:cad>
          </ns3:TrackPointExtension>
        </extensions>
      </trkpt>
      <trkpt lat="45.33487237058579921722412109375" lon="-70.9715682081878185272216796875">
        <ele>813</ele>
        <time>2026-08-21T18:27:38.000Z</time>
        <extensions>
          <ns3:TrackPointExtension>
            <ns3:hr>111</ns3:hr>
            <ns3:cad>60</ns3:cad>
          </ns3:TrackPointExtension>
        </extensions>
      </trkpt>
      <trkpt lat="45.33489064313471317291259765625" lon="-70.97156946547329425811767578125">
        <ele>812.79998779296875</ele>
        <time>2026-08-21T18:27:39.000Z</time>
        <extensions>
          <ns3:TrackPointExtension>
            <ns3:hr>112</ns3:hr>
            <ns3:cad>60</ns3:cad>
          </ns3:TrackPointExtension>
        </extensions>
      </trkpt>
      <trkpt lat="45.33490941859781742095947265625" lon="-70.9715722315013408660888671875">
        <ele>812.79998779296875</ele>
        <time>2026-08-21T18:27:40.000Z</time>
        <extensions>
          <ns3:TrackPointExtension>
            <ns3:hr>112</ns3:hr>
            <ns3:cad>68</ns3:cad>
          </ns3:TrackPointExtension>
        </extensions>
      </trkpt>
      <trkpt lat="45.3349235840141773223876953125" lon="-70.9715702198445796966552734375">
        <ele>812.79998779296875</ele>
        <time>2026-08-21T18:27:41.000Z</time>
        <extensions>
          <ns3:TrackPointExtension>
            <ns3:hr>112</ns3:hr>
            <ns3:cad>68</ns3:cad>
          </ns3:TrackPointExtension>
        </extensions>
      </trkpt>
      <trkpt lat="45.33493506722152233123779296875" lon="-70.9715656936168670654296875">
        <ele>812.79998779296875</ele>
        <time>2026-08-21T18:27:42.000Z</time>
        <extensions>
          <ns3:TrackPointExtension>
            <ns3:hr>112</ns3:hr>
            <ns3:cad>68</ns3:cad>
          </ns3:TrackPointExtension>
        </extensions>
      </trkpt>
      <trkpt lat="45.3349494002759456634521484375" lon="-70.9715615026652812957763671875">
        <ele>812.79998779296875</ele>
        <time>2026-08-21T18:27:43.000Z</time>
        <extensions>
          <ns3:TrackPointExtension>
            <ns3:hr>113</ns3:hr>
            <ns3:cad>68</ns3:cad>
          </ns3:TrackPointExtension>
        </extensions>
      </trkpt>
      <trkpt lat="45.3349607996642589569091796875" lon="-70.97155873663723468780517578125">
        <ele>812.5999755859375</ele>
        <time>2026-08-21T18:27:44.000Z</time>
        <extensions>
          <ns3:TrackPointExtension>
            <ns3:hr>114</ns3:hr>
            <ns3:cad>68</ns3:cad>
          </ns3:TrackPointExtension>
        </extensions>
      </trkpt>
      <trkpt lat="45.3349718637764453887939453125" lon="-70.97155605442821979522705078125">
        <ele>812.5999755859375</ele>
        <time>2026-08-21T18:27:45.000Z</time>
        <extensions>
          <ns3:TrackPointExtension>
            <ns3:hr>115</ns3:hr>
            <ns3:cad>62</ns3:cad>
          </ns3:TrackPointExtension>
        </extensions>
      </trkpt>
      <trkpt lat="45.3349903039634227752685546875" lon="-70.97155136056244373321533203125">
        <ele>812.4000244140625</ele>
        <time>2026-08-21T18:27:46.000Z</time>
        <extensions>
          <ns3:TrackPointExtension>
            <ns3:hr>114</ns3:hr>
            <ns3:cad>62</ns3:cad>
          </ns3:TrackPointExtension>
        </extensions>
      </trkpt>
      <trkpt lat="45.33500530757009983062744140625" lon="-70.97154465503990650177001953125">
        <ele>812</ele>
        <time>2026-08-21T18:27:47.000Z</time>
        <extensions>
          <ns3:TrackPointExtension>
            <ns3:hr>114</ns3:hr>
            <ns3:cad>62</ns3:cad>
          </ns3:TrackPointExtension>
        </extensions>
      </trkpt>
      <trkpt lat="45.3350211493670940399169921875" lon="-70.9715427272021770477294921875">
        <ele>811.5999755859375</ele>
        <time>2026-08-21T18:27:48.000Z</time>
        <extensions>
          <ns3:TrackPointExtension>
            <ns3:hr>114</ns3:hr>
            <ns3:cad>0</ns3:cad>
          </ns3:TrackPointExtension>
        </extensions>
      </trkpt>
      <trkpt lat="45.335037410259246826171875" lon="-70.97155119292438030242919921875">
        <ele>811</ele>
        <time>2026-08-21T18:27:49.000Z</time>
        <extensions>
          <ns3:TrackPointExtension>
            <ns3:hr>113</ns3:hr>
            <ns3:cad>0</ns3:cad>
          </ns3:TrackPointExtension>
        </extensions>
      </trkpt>
      <trkpt lat="45.33504855819046497344970703125" lon="-70.9715568087995052337646484375">
        <ele>810.5999755859375</ele>
        <time>2026-08-21T18:27:50.000Z</time>
        <extensions>
          <ns3:TrackPointExtension>
            <ns3:hr>113</ns3:hr>
            <ns3:cad>0</ns3:cad>
          </ns3:TrackPointExtension>
        </extensions>
      </trkpt>
      <trkpt lat="45.3350660763680934906005859375" lon="-70.97156376577913761138916015625">
        <ele>810.20001220703125</ele>
        <time>2026-08-21T18:27:51.000Z</time>
        <extensions>
          <ns3:TrackPointExtension>
            <ns3:hr>113</ns3:hr>
            <ns3:cad>0</ns3:cad>
          </ns3:TrackPointExtension>
        </extensions>
      </trkpt>
      <trkpt lat="45.33508040942251682281494140625" lon="-70.97156359814107418060302734375">
        <ele>809.79998779296875</ele>
        <time>2026-08-21T18:27:52.000Z</time>
        <extensions>
          <ns3:TrackPointExtension>
            <ns3:hr>113</ns3:hr>
            <ns3:cad>0</ns3:cad>
          </ns3:TrackPointExtension>
        </extensions>
      </trkpt>
      <trkpt lat="45.33509499393403530120849609375" lon="-70.97156778909265995025634765625">
        <ele>809.4000244140625</ele>
        <time>2026-08-21T18:27:53.000Z</time>
        <extensions>
          <ns3:TrackPointExtension>
            <ns3:hr>113</ns3:hr>
            <ns3:cad>0</ns3:cad>
          </ns3:TrackPointExtension>
        </extensions>
      </trkpt>
      <trkpt lat="45.33511008135974407196044921875" lon="-70.9715725667774677276611328125">
        <ele>809</ele>
        <time>2026-08-21T18:27:54.000Z</time>
        <extensions>
          <ns3:TrackPointExtension>
            <ns3:hr>114</ns3:hr>
            <ns3:cad>0</ns3:cad>
          </ns3:TrackPointExtension>
        </extensions>
      </trkpt>
      <trkpt lat="45.33512583933770656585693359375" lon="-70.97157952375710010528564453125">
        <ele>808.5999755859375</ele>
        <time>2026-08-21T18:27:55.000Z</time>
        <extensions>
          <ns3:TrackPointExtension>
            <ns3:hr>114</ns3:hr>
            <ns3:cad>0</ns3:cad>
          </ns3:TrackPointExtension>
        </extensions>
      </trkpt>
      <trkpt lat="45.33513807691633701324462890625" lon="-70.97158472053706645965576171875">
        <ele>808.20001220703125</ele>
        <time>2026-08-21T18:27:56.000Z</time>
        <extensions>
          <ns3:TrackPointExtension>
            <ns3:hr>114</ns3:hr>
            <ns3:cad>0</ns3:cad>
          </ns3:TrackPointExtension>
        </extensions>
      </trkpt>
      <trkpt lat="45.33515517599880695343017578125" lon="-70.9715883247554302215576171875">
        <ele>807.79998779296875</ele>
        <time>2026-08-21T18:27:57.000Z</time>
        <extensions>
          <ns3:TrackPointExtension>
            <ns3:hr>114</ns3:hr>
            <ns3:cad>0</ns3:cad>
          </ns3:TrackPointExtension>
        </extensions>
      </trkpt>
      <trkpt lat="45.33517059870064258575439453125" lon="-70.9715893305838108062744140625">
        <ele>807.20001220703125</ele>
        <time>2026-08-21T18:27:58.000Z</time>
        <extensions>
          <ns3:TrackPointExtension>
            <ns3:hr>115</ns3:hr>
            <ns3:cad>0</ns3:cad>
          </ns3:TrackPointExtension>
        </extensions>
      </trkpt>
      <trkpt lat="45.3351861052215099334716796875" lon="-70.971596203744411468505859375">
        <ele>806.79998779296875</ele>
        <time>2026-08-21T18:27:59.000Z</time>
        <extensions>
          <ns3:TrackPointExtension>
            <ns3:hr>115</ns3:hr>
            <ns3:cad>0</ns3:cad>
          </ns3:TrackPointExtension>
        </extensions>
      </trkpt>
      <trkpt lat="45.3352010250091552734375" lon="-70.9715967066586017608642578125">
        <ele>806.4000244140625</ele>
        <time>2026-08-21T18:28:00.000Z</time>
        <extensions>
          <ns3:TrackPointExtension>
            <ns3:hr>116</ns3:hr>
            <ns3:cad>0</ns3:cad>
          </ns3:TrackPointExtension>
        </extensions>
      </trkpt>
      <trkpt lat="45.335212759673595428466796875" lon="-70.97160081379115581512451171875">
        <ele>806</ele>
        <time>2026-08-21T18:28:01.000Z</time>
        <extensions>
          <ns3:TrackPointExtension>
            <ns3:hr>116</ns3:hr>
            <ns3:cad>40</ns3:cad>
          </ns3:TrackPointExtension>
        </extensions>
      </trkpt>
      <trkpt lat="45.3352347202599048614501953125" lon="-70.971606932580471038818359375">
        <ele>805.5999755859375</ele>
        <time>2026-08-21T18:28:02.000Z</time>
        <extensions>
          <ns3:TrackPointExtension>
            <ns3:hr>116</ns3:hr>
            <ns3:cad>40</ns3:cad>
          </ns3:TrackPointExtension>
        </extensions>
      </trkpt>
      <trkpt lat="45.33524729311466217041015625" lon="-70.97160768695175647735595703125">
        <ele>805.20001220703125</ele>
        <time>2026-08-21T18:28:03.000Z</time>
        <extensions>
          <ns3:TrackPointExtension>
            <ns3:hr>116</ns3:hr>
            <ns3:cad>40</ns3:cad>
          </ns3:TrackPointExtension>
        </extensions>
      </trkpt>
      <trkpt lat="45.335271768271923065185546875" lon="-70.9716112911701202392578125">
        <ele>804.79998779296875</ele>
        <time>2026-08-21T18:28:04.000Z</time>
        <extensions>
          <ns3:TrackPointExtension>
            <ns3:hr>117</ns3:hr>
            <ns3:cad>40</ns3:cad>
          </ns3:TrackPointExtension>
        </extensions>
      </trkpt>
      <trkpt lat="45.33529196865856647491455078125" lon="-70.97160064615309238433837890625">
        <ele>804.20001220703125</ele>
        <time>2026-08-21T18:28:05.000Z</time>
        <extensions>
          <ns3:TrackPointExtension>
            <ns3:hr>117</ns3:hr>
            <ns3:cad>40</ns3:cad>
          </ns3:TrackPointExtension>
        </extensions>
      </trkpt>
      <trkpt lat="45.33530990593135356903076171875" lon="-70.97158757038414478302001953125">
        <ele>803.79998779296875</ele>
        <time>2026-08-21T18:28:06.000Z</time>
        <extensions>
          <ns3:TrackPointExtension>
            <ns3:hr>118</ns3:hr>
            <ns3:cad>40</ns3:cad>
          </ns3:TrackPointExtension>
        </extensions>
      </trkpt>
      <trkpt lat="45.33532717265188694000244140625" lon="-70.9715819545090198516845703125">
        <ele>803.4000244140625</ele>
        <time>2026-08-21T18:28:07.000Z</time>
        <extensions>
          <ns3:TrackPointExtension>
            <ns3:hr>118</ns3:hr>
            <ns3:cad>40</ns3:cad>
          </ns3:TrackPointExtension>
        </extensions>
      </trkpt>
      <trkpt lat="45.33534226007759571075439453125" lon="-70.97157776355743408203125">
        <ele>803</ele>
        <time>2026-08-21T18:28:08.000Z</time>
        <extensions>
          <ns3:TrackPointExtension>
            <ns3:hr>118</ns3:hr>
            <ns3:cad>40</ns3:cad>
          </ns3:TrackPointExtension>
        </extensions>
      </trkpt>
      <trkpt lat="45.33535726368427276611328125" lon="-70.971564352512359619140625">
        <ele>802.5999755859375</ele>
        <time>2026-08-21T18:28:09.000Z</time>
        <extensions>
          <ns3:TrackPointExtension>
            <ns3:hr>119</ns3:hr>
            <ns3:cad>40</ns3:cad>
          </ns3:TrackPointExtension>
        </extensions>
      </trkpt>
      <trkpt lat="45.3353664837777614593505859375" lon="-70.971556641161441802978515625">
        <ele>802.20001220703125</ele>
        <time>2026-08-21T18:28:10.000Z</time>
        <extensions>
          <ns3:TrackPointExtension>
            <ns3:hr>119</ns3:hr>
            <ns3:cad>40</ns3:cad>
          </ns3:TrackPointExtension>
        </extensions>
      </trkpt>
      <trkpt lat="45.335375368595123291015625" lon="-70.97155370749533176422119140625">
        <ele>802</ele>
        <time>2026-08-21T18:28:11.000Z</time>
        <extensions>
          <ns3:TrackPointExtension>
            <ns3:hr>120</ns3:hr>
            <ns3:cad>0</ns3:cad>
          </ns3:TrackPointExtension>
        </extensions>
      </trkpt>
      <trkpt lat="45.335387103259563446044921875" lon="-70.97155571915209293365478515625">
        <ele>801.5999755859375</ele>
        <time>2026-08-21T18:28:12.000Z</time>
        <extensions>
          <ns3:TrackPointExtension>
            <ns3:hr>120</ns3:hr>
            <ns3:cad>0</ns3:cad>
          </ns3:TrackPointExtension>
        </extensions>
      </trkpt>
      <trkpt lat="45.33540093339979648590087890625" lon="-70.9715571440756320953369140625">
        <ele>801.20001220703125</ele>
        <time>2026-08-21T18:28:13.000Z</time>
        <extensions>
          <ns3:TrackPointExtension>
            <ns3:hr>120</ns3:hr>
            <ns3:cad>0</ns3:cad>
          </ns3:TrackPointExtension>
        </extensions>
      </trkpt>
      <trkpt lat="45.33541618846356868743896484375" lon="-70.9715584851801395416259765625">
        <ele>800.79998779296875</ele>
        <time>2026-08-21T18:28:14.000Z</time>
        <extensions>
          <ns3:TrackPointExtension>
            <ns3:hr>121</ns3:hr>
            <ns3:cad>0</ns3:cad>
          </ns3:TrackPointExtension>
        </extensions>
      </trkpt>
      <trkpt lat="45.33542792312800884246826171875" lon="-70.97155756317079067230224609375">
        <ele>800.4000244140625</ele>
        <time>2026-08-21T18:28:15.000Z</time>
        <extensions>
          <ns3:TrackPointExtension>
            <ns3:hr>121</ns3:hr>
            <ns3:cad>0</ns3:cad>
          </ns3:TrackPointExtension>
        </extensions>
      </trkpt>
      <trkpt lat="45.335442088544368743896484375" lon="-70.9715534560382366180419921875">
        <ele>800</ele>
        <time>2026-08-21T18:28:16.000Z</time>
        <extensions>
          <ns3:TrackPointExtension>
            <ns3:hr>121</ns3:hr>
            <ns3:cad>0</ns3:cad>
          </ns3:TrackPointExtension>
        </extensions>
      </trkpt>
      <trkpt lat="45.33545591868460178375244140625" lon="-70.9715514443814754486083984375">
        <ele>799.5999755859375</ele>
        <time>2026-08-21T18:28:17.000Z</time>
        <extensions>
          <ns3:TrackPointExtension>
            <ns3:hr>121</ns3:hr>
            <ns3:cad>0</ns3:cad>
          </ns3:TrackPointExtension>
        </extensions>
      </trkpt>
      <trkpt lat="45.3354652225971221923828125" lon="-70.9715450741350650787353515625">
        <ele>799.4000244140625</ele>
        <time>2026-08-21T18:28:18.000Z</time>
        <extensions>
          <ns3:TrackPointExtension>
            <ns3:hr>121</ns3:hr>
            <ns3:cad>0</ns3:cad>
          </ns3:TrackPointExtension>
        </extensions>
      </trkpt>
      <trkpt lat="45.33547854982316493988037109375" lon="-70.97154331393539905548095703125">
        <ele>799</ele>
        <time>2026-08-21T18:28:19.000Z</time>
        <extensions>
          <ns3:TrackPointExtension>
            <ns3:hr>122</ns3:hr>
            <ns3:cad>0</ns3:cad>
          </ns3:TrackPointExtension>
        </extensions>
      </trkpt>
      <trkpt lat="45.33549606800079345703125" lon="-70.9715380333364009857177734375">
        <ele>798.5999755859375</ele>
        <time>2026-08-21T18:28:20.000Z</time>
        <extensions>
          <ns3:TrackPointExtension>
            <ns3:hr>122</ns3:hr>
            <ns3:cad>79</ns3:cad>
          </ns3:TrackPointExtension>
        </extensions>
      </trkpt>
      <trkpt lat="45.3355116583406925201416015625" lon="-70.97152906470000743865966796875">
        <ele>798.4000244140625</ele>
        <time>2026-08-21T18:28:21.000Z</time>
        <extensions>
          <ns3:TrackPointExtension>
            <ns3:hr>122</ns3:hr>
            <ns3:cad>79</ns3:cad>
          </ns3:TrackPointExtension>
        </extensions>
      </trkpt>
      <trkpt lat="45.33552917651832103729248046875" lon="-70.9715182520449161529541015625">
        <ele>798</ele>
        <time>2026-08-21T18:28:22.000Z</time>
        <extensions>
          <ns3:TrackPointExtension>
            <ns3:hr>122</ns3:hr>
            <ns3:cad>79</ns3:cad>
          </ns3:TrackPointExtension>
        </extensions>
      </trkpt>
      <trkpt lat="45.335545353591442108154296875" lon="-70.971517749130725860595703125">
        <ele>797.5999755859375</ele>
        <time>2026-08-21T18:28:23.000Z</time>
        <extensions>
          <ns3:TrackPointExtension>
            <ns3:hr>121</ns3:hr>
            <ns3:cad>79</ns3:cad>
          </ns3:TrackPointExtension>
        </extensions>
      </trkpt>
      <trkpt lat="45.33556236885488033294677734375" lon="-70.9715209342539310455322265625">
        <ele>797.20001220703125</ele>
        <time>2026-08-21T18:28:24.000Z</time>
        <extensions>
          <ns3:TrackPointExtension>
            <ns3:hr>122</ns3:hr>
            <ns3:cad>79</ns3:cad>
          </ns3:TrackPointExtension>
        </extensions>
      </trkpt>
      <trkpt lat="45.33558164723217487335205078125" lon="-70.97152336500585079193115234375">
        <ele>796.79998779296875</ele>
        <time>2026-08-21T18:28:25.000Z</time>
        <extensions>
          <ns3:TrackPointExtension>
            <ns3:hr>122</ns3:hr>
            <ns3:cad>79</ns3:cad>
          </ns3:TrackPointExtension>
        </extensions>
      </trkpt>
      <trkpt lat="45.33559723757207393646240234375" lon="-70.97152235917747020721435546875">
        <ele>796.4000244140625</ele>
        <time>2026-08-21T18:28:26.000Z</time>
        <extensions>
          <ns3:TrackPointExtension>
            <ns3:hr>121</ns3:hr>
            <ns3:cad>76</ns3:cad>
          </ns3:TrackPointExtension>
        </extensions>
      </trkpt>
      <trkpt lat="45.3356154263019561767578125" lon="-70.97151380963623523712158203125">
        <ele>796</ele>
        <time>2026-08-21T18:28:27.000Z</time>
        <extensions>
          <ns3:TrackPointExtension>
            <ns3:hr>122</ns3:hr>
            <ns3:cad>76</ns3:cad>
          </ns3:TrackPointExtension>
        </extensions>
      </trkpt>
      <trkpt lat="45.3356340341269969940185546875" lon="-70.97150844521820545196533203125">
        <ele>795.79998779296875</ele>
        <time>2026-08-21T18:28:28.000Z</time>
        <extensions>
          <ns3:TrackPointExtension>
            <ns3:hr>122</ns3:hr>
            <ns3:cad>76</ns3:cad>
          </ns3:TrackPointExtension>
        </extensions>
      </trkpt>
      <trkpt lat="45.33564819954335689544677734375" lon="-70.9715075232088565826416015625">
        <ele>795.4000244140625</ele>
        <time>2026-08-21T18:28:29.000Z</time>
        <extensions>
          <ns3:TrackPointExtension>
            <ns3:hr>122</ns3:hr>
            <ns3:cad>76</ns3:cad>
          </ns3:TrackPointExtension>
        </extensions>
      </trkpt>
      <trkpt lat="45.33566429279744625091552734375" lon="-70.971516072750091552734375">
        <ele>795</ele>
        <time>2026-08-21T18:28:30.000Z</time>
        <extensions>
          <ns3:TrackPointExtension>
            <ns3:hr>122</ns3:hr>
            <ns3:cad>77</ns3:cad>
          </ns3:TrackPointExtension>
        </extensions>
      </trkpt>
      <trkpt lat="45.3356819786131381988525390625" lon="-70.9715199284255504608154296875">
        <ele>794.5999755859375</ele>
        <time>2026-08-21T18:28:31.000Z</time>
        <extensions>
          <ns3:TrackPointExtension>
            <ns3:hr>121</ns3:hr>
            <ns3:cad>77</ns3:cad>
          </ns3:TrackPointExtension>
        </extensions>
      </trkpt>
      <trkpt lat="45.33569497056305408477783203125" lon="-70.9715227782726287841796875">
        <ele>794.20001220703125</ele>
        <time>2026-08-21T18:28:32.000Z</time>
        <extensions>
          <ns3:TrackPointExtension>
            <ns3:hr>122</ns3:hr>
            <ns3:cad>77</ns3:cad>
          </ns3:TrackPointExtension>
        </extensions>
      </trkpt>
      <trkpt lat="45.335711650550365447998046875" lon="-70.97152101807296276092529296875">
        <ele>793.79998779296875</ele>
        <time>2026-08-21T18:28:33.000Z</time>
        <extensions>
          <ns3:TrackPointExtension>
            <ns3:hr>121</ns3:hr>
            <ns3:cad>76</ns3:cad>
          </ns3:TrackPointExtension>
        </extensions>
      </trkpt>
      <trkpt lat="45.33572732470929622650146484375" lon="-70.971525125205516815185546875">
        <ele>793.4000244140625</ele>
        <time>2026-08-21T18:28:34.000Z</time>
        <extensions>
          <ns3:TrackPointExtension>
            <ns3:hr>121</ns3:hr>
            <ns3:cad>76</ns3:cad>
          </ns3:TrackPointExtension>
        </extensions>
      </trkpt>
      <trkpt lat="45.33574056811630725860595703125" lon="-70.9715309925377368927001953125">
        <ele>793</ele>
        <time>2026-08-21T18:28:35.000Z</time>
        <extensions>
          <ns3:TrackPointExtension>
            <ns3:hr>121</ns3:hr>
            <ns3:cad>76</ns3:cad>
          </ns3:TrackPointExtension>
        </extensions>
      </trkpt>
      <trkpt lat="45.335757918655872344970703125" lon="-70.971535854041576385498046875">
        <ele>792.4000244140625</ele>
        <time>2026-08-21T18:28:36.000Z</time>
        <extensions>
          <ns3:TrackPointExtension>
            <ns3:hr>120</ns3:hr>
            <ns3:cad>76</ns3:cad>
          </ns3:TrackPointExtension>
        </extensions>
      </trkpt>
      <trkpt lat="45.33577258698642253875732421875" lon="-70.97153308801352977752685546875">
        <ele>792</ele>
        <time>2026-08-21T18:28:37.000Z</time>
        <extensions>
          <ns3:TrackPointExtension>
            <ns3:hr>120</ns3:hr>
            <ns3:cad>76</ns3:cad>
          </ns3:TrackPointExtension>
        </extensions>
      </trkpt>
      <trkpt lat="45.335786752402782440185546875" lon="-70.97153727896511554718017578125">
        <ele>791.5999755859375</ele>
        <time>2026-08-21T18:28:38.000Z</time>
        <extensions>
          <ns3:TrackPointExtension>
            <ns3:hr>120</ns3:hr>
            <ns3:cad>77</ns3:cad>
          </ns3:TrackPointExtension>
        </extensions>
      </trkpt>
      <trkpt lat="45.33580393530428409576416015625" lon="-70.97154356539249420166015625">
        <ele>791.20001220703125</ele>
        <time>2026-08-21T18:28:39.000Z</time>
        <extensions>
          <ns3:TrackPointExtension>
            <ns3:hr>121</ns3:hr>
            <ns3:cad>77</ns3:cad>
          </ns3:TrackPointExtension>
        </extensions>
      </trkpt>
      <trkpt lat="45.335818938910961151123046875" lon="-70.9715480916202068328857421875">
        <ele>790.79998779296875</ele>
        <time>2026-08-21T18:28:40.000Z</time>
        <extensions>
          <ns3:TrackPointExtension>
            <ns3:hr>120</ns3:hr>
            <ns3:cad>41</ns3:cad>
          </ns3:TrackPointExtension>
        </extensions>
      </trkpt>
      <trkpt lat="45.33583461306989192962646484375" lon="-70.97154364921152591705322265625">
        <ele>790.20001220703125</ele>
        <time>2026-08-21T18:28:41.000Z</time>
        <extensions>
          <ns3:TrackPointExtension>
            <ns3:hr>120</ns3:hr>
            <ns3:cad>40</ns3:cad>
          </ns3:TrackPointExtension>
        </extensions>
      </trkpt>
      <trkpt lat="45.335849113762378692626953125" lon="-70.97153761424124240875244140625">
        <ele>789.5999755859375</ele>
        <time>2026-08-21T18:28:42.000Z</time>
        <extensions>
          <ns3:TrackPointExtension>
            <ns3:hr>120</ns3:hr>
            <ns3:cad>40</ns3:cad>
          </ns3:TrackPointExtension>
        </extensions>
      </trkpt>
      <trkpt lat="45.33586344681680202484130859375" lon="-70.97153241746127605438232421875">
        <ele>789</ele>
        <time>2026-08-21T18:28:43.000Z</time>
        <extensions>
          <ns3:TrackPointExtension>
            <ns3:hr>120</ns3:hr>
            <ns3:cad>40</ns3:cad>
          </ns3:TrackPointExtension>
        </extensions>
      </trkpt>
      <trkpt lat="45.335873924195766448974609375" lon="-70.97152520902454853057861328125">
        <ele>788.5999755859375</ele>
        <time>2026-08-21T18:28:44.000Z</time>
        <extensions>
          <ns3:TrackPointExtension>
            <ns3:hr>119</ns3:hr>
            <ns3:cad>40</ns3:cad>
          </ns3:TrackPointExtension>
        </extensions>
      </trkpt>
      <trkpt lat="45.33589211292564868927001953125" lon="-70.97151900641620159149169921875">
        <ele>788.20001220703125</ele>
        <time>2026-08-21T18:28:45.000Z</time>
        <extensions>
          <ns3:TrackPointExtension>
            <ns3:hr>120</ns3:hr>
            <ns3:cad>41</ns3:cad>
          </ns3:TrackPointExtension>
        </extensions>
      </trkpt>
      <trkpt lat="45.3359086252748966217041015625" lon="-70.97151540219783782958984375">
        <ele>787.5999755859375</ele>
        <time>2026-08-21T18:28:46.000Z</time>
        <extensions>
          <ns3:TrackPointExtension>
            <ns3:hr>120</ns3:hr>
            <ns3:cad>41</ns3:cad>
          </ns3:TrackPointExtension>
        </extensions>
      </trkpt>
      <trkpt lat="45.3359253890812397003173828125" lon="-70.971510373055934906005859375">
        <ele>787</ele>
        <time>2026-08-21T18:28:47.000Z</time>
        <extensions>
          <ns3:TrackPointExtension>
            <ns3:hr>120</ns3:hr>
            <ns3:cad>41</ns3:cad>
          </ns3:TrackPointExtension>
        </extensions>
      </trkpt>
      <trkpt lat="45.33594064414501190185546875" lon="-70.97150593064725399017333984375">
        <ele>786.5999755859375</ele>
        <time>2026-08-21T18:28:48.000Z</time>
        <extensions>
          <ns3:TrackPointExtension>
            <ns3:hr>120</ns3:hr>
            <ns3:cad>41</ns3:cad>
          </ns3:TrackPointExtension>
        </extensions>
      </trkpt>
      <trkpt lat="45.3359555639326572418212890625" lon="-70.97150643356144428253173828125">
        <ele>786.20001220703125</ele>
        <time>2026-08-21T18:28:49.000Z</time>
        <extensions>
          <ns3:TrackPointExtension>
            <ns3:hr>120</ns3:hr>
            <ns3:cad>41</ns3:cad>
          </ns3:TrackPointExtension>
        </extensions>
      </trkpt>
      <trkpt lat="45.3359662927687168121337890625" lon="-70.97150861285626888275146484375">
        <ele>785.5999755859375</ele>
        <time>2026-08-21T18:28:50.000Z</time>
        <extensions>
          <ns3:TrackPointExtension>
            <ns3:hr>120</ns3:hr>
            <ns3:cad>41</ns3:cad>
          </ns3:TrackPointExtension>
        </extensions>
      </trkpt>
      <trkpt lat="45.33598087728023529052734375" lon="-70.97151263616979122161865234375">
        <ele>785.20001220703125</ele>
        <time>2026-08-21T18:28:51.000Z</time>
        <extensions>
          <ns3:TrackPointExtension>
            <ns3:hr>121</ns3:hr>
            <ns3:cad>41</ns3:cad>
          </ns3:TrackPointExtension>
        </extensions>
      </trkpt>
      <trkpt lat="45.335997641086578369140625" lon="-70.97151213325560092926025390625">
        <ele>784.79998779296875</ele>
        <time>2026-08-21T18:28:52.000Z</time>
        <extensions>
          <ns3:TrackPointExtension>
            <ns3:hr>121</ns3:hr>
            <ns3:cad>41</ns3:cad>
          </ns3:TrackPointExtension>
        </extensions>
      </trkpt>
      <trkpt lat="45.3360145725309848785400390625" lon="-70.9715065173804759979248046875">
        <ele>784.20001220703125</ele>
        <time>2026-08-21T18:28:53.000Z</time>
        <extensions>
          <ns3:TrackPointExtension>
            <ns3:hr>122</ns3:hr>
            <ns3:cad>41</ns3:cad>
          </ns3:TrackPointExtension>
        </extensions>
      </trkpt>
      <trkpt lat="45.3360273130238056182861328125" lon="-70.9714994765818119049072265625">
        <ele>783.5999755859375</ele>
        <time>2026-08-21T18:28:54.000Z</time>
        <extensions>
          <ns3:TrackPointExtension>
            <ns3:hr>122</ns3:hr>
            <ns3:cad>41</ns3:cad>
          </ns3:TrackPointExtension>
        </extensions>
      </trkpt>
      <trkpt lat="45.3360424004495143890380859375" lon="-70.9714959561824798583984375">
        <ele>783</ele>
        <time>2026-08-21T18:28:55.000Z</time>
        <extensions>
          <ns3:TrackPointExtension>
            <ns3:hr>122</ns3:hr>
            <ns3:cad>0</ns3:cad>
          </ns3:TrackPointExtension>
        </extensions>
      </trkpt>
      <trkpt lat="45.3360564820468425750732421875" lon="-70.971499979496002197265625">
        <ele>782.5999755859375</ele>
        <time>2026-08-21T18:28:56.000Z</time>
        <extensions>
          <ns3:TrackPointExtension>
            <ns3:hr>123</ns3:hr>
            <ns3:cad>0</ns3:cad>
          </ns3:TrackPointExtension>
        </extensions>
      </trkpt>
      <trkpt lat="45.33606947399675846099853515625" lon="-70.97150274552404880523681640625">
        <ele>782.20001220703125</ele>
        <time>2026-08-21T18:28:57.000Z</time>
        <extensions>
          <ns3:TrackPointExtension>
            <ns3:hr>123</ns3:hr>
            <ns3:cad>0</ns3:cad>
          </ns3:TrackPointExtension>
        </extensions>
      </trkpt>
      <trkpt lat="45.33608280122280120849609375" lon="-70.9715045057237148284912109375">
        <ele>781.79998779296875</ele>
        <time>2026-08-21T18:28:58.000Z</time>
        <extensions>
          <ns3:TrackPointExtension>
            <ns3:hr>123</ns3:hr>
            <ns3:cad>0</ns3:cad>
          </ns3:TrackPointExtension>
        </extensions>
      </trkpt>
      <trkpt lat="45.3360967151820659637451171875" lon="-70.97150743938982486724853515625">
        <ele>781.4000244140625</ele>
        <time>2026-08-21T18:28:59.000Z</time>
        <extensions>
          <ns3:TrackPointExtension>
            <ns3:hr>123</ns3:hr>
            <ns3:cad>0</ns3:cad>
          </ns3:TrackPointExtension>
        </extensions>
      </trkpt>
      <trkpt lat="45.3361061029136180877685546875" lon="-70.97151431255042552947998046875">
        <ele>781</ele>
        <time>2026-08-21T18:29:00.000Z</time>
        <extensions>
          <ns3:TrackPointExtension>
            <ns3:hr>123</ns3:hr>
            <ns3:cad>41</ns3:cad>
          </ns3:TrackPointExtension>
        </extensions>
      </trkpt>
      <trkpt lat="45.3361118026077747344970703125" lon="-70.97152001224458217620849609375">
        <ele>780.4000244140625</ele>
        <time>2026-08-21T18:29:01.000Z</time>
        <extensions>
          <ns3:TrackPointExtension>
            <ns3:hr>124</ns3:hr>
            <ns3:cad>41</ns3:cad>
          </ns3:TrackPointExtension>
        </extensions>
      </trkpt>
      <trkpt lat="45.33611926250159740447998046875" lon="-70.97152520902454853057861328125">
        <ele>779.79998779296875</ele>
        <time>2026-08-21T18:29:02.000Z</time>
        <extensions>
          <ns3:TrackPointExtension>
            <ns3:hr>124</ns3:hr>
            <ns3:cad>41</ns3:cad>
          </ns3:TrackPointExtension>
        </extensions>
      </trkpt>
      <trkpt lat="45.3361335955560207366943359375" lon="-70.9715343452990055084228515625">
        <ele>779.20001220703125</ele>
        <time>2026-08-21T18:29:03.000Z</time>
        <extensions>
          <ns3:TrackPointExtension>
            <ns3:hr>124</ns3:hr>
            <ns3:cad>41</ns3:cad>
          </ns3:TrackPointExtension>
        </extensions>
      </trkpt>
      <trkpt lat="45.33614574931561946868896484375" lon="-70.9715330041944980621337890625">
        <ele>778.4000244140625</ele>
        <time>2026-08-21T18:29:04.000Z</time>
        <extensions>
          <ns3:TrackPointExtension>
            <ns3:hr>124</ns3:hr>
            <ns3:cad>41</ns3:cad>
          </ns3:TrackPointExtension>
        </extensions>
      </trkpt>
      <trkpt lat="45.33615932799875736236572265625" lon="-70.97153174690902233123779296875">
        <ele>777.79998779296875</ele>
        <time>2026-08-21T18:29:05.000Z</time>
        <extensions>
          <ns3:TrackPointExtension>
            <ns3:hr>123</ns3:hr>
            <ns3:cad>41</ns3:cad>
          </ns3:TrackPointExtension>
        </extensions>
      </trkpt>
      <trkpt lat="45.3361718170344829559326171875" lon="-70.9715299867093563079833984375">
        <ele>777.20001220703125</ele>
        <time>2026-08-21T18:29:06.000Z</time>
        <extensions>
          <ns3:TrackPointExtension>
            <ns3:hr>123</ns3:hr>
            <ns3:cad>41</ns3:cad>
          </ns3:TrackPointExtension>
        </extensions>
      </trkpt>
      <trkpt lat="45.33618464134633541107177734375" lon="-70.9715239517390727996826171875">
        <ele>776.5999755859375</ele>
        <time>2026-08-21T18:29:07.000Z</time>
        <extensions>
          <ns3:TrackPointExtension>
            <ns3:hr>123</ns3:hr>
            <ns3:cad>41</ns3:cad>
          </ns3:TrackPointExtension>
        </extensions>
      </trkpt>
      <trkpt lat="45.33619889058172702789306640625" lon="-70.9715162403881549835205078125">
        <ele>776.20001220703125</ele>
        <time>2026-08-21T18:29:08.000Z</time>
        <extensions>
          <ns3:TrackPointExtension>
            <ns3:hr>123</ns3:hr>
            <ns3:cad>41</ns3:cad>
          </ns3:TrackPointExtension>
        </extensions>
      </trkpt>
      <trkpt lat="45.33620710484683513641357421875" lon="-70.9715093672275543212890625">
        <ele>775.79998779296875</ele>
        <time>2026-08-21T18:29:09.000Z</time>
        <extensions>
          <ns3:TrackPointExtension>
            <ns3:hr>123</ns3:hr>
            <ns3:cad>41</ns3:cad>
          </ns3:TrackPointExtension>
        </extensions>
      </trkpt>
      <trkpt lat="45.336212217807769775390625" lon="-70.9714984707534313201904296875">
        <ele>775.5999755859375</ele>
        <time>2026-08-21T18:29:10.000Z</time>
        <extensions>
          <ns3:TrackPointExtension>
            <ns3:hr>123</ns3:hr>
            <ns3:cad>41</ns3:cad>
          </ns3:TrackPointExtension>
        </extensions>
      </trkpt>
      <trkpt lat="45.33622420392930507659912109375" lon="-70.97148514352738857269287109375">
        <ele>775.4000244140625</ele>
        <time>2026-08-21T18:29:11.000Z</time>
        <extensions>
          <ns3:TrackPointExtension>
            <ns3:hr>123</ns3:hr>
            <ns3:cad>41</ns3:cad>
          </ns3:TrackPointExtension>
        </extensions>
      </trkpt>
      <trkpt lat="45.33623828552663326263427734375" lon="-70.97147592343389987945556640625">
        <ele>775</ele>
        <time>2026-08-21T18:29:12.000Z</time>
        <extensions>
          <ns3:TrackPointExtension>
            <ns3:hr>123</ns3:hr>
            <ns3:cad>41</ns3:cad>
          </ns3:TrackPointExtension>
        </extensions>
      </trkpt>
      <trkpt lat="45.33625219948589801788330078125" lon="-70.97145999781787395477294921875">
        <ele>774.79998779296875</ele>
        <time>2026-08-21T18:29:13.000Z</time>
        <extensions>
          <ns3:TrackPointExtension>
            <ns3:hr>124</ns3:hr>
            <ns3:cad>41</ns3:cad>
          </ns3:TrackPointExtension>
        </extensions>
      </trkpt>
      <trkpt lat="45.33626259304583072662353515625" lon="-70.9714448265731334686279296875">
        <ele>774.5999755859375</ele>
        <time>2026-08-21T18:29:14.000Z</time>
        <extensions>
          <ns3:TrackPointExtension>
            <ns3:hr>124</ns3:hr>
            <ns3:cad>41</ns3:cad>
          </ns3:TrackPointExtension>
        </extensions>
      </trkpt>
      <trkpt lat="45.33628086559474468231201171875" lon="-70.97142864950001239776611328125">
        <ele>774.4000244140625</ele>
        <time>2026-08-21T18:29:15.000Z</time>
        <extensions>
          <ns3:TrackPointExtension>
            <ns3:hr>124</ns3:hr>
            <ns3:cad>41</ns3:cad>
          </ns3:TrackPointExtension>
        </extensions>
      </trkpt>
      <trkpt lat="45.33628941513597965240478515625" lon="-70.97142496146261692047119140625">
        <ele>774.20001220703125</ele>
        <time>2026-08-21T18:29:16.000Z</time>
        <extensions>
          <ns3:TrackPointExtension>
            <ns3:hr>123</ns3:hr>
            <ns3:cad>41</ns3:cad>
          </ns3:TrackPointExtension>
        </extensions>
      </trkpt>
      <trkpt lat="45.33629276789724826812744140625" lon="-70.971426554024219512939453125">
        <ele>774</ele>
        <time>2026-08-21T18:29:17.000Z</time>
        <extensions>
          <ns3:TrackPointExtension>
            <ns3:hr>123</ns3:hr>
            <ns3:cad>41</ns3:cad>
          </ns3:TrackPointExtension>
        </extensions>
      </trkpt>
      <trkpt lat="45.33629578538239002227783203125" lon="-70.9714369475841522216796875">
        <ele>774</ele>
        <time>2026-08-21T18:29:18.000Z</time>
        <extensions>
          <ns3:TrackPointExtension>
            <ns3:hr>123</ns3:hr>
            <ns3:cad>0</ns3:cad>
          </ns3:TrackPointExtension>
        </extensions>
      </trkpt>
      <trkpt lat="45.3362993896007537841796875" lon="-70.97144926898181438446044921875">
        <ele>773.79998779296875</ele>
        <time>2026-08-21T18:29:19.000Z</time>
        <extensions>
          <ns3:TrackPointExtension>
            <ns3:hr>122</ns3:hr>
            <ns3:cad>0</ns3:cad>
          </ns3:TrackPointExtension>
        </extensions>
      </trkpt>
      <trkpt lat="45.33630366437137126922607421875" lon="-70.97145865671336650848388671875">
        <ele>773.5999755859375</ele>
        <time>2026-08-21T18:29:20.000Z</time>
        <extensions>
          <ns3:TrackPointExtension>
            <ns3:hr>122</ns3:hr>
            <ns3:cad>0</ns3:cad>
          </ns3:TrackPointExtension>
        </extensions>
      </trkpt>
      <trkpt lat="45.33631187863647937774658203125" lon="-70.9714686311781406402587890625">
        <ele>773.4000244140625</ele>
        <time>2026-08-21T18:29:21.000Z</time>
        <extensions>
          <ns3:TrackPointExtension>
            <ns3:hr>122</ns3:hr>
            <ns3:cad>0</ns3:cad>
          </ns3:TrackPointExtension>
        </extensions>
      </trkpt>
      <trkpt lat="45.33632461912930011749267578125" lon="-70.97147994674742221832275390625">
        <ele>773.20001220703125</ele>
        <time>2026-08-21T18:29:22.000Z</time>
        <extensions>
          <ns3:TrackPointExtension>
            <ns3:hr>122</ns3:hr>
            <ns3:cad>0</ns3:cad>
          </ns3:TrackPointExtension>
        </extensions>
      </trkpt>
      <trkpt lat="45.33633601851761341094970703125" lon="-70.97148648463189601898193359375">
        <ele>773</ele>
        <time>2026-08-21T18:29:23.000Z</time>
        <extensions>
          <ns3:TrackPointExtension>
            <ns3:hr>122</ns3:hr>
            <ns3:cad>0</ns3:cad>
          </ns3:TrackPointExtension>
        </extensions>
      </trkpt>
      <trkpt lat="45.336349010467529296875" lon="-70.9714924357831478118896484375">
        <ele>772.5999755859375</ele>
        <time>2026-08-21T18:29:24.000Z</time>
        <extensions>
          <ns3:TrackPointExtension>
            <ns3:hr>122</ns3:hr>
            <ns3:cad>0</ns3:cad>
          </ns3:TrackPointExtension>
        </extensions>
      </trkpt>
      <trkpt lat="45.3363575600087642669677734375" lon="-70.97149788402020931243896484375">
        <ele>772.20001220703125</ele>
        <time>2026-08-21T18:29:25.000Z</time>
        <extensions>
          <ns3:TrackPointExtension>
            <ns3:hr>122</ns3:hr>
            <ns3:cad>41</ns3:cad>
          </ns3:TrackPointExtension>
        </extensions>
      </trkpt>
      <trkpt lat="45.3363679535686969757080078125" lon="-70.9715024940669536590576171875">
        <ele>771.79998779296875</ele>
        <time>2026-08-21T18:29:26.000Z</time>
        <extensions>
          <ns3:TrackPointExtension>
            <ns3:hr>122</ns3:hr>
            <ns3:cad>41</ns3:cad>
          </ns3:TrackPointExtension>
        </extensions>
      </trkpt>
      <trkpt lat="45.3363800235092639923095703125" lon="-70.97150760702788829803466796875">
        <ele>771.4000244140625</ele>
        <time>2026-08-21T18:29:27.000Z</time>
        <extensions>
          <ns3:TrackPointExtension>
            <ns3:hr>122</ns3:hr>
            <ns3:cad>41</ns3:cad>
          </ns3:TrackPointExtension>
        </extensions>
      </trkpt>
      <trkpt lat="45.33639754168689250946044921875" lon="-70.97151012159883975982666015625">
        <ele>770.79998779296875</ele>
        <time>2026-08-21T18:29:28.000Z</time>
        <extensions>
          <ns3:TrackPointExtension>
            <ns3:hr>122</ns3:hr>
            <ns3:cad>41</ns3:cad>
          </ns3:TrackPointExtension>
        </extensions>
      </trkpt>
      <trkpt lat="45.33641011454164981842041015625" lon="-70.97150660119950771331787109375">
        <ele>770.4000244140625</ele>
        <time>2026-08-21T18:29:29.000Z</time>
        <extensions>
          <ns3:TrackPointExtension>
            <ns3:hr>122</ns3:hr>
            <ns3:cad>41</ns3:cad>
          </ns3:TrackPointExtension>
        </extensions>
      </trkpt>
      <trkpt lat="45.33642620779573917388916015625" lon="-70.97149671055376529693603515625">
        <ele>770</ele>
        <time>2026-08-21T18:29:30.000Z</time>
        <extensions>
          <ns3:TrackPointExtension>
            <ns3:hr>122</ns3:hr>
            <ns3:cad>41</ns3:cad>
          </ns3:TrackPointExtension>
        </extensions>
      </trkpt>
      <trkpt lat="45.3364443965256214141845703125" lon="-70.971493609249591827392578125">
        <ele>769.4000244140625</ele>
        <time>2026-08-21T18:29:31.000Z</time>
        <extensions>
          <ns3:TrackPointExtension>
            <ns3:hr>123</ns3:hr>
            <ns3:cad>41</ns3:cad>
          </ns3:TrackPointExtension>
        </extensions>
      </trkpt>
      <trkpt lat="45.33645839430391788482666015625" lon="-70.97148279659450054168701171875">
        <ele>769</ele>
        <time>2026-08-21T18:29:32.000Z</time>
        <extensions>
          <ns3:TrackPointExtension>
            <ns3:hr>123</ns3:hr>
            <ns3:cad>41</ns3:cad>
          </ns3:TrackPointExtension>
        </extensions>
      </trkpt>
      <trkpt lat="45.33647038042545318603515625" lon="-70.97147642634809017181396484375">
        <ele>768.5999755859375</ele>
        <time>2026-08-21T18:29:33.000Z</time>
        <extensions>
          <ns3:TrackPointExtension>
            <ns3:hr>123</ns3:hr>
            <ns3:cad>41</ns3:cad>
          </ns3:TrackPointExtension>
        </extensions>
      </trkpt>
      <trkpt lat="45.33648379147052764892578125" lon="-70.97147491760551929473876953125">
        <ele>768.20001220703125</ele>
        <time>2026-08-21T18:29:34.000Z</time>
        <extensions>
          <ns3:TrackPointExtension>
            <ns3:hr>123</ns3:hr>
            <ns3:cad>41</ns3:cad>
          </ns3:TrackPointExtension>
        </extensions>
      </trkpt>
      <trkpt lat="45.33649477176368236541748046875" lon="-70.97147382795810699462890625">
        <ele>767.79998779296875</ele>
        <time>2026-08-21T18:29:35.000Z</time>
        <extensions>
          <ns3:TrackPointExtension>
            <ns3:hr>122</ns3:hr>
            <ns3:cad>41</ns3:cad>
          </ns3:TrackPointExtension>
        </extensions>
      </trkpt>
      <trkpt lat="45.33650918863713741302490234375" lon="-70.9714803658425807952880859375">
        <ele>767.4000244140625</ele>
        <time>2026-08-21T18:29:36.000Z</time>
        <extensions>
          <ns3:TrackPointExtension>
            <ns3:hr>123</ns3:hr>
            <ns3:cad>41</ns3:cad>
          </ns3:TrackPointExtension>
        </extensions>
      </trkpt>
      <trkpt lat="45.3365181572735309600830078125" lon="-70.9714847244322299957275390625">
        <ele>767.20001220703125</ele>
        <time>2026-08-21T18:29:37.000Z</time>
        <extensions>
          <ns3:TrackPointExtension>
            <ns3:hr>123</ns3:hr>
            <ns3:cad>41</ns3:cad>
          </ns3:TrackPointExtension>
        </extensions>
      </trkpt>
      <trkpt lat="45.336531735956668853759765625" lon="-70.9714880771934986114501953125">
        <ele>766.79998779296875</ele>
        <time>2026-08-21T18:29:38.000Z</time>
        <extensions>
          <ns3:TrackPointExtension>
            <ns3:hr>123</ns3:hr>
            <ns3:cad>0</ns3:cad>
          </ns3:TrackPointExtension>
        </extensions>
      </trkpt>
      <trkpt lat="45.33654288388788700103759765625" lon="-70.971494279801845550537109375">
        <ele>766.20001220703125</ele>
        <time>2026-08-21T18:29:39.000Z</time>
        <extensions>
          <ns3:TrackPointExtension>
            <ns3:hr>123</ns3:hr>
            <ns3:cad>0</ns3:cad>
          </ns3:TrackPointExtension>
        </extensions>
      </trkpt>
      <trkpt lat="45.336556546390056610107421875" lon="-70.97150341607630252838134765625">
        <ele>765.79998779296875</ele>
        <time>2026-08-21T18:29:40.000Z</time>
        <extensions>
          <ns3:TrackPointExtension>
            <ns3:hr>123</ns3:hr>
            <ns3:cad>0</ns3:cad>
          </ns3:TrackPointExtension>
        </extensions>
      </trkpt>
      <trkpt lat="45.336565934121608734130859375" lon="-70.97151297144591808319091796875">
        <ele>765.4000244140625</ele>
        <time>2026-08-21T18:29:41.000Z</time>
        <extensions>
          <ns3:TrackPointExtension>
            <ns3:hr>123</ns3:hr>
            <ns3:cad>0</ns3:cad>
          </ns3:TrackPointExtension>
        </extensions>
      </trkpt>
      <trkpt lat="45.33658110536634922027587890625" lon="-70.9715249575674533843994140625">
        <ele>764.79998779296875</ele>
        <time>2026-08-21T18:29:42.000Z</time>
        <extensions>
          <ns3:TrackPointExtension>
            <ns3:hr>124</ns3:hr>
            <ns3:cad>0</ns3:cad>
          </ns3:TrackPointExtension>
        </extensions>
      </trkpt>
      <trkpt lat="45.33659518696367740631103515625" lon="-70.9715239517390727996826171875">
        <ele>764.20001220703125</ele>
        <time>2026-08-21T18:29:43.000Z</time>
        <extensions>
          <ns3:TrackPointExtension>
            <ns3:hr>125</ns3:hr>
            <ns3:cad>0</ns3:cad>
          </ns3:TrackPointExtension>
        </extensions>
      </trkpt>
      <trkpt lat="45.3366105258464813232421875" lon="-70.97152118571102619171142578125">
        <ele>763.79998779296875</ele>
        <time>2026-08-21T18:29:44.000Z</time>
        <extensions>
          <ns3:TrackPointExtension>
            <ns3:hr>125</ns3:hr>
            <ns3:cad>0</ns3:cad>
          </ns3:TrackPointExtension>
        </extensions>
      </trkpt>
      <trkpt lat="45.33662335015833377838134765625" lon="-70.97151045687496662139892578125">
        <ele>763.4000244140625</ele>
        <time>2026-08-21T18:29:45.000Z</time>
        <extensions>
          <ns3:TrackPointExtension>
            <ns3:hr>125</ns3:hr>
            <ns3:cad>0</ns3:cad>
          </ns3:TrackPointExtension>
        </extensions>
      </trkpt>
      <trkpt lat="45.336635001003742218017578125" lon="-70.971501655876636505126953125">
        <ele>763</ele>
        <time>2026-08-21T18:29:46.000Z</time>
        <extensions>
          <ns3:TrackPointExtension>
            <ns3:hr>124</ns3:hr>
            <ns3:cad>0</ns3:cad>
          </ns3:TrackPointExtension>
        </extensions>
      </trkpt>
      <trkpt lat="45.33665033988654613494873046875" lon="-70.97149268724024295806884765625">
        <ele>762.79998779296875</ele>
        <time>2026-08-21T18:29:47.000Z</time>
        <extensions>
          <ns3:TrackPointExtension>
            <ns3:hr>125</ns3:hr>
            <ns3:cad>0</ns3:cad>
          </ns3:TrackPointExtension>
        </extensions>
      </trkpt>
      <trkpt lat="45.3366619907319545745849609375" lon="-70.97148631699383258819580078125">
        <ele>762.5999755859375</ele>
        <time>2026-08-21T18:29:48.000Z</time>
        <extensions>
          <ns3:TrackPointExtension>
            <ns3:hr>124</ns3:hr>
            <ns3:cad>0</ns3:cad>
          </ns3:TrackPointExtension>
        </extensions>
      </trkpt>
      <trkpt lat="45.33667380921542644500732421875" lon="-70.9714800305664539337158203125">
        <ele>762.4000244140625</ele>
        <time>2026-08-21T18:29:49.000Z</time>
        <extensions>
          <ns3:TrackPointExtension>
            <ns3:hr>124</ns3:hr>
            <ns3:cad>0</ns3:cad>
          </ns3:TrackPointExtension>
        </extensions>
      </trkpt>
      <trkpt lat="45.33668202348053455352783203125" lon="-70.9714810363948345184326171875">
        <ele>762</ele>
        <time>2026-08-21T18:29:50.000Z</time>
        <extensions>
          <ns3:TrackPointExtension>
            <ns3:hr>124</ns3:hr>
            <ns3:cad>0</ns3:cad>
          </ns3:TrackPointExtension>
        </extensions>
      </trkpt>
      <trkpt lat="45.3366884775459766387939453125" lon="-70.97148061729967594146728515625">
        <ele>761.79998779296875</ele>
        <time>2026-08-21T18:29:51.000Z</time>
        <extensions>
          <ns3:TrackPointExtension>
            <ns3:hr>124</ns3:hr>
            <ns3:cad>0</ns3:cad>
          </ns3:TrackPointExtension>
        </extensions>
      </trkpt>
      <trkpt lat="45.33669811673462390899658203125" lon="-70.9714796952903270721435546875">
        <ele>761.5999755859375</ele>
        <time>2026-08-21T18:29:52.000Z</time>
        <extensions>
          <ns3:TrackPointExtension>
            <ns3:hr>124</ns3:hr>
            <ns3:cad>0</ns3:cad>
          </ns3:TrackPointExtension>
        </extensions>
      </trkpt>
      <trkpt lat="45.3367109410464763641357421875" lon="-70.97148095257580280303955078125">
        <ele>761.20001220703125</ele>
        <time>2026-08-21T18:29:53.000Z</time>
        <extensions>
          <ns3:TrackPointExtension>
            <ns3:hr>123</ns3:hr>
            <ns3:cad>0</ns3:cad>
          </ns3:TrackPointExtension>
        </extensions>
      </trkpt>
      <trkpt lat="45.3367253579199314117431640625" lon="-70.971480198204517364501953125">
        <ele>761</ele>
        <time>2026-08-21T18:29:54.000Z</time>
        <extensions>
          <ns3:TrackPointExtension>
            <ns3:hr>123</ns3:hr>
            <ns3:cad>0</ns3:cad>
          </ns3:TrackPointExtension>
        </extensions>
      </trkpt>
      <trkpt lat="45.33673717640340328216552734375" lon="-70.9714837186038494110107421875">
        <ele>760.5999755859375</ele>
        <time>2026-08-21T18:29:55.000Z</time>
        <extensions>
          <ns3:TrackPointExtension>
            <ns3:hr>123</ns3:hr>
            <ns3:cad>0</ns3:cad>
          </ns3:TrackPointExtension>
        </extensions>
      </trkpt>
      <trkpt lat="45.33675008453428745269775390625" lon="-70.97147793509066104888916015625">
        <ele>760.20001220703125</ele>
        <time>2026-08-21T18:29:56.000Z</time>
        <extensions>
          <ns3:TrackPointExtension>
            <ns3:hr>123</ns3:hr>
            <ns3:cad>0</ns3:cad>
          </ns3:TrackPointExtension>
        </extensions>
      </trkpt>
      <trkpt lat="45.3367622382938861846923828125" lon="-70.97147609107196331024169921875">
        <ele>759.79998779296875</ele>
        <time>2026-08-21T18:29:57.000Z</time>
        <extensions>
          <ns3:TrackPointExtension>
            <ns3:hr>122</ns3:hr>
            <ns3:cad>67</ns3:cad>
          </ns3:TrackPointExtension>
        </extensions>
      </trkpt>
      <trkpt lat="45.33677439205348491668701171875" lon="-70.971471481025218963623046875">
        <ele>759.4000244140625</ele>
        <time>2026-08-21T18:29:58.000Z</time>
        <extensions>
          <ns3:TrackPointExtension>
            <ns3:hr>122</ns3:hr>
            <ns3:cad>67</ns3:cad>
          </ns3:TrackPointExtension>
        </extensions>
      </trkpt>
      <trkpt lat="45.3367848694324493408203125" lon="-70.971468798816204071044921875">
        <ele>759.20001220703125</ele>
        <time>2026-08-21T18:29:59.000Z</time>
        <extensions>
          <ns3:TrackPointExtension>
            <ns3:hr>122</ns3:hr>
            <ns3:cad>67</ns3:cad>
          </ns3:TrackPointExtension>
        </extensions>
      </trkpt>
      <trkpt lat="45.33678696490824222564697265625" lon="-70.971469469368457794189453125">
        <ele>759</ele>
        <time>2026-08-21T18:30:00.000Z</time>
        <extensions>
          <ns3:TrackPointExtension>
            <ns3:hr>122</ns3:hr>
            <ns3:cad>0</ns3:cad>
          </ns3:TrackPointExtension>
        </extensions>
      </trkpt>
      <trkpt lat="45.3367947600781917572021484375" lon="-70.97147474996745586395263671875">
        <ele>758.79998779296875</ele>
        <time>2026-08-21T18:30:01.000Z</time>
        <extensions>
          <ns3:TrackPointExtension>
            <ns3:hr>121</ns3:hr>
            <ns3:cad>0</ns3:cad>
          </ns3:TrackPointExtension>
        </extensions>
      </trkpt>
      <trkpt lat="45.3368024714291095733642578125" lon="-70.97147785127162933349609375">
        <ele>758.5999755859375</ele>
        <time>2026-08-21T18:30:02.000Z</time>
        <extensions>
          <ns3:TrackPointExtension>
            <ns3:hr>121</ns3:hr>
            <ns3:cad>0</ns3:cad>
          </ns3:TrackPointExtension>
        </extensions>
      </trkpt>
      <trkpt lat="45.336810015141963958740234375" lon="-70.9714798629283905029296875">
        <ele>758.4000244140625</ele>
        <time>2026-08-21T18:30:03.000Z</time>
        <extensions>
          <ns3:TrackPointExtension>
            <ns3:hr>120</ns3:hr>
            <ns3:cad>0</ns3:cad>
          </ns3:TrackPointExtension>
        </extensions>
      </trkpt>
      <trkpt lat="45.33683088608086109161376953125" lon="-70.97148279659450054168701171875">
        <ele>758</ele>
        <time>2026-08-21T18:30:04.000Z</time>
        <extensions>
          <ns3:TrackPointExtension>
            <ns3:hr>120</ns3:hr>
            <ns3:cad>0</ns3:cad>
          </ns3:TrackPointExtension>
        </extensions>
      </trkpt>
      <trkpt lat="45.3368453867733478546142578125" lon="-70.97148145548999309539794921875">
        <ele>757.5999755859375</ele>
        <time>2026-08-21T18:30:05.000Z</time>
        <extensions>
          <ns3:TrackPointExtension>
            <ns3:hr>119</ns3:hr>
            <ns3:cad>0</ns3:cad>
          </ns3:TrackPointExtension>
        </extensions>
      </trkpt>
      <trkpt lat="45.33686474896967411041259765625" lon="-70.971485562622547149658203125">
        <ele>757</ele>
        <time>2026-08-21T18:30:06.000Z</time>
        <extensions>
          <ns3:TrackPointExtension>
            <ns3:hr>119</ns3:hr>
            <ns3:cad>0</ns3:cad>
          </ns3:TrackPointExtension>
        </extensions>
      </trkpt>
      <trkpt lat="45.33687899820506572723388671875" lon="-70.97148430533707141876220703125">
        <ele>756.4000244140625</ele>
        <time>2026-08-21T18:30:07.000Z</time>
        <extensions>
          <ns3:TrackPointExtension>
            <ns3:hr>119</ns3:hr>
            <ns3:cad>0</ns3:cad>
          </ns3:TrackPointExtension>
        </extensions>
      </trkpt>
      <trkpt lat="45.33688402734696865081787109375" lon="-70.9714813716709613800048828125">
        <ele>755.79998779296875</ele>
        <time>2026-08-21T18:30:08.000Z</time>
        <extensions>
          <ns3:TrackPointExtension>
            <ns3:hr>119</ns3:hr>
            <ns3:cad>0</ns3:cad>
          </ns3:TrackPointExtension>
        </extensions>
      </trkpt>
      <trkpt lat="45.33689224161207675933837890625" lon="-70.97147860564291477203369140625">
        <ele>755.20001220703125</ele>
        <time>2026-08-21T18:30:09.000Z</time>
        <extensions>
          <ns3:TrackPointExtension>
            <ns3:hr>120</ns3:hr>
            <ns3:cad>0</ns3:cad>
          </ns3:TrackPointExtension>
        </extensions>
      </trkpt>
      <trkpt lat="45.33690229989588260650634765625" lon="-70.971474163234233856201171875">
        <ele>754.79998779296875</ele>
        <time>2026-08-21T18:30:10.000Z</time>
        <extensions>
          <ns3:TrackPointExtension>
            <ns3:hr>122</ns3:hr>
            <ns3:cad>43</ns3:cad>
          </ns3:TrackPointExtension>
        </extensions>
      </trkpt>
      <trkpt lat="45.33691537566483020782470703125" lon="-70.97146502695977687835693359375">
        <ele>754.5999755859375</ele>
        <time>2026-08-21T18:30:11.000Z</time>
        <extensions>
          <ns3:TrackPointExtension>
            <ns3:hr>122</ns3:hr>
            <ns3:cad>43</ns3:cad>
          </ns3:TrackPointExtension>
        </extensions>
      </trkpt>
      <trkpt lat="45.3369243443012237548828125" lon="-70.9714595787227153778076171875">
        <ele>754.20001220703125</ele>
        <time>2026-08-21T18:30:12.000Z</time>
        <extensions>
          <ns3:TrackPointExtension>
            <ns3:hr>122</ns3:hr>
            <ns3:cad>44</ns3:cad>
          </ns3:TrackPointExtension>
        </extensions>
      </trkpt>
      <trkpt lat="45.3369349054992198944091796875" lon="-70.97145580686628818511962890625">
        <ele>754</ele>
        <time>2026-08-21T18:30:13.000Z</time>
        <extensions>
          <ns3:TrackPointExtension>
            <ns3:hr>122</ns3:hr>
            <ns3:cad>44</ns3:cad>
          </ns3:TrackPointExtension>
        </extensions>
      </trkpt>
      <trkpt lat="45.33694781363010406494140625" lon="-70.97145128063857555389404296875">
        <ele>753.5999755859375</ele>
        <time>2026-08-21T18:30:14.000Z</time>
        <extensions>
          <ns3:TrackPointExtension>
            <ns3:hr>122</ns3:hr>
            <ns3:cad>44</ns3:cad>
          </ns3:TrackPointExtension>
        </extensions>
      </trkpt>
      <trkpt lat="45.33695912919938564300537109375" lon="-70.9714465029537677764892578125">
        <ele>753.20001220703125</ele>
        <time>2026-08-21T18:30:15.000Z</time>
        <extensions>
          <ns3:TrackPointExtension>
            <ns3:hr>122</ns3:hr>
            <ns3:cad>44</ns3:cad>
          </ns3:TrackPointExtension>
        </extensions>
      </trkpt>
      <trkpt lat="45.336968936026096343994140625" lon="-70.971448011696338653564453125">
        <ele>752.5999755859375</ele>
        <time>2026-08-21T18:30:16.000Z</time>
        <extensions>
          <ns3:TrackPointExtension>
            <ns3:hr>121</ns3:hr>
            <ns3:cad>44</ns3:cad>
          </ns3:TrackPointExtension>
        </extensions>
      </trkpt>
      <trkpt lat="45.3369808383285999298095703125" lon="-70.97144843079149723052978515625">
        <ele>752.20001220703125</ele>
        <time>2026-08-21T18:30:17.000Z</time>
        <extensions>
          <ns3:TrackPointExtension>
            <ns3:hr>121</ns3:hr>
            <ns3:cad>64</ns3:cad>
          </ns3:TrackPointExtension>
        </extensions>
      </trkpt>
      <trkpt lat="45.3369913995265960693359375" lon="-70.97145144827663898468017578125">
        <ele>751.79998779296875</ele>
        <time>2026-08-21T18:30:18.000Z</time>
        <extensions>
          <ns3:TrackPointExtension>
            <ns3:hr>120</ns3:hr>
            <ns3:cad>64</ns3:cad>
          </ns3:TrackPointExtension>
        </extensions>
      </trkpt>
      <trkpt lat="45.337003134191036224365234375" lon="-70.9714555554091930389404296875">
        <ele>751.4000244140625</ele>
        <time>2026-08-21T18:30:19.000Z</time>
        <extensions>
          <ns3:TrackPointExtension>
            <ns3:hr>120</ns3:hr>
            <ns3:cad>64</ns3:cad>
          </ns3:TrackPointExtension>
        </extensions>
      </trkpt>
      <trkpt lat="45.3370160423219203948974609375" lon="-70.9714595787227153778076171875">
        <ele>751</ele>
        <time>2026-08-21T18:30:20.000Z</time>
        <extensions>
          <ns3:TrackPointExtension>
            <ns3:hr>120</ns3:hr>
            <ns3:cad>64</ns3:cad>
          </ns3:TrackPointExtension>
        </extensions>
      </trkpt>
      <trkpt lat="45.33702987246215343475341796875" lon="-70.9714676253497600555419921875">
        <ele>750.5999755859375</ele>
        <time>2026-08-21T18:30:21.000Z</time>
        <extensions>
          <ns3:TrackPointExtension>
            <ns3:hr>119</ns3:hr>
            <ns3:cad>64</ns3:cad>
          </ns3:TrackPointExtension>
        </extensions>
      </trkpt>
      <trkpt lat="45.33704395405948162078857421875" lon="-70.97147290594875812530517578125">
        <ele>750.20001220703125</ele>
        <time>2026-08-21T18:30:22.000Z</time>
        <extensions>
          <ns3:TrackPointExtension>
            <ns3:hr>119</ns3:hr>
            <ns3:cad>64</ns3:cad>
          </ns3:TrackPointExtension>
        </extensions>
      </trkpt>
      <trkpt lat="45.3370566107332706451416015625" lon="-70.9714771807193756103515625">
        <ele>749.5999755859375</ele>
        <time>2026-08-21T18:30:23.000Z</time>
        <extensions>
          <ns3:TrackPointExtension>
            <ns3:hr>120</ns3:hr>
            <ns3:cad>64</ns3:cad>
          </ns3:TrackPointExtension>
        </extensions>
      </trkpt>
      <trkpt lat="45.3370680101215839385986328125" lon="-70.97148044966161251068115234375">
        <ele>749.20001220703125</ele>
        <time>2026-08-21T18:30:24.000Z</time>
        <extensions>
          <ns3:TrackPointExtension>
            <ns3:hr>121</ns3:hr>
            <ns3:cad>64</ns3:cad>
          </ns3:TrackPointExtension>
        </extensions>
      </trkpt>
      <trkpt lat="45.33708033151924610137939453125" lon="-70.97148212604224681854248046875">
        <ele>748.5999755859375</ele>
        <time>2026-08-21T18:30:25.000Z</time>
        <extensions>
          <ns3:TrackPointExtension>
            <ns3:hr>122</ns3:hr>
            <ns3:cad>64</ns3:cad>
          </ns3:TrackPointExtension>
        </extensions>
      </trkpt>
      <trkpt lat="45.33709122799336910247802734375" lon="-70.971478857100009918212890625">
        <ele>748</ele>
        <time>2026-08-21T18:30:26.000Z</time>
        <extensions>
          <ns3:TrackPointExtension>
            <ns3:hr>123</ns3:hr>
            <ns3:cad>64</ns3:cad>
          </ns3:TrackPointExtension>
        </extensions>
      </trkpt>
      <trkpt lat="45.33710145391523838043212890625" lon="-70.9714716486632823944091796875">
        <ele>747.5999755859375</ele>
        <time>2026-08-21T18:30:27.000Z</time>
        <extensions>
          <ns3:TrackPointExtension>
            <ns3:hr>123</ns3:hr>
            <ns3:cad>64</ns3:cad>
          </ns3:TrackPointExtension>
        </extensions>
      </trkpt>
      <trkpt lat="45.3371122665703296661376953125" lon="-70.9714729897677898406982421875">
        <ele>747.20001220703125</ele>
        <time>2026-08-21T18:30:28.000Z</time>
        <extensions>
          <ns3:TrackPointExtension>
            <ns3:hr>124</ns3:hr>
            <ns3:cad>64</ns3:cad>
          </ns3:TrackPointExtension>
        </extensions>
      </trkpt>
      <trkpt lat="45.33712618052959442138671875" lon="-70.97147257067263126373291015625">
        <ele>746.79998779296875</ele>
        <time>2026-08-21T18:30:29.000Z</time>
        <extensions>
          <ns3:TrackPointExtension>
            <ns3:hr>124</ns3:hr>
            <ns3:cad>64</ns3:cad>
          </ns3:TrackPointExtension>
        </extensions>
      </trkpt>
      <trkpt lat="45.337137915194034576416015625" lon="-70.97147676162421703338623046875">
        <ele>746.4000244140625</ele>
        <time>2026-08-21T18:30:30.000Z</time>
        <extensions>
          <ns3:TrackPointExtension>
            <ns3:hr>125</ns3:hr>
            <ns3:cad>0</ns3:cad>
          </ns3:TrackPointExtension>
        </extensions>
      </trkpt>
      <trkpt lat="45.33714889548718929290771484375" lon="-70.971478857100009918212890625">
        <ele>746.20001220703125</ele>
        <time>2026-08-21T18:30:31.000Z</time>
        <extensions>
          <ns3:TrackPointExtension>
            <ns3:hr>125</ns3:hr>
            <ns3:cad>0</ns3:cad>
          </ns3:TrackPointExtension>
        </extensions>
      </trkpt>
      <trkpt lat="45.3371630609035491943359375" lon="-70.9714823774993419647216796875">
        <ele>745.79998779296875</ele>
        <time>2026-08-21T18:30:32.000Z</time>
        <extensions>
          <ns3:TrackPointExtension>
            <ns3:hr>126</ns3:hr>
            <ns3:cad>0</ns3:cad>
          </ns3:TrackPointExtension>
        </extensions>
      </trkpt>
      <trkpt lat="45.33717538230121135711669921875" lon="-70.97148179076611995697021484375">
        <ele>745.4000244140625</ele>
        <time>2026-08-21T18:30:33.000Z</time>
        <extensions>
          <ns3:TrackPointExtension>
            <ns3:hr>126</ns3:hr>
            <ns3:cad>0</ns3:cad>
          </ns3:TrackPointExtension>
        </extensions>
      </trkpt>
      <trkpt lat="45.33718585968017578125" lon="-70.97147785127162933349609375">
        <ele>745.20001220703125</ele>
        <time>2026-08-21T18:30:34.000Z</time>
        <extensions>
          <ns3:TrackPointExtension>
            <ns3:hr>126</ns3:hr>
            <ns3:cad>0</ns3:cad>
          </ns3:TrackPointExtension>
        </extensions>
      </trkpt>
      <trkpt lat="45.33719482831656932830810546875" lon="-70.97147944383323192596435546875">
        <ele>744.79998779296875</ele>
        <time>2026-08-21T18:30:35.000Z</time>
        <extensions>
          <ns3:TrackPointExtension>
            <ns3:hr>126</ns3:hr>
            <ns3:cad>0</ns3:cad>
          </ns3:TrackPointExtension>
        </extensions>
      </trkpt>
      <trkpt lat="45.33720907755196094512939453125" lon="-70.971479527652263641357421875">
        <ele>744.5999755859375</ele>
        <time>2026-08-21T18:30:36.000Z</time>
        <extensions>
          <ns3:TrackPointExtension>
            <ns3:hr>125</ns3:hr>
            <ns3:cad>0</ns3:cad>
          </ns3:TrackPointExtension>
        </extensions>
      </trkpt>
      <trkpt lat="45.3372212313115596771240234375" lon="-70.97147977910935878753662109375">
        <ele>744.20001220703125</ele>
        <time>2026-08-21T18:30:37.000Z</time>
        <extensions>
          <ns3:TrackPointExtension>
            <ns3:hr>126</ns3:hr>
            <ns3:cad>0</ns3:cad>
          </ns3:TrackPointExtension>
        </extensions>
      </trkpt>
      <trkpt lat="45.3372356481850147247314453125" lon="-70.97147961147129535675048828125">
        <ele>743.79998779296875</ele>
        <time>2026-08-21T18:30:38.000Z</time>
        <extensions>
          <ns3:TrackPointExtension>
            <ns3:hr>126</ns3:hr>
            <ns3:cad>0</ns3:cad>
          </ns3:TrackPointExtension>
        </extensions>
      </trkpt>
      <trkpt lat="45.3372504003345966339111328125" lon="-70.9714850597083568572998046875">
        <ele>743.4000244140625</ele>
        <time>2026-08-21T18:30:39.000Z</time>
        <extensions>
          <ns3:TrackPointExtension>
            <ns3:hr>125</ns3:hr>
            <ns3:cad>0</ns3:cad>
          </ns3:TrackPointExtension>
        </extensions>
      </trkpt>
      <trkpt lat="45.3372624702751636505126953125" lon="-70.971488915383815765380859375">
        <ele>743</ele>
        <time>2026-08-21T18:30:40.000Z</time>
        <extensions>
          <ns3:TrackPointExtension>
            <ns3:hr>126</ns3:hr>
            <ns3:cad>0</ns3:cad>
          </ns3:TrackPointExtension>
        </extensions>
      </trkpt>
      <trkpt lat="45.33727361820638179779052734375" lon="-70.97148966975510120391845703125">
        <ele>742.5999755859375</ele>
        <time>2026-08-21T18:30:41.000Z</time>
        <extensions>
          <ns3:TrackPointExtension>
            <ns3:hr>126</ns3:hr>
            <ns3:cad>0</ns3:cad>
          </ns3:TrackPointExtension>
        </extensions>
      </trkpt>
      <trkpt lat="45.33728769980370998382568359375" lon="-70.97148464061319828033447265625">
        <ele>742.20001220703125</ele>
        <time>2026-08-21T18:30:42.000Z</time>
        <extensions>
          <ns3:TrackPointExtension>
            <ns3:hr>125</ns3:hr>
            <ns3:cad>77</ns3:cad>
          </ns3:TrackPointExtension>
        </extensions>
      </trkpt>
      <trkpt lat="45.33730563707649707794189453125" lon="-70.9714790247380733489990234375">
        <ele>741.79998779296875</ele>
        <time>2026-08-21T18:30:43.000Z</time>
        <extensions>
          <ns3:TrackPointExtension>
            <ns3:hr>125</ns3:hr>
            <ns3:cad>77</ns3:cad>
          </ns3:TrackPointExtension>
        </extensions>
      </trkpt>
      <trkpt lat="45.33731820993125438690185546875" lon="-70.97147927619516849517822265625">
        <ele>741.5999755859375</ele>
        <time>2026-08-21T18:30:44.000Z</time>
        <extensions>
          <ns3:TrackPointExtension>
            <ns3:hr>124</ns3:hr>
            <ns3:cad>77</ns3:cad>
          </ns3:TrackPointExtension>
        </extensions>
      </trkpt>
      <trkpt lat="45.33733815886080265045166015625" lon="-70.97147785127162933349609375">
        <ele>741.4000244140625</ele>
        <time>2026-08-21T18:30:45.000Z</time>
        <extensions>
          <ns3:TrackPointExtension>
            <ns3:hr>123</ns3:hr>
            <ns3:cad>77</ns3:cad>
          </ns3:TrackPointExtension>
        </extensions>
      </trkpt>
      <trkpt lat="45.33734989352524280548095703125" lon="-70.97148212604224681854248046875">
        <ele>741</ele>
        <time>2026-08-21T18:30:46.000Z</time>
        <extensions>
          <ns3:TrackPointExtension>
            <ns3:hr>123</ns3:hr>
            <ns3:cad>77</ns3:cad>
          </ns3:TrackPointExtension>
        </extensions>
      </trkpt>
      <trkpt lat="45.337365232408046722412109375" lon="-70.971484221518039703369140625">
        <ele>740.5999755859375</ele>
        <time>2026-08-21T18:30:47.000Z</time>
        <extensions>
          <ns3:TrackPointExtension>
            <ns3:hr>123</ns3:hr>
            <ns3:cad>65</ns3:cad>
          </ns3:TrackPointExtension>
        </extensions>
      </trkpt>
      <trkpt lat="45.3373781405389308929443359375" lon="-70.971480868756771087646484375">
        <ele>740.4000244140625</ele>
        <time>2026-08-21T18:30:48.000Z</time>
        <extensions>
          <ns3:TrackPointExtension>
            <ns3:hr>123</ns3:hr>
            <ns3:cad>65</ns3:cad>
          </ns3:TrackPointExtension>
        </extensions>
      </trkpt>
      <trkpt lat="45.3373964130878448486328125" lon="-70.97147039137780666351318359375">
        <ele>740</ele>
        <time>2026-08-21T18:30:49.000Z</time>
        <extensions>
          <ns3:TrackPointExtension>
            <ns3:hr>123</ns3:hr>
            <ns3:cad>65</ns3:cad>
          </ns3:TrackPointExtension>
        </extensions>
      </trkpt>
      <trkpt lat="45.33740873448550701141357421875" lon="-70.97146452404558658599853515625">
        <ele>739.5999755859375</ele>
        <time>2026-08-21T18:30:50.000Z</time>
        <extensions>
          <ns3:TrackPointExtension>
            <ns3:hr>123</ns3:hr>
            <ns3:cad>65</ns3:cad>
          </ns3:TrackPointExtension>
        </extensions>
      </trkpt>
      <trkpt lat="45.3374234028160572052001953125" lon="-70.97145597450435161590576171875">
        <ele>739.20001220703125</ele>
        <time>2026-08-21T18:30:51.000Z</time>
        <extensions>
          <ns3:TrackPointExtension>
            <ns3:hr>124</ns3:hr>
            <ns3:cad>65</ns3:cad>
          </ns3:TrackPointExtension>
        </extensions>
      </trkpt>
      <trkpt lat="45.3374348022043704986572265625" lon="-70.9714532084763050079345703125">
        <ele>738.79998779296875</ele>
        <time>2026-08-21T18:30:52.000Z</time>
        <extensions>
          <ns3:TrackPointExtension>
            <ns3:hr>124</ns3:hr>
            <ns3:cad>65</ns3:cad>
          </ns3:TrackPointExtension>
        </extensions>
      </trkpt>
      <trkpt lat="45.33744980581104755401611328125" lon="-70.97145178355276584625244140625">
        <ele>738.4000244140625</ele>
        <time>2026-08-21T18:30:53.000Z</time>
        <extensions>
          <ns3:TrackPointExtension>
            <ns3:hr>124</ns3:hr>
            <ns3:cad>65</ns3:cad>
          </ns3:TrackPointExtension>
        </extensions>
      </trkpt>
      <trkpt lat="45.33746556378901004791259765625" lon="-70.971452035009860992431640625">
        <ele>738</ele>
        <time>2026-08-21T18:30:54.000Z</time>
        <extensions>
          <ns3:TrackPointExtension>
            <ns3:hr>124</ns3:hr>
            <ns3:cad>65</ns3:cad>
          </ns3:TrackPointExtension>
        </extensions>
      </trkpt>
      <trkpt lat="45.3374847583472728729248046875" lon="-70.97145396284759044647216796875">
        <ele>737.79998779296875</ele>
        <time>2026-08-21T18:30:55.000Z</time>
        <extensions>
          <ns3:TrackPointExtension>
            <ns3:hr>123</ns3:hr>
            <ns3:cad>0</ns3:cad>
          </ns3:TrackPointExtension>
        </extensions>
      </trkpt>
      <trkpt lat="45.3374988399446010589599609375" lon="-70.97145899198949337005615234375">
        <ele>737.4000244140625</ele>
        <time>2026-08-21T18:30:56.000Z</time>
        <extensions>
          <ns3:TrackPointExtension>
            <ns3:hr>123</ns3:hr>
            <ns3:cad>0</ns3:cad>
          </ns3:TrackPointExtension>
        </extensions>
      </trkpt>
      <trkpt lat="45.33751635812222957611083984375" lon="-70.97146519459784030914306640625">
        <ele>737.20001220703125</ele>
        <time>2026-08-21T18:30:57.000Z</time>
        <extensions>
          <ns3:TrackPointExtension>
            <ns3:hr>123</ns3:hr>
            <ns3:cad>0</ns3:cad>
          </ns3:TrackPointExtension>
        </extensions>
      </trkpt>
      <trkpt lat="45.33753261901438236236572265625" lon="-70.9714729897677898406982421875">
        <ele>736.79998779296875</ele>
        <time>2026-08-21T18:30:58.000Z</time>
        <extensions>
          <ns3:TrackPointExtension>
            <ns3:hr>123</ns3:hr>
            <ns3:cad>0</ns3:cad>
          </ns3:TrackPointExtension>
        </extensions>
      </trkpt>
      <trkpt lat="45.337553322315216064453125" lon="-70.97147240303456783294677734375">
        <ele>736.5999755859375</ele>
        <time>2026-08-21T18:30:59.000Z</time>
        <extensions>
          <ns3:TrackPointExtension>
            <ns3:hr>123</ns3:hr>
            <ns3:cad>73</ns3:cad>
          </ns3:TrackPointExtension>
        </extensions>
      </trkpt>
      <trkpt lat="45.337569415569305419921875" lon="-70.9714696370065212249755859375">
        <ele>736.4000244140625</ele>
        <time>2026-08-21T18:31:00.000Z</time>
        <extensions>
          <ns3:TrackPointExtension>
            <ns3:hr>123</ns3:hr>
            <ns3:cad>73</ns3:cad>
          </ns3:TrackPointExtension>
        </extensions>
      </trkpt>
      <trkpt lat="45.337589867413043975830078125" lon="-70.97146444022655487060546875">
        <ele>736.20001220703125</ele>
        <time>2026-08-21T18:31:01.000Z</time>
        <extensions>
          <ns3:TrackPointExtension>
            <ns3:hr>124</ns3:hr>
            <ns3:cad>73</ns3:cad>
          </ns3:TrackPointExtension>
        </extensions>
      </trkpt>
      <trkpt lat="45.33760788850486278533935546875" lon="-70.9714585728943347930908203125">
        <ele>736</ele>
        <time>2026-08-21T18:31:02.000Z</time>
        <extensions>
          <ns3:TrackPointExtension>
            <ns3:hr>123</ns3:hr>
            <ns3:cad>75</ns3:cad>
          </ns3:TrackPointExtension>
        </extensions>
      </trkpt>
      <trkpt lat="45.33762775361537933349609375" lon="-70.97145530395209789276123046875">
        <ele>735.79998779296875</ele>
        <time>2026-08-21T18:31:03.000Z</time>
        <extensions>
          <ns3:TrackPointExtension>
            <ns3:hr>123</ns3:hr>
            <ns3:cad>75</ns3:cad>
          </ns3:TrackPointExtension>
        </extensions>
      </trkpt>
      <trkpt lat="45.3376458585262298583984375" lon="-70.9714532084763050079345703125">
        <ele>735.5999755859375</ele>
        <time>2026-08-21T18:31:04.000Z</time>
        <extensions>
          <ns3:TrackPointExtension>
            <ns3:hr>122</ns3:hr>
            <ns3:cad>75</ns3:cad>
          </ns3:TrackPointExtension>
        </extensions>
      </trkpt>
      <trkpt lat="45.33766455017030239105224609375" lon="-70.97145362757146358489990234375">
        <ele>735.4000244140625</ele>
        <time>2026-08-21T18:31:05.000Z</time>
        <extensions>
          <ns3:TrackPointExtension>
            <ns3:hr>122</ns3:hr>
            <ns3:cad>69</ns3:cad>
          </ns3:TrackPointExtension>
        </extensions>
      </trkpt>
      <trkpt lat="45.33767930231988430023193359375" lon="-70.97144138999283313751220703125">
        <ele>735.20001220703125</ele>
        <time>2026-08-21T18:31:06.000Z</time>
        <extensions>
          <ns3:TrackPointExtension>
            <ns3:hr>122</ns3:hr>
            <ns3:cad>69</ns3:cad>
          </ns3:TrackPointExtension>
        </extensions>
      </trkpt>
      <trkpt lat="45.33769640140235424041748046875" lon="-70.9714344330132007598876953125">
        <ele>735</ele>
        <time>2026-08-21T18:31:07.000Z</time>
        <extensions>
          <ns3:TrackPointExtension>
            <ns3:hr>123</ns3:hr>
            <ns3:cad>71</ns3:cad>
          </ns3:TrackPointExtension>
        </extensions>
      </trkpt>
      <trkpt lat="45.33771132118999958038330078125" lon="-70.97142663784325122833251953125">
        <ele>734.79998779296875</ele>
        <time>2026-08-21T18:31:08.000Z</time>
        <extensions>
          <ns3:TrackPointExtension>
            <ns3:hr>123</ns3:hr>
            <ns3:cad>71</ns3:cad>
          </ns3:TrackPointExtension>
        </extensions>
      </trkpt>
      <trkpt lat="45.33772431313991546630859375" lon="-70.9714183397591114044189453125">
        <ele>734.4000244140625</ele>
        <time>2026-08-21T18:31:09.000Z</time>
        <extensions>
          <ns3:TrackPointExtension>
            <ns3:hr>122</ns3:hr>
            <ns3:cad>71</ns3:cad>
          </ns3:TrackPointExtension>
        </extensions>
      </trkpt>
      <trkpt lat="45.3377422504127025604248046875" lon="-70.97141322679817676544189453125">
        <ele>734.20001220703125</ele>
        <time>2026-08-21T18:31:10.000Z</time>
        <extensions>
          <ns3:TrackPointExtension>
            <ns3:hr>121</ns3:hr>
            <ns3:cad>71</ns3:cad>
          </ns3:TrackPointExtension>
        </extensions>
      </trkpt>
      <trkpt lat="45.33775591291487216949462890625" lon="-70.971412472426891326904296875">
        <ele>734</ele>
        <time>2026-08-21T18:31:11.000Z</time>
        <extensions>
          <ns3:TrackPointExtension>
            <ns3:hr>120</ns3:hr>
            <ns3:cad>71</ns3:cad>
          </ns3:TrackPointExtension>
        </extensions>
      </trkpt>
      <trkpt lat="45.33777066506445407867431640625" lon="-70.97140098921954631805419921875">
        <ele>733.5999755859375</ele>
        <time>2026-08-21T18:31:12.000Z</time>
        <extensions>
          <ns3:TrackPointExtension>
            <ns3:hr>120</ns3:hr>
            <ns3:cad>66</ns3:cad>
          </ns3:TrackPointExtension>
        </extensions>
      </trkpt>
      <trkpt lat="45.33778474666178226470947265625" lon="-70.97139713354408740997314453125">
        <ele>733.4000244140625</ele>
        <time>2026-08-21T18:31:13.000Z</time>
        <extensions>
          <ns3:TrackPointExtension>
            <ns3:hr>120</ns3:hr>
            <ns3:cad>66</ns3:cad>
          </ns3:TrackPointExtension>
        </extensions>
      </trkpt>
      <trkpt lat="45.33780100755393505096435546875" lon="-70.97139713354408740997314453125">
        <ele>733.20001220703125</ele>
        <time>2026-08-21T18:31:14.000Z</time>
        <extensions>
          <ns3:TrackPointExtension>
            <ns3:hr>120</ns3:hr>
            <ns3:cad>66</ns3:cad>
          </ns3:TrackPointExtension>
        </extensions>
      </trkpt>
      <trkpt lat="45.33781458623707294464111328125" lon="-70.97140283323824405670166015625">
        <ele>733</ele>
        <time>2026-08-21T18:31:15.000Z</time>
        <extensions>
          <ns3:TrackPointExtension>
            <ns3:hr>119</ns3:hr>
            <ns3:cad>0</ns3:cad>
          </ns3:TrackPointExtension>
        </extensions>
      </trkpt>
      <trkpt lat="45.33782648853957653045654296875" lon="-70.9714059345424175262451171875">
        <ele>732.5999755859375</ele>
        <time>2026-08-21T18:31:16.000Z</time>
        <extensions>
          <ns3:TrackPointExtension>
            <ns3:hr>120</ns3:hr>
            <ns3:cad>0</ns3:cad>
          </ns3:TrackPointExtension>
        </extensions>
      </trkpt>
      <trkpt lat="45.337839312851428985595703125" lon="-70.9714082814753055572509765625">
        <ele>732.20001220703125</ele>
        <time>2026-08-21T18:31:17.000Z</time>
        <extensions>
          <ns3:TrackPointExtension>
            <ns3:hr>120</ns3:hr>
            <ns3:cad>0</ns3:cad>
          </ns3:TrackPointExtension>
        </extensions>
      </trkpt>
      <trkpt lat="45.3378488682210445404052734375" lon="-70.97141305916011333465576171875">
        <ele>731.79998779296875</ele>
        <time>2026-08-21T18:31:18.000Z</time>
        <extensions>
          <ns3:TrackPointExtension>
            <ns3:hr>119</ns3:hr>
            <ns3:cad>0</ns3:cad>
          </ns3:TrackPointExtension>
        </extensions>
      </trkpt>
      <trkpt lat="45.33785984851419925689697265625" lon="-70.97141423262655735015869140625">
        <ele>731.5999755859375</ele>
        <time>2026-08-21T18:31:19.000Z</time>
        <extensions>
          <ns3:TrackPointExtension>
            <ns3:hr>119</ns3:hr>
            <ns3:cad>0</ns3:cad>
          </ns3:TrackPointExtension>
        </extensions>
      </trkpt>
      <trkpt lat="45.33787342719733715057373046875" lon="-70.97141473554074764251708984375">
        <ele>731.4000244140625</ele>
        <time>2026-08-21T18:31:20.000Z</time>
        <extensions>
          <ns3:TrackPointExtension>
            <ns3:hr>119</ns3:hr>
            <ns3:cad>0</ns3:cad>
          </ns3:TrackPointExtension>
        </extensions>
      </trkpt>
      <trkpt lat="45.3378870896995067596435546875" lon="-70.97141456790268421173095703125">
        <ele>731</ele>
        <time>2026-08-21T18:31:21.000Z</time>
        <extensions>
          <ns3:TrackPointExtension>
            <ns3:hr>119</ns3:hr>
            <ns3:cad>0</ns3:cad>
          </ns3:TrackPointExtension>
        </extensions>
      </trkpt>
      <trkpt lat="45.33790058456361293792724609375" lon="-70.9714159928262233734130859375">
        <ele>730.79998779296875</ele>
        <time>2026-08-21T18:31:22.000Z</time>
        <extensions>
          <ns3:TrackPointExtension>
            <ns3:hr>119</ns3:hr>
            <ns3:cad>0</ns3:cad>
          </ns3:TrackPointExtension>
        </extensions>
      </trkpt>
      <trkpt lat="45.33791298978030681610107421875" lon="-70.9714240394532680511474609375">
        <ele>730.5999755859375</ele>
        <time>2026-08-21T18:31:23.000Z</time>
        <extensions>
          <ns3:TrackPointExtension>
            <ns3:hr>119</ns3:hr>
            <ns3:cad>0</ns3:cad>
          </ns3:TrackPointExtension>
        </extensions>
      </trkpt>
      <trkpt lat="45.33791936002671718597412109375" lon="-70.97143284045159816741943359375">
        <ele>730.4000244140625</ele>
        <time>2026-08-21T18:31:24.000Z</time>
        <extensions>
          <ns3:TrackPointExtension>
            <ns3:hr>120</ns3:hr>
            <ns3:cad>0</ns3:cad>
          </ns3:TrackPointExtension>
        </extensions>
      </trkpt>
      <trkpt lat="45.3379303403198719024658203125" lon="-70.97144222818315029144287109375">
        <ele>730.20001220703125</ele>
        <time>2026-08-21T18:31:25.000Z</time>
        <extensions>
          <ns3:TrackPointExtension>
            <ns3:hr>120</ns3:hr>
            <ns3:cad>0</ns3:cad>
          </ns3:TrackPointExtension>
        </extensions>
      </trkpt>
      <trkpt lat="45.3379471041262149810791015625" lon="-70.97144792787730693817138671875">
        <ele>730</ele>
        <time>2026-08-21T18:31:26.000Z</time>
        <extensions>
          <ns3:TrackPointExtension>
            <ns3:hr>120</ns3:hr>
            <ns3:cad>0</ns3:cad>
          </ns3:TrackPointExtension>
        </extensions>
      </trkpt>
      <trkpt lat="45.337966717779636383056640625" lon="-70.97144809551537036895751953125">
        <ele>729.5999755859375</ele>
        <time>2026-08-21T18:31:27.000Z</time>
        <extensions>
          <ns3:TrackPointExtension>
            <ns3:hr>120</ns3:hr>
            <ns3:cad>0</ns3:cad>
          </ns3:TrackPointExtension>
        </extensions>
      </trkpt>
      <trkpt lat="45.33797887153923511505126953125" lon="-70.9714475087821483612060546875">
        <ele>729.4000244140625</ele>
        <time>2026-08-21T18:31:28.000Z</time>
        <extensions>
          <ns3:TrackPointExtension>
            <ns3:hr>119</ns3:hr>
            <ns3:cad>0</ns3:cad>
          </ns3:TrackPointExtension>
        </extensions>
      </trkpt>
      <trkpt lat="45.3379999101161956787109375" lon="-70.9714449942111968994140625">
        <ele>729</ele>
        <time>2026-08-21T18:31:29.000Z</time>
        <extensions>
          <ns3:TrackPointExtension>
            <ns3:hr>119</ns3:hr>
            <ns3:cad>0</ns3:cad>
          </ns3:TrackPointExtension>
        </extensions>
      </trkpt>
      <trkpt lat="45.33801407553255558013916015625" lon="-70.971443988382816314697265625">
        <ele>728.5999755859375</ele>
        <time>2026-08-21T18:31:30.000Z</time>
        <extensions>
          <ns3:TrackPointExtension>
            <ns3:hr>119</ns3:hr>
            <ns3:cad>0</ns3:cad>
          </ns3:TrackPointExtension>
        </extensions>
      </trkpt>
      <trkpt lat="45.33803385682404041290283203125" lon="-70.9714300744235515594482421875">
        <ele>728.20001220703125</ele>
        <time>2026-08-21T18:31:31.000Z</time>
        <extensions>
          <ns3:TrackPointExtension>
            <ns3:hr>119</ns3:hr>
            <ns3:cad>0</ns3:cad>
          </ns3:TrackPointExtension>
        </extensions>
      </trkpt>
      <trkpt lat="45.33804357983171939849853515625" lon="-70.97141674719750881195068359375">
        <ele>727.79998779296875</ele>
        <time>2026-08-21T18:31:32.000Z</time>
        <extensions>
          <ns3:TrackPointExtension>
            <ns3:hr>120</ns3:hr>
            <ns3:cad>0</ns3:cad>
          </ns3:TrackPointExtension>
        </extensions>
      </trkpt>
      <trkpt lat="45.3380548954010009765625" lon="-70.97140518017113208770751953125">
        <ele>727.4000244140625</ele>
        <time>2026-08-21T18:31:33.000Z</time>
        <extensions>
          <ns3:TrackPointExtension>
            <ns3:hr>120</ns3:hr>
            <ns3:cad>0</ns3:cad>
          </ns3:TrackPointExtension>
        </extensions>
      </trkpt>
      <trkpt lat="45.3380694799125194549560546875" lon="-70.9714005701243877410888671875">
        <ele>727</ele>
        <time>2026-08-21T18:31:34.000Z</time>
        <extensions>
          <ns3:TrackPointExtension>
            <ns3:hr>120</ns3:hr>
            <ns3:cad>0</ns3:cad>
          </ns3:TrackPointExtension>
        </extensions>
      </trkpt>
      <trkpt lat="45.33808431588113307952880859375" lon="-70.9713995642960071563720703125">
        <ele>726.5999755859375</ele>
        <time>2026-08-21T18:31:35.000Z</time>
        <extensions>
          <ns3:TrackPointExtension>
            <ns3:hr>120</ns3:hr>
            <ns3:cad>0</ns3:cad>
          </ns3:TrackPointExtension>
        </extensions>
      </trkpt>
      <trkpt lat="45.33810250461101531982421875" lon="-70.97139847464859485626220703125">
        <ele>726.20001220703125</ele>
        <time>2026-08-21T18:31:36.000Z</time>
        <extensions>
          <ns3:TrackPointExtension>
            <ns3:hr>121</ns3:hr>
            <ns3:cad>71</ns3:cad>
          </ns3:TrackPointExtension>
        </extensions>
      </trkpt>
      <trkpt lat="45.33811884932219982147216796875" lon="-70.9713993966579437255859375">
        <ele>726</ele>
        <time>2026-08-21T18:31:37.000Z</time>
        <extensions>
          <ns3:TrackPointExtension>
            <ns3:hr>121</ns3:hr>
            <ns3:cad>71</ns3:cad>
          </ns3:TrackPointExtension>
        </extensions>
      </trkpt>
      <trkpt lat="45.33813695423305034637451171875" lon="-70.9713975526392459869384765625">
        <ele>725.5999755859375</ele>
        <time>2026-08-21T18:31:38.000Z</time>
        <extensions>
          <ns3:TrackPointExtension>
            <ns3:hr>122</ns3:hr>
            <ns3:cad>71</ns3:cad>
          </ns3:TrackPointExtension>
        </extensions>
      </trkpt>
      <trkpt lat="45.33815103583037853240966796875" lon="-70.97140165977180004119873046875">
        <ele>725.20001220703125</ele>
        <time>2026-08-21T18:31:39.000Z</time>
        <extensions>
          <ns3:TrackPointExtension>
            <ns3:hr>122</ns3:hr>
            <ns3:cad>71</ns3:cad>
          </ns3:TrackPointExtension>
        </extensions>
      </trkpt>
      <trkpt lat="45.33816955983638763427734375" lon="-70.9714089520275592803955078125">
        <ele>724.79998779296875</ele>
        <time>2026-08-21T18:31:40.000Z</time>
        <extensions>
          <ns3:TrackPointExtension>
            <ns3:hr>123</ns3:hr>
            <ns3:cad>71</ns3:cad>
          </ns3:TrackPointExtension>
        </extensions>
      </trkpt>
      <trkpt lat="45.33818406052887439727783203125" lon="-70.971413813531398773193359375">
        <ele>724.4000244140625</ele>
        <time>2026-08-21T18:31:41.000Z</time>
        <extensions>
          <ns3:TrackPointExtension>
            <ns3:hr>124</ns3:hr>
            <ns3:cad>71</ns3:cad>
          </ns3:TrackPointExtension>
        </extensions>
      </trkpt>
      <trkpt lat="45.338199399411678314208984375" lon="-70.9714216925203800201416015625">
        <ele>724.20001220703125</ele>
        <time>2026-08-21T18:31:42.000Z</time>
        <extensions>
          <ns3:TrackPointExtension>
            <ns3:hr>124</ns3:hr>
            <ns3:cad>71</ns3:cad>
          </ns3:TrackPointExtension>
        </extensions>
      </trkpt>
      <trkpt lat="45.3382119722664356231689453125" lon="-70.97142026759684085845947265625">
        <ele>724</ele>
        <time>2026-08-21T18:31:43.000Z</time>
        <extensions>
          <ns3:TrackPointExtension>
            <ns3:hr>123</ns3:hr>
            <ns3:cad>71</ns3:cad>
          </ns3:TrackPointExtension>
        </extensions>
      </trkpt>
      <trkpt lat="45.33823234029114246368408203125" lon="-70.97142093814909458160400390625">
        <ele>723.79998779296875</ele>
        <time>2026-08-21T18:31:44.000Z</time>
        <extensions>
          <ns3:TrackPointExtension>
            <ns3:hr>122</ns3:hr>
            <ns3:cad>0</ns3:cad>
          </ns3:TrackPointExtension>
        </extensions>
      </trkpt>
      <trkpt lat="45.338247008621692657470703125" lon="-70.97142110578715801239013671875">
        <ele>723.4000244140625</ele>
        <time>2026-08-21T18:31:45.000Z</time>
        <extensions>
          <ns3:TrackPointExtension>
            <ns3:hr>122</ns3:hr>
            <ns3:cad>0</ns3:cad>
          </ns3:TrackPointExtension>
        </extensions>
      </trkpt>
      <trkpt lat="45.33826050348579883575439453125" lon="-70.97141322679817676544189453125">
        <ele>723.20001220703125</ele>
        <time>2026-08-21T18:31:46.000Z</time>
        <extensions>
          <ns3:TrackPointExtension>
            <ns3:hr>121</ns3:hr>
            <ns3:cad>0</ns3:cad>
          </ns3:TrackPointExtension>
        </extensions>
      </trkpt>
      <trkpt lat="45.33827341161668300628662109375" lon="-70.97140677273273468017578125">
        <ele>723</ele>
        <time>2026-08-21T18:31:47.000Z</time>
        <extensions>
          <ns3:TrackPointExtension>
            <ns3:hr>121</ns3:hr>
            <ns3:cad>55</ns3:cad>
          </ns3:TrackPointExtension>
        </extensions>
      </trkpt>
      <trkpt lat="45.3382884152233600616455078125" lon="-70.9714042581617832183837890625">
        <ele>722.79998779296875</ele>
        <time>2026-08-21T18:31:48.000Z</time>
        <extensions>
          <ns3:TrackPointExtension>
            <ns3:hr>121</ns3:hr>
            <ns3:cad>55</ns3:cad>
          </ns3:TrackPointExtension>
        </extensions>
      </trkpt>
      <trkpt lat="45.33830358646810054779052734375" lon="-70.971408784389495849609375">
        <ele>722.4000244140625</ele>
        <time>2026-08-21T18:31:49.000Z</time>
        <extensions>
          <ns3:TrackPointExtension>
            <ns3:hr>120</ns3:hr>
            <ns3:cad>55</ns3:cad>
          </ns3:TrackPointExtension>
        </extensions>
      </trkpt>
      <trkpt lat="45.33831699751317501068115234375" lon="-70.971412472426891326904296875">
        <ele>722.20001220703125</ele>
        <time>2026-08-21T18:31:50.000Z</time>
        <extensions>
          <ns3:TrackPointExtension>
            <ns3:hr>119</ns3:hr>
            <ns3:cad>55</ns3:cad>
          </ns3:TrackPointExtension>
        </extensions>
      </trkpt>
      <trkpt lat="45.33833443187177181243896484375" lon="-70.97141188569366931915283203125">
        <ele>721.79998779296875</ele>
        <time>2026-08-21T18:31:51.000Z</time>
        <extensions>
          <ns3:TrackPointExtension>
            <ns3:hr>118</ns3:hr>
            <ns3:cad>0</ns3:cad>
          </ns3:TrackPointExtension>
        </extensions>
      </trkpt>
      <trkpt lat="45.338344909250736236572265625" lon="-70.971408784389495849609375">
        <ele>721.5999755859375</ele>
        <time>2026-08-21T18:31:52.000Z</time>
        <extensions>
          <ns3:TrackPointExtension>
            <ns3:hr>118</ns3:hr>
            <ns3:cad>0</ns3:cad>
          </ns3:TrackPointExtension>
        </extensions>
      </trkpt>
      <trkpt lat="45.3383571468293666839599609375" lon="-70.97139948047697544097900390625">
        <ele>721.4000244140625</ele>
        <time>2026-08-21T18:31:53.000Z</time>
        <extensions>
          <ns3:TrackPointExtension>
            <ns3:hr>118</ns3:hr>
            <ns3:cad>0</ns3:cad>
          </ns3:TrackPointExtension>
        </extensions>
      </trkpt>
      <trkpt lat="45.3383682109415531158447265625" lon="-70.97139378078281879425048828125">
        <ele>721</ele>
        <time>2026-08-21T18:31:54.000Z</time>
        <extensions>
          <ns3:TrackPointExtension>
            <ns3:hr>118</ns3:hr>
            <ns3:cad>0</ns3:cad>
          </ns3:TrackPointExtension>
        </extensions>
      </trkpt>
      <trkpt lat="45.3383866511285305023193359375" lon="-70.97139277495443820953369140625">
        <ele>720.79998779296875</ele>
        <time>2026-08-21T18:31:55.000Z</time>
        <extensions>
          <ns3:TrackPointExtension>
            <ns3:hr>118</ns3:hr>
            <ns3:cad>0</ns3:cad>
          </ns3:TrackPointExtension>
        </extensions>
      </trkpt>
      <trkpt lat="45.33840031363070011138916015625" lon="-70.97139629535377025604248046875">
        <ele>720.4000244140625</ele>
        <time>2026-08-21T18:31:56.000Z</time>
        <extensions>
          <ns3:TrackPointExtension>
            <ns3:hr>118</ns3:hr>
            <ns3:cad>0</ns3:cad>
          </ns3:TrackPointExtension>
        </extensions>
      </trkpt>
      <trkpt lat="45.33841975964605808258056640625" lon="-70.97139067947864532470703125">
        <ele>720.20001220703125</ele>
        <time>2026-08-21T18:31:57.000Z</time>
        <extensions>
          <ns3:TrackPointExtension>
            <ns3:hr>118</ns3:hr>
            <ns3:cad>0</ns3:cad>
          </ns3:TrackPointExtension>
        </extensions>
      </trkpt>
      <trkpt lat="45.33843266777694225311279296875" lon="-70.97138439305126667022705078125">
        <ele>719.79998779296875</ele>
        <time>2026-08-21T18:31:58.000Z</time>
        <extensions>
          <ns3:TrackPointExtension>
            <ns3:hr>118</ns3:hr>
            <ns3:cad>0</ns3:cad>
          </ns3:TrackPointExtension>
        </extensions>
      </trkpt>
      <trkpt lat="45.33845261670649051666259765625" lon="-70.97138389013707637786865234375">
        <ele>719.4000244140625</ele>
        <time>2026-08-21T18:31:59.000Z</time>
        <extensions>
          <ns3:TrackPointExtension>
            <ns3:hr>118</ns3:hr>
            <ns3:cad>0</ns3:cad>
          </ns3:TrackPointExtension>
        </extensions>
      </trkpt>
      <trkpt lat="45.33846636302769184112548828125" lon="-70.9713911823928356170654296875">
        <ele>719</ele>
        <time>2026-08-21T18:32:00.000Z</time>
        <extensions>
          <ns3:TrackPointExtension>
            <ns3:hr>118</ns3:hr>
            <ns3:cad>0</ns3:cad>
          </ns3:TrackPointExtension>
        </extensions>
      </trkpt>
      <trkpt lat="45.33847742713987827301025390625" lon="-70.971391685307025909423828125">
        <ele>718.79998779296875</ele>
        <time>2026-08-21T18:32:01.000Z</time>
        <extensions>
          <ns3:TrackPointExtension>
            <ns3:hr>118</ns3:hr>
            <ns3:cad>0</ns3:cad>
          </ns3:TrackPointExtension>
        </extensions>
      </trkpt>
      <trkpt lat="45.3385039977729320526123046875" lon="-70.971385650336742401123046875">
        <ele>718.5999755859375</ele>
        <time>2026-08-21T18:32:02.000Z</time>
        <extensions>
          <ns3:TrackPointExtension>
            <ns3:hr>118</ns3:hr>
            <ns3:cad>0</ns3:cad>
          </ns3:TrackPointExtension>
        </extensions>
      </trkpt>
      <trkpt lat="45.33852168358862400054931640625" lon="-70.97138129174709320068359375">
        <ele>718.20001220703125</ele>
        <time>2026-08-21T18:32:03.000Z</time>
        <extensions>
          <ns3:TrackPointExtension>
            <ns3:hr>118</ns3:hr>
            <ns3:cad>0</ns3:cad>
          </ns3:TrackPointExtension>
        </extensions>
      </trkpt>
      <trkpt lat="45.33853727392852306365966796875" lon="-70.97137902863323688507080078125">
        <ele>718</ele>
        <time>2026-08-21T18:32:04.000Z</time>
        <extensions>
          <ns3:TrackPointExtension>
            <ns3:hr>118</ns3:hr>
            <ns3:cad>0</ns3:cad>
          </ns3:TrackPointExtension>
        </extensions>
      </trkpt>
      <trkpt lat="45.3385482542216777801513671875" lon="-70.9713848121464252471923828125">
        <ele>717.5999755859375</ele>
        <time>2026-08-21T18:32:05.000Z</time>
        <extensions>
          <ns3:TrackPointExtension>
            <ns3:hr>119</ns3:hr>
            <ns3:cad>0</ns3:cad>
          </ns3:TrackPointExtension>
        </extensions>
      </trkpt>
      <trkpt lat="45.33855990506708621978759765625" lon="-70.9713968820869922637939453125">
        <ele>717.20001220703125</ele>
        <time>2026-08-21T18:32:06.000Z</time>
        <extensions>
          <ns3:TrackPointExtension>
            <ns3:hr>119</ns3:hr>
            <ns3:cad>0</ns3:cad>
          </ns3:TrackPointExtension>
        </extensions>
      </trkpt>
      <trkpt lat="45.33856711350381374359130859375" lon="-70.9713967144489288330078125">
        <ele>717</ele>
        <time>2026-08-21T18:32:07.000Z</time>
        <extensions>
          <ns3:TrackPointExtension>
            <ns3:hr>119</ns3:hr>
            <ns3:cad>0</ns3:cad>
          </ns3:TrackPointExtension>
        </extensions>
      </trkpt>
      <trkpt lat="45.33858052454888820648193359375" lon="-70.9713928587734699249267578125">
        <ele>716.5999755859375</ele>
        <time>2026-08-21T18:32:08.000Z</time>
        <extensions>
          <ns3:TrackPointExtension>
            <ns3:hr>120</ns3:hr>
            <ns3:cad>0</ns3:cad>
          </ns3:TrackPointExtension>
        </extensions>
      </trkpt>
      <trkpt lat="45.33859125338494777679443359375" lon="-70.971391014754772186279296875">
        <ele>716.20001220703125</ele>
        <time>2026-08-21T18:32:09.000Z</time>
        <extensions>
          <ns3:TrackPointExtension>
            <ns3:hr>120</ns3:hr>
            <ns3:cad>0</ns3:cad>
          </ns3:TrackPointExtension>
        </extensions>
      </trkpt>
      <trkpt lat="45.33860198222100734710693359375" lon="-70.97138238139450550079345703125">
        <ele>715.79998779296875</ele>
        <time>2026-08-21T18:32:10.000Z</time>
        <extensions>
          <ns3:TrackPointExtension>
            <ns3:hr>119</ns3:hr>
            <ns3:cad>0</ns3:cad>
          </ns3:TrackPointExtension>
        </extensions>
      </trkpt>
      <trkpt lat="45.3386159799993038177490234375" lon="-70.9713801182806491851806640625">
        <ele>715.4000244140625</ele>
        <time>2026-08-21T18:32:11.000Z</time>
        <extensions>
          <ns3:TrackPointExtension>
            <ns3:hr>119</ns3:hr>
            <ns3:cad>0</ns3:cad>
          </ns3:TrackPointExtension>
        </extensions>
      </trkpt>
      <trkpt lat="45.33862628974020481109619140625" lon="-70.9713821299374103546142578125">
        <ele>715</ele>
        <time>2026-08-21T18:32:12.000Z</time>
        <extensions>
          <ns3:TrackPointExtension>
            <ns3:hr>119</ns3:hr>
            <ns3:cad>0</ns3:cad>
          </ns3:TrackPointExtension>
        </extensions>
      </trkpt>
      <trkpt lat="45.33863919787108898162841796875" lon="-70.97139730118215084075927734375">
        <ele>714.5999755859375</ele>
        <time>2026-08-21T18:32:13.000Z</time>
        <extensions>
          <ns3:TrackPointExtension>
            <ns3:hr>119</ns3:hr>
            <ns3:cad>0</ns3:cad>
          </ns3:TrackPointExtension>
        </extensions>
      </trkpt>
      <trkpt lat="45.33865235745906829833984375" lon="-70.97140618599951267242431640625">
        <ele>714.20001220703125</ele>
        <time>2026-08-21T18:32:14.000Z</time>
        <extensions>
          <ns3:TrackPointExtension>
            <ns3:hr>120</ns3:hr>
            <ns3:cad>40</ns3:cad>
          </ns3:TrackPointExtension>
        </extensions>
      </trkpt>
      <trkpt lat="45.3386649303138256072998046875" lon="-70.97141104750335216522216796875">
        <ele>713.79998779296875</ele>
        <time>2026-08-21T18:32:15.000Z</time>
        <extensions>
          <ns3:TrackPointExtension>
            <ns3:hr>120</ns3:hr>
            <ns3:cad>40</ns3:cad>
          </ns3:TrackPointExtension>
        </extensions>
      </trkpt>
      <trkpt lat="45.3386813588440418243408203125" lon="-70.971419177949428558349609375">
        <ele>713.4000244140625</ele>
        <time>2026-08-21T18:32:16.000Z</time>
        <extensions>
          <ns3:TrackPointExtension>
            <ns3:hr>121</ns3:hr>
            <ns3:cad>79</ns3:cad>
          </ns3:TrackPointExtension>
        </extensions>
      </trkpt>
      <trkpt lat="45.33869535662233829498291015625" lon="-70.971425883471965789794921875">
        <ele>713</ele>
        <time>2026-08-21T18:32:17.000Z</time>
        <extensions>
          <ns3:TrackPointExtension>
            <ns3:hr>122</ns3:hr>
            <ns3:cad>79</ns3:cad>
          </ns3:TrackPointExtension>
        </extensions>
      </trkpt>
      <trkpt lat="45.33871396444737911224365234375" lon="-70.97143082879483699798583984375">
        <ele>712.79998779296875</ele>
        <time>2026-08-21T18:32:18.000Z</time>
        <extensions>
          <ns3:TrackPointExtension>
            <ns3:hr>122</ns3:hr>
            <ns3:cad>79</ns3:cad>
          </ns3:TrackPointExtension>
        </extensions>
      </trkpt>
      <trkpt lat="45.3387299738824367523193359375" lon="-70.9714283980429172515869140625">
        <ele>712.4000244140625</ele>
        <time>2026-08-21T18:32:19.000Z</time>
        <extensions>
          <ns3:TrackPointExtension>
            <ns3:hr>122</ns3:hr>
            <ns3:cad>79</ns3:cad>
          </ns3:TrackPointExtension>
        </extensions>
      </trkpt>
      <trkpt lat="45.33874531276524066925048828125" lon="-70.97142496146261692047119140625">
        <ele>712</ele>
        <time>2026-08-21T18:32:20.000Z</time>
        <extensions>
          <ns3:TrackPointExtension>
            <ns3:hr>123</ns3:hr>
            <ns3:cad>79</ns3:cad>
          </ns3:TrackPointExtension>
        </extensions>
      </trkpt>
      <trkpt lat="45.3387629985809326171875" lon="-70.97142680548131465911865234375">
        <ele>711.5999755859375</ele>
        <time>2026-08-21T18:32:21.000Z</time>
        <extensions>
          <ns3:TrackPointExtension>
            <ns3:hr>123</ns3:hr>
            <ns3:cad>79</ns3:cad>
          </ns3:TrackPointExtension>
        </extensions>
      </trkpt>
      <trkpt lat="45.338780097663402557373046875" lon="-70.97142898477613925933837890625">
        <ele>711</ele>
        <time>2026-08-21T18:32:22.000Z</time>
        <extensions>
          <ns3:TrackPointExtension>
            <ns3:hr>122</ns3:hr>
            <ns3:cad>79</ns3:cad>
          </ns3:TrackPointExtension>
        </extensions>
      </trkpt>
      <trkpt lat="45.33879325725138187408447265625" lon="-70.971421860158443450927734375">
        <ele>710.5999755859375</ele>
        <time>2026-08-21T18:32:23.000Z</time>
        <extensions>
          <ns3:TrackPointExtension>
            <ns3:hr>123</ns3:hr>
            <ns3:cad>75</ns3:cad>
          </ns3:TrackPointExtension>
        </extensions>
      </trkpt>
      <trkpt lat="45.338806919753551483154296875" lon="-70.9714149869978427886962890625">
        <ele>710.20001220703125</ele>
        <time>2026-08-21T18:32:24.000Z</time>
        <extensions>
          <ns3:TrackPointExtension>
            <ns3:hr>124</ns3:hr>
            <ns3:cad>69</ns3:cad>
          </ns3:TrackPointExtension>
        </extensions>
      </trkpt>
      <trkpt lat="45.33882209099829196929931640625" lon="-70.971408784389495849609375">
        <ele>709.79998779296875</ele>
        <time>2026-08-21T18:32:25.000Z</time>
        <extensions>
          <ns3:TrackPointExtension>
            <ns3:hr>124</ns3:hr>
            <ns3:cad>69</ns3:cad>
          </ns3:TrackPointExtension>
        </extensions>
      </trkpt>
      <trkpt lat="45.33883483149111270904541015625" lon="-70.9714020788669586181640625">
        <ele>709.5999755859375</ele>
        <time>2026-08-21T18:32:26.000Z</time>
        <extensions>
          <ns3:TrackPointExtension>
            <ns3:hr>123</ns3:hr>
            <ns3:cad>68</ns3:cad>
          </ns3:TrackPointExtension>
        </extensions>
      </trkpt>
      <trkpt lat="45.33884681761264801025390625" lon="-70.9713925234973430633544921875">
        <ele>709.4000244140625</ele>
        <time>2026-08-21T18:32:27.000Z</time>
        <extensions>
          <ns3:TrackPointExtension>
            <ns3:hr>123</ns3:hr>
            <ns3:cad>68</ns3:cad>
          </ns3:TrackPointExtension>
        </extensions>
      </trkpt>
      <trkpt lat="45.33886048011481761932373046875" lon="-70.9713885001838207244873046875">
        <ele>709.20001220703125</ele>
        <time>2026-08-21T18:32:28.000Z</time>
        <extensions>
          <ns3:TrackPointExtension>
            <ns3:hr>123</ns3:hr>
            <ns3:cad>68</ns3:cad>
          </ns3:TrackPointExtension>
        </extensions>
      </trkpt>
      <trkpt lat="45.33887095749378204345703125" lon="-70.97138690762221813201904296875">
        <ele>708.79998779296875</ele>
        <time>2026-08-21T18:32:29.000Z</time>
        <extensions>
          <ns3:TrackPointExtension>
            <ns3:hr>123</ns3:hr>
            <ns3:cad>0</ns3:cad>
          </ns3:TrackPointExtension>
        </extensions>
      </trkpt>
      <trkpt lat="45.33887892030179500579833984375" lon="-70.9713913500308990478515625">
        <ele>708.4000244140625</ele>
        <time>2026-08-21T18:32:30.000Z</time>
        <extensions>
          <ns3:TrackPointExtension>
            <ns3:hr>122</ns3:hr>
            <ns3:cad>0</ns3:cad>
          </ns3:TrackPointExtension>
        </extensions>
      </trkpt>
      <trkpt lat="45.3388850390911102294921875" lon="-70.9713905118405818939208984375">
        <ele>707.79998779296875</ele>
        <time>2026-08-21T18:32:31.000Z</time>
        <extensions>
          <ns3:TrackPointExtension>
            <ns3:hr>122</ns3:hr>
            <ns3:cad>0</ns3:cad>
          </ns3:TrackPointExtension>
        </extensions>
      </trkpt>
      <trkpt lat="45.33889216370880603790283203125" lon="-70.971384309232234954833984375">
        <ele>707.4000244140625</ele>
        <time>2026-08-21T18:32:32.000Z</time>
        <extensions>
          <ns3:TrackPointExtension>
            <ns3:hr>123</ns3:hr>
            <ns3:cad>0</ns3:cad>
          </ns3:TrackPointExtension>
        </extensions>
      </trkpt>
      <trkpt lat="45.3388966061174869537353515625" lon="-70.9713807888329029083251953125">
        <ele>707.20001220703125</ele>
        <time>2026-08-21T18:32:33.000Z</time>
        <extensions>
          <ns3:TrackPointExtension>
            <ns3:hr>123</ns3:hr>
            <ns3:cad>41</ns3:cad>
          </ns3:TrackPointExtension>
        </extensions>
      </trkpt>
      <trkpt lat="45.338908173143863677978515625" lon="-70.97137718461453914642333984375">
        <ele>707</ele>
        <time>2026-08-21T18:32:34.000Z</time>
        <extensions>
          <ns3:TrackPointExtension>
            <ns3:hr>124</ns3:hr>
            <ns3:cad>41</ns3:cad>
          </ns3:TrackPointExtension>
        </extensions>
      </trkpt>
      <trkpt lat="45.3389160521328449249267578125" lon="-70.9713693894445896148681640625">
        <ele>706.5999755859375</ele>
        <time>2026-08-21T18:32:35.000Z</time>
        <extensions>
          <ns3:TrackPointExtension>
            <ns3:hr>124</ns3:hr>
            <ns3:cad>41</ns3:cad>
          </ns3:TrackPointExtension>
        </extensions>
      </trkpt>
      <trkpt lat="45.338923595845699310302734375" lon="-70.97136276774108409881591796875">
        <ele>706.4000244140625</ele>
        <time>2026-08-21T18:32:36.000Z</time>
        <extensions>
          <ns3:TrackPointExtension>
            <ns3:hr>124</ns3:hr>
            <ns3:cad>41</ns3:cad>
          </ns3:TrackPointExtension>
        </extensions>
      </trkpt>
      <trkpt lat="45.33892787061631679534912109375" lon="-70.97135857678949832916259765625">
        <ele>706</ele>
        <time>2026-08-21T18:32:37.000Z</time>
        <extensions>
          <ns3:TrackPointExtension>
            <ns3:hr>123</ns3:hr>
            <ns3:cad>41</ns3:cad>
          </ns3:TrackPointExtension>
        </extensions>
      </trkpt>
      <trkpt lat="45.33893658779561519622802734375" lon="-70.9713563136756420135498046875">
        <ele>705.79998779296875</ele>
        <time>2026-08-21T18:32:38.000Z</time>
        <extensions>
          <ns3:TrackPointExtension>
            <ns3:hr>123</ns3:hr>
            <ns3:cad>41</ns3:cad>
          </ns3:TrackPointExtension>
        </extensions>
      </trkpt>
      <trkpt lat="45.33895083703100681304931640625" lon="-70.971364863216876983642578125">
        <ele>705.4000244140625</ele>
        <time>2026-08-21T18:32:39.000Z</time>
        <extensions>
          <ns3:TrackPointExtension>
            <ns3:hr>122</ns3:hr>
            <ns3:cad>41</ns3:cad>
          </ns3:TrackPointExtension>
        </extensions>
      </trkpt>
      <trkpt lat="45.33897045068442821502685546875" lon="-70.9713640250265598297119140625">
        <ele>705</ele>
        <time>2026-08-21T18:32:40.000Z</time>
        <extensions>
          <ns3:TrackPointExtension>
            <ns3:hr>121</ns3:hr>
            <ns3:cad>41</ns3:cad>
          </ns3:TrackPointExtension>
        </extensions>
      </trkpt>
      <trkpt lat="45.33897631801664829254150390625" lon="-70.97135002724826335906982421875">
        <ele>704.79998779296875</ele>
        <time>2026-08-21T18:32:41.000Z</time>
        <extensions>
          <ns3:TrackPointExtension>
            <ns3:hr>121</ns3:hr>
            <ns3:cad>0</ns3:cad>
          </ns3:TrackPointExtension>
        </extensions>
      </trkpt>
      <trkpt lat="45.33898889087140560150146484375" lon="-70.97132186405360698699951171875">
        <ele>704.5999755859375</ele>
        <time>2026-08-21T18:32:42.000Z</time>
        <extensions>
          <ns3:TrackPointExtension>
            <ns3:hr>121</ns3:hr>
            <ns3:cad>0</ns3:cad>
          </ns3:TrackPointExtension>
        </extensions>
      </trkpt>
      <trkpt lat="45.33900163136422634124755859375" lon="-70.97128833644092082977294921875">
        <ele>704.5999755859375</ele>
        <time>2026-08-21T18:32:43.000Z</time>
        <extensions>
          <ns3:TrackPointExtension>
            <ns3:hr>120</ns3:hr>
            <ns3:cad>0</ns3:cad>
          </ns3:TrackPointExtension>
        </extensions>
      </trkpt>
      <trkpt lat="45.33901043236255645751953125" lon="-70.97126352600753307342529296875">
        <ele>704.79998779296875</ele>
        <time>2026-08-21T18:32:44.000Z</time>
        <extensions>
          <ns3:TrackPointExtension>
            <ns3:hr>120</ns3:hr>
            <ns3:cad>0</ns3:cad>
          </ns3:TrackPointExtension>
        </extensions>
      </trkpt>
      <trkpt lat="45.33901990391314029693603515625" lon="-70.9712362848222255706787109375">
        <ele>705</ele>
        <time>2026-08-21T18:32:45.000Z</time>
        <extensions>
          <ns3:TrackPointExtension>
            <ns3:hr>120</ns3:hr>
            <ns3:cad>0</ns3:cad>
          </ns3:TrackPointExtension>
        </extensions>
      </trkpt>
      <trkpt lat="45.33902652561664581298828125" lon="-70.97121507860720157623291015625">
        <ele>705</ele>
        <time>2026-08-21T18:32:46.000Z</time>
        <extensions>
          <ns3:TrackPointExtension>
            <ns3:hr>120</ns3:hr>
            <ns3:cad>0</ns3:cad>
          </ns3:TrackPointExtension>
        </extensions>
      </trkpt>
      <trkpt lat="45.33903532661497592926025390625" lon="-70.97118004225194454193115234375">
        <ele>705</ele>
        <time>2026-08-21T18:32:47.000Z</time>
        <extensions>
          <ns3:TrackPointExtension>
            <ns3:hr>121</ns3:hr>
            <ns3:cad>0</ns3:cad>
          </ns3:TrackPointExtension>
        </extensions>
      </trkpt>
      <trkpt lat="45.33904320560395717620849609375" lon="-70.97114928066730499267578125">
        <ele>704.79998779296875</ele>
        <time>2026-08-21T18:32:48.000Z</time>
        <extensions>
          <ns3:TrackPointExtension>
            <ns3:hr>122</ns3:hr>
            <ns3:cad>75</ns3:cad>
          </ns3:TrackPointExtension>
        </extensions>
      </trkpt>
      <trkpt lat="45.3390498273074626922607421875" lon="-70.97112975083291530609130859375">
        <ele>704.5999755859375</ele>
        <time>2026-08-21T18:32:49.000Z</time>
        <extensions>
          <ns3:TrackPointExtension>
            <ns3:hr>122</ns3:hr>
            <ns3:cad>75</ns3:cad>
          </ns3:TrackPointExtension>
        </extensions>
      </trkpt>
      <trkpt lat="45.33906147815287113189697265625" lon="-70.9711031801998615264892578125">
        <ele>704.4000244140625</ele>
        <time>2026-08-21T18:32:50.000Z</time>
        <extensions>
          <ns3:TrackPointExtension>
            <ns3:hr>122</ns3:hr>
            <ns3:cad>75</ns3:cad>
          </ns3:TrackPointExtension>
        </extensions>
      </trkpt>
      <trkpt lat="45.33906675875186920166015625" lon="-70.97107895649969577789306640625">
        <ele>704.20001220703125</ele>
        <time>2026-08-21T18:32:51.000Z</time>
        <extensions>
          <ns3:TrackPointExtension>
            <ns3:hr>123</ns3:hr>
            <ns3:cad>75</ns3:cad>
          </ns3:TrackPointExtension>
        </extensions>
      </trkpt>
      <trkpt lat="45.33907472155988216400146484375" lon="-70.971050374209880828857421875">
        <ele>704.20001220703125</ele>
        <time>2026-08-21T18:32:52.000Z</time>
        <extensions>
          <ns3:TrackPointExtension>
            <ns3:hr>124</ns3:hr>
            <ns3:cad>75</ns3:cad>
          </ns3:TrackPointExtension>
        </extensions>
      </trkpt>
      <trkpt lat="45.3390846960246562957763671875" lon="-70.97102715633809566497802734375">
        <ele>704</ele>
        <time>2026-08-21T18:32:53.000Z</time>
        <extensions>
          <ns3:TrackPointExtension>
            <ns3:hr>125</ns3:hr>
            <ns3:cad>75</ns3:cad>
          </ns3:TrackPointExtension>
        </extensions>
      </trkpt>
      <trkpt lat="45.33909626305103302001953125" lon="-70.97100804559886455535888671875">
        <ele>704</ele>
        <time>2026-08-21T18:32:54.000Z</time>
        <extensions>
          <ns3:TrackPointExtension>
            <ns3:hr>125</ns3:hr>
            <ns3:cad>75</ns3:cad>
          </ns3:TrackPointExtension>
        </extensions>
      </trkpt>
      <trkpt lat="45.3391088359057903289794921875" lon="-70.97098977304995059967041015625">
        <ele>703.79998779296875</ele>
        <time>2026-08-21T18:32:55.000Z</time>
        <extensions>
          <ns3:TrackPointExtension>
            <ns3:hr>124</ns3:hr>
            <ns3:cad>75</ns3:cad>
          </ns3:TrackPointExtension>
        </extensions>
      </trkpt>
      <trkpt lat="45.3391239233314990997314453125" lon="-70.97097887657582759857177734375">
        <ele>703.5999755859375</ele>
        <time>2026-08-21T18:32:56.000Z</time>
        <extensions>
          <ns3:TrackPointExtension>
            <ns3:hr>124</ns3:hr>
            <ns3:cad>73</ns3:cad>
          </ns3:TrackPointExtension>
        </extensions>
      </trkpt>
      <trkpt lat="45.33914186060428619384765625" lon="-70.97097015939652919769287109375">
        <ele>703.4000244140625</ele>
        <time>2026-08-21T18:32:57.000Z</time>
        <extensions>
          <ns3:TrackPointExtension>
            <ns3:hr>124</ns3:hr>
            <ns3:cad>73</ns3:cad>
          </ns3:TrackPointExtension>
        </extensions>
      </trkpt>
      <trkpt lat="45.3391587920486927032470703125" lon="-70.970965214073657989501953125">
        <ele>703.20001220703125</ele>
        <time>2026-08-21T18:32:58.000Z</time>
        <extensions>
          <ns3:TrackPointExtension>
            <ns3:hr>124</ns3:hr>
            <ns3:cad>73</ns3:cad>
          </ns3:TrackPointExtension>
        </extensions>
      </trkpt>
      <trkpt lat="45.33917429856956005096435546875" lon="-70.970963537693023681640625">
        <ele>703</ele>
        <time>2026-08-21T18:32:59.000Z</time>
        <extensions>
          <ns3:TrackPointExtension>
            <ns3:hr>124</ns3:hr>
            <ns3:cad>73</ns3:cad>
          </ns3:TrackPointExtension>
        </extensions>
      </trkpt>
      <trkpt lat="45.3391893021762371063232421875" lon="-70.9709613583981990814208984375">
        <ele>702.79998779296875</ele>
        <time>2026-08-21T18:33:00.000Z</time>
        <extensions>
          <ns3:TrackPointExtension>
            <ns3:hr>125</ns3:hr>
            <ns3:cad>73</ns3:cad>
          </ns3:TrackPointExtension>
        </extensions>
      </trkpt>
      <trkpt lat="45.3392043896019458770751953125" lon="-70.97096395678818225860595703125">
        <ele>702.4000244140625</ele>
        <time>2026-08-21T18:33:01.000Z</time>
        <extensions>
          <ns3:TrackPointExtension>
            <ns3:hr>125</ns3:hr>
            <ns3:cad>73</ns3:cad>
          </ns3:TrackPointExtension>
        </extensions>
      </trkpt>
      <trkpt lat="45.3392201475799083709716796875" lon="-70.97096823155879974365234375">
        <ele>702.20001220703125</ele>
        <time>2026-08-21T18:33:02.000Z</time>
        <extensions>
          <ns3:TrackPointExtension>
            <ns3:hr>126</ns3:hr>
            <ns3:cad>73</ns3:cad>
          </ns3:TrackPointExtension>
        </extensions>
      </trkpt>
      <trkpt lat="45.339232720434665679931640625" lon="-70.9709737636148929595947265625">
        <ele>701.79998779296875</ele>
        <time>2026-08-21T18:33:03.000Z</time>
        <extensions>
          <ns3:TrackPointExtension>
            <ns3:hr>126</ns3:hr>
            <ns3:cad>73</ns3:cad>
          </ns3:TrackPointExtension>
        </extensions>
      </trkpt>
      <trkpt lat="45.339240767061710357666015625" lon="-70.97098407335579395294189453125">
        <ele>701.5999755859375</ele>
        <time>2026-08-21T18:33:04.000Z</time>
        <extensions>
          <ns3:TrackPointExtension>
            <ns3:hr>126</ns3:hr>
            <ns3:cad>73</ns3:cad>
          </ns3:TrackPointExtension>
        </extensions>
      </trkpt>
      <trkpt lat="45.33925627358257770538330078125" lon="-70.9709965623915195465087890625">
        <ele>701.20001220703125</ele>
        <time>2026-08-21T18:33:05.000Z</time>
        <extensions>
          <ns3:TrackPointExtension>
            <ns3:hr>126</ns3:hr>
            <ns3:cad>73</ns3:cad>
          </ns3:TrackPointExtension>
        </extensions>
      </trkpt>
      <trkpt lat="45.339266248047351837158203125" lon="-70.97100578248500823974609375">
        <ele>701</ele>
        <time>2026-08-21T18:33:06.000Z</time>
        <extensions>
          <ns3:TrackPointExtension>
            <ns3:hr>126</ns3:hr>
            <ns3:cad>73</ns3:cad>
          </ns3:TrackPointExtension>
        </extensions>
      </trkpt>
      <trkpt lat="45.3392761386930942535400390625" lon="-70.97101709805428981781005859375">
        <ele>700.5999755859375</ele>
        <time>2026-08-21T18:33:07.000Z</time>
        <extensions>
          <ns3:TrackPointExtension>
            <ns3:hr>127</ns3:hr>
            <ns3:cad>0</ns3:cad>
          </ns3:TrackPointExtension>
        </extensions>
      </trkpt>
      <trkpt lat="45.3392888791859149932861328125" lon="-70.97103084437549114227294921875">
        <ele>700.20001220703125</ele>
        <time>2026-08-21T18:33:08.000Z</time>
        <extensions>
          <ns3:TrackPointExtension>
            <ns3:hr>127</ns3:hr>
            <ns3:cad>0</ns3:cad>
          </ns3:TrackPointExtension>
        </extensions>
      </trkpt>
      <trkpt lat="45.3392999432981014251708984375" lon="-70.971039645373821258544921875">
        <ele>700</ele>
        <time>2026-08-21T18:33:09.000Z</time>
        <extensions>
          <ns3:TrackPointExtension>
            <ns3:hr>127</ns3:hr>
            <ns3:cad>0</ns3:cad>
          </ns3:TrackPointExtension>
        </extensions>
      </trkpt>
      <trkpt lat="45.33931486308574676513671875" lon="-70.97104492597281932830810546875">
        <ele>699.5999755859375</ele>
        <time>2026-08-21T18:33:10.000Z</time>
        <extensions>
          <ns3:TrackPointExtension>
            <ns3:hr>128</ns3:hr>
            <ns3:cad>71</ns3:cad>
          </ns3:TrackPointExtension>
        </extensions>
      </trkpt>
      <trkpt lat="45.33932617865502834320068359375" lon="-70.971045009791851043701171875">
        <ele>699.20001220703125</ele>
        <time>2026-08-21T18:33:11.000Z</time>
        <extensions>
          <ns3:TrackPointExtension>
            <ns3:hr>127</ns3:hr>
            <ns3:cad>71</ns3:cad>
          </ns3:TrackPointExtension>
        </extensions>
      </trkpt>
      <trkpt lat="45.3393361531198024749755859375" lon="-70.97103939391672611236572265625">
        <ele>699</ele>
        <time>2026-08-21T18:33:12.000Z</time>
        <extensions>
          <ns3:TrackPointExtension>
            <ns3:hr>127</ns3:hr>
            <ns3:cad>71</ns3:cad>
          </ns3:TrackPointExtension>
        </extensions>
      </trkpt>
      <trkpt lat="45.33933305181562900543212890625" lon="-70.97103889100253582000732421875">
        <ele>698.79998779296875</ele>
        <time>2026-08-21T18:33:13.000Z</time>
        <extensions>
          <ns3:TrackPointExtension>
            <ns3:hr>127</ns3:hr>
            <ns3:cad>71</ns3:cad>
          </ns3:TrackPointExtension>
        </extensions>
      </trkpt>
      <trkpt lat="45.3393385000526905059814453125" lon="-70.97103637643158435821533203125">
        <ele>698.79998779296875</ele>
        <time>2026-08-21T18:33:14.000Z</time>
        <extensions>
          <ns3:TrackPointExtension>
            <ns3:hr>126</ns3:hr>
            <ns3:cad>71</ns3:cad>
          </ns3:TrackPointExtension>
        </extensions>
      </trkpt>
      <trkpt lat="45.339342691004276275634765625" lon="-70.9710331074893474578857421875">
        <ele>698.5999755859375</ele>
        <time>2026-08-21T18:33:15.000Z</time>
        <extensions>
          <ns3:TrackPointExtension>
            <ns3:hr>126</ns3:hr>
            <ns3:cad>71</ns3:cad>
          </ns3:TrackPointExtension>
        </extensions>
      </trkpt>
      <trkpt lat="45.33934495411813259124755859375" lon="-70.97102665342390537261962890625">
        <ele>698.5999755859375</ele>
        <time>2026-08-21T18:33:16.000Z</time>
        <extensions>
          <ns3:TrackPointExtension>
            <ns3:hr>126</ns3:hr>
            <ns3:cad>71</ns3:cad>
          </ns3:TrackPointExtension>
        </extensions>
      </trkpt>
      <trkpt lat="45.33934696577489376068115234375" lon="-70.97102447412908077239990234375">
        <ele>698.5999755859375</ele>
        <time>2026-08-21T18:33:17.000Z</time>
        <extensions>
          <ns3:TrackPointExtension>
            <ns3:hr>126</ns3:hr>
            <ns3:cad>0</ns3:cad>
          </ns3:TrackPointExtension>
        </extensions>
      </trkpt>
      <trkpt lat="45.339347384870052337646484375" lon="-70.9710257314145565032958984375">
        <ele>698.5999755859375</ele>
        <time>2026-08-21T18:33:18.000Z</time>
        <extensions>
          <ns3:TrackPointExtension>
            <ns3:hr>125</ns3:hr>
            <ns3:cad>0</ns3:cad>
          </ns3:TrackPointExtension>
        </extensions>
      </trkpt>
      <trkpt lat="45.339347384870052337646484375" lon="-70.9710257314145565032958984375">
        <ele>698.5999755859375</ele>
        <time>2026-08-21T18:33:19.000Z</time>
        <extensions>
          <ns3:TrackPointExtension>
            <ns3:hr>124</ns3:hr>
            <ns3:cad>0</ns3:cad>
          </ns3:TrackPointExtension>
        </extensions>
      </trkpt>
      <trkpt lat="45.339347384870052337646484375" lon="-70.9710257314145565032958984375">
        <ele>698.5999755859375</ele>
        <time>2026-08-21T18:33:20.000Z</time>
        <extensions>
          <ns3:TrackPointExtension>
            <ns3:hr>123</ns3:hr>
            <ns3:cad>0</ns3:cad>
          </ns3:TrackPointExtension>
        </extensions>
      </trkpt>
      <trkpt lat="45.339347384870052337646484375" lon="-70.9710257314145565032958984375">
        <ele>698.5999755859375</ele>
        <time>2026-08-21T18:33:21.000Z</time>
        <extensions>
          <ns3:TrackPointExtension>
            <ns3:hr>123</ns3:hr>
            <ns3:cad>0</ns3:cad>
          </ns3:TrackPointExtension>
        </extensions>
      </trkpt>
      <trkpt lat="45.339347384870052337646484375" lon="-70.9710257314145565032958984375">
        <ele>698.5999755859375</ele>
        <time>2026-08-21T18:33:22.000Z</time>
        <extensions>
          <ns3:TrackPointExtension>
            <ns3:hr>122</ns3:hr>
            <ns3:cad>0</ns3:cad>
          </ns3:TrackPointExtension>
        </extensions>
      </trkpt>
      <trkpt lat="45.339347384870052337646484375" lon="-70.9710257314145565032958984375">
        <ele>698.5999755859375</ele>
        <time>2026-08-21T18:33:23.000Z</time>
        <extensions>
          <ns3:TrackPointExtension>
            <ns3:hr>121</ns3:hr>
            <ns3:cad>0</ns3:cad>
          </ns3:TrackPointExtension>
        </extensions>
      </trkpt>
      <trkpt lat="45.339347384870052337646484375" lon="-70.9710257314145565032958984375">
        <ele>698.5999755859375</ele>
        <time>2026-08-21T18:33:24.000Z</time>
        <extensions>
          <ns3:TrackPointExtension>
            <ns3:hr>120</ns3:hr>
            <ns3:cad>0</ns3:cad>
          </ns3:TrackPointExtension>
        </extensions>
      </trkpt>
      <trkpt lat="45.339347384870052337646484375" lon="-70.9710257314145565032958984375">
        <ele>698.5999755859375</ele>
        <time>2026-08-21T18:33:25.000Z</time>
        <extensions>
          <ns3:TrackPointExtension>
            <ns3:hr>120</ns3:hr>
            <ns3:cad>0</ns3:cad>
          </ns3:TrackPointExtension>
        </extensions>
      </trkpt>
      <trkpt lat="45.339347384870052337646484375" lon="-70.9710257314145565032958984375">
        <ele>698.5999755859375</ele>
        <time>2026-08-21T18:33:26.000Z</time>
        <extensions>
          <ns3:TrackPointExtension>
            <ns3:hr>120</ns3:hr>
            <ns3:cad>0</ns3:cad>
          </ns3:TrackPointExtension>
        </extensions>
      </trkpt>
      <trkpt lat="45.33934847451746463775634765625" lon="-70.97102330066263675689697265625">
        <ele>698.4000244140625</ele>
        <time>2026-08-21T18:33:27.000Z</time>
        <extensions>
          <ns3:TrackPointExtension>
            <ns3:hr>120</ns3:hr>
            <ns3:cad>0</ns3:cad>
          </ns3:TrackPointExtension>
        </extensions>
      </trkpt>
      <trkpt lat="45.33935668878257274627685546875" lon="-70.9710166789591312408447265625">
        <ele>698.4000244140625</ele>
        <time>2026-08-21T18:33:28.000Z</time>
        <extensions>
          <ns3:TrackPointExtension>
            <ns3:hr>120</ns3:hr>
            <ns3:cad>0</ns3:cad>
          </ns3:TrackPointExtension>
        </extensions>
      </trkpt>
      <trkpt lat="45.33936305902898311614990234375" lon="-70.97101089544594287872314453125">
        <ele>698.20001220703125</ele>
        <time>2026-08-21T18:33:29.000Z</time>
        <extensions>
          <ns3:TrackPointExtension>
            <ns3:hr>120</ns3:hr>
            <ns3:cad>0</ns3:cad>
          </ns3:TrackPointExtension>
        </extensions>
      </trkpt>
      <trkpt lat="45.33937244676053524017333984375" lon="-70.97100787796080112457275390625">
        <ele>698</ele>
        <time>2026-08-21T18:33:30.000Z</time>
        <extensions>
          <ns3:TrackPointExtension>
            <ns3:hr>121</ns3:hr>
            <ns3:cad>0</ns3:cad>
          </ns3:TrackPointExtension>
        </extensions>
      </trkpt>
      <trkpt lat="45.33938334323465824127197265625" lon="-70.9710005857050418853759765625">
        <ele>697.5999755859375</ele>
        <time>2026-08-21T18:33:31.000Z</time>
        <extensions>
          <ns3:TrackPointExtension>
            <ns3:hr>121</ns3:hr>
            <ns3:cad>0</ns3:cad>
          </ns3:TrackPointExtension>
        </extensions>
      </trkpt>
      <trkpt lat="45.3393908031284809112548828125" lon="-70.97098876722157001495361328125">
        <ele>697.20001220703125</ele>
        <time>2026-08-21T18:33:32.000Z</time>
        <extensions>
          <ns3:TrackPointExtension>
            <ns3:hr>122</ns3:hr>
            <ns3:cad>0</ns3:cad>
          </ns3:TrackPointExtension>
        </extensions>
      </trkpt>
      <trkpt lat="45.3393954969942569732666015625" lon="-70.970979295670986175537109375">
        <ele>696.79998779296875</ele>
        <time>2026-08-21T18:33:33.000Z</time>
        <extensions>
          <ns3:TrackPointExtension>
            <ns3:hr>122</ns3:hr>
            <ns3:cad>0</ns3:cad>
          </ns3:TrackPointExtension>
        </extensions>
      </trkpt>
      <trkpt lat="45.33939692191779613494873046875" lon="-70.970977954566478729248046875">
        <ele>696.5999755859375</ele>
        <time>2026-08-21T18:33:34.000Z</time>
        <extensions>
          <ns3:TrackPointExtension>
            <ns3:hr>122</ns3:hr>
            <ns3:cad>0</ns3:cad>
          </ns3:TrackPointExtension>
        </extensions>
      </trkpt>
      <trkpt lat="45.33941142261028289794921875" lon="-70.9709757752716541290283203125">
        <ele>696.20001220703125</ele>
        <time>2026-08-21T18:33:35.000Z</time>
        <extensions>
          <ns3:TrackPointExtension>
            <ns3:hr>122</ns3:hr>
            <ns3:cad>0</ns3:cad>
          </ns3:TrackPointExtension>
        </extensions>
      </trkpt>
      <trkpt lat="45.33942424692213535308837890625" lon="-70.97096814773976802825927734375">
        <ele>696</ele>
        <time>2026-08-21T18:33:36.000Z</time>
        <extensions>
          <ns3:TrackPointExtension>
            <ns3:hr>123</ns3:hr>
            <ns3:cad>0</ns3:cad>
          </ns3:TrackPointExtension>
        </extensions>
      </trkpt>
      <trkpt lat="45.33943690359592437744140625" lon="-70.9709608554840087890625">
        <ele>695.79998779296875</ele>
        <time>2026-08-21T18:33:37.000Z</time>
        <extensions>
          <ns3:TrackPointExtension>
            <ns3:hr>127</ns3:hr>
            <ns3:cad>0</ns3:cad>
          </ns3:TrackPointExtension>
        </extensions>
      </trkpt>
      <trkpt lat="45.3394451178610324859619140625" lon="-70.9709526412189006805419921875">
        <ele>695.79998779296875</ele>
        <time>2026-08-21T18:33:38.000Z</time>
        <extensions>
          <ns3:TrackPointExtension>
            <ns3:hr>128</ns3:hr>
            <ns3:cad>0</ns3:cad>
          </ns3:TrackPointExtension>
        </extensions>
      </trkpt>
      <trkpt lat="45.3394514881074428558349609375" lon="-70.97094635479152202606201171875">
        <ele>695.5999755859375</ele>
        <time>2026-08-21T18:33:39.000Z</time>
        <extensions>
          <ns3:TrackPointExtension>
            <ns3:hr>128</ns3:hr>
            <ns3:cad>51</ns3:cad>
          </ns3:TrackPointExtension>
        </extensions>
      </trkpt>
      <trkpt lat="45.33946146257221698760986328125" lon="-70.9709432534873485565185546875">
        <ele>695.5999755859375</ele>
        <time>2026-08-21T18:33:40.000Z</time>
        <extensions>
          <ns3:TrackPointExtension>
            <ns3:hr>128</ns3:hr>
            <ns3:cad>51</ns3:cad>
          </ns3:TrackPointExtension>
        </extensions>
      </trkpt>
      <trkpt lat="45.33947403542697429656982421875" lon="-70.970943085849285125732421875">
        <ele>695.4000244140625</ele>
        <time>2026-08-21T18:33:41.000Z</time>
        <extensions>
          <ns3:TrackPointExtension>
            <ns3:hr>129</ns3:hr>
            <ns3:cad>51</ns3:cad>
          </ns3:TrackPointExtension>
        </extensions>
      </trkpt>
      <trkpt lat="45.3394833393394947052001953125" lon="-70.9709392301738262176513671875">
        <ele>695.20001220703125</ele>
        <time>2026-08-21T18:33:42.000Z</time>
        <extensions>
          <ns3:TrackPointExtension>
            <ns3:hr>129</ns3:hr>
            <ns3:cad>54</ns3:cad>
          </ns3:TrackPointExtension>
        </extensions>
      </trkpt>
      <trkpt lat="45.3394927270710468292236328125" lon="-70.97093311138451099395751953125">
        <ele>695.20001220703125</ele>
        <time>2026-08-21T18:33:43.000Z</time>
        <extensions>
          <ns3:TrackPointExtension>
            <ns3:hr>129</ns3:hr>
            <ns3:cad>54</ns3:cad>
          </ns3:TrackPointExtension>
        </extensions>
      </trkpt>
      <trkpt lat="45.33950395882129669189453125" lon="-70.9709246456623077392578125">
        <ele>695</ele>
        <time>2026-08-21T18:33:44.000Z</time>
        <extensions>
          <ns3:TrackPointExtension>
            <ns3:hr>127</ns3:hr>
            <ns3:cad>54</ns3:cad>
          </ns3:TrackPointExtension>
        </extensions>
      </trkpt>
      <trkpt lat="45.339515022933483123779296875" lon="-70.9709160961210727691650390625">
        <ele>694.79998779296875</ele>
        <time>2026-08-21T18:33:45.000Z</time>
        <extensions>
          <ns3:TrackPointExtension>
            <ns3:hr>127</ns3:hr>
            <ns3:cad>54</ns3:cad>
          </ns3:TrackPointExtension>
        </extensions>
      </trkpt>
      <trkpt lat="45.3395249135792255401611328125" lon="-70.970909558236598968505859375">
        <ele>694.5999755859375</ele>
        <time>2026-08-21T18:33:46.000Z</time>
        <extensions>
          <ns3:TrackPointExtension>
            <ns3:hr>125</ns3:hr>
            <ns3:cad>54</ns3:cad>
          </ns3:TrackPointExtension>
        </extensions>
      </trkpt>
      <trkpt lat="45.33953555859625339508056640625" lon="-70.9709080494940280914306640625">
        <ele>694.4000244140625</ele>
        <time>2026-08-21T18:33:47.000Z</time>
        <extensions>
          <ns3:TrackPointExtension>
            <ns3:hr>124</ns3:hr>
            <ns3:cad>57</ns3:cad>
          </ns3:TrackPointExtension>
        </extensions>
      </trkpt>
      <trkpt lat="45.33954729326069355010986328125" lon="-70.97090880386531352996826171875">
        <ele>694.20001220703125</ele>
        <time>2026-08-21T18:33:48.000Z</time>
        <extensions>
          <ns3:TrackPointExtension>
            <ns3:hr>122</ns3:hr>
            <ns3:cad>57</ns3:cad>
          </ns3:TrackPointExtension>
        </extensions>
      </trkpt>
      <trkpt lat="45.3395631350576877593994140625" lon="-70.9709057025611400604248046875">
        <ele>693.79998779296875</ele>
        <time>2026-08-21T18:33:49.000Z</time>
        <extensions>
          <ns3:TrackPointExtension>
            <ns3:hr>120</ns3:hr>
            <ns3:cad>57</ns3:cad>
          </ns3:TrackPointExtension>
        </extensions>
      </trkpt>
      <trkpt lat="45.33957294188439846038818359375" lon="-70.97090922296047210693359375">
        <ele>693.4000244140625</ele>
        <time>2026-08-21T18:33:50.000Z</time>
        <extensions>
          <ns3:TrackPointExtension>
            <ns3:hr>120</ns3:hr>
            <ns3:cad>57</ns3:cad>
          </ns3:TrackPointExtension>
        </extensions>
      </trkpt>
      <trkpt lat="45.339589454233646392822265625" lon="-70.97090595401823520660400390625">
        <ele>693.20001220703125</ele>
        <time>2026-08-21T18:33:51.000Z</time>
        <extensions>
          <ns3:TrackPointExtension>
            <ns3:hr>120</ns3:hr>
            <ns3:cad>57</ns3:cad>
          </ns3:TrackPointExtension>
        </extensions>
      </trkpt>
      <trkpt lat="45.3396033681929111480712890625" lon="-70.9709003381431102752685546875">
        <ele>692.79998779296875</ele>
        <time>2026-08-21T18:33:52.000Z</time>
        <extensions>
          <ns3:TrackPointExtension>
            <ns3:hr>119</ns3:hr>
            <ns3:cad>57</ns3:cad>
          </ns3:TrackPointExtension>
        </extensions>
      </trkpt>
      <trkpt lat="45.33961652778089046478271484375" lon="-70.97089690156280994415283203125">
        <ele>692.4000244140625</ele>
        <time>2026-08-21T18:33:53.000Z</time>
        <extensions>
          <ns3:TrackPointExtension>
            <ns3:hr>118</ns3:hr>
            <ns3:cad>57</ns3:cad>
          </ns3:TrackPointExtension>
        </extensions>
      </trkpt>
      <trkpt lat="45.339636392891407012939453125" lon="-70.9708896093070507049560546875">
        <ele>692.20001220703125</ele>
        <time>2026-08-21T18:33:54.000Z</time>
        <extensions>
          <ns3:TrackPointExtension>
            <ns3:hr>118</ns3:hr>
            <ns3:cad>57</ns3:cad>
          </ns3:TrackPointExtension>
        </extensions>
      </trkpt>
      <trkpt lat="45.339649133384227752685546875" lon="-70.9708844125270843505859375">
        <ele>691.79998779296875</ele>
        <time>2026-08-21T18:33:55.000Z</time>
        <extensions>
          <ns3:TrackPointExtension>
            <ns3:hr>118</ns3:hr>
            <ns3:cad>66</ns3:cad>
          </ns3:TrackPointExtension>
        </extensions>
      </trkpt>
      <trkpt lat="45.3396630473434925079345703125" lon="-70.97087301313877105712890625">
        <ele>691.4000244140625</ele>
        <time>2026-08-21T18:33:56.000Z</time>
        <extensions>
          <ns3:TrackPointExtension>
            <ns3:hr>118</ns3:hr>
            <ns3:cad>66</ns3:cad>
          </ns3:TrackPointExtension>
        </extensions>
      </trkpt>
      <trkpt lat="45.33967603929340839385986328125" lon="-70.9708580933511257171630859375">
        <ele>691.20001220703125</ele>
        <time>2026-08-21T18:33:57.000Z</time>
        <extensions>
          <ns3:TrackPointExtension>
            <ns3:hr>119</ns3:hr>
            <ns3:cad>66</ns3:cad>
          </ns3:TrackPointExtension>
        </extensions>
      </trkpt>
      <trkpt lat="45.33968827687203884124755859375" lon="-70.97084174863994121551513671875">
        <ele>691</ele>
        <time>2026-08-21T18:33:58.000Z</time>
        <extensions>
          <ns3:TrackPointExtension>
            <ns3:hr>119</ns3:hr>
            <ns3:cad>66</ns3:cad>
          </ns3:TrackPointExtension>
        </extensions>
      </trkpt>
      <trkpt lat="45.33969950862228870391845703125" lon="-70.970829762518405914306640625">
        <ele>690.79998779296875</ele>
        <time>2026-08-21T18:33:59.000Z</time>
        <extensions>
          <ns3:TrackPointExtension>
            <ns3:hr>119</ns3:hr>
            <ns3:cad>66</ns3:cad>
          </ns3:TrackPointExtension>
        </extensions>
      </trkpt>
      <trkpt lat="45.33971526660025119781494140625" lon="-70.970819704234600067138671875">
        <ele>690.4000244140625</ele>
        <time>2026-08-21T18:34:00.000Z</time>
        <extensions>
          <ns3:TrackPointExtension>
            <ns3:hr>119</ns3:hr>
            <ns3:cad>66</ns3:cad>
          </ns3:TrackPointExtension>
        </extensions>
      </trkpt>
      <trkpt lat="45.33972851000726222991943359375" lon="-70.97080738283693790435791015625">
        <ele>690.20001220703125</ele>
        <time>2026-08-21T18:34:01.000Z</time>
        <extensions>
          <ns3:TrackPointExtension>
            <ns3:hr>118</ns3:hr>
            <ns3:cad>66</ns3:cad>
          </ns3:TrackPointExtension>
        </extensions>
      </trkpt>
      <trkpt lat="45.33973865211009979248046875" lon="-70.9707990847527980804443359375">
        <ele>690</ele>
        <time>2026-08-21T18:34:02.000Z</time>
        <extensions>
          <ns3:TrackPointExtension>
            <ns3:hr>118</ns3:hr>
            <ns3:cad>54</ns3:cad>
          </ns3:TrackPointExtension>
        </extensions>
      </trkpt>
      <trkpt lat="45.3397518955171108245849609375" lon="-70.97079363651573657989501953125">
        <ele>690</ele>
        <time>2026-08-21T18:34:03.000Z</time>
        <extensions>
          <ns3:TrackPointExtension>
            <ns3:hr>119</ns3:hr>
            <ns3:cad>54</ns3:cad>
          </ns3:TrackPointExtension>
        </extensions>
      </trkpt>
      <trkpt lat="45.33976555801928043365478515625" lon="-70.97078793682157993316650390625">
        <ele>689.79998779296875</ele>
        <time>2026-08-21T18:34:04.000Z</time>
        <extensions>
          <ns3:TrackPointExtension>
            <ns3:hr>120</ns3:hr>
            <ns3:cad>54</ns3:cad>
          </ns3:TrackPointExtension>
        </extensions>
      </trkpt>
      <trkpt lat="45.33977813087403774261474609375" lon="-70.97077787853777408599853515625">
        <ele>689.5999755859375</ele>
        <time>2026-08-21T18:34:05.000Z</time>
        <extensions>
          <ns3:TrackPointExtension>
            <ns3:hr>120</ns3:hr>
            <ns3:cad>54</ns3:cad>
          </ns3:TrackPointExtension>
        </extensions>
      </trkpt>
      <trkpt lat="45.33979053609073162078857421875" lon="-70.97077234648168087005615234375">
        <ele>689.4000244140625</ele>
        <time>2026-08-21T18:34:06.000Z</time>
        <extensions>
          <ns3:TrackPointExtension>
            <ns3:hr>120</ns3:hr>
            <ns3:cad>54</ns3:cad>
          </ns3:TrackPointExtension>
        </extensions>
      </trkpt>
      <trkpt lat="45.33980310894548892974853515625" lon="-70.97076295875012874603271484375">
        <ele>689.20001220703125</ele>
        <time>2026-08-21T18:34:07.000Z</time>
        <extensions>
          <ns3:TrackPointExtension>
            <ns3:hr>120</ns3:hr>
            <ns3:cad>54</ns3:cad>
          </ns3:TrackPointExtension>
        </extensions>
      </trkpt>
      <trkpt lat="45.339817106723785400390625" lon="-70.97075088880956172943115234375">
        <ele>689</ele>
        <time>2026-08-21T18:34:08.000Z</time>
        <extensions>
          <ns3:TrackPointExtension>
            <ns3:hr>118</ns3:hr>
            <ns3:cad>54</ns3:cad>
          </ns3:TrackPointExtension>
        </extensions>
      </trkpt>
      <trkpt lat="45.33982808701694011688232421875" lon="-70.970737226307392120361328125">
        <ele>688.79998779296875</ele>
        <time>2026-08-21T18:34:09.000Z</time>
        <extensions>
          <ns3:TrackPointExtension>
            <ns3:hr>117</ns3:hr>
            <ns3:cad>54</ns3:cad>
          </ns3:TrackPointExtension>
        </extensions>
      </trkpt>
      <trkpt lat="45.33983898349106311798095703125" lon="-70.970723144710063934326171875">
        <ele>688.5999755859375</ele>
        <time>2026-08-21T18:34:10.000Z</time>
        <extensions>
          <ns3:TrackPointExtension>
            <ns3:hr>117</ns3:hr>
            <ns3:cad>65</ns3:cad>
          </ns3:TrackPointExtension>
        </extensions>
      </trkpt>
      <trkpt lat="45.339853651821613311767578125" lon="-70.97071736119687557220458984375">
        <ele>688.5999755859375</ele>
        <time>2026-08-21T18:34:11.000Z</time>
        <extensions>
          <ns3:TrackPointExtension>
            <ns3:hr>116</ns3:hr>
            <ns3:cad>65</ns3:cad>
          </ns3:TrackPointExtension>
        </extensions>
      </trkpt>
      <trkpt lat="45.33987083472311496734619140625" lon="-70.97071476280689239501953125">
        <ele>688.4000244140625</ele>
        <time>2026-08-21T18:34:12.000Z</time>
        <extensions>
          <ns3:TrackPointExtension>
            <ns3:hr>115</ns3:hr>
            <ns3:cad>65</ns3:cad>
          </ns3:TrackPointExtension>
        </extensions>
      </trkpt>
      <trkpt lat="45.33988558687269687652587890625" lon="-70.970706045627593994140625">
        <ele>688.20001220703125</ele>
        <time>2026-08-21T18:34:13.000Z</time>
        <extensions>
          <ns3:TrackPointExtension>
            <ns3:hr>115</ns3:hr>
            <ns3:cad>65</ns3:cad>
          </ns3:TrackPointExtension>
        </extensions>
      </trkpt>
      <trkpt lat="45.33990050666034221649169921875" lon="-70.97069690935313701629638671875">
        <ele>688</ele>
        <time>2026-08-21T18:34:14.000Z</time>
        <extensions>
          <ns3:TrackPointExtension>
            <ns3:hr>115</ns3:hr>
            <ns3:cad>65</ns3:cad>
          </ns3:TrackPointExtension>
        </extensions>
      </trkpt>
      <trkpt lat="45.33992112614214420318603515625" lon="-70.970690287649631500244140625">
        <ele>687.79998779296875</ele>
        <time>2026-08-21T18:34:15.000Z</time>
        <extensions>
          <ns3:TrackPointExtension>
            <ns3:hr>115</ns3:hr>
            <ns3:cad>65</ns3:cad>
          </ns3:TrackPointExtension>
        </extensions>
      </trkpt>
      <trkpt lat="45.3399369679391384124755859375" lon="-70.97068601287901401519775390625">
        <ele>687.5999755859375</ele>
        <time>2026-08-21T18:34:16.000Z</time>
        <extensions>
          <ns3:TrackPointExtension>
            <ns3:hr>116</ns3:hr>
            <ns3:cad>65</ns3:cad>
          </ns3:TrackPointExtension>
        </extensions>
      </trkpt>
      <trkpt lat="45.33995733596384525299072265625" lon="-70.9706777147948741912841796875">
        <ele>687.4000244140625</ele>
        <time>2026-08-21T18:34:17.000Z</time>
        <extensions>
          <ns3:TrackPointExtension>
            <ns3:hr>116</ns3:hr>
            <ns3:cad>65</ns3:cad>
          </ns3:TrackPointExtension>
        </extensions>
      </trkpt>
      <trkpt lat="45.339975692331790924072265625" lon="-70.97066908143460750579833984375">
        <ele>687</ele>
        <time>2026-08-21T18:34:18.000Z</time>
        <extensions>
          <ns3:TrackPointExtension>
            <ns3:hr>116</ns3:hr>
            <ns3:cad>65</ns3:cad>
          </ns3:TrackPointExtension>
        </extensions>
      </trkpt>
      <trkpt lat="45.3399932943284511566162109375" lon="-70.97066505812108516693115234375">
        <ele>686.79998779296875</ele>
        <time>2026-08-21T18:34:19.000Z</time>
        <extensions>
          <ns3:TrackPointExtension>
            <ns3:hr>117</ns3:hr>
            <ns3:cad>74</ns3:cad>
          </ns3:TrackPointExtension>
        </extensions>
      </trkpt>
      <trkpt lat="45.3400117345154285430908203125" lon="-70.9706579335033893585205078125">
        <ele>686.4000244140625</ele>
        <time>2026-08-21T18:34:20.000Z</time>
        <extensions>
          <ns3:TrackPointExtension>
            <ns3:hr>117</ns3:hr>
            <ns3:cad>74</ns3:cad>
          </ns3:TrackPointExtension>
        </extensions>
      </trkpt>
      <trkpt lat="45.34003042615950107574462890625" lon="-70.9706508927047252655029296875">
        <ele>686.20001220703125</ele>
        <time>2026-08-21T18:34:21.000Z</time>
        <extensions>
          <ns3:TrackPointExtension>
            <ns3:hr>117</ns3:hr>
            <ns3:cad>74</ns3:cad>
          </ns3:TrackPointExtension>
        </extensions>
      </trkpt>
      <trkpt lat="45.34004844725131988525390625" lon="-70.9706378169357776641845703125">
        <ele>686</ele>
        <time>2026-08-21T18:34:22.000Z</time>
        <extensions>
          <ns3:TrackPointExtension>
            <ns3:hr>117</ns3:hr>
            <ns3:cad>74</ns3:cad>
          </ns3:TrackPointExtension>
        </extensions>
      </trkpt>
      <trkpt lat="45.34006563015282154083251953125" lon="-70.97062633372843265533447265625">
        <ele>685.79998779296875</ele>
        <time>2026-08-21T18:34:23.000Z</time>
        <extensions>
          <ns3:TrackPointExtension>
            <ns3:hr>117</ns3:hr>
            <ns3:cad>74</ns3:cad>
          </ns3:TrackPointExtension>
        </extensions>
      </trkpt>
      <trkpt lat="45.3400848247110843658447265625" lon="-70.97061686217784881591796875">
        <ele>685.4000244140625</ele>
        <time>2026-08-21T18:34:24.000Z</time>
        <extensions>
          <ns3:TrackPointExtension>
            <ns3:hr>117</ns3:hr>
            <ns3:cad>74</ns3:cad>
          </ns3:TrackPointExtension>
        </extensions>
      </trkpt>
      <trkpt lat="45.34010343253612518310546875" lon="-70.97060152329504489898681640625">
        <ele>685</ele>
        <time>2026-08-21T18:34:25.000Z</time>
        <extensions>
          <ns3:TrackPointExtension>
            <ns3:hr>117</ns3:hr>
            <ns3:cad>74</ns3:cad>
          </ns3:TrackPointExtension>
        </extensions>
      </trkpt>
      <trkpt lat="45.34011240117251873016357421875" lon="-70.97058526240289211273193359375">
        <ele>684.79998779296875</ele>
        <time>2026-08-21T18:34:26.000Z</time>
        <extensions>
          <ns3:TrackPointExtension>
            <ns3:hr>118</ns3:hr>
            <ns3:cad>40</ns3:cad>
          </ns3:TrackPointExtension>
        </extensions>
      </trkpt>
      <trkpt lat="45.3401247225701808929443359375" lon="-70.9705620445311069488525390625">
        <ele>684.5999755859375</ele>
        <time>2026-08-21T18:34:27.000Z</time>
        <extensions>
          <ns3:TrackPointExtension>
            <ns3:hr>118</ns3:hr>
            <ns3:cad>40</ns3:cad>
          </ns3:TrackPointExtension>
        </extensions>
      </trkpt>
      <trkpt lat="45.34013687632977962493896484375" lon="-70.970542766153812408447265625">
        <ele>684.4000244140625</ele>
        <time>2026-08-21T18:34:28.000Z</time>
        <extensions>
          <ns3:TrackPointExtension>
            <ns3:hr>118</ns3:hr>
            <ns3:cad>40</ns3:cad>
          </ns3:TrackPointExtension>
        </extensions>
      </trkpt>
      <trkpt lat="45.34014877863228321075439453125" lon="-70.9705276787281036376953125">
        <ele>684.4000244140625</ele>
        <time>2026-08-21T18:34:29.000Z</time>
        <extensions>
          <ns3:TrackPointExtension>
            <ns3:hr>118</ns3:hr>
            <ns3:cad>40</ns3:cad>
          </ns3:TrackPointExtension>
        </extensions>
      </trkpt>
      <trkpt lat="45.34016386605799198150634765625" lon="-70.970515944063663482666015625">
        <ele>684.20001220703125</ele>
        <time>2026-08-21T18:34:30.000Z</time>
        <extensions>
          <ns3:TrackPointExtension>
            <ns3:hr>119</ns3:hr>
            <ns3:cad>40</ns3:cad>
          </ns3:TrackPointExtension>
        </extensions>
      </trkpt>
      <trkpt lat="45.34017778001725673675537109375" lon="-70.97051200456917285919189453125">
        <ele>684</ele>
        <time>2026-08-21T18:34:31.000Z</time>
        <extensions>
          <ns3:TrackPointExtension>
            <ns3:hr>119</ns3:hr>
            <ns3:cad>40</ns3:cad>
          </ns3:TrackPointExtension>
        </extensions>
      </trkpt>
      <trkpt lat="45.34019152633845806121826171875" lon="-70.97051166929304599761962890625">
        <ele>684</ele>
        <time>2026-08-21T18:34:32.000Z</time>
        <extensions>
          <ns3:TrackPointExtension>
            <ns3:hr>119</ns3:hr>
            <ns3:cad>40</ns3:cad>
          </ns3:TrackPointExtension>
        </extensions>
      </trkpt>
      <trkpt lat="45.34020091407001018524169921875" lon="-70.9705142676830291748046875">
        <ele>683.79998779296875</ele>
        <time>2026-08-21T18:34:33.000Z</time>
        <extensions>
          <ns3:TrackPointExtension>
            <ns3:hr>120</ns3:hr>
            <ns3:cad>40</ns3:cad>
          </ns3:TrackPointExtension>
        </extensions>
      </trkpt>
      <trkpt lat="45.3402182646095752716064453125" lon="-70.9705221466720104217529296875">
        <ele>683.4000244140625</ele>
        <time>2026-08-21T18:34:34.000Z</time>
        <extensions>
          <ns3:TrackPointExtension>
            <ns3:hr>120</ns3:hr>
            <ns3:cad>40</ns3:cad>
          </ns3:TrackPointExtension>
        </extensions>
      </trkpt>
      <trkpt lat="45.3402313403785228729248046875" lon="-70.970526002347469329833984375">
        <ele>683.20001220703125</ele>
        <time>2026-08-21T18:34:35.000Z</time>
        <extensions>
          <ns3:TrackPointExtension>
            <ns3:hr>121</ns3:hr>
            <ns3:cad>40</ns3:cad>
          </ns3:TrackPointExtension>
        </extensions>
      </trkpt>
      <trkpt lat="45.3402484394609928131103515625" lon="-70.97053103148937225341796875">
        <ele>682.79998779296875</ele>
        <time>2026-08-21T18:34:36.000Z</time>
        <extensions>
          <ns3:TrackPointExtension>
            <ns3:hr>122</ns3:hr>
            <ns3:cad>40</ns3:cad>
          </ns3:TrackPointExtension>
        </extensions>
      </trkpt>
      <trkpt lat="45.34026243723928928375244140625" lon="-70.97053715027868747711181640625">
        <ele>682.4000244140625</ele>
        <time>2026-08-21T18:34:37.000Z</time>
        <extensions>
          <ns3:TrackPointExtension>
            <ns3:hr>122</ns3:hr>
            <ns3:cad>40</ns3:cad>
          </ns3:TrackPointExtension>
        </extensions>
      </trkpt>
      <trkpt lat="45.340280793607234954833984375" lon="-70.9705405868589878082275390625">
        <ele>682</ele>
        <time>2026-08-21T18:34:38.000Z</time>
        <extensions>
          <ns3:TrackPointExtension>
            <ns3:hr>122</ns3:hr>
            <ns3:cad>40</ns3:cad>
          </ns3:TrackPointExtension>
        </extensions>
      </trkpt>
      <trkpt lat="45.34030501730740070343017578125" lon="-70.9705365635454654693603515625">
        <ele>681.5999755859375</ele>
        <time>2026-08-21T18:34:39.000Z</time>
        <extensions>
          <ns3:TrackPointExtension>
            <ns3:hr>123</ns3:hr>
            <ns3:cad>40</ns3:cad>
          </ns3:TrackPointExtension>
        </extensions>
      </trkpt>
      <trkpt lat="45.34032027237117290496826171875" lon="-70.9705325402319431304931640625">
        <ele>681.4000244140625</ele>
        <time>2026-08-21T18:34:40.000Z</time>
        <extensions>
          <ns3:TrackPointExtension>
            <ns3:hr>123</ns3:hr>
            <ns3:cad>40</ns3:cad>
          </ns3:TrackPointExtension>
        </extensions>
      </trkpt>
      <trkpt lat="45.340337455272674560546875" lon="-70.97052692435681819915771484375">
        <ele>681.20001220703125</ele>
        <time>2026-08-21T18:34:41.000Z</time>
        <extensions>
          <ns3:TrackPointExtension>
            <ns3:hr>124</ns3:hr>
            <ns3:cad>75</ns3:cad>
          </ns3:TrackPointExtension>
        </extensions>
      </trkpt>
      <trkpt lat="45.34035732038319110870361328125" lon="-70.970521308481693267822265625">
        <ele>681</ele>
        <time>2026-08-21T18:34:42.000Z</time>
        <extensions>
          <ns3:TrackPointExtension>
            <ns3:hr>124</ns3:hr>
            <ns3:cad>75</ns3:cad>
          </ns3:TrackPointExtension>
        </extensions>
      </trkpt>
      <trkpt lat="45.34037760458886623382568359375" lon="-70.97051686607301235198974609375">
        <ele>680.5999755859375</ele>
        <time>2026-08-21T18:34:43.000Z</time>
        <extensions>
          <ns3:TrackPointExtension>
            <ns3:hr>124</ns3:hr>
            <ns3:cad>75</ns3:cad>
          </ns3:TrackPointExtension>
        </extensions>
      </trkpt>
      <trkpt lat="45.3404023312032222747802734375" lon="-70.97050965763628482818603515625">
        <ele>680.4000244140625</ele>
        <time>2026-08-21T18:34:44.000Z</time>
        <extensions>
          <ns3:TrackPointExtension>
            <ns3:hr>124</ns3:hr>
            <ns3:cad>75</ns3:cad>
          </ns3:TrackPointExtension>
        </extensions>
      </trkpt>
      <trkpt lat="45.340426303446292877197265625" lon="-70.970502197742462158203125">
        <ele>680.20001220703125</ele>
        <time>2026-08-21T18:34:45.000Z</time>
        <extensions>
          <ns3:TrackPointExtension>
            <ns3:hr>124</ns3:hr>
            <ns3:cad>75</ns3:cad>
          </ns3:TrackPointExtension>
        </extensions>
      </trkpt>
      <trkpt lat="45.3404516167938709259033203125" lon="-70.97049574367702007293701171875">
        <ele>679.79998779296875</ele>
        <time>2026-08-21T18:34:46.000Z</time>
        <extensions>
          <ns3:TrackPointExtension>
            <ns3:hr>124</ns3:hr>
            <ns3:cad>0</ns3:cad>
          </ns3:TrackPointExtension>
        </extensions>
      </trkpt>
      <trkpt lat="45.34046628512442111968994140625" lon="-70.9704886190593242645263671875">
        <ele>679.4000244140625</ele>
        <time>2026-08-21T18:34:47.000Z</time>
        <extensions>
          <ns3:TrackPointExtension>
            <ns3:hr>124</ns3:hr>
            <ns3:cad>0</ns3:cad>
          </ns3:TrackPointExtension>
        </extensions>
      </trkpt>
      <trkpt lat="45.34047969616949558258056640625" lon="-70.970486439764499664306640625">
        <ele>679.20001220703125</ele>
        <time>2026-08-21T18:34:48.000Z</time>
        <extensions>
          <ns3:TrackPointExtension>
            <ns3:hr>125</ns3:hr>
            <ns3:cad>0</ns3:cad>
          </ns3:TrackPointExtension>
        </extensions>
      </trkpt>
      <trkpt lat="45.3404948674142360687255859375" lon="-70.97048602066934108734130859375">
        <ele>678.79998779296875</ele>
        <time>2026-08-21T18:34:49.000Z</time>
        <extensions>
          <ns3:TrackPointExtension>
            <ns3:hr>125</ns3:hr>
            <ns3:cad>0</ns3:cad>
          </ns3:TrackPointExtension>
        </extensions>
      </trkpt>
      <trkpt lat="45.3405186720192432403564453125" lon="-70.97048216499388217926025390625">
        <ele>678.4000244140625</ele>
        <time>2026-08-21T18:34:50.000Z</time>
        <extensions>
          <ns3:TrackPointExtension>
            <ns3:hr>125</ns3:hr>
            <ns3:cad>0</ns3:cad>
          </ns3:TrackPointExtension>
        </extensions>
      </trkpt>
      <trkpt lat="45.3405384533107280731201171875" lon="-70.97047495655715465545654296875">
        <ele>678.20001220703125</ele>
        <time>2026-08-21T18:34:51.000Z</time>
        <extensions>
          <ns3:TrackPointExtension>
            <ns3:hr>125</ns3:hr>
            <ns3:cad>76</ns3:cad>
          </ns3:TrackPointExtension>
        </extensions>
      </trkpt>
      <trkpt lat="45.34055831842124462127685546875" lon="-70.97047277726233005523681640625">
        <ele>677.79998779296875</ele>
        <time>2026-08-21T18:34:52.000Z</time>
        <extensions>
          <ns3:TrackPointExtension>
            <ns3:hr>125</ns3:hr>
            <ns3:cad>76</ns3:cad>
          </ns3:TrackPointExtension>
        </extensions>
      </trkpt>
      <trkpt lat="45.3405753336846828460693359375" lon="-70.97047747112810611724853515625">
        <ele>677.5999755859375</ele>
        <time>2026-08-21T18:34:53.000Z</time>
        <extensions>
          <ns3:TrackPointExtension>
            <ns3:hr>125</ns3:hr>
            <ns3:cad>76</ns3:cad>
          </ns3:TrackPointExtension>
        </extensions>
      </trkpt>
      <trkpt lat="45.34059234894812107086181640625" lon="-70.97047897987067699432373046875">
        <ele>677.20001220703125</ele>
        <time>2026-08-21T18:34:54.000Z</time>
        <extensions>
          <ns3:TrackPointExtension>
            <ns3:hr>125</ns3:hr>
            <ns3:cad>76</ns3:cad>
          </ns3:TrackPointExtension>
        </extensions>
      </trkpt>
      <trkpt lat="45.34061112441122531890869140625" lon="-70.97048216499388217926025390625">
        <ele>677</ele>
        <time>2026-08-21T18:34:55.000Z</time>
        <extensions>
          <ns3:TrackPointExtension>
            <ns3:hr>125</ns3:hr>
            <ns3:cad>76</ns3:cad>
          </ns3:TrackPointExtension>
        </extensions>
      </trkpt>
      <trkpt lat="45.34062235616147518157958984375" lon="-70.970482416450977325439453125">
        <ele>676.79998779296875</ele>
        <time>2026-08-21T18:34:56.000Z</time>
        <extensions>
          <ns3:TrackPointExtension>
            <ns3:hr>126</ns3:hr>
            <ns3:cad>76</ns3:cad>
          </ns3:TrackPointExtension>
        </extensions>
      </trkpt>
      <trkpt lat="45.34063878469169139862060546875" lon="-70.97048535011708736419677734375">
        <ele>676.5999755859375</ele>
        <time>2026-08-21T18:34:57.000Z</time>
        <extensions>
          <ns3:TrackPointExtension>
            <ns3:hr>126</ns3:hr>
            <ns3:cad>76</ns3:cad>
          </ns3:TrackPointExtension>
        </extensions>
      </trkpt>
      <trkpt lat="45.34065538085997104644775390625" lon="-70.97048937343060970306396484375">
        <ele>676.4000244140625</ele>
        <time>2026-08-21T18:34:58.000Z</time>
        <extensions>
          <ns3:TrackPointExtension>
            <ns3:hr>126</ns3:hr>
            <ns3:cad>76</ns3:cad>
          </ns3:TrackPointExtension>
        </extensions>
      </trkpt>
      <trkpt lat="45.34066845662891864776611328125" lon="-70.97049524076282978057861328125">
        <ele>676</ele>
        <time>2026-08-21T18:34:59.000Z</time>
        <extensions>
          <ns3:TrackPointExtension>
            <ns3:hr>126</ns3:hr>
            <ns3:cad>76</ns3:cad>
          </ns3:TrackPointExtension>
        </extensions>
      </trkpt>
      <trkpt lat="45.34068304114043712615966796875" lon="-70.97050446085631847381591796875">
        <ele>675.79998779296875</ele>
        <time>2026-08-21T18:35:00.000Z</time>
        <extensions>
          <ns3:TrackPointExtension>
            <ns3:hr>126</ns3:hr>
            <ns3:cad>76</ns3:cad>
          </ns3:TrackPointExtension>
        </extensions>
      </trkpt>
      <trkpt lat="45.340695865452289581298828125" lon="-70.9705117531120777130126953125">
        <ele>675.4000244140625</ele>
        <time>2026-08-21T18:35:01.000Z</time>
        <extensions>
          <ns3:TrackPointExtension>
            <ns3:hr>126</ns3:hr>
            <ns3:cad>76</ns3:cad>
          </ns3:TrackPointExtension>
        </extensions>
      </trkpt>
      <trkpt lat="45.34070651046931743621826171875" lon="-70.9705151058733463287353515625">
        <ele>675</ele>
        <time>2026-08-21T18:35:02.000Z</time>
        <extensions>
          <ns3:TrackPointExtension>
            <ns3:hr>126</ns3:hr>
            <ns3:cad>76</ns3:cad>
          </ns3:TrackPointExtension>
        </extensions>
      </trkpt>
      <trkpt lat="45.34071790985763072967529296875" lon="-70.9705224819481372833251953125">
        <ele>674.79998779296875</ele>
        <time>2026-08-21T18:35:03.000Z</time>
        <extensions>
          <ns3:TrackPointExtension>
            <ns3:hr>126</ns3:hr>
            <ns3:cad>76</ns3:cad>
          </ns3:TrackPointExtension>
        </extensions>
      </trkpt>
      <trkpt lat="45.34072972834110260009765625" lon="-70.97053295932710170745849609375">
        <ele>674.5999755859375</ele>
        <time>2026-08-21T18:35:04.000Z</time>
        <extensions>
          <ns3:TrackPointExtension>
            <ns3:hr>126</ns3:hr>
            <ns3:cad>69</ns3:cad>
          </ns3:TrackPointExtension>
        </extensions>
      </trkpt>
      <trkpt lat="45.34074188210070133209228515625" lon="-70.9705415926873683929443359375">
        <ele>674.4000244140625</ele>
        <time>2026-08-21T18:35:05.000Z</time>
        <extensions>
          <ns3:TrackPointExtension>
            <ns3:hr>127</ns3:hr>
            <ns3:cad>69</ns3:cad>
          </ns3:TrackPointExtension>
        </extensions>
      </trkpt>
      <trkpt lat="45.34075579605996608734130859375" lon="-70.97054854966700077056884765625">
        <ele>674.20001220703125</ele>
        <time>2026-08-21T18:35:06.000Z</time>
        <extensions>
          <ns3:TrackPointExtension>
            <ns3:hr>126</ns3:hr>
            <ns3:cad>71</ns3:cad>
          </ns3:TrackPointExtension>
        </extensions>
      </trkpt>
      <trkpt lat="45.34077021293342113494873046875" lon="-70.97055609337985515594482421875">
        <ele>674</ele>
        <time>2026-08-21T18:35:07.000Z</time>
        <extensions>
          <ns3:TrackPointExtension>
            <ns3:hr>126</ns3:hr>
            <ns3:cad>71</ns3:cad>
          </ns3:TrackPointExtension>
        </extensions>
      </trkpt>
      <trkpt lat="45.34078395925462245941162109375" lon="-70.97056564874947071075439453125">
        <ele>673.79998779296875</ele>
        <time>2026-08-21T18:35:08.000Z</time>
        <extensions>
          <ns3:TrackPointExtension>
            <ns3:hr>126</ns3:hr>
            <ns3:cad>71</ns3:cad>
          </ns3:TrackPointExtension>
        </extensions>
      </trkpt>
      <trkpt lat="45.34080290235579013824462890625" lon="-70.970578975975513458251953125">
        <ele>673.4000244140625</ele>
        <time>2026-08-21T18:35:09.000Z</time>
        <extensions>
          <ns3:TrackPointExtension>
            <ns3:hr>126</ns3:hr>
            <ns3:cad>75</ns3:cad>
          </ns3:TrackPointExtension>
        </extensions>
      </trkpt>
      <trkpt lat="45.3408284671604633331298828125" lon="-70.97058744169771671295166015625">
        <ele>673.20001220703125</ele>
        <time>2026-08-21T18:35:10.000Z</time>
        <extensions>
          <ns3:TrackPointExtension>
            <ns3:hr>126</ns3:hr>
            <ns3:cad>75</ns3:cad>
          </ns3:TrackPointExtension>
        </extensions>
      </trkpt>
      <trkpt lat="45.34084967337548732757568359375" lon="-70.97059230320155620574951171875">
        <ele>672.79998779296875</ele>
        <time>2026-08-21T18:35:11.000Z</time>
        <extensions>
          <ns3:TrackPointExtension>
            <ns3:hr>126</ns3:hr>
            <ns3:cad>78</ns3:cad>
          </ns3:TrackPointExtension>
        </extensions>
      </trkpt>
      <trkpt lat="45.34087448380887508392333984375" lon="-70.9705915488302707672119140625">
        <ele>672.5999755859375</ele>
        <time>2026-08-21T18:35:12.000Z</time>
        <extensions>
          <ns3:TrackPointExtension>
            <ns3:hr>126</ns3:hr>
            <ns3:cad>78</ns3:cad>
          </ns3:TrackPointExtension>
        </extensions>
      </trkpt>
      <trkpt lat="45.34089912660419940948486328125" lon="-70.97057797014713287353515625">
        <ele>672.20001220703125</ele>
        <time>2026-08-21T18:35:13.000Z</time>
        <extensions>
          <ns3:TrackPointExtension>
            <ns3:hr>125</ns3:hr>
            <ns3:cad>77</ns3:cad>
          </ns3:TrackPointExtension>
        </extensions>
      </trkpt>
      <trkpt lat="45.34091840498149394989013671875" lon="-70.97056900151073932647705078125">
        <ele>672</ele>
        <time>2026-08-21T18:35:14.000Z</time>
        <extensions>
          <ns3:TrackPointExtension>
            <ns3:hr>126</ns3:hr>
            <ns3:cad>77</ns3:cad>
          </ns3:TrackPointExtension>
        </extensions>
      </trkpt>
      <trkpt lat="45.3409367613494396209716796875" lon="-70.9705679118633270263671875">
        <ele>671.79998779296875</ele>
        <time>2026-08-21T18:35:15.000Z</time>
        <extensions>
          <ns3:TrackPointExtension>
            <ns3:hr>125</ns3:hr>
            <ns3:cad>77</ns3:cad>
          </ns3:TrackPointExtension>
        </extensions>
      </trkpt>
      <trkpt lat="45.3409535251557826995849609375" lon="-70.97057235427200794219970703125">
        <ele>671.5999755859375</ele>
        <time>2026-08-21T18:35:16.000Z</time>
        <extensions>
          <ns3:TrackPointExtension>
            <ns3:hr>125</ns3:hr>
            <ns3:cad>76</ns3:cad>
          </ns3:TrackPointExtension>
        </extensions>
      </trkpt>
      <trkpt lat="45.34097087569534778594970703125" lon="-70.97058207727968692779541015625">
        <ele>671.4000244140625</ele>
        <time>2026-08-21T18:35:17.000Z</time>
        <extensions>
          <ns3:TrackPointExtension>
            <ns3:hr>126</ns3:hr>
            <ns3:cad>76</ns3:cad>
          </ns3:TrackPointExtension>
        </extensions>
      </trkpt>
      <trkpt lat="45.340988896787166595458984375" lon="-70.97058325074613094329833984375">
        <ele>671.20001220703125</ele>
        <time>2026-08-21T18:35:18.000Z</time>
        <extensions>
          <ns3:TrackPointExtension>
            <ns3:hr>126</ns3:hr>
            <ns3:cad>73</ns3:cad>
          </ns3:TrackPointExtension>
        </extensions>
      </trkpt>
      <trkpt lat="45.3410038165748119354248046875" lon="-70.97058358602225780487060546875">
        <ele>671</ele>
        <time>2026-08-21T18:35:19.000Z</time>
        <extensions>
          <ns3:TrackPointExtension>
            <ns3:hr>126</ns3:hr>
            <ns3:cad>73</ns3:cad>
          </ns3:TrackPointExtension>
        </extensions>
      </trkpt>
      <trkpt lat="45.34102016128599643707275390625" lon="-70.9705875255167484283447265625">
        <ele>670.5999755859375</ele>
        <time>2026-08-21T18:35:20.000Z</time>
        <extensions>
          <ns3:TrackPointExtension>
            <ns3:hr>126</ns3:hr>
            <ns3:cad>73</ns3:cad>
          </ns3:TrackPointExtension>
        </extensions>
      </trkpt>
      <trkpt lat="45.34103684127330780029296875" lon="-70.9705928899347782135009765625">
        <ele>670.4000244140625</ele>
        <time>2026-08-21T18:35:21.000Z</time>
        <extensions>
          <ns3:TrackPointExtension>
            <ns3:hr>127</ns3:hr>
            <ns3:cad>73</ns3:cad>
          </ns3:TrackPointExtension>
        </extensions>
      </trkpt>
      <trkpt lat="45.3410520963370800018310546875" lon="-70.97059800289571285247802734375">
        <ele>670.20001220703125</ele>
        <time>2026-08-21T18:35:22.000Z</time>
        <extensions>
          <ns3:TrackPointExtension>
            <ns3:hr>126</ns3:hr>
            <ns3:cad>73</ns3:cad>
          </ns3:TrackPointExtension>
        </extensions>
      </trkpt>
      <trkpt lat="45.34106768667697906494140625" lon="-70.97060387022793292999267578125">
        <ele>670</ele>
        <time>2026-08-21T18:35:23.000Z</time>
        <extensions>
          <ns3:TrackPointExtension>
            <ns3:hr>126</ns3:hr>
            <ns3:cad>0</ns3:cad>
          </ns3:TrackPointExtension>
        </extensions>
      </trkpt>
      <trkpt lat="45.341080762445926666259765625" lon="-70.970609821379184722900390625">
        <ele>669.79998779296875</ele>
        <time>2026-08-21T18:35:24.000Z</time>
        <extensions>
          <ns3:TrackPointExtension>
            <ns3:hr>126</ns3:hr>
            <ns3:cad>0</ns3:cad>
          </ns3:TrackPointExtension>
        </extensions>
      </trkpt>
      <trkpt lat="45.3410983644425868988037109375" lon="-70.97062348388135433197021484375">
        <ele>669.4000244140625</ele>
        <time>2026-08-21T18:35:25.000Z</time>
        <extensions>
          <ns3:TrackPointExtension>
            <ns3:hr>126</ns3:hr>
            <ns3:cad>73</ns3:cad>
          </ns3:TrackPointExtension>
        </extensions>
      </trkpt>
      <trkpt lat="45.34111621789634227752685546875" lon="-70.9706381522119045257568359375">
        <ele>669.20001220703125</ele>
        <time>2026-08-21T18:35:26.000Z</time>
        <extensions>
          <ns3:TrackPointExtension>
            <ns3:hr>125</ns3:hr>
            <ns3:cad>73</ns3:cad>
          </ns3:TrackPointExtension>
        </extensions>
      </trkpt>
      <trkpt lat="45.34113080240786075592041015625" lon="-70.970650054514408111572265625">
        <ele>668.79998779296875</ele>
        <time>2026-08-21T18:35:27.000Z</time>
        <extensions>
          <ns3:TrackPointExtension>
            <ns3:hr>125</ns3:hr>
            <ns3:cad>73</ns3:cad>
          </ns3:TrackPointExtension>
        </extensions>
      </trkpt>
      <trkpt lat="45.34115083515644073486328125" lon="-70.9706602804362773895263671875">
        <ele>668.5999755859375</ele>
        <time>2026-08-21T18:35:28.000Z</time>
        <extensions>
          <ns3:TrackPointExtension>
            <ns3:hr>124</ns3:hr>
            <ns3:cad>75</ns3:cad>
          </ns3:TrackPointExtension>
        </extensions>
      </trkpt>
      <trkpt lat="45.34116868861019611358642578125" lon="-70.97066438756883144378662109375">
        <ele>668.4000244140625</ele>
        <time>2026-08-21T18:35:29.000Z</time>
        <extensions>
          <ns3:TrackPointExtension>
            <ns3:hr>124</ns3:hr>
            <ns3:cad>75</ns3:cad>
          </ns3:TrackPointExtension>
        </extensions>
      </trkpt>
      <trkpt lat="45.34118746407330036163330078125" lon="-70.9706612862646579742431640625">
        <ele>668</ele>
        <time>2026-08-21T18:35:30.000Z</time>
        <extensions>
          <ns3:TrackPointExtension>
            <ns3:hr>124</ns3:hr>
            <ns3:cad>76</ns3:cad>
          </ns3:TrackPointExtension>
        </extensions>
      </trkpt>
      <trkpt lat="45.34120774827897548675537109375" lon="-70.970654748380184173583984375">
        <ele>667.79998779296875</ele>
        <time>2026-08-21T18:35:31.000Z</time>
        <extensions>
          <ns3:TrackPointExtension>
            <ns3:hr>124</ns3:hr>
            <ns3:cad>76</ns3:cad>
          </ns3:TrackPointExtension>
        </extensions>
      </trkpt>
      <trkpt lat="45.34122635610401630401611328125" lon="-70.97065667621791362762451171875">
        <ele>667.4000244140625</ele>
        <time>2026-08-21T18:35:32.000Z</time>
        <extensions>
          <ns3:TrackPointExtension>
            <ns3:hr>125</ns3:hr>
            <ns3:cad>76</ns3:cad>
          </ns3:TrackPointExtension>
        </extensions>
      </trkpt>
      <trkpt lat="45.34124664030969142913818359375" lon="-70.97065047360956668853759765625">
        <ele>667.20001220703125</ele>
        <time>2026-08-21T18:35:33.000Z</time>
        <extensions>
          <ns3:TrackPointExtension>
            <ns3:hr>125</ns3:hr>
            <ns3:cad>75</ns3:cad>
          </ns3:TrackPointExtension>
        </extensions>
      </trkpt>
      <trkpt lat="45.34126541577279567718505859375" lon="-70.9706572629511356353759765625">
        <ele>667</ele>
        <time>2026-08-21T18:35:34.000Z</time>
        <extensions>
          <ns3:TrackPointExtension>
            <ns3:hr>125</ns3:hr>
            <ns3:cad>75</ns3:cad>
          </ns3:TrackPointExtension>
        </extensions>
      </trkpt>
      <trkpt lat="45.3412802517414093017578125" lon="-70.970668494701385498046875">
        <ele>666.5999755859375</ele>
        <time>2026-08-21T18:35:35.000Z</time>
        <extensions>
          <ns3:TrackPointExtension>
            <ns3:hr>125</ns3:hr>
            <ns3:cad>75</ns3:cad>
          </ns3:TrackPointExtension>
        </extensions>
      </trkpt>
      <trkpt lat="45.3412988595664501190185546875" lon="-70.97067880444228649139404296875">
        <ele>666.4000244140625</ele>
        <time>2026-08-21T18:35:36.000Z</time>
        <extensions>
          <ns3:TrackPointExtension>
            <ns3:hr>125</ns3:hr>
            <ns3:cad>75</ns3:cad>
          </ns3:TrackPointExtension>
        </extensions>
      </trkpt>
      <trkpt lat="45.3413172997534275054931640625" lon="-70.97068131901323795318603515625">
        <ele>666</ele>
        <time>2026-08-21T18:35:37.000Z</time>
        <extensions>
          <ns3:TrackPointExtension>
            <ns3:hr>125</ns3:hr>
            <ns3:cad>75</ns3:cad>
          </ns3:TrackPointExtension>
        </extensions>
      </trkpt>
      <trkpt lat="45.3413343988358974456787109375" lon="-70.9706881083548069000244140625">
        <ele>665.79998779296875</ele>
        <time>2026-08-21T18:35:38.000Z</time>
        <extensions>
          <ns3:TrackPointExtension>
            <ns3:hr>124</ns3:hr>
            <ns3:cad>75</ns3:cad>
          </ns3:TrackPointExtension>
        </extensions>
      </trkpt>
      <trkpt lat="45.34135376103222370147705078125" lon="-70.9706964902579784393310546875">
        <ele>665.5999755859375</ele>
        <time>2026-08-21T18:35:39.000Z</time>
        <extensions>
          <ns3:TrackPointExtension>
            <ns3:hr>124</ns3:hr>
            <ns3:cad>75</ns3:cad>
          </ns3:TrackPointExtension>
        </extensions>
      </trkpt>
      <trkpt lat="45.341369770467281341552734375" lon="-70.9706939756870269775390625">
        <ele>665.20001220703125</ele>
        <time>2026-08-21T18:35:40.000Z</time>
        <extensions>
          <ns3:TrackPointExtension>
            <ns3:hr>124</ns3:hr>
            <ns3:cad>75</ns3:cad>
          </ns3:TrackPointExtension>
        </extensions>
      </trkpt>
      <trkpt lat="45.341388881206512451171875" lon="-70.9706874378025531768798828125">
        <ele>665</ele>
        <time>2026-08-21T18:35:41.000Z</time>
        <extensions>
          <ns3:TrackPointExtension>
            <ns3:hr>124</ns3:hr>
            <ns3:cad>75</ns3:cad>
          </ns3:TrackPointExtension>
        </extensions>
      </trkpt>
      <trkpt lat="45.3414095006883144378662109375" lon="-70.97068550996482372283935546875">
        <ele>664.79998779296875</ele>
        <time>2026-08-21T18:35:42.000Z</time>
        <extensions>
          <ns3:TrackPointExtension>
            <ns3:hr>124</ns3:hr>
            <ns3:cad>75</ns3:cad>
          </ns3:TrackPointExtension>
        </extensions>
      </trkpt>
      <trkpt lat="45.34142634831368923187255859375" lon="-70.97068567760288715362548828125">
        <ele>664.5999755859375</ele>
        <time>2026-08-21T18:35:43.000Z</time>
        <extensions>
          <ns3:TrackPointExtension>
            <ns3:hr>124</ns3:hr>
            <ns3:cad>75</ns3:cad>
          </ns3:TrackPointExtension>
        </extensions>
      </trkpt>
      <trkpt lat="45.341446883976459503173828125" lon="-70.97068785689771175384521484375">
        <ele>664.4000244140625</ele>
        <time>2026-08-21T18:35:44.000Z</time>
        <extensions>
          <ns3:TrackPointExtension>
            <ns3:hr>125</ns3:hr>
            <ns3:cad>75</ns3:cad>
          </ns3:TrackPointExtension>
        </extensions>
      </trkpt>
      <trkpt lat="45.34146624617278575897216796875" lon="-70.9706988371908664703369140625">
        <ele>664</ele>
        <time>2026-08-21T18:35:45.000Z</time>
        <extensions>
          <ns3:TrackPointExtension>
            <ns3:hr>125</ns3:hr>
            <ns3:cad>75</ns3:cad>
          </ns3:TrackPointExtension>
        </extensions>
      </trkpt>
      <trkpt lat="45.341481752693653106689453125" lon="-70.9707127511501312255859375">
        <ele>663.79998779296875</ele>
        <time>2026-08-21T18:35:46.000Z</time>
        <extensions>
          <ns3:TrackPointExtension>
            <ns3:hr>125</ns3:hr>
            <ns3:cad>75</ns3:cad>
          </ns3:TrackPointExtension>
        </extensions>
      </trkpt>
      <trkpt lat="45.3414948284626007080078125" lon="-70.9707270003855228424072265625">
        <ele>663.4000244140625</ele>
        <time>2026-08-21T18:35:47.000Z</time>
        <extensions>
          <ns3:TrackPointExtension>
            <ns3:hr>125</ns3:hr>
            <ns3:cad>75</ns3:cad>
          </ns3:TrackPointExtension>
        </extensions>
      </trkpt>
      <trkpt lat="45.34151025116443634033203125" lon="-70.97073731012642383575439453125">
        <ele>663.20001220703125</ele>
        <time>2026-08-21T18:35:48.000Z</time>
        <extensions>
          <ns3:TrackPointExtension>
            <ns3:hr>125</ns3:hr>
            <ns3:cad>78</ns3:cad>
          </ns3:TrackPointExtension>
        </extensions>
      </trkpt>
      <trkpt lat="45.34152843989431858062744140625" lon="-70.97074736841022968292236328125">
        <ele>662.79998779296875</ele>
        <time>2026-08-21T18:35:49.000Z</time>
        <extensions>
          <ns3:TrackPointExtension>
            <ns3:hr>125</ns3:hr>
            <ns3:cad>78</ns3:cad>
          </ns3:TrackPointExtension>
        </extensions>
      </trkpt>
      <trkpt lat="45.3415511548519134521484375" lon="-70.97074854187667369842529296875">
        <ele>662.5999755859375</ele>
        <time>2026-08-21T18:35:50.000Z</time>
        <extensions>
          <ns3:TrackPointExtension>
            <ns3:hr>126</ns3:hr>
            <ns3:cad>78</ns3:cad>
          </ns3:TrackPointExtension>
        </extensions>
      </trkpt>
      <trkpt lat="45.341570936143398284912109375" lon="-70.9707481227815151214599609375">
        <ele>662.20001220703125</ele>
        <time>2026-08-21T18:35:51.000Z</time>
        <extensions>
          <ns3:TrackPointExtension>
            <ns3:hr>126</ns3:hr>
            <ns3:cad>78</ns3:cad>
          </ns3:TrackPointExtension>
        </extensions>
      </trkpt>
      <trkpt lat="45.34158644266426563262939453125" lon="-70.9707394056022167205810546875">
        <ele>662</ele>
        <time>2026-08-21T18:35:52.000Z</time>
        <extensions>
          <ns3:TrackPointExtension>
            <ns3:hr>126</ns3:hr>
            <ns3:cad>77</ns3:cad>
          </ns3:TrackPointExtension>
        </extensions>
      </trkpt>
      <trkpt lat="45.34160689450800418853759765625" lon="-70.97073177807033061981201171875">
        <ele>661.5999755859375</ele>
        <time>2026-08-21T18:35:53.000Z</time>
        <extensions>
          <ns3:TrackPointExtension>
            <ns3:hr>126</ns3:hr>
            <ns3:cad>76</ns3:cad>
          </ns3:TrackPointExtension>
        </extensions>
      </trkpt>
      <trkpt lat="45.34161929972469806671142578125" lon="-70.97071903757750988006591796875">
        <ele>661.4000244140625</ele>
        <time>2026-08-21T18:35:54.000Z</time>
        <extensions>
          <ns3:TrackPointExtension>
            <ns3:hr>126</ns3:hr>
            <ns3:cad>76</ns3:cad>
          </ns3:TrackPointExtension>
        </extensions>
      </trkpt>
      <trkpt lat="45.3416348062455654144287109375" lon="-70.97070663236081600189208984375">
        <ele>661.20001220703125</ele>
        <time>2026-08-21T18:35:55.000Z</time>
        <extensions>
          <ns3:TrackPointExtension>
            <ns3:hr>126</ns3:hr>
            <ns3:cad>76</ns3:cad>
          </ns3:TrackPointExtension>
        </extensions>
      </trkpt>
      <trkpt lat="45.34165282733738422393798828125" lon="-70.97070001065731048583984375">
        <ele>661</ele>
        <time>2026-08-21T18:35:56.000Z</time>
        <extensions>
          <ns3:TrackPointExtension>
            <ns3:hr>126</ns3:hr>
            <ns3:cad>76</ns3:cad>
          </ns3:TrackPointExtension>
        </extensions>
      </trkpt>
      <trkpt lat="45.341667830944061279296875" lon="-70.97070327959954738616943359375">
        <ele>660.79998779296875</ele>
        <time>2026-08-21T18:35:57.000Z</time>
        <extensions>
          <ns3:TrackPointExtension>
            <ns3:hr>126</ns3:hr>
            <ns3:cad>76</ns3:cad>
          </ns3:TrackPointExtension>
        </extensions>
      </trkpt>
      <trkpt lat="45.341684930026531219482421875" lon="-70.97071166150271892547607421875">
        <ele>660.5999755859375</ele>
        <time>2026-08-21T18:35:58.000Z</time>
        <extensions>
          <ns3:TrackPointExtension>
            <ns3:hr>126</ns3:hr>
            <ns3:cad>76</ns3:cad>
          </ns3:TrackPointExtension>
        </extensions>
      </trkpt>
      <trkpt lat="45.34170311875641345977783203125" lon="-70.9707176126539707183837890625">
        <ele>660.4000244140625</ele>
        <time>2026-08-21T18:35:59.000Z</time>
        <extensions>
          <ns3:TrackPointExtension>
            <ns3:hr>126</ns3:hr>
            <ns3:cad>76</ns3:cad>
          </ns3:TrackPointExtension>
        </extensions>
      </trkpt>
      <trkpt lat="45.3417199663817882537841796875" lon="-70.9707186184823513031005859375">
        <ele>660</ele>
        <time>2026-08-21T18:36:00.000Z</time>
        <extensions>
          <ns3:TrackPointExtension>
            <ns3:hr>126</ns3:hr>
            <ns3:cad>76</ns3:cad>
          </ns3:TrackPointExtension>
        </extensions>
      </trkpt>
      <trkpt lat="45.34173958003520965576171875" lon="-70.9707082249224185943603515625">
        <ele>659.79998779296875</ele>
        <time>2026-08-21T18:36:01.000Z</time>
        <extensions>
          <ns3:TrackPointExtension>
            <ns3:hr>126</ns3:hr>
            <ns3:cad>76</ns3:cad>
          </ns3:TrackPointExtension>
        </extensions>
      </trkpt>
      <trkpt lat="45.3417551703751087188720703125" lon="-70.9707038663327693939208984375">
        <ele>659.5999755859375</ele>
        <time>2026-08-21T18:36:02.000Z</time>
        <extensions>
          <ns3:TrackPointExtension>
            <ns3:hr>126</ns3:hr>
            <ns3:cad>76</ns3:cad>
          </ns3:TrackPointExtension>
        </extensions>
      </trkpt>
      <trkpt lat="45.3417739458382129669189453125" lon="-70.97069623880088329315185546875">
        <ele>659.4000244140625</ele>
        <time>2026-08-21T18:36:03.000Z</time>
        <extensions>
          <ns3:TrackPointExtension>
            <ns3:hr>126</ns3:hr>
            <ns3:cad>76</ns3:cad>
          </ns3:TrackPointExtension>
        </extensions>
      </trkpt>
      <trkpt lat="45.3417910449206829071044921875" lon="-70.97068483941256999969482421875">
        <ele>659.20001220703125</ele>
        <time>2026-08-21T18:36:04.000Z</time>
        <extensions>
          <ns3:TrackPointExtension>
            <ns3:hr>126</ns3:hr>
            <ns3:cad>76</ns3:cad>
          </ns3:TrackPointExtension>
        </extensions>
      </trkpt>
      <trkpt lat="45.3418078087270259857177734375" lon="-70.97067276947200298309326171875">
        <ele>659</ele>
        <time>2026-08-21T18:36:05.000Z</time>
        <extensions>
          <ns3:TrackPointExtension>
            <ns3:hr>126</ns3:hr>
            <ns3:cad>76</ns3:cad>
          </ns3:TrackPointExtension>
        </extensions>
      </trkpt>
      <trkpt lat="45.34182314760982990264892578125" lon="-70.97066405229270458221435546875">
        <ele>658.79998779296875</ele>
        <time>2026-08-21T18:36:06.000Z</time>
        <extensions>
          <ns3:TrackPointExtension>
            <ns3:hr>126</ns3:hr>
            <ns3:cad>76</ns3:cad>
          </ns3:TrackPointExtension>
        </extensions>
      </trkpt>
      <trkpt lat="45.341838486492633819580078125" lon="-70.97065332345664501190185546875">
        <ele>658.5999755859375</ele>
        <time>2026-08-21T18:36:07.000Z</time>
        <extensions>
          <ns3:TrackPointExtension>
            <ns3:hr>126</ns3:hr>
            <ns3:cad>72</ns3:cad>
          </ns3:TrackPointExtension>
        </extensions>
      </trkpt>
      <trkpt lat="45.34185181371867656707763671875" lon="-70.9706455282866954803466796875">
        <ele>658.4000244140625</ele>
        <time>2026-08-21T18:36:08.000Z</time>
        <extensions>
          <ns3:TrackPointExtension>
            <ns3:hr>126</ns3:hr>
            <ns3:cad>72</ns3:cad>
          </ns3:TrackPointExtension>
        </extensions>
      </trkpt>
      <trkpt lat="45.34186690114438533782958984375" lon="-70.97064862959086894989013671875">
        <ele>658.20001220703125</ele>
        <time>2026-08-21T18:36:09.000Z</time>
        <extensions>
          <ns3:TrackPointExtension>
            <ns3:hr>126</ns3:hr>
            <ns3:cad>72</ns3:cad>
          </ns3:TrackPointExtension>
        </extensions>
      </trkpt>
      <trkpt lat="45.34188282676041126251220703125" lon="-70.97065734677016735076904296875">
        <ele>657.79998779296875</ele>
        <time>2026-08-21T18:36:10.000Z</time>
        <extensions>
          <ns3:TrackPointExtension>
            <ns3:hr>126</ns3:hr>
            <ns3:cad>72</ns3:cad>
          </ns3:TrackPointExtension>
        </extensions>
      </trkpt>
      <trkpt lat="45.341899506747722625732421875" lon="-70.97066874615848064422607421875">
        <ele>657.5999755859375</ele>
        <time>2026-08-21T18:36:11.000Z</time>
        <extensions>
          <ns3:TrackPointExtension>
            <ns3:hr>126</ns3:hr>
            <ns3:cad>72</ns3:cad>
          </ns3:TrackPointExtension>
        </extensions>
      </trkpt>
      <trkpt lat="45.3419164381921291351318359375" lon="-70.9706760384142398834228515625">
        <ele>657.4000244140625</ele>
        <time>2026-08-21T18:36:12.000Z</time>
        <extensions>
          <ns3:TrackPointExtension>
            <ns3:hr>126</ns3:hr>
            <ns3:cad>72</ns3:cad>
          </ns3:TrackPointExtension>
        </extensions>
      </trkpt>
      <trkpt lat="45.34193336963653564453125" lon="-70.97067830152809619903564453125">
        <ele>657</ele>
        <time>2026-08-21T18:36:13.000Z</time>
        <extensions>
          <ns3:TrackPointExtension>
            <ns3:hr>126</ns3:hr>
            <ns3:cad>72</ns3:cad>
          </ns3:TrackPointExtension>
        </extensions>
      </trkpt>
      <trkpt lat="45.34195281565189361572265625" lon="-70.97067880444228649139404296875">
        <ele>656.79998779296875</ele>
        <time>2026-08-21T18:36:14.000Z</time>
        <extensions>
          <ns3:TrackPointExtension>
            <ns3:hr>126</ns3:hr>
            <ns3:cad>72</ns3:cad>
          </ns3:TrackPointExtension>
        </extensions>
      </trkpt>
      <trkpt lat="45.3419717587530612945556640625" lon="-70.9706844203174114227294921875">
        <ele>656.5999755859375</ele>
        <time>2026-08-21T18:36:15.000Z</time>
        <extensions>
          <ns3:TrackPointExtension>
            <ns3:hr>126</ns3:hr>
            <ns3:cad>72</ns3:cad>
          </ns3:TrackPointExtension>
        </extensions>
      </trkpt>
      <trkpt lat="45.34198994748294353485107421875" lon="-70.970688946545124053955078125">
        <ele>656.4000244140625</ele>
        <time>2026-08-21T18:36:16.000Z</time>
        <extensions>
          <ns3:TrackPointExtension>
            <ns3:hr>127</ns3:hr>
            <ns3:cad>72</ns3:cad>
          </ns3:TrackPointExtension>
        </extensions>
      </trkpt>
      <trkpt lat="45.34200637601315975189208984375" lon="-70.97069808281958103179931640625">
        <ele>656</ele>
        <time>2026-08-21T18:36:17.000Z</time>
        <extensions>
          <ns3:TrackPointExtension>
            <ns3:hr>128</ns3:hr>
            <ns3:cad>72</ns3:cad>
          </ns3:TrackPointExtension>
        </extensions>
      </trkpt>
      <trkpt lat="45.34201961942017078399658203125" lon="-70.97070344723761081695556640625">
        <ele>655.79998779296875</ele>
        <time>2026-08-21T18:36:18.000Z</time>
        <extensions>
          <ns3:TrackPointExtension>
            <ns3:hr>128</ns3:hr>
            <ns3:cad>72</ns3:cad>
          </ns3:TrackPointExtension>
        </extensions>
      </trkpt>
      <trkpt lat="45.34203889779746532440185546875" lon="-70.970711074769496917724609375">
        <ele>655.5999755859375</ele>
        <time>2026-08-21T18:36:19.000Z</time>
        <extensions>
          <ns3:TrackPointExtension>
            <ns3:hr>128</ns3:hr>
            <ns3:cad>72</ns3:cad>
          </ns3:TrackPointExtension>
        </extensions>
      </trkpt>
      <trkpt lat="45.34205532632768154144287109375" lon="-70.97071702592074871063232421875">
        <ele>655.4000244140625</ele>
        <time>2026-08-21T18:36:20.000Z</time>
        <extensions>
          <ns3:TrackPointExtension>
            <ns3:hr>128</ns3:hr>
            <ns3:cad>77</ns3:cad>
          </ns3:TrackPointExtension>
        </extensions>
      </trkpt>
      <trkpt lat="45.34206907264888286590576171875" lon="-70.97072004340589046478271484375">
        <ele>655</ele>
        <time>2026-08-21T18:36:21.000Z</time>
        <extensions>
          <ns3:TrackPointExtension>
            <ns3:hr>128</ns3:hr>
            <ns3:cad>77</ns3:cad>
          </ns3:TrackPointExtension>
        </extensions>
      </trkpt>
      <trkpt lat="45.342084579169750213623046875" lon="-70.97072859294712543487548828125">
        <ele>654.79998779296875</ele>
        <time>2026-08-21T18:36:22.000Z</time>
        <extensions>
          <ns3:TrackPointExtension>
            <ns3:hr>128</ns3:hr>
            <ns3:cad>76</ns3:cad>
          </ns3:TrackPointExtension>
        </extensions>
      </trkpt>
      <trkpt lat="45.34210276789963245391845703125" lon="-70.9707360528409481048583984375">
        <ele>654.4000244140625</ele>
        <time>2026-08-21T18:36:23.000Z</time>
        <extensions>
          <ns3:TrackPointExtension>
            <ns3:hr>128</ns3:hr>
            <ns3:cad>76</ns3:cad>
          </ns3:TrackPointExtension>
        </extensions>
      </trkpt>
      <trkpt lat="45.342121459543704986572265625" lon="-70.97073848359286785125732421875">
        <ele>654.20001220703125</ele>
        <time>2026-08-21T18:36:24.000Z</time>
        <extensions>
          <ns3:TrackPointExtension>
            <ns3:hr>128</ns3:hr>
            <ns3:cad>76</ns3:cad>
          </ns3:TrackPointExtension>
        </extensions>
      </trkpt>
      <trkpt lat="45.34214216284453868865966796875" lon="-70.97073479555547237396240234375">
        <ele>654</ele>
        <time>2026-08-21T18:36:25.000Z</time>
        <extensions>
          <ns3:TrackPointExtension>
            <ns3:hr>128</ns3:hr>
            <ns3:cad>75</ns3:cad>
          </ns3:TrackPointExtension>
        </extensions>
      </trkpt>
      <trkpt lat="45.3421615250408649444580078125" lon="-70.97073345445096492767333984375">
        <ele>653.5999755859375</ele>
        <time>2026-08-21T18:36:26.000Z</time>
        <extensions>
          <ns3:TrackPointExtension>
            <ns3:hr>127</ns3:hr>
            <ns3:cad>75</ns3:cad>
          </ns3:TrackPointExtension>
        </extensions>
      </trkpt>
      <trkpt lat="45.34217921085655689239501953125" lon="-70.97073177807033061981201171875">
        <ele>653.4000244140625</ele>
        <time>2026-08-21T18:36:27.000Z</time>
        <extensions>
          <ns3:TrackPointExtension>
            <ns3:hr>128</ns3:hr>
            <ns3:cad>77</ns3:cad>
          </ns3:TrackPointExtension>
        </extensions>
      </trkpt>
      <trkpt lat="45.3421994112432003021240234375" lon="-70.97073429264128208160400390625">
        <ele>653.20001220703125</ele>
        <time>2026-08-21T18:36:28.000Z</time>
        <extensions>
          <ns3:TrackPointExtension>
            <ns3:hr>128</ns3:hr>
            <ns3:cad>77</ns3:cad>
          </ns3:TrackPointExtension>
        </extensions>
      </trkpt>
      <trkpt lat="45.34221927635371685028076171875" lon="-70.97073647193610668182373046875">
        <ele>653</ele>
        <time>2026-08-21T18:36:29.000Z</time>
        <extensions>
          <ns3:TrackPointExtension>
            <ns3:hr>128</ns3:hr>
            <ns3:cad>77</ns3:cad>
          </ns3:TrackPointExtension>
        </extensions>
      </trkpt>
      <trkpt lat="45.34224090166389942169189453125" lon="-70.9707383997738361358642578125">
        <ele>652.79998779296875</ele>
        <time>2026-08-21T18:36:30.000Z</time>
        <extensions>
          <ns3:TrackPointExtension>
            <ns3:hr>128</ns3:hr>
            <ns3:cad>77</ns3:cad>
          </ns3:TrackPointExtension>
        </extensions>
      </trkpt>
      <trkpt lat="45.3422594256699085235595703125" lon="-70.97073814831674098968505859375">
        <ele>652.5999755859375</ele>
        <time>2026-08-21T18:36:31.000Z</time>
        <extensions>
          <ns3:TrackPointExtension>
            <ns3:hr>128</ns3:hr>
            <ns3:cad>77</ns3:cad>
          </ns3:TrackPointExtension>
        </extensions>
      </trkpt>
      <trkpt lat="45.34227811731398105621337890625" lon="-70.9707414172589778900146484375">
        <ele>652.20001220703125</ele>
        <time>2026-08-21T18:36:32.000Z</time>
        <extensions>
          <ns3:TrackPointExtension>
            <ns3:hr>127</ns3:hr>
            <ns3:cad>77</ns3:cad>
          </ns3:TrackPointExtension>
        </extensions>
      </trkpt>
      <trkpt lat="45.34229907207190990447998046875" lon="-70.97074803896248340606689453125">
        <ele>652</ele>
        <time>2026-08-21T18:36:33.000Z</time>
        <extensions>
          <ns3:TrackPointExtension>
            <ns3:hr>128</ns3:hr>
            <ns3:cad>77</ns3:cad>
          </ns3:TrackPointExtension>
        </extensions>
      </trkpt>
      <trkpt lat="45.34231700934469699859619140625" lon="-70.9707558341324329376220703125">
        <ele>651.5999755859375</ele>
        <time>2026-08-21T18:36:34.000Z</time>
        <extensions>
          <ns3:TrackPointExtension>
            <ns3:hr>128</ns3:hr>
            <ns3:cad>77</ns3:cad>
          </ns3:TrackPointExtension>
        </extensions>
      </trkpt>
      <trkpt lat="45.34233327023684978485107421875" lon="-70.97076513804495334625244140625">
        <ele>651.4000244140625</ele>
        <time>2026-08-21T18:36:35.000Z</time>
        <extensions>
          <ns3:TrackPointExtension>
            <ns3:hr>128</ns3:hr>
            <ns3:cad>77</ns3:cad>
          </ns3:TrackPointExtension>
        </extensions>
      </trkpt>
      <trkpt lat="45.34235087223351001739501953125" lon="-70.97078315913677215576171875">
        <ele>651.20001220703125</ele>
        <time>2026-08-21T18:36:36.000Z</time>
        <extensions>
          <ns3:TrackPointExtension>
            <ns3:hr>129</ns3:hr>
            <ns3:cad>77</ns3:cad>
          </ns3:TrackPointExtension>
        </extensions>
      </trkpt>
      <trkpt lat="45.34236780367791652679443359375" lon="-70.97079346887767314910888671875">
        <ele>650.79998779296875</ele>
        <time>2026-08-21T18:36:37.000Z</time>
        <extensions>
          <ns3:TrackPointExtension>
            <ns3:hr>129</ns3:hr>
            <ns3:cad>77</ns3:cad>
          </ns3:TrackPointExtension>
        </extensions>
      </trkpt>
      <trkpt lat="45.34238389693200588226318359375" lon="-70.9708024375140666961669921875">
        <ele>650.5999755859375</ele>
        <time>2026-08-21T18:36:38.000Z</time>
        <extensions>
          <ns3:TrackPointExtension>
            <ns3:hr>129</ns3:hr>
            <ns3:cad>77</ns3:cad>
          </ns3:TrackPointExtension>
        </extensions>
      </trkpt>
      <trkpt lat="45.3423999063670635223388671875" lon="-70.97081794403493404388427734375">
        <ele>650.4000244140625</ele>
        <time>2026-08-21T18:36:39.000Z</time>
        <extensions>
          <ns3:TrackPointExtension>
            <ns3:hr>130</ns3:hr>
            <ns3:cad>79</ns3:cad>
          </ns3:TrackPointExtension>
        </extensions>
      </trkpt>
      <trkpt lat="45.34241356886923313140869140625" lon="-70.97083219327032566070556640625">
        <ele>650.20001220703125</ele>
        <time>2026-08-21T18:36:40.000Z</time>
        <extensions>
          <ns3:TrackPointExtension>
            <ns3:hr>130</ns3:hr>
            <ns3:cad>79</ns3:cad>
          </ns3:TrackPointExtension>
        </extensions>
      </trkpt>
      <trkpt lat="45.34243050031363964080810546875" lon="-70.97083906643092632293701171875">
        <ele>650</ele>
        <time>2026-08-21T18:36:41.000Z</time>
        <extensions>
          <ns3:TrackPointExtension>
            <ns3:hr>130</ns3:hr>
            <ns3:cad>79</ns3:cad>
          </ns3:TrackPointExtension>
        </extensions>
      </trkpt>
      <trkpt lat="45.3424470126628875732421875" lon="-70.9708376415073871612548828125">
        <ele>649.79998779296875</ele>
        <time>2026-08-21T18:36:42.000Z</time>
        <extensions>
          <ns3:TrackPointExtension>
            <ns3:hr>130</ns3:hr>
            <ns3:cad>79</ns3:cad>
          </ns3:TrackPointExtension>
        </extensions>
      </trkpt>
      <trkpt lat="45.342463441193103790283203125" lon="-70.9708430059254169464111328125">
        <ele>649.5999755859375</ele>
        <time>2026-08-21T18:36:43.000Z</time>
        <extensions>
          <ns3:TrackPointExtension>
            <ns3:hr>130</ns3:hr>
            <ns3:cad>79</ns3:cad>
          </ns3:TrackPointExtension>
        </extensions>
      </trkpt>
      <trkpt lat="45.3424793668091297149658203125" lon="-70.970852561295032501220703125">
        <ele>649.4000244140625</ele>
        <time>2026-08-21T18:36:44.000Z</time>
        <extensions>
          <ns3:TrackPointExtension>
            <ns3:hr>129</ns3:hr>
            <ns3:cad>76</ns3:cad>
          </ns3:TrackPointExtension>
        </extensions>
      </trkpt>
      <trkpt lat="45.34249470569193363189697265625" lon="-70.97086270339787006378173828125">
        <ele>649.20001220703125</ele>
        <time>2026-08-21T18:36:45.000Z</time>
        <extensions>
          <ns3:TrackPointExtension>
            <ns3:hr>128</ns3:hr>
            <ns3:cad>76</ns3:cad>
          </ns3:TrackPointExtension>
        </extensions>
      </trkpt>
      <trkpt lat="45.34251272678375244140625" lon="-70.97087125293910503387451171875">
        <ele>649</ele>
        <time>2026-08-21T18:36:46.000Z</time>
        <extensions>
          <ns3:TrackPointExtension>
            <ns3:hr>128</ns3:hr>
            <ns3:cad>76</ns3:cad>
          </ns3:TrackPointExtension>
        </extensions>
      </trkpt>
      <trkpt lat="45.34253058023750782012939453125" lon="-70.970874689519405364990234375">
        <ele>648.79998779296875</ele>
        <time>2026-08-21T18:36:47.000Z</time>
        <extensions>
          <ns3:TrackPointExtension>
            <ns3:hr>128</ns3:hr>
            <ns3:cad>70</ns3:cad>
          </ns3:TrackPointExtension>
        </extensions>
      </trkpt>
      <trkpt lat="45.34255765378475189208984375" lon="-70.97087091766297817230224609375">
        <ele>648.5999755859375</ele>
        <time>2026-08-21T18:36:48.000Z</time>
        <extensions>
          <ns3:TrackPointExtension>
            <ns3:hr>127</ns3:hr>
            <ns3:cad>70</ns3:cad>
          </ns3:TrackPointExtension>
        </extensions>
      </trkpt>
      <trkpt lat="45.342571735382080078125" lon="-70.97087033092975616455078125">
        <ele>648.20001220703125</ele>
        <time>2026-08-21T18:36:49.000Z</time>
        <extensions>
          <ns3:TrackPointExtension>
            <ns3:hr>127</ns3:hr>
            <ns3:cad>70</ns3:cad>
          </ns3:TrackPointExtension>
        </extensions>
      </trkpt>
      <trkpt lat="45.34258757717907428741455078125" lon="-70.97087544389069080352783203125">
        <ele>648</ele>
        <time>2026-08-21T18:36:50.000Z</time>
        <extensions>
          <ns3:TrackPointExtension>
            <ns3:hr>127</ns3:hr>
            <ns3:cad>70</ns3:cad>
          </ns3:TrackPointExtension>
        </extensions>
      </trkpt>
      <trkpt lat="45.34260232932865619659423828125" lon="-70.9708852507174015045166015625">
        <ele>647.79998779296875</ele>
        <time>2026-08-21T18:36:51.000Z</time>
        <extensions>
          <ns3:TrackPointExtension>
            <ns3:hr>126</ns3:hr>
            <ns3:cad>70</ns3:cad>
          </ns3:TrackPointExtension>
        </extensions>
      </trkpt>
      <trkpt lat="45.342614986002445220947265625" lon="-70.97089581191539764404296875">
        <ele>647.5999755859375</ele>
        <time>2026-08-21T18:36:52.000Z</time>
        <extensions>
          <ns3:TrackPointExtension>
            <ns3:hr>126</ns3:hr>
            <ns3:cad>70</ns3:cad>
          </ns3:TrackPointExtension>
        </extensions>
      </trkpt>
      <trkpt lat="45.3426319174468517303466796875" lon="-70.970901511609554290771484375">
        <ele>647.4000244140625</ele>
        <time>2026-08-21T18:36:53.000Z</time>
        <extensions>
          <ns3:TrackPointExtension>
            <ns3:hr>126</ns3:hr>
            <ns3:cad>70</ns3:cad>
          </ns3:TrackPointExtension>
        </extensions>
      </trkpt>
      <trkpt lat="45.34264960326254367828369140625" lon="-70.9709050320088863372802734375">
        <ele>647.20001220703125</ele>
        <time>2026-08-21T18:36:54.000Z</time>
        <extensions>
          <ns3:TrackPointExtension>
            <ns3:hr>126</ns3:hr>
            <ns3:cad>70</ns3:cad>
          </ns3:TrackPointExtension>
        </extensions>
      </trkpt>
      <trkpt lat="45.3426671214401721954345703125" lon="-70.970908217132091522216796875">
        <ele>647</ele>
        <time>2026-08-21T18:36:55.000Z</time>
        <extensions>
          <ns3:TrackPointExtension>
            <ns3:hr>126</ns3:hr>
            <ns3:cad>70</ns3:cad>
          </ns3:TrackPointExtension>
        </extensions>
      </trkpt>
      <trkpt lat="45.34268346615135669708251953125" lon="-70.9709147550165653228759765625">
        <ele>646.79998779296875</ele>
        <time>2026-08-21T18:36:56.000Z</time>
        <extensions>
          <ns3:TrackPointExtension>
            <ns3:hr>126</ns3:hr>
            <ns3:cad>74</ns3:cad>
          </ns3:TrackPointExtension>
        </extensions>
      </trkpt>
      <trkpt lat="45.3426999785006046295166015625" lon="-70.97091726958751678466796875">
        <ele>646.5999755859375</ele>
        <time>2026-08-21T18:36:57.000Z</time>
        <extensions>
          <ns3:TrackPointExtension>
            <ns3:hr>126</ns3:hr>
            <ns3:cad>74</ns3:cad>
          </ns3:TrackPointExtension>
        </extensions>
      </trkpt>
      <trkpt lat="45.34271883778274059295654296875" lon="-70.97092137672007083892822265625">
        <ele>646.4000244140625</ele>
        <time>2026-08-21T18:36:58.000Z</time>
        <extensions>
          <ns3:TrackPointExtension>
            <ns3:hr>126</ns3:hr>
            <ns3:cad>74</ns3:cad>
          </ns3:TrackPointExtension>
        </extensions>
      </trkpt>
      <trkpt lat="45.3427314944565296173095703125" lon="-70.97092690877616405487060546875">
        <ele>646.20001220703125</ele>
        <time>2026-08-21T18:36:59.000Z</time>
        <extensions>
          <ns3:TrackPointExtension>
            <ns3:hr>126</ns3:hr>
            <ns3:cad>74</ns3:cad>
          </ns3:TrackPointExtension>
        </extensions>
      </trkpt>
      <trkpt lat="45.34274951554834842681884765625" lon="-70.9709331952035427093505859375">
        <ele>646</ele>
        <time>2026-08-21T18:37:00.000Z</time>
        <extensions>
          <ns3:TrackPointExtension>
            <ns3:hr>126</ns3:hr>
            <ns3:cad>74</ns3:cad>
          </ns3:TrackPointExtension>
        </extensions>
      </trkpt>
      <trkpt lat="45.34276544116437435150146484375" lon="-70.9709352068603038787841796875">
        <ele>645.79998779296875</ele>
        <time>2026-08-21T18:37:01.000Z</time>
        <extensions>
          <ns3:TrackPointExtension>
            <ns3:hr>125</ns3:hr>
            <ns3:cad>74</ns3:cad>
          </ns3:TrackPointExtension>
        </extensions>
      </trkpt>
      <trkpt lat="45.34277935512363910675048828125" lon="-70.97094409167766571044921875">
        <ele>645.5999755859375</ele>
        <time>2026-08-21T18:37:02.000Z</time>
        <extensions>
          <ns3:TrackPointExtension>
            <ns3:hr>126</ns3:hr>
            <ns3:cad>74</ns3:cad>
          </ns3:TrackPointExtension>
        </extensions>
      </trkpt>
      <trkpt lat="45.34279678948223590850830078125" lon="-70.970954485237598419189453125">
        <ele>645.4000244140625</ele>
        <time>2026-08-21T18:37:03.000Z</time>
        <extensions>
          <ns3:TrackPointExtension>
            <ns3:hr>126</ns3:hr>
            <ns3:cad>74</ns3:cad>
          </ns3:TrackPointExtension>
        </extensions>
      </trkpt>
      <trkpt lat="45.34281355328857898712158203125" lon="-70.97096848301589488983154296875">
        <ele>645</ele>
        <time>2026-08-21T18:37:04.000Z</time>
        <extensions>
          <ns3:TrackPointExtension>
            <ns3:hr>126</ns3:hr>
            <ns3:cad>74</ns3:cad>
          </ns3:TrackPointExtension>
        </extensions>
      </trkpt>
      <trkpt lat="45.342826880514621734619140625" lon="-70.9709756076335906982421875">
        <ele>644.79998779296875</ele>
        <time>2026-08-21T18:37:05.000Z</time>
        <extensions>
          <ns3:TrackPointExtension>
            <ns3:hr>126</ns3:hr>
            <ns3:cad>74</ns3:cad>
          </ns3:TrackPointExtension>
        </extensions>
      </trkpt>
      <trkpt lat="45.3428466618061065673828125" lon="-70.97098222933709621429443359375">
        <ele>644.5999755859375</ele>
        <time>2026-08-21T18:37:06.000Z</time>
        <extensions>
          <ns3:TrackPointExtension>
            <ns3:hr>126</ns3:hr>
            <ns3:cad>76</ns3:cad>
          </ns3:TrackPointExtension>
        </extensions>
      </trkpt>
      <trkpt lat="45.34286619164049625396728515625" lon="-70.97098457626998424530029296875">
        <ele>644.4000244140625</ele>
        <time>2026-08-21T18:37:07.000Z</time>
        <extensions>
          <ns3:TrackPointExtension>
            <ns3:hr>126</ns3:hr>
            <ns3:cad>76</ns3:cad>
          </ns3:TrackPointExtension>
        </extensions>
      </trkpt>
      <trkpt lat="45.34288194961845874786376953125" lon="-70.97099245525896549224853515625">
        <ele>644.20001220703125</ele>
        <time>2026-08-21T18:37:08.000Z</time>
        <extensions>
          <ns3:TrackPointExtension>
            <ns3:hr>126</ns3:hr>
            <ns3:cad>76</ns3:cad>
          </ns3:TrackPointExtension>
        </extensions>
      </trkpt>
      <trkpt lat="45.34289821051061153411865234375" lon="-70.971000082790851593017578125">
        <ele>644</ele>
        <time>2026-08-21T18:37:09.000Z</time>
        <extensions>
          <ns3:TrackPointExtension>
            <ns3:hr>126</ns3:hr>
            <ns3:cad>76</ns3:cad>
          </ns3:TrackPointExtension>
        </extensions>
      </trkpt>
      <trkpt lat="45.3429128788411617279052734375" lon="-70.971007458865642547607421875">
        <ele>643.79998779296875</ele>
        <time>2026-08-21T18:37:10.000Z</time>
        <extensions>
          <ns3:TrackPointExtension>
            <ns3:hr>125</ns3:hr>
            <ns3:cad>76</ns3:cad>
          </ns3:TrackPointExtension>
        </extensions>
      </trkpt>
      <trkpt lat="45.3429286368191242218017578125" lon="-70.971014834940433502197265625">
        <ele>643.5999755859375</ele>
        <time>2026-08-21T18:37:11.000Z</time>
        <extensions>
          <ns3:TrackPointExtension>
            <ns3:hr>126</ns3:hr>
            <ns3:cad>76</ns3:cad>
          </ns3:TrackPointExtension>
        </extensions>
      </trkpt>
      <trkpt lat="45.34294364042580127716064453125" lon="-70.97101307474076747894287109375">
        <ele>643.4000244140625</ele>
        <time>2026-08-21T18:37:12.000Z</time>
        <extensions>
          <ns3:TrackPointExtension>
            <ns3:hr>126</ns3:hr>
            <ns3:cad>76</ns3:cad>
          </ns3:TrackPointExtension>
        </extensions>
      </trkpt>
      <trkpt lat="45.34296610392630100250244140625" lon="-70.97101382911205291748046875">
        <ele>643.20001220703125</ele>
        <time>2026-08-21T18:37:13.000Z</time>
        <extensions>
          <ns3:TrackPointExtension>
            <ns3:hr>126</ns3:hr>
            <ns3:cad>76</ns3:cad>
          </ns3:TrackPointExtension>
        </extensions>
      </trkpt>
      <trkpt lat="45.34298756159842014312744140625" lon="-70.9710170142352581024169921875">
        <ele>643</ele>
        <time>2026-08-21T18:37:14.000Z</time>
        <extensions>
          <ns3:TrackPointExtension>
            <ns3:hr>127</ns3:hr>
            <ns3:cad>76</ns3:cad>
          </ns3:TrackPointExtension>
        </extensions>
      </trkpt>
      <trkpt lat="45.343003906309604644775390625" lon="-70.971015505492687225341796875">
        <ele>642.79998779296875</ele>
        <time>2026-08-21T18:37:15.000Z</time>
        <extensions>
          <ns3:TrackPointExtension>
            <ns3:hr>127</ns3:hr>
            <ns3:cad>76</ns3:cad>
          </ns3:TrackPointExtension>
        </extensions>
      </trkpt>
      <trkpt lat="45.34302159212529659271240234375" lon="-70.97101726569235324859619140625">
        <ele>642.5999755859375</ele>
        <time>2026-08-21T18:37:16.000Z</time>
        <extensions>
          <ns3:TrackPointExtension>
            <ns3:hr>128</ns3:hr>
            <ns3:cad>76</ns3:cad>
          </ns3:TrackPointExtension>
        </extensions>
      </trkpt>
      <trkpt lat="45.3430399484932422637939453125" lon="-70.97102380357682704925537109375">
        <ele>642.4000244140625</ele>
        <time>2026-08-21T18:37:17.000Z</time>
        <extensions>
          <ns3:TrackPointExtension>
            <ns3:hr>128</ns3:hr>
            <ns3:cad>0</ns3:cad>
          </ns3:TrackPointExtension>
        </extensions>
      </trkpt>
      <trkpt lat="45.343056879937648773193359375" lon="-70.9710319340229034423828125">
        <ele>642.20001220703125</ele>
        <time>2026-08-21T18:37:18.000Z</time>
        <extensions>
          <ns3:TrackPointExtension>
            <ns3:hr>128</ns3:hr>
            <ns3:cad>0</ns3:cad>
          </ns3:TrackPointExtension>
        </extensions>
      </trkpt>
      <trkpt lat="45.343075655400753021240234375" lon="-70.9710421599447727203369140625">
        <ele>642</ele>
        <time>2026-08-21T18:37:19.000Z</time>
        <extensions>
          <ns3:TrackPointExtension>
            <ns3:hr>128</ns3:hr>
            <ns3:cad>77</ns3:cad>
          </ns3:TrackPointExtension>
        </extensions>
      </trkpt>
      <trkpt lat="45.3430922515690326690673828125" lon="-70.97104442305862903594970703125">
        <ele>641.79998779296875</ele>
        <time>2026-08-21T18:37:20.000Z</time>
        <extensions>
          <ns3:TrackPointExtension>
            <ns3:hr>128</ns3:hr>
            <ns3:cad>77</ns3:cad>
          </ns3:TrackPointExtension>
        </extensions>
      </trkpt>
      <trkpt lat="45.34310943447053432464599609375" lon="-70.97104375250637531280517578125">
        <ele>641.5999755859375</ele>
        <time>2026-08-21T18:37:21.000Z</time>
        <extensions>
          <ns3:TrackPointExtension>
            <ns3:hr>128</ns3:hr>
            <ns3:cad>77</ns3:cad>
          </ns3:TrackPointExtension>
        </extensions>
      </trkpt>
      <trkpt lat="45.34312753938138484954833984375" lon="-70.971043668687343597412109375">
        <ele>641.4000244140625</ele>
        <time>2026-08-21T18:37:22.000Z</time>
        <extensions>
          <ns3:TrackPointExtension>
            <ns3:hr>128</ns3:hr>
            <ns3:cad>77</ns3:cad>
          </ns3:TrackPointExtension>
        </extensions>
      </trkpt>
      <trkpt lat="45.343148075044155120849609375" lon="-70.97104660235345363616943359375">
        <ele>641</ele>
        <time>2026-08-21T18:37:23.000Z</time>
        <extensions>
          <ns3:TrackPointExtension>
            <ns3:hr>128</ns3:hr>
            <ns3:cad>77</ns3:cad>
          </ns3:TrackPointExtension>
        </extensions>
      </trkpt>
      <trkpt lat="45.34316458739340305328369140625" lon="-70.97105381079018115997314453125">
        <ele>640.79998779296875</ele>
        <time>2026-08-21T18:37:24.000Z</time>
        <extensions>
          <ns3:TrackPointExtension>
            <ns3:hr>128</ns3:hr>
            <ns3:cad>77</ns3:cad>
          </ns3:TrackPointExtension>
        </extensions>
      </trkpt>
      <trkpt lat="45.3431831113994121551513671875" lon="-70.97106152214109897613525390625">
        <ele>640.5999755859375</ele>
        <time>2026-08-21T18:37:25.000Z</time>
        <extensions>
          <ns3:TrackPointExtension>
            <ns3:hr>128</ns3:hr>
            <ns3:cad>77</ns3:cad>
          </ns3:TrackPointExtension>
        </extensions>
      </trkpt>
      <trkpt lat="45.34320247359573841094970703125" lon="-70.971070826053619384765625">
        <ele>640.20001220703125</ele>
        <time>2026-08-21T18:37:26.000Z</time>
        <extensions>
          <ns3:TrackPointExtension>
            <ns3:hr>128</ns3:hr>
            <ns3:cad>0</ns3:cad>
          </ns3:TrackPointExtension>
        </extensions>
      </trkpt>
      <trkpt lat="45.34322275780141353607177734375" lon="-70.9710802137851715087890625">
        <ele>639.79998779296875</ele>
        <time>2026-08-21T18:37:27.000Z</time>
        <extensions>
          <ns3:TrackPointExtension>
            <ns3:hr>128</ns3:hr>
            <ns3:cad>0</ns3:cad>
          </ns3:TrackPointExtension>
        </extensions>
      </trkpt>
      <trkpt lat="45.34324035979807376861572265625" lon="-70.971090607345104217529296875">
        <ele>639.4000244140625</ele>
        <time>2026-08-21T18:37:28.000Z</time>
        <extensions>
          <ns3:TrackPointExtension>
            <ns3:hr>129</ns3:hr>
            <ns3:cad>0</ns3:cad>
          </ns3:TrackPointExtension>
        </extensions>
      </trkpt>
      <trkpt lat="45.343261063098907470703125" lon="-70.97109840251505374908447265625">
        <ele>639.20001220703125</ele>
        <time>2026-08-21T18:37:29.000Z</time>
        <extensions>
          <ns3:TrackPointExtension>
            <ns3:hr>129</ns3:hr>
            <ns3:cad>0</ns3:cad>
          </ns3:TrackPointExtension>
        </extensions>
      </trkpt>
      <trkpt lat="45.343278162181377410888671875" lon="-70.9711041860282421112060546875">
        <ele>639</ele>
        <time>2026-08-21T18:37:30.000Z</time>
        <extensions>
          <ns3:TrackPointExtension>
            <ns3:hr>128</ns3:hr>
            <ns3:cad>0</ns3:cad>
          </ns3:TrackPointExtension>
        </extensions>
      </trkpt>
      <trkpt lat="45.34329568035900592803955078125" lon="-70.97110494039952754974365234375">
        <ele>638.79998779296875</ele>
        <time>2026-08-21T18:37:31.000Z</time>
        <extensions>
          <ns3:TrackPointExtension>
            <ns3:hr>128</ns3:hr>
            <ns3:cad>0</ns3:cad>
          </ns3:TrackPointExtension>
        </extensions>
      </trkpt>
      <trkpt lat="45.343315042555332183837890625" lon="-70.97110812552273273468017578125">
        <ele>638.5999755859375</ele>
        <time>2026-08-21T18:37:32.000Z</time>
        <extensions>
          <ns3:TrackPointExtension>
            <ns3:hr>128</ns3:hr>
            <ns3:cad>0</ns3:cad>
          </ns3:TrackPointExtension>
        </extensions>
      </trkpt>
      <trkpt lat="45.34333457238972187042236328125" lon="-70.97111315466463565826416015625">
        <ele>638.5999755859375</ele>
        <time>2026-08-21T18:37:33.000Z</time>
        <extensions>
          <ns3:TrackPointExtension>
            <ns3:hr>128</ns3:hr>
            <ns3:cad>75</ns3:cad>
          </ns3:TrackPointExtension>
        </extensions>
      </trkpt>
      <trkpt lat="45.34335066564381122589111328125" lon="-70.9711155854165554046630859375">
        <ele>638.4000244140625</ele>
        <time>2026-08-21T18:37:34.000Z</time>
        <extensions>
          <ns3:TrackPointExtension>
            <ns3:hr>128</ns3:hr>
            <ns3:cad>77</ns3:cad>
          </ns3:TrackPointExtension>
        </extensions>
      </trkpt>
      <trkpt lat="45.34337111748754978179931640625" lon="-70.9711226262152194976806640625">
        <ele>638.20001220703125</ele>
        <time>2026-08-21T18:37:35.000Z</time>
        <extensions>
          <ns3:TrackPointExtension>
            <ns3:hr>128</ns3:hr>
            <ns3:cad>77</ns3:cad>
          </ns3:TrackPointExtension>
        </extensions>
      </trkpt>
      <trkpt lat="45.34339022822678089141845703125" lon="-70.97113410942256450653076171875">
        <ele>638</ele>
        <time>2026-08-21T18:37:36.000Z</time>
        <extensions>
          <ns3:TrackPointExtension>
            <ns3:hr>128</ns3:hr>
            <ns3:cad>77</ns3:cad>
          </ns3:TrackPointExtension>
        </extensions>
      </trkpt>
      <trkpt lat="45.3434070758521556854248046875" lon="-70.97114500589668750762939453125">
        <ele>638</ele>
        <time>2026-08-21T18:37:37.000Z</time>
        <extensions>
          <ns3:TrackPointExtension>
            <ns3:hr>128</ns3:hr>
            <ns3:cad>77</ns3:cad>
          </ns3:TrackPointExtension>
        </extensions>
      </trkpt>
      <trkpt lat="45.34342392347753047943115234375" lon="-70.9711595065891742706298828125">
        <ele>637.79998779296875</ele>
        <time>2026-08-21T18:37:38.000Z</time>
        <extensions>
          <ns3:TrackPointExtension>
            <ns3:hr>128</ns3:hr>
            <ns3:cad>75</ns3:cad>
          </ns3:TrackPointExtension>
        </extensions>
      </trkpt>
      <trkpt lat="45.34344035200774669647216796875" lon="-70.971165709197521209716796875">
        <ele>637.5999755859375</ele>
        <time>2026-08-21T18:37:39.000Z</time>
        <extensions>
          <ns3:TrackPointExtension>
            <ns3:hr>128</ns3:hr>
            <ns3:cad>75</ns3:cad>
          </ns3:TrackPointExtension>
        </extensions>
      </trkpt>
      <trkpt lat="45.3434587083756923675537109375" lon="-70.97116881050169467926025390625">
        <ele>637.5999755859375</ele>
        <time>2026-08-21T18:37:40.000Z</time>
        <extensions>
          <ns3:TrackPointExtension>
            <ns3:hr>127</ns3:hr>
            <ns3:cad>75</ns3:cad>
          </ns3:TrackPointExtension>
        </extensions>
      </trkpt>
      <trkpt lat="45.34347840584814548492431640625" lon="-70.97117073833942413330078125">
        <ele>637.4000244140625</ele>
        <time>2026-08-21T18:37:41.000Z</time>
        <extensions>
          <ns3:TrackPointExtension>
            <ns3:hr>126</ns3:hr>
            <ns3:cad>75</ns3:cad>
          </ns3:TrackPointExtension>
        </extensions>
      </trkpt>
      <trkpt lat="45.3434957563877105712890625" lon="-70.97117610275745391845703125">
        <ele>637.20001220703125</ele>
        <time>2026-08-21T18:37:42.000Z</time>
        <extensions>
          <ns3:TrackPointExtension>
            <ns3:hr>126</ns3:hr>
            <ns3:cad>75</ns3:cad>
          </ns3:TrackPointExtension>
        </extensions>
      </trkpt>
      <trkpt lat="45.343507826328277587890625" lon="-70.97118817269802093505859375">
        <ele>637.20001220703125</ele>
        <time>2026-08-21T18:37:43.000Z</time>
        <extensions>
          <ns3:TrackPointExtension>
            <ns3:hr>126</ns3:hr>
            <ns3:cad>76</ns3:cad>
          </ns3:TrackPointExtension>
        </extensions>
      </trkpt>
      <trkpt lat="45.3435250930488109588623046875" lon="-70.971199572086334228515625">
        <ele>637</ele>
        <time>2026-08-21T18:37:44.000Z</time>
        <extensions>
          <ns3:TrackPointExtension>
            <ns3:hr>126</ns3:hr>
            <ns3:cad>74</ns3:cad>
          </ns3:TrackPointExtension>
        </extensions>
      </trkpt>
      <trkpt lat="45.34354160539805889129638671875" lon="-70.9712143242359161376953125">
        <ele>636.79998779296875</ele>
        <time>2026-08-21T18:37:45.000Z</time>
        <extensions>
          <ns3:TrackPointExtension>
            <ns3:hr>126</ns3:hr>
            <ns3:cad>74</ns3:cad>
          </ns3:TrackPointExtension>
        </extensions>
      </trkpt>
      <trkpt lat="45.34355769865214824676513671875" lon="-70.97121776081621646881103515625">
        <ele>636.5999755859375</ele>
        <time>2026-08-21T18:37:46.000Z</time>
        <extensions>
          <ns3:TrackPointExtension>
            <ns3:hr>126</ns3:hr>
            <ns3:cad>76</ns3:cad>
          </ns3:TrackPointExtension>
        </extensions>
      </trkpt>
      <trkpt lat="45.34357932396233081817626953125" lon="-70.97122832201421260833740234375">
        <ele>636.4000244140625</ele>
        <time>2026-08-21T18:37:47.000Z</time>
        <extensions>
          <ns3:TrackPointExtension>
            <ns3:hr>125</ns3:hr>
            <ns3:cad>76</ns3:cad>
          </ns3:TrackPointExtension>
        </extensions>
      </trkpt>
      <trkpt lat="45.34359659068286418914794921875" lon="-70.97123435698449611663818359375">
        <ele>636.4000244140625</ele>
        <time>2026-08-21T18:37:48.000Z</time>
        <extensions>
          <ns3:TrackPointExtension>
            <ns3:hr>125</ns3:hr>
            <ns3:cad>76</ns3:cad>
          </ns3:TrackPointExtension>
        </extensions>
      </trkpt>
      <trkpt lat="45.34361301921308040618896484375" lon="-70.971244834363460540771484375">
        <ele>636.4000244140625</ele>
        <time>2026-08-21T18:37:49.000Z</time>
        <extensions>
          <ns3:TrackPointExtension>
            <ns3:hr>125</ns3:hr>
            <ns3:cad>76</ns3:cad>
          </ns3:TrackPointExtension>
        </extensions>
      </trkpt>
      <trkpt lat="45.3436293639242649078369140625" lon="-70.97125229425728321075439453125">
        <ele>636.20001220703125</ele>
        <time>2026-08-21T18:37:50.000Z</time>
        <extensions>
          <ns3:TrackPointExtension>
            <ns3:hr>124</ns3:hr>
            <ns3:cad>76</ns3:cad>
          </ns3:TrackPointExtension>
        </extensions>
      </trkpt>
      <trkpt lat="45.3436454571783542633056640625" lon="-70.9712614305317401885986328125">
        <ele>636</ele>
        <time>2026-08-21T18:37:51.000Z</time>
        <extensions>
          <ns3:TrackPointExtension>
            <ns3:hr>124</ns3:hr>
            <ns3:cad>73</ns3:cad>
          </ns3:TrackPointExtension>
        </extensions>
      </trkpt>
      <trkpt lat="45.3436592034995555877685546875" lon="-70.97128146328032016754150390625">
        <ele>635.79998779296875</ele>
        <time>2026-08-21T18:37:52.000Z</time>
        <extensions>
          <ns3:TrackPointExtension>
            <ns3:hr>124</ns3:hr>
            <ns3:cad>73</ns3:cad>
          </ns3:TrackPointExtension>
        </extensions>
      </trkpt>
      <trkpt lat="45.34367303363978862762451171875" lon="-70.971300490200519561767578125">
        <ele>635.4000244140625</ele>
        <time>2026-08-21T18:37:53.000Z</time>
        <extensions>
          <ns3:TrackPointExtension>
            <ns3:hr>125</ns3:hr>
            <ns3:cad>73</ns3:cad>
          </ns3:TrackPointExtension>
        </extensions>
      </trkpt>
      <trkpt lat="45.34368828870356082916259765625" lon="-70.97132387571036815643310546875">
        <ele>635.20001220703125</ele>
        <time>2026-08-21T18:37:54.000Z</time>
        <extensions>
          <ns3:TrackPointExtension>
            <ns3:hr>125</ns3:hr>
            <ns3:cad>73</ns3:cad>
          </ns3:TrackPointExtension>
        </extensions>
      </trkpt>
      <trkpt lat="45.3437061421573162078857421875" lon="-70.9713425673544406890869140625">
        <ele>634.79998779296875</ele>
        <time>2026-08-21T18:37:55.000Z</time>
        <extensions>
          <ns3:TrackPointExtension>
            <ns3:hr>125</ns3:hr>
            <ns3:cad>73</ns3:cad>
          </ns3:TrackPointExtension>
        </extensions>
      </trkpt>
      <trkpt lat="45.34372382797300815582275390625" lon="-70.9713522903621196746826171875">
        <ele>634.5999755859375</ele>
        <time>2026-08-21T18:37:56.000Z</time>
        <extensions>
          <ns3:TrackPointExtension>
            <ns3:hr>126</ns3:hr>
            <ns3:cad>73</ns3:cad>
          </ns3:TrackPointExtension>
        </extensions>
      </trkpt>
      <trkpt lat="45.34374126233160495758056640625" lon="-70.97137165255844593048095703125">
        <ele>634.4000244140625</ele>
        <time>2026-08-21T18:37:57.000Z</time>
        <extensions>
          <ns3:TrackPointExtension>
            <ns3:hr>126</ns3:hr>
            <ns3:cad>73</ns3:cad>
          </ns3:TrackPointExtension>
        </extensions>
      </trkpt>
      <trkpt lat="45.3437517397105693817138671875" lon="-70.9713874943554401397705078125">
        <ele>634.20001220703125</ele>
        <time>2026-08-21T18:37:58.000Z</time>
        <extensions>
          <ns3:TrackPointExtension>
            <ns3:hr>127</ns3:hr>
            <ns3:cad>73</ns3:cad>
          </ns3:TrackPointExtension>
        </extensions>
      </trkpt>
      <trkpt lat="45.34376037307083606719970703125" lon="-70.971401073038578033447265625">
        <ele>634</ele>
        <time>2026-08-21T18:37:59.000Z</time>
        <extensions>
          <ns3:TrackPointExtension>
            <ns3:hr>127</ns3:hr>
            <ns3:cad>73</ns3:cad>
          </ns3:TrackPointExtension>
        </extensions>
      </trkpt>
      <trkpt lat="45.34376590512692928314208984375" lon="-70.9714139811694622039794921875">
        <ele>634</ele>
        <time>2026-08-21T18:38:00.000Z</time>
        <extensions>
          <ns3:TrackPointExtension>
            <ns3:hr>128</ns3:hr>
            <ns3:cad>73</ns3:cad>
          </ns3:TrackPointExtension>
        </extensions>
      </trkpt>
      <trkpt lat="45.343775041401386260986328125" lon="-70.9714267216622829437255859375">
        <ele>633.79998779296875</ele>
        <time>2026-08-21T18:38:01.000Z</time>
        <extensions>
          <ns3:TrackPointExtension>
            <ns3:hr>128</ns3:hr>
            <ns3:cad>73</ns3:cad>
          </ns3:TrackPointExtension>
        </extensions>
      </trkpt>
      <trkpt lat="45.34379088319838047027587890625" lon="-70.9714384563267230987548828125">
        <ele>633.5999755859375</ele>
        <time>2026-08-21T18:38:02.000Z</time>
        <extensions>
          <ns3:TrackPointExtension>
            <ns3:hr>130</ns3:hr>
            <ns3:cad>73</ns3:cad>
          </ns3:TrackPointExtension>
        </extensions>
      </trkpt>
      <trkpt lat="45.343804545700550079345703125" lon="-70.97144893370568752288818359375">
        <ele>633.4000244140625</ele>
        <time>2026-08-21T18:38:03.000Z</time>
        <extensions>
          <ns3:TrackPointExtension>
            <ns3:hr>130</ns3:hr>
            <ns3:cad>73</ns3:cad>
          </ns3:TrackPointExtension>
        </extensions>
      </trkpt>
      <trkpt lat="45.34381099976599216461181640625" lon="-70.9714525379240512847900390625">
        <ele>633.4000244140625</ele>
        <time>2026-08-21T18:38:04.000Z</time>
        <extensions>
          <ns3:TrackPointExtension>
            <ns3:hr>130</ns3:hr>
            <ns3:cad>73</ns3:cad>
          </ns3:TrackPointExtension>
        </extensions>
      </trkpt>
      <trkpt lat="45.34380622208118438720703125" lon="-70.97144558094441890716552734375">
        <ele>633.20001220703125</ele>
        <time>2026-08-21T18:38:05.000Z</time>
        <extensions>
          <ns3:TrackPointExtension>
            <ns3:hr>130</ns3:hr>
            <ns3:cad>0</ns3:cad>
          </ns3:TrackPointExtension>
        </extensions>
      </trkpt>
      <trkpt lat="45.34380379132926464080810546875" lon="-70.97143703140318393707275390625">
        <ele>633.20001220703125</ele>
        <time>2026-08-21T18:38:06.000Z</time>
        <extensions>
          <ns3:TrackPointExtension>
            <ns3:hr>131</ns3:hr>
            <ns3:cad>0</ns3:cad>
          </ns3:TrackPointExtension>
        </extensions>
      </trkpt>
      <trkpt lat="45.343797169625759124755859375" lon="-70.97142898477613925933837890625">
        <ele>633.20001220703125</ele>
        <time>2026-08-21T18:38:07.000Z</time>
        <extensions>
          <ns3:TrackPointExtension>
            <ns3:hr>129</ns3:hr>
            <ns3:cad>0</ns3:cad>
          </ns3:TrackPointExtension>
        </extensions>
      </trkpt>
      <trkpt lat="45.34378468059003353118896484375" lon="-70.971424877643585205078125">
        <ele>633.20001220703125</ele>
        <time>2026-08-21T18:38:08.000Z</time>
        <extensions>
          <ns3:TrackPointExtension>
            <ns3:hr>128</ns3:hr>
            <ns3:cad>0</ns3:cad>
          </ns3:TrackPointExtension>
        </extensions>
      </trkpt>
      <trkpt lat="45.3437792323529720306396484375" lon="-70.97142797894775867462158203125">
        <ele>633.4000244140625</ele>
        <time>2026-08-21T18:38:09.000Z</time>
        <extensions>
          <ns3:TrackPointExtension>
            <ns3:hr>128</ns3:hr>
            <ns3:cad>0</ns3:cad>
          </ns3:TrackPointExtension>
        </extensions>
      </trkpt>
      <trkpt lat="45.34378518350422382354736328125" lon="-70.9714344330132007598876953125">
        <ele>633.4000244140625</ele>
        <time>2026-08-21T18:38:10.000Z</time>
        <extensions>
          <ns3:TrackPointExtension>
            <ns3:hr>128</ns3:hr>
            <ns3:cad>0</ns3:cad>
          </ns3:TrackPointExtension>
        </extensions>
      </trkpt>
      <trkpt lat="45.34379658289253711700439453125" lon="-70.97143971361219882965087890625">
        <ele>633.4000244140625</ele>
        <time>2026-08-21T18:38:11.000Z</time>
        <extensions>
          <ns3:TrackPointExtension>
            <ns3:hr>127</ns3:hr>
            <ns3:cad>0</ns3:cad>
          </ns3:TrackPointExtension>
        </extensions>
      </trkpt>
      <trkpt lat="45.34380814991891384124755859375" lon="-70.97143753431737422943115234375">
        <ele>633.4000244140625</ele>
        <time>2026-08-21T18:38:12.000Z</time>
        <extensions>
          <ns3:TrackPointExtension>
            <ns3:hr>127</ns3:hr>
            <ns3:cad>0</ns3:cad>
          </ns3:TrackPointExtension>
        </extensions>
      </trkpt>
      <trkpt lat="45.3438177891075611114501953125" lon="-70.97143703140318393707275390625">
        <ele>633.4000244140625</ele>
        <time>2026-08-21T18:38:13.000Z</time>
        <extensions>
          <ns3:TrackPointExtension>
            <ns3:hr>127</ns3:hr>
            <ns3:cad>0</ns3:cad>
          </ns3:TrackPointExtension>
        </extensions>
      </trkpt>
      <trkpt lat="45.343826003372669219970703125" lon="-70.9714397974312305450439453125">
        <ele>633.20001220703125</ele>
        <time>2026-08-21T18:38:14.000Z</time>
        <extensions>
          <ns3:TrackPointExtension>
            <ns3:hr>126</ns3:hr>
            <ns3:cad>0</ns3:cad>
          </ns3:TrackPointExtension>
        </extensions>
      </trkpt>
      <trkpt lat="45.3438342176377773284912109375" lon="-70.9714454971253871917724609375">
        <ele>633</ele>
        <time>2026-08-21T18:38:15.000Z</time>
        <extensions>
          <ns3:TrackPointExtension>
            <ns3:hr>125</ns3:hr>
            <ns3:cad>0</ns3:cad>
          </ns3:TrackPointExtension>
        </extensions>
      </trkpt>
      <trkpt lat="45.34384318627417087554931640625" lon="-70.971452705562114715576171875">
        <ele>633</ele>
        <time>2026-08-21T18:38:16.000Z</time>
        <extensions>
          <ns3:TrackPointExtension>
            <ns3:hr>125</ns3:hr>
            <ns3:cad>51</ns3:cad>
          </ns3:TrackPointExtension>
        </extensions>
      </trkpt>
      <trkpt lat="45.34385408274829387664794921875" lon="-70.97146033309400081634521484375">
        <ele>632.79998779296875</ele>
        <time>2026-08-21T18:38:17.000Z</time>
        <extensions>
          <ns3:TrackPointExtension>
            <ns3:hr>123</ns3:hr>
            <ns3:cad>51</ns3:cad>
          </ns3:TrackPointExtension>
        </extensions>
      </trkpt>
      <trkpt lat="45.343866236507892608642578125" lon="-70.9714679606258869171142578125">
        <ele>632.5999755859375</ele>
        <time>2026-08-21T18:38:18.000Z</time>
        <extensions>
          <ns3:TrackPointExtension>
            <ns3:hr>122</ns3:hr>
            <ns3:cad>52</ns3:cad>
          </ns3:TrackPointExtension>
        </extensions>
      </trkpt>
      <trkpt lat="45.34387654624879360198974609375" lon="-70.97147726453840732574462890625">
        <ele>632.4000244140625</ele>
        <time>2026-08-21T18:38:19.000Z</time>
        <extensions>
          <ns3:TrackPointExtension>
            <ns3:hr>122</ns3:hr>
            <ns3:cad>52</ns3:cad>
          </ns3:TrackPointExtension>
        </extensions>
      </trkpt>
      <trkpt lat="45.3438875265419483184814453125" lon="-70.97148816101253032684326171875">
        <ele>632.20001220703125</ele>
        <time>2026-08-21T18:38:20.000Z</time>
        <extensions>
          <ns3:TrackPointExtension>
            <ns3:hr>122</ns3:hr>
            <ns3:cad>53</ns3:cad>
          </ns3:TrackPointExtension>
        </extensions>
      </trkpt>
      <trkpt lat="45.34390001557767391204833984375" lon="-70.97149671055376529693603515625">
        <ele>632.20001220703125</ele>
        <time>2026-08-21T18:38:21.000Z</time>
        <extensions>
          <ns3:TrackPointExtension>
            <ns3:hr>122</ns3:hr>
            <ns3:cad>54</ns3:cad>
          </ns3:TrackPointExtension>
        </extensions>
      </trkpt>
      <trkpt lat="45.34391443245112895965576171875" lon="-70.97150375135242938995361328125">
        <ele>632</ele>
        <time>2026-08-21T18:38:22.000Z</time>
        <extensions>
          <ns3:TrackPointExtension>
            <ns3:hr>123</ns3:hr>
            <ns3:cad>54</ns3:cad>
          </ns3:TrackPointExtension>
        </extensions>
      </trkpt>
      <trkpt lat="45.34392801113426685333251953125" lon="-70.9715085290372371673583984375">
        <ele>632</ele>
        <time>2026-08-21T18:38:23.000Z</time>
        <extensions>
          <ns3:TrackPointExtension>
            <ns3:hr>123</ns3:hr>
            <ns3:cad>57</ns3:cad>
          </ns3:TrackPointExtension>
        </extensions>
      </trkpt>
      <trkpt lat="45.34394343383610248565673828125" lon="-70.9715108759701251983642578125">
        <ele>632</ele>
        <time>2026-08-21T18:38:24.000Z</time>
        <extensions>
          <ns3:TrackPointExtension>
            <ns3:hr>123</ns3:hr>
            <ns3:cad>57</ns3:cad>
          </ns3:TrackPointExtension>
        </extensions>
      </trkpt>
      <trkpt lat="45.34396070055663585662841796875" lon="-70.97151682712137699127197265625">
        <ele>631.79998779296875</ele>
        <time>2026-08-21T18:38:25.000Z</time>
        <extensions>
          <ns3:TrackPointExtension>
            <ns3:hr>124</ns3:hr>
            <ns3:cad>57</ns3:cad>
          </ns3:TrackPointExtension>
        </extensions>
      </trkpt>
      <trkpt lat="45.3439770452678203582763671875" lon="-70.97152789123356342315673828125">
        <ele>631.5999755859375</ele>
        <time>2026-08-21T18:38:26.000Z</time>
        <extensions>
          <ns3:TrackPointExtension>
            <ns3:hr>123</ns3:hr>
            <ns3:cad>56</ns3:cad>
          </ns3:TrackPointExtension>
        </extensions>
      </trkpt>
      <trkpt lat="45.34398986957967281341552734375" lon="-70.9715370275080204010009765625">
        <ele>631.4000244140625</ele>
        <time>2026-08-21T18:38:27.000Z</time>
        <extensions>
          <ns3:TrackPointExtension>
            <ns3:hr>124</ns3:hr>
            <ns3:cad>56</ns3:cad>
          </ns3:TrackPointExtension>
        </extensions>
      </trkpt>
      <trkpt lat="45.3440135903656482696533203125" lon="-70.97154264338314533233642578125">
        <ele>631.20001220703125</ele>
        <time>2026-08-21T18:38:28.000Z</time>
        <extensions>
          <ns3:TrackPointExtension>
            <ns3:hr>124</ns3:hr>
            <ns3:cad>66</ns3:cad>
          </ns3:TrackPointExtension>
        </extensions>
      </trkpt>
      <trkpt lat="45.34402884542942047119140625" lon="-70.9715531207621097564697265625">
        <ele>631</ele>
        <time>2026-08-21T18:38:29.000Z</time>
        <extensions>
          <ns3:TrackPointExtension>
            <ns3:hr>124</ns3:hr>
            <ns3:cad>66</ns3:cad>
          </ns3:TrackPointExtension>
        </extensions>
      </trkpt>
      <trkpt lat="45.34404552541673183441162109375" lon="-70.97156896255910396575927734375">
        <ele>630.79998779296875</ele>
        <time>2026-08-21T18:38:30.000Z</time>
        <extensions>
          <ns3:TrackPointExtension>
            <ns3:hr>124</ns3:hr>
            <ns3:cad>66</ns3:cad>
          </ns3:TrackPointExtension>
        </extensions>
      </trkpt>
      <trkpt lat="45.34406849183142185211181640625" lon="-70.9715791046619415283203125">
        <ele>630.5999755859375</ele>
        <time>2026-08-21T18:38:31.000Z</time>
        <extensions>
          <ns3:TrackPointExtension>
            <ns3:hr>124</ns3:hr>
            <ns3:cad>66</ns3:cad>
          </ns3:TrackPointExtension>
        </extensions>
      </trkpt>
      <trkpt lat="45.34408642910420894622802734375" lon="-70.97158673219382762908935546875">
        <ele>630.4000244140625</ele>
        <time>2026-08-21T18:38:32.000Z</time>
        <extensions>
          <ns3:TrackPointExtension>
            <ns3:hr>124</ns3:hr>
            <ns3:cad>66</ns3:cad>
          </ns3:TrackPointExtension>
        </extensions>
      </trkpt>
      <trkpt lat="45.3441067971289157867431640625" lon="-70.97159343771636486053466796875">
        <ele>630</ele>
        <time>2026-08-21T18:38:33.000Z</time>
        <extensions>
          <ns3:TrackPointExtension>
            <ns3:hr>124</ns3:hr>
            <ns3:cad>66</ns3:cad>
          </ns3:TrackPointExtension>
        </extensions>
      </trkpt>
      <trkpt lat="45.34413076937198638916015625" lon="-70.97159846685826778411865234375">
        <ele>629.79998779296875</ele>
        <time>2026-08-21T18:38:34.000Z</time>
        <extensions>
          <ns3:TrackPointExtension>
            <ns3:hr>124</ns3:hr>
            <ns3:cad>66</ns3:cad>
          </ns3:TrackPointExtension>
        </extensions>
      </trkpt>
      <trkpt lat="45.34414828754961490631103515625" lon="-70.97160601057112216949462890625">
        <ele>629.5999755859375</ele>
        <time>2026-08-21T18:38:35.000Z</time>
        <extensions>
          <ns3:TrackPointExtension>
            <ns3:hr>124</ns3:hr>
            <ns3:cad>66</ns3:cad>
          </ns3:TrackPointExtension>
        </extensions>
      </trkpt>
      <trkpt lat="45.3441684879362583160400390625" lon="-70.97161196172237396240234375">
        <ele>629.4000244140625</ele>
        <time>2026-08-21T18:38:36.000Z</time>
        <extensions>
          <ns3:TrackPointExtension>
            <ns3:hr>123</ns3:hr>
            <ns3:cad>66</ns3:cad>
          </ns3:TrackPointExtension>
        </extensions>
      </trkpt>
      <trkpt lat="45.3441889397799968719482421875" lon="-70.97162143327295780181884765625">
        <ele>629.20001220703125</ele>
        <time>2026-08-21T18:38:37.000Z</time>
        <extensions>
          <ns3:TrackPointExtension>
            <ns3:hr>123</ns3:hr>
            <ns3:cad>66</ns3:cad>
          </ns3:TrackPointExtension>
        </extensions>
      </trkpt>
      <trkpt lat="45.34420461393892765045166015625" lon="-70.9716275520622730255126953125">
        <ele>629</ele>
        <time>2026-08-21T18:38:38.000Z</time>
        <extensions>
          <ns3:TrackPointExtension>
            <ns3:hr>123</ns3:hr>
            <ns3:cad>66</ns3:cad>
          </ns3:TrackPointExtension>
        </extensions>
      </trkpt>
      <trkpt lat="45.344226993620395660400390625" lon="-70.97163467667996883392333984375">
        <ele>628.79998779296875</ele>
        <time>2026-08-21T18:38:39.000Z</time>
        <extensions>
          <ns3:TrackPointExtension>
            <ns3:hr>124</ns3:hr>
            <ns3:cad>66</ns3:cad>
          </ns3:TrackPointExtension>
        </extensions>
      </trkpt>
      <trkpt lat="45.34424836747348308563232421875" lon="-70.9716412983834743499755859375">
        <ele>628.5999755859375</ele>
        <time>2026-08-21T18:38:40.000Z</time>
        <extensions>
          <ns3:TrackPointExtension>
            <ns3:hr>124</ns3:hr>
            <ns3:cad>78</ns3:cad>
          </ns3:TrackPointExtension>
        </extensions>
      </trkpt>
      <trkpt lat="45.34427049569785594940185546875" lon="-70.97164574079215526580810546875">
        <ele>628.20001220703125</ele>
        <time>2026-08-21T18:38:41.000Z</time>
        <extensions>
          <ns3:TrackPointExtension>
            <ns3:hr>124</ns3:hr>
            <ns3:cad>78</ns3:cad>
          </ns3:TrackPointExtension>
        </extensions>
      </trkpt>
      <trkpt lat="45.3442911989986896514892578125" lon="-70.97165160812437534332275390625">
        <ele>628</ele>
        <time>2026-08-21T18:38:42.000Z</time>
        <extensions>
          <ns3:TrackPointExtension>
            <ns3:hr>124</ns3:hr>
            <ns3:cad>78</ns3:cad>
          </ns3:TrackPointExtension>
        </extensions>
      </trkpt>
      <trkpt lat="45.34430938772857189178466796875" lon="-70.9716587327420711517333984375">
        <ele>627.79998779296875</ele>
        <time>2026-08-21T18:38:43.000Z</time>
        <extensions>
          <ns3:TrackPointExtension>
            <ns3:hr>124</ns3:hr>
            <ns3:cad>78</ns3:cad>
          </ns3:TrackPointExtension>
        </extensions>
      </trkpt>
      <trkpt lat="45.3443364612758159637451171875" lon="-70.97166049294173717498779296875">
        <ele>627.5999755859375</ele>
        <time>2026-08-21T18:38:44.000Z</time>
        <extensions>
          <ns3:TrackPointExtension>
            <ns3:hr>123</ns3:hr>
            <ns3:cad>78</ns3:cad>
          </ns3:TrackPointExtension>
        </extensions>
      </trkpt>
      <trkpt lat="45.34435615874826908111572265625" lon="-70.97166560590267181396484375">
        <ele>627.5999755859375</ele>
        <time>2026-08-21T18:38:45.000Z</time>
        <extensions>
          <ns3:TrackPointExtension>
            <ns3:hr>123</ns3:hr>
            <ns3:cad>78</ns3:cad>
          </ns3:TrackPointExtension>
        </extensions>
      </trkpt>
      <trkpt lat="45.34437577240169048309326171875" lon="-70.97167097032070159912109375">
        <ele>627.4000244140625</ele>
        <time>2026-08-21T18:38:46.000Z</time>
        <extensions>
          <ns3:TrackPointExtension>
            <ns3:hr>122</ns3:hr>
            <ns3:cad>78</ns3:cad>
          </ns3:TrackPointExtension>
        </extensions>
      </trkpt>
      <trkpt lat="45.34439496695995330810546875" lon="-70.97167574800550937652587890625">
        <ele>627.20001220703125</ele>
        <time>2026-08-21T18:38:47.000Z</time>
        <extensions>
          <ns3:TrackPointExtension>
            <ns3:hr>120</ns3:hr>
            <ns3:cad>78</ns3:cad>
          </ns3:TrackPointExtension>
        </extensions>
      </trkpt>
      <trkpt lat="45.34441734664142131805419921875" lon="-70.97168111242353916168212890625">
        <ele>627</ele>
        <time>2026-08-21T18:38:48.000Z</time>
        <extensions>
          <ns3:TrackPointExtension>
            <ns3:hr>120</ns3:hr>
            <ns3:cad>78</ns3:cad>
          </ns3:TrackPointExtension>
        </extensions>
      </trkpt>
      <trkpt lat="45.344436205923557281494140625" lon="-70.9716899134218692779541015625">
        <ele>626.79998779296875</ele>
        <time>2026-08-21T18:38:49.000Z</time>
        <extensions>
          <ns3:TrackPointExtension>
            <ns3:hr>120</ns3:hr>
            <ns3:cad>78</ns3:cad>
          </ns3:TrackPointExtension>
        </extensions>
      </trkpt>
      <trkpt lat="45.344460345804691314697265625" lon="-70.97169821150600910186767578125">
        <ele>626.5999755859375</ele>
        <time>2026-08-21T18:38:50.000Z</time>
        <extensions>
          <ns3:TrackPointExtension>
            <ns3:hr>120</ns3:hr>
            <ns3:cad>78</ns3:cad>
          </ns3:TrackPointExtension>
        </extensions>
      </trkpt>
      <trkpt lat="45.34448213875293731689453125" lon="-70.97170047461986541748046875">
        <ele>626.4000244140625</ele>
        <time>2026-08-21T18:38:51.000Z</time>
        <extensions>
          <ns3:TrackPointExtension>
            <ns3:hr>119</ns3:hr>
            <ns3:cad>78</ns3:cad>
          </ns3:TrackPointExtension>
        </extensions>
      </trkpt>
      <trkpt lat="45.3445027582347393035888671875" lon="-70.9717086888849735260009765625">
        <ele>626.20001220703125</ele>
        <time>2026-08-21T18:38:52.000Z</time>
        <extensions>
          <ns3:TrackPointExtension>
            <ns3:hr>120</ns3:hr>
            <ns3:cad>78</ns3:cad>
          </ns3:TrackPointExtension>
        </extensions>
      </trkpt>
      <trkpt lat="45.3445235453546047210693359375" lon="-70.97171631641685962677001953125">
        <ele>626</ele>
        <time>2026-08-21T18:38:53.000Z</time>
        <extensions>
          <ns3:TrackPointExtension>
            <ns3:hr>120</ns3:hr>
            <ns3:cad>78</ns3:cad>
          </ns3:TrackPointExtension>
        </extensions>
      </trkpt>
      <trkpt lat="45.34454517066478729248046875" lon="-70.97172000445425510406494140625">
        <ele>625.79998779296875</ele>
        <time>2026-08-21T18:38:54.000Z</time>
        <extensions>
          <ns3:TrackPointExtension>
            <ns3:hr>120</ns3:hr>
            <ns3:cad>78</ns3:cad>
          </ns3:TrackPointExtension>
        </extensions>
      </trkpt>
      <trkpt lat="45.34456185065209865570068359375" lon="-70.97172729671001434326171875">
        <ele>625.5999755859375</ele>
        <time>2026-08-21T18:38:55.000Z</time>
        <extensions>
          <ns3:TrackPointExtension>
            <ns3:hr>120</ns3:hr>
            <ns3:cad>78</ns3:cad>
          </ns3:TrackPointExtension>
        </extensions>
      </trkpt>
      <trkpt lat="45.344583727419376373291015625" lon="-70.971731655299663543701171875">
        <ele>625.5999755859375</ele>
        <time>2026-08-21T18:38:56.000Z</time>
        <extensions>
          <ns3:TrackPointExtension>
            <ns3:hr>121</ns3:hr>
            <ns3:cad>78</ns3:cad>
          </ns3:TrackPointExtension>
        </extensions>
      </trkpt>
      <trkpt lat="45.34460744820535182952880859375" lon="-70.97173978574573993682861328125">
        <ele>625.4000244140625</ele>
        <time>2026-08-21T18:38:57.000Z</time>
        <extensions>
          <ns3:TrackPointExtension>
            <ns3:hr>121</ns3:hr>
            <ns3:cad>78</ns3:cad>
          </ns3:TrackPointExtension>
        </extensions>
      </trkpt>
      <trkpt lat="45.3446276485919952392578125" lon="-70.97174498252570629119873046875">
        <ele>625.20001220703125</ele>
        <time>2026-08-21T18:38:58.000Z</time>
        <extensions>
          <ns3:TrackPointExtension>
            <ns3:hr>121</ns3:hr>
            <ns3:cad>78</ns3:cad>
          </ns3:TrackPointExtension>
        </extensions>
      </trkpt>
      <trkpt lat="45.3446536324918270111083984375" lon="-70.97174481488764286041259765625">
        <ele>625</ele>
        <time>2026-08-21T18:38:59.000Z</time>
        <extensions>
          <ns3:TrackPointExtension>
            <ns3:hr>121</ns3:hr>
            <ns3:cad>78</ns3:cad>
          </ns3:TrackPointExtension>
        </extensions>
      </trkpt>
      <trkpt lat="45.34467651508748531341552734375" lon="-70.971746407449245452880859375">
        <ele>624.79998779296875</ele>
        <time>2026-08-21T18:39:00.000Z</time>
        <extensions>
          <ns3:TrackPointExtension>
            <ns3:hr>121</ns3:hr>
            <ns3:cad>78</ns3:cad>
          </ns3:TrackPointExtension>
        </extensions>
      </trkpt>
      <trkpt lat="45.3446973860263824462890625" lon="-70.97174732945859432220458984375">
        <ele>624.5999755859375</ele>
        <time>2026-08-21T18:39:01.000Z</time>
        <extensions>
          <ns3:TrackPointExtension>
            <ns3:hr>121</ns3:hr>
            <ns3:cad>78</ns3:cad>
          </ns3:TrackPointExtension>
        </extensions>
      </trkpt>
      <trkpt lat="45.34471591003239154815673828125" lon="-70.97174900583922863006591796875">
        <ele>624.4000244140625</ele>
        <time>2026-08-21T18:39:02.000Z</time>
        <extensions>
          <ns3:TrackPointExtension>
            <ns3:hr>121</ns3:hr>
            <ns3:cad>78</ns3:cad>
          </ns3:TrackPointExtension>
        </extensions>
      </trkpt>
      <trkpt lat="45.34472797997295856475830078125" lon="-70.97175277769565582275390625">
        <ele>624.20001220703125</ele>
        <time>2026-08-21T18:39:03.000Z</time>
        <extensions>
          <ns3:TrackPointExtension>
            <ns3:hr>122</ns3:hr>
            <ns3:cad>78</ns3:cad>
          </ns3:TrackPointExtension>
        </extensions>
      </trkpt>
      <trkpt lat="45.344742648303508758544921875" lon="-70.9717579744756221771240234375">
        <ele>624</ele>
        <time>2026-08-21T18:39:04.000Z</time>
        <extensions>
          <ns3:TrackPointExtension>
            <ns3:hr>122</ns3:hr>
            <ns3:cad>78</ns3:cad>
          </ns3:TrackPointExtension>
        </extensions>
      </trkpt>
      <trkpt lat="45.34475748427212238311767578125" lon="-70.9717609919607639312744140625">
        <ele>623.79998779296875</ele>
        <time>2026-08-21T18:39:05.000Z</time>
        <extensions>
          <ns3:TrackPointExtension>
            <ns3:hr>122</ns3:hr>
            <ns3:cad>78</ns3:cad>
          </ns3:TrackPointExtension>
        </extensions>
      </trkpt>
      <trkpt lat="45.344773828983306884765625" lon="-70.97175872884690761566162109375">
        <ele>623.5999755859375</ele>
        <time>2026-08-21T18:39:06.000Z</time>
        <extensions>
          <ns3:TrackPointExtension>
            <ns3:hr>122</ns3:hr>
            <ns3:cad>78</ns3:cad>
          </ns3:TrackPointExtension>
        </extensions>
      </trkpt>
      <trkpt lat="45.34478179179131984710693359375" lon="-70.971765853464603424072265625">
        <ele>623.4000244140625</ele>
        <time>2026-08-21T18:39:07.000Z</time>
        <extensions>
          <ns3:TrackPointExtension>
            <ns3:hr>122</ns3:hr>
            <ns3:cad>0</ns3:cad>
          </ns3:TrackPointExtension>
        </extensions>
      </trkpt>
      <trkpt lat="45.34479537047445774078369140625" lon="-70.97177297808229923248291015625">
        <ele>623.4000244140625</ele>
        <time>2026-08-21T18:39:08.000Z</time>
        <extensions>
          <ns3:TrackPointExtension>
            <ns3:hr>121</ns3:hr>
            <ns3:cad>0</ns3:cad>
          </ns3:TrackPointExtension>
        </extensions>
      </trkpt>
      <trkpt lat="45.34480802714824676513671875" lon="-70.9717673622071743011474609375">
        <ele>623.20001220703125</ele>
        <time>2026-08-21T18:39:09.000Z</time>
        <extensions>
          <ns3:TrackPointExtension>
            <ns3:hr>121</ns3:hr>
            <ns3:cad>57</ns3:cad>
          </ns3:TrackPointExtension>
        </extensions>
      </trkpt>
      <trkpt lat="45.34482009708881378173828125" lon="-70.97176409326493740081787109375">
        <ele>623</ele>
        <time>2026-08-21T18:39:10.000Z</time>
        <extensions>
          <ns3:TrackPointExtension>
            <ns3:hr>121</ns3:hr>
            <ns3:cad>57</ns3:cad>
          </ns3:TrackPointExtension>
        </extensions>
      </trkpt>
      <trkpt lat="45.344830490648746490478515625" lon="-70.971759147942066192626953125">
        <ele>623</ele>
        <time>2026-08-21T18:39:11.000Z</time>
        <extensions>
          <ns3:TrackPointExtension>
            <ns3:hr>120</ns3:hr>
            <ns3:cad>57</ns3:cad>
          </ns3:TrackPointExtension>
        </extensions>
      </trkpt>
      <trkpt lat="45.34483778290450572967529296875" lon="-70.9717613272368907928466796875">
        <ele>622.79998779296875</ele>
        <time>2026-08-21T18:39:12.000Z</time>
        <extensions>
          <ns3:TrackPointExtension>
            <ns3:hr>120</ns3:hr>
            <ns3:cad>0</ns3:cad>
          </ns3:TrackPointExtension>
        </extensions>
      </trkpt>
      <trkpt lat="45.34484934993088245391845703125" lon="-70.97177197225391864776611328125">
        <ele>622.79998779296875</ele>
        <time>2026-08-21T18:39:13.000Z</time>
        <extensions>
          <ns3:TrackPointExtension>
            <ns3:hr>120</ns3:hr>
            <ns3:cad>0</ns3:cad>
          </ns3:TrackPointExtension>
        </extensions>
      </trkpt>
      <trkpt lat="45.34486024640500545501708984375" lon="-70.971783958375453948974609375">
        <ele>622.5999755859375</ele>
        <time>2026-08-21T18:39:14.000Z</time>
        <extensions>
          <ns3:TrackPointExtension>
            <ns3:hr>120</ns3:hr>
            <ns3:cad>55</ns3:cad>
          </ns3:TrackPointExtension>
        </extensions>
      </trkpt>
      <trkpt lat="45.34486846067011356353759765625" lon="-70.9717978723347187042236328125">
        <ele>622.5999755859375</ele>
        <time>2026-08-21T18:39:15.000Z</time>
        <extensions>
          <ns3:TrackPointExtension>
            <ns3:hr>120</ns3:hr>
            <ns3:cad>55</ns3:cad>
          </ns3:TrackPointExtension>
        </extensions>
      </trkpt>
      <trkpt lat="45.34488220699131488800048828125" lon="-70.9718146361410617828369140625">
        <ele>622.5999755859375</ele>
        <time>2026-08-21T18:39:16.000Z</time>
        <extensions>
          <ns3:TrackPointExtension>
            <ns3:hr>121</ns3:hr>
            <ns3:cad>55</ns3:cad>
          </ns3:TrackPointExtension>
        </extensions>
      </trkpt>
      <trkpt lat="45.34489377401769161224365234375" lon="-70.9718327410519123077392578125">
        <ele>622.5999755859375</ele>
        <time>2026-08-21T18:39:17.000Z</time>
        <extensions>
          <ns3:TrackPointExtension>
            <ns3:hr>121</ns3:hr>
            <ns3:cad>55</ns3:cad>
          </ns3:TrackPointExtension>
        </extensions>
      </trkpt>
      <trkpt lat="45.34490215592086315155029296875" lon="-70.97185076214373111724853515625">
        <ele>622.4000244140625</ele>
        <time>2026-08-21T18:39:18.000Z</time>
        <extensions>
          <ns3:TrackPointExtension>
            <ns3:hr>120</ns3:hr>
            <ns3:cad>55</ns3:cad>
          </ns3:TrackPointExtension>
        </extensions>
      </trkpt>
      <trkpt lat="45.3449161536991596221923828125" lon="-70.97186886705458164215087890625">
        <ele>622.4000244140625</ele>
        <time>2026-08-21T18:39:19.000Z</time>
        <extensions>
          <ns3:TrackPointExtension>
            <ns3:hr>120</ns3:hr>
            <ns3:cad>55</ns3:cad>
          </ns3:TrackPointExtension>
        </extensions>
      </trkpt>
      <trkpt lat="45.3449325822293758392333984375" lon="-70.9718848764896392822265625">
        <ele>622.20001220703125</ele>
        <time>2026-08-21T18:39:20.000Z</time>
        <extensions>
          <ns3:TrackPointExtension>
            <ns3:hr>120</ns3:hr>
            <ns3:cad>71</ns3:cad>
          </ns3:TrackPointExtension>
        </extensions>
      </trkpt>
      <trkpt lat="45.34495026804506778717041015625" lon="-70.9718987904489040374755859375">
        <ele>622</ele>
        <time>2026-08-21T18:39:21.000Z</time>
        <extensions>
          <ns3:TrackPointExtension>
            <ns3:hr>120</ns3:hr>
            <ns3:cad>71</ns3:cad>
          </ns3:TrackPointExtension>
        </extensions>
      </trkpt>
      <trkpt lat="45.3449654392898082733154296875" lon="-70.97191597335040569305419921875">
        <ele>621.79998779296875</ele>
        <time>2026-08-21T18:39:22.000Z</time>
        <extensions>
          <ns3:TrackPointExtension>
            <ns3:hr>120</ns3:hr>
            <ns3:cad>75</ns3:cad>
          </ns3:TrackPointExtension>
        </extensions>
      </trkpt>
      <trkpt lat="45.34498178400099277496337890625" lon="-70.97193474881350994110107421875">
        <ele>621.5999755859375</ele>
        <time>2026-08-21T18:39:23.000Z</time>
        <extensions>
          <ns3:TrackPointExtension>
            <ns3:hr>120</ns3:hr>
            <ns3:cad>75</ns3:cad>
          </ns3:TrackPointExtension>
        </extensions>
      </trkpt>
      <trkpt lat="45.34499770961701869964599609375" lon="-70.97195084206759929656982421875">
        <ele>621.4000244140625</ele>
        <time>2026-08-21T18:39:24.000Z</time>
        <extensions>
          <ns3:TrackPointExtension>
            <ns3:hr>120</ns3:hr>
            <ns3:cad>76</ns3:cad>
          </ns3:TrackPointExtension>
        </extensions>
      </trkpt>
      <trkpt lat="45.34501397050917148590087890625" lon="-70.97196559421718120574951171875">
        <ele>621.20001220703125</ele>
        <time>2026-08-21T18:39:25.000Z</time>
        <extensions>
          <ns3:TrackPointExtension>
            <ns3:hr>120</ns3:hr>
            <ns3:cad>76</ns3:cad>
          </ns3:TrackPointExtension>
        </extensions>
      </trkpt>
      <trkpt lat="45.34503039903938770294189453125" lon="-70.971982777118682861328125">
        <ele>621</ele>
        <time>2026-08-21T18:39:26.000Z</time>
        <extensions>
          <ns3:TrackPointExtension>
            <ns3:hr>120</ns3:hr>
            <ns3:cad>76</ns3:cad>
          </ns3:TrackPointExtension>
        </extensions>
      </trkpt>
      <trkpt lat="45.34504431299865245819091796875" lon="-70.9720027260482311248779296875">
        <ele>621</ele>
        <time>2026-08-21T18:39:27.000Z</time>
        <extensions>
          <ns3:TrackPointExtension>
            <ns3:hr>121</ns3:hr>
            <ns3:cad>77</ns3:cad>
          </ns3:TrackPointExtension>
        </extensions>
      </trkpt>
      <trkpt lat="45.34505990333855152130126953125" lon="-70.9720204956829547882080078125">
        <ele>620.79998779296875</ele>
        <time>2026-08-21T18:39:28.000Z</time>
        <extensions>
          <ns3:TrackPointExtension>
            <ns3:hr>121</ns3:hr>
            <ns3:cad>77</ns3:cad>
          </ns3:TrackPointExtension>
        </extensions>
      </trkpt>
      <trkpt lat="45.34507867880165576934814453125" lon="-70.9720318950712680816650390625">
        <ele>620.5999755859375</ele>
        <time>2026-08-21T18:39:29.000Z</time>
        <extensions>
          <ns3:TrackPointExtension>
            <ns3:hr>122</ns3:hr>
            <ns3:cad>79</ns3:cad>
          </ns3:TrackPointExtension>
        </extensions>
      </trkpt>
      <trkpt lat="45.34509527496993541717529296875" lon="-70.97204874269664287567138671875">
        <ele>620.4000244140625</ele>
        <time>2026-08-21T18:39:30.000Z</time>
        <extensions>
          <ns3:TrackPointExtension>
            <ns3:hr>122</ns3:hr>
            <ns3:cad>79</ns3:cad>
          </ns3:TrackPointExtension>
        </extensions>
      </trkpt>
      <trkpt lat="45.345110110938549041748046875" lon="-70.97206165082752704620361328125">
        <ele>620.20001220703125</ele>
        <time>2026-08-21T18:39:31.000Z</time>
        <extensions>
          <ns3:TrackPointExtension>
            <ns3:hr>122</ns3:hr>
            <ns3:cad>77</ns3:cad>
          </ns3:TrackPointExtension>
        </extensions>
      </trkpt>
      <trkpt lat="45.3451273776590824127197265625" lon="-70.972073972225189208984375">
        <ele>620</ele>
        <time>2026-08-21T18:39:32.000Z</time>
        <extensions>
          <ns3:TrackPointExtension>
            <ns3:hr>122</ns3:hr>
            <ns3:cad>77</ns3:cad>
          </ns3:TrackPointExtension>
        </extensions>
      </trkpt>
      <trkpt lat="45.3451428003609180450439453125" lon="-70.97208847291767597198486328125">
        <ele>620</ele>
        <time>2026-08-21T18:39:33.000Z</time>
        <extensions>
          <ns3:TrackPointExtension>
            <ns3:hr>123</ns3:hr>
            <ns3:cad>77</ns3:cad>
          </ns3:TrackPointExtension>
        </extensions>
      </trkpt>
      <trkpt lat="45.345159061253070831298828125" lon="-70.97210037522017955780029296875">
        <ele>619.79998779296875</ele>
        <time>2026-08-21T18:39:34.000Z</time>
        <extensions>
          <ns3:TrackPointExtension>
            <ns3:hr>123</ns3:hr>
            <ns3:cad>77</ns3:cad>
          </ns3:TrackPointExtension>
        </extensions>
      </trkpt>
      <trkpt lat="45.3451726399362087249755859375" lon="-70.97211244516074657440185546875">
        <ele>619.5999755859375</ele>
        <time>2026-08-21T18:39:35.000Z</time>
        <extensions>
          <ns3:TrackPointExtension>
            <ns3:hr>123</ns3:hr>
            <ns3:cad>77</ns3:cad>
          </ns3:TrackPointExtension>
        </extensions>
      </trkpt>
      <trkpt lat="45.3451890684664249420166015625" lon="-70.972125940024852752685546875">
        <ele>619.4000244140625</ele>
        <time>2026-08-21T18:39:36.000Z</time>
        <extensions>
          <ns3:TrackPointExtension>
            <ns3:hr>122</ns3:hr>
            <ns3:cad>79</ns3:cad>
          </ns3:TrackPointExtension>
        </extensions>
      </trkpt>
      <trkpt lat="45.345208011567592620849609375" lon="-70.972139351069927215576171875">
        <ele>619.4000244140625</ele>
        <time>2026-08-21T18:39:37.000Z</time>
        <extensions>
          <ns3:TrackPointExtension>
            <ns3:hr>122</ns3:hr>
            <ns3:cad>79</ns3:cad>
          </ns3:TrackPointExtension>
        </extensions>
      </trkpt>
      <trkpt lat="45.3452225960791110992431640625" lon="-70.97215242683887481689453125">
        <ele>619.20001220703125</ele>
        <time>2026-08-21T18:39:38.000Z</time>
        <extensions>
          <ns3:TrackPointExtension>
            <ns3:hr>123</ns3:hr>
            <ns3:cad>79</ns3:cad>
          </ns3:TrackPointExtension>
        </extensions>
      </trkpt>
      <trkpt lat="45.34523877315223217010498046875" lon="-70.972168855369091033935546875">
        <ele>619.20001220703125</ele>
        <time>2026-08-21T18:39:39.000Z</time>
        <extensions>
          <ns3:TrackPointExtension>
            <ns3:hr>122</ns3:hr>
            <ns3:cad>78</ns3:cad>
          </ns3:TrackPointExtension>
        </extensions>
      </trkpt>
      <trkpt lat="45.3452541120350360870361328125" lon="-70.97218654118478298187255859375">
        <ele>619</ele>
        <time>2026-08-21T18:39:40.000Z</time>
        <extensions>
          <ns3:TrackPointExtension>
            <ns3:hr>122</ns3:hr>
            <ns3:cad>78</ns3:cad>
          </ns3:TrackPointExtension>
        </extensions>
      </trkpt>
      <trkpt lat="45.34527079202234745025634765625" lon="-70.97220095805823802947998046875">
        <ele>618.79998779296875</ele>
        <time>2026-08-21T18:39:41.000Z</time>
        <extensions>
          <ns3:TrackPointExtension>
            <ns3:hr>122</ns3:hr>
            <ns3:cad>76</ns3:cad>
          </ns3:TrackPointExtension>
        </extensions>
      </trkpt>
      <trkpt lat="45.345286466181278228759765625" lon="-70.9722139500081539154052734375">
        <ele>618.5999755859375</ele>
        <time>2026-08-21T18:39:42.000Z</time>
        <extensions>
          <ns3:TrackPointExtension>
            <ns3:hr>122</ns3:hr>
            <ns3:cad>76</ns3:cad>
          </ns3:TrackPointExtension>
        </extensions>
      </trkpt>
      <trkpt lat="45.34530557692050933837890625" lon="-70.9722320549190044403076171875">
        <ele>618.4000244140625</ele>
        <time>2026-08-21T18:39:43.000Z</time>
        <extensions>
          <ns3:TrackPointExtension>
            <ns3:hr>123</ns3:hr>
            <ns3:cad>76</ns3:cad>
          </ns3:TrackPointExtension>
        </extensions>
      </trkpt>
      <trkpt lat="45.3453235141932964324951171875" lon="-70.9722464717924594879150390625">
        <ele>618.20001220703125</ele>
        <time>2026-08-21T18:39:44.000Z</time>
        <extensions>
          <ns3:TrackPointExtension>
            <ns3:hr>122</ns3:hr>
            <ns3:cad>78</ns3:cad>
          </ns3:TrackPointExtension>
        </extensions>
      </trkpt>
      <trkpt lat="45.345340110361576080322265625" lon="-70.97225778736174106597900390625">
        <ele>618</ele>
        <time>2026-08-21T18:39:45.000Z</time>
        <extensions>
          <ns3:TrackPointExtension>
            <ns3:hr>122</ns3:hr>
            <ns3:cad>78</ns3:cad>
          </ns3:TrackPointExtension>
        </extensions>
      </trkpt>
      <trkpt lat="45.345358885824680328369140625" lon="-70.972270779311656951904296875">
        <ele>617.79998779296875</ele>
        <time>2026-08-21T18:39:46.000Z</time>
        <extensions>
          <ns3:TrackPointExtension>
            <ns3:hr>123</ns3:hr>
            <ns3:cad>79</ns3:cad>
          </ns3:TrackPointExtension>
        </extensions>
      </trkpt>
      <trkpt lat="45.345377661287784576416015625" lon="-70.97228628583252429962158203125">
        <ele>617.5999755859375</ele>
        <time>2026-08-21T18:39:47.000Z</time>
        <extensions>
          <ns3:TrackPointExtension>
            <ns3:hr>122</ns3:hr>
            <ns3:cad>79</ns3:cad>
          </ns3:TrackPointExtension>
        </extensions>
      </trkpt>
      <trkpt lat="45.3453945927321910858154296875" lon="-70.97230070270597934722900390625">
        <ele>617.4000244140625</ele>
        <time>2026-08-21T18:39:48.000Z</time>
        <extensions>
          <ns3:TrackPointExtension>
            <ns3:hr>122</ns3:hr>
            <ns3:cad>79</ns3:cad>
          </ns3:TrackPointExtension>
        </extensions>
      </trkpt>
      <trkpt lat="45.345414541661739349365234375" lon="-70.97231377847492694854736328125">
        <ele>617.20001220703125</ele>
        <time>2026-08-21T18:39:49.000Z</time>
        <extensions>
          <ns3:TrackPointExtension>
            <ns3:hr>122</ns3:hr>
            <ns3:cad>79</ns3:cad>
          </ns3:TrackPointExtension>
        </extensions>
      </trkpt>
      <trkpt lat="45.345432646572589874267578125" lon="-70.97232903353869915008544921875">
        <ele>617</ele>
        <time>2026-08-21T18:39:50.000Z</time>
        <extensions>
          <ns3:TrackPointExtension>
            <ns3:hr>123</ns3:hr>
            <ns3:cad>79</ns3:cad>
          </ns3:TrackPointExtension>
        </extensions>
      </trkpt>
      <trkpt lat="45.34544681198894977569580078125" lon="-70.97234412096440792083740234375">
        <ele>616.79998779296875</ele>
        <time>2026-08-21T18:39:51.000Z</time>
        <extensions>
          <ns3:TrackPointExtension>
            <ns3:hr>123</ns3:hr>
            <ns3:cad>78</ns3:cad>
          </ns3:TrackPointExtension>
        </extensions>
      </trkpt>
      <trkpt lat="45.34546474926173686981201171875" lon="-70.9723596274852752685546875">
        <ele>616.5999755859375</ele>
        <time>2026-08-21T18:39:52.000Z</time>
        <extensions>
          <ns3:TrackPointExtension>
            <ns3:hr>123</ns3:hr>
            <ns3:cad>78</ns3:cad>
          </ns3:TrackPointExtension>
        </extensions>
      </trkpt>
      <trkpt lat="45.3454814292490482330322265625" lon="-70.97237773239612579345703125">
        <ele>616.4000244140625</ele>
        <time>2026-08-21T18:39:53.000Z</time>
        <extensions>
          <ns3:TrackPointExtension>
            <ns3:hr>123</ns3:hr>
            <ns3:cad>78</ns3:cad>
          </ns3:TrackPointExtension>
        </extensions>
      </trkpt>
      <trkpt lat="45.34549760632216930389404296875" lon="-70.97239516675472259521484375">
        <ele>616.4000244140625</ele>
        <time>2026-08-21T18:39:54.000Z</time>
        <extensions>
          <ns3:TrackPointExtension>
            <ns3:hr>123</ns3:hr>
            <ns3:cad>78</ns3:cad>
          </ns3:TrackPointExtension>
        </extensions>
      </trkpt>
      <trkpt lat="45.34551755525171756744384765625" lon="-70.97241486422717571258544921875">
        <ele>616.20001220703125</ele>
        <time>2026-08-21T18:39:55.000Z</time>
        <extensions>
          <ns3:TrackPointExtension>
            <ns3:hr>123</ns3:hr>
            <ns3:cad>78</ns3:cad>
          </ns3:TrackPointExtension>
        </extensions>
      </trkpt>
      <trkpt lat="45.34553431905806064605712890625" lon="-70.97243137657642364501953125">
        <ele>616.20001220703125</ele>
        <time>2026-08-21T18:39:56.000Z</time>
        <extensions>
          <ns3:TrackPointExtension>
            <ns3:hr>123</ns3:hr>
            <ns3:cad>78</ns3:cad>
          </ns3:TrackPointExtension>
        </extensions>
      </trkpt>
      <trkpt lat="45.3455501608550548553466796875" lon="-70.9724493138492107391357421875">
        <ele>616</ele>
        <time>2026-08-21T18:39:57.000Z</time>
        <extensions>
          <ns3:TrackPointExtension>
            <ns3:hr>123</ns3:hr>
            <ns3:cad>78</ns3:cad>
          </ns3:TrackPointExtension>
        </extensions>
      </trkpt>
      <trkpt lat="45.34556717611849308013916015625" lon="-70.97247320227324962615966796875">
        <ele>616</ele>
        <time>2026-08-21T18:39:58.000Z</time>
        <extensions>
          <ns3:TrackPointExtension>
            <ns3:hr>123</ns3:hr>
            <ns3:cad>78</ns3:cad>
          </ns3:TrackPointExtension>
        </extensions>
      </trkpt>
      <trkpt lat="45.345585532486438751220703125" lon="-70.97249398939311504364013671875">
        <ele>615.79998779296875</ele>
        <time>2026-08-21T18:39:59.000Z</time>
        <extensions>
          <ns3:TrackPointExtension>
            <ns3:hr>123</ns3:hr>
            <ns3:cad>78</ns3:cad>
          </ns3:TrackPointExtension>
        </extensions>
      </trkpt>
      <trkpt lat="45.345600955188274383544921875" lon="-70.9725143574178218841552734375">
        <ele>615.5999755859375</ele>
        <time>2026-08-21T18:40:00.000Z</time>
        <extensions>
          <ns3:TrackPointExtension>
            <ns3:hr>124</ns3:hr>
            <ns3:cad>78</ns3:cad>
          </ns3:TrackPointExtension>
        </extensions>
      </trkpt>
      <trkpt lat="45.345617048442363739013671875" lon="-70.97253866493701934814453125">
        <ele>615.5999755859375</ele>
        <time>2026-08-21T18:40:01.000Z</time>
        <extensions>
          <ns3:TrackPointExtension>
            <ns3:hr>124</ns3:hr>
            <ns3:cad>80</ns3:cad>
          </ns3:TrackPointExtension>
        </extensions>
      </trkpt>
      <trkpt lat="45.34563439898192882537841796875" lon="-70.9725609607994556427001953125">
        <ele>615.4000244140625</ele>
        <time>2026-08-21T18:40:02.000Z</time>
        <extensions>
          <ns3:TrackPointExtension>
            <ns3:hr>124</ns3:hr>
            <ns3:cad>80</ns3:cad>
          </ns3:TrackPointExtension>
        </extensions>
      </trkpt>
      <trkpt lat="45.34564713947474956512451171875" lon="-70.972583591938018798828125">
        <ele>615.4000244140625</ele>
        <time>2026-08-21T18:40:03.000Z</time>
        <extensions>
          <ns3:TrackPointExtension>
            <ns3:hr>124</ns3:hr>
            <ns3:cad>80</ns3:cad>
          </ns3:TrackPointExtension>
        </extensions>
      </trkpt>
      <trkpt lat="45.34566524438560009002685546875" lon="-70.97260597161948680877685546875">
        <ele>615.4000244140625</ele>
        <time>2026-08-21T18:40:04.000Z</time>
        <extensions>
          <ns3:TrackPointExtension>
            <ns3:hr>124</ns3:hr>
            <ns3:cad>80</ns3:cad>
          </ns3:TrackPointExtension>
        </extensions>
      </trkpt>
      <trkpt lat="45.3456825949251651763916015625" lon="-70.97262558527290821075439453125">
        <ele>615.20001220703125</ele>
        <time>2026-08-21T18:40:05.000Z</time>
        <extensions>
          <ns3:TrackPointExtension>
            <ns3:hr>124</ns3:hr>
            <ns3:cad>80</ns3:cad>
          </ns3:TrackPointExtension>
        </extensions>
      </trkpt>
      <trkpt lat="45.34569877199828624725341796875" lon="-70.97264285199344158172607421875">
        <ele>615</ele>
        <time>2026-08-21T18:40:06.000Z</time>
        <extensions>
          <ns3:TrackPointExtension>
            <ns3:hr>124</ns3:hr>
            <ns3:cad>79</ns3:cad>
          </ns3:TrackPointExtension>
        </extensions>
      </trkpt>
      <trkpt lat="45.3457141108810901641845703125" lon="-70.97265760414302349090576171875">
        <ele>614.79998779296875</ele>
        <time>2026-08-21T18:40:07.000Z</time>
        <extensions>
          <ns3:TrackPointExtension>
            <ns3:hr>124</ns3:hr>
            <ns3:cad>79</ns3:cad>
          </ns3:TrackPointExtension>
        </extensions>
      </trkpt>
      <trkpt lat="45.3457300364971160888671875" lon="-70.97267570905387401580810546875">
        <ele>614.79998779296875</ele>
        <time>2026-08-21T18:40:08.000Z</time>
        <extensions>
          <ns3:TrackPointExtension>
            <ns3:hr>124</ns3:hr>
            <ns3:cad>79</ns3:cad>
          </ns3:TrackPointExtension>
        </extensions>
      </trkpt>
      <trkpt lat="45.3457459621131420135498046875" lon="-70.97269498743116855621337890625">
        <ele>614.5999755859375</ele>
        <time>2026-08-21T18:40:09.000Z</time>
        <extensions>
          <ns3:TrackPointExtension>
            <ns3:hr>124</ns3:hr>
            <ns3:cad>79</ns3:cad>
          </ns3:TrackPointExtension>
        </extensions>
      </trkpt>
      <trkpt lat="45.34576733596622943878173828125" lon="-70.97271661274135112762451171875">
        <ele>614.5999755859375</ele>
        <time>2026-08-21T18:40:10.000Z</time>
        <extensions>
          <ns3:TrackPointExtension>
            <ns3:hr>124</ns3:hr>
            <ns3:cad>79</ns3:cad>
          </ns3:TrackPointExtension>
        </extensions>
      </trkpt>
      <trkpt lat="45.3457863628864288330078125" lon="-70.97273739986121654510498046875">
        <ele>614.4000244140625</ele>
        <time>2026-08-21T18:40:11.000Z</time>
        <extensions>
          <ns3:TrackPointExtension>
            <ns3:hr>124</ns3:hr>
            <ns3:cad>79</ns3:cad>
          </ns3:TrackPointExtension>
        </extensions>
      </trkpt>
      <trkpt lat="45.34580178558826446533203125" lon="-70.97275282256305217742919921875">
        <ele>614.20001220703125</ele>
        <time>2026-08-21T18:40:12.000Z</time>
        <extensions>
          <ns3:TrackPointExtension>
            <ns3:hr>124</ns3:hr>
            <ns3:cad>79</ns3:cad>
          </ns3:TrackPointExtension>
        </extensions>
      </trkpt>
      <trkpt lat="45.34582299180328845977783203125" lon="-70.97277863882482051849365234375">
        <ele>614.20001220703125</ele>
        <time>2026-08-21T18:40:13.000Z</time>
        <extensions>
          <ns3:TrackPointExtension>
            <ns3:hr>124</ns3:hr>
            <ns3:cad>79</ns3:cad>
          </ns3:TrackPointExtension>
        </extensions>
      </trkpt>
      <trkpt lat="45.34584210254251956939697265625" lon="-70.97279758192598819732666015625">
        <ele>614</ele>
        <time>2026-08-21T18:40:14.000Z</time>
        <extensions>
          <ns3:TrackPointExtension>
            <ns3:hr>124</ns3:hr>
            <ns3:cad>79</ns3:cad>
          </ns3:TrackPointExtension>
        </extensions>
      </trkpt>
      <trkpt lat="45.34585702233016490936279296875" lon="-70.972812585532665252685546875">
        <ele>613.79998779296875</ele>
        <time>2026-08-21T18:40:15.000Z</time>
        <extensions>
          <ns3:TrackPointExtension>
            <ns3:hr>123</ns3:hr>
            <ns3:cad>79</ns3:cad>
          </ns3:TrackPointExtension>
        </extensions>
      </trkpt>
      <trkpt lat="45.34587554633617401123046875" lon="-70.97283446229994297027587890625">
        <ele>613.79998779296875</ele>
        <time>2026-08-21T18:40:16.000Z</time>
        <extensions>
          <ns3:TrackPointExtension>
            <ns3:hr>123</ns3:hr>
            <ns3:cad>80</ns3:cad>
          </ns3:TrackPointExtension>
        </extensions>
      </trkpt>
      <trkpt lat="45.34589189104735851287841796875" lon="-70.97285323776304721832275390625">
        <ele>613.5999755859375</ele>
        <time>2026-08-21T18:40:17.000Z</time>
        <extensions>
          <ns3:TrackPointExtension>
            <ns3:hr>123</ns3:hr>
            <ns3:cad>80</ns3:cad>
          </ns3:TrackPointExtension>
        </extensions>
      </trkpt>
      <trkpt lat="45.34590370953083038330078125" lon="-70.97287050448358058929443359375">
        <ele>613.5999755859375</ele>
        <time>2026-08-21T18:40:18.000Z</time>
        <extensions>
          <ns3:TrackPointExtension>
            <ns3:hr>122</ns3:hr>
            <ns3:cad>79</ns3:cad>
          </ns3:TrackPointExtension>
        </extensions>
      </trkpt>
      <trkpt lat="45.34591904841363430023193359375" lon="-70.97289212979376316070556640625">
        <ele>613.4000244140625</ele>
        <time>2026-08-21T18:40:19.000Z</time>
        <extensions>
          <ns3:TrackPointExtension>
            <ns3:hr>122</ns3:hr>
            <ns3:cad>79</ns3:cad>
          </ns3:TrackPointExtension>
        </extensions>
      </trkpt>
      <trkpt lat="45.34593321382999420166015625" lon="-70.97290654666721820831298828125">
        <ele>613.20001220703125</ele>
        <time>2026-08-21T18:40:20.000Z</time>
        <extensions>
          <ns3:TrackPointExtension>
            <ns3:hr>121</ns3:hr>
            <ns3:cad>79</ns3:cad>
          </ns3:TrackPointExtension>
        </extensions>
      </trkpt>
      <trkpt lat="45.34594737924635410308837890625" lon="-70.97291979007422924041748046875">
        <ele>613.20001220703125</ele>
        <time>2026-08-21T18:40:21.000Z</time>
        <extensions>
          <ns3:TrackPointExtension>
            <ns3:hr>121</ns3:hr>
            <ns3:cad>78</ns3:cad>
          </ns3:TrackPointExtension>
        </extensions>
      </trkpt>
      <trkpt lat="45.34596213139593601226806640625" lon="-70.97293923608958721160888671875">
        <ele>613</ele>
        <time>2026-08-21T18:40:22.000Z</time>
        <extensions>
          <ns3:TrackPointExtension>
            <ns3:hr>121</ns3:hr>
            <ns3:cad>78</ns3:cad>
          </ns3:TrackPointExtension>
        </extensions>
      </trkpt>
      <trkpt lat="45.34597671590745449066162109375" lon="-70.97296069376170635223388671875">
        <ele>612.79998779296875</ele>
        <time>2026-08-21T18:40:23.000Z</time>
        <extensions>
          <ns3:TrackPointExtension>
            <ns3:hr>121</ns3:hr>
            <ns3:cad>78</ns3:cad>
          </ns3:TrackPointExtension>
        </extensions>
      </trkpt>
      <trkpt lat="45.345991216599941253662109375" lon="-70.972977541387081146240234375">
        <ele>612.79998779296875</ele>
        <time>2026-08-21T18:40:24.000Z</time>
        <extensions>
          <ns3:TrackPointExtension>
            <ns3:hr>120</ns3:hr>
            <ns3:cad>78</ns3:cad>
          </ns3:TrackPointExtension>
        </extensions>
      </trkpt>
      <trkpt lat="45.34600705839693546295166015625" lon="-70.9729979932308197021484375">
        <ele>612.5999755859375</ele>
        <time>2026-08-21T18:40:25.000Z</time>
        <extensions>
          <ns3:TrackPointExtension>
            <ns3:hr>120</ns3:hr>
            <ns3:cad>78</ns3:cad>
          </ns3:TrackPointExtension>
        </extensions>
      </trkpt>
      <trkpt lat="45.34602105617523193359375" lon="-70.97301718778908252716064453125">
        <ele>612.5999755859375</ele>
        <time>2026-08-21T18:40:26.000Z</time>
        <extensions>
          <ns3:TrackPointExtension>
            <ns3:hr>120</ns3:hr>
            <ns3:cad>78</ns3:cad>
          </ns3:TrackPointExtension>
        </extensions>
      </trkpt>
      <trkpt lat="45.34603589214384555816650390625" lon="-70.9730370528995990753173828125">
        <ele>612.4000244140625</ele>
        <time>2026-08-21T18:40:27.000Z</time>
        <extensions>
          <ns3:TrackPointExtension>
            <ns3:hr>121</ns3:hr>
            <ns3:cad>78</ns3:cad>
          </ns3:TrackPointExtension>
        </extensions>
      </trkpt>
      <trkpt lat="45.34605181775987148284912109375" lon="-70.97306194715201854705810546875">
        <ele>612.4000244140625</ele>
        <time>2026-08-21T18:40:28.000Z</time>
        <extensions>
          <ns3:TrackPointExtension>
            <ns3:hr>120</ns3:hr>
            <ns3:cad>78</ns3:cad>
          </ns3:TrackPointExtension>
        </extensions>
      </trkpt>
      <trkpt lat="45.34606388770043849945068359375" lon="-70.9730839915573596954345703125">
        <ele>612.4000244140625</ele>
        <time>2026-08-21T18:40:29.000Z</time>
        <extensions>
          <ns3:TrackPointExtension>
            <ns3:hr>121</ns3:hr>
            <ns3:cad>78</ns3:cad>
          </ns3:TrackPointExtension>
        </extensions>
      </trkpt>
      <trkpt lat="45.34607696346938610076904296875" lon="-70.9731052815914154052734375">
        <ele>612.20001220703125</ele>
        <time>2026-08-21T18:40:30.000Z</time>
        <extensions>
          <ns3:TrackPointExtension>
            <ns3:hr>121</ns3:hr>
            <ns3:cad>78</ns3:cad>
          </ns3:TrackPointExtension>
        </extensions>
      </trkpt>
      <trkpt lat="45.34609540365636348724365234375" lon="-70.9731285832822322845458984375">
        <ele>612</ele>
        <time>2026-08-21T18:40:31.000Z</time>
        <extensions>
          <ns3:TrackPointExtension>
            <ns3:hr>121</ns3:hr>
            <ns3:cad>79</ns3:cad>
          </ns3:TrackPointExtension>
        </extensions>
      </trkpt>
      <trkpt lat="45.34611082635819911956787109375" lon="-70.973147191107273101806640625">
        <ele>612</ele>
        <time>2026-08-21T18:40:32.000Z</time>
        <extensions>
          <ns3:TrackPointExtension>
            <ns3:hr>121</ns3:hr>
            <ns3:cad>79</ns3:cad>
          </ns3:TrackPointExtension>
        </extensions>
      </trkpt>
      <trkpt lat="45.3461275063455104827880859375" lon="-70.973169319331645965576171875">
        <ele>611.79998779296875</ele>
        <time>2026-08-21T18:40:33.000Z</time>
        <extensions>
          <ns3:TrackPointExtension>
            <ns3:hr>121</ns3:hr>
            <ns3:cad>79</ns3:cad>
          </ns3:TrackPointExtension>
        </extensions>
      </trkpt>
      <trkpt lat="45.3461432643234729766845703125" lon="-70.973190106451511383056640625">
        <ele>611.79998779296875</ele>
        <time>2026-08-21T18:40:34.000Z</time>
        <extensions>
          <ns3:TrackPointExtension>
            <ns3:hr>121</ns3:hr>
            <ns3:cad>79</ns3:cad>
          </ns3:TrackPointExtension>
        </extensions>
      </trkpt>
      <trkpt lat="45.346156172454357147216796875" lon="-70.973206199705600738525390625">
        <ele>611.5999755859375</ele>
        <time>2026-08-21T18:40:35.000Z</time>
        <extensions>
          <ns3:TrackPointExtension>
            <ns3:hr>120</ns3:hr>
            <ns3:cad>79</ns3:cad>
          </ns3:TrackPointExtension>
        </extensions>
      </trkpt>
      <trkpt lat="45.3461704216897487640380859375" lon="-70.9732305072247982025146484375">
        <ele>611.5999755859375</ele>
        <time>2026-08-21T18:40:36.000Z</time>
        <extensions>
          <ns3:TrackPointExtension>
            <ns3:hr>119</ns3:hr>
            <ns3:cad>78</ns3:cad>
          </ns3:TrackPointExtension>
        </extensions>
      </trkpt>
      <trkpt lat="45.34618458710610866546630859375" lon="-70.97325070761144161224365234375">
        <ele>611.4000244140625</ele>
        <time>2026-08-21T18:40:37.000Z</time>
        <extensions>
          <ns3:TrackPointExtension>
            <ns3:hr>120</ns3:hr>
            <ns3:cad>78</ns3:cad>
          </ns3:TrackPointExtension>
        </extensions>
      </trkpt>
      <trkpt lat="45.3462002612650394439697265625" lon="-70.9732663817703723907470703125">
        <ele>611.4000244140625</ele>
        <time>2026-08-21T18:40:38.000Z</time>
        <extensions>
          <ns3:TrackPointExtension>
            <ns3:hr>120</ns3:hr>
            <ns3:cad>77</ns3:cad>
          </ns3:TrackPointExtension>
        </extensions>
      </trkpt>
      <trkpt lat="45.34621216356754302978515625" lon="-70.97329010255634784698486328125">
        <ele>611.20001220703125</ele>
        <time>2026-08-21T18:40:39.000Z</time>
        <extensions>
          <ns3:TrackPointExtension>
            <ns3:hr>120</ns3:hr>
            <ns3:cad>78</ns3:cad>
          </ns3:TrackPointExtension>
        </extensions>
      </trkpt>
      <trkpt lat="45.346227250993251800537109375" lon="-70.9733099676668643951416015625">
        <ele>611.20001220703125</ele>
        <time>2026-08-21T18:40:40.000Z</time>
        <extensions>
          <ns3:TrackPointExtension>
            <ns3:hr>120</ns3:hr>
            <ns3:cad>78</ns3:cad>
          </ns3:TrackPointExtension>
        </extensions>
      </trkpt>
      <trkpt lat="45.346239320933818817138671875" lon="-70.97332798875868320465087890625">
        <ele>611.20001220703125</ele>
        <time>2026-08-21T18:40:41.000Z</time>
        <extensions>
          <ns3:TrackPointExtension>
            <ns3:hr>121</ns3:hr>
            <ns3:cad>78</ns3:cad>
          </ns3:TrackPointExtension>
        </extensions>
      </trkpt>
      <trkpt lat="45.3462515585124492645263671875" lon="-70.9733520448207855224609375">
        <ele>611</ele>
        <time>2026-08-21T18:40:42.000Z</time>
        <extensions>
          <ns3:TrackPointExtension>
            <ns3:hr>120</ns3:hr>
            <ns3:cad>78</ns3:cad>
          </ns3:TrackPointExtension>
        </extensions>
      </trkpt>
      <trkpt lat="45.34626354463398456573486328125" lon="-70.97337241284549236297607421875">
        <ele>610.79998779296875</ele>
        <time>2026-08-21T18:40:43.000Z</time>
        <extensions>
          <ns3:TrackPointExtension>
            <ns3:hr>120</ns3:hr>
            <ns3:cad>78</ns3:cad>
          </ns3:TrackPointExtension>
        </extensions>
      </trkpt>
      <trkpt lat="45.34627477638423442840576171875" lon="-70.9733917750418186187744140625">
        <ele>610.79998779296875</ele>
        <time>2026-08-21T18:40:44.000Z</time>
        <extensions>
          <ns3:TrackPointExtension>
            <ns3:hr>120</ns3:hr>
            <ns3:cad>78</ns3:cad>
          </ns3:TrackPointExtension>
        </extensions>
      </trkpt>
      <trkpt lat="45.3462879359722137451171875" lon="-70.97341801039874553680419921875">
        <ele>610.79998779296875</ele>
        <time>2026-08-21T18:40:45.000Z</time>
        <extensions>
          <ns3:TrackPointExtension>
            <ns3:hr>120</ns3:hr>
            <ns3:cad>78</ns3:cad>
          </ns3:TrackPointExtension>
        </extensions>
      </trkpt>
      <trkpt lat="45.34630059264600276947021484375" lon="-70.97344458103179931640625">
        <ele>610.79998779296875</ele>
        <time>2026-08-21T18:40:46.000Z</time>
        <extensions>
          <ns3:TrackPointExtension>
            <ns3:hr>120</ns3:hr>
            <ns3:cad>78</ns3:cad>
          </ns3:TrackPointExtension>
        </extensions>
      </trkpt>
      <trkpt lat="45.346311740577220916748046875" lon="-70.97346863709390163421630859375">
        <ele>610.5999755859375</ele>
        <time>2026-08-21T18:40:47.000Z</time>
        <extensions>
          <ns3:TrackPointExtension>
            <ns3:hr>119</ns3:hr>
            <ns3:cad>78</ns3:cad>
          </ns3:TrackPointExtension>
        </extensions>
      </trkpt>
      <trkpt lat="45.34632288850843906402587890625" lon="-70.973495207726955413818359375">
        <ele>610.5999755859375</ele>
        <time>2026-08-21T18:40:48.000Z</time>
        <extensions>
          <ns3:TrackPointExtension>
            <ns3:hr>120</ns3:hr>
            <ns3:cad>79</ns3:cad>
          </ns3:TrackPointExtension>
        </extensions>
      </trkpt>
      <trkpt lat="45.34633210860192775726318359375" lon="-70.973522029817104339599609375">
        <ele>610.5999755859375</ele>
        <time>2026-08-21T18:40:49.000Z</time>
        <extensions>
          <ns3:TrackPointExtension>
            <ns3:hr>120</ns3:hr>
            <ns3:cad>79</ns3:cad>
          </ns3:TrackPointExtension>
        </extensions>
      </trkpt>
      <trkpt lat="45.34633914940059185028076171875" lon="-70.9735470078885555267333984375">
        <ele>610.4000244140625</ele>
        <time>2026-08-21T18:40:50.000Z</time>
        <extensions>
          <ns3:TrackPointExtension>
            <ns3:hr>120</ns3:hr>
            <ns3:cad>78</ns3:cad>
          </ns3:TrackPointExtension>
        </extensions>
      </trkpt>
      <trkpt lat="45.34634585492312908172607421875" lon="-70.9735758416354656219482421875">
        <ele>610.4000244140625</ele>
        <time>2026-08-21T18:40:51.000Z</time>
        <extensions>
          <ns3:TrackPointExtension>
            <ns3:hr>120</ns3:hr>
            <ns3:cad>78</ns3:cad>
          </ns3:TrackPointExtension>
        </extensions>
      </trkpt>
      <trkpt lat="45.3463518060743808746337890625" lon="-70.97360090352594852447509765625">
        <ele>610.4000244140625</ele>
        <time>2026-08-21T18:40:52.000Z</time>
        <extensions>
          <ns3:TrackPointExtension>
            <ns3:hr>121</ns3:hr>
            <ns3:cad>78</ns3:cad>
          </ns3:TrackPointExtension>
        </extensions>
      </trkpt>
      <trkpt lat="45.3463601879775524139404296875" lon="-70.97362789325416088104248046875">
        <ele>610.4000244140625</ele>
        <time>2026-08-21T18:40:53.000Z</time>
        <extensions>
          <ns3:TrackPointExtension>
            <ns3:hr>121</ns3:hr>
            <ns3:cad>79</ns3:cad>
          </ns3:TrackPointExtension>
        </extensions>
      </trkpt>
      <trkpt lat="45.346366725862026214599609375" lon="-70.97365236841142177581787109375">
        <ele>610.20001220703125</ele>
        <time>2026-08-21T18:40:54.000Z</time>
        <extensions>
          <ns3:TrackPointExtension>
            <ns3:hr>121</ns3:hr>
            <ns3:cad>79</ns3:cad>
          </ns3:TrackPointExtension>
        </extensions>
      </trkpt>
      <trkpt lat="45.3463692404329776763916015625" lon="-70.9736797772347927093505859375">
        <ele>610.20001220703125</ele>
        <time>2026-08-21T18:40:55.000Z</time>
        <extensions>
          <ns3:TrackPointExtension>
            <ns3:hr>122</ns3:hr>
            <ns3:cad>80</ns3:cad>
          </ns3:TrackPointExtension>
        </extensions>
      </trkpt>
      <trkpt lat="45.346372425556182861328125" lon="-70.97370701842010021209716796875">
        <ele>610.20001220703125</ele>
        <time>2026-08-21T18:40:56.000Z</time>
        <extensions>
          <ns3:TrackPointExtension>
            <ns3:hr>122</ns3:hr>
            <ns3:cad>80</ns3:cad>
          </ns3:TrackPointExtension>
        </extensions>
      </trkpt>
      <trkpt lat="45.3463782928884029388427734375" lon="-70.97374104894697666168212890625">
        <ele>610.20001220703125</ele>
        <time>2026-08-21T18:40:57.000Z</time>
        <extensions>
          <ns3:TrackPointExtension>
            <ns3:hr>122</ns3:hr>
            <ns3:cad>80</ns3:cad>
          </ns3:TrackPointExtension>
        </extensions>
      </trkpt>
      <trkpt lat="45.34638441167771816253662109375" lon="-70.973772145807743072509765625">
        <ele>610</ele>
        <time>2026-08-21T18:40:58.000Z</time>
        <extensions>
          <ns3:TrackPointExtension>
            <ns3:hr>122</ns3:hr>
            <ns3:cad>80</ns3:cad>
          </ns3:TrackPointExtension>
        </extensions>
      </trkpt>
      <trkpt lat="45.346388854086399078369140625" lon="-70.97380089573562145233154296875">
        <ele>610</ele>
        <time>2026-08-21T18:40:59.000Z</time>
        <extensions>
          <ns3:TrackPointExtension>
            <ns3:hr>123</ns3:hr>
            <ns3:cad>80</ns3:cad>
          </ns3:TrackPointExtension>
        </extensions>
      </trkpt>
      <trkpt lat="45.34638977609574794769287109375" lon="-70.97383945249021053314208984375">
        <ele>610</ele>
        <time>2026-08-21T18:41:00.000Z</time>
        <extensions>
          <ns3:TrackPointExtension>
            <ns3:hr>123</ns3:hr>
            <ns3:cad>79</ns3:cad>
          </ns3:TrackPointExtension>
        </extensions>
      </trkpt>
      <trkpt lat="45.3463930450379848480224609375" lon="-70.97387515939772129058837890625">
        <ele>609.79998779296875</ele>
        <time>2026-08-21T18:41:01.000Z</time>
        <extensions>
          <ns3:TrackPointExtension>
            <ns3:hr>123</ns3:hr>
            <ns3:cad>79</ns3:cad>
          </ns3:TrackPointExtension>
        </extensions>
      </trkpt>
      <trkpt lat="45.34639262594282627105712890625" lon="-70.97390525043010711669921875">
        <ele>609.79998779296875</ele>
        <time>2026-08-21T18:41:02.000Z</time>
        <extensions>
          <ns3:TrackPointExtension>
            <ns3:hr>123</ns3:hr>
            <ns3:cad>79</ns3:cad>
          </ns3:TrackPointExtension>
        </extensions>
      </trkpt>
      <trkpt lat="45.34639111720025539398193359375" lon="-70.9739419631659984588623046875">
        <ele>609.79998779296875</ele>
        <time>2026-08-21T18:41:03.000Z</time>
        <extensions>
          <ns3:TrackPointExtension>
            <ns3:hr>124</ns3:hr>
            <ns3:cad>82</ns3:cad>
          </ns3:TrackPointExtension>
        </extensions>
      </trkpt>
      <trkpt lat="45.3463937155902385711669921875" lon="-70.97397725097835063934326171875">
        <ele>609.79998779296875</ele>
        <time>2026-08-21T18:41:04.000Z</time>
        <extensions>
          <ns3:TrackPointExtension>
            <ns3:hr>124</ns3:hr>
            <ns3:cad>82</ns3:cad>
          </ns3:TrackPointExtension>
        </extensions>
      </trkpt>
      <trkpt lat="45.34639782272279262542724609375" lon="-70.97400960512459278106689453125">
        <ele>609.79998779296875</ele>
        <time>2026-08-21T18:41:05.000Z</time>
        <extensions>
          <ns3:TrackPointExtension>
            <ns3:hr>125</ns3:hr>
            <ns3:cad>83</ns3:cad>
          </ns3:TrackPointExtension>
        </extensions>
      </trkpt>
      <trkpt lat="45.3463987447321414947509765625" lon="-70.97404338419437408447265625">
        <ele>609.5999755859375</ele>
        <time>2026-08-21T18:41:06.000Z</time>
        <extensions>
          <ns3:TrackPointExtension>
            <ns3:hr>126</ns3:hr>
            <ns3:cad>83</ns3:cad>
          </ns3:TrackPointExtension>
        </extensions>
      </trkpt>
      <trkpt lat="45.346396900713443756103515625" lon="-70.97407825291156768798828125">
        <ele>609.5999755859375</ele>
        <time>2026-08-21T18:41:07.000Z</time>
        <extensions>
          <ns3:TrackPointExtension>
            <ns3:hr>126</ns3:hr>
            <ns3:cad>83</ns3:cad>
          </ns3:TrackPointExtension>
        </extensions>
      </trkpt>
      <trkpt lat="45.34639547578990459442138671875" lon="-70.9741099365055561065673828125">
        <ele>609.5999755859375</ele>
        <time>2026-08-21T18:41:08.000Z</time>
        <extensions>
          <ns3:TrackPointExtension>
            <ns3:hr>126</ns3:hr>
            <ns3:cad>83</ns3:cad>
          </ns3:TrackPointExtension>
        </extensions>
      </trkpt>
      <trkpt lat="45.3463967330753803253173828125" lon="-70.974140278995037078857421875">
        <ele>609.4000244140625</ele>
        <time>2026-08-21T18:41:09.000Z</time>
        <extensions>
          <ns3:TrackPointExtension>
            <ns3:hr>126</ns3:hr>
            <ns3:cad>83</ns3:cad>
          </ns3:TrackPointExtension>
        </extensions>
      </trkpt>
      <trkpt lat="45.34640184603631496429443359375" lon="-70.9741766564548015594482421875">
        <ele>609.4000244140625</ele>
        <time>2026-08-21T18:41:10.000Z</time>
        <extensions>
          <ns3:TrackPointExtension>
            <ns3:hr>127</ns3:hr>
            <ns3:cad>83</ns3:cad>
          </ns3:TrackPointExtension>
        </extensions>
      </trkpt>
      <trkpt lat="45.34640528261661529541015625" lon="-70.97420339472591876983642578125">
        <ele>609.4000244140625</ele>
        <time>2026-08-21T18:41:11.000Z</time>
        <extensions>
          <ns3:TrackPointExtension>
            <ns3:hr>127</ns3:hr>
            <ns3:cad>83</ns3:cad>
          </ns3:TrackPointExtension>
        </extensions>
      </trkpt>
      <trkpt lat="45.34640687517821788787841796875" lon="-70.97424111329019069671630859375">
        <ele>609.5999755859375</ele>
        <time>2026-08-21T18:41:12.000Z</time>
        <extensions>
          <ns3:TrackPointExtension>
            <ns3:hr>127</ns3:hr>
            <ns3:cad>83</ns3:cad>
          </ns3:TrackPointExtension>
        </extensions>
      </trkpt>
      <trkpt lat="45.34640754573047161102294921875" lon="-70.9742732159793376922607421875">
        <ele>609.5999755859375</ele>
        <time>2026-08-21T18:41:13.000Z</time>
        <extensions>
          <ns3:TrackPointExtension>
            <ns3:hr>127</ns3:hr>
            <ns3:cad>83</ns3:cad>
          </ns3:TrackPointExtension>
        </extensions>
      </trkpt>
      <trkpt lat="45.34640930593013763427734375" lon="-70.97430380992591381072998046875">
        <ele>609.5999755859375</ele>
        <time>2026-08-21T18:41:14.000Z</time>
        <extensions>
          <ns3:TrackPointExtension>
            <ns3:hr>127</ns3:hr>
            <ns3:cad>83</ns3:cad>
          </ns3:TrackPointExtension>
        </extensions>
      </trkpt>
      <trkpt lat="45.3464041091501712799072265625" lon="-70.97433851100504398345947265625">
        <ele>609.5999755859375</ele>
        <time>2026-08-21T18:41:15.000Z</time>
        <extensions>
          <ns3:TrackPointExtension>
            <ns3:hr>127</ns3:hr>
            <ns3:cad>40</ns3:cad>
          </ns3:TrackPointExtension>
        </extensions>
      </trkpt>
      <trkpt lat="45.3464041091501712799072265625" lon="-70.97436734475195407867431640625">
        <ele>609.4000244140625</ele>
        <time>2026-08-21T18:41:16.000Z</time>
        <extensions>
          <ns3:TrackPointExtension>
            <ns3:hr>127</ns3:hr>
            <ns3:cad>40</ns3:cad>
          </ns3:TrackPointExtension>
        </extensions>
      </trkpt>
      <trkpt lat="45.34640586934983730316162109375" lon="-70.97439869306981563568115234375">
        <ele>609.4000244140625</ele>
        <time>2026-08-21T18:41:17.000Z</time>
        <extensions>
          <ns3:TrackPointExtension>
            <ns3:hr>128</ns3:hr>
            <ns3:cad>40</ns3:cad>
          </ns3:TrackPointExtension>
        </extensions>
      </trkpt>
      <trkpt lat="45.34640419296920299530029296875" lon="-70.9744321368634700775146484375">
        <ele>609.4000244140625</ele>
        <time>2026-08-21T18:41:18.000Z</time>
        <extensions>
          <ns3:TrackPointExtension>
            <ns3:hr>128</ns3:hr>
            <ns3:cad>41</ns3:cad>
          </ns3:TrackPointExtension>
        </extensions>
      </trkpt>
      <trkpt lat="45.34639832563698291778564453125" lon="-70.9744653292000293731689453125">
        <ele>609.20001220703125</ele>
        <time>2026-08-21T18:41:19.000Z</time>
        <extensions>
          <ns3:TrackPointExtension>
            <ns3:hr>128</ns3:hr>
            <ns3:cad>41</ns3:cad>
          </ns3:TrackPointExtension>
        </extensions>
      </trkpt>
      <trkpt lat="45.34639866091310977935791015625" lon="-70.97449692897498607635498046875">
        <ele>609.20001220703125</ele>
        <time>2026-08-21T18:41:20.000Z</time>
        <extensions>
          <ns3:TrackPointExtension>
            <ns3:hr>129</ns3:hr>
            <ns3:cad>40</ns3:cad>
          </ns3:TrackPointExtension>
        </extensions>
      </trkpt>
      <trkpt lat="45.34640016965568065643310546875" lon="-70.97452274523675441741943359375">
        <ele>609.20001220703125</ele>
        <time>2026-08-21T18:41:21.000Z</time>
        <extensions>
          <ns3:TrackPointExtension>
            <ns3:hr>129</ns3:hr>
            <ns3:cad>40</ns3:cad>
          </ns3:TrackPointExtension>
        </extensions>
      </trkpt>
      <trkpt lat="45.34639648161828517913818359375" lon="-70.9745555184781551361083984375">
        <ele>609</ele>
        <time>2026-08-21T18:41:22.000Z</time>
        <extensions>
          <ns3:TrackPointExtension>
            <ns3:hr>130</ns3:hr>
            <ns3:cad>40</ns3:cad>
          </ns3:TrackPointExtension>
        </extensions>
      </trkpt>
      <trkpt lat="45.34639262594282627105712890625" lon="-70.97458745352923870086669921875">
        <ele>609</ele>
        <time>2026-08-21T18:41:23.000Z</time>
        <extensions>
          <ns3:TrackPointExtension>
            <ns3:hr>131</ns3:hr>
            <ns3:cad>40</ns3:cad>
          </ns3:TrackPointExtension>
        </extensions>
      </trkpt>
      <trkpt lat="45.34639187157154083251953125" lon="-70.97461259923875331878662109375">
        <ele>609</ele>
        <time>2026-08-21T18:41:24.000Z</time>
        <extensions>
          <ns3:TrackPointExtension>
            <ns3:hr>130</ns3:hr>
            <ns3:cad>40</ns3:cad>
          </ns3:TrackPointExtension>
        </extensions>
      </trkpt>
      <trkpt lat="45.346391536295413970947265625" lon="-70.974643863737583160400390625">
        <ele>609</ele>
        <time>2026-08-21T18:41:25.000Z</time>
        <extensions>
          <ns3:TrackPointExtension>
            <ns3:hr>130</ns3:hr>
            <ns3:cad>82</ns3:cad>
          </ns3:TrackPointExtension>
        </extensions>
      </trkpt>
      <trkpt lat="45.3463903628289699554443359375" lon="-70.9746770560741424560546875">
        <ele>609</ele>
        <time>2026-08-21T18:41:26.000Z</time>
        <extensions>
          <ns3:TrackPointExtension>
            <ns3:hr>130</ns3:hr>
            <ns3:cad>82</ns3:cad>
          </ns3:TrackPointExtension>
        </extensions>
      </trkpt>
      <trkpt lat="45.346388518810272216796875" lon="-70.97470991313457489013671875">
        <ele>609</ele>
        <time>2026-08-21T18:41:27.000Z</time>
        <extensions>
          <ns3:TrackPointExtension>
            <ns3:hr>130</ns3:hr>
            <ns3:cad>82</ns3:cad>
          </ns3:TrackPointExtension>
        </extensions>
      </trkpt>
      <trkpt lat="45.34638390876352787017822265625" lon="-70.97474603913724422454833984375">
        <ele>609</ele>
        <time>2026-08-21T18:41:28.000Z</time>
        <extensions>
          <ns3:TrackPointExtension>
            <ns3:hr>130</ns3:hr>
            <ns3:cad>81</ns3:cad>
          </ns3:TrackPointExtension>
        </extensions>
      </trkpt>
      <trkpt lat="45.346382819116115570068359375" lon="-70.9747727774083614349365234375">
        <ele>609.20001220703125</ele>
        <time>2026-08-21T18:41:29.000Z</time>
        <extensions>
          <ns3:TrackPointExtension>
            <ns3:hr>131</ns3:hr>
            <ns3:cad>81</ns3:cad>
          </ns3:TrackPointExtension>
        </extensions>
      </trkpt>
      <trkpt lat="45.3463818132877349853515625" lon="-70.974799431860446929931640625">
        <ele>609.20001220703125</ele>
        <time>2026-08-21T18:41:30.000Z</time>
        <extensions>
          <ns3:TrackPointExtension>
            <ns3:hr>131</ns3:hr>
            <ns3:cad>81</ns3:cad>
          </ns3:TrackPointExtension>
        </extensions>
      </trkpt>
      <trkpt lat="45.3463766165077686309814453125" lon="-70.9748187102377414703369140625">
        <ele>609.20001220703125</ele>
        <time>2026-08-21T18:41:31.000Z</time>
        <extensions>
          <ns3:TrackPointExtension>
            <ns3:hr>131</ns3:hr>
            <ns3:cad>81</ns3:cad>
          </ns3:TrackPointExtension>
        </extensions>
      </trkpt>
      <trkpt lat="45.34637502394616603851318359375" lon="-70.9748438559472560882568359375">
        <ele>609.20001220703125</ele>
        <time>2026-08-21T18:41:32.000Z</time>
        <extensions>
          <ns3:TrackPointExtension>
            <ns3:hr>132</ns3:hr>
            <ns3:cad>81</ns3:cad>
          </ns3:TrackPointExtension>
        </extensions>
      </trkpt>
      <trkpt lat="45.34637670032680034637451171875" lon="-70.97487059421837329864501953125">
        <ele>609.20001220703125</ele>
        <time>2026-08-21T18:41:33.000Z</time>
        <extensions>
          <ns3:TrackPointExtension>
            <ns3:hr>131</ns3:hr>
            <ns3:cad>81</ns3:cad>
          </ns3:TrackPointExtension>
        </extensions>
      </trkpt>
      <trkpt lat="45.34637502394616603851318359375" lon="-70.97489171661436557769775390625">
        <ele>609.20001220703125</ele>
        <time>2026-08-21T18:41:34.000Z</time>
        <extensions>
          <ns3:TrackPointExtension>
            <ns3:hr>130</ns3:hr>
            <ns3:cad>81</ns3:cad>
          </ns3:TrackPointExtension>
        </extensions>
      </trkpt>
      <trkpt lat="45.34637502394616603851318359375" lon="-70.97491241991519927978515625">
        <ele>609</ele>
        <time>2026-08-21T18:41:35.000Z</time>
        <extensions>
          <ns3:TrackPointExtension>
            <ns3:hr>130</ns3:hr>
            <ns3:cad>61</ns3:cad>
          </ns3:TrackPointExtension>
        </extensions>
      </trkpt>
      <trkpt lat="45.3463756106793880462646484375" lon="-70.974934212863445281982421875">
        <ele>609</ele>
        <time>2026-08-21T18:41:36.000Z</time>
        <extensions>
          <ns3:TrackPointExtension>
            <ns3:hr>131</ns3:hr>
            <ns3:cad>59</ns3:cad>
          </ns3:TrackPointExtension>
        </extensions>
      </trkpt>
      <trkpt lat="45.34637636505067348480224609375" lon="-70.97495391033589839935302734375">
        <ele>609</ele>
        <time>2026-08-21T18:41:37.000Z</time>
        <extensions>
          <ns3:TrackPointExtension>
            <ns3:hr>131</ns3:hr>
            <ns3:cad>59</ns3:cad>
          </ns3:TrackPointExtension>
        </extensions>
      </trkpt>
      <trkpt lat="45.34637602977454662322998046875" lon="-70.97497352398931980133056640625">
        <ele>608.79998779296875</ele>
        <time>2026-08-21T18:41:38.000Z</time>
        <extensions>
          <ns3:TrackPointExtension>
            <ns3:hr>131</ns3:hr>
            <ns3:cad>59</ns3:cad>
          </ns3:TrackPointExtension>
        </extensions>
      </trkpt>
      <trkpt lat="45.34637586213648319244384765625" lon="-70.97499263472855091094970703125">
        <ele>608.79998779296875</ele>
        <time>2026-08-21T18:41:39.000Z</time>
        <extensions>
          <ns3:TrackPointExtension>
            <ns3:hr>132</ns3:hr>
            <ns3:cad>59</ns3:cad>
          </ns3:TrackPointExtension>
        </extensions>
      </trkpt>
      <trkpt lat="45.3463742695748805999755859375" lon="-70.975011996924877166748046875">
        <ele>608.79998779296875</ele>
        <time>2026-08-21T18:41:40.000Z</time>
        <extensions>
          <ns3:TrackPointExtension>
            <ns3:hr>132</ns3:hr>
            <ns3:cad>58</ns3:cad>
          </ns3:TrackPointExtension>
        </extensions>
      </trkpt>
      <trkpt lat="45.34637083299458026885986328125" lon="-70.97503135912120342254638671875">
        <ele>608.79998779296875</ele>
        <time>2026-08-21T18:41:41.000Z</time>
        <extensions>
          <ns3:TrackPointExtension>
            <ns3:hr>132</ns3:hr>
            <ns3:cad>57</ns3:cad>
          </ns3:TrackPointExtension>
        </extensions>
      </trkpt>
      <trkpt lat="45.34636865369975566864013671875" lon="-70.97505197860300540924072265625">
        <ele>608.79998779296875</ele>
        <time>2026-08-21T18:41:42.000Z</time>
        <extensions>
          <ns3:TrackPointExtension>
            <ns3:hr>132</ns3:hr>
            <ns3:cad>57</ns3:cad>
          </ns3:TrackPointExtension>
        </extensions>
      </trkpt>
      <trkpt lat="45.34636664204299449920654296875" lon="-70.975069664418697357177734375">
        <ele>608.79998779296875</ele>
        <time>2026-08-21T18:41:43.000Z</time>
        <extensions>
          <ns3:TrackPointExtension>
            <ns3:hr>132</ns3:hr>
            <ns3:cad>57</ns3:cad>
          </ns3:TrackPointExtension>
        </extensions>
      </trkpt>
      <trkpt lat="45.34636236727237701416015625" lon="-70.9750865958631038665771484375">
        <ele>608.79998779296875</ele>
        <time>2026-08-21T18:41:44.000Z</time>
        <extensions>
          <ns3:TrackPointExtension>
            <ns3:hr>131</ns3:hr>
            <ns3:cad>57</ns3:cad>
          </ns3:TrackPointExtension>
        </extensions>
      </trkpt>
      <trkpt lat="45.34636127762496471405029296875" lon="-70.97511115483939647674560546875">
        <ele>608.79998779296875</ele>
        <time>2026-08-21T18:41:45.000Z</time>
        <extensions>
          <ns3:TrackPointExtension>
            <ns3:hr>132</ns3:hr>
            <ns3:cad>57</ns3:cad>
          </ns3:TrackPointExtension>
        </extensions>
      </trkpt>
      <trkpt lat="45.34636027179658412933349609375" lon="-70.97513504326343536376953125">
        <ele>608.79998779296875</ele>
        <time>2026-08-21T18:41:46.000Z</time>
        <extensions>
          <ns3:TrackPointExtension>
            <ns3:hr>132</ns3:hr>
            <ns3:cad>57</ns3:cad>
          </ns3:TrackPointExtension>
        </extensions>
      </trkpt>
      <trkpt lat="45.34635968506336212158203125" lon="-70.97515759058296680450439453125">
        <ele>608.79998779296875</ele>
        <time>2026-08-21T18:41:47.000Z</time>
        <extensions>
          <ns3:TrackPointExtension>
            <ns3:hr>132</ns3:hr>
            <ns3:cad>57</ns3:cad>
          </ns3:TrackPointExtension>
        </extensions>
      </trkpt>
      <trkpt lat="45.34635792486369609832763671875" lon="-70.97518139518797397613525390625">
        <ele>609</ele>
        <time>2026-08-21T18:41:48.000Z</time>
        <extensions>
          <ns3:TrackPointExtension>
            <ns3:hr>132</ns3:hr>
            <ns3:cad>57</ns3:cad>
          </ns3:TrackPointExtension>
        </extensions>
      </trkpt>
      <trkpt lat="45.34635859541594982147216796875" lon="-70.9752029366791248321533203125">
        <ele>608.79998779296875</ele>
        <time>2026-08-21T18:41:49.000Z</time>
        <extensions>
          <ns3:TrackPointExtension>
            <ns3:hr>132</ns3:hr>
            <ns3:cad>57</ns3:cad>
          </ns3:TrackPointExtension>
        </extensions>
      </trkpt>
      <trkpt lat="45.3463590145111083984375" lon="-70.97522397525608539581298828125">
        <ele>608.79998779296875</ele>
        <time>2026-08-21T18:41:50.000Z</time>
        <extensions>
          <ns3:TrackPointExtension>
            <ns3:hr>132</ns3:hr>
            <ns3:cad>57</ns3:cad>
          </ns3:TrackPointExtension>
        </extensions>
      </trkpt>
      <trkpt lat="45.34636127762496471405029296875" lon="-70.9752431698143482208251953125">
        <ele>608.79998779296875</ele>
        <time>2026-08-21T18:41:51.000Z</time>
        <extensions>
          <ns3:TrackPointExtension>
            <ns3:hr>132</ns3:hr>
            <ns3:cad>57</ns3:cad>
          </ns3:TrackPointExtension>
        </extensions>
      </trkpt>
      <trkpt lat="45.34636362455785274505615234375" lon="-70.9752626158297061920166015625">
        <ele>608.79998779296875</ele>
        <time>2026-08-21T18:41:52.000Z</time>
        <extensions>
          <ns3:TrackPointExtension>
            <ns3:hr>131</ns3:hr>
            <ns3:cad>57</ns3:cad>
          </ns3:TrackPointExtension>
        </extensions>
      </trkpt>
      <trkpt lat="45.34636429511010646820068359375" lon="-70.975278876721858978271484375">
        <ele>609</ele>
        <time>2026-08-21T18:41:53.000Z</time>
        <extensions>
          <ns3:TrackPointExtension>
            <ns3:hr>130</ns3:hr>
            <ns3:cad>57</ns3:cad>
          </ns3:TrackPointExtension>
        </extensions>
      </trkpt>
      <trkpt lat="45.34636379219591617584228515625" lon="-70.97529572434723377227783203125">
        <ele>609</ele>
        <time>2026-08-21T18:41:54.000Z</time>
        <extensions>
          <ns3:TrackPointExtension>
            <ns3:hr>130</ns3:hr>
            <ns3:cad>57</ns3:cad>
          </ns3:TrackPointExtension>
        </extensions>
      </trkpt>
      <trkpt lat="45.3463628701865673065185546875" lon="-70.97531282342970371246337890625">
        <ele>609</ele>
        <time>2026-08-21T18:41:55.000Z</time>
        <extensions>
          <ns3:TrackPointExtension>
            <ns3:hr>130</ns3:hr>
            <ns3:cad>56</ns3:cad>
          </ns3:TrackPointExtension>
        </extensions>
      </trkpt>
      <trkpt lat="45.346361696720123291015625" lon="-70.97532992251217365264892578125">
        <ele>609</ele>
        <time>2026-08-21T18:41:56.000Z</time>
        <extensions>
          <ns3:TrackPointExtension>
            <ns3:hr>129</ns3:hr>
            <ns3:cad>56</ns3:cad>
          </ns3:TrackPointExtension>
        </extensions>
      </trkpt>
      <trkpt lat="45.3463621996343135833740234375" lon="-70.9753481112420558929443359375">
        <ele>609</ele>
        <time>2026-08-21T18:41:57.000Z</time>
        <extensions>
          <ns3:TrackPointExtension>
            <ns3:hr>128</ns3:hr>
            <ns3:cad>55</ns3:cad>
          </ns3:TrackPointExtension>
        </extensions>
      </trkpt>
      <trkpt lat="45.34636245109140872955322265625" lon="-70.97536973655223846435546875">
        <ele>609</ele>
        <time>2026-08-21T18:41:58.000Z</time>
        <extensions>
          <ns3:TrackPointExtension>
            <ns3:hr>128</ns3:hr>
            <ns3:cad>55</ns3:cad>
          </ns3:TrackPointExtension>
        </extensions>
      </trkpt>
      <trkpt lat="45.34636345691978931427001953125" lon="-70.9753886796534061431884765625">
        <ele>609</ele>
        <time>2026-08-21T18:41:59.000Z</time>
        <extensions>
          <ns3:TrackPointExtension>
            <ns3:hr>128</ns3:hr>
            <ns3:cad>55</ns3:cad>
          </ns3:TrackPointExtension>
        </extensions>
      </trkpt>
      <trkpt lat="45.3463638760149478912353515625" lon="-70.97540955059230327606201171875">
        <ele>608.79998779296875</ele>
        <time>2026-08-21T18:42:00.000Z</time>
        <extensions>
          <ns3:TrackPointExtension>
            <ns3:hr>128</ns3:hr>
            <ns3:cad>55</ns3:cad>
          </ns3:TrackPointExtension>
        </extensions>
      </trkpt>
      <trkpt lat="45.34636261872947216033935546875" lon="-70.9754292480647563934326171875">
        <ele>608.79998779296875</ele>
        <time>2026-08-21T18:42:01.000Z</time>
        <extensions>
          <ns3:TrackPointExtension>
            <ns3:hr>128</ns3:hr>
            <ns3:cad>55</ns3:cad>
          </ns3:TrackPointExtension>
        </extensions>
      </trkpt>
      <trkpt lat="45.34636245109140872955322265625" lon="-70.97544659860432147979736328125">
        <ele>608.79998779296875</ele>
        <time>2026-08-21T18:42:02.000Z</time>
        <extensions>
          <ns3:TrackPointExtension>
            <ns3:hr>127</ns3:hr>
            <ns3:cad>56</ns3:cad>
          </ns3:TrackPointExtension>
        </extensions>
      </trkpt>
      <trkpt lat="45.34636312164366245269775390625" lon="-70.9754644520580768585205078125">
        <ele>608.79998779296875</ele>
        <time>2026-08-21T18:42:03.000Z</time>
        <extensions>
          <ns3:TrackPointExtension>
            <ns3:hr>127</ns3:hr>
            <ns3:cad>56</ns3:cad>
          </ns3:TrackPointExtension>
        </extensions>
      </trkpt>
      <trkpt lat="45.34636597149074077606201171875" lon="-70.97548532299697399139404296875">
        <ele>608.79998779296875</ele>
        <time>2026-08-21T18:42:04.000Z</time>
        <extensions>
          <ns3:TrackPointExtension>
            <ns3:hr>126</ns3:hr>
            <ns3:cad>56</ns3:cad>
          </ns3:TrackPointExtension>
        </extensions>
      </trkpt>
      <trkpt lat="45.3463705815374851226806640625" lon="-70.97550527192652225494384765625">
        <ele>608.79998779296875</ele>
        <time>2026-08-21T18:42:05.000Z</time>
        <extensions>
          <ns3:TrackPointExtension>
            <ns3:hr>126</ns3:hr>
            <ns3:cad>56</ns3:cad>
          </ns3:TrackPointExtension>
        </extensions>
      </trkpt>
      <trkpt lat="45.34637301228940486907958984375" lon="-70.97552421502768993377685546875">
        <ele>608.79998779296875</ele>
        <time>2026-08-21T18:42:06.000Z</time>
        <extensions>
          <ns3:TrackPointExtension>
            <ns3:hr>126</ns3:hr>
            <ns3:cad>56</ns3:cad>
          </ns3:TrackPointExtension>
        </extensions>
      </trkpt>
      <trkpt lat="45.34637317992746829986572265625" lon="-70.97553913481533527374267578125">
        <ele>608.79998779296875</ele>
        <time>2026-08-21T18:42:07.000Z</time>
        <extensions>
          <ns3:TrackPointExtension>
            <ns3:hr>126</ns3:hr>
            <ns3:cad>56</ns3:cad>
          </ns3:TrackPointExtension>
        </extensions>
      </trkpt>
      <trkpt lat="45.34637267701327800750732421875" lon="-70.975558497011661529541015625">
        <ele>608.79998779296875</ele>
        <time>2026-08-21T18:42:08.000Z</time>
        <extensions>
          <ns3:TrackPointExtension>
            <ns3:hr>126</ns3:hr>
            <ns3:cad>56</ns3:cad>
          </ns3:TrackPointExtension>
        </extensions>
      </trkpt>
      <trkpt lat="45.34637309610843658447265625" lon="-70.97557567991316318511962890625">
        <ele>608.79998779296875</ele>
        <time>2026-08-21T18:42:09.000Z</time>
        <extensions>
          <ns3:TrackPointExtension>
            <ns3:hr>126</ns3:hr>
            <ns3:cad>56</ns3:cad>
          </ns3:TrackPointExtension>
        </extensions>
      </trkpt>
      <trkpt lat="45.346372425556182861328125" lon="-70.975596047937870025634765625">
        <ele>608.5999755859375</ele>
        <time>2026-08-21T18:42:10.000Z</time>
        <extensions>
          <ns3:TrackPointExtension>
            <ns3:hr>126</ns3:hr>
            <ns3:cad>56</ns3:cad>
          </ns3:TrackPointExtension>
        </extensions>
      </trkpt>
      <trkpt lat="45.34637183882296085357666015625" lon="-70.97561725415289402008056640625">
        <ele>608.5999755859375</ele>
        <time>2026-08-21T18:42:11.000Z</time>
        <extensions>
          <ns3:TrackPointExtension>
            <ns3:hr>126</ns3:hr>
            <ns3:cad>56</ns3:cad>
          </ns3:TrackPointExtension>
        </extensions>
      </trkpt>
      <trkpt lat="45.34637200646102428436279296875" lon="-70.97563670016825199127197265625">
        <ele>608.5999755859375</ele>
        <time>2026-08-21T18:42:12.000Z</time>
        <extensions>
          <ns3:TrackPointExtension>
            <ns3:hr>126</ns3:hr>
            <ns3:cad>55</ns3:cad>
          </ns3:TrackPointExtension>
        </extensions>
      </trkpt>
      <trkpt lat="45.34637150354683399200439453125" lon="-70.9756535477936267852783203125">
        <ele>608.5999755859375</ele>
        <time>2026-08-21T18:42:13.000Z</time>
        <extensions>
          <ns3:TrackPointExtension>
            <ns3:hr>126</ns3:hr>
            <ns3:cad>55</ns3:cad>
          </ns3:TrackPointExtension>
        </extensions>
      </trkpt>
      <trkpt lat="45.34637284465134143829345703125" lon="-70.9756739996373653411865234375">
        <ele>608.5999755859375</ele>
        <time>2026-08-21T18:42:14.000Z</time>
        <extensions>
          <ns3:TrackPointExtension>
            <ns3:hr>126</ns3:hr>
            <ns3:cad>55</ns3:cad>
          </ns3:TrackPointExtension>
        </extensions>
      </trkpt>
      <trkpt lat="45.346372425556182861328125" lon="-70.97569319419562816619873046875">
        <ele>608.5999755859375</ele>
        <time>2026-08-21T18:42:15.000Z</time>
        <extensions>
          <ns3:TrackPointExtension>
            <ns3:hr>126</ns3:hr>
            <ns3:cad>54</ns3:cad>
          </ns3:TrackPointExtension>
        </extensions>
      </trkpt>
      <trkpt lat="45.3463722579181194305419921875" lon="-70.9757145680487155914306640625">
        <ele>608.5999755859375</ele>
        <time>2026-08-21T18:42:16.000Z</time>
        <extensions>
          <ns3:TrackPointExtension>
            <ns3:hr>125</ns3:hr>
            <ns3:cad>54</ns3:cad>
          </ns3:TrackPointExtension>
        </extensions>
      </trkpt>
      <trkpt lat="45.3463752754032611846923828125" lon="-70.97573585808277130126953125">
        <ele>608.5999755859375</ele>
        <time>2026-08-21T18:42:17.000Z</time>
        <extensions>
          <ns3:TrackPointExtension>
            <ns3:hr>124</ns3:hr>
            <ns3:cad>51</ns3:cad>
          </ns3:TrackPointExtension>
        </extensions>
      </trkpt>
      <trkpt lat="45.3463762812316417694091796875" lon="-70.97575672902166843414306640625">
        <ele>608.5999755859375</ele>
        <time>2026-08-21T18:42:18.000Z</time>
        <extensions>
          <ns3:TrackPointExtension>
            <ns3:hr>123</ns3:hr>
            <ns3:cad>51</ns3:cad>
          </ns3:TrackPointExtension>
        </extensions>
      </trkpt>
      <trkpt lat="45.34637720324099063873291015625" lon="-70.97577801905572414398193359375">
        <ele>608.5999755859375</ele>
        <time>2026-08-21T18:42:19.000Z</time>
        <extensions>
          <ns3:TrackPointExtension>
            <ns3:hr>123</ns3:hr>
            <ns3:cad>51</ns3:cad>
          </ns3:TrackPointExtension>
        </extensions>
      </trkpt>
      <trkpt lat="45.34637737087905406951904296875" lon="-70.9757982194423675537109375">
        <ele>608.5999755859375</ele>
        <time>2026-08-21T18:42:20.000Z</time>
        <extensions>
          <ns3:TrackPointExtension>
            <ns3:hr>123</ns3:hr>
            <ns3:cad>53</ns3:cad>
          </ns3:TrackPointExtension>
        </extensions>
      </trkpt>
      <trkpt lat="45.34637770615518093109130859375" lon="-70.97581632435321807861328125">
        <ele>608.5999755859375</ele>
        <time>2026-08-21T18:42:21.000Z</time>
        <extensions>
          <ns3:TrackPointExtension>
            <ns3:hr>122</ns3:hr>
            <ns3:cad>53</ns3:cad>
          </ns3:TrackPointExtension>
        </extensions>
      </trkpt>
      <trkpt lat="45.34637753851711750030517578125" lon="-70.97583434544503688812255859375">
        <ele>608.5999755859375</ele>
        <time>2026-08-21T18:42:22.000Z</time>
        <extensions>
          <ns3:TrackPointExtension>
            <ns3:hr>122</ns3:hr>
            <ns3:cad>55</ns3:cad>
          </ns3:TrackPointExtension>
        </extensions>
      </trkpt>
      <trkpt lat="45.346377789974212646484375" lon="-70.9758540429174900054931640625">
        <ele>608.5999755859375</ele>
        <time>2026-08-21T18:42:23.000Z</time>
        <extensions>
          <ns3:TrackPointExtension>
            <ns3:hr>122</ns3:hr>
            <ns3:cad>56</ns3:cad>
          </ns3:TrackPointExtension>
        </extensions>
      </trkpt>
      <trkpt lat="45.34637938253581523895263671875" lon="-70.97587223164737224578857421875">
        <ele>608.5999755859375</ele>
        <time>2026-08-21T18:42:24.000Z</time>
        <extensions>
          <ns3:TrackPointExtension>
            <ns3:hr>122</ns3:hr>
            <ns3:cad>56</ns3:cad>
          </ns3:TrackPointExtension>
        </extensions>
      </trkpt>
      <trkpt lat="45.34638055600225925445556640625" lon="-70.97589075565338134765625">
        <ele>608.5999755859375</ele>
        <time>2026-08-21T18:42:25.000Z</time>
        <extensions>
          <ns3:TrackPointExtension>
            <ns3:hr>122</ns3:hr>
            <ns3:cad>55</ns3:cad>
          </ns3:TrackPointExtension>
        </extensions>
      </trkpt>
      <trkpt lat="45.34637887962162494659423828125" lon="-70.97590927965939044952392578125">
        <ele>608.5999755859375</ele>
        <time>2026-08-21T18:42:26.000Z</time>
        <extensions>
          <ns3:TrackPointExtension>
            <ns3:hr>122</ns3:hr>
            <ns3:cad>55</ns3:cad>
          </ns3:TrackPointExtension>
        </extensions>
      </trkpt>
      <trkpt lat="45.34637711942195892333984375" lon="-70.9759267978370189666748046875">
        <ele>608.4000244140625</ele>
        <time>2026-08-21T18:42:27.000Z</time>
        <extensions>
          <ns3:TrackPointExtension>
            <ns3:hr>121</ns3:hr>
            <ns3:cad>55</ns3:cad>
          </ns3:TrackPointExtension>
        </extensions>
      </trkpt>
      <trkpt lat="45.34637653268873691558837890625" lon="-70.97594498656690120697021484375">
        <ele>608.4000244140625</ele>
        <time>2026-08-21T18:42:28.000Z</time>
        <extensions>
          <ns3:TrackPointExtension>
            <ns3:hr>121</ns3:hr>
            <ns3:cad>55</ns3:cad>
          </ns3:TrackPointExtension>
        </extensions>
      </trkpt>
      <trkpt lat="45.34637720324099063873291015625" lon="-70.9759616665542125701904296875">
        <ele>608.4000244140625</ele>
        <time>2026-08-21T18:42:29.000Z</time>
        <extensions>
          <ns3:TrackPointExtension>
            <ns3:hr>120</ns3:hr>
            <ns3:cad>55</ns3:cad>
          </ns3:TrackPointExtension>
        </extensions>
      </trkpt>
      <trkpt lat="45.34637787379324436187744140625" lon="-70.9759807772934436798095703125">
        <ele>608.4000244140625</ele>
        <time>2026-08-21T18:42:30.000Z</time>
        <extensions>
          <ns3:TrackPointExtension>
            <ns3:hr>120</ns3:hr>
            <ns3:cad>55</ns3:cad>
          </ns3:TrackPointExtension>
        </extensions>
      </trkpt>
      <trkpt lat="45.346376113593578338623046875" lon="-70.9760012291371822357177734375">
        <ele>608.4000244140625</ele>
        <time>2026-08-21T18:42:31.000Z</time>
        <extensions>
          <ns3:TrackPointExtension>
            <ns3:hr>120</ns3:hr>
            <ns3:cad>55</ns3:cad>
          </ns3:TrackPointExtension>
        </extensions>
      </trkpt>
      <trkpt lat="45.3463737666606903076171875" lon="-70.9760206751525402069091796875">
        <ele>608.20001220703125</ele>
        <time>2026-08-21T18:42:32.000Z</time>
        <extensions>
          <ns3:TrackPointExtension>
            <ns3:hr>121</ns3:hr>
            <ns3:cad>56</ns3:cad>
          </ns3:TrackPointExtension>
        </extensions>
      </trkpt>
      <trkpt lat="45.34637485630810260772705078125" lon="-70.976043306291103363037109375">
        <ele>608.20001220703125</ele>
        <time>2026-08-21T18:42:33.000Z</time>
        <extensions>
          <ns3:TrackPointExtension>
            <ns3:hr>121</ns3:hr>
            <ns3:cad>56</ns3:cad>
          </ns3:TrackPointExtension>
        </extensions>
      </trkpt>
      <trkpt lat="45.3463752754032611846923828125" lon="-70.97606820054352283477783203125">
        <ele>608.20001220703125</ele>
        <time>2026-08-21T18:42:34.000Z</time>
        <extensions>
          <ns3:TrackPointExtension>
            <ns3:hr>120</ns3:hr>
            <ns3:cad>56</ns3:cad>
          </ns3:TrackPointExtension>
        </extensions>
      </trkpt>
      <trkpt lat="45.34637552686035633087158203125" lon="-70.97608982585370540618896484375">
        <ele>608</ele>
        <time>2026-08-21T18:42:35.000Z</time>
        <extensions>
          <ns3:TrackPointExtension>
            <ns3:hr>120</ns3:hr>
            <ns3:cad>56</ns3:cad>
          </ns3:TrackPointExtension>
        </extensions>
      </trkpt>
      <trkpt lat="45.34637485630810260772705078125" lon="-70.97611245699226856231689453125">
        <ele>608</ele>
        <time>2026-08-21T18:42:36.000Z</time>
        <extensions>
          <ns3:TrackPointExtension>
            <ns3:hr>120</ns3:hr>
            <ns3:cad>56</ns3:cad>
          </ns3:TrackPointExtension>
        </extensions>
      </trkpt>
      <trkpt lat="45.346372760832309722900390625" lon="-70.97613106481730937957763671875">
        <ele>608</ele>
        <time>2026-08-21T18:42:37.000Z</time>
        <extensions>
          <ns3:TrackPointExtension>
            <ns3:hr>120</ns3:hr>
            <ns3:cad>57</ns3:cad>
          </ns3:TrackPointExtension>
        </extensions>
      </trkpt>
      <trkpt lat="45.34637083299458026885986328125" lon="-70.97615034319460391998291015625">
        <ele>608</ele>
        <time>2026-08-21T18:42:38.000Z</time>
        <extensions>
          <ns3:TrackPointExtension>
            <ns3:hr>119</ns3:hr>
            <ns3:cad>57</ns3:cad>
          </ns3:TrackPointExtension>
        </extensions>
      </trkpt>
      <trkpt lat="45.3463672287762165069580078125" lon="-70.976172052323818206787109375">
        <ele>608</ele>
        <time>2026-08-21T18:42:39.000Z</time>
        <extensions>
          <ns3:TrackPointExtension>
            <ns3:hr>119</ns3:hr>
            <ns3:cad>57</ns3:cad>
          </ns3:TrackPointExtension>
        </extensions>
      </trkpt>
      <trkpt lat="45.34636597149074077606201171875" lon="-70.976192168891429901123046875">
        <ele>608</ele>
        <time>2026-08-21T18:42:40.000Z</time>
        <extensions>
          <ns3:TrackPointExtension>
            <ns3:hr>119</ns3:hr>
            <ns3:cad>58</ns3:cad>
          </ns3:TrackPointExtension>
        </extensions>
      </trkpt>
      <trkpt lat="45.34636580385267734527587890625" lon="-70.97621153108775615692138671875">
        <ele>608</ele>
        <time>2026-08-21T18:42:41.000Z</time>
        <extensions>
          <ns3:TrackPointExtension>
            <ns3:hr>119</ns3:hr>
            <ns3:cad>58</ns3:cad>
          </ns3:TrackPointExtension>
        </extensions>
      </trkpt>
      <trkpt lat="45.34636580385267734527587890625" lon="-70.97623164765536785125732421875">
        <ele>608</ele>
        <time>2026-08-21T18:42:42.000Z</time>
        <extensions>
          <ns3:TrackPointExtension>
            <ns3:hr>119</ns3:hr>
            <ns3:cad>57</ns3:cad>
          </ns3:TrackPointExtension>
        </extensions>
      </trkpt>
      <trkpt lat="45.3463662229478359222412109375" lon="-70.9762526862323284149169921875">
        <ele>608</ele>
        <time>2026-08-21T18:42:43.000Z</time>
        <extensions>
          <ns3:TrackPointExtension>
            <ns3:hr>119</ns3:hr>
            <ns3:cad>57</ns3:cad>
          </ns3:TrackPointExtension>
        </extensions>
      </trkpt>
      <trkpt lat="45.3463657200336456298828125" lon="-70.97627473063766956329345703125">
        <ele>607.79998779296875</ele>
        <time>2026-08-21T18:42:44.000Z</time>
        <extensions>
          <ns3:TrackPointExtension>
            <ns3:hr>118</ns3:hr>
            <ns3:cad>57</ns3:cad>
          </ns3:TrackPointExtension>
        </extensions>
      </trkpt>
      <trkpt lat="45.34636278636753559112548828125" lon="-70.97629618830978870391845703125">
        <ele>607.79998779296875</ele>
        <time>2026-08-21T18:42:45.000Z</time>
        <extensions>
          <ns3:TrackPointExtension>
            <ns3:hr>118</ns3:hr>
            <ns3:cad>58</ns3:cad>
          </ns3:TrackPointExtension>
        </extensions>
      </trkpt>
      <trkpt lat="45.34635993652045726776123046875" lon="-70.9763190709054470062255859375">
        <ele>607.79998779296875</ele>
        <time>2026-08-21T18:42:46.000Z</time>
        <extensions>
          <ns3:TrackPointExtension>
            <ns3:hr>117</ns3:hr>
            <ns3:cad>58</ns3:cad>
          </ns3:TrackPointExtension>
        </extensions>
      </trkpt>
      <trkpt lat="45.34635691903531551361083984375" lon="-70.97634178586304187774658203125">
        <ele>607.5999755859375</ele>
        <time>2026-08-21T18:42:47.000Z</time>
        <extensions>
          <ns3:TrackPointExtension>
            <ns3:hr>116</ns3:hr>
            <ns3:cad>59</ns3:cad>
          </ns3:TrackPointExtension>
        </extensions>
      </trkpt>
      <trkpt lat="45.34635373391211032867431640625" lon="-70.9763656742870807647705078125">
        <ele>607.5999755859375</ele>
        <time>2026-08-21T18:42:48.000Z</time>
        <extensions>
          <ns3:TrackPointExtension>
            <ns3:hr>116</ns3:hr>
            <ns3:cad>59</ns3:cad>
          </ns3:TrackPointExtension>
        </extensions>
      </trkpt>
      <trkpt lat="45.3463504649698734283447265625" lon="-70.97638704814016819000244140625">
        <ele>607.5999755859375</ele>
        <time>2026-08-21T18:42:49.000Z</time>
        <extensions>
          <ns3:TrackPointExtension>
            <ns3:hr>116</ns3:hr>
            <ns3:cad>59</ns3:cad>
          </ns3:TrackPointExtension>
        </extensions>
      </trkpt>
      <trkpt lat="45.34634870477020740509033203125" lon="-70.976408421993255615234375">
        <ele>607.5999755859375</ele>
        <time>2026-08-21T18:42:50.000Z</time>
        <extensions>
          <ns3:TrackPointExtension>
            <ns3:hr>118</ns3:hr>
            <ns3:cad>59</ns3:cad>
          </ns3:TrackPointExtension>
        </extensions>
      </trkpt>
      <trkpt lat="45.34634652547538280487060546875" lon="-70.97643013112246990203857421875">
        <ele>607.5999755859375</ele>
        <time>2026-08-21T18:42:51.000Z</time>
        <extensions>
          <ns3:TrackPointExtension>
            <ns3:hr>119</ns3:hr>
            <ns3:cad>59</ns3:cad>
          </ns3:TrackPointExtension>
        </extensions>
      </trkpt>
      <trkpt lat="45.3463444299995899200439453125" lon="-70.976451337337493896484375">
        <ele>607.5999755859375</ele>
        <time>2026-08-21T18:42:52.000Z</time>
        <extensions>
          <ns3:TrackPointExtension>
            <ns3:hr>119</ns3:hr>
            <ns3:cad>59</ns3:cad>
          </ns3:TrackPointExtension>
        </extensions>
      </trkpt>
      <trkpt lat="45.34634216688573360443115234375" lon="-70.9764714539051055908203125">
        <ele>607.5999755859375</ele>
        <time>2026-08-21T18:42:53.000Z</time>
        <extensions>
          <ns3:TrackPointExtension>
            <ns3:hr>119</ns3:hr>
            <ns3:cad>59</ns3:cad>
          </ns3:TrackPointExtension>
        </extensions>
      </trkpt>
      <trkpt lat="45.346339903771877288818359375" lon="-70.97649215720593929290771484375">
        <ele>607.5999755859375</ele>
        <time>2026-08-21T18:42:54.000Z</time>
        <extensions>
          <ns3:TrackPointExtension>
            <ns3:hr>120</ns3:hr>
            <ns3:cad>59</ns3:cad>
          </ns3:TrackPointExtension>
        </extensions>
      </trkpt>
      <trkpt lat="45.34633713774383068084716796875" lon="-70.9765138663351535797119140625">
        <ele>607.5999755859375</ele>
        <time>2026-08-21T18:42:55.000Z</time>
        <extensions>
          <ns3:TrackPointExtension>
            <ns3:hr>120</ns3:hr>
            <ns3:cad>58</ns3:cad>
          </ns3:TrackPointExtension>
        </extensions>
      </trkpt>
      <trkpt lat="45.34633412025868892669677734375" lon="-70.97653758712112903594970703125">
        <ele>607.5999755859375</ele>
        <time>2026-08-21T18:42:56.000Z</time>
        <extensions>
          <ns3:TrackPointExtension>
            <ns3:hr>121</ns3:hr>
            <ns3:cad>58</ns3:cad>
          </ns3:TrackPointExtension>
        </extensions>
      </trkpt>
      <trkpt lat="45.34632992930710315704345703125" lon="-70.97655837424099445343017578125">
        <ele>607.5999755859375</ele>
        <time>2026-08-21T18:42:57.000Z</time>
        <extensions>
          <ns3:TrackPointExtension>
            <ns3:hr>121</ns3:hr>
            <ns3:cad>58</ns3:cad>
          </ns3:TrackPointExtension>
        </extensions>
      </trkpt>
      <trkpt lat="45.346326492726802825927734375" lon="-70.97657966427505016326904296875">
        <ele>607.5999755859375</ele>
        <time>2026-08-21T18:42:58.000Z</time>
        <extensions>
          <ns3:TrackPointExtension>
            <ns3:hr>121</ns3:hr>
            <ns3:cad>58</ns3:cad>
          </ns3:TrackPointExtension>
        </extensions>
      </trkpt>
      <trkpt lat="45.34632322378456592559814453125" lon="-70.97660011611878871917724609375">
        <ele>607.5999755859375</ele>
        <time>2026-08-21T18:42:59.000Z</time>
        <extensions>
          <ns3:TrackPointExtension>
            <ns3:hr>121</ns3:hr>
            <ns3:cad>58</ns3:cad>
          </ns3:TrackPointExtension>
        </extensions>
      </trkpt>
      <trkpt lat="45.3463196195662021636962890625" lon="-70.9766188077628612518310546875">
        <ele>607.5999755859375</ele>
        <time>2026-08-21T18:43:00.000Z</time>
        <extensions>
          <ns3:TrackPointExtension>
            <ns3:hr>120</ns3:hr>
            <ns3:cad>59</ns3:cad>
          </ns3:TrackPointExtension>
        </extensions>
      </trkpt>
      <trkpt lat="45.34631584770977497100830078125" lon="-70.97663842141628265380859375">
        <ele>607.5999755859375</ele>
        <time>2026-08-21T18:43:01.000Z</time>
        <extensions>
          <ns3:TrackPointExtension>
            <ns3:hr>119</ns3:hr>
            <ns3:cad>59</ns3:cad>
          </ns3:TrackPointExtension>
        </extensions>
      </trkpt>
      <trkpt lat="45.3463132493197917938232421875" lon="-70.97665577195584774017333984375">
        <ele>607.5999755859375</ele>
        <time>2026-08-21T18:43:02.000Z</time>
        <extensions>
          <ns3:TrackPointExtension>
            <ns3:hr>118</ns3:hr>
            <ns3:cad>57</ns3:cad>
          </ns3:TrackPointExtension>
        </extensions>
      </trkpt>
      <trkpt lat="45.34630998037755489349365234375" lon="-70.9766741283237934112548828125">
        <ele>607.5999755859375</ele>
        <time>2026-08-21T18:43:03.000Z</time>
        <extensions>
          <ns3:TrackPointExtension>
            <ns3:hr>118</ns3:hr>
            <ns3:cad>57</ns3:cad>
          </ns3:TrackPointExtension>
        </extensions>
      </trkpt>
      <trkpt lat="45.3463055379688739776611328125" lon="-70.97669164650142192840576171875">
        <ele>607.79998779296875</ele>
        <time>2026-08-21T18:43:04.000Z</time>
        <extensions>
          <ns3:TrackPointExtension>
            <ns3:hr>117</ns3:hr>
            <ns3:cad>56</ns3:cad>
          </ns3:TrackPointExtension>
        </extensions>
      </trkpt>
      <trkpt lat="45.3463021852076053619384765625" lon="-70.976711846888065338134765625">
        <ele>607.79998779296875</ele>
        <time>2026-08-21T18:43:05.000Z</time>
        <extensions>
          <ns3:TrackPointExtension>
            <ns3:hr>117</ns3:hr>
            <ns3:cad>55</ns3:cad>
          </ns3:TrackPointExtension>
        </extensions>
      </trkpt>
      <trkpt lat="45.34629740752279758453369140625" lon="-70.97673095762729644775390625">
        <ele>607.79998779296875</ele>
        <time>2026-08-21T18:43:06.000Z</time>
        <extensions>
          <ns3:TrackPointExtension>
            <ns3:hr>117</ns3:hr>
            <ns3:cad>55</ns3:cad>
          </ns3:TrackPointExtension>
        </extensions>
      </trkpt>
      <trkpt lat="45.346293635666370391845703125" lon="-70.9767529182136058807373046875">
        <ele>607.5999755859375</ele>
        <time>2026-08-21T18:43:07.000Z</time>
        <extensions>
          <ns3:TrackPointExtension>
            <ns3:hr>117</ns3:hr>
            <ns3:cad>55</ns3:cad>
          </ns3:TrackPointExtension>
        </extensions>
      </trkpt>
      <trkpt lat="45.346288271248340606689453125" lon="-70.976774208247661590576171875">
        <ele>607.5999755859375</ele>
        <time>2026-08-21T18:43:08.000Z</time>
        <extensions>
          <ns3:TrackPointExtension>
            <ns3:hr>117</ns3:hr>
            <ns3:cad>55</ns3:cad>
          </ns3:TrackPointExtension>
        </extensions>
      </trkpt>
      <trkpt lat="45.34628458321094512939453125" lon="-70.97679323516786098480224609375">
        <ele>607.5999755859375</ele>
        <time>2026-08-21T18:43:09.000Z</time>
        <extensions>
          <ns3:TrackPointExtension>
            <ns3:hr>117</ns3:hr>
            <ns3:cad>56</ns3:cad>
          </ns3:TrackPointExtension>
        </extensions>
      </trkpt>
      <trkpt lat="45.346280224621295928955078125" lon="-70.97681050188839435577392578125">
        <ele>607.5999755859375</ele>
        <time>2026-08-21T18:43:10.000Z</time>
        <extensions>
          <ns3:TrackPointExtension>
            <ns3:hr>117</ns3:hr>
            <ns3:cad>56</ns3:cad>
          </ns3:TrackPointExtension>
        </extensions>
      </trkpt>
      <trkpt lat="45.3462763689458370208740234375" lon="-70.9768283553421497344970703125">
        <ele>607.5999755859375</ele>
        <time>2026-08-21T18:43:11.000Z</time>
        <extensions>
          <ns3:TrackPointExtension>
            <ns3:hr>116</ns3:hr>
            <ns3:cad>56</ns3:cad>
          </ns3:TrackPointExtension>
        </extensions>
      </trkpt>
      <trkpt lat="45.3462726809084415435791015625" lon="-70.97685157321393489837646484375">
        <ele>607.5999755859375</ele>
        <time>2026-08-21T18:43:12.000Z</time>
        <extensions>
          <ns3:TrackPointExtension>
            <ns3:hr>116</ns3:hr>
            <ns3:cad>57</ns3:cad>
          </ns3:TrackPointExtension>
        </extensions>
      </trkpt>
      <trkpt lat="45.34626756794750690460205078125" lon="-70.97687537781894207000732421875">
        <ele>607.5999755859375</ele>
        <time>2026-08-21T18:43:13.000Z</time>
        <extensions>
          <ns3:TrackPointExtension>
            <ns3:hr>116</ns3:hr>
            <ns3:cad>57</ns3:cad>
          </ns3:TrackPointExtension>
        </extensions>
      </trkpt>
      <trkpt lat="45.34626320935785770416259765625" lon="-70.97689817659556865692138671875">
        <ele>607.5999755859375</ele>
        <time>2026-08-21T18:43:14.000Z</time>
        <extensions>
          <ns3:TrackPointExtension>
            <ns3:hr>116</ns3:hr>
            <ns3:cad>57</ns3:cad>
          </ns3:TrackPointExtension>
        </extensions>
      </trkpt>
      <trkpt lat="45.3462582640349864959716796875" lon="-70.97691963426768779754638671875">
        <ele>607.4000244140625</ele>
        <time>2026-08-21T18:43:15.000Z</time>
        <extensions>
          <ns3:TrackPointExtension>
            <ns3:hr>116</ns3:hr>
            <ns3:cad>57</ns3:cad>
          </ns3:TrackPointExtension>
        </extensions>
      </trkpt>
      <trkpt lat="45.3462549112737178802490234375" lon="-70.9769386611878871917724609375">
        <ele>607.4000244140625</ele>
        <time>2026-08-21T18:43:16.000Z</time>
        <extensions>
          <ns3:TrackPointExtension>
            <ns3:hr>116</ns3:hr>
            <ns3:cad>57</ns3:cad>
          </ns3:TrackPointExtension>
        </extensions>
      </trkpt>
      <trkpt lat="45.3462498821318149566650390625" lon="-70.9769574366509914398193359375">
        <ele>607.4000244140625</ele>
        <time>2026-08-21T18:43:17.000Z</time>
        <extensions>
          <ns3:TrackPointExtension>
            <ns3:hr>116</ns3:hr>
            <ns3:cad>57</ns3:cad>
          </ns3:TrackPointExtension>
        </extensions>
      </trkpt>
      <trkpt lat="45.3462438471615314483642578125" lon="-70.9769795648753643035888671875">
        <ele>607.4000244140625</ele>
        <time>2026-08-21T18:43:18.000Z</time>
        <extensions>
          <ns3:TrackPointExtension>
            <ns3:hr>116</ns3:hr>
            <ns3:cad>57</ns3:cad>
          </ns3:TrackPointExtension>
        </extensions>
      </trkpt>
      <trkpt lat="45.34623940475285053253173828125" lon="-70.97700186073780059814453125">
        <ele>607.4000244140625</ele>
        <time>2026-08-21T18:43:19.000Z</time>
        <extensions>
          <ns3:TrackPointExtension>
            <ns3:hr>116</ns3:hr>
            <ns3:cad>57</ns3:cad>
          </ns3:TrackPointExtension>
        </extensions>
      </trkpt>
      <trkpt lat="45.34623521380126476287841796875" lon="-70.977022312581539154052734375">
        <ele>607.4000244140625</ele>
        <time>2026-08-21T18:43:20.000Z</time>
        <extensions>
          <ns3:TrackPointExtension>
            <ns3:hr>116</ns3:hr>
            <ns3:cad>57</ns3:cad>
          </ns3:TrackPointExtension>
        </extensions>
      </trkpt>
      <trkpt lat="45.3462287597358226776123046875" lon="-70.97704083658754825592041015625">
        <ele>607.4000244140625</ele>
        <time>2026-08-21T18:43:21.000Z</time>
        <extensions>
          <ns3:TrackPointExtension>
            <ns3:hr>116</ns3:hr>
            <ns3:cad>57</ns3:cad>
          </ns3:TrackPointExtension>
        </extensions>
      </trkpt>
      <trkpt lat="45.34622364677488803863525390625" lon="-70.977062880992889404296875">
        <ele>607.4000244140625</ele>
        <time>2026-08-21T18:43:22.000Z</time>
        <extensions>
          <ns3:TrackPointExtension>
            <ns3:hr>116</ns3:hr>
            <ns3:cad>58</ns3:cad>
          </ns3:TrackPointExtension>
        </extensions>
      </trkpt>
      <trkpt lat="45.34622029401361942291259765625" lon="-70.9770851768553256988525390625">
        <ele>607.5999755859375</ele>
        <time>2026-08-21T18:43:23.000Z</time>
        <extensions>
          <ns3:TrackPointExtension>
            <ns3:hr>116</ns3:hr>
            <ns3:cad>58</ns3:cad>
          </ns3:TrackPointExtension>
        </extensions>
      </trkpt>
      <trkpt lat="45.34621727652847766876220703125" lon="-70.97710722126066684722900390625">
        <ele>607.5999755859375</ele>
        <time>2026-08-21T18:43:24.000Z</time>
        <extensions>
          <ns3:TrackPointExtension>
            <ns3:hr>117</ns3:hr>
            <ns3:cad>57</ns3:cad>
          </ns3:TrackPointExtension>
        </extensions>
      </trkpt>
      <trkpt lat="45.34621476195752620697021484375" lon="-70.97712918184697628021240234375">
        <ele>607.5999755859375</ele>
        <time>2026-08-21T18:43:25.000Z</time>
        <extensions>
          <ns3:TrackPointExtension>
            <ns3:hr>117</ns3:hr>
            <ns3:cad>57</ns3:cad>
          </ns3:TrackPointExtension>
        </extensions>
      </trkpt>
      <trkpt lat="45.346209816634654998779296875" lon="-70.977148711681365966796875">
        <ele>607.4000244140625</ele>
        <time>2026-08-21T18:43:26.000Z</time>
        <extensions>
          <ns3:TrackPointExtension>
            <ns3:hr>118</ns3:hr>
            <ns3:cad>57</ns3:cad>
          </ns3:TrackPointExtension>
        </extensions>
      </trkpt>
      <trkpt lat="45.3462073020637035369873046875" lon="-70.97717109136283397674560546875">
        <ele>607.4000244140625</ele>
        <time>2026-08-21T18:43:27.000Z</time>
        <extensions>
          <ns3:TrackPointExtension>
            <ns3:hr>119</ns3:hr>
            <ns3:cad>58</ns3:cad>
          </ns3:TrackPointExtension>
        </extensions>
      </trkpt>
      <trkpt lat="45.3462032787501811981201171875" lon="-70.977195315062999725341796875">
        <ele>607.4000244140625</ele>
        <time>2026-08-21T18:43:28.000Z</time>
        <extensions>
          <ns3:TrackPointExtension>
            <ns3:hr>119</ns3:hr>
            <ns3:cad>58</ns3:cad>
          </ns3:TrackPointExtension>
        </extensions>
      </trkpt>
      <trkpt lat="45.3461994230747222900390625" lon="-70.977217443287372589111328125">
        <ele>607.4000244140625</ele>
        <time>2026-08-21T18:43:29.000Z</time>
        <extensions>
          <ns3:TrackPointExtension>
            <ns3:hr>120</ns3:hr>
            <ns3:cad>58</ns3:cad>
          </ns3:TrackPointExtension>
        </extensions>
      </trkpt>
      <trkpt lat="45.34619472920894622802734375" lon="-70.9772387333214282989501953125">
        <ele>607.4000244140625</ele>
        <time>2026-08-21T18:43:30.000Z</time>
        <extensions>
          <ns3:TrackPointExtension>
            <ns3:hr>120</ns3:hr>
            <ns3:cad>58</ns3:cad>
          </ns3:TrackPointExtension>
        </extensions>
      </trkpt>
      <trkpt lat="45.3461928851902484893798828125" lon="-70.9772588498890399932861328125">
        <ele>607.4000244140625</ele>
        <time>2026-08-21T18:43:31.000Z</time>
        <extensions>
          <ns3:TrackPointExtension>
            <ns3:hr>121</ns3:hr>
            <ns3:cad>58</ns3:cad>
          </ns3:TrackPointExtension>
        </extensions>
      </trkpt>
      <trkpt lat="45.34619296900928020477294921875" lon="-70.97728173248469829559326171875">
        <ele>607.4000244140625</ele>
        <time>2026-08-21T18:43:32.000Z</time>
        <extensions>
          <ns3:TrackPointExtension>
            <ns3:hr>122</ns3:hr>
            <ns3:cad>58</ns3:cad>
          </ns3:TrackPointExtension>
        </extensions>
      </trkpt>
      <trkpt lat="45.34619078971445560455322265625" lon="-70.9773021005094051361083984375">
        <ele>607.4000244140625</ele>
        <time>2026-08-21T18:43:33.000Z</time>
        <extensions>
          <ns3:TrackPointExtension>
            <ns3:hr>122</ns3:hr>
            <ns3:cad>58</ns3:cad>
          </ns3:TrackPointExtension>
        </extensions>
      </trkpt>
      <trkpt lat="45.3461871854960918426513671875" lon="-70.97732380963861942291259765625">
        <ele>607.4000244140625</ele>
        <time>2026-08-21T18:43:34.000Z</time>
        <extensions>
          <ns3:TrackPointExtension>
            <ns3:hr>122</ns3:hr>
            <ns3:cad>59</ns3:cad>
          </ns3:TrackPointExtension>
        </extensions>
      </trkpt>
      <trkpt lat="45.3461848385632038116455078125" lon="-70.9773440100252628326416015625">
        <ele>607.4000244140625</ele>
        <time>2026-08-21T18:43:35.000Z</time>
        <extensions>
          <ns3:TrackPointExtension>
            <ns3:hr>124</ns3:hr>
            <ns3:cad>59</ns3:cad>
          </ns3:TrackPointExtension>
        </extensions>
      </trkpt>
      <trkpt lat="45.346182323992252349853515625" lon="-70.9773647971451282501220703125">
        <ele>607.4000244140625</ele>
        <time>2026-08-21T18:43:36.000Z</time>
        <extensions>
          <ns3:TrackPointExtension>
            <ns3:hr>125</ns3:hr>
            <ns3:cad>59</ns3:cad>
          </ns3:TrackPointExtension>
        </extensions>
      </trkpt>
      <trkpt lat="45.34617888741195201873779296875" lon="-70.9773842431604862213134765625">
        <ele>607.4000244140625</ele>
        <time>2026-08-21T18:43:37.000Z</time>
        <extensions>
          <ns3:TrackPointExtension>
            <ns3:hr>125</ns3:hr>
            <ns3:cad>58</ns3:cad>
          </ns3:TrackPointExtension>
        </extensions>
      </trkpt>
      <trkpt lat="45.34617586992681026458740234375" lon="-70.977405197918415069580078125">
        <ele>607.4000244140625</ele>
        <time>2026-08-21T18:43:38.000Z</time>
        <extensions>
          <ns3:TrackPointExtension>
            <ns3:hr>127</ns3:hr>
            <ns3:cad>58</ns3:cad>
          </ns3:TrackPointExtension>
        </extensions>
      </trkpt>
      <trkpt lat="45.34616966731846332550048828125" lon="-70.9774244762957096099853515625">
        <ele>607.5999755859375</ele>
        <time>2026-08-21T18:43:39.000Z</time>
        <extensions>
          <ns3:TrackPointExtension>
            <ns3:hr>127</ns3:hr>
            <ns3:cad>57</ns3:cad>
          </ns3:TrackPointExtension>
        </extensions>
      </trkpt>
      <trkpt lat="45.3461657278239727020263671875" lon="-70.977442748844623565673828125">
        <ele>607.5999755859375</ele>
        <time>2026-08-21T18:43:40.000Z</time>
        <extensions>
          <ns3:TrackPointExtension>
            <ns3:hr>129</ns3:hr>
            <ns3:cad>57</ns3:cad>
          </ns3:TrackPointExtension>
        </extensions>
      </trkpt>
      <trkpt lat="45.34615877084434032440185546875" lon="-70.97746043466031551361083984375">
        <ele>607.5999755859375</ele>
        <time>2026-08-21T18:43:41.000Z</time>
        <extensions>
          <ns3:TrackPointExtension>
            <ns3:hr>128</ns3:hr>
            <ns3:cad>57</ns3:cad>
          </ns3:TrackPointExtension>
        </extensions>
      </trkpt>
      <trkpt lat="45.34615323878824710845947265625" lon="-70.9774799644947052001953125">
        <ele>607.5999755859375</ele>
        <time>2026-08-21T18:43:42.000Z</time>
        <extensions>
          <ns3:TrackPointExtension>
            <ns3:hr>128</ns3:hr>
            <ns3:cad>57</ns3:cad>
          </ns3:TrackPointExtension>
        </extensions>
      </trkpt>
      <trkpt lat="45.346147119998931884765625" lon="-70.97749630920588970184326171875">
        <ele>607.79998779296875</ele>
        <time>2026-08-21T18:43:43.000Z</time>
        <extensions>
          <ns3:TrackPointExtension>
            <ns3:hr>128</ns3:hr>
            <ns3:cad>57</ns3:cad>
          </ns3:TrackPointExtension>
        </extensions>
      </trkpt>
      <trkpt lat="45.3461432643234729766845703125" lon="-70.977513827383518218994140625">
        <ele>607.79998779296875</ele>
        <time>2026-08-21T18:43:44.000Z</time>
        <extensions>
          <ns3:TrackPointExtension>
            <ns3:hr>129</ns3:hr>
            <ns3:cad>57</ns3:cad>
          </ns3:TrackPointExtension>
        </extensions>
      </trkpt>
      <trkpt lat="45.34613194875419139862060546875" lon="-70.9775364585220813751220703125">
        <ele>607.79998779296875</ele>
        <time>2026-08-21T18:43:45.000Z</time>
        <extensions>
          <ns3:TrackPointExtension>
            <ns3:hr>129</ns3:hr>
            <ns3:cad>57</ns3:cad>
          </ns3:TrackPointExtension>
        </extensions>
      </trkpt>
      <trkpt lat="45.34612222574651241302490234375" lon="-70.97755699418485164642333984375">
        <ele>607.79998779296875</ele>
        <time>2026-08-21T18:43:46.000Z</time>
        <extensions>
          <ns3:TrackPointExtension>
            <ns3:hr>129</ns3:hr>
            <ns3:cad>57</ns3:cad>
          </ns3:TrackPointExtension>
        </extensions>
      </trkpt>
      <trkpt lat="45.346113257110118865966796875" lon="-70.9775753505527973175048828125">
        <ele>607.79998779296875</ele>
        <time>2026-08-21T18:43:47.000Z</time>
        <extensions>
          <ns3:TrackPointExtension>
            <ns3:hr>129</ns3:hr>
            <ns3:cad>57</ns3:cad>
          </ns3:TrackPointExtension>
        </extensions>
      </trkpt>
      <trkpt lat="45.34610831178724765777587890625" lon="-70.97759739495813846588134765625">
        <ele>607.79998779296875</ele>
        <time>2026-08-21T18:43:48.000Z</time>
        <extensions>
          <ns3:TrackPointExtension>
            <ns3:hr>129</ns3:hr>
            <ns3:cad>57</ns3:cad>
          </ns3:TrackPointExtension>
        </extensions>
      </trkpt>
      <trkpt lat="45.3461053781211376190185546875" lon="-70.977617092430591583251953125">
        <ele>607.79998779296875</ele>
        <time>2026-08-21T18:43:49.000Z</time>
        <extensions>
          <ns3:TrackPointExtension>
            <ns3:hr>129</ns3:hr>
            <ns3:cad>57</ns3:cad>
          </ns3:TrackPointExtension>
        </extensions>
      </trkpt>
      <trkpt lat="45.34609942696988582611083984375" lon="-70.97763360477983951568603515625">
        <ele>608</ele>
        <time>2026-08-21T18:43:50.000Z</time>
        <extensions>
          <ns3:TrackPointExtension>
            <ns3:hr>128</ns3:hr>
            <ns3:cad>57</ns3:cad>
          </ns3:TrackPointExtension>
        </extensions>
      </trkpt>
      <trkpt lat="45.34609288908541202545166015625" lon="-70.97765472717583179473876953125">
        <ele>608</ele>
        <time>2026-08-21T18:43:51.000Z</time>
        <extensions>
          <ns3:TrackPointExtension>
            <ns3:hr>127</ns3:hr>
            <ns3:cad>57</ns3:cad>
          </ns3:TrackPointExtension>
        </extensions>
      </trkpt>
      <trkpt lat="45.34608718939125537872314453125" lon="-70.97767719067633152008056640625">
        <ele>608</ele>
        <time>2026-08-21T18:43:52.000Z</time>
        <extensions>
          <ns3:TrackPointExtension>
            <ns3:hr>127</ns3:hr>
            <ns3:cad>57</ns3:cad>
          </ns3:TrackPointExtension>
        </extensions>
      </trkpt>
      <trkpt lat="45.34608484245836734771728515625" lon="-70.97769831307232379913330078125">
        <ele>608</ele>
        <time>2026-08-21T18:43:53.000Z</time>
        <extensions>
          <ns3:TrackPointExtension>
            <ns3:hr>121</ns3:hr>
            <ns3:cad>57</ns3:cad>
          </ns3:TrackPointExtension>
        </extensions>
      </trkpt>
      <trkpt lat="45.346082746982574462890625" lon="-70.9777213633060455322265625">
        <ele>608.20001220703125</ele>
        <time>2026-08-21T18:43:54.000Z</time>
        <extensions>
          <ns3:TrackPointExtension>
            <ns3:hr>121</ns3:hr>
            <ns3:cad>57</ns3:cad>
          </ns3:TrackPointExtension>
        </extensions>
      </trkpt>
      <trkpt lat="45.34607796929776668548583984375" lon="-70.97774525173008441925048828125">
        <ele>608.20001220703125</ele>
        <time>2026-08-21T18:43:55.000Z</time>
        <extensions>
          <ns3:TrackPointExtension>
            <ns3:hr>120</ns3:hr>
            <ns3:cad>57</ns3:cad>
          </ns3:TrackPointExtension>
        </extensions>
      </trkpt>
      <trkpt lat="45.3460760414600372314453125" lon="-70.97777106799185276031494140625">
        <ele>608.20001220703125</ele>
        <time>2026-08-21T18:43:56.000Z</time>
        <extensions>
          <ns3:TrackPointExtension>
            <ns3:hr>119</ns3:hr>
            <ns3:cad>57</ns3:cad>
          </ns3:TrackPointExtension>
        </extensions>
      </trkpt>
      <trkpt lat="45.34607696346938610076904296875" lon="-70.97779579460620880126953125">
        <ele>608.4000244140625</ele>
        <time>2026-08-21T18:43:57.000Z</time>
        <extensions>
          <ns3:TrackPointExtension>
            <ns3:hr>119</ns3:hr>
            <ns3:cad>57</ns3:cad>
          </ns3:TrackPointExtension>
        </extensions>
      </trkpt>
      <trkpt lat="45.3460748679935932159423828125" lon="-70.97782202996313571929931640625">
        <ele>608.4000244140625</ele>
        <time>2026-08-21T18:43:58.000Z</time>
        <extensions>
          <ns3:TrackPointExtension>
            <ns3:hr>118</ns3:hr>
            <ns3:cad>57</ns3:cad>
          </ns3:TrackPointExtension>
        </extensions>
      </trkpt>
      <trkpt lat="45.34607193432748317718505859375" lon="-70.9778465889394283294677734375">
        <ele>608.4000244140625</ele>
        <time>2026-08-21T18:43:59.000Z</time>
        <extensions>
          <ns3:TrackPointExtension>
            <ns3:hr>118</ns3:hr>
            <ns3:cad>58</ns3:cad>
          </ns3:TrackPointExtension>
        </extensions>
      </trkpt>
      <trkpt lat="45.34607243724167346954345703125" lon="-70.97787089645862579345703125">
        <ele>608.5999755859375</ele>
        <time>2026-08-21T18:44:00.000Z</time>
        <extensions>
          <ns3:TrackPointExtension>
            <ns3:hr>118</ns3:hr>
            <ns3:cad>58</ns3:cad>
          </ns3:TrackPointExtension>
        </extensions>
      </trkpt>
      <trkpt lat="45.34607470035552978515625" lon="-70.97789595834910869598388671875">
        <ele>608.5999755859375</ele>
        <time>2026-08-21T18:44:01.000Z</time>
        <extensions>
          <ns3:TrackPointExtension>
            <ns3:hr>118</ns3:hr>
            <ns3:cad>58</ns3:cad>
          </ns3:TrackPointExtension>
        </extensions>
      </trkpt>
      <trkpt lat="45.34607344307005405426025390625" lon="-70.977928228676319122314453125">
        <ele>608.5999755859375</ele>
        <time>2026-08-21T18:44:02.000Z</time>
        <extensions>
          <ns3:TrackPointExtension>
            <ns3:hr>118</ns3:hr>
            <ns3:cad>57</ns3:cad>
          </ns3:TrackPointExtension>
        </extensions>
      </trkpt>
      <trkpt lat="45.3460745327174663543701171875" lon="-70.9779548831284046173095703125">
        <ele>608.5999755859375</ele>
        <time>2026-08-21T18:44:03.000Z</time>
        <extensions>
          <ns3:TrackPointExtension>
            <ns3:hr>118</ns3:hr>
            <ns3:cad>57</ns3:cad>
          </ns3:TrackPointExtension>
        </extensions>
      </trkpt>
      <trkpt lat="45.346081070601940155029296875" lon="-70.97798329778015613555908203125">
        <ele>608.5999755859375</ele>
        <time>2026-08-21T18:44:04.000Z</time>
        <extensions>
          <ns3:TrackPointExtension>
            <ns3:hr>118</ns3:hr>
            <ns3:cad>58</ns3:cad>
          </ns3:TrackPointExtension>
        </extensions>
      </trkpt>
      <trkpt lat="45.3460886143147945404052734375" lon="-70.97801045514643192291259765625">
        <ele>608.5999755859375</ele>
        <time>2026-08-21T18:44:05.000Z</time>
        <extensions>
          <ns3:TrackPointExtension>
            <ns3:hr>117</ns3:hr>
            <ns3:cad>59</ns3:cad>
          </ns3:TrackPointExtension>
        </extensions>
      </trkpt>
      <trkpt lat="45.34609523601830005645751953125" lon="-70.97803392447531223297119140625">
        <ele>608.5999755859375</ele>
        <time>2026-08-21T18:44:06.000Z</time>
        <extensions>
          <ns3:TrackPointExtension>
            <ns3:hr>117</ns3:hr>
            <ns3:cad>59</ns3:cad>
          </ns3:TrackPointExtension>
        </extensions>
      </trkpt>
      <trkpt lat="45.34610294736921787261962890625" lon="-70.97805638797581195831298828125">
        <ele>608.79998779296875</ele>
        <time>2026-08-21T18:44:07.000Z</time>
        <extensions>
          <ns3:TrackPointExtension>
            <ns3:hr>117</ns3:hr>
            <ns3:cad>58</ns3:cad>
          </ns3:TrackPointExtension>
        </extensions>
      </trkpt>
      <trkpt lat="45.3461120836436748504638671875" lon="-70.97807742655277252197265625">
        <ele>608.79998779296875</ele>
        <time>2026-08-21T18:44:08.000Z</time>
        <extensions>
          <ns3:TrackPointExtension>
            <ns3:hr>117</ns3:hr>
            <ns3:cad>58</ns3:cad>
          </ns3:TrackPointExtension>
        </extensions>
      </trkpt>
      <trkpt lat="45.34612339921295642852783203125" lon="-70.9780930168926715850830078125">
        <ele>608.79998779296875</ele>
        <time>2026-08-21T18:44:09.000Z</time>
        <extensions>
          <ns3:TrackPointExtension>
            <ns3:hr>117</ns3:hr>
            <ns3:cad>58</ns3:cad>
          </ns3:TrackPointExtension>
        </extensions>
      </trkpt>
      <trkpt lat="45.34613261930644512176513671875" lon="-70.9781091101467609405517578125">
        <ele>608.79998779296875</ele>
        <time>2026-08-21T18:44:10.000Z</time>
        <extensions>
          <ns3:TrackPointExtension>
            <ns3:hr>117</ns3:hr>
            <ns3:cad>57</ns3:cad>
          </ns3:TrackPointExtension>
        </extensions>
      </trkpt>
      <trkpt lat="45.3461439348757266998291015625" lon="-70.9781205095350742340087890625">
        <ele>608.79998779296875</ele>
        <time>2026-08-21T18:44:11.000Z</time>
        <extensions>
          <ns3:TrackPointExtension>
            <ns3:hr>117</ns3:hr>
            <ns3:cad>57</ns3:cad>
          </ns3:TrackPointExtension>
        </extensions>
      </trkpt>
      <trkpt lat="45.34615726210176944732666015625" lon="-70.97813366912305355072021484375">
        <ele>608.79998779296875</ele>
        <time>2026-08-21T18:44:12.000Z</time>
        <extensions>
          <ns3:TrackPointExtension>
            <ns3:hr>117</ns3:hr>
            <ns3:cad>57</ns3:cad>
          </ns3:TrackPointExtension>
        </extensions>
      </trkpt>
      <trkpt lat="45.34616799093782901763916015625" lon="-70.9781476669013500213623046875">
        <ele>608.79998779296875</ele>
        <time>2026-08-21T18:44:13.000Z</time>
        <extensions>
          <ns3:TrackPointExtension>
            <ns3:hr>118</ns3:hr>
            <ns3:cad>57</ns3:cad>
          </ns3:TrackPointExtension>
        </extensions>
      </trkpt>
      <trkpt lat="45.34617503173649311065673828125" lon="-70.978163592517375946044921875">
        <ele>608.79998779296875</ele>
        <time>2026-08-21T18:44:14.000Z</time>
        <extensions>
          <ns3:TrackPointExtension>
            <ns3:hr>118</ns3:hr>
            <ns3:cad>57</ns3:cad>
          </ns3:TrackPointExtension>
        </extensions>
      </trkpt>
      <trkpt lat="45.3461838327348232269287109375" lon="-70.9781811945140361785888671875">
        <ele>609</ele>
        <time>2026-08-21T18:44:15.000Z</time>
        <extensions>
          <ns3:TrackPointExtension>
            <ns3:hr>118</ns3:hr>
            <ns3:cad>57</ns3:cad>
          </ns3:TrackPointExtension>
        </extensions>
      </trkpt>
      <trkpt lat="45.3461913764476776123046875" lon="-70.97819854505360126495361328125">
        <ele>609</ele>
        <time>2026-08-21T18:44:16.000Z</time>
        <extensions>
          <ns3:TrackPointExtension>
            <ns3:hr>118</ns3:hr>
            <ns3:cad>57</ns3:cad>
          </ns3:TrackPointExtension>
        </extensions>
      </trkpt>
      <trkpt lat="45.34620084799826145172119140625" lon="-70.97821698524057865142822265625">
        <ele>609.20001220703125</ele>
        <time>2026-08-21T18:44:17.000Z</time>
        <extensions>
          <ns3:TrackPointExtension>
            <ns3:hr>118</ns3:hr>
            <ns3:cad>58</ns3:cad>
          </ns3:TrackPointExtension>
        </extensions>
      </trkpt>
      <trkpt lat="45.3462088108062744140625" lon="-70.97823307849466800689697265625">
        <ele>609.20001220703125</ele>
        <time>2026-08-21T18:44:18.000Z</time>
        <extensions>
          <ns3:TrackPointExtension>
            <ns3:hr>118</ns3:hr>
            <ns3:cad>58</ns3:cad>
          </ns3:TrackPointExtension>
        </extensions>
      </trkpt>
      <trkpt lat="45.34621610306203365325927734375" lon="-70.978249423205852508544921875">
        <ele>609.4000244140625</ele>
        <time>2026-08-21T18:44:19.000Z</time>
        <extensions>
          <ns3:TrackPointExtension>
            <ns3:hr>118</ns3:hr>
            <ns3:cad>58</ns3:cad>
          </ns3:TrackPointExtension>
        </extensions>
      </trkpt>
      <trkpt lat="45.3462217189371585845947265625" lon="-70.9782693721354007720947265625">
        <ele>609.4000244140625</ele>
        <time>2026-08-21T18:44:20.000Z</time>
        <extensions>
          <ns3:TrackPointExtension>
            <ns3:hr>118</ns3:hr>
            <ns3:cad>56</ns3:cad>
          </ns3:TrackPointExtension>
        </extensions>
      </trkpt>
      <trkpt lat="45.34622414968907833099365234375" lon="-70.97828890196979045867919921875">
        <ele>609.4000244140625</ele>
        <time>2026-08-21T18:44:21.000Z</time>
        <extensions>
          <ns3:TrackPointExtension>
            <ns3:hr>119</ns3:hr>
            <ns3:cad>56</ns3:cad>
          </ns3:TrackPointExtension>
        </extensions>
      </trkpt>
      <trkpt lat="45.34622482024133205413818359375" lon="-70.9783062525093555450439453125">
        <ele>609.5999755859375</ele>
        <time>2026-08-21T18:44:22.000Z</time>
        <extensions>
          <ns3:TrackPointExtension>
            <ns3:hr>119</ns3:hr>
            <ns3:cad>56</ns3:cad>
          </ns3:TrackPointExtension>
        </extensions>
      </trkpt>
      <trkpt lat="45.34622113220393657684326171875" lon="-70.978338606655597686767578125">
        <ele>609.5999755859375</ele>
        <time>2026-08-21T18:44:23.000Z</time>
        <extensions>
          <ns3:TrackPointExtension>
            <ns3:hr>119</ns3:hr>
            <ns3:cad>56</ns3:cad>
          </ns3:TrackPointExtension>
        </extensions>
      </trkpt>
      <trkpt lat="45.34622213803231716156005859375" lon="-70.9783605672419071197509765625">
        <ele>609.79998779296875</ele>
        <time>2026-08-21T18:44:24.000Z</time>
        <extensions>
          <ns3:TrackPointExtension>
            <ns3:hr>119</ns3:hr>
            <ns3:cad>57</ns3:cad>
          </ns3:TrackPointExtension>
        </extensions>
      </trkpt>
      <trkpt lat="45.34622129984200000762939453125" lon="-70.9783865511417388916015625">
        <ele>609.79998779296875</ele>
        <time>2026-08-21T18:44:25.000Z</time>
        <extensions>
          <ns3:TrackPointExtension>
            <ns3:hr>119</ns3:hr>
            <ns3:cad>57</ns3:cad>
          </ns3:TrackPointExtension>
        </extensions>
      </trkpt>
      <trkpt lat="45.34621677361428737640380859375" lon="-70.9784212522208690643310546875">
        <ele>610</ele>
        <time>2026-08-21T18:44:26.000Z</time>
        <extensions>
          <ns3:TrackPointExtension>
            <ns3:hr>119</ns3:hr>
            <ns3:cad>57</ns3:cad>
          </ns3:TrackPointExtension>
        </extensions>
      </trkpt>
      <trkpt lat="45.3462166897952556610107421875" lon="-70.97845033742487430572509765625">
        <ele>610</ele>
        <time>2026-08-21T18:44:27.000Z</time>
        <extensions>
          <ns3:TrackPointExtension>
            <ns3:hr>119</ns3:hr>
            <ns3:cad>57</ns3:cad>
          </ns3:TrackPointExtension>
        </extensions>
      </trkpt>
      <trkpt lat="45.346215181052684783935546875" lon="-70.9784765727818012237548828125">
        <ele>610.20001220703125</ele>
        <time>2026-08-21T18:44:28.000Z</time>
        <extensions>
          <ns3:TrackPointExtension>
            <ns3:hr>119</ns3:hr>
            <ns3:cad>57</ns3:cad>
          </ns3:TrackPointExtension>
        </extensions>
      </trkpt>
      <trkpt lat="45.34620855934917926788330078125" lon="-70.97851303406059741973876953125">
        <ele>610.4000244140625</ele>
        <time>2026-08-21T18:44:29.000Z</time>
        <extensions>
          <ns3:TrackPointExtension>
            <ns3:hr>120</ns3:hr>
            <ns3:cad>83</ns3:cad>
          </ns3:TrackPointExtension>
        </extensions>
      </trkpt>
      <trkpt lat="45.34620520658791065216064453125" lon="-70.97855041734874248504638671875">
        <ele>610.4000244140625</ele>
        <time>2026-08-21T18:44:30.000Z</time>
        <extensions>
          <ns3:TrackPointExtension>
            <ns3:hr>120</ns3:hr>
            <ns3:cad>83</ns3:cad>
          </ns3:TrackPointExtension>
        </extensions>
      </trkpt>
      <trkpt lat="45.34620319493114948272705078125" lon="-70.97858243621885776519775390625">
        <ele>610.5999755859375</ele>
        <time>2026-08-21T18:44:31.000Z</time>
        <extensions>
          <ns3:TrackPointExtension>
            <ns3:hr>120</ns3:hr>
            <ns3:cad>83</ns3:cad>
          </ns3:TrackPointExtension>
        </extensions>
      </trkpt>
      <trkpt lat="45.34620202146470546722412109375" lon="-70.9786214120686054229736328125">
        <ele>610.79998779296875</ele>
        <time>2026-08-21T18:44:32.000Z</time>
        <extensions>
          <ns3:TrackPointExtension>
            <ns3:hr>121</ns3:hr>
            <ns3:cad>83</ns3:cad>
          </ns3:TrackPointExtension>
        </extensions>
      </trkpt>
      <trkpt lat="45.34620084799826145172119140625" lon="-70.97866089083254337310791015625">
        <ele>610.79998779296875</ele>
        <time>2026-08-21T18:44:33.000Z</time>
        <extensions>
          <ns3:TrackPointExtension>
            <ns3:hr>121</ns3:hr>
            <ns3:cad>83</ns3:cad>
          </ns3:TrackPointExtension>
        </extensions>
      </trkpt>
      <trkpt lat="45.3461994230747222900390625" lon="-70.9786950051784515380859375">
        <ele>610.79998779296875</ele>
        <time>2026-08-21T18:44:34.000Z</time>
        <extensions>
          <ns3:TrackPointExtension>
            <ns3:hr>121</ns3:hr>
            <ns3:cad>82</ns3:cad>
          </ns3:TrackPointExtension>
        </extensions>
      </trkpt>
      <trkpt lat="45.346196405589580535888671875" lon="-70.97873113118112087249755859375">
        <ele>610.79998779296875</ele>
        <time>2026-08-21T18:44:35.000Z</time>
        <extensions>
          <ns3:TrackPointExtension>
            <ns3:hr>121</ns3:hr>
            <ns3:cad>83</ns3:cad>
          </ns3:TrackPointExtension>
        </extensions>
      </trkpt>
      <trkpt lat="45.346194393932819366455078125" lon="-70.9787716157734394073486328125">
        <ele>610.79998779296875</ele>
        <time>2026-08-21T18:44:36.000Z</time>
        <extensions>
          <ns3:TrackPointExtension>
            <ns3:hr>121</ns3:hr>
            <ns3:cad>83</ns3:cad>
          </ns3:TrackPointExtension>
        </extensions>
      </trkpt>
      <trkpt lat="45.34619078971445560455322265625" lon="-70.9788041375577449798583984375">
        <ele>610.79998779296875</ele>
        <time>2026-08-21T18:44:37.000Z</time>
        <extensions>
          <ns3:TrackPointExtension>
            <ns3:hr>121</ns3:hr>
            <ns3:cad>82</ns3:cad>
          </ns3:TrackPointExtension>
        </extensions>
      </trkpt>
      <trkpt lat="45.34618928097188472747802734375" lon="-70.978837497532367706298828125">
        <ele>610.79998779296875</ele>
        <time>2026-08-21T18:44:38.000Z</time>
        <extensions>
          <ns3:TrackPointExtension>
            <ns3:hr>123</ns3:hr>
            <ns3:cad>82</ns3:cad>
          </ns3:TrackPointExtension>
        </extensions>
      </trkpt>
      <trkpt lat="45.34618777222931385040283203125" lon="-70.978877060115337371826171875">
        <ele>611</ele>
        <time>2026-08-21T18:44:39.000Z</time>
        <extensions>
          <ns3:TrackPointExtension>
            <ns3:hr>123</ns3:hr>
            <ns3:cad>82</ns3:cad>
          </ns3:TrackPointExtension>
        </extensions>
      </trkpt>
      <trkpt lat="45.346186347305774688720703125" lon="-70.97891033627092838287353515625">
        <ele>611</ele>
        <time>2026-08-21T18:44:40.000Z</time>
        <extensions>
          <ns3:TrackPointExtension>
            <ns3:hr>124</ns3:hr>
            <ns3:cad>82</ns3:cad>
          </ns3:TrackPointExtension>
        </extensions>
      </trkpt>
      <trkpt lat="45.34618458710610866546630859375" lon="-70.97894554026424884796142578125">
        <ele>610.79998779296875</ele>
        <time>2026-08-21T18:44:41.000Z</time>
        <extensions>
          <ns3:TrackPointExtension>
            <ns3:hr>130</ns3:hr>
            <ns3:cad>82</ns3:cad>
          </ns3:TrackPointExtension>
        </extensions>
      </trkpt>
      <trkpt lat="45.346187017858028411865234375" lon="-70.9789855219423770904541015625">
        <ele>610.79998779296875</ele>
        <time>2026-08-21T18:44:42.000Z</time>
        <extensions>
          <ns3:TrackPointExtension>
            <ns3:hr>130</ns3:hr>
            <ns3:cad>82</ns3:cad>
          </ns3:TrackPointExtension>
        </extensions>
      </trkpt>
      <trkpt lat="45.3461902029812335968017578125" lon="-70.97902248613536357879638671875">
        <ele>610.79998779296875</ele>
        <time>2026-08-21T18:44:43.000Z</time>
        <extensions>
          <ns3:TrackPointExtension>
            <ns3:hr>132</ns3:hr>
            <ns3:cad>82</ns3:cad>
          </ns3:TrackPointExtension>
        </extensions>
      </trkpt>
      <trkpt lat="45.3461886942386627197265625" lon="-70.97905567847192287445068359375">
        <ele>610.5999755859375</ele>
        <time>2026-08-21T18:44:44.000Z</time>
        <extensions>
          <ns3:TrackPointExtension>
            <ns3:hr>132</ns3:hr>
            <ns3:cad>83</ns3:cad>
          </ns3:TrackPointExtension>
        </extensions>
      </trkpt>
      <trkpt lat="45.34619204699993133544921875" lon="-70.9790924750268459320068359375">
        <ele>610.79998779296875</ele>
        <time>2026-08-21T18:44:45.000Z</time>
        <extensions>
          <ns3:TrackPointExtension>
            <ns3:hr>132</ns3:hr>
            <ns3:cad>84</ns3:cad>
          </ns3:TrackPointExtension>
        </extensions>
      </trkpt>
      <trkpt lat="45.346199087798595428466796875" lon="-70.9791293554008007049560546875">
        <ele>610.79998779296875</ele>
        <time>2026-08-21T18:44:46.000Z</time>
        <extensions>
          <ns3:TrackPointExtension>
            <ns3:hr>133</ns3:hr>
            <ns3:cad>84</ns3:cad>
          </ns3:TrackPointExtension>
        </extensions>
      </trkpt>
      <trkpt lat="45.3462036140263080596923828125" lon="-70.9791615419089794158935546875">
        <ele>610.79998779296875</ele>
        <time>2026-08-21T18:44:47.000Z</time>
        <extensions>
          <ns3:TrackPointExtension>
            <ns3:hr>132</ns3:hr>
            <ns3:cad>84</ns3:cad>
          </ns3:TrackPointExtension>
        </extensions>
      </trkpt>
      <trkpt lat="45.34621241502463817596435546875" lon="-70.979198925197124481201171875">
        <ele>610.79998779296875</ele>
        <time>2026-08-21T18:44:48.000Z</time>
        <extensions>
          <ns3:TrackPointExtension>
            <ns3:hr>132</ns3:hr>
            <ns3:cad>84</ns3:cad>
          </ns3:TrackPointExtension>
        </extensions>
      </trkpt>
      <trkpt lat="45.3462227247655391693115234375" lon="-70.97923479974269866943359375">
        <ele>610.79998779296875</ele>
        <time>2026-08-21T18:44:49.000Z</time>
        <extensions>
          <ns3:TrackPointExtension>
            <ns3:hr>133</ns3:hr>
            <ns3:cad>83</ns3:cad>
          </ns3:TrackPointExtension>
        </extensions>
      </trkpt>
      <trkpt lat="45.34622825682163238525390625" lon="-70.9792681597173213958740234375">
        <ele>610.79998779296875</ele>
        <time>2026-08-21T18:44:50.000Z</time>
        <extensions>
          <ns3:TrackPointExtension>
            <ns3:hr>134</ns3:hr>
            <ns3:cad>83</ns3:cad>
          </ns3:TrackPointExtension>
        </extensions>
      </trkpt>
      <trkpt lat="45.34623689018189907073974609375" lon="-70.979298166930675506591796875">
        <ele>610.79998779296875</ele>
        <time>2026-08-21T18:44:51.000Z</time>
        <extensions>
          <ns3:TrackPointExtension>
            <ns3:hr>134</ns3:hr>
            <ns3:cad>83</ns3:cad>
          </ns3:TrackPointExtension>
        </extensions>
      </trkpt>
      <trkpt lat="45.34624896012246608734130859375" lon="-70.97933412529528141021728515625">
        <ele>610.5999755859375</ele>
        <time>2026-08-21T18:44:52.000Z</time>
        <extensions>
          <ns3:TrackPointExtension>
            <ns3:hr>134</ns3:hr>
            <ns3:cad>82</ns3:cad>
          </ns3:TrackPointExtension>
        </extensions>
      </trkpt>
      <trkpt lat="45.3462599404156208038330078125" lon="-70.97936622798442840576171875">
        <ele>610.5999755859375</ele>
        <time>2026-08-21T18:44:53.000Z</time>
        <extensions>
          <ns3:TrackPointExtension>
            <ns3:hr>134</ns3:hr>
            <ns3:cad>82</ns3:cad>
          </ns3:TrackPointExtension>
        </extensions>
      </trkpt>
      <trkpt lat="45.34626890905201435089111328125" lon="-70.979396402835845947265625">
        <ele>610.4000244140625</ele>
        <time>2026-08-21T18:44:54.000Z</time>
        <extensions>
          <ns3:TrackPointExtension>
            <ns3:hr>134</ns3:hr>
            <ns3:cad>82</ns3:cad>
          </ns3:TrackPointExtension>
        </extensions>
      </trkpt>
      <trkpt lat="45.34628097899258136749267578125" lon="-70.97942582331597805023193359375">
        <ele>610.4000244140625</ele>
        <time>2026-08-21T18:44:55.000Z</time>
        <extensions>
          <ns3:TrackPointExtension>
            <ns3:hr>134</ns3:hr>
            <ns3:cad>82</ns3:cad>
          </ns3:TrackPointExtension>
        </extensions>
      </trkpt>
      <trkpt lat="45.346292294561862945556640625" lon="-70.979453064501285552978515625">
        <ele>610.4000244140625</ele>
        <time>2026-08-21T18:44:56.000Z</time>
        <extensions>
          <ns3:TrackPointExtension>
            <ns3:hr>134</ns3:hr>
            <ns3:cad>82</ns3:cad>
          </ns3:TrackPointExtension>
        </extensions>
      </trkpt>
      <trkpt lat="45.34630377776920795440673828125" lon="-70.979479216039180755615234375">
        <ele>610.20001220703125</ele>
        <time>2026-08-21T18:44:57.000Z</time>
        <extensions>
          <ns3:TrackPointExtension>
            <ns3:hr>134</ns3:hr>
            <ns3:cad>81</ns3:cad>
          </ns3:TrackPointExtension>
        </extensions>
      </trkpt>
      <trkpt lat="45.34631945192813873291015625" lon="-70.97950126044452190399169921875">
        <ele>610.20001220703125</ele>
        <time>2026-08-21T18:44:58.000Z</time>
        <extensions>
          <ns3:TrackPointExtension>
            <ns3:hr>134</ns3:hr>
            <ns3:cad>81</ns3:cad>
          </ns3:TrackPointExtension>
        </extensions>
      </trkpt>
      <trkpt lat="45.3463323600590229034423828125" lon="-70.97951835952699184417724609375">
        <ele>610.20001220703125</ele>
        <time>2026-08-21T18:44:59.000Z</time>
        <extensions>
          <ns3:TrackPointExtension>
            <ns3:hr>135</ns3:hr>
            <ns3:cad>81</ns3:cad>
          </ns3:TrackPointExtension>
        </extensions>
      </trkpt>
      <trkpt lat="45.34634090960025787353515625" lon="-70.97953763790428638458251953125">
        <ele>610</ele>
        <time>2026-08-21T18:45:00.000Z</time>
        <extensions>
          <ns3:TrackPointExtension>
            <ns3:hr>135</ns3:hr>
            <ns3:cad>81</ns3:cad>
          </ns3:TrackPointExtension>
        </extensions>
      </trkpt>
      <trkpt lat="45.34635105170309543609619140625" lon="-70.97955523990094661712646484375">
        <ele>610</ele>
        <time>2026-08-21T18:45:01.000Z</time>
        <extensions>
          <ns3:TrackPointExtension>
            <ns3:hr>135</ns3:hr>
            <ns3:cad>81</ns3:cad>
          </ns3:TrackPointExtension>
        </extensions>
      </trkpt>
      <trkpt lat="45.34636211581528186798095703125" lon="-70.9795702435076236724853515625">
        <ele>610</ele>
        <time>2026-08-21T18:45:02.000Z</time>
        <extensions>
          <ns3:TrackPointExtension>
            <ns3:hr>135</ns3:hr>
            <ns3:cad>81</ns3:cad>
          </ns3:TrackPointExtension>
        </extensions>
      </trkpt>
      <trkpt lat="45.346375443041324615478515625" lon="-70.9795870073139667510986328125">
        <ele>610</ele>
        <time>2026-08-21T18:45:03.000Z</time>
        <extensions>
          <ns3:TrackPointExtension>
            <ns3:hr>135</ns3:hr>
            <ns3:cad>81</ns3:cad>
          </ns3:TrackPointExtension>
        </extensions>
      </trkpt>
      <trkpt lat="45.34639614634215831756591796875" lon="-70.97960226237773895263671875">
        <ele>610</ele>
        <time>2026-08-21T18:45:04.000Z</time>
        <extensions>
          <ns3:TrackPointExtension>
            <ns3:hr>135</ns3:hr>
            <ns3:cad>0</ns3:cad>
          </ns3:TrackPointExtension>
        </extensions>
      </trkpt>
      <trkpt lat="45.346406958997249603271484375" lon="-70.979610979557037353515625">
        <ele>610</ele>
        <time>2026-08-21T18:45:05.000Z</time>
        <extensions>
          <ns3:TrackPointExtension>
            <ns3:hr>135</ns3:hr>
            <ns3:cad>0</ns3:cad>
          </ns3:TrackPointExtension>
        </extensions>
      </trkpt>
      <trkpt lat="45.3464145027101039886474609375" lon="-70.9796238876879215240478515625">
        <ele>610</ele>
        <time>2026-08-21T18:45:06.000Z</time>
        <extensions>
          <ns3:TrackPointExtension>
            <ns3:hr>136</ns3:hr>
            <ns3:cad>0</ns3:cad>
          </ns3:TrackPointExtension>
        </extensions>
      </trkpt>
      <trkpt lat="45.34642347134649753570556640625" lon="-70.9796416573226451873779296875">
        <ele>609.79998779296875</ele>
        <time>2026-08-21T18:45:07.000Z</time>
        <extensions>
          <ns3:TrackPointExtension>
            <ns3:hr>136</ns3:hr>
            <ns3:cad>57</ns3:cad>
          </ns3:TrackPointExtension>
        </extensions>
      </trkpt>
      <trkpt lat="45.3464362956583499908447265625" lon="-70.97965666092932224273681640625">
        <ele>609.79998779296875</ele>
        <time>2026-08-21T18:45:08.000Z</time>
        <extensions>
          <ns3:TrackPointExtension>
            <ns3:hr>135</ns3:hr>
            <ns3:cad>57</ns3:cad>
          </ns3:TrackPointExtension>
        </extensions>
      </trkpt>
      <trkpt lat="45.34644610248506069183349609375" lon="-70.97966973669826984405517578125">
        <ele>609.5999755859375</ele>
        <time>2026-08-21T18:45:09.000Z</time>
        <extensions>
          <ns3:TrackPointExtension>
            <ns3:hr>135</ns3:hr>
            <ns3:cad>57</ns3:cad>
          </ns3:TrackPointExtension>
        </extensions>
      </trkpt>
      <trkpt lat="45.34645624458789825439453125" lon="-70.9796872548758983612060546875">
        <ele>609.5999755859375</ele>
        <time>2026-08-21T18:45:10.000Z</time>
        <extensions>
          <ns3:TrackPointExtension>
            <ns3:hr>135</ns3:hr>
            <ns3:cad>57</ns3:cad>
          </ns3:TrackPointExtension>
        </extensions>
      </trkpt>
      <trkpt lat="45.3464604355394840240478515625" lon="-70.97970577888190746307373046875">
        <ele>609.4000244140625</ele>
        <time>2026-08-21T18:45:11.000Z</time>
        <extensions>
          <ns3:TrackPointExtension>
            <ns3:hr>136</ns3:hr>
            <ns3:cad>59</ns3:cad>
          </ns3:TrackPointExtension>
        </extensions>
      </trkpt>
      <trkpt lat="45.34646118991076946258544921875" lon="-70.97972271032631397247314453125">
        <ele>609.4000244140625</ele>
        <time>2026-08-21T18:45:12.000Z</time>
        <extensions>
          <ns3:TrackPointExtension>
            <ns3:hr>136</ns3:hr>
            <ns3:cad>59</ns3:cad>
          </ns3:TrackPointExtension>
        </extensions>
      </trkpt>
      <trkpt lat="45.346462614834308624267578125" lon="-70.97974282689392566680908203125">
        <ele>609.4000244140625</ele>
        <time>2026-08-21T18:45:13.000Z</time>
        <extensions>
          <ns3:TrackPointExtension>
            <ns3:hr>135</ns3:hr>
            <ns3:cad>59</ns3:cad>
          </ns3:TrackPointExtension>
        </extensions>
      </trkpt>
      <trkpt lat="45.34646504558622837066650390625" lon="-70.9797625243663787841796875">
        <ele>609.4000244140625</ele>
        <time>2026-08-21T18:45:14.000Z</time>
        <extensions>
          <ns3:TrackPointExtension>
            <ns3:hr>135</ns3:hr>
            <ns3:cad>59</ns3:cad>
          </ns3:TrackPointExtension>
        </extensions>
      </trkpt>
      <trkpt lat="45.3464647941291332244873046875" lon="-70.97978306002914905548095703125">
        <ele>609.5999755859375</ele>
        <time>2026-08-21T18:45:15.000Z</time>
        <extensions>
          <ns3:TrackPointExtension>
            <ns3:hr>135</ns3:hr>
            <ns3:cad>58</ns3:cad>
          </ns3:TrackPointExtension>
        </extensions>
      </trkpt>
      <trkpt lat="45.34645917825400829315185546875" lon="-70.97979647107422351837158203125">
        <ele>609.5999755859375</ele>
        <time>2026-08-21T18:45:16.000Z</time>
        <extensions>
          <ns3:TrackPointExtension>
            <ns3:hr>135</ns3:hr>
            <ns3:cad>58</ns3:cad>
          </ns3:TrackPointExtension>
        </extensions>
      </trkpt>
      <trkpt lat="45.346454568207263946533203125" lon="-70.97981357015669345855712890625">
        <ele>609.5999755859375</ele>
        <time>2026-08-21T18:45:17.000Z</time>
        <extensions>
          <ns3:TrackPointExtension>
            <ns3:hr>134</ns3:hr>
            <ns3:cad>58</ns3:cad>
          </ns3:TrackPointExtension>
        </extensions>
      </trkpt>
      <trkpt lat="45.3464450128376483917236328125" lon="-70.9798290766775608062744140625">
        <ele>609.5999755859375</ele>
        <time>2026-08-21T18:45:18.000Z</time>
        <extensions>
          <ns3:TrackPointExtension>
            <ns3:hr>132</ns3:hr>
            <ns3:cad>58</ns3:cad>
          </ns3:TrackPointExtension>
        </extensions>
      </trkpt>
      <trkpt lat="45.346434116363525390625" lon="-70.9798411466181278228759765625">
        <ele>609.79998779296875</ele>
        <time>2026-08-21T18:45:19.000Z</time>
        <extensions>
          <ns3:TrackPointExtension>
            <ns3:hr>132</ns3:hr>
            <ns3:cad>58</ns3:cad>
          </ns3:TrackPointExtension>
        </extensions>
      </trkpt>
      <trkpt lat="45.3464225493371486663818359375" lon="-70.97985246218740940093994140625">
        <ele>609.79998779296875</ele>
        <time>2026-08-21T18:45:20.000Z</time>
        <extensions>
          <ns3:TrackPointExtension>
            <ns3:hr>128</ns3:hr>
            <ns3:cad>58</ns3:cad>
          </ns3:TrackPointExtension>
        </extensions>
      </trkpt>
      <trkpt lat="45.34641073085367679595947265625" lon="-70.97986537031829357147216796875">
        <ele>609.79998779296875</ele>
        <time>2026-08-21T18:45:21.000Z</time>
        <extensions>
          <ns3:TrackPointExtension>
            <ns3:hr>127</ns3:hr>
            <ns3:cad>58</ns3:cad>
          </ns3:TrackPointExtension>
        </extensions>
      </trkpt>
      <trkpt lat="45.346401594579219818115234375" lon="-70.979878194630146026611328125">
        <ele>610</ele>
        <time>2026-08-21T18:45:22.000Z</time>
        <extensions>
          <ns3:TrackPointExtension>
            <ns3:hr>127</ns3:hr>
            <ns3:cad>57</ns3:cad>
          </ns3:TrackPointExtension>
        </extensions>
      </trkpt>
      <trkpt lat="45.34639094956219196319580078125" lon="-70.97988925874233245849609375">
        <ele>610</ele>
        <time>2026-08-21T18:45:23.000Z</time>
        <extensions>
          <ns3:TrackPointExtension>
            <ns3:hr>128</ns3:hr>
            <ns3:cad>57</ns3:cad>
          </ns3:TrackPointExtension>
        </extensions>
      </trkpt>
      <trkpt lat="45.346378795802593231201171875" lon="-70.9798966348171234130859375">
        <ele>610.20001220703125</ele>
        <time>2026-08-21T18:45:24.000Z</time>
        <extensions>
          <ns3:TrackPointExtension>
            <ns3:hr>128</ns3:hr>
            <ns3:cad>57</ns3:cad>
          </ns3:TrackPointExtension>
        </extensions>
      </trkpt>
      <trkpt lat="45.34636395983397960662841796875" lon="-70.97991482354700565338134765625">
        <ele>610.4000244140625</ele>
        <time>2026-08-21T18:45:25.000Z</time>
        <extensions>
          <ns3:TrackPointExtension>
            <ns3:hr>129</ns3:hr>
            <ns3:cad>57</ns3:cad>
          </ns3:TrackPointExtension>
        </extensions>
      </trkpt>
      <trkpt lat="45.34635490737855434417724609375" lon="-70.97992949187755584716796875">
        <ele>610.4000244140625</ele>
        <time>2026-08-21T18:45:26.000Z</time>
        <extensions>
          <ns3:TrackPointExtension>
            <ns3:hr>129</ns3:hr>
            <ns3:cad>57</ns3:cad>
          </ns3:TrackPointExtension>
        </extensions>
      </trkpt>
      <trkpt lat="45.34634183160960674285888671875" lon="-70.97993946634232997894287109375">
        <ele>610.4000244140625</ele>
        <time>2026-08-21T18:45:27.000Z</time>
        <extensions>
          <ns3:TrackPointExtension>
            <ns3:hr>129</ns3:hr>
            <ns3:cad>57</ns3:cad>
          </ns3:TrackPointExtension>
        </extensions>
      </trkpt>
      <trkpt lat="45.346329510211944580078125" lon="-70.97994935698807239532470703125">
        <ele>610.5999755859375</ele>
        <time>2026-08-21T18:45:28.000Z</time>
        <extensions>
          <ns3:TrackPointExtension>
            <ns3:hr>128</ns3:hr>
            <ns3:cad>57</ns3:cad>
          </ns3:TrackPointExtension>
        </extensions>
      </trkpt>
      <trkpt lat="45.346314422786235809326171875" lon="-70.979961343109607696533203125">
        <ele>610.5999755859375</ele>
        <time>2026-08-21T18:45:29.000Z</time>
        <extensions>
          <ns3:TrackPointExtension>
            <ns3:hr>128</ns3:hr>
            <ns3:cad>57</ns3:cad>
          </ns3:TrackPointExtension>
        </extensions>
      </trkpt>
      <trkpt lat="45.34630059264600276947021484375" lon="-70.97997332923114299774169921875">
        <ele>610.5999755859375</ele>
        <time>2026-08-21T18:45:30.000Z</time>
        <extensions>
          <ns3:TrackPointExtension>
            <ns3:hr>128</ns3:hr>
            <ns3:cad>58</ns3:cad>
          </ns3:TrackPointExtension>
        </extensions>
      </trkpt>
      <trkpt lat="45.34628701396286487579345703125" lon="-70.9799869917333126068115234375">
        <ele>610.5999755859375</ele>
        <time>2026-08-21T18:45:31.000Z</time>
        <extensions>
          <ns3:TrackPointExtension>
            <ns3:hr>128</ns3:hr>
            <ns3:cad>58</ns3:cad>
          </ns3:TrackPointExtension>
        </extensions>
      </trkpt>
      <trkpt lat="45.34627142362296581268310546875" lon="-70.98000484518706798553466796875">
        <ele>610.5999755859375</ele>
        <time>2026-08-21T18:45:32.000Z</time>
        <extensions>
          <ns3:TrackPointExtension>
            <ns3:hr>128</ns3:hr>
            <ns3:cad>58</ns3:cad>
          </ns3:TrackPointExtension>
        </extensions>
      </trkpt>
      <trkpt lat="45.34625700674951076507568359375" lon="-70.98002177663147449493408203125">
        <ele>610.5999755859375</ele>
        <time>2026-08-21T18:45:33.000Z</time>
        <extensions>
          <ns3:TrackPointExtension>
            <ns3:hr>128</ns3:hr>
            <ns3:cad>58</ns3:cad>
          </ns3:TrackPointExtension>
        </extensions>
      </trkpt>
      <trkpt lat="45.3462396562099456787109375" lon="-70.980043821036815643310546875">
        <ele>610.5999755859375</ele>
        <time>2026-08-21T18:45:34.000Z</time>
        <extensions>
          <ns3:TrackPointExtension>
            <ns3:hr>128</ns3:hr>
            <ns3:cad>58</ns3:cad>
          </ns3:TrackPointExtension>
        </extensions>
      </trkpt>
      <trkpt lat="45.34622297622263431549072265625" lon="-70.98006385378539562225341796875">
        <ele>610.79998779296875</ele>
        <time>2026-08-21T18:45:35.000Z</time>
        <extensions>
          <ns3:TrackPointExtension>
            <ns3:hr>128</ns3:hr>
            <ns3:cad>58</ns3:cad>
          </ns3:TrackPointExtension>
        </extensions>
      </trkpt>
      <trkpt lat="45.346207134425640106201171875" lon="-70.9800832159817218780517578125">
        <ele>610.79998779296875</ele>
        <time>2026-08-21T18:45:36.000Z</time>
        <extensions>
          <ns3:TrackPointExtension>
            <ns3:hr>128</ns3:hr>
            <ns3:cad>79</ns3:cad>
          </ns3:TrackPointExtension>
        </extensions>
      </trkpt>
      <trkpt lat="45.34618928097188472747802734375" lon="-70.98010073415935039520263671875">
        <ele>611</ele>
        <time>2026-08-21T18:45:37.000Z</time>
        <extensions>
          <ns3:TrackPointExtension>
            <ns3:hr>127</ns3:hr>
            <ns3:cad>79</ns3:cad>
          </ns3:TrackPointExtension>
        </extensions>
      </trkpt>
      <trkpt lat="45.346173942089080810546875" lon="-70.9801180846989154815673828125">
        <ele>611.20001220703125</ele>
        <time>2026-08-21T18:45:38.000Z</time>
        <extensions>
          <ns3:TrackPointExtension>
            <ns3:hr>128</ns3:hr>
            <ns3:cad>79</ns3:cad>
          </ns3:TrackPointExtension>
        </extensions>
      </trkpt>
      <trkpt lat="45.346154831349849700927734375" lon="-70.98013543523848056793212890625">
        <ele>611.20001220703125</ele>
        <time>2026-08-21T18:45:39.000Z</time>
        <extensions>
          <ns3:TrackPointExtension>
            <ns3:hr>128</ns3:hr>
            <ns3:cad>79</ns3:cad>
          </ns3:TrackPointExtension>
        </extensions>
      </trkpt>
      <trkpt lat="45.34613748081028461456298828125" lon="-70.98015789873898029327392578125">
        <ele>611.20001220703125</ele>
        <time>2026-08-21T18:45:40.000Z</time>
        <extensions>
          <ns3:TrackPointExtension>
            <ns3:hr>128</ns3:hr>
            <ns3:cad>79</ns3:cad>
          </ns3:TrackPointExtension>
        </extensions>
      </trkpt>
      <trkpt lat="45.34612105228006839752197265625" lon="-70.98017885349690914154052734375">
        <ele>611.20001220703125</ele>
        <time>2026-08-21T18:45:41.000Z</time>
        <extensions>
          <ns3:TrackPointExtension>
            <ns3:hr>128</ns3:hr>
            <ns3:cad>79</ns3:cad>
          </ns3:TrackPointExtension>
        </extensions>
      </trkpt>
      <trkpt lat="45.34610261209309101104736328125" lon="-70.980202741920948028564453125">
        <ele>611.20001220703125</ele>
        <time>2026-08-21T18:45:42.000Z</time>
        <extensions>
          <ns3:TrackPointExtension>
            <ns3:hr>128</ns3:hr>
            <ns3:cad>79</ns3:cad>
          </ns3:TrackPointExtension>
        </extensions>
      </trkpt>
      <trkpt lat="45.34608501009643077850341796875" lon="-70.9802293963730335235595703125">
        <ele>611.20001220703125</ele>
        <time>2026-08-21T18:45:43.000Z</time>
        <extensions>
          <ns3:TrackPointExtension>
            <ns3:hr>128</ns3:hr>
            <ns3:cad>79</ns3:cad>
          </ns3:TrackPointExtension>
        </extensions>
      </trkpt>
      <trkpt lat="45.34606673754751682281494140625" lon="-70.98025538027286529541015625">
        <ele>611.20001220703125</ele>
        <time>2026-08-21T18:45:44.000Z</time>
        <extensions>
          <ns3:TrackPointExtension>
            <ns3:hr>129</ns3:hr>
            <ns3:cad>80</ns3:cad>
          </ns3:TrackPointExtension>
        </extensions>
      </trkpt>
      <trkpt lat="45.3460530750453472137451171875" lon="-70.98028622567653656005859375">
        <ele>611.20001220703125</ele>
        <time>2026-08-21T18:45:45.000Z</time>
        <extensions>
          <ns3:TrackPointExtension>
            <ns3:hr>129</ns3:hr>
            <ns3:cad>80</ns3:cad>
          </ns3:TrackPointExtension>
        </extensions>
      </trkpt>
      <trkpt lat="45.3460396640002727508544921875" lon="-70.9803051687777042388916015625">
        <ele>611</ele>
        <time>2026-08-21T18:45:46.000Z</time>
        <extensions>
          <ns3:TrackPointExtension>
            <ns3:hr>129</ns3:hr>
            <ns3:cad>81</ns3:cad>
          </ns3:TrackPointExtension>
        </extensions>
      </trkpt>
      <trkpt lat="45.346022062003612518310546875" lon="-70.98032587207853794097900390625">
        <ele>611</ele>
        <time>2026-08-21T18:45:47.000Z</time>
        <extensions>
          <ns3:TrackPointExtension>
            <ns3:hr>129</ns3:hr>
            <ns3:cad>81</ns3:cad>
          </ns3:TrackPointExtension>
        </extensions>
      </trkpt>
      <trkpt lat="45.34600387327373027801513671875" lon="-70.98034766502678394317626953125">
        <ele>611</ele>
        <time>2026-08-21T18:45:48.000Z</time>
        <extensions>
          <ns3:TrackPointExtension>
            <ns3:hr>130</ns3:hr>
            <ns3:cad>81</ns3:cad>
          </ns3:TrackPointExtension>
        </extensions>
      </trkpt>
      <trkpt lat="45.3459873609244823455810546875" lon="-70.9803678654134273529052734375">
        <ele>611</ele>
        <time>2026-08-21T18:45:49.000Z</time>
        <extensions>
          <ns3:TrackPointExtension>
            <ns3:hr>130</ns3:hr>
            <ns3:cad>82</ns3:cad>
          </ns3:TrackPointExtension>
        </extensions>
      </trkpt>
      <trkpt lat="45.34597202204167842864990234375" lon="-70.98038437776267528533935546875">
        <ele>611</ele>
        <time>2026-08-21T18:45:50.000Z</time>
        <extensions>
          <ns3:TrackPointExtension>
            <ns3:hr>130</ns3:hr>
            <ns3:cad>82</ns3:cad>
          </ns3:TrackPointExtension>
        </extensions>
      </trkpt>
      <trkpt lat="45.34595592878758907318115234375" lon="-70.98040482960641384124755859375">
        <ele>611</ele>
        <time>2026-08-21T18:45:51.000Z</time>
        <extensions>
          <ns3:TrackPointExtension>
            <ns3:hr>130</ns3:hr>
            <ns3:cad>82</ns3:cad>
          </ns3:TrackPointExtension>
        </extensions>
      </trkpt>
      <trkpt lat="45.3459414280951023101806640625" lon="-70.98042662255465984344482421875">
        <ele>611</ele>
        <time>2026-08-21T18:45:52.000Z</time>
        <extensions>
          <ns3:TrackPointExtension>
            <ns3:hr>131</ns3:hr>
            <ns3:cad>83</ns3:cad>
          </ns3:TrackPointExtension>
        </extensions>
      </trkpt>
      <trkpt lat="45.34592960961163043975830078125" lon="-70.98045160062611103057861328125">
        <ele>611</ele>
        <time>2026-08-21T18:45:53.000Z</time>
        <extensions>
          <ns3:TrackPointExtension>
            <ns3:hr>131</ns3:hr>
            <ns3:cad>83</ns3:cad>
          </ns3:TrackPointExtension>
        </extensions>
      </trkpt>
      <trkpt lat="45.3459192998707294464111328125" lon="-70.9804706275463104248046875">
        <ele>611.20001220703125</ele>
        <time>2026-08-21T18:45:54.000Z</time>
        <extensions>
          <ns3:TrackPointExtension>
            <ns3:hr>131</ns3:hr>
            <ns3:cad>78</ns3:cad>
          </ns3:TrackPointExtension>
        </extensions>
      </trkpt>
      <trkpt lat="45.3459079004824161529541015625" lon="-70.98048873245716094970703125">
        <ele>611.20001220703125</ele>
        <time>2026-08-21T18:45:55.000Z</time>
        <extensions>
          <ns3:TrackPointExtension>
            <ns3:hr>131</ns3:hr>
            <ns3:cad>78</ns3:cad>
          </ns3:TrackPointExtension>
        </extensions>
      </trkpt>
      <trkpt lat="45.34589658491313457489013671875" lon="-70.98051446489989757537841796875">
        <ele>611.4000244140625</ele>
        <time>2026-08-21T18:45:56.000Z</time>
        <extensions>
          <ns3:TrackPointExtension>
            <ns3:hr>132</ns3:hr>
            <ns3:cad>78</ns3:cad>
          </ns3:TrackPointExtension>
        </extensions>
      </trkpt>
      <trkpt lat="45.34588485024869441986083984375" lon="-70.9805442206561565399169921875">
        <ele>611.4000244140625</ele>
        <time>2026-08-21T18:45:57.000Z</time>
        <extensions>
          <ns3:TrackPointExtension>
            <ns3:hr>132</ns3:hr>
            <ns3:cad>0</ns3:cad>
          </ns3:TrackPointExtension>
        </extensions>
      </trkpt>
      <trkpt lat="45.34587688744068145751953125" lon="-70.9805767424404621124267578125">
        <ele>611.5999755859375</ele>
        <time>2026-08-21T18:45:58.000Z</time>
        <extensions>
          <ns3:TrackPointExtension>
            <ns3:hr>132</ns3:hr>
            <ns3:cad>0</ns3:cad>
          </ns3:TrackPointExtension>
        </extensions>
      </trkpt>
      <trkpt lat="45.34587160684168338775634765625" lon="-70.9806028939783573150634765625">
        <ele>611.5999755859375</ele>
        <time>2026-08-21T18:45:59.000Z</time>
        <extensions>
          <ns3:TrackPointExtension>
            <ns3:hr>132</ns3:hr>
            <ns3:cad>0</ns3:cad>
          </ns3:TrackPointExtension>
        </extensions>
      </trkpt>
      <trkpt lat="45.3458623029291629791259765625" lon="-70.9806317277252674102783203125">
        <ele>611.5999755859375</ele>
        <time>2026-08-21T18:46:00.000Z</time>
        <extensions>
          <ns3:TrackPointExtension>
            <ns3:hr>132</ns3:hr>
            <ns3:cad>0</ns3:cad>
          </ns3:TrackPointExtension>
        </extensions>
      </trkpt>
      <trkpt lat="45.34585434012115001678466796875" lon="-70.98066173493862152099609375">
        <ele>611.5999755859375</ele>
        <time>2026-08-21T18:46:01.000Z</time>
        <extensions>
          <ns3:TrackPointExtension>
            <ns3:hr>132</ns3:hr>
            <ns3:cad>80</ns3:cad>
          </ns3:TrackPointExtension>
        </extensions>
      </trkpt>
      <trkpt lat="45.34584612585604190826416015625" lon="-70.9806900657713413238525390625">
        <ele>611.4000244140625</ele>
        <time>2026-08-21T18:46:02.000Z</time>
        <extensions>
          <ns3:TrackPointExtension>
            <ns3:hr>133</ns3:hr>
            <ns3:cad>80</ns3:cad>
          </ns3:TrackPointExtension>
        </extensions>
      </trkpt>
      <trkpt lat="45.3458408452570438385009765625" lon="-70.9807115234434604644775390625">
        <ele>611.4000244140625</ele>
        <time>2026-08-21T18:46:03.000Z</time>
        <extensions>
          <ns3:TrackPointExtension>
            <ns3:hr>133</ns3:hr>
            <ns3:cad>80</ns3:cad>
          </ns3:TrackPointExtension>
        </extensions>
      </trkpt>
      <trkpt lat="45.34583204425871372222900390625" lon="-70.98072736524045467376708984375">
        <ele>611.20001220703125</ele>
        <time>2026-08-21T18:46:04.000Z</time>
        <extensions>
          <ns3:TrackPointExtension>
            <ns3:hr>133</ns3:hr>
            <ns3:cad>80</ns3:cad>
          </ns3:TrackPointExtension>
        </extensions>
      </trkpt>
      <trkpt lat="45.345826931297779083251953125" lon="-70.9807490743696689605712890625">
        <ele>611.20001220703125</ele>
        <time>2026-08-21T18:46:05.000Z</time>
        <extensions>
          <ns3:TrackPointExtension>
            <ns3:hr>133</ns3:hr>
            <ns3:cad>80</ns3:cad>
          </ns3:TrackPointExtension>
        </extensions>
      </trkpt>
      <trkpt lat="45.3458234108984470367431640625" lon="-70.98077178932726383209228515625">
        <ele>611.20001220703125</ele>
        <time>2026-08-21T18:46:06.000Z</time>
        <extensions>
          <ns3:TrackPointExtension>
            <ns3:hr>133</ns3:hr>
            <ns3:cad>78</ns3:cad>
          </ns3:TrackPointExtension>
        </extensions>
      </trkpt>
      <trkpt lat="45.34581863321363925933837890625" lon="-70.98079559393227100372314453125">
        <ele>611.20001220703125</ele>
        <time>2026-08-21T18:46:07.000Z</time>
        <extensions>
          <ns3:TrackPointExtension>
            <ns3:hr>134</ns3:hr>
            <ns3:cad>78</ns3:cad>
          </ns3:TrackPointExtension>
        </extensions>
      </trkpt>
      <trkpt lat="45.34581310115754604339599609375" lon="-70.9808214940130710601806640625">
        <ele>611.20001220703125</ele>
        <time>2026-08-21T18:46:08.000Z</time>
        <extensions>
          <ns3:TrackPointExtension>
            <ns3:hr>134</ns3:hr>
            <ns3:cad>78</ns3:cad>
          </ns3:TrackPointExtension>
        </extensions>
      </trkpt>
      <trkpt lat="45.34580715000629425048828125" lon="-70.98084236495196819305419921875">
        <ele>611.20001220703125</ele>
        <time>2026-08-21T18:46:09.000Z</time>
        <extensions>
          <ns3:TrackPointExtension>
            <ns3:hr>134</ns3:hr>
            <ns3:cad>60</ns3:cad>
          </ns3:TrackPointExtension>
        </extensions>
      </trkpt>
      <trkpt lat="45.34580580890178680419921875" lon="-70.980865918099880218505859375">
        <ele>611.20001220703125</ele>
        <time>2026-08-21T18:46:10.000Z</time>
        <extensions>
          <ns3:TrackPointExtension>
            <ns3:hr>134</ns3:hr>
            <ns3:cad>60</ns3:cad>
          </ns3:TrackPointExtension>
        </extensions>
      </trkpt>
      <trkpt lat="45.34580136649310588836669921875" lon="-70.9808875434100627899169921875">
        <ele>611.20001220703125</ele>
        <time>2026-08-21T18:46:11.000Z</time>
        <extensions>
          <ns3:TrackPointExtension>
            <ns3:hr>133</ns3:hr>
            <ns3:cad>60</ns3:cad>
          </ns3:TrackPointExtension>
        </extensions>
      </trkpt>
      <trkpt lat="45.3457959182560443878173828125" lon="-70.98090858198702335357666015625">
        <ele>611.20001220703125</ele>
        <time>2026-08-21T18:46:12.000Z</time>
        <extensions>
          <ns3:TrackPointExtension>
            <ns3:hr>133</ns3:hr>
            <ns3:cad>59</ns3:cad>
          </ns3:TrackPointExtension>
        </extensions>
      </trkpt>
      <trkpt lat="45.345790721476078033447265625" lon="-70.98092861473560333251953125">
        <ele>611.4000244140625</ele>
        <time>2026-08-21T18:46:13.000Z</time>
        <extensions>
          <ns3:TrackPointExtension>
            <ns3:hr>133</ns3:hr>
            <ns3:cad>59</ns3:cad>
          </ns3:TrackPointExtension>
        </extensions>
      </trkpt>
      <trkpt lat="45.3457861952483654022216796875" lon="-70.98094864748418331146240234375">
        <ele>611.4000244140625</ele>
        <time>2026-08-21T18:46:14.000Z</time>
        <extensions>
          <ns3:TrackPointExtension>
            <ns3:hr>133</ns3:hr>
            <ns3:cad>59</ns3:cad>
          </ns3:TrackPointExtension>
        </extensions>
      </trkpt>
      <trkpt lat="45.345782004296779632568359375" lon="-70.98096675239503383636474609375">
        <ele>611.5999755859375</ele>
        <time>2026-08-21T18:46:15.000Z</time>
        <extensions>
          <ns3:TrackPointExtension>
            <ns3:hr>133</ns3:hr>
            <ns3:cad>59</ns3:cad>
          </ns3:TrackPointExtension>
        </extensions>
      </trkpt>
      <trkpt lat="45.345776639878749847412109375" lon="-70.98098519258201122283935546875">
        <ele>611.5999755859375</ele>
        <time>2026-08-21T18:46:16.000Z</time>
        <extensions>
          <ns3:TrackPointExtension>
            <ns3:hr>133</ns3:hr>
            <ns3:cad>57</ns3:cad>
          </ns3:TrackPointExtension>
        </extensions>
      </trkpt>
      <trkpt lat="45.34577236510813236236572265625" lon="-70.98100514151155948638916015625">
        <ele>611.5999755859375</ele>
        <time>2026-08-21T18:46:17.000Z</time>
        <extensions>
          <ns3:TrackPointExtension>
            <ns3:hr>132</ns3:hr>
            <ns3:cad>57</ns3:cad>
          </ns3:TrackPointExtension>
        </extensions>
      </trkpt>
      <trkpt lat="45.345765911042690277099609375" lon="-70.9810258448123931884765625">
        <ele>611.5999755859375</ele>
        <time>2026-08-21T18:46:18.000Z</time>
        <extensions>
          <ns3:TrackPointExtension>
            <ns3:hr>131</ns3:hr>
            <ns3:cad>57</ns3:cad>
          </ns3:TrackPointExtension>
        </extensions>
      </trkpt>
      <trkpt lat="45.3457570262253284454345703125" lon="-70.98104772157967090606689453125">
        <ele>611.79998779296875</ele>
        <time>2026-08-21T18:46:19.000Z</time>
        <extensions>
          <ns3:TrackPointExtension>
            <ns3:hr>131</ns3:hr>
            <ns3:cad>57</ns3:cad>
          </ns3:TrackPointExtension>
        </extensions>
      </trkpt>
      <trkpt lat="45.34575342200696468353271484375" lon="-70.9810699336230754852294921875">
        <ele>611.79998779296875</ele>
        <time>2026-08-21T18:46:20.000Z</time>
        <extensions>
          <ns3:TrackPointExtension>
            <ns3:hr>131</ns3:hr>
            <ns3:cad>57</ns3:cad>
          </ns3:TrackPointExtension>
        </extensions>
      </trkpt>
      <trkpt lat="45.345746465027332305908203125" lon="-70.98109834827482700347900390625">
        <ele>611.79998779296875</ele>
        <time>2026-08-21T18:46:21.000Z</time>
        <extensions>
          <ns3:TrackPointExtension>
            <ns3:hr>131</ns3:hr>
            <ns3:cad>57</ns3:cad>
          </ns3:TrackPointExtension>
        </extensions>
      </trkpt>
      <trkpt lat="45.34574143588542938232421875" lon="-70.9811215661466121673583984375">
        <ele>612</ele>
        <time>2026-08-21T18:46:22.000Z</time>
        <extensions>
          <ns3:TrackPointExtension>
            <ns3:hr>131</ns3:hr>
            <ns3:cad>58</ns3:cad>
          </ns3:TrackPointExtension>
        </extensions>
      </trkpt>
      <trkpt lat="45.34573481418192386627197265625" lon="-70.98114361055195331573486328125">
        <ele>612.20001220703125</ele>
        <time>2026-08-21T18:46:23.000Z</time>
        <extensions>
          <ns3:TrackPointExtension>
            <ns3:hr>132</ns3:hr>
            <ns3:cad>58</ns3:cad>
          </ns3:TrackPointExtension>
        </extensions>
      </trkpt>
      <trkpt lat="45.345729030668735504150390625" lon="-70.9811628051102161407470703125">
        <ele>612.20001220703125</ele>
        <time>2026-08-21T18:46:24.000Z</time>
        <extensions>
          <ns3:TrackPointExtension>
            <ns3:hr>132</ns3:hr>
            <ns3:cad>59</ns3:cad>
          </ns3:TrackPointExtension>
        </extensions>
      </trkpt>
      <trkpt lat="45.34572307951748371124267578125" lon="-70.981185771524906158447265625">
        <ele>612.4000244140625</ele>
        <time>2026-08-21T18:46:25.000Z</time>
        <extensions>
          <ns3:TrackPointExtension>
            <ns3:hr>132</ns3:hr>
            <ns3:cad>59</ns3:cad>
          </ns3:TrackPointExtension>
        </extensions>
      </trkpt>
      <trkpt lat="45.34571587108075618743896484375" lon="-70.98120479844510555267333984375">
        <ele>612.4000244140625</ele>
        <time>2026-08-21T18:46:26.000Z</time>
        <extensions>
          <ns3:TrackPointExtension>
            <ns3:hr>131</ns3:hr>
            <ns3:cad>59</ns3:cad>
          </ns3:TrackPointExtension>
        </extensions>
      </trkpt>
      <trkpt lat="45.3457090817391872406005859375" lon="-70.9812238253653049468994140625">
        <ele>612.4000244140625</ele>
        <time>2026-08-21T18:46:27.000Z</time>
        <extensions>
          <ns3:TrackPointExtension>
            <ns3:hr>131</ns3:hr>
            <ns3:cad>59</ns3:cad>
          </ns3:TrackPointExtension>
        </extensions>
      </trkpt>
      <trkpt lat="45.345698185265064239501953125" lon="-70.9812369011342525482177734375">
        <ele>612.5999755859375</ele>
        <time>2026-08-21T18:46:28.000Z</time>
        <extensions>
          <ns3:TrackPointExtension>
            <ns3:hr>132</ns3:hr>
            <ns3:cad>59</ns3:cad>
          </ns3:TrackPointExtension>
        </extensions>
      </trkpt>
      <trkpt lat="45.34569307230412960052490234375" lon="-70.9812566824257373809814453125">
        <ele>612.5999755859375</ele>
        <time>2026-08-21T18:46:29.000Z</time>
        <extensions>
          <ns3:TrackPointExtension>
            <ns3:hr>132</ns3:hr>
            <ns3:cad>57</ns3:cad>
          </ns3:TrackPointExtension>
        </extensions>
      </trkpt>
      <trkpt lat="45.34569340758025646209716796875" lon="-70.98127654753625392913818359375">
        <ele>612.79998779296875</ele>
        <time>2026-08-21T18:46:30.000Z</time>
        <extensions>
          <ns3:TrackPointExtension>
            <ns3:hr>132</ns3:hr>
            <ns3:cad>57</ns3:cad>
          </ns3:TrackPointExtension>
        </extensions>
      </trkpt>
      <trkpt lat="45.34568586386740207672119140625" lon="-70.9812925569713115692138671875">
        <ele>612.79998779296875</ele>
        <time>2026-08-21T18:46:31.000Z</time>
        <extensions>
          <ns3:TrackPointExtension>
            <ns3:hr>132</ns3:hr>
            <ns3:cad>57</ns3:cad>
          </ns3:TrackPointExtension>
        </extensions>
      </trkpt>
      <trkpt lat="45.3456779010593891143798828125" lon="-70.98130948841571807861328125">
        <ele>612.79998779296875</ele>
        <time>2026-08-21T18:46:32.000Z</time>
        <extensions>
          <ns3:TrackPointExtension>
            <ns3:hr>132</ns3:hr>
            <ns3:cad>57</ns3:cad>
          </ns3:TrackPointExtension>
        </extensions>
      </trkpt>
      <trkpt lat="45.34567060880362987518310546875" lon="-70.9813235700130462646484375">
        <ele>613</ele>
        <time>2026-08-21T18:46:33.000Z</time>
        <extensions>
          <ns3:TrackPointExtension>
            <ns3:hr>132</ns3:hr>
            <ns3:cad>57</ns3:cad>
          </ns3:TrackPointExtension>
        </extensions>
      </trkpt>
      <trkpt lat="45.34566239453852176666259765625" lon="-70.98133631050586700439453125">
        <ele>613</ele>
        <time>2026-08-21T18:46:34.000Z</time>
        <extensions>
          <ns3:TrackPointExtension>
            <ns3:hr>132</ns3:hr>
            <ns3:cad>57</ns3:cad>
          </ns3:TrackPointExtension>
        </extensions>
      </trkpt>
      <trkpt lat="45.34565049223601818084716796875" lon="-70.98135332576930522918701171875">
        <ele>613</ele>
        <time>2026-08-21T18:46:35.000Z</time>
        <extensions>
          <ns3:TrackPointExtension>
            <ns3:hr>132</ns3:hr>
            <ns3:cad>57</ns3:cad>
          </ns3:TrackPointExtension>
        </extensions>
      </trkpt>
      <trkpt lat="45.345637835562229156494140625" lon="-70.98136707209050655364990234375">
        <ele>613.20001220703125</ele>
        <time>2026-08-21T18:46:36.000Z</time>
        <extensions>
          <ns3:TrackPointExtension>
            <ns3:hr>132</ns3:hr>
            <ns3:cad>57</ns3:cad>
          </ns3:TrackPointExtension>
        </extensions>
      </trkpt>
      <trkpt lat="45.3456266038119792938232421875" lon="-70.981380231678485870361328125">
        <ele>613.20001220703125</ele>
        <time>2026-08-21T18:46:37.000Z</time>
        <extensions>
          <ns3:TrackPointExtension>
            <ns3:hr>132</ns3:hr>
            <ns3:cad>57</ns3:cad>
          </ns3:TrackPointExtension>
        </extensions>
      </trkpt>
      <trkpt lat="45.345617048442363739013671875" lon="-70.98139657638967037200927734375">
        <ele>613.20001220703125</ele>
        <time>2026-08-21T18:46:38.000Z</time>
        <extensions>
          <ns3:TrackPointExtension>
            <ns3:hr>132</ns3:hr>
            <ns3:cad>57</ns3:cad>
          </ns3:TrackPointExtension>
        </extensions>
      </trkpt>
      <trkpt lat="45.34560288302600383758544921875" lon="-70.98141367547214031219482421875">
        <ele>613.4000244140625</ele>
        <time>2026-08-21T18:46:39.000Z</time>
        <extensions>
          <ns3:TrackPointExtension>
            <ns3:hr>132</ns3:hr>
            <ns3:cad>56</ns3:cad>
          </ns3:TrackPointExtension>
        </extensions>
      </trkpt>
      <trkpt lat="45.345586873590946197509765625" lon="-70.9814293496310710906982421875">
        <ele>613.4000244140625</ele>
        <time>2026-08-21T18:46:40.000Z</time>
        <extensions>
          <ns3:TrackPointExtension>
            <ns3:hr>133</ns3:hr>
            <ns3:cad>56</ns3:cad>
          </ns3:TrackPointExtension>
        </extensions>
      </trkpt>
      <trkpt lat="45.3455726243555545806884765625" lon="-70.98144267685711383819580078125">
        <ele>613.4000244140625</ele>
        <time>2026-08-21T18:46:41.000Z</time>
        <extensions>
          <ns3:TrackPointExtension>
            <ns3:hr>132</ns3:hr>
            <ns3:cad>56</ns3:cad>
          </ns3:TrackPointExtension>
        </extensions>
      </trkpt>
      <trkpt lat="45.345554687082767486572265625" lon="-70.98145390860736370086669921875">
        <ele>613.5999755859375</ele>
        <time>2026-08-21T18:46:42.000Z</time>
        <extensions>
          <ns3:TrackPointExtension>
            <ns3:hr>132</ns3:hr>
            <ns3:cad>56</ns3:cad>
          </ns3:TrackPointExtension>
        </extensions>
      </trkpt>
      <trkpt lat="45.34554152749478816986083984375" lon="-70.98146044649183750152587890625">
        <ele>613.5999755859375</ele>
        <time>2026-08-21T18:46:43.000Z</time>
        <extensions>
          <ns3:TrackPointExtension>
            <ns3:hr>132</ns3:hr>
            <ns3:cad>56</ns3:cad>
          </ns3:TrackPointExtension>
        </extensions>
      </trkpt>
      <trkpt lat="45.34552660770714282989501953125" lon="-70.98146933130919933319091796875">
        <ele>613.5999755859375</ele>
        <time>2026-08-21T18:46:44.000Z</time>
        <extensions>
          <ns3:TrackPointExtension>
            <ns3:hr>132</ns3:hr>
            <ns3:cad>56</ns3:cad>
          </ns3:TrackPointExtension>
        </extensions>
      </trkpt>
      <trkpt lat="45.34551453776657581329345703125" lon="-70.9814789704978466033935546875">
        <ele>613.79998779296875</ele>
        <time>2026-08-21T18:46:45.000Z</time>
        <extensions>
          <ns3:TrackPointExtension>
            <ns3:hr>132</ns3:hr>
            <ns3:cad>56</ns3:cad>
          </ns3:TrackPointExtension>
        </extensions>
      </trkpt>
      <trkpt lat="45.3455028869211673736572265625" lon="-70.98149145953357219696044921875">
        <ele>613.79998779296875</ele>
        <time>2026-08-21T18:46:46.000Z</time>
        <extensions>
          <ns3:TrackPointExtension>
            <ns3:hr>133</ns3:hr>
            <ns3:cad>57</ns3:cad>
          </ns3:TrackPointExtension>
        </extensions>
      </trkpt>
      <trkpt lat="45.345487296581268310546875" lon="-70.98150101490318775177001953125">
        <ele>613.79998779296875</ele>
        <time>2026-08-21T18:46:47.000Z</time>
        <extensions>
          <ns3:TrackPointExtension>
            <ns3:hr>134</ns3:hr>
            <ns3:cad>57</ns3:cad>
          </ns3:TrackPointExtension>
        </extensions>
      </trkpt>
      <trkpt lat="45.345474220812320709228515625" lon="-70.981507636606693267822265625">
        <ele>613.79998779296875</ele>
        <time>2026-08-21T18:46:48.000Z</time>
        <extensions>
          <ns3:TrackPointExtension>
            <ns3:hr>133</ns3:hr>
            <ns3:cad>57</ns3:cad>
          </ns3:TrackPointExtension>
        </extensions>
      </trkpt>
      <trkpt lat="45.34545787610113620758056640625" lon="-70.98151467740535736083984375">
        <ele>613.79998779296875</ele>
        <time>2026-08-21T18:46:49.000Z</time>
        <extensions>
          <ns3:TrackPointExtension>
            <ns3:hr>133</ns3:hr>
            <ns3:cad>57</ns3:cad>
          </ns3:TrackPointExtension>
        </extensions>
      </trkpt>
      <trkpt lat="45.34544639289379119873046875" lon="-70.98152414895594120025634765625">
        <ele>614</ele>
        <time>2026-08-21T18:46:50.000Z</time>
        <extensions>
          <ns3:TrackPointExtension>
            <ns3:hr>133</ns3:hr>
            <ns3:cad>57</ns3:cad>
          </ns3:TrackPointExtension>
        </extensions>
      </trkpt>
      <trkpt lat="45.34543038345873355865478515625" lon="-70.981531776487827301025390625">
        <ele>614</ele>
        <time>2026-08-21T18:46:51.000Z</time>
        <extensions>
          <ns3:TrackPointExtension>
            <ns3:hr>133</ns3:hr>
            <ns3:cad>57</ns3:cad>
          </ns3:TrackPointExtension>
        </extensions>
      </trkpt>
      <trkpt lat="45.3454162180423736572265625" lon="-70.9815359674394130706787109375">
        <ele>614</ele>
        <time>2026-08-21T18:46:52.000Z</time>
        <extensions>
          <ns3:TrackPointExtension>
            <ns3:hr>134</ns3:hr>
            <ns3:cad>57</ns3:cad>
          </ns3:TrackPointExtension>
        </extensions>
      </trkpt>
      <trkpt lat="45.34540171734988689422607421875" lon="-70.98154015839099884033203125">
        <ele>614</ele>
        <time>2026-08-21T18:46:53.000Z</time>
        <extensions>
          <ns3:TrackPointExtension>
            <ns3:hr>134</ns3:hr>
            <ns3:cad>57</ns3:cad>
          </ns3:TrackPointExtension>
        </extensions>
      </trkpt>
      <trkpt lat="45.34538763575255870819091796875" lon="-70.98154242150485515594482421875">
        <ele>614</ele>
        <time>2026-08-21T18:46:54.000Z</time>
        <extensions>
          <ns3:TrackPointExtension>
            <ns3:hr>134</ns3:hr>
            <ns3:cad>57</ns3:cad>
          </ns3:TrackPointExtension>
        </extensions>
      </trkpt>
      <trkpt lat="45.3453744761645793914794921875" lon="-70.98154577426612377166748046875">
        <ele>614</ele>
        <time>2026-08-21T18:46:55.000Z</time>
        <extensions>
          <ns3:TrackPointExtension>
            <ns3:hr>134</ns3:hr>
            <ns3:cad>57</ns3:cad>
          </ns3:TrackPointExtension>
        </extensions>
      </trkpt>
      <trkpt lat="45.34536181949079036712646484375" lon="-70.98155013285577297210693359375">
        <ele>614.20001220703125</ele>
        <time>2026-08-21T18:46:56.000Z</time>
        <extensions>
          <ns3:TrackPointExtension>
            <ns3:hr>133</ns3:hr>
            <ns3:cad>58</ns3:cad>
          </ns3:TrackPointExtension>
        </extensions>
      </trkpt>
      <trkpt lat="45.345347821712493896484375" lon="-70.98155365325510501861572265625">
        <ele>614.20001220703125</ele>
        <time>2026-08-21T18:46:57.000Z</time>
        <extensions>
          <ns3:TrackPointExtension>
            <ns3:hr>133</ns3:hr>
            <ns3:cad>58</ns3:cad>
          </ns3:TrackPointExtension>
        </extensions>
      </trkpt>
      <trkpt lat="45.345334745943546295166015625" lon="-70.98155331797897815704345703125">
        <ele>614.20001220703125</ele>
        <time>2026-08-21T18:46:58.000Z</time>
        <extensions>
          <ns3:TrackPointExtension>
            <ns3:hr>133</ns3:hr>
            <ns3:cad>58</ns3:cad>
          </ns3:TrackPointExtension>
        </extensions>
      </trkpt>
      <trkpt lat="45.34531940706074237823486328125" lon="-70.981553234159946441650390625">
        <ele>614.20001220703125</ele>
        <time>2026-08-21T18:46:59.000Z</time>
        <extensions>
          <ns3:TrackPointExtension>
            <ns3:hr>133</ns3:hr>
            <ns3:cad>57</ns3:cad>
          </ns3:TrackPointExtension>
        </extensions>
      </trkpt>
      <trkpt lat="45.34530348144471645355224609375" lon="-70.981552563607692718505859375">
        <ele>614.4000244140625</ele>
        <time>2026-08-21T18:47:00.000Z</time>
        <extensions>
          <ns3:TrackPointExtension>
            <ns3:hr>133</ns3:hr>
            <ns3:cad>57</ns3:cad>
          </ns3:TrackPointExtension>
        </extensions>
      </trkpt>
      <trkpt lat="45.34528621472418308258056640625" lon="-70.98155700601637363433837890625">
        <ele>614.4000244140625</ele>
        <time>2026-08-21T18:47:01.000Z</time>
        <extensions>
          <ns3:TrackPointExtension>
            <ns3:hr>132</ns3:hr>
            <ns3:cad>56</ns3:cad>
          </ns3:TrackPointExtension>
        </extensions>
      </trkpt>
      <trkpt lat="45.34527079202234745025634765625" lon="-70.981559939682483673095703125">
        <ele>614.4000244140625</ele>
        <time>2026-08-21T18:47:02.000Z</time>
        <extensions>
          <ns3:TrackPointExtension>
            <ns3:hr>132</ns3:hr>
            <ns3:cad>56</ns3:cad>
          </ns3:TrackPointExtension>
        </extensions>
      </trkpt>
      <trkpt lat="45.34525729715824127197265625" lon="-70.9815567545592784881591796875">
        <ele>614.4000244140625</ele>
        <time>2026-08-21T18:47:03.000Z</time>
        <extensions>
          <ns3:TrackPointExtension>
            <ns3:hr>131</ns3:hr>
            <ns3:cad>56</ns3:cad>
          </ns3:TrackPointExtension>
        </extensions>
      </trkpt>
      <trkpt lat="45.34524145536124706268310546875" lon="-70.98155558109283447265625">
        <ele>614.5999755859375</ele>
        <time>2026-08-21T18:47:04.000Z</time>
        <extensions>
          <ns3:TrackPointExtension>
            <ns3:hr>131</ns3:hr>
            <ns3:cad>55</ns3:cad>
          </ns3:TrackPointExtension>
        </extensions>
      </trkpt>
      <trkpt lat="45.34522712230682373046875" lon="-70.98155918531119823455810546875">
        <ele>614.5999755859375</ele>
        <time>2026-08-21T18:47:05.000Z</time>
        <extensions>
          <ns3:TrackPointExtension>
            <ns3:hr>129</ns3:hr>
            <ns3:cad>55</ns3:cad>
          </ns3:TrackPointExtension>
        </extensions>
      </trkpt>
      <trkpt lat="45.3452185727655887603759765625" lon="-70.98156832158565521240234375">
        <ele>614.5999755859375</ele>
        <time>2026-08-21T18:47:06.000Z</time>
        <extensions>
          <ns3:TrackPointExtension>
            <ns3:hr>129</ns3:hr>
            <ns3:cad>54</ns3:cad>
          </ns3:TrackPointExtension>
        </extensions>
      </trkpt>
      <trkpt lat="45.34520767629146575927734375" lon="-70.98157108761370182037353515625">
        <ele>614.5999755859375</ele>
        <time>2026-08-21T18:47:07.000Z</time>
        <extensions>
          <ns3:TrackPointExtension>
            <ns3:hr>129</ns3:hr>
            <ns3:cad>54</ns3:cad>
          </ns3:TrackPointExtension>
        </extensions>
      </trkpt>
      <trkpt lat="45.34519535489380359649658203125" lon="-70.98156924359500408172607421875">
        <ele>614.5999755859375</ele>
        <time>2026-08-21T18:47:08.000Z</time>
        <extensions>
          <ns3:TrackPointExtension>
            <ns3:hr>127</ns3:hr>
            <ns3:cad>54</ns3:cad>
          </ns3:TrackPointExtension>
        </extensions>
      </trkpt>
      <trkpt lat="45.3451826982200145721435546875" lon="-70.9815664775669574737548828125">
        <ele>614.5999755859375</ele>
        <time>2026-08-21T18:47:09.000Z</time>
        <extensions>
          <ns3:TrackPointExtension>
            <ns3:hr>127</ns3:hr>
            <ns3:cad>55</ns3:cad>
          </ns3:TrackPointExtension>
        </extensions>
      </trkpt>
      <trkpt lat="45.3451689518988132476806640625" lon="-70.98156672902405261993408203125">
        <ele>614.79998779296875</ele>
        <time>2026-08-21T18:47:10.000Z</time>
        <extensions>
          <ns3:TrackPointExtension>
            <ns3:hr>126</ns3:hr>
            <ns3:cad>55</ns3:cad>
          </ns3:TrackPointExtension>
        </extensions>
      </trkpt>
      <trkpt lat="45.3451555408537387847900390625" lon="-70.98157041706144809722900390625">
        <ele>614.79998779296875</ele>
        <time>2026-08-21T18:47:11.000Z</time>
        <extensions>
          <ns3:TrackPointExtension>
            <ns3:hr>125</ns3:hr>
            <ns3:cad>55</ns3:cad>
          </ns3:TrackPointExtension>
        </extensions>
      </trkpt>
      <trkpt lat="45.3451424650847911834716796875" lon="-70.981574691832065582275390625">
        <ele>614.79998779296875</ele>
        <time>2026-08-21T18:47:12.000Z</time>
        <extensions>
          <ns3:TrackPointExtension>
            <ns3:hr>125</ns3:hr>
            <ns3:cad>55</ns3:cad>
          </ns3:TrackPointExtension>
        </extensions>
      </trkpt>
      <trkpt lat="45.34512897022068500518798828125" lon="-70.98157628439366817474365234375">
        <ele>614.79998779296875</ele>
        <time>2026-08-21T18:47:13.000Z</time>
        <extensions>
          <ns3:TrackPointExtension>
            <ns3:hr>125</ns3:hr>
            <ns3:cad>55</ns3:cad>
          </ns3:TrackPointExtension>
        </extensions>
      </trkpt>
      <trkpt lat="45.34511673264205455780029296875" lon="-70.98158181644976139068603515625">
        <ele>615</ele>
        <time>2026-08-21T18:47:14.000Z</time>
        <extensions>
          <ns3:TrackPointExtension>
            <ns3:hr>125</ns3:hr>
            <ns3:cad>55</ns3:cad>
          </ns3:TrackPointExtension>
        </extensions>
      </trkpt>
      <trkpt lat="45.34510281868278980255126953125" lon="-70.981586761772632598876953125">
        <ele>615</ele>
        <time>2026-08-21T18:47:15.000Z</time>
        <extensions>
          <ns3:TrackPointExtension>
            <ns3:hr>126</ns3:hr>
            <ns3:cad>55</ns3:cad>
          </ns3:TrackPointExtension>
        </extensions>
      </trkpt>
      <trkpt lat="45.34509108401834964752197265625" lon="-70.98158667795360088348388671875">
        <ele>615</ele>
        <time>2026-08-21T18:47:16.000Z</time>
        <extensions>
          <ns3:TrackPointExtension>
            <ns3:hr>126</ns3:hr>
            <ns3:cad>55</ns3:cad>
          </ns3:TrackPointExtension>
        </extensions>
      </trkpt>
      <trkpt lat="45.34507700242102146148681640625" lon="-70.9815875999629497528076171875">
        <ele>615</ele>
        <time>2026-08-21T18:47:17.000Z</time>
        <extensions>
          <ns3:TrackPointExtension>
            <ns3:hr>126</ns3:hr>
            <ns3:cad>55</ns3:cad>
          </ns3:TrackPointExtension>
        </extensions>
      </trkpt>
      <trkpt lat="45.34506493248045444488525390625" lon="-70.98158366046845912933349609375">
        <ele>615.20001220703125</ele>
        <time>2026-08-21T18:47:18.000Z</time>
        <extensions>
          <ns3:TrackPointExtension>
            <ns3:hr>126</ns3:hr>
            <ns3:cad>55</ns3:cad>
          </ns3:TrackPointExtension>
        </extensions>
      </trkpt>
      <trkpt lat="45.34505252726376056671142578125" lon="-70.9815862588584423065185546875">
        <ele>615.20001220703125</ele>
        <time>2026-08-21T18:47:19.000Z</time>
        <extensions>
          <ns3:TrackPointExtension>
            <ns3:hr>126</ns3:hr>
            <ns3:cad>55</ns3:cad>
          </ns3:TrackPointExtension>
        </extensions>
      </trkpt>
      <trkpt lat="45.345038361847400665283203125" lon="-70.9815882705152034759521484375">
        <ele>615.20001220703125</ele>
        <time>2026-08-21T18:47:20.000Z</time>
        <extensions>
          <ns3:TrackPointExtension>
            <ns3:hr>126</ns3:hr>
            <ns3:cad>55</ns3:cad>
          </ns3:TrackPointExtension>
        </extensions>
      </trkpt>
      <trkpt lat="45.3450264595448970794677734375" lon="-70.98158768378198146820068359375">
        <ele>615.20001220703125</ele>
        <time>2026-08-21T18:47:21.000Z</time>
        <extensions>
          <ns3:TrackPointExtension>
            <ns3:hr>126</ns3:hr>
            <ns3:cad>53</ns3:cad>
          </ns3:TrackPointExtension>
        </extensions>
      </trkpt>
      <trkpt lat="45.34501279704272747039794921875" lon="-70.98158567212522029876708984375">
        <ele>615.20001220703125</ele>
        <time>2026-08-21T18:47:22.000Z</time>
        <extensions>
          <ns3:TrackPointExtension>
            <ns3:hr>126</ns3:hr>
            <ns3:cad>52</ns3:cad>
          </ns3:TrackPointExtension>
        </extensions>
      </trkpt>
      <trkpt lat="45.34500089474022388458251953125" lon="-70.98158583976328372955322265625">
        <ele>615.4000244140625</ele>
        <time>2026-08-21T18:47:23.000Z</time>
        <extensions>
          <ns3:TrackPointExtension>
            <ns3:hr>126</ns3:hr>
            <ns3:cad>52</ns3:cad>
          </ns3:TrackPointExtension>
        </extensions>
      </trkpt>
      <trkpt lat="45.34498765133321285247802734375" lon="-70.98158818669617176055908203125">
        <ele>615.4000244140625</ele>
        <time>2026-08-21T18:47:24.000Z</time>
        <extensions>
          <ns3:TrackPointExtension>
            <ns3:hr>126</ns3:hr>
            <ns3:cad>53</ns3:cad>
          </ns3:TrackPointExtension>
        </extensions>
      </trkpt>
      <trkpt lat="45.344974994659423828125" lon="-70.98159003071486949920654296875">
        <ele>615.4000244140625</ele>
        <time>2026-08-21T18:47:25.000Z</time>
        <extensions>
          <ns3:TrackPointExtension>
            <ns3:hr>126</ns3:hr>
            <ns3:cad>53</ns3:cad>
          </ns3:TrackPointExtension>
        </extensions>
      </trkpt>
      <trkpt lat="45.34496200270950794219970703125" lon="-70.9815896116197109222412109375">
        <ele>615.5999755859375</ele>
        <time>2026-08-21T18:47:26.000Z</time>
        <extensions>
          <ns3:TrackPointExtension>
            <ns3:hr>125</ns3:hr>
            <ns3:cad>53</ns3:cad>
          </ns3:TrackPointExtension>
        </extensions>
      </trkpt>
      <trkpt lat="45.3449495136737823486328125" lon="-70.981588102877140045166015625">
        <ele>615.5999755859375</ele>
        <time>2026-08-21T18:47:27.000Z</time>
        <extensions>
          <ns3:TrackPointExtension>
            <ns3:hr>125</ns3:hr>
            <ns3:cad>53</ns3:cad>
          </ns3:TrackPointExtension>
        </extensions>
      </trkpt>
      <trkpt lat="45.344937108457088470458984375" lon="-70.9815902821719646453857421875">
        <ele>615.5999755859375</ele>
        <time>2026-08-21T18:47:28.000Z</time>
        <extensions>
          <ns3:TrackPointExtension>
            <ns3:hr>124</ns3:hr>
            <ns3:cad>53</ns3:cad>
          </ns3:TrackPointExtension>
        </extensions>
      </trkpt>
      <trkpt lat="45.34492445178329944610595703125" lon="-70.981592126190662384033203125">
        <ele>615.79998779296875</ele>
        <time>2026-08-21T18:47:29.000Z</time>
        <extensions>
          <ns3:TrackPointExtension>
            <ns3:hr>124</ns3:hr>
            <ns3:cad>53</ns3:cad>
          </ns3:TrackPointExtension>
        </extensions>
      </trkpt>
      <trkpt lat="45.3449111245572566986083984375" lon="-70.981592796742916107177734375">
        <ele>615.79998779296875</ele>
        <time>2026-08-21T18:47:30.000Z</time>
        <extensions>
          <ns3:TrackPointExtension>
            <ns3:hr>123</ns3:hr>
            <ns3:cad>53</ns3:cad>
          </ns3:TrackPointExtension>
        </extensions>
      </trkpt>
      <trkpt lat="45.3448990546166896820068359375" lon="-70.98159304820001125335693359375">
        <ele>615.79998779296875</ele>
        <time>2026-08-21T18:47:31.000Z</time>
        <extensions>
          <ns3:TrackPointExtension>
            <ns3:hr>123</ns3:hr>
            <ns3:cad>53</ns3:cad>
          </ns3:TrackPointExtension>
        </extensions>
      </trkpt>
      <trkpt lat="45.34488706849515438079833984375" lon="-70.9815922938287258148193359375">
        <ele>616</ele>
        <time>2026-08-21T18:47:32.000Z</time>
        <extensions>
          <ns3:TrackPointExtension>
            <ns3:hr>123</ns3:hr>
            <ns3:cad>53</ns3:cad>
          </ns3:TrackPointExtension>
        </extensions>
      </trkpt>
      <trkpt lat="45.344874747097492218017578125" lon="-70.9815944731235504150390625">
        <ele>616</ele>
        <time>2026-08-21T18:47:33.000Z</time>
        <extensions>
          <ns3:TrackPointExtension>
            <ns3:hr>123</ns3:hr>
            <ns3:cad>53</ns3:cad>
          </ns3:TrackPointExtension>
        </extensions>
      </trkpt>
      <trkpt lat="45.34486276097595691680908203125" lon="-70.981596820056438446044921875">
        <ele>616</ele>
        <time>2026-08-21T18:47:34.000Z</time>
        <extensions>
          <ns3:TrackPointExtension>
            <ns3:hr>123</ns3:hr>
            <ns3:cad>53</ns3:cad>
          </ns3:TrackPointExtension>
        </extensions>
      </trkpt>
      <trkpt lat="45.344851277768611907958984375" lon="-70.9815983287990093231201171875">
        <ele>616</ele>
        <time>2026-08-21T18:47:35.000Z</time>
        <extensions>
          <ns3:TrackPointExtension>
            <ns3:hr>123</ns3:hr>
            <ns3:cad>53</ns3:cad>
          </ns3:TrackPointExtension>
        </extensions>
      </trkpt>
      <trkpt lat="45.3448400460183620452880859375" lon="-70.9815996699035167694091796875">
        <ele>616</ele>
        <time>2026-08-21T18:47:36.000Z</time>
        <extensions>
          <ns3:TrackPointExtension>
            <ns3:hr>122</ns3:hr>
            <ns3:cad>52</ns3:cad>
          </ns3:TrackPointExtension>
        </extensions>
      </trkpt>
      <trkpt lat="45.3448296524584293365478515625" lon="-70.9815989993512630462646484375">
        <ele>616</ele>
        <time>2026-08-21T18:47:37.000Z</time>
        <extensions>
          <ns3:TrackPointExtension>
            <ns3:hr>122</ns3:hr>
            <ns3:cad>52</ns3:cad>
          </ns3:TrackPointExtension>
        </extensions>
      </trkpt>
      <trkpt lat="45.34481766633689403533935546875" lon="-70.9815998375415802001953125">
        <ele>616</ele>
        <time>2026-08-21T18:47:38.000Z</time>
        <extensions>
          <ns3:TrackPointExtension>
            <ns3:hr>122</ns3:hr>
            <ns3:cad>52</ns3:cad>
          </ns3:TrackPointExtension>
        </extensions>
      </trkpt>
      <trkpt lat="45.344806350767612457275390625" lon="-70.9815989993512630462646484375">
        <ele>616.20001220703125</ele>
        <time>2026-08-21T18:47:39.000Z</time>
        <extensions>
          <ns3:TrackPointExtension>
            <ns3:hr>122</ns3:hr>
            <ns3:cad>52</ns3:cad>
          </ns3:TrackPointExtension>
        </extensions>
      </trkpt>
      <trkpt lat="45.34480744041502475738525390625" lon="-70.98160444758832454681396484375">
        <ele>616.20001220703125</ele>
        <time>2026-08-21T18:47:40.000Z</time>
        <extensions>
          <ns3:TrackPointExtension>
            <ns3:hr>122</ns3:hr>
            <ns3:cad>52</ns3:cad>
          </ns3:TrackPointExtension>
        </extensions>
      </trkpt>
      <trkpt lat="45.3448127210140228271484375" lon="-70.9816097281873226165771484375">
        <ele>616.20001220703125</ele>
        <time>2026-08-21T18:47:41.000Z</time>
        <extensions>
          <ns3:TrackPointExtension>
            <ns3:hr>122</ns3:hr>
            <ns3:cad>0</ns3:cad>
          </ns3:TrackPointExtension>
        </extensions>
      </trkpt>
      <trkpt lat="45.34481515176594257354736328125" lon="-70.98161383531987667083740234375">
        <ele>616.20001220703125</ele>
        <time>2026-08-21T18:47:42.000Z</time>
        <extensions>
          <ns3:TrackPointExtension>
            <ns3:hr>122</ns3:hr>
            <ns3:cad>0</ns3:cad>
          </ns3:TrackPointExtension>
        </extensions>
      </trkpt>
      <trkpt lat="45.3448152355849742889404296875" lon="-70.98161417059600353240966796875">
        <ele>616.20001220703125</ele>
        <time>2026-08-21T18:47:43.000Z</time>
        <extensions>
          <ns3:TrackPointExtension>
            <ns3:hr>122</ns3:hr>
            <ns3:cad>0</ns3:cad>
          </ns3:TrackPointExtension>
        </extensions>
      </trkpt>
      <trkpt lat="45.3448152355849742889404296875" lon="-70.98161417059600353240966796875">
        <ele>616.20001220703125</ele>
        <time>2026-08-21T18:47:44.000Z</time>
        <extensions>
          <ns3:TrackPointExtension>
            <ns3:hr>122</ns3:hr>
            <ns3:cad>0</ns3:cad>
          </ns3:TrackPointExtension>
        </extensions>
      </trkpt>
      <trkpt lat="45.3448152355849742889404296875" lon="-70.98161417059600353240966796875">
        <ele>616.20001220703125</ele>
        <time>2026-08-21T18:47:45.000Z</time>
        <extensions>
          <ns3:TrackPointExtension>
            <ns3:hr>122</ns3:hr>
            <ns3:cad>0</ns3:cad>
          </ns3:TrackPointExtension>
        </extensions>
      </trkpt>
      <trkpt lat="45.34481548704206943511962890625" lon="-70.9816150926053524017333984375">
        <ele>616.20001220703125</ele>
        <time>2026-08-21T18:47:46.000Z</time>
        <extensions>
          <ns3:TrackPointExtension>
            <ns3:hr>122</ns3:hr>
            <ns3:cad>0</ns3:cad>
          </ns3:TrackPointExtension>
        </extensions>
      </trkpt>
      <trkpt lat="45.34482412040233612060546875" lon="-70.98161928355693817138671875">
        <ele>616.20001220703125</ele>
        <time>2026-08-21T18:47:47.000Z</time>
        <extensions>
          <ns3:TrackPointExtension>
            <ns3:hr>122</ns3:hr>
            <ns3:cad>0</ns3:cad>
          </ns3:TrackPointExtension>
        </extensions>
      </trkpt>
      <trkpt lat="45.34483560360968112945556640625" lon="-70.98162137903273105621337890625">
        <ele>616.20001220703125</ele>
        <time>2026-08-21T18:47:48.000Z</time>
        <extensions>
          <ns3:TrackPointExtension>
            <ns3:hr>122</ns3:hr>
            <ns3:cad>0</ns3:cad>
          </ns3:TrackPointExtension>
        </extensions>
      </trkpt>
      <trkpt lat="45.34485152922570705413818359375" lon="-70.98162221722304821014404296875">
        <ele>616</ele>
        <time>2026-08-21T18:47:49.000Z</time>
        <extensions>
          <ns3:TrackPointExtension>
            <ns3:hr>122</ns3:hr>
            <ns3:cad>0</ns3:cad>
          </ns3:TrackPointExtension>
        </extensions>
      </trkpt>
      <trkpt lat="45.3448685444891452789306640625" lon="-70.9816231392323970794677734375">
        <ele>616</ele>
        <time>2026-08-21T18:47:50.000Z</time>
        <extensions>
          <ns3:TrackPointExtension>
            <ns3:hr>121</ns3:hr>
            <ns3:cad>0</ns3:cad>
          </ns3:TrackPointExtension>
        </extensions>
      </trkpt>
      <trkpt lat="45.34488354809582233428955078125" lon="-70.9816254861652851104736328125">
        <ele>615.79998779296875</ele>
        <time>2026-08-21T18:47:51.000Z</time>
        <extensions>
          <ns3:TrackPointExtension>
            <ns3:hr>121</ns3:hr>
            <ns3:cad>0</ns3:cad>
          </ns3:TrackPointExtension>
        </extensions>
      </trkpt>
      <trkpt lat="45.34489729441702365875244140625" lon="-70.98162640817463397979736328125">
        <ele>615.79998779296875</ele>
        <time>2026-08-21T18:47:52.000Z</time>
        <extensions>
          <ns3:TrackPointExtension>
            <ns3:hr>120</ns3:hr>
            <ns3:cad>56</ns3:cad>
          </ns3:TrackPointExtension>
        </extensions>
      </trkpt>
      <trkpt lat="45.34491137601435184478759765625" lon="-70.98162707872688770294189453125">
        <ele>615.79998779296875</ele>
        <time>2026-08-21T18:47:53.000Z</time>
        <extensions>
          <ns3:TrackPointExtension>
            <ns3:hr>120</ns3:hr>
            <ns3:cad>56</ns3:cad>
          </ns3:TrackPointExtension>
        </extensions>
      </trkpt>
      <trkpt lat="45.3449245356023311614990234375" lon="-70.9816258214414119720458984375">
        <ele>615.5999755859375</ele>
        <time>2026-08-21T18:47:54.000Z</time>
        <extensions>
          <ns3:TrackPointExtension>
            <ns3:hr>120</ns3:hr>
            <ns3:cad>59</ns3:cad>
          </ns3:TrackPointExtension>
        </extensions>
      </trkpt>
      <trkpt lat="45.3449376113712787628173828125" lon="-70.9816285036504268646240234375">
        <ele>615.5999755859375</ele>
        <time>2026-08-21T18:47:55.000Z</time>
        <extensions>
          <ns3:TrackPointExtension>
            <ns3:hr>120</ns3:hr>
            <ns3:cad>59</ns3:cad>
          </ns3:TrackPointExtension>
        </extensions>
      </trkpt>
      <trkpt lat="45.34495060332119464874267578125" lon="-70.98162758164107799530029296875">
        <ele>615.5999755859375</ele>
        <time>2026-08-21T18:47:56.000Z</time>
        <extensions>
          <ns3:TrackPointExtension>
            <ns3:hr>120</ns3:hr>
            <ns3:cad>59</ns3:cad>
          </ns3:TrackPointExtension>
        </extensions>
      </trkpt>
      <trkpt lat="45.34496434964239597320556640625" lon="-70.98162733018398284912109375">
        <ele>615.5999755859375</ele>
        <time>2026-08-21T18:47:57.000Z</time>
        <extensions>
          <ns3:TrackPointExtension>
            <ns3:hr>120</ns3:hr>
            <ns3:cad>59</ns3:cad>
          </ns3:TrackPointExtension>
        </extensions>
      </trkpt>
      <trkpt lat="45.34497826360166072845458984375" lon="-70.98162674345076084136962890625">
        <ele>615.4000244140625</ele>
        <time>2026-08-21T18:47:58.000Z</time>
        <extensions>
          <ns3:TrackPointExtension>
            <ns3:hr>121</ns3:hr>
            <ns3:cad>59</ns3:cad>
          </ns3:TrackPointExtension>
        </extensions>
      </trkpt>
      <trkpt lat="45.3449892438948154449462890625" lon="-70.9816266596317291259765625">
        <ele>615.4000244140625</ele>
        <time>2026-08-21T18:47:59.000Z</time>
        <extensions>
          <ns3:TrackPointExtension>
            <ns3:hr>121</ns3:hr>
            <ns3:cad>58</ns3:cad>
          </ns3:TrackPointExtension>
        </extensions>
      </trkpt>
      <trkpt lat="45.34500190056860446929931640625" lon="-70.9816311858594417572021484375">
        <ele>615.5999755859375</ele>
        <time>2026-08-21T18:48:00.000Z</time>
        <extensions>
          <ns3:TrackPointExtension>
            <ns3:hr>122</ns3:hr>
            <ns3:cad>58</ns3:cad>
          </ns3:TrackPointExtension>
        </extensions>
      </trkpt>
      <trkpt lat="45.3450184129178524017333984375" lon="-70.98163093440234661102294921875">
        <ele>615.4000244140625</ele>
        <time>2026-08-21T18:48:01.000Z</time>
        <extensions>
          <ns3:TrackPointExtension>
            <ns3:hr>122</ns3:hr>
            <ns3:cad>57</ns3:cad>
          </ns3:TrackPointExtension>
        </extensions>
      </trkpt>
      <trkpt lat="45.3450288064777851104736328125" lon="-70.98163663409650325775146484375">
        <ele>615.4000244140625</ele>
        <time>2026-08-21T18:48:02.000Z</time>
        <extensions>
          <ns3:TrackPointExtension>
            <ns3:hr>122</ns3:hr>
            <ns3:cad>57</ns3:cad>
          </ns3:TrackPointExtension>
        </extensions>
      </trkpt>
      <trkpt lat="45.34504406154155731201171875" lon="-70.98163680173456668853759765625">
        <ele>615.4000244140625</ele>
        <time>2026-08-21T18:48:03.000Z</time>
        <extensions>
          <ns3:TrackPointExtension>
            <ns3:hr>122</ns3:hr>
            <ns3:cad>57</ns3:cad>
          </ns3:TrackPointExtension>
        </extensions>
      </trkpt>
      <trkpt lat="45.345060490071773529052734375" lon="-70.98163562826812267303466796875">
        <ele>615.4000244140625</ele>
        <time>2026-08-21T18:48:04.000Z</time>
        <extensions>
          <ns3:TrackPointExtension>
            <ns3:hr>122</ns3:hr>
            <ns3:cad>57</ns3:cad>
          </ns3:TrackPointExtension>
        </extensions>
      </trkpt>
      <trkpt lat="45.34507356584072113037109375" lon="-70.98163763992488384246826171875">
        <ele>615.20001220703125</ele>
        <time>2026-08-21T18:48:05.000Z</time>
        <extensions>
          <ns3:TrackPointExtension>
            <ns3:hr>122</ns3:hr>
            <ns3:cad>57</ns3:cad>
          </ns3:TrackPointExtension>
        </extensions>
      </trkpt>
      <trkpt lat="45.34508538432419300079345703125" lon="-70.98163696937263011932373046875">
        <ele>615.20001220703125</ele>
        <time>2026-08-21T18:48:06.000Z</time>
        <extensions>
          <ns3:TrackPointExtension>
            <ns3:hr>122</ns3:hr>
            <ns3:cad>57</ns3:cad>
          </ns3:TrackPointExtension>
        </extensions>
      </trkpt>
      <trkpt lat="45.345102064311504364013671875" lon="-70.9816325269639492034912109375">
        <ele>615</ele>
        <time>2026-08-21T18:48:07.000Z</time>
        <extensions>
          <ns3:TrackPointExtension>
            <ns3:hr>121</ns3:hr>
            <ns3:cad>57</ns3:cad>
          </ns3:TrackPointExtension>
        </extensions>
      </trkpt>
      <trkpt lat="45.34511555917561054229736328125" lon="-70.9816278330981731414794921875">
        <ele>615</ele>
        <time>2026-08-21T18:48:08.000Z</time>
        <extensions>
          <ns3:TrackPointExtension>
            <ns3:hr>120</ns3:hr>
            <ns3:cad>57</ns3:cad>
          </ns3:TrackPointExtension>
        </extensions>
      </trkpt>
      <trkpt lat="45.34512989223003387451171875" lon="-70.98162556998431682586669921875">
        <ele>615</ele>
        <time>2026-08-21T18:48:09.000Z</time>
        <extensions>
          <ns3:TrackPointExtension>
            <ns3:hr>120</ns3:hr>
            <ns3:cad>56</ns3:cad>
          </ns3:TrackPointExtension>
        </extensions>
      </trkpt>
      <trkpt lat="45.34514355473220348358154296875" lon="-70.98162506707012653350830078125">
        <ele>614.79998779296875</ele>
        <time>2026-08-21T18:48:10.000Z</time>
        <extensions>
          <ns3:TrackPointExtension>
            <ns3:hr>120</ns3:hr>
            <ns3:cad>56</ns3:cad>
          </ns3:TrackPointExtension>
        </extensions>
      </trkpt>
      <trkpt lat="45.34515537321567535400390625" lon="-70.981626324355602264404296875">
        <ele>614.79998779296875</ele>
        <time>2026-08-21T18:48:11.000Z</time>
        <extensions>
          <ns3:TrackPointExtension>
            <ns3:hr>120</ns3:hr>
            <ns3:cad>55</ns3:cad>
          </ns3:TrackPointExtension>
        </extensions>
      </trkpt>
      <trkpt lat="45.3451676107943058013916015625" lon="-70.98162858746945858001708984375">
        <ele>614.79998779296875</ele>
        <time>2026-08-21T18:48:12.000Z</time>
        <extensions>
          <ns3:TrackPointExtension>
            <ns3:hr>120</ns3:hr>
            <ns3:cad>56</ns3:cad>
          </ns3:TrackPointExtension>
        </extensions>
      </trkpt>
      <trkpt lat="45.34518085420131683349609375" lon="-70.98163068294525146484375">
        <ele>614.79998779296875</ele>
        <time>2026-08-21T18:48:13.000Z</time>
        <extensions>
          <ns3:TrackPointExtension>
            <ns3:hr>120</ns3:hr>
            <ns3:cad>56</ns3:cad>
          </ns3:TrackPointExtension>
        </extensions>
      </trkpt>
      <trkpt lat="45.3451962769031524658203125" lon="-70.98163428716361522674560546875">
        <ele>614.5999755859375</ele>
        <time>2026-08-21T18:48:14.000Z</time>
        <extensions>
          <ns3:TrackPointExtension>
            <ns3:hr>119</ns3:hr>
            <ns3:cad>57</ns3:cad>
          </ns3:TrackPointExtension>
        </extensions>
      </trkpt>
      <trkpt lat="45.34521060995757579803466796875" lon="-70.9816342033445835113525390625">
        <ele>614.5999755859375</ele>
        <time>2026-08-21T18:48:15.000Z</time>
        <extensions>
          <ns3:TrackPointExtension>
            <ns3:hr>119</ns3:hr>
            <ns3:cad>57</ns3:cad>
          </ns3:TrackPointExtension>
        </extensions>
      </trkpt>
      <trkpt lat="45.34522511065006256103515625" lon="-70.9816301800310611724853515625">
        <ele>614.5999755859375</ele>
        <time>2026-08-21T18:48:16.000Z</time>
        <extensions>
          <ns3:TrackPointExtension>
            <ns3:hr>119</ns3:hr>
            <ns3:cad>57</ns3:cad>
          </ns3:TrackPointExtension>
        </extensions>
      </trkpt>
      <trkpt lat="45.3452370129525661468505859375" lon="-70.98162758164107799530029296875">
        <ele>614.4000244140625</ele>
        <time>2026-08-21T18:48:17.000Z</time>
        <extensions>
          <ns3:TrackPointExtension>
            <ns3:hr>119</ns3:hr>
            <ns3:cad>57</ns3:cad>
          </ns3:TrackPointExtension>
        </extensions>
      </trkpt>
      <trkpt lat="45.3452531062066555023193359375" lon="-70.98163068294525146484375">
        <ele>614.4000244140625</ele>
        <time>2026-08-21T18:48:18.000Z</time>
        <extensions>
          <ns3:TrackPointExtension>
            <ns3:hr>119</ns3:hr>
            <ns3:cad>57</ns3:cad>
          </ns3:TrackPointExtension>
        </extensions>
      </trkpt>
      <trkpt lat="45.34526760689914226531982421875" lon="-70.98162825219333171844482421875">
        <ele>614.4000244140625</ele>
        <time>2026-08-21T18:48:19.000Z</time>
        <extensions>
          <ns3:TrackPointExtension>
            <ns3:hr>119</ns3:hr>
            <ns3:cad>58</ns3:cad>
          </ns3:TrackPointExtension>
        </extensions>
      </trkpt>
      <trkpt lat="45.3452821075916290283203125" lon="-70.9816295094788074493408203125">
        <ele>614.4000244140625</ele>
        <time>2026-08-21T18:48:20.000Z</time>
        <extensions>
          <ns3:TrackPointExtension>
            <ns3:hr>117</ns3:hr>
            <ns3:cad>58</ns3:cad>
          </ns3:TrackPointExtension>
        </extensions>
      </trkpt>
      <trkpt lat="45.345296524465084075927734375" lon="-70.9816338680684566497802734375">
        <ele>614.4000244140625</ele>
        <time>2026-08-21T18:48:21.000Z</time>
        <extensions>
          <ns3:TrackPointExtension>
            <ns3:hr>115</ns3:hr>
            <ns3:cad>58</ns3:cad>
          </ns3:TrackPointExtension>
        </extensions>
      </trkpt>
      <trkpt lat="45.3453141264617443084716796875" lon="-70.9816335327923297882080078125">
        <ele>614.4000244140625</ele>
        <time>2026-08-21T18:48:22.000Z</time>
        <extensions>
          <ns3:TrackPointExtension>
            <ns3:hr>113</ns3:hr>
            <ns3:cad>58</ns3:cad>
          </ns3:TrackPointExtension>
        </extensions>
      </trkpt>
      <trkpt lat="45.34533164463937282562255859375" lon="-70.9816338680684566497802734375">
        <ele>614.4000244140625</ele>
        <time>2026-08-21T18:48:23.000Z</time>
        <extensions>
          <ns3:TrackPointExtension>
            <ns3:hr>112</ns3:hr>
            <ns3:cad>58</ns3:cad>
          </ns3:TrackPointExtension>
        </extensions>
      </trkpt>
      <trkpt lat="45.345348156988620758056640625" lon="-70.9816331975162029266357421875">
        <ele>614.4000244140625</ele>
        <time>2026-08-21T18:48:24.000Z</time>
        <extensions>
          <ns3:TrackPointExtension>
            <ns3:hr>112</ns3:hr>
            <ns3:cad>58</ns3:cad>
          </ns3:TrackPointExtension>
        </extensions>
      </trkpt>
      <trkpt lat="45.345368944108486175537109375" lon="-70.981630347669124603271484375">
        <ele>614.4000244140625</ele>
        <time>2026-08-21T18:48:25.000Z</time>
        <extensions>
          <ns3:TrackPointExtension>
            <ns3:hr>113</ns3:hr>
            <ns3:cad>58</ns3:cad>
          </ns3:TrackPointExtension>
        </extensions>
      </trkpt>
      <trkpt lat="45.34539149142801761627197265625" lon="-70.9816271625459194183349609375">
        <ele>614.4000244140625</ele>
        <time>2026-08-21T18:48:26.000Z</time>
        <extensions>
          <ns3:TrackPointExtension>
            <ns3:hr>113</ns3:hr>
            <ns3:cad>58</ns3:cad>
          </ns3:TrackPointExtension>
        </extensions>
      </trkpt>
      <trkpt lat="45.34541261382400989532470703125" lon="-70.9816238097846508026123046875">
        <ele>614.20001220703125</ele>
        <time>2026-08-21T18:48:27.000Z</time>
        <extensions>
          <ns3:TrackPointExtension>
            <ns3:hr>113</ns3:hr>
            <ns3:cad>58</ns3:cad>
          </ns3:TrackPointExtension>
        </extensions>
      </trkpt>
      <trkpt lat="45.34543373622000217437744140625" lon="-70.98161886446177959442138671875">
        <ele>614.20001220703125</ele>
        <time>2026-08-21T18:48:28.000Z</time>
        <extensions>
          <ns3:TrackPointExtension>
            <ns3:hr>114</ns3:hr>
            <ns3:cad>58</ns3:cad>
          </ns3:TrackPointExtension>
        </extensions>
      </trkpt>
      <trkpt lat="45.34545871429145336151123046875" lon="-70.9816100634634494781494140625">
        <ele>614</ele>
        <time>2026-08-21T18:48:29.000Z</time>
        <extensions>
          <ns3:TrackPointExtension>
            <ns3:hr>115</ns3:hr>
            <ns3:cad>80</ns3:cad>
          </ns3:TrackPointExtension>
        </extensions>
      </trkpt>
      <trkpt lat="45.3454834409058094024658203125" lon="-70.981602855026721954345703125">
        <ele>614</ele>
        <time>2026-08-21T18:48:30.000Z</time>
        <extensions>
          <ns3:TrackPointExtension>
            <ns3:hr>115</ns3:hr>
            <ns3:cad>80</ns3:cad>
          </ns3:TrackPointExtension>
        </extensions>
      </trkpt>
      <trkpt lat="45.34550816752016544342041015625" lon="-70.9815949760377407073974609375">
        <ele>614</ele>
        <time>2026-08-21T18:48:31.000Z</time>
        <extensions>
          <ns3:TrackPointExtension>
            <ns3:hr>115</ns3:hr>
            <ns3:cad>82</ns3:cad>
          </ns3:TrackPointExtension>
        </extensions>
      </trkpt>
      <trkpt lat="45.34553624689579010009765625" lon="-70.98158399574458599090576171875">
        <ele>613.79998779296875</ele>
        <time>2026-08-21T18:48:32.000Z</time>
        <extensions>
          <ns3:TrackPointExtension>
            <ns3:hr>116</ns3:hr>
            <ns3:cad>83</ns3:cad>
          </ns3:TrackPointExtension>
        </extensions>
      </trkpt>
      <trkpt lat="45.34556231461465358734130859375" lon="-70.981571674346923828125">
        <ele>613.79998779296875</ele>
        <time>2026-08-21T18:48:33.000Z</time>
        <extensions>
          <ns3:TrackPointExtension>
            <ns3:hr>116</ns3:hr>
            <ns3:cad>83</ns3:cad>
          </ns3:TrackPointExtension>
        </extensions>
      </trkpt>
      <trkpt lat="45.34559098072350025177001953125" lon="-70.98155499435961246490478515625">
        <ele>613.79998779296875</ele>
        <time>2026-08-21T18:48:34.000Z</time>
        <extensions>
          <ns3:TrackPointExtension>
            <ns3:hr>117</ns3:hr>
            <ns3:cad>83</ns3:cad>
          </ns3:TrackPointExtension>
        </extensions>
      </trkpt>
      <trkpt lat="45.345613695681095123291015625" lon="-70.981537140905857086181640625">
        <ele>613.79998779296875</ele>
        <time>2026-08-21T18:48:35.000Z</time>
        <extensions>
          <ns3:TrackPointExtension>
            <ns3:hr>119</ns3:hr>
            <ns3:cad>83</ns3:cad>
          </ns3:TrackPointExtension>
        </extensions>
      </trkpt>
      <trkpt lat="45.345637835562229156494140625" lon="-70.98151526413857936859130859375">
        <ele>613.79998779296875</ele>
        <time>2026-08-21T18:48:36.000Z</time>
        <extensions>
          <ns3:TrackPointExtension>
            <ns3:hr>119</ns3:hr>
            <ns3:cad>84</ns3:cad>
          </ns3:TrackPointExtension>
        </extensions>
      </trkpt>
      <trkpt lat="45.3456621430814266204833984375" lon="-70.98149229772388935089111328125">
        <ele>613.5999755859375</ele>
        <time>2026-08-21T18:48:37.000Z</time>
        <extensions>
          <ns3:TrackPointExtension>
            <ns3:hr>119</ns3:hr>
            <ns3:cad>84</ns3:cad>
          </ns3:TrackPointExtension>
        </extensions>
      </trkpt>
      <trkpt lat="45.3456795774400234222412109375" lon="-70.9814648889005184173583984375">
        <ele>613.5999755859375</ele>
        <time>2026-08-21T18:48:38.000Z</time>
        <extensions>
          <ns3:TrackPointExtension>
            <ns3:hr>121</ns3:hr>
            <ns3:cad>84</ns3:cad>
          </ns3:TrackPointExtension>
        </extensions>
      </trkpt>
      <trkpt lat="45.34569810144603252410888671875" lon="-70.98143463023006916046142578125">
        <ele>613.4000244140625</ele>
        <time>2026-08-21T18:48:39.000Z</time>
        <extensions>
          <ns3:TrackPointExtension>
            <ns3:hr>121</ns3:hr>
            <ns3:cad>82</ns3:cad>
          </ns3:TrackPointExtension>
        </extensions>
      </trkpt>
      <trkpt lat="45.3457139432430267333984375" lon="-70.98140202462673187255859375">
        <ele>613.4000244140625</ele>
        <time>2026-08-21T18:48:40.000Z</time>
        <extensions>
          <ns3:TrackPointExtension>
            <ns3:hr>121</ns3:hr>
            <ns3:cad>82</ns3:cad>
          </ns3:TrackPointExtension>
        </extensions>
      </trkpt>
      <trkpt lat="45.34572659991681575775146484375" lon="-70.98136849701404571533203125">
        <ele>613.20001220703125</ele>
        <time>2026-08-21T18:48:41.000Z</time>
        <extensions>
          <ns3:TrackPointExtension>
            <ns3:hr>121</ns3:hr>
            <ns3:cad>82</ns3:cad>
          </ns3:TrackPointExtension>
        </extensions>
      </trkpt>
      <trkpt lat="45.34574101679027080535888671875" lon="-70.9813354723155498504638671875">
        <ele>613.20001220703125</ele>
        <time>2026-08-21T18:48:42.000Z</time>
        <extensions>
          <ns3:TrackPointExtension>
            <ns3:hr>121</ns3:hr>
            <ns3:cad>83</ns3:cad>
          </ns3:TrackPointExtension>
        </extensions>
      </trkpt>
      <trkpt lat="45.34575627185404300689697265625" lon="-70.98130169324576854705810546875">
        <ele>613.20001220703125</ele>
        <time>2026-08-21T18:48:43.000Z</time>
        <extensions>
          <ns3:TrackPointExtension>
            <ns3:hr>121</ns3:hr>
            <ns3:cad>83</ns3:cad>
          </ns3:TrackPointExtension>
        </extensions>
      </trkpt>
      <trkpt lat="45.34576934762299060821533203125" lon="-70.981270261108875274658203125">
        <ele>613</ele>
        <time>2026-08-21T18:48:44.000Z</time>
        <extensions>
          <ns3:TrackPointExtension>
            <ns3:hr>122</ns3:hr>
            <ns3:cad>83</ns3:cad>
          </ns3:TrackPointExtension>
        </extensions>
      </trkpt>
      <trkpt lat="45.34578074701130390167236328125" lon="-70.9812352247536182403564453125">
        <ele>613</ele>
        <time>2026-08-21T18:48:45.000Z</time>
        <extensions>
          <ns3:TrackPointExtension>
            <ns3:hr>122</ns3:hr>
            <ns3:cad>83</ns3:cad>
          </ns3:TrackPointExtension>
        </extensions>
      </trkpt>
      <trkpt lat="45.3457929007709026336669921875" lon="-70.981201194226741790771484375">
        <ele>612.79998779296875</ele>
        <time>2026-08-21T18:48:46.000Z</time>
        <extensions>
          <ns3:TrackPointExtension>
            <ns3:hr>122</ns3:hr>
            <ns3:cad>83</ns3:cad>
          </ns3:TrackPointExtension>
        </extensions>
      </trkpt>
      <trkpt lat="45.3458029590547084808349609375" lon="-70.98116691224277019500732421875">
        <ele>612.79998779296875</ele>
        <time>2026-08-21T18:48:47.000Z</time>
        <extensions>
          <ns3:TrackPointExtension>
            <ns3:hr>122</ns3:hr>
            <ns3:cad>83</ns3:cad>
          </ns3:TrackPointExtension>
        </extensions>
      </trkpt>
      <trkpt lat="45.3458126820623874664306640625" lon="-70.98113204352557659149169921875">
        <ele>612.5999755859375</ele>
        <time>2026-08-21T18:48:48.000Z</time>
        <extensions>
          <ns3:TrackPointExtension>
            <ns3:hr>122</ns3:hr>
            <ns3:cad>83</ns3:cad>
          </ns3:TrackPointExtension>
        </extensions>
      </trkpt>
      <trkpt lat="45.3458260931074619293212890625" lon="-70.98110086284577846527099609375">
        <ele>612.5999755859375</ele>
        <time>2026-08-21T18:48:49.000Z</time>
        <extensions>
          <ns3:TrackPointExtension>
            <ns3:hr>122</ns3:hr>
            <ns3:cad>82</ns3:cad>
          </ns3:TrackPointExtension>
        </extensions>
      </trkpt>
      <trkpt lat="45.3458371572196483612060546875" lon="-70.98106884397566318511962890625">
        <ele>612.4000244140625</ele>
        <time>2026-08-21T18:48:50.000Z</time>
        <extensions>
          <ns3:TrackPointExtension>
            <ns3:hr>123</ns3:hr>
            <ns3:cad>82</ns3:cad>
          </ns3:TrackPointExtension>
        </extensions>
      </trkpt>
      <trkpt lat="45.34584629349410533905029296875" lon="-70.98103590309619903564453125">
        <ele>612.4000244140625</ele>
        <time>2026-08-21T18:48:51.000Z</time>
        <extensions>
          <ns3:TrackPointExtension>
            <ns3:hr>123</ns3:hr>
            <ns3:cad>82</ns3:cad>
          </ns3:TrackPointExtension>
        </extensions>
      </trkpt>
      <trkpt lat="45.3458586148917675018310546875" lon="-70.98100095055997371673583984375">
        <ele>612.20001220703125</ele>
        <time>2026-08-21T18:48:52.000Z</time>
        <extensions>
          <ns3:TrackPointExtension>
            <ns3:hr>123</ns3:hr>
            <ns3:cad>82</ns3:cad>
          </ns3:TrackPointExtension>
        </extensions>
      </trkpt>
      <trkpt lat="45.34586925990879535675048828125" lon="-70.98096440546214580535888671875">
        <ele>612</ele>
        <time>2026-08-21T18:48:53.000Z</time>
        <extensions>
          <ns3:TrackPointExtension>
            <ns3:hr>124</ns3:hr>
            <ns3:cad>82</ns3:cad>
          </ns3:TrackPointExtension>
        </extensions>
      </trkpt>
      <trkpt lat="45.34588091075420379638671875" lon="-70.9809321351349353790283203125">
        <ele>612</ele>
        <time>2026-08-21T18:48:54.000Z</time>
        <extensions>
          <ns3:TrackPointExtension>
            <ns3:hr>124</ns3:hr>
            <ns3:cad>82</ns3:cad>
          </ns3:TrackPointExtension>
        </extensions>
      </trkpt>
      <trkpt lat="45.3458934836089611053466796875" lon="-70.9808959253132343292236328125">
        <ele>611.79998779296875</ele>
        <time>2026-08-21T18:48:55.000Z</time>
        <extensions>
          <ns3:TrackPointExtension>
            <ns3:hr>124</ns3:hr>
            <ns3:cad>82</ns3:cad>
          </ns3:TrackPointExtension>
        </extensions>
      </trkpt>
      <trkpt lat="45.3459052182734012603759765625" lon="-70.98085342906415462493896484375">
        <ele>611.5999755859375</ele>
        <time>2026-08-21T18:48:56.000Z</time>
        <extensions>
          <ns3:TrackPointExtension>
            <ns3:hr>125</ns3:hr>
            <ns3:cad>82</ns3:cad>
          </ns3:TrackPointExtension>
        </extensions>
      </trkpt>
      <trkpt lat="45.34591636620461940765380859375" lon="-70.9808174706995487213134765625">
        <ele>611.5999755859375</ele>
        <time>2026-08-21T18:48:57.000Z</time>
        <extensions>
          <ns3:TrackPointExtension>
            <ns3:hr>125</ns3:hr>
            <ns3:cad>82</ns3:cad>
          </ns3:TrackPointExtension>
        </extensions>
      </trkpt>
      <trkpt lat="45.345925502479076385498046875" lon="-70.9807852841913700103759765625">
        <ele>611.5999755859375</ele>
        <time>2026-08-21T18:48:58.000Z</time>
        <extensions>
          <ns3:TrackPointExtension>
            <ns3:hr>125</ns3:hr>
            <ns3:cad>82</ns3:cad>
          </ns3:TrackPointExtension>
        </extensions>
      </trkpt>
      <trkpt lat="45.34593522548675537109375" lon="-70.9807737171649932861328125">
        <ele>611.4000244140625</ele>
        <time>2026-08-21T18:48:59.000Z</time>
        <extensions>
          <ns3:TrackPointExtension>
            <ns3:hr>126</ns3:hr>
            <ns3:cad>41</ns3:cad>
          </ns3:TrackPointExtension>
        </extensions>
      </trkpt>
      <trkpt lat="45.34594126045703887939453125" lon="-70.9807675145566463470458984375">
        <ele>611.4000244140625</ele>
        <time>2026-08-21T18:49:00.000Z</time>
        <extensions>
          <ns3:TrackPointExtension>
            <ns3:hr>126</ns3:hr>
            <ns3:cad>41</ns3:cad>
          </ns3:TrackPointExtension>
        </extensions>
      </trkpt>
      <trkpt lat="45.3459420986473560333251953125" lon="-70.98076499998569488525390625">
        <ele>611.4000244140625</ele>
        <time>2026-08-21T18:49:01.000Z</time>
        <extensions>
          <ns3:TrackPointExtension>
            <ns3:hr>126</ns3:hr>
            <ns3:cad>0</ns3:cad>
          </ns3:TrackPointExtension>
        </extensions>
      </trkpt>
      <trkpt lat="45.3459481336176395416259765625" lon="-70.98075502552092075347900390625">
        <ele>611.4000244140625</ele>
        <time>2026-08-21T18:49:02.000Z</time>
        <extensions>
          <ns3:TrackPointExtension>
            <ns3:hr>126</ns3:hr>
            <ns3:cad>0</ns3:cad>
          </ns3:TrackPointExtension>
        </extensions>
      </trkpt>
      <trkpt lat="45.345949642360210418701171875" lon="-70.980734489858150482177734375">
        <ele>611.20001220703125</ele>
        <time>2026-08-21T18:49:03.000Z</time>
        <extensions>
          <ns3:TrackPointExtension>
            <ns3:hr>126</ns3:hr>
            <ns3:cad>0</ns3:cad>
          </ns3:TrackPointExtension>
        </extensions>
      </trkpt>
      <trkpt lat="45.3459491394460201263427734375" lon="-70.98071814514696598052978515625">
        <ele>611.20001220703125</ele>
        <time>2026-08-21T18:49:04.000Z</time>
        <extensions>
          <ns3:TrackPointExtension>
            <ns3:hr>126</ns3:hr>
            <ns3:cad>0</ns3:cad>
          </ns3:TrackPointExtension>
        </extensions>
      </trkpt>
      <trkpt lat="45.34594872035086154937744140625" lon="-70.98070641048252582550048828125">
        <ele>611.20001220703125</ele>
        <time>2026-08-21T18:49:05.000Z</time>
        <extensions>
          <ns3:TrackPointExtension>
            <ns3:hr>125</ns3:hr>
            <ns3:cad>0</ns3:cad>
          </ns3:TrackPointExtension>
        </extensions>
      </trkpt>
      <trkpt lat="45.34594218246638774871826171875" lon="-70.98070867359638214111328125">
        <ele>611.4000244140625</ele>
        <time>2026-08-21T18:49:06.000Z</time>
        <extensions>
          <ns3:TrackPointExtension>
            <ns3:hr>125</ns3:hr>
            <ns3:cad>0</ns3:cad>
          </ns3:TrackPointExtension>
        </extensions>
      </trkpt>
      <trkpt lat="45.34593279473483562469482421875" lon="-70.98070674575865268707275390625">
        <ele>611.4000244140625</ele>
        <time>2026-08-21T18:49:07.000Z</time>
        <extensions>
          <ns3:TrackPointExtension>
            <ns3:hr>125</ns3:hr>
            <ns3:cad>47</ns3:cad>
          </ns3:TrackPointExtension>
        </extensions>
      </trkpt>
      <trkpt lat="45.34592424519360065460205078125" lon="-70.9807026386260986328125">
        <ele>611.4000244140625</ele>
        <time>2026-08-21T18:49:08.000Z</time>
        <extensions>
          <ns3:TrackPointExtension>
            <ns3:hr>124</ns3:hr>
            <ns3:cad>47</ns3:cad>
          </ns3:TrackPointExtension>
        </extensions>
      </trkpt>
      <trkpt lat="45.34591804258525371551513671875" lon="-70.98070389591157436370849609375">
        <ele>611.20001220703125</ele>
        <time>2026-08-21T18:49:09.000Z</time>
        <extensions>
          <ns3:TrackPointExtension>
            <ns3:hr>124</ns3:hr>
            <ns3:cad>47</ns3:cad>
          </ns3:TrackPointExtension>
        </extensions>
      </trkpt>
      <trkpt lat="45.3459112532436847686767578125" lon="-70.98069920204579830169677734375">
        <ele>611.20001220703125</ele>
        <time>2026-08-21T18:49:10.000Z</time>
        <extensions>
          <ns3:TrackPointExtension>
            <ns3:hr>122</ns3:hr>
            <ns3:cad>47</ns3:cad>
          </ns3:TrackPointExtension>
        </extensions>
      </trkpt>
      <trkpt lat="45.34590396098792552947998046875" lon="-70.98069350235164165496826171875">
        <ele>611</ele>
        <time>2026-08-21T18:49:11.000Z</time>
        <extensions>
          <ns3:TrackPointExtension>
            <ns3:hr>122</ns3:hr>
            <ns3:cad>0</ns3:cad>
          </ns3:TrackPointExtension>
        </extensions>
      </trkpt>
      <trkpt lat="45.34589624963700771331787109375" lon="-70.9806813485920429229736328125">
        <ele>610.79998779296875</ele>
        <time>2026-08-21T18:49:12.000Z</time>
        <extensions>
          <ns3:TrackPointExtension>
            <ns3:hr>122</ns3:hr>
            <ns3:cad>0</ns3:cad>
          </ns3:TrackPointExtension>
        </extensions>
      </trkpt>
      <trkpt lat="45.34588585607707500457763671875" lon="-70.98067489452660083770751953125">
        <ele>610.5999755859375</ele>
        <time>2026-08-21T18:49:13.000Z</time>
        <extensions>
          <ns3:TrackPointExtension>
            <ns3:hr>121</ns3:hr>
            <ns3:cad>0</ns3:cad>
          </ns3:TrackPointExtension>
        </extensions>
      </trkpt>
      <trkpt lat="45.3458787314593791961669921875" lon="-70.98067305050790309906005859375">
        <ele>610.4000244140625</ele>
        <time>2026-08-21T18:49:14.000Z</time>
        <extensions>
          <ns3:TrackPointExtension>
            <ns3:hr>120</ns3:hr>
            <ns3:cad>0</ns3:cad>
          </ns3:TrackPointExtension>
        </extensions>
      </trkpt>
      <trkpt lat="45.3458733670413494110107421875" lon="-70.98067053593695163726806640625">
        <ele>610.4000244140625</ele>
        <time>2026-08-21T18:49:15.000Z</time>
        <extensions>
          <ns3:TrackPointExtension>
            <ns3:hr>121</ns3:hr>
            <ns3:cad>0</ns3:cad>
          </ns3:TrackPointExtension>
        </extensions>
      </trkpt>
      <trkpt lat="45.34586842171847820281982421875" lon="-70.98066634498536586761474609375">
        <ele>610.4000244140625</ele>
        <time>2026-08-21T18:49:16.000Z</time>
        <extensions>
          <ns3:TrackPointExtension>
            <ns3:hr>121</ns3:hr>
            <ns3:cad>0</ns3:cad>
          </ns3:TrackPointExtension>
        </extensions>
      </trkpt>
      <trkpt lat="45.3458586148917675018310546875" lon="-70.980668105185031890869140625">
        <ele>610.20001220703125</ele>
        <time>2026-08-21T18:49:17.000Z</time>
        <extensions>
          <ns3:TrackPointExtension>
            <ns3:hr>121</ns3:hr>
            <ns3:cad>0</ns3:cad>
          </ns3:TrackPointExtension>
        </extensions>
      </trkpt>
      <trkpt lat="45.34585501067340373992919921875" lon="-70.98066450096666812896728515625">
        <ele>610.20001220703125</ele>
        <time>2026-08-21T18:49:18.000Z</time>
        <extensions>
          <ns3:TrackPointExtension>
            <ns3:hr>121</ns3:hr>
            <ns3:cad>55</ns3:cad>
          </ns3:TrackPointExtension>
        </extensions>
      </trkpt>
      <trkpt lat="45.34585014916956424713134765625" lon="-70.9806583821773529052734375">
        <ele>610.20001220703125</ele>
        <time>2026-08-21T18:49:19.000Z</time>
        <extensions>
          <ns3:TrackPointExtension>
            <ns3:hr>121</ns3:hr>
            <ns3:cad>55</ns3:cad>
          </ns3:TrackPointExtension>
        </extensions>
      </trkpt>
      <trkpt lat="45.3458480536937713623046875" lon="-70.9806545265018939971923828125">
        <ele>610.20001220703125</ele>
        <time>2026-08-21T18:49:20.000Z</time>
        <extensions>
          <ns3:TrackPointExtension>
            <ns3:hr>126</ns3:hr>
            <ns3:cad>55</ns3:cad>
          </ns3:TrackPointExtension>
        </extensions>
      </trkpt>
      <trkpt lat="45.34584478475153446197509765625" lon="-70.9806531853973865509033203125">
        <ele>610.20001220703125</ele>
        <time>2026-08-21T18:49:21.000Z</time>
        <extensions>
          <ns3:TrackPointExtension>
            <ns3:hr>126</ns3:hr>
            <ns3:cad>0</ns3:cad>
          </ns3:TrackPointExtension>
        </extensions>
      </trkpt>
      <trkpt lat="45.3458395041525363922119140625" lon="-70.9806515090167522430419921875">
        <ele>610.20001220703125</ele>
        <time>2026-08-21T18:49:22.000Z</time>
        <extensions>
          <ns3:TrackPointExtension>
            <ns3:hr>125</ns3:hr>
            <ns3:cad>0</ns3:cad>
          </ns3:TrackPointExtension>
        </extensions>
      </trkpt>
      <trkpt lat="45.345835983753204345703125" lon="-70.98065142519772052764892578125">
        <ele>610.20001220703125</ele>
        <time>2026-08-21T18:49:23.000Z</time>
        <extensions>
          <ns3:TrackPointExtension>
            <ns3:hr>123</ns3:hr>
            <ns3:cad>0</ns3:cad>
          </ns3:TrackPointExtension>
        </extensions>
      </trkpt>
      <trkpt lat="45.34583640284836292266845703125" lon="-70.98065259866416454315185546875">
        <ele>610.20001220703125</ele>
        <time>2026-08-21T18:49:24.000Z</time>
        <extensions>
          <ns3:TrackPointExtension>
            <ns3:hr>123</ns3:hr>
            <ns3:cad>0</ns3:cad>
          </ns3:TrackPointExtension>
        </extensions>
      </trkpt>
      <trkpt lat="45.34583724103868007659912109375" lon="-70.980651341378688812255859375">
        <ele>610.20001220703125</ele>
        <time>2026-08-21T18:49:25.000Z</time>
        <extensions>
          <ns3:TrackPointExtension>
            <ns3:hr>125</ns3:hr>
            <ns3:cad>0</ns3:cad>
          </ns3:TrackPointExtension>
        </extensions>
      </trkpt>
      <trkpt lat="45.34583925269544124603271484375" lon="-70.9806511737406253814697265625">
        <ele>610.20001220703125</ele>
        <time>2026-08-21T18:49:26.000Z</time>
        <extensions>
          <ns3:TrackPointExtension>
            <ns3:hr>124</ns3:hr>
            <ns3:cad>0</ns3:cad>
          </ns3:TrackPointExtension>
        </extensions>
      </trkpt>
      <trkpt lat="45.34583874978125095367431640625" lon="-70.9806548617780208587646484375">
        <ele>610.20001220703125</ele>
        <time>2026-08-21T18:49:27.000Z</time>
        <extensions>
          <ns3:TrackPointExtension>
            <ns3:hr>124</ns3:hr>
            <ns3:cad>0</ns3:cad>
          </ns3:TrackPointExtension>
        </extensions>
      </trkpt>
      <trkpt lat="45.34583874978125095367431640625" lon="-70.9806548617780208587646484375">
        <ele>610.20001220703125</ele>
        <time>2026-08-21T18:49:28.000Z</time>
        <extensions>
          <ns3:TrackPointExtension>
            <ns3:hr>125</ns3:hr>
            <ns3:cad>0</ns3:cad>
          </ns3:TrackPointExtension>
        </extensions>
      </trkpt>
      <trkpt lat="45.34583874978125095367431640625" lon="-70.9806548617780208587646484375">
        <ele>610.20001220703125</ele>
        <time>2026-08-21T18:49:29.000Z</time>
        <extensions>
          <ns3:TrackPointExtension>
            <ns3:hr>124</ns3:hr>
            <ns3:cad>0</ns3:cad>
          </ns3:TrackPointExtension>
        </extensions>
      </trkpt>
      <trkpt lat="45.34583874978125095367431640625" lon="-70.9806548617780208587646484375">
        <ele>610</ele>
        <time>2026-08-21T18:49:30.000Z</time>
        <extensions>
          <ns3:TrackPointExtension>
            <ns3:hr>123</ns3:hr>
            <ns3:cad>0</ns3:cad>
          </ns3:TrackPointExtension>
        </extensions>
      </trkpt>
      <trkpt lat="45.34583874978125095367431640625" lon="-70.9806548617780208587646484375">
        <ele>610</ele>
        <time>2026-08-21T18:49:31.000Z</time>
        <extensions>
          <ns3:TrackPointExtension>
            <ns3:hr>123</ns3:hr>
            <ns3:cad>0</ns3:cad>
          </ns3:TrackPointExtension>
        </extensions>
      </trkpt>
      <trkpt lat="45.34583874978125095367431640625" lon="-70.9806548617780208587646484375">
        <ele>610.20001220703125</ele>
        <time>2026-08-21T18:49:32.000Z</time>
        <extensions>
          <ns3:TrackPointExtension>
            <ns3:hr>124</ns3:hr>
            <ns3:cad>0</ns3:cad>
          </ns3:TrackPointExtension>
        </extensions>
      </trkpt>
      <trkpt lat="45.3458381630480289459228515625" lon="-70.98065595142543315887451171875">
        <ele>610.20001220703125</ele>
        <time>2026-08-21T18:49:33.000Z</time>
        <extensions>
          <ns3:TrackPointExtension>
            <ns3:hr>124</ns3:hr>
            <ns3:cad>0</ns3:cad>
          </ns3:TrackPointExtension>
        </extensions>
      </trkpt>
      <trkpt lat="45.34583874978125095367431640625" lon="-70.9806548617780208587646484375">
        <ele>610.20001220703125</ele>
        <time>2026-08-21T18:49:34.000Z</time>
        <extensions>
          <ns3:TrackPointExtension>
            <ns3:hr>123</ns3:hr>
            <ns3:cad>0</ns3:cad>
          </ns3:TrackPointExtension>
        </extensions>
      </trkpt>
      <trkpt lat="45.34583874978125095367431640625" lon="-70.9806548617780208587646484375">
        <ele>610</ele>
        <time>2026-08-21T18:49:35.000Z</time>
        <extensions>
          <ns3:TrackPointExtension>
            <ns3:hr>123</ns3:hr>
            <ns3:cad>0</ns3:cad>
          </ns3:TrackPointExtension>
        </extensions>
      </trkpt>
      <trkpt lat="45.34583874978125095367431640625" lon="-70.9806548617780208587646484375">
        <ele>610</ele>
        <time>2026-08-21T18:49:36.000Z</time>
        <extensions>
          <ns3:TrackPointExtension>
            <ns3:hr>122</ns3:hr>
            <ns3:cad>0</ns3:cad>
          </ns3:TrackPointExtension>
        </extensions>
      </trkpt>
      <trkpt lat="45.34583874978125095367431640625" lon="-70.9806548617780208587646484375">
        <ele>610</ele>
        <time>2026-08-21T18:49:37.000Z</time>
        <extensions>
          <ns3:TrackPointExtension>
            <ns3:hr>122</ns3:hr>
            <ns3:cad>0</ns3:cad>
          </ns3:TrackPointExtension>
        </extensions>
      </trkpt>
      <trkpt lat="45.34583874978125095367431640625" lon="-70.9806548617780208587646484375">
        <ele>610</ele>
        <time>2026-08-21T18:49:38.000Z</time>
        <extensions>
          <ns3:TrackPointExtension>
            <ns3:hr>122</ns3:hr>
            <ns3:cad>0</ns3:cad>
          </ns3:TrackPointExtension>
        </extensions>
      </trkpt>
      <trkpt lat="45.34583874978125095367431640625" lon="-70.9806548617780208587646484375">
        <ele>609.79998779296875</ele>
        <time>2026-08-21T18:49:39.000Z</time>
        <extensions>
          <ns3:TrackPointExtension>
            <ns3:hr>122</ns3:hr>
            <ns3:cad>0</ns3:cad>
          </ns3:TrackPointExtension>
        </extensions>
      </trkpt>
      <trkpt lat="45.345837660133838653564453125" lon="-70.98065913654863834381103515625">
        <ele>609.79998779296875</ele>
        <time>2026-08-21T18:49:40.000Z</time>
        <extensions>
          <ns3:TrackPointExtension>
            <ns3:hr>121</ns3:hr>
            <ns3:cad>0</ns3:cad>
          </ns3:TrackPointExtension>
        </extensions>
      </trkpt>
      <trkpt lat="45.34583874978125095367431640625" lon="-70.9806548617780208587646484375">
        <ele>609.79998779296875</ele>
        <time>2026-08-21T18:49:41.000Z</time>
        <extensions>
          <ns3:TrackPointExtension>
            <ns3:hr>122</ns3:hr>
            <ns3:cad>0</ns3:cad>
          </ns3:TrackPointExtension>
        </extensions>
      </trkpt>
      <trkpt lat="45.34583874978125095367431640625" lon="-70.9806548617780208587646484375">
        <ele>609.79998779296875</ele>
        <time>2026-08-21T18:49:42.000Z</time>
        <extensions>
          <ns3:TrackPointExtension>
            <ns3:hr>122</ns3:hr>
            <ns3:cad>0</ns3:cad>
          </ns3:TrackPointExtension>
        </extensions>
      </trkpt>
      <trkpt lat="45.3458351455628871917724609375" lon="-70.98066332750022411346435546875">
        <ele>609.79998779296875</ele>
        <time>2026-08-21T18:49:43.000Z</time>
        <extensions>
          <ns3:TrackPointExtension>
            <ns3:hr>122</ns3:hr>
            <ns3:cad>0</ns3:cad>
          </ns3:TrackPointExtension>
        </extensions>
      </trkpt>
      <trkpt lat="45.34583874978125095367431640625" lon="-70.9806548617780208587646484375">
        <ele>609.79998779296875</ele>
        <time>2026-08-21T18:49:44.000Z</time>
        <extensions>
          <ns3:TrackPointExtension>
            <ns3:hr>121</ns3:hr>
            <ns3:cad>0</ns3:cad>
          </ns3:TrackPointExtension>
        </extensions>
      </trkpt>
      <trkpt lat="45.34583388827741146087646484375" lon="-70.98066433332860469818115234375">
        <ele>609.79998779296875</ele>
        <time>2026-08-21T18:49:45.000Z</time>
        <extensions>
          <ns3:TrackPointExtension>
            <ns3:hr>122</ns3:hr>
            <ns3:cad>0</ns3:cad>
          </ns3:TrackPointExtension>
        </extensions>
      </trkpt>
      <trkpt lat="45.34582902677357196807861328125" lon="-70.98066818900406360626220703125">
        <ele>609.79998779296875</ele>
        <time>2026-08-21T18:49:46.000Z</time>
        <extensions>
          <ns3:TrackPointExtension>
            <ns3:hr>122</ns3:hr>
            <ns3:cad>0</ns3:cad>
          </ns3:TrackPointExtension>
        </extensions>
      </trkpt>
      <trkpt lat="45.34582483582198619842529296875" lon="-70.9806709550321102142333984375">
        <ele>609.79998779296875</ele>
        <time>2026-08-21T18:49:47.000Z</time>
        <extensions>
          <ns3:TrackPointExtension>
            <ns3:hr>122</ns3:hr>
            <ns3:cad>0</ns3:cad>
          </ns3:TrackPointExtension>
        </extensions>
      </trkpt>
      <trkpt lat="45.34582550637423992156982421875" lon="-70.9806712903082370758056640625">
        <ele>609.79998779296875</ele>
        <time>2026-08-21T18:49:48.000Z</time>
        <extensions>
          <ns3:TrackPointExtension>
            <ns3:hr>122</ns3:hr>
            <ns3:cad>0</ns3:cad>
          </ns3:TrackPointExtension>
        </extensions>
      </trkpt>
      <trkpt lat="45.3458257578313350677490234375" lon="-70.98067137412726879119873046875">
        <ele>610</ele>
        <time>2026-08-21T18:49:49.000Z</time>
        <extensions>
          <ns3:TrackPointExtension>
            <ns3:hr>121</ns3:hr>
            <ns3:cad>0</ns3:cad>
          </ns3:TrackPointExtension>
        </extensions>
      </trkpt>
      <trkpt lat="45.34581997431814670562744140625" lon="-70.98067648708820343017578125">
        <ele>610</ele>
        <time>2026-08-21T18:49:50.000Z</time>
        <extensions>
          <ns3:TrackPointExtension>
            <ns3:hr>119</ns3:hr>
            <ns3:cad>0</ns3:cad>
          </ns3:TrackPointExtension>
        </extensions>
      </trkpt>
      <trkpt lat="45.34581720829010009765625" lon="-70.9806798398494720458984375">
        <ele>610</ele>
        <time>2026-08-21T18:49:51.000Z</time>
        <extensions>
          <ns3:TrackPointExtension>
            <ns3:hr>119</ns3:hr>
            <ns3:cad>0</ns3:cad>
          </ns3:TrackPointExtension>
        </extensions>
      </trkpt>
      <trkpt lat="45.34581846557557582855224609375" lon="-70.98067875020205974578857421875">
        <ele>610</ele>
        <time>2026-08-21T18:49:52.000Z</time>
        <extensions>
          <ns3:TrackPointExtension>
            <ns3:hr>118</ns3:hr>
            <ns3:cad>0</ns3:cad>
          </ns3:TrackPointExtension>
        </extensions>
      </trkpt>
      <trkpt lat="45.3458173759281635284423828125" lon="-70.98067891784012317657470703125">
        <ele>610</ele>
        <time>2026-08-21T18:49:53.000Z</time>
        <extensions>
          <ns3:TrackPointExtension>
            <ns3:hr>118</ns3:hr>
            <ns3:cad>0</ns3:cad>
          </ns3:TrackPointExtension>
        </extensions>
      </trkpt>
      <trkpt lat="45.3458173759281635284423828125" lon="-70.98067891784012317657470703125">
        <ele>609.79998779296875</ele>
        <time>2026-08-21T18:49:54.000Z</time>
        <extensions>
          <ns3:TrackPointExtension>
            <ns3:hr>118</ns3:hr>
            <ns3:cad>0</ns3:cad>
          </ns3:TrackPointExtension>
        </extensions>
      </trkpt>
      <trkpt lat="45.3458173759281635284423828125" lon="-70.98067891784012317657470703125">
        <ele>609.79998779296875</ele>
        <time>2026-08-21T18:49:55.000Z</time>
        <extensions>
          <ns3:TrackPointExtension>
            <ns3:hr>119</ns3:hr>
            <ns3:cad>0</ns3:cad>
          </ns3:TrackPointExtension>
        </extensions>
      </trkpt>
      <trkpt lat="45.3458173759281635284423828125" lon="-70.98067891784012317657470703125">
        <ele>609.79998779296875</ele>
        <time>2026-08-21T18:49:56.000Z</time>
        <extensions>
          <ns3:TrackPointExtension>
            <ns3:hr>119</ns3:hr>
            <ns3:cad>0</ns3:cad>
          </ns3:TrackPointExtension>
        </extensions>
      </trkpt>
      <trkpt lat="45.3458173759281635284423828125" lon="-70.98067891784012317657470703125">
        <ele>609.79998779296875</ele>
        <time>2026-08-21T18:49:57.000Z</time>
        <extensions>
          <ns3:TrackPointExtension>
            <ns3:hr>119</ns3:hr>
            <ns3:cad>0</ns3:cad>
          </ns3:TrackPointExtension>
        </extensions>
      </trkpt>
      <trkpt lat="45.3458173759281635284423828125" lon="-70.98067891784012317657470703125">
        <ele>609.79998779296875</ele>
        <time>2026-08-21T18:49:58.000Z</time>
        <extensions>
          <ns3:TrackPointExtension>
            <ns3:hr>119</ns3:hr>
            <ns3:cad>0</ns3:cad>
          </ns3:TrackPointExtension>
        </extensions>
      </trkpt>
      <trkpt lat="45.3458173759281635284423828125" lon="-70.98067891784012317657470703125">
        <ele>609.79998779296875</ele>
        <time>2026-08-21T18:49:59.000Z</time>
        <extensions>
          <ns3:TrackPointExtension>
            <ns3:hr>118</ns3:hr>
            <ns3:cad>0</ns3:cad>
          </ns3:TrackPointExtension>
        </extensions>
      </trkpt>
      <trkpt lat="45.3458173759281635284423828125" lon="-70.98067891784012317657470703125">
        <ele>609.79998779296875</ele>
        <time>2026-08-21T18:50:00.000Z</time>
        <extensions>
          <ns3:TrackPointExtension>
            <ns3:hr>118</ns3:hr>
            <ns3:cad>0</ns3:cad>
          </ns3:TrackPointExtension>
        </extensions>
      </trkpt>
      <trkpt lat="45.3458173759281635284423828125" lon="-70.98067891784012317657470703125">
        <ele>609.79998779296875</ele>
        <time>2026-08-21T18:50:01.000Z</time>
        <extensions>
          <ns3:TrackPointExtension>
            <ns3:hr>118</ns3:hr>
            <ns3:cad>0</ns3:cad>
          </ns3:TrackPointExtension>
        </extensions>
      </trkpt>
      <trkpt lat="45.3458173759281635284423828125" lon="-70.98067891784012317657470703125">
        <ele>610</ele>
        <time>2026-08-21T18:50:02.000Z</time>
        <extensions>
          <ns3:TrackPointExtension>
            <ns3:hr>117</ns3:hr>
            <ns3:cad>0</ns3:cad>
          </ns3:TrackPointExtension>
        </extensions>
      </trkpt>
      <trkpt lat="45.3458173759281635284423828125" lon="-70.98067891784012317657470703125">
        <ele>610</ele>
        <time>2026-08-21T18:50:03.000Z</time>
        <extensions>
          <ns3:TrackPointExtension>
            <ns3:hr>117</ns3:hr>
            <ns3:cad>0</ns3:cad>
          </ns3:TrackPointExtension>
        </extensions>
      </trkpt>
      <trkpt lat="45.3458173759281635284423828125" lon="-70.98067891784012317657470703125">
        <ele>610</ele>
        <time>2026-08-21T18:50:04.000Z</time>
        <extensions>
          <ns3:TrackPointExtension>
            <ns3:hr>117</ns3:hr>
            <ns3:cad>0</ns3:cad>
          </ns3:TrackPointExtension>
        </extensions>
      </trkpt>
      <trkpt lat="45.3458170406520366668701171875" lon="-70.98067573271691799163818359375">
        <ele>610</ele>
        <time>2026-08-21T18:50:05.000Z</time>
        <extensions>
          <ns3:TrackPointExtension>
            <ns3:hr>114</ns3:hr>
            <ns3:cad>0</ns3:cad>
          </ns3:TrackPointExtension>
        </extensions>
      </trkpt>
      <trkpt lat="45.345816873013973236083984375" lon="-70.98067305050790309906005859375">
        <ele>610</ele>
        <time>2026-08-21T18:50:06.000Z</time>
        <extensions>
          <ns3:TrackPointExtension>
            <ns3:hr>114</ns3:hr>
            <ns3:cad>0</ns3:cad>
          </ns3:TrackPointExtension>
        </extensions>
      </trkpt>
      <trkpt lat="45.34581528045237064361572265625" lon="-70.980671457946300506591796875">
        <ele>610</ele>
        <time>2026-08-21T18:50:07.000Z</time>
        <extensions>
          <ns3:TrackPointExtension>
            <ns3:hr>113</ns3:hr>
            <ns3:cad>0</ns3:cad>
          </ns3:TrackPointExtension>
        </extensions>
      </trkpt>
      <trkpt lat="45.34581595100462436676025390625" lon="-70.98067137412726879119873046875">
        <ele>609.79998779296875</ele>
        <time>2026-08-21T18:50:08.000Z</time>
        <extensions>
          <ns3:TrackPointExtension>
            <ns3:hr>112</ns3:hr>
            <ns3:cad>0</ns3:cad>
          </ns3:TrackPointExtension>
        </extensions>
      </trkpt>
      <trkpt lat="45.34582056105136871337890625" lon="-70.98066953010857105255126953125">
        <ele>609.79998779296875</ele>
        <time>2026-08-21T18:50:09.000Z</time>
        <extensions>
          <ns3:TrackPointExtension>
            <ns3:hr>112</ns3:hr>
            <ns3:cad>0</ns3:cad>
          </ns3:TrackPointExtension>
        </extensions>
      </trkpt>
      <trkpt lat="45.34582248888909816741943359375" lon="-70.98066885955631732940673828125">
        <ele>609.79998779296875</ele>
        <time>2026-08-21T18:50:10.000Z</time>
        <extensions>
          <ns3:TrackPointExtension>
            <ns3:hr>112</ns3:hr>
            <ns3:cad>0</ns3:cad>
          </ns3:TrackPointExtension>
        </extensions>
      </trkpt>
      <trkpt lat="45.34582533873617649078369140625" lon="-70.98066919483244419097900390625">
        <ele>609.5999755859375</ele>
        <time>2026-08-21T18:50:11.000Z</time>
        <extensions>
          <ns3:TrackPointExtension>
            <ns3:hr>112</ns3:hr>
            <ns3:cad>0</ns3:cad>
          </ns3:TrackPointExtension>
        </extensions>
      </trkpt>
      <trkpt lat="45.34582785330712795257568359375" lon="-70.9806702844798564910888671875">
        <ele>609.5999755859375</ele>
        <time>2026-08-21T18:50:12.000Z</time>
        <extensions>
          <ns3:TrackPointExtension>
            <ns3:hr>112</ns3:hr>
            <ns3:cad>0</ns3:cad>
          </ns3:TrackPointExtension>
        </extensions>
      </trkpt>
      <trkpt lat="45.3458292782306671142578125" lon="-70.9806702844798564910888671875">
        <ele>609.4000244140625</ele>
        <time>2026-08-21T18:50:13.000Z</time>
        <extensions>
          <ns3:TrackPointExtension>
            <ns3:hr>112</ns3:hr>
            <ns3:cad>0</ns3:cad>
          </ns3:TrackPointExtension>
        </extensions>
      </trkpt>
      <trkpt lat="45.34583120606839656829833984375" lon="-70.980668775737285614013671875">
        <ele>609.20001220703125</ele>
        <time>2026-08-21T18:50:14.000Z</time>
        <extensions>
          <ns3:TrackPointExtension>
            <ns3:hr>112</ns3:hr>
            <ns3:cad>0</ns3:cad>
          </ns3:TrackPointExtension>
        </extensions>
      </trkpt>
      <trkpt lat="45.3458327986299991607666015625" lon="-70.98066802136600017547607421875">
        <ele>609</ele>
        <time>2026-08-21T18:50:15.000Z</time>
        <extensions>
          <ns3:TrackPointExtension>
            <ns3:hr>114</ns3:hr>
            <ns3:cad>0</ns3:cad>
          </ns3:TrackPointExtension>
        </extensions>
      </trkpt>
      <trkpt lat="45.34583422355353832244873046875" lon="-70.9806672669947147369384765625">
        <ele>609</ele>
        <time>2026-08-21T18:50:16.000Z</time>
        <extensions>
          <ns3:TrackPointExtension>
            <ns3:hr>114</ns3:hr>
            <ns3:cad>0</ns3:cad>
          </ns3:TrackPointExtension>
        </extensions>
      </trkpt>
      <trkpt lat="45.3458348102867603302001953125" lon="-70.9806672669947147369384765625">
        <ele>609</ele>
        <time>2026-08-21T18:50:17.000Z</time>
        <extensions>
          <ns3:TrackPointExtension>
            <ns3:hr>115</ns3:hr>
            <ns3:cad>0</ns3:cad>
          </ns3:TrackPointExtension>
        </extensions>
      </trkpt>
      <trkpt lat="45.3458354808390140533447265625" lon="-70.980667434632778167724609375">
        <ele>609</ele>
        <time>2026-08-21T18:50:18.000Z</time>
        <extensions>
          <ns3:TrackPointExtension>
            <ns3:hr>115</ns3:hr>
            <ns3:cad>0</ns3:cad>
          </ns3:TrackPointExtension>
        </extensions>
      </trkpt>
      <trkpt lat="45.34583489410579204559326171875" lon="-70.9806676022708415985107421875">
        <ele>609</ele>
        <time>2026-08-21T18:50:19.000Z</time>
        <extensions>
          <ns3:TrackPointExtension>
            <ns3:hr>114</ns3:hr>
            <ns3:cad>0</ns3:cad>
          </ns3:TrackPointExtension>
        </extensions>
      </trkpt>
      <trkpt lat="45.34583489410579204559326171875" lon="-70.9806669317185878753662109375">
        <ele>609</ele>
        <time>2026-08-21T18:50:20.000Z</time>
        <extensions>
          <ns3:TrackPointExtension>
            <ns3:hr>113</ns3:hr>
            <ns3:cad>0</ns3:cad>
          </ns3:TrackPointExtension>
        </extensions>
      </trkpt>
      <trkpt lat="45.3458346426486968994140625" lon="-70.9806662611663341522216796875">
        <ele>609</ele>
        <time>2026-08-21T18:50:21.000Z</time>
        <extensions>
          <ns3:TrackPointExtension>
            <ns3:hr>113</ns3:hr>
            <ns3:cad>0</ns3:cad>
          </ns3:TrackPointExtension>
        </extensions>
      </trkpt>
      <trkpt lat="45.3458346426486968994140625" lon="-70.9806662611663341522216796875">
        <ele>609</ele>
        <time>2026-08-21T18:50:22.000Z</time>
        <extensions>
          <ns3:TrackPointExtension>
            <ns3:hr>113</ns3:hr>
            <ns3:cad>0</ns3:cad>
          </ns3:TrackPointExtension>
        </extensions>
      </trkpt>
      <trkpt lat="45.3458346426486968994140625" lon="-70.9806662611663341522216796875">
        <ele>609</ele>
        <time>2026-08-21T18:50:23.000Z</time>
        <extensions>
          <ns3:TrackPointExtension>
            <ns3:hr>114</ns3:hr>
            <ns3:cad>0</ns3:cad>
          </ns3:TrackPointExtension>
        </extensions>
      </trkpt>
      <trkpt lat="45.3458346426486968994140625" lon="-70.9806662611663341522216796875">
        <ele>609</ele>
        <time>2026-08-21T18:50:24.000Z</time>
        <extensions>
          <ns3:TrackPointExtension>
            <ns3:hr>114</ns3:hr>
            <ns3:cad>0</ns3:cad>
          </ns3:TrackPointExtension>
        </extensions>
      </trkpt>
      <trkpt lat="45.3458346426486968994140625" lon="-70.9806662611663341522216796875">
        <ele>609</ele>
        <time>2026-08-21T18:50:25.000Z</time>
        <extensions>
          <ns3:TrackPointExtension>
            <ns3:hr>113</ns3:hr>
            <ns3:cad>0</ns3:cad>
          </ns3:TrackPointExtension>
        </extensions>
      </trkpt>
      <trkpt lat="45.3458346426486968994140625" lon="-70.9806662611663341522216796875">
        <ele>609</ele>
        <time>2026-08-21T18:50:26.000Z</time>
        <extensions>
          <ns3:TrackPointExtension>
            <ns3:hr>113</ns3:hr>
            <ns3:cad>0</ns3:cad>
          </ns3:TrackPointExtension>
        </extensions>
      </trkpt>
      <trkpt lat="45.3458346426486968994140625" lon="-70.9806662611663341522216796875">
        <ele>609</ele>
        <time>2026-08-21T18:50:27.000Z</time>
        <extensions>
          <ns3:TrackPointExtension>
            <ns3:hr>113</ns3:hr>
            <ns3:cad>0</ns3:cad>
          </ns3:TrackPointExtension>
        </extensions>
      </trkpt>
      <trkpt lat="45.3458346426486968994140625" lon="-70.9806662611663341522216796875">
        <ele>609</ele>
        <time>2026-08-21T18:50:28.000Z</time>
        <extensions>
          <ns3:TrackPointExtension>
            <ns3:hr>113</ns3:hr>
            <ns3:cad>0</ns3:cad>
          </ns3:TrackPointExtension>
        </extensions>
      </trkpt>
      <trkpt lat="45.3458346426486968994140625" lon="-70.9806662611663341522216796875">
        <ele>609</ele>
        <time>2026-08-21T18:50:29.000Z</time>
        <extensions>
          <ns3:TrackPointExtension>
            <ns3:hr>112</ns3:hr>
            <ns3:cad>0</ns3:cad>
          </ns3:TrackPointExtension>
        </extensions>
      </trkpt>
      <trkpt lat="45.3458346426486968994140625" lon="-70.9806662611663341522216796875">
        <ele>609</ele>
        <time>2026-08-21T18:50:30.000Z</time>
        <extensions>
          <ns3:TrackPointExtension>
            <ns3:hr>110</ns3:hr>
            <ns3:cad>0</ns3:cad>
          </ns3:TrackPointExtension>
        </extensions>
      </trkpt>
      <trkpt lat="45.3458346426486968994140625" lon="-70.9806662611663341522216796875">
        <ele>609</ele>
        <time>2026-08-21T18:50:31.000Z</time>
        <extensions>
          <ns3:TrackPointExtension>
            <ns3:hr>102</ns3:hr>
            <ns3:cad>0</ns3:cad>
          </ns3:TrackPointExtension>
        </extensions>
      </trkpt>
      <trkpt lat="45.3458346426486968994140625" lon="-70.9806662611663341522216796875">
        <ele>609</ele>
        <time>2026-08-21T18:50:32.000Z</time>
        <extensions>
          <ns3:TrackPointExtension>
            <ns3:hr>95</ns3:hr>
            <ns3:cad>0</ns3:cad>
          </ns3:TrackPointExtension>
        </extensions>
      </trkpt>
      <trkpt lat="45.3458346426486968994140625" lon="-70.9806662611663341522216796875">
        <ele>609</ele>
        <time>2026-08-21T18:50:33.000Z</time>
        <extensions>
          <ns3:TrackPointExtension>
            <ns3:hr>91</ns3:hr>
            <ns3:cad>0</ns3:cad>
          </ns3:TrackPointExtension>
        </extensions>
      </trkpt>
      <trkpt lat="45.3458346426486968994140625" lon="-70.9806662611663341522216796875">
        <ele>609</ele>
        <time>2026-08-21T18:50:34.000Z</time>
        <extensions>
          <ns3:TrackPointExtension>
            <ns3:hr>89</ns3:hr>
            <ns3:cad>0</ns3:cad>
          </ns3:TrackPointExtension>
        </extensions>
      </trkpt>
      <trkpt lat="45.3458346426486968994140625" lon="-70.9806662611663341522216796875">
        <ele>609</ele>
        <time>2026-08-21T18:50:35.000Z</time>
        <extensions>
          <ns3:TrackPointExtension>
            <ns3:hr>88</ns3:hr>
            <ns3:cad>0</ns3:cad>
          </ns3:TrackPointExtension>
        </extensions>
      </trkpt>
      <trkpt lat="45.3458346426486968994140625" lon="-70.9806662611663341522216796875">
        <ele>609</ele>
        <time>2026-08-21T18:50:36.000Z</time>
        <extensions>
          <ns3:TrackPointExtension>
            <ns3:hr>88</ns3:hr>
            <ns3:cad>0</ns3:cad>
          </ns3:TrackPointExtension>
        </extensions>
      </trkpt>
      <trkpt lat="45.3458346426486968994140625" lon="-70.9806662611663341522216796875">
        <ele>609</ele>
        <time>2026-08-21T18:50:37.000Z</time>
        <extensions>
          <ns3:TrackPointExtension>
            <ns3:hr>88</ns3:hr>
            <ns3:cad>0</ns3:cad>
          </ns3:TrackPointExtension>
        </extensions>
      </trkpt>
      <trkpt lat="45.3458346426486968994140625" lon="-70.9806662611663341522216796875">
        <ele>609</ele>
        <time>2026-08-21T18:50:38.000Z</time>
        <extensions>
          <ns3:TrackPointExtension>
            <ns3:hr>88</ns3:hr>
            <ns3:cad>0</ns3:cad>
          </ns3:TrackPointExtension>
        </extensions>
      </trkpt>
      <trkpt lat="45.3458346426486968994140625" lon="-70.9806662611663341522216796875">
        <ele>609</ele>
        <time>2026-08-21T18:50:39.000Z</time>
        <extensions>
          <ns3:TrackPointExtension>
            <ns3:hr>88</ns3:hr>
            <ns3:cad>0</ns3:cad>
          </ns3:TrackPointExtension>
        </extensions>
      </trkpt>
      <trkpt lat="45.3458346426486968994140625" lon="-70.9806662611663341522216796875">
        <ele>608.79998779296875</ele>
        <time>2026-08-21T18:50:40.000Z</time>
        <extensions>
          <ns3:TrackPointExtension>
            <ns3:hr>87</ns3:hr>
            <ns3:cad>0</ns3:cad>
          </ns3:TrackPointExtension>
        </extensions>
      </trkpt>
      <trkpt lat="45.3458346426486968994140625" lon="-70.9806662611663341522216796875">
        <ele>608.79998779296875</ele>
        <time>2026-08-21T18:50:41.000Z</time>
        <extensions>
          <ns3:TrackPointExtension>
            <ns3:hr>88</ns3:hr>
            <ns3:cad>0</ns3:cad>
          </ns3:TrackPointExtension>
        </extensions>
      </trkpt>
      <trkpt lat="45.3458346426486968994140625" lon="-70.9806662611663341522216796875">
        <ele>608.79998779296875</ele>
        <time>2026-08-21T18:50:42.000Z</time>
        <extensions>
          <ns3:TrackPointExtension>
            <ns3:hr>88</ns3:hr>
            <ns3:cad>0</ns3:cad>
          </ns3:TrackPointExtension>
        </extensions>
      </trkpt>
      <trkpt lat="45.3458346426486968994140625" lon="-70.9806662611663341522216796875">
        <ele>609</ele>
        <time>2026-08-21T18:50:43.000Z</time>
        <extensions>
          <ns3:TrackPointExtension>
            <ns3:hr>88</ns3:hr>
            <ns3:cad>0</ns3:cad>
          </ns3:TrackPointExtension>
        </extensions>
      </trkpt>
      <trkpt lat="45.3458346426486968994140625" lon="-70.9806662611663341522216796875">
        <ele>609</ele>
        <time>2026-08-21T18:50:44.000Z</time>
        <extensions>
          <ns3:TrackPointExtension>
            <ns3:hr>89</ns3:hr>
            <ns3:cad>0</ns3:cad>
          </ns3:TrackPointExtension>
        </extensions>
      </trkpt>
      <trkpt lat="45.3458346426486968994140625" lon="-70.9806662611663341522216796875">
        <ele>609</ele>
        <time>2026-08-21T18:50:45.000Z</time>
        <extensions>
          <ns3:TrackPointExtension>
            <ns3:hr>89</ns3:hr>
            <ns3:cad>0</ns3:cad>
          </ns3:TrackPointExtension>
        </extensions>
      </trkpt>
      <trkpt lat="45.3458346426486968994140625" lon="-70.9806662611663341522216796875">
        <ele>609</ele>
        <time>2026-08-21T18:50:46.000Z</time>
        <extensions>
          <ns3:TrackPointExtension>
            <ns3:hr>90</ns3:hr>
            <ns3:cad>0</ns3:cad>
          </ns3:TrackPointExtension>
        </extensions>
      </trkpt>
      <trkpt lat="45.34583237953484058380126953125" lon="-70.9806662611663341522216796875">
        <ele>609</ele>
        <time>2026-08-21T18:50:47.000Z</time>
        <extensions>
          <ns3:TrackPointExtension>
            <ns3:hr>90</ns3:hr>
            <ns3:cad>0</ns3:cad>
          </ns3:TrackPointExtension>
        </extensions>
      </trkpt>
      <trkpt lat="45.345830954611301422119140625" lon="-70.980666093528270721435546875">
        <ele>609</ele>
        <time>2026-08-21T18:50:48.000Z</time>
        <extensions>
          <ns3:TrackPointExtension>
            <ns3:hr>91</ns3:hr>
            <ns3:cad>0</ns3:cad>
          </ns3:TrackPointExtension>
        </extensions>
      </trkpt>
      <trkpt lat="45.3458346426486968994140625" lon="-70.9806662611663341522216796875">
        <ele>609</ele>
        <time>2026-08-21T18:50:49.000Z</time>
        <extensions>
          <ns3:TrackPointExtension>
            <ns3:hr>92</ns3:hr>
            <ns3:cad>0</ns3:cad>
          </ns3:TrackPointExtension>
        </extensions>
      </trkpt>
      <trkpt lat="45.3458346426486968994140625" lon="-70.9806662611663341522216796875">
        <ele>609</ele>
        <time>2026-08-21T18:50:50.000Z</time>
        <extensions>
          <ns3:TrackPointExtension>
            <ns3:hr>93</ns3:hr>
            <ns3:cad>0</ns3:cad>
          </ns3:TrackPointExtension>
        </extensions>
      </trkpt>
      <trkpt lat="45.3458346426486968994140625" lon="-70.9806662611663341522216796875">
        <ele>609</ele>
        <time>2026-08-21T18:50:51.000Z</time>
        <extensions>
          <ns3:TrackPointExtension>
            <ns3:hr>93</ns3:hr>
            <ns3:cad>0</ns3:cad>
          </ns3:TrackPointExtension>
        </extensions>
      </trkpt>
      <trkpt lat="45.3458346426486968994140625" lon="-70.9806662611663341522216796875">
        <ele>609</ele>
        <time>2026-08-21T18:50:52.000Z</time>
        <extensions>
          <ns3:TrackPointExtension>
            <ns3:hr>93</ns3:hr>
            <ns3:cad>0</ns3:cad>
          </ns3:TrackPointExtension>
        </extensions>
      </trkpt>
      <trkpt lat="45.3458346426486968994140625" lon="-70.9806662611663341522216796875">
        <ele>609</ele>
        <time>2026-08-21T18:50:53.000Z</time>
        <extensions>
          <ns3:TrackPointExtension>
            <ns3:hr>94</ns3:hr>
            <ns3:cad>0</ns3:cad>
          </ns3:TrackPointExtension>
        </extensions>
      </trkpt>
      <trkpt lat="45.3458346426486968994140625" lon="-70.9806662611663341522216796875">
        <ele>609</ele>
        <time>2026-08-21T18:50:54.000Z</time>
        <extensions>
          <ns3:TrackPointExtension>
            <ns3:hr>95</ns3:hr>
            <ns3:cad>0</ns3:cad>
          </ns3:TrackPointExtension>
        </extensions>
      </trkpt>
      <trkpt lat="45.3458346426486968994140625" lon="-70.9806662611663341522216796875">
        <ele>609</ele>
        <time>2026-08-21T18:50:55.000Z</time>
        <extensions>
          <ns3:TrackPointExtension>
            <ns3:hr>96</ns3:hr>
            <ns3:cad>0</ns3:cad>
          </ns3:TrackPointExtension>
        </extensions>
      </trkpt>
      <trkpt lat="45.3458346426486968994140625" lon="-70.9806662611663341522216796875">
        <ele>608.79998779296875</ele>
        <time>2026-08-21T18:50:56.000Z</time>
        <extensions>
          <ns3:TrackPointExtension>
            <ns3:hr>97</ns3:hr>
            <ns3:cad>0</ns3:cad>
          </ns3:TrackPointExtension>
        </extensions>
      </trkpt>
      <trkpt lat="45.3458346426486968994140625" lon="-70.9806662611663341522216796875">
        <ele>608.79998779296875</ele>
        <time>2026-08-21T18:50:57.000Z</time>
        <extensions>
          <ns3:TrackPointExtension>
            <ns3:hr>97</ns3:hr>
            <ns3:cad>0</ns3:cad>
          </ns3:TrackPointExtension>
        </extensions>
      </trkpt>
      <trkpt lat="45.3458346426486968994140625" lon="-70.9806662611663341522216796875">
        <ele>608.79998779296875</ele>
        <time>2026-08-21T18:50:58.000Z</time>
        <extensions>
          <ns3:TrackPointExtension>
            <ns3:hr>97</ns3:hr>
            <ns3:cad>0</ns3:cad>
          </ns3:TrackPointExtension>
        </extensions>
      </trkpt>
      <trkpt lat="45.3458346426486968994140625" lon="-70.9806662611663341522216796875">
        <ele>608.79998779296875</ele>
        <time>2026-08-21T18:50:59.000Z</time>
        <extensions>
          <ns3:TrackPointExtension>
            <ns3:hr>96</ns3:hr>
            <ns3:cad>0</ns3:cad>
          </ns3:TrackPointExtension>
        </extensions>
      </trkpt>
      <trkpt lat="45.3458346426486968994140625" lon="-70.9806662611663341522216796875">
        <ele>608.79998779296875</ele>
        <time>2026-08-21T18:51:00.000Z</time>
        <extensions>
          <ns3:TrackPointExtension>
            <ns3:hr>96</ns3:hr>
            <ns3:cad>0</ns3:cad>
          </ns3:TrackPointExtension>
        </extensions>
      </trkpt>
      <trkpt lat="45.3458346426486968994140625" lon="-70.9806662611663341522216796875">
        <ele>609</ele>
        <time>2026-08-21T18:51:01.000Z</time>
        <extensions>
          <ns3:TrackPointExtension>
            <ns3:hr>96</ns3:hr>
            <ns3:cad>0</ns3:cad>
          </ns3:TrackPointExtension>
        </extensions>
      </trkpt>
      <trkpt lat="45.3458346426486968994140625" lon="-70.9806662611663341522216796875">
        <ele>609</ele>
        <time>2026-08-21T18:51:02.000Z</time>
        <extensions>
          <ns3:TrackPointExtension>
            <ns3:hr>96</ns3:hr>
            <ns3:cad>0</ns3:cad>
          </ns3:TrackPointExtension>
        </extensions>
      </trkpt>
      <trkpt lat="45.3458346426486968994140625" lon="-70.9806662611663341522216796875">
        <ele>609</ele>
        <time>2026-08-21T18:51:03.000Z</time>
        <extensions>
          <ns3:TrackPointExtension>
            <ns3:hr>96</ns3:hr>
            <ns3:cad>0</ns3:cad>
          </ns3:TrackPointExtension>
        </extensions>
      </trkpt>
      <trkpt lat="45.3458346426486968994140625" lon="-70.9806662611663341522216796875">
        <ele>609</ele>
        <time>2026-08-21T18:51:04.000Z</time>
        <extensions>
          <ns3:TrackPointExtension>
            <ns3:hr>96</ns3:hr>
            <ns3:cad>0</ns3:cad>
          </ns3:TrackPointExtension>
        </extensions>
      </trkpt>
      <trkpt lat="45.3458346426486968994140625" lon="-70.9806662611663341522216796875">
        <ele>609</ele>
        <time>2026-08-21T18:51:05.000Z</time>
        <extensions>
          <ns3:TrackPointExtension>
            <ns3:hr>95</ns3:hr>
            <ns3:cad>0</ns3:cad>
          </ns3:TrackPointExtension>
        </extensions>
      </trkpt>
      <trkpt lat="45.3458346426486968994140625" lon="-70.9806662611663341522216796875">
        <ele>609</ele>
        <time>2026-08-21T18:51:06.000Z</time>
        <extensions>
          <ns3:TrackPointExtension>
            <ns3:hr>95</ns3:hr>
            <ns3:cad>0</ns3:cad>
          </ns3:TrackPointExtension>
        </extensions>
      </trkpt>
      <trkpt lat="45.34583254717290401458740234375" lon="-70.9806632436811923980712890625">
        <ele>609</ele>
        <time>2026-08-21T18:51:07.000Z</time>
        <extensions>
          <ns3:TrackPointExtension>
            <ns3:hr>94</ns3:hr>
            <ns3:cad>0</ns3:cad>
          </ns3:TrackPointExtension>
        </extensions>
      </trkpt>
      <trkpt lat="45.34583405591547489166259765625" lon="-70.98066567443311214447021484375">
        <ele>609</ele>
        <time>2026-08-21T18:51:08.000Z</time>
        <extensions>
          <ns3:TrackPointExtension>
            <ns3:hr>91</ns3:hr>
            <ns3:cad>0</ns3:cad>
          </ns3:TrackPointExtension>
        </extensions>
      </trkpt>
      <trkpt lat="45.34583489410579204559326171875" lon="-70.98066701553761959075927734375">
        <ele>609</ele>
        <time>2026-08-21T18:51:09.000Z</time>
        <extensions>
          <ns3:TrackPointExtension>
            <ns3:hr>91</ns3:hr>
            <ns3:cad>0</ns3:cad>
          </ns3:TrackPointExtension>
        </extensions>
      </trkpt>
      <trkpt lat="45.3458346426486968994140625" lon="-70.9806662611663341522216796875">
        <ele>609</ele>
        <time>2026-08-21T18:51:10.000Z</time>
        <extensions>
          <ns3:TrackPointExtension>
            <ns3:hr>92</ns3:hr>
            <ns3:cad>0</ns3:cad>
          </ns3:TrackPointExtension>
        </extensions>
      </trkpt>
      <trkpt lat="45.3458346426486968994140625" lon="-70.9806662611663341522216796875">
        <ele>609</ele>
        <time>2026-08-21T18:51:11.000Z</time>
        <extensions>
          <ns3:TrackPointExtension>
            <ns3:hr>93</ns3:hr>
            <ns3:cad>0</ns3:cad>
          </ns3:TrackPointExtension>
        </extensions>
      </trkpt>
      <trkpt lat="45.3458346426486968994140625" lon="-70.9806662611663341522216796875">
        <ele>609</ele>
        <time>2026-08-21T18:51:12.000Z</time>
        <extensions>
          <ns3:TrackPointExtension>
            <ns3:hr>93</ns3:hr>
            <ns3:cad>0</ns3:cad>
          </ns3:TrackPointExtension>
        </extensions>
      </trkpt>
      <trkpt lat="45.3458346426486968994140625" lon="-70.9806662611663341522216796875">
        <ele>608.79998779296875</ele>
        <time>2026-08-21T18:51:13.000Z</time>
        <extensions>
          <ns3:TrackPointExtension>
            <ns3:hr>94</ns3:hr>
            <ns3:cad>0</ns3:cad>
          </ns3:TrackPointExtension>
        </extensions>
      </trkpt>
      <trkpt lat="45.3458346426486968994140625" lon="-70.9806662611663341522216796875">
        <ele>608.79998779296875</ele>
        <time>2026-08-21T18:51:14.000Z</time>
        <extensions>
          <ns3:TrackPointExtension>
            <ns3:hr>96</ns3:hr>
            <ns3:cad>0</ns3:cad>
          </ns3:TrackPointExtension>
        </extensions>
      </trkpt>
      <trkpt lat="45.3458346426486968994140625" lon="-70.9806662611663341522216796875">
        <ele>609</ele>
        <time>2026-08-21T18:51:15.000Z</time>
        <extensions>
          <ns3:TrackPointExtension>
            <ns3:hr>98</ns3:hr>
            <ns3:cad>0</ns3:cad>
          </ns3:TrackPointExtension>
        </extensions>
      </trkpt>
      <trkpt lat="45.3458346426486968994140625" lon="-70.9806662611663341522216796875">
        <ele>608.79998779296875</ele>
        <time>2026-08-21T18:51:16.000Z</time>
        <extensions>
          <ns3:TrackPointExtension>
            <ns3:hr>99</ns3:hr>
            <ns3:cad>0</ns3:cad>
          </ns3:TrackPointExtension>
        </extensions>
      </trkpt>
      <trkpt lat="45.3458346426486968994140625" lon="-70.9806662611663341522216796875">
        <ele>608.79998779296875</ele>
        <time>2026-08-21T18:51:17.000Z</time>
        <extensions>
          <ns3:TrackPointExtension>
            <ns3:hr>100</ns3:hr>
            <ns3:cad>0</ns3:cad>
          </ns3:TrackPointExtension>
        </extensions>
      </trkpt>
      <trkpt lat="45.3458346426486968994140625" lon="-70.9806662611663341522216796875">
        <ele>608.79998779296875</ele>
        <time>2026-08-21T18:51:18.000Z</time>
        <extensions>
          <ns3:TrackPointExtension>
            <ns3:hr>100</ns3:hr>
            <ns3:cad>0</ns3:cad>
          </ns3:TrackPointExtension>
        </extensions>
      </trkpt>
      <trkpt lat="45.3458346426486968994140625" lon="-70.9806662611663341522216796875">
        <ele>608.79998779296875</ele>
        <time>2026-08-21T18:51:19.000Z</time>
        <extensions>
          <ns3:TrackPointExtension>
            <ns3:hr>100</ns3:hr>
            <ns3:cad>0</ns3:cad>
          </ns3:TrackPointExtension>
        </extensions>
      </trkpt>
      <trkpt lat="45.3458346426486968994140625" lon="-70.9806662611663341522216796875">
        <ele>608.79998779296875</ele>
        <time>2026-08-21T18:51:20.000Z</time>
        <extensions>
          <ns3:TrackPointExtension>
            <ns3:hr>99</ns3:hr>
            <ns3:cad>0</ns3:cad>
          </ns3:TrackPointExtension>
        </extensions>
      </trkpt>
      <trkpt lat="45.3458346426486968994140625" lon="-70.98066684789955615997314453125">
        <ele>608.79998779296875</ele>
        <time>2026-08-21T18:51:21.000Z</time>
        <extensions>
          <ns3:TrackPointExtension>
            <ns3:hr>98</ns3:hr>
            <ns3:cad>100</ns3:cad>
          </ns3:TrackPointExtension>
        </extensions>
      </trkpt>
      <trkpt lat="45.345836989581584930419921875" lon="-70.9806659258902072906494140625">
        <ele>608.79998779296875</ele>
        <time>2026-08-21T18:51:22.000Z</time>
        <extensions>
          <ns3:TrackPointExtension>
            <ns3:hr>98</ns3:hr>
            <ns3:cad>100</ns3:cad>
          </ns3:TrackPointExtension>
        </extensions>
      </trkpt>
      <trkpt lat="45.345835648477077484130859375" lon="-70.98066617734730243682861328125">
        <ele>608.79998779296875</ele>
        <time>2026-08-21T18:51:23.000Z</time>
        <extensions>
          <ns3:TrackPointExtension>
            <ns3:hr>98</ns3:hr>
            <ns3:cad>0</ns3:cad>
          </ns3:TrackPointExtension>
        </extensions>
      </trkpt>
      <trkpt lat="45.34583489410579204559326171875" lon="-70.980665422976016998291015625">
        <ele>608.79998779296875</ele>
        <time>2026-08-21T18:51:24.000Z</time>
        <extensions>
          <ns3:TrackPointExtension>
            <ns3:hr>98</ns3:hr>
            <ns3:cad>0</ns3:cad>
          </ns3:TrackPointExtension>
        </extensions>
      </trkpt>
      <trkpt lat="45.34583338536322116851806640625" lon="-70.98066668026149272918701171875">
        <ele>608.79998779296875</ele>
        <time>2026-08-21T18:51:25.000Z</time>
        <extensions>
          <ns3:TrackPointExtension>
            <ns3:hr>98</ns3:hr>
            <ns3:cad>0</ns3:cad>
          </ns3:TrackPointExtension>
        </extensions>
      </trkpt>
      <trkpt lat="45.3458346426486968994140625" lon="-70.9806662611663341522216796875">
        <ele>608.79998779296875</ele>
        <time>2026-08-21T18:51:26.000Z</time>
        <extensions>
          <ns3:TrackPointExtension>
            <ns3:hr>98</ns3:hr>
            <ns3:cad>0</ns3:cad>
          </ns3:TrackPointExtension>
        </extensions>
      </trkpt>
      <trkpt lat="45.3458346426486968994140625" lon="-70.9806662611663341522216796875">
        <ele>608.79998779296875</ele>
        <time>2026-08-21T18:51:27.000Z</time>
        <extensions>
          <ns3:TrackPointExtension>
            <ns3:hr>97</ns3:hr>
            <ns3:cad>0</ns3:cad>
          </ns3:TrackPointExtension>
        </extensions>
      </trkpt>
      <trkpt lat="45.3458346426486968994140625" lon="-70.9806662611663341522216796875">
        <ele>608.79998779296875</ele>
        <time>2026-08-21T18:51:28.000Z</time>
        <extensions>
          <ns3:TrackPointExtension>
            <ns3:hr>98</ns3:hr>
            <ns3:cad>0</ns3:cad>
          </ns3:TrackPointExtension>
        </extensions>
      </trkpt>
      <trkpt lat="45.3458346426486968994140625" lon="-70.9806662611663341522216796875">
        <ele>608.79998779296875</ele>
        <time>2026-08-21T18:51:29.000Z</time>
        <extensions>
          <ns3:TrackPointExtension>
            <ns3:hr>97</ns3:hr>
            <ns3:cad>0</ns3:cad>
          </ns3:TrackPointExtension>
        </extensions>
      </trkpt>
      <trkpt lat="45.3458346426486968994140625" lon="-70.9806662611663341522216796875">
        <ele>608.79998779296875</ele>
        <time>2026-08-21T18:51:30.000Z</time>
        <extensions>
          <ns3:TrackPointExtension>
            <ns3:hr>98</ns3:hr>
            <ns3:cad>0</ns3:cad>
          </ns3:TrackPointExtension>
        </extensions>
      </trkpt>
      <trkpt lat="45.3458346426486968994140625" lon="-70.9806662611663341522216796875">
        <ele>608.79998779296875</ele>
        <time>2026-08-21T18:51:31.000Z</time>
        <extensions>
          <ns3:TrackPointExtension>
            <ns3:hr>98</ns3:hr>
            <ns3:cad>0</ns3:cad>
          </ns3:TrackPointExtension>
        </extensions>
      </trkpt>
      <trkpt lat="45.3458346426486968994140625" lon="-70.9806662611663341522216796875">
        <ele>608.79998779296875</ele>
        <time>2026-08-21T18:51:32.000Z</time>
        <extensions>
          <ns3:TrackPointExtension>
            <ns3:hr>98</ns3:hr>
            <ns3:cad>0</ns3:cad>
          </ns3:TrackPointExtension>
        </extensions>
      </trkpt>
      <trkpt lat="45.3458346426486968994140625" lon="-70.9806662611663341522216796875">
        <ele>608.79998779296875</ele>
        <time>2026-08-21T18:51:33.000Z</time>
        <extensions>
          <ns3:TrackPointExtension>
            <ns3:hr>98</ns3:hr>
            <ns3:cad>0</ns3:cad>
          </ns3:TrackPointExtension>
        </extensions>
      </trkpt>
      <trkpt lat="45.3458346426486968994140625" lon="-70.9806662611663341522216796875">
        <ele>608.79998779296875</ele>
        <time>2026-08-21T18:51:34.000Z</time>
        <extensions>
          <ns3:TrackPointExtension>
            <ns3:hr>98</ns3:hr>
            <ns3:cad>0</ns3:cad>
          </ns3:TrackPointExtension>
        </extensions>
      </trkpt>
      <trkpt lat="45.3458346426486968994140625" lon="-70.9806662611663341522216796875">
        <ele>608.79998779296875</ele>
        <time>2026-08-21T18:51:35.000Z</time>
        <extensions>
          <ns3:TrackPointExtension>
            <ns3:hr>98</ns3:hr>
            <ns3:cad>0</ns3:cad>
          </ns3:TrackPointExtension>
        </extensions>
      </trkpt>
      <trkpt lat="45.3458346426486968994140625" lon="-70.9806662611663341522216796875">
        <ele>608.79998779296875</ele>
        <time>2026-08-21T18:51:36.000Z</time>
        <extensions>
          <ns3:TrackPointExtension>
            <ns3:hr>98</ns3:hr>
            <ns3:cad>0</ns3:cad>
          </ns3:TrackPointExtension>
        </extensions>
      </trkpt>
      <trkpt lat="45.3458346426486968994140625" lon="-70.9806662611663341522216796875">
        <ele>608.79998779296875</ele>
        <time>2026-08-21T18:51:37.000Z</time>
        <extensions>
          <ns3:TrackPointExtension>
            <ns3:hr>97</ns3:hr>
            <ns3:cad>0</ns3:cad>
          </ns3:TrackPointExtension>
        </extensions>
      </trkpt>
      <trkpt lat="45.3458346426486968994140625" lon="-70.9806662611663341522216796875">
        <ele>609</ele>
        <time>2026-08-21T18:51:38.000Z</time>
        <extensions>
          <ns3:TrackPointExtension>
            <ns3:hr>98</ns3:hr>
            <ns3:cad>0</ns3:cad>
          </ns3:TrackPointExtension>
        </extensions>
      </trkpt>
      <trkpt lat="45.3458346426486968994140625" lon="-70.9806662611663341522216796875">
        <ele>608.79998779296875</ele>
        <time>2026-08-21T18:51:39.000Z</time>
        <extensions>
          <ns3:TrackPointExtension>
            <ns3:hr>98</ns3:hr>
            <ns3:cad>0</ns3:cad>
          </ns3:TrackPointExtension>
        </extensions>
      </trkpt>
      <trkpt lat="45.3458346426486968994140625" lon="-70.9806662611663341522216796875">
        <ele>609</ele>
        <time>2026-08-21T18:51:40.000Z</time>
        <extensions>
          <ns3:TrackPointExtension>
            <ns3:hr>98</ns3:hr>
            <ns3:cad>0</ns3:cad>
          </ns3:TrackPointExtension>
        </extensions>
      </trkpt>
      <trkpt lat="45.3458346426486968994140625" lon="-70.9806662611663341522216796875">
        <ele>609</ele>
        <time>2026-08-21T18:51:41.000Z</time>
        <extensions>
          <ns3:TrackPointExtension>
            <ns3:hr>97</ns3:hr>
            <ns3:cad>0</ns3:cad>
          </ns3:TrackPointExtension>
        </extensions>
      </trkpt>
      <trkpt lat="45.3458346426486968994140625" lon="-70.9806662611663341522216796875">
        <ele>608.79998779296875</ele>
        <time>2026-08-21T18:51:42.000Z</time>
        <extensions>
          <ns3:TrackPointExtension>
            <ns3:hr>97</ns3:hr>
            <ns3:cad>0</ns3:cad>
          </ns3:TrackPointExtension>
        </extensions>
      </trkpt>
      <trkpt lat="45.3458346426486968994140625" lon="-70.9806662611663341522216796875">
        <ele>608.79998779296875</ele>
        <time>2026-08-21T18:51:43.000Z</time>
        <extensions>
          <ns3:TrackPointExtension>
            <ns3:hr>97</ns3:hr>
            <ns3:cad>0</ns3:cad>
          </ns3:TrackPointExtension>
        </extensions>
      </trkpt>
      <trkpt lat="45.3458346426486968994140625" lon="-70.9806662611663341522216796875">
        <ele>608.79998779296875</ele>
        <time>2026-08-21T18:51:44.000Z</time>
        <extensions>
          <ns3:TrackPointExtension>
            <ns3:hr>97</ns3:hr>
            <ns3:cad>0</ns3:cad>
          </ns3:TrackPointExtension>
        </extensions>
      </trkpt>
      <trkpt lat="45.3458346426486968994140625" lon="-70.9806662611663341522216796875">
        <ele>608.79998779296875</ele>
        <time>2026-08-21T18:51:45.000Z</time>
        <extensions>
          <ns3:TrackPointExtension>
            <ns3:hr>98</ns3:hr>
            <ns3:cad>0</ns3:cad>
          </ns3:TrackPointExtension>
        </extensions>
      </trkpt>
      <trkpt lat="45.3458346426486968994140625" lon="-70.9806662611663341522216796875">
        <ele>608.79998779296875</ele>
        <time>2026-08-21T18:51:46.000Z</time>
        <extensions>
          <ns3:TrackPointExtension>
            <ns3:hr>98</ns3:hr>
            <ns3:cad>0</ns3:cad>
          </ns3:TrackPointExtension>
        </extensions>
      </trkpt>
      <trkpt lat="45.3458346426486968994140625" lon="-70.9806662611663341522216796875">
        <ele>608.79998779296875</ele>
        <time>2026-08-21T18:51:47.000Z</time>
        <extensions>
          <ns3:TrackPointExtension>
            <ns3:hr>99</ns3:hr>
            <ns3:cad>0</ns3:cad>
          </ns3:TrackPointExtension>
        </extensions>
      </trkpt>
      <trkpt lat="45.3458346426486968994140625" lon="-70.9806662611663341522216796875">
        <ele>608.79998779296875</ele>
        <time>2026-08-21T18:51:48.000Z</time>
        <extensions>
          <ns3:TrackPointExtension>
            <ns3:hr>99</ns3:hr>
            <ns3:cad>0</ns3:cad>
          </ns3:TrackPointExtension>
        </extensions>
      </trkpt>
      <trkpt lat="45.3458346426486968994140625" lon="-70.9806662611663341522216796875">
        <ele>608.79998779296875</ele>
        <time>2026-08-21T18:51:49.000Z</time>
        <extensions>
          <ns3:TrackPointExtension>
            <ns3:hr>101</ns3:hr>
            <ns3:cad>0</ns3:cad>
          </ns3:TrackPointExtension>
        </extensions>
      </trkpt>
      <trkpt lat="45.3458346426486968994140625" lon="-70.9806662611663341522216796875">
        <ele>608.79998779296875</ele>
        <time>2026-08-21T18:51:50.000Z</time>
        <extensions>
          <ns3:TrackPointExtension>
            <ns3:hr>103</ns3:hr>
            <ns3:cad>0</ns3:cad>
          </ns3:TrackPointExtension>
        </extensions>
      </trkpt>
      <trkpt lat="45.3458346426486968994140625" lon="-70.9806662611663341522216796875">
        <ele>608.79998779296875</ele>
        <time>2026-08-21T18:51:51.000Z</time>
        <extensions>
          <ns3:TrackPointExtension>
            <ns3:hr>103</ns3:hr>
            <ns3:cad>0</ns3:cad>
          </ns3:TrackPointExtension>
        </extensions>
      </trkpt>
      <trkpt lat="45.3458346426486968994140625" lon="-70.9806662611663341522216796875">
        <ele>608.79998779296875</ele>
        <time>2026-08-21T18:51:52.000Z</time>
        <extensions>
          <ns3:TrackPointExtension>
            <ns3:hr>102</ns3:hr>
            <ns3:cad>0</ns3:cad>
          </ns3:TrackPointExtension>
        </extensions>
      </trkpt>
      <trkpt lat="45.3458346426486968994140625" lon="-70.9806662611663341522216796875">
        <ele>608.79998779296875</ele>
        <time>2026-08-21T18:51:53.000Z</time>
        <extensions>
          <ns3:TrackPointExtension>
            <ns3:hr>102</ns3:hr>
            <ns3:cad>0</ns3:cad>
          </ns3:TrackPointExtension>
        </extensions>
      </trkpt>
      <trkpt lat="45.34583740867674350738525390625" lon="-70.9806652553379535675048828125">
        <ele>608.79998779296875</ele>
        <time>2026-08-21T18:51:54.000Z</time>
        <extensions>
          <ns3:TrackPointExtension>
            <ns3:hr>102</ns3:hr>
            <ns3:cad>0</ns3:cad>
          </ns3:TrackPointExtension>
        </extensions>
      </trkpt>
      <trkpt lat="45.345841012895107269287109375" lon="-70.9806662611663341522216796875">
        <ele>608.79998779296875</ele>
        <time>2026-08-21T18:51:55.000Z</time>
        <extensions>
          <ns3:TrackPointExtension>
            <ns3:hr>102</ns3:hr>
            <ns3:cad>0</ns3:cad>
          </ns3:TrackPointExtension>
        </extensions>
      </trkpt>
      <trkpt lat="45.345841683447360992431640625" lon="-70.980666764080524444580078125">
        <ele>609</ele>
        <time>2026-08-21T18:51:56.000Z</time>
        <extensions>
          <ns3:TrackPointExtension>
            <ns3:hr>100</ns3:hr>
            <ns3:cad>0</ns3:cad>
          </ns3:TrackPointExtension>
        </extensions>
      </trkpt>
      <trkpt lat="45.345841683447360992431640625" lon="-70.98066735081374645233154296875">
        <ele>609</ele>
        <time>2026-08-21T18:51:57.000Z</time>
        <extensions>
          <ns3:TrackPointExtension>
            <ns3:hr>100</ns3:hr>
            <ns3:cad>0</ns3:cad>
          </ns3:TrackPointExtension>
        </extensions>
      </trkpt>
      <trkpt lat="45.3458346426486968994140625" lon="-70.9806662611663341522216796875">
        <ele>609</ele>
        <time>2026-08-21T18:51:58.000Z</time>
        <extensions>
          <ns3:TrackPointExtension>
            <ns3:hr>100</ns3:hr>
            <ns3:cad>0</ns3:cad>
          </ns3:TrackPointExtension>
        </extensions>
      </trkpt>
      <trkpt lat="45.3458346426486968994140625" lon="-70.9806662611663341522216796875">
        <ele>609</ele>
        <time>2026-08-21T18:51:59.000Z</time>
        <extensions>
          <ns3:TrackPointExtension>
            <ns3:hr>100</ns3:hr>
            <ns3:cad>0</ns3:cad>
          </ns3:TrackPointExtension>
        </extensions>
      </trkpt>
      <trkpt lat="45.3458346426486968994140625" lon="-70.9806662611663341522216796875">
        <ele>609</ele>
        <time>2026-08-21T18:52:00.000Z</time>
        <extensions>
          <ns3:TrackPointExtension>
            <ns3:hr>100</ns3:hr>
            <ns3:cad>0</ns3:cad>
          </ns3:TrackPointExtension>
        </extensions>
      </trkpt>
      <trkpt lat="45.3458346426486968994140625" lon="-70.9806662611663341522216796875">
        <ele>609</ele>
        <time>2026-08-21T18:52:01.000Z</time>
        <extensions>
          <ns3:TrackPointExtension>
            <ns3:hr>99</ns3:hr>
            <ns3:cad>0</ns3:cad>
          </ns3:TrackPointExtension>
        </extensions>
      </trkpt>
      <trkpt lat="45.3458346426486968994140625" lon="-70.9806662611663341522216796875">
        <ele>609</ele>
        <time>2026-08-21T18:52:02.000Z</time>
        <extensions>
          <ns3:TrackPointExtension>
            <ns3:hr>100</ns3:hr>
            <ns3:cad>0</ns3:cad>
          </ns3:TrackPointExtension>
        </extensions>
      </trkpt>
      <trkpt lat="45.3458346426486968994140625" lon="-70.9806662611663341522216796875">
        <ele>609</ele>
        <time>2026-08-21T18:52:03.000Z</time>
        <extensions>
          <ns3:TrackPointExtension>
            <ns3:hr>100</ns3:hr>
            <ns3:cad>0</ns3:cad>
          </ns3:TrackPointExtension>
        </extensions>
      </trkpt>
      <trkpt lat="45.3458346426486968994140625" lon="-70.9806662611663341522216796875">
        <ele>609</ele>
        <time>2026-08-21T18:52:04.000Z</time>
        <extensions>
          <ns3:TrackPointExtension>
            <ns3:hr>100</ns3:hr>
            <ns3:cad>0</ns3:cad>
          </ns3:TrackPointExtension>
        </extensions>
      </trkpt>
      <trkpt lat="45.3458346426486968994140625" lon="-70.9806662611663341522216796875">
        <ele>609</ele>
        <time>2026-08-21T18:52:05.000Z</time>
        <extensions>
          <ns3:TrackPointExtension>
            <ns3:hr>99</ns3:hr>
            <ns3:cad>0</ns3:cad>
          </ns3:TrackPointExtension>
        </extensions>
      </trkpt>
      <trkpt lat="45.3458346426486968994140625" lon="-70.9806662611663341522216796875">
        <ele>609.20001220703125</ele>
        <time>2026-08-21T18:52:06.000Z</time>
        <extensions>
          <ns3:TrackPointExtension>
            <ns3:hr>99</ns3:hr>
            <ns3:cad>0</ns3:cad>
          </ns3:TrackPointExtension>
        </extensions>
      </trkpt>
      <trkpt lat="45.3458346426486968994140625" lon="-70.9806662611663341522216796875">
        <ele>609.4000244140625</ele>
        <time>2026-08-21T18:52:07.000Z</time>
        <extensions>
          <ns3:TrackPointExtension>
            <ns3:hr>100</ns3:hr>
            <ns3:cad>0</ns3:cad>
          </ns3:TrackPointExtension>
        </extensions>
      </trkpt>
      <trkpt lat="45.3458400070667266845703125" lon="-70.9806847013533115386962890625">
        <ele>609.5999755859375</ele>
        <time>2026-08-21T18:52:08.000Z</time>
        <extensions>
          <ns3:TrackPointExtension>
            <ns3:hr>100</ns3:hr>
            <ns3:cad>0</ns3:cad>
          </ns3:TrackPointExtension>
        </extensions>
      </trkpt>
      <trkpt lat="45.3458398394286632537841796875" lon="-70.98068612627685070037841796875">
        <ele>609.5999755859375</ele>
        <time>2026-08-21T18:52:09.000Z</time>
        <extensions>
          <ns3:TrackPointExtension>
            <ns3:hr>101</ns3:hr>
            <ns3:cad>0</ns3:cad>
          </ns3:TrackPointExtension>
        </extensions>
      </trkpt>
      <trkpt lat="45.3458398394286632537841796875" lon="-70.98068612627685070037841796875">
        <ele>609.79998779296875</ele>
        <time>2026-08-21T18:52:10.000Z</time>
        <extensions>
          <ns3:TrackPointExtension>
            <ns3:hr>101</ns3:hr>
            <ns3:cad>0</ns3:cad>
          </ns3:TrackPointExtension>
        </extensions>
      </trkpt>
      <trkpt lat="45.3458398394286632537841796875" lon="-70.98068612627685070037841796875">
        <ele>609.79998779296875</ele>
        <time>2026-08-21T18:52:11.000Z</time>
        <extensions>
          <ns3:TrackPointExtension>
            <ns3:hr>101</ns3:hr>
            <ns3:cad>0</ns3:cad>
          </ns3:TrackPointExtension>
        </extensions>
      </trkpt>
      <trkpt lat="45.3458398394286632537841796875" lon="-70.98068612627685070037841796875">
        <ele>609.79998779296875</ele>
        <time>2026-08-21T18:52:12.000Z</time>
        <extensions>
          <ns3:TrackPointExtension>
            <ns3:hr>99</ns3:hr>
            <ns3:cad>0</ns3:cad>
          </ns3:TrackPointExtension>
        </extensions>
      </trkpt>
      <trkpt lat="45.3458398394286632537841796875" lon="-70.98068612627685070037841796875">
        <ele>609.79998779296875</ele>
        <time>2026-08-21T18:52:13.000Z</time>
        <extensions>
          <ns3:TrackPointExtension>
            <ns3:hr>99</ns3:hr>
            <ns3:cad>0</ns3:cad>
          </ns3:TrackPointExtension>
        </extensions>
      </trkpt>
      <trkpt lat="45.3458398394286632537841796875" lon="-70.98068612627685070037841796875">
        <ele>609.79998779296875</ele>
        <time>2026-08-21T18:52:14.000Z</time>
        <extensions>
          <ns3:TrackPointExtension>
            <ns3:hr>99</ns3:hr>
            <ns3:cad>0</ns3:cad>
          </ns3:TrackPointExtension>
        </extensions>
      </trkpt>
      <trkpt lat="45.3458398394286632537841796875" lon="-70.98068612627685070037841796875">
        <ele>609.79998779296875</ele>
        <time>2026-08-21T18:52:15.000Z</time>
        <extensions>
          <ns3:TrackPointExtension>
            <ns3:hr>99</ns3:hr>
            <ns3:cad>0</ns3:cad>
          </ns3:TrackPointExtension>
        </extensions>
      </trkpt>
      <trkpt lat="45.3458398394286632537841796875" lon="-70.98068612627685070037841796875">
        <ele>609.79998779296875</ele>
        <time>2026-08-21T18:52:16.000Z</time>
        <extensions>
          <ns3:TrackPointExtension>
            <ns3:hr>98</ns3:hr>
            <ns3:cad>0</ns3:cad>
          </ns3:TrackPointExtension>
        </extensions>
      </trkpt>
      <trkpt lat="45.3458398394286632537841796875" lon="-70.98068612627685070037841796875">
        <ele>609.79998779296875</ele>
        <time>2026-08-21T18:52:17.000Z</time>
        <extensions>
          <ns3:TrackPointExtension>
            <ns3:hr>97</ns3:hr>
            <ns3:cad>0</ns3:cad>
          </ns3:TrackPointExtension>
        </extensions>
      </trkpt>
      <trkpt lat="45.34583933651447296142578125" lon="-70.9806920774281024932861328125">
        <ele>609.5999755859375</ele>
        <time>2026-08-21T18:52:18.000Z</time>
        <extensions>
          <ns3:TrackPointExtension>
            <ns3:hr>97</ns3:hr>
            <ns3:cad>0</ns3:cad>
          </ns3:TrackPointExtension>
        </extensions>
      </trkpt>
      <trkpt lat="45.3458411805331707000732421875" lon="-70.980698950588703155517578125">
        <ele>609.79998779296875</ele>
        <time>2026-08-21T18:52:19.000Z</time>
        <extensions>
          <ns3:TrackPointExtension>
            <ns3:hr>95</ns3:hr>
            <ns3:cad>0</ns3:cad>
          </ns3:TrackPointExtension>
        </extensions>
      </trkpt>
      <trkpt lat="45.34584796987473964691162109375" lon="-70.9807021357119083404541015625">
        <ele>609.5999755859375</ele>
        <time>2026-08-21T18:52:20.000Z</time>
        <extensions>
          <ns3:TrackPointExtension>
            <ns3:hr>95</ns3:hr>
            <ns3:cad>0</ns3:cad>
          </ns3:TrackPointExtension>
        </extensions>
      </trkpt>
      <trkpt lat="45.34585417248308658599853515625" lon="-70.9807039797306060791015625">
        <ele>609.79998779296875</ele>
        <time>2026-08-21T18:52:21.000Z</time>
        <extensions>
          <ns3:TrackPointExtension>
            <ns3:hr>95</ns3:hr>
            <ns3:cad>0</ns3:cad>
          </ns3:TrackPointExtension>
        </extensions>
      </trkpt>
      <trkpt lat="45.34585584886372089385986328125" lon="-70.980707667768001556396484375">
        <ele>609.79998779296875</ele>
        <time>2026-08-21T18:52:22.000Z</time>
        <extensions>
          <ns3:TrackPointExtension>
            <ns3:hr>92</ns3:hr>
            <ns3:cad>0</ns3:cad>
          </ns3:TrackPointExtension>
        </extensions>
      </trkpt>
      <trkpt lat="45.34586003981530666351318359375" lon="-70.98071546293795108795166015625">
        <ele>610</ele>
        <time>2026-08-21T18:52:23.000Z</time>
        <extensions>
          <ns3:TrackPointExtension>
            <ns3:hr>92</ns3:hr>
            <ns3:cad>44</ns3:cad>
          </ns3:TrackPointExtension>
        </extensions>
      </trkpt>
      <trkpt lat="45.34586406312882900238037109375" lon="-70.9807239286601543426513671875">
        <ele>610</ele>
        <time>2026-08-21T18:52:24.000Z</time>
        <extensions>
          <ns3:TrackPointExtension>
            <ns3:hr>92</ns3:hr>
            <ns3:cad>44</ns3:cad>
          </ns3:TrackPointExtension>
        </extensions>
      </trkpt>
      <trkpt lat="45.345872528851032257080078125" lon="-70.98072946071624755859375">
        <ele>610.20001220703125</ele>
        <time>2026-08-21T18:52:25.000Z</time>
        <extensions>
          <ns3:TrackPointExtension>
            <ns3:hr>93</ns3:hr>
            <ns3:cad>44</ns3:cad>
          </ns3:TrackPointExtension>
        </extensions>
      </trkpt>
      <trkpt lat="45.34588065929710865020751953125" lon="-70.980731807649135589599609375">
        <ele>610.5999755859375</ele>
        <time>2026-08-21T18:52:26.000Z</time>
        <extensions>
          <ns3:TrackPointExtension>
            <ns3:hr>94</ns3:hr>
            <ns3:cad>44</ns3:cad>
          </ns3:TrackPointExtension>
        </extensions>
      </trkpt>
      <trkpt lat="45.345886610448360443115234375" lon="-70.98073951900005340576171875">
        <ele>610.79998779296875</ele>
        <time>2026-08-21T18:52:27.000Z</time>
        <extensions>
          <ns3:TrackPointExtension>
            <ns3:hr>95</ns3:hr>
            <ns3:cad>44</ns3:cad>
          </ns3:TrackPointExtension>
        </extensions>
      </trkpt>
      <trkpt lat="45.3458874486386775970458984375" lon="-70.98075133748352527618408203125">
        <ele>611</ele>
        <time>2026-08-21T18:52:28.000Z</time>
        <extensions>
          <ns3:TrackPointExtension>
            <ns3:hr>95</ns3:hr>
            <ns3:cad>40</ns3:cad>
          </ns3:TrackPointExtension>
        </extensions>
      </trkpt>
      <trkpt lat="45.3458881191909313201904296875" lon="-70.98076173104345798492431640625">
        <ele>611</ele>
        <time>2026-08-21T18:52:29.000Z</time>
        <extensions>
          <ns3:TrackPointExtension>
            <ns3:hr>96</ns3:hr>
            <ns3:cad>40</ns3:cad>
          </ns3:TrackPointExtension>
        </extensions>
      </trkpt>
      <trkpt lat="45.3458854369819164276123046875" lon="-70.98077028058469295501708984375">
        <ele>611.20001220703125</ele>
        <time>2026-08-21T18:52:30.000Z</time>
        <extensions>
          <ns3:TrackPointExtension>
            <ns3:hr>96</ns3:hr>
            <ns3:cad>40</ns3:cad>
          </ns3:TrackPointExtension>
        </extensions>
      </trkpt>
      <trkpt lat="45.345880575478076934814453125" lon="-70.98077950067818164825439453125">
        <ele>611.20001220703125</ele>
        <time>2026-08-21T18:52:31.000Z</time>
        <extensions>
          <ns3:TrackPointExtension>
            <ns3:hr>97</ns3:hr>
            <ns3:cad>0</ns3:cad>
          </ns3:TrackPointExtension>
        </extensions>
      </trkpt>
      <trkpt lat="45.34587688744068145751953125" lon="-70.98079090006649494171142578125">
        <ele>611.20001220703125</ele>
        <time>2026-08-21T18:52:32.000Z</time>
        <extensions>
          <ns3:TrackPointExtension>
            <ns3:hr>105</ns3:hr>
            <ns3:cad>0</ns3:cad>
          </ns3:TrackPointExtension>
        </extensions>
      </trkpt>
      <trkpt lat="45.3458716906607151031494140625" lon="-70.98080464638769626617431640625">
        <ele>611.20001220703125</ele>
        <time>2026-08-21T18:52:33.000Z</time>
        <extensions>
          <ns3:TrackPointExtension>
            <ns3:hr>105</ns3:hr>
            <ns3:cad>49</ns3:cad>
          </ns3:TrackPointExtension>
        </extensions>
      </trkpt>
      <trkpt lat="45.345867834985256195068359375" lon="-70.980820320546627044677734375">
        <ele>611.20001220703125</ele>
        <time>2026-08-21T18:52:34.000Z</time>
        <extensions>
          <ns3:TrackPointExtension>
            <ns3:hr>112</ns3:hr>
            <ns3:cad>49</ns3:cad>
          </ns3:TrackPointExtension>
        </extensions>
      </trkpt>
      <trkpt lat="45.345863811671733856201171875" lon="-70.9808292053639888763427734375">
        <ele>611.20001220703125</ele>
        <time>2026-08-21T18:52:35.000Z</time>
        <extensions>
          <ns3:TrackPointExtension>
            <ns3:hr>118</ns3:hr>
            <ns3:cad>49</ns3:cad>
          </ns3:TrackPointExtension>
        </extensions>
      </trkpt>
      <trkpt lat="45.34585735760629177093505859375" lon="-70.98084672354161739349365234375">
        <ele>611.4000244140625</ele>
        <time>2026-08-21T18:52:36.000Z</time>
        <extensions>
          <ns3:TrackPointExtension>
            <ns3:hr>118</ns3:hr>
            <ns3:cad>49</ns3:cad>
          </ns3:TrackPointExtension>
        </extensions>
      </trkpt>
      <trkpt lat="45.345849059522151947021484375" lon="-70.9808637388050556182861328125">
        <ele>611.4000244140625</ele>
        <time>2026-08-21T18:52:37.000Z</time>
        <extensions>
          <ns3:TrackPointExtension>
            <ns3:hr>120</ns3:hr>
            <ns3:cad>49</ns3:cad>
          </ns3:TrackPointExtension>
        </extensions>
      </trkpt>
      <trkpt lat="45.34584159962832927703857421875" lon="-70.98087807185947895050048828125">
        <ele>611.4000244140625</ele>
        <time>2026-08-21T18:52:38.000Z</time>
        <extensions>
          <ns3:TrackPointExtension>
            <ns3:hr>121</ns3:hr>
            <ns3:cad>49</ns3:cad>
          </ns3:TrackPointExtension>
        </extensions>
      </trkpt>
      <trkpt lat="45.34583690576255321502685546875" lon="-70.98089642822742462158203125">
        <ele>611.5999755859375</ele>
        <time>2026-08-21T18:52:39.000Z</time>
        <extensions>
          <ns3:TrackPointExtension>
            <ns3:hr>121</ns3:hr>
            <ns3:cad>49</ns3:cad>
          </ns3:TrackPointExtension>
        </extensions>
      </trkpt>
      <trkpt lat="45.3458348102867603302001953125" lon="-70.98092031665146350860595703125">
        <ele>611.5999755859375</ele>
        <time>2026-08-21T18:52:40.000Z</time>
        <extensions>
          <ns3:TrackPointExtension>
            <ns3:hr>122</ns3:hr>
            <ns3:cad>54</ns3:cad>
          </ns3:TrackPointExtension>
        </extensions>
      </trkpt>
      <trkpt lat="45.34582986496388912200927734375" lon="-70.9809418581426143646240234375">
        <ele>611.5999755859375</ele>
        <time>2026-08-21T18:52:41.000Z</time>
        <extensions>
          <ns3:TrackPointExtension>
            <ns3:hr>122</ns3:hr>
            <ns3:cad>54</ns3:cad>
          </ns3:TrackPointExtension>
        </extensions>
      </trkpt>
      <trkpt lat="45.345825254917144775390625" lon="-70.98095971159636974334716796875">
        <ele>611.79998779296875</ele>
        <time>2026-08-21T18:52:42.000Z</time>
        <extensions>
          <ns3:TrackPointExtension>
            <ns3:hr>122</ns3:hr>
            <ns3:cad>54</ns3:cad>
          </ns3:TrackPointExtension>
        </extensions>
      </trkpt>
      <trkpt lat="45.345818884670734405517578125" lon="-70.98097966052591800689697265625">
        <ele>612</ele>
        <time>2026-08-21T18:52:43.000Z</time>
        <extensions>
          <ns3:TrackPointExtension>
            <ns3:hr>121</ns3:hr>
            <ns3:cad>55</ns3:cad>
          </ns3:TrackPointExtension>
        </extensions>
      </trkpt>
      <trkpt lat="45.34581176005303859710693359375" lon="-70.9809955023229122161865234375">
        <ele>612</ele>
        <time>2026-08-21T18:52:44.000Z</time>
        <extensions>
          <ns3:TrackPointExtension>
            <ns3:hr>122</ns3:hr>
            <ns3:cad>55</ns3:cad>
          </ns3:TrackPointExtension>
        </extensions>
      </trkpt>
      <trkpt lat="45.34580580890178680419921875" lon="-70.98101017065346240997314453125">
        <ele>612.20001220703125</ele>
        <time>2026-08-21T18:52:45.000Z</time>
        <extensions>
          <ns3:TrackPointExtension>
            <ns3:hr>122</ns3:hr>
            <ns3:cad>55</ns3:cad>
          </ns3:TrackPointExtension>
        </extensions>
      </trkpt>
      <trkpt lat="45.34579566679894924163818359375" lon="-70.98102726973593235015869140625">
        <ele>612.20001220703125</ele>
        <time>2026-08-21T18:52:46.000Z</time>
        <extensions>
          <ns3:TrackPointExtension>
            <ns3:hr>122</ns3:hr>
            <ns3:cad>55</ns3:cad>
          </ns3:TrackPointExtension>
        </extensions>
      </trkpt>
      <trkpt lat="45.3457902185618877410888671875" lon="-70.9810451231896877288818359375">
        <ele>612.20001220703125</ele>
        <time>2026-08-21T18:52:47.000Z</time>
        <extensions>
          <ns3:TrackPointExtension>
            <ns3:hr>123</ns3:hr>
            <ns3:cad>55</ns3:cad>
          </ns3:TrackPointExtension>
        </extensions>
      </trkpt>
      <trkpt lat="45.34578527323901653289794921875" lon="-70.98106582649052143096923828125">
        <ele>612.4000244140625</ele>
        <time>2026-08-21T18:52:48.000Z</time>
        <extensions>
          <ns3:TrackPointExtension>
            <ns3:hr>123</ns3:hr>
            <ns3:cad>55</ns3:cad>
          </ns3:TrackPointExtension>
        </extensions>
      </trkpt>
      <trkpt lat="45.3457788191735744476318359375" lon="-70.98109097220003604888916015625">
        <ele>612.4000244140625</ele>
        <time>2026-08-21T18:52:49.000Z</time>
        <extensions>
          <ns3:TrackPointExtension>
            <ns3:hr>123</ns3:hr>
            <ns3:cad>55</ns3:cad>
          </ns3:TrackPointExtension>
        </extensions>
      </trkpt>
      <trkpt lat="45.3457737900316715240478515625" lon="-70.98111343570053577423095703125">
        <ele>612.4000244140625</ele>
        <time>2026-08-21T18:52:50.000Z</time>
        <extensions>
          <ns3:TrackPointExtension>
            <ns3:hr>123</ns3:hr>
            <ns3:cad>55</ns3:cad>
          </ns3:TrackPointExtension>
        </extensions>
      </trkpt>
      <trkpt lat="45.34576700069010257720947265625" lon="-70.98113154061138629913330078125">
        <ele>612.4000244140625</ele>
        <time>2026-08-21T18:52:51.000Z</time>
        <extensions>
          <ns3:TrackPointExtension>
            <ns3:hr>123</ns3:hr>
            <ns3:cad>55</ns3:cad>
          </ns3:TrackPointExtension>
        </extensions>
      </trkpt>
      <trkpt lat="45.34576398320496082305908203125" lon="-70.9811532497406005859375">
        <ele>612.4000244140625</ele>
        <time>2026-08-21T18:52:52.000Z</time>
        <extensions>
          <ns3:TrackPointExtension>
            <ns3:hr>123</ns3:hr>
            <ns3:cad>55</ns3:cad>
          </ns3:TrackPointExtension>
        </extensions>
      </trkpt>
      <trkpt lat="45.34575995989143848419189453125" lon="-70.98117009736597537994384765625">
        <ele>612.4000244140625</ele>
        <time>2026-08-21T18:52:53.000Z</time>
        <extensions>
          <ns3:TrackPointExtension>
            <ns3:hr>123</ns3:hr>
            <ns3:cad>55</ns3:cad>
          </ns3:TrackPointExtension>
        </extensions>
      </trkpt>
      <trkpt lat="45.345753170549869537353515625" lon="-70.9811845980584621429443359375">
        <ele>612.4000244140625</ele>
        <time>2026-08-21T18:52:54.000Z</time>
        <extensions>
          <ns3:TrackPointExtension>
            <ns3:hr>123</ns3:hr>
            <ns3:cad>55</ns3:cad>
          </ns3:TrackPointExtension>
        </extensions>
      </trkpt>
      <trkpt lat="45.3457452915608882904052734375" lon="-70.981201194226741790771484375">
        <ele>612.4000244140625</ele>
        <time>2026-08-21T18:52:55.000Z</time>
        <extensions>
          <ns3:TrackPointExtension>
            <ns3:hr>123</ns3:hr>
            <ns3:cad>53</ns3:cad>
          </ns3:TrackPointExtension>
        </extensions>
      </trkpt>
      <trkpt lat="45.34574084915220737457275390625" lon="-70.98121753893792629241943359375">
        <ele>612.5999755859375</ele>
        <time>2026-08-21T18:52:56.000Z</time>
        <extensions>
          <ns3:TrackPointExtension>
            <ns3:hr>123</ns3:hr>
            <ns3:cad>53</ns3:cad>
          </ns3:TrackPointExtension>
        </extensions>
      </trkpt>
      <trkpt lat="45.3457352332770824432373046875" lon="-70.98123304545879364013671875">
        <ele>612.5999755859375</ele>
        <time>2026-08-21T18:52:57.000Z</time>
        <extensions>
          <ns3:TrackPointExtension>
            <ns3:hr>123</ns3:hr>
            <ns3:cad>53</ns3:cad>
          </ns3:TrackPointExtension>
        </extensions>
      </trkpt>
      <trkpt lat="45.345728360116481781005859375" lon="-70.9812472946941852569580078125">
        <ele>612.5999755859375</ele>
        <time>2026-08-21T18:52:58.000Z</time>
        <extensions>
          <ns3:TrackPointExtension>
            <ns3:hr>123</ns3:hr>
            <ns3:cad>55</ns3:cad>
          </ns3:TrackPointExtension>
        </extensions>
      </trkpt>
      <trkpt lat="45.34572073258459568023681640625" lon="-70.98126380704343318939208984375">
        <ele>612.79998779296875</ele>
        <time>2026-08-21T18:52:59.000Z</time>
        <extensions>
          <ns3:TrackPointExtension>
            <ns3:hr>124</ns3:hr>
            <ns3:cad>55</ns3:cad>
          </ns3:TrackPointExtension>
        </extensions>
      </trkpt>
      <trkpt lat="45.34571335650980472564697265625" lon="-70.981283001601696014404296875">
        <ele>612.79998779296875</ele>
        <time>2026-08-21T18:53:00.000Z</time>
        <extensions>
          <ns3:TrackPointExtension>
            <ns3:hr>124</ns3:hr>
            <ns3:cad>55</ns3:cad>
          </ns3:TrackPointExtension>
        </extensions>
      </trkpt>
      <trkpt lat="45.34570790827274322509765625" lon="-70.981301106512546539306640625">
        <ele>612.79998779296875</ele>
        <time>2026-08-21T18:53:01.000Z</time>
        <extensions>
          <ns3:TrackPointExtension>
            <ns3:hr>124</ns3:hr>
            <ns3:cad>55</ns3:cad>
          </ns3:TrackPointExtension>
        </extensions>
      </trkpt>
      <trkpt lat="45.3456996940076351165771484375" lon="-70.98131778649985790252685546875">
        <ele>612.79998779296875</ele>
        <time>2026-08-21T18:53:02.000Z</time>
        <extensions>
          <ns3:TrackPointExtension>
            <ns3:hr>125</ns3:hr>
            <ns3:cad>55</ns3:cad>
          </ns3:TrackPointExtension>
        </extensions>
      </trkpt>
      <trkpt lat="45.34569005481898784637451171875" lon="-70.98133563995361328125">
        <ele>613</ele>
        <time>2026-08-21T18:53:03.000Z</time>
        <extensions>
          <ns3:TrackPointExtension>
            <ns3:hr>125</ns3:hr>
            <ns3:cad>55</ns3:cad>
          </ns3:TrackPointExtension>
        </extensions>
      </trkpt>
      <trkpt lat="45.34567681141197681427001953125" lon="-70.981352068483829498291015625">
        <ele>613</ele>
        <time>2026-08-21T18:53:04.000Z</time>
        <extensions>
          <ns3:TrackPointExtension>
            <ns3:hr>126</ns3:hr>
            <ns3:cad>55</ns3:cad>
          </ns3:TrackPointExtension>
        </extensions>
      </trkpt>
      <trkpt lat="45.34566859714686870574951171875" lon="-70.9813723526895046234130859375">
        <ele>613</ele>
        <time>2026-08-21T18:53:05.000Z</time>
        <extensions>
          <ns3:TrackPointExtension>
            <ns3:hr>127</ns3:hr>
            <ns3:cad>55</ns3:cad>
          </ns3:TrackPointExtension>
        </extensions>
      </trkpt>
      <trkpt lat="45.3456576168537139892578125" lon="-70.98138702102005481719970703125">
        <ele>613.20001220703125</ele>
        <time>2026-08-21T18:53:06.000Z</time>
        <extensions>
          <ns3:TrackPointExtension>
            <ns3:hr>127</ns3:hr>
            <ns3:cad>55</ns3:cad>
          </ns3:TrackPointExtension>
        </extensions>
      </trkpt>
      <trkpt lat="45.34564378671348094940185546875" lon="-70.9814015217125415802001953125">
        <ele>613.4000244140625</ele>
        <time>2026-08-21T18:53:07.000Z</time>
        <extensions>
          <ns3:TrackPointExtension>
            <ns3:hr>128</ns3:hr>
            <ns3:cad>55</ns3:cad>
          </ns3:TrackPointExtension>
        </extensions>
      </trkpt>
      <trkpt lat="45.3456307947635650634765625" lon="-70.98141619004309177398681640625">
        <ele>613.4000244140625</ele>
        <time>2026-08-21T18:53:08.000Z</time>
        <extensions>
          <ns3:TrackPointExtension>
            <ns3:hr>127</ns3:hr>
            <ns3:cad>56</ns3:cad>
          </ns3:TrackPointExtension>
        </extensions>
      </trkpt>
      <trkpt lat="45.345619730651378631591796875" lon="-70.981433205306529998779296875">
        <ele>613.5999755859375</ele>
        <time>2026-08-21T18:53:09.000Z</time>
        <extensions>
          <ns3:TrackPointExtension>
            <ns3:hr>127</ns3:hr>
            <ns3:cad>56</ns3:cad>
          </ns3:TrackPointExtension>
        </extensions>
      </trkpt>
      <trkpt lat="45.3456093370914459228515625" lon="-70.98144485615193843841552734375">
        <ele>613.5999755859375</ele>
        <time>2026-08-21T18:53:10.000Z</time>
        <extensions>
          <ns3:TrackPointExtension>
            <ns3:hr>127</ns3:hr>
            <ns3:cad>56</ns3:cad>
          </ns3:TrackPointExtension>
        </extensions>
      </trkpt>
      <trkpt lat="45.3455930761992931365966796875" lon="-70.98145005293190479278564453125">
        <ele>613.5999755859375</ele>
        <time>2026-08-21T18:53:11.000Z</time>
        <extensions>
          <ns3:TrackPointExtension>
            <ns3:hr>126</ns3:hr>
            <ns3:cad>56</ns3:cad>
          </ns3:TrackPointExtension>
        </extensions>
      </trkpt>
      <trkpt lat="45.3455783240497112274169921875" lon="-70.98145877011120319366455078125">
        <ele>613.79998779296875</ele>
        <time>2026-08-21T18:53:12.000Z</time>
        <extensions>
          <ns3:TrackPointExtension>
            <ns3:hr>126</ns3:hr>
            <ns3:cad>56</ns3:cad>
          </ns3:TrackPointExtension>
        </extensions>
      </trkpt>
      <trkpt lat="45.34556575119495391845703125" lon="-70.98146866075694561004638671875">
        <ele>613.79998779296875</ele>
        <time>2026-08-21T18:53:13.000Z</time>
        <extensions>
          <ns3:TrackPointExtension>
            <ns3:hr>126</ns3:hr>
            <ns3:cad>56</ns3:cad>
          </ns3:TrackPointExtension>
        </extensions>
      </trkpt>
      <trkpt lat="45.34555368125438690185546875" lon="-70.981476791203022003173828125">
        <ele>613.79998779296875</ele>
        <time>2026-08-21T18:53:14.000Z</time>
        <extensions>
          <ns3:TrackPointExtension>
            <ns3:hr>127</ns3:hr>
            <ns3:cad>56</ns3:cad>
          </ns3:TrackPointExtension>
        </extensions>
      </trkpt>
      <trkpt lat="45.3455421142280101776123046875" lon="-70.98148207180202007293701171875">
        <ele>613.79998779296875</ele>
        <time>2026-08-21T18:53:15.000Z</time>
        <extensions>
          <ns3:TrackPointExtension>
            <ns3:hr>126</ns3:hr>
            <ns3:cad>56</ns3:cad>
          </ns3:TrackPointExtension>
        </extensions>
      </trkpt>
      <trkpt lat="45.3455303795635700225830078125" lon="-70.98149120807647705078125">
        <ele>613.79998779296875</ele>
        <time>2026-08-21T18:53:16.000Z</time>
        <extensions>
          <ns3:TrackPointExtension>
            <ns3:hr>126</ns3:hr>
            <ns3:cad>56</ns3:cad>
          </ns3:TrackPointExtension>
        </extensions>
      </trkpt>
      <trkpt lat="45.34551386721432209014892578125" lon="-70.9814964048564434051513671875">
        <ele>613.79998779296875</ele>
        <time>2026-08-21T18:53:17.000Z</time>
        <extensions>
          <ns3:TrackPointExtension>
            <ns3:hr>126</ns3:hr>
            <ns3:cad>56</ns3:cad>
          </ns3:TrackPointExtension>
        </extensions>
      </trkpt>
      <trkpt lat="45.345495678484439849853515625" lon="-70.981502272188663482666015625">
        <ele>614</ele>
        <time>2026-08-21T18:53:18.000Z</time>
        <extensions>
          <ns3:TrackPointExtension>
            <ns3:hr>126</ns3:hr>
            <ns3:cad>55</ns3:cad>
          </ns3:TrackPointExtension>
        </extensions>
      </trkpt>
      <trkpt lat="45.34548084251582622528076171875" lon="-70.981509983539581298828125">
        <ele>614</ele>
        <time>2026-08-21T18:53:19.000Z</time>
        <extensions>
          <ns3:TrackPointExtension>
            <ns3:hr>127</ns3:hr>
            <ns3:cad>55</ns3:cad>
          </ns3:TrackPointExtension>
        </extensions>
      </trkpt>
      <trkpt lat="45.3454629890620708465576171875" lon="-70.98151442594826221466064453125">
        <ele>614</ele>
        <time>2026-08-21T18:53:20.000Z</time>
        <extensions>
          <ns3:TrackPointExtension>
            <ns3:hr>126</ns3:hr>
            <ns3:cad>56</ns3:cad>
          </ns3:TrackPointExtension>
        </extensions>
      </trkpt>
      <trkpt lat="45.3454499132931232452392578125" lon="-70.98151895217597484588623046875">
        <ele>614.20001220703125</ele>
        <time>2026-08-21T18:53:21.000Z</time>
        <extensions>
          <ns3:TrackPointExtension>
            <ns3:hr>126</ns3:hr>
            <ns3:cad>56</ns3:cad>
          </ns3:TrackPointExtension>
        </extensions>
      </trkpt>
      <trkpt lat="45.345437340438365936279296875" lon="-70.98152347840368747711181640625">
        <ele>614.20001220703125</ele>
        <time>2026-08-21T18:53:22.000Z</time>
        <extensions>
          <ns3:TrackPointExtension>
            <ns3:hr>126</ns3:hr>
            <ns3:cad>56</ns3:cad>
          </ns3:TrackPointExtension>
        </extensions>
      </trkpt>
      <trkpt lat="45.34542099572718143463134765625" lon="-70.98152565769851207733154296875">
        <ele>614.20001220703125</ele>
        <time>2026-08-21T18:53:23.000Z</time>
        <extensions>
          <ns3:TrackPointExtension>
            <ns3:hr>126</ns3:hr>
            <ns3:cad>56</ns3:cad>
          </ns3:TrackPointExtension>
        </extensions>
      </trkpt>
      <trkpt lat="45.34540758468210697174072265625" lon="-70.98152817226946353912353515625">
        <ele>614.20001220703125</ele>
        <time>2026-08-21T18:53:24.000Z</time>
        <extensions>
          <ns3:TrackPointExtension>
            <ns3:hr>126</ns3:hr>
            <ns3:cad>56</ns3:cad>
          </ns3:TrackPointExtension>
        </extensions>
      </trkpt>
      <trkpt lat="45.34539635293185710906982421875" lon="-70.981532447040081024169921875">
        <ele>614.4000244140625</ele>
        <time>2026-08-21T18:53:25.000Z</time>
        <extensions>
          <ns3:TrackPointExtension>
            <ns3:hr>126</ns3:hr>
            <ns3:cad>57</ns3:cad>
          </ns3:TrackPointExtension>
        </extensions>
      </trkpt>
      <trkpt lat="45.345384366810321807861328125" lon="-70.9815381467342376708984375">
        <ele>614.4000244140625</ele>
        <time>2026-08-21T18:53:26.000Z</time>
        <extensions>
          <ns3:TrackPointExtension>
            <ns3:hr>125</ns3:hr>
            <ns3:cad>57</ns3:cad>
          </ns3:TrackPointExtension>
        </extensions>
      </trkpt>
      <trkpt lat="45.34537288360297679901123046875" lon="-70.981544516980648040771484375">
        <ele>614.4000244140625</ele>
        <time>2026-08-21T18:53:27.000Z</time>
        <extensions>
          <ns3:TrackPointExtension>
            <ns3:hr>125</ns3:hr>
            <ns3:cad>57</ns3:cad>
          </ns3:TrackPointExtension>
        </extensions>
      </trkpt>
      <trkpt lat="45.3453610651195049285888671875" lon="-70.98154577426612377166748046875">
        <ele>614.4000244140625</ele>
        <time>2026-08-21T18:53:28.000Z</time>
        <extensions>
          <ns3:TrackPointExtension>
            <ns3:hr>125</ns3:hr>
            <ns3:cad>55</ns3:cad>
          </ns3:TrackPointExtension>
        </extensions>
      </trkpt>
      <trkpt lat="45.34534891135990619659423828125" lon="-70.98154577426612377166748046875">
        <ele>614.4000244140625</ele>
        <time>2026-08-21T18:53:29.000Z</time>
        <extensions>
          <ns3:TrackPointExtension>
            <ns3:hr>124</ns3:hr>
            <ns3:cad>55</ns3:cad>
          </ns3:TrackPointExtension>
        </extensions>
      </trkpt>
      <trkpt lat="45.3453357517719268798828125" lon="-70.98154795356094837188720703125">
        <ele>614.4000244140625</ele>
        <time>2026-08-21T18:53:30.000Z</time>
        <extensions>
          <ns3:TrackPointExtension>
            <ns3:hr>124</ns3:hr>
            <ns3:cad>55</ns3:cad>
          </ns3:TrackPointExtension>
        </extensions>
      </trkpt>
      <trkpt lat="45.3453178144991397857666015625" lon="-70.981548540294170379638671875">
        <ele>614.5999755859375</ele>
        <time>2026-08-21T18:53:31.000Z</time>
        <extensions>
          <ns3:TrackPointExtension>
            <ns3:hr>124</ns3:hr>
            <ns3:cad>55</ns3:cad>
          </ns3:TrackPointExtension>
        </extensions>
      </trkpt>
      <trkpt lat="45.345303229987621307373046875" lon="-70.9815523959696292877197265625">
        <ele>614.5999755859375</ele>
        <time>2026-08-21T18:53:32.000Z</time>
        <extensions>
          <ns3:TrackPointExtension>
            <ns3:hr>123</ns3:hr>
            <ns3:cad>55</ns3:cad>
          </ns3:TrackPointExtension>
        </extensions>
      </trkpt>
      <trkpt lat="45.34528688527643680572509765625" lon="-70.98155734129250049591064453125">
        <ele>614.5999755859375</ele>
        <time>2026-08-21T18:53:33.000Z</time>
        <extensions>
          <ns3:TrackPointExtension>
            <ns3:hr>123</ns3:hr>
            <ns3:cad>55</ns3:cad>
          </ns3:TrackPointExtension>
        </extensions>
      </trkpt>
      <trkpt lat="45.34527028910815715789794921875" lon="-70.9815604425966739654541015625">
        <ele>614.5999755859375</ele>
        <time>2026-08-21T18:53:34.000Z</time>
        <extensions>
          <ns3:TrackPointExtension>
            <ns3:hr>122</ns3:hr>
            <ns3:cad>55</ns3:cad>
          </ns3:TrackPointExtension>
        </extensions>
      </trkpt>
      <trkpt lat="45.345256961882114410400390625" lon="-70.9815604425966739654541015625">
        <ele>614.5999755859375</ele>
        <time>2026-08-21T18:53:35.000Z</time>
        <extensions>
          <ns3:TrackPointExtension>
            <ns3:hr>122</ns3:hr>
            <ns3:cad>56</ns3:cad>
          </ns3:TrackPointExtension>
        </extensions>
      </trkpt>
      <trkpt lat="45.34524028189480304718017578125" lon="-70.981561280786991119384765625">
        <ele>614.5999755859375</ele>
        <time>2026-08-21T18:53:36.000Z</time>
        <extensions>
          <ns3:TrackPointExtension>
            <ns3:hr>121</ns3:hr>
            <ns3:cad>56</ns3:cad>
          </ns3:TrackPointExtension>
        </extensions>
      </trkpt>
      <trkpt lat="45.345225445926189422607421875" lon="-70.98156169988214969635009765625">
        <ele>614.79998779296875</ele>
        <time>2026-08-21T18:53:37.000Z</time>
        <extensions>
          <ns3:TrackPointExtension>
            <ns3:hr>120</ns3:hr>
            <ns3:cad>56</ns3:cad>
          </ns3:TrackPointExtension>
        </extensions>
      </trkpt>
      <trkpt lat="45.34520876593887805938720703125" lon="-70.9815570898354053497314453125">
        <ele>614.79998779296875</ele>
        <time>2026-08-21T18:53:38.000Z</time>
        <extensions>
          <ns3:TrackPointExtension>
            <ns3:hr>120</ns3:hr>
            <ns3:cad>56</ns3:cad>
          </ns3:TrackPointExtension>
        </extensions>
      </trkpt>
      <trkpt lat="45.3451940976083278656005859375" lon="-70.98155532963573932647705078125">
        <ele>614.79998779296875</ele>
        <time>2026-08-21T18:53:39.000Z</time>
        <extensions>
          <ns3:TrackPointExtension>
            <ns3:hr>120</ns3:hr>
            <ns3:cad>56</ns3:cad>
          </ns3:TrackPointExtension>
        </extensions>
      </trkpt>
      <trkpt lat="45.34517708234488964080810546875" lon="-70.98155759274959564208984375">
        <ele>614.79998779296875</ele>
        <time>2026-08-21T18:53:40.000Z</time>
        <extensions>
          <ns3:TrackPointExtension>
            <ns3:hr>119</ns3:hr>
            <ns3:cad>56</ns3:cad>
          </ns3:TrackPointExtension>
        </extensions>
      </trkpt>
      <trkpt lat="45.34516551531851291656494140625" lon="-70.9815570898354053497314453125">
        <ele>615</ele>
        <time>2026-08-21T18:53:41.000Z</time>
        <extensions>
          <ns3:TrackPointExtension>
            <ns3:hr>119</ns3:hr>
            <ns3:cad>56</ns3:cad>
          </ns3:TrackPointExtension>
        </extensions>
      </trkpt>
      <trkpt lat="45.34515361301600933074951171875" lon="-70.98155700601637363433837890625">
        <ele>615</ele>
        <time>2026-08-21T18:53:42.000Z</time>
        <extensions>
          <ns3:TrackPointExtension>
            <ns3:hr>119</ns3:hr>
            <ns3:cad>56</ns3:cad>
          </ns3:TrackPointExtension>
        </extensions>
      </trkpt>
      <trkpt lat="45.34513869322836399078369140625" lon="-70.98156035877764225006103515625">
        <ele>615</ele>
        <time>2026-08-21T18:53:43.000Z</time>
        <extensions>
          <ns3:TrackPointExtension>
            <ns3:hr>120</ns3:hr>
            <ns3:cad>56</ns3:cad>
          </ns3:TrackPointExtension>
        </extensions>
      </trkpt>
      <trkpt lat="45.345124192535877227783203125" lon="-70.98155985586345195770263671875">
        <ele>615.20001220703125</ele>
        <time>2026-08-21T18:53:44.000Z</time>
        <extensions>
          <ns3:TrackPointExtension>
            <ns3:hr>120</ns3:hr>
            <ns3:cad>56</ns3:cad>
          </ns3:TrackPointExtension>
        </extensions>
      </trkpt>
      <trkpt lat="45.34511103294789791107177734375" lon="-70.98156371153891086578369140625">
        <ele>615.20001220703125</ele>
        <time>2026-08-21T18:53:45.000Z</time>
        <extensions>
          <ns3:TrackPointExtension>
            <ns3:hr>120</ns3:hr>
            <ns3:cad>56</ns3:cad>
          </ns3:TrackPointExtension>
        </extensions>
      </trkpt>
      <trkpt lat="45.345097370445728302001953125" lon="-70.98156840540468692779541015625">
        <ele>615.20001220703125</ele>
        <time>2026-08-21T18:53:46.000Z</time>
        <extensions>
          <ns3:TrackPointExtension>
            <ns3:hr>120</ns3:hr>
            <ns3:cad>56</ns3:cad>
          </ns3:TrackPointExtension>
        </extensions>
      </trkpt>
      <trkpt lat="45.34507985226809978485107421875" lon="-70.98156957887113094329833984375">
        <ele>615.4000244140625</ele>
        <time>2026-08-21T18:53:47.000Z</time>
        <extensions>
          <ns3:TrackPointExtension>
            <ns3:hr>120</ns3:hr>
            <ns3:cad>56</ns3:cad>
          </ns3:TrackPointExtension>
        </extensions>
      </trkpt>
      <trkpt lat="45.345063842833042144775390625" lon="-70.98157159052789211273193359375">
        <ele>615.4000244140625</ele>
        <time>2026-08-21T18:53:48.000Z</time>
        <extensions>
          <ns3:TrackPointExtension>
            <ns3:hr>120</ns3:hr>
            <ns3:cad>56</ns3:cad>
          </ns3:TrackPointExtension>
        </extensions>
      </trkpt>
      <trkpt lat="45.345046408474445343017578125" lon="-70.9815768711268901824951171875">
        <ele>615.4000244140625</ele>
        <time>2026-08-21T18:53:49.000Z</time>
        <extensions>
          <ns3:TrackPointExtension>
            <ns3:hr>120</ns3:hr>
            <ns3:cad>56</ns3:cad>
          </ns3:TrackPointExtension>
        </extensions>
      </trkpt>
      <trkpt lat="45.3450291417539119720458984375" lon="-70.98158047534525394439697265625">
        <ele>615.4000244140625</ele>
        <time>2026-08-21T18:53:50.000Z</time>
        <extensions>
          <ns3:TrackPointExtension>
            <ns3:hr>120</ns3:hr>
            <ns3:cad>56</ns3:cad>
          </ns3:TrackPointExtension>
        </extensions>
      </trkpt>
      <trkpt lat="45.3450165688991546630859375" lon="-70.98157594911754131317138671875">
        <ele>615.5999755859375</ele>
        <time>2026-08-21T18:53:51.000Z</time>
        <extensions>
          <ns3:TrackPointExtension>
            <ns3:hr>120</ns3:hr>
            <ns3:cad>57</ns3:cad>
          </ns3:TrackPointExtension>
        </extensions>
      </trkpt>
      <trkpt lat="45.34500005654990673065185546875" lon="-70.9815748594701290130615234375">
        <ele>615.5999755859375</ele>
        <time>2026-08-21T18:53:52.000Z</time>
        <extensions>
          <ns3:TrackPointExtension>
            <ns3:hr>119</ns3:hr>
            <ns3:cad>57</ns3:cad>
          </ns3:TrackPointExtension>
        </extensions>
      </trkpt>
      <trkpt lat="45.34498496912419795989990234375" lon="-70.9815751947462558746337890625">
        <ele>615.5999755859375</ele>
        <time>2026-08-21T18:53:53.000Z</time>
        <extensions>
          <ns3:TrackPointExtension>
            <ns3:hr>120</ns3:hr>
            <ns3:cad>56</ns3:cad>
          </ns3:TrackPointExtension>
        </extensions>
      </trkpt>
      <trkpt lat="45.3449704684317111968994140625" lon="-70.9815748594701290130615234375">
        <ele>615.5999755859375</ele>
        <time>2026-08-21T18:53:54.000Z</time>
        <extensions>
          <ns3:TrackPointExtension>
            <ns3:hr>120</ns3:hr>
            <ns3:cad>56</ns3:cad>
          </ns3:TrackPointExtension>
        </extensions>
      </trkpt>
      <trkpt lat="45.34495647065341472625732421875" lon="-70.98157578147947788238525390625">
        <ele>615.79998779296875</ele>
        <time>2026-08-21T18:53:55.000Z</time>
        <extensions>
          <ns3:TrackPointExtension>
            <ns3:hr>121</ns3:hr>
            <ns3:cad>55</ns3:cad>
          </ns3:TrackPointExtension>
        </extensions>
      </trkpt>
      <trkpt lat="45.34494079649448394775390625" lon="-70.98158039152622222900390625">
        <ele>615.79998779296875</ele>
        <time>2026-08-21T18:53:56.000Z</time>
        <extensions>
          <ns3:TrackPointExtension>
            <ns3:hr>121</ns3:hr>
            <ns3:cad>55</ns3:cad>
          </ns3:TrackPointExtension>
        </extensions>
      </trkpt>
      <trkpt lat="45.34492428414523601531982421875" lon="-70.981584750115871429443359375">
        <ele>616</ele>
        <time>2026-08-21T18:53:57.000Z</time>
        <extensions>
          <ns3:TrackPointExtension>
            <ns3:hr>122</ns3:hr>
            <ns3:cad>55</ns3:cad>
          </ns3:TrackPointExtension>
        </extensions>
      </trkpt>
      <trkpt lat="45.344908945262432098388671875" lon="-70.98158583976328372955322265625">
        <ele>616</ele>
        <time>2026-08-21T18:53:58.000Z</time>
        <extensions>
          <ns3:TrackPointExtension>
            <ns3:hr>122</ns3:hr>
            <ns3:cad>55</ns3:cad>
          </ns3:TrackPointExtension>
        </extensions>
      </trkpt>
      <trkpt lat="45.34489142708480358123779296875" lon="-70.9815845824778079986572265625">
        <ele>616</ele>
        <time>2026-08-21T18:53:59.000Z</time>
        <extensions>
          <ns3:TrackPointExtension>
            <ns3:hr>122</ns3:hr>
            <ns3:cad>55</ns3:cad>
          </ns3:TrackPointExtension>
        </extensions>
      </trkpt>
      <trkpt lat="45.34487818367779254913330078125" lon="-70.98158466629683971405029296875">
        <ele>616.20001220703125</ele>
        <time>2026-08-21T18:54:00.000Z</time>
        <extensions>
          <ns3:TrackPointExtension>
            <ns3:hr>122</ns3:hr>
            <ns3:cad>55</ns3:cad>
          </ns3:TrackPointExtension>
        </extensions>
      </trkpt>
      <trkpt lat="45.34486443735659122467041015625" lon="-70.9815822355449199676513671875">
        <ele>616.20001220703125</ele>
        <time>2026-08-21T18:54:01.000Z</time>
        <extensions>
          <ns3:TrackPointExtension>
            <ns3:hr>122</ns3:hr>
            <ns3:cad>55</ns3:cad>
          </ns3:TrackPointExtension>
        </extensions>
      </trkpt>
      <trkpt lat="45.34484901465475559234619140625" lon="-70.9815815649926662445068359375">
        <ele>616.20001220703125</ele>
        <time>2026-08-21T18:54:02.000Z</time>
        <extensions>
          <ns3:TrackPointExtension>
            <ns3:hr>122</ns3:hr>
            <ns3:cad>55</ns3:cad>
          </ns3:TrackPointExtension>
        </extensions>
      </trkpt>
      <trkpt lat="45.34483141265809535980224609375" lon="-70.98158533684909343719482421875">
        <ele>616.4000244140625</ele>
        <time>2026-08-21T18:54:03.000Z</time>
        <extensions>
          <ns3:TrackPointExtension>
            <ns3:hr>122</ns3:hr>
            <ns3:cad>56</ns3:cad>
          </ns3:TrackPointExtension>
        </extensions>
      </trkpt>
      <trkpt lat="45.34481741487979888916015625" lon="-70.981584079563617706298828125">
        <ele>616.4000244140625</ele>
        <time>2026-08-21T18:54:04.000Z</time>
        <extensions>
          <ns3:TrackPointExtension>
            <ns3:hr>122</ns3:hr>
            <ns3:cad>56</ns3:cad>
          </ns3:TrackPointExtension>
        </extensions>
      </trkpt>
      <trkpt lat="45.34480157308280467987060546875" lon="-70.98158466629683971405029296875">
        <ele>616.4000244140625</ele>
        <time>2026-08-21T18:54:05.000Z</time>
        <extensions>
          <ns3:TrackPointExtension>
            <ns3:hr>122</ns3:hr>
            <ns3:cad>55</ns3:cad>
          </ns3:TrackPointExtension>
        </extensions>
      </trkpt>
      <trkpt lat="45.3447874076664447784423828125" lon="-70.98158332519233226776123046875">
        <ele>616.4000244140625</ele>
        <time>2026-08-21T18:54:06.000Z</time>
        <extensions>
          <ns3:TrackPointExtension>
            <ns3:hr>122</ns3:hr>
            <ns3:cad>55</ns3:cad>
          </ns3:TrackPointExtension>
        </extensions>
      </trkpt>
      <trkpt lat="45.34477340988814830780029296875" lon="-70.981584750115871429443359375">
        <ele>616.5999755859375</ele>
        <time>2026-08-21T18:54:07.000Z</time>
        <extensions>
          <ns3:TrackPointExtension>
            <ns3:hr>121</ns3:hr>
            <ns3:cad>55</ns3:cad>
          </ns3:TrackPointExtension>
        </extensions>
      </trkpt>
      <trkpt lat="45.34476133994758129119873046875" lon="-70.98158416338264942169189453125">
        <ele>616.5999755859375</ele>
        <time>2026-08-21T18:54:08.000Z</time>
        <extensions>
          <ns3:TrackPointExtension>
            <ns3:hr>121</ns3:hr>
            <ns3:cad>55</ns3:cad>
          </ns3:TrackPointExtension>
        </extensions>
      </trkpt>
      <trkpt lat="45.3447483479976654052734375" lon="-70.98158533684909343719482421875">
        <ele>616.5999755859375</ele>
        <time>2026-08-21T18:54:09.000Z</time>
        <extensions>
          <ns3:TrackPointExtension>
            <ns3:hr>121</ns3:hr>
            <ns3:cad>55</ns3:cad>
          </ns3:TrackPointExtension>
        </extensions>
      </trkpt>
      <trkpt lat="45.3447361104190349578857421875" lon="-70.981588773429393768310546875">
        <ele>616.5999755859375</ele>
        <time>2026-08-21T18:54:10.000Z</time>
        <extensions>
          <ns3:TrackPointExtension>
            <ns3:hr>121</ns3:hr>
            <ns3:cad>53</ns3:cad>
          </ns3:TrackPointExtension>
        </extensions>
      </trkpt>
      <trkpt lat="45.344718508422374725341796875" lon="-70.98159070126712322235107421875">
        <ele>616.5999755859375</ele>
        <time>2026-08-21T18:54:11.000Z</time>
        <extensions>
          <ns3:TrackPointExtension>
            <ns3:hr>121</ns3:hr>
            <ns3:cad>53</ns3:cad>
          </ns3:TrackPointExtension>
        </extensions>
      </trkpt>
      <trkpt lat="45.344704426825046539306640625" lon="-70.9815879352390766143798828125">
        <ele>616.79998779296875</ele>
        <time>2026-08-21T18:54:12.000Z</time>
        <extensions>
          <ns3:TrackPointExtension>
            <ns3:hr>121</ns3:hr>
            <ns3:cad>53</ns3:cad>
          </ns3:TrackPointExtension>
        </extensions>
      </trkpt>
      <trkpt lat="45.34468942321836948394775390625" lon="-70.98159112036228179931640625">
        <ele>616.79998779296875</ele>
        <time>2026-08-21T18:54:13.000Z</time>
        <extensions>
          <ns3:TrackPointExtension>
            <ns3:hr>121</ns3:hr>
            <ns3:cad>54</ns3:cad>
          </ns3:TrackPointExtension>
        </extensions>
      </trkpt>
      <trkpt lat="45.34467567689716815948486328125" lon="-70.981591455638408660888671875">
        <ele>616.79998779296875</ele>
        <time>2026-08-21T18:54:14.000Z</time>
        <extensions>
          <ns3:TrackPointExtension>
            <ns3:hr>121</ns3:hr>
            <ns3:cad>54</ns3:cad>
          </ns3:TrackPointExtension>
        </extensions>
      </trkpt>
      <trkpt lat="45.34465648233890533447265625" lon="-70.98159153945744037628173828125">
        <ele>616.79998779296875</ele>
        <time>2026-08-21T18:54:15.000Z</time>
        <extensions>
          <ns3:TrackPointExtension>
            <ns3:hr>121</ns3:hr>
            <ns3:cad>54</ns3:cad>
          </ns3:TrackPointExtension>
        </extensions>
      </trkpt>
      <trkpt lat="45.34463963471353054046630859375" lon="-70.98159505985677242279052734375">
        <ele>616.79998779296875</ele>
        <time>2026-08-21T18:54:16.000Z</time>
        <extensions>
          <ns3:TrackPointExtension>
            <ns3:hr>120</ns3:hr>
            <ns3:cad>54</ns3:cad>
          </ns3:TrackPointExtension>
        </extensions>
      </trkpt>
      <trkpt lat="45.34462538547813892364501953125" lon="-70.98159505985677242279052734375">
        <ele>616.79998779296875</ele>
        <time>2026-08-21T18:54:17.000Z</time>
        <extensions>
          <ns3:TrackPointExtension>
            <ns3:hr>120</ns3:hr>
            <ns3:cad>54</ns3:cad>
          </ns3:TrackPointExtension>
        </extensions>
      </trkpt>
      <trkpt lat="45.3446103818714618682861328125" lon="-70.98159556277096271514892578125">
        <ele>616.79998779296875</ele>
        <time>2026-08-21T18:54:18.000Z</time>
        <extensions>
          <ns3:TrackPointExtension>
            <ns3:hr>119</ns3:hr>
            <ns3:cad>54</ns3:cad>
          </ns3:TrackPointExtension>
        </extensions>
      </trkpt>
      <trkpt lat="45.3445963002741336822509765625" lon="-70.98159455694258213043212890625">
        <ele>616.79998779296875</ele>
        <time>2026-08-21T18:54:19.000Z</time>
        <extensions>
          <ns3:TrackPointExtension>
            <ns3:hr>119</ns3:hr>
            <ns3:cad>54</ns3:cad>
          </ns3:TrackPointExtension>
        </extensions>
      </trkpt>
      <trkpt lat="45.34458330832421779632568359375" lon="-70.98159656859934329986572265625">
        <ele>616.79998779296875</ele>
        <time>2026-08-21T18:54:20.000Z</time>
        <extensions>
          <ns3:TrackPointExtension>
            <ns3:hr>118</ns3:hr>
            <ns3:cad>55</ns3:cad>
          </ns3:TrackPointExtension>
        </extensions>
      </trkpt>
      <trkpt lat="45.34457065165042877197265625" lon="-70.98159606568515300750732421875">
        <ele>616.79998779296875</ele>
        <time>2026-08-21T18:54:21.000Z</time>
        <extensions>
          <ns3:TrackPointExtension>
            <ns3:hr>118</ns3:hr>
            <ns3:cad>55</ns3:cad>
          </ns3:TrackPointExtension>
        </extensions>
      </trkpt>
      <trkpt lat="45.34455631859600543975830078125" lon="-70.98159472458064556121826171875">
        <ele>616.79998779296875</ele>
        <time>2026-08-21T18:54:22.000Z</time>
        <extensions>
          <ns3:TrackPointExtension>
            <ns3:hr>118</ns3:hr>
            <ns3:cad>55</ns3:cad>
          </ns3:TrackPointExtension>
        </extensions>
      </trkpt>
      <trkpt lat="45.344542823731899261474609375" lon="-70.98159405402839183807373046875">
        <ele>616.79998779296875</ele>
        <time>2026-08-21T18:54:23.000Z</time>
        <extensions>
          <ns3:TrackPointExtension>
            <ns3:hr>118</ns3:hr>
            <ns3:cad>55</ns3:cad>
          </ns3:TrackPointExtension>
        </extensions>
      </trkpt>
      <trkpt lat="45.34452966414391994476318359375" lon="-70.98159514367580413818359375">
        <ele>616.79998779296875</ele>
        <time>2026-08-21T18:54:24.000Z</time>
        <extensions>
          <ns3:TrackPointExtension>
            <ns3:hr>118</ns3:hr>
            <ns3:cad>55</ns3:cad>
          </ns3:TrackPointExtension>
        </extensions>
      </trkpt>
      <trkpt lat="45.34452077932655811309814453125" lon="-70.9815956465899944305419921875">
        <ele>616.79998779296875</ele>
        <time>2026-08-21T18:54:25.000Z</time>
        <extensions>
          <ns3:TrackPointExtension>
            <ns3:hr>118</ns3:hr>
            <ns3:cad>54</ns3:cad>
          </ns3:TrackPointExtension>
        </extensions>
      </trkpt>
      <trkpt lat="45.344530083239078521728515625" lon="-70.981602855026721954345703125">
        <ele>617</ele>
        <time>2026-08-21T18:54:26.000Z</time>
        <extensions>
          <ns3:TrackPointExtension>
            <ns3:hr>118</ns3:hr>
            <ns3:cad>52</ns3:cad>
          </ns3:TrackPointExtension>
        </extensions>
      </trkpt>
      <trkpt lat="45.34454382956027984619140625" lon="-70.9816070459783077239990234375">
        <ele>617</ele>
        <time>2026-08-21T18:54:27.000Z</time>
        <extensions>
          <ns3:TrackPointExtension>
            <ns3:hr>118</ns3:hr>
            <ns3:cad>52</ns3:cad>
          </ns3:TrackPointExtension>
        </extensions>
      </trkpt>
      <trkpt lat="45.3445617668330669403076171875" lon="-70.98161048255860805511474609375">
        <ele>617</ele>
        <time>2026-08-21T18:54:28.000Z</time>
        <extensions>
          <ns3:TrackPointExtension>
            <ns3:hr>118</ns3:hr>
            <ns3:cad>52</ns3:cad>
          </ns3:TrackPointExtension>
        </extensions>
      </trkpt>
      <trkpt lat="45.34457894973456859588623046875" lon="-70.9816132485866546630859375">
        <ele>617</ele>
        <time>2026-08-21T18:54:29.000Z</time>
        <extensions>
          <ns3:TrackPointExtension>
            <ns3:hr>118</ns3:hr>
            <ns3:cad>52</ns3:cad>
          </ns3:TrackPointExtension>
        </extensions>
      </trkpt>
      <trkpt lat="45.34459269605576992034912109375" lon="-70.9816231392323970794677734375">
        <ele>617</ele>
        <time>2026-08-21T18:54:30.000Z</time>
        <extensions>
          <ns3:TrackPointExtension>
            <ns3:hr>118</ns3:hr>
            <ns3:cad>51</ns3:cad>
          </ns3:TrackPointExtension>
        </extensions>
      </trkpt>
      <trkpt lat="45.34460275433957576751708984375" lon="-70.9816331975162029266357421875">
        <ele>616.79998779296875</ele>
        <time>2026-08-21T18:54:31.000Z</time>
        <extensions>
          <ns3:TrackPointExtension>
            <ns3:hr>117</ns3:hr>
            <ns3:cad>51</ns3:cad>
          </ns3:TrackPointExtension>
        </extensions>
      </trkpt>
      <trkpt lat="45.34461398608982563018798828125" lon="-70.98164585418999195098876953125">
        <ele>616.79998779296875</ele>
        <time>2026-08-21T18:54:32.000Z</time>
        <extensions>
          <ns3:TrackPointExtension>
            <ns3:hr>117</ns3:hr>
            <ns3:cad>55</ns3:cad>
          </ns3:TrackPointExtension>
        </extensions>
      </trkpt>
      <trkpt lat="45.34462320618331432342529296875" lon="-70.9816593490540981292724609375">
        <ele>616.79998779296875</ele>
        <time>2026-08-21T18:54:33.000Z</time>
        <extensions>
          <ns3:TrackPointExtension>
            <ns3:hr>116</ns3:hr>
            <ns3:cad>55</ns3:cad>
          </ns3:TrackPointExtension>
        </extensions>
      </trkpt>
      <trkpt lat="45.34462974406778812408447265625" lon="-70.98167502321302890777587890625">
        <ele>616.79998779296875</ele>
        <time>2026-08-21T18:54:34.000Z</time>
        <extensions>
          <ns3:TrackPointExtension>
            <ns3:hr>115</ns3:hr>
            <ns3:cad>55</ns3:cad>
          </ns3:TrackPointExtension>
        </extensions>
      </trkpt>
      <trkpt lat="45.344640724360942840576171875" lon="-70.98169078119099140167236328125">
        <ele>616.79998779296875</ele>
        <time>2026-08-21T18:54:35.000Z</time>
        <extensions>
          <ns3:TrackPointExtension>
            <ns3:hr>115</ns3:hr>
            <ns3:cad>55</ns3:cad>
          </ns3:TrackPointExtension>
        </extensions>
      </trkpt>
      <trkpt lat="45.3446489386260509490966796875" lon="-70.9817049466073513031005859375">
        <ele>616.79998779296875</ele>
        <time>2026-08-21T18:54:36.000Z</time>
        <extensions>
          <ns3:TrackPointExtension>
            <ns3:hr>114</ns3:hr>
            <ns3:cad>54</ns3:cad>
          </ns3:TrackPointExtension>
        </extensions>
      </trkpt>
      <trkpt lat="45.3446549735963344573974609375" lon="-70.98171827383339405059814453125">
        <ele>616.79998779296875</ele>
        <time>2026-08-21T18:54:37.000Z</time>
        <extensions>
          <ns3:TrackPointExtension>
            <ns3:hr>114</ns3:hr>
            <ns3:cad>54</ns3:cad>
          </ns3:TrackPointExtension>
        </extensions>
      </trkpt>
      <trkpt lat="45.3446576558053493499755859375" lon="-70.981735624372959136962890625">
        <ele>617</ele>
        <time>2026-08-21T18:54:38.000Z</time>
        <extensions>
          <ns3:TrackPointExtension>
            <ns3:hr>113</ns3:hr>
            <ns3:cad>54</ns3:cad>
          </ns3:TrackPointExtension>
        </extensions>
      </trkpt>
      <trkpt lat="45.34465824253857135772705078125" lon="-70.9817549027502536773681640625">
        <ele>617</ele>
        <time>2026-08-21T18:54:39.000Z</time>
        <extensions>
          <ns3:TrackPointExtension>
            <ns3:hr>112</ns3:hr>
            <ns3:cad>54</ns3:cad>
          </ns3:TrackPointExtension>
        </extensions>
      </trkpt>
      <trkpt lat="45.3446579910814762115478515625" lon="-70.98177158273756504058837890625">
        <ele>617</ele>
        <time>2026-08-21T18:54:40.000Z</time>
        <extensions>
          <ns3:TrackPointExtension>
            <ns3:hr>112</ns3:hr>
            <ns3:cad>54</ns3:cad>
          </ns3:TrackPointExtension>
        </extensions>
      </trkpt>
      <trkpt lat="45.34465589560568332672119140625" lon="-70.9817902743816375732421875">
        <ele>617</ele>
        <time>2026-08-21T18:54:41.000Z</time>
        <extensions>
          <ns3:TrackPointExtension>
            <ns3:hr>112</ns3:hr>
            <ns3:cad>54</ns3:cad>
          </ns3:TrackPointExtension>
        </extensions>
      </trkpt>
      <trkpt lat="45.34465086646378040313720703125" lon="-70.981809385120868682861328125">
        <ele>617</ele>
        <time>2026-08-21T18:54:42.000Z</time>
        <extensions>
          <ns3:TrackPointExtension>
            <ns3:hr>112</ns3:hr>
            <ns3:cad>54</ns3:cad>
          </ns3:TrackPointExtension>
        </extensions>
      </trkpt>
      <trkpt lat="45.3446475975215435028076171875" lon="-70.98182941786944866180419921875">
        <ele>617</ele>
        <time>2026-08-21T18:54:43.000Z</time>
        <extensions>
          <ns3:TrackPointExtension>
            <ns3:hr>112</ns3:hr>
            <ns3:cad>55</ns3:cad>
          </ns3:TrackPointExtension>
        </extensions>
      </trkpt>
      <trkpt lat="45.34464575350284576416015625" lon="-70.981849618256092071533203125">
        <ele>617</ele>
        <time>2026-08-21T18:54:44.000Z</time>
        <extensions>
          <ns3:TrackPointExtension>
            <ns3:hr>112</ns3:hr>
            <ns3:cad>55</ns3:cad>
          </ns3:TrackPointExtension>
        </extensions>
      </trkpt>
      <trkpt lat="45.34464516676962375640869140625" lon="-70.9818688966333866119384765625">
        <ele>617</ele>
        <time>2026-08-21T18:54:45.000Z</time>
        <extensions>
          <ns3:TrackPointExtension>
            <ns3:hr>112</ns3:hr>
            <ns3:cad>56</ns3:cad>
          </ns3:TrackPointExtension>
        </extensions>
      </trkpt>
      <trkpt lat="45.344644077122211456298828125" lon="-70.9818920306861400604248046875">
        <ele>617</ele>
        <time>2026-08-21T18:54:46.000Z</time>
        <extensions>
          <ns3:TrackPointExtension>
            <ns3:hr>111</ns3:hr>
            <ns3:cad>56</ns3:cad>
          </ns3:TrackPointExtension>
        </extensions>
      </trkpt>
      <trkpt lat="45.3446445800364017486572265625" lon="-70.9819104708731174468994140625">
        <ele>616.79998779296875</ele>
        <time>2026-08-21T18:54:47.000Z</time>
        <extensions>
          <ns3:TrackPointExtension>
            <ns3:hr>111</ns3:hr>
            <ns3:cad>56</ns3:cad>
          </ns3:TrackPointExtension>
        </extensions>
      </trkpt>
      <trkpt lat="45.344645418226718902587890625" lon="-70.98193268291652202606201171875">
        <ele>616.79998779296875</ele>
        <time>2026-08-21T18:54:48.000Z</time>
        <extensions>
          <ns3:TrackPointExtension>
            <ns3:hr>112</ns3:hr>
            <ns3:cad>56</ns3:cad>
          </ns3:TrackPointExtension>
        </extensions>
      </trkpt>
      <trkpt lat="45.344648770987987518310546875" lon="-70.98195590078830718994140625">
        <ele>616.79998779296875</ele>
        <time>2026-08-21T18:54:49.000Z</time>
        <extensions>
          <ns3:TrackPointExtension>
            <ns3:hr>111</ns3:hr>
            <ns3:cad>56</ns3:cad>
          </ns3:TrackPointExtension>
        </extensions>
      </trkpt>
      <trkpt lat="45.34465036354959011077880859375" lon="-70.9819785319268703460693359375">
        <ele>617</ele>
        <time>2026-08-21T18:54:50.000Z</time>
        <extensions>
          <ns3:TrackPointExtension>
            <ns3:hr>112</ns3:hr>
            <ns3:cad>56</ns3:cad>
          </ns3:TrackPointExtension>
        </extensions>
      </trkpt>
      <trkpt lat="45.34464885480701923370361328125" lon="-70.9819959662854671478271484375">
        <ele>617.20001220703125</ele>
        <time>2026-08-21T18:54:51.000Z</time>
        <extensions>
          <ns3:TrackPointExtension>
            <ns3:hr>112</ns3:hr>
            <ns3:cad>56</ns3:cad>
          </ns3:TrackPointExtension>
        </extensions>
      </trkpt>
      <trkpt lat="45.34464986063539981842041015625" lon="-70.98201516084372997283935546875">
        <ele>617.4000244140625</ele>
        <time>2026-08-21T18:54:52.000Z</time>
        <extensions>
          <ns3:TrackPointExtension>
            <ns3:hr>112</ns3:hr>
            <ns3:cad>55</ns3:cad>
          </ns3:TrackPointExtension>
        </extensions>
      </trkpt>
      <trkpt lat="45.34464868716895580291748046875" lon="-70.98203008063137531280517578125">
        <ele>617.4000244140625</ele>
        <time>2026-08-21T18:54:53.000Z</time>
        <extensions>
          <ns3:TrackPointExtension>
            <ns3:hr>112</ns3:hr>
            <ns3:cad>55</ns3:cad>
          </ns3:TrackPointExtension>
        </extensions>
      </trkpt>
      <trkpt lat="45.3446486033499240875244140625" lon="-70.9820593334734439849853515625">
        <ele>617.5999755859375</ele>
        <time>2026-08-21T18:54:54.000Z</time>
        <extensions>
          <ns3:TrackPointExtension>
            <ns3:hr>111</ns3:hr>
            <ns3:cad>55</ns3:cad>
          </ns3:TrackPointExtension>
        </extensions>
      </trkpt>
      <trkpt lat="45.3446499444544315338134765625" lon="-70.98207819275557994842529296875">
        <ele>617.5999755859375</ele>
        <time>2026-08-21T18:54:55.000Z</time>
        <extensions>
          <ns3:TrackPointExtension>
            <ns3:hr>110</ns3:hr>
            <ns3:cad>54</ns3:cad>
          </ns3:TrackPointExtension>
        </extensions>
      </trkpt>
      <trkpt lat="45.34465187229216098785400390625" lon="-70.9820968843996524810791015625">
        <ele>617.4000244140625</ele>
        <time>2026-08-21T18:54:56.000Z</time>
        <extensions>
          <ns3:TrackPointExtension>
            <ns3:hr>110</ns3:hr>
            <ns3:cad>54</ns3:cad>
          </ns3:TrackPointExtension>
        </extensions>
      </trkpt>
      <trkpt lat="45.34465203993022441864013671875" lon="-70.98211524076759815216064453125">
        <ele>617.4000244140625</ele>
        <time>2026-08-21T18:54:57.000Z</time>
        <extensions>
          <ns3:TrackPointExtension>
            <ns3:hr>110</ns3:hr>
            <ns3:cad>54</ns3:cad>
          </ns3:TrackPointExtension>
        </extensions>
      </trkpt>
      <trkpt lat="45.34464969299733638763427734375" lon="-70.9821320883929729461669921875">
        <ele>617.4000244140625</ele>
        <time>2026-08-21T18:54:58.000Z</time>
        <extensions>
          <ns3:TrackPointExtension>
            <ns3:hr>109</ns3:hr>
            <ns3:cad>54</ns3:cad>
          </ns3:TrackPointExtension>
        </extensions>
      </trkpt>
      <trkpt lat="45.34465086646378040313720703125" lon="-70.98215346224606037139892578125">
        <ele>617.5999755859375</ele>
        <time>2026-08-21T18:54:59.000Z</time>
        <extensions>
          <ns3:TrackPointExtension>
            <ns3:hr>109</ns3:hr>
            <ns3:cad>54</ns3:cad>
          </ns3:TrackPointExtension>
        </extensions>
      </trkpt>
      <trkpt lat="45.34465321339666843414306640625" lon="-70.98217357881367206573486328125">
        <ele>617.79998779296875</ele>
        <time>2026-08-21T18:55:00.000Z</time>
        <extensions>
          <ns3:TrackPointExtension>
            <ns3:hr>109</ns3:hr>
            <ns3:cad>55</ns3:cad>
          </ns3:TrackPointExtension>
        </extensions>
      </trkpt>
      <trkpt lat="45.34465245902538299560546875" lon="-70.98218950442969799041748046875">
        <ele>617.79998779296875</ele>
        <time>2026-08-21T18:55:01.000Z</time>
        <extensions>
          <ns3:TrackPointExtension>
            <ns3:hr>109</ns3:hr>
            <ns3:cad>55</ns3:cad>
          </ns3:TrackPointExtension>
        </extensions>
      </trkpt>
      <trkpt lat="45.344657488167285919189453125" lon="-70.98220911808311939239501953125">
        <ele>618</ele>
        <time>2026-08-21T18:55:02.000Z</time>
        <extensions>
          <ns3:TrackPointExtension>
            <ns3:hr>109</ns3:hr>
            <ns3:cad>54</ns3:cad>
          </ns3:TrackPointExtension>
        </extensions>
      </trkpt>
      <trkpt lat="45.3446598351001739501953125" lon="-70.98222403787076473236083984375">
        <ele>618</ele>
        <time>2026-08-21T18:55:03.000Z</time>
        <extensions>
          <ns3:TrackPointExtension>
            <ns3:hr>109</ns3:hr>
            <ns3:cad>54</ns3:cad>
          </ns3:TrackPointExtension>
        </extensions>
      </trkpt>
      <trkpt lat="45.3446586616337299346923828125" lon="-70.982237868010997772216796875">
        <ele>618</ele>
        <time>2026-08-21T18:55:04.000Z</time>
        <extensions>
          <ns3:TrackPointExtension>
            <ns3:hr>109</ns3:hr>
            <ns3:cad>54</ns3:cad>
          </ns3:TrackPointExtension>
        </extensions>
      </trkpt>
      <trkpt lat="45.344658158719539642333984375" lon="-70.9822598285973072052001953125">
        <ele>618</ele>
        <time>2026-08-21T18:55:05.000Z</time>
        <extensions>
          <ns3:TrackPointExtension>
            <ns3:hr>109</ns3:hr>
            <ns3:cad>54</ns3:cad>
          </ns3:TrackPointExtension>
        </extensions>
      </trkpt>
      <trkpt lat="45.3446613438427448272705078125" lon="-70.98228204064071178436279296875">
        <ele>617.79998779296875</ele>
        <time>2026-08-21T18:55:06.000Z</time>
        <extensions>
          <ns3:TrackPointExtension>
            <ns3:hr>109</ns3:hr>
            <ns3:cad>54</ns3:cad>
          </ns3:TrackPointExtension>
        </extensions>
      </trkpt>
      <trkpt lat="45.34466126002371311187744140625" lon="-70.9823044203221797943115234375">
        <ele>617.79998779296875</ele>
        <time>2026-08-21T18:55:07.000Z</time>
        <extensions>
          <ns3:TrackPointExtension>
            <ns3:hr>109</ns3:hr>
            <ns3:cad>54</ns3:cad>
          </ns3:TrackPointExtension>
        </extensions>
      </trkpt>
      <trkpt lat="45.344660170376300811767578125" lon="-70.98232830874621868133544921875">
        <ele>618</ele>
        <time>2026-08-21T18:55:08.000Z</time>
        <extensions>
          <ns3:TrackPointExtension>
            <ns3:hr>109</ns3:hr>
            <ns3:cad>53</ns3:cad>
          </ns3:TrackPointExtension>
        </extensions>
      </trkpt>
      <trkpt lat="45.34466058947145938873291015625" lon="-70.98235043697059154510498046875">
        <ele>618</ele>
        <time>2026-08-21T18:55:09.000Z</time>
        <extensions>
          <ns3:TrackPointExtension>
            <ns3:hr>110</ns3:hr>
            <ns3:cad>53</ns3:cad>
          </ns3:TrackPointExtension>
        </extensions>
      </trkpt>
      <trkpt lat="45.34466209821403026580810546875" lon="-70.98237357102334499359130859375">
        <ele>618</ele>
        <time>2026-08-21T18:55:10.000Z</time>
        <extensions>
          <ns3:TrackPointExtension>
            <ns3:hr>111</ns3:hr>
            <ns3:cad>53</ns3:cad>
          </ns3:TrackPointExtension>
        </extensions>
      </trkpt>
      <trkpt lat="45.344664193689823150634765625" lon="-70.9823942743241786956787109375">
        <ele>618.20001220703125</ele>
        <time>2026-08-21T18:55:11.000Z</time>
        <extensions>
          <ns3:TrackPointExtension>
            <ns3:hr>111</ns3:hr>
            <ns3:cad>53</ns3:cad>
          </ns3:TrackPointExtension>
        </extensions>
      </trkpt>
      <trkpt lat="45.3446667082607746124267578125" lon="-70.9824190847575664520263671875">
        <ele>618.20001220703125</ele>
        <time>2026-08-21T18:55:12.000Z</time>
        <extensions>
          <ns3:TrackPointExtension>
            <ns3:hr>111</ns3:hr>
            <ns3:cad>57</ns3:cad>
          </ns3:TrackPointExtension>
        </extensions>
      </trkpt>
      <trkpt lat="45.3446646966040134429931640625" lon="-70.98244649358093738555908203125">
        <ele>618.20001220703125</ele>
        <time>2026-08-21T18:55:13.000Z</time>
        <extensions>
          <ns3:TrackPointExtension>
            <ns3:hr>111</ns3:hr>
            <ns3:cad>57</ns3:cad>
          </ns3:TrackPointExtension>
        </extensions>
      </trkpt>
      <trkpt lat="45.3446640260517597198486328125" lon="-70.9824742376804351806640625">
        <ele>618.20001220703125</ele>
        <time>2026-08-21T18:55:14.000Z</time>
        <extensions>
          <ns3:TrackPointExtension>
            <ns3:hr>112</ns3:hr>
            <ns3:cad>57</ns3:cad>
          </ns3:TrackPointExtension>
        </extensions>
      </trkpt>
      <trkpt lat="45.34466729499399662017822265625" lon="-70.98250667564570903778076171875">
        <ele>618.4000244140625</ele>
        <time>2026-08-21T18:55:15.000Z</time>
        <extensions>
          <ns3:TrackPointExtension>
            <ns3:hr>112</ns3:hr>
            <ns3:cad>57</ns3:cad>
          </ns3:TrackPointExtension>
        </extensions>
      </trkpt>
      <trkpt lat="45.344665534794330596923828125" lon="-70.9825357608497142791748046875">
        <ele>618.4000244140625</ele>
        <time>2026-08-21T18:55:16.000Z</time>
        <extensions>
          <ns3:TrackPointExtension>
            <ns3:hr>113</ns3:hr>
            <ns3:cad>57</ns3:cad>
          </ns3:TrackPointExtension>
        </extensions>
      </trkpt>
      <trkpt lat="45.3446579910814762115478515625" lon="-70.98255998454988002777099609375">
        <ele>618.4000244140625</ele>
        <time>2026-08-21T18:55:17.000Z</time>
        <extensions>
          <ns3:TrackPointExtension>
            <ns3:hr>113</ns3:hr>
            <ns3:cad>0</ns3:cad>
          </ns3:TrackPointExtension>
        </extensions>
      </trkpt>
      <trkpt lat="45.3446571528911590576171875" lon="-70.98259166814386844635009765625">
        <ele>618.4000244140625</ele>
        <time>2026-08-21T18:55:18.000Z</time>
        <extensions>
          <ns3:TrackPointExtension>
            <ns3:hr>113</ns3:hr>
            <ns3:cad>0</ns3:cad>
          </ns3:TrackPointExtension>
        </extensions>
      </trkpt>
      <trkpt lat="45.34465673379600048065185546875" lon="-70.9826229326426982879638671875">
        <ele>618.4000244140625</ele>
        <time>2026-08-21T18:55:19.000Z</time>
        <extensions>
          <ns3:TrackPointExtension>
            <ns3:hr>113</ns3:hr>
            <ns3:cad>0</ns3:cad>
          </ns3:TrackPointExtension>
        </extensions>
      </trkpt>
      <trkpt lat="45.34465438686311244964599609375" lon="-70.982655622065067291259765625">
        <ele>618.4000244140625</ele>
        <time>2026-08-21T18:55:20.000Z</time>
        <extensions>
          <ns3:TrackPointExtension>
            <ns3:hr>114</ns3:hr>
            <ns3:cad>0</ns3:cad>
          </ns3:TrackPointExtension>
        </extensions>
      </trkpt>
      <trkpt lat="45.3446563147008419036865234375" lon="-70.9826919995248317718505859375">
        <ele>618.5999755859375</ele>
        <time>2026-08-21T18:55:21.000Z</time>
        <extensions>
          <ns3:TrackPointExtension>
            <ns3:hr>114</ns3:hr>
            <ns3:cad>0</ns3:cad>
          </ns3:TrackPointExtension>
        </extensions>
      </trkpt>
      <trkpt lat="45.34465371631085872650146484375" lon="-70.982720665633678436279296875">
        <ele>618.5999755859375</ele>
        <time>2026-08-21T18:55:22.000Z</time>
        <extensions>
          <ns3:TrackPointExtension>
            <ns3:hr>114</ns3:hr>
            <ns3:cad>0</ns3:cad>
          </ns3:TrackPointExtension>
        </extensions>
      </trkpt>
      <trkpt lat="45.34465103410184383392333984375" lon="-70.9827483259141445159912109375">
        <ele>618.4000244140625</ele>
        <time>2026-08-21T18:55:23.000Z</time>
        <extensions>
          <ns3:TrackPointExtension>
            <ns3:hr>114</ns3:hr>
            <ns3:cad>0</ns3:cad>
          </ns3:TrackPointExtension>
        </extensions>
      </trkpt>
      <trkpt lat="45.344653464853763580322265625" lon="-70.98278646357357501983642578125">
        <ele>618.4000244140625</ele>
        <time>2026-08-21T18:55:24.000Z</time>
        <extensions>
          <ns3:TrackPointExtension>
            <ns3:hr>115</ns3:hr>
            <ns3:cad>0</ns3:cad>
          </ns3:TrackPointExtension>
        </extensions>
      </trkpt>
      <trkpt lat="45.34465380012989044189453125" lon="-70.98281814716756343841552734375">
        <ele>618.4000244140625</ele>
        <time>2026-08-21T18:55:25.000Z</time>
        <extensions>
          <ns3:TrackPointExtension>
            <ns3:hr>115</ns3:hr>
            <ns3:cad>0</ns3:cad>
          </ns3:TrackPointExtension>
        </extensions>
      </trkpt>
      <trkpt lat="45.34465245902538299560546875" lon="-70.98285117186605930328369140625">
        <ele>618.4000244140625</ele>
        <time>2026-08-21T18:55:26.000Z</time>
        <extensions>
          <ns3:TrackPointExtension>
            <ns3:hr>116</ns3:hr>
            <ns3:cad>0</ns3:cad>
          </ns3:TrackPointExtension>
        </extensions>
      </trkpt>
      <trkpt lat="45.34465472213923931121826171875" lon="-70.9828884713351726531982421875">
        <ele>618.20001220703125</ele>
        <time>2026-08-21T18:55:27.000Z</time>
        <extensions>
          <ns3:TrackPointExtension>
            <ns3:hr>117</ns3:hr>
            <ns3:cad>81</ns3:cad>
          </ns3:TrackPointExtension>
        </extensions>
      </trkpt>
      <trkpt lat="45.34465690143406391143798828125" lon="-70.98291856236755847930908203125">
        <ele>618.20001220703125</ele>
        <time>2026-08-21T18:55:28.000Z</time>
        <extensions>
          <ns3:TrackPointExtension>
            <ns3:hr>118</ns3:hr>
            <ns3:cad>78</ns3:cad>
          </ns3:TrackPointExtension>
        </extensions>
      </trkpt>
      <trkpt lat="45.3446559794247150421142578125" lon="-70.9829525090754032135009765625">
        <ele>618.20001220703125</ele>
        <time>2026-08-21T18:55:29.000Z</time>
        <extensions>
          <ns3:TrackPointExtension>
            <ns3:hr>118</ns3:hr>
            <ns3:cad>78</ns3:cad>
          </ns3:TrackPointExtension>
        </extensions>
      </trkpt>
      <trkpt lat="45.34465849399566650390625" lon="-70.982987880706787109375">
        <ele>618.20001220703125</ele>
        <time>2026-08-21T18:55:30.000Z</time>
        <extensions>
          <ns3:TrackPointExtension>
            <ns3:hr>119</ns3:hr>
            <ns3:cad>78</ns3:cad>
          </ns3:TrackPointExtension>
        </extensions>
      </trkpt>
      <trkpt lat="45.34465824253857135772705078125" lon="-70.98301093094050884246826171875">
        <ele>618</ele>
        <time>2026-08-21T18:55:31.000Z</time>
        <extensions>
          <ns3:TrackPointExtension>
            <ns3:hr>119</ns3:hr>
            <ns3:cad>78</ns3:cad>
          </ns3:TrackPointExtension>
        </extensions>
      </trkpt>
      <trkpt lat="45.3446556441485881805419921875" lon="-70.9830316342413425445556640625">
        <ele>618</ele>
        <time>2026-08-21T18:55:32.000Z</time>
        <extensions>
          <ns3:TrackPointExtension>
            <ns3:hr>119</ns3:hr>
            <ns3:cad>78</ns3:cad>
          </ns3:TrackPointExtension>
        </extensions>
      </trkpt>
      <trkpt lat="45.34465673379600048065185546875" lon="-70.9830480627715587615966796875">
        <ele>618</ele>
        <time>2026-08-21T18:55:33.000Z</time>
        <extensions>
          <ns3:TrackPointExtension>
            <ns3:hr>119</ns3:hr>
            <ns3:cad>78</ns3:cad>
          </ns3:TrackPointExtension>
        </extensions>
      </trkpt>
      <trkpt lat="45.34465254284441471099853515625" lon="-70.9830705262720584869384765625">
        <ele>618</ele>
        <time>2026-08-21T18:55:34.000Z</time>
        <extensions>
          <ns3:TrackPointExtension>
            <ns3:hr>119</ns3:hr>
            <ns3:cad>78</ns3:cad>
          </ns3:TrackPointExtension>
        </extensions>
      </trkpt>
      <trkpt lat="45.34465203993022441864013671875" lon="-70.9830889664590358734130859375">
        <ele>618.20001220703125</ele>
        <time>2026-08-21T18:55:35.000Z</time>
        <extensions>
          <ns3:TrackPointExtension>
            <ns3:hr>120</ns3:hr>
            <ns3:cad>0</ns3:cad>
          </ns3:TrackPointExtension>
        </extensions>
      </trkpt>
      <trkpt lat="45.3446506150066852569580078125" lon="-70.983108244836330413818359375">
        <ele>618.20001220703125</ele>
        <time>2026-08-21T18:55:36.000Z</time>
        <extensions>
          <ns3:TrackPointExtension>
            <ns3:hr>119</ns3:hr>
            <ns3:cad>0</ns3:cad>
          </ns3:TrackPointExtension>
        </extensions>
      </trkpt>
      <trkpt lat="45.34465053118765354156494140625" lon="-70.9831255115568637847900390625">
        <ele>618.20001220703125</ele>
        <time>2026-08-21T18:55:37.000Z</time>
        <extensions>
          <ns3:TrackPointExtension>
            <ns3:hr>119</ns3:hr>
            <ns3:cad>0</ns3:cad>
          </ns3:TrackPointExtension>
        </extensions>
      </trkpt>
      <trkpt lat="45.344650112092494964599609375" lon="-70.98314403556287288665771484375">
        <ele>618.20001220703125</ele>
        <time>2026-08-21T18:55:38.000Z</time>
        <extensions>
          <ns3:TrackPointExtension>
            <ns3:hr>120</ns3:hr>
            <ns3:cad>54</ns3:cad>
          </ns3:TrackPointExtension>
        </extensions>
      </trkpt>
      <trkpt lat="45.3446512855589389801025390625" lon="-70.98316230811178684234619140625">
        <ele>618.20001220703125</ele>
        <time>2026-08-21T18:55:39.000Z</time>
        <extensions>
          <ns3:TrackPointExtension>
            <ns3:hr>119</ns3:hr>
            <ns3:cad>54</ns3:cad>
          </ns3:TrackPointExtension>
        </extensions>
      </trkpt>
      <trkpt lat="45.3446546383202075958251953125" lon="-70.983182676136493682861328125">
        <ele>618.4000244140625</ele>
        <time>2026-08-21T18:55:40.000Z</time>
        <extensions>
          <ns3:TrackPointExtension>
            <ns3:hr>119</ns3:hr>
            <ns3:cad>54</ns3:cad>
          </ns3:TrackPointExtension>
        </extensions>
      </trkpt>
      <trkpt lat="45.34465639851987361907958984375" lon="-70.983203463256359100341796875">
        <ele>618.4000244140625</ele>
        <time>2026-08-21T18:55:41.000Z</time>
        <extensions>
          <ns3:TrackPointExtension>
            <ns3:hr>119</ns3:hr>
            <ns3:cad>54</ns3:cad>
          </ns3:TrackPointExtension>
        </extensions>
      </trkpt>
      <trkpt lat="45.344658829271793365478515625" lon="-70.98322802223265171051025390625">
        <ele>618.5999755859375</ele>
        <time>2026-08-21T18:55:42.000Z</time>
        <extensions>
          <ns3:TrackPointExtension>
            <ns3:hr>119</ns3:hr>
            <ns3:cad>56</ns3:cad>
          </ns3:TrackPointExtension>
        </extensions>
      </trkpt>
      <trkpt lat="45.34466058947145938873291015625" lon="-70.98325182683765888214111328125">
        <ele>618.5999755859375</ele>
        <time>2026-08-21T18:55:43.000Z</time>
        <extensions>
          <ns3:TrackPointExtension>
            <ns3:hr>118</ns3:hr>
            <ns3:cad>56</ns3:cad>
          </ns3:TrackPointExtension>
        </extensions>
      </trkpt>
      <trkpt lat="45.3446636907756328582763671875" lon="-70.98327948711812496185302734375">
        <ele>618.79998779296875</ele>
        <time>2026-08-21T18:55:44.000Z</time>
        <extensions>
          <ns3:TrackPointExtension>
            <ns3:hr>118</ns3:hr>
            <ns3:cad>56</ns3:cad>
          </ns3:TrackPointExtension>
        </extensions>
      </trkpt>
      <trkpt lat="45.34466578625142574310302734375" lon="-70.98330480046570301055908203125">
        <ele>619</ele>
        <time>2026-08-21T18:55:45.000Z</time>
        <extensions>
          <ns3:TrackPointExtension>
            <ns3:hr>119</ns3:hr>
            <ns3:cad>55</ns3:cad>
          </ns3:TrackPointExtension>
        </extensions>
      </trkpt>
      <trkpt lat="45.34466863609850406646728515625" lon="-70.98332860507071018218994140625">
        <ele>619</ele>
        <time>2026-08-21T18:55:46.000Z</time>
        <extensions>
          <ns3:TrackPointExtension>
            <ns3:hr>119</ns3:hr>
            <ns3:cad>55</ns3:cad>
          </ns3:TrackPointExtension>
        </extensions>
      </trkpt>
      <trkpt lat="45.34467115066945552825927734375" lon="-70.98335006274282932281494140625">
        <ele>619.20001220703125</ele>
        <time>2026-08-21T18:55:47.000Z</time>
        <extensions>
          <ns3:TrackPointExtension>
            <ns3:hr>119</ns3:hr>
            <ns3:cad>55</ns3:cad>
          </ns3:TrackPointExtension>
        </extensions>
      </trkpt>
      <trkpt lat="45.34467584453523159027099609375" lon="-70.9833705984055995941162109375">
        <ele>619.20001220703125</ele>
        <time>2026-08-21T18:55:48.000Z</time>
        <extensions>
          <ns3:TrackPointExtension>
            <ns3:hr>119</ns3:hr>
            <ns3:cad>55</ns3:cad>
          </ns3:TrackPointExtension>
        </extensions>
      </trkpt>
      <trkpt lat="45.34468120895326137542724609375" lon="-70.98339197225868701934814453125">
        <ele>619.20001220703125</ele>
        <time>2026-08-21T18:55:49.000Z</time>
        <extensions>
          <ns3:TrackPointExtension>
            <ns3:hr>120</ns3:hr>
            <ns3:cad>55</ns3:cad>
          </ns3:TrackPointExtension>
        </extensions>
      </trkpt>
      <trkpt lat="45.34468506462872028350830078125" lon="-70.98341292701661586761474609375">
        <ele>619.20001220703125</ele>
        <time>2026-08-21T18:55:50.000Z</time>
        <extensions>
          <ns3:TrackPointExtension>
            <ns3:hr>120</ns3:hr>
            <ns3:cad>55</ns3:cad>
          </ns3:TrackPointExtension>
        </extensions>
      </trkpt>
      <trkpt lat="45.34469143487513065338134765625" lon="-70.9834302775561809539794921875">
        <ele>619.20001220703125</ele>
        <time>2026-08-21T18:55:51.000Z</time>
        <extensions>
          <ns3:TrackPointExtension>
            <ns3:hr>120</ns3:hr>
            <ns3:cad>55</ns3:cad>
          </ns3:TrackPointExtension>
        </extensions>
      </trkpt>
      <trkpt lat="45.3446975536644458770751953125" lon="-70.9834490530192852020263671875">
        <ele>619.4000244140625</ele>
        <time>2026-08-21T18:55:52.000Z</time>
        <extensions>
          <ns3:TrackPointExtension>
            <ns3:hr>120</ns3:hr>
            <ns3:cad>55</ns3:cad>
          </ns3:TrackPointExtension>
        </extensions>
      </trkpt>
      <trkpt lat="45.34470316953957080841064453125" lon="-70.98346606828272342681884765625">
        <ele>619.4000244140625</ele>
        <time>2026-08-21T18:55:53.000Z</time>
        <extensions>
          <ns3:TrackPointExtension>
            <ns3:hr>120</ns3:hr>
            <ns3:cad>55</ns3:cad>
          </ns3:TrackPointExtension>
        </extensions>
      </trkpt>
      <trkpt lat="45.3447102941572666168212890625" lon="-70.9834854304790496826171875">
        <ele>619.4000244140625</ele>
        <time>2026-08-21T18:55:54.000Z</time>
        <extensions>
          <ns3:TrackPointExtension>
            <ns3:hr>120</ns3:hr>
            <ns3:cad>55</ns3:cad>
          </ns3:TrackPointExtension>
        </extensions>
      </trkpt>
      <trkpt lat="45.3447161614894866943359375" lon="-70.98350496031343936920166015625">
        <ele>619.5999755859375</ele>
        <time>2026-08-21T18:55:55.000Z</time>
        <extensions>
          <ns3:TrackPointExtension>
            <ns3:hr>120</ns3:hr>
            <ns3:cad>55</ns3:cad>
          </ns3:TrackPointExtension>
        </extensions>
      </trkpt>
      <trkpt lat="45.34472429193556308746337890625" lon="-70.983525998890399932861328125">
        <ele>619.5999755859375</ele>
        <time>2026-08-21T18:55:56.000Z</time>
        <extensions>
          <ns3:TrackPointExtension>
            <ns3:hr>120</ns3:hr>
            <ns3:cad>55</ns3:cad>
          </ns3:TrackPointExtension>
        </extensions>
      </trkpt>
      <trkpt lat="45.34472881816327571868896484375" lon="-70.98354787565767765045166015625">
        <ele>619.79998779296875</ele>
        <time>2026-08-21T18:55:57.000Z</time>
        <extensions>
          <ns3:TrackPointExtension>
            <ns3:hr>120</ns3:hr>
            <ns3:cad>56</ns3:cad>
          </ns3:TrackPointExtension>
        </extensions>
      </trkpt>
      <trkpt lat="45.3447330929338932037353515625" lon="-70.98356866277754306793212890625">
        <ele>619.79998779296875</ele>
        <time>2026-08-21T18:55:58.000Z</time>
        <extensions>
          <ns3:TrackPointExtension>
            <ns3:hr>120</ns3:hr>
            <ns3:cad>56</ns3:cad>
          </ns3:TrackPointExtension>
        </extensions>
      </trkpt>
      <trkpt lat="45.3447361104190349578857421875" lon="-70.9835928864777088165283203125">
        <ele>620</ele>
        <time>2026-08-21T18:55:59.000Z</time>
        <extensions>
          <ns3:TrackPointExtension>
            <ns3:hr>120</ns3:hr>
            <ns3:cad>56</ns3:cad>
          </ns3:TrackPointExtension>
        </extensions>
      </trkpt>
      <trkpt lat="45.3447411395609378814697265625" lon="-70.98361006937921047210693359375">
        <ele>620</ele>
        <time>2026-08-21T18:56:00.000Z</time>
        <extensions>
          <ns3:TrackPointExtension>
            <ns3:hr>120</ns3:hr>
            <ns3:cad>55</ns3:cad>
          </ns3:TrackPointExtension>
        </extensions>
      </trkpt>
      <trkpt lat="45.34474507905542850494384765625" lon="-70.98362901248037815093994140625">
        <ele>620</ele>
        <time>2026-08-21T18:56:01.000Z</time>
        <extensions>
          <ns3:TrackPointExtension>
            <ns3:hr>121</ns3:hr>
            <ns3:cad>55</ns3:cad>
          </ns3:TrackPointExtension>
        </extensions>
      </trkpt>
      <trkpt lat="45.34475304186344146728515625" lon="-70.983644016087055206298828125">
        <ele>620.20001220703125</ele>
        <time>2026-08-21T18:56:02.000Z</time>
        <extensions>
          <ns3:TrackPointExtension>
            <ns3:hr>121</ns3:hr>
            <ns3:cad>55</ns3:cad>
          </ns3:TrackPointExtension>
        </extensions>
      </trkpt>
      <trkpt lat="45.344760417938232421875" lon="-70.98366103135049343109130859375">
        <ele>620</ele>
        <time>2026-08-21T18:56:03.000Z</time>
        <extensions>
          <ns3:TrackPointExtension>
            <ns3:hr>121</ns3:hr>
            <ns3:cad>55</ns3:cad>
          </ns3:TrackPointExtension>
        </extensions>
      </trkpt>
      <trkpt lat="45.34476838074624538421630859375" lon="-70.98367863334715366363525390625">
        <ele>620.20001220703125</ele>
        <time>2026-08-21T18:56:04.000Z</time>
        <extensions>
          <ns3:TrackPointExtension>
            <ns3:hr>121</ns3:hr>
            <ns3:cad>55</ns3:cad>
          </ns3:TrackPointExtension>
        </extensions>
      </trkpt>
      <trkpt lat="45.344776846468448638916015625" lon="-70.98369455896317958831787109375">
        <ele>620.20001220703125</ele>
        <time>2026-08-21T18:56:05.000Z</time>
        <extensions>
          <ns3:TrackPointExtension>
            <ns3:hr>122</ns3:hr>
            <ns3:cad>55</ns3:cad>
          </ns3:TrackPointExtension>
        </extensions>
      </trkpt>
      <trkpt lat="45.3447858989238739013671875" lon="-70.9837132506072521209716796875">
        <ele>620.20001220703125</ele>
        <time>2026-08-21T18:56:06.000Z</time>
        <extensions>
          <ns3:TrackPointExtension>
            <ns3:hr>122</ns3:hr>
            <ns3:cad>55</ns3:cad>
          </ns3:TrackPointExtension>
        </extensions>
      </trkpt>
      <trkpt lat="45.34479503519833087921142578125" lon="-70.9837281703948974609375">
        <ele>620.4000244140625</ele>
        <time>2026-08-21T18:56:07.000Z</time>
        <extensions>
          <ns3:TrackPointExtension>
            <ns3:hr>122</ns3:hr>
            <ns3:cad>55</ns3:cad>
          </ns3:TrackPointExtension>
        </extensions>
      </trkpt>
      <trkpt lat="45.34480241127312183380126953125" lon="-70.98374761641025543212890625">
        <ele>620.5999755859375</ele>
        <time>2026-08-21T18:56:08.000Z</time>
        <extensions>
          <ns3:TrackPointExtension>
            <ns3:hr>122</ns3:hr>
            <ns3:cad>55</ns3:cad>
          </ns3:TrackPointExtension>
        </extensions>
      </trkpt>
      <trkpt lat="45.344808362424373626708984375" lon="-70.98376731388270854949951171875">
        <ele>620.5999755859375</ele>
        <time>2026-08-21T18:56:09.000Z</time>
        <extensions>
          <ns3:TrackPointExtension>
            <ns3:hr>123</ns3:hr>
            <ns3:cad>55</ns3:cad>
          </ns3:TrackPointExtension>
        </extensions>
      </trkpt>
      <trkpt lat="45.34481079317629337310791015625" lon="-70.983788855373859405517578125">
        <ele>620.79998779296875</ele>
        <time>2026-08-21T18:56:10.000Z</time>
        <extensions>
          <ns3:TrackPointExtension>
            <ns3:hr>124</ns3:hr>
            <ns3:cad>54</ns3:cad>
          </ns3:TrackPointExtension>
        </extensions>
      </trkpt>
      <trkpt lat="45.34481934271752834320068359375" lon="-70.98379983566701412200927734375">
        <ele>620.79998779296875</ele>
        <time>2026-08-21T18:56:11.000Z</time>
        <extensions>
          <ns3:TrackPointExtension>
            <ns3:hr>124</ns3:hr>
            <ns3:cad>54</ns3:cad>
          </ns3:TrackPointExtension>
        </extensions>
      </trkpt>
      <trkpt lat="45.344828478991985321044921875" lon="-70.98381039686501026153564453125">
        <ele>621</ele>
        <time>2026-08-21T18:56:12.000Z</time>
        <extensions>
          <ns3:TrackPointExtension>
            <ns3:hr>124</ns3:hr>
            <ns3:cad>54</ns3:cad>
          </ns3:TrackPointExtension>
        </extensions>
      </trkpt>
      <trkpt lat="45.34483308903872966766357421875" lon="-70.9838185273110866546630859375">
        <ele>621</ele>
        <time>2026-08-21T18:56:13.000Z</time>
        <extensions>
          <ns3:TrackPointExtension>
            <ns3:hr>124</ns3:hr>
            <ns3:cad>53</ns3:cad>
          </ns3:TrackPointExtension>
        </extensions>
      </trkpt>
      <trkpt lat="45.34484147094190120697021484375" lon="-70.983829088509082794189453125">
        <ele>621.20001220703125</ele>
        <time>2026-08-21T18:56:14.000Z</time>
        <extensions>
          <ns3:TrackPointExtension>
            <ns3:hr>125</ns3:hr>
            <ns3:cad>53</ns3:cad>
          </ns3:TrackPointExtension>
        </extensions>
      </trkpt>
      <trkpt lat="45.3448474220931529998779296875" lon="-70.98384342156350612640380859375">
        <ele>621.20001220703125</ele>
        <time>2026-08-21T18:56:15.000Z</time>
        <extensions>
          <ns3:TrackPointExtension>
            <ns3:hr>125</ns3:hr>
            <ns3:cad>52</ns3:cad>
          </ns3:TrackPointExtension>
        </extensions>
      </trkpt>
      <trkpt lat="45.3448537923395633697509765625" lon="-70.98385917954146862030029296875">
        <ele>621.20001220703125</ele>
        <time>2026-08-21T18:56:16.000Z</time>
        <extensions>
          <ns3:TrackPointExtension>
            <ns3:hr>125</ns3:hr>
            <ns3:cad>52</ns3:cad>
          </ns3:TrackPointExtension>
        </extensions>
      </trkpt>
      <trkpt lat="45.34486125223338603973388671875" lon="-70.983865968883037567138671875">
        <ele>621.4000244140625</ele>
        <time>2026-08-21T18:56:17.000Z</time>
        <extensions>
          <ns3:TrackPointExtension>
            <ns3:hr>125</ns3:hr>
            <ns3:cad>52</ns3:cad>
          </ns3:TrackPointExtension>
        </extensions>
      </trkpt>
      <trkpt lat="45.3448688797652721405029296875" lon="-70.98386965692043304443359375">
        <ele>621.4000244140625</ele>
        <time>2026-08-21T18:56:18.000Z</time>
        <extensions>
          <ns3:TrackPointExtension>
            <ns3:hr>125</ns3:hr>
            <ns3:cad>50</ns3:cad>
          </ns3:TrackPointExtension>
        </extensions>
      </trkpt>
      <trkpt lat="45.34486846067011356353759765625" lon="-70.9838624484837055206298828125">
        <ele>621.4000244140625</ele>
        <time>2026-08-21T18:56:19.000Z</time>
        <extensions>
          <ns3:TrackPointExtension>
            <ns3:hr>124</ns3:hr>
            <ns3:cad>50</ns3:cad>
          </ns3:TrackPointExtension>
        </extensions>
      </trkpt>
      <trkpt lat="45.34486711956560611724853515625" lon="-70.9838547371327877044677734375">
        <ele>621.5999755859375</ele>
        <time>2026-08-21T18:56:20.000Z</time>
        <extensions>
          <ns3:TrackPointExtension>
            <ns3:hr>124</ns3:hr>
            <ns3:cad>50</ns3:cad>
          </ns3:TrackPointExtension>
        </extensions>
      </trkpt>
      <trkpt lat="45.344870388507843017578125" lon="-70.98386152647435665130615234375">
        <ele>621.5999755859375</ele>
        <time>2026-08-21T18:56:21.000Z</time>
        <extensions>
          <ns3:TrackPointExtension>
            <ns3:hr>124</ns3:hr>
            <ns3:cad>50</ns3:cad>
          </ns3:TrackPointExtension>
        </extensions>
      </trkpt>
      <trkpt lat="45.3448739089071750640869140625" lon="-70.98386521451175212860107421875">
        <ele>621.5999755859375</ele>
        <time>2026-08-21T18:56:22.000Z</time>
        <extensions>
          <ns3:TrackPointExtension>
            <ns3:hr>124</ns3:hr>
            <ns3:cad>0</ns3:cad>
          </ns3:TrackPointExtension>
        </extensions>
      </trkpt>
      <trkpt lat="45.34487776458263397216796875" lon="-70.9838748537003993988037109375">
        <ele>621.4000244140625</ele>
        <time>2026-08-21T18:56:23.000Z</time>
        <extensions>
          <ns3:TrackPointExtension>
            <ns3:hr>123</ns3:hr>
            <ns3:cad>0</ns3:cad>
          </ns3:TrackPointExtension>
        </extensions>
      </trkpt>
      <trkpt lat="45.3448839671909809112548828125" lon="-70.98387996666133403778076171875">
        <ele>621.4000244140625</ele>
        <time>2026-08-21T18:56:24.000Z</time>
        <extensions>
          <ns3:TrackPointExtension>
            <ns3:hr>123</ns3:hr>
            <ns3:cad>0</ns3:cad>
          </ns3:TrackPointExtension>
        </extensions>
      </trkpt>
      <trkpt lat="45.34488388337194919586181640625" lon="-70.9838882647454738616943359375">
        <ele>621.4000244140625</ele>
        <time>2026-08-21T18:56:25.000Z</time>
        <extensions>
          <ns3:TrackPointExtension>
            <ns3:hr>122</ns3:hr>
            <ns3:cad>0</ns3:cad>
          </ns3:TrackPointExtension>
        </extensions>
      </trkpt>
      <trkpt lat="45.34488983452320098876953125" lon="-70.98389673046767711639404296875">
        <ele>621.4000244140625</ele>
        <time>2026-08-21T18:56:26.000Z</time>
        <extensions>
          <ns3:TrackPointExtension>
            <ns3:hr>122</ns3:hr>
            <ns3:cad>0</ns3:cad>
          </ns3:TrackPointExtension>
        </extensions>
      </trkpt>
      <trkpt lat="45.344893522560596466064453125" lon="-70.9839020110666751861572265625">
        <ele>621.5999755859375</ele>
        <time>2026-08-21T18:56:27.000Z</time>
        <extensions>
          <ns3:TrackPointExtension>
            <ns3:hr>121</ns3:hr>
            <ns3:cad>0</ns3:cad>
          </ns3:TrackPointExtension>
        </extensions>
      </trkpt>
      <trkpt lat="45.3448933549225330352783203125" lon="-70.98390360362827777862548828125">
        <ele>621.5999755859375</ele>
        <time>2026-08-21T18:56:28.000Z</time>
        <extensions>
          <ns3:TrackPointExtension>
            <ns3:hr>121</ns3:hr>
            <ns3:cad>0</ns3:cad>
          </ns3:TrackPointExtension>
        </extensions>
      </trkpt>
      <trkpt lat="45.3448933549225330352783203125" lon="-70.98390360362827777862548828125">
        <ele>621.5999755859375</ele>
        <time>2026-08-21T18:56:29.000Z</time>
        <extensions>
          <ns3:TrackPointExtension>
            <ns3:hr>121</ns3:hr>
            <ns3:cad>0</ns3:cad>
          </ns3:TrackPointExtension>
        </extensions>
      </trkpt>
      <trkpt lat="45.3448933549225330352783203125" lon="-70.98390360362827777862548828125">
        <ele>621.5999755859375</ele>
        <time>2026-08-21T18:56:30.000Z</time>
        <extensions>
          <ns3:TrackPointExtension>
            <ns3:hr>120</ns3:hr>
            <ns3:cad>0</ns3:cad>
          </ns3:TrackPointExtension>
        </extensions>
      </trkpt>
      <trkpt lat="45.3448933549225330352783203125" lon="-70.98390360362827777862548828125">
        <ele>621.5999755859375</ele>
        <time>2026-08-21T18:56:31.000Z</time>
        <extensions>
          <ns3:TrackPointExtension>
            <ns3:hr>120</ns3:hr>
            <ns3:cad>0</ns3:cad>
          </ns3:TrackPointExtension>
        </extensions>
      </trkpt>
      <trkpt lat="45.3448933549225330352783203125" lon="-70.98390360362827777862548828125">
        <ele>621.5999755859375</ele>
        <time>2026-08-21T18:56:32.000Z</time>
        <extensions>
          <ns3:TrackPointExtension>
            <ns3:hr>119</ns3:hr>
            <ns3:cad>0</ns3:cad>
          </ns3:TrackPointExtension>
        </extensions>
      </trkpt>
      <trkpt lat="45.3448933549225330352783203125" lon="-70.98390360362827777862548828125">
        <ele>621.5999755859375</ele>
        <time>2026-08-21T18:56:33.000Z</time>
        <extensions>
          <ns3:TrackPointExtension>
            <ns3:hr>118</ns3:hr>
            <ns3:cad>0</ns3:cad>
          </ns3:TrackPointExtension>
        </extensions>
      </trkpt>
      <trkpt lat="45.3448933549225330352783203125" lon="-70.98390360362827777862548828125">
        <ele>621.5999755859375</ele>
        <time>2026-08-21T18:56:34.000Z</time>
        <extensions>
          <ns3:TrackPointExtension>
            <ns3:hr>117</ns3:hr>
            <ns3:cad>0</ns3:cad>
          </ns3:TrackPointExtension>
        </extensions>
      </trkpt>
      <trkpt lat="45.34489377401769161224365234375" lon="-70.983907543122768402099609375">
        <ele>621.5999755859375</ele>
        <time>2026-08-21T18:56:35.000Z</time>
        <extensions>
          <ns3:TrackPointExtension>
            <ns3:hr>118</ns3:hr>
            <ns3:cad>0</ns3:cad>
          </ns3:TrackPointExtension>
        </extensions>
      </trkpt>
      <trkpt lat="45.344906933605670928955078125" lon="-70.98391902633011341094970703125">
        <ele>621.4000244140625</ele>
        <time>2026-08-21T18:56:36.000Z</time>
        <extensions>
          <ns3:TrackPointExtension>
            <ns3:hr>118</ns3:hr>
            <ns3:cad>0</ns3:cad>
          </ns3:TrackPointExtension>
        </extensions>
      </trkpt>
      <trkpt lat="45.3449195064604282379150390625" lon="-70.98393042571842670440673828125">
        <ele>621.4000244140625</ele>
        <time>2026-08-21T18:56:37.000Z</time>
        <extensions>
          <ns3:TrackPointExtension>
            <ns3:hr>118</ns3:hr>
            <ns3:cad>0</ns3:cad>
          </ns3:TrackPointExtension>
        </extensions>
      </trkpt>
      <trkpt lat="45.344933085143566131591796875" lon="-70.983939059078693389892578125">
        <ele>621.4000244140625</ele>
        <time>2026-08-21T18:56:38.000Z</time>
        <extensions>
          <ns3:TrackPointExtension>
            <ns3:hr>118</ns3:hr>
            <ns3:cad>0</ns3:cad>
          </ns3:TrackPointExtension>
        </extensions>
      </trkpt>
      <trkpt lat="45.34494641236960887908935546875" lon="-70.9839467704296112060546875">
        <ele>621.4000244140625</ele>
        <time>2026-08-21T18:56:39.000Z</time>
        <extensions>
          <ns3:TrackPointExtension>
            <ns3:hr>117</ns3:hr>
            <ns3:cad>0</ns3:cad>
          </ns3:TrackPointExtension>
        </extensions>
      </trkpt>
      <trkpt lat="45.34495688974857330322265625" lon="-70.9839606843888759613037109375">
        <ele>621.4000244140625</ele>
        <time>2026-08-21T18:56:40.000Z</time>
        <extensions>
          <ns3:TrackPointExtension>
            <ns3:hr>116</ns3:hr>
            <ns3:cad>52</ns3:cad>
          </ns3:TrackPointExtension>
        </extensions>
      </trkpt>
      <trkpt lat="45.34496602602303028106689453125" lon="-70.98397602327167987823486328125">
        <ele>621.5999755859375</ele>
        <time>2026-08-21T18:56:41.000Z</time>
        <extensions>
          <ns3:TrackPointExtension>
            <ns3:hr>114</ns3:hr>
            <ns3:cad>52</ns3:cad>
          </ns3:TrackPointExtension>
        </extensions>
      </trkpt>
      <trkpt lat="45.3449758328497409820556640625" lon="-70.98399094305932521820068359375">
        <ele>621.5999755859375</ele>
        <time>2026-08-21T18:56:42.000Z</time>
        <extensions>
          <ns3:TrackPointExtension>
            <ns3:hr>115</ns3:hr>
            <ns3:cad>52</ns3:cad>
          </ns3:TrackPointExtension>
        </extensions>
      </trkpt>
      <trkpt lat="45.3449845500290393829345703125" lon="-70.98400644958019256591796875">
        <ele>621.79998779296875</ele>
        <time>2026-08-21T18:56:43.000Z</time>
        <extensions>
          <ns3:TrackPointExtension>
            <ns3:hr>115</ns3:hr>
            <ns3:cad>52</ns3:cad>
          </ns3:TrackPointExtension>
        </extensions>
      </trkpt>
      <trkpt lat="45.3449924290180206298828125" lon="-70.98401407711207866668701171875">
        <ele>622</ele>
        <time>2026-08-21T18:56:44.000Z</time>
        <extensions>
          <ns3:TrackPointExtension>
            <ns3:hr>115</ns3:hr>
            <ns3:cad>53</ns3:cad>
          </ns3:TrackPointExtension>
        </extensions>
      </trkpt>
      <trkpt lat="45.34500039182603359222412109375" lon="-70.984030924737453460693359375">
        <ele>622.20001220703125</ele>
        <time>2026-08-21T18:56:45.000Z</time>
        <extensions>
          <ns3:TrackPointExtension>
            <ns3:hr>115</ns3:hr>
            <ns3:cad>54</ns3:cad>
          </ns3:TrackPointExtension>
        </extensions>
      </trkpt>
      <trkpt lat="45.34501212649047374725341796875" lon="-70.98404861055314540863037109375">
        <ele>622.4000244140625</ele>
        <time>2026-08-21T18:56:46.000Z</time>
        <extensions>
          <ns3:TrackPointExtension>
            <ns3:hr>115</ns3:hr>
            <ns3:cad>54</ns3:cad>
          </ns3:TrackPointExtension>
        </extensions>
      </trkpt>
      <trkpt lat="45.345018245279788970947265625" lon="-70.98406353034079074859619140625">
        <ele>622.4000244140625</ele>
        <time>2026-08-21T18:56:47.000Z</time>
        <extensions>
          <ns3:TrackPointExtension>
            <ns3:hr>114</ns3:hr>
            <ns3:cad>55</ns3:cad>
          </ns3:TrackPointExtension>
        </extensions>
      </trkpt>
      <trkpt lat="45.34503039903938770294189453125" lon="-70.9840746782720088958740234375">
        <ele>622.4000244140625</ele>
        <time>2026-08-21T18:56:48.000Z</time>
        <extensions>
          <ns3:TrackPointExtension>
            <ns3:hr>114</ns3:hr>
            <ns3:cad>55</ns3:cad>
          </ns3:TrackPointExtension>
        </extensions>
      </trkpt>
      <trkpt lat="45.34503626637160778045654296875" lon="-70.98408817313611507415771484375">
        <ele>622.4000244140625</ele>
        <time>2026-08-21T18:56:49.000Z</time>
        <extensions>
          <ns3:TrackPointExtension>
            <ns3:hr>114</ns3:hr>
            <ns3:cad>55</ns3:cad>
          </ns3:TrackPointExtension>
        </extensions>
      </trkpt>
      <trkpt lat="45.34504531882703304290771484375" lon="-70.98410309292376041412353515625">
        <ele>622.4000244140625</ele>
        <time>2026-08-21T18:56:50.000Z</time>
        <extensions>
          <ns3:TrackPointExtension>
            <ns3:hr>114</ns3:hr>
            <ns3:cad>54</ns3:cad>
          </ns3:TrackPointExtension>
        </extensions>
      </trkpt>
      <trkpt lat="45.34505085088312625885009765625" lon="-70.98412086255848407745361328125">
        <ele>622.5999755859375</ele>
        <time>2026-08-21T18:56:51.000Z</time>
        <extensions>
          <ns3:TrackPointExtension>
            <ns3:hr>114</ns3:hr>
            <ns3:cad>54</ns3:cad>
          </ns3:TrackPointExtension>
        </extensions>
      </trkpt>
      <trkpt lat="45.3450568020343780517578125" lon="-70.98414097912609577178955078125">
        <ele>622.79998779296875</ele>
        <time>2026-08-21T18:56:52.000Z</time>
        <extensions>
          <ns3:TrackPointExtension>
            <ns3:hr>114</ns3:hr>
            <ns3:cad>54</ns3:cad>
          </ns3:TrackPointExtension>
        </extensions>
      </trkpt>
      <trkpt lat="45.34506526775658130645751953125" lon="-70.9841514565050601959228515625">
        <ele>622.79998779296875</ele>
        <time>2026-08-21T18:56:53.000Z</time>
        <extensions>
          <ns3:TrackPointExtension>
            <ns3:hr>114</ns3:hr>
            <ns3:cad>54</ns3:cad>
          </ns3:TrackPointExtension>
        </extensions>
      </trkpt>
      <trkpt lat="45.345073901116847991943359375" lon="-70.9841631911695003509521484375">
        <ele>623</ele>
        <time>2026-08-21T18:56:54.000Z</time>
        <extensions>
          <ns3:TrackPointExtension>
            <ns3:hr>114</ns3:hr>
            <ns3:cad>55</ns3:cad>
          </ns3:TrackPointExtension>
        </extensions>
      </trkpt>
      <trkpt lat="45.34508253447711467742919921875" lon="-70.98417408764362335205078125">
        <ele>623.20001220703125</ele>
        <time>2026-08-21T18:56:55.000Z</time>
        <extensions>
          <ns3:TrackPointExtension>
            <ns3:hr>115</ns3:hr>
            <ns3:cad>55</ns3:cad>
          </ns3:TrackPointExtension>
        </extensions>
      </trkpt>
      <trkpt lat="45.34509041346609592437744140625" lon="-70.9841906838119029998779296875">
        <ele>623.20001220703125</ele>
        <time>2026-08-21T18:56:56.000Z</time>
        <extensions>
          <ns3:TrackPointExtension>
            <ns3:hr>115</ns3:hr>
            <ns3:cad>55</ns3:cad>
          </ns3:TrackPointExtension>
        </extensions>
      </trkpt>
      <trkpt lat="45.3451012261211872100830078125" lon="-70.9842030890285968780517578125">
        <ele>623.20001220703125</ele>
        <time>2026-08-21T18:56:57.000Z</time>
        <extensions>
          <ns3:TrackPointExtension>
            <ns3:hr>115</ns3:hr>
            <ns3:cad>55</ns3:cad>
          </ns3:TrackPointExtension>
        </extensions>
      </trkpt>
      <trkpt lat="45.3451102785766124725341796875" lon="-70.98421859554946422576904296875">
        <ele>623.4000244140625</ele>
        <time>2026-08-21T18:56:58.000Z</time>
        <extensions>
          <ns3:TrackPointExtension>
            <ns3:hr>116</ns3:hr>
            <ns3:cad>55</ns3:cad>
          </ns3:TrackPointExtension>
        </extensions>
      </trkpt>
      <trkpt lat="45.3451213426887989044189453125" lon="-70.98423502407968044281005859375">
        <ele>623.4000244140625</ele>
        <time>2026-08-21T18:56:59.000Z</time>
        <extensions>
          <ns3:TrackPointExtension>
            <ns3:hr>116</ns3:hr>
            <ns3:cad>54</ns3:cad>
          </ns3:TrackPointExtension>
        </extensions>
      </trkpt>
      <trkpt lat="45.34513056278228759765625" lon="-70.98425111733376979827880859375">
        <ele>623.4000244140625</ele>
        <time>2026-08-21T18:57:00.000Z</time>
        <extensions>
          <ns3:TrackPointExtension>
            <ns3:hr>118</ns3:hr>
            <ns3:cad>54</ns3:cad>
          </ns3:TrackPointExtension>
        </extensions>
      </trkpt>
      <trkpt lat="45.3451438061892986297607421875" lon="-70.9842701442539691925048828125">
        <ele>623.5999755859375</ele>
        <time>2026-08-21T18:57:01.000Z</time>
        <extensions>
          <ns3:TrackPointExtension>
            <ns3:hr>119</ns3:hr>
            <ns3:cad>54</ns3:cad>
          </ns3:TrackPointExtension>
        </extensions>
      </trkpt>
      <trkpt lat="45.34515378065407276153564453125" lon="-70.98428280092775821685791015625">
        <ele>623.5999755859375</ele>
        <time>2026-08-21T18:57:02.000Z</time>
        <extensions>
          <ns3:TrackPointExtension>
            <ns3:hr>119</ns3:hr>
            <ns3:cad>54</ns3:cad>
          </ns3:TrackPointExtension>
        </extensions>
      </trkpt>
      <trkpt lat="45.3451655991375446319580078125" lon="-70.98429839126765727996826171875">
        <ele>623.5999755859375</ele>
        <time>2026-08-21T18:57:03.000Z</time>
        <extensions>
          <ns3:TrackPointExtension>
            <ns3:hr>119</ns3:hr>
            <ns3:cad>54</ns3:cad>
          </ns3:TrackPointExtension>
        </extensions>
      </trkpt>
      <trkpt lat="45.3451749868690967559814453125" lon="-70.98431565798819065093994140625">
        <ele>623.79998779296875</ele>
        <time>2026-08-21T18:57:04.000Z</time>
        <extensions>
          <ns3:TrackPointExtension>
            <ns3:hr>119</ns3:hr>
            <ns3:cad>56</ns3:cad>
          </ns3:TrackPointExtension>
        </extensions>
      </trkpt>
      <trkpt lat="45.34518496133387088775634765625" lon="-70.98433376289904117584228515625">
        <ele>623.79998779296875</ele>
        <time>2026-08-21T18:57:05.000Z</time>
        <extensions>
          <ns3:TrackPointExtension>
            <ns3:hr>118</ns3:hr>
            <ns3:cad>56</ns3:cad>
          </ns3:TrackPointExtension>
        </extensions>
      </trkpt>
      <trkpt lat="45.34519493579864501953125" lon="-70.98435035906732082366943359375">
        <ele>624</ele>
        <time>2026-08-21T18:57:06.000Z</time>
        <extensions>
          <ns3:TrackPointExtension>
            <ns3:hr>118</ns3:hr>
            <ns3:cad>56</ns3:cad>
          </ns3:TrackPointExtension>
        </extensions>
      </trkpt>
      <trkpt lat="45.34520474262535572052001953125" lon="-70.984367541968822479248046875">
        <ele>624.20001220703125</ele>
        <time>2026-08-21T18:57:07.000Z</time>
        <extensions>
          <ns3:TrackPointExtension>
            <ns3:hr>118</ns3:hr>
            <ns3:cad>56</ns3:cad>
          </ns3:TrackPointExtension>
        </extensions>
      </trkpt>
      <trkpt lat="45.34521731548011302947998046875" lon="-70.98438137210905551910400390625">
        <ele>624.20001220703125</ele>
        <time>2026-08-21T18:57:08.000Z</time>
        <extensions>
          <ns3:TrackPointExtension>
            <ns3:hr>118</ns3:hr>
            <ns3:cad>56</ns3:cad>
          </ns3:TrackPointExtension>
        </extensions>
      </trkpt>
      <trkpt lat="45.345225445926189422607421875" lon="-70.984393022954463958740234375">
        <ele>624.20001220703125</ele>
        <time>2026-08-21T18:57:09.000Z</time>
        <extensions>
          <ns3:TrackPointExtension>
            <ns3:hr>118</ns3:hr>
            <ns3:cad>56</ns3:cad>
          </ns3:TrackPointExtension>
        </extensions>
      </trkpt>
      <trkpt lat="45.34523474983870983123779296875" lon="-70.9844089485704898834228515625">
        <ele>624.20001220703125</ele>
        <time>2026-08-21T18:57:10.000Z</time>
        <extensions>
          <ns3:TrackPointExtension>
            <ns3:hr>118</ns3:hr>
            <ns3:cad>57</ns3:cad>
          </ns3:TrackPointExtension>
        </extensions>
      </trkpt>
      <trkpt lat="45.3452433831989765167236328125" lon="-70.98442462272942066192626953125">
        <ele>624.20001220703125</ele>
        <time>2026-08-21T18:57:11.000Z</time>
        <extensions>
          <ns3:TrackPointExtension>
            <ns3:hr>119</ns3:hr>
            <ns3:cad>57</ns3:cad>
          </ns3:TrackPointExtension>
        </extensions>
      </trkpt>
      <trkpt lat="45.34525218419730663299560546875" lon="-70.98443652503192424774169921875">
        <ele>624.4000244140625</ele>
        <time>2026-08-21T18:57:12.000Z</time>
        <extensions>
          <ns3:TrackPointExtension>
            <ns3:hr>119</ns3:hr>
            <ns3:cad>57</ns3:cad>
          </ns3:TrackPointExtension>
        </extensions>
      </trkpt>
      <trkpt lat="45.34526207484304904937744140625" lon="-70.9844521991908550262451171875">
        <ele>624.4000244140625</ele>
        <time>2026-08-21T18:57:13.000Z</time>
        <extensions>
          <ns3:TrackPointExtension>
            <ns3:hr>119</ns3:hr>
            <ns3:cad>57</ns3:cad>
          </ns3:TrackPointExtension>
        </extensions>
      </trkpt>
      <trkpt lat="45.345274396240711212158203125" lon="-70.9844703041017055511474609375">
        <ele>624.4000244140625</ele>
        <time>2026-08-21T18:57:14.000Z</time>
        <extensions>
          <ns3:TrackPointExtension>
            <ns3:hr>119</ns3:hr>
            <ns3:cad>55</ns3:cad>
          </ns3:TrackPointExtension>
        </extensions>
      </trkpt>
      <trkpt lat="45.3452879749238491058349609375" lon="-70.98448866046965122222900390625">
        <ele>624.5999755859375</ele>
        <time>2026-08-21T18:57:15.000Z</time>
        <extensions>
          <ns3:TrackPointExtension>
            <ns3:hr>119</ns3:hr>
            <ns3:cad>55</ns3:cad>
          </ns3:TrackPointExtension>
        </extensions>
      </trkpt>
      <trkpt lat="45.34529811702668666839599609375" lon="-70.98450760357081890106201171875">
        <ele>624.5999755859375</ele>
        <time>2026-08-21T18:57:16.000Z</time>
        <extensions>
          <ns3:TrackPointExtension>
            <ns3:hr>118</ns3:hr>
            <ns3:cad>55</ns3:cad>
          </ns3:TrackPointExtension>
        </extensions>
      </trkpt>
      <trkpt lat="45.34531119279563426971435546875" lon="-70.9845269657671451568603515625">
        <ele>624.79998779296875</ele>
        <time>2026-08-21T18:57:17.000Z</time>
        <extensions>
          <ns3:TrackPointExtension>
            <ns3:hr>119</ns3:hr>
            <ns3:cad>55</ns3:cad>
          </ns3:TrackPointExtension>
        </extensions>
      </trkpt>
      <trkpt lat="45.34532108344137668609619140625" lon="-70.98454247228801250457763671875">
        <ele>624.79998779296875</ele>
        <time>2026-08-21T18:57:18.000Z</time>
        <extensions>
          <ns3:TrackPointExtension>
            <ns3:hr>119</ns3:hr>
            <ns3:cad>55</ns3:cad>
          </ns3:TrackPointExtension>
        </extensions>
      </trkpt>
      <trkpt lat="45.34532946534454822540283203125" lon="-70.98456057719886302947998046875">
        <ele>625</ele>
        <time>2026-08-21T18:57:19.000Z</time>
        <extensions>
          <ns3:TrackPointExtension>
            <ns3:hr>118</ns3:hr>
            <ns3:cad>55</ns3:cad>
          </ns3:TrackPointExtension>
        </extensions>
      </trkpt>
      <trkpt lat="45.3453365899622440338134765625" lon="-70.98457348532974720001220703125">
        <ele>625</ele>
        <time>2026-08-21T18:57:20.000Z</time>
        <extensions>
          <ns3:TrackPointExtension>
            <ns3:hr>119</ns3:hr>
            <ns3:cad>55</ns3:cad>
          </ns3:TrackPointExtension>
        </extensions>
      </trkpt>
      <trkpt lat="45.34534723497927188873291015625" lon="-70.98458941094577312469482421875">
        <ele>625</ele>
        <time>2026-08-21T18:57:21.000Z</time>
        <extensions>
          <ns3:TrackPointExtension>
            <ns3:hr>119</ns3:hr>
            <ns3:cad>55</ns3:cad>
          </ns3:TrackPointExtension>
        </extensions>
      </trkpt>
      <trkpt lat="45.345354191958904266357421875" lon="-70.984600894153118133544921875">
        <ele>625.20001220703125</ele>
        <time>2026-08-21T18:57:22.000Z</time>
        <extensions>
          <ns3:TrackPointExtension>
            <ns3:hr>119</ns3:hr>
            <ns3:cad>56</ns3:cad>
          </ns3:TrackPointExtension>
        </extensions>
      </trkpt>
      <trkpt lat="45.34536533989012241363525390625" lon="-70.98461656831204891204833984375">
        <ele>625.20001220703125</ele>
        <time>2026-08-21T18:57:23.000Z</time>
        <extensions>
          <ns3:TrackPointExtension>
            <ns3:hr>119</ns3:hr>
            <ns3:cad>56</ns3:cad>
          </ns3:TrackPointExtension>
        </extensions>
      </trkpt>
      <trkpt lat="45.345373637974262237548828125" lon="-70.98462847061455249786376953125">
        <ele>625.20001220703125</ele>
        <time>2026-08-21T18:57:24.000Z</time>
        <extensions>
          <ns3:TrackPointExtension>
            <ns3:hr>120</ns3:hr>
            <ns3:cad>55</ns3:cad>
          </ns3:TrackPointExtension>
        </extensions>
      </trkpt>
      <trkpt lat="45.34538495354354381561279296875" lon="-70.984639115631580352783203125">
        <ele>625.4000244140625</ele>
        <time>2026-08-21T18:57:25.000Z</time>
        <extensions>
          <ns3:TrackPointExtension>
            <ns3:hr>120</ns3:hr>
            <ns3:cad>55</ns3:cad>
          </ns3:TrackPointExtension>
        </extensions>
      </trkpt>
      <trkpt lat="45.3453947603702545166015625" lon="-70.9846537001430988311767578125">
        <ele>625.4000244140625</ele>
        <time>2026-08-21T18:57:26.000Z</time>
        <extensions>
          <ns3:TrackPointExtension>
            <ns3:hr>121</ns3:hr>
            <ns3:cad>55</ns3:cad>
          </ns3:TrackPointExtension>
        </extensions>
      </trkpt>
      <trkpt lat="45.345401801168918609619140625" lon="-70.98467029631137847900390625">
        <ele>625.4000244140625</ele>
        <time>2026-08-21T18:57:27.000Z</time>
        <extensions>
          <ns3:TrackPointExtension>
            <ns3:hr>121</ns3:hr>
            <ns3:cad>55</ns3:cad>
          </ns3:TrackPointExtension>
        </extensions>
      </trkpt>
      <trkpt lat="45.34541261382400989532470703125" lon="-70.98468882031738758087158203125">
        <ele>625.4000244140625</ele>
        <time>2026-08-21T18:57:28.000Z</time>
        <extensions>
          <ns3:TrackPointExtension>
            <ns3:hr>122</ns3:hr>
            <ns3:cad>55</ns3:cad>
          </ns3:TrackPointExtension>
        </extensions>
      </trkpt>
      <trkpt lat="45.34542183391749858856201171875" lon="-70.98470692522823810577392578125">
        <ele>625.5999755859375</ele>
        <time>2026-08-21T18:57:29.000Z</time>
        <extensions>
          <ns3:TrackPointExtension>
            <ns3:hr>122</ns3:hr>
            <ns3:cad>55</ns3:cad>
          </ns3:TrackPointExtension>
        </extensions>
      </trkpt>
      <trkpt lat="45.345431305468082427978515625" lon="-70.9847272932529449462890625">
        <ele>625.79998779296875</ele>
        <time>2026-08-21T18:57:30.000Z</time>
        <extensions>
          <ns3:TrackPointExtension>
            <ns3:hr>121</ns3:hr>
            <ns3:cad>55</ns3:cad>
          </ns3:TrackPointExtension>
        </extensions>
      </trkpt>
      <trkpt lat="45.34544312395155429840087890625" lon="-70.98474866710603237152099609375">
        <ele>626</ele>
        <time>2026-08-21T18:57:31.000Z</time>
        <extensions>
          <ns3:TrackPointExtension>
            <ns3:hr>121</ns3:hr>
            <ns3:cad>55</ns3:cad>
          </ns3:TrackPointExtension>
        </extensions>
      </trkpt>
      <trkpt lat="45.345458127558231353759765625" lon="-70.98476777784526348114013671875">
        <ele>626.20001220703125</ele>
        <time>2026-08-21T18:57:32.000Z</time>
        <extensions>
          <ns3:TrackPointExtension>
            <ns3:hr>121</ns3:hr>
            <ns3:cad>55</ns3:cad>
          </ns3:TrackPointExtension>
        </extensions>
      </trkpt>
      <trkpt lat="45.3454690240323543548583984375" lon="-70.98478252999484539031982421875">
        <ele>626.20001220703125</ele>
        <time>2026-08-21T18:57:33.000Z</time>
        <extensions>
          <ns3:TrackPointExtension>
            <ns3:hr>120</ns3:hr>
            <ns3:cad>55</ns3:cad>
          </ns3:TrackPointExtension>
        </extensions>
      </trkpt>
      <trkpt lat="45.3454810939729213714599609375" lon="-70.9848008863627910614013671875">
        <ele>626.20001220703125</ele>
        <time>2026-08-21T18:57:34.000Z</time>
        <extensions>
          <ns3:TrackPointExtension>
            <ns3:hr>120</ns3:hr>
            <ns3:cad>55</ns3:cad>
          </ns3:TrackPointExtension>
        </extensions>
      </trkpt>
      <trkpt lat="45.3454886376857757568359375" lon="-70.9848149679601192474365234375">
        <ele>626.20001220703125</ele>
        <time>2026-08-21T18:57:35.000Z</time>
        <extensions>
          <ns3:TrackPointExtension>
            <ns3:hr>121</ns3:hr>
            <ns3:cad>55</ns3:cad>
          </ns3:TrackPointExtension>
        </extensions>
      </trkpt>
      <trkpt lat="45.34549676813185214996337890625" lon="-70.9848292171955108642578125">
        <ele>626.20001220703125</ele>
        <time>2026-08-21T18:57:36.000Z</time>
        <extensions>
          <ns3:TrackPointExtension>
            <ns3:hr>121</ns3:hr>
            <ns3:cad>55</ns3:cad>
          </ns3:TrackPointExtension>
        </extensions>
      </trkpt>
      <trkpt lat="45.34550917334854602813720703125" lon="-70.98484271205961704254150390625">
        <ele>626.20001220703125</ele>
        <time>2026-08-21T18:57:37.000Z</time>
        <extensions>
          <ns3:TrackPointExtension>
            <ns3:hr>121</ns3:hr>
            <ns3:cad>55</ns3:cad>
          </ns3:TrackPointExtension>
        </extensions>
      </trkpt>
      <trkpt lat="45.34551889635622501373291015625" lon="-70.98485612310469150543212890625">
        <ele>626.4000244140625</ele>
        <time>2026-08-21T18:57:38.000Z</time>
        <extensions>
          <ns3:TrackPointExtension>
            <ns3:hr>121</ns3:hr>
            <ns3:cad>55</ns3:cad>
          </ns3:TrackPointExtension>
        </extensions>
      </trkpt>
      <trkpt lat="45.3455290384590625762939453125" lon="-70.984873473644256591796875">
        <ele>626.4000244140625</ele>
        <time>2026-08-21T18:57:39.000Z</time>
        <extensions>
          <ns3:TrackPointExtension>
            <ns3:hr>121</ns3:hr>
            <ns3:cad>55</ns3:cad>
          </ns3:TrackPointExtension>
        </extensions>
      </trkpt>
      <trkpt lat="45.3455390967428684234619140625" lon="-70.98488713614642620086669921875">
        <ele>626.4000244140625</ele>
        <time>2026-08-21T18:57:40.000Z</time>
        <extensions>
          <ns3:TrackPointExtension>
            <ns3:hr>121</ns3:hr>
            <ns3:cad>55</ns3:cad>
          </ns3:TrackPointExtension>
        </extensions>
      </trkpt>
      <trkpt lat="45.34555175341665744781494140625" lon="-70.98489836789667606353759765625">
        <ele>626.4000244140625</ele>
        <time>2026-08-21T18:57:41.000Z</time>
        <extensions>
          <ns3:TrackPointExtension>
            <ns3:hr>121</ns3:hr>
            <ns3:cad>55</ns3:cad>
          </ns3:TrackPointExtension>
        </extensions>
      </trkpt>
      <trkpt lat="45.3455639071762561798095703125" lon="-70.984911024570465087890625">
        <ele>626.4000244140625</ele>
        <time>2026-08-21T18:57:42.000Z</time>
        <extensions>
          <ns3:TrackPointExtension>
            <ns3:hr>121</ns3:hr>
            <ns3:cad>56</ns3:cad>
          </ns3:TrackPointExtension>
        </extensions>
      </trkpt>
      <trkpt lat="45.34557388164103031158447265625" lon="-70.9849269501864910125732421875">
        <ele>626.5999755859375</ele>
        <time>2026-08-21T18:57:43.000Z</time>
        <extensions>
          <ns3:TrackPointExtension>
            <ns3:hr>122</ns3:hr>
            <ns3:cad>56</ns3:cad>
          </ns3:TrackPointExtension>
        </extensions>
      </trkpt>
      <trkpt lat="45.34558477811515331268310546875" lon="-70.98494547419250011444091796875">
        <ele>626.5999755859375</ele>
        <time>2026-08-21T18:57:44.000Z</time>
        <extensions>
          <ns3:TrackPointExtension>
            <ns3:hr>122</ns3:hr>
            <ns3:cad>56</ns3:cad>
          </ns3:TrackPointExtension>
        </extensions>
      </trkpt>
      <trkpt lat="45.3455974347889423370361328125" lon="-70.98496223799884319305419921875">
        <ele>626.5999755859375</ele>
        <time>2026-08-21T18:57:45.000Z</time>
        <extensions>
          <ns3:TrackPointExtension>
            <ns3:hr>122</ns3:hr>
            <ns3:cad>56</ns3:cad>
          </ns3:TrackPointExtension>
        </extensions>
      </trkpt>
      <trkpt lat="45.34560908563435077667236328125" lon="-70.9849752299487590789794921875">
        <ele>626.5999755859375</ele>
        <time>2026-08-21T18:57:46.000Z</time>
        <extensions>
          <ns3:TrackPointExtension>
            <ns3:hr>122</ns3:hr>
            <ns3:cad>56</ns3:cad>
          </ns3:TrackPointExtension>
        </extensions>
      </trkpt>
      <trkpt lat="45.34562165848910808563232421875" lon="-70.98499643616378307342529296875">
        <ele>626.5999755859375</ele>
        <time>2026-08-21T18:57:47.000Z</time>
        <extensions>
          <ns3:TrackPointExtension>
            <ns3:hr>121</ns3:hr>
            <ns3:cad>56</ns3:cad>
          </ns3:TrackPointExtension>
        </extensions>
      </trkpt>
      <trkpt lat="45.34563540481030941009521484375" lon="-70.985017307102680206298828125">
        <ele>626.79998779296875</ele>
        <time>2026-08-21T18:57:48.000Z</time>
        <extensions>
          <ns3:TrackPointExtension>
            <ns3:hr>122</ns3:hr>
            <ns3:cad>56</ns3:cad>
          </ns3:TrackPointExtension>
        </extensions>
      </trkpt>
      <trkpt lat="45.345650576055049896240234375" lon="-70.9850369207561016082763671875">
        <ele>626.79998779296875</ele>
        <time>2026-08-21T18:57:49.000Z</time>
        <extensions>
          <ns3:TrackPointExtension>
            <ns3:hr>122</ns3:hr>
            <ns3:cad>55</ns3:cad>
          </ns3:TrackPointExtension>
        </extensions>
      </trkpt>
      <trkpt lat="45.34566759131848812103271484375" lon="-70.985047817230224609375">
        <ele>627</ele>
        <time>2026-08-21T18:57:50.000Z</time>
        <extensions>
          <ns3:TrackPointExtension>
            <ns3:hr>122</ns3:hr>
            <ns3:cad>55</ns3:cad>
          </ns3:TrackPointExtension>
        </extensions>
      </trkpt>
      <trkpt lat="45.3456792421638965606689453125" lon="-70.985061228275299072265625">
        <ele>627</ele>
        <time>2026-08-21T18:57:51.000Z</time>
        <extensions>
          <ns3:TrackPointExtension>
            <ns3:hr>122</ns3:hr>
            <ns3:cad>55</ns3:cad>
          </ns3:TrackPointExtension>
        </extensions>
      </trkpt>
      <trkpt lat="45.34568988718092441558837890625" lon="-70.98507304675877094268798828125">
        <ele>627.20001220703125</ele>
        <time>2026-08-21T18:57:52.000Z</time>
        <extensions>
          <ns3:TrackPointExtension>
            <ns3:hr>122</ns3:hr>
            <ns3:cad>55</ns3:cad>
          </ns3:TrackPointExtension>
        </extensions>
      </trkpt>
      <trkpt lat="45.34569986164569854736328125" lon="-70.98508276976644992828369140625">
        <ele>627.20001220703125</ele>
        <time>2026-08-21T18:57:53.000Z</time>
        <extensions>
          <ns3:TrackPointExtension>
            <ns3:hr>122</ns3:hr>
            <ns3:cad>55</ns3:cad>
          </ns3:TrackPointExtension>
        </extensions>
      </trkpt>
      <trkpt lat="45.34570966847240924835205078125" lon="-70.98509542644023895263671875">
        <ele>627.20001220703125</ele>
        <time>2026-08-21T18:57:54.000Z</time>
        <extensions>
          <ns3:TrackPointExtension>
            <ns3:hr>121</ns3:hr>
            <ns3:cad>55</ns3:cad>
          </ns3:TrackPointExtension>
        </extensions>
      </trkpt>
      <trkpt lat="45.34571821801364421844482421875" lon="-70.98511143587529659271240234375">
        <ele>627.20001220703125</ele>
        <time>2026-08-21T18:57:55.000Z</time>
        <extensions>
          <ns3:TrackPointExtension>
            <ns3:hr>122</ns3:hr>
            <ns3:cad>55</ns3:cad>
          </ns3:TrackPointExtension>
        </extensions>
      </trkpt>
      <trkpt lat="45.345729030668735504150390625" lon="-70.98512367345392704010009765625">
        <ele>627.4000244140625</ele>
        <time>2026-08-21T18:57:56.000Z</time>
        <extensions>
          <ns3:TrackPointExtension>
            <ns3:hr>121</ns3:hr>
            <ns3:cad>55</ns3:cad>
          </ns3:TrackPointExtension>
        </extensions>
      </trkpt>
      <trkpt lat="45.345737077295780181884765625" lon="-70.9851371683180332183837890625">
        <ele>627.4000244140625</ele>
        <time>2026-08-21T18:57:57.000Z</time>
        <extensions>
          <ns3:TrackPointExtension>
            <ns3:hr>121</ns3:hr>
            <ns3:cad>55</ns3:cad>
          </ns3:TrackPointExtension>
        </extensions>
      </trkpt>
      <trkpt lat="45.345750488340854644775390625" lon="-70.98515443503856658935546875">
        <ele>627.5999755859375</ele>
        <time>2026-08-21T18:57:58.000Z</time>
        <extensions>
          <ns3:TrackPointExtension>
            <ns3:hr>121</ns3:hr>
            <ns3:cad>55</ns3:cad>
          </ns3:TrackPointExtension>
        </extensions>
      </trkpt>
      <trkpt lat="45.34576297737658023834228515625" lon="-70.98516943864524364471435546875">
        <ele>627.5999755859375</ele>
        <time>2026-08-21T18:57:59.000Z</time>
        <extensions>
          <ns3:TrackPointExtension>
            <ns3:hr>120</ns3:hr>
            <ns3:cad>54</ns3:cad>
          </ns3:TrackPointExtension>
        </extensions>
      </trkpt>
      <trkpt lat="45.34577370621263980865478515625" lon="-70.985178910195827484130859375">
        <ele>627.79998779296875</ele>
        <time>2026-08-21T18:58:00.000Z</time>
        <extensions>
          <ns3:TrackPointExtension>
            <ns3:hr>121</ns3:hr>
            <ns3:cad>54</ns3:cad>
          </ns3:TrackPointExtension>
        </extensions>
      </trkpt>
      <trkpt lat="45.345786698162555694580078125" lon="-70.98519139923155307769775390625">
        <ele>627.79998779296875</ele>
        <time>2026-08-21T18:58:01.000Z</time>
        <extensions>
          <ns3:TrackPointExtension>
            <ns3:hr>121</ns3:hr>
            <ns3:cad>55</ns3:cad>
          </ns3:TrackPointExtension>
        </extensions>
      </trkpt>
      <trkpt lat="45.345798097550868988037109375" lon="-70.98520464263856410980224609375">
        <ele>627.79998779296875</ele>
        <time>2026-08-21T18:58:02.000Z</time>
        <extensions>
          <ns3:TrackPointExtension>
            <ns3:hr>122</ns3:hr>
            <ns3:cad>55</ns3:cad>
          </ns3:TrackPointExtension>
        </extensions>
      </trkpt>
      <trkpt lat="45.34580740146338939666748046875" lon="-70.98521654494106769561767578125">
        <ele>628</ele>
        <time>2026-08-21T18:58:03.000Z</time>
        <extensions>
          <ns3:TrackPointExtension>
            <ns3:hr>122</ns3:hr>
            <ns3:cad>55</ns3:cad>
          </ns3:TrackPointExtension>
        </extensions>
      </trkpt>
      <trkpt lat="45.3458180464804172515869140625" lon="-70.985227525234222412109375">
        <ele>628</ele>
        <time>2026-08-21T18:58:04.000Z</time>
        <extensions>
          <ns3:TrackPointExtension>
            <ns3:hr>122</ns3:hr>
            <ns3:cad>55</ns3:cad>
          </ns3:TrackPointExtension>
        </extensions>
      </trkpt>
      <trkpt lat="45.34583263099193572998046875" lon="-70.985236577689647674560546875">
        <ele>628.20001220703125</ele>
        <time>2026-08-21T18:58:05.000Z</time>
        <extensions>
          <ns3:TrackPointExtension>
            <ns3:hr>122</ns3:hr>
            <ns3:cad>55</ns3:cad>
          </ns3:TrackPointExtension>
        </extensions>
      </trkpt>
      <trkpt lat="45.3458421863615512847900390625" lon="-70.98524303175508975982666015625">
        <ele>628.20001220703125</ele>
        <time>2026-08-21T18:58:06.000Z</time>
        <extensions>
          <ns3:TrackPointExtension>
            <ns3:hr>122</ns3:hr>
            <ns3:cad>54</ns3:cad>
          </ns3:TrackPointExtension>
        </extensions>
      </trkpt>
      <trkpt lat="45.3458529151976108551025390625" lon="-70.98525459878146648406982421875">
        <ele>628.4000244140625</ele>
        <time>2026-08-21T18:58:07.000Z</time>
        <extensions>
          <ns3:TrackPointExtension>
            <ns3:hr>122</ns3:hr>
            <ns3:cad>54</ns3:cad>
          </ns3:TrackPointExtension>
        </extensions>
      </trkpt>
      <trkpt lat="45.34586708061397075653076171875" lon="-70.9852679260075092315673828125">
        <ele>628.4000244140625</ele>
        <time>2026-08-21T18:58:08.000Z</time>
        <extensions>
          <ns3:TrackPointExtension>
            <ns3:hr>122</ns3:hr>
            <ns3:cad>54</ns3:cad>
          </ns3:TrackPointExtension>
        </extensions>
      </trkpt>
      <trkpt lat="45.345875211060047149658203125" lon="-70.9852806665003299713134765625">
        <ele>628.4000244140625</ele>
        <time>2026-08-21T18:58:09.000Z</time>
        <extensions>
          <ns3:TrackPointExtension>
            <ns3:hr>123</ns3:hr>
            <ns3:cad>54</ns3:cad>
          </ns3:TrackPointExtension>
        </extensions>
      </trkpt>
      <trkpt lat="45.34588602371513843536376953125" lon="-70.9852970950305461883544921875">
        <ele>628.5999755859375</ele>
        <time>2026-08-21T18:58:10.000Z</time>
        <extensions>
          <ns3:TrackPointExtension>
            <ns3:hr>123</ns3:hr>
            <ns3:cad>54</ns3:cad>
          </ns3:TrackPointExtension>
        </extensions>
      </trkpt>
      <trkpt lat="45.3458965010941028594970703125" lon="-70.985309667885303497314453125">
        <ele>628.5999755859375</ele>
        <time>2026-08-21T18:58:11.000Z</time>
        <extensions>
          <ns3:TrackPointExtension>
            <ns3:hr>123</ns3:hr>
            <ns3:cad>54</ns3:cad>
          </ns3:TrackPointExtension>
        </extensions>
      </trkpt>
      <trkpt lat="45.34590848721563816070556640625" lon="-70.9853235818445682525634765625">
        <ele>628.79998779296875</ele>
        <time>2026-08-21T18:58:12.000Z</time>
        <extensions>
          <ns3:TrackPointExtension>
            <ns3:hr>122</ns3:hr>
            <ns3:cad>55</ns3:cad>
          </ns3:TrackPointExtension>
        </extensions>
      </trkpt>
      <trkpt lat="45.34591921605169773101806640625" lon="-70.98533489741384983062744140625">
        <ele>628.79998779296875</ele>
        <time>2026-08-21T18:58:13.000Z</time>
        <extensions>
          <ns3:TrackPointExtension>
            <ns3:hr>123</ns3:hr>
            <ns3:cad>55</ns3:cad>
          </ns3:TrackPointExtension>
        </extensions>
      </trkpt>
      <trkpt lat="45.34593095071613788604736328125" lon="-70.98534344695508480072021484375">
        <ele>629</ele>
        <time>2026-08-21T18:58:14.000Z</time>
        <extensions>
          <ns3:TrackPointExtension>
            <ns3:hr>123</ns3:hr>
            <ns3:cad>55</ns3:cad>
          </ns3:TrackPointExtension>
        </extensions>
      </trkpt>
      <trkpt lat="45.34594033844769001007080078125" lon="-70.985352583229541778564453125">
        <ele>629.20001220703125</ele>
        <time>2026-08-21T18:58:15.000Z</time>
        <extensions>
          <ns3:TrackPointExtension>
            <ns3:hr>122</ns3:hr>
            <ns3:cad>55</ns3:cad>
          </ns3:TrackPointExtension>
        </extensions>
      </trkpt>
      <trkpt lat="45.3459494747221469879150390625" lon="-70.98536557517945766448974609375">
        <ele>629.20001220703125</ele>
        <time>2026-08-21T18:58:16.000Z</time>
        <extensions>
          <ns3:TrackPointExtension>
            <ns3:hr>122</ns3:hr>
            <ns3:cad>53</ns3:cad>
          </ns3:TrackPointExtension>
        </extensions>
      </trkpt>
      <trkpt lat="45.34596112556755542755126953125" lon="-70.9853748790919780731201171875">
        <ele>629.4000244140625</ele>
        <time>2026-08-21T18:58:17.000Z</time>
        <extensions>
          <ns3:TrackPointExtension>
            <ns3:hr>122</ns3:hr>
            <ns3:cad>53</ns3:cad>
          </ns3:TrackPointExtension>
        </extensions>
      </trkpt>
      <trkpt lat="45.34597369842231273651123046875" lon="-70.98538376390933990478515625">
        <ele>629.4000244140625</ele>
        <time>2026-08-21T18:58:18.000Z</time>
        <extensions>
          <ns3:TrackPointExtension>
            <ns3:hr>123</ns3:hr>
            <ns3:cad>53</ns3:cad>
          </ns3:TrackPointExtension>
        </extensions>
      </trkpt>
      <trkpt lat="45.34598778001964092254638671875" lon="-70.98539491184055805206298828125">
        <ele>629.5999755859375</ele>
        <time>2026-08-21T18:58:19.000Z</time>
        <extensions>
          <ns3:TrackPointExtension>
            <ns3:hr>123</ns3:hr>
            <ns3:cad>53</ns3:cad>
          </ns3:TrackPointExtension>
        </extensions>
      </trkpt>
      <trkpt lat="45.34599867649376392364501953125" lon="-70.9854094125330448150634765625">
        <ele>629.5999755859375</ele>
        <time>2026-08-21T18:58:20.000Z</time>
        <extensions>
          <ns3:TrackPointExtension>
            <ns3:hr>123</ns3:hr>
            <ns3:cad>53</ns3:cad>
          </ns3:TrackPointExtension>
        </extensions>
      </trkpt>
      <trkpt lat="45.3460121713578701019287109375" lon="-70.985424332320690155029296875">
        <ele>629.79998779296875</ele>
        <time>2026-08-21T18:58:21.000Z</time>
        <extensions>
          <ns3:TrackPointExtension>
            <ns3:hr>123</ns3:hr>
            <ns3:cad>53</ns3:cad>
          </ns3:TrackPointExtension>
        </extensions>
      </trkpt>
      <trkpt lat="45.3460259176790714263916015625" lon="-70.985438413918018341064453125">
        <ele>630</ele>
        <time>2026-08-21T18:58:22.000Z</time>
        <extensions>
          <ns3:TrackPointExtension>
            <ns3:hr>123</ns3:hr>
            <ns3:cad>53</ns3:cad>
          </ns3:TrackPointExtension>
        </extensions>
      </trkpt>
      <trkpt lat="45.346036814153194427490234375" lon="-70.9854476340115070343017578125">
        <ele>630.20001220703125</ele>
        <time>2026-08-21T18:58:23.000Z</time>
        <extensions>
          <ns3:TrackPointExtension>
            <ns3:hr>124</ns3:hr>
            <ns3:cad>53</ns3:cad>
          </ns3:TrackPointExtension>
        </extensions>
      </trkpt>
      <trkpt lat="45.3460490517318248748779296875" lon="-70.985461212694644927978515625">
        <ele>630.4000244140625</ele>
        <time>2026-08-21T18:58:24.000Z</time>
        <extensions>
          <ns3:TrackPointExtension>
            <ns3:hr>124</ns3:hr>
            <ns3:cad>53</ns3:cad>
          </ns3:TrackPointExtension>
        </extensions>
      </trkpt>
      <trkpt lat="45.34606070257723331451416015625" lon="-70.9854737855494022369384765625">
        <ele>630.4000244140625</ele>
        <time>2026-08-21T18:58:25.000Z</time>
        <extensions>
          <ns3:TrackPointExtension>
            <ns3:hr>124</ns3:hr>
            <ns3:cad>53</ns3:cad>
          </ns3:TrackPointExtension>
        </extensions>
      </trkpt>
      <trkpt lat="45.34607277251780033111572265625" lon="-70.9854861907660961151123046875">
        <ele>630.5999755859375</ele>
        <time>2026-08-21T18:58:26.000Z</time>
        <extensions>
          <ns3:TrackPointExtension>
            <ns3:hr>124</ns3:hr>
            <ns3:cad>53</ns3:cad>
          </ns3:TrackPointExtension>
        </extensions>
      </trkpt>
      <trkpt lat="45.34608702175319194793701171875" lon="-70.9854942373931407928466796875">
        <ele>630.79998779296875</ele>
        <time>2026-08-21T18:58:27.000Z</time>
        <extensions>
          <ns3:TrackPointExtension>
            <ns3:hr>124</ns3:hr>
            <ns3:cad>53</ns3:cad>
          </ns3:TrackPointExtension>
        </extensions>
      </trkpt>
      <trkpt lat="45.3460943140089511871337890625" lon="-70.98550379276275634765625">
        <ele>630.79998779296875</ele>
        <time>2026-08-21T18:58:28.000Z</time>
        <extensions>
          <ns3:TrackPointExtension>
            <ns3:hr>124</ns3:hr>
            <ns3:cad>53</ns3:cad>
          </ns3:TrackPointExtension>
        </extensions>
      </trkpt>
      <trkpt lat="45.34610847942531108856201171875" lon="-70.98551862873136997222900390625">
        <ele>631</ele>
        <time>2026-08-21T18:58:29.000Z</time>
        <extensions>
          <ns3:TrackPointExtension>
            <ns3:hr>124</ns3:hr>
            <ns3:cad>53</ns3:cad>
          </ns3:TrackPointExtension>
        </extensions>
      </trkpt>
      <trkpt lat="45.34611962735652923583984375" lon="-70.98553069867193698883056640625">
        <ele>631.20001220703125</ele>
        <time>2026-08-21T18:58:30.000Z</time>
        <extensions>
          <ns3:TrackPointExtension>
            <ns3:hr>124</ns3:hr>
            <ns3:cad>53</ns3:cad>
          </ns3:TrackPointExtension>
        </extensions>
      </trkpt>
      <trkpt lat="45.34612901508808135986328125" lon="-70.9855428524315357208251953125">
        <ele>631.20001220703125</ele>
        <time>2026-08-21T18:58:31.000Z</time>
        <extensions>
          <ns3:TrackPointExtension>
            <ns3:hr>124</ns3:hr>
            <ns3:cad>52</ns3:cad>
          </ns3:TrackPointExtension>
        </extensions>
      </trkpt>
      <trkpt lat="45.3461404144763946533203125" lon="-70.98555567674338817596435546875">
        <ele>631.4000244140625</ele>
        <time>2026-08-21T18:58:32.000Z</time>
        <extensions>
          <ns3:TrackPointExtension>
            <ns3:hr>125</ns3:hr>
            <ns3:cad>52</ns3:cad>
          </ns3:TrackPointExtension>
        </extensions>
      </trkpt>
      <trkpt lat="45.346152484416961669921875" lon="-70.9855668246746063232421875">
        <ele>631.5999755859375</ele>
        <time>2026-08-21T18:58:33.000Z</time>
        <extensions>
          <ns3:TrackPointExtension>
            <ns3:hr>125</ns3:hr>
            <ns3:cad>52</ns3:cad>
          </ns3:TrackPointExtension>
        </extensions>
      </trkpt>
      <trkpt lat="45.34616120159626007080078125" lon="-70.98557797260582447052001953125">
        <ele>631.79998779296875</ele>
        <time>2026-08-21T18:58:34.000Z</time>
        <extensions>
          <ns3:TrackPointExtension>
            <ns3:hr>125</ns3:hr>
            <ns3:cad>52</ns3:cad>
          </ns3:TrackPointExtension>
        </extensions>
      </trkpt>
      <trkpt lat="45.3461724333465099334716796875" lon="-70.98559222184121608734130859375">
        <ele>631.79998779296875</ele>
        <time>2026-08-21T18:58:35.000Z</time>
        <extensions>
          <ns3:TrackPointExtension>
            <ns3:hr>125</ns3:hr>
            <ns3:cad>52</ns3:cad>
          </ns3:TrackPointExtension>
        </extensions>
      </trkpt>
      <trkpt lat="45.3461806476116180419921875" lon="-70.985611416399478912353515625">
        <ele>632</ele>
        <time>2026-08-21T18:58:36.000Z</time>
        <extensions>
          <ns3:TrackPointExtension>
            <ns3:hr>125</ns3:hr>
            <ns3:cad>52</ns3:cad>
          </ns3:TrackPointExtension>
        </extensions>
      </trkpt>
      <trkpt lat="45.3461855091154575347900390625" lon="-70.9856273420155048370361328125">
        <ele>632</ele>
        <time>2026-08-21T18:58:37.000Z</time>
        <extensions>
          <ns3:TrackPointExtension>
            <ns3:hr>125</ns3:hr>
            <ns3:cad>52</ns3:cad>
          </ns3:TrackPointExtension>
        </extensions>
      </trkpt>
      <trkpt lat="45.346197076141834259033203125" lon="-70.9856400825083255767822265625">
        <ele>632.20001220703125</ele>
        <time>2026-08-21T18:58:38.000Z</time>
        <extensions>
          <ns3:TrackPointExtension>
            <ns3:hr>125</ns3:hr>
            <ns3:cad>52</ns3:cad>
          </ns3:TrackPointExtension>
        </extensions>
      </trkpt>
      <trkpt lat="45.34620772115886211395263671875" lon="-70.985651649534702301025390625">
        <ele>632.4000244140625</ele>
        <time>2026-08-21T18:58:39.000Z</time>
        <extensions>
          <ns3:TrackPointExtension>
            <ns3:hr>125</ns3:hr>
            <ns3:cad>51</ns3:cad>
          </ns3:TrackPointExtension>
        </extensions>
      </trkpt>
      <trkpt lat="45.346217192709445953369140625" lon="-70.98566430620849132537841796875">
        <ele>632.4000244140625</ele>
        <time>2026-08-21T18:58:40.000Z</time>
        <extensions>
          <ns3:TrackPointExtension>
            <ns3:hr>125</ns3:hr>
            <ns3:cad>51</ns3:cad>
          </ns3:TrackPointExtension>
        </extensions>
      </trkpt>
      <trkpt lat="45.3462262451648712158203125" lon="-70.985679142177104949951171875">
        <ele>632.5999755859375</ele>
        <time>2026-08-21T18:58:41.000Z</time>
        <extensions>
          <ns3:TrackPointExtension>
            <ns3:hr>125</ns3:hr>
            <ns3:cad>51</ns3:cad>
          </ns3:TrackPointExtension>
        </extensions>
      </trkpt>
      <trkpt lat="45.346232615411281585693359375" lon="-70.985691547393798828125">
        <ele>632.5999755859375</ele>
        <time>2026-08-21T18:58:42.000Z</time>
        <extensions>
          <ns3:TrackPointExtension>
            <ns3:hr>125</ns3:hr>
            <ns3:cad>51</ns3:cad>
          </ns3:TrackPointExtension>
        </extensions>
      </trkpt>
      <trkpt lat="45.34624300897121429443359375" lon="-70.98570437170565128326416015625">
        <ele>632.79998779296875</ele>
        <time>2026-08-21T18:58:43.000Z</time>
        <extensions>
          <ns3:TrackPointExtension>
            <ns3:hr>126</ns3:hr>
            <ns3:cad>51</ns3:cad>
          </ns3:TrackPointExtension>
        </extensions>
      </trkpt>
      <trkpt lat="45.3462421707808971405029296875" lon="-70.98573052324354648590087890625">
        <ele>632.79998779296875</ele>
        <time>2026-08-21T18:58:44.000Z</time>
        <extensions>
          <ns3:TrackPointExtension>
            <ns3:hr>125</ns3:hr>
            <ns3:cad>53</ns3:cad>
          </ns3:TrackPointExtension>
        </extensions>
      </trkpt>
      <trkpt lat="45.346246026456356048583984375" lon="-70.9857463650405406951904296875">
        <ele>633</ele>
        <time>2026-08-21T18:58:45.000Z</time>
        <extensions>
          <ns3:TrackPointExtension>
            <ns3:hr>126</ns3:hr>
            <ns3:cad>53</ns3:cad>
          </ns3:TrackPointExtension>
        </extensions>
      </trkpt>
      <trkpt lat="45.3462505526840686798095703125" lon="-70.985760949552059173583984375">
        <ele>633.20001220703125</ele>
        <time>2026-08-21T18:58:46.000Z</time>
        <extensions>
          <ns3:TrackPointExtension>
            <ns3:hr>126</ns3:hr>
            <ns3:cad>53</ns3:cad>
          </ns3:TrackPointExtension>
        </extensions>
      </trkpt>
      <trkpt lat="45.34625231288373470306396484375" lon="-70.9857825748622417449951171875">
        <ele>633.20001220703125</ele>
        <time>2026-08-21T18:58:47.000Z</time>
        <extensions>
          <ns3:TrackPointExtension>
            <ns3:hr>126</ns3:hr>
            <ns3:cad>53</ns3:cad>
          </ns3:TrackPointExtension>
        </extensions>
      </trkpt>
      <trkpt lat="45.3462549112737178802490234375" lon="-70.98580009303987026214599609375">
        <ele>633.4000244140625</ele>
        <time>2026-08-21T18:58:48.000Z</time>
        <extensions>
          <ns3:TrackPointExtension>
            <ns3:hr>126</ns3:hr>
            <ns3:cad>53</ns3:cad>
          </ns3:TrackPointExtension>
        </extensions>
      </trkpt>
      <trkpt lat="45.346262119710445404052734375" lon="-70.9858134202659130096435546875">
        <ele>633.5999755859375</ele>
        <time>2026-08-21T18:58:49.000Z</time>
        <extensions>
          <ns3:TrackPointExtension>
            <ns3:hr>126</ns3:hr>
            <ns3:cad>53</ns3:cad>
          </ns3:TrackPointExtension>
        </extensions>
      </trkpt>
      <trkpt lat="45.3462693281471729278564453125" lon="-70.98582657985389232635498046875">
        <ele>633.5999755859375</ele>
        <time>2026-08-21T18:58:50.000Z</time>
        <extensions>
          <ns3:TrackPointExtension>
            <ns3:hr>126</ns3:hr>
            <ns3:cad>53</ns3:cad>
          </ns3:TrackPointExtension>
        </extensions>
      </trkpt>
      <trkpt lat="45.34627092070877552032470703125" lon="-70.98584502004086971282958984375">
        <ele>633.79998779296875</ele>
        <time>2026-08-21T18:58:51.000Z</time>
        <extensions>
          <ns3:TrackPointExtension>
            <ns3:hr>126</ns3:hr>
            <ns3:cad>53</ns3:cad>
          </ns3:TrackPointExtension>
        </extensions>
      </trkpt>
      <trkpt lat="45.3462745249271392822265625" lon="-70.98586429841816425323486328125">
        <ele>634</ele>
        <time>2026-08-21T18:58:52.000Z</time>
        <extensions>
          <ns3:TrackPointExtension>
            <ns3:hr>126</ns3:hr>
            <ns3:cad>53</ns3:cad>
          </ns3:TrackPointExtension>
        </extensions>
      </trkpt>
      <trkpt lat="45.34627678804099559783935546875" lon="-70.98588206805288791656494140625">
        <ele>634.20001220703125</ele>
        <time>2026-08-21T18:58:53.000Z</time>
        <extensions>
          <ns3:TrackPointExtension>
            <ns3:hr>126</ns3:hr>
            <ns3:cad>53</ns3:cad>
          </ns3:TrackPointExtension>
        </extensions>
      </trkpt>
      <trkpt lat="45.34627796150743961334228515625" lon="-70.9859056212007999420166015625">
        <ele>634.20001220703125</ele>
        <time>2026-08-21T18:58:54.000Z</time>
        <extensions>
          <ns3:TrackPointExtension>
            <ns3:hr>126</ns3:hr>
            <ns3:cad>53</ns3:cad>
          </ns3:TrackPointExtension>
        </extensions>
      </trkpt>
      <trkpt lat="45.34628047607839107513427734375" lon="-70.9859223850071430206298828125">
        <ele>634.4000244140625</ele>
        <time>2026-08-21T18:58:55.000Z</time>
        <extensions>
          <ns3:TrackPointExtension>
            <ns3:hr>126</ns3:hr>
            <ns3:cad>53</ns3:cad>
          </ns3:TrackPointExtension>
        </extensions>
      </trkpt>
      <trkpt lat="45.346284918487071990966796875" lon="-70.98594090901315212249755859375">
        <ele>634.4000244140625</ele>
        <time>2026-08-21T18:58:56.000Z</time>
        <extensions>
          <ns3:TrackPointExtension>
            <ns3:hr>126</ns3:hr>
            <ns3:cad>52</ns3:cad>
          </ns3:TrackPointExtension>
        </extensions>
      </trkpt>
      <trkpt lat="45.34628969617187976837158203125" lon="-70.98595800809562206268310546875">
        <ele>634.5999755859375</ele>
        <time>2026-08-21T18:58:57.000Z</time>
        <extensions>
          <ns3:TrackPointExtension>
            <ns3:hr>127</ns3:hr>
            <ns3:cad>52</ns3:cad>
          </ns3:TrackPointExtension>
        </extensions>
      </trkpt>
      <trkpt lat="45.3462964855134487152099609375" lon="-70.9859777055680751800537109375">
        <ele>634.79998779296875</ele>
        <time>2026-08-21T18:58:58.000Z</time>
        <extensions>
          <ns3:TrackPointExtension>
            <ns3:hr>127</ns3:hr>
            <ns3:cad>52</ns3:cad>
          </ns3:TrackPointExtension>
        </extensions>
      </trkpt>
      <trkpt lat="45.34629791043698787689208984375" lon="-70.986000336706638336181640625">
        <ele>634.79998779296875</ele>
        <time>2026-08-21T18:58:59.000Z</time>
        <extensions>
          <ns3:TrackPointExtension>
            <ns3:hr>128</ns3:hr>
            <ns3:cad>52</ns3:cad>
          </ns3:TrackPointExtension>
        </extensions>
      </trkpt>
      <trkpt lat="45.34629807807505130767822265625" lon="-70.98602078855037689208984375">
        <ele>635</ele>
        <time>2026-08-21T18:59:00.000Z</time>
        <extensions>
          <ns3:TrackPointExtension>
            <ns3:hr>128</ns3:hr>
            <ns3:cad>52</ns3:cad>
          </ns3:TrackPointExtension>
        </extensions>
      </trkpt>
      <trkpt lat="45.3463025204837322235107421875" lon="-70.9860380552709102630615234375">
        <ele>635.20001220703125</ele>
        <time>2026-08-21T18:59:01.000Z</time>
        <extensions>
          <ns3:TrackPointExtension>
            <ns3:hr>128</ns3:hr>
            <ns3:cad>52</ns3:cad>
          </ns3:TrackPointExtension>
        </extensions>
      </trkpt>
      <trkpt lat="45.3463052026927471160888671875" lon="-70.986053645610809326171875">
        <ele>635.20001220703125</ele>
        <time>2026-08-21T18:59:02.000Z</time>
        <extensions>
          <ns3:TrackPointExtension>
            <ns3:hr>128</ns3:hr>
            <ns3:cad>52</ns3:cad>
          </ns3:TrackPointExtension>
        </extensions>
      </trkpt>
      <trkpt lat="45.346308387815952301025390625" lon="-70.98606630228459835052490234375">
        <ele>635.4000244140625</ele>
        <time>2026-08-21T18:59:03.000Z</time>
        <extensions>
          <ns3:TrackPointExtension>
            <ns3:hr>128</ns3:hr>
            <ns3:cad>52</ns3:cad>
          </ns3:TrackPointExtension>
        </extensions>
      </trkpt>
      <trkpt lat="45.3463085554540157318115234375" lon="-70.986086837947368621826171875">
        <ele>635.4000244140625</ele>
        <time>2026-08-21T18:59:04.000Z</time>
        <extensions>
          <ns3:TrackPointExtension>
            <ns3:hr>129</ns3:hr>
            <ns3:cad>51</ns3:cad>
          </ns3:TrackPointExtension>
        </extensions>
      </trkpt>
      <trkpt lat="45.34631316550076007843017578125" lon="-70.9861071221530437469482421875">
        <ele>635.5999755859375</ele>
        <time>2026-08-21T18:59:05.000Z</time>
        <extensions>
          <ns3:TrackPointExtension>
            <ns3:hr>129</ns3:hr>
            <ns3:cad>51</ns3:cad>
          </ns3:TrackPointExtension>
        </extensions>
      </trkpt>
      <trkpt lat="45.34632079303264617919921875" lon="-70.98612899892032146453857421875">
        <ele>635.79998779296875</ele>
        <time>2026-08-21T18:59:06.000Z</time>
        <extensions>
          <ns3:TrackPointExtension>
            <ns3:hr>129</ns3:hr>
            <ns3:cad>51</ns3:cad>
          </ns3:TrackPointExtension>
        </extensions>
      </trkpt>
      <trkpt lat="45.3463233076035976409912109375" lon="-70.98614827729761600494384765625">
        <ele>636</ele>
        <time>2026-08-21T18:59:07.000Z</time>
        <extensions>
          <ns3:TrackPointExtension>
            <ns3:hr>129</ns3:hr>
            <ns3:cad>51</ns3:cad>
          </ns3:TrackPointExtension>
        </extensions>
      </trkpt>
      <trkpt lat="45.34632909111678600311279296875" lon="-70.98616235889494419097900390625">
        <ele>636.20001220703125</ele>
        <time>2026-08-21T18:59:08.000Z</time>
        <extensions>
          <ns3:TrackPointExtension>
            <ns3:hr>129</ns3:hr>
            <ns3:cad>50</ns3:cad>
          </ns3:TrackPointExtension>
        </extensions>
      </trkpt>
      <trkpt lat="45.34633579663932323455810546875" lon="-70.98617644049227237701416015625">
        <ele>636.20001220703125</ele>
        <time>2026-08-21T18:59:09.000Z</time>
        <extensions>
          <ns3:TrackPointExtension>
            <ns3:hr>130</ns3:hr>
            <ns3:cad>50</ns3:cad>
          </ns3:TrackPointExtension>
        </extensions>
      </trkpt>
      <trkpt lat="45.34633965231478214263916015625" lon="-70.98619203083217144012451171875">
        <ele>636.4000244140625</ele>
        <time>2026-08-21T18:59:10.000Z</time>
        <extensions>
          <ns3:TrackPointExtension>
            <ns3:hr>130</ns3:hr>
            <ns3:cad>50</ns3:cad>
          </ns3:TrackPointExtension>
        </extensions>
      </trkpt>
      <trkpt lat="45.346344597637653350830078125" lon="-70.98620493896305561065673828125">
        <ele>636.4000244140625</ele>
        <time>2026-08-21T18:59:11.000Z</time>
        <extensions>
          <ns3:TrackPointExtension>
            <ns3:hr>130</ns3:hr>
            <ns3:cad>50</ns3:cad>
          </ns3:TrackPointExtension>
        </extensions>
      </trkpt>
      <trkpt lat="45.34634870477020740509033203125" lon="-70.98622304387390613555908203125">
        <ele>636.5999755859375</ele>
        <time>2026-08-21T18:59:12.000Z</time>
        <extensions>
          <ns3:TrackPointExtension>
            <ns3:hr>130</ns3:hr>
            <ns3:cad>50</ns3:cad>
          </ns3:TrackPointExtension>
        </extensions>
      </trkpt>
      <trkpt lat="45.34635029733180999755859375" lon="-70.9862415678799152374267578125">
        <ele>636.5999755859375</ele>
        <time>2026-08-21T18:59:13.000Z</time>
        <extensions>
          <ns3:TrackPointExtension>
            <ns3:hr>130</ns3:hr>
            <ns3:cad>51</ns3:cad>
          </ns3:TrackPointExtension>
        </extensions>
      </trkpt>
      <trkpt lat="45.34635356627404689788818359375" lon="-70.98625791259109973907470703125">
        <ele>636.79998779296875</ele>
        <time>2026-08-21T18:59:14.000Z</time>
        <extensions>
          <ns3:TrackPointExtension>
            <ns3:hr>130</ns3:hr>
            <ns3:cad>51</ns3:cad>
          </ns3:TrackPointExtension>
        </extensions>
      </trkpt>
      <trkpt lat="45.346358679234981536865234375" lon="-70.986270904541015625">
        <ele>637</ele>
        <time>2026-08-21T18:59:15.000Z</time>
        <extensions>
          <ns3:TrackPointExtension>
            <ns3:hr>129</ns3:hr>
            <ns3:cad>51</ns3:cad>
          </ns3:TrackPointExtension>
        </extensions>
      </trkpt>
      <trkpt lat="45.346364043653011322021484375" lon="-70.98628364503383636474609375">
        <ele>637</ele>
        <time>2026-08-21T18:59:16.000Z</time>
        <extensions>
          <ns3:TrackPointExtension>
            <ns3:hr>128</ns3:hr>
            <ns3:cad>49</ns3:cad>
          </ns3:TrackPointExtension>
        </extensions>
      </trkpt>
      <trkpt lat="45.34636848606169223785400390625" lon="-70.98630317486822605133056640625">
        <ele>637.20001220703125</ele>
        <time>2026-08-21T18:59:17.000Z</time>
        <extensions>
          <ns3:TrackPointExtension>
            <ns3:hr>128</ns3:hr>
            <ns3:cad>49</ns3:cad>
          </ns3:TrackPointExtension>
        </extensions>
      </trkpt>
      <trkpt lat="45.34637250937521457672119140625" lon="-70.986320190131664276123046875">
        <ele>637.4000244140625</ele>
        <time>2026-08-21T18:59:18.000Z</time>
        <extensions>
          <ns3:TrackPointExtension>
            <ns3:hr>128</ns3:hr>
            <ns3:cad>49</ns3:cad>
          </ns3:TrackPointExtension>
        </extensions>
      </trkpt>
      <trkpt lat="45.346376784145832061767578125" lon="-70.98633871413767337799072265625">
        <ele>637.4000244140625</ele>
        <time>2026-08-21T18:59:19.000Z</time>
        <extensions>
          <ns3:TrackPointExtension>
            <ns3:hr>128</ns3:hr>
            <ns3:cad>50</ns3:cad>
          </ns3:TrackPointExtension>
        </extensions>
      </trkpt>
      <trkpt lat="45.34638457931578159332275390625" lon="-70.98635531030595302581787109375">
        <ele>637.5999755859375</ele>
        <time>2026-08-21T18:59:20.000Z</time>
        <extensions>
          <ns3:TrackPointExtension>
            <ns3:hr>127</ns3:hr>
            <ns3:cad>50</ns3:cad>
          </ns3:TrackPointExtension>
        </extensions>
      </trkpt>
      <trkpt lat="45.34638793207705020904541015625" lon="-70.98636738024652004241943359375">
        <ele>637.5999755859375</ele>
        <time>2026-08-21T18:59:21.000Z</time>
        <extensions>
          <ns3:TrackPointExtension>
            <ns3:hr>127</ns3:hr>
            <ns3:cad>49</ns3:cad>
          </ns3:TrackPointExtension>
        </extensions>
      </trkpt>
      <trkpt lat="45.346391201019287109375" lon="-70.9863854013383388519287109375">
        <ele>637.79998779296875</ele>
        <time>2026-08-21T18:59:22.000Z</time>
        <extensions>
          <ns3:TrackPointExtension>
            <ns3:hr>127</ns3:hr>
            <ns3:cad>49</ns3:cad>
          </ns3:TrackPointExtension>
        </extensions>
      </trkpt>
      <trkpt lat="45.34639748744666576385498046875" lon="-70.9864021651446819305419921875">
        <ele>637.79998779296875</ele>
        <time>2026-08-21T18:59:23.000Z</time>
        <extensions>
          <ns3:TrackPointExtension>
            <ns3:hr>127</ns3:hr>
            <ns3:cad>47</ns3:cad>
          </ns3:TrackPointExtension>
        </extensions>
      </trkpt>
      <trkpt lat="45.3464007563889026641845703125" lon="-70.98641985096037387847900390625">
        <ele>638</ele>
        <time>2026-08-21T18:59:24.000Z</time>
        <extensions>
          <ns3:TrackPointExtension>
            <ns3:hr>126</ns3:hr>
            <ns3:cad>49</ns3:cad>
          </ns3:TrackPointExtension>
        </extensions>
      </trkpt>
      <trkpt lat="45.346404947340488433837890625" lon="-70.98643627949059009552001953125">
        <ele>638.20001220703125</ele>
        <time>2026-08-21T18:59:25.000Z</time>
        <extensions>
          <ns3:TrackPointExtension>
            <ns3:hr>126</ns3:hr>
            <ns3:cad>49</ns3:cad>
          </ns3:TrackPointExtension>
        </extensions>
      </trkpt>
      <trkpt lat="45.3464077971875667572021484375" lon="-70.98645287565886974334716796875">
        <ele>638.20001220703125</ele>
        <time>2026-08-21T18:59:26.000Z</time>
        <extensions>
          <ns3:TrackPointExtension>
            <ns3:hr>126</ns3:hr>
            <ns3:cad>49</ns3:cad>
          </ns3:TrackPointExtension>
        </extensions>
      </trkpt>
      <trkpt lat="45.34641458652913570404052734375" lon="-70.98646796308457851409912109375">
        <ele>638.4000244140625</ele>
        <time>2026-08-21T18:59:27.000Z</time>
        <extensions>
          <ns3:TrackPointExtension>
            <ns3:hr>126</ns3:hr>
            <ns3:cad>49</ns3:cad>
          </ns3:TrackPointExtension>
        </extensions>
      </trkpt>
      <trkpt lat="45.34641894511878490447998046875" lon="-70.98648355342447757720947265625">
        <ele>638.5999755859375</ele>
        <time>2026-08-21T18:59:28.000Z</time>
        <extensions>
          <ns3:TrackPointExtension>
            <ns3:hr>126</ns3:hr>
            <ns3:cad>49</ns3:cad>
          </ns3:TrackPointExtension>
        </extensions>
      </trkpt>
      <trkpt lat="45.34642213024199008941650390625" lon="-70.98649729974567890167236328125">
        <ele>638.5999755859375</ele>
        <time>2026-08-21T18:59:29.000Z</time>
        <extensions>
          <ns3:TrackPointExtension>
            <ns3:hr>127</ns3:hr>
            <ns3:cad>49</ns3:cad>
          </ns3:TrackPointExtension>
        </extensions>
      </trkpt>
      <trkpt lat="45.346424393355846405029296875" lon="-70.98651473410427570343017578125">
        <ele>638.79998779296875</ele>
        <time>2026-08-21T18:59:30.000Z</time>
        <extensions>
          <ns3:TrackPointExtension>
            <ns3:hr>127</ns3:hr>
            <ns3:cad>50</ns3:cad>
          </ns3:TrackPointExtension>
        </extensions>
      </trkpt>
      <trkpt lat="45.34642674028873443603515625" lon="-70.986528731882572174072265625">
        <ele>639</ele>
        <time>2026-08-21T18:59:31.000Z</time>
        <extensions>
          <ns3:TrackPointExtension>
            <ns3:hr>127</ns3:hr>
            <ns3:cad>51</ns3:cad>
          </ns3:TrackPointExtension>
        </extensions>
      </trkpt>
      <trkpt lat="45.3464326076209545135498046875" lon="-70.9865372814238071441650390625">
        <ele>639</ele>
        <time>2026-08-21T18:59:32.000Z</time>
        <extensions>
          <ns3:TrackPointExtension>
            <ns3:hr>127</ns3:hr>
            <ns3:cad>51</ns3:cad>
          </ns3:TrackPointExtension>
        </extensions>
      </trkpt>
      <trkpt lat="45.3464393131434917449951171875" lon="-70.98655060864984989166259765625">
        <ele>639.20001220703125</ele>
        <time>2026-08-21T18:59:33.000Z</time>
        <extensions>
          <ns3:TrackPointExtension>
            <ns3:hr>128</ns3:hr>
            <ns3:cad>51</ns3:cad>
          </ns3:TrackPointExtension>
        </extensions>
      </trkpt>
      <trkpt lat="45.3464396484196186065673828125" lon="-70.986570306122303009033203125">
        <ele>639.4000244140625</ele>
        <time>2026-08-21T18:59:34.000Z</time>
        <extensions>
          <ns3:TrackPointExtension>
            <ns3:hr>128</ns3:hr>
            <ns3:cad>51</ns3:cad>
          </ns3:TrackPointExtension>
        </extensions>
      </trkpt>
      <trkpt lat="45.34644342027604579925537109375" lon="-70.98659017123281955718994140625">
        <ele>639.5999755859375</ele>
        <time>2026-08-21T18:59:35.000Z</time>
        <extensions>
          <ns3:TrackPointExtension>
            <ns3:hr>128</ns3:hr>
            <ns3:cad>51</ns3:cad>
          </ns3:TrackPointExtension>
        </extensions>
      </trkpt>
      <trkpt lat="45.34644685685634613037109375" lon="-70.9866140596568584442138671875">
        <ele>639.5999755859375</ele>
        <time>2026-08-21T18:59:36.000Z</time>
        <extensions>
          <ns3:TrackPointExtension>
            <ns3:hr>127</ns3:hr>
            <ns3:cad>50</ns3:cad>
          </ns3:TrackPointExtension>
        </extensions>
      </trkpt>
      <trkpt lat="45.3464473597705364227294921875" lon="-70.9866341762244701385498046875">
        <ele>639.79998779296875</ele>
        <time>2026-08-21T18:59:37.000Z</time>
        <extensions>
          <ns3:TrackPointExtension>
            <ns3:hr>128</ns3:hr>
            <ns3:cad>50</ns3:cad>
          </ns3:TrackPointExtension>
        </extensions>
      </trkpt>
      <trkpt lat="45.34645624458789825439453125" lon="-70.986652784049510955810546875">
        <ele>639.79998779296875</ele>
        <time>2026-08-21T18:59:38.000Z</time>
        <extensions>
          <ns3:TrackPointExtension>
            <ns3:hr>127</ns3:hr>
            <ns3:cad>50</ns3:cad>
          </ns3:TrackPointExtension>
        </extensions>
      </trkpt>
      <trkpt lat="45.34646403975784778594970703125" lon="-70.9866707213222980499267578125">
        <ele>640</ele>
        <time>2026-08-21T18:59:39.000Z</time>
        <extensions>
          <ns3:TrackPointExtension>
            <ns3:hr>126</ns3:hr>
            <ns3:cad>50</ns3:cad>
          </ns3:TrackPointExtension>
        </extensions>
      </trkpt>
      <trkpt lat="45.3464678116142749786376953125" lon="-70.9866884909570217132568359375">
        <ele>640</ele>
        <time>2026-08-21T18:59:40.000Z</time>
        <extensions>
          <ns3:TrackPointExtension>
            <ns3:hr>126</ns3:hr>
            <ns3:cad>51</ns3:cad>
          </ns3:TrackPointExtension>
        </extensions>
      </trkpt>
      <trkpt lat="45.34647409804165363311767578125" lon="-70.98670667968690395355224609375">
        <ele>640</ele>
        <time>2026-08-21T18:59:41.000Z</time>
        <extensions>
          <ns3:TrackPointExtension>
            <ns3:hr>126</ns3:hr>
            <ns3:cad>50</ns3:cad>
          </ns3:TrackPointExtension>
        </extensions>
      </trkpt>
      <trkpt lat="45.34647828899323940277099609375" lon="-70.9867283888161182403564453125">
        <ele>640.20001220703125</ele>
        <time>2026-08-21T18:59:42.000Z</time>
        <extensions>
          <ns3:TrackPointExtension>
            <ns3:hr>126</ns3:hr>
            <ns3:cad>50</ns3:cad>
          </ns3:TrackPointExtension>
        </extensions>
      </trkpt>
      <trkpt lat="45.34648440778255462646484375" lon="-70.98674842156469821929931640625">
        <ele>640.20001220703125</ele>
        <time>2026-08-21T18:59:43.000Z</time>
        <extensions>
          <ns3:TrackPointExtension>
            <ns3:hr>126</ns3:hr>
            <ns3:cad>51</ns3:cad>
          </ns3:TrackPointExtension>
        </extensions>
      </trkpt>
      <trkpt lat="45.34648834727704524993896484375" lon="-70.98676853813230991363525390625">
        <ele>640.4000244140625</ele>
        <time>2026-08-21T18:59:44.000Z</time>
        <extensions>
          <ns3:TrackPointExtension>
            <ns3:hr>126</ns3:hr>
            <ns3:cad>51</ns3:cad>
          </ns3:TrackPointExtension>
        </extensions>
      </trkpt>
      <trkpt lat="45.34649245440959930419921875" lon="-70.98678144626319408416748046875">
        <ele>640.5999755859375</ele>
        <time>2026-08-21T18:59:45.000Z</time>
        <extensions>
          <ns3:TrackPointExtension>
            <ns3:hr>125</ns3:hr>
            <ns3:cad>51</ns3:cad>
          </ns3:TrackPointExtension>
        </extensions>
      </trkpt>
      <trkpt lat="45.34649807028472423553466796875" lon="-70.98679552786052227020263671875">
        <ele>640.5999755859375</ele>
        <time>2026-08-21T18:59:46.000Z</time>
        <extensions>
          <ns3:TrackPointExtension>
            <ns3:hr>126</ns3:hr>
            <ns3:cad>51</ns3:cad>
          </ns3:TrackPointExtension>
        </extensions>
      </trkpt>
      <trkpt lat="45.34650309942662715911865234375" lon="-70.98681346513330936431884765625">
        <ele>640.79998779296875</ele>
        <time>2026-08-21T18:59:47.000Z</time>
        <extensions>
          <ns3:TrackPointExtension>
            <ns3:hr>126</ns3:hr>
            <ns3:cad>51</ns3:cad>
          </ns3:TrackPointExtension>
        </extensions>
      </trkpt>
      <trkpt lat="45.34650896675884723663330078125" lon="-70.98683039657771587371826171875">
        <ele>640.79998779296875</ele>
        <time>2026-08-21T18:59:48.000Z</time>
        <extensions>
          <ns3:TrackPointExtension>
            <ns3:hr>127</ns3:hr>
            <ns3:cad>52</ns3:cad>
          </ns3:TrackPointExtension>
        </extensions>
      </trkpt>
      <trkpt lat="45.346514247357845306396484375" lon="-70.9868457354605197906494140625">
        <ele>641</ele>
        <time>2026-08-21T18:59:49.000Z</time>
        <extensions>
          <ns3:TrackPointExtension>
            <ns3:hr>127</ns3:hr>
            <ns3:cad>52</ns3:cad>
          </ns3:TrackPointExtension>
        </extensions>
      </trkpt>
      <trkpt lat="45.3465214557945728302001953125" lon="-70.98686409182846546173095703125">
        <ele>641.20001220703125</ele>
        <time>2026-08-21T18:59:50.000Z</time>
        <extensions>
          <ns3:TrackPointExtension>
            <ns3:hr>127</ns3:hr>
            <ns3:cad>50</ns3:cad>
          </ns3:TrackPointExtension>
        </extensions>
      </trkpt>
      <trkpt lat="45.34652531147003173828125" lon="-70.986885130405426025390625">
        <ele>641.20001220703125</ele>
        <time>2026-08-21T18:59:51.000Z</time>
        <extensions>
          <ns3:TrackPointExtension>
            <ns3:hr>127</ns3:hr>
            <ns3:cad>50</ns3:cad>
          </ns3:TrackPointExtension>
        </extensions>
      </trkpt>
      <trkpt lat="45.34653293900191783905029296875" lon="-70.98690231330692768096923828125">
        <ele>641.4000244140625</ele>
        <time>2026-08-21T18:59:52.000Z</time>
        <extensions>
          <ns3:TrackPointExtension>
            <ns3:hr>127</ns3:hr>
            <ns3:cad>50</ns3:cad>
          </ns3:TrackPointExtension>
        </extensions>
      </trkpt>
      <trkpt lat="45.34653914161026477813720703125" lon="-70.98691706545650959014892578125">
        <ele>641.5999755859375</ele>
        <time>2026-08-21T18:59:53.000Z</time>
        <extensions>
          <ns3:TrackPointExtension>
            <ns3:hr>127</ns3:hr>
            <ns3:cad>50</ns3:cad>
          </ns3:TrackPointExtension>
        </extensions>
      </trkpt>
      <trkpt lat="45.3465481102466583251953125" lon="-70.98693215288221836090087890625">
        <ele>641.5999755859375</ele>
        <time>2026-08-21T18:59:54.000Z</time>
        <extensions>
          <ns3:TrackPointExtension>
            <ns3:hr>127</ns3:hr>
            <ns3:cad>50</ns3:cad>
          </ns3:TrackPointExtension>
        </extensions>
      </trkpt>
      <trkpt lat="45.34655355848371982574462890625" lon="-70.98694858141243457794189453125">
        <ele>641.79998779296875</ele>
        <time>2026-08-21T18:59:55.000Z</time>
        <extensions>
          <ns3:TrackPointExtension>
            <ns3:hr>126</ns3:hr>
            <ns3:cad>48</ns3:cad>
          </ns3:TrackPointExtension>
        </extensions>
      </trkpt>
      <trkpt lat="45.346559844911098480224609375" lon="-70.98695813678205013275146484375">
        <ele>641.79998779296875</ele>
        <time>2026-08-21T18:59:56.000Z</time>
        <extensions>
          <ns3:TrackPointExtension>
            <ns3:hr>127</ns3:hr>
            <ns3:cad>48</ns3:cad>
          </ns3:TrackPointExtension>
        </extensions>
      </trkpt>
      <trkpt lat="45.34656344912946224212646484375" lon="-70.9869707934558391571044921875">
        <ele>642</ele>
        <time>2026-08-21T18:59:57.000Z</time>
        <extensions>
          <ns3:TrackPointExtension>
            <ns3:hr>127</ns3:hr>
            <ns3:cad>48</ns3:cad>
          </ns3:TrackPointExtension>
        </extensions>
      </trkpt>
      <trkpt lat="45.34656194038689136505126953125" lon="-70.98698504269123077392578125">
        <ele>642</ele>
        <time>2026-08-21T18:59:58.000Z</time>
        <extensions>
          <ns3:TrackPointExtension>
            <ns3:hr>127</ns3:hr>
            <ns3:cad>48</ns3:cad>
          </ns3:TrackPointExtension>
        </extensions>
      </trkpt>
      <trkpt lat="45.34656143747270107269287109375" lon="-70.98699870519340038299560546875">
        <ele>642.20001220703125</ele>
        <time>2026-08-21T18:59:59.000Z</time>
        <extensions>
          <ns3:TrackPointExtension>
            <ns3:hr>128</ns3:hr>
            <ns3:cad>48</ns3:cad>
          </ns3:TrackPointExtension>
        </extensions>
      </trkpt>
      <trkpt lat="45.346559174358844757080078125" lon="-70.98701412789523601531982421875">
        <ele>642.20001220703125</ele>
        <time>2026-08-21T19:00:00.000Z</time>
        <extensions>
          <ns3:TrackPointExtension>
            <ns3:hr>128</ns3:hr>
            <ns3:cad>48</ns3:cad>
          </ns3:TrackPointExtension>
        </extensions>
      </trkpt>
      <trkpt lat="45.34655875526368618011474609375" lon="-70.98703625611960887908935546875">
        <ele>642.4000244140625</ele>
        <time>2026-08-21T19:00:01.000Z</time>
        <extensions>
          <ns3:TrackPointExtension>
            <ns3:hr>128</ns3:hr>
            <ns3:cad>48</ns3:cad>
          </ns3:TrackPointExtension>
        </extensions>
      </trkpt>
      <trkpt lat="45.3465620242059230804443359375" lon="-70.9870541095733642578125">
        <ele>642.5999755859375</ele>
        <time>2026-08-21T19:00:02.000Z</time>
        <extensions>
          <ns3:TrackPointExtension>
            <ns3:hr>128</ns3:hr>
            <ns3:cad>48</ns3:cad>
          </ns3:TrackPointExtension>
        </extensions>
      </trkpt>
      <trkpt lat="45.3465657122433185577392578125" lon="-70.98707330413162708282470703125">
        <ele>642.79998779296875</ele>
        <time>2026-08-21T19:00:03.000Z</time>
        <extensions>
          <ns3:TrackPointExtension>
            <ns3:hr>128</ns3:hr>
            <ns3:cad>50</ns3:cad>
          </ns3:TrackPointExtension>
        </extensions>
      </trkpt>
      <trkpt lat="45.3465707413852214813232421875" lon="-70.9870894812047481536865234375">
        <ele>643</ele>
        <time>2026-08-21T19:00:04.000Z</time>
        <extensions>
          <ns3:TrackPointExtension>
            <ns3:hr>128</ns3:hr>
            <ns3:cad>50</ns3:cad>
          </ns3:TrackPointExtension>
        </extensions>
      </trkpt>
      <trkpt lat="45.3465754352509975433349609375" lon="-70.987106747925281524658203125">
        <ele>643</ele>
        <time>2026-08-21T19:00:05.000Z</time>
        <extensions>
          <ns3:TrackPointExtension>
            <ns3:hr>128</ns3:hr>
            <ns3:cad>53</ns3:cad>
          </ns3:TrackPointExtension>
        </extensions>
      </trkpt>
      <trkpt lat="45.3465807996690273284912109375" lon="-70.987126193940639495849609375">
        <ele>643</ele>
        <time>2026-08-21T19:00:06.000Z</time>
        <extensions>
          <ns3:TrackPointExtension>
            <ns3:hr>128</ns3:hr>
            <ns3:cad>53</ns3:cad>
          </ns3:TrackPointExtension>
        </extensions>
      </trkpt>
      <trkpt lat="45.3465851582586765289306640625" lon="-70.98714203573763370513916015625">
        <ele>643.20001220703125</ele>
        <time>2026-08-21T19:00:07.000Z</time>
        <extensions>
          <ns3:TrackPointExtension>
            <ns3:hr>129</ns3:hr>
            <ns3:cad>53</ns3:cad>
          </ns3:TrackPointExtension>
        </extensions>
      </trkpt>
      <trkpt lat="45.34658960066735744476318359375" lon="-70.987158715724945068359375">
        <ele>643.20001220703125</ele>
        <time>2026-08-21T19:00:08.000Z</time>
        <extensions>
          <ns3:TrackPointExtension>
            <ns3:hr>129</ns3:hr>
            <ns3:cad>53</ns3:cad>
          </ns3:TrackPointExtension>
        </extensions>
      </trkpt>
      <trkpt lat="45.34659513272345066070556640625" lon="-70.98717606626451015472412109375">
        <ele>643.4000244140625</ele>
        <time>2026-08-21T19:00:09.000Z</time>
        <extensions>
          <ns3:TrackPointExtension>
            <ns3:hr>130</ns3:hr>
            <ns3:cad>53</ns3:cad>
          </ns3:TrackPointExtension>
        </extensions>
      </trkpt>
      <trkpt lat="45.34659915603697299957275390625" lon="-70.98719182424247264862060546875">
        <ele>643.4000244140625</ele>
        <time>2026-08-21T19:00:10.000Z</time>
        <extensions>
          <ns3:TrackPointExtension>
            <ns3:hr>131</ns3:hr>
            <ns3:cad>53</ns3:cad>
          </ns3:TrackPointExtension>
        </extensions>
      </trkpt>
      <trkpt lat="45.34660644829273223876953125" lon="-70.9872108511626720428466796875">
        <ele>643.5999755859375</ele>
        <time>2026-08-21T19:00:11.000Z</time>
        <extensions>
          <ns3:TrackPointExtension>
            <ns3:hr>131</ns3:hr>
            <ns3:cad>48</ns3:cad>
          </ns3:TrackPointExtension>
        </extensions>
      </trkpt>
      <trkpt lat="45.34661122597754001617431640625" lon="-70.98722954280674457550048828125">
        <ele>643.79998779296875</ele>
        <time>2026-08-21T19:00:12.000Z</time>
        <extensions>
          <ns3:TrackPointExtension>
            <ns3:hr>131</ns3:hr>
            <ns3:cad>48</ns3:cad>
          </ns3:TrackPointExtension>
        </extensions>
      </trkpt>
      <trkpt lat="45.34661239944398403167724609375" lon="-70.98725016228854656219482421875">
        <ele>643.79998779296875</ele>
        <time>2026-08-21T19:00:13.000Z</time>
        <extensions>
          <ns3:TrackPointExtension>
            <ns3:hr>131</ns3:hr>
            <ns3:cad>49</ns3:cad>
          </ns3:TrackPointExtension>
        </extensions>
      </trkpt>
      <trkpt lat="45.3466183505952358245849609375" lon="-70.98726265132427215576171875">
        <ele>644</ele>
        <time>2026-08-21T19:00:14.000Z</time>
        <extensions>
          <ns3:TrackPointExtension>
            <ns3:hr>131</ns3:hr>
            <ns3:cad>49</ns3:cad>
          </ns3:TrackPointExtension>
        </extensions>
      </trkpt>
      <trkpt lat="45.3466210328042507171630859375" lon="-70.987274385988712310791015625">
        <ele>644.20001220703125</ele>
        <time>2026-08-21T19:00:15.000Z</time>
        <extensions>
          <ns3:TrackPointExtension>
            <ns3:hr>131</ns3:hr>
            <ns3:cad>49</ns3:cad>
          </ns3:TrackPointExtension>
        </extensions>
      </trkpt>
      <trkpt lat="45.34662648104131221771240234375" lon="-70.9872889705002307891845703125">
        <ele>644.20001220703125</ele>
        <time>2026-08-21T19:00:16.000Z</time>
        <extensions>
          <ns3:TrackPointExtension>
            <ns3:hr>131</ns3:hr>
            <ns3:cad>49</ns3:cad>
          </ns3:TrackPointExtension>
        </extensions>
      </trkpt>
      <trkpt lat="45.34663000144064426422119140625" lon="-70.987302549183368682861328125">
        <ele>644.20001220703125</ele>
        <time>2026-08-21T19:00:17.000Z</time>
        <extensions>
          <ns3:TrackPointExtension>
            <ns3:hr>132</ns3:hr>
            <ns3:cad>49</ns3:cad>
          </ns3:TrackPointExtension>
        </extensions>
      </trkpt>
      <trkpt lat="45.34663461148738861083984375" lon="-70.98732073791325092315673828125">
        <ele>644.4000244140625</ele>
        <time>2026-08-21T19:00:18.000Z</time>
        <extensions>
          <ns3:TrackPointExtension>
            <ns3:hr>132</ns3:hr>
            <ns3:cad>49</ns3:cad>
          </ns3:TrackPointExtension>
        </extensions>
      </trkpt>
      <trkpt lat="45.34663922153413295745849609375" lon="-70.98733750171959400177001953125">
        <ele>644.4000244140625</ele>
        <time>2026-08-21T19:00:19.000Z</time>
        <extensions>
          <ns3:TrackPointExtension>
            <ns3:hr>132</ns3:hr>
            <ns3:cad>49</ns3:cad>
          </ns3:TrackPointExtension>
        </extensions>
      </trkpt>
      <trkpt lat="45.346645005047321319580078125" lon="-70.9873540140688419342041015625">
        <ele>644.5999755859375</ele>
        <time>2026-08-21T19:00:20.000Z</time>
        <extensions>
          <ns3:TrackPointExtension>
            <ns3:hr>132</ns3:hr>
            <ns3:cad>49</ns3:cad>
          </ns3:TrackPointExtension>
        </extensions>
      </trkpt>
      <trkpt lat="45.346653051674365997314453125" lon="-70.98737203516066074371337890625">
        <ele>644.79998779296875</ele>
        <time>2026-08-21T19:00:21.000Z</time>
        <extensions>
          <ns3:TrackPointExtension>
            <ns3:hr>132</ns3:hr>
            <ns3:cad>49</ns3:cad>
          </ns3:TrackPointExtension>
        </extensions>
      </trkpt>
      <trkpt lat="45.3466599248349666595458984375" lon="-70.98738946951925754547119140625">
        <ele>644.79998779296875</ele>
        <time>2026-08-21T19:00:22.000Z</time>
        <extensions>
          <ns3:TrackPointExtension>
            <ns3:hr>132</ns3:hr>
            <ns3:cad>49</ns3:cad>
          </ns3:TrackPointExtension>
        </extensions>
      </trkpt>
      <trkpt lat="45.3466656245291233062744140625" lon="-70.98740489222109317779541015625">
        <ele>645</ele>
        <time>2026-08-21T19:00:23.000Z</time>
        <extensions>
          <ns3:TrackPointExtension>
            <ns3:hr>131</ns3:hr>
            <ns3:cad>49</ns3:cad>
          </ns3:TrackPointExtension>
        </extensions>
      </trkpt>
      <trkpt lat="45.34666872583329677581787109375" lon="-70.987425930798053741455078125">
        <ele>645.20001220703125</ele>
        <time>2026-08-21T19:00:24.000Z</time>
        <extensions>
          <ns3:TrackPointExtension>
            <ns3:hr>131</ns3:hr>
            <ns3:cad>49</ns3:cad>
          </ns3:TrackPointExtension>
        </extensions>
      </trkpt>
      <trkpt lat="45.346675179898738861083984375" lon="-70.987440012395381927490234375">
        <ele>645.4000244140625</ele>
        <time>2026-08-21T19:00:25.000Z</time>
        <extensions>
          <ns3:TrackPointExtension>
            <ns3:hr>131</ns3:hr>
            <ns3:cad>48</ns3:cad>
          </ns3:TrackPointExtension>
        </extensions>
      </trkpt>
      <trkpt lat="45.34668046049773693084716796875" lon="-70.9874539263546466827392578125">
        <ele>645.4000244140625</ele>
        <time>2026-08-21T19:00:26.000Z</time>
        <extensions>
          <ns3:TrackPointExtension>
            <ns3:hr>131</ns3:hr>
            <ns3:cad>48</ns3:cad>
          </ns3:TrackPointExtension>
        </extensions>
      </trkpt>
      <trkpt lat="45.3466874174773693084716796875" lon="-70.98747077398002147674560546875">
        <ele>645.5999755859375</ele>
        <time>2026-08-21T19:00:27.000Z</time>
        <extensions>
          <ns3:TrackPointExtension>
            <ns3:hr>130</ns3:hr>
            <ns3:cad>48</ns3:cad>
          </ns3:TrackPointExtension>
        </extensions>
      </trkpt>
      <trkpt lat="45.34669185988605022430419921875" lon="-70.98749038763344287872314453125">
        <ele>645.5999755859375</ele>
        <time>2026-08-21T19:00:28.000Z</time>
        <extensions>
          <ns3:TrackPointExtension>
            <ns3:hr>130</ns3:hr>
            <ns3:cad>48</ns3:cad>
          </ns3:TrackPointExtension>
        </extensions>
      </trkpt>
      <trkpt lat="45.3466978110373020172119140625" lon="-70.98750446923077106475830078125">
        <ele>645.79998779296875</ele>
        <time>2026-08-21T19:00:29.000Z</time>
        <extensions>
          <ns3:TrackPointExtension>
            <ns3:hr>130</ns3:hr>
            <ns3:cad>48</ns3:cad>
          </ns3:TrackPointExtension>
        </extensions>
      </trkpt>
      <trkpt lat="45.3466944582760334014892578125" lon="-70.98752106539905071258544921875">
        <ele>646</ele>
        <time>2026-08-21T19:00:30.000Z</time>
        <extensions>
          <ns3:TrackPointExtension>
            <ns3:hr>130</ns3:hr>
            <ns3:cad>47</ns3:cad>
          </ns3:TrackPointExtension>
        </extensions>
      </trkpt>
      <trkpt lat="45.34669722430408000946044921875" lon="-70.98753900267183780670166015625">
        <ele>646.20001220703125</ele>
        <time>2026-08-21T19:00:31.000Z</time>
        <extensions>
          <ns3:TrackPointExtension>
            <ns3:hr>130</ns3:hr>
            <ns3:cad>47</ns3:cad>
          </ns3:TrackPointExtension>
        </extensions>
      </trkpt>
      <trkpt lat="45.346701331436634063720703125" lon="-70.987568758428096771240234375">
        <ele>646.20001220703125</ele>
        <time>2026-08-21T19:00:32.000Z</time>
        <extensions>
          <ns3:TrackPointExtension>
            <ns3:hr>130</ns3:hr>
            <ns3:cad>47</ns3:cad>
          </ns3:TrackPointExtension>
        </extensions>
      </trkpt>
      <trkpt lat="45.3467075340449810028076171875" lon="-70.9875865280628204345703125">
        <ele>646.4000244140625</ele>
        <time>2026-08-21T19:00:33.000Z</time>
        <extensions>
          <ns3:TrackPointExtension>
            <ns3:hr>130</ns3:hr>
            <ns3:cad>50</ns3:cad>
          </ns3:TrackPointExtension>
        </extensions>
      </trkpt>
      <trkpt lat="45.346711389720439910888671875" lon="-70.9876053035259246826171875">
        <ele>646.4000244140625</ele>
        <time>2026-08-21T19:00:34.000Z</time>
        <extensions>
          <ns3:TrackPointExtension>
            <ns3:hr>130</ns3:hr>
            <ns3:cad>50</ns3:cad>
          </ns3:TrackPointExtension>
        </extensions>
      </trkpt>
      <trkpt lat="45.3467169217765331268310546875" lon="-70.9876222349703311920166015625">
        <ele>646.5999755859375</ele>
        <time>2026-08-21T19:00:35.000Z</time>
        <extensions>
          <ns3:TrackPointExtension>
            <ns3:hr>129</ns3:hr>
            <ns3:cad>48</ns3:cad>
          </ns3:TrackPointExtension>
        </extensions>
      </trkpt>
      <trkpt lat="45.34672287292778491973876953125" lon="-70.98763941787183284759521484375">
        <ele>646.5999755859375</ele>
        <time>2026-08-21T19:00:36.000Z</time>
        <extensions>
          <ns3:TrackPointExtension>
            <ns3:hr>129</ns3:hr>
            <ns3:cad>48</ns3:cad>
          </ns3:TrackPointExtension>
        </extensions>
      </trkpt>
      <trkpt lat="45.34673024900257587432861328125" lon="-70.98765551112592220306396484375">
        <ele>646.5999755859375</ele>
        <time>2026-08-21T19:00:37.000Z</time>
        <extensions>
          <ns3:TrackPointExtension>
            <ns3:hr>130</ns3:hr>
            <ns3:cad>48</ns3:cad>
          </ns3:TrackPointExtension>
        </extensions>
      </trkpt>
      <trkpt lat="45.3467346914112567901611328125" lon="-70.987670682370662689208984375">
        <ele>646.79998779296875</ele>
        <time>2026-08-21T19:00:38.000Z</time>
        <extensions>
          <ns3:TrackPointExtension>
            <ns3:hr>131</ns3:hr>
            <ns3:cad>50</ns3:cad>
          </ns3:TrackPointExtension>
        </extensions>
      </trkpt>
      <trkpt lat="45.34673946909606456756591796875" lon="-70.987683422863483428955078125">
        <ele>646.79998779296875</ele>
        <time>2026-08-21T19:00:39.000Z</time>
        <extensions>
          <ns3:TrackPointExtension>
            <ns3:hr>130</ns3:hr>
            <ns3:cad>50</ns3:cad>
          </ns3:TrackPointExtension>
        </extensions>
      </trkpt>
      <trkpt lat="45.3467437438666820526123046875" lon="-70.98769959993660449981689453125">
        <ele>647</ele>
        <time>2026-08-21T19:00:40.000Z</time>
        <extensions>
          <ns3:TrackPointExtension>
            <ns3:hr>129</ns3:hr>
            <ns3:cad>51</ns3:cad>
          </ns3:TrackPointExtension>
        </extensions>
      </trkpt>
      <trkpt lat="45.346746258437633514404296875" lon="-70.9877157770097255706787109375">
        <ele>647</ele>
        <time>2026-08-21T19:00:41.000Z</time>
        <extensions>
          <ns3:TrackPointExtension>
            <ns3:hr>129</ns3:hr>
            <ns3:cad>51</ns3:cad>
          </ns3:TrackPointExtension>
        </extensions>
      </trkpt>
      <trkpt lat="45.34674994647502899169921875" lon="-70.9877311997115612030029296875">
        <ele>647.20001220703125</ele>
        <time>2026-08-21T19:00:42.000Z</time>
        <extensions>
          <ns3:TrackPointExtension>
            <ns3:hr>129</ns3:hr>
            <ns3:cad>50</ns3:cad>
          </ns3:TrackPointExtension>
        </extensions>
      </trkpt>
      <trkpt lat="45.3467554785311222076416015625" lon="-70.98774469457566738128662109375">
        <ele>647.20001220703125</ele>
        <time>2026-08-21T19:00:43.000Z</time>
        <extensions>
          <ns3:TrackPointExtension>
            <ns3:hr>129</ns3:hr>
            <ns3:cad>50</ns3:cad>
          </ns3:TrackPointExtension>
        </extensions>
      </trkpt>
      <trkpt lat="45.34676243551075458526611328125" lon="-70.9877590276300907135009765625">
        <ele>647.4000244140625</ele>
        <time>2026-08-21T19:00:44.000Z</time>
        <extensions>
          <ns3:TrackPointExtension>
            <ns3:hr>128</ns3:hr>
            <ns3:cad>50</ns3:cad>
          </ns3:TrackPointExtension>
        </extensions>
      </trkpt>
      <trkpt lat="45.3467667102813720703125" lon="-70.987775623798370361328125">
        <ele>647.4000244140625</ele>
        <time>2026-08-21T19:00:45.000Z</time>
        <extensions>
          <ns3:TrackPointExtension>
            <ns3:hr>129</ns3:hr>
            <ns3:cad>50</ns3:cad>
          </ns3:TrackPointExtension>
        </extensions>
      </trkpt>
      <trkpt lat="45.34676880575716495513916015625" lon="-70.98779129795730113983154296875">
        <ele>647.5999755859375</ele>
        <time>2026-08-21T19:00:46.000Z</time>
        <extensions>
          <ns3:TrackPointExtension>
            <ns3:hr>128</ns3:hr>
            <ns3:cad>50</ns3:cad>
          </ns3:TrackPointExtension>
        </extensions>
      </trkpt>
      <trkpt lat="45.34677132032811641693115234375" lon="-70.98780672065913677215576171875">
        <ele>647.79998779296875</ele>
        <time>2026-08-21T19:00:47.000Z</time>
        <extensions>
          <ns3:TrackPointExtension>
            <ns3:hr>129</ns3:hr>
            <ns3:cad>50</ns3:cad>
          </ns3:TrackPointExtension>
        </extensions>
      </trkpt>
      <trkpt lat="45.3467769362032413482666015625" lon="-70.987820215523242950439453125">
        <ele>647.79998779296875</ele>
        <time>2026-08-21T19:00:48.000Z</time>
        <extensions>
          <ns3:TrackPointExtension>
            <ns3:hr>129</ns3:hr>
            <ns3:cad>50</ns3:cad>
          </ns3:TrackPointExtension>
        </extensions>
      </trkpt>
      <trkpt lat="45.34678213298320770263671875" lon="-70.9878337942063808441162109375">
        <ele>648</ele>
        <time>2026-08-21T19:00:49.000Z</time>
        <extensions>
          <ns3:TrackPointExtension>
            <ns3:hr>129</ns3:hr>
            <ns3:cad>50</ns3:cad>
          </ns3:TrackPointExtension>
        </extensions>
      </trkpt>
      <trkpt lat="45.34678883850574493408203125" lon="-70.98784946836531162261962890625">
        <ele>648</ele>
        <time>2026-08-21T19:00:50.000Z</time>
        <extensions>
          <ns3:TrackPointExtension>
            <ns3:hr>129</ns3:hr>
            <ns3:cad>48</ns3:cad>
          </ns3:TrackPointExtension>
        </extensions>
      </trkpt>
      <trkpt lat="45.346791185438632965087890625" lon="-70.98786556161940097808837890625">
        <ele>648.20001220703125</ele>
        <time>2026-08-21T19:00:51.000Z</time>
        <extensions>
          <ns3:TrackPointExtension>
            <ns3:hr>129</ns3:hr>
            <ns3:cad>48</ns3:cad>
          </ns3:TrackPointExtension>
        </extensions>
      </trkpt>
      <trkpt lat="45.34679395146667957305908203125" lon="-70.98788199014961719512939453125">
        <ele>648.20001220703125</ele>
        <time>2026-08-21T19:00:52.000Z</time>
        <extensions>
          <ns3:TrackPointExtension>
            <ns3:hr>128</ns3:hr>
            <ns3:cad>48</ns3:cad>
          </ns3:TrackPointExtension>
        </extensions>
      </trkpt>
      <trkpt lat="45.34679529257118701934814453125" lon="-70.9878954850137233734130859375">
        <ele>648.4000244140625</ele>
        <time>2026-08-21T19:00:53.000Z</time>
        <extensions>
          <ns3:TrackPointExtension>
            <ns3:hr>128</ns3:hr>
            <ns3:cad>48</ns3:cad>
          </ns3:TrackPointExtension>
        </extensions>
      </trkpt>
      <trkpt lat="45.34680099226534366607666015625" lon="-70.98791166208684444427490234375">
        <ele>648.5999755859375</ele>
        <time>2026-08-21T19:00:54.000Z</time>
        <extensions>
          <ns3:TrackPointExtension>
            <ns3:hr>128</ns3:hr>
            <ns3:cad>48</ns3:cad>
          </ns3:TrackPointExtension>
        </extensions>
      </trkpt>
      <trkpt lat="45.34680535085499286651611328125" lon="-70.98792792297899723052978515625">
        <ele>648.79998779296875</ele>
        <time>2026-08-21T19:00:55.000Z</time>
        <extensions>
          <ns3:TrackPointExtension>
            <ns3:hr>128</ns3:hr>
            <ns3:cad>48</ns3:cad>
          </ns3:TrackPointExtension>
        </extensions>
      </trkpt>
      <trkpt lat="45.34680669195950031280517578125" lon="-70.9879397414624691009521484375">
        <ele>648.79998779296875</ele>
        <time>2026-08-21T19:00:56.000Z</time>
        <extensions>
          <ns3:TrackPointExtension>
            <ns3:hr>128</ns3:hr>
            <ns3:cad>48</ns3:cad>
          </ns3:TrackPointExtension>
        </extensions>
      </trkpt>
      <trkpt lat="45.34680887125432491302490234375" lon="-70.98795843310654163360595703125">
        <ele>649</ele>
        <time>2026-08-21T19:00:57.000Z</time>
        <extensions>
          <ns3:TrackPointExtension>
            <ns3:hr>127</ns3:hr>
            <ns3:cad>48</ns3:cad>
          </ns3:TrackPointExtension>
        </extensions>
      </trkpt>
      <trkpt lat="45.3468141518533229827880859375" lon="-70.98797536455094814300537109375">
        <ele>649</ele>
        <time>2026-08-21T19:00:58.000Z</time>
        <extensions>
          <ns3:TrackPointExtension>
            <ns3:hr>127</ns3:hr>
            <ns3:cad>48</ns3:cad>
          </ns3:TrackPointExtension>
        </extensions>
      </trkpt>
      <trkpt lat="45.34681859426200389862060546875" lon="-70.9879873506724834442138671875">
        <ele>649.20001220703125</ele>
        <time>2026-08-21T19:00:59.000Z</time>
        <extensions>
          <ns3:TrackPointExtension>
            <ns3:hr>127</ns3:hr>
            <ns3:cad>49</ns3:cad>
          </ns3:TrackPointExtension>
        </extensions>
      </trkpt>
      <trkpt lat="45.34682261757552623748779296875" lon="-70.9879990853369235992431640625">
        <ele>649.4000244140625</ele>
        <time>2026-08-21T19:01:00.000Z</time>
        <extensions>
          <ns3:TrackPointExtension>
            <ns3:hr>127</ns3:hr>
            <ns3:cad>49</ns3:cad>
          </ns3:TrackPointExtension>
        </extensions>
      </trkpt>
      <trkpt lat="45.34682580269873142242431640625" lon="-70.98801543004810810089111328125">
        <ele>649.4000244140625</ele>
        <time>2026-08-21T19:01:01.000Z</time>
        <extensions>
          <ns3:TrackPointExtension>
            <ns3:hr>127</ns3:hr>
            <ns3:cad>49</ns3:cad>
          </ns3:TrackPointExtension>
        </extensions>
      </trkpt>
      <trkpt lat="45.34683133475482463836669921875" lon="-70.9880312718451023101806640625">
        <ele>649.5999755859375</ele>
        <time>2026-08-21T19:01:02.000Z</time>
        <extensions>
          <ns3:TrackPointExtension>
            <ns3:hr>127</ns3:hr>
            <ns3:cad>0</ns3:cad>
          </ns3:TrackPointExtension>
        </extensions>
      </trkpt>
      <trkpt lat="45.34683720208704471588134765625" lon="-70.9880497120320796966552734375">
        <ele>649.79998779296875</ele>
        <time>2026-08-21T19:01:03.000Z</time>
        <extensions>
          <ns3:TrackPointExtension>
            <ns3:hr>128</ns3:hr>
            <ns3:cad>0</ns3:cad>
          </ns3:TrackPointExtension>
        </extensions>
      </trkpt>
      <trkpt lat="45.34684156067669391632080078125" lon="-70.98806639201939105987548828125">
        <ele>649.79998779296875</ele>
        <time>2026-08-21T19:01:04.000Z</time>
        <extensions>
          <ns3:TrackPointExtension>
            <ns3:hr>127</ns3:hr>
            <ns3:cad>0</ns3:cad>
          </ns3:TrackPointExtension>
        </extensions>
      </trkpt>
      <trkpt lat="45.34684658981859683990478515625" lon="-70.98807611502707004547119140625">
        <ele>650</ele>
        <time>2026-08-21T19:01:05.000Z</time>
        <extensions>
          <ns3:TrackPointExtension>
            <ns3:hr>128</ns3:hr>
            <ns3:cad>0</ns3:cad>
          </ns3:TrackPointExtension>
        </extensions>
      </trkpt>
      <trkpt lat="45.34685052931308746337890625" lon="-70.98809086717665195465087890625">
        <ele>650.20001220703125</ele>
        <time>2026-08-21T19:01:06.000Z</time>
        <extensions>
          <ns3:TrackPointExtension>
            <ns3:hr>128</ns3:hr>
            <ns3:cad>0</ns3:cad>
          </ns3:TrackPointExtension>
        </extensions>
      </trkpt>
      <trkpt lat="45.3468560613691806793212890625" lon="-70.98811148665845394134521484375">
        <ele>650.4000244140625</ele>
        <time>2026-08-21T19:01:07.000Z</time>
        <extensions>
          <ns3:TrackPointExtension>
            <ns3:hr>129</ns3:hr>
            <ns3:cad>0</ns3:cad>
          </ns3:TrackPointExtension>
        </extensions>
      </trkpt>
      <trkpt lat="45.34686234779655933380126953125" lon="-70.98812632262706756591796875">
        <ele>650.4000244140625</ele>
        <time>2026-08-21T19:01:08.000Z</time>
        <extensions>
          <ns3:TrackPointExtension>
            <ns3:hr>130</ns3:hr>
            <ns3:cad>0</ns3:cad>
          </ns3:TrackPointExtension>
        </extensions>
      </trkpt>
      <trkpt lat="45.346864275634288787841796875" lon="-70.98814778029918670654296875">
        <ele>650.5999755859375</ele>
        <time>2026-08-21T19:01:09.000Z</time>
        <extensions>
          <ns3:TrackPointExtension>
            <ns3:hr>131</ns3:hr>
            <ns3:cad>49</ns3:cad>
          </ns3:TrackPointExtension>
        </extensions>
      </trkpt>
      <trkpt lat="45.3468674607574939727783203125" lon="-70.988165549933910369873046875">
        <ele>650.5999755859375</ele>
        <time>2026-08-21T19:01:10.000Z</time>
        <extensions>
          <ns3:TrackPointExtension>
            <ns3:hr>132</ns3:hr>
            <ns3:cad>50</ns3:cad>
          </ns3:TrackPointExtension>
        </extensions>
      </trkpt>
      <trkpt lat="45.34687357954680919647216796875" lon="-70.98818239755928516387939453125">
        <ele>650.79998779296875</ele>
        <time>2026-08-21T19:01:11.000Z</time>
        <extensions>
          <ns3:TrackPointExtension>
            <ns3:hr>132</ns3:hr>
            <ns3:cad>50</ns3:cad>
          </ns3:TrackPointExtension>
        </extensions>
      </trkpt>
      <trkpt lat="45.34687844105064868927001953125" lon="-70.98819916136562824249267578125">
        <ele>651</ele>
        <time>2026-08-21T19:01:12.000Z</time>
        <extensions>
          <ns3:TrackPointExtension>
            <ns3:hr>132</ns3:hr>
            <ns3:cad>50</ns3:cad>
          </ns3:TrackPointExtension>
        </extensions>
      </trkpt>
      <trkpt lat="45.34688330255448818206787109375" lon="-70.98821743391454219818115234375">
        <ele>651.20001220703125</ele>
        <time>2026-08-21T19:01:13.000Z</time>
        <extensions>
          <ns3:TrackPointExtension>
            <ns3:hr>132</ns3:hr>
            <ns3:cad>50</ns3:cad>
          </ns3:TrackPointExtension>
        </extensions>
      </trkpt>
      <trkpt lat="45.346889086067676544189453125" lon="-70.98823319189250469207763671875">
        <ele>651.4000244140625</ele>
        <time>2026-08-21T19:01:14.000Z</time>
        <extensions>
          <ns3:TrackPointExtension>
            <ns3:hr>132</ns3:hr>
            <ns3:cad>49</ns3:cad>
          </ns3:TrackPointExtension>
        </extensions>
      </trkpt>
      <trkpt lat="45.3468926064670085906982421875" lon="-70.98825213499367237091064453125">
        <ele>651.4000244140625</ele>
        <time>2026-08-21T19:01:15.000Z</time>
        <extensions>
          <ns3:TrackPointExtension>
            <ns3:hr>132</ns3:hr>
            <ns3:cad>48</ns3:cad>
          </ns3:TrackPointExtension>
        </extensions>
      </trkpt>
      <trkpt lat="45.34689805470407009124755859375" lon="-70.98826722241938114166259765625">
        <ele>651.5999755859375</ele>
        <time>2026-08-21T19:01:16.000Z</time>
        <extensions>
          <ns3:TrackPointExtension>
            <ns3:hr>132</ns3:hr>
            <ns3:cad>48</ns3:cad>
          </ns3:TrackPointExtension>
        </extensions>
      </trkpt>
      <trkpt lat="45.34690258093178272247314453125" lon="-70.98828054964542388916015625">
        <ele>651.79998779296875</ele>
        <time>2026-08-21T19:01:17.000Z</time>
        <extensions>
          <ns3:TrackPointExtension>
            <ns3:hr>133</ns3:hr>
            <ns3:cad>50</ns3:cad>
          </ns3:TrackPointExtension>
        </extensions>
      </trkpt>
      <trkpt lat="45.34690861590206623077392578125" lon="-70.9883001632988452911376953125">
        <ele>652</ele>
        <time>2026-08-21T19:01:18.000Z</time>
        <extensions>
          <ns3:TrackPointExtension>
            <ns3:hr>133</ns3:hr>
            <ns3:cad>50</ns3:cad>
          </ns3:TrackPointExtension>
        </extensions>
      </trkpt>
      <trkpt lat="45.34691481851041316986083984375" lon="-70.9883189387619495391845703125">
        <ele>652.20001220703125</ele>
        <time>2026-08-21T19:01:19.000Z</time>
        <extensions>
          <ns3:TrackPointExtension>
            <ns3:hr>134</ns3:hr>
            <ns3:cad>50</ns3:cad>
          </ns3:TrackPointExtension>
        </extensions>
      </trkpt>
      <trkpt lat="45.34691884182393550872802734375" lon="-70.98833679221570491790771484375">
        <ele>652.4000244140625</ele>
        <time>2026-08-21T19:01:20.000Z</time>
        <extensions>
          <ns3:TrackPointExtension>
            <ns3:hr>134</ns3:hr>
            <ns3:cad>48</ns3:cad>
          </ns3:TrackPointExtension>
        </extensions>
      </trkpt>
      <trkpt lat="45.34692429006099700927734375" lon="-70.9883536398410797119140625">
        <ele>652.5999755859375</ele>
        <time>2026-08-21T19:01:21.000Z</time>
        <extensions>
          <ns3:TrackPointExtension>
            <ns3:hr>134</ns3:hr>
            <ns3:cad>48</ns3:cad>
          </ns3:TrackPointExtension>
        </extensions>
      </trkpt>
      <trkpt lat="45.346928648650646209716796875" lon="-70.98836646415293216705322265625">
        <ele>652.5999755859375</ele>
        <time>2026-08-21T19:01:22.000Z</time>
        <extensions>
          <ns3:TrackPointExtension>
            <ns3:hr>134</ns3:hr>
            <ns3:cad>49</ns3:cad>
          </ns3:TrackPointExtension>
        </extensions>
      </trkpt>
      <trkpt lat="45.3469331748783588409423828125" lon="-70.98838473670184612274169921875">
        <ele>652.79998779296875</ele>
        <time>2026-08-21T19:01:23.000Z</time>
        <extensions>
          <ns3:TrackPointExtension>
            <ns3:hr>134</ns3:hr>
            <ns3:cad>49</ns3:cad>
          </ns3:TrackPointExtension>
        </extensions>
      </trkpt>
      <trkpt lat="45.3469397127628326416015625" lon="-70.9884030930697917938232421875">
        <ele>653</ele>
        <time>2026-08-21T19:01:24.000Z</time>
        <extensions>
          <ns3:TrackPointExtension>
            <ns3:hr>133</ns3:hr>
            <ns3:cad>50</ns3:cad>
          </ns3:TrackPointExtension>
        </extensions>
      </trkpt>
      <trkpt lat="45.34694532863795757293701171875" lon="-70.98841792903840541839599609375">
        <ele>653.20001220703125</ele>
        <time>2026-08-21T19:01:25.000Z</time>
        <extensions>
          <ns3:TrackPointExtension>
            <ns3:hr>134</ns3:hr>
            <ns3:cad>49</ns3:cad>
          </ns3:TrackPointExtension>
        </extensions>
      </trkpt>
      <trkpt lat="45.3469496034085750579833984375" lon="-70.9884376265108585357666015625">
        <ele>653.20001220703125</ele>
        <time>2026-08-21T19:01:26.000Z</time>
        <extensions>
          <ns3:TrackPointExtension>
            <ns3:hr>134</ns3:hr>
            <ns3:cad>49</ns3:cad>
          </ns3:TrackPointExtension>
        </extensions>
      </trkpt>
      <trkpt lat="45.34695446491241455078125" lon="-70.98845011554658412933349609375">
        <ele>653.4000244140625</ele>
        <time>2026-08-21T19:01:27.000Z</time>
        <extensions>
          <ns3:TrackPointExtension>
            <ns3:hr>134</ns3:hr>
            <ns3:cad>48</ns3:cad>
          </ns3:TrackPointExtension>
        </extensions>
      </trkpt>
      <trkpt lat="45.3469596616923809051513671875" lon="-70.98846486769616603851318359375">
        <ele>653.5999755859375</ele>
        <time>2026-08-21T19:01:28.000Z</time>
        <extensions>
          <ns3:TrackPointExtension>
            <ns3:hr>134</ns3:hr>
            <ns3:cad>48</ns3:cad>
          </ns3:TrackPointExtension>
        </extensions>
      </trkpt>
      <trkpt lat="45.34696561284363269805908203125" lon="-70.98848079331219196319580078125">
        <ele>653.79998779296875</ele>
        <time>2026-08-21T19:01:29.000Z</time>
        <extensions>
          <ns3:TrackPointExtension>
            <ns3:hr>134</ns3:hr>
            <ns3:cad>48</ns3:cad>
          </ns3:TrackPointExtension>
        </extensions>
      </trkpt>
      <trkpt lat="45.34697122871875762939453125" lon="-70.98849537782371044158935546875">
        <ele>654</ele>
        <time>2026-08-21T19:01:30.000Z</time>
        <extensions>
          <ns3:TrackPointExtension>
            <ns3:hr>134</ns3:hr>
            <ns3:cad>48</ns3:cad>
          </ns3:TrackPointExtension>
        </extensions>
      </trkpt>
      <trkpt lat="45.34697793424129486083984375" lon="-70.98850878886878490447998046875">
        <ele>654.20001220703125</ele>
        <time>2026-08-21T19:01:31.000Z</time>
        <extensions>
          <ns3:TrackPointExtension>
            <ns3:hr>134</ns3:hr>
            <ns3:cad>47</ns3:cad>
          </ns3:TrackPointExtension>
        </extensions>
      </trkpt>
      <trkpt lat="45.34698103554546833038330078125" lon="-70.98852035589516162872314453125">
        <ele>654.20001220703125</ele>
        <time>2026-08-21T19:01:32.000Z</time>
        <extensions>
          <ns3:TrackPointExtension>
            <ns3:hr>134</ns3:hr>
            <ns3:cad>47</ns3:cad>
          </ns3:TrackPointExtension>
        </extensions>
      </trkpt>
      <trkpt lat="45.34698639996349811553955078125" lon="-70.9885358624160289764404296875">
        <ele>654.4000244140625</ele>
        <time>2026-08-21T19:01:33.000Z</time>
        <extensions>
          <ns3:TrackPointExtension>
            <ns3:hr>134</ns3:hr>
            <ns3:cad>47</ns3:cad>
          </ns3:TrackPointExtension>
        </extensions>
      </trkpt>
      <trkpt lat="45.3469898365437984466552734375" lon="-70.98855254240334033966064453125">
        <ele>654.5999755859375</ele>
        <time>2026-08-21T19:01:34.000Z</time>
        <extensions>
          <ns3:TrackPointExtension>
            <ns3:hr>134</ns3:hr>
            <ns3:cad>47</ns3:cad>
          </ns3:TrackPointExtension>
        </extensions>
      </trkpt>
      <trkpt lat="45.3469921834766864776611328125" lon="-70.98856695927679538726806640625">
        <ele>654.79998779296875</ele>
        <time>2026-08-21T19:01:35.000Z</time>
        <extensions>
          <ns3:TrackPointExtension>
            <ns3:hr>134</ns3:hr>
            <ns3:cad>47</ns3:cad>
          </ns3:TrackPointExtension>
        </extensions>
      </trkpt>
      <trkpt lat="45.346995703876018524169921875" lon="-70.98857802338898181915283203125">
        <ele>655</ele>
        <time>2026-08-21T19:01:36.000Z</time>
        <extensions>
          <ns3:TrackPointExtension>
            <ns3:hr>134</ns3:hr>
            <ns3:cad>46</ns3:cad>
          </ns3:TrackPointExtension>
        </extensions>
      </trkpt>
      <trkpt lat="45.34700081683695316314697265625" lon="-70.98859210498631000518798828125">
        <ele>655.20001220703125</ele>
        <time>2026-08-21T19:01:37.000Z</time>
        <extensions>
          <ns3:TrackPointExtension>
            <ns3:hr>134</ns3:hr>
            <ns3:cad>46</ns3:cad>
          </ns3:TrackPointExtension>
        </extensions>
      </trkpt>
      <trkpt lat="45.34700743854045867919921875" lon="-70.98860853351652622222900390625">
        <ele>655.4000244140625</ele>
        <time>2026-08-21T19:01:38.000Z</time>
        <extensions>
          <ns3:TrackPointExtension>
            <ns3:hr>135</ns3:hr>
            <ns3:cad>46</ns3:cad>
          </ns3:TrackPointExtension>
        </extensions>
      </trkpt>
      <trkpt lat="45.34701221622526645660400390625" lon="-70.9886223636567592620849609375">
        <ele>655.4000244140625</ele>
        <time>2026-08-21T19:01:39.000Z</time>
        <extensions>
          <ns3:TrackPointExtension>
            <ns3:hr>136</ns3:hr>
            <ns3:cad>47</ns3:cad>
          </ns3:TrackPointExtension>
        </extensions>
      </trkpt>
      <trkpt lat="45.347020514309406280517578125" lon="-70.98863066174089908599853515625">
        <ele>655.5999755859375</ele>
        <time>2026-08-21T19:01:40.000Z</time>
        <extensions>
          <ns3:TrackPointExtension>
            <ns3:hr>137</ns3:hr>
            <ns3:cad>47</ns3:cad>
          </ns3:TrackPointExtension>
        </extensions>
      </trkpt>
      <trkpt lat="45.34702981822192668914794921875" lon="-70.98864021711051464080810546875">
        <ele>655.79998779296875</ele>
        <time>2026-08-21T19:01:41.000Z</time>
        <extensions>
          <ns3:TrackPointExtension>
            <ns3:hr>137</ns3:hr>
            <ns3:cad>47</ns3:cad>
          </ns3:TrackPointExtension>
        </extensions>
      </trkpt>
      <trkpt lat="45.34703417681157588958740234375" lon="-70.9886585734784603118896484375">
        <ele>656</ele>
        <time>2026-08-21T19:01:42.000Z</time>
        <extensions>
          <ns3:TrackPointExtension>
            <ns3:hr>137</ns3:hr>
            <ns3:cad>46</ns3:cad>
          </ns3:TrackPointExtension>
        </extensions>
      </trkpt>
      <trkpt lat="45.3470418043434619903564453125" lon="-70.9886766783893108367919921875">
        <ele>656</ele>
        <time>2026-08-21T19:01:43.000Z</time>
        <extensions>
          <ns3:TrackPointExtension>
            <ns3:hr>137</ns3:hr>
            <ns3:cad>46</ns3:cad>
          </ns3:TrackPointExtension>
        </extensions>
      </trkpt>
      <trkpt lat="45.34704775549471378326416015625" lon="-70.98869629204273223876953125">
        <ele>656.20001220703125</ele>
        <time>2026-08-21T19:01:44.000Z</time>
        <extensions>
          <ns3:TrackPointExtension>
            <ns3:hr>137</ns3:hr>
            <ns3:cad>47</ns3:cad>
          </ns3:TrackPointExtension>
        </extensions>
      </trkpt>
      <trkpt lat="45.34705412574112415313720703125" lon="-70.988712720572948455810546875">
        <ele>656.4000244140625</ele>
        <time>2026-08-21T19:01:45.000Z</time>
        <extensions>
          <ns3:TrackPointExtension>
            <ns3:hr>137</ns3:hr>
            <ns3:cad>47</ns3:cad>
          </ns3:TrackPointExtension>
        </extensions>
      </trkpt>
      <trkpt lat="45.34705932252109050750732421875" lon="-70.98872671835124492645263671875">
        <ele>656.5999755859375</ele>
        <time>2026-08-21T19:01:46.000Z</time>
        <extensions>
          <ns3:TrackPointExtension>
            <ns3:hr>137</ns3:hr>
            <ns3:cad>48</ns3:cad>
          </ns3:TrackPointExtension>
        </extensions>
      </trkpt>
      <trkpt lat="45.34706242382526397705078125" lon="-70.98874063231050968170166015625">
        <ele>656.79998779296875</ele>
        <time>2026-08-21T19:01:47.000Z</time>
        <extensions>
          <ns3:TrackPointExtension>
            <ns3:hr>136</ns3:hr>
            <ns3:cad>48</ns3:cad>
          </ns3:TrackPointExtension>
        </extensions>
      </trkpt>
      <trkpt lat="45.3470692969858646392822265625" lon="-70.9887584857642650604248046875">
        <ele>656.79998779296875</ele>
        <time>2026-08-21T19:01:48.000Z</time>
        <extensions>
          <ns3:TrackPointExtension>
            <ns3:hr>136</ns3:hr>
            <ns3:cad>48</ns3:cad>
          </ns3:TrackPointExtension>
        </extensions>
      </trkpt>
      <trkpt lat="45.3470726497471332550048828125" lon="-70.98877700977027416229248046875">
        <ele>657.20001220703125</ele>
        <time>2026-08-21T19:01:49.000Z</time>
        <extensions>
          <ns3:TrackPointExtension>
            <ns3:hr>136</ns3:hr>
            <ns3:cad>47</ns3:cad>
          </ns3:TrackPointExtension>
        </extensions>
      </trkpt>
      <trkpt lat="45.34707927145063877105712890625" lon="-70.98879016935825347900390625">
        <ele>657.20001220703125</ele>
        <time>2026-08-21T19:01:50.000Z</time>
        <extensions>
          <ns3:TrackPointExtension>
            <ns3:hr>137</ns3:hr>
            <ns3:cad>47</ns3:cad>
          </ns3:TrackPointExtension>
        </extensions>
      </trkpt>
      <trkpt lat="45.34708748571574687957763671875" lon="-70.988799221813678741455078125">
        <ele>657.4000244140625</ele>
        <time>2026-08-21T19:01:51.000Z</time>
        <extensions>
          <ns3:TrackPointExtension>
            <ns3:hr>137</ns3:hr>
            <ns3:cad>48</ns3:cad>
          </ns3:TrackPointExtension>
        </extensions>
      </trkpt>
      <trkpt lat="45.3470954485237598419189453125" lon="-70.9888094477355480194091796875">
        <ele>657.5999755859375</ele>
        <time>2026-08-21T19:01:52.000Z</time>
        <extensions>
          <ns3:TrackPointExtension>
            <ns3:hr>137</ns3:hr>
            <ns3:cad>48</ns3:cad>
          </ns3:TrackPointExtension>
        </extensions>
      </trkpt>
      <trkpt lat="45.3471024893224239349365234375" lon="-70.98882160149514675140380859375">
        <ele>657.79998779296875</ele>
        <time>2026-08-21T19:01:53.000Z</time>
        <extensions>
          <ns3:TrackPointExtension>
            <ns3:hr>138</ns3:hr>
            <ns3:cad>48</ns3:cad>
          </ns3:TrackPointExtension>
        </extensions>
      </trkpt>
      <trkpt lat="45.34711045213043689727783203125" lon="-70.9888359345495700836181640625">
        <ele>657.79998779296875</ele>
        <time>2026-08-21T19:01:54.000Z</time>
        <extensions>
          <ns3:TrackPointExtension>
            <ns3:hr>138</ns3:hr>
            <ns3:cad>48</ns3:cad>
          </ns3:TrackPointExtension>
        </extensions>
      </trkpt>
      <trkpt lat="45.34711162559688091278076171875" lon="-70.98885462619364261627197265625">
        <ele>658</ele>
        <time>2026-08-21T19:01:55.000Z</time>
        <extensions>
          <ns3:TrackPointExtension>
            <ns3:hr>137</ns3:hr>
            <ns3:cad>48</ns3:cad>
          </ns3:TrackPointExtension>
        </extensions>
      </trkpt>
      <trkpt lat="45.3471155650913715362548828125" lon="-70.98886937834322452545166015625">
        <ele>658.20001220703125</ele>
        <time>2026-08-21T19:01:56.000Z</time>
        <extensions>
          <ns3:TrackPointExtension>
            <ns3:hr>137</ns3:hr>
            <ns3:cad>49</ns3:cad>
          </ns3:TrackPointExtension>
        </extensions>
      </trkpt>
      <trkpt lat="45.34712143242359161376953125" lon="-70.988881699740886688232421875">
        <ele>658.4000244140625</ele>
        <time>2026-08-21T19:01:57.000Z</time>
        <extensions>
          <ns3:TrackPointExtension>
            <ns3:hr>136</ns3:hr>
            <ns3:cad>49</ns3:cad>
          </ns3:TrackPointExtension>
        </extensions>
      </trkpt>
      <trkpt lat="45.34712403081357479095458984375" lon="-70.98889804445207118988037109375">
        <ele>658.4000244140625</ele>
        <time>2026-08-21T19:01:58.000Z</time>
        <extensions>
          <ns3:TrackPointExtension>
            <ns3:hr>136</ns3:hr>
            <ns3:cad>49</ns3:cad>
          </ns3:TrackPointExtension>
        </extensions>
      </trkpt>
      <trkpt lat="45.34712956286966800689697265625" lon="-70.98891614936292171478271484375">
        <ele>658.5999755859375</ele>
        <time>2026-08-21T19:01:59.000Z</time>
        <extensions>
          <ns3:TrackPointExtension>
            <ns3:hr>137</ns3:hr>
            <ns3:cad>50</ns3:cad>
          </ns3:TrackPointExtension>
        </extensions>
      </trkpt>
      <trkpt lat="45.3471363522112369537353515625" lon="-70.98892905749380588531494140625">
        <ele>658.79998779296875</ele>
        <time>2026-08-21T19:02:00.000Z</time>
        <extensions>
          <ns3:TrackPointExtension>
            <ns3:hr>137</ns3:hr>
            <ns3:cad>50</ns3:cad>
          </ns3:TrackPointExtension>
        </extensions>
      </trkpt>
      <trkpt lat="45.34714481793344020843505859375" lon="-70.98893995396792888641357421875">
        <ele>658.79998779296875</ele>
        <time>2026-08-21T19:02:01.000Z</time>
        <extensions>
          <ns3:TrackPointExtension>
            <ns3:hr>137</ns3:hr>
            <ns3:cad>50</ns3:cad>
          </ns3:TrackPointExtension>
        </extensions>
      </trkpt>
      <trkpt lat="45.3471517749130725860595703125" lon="-70.98895001225173473358154296875">
        <ele>659</ele>
        <time>2026-08-21T19:02:02.000Z</time>
        <extensions>
          <ns3:TrackPointExtension>
            <ns3:hr>138</ns3:hr>
            <ns3:cad>48</ns3:cad>
          </ns3:TrackPointExtension>
        </extensions>
      </trkpt>
      <trkpt lat="45.3471598215401172637939453125" lon="-70.98896409384906291961669921875">
        <ele>659</ele>
        <time>2026-08-21T19:02:03.000Z</time>
        <extensions>
          <ns3:TrackPointExtension>
            <ns3:hr>138</ns3:hr>
            <ns3:cad>48</ns3:cad>
          </ns3:TrackPointExtension>
        </extensions>
      </trkpt>
      <trkpt lat="45.34716795198619365692138671875" lon="-70.98897951655089855194091796875">
        <ele>659.20001220703125</ele>
        <time>2026-08-21T19:02:04.000Z</time>
        <extensions>
          <ns3:TrackPointExtension>
            <ns3:hr>138</ns3:hr>
            <ns3:cad>47</ns3:cad>
          </ns3:TrackPointExtension>
        </extensions>
      </trkpt>
      <trkpt lat="45.347170718014240264892578125" lon="-70.9889965318143367767333984375">
        <ele>659.4000244140625</ele>
        <time>2026-08-21T19:02:05.000Z</time>
        <extensions>
          <ns3:TrackPointExtension>
            <ns3:hr>138</ns3:hr>
            <ns3:cad>47</ns3:cad>
          </ns3:TrackPointExtension>
        </extensions>
      </trkpt>
      <trkpt lat="45.347175411880016326904296875" lon="-70.98901622928678989410400390625">
        <ele>659.4000244140625</ele>
        <time>2026-08-21T19:02:06.000Z</time>
        <extensions>
          <ns3:TrackPointExtension>
            <ns3:hr>138</ns3:hr>
            <ns3:cad>48</ns3:cad>
          </ns3:TrackPointExtension>
        </extensions>
      </trkpt>
      <trkpt lat="45.34718203358352184295654296875" lon="-70.98902544938027858734130859375">
        <ele>659.5999755859375</ele>
        <time>2026-08-21T19:02:07.000Z</time>
        <extensions>
          <ns3:TrackPointExtension>
            <ns3:hr>139</ns3:hr>
            <ns3:cad>48</ns3:cad>
          </ns3:TrackPointExtension>
        </extensions>
      </trkpt>
      <trkpt lat="45.347188822925090789794921875" lon="-70.98903534002602100372314453125">
        <ele>659.79998779296875</ele>
        <time>2026-08-21T19:02:08.000Z</time>
        <extensions>
          <ns3:TrackPointExtension>
            <ns3:hr>138</ns3:hr>
            <ns3:cad>48</ns3:cad>
          </ns3:TrackPointExtension>
        </extensions>
      </trkpt>
      <trkpt lat="45.347194857895374298095703125" lon="-70.98904925398528575897216796875">
        <ele>660</ele>
        <time>2026-08-21T19:02:09.000Z</time>
        <extensions>
          <ns3:TrackPointExtension>
            <ns3:hr>138</ns3:hr>
            <ns3:cad>49</ns3:cad>
          </ns3:TrackPointExtension>
        </extensions>
      </trkpt>
      <trkpt lat="45.3472054190933704376220703125" lon="-70.98906551487743854522705078125">
        <ele>660</ele>
        <time>2026-08-21T19:02:10.000Z</time>
        <extensions>
          <ns3:TrackPointExtension>
            <ns3:hr>138</ns3:hr>
            <ns3:cad>49</ns3:cad>
          </ns3:TrackPointExtension>
        </extensions>
      </trkpt>
      <trkpt lat="45.347206592559814453125" lon="-70.9890813566744327545166015625">
        <ele>660.20001220703125</ele>
        <time>2026-08-21T19:02:11.000Z</time>
        <extensions>
          <ns3:TrackPointExtension>
            <ns3:hr>139</ns3:hr>
            <ns3:cad>49</ns3:cad>
          </ns3:TrackPointExtension>
        </extensions>
      </trkpt>
      <trkpt lat="45.347211621701717376708984375" lon="-70.98909351043403148651123046875">
        <ele>660.4000244140625</ele>
        <time>2026-08-21T19:02:12.000Z</time>
        <extensions>
          <ns3:TrackPointExtension>
            <ns3:hr>137</ns3:hr>
            <ns3:cad>49</ns3:cad>
          </ns3:TrackPointExtension>
        </extensions>
      </trkpt>
      <trkpt lat="45.34721656702458858489990234375" lon="-70.989109687507152557373046875">
        <ele>660.5999755859375</ele>
        <time>2026-08-21T19:02:13.000Z</time>
        <extensions>
          <ns3:TrackPointExtension>
            <ns3:hr>137</ns3:hr>
            <ns3:cad>48</ns3:cad>
          </ns3:TrackPointExtension>
        </extensions>
      </trkpt>
      <trkpt lat="45.3472245298326015472412109375" lon="-70.989125110208988189697265625">
        <ele>660.5999755859375</ele>
        <time>2026-08-21T19:02:14.000Z</time>
        <extensions>
          <ns3:TrackPointExtension>
            <ns3:hr>137</ns3:hr>
            <ns3:cad>48</ns3:cad>
          </ns3:TrackPointExtension>
        </extensions>
      </trkpt>
      <trkpt lat="45.34723115153610706329345703125" lon="-70.98913424648344516754150390625">
        <ele>660.79998779296875</ele>
        <time>2026-08-21T19:02:15.000Z</time>
        <extensions>
          <ns3:TrackPointExtension>
            <ns3:hr>137</ns3:hr>
            <ns3:cad>48</ns3:cad>
          </ns3:TrackPointExtension>
        </extensions>
      </trkpt>
      <trkpt lat="45.3472376056015491485595703125" lon="-70.98914648406207561492919921875">
        <ele>660.79998779296875</ele>
        <time>2026-08-21T19:02:16.000Z</time>
        <extensions>
          <ns3:TrackPointExtension>
            <ns3:hr>137</ns3:hr>
            <ns3:cad>47</ns3:cad>
          </ns3:TrackPointExtension>
        </extensions>
      </trkpt>
      <trkpt lat="45.3472449816763401031494140625" lon="-70.98915670998394489288330078125">
        <ele>661</ele>
        <time>2026-08-21T19:02:17.000Z</time>
        <extensions>
          <ns3:TrackPointExtension>
            <ns3:hr>138</ns3:hr>
            <ns3:cad>47</ns3:cad>
          </ns3:TrackPointExtension>
        </extensions>
      </trkpt>
      <trkpt lat="45.3472533635795116424560546875" lon="-70.98916961811482906341552734375">
        <ele>661.20001220703125</ele>
        <time>2026-08-21T19:02:18.000Z</time>
        <extensions>
          <ns3:TrackPointExtension>
            <ns3:hr>138</ns3:hr>
            <ns3:cad>45</ns3:cad>
          </ns3:TrackPointExtension>
        </extensions>
      </trkpt>
      <trkpt lat="45.34725730307400226593017578125" lon="-70.9891849569976329803466796875">
        <ele>661.20001220703125</ele>
        <time>2026-08-21T19:02:19.000Z</time>
        <extensions>
          <ns3:TrackPointExtension>
            <ns3:hr>138</ns3:hr>
            <ns3:cad>43</ns3:cad>
          </ns3:TrackPointExtension>
        </extensions>
      </trkpt>
      <trkpt lat="45.3472647629678249359130859375" lon="-70.98919811658561229705810546875">
        <ele>661.4000244140625</ele>
        <time>2026-08-21T19:02:20.000Z</time>
        <extensions>
          <ns3:TrackPointExtension>
            <ns3:hr>138</ns3:hr>
            <ns3:cad>43</ns3:cad>
          </ns3:TrackPointExtension>
        </extensions>
      </trkpt>
      <trkpt lat="45.3472718037664890289306640625" lon="-70.98920633085072040557861328125">
        <ele>661.4000244140625</ele>
        <time>2026-08-21T19:02:21.000Z</time>
        <extensions>
          <ns3:TrackPointExtension>
            <ns3:hr>138</ns3:hr>
            <ns3:cad>43</ns3:cad>
          </ns3:TrackPointExtension>
        </extensions>
      </trkpt>
      <trkpt lat="45.347284041345119476318359375" lon="-70.98921504803001880645751953125">
        <ele>661.5999755859375</ele>
        <time>2026-08-21T19:02:22.000Z</time>
        <extensions>
          <ns3:TrackPointExtension>
            <ns3:hr>138</ns3:hr>
            <ns3:cad>43</ns3:cad>
          </ns3:TrackPointExtension>
        </extensions>
      </trkpt>
      <trkpt lat="45.34729418344795703887939453125" lon="-70.98921974189579486846923828125">
        <ele>661.5999755859375</ele>
        <time>2026-08-21T19:02:23.000Z</time>
        <extensions>
          <ns3:TrackPointExtension>
            <ns3:hr>139</ns3:hr>
            <ns3:cad>45</ns3:cad>
          </ns3:TrackPointExtension>
        </extensions>
      </trkpt>
      <trkpt lat="45.347306840121746063232421875" lon="-70.98922896198928356170654296875">
        <ele>661.79998779296875</ele>
        <time>2026-08-21T19:02:24.000Z</time>
        <extensions>
          <ns3:TrackPointExtension>
            <ns3:hr>141</ns3:hr>
            <ns3:cad>45</ns3:cad>
          </ns3:TrackPointExtension>
        </extensions>
      </trkpt>
      <trkpt lat="45.347318910062313079833984375" lon="-70.98923566751182079315185546875">
        <ele>661.79998779296875</ele>
        <time>2026-08-21T19:02:25.000Z</time>
        <extensions>
          <ns3:TrackPointExtension>
            <ns3:hr>141</ns3:hr>
            <ns3:cad>45</ns3:cad>
          </ns3:TrackPointExtension>
        </extensions>
      </trkpt>
      <trkpt lat="45.34732569940388202667236328125" lon="-70.9892412833869457244873046875">
        <ele>662</ele>
        <time>2026-08-21T19:02:26.000Z</time>
        <extensions>
          <ns3:TrackPointExtension>
            <ns3:hr>142</ns3:hr>
            <ns3:cad>46</ns3:cad>
          </ns3:TrackPointExtension>
        </extensions>
      </trkpt>
      <trkpt lat="45.34733843989670276641845703125" lon="-70.9892479889094829559326171875">
        <ele>662</ele>
        <time>2026-08-21T19:02:27.000Z</time>
        <extensions>
          <ns3:TrackPointExtension>
            <ns3:hr>143</ns3:hr>
            <ns3:cad>46</ns3:cad>
          </ns3:TrackPointExtension>
        </extensions>
      </trkpt>
      <trkpt lat="45.34734916873276233673095703125" lon="-70.98925578407943248748779296875">
        <ele>662.20001220703125</ele>
        <time>2026-08-21T19:02:28.000Z</time>
        <extensions>
          <ns3:TrackPointExtension>
            <ns3:hr>141</ns3:hr>
            <ns3:cad>46</ns3:cad>
          </ns3:TrackPointExtension>
        </extensions>
      </trkpt>
      <trkpt lat="45.3473608195781707763671875" lon="-70.9892634116113185882568359375">
        <ele>662.20001220703125</ele>
        <time>2026-08-21T19:02:29.000Z</time>
        <extensions>
          <ns3:TrackPointExtension>
            <ns3:hr>139</ns3:hr>
            <ns3:cad>46</ns3:cad>
          </ns3:TrackPointExtension>
        </extensions>
      </trkpt>
      <trkpt lat="45.34737783484160900115966796875" lon="-70.98926818929612636566162109375">
        <ele>662.4000244140625</ele>
        <time>2026-08-21T19:02:30.000Z</time>
        <extensions>
          <ns3:TrackPointExtension>
            <ns3:hr>138</ns3:hr>
            <ns3:cad>46</ns3:cad>
          </ns3:TrackPointExtension>
        </extensions>
      </trkpt>
      <trkpt lat="45.3473904915153980255126953125" lon="-70.98927422426640987396240234375">
        <ele>662.4000244140625</ele>
        <time>2026-08-21T19:02:31.000Z</time>
        <extensions>
          <ns3:TrackPointExtension>
            <ns3:hr>137</ns3:hr>
            <ns3:cad>50</ns3:cad>
          </ns3:TrackPointExtension>
        </extensions>
      </trkpt>
      <trkpt lat="45.347403399646282196044921875" lon="-70.989275984466075897216796875">
        <ele>662.4000244140625</ele>
        <time>2026-08-21T19:02:32.000Z</time>
        <extensions>
          <ns3:TrackPointExtension>
            <ns3:hr>136</ns3:hr>
            <ns3:cad>50</ns3:cad>
          </ns3:TrackPointExtension>
        </extensions>
      </trkpt>
      <trkpt lat="45.347418822348117828369140625" lon="-70.9892721287906169891357421875">
        <ele>662.4000244140625</ele>
        <time>2026-08-21T19:02:33.000Z</time>
        <extensions>
          <ns3:TrackPointExtension>
            <ns3:hr>135</ns3:hr>
            <ns3:cad>50</ns3:cad>
          </ns3:TrackPointExtension>
        </extensions>
      </trkpt>
      <trkpt lat="45.347430892288684844970703125" lon="-70.98926601000130176544189453125">
        <ele>662.4000244140625</ele>
        <time>2026-08-21T19:02:34.000Z</time>
        <extensions>
          <ns3:TrackPointExtension>
            <ns3:hr>134</ns3:hr>
            <ns3:cad>50</ns3:cad>
          </ns3:TrackPointExtension>
        </extensions>
      </trkpt>
      <trkpt lat="45.34744589589536190032958984375" lon="-70.98926852457225322723388671875">
        <ele>662.4000244140625</ele>
        <time>2026-08-21T19:02:35.000Z</time>
        <extensions>
          <ns3:TrackPointExtension>
            <ns3:hr>134</ns3:hr>
            <ns3:cad>50</ns3:cad>
          </ns3:TrackPointExtension>
        </extensions>
      </trkpt>
      <trkpt lat="45.34745461307466030120849609375" lon="-70.98927975632250308990478515625">
        <ele>662.4000244140625</ele>
        <time>2026-08-21T19:02:36.000Z</time>
        <extensions>
          <ns3:TrackPointExtension>
            <ns3:hr>134</ns3:hr>
            <ns3:cad>51</ns3:cad>
          </ns3:TrackPointExtension>
        </extensions>
      </trkpt>
      <trkpt lat="45.3474615700542926788330078125" lon="-70.989301465451717376708984375">
        <ele>662.20001220703125</ele>
        <time>2026-08-21T19:02:37.000Z</time>
        <extensions>
          <ns3:TrackPointExtension>
            <ns3:hr>134</ns3:hr>
            <ns3:cad>51</ns3:cad>
          </ns3:TrackPointExtension>
        </extensions>
      </trkpt>
      <trkpt lat="45.34747171215713024139404296875" lon="-70.98931546323001384735107421875">
        <ele>662.4000244140625</ele>
        <time>2026-08-21T19:02:38.000Z</time>
        <extensions>
          <ns3:TrackPointExtension>
            <ns3:hr>133</ns3:hr>
            <ns3:cad>49</ns3:cad>
          </ns3:TrackPointExtension>
        </extensions>
      </trkpt>
      <trkpt lat="45.34747875295579433441162109375" lon="-70.989325605332851409912109375">
        <ele>662.4000244140625</ele>
        <time>2026-08-21T19:02:39.000Z</time>
        <extensions>
          <ns3:TrackPointExtension>
            <ns3:hr>132</ns3:hr>
            <ns3:cad>49</ns3:cad>
          </ns3:TrackPointExtension>
        </extensions>
      </trkpt>
      <trkpt lat="45.3474830277264118194580078125" lon="-70.98933222703635692596435546875">
        <ele>662.5999755859375</ele>
        <time>2026-08-21T19:02:40.000Z</time>
        <extensions>
          <ns3:TrackPointExtension>
            <ns3:hr>132</ns3:hr>
            <ns3:cad>49</ns3:cad>
          </ns3:TrackPointExtension>
        </extensions>
      </trkpt>
      <trkpt lat="45.3474847041070461273193359375" lon="-70.98934329114854335784912109375">
        <ele>662.79998779296875</ele>
        <time>2026-08-21T19:02:41.000Z</time>
        <extensions>
          <ns3:TrackPointExtension>
            <ns3:hr>132</ns3:hr>
            <ns3:cad>53</ns3:cad>
          </ns3:TrackPointExtension>
        </extensions>
      </trkpt>
      <trkpt lat="45.3474877215921878814697265625" lon="-70.98935209214687347412109375">
        <ele>663</ele>
        <time>2026-08-21T19:02:42.000Z</time>
        <extensions>
          <ns3:TrackPointExtension>
            <ns3:hr>132</ns3:hr>
            <ns3:cad>53</ns3:cad>
          </ns3:TrackPointExtension>
        </extensions>
      </trkpt>
      <trkpt lat="45.34749316982924938201904296875" lon="-70.9893648326396942138671875">
        <ele>663.4000244140625</ele>
        <time>2026-08-21T19:02:43.000Z</time>
        <extensions>
          <ns3:TrackPointExtension>
            <ns3:hr>132</ns3:hr>
            <ns3:cad>53</ns3:cad>
          </ns3:TrackPointExtension>
        </extensions>
      </trkpt>
      <trkpt lat="45.34750104881823062896728515625" lon="-70.9893727116286754608154296875">
        <ele>663.5999755859375</ele>
        <time>2026-08-21T19:02:44.000Z</time>
        <extensions>
          <ns3:TrackPointExtension>
            <ns3:hr>132</ns3:hr>
            <ns3:cad>47</ns3:cad>
          </ns3:TrackPointExtension>
        </extensions>
      </trkpt>
      <trkpt lat="45.347506999969482421875" lon="-70.98938285373151302337646484375">
        <ele>663.79998779296875</ele>
        <time>2026-08-21T19:02:45.000Z</time>
        <extensions>
          <ns3:TrackPointExtension>
            <ns3:hr>131</ns3:hr>
            <ns3:cad>47</ns3:cad>
          </ns3:TrackPointExtension>
        </extensions>
      </trkpt>
      <trkpt lat="45.34751529805362224578857421875" lon="-70.9893918223679065704345703125">
        <ele>664</ele>
        <time>2026-08-21T19:02:46.000Z</time>
        <extensions>
          <ns3:TrackPointExtension>
            <ns3:hr>131</ns3:hr>
            <ns3:cad>47</ns3:cad>
          </ns3:TrackPointExtension>
        </extensions>
      </trkpt>
      <trkpt lat="45.34752108156681060791015625" lon="-70.9894018806517124176025390625">
        <ele>664</ele>
        <time>2026-08-21T19:02:47.000Z</time>
        <extensions>
          <ns3:TrackPointExtension>
            <ns3:hr>131</ns3:hr>
            <ns3:cad>47</ns3:cad>
          </ns3:TrackPointExtension>
        </extensions>
      </trkpt>
      <trkpt lat="45.34752317704260349273681640625" lon="-70.9894065745174884796142578125">
        <ele>664.20001220703125</ele>
        <time>2026-08-21T19:02:48.000Z</time>
        <extensions>
          <ns3:TrackPointExtension>
            <ns3:hr>132</ns3:hr>
            <ns3:cad>45</ns3:cad>
          </ns3:TrackPointExtension>
        </extensions>
      </trkpt>
      <trkpt lat="45.347525440156459808349609375" lon="-70.9894183091819286346435546875">
        <ele>664.20001220703125</ele>
        <time>2026-08-21T19:02:49.000Z</time>
        <extensions>
          <ns3:TrackPointExtension>
            <ns3:hr>133</ns3:hr>
            <ns3:cad>45</ns3:cad>
          </ns3:TrackPointExtension>
        </extensions>
      </trkpt>
      <trkpt lat="45.347531475126743316650390625" lon="-70.9894313849508762359619140625">
        <ele>664.4000244140625</ele>
        <time>2026-08-21T19:02:50.000Z</time>
        <extensions>
          <ns3:TrackPointExtension>
            <ns3:hr>134</ns3:hr>
            <ns3:cad>45</ns3:cad>
          </ns3:TrackPointExtension>
        </extensions>
      </trkpt>
      <trkpt lat="45.34753792919218540191650390625" lon="-70.9894377551972866058349609375">
        <ele>664.4000244140625</ele>
        <time>2026-08-21T19:02:51.000Z</time>
        <extensions>
          <ns3:TrackPointExtension>
            <ns3:hr>134</ns3:hr>
            <ns3:cad>42</ns3:cad>
          </ns3:TrackPointExtension>
        </extensions>
      </trkpt>
      <trkpt lat="45.3475383482873439788818359375" lon="-70.989446975290775299072265625">
        <ele>664.5999755859375</ele>
        <time>2026-08-21T19:02:52.000Z</time>
        <extensions>
          <ns3:TrackPointExtension>
            <ns3:hr>132</ns3:hr>
            <ns3:cad>42</ns3:cad>
          </ns3:TrackPointExtension>
        </extensions>
      </trkpt>
      <trkpt lat="45.34753851592540740966796875" lon="-70.9894625656306743621826171875">
        <ele>664.79998779296875</ele>
        <time>2026-08-21T19:02:53.000Z</time>
        <extensions>
          <ns3:TrackPointExtension>
            <ns3:hr>131</ns3:hr>
            <ns3:cad>43</ns3:cad>
          </ns3:TrackPointExtension>
        </extensions>
      </trkpt>
      <trkpt lat="45.34754681400954723358154296875" lon="-70.9894840233027935028076171875">
        <ele>665</ele>
        <time>2026-08-21T19:02:54.000Z</time>
        <extensions>
          <ns3:TrackPointExtension>
            <ns3:hr>130</ns3:hr>
            <ns3:cad>43</ns3:cad>
          </ns3:TrackPointExtension>
        </extensions>
      </trkpt>
      <trkpt lat="45.34755972214043140411376953125" lon="-70.98948813043534755706787109375">
        <ele>665</ele>
        <time>2026-08-21T19:02:55.000Z</time>
        <extensions>
          <ns3:TrackPointExtension>
            <ns3:hr>130</ns3:hr>
            <ns3:cad>43</ns3:cad>
          </ns3:TrackPointExtension>
        </extensions>
      </trkpt>
      <trkpt lat="45.34756408073008060455322265625" lon="-70.9894991107285022735595703125">
        <ele>665.20001220703125</ele>
        <time>2026-08-21T19:02:56.000Z</time>
        <extensions>
          <ns3:TrackPointExtension>
            <ns3:hr>130</ns3:hr>
            <ns3:cad>45</ns3:cad>
          </ns3:TrackPointExtension>
        </extensions>
      </trkpt>
      <trkpt lat="45.34757028333842754364013671875" lon="-70.98951428197324275970458984375">
        <ele>665.20001220703125</ele>
        <time>2026-08-21T19:02:57.000Z</time>
        <extensions>
          <ns3:TrackPointExtension>
            <ns3:hr>130</ns3:hr>
            <ns3:cad>45</ns3:cad>
          </ns3:TrackPointExtension>
        </extensions>
      </trkpt>
      <trkpt lat="45.347575061023235321044921875" lon="-70.98952635191380977630615234375">
        <ele>665.20001220703125</ele>
        <time>2026-08-21T19:02:58.000Z</time>
        <extensions>
          <ns3:TrackPointExtension>
            <ns3:hr>129</ns3:hr>
            <ns3:cad>45</ns3:cad>
          </ns3:TrackPointExtension>
        </extensions>
      </trkpt>
      <trkpt lat="45.34758117981255054473876953125" lon="-70.9895338118076324462890625">
        <ele>665.20001220703125</ele>
        <time>2026-08-21T19:02:59.000Z</time>
        <extensions>
          <ns3:TrackPointExtension>
            <ns3:hr>129</ns3:hr>
            <ns3:cad>45</ns3:cad>
          </ns3:TrackPointExtension>
        </extensions>
      </trkpt>
      <trkpt lat="45.3475836105644702911376953125" lon="-70.9895356558263301849365234375">
        <ele>665.20001220703125</ele>
        <time>2026-08-21T19:03:00.000Z</time>
        <extensions>
          <ns3:TrackPointExtension>
            <ns3:hr>128</ns3:hr>
            <ns3:cad>45</ns3:cad>
          </ns3:TrackPointExtension>
        </extensions>
      </trkpt>
      <trkpt lat="45.34758470021188259124755859375" lon="-70.9895376674830913543701171875">
        <ele>665.4000244140625</ele>
        <time>2026-08-21T19:03:01.000Z</time>
        <extensions>
          <ns3:TrackPointExtension>
            <ns3:hr>128</ns3:hr>
            <ns3:cad>0</ns3:cad>
          </ns3:TrackPointExtension>
        </extensions>
      </trkpt>
      <trkpt lat="45.34758545458316802978515625" lon="-70.9895333088934421539306640625">
        <ele>665.5999755859375</ele>
        <time>2026-08-21T19:03:02.000Z</time>
        <extensions>
          <ns3:TrackPointExtension>
            <ns3:hr>128</ns3:hr>
            <ns3:cad>0</ns3:cad>
          </ns3:TrackPointExtension>
        </extensions>
      </trkpt>
      <trkpt lat="45.34758637659251689910888671875" lon="-70.98952920176088809967041015625">
        <ele>665.5999755859375</ele>
        <time>2026-08-21T19:03:03.000Z</time>
        <extensions>
          <ns3:TrackPointExtension>
            <ns3:hr>128</ns3:hr>
            <ns3:cad>0</ns3:cad>
          </ns3:TrackPointExtension>
        </extensions>
      </trkpt>
      <trkpt lat="45.34758637659251689910888671875" lon="-70.9895450435578823089599609375">
        <ele>665.79998779296875</ele>
        <time>2026-08-21T19:03:04.000Z</time>
        <extensions>
          <ns3:TrackPointExtension>
            <ns3:hr>127</ns3:hr>
            <ns3:cad>44</ns3:cad>
          </ns3:TrackPointExtension>
        </extensions>
      </trkpt>
      <trkpt lat="45.34758503548800945281982421875" lon="-70.98955686204135417938232421875">
        <ele>666</ele>
        <time>2026-08-21T19:03:05.000Z</time>
        <extensions>
          <ns3:TrackPointExtension>
            <ns3:hr>127</ns3:hr>
            <ns3:cad>44</ns3:cad>
          </ns3:TrackPointExtension>
        </extensions>
      </trkpt>
      <trkpt lat="45.3475839458405971527099609375" lon="-70.98956742323935031890869140625">
        <ele>666</ele>
        <time>2026-08-21T19:03:06.000Z</time>
        <extensions>
          <ns3:TrackPointExtension>
            <ns3:hr>127</ns3:hr>
            <ns3:cad>0</ns3:cad>
          </ns3:TrackPointExtension>
        </extensions>
      </trkpt>
      <trkpt lat="45.34759190864861011505126953125" lon="-70.98957664333283901214599609375">
        <ele>666.20001220703125</ele>
        <time>2026-08-21T19:03:07.000Z</time>
        <extensions>
          <ns3:TrackPointExtension>
            <ns3:hr>127</ns3:hr>
            <ns3:cad>0</ns3:cad>
          </ns3:TrackPointExtension>
        </extensions>
      </trkpt>
      <trkpt lat="45.34759819507598876953125" lon="-70.9895846061408519744873046875">
        <ele>666.20001220703125</ele>
        <time>2026-08-21T19:03:08.000Z</time>
        <extensions>
          <ns3:TrackPointExtension>
            <ns3:hr>127</ns3:hr>
            <ns3:cad>0</ns3:cad>
          </ns3:TrackPointExtension>
        </extensions>
      </trkpt>
      <trkpt lat="45.34759861417114734649658203125" lon="-70.98959474824368953704833984375">
        <ele>666.20001220703125</ele>
        <time>2026-08-21T19:03:09.000Z</time>
        <extensions>
          <ns3:TrackPointExtension>
            <ns3:hr>127</ns3:hr>
            <ns3:cad>0</ns3:cad>
          </ns3:TrackPointExtension>
        </extensions>
      </trkpt>
      <trkpt lat="45.34759710542857646942138671875" lon="-70.989607237279415130615234375">
        <ele>666.4000244140625</ele>
        <time>2026-08-21T19:03:10.000Z</time>
        <extensions>
          <ns3:TrackPointExtension>
            <ns3:hr>127</ns3:hr>
            <ns3:cad>0</ns3:cad>
          </ns3:TrackPointExtension>
        </extensions>
      </trkpt>
      <trkpt lat="45.34760020673274993896484375" lon="-70.98962341435253620147705078125">
        <ele>666.4000244140625</ele>
        <time>2026-08-21T19:03:11.000Z</time>
        <extensions>
          <ns3:TrackPointExtension>
            <ns3:hr>128</ns3:hr>
            <ns3:cad>0</ns3:cad>
          </ns3:TrackPointExtension>
        </extensions>
      </trkpt>
      <trkpt lat="45.34760146401822566986083984375" lon="-70.9896357357501983642578125">
        <ele>666.5999755859375</ele>
        <time>2026-08-21T19:03:12.000Z</time>
        <extensions>
          <ns3:TrackPointExtension>
            <ns3:hr>128</ns3:hr>
            <ns3:cad>0</ns3:cad>
          </ns3:TrackPointExtension>
        </extensions>
      </trkpt>
      <trkpt lat="45.34760230220854282379150390625" lon="-70.98964839242398738861083984375">
        <ele>666.79998779296875</ele>
        <time>2026-08-21T19:03:13.000Z</time>
        <extensions>
          <ns3:TrackPointExtension>
            <ns3:hr>128</ns3:hr>
            <ns3:cad>0</ns3:cad>
          </ns3:TrackPointExtension>
        </extensions>
      </trkpt>
      <trkpt lat="45.34760314039885997772216796875" lon="-70.98965694196522235870361328125">
        <ele>666.79998779296875</ele>
        <time>2026-08-21T19:03:14.000Z</time>
        <extensions>
          <ns3:TrackPointExtension>
            <ns3:hr>128</ns3:hr>
            <ns3:cad>0</ns3:cad>
          </ns3:TrackPointExtension>
        </extensions>
      </trkpt>
      <trkpt lat="45.34760448150336742401123046875" lon="-70.98967253230512142181396484375">
        <ele>667</ele>
        <time>2026-08-21T19:03:15.000Z</time>
        <extensions>
          <ns3:TrackPointExtension>
            <ns3:hr>128</ns3:hr>
            <ns3:cad>0</ns3:cad>
          </ns3:TrackPointExtension>
        </extensions>
      </trkpt>
      <trkpt lat="45.3476077504456043243408203125" lon="-70.98968242295086383819580078125">
        <ele>667</ele>
        <time>2026-08-21T19:03:16.000Z</time>
        <extensions>
          <ns3:TrackPointExtension>
            <ns3:hr>128</ns3:hr>
            <ns3:cad>0</ns3:cad>
          </ns3:TrackPointExtension>
        </extensions>
      </trkpt>
      <trkpt lat="45.347611941397190093994140625" lon="-70.98969415761530399322509765625">
        <ele>667</ele>
        <time>2026-08-21T19:03:17.000Z</time>
        <extensions>
          <ns3:TrackPointExtension>
            <ns3:hr>128</ns3:hr>
            <ns3:cad>0</ns3:cad>
          </ns3:TrackPointExtension>
        </extensions>
      </trkpt>
      <trkpt lat="45.34761738963425159454345703125" lon="-70.98970807157456874847412109375">
        <ele>667.20001220703125</ele>
        <time>2026-08-21T19:03:18.000Z</time>
        <extensions>
          <ns3:TrackPointExtension>
            <ns3:hr>128</ns3:hr>
            <ns3:cad>44</ns3:cad>
          </ns3:TrackPointExtension>
        </extensions>
      </trkpt>
      <trkpt lat="45.34762158058583736419677734375" lon="-70.9897187165915966033935546875">
        <ele>667.20001220703125</ele>
        <time>2026-08-21T19:03:19.000Z</time>
        <extensions>
          <ns3:TrackPointExtension>
            <ns3:hr>129</ns3:hr>
            <ns3:cad>44</ns3:cad>
          </ns3:TrackPointExtension>
        </extensions>
      </trkpt>
      <trkpt lat="45.34762392751872539520263671875" lon="-70.98973154090344905853271484375">
        <ele>667.4000244140625</ele>
        <time>2026-08-21T19:03:20.000Z</time>
        <extensions>
          <ns3:TrackPointExtension>
            <ns3:hr>129</ns3:hr>
            <ns3:cad>44</ns3:cad>
          </ns3:TrackPointExtension>
        </extensions>
      </trkpt>
      <trkpt lat="45.34762409515678882598876953125" lon="-70.98973941989243030548095703125">
        <ele>667.5999755859375</ele>
        <time>2026-08-21T19:03:21.000Z</time>
        <extensions>
          <ns3:TrackPointExtension>
            <ns3:hr>130</ns3:hr>
            <ns3:cad>44</ns3:cad>
          </ns3:TrackPointExtension>
        </extensions>
      </trkpt>
      <trkpt lat="45.34762644208967685699462890625" lon="-70.98975216038525104522705078125">
        <ele>667.5999755859375</ele>
        <time>2026-08-21T19:03:22.000Z</time>
        <extensions>
          <ns3:TrackPointExtension>
            <ns3:hr>130</ns3:hr>
            <ns3:cad>44</ns3:cad>
          </ns3:TrackPointExtension>
        </extensions>
      </trkpt>
      <trkpt lat="45.34762912429869174957275390625" lon="-70.98976372741162776947021484375">
        <ele>667.79998779296875</ele>
        <time>2026-08-21T19:03:23.000Z</time>
        <extensions>
          <ns3:TrackPointExtension>
            <ns3:hr>130</ns3:hr>
            <ns3:cad>0</ns3:cad>
          </ns3:TrackPointExtension>
        </extensions>
      </trkpt>
      <trkpt lat="45.3476344048976898193359375" lon="-70.98977009765803813934326171875">
        <ele>667.79998779296875</ele>
        <time>2026-08-21T19:03:24.000Z</time>
        <extensions>
          <ns3:TrackPointExtension>
            <ns3:hr>129</ns3:hr>
            <ns3:cad>0</ns3:cad>
          </ns3:TrackPointExtension>
        </extensions>
      </trkpt>
      <trkpt lat="45.34763247705996036529541015625" lon="-70.9897797368466854095458984375">
        <ele>667.79998779296875</ele>
        <time>2026-08-21T19:03:25.000Z</time>
        <extensions>
          <ns3:TrackPointExtension>
            <ns3:hr>130</ns3:hr>
            <ns3:cad>0</ns3:cad>
          </ns3:TrackPointExtension>
        </extensions>
      </trkpt>
      <trkpt lat="45.347628034651279449462890625" lon="-70.98978652618825435638427734375">
        <ele>668</ele>
        <time>2026-08-21T19:03:26.000Z</time>
        <extensions>
          <ns3:TrackPointExtension>
            <ns3:hr>130</ns3:hr>
            <ns3:cad>0</ns3:cad>
          </ns3:TrackPointExtension>
        </extensions>
      </trkpt>
      <trkpt lat="45.34762660972774028778076171875" lon="-70.9897971712052822113037109375">
        <ele>668</ele>
        <time>2026-08-21T19:03:27.000Z</time>
        <extensions>
          <ns3:TrackPointExtension>
            <ns3:hr>130</ns3:hr>
            <ns3:cad>0</ns3:cad>
          </ns3:TrackPointExtension>
        </extensions>
      </trkpt>
      <trkpt lat="45.3476250171661376953125" lon="-70.98981074988842010498046875">
        <ele>668.20001220703125</ele>
        <time>2026-08-21T19:03:28.000Z</time>
        <extensions>
          <ns3:TrackPointExtension>
            <ns3:hr>129</ns3:hr>
            <ns3:cad>0</ns3:cad>
          </ns3:TrackPointExtension>
        </extensions>
      </trkpt>
      <trkpt lat="45.34762836992740631103515625" lon="-70.989822484552860260009765625">
        <ele>668.20001220703125</ele>
        <time>2026-08-21T19:03:29.000Z</time>
        <extensions>
          <ns3:TrackPointExtension>
            <ns3:hr>130</ns3:hr>
            <ns3:cad>0</ns3:cad>
          </ns3:TrackPointExtension>
        </extensions>
      </trkpt>
      <trkpt lat="45.34763013012707233428955078125" lon="-70.98982759751379489898681640625">
        <ele>668.4000244140625</ele>
        <time>2026-08-21T19:03:30.000Z</time>
        <extensions>
          <ns3:TrackPointExtension>
            <ns3:hr>130</ns3:hr>
            <ns3:cad>0</ns3:cad>
          </ns3:TrackPointExtension>
        </extensions>
      </trkpt>
      <trkpt lat="45.34763080067932605743408203125" lon="-70.98984335549175739288330078125">
        <ele>668.5999755859375</ele>
        <time>2026-08-21T19:03:31.000Z</time>
        <extensions>
          <ns3:TrackPointExtension>
            <ns3:hr>130</ns3:hr>
            <ns3:cad>42</ns3:cad>
          </ns3:TrackPointExtension>
        </extensions>
      </trkpt>
      <trkpt lat="45.3476322256028652191162109375" lon="-70.9898555092513561248779296875">
        <ele>668.79998779296875</ele>
        <time>2026-08-21T19:03:32.000Z</time>
        <extensions>
          <ns3:TrackPointExtension>
            <ns3:hr>129</ns3:hr>
            <ns3:cad>42</ns3:cad>
          </ns3:TrackPointExtension>
        </extensions>
      </trkpt>
      <trkpt lat="45.3476288728415966033935546875" lon="-70.98987738601863384246826171875">
        <ele>668.79998779296875</ele>
        <time>2026-08-21T19:03:33.000Z</time>
        <extensions>
          <ns3:TrackPointExtension>
            <ns3:hr>129</ns3:hr>
            <ns3:cad>42</ns3:cad>
          </ns3:TrackPointExtension>
        </extensions>
      </trkpt>
      <trkpt lat="45.34762836992740631103515625" lon="-70.98989188671112060546875">
        <ele>669</ele>
        <time>2026-08-21T19:03:34.000Z</time>
        <extensions>
          <ns3:TrackPointExtension>
            <ns3:hr>129</ns3:hr>
            <ns3:cad>42</ns3:cad>
          </ns3:TrackPointExtension>
        </extensions>
      </trkpt>
      <trkpt lat="45.3476261906325817108154296875" lon="-70.98990085534751415252685546875">
        <ele>669.20001220703125</ele>
        <time>2026-08-21T19:03:35.000Z</time>
        <extensions>
          <ns3:TrackPointExtension>
            <ns3:hr>129</ns3:hr>
            <ns3:cad>42</ns3:cad>
          </ns3:TrackPointExtension>
        </extensions>
      </trkpt>
      <trkpt lat="45.34762225113809108734130859375" lon="-70.98990487866103649139404296875">
        <ele>669.4000244140625</ele>
        <time>2026-08-21T19:03:36.000Z</time>
        <extensions>
          <ns3:TrackPointExtension>
            <ns3:hr>129</ns3:hr>
            <ns3:cad>42</ns3:cad>
          </ns3:TrackPointExtension>
        </extensions>
      </trkpt>
      <trkpt lat="45.34761956892907619476318359375" lon="-70.98992072045803070068359375">
        <ele>669.4000244140625</ele>
        <time>2026-08-21T19:03:37.000Z</time>
        <extensions>
          <ns3:TrackPointExtension>
            <ns3:hr>128</ns3:hr>
            <ns3:cad>42</ns3:cad>
          </ns3:TrackPointExtension>
        </extensions>
      </trkpt>
      <trkpt lat="45.34761386923491954803466796875" lon="-70.98993547260761260986328125">
        <ele>669.5999755859375</ele>
        <time>2026-08-21T19:03:38.000Z</time>
        <extensions>
          <ns3:TrackPointExtension>
            <ns3:hr>128</ns3:hr>
            <ns3:cad>42</ns3:cad>
          </ns3:TrackPointExtension>
        </extensions>
      </trkpt>
      <trkpt lat="45.34761068411171436309814453125" lon="-70.9899468719959259033203125">
        <ele>669.5999755859375</ele>
        <time>2026-08-21T19:03:39.000Z</time>
        <extensions>
          <ns3:TrackPointExtension>
            <ns3:hr>129</ns3:hr>
            <ns3:cad>42</ns3:cad>
          </ns3:TrackPointExtension>
        </extensions>
      </trkpt>
      <trkpt lat="45.3476131148636341094970703125" lon="-70.98995500244200229644775390625">
        <ele>669.5999755859375</ele>
        <time>2026-08-21T19:03:40.000Z</time>
        <extensions>
          <ns3:TrackPointExtension>
            <ns3:hr>129</ns3:hr>
            <ns3:cad>0</ns3:cad>
          </ns3:TrackPointExtension>
        </extensions>
      </trkpt>
      <trkpt lat="45.3476131148636341094970703125" lon="-70.98996539600193500518798828125">
        <ele>669.79998779296875</ele>
        <time>2026-08-21T19:03:41.000Z</time>
        <extensions>
          <ns3:TrackPointExtension>
            <ns3:hr>129</ns3:hr>
            <ns3:cad>0</ns3:cad>
          </ns3:TrackPointExtension>
        </extensions>
      </trkpt>
      <trkpt lat="45.34761135466396808624267578125" lon="-70.9899755381047725677490234375">
        <ele>669.79998779296875</ele>
        <time>2026-08-21T19:03:42.000Z</time>
        <extensions>
          <ns3:TrackPointExtension>
            <ns3:hr>128</ns3:hr>
            <ns3:cad>0</ns3:cad>
          </ns3:TrackPointExtension>
        </extensions>
      </trkpt>
      <trkpt lat="45.3476111032068729400634765625" lon="-70.98998551256954669952392578125">
        <ele>670</ele>
        <time>2026-08-21T19:03:43.000Z</time>
        <extensions>
          <ns3:TrackPointExtension>
            <ns3:hr>128</ns3:hr>
            <ns3:cad>47</ns3:cad>
          </ns3:TrackPointExtension>
        </extensions>
      </trkpt>
      <trkpt lat="45.34761168994009494781494140625" lon="-70.9899973310530185699462890625">
        <ele>670</ele>
        <time>2026-08-21T19:03:44.000Z</time>
        <extensions>
          <ns3:TrackPointExtension>
            <ns3:hr>128</ns3:hr>
            <ns3:cad>47</ns3:cad>
          </ns3:TrackPointExtension>
        </extensions>
      </trkpt>
      <trkpt lat="45.34761135466396808624267578125" lon="-70.99000646732747554779052734375">
        <ele>670.20001220703125</ele>
        <time>2026-08-21T19:03:45.000Z</time>
        <extensions>
          <ns3:TrackPointExtension>
            <ns3:hr>128</ns3:hr>
            <ns3:cad>47</ns3:cad>
          </ns3:TrackPointExtension>
        </extensions>
      </trkpt>
      <trkpt lat="45.34761227667331695556640625" lon="-70.99001996219158172607421875">
        <ele>670.4000244140625</ele>
        <time>2026-08-21T19:03:46.000Z</time>
        <extensions>
          <ns3:TrackPointExtension>
            <ns3:hr>128</ns3:hr>
            <ns3:cad>47</ns3:cad>
          </ns3:TrackPointExtension>
        </extensions>
      </trkpt>
      <trkpt lat="45.34761386923491954803466796875" lon="-70.99003613926470279693603515625">
        <ele>670.4000244140625</ele>
        <time>2026-08-21T19:03:47.000Z</time>
        <extensions>
          <ns3:TrackPointExtension>
            <ns3:hr>128</ns3:hr>
            <ns3:cad>47</ns3:cad>
          </ns3:TrackPointExtension>
        </extensions>
      </trkpt>
      <trkpt lat="45.3476147912442684173583984375" lon="-70.99005642347037792205810546875">
        <ele>670.5999755859375</ele>
        <time>2026-08-21T19:03:48.000Z</time>
        <extensions>
          <ns3:TrackPointExtension>
            <ns3:hr>128</ns3:hr>
            <ns3:cad>47</ns3:cad>
          </ns3:TrackPointExtension>
        </extensions>
      </trkpt>
      <trkpt lat="45.34761856310069561004638671875" lon="-70.9900744445621967315673828125">
        <ele>670.5999755859375</ele>
        <time>2026-08-21T19:03:49.000Z</time>
        <extensions>
          <ns3:TrackPointExtension>
            <ns3:hr>128</ns3:hr>
            <ns3:cad>47</ns3:cad>
          </ns3:TrackPointExtension>
        </extensions>
      </trkpt>
      <trkpt lat="45.34762677736580371856689453125" lon="-70.99007922224700450897216796875">
        <ele>670.79998779296875</ele>
        <time>2026-08-21T19:03:50.000Z</time>
        <extensions>
          <ns3:TrackPointExtension>
            <ns3:hr>128</ns3:hr>
            <ns3:cad>43</ns3:cad>
          </ns3:TrackPointExtension>
        </extensions>
      </trkpt>
      <trkpt lat="45.347633399069309234619140625" lon="-70.9900952316820621490478515625">
        <ele>670.79998779296875</ele>
        <time>2026-08-21T19:03:51.000Z</time>
        <extensions>
          <ns3:TrackPointExtension>
            <ns3:hr>127</ns3:hr>
            <ns3:cad>43</ns3:cad>
          </ns3:TrackPointExtension>
        </extensions>
      </trkpt>
      <trkpt lat="45.34763566218316555023193359375" lon="-70.9901099838316440582275390625">
        <ele>671</ele>
        <time>2026-08-21T19:03:52.000Z</time>
        <extensions>
          <ns3:TrackPointExtension>
            <ns3:hr>128</ns3:hr>
            <ns3:cad>43</ns3:cad>
          </ns3:TrackPointExtension>
        </extensions>
      </trkpt>
      <trkpt lat="45.3476372547447681427001953125" lon="-70.99012146703898906707763671875">
        <ele>671</ele>
        <time>2026-08-21T19:03:53.000Z</time>
        <extensions>
          <ns3:TrackPointExtension>
            <ns3:hr>128</ns3:hr>
            <ns3:cad>43</ns3:cad>
          </ns3:TrackPointExtension>
        </extensions>
      </trkpt>
      <trkpt lat="45.34763800911605358123779296875" lon="-70.99012859165668487548828125">
        <ele>671.20001220703125</ele>
        <time>2026-08-21T19:03:54.000Z</time>
        <extensions>
          <ns3:TrackPointExtension>
            <ns3:hr>128</ns3:hr>
            <ns3:cad>43</ns3:cad>
          </ns3:TrackPointExtension>
        </extensions>
      </trkpt>
      <trkpt lat="45.34764002077281475067138671875" lon="-70.990136973559856414794921875">
        <ele>671.20001220703125</ele>
        <time>2026-08-21T19:03:55.000Z</time>
        <extensions>
          <ns3:TrackPointExtension>
            <ns3:hr>128</ns3:hr>
            <ns3:cad>43</ns3:cad>
          </ns3:TrackPointExtension>
        </extensions>
      </trkpt>
      <trkpt lat="45.3476424515247344970703125" lon="-70.990149043500423431396484375">
        <ele>671.4000244140625</ele>
        <time>2026-08-21T19:03:56.000Z</time>
        <extensions>
          <ns3:TrackPointExtension>
            <ns3:hr>128</ns3:hr>
            <ns3:cad>43</ns3:cad>
          </ns3:TrackPointExtension>
        </extensions>
      </trkpt>
      <trkpt lat="45.3476449660956859588623046875" lon="-70.990157760679721832275390625">
        <ele>671.4000244140625</ele>
        <time>2026-08-21T19:03:57.000Z</time>
        <extensions>
          <ns3:TrackPointExtension>
            <ns3:hr>128</ns3:hr>
            <ns3:cad>43</ns3:cad>
          </ns3:TrackPointExtension>
        </extensions>
      </trkpt>
      <trkpt lat="45.34764907322824001312255859375" lon="-70.9901713393628597259521484375">
        <ele>671.5999755859375</ele>
        <time>2026-08-21T19:03:58.000Z</time>
        <extensions>
          <ns3:TrackPointExtension>
            <ns3:hr>128</ns3:hr>
            <ns3:cad>0</ns3:cad>
          </ns3:TrackPointExtension>
        </extensions>
      </trkpt>
      <trkpt lat="45.3476531803607940673828125" lon="-70.990179218351840972900390625">
        <ele>671.5999755859375</ele>
        <time>2026-08-21T19:03:59.000Z</time>
        <extensions>
          <ns3:TrackPointExtension>
            <ns3:hr>129</ns3:hr>
            <ns3:cad>0</ns3:cad>
          </ns3:TrackPointExtension>
        </extensions>
      </trkpt>
      <trkpt lat="45.34765879623591899871826171875" lon="-70.99019103683531284332275390625">
        <ele>671.79998779296875</ele>
        <time>2026-08-21T19:04:00.000Z</time>
        <extensions>
          <ns3:TrackPointExtension>
            <ns3:hr>128</ns3:hr>
            <ns3:cad>0</ns3:cad>
          </ns3:TrackPointExtension>
        </extensions>
      </trkpt>
      <trkpt lat="45.347665250301361083984375" lon="-70.99019967019557952880859375">
        <ele>671.79998779296875</ele>
        <time>2026-08-21T19:04:01.000Z</time>
        <extensions>
          <ns3:TrackPointExtension>
            <ns3:hr>128</ns3:hr>
            <ns3:cad>0</ns3:cad>
          </ns3:TrackPointExtension>
        </extensions>
      </trkpt>
      <trkpt lat="45.34766801632940769195556640625" lon="-70.99020612426102161407470703125">
        <ele>672</ele>
        <time>2026-08-21T19:04:02.000Z</time>
        <extensions>
          <ns3:TrackPointExtension>
            <ns3:hr>128</ns3:hr>
            <ns3:cad>45</ns3:cad>
          </ns3:TrackPointExtension>
        </extensions>
      </trkpt>
      <trkpt lat="45.3476647473871707916259765625" lon="-70.99020444788038730621337890625">
        <ele>672</ele>
        <time>2026-08-21T19:04:03.000Z</time>
        <extensions>
          <ns3:TrackPointExtension>
            <ns3:hr>128</ns3:hr>
            <ns3:cad>45</ns3:cad>
          </ns3:TrackPointExtension>
        </extensions>
      </trkpt>
      <trkpt lat="45.3476558625698089599609375" lon="-70.990207381546497344970703125">
        <ele>672.20001220703125</ele>
        <time>2026-08-21T19:04:04.000Z</time>
        <extensions>
          <ns3:TrackPointExtension>
            <ns3:hr>128</ns3:hr>
            <ns3:cad>45</ns3:cad>
          </ns3:TrackPointExtension>
        </extensions>
      </trkpt>
      <trkpt lat="45.34765041433274745941162109375" lon="-70.99021249450743198394775390625">
        <ele>672.4000244140625</ele>
        <time>2026-08-21T19:04:05.000Z</time>
        <extensions>
          <ns3:TrackPointExtension>
            <ns3:hr>128</ns3:hr>
            <ns3:cad>45</ns3:cad>
          </ns3:TrackPointExtension>
        </extensions>
      </trkpt>
      <trkpt lat="45.34764907322824001312255859375" lon="-70.9902196191251277923583984375">
        <ele>672.5999755859375</ele>
        <time>2026-08-21T19:04:06.000Z</time>
        <extensions>
          <ns3:TrackPointExtension>
            <ns3:hr>128</ns3:hr>
            <ns3:cad>45</ns3:cad>
          </ns3:TrackPointExtension>
        </extensions>
      </trkpt>
      <trkpt lat="45.34764739684760570526123046875" lon="-70.99022439680993556976318359375">
        <ele>672.79998779296875</ele>
        <time>2026-08-21T19:04:07.000Z</time>
        <extensions>
          <ns3:TrackPointExtension>
            <ns3:hr>128</ns3:hr>
            <ns3:cad>0</ns3:cad>
          </ns3:TrackPointExtension>
        </extensions>
      </trkpt>
      <trkpt lat="45.34765091724693775177001953125" lon="-70.9902273304760456085205078125">
        <ele>673</ele>
        <time>2026-08-21T19:04:08.000Z</time>
        <extensions>
          <ns3:TrackPointExtension>
            <ns3:hr>128</ns3:hr>
            <ns3:cad>0</ns3:cad>
          </ns3:TrackPointExtension>
        </extensions>
      </trkpt>
      <trkpt lat="45.347649492323398590087890625" lon="-70.990232191979885101318359375">
        <ele>673</ele>
        <time>2026-08-21T19:04:09.000Z</time>
        <extensions>
          <ns3:TrackPointExtension>
            <ns3:hr>128</ns3:hr>
            <ns3:cad>0</ns3:cad>
          </ns3:TrackPointExtension>
        </extensions>
      </trkpt>
      <trkpt lat="45.34764739684760570526123046875" lon="-70.990233533084392547607421875">
        <ele>673.20001220703125</ele>
        <time>2026-08-21T19:04:10.000Z</time>
        <extensions>
          <ns3:TrackPointExtension>
            <ns3:hr>128</ns3:hr>
            <ns3:cad>45</ns3:cad>
          </ns3:TrackPointExtension>
        </extensions>
      </trkpt>
      <trkpt lat="45.34764337353408336639404296875" lon="-70.99023546092212200164794921875">
        <ele>673.20001220703125</ele>
        <time>2026-08-21T19:04:11.000Z</time>
        <extensions>
          <ns3:TrackPointExtension>
            <ns3:hr>128</ns3:hr>
            <ns3:cad>45</ns3:cad>
          </ns3:TrackPointExtension>
        </extensions>
      </trkpt>
      <trkpt lat="45.347639434039592742919921875" lon="-70.9902256540954113006591796875">
        <ele>673.20001220703125</ele>
        <time>2026-08-21T19:04:12.000Z</time>
        <extensions>
          <ns3:TrackPointExtension>
            <ns3:hr>128</ns3:hr>
            <ns3:cad>45</ns3:cad>
          </ns3:TrackPointExtension>
        </extensions>
      </trkpt>
      <trkpt lat="45.34763147123157978057861328125" lon="-70.99022448062896728515625">
        <ele>673.20001220703125</ele>
        <time>2026-08-21T19:04:13.000Z</time>
        <extensions>
          <ns3:TrackPointExtension>
            <ns3:hr>129</ns3:hr>
            <ns3:cad>45</ns3:cad>
          </ns3:TrackPointExtension>
        </extensions>
      </trkpt>
      <trkpt lat="45.347624681890010833740234375" lon="-70.990221798419952392578125">
        <ele>673.20001220703125</ele>
        <time>2026-08-21T19:04:14.000Z</time>
        <extensions>
          <ns3:TrackPointExtension>
            <ns3:hr>128</ns3:hr>
            <ns3:cad>45</ns3:cad>
          </ns3:TrackPointExtension>
        </extensions>
      </trkpt>
      <trkpt lat="45.347617976367473602294921875" lon="-70.99022104404866695404052734375">
        <ele>673</ele>
        <time>2026-08-21T19:04:15.000Z</time>
        <extensions>
          <ns3:TrackPointExtension>
            <ns3:hr>128</ns3:hr>
            <ns3:cad>45</ns3:cad>
          </ns3:TrackPointExtension>
        </extensions>
      </trkpt>
      <trkpt lat="45.34761001355946063995361328125" lon="-70.99021551199257373809814453125">
        <ele>673</ele>
        <time>2026-08-21T19:04:16.000Z</time>
        <extensions>
          <ns3:TrackPointExtension>
            <ns3:hr>128</ns3:hr>
            <ns3:cad>45</ns3:cad>
          </ns3:TrackPointExtension>
        </extensions>
      </trkpt>
      <trkpt lat="45.34759777598083019256591796875" lon="-70.99021400325000286102294921875">
        <ele>673</ele>
        <time>2026-08-21T19:04:17.000Z</time>
        <extensions>
          <ns3:TrackPointExtension>
            <ns3:hr>128</ns3:hr>
            <ns3:cad>45</ns3:cad>
          </ns3:TrackPointExtension>
        </extensions>
      </trkpt>
      <trkpt lat="45.347589813172817230224609375" lon="-70.99021987058222293853759765625">
        <ele>673</ele>
        <time>2026-08-21T19:04:18.000Z</time>
        <extensions>
          <ns3:TrackPointExtension>
            <ns3:hr>129</ns3:hr>
            <ns3:cad>45</ns3:cad>
          </ns3:TrackPointExtension>
        </extensions>
      </trkpt>
      <trkpt lat="45.3475802578032016754150390625" lon="-70.990220122039318084716796875">
        <ele>672.79998779296875</ele>
        <time>2026-08-21T19:04:19.000Z</time>
        <extensions>
          <ns3:TrackPointExtension>
            <ns3:hr>129</ns3:hr>
            <ns3:cad>45</ns3:cad>
          </ns3:TrackPointExtension>
        </extensions>
      </trkpt>
      <trkpt lat="45.34756793640553951263427734375" lon="-70.99022640846669673919677734375">
        <ele>672.79998779296875</ele>
        <time>2026-08-21T19:04:20.000Z</time>
        <extensions>
          <ns3:TrackPointExtension>
            <ns3:hr>129</ns3:hr>
            <ns3:cad>45</ns3:cad>
          </ns3:TrackPointExtension>
        </extensions>
      </trkpt>
      <trkpt lat="45.3475524298846721649169921875" lon="-70.99023588001728057861328125">
        <ele>673</ele>
        <time>2026-08-21T19:04:21.000Z</time>
        <extensions>
          <ns3:TrackPointExtension>
            <ns3:hr>128</ns3:hr>
            <ns3:cad>45</ns3:cad>
          </ns3:TrackPointExtension>
        </extensions>
      </trkpt>
      <trkpt lat="45.3475440479815006256103515625" lon="-70.99023965187370777130126953125">
        <ele>673</ele>
        <time>2026-08-21T19:04:22.000Z</time>
        <extensions>
          <ns3:TrackPointExtension>
            <ns3:hr>128</ns3:hr>
            <ns3:cad>51</ns3:cad>
          </ns3:TrackPointExtension>
        </extensions>
      </trkpt>
      <trkpt lat="45.34753373824059963226318359375" lon="-70.99024769850075244903564453125">
        <ele>673</ele>
        <time>2026-08-21T19:04:23.000Z</time>
        <extensions>
          <ns3:TrackPointExtension>
            <ns3:hr>128</ns3:hr>
            <ns3:cad>51</ns3:cad>
          </ns3:TrackPointExtension>
        </extensions>
      </trkpt>
      <trkpt lat="45.347525440156459808349609375" lon="-70.99025608040392398834228515625">
        <ele>673.20001220703125</ele>
        <time>2026-08-21T19:04:24.000Z</time>
        <extensions>
          <ns3:TrackPointExtension>
            <ns3:hr>127</ns3:hr>
            <ns3:cad>51</ns3:cad>
          </ns3:TrackPointExtension>
        </extensions>
      </trkpt>
      <trkpt lat="45.3475182317197322845458984375" lon="-70.99025825969874858856201171875">
        <ele>673.20001220703125</ele>
        <time>2026-08-21T19:04:25.000Z</time>
        <extensions>
          <ns3:TrackPointExtension>
            <ns3:hr>127</ns3:hr>
            <ns3:cad>51</ns3:cad>
          </ns3:TrackPointExtension>
        </extensions>
      </trkpt>
      <trkpt lat="45.347507335245609283447265625" lon="-70.99026446230709552764892578125">
        <ele>673.4000244140625</ele>
        <time>2026-08-21T19:04:26.000Z</time>
        <extensions>
          <ns3:TrackPointExtension>
            <ns3:hr>127</ns3:hr>
            <ns3:cad>51</ns3:cad>
          </ns3:TrackPointExtension>
        </extensions>
      </trkpt>
      <trkpt lat="45.34749752841889858245849609375" lon="-70.99027317948639392852783203125">
        <ele>673.4000244140625</ele>
        <time>2026-08-21T19:04:27.000Z</time>
        <extensions>
          <ns3:TrackPointExtension>
            <ns3:hr>126</ns3:hr>
            <ns3:cad>47</ns3:cad>
          </ns3:TrackPointExtension>
        </extensions>
      </trkpt>
      <trkpt lat="45.34748679958283901214599609375" lon="-70.99028005264699459075927734375">
        <ele>673.4000244140625</ele>
        <time>2026-08-21T19:04:28.000Z</time>
        <extensions>
          <ns3:TrackPointExtension>
            <ns3:hr>126</ns3:hr>
            <ns3:cad>47</ns3:cad>
          </ns3:TrackPointExtension>
        </extensions>
      </trkpt>
      <trkpt lat="45.347478501498699188232421875" lon="-70.99028675816953182220458984375">
        <ele>673.5999755859375</ele>
        <time>2026-08-21T19:04:29.000Z</time>
        <extensions>
          <ns3:TrackPointExtension>
            <ns3:hr>126</ns3:hr>
            <ns3:cad>47</ns3:cad>
          </ns3:TrackPointExtension>
        </extensions>
      </trkpt>
      <trkpt lat="45.34747020341455936431884765625" lon="-70.990296900272369384765625">
        <ele>673.5999755859375</ele>
        <time>2026-08-21T19:04:30.000Z</time>
        <extensions>
          <ns3:TrackPointExtension>
            <ns3:hr>126</ns3:hr>
            <ns3:cad>47</ns3:cad>
          </ns3:TrackPointExtension>
        </extensions>
      </trkpt>
      <trkpt lat="45.3474629111588001251220703125" lon="-70.990308634936809539794921875">
        <ele>673.79998779296875</ele>
        <time>2026-08-21T19:04:31.000Z</time>
        <extensions>
          <ns3:TrackPointExtension>
            <ns3:hr>126</ns3:hr>
            <ns3:cad>47</ns3:cad>
          </ns3:TrackPointExtension>
        </extensions>
      </trkpt>
      <trkpt lat="45.34745612181723117828369140625" lon="-70.99032179452478885650634765625">
        <ele>674</ele>
        <time>2026-08-21T19:04:32.000Z</time>
        <extensions>
          <ns3:TrackPointExtension>
            <ns3:hr>126</ns3:hr>
            <ns3:cad>47</ns3:cad>
          </ns3:TrackPointExtension>
        </extensions>
      </trkpt>
      <trkpt lat="45.34744941629469394683837890625" lon="-70.9903352893888950347900390625">
        <ele>674.20001220703125</ele>
        <time>2026-08-21T19:04:33.000Z</time>
        <extensions>
          <ns3:TrackPointExtension>
            <ns3:hr>126</ns3:hr>
            <ns3:cad>47</ns3:cad>
          </ns3:TrackPointExtension>
        </extensions>
      </trkpt>
      <trkpt lat="45.34744589589536190032958984375" lon="-70.99034677259624004364013671875">
        <ele>674.4000244140625</ele>
        <time>2026-08-21T19:04:34.000Z</time>
        <extensions>
          <ns3:TrackPointExtension>
            <ns3:hr>126</ns3:hr>
            <ns3:cad>47</ns3:cad>
          </ns3:TrackPointExtension>
        </extensions>
      </trkpt>
      <trkpt lat="45.34743566997349262237548828125" lon="-70.9903624467551708221435546875">
        <ele>674.4000244140625</ele>
        <time>2026-08-21T19:04:35.000Z</time>
        <extensions>
          <ns3:TrackPointExtension>
            <ns3:hr>125</ns3:hr>
            <ns3:cad>0</ns3:cad>
          </ns3:TrackPointExtension>
        </extensions>
      </trkpt>
      <trkpt lat="45.34742762334644794464111328125" lon="-70.9903704933822154998779296875">
        <ele>674.5999755859375</ele>
        <time>2026-08-21T19:04:36.000Z</time>
        <extensions>
          <ns3:TrackPointExtension>
            <ns3:hr>125</ns3:hr>
            <ns3:cad>0</ns3:cad>
          </ns3:TrackPointExtension>
        </extensions>
      </trkpt>
      <trkpt lat="45.34742762334644794464111328125" lon="-70.99037828855216503143310546875">
        <ele>674.5999755859375</ele>
        <time>2026-08-21T19:04:37.000Z</time>
        <extensions>
          <ns3:TrackPointExtension>
            <ns3:hr>125</ns3:hr>
            <ns3:cad>0</ns3:cad>
          </ns3:TrackPointExtension>
        </extensions>
      </trkpt>
      <trkpt lat="45.34742929972708225250244140625" lon="-70.990387089550495147705078125">
        <ele>674.79998779296875</ele>
        <time>2026-08-21T19:04:38.000Z</time>
        <extensions>
          <ns3:TrackPointExtension>
            <ns3:hr>125</ns3:hr>
            <ns3:cad>0</ns3:cad>
          </ns3:TrackPointExtension>
        </extensions>
      </trkpt>
      <trkpt lat="45.34743147902190685272216796875" lon="-70.99040410481393337249755859375">
        <ele>675</ele>
        <time>2026-08-21T19:04:39.000Z</time>
        <extensions>
          <ns3:TrackPointExtension>
            <ns3:hr>124</ns3:hr>
            <ns3:cad>0</ns3:cad>
          </ns3:TrackPointExtension>
        </extensions>
      </trkpt>
      <trkpt lat="45.3474320657551288604736328125" lon="-70.99041567184031009674072265625">
        <ele>675.20001220703125</ele>
        <time>2026-08-21T19:04:40.000Z</time>
        <extensions>
          <ns3:TrackPointExtension>
            <ns3:hr>124</ns3:hr>
            <ns3:cad>0</ns3:cad>
          </ns3:TrackPointExtension>
        </extensions>
      </trkpt>
      <trkpt lat="45.34743047319352626800537109375" lon="-70.99042522720992565155029296875">
        <ele>675.4000244140625</ele>
        <time>2026-08-21T19:04:41.000Z</time>
        <extensions>
          <ns3:TrackPointExtension>
            <ns3:hr>124</ns3:hr>
            <ns3:cad>0</ns3:cad>
          </ns3:TrackPointExtension>
        </extensions>
      </trkpt>
      <trkpt lat="45.34743265248835086822509765625" lon="-70.9904323518276214599609375">
        <ele>675.5999755859375</ele>
        <time>2026-08-21T19:04:42.000Z</time>
        <extensions>
          <ns3:TrackPointExtension>
            <ns3:hr>124</ns3:hr>
            <ns3:cad>0</ns3:cad>
          </ns3:TrackPointExtension>
        </extensions>
      </trkpt>
      <trkpt lat="45.3474397771060466766357421875" lon="-70.9904496185481548309326171875">
        <ele>675.79998779296875</ele>
        <time>2026-08-21T19:04:43.000Z</time>
        <extensions>
          <ns3:TrackPointExtension>
            <ns3:hr>124</ns3:hr>
            <ns3:cad>0</ns3:cad>
          </ns3:TrackPointExtension>
        </extensions>
      </trkpt>
      <trkpt lat="45.34744472242891788482666015625" lon="-70.9904526360332965850830078125">
        <ele>676</ele>
        <time>2026-08-21T19:04:44.000Z</time>
        <extensions>
          <ns3:TrackPointExtension>
            <ns3:hr>125</ns3:hr>
            <ns3:cad>0</ns3:cad>
          </ns3:TrackPointExtension>
        </extensions>
      </trkpt>
      <trkpt lat="45.3474454768002033233642578125" lon="-70.99045976065099239349365234375">
        <ele>676.20001220703125</ele>
        <time>2026-08-21T19:04:45.000Z</time>
        <extensions>
          <ns3:TrackPointExtension>
            <ns3:hr>125</ns3:hr>
            <ns3:cad>0</ns3:cad>
          </ns3:TrackPointExtension>
        </extensions>
      </trkpt>
      <trkpt lat="45.34744706936180591583251953125" lon="-70.9904734231531620025634765625">
        <ele>676.4000244140625</ele>
        <time>2026-08-21T19:04:46.000Z</time>
        <extensions>
          <ns3:TrackPointExtension>
            <ns3:hr>125</ns3:hr>
            <ns3:cad>0</ns3:cad>
          </ns3:TrackPointExtension>
        </extensions>
      </trkpt>
      <trkpt lat="45.34745142795145511627197265625" lon="-70.99048742093145847320556640625">
        <ele>676.5999755859375</ele>
        <time>2026-08-21T19:04:47.000Z</time>
        <extensions>
          <ns3:TrackPointExtension>
            <ns3:hr>125</ns3:hr>
            <ns3:cad>0</ns3:cad>
          </ns3:TrackPointExtension>
        </extensions>
      </trkpt>
      <trkpt lat="45.347448997199535369873046875" lon="-70.990490354597568511962890625">
        <ele>676.79998779296875</ele>
        <time>2026-08-21T19:04:48.000Z</time>
        <extensions>
          <ns3:TrackPointExtension>
            <ns3:hr>126</ns3:hr>
            <ns3:cad>0</ns3:cad>
          </ns3:TrackPointExtension>
        </extensions>
      </trkpt>
      <trkpt lat="45.34745209850370883941650390625" lon="-70.99049278534948825836181640625">
        <ele>677</ele>
        <time>2026-08-21T19:04:49.000Z</time>
        <extensions>
          <ns3:TrackPointExtension>
            <ns3:hr>126</ns3:hr>
            <ns3:cad>0</ns3:cad>
          </ns3:TrackPointExtension>
        </extensions>
      </trkpt>
      <trkpt lat="45.34745377488434314727783203125" lon="-70.99049898795783519744873046875">
        <ele>677.4000244140625</ele>
        <time>2026-08-21T19:04:50.000Z</time>
        <extensions>
          <ns3:TrackPointExtension>
            <ns3:hr>127</ns3:hr>
            <ns3:cad>0</ns3:cad>
          </ns3:TrackPointExtension>
        </extensions>
      </trkpt>
      <trkpt lat="45.34745402634143829345703125" lon="-70.990507118403911590576171875">
        <ele>677.5999755859375</ele>
        <time>2026-08-21T19:04:51.000Z</time>
        <extensions>
          <ns3:TrackPointExtension>
            <ns3:hr>127</ns3:hr>
            <ns3:cad>0</ns3:cad>
          </ns3:TrackPointExtension>
        </extensions>
      </trkpt>
      <trkpt lat="45.34745193086564540863037109375" lon="-70.9905116446316242218017578125">
        <ele>677.79998779296875</ele>
        <time>2026-08-21T19:04:52.000Z</time>
        <extensions>
          <ns3:TrackPointExtension>
            <ns3:hr>128</ns3:hr>
            <ns3:cad>0</ns3:cad>
          </ns3:TrackPointExtension>
        </extensions>
      </trkpt>
      <trkpt lat="45.3474535234272480010986328125" lon="-70.990521200001239776611328125">
        <ele>678</ele>
        <time>2026-08-21T19:04:53.000Z</time>
        <extensions>
          <ns3:TrackPointExtension>
            <ns3:hr>128</ns3:hr>
            <ns3:cad>0</ns3:cad>
          </ns3:TrackPointExtension>
        </extensions>
      </trkpt>
      <trkpt lat="45.34745478071272373199462890625" lon="-70.990525223314762115478515625">
        <ele>678.20001220703125</ele>
        <time>2026-08-21T19:04:54.000Z</time>
        <extensions>
          <ns3:TrackPointExtension>
            <ns3:hr>129</ns3:hr>
            <ns3:cad>0</ns3:cad>
          </ns3:TrackPointExtension>
        </extensions>
      </trkpt>
      <trkpt lat="45.3474575467407703399658203125" lon="-70.9905270673334598541259765625">
        <ele>678.4000244140625</ele>
        <time>2026-08-21T19:04:55.000Z</time>
        <extensions>
          <ns3:TrackPointExtension>
            <ns3:hr>129</ns3:hr>
            <ns3:cad>0</ns3:cad>
          </ns3:TrackPointExtension>
        </extensions>
      </trkpt>
      <trkpt lat="45.34745645709335803985595703125" lon="-70.99052581004798412322998046875">
        <ele>678.5999755859375</ele>
        <time>2026-08-21T19:04:56.000Z</time>
        <extensions>
          <ns3:TrackPointExtension>
            <ns3:hr>130</ns3:hr>
            <ns3:cad>0</ns3:cad>
          </ns3:TrackPointExtension>
        </extensions>
      </trkpt>
      <trkpt lat="45.34745545126497745513916015625" lon="-70.99051960743963718414306640625">
        <ele>678.79998779296875</ele>
        <time>2026-08-21T19:04:57.000Z</time>
        <extensions>
          <ns3:TrackPointExtension>
            <ns3:hr>130</ns3:hr>
            <ns3:cad>0</ns3:cad>
          </ns3:TrackPointExtension>
        </extensions>
      </trkpt>
      <trkpt lat="45.34745360724627971649169921875" lon="-70.9905243851244449615478515625">
        <ele>679</ele>
        <time>2026-08-21T19:04:58.000Z</time>
        <extensions>
          <ns3:TrackPointExtension>
            <ns3:hr>130</ns3:hr>
            <ns3:cad>0</ns3:cad>
          </ns3:TrackPointExtension>
        </extensions>
      </trkpt>
      <trkpt lat="45.347453691065311431884765625" lon="-70.99053586833178997039794921875">
        <ele>679.20001220703125</ele>
        <time>2026-08-21T19:04:59.000Z</time>
        <extensions>
          <ns3:TrackPointExtension>
            <ns3:hr>131</ns3:hr>
            <ns3:cad>0</ns3:cad>
          </ns3:TrackPointExtension>
        </extensions>
      </trkpt>
      <trkpt lat="45.347451679408550262451171875" lon="-70.99054240621626377105712890625">
        <ele>679.4000244140625</ele>
        <time>2026-08-21T19:05:00.000Z</time>
        <extensions>
          <ns3:TrackPointExtension>
            <ns3:hr>132</ns3:hr>
            <ns3:cad>0</ns3:cad>
          </ns3:TrackPointExtension>
        </extensions>
      </trkpt>
      <trkpt lat="45.34745025448501110076904296875" lon="-70.9905495308339595794677734375">
        <ele>679.5999755859375</ele>
        <time>2026-08-21T19:05:01.000Z</time>
        <extensions>
          <ns3:TrackPointExtension>
            <ns3:hr>134</ns3:hr>
            <ns3:cad>0</ns3:cad>
          </ns3:TrackPointExtension>
        </extensions>
      </trkpt>
      <trkpt lat="45.34744991920888423919677734375" lon="-70.99055699072778224945068359375">
        <ele>679.79998779296875</ele>
        <time>2026-08-21T19:05:02.000Z</time>
        <extensions>
          <ns3:TrackPointExtension>
            <ns3:hr>135</ns3:hr>
            <ns3:cad>0</ns3:cad>
          </ns3:TrackPointExtension>
        </extensions>
      </trkpt>
      <trkpt lat="45.347444973886013031005859375" lon="-70.99056839011609554290771484375">
        <ele>679.79998779296875</ele>
        <time>2026-08-21T19:05:03.000Z</time>
        <extensions>
          <ns3:TrackPointExtension>
            <ns3:hr>135</ns3:hr>
            <ns3:cad>0</ns3:cad>
          </ns3:TrackPointExtension>
        </extensions>
      </trkpt>
      <trkpt lat="45.34744187258183956146240234375" lon="-70.99057442508637905120849609375">
        <ele>680</ele>
        <time>2026-08-21T19:05:04.000Z</time>
        <extensions>
          <ns3:TrackPointExtension>
            <ns3:hr>136</ns3:hr>
            <ns3:cad>0</ns3:cad>
          </ns3:TrackPointExtension>
        </extensions>
      </trkpt>
      <trkpt lat="45.34744354896247386932373046875" lon="-70.9905921109020709991455078125">
        <ele>680.20001220703125</ele>
        <time>2026-08-21T19:05:05.000Z</time>
        <extensions>
          <ns3:TrackPointExtension>
            <ns3:hr>136</ns3:hr>
            <ns3:cad>0</ns3:cad>
          </ns3:TrackPointExtension>
        </extensions>
      </trkpt>
      <trkpt lat="45.34744187258183956146240234375" lon="-70.99060376174747943878173828125">
        <ele>680.4000244140625</ele>
        <time>2026-08-21T19:05:06.000Z</time>
        <extensions>
          <ns3:TrackPointExtension>
            <ns3:hr>136</ns3:hr>
            <ns3:cad>79</ns3:cad>
          </ns3:TrackPointExtension>
        </extensions>
      </trkpt>
      <trkpt lat="45.34744237549602985382080078125" lon="-70.99061633460223674774169921875">
        <ele>680.4000244140625</ele>
        <time>2026-08-21T19:05:07.000Z</time>
        <extensions>
          <ns3:TrackPointExtension>
            <ns3:hr>136</ns3:hr>
            <ns3:cad>79</ns3:cad>
          </ns3:TrackPointExtension>
        </extensions>
      </trkpt>
      <trkpt lat="45.34744455479085445404052734375" lon="-70.99061868153512477874755859375">
        <ele>680.5999755859375</ele>
        <time>2026-08-21T19:05:08.000Z</time>
        <extensions>
          <ns3:TrackPointExtension>
            <ns3:hr>137</ns3:hr>
            <ns3:cad>79</ns3:cad>
          </ns3:TrackPointExtension>
        </extensions>
      </trkpt>
      <trkpt lat="45.34744597971439361572265625" lon="-70.99062211811542510986328125">
        <ele>680.79998779296875</ele>
        <time>2026-08-21T19:05:09.000Z</time>
        <extensions>
          <ns3:TrackPointExtension>
            <ns3:hr>137</ns3:hr>
            <ns3:cad>79</ns3:cad>
          </ns3:TrackPointExtension>
        </extensions>
      </trkpt>
      <trkpt lat="45.3474491648375988006591796875" lon="-70.990633182227611541748046875">
        <ele>681</ele>
        <time>2026-08-21T19:05:10.000Z</time>
        <extensions>
          <ns3:TrackPointExtension>
            <ns3:hr>137</ns3:hr>
            <ns3:cad>79</ns3:cad>
          </ns3:TrackPointExtension>
        </extensions>
      </trkpt>
      <trkpt lat="45.3474495001137256622314453125" lon="-70.99063712172210216522216796875">
        <ele>681.20001220703125</ele>
        <time>2026-08-21T19:05:11.000Z</time>
        <extensions>
          <ns3:TrackPointExtension>
            <ns3:hr>136</ns3:hr>
            <ns3:cad>0</ns3:cad>
          </ns3:TrackPointExtension>
        </extensions>
      </trkpt>
      <trkpt lat="45.34745025448501110076904296875" lon="-70.99063661880791187286376953125">
        <ele>681.4000244140625</ele>
        <time>2026-08-21T19:05:12.000Z</time>
        <extensions>
          <ns3:TrackPointExtension>
            <ns3:hr>136</ns3:hr>
            <ns3:cad>0</ns3:cad>
          </ns3:TrackPointExtension>
        </extensions>
      </trkpt>
      <trkpt lat="45.34745394252240657806396484375" lon="-70.99064298905432224273681640625">
        <ele>681.5999755859375</ele>
        <time>2026-08-21T19:05:13.000Z</time>
        <extensions>
          <ns3:TrackPointExtension>
            <ns3:hr>136</ns3:hr>
            <ns3:cad>0</ns3:cad>
          </ns3:TrackPointExtension>
        </extensions>
      </trkpt>
      <trkpt lat="45.3474568761885166168212890625" lon="-70.9906477667391300201416015625">
        <ele>681.79998779296875</ele>
        <time>2026-08-21T19:05:14.000Z</time>
        <extensions>
          <ns3:TrackPointExtension>
            <ns3:hr>136</ns3:hr>
            <ns3:cad>0</ns3:cad>
          </ns3:TrackPointExtension>
        </extensions>
      </trkpt>
      <trkpt lat="45.34745679236948490142822265625" lon="-70.99065053276717662811279296875">
        <ele>682</ele>
        <time>2026-08-21T19:05:15.000Z</time>
        <extensions>
          <ns3:TrackPointExtension>
            <ns3:hr>136</ns3:hr>
            <ns3:cad>0</ns3:cad>
          </ns3:TrackPointExtension>
        </extensions>
      </trkpt>
      <trkpt lat="45.3474605642259120941162109375" lon="-70.9906598366796970367431640625">
        <ele>682</ele>
        <time>2026-08-21T19:05:16.000Z</time>
        <extensions>
          <ns3:TrackPointExtension>
            <ns3:hr>136</ns3:hr>
            <ns3:cad>0</ns3:cad>
          </ns3:TrackPointExtension>
        </extensions>
      </trkpt>
      <trkpt lat="45.347463749349117279052734375" lon="-70.99065790884196758270263671875">
        <ele>682.20001220703125</ele>
        <time>2026-08-21T19:05:17.000Z</time>
        <extensions>
          <ns3:TrackPointExtension>
            <ns3:hr>135</ns3:hr>
            <ns3:cad>0</ns3:cad>
          </ns3:TrackPointExtension>
        </extensions>
      </trkpt>
      <trkpt lat="45.3474665991961956024169921875" lon="-70.9906595014035701751708984375">
        <ele>682.4000244140625</ele>
        <time>2026-08-21T19:05:18.000Z</time>
        <extensions>
          <ns3:TrackPointExtension>
            <ns3:hr>135</ns3:hr>
            <ns3:cad>0</ns3:cad>
          </ns3:TrackPointExtension>
        </extensions>
      </trkpt>
      <trkpt lat="45.34746215678751468658447265625" lon="-70.99065841175615787506103515625">
        <ele>682.5999755859375</ele>
        <time>2026-08-21T19:05:19.000Z</time>
        <extensions>
          <ns3:TrackPointExtension>
            <ns3:hr>135</ns3:hr>
            <ns3:cad>68</ns3:cad>
          </ns3:TrackPointExtension>
        </extensions>
      </trkpt>
      <trkpt lat="45.347460396587848663330078125" lon="-70.99066813476383686065673828125">
        <ele>683</ele>
        <time>2026-08-21T19:05:20.000Z</time>
        <extensions>
          <ns3:TrackPointExtension>
            <ns3:hr>135</ns3:hr>
            <ns3:cad>68</ns3:cad>
          </ns3:TrackPointExtension>
        </extensions>
      </trkpt>
      <trkpt lat="45.34745939075946807861328125" lon="-70.99067886359989643096923828125">
        <ele>683.20001220703125</ele>
        <time>2026-08-21T19:05:21.000Z</time>
        <extensions>
          <ns3:TrackPointExtension>
            <ns3:hr>135</ns3:hr>
            <ns3:cad>68</ns3:cad>
          </ns3:TrackPointExtension>
        </extensions>
      </trkpt>
      <trkpt lat="45.347457714378833770751953125" lon="-70.990683473646640777587890625">
        <ele>683.4000244140625</ele>
        <time>2026-08-21T19:05:22.000Z</time>
        <extensions>
          <ns3:TrackPointExtension>
            <ns3:hr>134</ns3:hr>
            <ns3:cad>68</ns3:cad>
          </ns3:TrackPointExtension>
        </extensions>
      </trkpt>
      <trkpt lat="45.34745863638818264007568359375" lon="-70.9906903468072414398193359375">
        <ele>683.5999755859375</ele>
        <time>2026-08-21T19:05:23.000Z</time>
        <extensions>
          <ns3:TrackPointExtension>
            <ns3:hr>135</ns3:hr>
            <ns3:cad>68</ns3:cad>
          </ns3:TrackPointExtension>
        </extensions>
      </trkpt>
      <trkpt lat="45.3474625758826732635498046875" lon="-70.99069613032042980194091796875">
        <ele>683.5999755859375</ele>
        <time>2026-08-21T19:05:24.000Z</time>
        <extensions>
          <ns3:TrackPointExtension>
            <ns3:hr>134</ns3:hr>
            <ns3:cad>0</ns3:cad>
          </ns3:TrackPointExtension>
        </extensions>
      </trkpt>
      <trkpt lat="45.3474627435207366943359375" lon="-70.99070032127201557159423828125">
        <ele>683.79998779296875</ele>
        <time>2026-08-21T19:05:25.000Z</time>
        <extensions>
          <ns3:TrackPointExtension>
            <ns3:hr>134</ns3:hr>
            <ns3:cad>0</ns3:cad>
          </ns3:TrackPointExtension>
        </extensions>
      </trkpt>
      <trkpt lat="45.34745494835078716278076171875" lon="-70.99070183001458644866943359375">
        <ele>684</ele>
        <time>2026-08-21T19:05:26.000Z</time>
        <extensions>
          <ns3:TrackPointExtension>
            <ns3:hr>134</ns3:hr>
            <ns3:cad>0</ns3:cad>
          </ns3:TrackPointExtension>
        </extensions>
      </trkpt>
      <trkpt lat="45.3474565409123897552490234375" lon="-70.99070585332810878753662109375">
        <ele>684.20001220703125</ele>
        <time>2026-08-21T19:05:27.000Z</time>
        <extensions>
          <ns3:TrackPointExtension>
            <ns3:hr>135</ns3:hr>
            <ns3:cad>0</ns3:cad>
          </ns3:TrackPointExtension>
        </extensions>
      </trkpt>
      <trkpt lat="45.34745494835078716278076171875" lon="-70.9907113015651702880859375">
        <ele>684.20001220703125</ele>
        <time>2026-08-21T19:05:28.000Z</time>
        <extensions>
          <ns3:TrackPointExtension>
            <ns3:hr>135</ns3:hr>
            <ns3:cad>0</ns3:cad>
          </ns3:TrackPointExtension>
        </extensions>
      </trkpt>
      <trkpt lat="45.34745276905596256256103515625" lon="-70.99071708507835865020751953125">
        <ele>684.4000244140625</ele>
        <time>2026-08-21T19:05:29.000Z</time>
        <extensions>
          <ns3:TrackPointExtension>
            <ns3:hr>135</ns3:hr>
            <ns3:cad>0</ns3:cad>
          </ns3:TrackPointExtension>
        </extensions>
      </trkpt>
      <trkpt lat="45.34745310433208942413330078125" lon="-70.990726053714752197265625">
        <ele>684.5999755859375</ele>
        <time>2026-08-21T19:05:30.000Z</time>
        <extensions>
          <ns3:TrackPointExtension>
            <ns3:hr>135</ns3:hr>
            <ns3:cad>0</ns3:cad>
          </ns3:TrackPointExtension>
        </extensions>
      </trkpt>
      <trkpt lat="45.3474531881511211395263671875" lon="-70.99073611199855804443359375">
        <ele>684.5999755859375</ele>
        <time>2026-08-21T19:05:31.000Z</time>
        <extensions>
          <ns3:TrackPointExtension>
            <ns3:hr>136</ns3:hr>
            <ns3:cad>0</ns3:cad>
          </ns3:TrackPointExtension>
        </extensions>
      </trkpt>
      <trkpt lat="45.34745402634143829345703125" lon="-70.99074122495949268341064453125">
        <ele>684.79998779296875</ele>
        <time>2026-08-21T19:05:32.000Z</time>
        <extensions>
          <ns3:TrackPointExtension>
            <ns3:hr>136</ns3:hr>
            <ns3:cad>0</ns3:cad>
          </ns3:TrackPointExtension>
        </extensions>
      </trkpt>
      <trkpt lat="45.34745645709335803985595703125" lon="-70.99074809812009334564208984375">
        <ele>685</ele>
        <time>2026-08-21T19:05:33.000Z</time>
        <extensions>
          <ns3:TrackPointExtension>
            <ns3:hr>135</ns3:hr>
            <ns3:cad>0</ns3:cad>
          </ns3:TrackPointExtension>
        </extensions>
      </trkpt>
      <trkpt lat="45.3474558703601360321044921875" lon="-70.9907567314803600311279296875">
        <ele>685.20001220703125</ele>
        <time>2026-08-21T19:05:34.000Z</time>
        <extensions>
          <ns3:TrackPointExtension>
            <ns3:hr>135</ns3:hr>
            <ns3:cad>0</ns3:cad>
          </ns3:TrackPointExtension>
        </extensions>
      </trkpt>
      <trkpt lat="45.34745578654110431671142578125" lon="-70.99076092243194580078125">
        <ele>685.4000244140625</ele>
        <time>2026-08-21T19:05:35.000Z</time>
        <extensions>
          <ns3:TrackPointExtension>
            <ns3:hr>136</ns3:hr>
            <ns3:cad>0</ns3:cad>
          </ns3:TrackPointExtension>
        </extensions>
      </trkpt>
      <trkpt lat="45.3474600613117218017578125" lon="-70.99075488746166229248046875">
        <ele>685.5999755859375</ele>
        <time>2026-08-21T19:05:36.000Z</time>
        <extensions>
          <ns3:TrackPointExtension>
            <ns3:hr>136</ns3:hr>
            <ns3:cad>0</ns3:cad>
          </ns3:TrackPointExtension>
        </extensions>
      </trkpt>
      <trkpt lat="45.34746182151138782501220703125" lon="-70.99076050333678722381591796875">
        <ele>685.79998779296875</ele>
        <time>2026-08-21T19:05:37.000Z</time>
        <extensions>
          <ns3:TrackPointExtension>
            <ns3:hr>136</ns3:hr>
            <ns3:cad>0</ns3:cad>
          </ns3:TrackPointExtension>
        </extensions>
      </trkpt>
      <trkpt lat="45.34746483899652957916259765625" lon="-70.9907718189060688018798828125">
        <ele>686</ele>
        <time>2026-08-21T19:05:38.000Z</time>
        <extensions>
          <ns3:TrackPointExtension>
            <ns3:hr>136</ns3:hr>
            <ns3:cad>0</ns3:cad>
          </ns3:TrackPointExtension>
        </extensions>
      </trkpt>
      <trkpt lat="45.34746869467198848724365234375" lon="-70.99077827297151088714599609375">
        <ele>686.20001220703125</ele>
        <time>2026-08-21T19:05:39.000Z</time>
        <extensions>
          <ns3:TrackPointExtension>
            <ns3:hr>136</ns3:hr>
            <ns3:cad>0</ns3:cad>
          </ns3:TrackPointExtension>
        </extensions>
      </trkpt>
      <trkpt lat="45.34747221507132053375244140625" lon="-70.99077961407601833343505859375">
        <ele>686.20001220703125</ele>
        <time>2026-08-21T19:05:40.000Z</time>
        <extensions>
          <ns3:TrackPointExtension>
            <ns3:hr>136</ns3:hr>
            <ns3:cad>0</ns3:cad>
          </ns3:TrackPointExtension>
        </extensions>
      </trkpt>
      <trkpt lat="45.34747280180454254150390625" lon="-70.9907852299511432647705078125">
        <ele>686.4000244140625</ele>
        <time>2026-08-21T19:05:41.000Z</time>
        <extensions>
          <ns3:TrackPointExtension>
            <ns3:hr>136</ns3:hr>
            <ns3:cad>0</ns3:cad>
          </ns3:TrackPointExtension>
        </extensions>
      </trkpt>
      <trkpt lat="45.34747523255646228790283203125" lon="-70.99079721607267856597900390625">
        <ele>686.5999755859375</ele>
        <time>2026-08-21T19:05:42.000Z</time>
        <extensions>
          <ns3:TrackPointExtension>
            <ns3:hr>137</ns3:hr>
            <ns3:cad>0</ns3:cad>
          </ns3:TrackPointExtension>
        </extensions>
      </trkpt>
      <trkpt lat="45.3474749810993671417236328125" lon="-70.99080492742359638214111328125">
        <ele>686.79998779296875</ele>
        <time>2026-08-21T19:05:43.000Z</time>
        <extensions>
          <ns3:TrackPointExtension>
            <ns3:hr>136</ns3:hr>
            <ns3:cad>0</ns3:cad>
          </ns3:TrackPointExtension>
        </extensions>
      </trkpt>
      <trkpt lat="45.34747489728033542633056640625" lon="-70.99080945365130901336669921875">
        <ele>687</ele>
        <time>2026-08-21T19:05:44.000Z</time>
        <extensions>
          <ns3:TrackPointExtension>
            <ns3:hr>136</ns3:hr>
            <ns3:cad>0</ns3:cad>
          </ns3:TrackPointExtension>
        </extensions>
      </trkpt>
      <trkpt lat="45.3474706225097179412841796875" lon="-70.9908207692205905914306640625">
        <ele>687.4000244140625</ele>
        <time>2026-08-21T19:05:45.000Z</time>
        <extensions>
          <ns3:TrackPointExtension>
            <ns3:hr>136</ns3:hr>
            <ns3:cad>0</ns3:cad>
          </ns3:TrackPointExtension>
        </extensions>
      </trkpt>
      <trkpt lat="45.34747204743325710296630859375" lon="-70.9908291511237621307373046875">
        <ele>687.5999755859375</ele>
        <time>2026-08-21T19:05:46.000Z</time>
        <extensions>
          <ns3:TrackPointExtension>
            <ns3:hr>137</ns3:hr>
            <ns3:cad>0</ns3:cad>
          </ns3:TrackPointExtension>
        </extensions>
      </trkpt>
      <trkpt lat="45.34747271798551082611083984375" lon="-70.990833006799221038818359375">
        <ele>687.79998779296875</ele>
        <time>2026-08-21T19:05:47.000Z</time>
        <extensions>
          <ns3:TrackPointExtension>
            <ns3:hr>137</ns3:hr>
            <ns3:cad>0</ns3:cad>
          </ns3:TrackPointExtension>
        </extensions>
      </trkpt>
      <trkpt lat="45.34747355617582798004150390625" lon="-70.9908361919224262237548828125">
        <ele>687.79998779296875</ele>
        <time>2026-08-21T19:05:48.000Z</time>
        <extensions>
          <ns3:TrackPointExtension>
            <ns3:hr>137</ns3:hr>
            <ns3:cad>0</ns3:cad>
          </ns3:TrackPointExtension>
        </extensions>
      </trkpt>
      <trkpt lat="45.34747372381389141082763671875" lon="-70.99083895795047283172607421875">
        <ele>688</ele>
        <time>2026-08-21T19:05:49.000Z</time>
        <extensions>
          <ns3:TrackPointExtension>
            <ns3:hr>136</ns3:hr>
            <ns3:cad>0</ns3:cad>
          </ns3:TrackPointExtension>
        </extensions>
      </trkpt>
      <trkpt lat="45.3474733047187328338623046875" lon="-70.99084264598786830902099609375">
        <ele>688.20001220703125</ele>
        <time>2026-08-21T19:05:50.000Z</time>
        <extensions>
          <ns3:TrackPointExtension>
            <ns3:hr>136</ns3:hr>
            <ns3:cad>0</ns3:cad>
          </ns3:TrackPointExtension>
        </extensions>
      </trkpt>
      <trkpt lat="45.347471125423908233642578125" lon="-70.99084985442459583282470703125">
        <ele>688.4000244140625</ele>
        <time>2026-08-21T19:05:51.000Z</time>
        <extensions>
          <ns3:TrackPointExtension>
            <ns3:hr>136</ns3:hr>
            <ns3:cad>0</ns3:cad>
          </ns3:TrackPointExtension>
        </extensions>
      </trkpt>
      <trkpt lat="45.34746869467198848724365234375" lon="-70.9908630140125751495361328125">
        <ele>688.5999755859375</ele>
        <time>2026-08-21T19:05:52.000Z</time>
        <extensions>
          <ns3:TrackPointExtension>
            <ns3:hr>136</ns3:hr>
            <ns3:cad>0</ns3:cad>
          </ns3:TrackPointExtension>
        </extensions>
      </trkpt>
      <trkpt lat="45.347466431558132171630859375" lon="-70.9908770956099033355712890625">
        <ele>688.79998779296875</ele>
        <time>2026-08-21T19:05:53.000Z</time>
        <extensions>
          <ns3:TrackPointExtension>
            <ns3:hr>136</ns3:hr>
            <ns3:cad>0</ns3:cad>
          </ns3:TrackPointExtension>
        </extensions>
      </trkpt>
      <trkpt lat="45.34746366553008556365966796875" lon="-70.99088874645531177520751953125">
        <ele>688.79998779296875</ele>
        <time>2026-08-21T19:05:54.000Z</time>
        <extensions>
          <ns3:TrackPointExtension>
            <ns3:hr>136</ns3:hr>
            <ns3:cad>0</ns3:cad>
          </ns3:TrackPointExtension>
        </extensions>
      </trkpt>
      <trkpt lat="45.34746743738651275634765625" lon="-70.99088975228369235992431640625">
        <ele>689</ele>
        <time>2026-08-21T19:05:55.000Z</time>
        <extensions>
          <ns3:TrackPointExtension>
            <ns3:hr>137</ns3:hr>
            <ns3:cad>0</ns3:cad>
          </ns3:TrackPointExtension>
        </extensions>
      </trkpt>
      <trkpt lat="45.34747037105262279510498046875" lon="-70.99090115167200565338134765625">
        <ele>689.20001220703125</ele>
        <time>2026-08-21T19:05:56.000Z</time>
        <extensions>
          <ns3:TrackPointExtension>
            <ns3:hr>136</ns3:hr>
            <ns3:cad>0</ns3:cad>
          </ns3:TrackPointExtension>
        </extensions>
      </trkpt>
      <trkpt lat="45.3474709577858448028564453125" lon="-70.99090852774679660797119140625">
        <ele>689.4000244140625</ele>
        <time>2026-08-21T19:05:57.000Z</time>
        <extensions>
          <ns3:TrackPointExtension>
            <ns3:hr>137</ns3:hr>
            <ns3:cad>0</ns3:cad>
          </ns3:TrackPointExtension>
        </extensions>
      </trkpt>
      <trkpt lat="45.34746785648167133331298828125" lon="-70.9909193404018878936767578125">
        <ele>689.5999755859375</ele>
        <time>2026-08-21T19:05:58.000Z</time>
        <extensions>
          <ns3:TrackPointExtension>
            <ns3:hr>137</ns3:hr>
            <ns3:cad>0</ns3:cad>
          </ns3:TrackPointExtension>
        </extensions>
      </trkpt>
      <trkpt lat="45.34746819175779819488525390625" lon="-70.99092680029571056365966796875">
        <ele>689.79998779296875</ele>
        <time>2026-08-21T19:05:59.000Z</time>
        <extensions>
          <ns3:TrackPointExtension>
            <ns3:hr>138</ns3:hr>
            <ns3:cad>0</ns3:cad>
          </ns3:TrackPointExtension>
        </extensions>
      </trkpt>
      <trkpt lat="45.347469784319400787353515625" lon="-70.990934260189533233642578125">
        <ele>689.79998779296875</ele>
        <time>2026-08-21T19:06:00.000Z</time>
        <extensions>
          <ns3:TrackPointExtension>
            <ns3:hr>138</ns3:hr>
            <ns3:cad>0</ns3:cad>
          </ns3:TrackPointExtension>
        </extensions>
      </trkpt>
      <trkpt lat="45.34747070632874965667724609375" lon="-70.9909421391785144805908203125">
        <ele>690</ele>
        <time>2026-08-21T19:06:01.000Z</time>
        <extensions>
          <ns3:TrackPointExtension>
            <ns3:hr>138</ns3:hr>
            <ns3:cad>0</ns3:cad>
          </ns3:TrackPointExtension>
        </extensions>
      </trkpt>
      <trkpt lat="45.347471125423908233642578125" lon="-70.99095311947166919708251953125">
        <ele>690.20001220703125</ele>
        <time>2026-08-21T19:06:02.000Z</time>
        <extensions>
          <ns3:TrackPointExtension>
            <ns3:hr>138</ns3:hr>
            <ns3:cad>0</ns3:cad>
          </ns3:TrackPointExtension>
        </extensions>
      </trkpt>
      <trkpt lat="45.34746936522424221038818359375" lon="-70.99096435122191905975341796875">
        <ele>690.4000244140625</ele>
        <time>2026-08-21T19:06:03.000Z</time>
        <extensions>
          <ns3:TrackPointExtension>
            <ns3:hr>138</ns3:hr>
            <ns3:cad>0</ns3:cad>
          </ns3:TrackPointExtension>
        </extensions>
      </trkpt>
      <trkpt lat="45.34746886231005191802978515625" lon="-70.9909689612686634063720703125">
        <ele>690.5999755859375</ele>
        <time>2026-08-21T19:06:04.000Z</time>
        <extensions>
          <ns3:TrackPointExtension>
            <ns3:hr>138</ns3:hr>
            <ns3:cad>0</ns3:cad>
          </ns3:TrackPointExtension>
        </extensions>
      </trkpt>
      <trkpt lat="45.34747053869068622589111328125" lon="-70.9909803606569766998291015625">
        <ele>690.79998779296875</ele>
        <time>2026-08-21T19:06:05.000Z</time>
        <extensions>
          <ns3:TrackPointExtension>
            <ns3:hr>138</ns3:hr>
            <ns3:cad>0</ns3:cad>
          </ns3:TrackPointExtension>
        </extensions>
      </trkpt>
      <trkpt lat="45.34747053869068622589111328125" lon="-70.99098631180822849273681640625">
        <ele>691</ele>
        <time>2026-08-21T19:06:06.000Z</time>
        <extensions>
          <ns3:TrackPointExtension>
            <ns3:hr>138</ns3:hr>
            <ns3:cad>0</ns3:cad>
          </ns3:TrackPointExtension>
        </extensions>
      </trkpt>
      <trkpt lat="45.34746944904327392578125" lon="-70.99099318496882915496826171875">
        <ele>691</ele>
        <time>2026-08-21T19:06:07.000Z</time>
        <extensions>
          <ns3:TrackPointExtension>
            <ns3:hr>138</ns3:hr>
            <ns3:cad>0</ns3:cad>
          </ns3:TrackPointExtension>
        </extensions>
      </trkpt>
      <trkpt lat="45.34746902994811534881591796875" lon="-70.991005338728427886962890625">
        <ele>691.20001220703125</ele>
        <time>2026-08-21T19:06:08.000Z</time>
        <extensions>
          <ns3:TrackPointExtension>
            <ns3:hr>138</ns3:hr>
            <ns3:cad>0</ns3:cad>
          </ns3:TrackPointExtension>
        </extensions>
      </trkpt>
      <trkpt lat="45.3474679403007030487060546875" lon="-70.99101145751774311065673828125">
        <ele>691.4000244140625</ele>
        <time>2026-08-21T19:06:09.000Z</time>
        <extensions>
          <ns3:TrackPointExtension>
            <ns3:hr>138</ns3:hr>
            <ns3:cad>0</ns3:cad>
          </ns3:TrackPointExtension>
        </extensions>
      </trkpt>
      <trkpt lat="45.34746618010103702545166015625" lon="-70.99101749248802661895751953125">
        <ele>691.5999755859375</ele>
        <time>2026-08-21T19:06:10.000Z</time>
        <extensions>
          <ns3:TrackPointExtension>
            <ns3:hr>139</ns3:hr>
            <ns3:cad>0</ns3:cad>
          </ns3:TrackPointExtension>
        </extensions>
      </trkpt>
      <trkpt lat="45.347465090453624725341796875" lon="-70.9910212643444538116455078125">
        <ele>691.79998779296875</ele>
        <time>2026-08-21T19:06:11.000Z</time>
        <extensions>
          <ns3:TrackPointExtension>
            <ns3:hr>138</ns3:hr>
            <ns3:cad>0</ns3:cad>
          </ns3:TrackPointExtension>
        </extensions>
      </trkpt>
      <trkpt lat="45.34746852703392505645751953125" lon="-70.99103375338017940521240234375">
        <ele>692</ele>
        <time>2026-08-21T19:06:12.000Z</time>
        <extensions>
          <ns3:TrackPointExtension>
            <ns3:hr>138</ns3:hr>
            <ns3:cad>0</ns3:cad>
          </ns3:TrackPointExtension>
        </extensions>
      </trkpt>
      <trkpt lat="45.34747238270938396453857421875" lon="-70.99104062654078006744384765625">
        <ele>692.20001220703125</ele>
        <time>2026-08-21T19:06:13.000Z</time>
        <extensions>
          <ns3:TrackPointExtension>
            <ns3:hr>139</ns3:hr>
            <ns3:cad>0</ns3:cad>
          </ns3:TrackPointExtension>
        </extensions>
      </trkpt>
      <trkpt lat="45.34747120924293994903564453125" lon="-70.99104381166398525238037109375">
        <ele>692.4000244140625</ele>
        <time>2026-08-21T19:06:14.000Z</time>
        <extensions>
          <ns3:TrackPointExtension>
            <ns3:hr>139</ns3:hr>
            <ns3:cad>0</ns3:cad>
          </ns3:TrackPointExtension>
        </extensions>
      </trkpt>
      <trkpt lat="45.3474672697484493255615234375" lon="-70.99105822853744029998779296875">
        <ele>692.5999755859375</ele>
        <time>2026-08-21T19:06:15.000Z</time>
        <extensions>
          <ns3:TrackPointExtension>
            <ns3:hr>138</ns3:hr>
            <ns3:cad>0</ns3:cad>
          </ns3:TrackPointExtension>
        </extensions>
      </trkpt>
      <trkpt lat="45.347461737692356109619140625" lon="-70.9910561330616474151611328125">
        <ele>692.79998779296875</ele>
        <time>2026-08-21T19:06:16.000Z</time>
        <extensions>
          <ns3:TrackPointExtension>
            <ns3:hr>138</ns3:hr>
            <ns3:cad>0</ns3:cad>
          </ns3:TrackPointExtension>
        </extensions>
      </trkpt>
      <trkpt lat="45.3474605642259120941162109375" lon="-70.99106200039386749267578125">
        <ele>693</ele>
        <time>2026-08-21T19:06:17.000Z</time>
        <extensions>
          <ns3:TrackPointExtension>
            <ns3:hr>139</ns3:hr>
            <ns3:cad>0</ns3:cad>
          </ns3:TrackPointExtension>
        </extensions>
      </trkpt>
      <trkpt lat="45.34746048040688037872314453125" lon="-70.991064347326755523681640625">
        <ele>693.20001220703125</ele>
        <time>2026-08-21T19:06:18.000Z</time>
        <extensions>
          <ns3:TrackPointExtension>
            <ns3:hr>139</ns3:hr>
            <ns3:cad>0</ns3:cad>
          </ns3:TrackPointExtension>
        </extensions>
      </trkpt>
      <trkpt lat="45.34745679236948490142822265625" lon="-70.99107717163860797882080078125">
        <ele>693.4000244140625</ele>
        <time>2026-08-21T19:06:19.000Z</time>
        <extensions>
          <ns3:TrackPointExtension>
            <ns3:hr>139</ns3:hr>
            <ns3:cad>0</ns3:cad>
          </ns3:TrackPointExtension>
        </extensions>
      </trkpt>
      <trkpt lat="45.347456037998199462890625" lon="-70.9910950250923633575439453125">
        <ele>693.5999755859375</ele>
        <time>2026-08-21T19:06:20.000Z</time>
        <extensions>
          <ns3:TrackPointExtension>
            <ns3:hr>140</ns3:hr>
            <ns3:cad>0</ns3:cad>
          </ns3:TrackPointExtension>
        </extensions>
      </trkpt>
      <trkpt lat="45.347453691065311431884765625" lon="-70.9911074303090572357177734375">
        <ele>693.5999755859375</ele>
        <time>2026-08-21T19:06:21.000Z</time>
        <extensions>
          <ns3:TrackPointExtension>
            <ns3:hr>140</ns3:hr>
            <ns3:cad>0</ns3:cad>
          </ns3:TrackPointExtension>
        </extensions>
      </trkpt>
      <trkpt lat="45.34745343960821628570556640625" lon="-70.99112033843994140625">
        <ele>693.79998779296875</ele>
        <time>2026-08-21T19:06:22.000Z</time>
        <extensions>
          <ns3:TrackPointExtension>
            <ns3:hr>140</ns3:hr>
            <ns3:cad>0</ns3:cad>
          </ns3:TrackPointExtension>
        </extensions>
      </trkpt>
      <trkpt lat="45.3474531881511211395263671875" lon="-70.99112846888601779937744140625">
        <ele>693.79998779296875</ele>
        <time>2026-08-21T19:06:23.000Z</time>
        <extensions>
          <ns3:TrackPointExtension>
            <ns3:hr>140</ns3:hr>
            <ns3:cad>0</ns3:cad>
          </ns3:TrackPointExtension>
        </extensions>
      </trkpt>
      <trkpt lat="45.34745327197015285491943359375" lon="-70.99114020355045795440673828125">
        <ele>694</ele>
        <time>2026-08-21T19:06:24.000Z</time>
        <extensions>
          <ns3:TrackPointExtension>
            <ns3:hr>140</ns3:hr>
            <ns3:cad>0</ns3:cad>
          </ns3:TrackPointExtension>
        </extensions>
      </trkpt>
      <trkpt lat="45.3474520146846771240234375" lon="-70.99115059711039066314697265625">
        <ele>694.20001220703125</ele>
        <time>2026-08-21T19:06:25.000Z</time>
        <extensions>
          <ns3:TrackPointExtension>
            <ns3:hr>140</ns3:hr>
            <ns3:cad>42</ns3:cad>
          </ns3:TrackPointExtension>
        </extensions>
      </trkpt>
      <trkpt lat="45.34745243377983570098876953125" lon="-70.99115311168134212493896484375">
        <ele>694.4000244140625</ele>
        <time>2026-08-21T19:06:26.000Z</time>
        <extensions>
          <ns3:TrackPointExtension>
            <ns3:hr>141</ns3:hr>
            <ns3:cad>42</ns3:cad>
          </ns3:TrackPointExtension>
        </extensions>
      </trkpt>
      <trkpt lat="45.34745176322758197784423828125" lon="-70.99114875309169292449951171875">
        <ele>694.5999755859375</ele>
        <time>2026-08-21T19:06:27.000Z</time>
        <extensions>
          <ns3:TrackPointExtension>
            <ns3:hr>141</ns3:hr>
            <ns3:cad>42</ns3:cad>
          </ns3:TrackPointExtension>
        </extensions>
      </trkpt>
      <trkpt lat="45.34745109267532825469970703125" lon="-70.9911597333848476409912109375">
        <ele>694.79998779296875</ele>
        <time>2026-08-21T19:06:28.000Z</time>
        <extensions>
          <ns3:TrackPointExtension>
            <ns3:hr>142</ns3:hr>
            <ns3:cad>0</ns3:cad>
          </ns3:TrackPointExtension>
        </extensions>
      </trkpt>
      <trkpt lat="45.3474518470466136932373046875" lon="-70.991166941821575164794921875">
        <ele>695</ele>
        <time>2026-08-21T19:06:29.000Z</time>
        <extensions>
          <ns3:TrackPointExtension>
            <ns3:hr>141</ns3:hr>
            <ns3:cad>0</ns3:cad>
          </ns3:TrackPointExtension>
        </extensions>
      </trkpt>
      <trkpt lat="45.3474533557891845703125" lon="-70.9911739826202392578125">
        <ele>695.20001220703125</ele>
        <time>2026-08-21T19:06:30.000Z</time>
        <extensions>
          <ns3:TrackPointExtension>
            <ns3:hr>141</ns3:hr>
            <ns3:cad>0</ns3:cad>
          </ns3:TrackPointExtension>
        </extensions>
      </trkpt>
      <trkpt lat="45.3474551998078823089599609375" lon="-70.99118127487599849700927734375">
        <ele>695.4000244140625</ele>
        <time>2026-08-21T19:06:31.000Z</time>
        <extensions>
          <ns3:TrackPointExtension>
            <ns3:hr>142</ns3:hr>
            <ns3:cad>0</ns3:cad>
          </ns3:TrackPointExtension>
        </extensions>
      </trkpt>
      <trkpt lat="45.3474545292556285858154296875" lon="-70.99118898622691631317138671875">
        <ele>695.5999755859375</ele>
        <time>2026-08-21T19:06:32.000Z</time>
        <extensions>
          <ns3:TrackPointExtension>
            <ns3:hr>142</ns3:hr>
            <ns3:cad>0</ns3:cad>
          </ns3:TrackPointExtension>
        </extensions>
      </trkpt>
      <trkpt lat="45.3474558703601360321044921875" lon="-70.99119217135012149810791015625">
        <ele>695.79998779296875</ele>
        <time>2026-08-21T19:06:33.000Z</time>
        <extensions>
          <ns3:TrackPointExtension>
            <ns3:hr>143</ns3:hr>
            <ns3:cad>0</ns3:cad>
          </ns3:TrackPointExtension>
        </extensions>
      </trkpt>
      <trkpt lat="45.347460396587848663330078125" lon="-70.9911996312439441680908203125">
        <ele>695.79998779296875</ele>
        <time>2026-08-21T19:06:34.000Z</time>
        <extensions>
          <ns3:TrackPointExtension>
            <ns3:hr>144</ns3:hr>
            <ns3:cad>0</ns3:cad>
          </ns3:TrackPointExtension>
        </extensions>
      </trkpt>
      <trkpt lat="45.347461737692356109619140625" lon="-70.99121044389903545379638671875">
        <ele>696</ele>
        <time>2026-08-21T19:06:35.000Z</time>
        <extensions>
          <ns3:TrackPointExtension>
            <ns3:hr>145</ns3:hr>
            <ns3:cad>0</ns3:cad>
          </ns3:TrackPointExtension>
        </extensions>
      </trkpt>
      <trkpt lat="45.34745645709335803985595703125" lon="-70.99121010862290859222412109375">
        <ele>696.20001220703125</ele>
        <time>2026-08-21T19:06:36.000Z</time>
        <extensions>
          <ns3:TrackPointExtension>
            <ns3:hr>145</ns3:hr>
            <ns3:cad>0</ns3:cad>
          </ns3:TrackPointExtension>
        </extensions>
      </trkpt>
      <trkpt lat="45.3474493324756622314453125" lon="-70.99121781997382640838623046875">
        <ele>696.4000244140625</ele>
        <time>2026-08-21T19:06:37.000Z</time>
        <extensions>
          <ns3:TrackPointExtension>
            <ns3:hr>144</ns3:hr>
            <ns3:cad>0</ns3:cad>
          </ns3:TrackPointExtension>
        </extensions>
      </trkpt>
      <trkpt lat="45.3474481590092182159423828125" lon="-70.99122066982090473175048828125">
        <ele>696.5999755859375</ele>
        <time>2026-08-21T19:06:38.000Z</time>
        <extensions>
          <ns3:TrackPointExtension>
            <ns3:hr>144</ns3:hr>
            <ns3:cad>0</ns3:cad>
          </ns3:TrackPointExtension>
        </extensions>
      </trkpt>
      <trkpt lat="45.34745042212307453155517578125" lon="-70.9912277944386005401611328125">
        <ele>696.5999755859375</ele>
        <time>2026-08-21T19:06:39.000Z</time>
        <extensions>
          <ns3:TrackPointExtension>
            <ns3:hr>143</ns3:hr>
            <ns3:cad>0</ns3:cad>
          </ns3:TrackPointExtension>
        </extensions>
      </trkpt>
      <trkpt lat="45.34745193086564540863037109375" lon="-70.9912343323230743408203125">
        <ele>696.79998779296875</ele>
        <time>2026-08-21T19:06:40.000Z</time>
        <extensions>
          <ns3:TrackPointExtension>
            <ns3:hr>142</ns3:hr>
            <ns3:cad>0</ns3:cad>
          </ns3:TrackPointExtension>
        </extensions>
      </trkpt>
      <trkpt lat="45.34745712764561176300048828125" lon="-70.99124313332140445709228515625">
        <ele>697</ele>
        <time>2026-08-21T19:06:41.000Z</time>
        <extensions>
          <ns3:TrackPointExtension>
            <ns3:hr>140</ns3:hr>
            <ns3:cad>0</ns3:cad>
          </ns3:TrackPointExtension>
        </extensions>
      </trkpt>
      <trkpt lat="45.3474592231214046478271484375" lon="-70.9912559576332569122314453125">
        <ele>697.20001220703125</ele>
        <time>2026-08-21T19:06:42.000Z</time>
        <extensions>
          <ns3:TrackPointExtension>
            <ns3:hr>141</ns3:hr>
            <ns3:cad>0</ns3:cad>
          </ns3:TrackPointExtension>
        </extensions>
      </trkpt>
      <trkpt lat="45.34745964221656322479248046875" lon="-70.99126794375479221343994140625">
        <ele>697.20001220703125</ele>
        <time>2026-08-21T19:06:43.000Z</time>
        <extensions>
          <ns3:TrackPointExtension>
            <ns3:hr>140</ns3:hr>
            <ns3:cad>0</ns3:cad>
          </ns3:TrackPointExtension>
        </extensions>
      </trkpt>
      <trkpt lat="45.34745913930237293243408203125" lon="-70.99127515219151973724365234375">
        <ele>697.4000244140625</ele>
        <time>2026-08-21T19:06:44.000Z</time>
        <extensions>
          <ns3:TrackPointExtension>
            <ns3:hr>140</ns3:hr>
            <ns3:cad>0</ns3:cad>
          </ns3:TrackPointExtension>
        </extensions>
      </trkpt>
      <trkpt lat="45.34745997749269008636474609375" lon="-70.99128353409469127655029296875">
        <ele>697.5999755859375</ele>
        <time>2026-08-21T19:06:45.000Z</time>
        <extensions>
          <ns3:TrackPointExtension>
            <ns3:hr>139</ns3:hr>
            <ns3:cad>0</ns3:cad>
          </ns3:TrackPointExtension>
        </extensions>
      </trkpt>
      <trkpt lat="45.347459726035594940185546875" lon="-70.99128604866564273834228515625">
        <ele>697.79998779296875</ele>
        <time>2026-08-21T19:06:46.000Z</time>
        <extensions>
          <ns3:TrackPointExtension>
            <ns3:hr>139</ns3:hr>
            <ns3:cad>0</ns3:cad>
          </ns3:TrackPointExtension>
        </extensions>
      </trkpt>
      <trkpt lat="45.34745612181723117828369140625" lon="-70.99129493348300457000732421875">
        <ele>698</ele>
        <time>2026-08-21T19:06:47.000Z</time>
        <extensions>
          <ns3:TrackPointExtension>
            <ns3:hr>139</ns3:hr>
            <ns3:cad>0</ns3:cad>
          </ns3:TrackPointExtension>
        </extensions>
      </trkpt>
      <trkpt lat="45.34745377488434314727783203125" lon="-70.99130348302423954010009765625">
        <ele>698.20001220703125</ele>
        <time>2026-08-21T19:06:48.000Z</time>
        <extensions>
          <ns3:TrackPointExtension>
            <ns3:hr>138</ns3:hr>
            <ns3:cad>0</ns3:cad>
          </ns3:TrackPointExtension>
        </extensions>
      </trkpt>
      <trkpt lat="45.34745268523693084716796875" lon="-70.9913176484405994415283203125">
        <ele>698.4000244140625</ele>
        <time>2026-08-21T19:06:49.000Z</time>
        <extensions>
          <ns3:TrackPointExtension>
            <ns3:hr>138</ns3:hr>
            <ns3:cad>0</ns3:cad>
          </ns3:TrackPointExtension>
        </extensions>
      </trkpt>
      <trkpt lat="45.34745293669402599334716796875" lon="-70.99132477305829524993896484375">
        <ele>698.5999755859375</ele>
        <time>2026-08-21T19:06:50.000Z</time>
        <extensions>
          <ns3:TrackPointExtension>
            <ns3:hr>137</ns3:hr>
            <ns3:cad>0</ns3:cad>
          </ns3:TrackPointExtension>
        </extensions>
      </trkpt>
      <trkpt lat="45.34745394252240657806396484375" lon="-70.9913367591798305511474609375">
        <ele>698.79998779296875</ele>
        <time>2026-08-21T19:06:51.000Z</time>
        <extensions>
          <ns3:TrackPointExtension>
            <ns3:hr>137</ns3:hr>
            <ns3:cad>0</ns3:cad>
          </ns3:TrackPointExtension>
        </extensions>
      </trkpt>
      <trkpt lat="45.347453020513057708740234375" lon="-70.9913417883217334747314453125">
        <ele>699</ele>
        <time>2026-08-21T19:06:52.000Z</time>
        <extensions>
          <ns3:TrackPointExtension>
            <ns3:hr>136</ns3:hr>
            <ns3:cad>0</ns3:cad>
          </ns3:TrackPointExtension>
        </extensions>
      </trkpt>
      <trkpt lat="45.3474498353898525238037109375" lon="-70.9913498349487781524658203125">
        <ele>699.20001220703125</ele>
        <time>2026-08-21T19:06:53.000Z</time>
        <extensions>
          <ns3:TrackPointExtension>
            <ns3:hr>135</ns3:hr>
            <ns3:cad>0</ns3:cad>
          </ns3:TrackPointExtension>
        </extensions>
      </trkpt>
      <trkpt lat="45.34745343960821628570556640625" lon="-70.991360731422901153564453125">
        <ele>699.20001220703125</ele>
        <time>2026-08-21T19:06:54.000Z</time>
        <extensions>
          <ns3:TrackPointExtension>
            <ns3:hr>134</ns3:hr>
            <ns3:cad>0</ns3:cad>
          </ns3:TrackPointExtension>
        </extensions>
      </trkpt>
      <trkpt lat="45.3474521823227405548095703125" lon="-70.9913605637848377227783203125">
        <ele>699.4000244140625</ele>
        <time>2026-08-21T19:06:55.000Z</time>
        <extensions>
          <ns3:TrackPointExtension>
            <ns3:hr>134</ns3:hr>
            <ns3:cad>0</ns3:cad>
          </ns3:TrackPointExtension>
        </extensions>
      </trkpt>
      <trkpt lat="45.34745536744594573974609375" lon="-70.9913603961467742919921875">
        <ele>699.5999755859375</ele>
        <time>2026-08-21T19:06:56.000Z</time>
        <extensions>
          <ns3:TrackPointExtension>
            <ns3:hr>133</ns3:hr>
            <ns3:cad>0</ns3:cad>
          </ns3:TrackPointExtension>
        </extensions>
      </trkpt>
      <trkpt lat="45.3474592231214046478271484375" lon="-70.99135645665228366851806640625">
        <ele>699.79998779296875</ele>
        <time>2026-08-21T19:06:57.000Z</time>
        <extensions>
          <ns3:TrackPointExtension>
            <ns3:hr>133</ns3:hr>
            <ns3:cad>0</ns3:cad>
          </ns3:TrackPointExtension>
        </extensions>
      </trkpt>
      <trkpt lat="45.347463078796863555908203125" lon="-70.99136131815612316131591796875">
        <ele>700</ele>
        <time>2026-08-21T19:06:58.000Z</time>
        <extensions>
          <ns3:TrackPointExtension>
            <ns3:hr>133</ns3:hr>
            <ns3:cad>0</ns3:cad>
          </ns3:TrackPointExtension>
        </extensions>
      </trkpt>
      <trkpt lat="45.347464084625244140625" lon="-70.99136467091739177703857421875">
        <ele>700.20001220703125</ele>
        <time>2026-08-21T19:06:59.000Z</time>
        <extensions>
          <ns3:TrackPointExtension>
            <ns3:hr>133</ns3:hr>
            <ns3:cad>0</ns3:cad>
          </ns3:TrackPointExtension>
        </extensions>
      </trkpt>
      <trkpt lat="45.34746207296848297119140625" lon="-70.99137003533542156219482421875">
        <ele>700.4000244140625</ele>
        <time>2026-08-21T19:07:00.000Z</time>
        <extensions>
          <ns3:TrackPointExtension>
            <ns3:hr>132</ns3:hr>
            <ns3:cad>0</ns3:cad>
          </ns3:TrackPointExtension>
        </extensions>
      </trkpt>
      <trkpt lat="45.347461067140102386474609375" lon="-70.99137581884860992431640625">
        <ele>700.5999755859375</ele>
        <time>2026-08-21T19:07:01.000Z</time>
        <extensions>
          <ns3:TrackPointExtension>
            <ns3:hr>132</ns3:hr>
            <ns3:cad>0</ns3:cad>
          </ns3:TrackPointExtension>
        </extensions>
      </trkpt>
      <trkpt lat="45.3474642522633075714111328125" lon="-70.99138386547565460205078125">
        <ele>700.79998779296875</ele>
        <time>2026-08-21T19:07:02.000Z</time>
        <extensions>
          <ns3:TrackPointExtension>
            <ns3:hr>132</ns3:hr>
            <ns3:cad>0</ns3:cad>
          </ns3:TrackPointExtension>
        </extensions>
      </trkpt>
      <trkpt lat="45.34746618010103702545166015625" lon="-70.991393588483333587646484375">
        <ele>700.79998779296875</ele>
        <time>2026-08-21T19:07:03.000Z</time>
        <extensions>
          <ns3:TrackPointExtension>
            <ns3:hr>132</ns3:hr>
            <ns3:cad>0</ns3:cad>
          </ns3:TrackPointExtension>
        </extensions>
      </trkpt>
      <trkpt lat="45.34746944904327392578125" lon="-70.991401635110378265380859375">
        <ele>701</ele>
        <time>2026-08-21T19:07:04.000Z</time>
        <extensions>
          <ns3:TrackPointExtension>
            <ns3:hr>132</ns3:hr>
            <ns3:cad>0</ns3:cad>
          </ns3:TrackPointExtension>
        </extensions>
      </trkpt>
      <trkpt lat="45.34747070632874965667724609375" lon="-70.99141010083258152008056640625">
        <ele>701.20001220703125</ele>
        <time>2026-08-21T19:07:05.000Z</time>
        <extensions>
          <ns3:TrackPointExtension>
            <ns3:hr>132</ns3:hr>
            <ns3:cad>0</ns3:cad>
          </ns3:TrackPointExtension>
        </extensions>
      </trkpt>
      <trkpt lat="45.347470454871654510498046875" lon="-70.991425774991512298583984375">
        <ele>701.4000244140625</ele>
        <time>2026-08-21T19:07:06.000Z</time>
        <extensions>
          <ns3:TrackPointExtension>
            <ns3:hr>132</ns3:hr>
            <ns3:cad>0</ns3:cad>
          </ns3:TrackPointExtension>
        </extensions>
      </trkpt>
      <trkpt lat="45.34747439436614513397216796875" lon="-70.99143742583692073822021484375">
        <ele>701.5999755859375</ele>
        <time>2026-08-21T19:07:07.000Z</time>
        <extensions>
          <ns3:TrackPointExtension>
            <ns3:hr>133</ns3:hr>
            <ns3:cad>0</ns3:cad>
          </ns3:TrackPointExtension>
        </extensions>
      </trkpt>
      <trkpt lat="45.34746467135846614837646484375" lon="-70.99142812192440032958984375">
        <ele>701.79998779296875</ele>
        <time>2026-08-21T19:07:08.000Z</time>
        <extensions>
          <ns3:TrackPointExtension>
            <ns3:hr>133</ns3:hr>
            <ns3:cad>0</ns3:cad>
          </ns3:TrackPointExtension>
        </extensions>
      </trkpt>
      <trkpt lat="45.34746249206364154815673828125" lon="-70.99142803810536861419677734375">
        <ele>702</ele>
        <time>2026-08-21T19:07:09.000Z</time>
        <extensions>
          <ns3:TrackPointExtension>
            <ns3:hr>133</ns3:hr>
            <ns3:cad>0</ns3:cad>
          </ns3:TrackPointExtension>
        </extensions>
      </trkpt>
      <trkpt lat="45.34745939075946807861328125" lon="-70.9914356656372547149658203125">
        <ele>702.20001220703125</ele>
        <time>2026-08-21T19:07:10.000Z</time>
        <extensions>
          <ns3:TrackPointExtension>
            <ns3:hr>133</ns3:hr>
            <ns3:cad>0</ns3:cad>
          </ns3:TrackPointExtension>
        </extensions>
      </trkpt>
      <trkpt lat="45.347456373274326324462890625" lon="-70.991449914872646331787109375">
        <ele>702.4000244140625</ele>
        <time>2026-08-21T19:07:11.000Z</time>
        <extensions>
          <ns3:TrackPointExtension>
            <ns3:hr>133</ns3:hr>
            <ns3:cad>0</ns3:cad>
          </ns3:TrackPointExtension>
        </extensions>
      </trkpt>
      <trkpt lat="45.34745696000754833221435546875" lon="-70.99145821295678615570068359375">
        <ele>702.5999755859375</ele>
        <time>2026-08-21T19:07:12.000Z</time>
        <extensions>
          <ns3:TrackPointExtension>
            <ns3:hr>133</ns3:hr>
            <ns3:cad>0</ns3:cad>
          </ns3:TrackPointExtension>
        </extensions>
      </trkpt>
      <trkpt lat="45.3474573791027069091796875" lon="-70.99146290682256221771240234375">
        <ele>702.5999755859375</ele>
        <time>2026-08-21T19:07:13.000Z</time>
        <extensions>
          <ns3:TrackPointExtension>
            <ns3:hr>133</ns3:hr>
            <ns3:cad>0</ns3:cad>
          </ns3:TrackPointExtension>
        </extensions>
      </trkpt>
      <trkpt lat="45.34745997749269008636474609375" lon="-70.991473384201526641845703125">
        <ele>702.79998779296875</ele>
        <time>2026-08-21T19:07:14.000Z</time>
        <extensions>
          <ns3:TrackPointExtension>
            <ns3:hr>134</ns3:hr>
            <ns3:cad>0</ns3:cad>
          </ns3:TrackPointExtension>
        </extensions>
      </trkpt>
      <trkpt lat="45.3474595583975315093994140625" lon="-70.99147296510636806488037109375">
        <ele>703</ele>
        <time>2026-08-21T19:07:15.000Z</time>
        <extensions>
          <ns3:TrackPointExtension>
            <ns3:hr>134</ns3:hr>
            <ns3:cad>0</ns3:cad>
          </ns3:TrackPointExtension>
        </extensions>
      </trkpt>
      <trkpt lat="45.34746048040688037872314453125" lon="-70.991481430828571319580078125">
        <ele>703.20001220703125</ele>
        <time>2026-08-21T19:07:16.000Z</time>
        <extensions>
          <ns3:TrackPointExtension>
            <ns3:hr>134</ns3:hr>
            <ns3:cad>0</ns3:cad>
          </ns3:TrackPointExtension>
        </extensions>
      </trkpt>
      <trkpt lat="45.34746182151138782501220703125" lon="-70.991485118865966796875">
        <ele>703.4000244140625</ele>
        <time>2026-08-21T19:07:17.000Z</time>
        <extensions>
          <ns3:TrackPointExtension>
            <ns3:hr>134</ns3:hr>
            <ns3:cad>0</ns3:cad>
          </ns3:TrackPointExtension>
        </extensions>
      </trkpt>
      <trkpt lat="45.34746207296848297119140625" lon="-70.9914822690188884735107421875">
        <ele>703.5999755859375</ele>
        <time>2026-08-21T19:07:18.000Z</time>
        <extensions>
          <ns3:TrackPointExtension>
            <ns3:hr>135</ns3:hr>
            <ns3:cad>0</ns3:cad>
          </ns3:TrackPointExtension>
        </extensions>
      </trkpt>
      <trkpt lat="45.34746215678751468658447265625" lon="-70.99149291403591632843017578125">
        <ele>703.79998779296875</ele>
        <time>2026-08-21T19:07:19.000Z</time>
        <extensions>
          <ns3:TrackPointExtension>
            <ns3:hr>135</ns3:hr>
            <ns3:cad>0</ns3:cad>
          </ns3:TrackPointExtension>
        </extensions>
      </trkpt>
      <trkpt lat="45.3474555350840091705322265625" lon="-70.9915023855865001678466796875">
        <ele>704</ele>
        <time>2026-08-21T19:07:20.000Z</time>
        <extensions>
          <ns3:TrackPointExtension>
            <ns3:hr>134</ns3:hr>
            <ns3:cad>0</ns3:cad>
          </ns3:TrackPointExtension>
        </extensions>
      </trkpt>
      <trkpt lat="45.3474454768002033233642578125" lon="-70.99151068367063999176025390625">
        <ele>704.20001220703125</ele>
        <time>2026-08-21T19:07:21.000Z</time>
        <extensions>
          <ns3:TrackPointExtension>
            <ns3:hr>134</ns3:hr>
            <ns3:cad>0</ns3:cad>
          </ns3:TrackPointExtension>
        </extensions>
      </trkpt>
      <trkpt lat="45.347450338304042816162109375" lon="-70.991520322859287261962890625">
        <ele>704.4000244140625</ele>
        <time>2026-08-21T19:07:22.000Z</time>
        <extensions>
          <ns3:TrackPointExtension>
            <ns3:hr>134</ns3:hr>
            <ns3:cad>0</ns3:cad>
          </ns3:TrackPointExtension>
        </extensions>
      </trkpt>
      <trkpt lat="45.34745310433208942413330078125" lon="-70.9915322251617908477783203125">
        <ele>704.4000244140625</ele>
        <time>2026-08-21T19:07:23.000Z</time>
        <extensions>
          <ns3:TrackPointExtension>
            <ns3:hr>134</ns3:hr>
            <ns3:cad>0</ns3:cad>
          </ns3:TrackPointExtension>
        </extensions>
      </trkpt>
      <trkpt lat="45.347454361617565155029296875" lon="-70.991539768874645233154296875">
        <ele>704.5999755859375</ele>
        <time>2026-08-21T19:07:24.000Z</time>
        <extensions>
          <ns3:TrackPointExtension>
            <ns3:hr>134</ns3:hr>
            <ns3:cad>0</ns3:cad>
          </ns3:TrackPointExtension>
        </extensions>
      </trkpt>
      <trkpt lat="45.34745545126497745513916015625" lon="-70.99155309610068798065185546875">
        <ele>704.5999755859375</ele>
        <time>2026-08-21T19:07:25.000Z</time>
        <extensions>
          <ns3:TrackPointExtension>
            <ns3:hr>134</ns3:hr>
            <ns3:cad>0</ns3:cad>
          </ns3:TrackPointExtension>
        </extensions>
      </trkpt>
      <trkpt lat="45.34746182151138782501220703125" lon="-70.991557538509368896484375">
        <ele>704.5999755859375</ele>
        <time>2026-08-21T19:07:26.000Z</time>
        <extensions>
          <ns3:TrackPointExtension>
            <ns3:hr>135</ns3:hr>
            <ns3:cad>0</ns3:cad>
          </ns3:TrackPointExtension>
        </extensions>
      </trkpt>
      <trkpt lat="45.347467772662639617919921875" lon="-70.99156491458415985107421875">
        <ele>704.79998779296875</ele>
        <time>2026-08-21T19:07:27.000Z</time>
        <extensions>
          <ns3:TrackPointExtension>
            <ns3:hr>135</ns3:hr>
            <ns3:cad>0</ns3:cad>
          </ns3:TrackPointExtension>
        </extensions>
      </trkpt>
      <trkpt lat="45.34746534191071987152099609375" lon="-70.991572625935077667236328125">
        <ele>705</ele>
        <time>2026-08-21T19:07:28.000Z</time>
        <extensions>
          <ns3:TrackPointExtension>
            <ns3:hr>135</ns3:hr>
            <ns3:cad>0</ns3:cad>
          </ns3:TrackPointExtension>
        </extensions>
      </trkpt>
      <trkpt lat="45.347459726035594940185546875" lon="-70.99157757125794887542724609375">
        <ele>705.20001220703125</ele>
        <time>2026-08-21T19:07:29.000Z</time>
        <extensions>
          <ns3:TrackPointExtension>
            <ns3:hr>135</ns3:hr>
            <ns3:cad>0</ns3:cad>
          </ns3:TrackPointExtension>
        </extensions>
      </trkpt>
      <trkpt lat="45.347456037998199462890625" lon="-70.99158628843724727630615234375">
        <ele>705.4000244140625</ele>
        <time>2026-08-21T19:07:30.000Z</time>
        <extensions>
          <ns3:TrackPointExtension>
            <ns3:hr>135</ns3:hr>
            <ns3:cad>0</ns3:cad>
          </ns3:TrackPointExtension>
        </extensions>
      </trkpt>
      <trkpt lat="45.347453691065311431884765625" lon="-70.9915942512452602386474609375">
        <ele>705.5999755859375</ele>
        <time>2026-08-21T19:07:31.000Z</time>
        <extensions>
          <ns3:TrackPointExtension>
            <ns3:hr>135</ns3:hr>
            <ns3:cad>0</ns3:cad>
          </ns3:TrackPointExtension>
        </extensions>
      </trkpt>
      <trkpt lat="45.34745159558951854705810546875" lon="-70.99160154350101947784423828125">
        <ele>705.5999755859375</ele>
        <time>2026-08-21T19:07:32.000Z</time>
        <extensions>
          <ns3:TrackPointExtension>
            <ns3:hr>136</ns3:hr>
            <ns3:cad>18</ns3:cad>
          </ns3:TrackPointExtension>
        </extensions>
      </trkpt>
      <trkpt lat="45.34745000302791595458984375" lon="-70.99161227233707904815673828125">
        <ele>705.79998779296875</ele>
        <time>2026-08-21T19:07:33.000Z</time>
        <extensions>
          <ns3:TrackPointExtension>
            <ns3:hr>136</ns3:hr>
            <ns3:cad>18</ns3:cad>
          </ns3:TrackPointExtension>
        </extensions>
      </trkpt>
      <trkpt lat="45.34745662473142147064208984375" lon="-70.99162518046796321868896484375">
        <ele>706</ele>
        <time>2026-08-21T19:07:34.000Z</time>
        <extensions>
          <ns3:TrackPointExtension>
            <ns3:hr>137</ns3:hr>
            <ns3:cad>0</ns3:cad>
          </ns3:TrackPointExtension>
        </extensions>
      </trkpt>
      <trkpt lat="45.3474585525691509246826171875" lon="-70.9916331432759761810302734375">
        <ele>706</ele>
        <time>2026-08-21T19:07:35.000Z</time>
        <extensions>
          <ns3:TrackPointExtension>
            <ns3:hr>137</ns3:hr>
            <ns3:cad>0</ns3:cad>
          </ns3:TrackPointExtension>
        </extensions>
      </trkpt>
      <trkpt lat="45.347459055483341217041015625" lon="-70.99164093844592571258544921875">
        <ele>706.20001220703125</ele>
        <time>2026-08-21T19:07:36.000Z</time>
        <extensions>
          <ns3:TrackPointExtension>
            <ns3:hr>137</ns3:hr>
            <ns3:cad>0</ns3:cad>
          </ns3:TrackPointExtension>
        </extensions>
      </trkpt>
      <trkpt lat="45.34745628945529460906982421875" lon="-70.99165434949100017547607421875">
        <ele>706.20001220703125</ele>
        <time>2026-08-21T19:07:37.000Z</time>
        <extensions>
          <ns3:TrackPointExtension>
            <ns3:hr>138</ns3:hr>
            <ns3:cad>0</ns3:cad>
          </ns3:TrackPointExtension>
        </extensions>
      </trkpt>
      <trkpt lat="45.3474565409123897552490234375" lon="-70.99166692234575748443603515625">
        <ele>706.4000244140625</ele>
        <time>2026-08-21T19:07:38.000Z</time>
        <extensions>
          <ns3:TrackPointExtension>
            <ns3:hr>138</ns3:hr>
            <ns3:cad>0</ns3:cad>
          </ns3:TrackPointExtension>
        </extensions>
      </trkpt>
      <trkpt lat="45.34745779819786548614501953125" lon="-70.99167622625827789306640625">
        <ele>706.5999755859375</ele>
        <time>2026-08-21T19:07:39.000Z</time>
        <extensions>
          <ns3:TrackPointExtension>
            <ns3:hr>137</ns3:hr>
            <ns3:cad>0</ns3:cad>
          </ns3:TrackPointExtension>
        </extensions>
      </trkpt>
      <trkpt lat="45.34745830111205577850341796875" lon="-70.99168519489467144012451171875">
        <ele>706.5999755859375</ele>
        <time>2026-08-21T19:07:40.000Z</time>
        <extensions>
          <ns3:TrackPointExtension>
            <ns3:hr>137</ns3:hr>
            <ns3:cad>0</ns3:cad>
          </ns3:TrackPointExtension>
        </extensions>
      </trkpt>
      <trkpt lat="45.34745804965496063232421875" lon="-70.99169508554041385650634765625">
        <ele>706.79998779296875</ele>
        <time>2026-08-21T19:07:41.000Z</time>
        <extensions>
          <ns3:TrackPointExtension>
            <ns3:hr>136</ns3:hr>
            <ns3:cad>0</ns3:cad>
          </ns3:TrackPointExtension>
        </extensions>
      </trkpt>
      <trkpt lat="45.3474582172930240631103515625" lon="-70.99170413799583911895751953125">
        <ele>707</ele>
        <time>2026-08-21T19:07:42.000Z</time>
        <extensions>
          <ns3:TrackPointExtension>
            <ns3:hr>136</ns3:hr>
            <ns3:cad>0</ns3:cad>
          </ns3:TrackPointExtension>
        </extensions>
      </trkpt>
      <trkpt lat="45.347458384931087493896484375" lon="-70.99170883186161518096923828125">
        <ele>707</ele>
        <time>2026-08-21T19:07:43.000Z</time>
        <extensions>
          <ns3:TrackPointExtension>
            <ns3:hr>136</ns3:hr>
            <ns3:cad>0</ns3:cad>
          </ns3:TrackPointExtension>
        </extensions>
      </trkpt>
      <trkpt lat="45.347459726035594940185546875" lon="-70.9917122684419155120849609375">
        <ele>707.20001220703125</ele>
        <time>2026-08-21T19:07:44.000Z</time>
        <extensions>
          <ns3:TrackPointExtension>
            <ns3:hr>136</ns3:hr>
            <ns3:cad>0</ns3:cad>
          </ns3:TrackPointExtension>
        </extensions>
      </trkpt>
      <trkpt lat="45.34746064804494380950927734375" lon="-70.99171922542154788970947265625">
        <ele>707.20001220703125</ele>
        <time>2026-08-21T19:07:45.000Z</time>
        <extensions>
          <ns3:TrackPointExtension>
            <ns3:hr>135</ns3:hr>
            <ns3:cad>0</ns3:cad>
          </ns3:TrackPointExtension>
        </extensions>
      </trkpt>
      <trkpt lat="45.34746282733976840972900390625" lon="-70.9917240031063556671142578125">
        <ele>707.4000244140625</ele>
        <time>2026-08-21T19:07:46.000Z</time>
        <extensions>
          <ns3:TrackPointExtension>
            <ns3:hr>135</ns3:hr>
            <ns3:cad>63</ns3:cad>
          </ns3:TrackPointExtension>
        </extensions>
      </trkpt>
      <trkpt lat="45.34746316261589527130126953125" lon="-70.99173448048532009124755859375">
        <ele>707.5999755859375</ele>
        <time>2026-08-21T19:07:47.000Z</time>
        <extensions>
          <ns3:TrackPointExtension>
            <ns3:hr>135</ns3:hr>
            <ns3:cad>63</ns3:cad>
          </ns3:TrackPointExtension>
        </extensions>
      </trkpt>
      <trkpt lat="45.34746416844427585601806640625" lon="-70.99173967726528644561767578125">
        <ele>707.79998779296875</ele>
        <time>2026-08-21T19:07:48.000Z</time>
        <extensions>
          <ns3:TrackPointExtension>
            <ns3:hr>135</ns3:hr>
            <ns3:cad>0</ns3:cad>
          </ns3:TrackPointExtension>
        </extensions>
      </trkpt>
      <trkpt lat="45.34746366553008556365966796875" lon="-70.99175023846328258514404296875">
        <ele>708</ele>
        <time>2026-08-21T19:07:49.000Z</time>
        <extensions>
          <ns3:TrackPointExtension>
            <ns3:hr>136</ns3:hr>
            <ns3:cad>0</ns3:cad>
          </ns3:TrackPointExtension>
        </extensions>
      </trkpt>
      <trkpt lat="45.34746567718684673309326171875" lon="-70.99176046438515186309814453125">
        <ele>708.20001220703125</ele>
        <time>2026-08-21T19:07:50.000Z</time>
        <extensions>
          <ns3:TrackPointExtension>
            <ns3:hr>136</ns3:hr>
            <ns3:cad>0</ns3:cad>
          </ns3:TrackPointExtension>
        </extensions>
      </trkpt>
      <trkpt lat="45.34746651537716388702392578125" lon="-70.99176867865025997161865234375">
        <ele>708.4000244140625</ele>
        <time>2026-08-21T19:07:51.000Z</time>
        <extensions>
          <ns3:TrackPointExtension>
            <ns3:hr>135</ns3:hr>
            <ns3:cad>60</ns3:cad>
          </ns3:TrackPointExtension>
        </extensions>
      </trkpt>
      <trkpt lat="45.34746668301522731781005859375" lon="-70.9917796589434146881103515625">
        <ele>708.5999755859375</ele>
        <time>2026-08-21T19:07:52.000Z</time>
        <extensions>
          <ns3:TrackPointExtension>
            <ns3:hr>135</ns3:hr>
            <ns3:cad>60</ns3:cad>
          </ns3:TrackPointExtension>
        </extensions>
      </trkpt>
      <trkpt lat="45.34746819175779819488525390625" lon="-70.991786532104015350341796875">
        <ele>708.5999755859375</ele>
        <time>2026-08-21T19:07:53.000Z</time>
        <extensions>
          <ns3:TrackPointExtension>
            <ns3:hr>135</ns3:hr>
            <ns3:cad>0</ns3:cad>
          </ns3:TrackPointExtension>
        </extensions>
      </trkpt>
      <trkpt lat="45.34746802411973476409912109375" lon="-70.99179516546428203582763671875">
        <ele>708.79998779296875</ele>
        <time>2026-08-21T19:07:54.000Z</time>
        <extensions>
          <ns3:TrackPointExtension>
            <ns3:hr>135</ns3:hr>
            <ns3:cad>0</ns3:cad>
          </ns3:TrackPointExtension>
        </extensions>
      </trkpt>
      <trkpt lat="45.3474672697484493255615234375" lon="-70.9918044693768024444580078125">
        <ele>709</ele>
        <time>2026-08-21T19:07:55.000Z</time>
        <extensions>
          <ns3:TrackPointExtension>
            <ns3:hr>134</ns3:hr>
            <ns3:cad>0</ns3:cad>
          </ns3:TrackPointExtension>
        </extensions>
      </trkpt>
      <trkpt lat="45.347466766834259033203125" lon="-70.9918118454515933990478515625">
        <ele>709</ele>
        <time>2026-08-21T19:07:56.000Z</time>
        <extensions>
          <ns3:TrackPointExtension>
            <ns3:hr>134</ns3:hr>
            <ns3:cad>0</ns3:cad>
          </ns3:TrackPointExtension>
        </extensions>
      </trkpt>
      <trkpt lat="45.3474679403007030487060546875" lon="-70.991818048059940338134765625">
        <ele>709.20001220703125</ele>
        <time>2026-08-21T19:07:57.000Z</time>
        <extensions>
          <ns3:TrackPointExtension>
            <ns3:hr>134</ns3:hr>
            <ns3:cad>0</ns3:cad>
          </ns3:TrackPointExtension>
        </extensions>
      </trkpt>
      <trkpt lat="45.34746341407299041748046875" lon="-70.991825759410858154296875">
        <ele>709.4000244140625</ele>
        <time>2026-08-21T19:07:58.000Z</time>
        <extensions>
          <ns3:TrackPointExtension>
            <ns3:hr>134</ns3:hr>
            <ns3:cad>0</ns3:cad>
          </ns3:TrackPointExtension>
        </extensions>
      </trkpt>
      <trkpt lat="45.3474622406065464019775390625" lon="-70.991831459105014801025390625">
        <ele>709.5999755859375</ele>
        <time>2026-08-21T19:07:59.000Z</time>
        <extensions>
          <ns3:TrackPointExtension>
            <ns3:hr>134</ns3:hr>
            <ns3:cad>0</ns3:cad>
          </ns3:TrackPointExtension>
        </extensions>
      </trkpt>
      <trkpt lat="45.34746048040688037872314453125" lon="-70.99184210412204265594482421875">
        <ele>709.5999755859375</ele>
        <time>2026-08-21T19:08:00.000Z</time>
        <extensions>
          <ns3:TrackPointExtension>
            <ns3:hr>134</ns3:hr>
            <ns3:cad>0</ns3:cad>
          </ns3:TrackPointExtension>
        </extensions>
      </trkpt>
      <trkpt lat="45.34746048040688037872314453125" lon="-70.99185484461486339569091796875">
        <ele>709.79998779296875</ele>
        <time>2026-08-21T19:08:01.000Z</time>
        <extensions>
          <ns3:TrackPointExtension>
            <ns3:hr>133</ns3:hr>
            <ns3:cad>64</ns3:cad>
          </ns3:TrackPointExtension>
        </extensions>
      </trkpt>
      <trkpt lat="45.3474622406065464019775390625" lon="-70.9918691776692867279052734375">
        <ele>710</ele>
        <time>2026-08-21T19:08:02.000Z</time>
        <extensions>
          <ns3:TrackPointExtension>
            <ns3:hr>134</ns3:hr>
            <ns3:cad>64</ns3:cad>
          </ns3:TrackPointExtension>
        </extensions>
      </trkpt>
      <trkpt lat="45.34745939075946807861328125" lon="-70.99187672138214111328125">
        <ele>710</ele>
        <time>2026-08-21T19:08:03.000Z</time>
        <extensions>
          <ns3:TrackPointExtension>
            <ns3:hr>134</ns3:hr>
            <ns3:cad>64</ns3:cad>
          </ns3:TrackPointExtension>
        </extensions>
      </trkpt>
      <trkpt lat="45.347457714378833770751953125" lon="-70.99188786931335926055908203125">
        <ele>710.20001220703125</ele>
        <time>2026-08-21T19:08:04.000Z</time>
        <extensions>
          <ns3:TrackPointExtension>
            <ns3:hr>134</ns3:hr>
            <ns3:cad>64</ns3:cad>
          </ns3:TrackPointExtension>
        </extensions>
      </trkpt>
      <trkpt lat="45.347456373274326324462890625" lon="-70.99189289845526218414306640625">
        <ele>710.4000244140625</ele>
        <time>2026-08-21T19:08:05.000Z</time>
        <extensions>
          <ns3:TrackPointExtension>
            <ns3:hr>134</ns3:hr>
            <ns3:cad>64</ns3:cad>
          </ns3:TrackPointExtension>
        </extensions>
      </trkpt>
      <trkpt lat="45.347455702722072601318359375" lon="-70.9919057227671146392822265625">
        <ele>710.79998779296875</ele>
        <time>2026-08-21T19:08:06.000Z</time>
        <extensions>
          <ns3:TrackPointExtension>
            <ns3:hr>134</ns3:hr>
            <ns3:cad>0</ns3:cad>
          </ns3:TrackPointExtension>
        </extensions>
      </trkpt>
      <trkpt lat="45.34745494835078716278076171875" lon="-70.991911590099334716796875">
        <ele>711</ele>
        <time>2026-08-21T19:08:07.000Z</time>
        <extensions>
          <ns3:TrackPointExtension>
            <ns3:hr>134</ns3:hr>
            <ns3:cad>0</ns3:cad>
          </ns3:TrackPointExtension>
        </extensions>
      </trkpt>
      <trkpt lat="45.34745536744594573974609375" lon="-70.9919167868793010711669921875">
        <ele>711.20001220703125</ele>
        <time>2026-08-21T19:08:08.000Z</time>
        <extensions>
          <ns3:TrackPointExtension>
            <ns3:hr>134</ns3:hr>
            <ns3:cad>0</ns3:cad>
          </ns3:TrackPointExtension>
        </extensions>
      </trkpt>
      <trkpt lat="45.3474555350840091705322265625" lon="-70.9919238276779651641845703125">
        <ele>711.4000244140625</ele>
        <time>2026-08-21T19:08:09.000Z</time>
        <extensions>
          <ns3:TrackPointExtension>
            <ns3:hr>134</ns3:hr>
            <ns3:cad>0</ns3:cad>
          </ns3:TrackPointExtension>
        </extensions>
      </trkpt>
      <trkpt lat="45.34745377488434314727783203125" lon="-70.99192592315375804901123046875">
        <ele>711.5999755859375</ele>
        <time>2026-08-21T19:08:10.000Z</time>
        <extensions>
          <ns3:TrackPointExtension>
            <ns3:hr>134</ns3:hr>
            <ns3:cad>0</ns3:cad>
          </ns3:TrackPointExtension>
        </extensions>
      </trkpt>
      <trkpt lat="45.3474520146846771240234375" lon="-70.9919298626482486724853515625">
        <ele>711.79998779296875</ele>
        <time>2026-08-21T19:08:11.000Z</time>
        <extensions>
          <ns3:TrackPointExtension>
            <ns3:hr>134</ns3:hr>
            <ns3:cad>0</ns3:cad>
          </ns3:TrackPointExtension>
        </extensions>
      </trkpt>
      <trkpt lat="45.3474508412182331085205078125" lon="-70.99193497560918331146240234375">
        <ele>712</ele>
        <time>2026-08-21T19:08:12.000Z</time>
        <extensions>
          <ns3:TrackPointExtension>
            <ns3:hr>134</ns3:hr>
            <ns3:cad>0</ns3:cad>
          </ns3:TrackPointExtension>
        </extensions>
      </trkpt>
      <trkpt lat="45.34744891338050365447998046875" lon="-70.9919456206262111663818359375">
        <ele>712</ele>
        <time>2026-08-21T19:08:13.000Z</time>
        <extensions>
          <ns3:TrackPointExtension>
            <ns3:hr>134</ns3:hr>
            <ns3:cad>40</ns3:cad>
          </ns3:TrackPointExtension>
        </extensions>
      </trkpt>
      <trkpt lat="45.34744841046631336212158203125" lon="-70.9919543378055095672607421875">
        <ele>712.20001220703125</ele>
        <time>2026-08-21T19:08:14.000Z</time>
        <extensions>
          <ns3:TrackPointExtension>
            <ns3:hr>133</ns3:hr>
            <ns3:cad>40</ns3:cad>
          </ns3:TrackPointExtension>
        </extensions>
      </trkpt>
      <trkpt lat="45.34744866192340850830078125" lon="-70.9919633902609348297119140625">
        <ele>712.4000244140625</ele>
        <time>2026-08-21T19:08:15.000Z</time>
        <extensions>
          <ns3:TrackPointExtension>
            <ns3:hr>134</ns3:hr>
            <ns3:cad>40</ns3:cad>
          </ns3:TrackPointExtension>
        </extensions>
      </trkpt>
      <trkpt lat="45.3474481590092182159423828125" lon="-70.9919721074402332305908203125">
        <ele>712.5999755859375</ele>
        <time>2026-08-21T19:08:16.000Z</time>
        <extensions>
          <ns3:TrackPointExtension>
            <ns3:hr>134</ns3:hr>
            <ns3:cad>40</ns3:cad>
          </ns3:TrackPointExtension>
        </extensions>
      </trkpt>
      <trkpt lat="45.34744597971439361572265625" lon="-70.99198157899081707000732421875">
        <ele>712.79998779296875</ele>
        <time>2026-08-21T19:08:17.000Z</time>
        <extensions>
          <ns3:TrackPointExtension>
            <ns3:hr>134</ns3:hr>
            <ns3:cad>40</ns3:cad>
          </ns3:TrackPointExtension>
        </extensions>
      </trkpt>
      <trkpt lat="45.347444973886013031005859375" lon="-70.9919888712465763092041015625">
        <ele>712.79998779296875</ele>
        <time>2026-08-21T19:08:18.000Z</time>
        <extensions>
          <ns3:TrackPointExtension>
            <ns3:hr>133</ns3:hr>
            <ns3:cad>40</ns3:cad>
          </ns3:TrackPointExtension>
        </extensions>
      </trkpt>
      <trkpt lat="45.347442291676998138427734375" lon="-70.9919965825974941253662109375">
        <ele>713</ele>
        <time>2026-08-21T19:08:19.000Z</time>
        <extensions>
          <ns3:TrackPointExtension>
            <ns3:hr>134</ns3:hr>
            <ns3:cad>40</ns3:cad>
          </ns3:TrackPointExtension>
        </extensions>
      </trkpt>
      <trkpt lat="45.3474421240389347076416015625" lon="-70.992000438272953033447265625">
        <ele>713</ele>
        <time>2026-08-21T19:08:20.000Z</time>
        <extensions>
          <ns3:TrackPointExtension>
            <ns3:hr>134</ns3:hr>
            <ns3:cad>72</ns3:cad>
          </ns3:TrackPointExtension>
        </extensions>
      </trkpt>
      <trkpt lat="45.34744069911539554595947265625" lon="-70.9920109994709491729736328125">
        <ele>713.20001220703125</ele>
        <time>2026-08-21T19:08:21.000Z</time>
        <extensions>
          <ns3:TrackPointExtension>
            <ns3:hr>135</ns3:hr>
            <ns3:cad>72</ns3:cad>
          </ns3:TrackPointExtension>
        </extensions>
      </trkpt>
      <trkpt lat="45.34744136966764926910400390625" lon="-70.992018543183803558349609375">
        <ele>713.4000244140625</ele>
        <time>2026-08-21T19:08:22.000Z</time>
        <extensions>
          <ns3:TrackPointExtension>
            <ns3:hr>135</ns3:hr>
            <ns3:cad>72</ns3:cad>
          </ns3:TrackPointExtension>
        </extensions>
      </trkpt>
      <trkpt lat="45.34744472242891788482666015625" lon="-70.99202130921185016632080078125">
        <ele>713.5999755859375</ele>
        <time>2026-08-21T19:08:23.000Z</time>
        <extensions>
          <ns3:TrackPointExtension>
            <ns3:hr>135</ns3:hr>
            <ns3:cad>66</ns3:cad>
          </ns3:TrackPointExtension>
        </extensions>
      </trkpt>
      <trkpt lat="45.34744975157082080841064453125" lon="-70.99202600307762622833251953125">
        <ele>713.79998779296875</ele>
        <time>2026-08-21T19:08:24.000Z</time>
        <extensions>
          <ns3:TrackPointExtension>
            <ns3:hr>135</ns3:hr>
            <ns3:cad>66</ns3:cad>
          </ns3:TrackPointExtension>
        </extensions>
      </trkpt>
      <trkpt lat="45.34745243377983570098876953125" lon="-70.9920324571430683135986328125">
        <ele>714</ele>
        <time>2026-08-21T19:08:25.000Z</time>
        <extensions>
          <ns3:TrackPointExtension>
            <ns3:hr>134</ns3:hr>
            <ns3:cad>66</ns3:cad>
          </ns3:TrackPointExtension>
        </extensions>
      </trkpt>
      <trkpt lat="45.3474578820168972015380859375" lon="-70.99204477854073047637939453125">
        <ele>714</ele>
        <time>2026-08-21T19:08:26.000Z</time>
        <extensions>
          <ns3:TrackPointExtension>
            <ns3:hr>134</ns3:hr>
            <ns3:cad>70</ns3:cad>
          </ns3:TrackPointExtension>
        </extensions>
      </trkpt>
      <trkpt lat="45.34745997749269008636474609375" lon="-70.9920508973300457000732421875">
        <ele>714.20001220703125</ele>
        <time>2026-08-21T19:08:27.000Z</time>
        <extensions>
          <ns3:TrackPointExtension>
            <ns3:hr>134</ns3:hr>
            <ns3:cad>70</ns3:cad>
          </ns3:TrackPointExtension>
        </extensions>
      </trkpt>
      <trkpt lat="45.34746232442557811737060546875" lon="-70.99205735139548778533935546875">
        <ele>714.20001220703125</ele>
        <time>2026-08-21T19:08:28.000Z</time>
        <extensions>
          <ns3:TrackPointExtension>
            <ns3:hr>134</ns3:hr>
            <ns3:cad>0</ns3:cad>
          </ns3:TrackPointExtension>
        </extensions>
      </trkpt>
      <trkpt lat="45.34746198914945125579833984375" lon="-70.99206824786961078643798828125">
        <ele>714.4000244140625</ele>
        <time>2026-08-21T19:08:29.000Z</time>
        <extensions>
          <ns3:TrackPointExtension>
            <ns3:hr>133</ns3:hr>
            <ns3:cad>0</ns3:cad>
          </ns3:TrackPointExtension>
        </extensions>
      </trkpt>
      <trkpt lat="45.34746207296848297119140625" lon="-70.992072857916355133056640625">
        <ele>714.4000244140625</ele>
        <time>2026-08-21T19:08:30.000Z</time>
        <extensions>
          <ns3:TrackPointExtension>
            <ns3:hr>133</ns3:hr>
            <ns3:cad>0</ns3:cad>
          </ns3:TrackPointExtension>
        </extensions>
      </trkpt>
      <trkpt lat="45.34746349789202213287353515625" lon="-70.9920773841440677642822265625">
        <ele>714.5999755859375</ele>
        <time>2026-08-21T19:08:31.000Z</time>
        <extensions>
          <ns3:TrackPointExtension>
            <ns3:hr>133</ns3:hr>
            <ns3:cad>0</ns3:cad>
          </ns3:TrackPointExtension>
        </extensions>
      </trkpt>
      <trkpt lat="45.3474619053304195404052734375" lon="-70.99207721650600433349609375">
        <ele>714.79998779296875</ele>
        <time>2026-08-21T19:08:32.000Z</time>
        <extensions>
          <ns3:TrackPointExtension>
            <ns3:hr>132</ns3:hr>
            <ns3:cad>0</ns3:cad>
          </ns3:TrackPointExtension>
        </extensions>
      </trkpt>
      <trkpt lat="45.347462408244609832763671875" lon="-70.99207947961986064910888671875">
        <ele>714.79998779296875</ele>
        <time>2026-08-21T19:08:33.000Z</time>
        <extensions>
          <ns3:TrackPointExtension>
            <ns3:hr>132</ns3:hr>
            <ns3:cad>0</ns3:cad>
          </ns3:TrackPointExtension>
        </extensions>
      </trkpt>
      <trkpt lat="45.34746333025395870208740234375" lon="-70.99208836443722248077392578125">
        <ele>715</ele>
        <time>2026-08-21T19:08:34.000Z</time>
        <extensions>
          <ns3:TrackPointExtension>
            <ns3:hr>132</ns3:hr>
            <ns3:cad>0</ns3:cad>
          </ns3:TrackPointExtension>
        </extensions>
      </trkpt>
      <trkpt lat="45.34746450372040271759033203125" lon="-70.99209523759782314300537109375">
        <ele>715.20001220703125</ele>
        <time>2026-08-21T19:08:35.000Z</time>
        <extensions>
          <ns3:TrackPointExtension>
            <ns3:hr>132</ns3:hr>
            <ns3:cad>0</ns3:cad>
          </ns3:TrackPointExtension>
        </extensions>
      </trkpt>
      <trkpt lat="45.34746299497783184051513671875" lon="-70.99209976382553577423095703125">
        <ele>715.4000244140625</ele>
        <time>2026-08-21T19:08:36.000Z</time>
        <extensions>
          <ns3:TrackPointExtension>
            <ns3:hr>132</ns3:hr>
            <ns3:cad>0</ns3:cad>
          </ns3:TrackPointExtension>
        </extensions>
      </trkpt>
      <trkpt lat="45.3474605642259120941162109375" lon="-70.9921209700405597686767578125">
        <ele>715.5999755859375</ele>
        <time>2026-08-21T19:08:37.000Z</time>
        <extensions>
          <ns3:TrackPointExtension>
            <ns3:hr>132</ns3:hr>
            <ns3:cad>0</ns3:cad>
          </ns3:TrackPointExtension>
        </extensions>
      </trkpt>
      <trkpt lat="45.34746215678751468658447265625" lon="-70.9921340458095073699951171875">
        <ele>715.79998779296875</ele>
        <time>2026-08-21T19:08:38.000Z</time>
        <extensions>
          <ns3:TrackPointExtension>
            <ns3:hr>131</ns3:hr>
            <ns3:cad>0</ns3:cad>
          </ns3:TrackPointExtension>
        </extensions>
      </trkpt>
      <trkpt lat="45.34746064804494380950927734375" lon="-70.9921462833881378173828125">
        <ele>715.79998779296875</ele>
        <time>2026-08-21T19:08:39.000Z</time>
        <extensions>
          <ns3:TrackPointExtension>
            <ns3:hr>131</ns3:hr>
            <ns3:cad>0</ns3:cad>
          </ns3:TrackPointExtension>
        </extensions>
      </trkpt>
      <trkpt lat="45.34745947457849979400634765625" lon="-70.99215458147227764129638671875">
        <ele>716</ele>
        <time>2026-08-21T19:08:40.000Z</time>
        <extensions>
          <ns3:TrackPointExtension>
            <ns3:hr>131</ns3:hr>
            <ns3:cad>0</ns3:cad>
          </ns3:TrackPointExtension>
        </extensions>
      </trkpt>
      <trkpt lat="45.34745779819786548614501953125" lon="-70.99216480739414691925048828125">
        <ele>716.20001220703125</ele>
        <time>2026-08-21T19:08:41.000Z</time>
        <extensions>
          <ns3:TrackPointExtension>
            <ns3:hr>132</ns3:hr>
            <ns3:cad>0</ns3:cad>
          </ns3:TrackPointExtension>
        </extensions>
      </trkpt>
      <trkpt lat="45.34745830111205577850341796875" lon="-70.99216832779347896575927734375">
        <ele>716.4000244140625</ele>
        <time>2026-08-21T19:08:42.000Z</time>
        <extensions>
          <ns3:TrackPointExtension>
            <ns3:hr>131</ns3:hr>
            <ns3:cad>0</ns3:cad>
          </ns3:TrackPointExtension>
        </extensions>
      </trkpt>
      <trkpt lat="45.34745804965496063232421875" lon="-70.99217419512569904327392578125">
        <ele>716.5999755859375</ele>
        <time>2026-08-21T19:08:43.000Z</time>
        <extensions>
          <ns3:TrackPointExtension>
            <ns3:hr>132</ns3:hr>
            <ns3:cad>0</ns3:cad>
          </ns3:TrackPointExtension>
        </extensions>
      </trkpt>
      <trkpt lat="45.34745830111205577850341796875" lon="-70.992174446582794189453125">
        <ele>716.5999755859375</ele>
        <time>2026-08-21T19:08:44.000Z</time>
        <extensions>
          <ns3:TrackPointExtension>
            <ns3:hr>132</ns3:hr>
            <ns3:cad>0</ns3:cad>
          </ns3:TrackPointExtension>
        </extensions>
      </trkpt>
      <trkpt lat="45.34745830111205577850341796875" lon="-70.992174446582794189453125">
        <ele>716.5999755859375</ele>
        <time>2026-08-21T19:08:45.000Z</time>
        <extensions>
          <ns3:TrackPointExtension>
            <ns3:hr>132</ns3:hr>
            <ns3:cad>0</ns3:cad>
          </ns3:TrackPointExtension>
        </extensions>
      </trkpt>
      <trkpt lat="45.34745830111205577850341796875" lon="-70.992174446582794189453125">
        <ele>716.5999755859375</ele>
        <time>2026-08-21T19:08:46.000Z</time>
        <extensions>
          <ns3:TrackPointExtension>
            <ns3:hr>131</ns3:hr>
            <ns3:cad>0</ns3:cad>
          </ns3:TrackPointExtension>
        </extensions>
      </trkpt>
      <trkpt lat="45.34745830111205577850341796875" lon="-70.992174446582794189453125">
        <ele>716.5999755859375</ele>
        <time>2026-08-21T19:08:47.000Z</time>
        <extensions>
          <ns3:TrackPointExtension>
            <ns3:hr>132</ns3:hr>
            <ns3:cad>0</ns3:cad>
          </ns3:TrackPointExtension>
        </extensions>
      </trkpt>
      <trkpt lat="45.34745830111205577850341796875" lon="-70.992174446582794189453125">
        <ele>716.5999755859375</ele>
        <time>2026-08-21T19:08:48.000Z</time>
        <extensions>
          <ns3:TrackPointExtension>
            <ns3:hr>131</ns3:hr>
            <ns3:cad>0</ns3:cad>
          </ns3:TrackPointExtension>
        </extensions>
      </trkpt>
      <trkpt lat="45.34745830111205577850341796875" lon="-70.992174446582794189453125">
        <ele>716.79998779296875</ele>
        <time>2026-08-21T19:08:49.000Z</time>
        <extensions>
          <ns3:TrackPointExtension>
            <ns3:hr>131</ns3:hr>
            <ns3:cad>0</ns3:cad>
          </ns3:TrackPointExtension>
        </extensions>
      </trkpt>
      <trkpt lat="45.34746014513075351715087890625" lon="-70.9921752847731113433837890625">
        <ele>717</ele>
        <time>2026-08-21T19:08:50.000Z</time>
        <extensions>
          <ns3:TrackPointExtension>
            <ns3:hr>131</ns3:hr>
            <ns3:cad>0</ns3:cad>
          </ns3:TrackPointExtension>
        </extensions>
      </trkpt>
      <trkpt lat="45.347459055483341217041015625" lon="-70.99218224175274372100830078125">
        <ele>717.20001220703125</ele>
        <time>2026-08-21T19:08:51.000Z</time>
        <extensions>
          <ns3:TrackPointExtension>
            <ns3:hr>131</ns3:hr>
            <ns3:cad>0</ns3:cad>
          </ns3:TrackPointExtension>
        </extensions>
      </trkpt>
      <trkpt lat="45.34745746292173862457275390625" lon="-70.99219012074172496795654296875">
        <ele>717.4000244140625</ele>
        <time>2026-08-21T19:08:52.000Z</time>
        <extensions>
          <ns3:TrackPointExtension>
            <ns3:hr>130</ns3:hr>
            <ns3:cad>65</ns3:cad>
          </ns3:TrackPointExtension>
        </extensions>
      </trkpt>
      <trkpt lat="45.347459726035594940185546875" lon="-70.992200933396816253662109375">
        <ele>717.5999755859375</ele>
        <time>2026-08-21T19:08:53.000Z</time>
        <extensions>
          <ns3:TrackPointExtension>
            <ns3:hr>130</ns3:hr>
            <ns3:cad>65</ns3:cad>
          </ns3:TrackPointExtension>
        </extensions>
      </trkpt>
      <trkpt lat="45.3474639169871807098388671875" lon="-70.99220931529998779296875">
        <ele>717.5999755859375</ele>
        <time>2026-08-21T19:08:54.000Z</time>
        <extensions>
          <ns3:TrackPointExtension>
            <ns3:hr>130</ns3:hr>
            <ns3:cad>65</ns3:cad>
          </ns3:TrackPointExtension>
        </extensions>
      </trkpt>
      <trkpt lat="45.34746349789202213287353515625" lon="-70.99221493117511272430419921875">
        <ele>717.79998779296875</ele>
        <time>2026-08-21T19:08:55.000Z</time>
        <extensions>
          <ns3:TrackPointExtension>
            <ns3:hr>130</ns3:hr>
            <ns3:cad>0</ns3:cad>
          </ns3:TrackPointExtension>
        </extensions>
      </trkpt>
      <trkpt lat="45.34746685065329074859619140625" lon="-70.9922215528786182403564453125">
        <ele>718</ele>
        <time>2026-08-21T19:08:56.000Z</time>
        <extensions>
          <ns3:TrackPointExtension>
            <ns3:hr>130</ns3:hr>
            <ns3:cad>0</ns3:cad>
          </ns3:TrackPointExtension>
        </extensions>
      </trkpt>
      <trkpt lat="45.347469113767147064208984375" lon="-70.9922272525727748870849609375">
        <ele>718.20001220703125</ele>
        <time>2026-08-21T19:08:57.000Z</time>
        <extensions>
          <ns3:TrackPointExtension>
            <ns3:hr>130</ns3:hr>
            <ns3:cad>71</ns3:cad>
          </ns3:TrackPointExtension>
        </extensions>
      </trkpt>
      <trkpt lat="45.34747104160487651824951171875" lon="-70.9922292642295360565185546875">
        <ele>718.4000244140625</ele>
        <time>2026-08-21T19:08:58.000Z</time>
        <extensions>
          <ns3:TrackPointExtension>
            <ns3:hr>129</ns3:hr>
            <ns3:cad>72</ns3:cad>
          </ns3:TrackPointExtension>
        </extensions>
      </trkpt>
      <trkpt lat="45.3474699519574642181396484375" lon="-70.99223068915307521820068359375">
        <ele>718.5999755859375</ele>
        <time>2026-08-21T19:08:59.000Z</time>
        <extensions>
          <ns3:TrackPointExtension>
            <ns3:hr>130</ns3:hr>
            <ns3:cad>72</ns3:cad>
          </ns3:TrackPointExtension>
        </extensions>
      </trkpt>
      <trkpt lat="45.34747011959552764892578125" lon="-70.99223772995173931121826171875">
        <ele>718.79998779296875</ele>
        <time>2026-08-21T19:09:00.000Z</time>
        <extensions>
          <ns3:TrackPointExtension>
            <ns3:hr>130</ns3:hr>
            <ns3:cad>72</ns3:cad>
          </ns3:TrackPointExtension>
        </extensions>
      </trkpt>
      <trkpt lat="45.347473807632923126220703125" lon="-70.99224678240716457366943359375">
        <ele>719.20001220703125</ele>
        <time>2026-08-21T19:09:01.000Z</time>
        <extensions>
          <ns3:TrackPointExtension>
            <ns3:hr>130</ns3:hr>
            <ns3:cad>72</ns3:cad>
          </ns3:TrackPointExtension>
        </extensions>
      </trkpt>
      <trkpt lat="45.34747405909001827239990234375" lon="-70.99224527366459369659423828125">
        <ele>719.4000244140625</ele>
        <time>2026-08-21T19:09:02.000Z</time>
        <extensions>
          <ns3:TrackPointExtension>
            <ns3:hr>131</ns3:hr>
            <ns3:cad>69</ns3:cad>
          </ns3:TrackPointExtension>
        </extensions>
      </trkpt>
      <trkpt lat="45.34747389145195484161376953125" lon="-70.992253236472606658935546875">
        <ele>719.5999755859375</ele>
        <time>2026-08-21T19:09:03.000Z</time>
        <extensions>
          <ns3:TrackPointExtension>
            <ns3:hr>131</ns3:hr>
            <ns3:cad>69</ns3:cad>
          </ns3:TrackPointExtension>
        </extensions>
      </trkpt>
      <trkpt lat="45.34746601246297359466552734375" lon="-70.992259271442890167236328125">
        <ele>719.5999755859375</ele>
        <time>2026-08-21T19:09:04.000Z</time>
        <extensions>
          <ns3:TrackPointExtension>
            <ns3:hr>131</ns3:hr>
            <ns3:cad>69</ns3:cad>
          </ns3:TrackPointExtension>
        </extensions>
      </trkpt>
      <trkpt lat="45.3474619053304195404052734375" lon="-70.992263965308666229248046875">
        <ele>719.79998779296875</ele>
        <time>2026-08-21T19:09:05.000Z</time>
        <extensions>
          <ns3:TrackPointExtension>
            <ns3:hr>131</ns3:hr>
            <ns3:cad>69</ns3:cad>
          </ns3:TrackPointExtension>
        </extensions>
      </trkpt>
      <trkpt lat="45.34745947457849979400634765625" lon="-70.9922762028872966766357421875">
        <ele>719.79998779296875</ele>
        <time>2026-08-21T19:09:06.000Z</time>
        <extensions>
          <ns3:TrackPointExtension>
            <ns3:hr>131</ns3:hr>
            <ns3:cad>69</ns3:cad>
          </ns3:TrackPointExtension>
        </extensions>
      </trkpt>
      <trkpt lat="45.347457043826580047607421875" lon="-70.9922876022756099700927734375">
        <ele>719.79998779296875</ele>
        <time>2026-08-21T19:09:07.000Z</time>
        <extensions>
          <ns3:TrackPointExtension>
            <ns3:hr>132</ns3:hr>
            <ns3:cad>69</ns3:cad>
          </ns3:TrackPointExtension>
        </extensions>
      </trkpt>
      <trkpt lat="45.34745461307466030120849609375" lon="-70.99229925312101840972900390625">
        <ele>719.79998779296875</ele>
        <time>2026-08-21T19:09:08.000Z</time>
        <extensions>
          <ns3:TrackPointExtension>
            <ns3:hr>132</ns3:hr>
            <ns3:cad>69</ns3:cad>
          </ns3:TrackPointExtension>
        </extensions>
      </trkpt>
      <trkpt lat="45.347455702722072601318359375" lon="-70.99231048487126827239990234375">
        <ele>720</ele>
        <time>2026-08-21T19:09:09.000Z</time>
        <extensions>
          <ns3:TrackPointExtension>
            <ns3:hr>132</ns3:hr>
            <ns3:cad>0</ns3:cad>
          </ns3:TrackPointExtension>
        </extensions>
      </trkpt>
      <trkpt lat="45.3474531881511211395263671875" lon="-70.99231660366058349609375">
        <ele>720.20001220703125</ele>
        <time>2026-08-21T19:09:10.000Z</time>
        <extensions>
          <ns3:TrackPointExtension>
            <ns3:hr>133</ns3:hr>
            <ns3:cad>0</ns3:cad>
          </ns3:TrackPointExtension>
        </extensions>
      </trkpt>
      <trkpt lat="45.3474521823227405548095703125" lon="-70.9923231415450572967529296875">
        <ele>720.4000244140625</ele>
        <time>2026-08-21T19:09:11.000Z</time>
        <extensions>
          <ns3:TrackPointExtension>
            <ns3:hr>133</ns3:hr>
            <ns3:cad>0</ns3:cad>
          </ns3:TrackPointExtension>
        </extensions>
      </trkpt>
      <trkpt lat="45.34745142795145511627197265625" lon="-70.9923291765153408050537109375">
        <ele>720.5999755859375</ele>
        <time>2026-08-21T19:09:12.000Z</time>
        <extensions>
          <ns3:TrackPointExtension>
            <ns3:hr>133</ns3:hr>
            <ns3:cad>62</ns3:cad>
          </ns3:TrackPointExtension>
        </extensions>
      </trkpt>
      <trkpt lat="45.34745226614177227020263671875" lon="-70.99233496002852916717529296875">
        <ele>720.79998779296875</ele>
        <time>2026-08-21T19:09:13.000Z</time>
        <extensions>
          <ns3:TrackPointExtension>
            <ns3:hr>132</ns3:hr>
            <ns3:cad>62</ns3:cad>
          </ns3:TrackPointExtension>
        </extensions>
      </trkpt>
      <trkpt lat="45.347452349960803985595703125" lon="-70.9923382289707660675048828125">
        <ele>721</ele>
        <time>2026-08-21T19:09:14.000Z</time>
        <extensions>
          <ns3:TrackPointExtension>
            <ns3:hr>132</ns3:hr>
            <ns3:cad>57</ns3:cad>
          </ns3:TrackPointExtension>
        </extensions>
      </trkpt>
      <trkpt lat="45.34745243377983570098876953125" lon="-70.9923476167023181915283203125">
        <ele>721</ele>
        <time>2026-08-21T19:09:15.000Z</time>
        <extensions>
          <ns3:TrackPointExtension>
            <ns3:hr>132</ns3:hr>
            <ns3:cad>57</ns3:cad>
          </ns3:TrackPointExtension>
        </extensions>
      </trkpt>
      <trkpt lat="45.3474531881511211395263671875" lon="-70.99235373549163341522216796875">
        <ele>721.20001220703125</ele>
        <time>2026-08-21T19:09:16.000Z</time>
        <extensions>
          <ns3:TrackPointExtension>
            <ns3:hr>133</ns3:hr>
            <ns3:cad>57</ns3:cad>
          </ns3:TrackPointExtension>
        </extensions>
      </trkpt>
      <trkpt lat="45.34745536744594573974609375" lon="-70.9923635423183441162109375">
        <ele>721.4000244140625</ele>
        <time>2026-08-21T19:09:17.000Z</time>
        <extensions>
          <ns3:TrackPointExtension>
            <ns3:hr>134</ns3:hr>
            <ns3:cad>70</ns3:cad>
          </ns3:TrackPointExtension>
        </extensions>
      </trkpt>
      <trkpt lat="45.34745712764561176300048828125" lon="-70.99236999638378620147705078125">
        <ele>721.5999755859375</ele>
        <time>2026-08-21T19:09:18.000Z</time>
        <extensions>
          <ns3:TrackPointExtension>
            <ns3:hr>134</ns3:hr>
            <ns3:cad>70</ns3:cad>
          </ns3:TrackPointExtension>
        </extensions>
      </trkpt>
      <trkpt lat="45.34745578654110431671142578125" lon="-70.9923771210014820098876953125">
        <ele>721.79998779296875</ele>
        <time>2026-08-21T19:09:19.000Z</time>
        <extensions>
          <ns3:TrackPointExtension>
            <ns3:hr>135</ns3:hr>
            <ns3:cad>65</ns3:cad>
          </ns3:TrackPointExtension>
        </extensions>
      </trkpt>
      <trkpt lat="45.347455702722072601318359375" lon="-70.99238290451467037200927734375">
        <ele>722</ele>
        <time>2026-08-21T19:09:20.000Z</time>
        <extensions>
          <ns3:TrackPointExtension>
            <ns3:hr>135</ns3:hr>
            <ns3:cad>65</ns3:cad>
          </ns3:TrackPointExtension>
        </extensions>
      </trkpt>
      <trkpt lat="45.34745595417916774749755859375" lon="-70.992387346923351287841796875">
        <ele>722.20001220703125</ele>
        <time>2026-08-21T19:09:21.000Z</time>
        <extensions>
          <ns3:TrackPointExtension>
            <ns3:hr>135</ns3:hr>
            <ns3:cad>65</ns3:cad>
          </ns3:TrackPointExtension>
        </extensions>
      </trkpt>
      <trkpt lat="45.34745628945529460906982421875" lon="-70.99239212460815906524658203125">
        <ele>722.4000244140625</ele>
        <time>2026-08-21T19:09:22.000Z</time>
        <extensions>
          <ns3:TrackPointExtension>
            <ns3:hr>135</ns3:hr>
            <ns3:cad>65</ns3:cad>
          </ns3:TrackPointExtension>
        </extensions>
      </trkpt>
      <trkpt lat="45.34745830111205577850341796875" lon="-70.99239899776875972747802734375">
        <ele>722.5999755859375</ele>
        <time>2026-08-21T19:09:23.000Z</time>
        <extensions>
          <ns3:TrackPointExtension>
            <ns3:hr>136</ns3:hr>
            <ns3:cad>65</ns3:cad>
          </ns3:TrackPointExtension>
        </extensions>
      </trkpt>
      <trkpt lat="45.3474588878452777862548828125" lon="-70.99240503273904323577880859375">
        <ele>722.5999755859375</ele>
        <time>2026-08-21T19:09:24.000Z</time>
        <extensions>
          <ns3:TrackPointExtension>
            <ns3:hr>136</ns3:hr>
            <ns3:cad>65</ns3:cad>
          </ns3:TrackPointExtension>
        </extensions>
      </trkpt>
      <trkpt lat="45.3474605642259120941162109375" lon="-70.992411486804485321044921875">
        <ele>722.79998779296875</ele>
        <time>2026-08-21T19:09:25.000Z</time>
        <extensions>
          <ns3:TrackPointExtension>
            <ns3:hr>136</ns3:hr>
            <ns3:cad>64</ns3:cad>
          </ns3:TrackPointExtension>
        </extensions>
      </trkpt>
      <trkpt lat="45.34746131859719753265380859375" lon="-70.99241794086992740631103515625">
        <ele>723</ele>
        <time>2026-08-21T19:09:26.000Z</time>
        <extensions>
          <ns3:TrackPointExtension>
            <ns3:hr>136</ns3:hr>
            <ns3:cad>64</ns3:cad>
          </ns3:TrackPointExtension>
        </extensions>
      </trkpt>
      <trkpt lat="45.34746249206364154815673828125" lon="-70.99242590367794036865234375">
        <ele>723.20001220703125</ele>
        <time>2026-08-21T19:09:27.000Z</time>
        <extensions>
          <ns3:TrackPointExtension>
            <ns3:hr>136</ns3:hr>
            <ns3:cad>0</ns3:cad>
          </ns3:TrackPointExtension>
        </extensions>
      </trkpt>
      <trkpt lat="45.34745930694043636322021484375" lon="-70.99243252538144588470458984375">
        <ele>723.20001220703125</ele>
        <time>2026-08-21T19:09:28.000Z</time>
        <extensions>
          <ns3:TrackPointExtension>
            <ns3:hr>137</ns3:hr>
            <ns3:cad>0</ns3:cad>
          </ns3:TrackPointExtension>
        </extensions>
      </trkpt>
      <trkpt lat="45.34746048040688037872314453125" lon="-70.99244040437042713165283203125">
        <ele>723.4000244140625</ele>
        <time>2026-08-21T19:09:29.000Z</time>
        <extensions>
          <ns3:TrackPointExtension>
            <ns3:hr>136</ns3:hr>
            <ns3:cad>0</ns3:cad>
          </ns3:TrackPointExtension>
        </extensions>
      </trkpt>
      <trkpt lat="45.34745930694043636322021484375" lon="-70.99244409240782260894775390625">
        <ele>723.5999755859375</ele>
        <time>2026-08-21T19:09:30.000Z</time>
        <extensions>
          <ns3:TrackPointExtension>
            <ns3:hr>136</ns3:hr>
            <ns3:cad>0</ns3:cad>
          </ns3:TrackPointExtension>
        </extensions>
      </trkpt>
      <trkpt lat="45.34745779819786548614501953125" lon="-70.99244778044521808624267578125">
        <ele>723.79998779296875</ele>
        <time>2026-08-21T19:09:31.000Z</time>
        <extensions>
          <ns3:TrackPointExtension>
            <ns3:hr>137</ns3:hr>
            <ns3:cad>0</ns3:cad>
          </ns3:TrackPointExtension>
        </extensions>
      </trkpt>
      <trkpt lat="45.347456037998199462890625" lon="-70.992443673312664031982421875">
        <ele>724.20001220703125</ele>
        <time>2026-08-21T19:09:32.000Z</time>
        <extensions>
          <ns3:TrackPointExtension>
            <ns3:hr>136</ns3:hr>
            <ns3:cad>75</ns3:cad>
          </ns3:TrackPointExtension>
        </extensions>
      </trkpt>
      <trkpt lat="45.34745645709335803985595703125" lon="-70.9924478642642498016357421875">
        <ele>724.4000244140625</ele>
        <time>2026-08-21T19:09:33.000Z</time>
        <extensions>
          <ns3:TrackPointExtension>
            <ns3:hr>136</ns3:hr>
            <ns3:cad>75</ns3:cad>
          </ns3:TrackPointExtension>
        </extensions>
      </trkpt>
      <trkpt lat="45.347460396587848663330078125" lon="-70.992455743253231048583984375">
        <ele>724.5999755859375</ele>
        <time>2026-08-21T19:09:34.000Z</time>
        <extensions>
          <ns3:TrackPointExtension>
            <ns3:hr>137</ns3:hr>
            <ns3:cad>0</ns3:cad>
          </ns3:TrackPointExtension>
        </extensions>
      </trkpt>
      <trkpt lat="45.34746265970170497894287109375" lon="-70.992461778223514556884765625">
        <ele>724.79998779296875</ele>
        <time>2026-08-21T19:09:35.000Z</time>
        <extensions>
          <ns3:TrackPointExtension>
            <ns3:hr>136</ns3:hr>
            <ns3:cad>0</ns3:cad>
          </ns3:TrackPointExtension>
        </extensions>
      </trkpt>
      <trkpt lat="45.34746316261589527130126953125" lon="-70.99246613681316375732421875">
        <ele>724.79998779296875</ele>
        <time>2026-08-21T19:09:36.000Z</time>
        <extensions>
          <ns3:TrackPointExtension>
            <ns3:hr>136</ns3:hr>
            <ns3:cad>0</ns3:cad>
          </ns3:TrackPointExtension>
        </extensions>
      </trkpt>
      <trkpt lat="45.34746232442557811737060546875" lon="-70.99246940575540065765380859375">
        <ele>725</ele>
        <time>2026-08-21T19:09:37.000Z</time>
        <extensions>
          <ns3:TrackPointExtension>
            <ns3:hr>136</ns3:hr>
            <ns3:cad>0</ns3:cad>
          </ns3:TrackPointExtension>
        </extensions>
      </trkpt>
      <trkpt lat="45.34746500663459300994873046875" lon="-70.99247225560247898101806640625">
        <ele>725</ele>
        <time>2026-08-21T19:09:38.000Z</time>
        <extensions>
          <ns3:TrackPointExtension>
            <ns3:hr>136</ns3:hr>
            <ns3:cad>0</ns3:cad>
          </ns3:TrackPointExtension>
        </extensions>
      </trkpt>
      <trkpt lat="45.34746743738651275634765625" lon="-70.99247686564922332763671875">
        <ele>725.20001220703125</ele>
        <time>2026-08-21T19:09:39.000Z</time>
        <extensions>
          <ns3:TrackPointExtension>
            <ns3:hr>137</ns3:hr>
            <ns3:cad>0</ns3:cad>
          </ns3:TrackPointExtension>
        </extensions>
      </trkpt>
      <trkpt lat="45.34746752120554447174072265625" lon="-70.9924817271530628204345703125">
        <ele>725.4000244140625</ele>
        <time>2026-08-21T19:09:40.000Z</time>
        <extensions>
          <ns3:TrackPointExtension>
            <ns3:hr>137</ns3:hr>
            <ns3:cad>0</ns3:cad>
          </ns3:TrackPointExtension>
        </extensions>
      </trkpt>
      <trkpt lat="45.34746483899652957916259765625" lon="-70.99249488674104213714599609375">
        <ele>725.4000244140625</ele>
        <time>2026-08-21T19:09:41.000Z</time>
        <extensions>
          <ns3:TrackPointExtension>
            <ns3:hr>137</ns3:hr>
            <ns3:cad>0</ns3:cad>
          </ns3:TrackPointExtension>
        </extensions>
      </trkpt>
      <trkpt lat="45.34746400080621242523193359375" lon="-70.99250192753970623016357421875">
        <ele>725.5999755859375</ele>
        <time>2026-08-21T19:09:42.000Z</time>
        <extensions>
          <ns3:TrackPointExtension>
            <ns3:hr>138</ns3:hr>
            <ns3:cad>0</ns3:cad>
          </ns3:TrackPointExtension>
        </extensions>
      </trkpt>
      <trkpt lat="45.347463078796863555908203125" lon="-70.99250477738678455352783203125">
        <ele>725.79998779296875</ele>
        <time>2026-08-21T19:09:43.000Z</time>
        <extensions>
          <ns3:TrackPointExtension>
            <ns3:hr>138</ns3:hr>
            <ns3:cad>0</ns3:cad>
          </ns3:TrackPointExtension>
        </extensions>
      </trkpt>
      <trkpt lat="45.34746383316814899444580078125" lon="-70.9925085492432117462158203125">
        <ele>726</ele>
        <time>2026-08-21T19:09:44.000Z</time>
        <extensions>
          <ns3:TrackPointExtension>
            <ns3:hr>138</ns3:hr>
            <ns3:cad>0</ns3:cad>
          </ns3:TrackPointExtension>
        </extensions>
      </trkpt>
      <trkpt lat="45.3474635817110538482666015625" lon="-70.99251248873770236968994140625">
        <ele>726.20001220703125</ele>
        <time>2026-08-21T19:09:45.000Z</time>
        <extensions>
          <ns3:TrackPointExtension>
            <ns3:hr>138</ns3:hr>
            <ns3:cad>0</ns3:cad>
          </ns3:TrackPointExtension>
        </extensions>
      </trkpt>
      <trkpt lat="45.3474632464349269866943359375" lon="-70.99251852370798587799072265625">
        <ele>726.4000244140625</ele>
        <time>2026-08-21T19:09:46.000Z</time>
        <extensions>
          <ns3:TrackPointExtension>
            <ns3:hr>138</ns3:hr>
            <ns3:cad>0</ns3:cad>
          </ns3:TrackPointExtension>
        </extensions>
      </trkpt>
      <trkpt lat="45.34746349789202213287353515625" lon="-70.9925246424973011016845703125">
        <ele>726.5999755859375</ele>
        <time>2026-08-21T19:09:47.000Z</time>
        <extensions>
          <ns3:TrackPointExtension>
            <ns3:hr>138</ns3:hr>
            <ns3:cad>0</ns3:cad>
          </ns3:TrackPointExtension>
        </extensions>
      </trkpt>
      <trkpt lat="45.34746567718684673309326171875" lon="-70.99254249595105648040771484375">
        <ele>726.79998779296875</ele>
        <time>2026-08-21T19:09:48.000Z</time>
        <extensions>
          <ns3:TrackPointExtension>
            <ns3:hr>138</ns3:hr>
            <ns3:cad>0</ns3:cad>
          </ns3:TrackPointExtension>
        </extensions>
      </trkpt>
      <trkpt lat="45.34746768884360790252685546875" lon="-70.99254660308361053466796875">
        <ele>726.79998779296875</ele>
        <time>2026-08-21T19:09:49.000Z</time>
        <extensions>
          <ns3:TrackPointExtension>
            <ns3:hr>138</ns3:hr>
            <ns3:cad>0</ns3:cad>
          </ns3:TrackPointExtension>
        </extensions>
      </trkpt>
      <trkpt lat="45.3474699519574642181396484375" lon="-70.992553643882274627685546875">
        <ele>727</ele>
        <time>2026-08-21T19:09:50.000Z</time>
        <extensions>
          <ns3:TrackPointExtension>
            <ns3:hr>138</ns3:hr>
            <ns3:cad>0</ns3:cad>
          </ns3:TrackPointExtension>
        </extensions>
      </trkpt>
      <trkpt lat="45.34747338853776454925537109375" lon="-70.9925615228712558746337890625">
        <ele>727.20001220703125</ele>
        <time>2026-08-21T19:09:51.000Z</time>
        <extensions>
          <ns3:TrackPointExtension>
            <ns3:hr>138</ns3:hr>
            <ns3:cad>0</ns3:cad>
          </ns3:TrackPointExtension>
        </extensions>
      </trkpt>
      <trkpt lat="45.3474739752709865570068359375" lon="-70.992563702166080474853515625">
        <ele>727.4000244140625</ele>
        <time>2026-08-21T19:09:52.000Z</time>
        <extensions>
          <ns3:TrackPointExtension>
            <ns3:hr>138</ns3:hr>
            <ns3:cad>0</ns3:cad>
          </ns3:TrackPointExtension>
        </extensions>
      </trkpt>
      <trkpt lat="45.34747640602290630340576171875" lon="-70.9925668872892856597900390625">
        <ele>727.5999755859375</ele>
        <time>2026-08-21T19:09:53.000Z</time>
        <extensions>
          <ns3:TrackPointExtension>
            <ns3:hr>137</ns3:hr>
            <ns3:cad>0</ns3:cad>
          </ns3:TrackPointExtension>
        </extensions>
      </trkpt>
      <trkpt lat="45.3474773280322551727294921875" lon="-70.9925769455730915069580078125">
        <ele>727.79998779296875</ele>
        <time>2026-08-21T19:09:54.000Z</time>
        <extensions>
          <ns3:TrackPointExtension>
            <ns3:hr>138</ns3:hr>
            <ns3:cad>0</ns3:cad>
          </ns3:TrackPointExtension>
        </extensions>
      </trkpt>
      <trkpt lat="45.34747724421322345733642578125" lon="-70.99258549511432647705078125">
        <ele>728</ele>
        <time>2026-08-21T19:09:55.000Z</time>
        <extensions>
          <ns3:TrackPointExtension>
            <ns3:hr>138</ns3:hr>
            <ns3:cad>0</ns3:cad>
          </ns3:TrackPointExtension>
        </extensions>
      </trkpt>
      <trkpt lat="45.347473137080669403076171875" lon="-70.99259161390364170074462890625">
        <ele>728</ele>
        <time>2026-08-21T19:09:56.000Z</time>
        <extensions>
          <ns3:TrackPointExtension>
            <ns3:hr>138</ns3:hr>
            <ns3:cad>0</ns3:cad>
          </ns3:TrackPointExtension>
        </extensions>
      </trkpt>
      <trkpt lat="45.34747187979519367218017578125" lon="-70.9925890155136585235595703125">
        <ele>728.20001220703125</ele>
        <time>2026-08-21T19:09:57.000Z</time>
        <extensions>
          <ns3:TrackPointExtension>
            <ns3:hr>138</ns3:hr>
            <ns3:cad>0</ns3:cad>
          </ns3:TrackPointExtension>
        </extensions>
      </trkpt>
      <trkpt lat="45.34747003577649593353271484375" lon="-70.992590524256229400634765625">
        <ele>728.4000244140625</ele>
        <time>2026-08-21T19:09:58.000Z</time>
        <extensions>
          <ns3:TrackPointExtension>
            <ns3:hr>137</ns3:hr>
            <ns3:cad>0</ns3:cad>
          </ns3:TrackPointExtension>
        </extensions>
      </trkpt>
      <trkpt lat="45.3474702872335910797119140625" lon="-70.9925953857600688934326171875">
        <ele>728.5999755859375</ele>
        <time>2026-08-21T19:09:59.000Z</time>
        <extensions>
          <ns3:TrackPointExtension>
            <ns3:hr>138</ns3:hr>
            <ns3:cad>0</ns3:cad>
          </ns3:TrackPointExtension>
        </extensions>
      </trkpt>
      <trkpt lat="45.34746986813843250274658203125" lon="-70.99260686896741390228271484375">
        <ele>728.79998779296875</ele>
        <time>2026-08-21T19:10:00.000Z</time>
        <extensions>
          <ns3:TrackPointExtension>
            <ns3:hr>138</ns3:hr>
            <ns3:cad>0</ns3:cad>
          </ns3:TrackPointExtension>
        </extensions>
      </trkpt>
      <trkpt lat="45.34746835939586162567138671875" lon="-70.99260770715773105621337890625">
        <ele>729</ele>
        <time>2026-08-21T19:10:01.000Z</time>
        <extensions>
          <ns3:TrackPointExtension>
            <ns3:hr>138</ns3:hr>
            <ns3:cad>0</ns3:cad>
          </ns3:TrackPointExtension>
        </extensions>
      </trkpt>
      <trkpt lat="45.34746609628200531005859375" lon="-70.99262262694537639617919921875">
        <ele>729.20001220703125</ele>
        <time>2026-08-21T19:10:02.000Z</time>
        <extensions>
          <ns3:TrackPointExtension>
            <ns3:hr>138</ns3:hr>
            <ns3:cad>0</ns3:cad>
          </ns3:TrackPointExtension>
        </extensions>
      </trkpt>
      <trkpt lat="45.3474662639200687408447265625" lon="-70.99262614734470844268798828125">
        <ele>729.20001220703125</ele>
        <time>2026-08-21T19:10:03.000Z</time>
        <extensions>
          <ns3:TrackPointExtension>
            <ns3:hr>137</ns3:hr>
            <ns3:cad>0</ns3:cad>
          </ns3:TrackPointExtension>
        </extensions>
      </trkpt>
      <trkpt lat="45.34746483899652957916259765625" lon="-70.99263017065823078155517578125">
        <ele>729.4000244140625</ele>
        <time>2026-08-21T19:10:04.000Z</time>
        <extensions>
          <ns3:TrackPointExtension>
            <ns3:hr>137</ns3:hr>
            <ns3:cad>0</ns3:cad>
          </ns3:TrackPointExtension>
        </extensions>
      </trkpt>
      <trkpt lat="45.34746668301522731781005859375" lon="-70.99263637326657772064208984375">
        <ele>729.5999755859375</ele>
        <time>2026-08-21T19:10:05.000Z</time>
        <extensions>
          <ns3:TrackPointExtension>
            <ns3:hr>136</ns3:hr>
            <ns3:cad>0</ns3:cad>
          </ns3:TrackPointExtension>
        </extensions>
      </trkpt>
      <trkpt lat="45.34746609628200531005859375" lon="-70.9926409833133220672607421875">
        <ele>729.79998779296875</ele>
        <time>2026-08-21T19:10:06.000Z</time>
        <extensions>
          <ns3:TrackPointExtension>
            <ns3:hr>136</ns3:hr>
            <ns3:cad>0</ns3:cad>
          </ns3:TrackPointExtension>
        </extensions>
      </trkpt>
      <trkpt lat="45.347462408244609832763671875" lon="-70.992645509541034698486328125">
        <ele>730</ele>
        <time>2026-08-21T19:10:07.000Z</time>
        <extensions>
          <ns3:TrackPointExtension>
            <ns3:hr>136</ns3:hr>
            <ns3:cad>0</ns3:cad>
          </ns3:TrackPointExtension>
        </extensions>
      </trkpt>
      <trkpt lat="45.34746073186397552490234375" lon="-70.99264676682651042938232421875">
        <ele>730.20001220703125</ele>
        <time>2026-08-21T19:10:08.000Z</time>
        <extensions>
          <ns3:TrackPointExtension>
            <ns3:hr>135</ns3:hr>
            <ns3:cad>0</ns3:cad>
          </ns3:TrackPointExtension>
        </extensions>
      </trkpt>
      <trkpt lat="45.347457714378833770751953125" lon="-70.99265414290130138397216796875">
        <ele>730.4000244140625</ele>
        <time>2026-08-21T19:10:09.000Z</time>
        <extensions>
          <ns3:TrackPointExtension>
            <ns3:hr>135</ns3:hr>
            <ns3:cad>0</ns3:cad>
          </ns3:TrackPointExtension>
        </extensions>
      </trkpt>
      <trkpt lat="45.347459055483341217041015625" lon="-70.99265766330063343048095703125">
        <ele>730.5999755859375</ele>
        <time>2026-08-21T19:10:10.000Z</time>
        <extensions>
          <ns3:TrackPointExtension>
            <ns3:hr>136</ns3:hr>
            <ns3:cad>0</ns3:cad>
          </ns3:TrackPointExtension>
        </extensions>
      </trkpt>
      <trkpt lat="45.34746073186397552490234375" lon="-70.9926621057093143463134765625">
        <ele>730.5999755859375</ele>
        <time>2026-08-21T19:10:11.000Z</time>
        <extensions>
          <ns3:TrackPointExtension>
            <ns3:hr>136</ns3:hr>
            <ns3:cad>0</ns3:cad>
          </ns3:TrackPointExtension>
        </extensions>
      </trkpt>
      <trkpt lat="45.34745939075946807861328125" lon="-70.9926724992692470550537109375">
        <ele>730.79998779296875</ele>
        <time>2026-08-21T19:10:12.000Z</time>
        <extensions>
          <ns3:TrackPointExtension>
            <ns3:hr>136</ns3:hr>
            <ns3:cad>0</ns3:cad>
          </ns3:TrackPointExtension>
        </extensions>
      </trkpt>
      <trkpt lat="45.34746098332107067108154296875" lon="-70.9926781989634037017822265625">
        <ele>731</ele>
        <time>2026-08-21T19:10:13.000Z</time>
        <extensions>
          <ns3:TrackPointExtension>
            <ns3:hr>136</ns3:hr>
            <ns3:cad>0</ns3:cad>
          </ns3:TrackPointExtension>
        </extensions>
      </trkpt>
      <trkpt lat="45.34745930694043636322021484375" lon="-70.9926892630755901336669921875">
        <ele>731</ele>
        <time>2026-08-21T19:10:14.000Z</time>
        <extensions>
          <ns3:TrackPointExtension>
            <ns3:hr>136</ns3:hr>
            <ns3:cad>0</ns3:cad>
          </ns3:TrackPointExtension>
        </extensions>
      </trkpt>
      <trkpt lat="45.34746031276881694793701171875" lon="-70.992692448198795318603515625">
        <ele>731.20001220703125</ele>
        <time>2026-08-21T19:10:15.000Z</time>
        <extensions>
          <ns3:TrackPointExtension>
            <ns3:hr>136</ns3:hr>
            <ns3:cad>0</ns3:cad>
          </ns3:TrackPointExtension>
        </extensions>
      </trkpt>
      <trkpt lat="45.3474602289497852325439453125" lon="-70.9927016682922840118408203125">
        <ele>731.4000244140625</ele>
        <time>2026-08-21T19:10:16.000Z</time>
        <extensions>
          <ns3:TrackPointExtension>
            <ns3:hr>136</ns3:hr>
            <ns3:cad>0</ns3:cad>
          </ns3:TrackPointExtension>
        </extensions>
      </trkpt>
      <trkpt lat="45.34746165387332439422607421875" lon="-70.9927050210535526275634765625">
        <ele>731.4000244140625</ele>
        <time>2026-08-21T19:10:17.000Z</time>
        <extensions>
          <ns3:TrackPointExtension>
            <ns3:hr>136</ns3:hr>
            <ns3:cad>0</ns3:cad>
          </ns3:TrackPointExtension>
        </extensions>
      </trkpt>
      <trkpt lat="45.34746341407299041748046875" lon="-70.992708541452884674072265625">
        <ele>731.5999755859375</ele>
        <time>2026-08-21T19:10:18.000Z</time>
        <extensions>
          <ns3:TrackPointExtension>
            <ns3:hr>136</ns3:hr>
            <ns3:cad>0</ns3:cad>
          </ns3:TrackPointExtension>
        </extensions>
      </trkpt>
      <trkpt lat="45.347464084625244140625" lon="-70.99270778708159923553466796875">
        <ele>731.79998779296875</ele>
        <time>2026-08-21T19:10:19.000Z</time>
        <extensions>
          <ns3:TrackPointExtension>
            <ns3:hr>136</ns3:hr>
            <ns3:cad>0</ns3:cad>
          </ns3:TrackPointExtension>
        </extensions>
      </trkpt>
      <trkpt lat="45.34746618010103702545166015625" lon="-70.9927107207477092742919921875">
        <ele>732</ele>
        <time>2026-08-21T19:10:20.000Z</time>
        <extensions>
          <ns3:TrackPointExtension>
            <ns3:hr>135</ns3:hr>
            <ns3:cad>0</ns3:cad>
          </ns3:TrackPointExtension>
        </extensions>
      </trkpt>
      <trkpt lat="45.3474676050245761871337890625" lon="-70.99271046929061412811279296875">
        <ele>732.20001220703125</ele>
        <time>2026-08-21T19:10:21.000Z</time>
        <extensions>
          <ns3:TrackPointExtension>
            <ns3:hr>134</ns3:hr>
            <ns3:cad>0</ns3:cad>
          </ns3:TrackPointExtension>
        </extensions>
      </trkpt>
      <trkpt lat="45.347467772662639617919921875" lon="-70.9927103854715824127197265625">
        <ele>732.4000244140625</ele>
        <time>2026-08-21T19:10:22.000Z</time>
        <extensions>
          <ns3:TrackPointExtension>
            <ns3:hr>133</ns3:hr>
            <ns3:cad>0</ns3:cad>
          </ns3:TrackPointExtension>
        </extensions>
      </trkpt>
      <trkpt lat="45.34747011959552764892578125" lon="-70.99271231330931186676025390625">
        <ele>732.5999755859375</ele>
        <time>2026-08-21T19:10:23.000Z</time>
        <extensions>
          <ns3:TrackPointExtension>
            <ns3:hr>133</ns3:hr>
            <ns3:cad>0</ns3:cad>
          </ns3:TrackPointExtension>
        </extensions>
      </trkpt>
      <trkpt lat="45.3474707901477813720703125" lon="-70.9927164204418659210205078125">
        <ele>732.5999755859375</ele>
        <time>2026-08-21T19:10:24.000Z</time>
        <extensions>
          <ns3:TrackPointExtension>
            <ns3:hr>134</ns3:hr>
            <ns3:cad>0</ns3:cad>
          </ns3:TrackPointExtension>
        </extensions>
      </trkpt>
      <trkpt lat="45.34746919758617877960205078125" lon="-70.99272488616406917572021484375">
        <ele>732.79998779296875</ele>
        <time>2026-08-21T19:10:25.000Z</time>
        <extensions>
          <ns3:TrackPointExtension>
            <ns3:hr>134</ns3:hr>
            <ns3:cad>0</ns3:cad>
          </ns3:TrackPointExtension>
        </extensions>
      </trkpt>
      <trkpt lat="45.3474702872335910797119140625" lon="-70.9927274845540523529052734375">
        <ele>733</ele>
        <time>2026-08-21T19:10:26.000Z</time>
        <extensions>
          <ns3:TrackPointExtension>
            <ns3:hr>134</ns3:hr>
            <ns3:cad>0</ns3:cad>
          </ns3:TrackPointExtension>
        </extensions>
      </trkpt>
      <trkpt lat="45.3474716283380985260009765625" lon="-70.9927415661513805389404296875">
        <ele>733.20001220703125</ele>
        <time>2026-08-21T19:10:27.000Z</time>
        <extensions>
          <ns3:TrackPointExtension>
            <ns3:hr>134</ns3:hr>
            <ns3:cad>0</ns3:cad>
          </ns3:TrackPointExtension>
        </extensions>
      </trkpt>
      <trkpt lat="45.34747322089970111846923828125" lon="-70.9927506186068058013916015625">
        <ele>733.20001220703125</ele>
        <time>2026-08-21T19:10:28.000Z</time>
        <extensions>
          <ns3:TrackPointExtension>
            <ns3:hr>133</ns3:hr>
            <ns3:cad>0</ns3:cad>
          </ns3:TrackPointExtension>
        </extensions>
      </trkpt>
      <trkpt lat="45.34747489728033542633056640625" lon="-70.99275841377675533294677734375">
        <ele>733.4000244140625</ele>
        <time>2026-08-21T19:10:29.000Z</time>
        <extensions>
          <ns3:TrackPointExtension>
            <ns3:hr>133</ns3:hr>
            <ns3:cad>0</ns3:cad>
          </ns3:TrackPointExtension>
        </extensions>
      </trkpt>
      <trkpt lat="45.34747548401355743408203125" lon="-70.992762185633182525634765625">
        <ele>733.5999755859375</ele>
        <time>2026-08-21T19:10:30.000Z</time>
        <extensions>
          <ns3:TrackPointExtension>
            <ns3:hr>132</ns3:hr>
            <ns3:cad>0</ns3:cad>
          </ns3:TrackPointExtension>
        </extensions>
      </trkpt>
      <trkpt lat="45.347474478185176849365234375" lon="-70.99276461638510227203369140625">
        <ele>733.79998779296875</ele>
        <time>2026-08-21T19:10:31.000Z</time>
        <extensions>
          <ns3:TrackPointExtension>
            <ns3:hr>132</ns3:hr>
            <ns3:cad>0</ns3:cad>
          </ns3:TrackPointExtension>
        </extensions>
      </trkpt>
      <trkpt lat="45.3474766574800014495849609375" lon="-70.9927739202976226806640625">
        <ele>734</ele>
        <time>2026-08-21T19:10:32.000Z</time>
        <extensions>
          <ns3:TrackPointExtension>
            <ns3:hr>132</ns3:hr>
            <ns3:cad>0</ns3:cad>
          </ns3:TrackPointExtension>
        </extensions>
      </trkpt>
      <trkpt lat="45.3474786691367626190185546875" lon="-70.9927804581820964813232421875">
        <ele>734.20001220703125</ele>
        <time>2026-08-21T19:10:33.000Z</time>
        <extensions>
          <ns3:TrackPointExtension>
            <ns3:hr>132</ns3:hr>
            <ns3:cad>0</ns3:cad>
          </ns3:TrackPointExtension>
        </extensions>
      </trkpt>
      <trkpt lat="45.347475819289684295654296875" lon="-70.99277953617274761199951171875">
        <ele>734.4000244140625</ele>
        <time>2026-08-21T19:10:34.000Z</time>
        <extensions>
          <ns3:TrackPointExtension>
            <ns3:hr>132</ns3:hr>
            <ns3:cad>0</ns3:cad>
          </ns3:TrackPointExtension>
        </extensions>
      </trkpt>
      <trkpt lat="45.34747741185128688812255859375" lon="-70.99278573878109455108642578125">
        <ele>734.5999755859375</ele>
        <time>2026-08-21T19:10:35.000Z</time>
        <extensions>
          <ns3:TrackPointExtension>
            <ns3:hr>132</ns3:hr>
            <ns3:cad>0</ns3:cad>
          </ns3:TrackPointExtension>
        </extensions>
      </trkpt>
      <trkpt lat="45.3474776633083820343017578125" lon="-70.99278473295271396636962890625">
        <ele>734.79998779296875</ele>
        <time>2026-08-21T19:10:36.000Z</time>
        <extensions>
          <ns3:TrackPointExtension>
            <ns3:hr>132</ns3:hr>
            <ns3:cad>0</ns3:cad>
          </ns3:TrackPointExtension>
        </extensions>
      </trkpt>
      <trkpt lat="45.34747623838484287261962890625" lon="-70.99278397858142852783203125">
        <ele>735</ele>
        <time>2026-08-21T19:10:37.000Z</time>
        <extensions>
          <ns3:TrackPointExtension>
            <ns3:hr>132</ns3:hr>
            <ns3:cad>0</ns3:cad>
          </ns3:TrackPointExtension>
        </extensions>
      </trkpt>
      <trkpt lat="45.34747146070003509521484375" lon="-70.99278724752366542816162109375">
        <ele>735</ele>
        <time>2026-08-21T19:10:38.000Z</time>
        <extensions>
          <ns3:TrackPointExtension>
            <ns3:hr>132</ns3:hr>
            <ns3:cad>0</ns3:cad>
          </ns3:TrackPointExtension>
        </extensions>
      </trkpt>
      <trkpt lat="45.3474712930619716644287109375" lon="-70.99279361777007579803466796875">
        <ele>735.20001220703125</ele>
        <time>2026-08-21T19:10:39.000Z</time>
        <extensions>
          <ns3:TrackPointExtension>
            <ns3:hr>132</ns3:hr>
            <ns3:cad>0</ns3:cad>
          </ns3:TrackPointExtension>
        </extensions>
      </trkpt>
      <trkpt lat="45.347469784319400787353515625" lon="-70.9927921928465366363525390625">
        <ele>735.4000244140625</ele>
        <time>2026-08-21T19:10:40.000Z</time>
        <extensions>
          <ns3:TrackPointExtension>
            <ns3:hr>132</ns3:hr>
            <ns3:cad>0</ns3:cad>
          </ns3:TrackPointExtension>
        </extensions>
      </trkpt>
      <trkpt lat="45.34746701829135417938232421875" lon="-70.99280049093067646026611328125">
        <ele>735.5999755859375</ele>
        <time>2026-08-21T19:10:41.000Z</time>
        <extensions>
          <ns3:TrackPointExtension>
            <ns3:hr>132</ns3:hr>
            <ns3:cad>0</ns3:cad>
          </ns3:TrackPointExtension>
        </extensions>
      </trkpt>
      <trkpt lat="45.34746433608233928680419921875" lon="-70.99280367605388164520263671875">
        <ele>735.79998779296875</ele>
        <time>2026-08-21T19:10:42.000Z</time>
        <extensions>
          <ns3:TrackPointExtension>
            <ns3:hr>132</ns3:hr>
            <ns3:cad>0</ns3:cad>
          </ns3:TrackPointExtension>
        </extensions>
      </trkpt>
      <trkpt lat="45.34746400080621242523193359375" lon="-70.99281440488994121551513671875">
        <ele>736</ele>
        <time>2026-08-21T19:10:43.000Z</time>
        <extensions>
          <ns3:TrackPointExtension>
            <ns3:hr>132</ns3:hr>
            <ns3:cad>0</ns3:cad>
          </ns3:TrackPointExtension>
        </extensions>
      </trkpt>
      <trkpt lat="45.3474632464349269866943359375" lon="-70.9928230382502079010009765625">
        <ele>736.20001220703125</ele>
        <time>2026-08-21T19:10:44.000Z</time>
        <extensions>
          <ns3:TrackPointExtension>
            <ns3:hr>133</ns3:hr>
            <ns3:cad>0</ns3:cad>
          </ns3:TrackPointExtension>
        </extensions>
      </trkpt>
      <trkpt lat="45.34745897166430950164794921875" lon="-70.9928324259817600250244140625">
        <ele>736.4000244140625</ele>
        <time>2026-08-21T19:10:45.000Z</time>
        <extensions>
          <ns3:TrackPointExtension>
            <ns3:hr>133</ns3:hr>
            <ns3:cad>0</ns3:cad>
          </ns3:TrackPointExtension>
        </extensions>
      </trkpt>
      <trkpt lat="45.34745863638818264007568359375" lon="-70.99284508265554904937744140625">
        <ele>736.5999755859375</ele>
        <time>2026-08-21T19:10:46.000Z</time>
        <extensions>
          <ns3:TrackPointExtension>
            <ns3:hr>133</ns3:hr>
            <ns3:cad>0</ns3:cad>
          </ns3:TrackPointExtension>
        </extensions>
      </trkpt>
      <trkpt lat="45.34746048040688037872314453125" lon="-70.9928562305867671966552734375">
        <ele>736.79998779296875</ele>
        <time>2026-08-21T19:10:47.000Z</time>
        <extensions>
          <ns3:TrackPointExtension>
            <ns3:hr>132</ns3:hr>
            <ns3:cad>0</ns3:cad>
          </ns3:TrackPointExtension>
        </extensions>
      </trkpt>
      <trkpt lat="45.347463749349117279052734375" lon="-70.9928639419376850128173828125">
        <ele>737</ele>
        <time>2026-08-21T19:10:48.000Z</time>
        <extensions>
          <ns3:TrackPointExtension>
            <ns3:hr>133</ns3:hr>
            <ns3:cad>0</ns3:cad>
          </ns3:TrackPointExtension>
        </extensions>
      </trkpt>
      <trkpt lat="45.34746450372040271759033203125" lon="-70.9928696416318416595458984375">
        <ele>737.20001220703125</ele>
        <time>2026-08-21T19:10:49.000Z</time>
        <extensions>
          <ns3:TrackPointExtension>
            <ns3:hr>134</ns3:hr>
            <ns3:cad>0</ns3:cad>
          </ns3:TrackPointExtension>
        </extensions>
      </trkpt>
      <trkpt lat="45.3474659286439418792724609375" lon="-70.9928726591169834136962890625">
        <ele>737.4000244140625</ele>
        <time>2026-08-21T19:10:50.000Z</time>
        <extensions>
          <ns3:TrackPointExtension>
            <ns3:hr>134</ns3:hr>
            <ns3:cad>0</ns3:cad>
          </ns3:TrackPointExtension>
        </extensions>
      </trkpt>
      <trkpt lat="45.34746701829135417938232421875" lon="-70.9928773529827594757080078125">
        <ele>737.5999755859375</ele>
        <time>2026-08-21T19:10:51.000Z</time>
        <extensions>
          <ns3:TrackPointExtension>
            <ns3:hr>135</ns3:hr>
            <ns3:cad>0</ns3:cad>
          </ns3:TrackPointExtension>
        </extensions>
      </trkpt>
      <trkpt lat="45.34746919758617877960205078125" lon="-70.99287894554436206817626953125">
        <ele>737.79998779296875</ele>
        <time>2026-08-21T19:10:52.000Z</time>
        <extensions>
          <ns3:TrackPointExtension>
            <ns3:hr>135</ns3:hr>
            <ns3:cad>0</ns3:cad>
          </ns3:TrackPointExtension>
        </extensions>
      </trkpt>
      <trkpt lat="45.347470454871654510498046875" lon="-70.9928847290575504302978515625">
        <ele>738</ele>
        <time>2026-08-21T19:10:53.000Z</time>
        <extensions>
          <ns3:TrackPointExtension>
            <ns3:hr>136</ns3:hr>
            <ns3:cad>0</ns3:cad>
          </ns3:TrackPointExtension>
        </extensions>
      </trkpt>
      <trkpt lat="45.3474726341664791107177734375" lon="-70.992887578904628753662109375">
        <ele>738.4000244140625</ele>
        <time>2026-08-21T19:10:54.000Z</time>
        <extensions>
          <ns3:TrackPointExtension>
            <ns3:hr>136</ns3:hr>
            <ns3:cad>0</ns3:cad>
          </ns3:TrackPointExtension>
        </extensions>
      </trkpt>
      <trkpt lat="45.34747137688100337982177734375" lon="-70.99289068020880222320556640625">
        <ele>738.5999755859375</ele>
        <time>2026-08-21T19:10:55.000Z</time>
        <extensions>
          <ns3:TrackPointExtension>
            <ns3:hr>136</ns3:hr>
            <ns3:cad>0</ns3:cad>
          </ns3:TrackPointExtension>
        </extensions>
      </trkpt>
      <trkpt lat="45.34747280180454254150390625" lon="-70.9928957931697368621826171875">
        <ele>738.79998779296875</ele>
        <time>2026-08-21T19:10:56.000Z</time>
        <extensions>
          <ns3:TrackPointExtension>
            <ns3:hr>136</ns3:hr>
            <ns3:cad>0</ns3:cad>
          </ns3:TrackPointExtension>
        </extensions>
      </trkpt>
      <trkpt lat="45.34747280180454254150390625" lon="-70.99289906211197376251220703125">
        <ele>738.79998779296875</ele>
        <time>2026-08-21T19:10:57.000Z</time>
        <extensions>
          <ns3:TrackPointExtension>
            <ns3:hr>136</ns3:hr>
            <ns3:cad>0</ns3:cad>
          </ns3:TrackPointExtension>
        </extensions>
      </trkpt>
      <trkpt lat="45.34747548401355743408203125" lon="-70.99290124140679836273193359375">
        <ele>739</ele>
        <time>2026-08-21T19:10:58.000Z</time>
        <extensions>
          <ns3:TrackPointExtension>
            <ns3:hr>136</ns3:hr>
            <ns3:cad>0</ns3:cad>
          </ns3:TrackPointExtension>
        </extensions>
      </trkpt>
      <trkpt lat="45.3474776633083820343017578125" lon="-70.9929026663303375244140625">
        <ele>739.4000244140625</ele>
        <time>2026-08-21T19:10:59.000Z</time>
        <extensions>
          <ns3:TrackPointExtension>
            <ns3:hr>136</ns3:hr>
            <ns3:cad>0</ns3:cad>
          </ns3:TrackPointExtension>
        </extensions>
      </trkpt>
      <trkpt lat="45.34747959114611148834228515625" lon="-70.99290627054870128631591796875">
        <ele>739.5999755859375</ele>
        <time>2026-08-21T19:11:00.000Z</time>
        <extensions>
          <ns3:TrackPointExtension>
            <ns3:hr>137</ns3:hr>
            <ns3:cad>0</ns3:cad>
          </ns3:TrackPointExtension>
        </extensions>
      </trkpt>
      <trkpt lat="45.3474761545658111572265625" lon="-70.9929004870355129241943359375">
        <ele>739.79998779296875</ele>
        <time>2026-08-21T19:11:01.000Z</time>
        <extensions>
          <ns3:TrackPointExtension>
            <ns3:hr>138</ns3:hr>
            <ns3:cad>0</ns3:cad>
          </ns3:TrackPointExtension>
        </extensions>
      </trkpt>
      <trkpt lat="45.3474761545658111572265625" lon="-70.9929035045206546783447265625">
        <ele>740</ele>
        <time>2026-08-21T19:11:02.000Z</time>
        <extensions>
          <ns3:TrackPointExtension>
            <ns3:hr>138</ns3:hr>
            <ns3:cad>0</ns3:cad>
          </ns3:TrackPointExtension>
        </extensions>
      </trkpt>
      <trkpt lat="45.34747674129903316497802734375" lon="-70.99291230551898479461669921875">
        <ele>740.20001220703125</ele>
        <time>2026-08-21T19:11:03.000Z</time>
        <extensions>
          <ns3:TrackPointExtension>
            <ns3:hr>137</ns3:hr>
            <ns3:cad>0</ns3:cad>
          </ns3:TrackPointExtension>
        </extensions>
      </trkpt>
      <trkpt lat="45.34747439436614513397216796875" lon="-70.9929182566702365875244140625">
        <ele>740.4000244140625</ele>
        <time>2026-08-21T19:11:04.000Z</time>
        <extensions>
          <ns3:TrackPointExtension>
            <ns3:hr>138</ns3:hr>
            <ns3:cad>0</ns3:cad>
          </ns3:TrackPointExtension>
        </extensions>
      </trkpt>
      <trkpt lat="45.347478501498699188232421875" lon="-70.992920435965061187744140625">
        <ele>740.5999755859375</ele>
        <time>2026-08-21T19:11:05.000Z</time>
        <extensions>
          <ns3:TrackPointExtension>
            <ns3:hr>138</ns3:hr>
            <ns3:cad>0</ns3:cad>
          </ns3:TrackPointExtension>
        </extensions>
      </trkpt>
      <trkpt lat="45.34747858531773090362548828125" lon="-70.99293342791497707366943359375">
        <ele>740.79998779296875</ele>
        <time>2026-08-21T19:11:06.000Z</time>
        <extensions>
          <ns3:TrackPointExtension>
            <ns3:hr>137</ns3:hr>
            <ns3:cad>0</ns3:cad>
          </ns3:TrackPointExtension>
        </extensions>
      </trkpt>
      <trkpt lat="45.3474763222038745880126953125" lon="-70.9929497726261615753173828125">
        <ele>741</ele>
        <time>2026-08-21T19:11:07.000Z</time>
        <extensions>
          <ns3:TrackPointExtension>
            <ns3:hr>138</ns3:hr>
            <ns3:cad>0</ns3:cad>
          </ns3:TrackPointExtension>
        </extensions>
      </trkpt>
      <trkpt lat="45.34747590310871601104736328125" lon="-70.9929487667977809906005859375">
        <ele>741.20001220703125</ele>
        <time>2026-08-21T19:11:08.000Z</time>
        <extensions>
          <ns3:TrackPointExtension>
            <ns3:hr>138</ns3:hr>
            <ns3:cad>0</ns3:cad>
          </ns3:TrackPointExtension>
        </extensions>
      </trkpt>
      <trkpt lat="45.3474748134613037109375" lon="-70.99295170046389102935791015625">
        <ele>741.4000244140625</ele>
        <time>2026-08-21T19:11:09.000Z</time>
        <extensions>
          <ns3:TrackPointExtension>
            <ns3:hr>139</ns3:hr>
            <ns3:cad>0</ns3:cad>
          </ns3:TrackPointExtension>
        </extensions>
      </trkpt>
      <trkpt lat="45.34747573547065258026123046875" lon="-70.9929537959396839141845703125">
        <ele>741.5999755859375</ele>
        <time>2026-08-21T19:11:10.000Z</time>
        <extensions>
          <ns3:TrackPointExtension>
            <ns3:hr>139</ns3:hr>
            <ns3:cad>0</ns3:cad>
          </ns3:TrackPointExtension>
        </extensions>
      </trkpt>
      <trkpt lat="45.34748160280287265777587890625" lon="-70.99296309985220432281494140625">
        <ele>741.79998779296875</ele>
        <time>2026-08-21T19:11:11.000Z</time>
        <extensions>
          <ns3:TrackPointExtension>
            <ns3:hr>140</ns3:hr>
            <ns3:cad>0</ns3:cad>
          </ns3:TrackPointExtension>
        </extensions>
      </trkpt>
      <trkpt lat="45.3474806807935237884521484375" lon="-70.99296175874769687652587890625">
        <ele>742</ele>
        <time>2026-08-21T19:11:12.000Z</time>
        <extensions>
          <ns3:TrackPointExtension>
            <ns3:hr>140</ns3:hr>
            <ns3:cad>0</ns3:cad>
          </ns3:TrackPointExtension>
        </extensions>
      </trkpt>
      <trkpt lat="45.3474826924502849578857421875" lon="-70.99297734908759593963623046875">
        <ele>742.20001220703125</ele>
        <time>2026-08-21T19:11:13.000Z</time>
        <extensions>
          <ns3:TrackPointExtension>
            <ns3:hr>140</ns3:hr>
            <ns3:cad>0</ns3:cad>
          </ns3:TrackPointExtension>
        </extensions>
      </trkpt>
      <trkpt lat="45.34748344682157039642333984375" lon="-70.99298086948692798614501953125">
        <ele>742.4000244140625</ele>
        <time>2026-08-21T19:11:14.000Z</time>
        <extensions>
          <ns3:TrackPointExtension>
            <ns3:hr>140</ns3:hr>
            <ns3:cad>0</ns3:cad>
          </ns3:TrackPointExtension>
        </extensions>
      </trkpt>
      <trkpt lat="45.34748143516480922698974609375" lon="-70.992990173399448394775390625">
        <ele>742.79998779296875</ele>
        <time>2026-08-21T19:11:15.000Z</time>
        <extensions>
          <ns3:TrackPointExtension>
            <ns3:hr>140</ns3:hr>
            <ns3:cad>0</ns3:cad>
          </ns3:TrackPointExtension>
        </extensions>
      </trkpt>
      <trkpt lat="45.34747808240354061126708984375" lon="-70.9930054284632205963134765625">
        <ele>743</ele>
        <time>2026-08-21T19:11:16.000Z</time>
        <extensions>
          <ns3:TrackPointExtension>
            <ns3:hr>140</ns3:hr>
            <ns3:cad>0</ns3:cad>
          </ns3:TrackPointExtension>
        </extensions>
      </trkpt>
      <trkpt lat="45.3474793396890163421630859375" lon="-70.99301305599510669708251953125">
        <ele>743.20001220703125</ele>
        <time>2026-08-21T19:11:17.000Z</time>
        <extensions>
          <ns3:TrackPointExtension>
            <ns3:hr>141</ns3:hr>
            <ns3:cad>0</ns3:cad>
          </ns3:TrackPointExtension>
        </extensions>
      </trkpt>
      <trkpt lat="45.34747682511806488037109375" lon="-70.99302135407924652099609375">
        <ele>743.4000244140625</ele>
        <time>2026-08-21T19:11:18.000Z</time>
        <extensions>
          <ns3:TrackPointExtension>
            <ns3:hr>141</ns3:hr>
            <ns3:cad>0</ns3:cad>
          </ns3:TrackPointExtension>
        </extensions>
      </trkpt>
      <trkpt lat="45.34747959114611148834228515625" lon="-70.99303300492465496063232421875">
        <ele>743.5999755859375</ele>
        <time>2026-08-21T19:11:19.000Z</time>
        <extensions>
          <ns3:TrackPointExtension>
            <ns3:hr>142</ns3:hr>
            <ns3:cad>55</ns3:cad>
          </ns3:TrackPointExtension>
        </extensions>
      </trkpt>
      <trkpt lat="45.34747942350804805755615234375" lon="-70.9930382855236530303955078125">
        <ele>743.79998779296875</ele>
        <time>2026-08-21T19:11:20.000Z</time>
        <extensions>
          <ns3:TrackPointExtension>
            <ns3:hr>142</ns3:hr>
            <ns3:cad>55</ns3:cad>
          </ns3:TrackPointExtension>
        </extensions>
      </trkpt>
      <trkpt lat="45.347481854259967803955078125" lon="-70.9930419735610485076904296875">
        <ele>744</ele>
        <time>2026-08-21T19:11:21.000Z</time>
        <extensions>
          <ns3:TrackPointExtension>
            <ns3:hr>142</ns3:hr>
            <ns3:cad>55</ns3:cad>
          </ns3:TrackPointExtension>
        </extensions>
      </trkpt>
      <trkpt lat="45.34748353064060211181640625" lon="-70.9930408000946044921875">
        <ele>744</ele>
        <time>2026-08-21T19:11:22.000Z</time>
        <extensions>
          <ns3:TrackPointExtension>
            <ns3:hr>142</ns3:hr>
            <ns3:cad>0</ns3:cad>
          </ns3:TrackPointExtension>
        </extensions>
      </trkpt>
      <trkpt lat="45.3474826924502849578857421875" lon="-70.99304281175136566162109375">
        <ele>744.20001220703125</ele>
        <time>2026-08-21T19:11:23.000Z</time>
        <extensions>
          <ns3:TrackPointExtension>
            <ns3:hr>143</ns3:hr>
            <ns3:cad>0</ns3:cad>
          </ns3:TrackPointExtension>
        </extensions>
      </trkpt>
      <trkpt lat="45.3474815189838409423828125" lon="-70.993042476475238800048828125">
        <ele>744.4000244140625</ele>
        <time>2026-08-21T19:11:24.000Z</time>
        <extensions>
          <ns3:TrackPointExtension>
            <ns3:hr>143</ns3:hr>
            <ns3:cad>0</ns3:cad>
          </ns3:TrackPointExtension>
        </extensions>
      </trkpt>
      <trkpt lat="45.34747959114611148834228515625" lon="-70.99304574541747570037841796875">
        <ele>744.5999755859375</ele>
        <time>2026-08-21T19:11:25.000Z</time>
        <extensions>
          <ns3:TrackPointExtension>
            <ns3:hr>142</ns3:hr>
            <ns3:cad>0</ns3:cad>
          </ns3:TrackPointExtension>
        </extensions>
      </trkpt>
      <trkpt lat="45.3474756516516208648681640625" lon="-70.99306049756705760955810546875">
        <ele>744.79998779296875</ele>
        <time>2026-08-21T19:11:26.000Z</time>
        <extensions>
          <ns3:TrackPointExtension>
            <ns3:hr>142</ns3:hr>
            <ns3:cad>0</ns3:cad>
          </ns3:TrackPointExtension>
        </extensions>
      </trkpt>
      <trkpt lat="45.34747439436614513397216796875" lon="-70.993065275251865386962890625">
        <ele>744.79998779296875</ele>
        <time>2026-08-21T19:11:27.000Z</time>
        <extensions>
          <ns3:TrackPointExtension>
            <ns3:hr>142</ns3:hr>
            <ns3:cad>0</ns3:cad>
          </ns3:TrackPointExtension>
        </extensions>
      </trkpt>
      <trkpt lat="45.3474707901477813720703125" lon="-70.99306871183216571807861328125">
        <ele>745</ele>
        <time>2026-08-21T19:11:28.000Z</time>
        <extensions>
          <ns3:TrackPointExtension>
            <ns3:hr>143</ns3:hr>
            <ns3:cad>0</ns3:cad>
          </ns3:TrackPointExtension>
        </extensions>
      </trkpt>
      <trkpt lat="45.34747280180454254150390625" lon="-70.99307441152632236480712890625">
        <ele>745.20001220703125</ele>
        <time>2026-08-21T19:11:29.000Z</time>
        <extensions>
          <ns3:TrackPointExtension>
            <ns3:hr>143</ns3:hr>
            <ns3:cad>0</ns3:cad>
          </ns3:TrackPointExtension>
        </extensions>
      </trkpt>
      <trkpt lat="45.34747137688100337982177734375" lon="-70.99308681674301624298095703125">
        <ele>745.4000244140625</ele>
        <time>2026-08-21T19:11:30.000Z</time>
        <extensions>
          <ns3:TrackPointExtension>
            <ns3:hr>142</ns3:hr>
            <ns3:cad>0</ns3:cad>
          </ns3:TrackPointExtension>
        </extensions>
      </trkpt>
      <trkpt lat="45.34746944904327392578125" lon="-70.99308866076171398162841796875">
        <ele>745.4000244140625</ele>
        <time>2026-08-21T19:11:31.000Z</time>
        <extensions>
          <ns3:TrackPointExtension>
            <ns3:hr>143</ns3:hr>
            <ns3:cad>0</ns3:cad>
          </ns3:TrackPointExtension>
        </extensions>
      </trkpt>
      <trkpt lat="45.34746701829135417938232421875" lon="-70.99309788085520267486572265625">
        <ele>745.5999755859375</ele>
        <time>2026-08-21T19:11:32.000Z</time>
        <extensions>
          <ns3:TrackPointExtension>
            <ns3:hr>142</ns3:hr>
            <ns3:cad>0</ns3:cad>
          </ns3:TrackPointExtension>
        </extensions>
      </trkpt>
      <trkpt lat="45.347466766834259033203125" lon="-70.9931009821593761444091796875">
        <ele>745.79998779296875</ele>
        <time>2026-08-21T19:11:33.000Z</time>
        <extensions>
          <ns3:TrackPointExtension>
            <ns3:hr>142</ns3:hr>
            <ns3:cad>0</ns3:cad>
          </ns3:TrackPointExtension>
        </extensions>
      </trkpt>
      <trkpt lat="45.34746802411973476409912109375" lon="-70.99311816506087779998779296875">
        <ele>746</ele>
        <time>2026-08-21T19:11:34.000Z</time>
        <extensions>
          <ns3:TrackPointExtension>
            <ns3:hr>142</ns3:hr>
            <ns3:cad>0</ns3:cad>
          </ns3:TrackPointExtension>
        </extensions>
      </trkpt>
      <trkpt lat="45.3474681079387664794921875" lon="-70.99312118254601955413818359375">
        <ele>746.4000244140625</ele>
        <time>2026-08-21T19:11:35.000Z</time>
        <extensions>
          <ns3:TrackPointExtension>
            <ns3:hr>142</ns3:hr>
            <ns3:cad>0</ns3:cad>
          </ns3:TrackPointExtension>
        </extensions>
      </trkpt>
      <trkpt lat="45.34747070632874965667724609375" lon="-70.9931252896785736083984375">
        <ele>746.5999755859375</ele>
        <time>2026-08-21T19:11:36.000Z</time>
        <extensions>
          <ns3:TrackPointExtension>
            <ns3:hr>142</ns3:hr>
            <ns3:cad>0</ns3:cad>
          </ns3:TrackPointExtension>
        </extensions>
      </trkpt>
      <trkpt lat="45.34747322089970111846923828125" lon="-70.99313409067690372467041015625">
        <ele>746.79998779296875</ele>
        <time>2026-08-21T19:11:37.000Z</time>
        <extensions>
          <ns3:TrackPointExtension>
            <ns3:hr>142</ns3:hr>
            <ns3:cad>0</ns3:cad>
          </ns3:TrackPointExtension>
        </extensions>
      </trkpt>
      <trkpt lat="45.34747288562357425689697265625" lon="-70.99313945509493350982666015625">
        <ele>747</ele>
        <time>2026-08-21T19:11:38.000Z</time>
        <extensions>
          <ns3:TrackPointExtension>
            <ns3:hr>142</ns3:hr>
            <ns3:cad>0</ns3:cad>
          </ns3:TrackPointExtension>
        </extensions>
      </trkpt>
      <trkpt lat="45.34747422672808170318603515625" lon="-70.99314800463616847991943359375">
        <ele>747</ele>
        <time>2026-08-21T19:11:39.000Z</time>
        <extensions>
          <ns3:TrackPointExtension>
            <ns3:hr>142</ns3:hr>
            <ns3:cad>0</ns3:cad>
          </ns3:TrackPointExtension>
        </extensions>
      </trkpt>
      <trkpt lat="45.34747355617582798004150390625" lon="-70.993155129253864288330078125">
        <ele>747.20001220703125</ele>
        <time>2026-08-21T19:11:40.000Z</time>
        <extensions>
          <ns3:TrackPointExtension>
            <ns3:hr>142</ns3:hr>
            <ns3:cad>0</ns3:cad>
          </ns3:TrackPointExtension>
        </extensions>
      </trkpt>
      <trkpt lat="45.34747858531773090362548828125" lon="-70.99316912703216075897216796875">
        <ele>747.4000244140625</ele>
        <time>2026-08-21T19:11:41.000Z</time>
        <extensions>
          <ns3:TrackPointExtension>
            <ns3:hr>142</ns3:hr>
            <ns3:cad>0</ns3:cad>
          </ns3:TrackPointExtension>
        </extensions>
      </trkpt>
      <trkpt lat="45.3474800102412700653076171875" lon="-70.99317868240177631378173828125">
        <ele>747.4000244140625</ele>
        <time>2026-08-21T19:11:42.000Z</time>
        <extensions>
          <ns3:TrackPointExtension>
            <ns3:hr>142</ns3:hr>
            <ns3:cad>0</ns3:cad>
          </ns3:TrackPointExtension>
        </extensions>
      </trkpt>
      <trkpt lat="45.34747674129903316497802734375" lon="-70.9931891597807407379150390625">
        <ele>747.4000244140625</ele>
        <time>2026-08-21T19:11:43.000Z</time>
        <extensions>
          <ns3:TrackPointExtension>
            <ns3:hr>142</ns3:hr>
            <ns3:cad>0</ns3:cad>
          </ns3:TrackPointExtension>
        </extensions>
      </trkpt>
      <trkpt lat="45.3474743105471134185791015625" lon="-70.99319946952164173126220703125">
        <ele>747.5999755859375</ele>
        <time>2026-08-21T19:11:44.000Z</time>
        <extensions>
          <ns3:TrackPointExtension>
            <ns3:hr>142</ns3:hr>
            <ns3:cad>0</ns3:cad>
          </ns3:TrackPointExtension>
        </extensions>
      </trkpt>
      <trkpt lat="45.34747372381389141082763671875" lon="-70.99321003071963787078857421875">
        <ele>747.5999755859375</ele>
        <time>2026-08-21T19:11:45.000Z</time>
        <extensions>
          <ns3:TrackPointExtension>
            <ns3:hr>142</ns3:hr>
            <ns3:cad>0</ns3:cad>
          </ns3:TrackPointExtension>
        </extensions>
      </trkpt>
      <trkpt lat="45.3474719636142253875732421875" lon="-70.9932179935276508331298828125">
        <ele>747.79998779296875</ele>
        <time>2026-08-21T19:11:46.000Z</time>
        <extensions>
          <ns3:TrackPointExtension>
            <ns3:hr>142</ns3:hr>
            <ns3:cad>0</ns3:cad>
          </ns3:TrackPointExtension>
        </extensions>
      </trkpt>
      <trkpt lat="45.3474712930619716644287109375" lon="-70.9932230226695537567138671875">
        <ele>747.79998779296875</ele>
        <time>2026-08-21T19:11:47.000Z</time>
        <extensions>
          <ns3:TrackPointExtension>
            <ns3:hr>142</ns3:hr>
            <ns3:cad>0</ns3:cad>
          </ns3:TrackPointExtension>
        </extensions>
      </trkpt>
      <trkpt lat="45.34747070632874965667724609375" lon="-70.99322796799242496490478515625">
        <ele>748</ele>
        <time>2026-08-21T19:11:48.000Z</time>
        <extensions>
          <ns3:TrackPointExtension>
            <ns3:hr>142</ns3:hr>
            <ns3:cad>72</ns3:cad>
          </ns3:TrackPointExtension>
        </extensions>
      </trkpt>
      <trkpt lat="45.34747053869068622589111328125" lon="-70.9932324104011058807373046875">
        <ele>748</ele>
        <time>2026-08-21T19:11:49.000Z</time>
        <extensions>
          <ns3:TrackPointExtension>
            <ns3:hr>142</ns3:hr>
            <ns3:cad>72</ns3:cad>
          </ns3:TrackPointExtension>
        </extensions>
      </trkpt>
      <trkpt lat="45.34747171215713024139404296875" lon="-70.99323232658207416534423828125">
        <ele>748</ele>
        <time>2026-08-21T19:11:50.000Z</time>
        <extensions>
          <ns3:TrackPointExtension>
            <ns3:hr>142</ns3:hr>
            <ns3:cad>72</ns3:cad>
          </ns3:TrackPointExtension>
        </extensions>
      </trkpt>
      <trkpt lat="45.34747305326163768768310546875" lon="-70.99323417060077190399169921875">
        <ele>748.20001220703125</ele>
        <time>2026-08-21T19:11:51.000Z</time>
        <extensions>
          <ns3:TrackPointExtension>
            <ns3:hr>142</ns3:hr>
            <ns3:cad>72</ns3:cad>
          </ns3:TrackPointExtension>
        </extensions>
      </trkpt>
      <trkpt lat="45.34746986813843250274658203125" lon="-70.99323651753365993499755859375">
        <ele>748.20001220703125</ele>
        <time>2026-08-21T19:11:52.000Z</time>
        <extensions>
          <ns3:TrackPointExtension>
            <ns3:hr>142</ns3:hr>
            <ns3:cad>72</ns3:cad>
          </ns3:TrackPointExtension>
        </extensions>
      </trkpt>
      <trkpt lat="45.3474682755768299102783203125" lon="-70.99324590526521205902099609375">
        <ele>748.20001220703125</ele>
        <time>2026-08-21T19:11:53.000Z</time>
        <extensions>
          <ns3:TrackPointExtension>
            <ns3:hr>142</ns3:hr>
            <ns3:cad>0</ns3:cad>
          </ns3:TrackPointExtension>
        </extensions>
      </trkpt>
      <trkpt lat="45.3474655933678150177001953125" lon="-70.9932531975209712982177734375">
        <ele>748.20001220703125</ele>
        <time>2026-08-21T19:11:54.000Z</time>
        <extensions>
          <ns3:TrackPointExtension>
            <ns3:hr>142</ns3:hr>
            <ns3:cad>0</ns3:cad>
          </ns3:TrackPointExtension>
        </extensions>
      </trkpt>
      <trkpt lat="45.34746333025395870208740234375" lon="-70.99325361661612987518310546875">
        <ele>748.4000244140625</ele>
        <time>2026-08-21T19:11:55.000Z</time>
        <extensions>
          <ns3:TrackPointExtension>
            <ns3:hr>141</ns3:hr>
            <ns3:cad>0</ns3:cad>
          </ns3:TrackPointExtension>
        </extensions>
      </trkpt>
      <trkpt lat="45.34746601246297359466552734375" lon="-70.99325428716838359832763671875">
        <ele>748.4000244140625</ele>
        <time>2026-08-21T19:11:56.000Z</time>
        <extensions>
          <ns3:TrackPointExtension>
            <ns3:hr>141</ns3:hr>
            <ns3:cad>0</ns3:cad>
          </ns3:TrackPointExtension>
        </extensions>
      </trkpt>
      <trkpt lat="45.34746919758617877960205078125" lon="-70.99325596354901790618896484375">
        <ele>748.5999755859375</ele>
        <time>2026-08-21T19:11:57.000Z</time>
        <extensions>
          <ns3:TrackPointExtension>
            <ns3:hr>140</ns3:hr>
            <ns3:cad>0</ns3:cad>
          </ns3:TrackPointExtension>
        </extensions>
      </trkpt>
      <trkpt lat="45.3474669344723224639892578125" lon="-70.99325604736804962158203125">
        <ele>748.79998779296875</ele>
        <time>2026-08-21T19:11:58.000Z</time>
        <extensions>
          <ns3:TrackPointExtension>
            <ns3:hr>140</ns3:hr>
            <ns3:cad>0</ns3:cad>
          </ns3:TrackPointExtension>
        </extensions>
      </trkpt>
      <trkpt lat="45.3474635817110538482666015625" lon="-70.99325914867222309112548828125">
        <ele>749</ele>
        <time>2026-08-21T19:11:59.000Z</time>
        <extensions>
          <ns3:TrackPointExtension>
            <ns3:hr>140</ns3:hr>
            <ns3:cad>0</ns3:cad>
          </ns3:TrackPointExtension>
        </extensions>
      </trkpt>
      <trkpt lat="45.34745997749269008636474609375" lon="-70.99326887167990207672119140625">
        <ele>749.20001220703125</ele>
        <time>2026-08-21T19:12:00.000Z</time>
        <extensions>
          <ns3:TrackPointExtension>
            <ns3:hr>140</ns3:hr>
            <ns3:cad>0</ns3:cad>
          </ns3:TrackPointExtension>
        </extensions>
      </trkpt>
      <trkpt lat="45.34746131859719753265380859375" lon="-70.99326987750828266143798828125">
        <ele>749.4000244140625</ele>
        <time>2026-08-21T19:12:01.000Z</time>
        <extensions>
          <ns3:TrackPointExtension>
            <ns3:hr>140</ns3:hr>
            <ns3:cad>0</ns3:cad>
          </ns3:TrackPointExtension>
        </extensions>
      </trkpt>
      <trkpt lat="45.347461402416229248046875" lon="-70.99327641539275646209716796875">
        <ele>749.5999755859375</ele>
        <time>2026-08-21T19:12:02.000Z</time>
        <extensions>
          <ns3:TrackPointExtension>
            <ns3:hr>139</ns3:hr>
            <ns3:cad>0</ns3:cad>
          </ns3:TrackPointExtension>
        </extensions>
      </trkpt>
      <trkpt lat="45.347461737692356109619140625" lon="-70.993281193077564239501953125">
        <ele>749.79998779296875</ele>
        <time>2026-08-21T19:12:03.000Z</time>
        <extensions>
          <ns3:TrackPointExtension>
            <ns3:hr>138</ns3:hr>
            <ns3:cad>0</ns3:cad>
          </ns3:TrackPointExtension>
        </extensions>
      </trkpt>
      <trkpt lat="45.347458384931087493896484375" lon="-70.993287563323974609375">
        <ele>750</ele>
        <time>2026-08-21T19:12:04.000Z</time>
        <extensions>
          <ns3:TrackPointExtension>
            <ns3:hr>138</ns3:hr>
            <ns3:cad>0</ns3:cad>
          </ns3:TrackPointExtension>
        </extensions>
      </trkpt>
      <trkpt lat="45.34745746292173862457275390625" lon="-70.9932947717607021331787109375">
        <ele>750.20001220703125</ele>
        <time>2026-08-21T19:12:05.000Z</time>
        <extensions>
          <ns3:TrackPointExtension>
            <ns3:hr>138</ns3:hr>
            <ns3:cad>0</ns3:cad>
          </ns3:TrackPointExtension>
        </extensions>
      </trkpt>
      <trkpt lat="45.3474575467407703399658203125" lon="-70.99330298602581024169921875">
        <ele>750.4000244140625</ele>
        <time>2026-08-21T19:12:06.000Z</time>
        <extensions>
          <ns3:TrackPointExtension>
            <ns3:hr>138</ns3:hr>
            <ns3:cad>0</ns3:cad>
          </ns3:TrackPointExtension>
        </extensions>
      </trkpt>
      <trkpt lat="45.34745913930237293243408203125" lon="-70.99331061355769634246826171875">
        <ele>750.5999755859375</ele>
        <time>2026-08-21T19:12:07.000Z</time>
        <extensions>
          <ns3:TrackPointExtension>
            <ns3:hr>138</ns3:hr>
            <ns3:cad>0</ns3:cad>
          </ns3:TrackPointExtension>
        </extensions>
      </trkpt>
      <trkpt lat="45.3474625758826732635498046875" lon="-70.99332637153565883636474609375">
        <ele>750.79998779296875</ele>
        <time>2026-08-21T19:12:08.000Z</time>
        <extensions>
          <ns3:TrackPointExtension>
            <ns3:hr>137</ns3:hr>
            <ns3:cad>0</ns3:cad>
          </ns3:TrackPointExtension>
        </extensions>
      </trkpt>
      <trkpt lat="45.347461402416229248046875" lon="-70.99333458580076694488525390625">
        <ele>751</ele>
        <time>2026-08-21T19:12:09.000Z</time>
        <extensions>
          <ns3:TrackPointExtension>
            <ns3:hr>138</ns3:hr>
            <ns3:cad>0</ns3:cad>
          </ns3:TrackPointExtension>
        </extensions>
      </trkpt>
      <trkpt lat="45.34746014513075351715087890625" lon="-70.9933494217693805694580078125">
        <ele>751.20001220703125</ele>
        <time>2026-08-21T19:12:10.000Z</time>
        <extensions>
          <ns3:TrackPointExtension>
            <ns3:hr>138</ns3:hr>
            <ns3:cad>0</ns3:cad>
          </ns3:TrackPointExtension>
        </extensions>
      </trkpt>
      <trkpt lat="45.34745964221656322479248046875" lon="-70.99336023442447185516357421875">
        <ele>751.4000244140625</ele>
        <time>2026-08-21T19:12:11.000Z</time>
        <extensions>
          <ns3:TrackPointExtension>
            <ns3:hr>138</ns3:hr>
            <ns3:cad>0</ns3:cad>
          </ns3:TrackPointExtension>
        </extensions>
      </trkpt>
      <trkpt lat="45.3474605642259120941162109375" lon="-70.99337599240243434906005859375">
        <ele>751.5999755859375</ele>
        <time>2026-08-21T19:12:12.000Z</time>
        <extensions>
          <ns3:TrackPointExtension>
            <ns3:hr>138</ns3:hr>
            <ns3:cad>0</ns3:cad>
          </ns3:TrackPointExtension>
        </extensions>
      </trkpt>
      <trkpt lat="45.34746433608233928680419921875" lon="-70.99339258857071399688720703125">
        <ele>751.5999755859375</ele>
        <time>2026-08-21T19:12:13.000Z</time>
        <extensions>
          <ns3:TrackPointExtension>
            <ns3:hr>137</ns3:hr>
            <ns3:cad>0</ns3:cad>
          </ns3:TrackPointExtension>
        </extensions>
      </trkpt>
      <trkpt lat="45.34747137688100337982177734375" lon="-70.9934010542929172515869140625">
        <ele>751.79998779296875</ele>
        <time>2026-08-21T19:12:14.000Z</time>
        <extensions>
          <ns3:TrackPointExtension>
            <ns3:hr>138</ns3:hr>
            <ns3:cad>0</ns3:cad>
          </ns3:TrackPointExtension>
        </extensions>
      </trkpt>
      <trkpt lat="45.3474800102412700653076171875" lon="-70.99341354332864284515380859375">
        <ele>752</ele>
        <time>2026-08-21T19:12:15.000Z</time>
        <extensions>
          <ns3:TrackPointExtension>
            <ns3:hr>138</ns3:hr>
            <ns3:cad>0</ns3:cad>
          </ns3:TrackPointExtension>
        </extensions>
      </trkpt>
      <trkpt lat="45.3474870510399341583251953125" lon="-70.9934215061366558074951171875">
        <ele>752</ele>
        <time>2026-08-21T19:12:16.000Z</time>
        <extensions>
          <ns3:TrackPointExtension>
            <ns3:hr>138</ns3:hr>
            <ns3:cad>0</ns3:cad>
          </ns3:TrackPointExtension>
        </extensions>
      </trkpt>
      <trkpt lat="45.34749157726764678955078125" lon="-70.9934283792972564697265625">
        <ele>752.20001220703125</ele>
        <time>2026-08-21T19:12:17.000Z</time>
        <extensions>
          <ns3:TrackPointExtension>
            <ns3:hr>138</ns3:hr>
            <ns3:cad>0</ns3:cad>
          </ns3:TrackPointExtension>
        </extensions>
      </trkpt>
      <trkpt lat="45.34749954007565975189208984375" lon="-70.993440449237823486328125">
        <ele>752.20001220703125</ele>
        <time>2026-08-21T19:12:18.000Z</time>
        <extensions>
          <ns3:TrackPointExtension>
            <ns3:hr>137</ns3:hr>
            <ns3:cad>0</ns3:cad>
          </ns3:TrackPointExtension>
        </extensions>
      </trkpt>
      <trkpt lat="45.3475115261971950531005859375" lon="-70.99345042370259761810302734375">
        <ele>752.4000244140625</ele>
        <time>2026-08-21T19:12:19.000Z</time>
        <extensions>
          <ns3:TrackPointExtension>
            <ns3:hr>137</ns3:hr>
            <ns3:cad>0</ns3:cad>
          </ns3:TrackPointExtension>
        </extensions>
      </trkpt>
      <trkpt lat="45.34752334468066692352294921875" lon="-70.9934573806822299957275390625">
        <ele>752.5999755859375</ele>
        <time>2026-08-21T19:12:20.000Z</time>
        <extensions>
          <ns3:TrackPointExtension>
            <ns3:hr>138</ns3:hr>
            <ns3:cad>41</ns3:cad>
          </ns3:TrackPointExtension>
        </extensions>
      </trkpt>
      <trkpt lat="45.34753122366964817047119140625" lon="-70.993456877768039703369140625">
        <ele>752.5999755859375</ele>
        <time>2026-08-21T19:12:21.000Z</time>
        <extensions>
          <ns3:TrackPointExtension>
            <ns3:hr>138</ns3:hr>
            <ns3:cad>41</ns3:cad>
          </ns3:TrackPointExtension>
        </extensions>
      </trkpt>
      <trkpt lat="45.3475406952202320098876953125" lon="-70.99345981143414974212646484375">
        <ele>752.79998779296875</ele>
        <time>2026-08-21T19:12:22.000Z</time>
        <extensions>
          <ns3:TrackPointExtension>
            <ns3:hr>138</ns3:hr>
            <ns3:cad>46</ns3:cad>
          </ns3:TrackPointExtension>
        </extensions>
      </trkpt>
      <trkpt lat="45.34755083732306957244873046875" lon="-70.99346366710960865020751953125">
        <ele>752.79998779296875</ele>
        <time>2026-08-21T19:12:23.000Z</time>
        <extensions>
          <ns3:TrackPointExtension>
            <ns3:hr>137</ns3:hr>
            <ns3:cad>46</ns3:cad>
          </ns3:TrackPointExtension>
        </extensions>
      </trkpt>
      <trkpt lat="45.3475621528923511505126953125" lon="-70.99346752278506755828857421875">
        <ele>752.79998779296875</ele>
        <time>2026-08-21T19:12:24.000Z</time>
        <extensions>
          <ns3:TrackPointExtension>
            <ns3:hr>137</ns3:hr>
            <ns3:cad>46</ns3:cad>
          </ns3:TrackPointExtension>
        </extensions>
      </trkpt>
      <trkpt lat="45.34757606685161590576171875" lon="-70.99346919916570186614990234375">
        <ele>752.79998779296875</ele>
        <time>2026-08-21T19:12:25.000Z</time>
        <extensions>
          <ns3:TrackPointExtension>
            <ns3:hr>136</ns3:hr>
            <ns3:cad>46</ns3:cad>
          </ns3:TrackPointExtension>
        </extensions>
      </trkpt>
      <trkpt lat="45.3475859574973583221435546875" lon="-70.993468277156352996826171875">
        <ele>752.79998779296875</ele>
        <time>2026-08-21T19:12:26.000Z</time>
        <extensions>
          <ns3:TrackPointExtension>
            <ns3:hr>136</ns3:hr>
            <ns3:cad>46</ns3:cad>
          </ns3:TrackPointExtension>
        </extensions>
      </trkpt>
      <trkpt lat="45.347596518695354461669921875" lon="-70.99346986971795558929443359375">
        <ele>752.79998779296875</ele>
        <time>2026-08-21T19:12:27.000Z</time>
        <extensions>
          <ns3:TrackPointExtension>
            <ns3:hr>136</ns3:hr>
            <ns3:cad>45</ns3:cad>
          </ns3:TrackPointExtension>
        </extensions>
      </trkpt>
      <trkpt lat="45.34760464914143085479736328125" lon="-70.99346752278506755828857421875">
        <ele>752.79998779296875</ele>
        <time>2026-08-21T19:12:28.000Z</time>
        <extensions>
          <ns3:TrackPointExtension>
            <ns3:hr>136</ns3:hr>
            <ns3:cad>45</ns3:cad>
          </ns3:TrackPointExtension>
        </extensions>
      </trkpt>
      <trkpt lat="45.34761789254844188690185546875" lon="-70.99346232600510120391845703125">
        <ele>752.79998779296875</ele>
        <time>2026-08-21T19:12:29.000Z</time>
        <extensions>
          <ns3:TrackPointExtension>
            <ns3:hr>135</ns3:hr>
            <ns3:cad>45</ns3:cad>
          </ns3:TrackPointExtension>
        </extensions>
      </trkpt>
      <trkpt lat="45.34763381816446781158447265625" lon="-70.99345528520643711090087890625">
        <ele>752.79998779296875</ele>
        <time>2026-08-21T19:12:30.000Z</time>
        <extensions>
          <ns3:TrackPointExtension>
            <ns3:hr>135</ns3:hr>
            <ns3:cad>47</ns3:cad>
          </ns3:TrackPointExtension>
        </extensions>
      </trkpt>
      <trkpt lat="45.3476453013718128204345703125" lon="-70.9934473223984241485595703125">
        <ele>753</ele>
        <time>2026-08-21T19:12:31.000Z</time>
        <extensions>
          <ns3:TrackPointExtension>
            <ns3:hr>135</ns3:hr>
            <ns3:cad>47</ns3:cad>
          </ns3:TrackPointExtension>
        </extensions>
      </trkpt>
      <trkpt lat="45.34765527583658695220947265625" lon="-70.9934419579803943634033203125">
        <ele>753</ele>
        <time>2026-08-21T19:12:32.000Z</time>
        <extensions>
          <ns3:TrackPointExtension>
            <ns3:hr>134</ns3:hr>
            <ns3:cad>49</ns3:cad>
          </ns3:TrackPointExtension>
        </extensions>
      </trkpt>
      <trkpt lat="45.3476639091968536376953125" lon="-70.99343935959041118621826171875">
        <ele>753</ele>
        <time>2026-08-21T19:12:33.000Z</time>
        <extensions>
          <ns3:TrackPointExtension>
            <ns3:hr>134</ns3:hr>
            <ns3:cad>49</ns3:cad>
          </ns3:TrackPointExtension>
        </extensions>
      </trkpt>
      <trkpt lat="45.34767522476613521575927734375" lon="-70.99343776702880859375">
        <ele>752.79998779296875</ele>
        <time>2026-08-21T19:12:34.000Z</time>
        <extensions>
          <ns3:TrackPointExtension>
            <ns3:hr>133</ns3:hr>
            <ns3:cad>49</ns3:cad>
          </ns3:TrackPointExtension>
        </extensions>
      </trkpt>
      <trkpt lat="45.3476853668689727783203125" lon="-70.99343835376203060150146484375">
        <ele>753</ele>
        <time>2026-08-21T19:12:35.000Z</time>
        <extensions>
          <ns3:TrackPointExtension>
            <ns3:hr>133</ns3:hr>
            <ns3:cad>49</ns3:cad>
          </ns3:TrackPointExtension>
        </extensions>
      </trkpt>
      <trkpt lat="45.34769944846630096435546875" lon="-70.99344153888523578643798828125">
        <ele>753</ele>
        <time>2026-08-21T19:12:36.000Z</time>
        <extensions>
          <ns3:TrackPointExtension>
            <ns3:hr>132</ns3:hr>
            <ns3:cad>49</ns3:cad>
          </ns3:TrackPointExtension>
        </extensions>
      </trkpt>
      <trkpt lat="45.3477095067501068115234375" lon="-70.9934412874281406402587890625">
        <ele>753</ele>
        <time>2026-08-21T19:12:37.000Z</time>
        <extensions>
          <ns3:TrackPointExtension>
            <ns3:hr>132</ns3:hr>
            <ns3:cad>51</ns3:cad>
          </ns3:TrackPointExtension>
        </extensions>
      </trkpt>
      <trkpt lat="45.34771914593875408172607421875" lon="-70.993439443409442901611328125">
        <ele>753.20001220703125</ele>
        <time>2026-08-21T19:12:38.000Z</time>
        <extensions>
          <ns3:TrackPointExtension>
            <ns3:hr>131</ns3:hr>
            <ns3:cad>52</ns3:cad>
          </ns3:TrackPointExtension>
        </extensions>
      </trkpt>
      <trkpt lat="45.347729288041591644287109375" lon="-70.99343952722847461700439453125">
        <ele>753.20001220703125</ele>
        <time>2026-08-21T19:12:39.000Z</time>
        <extensions>
          <ns3:TrackPointExtension>
            <ns3:hr>131</ns3:hr>
            <ns3:cad>52</ns3:cad>
          </ns3:TrackPointExtension>
        </extensions>
      </trkpt>
      <trkpt lat="45.3477395139634609222412109375" lon="-70.993438772857189178466796875">
        <ele>753.20001220703125</ele>
        <time>2026-08-21T19:12:40.000Z</time>
        <extensions>
          <ns3:TrackPointExtension>
            <ns3:hr>132</ns3:hr>
            <ns3:cad>53</ns3:cad>
          </ns3:TrackPointExtension>
        </extensions>
      </trkpt>
      <trkpt lat="45.3477482311427593231201171875" lon="-70.993438102304935455322265625">
        <ele>753.4000244140625</ele>
        <time>2026-08-21T19:12:41.000Z</time>
        <extensions>
          <ns3:TrackPointExtension>
            <ns3:hr>132</ns3:hr>
            <ns3:cad>53</ns3:cad>
          </ns3:TrackPointExtension>
        </extensions>
      </trkpt>
      <trkpt lat="45.347760803997516632080078125" lon="-70.99343617446720600128173828125">
        <ele>753.20001220703125</ele>
        <time>2026-08-21T19:12:42.000Z</time>
        <extensions>
          <ns3:TrackPointExtension>
            <ns3:hr>132</ns3:hr>
            <ns3:cad>49</ns3:cad>
          </ns3:TrackPointExtension>
        </extensions>
      </trkpt>
      <trkpt lat="45.34777094610035419464111328125" lon="-70.9934345819056034088134765625">
        <ele>753.20001220703125</ele>
        <time>2026-08-21T19:12:43.000Z</time>
        <extensions>
          <ns3:TrackPointExtension>
            <ns3:hr>131</ns3:hr>
            <ns3:cad>48</ns3:cad>
          </ns3:TrackPointExtension>
        </extensions>
      </trkpt>
      <trkpt lat="45.347783602774143218994140625" lon="-70.993435084819793701171875">
        <ele>753.20001220703125</ele>
        <time>2026-08-21T19:12:44.000Z</time>
        <extensions>
          <ns3:TrackPointExtension>
            <ns3:hr>132</ns3:hr>
            <ns3:cad>48</ns3:cad>
          </ns3:TrackPointExtension>
        </extensions>
      </trkpt>
      <trkpt lat="45.34779575653374195098876953125" lon="-70.993437431752681732177734375">
        <ele>753.20001220703125</ele>
        <time>2026-08-21T19:12:45.000Z</time>
        <extensions>
          <ns3:TrackPointExtension>
            <ns3:hr>131</ns3:hr>
            <ns3:cad>49</ns3:cad>
          </ns3:TrackPointExtension>
        </extensions>
      </trkpt>
      <trkpt lat="45.34780598245561122894287109375" lon="-70.993440113961696624755859375">
        <ele>753.4000244140625</ele>
        <time>2026-08-21T19:12:46.000Z</time>
        <extensions>
          <ns3:TrackPointExtension>
            <ns3:hr>130</ns3:hr>
            <ns3:cad>49</ns3:cad>
          </ns3:TrackPointExtension>
        </extensions>
      </trkpt>
      <trkpt lat="45.347811765968799591064453125" lon="-70.99344321526587009429931640625">
        <ele>753.5999755859375</ele>
        <time>2026-08-21T19:12:47.000Z</time>
        <extensions>
          <ns3:TrackPointExtension>
            <ns3:hr>129</ns3:hr>
            <ns3:cad>49</ns3:cad>
          </ns3:TrackPointExtension>
        </extensions>
      </trkpt>
      <trkpt lat="45.34782559610903263092041015625" lon="-70.9934489987790584564208984375">
        <ele>753.79998779296875</ele>
        <time>2026-08-21T19:12:48.000Z</time>
        <extensions>
          <ns3:TrackPointExtension>
            <ns3:hr>128</ns3:hr>
            <ns3:cad>49</ns3:cad>
          </ns3:TrackPointExtension>
        </extensions>
      </trkpt>
      <trkpt lat="45.34783850423991680145263671875" lon="-70.99345310591161251068115234375">
        <ele>754</ele>
        <time>2026-08-21T19:12:49.000Z</time>
        <extensions>
          <ns3:TrackPointExtension>
            <ns3:hr>128</ns3:hr>
            <ns3:cad>51</ns3:cad>
          </ns3:TrackPointExtension>
        </extensions>
      </trkpt>
      <trkpt lat="45.34784973599016666412353515625" lon="-70.99345159716904163360595703125">
        <ele>754</ele>
        <time>2026-08-21T19:12:50.000Z</time>
        <extensions>
          <ns3:TrackPointExtension>
            <ns3:hr>127</ns3:hr>
            <ns3:cad>53</ns3:cad>
          </ns3:TrackPointExtension>
        </extensions>
      </trkpt>
      <trkpt lat="45.3478612191975116729736328125" lon="-70.99345176480710506439208984375">
        <ele>754</ele>
        <time>2026-08-21T19:12:51.000Z</time>
        <extensions>
          <ns3:TrackPointExtension>
            <ns3:hr>126</ns3:hr>
            <ns3:cad>53</ns3:cad>
          </ns3:TrackPointExtension>
        </extensions>
      </trkpt>
      <trkpt lat="45.34787873737514019012451171875" lon="-70.993451178073883056640625">
        <ele>754</ele>
        <time>2026-08-21T19:12:52.000Z</time>
        <extensions>
          <ns3:TrackPointExtension>
            <ns3:hr>126</ns3:hr>
            <ns3:cad>53</ns3:cad>
          </ns3:TrackPointExtension>
        </extensions>
      </trkpt>
      <trkpt lat="45.34788963384926319122314453125" lon="-70.99344975315034389495849609375">
        <ele>754</ele>
        <time>2026-08-21T19:12:53.000Z</time>
        <extensions>
          <ns3:TrackPointExtension>
            <ns3:hr>125</ns3:hr>
            <ns3:cad>53</ns3:cad>
          </ns3:TrackPointExtension>
        </extensions>
      </trkpt>
      <trkpt lat="45.34790354780852794647216796875" lon="-70.9934520162642002105712890625">
        <ele>754</ele>
        <time>2026-08-21T19:12:54.000Z</time>
        <extensions>
          <ns3:TrackPointExtension>
            <ns3:hr>125</ns3:hr>
            <ns3:cad>53</ns3:cad>
          </ns3:TrackPointExtension>
        </extensions>
      </trkpt>
      <trkpt lat="45.3479133546352386474609375" lon="-70.99345578812062740325927734375">
        <ele>754</ele>
        <time>2026-08-21T19:12:55.000Z</time>
        <extensions>
          <ns3:TrackPointExtension>
            <ns3:hr>124</ns3:hr>
            <ns3:cad>41</ns3:cad>
          </ns3:TrackPointExtension>
        </extensions>
      </trkpt>
      <trkpt lat="45.347923077642917633056640625" lon="-70.99345746450126171112060546875">
        <ele>754.20001220703125</ele>
        <time>2026-08-21T19:12:56.000Z</time>
        <extensions>
          <ns3:TrackPointExtension>
            <ns3:hr>125</ns3:hr>
            <ns3:cad>41</ns3:cad>
          </ns3:TrackPointExtension>
        </extensions>
      </trkpt>
      <trkpt lat="45.347933135926723480224609375" lon="-70.99345830269157886505126953125">
        <ele>754.20001220703125</ele>
        <time>2026-08-21T19:12:57.000Z</time>
        <extensions>
          <ns3:TrackPointExtension>
            <ns3:hr>125</ns3:hr>
            <ns3:cad>0</ns3:cad>
          </ns3:TrackPointExtension>
        </extensions>
      </trkpt>
      <trkpt lat="45.34794109873473644256591796875" lon="-70.9934580512344837188720703125">
        <ele>754.4000244140625</ele>
        <time>2026-08-21T19:12:58.000Z</time>
        <extensions>
          <ns3:TrackPointExtension>
            <ns3:hr>125</ns3:hr>
            <ns3:cad>0</ns3:cad>
          </ns3:TrackPointExtension>
        </extensions>
      </trkpt>
      <trkpt lat="45.34794780425727367401123046875" lon="-70.99345855414867401123046875">
        <ele>754.4000244140625</ele>
        <time>2026-08-21T19:12:59.000Z</time>
        <extensions>
          <ns3:TrackPointExtension>
            <ns3:hr>126</ns3:hr>
            <ns3:cad>0</ns3:cad>
          </ns3:TrackPointExtension>
        </extensions>
      </trkpt>
      <trkpt lat="45.34794755280017852783203125" lon="-70.9934600628912448883056640625">
        <ele>754.4000244140625</ele>
        <time>2026-08-21T19:13:00.000Z</time>
        <extensions>
          <ns3:TrackPointExtension>
            <ns3:hr>126</ns3:hr>
            <ns3:cad>0</ns3:cad>
          </ns3:TrackPointExtension>
        </extensions>
      </trkpt>
      <trkpt lat="45.34795233048498630523681640625" lon="-70.993460230529308319091796875">
        <ele>754.4000244140625</ele>
        <time>2026-08-21T19:13:01.000Z</time>
        <extensions>
          <ns3:TrackPointExtension>
            <ns3:hr>126</ns3:hr>
            <ns3:cad>0</ns3:cad>
          </ns3:TrackPointExtension>
        </extensions>
      </trkpt>
      <trkpt lat="45.347959287464618682861328125" lon="-70.993458218872547149658203125">
        <ele>754.4000244140625</ele>
        <time>2026-08-21T19:13:02.000Z</time>
        <extensions>
          <ns3:TrackPointExtension>
            <ns3:hr>126</ns3:hr>
            <ns3:cad>41</ns3:cad>
          </ns3:TrackPointExtension>
        </extensions>
      </trkpt>
      <trkpt lat="45.34796766936779022216796875" lon="-70.9934557043015956878662109375">
        <ele>754.4000244140625</ele>
        <time>2026-08-21T19:13:03.000Z</time>
        <extensions>
          <ns3:TrackPointExtension>
            <ns3:hr>125</ns3:hr>
            <ns3:cad>41</ns3:cad>
          </ns3:TrackPointExtension>
        </extensions>
      </trkpt>
      <trkpt lat="45.34797571599483489990234375" lon="-70.9934563748538494110107421875">
        <ele>754.4000244140625</ele>
        <time>2026-08-21T19:13:04.000Z</time>
        <extensions>
          <ns3:TrackPointExtension>
            <ns3:hr>126</ns3:hr>
            <ns3:cad>0</ns3:cad>
          </ns3:TrackPointExtension>
        </extensions>
      </trkpt>
      <trkpt lat="45.34798317588865756988525390625" lon="-70.99345696158707141876220703125">
        <ele>754.4000244140625</ele>
        <time>2026-08-21T19:13:05.000Z</time>
        <extensions>
          <ns3:TrackPointExtension>
            <ns3:hr>125</ns3:hr>
            <ns3:cad>0</ns3:cad>
          </ns3:TrackPointExtension>
        </extensions>
      </trkpt>
      <trkpt lat="45.34799289889633655548095703125" lon="-70.9934578835964202880859375">
        <ele>754.5999755859375</ele>
        <time>2026-08-21T19:13:06.000Z</time>
        <extensions>
          <ns3:TrackPointExtension>
            <ns3:hr>125</ns3:hr>
            <ns3:cad>0</ns3:cad>
          </ns3:TrackPointExtension>
        </extensions>
      </trkpt>
      <trkpt lat="45.34800161607563495635986328125" lon="-70.99345830269157886505126953125">
        <ele>754.5999755859375</ele>
        <time>2026-08-21T19:13:07.000Z</time>
        <extensions>
          <ns3:TrackPointExtension>
            <ns3:hr>126</ns3:hr>
            <ns3:cad>43</ns3:cad>
          </ns3:TrackPointExtension>
        </extensions>
      </trkpt>
      <trkpt lat="45.348011590540409088134765625" lon="-70.9934620745480060577392578125">
        <ele>754.5999755859375</ele>
        <time>2026-08-21T19:13:08.000Z</time>
        <extensions>
          <ns3:TrackPointExtension>
            <ns3:hr>126</ns3:hr>
            <ns3:cad>43</ns3:cad>
          </ns3:TrackPointExtension>
        </extensions>
      </trkpt>
      <trkpt lat="45.34802131354808807373046875" lon="-70.9934660978615283966064453125">
        <ele>754.79998779296875</ele>
        <time>2026-08-21T19:13:09.000Z</time>
        <extensions>
          <ns3:TrackPointExtension>
            <ns3:hr>126</ns3:hr>
            <ns3:cad>43</ns3:cad>
          </ns3:TrackPointExtension>
        </extensions>
      </trkpt>
      <trkpt lat="45.3480369038879871368408203125" lon="-70.99347439594566822052001953125">
        <ele>754.79998779296875</ele>
        <time>2026-08-21T19:13:10.000Z</time>
        <extensions>
          <ns3:TrackPointExtension>
            <ns3:hr>125</ns3:hr>
            <ns3:cad>43</ns3:cad>
          </ns3:TrackPointExtension>
        </extensions>
      </trkpt>
      <trkpt lat="45.348047800362110137939453125" lon="-70.9934795089066028594970703125">
        <ele>755</ele>
        <time>2026-08-21T19:13:11.000Z</time>
        <extensions>
          <ns3:TrackPointExtension>
            <ns3:hr>125</ns3:hr>
            <ns3:cad>48</ns3:cad>
          </ns3:TrackPointExtension>
        </extensions>
      </trkpt>
      <trkpt lat="45.34805794246494770050048828125" lon="-70.99348562769591808319091796875">
        <ele>755.20001220703125</ele>
        <time>2026-08-21T19:13:12.000Z</time>
        <extensions>
          <ns3:TrackPointExtension>
            <ns3:hr>125</ns3:hr>
            <ns3:cad>48</ns3:cad>
          </ns3:TrackPointExtension>
        </extensions>
      </trkpt>
      <trkpt lat="45.3480650670826435089111328125" lon="-70.99348948337137699127197265625">
        <ele>755.4000244140625</ele>
        <time>2026-08-21T19:13:13.000Z</time>
        <extensions>
          <ns3:TrackPointExtension>
            <ns3:hr>124</ns3:hr>
            <ns3:cad>48</ns3:cad>
          </ns3:TrackPointExtension>
        </extensions>
      </trkpt>
      <trkpt lat="45.34807671792805194854736328125" lon="-70.9934932552278041839599609375">
        <ele>755.5999755859375</ele>
        <time>2026-08-21T19:13:14.000Z</time>
        <extensions>
          <ns3:TrackPointExtension>
            <ns3:hr>124</ns3:hr>
            <ns3:cad>48</ns3:cad>
          </ns3:TrackPointExtension>
        </extensions>
      </trkpt>
      <trkpt lat="45.34808526746928691864013671875" lon="-70.9934952668845653533935546875">
        <ele>755.5999755859375</ele>
        <time>2026-08-21T19:13:15.000Z</time>
        <extensions>
          <ns3:TrackPointExtension>
            <ns3:hr>124</ns3:hr>
            <ns3:cad>48</ns3:cad>
          </ns3:TrackPointExtension>
        </extensions>
      </trkpt>
      <trkpt lat="45.34809214062988758087158203125" lon="-70.993497781455516815185546875">
        <ele>755.79998779296875</ele>
        <time>2026-08-21T19:13:16.000Z</time>
        <extensions>
          <ns3:TrackPointExtension>
            <ns3:hr>125</ns3:hr>
            <ns3:cad>45</ns3:cad>
          </ns3:TrackPointExtension>
        </extensions>
      </trkpt>
      <trkpt lat="45.34809649921953678131103515625" lon="-70.99349920637905597686767578125">
        <ele>756</ele>
        <time>2026-08-21T19:13:17.000Z</time>
        <extensions>
          <ns3:TrackPointExtension>
            <ns3:hr>125</ns3:hr>
            <ns3:cad>44</ns3:cad>
          </ns3:TrackPointExtension>
        </extensions>
      </trkpt>
      <trkpt lat="45.3481012769043445587158203125" lon="-70.99350004456937313079833984375">
        <ele>756</ele>
        <time>2026-08-21T19:13:18.000Z</time>
        <extensions>
          <ns3:TrackPointExtension>
            <ns3:hr>126</ns3:hr>
            <ns3:cad>44</ns3:cad>
          </ns3:TrackPointExtension>
        </extensions>
      </trkpt>
      <trkpt lat="45.3481064736843109130859375" lon="-70.99350289441645145416259765625">
        <ele>756.20001220703125</ele>
        <time>2026-08-21T19:13:19.000Z</time>
        <extensions>
          <ns3:TrackPointExtension>
            <ns3:hr>126</ns3:hr>
            <ns3:cad>44</ns3:cad>
          </ns3:TrackPointExtension>
        </extensions>
      </trkpt>
      <trkpt lat="45.34811309538781642913818359375" lon="-70.993506498634815216064453125">
        <ele>756.20001220703125</ele>
        <time>2026-08-21T19:13:20.000Z</time>
        <extensions>
          <ns3:TrackPointExtension>
            <ns3:hr>126</ns3:hr>
            <ns3:cad>44</ns3:cad>
          </ns3:TrackPointExtension>
        </extensions>
      </trkpt>
      <trkpt lat="45.34811879508197307586669921875" lon="-70.99350742064416408538818359375">
        <ele>756.4000244140625</ele>
        <time>2026-08-21T19:13:21.000Z</time>
        <extensions>
          <ns3:TrackPointExtension>
            <ns3:hr>126</ns3:hr>
            <ns3:cad>43</ns3:cad>
          </ns3:TrackPointExtension>
        </extensions>
      </trkpt>
      <trkpt lat="45.34812332130968570709228515625" lon="-70.99351094104349613189697265625">
        <ele>756.5999755859375</ele>
        <time>2026-08-21T19:13:22.000Z</time>
        <extensions>
          <ns3:TrackPointExtension>
            <ns3:hr>125</ns3:hr>
            <ns3:cad>42</ns3:cad>
          </ns3:TrackPointExtension>
        </extensions>
      </trkpt>
      <trkpt lat="45.34812935627996921539306640625" lon="-70.9935147128999233245849609375">
        <ele>756.79998779296875</ele>
        <time>2026-08-21T19:13:23.000Z</time>
        <extensions>
          <ns3:TrackPointExtension>
            <ns3:hr>126</ns3:hr>
            <ns3:cad>42</ns3:cad>
          </ns3:TrackPointExtension>
        </extensions>
      </trkpt>
      <trkpt lat="45.348136983811855316162109375" lon="-70.9935204125940799713134765625">
        <ele>757</ele>
        <time>2026-08-21T19:13:24.000Z</time>
        <extensions>
          <ns3:TrackPointExtension>
            <ns3:hr>126</ns3:hr>
            <ns3:cad>42</ns3:cad>
          </ns3:TrackPointExtension>
        </extensions>
      </trkpt>
      <trkpt lat="45.34814259968698024749755859375" lon="-70.9935247711837291717529296875">
        <ele>757.20001220703125</ele>
        <time>2026-08-21T19:13:25.000Z</time>
        <extensions>
          <ns3:TrackPointExtension>
            <ns3:hr>126</ns3:hr>
            <ns3:cad>42</ns3:cad>
          </ns3:TrackPointExtension>
        </extensions>
      </trkpt>
      <trkpt lat="45.3481512330472469329833984375" lon="-70.99352720193564891815185546875">
        <ele>757.4000244140625</ele>
        <time>2026-08-21T19:13:26.000Z</time>
        <extensions>
          <ns3:TrackPointExtension>
            <ns3:hr>126</ns3:hr>
            <ns3:cad>41</ns3:cad>
          </ns3:TrackPointExtension>
        </extensions>
      </trkpt>
      <trkpt lat="45.34816154278814792633056640625" lon="-70.99353139288723468780517578125">
        <ele>757.5999755859375</ele>
        <time>2026-08-21T19:13:27.000Z</time>
        <extensions>
          <ns3:TrackPointExtension>
            <ns3:hr>127</ns3:hr>
            <ns3:cad>41</ns3:cad>
          </ns3:TrackPointExtension>
        </extensions>
      </trkpt>
      <trkpt lat="45.34817017614841461181640625" lon="-70.99353633821010589599609375">
        <ele>757.5999755859375</ele>
        <time>2026-08-21T19:13:28.000Z</time>
        <extensions>
          <ns3:TrackPointExtension>
            <ns3:hr>128</ns3:hr>
            <ns3:cad>41</ns3:cad>
          </ns3:TrackPointExtension>
        </extensions>
      </trkpt>
      <trkpt lat="45.34817956387996673583984375" lon="-70.993542037904262542724609375">
        <ele>757.79998779296875</ele>
        <time>2026-08-21T19:13:29.000Z</time>
        <extensions>
          <ns3:TrackPointExtension>
            <ns3:hr>128</ns3:hr>
            <ns3:cad>40</ns3:cad>
          </ns3:TrackPointExtension>
        </extensions>
      </trkpt>
      <trkpt lat="45.348188616335391998291015625" lon="-70.99354438483715057373046875">
        <ele>758</ele>
        <time>2026-08-21T19:13:30.000Z</time>
        <extensions>
          <ns3:TrackPointExtension>
            <ns3:hr>129</ns3:hr>
            <ns3:cad>40</ns3:cad>
          </ns3:TrackPointExtension>
        </extensions>
      </trkpt>
      <trkpt lat="45.348198674619197845458984375" lon="-70.9935463964939117431640625">
        <ele>758</ele>
        <time>2026-08-21T19:13:31.000Z</time>
        <extensions>
          <ns3:TrackPointExtension>
            <ns3:hr>129</ns3:hr>
            <ns3:cad>40</ns3:cad>
          </ns3:TrackPointExtension>
        </extensions>
      </trkpt>
      <trkpt lat="45.348209403455257415771484375" lon="-70.9935455583035945892333984375">
        <ele>758.20001220703125</ele>
        <time>2026-08-21T19:13:32.000Z</time>
        <extensions>
          <ns3:TrackPointExtension>
            <ns3:hr>130</ns3:hr>
            <ns3:cad>41</ns3:cad>
          </ns3:TrackPointExtension>
        </extensions>
      </trkpt>
      <trkpt lat="45.34822155721485614776611328125" lon="-70.99354530684649944305419921875">
        <ele>758.20001220703125</ele>
        <time>2026-08-21T19:13:33.000Z</time>
        <extensions>
          <ns3:TrackPointExtension>
            <ns3:hr>130</ns3:hr>
            <ns3:cad>41</ns3:cad>
          </ns3:TrackPointExtension>
        </extensions>
      </trkpt>
      <trkpt lat="45.348230861127376556396484375" lon="-70.99354413338005542755126953125">
        <ele>758.20001220703125</ele>
        <time>2026-08-21T19:13:34.000Z</time>
        <extensions>
          <ns3:TrackPointExtension>
            <ns3:hr>130</ns3:hr>
            <ns3:cad>41</ns3:cad>
          </ns3:TrackPointExtension>
        </extensions>
      </trkpt>
      <trkpt lat="45.3482404164969921112060546875" lon="-70.99354346282780170440673828125">
        <ele>758.20001220703125</ele>
        <time>2026-08-21T19:13:35.000Z</time>
        <extensions>
          <ns3:TrackPointExtension>
            <ns3:hr>130</ns3:hr>
            <ns3:cad>41</ns3:cad>
          </ns3:TrackPointExtension>
        </extensions>
      </trkpt>
      <trkpt lat="45.34824837930500507354736328125" lon="-70.993542037904262542724609375">
        <ele>758.20001220703125</ele>
        <time>2026-08-21T19:13:36.000Z</time>
        <extensions>
          <ns3:TrackPointExtension>
            <ns3:hr>130</ns3:hr>
            <ns3:cad>41</ns3:cad>
          </ns3:TrackPointExtension>
        </extensions>
      </trkpt>
      <trkpt lat="45.34825776703655719757080078125" lon="-70.993542037904262542724609375">
        <ele>758.4000244140625</ele>
        <time>2026-08-21T19:13:37.000Z</time>
        <extensions>
          <ns3:TrackPointExtension>
            <ns3:hr>130</ns3:hr>
            <ns3:cad>41</ns3:cad>
          </ns3:TrackPointExtension>
        </extensions>
      </trkpt>
      <trkpt lat="45.34826531074941158294677734375" lon="-70.99354513920843601226806640625">
        <ele>758.5999755859375</ele>
        <time>2026-08-21T19:13:38.000Z</time>
        <extensions>
          <ns3:TrackPointExtension>
            <ns3:hr>130</ns3:hr>
            <ns3:cad>40</ns3:cad>
          </ns3:TrackPointExtension>
        </extensions>
      </trkpt>
      <trkpt lat="45.34827201627194881439208984375" lon="-70.9935482405126094818115234375">
        <ele>758.5999755859375</ele>
        <time>2026-08-21T19:13:39.000Z</time>
        <extensions>
          <ns3:TrackPointExtension>
            <ns3:hr>130</ns3:hr>
            <ns3:cad>40</ns3:cad>
          </ns3:TrackPointExtension>
        </extensions>
      </trkpt>
      <trkpt lat="45.34827805124223232269287109375" lon="-70.9935509227216243743896484375">
        <ele>758.79998779296875</ele>
        <time>2026-08-21T19:13:40.000Z</time>
        <extensions>
          <ns3:TrackPointExtension>
            <ns3:hr>130</ns3:hr>
            <ns3:cad>40</ns3:cad>
          </ns3:TrackPointExtension>
        </extensions>
      </trkpt>
      <trkpt lat="45.34828391857445240020751953125" lon="-70.99355787970125675201416015625">
        <ele>759</ele>
        <time>2026-08-21T19:13:41.000Z</time>
        <extensions>
          <ns3:TrackPointExtension>
            <ns3:hr>130</ns3:hr>
            <ns3:cad>42</ns3:cad>
          </ns3:TrackPointExtension>
        </extensions>
      </trkpt>
      <trkpt lat="45.3482897020876407623291015625" lon="-70.99356391467154026031494140625">
        <ele>759.20001220703125</ele>
        <time>2026-08-21T19:13:42.000Z</time>
        <extensions>
          <ns3:TrackPointExtension>
            <ns3:hr>130</ns3:hr>
            <ns3:cad>42</ns3:cad>
          </ns3:TrackPointExtension>
        </extensions>
      </trkpt>
      <trkpt lat="45.34829716198146343231201171875" lon="-70.99356676451861858367919921875">
        <ele>759.4000244140625</ele>
        <time>2026-08-21T19:13:43.000Z</time>
        <extensions>
          <ns3:TrackPointExtension>
            <ns3:hr>130</ns3:hr>
            <ns3:cad>79</ns3:cad>
          </ns3:TrackPointExtension>
        </extensions>
      </trkpt>
      <trkpt lat="45.34830386750400066375732421875" lon="-70.99357045255601406097412109375">
        <ele>759.5999755859375</ele>
        <time>2026-08-21T19:13:44.000Z</time>
        <extensions>
          <ns3:TrackPointExtension>
            <ns3:hr>130</ns3:hr>
            <ns3:cad>79</ns3:cad>
          </ns3:TrackPointExtension>
        </extensions>
      </trkpt>
      <trkpt lat="45.34830805845558643341064453125" lon="-70.99357129074633121490478515625">
        <ele>759.79998779296875</ele>
        <time>2026-08-21T19:13:45.000Z</time>
        <extensions>
          <ns3:TrackPointExtension>
            <ns3:hr>130</ns3:hr>
            <ns3:cad>79</ns3:cad>
          </ns3:TrackPointExtension>
        </extensions>
      </trkpt>
      <trkpt lat="45.348320715129375457763671875" lon="-70.99357129074633121490478515625">
        <ele>760</ele>
        <time>2026-08-21T19:13:46.000Z</time>
        <extensions>
          <ns3:TrackPointExtension>
            <ns3:hr>130</ns3:hr>
            <ns3:cad>41</ns3:cad>
          </ns3:TrackPointExtension>
        </extensions>
      </trkpt>
      <trkpt lat="45.34832817502319812774658203125" lon="-70.99357279948890209197998046875">
        <ele>760</ele>
        <time>2026-08-21T19:13:47.000Z</time>
        <extensions>
          <ns3:TrackPointExtension>
            <ns3:hr>130</ns3:hr>
            <ns3:cad>41</ns3:cad>
          </ns3:TrackPointExtension>
        </extensions>
      </trkpt>
      <trkpt lat="45.34833488054573535919189453125" lon="-70.993573553860187530517578125">
        <ele>760.20001220703125</ele>
        <time>2026-08-21T19:13:48.000Z</time>
        <extensions>
          <ns3:TrackPointExtension>
            <ns3:hr>130</ns3:hr>
            <ns3:cad>41</ns3:cad>
          </ns3:TrackPointExtension>
        </extensions>
      </trkpt>
      <trkpt lat="45.3483396582305431365966796875" lon="-70.99357388913631439208984375">
        <ele>760.4000244140625</ele>
        <time>2026-08-21T19:13:49.000Z</time>
        <extensions>
          <ns3:TrackPointExtension>
            <ns3:hr>130</ns3:hr>
            <ns3:cad>77</ns3:cad>
          </ns3:TrackPointExtension>
        </extensions>
      </trkpt>
      <trkpt lat="45.34834795631468296051025390625" lon="-70.99357380531728267669677734375">
        <ele>760.5999755859375</ele>
        <time>2026-08-21T19:13:50.000Z</time>
        <extensions>
          <ns3:TrackPointExtension>
            <ns3:hr>130</ns3:hr>
            <ns3:cad>77</ns3:cad>
          </ns3:TrackPointExtension>
        </extensions>
      </trkpt>
      <trkpt lat="45.34835550002753734588623046875" lon="-70.9935797564685344696044921875">
        <ele>760.79998779296875</ele>
        <time>2026-08-21T19:13:51.000Z</time>
        <extensions>
          <ns3:TrackPointExtension>
            <ns3:hr>130</ns3:hr>
            <ns3:cad>75</ns3:cad>
          </ns3:TrackPointExtension>
        </extensions>
      </trkpt>
      <trkpt lat="45.3483621217310428619384765625" lon="-70.993582941591739654541015625">
        <ele>761</ele>
        <time>2026-08-21T19:13:52.000Z</time>
        <extensions>
          <ns3:TrackPointExtension>
            <ns3:hr>130</ns3:hr>
            <ns3:cad>75</ns3:cad>
          </ns3:TrackPointExtension>
        </extensions>
      </trkpt>
      <trkpt lat="45.34836597740650177001953125" lon="-70.99358134903013706207275390625">
        <ele>761.20001220703125</ele>
        <time>2026-08-21T19:13:53.000Z</time>
        <extensions>
          <ns3:TrackPointExtension>
            <ns3:hr>130</ns3:hr>
            <ns3:cad>78</ns3:cad>
          </ns3:TrackPointExtension>
        </extensions>
      </trkpt>
      <trkpt lat="45.34837276674807071685791015625" lon="-70.99358101375401020050048828125">
        <ele>761.4000244140625</ele>
        <time>2026-08-21T19:13:54.000Z</time>
        <extensions>
          <ns3:TrackPointExtension>
            <ns3:hr>130</ns3:hr>
            <ns3:cad>79</ns3:cad>
          </ns3:TrackPointExtension>
        </extensions>
      </trkpt>
      <trkpt lat="45.3483800590038299560546875" lon="-70.99358185194432735443115234375">
        <ele>761.5999755859375</ele>
        <time>2026-08-21T19:13:55.000Z</time>
        <extensions>
          <ns3:TrackPointExtension>
            <ns3:hr>130</ns3:hr>
            <ns3:cad>79</ns3:cad>
          </ns3:TrackPointExtension>
        </extensions>
      </trkpt>
      <trkpt lat="45.34839338622987270355224609375" lon="-70.993579588830471038818359375">
        <ele>761.79998779296875</ele>
        <time>2026-08-21T19:13:56.000Z</time>
        <extensions>
          <ns3:TrackPointExtension>
            <ns3:hr>130</ns3:hr>
            <ns3:cad>79</ns3:cad>
          </ns3:TrackPointExtension>
        </extensions>
      </trkpt>
      <trkpt lat="45.34840143285691738128662109375" lon="-70.99357514642179012298583984375">
        <ele>761.79998779296875</ele>
        <time>2026-08-21T19:13:57.000Z</time>
        <extensions>
          <ns3:TrackPointExtension>
            <ns3:hr>130</ns3:hr>
            <ns3:cad>79</ns3:cad>
          </ns3:TrackPointExtension>
        </extensions>
      </trkpt>
      <trkpt lat="45.3484097309410572052001953125" lon="-70.9935740567743778228759765625">
        <ele>761.79998779296875</ele>
        <time>2026-08-21T19:13:58.000Z</time>
        <extensions>
          <ns3:TrackPointExtension>
            <ns3:hr>130</ns3:hr>
            <ns3:cad>77</ns3:cad>
          </ns3:TrackPointExtension>
        </extensions>
      </trkpt>
      <trkpt lat="45.348415262997150421142578125" lon="-70.99357699044048786163330078125">
        <ele>761.79998779296875</ele>
        <time>2026-08-21T19:13:59.000Z</time>
        <extensions>
          <ns3:TrackPointExtension>
            <ns3:hr>129</ns3:hr>
            <ns3:cad>77</ns3:cad>
          </ns3:TrackPointExtension>
        </extensions>
      </trkpt>
      <trkpt lat="45.348421633243560791015625" lon="-70.9935810975730419158935546875">
        <ele>761.79998779296875</ele>
        <time>2026-08-21T19:14:00.000Z</time>
        <extensions>
          <ns3:TrackPointExtension>
            <ns3:hr>129</ns3:hr>
            <ns3:cad>77</ns3:cad>
          </ns3:TrackPointExtension>
        </extensions>
      </trkpt>
      <trkpt lat="45.34842691384255886077880859375" lon="-70.99358419887721538543701171875">
        <ele>761.79998779296875</ele>
        <time>2026-08-21T19:14:01.000Z</time>
        <extensions>
          <ns3:TrackPointExtension>
            <ns3:hr>129</ns3:hr>
            <ns3:cad>47</ns3:cad>
          </ns3:TrackPointExtension>
        </extensions>
      </trkpt>
      <trkpt lat="45.34843035042285919189453125" lon="-70.99358369596302509307861328125">
        <ele>762</ele>
        <time>2026-08-21T19:14:02.000Z</time>
        <extensions>
          <ns3:TrackPointExtension>
            <ns3:hr>129</ns3:hr>
            <ns3:cad>47</ns3:cad>
          </ns3:TrackPointExtension>
        </extensions>
      </trkpt>
      <trkpt lat="45.3484358824789524078369140625" lon="-70.9935871325433254241943359375">
        <ele>762.20001220703125</ele>
        <time>2026-08-21T19:14:03.000Z</time>
        <extensions>
          <ns3:TrackPointExtension>
            <ns3:hr>130</ns3:hr>
            <ns3:cad>44</ns3:cad>
          </ns3:TrackPointExtension>
        </extensions>
      </trkpt>
      <trkpt lat="45.34843898378312587738037109375" lon="-70.99359073676168918609619140625">
        <ele>762.4000244140625</ele>
        <time>2026-08-21T19:14:04.000Z</time>
        <extensions>
          <ns3:TrackPointExtension>
            <ns3:hr>130</ns3:hr>
            <ns3:cad>44</ns3:cad>
          </ns3:TrackPointExtension>
        </extensions>
      </trkpt>
      <trkpt lat="45.34844283945858478546142578125" lon="-70.9935958497226238250732421875">
        <ele>762.5999755859375</ele>
        <time>2026-08-21T19:14:05.000Z</time>
        <extensions>
          <ns3:TrackPointExtension>
            <ns3:hr>130</ns3:hr>
            <ns3:cad>44</ns3:cad>
          </ns3:TrackPointExtension>
        </extensions>
      </trkpt>
      <trkpt lat="45.348447449505329132080078125" lon="-70.99360045976936817169189453125">
        <ele>762.79998779296875</ele>
        <time>2026-08-21T19:14:06.000Z</time>
        <extensions>
          <ns3:TrackPointExtension>
            <ns3:hr>130</ns3:hr>
            <ns3:cad>44</ns3:cad>
          </ns3:TrackPointExtension>
        </extensions>
      </trkpt>
      <trkpt lat="45.34845172427594661712646484375" lon="-70.9936059080064296722412109375">
        <ele>763</ele>
        <time>2026-08-21T19:14:07.000Z</time>
        <extensions>
          <ns3:TrackPointExtension>
            <ns3:hr>131</ns3:hr>
            <ns3:cad>44</ns3:cad>
          </ns3:TrackPointExtension>
        </extensions>
      </trkpt>
      <trkpt lat="45.3484586812555789947509765625" lon="-70.99361118860542774200439453125">
        <ele>763.20001220703125</ele>
        <time>2026-08-21T19:14:08.000Z</time>
        <extensions>
          <ns3:TrackPointExtension>
            <ns3:hr>130</ns3:hr>
            <ns3:cad>76</ns3:cad>
          </ns3:TrackPointExtension>
        </extensions>
      </trkpt>
      <trkpt lat="45.34846530295908451080322265625" lon="-70.9936163015663623809814453125">
        <ele>763.4000244140625</ele>
        <time>2026-08-21T19:14:09.000Z</time>
        <extensions>
          <ns3:TrackPointExtension>
            <ns3:hr>131</ns3:hr>
            <ns3:cad>76</ns3:cad>
          </ns3:TrackPointExtension>
        </extensions>
      </trkpt>
      <trkpt lat="45.34847167320549488067626953125" lon="-70.99361755885183811187744140625">
        <ele>763.5999755859375</ele>
        <time>2026-08-21T19:14:10.000Z</time>
        <extensions>
          <ns3:TrackPointExtension>
            <ns3:hr>131</ns3:hr>
            <ns3:cad>76</ns3:cad>
          </ns3:TrackPointExtension>
        </extensions>
      </trkpt>
      <trkpt lat="45.34847863018512725830078125" lon="-70.9936213307082653045654296875">
        <ele>763.5999755859375</ele>
        <time>2026-08-21T19:14:11.000Z</time>
        <extensions>
          <ns3:TrackPointExtension>
            <ns3:hr>132</ns3:hr>
            <ns3:cad>0</ns3:cad>
          </ns3:TrackPointExtension>
        </extensions>
      </trkpt>
      <trkpt lat="45.3484841622412204742431640625" lon="-70.99362258799374103546142578125">
        <ele>763.79998779296875</ele>
        <time>2026-08-21T19:14:12.000Z</time>
        <extensions>
          <ns3:TrackPointExtension>
            <ns3:hr>132</ns3:hr>
            <ns3:cad>0</ns3:cad>
          </ns3:TrackPointExtension>
        </extensions>
      </trkpt>
      <trkpt lat="45.34849329851567745208740234375" lon="-70.993625186383724212646484375">
        <ele>764</ele>
        <time>2026-08-21T19:14:13.000Z</time>
        <extensions>
          <ns3:TrackPointExtension>
            <ns3:hr>132</ns3:hr>
            <ns3:cad>0</ns3:cad>
          </ns3:TrackPointExtension>
        </extensions>
      </trkpt>
      <trkpt lat="45.34850067459046840667724609375" lon="-70.99362644366919994354248046875">
        <ele>764</ele>
        <time>2026-08-21T19:14:14.000Z</time>
        <extensions>
          <ns3:TrackPointExtension>
            <ns3:hr>132</ns3:hr>
            <ns3:cad>0</ns3:cad>
          </ns3:TrackPointExtension>
        </extensions>
      </trkpt>
      <trkpt lat="45.3485049493610858917236328125" lon="-70.99362309090793132781982421875">
        <ele>764</ele>
        <time>2026-08-21T19:14:15.000Z</time>
        <extensions>
          <ns3:TrackPointExtension>
            <ns3:hr>132</ns3:hr>
            <ns3:cad>0</ns3:cad>
          </ns3:TrackPointExtension>
        </extensions>
      </trkpt>
      <trkpt lat="45.34850587137043476104736328125" lon="-70.99362527020275592803955078125">
        <ele>764.20001220703125</ele>
        <time>2026-08-21T19:14:16.000Z</time>
        <extensions>
          <ns3:TrackPointExtension>
            <ns3:hr>132</ns3:hr>
            <ns3:cad>0</ns3:cad>
          </ns3:TrackPointExtension>
        </extensions>
      </trkpt>
      <trkpt lat="45.34850603900849819183349609375" lon="-70.99362694658339023590087890625">
        <ele>764.20001220703125</ele>
        <time>2026-08-21T19:14:17.000Z</time>
        <extensions>
          <ns3:TrackPointExtension>
            <ns3:hr>132</ns3:hr>
            <ns3:cad>0</ns3:cad>
          </ns3:TrackPointExtension>
        </extensions>
      </trkpt>
      <trkpt lat="45.34850813448429107666015625" lon="-70.9936287067830562591552734375">
        <ele>764.20001220703125</ele>
        <time>2026-08-21T19:14:18.000Z</time>
        <extensions>
          <ns3:TrackPointExtension>
            <ns3:hr>133</ns3:hr>
            <ns3:cad>0</ns3:cad>
          </ns3:TrackPointExtension>
        </extensions>
      </trkpt>
      <trkpt lat="45.34850813448429107666015625" lon="-70.993628539144992828369140625">
        <ele>764.20001220703125</ele>
        <time>2026-08-21T19:14:19.000Z</time>
        <extensions>
          <ns3:TrackPointExtension>
            <ns3:hr>132</ns3:hr>
            <ns3:cad>0</ns3:cad>
          </ns3:TrackPointExtension>
        </extensions>
      </trkpt>
      <trkpt lat="45.34850813448429107666015625" lon="-70.993628539144992828369140625">
        <ele>764.4000244140625</ele>
        <time>2026-08-21T19:14:20.000Z</time>
        <extensions>
          <ns3:TrackPointExtension>
            <ns3:hr>132</ns3:hr>
            <ns3:cad>0</ns3:cad>
          </ns3:TrackPointExtension>
        </extensions>
      </trkpt>
      <trkpt lat="45.34850813448429107666015625" lon="-70.993628539144992828369140625">
        <ele>764.4000244140625</ele>
        <time>2026-08-21T19:14:21.000Z</time>
        <extensions>
          <ns3:TrackPointExtension>
            <ns3:hr>132</ns3:hr>
            <ns3:cad>0</ns3:cad>
          </ns3:TrackPointExtension>
        </extensions>
      </trkpt>
      <trkpt lat="45.34850813448429107666015625" lon="-70.993628539144992828369140625">
        <ele>764.4000244140625</ele>
        <time>2026-08-21T19:14:22.000Z</time>
        <extensions>
          <ns3:TrackPointExtension>
            <ns3:hr>132</ns3:hr>
            <ns3:cad>0</ns3:cad>
          </ns3:TrackPointExtension>
        </extensions>
      </trkpt>
      <trkpt lat="45.34850838594138622283935546875" lon="-70.99362845532596111297607421875">
        <ele>764.4000244140625</ele>
        <time>2026-08-21T19:14:23.000Z</time>
        <extensions>
          <ns3:TrackPointExtension>
            <ns3:hr>132</ns3:hr>
            <ns3:cad>0</ns3:cad>
          </ns3:TrackPointExtension>
        </extensions>
      </trkpt>
      <trkpt lat="45.3485183604061603546142578125" lon="-70.99362610839307308197021484375">
        <ele>764.20001220703125</ele>
        <time>2026-08-21T19:14:24.000Z</time>
        <extensions>
          <ns3:TrackPointExtension>
            <ns3:hr>132</ns3:hr>
            <ns3:cad>0</ns3:cad>
          </ns3:TrackPointExtension>
        </extensions>
      </trkpt>
      <trkpt lat="45.34853219054639339447021484375" lon="-70.99362057633697986602783203125">
        <ele>764.20001220703125</ele>
        <time>2026-08-21T19:14:25.000Z</time>
        <extensions>
          <ns3:TrackPointExtension>
            <ns3:hr>132</ns3:hr>
            <ns3:cad>0</ns3:cad>
          </ns3:TrackPointExtension>
        </extensions>
      </trkpt>
      <trkpt lat="45.3485428355634212493896484375" lon="-70.99361479282379150390625">
        <ele>764.20001220703125</ele>
        <time>2026-08-21T19:14:26.000Z</time>
        <extensions>
          <ns3:TrackPointExtension>
            <ns3:hr>132</ns3:hr>
            <ns3:cad>0</ns3:cad>
          </ns3:TrackPointExtension>
        </extensions>
      </trkpt>
      <trkpt lat="45.3485595993697643280029296875" lon="-70.99361169151961803436279296875">
        <ele>764.20001220703125</ele>
        <time>2026-08-21T19:14:27.000Z</time>
        <extensions>
          <ns3:TrackPointExtension>
            <ns3:hr>132</ns3:hr>
            <ns3:cad>0</ns3:cad>
          </ns3:TrackPointExtension>
        </extensions>
      </trkpt>
      <trkpt lat="45.348572842776775360107421875" lon="-70.99360951222479343414306640625">
        <ele>764</ele>
        <time>2026-08-21T19:14:28.000Z</time>
        <extensions>
          <ns3:TrackPointExtension>
            <ns3:hr>132</ns3:hr>
            <ns3:cad>0</ns3:cad>
          </ns3:TrackPointExtension>
        </extensions>
      </trkpt>
      <trkpt lat="45.3485864214599132537841796875" lon="-70.9936045669019222259521484375">
        <ele>764</ele>
        <time>2026-08-21T19:14:29.000Z</time>
        <extensions>
          <ns3:TrackPointExtension>
            <ns3:hr>132</ns3:hr>
            <ns3:cad>0</ns3:cad>
          </ns3:TrackPointExtension>
        </extensions>
      </trkpt>
      <trkpt lat="45.34859723411500453948974609375" lon="-70.9935992024838924407958984375">
        <ele>764</ele>
        <time>2026-08-21T19:14:30.000Z</time>
        <extensions>
          <ns3:TrackPointExtension>
            <ns3:hr>132</ns3:hr>
            <ns3:cad>44</ns3:cad>
          </ns3:TrackPointExtension>
        </extensions>
      </trkpt>
      <trkpt lat="45.348607040941715240478515625" lon="-70.9935894794762134552001953125">
        <ele>763.79998779296875</ele>
        <time>2026-08-21T19:14:31.000Z</time>
        <extensions>
          <ns3:TrackPointExtension>
            <ns3:hr>132</ns3:hr>
            <ns3:cad>44</ns3:cad>
          </ns3:TrackPointExtension>
        </extensions>
      </trkpt>
      <trkpt lat="45.348613075911998748779296875" lon="-70.99358051083981990814208984375">
        <ele>763.79998779296875</ele>
        <time>2026-08-21T19:14:32.000Z</time>
        <extensions>
          <ns3:TrackPointExtension>
            <ns3:hr>132</ns3:hr>
            <ns3:cad>48</ns3:cad>
          </ns3:TrackPointExtension>
        </extensions>
      </trkpt>
      <trkpt lat="45.3486186079680919647216796875" lon="-70.9935727156698703765869140625">
        <ele>763.79998779296875</ele>
        <time>2026-08-21T19:14:33.000Z</time>
        <extensions>
          <ns3:TrackPointExtension>
            <ns3:hr>132</ns3:hr>
            <ns3:cad>48</ns3:cad>
          </ns3:TrackPointExtension>
        </extensions>
      </trkpt>
      <trkpt lat="45.3486253134906291961669921875" lon="-70.99356626160442829132080078125">
        <ele>763.79998779296875</ele>
        <time>2026-08-21T19:14:34.000Z</time>
        <extensions>
          <ns3:TrackPointExtension>
            <ns3:hr>132</ns3:hr>
            <ns3:cad>48</ns3:cad>
          </ns3:TrackPointExtension>
        </extensions>
      </trkpt>
      <trkpt lat="45.34863294102251529693603515625" lon="-70.9935571253299713134765625">
        <ele>763.5999755859375</ele>
        <time>2026-08-21T19:14:35.000Z</time>
        <extensions>
          <ns3:TrackPointExtension>
            <ns3:hr>132</ns3:hr>
            <ns3:cad>48</ns3:cad>
          </ns3:TrackPointExtension>
        </extensions>
      </trkpt>
      <trkpt lat="45.34863830544054508209228515625" lon="-70.99354648031294345855712890625">
        <ele>763.4000244140625</ele>
        <time>2026-08-21T19:14:36.000Z</time>
        <extensions>
          <ns3:TrackPointExtension>
            <ns3:hr>132</ns3:hr>
            <ns3:cad>48</ns3:cad>
          </ns3:TrackPointExtension>
        </extensions>
      </trkpt>
      <trkpt lat="45.348648615181446075439453125" lon="-70.9935338236391544342041015625">
        <ele>763.20001220703125</ele>
        <time>2026-08-21T19:14:37.000Z</time>
        <extensions>
          <ns3:TrackPointExtension>
            <ns3:hr>132</ns3:hr>
            <ns3:cad>53</ns3:cad>
          </ns3:TrackPointExtension>
        </extensions>
      </trkpt>
      <trkpt lat="45.34865708090364933013916015625" lon="-70.99352896213531494140625">
        <ele>763</ele>
        <time>2026-08-21T19:14:38.000Z</time>
        <extensions>
          <ns3:TrackPointExtension>
            <ns3:hr>132</ns3:hr>
            <ns3:cad>53</ns3:cad>
          </ns3:TrackPointExtension>
        </extensions>
      </trkpt>
      <trkpt lat="45.34866563044488430023193359375" lon="-70.993520915508270263671875">
        <ele>763</ele>
        <time>2026-08-21T19:14:39.000Z</time>
        <extensions>
          <ns3:TrackPointExtension>
            <ns3:hr>131</ns3:hr>
            <ns3:cad>53</ns3:cad>
          </ns3:TrackPointExtension>
        </extensions>
      </trkpt>
      <trkpt lat="45.348673425614833831787109375" lon="-70.99350909702479839324951171875">
        <ele>762.79998779296875</ele>
        <time>2026-08-21T19:14:40.000Z</time>
        <extensions>
          <ns3:TrackPointExtension>
            <ns3:hr>132</ns3:hr>
            <ns3:cad>53</ns3:cad>
          </ns3:TrackPointExtension>
        </extensions>
      </trkpt>
      <trkpt lat="45.34867920912802219390869140625" lon="-70.993499793112277984619140625">
        <ele>762.5999755859375</ele>
        <time>2026-08-21T19:14:41.000Z</time>
        <extensions>
          <ns3:TrackPointExtension>
            <ns3:hr>131</ns3:hr>
            <ns3:cad>53</ns3:cad>
          </ns3:TrackPointExtension>
        </extensions>
      </trkpt>
      <trkpt lat="45.3486880101263523101806640625" lon="-70.9934952668845653533935546875">
        <ele>762.5999755859375</ele>
        <time>2026-08-21T19:14:42.000Z</time>
        <extensions>
          <ns3:TrackPointExtension>
            <ns3:hr>130</ns3:hr>
            <ns3:cad>53</ns3:cad>
          </ns3:TrackPointExtension>
        </extensions>
      </trkpt>
      <trkpt lat="45.3486957214772701263427734375" lon="-70.99349250085651874542236328125">
        <ele>762.4000244140625</ele>
        <time>2026-08-21T19:14:43.000Z</time>
        <extensions>
          <ns3:TrackPointExtension>
            <ns3:hr>130</ns3:hr>
            <ns3:cad>53</ns3:cad>
          </ns3:TrackPointExtension>
        </extensions>
      </trkpt>
      <trkpt lat="45.34870259463787078857421875" lon="-70.9934872202575206756591796875">
        <ele>762.20001220703125</ele>
        <time>2026-08-21T19:14:44.000Z</time>
        <extensions>
          <ns3:TrackPointExtension>
            <ns3:hr>129</ns3:hr>
            <ns3:cad>53</ns3:cad>
          </ns3:TrackPointExtension>
        </extensions>
      </trkpt>
      <trkpt lat="45.34871307201683521270751953125" lon="-70.9934821911156177520751953125">
        <ele>762</ele>
        <time>2026-08-21T19:14:45.000Z</time>
        <extensions>
          <ns3:TrackPointExtension>
            <ns3:hr>129</ns3:hr>
            <ns3:cad>54</ns3:cad>
          </ns3:TrackPointExtension>
        </extensions>
      </trkpt>
      <trkpt lat="45.3487206995487213134765625" lon="-70.99347808398306369781494140625">
        <ele>762</ele>
        <time>2026-08-21T19:14:46.000Z</time>
        <extensions>
          <ns3:TrackPointExtension>
            <ns3:hr>128</ns3:hr>
            <ns3:cad>54</ns3:cad>
          </ns3:TrackPointExtension>
        </extensions>
      </trkpt>
      <trkpt lat="45.34872631542384624481201171875" lon="-70.99347188137471675872802734375">
        <ele>761.79998779296875</ele>
        <time>2026-08-21T19:14:47.000Z</time>
        <extensions>
          <ns3:TrackPointExtension>
            <ns3:hr>127</ns3:hr>
            <ns3:cad>53</ns3:cad>
          </ns3:TrackPointExtension>
        </extensions>
      </trkpt>
      <trkpt lat="45.3487341105937957763671875" lon="-70.99346366710960865020751953125">
        <ele>761.5999755859375</ele>
        <time>2026-08-21T19:14:48.000Z</time>
        <extensions>
          <ns3:TrackPointExtension>
            <ns3:hr>127</ns3:hr>
            <ns3:cad>53</ns3:cad>
          </ns3:TrackPointExtension>
        </extensions>
      </trkpt>
      <trkpt lat="45.34874022938311100006103515625" lon="-70.99345595575869083404541015625">
        <ele>761.4000244140625</ele>
        <time>2026-08-21T19:14:49.000Z</time>
        <extensions>
          <ns3:TrackPointExtension>
            <ns3:hr>126</ns3:hr>
            <ns3:cad>52</ns3:cad>
          </ns3:TrackPointExtension>
        </extensions>
      </trkpt>
      <trkpt lat="45.3487500362098217010498046875" lon="-70.99345050752162933349609375">
        <ele>761.20001220703125</ele>
        <time>2026-08-21T19:14:50.000Z</time>
        <extensions>
          <ns3:TrackPointExtension>
            <ns3:hr>126</ns3:hr>
            <ns3:cad>52</ns3:cad>
          </ns3:TrackPointExtension>
        </extensions>
      </trkpt>
      <trkpt lat="45.34875481389462947845458984375" lon="-70.99344472400844097137451171875">
        <ele>761</ele>
        <time>2026-08-21T19:14:51.000Z</time>
        <extensions>
          <ns3:TrackPointExtension>
            <ns3:hr>125</ns3:hr>
            <ns3:cad>52</ns3:cad>
          </ns3:TrackPointExtension>
        </extensions>
      </trkpt>
      <trkpt lat="45.3487604297697544097900390625" lon="-70.993437431752681732177734375">
        <ele>760.79998779296875</ele>
        <time>2026-08-21T19:14:52.000Z</time>
        <extensions>
          <ns3:TrackPointExtension>
            <ns3:hr>125</ns3:hr>
            <ns3:cad>52</ns3:cad>
          </ns3:TrackPointExtension>
        </extensions>
      </trkpt>
      <trkpt lat="45.34876587800681591033935546875" lon="-70.99343248642981052398681640625">
        <ele>760.5999755859375</ele>
        <time>2026-08-21T19:14:53.000Z</time>
        <extensions>
          <ns3:TrackPointExtension>
            <ns3:hr>124</ns3:hr>
            <ns3:cad>52</ns3:cad>
          </ns3:TrackPointExtension>
        </extensions>
      </trkpt>
      <trkpt lat="45.3487761877477169036865234375" lon="-70.99342812784016132354736328125">
        <ele>760.4000244140625</ele>
        <time>2026-08-21T19:14:54.000Z</time>
        <extensions>
          <ns3:TrackPointExtension>
            <ns3:hr>124</ns3:hr>
            <ns3:cad>52</ns3:cad>
          </ns3:TrackPointExtension>
        </extensions>
      </trkpt>
      <trkpt lat="45.3487872518599033355712890625" lon="-70.9934230148792266845703125">
        <ele>760.20001220703125</ele>
        <time>2026-08-21T19:14:55.000Z</time>
        <extensions>
          <ns3:TrackPointExtension>
            <ns3:hr>124</ns3:hr>
            <ns3:cad>53</ns3:cad>
          </ns3:TrackPointExtension>
        </extensions>
      </trkpt>
      <trkpt lat="45.34880309365689754486083984375" lon="-70.99341723136603832244873046875">
        <ele>760</ele>
        <time>2026-08-21T19:14:56.000Z</time>
        <extensions>
          <ns3:TrackPointExtension>
            <ns3:hr>123</ns3:hr>
            <ns3:cad>53</ns3:cad>
          </ns3:TrackPointExtension>
        </extensions>
      </trkpt>
      <trkpt lat="45.34880963154137134552001953125" lon="-70.99341236986219882965087890625">
        <ele>759.5999755859375</ele>
        <time>2026-08-21T19:14:57.000Z</time>
        <extensions>
          <ns3:TrackPointExtension>
            <ns3:hr>123</ns3:hr>
            <ns3:cad>53</ns3:cad>
          </ns3:TrackPointExtension>
        </extensions>
      </trkpt>
      <trkpt lat="45.34881482832133769989013671875" lon="-70.9934047423303127288818359375">
        <ele>759.4000244140625</ele>
        <time>2026-08-21T19:14:58.000Z</time>
        <extensions>
          <ns3:TrackPointExtension>
            <ns3:hr>123</ns3:hr>
            <ns3:cad>53</ns3:cad>
          </ns3:TrackPointExtension>
        </extensions>
      </trkpt>
      <trkpt lat="45.3488227911293506622314453125" lon="-70.99340147338807582855224609375">
        <ele>759.20001220703125</ele>
        <time>2026-08-21T19:14:59.000Z</time>
        <extensions>
          <ns3:TrackPointExtension>
            <ns3:hr>123</ns3:hr>
            <ns3:cad>0</ns3:cad>
          </ns3:TrackPointExtension>
        </extensions>
      </trkpt>
      <trkpt lat="45.34883310087025165557861328125" lon="-70.9934020601212978363037109375">
        <ele>759</ele>
        <time>2026-08-21T19:15:00.000Z</time>
        <extensions>
          <ns3:TrackPointExtension>
            <ns3:hr>122</ns3:hr>
            <ns3:cad>0</ns3:cad>
          </ns3:TrackPointExtension>
        </extensions>
      </trkpt>
      <trkpt lat="45.34884366206824779510498046875" lon="-70.99340599961578845977783203125">
        <ele>758.79998779296875</ele>
        <time>2026-08-21T19:15:01.000Z</time>
        <extensions>
          <ns3:TrackPointExtension>
            <ns3:hr>122</ns3:hr>
            <ns3:cad>0</ns3:cad>
          </ns3:TrackPointExtension>
        </extensions>
      </trkpt>
      <trkpt lat="45.34885548055171966552734375" lon="-70.9934080950915813446044921875">
        <ele>758.79998779296875</ele>
        <time>2026-08-21T19:15:02.000Z</time>
        <extensions>
          <ns3:TrackPointExtension>
            <ns3:hr>122</ns3:hr>
            <ns3:cad>0</ns3:cad>
          </ns3:TrackPointExtension>
        </extensions>
      </trkpt>
      <trkpt lat="45.3488655388355255126953125" lon="-70.99340935237705707550048828125">
        <ele>758.5999755859375</ele>
        <time>2026-08-21T19:15:03.000Z</time>
        <extensions>
          <ns3:TrackPointExtension>
            <ns3:hr>120</ns3:hr>
            <ns3:cad>0</ns3:cad>
          </ns3:TrackPointExtension>
        </extensions>
      </trkpt>
      <trkpt lat="45.34887568093836307525634765625" lon="-70.99341002292931079864501953125">
        <ele>758.4000244140625</ele>
        <time>2026-08-21T19:15:04.000Z</time>
        <extensions>
          <ns3:TrackPointExtension>
            <ns3:hr>120</ns3:hr>
            <ns3:cad>0</ns3:cad>
          </ns3:TrackPointExtension>
        </extensions>
      </trkpt>
      <trkpt lat="45.34888506866991519927978515625" lon="-70.99341371096670627593994140625">
        <ele>758.4000244140625</ele>
        <time>2026-08-21T19:15:05.000Z</time>
        <extensions>
          <ns3:TrackPointExtension>
            <ns3:hr>119</ns3:hr>
            <ns3:cad>0</ns3:cad>
          </ns3:TrackPointExtension>
        </extensions>
      </trkpt>
      <trkpt lat="45.3488972224295139312744140625" lon="-70.993420667946338653564453125">
        <ele>758.20001220703125</ele>
        <time>2026-08-21T19:15:06.000Z</time>
        <extensions>
          <ns3:TrackPointExtension>
            <ns3:hr>119</ns3:hr>
            <ns3:cad>53</ns3:cad>
          </ns3:TrackPointExtension>
        </extensions>
      </trkpt>
      <trkpt lat="45.34891004674136638641357421875" lon="-70.99343466572463512420654296875">
        <ele>757.79998779296875</ele>
        <time>2026-08-21T19:15:07.000Z</time>
        <extensions>
          <ns3:TrackPointExtension>
            <ns3:hr>118</ns3:hr>
            <ns3:cad>53</ns3:cad>
          </ns3:TrackPointExtension>
        </extensions>
      </trkpt>
      <trkpt lat="45.34892228431999683380126953125" lon="-70.99344539456069469451904296875">
        <ele>757.79998779296875</ele>
        <time>2026-08-21T19:15:08.000Z</time>
        <extensions>
          <ns3:TrackPointExtension>
            <ns3:hr>118</ns3:hr>
            <ns3:cad>53</ns3:cad>
          </ns3:TrackPointExtension>
        </extensions>
      </trkpt>
      <trkpt lat="45.3489339351654052734375" lon="-70.99345461465418338775634765625">
        <ele>757.5999755859375</ele>
        <time>2026-08-21T19:15:09.000Z</time>
        <extensions>
          <ns3:TrackPointExtension>
            <ns3:hr>118</ns3:hr>
            <ns3:cad>53</ns3:cad>
          </ns3:TrackPointExtension>
        </extensions>
      </trkpt>
      <trkpt lat="45.34894910641014575958251953125" lon="-70.9934632480144500732421875">
        <ele>757.5999755859375</ele>
        <time>2026-08-21T19:15:10.000Z</time>
        <extensions>
          <ns3:TrackPointExtension>
            <ns3:hr>118</ns3:hr>
            <ns3:cad>53</ns3:cad>
          </ns3:TrackPointExtension>
        </extensions>
      </trkpt>
      <trkpt lat="45.3489639423787593841552734375" lon="-70.99346735514700412750244140625">
        <ele>757.5999755859375</ele>
        <time>2026-08-21T19:15:11.000Z</time>
        <extensions>
          <ns3:TrackPointExtension>
            <ns3:hr>118</ns3:hr>
            <ns3:cad>53</ns3:cad>
          </ns3:TrackPointExtension>
        </extensions>
      </trkpt>
      <trkpt lat="45.348978526890277862548828125" lon="-70.993474312126636505126953125">
        <ele>757.5999755859375</ele>
        <time>2026-08-21T19:15:12.000Z</time>
        <extensions>
          <ns3:TrackPointExtension>
            <ns3:hr>117</ns3:hr>
            <ns3:cad>53</ns3:cad>
          </ns3:TrackPointExtension>
        </extensions>
      </trkpt>
      <trkpt lat="45.34899093210697174072265625" lon="-70.9934842027723789215087890625">
        <ele>757.5999755859375</ele>
        <time>2026-08-21T19:15:13.000Z</time>
        <extensions>
          <ns3:TrackPointExtension>
            <ns3:hr>117</ns3:hr>
            <ns3:cad>53</ns3:cad>
          </ns3:TrackPointExtension>
        </extensions>
      </trkpt>
      <trkpt lat="45.34900526516139507293701171875" lon="-70.9934885613620281219482421875">
        <ele>757.4000244140625</ele>
        <time>2026-08-21T19:15:14.000Z</time>
        <extensions>
          <ns3:TrackPointExtension>
            <ns3:hr>116</ns3:hr>
            <ns3:cad>53</ns3:cad>
          </ns3:TrackPointExtension>
        </extensions>
      </trkpt>
      <trkpt lat="45.34902370534837245941162109375" lon="-70.99348428659141063690185546875">
        <ele>757.4000244140625</ele>
        <time>2026-08-21T19:15:15.000Z</time>
        <extensions>
          <ns3:TrackPointExtension>
            <ns3:hr>116</ns3:hr>
            <ns3:cad>53</ns3:cad>
          </ns3:TrackPointExtension>
        </extensions>
      </trkpt>
      <trkpt lat="45.3490377031266689300537109375" lon="-70.993483364582061767578125">
        <ele>757</ele>
        <time>2026-08-21T19:15:16.000Z</time>
        <extensions>
          <ns3:TrackPointExtension>
            <ns3:hr>116</ns3:hr>
            <ns3:cad>56</ns3:cad>
          </ns3:TrackPointExtension>
        </extensions>
      </trkpt>
      <trkpt lat="45.3490551374852657318115234375" lon="-70.993489734828472137451171875">
        <ele>756.79998779296875</ele>
        <time>2026-08-21T19:15:17.000Z</time>
        <extensions>
          <ns3:TrackPointExtension>
            <ns3:hr>115</ns3:hr>
            <ns3:cad>56</ns3:cad>
          </ns3:TrackPointExtension>
        </extensions>
      </trkpt>
      <trkpt lat="45.3490692190825939178466796875" lon="-70.9934981167316436767578125">
        <ele>756.5999755859375</ele>
        <time>2026-08-21T19:15:18.000Z</time>
        <extensions>
          <ns3:TrackPointExtension>
            <ns3:hr>115</ns3:hr>
            <ns3:cad>56</ns3:cad>
          </ns3:TrackPointExtension>
        </extensions>
      </trkpt>
      <trkpt lat="45.34908791072666645050048828125" lon="-70.99350742064416408538818359375">
        <ele>756.4000244140625</ele>
        <time>2026-08-21T19:15:19.000Z</time>
        <extensions>
          <ns3:TrackPointExtension>
            <ns3:hr>115</ns3:hr>
            <ns3:cad>56</ns3:cad>
          </ns3:TrackPointExtension>
        </extensions>
      </trkpt>
      <trkpt lat="45.34910534508526325225830078125" lon="-70.9935009665787220001220703125">
        <ele>756.20001220703125</ele>
        <time>2026-08-21T19:15:20.000Z</time>
        <extensions>
          <ns3:TrackPointExtension>
            <ns3:hr>115</ns3:hr>
            <ns3:cad>56</ns3:cad>
          </ns3:TrackPointExtension>
        </extensions>
      </trkpt>
      <trkpt lat="45.34912370145320892333984375" lon="-70.9934969432651996612548828125">
        <ele>756</ele>
        <time>2026-08-21T19:15:21.000Z</time>
        <extensions>
          <ns3:TrackPointExtension>
            <ns3:hr>116</ns3:hr>
            <ns3:cad>68</ns3:cad>
          </ns3:TrackPointExtension>
        </extensions>
      </trkpt>
      <trkpt lat="45.349138788878917694091796875" lon="-70.99349317140877246856689453125">
        <ele>755.79998779296875</ele>
        <time>2026-08-21T19:15:22.000Z</time>
        <extensions>
          <ns3:TrackPointExtension>
            <ns3:hr>115</ns3:hr>
            <ns3:cad>68</ns3:cad>
          </ns3:TrackPointExtension>
        </extensions>
      </trkpt>
      <trkpt lat="45.34915412776172161102294921875" lon="-70.99349048919975757598876953125">
        <ele>755.5999755859375</ele>
        <time>2026-08-21T19:15:23.000Z</time>
        <extensions>
          <ns3:TrackPointExtension>
            <ns3:hr>114</ns3:hr>
            <ns3:cad>68</ns3:cad>
          </ns3:TrackPointExtension>
        </extensions>
      </trkpt>
      <trkpt lat="45.3491701371967792510986328125" lon="-70.9934935905039310455322265625">
        <ele>755.4000244140625</ele>
        <time>2026-08-21T19:15:24.000Z</time>
        <extensions>
          <ns3:TrackPointExtension>
            <ns3:hr>114</ns3:hr>
            <ns3:cad>68</ns3:cad>
          </ns3:TrackPointExtension>
        </extensions>
      </trkpt>
      <trkpt lat="45.34918631426990032196044921875" lon="-70.99349250085651874542236328125">
        <ele>755</ele>
        <time>2026-08-21T19:15:25.000Z</time>
        <extensions>
          <ns3:TrackPointExtension>
            <ns3:hr>113</ns3:hr>
            <ns3:cad>68</ns3:cad>
          </ns3:TrackPointExtension>
        </extensions>
      </trkpt>
      <trkpt lat="45.34920408390462398529052734375" lon="-70.993487723171710968017578125">
        <ele>754.79998779296875</ele>
        <time>2026-08-21T19:15:26.000Z</time>
        <extensions>
          <ns3:TrackPointExtension>
            <ns3:hr>114</ns3:hr>
            <ns3:cad>68</ns3:cad>
          </ns3:TrackPointExtension>
        </extensions>
      </trkpt>
      <trkpt lat="45.3492184169590473175048828125" lon="-70.99347892217338085174560546875">
        <ele>754.5999755859375</ele>
        <time>2026-08-21T19:15:27.000Z</time>
        <extensions>
          <ns3:TrackPointExtension>
            <ns3:hr>115</ns3:hr>
            <ns3:cad>68</ns3:cad>
          </ns3:TrackPointExtension>
        </extensions>
      </trkpt>
      <trkpt lat="45.34922872669994831085205078125" lon="-70.99347657524049282073974609375">
        <ele>754.5999755859375</ele>
        <time>2026-08-21T19:15:28.000Z</time>
        <extensions>
          <ns3:TrackPointExtension>
            <ns3:hr>115</ns3:hr>
            <ns3:cad>68</ns3:cad>
          </ns3:TrackPointExtension>
        </extensions>
      </trkpt>
      <trkpt lat="45.3492365218698978424072265625" lon="-70.99348939955234527587890625">
        <ele>754.4000244140625</ele>
        <time>2026-08-21T19:15:29.000Z</time>
        <extensions>
          <ns3:TrackPointExtension>
            <ns3:hr>116</ns3:hr>
            <ns3:cad>68</ns3:cad>
          </ns3:TrackPointExtension>
        </extensions>
      </trkpt>
      <trkpt lat="45.34924247302114963531494140625" lon="-70.99349920637905597686767578125">
        <ele>754.4000244140625</ele>
        <time>2026-08-21T19:15:30.000Z</time>
        <extensions>
          <ns3:TrackPointExtension>
            <ns3:hr>116</ns3:hr>
            <ns3:cad>68</ns3:cad>
          </ns3:TrackPointExtension>
        </extensions>
      </trkpt>
      <trkpt lat="45.3492462448775768280029296875" lon="-70.9935059957206249237060546875">
        <ele>754.5999755859375</ele>
        <time>2026-08-21T19:15:31.000Z</time>
        <extensions>
          <ns3:TrackPointExtension>
            <ns3:hr>116</ns3:hr>
            <ns3:cad>68</ns3:cad>
          </ns3:TrackPointExtension>
        </extensions>
      </trkpt>
      <trkpt lat="45.3492506034672260284423828125" lon="-70.9935190714895725250244140625">
        <ele>754.79998779296875</ele>
        <time>2026-08-21T19:15:32.000Z</time>
        <extensions>
          <ns3:TrackPointExtension>
            <ns3:hr>117</ns3:hr>
            <ns3:cad>68</ns3:cad>
          </ns3:TrackPointExtension>
        </extensions>
      </trkpt>
      <trkpt lat="45.34925169311463832855224609375" lon="-70.9935284592211246490478515625">
        <ele>755</ele>
        <time>2026-08-21T19:15:33.000Z</time>
        <extensions>
          <ns3:TrackPointExtension>
            <ns3:hr>117</ns3:hr>
            <ns3:cad>68</ns3:cad>
          </ns3:TrackPointExtension>
        </extensions>
      </trkpt>
      <trkpt lat="45.34925236366689205169677734375" lon="-70.99353876896202564239501953125">
        <ele>755.20001220703125</ele>
        <time>2026-08-21T19:15:34.000Z</time>
        <extensions>
          <ns3:TrackPointExtension>
            <ns3:hr>117</ns3:hr>
            <ns3:cad>68</ns3:cad>
          </ns3:TrackPointExtension>
        </extensions>
      </trkpt>
      <trkpt lat="45.34925420768558979034423828125" lon="-70.99355134181678295135498046875">
        <ele>755.4000244140625</ele>
        <time>2026-08-21T19:15:35.000Z</time>
        <extensions>
          <ns3:TrackPointExtension>
            <ns3:hr>117</ns3:hr>
            <ns3:cad>68</ns3:cad>
          </ns3:TrackPointExtension>
        </extensions>
      </trkpt>
      <trkpt lat="45.349258147180080413818359375" lon="-70.99356274120509624481201171875">
        <ele>755.5999755859375</ele>
        <time>2026-08-21T19:15:36.000Z</time>
        <extensions>
          <ns3:TrackPointExtension>
            <ns3:hr>116</ns3:hr>
            <ns3:cad>51</ns3:cad>
          </ns3:TrackPointExtension>
        </extensions>
      </trkpt>
      <trkpt lat="45.34926326014101505279541015625" lon="-70.99357749335467815399169921875">
        <ele>755.5999755859375</ele>
        <time>2026-08-21T19:15:37.000Z</time>
        <extensions>
          <ns3:TrackPointExtension>
            <ns3:hr>116</ns3:hr>
            <ns3:cad>51</ns3:cad>
          </ns3:TrackPointExtension>
        </extensions>
      </trkpt>
      <trkpt lat="45.3492680378258228302001953125" lon="-70.99358973093330860137939453125">
        <ele>755.79998779296875</ele>
        <time>2026-08-21T19:15:38.000Z</time>
        <extensions>
          <ns3:TrackPointExtension>
            <ns3:hr>116</ns3:hr>
            <ns3:cad>47</ns3:cad>
          </ns3:TrackPointExtension>
        </extensions>
      </trkpt>
      <trkpt lat="45.34927298314869403839111328125" lon="-70.9935975261032581329345703125">
        <ele>756</ele>
        <time>2026-08-21T19:15:39.000Z</time>
        <extensions>
          <ns3:TrackPointExtension>
            <ns3:hr>116</ns3:hr>
            <ns3:cad>47</ns3:cad>
          </ns3:TrackPointExtension>
        </extensions>
      </trkpt>
      <trkpt lat="45.34927432425320148468017578125" lon="-70.99360699765384197235107421875">
        <ele>756.20001220703125</ele>
        <time>2026-08-21T19:15:40.000Z</time>
        <extensions>
          <ns3:TrackPointExtension>
            <ns3:hr>116</ns3:hr>
            <ns3:cad>47</ns3:cad>
          </ns3:TrackPointExtension>
        </extensions>
      </trkpt>
      <trkpt lat="45.34927365370094776153564453125" lon="-70.9936169721186161041259765625">
        <ele>756.4000244140625</ele>
        <time>2026-08-21T19:15:41.000Z</time>
        <extensions>
          <ns3:TrackPointExtension>
            <ns3:hr>116</ns3:hr>
            <ns3:cad>47</ns3:cad>
          </ns3:TrackPointExtension>
        </extensions>
      </trkpt>
      <trkpt lat="45.34926946274936199188232421875" lon="-70.99361814558506011962890625">
        <ele>756.5999755859375</ele>
        <time>2026-08-21T19:15:42.000Z</time>
        <extensions>
          <ns3:TrackPointExtension>
            <ns3:hr>116</ns3:hr>
            <ns3:cad>47</ns3:cad>
          </ns3:TrackPointExtension>
        </extensions>
      </trkpt>
      <trkpt lat="45.349267534911632537841796875" lon="-70.99362351000308990478515625">
        <ele>756.79998779296875</ele>
        <time>2026-08-21T19:15:43.000Z</time>
        <extensions>
          <ns3:TrackPointExtension>
            <ns3:hr>116</ns3:hr>
            <ns3:cad>47</ns3:cad>
          </ns3:TrackPointExtension>
        </extensions>
      </trkpt>
      <trkpt lat="45.3492646850645542144775390625" lon="-70.9936344064772129058837890625">
        <ele>757</ele>
        <time>2026-08-21T19:15:44.000Z</time>
        <extensions>
          <ns3:TrackPointExtension>
            <ns3:hr>115</ns3:hr>
            <ns3:cad>47</ns3:cad>
          </ns3:TrackPointExtension>
        </extensions>
      </trkpt>
      <trkpt lat="45.34926158376038074493408203125" lon="-70.99363985471427440643310546875">
        <ele>757.20001220703125</ele>
        <time>2026-08-21T19:15:45.000Z</time>
        <extensions>
          <ns3:TrackPointExtension>
            <ns3:hr>115</ns3:hr>
            <ns3:cad>0</ns3:cad>
          </ns3:TrackPointExtension>
        </extensions>
      </trkpt>
      <trkpt lat="45.349258482456207275390625" lon="-70.993641950190067291259765625">
        <ele>757.4000244140625</ele>
        <time>2026-08-21T19:15:46.000Z</time>
        <extensions>
          <ns3:TrackPointExtension>
            <ns3:hr>115</ns3:hr>
            <ns3:cad>0</ns3:cad>
          </ns3:TrackPointExtension>
        </extensions>
      </trkpt>
      <trkpt lat="45.34925286658108234405517578125" lon="-70.9936456382274627685546875">
        <ele>757.79998779296875</ele>
        <time>2026-08-21T19:15:47.000Z</time>
        <extensions>
          <ns3:TrackPointExtension>
            <ns3:hr>115</ns3:hr>
            <ns3:cad>0</ns3:cad>
          </ns3:TrackPointExtension>
        </extensions>
      </trkpt>
      <trkpt lat="45.349250771105289459228515625" lon="-70.99365058355033397674560546875">
        <ele>758</ele>
        <time>2026-08-21T19:15:48.000Z</time>
        <extensions>
          <ns3:TrackPointExtension>
            <ns3:hr>116</ns3:hr>
            <ns3:cad>0</ns3:cad>
          </ns3:TrackPointExtension>
        </extensions>
      </trkpt>
      <trkpt lat="45.34924297593533992767333984375" lon="-70.99365829490125179290771484375">
        <ele>758.4000244140625</ele>
        <time>2026-08-21T19:15:49.000Z</time>
        <extensions>
          <ns3:TrackPointExtension>
            <ns3:hr>117</ns3:hr>
            <ns3:cad>0</ns3:cad>
          </ns3:TrackPointExtension>
        </extensions>
      </trkpt>
      <trkpt lat="45.349241383373737335205078125" lon="-70.9936632402241230010986328125">
        <ele>758.5999755859375</ele>
        <time>2026-08-21T19:15:50.000Z</time>
        <extensions>
          <ns3:TrackPointExtension>
            <ns3:hr>117</ns3:hr>
            <ns3:cad>0</ns3:cad>
          </ns3:TrackPointExtension>
        </extensions>
      </trkpt>
      <trkpt lat="45.349237360060214996337890625" lon="-70.99367857910692691802978515625">
        <ele>759</ele>
        <time>2026-08-21T19:15:51.000Z</time>
        <extensions>
          <ns3:TrackPointExtension>
            <ns3:hr>118</ns3:hr>
            <ns3:cad>0</ns3:cad>
          </ns3:TrackPointExtension>
        </extensions>
      </trkpt>
      <trkpt lat="45.3492351807653903961181640625" lon="-70.99368830211460590362548828125">
        <ele>759.20001220703125</ele>
        <time>2026-08-21T19:15:52.000Z</time>
        <extensions>
          <ns3:TrackPointExtension>
            <ns3:hr>119</ns3:hr>
            <ns3:cad>0</ns3:cad>
          </ns3:TrackPointExtension>
        </extensions>
      </trkpt>
      <trkpt lat="45.3492368571460247039794921875" lon="-70.9937038086354732513427734375">
        <ele>759.4000244140625</ele>
        <time>2026-08-21T19:15:53.000Z</time>
        <extensions>
          <ns3:TrackPointExtension>
            <ns3:hr>122</ns3:hr>
            <ns3:cad>0</ns3:cad>
          </ns3:TrackPointExtension>
        </extensions>
      </trkpt>
      <trkpt lat="45.34923459403216838836669921875" lon="-70.99370892159640789031982421875">
        <ele>759.5999755859375</ele>
        <time>2026-08-21T19:15:54.000Z</time>
        <extensions>
          <ns3:TrackPointExtension>
            <ns3:hr>123</ns3:hr>
            <ns3:cad>0</ns3:cad>
          </ns3:TrackPointExtension>
        </extensions>
      </trkpt>
      <trkpt lat="45.3492345102131366729736328125" lon="-70.99372635595500469207763671875">
        <ele>759.79998779296875</ele>
        <time>2026-08-21T19:15:55.000Z</time>
        <extensions>
          <ns3:TrackPointExtension>
            <ns3:hr>124</ns3:hr>
            <ns3:cad>43</ns3:cad>
          </ns3:TrackPointExtension>
        </extensions>
      </trkpt>
      <trkpt lat="45.34923191182315349578857421875" lon="-70.99374429322779178619384765625">
        <ele>760</ele>
        <time>2026-08-21T19:15:56.000Z</time>
        <extensions>
          <ns3:TrackPointExtension>
            <ns3:hr>124</ns3:hr>
            <ns3:cad>43</ns3:cad>
          </ns3:TrackPointExtension>
        </extensions>
      </trkpt>
      <trkpt lat="45.3492298163473606109619140625" lon="-70.9937556087970733642578125">
        <ele>760.20001220703125</ele>
        <time>2026-08-21T19:15:57.000Z</time>
        <extensions>
          <ns3:TrackPointExtension>
            <ns3:hr>124</ns3:hr>
            <ns3:cad>43</ns3:cad>
          </ns3:TrackPointExtension>
        </extensions>
      </trkpt>
      <trkpt lat="45.34922688268125057220458984375" lon="-70.9937604703009128570556640625">
        <ele>760.4000244140625</ele>
        <time>2026-08-21T19:15:58.000Z</time>
        <extensions>
          <ns3:TrackPointExtension>
            <ns3:hr>125</ns3:hr>
            <ns3:cad>0</ns3:cad>
          </ns3:TrackPointExtension>
        </extensions>
      </trkpt>
      <trkpt lat="45.34922285936772823333740234375" lon="-70.9937668405473232269287109375">
        <ele>760.5999755859375</ele>
        <time>2026-08-21T19:15:59.000Z</time>
        <extensions>
          <ns3:TrackPointExtension>
            <ns3:hr>126</ns3:hr>
            <ns3:cad>0</ns3:cad>
          </ns3:TrackPointExtension>
        </extensions>
      </trkpt>
      <trkpt lat="45.34921598620712757110595703125" lon="-70.99378050304949283599853515625">
        <ele>760.79998779296875</ele>
        <time>2026-08-21T19:16:00.000Z</time>
        <extensions>
          <ns3:TrackPointExtension>
            <ns3:hr>127</ns3:hr>
            <ns3:cad>0</ns3:cad>
          </ns3:TrackPointExtension>
        </extensions>
      </trkpt>
      <trkpt lat="45.34921246580779552459716796875" lon="-70.99379114806652069091796875">
        <ele>761.20001220703125</ele>
        <time>2026-08-21T19:16:01.000Z</time>
        <extensions>
          <ns3:TrackPointExtension>
            <ns3:hr>130</ns3:hr>
            <ns3:cad>48</ns3:cad>
          </ns3:TrackPointExtension>
        </extensions>
      </trkpt>
      <trkpt lat="45.3492090292274951934814453125" lon="-70.9937990270555019378662109375">
        <ele>761.4000244140625</ele>
        <time>2026-08-21T19:16:02.000Z</time>
        <extensions>
          <ns3:TrackPointExtension>
            <ns3:hr>130</ns3:hr>
            <ns3:cad>49</ns3:cad>
          </ns3:TrackPointExtension>
        </extensions>
      </trkpt>
      <trkpt lat="45.3492066822946071624755859375" lon="-70.99380648694932460784912109375">
        <ele>761.5999755859375</ele>
        <time>2026-08-21T19:16:03.000Z</time>
        <extensions>
          <ns3:TrackPointExtension>
            <ns3:hr>131</ns3:hr>
            <ns3:cad>49</ns3:cad>
          </ns3:TrackPointExtension>
        </extensions>
      </trkpt>
      <trkpt lat="45.34920073114335536956787109375" lon="-70.99382056854665279388427734375">
        <ele>762</ele>
        <time>2026-08-21T19:16:04.000Z</time>
        <extensions>
          <ns3:TrackPointExtension>
            <ns3:hr>132</ns3:hr>
            <ns3:cad>49</ns3:cad>
          </ns3:TrackPointExtension>
        </extensions>
      </trkpt>
      <trkpt lat="45.34919301979243755340576171875" lon="-70.99384420551359653472900390625">
        <ele>762.20001220703125</ele>
        <time>2026-08-21T19:16:05.000Z</time>
        <extensions>
          <ns3:TrackPointExtension>
            <ns3:hr>133</ns3:hr>
            <ns3:cad>50</ns3:cad>
          </ns3:TrackPointExtension>
        </extensions>
      </trkpt>
      <trkpt lat="45.34919369034469127655029296875" lon="-70.9938590414822101593017578125">
        <ele>762.4000244140625</ele>
        <time>2026-08-21T19:16:06.000Z</time>
        <extensions>
          <ns3:TrackPointExtension>
            <ns3:hr>134</ns3:hr>
            <ns3:cad>50</ns3:cad>
          </ns3:TrackPointExtension>
        </extensions>
      </trkpt>
      <trkpt lat="45.34919419325888156890869140625" lon="-70.9938721172511577606201171875">
        <ele>762.5999755859375</ele>
        <time>2026-08-21T19:16:07.000Z</time>
        <extensions>
          <ns3:TrackPointExtension>
            <ns3:hr>134</ns3:hr>
            <ns3:cad>0</ns3:cad>
          </ns3:TrackPointExtension>
        </extensions>
      </trkpt>
      <trkpt lat="45.34919486381113529205322265625" lon="-70.99388695321977138519287109375">
        <ele>762.79998779296875</ele>
        <time>2026-08-21T19:16:08.000Z</time>
        <extensions>
          <ns3:TrackPointExtension>
            <ns3:hr>134</ns3:hr>
            <ns3:cad>0</ns3:cad>
          </ns3:TrackPointExtension>
        </extensions>
      </trkpt>
      <trkpt lat="45.349191762506961822509765625" lon="-70.993905477225780487060546875">
        <ele>763</ele>
        <time>2026-08-21T19:16:09.000Z</time>
        <extensions>
          <ns3:TrackPointExtension>
            <ns3:hr>135</ns3:hr>
            <ns3:cad>0</ns3:cad>
          </ns3:TrackPointExtension>
        </extensions>
      </trkpt>
      <trkpt lat="45.34919117577373981475830078125" lon="-70.993923246860504150390625">
        <ele>763.20001220703125</ele>
        <time>2026-08-21T19:16:10.000Z</time>
        <extensions>
          <ns3:TrackPointExtension>
            <ns3:hr>135</ns3:hr>
            <ns3:cad>44</ns3:cad>
          </ns3:TrackPointExtension>
        </extensions>
      </trkpt>
      <trkpt lat="45.34919419325888156890869140625" lon="-70.99393825046718120574951171875">
        <ele>763.4000244140625</ele>
        <time>2026-08-21T19:16:11.000Z</time>
        <extensions>
          <ns3:TrackPointExtension>
            <ns3:hr>135</ns3:hr>
            <ns3:cad>44</ns3:cad>
          </ns3:TrackPointExtension>
        </extensions>
      </trkpt>
      <trkpt lat="45.34919469617307186126708984375" lon="-70.9939589537680149078369140625">
        <ele>763.5999755859375</ele>
        <time>2026-08-21T19:16:12.000Z</time>
        <extensions>
          <ns3:TrackPointExtension>
            <ns3:hr>135</ns3:hr>
            <ns3:cad>44</ns3:cad>
          </ns3:TrackPointExtension>
        </extensions>
      </trkpt>
      <trkpt lat="45.3491949476301670074462890625" lon="-70.99397580139338970184326171875">
        <ele>763.79998779296875</ele>
        <time>2026-08-21T19:16:13.000Z</time>
        <extensions>
          <ns3:TrackPointExtension>
            <ns3:hr>136</ns3:hr>
            <ns3:cad>45</ns3:cad>
          </ns3:TrackPointExtension>
        </extensions>
      </trkpt>
      <trkpt lat="45.34919067285954952239990234375" lon="-70.99399088881909847259521484375">
        <ele>764</ele>
        <time>2026-08-21T19:16:14.000Z</time>
        <extensions>
          <ns3:TrackPointExtension>
            <ns3:hr>137</ns3:hr>
            <ns3:cad>45</ns3:cad>
          </ns3:TrackPointExtension>
        </extensions>
      </trkpt>
      <trkpt lat="45.34919184632599353790283203125" lon="-70.99400899372994899749755859375">
        <ele>764</ele>
        <time>2026-08-21T19:16:15.000Z</time>
        <extensions>
          <ns3:TrackPointExtension>
            <ns3:hr>137</ns3:hr>
            <ns3:cad>45</ns3:cad>
          </ns3:TrackPointExtension>
        </extensions>
      </trkpt>
      <trkpt lat="45.349193774163722991943359375" lon="-70.99402374587953090667724609375">
        <ele>764.20001220703125</ele>
        <time>2026-08-21T19:16:16.000Z</time>
        <extensions>
          <ns3:TrackPointExtension>
            <ns3:hr>138</ns3:hr>
            <ns3:cad>45</ns3:cad>
          </ns3:TrackPointExtension>
        </extensions>
      </trkpt>
      <trkpt lat="45.349203161895275115966796875" lon="-70.99404134787619113922119140625">
        <ele>764.4000244140625</ele>
        <time>2026-08-21T19:16:17.000Z</time>
        <extensions>
          <ns3:TrackPointExtension>
            <ns3:hr>138</ns3:hr>
            <ns3:cad>45</ns3:cad>
          </ns3:TrackPointExtension>
        </extensions>
      </trkpt>
      <trkpt lat="45.34920861013233661651611328125" lon="-70.99405358545482158660888671875">
        <ele>764.4000244140625</ele>
        <time>2026-08-21T19:16:18.000Z</time>
        <extensions>
          <ns3:TrackPointExtension>
            <ns3:hr>139</ns3:hr>
            <ns3:cad>45</ns3:cad>
          </ns3:TrackPointExtension>
        </extensions>
      </trkpt>
      <trkpt lat="45.34921414218842983245849609375" lon="-70.99407009780406951904296875">
        <ele>764.4000244140625</ele>
        <time>2026-08-21T19:16:19.000Z</time>
        <extensions>
          <ns3:TrackPointExtension>
            <ns3:hr>140</ns3:hr>
            <ns3:cad>45</ns3:cad>
          </ns3:TrackPointExtension>
        </extensions>
      </trkpt>
      <trkpt lat="45.34922034479677677154541015625" lon="-70.99408912472426891326904296875">
        <ele>764.4000244140625</ele>
        <time>2026-08-21T19:16:20.000Z</time>
        <extensions>
          <ns3:TrackPointExtension>
            <ns3:hr>141</ns3:hr>
            <ns3:cad>45</ns3:cad>
          </ns3:TrackPointExtension>
        </extensions>
      </trkpt>
      <trkpt lat="45.34922922961413860321044921875" lon="-70.99410555325448513031005859375">
        <ele>764.4000244140625</ele>
        <time>2026-08-21T19:16:21.000Z</time>
        <extensions>
          <ns3:TrackPointExtension>
            <ns3:hr>142</ns3:hr>
            <ns3:cad>45</ns3:cad>
          </ns3:TrackPointExtension>
        </extensions>
      </trkpt>
      <trkpt lat="45.34923291765153408050537109375" lon="-70.99411410279572010040283203125">
        <ele>764.4000244140625</ele>
        <time>2026-08-21T19:16:22.000Z</time>
        <extensions>
          <ns3:TrackPointExtension>
            <ns3:hr>143</ns3:hr>
            <ns3:cad>45</ns3:cad>
          </ns3:TrackPointExtension>
        </extensions>
      </trkpt>
      <trkpt lat="45.34923476167023181915283203125" lon="-70.99412751384079456329345703125">
        <ele>764.5999755859375</ele>
        <time>2026-08-21T19:16:23.000Z</time>
        <extensions>
          <ns3:TrackPointExtension>
            <ns3:hr>143</ns3:hr>
            <ns3:cad>45</ns3:cad>
          </ns3:TrackPointExtension>
        </extensions>
      </trkpt>
      <trkpt lat="45.34924113191664218902587890625" lon="-70.9941450320184230804443359375">
        <ele>764.5999755859375</ele>
        <time>2026-08-21T19:16:24.000Z</time>
        <extensions>
          <ns3:TrackPointExtension>
            <ns3:hr>143</ns3:hr>
            <ns3:cad>45</ns3:cad>
          </ns3:TrackPointExtension>
        </extensions>
      </trkpt>
      <trkpt lat="45.34925244748592376708984375" lon="-70.99415685050189495086669921875">
        <ele>764.5999755859375</ele>
        <time>2026-08-21T19:16:25.000Z</time>
        <extensions>
          <ns3:TrackPointExtension>
            <ns3:hr>143</ns3:hr>
            <ns3:cad>45</ns3:cad>
          </ns3:TrackPointExtension>
        </extensions>
      </trkpt>
      <trkpt lat="45.34926393069326877593994140625" lon="-70.99416933953762054443359375">
        <ele>764.5999755859375</ele>
        <time>2026-08-21T19:16:26.000Z</time>
        <extensions>
          <ns3:TrackPointExtension>
            <ns3:hr>143</ns3:hr>
            <ns3:cad>45</ns3:cad>
          </ns3:TrackPointExtension>
        </extensions>
      </trkpt>
      <trkpt lat="45.34927180968225002288818359375" lon="-70.9941882826387882232666015625">
        <ele>764.5999755859375</ele>
        <time>2026-08-21T19:16:27.000Z</time>
        <extensions>
          <ns3:TrackPointExtension>
            <ns3:hr>142</ns3:hr>
            <ns3:cad>45</ns3:cad>
          </ns3:TrackPointExtension>
        </extensions>
      </trkpt>
      <trkpt lat="45.34928069449961185455322265625" lon="-70.99420781247317790985107421875">
        <ele>764.4000244140625</ele>
        <time>2026-08-21T19:16:28.000Z</time>
        <extensions>
          <ns3:TrackPointExtension>
            <ns3:hr>143</ns3:hr>
            <ns3:cad>45</ns3:cad>
          </ns3:TrackPointExtension>
        </extensions>
      </trkpt>
      <trkpt lat="45.34929125569760799407958984375" lon="-70.9942258335649967193603515625">
        <ele>764.4000244140625</ele>
        <time>2026-08-21T19:16:29.000Z</time>
        <extensions>
          <ns3:TrackPointExtension>
            <ns3:hr>143</ns3:hr>
            <ns3:cad>0</ns3:cad>
          </ns3:TrackPointExtension>
        </extensions>
      </trkpt>
      <trkpt lat="45.3493002243340015411376953125" lon="-70.9942415915429592132568359375">
        <ele>764.4000244140625</ele>
        <time>2026-08-21T19:16:30.000Z</time>
        <extensions>
          <ns3:TrackPointExtension>
            <ns3:hr>142</ns3:hr>
            <ns3:cad>0</ns3:cad>
          </ns3:TrackPointExtension>
        </extensions>
      </trkpt>
      <trkpt lat="45.3493107855319976806640625" lon="-70.99425827153027057647705078125">
        <ele>764.4000244140625</ele>
        <time>2026-08-21T19:16:31.000Z</time>
        <extensions>
          <ns3:TrackPointExtension>
            <ns3:hr>141</ns3:hr>
            <ns3:cad>0</ns3:cad>
          </ns3:TrackPointExtension>
        </extensions>
      </trkpt>
      <trkpt lat="45.3493233583867549896240234375" lon="-70.994271598756313323974609375">
        <ele>764.20001220703125</ele>
        <time>2026-08-21T19:16:32.000Z</time>
        <extensions>
          <ns3:TrackPointExtension>
            <ns3:hr>141</ns3:hr>
            <ns3:cad>57</ns3:cad>
          </ns3:TrackPointExtension>
        </extensions>
      </trkpt>
      <trkpt lat="45.34933752380311489105224609375" lon="-70.99428626708686351776123046875">
        <ele>764.20001220703125</ele>
        <time>2026-08-21T19:16:33.000Z</time>
        <extensions>
          <ns3:TrackPointExtension>
            <ns3:hr>141</ns3:hr>
            <ns3:cad>57</ns3:cad>
          </ns3:TrackPointExtension>
        </extensions>
      </trkpt>
      <trkpt lat="45.3493538685142993927001953125" lon="-70.99430822767317295074462890625">
        <ele>764</ele>
        <time>2026-08-21T19:16:34.000Z</time>
        <extensions>
          <ns3:TrackPointExtension>
            <ns3:hr>141</ns3:hr>
            <ns3:cad>66</ns3:cad>
          </ns3:TrackPointExtension>
        </extensions>
      </trkpt>
      <trkpt lat="45.349365770816802978515625" lon="-70.9943264164030551910400390625">
        <ele>764</ele>
        <time>2026-08-21T19:16:35.000Z</time>
        <extensions>
          <ns3:TrackPointExtension>
            <ns3:hr>140</ns3:hr>
            <ns3:cad>66</ns3:cad>
          </ns3:TrackPointExtension>
        </extensions>
      </trkpt>
      <trkpt lat="45.34937490709125995635986328125" lon="-70.99434041418135166168212890625">
        <ele>763.79998779296875</ele>
        <time>2026-08-21T19:16:36.000Z</time>
        <extensions>
          <ns3:TrackPointExtension>
            <ns3:hr>140</ns3:hr>
            <ns3:cad>66</ns3:cad>
          </ns3:TrackPointExtension>
        </extensions>
      </trkpt>
      <trkpt lat="45.349387563765048980712890625" lon="-70.99434745498001575469970703125">
        <ele>763.5999755859375</ele>
        <time>2026-08-21T19:16:37.000Z</time>
        <extensions>
          <ns3:TrackPointExtension>
            <ns3:hr>139</ns3:hr>
            <ns3:cad>66</ns3:cad>
          </ns3:TrackPointExtension>
        </extensions>
      </trkpt>
      <trkpt lat="45.34939552657306194305419921875" lon="-70.99436111748218536376953125">
        <ele>763.5999755859375</ele>
        <time>2026-08-21T19:16:38.000Z</time>
        <extensions>
          <ns3:TrackPointExtension>
            <ns3:hr>139</ns3:hr>
            <ns3:cad>66</ns3:cad>
          </ns3:TrackPointExtension>
        </extensions>
      </trkpt>
      <trkpt lat="45.34940256737172603607177734375" lon="-70.9943753667175769805908203125">
        <ele>763.5999755859375</ele>
        <time>2026-08-21T19:16:39.000Z</time>
        <extensions>
          <ns3:TrackPointExtension>
            <ns3:hr>139</ns3:hr>
            <ns3:cad>66</ns3:cad>
          </ns3:TrackPointExtension>
        </extensions>
      </trkpt>
      <trkpt lat="45.349413715302944183349609375" lon="-70.9943926334381103515625">
        <ele>763.4000244140625</ele>
        <time>2026-08-21T19:16:40.000Z</time>
        <extensions>
          <ns3:TrackPointExtension>
            <ns3:hr>138</ns3:hr>
            <ns3:cad>67</ns3:cad>
          </ns3:TrackPointExtension>
        </extensions>
      </trkpt>
      <trkpt lat="45.34942721016705036163330078125" lon="-70.99440394900739192962646484375">
        <ele>763.20001220703125</ele>
        <time>2026-08-21T19:16:41.000Z</time>
        <extensions>
          <ns3:TrackPointExtension>
            <ns3:hr>138</ns3:hr>
            <ns3:cad>67</ns3:cad>
          </ns3:TrackPointExtension>
        </extensions>
      </trkpt>
      <trkpt lat="45.34944011829793453216552734375" lon="-70.99441870115697383880615234375">
        <ele>763</ele>
        <time>2026-08-21T19:16:42.000Z</time>
        <extensions>
          <ns3:TrackPointExtension>
            <ns3:hr>137</ns3:hr>
            <ns3:cad>67</ns3:cad>
          </ns3:TrackPointExtension>
        </extensions>
      </trkpt>
      <trkpt lat="45.34944866783916950225830078125" lon="-70.9944316931068897247314453125">
        <ele>762.79998779296875</ele>
        <time>2026-08-21T19:16:43.000Z</time>
        <extensions>
          <ns3:TrackPointExtension>
            <ns3:hr>136</ns3:hr>
            <ns3:cad>67</ns3:cad>
          </ns3:TrackPointExtension>
        </extensions>
      </trkpt>
      <trkpt lat="45.3494578041136264801025390625" lon="-70.99445004947483539581298828125">
        <ele>762.5999755859375</ele>
        <time>2026-08-21T19:16:44.000Z</time>
        <extensions>
          <ns3:TrackPointExtension>
            <ns3:hr>135</ns3:hr>
            <ns3:cad>67</ns3:cad>
          </ns3:TrackPointExtension>
        </extensions>
      </trkpt>
      <trkpt lat="45.34946979023516178131103515625" lon="-70.99446170032024383544921875">
        <ele>762.5999755859375</ele>
        <time>2026-08-21T19:16:45.000Z</time>
        <extensions>
          <ns3:TrackPointExtension>
            <ns3:hr>133</ns3:hr>
            <ns3:cad>67</ns3:cad>
          </ns3:TrackPointExtension>
        </extensions>
      </trkpt>
      <trkpt lat="45.3494832850992679595947265625" lon="-70.99447452463209629058837890625">
        <ele>762.4000244140625</ele>
        <time>2026-08-21T19:16:46.000Z</time>
        <extensions>
          <ns3:TrackPointExtension>
            <ns3:hr>132</ns3:hr>
            <ns3:cad>67</ns3:cad>
          </ns3:TrackPointExtension>
        </extensions>
      </trkpt>
      <trkpt lat="45.34949175082147121429443359375" lon="-70.99448827095329761505126953125">
        <ele>762.20001220703125</ele>
        <time>2026-08-21T19:16:47.000Z</time>
        <extensions>
          <ns3:TrackPointExtension>
            <ns3:hr>132</ns3:hr>
            <ns3:cad>67</ns3:cad>
          </ns3:TrackPointExtension>
        </extensions>
      </trkpt>
      <trkpt lat="45.3495034016668796539306640625" lon="-70.9944997541606426239013671875">
        <ele>762</ele>
        <time>2026-08-21T19:16:48.000Z</time>
        <extensions>
          <ns3:TrackPointExtension>
            <ns3:hr>131</ns3:hr>
            <ns3:cad>67</ns3:cad>
          </ns3:TrackPointExtension>
        </extensions>
      </trkpt>
      <trkpt lat="45.3495151363313198089599609375" lon="-70.9945118241012096405029296875">
        <ele>761.79998779296875</ele>
        <time>2026-08-21T19:16:49.000Z</time>
        <extensions>
          <ns3:TrackPointExtension>
            <ns3:hr>131</ns3:hr>
            <ns3:cad>67</ns3:cad>
          </ns3:TrackPointExtension>
        </extensions>
      </trkpt>
      <trkpt lat="45.3495228476822376251220703125" lon="-70.99453101865947246551513671875">
        <ele>761.5999755859375</ele>
        <time>2026-08-21T19:16:50.000Z</time>
        <extensions>
          <ns3:TrackPointExtension>
            <ns3:hr>130</ns3:hr>
            <ns3:cad>67</ns3:cad>
          </ns3:TrackPointExtension>
        </extensions>
      </trkpt>
      <trkpt lat="45.34952812828123569488525390625" lon="-70.9945470280945301055908203125">
        <ele>761.4000244140625</ele>
        <time>2026-08-21T19:16:51.000Z</time>
        <extensions>
          <ns3:TrackPointExtension>
            <ns3:hr>129</ns3:hr>
            <ns3:cad>67</ns3:cad>
          </ns3:TrackPointExtension>
        </extensions>
      </trkpt>
      <trkpt lat="45.34953667782247066497802734375" lon="-70.99455649964511394500732421875">
        <ele>761.4000244140625</ele>
        <time>2026-08-21T19:16:52.000Z</time>
        <extensions>
          <ns3:TrackPointExtension>
            <ns3:hr>128</ns3:hr>
            <ns3:cad>61</ns3:cad>
          </ns3:TrackPointExtension>
        </extensions>
      </trkpt>
      <trkpt lat="45.349541120231151580810546875" lon="-70.99456689320504665374755859375">
        <ele>761.4000244140625</ele>
        <time>2026-08-21T19:16:53.000Z</time>
        <extensions>
          <ns3:TrackPointExtension>
            <ns3:hr>128</ns3:hr>
            <ns3:cad>61</ns3:cad>
          </ns3:TrackPointExtension>
        </extensions>
      </trkpt>
      <trkpt lat="45.3495473228394985198974609375" lon="-70.99458181299269199371337890625">
        <ele>761.5999755859375</ele>
        <time>2026-08-21T19:16:54.000Z</time>
        <extensions>
          <ns3:TrackPointExtension>
            <ns3:hr>127</ns3:hr>
            <ns3:cad>61</ns3:cad>
          </ns3:TrackPointExtension>
        </extensions>
      </trkpt>
      <trkpt lat="45.34955360926687717437744140625" lon="-70.99459740333259105682373046875">
        <ele>761.5999755859375</ele>
        <time>2026-08-21T19:16:55.000Z</time>
        <extensions>
          <ns3:TrackPointExtension>
            <ns3:hr>127</ns3:hr>
            <ns3:cad>61</ns3:cad>
          </ns3:TrackPointExtension>
        </extensions>
      </trkpt>
      <trkpt lat="45.34955930896103382110595703125" lon="-70.99461324512958526611328125">
        <ele>761.5999755859375</ele>
        <time>2026-08-21T19:16:56.000Z</time>
        <extensions>
          <ns3:TrackPointExtension>
            <ns3:hr>127</ns3:hr>
            <ns3:cad>61</ns3:cad>
          </ns3:TrackPointExtension>
        </extensions>
      </trkpt>
      <trkpt lat="45.349562577903270721435546875" lon="-70.9946286678314208984375">
        <ele>761.5999755859375</ele>
        <time>2026-08-21T19:16:57.000Z</time>
        <extensions>
          <ns3:TrackPointExtension>
            <ns3:hr>126</ns3:hr>
            <ns3:cad>0</ns3:cad>
          </ns3:TrackPointExtension>
        </extensions>
      </trkpt>
      <trkpt lat="45.349563919007778167724609375" lon="-70.9946466051042079925537109375">
        <ele>761.5999755859375</ele>
        <time>2026-08-21T19:16:58.000Z</time>
        <extensions>
          <ns3:TrackPointExtension>
            <ns3:hr>125</ns3:hr>
            <ns3:cad>0</ns3:cad>
          </ns3:TrackPointExtension>
        </extensions>
      </trkpt>
      <trkpt lat="45.34956484101712703704833984375" lon="-70.99466127343475818634033203125">
        <ele>761.5999755859375</ele>
        <time>2026-08-21T19:16:59.000Z</time>
        <extensions>
          <ns3:TrackPointExtension>
            <ns3:hr>124</ns3:hr>
            <ns3:cad>0</ns3:cad>
          </ns3:TrackPointExtension>
        </extensions>
      </trkpt>
      <trkpt lat="45.34956157207489013671875" lon="-70.99466965533792972564697265625">
        <ele>761.5999755859375</ele>
        <time>2026-08-21T19:17:00.000Z</time>
        <extensions>
          <ns3:TrackPointExtension>
            <ns3:hr>122</ns3:hr>
            <ns3:cad>0</ns3:cad>
          </ns3:TrackPointExtension>
        </extensions>
      </trkpt>
      <trkpt lat="45.34955562092363834381103515625" lon="-70.994684658944606781005859375">
        <ele>761.79998779296875</ele>
        <time>2026-08-21T19:17:01.000Z</time>
        <extensions>
          <ns3:TrackPointExtension>
            <ns3:hr>122</ns3:hr>
            <ns3:cad>55</ns3:cad>
          </ns3:TrackPointExtension>
        </extensions>
      </trkpt>
      <trkpt lat="45.3495506756007671356201171875" lon="-70.994695723056793212890625">
        <ele>762.20001220703125</ele>
        <time>2026-08-21T19:17:02.000Z</time>
        <extensions>
          <ns3:TrackPointExtension>
            <ns3:hr>123</ns3:hr>
            <ns3:cad>55</ns3:cad>
          </ns3:TrackPointExtension>
        </extensions>
      </trkpt>
      <trkpt lat="45.34954975359141826629638671875" lon="-70.99470603279769420623779296875">
        <ele>762.4000244140625</ele>
        <time>2026-08-21T19:17:03.000Z</time>
        <extensions>
          <ns3:TrackPointExtension>
            <ns3:hr>122</ns3:hr>
            <ns3:cad>47</ns3:cad>
          </ns3:TrackPointExtension>
        </extensions>
      </trkpt>
      <trkpt lat="45.3495466522872447967529296875" lon="-70.99472698755562305450439453125">
        <ele>762.5999755859375</ele>
        <time>2026-08-21T19:17:04.000Z</time>
        <extensions>
          <ns3:TrackPointExtension>
            <ns3:hr>122</ns3:hr>
            <ns3:cad>0</ns3:cad>
          </ns3:TrackPointExtension>
        </extensions>
      </trkpt>
      <trkpt lat="45.349544472992420196533203125" lon="-70.99474660120904445648193359375">
        <ele>762.79998779296875</ele>
        <time>2026-08-21T19:17:05.000Z</time>
        <extensions>
          <ns3:TrackPointExtension>
            <ns3:hr>122</ns3:hr>
            <ns3:cad>0</ns3:cad>
          </ns3:TrackPointExtension>
        </extensions>
      </trkpt>
      <trkpt lat="45.34954355098307132720947265625" lon="-70.99475280381739139556884765625">
        <ele>763</ele>
        <time>2026-08-21T19:17:06.000Z</time>
        <extensions>
          <ns3:TrackPointExtension>
            <ns3:hr>122</ns3:hr>
            <ns3:cad>0</ns3:cad>
          </ns3:TrackPointExtension>
        </extensions>
      </trkpt>
      <trkpt lat="45.3495469875633716583251953125" lon="-70.99476889707148075103759765625">
        <ele>763.20001220703125</ele>
        <time>2026-08-21T19:17:07.000Z</time>
        <extensions>
          <ns3:TrackPointExtension>
            <ns3:hr>122</ns3:hr>
            <ns3:cad>0</ns3:cad>
          </ns3:TrackPointExtension>
        </extensions>
      </trkpt>
      <trkpt lat="45.34955159761011600494384765625" lon="-70.994785241782665252685546875">
        <ele>763.20001220703125</ele>
        <time>2026-08-21T19:17:08.000Z</time>
        <extensions>
          <ns3:TrackPointExtension>
            <ns3:hr>122</ns3:hr>
            <ns3:cad>0</ns3:cad>
          </ns3:TrackPointExtension>
        </extensions>
      </trkpt>
      <trkpt lat="45.34955629147589206695556640625" lon="-70.99479940719902515411376953125">
        <ele>763.20001220703125</ele>
        <time>2026-08-21T19:17:09.000Z</time>
        <extensions>
          <ns3:TrackPointExtension>
            <ns3:hr>122</ns3:hr>
            <ns3:cad>0</ns3:cad>
          </ns3:TrackPointExtension>
        </extensions>
      </trkpt>
      <trkpt lat="45.34956224262714385986328125" lon="-70.99481399171054363250732421875">
        <ele>763.20001220703125</ele>
        <time>2026-08-21T19:17:10.000Z</time>
        <extensions>
          <ns3:TrackPointExtension>
            <ns3:hr>121</ns3:hr>
            <ns3:cad>0</ns3:cad>
          </ns3:TrackPointExtension>
        </extensions>
      </trkpt>
      <trkpt lat="45.34957121126353740692138671875" lon="-70.9948310069739818572998046875">
        <ele>763.20001220703125</ele>
        <time>2026-08-21T19:17:11.000Z</time>
        <extensions>
          <ns3:TrackPointExtension>
            <ns3:hr>122</ns3:hr>
            <ns3:cad>0</ns3:cad>
          </ns3:TrackPointExtension>
        </extensions>
      </trkpt>
      <trkpt lat="45.3495763242244720458984375" lon="-70.9948472678661346435546875">
        <ele>763.20001220703125</ele>
        <time>2026-08-21T19:17:12.000Z</time>
        <extensions>
          <ns3:TrackPointExtension>
            <ns3:hr>123</ns3:hr>
            <ns3:cad>0</ns3:cad>
          </ns3:TrackPointExtension>
        </extensions>
      </trkpt>
      <trkpt lat="45.34957959316670894622802734375" lon="-70.99486663006246089935302734375">
        <ele>763.20001220703125</ele>
        <time>2026-08-21T19:17:13.000Z</time>
        <extensions>
          <ns3:TrackPointExtension>
            <ns3:hr>124</ns3:hr>
            <ns3:cad>41</ns3:cad>
          </ns3:TrackPointExtension>
        </extensions>
      </trkpt>
      <trkpt lat="45.34957942552864551544189453125" lon="-70.99488305859267711639404296875">
        <ele>763.20001220703125</ele>
        <time>2026-08-21T19:17:14.000Z</time>
        <extensions>
          <ns3:TrackPointExtension>
            <ns3:hr>124</ns3:hr>
            <ns3:cad>41</ns3:cad>
          </ns3:TrackPointExtension>
        </extensions>
      </trkpt>
      <trkpt lat="45.34957992844283580780029296875" lon="-70.994907282292842864990234375">
        <ele>763.20001220703125</ele>
        <time>2026-08-21T19:17:15.000Z</time>
        <extensions>
          <ns3:TrackPointExtension>
            <ns3:hr>124</ns3:hr>
            <ns3:cad>41</ns3:cad>
          </ns3:TrackPointExtension>
        </extensions>
      </trkpt>
      <trkpt lat="45.3495845384895801544189453125" lon="-70.99492480047047138214111328125">
        <ele>763.4000244140625</ele>
        <time>2026-08-21T19:17:16.000Z</time>
        <extensions>
          <ns3:TrackPointExtension>
            <ns3:hr>124</ns3:hr>
            <ns3:cad>41</ns3:cad>
          </ns3:TrackPointExtension>
        </extensions>
      </trkpt>
      <trkpt lat="45.3495875559747219085693359375" lon="-70.9949411451816558837890625">
        <ele>763.5999755859375</ele>
        <time>2026-08-21T19:17:17.000Z</time>
        <extensions>
          <ns3:TrackPointExtension>
            <ns3:hr>124</ns3:hr>
            <ns3:cad>41</ns3:cad>
          </ns3:TrackPointExtension>
        </extensions>
      </trkpt>
      <trkpt lat="45.3495949320495128631591796875" lon="-70.99496461451053619384765625">
        <ele>763.79998779296875</ele>
        <time>2026-08-21T19:17:18.000Z</time>
        <extensions>
          <ns3:TrackPointExtension>
            <ns3:hr>123</ns3:hr>
            <ns3:cad>41</ns3:cad>
          </ns3:TrackPointExtension>
        </extensions>
      </trkpt>
      <trkpt lat="45.3496009670197963714599609375" lon="-70.994977690279483795166015625">
        <ele>763.79998779296875</ele>
        <time>2026-08-21T19:17:19.000Z</time>
        <extensions>
          <ns3:TrackPointExtension>
            <ns3:hr>124</ns3:hr>
            <ns3:cad>41</ns3:cad>
          </ns3:TrackPointExtension>
        </extensions>
      </trkpt>
      <trkpt lat="45.349608175456523895263671875" lon="-70.99499437026679515838623046875">
        <ele>763.79998779296875</ele>
        <time>2026-08-21T19:17:20.000Z</time>
        <extensions>
          <ns3:TrackPointExtension>
            <ns3:hr>124</ns3:hr>
            <ns3:cad>41</ns3:cad>
          </ns3:TrackPointExtension>
        </extensions>
      </trkpt>
      <trkpt lat="45.3496210835874080657958984375" lon="-70.995006524026393890380859375">
        <ele>763.79998779296875</ele>
        <time>2026-08-21T19:17:21.000Z</time>
        <extensions>
          <ns3:TrackPointExtension>
            <ns3:hr>124</ns3:hr>
            <ns3:cad>41</ns3:cad>
          </ns3:TrackPointExtension>
        </extensions>
      </trkpt>
      <trkpt lat="45.3496321476995944976806640625" lon="-70.9950147382915019989013671875">
        <ele>763.5999755859375</ele>
        <time>2026-08-21T19:17:22.000Z</time>
        <extensions>
          <ns3:TrackPointExtension>
            <ns3:hr>124</ns3:hr>
            <ns3:cad>41</ns3:cad>
          </ns3:TrackPointExtension>
        </extensions>
      </trkpt>
      <trkpt lat="45.34964346326887607574462890625" lon="-70.995023287832736968994140625">
        <ele>763.5999755859375</ele>
        <time>2026-08-21T19:17:23.000Z</time>
        <extensions>
          <ns3:TrackPointExtension>
            <ns3:hr>123</ns3:hr>
            <ns3:cad>41</ns3:cad>
          </ns3:TrackPointExtension>
        </extensions>
      </trkpt>
      <trkpt lat="45.34965075552463531494140625" lon="-70.99502789787948131561279296875">
        <ele>763.4000244140625</ele>
        <time>2026-08-21T19:17:24.000Z</time>
        <extensions>
          <ns3:TrackPointExtension>
            <ns3:hr>123</ns3:hr>
            <ns3:cad>41</ns3:cad>
          </ns3:TrackPointExtension>
        </extensions>
      </trkpt>
      <trkpt lat="45.34965871833264827728271484375" lon="-70.99504114128649234771728515625">
        <ele>763.4000244140625</ele>
        <time>2026-08-21T19:17:25.000Z</time>
        <extensions>
          <ns3:TrackPointExtension>
            <ns3:hr>122</ns3:hr>
            <ns3:cad>41</ns3:cad>
          </ns3:TrackPointExtension>
        </extensions>
      </trkpt>
      <trkpt lat="45.3496646694839000701904296875" lon="-70.99505723454058170318603515625">
        <ele>763.20001220703125</ele>
        <time>2026-08-21T19:17:26.000Z</time>
        <extensions>
          <ns3:TrackPointExtension>
            <ns3:hr>122</ns3:hr>
            <ns3:cad>41</ns3:cad>
          </ns3:TrackPointExtension>
        </extensions>
      </trkpt>
      <trkpt lat="45.34966860897839069366455078125" lon="-70.99506645463407039642333984375">
        <ele>763.4000244140625</ele>
        <time>2026-08-21T19:17:27.000Z</time>
        <extensions>
          <ns3:TrackPointExtension>
            <ns3:hr>122</ns3:hr>
            <ns3:cad>41</ns3:cad>
          </ns3:TrackPointExtension>
        </extensions>
      </trkpt>
      <trkpt lat="45.349674224853515625" lon="-70.99507299251854419708251953125">
        <ele>763.4000244140625</ele>
        <time>2026-08-21T19:17:28.000Z</time>
        <extensions>
          <ns3:TrackPointExtension>
            <ns3:hr>122</ns3:hr>
            <ns3:cad>0</ns3:cad>
          </ns3:TrackPointExtension>
        </extensions>
      </trkpt>
      <trkpt lat="45.34967958927154541015625" lon="-70.995080284774303436279296875">
        <ele>763.4000244140625</ele>
        <time>2026-08-21T19:17:29.000Z</time>
        <extensions>
          <ns3:TrackPointExtension>
            <ns3:hr>122</ns3:hr>
            <ns3:cad>0</ns3:cad>
          </ns3:TrackPointExtension>
        </extensions>
      </trkpt>
      <trkpt lat="45.34968771971762180328369140625" lon="-70.99509595893323421478271484375">
        <ele>763.5999755859375</ele>
        <time>2026-08-21T19:17:30.000Z</time>
        <extensions>
          <ns3:TrackPointExtension>
            <ns3:hr>122</ns3:hr>
            <ns3:cad>47</ns3:cad>
          </ns3:TrackPointExtension>
        </extensions>
      </trkpt>
      <trkpt lat="45.34969727508723735809326171875" lon="-70.9951128065586090087890625">
        <ele>763.5999755859375</ele>
        <time>2026-08-21T19:17:31.000Z</time>
        <extensions>
          <ns3:TrackPointExtension>
            <ns3:hr>122</ns3:hr>
            <ns3:cad>47</ns3:cad>
          </ns3:TrackPointExtension>
        </extensions>
      </trkpt>
      <trkpt lat="45.3497059084475040435791015625" lon="-70.99512881599366664886474609375">
        <ele>763.5999755859375</ele>
        <time>2026-08-21T19:17:32.000Z</time>
        <extensions>
          <ns3:TrackPointExtension>
            <ns3:hr>122</ns3:hr>
            <ns3:cad>47</ns3:cad>
          </ns3:TrackPointExtension>
        </extensions>
      </trkpt>
      <trkpt lat="45.349716804921627044677734375" lon="-70.99514205940067768096923828125">
        <ele>763.5999755859375</ele>
        <time>2026-08-21T19:17:33.000Z</time>
        <extensions>
          <ns3:TrackPointExtension>
            <ns3:hr>121</ns3:hr>
            <ns3:cad>47</ns3:cad>
          </ns3:TrackPointExtension>
        </extensions>
      </trkpt>
      <trkpt lat="45.349726192653179168701171875" lon="-70.99515178240835666656494140625">
        <ele>763.4000244140625</ele>
        <time>2026-08-21T19:17:34.000Z</time>
        <extensions>
          <ns3:TrackPointExtension>
            <ns3:hr>122</ns3:hr>
            <ns3:cad>47</ns3:cad>
          </ns3:TrackPointExtension>
        </extensions>
      </trkpt>
      <trkpt lat="45.34973583184182643890380859375" lon="-70.99516636691987514495849609375">
        <ele>763.4000244140625</ele>
        <time>2026-08-21T19:17:35.000Z</time>
        <extensions>
          <ns3:TrackPointExtension>
            <ns3:hr>121</ns3:hr>
            <ns3:cad>0</ns3:cad>
          </ns3:TrackPointExtension>
        </extensions>
      </trkpt>
      <trkpt lat="45.3497498296201229095458984375" lon="-70.9951766766607761383056640625">
        <ele>763.4000244140625</ele>
        <time>2026-08-21T19:17:36.000Z</time>
        <extensions>
          <ns3:TrackPointExtension>
            <ns3:hr>121</ns3:hr>
            <ns3:cad>0</ns3:cad>
          </ns3:TrackPointExtension>
        </extensions>
      </trkpt>
      <trkpt lat="45.3497613966464996337890625" lon="-70.99518992006778717041015625">
        <ele>763.4000244140625</ele>
        <time>2026-08-21T19:17:37.000Z</time>
        <extensions>
          <ns3:TrackPointExtension>
            <ns3:hr>120</ns3:hr>
            <ns3:cad>0</ns3:cad>
          </ns3:TrackPointExtension>
        </extensions>
      </trkpt>
      <trkpt lat="45.34977237693965435028076171875" lon="-70.9952001459896564483642578125">
        <ele>763.20001220703125</ele>
        <time>2026-08-21T19:17:38.000Z</time>
        <extensions>
          <ns3:TrackPointExtension>
            <ns3:hr>120</ns3:hr>
            <ns3:cad>0</ns3:cad>
          </ns3:TrackPointExtension>
        </extensions>
      </trkpt>
      <trkpt lat="45.34978226758539676666259765625" lon="-70.99520894698798656463623046875">
        <ele>763</ele>
        <time>2026-08-21T19:17:39.000Z</time>
        <extensions>
          <ns3:TrackPointExtension>
            <ns3:hr>120</ns3:hr>
            <ns3:cad>0</ns3:cad>
          </ns3:TrackPointExtension>
        </extensions>
      </trkpt>
      <trkpt lat="45.34978914074599742889404296875" lon="-70.9952152334153652191162109375">
        <ele>763</ele>
        <time>2026-08-21T19:17:40.000Z</time>
        <extensions>
          <ns3:TrackPointExtension>
            <ns3:hr>120</ns3:hr>
            <ns3:cad>0</ns3:cad>
          </ns3:TrackPointExtension>
        </extensions>
      </trkpt>
      <trkpt lat="45.3497950918972492218017578125" lon="-70.99522571079432964324951171875">
        <ele>763</ele>
        <time>2026-08-21T19:17:41.000Z</time>
        <extensions>
          <ns3:TrackPointExtension>
            <ns3:hr>119</ns3:hr>
            <ns3:cad>0</ns3:cad>
          </ns3:TrackPointExtension>
        </extensions>
      </trkpt>
      <trkpt lat="45.34980632364749908447265625" lon="-70.995233170688152313232421875">
        <ele>763</ele>
        <time>2026-08-21T19:17:42.000Z</time>
        <extensions>
          <ns3:TrackPointExtension>
            <ns3:hr>120</ns3:hr>
            <ns3:cad>0</ns3:cad>
          </ns3:TrackPointExtension>
        </extensions>
      </trkpt>
      <trkpt lat="45.34981428645551204681396484375" lon="-70.995233170688152313232421875">
        <ele>762.79998779296875</ele>
        <time>2026-08-21T19:17:43.000Z</time>
        <extensions>
          <ns3:TrackPointExtension>
            <ns3:hr>119</ns3:hr>
            <ns3:cad>0</ns3:cad>
          </ns3:TrackPointExtension>
        </extensions>
      </trkpt>
      <trkpt lat="45.34982484765350818634033203125" lon="-70.9952442348003387451171875">
        <ele>762.79998779296875</ele>
        <time>2026-08-21T19:17:44.000Z</time>
        <extensions>
          <ns3:TrackPointExtension>
            <ns3:hr>119</ns3:hr>
            <ns3:cad>0</ns3:cad>
          </ns3:TrackPointExtension>
        </extensions>
      </trkpt>
      <trkpt lat="45.349832139909267425537109375" lon="-70.995253622531890869140625">
        <ele>762.5999755859375</ele>
        <time>2026-08-21T19:17:45.000Z</time>
        <extensions>
          <ns3:TrackPointExtension>
            <ns3:hr>118</ns3:hr>
            <ns3:cad>0</ns3:cad>
          </ns3:TrackPointExtension>
        </extensions>
      </trkpt>
      <trkpt lat="45.3498406894505023956298828125" lon="-70.99526242353022098541259765625">
        <ele>762.4000244140625</ele>
        <time>2026-08-21T19:17:46.000Z</time>
        <extensions>
          <ns3:TrackPointExtension>
            <ns3:hr>117</ns3:hr>
            <ns3:cad>0</ns3:cad>
          </ns3:TrackPointExtension>
        </extensions>
      </trkpt>
      <trkpt lat="45.34985192120075225830078125" lon="-70.9952712245285511016845703125">
        <ele>762.4000244140625</ele>
        <time>2026-08-21T19:17:47.000Z</time>
        <extensions>
          <ns3:TrackPointExtension>
            <ns3:hr>117</ns3:hr>
            <ns3:cad>43</ns3:cad>
          </ns3:TrackPointExtension>
        </extensions>
      </trkpt>
      <trkpt lat="45.3498621471226215362548828125" lon="-70.99528052844107151031494140625">
        <ele>762.20001220703125</ele>
        <time>2026-08-21T19:17:48.000Z</time>
        <extensions>
          <ns3:TrackPointExtension>
            <ns3:hr>117</ns3:hr>
            <ns3:cad>0</ns3:cad>
          </ns3:TrackPointExtension>
        </extensions>
      </trkpt>
      <trkpt lat="45.349870026111602783203125" lon="-70.995294861495494842529296875">
        <ele>762.20001220703125</ele>
        <time>2026-08-21T19:17:49.000Z</time>
        <extensions>
          <ns3:TrackPointExtension>
            <ns3:hr>118</ns3:hr>
            <ns3:cad>0</ns3:cad>
          </ns3:TrackPointExtension>
        </extensions>
      </trkpt>
      <trkpt lat="45.34987698309123516082763671875" lon="-70.99530500359833240509033203125">
        <ele>762.20001220703125</ele>
        <time>2026-08-21T19:17:50.000Z</time>
        <extensions>
          <ns3:TrackPointExtension>
            <ns3:hr>118</ns3:hr>
            <ns3:cad>0</ns3:cad>
          </ns3:TrackPointExtension>
        </extensions>
      </trkpt>
      <trkpt lat="45.3498822636902332305908203125" lon="-70.995317660272121429443359375">
        <ele>762.20001220703125</ele>
        <time>2026-08-21T19:17:51.000Z</time>
        <extensions>
          <ns3:TrackPointExtension>
            <ns3:hr>118</ns3:hr>
            <ns3:cad>0</ns3:cad>
          </ns3:TrackPointExtension>
        </extensions>
      </trkpt>
      <trkpt lat="45.3498946689069271087646484375" lon="-70.9953332506120204925537109375">
        <ele>762.4000244140625</ele>
        <time>2026-08-21T19:17:52.000Z</time>
        <extensions>
          <ns3:TrackPointExtension>
            <ns3:hr>118</ns3:hr>
            <ns3:cad>0</ns3:cad>
          </ns3:TrackPointExtension>
        </extensions>
      </trkpt>
      <trkpt lat="45.34990481100976467132568359375" lon="-70.9953473322093486785888671875">
        <ele>762.5999755859375</ele>
        <time>2026-08-21T19:17:53.000Z</time>
        <extensions>
          <ns3:TrackPointExtension>
            <ns3:hr>118</ns3:hr>
            <ns3:cad>61</ns3:cad>
          </ns3:TrackPointExtension>
        </extensions>
      </trkpt>
      <trkpt lat="45.3499137796461582183837890625" lon="-70.99535889923572540283203125">
        <ele>762.79998779296875</ele>
        <time>2026-08-21T19:17:54.000Z</time>
        <extensions>
          <ns3:TrackPointExtension>
            <ns3:hr>118</ns3:hr>
            <ns3:cad>61</ns3:cad>
          </ns3:TrackPointExtension>
        </extensions>
      </trkpt>
      <trkpt lat="45.3499241732060909271240234375" lon="-70.99537541158497333526611328125">
        <ele>762.79998779296875</ele>
        <time>2026-08-21T19:17:55.000Z</time>
        <extensions>
          <ns3:TrackPointExtension>
            <ns3:hr>118</ns3:hr>
            <ns3:cad>61</ns3:cad>
          </ns3:TrackPointExtension>
        </extensions>
      </trkpt>
      <trkpt lat="45.3499305434525012969970703125" lon="-70.99538882263004779815673828125">
        <ele>763</ele>
        <time>2026-08-21T19:17:56.000Z</time>
        <extensions>
          <ns3:TrackPointExtension>
            <ns3:hr>118</ns3:hr>
            <ns3:cad>61</ns3:cad>
          </ns3:TrackPointExtension>
        </extensions>
      </trkpt>
      <trkpt lat="45.34993682987987995147705078125" lon="-70.99540541879832744598388671875">
        <ele>763</ele>
        <time>2026-08-21T19:17:57.000Z</time>
        <extensions>
          <ns3:TrackPointExtension>
            <ns3:hr>117</ns3:hr>
            <ns3:cad>71</ns3:cad>
          </ns3:TrackPointExtension>
        </extensions>
      </trkpt>
      <trkpt lat="45.34994387067854404449462890625" lon="-70.995416231453418731689453125">
        <ele>763.20001220703125</ele>
        <time>2026-08-21T19:17:58.000Z</time>
        <extensions>
          <ns3:TrackPointExtension>
            <ns3:hr>117</ns3:hr>
            <ns3:cad>71</ns3:cad>
          </ns3:TrackPointExtension>
        </extensions>
      </trkpt>
      <trkpt lat="45.34995250403881072998046875" lon="-70.99542989395558834075927734375">
        <ele>763.4000244140625</ele>
        <time>2026-08-21T19:17:59.000Z</time>
        <extensions>
          <ns3:TrackPointExtension>
            <ns3:hr>117</ns3:hr>
            <ns3:cad>71</ns3:cad>
          </ns3:TrackPointExtension>
        </extensions>
      </trkpt>
      <trkpt lat="45.3499583713710308074951171875" lon="-70.99544950760900974273681640625">
        <ele>763.4000244140625</ele>
        <time>2026-08-21T19:18:00.000Z</time>
        <extensions>
          <ns3:TrackPointExtension>
            <ns3:hr>117</ns3:hr>
            <ns3:cad>71</ns3:cad>
          </ns3:TrackPointExtension>
        </extensions>
      </trkpt>
      <trkpt lat="45.349965579807758331298828125" lon="-70.99546995945274829864501953125">
        <ele>763.5999755859375</ele>
        <time>2026-08-21T19:18:01.000Z</time>
        <extensions>
          <ns3:TrackPointExtension>
            <ns3:hr>118</ns3:hr>
            <ns3:cad>71</ns3:cad>
          </ns3:TrackPointExtension>
        </extensions>
      </trkpt>
      <trkpt lat="45.3499714471399784088134765625" lon="-70.99548655562102794647216796875">
        <ele>763.5999755859375</ele>
        <time>2026-08-21T19:18:02.000Z</time>
        <extensions>
          <ns3:TrackPointExtension>
            <ns3:hr>118</ns3:hr>
            <ns3:cad>0</ns3:cad>
          </ns3:TrackPointExtension>
        </extensions>
      </trkpt>
      <trkpt lat="45.34997932612895965576171875" lon="-70.9955022297799587249755859375">
        <ele>763.79998779296875</ele>
        <time>2026-08-21T19:18:03.000Z</time>
        <extensions>
          <ns3:TrackPointExtension>
            <ns3:hr>118</ns3:hr>
            <ns3:cad>0</ns3:cad>
          </ns3:TrackPointExtension>
        </extensions>
      </trkpt>
      <trkpt lat="45.349990390241146087646484375" lon="-70.99551622755825519561767578125">
        <ele>763.79998779296875</ele>
        <time>2026-08-21T19:18:04.000Z</time>
        <extensions>
          <ns3:TrackPointExtension>
            <ns3:hr>119</ns3:hr>
            <ns3:cad>0</ns3:cad>
          </ns3:TrackPointExtension>
        </extensions>
      </trkpt>
      <trkpt lat="45.35000556148588657379150390625" lon="-70.99552276544272899627685546875">
        <ele>763.79998779296875</ele>
        <time>2026-08-21T19:18:05.000Z</time>
        <extensions>
          <ns3:TrackPointExtension>
            <ns3:hr>120</ns3:hr>
            <ns3:cad>0</ns3:cad>
          </ns3:TrackPointExtension>
        </extensions>
      </trkpt>
      <trkpt lat="45.35001528449356555938720703125" lon="-70.99553592503070831298828125">
        <ele>763.79998779296875</ele>
        <time>2026-08-21T19:18:06.000Z</time>
        <extensions>
          <ns3:TrackPointExtension>
            <ns3:hr>120</ns3:hr>
            <ns3:cad>0</ns3:cad>
          </ns3:TrackPointExtension>
        </extensions>
      </trkpt>
      <trkpt lat="45.35002215765416622161865234375" lon="-70.99554573185741901397705078125">
        <ele>763.79998779296875</ele>
        <time>2026-08-21T19:18:07.000Z</time>
        <extensions>
          <ns3:TrackPointExtension>
            <ns3:hr>120</ns3:hr>
            <ns3:cad>0</ns3:cad>
          </ns3:TrackPointExtension>
        </extensions>
      </trkpt>
      <trkpt lat="45.3500395081937313079833984375" lon="-70.995559729635715484619140625">
        <ele>763.79998779296875</ele>
        <time>2026-08-21T19:18:08.000Z</time>
        <extensions>
          <ns3:TrackPointExtension>
            <ns3:hr>120</ns3:hr>
            <ns3:cad>0</ns3:cad>
          </ns3:TrackPointExtension>
        </extensions>
      </trkpt>
      <trkpt lat="45.35005132667720317840576171875" lon="-70.995570123195648193359375">
        <ele>763.79998779296875</ele>
        <time>2026-08-21T19:18:09.000Z</time>
        <extensions>
          <ns3:TrackPointExtension>
            <ns3:hr>120</ns3:hr>
            <ns3:cad>0</ns3:cad>
          </ns3:TrackPointExtension>
        </extensions>
      </trkpt>
      <trkpt lat="45.3500579483807086944580078125" lon="-70.9955759905278682708740234375">
        <ele>763.5999755859375</ele>
        <time>2026-08-21T19:18:10.000Z</time>
        <extensions>
          <ns3:TrackPointExtension>
            <ns3:hr>119</ns3:hr>
            <ns3:cad>0</ns3:cad>
          </ns3:TrackPointExtension>
        </extensions>
      </trkpt>
      <trkpt lat="45.35006741993129253387451171875" lon="-70.99558713845908641815185546875">
        <ele>763.4000244140625</ele>
        <time>2026-08-21T19:18:11.000Z</time>
        <extensions>
          <ns3:TrackPointExtension>
            <ns3:hr>120</ns3:hr>
            <ns3:cad>0</ns3:cad>
          </ns3:TrackPointExtension>
        </extensions>
      </trkpt>
      <trkpt lat="45.35007228143513202667236328125" lon="-70.995599292218685150146484375">
        <ele>763.4000244140625</ele>
        <time>2026-08-21T19:18:12.000Z</time>
        <extensions>
          <ns3:TrackPointExtension>
            <ns3:hr>120</ns3:hr>
            <ns3:cad>0</ns3:cad>
          </ns3:TrackPointExtension>
        </extensions>
      </trkpt>
      <trkpt lat="45.35007655620574951171875" lon="-70.99561664275825023651123046875">
        <ele>763.20001220703125</ele>
        <time>2026-08-21T19:18:13.000Z</time>
        <extensions>
          <ns3:TrackPointExtension>
            <ns3:hr>120</ns3:hr>
            <ns3:cad>0</ns3:cad>
          </ns3:TrackPointExtension>
        </extensions>
      </trkpt>
      <trkpt lat="45.35008099861443042755126953125" lon="-70.995630808174610137939453125">
        <ele>763</ele>
        <time>2026-08-21T19:18:14.000Z</time>
        <extensions>
          <ns3:TrackPointExtension>
            <ns3:hr>120</ns3:hr>
            <ns3:cad>0</ns3:cad>
          </ns3:TrackPointExtension>
        </extensions>
      </trkpt>
      <trkpt lat="45.35008502192795276641845703125" lon="-70.9956420399248600006103515625">
        <ele>762.79998779296875</ele>
        <time>2026-08-21T19:18:15.000Z</time>
        <extensions>
          <ns3:TrackPointExtension>
            <ns3:hr>120</ns3:hr>
            <ns3:cad>0</ns3:cad>
          </ns3:TrackPointExtension>
        </extensions>
      </trkpt>
      <trkpt lat="45.35008929669857025146484375" lon="-70.995653606951236724853515625">
        <ele>762.79998779296875</ele>
        <time>2026-08-21T19:18:16.000Z</time>
        <extensions>
          <ns3:TrackPointExtension>
            <ns3:hr>120</ns3:hr>
            <ns3:cad>0</ns3:cad>
          </ns3:TrackPointExtension>
        </extensions>
      </trkpt>
      <trkpt lat="45.3500948287546634674072265625" lon="-70.995666347444057464599609375">
        <ele>762.5999755859375</ele>
        <time>2026-08-21T19:18:17.000Z</time>
        <extensions>
          <ns3:TrackPointExtension>
            <ns3:hr>119</ns3:hr>
            <ns3:cad>0</ns3:cad>
          </ns3:TrackPointExtension>
        </extensions>
      </trkpt>
      <trkpt lat="45.35010002553462982177734375" lon="-70.99568403325974941253662109375">
        <ele>762.4000244140625</ele>
        <time>2026-08-21T19:18:18.000Z</time>
        <extensions>
          <ns3:TrackPointExtension>
            <ns3:hr>119</ns3:hr>
            <ns3:cad>0</ns3:cad>
          </ns3:TrackPointExtension>
        </extensions>
      </trkpt>
      <trkpt lat="45.3501065634191036224365234375" lon="-70.9956930018961429595947265625">
        <ele>762.20001220703125</ele>
        <time>2026-08-21T19:18:19.000Z</time>
        <extensions>
          <ns3:TrackPointExtension>
            <ns3:hr>118</ns3:hr>
            <ns3:cad>0</ns3:cad>
          </ns3:TrackPointExtension>
        </extensions>
      </trkpt>
      <trkpt lat="45.3501119278371334075927734375" lon="-70.99571303464472293853759765625">
        <ele>762.20001220703125</ele>
        <time>2026-08-21T19:18:20.000Z</time>
        <extensions>
          <ns3:TrackPointExtension>
            <ns3:hr>117</ns3:hr>
            <ns3:cad>0</ns3:cad>
          </ns3:TrackPointExtension>
        </extensions>
      </trkpt>
      <trkpt lat="45.35011343657970428466796875" lon="-70.9957235120236873626708984375">
        <ele>762.20001220703125</ele>
        <time>2026-08-21T19:18:21.000Z</time>
        <extensions>
          <ns3:TrackPointExtension>
            <ns3:hr>117</ns3:hr>
            <ns3:cad>0</ns3:cad>
          </ns3:TrackPointExtension>
        </extensions>
      </trkpt>
      <trkpt lat="45.35010681487619876861572265625" lon="-70.995729379355907440185546875">
        <ele>762.4000244140625</ele>
        <time>2026-08-21T19:18:22.000Z</time>
        <extensions>
          <ns3:TrackPointExtension>
            <ns3:hr>117</ns3:hr>
            <ns3:cad>0</ns3:cad>
          </ns3:TrackPointExtension>
        </extensions>
      </trkpt>
      <trkpt lat="45.350103043019771575927734375" lon="-70.99573415704071521759033203125">
        <ele>762.5999755859375</ele>
        <time>2026-08-21T19:18:23.000Z</time>
        <extensions>
          <ns3:TrackPointExtension>
            <ns3:hr>117</ns3:hr>
            <ns3:cad>0</ns3:cad>
          </ns3:TrackPointExtension>
        </extensions>
      </trkpt>
      <trkpt lat="45.35010346211493015289306640625" lon="-70.9957439638674259185791015625">
        <ele>762.79998779296875</ele>
        <time>2026-08-21T19:18:24.000Z</time>
        <extensions>
          <ns3:TrackPointExtension>
            <ns3:hr>117</ns3:hr>
            <ns3:cad>0</ns3:cad>
          </ns3:TrackPointExtension>
        </extensions>
      </trkpt>
      <trkpt lat="45.3501074016094207763671875" lon="-70.9957540221512317657470703125">
        <ele>763.20001220703125</ele>
        <time>2026-08-21T19:18:25.000Z</time>
        <extensions>
          <ns3:TrackPointExtension>
            <ns3:hr>115</ns3:hr>
            <ns3:cad>0</ns3:cad>
          </ns3:TrackPointExtension>
        </extensions>
      </trkpt>
      <trkpt lat="45.350109077990055084228515625" lon="-70.99576718173921108245849609375">
        <ele>763.4000244140625</ele>
        <time>2026-08-21T19:18:26.000Z</time>
        <extensions>
          <ns3:TrackPointExtension>
            <ns3:hr>114</ns3:hr>
            <ns3:cad>0</ns3:cad>
          </ns3:TrackPointExtension>
        </extensions>
      </trkpt>
      <trkpt lat="45.350115112960338592529296875" lon="-70.9957801736891269683837890625">
        <ele>763.5999755859375</ele>
        <time>2026-08-21T19:18:27.000Z</time>
        <extensions>
          <ns3:TrackPointExtension>
            <ns3:hr>112</ns3:hr>
            <ns3:cad>0</ns3:cad>
          </ns3:TrackPointExtension>
        </extensions>
      </trkpt>
      <trkpt lat="45.35012357868254184722900390625" lon="-70.9957935847342014312744140625">
        <ele>763.79998779296875</ele>
        <time>2026-08-21T19:18:28.000Z</time>
        <extensions>
          <ns3:TrackPointExtension>
            <ns3:hr>111</ns3:hr>
            <ns3:cad>0</ns3:cad>
          </ns3:TrackPointExtension>
        </extensions>
      </trkpt>
      <trkpt lat="45.350127518177032470703125" lon="-70.9958100132644176483154296875">
        <ele>764</ele>
        <time>2026-08-21T19:18:29.000Z</time>
        <extensions>
          <ns3:TrackPointExtension>
            <ns3:hr>114</ns3:hr>
            <ns3:cad>45</ns3:cad>
          </ns3:TrackPointExtension>
        </extensions>
      </trkpt>
      <trkpt lat="45.35013296641409397125244140625" lon="-70.99582954309880733489990234375">
        <ele>764</ele>
        <time>2026-08-21T19:18:30.000Z</time>
        <extensions>
          <ns3:TrackPointExtension>
            <ns3:hr>117</ns3:hr>
            <ns3:cad>45</ns3:cad>
          </ns3:TrackPointExtension>
        </extensions>
      </trkpt>
      <trkpt lat="45.3501355648040771484375" lon="-70.9958549402654170989990234375">
        <ele>764</ele>
        <time>2026-08-21T19:18:31.000Z</time>
        <extensions>
          <ns3:TrackPointExtension>
            <ns3:hr>119</ns3:hr>
            <ns3:cad>45</ns3:cad>
          </ns3:TrackPointExtension>
        </extensions>
      </trkpt>
      <trkpt lat="45.35013782791793346405029296875" lon="-70.99586307071149349212646484375">
        <ele>764.20001220703125</ele>
        <time>2026-08-21T19:18:32.000Z</time>
        <extensions>
          <ns3:TrackPointExtension>
            <ns3:hr>123</ns3:hr>
            <ns3:cad>45</ns3:cad>
          </ns3:TrackPointExtension>
        </extensions>
      </trkpt>
      <trkpt lat="45.35014084540307521820068359375" lon="-70.99587547592818737030029296875">
        <ele>764.4000244140625</ele>
        <time>2026-08-21T19:18:33.000Z</time>
        <extensions>
          <ns3:TrackPointExtension>
            <ns3:hr>123</ns3:hr>
            <ns3:cad>45</ns3:cad>
          </ns3:TrackPointExtension>
        </extensions>
      </trkpt>
      <trkpt lat="45.350141935050487518310546875" lon="-70.9958864562213420867919921875">
        <ele>764.4000244140625</ele>
        <time>2026-08-21T19:18:34.000Z</time>
        <extensions>
          <ns3:TrackPointExtension>
            <ns3:hr>124</ns3:hr>
            <ns3:cad>0</ns3:cad>
          </ns3:TrackPointExtension>
        </extensions>
      </trkpt>
      <trkpt lat="45.3501449525356292724609375" lon="-70.99589534103870391845703125">
        <ele>764.5999755859375</ele>
        <time>2026-08-21T19:18:35.000Z</time>
        <extensions>
          <ns3:TrackPointExtension>
            <ns3:hr>123</ns3:hr>
            <ns3:cad>0</ns3:cad>
          </ns3:TrackPointExtension>
        </extensions>
      </trkpt>
      <trkpt lat="45.35014671273529529571533203125" lon="-70.99590338766574859619140625">
        <ele>764.5999755859375</ele>
        <time>2026-08-21T19:18:36.000Z</time>
        <extensions>
          <ns3:TrackPointExtension>
            <ns3:hr>123</ns3:hr>
            <ns3:cad>47</ns3:cad>
          </ns3:TrackPointExtension>
        </extensions>
      </trkpt>
      <trkpt lat="45.350147299468517303466796875" lon="-70.9959089197218418121337890625">
        <ele>764.79998779296875</ele>
        <time>2026-08-21T19:18:37.000Z</time>
        <extensions>
          <ns3:TrackPointExtension>
            <ns3:hr>124</ns3:hr>
            <ns3:cad>47</ns3:cad>
          </ns3:TrackPointExtension>
        </extensions>
      </trkpt>
      <trkpt lat="45.3501476347446441650390625" lon="-70.99591487087309360504150390625">
        <ele>765</ele>
        <time>2026-08-21T19:18:38.000Z</time>
        <extensions>
          <ns3:TrackPointExtension>
            <ns3:hr>124</ns3:hr>
            <ns3:cad>47</ns3:cad>
          </ns3:TrackPointExtension>
        </extensions>
      </trkpt>
      <trkpt lat="45.3501407615840435028076171875" lon="-70.99592082202434539794921875">
        <ele>765.20001220703125</ele>
        <time>2026-08-21T19:18:39.000Z</time>
        <extensions>
          <ns3:TrackPointExtension>
            <ns3:hr>124</ns3:hr>
            <ns3:cad>0</ns3:cad>
          </ns3:TrackPointExtension>
        </extensions>
      </trkpt>
      <trkpt lat="45.35013757646083831787109375" lon="-70.995923839509487152099609375">
        <ele>765.20001220703125</ele>
        <time>2026-08-21T19:18:40.000Z</time>
        <extensions>
          <ns3:TrackPointExtension>
            <ns3:hr>124</ns3:hr>
            <ns3:cad>0</ns3:cad>
          </ns3:TrackPointExtension>
        </extensions>
      </trkpt>
      <trkpt lat="45.350131206214427947998046875" lon="-70.9959333948791027069091796875">
        <ele>765.4000244140625</ele>
        <time>2026-08-21T19:18:41.000Z</time>
        <extensions>
          <ns3:TrackPointExtension>
            <ns3:hr>124</ns3:hr>
            <ns3:cad>0</ns3:cad>
          </ns3:TrackPointExtension>
        </extensions>
      </trkpt>
      <trkpt lat="45.3501270152628421783447265625" lon="-70.995945632457733154296875">
        <ele>765.4000244140625</ele>
        <time>2026-08-21T19:18:42.000Z</time>
        <extensions>
          <ns3:TrackPointExtension>
            <ns3:hr>124</ns3:hr>
            <ns3:cad>0</ns3:cad>
          </ns3:TrackPointExtension>
        </extensions>
      </trkpt>
      <trkpt lat="45.3501243330538272857666015625" lon="-70.995956026017665863037109375">
        <ele>765.5999755859375</ele>
        <time>2026-08-21T19:18:43.000Z</time>
        <extensions>
          <ns3:TrackPointExtension>
            <ns3:hr>123</ns3:hr>
            <ns3:cad>40</ns3:cad>
          </ns3:TrackPointExtension>
        </extensions>
      </trkpt>
      <trkpt lat="45.3501233272254467010498046875" lon="-70.99597136490046977996826171875">
        <ele>765.5999755859375</ele>
        <time>2026-08-21T19:18:44.000Z</time>
        <extensions>
          <ns3:TrackPointExtension>
            <ns3:hr>124</ns3:hr>
            <ns3:cad>0</ns3:cad>
          </ns3:TrackPointExtension>
        </extensions>
      </trkpt>
      <trkpt lat="45.35012240521609783172607421875" lon="-70.99598578177392482757568359375">
        <ele>765.5999755859375</ele>
        <time>2026-08-21T19:18:45.000Z</time>
        <extensions>
          <ns3:TrackPointExtension>
            <ns3:hr>124</ns3:hr>
            <ns3:cad>0</ns3:cad>
          </ns3:TrackPointExtension>
        </extensions>
      </trkpt>
      <trkpt lat="45.3501186333596706390380859375" lon="-70.99599835462868213653564453125">
        <ele>765.79998779296875</ele>
        <time>2026-08-21T19:18:46.000Z</time>
        <extensions>
          <ns3:TrackPointExtension>
            <ns3:hr>124</ns3:hr>
            <ns3:cad>0</ns3:cad>
          </ns3:TrackPointExtension>
        </extensions>
      </trkpt>
      <trkpt lat="45.35011586733162403106689453125" lon="-70.996010340750217437744140625">
        <ele>766</ele>
        <time>2026-08-21T19:18:47.000Z</time>
        <extensions>
          <ns3:TrackPointExtension>
            <ns3:hr>123</ns3:hr>
            <ns3:cad>0</ns3:cad>
          </ns3:TrackPointExtension>
        </extensions>
      </trkpt>
      <trkpt lat="45.35011502914130687713623046875" lon="-70.996022410690784454345703125">
        <ele>766.20001220703125</ele>
        <time>2026-08-21T19:18:48.000Z</time>
        <extensions>
          <ns3:TrackPointExtension>
            <ns3:hr>124</ns3:hr>
            <ns3:cad>0</ns3:cad>
          </ns3:TrackPointExtension>
        </extensions>
      </trkpt>
      <trkpt lat="45.35011586733162403106689453125" lon="-70.9960319660604000091552734375">
        <ele>766.4000244140625</ele>
        <time>2026-08-21T19:18:49.000Z</time>
        <extensions>
          <ns3:TrackPointExtension>
            <ns3:hr>124</ns3:hr>
            <ns3:cad>0</ns3:cad>
          </ns3:TrackPointExtension>
        </extensions>
      </trkpt>
      <trkpt lat="45.35011754371225833892822265625" lon="-70.99604554474353790283203125">
        <ele>766.4000244140625</ele>
        <time>2026-08-21T19:18:50.000Z</time>
        <extensions>
          <ns3:TrackPointExtension>
            <ns3:hr>124</ns3:hr>
            <ns3:cad>0</ns3:cad>
          </ns3:TrackPointExtension>
        </extensions>
      </trkpt>
      <trkpt lat="45.35011880099773406982421875" lon="-70.99605937488377094268798828125">
        <ele>766.5999755859375</ele>
        <time>2026-08-21T19:18:51.000Z</time>
        <extensions>
          <ns3:TrackPointExtension>
            <ns3:hr>124</ns3:hr>
            <ns3:cad>40</ns3:cad>
          </ns3:TrackPointExtension>
        </extensions>
      </trkpt>
      <trkpt lat="45.3501203097403049468994140625" lon="-70.99606993608176708221435546875">
        <ele>766.5999755859375</ele>
        <time>2026-08-21T19:18:52.000Z</time>
        <extensions>
          <ns3:TrackPointExtension>
            <ns3:hr>124</ns3:hr>
            <ns3:cad>40</ns3:cad>
          </ns3:TrackPointExtension>
        </extensions>
      </trkpt>
      <trkpt lat="45.3501208126544952392578125" lon="-70.9960805810987949371337890625">
        <ele>766.79998779296875</ele>
        <time>2026-08-21T19:18:53.000Z</time>
        <extensions>
          <ns3:TrackPointExtension>
            <ns3:hr>124</ns3:hr>
            <ns3:cad>72</ns3:cad>
          </ns3:TrackPointExtension>
        </extensions>
      </trkpt>
      <trkpt lat="45.35012542270123958587646484375" lon="-70.99608452059328556060791015625">
        <ele>766.79998779296875</ele>
        <time>2026-08-21T19:18:54.000Z</time>
        <extensions>
          <ns3:TrackPointExtension>
            <ns3:hr>124</ns3:hr>
            <ns3:cad>72</ns3:cad>
          </ns3:TrackPointExtension>
        </extensions>
      </trkpt>
      <trkpt lat="45.35012005828320980072021484375" lon="-70.99609759636223316192626953125">
        <ele>767</ele>
        <time>2026-08-21T19:18:55.000Z</time>
        <extensions>
          <ns3:TrackPointExtension>
            <ns3:hr>125</ns3:hr>
            <ns3:cad>72</ns3:cad>
          </ns3:TrackPointExtension>
        </extensions>
      </trkpt>
      <trkpt lat="45.3501186333596706390380859375" lon="-70.99610161967575550079345703125">
        <ele>767.20001220703125</ele>
        <time>2026-08-21T19:18:56.000Z</time>
        <extensions>
          <ns3:TrackPointExtension>
            <ns3:hr>125</ns3:hr>
            <ns3:cad>72</ns3:cad>
          </ns3:TrackPointExtension>
        </extensions>
      </trkpt>
      <trkpt lat="45.350114442408084869384765625" lon="-70.99610731936991214752197265625">
        <ele>767.4000244140625</ele>
        <time>2026-08-21T19:18:57.000Z</time>
        <extensions>
          <ns3:TrackPointExtension>
            <ns3:hr>126</ns3:hr>
            <ns3:cad>72</ns3:cad>
          </ns3:TrackPointExtension>
        </extensions>
      </trkpt>
      <trkpt lat="45.3501089103519916534423828125" lon="-70.996118970215320587158203125">
        <ele>767.79998779296875</ele>
        <time>2026-08-21T19:18:58.000Z</time>
        <extensions>
          <ns3:TrackPointExtension>
            <ns3:hr>126</ns3:hr>
            <ns3:cad>75</ns3:cad>
          </ns3:TrackPointExtension>
        </extensions>
      </trkpt>
      <trkpt lat="45.35010966472327709197998046875" lon="-70.9961261786520481109619140625">
        <ele>768</ele>
        <time>2026-08-21T19:18:59.000Z</time>
        <extensions>
          <ns3:TrackPointExtension>
            <ns3:hr>127</ns3:hr>
            <ns3:cad>44</ns3:cad>
          </ns3:TrackPointExtension>
        </extensions>
      </trkpt>
      <trkpt lat="45.350106395781040191650390625" lon="-70.996140427887439727783203125">
        <ele>768.20001220703125</ele>
        <time>2026-08-21T19:19:00.000Z</time>
        <extensions>
          <ns3:TrackPointExtension>
            <ns3:hr>127</ns3:hr>
            <ns3:cad>44</ns3:cad>
          </ns3:TrackPointExtension>
        </extensions>
      </trkpt>
      <trkpt lat="45.35010295920073986053466796875" lon="-70.99614956416189670562744140625">
        <ele>768.20001220703125</ele>
        <time>2026-08-21T19:19:01.000Z</time>
        <extensions>
          <ns3:TrackPointExtension>
            <ns3:hr>128</ns3:hr>
            <ns3:cad>44</ns3:cad>
          </ns3:TrackPointExtension>
        </extensions>
      </trkpt>
      <trkpt lat="45.3501028753817081451416015625" lon="-70.996161215007305145263671875">
        <ele>768.4000244140625</ele>
        <time>2026-08-21T19:19:02.000Z</time>
        <extensions>
          <ns3:TrackPointExtension>
            <ns3:hr>128</ns3:hr>
            <ns3:cad>44</ns3:cad>
          </ns3:TrackPointExtension>
        </extensions>
      </trkpt>
      <trkpt lat="45.35010145045816898345947265625" lon="-70.9961721114814281463623046875">
        <ele>768.5999755859375</ele>
        <time>2026-08-21T19:19:03.000Z</time>
        <extensions>
          <ns3:TrackPointExtension>
            <ns3:hr>128</ns3:hr>
            <ns3:cad>43</ns3:cad>
          </ns3:TrackPointExtension>
        </extensions>
      </trkpt>
      <trkpt lat="45.35010178573429584503173828125" lon="-70.99618761800229549407958984375">
        <ele>768.79998779296875</ele>
        <time>2026-08-21T19:19:04.000Z</time>
        <extensions>
          <ns3:TrackPointExtension>
            <ns3:hr>129</ns3:hr>
            <ns3:cad>43</ns3:cad>
          </ns3:TrackPointExtension>
        </extensions>
      </trkpt>
      <trkpt lat="45.35010245628654956817626953125" lon="-70.99620111286640167236328125">
        <ele>769</ele>
        <time>2026-08-21T19:19:05.000Z</time>
        <extensions>
          <ns3:TrackPointExtension>
            <ns3:hr>129</ns3:hr>
            <ns3:cad>43</ns3:cad>
          </ns3:TrackPointExtension>
        </extensions>
      </trkpt>
      <trkpt lat="45.3501047194004058837890625" lon="-70.99621930159628391265869140625">
        <ele>769.20001220703125</ele>
        <time>2026-08-21T19:19:06.000Z</time>
        <extensions>
          <ns3:TrackPointExtension>
            <ns3:hr>130</ns3:hr>
            <ns3:cad>43</ns3:cad>
          </ns3:TrackPointExtension>
        </extensions>
      </trkpt>
      <trkpt lat="45.35010580904781818389892578125" lon="-70.99623061716556549072265625">
        <ele>769.4000244140625</ele>
        <time>2026-08-21T19:19:07.000Z</time>
        <extensions>
          <ns3:TrackPointExtension>
            <ns3:hr>130</ns3:hr>
            <ns3:cad>43</ns3:cad>
          </ns3:TrackPointExtension>
        </extensions>
      </trkpt>
      <trkpt lat="45.350102372467517852783203125" lon="-70.9962478838860988616943359375">
        <ele>769.4000244140625</ele>
        <time>2026-08-21T19:19:08.000Z</time>
        <extensions>
          <ns3:TrackPointExtension>
            <ns3:hr>132</ns3:hr>
            <ns3:cad>40</ns3:cad>
          </ns3:TrackPointExtension>
        </extensions>
      </trkpt>
      <trkpt lat="45.3501022048294544219970703125" lon="-70.99625903181731700897216796875">
        <ele>769.5999755859375</ele>
        <time>2026-08-21T19:19:09.000Z</time>
        <extensions>
          <ns3:TrackPointExtension>
            <ns3:hr>133</ns3:hr>
            <ns3:cad>40</ns3:cad>
          </ns3:TrackPointExtension>
        </extensions>
      </trkpt>
      <trkpt lat="45.35010362975299358367919921875" lon="-70.9962733648717403411865234375">
        <ele>769.5999755859375</ele>
        <time>2026-08-21T19:19:10.000Z</time>
        <extensions>
          <ns3:TrackPointExtension>
            <ns3:hr>135</ns3:hr>
            <ns3:cad>43</ns3:cad>
          </ns3:TrackPointExtension>
        </extensions>
      </trkpt>
      <trkpt lat="45.35010966472327709197998046875" lon="-70.9962877817451953887939453125">
        <ele>769.79998779296875</ele>
        <time>2026-08-21T19:19:11.000Z</time>
        <extensions>
          <ns3:TrackPointExtension>
            <ns3:hr>136</ns3:hr>
            <ns3:cad>43</ns3:cad>
          </ns3:TrackPointExtension>
        </extensions>
      </trkpt>
      <trkpt lat="45.350114442408084869384765625" lon="-70.9962941519916057586669921875">
        <ele>769.79998779296875</ele>
        <time>2026-08-21T19:19:12.000Z</time>
        <extensions>
          <ns3:TrackPointExtension>
            <ns3:hr>136</ns3:hr>
            <ns3:cad>43</ns3:cad>
          </ns3:TrackPointExtension>
        </extensions>
      </trkpt>
      <trkpt lat="45.35011477768421173095703125" lon="-70.996305383741855621337890625">
        <ele>769.79998779296875</ele>
        <time>2026-08-21T19:19:13.000Z</time>
        <extensions>
          <ns3:TrackPointExtension>
            <ns3:hr>135</ns3:hr>
            <ns3:cad>43</ns3:cad>
          </ns3:TrackPointExtension>
        </extensions>
      </trkpt>
      <trkpt lat="45.35011469386518001556396484375" lon="-70.99631317891180515289306640625">
        <ele>770</ele>
        <time>2026-08-21T19:19:14.000Z</time>
        <extensions>
          <ns3:TrackPointExtension>
            <ns3:hr>135</ns3:hr>
            <ns3:cad>43</ns3:cad>
          </ns3:TrackPointExtension>
        </extensions>
      </trkpt>
      <trkpt lat="45.3501129336655139923095703125" lon="-70.99632139317691326141357421875">
        <ele>770</ele>
        <time>2026-08-21T19:19:15.000Z</time>
        <extensions>
          <ns3:TrackPointExtension>
            <ns3:hr>135</ns3:hr>
            <ns3:cad>42</ns3:cad>
          </ns3:TrackPointExtension>
        </extensions>
      </trkpt>
      <trkpt lat="45.35011201165616512298583984375" lon="-70.9963290207087993621826171875">
        <ele>770.20001220703125</ele>
        <time>2026-08-21T19:19:16.000Z</time>
        <extensions>
          <ns3:TrackPointExtension>
            <ns3:hr>135</ns3:hr>
            <ns3:cad>42</ns3:cad>
          </ns3:TrackPointExtension>
        </extensions>
      </trkpt>
      <trkpt lat="45.35011117346584796905517578125" lon="-70.99633849225938320159912109375">
        <ele>770.4000244140625</ele>
        <time>2026-08-21T19:19:17.000Z</time>
        <extensions>
          <ns3:TrackPointExtension>
            <ns3:hr>135</ns3:hr>
            <ns3:cad>42</ns3:cad>
          </ns3:TrackPointExtension>
        </extensions>
      </trkpt>
      <trkpt lat="45.3501102514564990997314453125" lon="-70.99634653888642787933349609375">
        <ele>770.5999755859375</ele>
        <time>2026-08-21T19:19:18.000Z</time>
        <extensions>
          <ns3:TrackPointExtension>
            <ns3:hr>135</ns3:hr>
            <ns3:cad>0</ns3:cad>
          </ns3:TrackPointExtension>
        </extensions>
      </trkpt>
      <trkpt lat="45.35011067055165767669677734375" lon="-70.9963573515415191650390625">
        <ele>770.79998779296875</ele>
        <time>2026-08-21T19:19:19.000Z</time>
        <extensions>
          <ns3:TrackPointExtension>
            <ns3:hr>135</ns3:hr>
            <ns3:cad>0</ns3:cad>
          </ns3:TrackPointExtension>
        </extensions>
      </trkpt>
      <trkpt lat="45.3501132689416408538818359375" lon="-70.99636363796889781951904296875">
        <ele>770.79998779296875</ele>
        <time>2026-08-21T19:19:20.000Z</time>
        <extensions>
          <ns3:TrackPointExtension>
            <ns3:hr>135</ns3:hr>
            <ns3:cad>0</ns3:cad>
          </ns3:TrackPointExtension>
        </extensions>
      </trkpt>
      <trkpt lat="45.35011067055165767669677734375" lon="-70.996375121176242828369140625">
        <ele>770.79998779296875</ele>
        <time>2026-08-21T19:19:21.000Z</time>
        <extensions>
          <ns3:TrackPointExtension>
            <ns3:hr>135</ns3:hr>
            <ns3:cad>0</ns3:cad>
          </ns3:TrackPointExtension>
        </extensions>
      </trkpt>
      <trkpt lat="45.3501089103519916534423828125" lon="-70.99637704901397228240966796875">
        <ele>770.79998779296875</ele>
        <time>2026-08-21T19:19:22.000Z</time>
        <extensions>
          <ns3:TrackPointExtension>
            <ns3:hr>135</ns3:hr>
            <ns3:cad>0</ns3:cad>
          </ns3:TrackPointExtension>
        </extensions>
      </trkpt>
      <trkpt lat="45.35010748542845249176025390625" lon="-70.9963856823742389678955078125">
        <ele>771</ele>
        <time>2026-08-21T19:19:23.000Z</time>
        <extensions>
          <ns3:TrackPointExtension>
            <ns3:hr>135</ns3:hr>
            <ns3:cad>0</ns3:cad>
          </ns3:TrackPointExtension>
        </extensions>
      </trkpt>
      <trkpt lat="45.35010698251426219940185546875" lon="-70.99639196880161762237548828125">
        <ele>771.20001220703125</ele>
        <time>2026-08-21T19:19:24.000Z</time>
        <extensions>
          <ns3:TrackPointExtension>
            <ns3:hr>135</ns3:hr>
            <ns3:cad>0</ns3:cad>
          </ns3:TrackPointExtension>
        </extensions>
      </trkpt>
      <trkpt lat="45.350107736885547637939453125" lon="-70.99640202708542346954345703125">
        <ele>771.4000244140625</ele>
        <time>2026-08-21T19:19:25.000Z</time>
        <extensions>
          <ns3:TrackPointExtension>
            <ns3:hr>135</ns3:hr>
            <ns3:cad>79</ns3:cad>
          </ns3:TrackPointExtension>
        </extensions>
      </trkpt>
      <trkpt lat="45.35010966472327709197998046875" lon="-70.99641677923500537872314453125">
        <ele>771.5999755859375</ele>
        <time>2026-08-21T19:19:26.000Z</time>
        <extensions>
          <ns3:TrackPointExtension>
            <ns3:hr>135</ns3:hr>
            <ns3:cad>79</ns3:cad>
          </ns3:TrackPointExtension>
        </extensions>
      </trkpt>
      <trkpt lat="45.35011217929422855377197265625" lon="-70.99643044173717498779296875">
        <ele>771.5999755859375</ele>
        <time>2026-08-21T19:19:27.000Z</time>
        <extensions>
          <ns3:TrackPointExtension>
            <ns3:hr>135</ns3:hr>
            <ns3:cad>42</ns3:cad>
          </ns3:TrackPointExtension>
        </extensions>
      </trkpt>
      <trkpt lat="45.350111760199069976806640625" lon="-70.99643572233617305755615234375">
        <ele>771.79998779296875</ele>
        <time>2026-08-21T19:19:28.000Z</time>
        <extensions>
          <ns3:TrackPointExtension>
            <ns3:hr>135</ns3:hr>
            <ns3:cad>42</ns3:cad>
          </ns3:TrackPointExtension>
        </extensions>
      </trkpt>
      <trkpt lat="45.35010379739105701446533203125" lon="-70.9964500553905963897705078125">
        <ele>772</ele>
        <time>2026-08-21T19:19:29.000Z</time>
        <extensions>
          <ns3:TrackPointExtension>
            <ns3:hr>134</ns3:hr>
            <ns3:cad>42</ns3:cad>
          </ns3:TrackPointExtension>
        </extensions>
      </trkpt>
      <trkpt lat="45.3500998578965663909912109375" lon="-70.9964577667415142059326171875">
        <ele>772.4000244140625</ele>
        <time>2026-08-21T19:19:30.000Z</time>
        <extensions>
          <ns3:TrackPointExtension>
            <ns3:hr>135</ns3:hr>
            <ns3:cad>42</ns3:cad>
          </ns3:TrackPointExtension>
        </extensions>
      </trkpt>
      <trkpt lat="45.350099690258502960205078125" lon="-70.99646153859794139862060546875">
        <ele>772.5999755859375</ele>
        <time>2026-08-21T19:19:31.000Z</time>
        <extensions>
          <ns3:TrackPointExtension>
            <ns3:hr>134</ns3:hr>
            <ns3:cad>42</ns3:cad>
          </ns3:TrackPointExtension>
        </extensions>
      </trkpt>
      <trkpt lat="45.35009600222110748291015625" lon="-70.99647042341530323028564453125">
        <ele>772.79998779296875</ele>
        <time>2026-08-21T19:19:32.000Z</time>
        <extensions>
          <ns3:TrackPointExtension>
            <ns3:hr>134</ns3:hr>
            <ns3:cad>42</ns3:cad>
          </ns3:TrackPointExtension>
        </extensions>
      </trkpt>
      <trkpt lat="45.3500939905643463134765625" lon="-70.9964758716523647308349609375">
        <ele>773</ele>
        <time>2026-08-21T19:19:33.000Z</time>
        <extensions>
          <ns3:TrackPointExtension>
            <ns3:hr>134</ns3:hr>
            <ns3:cad>42</ns3:cad>
          </ns3:TrackPointExtension>
        </extensions>
      </trkpt>
      <trkpt lat="45.35009197890758514404296875" lon="-70.99648182280361652374267578125">
        <ele>773.20001220703125</ele>
        <time>2026-08-21T19:19:34.000Z</time>
        <extensions>
          <ns3:TrackPointExtension>
            <ns3:hr>135</ns3:hr>
            <ns3:cad>42</ns3:cad>
          </ns3:TrackPointExtension>
        </extensions>
      </trkpt>
      <trkpt lat="45.35009189508855342864990234375" lon="-70.99648819305002689361572265625">
        <ele>773.4000244140625</ele>
        <time>2026-08-21T19:19:35.000Z</time>
        <extensions>
          <ns3:TrackPointExtension>
            <ns3:hr>134</ns3:hr>
            <ns3:cad>42</ns3:cad>
          </ns3:TrackPointExtension>
        </extensions>
      </trkpt>
      <trkpt lat="45.35009105689823627471923828125" lon="-70.99649238400161266326904296875">
        <ele>773.5999755859375</ele>
        <time>2026-08-21T19:19:36.000Z</time>
        <extensions>
          <ns3:TrackPointExtension>
            <ns3:hr>134</ns3:hr>
            <ns3:cad>42</ns3:cad>
          </ns3:TrackPointExtension>
        </extensions>
      </trkpt>
      <trkpt lat="45.35009424202144145965576171875" lon="-70.99650244228541851043701171875">
        <ele>773.79998779296875</ele>
        <time>2026-08-21T19:19:37.000Z</time>
        <extensions>
          <ns3:TrackPointExtension>
            <ns3:hr>134</ns3:hr>
            <ns3:cad>0</ns3:cad>
          </ns3:TrackPointExtension>
        </extensions>
      </trkpt>
      <trkpt lat="45.35009474493563175201416015625" lon="-70.99651048891246318817138671875">
        <ele>774</ele>
        <time>2026-08-21T19:19:38.000Z</time>
        <extensions>
          <ns3:TrackPointExtension>
            <ns3:hr>134</ns3:hr>
            <ns3:cad>0</ns3:cad>
          </ns3:TrackPointExtension>
        </extensions>
      </trkpt>
      <trkpt lat="45.35009239800274372100830078125" lon="-70.99651903845369815826416015625">
        <ele>774</ele>
        <time>2026-08-21T19:19:39.000Z</time>
        <extensions>
          <ns3:TrackPointExtension>
            <ns3:hr>134</ns3:hr>
            <ns3:cad>0</ns3:cad>
          </ns3:TrackPointExtension>
        </extensions>
      </trkpt>
      <trkpt lat="45.3500894643366336822509765625" lon="-70.99652959965169429779052734375">
        <ele>774.20001220703125</ele>
        <time>2026-08-21T19:19:40.000Z</time>
        <extensions>
          <ns3:TrackPointExtension>
            <ns3:hr>135</ns3:hr>
            <ns3:cad>0</ns3:cad>
          </ns3:TrackPointExtension>
        </extensions>
      </trkpt>
      <trkpt lat="45.3500887937843799591064453125" lon="-70.9965402446687221527099609375">
        <ele>774.4000244140625</ele>
        <time>2026-08-21T19:19:41.000Z</time>
        <extensions>
          <ns3:TrackPointExtension>
            <ns3:hr>134</ns3:hr>
            <ns3:cad>0</ns3:cad>
          </ns3:TrackPointExtension>
        </extensions>
      </trkpt>
      <trkpt lat="45.3500938229262828826904296875" lon="-70.99655156023800373077392578125">
        <ele>774.5999755859375</ele>
        <time>2026-08-21T19:19:42.000Z</time>
        <extensions>
          <ns3:TrackPointExtension>
            <ns3:hr>134</ns3:hr>
            <ns3:cad>0</ns3:cad>
          </ns3:TrackPointExtension>
        </extensions>
      </trkpt>
      <trkpt lat="45.350096337497234344482421875" lon="-70.99656396545469760894775390625">
        <ele>774.79998779296875</ele>
        <time>2026-08-21T19:19:43.000Z</time>
        <extensions>
          <ns3:TrackPointExtension>
            <ns3:hr>135</ns3:hr>
            <ns3:cad>0</ns3:cad>
          </ns3:TrackPointExtension>
        </extensions>
      </trkpt>
      <trkpt lat="45.35009390674531459808349609375" lon="-70.9965751133859157562255859375">
        <ele>775</ele>
        <time>2026-08-21T19:19:44.000Z</time>
        <extensions>
          <ns3:TrackPointExtension>
            <ns3:hr>135</ns3:hr>
            <ns3:cad>0</ns3:cad>
          </ns3:TrackPointExtension>
        </extensions>
      </trkpt>
      <trkpt lat="45.35010044462978839874267578125" lon="-70.99658492021262645721435546875">
        <ele>775.20001220703125</ele>
        <time>2026-08-21T19:19:45.000Z</time>
        <extensions>
          <ns3:TrackPointExtension>
            <ns3:hr>136</ns3:hr>
            <ns3:cad>0</ns3:cad>
          </ns3:TrackPointExtension>
        </extensions>
      </trkpt>
      <trkpt lat="45.3501079045236110687255859375" lon="-70.99660067819058895111083984375">
        <ele>775.20001220703125</ele>
        <time>2026-08-21T19:19:46.000Z</time>
        <extensions>
          <ns3:TrackPointExtension>
            <ns3:hr>136</ns3:hr>
            <ns3:cad>0</ns3:cad>
          </ns3:TrackPointExtension>
        </extensions>
      </trkpt>
      <trkpt lat="45.350113771855831146240234375" lon="-70.9966121613979339599609375">
        <ele>775.20001220703125</ele>
        <time>2026-08-21T19:19:47.000Z</time>
        <extensions>
          <ns3:TrackPointExtension>
            <ns3:hr>137</ns3:hr>
            <ns3:cad>0</ns3:cad>
          </ns3:TrackPointExtension>
        </extensions>
      </trkpt>
      <trkpt lat="45.3501182980835437774658203125" lon="-70.9966243989765644073486328125">
        <ele>775.20001220703125</ele>
        <time>2026-08-21T19:19:48.000Z</time>
        <extensions>
          <ns3:TrackPointExtension>
            <ns3:hr>137</ns3:hr>
            <ns3:cad>0</ns3:cad>
          </ns3:TrackPointExtension>
        </extensions>
      </trkpt>
      <trkpt lat="45.35012391395866870880126953125" lon="-70.99663353525102138519287109375">
        <ele>775.4000244140625</ele>
        <time>2026-08-21T19:19:49.000Z</time>
        <extensions>
          <ns3:TrackPointExtension>
            <ns3:hr>138</ns3:hr>
            <ns3:cad>61</ns3:cad>
          </ns3:TrackPointExtension>
        </extensions>
      </trkpt>
      <trkpt lat="45.3501330502331256866455078125" lon="-70.99664309062063694000244140625">
        <ele>775.4000244140625</ele>
        <time>2026-08-21T19:19:50.000Z</time>
        <extensions>
          <ns3:TrackPointExtension>
            <ns3:hr>138</ns3:hr>
            <ns3:cad>61</ns3:cad>
          </ns3:TrackPointExtension>
        </extensions>
      </trkpt>
      <trkpt lat="45.35014067776501178741455078125" lon="-70.99665147252380847930908203125">
        <ele>775.20001220703125</ele>
        <time>2026-08-21T19:19:51.000Z</time>
        <extensions>
          <ns3:TrackPointExtension>
            <ns3:hr>137</ns3:hr>
            <ns3:cad>61</ns3:cad>
          </ns3:TrackPointExtension>
        </extensions>
      </trkpt>
      <trkpt lat="45.350145958364009857177734375" lon="-70.99666119553148746490478515625">
        <ele>775.20001220703125</ele>
        <time>2026-08-21T19:19:52.000Z</time>
        <extensions>
          <ns3:TrackPointExtension>
            <ns3:hr>137</ns3:hr>
            <ns3:cad>61</ns3:cad>
          </ns3:TrackPointExtension>
        </extensions>
      </trkpt>
      <trkpt lat="45.350150652229785919189453125" lon="-70.99666823633015155792236328125">
        <ele>775.20001220703125</ele>
        <time>2026-08-21T19:19:53.000Z</time>
        <extensions>
          <ns3:TrackPointExtension>
            <ns3:hr>136</ns3:hr>
            <ns3:cad>61</ns3:cad>
          </ns3:TrackPointExtension>
        </extensions>
      </trkpt>
      <trkpt lat="45.35015308298170566558837890625" lon="-70.99667720496654510498046875">
        <ele>775.20001220703125</ele>
        <time>2026-08-21T19:19:54.000Z</time>
        <extensions>
          <ns3:TrackPointExtension>
            <ns3:hr>136</ns3:hr>
            <ns3:cad>71</ns3:cad>
          </ns3:TrackPointExtension>
        </extensions>
      </trkpt>
      <trkpt lat="45.35015123896300792694091796875" lon="-70.99668650887906551361083984375">
        <ele>775.20001220703125</ele>
        <time>2026-08-21T19:19:55.000Z</time>
        <extensions>
          <ns3:TrackPointExtension>
            <ns3:hr>136</ns3:hr>
            <ns3:cad>71</ns3:cad>
          </ns3:TrackPointExtension>
        </extensions>
      </trkpt>
      <trkpt lat="45.3501494787633419036865234375" lon="-70.9966964833438396453857421875">
        <ele>775.4000244140625</ele>
        <time>2026-08-21T19:19:56.000Z</time>
        <extensions>
          <ns3:TrackPointExtension>
            <ns3:hr>136</ns3:hr>
            <ns3:cad>71</ns3:cad>
          </ns3:TrackPointExtension>
        </extensions>
      </trkpt>
      <trkpt lat="45.35015174187719821929931640625" lon="-70.996705703437328338623046875">
        <ele>775.5999755859375</ele>
        <time>2026-08-21T19:19:57.000Z</time>
        <extensions>
          <ns3:TrackPointExtension>
            <ns3:hr>135</ns3:hr>
            <ns3:cad>71</ns3:cad>
          </ns3:TrackPointExtension>
        </extensions>
      </trkpt>
      <trkpt lat="45.35015308298170566558837890625" lon="-70.996715091168880462646484375">
        <ele>775.79998779296875</ele>
        <time>2026-08-21T19:19:58.000Z</time>
        <extensions>
          <ns3:TrackPointExtension>
            <ns3:hr>134</ns3:hr>
            <ns3:cad>71</ns3:cad>
          </ns3:TrackPointExtension>
        </extensions>
      </trkpt>
      <trkpt lat="45.35015610046684741973876953125" lon="-70.9967269934713840484619140625">
        <ele>776</ele>
        <time>2026-08-21T19:19:59.000Z</time>
        <extensions>
          <ns3:TrackPointExtension>
            <ns3:hr>133</ns3:hr>
            <ns3:cad>71</ns3:cad>
          </ns3:TrackPointExtension>
        </extensions>
      </trkpt>
      <trkpt lat="45.35015610046684741973876953125" lon="-70.9967404045164585113525390625">
        <ele>776.4000244140625</ele>
        <time>2026-08-21T19:20:00.000Z</time>
        <extensions>
          <ns3:TrackPointExtension>
            <ns3:hr>133</ns3:hr>
            <ns3:cad>71</ns3:cad>
          </ns3:TrackPointExtension>
        </extensions>
      </trkpt>
      <trkpt lat="45.3501571901142597198486328125" lon="-70.9967518039047718048095703125">
        <ele>776.5999755859375</ele>
        <time>2026-08-21T19:20:01.000Z</time>
        <extensions>
          <ns3:TrackPointExtension>
            <ns3:hr>132</ns3:hr>
            <ns3:cad>71</ns3:cad>
          </ns3:TrackPointExtension>
        </extensions>
      </trkpt>
      <trkpt lat="45.35016515292227268218994140625" lon="-70.99676513113081455230712890625">
        <ele>776.5999755859375</ele>
        <time>2026-08-21T19:20:02.000Z</time>
        <extensions>
          <ns3:TrackPointExtension>
            <ns3:hr>132</ns3:hr>
            <ns3:cad>71</ns3:cad>
          </ns3:TrackPointExtension>
        </extensions>
      </trkpt>
      <trkpt lat="45.35017085261642932891845703125" lon="-70.99677217192947864532470703125">
        <ele>776.79998779296875</ele>
        <time>2026-08-21T19:20:03.000Z</time>
        <extensions>
          <ns3:TrackPointExtension>
            <ns3:hr>132</ns3:hr>
            <ns3:cad>71</ns3:cad>
          </ns3:TrackPointExtension>
        </extensions>
      </trkpt>
      <trkpt lat="45.35017638467252254486083984375" lon="-70.9967803023755550384521484375">
        <ele>777</ele>
        <time>2026-08-21T19:20:04.000Z</time>
        <extensions>
          <ns3:TrackPointExtension>
            <ns3:hr>132</ns3:hr>
            <ns3:cad>0</ns3:cad>
          </ns3:TrackPointExtension>
        </extensions>
      </trkpt>
      <trkpt lat="45.3501823358237743377685546875" lon="-70.996785499155521392822265625">
        <ele>777</ele>
        <time>2026-08-21T19:20:05.000Z</time>
        <extensions>
          <ns3:TrackPointExtension>
            <ns3:hr>132</ns3:hr>
            <ns3:cad>0</ns3:cad>
          </ns3:TrackPointExtension>
        </extensions>
      </trkpt>
      <trkpt lat="45.3501856885850429534912109375" lon="-70.99679396487772464752197265625">
        <ele>777</ele>
        <time>2026-08-21T19:20:06.000Z</time>
        <extensions>
          <ns3:TrackPointExtension>
            <ns3:hr>133</ns3:hr>
            <ns3:cad>0</ns3:cad>
          </ns3:TrackPointExtension>
        </extensions>
      </trkpt>
      <trkpt lat="45.35018661059439182281494140625" lon="-70.99680435843765735626220703125">
        <ele>777.20001220703125</ele>
        <time>2026-08-21T19:20:07.000Z</time>
        <extensions>
          <ns3:TrackPointExtension>
            <ns3:hr>134</ns3:hr>
            <ns3:cad>0</ns3:cad>
          </ns3:TrackPointExtension>
        </extensions>
      </trkpt>
      <trkpt lat="45.350183509290218353271484375" lon="-70.99680921994149684906005859375">
        <ele>777.20001220703125</ele>
        <time>2026-08-21T19:20:08.000Z</time>
        <extensions>
          <ns3:TrackPointExtension>
            <ns3:hr>134</ns3:hr>
            <ns3:cad>0</ns3:cad>
          </ns3:TrackPointExtension>
        </extensions>
      </trkpt>
      <trkpt lat="45.35018585622310638427734375" lon="-70.99681592546403408050537109375">
        <ele>777.4000244140625</ele>
        <time>2026-08-21T19:20:09.000Z</time>
        <extensions>
          <ns3:TrackPointExtension>
            <ns3:hr>135</ns3:hr>
            <ns3:cad>0</ns3:cad>
          </ns3:TrackPointExtension>
        </extensions>
      </trkpt>
      <trkpt lat="45.35019281320273876190185546875" lon="-70.99683185108006000518798828125">
        <ele>777.4000244140625</ele>
        <time>2026-08-21T19:20:10.000Z</time>
        <extensions>
          <ns3:TrackPointExtension>
            <ns3:hr>134</ns3:hr>
            <ns3:cad>0</ns3:cad>
          </ns3:TrackPointExtension>
        </extensions>
      </trkpt>
      <trkpt lat="45.35019683651626110076904296875" lon="-70.9968466870486736297607421875">
        <ele>777.4000244140625</ele>
        <time>2026-08-21T19:20:11.000Z</time>
        <extensions>
          <ns3:TrackPointExtension>
            <ns3:hr>134</ns3:hr>
            <ns3:cad>0</ns3:cad>
          </ns3:TrackPointExtension>
        </extensions>
      </trkpt>
      <trkpt lat="45.35019901581108570098876953125" lon="-70.99685733206570148468017578125">
        <ele>777.4000244140625</ele>
        <time>2026-08-21T19:20:12.000Z</time>
        <extensions>
          <ns3:TrackPointExtension>
            <ns3:hr>134</ns3:hr>
            <ns3:cad>0</ns3:cad>
          </ns3:TrackPointExtension>
        </extensions>
      </trkpt>
      <trkpt lat="45.35019465722143650054931640625" lon="-70.99686638452112674713134765625">
        <ele>777.4000244140625</ele>
        <time>2026-08-21T19:20:13.000Z</time>
        <extensions>
          <ns3:TrackPointExtension>
            <ns3:hr>134</ns3:hr>
            <ns3:cad>0</ns3:cad>
          </ns3:TrackPointExtension>
        </extensions>
      </trkpt>
      <trkpt lat="45.3501917235553264617919921875" lon="-70.99687074311077594757080078125">
        <ele>777.4000244140625</ele>
        <time>2026-08-21T19:20:14.000Z</time>
        <extensions>
          <ns3:TrackPointExtension>
            <ns3:hr>134</ns3:hr>
            <ns3:cad>0</ns3:cad>
          </ns3:TrackPointExtension>
        </extensions>
      </trkpt>
      <trkpt lat="45.3501878678798675537109375" lon="-70.99688080139458179473876953125">
        <ele>777.4000244140625</ele>
        <time>2026-08-21T19:20:15.000Z</time>
        <extensions>
          <ns3:TrackPointExtension>
            <ns3:hr>134</ns3:hr>
            <ns3:cad>0</ns3:cad>
          </ns3:TrackPointExtension>
        </extensions>
      </trkpt>
      <trkpt lat="45.350187532603740692138671875" lon="-70.9968885965645313262939453125">
        <ele>777.5999755859375</ele>
        <time>2026-08-21T19:20:16.000Z</time>
        <extensions>
          <ns3:TrackPointExtension>
            <ns3:hr>134</ns3:hr>
            <ns3:cad>0</ns3:cad>
          </ns3:TrackPointExtension>
        </extensions>
      </trkpt>
      <trkpt lat="45.35018744878470897674560546875" lon="-70.9968929551541805267333984375">
        <ele>777.79998779296875</ele>
        <time>2026-08-21T19:20:17.000Z</time>
        <extensions>
          <ns3:TrackPointExtension>
            <ns3:hr>133</ns3:hr>
            <ns3:cad>0</ns3:cad>
          </ns3:TrackPointExtension>
        </extensions>
      </trkpt>
      <trkpt lat="45.35018443129956722259521484375" lon="-70.9969026781618595123291015625">
        <ele>778</ele>
        <time>2026-08-21T19:20:18.000Z</time>
        <extensions>
          <ns3:TrackPointExtension>
            <ns3:hr>134</ns3:hr>
            <ns3:cad>0</ns3:cad>
          </ns3:TrackPointExtension>
        </extensions>
      </trkpt>
      <trkpt lat="45.3501798212528228759765625" lon="-70.996915586292743682861328125">
        <ele>778.4000244140625</ele>
        <time>2026-08-21T19:20:19.000Z</time>
        <extensions>
          <ns3:TrackPointExtension>
            <ns3:hr>134</ns3:hr>
            <ns3:cad>0</ns3:cad>
          </ns3:TrackPointExtension>
        </extensions>
      </trkpt>
      <trkpt lat="45.35017722286283969879150390625" lon="-70.99692623130977153778076171875">
        <ele>778.5999755859375</ele>
        <time>2026-08-21T19:20:20.000Z</time>
        <extensions>
          <ns3:TrackPointExtension>
            <ns3:hr>134</ns3:hr>
            <ns3:cad>0</ns3:cad>
          </ns3:TrackPointExtension>
        </extensions>
      </trkpt>
      <trkpt lat="45.35017437301576137542724609375" lon="-70.99693511612713336944580078125">
        <ele>778.79998779296875</ele>
        <time>2026-08-21T19:20:21.000Z</time>
        <extensions>
          <ns3:TrackPointExtension>
            <ns3:hr>134</ns3:hr>
            <ns3:cad>0</ns3:cad>
          </ns3:TrackPointExtension>
        </extensions>
      </trkpt>
      <trkpt lat="45.3501699306070804595947265625" lon="-70.9969460964202880859375">
        <ele>779</ele>
        <time>2026-08-21T19:20:22.000Z</time>
        <extensions>
          <ns3:TrackPointExtension>
            <ns3:hr>134</ns3:hr>
            <ns3:cad>0</ns3:cad>
          </ns3:TrackPointExtension>
        </extensions>
      </trkpt>
      <trkpt lat="45.35016682930290699005126953125" lon="-70.99696294404566287994384765625">
        <ele>779.20001220703125</ele>
        <time>2026-08-21T19:20:23.000Z</time>
        <extensions>
          <ns3:TrackPointExtension>
            <ns3:hr>134</ns3:hr>
            <ns3:cad>0</ns3:cad>
          </ns3:TrackPointExtension>
        </extensions>
      </trkpt>
      <trkpt lat="45.3501659072935581207275390625" lon="-70.99697048775851726531982421875">
        <ele>779.4000244140625</ele>
        <time>2026-08-21T19:20:24.000Z</time>
        <extensions>
          <ns3:TrackPointExtension>
            <ns3:hr>134</ns3:hr>
            <ns3:cad>0</ns3:cad>
          </ns3:TrackPointExtension>
        </extensions>
      </trkpt>
      <trkpt lat="45.35016439855098724365234375" lon="-70.99698557518422603607177734375">
        <ele>779.4000244140625</ele>
        <time>2026-08-21T19:20:25.000Z</time>
        <extensions>
          <ns3:TrackPointExtension>
            <ns3:hr>134</ns3:hr>
            <ns3:cad>0</ns3:cad>
          </ns3:TrackPointExtension>
        </extensions>
      </trkpt>
      <trkpt lat="45.35016062669456005096435546875" lon="-70.9969978965818881988525390625">
        <ele>779.5999755859375</ele>
        <time>2026-08-21T19:20:26.000Z</time>
        <extensions>
          <ns3:TrackPointExtension>
            <ns3:hr>134</ns3:hr>
            <ns3:cad>0</ns3:cad>
          </ns3:TrackPointExtension>
        </extensions>
      </trkpt>
      <trkpt lat="45.35016045905649662017822265625" lon="-70.99700309336185455322265625">
        <ele>779.79998779296875</ele>
        <time>2026-08-21T19:20:27.000Z</time>
        <extensions>
          <ns3:TrackPointExtension>
            <ns3:hr>134</ns3:hr>
            <ns3:cad>0</ns3:cad>
          </ns3:TrackPointExtension>
        </extensions>
      </trkpt>
      <trkpt lat="45.35015425644814968109130859375" lon="-70.99701424129307270050048828125">
        <ele>780</ele>
        <time>2026-08-21T19:20:28.000Z</time>
        <extensions>
          <ns3:TrackPointExtension>
            <ns3:hr>133</ns3:hr>
            <ns3:cad>0</ns3:cad>
          </ns3:TrackPointExtension>
        </extensions>
      </trkpt>
      <trkpt lat="45.35015073604881763458251953125" lon="-70.99702161736786365509033203125">
        <ele>780.20001220703125</ele>
        <time>2026-08-21T19:20:29.000Z</time>
        <extensions>
          <ns3:TrackPointExtension>
            <ns3:hr>134</ns3:hr>
            <ns3:cad>0</ns3:cad>
          </ns3:TrackPointExtension>
        </extensions>
      </trkpt>
      <trkpt lat="45.350144617259502410888671875" lon="-70.99703335203230381011962890625">
        <ele>780.4000244140625</ele>
        <time>2026-08-21T19:20:30.000Z</time>
        <extensions>
          <ns3:TrackPointExtension>
            <ns3:hr>134</ns3:hr>
            <ns3:cad>0</ns3:cad>
          </ns3:TrackPointExtension>
        </extensions>
      </trkpt>
      <trkpt lat="45.35014168359339237213134765625" lon="-70.99704257212579250335693359375">
        <ele>780.5999755859375</ele>
        <time>2026-08-21T19:20:31.000Z</time>
        <extensions>
          <ns3:TrackPointExtension>
            <ns3:hr>134</ns3:hr>
            <ns3:cad>0</ns3:cad>
          </ns3:TrackPointExtension>
        </extensions>
      </trkpt>
      <trkpt lat="45.35014067776501178741455078125" lon="-70.99704860709607601165771484375">
        <ele>780.79998779296875</ele>
        <time>2026-08-21T19:20:32.000Z</time>
        <extensions>
          <ns3:TrackPointExtension>
            <ns3:hr>134</ns3:hr>
            <ns3:cad>0</ns3:cad>
          </ns3:TrackPointExtension>
        </extensions>
      </trkpt>
      <trkpt lat="45.35013983957469463348388671875" lon="-70.9970595873892307281494140625">
        <ele>780.79998779296875</ele>
        <time>2026-08-21T19:20:33.000Z</time>
        <extensions>
          <ns3:TrackPointExtension>
            <ns3:hr>134</ns3:hr>
            <ns3:cad>69</ns3:cad>
          </ns3:TrackPointExtension>
        </extensions>
      </trkpt>
      <trkpt lat="45.350141264498233795166015625" lon="-70.99707576446235179901123046875">
        <ele>781</ele>
        <time>2026-08-21T19:20:34.000Z</time>
        <extensions>
          <ns3:TrackPointExtension>
            <ns3:hr>134</ns3:hr>
            <ns3:cad>69</ns3:cad>
          </ns3:TrackPointExtension>
        </extensions>
      </trkpt>
      <trkpt lat="45.3501434437930583953857421875" lon="-70.99709001369774341583251953125">
        <ele>781</ele>
        <time>2026-08-21T19:20:35.000Z</time>
        <extensions>
          <ns3:TrackPointExtension>
            <ns3:hr>134</ns3:hr>
            <ns3:cad>69</ns3:cad>
          </ns3:TrackPointExtension>
        </extensions>
      </trkpt>
      <trkpt lat="45.3501457907259464263916015625" lon="-70.997107364237308502197265625">
        <ele>781</ele>
        <time>2026-08-21T19:20:36.000Z</time>
        <extensions>
          <ns3:TrackPointExtension>
            <ns3:hr>134</ns3:hr>
            <ns3:cad>69</ns3:cad>
          </ns3:TrackPointExtension>
        </extensions>
      </trkpt>
      <trkpt lat="45.3501484729349613189697265625" lon="-70.9971222840249538421630859375">
        <ele>781</ele>
        <time>2026-08-21T19:20:37.000Z</time>
        <extensions>
          <ns3:TrackPointExtension>
            <ns3:hr>134</ns3:hr>
            <ns3:cad>69</ns3:cad>
          </ns3:TrackPointExtension>
        </extensions>
      </trkpt>
      <trkpt lat="45.3501498140394687652587890625" lon="-70.99713779054582118988037109375">
        <ele>781</ele>
        <time>2026-08-21T19:20:38.000Z</time>
        <extensions>
          <ns3:TrackPointExtension>
            <ns3:hr>134</ns3:hr>
            <ns3:cad>0</ns3:cad>
          </ns3:TrackPointExtension>
        </extensions>
      </trkpt>
      <trkpt lat="45.3501474671065807342529296875" lon="-70.9971507824957370758056640625">
        <ele>781</ele>
        <time>2026-08-21T19:20:39.000Z</time>
        <extensions>
          <ns3:TrackPointExtension>
            <ns3:hr>134</ns3:hr>
            <ns3:cad>0</ns3:cad>
          </ns3:TrackPointExtension>
        </extensions>
      </trkpt>
      <trkpt lat="45.3501441143453121185302734375" lon="-70.99716561846435070037841796875">
        <ele>781</ele>
        <time>2026-08-21T19:20:40.000Z</time>
        <extensions>
          <ns3:TrackPointExtension>
            <ns3:hr>134</ns3:hr>
            <ns3:cad>0</ns3:cad>
          </ns3:TrackPointExtension>
        </extensions>
      </trkpt>
      <trkpt lat="45.35014159977436065673828125" lon="-70.99718154408037662506103515625">
        <ele>781.20001220703125</ele>
        <time>2026-08-21T19:20:41.000Z</time>
        <extensions>
          <ns3:TrackPointExtension>
            <ns3:hr>134</ns3:hr>
            <ns3:cad>0</ns3:cad>
          </ns3:TrackPointExtension>
        </extensions>
      </trkpt>
      <trkpt lat="45.3501384146511554718017578125" lon="-70.997197218239307403564453125">
        <ele>781.20001220703125</ele>
        <time>2026-08-21T19:20:42.000Z</time>
        <extensions>
          <ns3:TrackPointExtension>
            <ns3:hr>134</ns3:hr>
            <ns3:cad>0</ns3:cad>
          </ns3:TrackPointExtension>
        </extensions>
      </trkpt>
      <trkpt lat="45.35013933666050434112548828125" lon="-70.99721104837954044342041015625">
        <ele>781.20001220703125</ele>
        <time>2026-08-21T19:20:43.000Z</time>
        <extensions>
          <ns3:TrackPointExtension>
            <ns3:hr>135</ns3:hr>
            <ns3:cad>47</ns3:cad>
          </ns3:TrackPointExtension>
        </extensions>
      </trkpt>
      <trkpt lat="45.3501384146511554718017578125" lon="-70.99722982384264469146728515625">
        <ele>781.4000244140625</ele>
        <time>2026-08-21T19:20:44.000Z</time>
        <extensions>
          <ns3:TrackPointExtension>
            <ns3:hr>134</ns3:hr>
            <ns3:cad>47</ns3:cad>
          </ns3:TrackPointExtension>
        </extensions>
      </trkpt>
      <trkpt lat="45.3501367382705211639404296875" lon="-70.99724021740257740020751953125">
        <ele>781.5999755859375</ele>
        <time>2026-08-21T19:20:45.000Z</time>
        <extensions>
          <ns3:TrackPointExtension>
            <ns3:hr>134</ns3:hr>
            <ns3:cad>48</ns3:cad>
          </ns3:TrackPointExtension>
        </extensions>
      </trkpt>
      <trkpt lat="45.35013397224247455596923828125" lon="-70.9972574003040790557861328125">
        <ele>781.79998779296875</ele>
        <time>2026-08-21T19:20:46.000Z</time>
        <extensions>
          <ns3:TrackPointExtension>
            <ns3:hr>133</ns3:hr>
            <ns3:cad>48</ns3:cad>
          </ns3:TrackPointExtension>
        </extensions>
      </trkpt>
      <trkpt lat="45.35013078711926937103271484375" lon="-70.99727055989205837249755859375">
        <ele>781.79998779296875</ele>
        <time>2026-08-21T19:20:47.000Z</time>
        <extensions>
          <ns3:TrackPointExtension>
            <ns3:hr>133</ns3:hr>
            <ns3:cad>48</ns3:cad>
          </ns3:TrackPointExtension>
        </extensions>
      </trkpt>
      <trkpt lat="45.3501293621957302093505859375" lon="-70.99728447385132312774658203125">
        <ele>782</ele>
        <time>2026-08-21T19:20:48.000Z</time>
        <extensions>
          <ns3:TrackPointExtension>
            <ns3:hr>133</ns3:hr>
            <ns3:cad>45</ns3:cad>
          </ns3:TrackPointExtension>
        </extensions>
      </trkpt>
      <trkpt lat="45.3501250036060810089111328125" lon="-70.9972999803721904754638671875">
        <ele>782</ele>
        <time>2026-08-21T19:20:49.000Z</time>
        <extensions>
          <ns3:TrackPointExtension>
            <ns3:hr>134</ns3:hr>
            <ns3:cad>45</ns3:cad>
          </ns3:TrackPointExtension>
        </extensions>
      </trkpt>
      <trkpt lat="45.3501229919493198394775390625" lon="-70.99731548689305782318115234375">
        <ele>782.20001220703125</ele>
        <time>2026-08-21T19:20:50.000Z</time>
        <extensions>
          <ns3:TrackPointExtension>
            <ns3:hr>134</ns3:hr>
            <ns3:cad>45</ns3:cad>
          </ns3:TrackPointExtension>
        </extensions>
      </trkpt>
      <trkpt lat="45.35012190230190753936767578125" lon="-70.99732638336718082427978515625">
        <ele>782.20001220703125</ele>
        <time>2026-08-21T19:20:51.000Z</time>
        <extensions>
          <ns3:TrackPointExtension>
            <ns3:hr>134</ns3:hr>
            <ns3:cad>0</ns3:cad>
          </ns3:TrackPointExtension>
        </extensions>
      </trkpt>
      <trkpt lat="45.3501236625015735626220703125" lon="-70.99733761511743068695068359375">
        <ele>782.4000244140625</ele>
        <time>2026-08-21T19:20:52.000Z</time>
        <extensions>
          <ns3:TrackPointExtension>
            <ns3:hr>134</ns3:hr>
            <ns3:cad>0</ns3:cad>
          </ns3:TrackPointExtension>
        </extensions>
      </trkpt>
      <trkpt lat="45.35012408159673213958740234375" lon="-70.99735580384731292724609375">
        <ele>782.4000244140625</ele>
        <time>2026-08-21T19:20:53.000Z</time>
        <extensions>
          <ns3:TrackPointExtension>
            <ns3:hr>134</ns3:hr>
            <ns3:cad>41</ns3:cad>
          </ns3:TrackPointExtension>
        </extensions>
      </trkpt>
      <trkpt lat="45.3501261770725250244140625" lon="-70.9973754175007343292236328125">
        <ele>782.5999755859375</ele>
        <time>2026-08-21T19:20:54.000Z</time>
        <extensions>
          <ns3:TrackPointExtension>
            <ns3:hr>134</ns3:hr>
            <ns3:cad>41</ns3:cad>
          </ns3:TrackPointExtension>
        </extensions>
      </trkpt>
      <trkpt lat="45.35012994892895221710205078125" lon="-70.997391007840633392333984375">
        <ele>782.79998779296875</ele>
        <time>2026-08-21T19:20:55.000Z</time>
        <extensions>
          <ns3:TrackPointExtension>
            <ns3:hr>134</ns3:hr>
            <ns3:cad>41</ns3:cad>
          </ns3:TrackPointExtension>
        </extensions>
      </trkpt>
      <trkpt lat="45.35013631917536258697509765625" lon="-70.9974062629044055938720703125">
        <ele>783</ele>
        <time>2026-08-21T19:20:56.000Z</time>
        <extensions>
          <ns3:TrackPointExtension>
            <ns3:hr>134</ns3:hr>
            <ns3:cad>41</ns3:cad>
          </ns3:TrackPointExtension>
        </extensions>
      </trkpt>
      <trkpt lat="45.35013749264180660247802734375" lon="-70.99742311052978038787841796875">
        <ele>783</ele>
        <time>2026-08-21T19:20:57.000Z</time>
        <extensions>
          <ns3:TrackPointExtension>
            <ns3:hr>134</ns3:hr>
            <ns3:cad>44</ns3:cad>
          </ns3:TrackPointExtension>
        </extensions>
      </trkpt>
      <trkpt lat="45.3501421026885509490966796875" lon="-70.997436940670013427734375">
        <ele>783</ele>
        <time>2026-08-21T19:20:58.000Z</time>
        <extensions>
          <ns3:TrackPointExtension>
            <ns3:hr>134</ns3:hr>
            <ns3:cad>44</ns3:cad>
          </ns3:TrackPointExtension>
        </extensions>
      </trkpt>
      <trkpt lat="45.350147299468517303466796875" lon="-70.9974448196589946746826171875">
        <ele>783.20001220703125</ele>
        <time>2026-08-21T19:20:59.000Z</time>
        <extensions>
          <ns3:TrackPointExtension>
            <ns3:hr>133</ns3:hr>
            <ns3:cad>44</ns3:cad>
          </ns3:TrackPointExtension>
        </extensions>
      </trkpt>
      <trkpt lat="45.35015090368688106536865234375" lon="-70.99745697341859340667724609375">
        <ele>783.20001220703125</ele>
        <time>2026-08-21T19:21:00.000Z</time>
        <extensions>
          <ns3:TrackPointExtension>
            <ns3:hr>134</ns3:hr>
            <ns3:cad>44</ns3:cad>
          </ns3:TrackPointExtension>
        </extensions>
      </trkpt>
      <trkpt lat="45.3501541726291179656982421875" lon="-70.99747440777719020843505859375">
        <ele>783.20001220703125</ele>
        <time>2026-08-21T19:21:01.000Z</time>
        <extensions>
          <ns3:TrackPointExtension>
            <ns3:hr>134</ns3:hr>
            <ns3:cad>44</ns3:cad>
          </ns3:TrackPointExtension>
        </extensions>
      </trkpt>
      <trkpt lat="45.35016112960875034332275390625" lon="-70.99748631007969379425048828125">
        <ele>783.20001220703125</ele>
        <time>2026-08-21T19:21:02.000Z</time>
        <extensions>
          <ns3:TrackPointExtension>
            <ns3:hr>133</ns3:hr>
            <ns3:cad>0</ns3:cad>
          </ns3:TrackPointExtension>
        </extensions>
      </trkpt>
      <trkpt lat="45.350167416036128997802734375" lon="-70.9974987991154193878173828125">
        <ele>783.20001220703125</ele>
        <time>2026-08-21T19:21:03.000Z</time>
        <extensions>
          <ns3:TrackPointExtension>
            <ns3:hr>133</ns3:hr>
            <ns3:cad>0</ns3:cad>
          </ns3:TrackPointExtension>
        </extensions>
      </trkpt>
      <trkpt lat="45.3501719422638416290283203125" lon="-70.99751145578920841217041015625">
        <ele>783</ele>
        <time>2026-08-21T19:21:04.000Z</time>
        <extensions>
          <ns3:TrackPointExtension>
            <ns3:hr>133</ns3:hr>
            <ns3:cad>0</ns3:cad>
          </ns3:TrackPointExtension>
        </extensions>
      </trkpt>
      <trkpt lat="45.35017873160541057586669921875" lon="-70.997536182403564453125">
        <ele>783</ele>
        <time>2026-08-21T19:21:05.000Z</time>
        <extensions>
          <ns3:TrackPointExtension>
            <ns3:hr>133</ns3:hr>
            <ns3:cad>46</ns3:cad>
          </ns3:TrackPointExtension>
        </extensions>
      </trkpt>
      <trkpt lat="45.350182838737964630126953125" lon="-70.99755118601024150848388671875">
        <ele>783</ele>
        <time>2026-08-21T19:21:06.000Z</time>
        <extensions>
          <ns3:TrackPointExtension>
            <ns3:hr>132</ns3:hr>
            <ns3:cad>46</ns3:cad>
          </ns3:TrackPointExtension>
        </extensions>
      </trkpt>
      <trkpt lat="45.3501840122044086456298828125" lon="-70.99756694398820400238037109375">
        <ele>783</ele>
        <time>2026-08-21T19:21:07.000Z</time>
        <extensions>
          <ns3:TrackPointExtension>
            <ns3:hr>132</ns3:hr>
            <ns3:cad>46</ns3:cad>
          </ns3:TrackPointExtension>
        </extensions>
      </trkpt>
      <trkpt lat="45.35018359310925006866455078125" lon="-70.997581444680690765380859375">
        <ele>783</ele>
        <time>2026-08-21T19:21:08.000Z</time>
        <extensions>
          <ns3:TrackPointExtension>
            <ns3:hr>132</ns3:hr>
            <ns3:cad>46</ns3:cad>
          </ns3:TrackPointExtension>
        </extensions>
      </trkpt>
      <trkpt lat="45.3501784801483154296875" lon="-70.99759091623127460479736328125">
        <ele>782.79998779296875</ele>
        <time>2026-08-21T19:21:09.000Z</time>
        <extensions>
          <ns3:TrackPointExtension>
            <ns3:hr>132</ns3:hr>
            <ns3:cad>46</ns3:cad>
          </ns3:TrackPointExtension>
        </extensions>
      </trkpt>
      <trkpt lat="45.35017554648220539093017578125" lon="-70.99760667420923709869384765625">
        <ele>782.79998779296875</ele>
        <time>2026-08-21T19:21:10.000Z</time>
        <extensions>
          <ns3:TrackPointExtension>
            <ns3:hr>131</ns3:hr>
            <ns3:cad>46</ns3:cad>
          </ns3:TrackPointExtension>
        </extensions>
      </trkpt>
      <trkpt lat="45.3501759655773639678955078125" lon="-70.99761866033077239990234375">
        <ele>782.79998779296875</ele>
        <time>2026-08-21T19:21:11.000Z</time>
        <extensions>
          <ns3:TrackPointExtension>
            <ns3:hr>130</ns3:hr>
            <ns3:cad>46</ns3:cad>
          </ns3:TrackPointExtension>
        </extensions>
      </trkpt>
      <trkpt lat="45.35017705522477626800537109375" lon="-70.997636429965496063232421875">
        <ele>782.5999755859375</ele>
        <time>2026-08-21T19:21:12.000Z</time>
        <extensions>
          <ns3:TrackPointExtension>
            <ns3:hr>128</ns3:hr>
            <ns3:cad>46</ns3:cad>
          </ns3:TrackPointExtension>
        </extensions>
      </trkpt>
      <trkpt lat="45.35018024034798145294189453125" lon="-70.99765093065798282623291015625">
        <ele>782.4000244140625</ele>
        <time>2026-08-21T19:21:13.000Z</time>
        <extensions>
          <ns3:TrackPointExtension>
            <ns3:hr>126</ns3:hr>
            <ns3:cad>46</ns3:cad>
          </ns3:TrackPointExtension>
        </extensions>
      </trkpt>
      <trkpt lat="45.35018342547118663787841796875" lon="-70.997669287025928497314453125">
        <ele>782.4000244140625</ele>
        <time>2026-08-21T19:21:14.000Z</time>
        <extensions>
          <ns3:TrackPointExtension>
            <ns3:hr>125</ns3:hr>
            <ns3:cad>46</ns3:cad>
          </ns3:TrackPointExtension>
        </extensions>
      </trkpt>
      <trkpt lat="45.3501850180327892303466796875" lon="-70.99768429063260555267333984375">
        <ele>782.20001220703125</ele>
        <time>2026-08-21T19:21:15.000Z</time>
        <extensions>
          <ns3:TrackPointExtension>
            <ns3:hr>124</ns3:hr>
            <ns3:cad>0</ns3:cad>
          </ns3:TrackPointExtension>
        </extensions>
      </trkpt>
      <trkpt lat="45.350186191499233245849609375" lon="-70.99769585765898227691650390625">
        <ele>782.20001220703125</ele>
        <time>2026-08-21T19:21:16.000Z</time>
        <extensions>
          <ns3:TrackPointExtension>
            <ns3:hr>124</ns3:hr>
            <ns3:cad>0</ns3:cad>
          </ns3:TrackPointExtension>
        </extensions>
      </trkpt>
      <trkpt lat="45.35018627531826496124267578125" lon="-70.99771295674145221710205078125">
        <ele>782.20001220703125</ele>
        <time>2026-08-21T19:21:17.000Z</time>
        <extensions>
          <ns3:TrackPointExtension>
            <ns3:hr>123</ns3:hr>
            <ns3:cad>0</ns3:cad>
          </ns3:TrackPointExtension>
        </extensions>
      </trkpt>
      <trkpt lat="45.35018292255699634552001953125" lon="-70.99772192537784576416015625">
        <ele>782</ele>
        <time>2026-08-21T19:21:18.000Z</time>
        <extensions>
          <ns3:TrackPointExtension>
            <ns3:hr>123</ns3:hr>
            <ns3:cad>0</ns3:cad>
          </ns3:TrackPointExtension>
        </extensions>
      </trkpt>
      <trkpt lat="45.3501878678798675537109375" lon="-70.99773441441357135772705078125">
        <ele>782</ele>
        <time>2026-08-21T19:21:19.000Z</time>
        <extensions>
          <ns3:TrackPointExtension>
            <ns3:hr>123</ns3:hr>
            <ns3:cad>49</ns3:cad>
          </ns3:TrackPointExtension>
        </extensions>
      </trkpt>
      <trkpt lat="45.3501883707940578460693359375" lon="-70.99775654263794422149658203125">
        <ele>782.20001220703125</ele>
        <time>2026-08-21T19:21:20.000Z</time>
        <extensions>
          <ns3:TrackPointExtension>
            <ns3:hr>122</ns3:hr>
            <ns3:cad>49</ns3:cad>
          </ns3:TrackPointExtension>
        </extensions>
      </trkpt>
      <trkpt lat="45.3501863591372966766357421875" lon="-70.99777867086231708526611328125">
        <ele>782.20001220703125</ele>
        <time>2026-08-21T19:21:21.000Z</time>
        <extensions>
          <ns3:TrackPointExtension>
            <ns3:hr>122</ns3:hr>
            <ns3:cad>49</ns3:cad>
          </ns3:TrackPointExtension>
        </extensions>
      </trkpt>
      <trkpt lat="45.3501870296895503997802734375" lon="-70.99779434502124786376953125">
        <ele>782.4000244140625</ele>
        <time>2026-08-21T19:21:22.000Z</time>
        <extensions>
          <ns3:TrackPointExtension>
            <ns3:hr>122</ns3:hr>
            <ns3:cad>49</ns3:cad>
          </ns3:TrackPointExtension>
        </extensions>
      </trkpt>
      <trkpt lat="45.35018878988921642303466796875" lon="-70.99780800752341747283935546875">
        <ele>782.5999755859375</ele>
        <time>2026-08-21T19:21:23.000Z</time>
        <extensions>
          <ns3:TrackPointExtension>
            <ns3:hr>122</ns3:hr>
            <ns3:cad>49</ns3:cad>
          </ns3:TrackPointExtension>
        </extensions>
      </trkpt>
      <trkpt lat="45.35019063390791416168212890625" lon="-70.9978149645030498504638671875">
        <ele>782.79998779296875</ele>
        <time>2026-08-21T19:21:24.000Z</time>
        <extensions>
          <ns3:TrackPointExtension>
            <ns3:hr>123</ns3:hr>
            <ns3:cad>48</ns3:cad>
          </ns3:TrackPointExtension>
        </extensions>
      </trkpt>
      <trkpt lat="45.35019214265048503875732421875" lon="-70.99783717654645442962646484375">
        <ele>782.79998779296875</ele>
        <time>2026-08-21T19:21:25.000Z</time>
        <extensions>
          <ns3:TrackPointExtension>
            <ns3:hr>122</ns3:hr>
            <ns3:cad>48</ns3:cad>
          </ns3:TrackPointExtension>
        </extensions>
      </trkpt>
      <trkpt lat="45.35019180737435817718505859375" lon="-70.99785947240889072418212890625">
        <ele>783</ele>
        <time>2026-08-21T19:21:26.000Z</time>
        <extensions>
          <ns3:TrackPointExtension>
            <ns3:hr>123</ns3:hr>
            <ns3:cad>48</ns3:cad>
          </ns3:TrackPointExtension>
        </extensions>
      </trkpt>
      <trkpt lat="45.35019180737435817718505859375" lon="-70.99787422455847263336181640625">
        <ele>783.20001220703125</ele>
        <time>2026-08-21T19:21:27.000Z</time>
        <extensions>
          <ns3:TrackPointExtension>
            <ns3:hr>122</ns3:hr>
            <ns3:cad>48</ns3:cad>
          </ns3:TrackPointExtension>
        </extensions>
      </trkpt>
      <trkpt lat="45.35019256174564361572265625" lon="-70.997890569269657135009765625">
        <ele>783.4000244140625</ele>
        <time>2026-08-21T19:21:28.000Z</time>
        <extensions>
          <ns3:TrackPointExtension>
            <ns3:hr>122</ns3:hr>
            <ns3:cad>48</ns3:cad>
          </ns3:TrackPointExtension>
        </extensions>
      </trkpt>
      <trkpt lat="45.3501947410404682159423828125" lon="-70.9979085065424442291259765625">
        <ele>783.4000244140625</ele>
        <time>2026-08-21T19:21:29.000Z</time>
        <extensions>
          <ns3:TrackPointExtension>
            <ns3:hr>122</ns3:hr>
            <ns3:cad>46</ns3:cad>
          </ns3:TrackPointExtension>
        </extensions>
      </trkpt>
      <trkpt lat="45.3501920588314533233642578125" lon="-70.997924096882343292236328125">
        <ele>783.4000244140625</ele>
        <time>2026-08-21T19:21:30.000Z</time>
        <extensions>
          <ns3:TrackPointExtension>
            <ns3:hr>123</ns3:hr>
            <ns3:cad>46</ns3:cad>
          </ns3:TrackPointExtension>
        </extensions>
      </trkpt>
      <trkpt lat="45.35018996335566043853759765625" lon="-70.99794044159352779388427734375">
        <ele>783.5999755859375</ele>
        <time>2026-08-21T19:21:31.000Z</time>
        <extensions>
          <ns3:TrackPointExtension>
            <ns3:hr>122</ns3:hr>
            <ns3:cad>48</ns3:cad>
          </ns3:TrackPointExtension>
        </extensions>
      </trkpt>
      <trkpt lat="45.35019197501242160797119140625" lon="-70.997950918972492218017578125">
        <ele>783.5999755859375</ele>
        <time>2026-08-21T19:21:32.000Z</time>
        <extensions>
          <ns3:TrackPointExtension>
            <ns3:hr>122</ns3:hr>
            <ns3:cad>48</ns3:cad>
          </ns3:TrackPointExtension>
        </extensions>
      </trkpt>
      <trkpt lat="45.3501917235553264617919921875" lon="-70.99796055816113948822021484375">
        <ele>783.5999755859375</ele>
        <time>2026-08-21T19:21:33.000Z</time>
        <extensions>
          <ns3:TrackPointExtension>
            <ns3:hr>123</ns3:hr>
            <ns3:cad>48</ns3:cad>
          </ns3:TrackPointExtension>
        </extensions>
      </trkpt>
      <trkpt lat="45.35019163973629474639892578125" lon="-70.997971706092357635498046875">
        <ele>783.79998779296875</ele>
        <time>2026-08-21T19:21:34.000Z</time>
        <extensions>
          <ns3:TrackPointExtension>
            <ns3:hr>122</ns3:hr>
            <ns3:cad>0</ns3:cad>
          </ns3:TrackPointExtension>
        </extensions>
      </trkpt>
      <trkpt lat="45.35019583068788051605224609375" lon="-70.997985787689685821533203125">
        <ele>783.79998779296875</ele>
        <time>2026-08-21T19:21:35.000Z</time>
        <extensions>
          <ns3:TrackPointExtension>
            <ns3:hr>122</ns3:hr>
            <ns3:cad>0</ns3:cad>
          </ns3:TrackPointExtension>
        </extensions>
      </trkpt>
      <trkpt lat="45.35019884817302227020263671875" lon="-70.9979993663728237152099609375">
        <ele>783.79998779296875</ele>
        <time>2026-08-21T19:21:36.000Z</time>
        <extensions>
          <ns3:TrackPointExtension>
            <ns3:hr>122</ns3:hr>
            <ns3:cad>0</ns3:cad>
          </ns3:TrackPointExtension>
        </extensions>
      </trkpt>
      <trkpt lat="45.35020270384848117828369140625" lon="-70.9980203211307525634765625">
        <ele>783.79998779296875</ele>
        <time>2026-08-21T19:21:37.000Z</time>
        <extensions>
          <ns3:TrackPointExtension>
            <ns3:hr>122</ns3:hr>
            <ns3:cad>0</ns3:cad>
          </ns3:TrackPointExtension>
        </extensions>
      </trkpt>
      <trkpt lat="45.35020488314330577850341796875" lon="-70.99803901277482509613037109375">
        <ele>783.79998779296875</ele>
        <time>2026-08-21T19:21:38.000Z</time>
        <extensions>
          <ns3:TrackPointExtension>
            <ns3:hr>122</ns3:hr>
            <ns3:cad>0</ns3:cad>
          </ns3:TrackPointExtension>
        </extensions>
      </trkpt>
      <trkpt lat="45.35021133720874786376953125" lon="-70.9980516694486141204833984375">
        <ele>783.5999755859375</ele>
        <time>2026-08-21T19:21:39.000Z</time>
        <extensions>
          <ns3:TrackPointExtension>
            <ns3:hr>121</ns3:hr>
            <ns3:cad>0</ns3:cad>
          </ns3:TrackPointExtension>
        </extensions>
      </trkpt>
      <trkpt lat="45.3502185456454753875732421875" lon="-70.99805812351405620574951171875">
        <ele>783.5999755859375</ele>
        <time>2026-08-21T19:21:40.000Z</time>
        <extensions>
          <ns3:TrackPointExtension>
            <ns3:hr>120</ns3:hr>
            <ns3:cad>0</ns3:cad>
          </ns3:TrackPointExtension>
        </extensions>
      </trkpt>
      <trkpt lat="45.35022080875933170318603515625" lon="-70.99807388149201869964599609375">
        <ele>783.4000244140625</ele>
        <time>2026-08-21T19:21:41.000Z</time>
        <extensions>
          <ns3:TrackPointExtension>
            <ns3:hr>120</ns3:hr>
            <ns3:cad>0</ns3:cad>
          </ns3:TrackPointExtension>
        </extensions>
      </trkpt>
      <trkpt lat="45.3502229042351245880126953125" lon="-70.99808938801288604736328125">
        <ele>783.20001220703125</ele>
        <time>2026-08-21T19:21:42.000Z</time>
        <extensions>
          <ns3:TrackPointExtension>
            <ns3:hr>120</ns3:hr>
            <ns3:cad>0</ns3:cad>
          </ns3:TrackPointExtension>
        </extensions>
      </trkpt>
      <trkpt lat="45.35022214986383914947509765625" lon="-70.99810137413442134857177734375">
        <ele>783</ele>
        <time>2026-08-21T19:21:43.000Z</time>
        <extensions>
          <ns3:TrackPointExtension>
            <ns3:hr>121</ns3:hr>
            <ns3:cad>0</ns3:cad>
          </ns3:TrackPointExtension>
        </extensions>
      </trkpt>
      <trkpt lat="45.35022734664380550384521484375" lon="-70.9981073252856731414794921875">
        <ele>782.79998779296875</ele>
        <time>2026-08-21T19:21:44.000Z</time>
        <extensions>
          <ns3:TrackPointExtension>
            <ns3:hr>121</ns3:hr>
            <ns3:cad>44</ns3:cad>
          </ns3:TrackPointExtension>
        </extensions>
      </trkpt>
      <trkpt lat="45.35023237578570842742919921875" lon="-70.99811562336981296539306640625">
        <ele>782.5999755859375</ele>
        <time>2026-08-21T19:21:45.000Z</time>
        <extensions>
          <ns3:TrackPointExtension>
            <ns3:hr>121</ns3:hr>
            <ns3:cad>44</ns3:cad>
          </ns3:TrackPointExtension>
        </extensions>
      </trkpt>
      <trkpt lat="45.35023455508053302764892578125" lon="-70.99812484346330165863037109375">
        <ele>782.4000244140625</ele>
        <time>2026-08-21T19:21:46.000Z</time>
        <extensions>
          <ns3:TrackPointExtension>
            <ns3:hr>122</ns3:hr>
            <ns3:cad>0</ns3:cad>
          </ns3:TrackPointExtension>
        </extensions>
      </trkpt>
      <trkpt lat="45.35023639909923076629638671875" lon="-70.99813766777515411376953125">
        <ele>782.20001220703125</ele>
        <time>2026-08-21T19:21:47.000Z</time>
        <extensions>
          <ns3:TrackPointExtension>
            <ns3:hr>122</ns3:hr>
            <ns3:cad>0</ns3:cad>
          </ns3:TrackPointExtension>
        </extensions>
      </trkpt>
      <trkpt lat="45.35023572854697704315185546875" lon="-70.998148731887340545654296875">
        <ele>782</ele>
        <time>2026-08-21T19:21:48.000Z</time>
        <extensions>
          <ns3:TrackPointExtension>
            <ns3:hr>121</ns3:hr>
            <ns3:cad>0</ns3:cad>
          </ns3:TrackPointExtension>
        </extensions>
      </trkpt>
      <trkpt lat="45.3502346388995647430419921875" lon="-70.9981556050479412078857421875">
        <ele>781.79998779296875</ele>
        <time>2026-08-21T19:21:49.000Z</time>
        <extensions>
          <ns3:TrackPointExtension>
            <ns3:hr>121</ns3:hr>
            <ns3:cad>0</ns3:cad>
          </ns3:TrackPointExtension>
        </extensions>
      </trkpt>
      <trkpt lat="45.350239165127277374267578125" lon="-70.9981663338840007781982421875">
        <ele>781.5999755859375</ele>
        <time>2026-08-21T19:21:50.000Z</time>
        <extensions>
          <ns3:TrackPointExtension>
            <ns3:hr>122</ns3:hr>
            <ns3:cad>0</ns3:cad>
          </ns3:TrackPointExtension>
        </extensions>
      </trkpt>
      <trkpt lat="45.350239835679531097412109375" lon="-70.998175553977489471435546875">
        <ele>781.4000244140625</ele>
        <time>2026-08-21T19:21:51.000Z</time>
        <extensions>
          <ns3:TrackPointExtension>
            <ns3:hr>123</ns3:hr>
            <ns3:cad>0</ns3:cad>
          </ns3:TrackPointExtension>
        </extensions>
      </trkpt>
      <trkpt lat="45.3502396680414676666259765625" lon="-70.99818200804293155670166015625">
        <ele>781.20001220703125</ele>
        <time>2026-08-21T19:21:52.000Z</time>
        <extensions>
          <ns3:TrackPointExtension>
            <ns3:hr>124</ns3:hr>
            <ns3:cad>0</ns3:cad>
          </ns3:TrackPointExtension>
        </extensions>
      </trkpt>
      <trkpt lat="45.35024218261241912841796875" lon="-70.998186953365802764892578125">
        <ele>781.20001220703125</ele>
        <time>2026-08-21T19:21:53.000Z</time>
        <extensions>
          <ns3:TrackPointExtension>
            <ns3:hr>126</ns3:hr>
            <ns3:cad>0</ns3:cad>
          </ns3:TrackPointExtension>
        </extensions>
      </trkpt>
      <trkpt lat="45.3502433560788631439208984375" lon="-70.99819491617381572723388671875">
        <ele>781</ele>
        <time>2026-08-21T19:21:54.000Z</time>
        <extensions>
          <ns3:TrackPointExtension>
            <ns3:hr>126</ns3:hr>
            <ns3:cad>0</ns3:cad>
          </ns3:TrackPointExtension>
        </extensions>
      </trkpt>
      <trkpt lat="45.350245870649814605712890625" lon="-70.998203717172145843505859375">
        <ele>780.79998779296875</ele>
        <time>2026-08-21T19:21:55.000Z</time>
        <extensions>
          <ns3:TrackPointExtension>
            <ns3:hr>124</ns3:hr>
            <ns3:cad>0</ns3:cad>
          </ns3:TrackPointExtension>
        </extensions>
      </trkpt>
      <trkpt lat="45.35024779848754405975341796875" lon="-70.998218469321727752685546875">
        <ele>780.5999755859375</ele>
        <time>2026-08-21T19:21:56.000Z</time>
        <extensions>
          <ns3:TrackPointExtension>
            <ns3:hr>123</ns3:hr>
            <ns3:cad>0</ns3:cad>
          </ns3:TrackPointExtension>
        </extensions>
      </trkpt>
      <trkpt lat="45.3502490557730197906494140625" lon="-70.9982246719300746917724609375">
        <ele>780.5999755859375</ele>
        <time>2026-08-21T19:21:57.000Z</time>
        <extensions>
          <ns3:TrackPointExtension>
            <ns3:hr>122</ns3:hr>
            <ns3:cad>0</ns3:cad>
          </ns3:TrackPointExtension>
        </extensions>
      </trkpt>
      <trkpt lat="45.35025333054363727569580078125" lon="-70.99823917262256145477294921875">
        <ele>780.5999755859375</ele>
        <time>2026-08-21T19:21:58.000Z</time>
        <extensions>
          <ns3:TrackPointExtension>
            <ns3:hr>122</ns3:hr>
            <ns3:cad>0</ns3:cad>
          </ns3:TrackPointExtension>
        </extensions>
      </trkpt>
      <trkpt lat="45.35025618039071559906005859375" lon="-70.99824839271605014801025390625">
        <ele>780.5999755859375</ele>
        <time>2026-08-21T19:21:59.000Z</time>
        <extensions>
          <ns3:TrackPointExtension>
            <ns3:hr>123</ns3:hr>
            <ns3:cad>0</ns3:cad>
          </ns3:TrackPointExtension>
        </extensions>
      </trkpt>
      <trkpt lat="45.35026364028453826904296875" lon="-70.998263396322727203369140625">
        <ele>780.79998779296875</ele>
        <time>2026-08-21T19:22:00.000Z</time>
        <extensions>
          <ns3:TrackPointExtension>
            <ns3:hr>123</ns3:hr>
            <ns3:cad>0</ns3:cad>
          </ns3:TrackPointExtension>
        </extensions>
      </trkpt>
      <trkpt lat="45.350271351635456085205078125" lon="-70.99827957339584827423095703125">
        <ele>780.79998779296875</ele>
        <time>2026-08-21T19:22:01.000Z</time>
        <extensions>
          <ns3:TrackPointExtension>
            <ns3:hr>122</ns3:hr>
            <ns3:cad>0</ns3:cad>
          </ns3:TrackPointExtension>
        </extensions>
      </trkpt>
      <trkpt lat="45.35027897916734218597412109375" lon="-70.99829164333641529083251953125">
        <ele>780.5999755859375</ele>
        <time>2026-08-21T19:22:02.000Z</time>
        <extensions>
          <ns3:TrackPointExtension>
            <ns3:hr>122</ns3:hr>
            <ns3:cad>0</ns3:cad>
          </ns3:TrackPointExtension>
        </extensions>
      </trkpt>
      <trkpt lat="45.35028534941375255584716796875" lon="-70.99830321036279201507568359375">
        <ele>780.5999755859375</ele>
        <time>2026-08-21T19:22:03.000Z</time>
        <extensions>
          <ns3:TrackPointExtension>
            <ns3:hr>121</ns3:hr>
            <ns3:cad>0</ns3:cad>
          </ns3:TrackPointExtension>
        </extensions>
      </trkpt>
      <trkpt lat="45.35028920508921146392822265625" lon="-70.99831008352339267730712890625">
        <ele>780.4000244140625</ele>
        <time>2026-08-21T19:22:04.000Z</time>
        <extensions>
          <ns3:TrackPointExtension>
            <ns3:hr>120</ns3:hr>
            <ns3:cad>0</ns3:cad>
          </ns3:TrackPointExtension>
        </extensions>
      </trkpt>
      <trkpt lat="45.3502926416695117950439453125" lon="-70.99831863306462764739990234375">
        <ele>780.20001220703125</ele>
        <time>2026-08-21T19:22:05.000Z</time>
        <extensions>
          <ns3:TrackPointExtension>
            <ns3:hr>119</ns3:hr>
            <ns3:cad>47</ns3:cad>
          </ns3:TrackPointExtension>
        </extensions>
      </trkpt>
      <trkpt lat="45.35029582679271697998046875" lon="-70.99833355285227298736572265625">
        <ele>780.20001220703125</ele>
        <time>2026-08-21T19:22:06.000Z</time>
        <extensions>
          <ns3:TrackPointExtension>
            <ns3:hr>119</ns3:hr>
            <ns3:cad>47</ns3:cad>
          </ns3:TrackPointExtension>
        </extensions>
      </trkpt>
      <trkpt lat="45.3502966649830341339111328125" lon="-70.9983423538506031036376953125">
        <ele>780.20001220703125</ele>
        <time>2026-08-21T19:22:07.000Z</time>
        <extensions>
          <ns3:TrackPointExtension>
            <ns3:hr>119</ns3:hr>
            <ns3:cad>47</ns3:cad>
          </ns3:TrackPointExtension>
        </extensions>
      </trkpt>
      <trkpt lat="45.35029758699238300323486328125" lon="-70.998351573944091796875">
        <ele>780.20001220703125</ele>
        <time>2026-08-21T19:22:08.000Z</time>
        <extensions>
          <ns3:TrackPointExtension>
            <ns3:hr>119</ns3:hr>
            <ns3:cad>47</ns3:cad>
          </ns3:TrackPointExtension>
        </extensions>
      </trkpt>
      <trkpt lat="45.3502973355352878570556640625" lon="-70.99835484288632869720458984375">
        <ele>780.20001220703125</ele>
        <time>2026-08-21T19:22:09.000Z</time>
        <extensions>
          <ns3:TrackPointExtension>
            <ns3:hr>120</ns3:hr>
            <ns3:cad>47</ns3:cad>
          </ns3:TrackPointExtension>
        </extensions>
      </trkpt>
      <trkpt lat="45.3503005206584930419921875" lon="-70.99835618399083614349365234375">
        <ele>780.20001220703125</ele>
        <time>2026-08-21T19:22:10.000Z</time>
        <extensions>
          <ns3:TrackPointExtension>
            <ns3:hr>120</ns3:hr>
            <ns3:cad>0</ns3:cad>
          </ns3:TrackPointExtension>
        </extensions>
      </trkpt>
      <trkpt lat="45.35029850900173187255859375" lon="-70.9983711875975131988525390625">
        <ele>780.4000244140625</ele>
        <time>2026-08-21T19:22:11.000Z</time>
        <extensions>
          <ns3:TrackPointExtension>
            <ns3:hr>119</ns3:hr>
            <ns3:cad>0</ns3:cad>
          </ns3:TrackPointExtension>
        </extensions>
      </trkpt>
      <trkpt lat="45.350300185382366180419921875" lon="-70.99839105270802974700927734375">
        <ele>780.4000244140625</ele>
        <time>2026-08-21T19:22:12.000Z</time>
        <extensions>
          <ns3:TrackPointExtension>
            <ns3:hr>119</ns3:hr>
            <ns3:cad>0</ns3:cad>
          </ns3:TrackPointExtension>
        </extensions>
      </trkpt>
      <trkpt lat="45.3502993471920490264892578125" lon="-70.998405553400516510009765625">
        <ele>780.4000244140625</ele>
        <time>2026-08-21T19:22:13.000Z</time>
        <extensions>
          <ns3:TrackPointExtension>
            <ns3:hr>119</ns3:hr>
            <ns3:cad>0</ns3:cad>
          </ns3:TrackPointExtension>
        </extensions>
      </trkpt>
      <trkpt lat="45.35029825754463672637939453125" lon="-70.99841586314141750335693359375">
        <ele>780.4000244140625</ele>
        <time>2026-08-21T19:22:14.000Z</time>
        <extensions>
          <ns3:TrackPointExtension>
            <ns3:hr>118</ns3:hr>
            <ns3:cad>0</ns3:cad>
          </ns3:TrackPointExtension>
        </extensions>
      </trkpt>
      <trkpt lat="45.350298844277858734130859375" lon="-70.99843245930969715118408203125">
        <ele>780.20001220703125</ele>
        <time>2026-08-21T19:22:15.000Z</time>
        <extensions>
          <ns3:TrackPointExtension>
            <ns3:hr>118</ns3:hr>
            <ns3:cad>0</ns3:cad>
          </ns3:TrackPointExtension>
        </extensions>
      </trkpt>
      <trkpt lat="45.35030479542911052703857421875" lon="-70.998443104326725006103515625">
        <ele>780.20001220703125</ele>
        <time>2026-08-21T19:22:16.000Z</time>
        <extensions>
          <ns3:TrackPointExtension>
            <ns3:hr>118</ns3:hr>
            <ns3:cad>0</ns3:cad>
          </ns3:TrackPointExtension>
        </extensions>
      </trkpt>
      <trkpt lat="45.35030328668653964996337890625" lon="-70.9984526596963405609130859375">
        <ele>780.20001220703125</ele>
        <time>2026-08-21T19:22:17.000Z</time>
        <extensions>
          <ns3:TrackPointExtension>
            <ns3:hr>117</ns3:hr>
            <ns3:cad>0</ns3:cad>
          </ns3:TrackPointExtension>
        </extensions>
      </trkpt>
      <trkpt lat="45.35030253231525421142578125" lon="-70.99845877848565578460693359375">
        <ele>780</ele>
        <time>2026-08-21T19:22:18.000Z</time>
        <extensions>
          <ns3:TrackPointExtension>
            <ns3:hr>117</ns3:hr>
            <ns3:cad>0</ns3:cad>
          </ns3:TrackPointExtension>
        </extensions>
      </trkpt>
      <trkpt lat="45.35030077211558818817138671875" lon="-70.99846816621720790863037109375">
        <ele>779.79998779296875</ele>
        <time>2026-08-21T19:22:19.000Z</time>
        <extensions>
          <ns3:TrackPointExtension>
            <ns3:hr>117</ns3:hr>
            <ns3:cad>0</ns3:cad>
          </ns3:TrackPointExtension>
        </extensions>
      </trkpt>
      <trkpt lat="45.35029314458370208740234375" lon="-70.9984814934432506561279296875">
        <ele>779.79998779296875</ele>
        <time>2026-08-21T19:22:20.000Z</time>
        <extensions>
          <ns3:TrackPointExtension>
            <ns3:hr>117</ns3:hr>
            <ns3:cad>0</ns3:cad>
          </ns3:TrackPointExtension>
        </extensions>
      </trkpt>
      <trkpt lat="45.35029054619371891021728515625" lon="-70.99849163554608821868896484375">
        <ele>779.79998779296875</ele>
        <time>2026-08-21T19:22:21.000Z</time>
        <extensions>
          <ns3:TrackPointExtension>
            <ns3:hr>117</ns3:hr>
            <ns3:cad>0</ns3:cad>
          </ns3:TrackPointExtension>
        </extensions>
      </trkpt>
      <trkpt lat="45.3502886183559894561767578125" lon="-70.99849917925894260406494140625">
        <ele>780</ele>
        <time>2026-08-21T19:22:22.000Z</time>
        <extensions>
          <ns3:TrackPointExtension>
            <ns3:hr>116</ns3:hr>
            <ns3:cad>52</ns3:cad>
          </ns3:TrackPointExtension>
        </extensions>
      </trkpt>
      <trkpt lat="45.35028534941375255584716796875" lon="-70.99850672297179698944091796875">
        <ele>780.20001220703125</ele>
        <time>2026-08-21T19:22:23.000Z</time>
        <extensions>
          <ns3:TrackPointExtension>
            <ns3:hr>116</ns3:hr>
            <ns3:cad>52</ns3:cad>
          </ns3:TrackPointExtension>
        </extensions>
      </trkpt>
      <trkpt lat="45.35027763806283473968505859375" lon="-70.998522900044918060302734375">
        <ele>780.4000244140625</ele>
        <time>2026-08-21T19:22:24.000Z</time>
        <extensions>
          <ns3:TrackPointExtension>
            <ns3:hr>115</ns3:hr>
            <ns3:cad>52</ns3:cad>
          </ns3:TrackPointExtension>
        </extensions>
      </trkpt>
      <trkpt lat="45.3502711839973926544189453125" lon="-70.99853740073740482330322265625">
        <ele>780.5999755859375</ele>
        <time>2026-08-21T19:22:25.000Z</time>
        <extensions>
          <ns3:TrackPointExtension>
            <ns3:hr>114</ns3:hr>
            <ns3:cad>52</ns3:cad>
          </ns3:TrackPointExtension>
        </extensions>
      </trkpt>
      <trkpt lat="45.3502658195793628692626953125" lon="-70.99854812957346439361572265625">
        <ele>781</ele>
        <time>2026-08-21T19:22:26.000Z</time>
        <extensions>
          <ns3:TrackPointExtension>
            <ns3:hr>114</ns3:hr>
            <ns3:cad>52</ns3:cad>
          </ns3:TrackPointExtension>
        </extensions>
      </trkpt>
      <trkpt lat="45.350264646112918853759765625" lon="-70.9985653124749660491943359375">
        <ele>781.20001220703125</ele>
        <time>2026-08-21T19:22:27.000Z</time>
        <extensions>
          <ns3:TrackPointExtension>
            <ns3:hr>114</ns3:hr>
            <ns3:cad>0</ns3:cad>
          </ns3:TrackPointExtension>
        </extensions>
      </trkpt>
      <trkpt lat="45.35025718621909618377685546875" lon="-70.99859104491770267486572265625">
        <ele>781.4000244140625</ele>
        <time>2026-08-21T19:22:28.000Z</time>
        <extensions>
          <ns3:TrackPointExtension>
            <ns3:hr>114</ns3:hr>
            <ns3:cad>0</ns3:cad>
          </ns3:TrackPointExtension>
        </extensions>
      </trkpt>
      <trkpt lat="45.35026221536099910736083984375" lon="-70.99859900772571563720703125">
        <ele>781.5999755859375</ele>
        <time>2026-08-21T19:22:29.000Z</time>
        <extensions>
          <ns3:TrackPointExtension>
            <ns3:hr>114</ns3:hr>
            <ns3:cad>0</ns3:cad>
          </ns3:TrackPointExtension>
        </extensions>
      </trkpt>
      <trkpt lat="45.35026657395064830780029296875" lon="-70.99861518479883670806884765625">
        <ele>781.79998779296875</ele>
        <time>2026-08-21T19:22:30.000Z</time>
        <extensions>
          <ns3:TrackPointExtension>
            <ns3:hr>115</ns3:hr>
            <ns3:cad>0</ns3:cad>
          </ns3:TrackPointExtension>
        </extensions>
      </trkpt>
      <trkpt lat="45.35026908852159976959228515625" lon="-70.99863278679549694061279296875">
        <ele>781.79998779296875</ele>
        <time>2026-08-21T19:22:31.000Z</time>
        <extensions>
          <ns3:TrackPointExtension>
            <ns3:hr>115</ns3:hr>
            <ns3:cad>0</ns3:cad>
          </ns3:TrackPointExtension>
        </extensions>
      </trkpt>
      <trkpt lat="45.350270681083202362060546875" lon="-70.998650304973125457763671875">
        <ele>781.79998779296875</ele>
        <time>2026-08-21T19:22:32.000Z</time>
        <extensions>
          <ns3:TrackPointExtension>
            <ns3:hr>116</ns3:hr>
            <ns3:cad>52</ns3:cad>
          </ns3:TrackPointExtension>
        </extensions>
      </trkpt>
      <trkpt lat="45.35027143545448780059814453125" lon="-70.9986628778278827667236328125">
        <ele>781.79998779296875</ele>
        <time>2026-08-21T19:22:33.000Z</time>
        <extensions>
          <ns3:TrackPointExtension>
            <ns3:hr>117</ns3:hr>
            <ns3:cad>52</ns3:cad>
          </ns3:TrackPointExtension>
        </extensions>
      </trkpt>
      <trkpt lat="45.350272022187709808349609375" lon="-70.99867922253906726837158203125">
        <ele>781.79998779296875</ele>
        <time>2026-08-21T19:22:34.000Z</time>
        <extensions>
          <ns3:TrackPointExtension>
            <ns3:hr>118</ns3:hr>
            <ns3:cad>45</ns3:cad>
          </ns3:TrackPointExtension>
        </extensions>
      </trkpt>
      <trkpt lat="45.35027009434998035430908203125" lon="-70.99870227277278900146484375">
        <ele>781.79998779296875</ele>
        <time>2026-08-21T19:22:35.000Z</time>
        <extensions>
          <ns3:TrackPointExtension>
            <ns3:hr>120</ns3:hr>
            <ns3:cad>45</ns3:cad>
          </ns3:TrackPointExtension>
        </extensions>
      </trkpt>
      <trkpt lat="45.35027193836867809295654296875" lon="-70.99871300160884857177734375">
        <ele>781.79998779296875</ele>
        <time>2026-08-21T19:22:36.000Z</time>
        <extensions>
          <ns3:TrackPointExtension>
            <ns3:hr>120</ns3:hr>
            <ns3:cad>45</ns3:cad>
          </ns3:TrackPointExtension>
        </extensions>
      </trkpt>
      <trkpt lat="45.350275374948978424072265625" lon="-70.9987235628068447113037109375">
        <ele>782</ele>
        <time>2026-08-21T19:22:37.000Z</time>
        <extensions>
          <ns3:TrackPointExtension>
            <ns3:hr>120</ns3:hr>
            <ns3:cad>52</ns3:cad>
          </ns3:TrackPointExtension>
        </extensions>
      </trkpt>
      <trkpt lat="45.35028107464313507080078125" lon="-70.99873823113739490509033203125">
        <ele>782</ele>
        <time>2026-08-21T19:22:38.000Z</time>
        <extensions>
          <ns3:TrackPointExtension>
            <ns3:hr>120</ns3:hr>
            <ns3:cad>52</ns3:cad>
          </ns3:TrackPointExtension>
        </extensions>
      </trkpt>
      <trkpt lat="45.3502849303185939788818359375" lon="-70.99876019172370433807373046875">
        <ele>782</ele>
        <time>2026-08-21T19:22:39.000Z</time>
        <extensions>
          <ns3:TrackPointExtension>
            <ns3:hr>121</ns3:hr>
            <ns3:cad>52</ns3:cad>
          </ns3:TrackPointExtension>
        </extensions>
      </trkpt>
      <trkpt lat="45.35028300248086452484130859375" lon="-70.998777039349079132080078125">
        <ele>782</ele>
        <time>2026-08-21T19:22:40.000Z</time>
        <extensions>
          <ns3:TrackPointExtension>
            <ns3:hr>121</ns3:hr>
            <ns3:cad>0</ns3:cad>
          </ns3:TrackPointExtension>
        </extensions>
      </trkpt>
      <trkpt lat="45.3502812422811985015869140625" lon="-70.9987865947186946868896484375">
        <ele>781.79998779296875</ele>
        <time>2026-08-21T19:22:41.000Z</time>
        <extensions>
          <ns3:TrackPointExtension>
            <ns3:hr>122</ns3:hr>
            <ns3:cad>0</ns3:cad>
          </ns3:TrackPointExtension>
        </extensions>
      </trkpt>
      <trkpt lat="45.350280739367008209228515625" lon="-70.9987973235547542572021484375">
        <ele>781.79998779296875</ele>
        <time>2026-08-21T19:22:42.000Z</time>
        <extensions>
          <ns3:TrackPointExtension>
            <ns3:hr>123</ns3:hr>
            <ns3:cad>0</ns3:cad>
          </ns3:TrackPointExtension>
        </extensions>
      </trkpt>
      <trkpt lat="45.35028166137635707855224609375" lon="-70.9988036938011646270751953125">
        <ele>781.79998779296875</ele>
        <time>2026-08-21T19:22:43.000Z</time>
        <extensions>
          <ns3:TrackPointExtension>
            <ns3:hr>123</ns3:hr>
            <ns3:cad>0</ns3:cad>
          </ns3:TrackPointExtension>
        </extensions>
      </trkpt>
      <trkpt lat="45.35027847625315189361572265625" lon="-70.9988169372081756591796875">
        <ele>781.5999755859375</ele>
        <time>2026-08-21T19:22:44.000Z</time>
        <extensions>
          <ns3:TrackPointExtension>
            <ns3:hr>123</ns3:hr>
            <ns3:cad>0</ns3:cad>
          </ns3:TrackPointExtension>
        </extensions>
      </trkpt>
      <trkpt lat="45.3502745367586612701416015625" lon="-70.99882942624390125274658203125">
        <ele>781.4000244140625</ele>
        <time>2026-08-21T19:22:45.000Z</time>
        <extensions>
          <ns3:TrackPointExtension>
            <ns3:hr>123</ns3:hr>
            <ns3:cad>0</ns3:cad>
          </ns3:TrackPointExtension>
        </extensions>
      </trkpt>
      <trkpt lat="45.3502768836915493011474609375" lon="-70.99884166382253170013427734375">
        <ele>781.4000244140625</ele>
        <time>2026-08-21T19:22:46.000Z</time>
        <extensions>
          <ns3:TrackPointExtension>
            <ns3:hr>123</ns3:hr>
            <ns3:cad>0</ns3:cad>
          </ns3:TrackPointExtension>
        </extensions>
      </trkpt>
      <trkpt lat="45.3502738662064075469970703125" lon="-70.99886027164757251739501953125">
        <ele>781.4000244140625</ele>
        <time>2026-08-21T19:22:47.000Z</time>
        <extensions>
          <ns3:TrackPointExtension>
            <ns3:hr>123</ns3:hr>
            <ns3:cad>0</ns3:cad>
          </ns3:TrackPointExtension>
        </extensions>
      </trkpt>
      <trkpt lat="45.3502711839973926544189453125" lon="-70.99887770600616931915283203125">
        <ele>781.4000244140625</ele>
        <time>2026-08-21T19:22:48.000Z</time>
        <extensions>
          <ns3:TrackPointExtension>
            <ns3:hr>123</ns3:hr>
            <ns3:cad>0</ns3:cad>
          </ns3:TrackPointExtension>
        </extensions>
      </trkpt>
      <trkpt lat="45.35026774741709232330322265625" lon="-70.9988999180495738983154296875">
        <ele>781.4000244140625</ele>
        <time>2026-08-21T19:22:49.000Z</time>
        <extensions>
          <ns3:TrackPointExtension>
            <ns3:hr>124</ns3:hr>
            <ns3:cad>48</ns3:cad>
          </ns3:TrackPointExtension>
        </extensions>
      </trkpt>
      <trkpt lat="45.3502701781690120697021484375" lon="-70.998919196426868438720703125">
        <ele>781.4000244140625</ele>
        <time>2026-08-21T19:22:50.000Z</time>
        <extensions>
          <ns3:TrackPointExtension>
            <ns3:hr>124</ns3:hr>
            <ns3:cad>48</ns3:cad>
          </ns3:TrackPointExtension>
        </extensions>
      </trkpt>
      <trkpt lat="45.35027076490223407745361328125" lon="-70.998935289680957794189453125">
        <ele>781.20001220703125</ele>
        <time>2026-08-21T19:22:51.000Z</time>
        <extensions>
          <ns3:TrackPointExtension>
            <ns3:hr>125</ns3:hr>
            <ns3:cad>48</ns3:cad>
          </ns3:TrackPointExtension>
        </extensions>
      </trkpt>
      <trkpt lat="45.3502735309302806854248046875" lon="-70.99896672181785106658935546875">
        <ele>781</ele>
        <time>2026-08-21T19:22:52.000Z</time>
        <extensions>
          <ns3:TrackPointExtension>
            <ns3:hr>125</ns3:hr>
            <ns3:cad>48</ns3:cad>
          </ns3:TrackPointExtension>
        </extensions>
      </trkpt>
      <trkpt lat="45.35027696751058101654052734375" lon="-70.99898792803287506103515625">
        <ele>781</ele>
        <time>2026-08-21T19:22:53.000Z</time>
        <extensions>
          <ns3:TrackPointExtension>
            <ns3:hr>124</ns3:hr>
            <ns3:cad>48</ns3:cad>
          </ns3:TrackPointExtension>
        </extensions>
      </trkpt>
      <trkpt lat="45.35028434358537197113037109375" lon="-70.99901064299046993255615234375">
        <ele>780.79998779296875</ele>
        <time>2026-08-21T19:22:54.000Z</time>
        <extensions>
          <ns3:TrackPointExtension>
            <ns3:hr>124</ns3:hr>
            <ns3:cad>48</ns3:cad>
          </ns3:TrackPointExtension>
        </extensions>
      </trkpt>
      <trkpt lat="45.3502929769456386566162109375" lon="-70.9990313462913036346435546875">
        <ele>780.5999755859375</ele>
        <time>2026-08-21T19:22:55.000Z</time>
        <extensions>
          <ns3:TrackPointExtension>
            <ns3:hr>124</ns3:hr>
            <ns3:cad>48</ns3:cad>
          </ns3:TrackPointExtension>
        </extensions>
      </trkpt>
      <trkpt lat="45.35030060447752475738525390625" lon="-70.99905154667794704437255859375">
        <ele>780.4000244140625</ele>
        <time>2026-08-21T19:22:56.000Z</time>
        <extensions>
          <ns3:TrackPointExtension>
            <ns3:hr>123</ns3:hr>
            <ns3:cad>48</ns3:cad>
          </ns3:TrackPointExtension>
        </extensions>
      </trkpt>
      <trkpt lat="45.3503083996474742889404296875" lon="-70.99907216615974903106689453125">
        <ele>780.20001220703125</ele>
        <time>2026-08-21T19:22:57.000Z</time>
        <extensions>
          <ns3:TrackPointExtension>
            <ns3:hr>123</ns3:hr>
            <ns3:cad>48</ns3:cad>
          </ns3:TrackPointExtension>
        </extensions>
      </trkpt>
      <trkpt lat="45.35031954757869243621826171875" lon="-70.99909211508929729461669921875">
        <ele>780</ele>
        <time>2026-08-21T19:22:58.000Z</time>
        <extensions>
          <ns3:TrackPointExtension>
            <ns3:hr>123</ns3:hr>
            <ns3:cad>48</ns3:cad>
          </ns3:TrackPointExtension>
        </extensions>
      </trkpt>
      <trkpt lat="45.3503273427486419677734375" lon="-70.99910737015306949615478515625">
        <ele>779.5999755859375</ele>
        <time>2026-08-21T19:22:59.000Z</time>
        <extensions>
          <ns3:TrackPointExtension>
            <ns3:hr>122</ns3:hr>
            <ns3:cad>48</ns3:cad>
          </ns3:TrackPointExtension>
        </extensions>
      </trkpt>
      <trkpt lat="45.35033564083278179168701171875" lon="-70.9991198591887950897216796875">
        <ele>779.4000244140625</ele>
        <time>2026-08-21T19:23:00.000Z</time>
        <extensions>
          <ns3:TrackPointExtension>
            <ns3:hr>121</ns3:hr>
            <ns3:cad>48</ns3:cad>
          </ns3:TrackPointExtension>
        </extensions>
      </trkpt>
      <trkpt lat="45.35034519620239734649658203125" lon="-70.99912698380649089813232421875">
        <ele>779</ele>
        <time>2026-08-21T19:23:01.000Z</time>
        <extensions>
          <ns3:TrackPointExtension>
            <ns3:hr>121</ns3:hr>
            <ns3:cad>48</ns3:cad>
          </ns3:TrackPointExtension>
        </extensions>
      </trkpt>
      <trkpt lat="45.350341759622097015380859375" lon="-70.99912874400615692138671875">
        <ele>778.79998779296875</ele>
        <time>2026-08-21T19:23:02.000Z</time>
        <extensions>
          <ns3:TrackPointExtension>
            <ns3:hr>120</ns3:hr>
            <ns3:cad>48</ns3:cad>
          </ns3:TrackPointExtension>
        </extensions>
      </trkpt>
      <trkpt lat="45.3503449447453022003173828125" lon="-70.99913603626191616058349609375">
        <ele>778.5999755859375</ele>
        <time>2026-08-21T19:23:03.000Z</time>
        <extensions>
          <ns3:TrackPointExtension>
            <ns3:hr>119</ns3:hr>
            <ns3:cad>0</ns3:cad>
          </ns3:TrackPointExtension>
        </extensions>
      </trkpt>
      <trkpt lat="45.35034687258303165435791015625" lon="-70.99913972429931163787841796875">
        <ele>778.5999755859375</ele>
        <time>2026-08-21T19:23:04.000Z</time>
        <extensions>
          <ns3:TrackPointExtension>
            <ns3:hr>119</ns3:hr>
            <ns3:cad>0</ns3:cad>
          </ns3:TrackPointExtension>
        </extensions>
      </trkpt>
      <trkpt lat="45.35034486092627048492431640625" lon="-70.9991379640996456146240234375">
        <ele>778.4000244140625</ele>
        <time>2026-08-21T19:23:05.000Z</time>
        <extensions>
          <ns3:TrackPointExtension>
            <ns3:hr>119</ns3:hr>
            <ns3:cad>0</ns3:cad>
          </ns3:TrackPointExtension>
        </extensions>
      </trkpt>
      <trkpt lat="45.350346453487873077392578125" lon="-70.9991388022899627685546875">
        <ele>778.4000244140625</ele>
        <time>2026-08-21T19:23:06.000Z</time>
        <extensions>
          <ns3:TrackPointExtension>
            <ns3:hr>119</ns3:hr>
            <ns3:cad>0</ns3:cad>
          </ns3:TrackPointExtension>
        </extensions>
      </trkpt>
      <trkpt lat="45.35034704022109508514404296875" lon="-70.99913838319480419158935546875">
        <ele>778.4000244140625</ele>
        <time>2026-08-21T19:23:07.000Z</time>
        <extensions>
          <ns3:TrackPointExtension>
            <ns3:hr>119</ns3:hr>
            <ns3:cad>0</ns3:cad>
          </ns3:TrackPointExtension>
        </extensions>
      </trkpt>
      <trkpt lat="45.35034704022109508514404296875" lon="-70.99913838319480419158935546875">
        <ele>778.4000244140625</ele>
        <time>2026-08-21T19:23:08.000Z</time>
        <extensions>
          <ns3:TrackPointExtension>
            <ns3:hr>119</ns3:hr>
            <ns3:cad>0</ns3:cad>
          </ns3:TrackPointExtension>
        </extensions>
      </trkpt>
      <trkpt lat="45.35034704022109508514404296875" lon="-70.99913838319480419158935546875">
        <ele>778.5999755859375</ele>
        <time>2026-08-21T19:23:09.000Z</time>
        <extensions>
          <ns3:TrackPointExtension>
            <ns3:hr>119</ns3:hr>
            <ns3:cad>0</ns3:cad>
          </ns3:TrackPointExtension>
        </extensions>
      </trkpt>
      <trkpt lat="45.35034653730690479278564453125" lon="-70.9991386346518993377685546875">
        <ele>778.5999755859375</ele>
        <time>2026-08-21T19:23:10.000Z</time>
        <extensions>
          <ns3:TrackPointExtension>
            <ns3:hr>118</ns3:hr>
            <ns3:cad>0</ns3:cad>
          </ns3:TrackPointExtension>
        </extensions>
      </trkpt>
      <trkpt lat="45.35034486092627048492431640625" lon="-70.99914458580315113067626953125">
        <ele>778.5999755859375</ele>
        <time>2026-08-21T19:23:11.000Z</time>
        <extensions>
          <ns3:TrackPointExtension>
            <ns3:hr>117</ns3:hr>
            <ns3:cad>0</ns3:cad>
          </ns3:TrackPointExtension>
        </extensions>
      </trkpt>
      <trkpt lat="45.3503407537937164306640625" lon="-70.99916084669530391693115234375">
        <ele>778.5999755859375</ele>
        <time>2026-08-21T19:23:12.000Z</time>
        <extensions>
          <ns3:TrackPointExtension>
            <ns3:hr>116</ns3:hr>
            <ns3:cad>0</ns3:cad>
          </ns3:TrackPointExtension>
        </extensions>
      </trkpt>
      <trkpt lat="45.35033681429922580718994140625" lon="-70.999172665178775787353515625">
        <ele>778.5999755859375</ele>
        <time>2026-08-21T19:23:13.000Z</time>
        <extensions>
          <ns3:TrackPointExtension>
            <ns3:hr>113</ns3:hr>
            <ns3:cad>0</ns3:cad>
          </ns3:TrackPointExtension>
        </extensions>
      </trkpt>
      <trkpt lat="45.3503379039466381072998046875" lon="-70.9991842322051525115966796875">
        <ele>778.79998779296875</ele>
        <time>2026-08-21T19:23:14.000Z</time>
        <extensions>
          <ns3:TrackPointExtension>
            <ns3:hr>112</ns3:hr>
            <ns3:cad>0</ns3:cad>
          </ns3:TrackPointExtension>
        </extensions>
      </trkpt>
      <trkpt lat="45.35033966414630413055419921875" lon="-70.9991996549069881439208984375">
        <ele>778.79998779296875</ele>
        <time>2026-08-21T19:23:15.000Z</time>
        <extensions>
          <ns3:TrackPointExtension>
            <ns3:hr>112</ns3:hr>
            <ns3:cad>0</ns3:cad>
          </ns3:TrackPointExtension>
        </extensions>
      </trkpt>
      <trkpt lat="45.350341089069843292236328125" lon="-70.99921859800815582275390625">
        <ele>778.79998779296875</ele>
        <time>2026-08-21T19:23:16.000Z</time>
        <extensions>
          <ns3:TrackPointExtension>
            <ns3:hr>113</ns3:hr>
            <ns3:cad>0</ns3:cad>
          </ns3:TrackPointExtension>
        </extensions>
      </trkpt>
      <trkpt lat="45.35033094696700572967529296875" lon="-70.9992408938705921173095703125">
        <ele>779</ele>
        <time>2026-08-21T19:23:17.000Z</time>
        <extensions>
          <ns3:TrackPointExtension>
            <ns3:hr>113</ns3:hr>
            <ns3:cad>0</ns3:cad>
          </ns3:TrackPointExtension>
        </extensions>
      </trkpt>
      <trkpt lat="45.3503246605396270751953125" lon="-70.9992586635053157806396484375">
        <ele>779.20001220703125</ele>
        <time>2026-08-21T19:23:18.000Z</time>
        <extensions>
          <ns3:TrackPointExtension>
            <ns3:hr>113</ns3:hr>
            <ns3:cad>0</ns3:cad>
          </ns3:TrackPointExtension>
        </extensions>
      </trkpt>
      <trkpt lat="45.35031636245548725128173828125" lon="-70.9992767684161663055419921875">
        <ele>779.4000244140625</ele>
        <time>2026-08-21T19:23:19.000Z</time>
        <extensions>
          <ns3:TrackPointExtension>
            <ns3:hr>113</ns3:hr>
            <ns3:cad>0</ns3:cad>
          </ns3:TrackPointExtension>
        </extensions>
      </trkpt>
      <trkpt lat="45.35030923783779144287109375" lon="-70.99928054027259349822998046875">
        <ele>779.5999755859375</ele>
        <time>2026-08-21T19:23:20.000Z</time>
        <extensions>
          <ns3:TrackPointExtension>
            <ns3:hr>114</ns3:hr>
            <ns3:cad>0</ns3:cad>
          </ns3:TrackPointExtension>
        </extensions>
      </trkpt>
      <trkpt lat="45.3502978384494781494140625" lon="-70.99929110147058963775634765625">
        <ele>780</ele>
        <time>2026-08-21T19:23:21.000Z</time>
        <extensions>
          <ns3:TrackPointExtension>
            <ns3:hr>114</ns3:hr>
            <ns3:cad>0</ns3:cad>
          </ns3:TrackPointExtension>
        </extensions>
      </trkpt>
      <trkpt lat="45.350284762680530548095703125" lon="-70.9993039257824420928955078125">
        <ele>780.20001220703125</ele>
        <time>2026-08-21T19:23:22.000Z</time>
        <extensions>
          <ns3:TrackPointExtension>
            <ns3:hr>114</ns3:hr>
            <ns3:cad>0</ns3:cad>
          </ns3:TrackPointExtension>
        </extensions>
      </trkpt>
      <trkpt lat="45.35028082318603992462158203125" lon="-70.99931105040013790130615234375">
        <ele>780.4000244140625</ele>
        <time>2026-08-21T19:23:23.000Z</time>
        <extensions>
          <ns3:TrackPointExtension>
            <ns3:hr>115</ns3:hr>
            <ns3:cad>0</ns3:cad>
          </ns3:TrackPointExtension>
        </extensions>
      </trkpt>
      <trkpt lat="45.35027529112994670867919921875" lon="-70.9993203543126583099365234375">
        <ele>780.5999755859375</ele>
        <time>2026-08-21T19:23:24.000Z</time>
        <extensions>
          <ns3:TrackPointExtension>
            <ns3:hr>115</ns3:hr>
            <ns3:cad>0</ns3:cad>
          </ns3:TrackPointExtension>
        </extensions>
      </trkpt>
      <trkpt lat="45.3502695076167583465576171875" lon="-70.99933183752000331878662109375">
        <ele>780.79998779296875</ele>
        <time>2026-08-21T19:23:25.000Z</time>
        <extensions>
          <ns3:TrackPointExtension>
            <ns3:hr>115</ns3:hr>
            <ns3:cad>0</ns3:cad>
          </ns3:TrackPointExtension>
        </extensions>
      </trkpt>
      <trkpt lat="45.3502691723406314849853515625" lon="-70.999338626861572265625">
        <ele>781</ele>
        <time>2026-08-21T19:23:26.000Z</time>
        <extensions>
          <ns3:TrackPointExtension>
            <ns3:hr>116</ns3:hr>
            <ns3:cad>0</ns3:cad>
          </ns3:TrackPointExtension>
        </extensions>
      </trkpt>
      <trkpt lat="45.350264646112918853759765625" lon="-70.99935195408761501312255859375">
        <ele>781.20001220703125</ele>
        <time>2026-08-21T19:23:27.000Z</time>
        <extensions>
          <ns3:TrackPointExtension>
            <ns3:hr>117</ns3:hr>
            <ns3:cad>0</ns3:cad>
          </ns3:TrackPointExtension>
        </extensions>
      </trkpt>
      <trkpt lat="45.35025693476200103759765625" lon="-70.999369807541370391845703125">
        <ele>781.5999755859375</ele>
        <time>2026-08-21T19:23:28.000Z</time>
        <extensions>
          <ns3:TrackPointExtension>
            <ns3:hr>117</ns3:hr>
            <ns3:cad>0</ns3:cad>
          </ns3:TrackPointExtension>
        </extensions>
      </trkpt>
      <trkpt lat="45.35025333054363727569580078125" lon="-70.999377183616161346435546875">
        <ele>781.79998779296875</ele>
        <time>2026-08-21T19:23:29.000Z</time>
        <extensions>
          <ns3:TrackPointExtension>
            <ns3:hr>117</ns3:hr>
            <ns3:cad>0</ns3:cad>
          </ns3:TrackPointExtension>
        </extensions>
      </trkpt>
      <trkpt lat="45.350248552858829498291015625" lon="-70.99938648752868175506591796875">
        <ele>782</ele>
        <time>2026-08-21T19:23:30.000Z</time>
        <extensions>
          <ns3:TrackPointExtension>
            <ns3:hr>118</ns3:hr>
            <ns3:cad>0</ns3:cad>
          </ns3:TrackPointExtension>
        </extensions>
      </trkpt>
      <trkpt lat="45.35024796612560749053955078125" lon="-70.9993833862245082855224609375">
        <ele>782.4000244140625</ele>
        <time>2026-08-21T19:23:31.000Z</time>
        <extensions>
          <ns3:TrackPointExtension>
            <ns3:hr>118</ns3:hr>
            <ns3:cad>0</ns3:cad>
          </ns3:TrackPointExtension>
        </extensions>
      </trkpt>
      <trkpt lat="45.35023991949856281280517578125" lon="-70.9993937797844409942626953125">
        <ele>782.5999755859375</ele>
        <time>2026-08-21T19:23:32.000Z</time>
        <extensions>
          <ns3:TrackPointExtension>
            <ns3:hr>120</ns3:hr>
            <ns3:cad>0</ns3:cad>
          </ns3:TrackPointExtension>
        </extensions>
      </trkpt>
      <trkpt lat="45.35023757256567478179931640625" lon="-70.99939738400280475616455078125">
        <ele>782.79998779296875</ele>
        <time>2026-08-21T19:23:33.000Z</time>
        <extensions>
          <ns3:TrackPointExtension>
            <ns3:hr>120</ns3:hr>
            <ns3:cad>0</ns3:cad>
          </ns3:TrackPointExtension>
        </extensions>
      </trkpt>
      <trkpt lat="45.350231789052486419677734375" lon="-70.99939939565956592559814453125">
        <ele>783</ele>
        <time>2026-08-21T19:23:34.000Z</time>
        <extensions>
          <ns3:TrackPointExtension>
            <ns3:hr>121</ns3:hr>
            <ns3:cad>0</ns3:cad>
          </ns3:TrackPointExtension>
        </extensions>
      </trkpt>
      <trkpt lat="45.35022717900574207305908203125" lon="-70.99940174259245395660400390625">
        <ele>783.20001220703125</ele>
        <time>2026-08-21T19:23:35.000Z</time>
        <extensions>
          <ns3:TrackPointExtension>
            <ns3:hr>122</ns3:hr>
            <ns3:cad>0</ns3:cad>
          </ns3:TrackPointExtension>
        </extensions>
      </trkpt>
      <trkpt lat="45.35021561197936534881591796875" lon="-70.9994061850011348724365234375">
        <ele>783.4000244140625</ele>
        <time>2026-08-21T19:23:36.000Z</time>
        <extensions>
          <ns3:TrackPointExtension>
            <ns3:hr>123</ns3:hr>
            <ns3:cad>0</ns3:cad>
          </ns3:TrackPointExtension>
        </extensions>
      </trkpt>
      <trkpt lat="45.35020689480006694793701171875" lon="-70.99941196851432323455810546875">
        <ele>783.79998779296875</ele>
        <time>2026-08-21T19:23:37.000Z</time>
        <extensions>
          <ns3:TrackPointExtension>
            <ns3:hr>123</ns3:hr>
            <ns3:cad>0</ns3:cad>
          </ns3:TrackPointExtension>
        </extensions>
      </trkpt>
      <trkpt lat="45.35020655952394008636474609375" lon="-70.99941439926624298095703125">
        <ele>784</ele>
        <time>2026-08-21T19:23:38.000Z</time>
        <extensions>
          <ns3:TrackPointExtension>
            <ns3:hr>124</ns3:hr>
            <ns3:cad>0</ns3:cad>
          </ns3:TrackPointExtension>
        </extensions>
      </trkpt>
      <trkpt lat="45.350199602544307708740234375" lon="-70.99942018277943134307861328125">
        <ele>784.20001220703125</ele>
        <time>2026-08-21T19:23:39.000Z</time>
        <extensions>
          <ns3:TrackPointExtension>
            <ns3:hr>125</ns3:hr>
            <ns3:cad>0</ns3:cad>
          </ns3:TrackPointExtension>
        </extensions>
      </trkpt>
      <trkpt lat="45.35019130446016788482666015625" lon="-70.99942554719746112823486328125">
        <ele>784.4000244140625</ele>
        <time>2026-08-21T19:23:40.000Z</time>
        <extensions>
          <ns3:TrackPointExtension>
            <ns3:hr>126</ns3:hr>
            <ns3:cad>0</ns3:cad>
          </ns3:TrackPointExtension>
        </extensions>
      </trkpt>
      <trkpt lat="45.35018451511859893798828125" lon="-70.99943359382450580596923828125">
        <ele>784.5999755859375</ele>
        <time>2026-08-21T19:23:41.000Z</time>
        <extensions>
          <ns3:TrackPointExtension>
            <ns3:hr>126</ns3:hr>
            <ns3:cad>0</ns3:cad>
          </ns3:TrackPointExtension>
        </extensions>
      </trkpt>
      <trkpt lat="45.350180827081203460693359375" lon="-70.99943845532834529876708984375">
        <ele>784.79998779296875</ele>
        <time>2026-08-21T19:23:42.000Z</time>
        <extensions>
          <ns3:TrackPointExtension>
            <ns3:hr>127</ns3:hr>
            <ns3:cad>0</ns3:cad>
          </ns3:TrackPointExtension>
        </extensions>
      </trkpt>
      <trkpt lat="45.3501719422638416290283203125" lon="-70.9994450770318508148193359375">
        <ele>785</ele>
        <time>2026-08-21T19:23:43.000Z</time>
        <extensions>
          <ns3:TrackPointExtension>
            <ns3:hr>127</ns3:hr>
            <ns3:cad>0</ns3:cad>
          </ns3:TrackPointExtension>
        </extensions>
      </trkpt>
      <trkpt lat="45.35016573965549468994140625" lon="-70.99945052526891231536865234375">
        <ele>785.4000244140625</ele>
        <time>2026-08-21T19:23:44.000Z</time>
        <extensions>
          <ns3:TrackPointExtension>
            <ns3:hr>127</ns3:hr>
            <ns3:cad>0</ns3:cad>
          </ns3:TrackPointExtension>
        </extensions>
      </trkpt>
      <trkpt lat="45.3501632250845432281494140625" lon="-70.9994541294872760772705078125">
        <ele>785.5999755859375</ele>
        <time>2026-08-21T19:23:45.000Z</time>
        <extensions>
          <ns3:TrackPointExtension>
            <ns3:hr>127</ns3:hr>
            <ns3:cad>0</ns3:cad>
          </ns3:TrackPointExtension>
        </extensions>
      </trkpt>
      <trkpt lat="45.3501558490097522735595703125" lon="-70.9994631819427013397216796875">
        <ele>785.79998779296875</ele>
        <time>2026-08-21T19:23:46.000Z</time>
        <extensions>
          <ns3:TrackPointExtension>
            <ns3:hr>127</ns3:hr>
            <ns3:cad>0</ns3:cad>
          </ns3:TrackPointExtension>
        </extensions>
      </trkpt>
      <trkpt lat="45.35014185123145580291748046875" lon="-70.99946712143719196319580078125">
        <ele>786</ele>
        <time>2026-08-21T19:23:47.000Z</time>
        <extensions>
          <ns3:TrackPointExtension>
            <ns3:hr>127</ns3:hr>
            <ns3:cad>0</ns3:cad>
          </ns3:TrackPointExtension>
        </extensions>
      </trkpt>
      <trkpt lat="45.35014000721275806427001953125" lon="-70.9994740784168243408203125">
        <ele>786.20001220703125</ele>
        <time>2026-08-21T19:23:48.000Z</time>
        <extensions>
          <ns3:TrackPointExtension>
            <ns3:hr>127</ns3:hr>
            <ns3:cad>0</ns3:cad>
          </ns3:TrackPointExtension>
        </extensions>
      </trkpt>
      <trkpt lat="45.350131876766681671142578125" lon="-70.99948413670063018798828125">
        <ele>786.4000244140625</ele>
        <time>2026-08-21T19:23:49.000Z</time>
        <extensions>
          <ns3:TrackPointExtension>
            <ns3:hr>128</ns3:hr>
            <ns3:cad>0</ns3:cad>
          </ns3:TrackPointExtension>
        </extensions>
      </trkpt>
      <trkpt lat="45.35012810491025447845458984375" lon="-70.9994987212121486663818359375">
        <ele>786.5999755859375</ele>
        <time>2026-08-21T19:23:50.000Z</time>
        <extensions>
          <ns3:TrackPointExtension>
            <ns3:hr>128</ns3:hr>
            <ns3:cad>0</ns3:cad>
          </ns3:TrackPointExtension>
        </extensions>
      </trkpt>
      <trkpt lat="45.3501270152628421783447265625" lon="-70.9995143115520477294921875">
        <ele>787</ele>
        <time>2026-08-21T19:23:51.000Z</time>
        <extensions>
          <ns3:TrackPointExtension>
            <ns3:hr>130</ns3:hr>
            <ns3:cad>0</ns3:cad>
          </ns3:TrackPointExtension>
        </extensions>
      </trkpt>
      <trkpt lat="45.35012391395866870880126953125" lon="-70.999528728425502777099609375">
        <ele>787</ele>
        <time>2026-08-21T19:23:52.000Z</time>
        <extensions>
          <ns3:TrackPointExtension>
            <ns3:hr>130</ns3:hr>
            <ns3:cad>41</ns3:cad>
          </ns3:TrackPointExtension>
        </extensions>
      </trkpt>
      <trkpt lat="45.3501226566731929779052734375" lon="-70.99954004399478435516357421875">
        <ele>787.20001220703125</ele>
        <time>2026-08-21T19:23:53.000Z</time>
        <extensions>
          <ns3:TrackPointExtension>
            <ns3:hr>130</ns3:hr>
            <ns3:cad>41</ns3:cad>
          </ns3:TrackPointExtension>
        </extensions>
      </trkpt>
      <trkpt lat="45.3501256741583347320556640625" lon="-70.99954783916473388671875">
        <ele>787.4000244140625</ele>
        <time>2026-08-21T19:23:54.000Z</time>
        <extensions>
          <ns3:TrackPointExtension>
            <ns3:hr>131</ns3:hr>
            <ns3:cad>0</ns3:cad>
          </ns3:TrackPointExtension>
        </extensions>
      </trkpt>
      <trkpt lat="45.3501270152628421783447265625" lon="-70.9995652735233306884765625">
        <ele>787.5999755859375</ele>
        <time>2026-08-21T19:23:55.000Z</time>
        <extensions>
          <ns3:TrackPointExtension>
            <ns3:hr>133</ns3:hr>
            <ns3:cad>0</ns3:cad>
          </ns3:TrackPointExtension>
        </extensions>
      </trkpt>
      <trkpt lat="45.35012223757803440093994140625" lon="-70.99958362989127635955810546875">
        <ele>787.5999755859375</ele>
        <time>2026-08-21T19:23:56.000Z</time>
        <extensions>
          <ns3:TrackPointExtension>
            <ns3:hr>133</ns3:hr>
            <ns3:cad>0</ns3:cad>
          </ns3:TrackPointExtension>
        </extensions>
      </trkpt>
      <trkpt lat="45.35011871717870235443115234375" lon="-70.999596118927001953125">
        <ele>787.5999755859375</ele>
        <time>2026-08-21T19:23:57.000Z</time>
        <extensions>
          <ns3:TrackPointExtension>
            <ns3:hr>134</ns3:hr>
            <ns3:cad>44</ns3:cad>
          </ns3:TrackPointExtension>
        </extensions>
      </trkpt>
      <trkpt lat="45.350113101303577423095703125" lon="-70.9996090270578861236572265625">
        <ele>787.5999755859375</ele>
        <time>2026-08-21T19:23:58.000Z</time>
        <extensions>
          <ns3:TrackPointExtension>
            <ns3:hr>134</ns3:hr>
            <ns3:cad>44</ns3:cad>
          </ns3:TrackPointExtension>
        </extensions>
      </trkpt>
      <trkpt lat="45.35011435858905315399169921875" lon="-70.9996241144835948944091796875">
        <ele>787.5999755859375</ele>
        <time>2026-08-21T19:23:59.000Z</time>
        <extensions>
          <ns3:TrackPointExtension>
            <ns3:hr>134</ns3:hr>
            <ns3:cad>0</ns3:cad>
          </ns3:TrackPointExtension>
        </extensions>
      </trkpt>
      <trkpt lat="45.35011452622711658477783203125" lon="-70.9996403753757476806640625">
        <ele>787.5999755859375</ele>
        <time>2026-08-21T19:24:00.000Z</time>
        <extensions>
          <ns3:TrackPointExtension>
            <ns3:hr>134</ns3:hr>
            <ns3:cad>0</ns3:cad>
          </ns3:TrackPointExtension>
        </extensions>
      </trkpt>
      <trkpt lat="45.3501112572848796844482421875" lon="-70.9996646828949451446533203125">
        <ele>787.5999755859375</ele>
        <time>2026-08-21T19:24:01.000Z</time>
        <extensions>
          <ns3:TrackPointExtension>
            <ns3:hr>134</ns3:hr>
            <ns3:cad>0</ns3:cad>
          </ns3:TrackPointExtension>
        </extensions>
      </trkpt>
      <trkpt lat="45.3501079045236110687255859375" lon="-70.99968387745320796966552734375">
        <ele>787.79998779296875</ele>
        <time>2026-08-21T19:24:02.000Z</time>
        <extensions>
          <ns3:TrackPointExtension>
            <ns3:hr>133</ns3:hr>
            <ns3:cad>0</ns3:cad>
          </ns3:TrackPointExtension>
        </extensions>
      </trkpt>
      <trkpt lat="45.35010631196200847625732421875" lon="-70.99969896487891674041748046875">
        <ele>787.79998779296875</ele>
        <time>2026-08-21T19:24:03.000Z</time>
        <extensions>
          <ns3:TrackPointExtension>
            <ns3:hr>133</ns3:hr>
            <ns3:cad>0</ns3:cad>
          </ns3:TrackPointExtension>
        </extensions>
      </trkpt>
      <trkpt lat="45.35010513849556446075439453125" lon="-70.999709777534008026123046875">
        <ele>788</ele>
        <time>2026-08-21T19:24:04.000Z</time>
        <extensions>
          <ns3:TrackPointExtension>
            <ns3:hr>133</ns3:hr>
            <ns3:cad>0</ns3:cad>
          </ns3:TrackPointExtension>
        </extensions>
      </trkpt>
      <trkpt lat="45.35010631196200847625732421875" lon="-70.999727211892604827880859375">
        <ele>788.20001220703125</ele>
        <time>2026-08-21T19:24:05.000Z</time>
        <extensions>
          <ns3:TrackPointExtension>
            <ns3:hr>134</ns3:hr>
            <ns3:cad>0</ns3:cad>
          </ns3:TrackPointExtension>
        </extensions>
      </trkpt>
      <trkpt lat="45.3501102514564990997314453125" lon="-70.99974137730896472930908203125">
        <ele>788.4000244140625</ele>
        <time>2026-08-21T19:24:06.000Z</time>
        <extensions>
          <ns3:TrackPointExtension>
            <ns3:hr>134</ns3:hr>
            <ns3:cad>51</ns3:cad>
          </ns3:TrackPointExtension>
        </extensions>
      </trkpt>
      <trkpt lat="45.35011620260775089263916015625" lon="-70.99975830875337123870849609375">
        <ele>788.4000244140625</ele>
        <time>2026-08-21T19:24:07.000Z</time>
        <extensions>
          <ns3:TrackPointExtension>
            <ns3:hr>135</ns3:hr>
            <ns3:cad>51</ns3:cad>
          </ns3:TrackPointExtension>
        </extensions>
      </trkpt>
      <trkpt lat="45.3501199744641780853271484375" lon="-70.99977976642549037933349609375">
        <ele>788.5999755859375</ele>
        <time>2026-08-21T19:24:08.000Z</time>
        <extensions>
          <ns3:TrackPointExtension>
            <ns3:hr>136</ns3:hr>
            <ns3:cad>51</ns3:cad>
          </ns3:TrackPointExtension>
        </extensions>
      </trkpt>
      <trkpt lat="45.350119136273860931396484375" lon="-70.99979870952665805816650390625">
        <ele>788.5999755859375</ele>
        <time>2026-08-21T19:24:09.000Z</time>
        <extensions>
          <ns3:TrackPointExtension>
            <ns3:hr>136</ns3:hr>
            <ns3:cad>0</ns3:cad>
          </ns3:TrackPointExtension>
        </extensions>
      </trkpt>
      <trkpt lat="45.350123159587383270263671875" lon="-70.99981295876204967498779296875">
        <ele>788.5999755859375</ele>
        <time>2026-08-21T19:24:10.000Z</time>
        <extensions>
          <ns3:TrackPointExtension>
            <ns3:hr>136</ns3:hr>
            <ns3:cad>0</ns3:cad>
          </ns3:TrackPointExtension>
        </extensions>
      </trkpt>
      <trkpt lat="45.3501260094344615936279296875" lon="-70.99982569925487041473388671875">
        <ele>788.79998779296875</ele>
        <time>2026-08-21T19:24:11.000Z</time>
        <extensions>
          <ns3:TrackPointExtension>
            <ns3:hr>135</ns3:hr>
            <ns3:cad>0</ns3:cad>
          </ns3:TrackPointExtension>
        </extensions>
      </trkpt>
      <trkpt lat="45.350127853453159332275390625" lon="-70.99984296597540378570556640625">
        <ele>788.79998779296875</ele>
        <time>2026-08-21T19:24:12.000Z</time>
        <extensions>
          <ns3:TrackPointExtension>
            <ns3:hr>135</ns3:hr>
            <ns3:cad>0</ns3:cad>
          </ns3:TrackPointExtension>
        </extensions>
      </trkpt>
      <trkpt lat="45.3501270152628421783447265625" lon="-70.99986107088625431060791015625">
        <ele>789</ele>
        <time>2026-08-21T19:24:13.000Z</time>
        <extensions>
          <ns3:TrackPointExtension>
            <ns3:hr>135</ns3:hr>
            <ns3:cad>0</ns3:cad>
          </ns3:TrackPointExtension>
        </extensions>
      </trkpt>
      <trkpt lat="45.3501239977777004241943359375" lon="-70.99988152272999286651611328125">
        <ele>789</ele>
        <time>2026-08-21T19:24:14.000Z</time>
        <extensions>
          <ns3:TrackPointExtension>
            <ns3:hr>135</ns3:hr>
            <ns3:cad>59</ns3:cad>
          </ns3:TrackPointExtension>
        </extensions>
      </trkpt>
      <trkpt lat="45.35011754371225833892822265625" lon="-70.99990666843950748443603515625">
        <ele>789.20001220703125</ele>
        <time>2026-08-21T19:24:15.000Z</time>
        <extensions>
          <ns3:TrackPointExtension>
            <ns3:hr>136</ns3:hr>
            <ns3:cad>59</ns3:cad>
          </ns3:TrackPointExtension>
        </extensions>
      </trkpt>
      <trkpt lat="45.3501162864267826080322265625" lon="-70.99992980249226093292236328125">
        <ele>789.4000244140625</ele>
        <time>2026-08-21T19:24:16.000Z</time>
        <extensions>
          <ns3:TrackPointExtension>
            <ns3:hr>136</ns3:hr>
            <ns3:cad>52</ns3:cad>
          </ns3:TrackPointExtension>
        </extensions>
      </trkpt>
      <trkpt lat="45.35011435858905315399169921875" lon="-70.9999436326324939727783203125">
        <ele>789.5999755859375</ele>
        <time>2026-08-21T19:24:17.000Z</time>
        <extensions>
          <ns3:TrackPointExtension>
            <ns3:hr>136</ns3:hr>
            <ns3:cad>52</ns3:cad>
          </ns3:TrackPointExtension>
        </extensions>
      </trkpt>
      <trkpt lat="45.35011234693229198455810546875" lon="-70.9999563731253147125244140625">
        <ele>789.79998779296875</ele>
        <time>2026-08-21T19:24:18.000Z</time>
        <extensions>
          <ns3:TrackPointExtension>
            <ns3:hr>136</ns3:hr>
            <ns3:cad>0</ns3:cad>
          </ns3:TrackPointExtension>
        </extensions>
      </trkpt>
      <trkpt lat="45.3501119278371334075927734375" lon="-70.99996902979910373687744140625">
        <ele>790</ele>
        <time>2026-08-21T19:24:19.000Z</time>
        <extensions>
          <ns3:TrackPointExtension>
            <ns3:hr>137</ns3:hr>
            <ns3:cad>0</ns3:cad>
          </ns3:TrackPointExtension>
        </extensions>
      </trkpt>
      <trkpt lat="45.35010614432394504547119140625" lon="-70.999986715614795684814453125">
        <ele>790</ele>
        <time>2026-08-21T19:24:20.000Z</time>
        <extensions>
          <ns3:TrackPointExtension>
            <ns3:hr>137</ns3:hr>
            <ns3:cad>0</ns3:cad>
          </ns3:TrackPointExtension>
        </extensions>
      </trkpt>
      <trkpt lat="45.35010446794331073760986328125" lon="-70.9999922476708889007568359375">
        <ele>790.20001220703125</ele>
        <time>2026-08-21T19:24:21.000Z</time>
        <extensions>
          <ns3:TrackPointExtension>
            <ns3:hr>137</ns3:hr>
            <ns3:cad>0</ns3:cad>
          </ns3:TrackPointExtension>
        </extensions>
      </trkpt>
      <trkpt lat="45.3501001931726932525634765625" lon="-71.00000607781112194061279296875">
        <ele>790.20001220703125</ele>
        <time>2026-08-21T19:24:22.000Z</time>
        <extensions>
          <ns3:TrackPointExtension>
            <ns3:hr>137</ns3:hr>
            <ns3:cad>0</ns3:cad>
          </ns3:TrackPointExtension>
        </extensions>
      </trkpt>
      <trkpt lat="45.35009357146918773651123046875" lon="-71.0000240989029407501220703125">
        <ele>790.4000244140625</ele>
        <time>2026-08-21T19:24:23.000Z</time>
        <extensions>
          <ns3:TrackPointExtension>
            <ns3:hr>137</ns3:hr>
            <ns3:cad>0</ns3:cad>
          </ns3:TrackPointExtension>
        </extensions>
      </trkpt>
      <trkpt lat="45.35009189508855342864990234375" lon="-71.00003960542380809783935546875">
        <ele>790.5999755859375</ele>
        <time>2026-08-21T19:24:24.000Z</time>
        <extensions>
          <ns3:TrackPointExtension>
            <ns3:hr>137</ns3:hr>
            <ns3:cad>0</ns3:cad>
          </ns3:TrackPointExtension>
        </extensions>
      </trkpt>
      <trkpt lat="45.3500911407172679901123046875" lon="-71.00005402229726314544677734375">
        <ele>790.79998779296875</ele>
        <time>2026-08-21T19:24:25.000Z</time>
        <extensions>
          <ns3:TrackPointExtension>
            <ns3:hr>137</ns3:hr>
            <ns3:cad>0</ns3:cad>
          </ns3:TrackPointExtension>
        </extensions>
      </trkpt>
      <trkpt lat="45.35008569248020648956298828125" lon="-71.000072546303272247314453125">
        <ele>791</ele>
        <time>2026-08-21T19:24:26.000Z</time>
        <extensions>
          <ns3:TrackPointExtension>
            <ns3:hr>136</ns3:hr>
            <ns3:cad>0</ns3:cad>
          </ns3:TrackPointExtension>
        </extensions>
      </trkpt>
      <trkpt lat="45.3500864468514919281005859375" lon="-71.00008788518607616424560546875">
        <ele>791.20001220703125</ele>
        <time>2026-08-21T19:24:27.000Z</time>
        <extensions>
          <ns3:TrackPointExtension>
            <ns3:hr>136</ns3:hr>
            <ns3:cad>0</ns3:cad>
          </ns3:TrackPointExtension>
        </extensions>
      </trkpt>
      <trkpt lat="45.35008921287953853607177734375" lon="-71.00009861402213573455810546875">
        <ele>791.4000244140625</ele>
        <time>2026-08-21T19:24:28.000Z</time>
        <extensions>
          <ns3:TrackPointExtension>
            <ns3:hr>136</ns3:hr>
            <ns3:cad>0</ns3:cad>
          </ns3:TrackPointExtension>
        </extensions>
      </trkpt>
      <trkpt lat="45.3500913083553314208984375" lon="-71.0001075826585292816162109375">
        <ele>791.4000244140625</ele>
        <time>2026-08-21T19:24:29.000Z</time>
        <extensions>
          <ns3:TrackPointExtension>
            <ns3:hr>136</ns3:hr>
            <ns3:cad>0</ns3:cad>
          </ns3:TrackPointExtension>
        </extensions>
      </trkpt>
      <trkpt lat="45.350092314183712005615234375" lon="-71.00012384355068206787109375">
        <ele>791.5999755859375</ele>
        <time>2026-08-21T19:24:30.000Z</time>
        <extensions>
          <ns3:TrackPointExtension>
            <ns3:hr>136</ns3:hr>
            <ns3:cad>0</ns3:cad>
          </ns3:TrackPointExtension>
        </extensions>
      </trkpt>
      <trkpt lat="45.3500886261463165283203125" lon="-71.00013189017772674560546875">
        <ele>791.5999755859375</ele>
        <time>2026-08-21T19:24:31.000Z</time>
        <extensions>
          <ns3:TrackPointExtension>
            <ns3:hr>136</ns3:hr>
            <ns3:cad>0</ns3:cad>
          </ns3:TrackPointExtension>
        </extensions>
      </trkpt>
      <trkpt lat="45.35008351318538188934326171875" lon="-71.000150330364704132080078125">
        <ele>791.79998779296875</ele>
        <time>2026-08-21T19:24:32.000Z</time>
        <extensions>
          <ns3:TrackPointExtension>
            <ns3:hr>136</ns3:hr>
            <ns3:cad>0</ns3:cad>
          </ns3:TrackPointExtension>
        </extensions>
      </trkpt>
      <trkpt lat="45.35008586011826992034912109375" lon="-71.0001652501523494720458984375">
        <ele>791.79998779296875</ele>
        <time>2026-08-21T19:24:33.000Z</time>
        <extensions>
          <ns3:TrackPointExtension>
            <ns3:hr>137</ns3:hr>
            <ns3:cad>0</ns3:cad>
          </ns3:TrackPointExtension>
        </extensions>
      </trkpt>
      <trkpt lat="45.35008636303246021270751953125" lon="-71.000181175768375396728515625">
        <ele>791.79998779296875</ele>
        <time>2026-08-21T19:24:34.000Z</time>
        <extensions>
          <ns3:TrackPointExtension>
            <ns3:hr>136</ns3:hr>
            <ns3:cad>0</ns3:cad>
          </ns3:TrackPointExtension>
        </extensions>
      </trkpt>
      <trkpt lat="45.3500854410231113433837890625" lon="-71.00019735284149646759033203125">
        <ele>791.79998779296875</ele>
        <time>2026-08-21T19:24:35.000Z</time>
        <extensions>
          <ns3:TrackPointExtension>
            <ns3:hr>137</ns3:hr>
            <ns3:cad>0</ns3:cad>
          </ns3:TrackPointExtension>
        </extensions>
      </trkpt>
      <trkpt lat="45.35008351318538188934326171875" lon="-71.00020875222980976104736328125">
        <ele>792</ele>
        <time>2026-08-21T19:24:36.000Z</time>
        <extensions>
          <ns3:TrackPointExtension>
            <ns3:hr>137</ns3:hr>
            <ns3:cad>0</ns3:cad>
          </ns3:TrackPointExtension>
        </extensions>
      </trkpt>
      <trkpt lat="45.3500851057469844818115234375" lon="-71.00022836588323116302490234375">
        <ele>792</ele>
        <time>2026-08-21T19:24:37.000Z</time>
        <extensions>
          <ns3:TrackPointExtension>
            <ns3:hr>138</ns3:hr>
            <ns3:cad>0</ns3:cad>
          </ns3:TrackPointExtension>
        </extensions>
      </trkpt>
      <trkpt lat="45.35008703358471393585205078125" lon="-71.00024714134633541107177734375">
        <ele>792</ele>
        <time>2026-08-21T19:24:38.000Z</time>
        <extensions>
          <ns3:TrackPointExtension>
            <ns3:hr>137</ns3:hr>
            <ns3:cad>50</ns3:cad>
          </ns3:TrackPointExtension>
        </extensions>
      </trkpt>
      <trkpt lat="45.35008753649890422821044921875" lon="-71.0002624802291393280029296875">
        <ele>792</ele>
        <time>2026-08-21T19:24:39.000Z</time>
        <extensions>
          <ns3:TrackPointExtension>
            <ns3:hr>136</ns3:hr>
            <ns3:cad>50</ns3:cad>
          </ns3:TrackPointExtension>
        </extensions>
      </trkpt>
      <trkpt lat="45.3500886261463165283203125" lon="-71.0002762265503406524658203125">
        <ele>792</ele>
        <time>2026-08-21T19:24:40.000Z</time>
        <extensions>
          <ns3:TrackPointExtension>
            <ns3:hr>135</ns3:hr>
            <ns3:cad>50</ns3:cad>
          </ns3:TrackPointExtension>
        </extensions>
      </trkpt>
      <trkpt lat="45.35009332001209259033203125" lon="-71.00029441528022289276123046875">
        <ele>792</ele>
        <time>2026-08-21T19:24:41.000Z</time>
        <extensions>
          <ns3:TrackPointExtension>
            <ns3:hr>135</ns3:hr>
            <ns3:cad>50</ns3:cad>
          </ns3:TrackPointExtension>
        </extensions>
      </trkpt>
      <trkpt lat="45.35009625367820262908935546875" lon="-71.00030782632529735565185546875">
        <ele>791.79998779296875</ele>
        <time>2026-08-21T19:24:42.000Z</time>
        <extensions>
          <ns3:TrackPointExtension>
            <ns3:hr>134</ns3:hr>
            <ns3:cad>50</ns3:cad>
          </ns3:TrackPointExtension>
        </extensions>
      </trkpt>
      <trkpt lat="45.35009424202144145965576171875" lon="-71.000317633152008056640625">
        <ele>791.5999755859375</ele>
        <time>2026-08-21T19:24:43.000Z</time>
        <extensions>
          <ns3:TrackPointExtension>
            <ns3:hr>134</ns3:hr>
            <ns3:cad>0</ns3:cad>
          </ns3:TrackPointExtension>
        </extensions>
      </trkpt>
      <trkpt lat="45.35008569248020648956298828125" lon="-71.00033213384449481964111328125">
        <ele>791.5999755859375</ele>
        <time>2026-08-21T19:24:44.000Z</time>
        <extensions>
          <ns3:TrackPointExtension>
            <ns3:hr>134</ns3:hr>
            <ns3:cad>0</ns3:cad>
          </ns3:TrackPointExtension>
        </extensions>
      </trkpt>
      <trkpt lat="45.35008535720407962799072265625" lon="-71.0003432817757129669189453125">
        <ele>791.5999755859375</ele>
        <time>2026-08-21T19:24:45.000Z</time>
        <extensions>
          <ns3:TrackPointExtension>
            <ns3:hr>134</ns3:hr>
            <ns3:cad>0</ns3:cad>
          </ns3:TrackPointExtension>
        </extensions>
      </trkpt>
      <trkpt lat="45.35008393228054046630859375" lon="-71.000353507697582244873046875">
        <ele>791.5999755859375</ele>
        <time>2026-08-21T19:24:46.000Z</time>
        <extensions>
          <ns3:TrackPointExtension>
            <ns3:hr>133</ns3:hr>
            <ns3:cad>0</ns3:cad>
          </ns3:TrackPointExtension>
        </extensions>
      </trkpt>
      <trkpt lat="45.35008066333830356597900390625" lon="-71.00036934949457645416259765625">
        <ele>791.79998779296875</ele>
        <time>2026-08-21T19:24:47.000Z</time>
        <extensions>
          <ns3:TrackPointExtension>
            <ns3:hr>133</ns3:hr>
            <ns3:cad>0</ns3:cad>
          </ns3:TrackPointExtension>
        </extensions>
      </trkpt>
      <trkpt lat="45.35008049570024013519287109375" lon="-71.00038141943514347076416015625">
        <ele>791.79998779296875</ele>
        <time>2026-08-21T19:24:48.000Z</time>
        <extensions>
          <ns3:TrackPointExtension>
            <ns3:hr>132</ns3:hr>
            <ns3:cad>0</ns3:cad>
          </ns3:TrackPointExtension>
        </extensions>
      </trkpt>
      <trkpt lat="45.35008334554731845855712890625" lon="-71.000394411385059356689453125">
        <ele>792</ele>
        <time>2026-08-21T19:24:49.000Z</time>
        <extensions>
          <ns3:TrackPointExtension>
            <ns3:hr>132</ns3:hr>
            <ns3:cad>0</ns3:cad>
          </ns3:TrackPointExtension>
        </extensions>
      </trkpt>
      <trkpt lat="45.35008351318538188934326171875" lon="-71.0004079900681972503662109375">
        <ele>792</ele>
        <time>2026-08-21T19:24:50.000Z</time>
        <extensions>
          <ns3:TrackPointExtension>
            <ns3:hr>132</ns3:hr>
            <ns3:cad>0</ns3:cad>
          </ns3:TrackPointExtension>
        </extensions>
      </trkpt>
      <trkpt lat="45.350082255899906158447265625" lon="-71.00042265839874744415283203125">
        <ele>792.20001220703125</ele>
        <time>2026-08-21T19:24:51.000Z</time>
        <extensions>
          <ns3:TrackPointExtension>
            <ns3:hr>132</ns3:hr>
            <ns3:cad>0</ns3:cad>
          </ns3:TrackPointExtension>
        </extensions>
      </trkpt>
      <trkpt lat="45.3500797413289546966552734375" lon="-71.00043900310993194580078125">
        <ele>792.20001220703125</ele>
        <time>2026-08-21T19:24:52.000Z</time>
        <extensions>
          <ns3:TrackPointExtension>
            <ns3:hr>132</ns3:hr>
            <ns3:cad>0</ns3:cad>
          </ns3:TrackPointExtension>
        </extensions>
      </trkpt>
      <trkpt lat="45.35007714293897151947021484375" lon="-71.00045618601143360137939453125">
        <ele>792.20001220703125</ele>
        <time>2026-08-21T19:24:53.000Z</time>
        <extensions>
          <ns3:TrackPointExtension>
            <ns3:hr>132</ns3:hr>
            <ns3:cad>0</ns3:cad>
          </ns3:TrackPointExtension>
        </extensions>
      </trkpt>
      <trkpt lat="45.35007781349122524261474609375" lon="-71.00047655403614044189453125">
        <ele>792.20001220703125</ele>
        <time>2026-08-21T19:24:54.000Z</time>
        <extensions>
          <ns3:TrackPointExtension>
            <ns3:hr>132</ns3:hr>
            <ns3:cad>0</ns3:cad>
          </ns3:TrackPointExtension>
        </extensions>
      </trkpt>
      <trkpt lat="45.35007982514798641204833984375" lon="-71.0004985146224498748779296875">
        <ele>792.4000244140625</ele>
        <time>2026-08-21T19:24:55.000Z</time>
        <extensions>
          <ns3:TrackPointExtension>
            <ns3:hr>131</ns3:hr>
            <ns3:cad>0</ns3:cad>
          </ns3:TrackPointExtension>
        </extensions>
      </trkpt>
      <trkpt lat="45.35008351318538188934326171875" lon="-71.0005283541977405548095703125">
        <ele>792.4000244140625</ele>
        <time>2026-08-21T19:24:56.000Z</time>
        <extensions>
          <ns3:TrackPointExtension>
            <ns3:hr>131</ns3:hr>
            <ns3:cad>0</ns3:cad>
          </ns3:TrackPointExtension>
        </extensions>
      </trkpt>
      <trkpt lat="45.35008988343179225921630859375" lon="-71.0005501471459865570068359375">
        <ele>792.4000244140625</ele>
        <time>2026-08-21T19:24:57.000Z</time>
        <extensions>
          <ns3:TrackPointExtension>
            <ns3:hr>131</ns3:hr>
            <ns3:cad>0</ns3:cad>
          </ns3:TrackPointExtension>
        </extensions>
      </trkpt>
      <trkpt lat="45.3500991873443126678466796875" lon="-71.0005722753703594207763671875">
        <ele>792.20001220703125</ele>
        <time>2026-08-21T19:24:58.000Z</time>
        <extensions>
          <ns3:TrackPointExtension>
            <ns3:hr>131</ns3:hr>
            <ns3:cad>53</ns3:cad>
          </ns3:TrackPointExtension>
        </extensions>
      </trkpt>
      <trkpt lat="45.35010832361876964569091796875" lon="-71.00059264339506626129150390625">
        <ele>792.20001220703125</ele>
        <time>2026-08-21T19:24:59.000Z</time>
        <extensions>
          <ns3:TrackPointExtension>
            <ns3:hr>130</ns3:hr>
            <ns3:cad>53</ns3:cad>
          </ns3:TrackPointExtension>
        </extensions>
      </trkpt>
      <trkpt lat="45.35011352039873600006103515625" lon="-71.0006161965429782867431640625">
        <ele>792</ele>
        <time>2026-08-21T19:25:00.000Z</time>
        <extensions>
          <ns3:TrackPointExtension>
            <ns3:hr>130</ns3:hr>
            <ns3:cad>53</ns3:cad>
          </ns3:TrackPointExtension>
        </extensions>
      </trkpt>
      <trkpt lat="45.35012424923479557037353515625" lon="-71.00064419209957122802734375">
        <ele>791.5999755859375</ele>
        <time>2026-08-21T19:25:01.000Z</time>
        <extensions>
          <ns3:TrackPointExtension>
            <ns3:hr>130</ns3:hr>
            <ns3:cad>53</ns3:cad>
          </ns3:TrackPointExtension>
        </extensions>
      </trkpt>
      <trkpt lat="45.35013162530958652496337890625" lon="-71.0006644763052463531494140625">
        <ele>791.4000244140625</ele>
        <time>2026-08-21T19:25:02.000Z</time>
        <extensions>
          <ns3:TrackPointExtension>
            <ns3:hr>130</ns3:hr>
            <ns3:cad>53</ns3:cad>
          </ns3:TrackPointExtension>
        </extensions>
      </trkpt>
      <trkpt lat="45.3501404263079166412353515625" lon="-71.00069247186183929443359375">
        <ele>791.20001220703125</ele>
        <time>2026-08-21T19:25:03.000Z</time>
        <extensions>
          <ns3:TrackPointExtension>
            <ns3:hr>129</ns3:hr>
            <ns3:cad>53</ns3:cad>
          </ns3:TrackPointExtension>
        </extensions>
      </trkpt>
      <trkpt lat="45.350143946707248687744140625" lon="-71.0007241554558277130126953125">
        <ele>791</ele>
        <time>2026-08-21T19:25:04.000Z</time>
        <extensions>
          <ns3:TrackPointExtension>
            <ns3:hr>130</ns3:hr>
            <ns3:cad>75</ns3:cad>
          </ns3:TrackPointExtension>
        </extensions>
      </trkpt>
      <trkpt lat="45.3501427732408046722412109375" lon="-71.00074569694697856903076171875">
        <ele>791</ele>
        <time>2026-08-21T19:25:05.000Z</time>
        <extensions>
          <ns3:TrackPointExtension>
            <ns3:hr>129</ns3:hr>
            <ns3:cad>74</ns3:cad>
          </ns3:TrackPointExtension>
        </extensions>
      </trkpt>
      <trkpt lat="45.35014570690691471099853515625" lon="-71.00076044909656047821044921875">
        <ele>791</ele>
        <time>2026-08-21T19:25:06.000Z</time>
        <extensions>
          <ns3:TrackPointExtension>
            <ns3:hr>129</ns3:hr>
            <ns3:cad>74</ns3:cad>
          </ns3:TrackPointExtension>
        </extensions>
      </trkpt>
      <trkpt lat="45.35014889203011989593505859375" lon="-71.00077754817903041839599609375">
        <ele>791.20001220703125</ele>
        <time>2026-08-21T19:25:07.000Z</time>
        <extensions>
          <ns3:TrackPointExtension>
            <ns3:hr>129</ns3:hr>
            <ns3:cad>75</ns3:cad>
          </ns3:TrackPointExtension>
        </extensions>
      </trkpt>
      <trkpt lat="45.3501488082110881805419921875" lon="-71.0007928870618343353271484375">
        <ele>791.4000244140625</ele>
        <time>2026-08-21T19:25:08.000Z</time>
        <extensions>
          <ns3:TrackPointExtension>
            <ns3:hr>129</ns3:hr>
            <ns3:cad>75</ns3:cad>
          </ns3:TrackPointExtension>
        </extensions>
      </trkpt>
      <trkpt lat="45.35014570690691471099853515625" lon="-71.00080319680273532867431640625">
        <ele>791.5999755859375</ele>
        <time>2026-08-21T19:25:09.000Z</time>
        <extensions>
          <ns3:TrackPointExtension>
            <ns3:hr>128</ns3:hr>
            <ns3:cad>75</ns3:cad>
          </ns3:TrackPointExtension>
        </extensions>
      </trkpt>
      <trkpt lat="45.35014553926885128021240234375" lon="-71.0008180327713489532470703125">
        <ele>791.79998779296875</ele>
        <time>2026-08-21T19:25:10.000Z</time>
        <extensions>
          <ns3:TrackPointExtension>
            <ns3:hr>128</ns3:hr>
            <ns3:cad>75</ns3:cad>
          </ns3:TrackPointExtension>
        </extensions>
      </trkpt>
      <trkpt lat="45.35014386288821697235107421875" lon="-71.00082683376967906951904296875">
        <ele>792</ele>
        <time>2026-08-21T19:25:11.000Z</time>
        <extensions>
          <ns3:TrackPointExtension>
            <ns3:hr>128</ns3:hr>
            <ns3:cad>75</ns3:cad>
          </ns3:TrackPointExtension>
        </extensions>
      </trkpt>
      <trkpt lat="45.35014084540307521820068359375" lon="-71.0008398257195949554443359375">
        <ele>792</ele>
        <time>2026-08-21T19:25:12.000Z</time>
        <extensions>
          <ns3:TrackPointExtension>
            <ns3:hr>128</ns3:hr>
            <ns3:cad>0</ns3:cad>
          </ns3:TrackPointExtension>
        </extensions>
      </trkpt>
      <trkpt lat="45.3501387499272823333740234375" lon="-71.00085164420306682586669921875">
        <ele>792.20001220703125</ele>
        <time>2026-08-21T19:25:13.000Z</time>
        <extensions>
          <ns3:TrackPointExtension>
            <ns3:hr>128</ns3:hr>
            <ns3:cad>0</ns3:cad>
          </ns3:TrackPointExtension>
        </extensions>
      </trkpt>
      <trkpt lat="45.350137241184711456298828125" lon="-71.00087326951324939727783203125">
        <ele>792.20001220703125</ele>
        <time>2026-08-21T19:25:14.000Z</time>
        <extensions>
          <ns3:TrackPointExtension>
            <ns3:hr>127</ns3:hr>
            <ns3:cad>0</ns3:cad>
          </ns3:TrackPointExtension>
        </extensions>
      </trkpt>
      <trkpt lat="45.35014134831726551055908203125" lon="-71.0008931346237659454345703125">
        <ele>792.4000244140625</ele>
        <time>2026-08-21T19:25:15.000Z</time>
        <extensions>
          <ns3:TrackPointExtension>
            <ns3:hr>127</ns3:hr>
            <ns3:cad>0</ns3:cad>
          </ns3:TrackPointExtension>
        </extensions>
      </trkpt>
      <trkpt lat="45.35015107132494449615478515625" lon="-71.00091702304780483245849609375">
        <ele>792.4000244140625</ele>
        <time>2026-08-21T19:25:16.000Z</time>
        <extensions>
          <ns3:TrackPointExtension>
            <ns3:hr>126</ns3:hr>
            <ns3:cad>0</ns3:cad>
          </ns3:TrackPointExtension>
        </extensions>
      </trkpt>
      <trkpt lat="45.35015635192394256591796875" lon="-71.00094015710055828094482421875">
        <ele>792.4000244140625</ele>
        <time>2026-08-21T19:25:17.000Z</time>
        <extensions>
          <ns3:TrackPointExtension>
            <ns3:hr>126</ns3:hr>
            <ns3:cad>0</ns3:cad>
          </ns3:TrackPointExtension>
        </extensions>
      </trkpt>
      <trkpt lat="45.3501655720174312591552734375" lon="-71.00095641799271106719970703125">
        <ele>792.20001220703125</ele>
        <time>2026-08-21T19:25:18.000Z</time>
        <extensions>
          <ns3:TrackPointExtension>
            <ns3:hr>126</ns3:hr>
            <ns3:cad>0</ns3:cad>
          </ns3:TrackPointExtension>
        </extensions>
      </trkpt>
      <trkpt lat="45.3501739539206027984619140625" lon="-71.00097167305648326873779296875">
        <ele>792.20001220703125</ele>
        <time>2026-08-21T19:25:19.000Z</time>
        <extensions>
          <ns3:TrackPointExtension>
            <ns3:hr>126</ns3:hr>
            <ns3:cad>0</ns3:cad>
          </ns3:TrackPointExtension>
        </extensions>
      </trkpt>
      <trkpt lat="45.35018409602344036102294921875" lon="-71.0009895265102386474609375">
        <ele>792</ele>
        <time>2026-08-21T19:25:20.000Z</time>
        <extensions>
          <ns3:TrackPointExtension>
            <ns3:hr>125</ns3:hr>
            <ns3:cad>0</ns3:cad>
          </ns3:TrackPointExtension>
        </extensions>
      </trkpt>
      <trkpt lat="45.35019281320273876190185546875" lon="-71.00100494921207427978515625">
        <ele>791.5999755859375</ele>
        <time>2026-08-21T19:25:21.000Z</time>
        <extensions>
          <ns3:TrackPointExtension>
            <ns3:hr>125</ns3:hr>
            <ns3:cad>0</ns3:cad>
          </ns3:TrackPointExtension>
        </extensions>
      </trkpt>
      <trkpt lat="45.35020236857235431671142578125" lon="-71.0010225512087345123291015625">
        <ele>791.4000244140625</ele>
        <time>2026-08-21T19:25:22.000Z</time>
        <extensions>
          <ns3:TrackPointExtension>
            <ns3:hr>125</ns3:hr>
            <ns3:cad>62</ns3:cad>
          </ns3:TrackPointExtension>
        </extensions>
      </trkpt>
      <trkpt lat="45.35020387731492519378662109375" lon="-71.00103872828185558319091796875">
        <ele>791.4000244140625</ele>
        <time>2026-08-21T19:25:23.000Z</time>
        <extensions>
          <ns3:TrackPointExtension>
            <ns3:hr>125</ns3:hr>
            <ns3:cad>62</ns3:cad>
          </ns3:TrackPointExtension>
        </extensions>
      </trkpt>
      <trkpt lat="45.3502047993242740631103515625" lon="-71.0010547377169132232666015625">
        <ele>791.20001220703125</ele>
        <time>2026-08-21T19:25:24.000Z</time>
        <extensions>
          <ns3:TrackPointExtension>
            <ns3:hr>126</ns3:hr>
            <ns3:cad>62</ns3:cad>
          </ns3:TrackPointExtension>
        </extensions>
      </trkpt>
      <trkpt lat="45.35020505078136920928955078125" lon="-71.00106638856232166290283203125">
        <ele>791.20001220703125</ele>
        <time>2026-08-21T19:25:25.000Z</time>
        <extensions>
          <ns3:TrackPointExtension>
            <ns3:hr>125</ns3:hr>
            <ns3:cad>62</ns3:cad>
          </ns3:TrackPointExtension>
        </extensions>
      </trkpt>
      <trkpt lat="45.3502024523913860321044921875" lon="-71.00108214654028415679931640625">
        <ele>791.4000244140625</ele>
        <time>2026-08-21T19:25:26.000Z</time>
        <extensions>
          <ns3:TrackPointExtension>
            <ns3:hr>126</ns3:hr>
            <ns3:cad>62</ns3:cad>
          </ns3:TrackPointExtension>
        </extensions>
      </trkpt>
      <trkpt lat="45.350204966962337493896484375" lon="-71.0011021792888641357421875">
        <ele>791.4000244140625</ele>
        <time>2026-08-21T19:25:27.000Z</time>
        <extensions>
          <ns3:TrackPointExtension>
            <ns3:hr>126</ns3:hr>
            <ns3:cad>62</ns3:cad>
          </ns3:TrackPointExtension>
        </extensions>
      </trkpt>
      <trkpt lat="45.3502058051526546478271484375" lon="-71.0011196136474609375">
        <ele>791.4000244140625</ele>
        <time>2026-08-21T19:25:28.000Z</time>
        <extensions>
          <ns3:TrackPointExtension>
            <ns3:hr>126</ns3:hr>
            <ns3:cad>62</ns3:cad>
          </ns3:TrackPointExtension>
        </extensions>
      </trkpt>
      <trkpt lat="45.3502058051526546478271484375" lon="-71.0011385567486286163330078125">
        <ele>791.5999755859375</ele>
        <time>2026-08-21T19:25:29.000Z</time>
        <extensions>
          <ns3:TrackPointExtension>
            <ns3:hr>125</ns3:hr>
            <ns3:cad>0</ns3:cad>
          </ns3:TrackPointExtension>
        </extensions>
      </trkpt>
      <trkpt lat="45.35020655952394008636474609375" lon="-71.001148782670497894287109375">
        <ele>791.5999755859375</ele>
        <time>2026-08-21T19:25:30.000Z</time>
        <extensions>
          <ns3:TrackPointExtension>
            <ns3:hr>125</ns3:hr>
            <ns3:cad>0</ns3:cad>
          </ns3:TrackPointExtension>
        </extensions>
      </trkpt>
      <trkpt lat="45.35020505078136920928955078125" lon="-71.00116764195263385772705078125">
        <ele>791.79998779296875</ele>
        <time>2026-08-21T19:25:31.000Z</time>
        <extensions>
          <ns3:TrackPointExtension>
            <ns3:hr>125</ns3:hr>
            <ns3:cad>0</ns3:cad>
          </ns3:TrackPointExtension>
        </extensions>
      </trkpt>
      <trkpt lat="45.35019884817302227020263671875" lon="-71.0011791251599788665771484375">
        <ele>792</ele>
        <time>2026-08-21T19:25:32.000Z</time>
        <extensions>
          <ns3:TrackPointExtension>
            <ns3:hr>125</ns3:hr>
            <ns3:cad>0</ns3:cad>
          </ns3:TrackPointExtension>
        </extensions>
      </trkpt>
      <trkpt lat="45.35019457340240478515625" lon="-71.00120351649820804595947265625">
        <ele>792.20001220703125</ele>
        <time>2026-08-21T19:25:33.000Z</time>
        <extensions>
          <ns3:TrackPointExtension>
            <ns3:hr>126</ns3:hr>
            <ns3:cad>0</ns3:cad>
          </ns3:TrackPointExtension>
        </extensions>
      </trkpt>
      <trkpt lat="45.35019616596400737762451171875" lon="-71.00122648291289806365966796875">
        <ele>792.4000244140625</ele>
        <time>2026-08-21T19:25:34.000Z</time>
        <extensions>
          <ns3:TrackPointExtension>
            <ns3:hr>125</ns3:hr>
            <ns3:cad>0</ns3:cad>
          </ns3:TrackPointExtension>
        </extensions>
      </trkpt>
      <trkpt lat="45.3501977585256099700927734375" lon="-71.00124257616698741912841796875">
        <ele>792.5999755859375</ele>
        <time>2026-08-21T19:25:35.000Z</time>
        <extensions>
          <ns3:TrackPointExtension>
            <ns3:hr>125</ns3:hr>
            <ns3:cad>0</ns3:cad>
          </ns3:TrackPointExtension>
        </extensions>
      </trkpt>
      <trkpt lat="45.35020069219172000885009765625" lon="-71.00125883705914020538330078125">
        <ele>792.5999755859375</ele>
        <time>2026-08-21T19:25:36.000Z</time>
        <extensions>
          <ns3:TrackPointExtension>
            <ns3:hr>126</ns3:hr>
            <ns3:cad>0</ns3:cad>
          </ns3:TrackPointExtension>
        </extensions>
      </trkpt>
      <trkpt lat="45.3501940704882144927978515625" lon="-71.00128632970154285430908203125">
        <ele>792.79998779296875</ele>
        <time>2026-08-21T19:25:37.000Z</time>
        <extensions>
          <ns3:TrackPointExtension>
            <ns3:hr>126</ns3:hr>
            <ns3:cad>0</ns3:cad>
          </ns3:TrackPointExtension>
        </extensions>
      </trkpt>
      <trkpt lat="45.350191891193389892578125" lon="-71.00130510516464710235595703125">
        <ele>792.79998779296875</ele>
        <time>2026-08-21T19:25:38.000Z</time>
        <extensions>
          <ns3:TrackPointExtension>
            <ns3:hr>126</ns3:hr>
            <ns3:cad>62</ns3:cad>
          </ns3:TrackPointExtension>
        </extensions>
      </trkpt>
      <trkpt lat="45.35019163973629474639892578125" lon="-71.00132170133292675018310546875">
        <ele>792.79998779296875</ele>
        <time>2026-08-21T19:25:39.000Z</time>
        <extensions>
          <ns3:TrackPointExtension>
            <ns3:hr>126</ns3:hr>
            <ns3:cad>62</ns3:cad>
          </ns3:TrackPointExtension>
        </extensions>
      </trkpt>
      <trkpt lat="45.35019163973629474639892578125" lon="-71.00133410654962062835693359375">
        <ele>792.79998779296875</ele>
        <time>2026-08-21T19:25:40.000Z</time>
        <extensions>
          <ns3:TrackPointExtension>
            <ns3:hr>125</ns3:hr>
            <ns3:cad>62</ns3:cad>
          </ns3:TrackPointExtension>
        </extensions>
      </trkpt>
      <trkpt lat="45.350190885365009307861328125" lon="-71.001345254480838775634765625">
        <ele>793</ele>
        <time>2026-08-21T19:25:41.000Z</time>
        <extensions>
          <ns3:TrackPointExtension>
            <ns3:hr>126</ns3:hr>
            <ns3:cad>0</ns3:cad>
          </ns3:TrackPointExtension>
        </extensions>
      </trkpt>
      <trkpt lat="45.35019650124013423919677734375" lon="-71.001365371048450469970703125">
        <ele>793</ele>
        <time>2026-08-21T19:25:42.000Z</time>
        <extensions>
          <ns3:TrackPointExtension>
            <ns3:hr>126</ns3:hr>
            <ns3:cad>0</ns3:cad>
          </ns3:TrackPointExtension>
        </extensions>
      </trkpt>
      <trkpt lat="45.35020438022911548614501953125" lon="-71.0013829730451107025146484375">
        <ele>793</ele>
        <time>2026-08-21T19:25:43.000Z</time>
        <extensions>
          <ns3:TrackPointExtension>
            <ns3:hr>126</ns3:hr>
            <ns3:cad>0</ns3:cad>
          </ns3:TrackPointExtension>
        </extensions>
      </trkpt>
      <trkpt lat="45.35021158866584300994873046875" lon="-71.00140384398400783538818359375">
        <ele>793</ele>
        <time>2026-08-21T19:25:44.000Z</time>
        <extensions>
          <ns3:TrackPointExtension>
            <ns3:hr>125</ns3:hr>
            <ns3:cad>0</ns3:cad>
          </ns3:TrackPointExtension>
        </extensions>
      </trkpt>
      <trkpt lat="45.35021963529288768768310546875" lon="-71.00143033079802989959716796875">
        <ele>793</ele>
        <time>2026-08-21T19:25:45.000Z</time>
        <extensions>
          <ns3:TrackPointExtension>
            <ns3:hr>125</ns3:hr>
            <ns3:cad>0</ns3:cad>
          </ns3:TrackPointExtension>
        </extensions>
      </trkpt>
      <trkpt lat="45.35022516734898090362548828125" lon="-71.00145782344043254852294921875">
        <ele>793</ele>
        <time>2026-08-21T19:25:46.000Z</time>
        <extensions>
          <ns3:TrackPointExtension>
            <ns3:hr>125</ns3:hr>
            <ns3:cad>0</ns3:cad>
          </ns3:TrackPointExtension>
        </extensions>
      </trkpt>
      <trkpt lat="45.3502286039292812347412109375" lon="-71.00147039629518985748291015625">
        <ele>793</ele>
        <time>2026-08-21T19:25:47.000Z</time>
        <extensions>
          <ns3:TrackPointExtension>
            <ns3:hr>125</ns3:hr>
            <ns3:cad>0</ns3:cad>
          </ns3:TrackPointExtension>
        </extensions>
      </trkpt>
      <trkpt lat="45.35022483207285404205322265625" lon="-71.00149252451956272125244140625">
        <ele>793</ele>
        <time>2026-08-21T19:25:48.000Z</time>
        <extensions>
          <ns3:TrackPointExtension>
            <ns3:hr>125</ns3:hr>
            <ns3:cad>0</ns3:cad>
          </ns3:TrackPointExtension>
        </extensions>
      </trkpt>
      <trkpt lat="45.35022432915866374969482421875" lon="-71.001512892544269561767578125">
        <ele>793.20001220703125</ele>
        <time>2026-08-21T19:25:49.000Z</time>
        <extensions>
          <ns3:TrackPointExtension>
            <ns3:hr>125</ns3:hr>
            <ns3:cad>0</ns3:cad>
          </ns3:TrackPointExtension>
        </extensions>
      </trkpt>
      <trkpt lat="45.35022466443479061126708984375" lon="-71.00152621977031230926513671875">
        <ele>793.20001220703125</ele>
        <time>2026-08-21T19:25:50.000Z</time>
        <extensions>
          <ns3:TrackPointExtension>
            <ns3:hr>125</ns3:hr>
            <ns3:cad>0</ns3:cad>
          </ns3:TrackPointExtension>
        </extensions>
      </trkpt>
      <trkpt lat="45.35022399388253688812255859375" lon="-71.0015380382537841796875">
        <ele>793.4000244140625</ele>
        <time>2026-08-21T19:25:51.000Z</time>
        <extensions>
          <ns3:TrackPointExtension>
            <ns3:hr>125</ns3:hr>
            <ns3:cad>0</ns3:cad>
          </ns3:TrackPointExtension>
        </extensions>
      </trkpt>
      <trkpt lat="45.35022315569221973419189453125" lon="-71.00155287422239780426025390625">
        <ele>793.4000244140625</ele>
        <time>2026-08-21T19:25:52.000Z</time>
        <extensions>
          <ns3:TrackPointExtension>
            <ns3:hr>124</ns3:hr>
            <ns3:cad>0</ns3:cad>
          </ns3:TrackPointExtension>
        </extensions>
      </trkpt>
      <trkpt lat="45.35022332333028316497802734375" lon="-71.00157634355127811431884765625">
        <ele>793.5999755859375</ele>
        <time>2026-08-21T19:25:53.000Z</time>
        <extensions>
          <ns3:TrackPointExtension>
            <ns3:hr>124</ns3:hr>
            <ns3:cad>0</ns3:cad>
          </ns3:TrackPointExtension>
        </extensions>
      </trkpt>
      <trkpt lat="45.35022567026317119598388671875" lon="-71.00160014815628528594970703125">
        <ele>793.5999755859375</ele>
        <time>2026-08-21T19:25:54.000Z</time>
        <extensions>
          <ns3:TrackPointExtension>
            <ns3:hr>124</ns3:hr>
            <ns3:cad>0</ns3:cad>
          </ns3:TrackPointExtension>
        </extensions>
      </trkpt>
      <trkpt lat="45.3502316214144229888916015625" lon="-71.0016183368861675262451171875">
        <ele>793.5999755859375</ele>
        <time>2026-08-21T19:25:55.000Z</time>
        <extensions>
          <ns3:TrackPointExtension>
            <ns3:hr>125</ns3:hr>
            <ns3:cad>0</ns3:cad>
          </ns3:TrackPointExtension>
        </extensions>
      </trkpt>
      <trkpt lat="45.350238494575023651123046875" lon="-71.001640968024730682373046875">
        <ele>793.5999755859375</ele>
        <time>2026-08-21T19:25:56.000Z</time>
        <extensions>
          <ns3:TrackPointExtension>
            <ns3:hr>124</ns3:hr>
            <ns3:cad>0</ns3:cad>
          </ns3:TrackPointExtension>
        </extensions>
      </trkpt>
      <trkpt lat="45.35023874603211879730224609375" lon="-71.001654379069805145263671875">
        <ele>793.5999755859375</ele>
        <time>2026-08-21T19:25:57.000Z</time>
        <extensions>
          <ns3:TrackPointExtension>
            <ns3:hr>124</ns3:hr>
            <ns3:cad>0</ns3:cad>
          </ns3:TrackPointExtension>
        </extensions>
      </trkpt>
      <trkpt lat="45.3502446971833705902099609375" lon="-71.0016703046858310699462890625">
        <ele>793.4000244140625</ele>
        <time>2026-08-21T19:25:58.000Z</time>
        <extensions>
          <ns3:TrackPointExtension>
            <ns3:hr>125</ns3:hr>
            <ns3:cad>0</ns3:cad>
          </ns3:TrackPointExtension>
        </extensions>
      </trkpt>
      <trkpt lat="45.3502446971833705902099609375" lon="-71.00168530829250812530517578125">
        <ele>793.4000244140625</ele>
        <time>2026-08-21T19:25:59.000Z</time>
        <extensions>
          <ns3:TrackPointExtension>
            <ns3:hr>124</ns3:hr>
            <ns3:cad>0</ns3:cad>
          </ns3:TrackPointExtension>
        </extensions>
      </trkpt>
      <trkpt lat="45.35024561919271945953369140625" lon="-71.00169704295694828033447265625">
        <ele>793.4000244140625</ele>
        <time>2026-08-21T19:26:00.000Z</time>
        <extensions>
          <ns3:TrackPointExtension>
            <ns3:hr>125</ns3:hr>
            <ns3:cad>0</ns3:cad>
          </ns3:TrackPointExtension>
        </extensions>
      </trkpt>
      <trkpt lat="45.3502537496387958526611328125" lon="-71.00171464495360851287841796875">
        <ele>793.5999755859375</ele>
        <time>2026-08-21T19:26:01.000Z</time>
        <extensions>
          <ns3:TrackPointExtension>
            <ns3:hr>124</ns3:hr>
            <ns3:cad>0</ns3:cad>
          </ns3:TrackPointExtension>
        </extensions>
      </trkpt>
      <trkpt lat="45.350265316665172576904296875" lon="-71.00173526443541049957275390625">
        <ele>793.5999755859375</ele>
        <time>2026-08-21T19:26:02.000Z</time>
        <extensions>
          <ns3:TrackPointExtension>
            <ns3:hr>124</ns3:hr>
            <ns3:cad>0</ns3:cad>
          </ns3:TrackPointExtension>
        </extensions>
      </trkpt>
      <trkpt lat="45.35026992671191692352294921875" lon="-71.00174968130886554718017578125">
        <ele>793.5999755859375</ele>
        <time>2026-08-21T19:26:03.000Z</time>
        <extensions>
          <ns3:TrackPointExtension>
            <ns3:hr>124</ns3:hr>
            <ns3:cad>0</ns3:cad>
          </ns3:TrackPointExtension>
        </extensions>
      </trkpt>
      <trkpt lat="45.35027571022510528564453125" lon="-71.00176879204809665679931640625">
        <ele>793.4000244140625</ele>
        <time>2026-08-21T19:26:04.000Z</time>
        <extensions>
          <ns3:TrackPointExtension>
            <ns3:hr>123</ns3:hr>
            <ns3:cad>0</ns3:cad>
          </ns3:TrackPointExtension>
        </extensions>
      </trkpt>
      <trkpt lat="45.3502852655947208404541015625" lon="-71.0017861425876617431640625">
        <ele>793.4000244140625</ele>
        <time>2026-08-21T19:26:05.000Z</time>
        <extensions>
          <ns3:TrackPointExtension>
            <ns3:hr>123</ns3:hr>
            <ns3:cad>0</ns3:cad>
          </ns3:TrackPointExtension>
        </extensions>
      </trkpt>
      <trkpt lat="45.3502916358411312103271484375" lon="-71.00180718116462230682373046875">
        <ele>793</ele>
        <time>2026-08-21T19:26:06.000Z</time>
        <extensions>
          <ns3:TrackPointExtension>
            <ns3:hr>123</ns3:hr>
            <ns3:cad>0</ns3:cad>
          </ns3:TrackPointExtension>
        </extensions>
      </trkpt>
      <trkpt lat="45.3502970002591609954833984375" lon="-71.0018238611519336700439453125">
        <ele>792.79998779296875</ele>
        <time>2026-08-21T19:26:07.000Z</time>
        <extensions>
          <ns3:TrackPointExtension>
            <ns3:hr>123</ns3:hr>
            <ns3:cad>0</ns3:cad>
          </ns3:TrackPointExtension>
        </extensions>
      </trkpt>
      <trkpt lat="45.35030093975365161895751953125" lon="-71.001836098730564117431640625">
        <ele>792.5999755859375</ele>
        <time>2026-08-21T19:26:08.000Z</time>
        <extensions>
          <ns3:TrackPointExtension>
            <ns3:hr>124</ns3:hr>
            <ns3:cad>0</ns3:cad>
          </ns3:TrackPointExtension>
        </extensions>
      </trkpt>
      <trkpt lat="45.35030647180974483489990234375" lon="-71.001854874193668365478515625">
        <ele>792.4000244140625</ele>
        <time>2026-08-21T19:26:09.000Z</time>
        <extensions>
          <ns3:TrackPointExtension>
            <ns3:hr>123</ns3:hr>
            <ns3:cad>0</ns3:cad>
          </ns3:TrackPointExtension>
        </extensions>
      </trkpt>
      <trkpt lat="45.350310243666172027587890625" lon="-71.00187339819967746734619140625">
        <ele>792.20001220703125</ele>
        <time>2026-08-21T19:26:10.000Z</time>
        <extensions>
          <ns3:TrackPointExtension>
            <ns3:hr>122</ns3:hr>
            <ns3:cad>0</ns3:cad>
          </ns3:TrackPointExtension>
        </extensions>
      </trkpt>
      <trkpt lat="45.35031368024647235870361328125" lon="-71.0018889047205448150634765625">
        <ele>792.20001220703125</ele>
        <time>2026-08-21T19:26:11.000Z</time>
        <extensions>
          <ns3:TrackPointExtension>
            <ns3:hr>122</ns3:hr>
            <ns3:cad>0</ns3:cad>
          </ns3:TrackPointExtension>
        </extensions>
      </trkpt>
      <trkpt lat="45.350320637226104736328125" lon="-71.00190860219299793243408203125">
        <ele>792.20001220703125</ele>
        <time>2026-08-21T19:26:12.000Z</time>
        <extensions>
          <ns3:TrackPointExtension>
            <ns3:hr>122</ns3:hr>
            <ns3:cad>19</ns3:cad>
          </ns3:TrackPointExtension>
        </extensions>
      </trkpt>
      <trkpt lat="45.35032943822443485260009765625" lon="-71.0019257850944995880126953125">
        <ele>792.20001220703125</ele>
        <time>2026-08-21T19:26:13.000Z</time>
        <extensions>
          <ns3:TrackPointExtension>
            <ns3:hr>122</ns3:hr>
            <ns3:cad>19</ns3:cad>
          </ns3:TrackPointExtension>
        </extensions>
      </trkpt>
      <trkpt lat="45.3503368981182575225830078125" lon="-71.00193567574024200439453125">
        <ele>792.20001220703125</ele>
        <time>2026-08-21T19:26:14.000Z</time>
        <extensions>
          <ns3:TrackPointExtension>
            <ns3:hr>122</ns3:hr>
            <ns3:cad>19</ns3:cad>
          </ns3:TrackPointExtension>
        </extensions>
      </trkpt>
      <trkpt lat="45.35034502856433391571044921875" lon="-71.0019569657742977142333984375">
        <ele>792.20001220703125</ele>
        <time>2026-08-21T19:26:15.000Z</time>
        <extensions>
          <ns3:TrackPointExtension>
            <ns3:hr>121</ns3:hr>
            <ns3:cad>19</ns3:cad>
          </ns3:TrackPointExtension>
        </extensions>
      </trkpt>
      <trkpt lat="45.35035206936299800872802734375" lon="-71.00197247229516506195068359375">
        <ele>792</ele>
        <time>2026-08-21T19:26:16.000Z</time>
        <extensions>
          <ns3:TrackPointExtension>
            <ns3:hr>122</ns3:hr>
            <ns3:cad>19</ns3:cad>
          </ns3:TrackPointExtension>
        </extensions>
      </trkpt>
      <trkpt lat="45.350363217294216156005859375" lon="-71.001993007957935333251953125">
        <ele>791.79998779296875</ele>
        <time>2026-08-21T19:26:17.000Z</time>
        <extensions>
          <ns3:TrackPointExtension>
            <ns3:hr>122</ns3:hr>
            <ns3:cad>19</ns3:cad>
          </ns3:TrackPointExtension>
        </extensions>
      </trkpt>
      <trkpt lat="45.350367911159992218017578125" lon="-71.0020060837268829345703125">
        <ele>791.79998779296875</ele>
        <time>2026-08-21T19:26:18.000Z</time>
        <extensions>
          <ns3:TrackPointExtension>
            <ns3:hr>121</ns3:hr>
            <ns3:cad>19</ns3:cad>
          </ns3:TrackPointExtension>
        </extensions>
      </trkpt>
      <trkpt lat="45.35036950372159481048583984375" lon="-71.0020302236080169677734375">
        <ele>791.5999755859375</ele>
        <time>2026-08-21T19:26:19.000Z</time>
        <extensions>
          <ns3:TrackPointExtension>
            <ns3:hr>122</ns3:hr>
            <ns3:cad>0</ns3:cad>
          </ns3:TrackPointExtension>
        </extensions>
      </trkpt>
      <trkpt lat="45.350368581712245941162109375" lon="-71.0020387731492519378662109375">
        <ele>791.5999755859375</ele>
        <time>2026-08-21T19:26:20.000Z</time>
        <extensions>
          <ns3:TrackPointExtension>
            <ns3:hr>122</ns3:hr>
            <ns3:cad>0</ns3:cad>
          </ns3:TrackPointExtension>
        </extensions>
      </trkpt>
      <trkpt lat="45.3503600321710109710693359375" lon="-71.00205235183238983154296875">
        <ele>791.5999755859375</ele>
        <time>2026-08-21T19:26:21.000Z</time>
        <extensions>
          <ns3:TrackPointExtension>
            <ns3:hr>121</ns3:hr>
            <ns3:cad>0</ns3:cad>
          </ns3:TrackPointExtension>
        </extensions>
      </trkpt>
      <trkpt lat="45.35035491921007633209228515625" lon="-71.002063415944576263427734375">
        <ele>791.5999755859375</ele>
        <time>2026-08-21T19:26:22.000Z</time>
        <extensions>
          <ns3:TrackPointExtension>
            <ns3:hr>121</ns3:hr>
            <ns3:cad>0</ns3:cad>
          </ns3:TrackPointExtension>
        </extensions>
      </trkpt>
      <trkpt lat="45.35034838132560253143310546875" lon="-71.0020706243813037872314453125">
        <ele>791.79998779296875</ele>
        <time>2026-08-21T19:26:23.000Z</time>
        <extensions>
          <ns3:TrackPointExtension>
            <ns3:hr>121</ns3:hr>
            <ns3:cad>0</ns3:cad>
          </ns3:TrackPointExtension>
        </extensions>
      </trkpt>
      <trkpt lat="45.3503405861556529998779296875" lon="-71.00207892246544361114501953125">
        <ele>792.20001220703125</ele>
        <time>2026-08-21T19:26:24.000Z</time>
        <extensions>
          <ns3:TrackPointExtension>
            <ns3:hr>120</ns3:hr>
            <ns3:cad>0</ns3:cad>
          </ns3:TrackPointExtension>
        </extensions>
      </trkpt>
      <trkpt lat="45.35033497028052806854248046875" lon="-71.002084873616695404052734375">
        <ele>792.4000244140625</ele>
        <time>2026-08-21T19:26:25.000Z</time>
        <extensions>
          <ns3:TrackPointExtension>
            <ns3:hr>119</ns3:hr>
            <ns3:cad>0</ns3:cad>
          </ns3:TrackPointExtension>
        </extensions>
      </trkpt>
      <trkpt lat="45.3503251634538173675537109375" lon="-71.00209233351051807403564453125">
        <ele>792.79998779296875</ele>
        <time>2026-08-21T19:26:26.000Z</time>
        <extensions>
          <ns3:TrackPointExtension>
            <ns3:hr>119</ns3:hr>
            <ns3:cad>0</ns3:cad>
          </ns3:TrackPointExtension>
        </extensions>
      </trkpt>
      <trkpt lat="45.35031418316066265106201171875" lon="-71.0021028108894824981689453125">
        <ele>793</ele>
        <time>2026-08-21T19:26:27.000Z</time>
        <extensions>
          <ns3:TrackPointExtension>
            <ns3:hr>119</ns3:hr>
            <ns3:cad>0</ns3:cad>
          </ns3:TrackPointExtension>
        </extensions>
      </trkpt>
      <trkpt lat="45.35031015984714031219482421875" lon="-71.00210909731686115264892578125">
        <ele>793.4000244140625</ele>
        <time>2026-08-21T19:26:28.000Z</time>
        <extensions>
          <ns3:TrackPointExtension>
            <ns3:hr>119</ns3:hr>
            <ns3:cad>0</ns3:cad>
          </ns3:TrackPointExtension>
        </extensions>
      </trkpt>
      <trkpt lat="45.35030513070523738861083984375" lon="-71.00211496464908123016357421875">
        <ele>793.5999755859375</ele>
        <time>2026-08-21T19:26:29.000Z</time>
        <extensions>
          <ns3:TrackPointExtension>
            <ns3:hr>118</ns3:hr>
            <ns3:cad>46</ns3:cad>
          </ns3:TrackPointExtension>
        </extensions>
      </trkpt>
      <trkpt lat="45.35029892809689044952392578125" lon="-71.00212502293288707733154296875">
        <ele>793.79998779296875</ele>
        <time>2026-08-21T19:26:30.000Z</time>
        <extensions>
          <ns3:TrackPointExtension>
            <ns3:hr>118</ns3:hr>
            <ns3:cad>46</ns3:cad>
          </ns3:TrackPointExtension>
        </extensions>
      </trkpt>
      <trkpt lat="45.350291468203067779541015625" lon="-71.00213793106377124786376953125">
        <ele>794</ele>
        <time>2026-08-21T19:26:31.000Z</time>
        <extensions>
          <ns3:TrackPointExtension>
            <ns3:hr>118</ns3:hr>
            <ns3:cad>46</ns3:cad>
          </ns3:TrackPointExtension>
        </extensions>
      </trkpt>
      <trkpt lat="45.3502856008708477020263671875" lon="-71.0021455585956573486328125">
        <ele>794.20001220703125</ele>
        <time>2026-08-21T19:26:32.000Z</time>
        <extensions>
          <ns3:TrackPointExtension>
            <ns3:hr>118</ns3:hr>
            <ns3:cad>45</ns3:cad>
          </ns3:TrackPointExtension>
        </extensions>
      </trkpt>
      <trkpt lat="45.35028199665248394012451171875" lon="-71.00215150974690914154052734375">
        <ele>794.4000244140625</ele>
        <time>2026-08-21T19:26:33.000Z</time>
        <extensions>
          <ns3:TrackPointExtension>
            <ns3:hr>118</ns3:hr>
            <ns3:cad>45</ns3:cad>
          </ns3:TrackPointExtension>
        </extensions>
      </trkpt>
      <trkpt lat="45.3502763807773590087890625" lon="-71.0021634958684444427490234375">
        <ele>794.5999755859375</ele>
        <time>2026-08-21T19:26:34.000Z</time>
        <extensions>
          <ns3:TrackPointExtension>
            <ns3:hr>118</ns3:hr>
            <ns3:cad>45</ns3:cad>
          </ns3:TrackPointExtension>
        </extensions>
      </trkpt>
      <trkpt lat="45.35026942379772663116455078125" lon="-71.00217950530350208282470703125">
        <ele>794.79998779296875</ele>
        <time>2026-08-21T19:26:35.000Z</time>
        <extensions>
          <ns3:TrackPointExtension>
            <ns3:hr>118</ns3:hr>
            <ns3:cad>45</ns3:cad>
          </ns3:TrackPointExtension>
        </extensions>
      </trkpt>
      <trkpt lat="45.35026020370423793792724609375" lon="-71.002187468111515045166015625">
        <ele>795.20001220703125</ele>
        <time>2026-08-21T19:26:36.000Z</time>
        <extensions>
          <ns3:TrackPointExtension>
            <ns3:hr>118</ns3:hr>
            <ns3:cad>46</ns3:cad>
          </ns3:TrackPointExtension>
        </extensions>
      </trkpt>
      <trkpt lat="45.35025802440941333770751953125" lon="-71.0021990351378917694091796875">
        <ele>795.4000244140625</ele>
        <time>2026-08-21T19:26:37.000Z</time>
        <extensions>
          <ns3:TrackPointExtension>
            <ns3:hr>117</ns3:hr>
            <ns3:cad>46</ns3:cad>
          </ns3:TrackPointExtension>
        </extensions>
      </trkpt>
      <trkpt lat="45.35025685094296932220458984375" lon="-71.00221085362136363983154296875">
        <ele>795.79998779296875</ele>
        <time>2026-08-21T19:26:38.000Z</time>
        <extensions>
          <ns3:TrackPointExtension>
            <ns3:hr>118</ns3:hr>
            <ns3:cad>46</ns3:cad>
          </ns3:TrackPointExtension>
        </extensions>
      </trkpt>
      <trkpt lat="45.3502577729523181915283203125" lon="-71.00222594104707241058349609375">
        <ele>796</ele>
        <time>2026-08-21T19:26:39.000Z</time>
        <extensions>
          <ns3:TrackPointExtension>
            <ns3:hr>118</ns3:hr>
            <ns3:cad>46</ns3:cad>
          </ns3:TrackPointExtension>
        </extensions>
      </trkpt>
      <trkpt lat="45.35026137717068195343017578125" lon="-71.00224320776760578155517578125">
        <ele>796.20001220703125</ele>
        <time>2026-08-21T19:26:40.000Z</time>
        <extensions>
          <ns3:TrackPointExtension>
            <ns3:hr>118</ns3:hr>
            <ns3:cad>46</ns3:cad>
          </ns3:TrackPointExtension>
        </extensions>
      </trkpt>
      <trkpt lat="45.35026422701776027679443359375" lon="-71.00225628353655338287353515625">
        <ele>796.4000244140625</ele>
        <time>2026-08-21T19:26:41.000Z</time>
        <extensions>
          <ns3:TrackPointExtension>
            <ns3:hr>119</ns3:hr>
            <ns3:cad>46</ns3:cad>
          </ns3:TrackPointExtension>
        </extensions>
      </trkpt>
      <trkpt lat="45.35026690922677516937255859375" lon="-71.002269275486469268798828125">
        <ele>796.5999755859375</ele>
        <time>2026-08-21T19:26:42.000Z</time>
        <extensions>
          <ns3:TrackPointExtension>
            <ns3:hr>119</ns3:hr>
            <ns3:cad>46</ns3:cad>
          </ns3:TrackPointExtension>
        </extensions>
      </trkpt>
      <trkpt lat="45.3502656519412994384765625" lon="-71.0022855363786220550537109375">
        <ele>796.79998779296875</ele>
        <time>2026-08-21T19:26:43.000Z</time>
        <extensions>
          <ns3:TrackPointExtension>
            <ns3:hr>120</ns3:hr>
            <ns3:cad>46</ns3:cad>
          </ns3:TrackPointExtension>
        </extensions>
      </trkpt>
      <trkpt lat="45.35026288591325283050537109375" lon="-71.002303473651409149169921875">
        <ele>797</ele>
        <time>2026-08-21T19:26:44.000Z</time>
        <extensions>
          <ns3:TrackPointExtension>
            <ns3:hr>121</ns3:hr>
            <ns3:cad>45</ns3:cad>
          </ns3:TrackPointExtension>
        </extensions>
      </trkpt>
      <trkpt lat="45.350255258381366729736328125" lon="-71.0023240931332111358642578125">
        <ele>797</ele>
        <time>2026-08-21T19:26:45.000Z</time>
        <extensions>
          <ns3:TrackPointExtension>
            <ns3:hr>122</ns3:hr>
            <ns3:cad>45</ns3:cad>
          </ns3:TrackPointExtension>
        </extensions>
      </trkpt>
      <trkpt lat="45.35025215707719326019287109375" lon="-71.00233540870249271392822265625">
        <ele>797.20001220703125</ele>
        <time>2026-08-21T19:26:46.000Z</time>
        <extensions>
          <ns3:TrackPointExtension>
            <ns3:hr>123</ns3:hr>
            <ns3:cad>45</ns3:cad>
          </ns3:TrackPointExtension>
        </extensions>
      </trkpt>
      <trkpt lat="45.35024796612560749053955078125" lon="-71.0023465566337108612060546875">
        <ele>797.4000244140625</ele>
        <time>2026-08-21T19:26:47.000Z</time>
        <extensions>
          <ns3:TrackPointExtension>
            <ns3:hr>124</ns3:hr>
            <ns3:cad>45</ns3:cad>
          </ns3:TrackPointExtension>
        </extensions>
      </trkpt>
      <trkpt lat="45.35023841075599193572998046875" lon="-71.0023574531078338623046875">
        <ele>797.5999755859375</ele>
        <time>2026-08-21T19:26:48.000Z</time>
        <extensions>
          <ns3:TrackPointExtension>
            <ns3:hr>125</ns3:hr>
            <ns3:cad>45</ns3:cad>
          </ns3:TrackPointExtension>
        </extensions>
      </trkpt>
      <trkpt lat="45.35022650845348834991455078125" lon="-71.00236994214355945587158203125">
        <ele>798</ele>
        <time>2026-08-21T19:26:49.000Z</time>
        <extensions>
          <ns3:TrackPointExtension>
            <ns3:hr>126</ns3:hr>
            <ns3:cad>55</ns3:cad>
          </ns3:TrackPointExtension>
        </extensions>
      </trkpt>
      <trkpt lat="45.3502218984067440032958984375" lon="-71.00237882696092128753662109375">
        <ele>798.20001220703125</ele>
        <time>2026-08-21T19:26:50.000Z</time>
        <extensions>
          <ns3:TrackPointExtension>
            <ns3:hr>127</ns3:hr>
            <ns3:cad>55</ns3:cad>
          </ns3:TrackPointExtension>
        </extensions>
      </trkpt>
      <trkpt lat="45.35021997056901454925537109375" lon="-71.00239844061434268951416015625">
        <ele>798.5999755859375</ele>
        <time>2026-08-21T19:26:51.000Z</time>
        <extensions>
          <ns3:TrackPointExtension>
            <ns3:hr>128</ns3:hr>
            <ns3:cad>55</ns3:cad>
          </ns3:TrackPointExtension>
        </extensions>
      </trkpt>
      <trkpt lat="45.350215025246143341064453125" lon="-71.00242174230515956878662109375">
        <ele>798.79998779296875</ele>
        <time>2026-08-21T19:26:52.000Z</time>
        <extensions>
          <ns3:TrackPointExtension>
            <ns3:hr>128</ns3:hr>
            <ns3:cad>55</ns3:cad>
          </ns3:TrackPointExtension>
        </extensions>
      </trkpt>
      <trkpt lat="45.3502118401229381561279296875" lon="-71.00243917666375637054443359375">
        <ele>799</ele>
        <time>2026-08-21T19:26:53.000Z</time>
        <extensions>
          <ns3:TrackPointExtension>
            <ns3:hr>128</ns3:hr>
            <ns3:cad>55</ns3:cad>
          </ns3:TrackPointExtension>
        </extensions>
      </trkpt>
      <trkpt lat="45.35020924173295497894287109375" lon="-71.0024582035839557647705078125">
        <ele>799</ele>
        <time>2026-08-21T19:26:54.000Z</time>
        <extensions>
          <ns3:TrackPointExtension>
            <ns3:hr>128</ns3:hr>
            <ns3:cad>55</ns3:cad>
          </ns3:TrackPointExtension>
        </extensions>
      </trkpt>
      <trkpt lat="45.350206308066844940185546875" lon="-71.002469770610332489013671875">
        <ele>799.20001220703125</ele>
        <time>2026-08-21T19:26:55.000Z</time>
        <extensions>
          <ns3:TrackPointExtension>
            <ns3:hr>128</ns3:hr>
            <ns3:cad>0</ns3:cad>
          </ns3:TrackPointExtension>
        </extensions>
      </trkpt>
      <trkpt lat="45.35019968636333942413330078125" lon="-71.00248628295958042144775390625">
        <ele>799.4000244140625</ele>
        <time>2026-08-21T19:26:56.000Z</time>
        <extensions>
          <ns3:TrackPointExtension>
            <ns3:hr>129</ns3:hr>
            <ns3:cad>0</ns3:cad>
          </ns3:TrackPointExtension>
        </extensions>
      </trkpt>
      <trkpt lat="45.350192226469516754150390625" lon="-71.00250271148979663848876953125">
        <ele>799.5999755859375</ele>
        <time>2026-08-21T19:26:57.000Z</time>
        <extensions>
          <ns3:TrackPointExtension>
            <ns3:hr>130</ns3:hr>
            <ns3:cad>0</ns3:cad>
          </ns3:TrackPointExtension>
        </extensions>
      </trkpt>
      <trkpt lat="45.35018610768020153045654296875" lon="-71.0025178827345371246337890625">
        <ele>799.79998779296875</ele>
        <time>2026-08-21T19:26:58.000Z</time>
        <extensions>
          <ns3:TrackPointExtension>
            <ns3:hr>131</ns3:hr>
            <ns3:cad>0</ns3:cad>
          </ns3:TrackPointExtension>
        </extensions>
      </trkpt>
      <trkpt lat="45.35018661059439182281494140625" lon="-71.0025346465408802032470703125">
        <ele>800</ele>
        <time>2026-08-21T19:26:59.000Z</time>
        <extensions>
          <ns3:TrackPointExtension>
            <ns3:hr>131</ns3:hr>
            <ns3:cad>0</ns3:cad>
          </ns3:TrackPointExtension>
        </extensions>
      </trkpt>
      <trkpt lat="45.35018049180507659912109375" lon="-71.0025480575859546661376953125">
        <ele>800.20001220703125</ele>
        <time>2026-08-21T19:27:00.000Z</time>
        <extensions>
          <ns3:TrackPointExtension>
            <ns3:hr>132</ns3:hr>
            <ns3:cad>0</ns3:cad>
          </ns3:TrackPointExtension>
        </extensions>
      </trkpt>
      <trkpt lat="45.3501779772341251373291015625" lon="-71.00255191326141357421875">
        <ele>800.4000244140625</ele>
        <time>2026-08-21T19:27:01.000Z</time>
        <extensions>
          <ns3:TrackPointExtension>
            <ns3:hr>132</ns3:hr>
            <ns3:cad>0</ns3:cad>
          </ns3:TrackPointExtension>
        </extensions>
      </trkpt>
      <trkpt lat="45.35016465000808238983154296875" lon="-71.00255786441266536712646484375">
        <ele>800.5999755859375</ele>
        <time>2026-08-21T19:27:02.000Z</time>
        <extensions>
          <ns3:TrackPointExtension>
            <ns3:hr>132</ns3:hr>
            <ns3:cad>0</ns3:cad>
          </ns3:TrackPointExtension>
        </extensions>
      </trkpt>
      <trkpt lat="45.35015978850424289703369140625" lon="-71.00255794823169708251953125">
        <ele>800.79998779296875</ele>
        <time>2026-08-21T19:27:03.000Z</time>
        <extensions>
          <ns3:TrackPointExtension>
            <ns3:hr>132</ns3:hr>
            <ns3:cad>0</ns3:cad>
          </ns3:TrackPointExtension>
        </extensions>
      </trkpt>
      <trkpt lat="45.35014755092561244964599609375" lon="-71.0025597922503948211669921875">
        <ele>801.20001220703125</ele>
        <time>2026-08-21T19:27:04.000Z</time>
        <extensions>
          <ns3:TrackPointExtension>
            <ns3:hr>133</ns3:hr>
            <ns3:cad>0</ns3:cad>
          </ns3:TrackPointExtension>
        </extensions>
      </trkpt>
      <trkpt lat="45.350141264498233795166015625" lon="-71.002565324306488037109375">
        <ele>801.4000244140625</ele>
        <time>2026-08-21T19:27:05.000Z</time>
        <extensions>
          <ns3:TrackPointExtension>
            <ns3:hr>135</ns3:hr>
            <ns3:cad>50</ns3:cad>
          </ns3:TrackPointExtension>
        </extensions>
      </trkpt>
      <trkpt lat="45.3501337207853794097900390625" lon="-71.00257538259029388427734375">
        <ele>801.5999755859375</ele>
        <time>2026-08-21T19:27:06.000Z</time>
        <extensions>
          <ns3:TrackPointExtension>
            <ns3:hr>136</ns3:hr>
            <ns3:cad>50</ns3:cad>
          </ns3:TrackPointExtension>
        </extensions>
      </trkpt>
      <trkpt lat="45.35013430751860141754150390625" lon="-71.0025832615792751312255859375">
        <ele>801.79998779296875</ele>
        <time>2026-08-21T19:27:07.000Z</time>
        <extensions>
          <ns3:TrackPointExtension>
            <ns3:hr>136</ns3:hr>
            <ns3:cad>0</ns3:cad>
          </ns3:TrackPointExtension>
        </extensions>
      </trkpt>
      <trkpt lat="45.35013246349990367889404296875" lon="-71.002597846090793609619140625">
        <ele>802</ele>
        <time>2026-08-21T19:27:08.000Z</time>
        <extensions>
          <ns3:TrackPointExtension>
            <ns3:hr>137</ns3:hr>
            <ns3:cad>0</ns3:cad>
          </ns3:TrackPointExtension>
        </extensions>
      </trkpt>
      <trkpt lat="45.35012475214898586273193359375" lon="-71.0026124306023120880126953125">
        <ele>802.20001220703125</ele>
        <time>2026-08-21T19:27:09.000Z</time>
        <extensions>
          <ns3:TrackPointExtension>
            <ns3:hr>138</ns3:hr>
            <ns3:cad>0</ns3:cad>
          </ns3:TrackPointExtension>
        </extensions>
      </trkpt>
      <trkpt lat="45.350121147930622100830078125" lon="-71.0026201419532299041748046875">
        <ele>802.20001220703125</ele>
        <time>2026-08-21T19:27:10.000Z</time>
        <extensions>
          <ns3:TrackPointExtension>
            <ns3:hr>138</ns3:hr>
            <ns3:cad>0</ns3:cad>
          </ns3:TrackPointExtension>
        </extensions>
      </trkpt>
      <trkpt lat="45.35011905245482921600341796875" lon="-71.00263078697025775909423828125">
        <ele>802.4000244140625</ele>
        <time>2026-08-21T19:27:11.000Z</time>
        <extensions>
          <ns3:TrackPointExtension>
            <ns3:hr>139</ns3:hr>
            <ns3:cad>0</ns3:cad>
          </ns3:TrackPointExtension>
        </extensions>
      </trkpt>
      <trkpt lat="45.35012173466384410858154296875" lon="-71.00264704786241054534912109375">
        <ele>802.5999755859375</ele>
        <time>2026-08-21T19:27:12.000Z</time>
        <extensions>
          <ns3:TrackPointExtension>
            <ns3:hr>139</ns3:hr>
            <ns3:cad>0</ns3:cad>
          </ns3:TrackPointExtension>
        </extensions>
      </trkpt>
      <trkpt lat="45.3501203097403049468994140625" lon="-71.00266096182167530059814453125">
        <ele>802.79998779296875</ele>
        <time>2026-08-21T19:27:13.000Z</time>
        <extensions>
          <ns3:TrackPointExtension>
            <ns3:hr>139</ns3:hr>
            <ns3:cad>0</ns3:cad>
          </ns3:TrackPointExtension>
        </extensions>
      </trkpt>
      <trkpt lat="45.35011284984648227691650390625" lon="-71.002680994570255279541015625">
        <ele>803</ele>
        <time>2026-08-21T19:27:14.000Z</time>
        <extensions>
          <ns3:TrackPointExtension>
            <ns3:hr>140</ns3:hr>
            <ns3:cad>0</ns3:cad>
          </ns3:TrackPointExtension>
        </extensions>
      </trkpt>
      <trkpt lat="45.35011603496968746185302734375" lon="-71.00270337425172328948974609375">
        <ele>803.20001220703125</ele>
        <time>2026-08-21T19:27:15.000Z</time>
        <extensions>
          <ns3:TrackPointExtension>
            <ns3:hr>140</ns3:hr>
            <ns3:cad>0</ns3:cad>
          </ns3:TrackPointExtension>
        </extensions>
      </trkpt>
      <trkpt lat="45.3501146100461483001708984375" lon="-71.00271913222968578338623046875">
        <ele>803.4000244140625</ele>
        <time>2026-08-21T19:27:16.000Z</time>
        <extensions>
          <ns3:TrackPointExtension>
            <ns3:hr>141</ns3:hr>
            <ns3:cad>0</ns3:cad>
          </ns3:TrackPointExtension>
        </extensions>
      </trkpt>
      <trkpt lat="45.350113771855831146240234375" lon="-71.00273321382701396942138671875">
        <ele>803.4000244140625</ele>
        <time>2026-08-21T19:27:17.000Z</time>
        <extensions>
          <ns3:TrackPointExtension>
            <ns3:hr>141</ns3:hr>
            <ns3:cad>49</ns3:cad>
          </ns3:TrackPointExtension>
        </extensions>
      </trkpt>
      <trkpt lat="45.35011217929422855377197265625" lon="-71.0027451999485492706298828125">
        <ele>803.4000244140625</ele>
        <time>2026-08-21T19:27:18.000Z</time>
        <extensions>
          <ns3:TrackPointExtension>
            <ns3:hr>141</ns3:hr>
            <ns3:cad>0</ns3:cad>
          </ns3:TrackPointExtension>
        </extensions>
      </trkpt>
      <trkpt lat="45.3501085750758647918701171875" lon="-71.0027569346129894256591796875">
        <ele>803.5999755859375</ele>
        <time>2026-08-21T19:27:19.000Z</time>
        <extensions>
          <ns3:TrackPointExtension>
            <ns3:hr>141</ns3:hr>
            <ns3:cad>0</ns3:cad>
          </ns3:TrackPointExtension>
        </extensions>
      </trkpt>
      <trkpt lat="45.35010044462978839874267578125" lon="-71.002767495810985565185546875">
        <ele>803.5999755859375</ele>
        <time>2026-08-21T19:27:20.000Z</time>
        <extensions>
          <ns3:TrackPointExtension>
            <ns3:hr>141</ns3:hr>
            <ns3:cad>0</ns3:cad>
          </ns3:TrackPointExtension>
        </extensions>
      </trkpt>
      <trkpt lat="45.3500901348888874053955078125" lon="-71.002774536609649658203125">
        <ele>803.79998779296875</ele>
        <time>2026-08-21T19:27:21.000Z</time>
        <extensions>
          <ns3:TrackPointExtension>
            <ns3:hr>141</ns3:hr>
            <ns3:cad>0</ns3:cad>
          </ns3:TrackPointExtension>
        </extensions>
      </trkpt>
      <trkpt lat="45.350081920623779296875" lon="-71.0027857683598995208740234375">
        <ele>804</ele>
        <time>2026-08-21T19:27:22.000Z</time>
        <extensions>
          <ns3:TrackPointExtension>
            <ns3:hr>142</ns3:hr>
            <ns3:cad>52</ns3:cad>
          </ns3:TrackPointExtension>
        </extensions>
      </trkpt>
      <trkpt lat="45.350080244243144989013671875" lon="-71.00279155187308788299560546875">
        <ele>804.20001220703125</ele>
        <time>2026-08-21T19:27:23.000Z</time>
        <extensions>
          <ns3:TrackPointExtension>
            <ns3:hr>142</ns3:hr>
            <ns3:cad>52</ns3:cad>
          </ns3:TrackPointExtension>
        </extensions>
      </trkpt>
      <trkpt lat="45.35007177852094173431396484375" lon="-71.00280429236590862274169921875">
        <ele>804.4000244140625</ele>
        <time>2026-08-21T19:27:24.000Z</time>
        <extensions>
          <ns3:TrackPointExtension>
            <ns3:hr>142</ns3:hr>
            <ns3:cad>52</ns3:cad>
          </ns3:TrackPointExtension>
        </extensions>
      </trkpt>
      <trkpt lat="45.35006239078938961029052734375" lon="-71.00282155908644199371337890625">
        <ele>804.5999755859375</ele>
        <time>2026-08-21T19:27:25.000Z</time>
        <extensions>
          <ns3:TrackPointExtension>
            <ns3:hr>142</ns3:hr>
            <ns3:cad>52</ns3:cad>
          </ns3:TrackPointExtension>
        </extensions>
      </trkpt>
      <trkpt lat="45.350057445466518402099609375" lon="-71.0028300248086452484130859375">
        <ele>804.79998779296875</ele>
        <time>2026-08-21T19:27:26.000Z</time>
        <extensions>
          <ns3:TrackPointExtension>
            <ns3:hr>142</ns3:hr>
            <ns3:cad>52</ns3:cad>
          </ns3:TrackPointExtension>
        </extensions>
      </trkpt>
      <trkpt lat="45.3500529192388057708740234375" lon="-71.0028362274169921875">
        <ele>805</ele>
        <time>2026-08-21T19:27:27.000Z</time>
        <extensions>
          <ns3:TrackPointExtension>
            <ns3:hr>142</ns3:hr>
            <ns3:cad>52</ns3:cad>
          </ns3:TrackPointExtension>
        </extensions>
      </trkpt>
      <trkpt lat="45.350046046078205108642578125" lon="-71.0028508119285106658935546875">
        <ele>805.20001220703125</ele>
        <time>2026-08-21T19:27:28.000Z</time>
        <extensions>
          <ns3:TrackPointExtension>
            <ns3:hr>142</ns3:hr>
            <ns3:cad>52</ns3:cad>
          </ns3:TrackPointExtension>
        </extensions>
      </trkpt>
      <trkpt lat="45.350040011107921600341796875" lon="-71.00286045111715793609619140625">
        <ele>805.4000244140625</ele>
        <time>2026-08-21T19:27:29.000Z</time>
        <extensions>
          <ns3:TrackPointExtension>
            <ns3:hr>142</ns3:hr>
            <ns3:cad>46</ns3:cad>
          </ns3:TrackPointExtension>
        </extensions>
      </trkpt>
      <trkpt lat="45.3500338084995746612548828125" lon="-71.0028665699064731597900390625">
        <ele>805.5999755859375</ele>
        <time>2026-08-21T19:27:30.000Z</time>
        <extensions>
          <ns3:TrackPointExtension>
            <ns3:hr>141</ns3:hr>
            <ns3:cad>46</ns3:cad>
          </ns3:TrackPointExtension>
        </extensions>
      </trkpt>
      <trkpt lat="45.350024588406085968017578125" lon="-71.00286950357258319854736328125">
        <ele>805.79998779296875</ele>
        <time>2026-08-21T19:27:31.000Z</time>
        <extensions>
          <ns3:TrackPointExtension>
            <ns3:hr>140</ns3:hr>
            <ns3:cad>46</ns3:cad>
          </ns3:TrackPointExtension>
        </extensions>
      </trkpt>
      <trkpt lat="45.3500177152454853057861328125" lon="-71.00287620909512042999267578125">
        <ele>806.20001220703125</ele>
        <time>2026-08-21T19:27:32.000Z</time>
        <extensions>
          <ns3:TrackPointExtension>
            <ns3:hr>139</ns3:hr>
            <ns3:cad>45</ns3:cad>
          </ns3:TrackPointExtension>
        </extensions>
      </trkpt>
      <trkpt lat="45.35000572912395000457763671875" lon="-71.002880819141864776611328125">
        <ele>806.4000244140625</ele>
        <time>2026-08-21T19:27:33.000Z</time>
        <extensions>
          <ns3:TrackPointExtension>
            <ns3:hr>139</ns3:hr>
            <ns3:cad>45</ns3:cad>
          </ns3:TrackPointExtension>
        </extensions>
      </trkpt>
      <trkpt lat="45.35000103525817394256591796875" lon="-71.0028917156159877777099609375">
        <ele>806.5999755859375</ele>
        <time>2026-08-21T19:27:34.000Z</time>
        <extensions>
          <ns3:TrackPointExtension>
            <ns3:hr>139</ns3:hr>
            <ns3:cad>45</ns3:cad>
          </ns3:TrackPointExtension>
        </extensions>
      </trkpt>
      <trkpt lat="45.34999785013496875762939453125" lon="-71.00290655158460140228271484375">
        <ele>806.79998779296875</ele>
        <time>2026-08-21T19:27:35.000Z</time>
        <extensions>
          <ns3:TrackPointExtension>
            <ns3:hr>139</ns3:hr>
            <ns3:cad>45</ns3:cad>
          </ns3:TrackPointExtension>
        </extensions>
      </trkpt>
      <trkpt lat="45.3499969281256198883056640625" lon="-71.0029168613255023956298828125">
        <ele>807</ele>
        <time>2026-08-21T19:27:36.000Z</time>
        <extensions>
          <ns3:TrackPointExtension>
            <ns3:hr>140</ns3:hr>
            <ns3:cad>0</ns3:cad>
          </ns3:TrackPointExtension>
        </extensions>
      </trkpt>
      <trkpt lat="45.3499932400882244110107421875" lon="-71.0029309429228305816650390625">
        <ele>807.20001220703125</ele>
        <time>2026-08-21T19:27:37.000Z</time>
        <extensions>
          <ns3:TrackPointExtension>
            <ns3:hr>140</ns3:hr>
            <ns3:cad>0</ns3:cad>
          </ns3:TrackPointExtension>
        </extensions>
      </trkpt>
      <trkpt lat="45.34999030642211437225341796875" lon="-71.0029450245201587677001953125">
        <ele>807.4000244140625</ele>
        <time>2026-08-21T19:27:38.000Z</time>
        <extensions>
          <ns3:TrackPointExtension>
            <ns3:hr>140</ns3:hr>
            <ns3:cad>0</ns3:cad>
          </ns3:TrackPointExtension>
        </extensions>
      </trkpt>
      <trkpt lat="45.349988378584384918212890625" lon="-71.00296388380229473114013671875">
        <ele>807.5999755859375</ele>
        <time>2026-08-21T19:27:39.000Z</time>
        <extensions>
          <ns3:TrackPointExtension>
            <ns3:hr>140</ns3:hr>
            <ns3:cad>0</ns3:cad>
          </ns3:TrackPointExtension>
        </extensions>
      </trkpt>
      <trkpt lat="45.349990390241146087646484375" lon="-71.0029865987598896026611328125">
        <ele>807.79998779296875</ele>
        <time>2026-08-21T19:27:40.000Z</time>
        <extensions>
          <ns3:TrackPointExtension>
            <ns3:hr>140</ns3:hr>
            <ns3:cad>0</ns3:cad>
          </ns3:TrackPointExtension>
        </extensions>
      </trkpt>
      <trkpt lat="45.34999265335500240325927734375" lon="-71.0030040331184864044189453125">
        <ele>807.79998779296875</ele>
        <time>2026-08-21T19:27:41.000Z</time>
        <extensions>
          <ns3:TrackPointExtension>
            <ns3:hr>141</ns3:hr>
            <ns3:cad>56</ns3:cad>
          </ns3:TrackPointExtension>
        </extensions>
      </trkpt>
      <trkpt lat="45.3499925695359706878662109375" lon="-71.00302272476255893707275390625">
        <ele>808</ele>
        <time>2026-08-21T19:27:42.000Z</time>
        <extensions>
          <ns3:TrackPointExtension>
            <ns3:hr>140</ns3:hr>
            <ns3:cad>56</ns3:cad>
          </ns3:TrackPointExtension>
        </extensions>
      </trkpt>
      <trkpt lat="45.349994413554668426513671875" lon="-71.00304342806339263916015625">
        <ele>807.79998779296875</ele>
        <time>2026-08-21T19:27:43.000Z</time>
        <extensions>
          <ns3:TrackPointExtension>
            <ns3:hr>140</ns3:hr>
            <ns3:cad>56</ns3:cad>
          </ns3:TrackPointExtension>
        </extensions>
      </trkpt>
      <trkpt lat="45.349997766315937042236328125" lon="-71.003058515489101409912109375">
        <ele>807.79998779296875</ele>
        <time>2026-08-21T19:27:44.000Z</time>
        <extensions>
          <ns3:TrackPointExtension>
            <ns3:hr>145</ns3:hr>
            <ns3:cad>56</ns3:cad>
          </ns3:TrackPointExtension>
        </extensions>
      </trkpt>
      <trkpt lat="45.35000212490558624267578125" lon="-71.00307385437190532684326171875">
        <ele>807.79998779296875</ele>
        <time>2026-08-21T19:27:45.000Z</time>
        <extensions>
          <ns3:TrackPointExtension>
            <ns3:hr>145</ns3:hr>
            <ns3:cad>56</ns3:cad>
          </ns3:TrackPointExtension>
        </extensions>
      </trkpt>
      <trkpt lat="45.34999667666852474212646484375" lon="-71.00308961234986782073974609375">
        <ele>807.5999755859375</ele>
        <time>2026-08-21T19:27:46.000Z</time>
        <extensions>
          <ns3:TrackPointExtension>
            <ns3:hr>142</ns3:hr>
            <ns3:cad>56</ns3:cad>
          </ns3:TrackPointExtension>
        </extensions>
      </trkpt>
      <trkpt lat="45.3499888814985752105712890625" lon="-71.0031015984714031219482421875">
        <ele>807.5999755859375</ele>
        <time>2026-08-21T19:27:47.000Z</time>
        <extensions>
          <ns3:TrackPointExtension>
            <ns3:hr>141</ns3:hr>
            <ns3:cad>56</ns3:cad>
          </ns3:TrackPointExtension>
        </extensions>
      </trkpt>
      <trkpt lat="45.34998309798538684844970703125" lon="-71.0031079687178134918212890625">
        <ele>807.5999755859375</ele>
        <time>2026-08-21T19:27:48.000Z</time>
        <extensions>
          <ns3:TrackPointExtension>
            <ns3:hr>140</ns3:hr>
            <ns3:cad>56</ns3:cad>
          </ns3:TrackPointExtension>
        </extensions>
      </trkpt>
      <trkpt lat="45.3499791584908962249755859375" lon="-71.0031272470951080322265625">
        <ele>807.5999755859375</ele>
        <time>2026-08-21T19:27:49.000Z</time>
        <extensions>
          <ns3:TrackPointExtension>
            <ns3:hr>140</ns3:hr>
            <ns3:cad>56</ns3:cad>
          </ns3:TrackPointExtension>
        </extensions>
      </trkpt>
      <trkpt lat="45.3499788232147693634033203125" lon="-71.00314292125403881072998046875">
        <ele>807.79998779296875</ele>
        <time>2026-08-21T19:27:50.000Z</time>
        <extensions>
          <ns3:TrackPointExtension>
            <ns3:hr>140</ns3:hr>
            <ns3:cad>56</ns3:cad>
          </ns3:TrackPointExtension>
        </extensions>
      </trkpt>
      <trkpt lat="45.34997354261577129364013671875" lon="-71.00315817631781101226806640625">
        <ele>807.79998779296875</ele>
        <time>2026-08-21T19:27:51.000Z</time>
        <extensions>
          <ns3:TrackPointExtension>
            <ns3:hr>140</ns3:hr>
            <ns3:cad>54</ns3:cad>
          </ns3:TrackPointExtension>
        </extensions>
      </trkpt>
      <trkpt lat="45.34996926784515380859375" lon="-71.00317024625837802886962890625">
        <ele>807.79998779296875</ele>
        <time>2026-08-21T19:27:52.000Z</time>
        <extensions>
          <ns3:TrackPointExtension>
            <ns3:hr>140</ns3:hr>
            <ns3:cad>54</ns3:cad>
          </ns3:TrackPointExtension>
        </extensions>
      </trkpt>
      <trkpt lat="45.3499644063413143157958984375" lon="-71.00318466313183307647705078125">
        <ele>807.79998779296875</ele>
        <time>2026-08-21T19:27:53.000Z</time>
        <extensions>
          <ns3:TrackPointExtension>
            <ns3:hr>139</ns3:hr>
            <ns3:cad>54</ns3:cad>
          </ns3:TrackPointExtension>
        </extensions>
      </trkpt>
      <trkpt lat="45.3499613888561725616455078125" lon="-71.003200672566890716552734375">
        <ele>807.79998779296875</ele>
        <time>2026-08-21T19:27:54.000Z</time>
        <extensions>
          <ns3:TrackPointExtension>
            <ns3:hr>139</ns3:hr>
            <ns3:cad>0</ns3:cad>
          </ns3:TrackPointExtension>
        </extensions>
      </trkpt>
      <trkpt lat="45.3499571979045867919921875" lon="-71.00321684964001178741455078125">
        <ele>807.79998779296875</ele>
        <time>2026-08-21T19:27:55.000Z</time>
        <extensions>
          <ns3:TrackPointExtension>
            <ns3:hr>139</ns3:hr>
            <ns3:cad>0</ns3:cad>
          </ns3:TrackPointExtension>
        </extensions>
      </trkpt>
      <trkpt lat="45.34995661117136478424072265625" lon="-71.0032345354557037353515625">
        <ele>807.79998779296875</ele>
        <time>2026-08-21T19:27:56.000Z</time>
        <extensions>
          <ns3:TrackPointExtension>
            <ns3:hr>138</ns3:hr>
            <ns3:cad>0</ns3:cad>
          </ns3:TrackPointExtension>
        </extensions>
      </trkpt>
      <trkpt lat="45.34995761699974536895751953125" lon="-71.0032554902136325836181640625">
        <ele>807.5999755859375</ele>
        <time>2026-08-21T19:27:57.000Z</time>
        <extensions>
          <ns3:TrackPointExtension>
            <ns3:hr>138</ns3:hr>
            <ns3:cad>0</ns3:cad>
          </ns3:TrackPointExtension>
        </extensions>
      </trkpt>
      <trkpt lat="45.34995074383914470672607421875" lon="-71.00328105501830577850341796875">
        <ele>807.4000244140625</ele>
        <time>2026-08-21T19:27:58.000Z</time>
        <extensions>
          <ns3:TrackPointExtension>
            <ns3:hr>138</ns3:hr>
            <ns3:cad>0</ns3:cad>
          </ns3:TrackPointExtension>
        </extensions>
      </trkpt>
      <trkpt lat="45.34994554705917835235595703125" lon="-71.003289856016635894775390625">
        <ele>807.4000244140625</ele>
        <time>2026-08-21T19:27:59.000Z</time>
        <extensions>
          <ns3:TrackPointExtension>
            <ns3:hr>138</ns3:hr>
            <ns3:cad>0</ns3:cad>
          </ns3:TrackPointExtension>
        </extensions>
      </trkpt>
      <trkpt lat="45.3499359078705310821533203125" lon="-71.00330251269042491912841796875">
        <ele>807.4000244140625</ele>
        <time>2026-08-21T19:28:00.000Z</time>
        <extensions>
          <ns3:TrackPointExtension>
            <ns3:hr>138</ns3:hr>
            <ns3:cad>0</ns3:cad>
          </ns3:TrackPointExtension>
        </extensions>
      </trkpt>
      <trkpt lat="45.349929034709930419921875" lon="-71.00331223569810390472412109375">
        <ele>807.4000244140625</ele>
        <time>2026-08-21T19:28:01.000Z</time>
        <extensions>
          <ns3:TrackPointExtension>
            <ns3:hr>138</ns3:hr>
            <ns3:cad>0</ns3:cad>
          </ns3:TrackPointExtension>
        </extensions>
      </trkpt>
      <trkpt lat="45.34992434084415435791015625" lon="-71.00332212634384632110595703125">
        <ele>807.5999755859375</ele>
        <time>2026-08-21T19:28:02.000Z</time>
        <extensions>
          <ns3:TrackPointExtension>
            <ns3:hr>138</ns3:hr>
            <ns3:cad>0</ns3:cad>
          </ns3:TrackPointExtension>
        </extensions>
      </trkpt>
      <trkpt lat="45.34992090426385402679443359375" lon="-71.00333285517990589141845703125">
        <ele>807.79998779296875</ele>
        <time>2026-08-21T19:28:03.000Z</time>
        <extensions>
          <ns3:TrackPointExtension>
            <ns3:hr>137</ns3:hr>
            <ns3:cad>0</ns3:cad>
          </ns3:TrackPointExtension>
        </extensions>
      </trkpt>
      <trkpt lat="45.3499142825603485107421875" lon="-71.00334526039659976959228515625">
        <ele>807.79998779296875</ele>
        <time>2026-08-21T19:28:04.000Z</time>
        <extensions>
          <ns3:TrackPointExtension>
            <ns3:hr>137</ns3:hr>
            <ns3:cad>0</ns3:cad>
          </ns3:TrackPointExtension>
        </extensions>
      </trkpt>
      <trkpt lat="45.34990950487554073333740234375" lon="-71.00335531868040561676025390625">
        <ele>808</ele>
        <time>2026-08-21T19:28:05.000Z</time>
        <extensions>
          <ns3:TrackPointExtension>
            <ns3:hr>136</ns3:hr>
            <ns3:cad>0</ns3:cad>
          </ns3:TrackPointExtension>
        </extensions>
      </trkpt>
      <trkpt lat="45.34990749321877956390380859375" lon="-71.0033619403839111328125">
        <ele>808.20001220703125</ele>
        <time>2026-08-21T19:28:06.000Z</time>
        <extensions>
          <ns3:TrackPointExtension>
            <ns3:hr>135</ns3:hr>
            <ns3:cad>0</ns3:cad>
          </ns3:TrackPointExtension>
        </extensions>
      </trkpt>
      <trkpt lat="45.3499047271907329559326171875" lon="-71.003369651734828948974609375">
        <ele>808.5999755859375</ele>
        <time>2026-08-21T19:28:07.000Z</time>
        <extensions>
          <ns3:TrackPointExtension>
            <ns3:hr>134</ns3:hr>
            <ns3:cad>0</ns3:cad>
          </ns3:TrackPointExtension>
        </extensions>
      </trkpt>
      <trkpt lat="45.34989827312529087066650390625" lon="-71.00338515825569629669189453125">
        <ele>808.79998779296875</ele>
        <time>2026-08-21T19:28:08.000Z</time>
        <extensions>
          <ns3:TrackPointExtension>
            <ns3:hr>133</ns3:hr>
            <ns3:cad>42</ns3:cad>
          </ns3:TrackPointExtension>
        </extensions>
      </trkpt>
      <trkpt lat="45.34989341162145137786865234375" lon="-71.00339320488274097442626953125">
        <ele>809.20001220703125</ele>
        <time>2026-08-21T19:28:09.000Z</time>
        <extensions>
          <ns3:TrackPointExtension>
            <ns3:hr>133</ns3:hr>
            <ns3:cad>42</ns3:cad>
          </ns3:TrackPointExtension>
        </extensions>
      </trkpt>
      <trkpt lat="45.3498876281082630157470703125" lon="-71.00340284407138824462890625">
        <ele>809.4000244140625</ele>
        <time>2026-08-21T19:28:10.000Z</time>
        <extensions>
          <ns3:TrackPointExtension>
            <ns3:hr>133</ns3:hr>
            <ns3:cad>0</ns3:cad>
          </ns3:TrackPointExtension>
        </extensions>
      </trkpt>
      <trkpt lat="45.34987731836736202239990234375" lon="-71.00341851823031902313232421875">
        <ele>809.5999755859375</ele>
        <time>2026-08-21T19:28:11.000Z</time>
        <extensions>
          <ns3:TrackPointExtension>
            <ns3:hr>134</ns3:hr>
            <ns3:cad>0</ns3:cad>
          </ns3:TrackPointExtension>
        </extensions>
      </trkpt>
      <trkpt lat="45.3498732112348079681396484375" lon="-71.00342706777155399322509765625">
        <ele>809.79998779296875</ele>
        <time>2026-08-21T19:28:12.000Z</time>
        <extensions>
          <ns3:TrackPointExtension>
            <ns3:hr>133</ns3:hr>
            <ns3:cad>0</ns3:cad>
          </ns3:TrackPointExtension>
        </extensions>
      </trkpt>
      <trkpt lat="45.34987631253898143768310546875" lon="-71.0034385509788990020751953125">
        <ele>810</ele>
        <time>2026-08-21T19:28:13.000Z</time>
        <extensions>
          <ns3:TrackPointExtension>
            <ns3:hr>133</ns3:hr>
            <ns3:cad>0</ns3:cad>
          </ns3:TrackPointExtension>
        </extensions>
      </trkpt>
      <trkpt lat="45.3498742170631885528564453125" lon="-71.00345254875719547271728515625">
        <ele>810.20001220703125</ele>
        <time>2026-08-21T19:28:14.000Z</time>
        <extensions>
          <ns3:TrackPointExtension>
            <ns3:hr>133</ns3:hr>
            <ns3:cad>0</ns3:cad>
          </ns3:TrackPointExtension>
        </extensions>
      </trkpt>
      <trkpt lat="45.34986994229257106781005859375" lon="-71.00346612744033336639404296875">
        <ele>810.4000244140625</ele>
        <time>2026-08-21T19:28:15.000Z</time>
        <extensions>
          <ns3:TrackPointExtension>
            <ns3:hr>132</ns3:hr>
            <ns3:cad>0</ns3:cad>
          </ns3:TrackPointExtension>
        </extensions>
      </trkpt>
      <trkpt lat="45.34986826591193675994873046875" lon="-71.0034710727632045745849609375">
        <ele>810.5999755859375</ele>
        <time>2026-08-21T19:28:16.000Z</time>
        <extensions>
          <ns3:TrackPointExtension>
            <ns3:hr>132</ns3:hr>
            <ns3:cad>0</ns3:cad>
          </ns3:TrackPointExtension>
        </extensions>
      </trkpt>
      <trkpt lat="45.34986441023647785186767578125" lon="-71.0034814663231372833251953125">
        <ele>810.79998779296875</ele>
        <time>2026-08-21T19:28:17.000Z</time>
        <extensions>
          <ns3:TrackPointExtension>
            <ns3:hr>132</ns3:hr>
            <ns3:cad>0</ns3:cad>
          </ns3:TrackPointExtension>
        </extensions>
      </trkpt>
      <trkpt lat="45.34986189566552639007568359375" lon="-71.00349546410143375396728515625">
        <ele>811</ele>
        <time>2026-08-21T19:28:18.000Z</time>
        <extensions>
          <ns3:TrackPointExtension>
            <ns3:hr>132</ns3:hr>
            <ns3:cad>0</ns3:cad>
          </ns3:TrackPointExtension>
        </extensions>
      </trkpt>
      <trkpt lat="45.34986130893230438232421875" lon="-71.00350619293749332427978515625">
        <ele>811</ele>
        <time>2026-08-21T19:28:19.000Z</time>
        <extensions>
          <ns3:TrackPointExtension>
            <ns3:hr>132</ns3:hr>
            <ns3:cad>0</ns3:cad>
          </ns3:TrackPointExtension>
        </extensions>
      </trkpt>
      <trkpt lat="45.3498598001897335052490234375" lon="-71.0035163350403308868408203125">
        <ele>811.20001220703125</ele>
        <time>2026-08-21T19:28:20.000Z</time>
        <extensions>
          <ns3:TrackPointExtension>
            <ns3:hr>132</ns3:hr>
            <ns3:cad>0</ns3:cad>
          </ns3:TrackPointExtension>
        </extensions>
      </trkpt>
      <trkpt lat="45.3498579561710357666015625" lon="-71.0035324282944202423095703125">
        <ele>811.4000244140625</ele>
        <time>2026-08-21T19:28:21.000Z</time>
        <extensions>
          <ns3:TrackPointExtension>
            <ns3:hr>132</ns3:hr>
            <ns3:cad>0</ns3:cad>
          </ns3:TrackPointExtension>
        </extensions>
      </trkpt>
      <trkpt lat="45.3498554416000843048095703125" lon="-71.00353552959859371185302734375">
        <ele>811.5999755859375</ele>
        <time>2026-08-21T19:28:22.000Z</time>
        <extensions>
          <ns3:TrackPointExtension>
            <ns3:hr>133</ns3:hr>
            <ns3:cad>0</ns3:cad>
          </ns3:TrackPointExtension>
        </extensions>
      </trkpt>
      <trkpt lat="45.3498527593910694122314453125" lon="-71.00354022346436977386474609375">
        <ele>811.79998779296875</ele>
        <time>2026-08-21T19:28:23.000Z</time>
        <extensions>
          <ns3:TrackPointExtension>
            <ns3:hr>133</ns3:hr>
            <ns3:cad>0</ns3:cad>
          </ns3:TrackPointExtension>
        </extensions>
      </trkpt>
      <trkpt lat="45.3498507477343082427978515625" lon="-71.00354642607271671295166015625">
        <ele>812</ele>
        <time>2026-08-21T19:28:24.000Z</time>
        <extensions>
          <ns3:TrackPointExtension>
            <ns3:hr>133</ns3:hr>
            <ns3:cad>0</ns3:cad>
          </ns3:TrackPointExtension>
        </extensions>
      </trkpt>
      <trkpt lat="45.34985150210559368133544921875" lon="-71.0035525448620319366455078125">
        <ele>812</ele>
        <time>2026-08-21T19:28:25.000Z</time>
        <extensions>
          <ns3:TrackPointExtension>
            <ns3:hr>132</ns3:hr>
            <ns3:cad>0</ns3:cad>
          </ns3:TrackPointExtension>
        </extensions>
      </trkpt>
      <trkpt lat="45.349845550954341888427734375" lon="-71.003561429679393768310546875">
        <ele>812.20001220703125</ele>
        <time>2026-08-21T19:28:26.000Z</time>
        <extensions>
          <ns3:TrackPointExtension>
            <ns3:hr>133</ns3:hr>
            <ns3:cad>0</ns3:cad>
          </ns3:TrackPointExtension>
        </extensions>
      </trkpt>
      <trkpt lat="45.34984144382178783416748046875" lon="-71.00356738083064556121826171875">
        <ele>812.4000244140625</ele>
        <time>2026-08-21T19:28:27.000Z</time>
        <extensions>
          <ns3:TrackPointExtension>
            <ns3:hr>133</ns3:hr>
            <ns3:cad>0</ns3:cad>
          </ns3:TrackPointExtension>
        </extensions>
      </trkpt>
      <trkpt lat="45.34984328784048557281494140625" lon="-71.0035676322877407073974609375">
        <ele>812.5999755859375</ele>
        <time>2026-08-21T19:28:28.000Z</time>
        <extensions>
          <ns3:TrackPointExtension>
            <ns3:hr>133</ns3:hr>
            <ns3:cad>0</ns3:cad>
          </ns3:TrackPointExtension>
        </extensions>
      </trkpt>
      <trkpt lat="45.34983725287020206451416015625" lon="-71.00357324816286563873291015625">
        <ele>812.5999755859375</ele>
        <time>2026-08-21T19:28:29.000Z</time>
        <extensions>
          <ns3:TrackPointExtension>
            <ns3:hr>133</ns3:hr>
            <ns3:cad>0</ns3:cad>
          </ns3:TrackPointExtension>
        </extensions>
      </trkpt>
      <trkpt lat="45.3498339839279651641845703125" lon="-71.0035778582096099853515625">
        <ele>813</ele>
        <time>2026-08-21T19:28:30.000Z</time>
        <extensions>
          <ns3:TrackPointExtension>
            <ns3:hr>133</ns3:hr>
            <ns3:cad>0</ns3:cad>
          </ns3:TrackPointExtension>
        </extensions>
      </trkpt>
      <trkpt lat="45.3498309664428234100341796875" lon="-71.00358531810343265533447265625">
        <ele>813.20001220703125</ele>
        <time>2026-08-21T19:28:31.000Z</time>
        <extensions>
          <ns3:TrackPointExtension>
            <ns3:hr>132</ns3:hr>
            <ns3:cad>0</ns3:cad>
          </ns3:TrackPointExtension>
        </extensions>
      </trkpt>
      <trkpt lat="45.34983138553798198699951171875" lon="-71.00359671749174594879150390625">
        <ele>813.4000244140625</ele>
        <time>2026-08-21T19:28:32.000Z</time>
        <extensions>
          <ns3:TrackPointExtension>
            <ns3:hr>133</ns3:hr>
            <ns3:cad>0</ns3:cad>
          </ns3:TrackPointExtension>
        </extensions>
      </trkpt>
      <trkpt lat="45.34982987679541110992431640625" lon="-71.0036100447177886962890625">
        <ele>813.5999755859375</ele>
        <time>2026-08-21T19:28:33.000Z</time>
        <extensions>
          <ns3:TrackPointExtension>
            <ns3:hr>133</ns3:hr>
            <ns3:cad>0</ns3:cad>
          </ns3:TrackPointExtension>
        </extensions>
      </trkpt>
      <trkpt lat="45.34982618875801563262939453125" lon="-71.0036246292293071746826171875">
        <ele>813.5999755859375</ele>
        <time>2026-08-21T19:28:34.000Z</time>
        <extensions>
          <ns3:TrackPointExtension>
            <ns3:hr>133</ns3:hr>
            <ns3:cad>0</ns3:cad>
          </ns3:TrackPointExtension>
        </extensions>
      </trkpt>
      <trkpt lat="45.34982048906385898590087890625" lon="-71.00363879464566707611083984375">
        <ele>813.5999755859375</ele>
        <time>2026-08-21T19:28:35.000Z</time>
        <extensions>
          <ns3:TrackPointExtension>
            <ns3:hr>134</ns3:hr>
            <ns3:cad>0</ns3:cad>
          </ns3:TrackPointExtension>
        </extensions>
      </trkpt>
      <trkpt lat="45.3498162142932415008544921875" lon="-71.00364692509174346923828125">
        <ele>813.79998779296875</ele>
        <time>2026-08-21T19:28:36.000Z</time>
        <extensions>
          <ns3:TrackPointExtension>
            <ns3:hr>134</ns3:hr>
            <ns3:cad>0</ns3:cad>
          </ns3:TrackPointExtension>
        </extensions>
      </trkpt>
      <trkpt lat="45.349811017513275146484375" lon="-71.003653965890407562255859375">
        <ele>813.79998779296875</ele>
        <time>2026-08-21T19:28:37.000Z</time>
        <extensions>
          <ns3:TrackPointExtension>
            <ns3:hr>134</ns3:hr>
            <ns3:cad>0</ns3:cad>
          </ns3:TrackPointExtension>
        </extensions>
      </trkpt>
      <trkpt lat="45.3498101793229579925537109375" lon="-71.00366033613681793212890625">
        <ele>814</ele>
        <time>2026-08-21T19:28:38.000Z</time>
        <extensions>
          <ns3:TrackPointExtension>
            <ns3:hr>135</ns3:hr>
            <ns3:cad>0</ns3:cad>
          </ns3:TrackPointExtension>
        </extensions>
      </trkpt>
      <trkpt lat="45.34980724565684795379638671875" lon="-71.00366846658289432525634765625">
        <ele>814.20001220703125</ele>
        <time>2026-08-21T19:28:39.000Z</time>
        <extensions>
          <ns3:TrackPointExtension>
            <ns3:hr>135</ns3:hr>
            <ns3:cad>0</ns3:cad>
          </ns3:TrackPointExtension>
        </extensions>
      </trkpt>
      <trkpt lat="45.34980473108589649200439453125" lon="-71.00367567501962184906005859375">
        <ele>814.4000244140625</ele>
        <time>2026-08-21T19:28:40.000Z</time>
        <extensions>
          <ns3:TrackPointExtension>
            <ns3:hr>135</ns3:hr>
            <ns3:cad>0</ns3:cad>
          </ns3:TrackPointExtension>
        </extensions>
      </trkpt>
      <trkpt lat="45.349799282848834991455078125" lon="-71.00367701612412929534912109375">
        <ele>814.5999755859375</ele>
        <time>2026-08-21T19:28:41.000Z</time>
        <extensions>
          <ns3:TrackPointExtension>
            <ns3:hr>135</ns3:hr>
            <ns3:cad>0</ns3:cad>
          </ns3:TrackPointExtension>
        </extensions>
      </trkpt>
      <trkpt lat="45.34979291260242462158203125" lon="-71.003684140741825103759765625">
        <ele>815</ele>
        <time>2026-08-21T19:28:42.000Z</time>
        <extensions>
          <ns3:TrackPointExtension>
            <ns3:hr>135</ns3:hr>
            <ns3:cad>0</ns3:cad>
          </ns3:TrackPointExtension>
        </extensions>
      </trkpt>
      <trkpt lat="45.3497909009456634521484375" lon="-71.00369009189307689666748046875">
        <ele>815.20001220703125</ele>
        <time>2026-08-21T19:28:43.000Z</time>
        <extensions>
          <ns3:TrackPointExtension>
            <ns3:hr>135</ns3:hr>
            <ns3:cad>0</ns3:cad>
          </ns3:TrackPointExtension>
        </extensions>
      </trkpt>
      <trkpt lat="45.34978344105184078216552734375" lon="-71.00370467640459537506103515625">
        <ele>815.4000244140625</ele>
        <time>2026-08-21T19:28:44.000Z</time>
        <extensions>
          <ns3:TrackPointExtension>
            <ns3:hr>135</ns3:hr>
            <ns3:cad>0</ns3:cad>
          </ns3:TrackPointExtension>
        </extensions>
      </trkpt>
      <trkpt lat="45.34977975301444530487060546875" lon="-71.00371255539357662200927734375">
        <ele>815.79998779296875</ele>
        <time>2026-08-21T19:28:45.000Z</time>
        <extensions>
          <ns3:TrackPointExtension>
            <ns3:hr>135</ns3:hr>
            <ns3:cad>0</ns3:cad>
          </ns3:TrackPointExtension>
        </extensions>
      </trkpt>
      <trkpt lat="45.34977707080543041229248046875" lon="-71.00372546352446079254150390625">
        <ele>816</ele>
        <time>2026-08-21T19:28:46.000Z</time>
        <extensions>
          <ns3:TrackPointExtension>
            <ns3:hr>135</ns3:hr>
            <ns3:cad>0</ns3:cad>
          </ns3:TrackPointExtension>
        </extensions>
      </trkpt>
      <trkpt lat="45.3497722931206226348876953125" lon="-71.00374407134950160980224609375">
        <ele>816</ele>
        <time>2026-08-21T19:28:47.000Z</time>
        <extensions>
          <ns3:TrackPointExtension>
            <ns3:hr>136</ns3:hr>
            <ns3:cad>0</ns3:cad>
          </ns3:TrackPointExtension>
        </extensions>
      </trkpt>
      <trkpt lat="45.3497635759413242340087890625" lon="-71.00376167334616184234619140625">
        <ele>816.20001220703125</ele>
        <time>2026-08-21T19:28:48.000Z</time>
        <extensions>
          <ns3:TrackPointExtension>
            <ns3:hr>135</ns3:hr>
            <ns3:cad>0</ns3:cad>
          </ns3:TrackPointExtension>
        </extensions>
      </trkpt>
      <trkpt lat="45.34975670278072357177734375" lon="-71.00378447212278842926025390625">
        <ele>816.4000244140625</ele>
        <time>2026-08-21T19:28:49.000Z</time>
        <extensions>
          <ns3:TrackPointExtension>
            <ns3:hr>136</ns3:hr>
            <ns3:cad>0</ns3:cad>
          </ns3:TrackPointExtension>
        </extensions>
      </trkpt>
      <trkpt lat="45.3497505001723766326904296875" lon="-71.00380391813814640045166015625">
        <ele>816.4000244140625</ele>
        <time>2026-08-21T19:28:50.000Z</time>
        <extensions>
          <ns3:TrackPointExtension>
            <ns3:hr>136</ns3:hr>
            <ns3:cad>0</ns3:cad>
          </ns3:TrackPointExtension>
        </extensions>
      </trkpt>
      <trkpt lat="45.34974840469658374786376953125" lon="-71.0038254596292972564697265625">
        <ele>816.4000244140625</ele>
        <time>2026-08-21T19:28:51.000Z</time>
        <extensions>
          <ns3:TrackPointExtension>
            <ns3:hr>136</ns3:hr>
            <ns3:cad>0</ns3:cad>
          </ns3:TrackPointExtension>
        </extensions>
      </trkpt>
      <trkpt lat="45.349755696952342987060546875" lon="-71.00384582765400409698486328125">
        <ele>816.4000244140625</ele>
        <time>2026-08-21T19:28:52.000Z</time>
        <extensions>
          <ns3:TrackPointExtension>
            <ns3:hr>138</ns3:hr>
            <ns3:cad>0</ns3:cad>
          </ns3:TrackPointExtension>
        </extensions>
      </trkpt>
      <trkpt lat="45.3497578762471675872802734375" lon="-71.00385907106101512908935546875">
        <ele>816.4000244140625</ele>
        <time>2026-08-21T19:28:53.000Z</time>
        <extensions>
          <ns3:TrackPointExtension>
            <ns3:hr>139</ns3:hr>
            <ns3:cad>0</ns3:cad>
          </ns3:TrackPointExtension>
        </extensions>
      </trkpt>
      <trkpt lat="45.34975963644683361053466796875" lon="-71.00387357175350189208984375">
        <ele>816.4000244140625</ele>
        <time>2026-08-21T19:28:54.000Z</time>
        <extensions>
          <ns3:TrackPointExtension>
            <ns3:hr>139</ns3:hr>
            <ns3:cad>0</ns3:cad>
          </ns3:TrackPointExtension>
        </extensions>
      </trkpt>
      <trkpt lat="45.3497645817697048187255859375" lon="-71.003882624208927154541015625">
        <ele>816.20001220703125</ele>
        <time>2026-08-21T19:28:55.000Z</time>
        <extensions>
          <ns3:TrackPointExtension>
            <ns3:hr>139</ns3:hr>
            <ns3:cad>0</ns3:cad>
          </ns3:TrackPointExtension>
        </extensions>
      </trkpt>
      <trkpt lat="45.34976701252162456512451171875" lon="-71.0039002262055873870849609375">
        <ele>816.20001220703125</ele>
        <time>2026-08-21T19:28:56.000Z</time>
        <extensions>
          <ns3:TrackPointExtension>
            <ns3:hr>138</ns3:hr>
            <ns3:cad>0</ns3:cad>
          </ns3:TrackPointExtension>
        </extensions>
      </trkpt>
      <trkpt lat="45.34976801835000514984130859375" lon="-71.00391170941293239593505859375">
        <ele>816.20001220703125</ele>
        <time>2026-08-21T19:28:57.000Z</time>
        <extensions>
          <ns3:TrackPointExtension>
            <ns3:hr>138</ns3:hr>
            <ns3:cad>0</ns3:cad>
          </ns3:TrackPointExtension>
        </extensions>
      </trkpt>
      <trkpt lat="45.34977103583514690399169921875" lon="-71.0039314068853855133056640625">
        <ele>816.20001220703125</ele>
        <time>2026-08-21T19:28:58.000Z</time>
        <extensions>
          <ns3:TrackPointExtension>
            <ns3:hr>137</ns3:hr>
            <ns3:cad>0</ns3:cad>
          </ns3:TrackPointExtension>
        </extensions>
      </trkpt>
      <trkpt lat="45.34977237693965435028076171875" lon="-71.0039451532065868377685546875">
        <ele>816.20001220703125</ele>
        <time>2026-08-21T19:28:59.000Z</time>
        <extensions>
          <ns3:TrackPointExtension>
            <ns3:hr>137</ns3:hr>
            <ns3:cad>0</ns3:cad>
          </ns3:TrackPointExtension>
        </extensions>
      </trkpt>
      <trkpt lat="45.34976617433130741119384765625" lon="-71.00395613349974155426025390625">
        <ele>816.20001220703125</ele>
        <time>2026-08-21T19:29:00.000Z</time>
        <extensions>
          <ns3:TrackPointExtension>
            <ns3:hr>136</ns3:hr>
            <ns3:cad>0</ns3:cad>
          </ns3:TrackPointExtension>
        </extensions>
      </trkpt>
      <trkpt lat="45.3497608937323093414306640625" lon="-71.00396250374615192413330078125">
        <ele>816.4000244140625</ele>
        <time>2026-08-21T19:29:01.000Z</time>
        <extensions>
          <ns3:TrackPointExtension>
            <ns3:hr>135</ns3:hr>
            <ns3:cad>0</ns3:cad>
          </ns3:TrackPointExtension>
        </extensions>
      </trkpt>
      <trkpt lat="45.3497533500194549560546875" lon="-71.0039667785167694091796875">
        <ele>816.4000244140625</ele>
        <time>2026-08-21T19:29:02.000Z</time>
        <extensions>
          <ns3:TrackPointExtension>
            <ns3:hr>135</ns3:hr>
            <ns3:cad>0</ns3:cad>
          </ns3:TrackPointExtension>
        </extensions>
      </trkpt>
      <trkpt lat="45.34974840469658374786376953125" lon="-71.0039702989161014556884765625">
        <ele>816.79998779296875</ele>
        <time>2026-08-21T19:29:03.000Z</time>
        <extensions>
          <ns3:TrackPointExtension>
            <ns3:hr>134</ns3:hr>
            <ns3:cad>0</ns3:cad>
          </ns3:TrackPointExtension>
        </extensions>
      </trkpt>
      <trkpt lat="45.3497434593737125396728515625" lon="-71.0039786808192729949951171875">
        <ele>817</ele>
        <time>2026-08-21T19:29:04.000Z</time>
        <extensions>
          <ns3:TrackPointExtension>
            <ns3:hr>133</ns3:hr>
            <ns3:cad>0</ns3:cad>
          </ns3:TrackPointExtension>
        </extensions>
      </trkpt>
      <trkpt lat="45.34974387846887111663818359375" lon="-71.00399234332144260406494140625">
        <ele>817.20001220703125</ele>
        <time>2026-08-21T19:29:05.000Z</time>
        <extensions>
          <ns3:TrackPointExtension>
            <ns3:hr>133</ns3:hr>
            <ns3:cad>0</ns3:cad>
          </ns3:TrackPointExtension>
        </extensions>
      </trkpt>
      <trkpt lat="45.349744297564029693603515625" lon="-71.00400122813880443572998046875">
        <ele>817.5999755859375</ele>
        <time>2026-08-21T19:29:06.000Z</time>
        <extensions>
          <ns3:TrackPointExtension>
            <ns3:hr>133</ns3:hr>
            <ns3:cad>0</ns3:cad>
          </ns3:TrackPointExtension>
        </extensions>
      </trkpt>
      <trkpt lat="45.34974195063114166259765625" lon="-71.00401103496551513671875">
        <ele>817.79998779296875</ele>
        <time>2026-08-21T19:29:07.000Z</time>
        <extensions>
          <ns3:TrackPointExtension>
            <ns3:hr>133</ns3:hr>
            <ns3:cad>0</ns3:cad>
          </ns3:TrackPointExtension>
        </extensions>
      </trkpt>
      <trkpt lat="45.349738933145999908447265625" lon="-71.00402486510574817657470703125">
        <ele>818</ele>
        <time>2026-08-21T19:29:08.000Z</time>
        <extensions>
          <ns3:TrackPointExtension>
            <ns3:hr>132</ns3:hr>
            <ns3:cad>0</ns3:cad>
          </ns3:TrackPointExtension>
        </extensions>
      </trkpt>
      <trkpt lat="45.34973658621311187744140625" lon="-71.00403492338955402374267578125">
        <ele>818.20001220703125</ele>
        <time>2026-08-21T19:29:09.000Z</time>
        <extensions>
          <ns3:TrackPointExtension>
            <ns3:hr>132</ns3:hr>
            <ns3:cad>0</ns3:cad>
          </ns3:TrackPointExtension>
        </extensions>
      </trkpt>
      <trkpt lat="45.34973499365150928497314453125" lon="-71.00404431112110614776611328125">
        <ele>818.4000244140625</ele>
        <time>2026-08-21T19:29:10.000Z</time>
        <extensions>
          <ns3:TrackPointExtension>
            <ns3:hr>132</ns3:hr>
            <ns3:cad>0</ns3:cad>
          </ns3:TrackPointExtension>
        </extensions>
      </trkpt>
      <trkpt lat="45.34973482601344585418701171875" lon="-71.004048250615596771240234375">
        <ele>818.5999755859375</ele>
        <time>2026-08-21T19:29:11.000Z</time>
        <extensions>
          <ns3:TrackPointExtension>
            <ns3:hr>133</ns3:hr>
            <ns3:cad>0</ns3:cad>
          </ns3:TrackPointExtension>
        </extensions>
      </trkpt>
      <trkpt lat="45.34973314963281154632568359375" lon="-71.00404548458755016326904296875">
        <ele>818.79998779296875</ele>
        <time>2026-08-21T19:29:12.000Z</time>
        <extensions>
          <ns3:TrackPointExtension>
            <ns3:hr>133</ns3:hr>
            <ns3:cad>0</ns3:cad>
          </ns3:TrackPointExtension>
        </extensions>
      </trkpt>
      <trkpt lat="45.34972392953932285308837890625" lon="-71.004052944481372833251953125">
        <ele>819</ele>
        <time>2026-08-21T19:29:13.000Z</time>
        <extensions>
          <ns3:TrackPointExtension>
            <ns3:hr>133</ns3:hr>
            <ns3:cad>0</ns3:cad>
          </ns3:TrackPointExtension>
        </extensions>
      </trkpt>
      <trkpt lat="45.34971957094967365264892578125" lon="-71.0040541179478168487548828125">
        <ele>819.20001220703125</ele>
        <time>2026-08-21T19:29:14.000Z</time>
        <extensions>
          <ns3:TrackPointExtension>
            <ns3:hr>134</ns3:hr>
            <ns3:cad>0</ns3:cad>
          </ns3:TrackPointExtension>
        </extensions>
      </trkpt>
      <trkpt lat="45.34971839748322963714599609375" lon="-71.00405990146100521087646484375">
        <ele>819.4000244140625</ele>
        <time>2026-08-21T19:29:15.000Z</time>
        <extensions>
          <ns3:TrackPointExtension>
            <ns3:hr>134</ns3:hr>
            <ns3:cad>0</ns3:cad>
          </ns3:TrackPointExtension>
        </extensions>
      </trkpt>
      <trkpt lat="45.3497183136641979217529296875" lon="-71.00406409241259098052978515625">
        <ele>819.5999755859375</ele>
        <time>2026-08-21T19:29:16.000Z</time>
        <extensions>
          <ns3:TrackPointExtension>
            <ns3:hr>135</ns3:hr>
            <ns3:cad>0</ns3:cad>
          </ns3:TrackPointExtension>
        </extensions>
      </trkpt>
      <trkpt lat="45.349716134369373321533203125" lon="-71.0040671937167644500732421875">
        <ele>819.79998779296875</ele>
        <time>2026-08-21T19:29:17.000Z</time>
        <extensions>
          <ns3:TrackPointExtension>
            <ns3:hr>136</ns3:hr>
            <ns3:cad>0</ns3:cad>
          </ns3:TrackPointExtension>
        </extensions>
      </trkpt>
      <trkpt lat="45.34971152432262897491455078125" lon="-71.00407415069639682769775390625">
        <ele>820.20001220703125</ele>
        <time>2026-08-21T19:29:18.000Z</time>
        <extensions>
          <ns3:TrackPointExtension>
            <ns3:hr>136</ns3:hr>
            <ns3:cad>0</ns3:cad>
          </ns3:TrackPointExtension>
        </extensions>
      </trkpt>
      <trkpt lat="45.349710099399089813232421875" lon="-71.0040767490863800048828125">
        <ele>820.4000244140625</ele>
        <time>2026-08-21T19:29:19.000Z</time>
        <extensions>
          <ns3:TrackPointExtension>
            <ns3:hr>136</ns3:hr>
            <ns3:cad>0</ns3:cad>
          </ns3:TrackPointExtension>
        </extensions>
      </trkpt>
      <trkpt lat="45.34970750100910663604736328125" lon="-71.00408471189439296722412109375">
        <ele>820.5999755859375</ele>
        <time>2026-08-21T19:29:20.000Z</time>
        <extensions>
          <ns3:TrackPointExtension>
            <ns3:hr>135</ns3:hr>
            <ns3:cad>0</ns3:cad>
          </ns3:TrackPointExtension>
        </extensions>
      </trkpt>
      <trkpt lat="45.34970574080944061279296875" lon="-71.00408622063696384429931640625">
        <ele>820.79998779296875</ele>
        <time>2026-08-21T19:29:21.000Z</time>
        <extensions>
          <ns3:TrackPointExtension>
            <ns3:hr>135</ns3:hr>
            <ns3:cad>0</ns3:cad>
          </ns3:TrackPointExtension>
        </extensions>
      </trkpt>
      <trkpt lat="45.349700711667537689208984375" lon="-71.004088483750820159912109375">
        <ele>821</ele>
        <time>2026-08-21T19:29:22.000Z</time>
        <extensions>
          <ns3:TrackPointExtension>
            <ns3:hr>135</ns3:hr>
            <ns3:cad>0</ns3:cad>
          </ns3:TrackPointExtension>
        </extensions>
      </trkpt>
      <trkpt lat="45.34970046021044254302978515625" lon="-71.0041054151952266693115234375">
        <ele>821.20001220703125</ele>
        <time>2026-08-21T19:29:23.000Z</time>
        <extensions>
          <ns3:TrackPointExtension>
            <ns3:hr>135</ns3:hr>
            <ns3:cad>0</ns3:cad>
          </ns3:TrackPointExtension>
        </extensions>
      </trkpt>
      <trkpt lat="45.34970096312463283538818359375" lon="-71.0041205026209354400634765625">
        <ele>821.4000244140625</ele>
        <time>2026-08-21T19:29:24.000Z</time>
        <extensions>
          <ns3:TrackPointExtension>
            <ns3:hr>135</ns3:hr>
            <ns3:cad>0</ns3:cad>
          </ns3:TrackPointExtension>
        </extensions>
      </trkpt>
      <trkpt lat="45.349703729152679443359375" lon="-71.0041357576847076416015625">
        <ele>821.5999755859375</ele>
        <time>2026-08-21T19:29:25.000Z</time>
        <extensions>
          <ns3:TrackPointExtension>
            <ns3:hr>133</ns3:hr>
            <ns3:cad>0</ns3:cad>
          </ns3:TrackPointExtension>
        </extensions>
      </trkpt>
      <trkpt lat="45.3497092612087726593017578125" lon="-71.0041433013975620269775390625">
        <ele>821.79998779296875</ele>
        <time>2026-08-21T19:29:26.000Z</time>
        <extensions>
          <ns3:TrackPointExtension>
            <ns3:hr>132</ns3:hr>
            <ns3:cad>0</ns3:cad>
          </ns3:TrackPointExtension>
        </extensions>
      </trkpt>
      <trkpt lat="45.3497079201042652130126953125" lon="-71.0041590593755245208740234375">
        <ele>821.79998779296875</ele>
        <time>2026-08-21T19:29:27.000Z</time>
        <extensions>
          <ns3:TrackPointExtension>
            <ns3:hr>132</ns3:hr>
            <ns3:cad>0</ns3:cad>
          </ns3:TrackPointExtension>
        </extensions>
      </trkpt>
      <trkpt lat="45.3497131168842315673828125" lon="-71.00416970439255237579345703125">
        <ele>822</ele>
        <time>2026-08-21T19:29:28.000Z</time>
        <extensions>
          <ns3:TrackPointExtension>
            <ns3:hr>132</ns3:hr>
            <ns3:cad>0</ns3:cad>
          </ns3:TrackPointExtension>
        </extensions>
      </trkpt>
      <trkpt lat="45.3497159667313098907470703125" lon="-71.004182361066341400146484375">
        <ele>822.20001220703125</ele>
        <time>2026-08-21T19:29:29.000Z</time>
        <extensions>
          <ns3:TrackPointExtension>
            <ns3:hr>132</ns3:hr>
            <ns3:cad>0</ns3:cad>
          </ns3:TrackPointExtension>
        </extensions>
      </trkpt>
      <trkpt lat="45.34971890039741992950439453125" lon="-71.00419015623629093170166015625">
        <ele>822.4000244140625</ele>
        <time>2026-08-21T19:29:30.000Z</time>
        <extensions>
          <ns3:TrackPointExtension>
            <ns3:hr>132</ns3:hr>
            <ns3:cad>0</ns3:cad>
          </ns3:TrackPointExtension>
        </extensions>
      </trkpt>
      <trkpt lat="45.3497193194925785064697265625" lon="-71.00419677793979644775390625">
        <ele>822.4000244140625</ele>
        <time>2026-08-21T19:29:31.000Z</time>
        <extensions>
          <ns3:TrackPointExtension>
            <ns3:hr>132</ns3:hr>
            <ns3:cad>0</ns3:cad>
          </ns3:TrackPointExtension>
        </extensions>
      </trkpt>
      <trkpt lat="45.34972325898706912994384765625" lon="-71.0042116977274417877197265625">
        <ele>822.5999755859375</ele>
        <time>2026-08-21T19:29:32.000Z</time>
        <extensions>
          <ns3:TrackPointExtension>
            <ns3:hr>132</ns3:hr>
            <ns3:cad>0</ns3:cad>
          </ns3:TrackPointExtension>
        </extensions>
      </trkpt>
      <trkpt lat="45.34972761757671833038330078125" lon="-71.00421848706901073455810546875">
        <ele>822.79998779296875</ele>
        <time>2026-08-21T19:29:33.000Z</time>
        <extensions>
          <ns3:TrackPointExtension>
            <ns3:hr>132</ns3:hr>
            <ns3:cad>0</ns3:cad>
          </ns3:TrackPointExtension>
        </extensions>
      </trkpt>
      <trkpt lat="45.3497354127466678619384765625" lon="-71.00422955118119716644287109375">
        <ele>823</ele>
        <time>2026-08-21T19:29:34.000Z</time>
        <extensions>
          <ns3:TrackPointExtension>
            <ns3:hr>132</ns3:hr>
            <ns3:cad>0</ns3:cad>
          </ns3:TrackPointExtension>
        </extensions>
      </trkpt>
      <trkpt lat="45.34973599947988986968994140625" lon="-71.0042408667504787445068359375">
        <ele>823.20001220703125</ele>
        <time>2026-08-21T19:29:35.000Z</time>
        <extensions>
          <ns3:TrackPointExtension>
            <ns3:hr>133</ns3:hr>
            <ns3:cad>0</ns3:cad>
          </ns3:TrackPointExtension>
        </extensions>
      </trkpt>
      <trkpt lat="45.3497350774705410003662109375" lon="-71.00424706935882568359375">
        <ele>823.4000244140625</ele>
        <time>2026-08-21T19:29:36.000Z</time>
        <extensions>
          <ns3:TrackPointExtension>
            <ns3:hr>133</ns3:hr>
            <ns3:cad>0</ns3:cad>
          </ns3:TrackPointExtension>
        </extensions>
      </trkpt>
      <trkpt lat="45.349738933145999908447265625" lon="-71.00425955839455127716064453125">
        <ele>823.5999755859375</ele>
        <time>2026-08-21T19:29:37.000Z</time>
        <extensions>
          <ns3:TrackPointExtension>
            <ns3:hr>134</ns3:hr>
            <ns3:cad>71</ns3:cad>
          </ns3:TrackPointExtension>
        </extensions>
      </trkpt>
      <trkpt lat="45.349744297564029693603515625" lon="-71.00427045486867427825927734375">
        <ele>823.79998779296875</ele>
        <time>2026-08-21T19:29:38.000Z</time>
        <extensions>
          <ns3:TrackPointExtension>
            <ns3:hr>134</ns3:hr>
            <ns3:cad>71</ns3:cad>
          </ns3:TrackPointExtension>
        </extensions>
      </trkpt>
      <trkpt lat="45.3497491590678691864013671875" lon="-71.004284955561161041259765625">
        <ele>824</ele>
        <time>2026-08-21T19:29:39.000Z</time>
        <extensions>
          <ns3:TrackPointExtension>
            <ns3:hr>133</ns3:hr>
            <ns3:cad>0</ns3:cad>
          </ns3:TrackPointExtension>
        </extensions>
      </trkpt>
      <trkpt lat="45.34974999725818634033203125" lon="-71.00429208017885684967041015625">
        <ele>824.20001220703125</ele>
        <time>2026-08-21T19:29:40.000Z</time>
        <extensions>
          <ns3:TrackPointExtension>
            <ns3:hr>133</ns3:hr>
            <ns3:cad>0</ns3:cad>
          </ns3:TrackPointExtension>
        </extensions>
      </trkpt>
      <trkpt lat="45.3497568704187870025634765625" lon="-71.0042998753488063812255859375">
        <ele>824.20001220703125</ele>
        <time>2026-08-21T19:29:41.000Z</time>
        <extensions>
          <ns3:TrackPointExtension>
            <ns3:hr>134</ns3:hr>
            <ns3:cad>0</ns3:cad>
          </ns3:TrackPointExtension>
        </extensions>
      </trkpt>
      <trkpt lat="45.349762737751007080078125" lon="-71.00431077182292938232421875">
        <ele>824.4000244140625</ele>
        <time>2026-08-21T19:29:42.000Z</time>
        <extensions>
          <ns3:TrackPointExtension>
            <ns3:hr>134</ns3:hr>
            <ns3:cad>0</ns3:cad>
          </ns3:TrackPointExtension>
        </extensions>
      </trkpt>
      <trkpt lat="45.34976743161678314208984375" lon="-71.00431337021291255950927734375">
        <ele>824.4000244140625</ele>
        <time>2026-08-21T19:29:43.000Z</time>
        <extensions>
          <ns3:TrackPointExtension>
            <ns3:hr>134</ns3:hr>
            <ns3:cad>0</ns3:cad>
          </ns3:TrackPointExtension>
        </extensions>
      </trkpt>
      <trkpt lat="45.34977656789124011993408203125" lon="-71.004319489002227783203125">
        <ele>824.5999755859375</ele>
        <time>2026-08-21T19:29:44.000Z</time>
        <extensions>
          <ns3:TrackPointExtension>
            <ns3:hr>134</ns3:hr>
            <ns3:cad>0</ns3:cad>
          </ns3:TrackPointExtension>
        </extensions>
      </trkpt>
      <trkpt lat="45.3497867099940776824951171875" lon="-71.00432627834379673004150390625">
        <ele>824.5999755859375</ele>
        <time>2026-08-21T19:29:45.000Z</time>
        <extensions>
          <ns3:TrackPointExtension>
            <ns3:hr>134</ns3:hr>
            <ns3:cad>0</ns3:cad>
          </ns3:TrackPointExtension>
        </extensions>
      </trkpt>
      <trkpt lat="45.34979551099240779876708984375" lon="-71.00433826446533203125">
        <ele>824.5999755859375</ele>
        <time>2026-08-21T19:29:46.000Z</time>
        <extensions>
          <ns3:TrackPointExtension>
            <ns3:hr>134</ns3:hr>
            <ns3:cad>0</ns3:cad>
          </ns3:TrackPointExtension>
        </extensions>
      </trkpt>
      <trkpt lat="45.34979064948856830596923828125" lon="-71.00433759391307830810546875">
        <ele>824.5999755859375</ele>
        <time>2026-08-21T19:29:47.000Z</time>
        <extensions>
          <ns3:TrackPointExtension>
            <ns3:hr>134</ns3:hr>
            <ns3:cad>0</ns3:cad>
          </ns3:TrackPointExtension>
        </extensions>
      </trkpt>
      <trkpt lat="45.34978947602212429046630859375" lon="-71.0043377615511417388916015625">
        <ele>824.5999755859375</ele>
        <time>2026-08-21T19:29:48.000Z</time>
        <extensions>
          <ns3:TrackPointExtension>
            <ns3:hr>134</ns3:hr>
            <ns3:cad>0</ns3:cad>
          </ns3:TrackPointExtension>
        </extensions>
      </trkpt>
      <trkpt lat="45.34979886375367641448974609375" lon="-71.00434170104563236236572265625">
        <ele>824.5999755859375</ele>
        <time>2026-08-21T19:29:49.000Z</time>
        <extensions>
          <ns3:TrackPointExtension>
            <ns3:hr>134</ns3:hr>
            <ns3:cad>0</ns3:cad>
          </ns3:TrackPointExtension>
        </extensions>
      </trkpt>
      <trkpt lat="45.34980204887688159942626953125" lon="-71.00434438325464725494384765625">
        <ele>824.5999755859375</ele>
        <time>2026-08-21T19:29:50.000Z</time>
        <extensions>
          <ns3:TrackPointExtension>
            <ns3:hr>134</ns3:hr>
            <ns3:cad>0</ns3:cad>
          </ns3:TrackPointExtension>
        </extensions>
      </trkpt>
      <trkpt lat="45.34980322234332561492919921875" lon="-71.00434362888336181640625">
        <ele>824.4000244140625</ele>
        <time>2026-08-21T19:29:51.000Z</time>
        <extensions>
          <ns3:TrackPointExtension>
            <ns3:hr>134</ns3:hr>
            <ns3:cad>0</ns3:cad>
          </ns3:TrackPointExtension>
        </extensions>
      </trkpt>
      <trkpt lat="45.3498011268675327301025390625" lon="-71.0043471492826938629150390625">
        <ele>824.4000244140625</ele>
        <time>2026-08-21T19:29:52.000Z</time>
        <extensions>
          <ns3:TrackPointExtension>
            <ns3:hr>135</ns3:hr>
            <ns3:cad>0</ns3:cad>
          </ns3:TrackPointExtension>
        </extensions>
      </trkpt>
      <trkpt lat="45.34980288706719875335693359375" lon="-71.0043461434543132781982421875">
        <ele>824.4000244140625</ele>
        <time>2026-08-21T19:29:53.000Z</time>
        <extensions>
          <ns3:TrackPointExtension>
            <ns3:hr>135</ns3:hr>
            <ns3:cad>0</ns3:cad>
          </ns3:TrackPointExtension>
        </extensions>
      </trkpt>
      <trkpt lat="45.3498034738004207611083984375" lon="-71.00434832274913787841796875">
        <ele>824.4000244140625</ele>
        <time>2026-08-21T19:29:54.000Z</time>
        <extensions>
          <ns3:TrackPointExtension>
            <ns3:hr>134</ns3:hr>
            <ns3:cad>0</ns3:cad>
          </ns3:TrackPointExtension>
        </extensions>
      </trkpt>
      <trkpt lat="45.3498043119907379150390625" lon="-71.00435502827167510986328125">
        <ele>824.5999755859375</ele>
        <time>2026-08-21T19:29:55.000Z</time>
        <extensions>
          <ns3:TrackPointExtension>
            <ns3:hr>134</ns3:hr>
            <ns3:cad>0</ns3:cad>
          </ns3:TrackPointExtension>
        </extensions>
      </trkpt>
      <trkpt lat="45.34980724565684795379638671875" lon="-71.0043562017381191253662109375">
        <ele>824.79998779296875</ele>
        <time>2026-08-21T19:29:56.000Z</time>
        <extensions>
          <ns3:TrackPointExtension>
            <ns3:hr>133</ns3:hr>
            <ns3:cad>0</ns3:cad>
          </ns3:TrackPointExtension>
        </extensions>
      </trkpt>
      <trkpt lat="45.34981261007487773895263671875" lon="-71.0043649189174175262451171875">
        <ele>824.79998779296875</ele>
        <time>2026-08-21T19:29:57.000Z</time>
        <extensions>
          <ns3:TrackPointExtension>
            <ns3:hr>132</ns3:hr>
            <ns3:cad>0</ns3:cad>
          </ns3:TrackPointExtension>
        </extensions>
      </trkpt>
      <trkpt lat="45.3498145379126071929931640625" lon="-71.004368774592876434326171875">
        <ele>825</ele>
        <time>2026-08-21T19:29:58.000Z</time>
        <extensions>
          <ns3:TrackPointExtension>
            <ns3:hr>132</ns3:hr>
            <ns3:cad>0</ns3:cad>
          </ns3:TrackPointExtension>
        </extensions>
      </trkpt>
      <trkpt lat="45.34982032142579555511474609375" lon="-71.00437757559120655059814453125">
        <ele>825.20001220703125</ele>
        <time>2026-08-21T19:29:59.000Z</time>
        <extensions>
          <ns3:TrackPointExtension>
            <ns3:hr>132</ns3:hr>
            <ns3:cad>0</ns3:cad>
          </ns3:TrackPointExtension>
        </extensions>
      </trkpt>
      <trkpt lat="45.34982300363481044769287109375" lon="-71.00438855588436126708984375">
        <ele>825.20001220703125</ele>
        <time>2026-08-21T19:30:00.000Z</time>
        <extensions>
          <ns3:TrackPointExtension>
            <ns3:hr>132</ns3:hr>
            <ns3:cad>0</ns3:cad>
          </ns3:TrackPointExtension>
        </extensions>
      </trkpt>
      <trkpt lat="45.349823422729969024658203125" lon="-71.0043900646269321441650390625">
        <ele>825.4000244140625</ele>
        <time>2026-08-21T19:30:01.000Z</time>
        <extensions>
          <ns3:TrackPointExtension>
            <ns3:hr>132</ns3:hr>
            <ns3:cad>0</ns3:cad>
          </ns3:TrackPointExtension>
        </extensions>
      </trkpt>
      <trkpt lat="45.34982451237738132476806640625" lon="-71.00439785979688167572021484375">
        <ele>825.5999755859375</ele>
        <time>2026-08-21T19:30:02.000Z</time>
        <extensions>
          <ns3:TrackPointExtension>
            <ns3:hr>131</ns3:hr>
            <ns3:cad>0</ns3:cad>
          </ns3:TrackPointExtension>
        </extensions>
      </trkpt>
      <trkpt lat="45.3498282842338085174560546875" lon="-71.004405319690704345703125">
        <ele>825.79998779296875</ele>
        <time>2026-08-21T19:30:03.000Z</time>
        <extensions>
          <ns3:TrackPointExtension>
            <ns3:hr>131</ns3:hr>
            <ns3:cad>0</ns3:cad>
          </ns3:TrackPointExtension>
        </extensions>
      </trkpt>
      <trkpt lat="45.3498349897563457489013671875" lon="-71.00441629998385906219482421875">
        <ele>826.20001220703125</ele>
        <time>2026-08-21T19:30:04.000Z</time>
        <extensions>
          <ns3:TrackPointExtension>
            <ns3:hr>131</ns3:hr>
            <ns3:cad>0</ns3:cad>
          </ns3:TrackPointExtension>
        </extensions>
      </trkpt>
      <trkpt lat="45.34984295256435871124267578125" lon="-71.00443088449537754058837890625">
        <ele>826.4000244140625</ele>
        <time>2026-08-21T19:30:05.000Z</time>
        <extensions>
          <ns3:TrackPointExtension>
            <ns3:hr>132</ns3:hr>
            <ns3:cad>0</ns3:cad>
          </ns3:TrackPointExtension>
        </extensions>
      </trkpt>
      <trkpt lat="45.34984077326953411102294921875" lon="-71.00443541072309017181396484375">
        <ele>826.5999755859375</ele>
        <time>2026-08-21T19:30:06.000Z</time>
        <extensions>
          <ns3:TrackPointExtension>
            <ns3:hr>131</ns3:hr>
            <ns3:cad>0</ns3:cad>
          </ns3:TrackPointExtension>
        </extensions>
      </trkpt>
      <trkpt lat="45.3498443774878978729248046875" lon="-71.00445049814879894256591796875">
        <ele>827</ele>
        <time>2026-08-21T19:30:07.000Z</time>
        <extensions>
          <ns3:TrackPointExtension>
            <ns3:hr>132</ns3:hr>
            <ns3:cad>0</ns3:cad>
          </ns3:TrackPointExtension>
        </extensions>
      </trkpt>
      <trkpt lat="45.34984814934432506561279296875" lon="-71.0044541023671627044677734375">
        <ele>827.20001220703125</ele>
        <time>2026-08-21T19:30:08.000Z</time>
        <extensions>
          <ns3:TrackPointExtension>
            <ns3:hr>133</ns3:hr>
            <ns3:cad>0</ns3:cad>
          </ns3:TrackPointExtension>
        </extensions>
      </trkpt>
      <trkpt lat="45.3498534299433231353759765625" lon="-71.0044614784419536590576171875">
        <ele>827.4000244140625</ele>
        <time>2026-08-21T19:30:09.000Z</time>
        <extensions>
          <ns3:TrackPointExtension>
            <ns3:hr>133</ns3:hr>
            <ns3:cad>0</ns3:cad>
          </ns3:TrackPointExtension>
        </extensions>
      </trkpt>
      <trkpt lat="45.3498557768762111663818359375" lon="-71.00446893833577632904052734375">
        <ele>827.5999755859375</ele>
        <time>2026-08-21T19:30:10.000Z</time>
        <extensions>
          <ns3:TrackPointExtension>
            <ns3:hr>133</ns3:hr>
            <ns3:cad>0</ns3:cad>
          </ns3:TrackPointExtension>
        </extensions>
      </trkpt>
      <trkpt lat="45.3498598001897335052490234375" lon="-71.0044871270656585693359375">
        <ele>827.79998779296875</ele>
        <time>2026-08-21T19:30:11.000Z</time>
        <extensions>
          <ns3:TrackPointExtension>
            <ns3:hr>133</ns3:hr>
            <ns3:cad>0</ns3:cad>
          </ns3:TrackPointExtension>
        </extensions>
      </trkpt>
      <trkpt lat="45.34986558370292186737060546875" lon="-71.004490144550800323486328125">
        <ele>828</ele>
        <time>2026-08-21T19:30:12.000Z</time>
        <extensions>
          <ns3:TrackPointExtension>
            <ns3:hr>133</ns3:hr>
            <ns3:cad>0</ns3:cad>
          </ns3:TrackPointExtension>
        </extensions>
      </trkpt>
      <trkpt lat="45.34987396560609340667724609375" lon="-71.0044973529875278472900390625">
        <ele>828</ele>
        <time>2026-08-21T19:30:13.000Z</time>
        <extensions>
          <ns3:TrackPointExtension>
            <ns3:hr>134</ns3:hr>
            <ns3:cad>0</ns3:cad>
          </ns3:TrackPointExtension>
        </extensions>
      </trkpt>
      <trkpt lat="45.34988720901310443878173828125" lon="-71.00450464524328708648681640625">
        <ele>828.20001220703125</ele>
        <time>2026-08-21T19:30:14.000Z</time>
        <extensions>
          <ns3:TrackPointExtension>
            <ns3:hr>134</ns3:hr>
            <ns3:cad>0</ns3:cad>
          </ns3:TrackPointExtension>
        </extensions>
      </trkpt>
      <trkpt lat="45.3498973511159420013427734375" lon="-71.00451319478452205657958984375">
        <ele>828.20001220703125</ele>
        <time>2026-08-21T19:30:15.000Z</time>
        <extensions>
          <ns3:TrackPointExtension>
            <ns3:hr>134</ns3:hr>
            <ns3:cad>0</ns3:cad>
          </ns3:TrackPointExtension>
        </extensions>
      </trkpt>
      <trkpt lat="45.34990799613296985626220703125" lon="-71.00452090613543987274169921875">
        <ele>828.4000244140625</ele>
        <time>2026-08-21T19:30:16.000Z</time>
        <extensions>
          <ns3:TrackPointExtension>
            <ns3:hr>133</ns3:hr>
            <ns3:cad>0</ns3:cad>
          </ns3:TrackPointExtension>
        </extensions>
      </trkpt>
      <trkpt lat="45.349912941455841064453125" lon="-71.00452794693410396575927734375">
        <ele>828.4000244140625</ele>
        <time>2026-08-21T19:30:17.000Z</time>
        <extensions>
          <ns3:TrackPointExtension>
            <ns3:hr>134</ns3:hr>
            <ns3:cad>0</ns3:cad>
          </ns3:TrackPointExtension>
        </extensions>
      </trkpt>
      <trkpt lat="45.34991738386452198028564453125" lon="-71.00453448481857776641845703125">
        <ele>828.4000244140625</ele>
        <time>2026-08-21T19:30:18.000Z</time>
        <extensions>
          <ns3:TrackPointExtension>
            <ns3:hr>134</ns3:hr>
            <ns3:cad>0</ns3:cad>
          </ns3:TrackPointExtension>
        </extensions>
      </trkpt>
      <trkpt lat="45.34992023371160030364990234375" lon="-71.004548482596874237060546875">
        <ele>828.5999755859375</ele>
        <time>2026-08-21T19:30:19.000Z</time>
        <extensions>
          <ns3:TrackPointExtension>
            <ns3:hr>133</ns3:hr>
            <ns3:cad>0</ns3:cad>
          </ns3:TrackPointExtension>
        </extensions>
      </trkpt>
      <trkpt lat="45.349918641149997711181640625" lon="-71.00456784479320049285888671875">
        <ele>828.79998779296875</ele>
        <time>2026-08-21T19:30:20.000Z</time>
        <extensions>
          <ns3:TrackPointExtension>
            <ns3:hr>133</ns3:hr>
            <ns3:cad>0</ns3:cad>
          </ns3:TrackPointExtension>
        </extensions>
      </trkpt>
      <trkpt lat="45.34991973079741001129150390625" lon="-71.0045808367431163787841796875">
        <ele>829</ele>
        <time>2026-08-21T19:30:21.000Z</time>
        <extensions>
          <ns3:TrackPointExtension>
            <ns3:hr>133</ns3:hr>
            <ns3:cad>0</ns3:cad>
          </ns3:TrackPointExtension>
        </extensions>
      </trkpt>
      <trkpt lat="45.34992023371160030364990234375" lon="-71.00458846427500247955322265625">
        <ele>829.20001220703125</ele>
        <time>2026-08-21T19:30:22.000Z</time>
        <extensions>
          <ns3:TrackPointExtension>
            <ns3:hr>134</ns3:hr>
            <ns3:cad>0</ns3:cad>
          </ns3:TrackPointExtension>
        </extensions>
      </trkpt>
      <trkpt lat="45.3499208204448223114013671875" lon="-71.00460221059620380401611328125">
        <ele>829.4000244140625</ele>
        <time>2026-08-21T19:30:23.000Z</time>
        <extensions>
          <ns3:TrackPointExtension>
            <ns3:hr>135</ns3:hr>
            <ns3:cad>0</ns3:cad>
          </ns3:TrackPointExtension>
        </extensions>
      </trkpt>
      <trkpt lat="45.349926687777042388916015625" lon="-71.00461377762258052825927734375">
        <ele>829.5999755859375</ele>
        <time>2026-08-21T19:30:24.000Z</time>
        <extensions>
          <ns3:TrackPointExtension>
            <ns3:hr>136</ns3:hr>
            <ns3:cad>0</ns3:cad>
          </ns3:TrackPointExtension>
        </extensions>
      </trkpt>
      <trkpt lat="45.3499345667660236358642578125" lon="-71.00462467409670352935791015625">
        <ele>829.79998779296875</ele>
        <time>2026-08-21T19:30:25.000Z</time>
        <extensions>
          <ns3:TrackPointExtension>
            <ns3:hr>136</ns3:hr>
            <ns3:cad>45</ns3:cad>
          </ns3:TrackPointExtension>
        </extensions>
      </trkpt>
      <trkpt lat="45.34994169138371944427490234375" lon="-71.00463691167533397674560546875">
        <ele>829.79998779296875</ele>
        <time>2026-08-21T19:30:26.000Z</time>
        <extensions>
          <ns3:TrackPointExtension>
            <ns3:hr>136</ns3:hr>
            <ns3:cad>45</ns3:cad>
          </ns3:TrackPointExtension>
        </extensions>
      </trkpt>
      <trkpt lat="45.3499466367065906524658203125" lon="-71.004647724330425262451171875">
        <ele>830</ele>
        <time>2026-08-21T19:30:27.000Z</time>
        <extensions>
          <ns3:TrackPointExtension>
            <ns3:hr>136</ns3:hr>
            <ns3:cad>0</ns3:cad>
          </ns3:TrackPointExtension>
        </extensions>
      </trkpt>
      <trkpt lat="45.34995577298104763031005859375" lon="-71.0046602971851825714111328125">
        <ele>829.79998779296875</ele>
        <time>2026-08-21T19:30:28.000Z</time>
        <extensions>
          <ns3:TrackPointExtension>
            <ns3:hr>136</ns3:hr>
            <ns3:cad>0</ns3:cad>
          </ns3:TrackPointExtension>
        </extensions>
      </trkpt>
      <trkpt lat="45.3499625623226165771484375" lon="-71.00466976873576641082763671875">
        <ele>829.79998779296875</ele>
        <time>2026-08-21T19:30:29.000Z</time>
        <extensions>
          <ns3:TrackPointExtension>
            <ns3:hr>136</ns3:hr>
            <ns3:cad>0</ns3:cad>
          </ns3:TrackPointExtension>
        </extensions>
      </trkpt>
      <trkpt lat="45.34996834583580493927001953125" lon="-71.00468837656080722808837890625">
        <ele>829.79998779296875</ele>
        <time>2026-08-21T19:30:30.000Z</time>
        <extensions>
          <ns3:TrackPointExtension>
            <ns3:hr>136</ns3:hr>
            <ns3:cad>0</ns3:cad>
          </ns3:TrackPointExtension>
        </extensions>
      </trkpt>
      <trkpt lat="45.34997387789189815521240234375" lon="-71.00469558499753475189208984375">
        <ele>830</ele>
        <time>2026-08-21T19:30:31.000Z</time>
        <extensions>
          <ns3:TrackPointExtension>
            <ns3:hr>136</ns3:hr>
            <ns3:cad>0</ns3:cad>
          </ns3:TrackPointExtension>
        </extensions>
      </trkpt>
      <trkpt lat="45.34998242743313312530517578125" lon="-71.00470715202391147613525390625">
        <ele>830.20001220703125</ele>
        <time>2026-08-21T19:30:32.000Z</time>
        <extensions>
          <ns3:TrackPointExtension>
            <ns3:hr>137</ns3:hr>
            <ns3:cad>0</ns3:cad>
          </ns3:TrackPointExtension>
        </extensions>
      </trkpt>
      <trkpt lat="45.34999072551727294921875" lon="-71.00472140125930309295654296875">
        <ele>830.20001220703125</ele>
        <time>2026-08-21T19:30:33.000Z</time>
        <extensions>
          <ns3:TrackPointExtension>
            <ns3:hr>138</ns3:hr>
            <ns3:cad>0</ns3:cad>
          </ns3:TrackPointExtension>
        </extensions>
      </trkpt>
      <trkpt lat="45.3500006161630153656005859375" lon="-71.0047312080860137939453125">
        <ele>830.4000244140625</ele>
        <time>2026-08-21T19:30:34.000Z</time>
        <extensions>
          <ns3:TrackPointExtension>
            <ns3:hr>139</ns3:hr>
            <ns3:cad>0</ns3:cad>
          </ns3:TrackPointExtension>
        </extensions>
      </trkpt>
      <trkpt lat="45.3500116802752017974853515625" lon="-71.00474369712173938751220703125">
        <ele>830.4000244140625</ele>
        <time>2026-08-21T19:30:35.000Z</time>
        <extensions>
          <ns3:TrackPointExtension>
            <ns3:hr>140</ns3:hr>
            <ns3:cad>0</ns3:cad>
          </ns3:TrackPointExtension>
        </extensions>
      </trkpt>
      <trkpt lat="45.35002333112061023712158203125" lon="-71.00476205348968505859375">
        <ele>830.4000244140625</ele>
        <time>2026-08-21T19:30:36.000Z</time>
        <extensions>
          <ns3:TrackPointExtension>
            <ns3:hr>141</ns3:hr>
            <ns3:cad>0</ns3:cad>
          </ns3:TrackPointExtension>
        </extensions>
      </trkpt>
      <trkpt lat="45.350026600062847137451171875" lon="-71.00477186031639575958251953125">
        <ele>830.20001220703125</ele>
        <time>2026-08-21T19:30:37.000Z</time>
        <extensions>
          <ns3:TrackPointExtension>
            <ns3:hr>143</ns3:hr>
            <ns3:cad>0</ns3:cad>
          </ns3:TrackPointExtension>
        </extensions>
      </trkpt>
      <trkpt lat="45.35002894699573516845703125" lon="-71.00478996522724628448486328125">
        <ele>830.20001220703125</ele>
        <time>2026-08-21T19:30:38.000Z</time>
        <extensions>
          <ns3:TrackPointExtension>
            <ns3:hr>142</ns3:hr>
            <ns3:cad>0</ns3:cad>
          </ns3:TrackPointExtension>
        </extensions>
      </trkpt>
      <trkpt lat="45.35003422759473323822021484375" lon="-71.0047977603971958160400390625">
        <ele>830.20001220703125</ele>
        <time>2026-08-21T19:30:39.000Z</time>
        <extensions>
          <ns3:TrackPointExtension>
            <ns3:hr>141</ns3:hr>
            <ns3:cad>0</ns3:cad>
          </ns3:TrackPointExtension>
        </extensions>
      </trkpt>
      <trkpt lat="45.35003724507987499237060546875" lon="-71.0048021189868450164794921875">
        <ele>830.4000244140625</ele>
        <time>2026-08-21T19:30:40.000Z</time>
        <extensions>
          <ns3:TrackPointExtension>
            <ns3:hr>140</ns3:hr>
            <ns3:cad>0</ns3:cad>
          </ns3:TrackPointExtension>
        </extensions>
      </trkpt>
      <trkpt lat="45.3500385023653507232666015625" lon="-71.00481058470904827117919921875">
        <ele>830.5999755859375</ele>
        <time>2026-08-21T19:30:41.000Z</time>
        <extensions>
          <ns3:TrackPointExtension>
            <ns3:hr>140</ns3:hr>
            <ns3:cad>0</ns3:cad>
          </ns3:TrackPointExtension>
        </extensions>
      </trkpt>
      <trkpt lat="45.35003833472728729248046875" lon="-71.0048128478229045867919921875">
        <ele>830.79998779296875</ele>
        <time>2026-08-21T19:30:42.000Z</time>
        <extensions>
          <ns3:TrackPointExtension>
            <ns3:hr>139</ns3:hr>
            <ns3:cad>0</ns3:cad>
          </ns3:TrackPointExtension>
        </extensions>
      </trkpt>
      <trkpt lat="45.35003456287086009979248046875" lon="-71.00481234490871429443359375">
        <ele>831.20001220703125</ele>
        <time>2026-08-21T19:30:43.000Z</time>
        <extensions>
          <ns3:TrackPointExtension>
            <ns3:hr>139</ns3:hr>
            <ns3:cad>0</ns3:cad>
          </ns3:TrackPointExtension>
        </extensions>
      </trkpt>
      <trkpt lat="45.35003162920475006103515625" lon="-71.00480957888066768646240234375">
        <ele>831.4000244140625</ele>
        <time>2026-08-21T19:30:44.000Z</time>
        <extensions>
          <ns3:TrackPointExtension>
            <ns3:hr>140</ns3:hr>
            <ns3:cad>47</ns3:cad>
          </ns3:TrackPointExtension>
        </extensions>
      </trkpt>
      <trkpt lat="45.35002718679606914520263671875" lon="-71.004810668528079986572265625">
        <ele>831.5999755859375</ele>
        <time>2026-08-21T19:30:45.000Z</time>
        <extensions>
          <ns3:TrackPointExtension>
            <ns3:hr>141</ns3:hr>
            <ns3:cad>47</ns3:cad>
          </ns3:TrackPointExtension>
        </extensions>
      </trkpt>
      <trkpt lat="45.350025258958339691162109375" lon="-71.004814021289348602294921875">
        <ele>831.79998779296875</ele>
        <time>2026-08-21T19:30:46.000Z</time>
        <extensions>
          <ns3:TrackPointExtension>
            <ns3:hr>142</ns3:hr>
            <ns3:cad>47</ns3:cad>
          </ns3:TrackPointExtension>
        </extensions>
      </trkpt>
      <trkpt lat="45.3500203974545001983642578125" lon="-71.00481695495545864105224609375">
        <ele>832</ele>
        <time>2026-08-21T19:30:47.000Z</time>
        <extensions>
          <ns3:TrackPointExtension>
            <ns3:hr>143</ns3:hr>
            <ns3:cad>0</ns3:cad>
          </ns3:TrackPointExtension>
        </extensions>
      </trkpt>
      <trkpt lat="45.35001494921743869781494140625" lon="-71.0048210620880126953125">
        <ele>832.20001220703125</ele>
        <time>2026-08-21T19:30:48.000Z</time>
        <extensions>
          <ns3:TrackPointExtension>
            <ns3:hr>144</ns3:hr>
            <ns3:cad>0</ns3:cad>
          </ns3:TrackPointExtension>
        </extensions>
      </trkpt>
      <trkpt lat="45.35000723786652088165283203125" lon="-71.004828102886676788330078125">
        <ele>832.4000244140625</ele>
        <time>2026-08-21T19:30:49.000Z</time>
        <extensions>
          <ns3:TrackPointExtension>
            <ns3:hr>144</ns3:hr>
            <ns3:cad>43</ns3:cad>
          </ns3:TrackPointExtension>
        </extensions>
      </trkpt>
      <trkpt lat="45.35000354982912540435791015625" lon="-71.00483153946697711944580078125">
        <ele>832.5999755859375</ele>
        <time>2026-08-21T19:30:50.000Z</time>
        <extensions>
          <ns3:TrackPointExtension>
            <ns3:hr>143</ns3:hr>
            <ns3:cad>43</ns3:cad>
          </ns3:TrackPointExtension>
        </extensions>
      </trkpt>
      <trkpt lat="45.35000137053430080413818359375" lon="-71.00483338348567485809326171875">
        <ele>832.79998779296875</ele>
        <time>2026-08-21T19:30:51.000Z</time>
        <extensions>
          <ns3:TrackPointExtension>
            <ns3:hr>143</ns3:hr>
            <ns3:cad>43</ns3:cad>
          </ns3:TrackPointExtension>
        </extensions>
      </trkpt>
      <trkpt lat="45.3499942459166049957275390625" lon="-71.00483656860888004302978515625">
        <ele>833</ele>
        <time>2026-08-21T19:30:52.000Z</time>
        <extensions>
          <ns3:TrackPointExtension>
            <ns3:hr>143</ns3:hr>
            <ns3:cad>45</ns3:cad>
          </ns3:TrackPointExtension>
        </extensions>
      </trkpt>
      <trkpt lat="45.34998896531760692596435546875" lon="-71.00483623333275318145751953125">
        <ele>833.4000244140625</ele>
        <time>2026-08-21T19:30:53.000Z</time>
        <extensions>
          <ns3:TrackPointExtension>
            <ns3:hr>143</ns3:hr>
            <ns3:cad>45</ns3:cad>
          </ns3:TrackPointExtension>
        </extensions>
      </trkpt>
      <trkpt lat="45.34998427145183086395263671875" lon="-71.00483807735145092010498046875">
        <ele>833.5999755859375</ele>
        <time>2026-08-21T19:30:54.000Z</time>
        <extensions>
          <ns3:TrackPointExtension>
            <ns3:hr>144</ns3:hr>
            <ns3:cad>45</ns3:cad>
          </ns3:TrackPointExtension>
        </extensions>
      </trkpt>
      <trkpt lat="45.34997739829123020172119140625" lon="-71.0048393346369266510009765625">
        <ele>833.79998779296875</ele>
        <time>2026-08-21T19:30:55.000Z</time>
        <extensions>
          <ns3:TrackPointExtension>
            <ns3:hr>144</ns3:hr>
            <ns3:cad>45</ns3:cad>
          </ns3:TrackPointExtension>
        </extensions>
      </trkpt>
      <trkpt lat="45.34997371025383472442626953125" lon="-71.00483916699886322021484375">
        <ele>834</ele>
        <time>2026-08-21T19:30:56.000Z</time>
        <extensions>
          <ns3:TrackPointExtension>
            <ns3:hr>145</ns3:hr>
            <ns3:cad>0</ns3:cad>
          </ns3:TrackPointExtension>
        </extensions>
      </trkpt>
      <trkpt lat="45.34996381960809230804443359375" lon="-71.0048403404653072357177734375">
        <ele>834.4000244140625</ele>
        <time>2026-08-21T19:30:57.000Z</time>
        <extensions>
          <ns3:TrackPointExtension>
            <ns3:hr>145</ns3:hr>
            <ns3:cad>0</ns3:cad>
          </ns3:TrackPointExtension>
        </extensions>
      </trkpt>
      <trkpt lat="45.34995677880942821502685546875" lon="-71.00484444759786128997802734375">
        <ele>834.4000244140625</ele>
        <time>2026-08-21T19:30:58.000Z</time>
        <extensions>
          <ns3:TrackPointExtension>
            <ns3:hr>146</ns3:hr>
            <ns3:cad>0</ns3:cad>
          </ns3:TrackPointExtension>
        </extensions>
      </trkpt>
      <trkpt lat="45.34994504414498805999755859375" lon="-71.00485324859619140625">
        <ele>834.5999755859375</ele>
        <time>2026-08-21T19:30:59.000Z</time>
        <extensions>
          <ns3:TrackPointExtension>
            <ns3:hr>146</ns3:hr>
            <ns3:cad>0</ns3:cad>
          </ns3:TrackPointExtension>
        </extensions>
      </trkpt>
      <trkpt lat="45.34994043409824371337890625" lon="-71.004855930805206298828125">
        <ele>834.79998779296875</ele>
        <time>2026-08-21T19:31:00.000Z</time>
        <extensions>
          <ns3:TrackPointExtension>
            <ns3:hr>147</ns3:hr>
            <ns3:cad>0</ns3:cad>
          </ns3:TrackPointExtension>
        </extensions>
      </trkpt>
      <trkpt lat="45.34993113018572330474853515625" lon="-71.00485802628099918365478515625">
        <ele>835</ele>
        <time>2026-08-21T19:31:01.000Z</time>
        <extensions>
          <ns3:TrackPointExtension>
            <ns3:hr>147</ns3:hr>
            <ns3:cad>0</ns3:cad>
          </ns3:TrackPointExtension>
        </extensions>
      </trkpt>
      <trkpt lat="45.34991805441677570343017578125" lon="-71.0048644803464412689208984375">
        <ele>835.20001220703125</ele>
        <time>2026-08-21T19:31:02.000Z</time>
        <extensions>
          <ns3:TrackPointExtension>
            <ns3:hr>146</ns3:hr>
            <ns3:cad>0</ns3:cad>
          </ns3:TrackPointExtension>
        </extensions>
      </trkpt>
      <trkpt lat="45.3499107621610164642333984375" lon="-71.00487328134477138519287109375">
        <ele>835.4000244140625</ele>
        <time>2026-08-21T19:31:03.000Z</time>
        <extensions>
          <ns3:TrackPointExtension>
            <ns3:hr>147</ns3:hr>
            <ns3:cad>0</ns3:cad>
          </ns3:TrackPointExtension>
        </extensions>
      </trkpt>
      <trkpt lat="45.34990615211427211761474609375" lon="-71.004887782037258148193359375">
        <ele>835.79998779296875</ele>
        <time>2026-08-21T19:31:04.000Z</time>
        <extensions>
          <ns3:TrackPointExtension>
            <ns3:hr>147</ns3:hr>
            <ns3:cad>0</ns3:cad>
          </ns3:TrackPointExtension>
        </extensions>
      </trkpt>
      <trkpt lat="45.349905230104923248291015625" lon="-71.0048923082649707794189453125">
        <ele>836</ele>
        <time>2026-08-21T19:31:05.000Z</time>
        <extensions>
          <ns3:TrackPointExtension>
            <ns3:hr>148</ns3:hr>
            <ns3:cad>0</ns3:cad>
          </ns3:TrackPointExtension>
        </extensions>
      </trkpt>
      <trkpt lat="45.34990615211427211761474609375" lon="-71.00490312092006206512451171875">
        <ele>836.20001220703125</ele>
        <time>2026-08-21T19:31:06.000Z</time>
        <extensions>
          <ns3:TrackPointExtension>
            <ns3:hr>148</ns3:hr>
            <ns3:cad>0</ns3:cad>
          </ns3:TrackPointExtension>
        </extensions>
      </trkpt>
      <trkpt lat="45.34990313462913036346435546875" lon="-71.004911921918392181396484375">
        <ele>836.4000244140625</ele>
        <time>2026-08-21T19:31:07.000Z</time>
        <extensions>
          <ns3:TrackPointExtension>
            <ns3:hr>149</ns3:hr>
            <ns3:cad>0</ns3:cad>
          </ns3:TrackPointExtension>
        </extensions>
      </trkpt>
      <trkpt lat="45.3499003686010837554931640625" lon="-71.004914604127407073974609375">
        <ele>836.5999755859375</ele>
        <time>2026-08-21T19:31:08.000Z</time>
        <extensions>
          <ns3:TrackPointExtension>
            <ns3:hr>149</ns3:hr>
            <ns3:cad>71</ns3:cad>
          </ns3:TrackPointExtension>
        </extensions>
      </trkpt>
      <trkpt lat="45.34989542327821254730224609375" lon="-71.00491871125996112823486328125">
        <ele>836.79998779296875</ele>
        <time>2026-08-21T19:31:09.000Z</time>
        <extensions>
          <ns3:TrackPointExtension>
            <ns3:hr>148</ns3:hr>
            <ns3:cad>0</ns3:cad>
          </ns3:TrackPointExtension>
        </extensions>
      </trkpt>
      <trkpt lat="45.34989860840141773223876953125" lon="-71.0049187950789928436279296875">
        <ele>837</ele>
        <time>2026-08-21T19:31:10.000Z</time>
        <extensions>
          <ns3:TrackPointExtension>
            <ns3:hr>148</ns3:hr>
            <ns3:cad>0</ns3:cad>
          </ns3:TrackPointExtension>
        </extensions>
      </trkpt>
      <trkpt lat="45.34989726729691028594970703125" lon="-71.00492508150637149810791015625">
        <ele>837.20001220703125</ele>
        <time>2026-08-21T19:31:11.000Z</time>
        <extensions>
          <ns3:TrackPointExtension>
            <ns3:hr>148</ns3:hr>
            <ns3:cad>0</ns3:cad>
          </ns3:TrackPointExtension>
        </extensions>
      </trkpt>
      <trkpt lat="45.349896848201751708984375" lon="-71.00492290221154689788818359375">
        <ele>837.5999755859375</ele>
        <time>2026-08-21T19:31:12.000Z</time>
        <extensions>
          <ns3:TrackPointExtension>
            <ns3:hr>144</ns3:hr>
            <ns3:cad>0</ns3:cad>
          </ns3:TrackPointExtension>
        </extensions>
      </trkpt>
      <trkpt lat="45.34989156760275363922119140625" lon="-71.00492675788700580596923828125">
        <ele>837.79998779296875</ele>
        <time>2026-08-21T19:31:13.000Z</time>
        <extensions>
          <ns3:TrackPointExtension>
            <ns3:hr>139</ns3:hr>
            <ns3:cad>0</ns3:cad>
          </ns3:TrackPointExtension>
        </extensions>
      </trkpt>
      <trkpt lat="45.34988553263247013092041015625" lon="-71.004933379590511322021484375">
        <ele>838</ele>
        <time>2026-08-21T19:31:14.000Z</time>
        <extensions>
          <ns3:TrackPointExtension>
            <ns3:hr>138</ns3:hr>
            <ns3:cad>0</ns3:cad>
          </ns3:TrackPointExtension>
        </extensions>
      </trkpt>
      <trkpt lat="45.34987849183380603790283203125" lon="-71.0049362294375896453857421875">
        <ele>838.20001220703125</ele>
        <time>2026-08-21T19:31:15.000Z</time>
        <extensions>
          <ns3:TrackPointExtension>
            <ns3:hr>137</ns3:hr>
            <ns3:cad>0</ns3:cad>
          </ns3:TrackPointExtension>
        </extensions>
      </trkpt>
      <trkpt lat="45.34987094812095165252685546875" lon="-71.0049392469227313995361328125">
        <ele>838.4000244140625</ele>
        <time>2026-08-21T19:31:16.000Z</time>
        <extensions>
          <ns3:TrackPointExtension>
            <ns3:hr>136</ns3:hr>
            <ns3:cad>0</ns3:cad>
          </ns3:TrackPointExtension>
        </extensions>
      </trkpt>
      <trkpt lat="45.349869690835475921630859375" lon="-71.0049404203891754150390625">
        <ele>838.5999755859375</ele>
        <time>2026-08-21T19:31:17.000Z</time>
        <extensions>
          <ns3:TrackPointExtension>
            <ns3:hr>137</ns3:hr>
            <ns3:cad>0</ns3:cad>
          </ns3:TrackPointExtension>
        </extensions>
      </trkpt>
      <trkpt lat="45.349862985312938690185546875" lon="-71.00494201295077800750732421875">
        <ele>838.79998779296875</ele>
        <time>2026-08-21T19:31:18.000Z</time>
        <extensions>
          <ns3:TrackPointExtension>
            <ns3:hr>137</ns3:hr>
            <ns3:cad>0</ns3:cad>
          </ns3:TrackPointExtension>
        </extensions>
      </trkpt>
      <trkpt lat="45.349860303103923797607421875" lon="-71.00494352169334888458251953125">
        <ele>839</ele>
        <time>2026-08-21T19:31:19.000Z</time>
        <extensions>
          <ns3:TrackPointExtension>
            <ns3:hr>137</ns3:hr>
            <ns3:cad>0</ns3:cad>
          </ns3:TrackPointExtension>
        </extensions>
      </trkpt>
      <trkpt lat="45.3498581238090991973876953125" lon="-71.0049442760646343231201171875">
        <ele>839.4000244140625</ele>
        <time>2026-08-21T19:31:20.000Z</time>
        <extensions>
          <ns3:TrackPointExtension>
            <ns3:hr>138</ns3:hr>
            <ns3:cad>0</ns3:cad>
          </ns3:TrackPointExtension>
        </extensions>
      </trkpt>
      <trkpt lat="45.3498499095439910888671875" lon="-71.0049432702362537384033203125">
        <ele>839.5999755859375</ele>
        <time>2026-08-21T19:31:21.000Z</time>
        <extensions>
          <ns3:TrackPointExtension>
            <ns3:hr>138</ns3:hr>
            <ns3:cad>0</ns3:cad>
          </ns3:TrackPointExtension>
        </extensions>
      </trkpt>
      <trkpt lat="45.34984362311661243438720703125" lon="-71.004941426217555999755859375">
        <ele>839.79998779296875</ele>
        <time>2026-08-21T19:31:22.000Z</time>
        <extensions>
          <ns3:TrackPointExtension>
            <ns3:hr>138</ns3:hr>
            <ns3:cad>0</ns3:cad>
          </ns3:TrackPointExtension>
        </extensions>
      </trkpt>
      <trkpt lat="45.34983356483280658721923828125" lon="-71.00493832491338253021240234375">
        <ele>840</ele>
        <time>2026-08-21T19:31:23.000Z</time>
        <extensions>
          <ns3:TrackPointExtension>
            <ns3:hr>138</ns3:hr>
            <ns3:cad>0</ns3:cad>
          </ns3:TrackPointExtension>
        </extensions>
      </trkpt>
      <trkpt lat="45.34982870332896709442138671875" lon="-71.00493480451405048370361328125">
        <ele>840.20001220703125</ele>
        <time>2026-08-21T19:31:24.000Z</time>
        <extensions>
          <ns3:TrackPointExtension>
            <ns3:hr>138</ns3:hr>
            <ns3:cad>0</ns3:cad>
          </ns3:TrackPointExtension>
        </extensions>
      </trkpt>
      <trkpt lat="45.34982367418706417083740234375" lon="-71.0049395821988582611083984375">
        <ele>840.20001220703125</ele>
        <time>2026-08-21T19:31:25.000Z</time>
        <extensions>
          <ns3:TrackPointExtension>
            <ns3:hr>139</ns3:hr>
            <ns3:cad>0</ns3:cad>
          </ns3:TrackPointExtension>
        </extensions>
      </trkpt>
      <trkpt lat="45.34981948323547840118408203125" lon="-71.004944778978824615478515625">
        <ele>840.4000244140625</ele>
        <time>2026-08-21T19:31:26.000Z</time>
        <extensions>
          <ns3:TrackPointExtension>
            <ns3:hr>140</ns3:hr>
            <ns3:cad>0</ns3:cad>
          </ns3:TrackPointExtension>
        </extensions>
      </trkpt>
      <trkpt lat="45.3498165495693683624267578125" lon="-71.00494754500687122344970703125">
        <ele>840.5999755859375</ele>
        <time>2026-08-21T19:31:27.000Z</time>
        <extensions>
          <ns3:TrackPointExtension>
            <ns3:hr>140</ns3:hr>
            <ns3:cad>0</ns3:cad>
          </ns3:TrackPointExtension>
        </extensions>
      </trkpt>
      <trkpt lat="45.34980976022779941558837890625" lon="-71.00495450198650360107421875">
        <ele>840.79998779296875</ele>
        <time>2026-08-21T19:31:28.000Z</time>
        <extensions>
          <ns3:TrackPointExtension>
            <ns3:hr>141</ns3:hr>
            <ns3:cad>0</ns3:cad>
          </ns3:TrackPointExtension>
        </extensions>
      </trkpt>
      <trkpt lat="45.3498048149049282073974609375" lon="-71.00495676510035991668701171875">
        <ele>841</ele>
        <time>2026-08-21T19:31:29.000Z</time>
        <extensions>
          <ns3:TrackPointExtension>
            <ns3:hr>142</ns3:hr>
            <ns3:cad>0</ns3:cad>
          </ns3:TrackPointExtension>
        </extensions>
      </trkpt>
      <trkpt lat="45.34980204887688159942626953125" lon="-71.00495827384293079376220703125">
        <ele>841.20001220703125</ele>
        <time>2026-08-21T19:31:30.000Z</time>
        <extensions>
          <ns3:TrackPointExtension>
            <ns3:hr>142</ns3:hr>
            <ns3:cad>0</ns3:cad>
          </ns3:TrackPointExtension>
        </extensions>
      </trkpt>
      <trkpt lat="45.3497934155166149139404296875" lon="-71.00496212951838970184326171875">
        <ele>841.4000244140625</ele>
        <time>2026-08-21T19:31:31.000Z</time>
        <extensions>
          <ns3:TrackPointExtension>
            <ns3:hr>143</ns3:hr>
            <ns3:cad>0</ns3:cad>
          </ns3:TrackPointExtension>
        </extensions>
      </trkpt>
      <trkpt lat="45.34978947602212429046630859375" lon="-71.00496883504092693328857421875">
        <ele>841.5999755859375</ele>
        <time>2026-08-21T19:31:32.000Z</time>
        <extensions>
          <ns3:TrackPointExtension>
            <ns3:hr>143</ns3:hr>
            <ns3:cad>0</ns3:cad>
          </ns3:TrackPointExtension>
        </extensions>
      </trkpt>
      <trkpt lat="45.34978511743247509002685546875" lon="-71.00497704930603504180908203125">
        <ele>841.5999755859375</ele>
        <time>2026-08-21T19:31:33.000Z</time>
        <extensions>
          <ns3:TrackPointExtension>
            <ns3:hr>142</ns3:hr>
            <ns3:cad>0</ns3:cad>
          </ns3:TrackPointExtension>
        </extensions>
      </trkpt>
      <trkpt lat="45.34978092648088932037353515625" lon="-71.00498425774276256561279296875">
        <ele>841.79998779296875</ele>
        <time>2026-08-21T19:31:34.000Z</time>
        <extensions>
          <ns3:TrackPointExtension>
            <ns3:hr>142</ns3:hr>
            <ns3:cad>0</ns3:cad>
          </ns3:TrackPointExtension>
        </extensions>
      </trkpt>
      <trkpt lat="45.3497783280909061431884765625" lon="-71.00498744286596775054931640625">
        <ele>842</ele>
        <time>2026-08-21T19:31:35.000Z</time>
        <extensions>
          <ns3:TrackPointExtension>
            <ns3:hr>142</ns3:hr>
            <ns3:cad>0</ns3:cad>
          </ns3:TrackPointExtension>
        </extensions>
      </trkpt>
      <trkpt lat="45.34977003000676631927490234375" lon="-71.0049905441701412200927734375">
        <ele>842.20001220703125</ele>
        <time>2026-08-21T19:31:36.000Z</time>
        <extensions>
          <ns3:TrackPointExtension>
            <ns3:hr>141</ns3:hr>
            <ns3:cad>0</ns3:cad>
          </ns3:TrackPointExtension>
        </extensions>
      </trkpt>
      <trkpt lat="45.34976785071194171905517578125" lon="-71.0049925558269023895263671875">
        <ele>842.4000244140625</ele>
        <time>2026-08-21T19:31:37.000Z</time>
        <extensions>
          <ns3:TrackPointExtension>
            <ns3:hr>141</ns3:hr>
            <ns3:cad>0</ns3:cad>
          </ns3:TrackPointExtension>
        </extensions>
      </trkpt>
      <trkpt lat="45.349763743579387664794921875" lon="-71.00500051863491535186767578125">
        <ele>842.5999755859375</ele>
        <time>2026-08-21T19:31:38.000Z</time>
        <extensions>
          <ns3:TrackPointExtension>
            <ns3:hr>141</ns3:hr>
            <ns3:cad>0</ns3:cad>
          </ns3:TrackPointExtension>
        </extensions>
      </trkpt>
      <trkpt lat="45.34975728951394557952880859375" lon="-71.00500219501554965972900390625">
        <ele>842.79998779296875</ele>
        <time>2026-08-21T19:31:39.000Z</time>
        <extensions>
          <ns3:TrackPointExtension>
            <ns3:hr>141</ns3:hr>
            <ns3:cad>0</ns3:cad>
          </ns3:TrackPointExtension>
        </extensions>
      </trkpt>
      <trkpt lat="45.3497561998665332794189453125" lon="-71.00500035099685192108154296875">
        <ele>843</ele>
        <time>2026-08-21T19:31:40.000Z</time>
        <extensions>
          <ns3:TrackPointExtension>
            <ns3:hr>141</ns3:hr>
            <ns3:cad>0</ns3:cad>
          </ns3:TrackPointExtension>
        </extensions>
      </trkpt>
      <trkpt lat="45.34974890761077404022216796875" lon="-71.00500672124326229095458984375">
        <ele>843.20001220703125</ele>
        <time>2026-08-21T19:31:41.000Z</time>
        <extensions>
          <ns3:TrackPointExtension>
            <ns3:hr>142</ns3:hr>
            <ns3:cad>0</ns3:cad>
          </ns3:TrackPointExtension>
        </extensions>
      </trkpt>
      <trkpt lat="45.3497394360601902008056640625" lon="-71.00501275621354579925537109375">
        <ele>843.4000244140625</ele>
        <time>2026-08-21T19:31:42.000Z</time>
        <extensions>
          <ns3:TrackPointExtension>
            <ns3:hr>141</ns3:hr>
            <ns3:cad>0</ns3:cad>
          </ns3:TrackPointExtension>
        </extensions>
      </trkpt>
      <trkpt lat="45.34973658621311187744140625" lon="-71.00501619279384613037109375">
        <ele>843.5999755859375</ele>
        <time>2026-08-21T19:31:43.000Z</time>
        <extensions>
          <ns3:TrackPointExtension>
            <ns3:hr>141</ns3:hr>
            <ns3:cad>0</ns3:cad>
          </ns3:TrackPointExtension>
        </extensions>
      </trkpt>
      <trkpt lat="45.3497320599853992462158203125" lon="-71.00501795299351215362548828125">
        <ele>843.79998779296875</ele>
        <time>2026-08-21T19:31:44.000Z</time>
        <extensions>
          <ns3:TrackPointExtension>
            <ns3:hr>142</ns3:hr>
            <ns3:cad>48</ns3:cad>
          </ns3:TrackPointExtension>
        </extensions>
      </trkpt>
      <trkpt lat="45.349721498787403106689453125" lon="-71.0050235688686370849609375">
        <ele>844</ele>
        <time>2026-08-21T19:31:45.000Z</time>
        <extensions>
          <ns3:TrackPointExtension>
            <ns3:hr>142</ns3:hr>
            <ns3:cad>48</ns3:cad>
          </ns3:TrackPointExtension>
        </extensions>
      </trkpt>
      <trkpt lat="45.34971403889358043670654296875" lon="-71.0050280950963497161865234375">
        <ele>844.20001220703125</ele>
        <time>2026-08-21T19:31:46.000Z</time>
        <extensions>
          <ns3:TrackPointExtension>
            <ns3:hr>143</ns3:hr>
            <ns3:cad>48</ns3:cad>
          </ns3:TrackPointExtension>
        </extensions>
      </trkpt>
      <trkpt lat="45.34970599226653575897216796875" lon="-71.0050334595143795013427734375">
        <ele>844.4000244140625</ele>
        <time>2026-08-21T19:31:47.000Z</time>
        <extensions>
          <ns3:TrackPointExtension>
            <ns3:hr>143</ns3:hr>
            <ns3:cad>0</ns3:cad>
          </ns3:TrackPointExtension>
        </extensions>
      </trkpt>
      <trkpt lat="45.34969492815434932708740234375" lon="-71.0050361417233943939208984375">
        <ele>844.5999755859375</ele>
        <time>2026-08-21T19:31:48.000Z</time>
        <extensions>
          <ns3:TrackPointExtension>
            <ns3:hr>142</ns3:hr>
            <ns3:cad>0</ns3:cad>
          </ns3:TrackPointExtension>
        </extensions>
      </trkpt>
      <trkpt lat="45.349691994488239288330078125" lon="-71.0050415061414241790771484375">
        <ele>844.79998779296875</ele>
        <time>2026-08-21T19:31:49.000Z</time>
        <extensions>
          <ns3:TrackPointExtension>
            <ns3:hr>141</ns3:hr>
            <ns3:cad>0</ns3:cad>
          </ns3:TrackPointExtension>
        </extensions>
      </trkpt>
      <trkpt lat="45.34968688152730464935302734375" lon="-71.00505131296813488006591796875">
        <ele>845</ele>
        <time>2026-08-21T19:31:50.000Z</time>
        <extensions>
          <ns3:TrackPointExtension>
            <ns3:hr>141</ns3:hr>
            <ns3:cad>0</ns3:cad>
          </ns3:TrackPointExtension>
        </extensions>
      </trkpt>
      <trkpt lat="45.3496874682605266571044921875" lon="-71.00505718030035495758056640625">
        <ele>845.20001220703125</ele>
        <time>2026-08-21T19:31:51.000Z</time>
        <extensions>
          <ns3:TrackPointExtension>
            <ns3:hr>141</ns3:hr>
            <ns3:cad>0</ns3:cad>
          </ns3:TrackPointExtension>
        </extensions>
      </trkpt>
      <trkpt lat="45.34968235529959201812744140625" lon="-71.0050643049180507659912109375">
        <ele>845.4000244140625</ele>
        <time>2026-08-21T19:31:52.000Z</time>
        <extensions>
          <ns3:TrackPointExtension>
            <ns3:hr>141</ns3:hr>
            <ns3:cad>0</ns3:cad>
          </ns3:TrackPointExtension>
        </extensions>
      </trkpt>
      <trkpt lat="45.3496737219393253326416015625" lon="-71.00507008843123912811279296875">
        <ele>845.5999755859375</ele>
        <time>2026-08-21T19:31:53.000Z</time>
        <extensions>
          <ns3:TrackPointExtension>
            <ns3:hr>142</ns3:hr>
            <ns3:cad>0</ns3:cad>
          </ns3:TrackPointExtension>
        </extensions>
      </trkpt>
      <trkpt lat="45.34967313520610332489013671875" lon="-71.00507494993507862091064453125">
        <ele>845.79998779296875</ele>
        <time>2026-08-21T19:31:54.000Z</time>
        <extensions>
          <ns3:TrackPointExtension>
            <ns3:hr>142</ns3:hr>
            <ns3:cad>0</ns3:cad>
          </ns3:TrackPointExtension>
        </extensions>
      </trkpt>
      <trkpt lat="45.3496673516929149627685546875" lon="-71.005081571638584136962890625">
        <ele>846</ele>
        <time>2026-08-21T19:31:55.000Z</time>
        <extensions>
          <ns3:TrackPointExtension>
            <ns3:hr>142</ns3:hr>
            <ns3:cad>0</ns3:cad>
          </ns3:TrackPointExtension>
        </extensions>
      </trkpt>
      <trkpt lat="45.3496639989316463470458984375" lon="-71.00508551113307476043701171875">
        <ele>846.20001220703125</ele>
        <time>2026-08-21T19:31:56.000Z</time>
        <extensions>
          <ns3:TrackPointExtension>
            <ns3:hr>143</ns3:hr>
            <ns3:cad>0</ns3:cad>
          </ns3:TrackPointExtension>
        </extensions>
      </trkpt>
      <trkpt lat="45.3496567904949188232421875" lon="-71.00508727133274078369140625">
        <ele>846.4000244140625</ele>
        <time>2026-08-21T19:31:57.000Z</time>
        <extensions>
          <ns3:TrackPointExtension>
            <ns3:hr>143</ns3:hr>
            <ns3:cad>18</ns3:cad>
          </ns3:TrackPointExtension>
        </extensions>
      </trkpt>
      <trkpt lat="45.349653773009777069091796875" lon="-71.00509129464626312255859375">
        <ele>846.5999755859375</ele>
        <time>2026-08-21T19:31:58.000Z</time>
        <extensions>
          <ns3:TrackPointExtension>
            <ns3:hr>143</ns3:hr>
            <ns3:cad>18</ns3:cad>
          </ns3:TrackPointExtension>
        </extensions>
      </trkpt>
      <trkpt lat="45.3496492467820644378662109375" lon="-71.0050931386649608612060546875">
        <ele>846.79998779296875</ele>
        <time>2026-08-21T19:31:59.000Z</time>
        <extensions>
          <ns3:TrackPointExtension>
            <ns3:hr>142</ns3:hr>
            <ns3:cad>0</ns3:cad>
          </ns3:TrackPointExtension>
        </extensions>
      </trkpt>
      <trkpt lat="45.34964027814567089080810546875" lon="-71.00509758107364177703857421875">
        <ele>846.79998779296875</ele>
        <time>2026-08-21T19:32:00.000Z</time>
        <extensions>
          <ns3:TrackPointExtension>
            <ns3:hr>143</ns3:hr>
            <ns3:cad>0</ns3:cad>
          </ns3:TrackPointExtension>
        </extensions>
      </trkpt>
      <trkpt lat="45.3496378473937511444091796875" lon="-71.00510093383491039276123046875">
        <ele>847.20001220703125</ele>
        <time>2026-08-21T19:32:01.000Z</time>
        <extensions>
          <ns3:TrackPointExtension>
            <ns3:hr>143</ns3:hr>
            <ns3:cad>0</ns3:cad>
          </ns3:TrackPointExtension>
        </extensions>
      </trkpt>
      <trkpt lat="45.3496355004608631134033203125" lon="-71.00510294549167156219482421875">
        <ele>847.4000244140625</ele>
        <time>2026-08-21T19:32:02.000Z</time>
        <extensions>
          <ns3:TrackPointExtension>
            <ns3:hr>142</ns3:hr>
            <ns3:cad>0</ns3:cad>
          </ns3:TrackPointExtension>
        </extensions>
      </trkpt>
      <trkpt lat="45.3496348299086093902587890625" lon="-71.00510495714843273162841796875">
        <ele>847.5999755859375</ele>
        <time>2026-08-21T19:32:03.000Z</time>
        <extensions>
          <ns3:TrackPointExtension>
            <ns3:hr>142</ns3:hr>
            <ns3:cad>0</ns3:cad>
          </ns3:TrackPointExtension>
        </extensions>
      </trkpt>
      <trkpt lat="45.3496299684047698974609375" lon="-71.00511074066162109375">
        <ele>847.79998779296875</ele>
        <time>2026-08-21T19:32:04.000Z</time>
        <extensions>
          <ns3:TrackPointExtension>
            <ns3:hr>141</ns3:hr>
            <ns3:cad>0</ns3:cad>
          </ns3:TrackPointExtension>
        </extensions>
      </trkpt>
      <trkpt lat="45.34963223151862621307373046875" lon="-71.00511400960385799407958984375">
        <ele>848.20001220703125</ele>
        <time>2026-08-21T19:32:05.000Z</time>
        <extensions>
          <ns3:TrackPointExtension>
            <ns3:hr>141</ns3:hr>
            <ns3:cad>0</ns3:cad>
          </ns3:TrackPointExtension>
        </extensions>
      </trkpt>
      <trkpt lat="45.3496324829757213592529296875" lon="-71.0051233135163784027099609375">
        <ele>848.20001220703125</ele>
        <time>2026-08-21T19:32:06.000Z</time>
        <extensions>
          <ns3:TrackPointExtension>
            <ns3:hr>141</ns3:hr>
            <ns3:cad>0</ns3:cad>
          </ns3:TrackPointExtension>
        </extensions>
      </trkpt>
      <trkpt lat="45.34963122569024562835693359375" lon="-71.00512809120118618011474609375">
        <ele>848.4000244140625</ele>
        <time>2026-08-21T19:32:07.000Z</time>
        <extensions>
          <ns3:TrackPointExtension>
            <ns3:hr>141</ns3:hr>
            <ns3:cad>0</ns3:cad>
          </ns3:TrackPointExtension>
        </extensions>
      </trkpt>
      <trkpt lat="45.34962770529091358184814453125" lon="-71.00513127632439136505126953125">
        <ele>848.5999755859375</ele>
        <time>2026-08-21T19:32:08.000Z</time>
        <extensions>
          <ns3:TrackPointExtension>
            <ns3:hr>141</ns3:hr>
            <ns3:cad>0</ns3:cad>
          </ns3:TrackPointExtension>
        </extensions>
      </trkpt>
      <trkpt lat="45.34961731173098087310791015625" lon="-71.005137898027896881103515625">
        <ele>848.79998779296875</ele>
        <time>2026-08-21T19:32:09.000Z</time>
        <extensions>
          <ns3:TrackPointExtension>
            <ns3:hr>141</ns3:hr>
            <ns3:cad>0</ns3:cad>
          </ns3:TrackPointExtension>
        </extensions>
      </trkpt>
      <trkpt lat="45.34961228258907794952392578125" lon="-71.0051429271697998046875">
        <ele>848.79998779296875</ele>
        <time>2026-08-21T19:32:10.000Z</time>
        <extensions>
          <ns3:TrackPointExtension>
            <ns3:hr>141</ns3:hr>
            <ns3:cad>0</ns3:cad>
          </ns3:TrackPointExtension>
        </extensions>
      </trkpt>
      <trkpt lat="45.349608175456523895263671875" lon="-71.00514829158782958984375">
        <ele>849</ele>
        <time>2026-08-21T19:32:11.000Z</time>
        <extensions>
          <ns3:TrackPointExtension>
            <ns3:hr>142</ns3:hr>
            <ns3:cad>0</ns3:cad>
          </ns3:TrackPointExtension>
        </extensions>
      </trkpt>
      <trkpt lat="45.3496063314378261566162109375" lon="-71.00515575148165225982666015625">
        <ele>849.20001220703125</ele>
        <time>2026-08-21T19:32:12.000Z</time>
        <extensions>
          <ns3:TrackPointExtension>
            <ns3:hr>142</ns3:hr>
            <ns3:cad>0</ns3:cad>
          </ns3:TrackPointExtension>
        </extensions>
      </trkpt>
      <trkpt lat="45.34960339777171611785888671875" lon="-71.0051632113754749298095703125">
        <ele>849.4000244140625</ele>
        <time>2026-08-21T19:32:13.000Z</time>
        <extensions>
          <ns3:TrackPointExtension>
            <ns3:hr>142</ns3:hr>
            <ns3:cad>0</ns3:cad>
          </ns3:TrackPointExtension>
        </extensions>
      </trkpt>
      <trkpt lat="45.34960473887622356414794921875" lon="-71.00516782142221927642822265625">
        <ele>849.5999755859375</ele>
        <time>2026-08-21T19:32:14.000Z</time>
        <extensions>
          <ns3:TrackPointExtension>
            <ns3:hr>141</ns3:hr>
            <ns3:cad>0</ns3:cad>
          </ns3:TrackPointExtension>
        </extensions>
      </trkpt>
      <trkpt lat="45.34959937445819377899169921875" lon="-71.00517385639250278472900390625">
        <ele>849.79998779296875</ele>
        <time>2026-08-21T19:32:15.000Z</time>
        <extensions>
          <ns3:TrackPointExtension>
            <ns3:hr>142</ns3:hr>
            <ns3:cad>0</ns3:cad>
          </ns3:TrackPointExtension>
        </extensions>
      </trkpt>
      <trkpt lat="45.34959635697305202484130859375" lon="-71.00517720915377140045166015625">
        <ele>850</ele>
        <time>2026-08-21T19:32:16.000Z</time>
        <extensions>
          <ns3:TrackPointExtension>
            <ns3:hr>142</ns3:hr>
            <ns3:cad>0</ns3:cad>
          </ns3:TrackPointExtension>
        </extensions>
      </trkpt>
      <trkpt lat="45.34959451295435428619384765625" lon="-71.00518274120986461639404296875">
        <ele>850.20001220703125</ele>
        <time>2026-08-21T19:32:17.000Z</time>
        <extensions>
          <ns3:TrackPointExtension>
            <ns3:hr>141</ns3:hr>
            <ns3:cad>0</ns3:cad>
          </ns3:TrackPointExtension>
        </extensions>
      </trkpt>
      <trkpt lat="45.3495842032134532928466796875" lon="-71.0051907040178775787353515625">
        <ele>850.4000244140625</ele>
        <time>2026-08-21T19:32:18.000Z</time>
        <extensions>
          <ns3:TrackPointExtension>
            <ns3:hr>142</ns3:hr>
            <ns3:cad>0</ns3:cad>
          </ns3:TrackPointExtension>
        </extensions>
      </trkpt>
      <trkpt lat="45.34958235919475555419921875" lon="-71.005196236073970794677734375">
        <ele>850.5999755859375</ele>
        <time>2026-08-21T19:32:19.000Z</time>
        <extensions>
          <ns3:TrackPointExtension>
            <ns3:hr>141</ns3:hr>
            <ns3:cad>0</ns3:cad>
          </ns3:TrackPointExtension>
        </extensions>
      </trkpt>
      <trkpt lat="45.34958361648023128509521484375" lon="-71.00519548170268535614013671875">
        <ele>850.79998779296875</ele>
        <time>2026-08-21T19:32:20.000Z</time>
        <extensions>
          <ns3:TrackPointExtension>
            <ns3:hr>141</ns3:hr>
            <ns3:cad>0</ns3:cad>
          </ns3:TrackPointExtension>
        </extensions>
      </trkpt>
      <trkpt lat="45.3495828621089458465576171875" lon="-71.0051980800926685333251953125">
        <ele>851</ele>
        <time>2026-08-21T19:32:21.000Z</time>
        <extensions>
          <ns3:TrackPointExtension>
            <ns3:hr>141</ns3:hr>
            <ns3:cad>0</ns3:cad>
          </ns3:TrackPointExtension>
        </extensions>
      </trkpt>
      <trkpt lat="45.3495717979967594146728515625" lon="-71.005201600492000579833984375">
        <ele>851.20001220703125</ele>
        <time>2026-08-21T19:32:22.000Z</time>
        <extensions>
          <ns3:TrackPointExtension>
            <ns3:hr>141</ns3:hr>
            <ns3:cad>0</ns3:cad>
          </ns3:TrackPointExtension>
        </extensions>
      </trkpt>
      <trkpt lat="45.3495707921683788299560546875" lon="-71.0052032768726348876953125">
        <ele>851.4000244140625</ele>
        <time>2026-08-21T19:32:23.000Z</time>
        <extensions>
          <ns3:TrackPointExtension>
            <ns3:hr>141</ns3:hr>
            <ns3:cad>0</ns3:cad>
          </ns3:TrackPointExtension>
        </extensions>
      </trkpt>
      <trkpt lat="45.349566936492919921875" lon="-71.00521040149033069610595703125">
        <ele>851.4000244140625</ele>
        <time>2026-08-21T19:32:24.000Z</time>
        <extensions>
          <ns3:TrackPointExtension>
            <ns3:hr>142</ns3:hr>
            <ns3:cad>0</ns3:cad>
          </ns3:TrackPointExtension>
        </extensions>
      </trkpt>
      <trkpt lat="45.34956383518874645233154296875" lon="-71.00521945394575595855712890625">
        <ele>851.5999755859375</ele>
        <time>2026-08-21T19:32:25.000Z</time>
        <extensions>
          <ns3:TrackPointExtension>
            <ns3:hr>142</ns3:hr>
            <ns3:cad>0</ns3:cad>
          </ns3:TrackPointExtension>
        </extensions>
      </trkpt>
      <trkpt lat="45.3495644219219684600830078125" lon="-71.00522498600184917449951171875">
        <ele>851.79998779296875</ele>
        <time>2026-08-21T19:32:26.000Z</time>
        <extensions>
          <ns3:TrackPointExtension>
            <ns3:hr>142</ns3:hr>
            <ns3:cad>0</ns3:cad>
          </ns3:TrackPointExtension>
        </extensions>
      </trkpt>
      <trkpt lat="45.34956090152263641357421875" lon="-71.00523412227630615234375">
        <ele>852</ele>
        <time>2026-08-21T19:32:27.000Z</time>
        <extensions>
          <ns3:TrackPointExtension>
            <ns3:hr>142</ns3:hr>
            <ns3:cad>0</ns3:cad>
          </ns3:TrackPointExtension>
        </extensions>
      </trkpt>
      <trkpt lat="45.349561907351016998291015625" lon="-71.005235128104686737060546875">
        <ele>852.20001220703125</ele>
        <time>2026-08-21T19:32:28.000Z</time>
        <extensions>
          <ns3:TrackPointExtension>
            <ns3:hr>141</ns3:hr>
            <ns3:cad>0</ns3:cad>
          </ns3:TrackPointExtension>
        </extensions>
      </trkpt>
      <trkpt lat="45.34956031478941440582275390625" lon="-71.005237810313701629638671875">
        <ele>852.4000244140625</ele>
        <time>2026-08-21T19:32:29.000Z</time>
        <extensions>
          <ns3:TrackPointExtension>
            <ns3:hr>142</ns3:hr>
            <ns3:cad>0</ns3:cad>
          </ns3:TrackPointExtension>
        </extensions>
      </trkpt>
      <trkpt lat="45.3495516814291477203369140625" lon="-71.00524929352104663848876953125">
        <ele>852.5999755859375</ele>
        <time>2026-08-21T19:32:30.000Z</time>
        <extensions>
          <ns3:TrackPointExtension>
            <ns3:hr>141</ns3:hr>
            <ns3:cad>0</ns3:cad>
          </ns3:TrackPointExtension>
        </extensions>
      </trkpt>
      <trkpt lat="45.34954891540110111236572265625" lon="-71.00525247864425182342529296875">
        <ele>852.79998779296875</ele>
        <time>2026-08-21T19:32:31.000Z</time>
        <extensions>
          <ns3:TrackPointExtension>
            <ns3:hr>141</ns3:hr>
            <ns3:cad>0</ns3:cad>
          </ns3:TrackPointExtension>
        </extensions>
      </trkpt>
      <trkpt lat="45.3495453111827373504638671875" lon="-71.00525264628231525421142578125">
        <ele>853</ele>
        <time>2026-08-21T19:32:32.000Z</time>
        <extensions>
          <ns3:TrackPointExtension>
            <ns3:hr>141</ns3:hr>
            <ns3:cad>0</ns3:cad>
          </ns3:TrackPointExtension>
        </extensions>
      </trkpt>
      <trkpt lat="45.3495387732982635498046875" lon="-71.00525893270969390869140625">
        <ele>853.20001220703125</ele>
        <time>2026-08-21T19:32:33.000Z</time>
        <extensions>
          <ns3:TrackPointExtension>
            <ns3:hr>140</ns3:hr>
            <ns3:cad>0</ns3:cad>
          </ns3:TrackPointExtension>
        </extensions>
      </trkpt>
      <trkpt lat="45.34953282214701175689697265625" lon="-71.00526907481253147125244140625">
        <ele>853.4000244140625</ele>
        <time>2026-08-21T19:32:34.000Z</time>
        <extensions>
          <ns3:TrackPointExtension>
            <ns3:hr>140</ns3:hr>
            <ns3:cad>0</ns3:cad>
          </ns3:TrackPointExtension>
        </extensions>
      </trkpt>
      <trkpt lat="45.3495275415480136871337890625" lon="-71.0052728466689586639404296875">
        <ele>853.5999755859375</ele>
        <time>2026-08-21T19:32:35.000Z</time>
        <extensions>
          <ns3:TrackPointExtension>
            <ns3:hr>140</ns3:hr>
            <ns3:cad>0</ns3:cad>
          </ns3:TrackPointExtension>
        </extensions>
      </trkpt>
      <trkpt lat="45.34951991401612758636474609375" lon="-71.0052849166095256805419921875">
        <ele>853.79998779296875</ele>
        <time>2026-08-21T19:32:36.000Z</time>
        <extensions>
          <ns3:TrackPointExtension>
            <ns3:hr>140</ns3:hr>
            <ns3:cad>0</ns3:cad>
          </ns3:TrackPointExtension>
        </extensions>
      </trkpt>
      <trkpt lat="45.349516980350017547607421875" lon="-71.00528785027563571929931640625">
        <ele>854</ele>
        <time>2026-08-21T19:32:37.000Z</time>
        <extensions>
          <ns3:TrackPointExtension>
            <ns3:hr>140</ns3:hr>
            <ns3:cad>0</ns3:cad>
          </ns3:TrackPointExtension>
        </extensions>
      </trkpt>
      <trkpt lat="45.3495141305029392242431640625" lon="-71.0052891075611114501953125">
        <ele>854.20001220703125</ele>
        <time>2026-08-21T19:32:38.000Z</time>
        <extensions>
          <ns3:TrackPointExtension>
            <ns3:hr>140</ns3:hr>
            <ns3:cad>0</ns3:cad>
          </ns3:TrackPointExtension>
        </extensions>
      </trkpt>
      <trkpt lat="45.34950667060911655426025390625" lon="-71.005298160016536712646484375">
        <ele>854.4000244140625</ele>
        <time>2026-08-21T19:32:39.000Z</time>
        <extensions>
          <ns3:TrackPointExtension>
            <ns3:hr>141</ns3:hr>
            <ns3:cad>0</ns3:cad>
          </ns3:TrackPointExtension>
        </extensions>
      </trkpt>
      <trkpt lat="45.34950482659041881561279296875" lon="-71.00530209951102733612060546875">
        <ele>854.5999755859375</ele>
        <time>2026-08-21T19:32:40.000Z</time>
        <extensions>
          <ns3:TrackPointExtension>
            <ns3:hr>140</ns3:hr>
            <ns3:cad>0</ns3:cad>
          </ns3:TrackPointExtension>
        </extensions>
      </trkpt>
      <trkpt lat="45.3495012223720550537109375" lon="-71.0053073801100254058837890625">
        <ele>854.79998779296875</ele>
        <time>2026-08-21T19:32:41.000Z</time>
        <extensions>
          <ns3:TrackPointExtension>
            <ns3:hr>140</ns3:hr>
            <ns3:cad>0</ns3:cad>
          </ns3:TrackPointExtension>
        </extensions>
      </trkpt>
      <trkpt lat="45.34949778579175472259521484375" lon="-71.0053144209086894989013671875">
        <ele>854.79998779296875</ele>
        <time>2026-08-21T19:32:42.000Z</time>
        <extensions>
          <ns3:TrackPointExtension>
            <ns3:hr>140</ns3:hr>
            <ns3:cad>0</ns3:cad>
          </ns3:TrackPointExtension>
        </extensions>
      </trkpt>
      <trkpt lat="45.34949577413499355316162109375" lon="-71.0053174383938312530517578125">
        <ele>855</ele>
        <time>2026-08-21T19:32:43.000Z</time>
        <extensions>
          <ns3:TrackPointExtension>
            <ns3:hr>140</ns3:hr>
            <ns3:cad>0</ns3:cad>
          </ns3:TrackPointExtension>
        </extensions>
      </trkpt>
      <trkpt lat="45.3494956903159618377685546875" lon="-71.005323641002178192138671875">
        <ele>855</ele>
        <time>2026-08-21T19:32:44.000Z</time>
        <extensions>
          <ns3:TrackPointExtension>
            <ns3:hr>140</ns3:hr>
            <ns3:cad>0</ns3:cad>
          </ns3:TrackPointExtension>
        </extensions>
      </trkpt>
      <trkpt lat="45.34949250519275665283203125" lon="-71.00532707758247852325439453125">
        <ele>855.20001220703125</ele>
        <time>2026-08-21T19:32:45.000Z</time>
        <extensions>
          <ns3:TrackPointExtension>
            <ns3:hr>140</ns3:hr>
            <ns3:cad>0</ns3:cad>
          </ns3:TrackPointExtension>
        </extensions>
      </trkpt>
      <trkpt lat="45.3494869731366634368896484375" lon="-71.00532724522054195404052734375">
        <ele>855.4000244140625</ele>
        <time>2026-08-21T19:32:46.000Z</time>
        <extensions>
          <ns3:TrackPointExtension>
            <ns3:hr>141</ns3:hr>
            <ns3:cad>0</ns3:cad>
          </ns3:TrackPointExtension>
        </extensions>
      </trkpt>
      <trkpt lat="45.3494852967560291290283203125" lon="-71.0053278319537639617919921875">
        <ele>855.5999755859375</ele>
        <time>2026-08-21T19:32:47.000Z</time>
        <extensions>
          <ns3:TrackPointExtension>
            <ns3:hr>142</ns3:hr>
            <ns3:cad>0</ns3:cad>
          </ns3:TrackPointExtension>
        </extensions>
      </trkpt>
      <trkpt lat="45.3494809381663799285888671875" lon="-71.005327999591827392578125">
        <ele>855.79998779296875</ele>
        <time>2026-08-21T19:32:48.000Z</time>
        <extensions>
          <ns3:TrackPointExtension>
            <ns3:hr>142</ns3:hr>
            <ns3:cad>0</ns3:cad>
          </ns3:TrackPointExtension>
        </extensions>
      </trkpt>
      <trkpt lat="45.3494769148528575897216796875" lon="-71.005331017076969146728515625">
        <ele>856</ele>
        <time>2026-08-21T19:32:49.000Z</time>
        <extensions>
          <ns3:TrackPointExtension>
            <ns3:hr>142</ns3:hr>
            <ns3:cad>0</ns3:cad>
          </ns3:TrackPointExtension>
        </extensions>
      </trkpt>
      <trkpt lat="45.3494690358638763427734375" lon="-71.0053375549614429473876953125">
        <ele>856</ele>
        <time>2026-08-21T19:32:50.000Z</time>
        <extensions>
          <ns3:TrackPointExtension>
            <ns3:hr>142</ns3:hr>
            <ns3:cad>0</ns3:cad>
          </ns3:TrackPointExtension>
        </extensions>
      </trkpt>
      <trkpt lat="45.34946911968290805816650390625" lon="-71.00534099154174327850341796875">
        <ele>856</ele>
        <time>2026-08-21T19:32:51.000Z</time>
        <extensions>
          <ns3:TrackPointExtension>
            <ns3:hr>141</ns3:hr>
            <ns3:cad>0</ns3:cad>
          </ns3:TrackPointExtension>
        </extensions>
      </trkpt>
      <trkpt lat="45.34946727566421031951904296875" lon="-71.00534819997847080230712890625">
        <ele>856.20001220703125</ele>
        <time>2026-08-21T19:32:52.000Z</time>
        <extensions>
          <ns3:TrackPointExtension>
            <ns3:hr>141</ns3:hr>
            <ns3:cad>0</ns3:cad>
          </ns3:TrackPointExtension>
        </extensions>
      </trkpt>
      <trkpt lat="45.3494611568748950958251953125" lon="-71.0053496249020099639892578125">
        <ele>856.4000244140625</ele>
        <time>2026-08-21T19:32:53.000Z</time>
        <extensions>
          <ns3:TrackPointExtension>
            <ns3:hr>141</ns3:hr>
            <ns3:cad>0</ns3:cad>
          </ns3:TrackPointExtension>
        </extensions>
      </trkpt>
      <trkpt lat="45.3494567982852458953857421875" lon="-71.00535104982554912567138671875">
        <ele>856.4000244140625</ele>
        <time>2026-08-21T19:32:54.000Z</time>
        <extensions>
          <ns3:TrackPointExtension>
            <ns3:hr>141</ns3:hr>
            <ns3:cad>0</ns3:cad>
          </ns3:TrackPointExtension>
        </extensions>
      </trkpt>
      <trkpt lat="45.34945319406688213348388671875" lon="-71.0053561627864837646484375">
        <ele>856.5999755859375</ele>
        <time>2026-08-21T19:32:55.000Z</time>
        <extensions>
          <ns3:TrackPointExtension>
            <ns3:hr>141</ns3:hr>
            <ns3:cad>0</ns3:cad>
          </ns3:TrackPointExtension>
        </extensions>
      </trkpt>
      <trkpt lat="45.34944363869726657867431640625" lon="-71.00535959936678409576416015625">
        <ele>856.79998779296875</ele>
        <time>2026-08-21T19:32:56.000Z</time>
        <extensions>
          <ns3:TrackPointExtension>
            <ns3:hr>141</ns3:hr>
            <ns3:cad>0</ns3:cad>
          </ns3:TrackPointExtension>
        </extensions>
      </trkpt>
      <trkpt lat="45.3494376875460147857666015625" lon="-71.0053653828799724578857421875">
        <ele>857</ele>
        <time>2026-08-21T19:32:57.000Z</time>
        <extensions>
          <ns3:TrackPointExtension>
            <ns3:hr>140</ns3:hr>
            <ns3:cad>0</ns3:cad>
          </ns3:TrackPointExtension>
        </extensions>
      </trkpt>
      <trkpt lat="45.3494289703667163848876953125" lon="-71.00536697544157505035400390625">
        <ele>857.20001220703125</ele>
        <time>2026-08-21T19:32:58.000Z</time>
        <extensions>
          <ns3:TrackPointExtension>
            <ns3:hr>140</ns3:hr>
            <ns3:cad>0</ns3:cad>
          </ns3:TrackPointExtension>
        </extensions>
      </trkpt>
      <trkpt lat="45.34942670725286006927490234375" lon="-71.00537116639316082000732421875">
        <ele>857.20001220703125</ele>
        <time>2026-08-21T19:32:59.000Z</time>
        <extensions>
          <ns3:TrackPointExtension>
            <ns3:hr>140</ns3:hr>
            <ns3:cad>0</ns3:cad>
          </ns3:TrackPointExtension>
        </extensions>
      </trkpt>
      <trkpt lat="45.34942050464451313018798828125" lon="-71.0053734295070171356201171875">
        <ele>857.4000244140625</ele>
        <time>2026-08-21T19:33:00.000Z</time>
        <extensions>
          <ns3:TrackPointExtension>
            <ns3:hr>140</ns3:hr>
            <ns3:cad>0</ns3:cad>
          </ns3:TrackPointExtension>
        </extensions>
      </trkpt>
      <trkpt lat="45.34941614605486392974853515625" lon="-71.00537602789700031280517578125">
        <ele>857.5999755859375</ele>
        <time>2026-08-21T19:33:01.000Z</time>
        <extensions>
          <ns3:TrackPointExtension>
            <ns3:hr>140</ns3:hr>
            <ns3:cad>0</ns3:cad>
          </ns3:TrackPointExtension>
        </extensions>
      </trkpt>
      <trkpt lat="45.3494125418365001678466796875" lon="-71.0053791292011737823486328125">
        <ele>857.79998779296875</ele>
        <time>2026-08-21T19:33:02.000Z</time>
        <extensions>
          <ns3:TrackPointExtension>
            <ns3:hr>140</ns3:hr>
            <ns3:cad>0</ns3:cad>
          </ns3:TrackPointExtension>
        </extensions>
      </trkpt>
      <trkpt lat="45.34940667450428009033203125" lon="-71.00538139231503009796142578125">
        <ele>858</ele>
        <time>2026-08-21T19:33:03.000Z</time>
        <extensions>
          <ns3:TrackPointExtension>
            <ns3:hr>140</ns3:hr>
            <ns3:cad>0</ns3:cad>
          </ns3:TrackPointExtension>
        </extensions>
      </trkpt>
      <trkpt lat="45.3494024835526943206787109375" lon="-71.005380637943744659423828125">
        <ele>858.20001220703125</ele>
        <time>2026-08-21T19:33:04.000Z</time>
        <extensions>
          <ns3:TrackPointExtension>
            <ns3:hr>140</ns3:hr>
            <ns3:cad>0</ns3:cad>
          </ns3:TrackPointExtension>
        </extensions>
      </trkpt>
      <trkpt lat="45.34939988516271114349365234375" lon="-71.00538105703890323638916015625">
        <ele>858.20001220703125</ele>
        <time>2026-08-21T19:33:05.000Z</time>
        <extensions>
          <ns3:TrackPointExtension>
            <ns3:hr>140</ns3:hr>
            <ns3:cad>0</ns3:cad>
          </ns3:TrackPointExtension>
        </extensions>
      </trkpt>
      <trkpt lat="45.349395610392093658447265625" lon="-71.0053814761340618133544921875">
        <ele>858.4000244140625</ele>
        <time>2026-08-21T19:33:06.000Z</time>
        <extensions>
          <ns3:TrackPointExtension>
            <ns3:hr>140</ns3:hr>
            <ns3:cad>0</ns3:cad>
          </ns3:TrackPointExtension>
        </extensions>
      </trkpt>
      <trkpt lat="45.34938731230795383453369140625" lon="-71.0053856670856475830078125">
        <ele>858.5999755859375</ele>
        <time>2026-08-21T19:33:07.000Z</time>
        <extensions>
          <ns3:TrackPointExtension>
            <ns3:hr>140</ns3:hr>
            <ns3:cad>0</ns3:cad>
          </ns3:TrackPointExtension>
        </extensions>
      </trkpt>
      <trkpt lat="45.34938781522214412689208984375" lon="-71.00538860075175762176513671875">
        <ele>858.79998779296875</ele>
        <time>2026-08-21T19:33:08.000Z</time>
        <extensions>
          <ns3:TrackPointExtension>
            <ns3:hr>140</ns3:hr>
            <ns3:cad>0</ns3:cad>
          </ns3:TrackPointExtension>
        </extensions>
      </trkpt>
      <trkpt lat="45.3493847139179706573486328125" lon="-71.0053841583430767059326171875">
        <ele>858.79998779296875</ele>
        <time>2026-08-21T19:33:09.000Z</time>
        <extensions>
          <ns3:TrackPointExtension>
            <ns3:hr>140</ns3:hr>
            <ns3:cad>0</ns3:cad>
          </ns3:TrackPointExtension>
        </extensions>
      </trkpt>
      <trkpt lat="45.349383540451526641845703125" lon="-71.00538499653339385986328125">
        <ele>859</ele>
        <time>2026-08-21T19:33:10.000Z</time>
        <extensions>
          <ns3:TrackPointExtension>
            <ns3:hr>141</ns3:hr>
            <ns3:cad>0</ns3:cad>
          </ns3:TrackPointExtension>
        </extensions>
      </trkpt>
      <trkpt lat="45.34938261844217777252197265625" lon="-71.00538633763790130615234375">
        <ele>859.20001220703125</ele>
        <time>2026-08-21T19:33:11.000Z</time>
        <extensions>
          <ns3:TrackPointExtension>
            <ns3:hr>141</ns3:hr>
            <ns3:cad>0</ns3:cad>
          </ns3:TrackPointExtension>
        </extensions>
      </trkpt>
      <trkpt lat="45.34937775693833827972412109375" lon="-71.00539094768464565277099609375">
        <ele>859.20001220703125</ele>
        <time>2026-08-21T19:33:12.000Z</time>
        <extensions>
          <ns3:TrackPointExtension>
            <ns3:hr>141</ns3:hr>
            <ns3:cad>0</ns3:cad>
          </ns3:TrackPointExtension>
        </extensions>
      </trkpt>
      <trkpt lat="45.34937222488224506378173828125" lon="-71.00539178587496280670166015625">
        <ele>859.4000244140625</ele>
        <time>2026-08-21T19:33:13.000Z</time>
        <extensions>
          <ns3:TrackPointExtension>
            <ns3:hr>139</ns3:hr>
            <ns3:cad>0</ns3:cad>
          </ns3:TrackPointExtension>
        </extensions>
      </trkpt>
      <trkpt lat="45.34937004558742046356201171875" lon="-71.00539329461753368377685546875">
        <ele>859.5999755859375</ele>
        <time>2026-08-21T19:33:14.000Z</time>
        <extensions>
          <ns3:TrackPointExtension>
            <ns3:hr>139</ns3:hr>
            <ns3:cad>0</ns3:cad>
          </ns3:TrackPointExtension>
        </extensions>
      </trkpt>
      <trkpt lat="45.3493625856935977935791015625" lon="-71.00539245642721652984619140625">
        <ele>859.79998779296875</ele>
        <time>2026-08-21T19:33:15.000Z</time>
        <extensions>
          <ns3:TrackPointExtension>
            <ns3:hr>140</ns3:hr>
            <ns3:cad>0</ns3:cad>
          </ns3:TrackPointExtension>
        </extensions>
      </trkpt>
      <trkpt lat="45.34935428760945796966552734375" lon="-71.00539463572204113006591796875">
        <ele>860</ele>
        <time>2026-08-21T19:33:16.000Z</time>
        <extensions>
          <ns3:TrackPointExtension>
            <ns3:hr>140</ns3:hr>
            <ns3:cad>0</ns3:cad>
          </ns3:TrackPointExtension>
        </extensions>
      </trkpt>
      <trkpt lat="45.34935411997139453887939453125" lon="-71.0053962282836437225341796875">
        <ele>860.20001220703125</ele>
        <time>2026-08-21T19:33:17.000Z</time>
        <extensions>
          <ns3:TrackPointExtension>
            <ns3:hr>140</ns3:hr>
            <ns3:cad>0</ns3:cad>
          </ns3:TrackPointExtension>
        </extensions>
      </trkpt>
      <trkpt lat="45.3493495099246501922607421875" lon="-71.00539438426494598388671875">
        <ele>860.20001220703125</ele>
        <time>2026-08-21T19:33:18.000Z</time>
        <extensions>
          <ns3:TrackPointExtension>
            <ns3:hr>139</ns3:hr>
            <ns3:cad>0</ns3:cad>
          </ns3:TrackPointExtension>
        </extensions>
      </trkpt>
      <trkpt lat="45.3493474982678890228271484375" lon="-71.00539379753172397613525390625">
        <ele>860.4000244140625</ele>
        <time>2026-08-21T19:33:19.000Z</time>
        <extensions>
          <ns3:TrackPointExtension>
            <ns3:hr>139</ns3:hr>
            <ns3:cad>0</ns3:cad>
          </ns3:TrackPointExtension>
        </extensions>
      </trkpt>
      <trkpt lat="45.34934439696371555328369140625" lon="-71.00539027713239192962646484375">
        <ele>860.5999755859375</ele>
        <time>2026-08-21T19:33:20.000Z</time>
        <extensions>
          <ns3:TrackPointExtension>
            <ns3:hr>138</ns3:hr>
            <ns3:cad>0</ns3:cad>
          </ns3:TrackPointExtension>
        </extensions>
      </trkpt>
      <trkpt lat="45.349341295659542083740234375" lon="-71.00539128296077251434326171875">
        <ele>860.79998779296875</ele>
        <time>2026-08-21T19:33:21.000Z</time>
        <extensions>
          <ns3:TrackPointExtension>
            <ns3:hr>138</ns3:hr>
            <ns3:cad>0</ns3:cad>
          </ns3:TrackPointExtension>
        </extensions>
      </trkpt>
      <trkpt lat="45.34933215938508510589599609375" lon="-71.005391366779804229736328125">
        <ele>861</ele>
        <time>2026-08-21T19:33:22.000Z</time>
        <extensions>
          <ns3:TrackPointExtension>
            <ns3:hr>137</ns3:hr>
            <ns3:cad>0</ns3:cad>
          </ns3:TrackPointExtension>
        </extensions>
      </trkpt>
      <trkpt lat="45.34933802671730518341064453125" lon="-71.0053942166268825531005859375">
        <ele>861</ele>
        <time>2026-08-21T19:33:23.000Z</time>
        <extensions>
          <ns3:TrackPointExtension>
            <ns3:hr>137</ns3:hr>
            <ns3:cad>0</ns3:cad>
          </ns3:TrackPointExtension>
        </extensions>
      </trkpt>
      <trkpt lat="45.3493350930511951446533203125" lon="-71.00539966486394405364990234375">
        <ele>861.20001220703125</ele>
        <time>2026-08-21T19:33:24.000Z</time>
        <extensions>
          <ns3:TrackPointExtension>
            <ns3:hr>137</ns3:hr>
            <ns3:cad>0</ns3:cad>
          </ns3:TrackPointExtension>
        </extensions>
      </trkpt>
      <trkpt lat="45.34933467395603656768798828125" lon="-71.005400754511356353759765625">
        <ele>861.4000244140625</ele>
        <time>2026-08-21T19:33:25.000Z</time>
        <extensions>
          <ns3:TrackPointExtension>
            <ns3:hr>137</ns3:hr>
            <ns3:cad>0</ns3:cad>
          </ns3:TrackPointExtension>
        </extensions>
      </trkpt>
      <trkpt lat="45.3493290580809116363525390625" lon="-71.0054009221494197845458984375">
        <ele>861.5999755859375</ele>
        <time>2026-08-21T19:33:26.000Z</time>
        <extensions>
          <ns3:TrackPointExtension>
            <ns3:hr>137</ns3:hr>
            <ns3:cad>0</ns3:cad>
          </ns3:TrackPointExtension>
        </extensions>
      </trkpt>
      <trkpt lat="45.349326543509960174560546875" lon="-71.00540569983422756195068359375">
        <ele>861.79998779296875</ele>
        <time>2026-08-21T19:33:27.000Z</time>
        <extensions>
          <ns3:TrackPointExtension>
            <ns3:hr>137</ns3:hr>
            <ns3:cad>0</ns3:cad>
          </ns3:TrackPointExtension>
        </extensions>
      </trkpt>
      <trkpt lat="45.34932344220578670501708984375" lon="-71.00540779531002044677734375">
        <ele>862</ele>
        <time>2026-08-21T19:33:28.000Z</time>
        <extensions>
          <ns3:TrackPointExtension>
            <ns3:hr>137</ns3:hr>
            <ns3:cad>0</ns3:cad>
          </ns3:TrackPointExtension>
        </extensions>
      </trkpt>
      <trkpt lat="45.3493153117597103118896484375" lon="-71.00541106425225734710693359375">
        <ele>862</ele>
        <time>2026-08-21T19:33:29.000Z</time>
        <extensions>
          <ns3:TrackPointExtension>
            <ns3:hr>137</ns3:hr>
            <ns3:cad>0</ns3:cad>
          </ns3:TrackPointExtension>
        </extensions>
      </trkpt>
      <trkpt lat="45.34931338392198085784912109375" lon="-71.0054124891757965087890625">
        <ele>862.20001220703125</ele>
        <time>2026-08-21T19:33:30.000Z</time>
        <extensions>
          <ns3:TrackPointExtension>
            <ns3:hr>136</ns3:hr>
            <ns3:cad>0</ns3:cad>
          </ns3:TrackPointExtension>
        </extensions>
      </trkpt>
      <trkpt lat="45.3493054211139678955078125" lon="-71.00541559047996997833251953125">
        <ele>862.4000244140625</ele>
        <time>2026-08-21T19:33:31.000Z</time>
        <extensions>
          <ns3:TrackPointExtension>
            <ns3:hr>136</ns3:hr>
            <ns3:cad>0</ns3:cad>
          </ns3:TrackPointExtension>
        </extensions>
      </trkpt>
      <trkpt lat="45.34930475056171417236328125" lon="-71.00541877560317516326904296875">
        <ele>862.5999755859375</ele>
        <time>2026-08-21T19:33:32.000Z</time>
        <extensions>
          <ns3:TrackPointExtension>
            <ns3:hr>135</ns3:hr>
            <ns3:cad>0</ns3:cad>
          </ns3:TrackPointExtension>
        </extensions>
      </trkpt>
      <trkpt lat="45.3492962010204792022705078125" lon="-71.005418188869953155517578125">
        <ele>862.79998779296875</ele>
        <time>2026-08-21T19:33:33.000Z</time>
        <extensions>
          <ns3:TrackPointExtension>
            <ns3:hr>136</ns3:hr>
            <ns3:cad>0</ns3:cad>
          </ns3:TrackPointExtension>
        </extensions>
      </trkpt>
      <trkpt lat="45.349291674792766571044921875" lon="-71.00542497821152210235595703125">
        <ele>863</ele>
        <time>2026-08-21T19:33:34.000Z</time>
        <extensions>
          <ns3:TrackPointExtension>
            <ns3:hr>136</ns3:hr>
            <ns3:cad>0</ns3:cad>
          </ns3:TrackPointExtension>
        </extensions>
      </trkpt>
      <trkpt lat="45.34928790293633937835693359375" lon="-71.00543285720050334930419921875">
        <ele>863</ele>
        <time>2026-08-21T19:33:35.000Z</time>
        <extensions>
          <ns3:TrackPointExtension>
            <ns3:hr>136</ns3:hr>
            <ns3:cad>0</ns3:cad>
          </ns3:TrackPointExtension>
        </extensions>
      </trkpt>
      <trkpt lat="45.34928337670862674713134765625" lon="-71.00544258020818233489990234375">
        <ele>863.20001220703125</ele>
        <time>2026-08-21T19:33:36.000Z</time>
        <extensions>
          <ns3:TrackPointExtension>
            <ns3:hr>136</ns3:hr>
            <ns3:cad>0</ns3:cad>
          </ns3:TrackPointExtension>
        </extensions>
      </trkpt>
      <trkpt lat="45.34928304143249988555908203125" lon="-71.0054451785981655120849609375">
        <ele>863.4000244140625</ele>
        <time>2026-08-21T19:33:37.000Z</time>
        <extensions>
          <ns3:TrackPointExtension>
            <ns3:hr>136</ns3:hr>
            <ns3:cad>0</ns3:cad>
          </ns3:TrackPointExtension>
        </extensions>
      </trkpt>
      <trkpt lat="45.34928086213767528533935546875" lon="-71.00544995628297328948974609375">
        <ele>863.5999755859375</ele>
        <time>2026-08-21T19:33:38.000Z</time>
        <extensions>
          <ns3:TrackPointExtension>
            <ns3:hr>136</ns3:hr>
            <ns3:cad>0</ns3:cad>
          </ns3:TrackPointExtension>
        </extensions>
      </trkpt>
      <trkpt lat="45.34927717410027980804443359375" lon="-71.0054528899490833282470703125">
        <ele>863.79998779296875</ele>
        <time>2026-08-21T19:33:39.000Z</time>
        <extensions>
          <ns3:TrackPointExtension>
            <ns3:hr>136</ns3:hr>
            <ns3:cad>0</ns3:cad>
          </ns3:TrackPointExtension>
        </extensions>
      </trkpt>
      <trkpt lat="45.34927382133901119232177734375" lon="-71.005453728139400482177734375">
        <ele>864</ele>
        <time>2026-08-21T19:33:40.000Z</time>
        <extensions>
          <ns3:TrackPointExtension>
            <ns3:hr>135</ns3:hr>
            <ns3:cad>0</ns3:cad>
          </ns3:TrackPointExtension>
        </extensions>
      </trkpt>
      <trkpt lat="45.349270887672901153564453125" lon="-71.00545716471970081329345703125">
        <ele>864.20001220703125</ele>
        <time>2026-08-21T19:33:41.000Z</time>
        <extensions>
          <ns3:TrackPointExtension>
            <ns3:hr>135</ns3:hr>
            <ns3:cad>0</ns3:cad>
          </ns3:TrackPointExtension>
        </extensions>
      </trkpt>
      <trkpt lat="45.349268205463886260986328125" lon="-71.00546387024223804473876953125">
        <ele>864.20001220703125</ele>
        <time>2026-08-21T19:33:42.000Z</time>
        <extensions>
          <ns3:TrackPointExtension>
            <ns3:hr>134</ns3:hr>
            <ns3:cad>0</ns3:cad>
          </ns3:TrackPointExtension>
        </extensions>
      </trkpt>
      <trkpt lat="45.34926594235002994537353515625" lon="-71.00546688772737979888916015625">
        <ele>864.4000244140625</ele>
        <time>2026-08-21T19:33:43.000Z</time>
        <extensions>
          <ns3:TrackPointExtension>
            <ns3:hr>133</ns3:hr>
            <ns3:cad>0</ns3:cad>
          </ns3:TrackPointExtension>
        </extensions>
      </trkpt>
      <trkpt lat="45.34926141612231731414794921875" lon="-71.00547543726861476898193359375">
        <ele>864.5999755859375</ele>
        <time>2026-08-21T19:33:44.000Z</time>
        <extensions>
          <ns3:TrackPointExtension>
            <ns3:hr>132</ns3:hr>
            <ns3:cad>0</ns3:cad>
          </ns3:TrackPointExtension>
        </extensions>
      </trkpt>
      <trkpt lat="45.34925923682749271392822265625" lon="-71.00548348389565944671630859375">
        <ele>864.79998779296875</ele>
        <time>2026-08-21T19:33:45.000Z</time>
        <extensions>
          <ns3:TrackPointExtension>
            <ns3:hr>132</ns3:hr>
            <ns3:cad>0</ns3:cad>
          </ns3:TrackPointExtension>
        </extensions>
      </trkpt>
      <trkpt lat="45.34925102256238460540771484375" lon="-71.00549236871302127838134765625">
        <ele>865</ele>
        <time>2026-08-21T19:33:46.000Z</time>
        <extensions>
          <ns3:TrackPointExtension>
            <ns3:hr>133</ns3:hr>
            <ns3:cad>0</ns3:cad>
          </ns3:TrackPointExtension>
        </extensions>
      </trkpt>
      <trkpt lat="45.34925085492432117462158203125" lon="-71.00549270398914813995361328125">
        <ele>865.20001220703125</ele>
        <time>2026-08-21T19:33:47.000Z</time>
        <extensions>
          <ns3:TrackPointExtension>
            <ns3:hr>133</ns3:hr>
            <ns3:cad>0</ns3:cad>
          </ns3:TrackPointExtension>
        </extensions>
      </trkpt>
      <trkpt lat="45.34924976527690887451171875" lon="-71.00549521856009960174560546875">
        <ele>865.4000244140625</ele>
        <time>2026-08-21T19:33:48.000Z</time>
        <extensions>
          <ns3:TrackPointExtension>
            <ns3:hr>133</ns3:hr>
            <ns3:cad>0</ns3:cad>
          </ns3:TrackPointExtension>
        </extensions>
      </trkpt>
      <trkpt lat="45.34924783743917942047119140625" lon="-71.00550242699682712554931640625">
        <ele>865.5999755859375</ele>
        <time>2026-08-21T19:33:49.000Z</time>
        <extensions>
          <ns3:TrackPointExtension>
            <ns3:hr>132</ns3:hr>
            <ns3:cad>0</ns3:cad>
          </ns3:TrackPointExtension>
        </extensions>
      </trkpt>
      <trkpt lat="45.34923912025988101959228515625" lon="-71.00551198236644268035888671875">
        <ele>865.79998779296875</ele>
        <time>2026-08-21T19:33:50.000Z</time>
        <extensions>
          <ns3:TrackPointExtension>
            <ns3:hr>132</ns3:hr>
            <ns3:cad>0</ns3:cad>
          </ns3:TrackPointExtension>
        </extensions>
      </trkpt>
      <trkpt lat="45.349240712821483612060546875" lon="-71.005510725080966949462890625">
        <ele>865.79998779296875</ele>
        <time>2026-08-21T19:33:51.000Z</time>
        <extensions>
          <ns3:TrackPointExtension>
            <ns3:hr>133</ns3:hr>
            <ns3:cad>0</ns3:cad>
          </ns3:TrackPointExtension>
        </extensions>
      </trkpt>
      <trkpt lat="45.3492368571460247039794921875" lon="-71.00551332347095012664794921875">
        <ele>866</ele>
        <time>2026-08-21T19:33:52.000Z</time>
        <extensions>
          <ns3:TrackPointExtension>
            <ns3:hr>133</ns3:hr>
            <ns3:cad>0</ns3:cad>
          </ns3:TrackPointExtension>
        </extensions>
      </trkpt>
      <trkpt lat="45.3492331691086292266845703125" lon="-71.00551508367061614990234375">
        <ele>866.20001220703125</ele>
        <time>2026-08-21T19:33:53.000Z</time>
        <extensions>
          <ns3:TrackPointExtension>
            <ns3:hr>134</ns3:hr>
            <ns3:cad>0</ns3:cad>
          </ns3:TrackPointExtension>
        </extensions>
      </trkpt>
      <trkpt lat="45.34922386519610881805419921875" lon="-71.0055197775363922119140625">
        <ele>866.4000244140625</ele>
        <time>2026-08-21T19:33:54.000Z</time>
        <extensions>
          <ns3:TrackPointExtension>
            <ns3:hr>134</ns3:hr>
            <ns3:cad>0</ns3:cad>
          </ns3:TrackPointExtension>
        </extensions>
      </trkpt>
      <trkpt lat="45.349223278462886810302734375" lon="-71.00551986135542392730712890625">
        <ele>866.5999755859375</ele>
        <time>2026-08-21T19:33:55.000Z</time>
        <extensions>
          <ns3:TrackPointExtension>
            <ns3:hr>134</ns3:hr>
            <ns3:cad>0</ns3:cad>
          </ns3:TrackPointExtension>
        </extensions>
      </trkpt>
      <trkpt lat="45.34921632148325443267822265625" lon="-71.00552178919315338134765625">
        <ele>866.79998779296875</ele>
        <time>2026-08-21T19:33:56.000Z</time>
        <extensions>
          <ns3:TrackPointExtension>
            <ns3:hr>134</ns3:hr>
            <ns3:cad>0</ns3:cad>
          </ns3:TrackPointExtension>
        </extensions>
      </trkpt>
      <trkpt lat="45.3492113761603832244873046875" lon="-71.00552673451602458953857421875">
        <ele>867</ele>
        <time>2026-08-21T19:33:57.000Z</time>
        <extensions>
          <ns3:TrackPointExtension>
            <ns3:hr>134</ns3:hr>
            <ns3:cad>0</ns3:cad>
          </ns3:TrackPointExtension>
        </extensions>
      </trkpt>
      <trkpt lat="45.3492033295333385467529296875" lon="-71.0055296681821346282958984375">
        <ele>867.20001220703125</ele>
        <time>2026-08-21T19:33:58.000Z</time>
        <extensions>
          <ns3:TrackPointExtension>
            <ns3:hr>133</ns3:hr>
            <ns3:cad>0</ns3:cad>
          </ns3:TrackPointExtension>
        </extensions>
      </trkpt>
      <trkpt lat="45.34919679164886474609375" lon="-71.005532853305339813232421875">
        <ele>867.4000244140625</ele>
        <time>2026-08-21T19:33:59.000Z</time>
        <extensions>
          <ns3:TrackPointExtension>
            <ns3:hr>134</ns3:hr>
            <ns3:cad>0</ns3:cad>
          </ns3:TrackPointExtension>
        </extensions>
      </trkpt>
      <trkpt lat="45.34919469617307186126708984375" lon="-71.0055367089807987213134765625">
        <ele>867.5999755859375</ele>
        <time>2026-08-21T19:34:00.000Z</time>
        <extensions>
          <ns3:TrackPointExtension>
            <ns3:hr>135</ns3:hr>
            <ns3:cad>0</ns3:cad>
          </ns3:TrackPointExtension>
        </extensions>
      </trkpt>
      <trkpt lat="45.34919033758342266082763671875" lon="-71.0055412352085113525390625">
        <ele>867.5999755859375</ele>
        <time>2026-08-21T19:34:01.000Z</time>
        <extensions>
          <ns3:TrackPointExtension>
            <ns3:hr>135</ns3:hr>
            <ns3:cad>0</ns3:cad>
          </ns3:TrackPointExtension>
        </extensions>
      </trkpt>
      <trkpt lat="45.34918547607958316802978515625" lon="-71.005546934902667999267578125">
        <ele>867.79998779296875</ele>
        <time>2026-08-21T19:34:02.000Z</time>
        <extensions>
          <ns3:TrackPointExtension>
            <ns3:hr>135</ns3:hr>
            <ns3:cad>0</ns3:cad>
          </ns3:TrackPointExtension>
        </extensions>
      </trkpt>
      <trkpt lat="45.34917960874736309051513671875" lon="-71.00554483942687511444091796875">
        <ele>868.20001220703125</ele>
        <time>2026-08-21T19:34:03.000Z</time>
        <extensions>
          <ns3:TrackPointExtension>
            <ns3:hr>135</ns3:hr>
            <ns3:cad>0</ns3:cad>
          </ns3:TrackPointExtension>
        </extensions>
      </trkpt>
      <trkpt lat="45.34917533397674560546875" lon="-71.005548276007175445556640625">
        <ele>868.4000244140625</ele>
        <time>2026-08-21T19:34:04.000Z</time>
        <extensions>
          <ns3:TrackPointExtension>
            <ns3:hr>135</ns3:hr>
            <ns3:cad>0</ns3:cad>
          </ns3:TrackPointExtension>
        </extensions>
      </trkpt>
      <trkpt lat="45.34917055629193782806396484375" lon="-71.00555942393839359283447265625">
        <ele>868.5999755859375</ele>
        <time>2026-08-21T19:34:05.000Z</time>
        <extensions>
          <ns3:TrackPointExtension>
            <ns3:hr>135</ns3:hr>
            <ns3:cad>0</ns3:cad>
          </ns3:TrackPointExtension>
        </extensions>
      </trkpt>
      <trkpt lat="45.34917055629193782806396484375" lon="-71.00556361488997936248779296875">
        <ele>868.79998779296875</ele>
        <time>2026-08-21T19:34:06.000Z</time>
        <extensions>
          <ns3:TrackPointExtension>
            <ns3:hr>135</ns3:hr>
            <ns3:cad>0</ns3:cad>
          </ns3:TrackPointExtension>
        </extensions>
      </trkpt>
      <trkpt lat="45.349165610969066619873046875" lon="-71.00556897930800914764404296875">
        <ele>868.79998779296875</ele>
        <time>2026-08-21T19:34:07.000Z</time>
        <extensions>
          <ns3:TrackPointExtension>
            <ns3:hr>136</ns3:hr>
            <ns3:cad>0</ns3:cad>
          </ns3:TrackPointExtension>
        </extensions>
      </trkpt>
      <trkpt lat="45.3491620905697345733642578125" lon="-71.00556680001318454742431640625">
        <ele>869</ele>
        <time>2026-08-21T19:34:08.000Z</time>
        <extensions>
          <ns3:TrackPointExtension>
            <ns3:hr>136</ns3:hr>
            <ns3:cad>0</ns3:cad>
          </ns3:TrackPointExtension>
        </extensions>
      </trkpt>
      <trkpt lat="45.3491567261517047882080078125" lon="-71.00557099096477031707763671875">
        <ele>869.20001220703125</ele>
        <time>2026-08-21T19:34:09.000Z</time>
        <extensions>
          <ns3:TrackPointExtension>
            <ns3:hr>136</ns3:hr>
            <ns3:cad>0</ns3:cad>
          </ns3:TrackPointExtension>
        </extensions>
      </trkpt>
      <trkpt lat="45.34915320575237274169921875" lon="-71.00557434372603893280029296875">
        <ele>869.4000244140625</ele>
        <time>2026-08-21T19:34:10.000Z</time>
        <extensions>
          <ns3:TrackPointExtension>
            <ns3:hr>137</ns3:hr>
            <ns3:cad>0</ns3:cad>
          </ns3:TrackPointExtension>
        </extensions>
      </trkpt>
      <trkpt lat="45.34914758987724781036376953125" lon="-71.00557409226894378662109375">
        <ele>869.5999755859375</ele>
        <time>2026-08-21T19:34:11.000Z</time>
        <extensions>
          <ns3:TrackPointExtension>
            <ns3:hr>137</ns3:hr>
            <ns3:cad>0</ns3:cad>
          </ns3:TrackPointExtension>
        </extensions>
      </trkpt>
      <trkpt lat="45.34914792515337467193603515625" lon="-71.00557501427829265594482421875">
        <ele>869.79998779296875</ele>
        <time>2026-08-21T19:34:12.000Z</time>
        <extensions>
          <ns3:TrackPointExtension>
            <ns3:hr>137</ns3:hr>
            <ns3:cad>0</ns3:cad>
          </ns3:TrackPointExtension>
        </extensions>
      </trkpt>
      <trkpt lat="45.34914440475404262542724609375" lon="-71.005574427545070648193359375">
        <ele>870</ele>
        <time>2026-08-21T19:34:13.000Z</time>
        <extensions>
          <ns3:TrackPointExtension>
            <ns3:hr>138</ns3:hr>
            <ns3:cad>0</ns3:cad>
          </ns3:TrackPointExtension>
        </extensions>
      </trkpt>
      <trkpt lat="45.34913803450763225555419921875" lon="-71.00557602010667324066162109375">
        <ele>870.20001220703125</ele>
        <time>2026-08-21T19:34:14.000Z</time>
        <extensions>
          <ns3:TrackPointExtension>
            <ns3:hr>138</ns3:hr>
            <ns3:cad>0</ns3:cad>
          </ns3:TrackPointExtension>
        </extensions>
      </trkpt>
      <trkpt lat="45.3491342626512050628662109375" lon="-71.00557736121118068695068359375">
        <ele>870.20001220703125</ele>
        <time>2026-08-21T19:34:15.000Z</time>
        <extensions>
          <ns3:TrackPointExtension>
            <ns3:hr>137</ns3:hr>
            <ns3:cad>0</ns3:cad>
          </ns3:TrackPointExtension>
        </extensions>
      </trkpt>
      <trkpt lat="45.3491285629570484161376953125" lon="-71.0055762715637683868408203125">
        <ele>870.4000244140625</ele>
        <time>2026-08-21T19:34:16.000Z</time>
        <extensions>
          <ns3:TrackPointExtension>
            <ns3:hr>136</ns3:hr>
            <ns3:cad>0</ns3:cad>
          </ns3:TrackPointExtension>
        </extensions>
      </trkpt>
      <trkpt lat="45.34912529401481151580810546875" lon="-71.00557635538280010223388671875">
        <ele>870.5999755859375</ele>
        <time>2026-08-21T19:34:17.000Z</time>
        <extensions>
          <ns3:TrackPointExtension>
            <ns3:hr>135</ns3:hr>
            <ns3:cad>0</ns3:cad>
          </ns3:TrackPointExtension>
        </extensions>
      </trkpt>
      <trkpt lat="45.34911892376840114593505859375" lon="-71.005580462515354156494140625">
        <ele>870.79998779296875</ele>
        <time>2026-08-21T19:34:18.000Z</time>
        <extensions>
          <ns3:TrackPointExtension>
            <ns3:hr>134</ns3:hr>
            <ns3:cad>0</ns3:cad>
          </ns3:TrackPointExtension>
        </extensions>
      </trkpt>
      <trkpt lat="45.34911305643618106842041015625" lon="-71.00557987578213214874267578125">
        <ele>871</ele>
        <time>2026-08-21T19:34:19.000Z</time>
        <extensions>
          <ns3:TrackPointExtension>
            <ns3:hr>134</ns3:hr>
            <ns3:cad>0</ns3:cad>
          </ns3:TrackPointExtension>
        </extensions>
      </trkpt>
      <trkpt lat="45.349106602370738983154296875" lon="-71.00558272562921047210693359375">
        <ele>871</ele>
        <time>2026-08-21T19:34:20.000Z</time>
        <extensions>
          <ns3:TrackPointExtension>
            <ns3:hr>134</ns3:hr>
            <ns3:cad>0</ns3:cad>
          </ns3:TrackPointExtension>
        </extensions>
      </trkpt>
      <trkpt lat="45.349101237952709197998046875" lon="-71.00558540783822536468505859375">
        <ele>871.20001220703125</ele>
        <time>2026-08-21T19:34:21.000Z</time>
        <extensions>
          <ns3:TrackPointExtension>
            <ns3:hr>134</ns3:hr>
            <ns3:cad>0</ns3:cad>
          </ns3:TrackPointExtension>
        </extensions>
      </trkpt>
      <trkpt lat="45.34909822046756744384765625" lon="-71.0055816359817981719970703125">
        <ele>871.4000244140625</ele>
        <time>2026-08-21T19:34:22.000Z</time>
        <extensions>
          <ns3:TrackPointExtension>
            <ns3:hr>134</ns3:hr>
            <ns3:cad>0</ns3:cad>
          </ns3:TrackPointExtension>
        </extensions>
      </trkpt>
      <trkpt lat="45.34909285604953765869140625" lon="-71.00557769648730754852294921875">
        <ele>871.5999755859375</ele>
        <time>2026-08-21T19:34:23.000Z</time>
        <extensions>
          <ns3:TrackPointExtension>
            <ns3:hr>134</ns3:hr>
            <ns3:cad>0</ns3:cad>
          </ns3:TrackPointExtension>
        </extensions>
      </trkpt>
      <trkpt lat="45.34908254630863666534423828125" lon="-71.00557467900216579437255859375">
        <ele>871.79998779296875</ele>
        <time>2026-08-21T19:34:24.000Z</time>
        <extensions>
          <ns3:TrackPointExtension>
            <ns3:hr>134</ns3:hr>
            <ns3:cad>0</ns3:cad>
          </ns3:TrackPointExtension>
        </extensions>
      </trkpt>
      <trkpt lat="45.34907366149127483367919921875" lon="-71.005577109754085540771484375">
        <ele>872</ele>
        <time>2026-08-21T19:34:25.000Z</time>
        <extensions>
          <ns3:TrackPointExtension>
            <ns3:hr>134</ns3:hr>
            <ns3:cad>0</ns3:cad>
          </ns3:TrackPointExtension>
        </extensions>
      </trkpt>
      <trkpt lat="45.34906729124486446380615234375" lon="-71.00557685829699039459228515625">
        <ele>872</ele>
        <time>2026-08-21T19:34:26.000Z</time>
        <extensions>
          <ns3:TrackPointExtension>
            <ns3:hr>134</ns3:hr>
            <ns3:cad>0</ns3:cad>
          </ns3:TrackPointExtension>
        </extensions>
      </trkpt>
      <trkpt lat="45.34905924461781978607177734375" lon="-71.00557618774473667144775390625">
        <ele>872.20001220703125</ele>
        <time>2026-08-21T19:34:27.000Z</time>
        <extensions>
          <ns3:TrackPointExtension>
            <ns3:hr>134</ns3:hr>
            <ns3:cad>0</ns3:cad>
          </ns3:TrackPointExtension>
        </extensions>
      </trkpt>
      <trkpt lat="45.34905170090496540069580078125" lon="-71.00557819940149784088134765625">
        <ele>872.4000244140625</ele>
        <time>2026-08-21T19:34:28.000Z</time>
        <extensions>
          <ns3:TrackPointExtension>
            <ns3:hr>133</ns3:hr>
            <ns3:cad>0</ns3:cad>
          </ns3:TrackPointExtension>
        </extensions>
      </trkpt>
      <trkpt lat="45.34904323518276214599609375" lon="-71.00558138452470302581787109375">
        <ele>872.4000244140625</ele>
        <time>2026-08-21T19:34:29.000Z</time>
        <extensions>
          <ns3:TrackPointExtension>
            <ns3:hr>134</ns3:hr>
            <ns3:cad>0</ns3:cad>
          </ns3:TrackPointExtension>
        </extensions>
      </trkpt>
      <trkpt lat="45.349033176898956298828125" lon="-71.00558557547628879547119140625">
        <ele>872.5999755859375</ele>
        <time>2026-08-21T19:34:30.000Z</time>
        <extensions>
          <ns3:TrackPointExtension>
            <ns3:hr>134</ns3:hr>
            <ns3:cad>0</ns3:cad>
          </ns3:TrackPointExtension>
        </extensions>
      </trkpt>
      <trkpt lat="45.34903024323284626007080078125" lon="-71.00558758713304996490478515625">
        <ele>872.79998779296875</ele>
        <time>2026-08-21T19:34:31.000Z</time>
        <extensions>
          <ns3:TrackPointExtension>
            <ns3:hr>134</ns3:hr>
            <ns3:cad>0</ns3:cad>
          </ns3:TrackPointExtension>
        </extensions>
      </trkpt>
      <trkpt lat="45.349021442234516143798828125" lon="-71.00558993406593799591064453125">
        <ele>873</ele>
        <time>2026-08-21T19:34:32.000Z</time>
        <extensions>
          <ns3:TrackPointExtension>
            <ns3:hr>134</ns3:hr>
            <ns3:cad>0</ns3:cad>
          </ns3:TrackPointExtension>
        </extensions>
      </trkpt>
      <trkpt lat="45.34900979138910770416259765625" lon="-71.0055900178849697113037109375">
        <ele>873</ele>
        <time>2026-08-21T19:34:33.000Z</time>
        <extensions>
          <ns3:TrackPointExtension>
            <ns3:hr>134</ns3:hr>
            <ns3:cad>0</ns3:cad>
          </ns3:TrackPointExtension>
        </extensions>
      </trkpt>
      <trkpt lat="45.34900367259979248046875" lon="-71.0055927000939846038818359375">
        <ele>873.20001220703125</ele>
        <time>2026-08-21T19:34:34.000Z</time>
        <extensions>
          <ns3:TrackPointExtension>
            <ns3:hr>133</ns3:hr>
            <ns3:cad>0</ns3:cad>
          </ns3:TrackPointExtension>
        </extensions>
      </trkpt>
      <trkpt lat="45.3489897586405277252197265625" lon="-71.00560183636844158172607421875">
        <ele>873.20001220703125</ele>
        <time>2026-08-21T19:34:35.000Z</time>
        <extensions>
          <ns3:TrackPointExtension>
            <ns3:hr>134</ns3:hr>
            <ns3:cad>0</ns3:cad>
          </ns3:TrackPointExtension>
        </extensions>
      </trkpt>
      <trkpt lat="45.34897978417575359344482421875" lon="-71.00560451857745647430419921875">
        <ele>873.4000244140625</ele>
        <time>2026-08-21T19:34:36.000Z</time>
        <extensions>
          <ns3:TrackPointExtension>
            <ns3:hr>134</ns3:hr>
            <ns3:cad>0</ns3:cad>
          </ns3:TrackPointExtension>
        </extensions>
      </trkpt>
      <trkpt lat="45.34897492267191410064697265625" lon="-71.0056054405868053436279296875">
        <ele>873.5999755859375</ele>
        <time>2026-08-21T19:34:37.000Z</time>
        <extensions>
          <ns3:TrackPointExtension>
            <ns3:hr>134</ns3:hr>
            <ns3:cad>0</ns3:cad>
          </ns3:TrackPointExtension>
        </extensions>
      </trkpt>
      <trkpt lat="45.348964445292949676513671875" lon="-71.00561139173805713653564453125">
        <ele>873.79998779296875</ele>
        <time>2026-08-21T19:34:38.000Z</time>
        <extensions>
          <ns3:TrackPointExtension>
            <ns3:hr>134</ns3:hr>
            <ns3:cad>0</ns3:cad>
          </ns3:TrackPointExtension>
        </extensions>
      </trkpt>
      <trkpt lat="45.34895463846623897552490234375" lon="-71.00562103092670440673828125">
        <ele>873.79998779296875</ele>
        <time>2026-08-21T19:34:39.000Z</time>
        <extensions>
          <ns3:TrackPointExtension>
            <ns3:hr>134</ns3:hr>
            <ns3:cad>0</ns3:cad>
          </ns3:TrackPointExtension>
        </extensions>
      </trkpt>
      <trkpt lat="45.34894944168627262115478515625" lon="-71.00563033483922481536865234375">
        <ele>874</ele>
        <time>2026-08-21T19:34:40.000Z</time>
        <extensions>
          <ns3:TrackPointExtension>
            <ns3:hr>135</ns3:hr>
            <ns3:cad>0</ns3:cad>
          </ns3:TrackPointExtension>
        </extensions>
      </trkpt>
      <trkpt lat="45.34893955104053020477294921875" lon="-71.00563854910433292388916015625">
        <ele>874.20001220703125</ele>
        <time>2026-08-21T19:34:41.000Z</time>
        <extensions>
          <ns3:TrackPointExtension>
            <ns3:hr>135</ns3:hr>
            <ns3:cad>0</ns3:cad>
          </ns3:TrackPointExtension>
        </extensions>
      </trkpt>
      <trkpt lat="45.348929576575756072998046875" lon="-71.0056496970355510711669921875">
        <ele>874.20001220703125</ele>
        <time>2026-08-21T19:34:42.000Z</time>
        <extensions>
          <ns3:TrackPointExtension>
            <ns3:hr>135</ns3:hr>
            <ns3:cad>0</ns3:cad>
          </ns3:TrackPointExtension>
        </extensions>
      </trkpt>
      <trkpt lat="45.34892781637609004974365234375" lon="-71.005651541054248809814453125">
        <ele>874.4000244140625</ele>
        <time>2026-08-21T19:34:43.000Z</time>
        <extensions>
          <ns3:TrackPointExtension>
            <ns3:hr>135</ns3:hr>
            <ns3:cad>0</ns3:cad>
          </ns3:TrackPointExtension>
        </extensions>
      </trkpt>
      <trkpt lat="45.3489243797957897186279296875" lon="-71.00565665401518344879150390625">
        <ele>874.5999755859375</ele>
        <time>2026-08-21T19:34:44.000Z</time>
        <extensions>
          <ns3:TrackPointExtension>
            <ns3:hr>136</ns3:hr>
            <ns3:cad>0</ns3:cad>
          </ns3:TrackPointExtension>
        </extensions>
      </trkpt>
      <trkpt lat="45.34891784191131591796875" lon="-71.0056711547076702117919921875">
        <ele>874.79998779296875</ele>
        <time>2026-08-21T19:34:45.000Z</time>
        <extensions>
          <ns3:TrackPointExtension>
            <ns3:hr>136</ns3:hr>
            <ns3:cad>0</ns3:cad>
          </ns3:TrackPointExtension>
        </extensions>
      </trkpt>
      <trkpt lat="45.3489146567881107330322265625" lon="-71.005676686763763427734375">
        <ele>875</ele>
        <time>2026-08-21T19:34:46.000Z</time>
        <extensions>
          <ns3:TrackPointExtension>
            <ns3:hr>137</ns3:hr>
            <ns3:cad>0</ns3:cad>
          </ns3:TrackPointExtension>
        </extensions>
      </trkpt>
      <trkpt lat="45.34891088493168354034423828125" lon="-71.0056879185140132904052734375">
        <ele>875.20001220703125</ele>
        <time>2026-08-21T19:34:47.000Z</time>
        <extensions>
          <ns3:TrackPointExtension>
            <ns3:hr>137</ns3:hr>
            <ns3:cad>40</ns3:cad>
          </ns3:TrackPointExtension>
        </extensions>
      </trkpt>
      <trkpt lat="45.34890786744654178619384765625" lon="-71.0056939534842967987060546875">
        <ele>875.4000244140625</ele>
        <time>2026-08-21T19:34:48.000Z</time>
        <extensions>
          <ns3:TrackPointExtension>
            <ns3:hr>137</ns3:hr>
            <ns3:cad>40</ns3:cad>
          </ns3:TrackPointExtension>
        </extensions>
      </trkpt>
      <trkpt lat="45.3489012457430362701416015625" lon="-71.00570342503488063812255859375">
        <ele>875.5999755859375</ele>
        <time>2026-08-21T19:34:49.000Z</time>
        <extensions>
          <ns3:TrackPointExtension>
            <ns3:hr>138</ns3:hr>
            <ns3:cad>40</ns3:cad>
          </ns3:TrackPointExtension>
        </extensions>
      </trkpt>
      <trkpt lat="45.3488988988101482391357421875" lon="-71.00571490824222564697265625">
        <ele>875.79998779296875</ele>
        <time>2026-08-21T19:34:50.000Z</time>
        <extensions>
          <ns3:TrackPointExtension>
            <ns3:hr>138</ns3:hr>
            <ns3:cad>0</ns3:cad>
          </ns3:TrackPointExtension>
        </extensions>
      </trkpt>
      <trkpt lat="45.348894037306308746337890625" lon="-71.0057288222014904022216796875">
        <ele>876</ele>
        <time>2026-08-21T19:34:51.000Z</time>
        <extensions>
          <ns3:TrackPointExtension>
            <ns3:hr>138</ns3:hr>
            <ns3:cad>0</ns3:cad>
          </ns3:TrackPointExtension>
        </extensions>
      </trkpt>
      <trkpt lat="45.3488908521831035614013671875" lon="-71.00574910640716552734375">
        <ele>876.20001220703125</ele>
        <time>2026-08-21T19:34:52.000Z</time>
        <extensions>
          <ns3:TrackPointExtension>
            <ns3:hr>137</ns3:hr>
            <ns3:cad>0</ns3:cad>
          </ns3:TrackPointExtension>
        </extensions>
      </trkpt>
      <trkpt lat="45.34888766705989837646484375" lon="-71.00575589574873447418212890625">
        <ele>876.20001220703125</ele>
        <time>2026-08-21T19:34:53.000Z</time>
        <extensions>
          <ns3:TrackPointExtension>
            <ns3:hr>137</ns3:hr>
            <ns3:cad>0</ns3:cad>
          </ns3:TrackPointExtension>
        </extensions>
      </trkpt>
      <trkpt lat="45.3488824702799320220947265625" lon="-71.0057680495083332061767578125">
        <ele>876.4000244140625</ele>
        <time>2026-08-21T19:34:54.000Z</time>
        <extensions>
          <ns3:TrackPointExtension>
            <ns3:hr>137</ns3:hr>
            <ns3:cad>0</ns3:cad>
          </ns3:TrackPointExtension>
        </extensions>
      </trkpt>
      <trkpt lat="45.34888096153736114501953125" lon="-71.005778610706329345703125">
        <ele>876.5999755859375</ele>
        <time>2026-08-21T19:34:55.000Z</time>
        <extensions>
          <ns3:TrackPointExtension>
            <ns3:hr>137</ns3:hr>
            <ns3:cad>0</ns3:cad>
          </ns3:TrackPointExtension>
        </extensions>
      </trkpt>
      <trkpt lat="45.3488771058619022369384765625" lon="-71.00579009391367435455322265625">
        <ele>876.79998779296875</ele>
        <time>2026-08-21T19:34:56.000Z</time>
        <extensions>
          <ns3:TrackPointExtension>
            <ns3:hr>138</ns3:hr>
            <ns3:cad>0</ns3:cad>
          </ns3:TrackPointExtension>
        </extensions>
      </trkpt>
      <trkpt lat="45.34887299872934818267822265625" lon="-71.00580065511167049407958984375">
        <ele>877</ele>
        <time>2026-08-21T19:34:57.000Z</time>
        <extensions>
          <ns3:TrackPointExtension>
            <ns3:hr>138</ns3:hr>
            <ns3:cad>0</ns3:cad>
          </ns3:TrackPointExtension>
        </extensions>
      </trkpt>
      <trkpt lat="45.34886830486357212066650390625" lon="-71.0058089531958103179931640625">
        <ele>877.20001220703125</ele>
        <time>2026-08-21T19:34:58.000Z</time>
        <extensions>
          <ns3:TrackPointExtension>
            <ns3:hr>139</ns3:hr>
            <ns3:cad>0</ns3:cad>
          </ns3:TrackPointExtension>
        </extensions>
      </trkpt>
      <trkpt lat="45.3488620184361934661865234375" lon="-71.00581414997577667236328125">
        <ele>877.4000244140625</ele>
        <time>2026-08-21T19:34:59.000Z</time>
        <extensions>
          <ns3:TrackPointExtension>
            <ns3:hr>139</ns3:hr>
            <ns3:cad>0</ns3:cad>
          </ns3:TrackPointExtension>
        </extensions>
      </trkpt>
      <trkpt lat="45.34885682165622711181640625" lon="-71.00581943057477474212646484375">
        <ele>877.5999755859375</ele>
        <time>2026-08-21T19:35:00.000Z</time>
        <extensions>
          <ns3:TrackPointExtension>
            <ns3:hr>139</ns3:hr>
            <ns3:cad>0</ns3:cad>
          </ns3:TrackPointExtension>
        </extensions>
      </trkpt>
      <trkpt lat="45.34885690547525882720947265625" lon="-71.005828566849231719970703125">
        <ele>877.79998779296875</ele>
        <time>2026-08-21T19:35:01.000Z</time>
        <extensions>
          <ns3:TrackPointExtension>
            <ns3:hr>139</ns3:hr>
            <ns3:cad>0</ns3:cad>
          </ns3:TrackPointExtension>
        </extensions>
      </trkpt>
      <trkpt lat="45.348859168589115142822265625" lon="-71.0058416426181793212890625">
        <ele>878.20001220703125</ele>
        <time>2026-08-21T19:35:02.000Z</time>
        <extensions>
          <ns3:TrackPointExtension>
            <ns3:hr>138</ns3:hr>
            <ns3:cad>0</ns3:cad>
          </ns3:TrackPointExtension>
        </extensions>
      </trkpt>
      <trkpt lat="45.348861180245876312255859375" lon="-71.00585639476776123046875">
        <ele>878.4000244140625</ele>
        <time>2026-08-21T19:35:03.000Z</time>
        <extensions>
          <ns3:TrackPointExtension>
            <ns3:hr>139</ns3:hr>
            <ns3:cad>0</ns3:cad>
          </ns3:TrackPointExtension>
        </extensions>
      </trkpt>
      <trkpt lat="45.3488583303987979888916015625" lon="-71.00586888380348682403564453125">
        <ele>878.5999755859375</ele>
        <time>2026-08-21T19:35:04.000Z</time>
        <extensions>
          <ns3:TrackPointExtension>
            <ns3:hr>139</ns3:hr>
            <ns3:cad>0</ns3:cad>
          </ns3:TrackPointExtension>
        </extensions>
      </trkpt>
      <trkpt lat="45.3488499484956264495849609375" lon="-71.00587592460215091705322265625">
        <ele>878.79998779296875</ele>
        <time>2026-08-21T19:35:05.000Z</time>
        <extensions>
          <ns3:TrackPointExtension>
            <ns3:hr>138</ns3:hr>
            <ns3:cad>0</ns3:cad>
          </ns3:TrackPointExtension>
        </extensions>
      </trkpt>
      <trkpt lat="45.34883963875472545623779296875" lon="-71.00588531233370304107666015625">
        <ele>879</ele>
        <time>2026-08-21T19:35:06.000Z</time>
        <extensions>
          <ns3:TrackPointExtension>
            <ns3:hr>138</ns3:hr>
            <ns3:cad>0</ns3:cad>
          </ns3:TrackPointExtension>
        </extensions>
      </trkpt>
      <trkpt lat="45.348831675946712493896484375" lon="-71.00588598288595676422119140625">
        <ele>879.20001220703125</ele>
        <time>2026-08-21T19:35:07.000Z</time>
        <extensions>
          <ns3:TrackPointExtension>
            <ns3:hr>138</ns3:hr>
            <ns3:cad>0</ns3:cad>
          </ns3:TrackPointExtension>
        </extensions>
      </trkpt>
      <trkpt lat="45.34882388077676296234130859375" lon="-71.0058897547423839569091796875">
        <ele>879.4000244140625</ele>
        <time>2026-08-21T19:35:08.000Z</time>
        <extensions>
          <ns3:TrackPointExtension>
            <ns3:hr>138</ns3:hr>
            <ns3:cad>0</ns3:cad>
          </ns3:TrackPointExtension>
        </extensions>
      </trkpt>
      <trkpt lat="45.34881432540714740753173828125" lon="-71.00589822046458721160888671875">
        <ele>879.5999755859375</ele>
        <time>2026-08-21T19:35:09.000Z</time>
        <extensions>
          <ns3:TrackPointExtension>
            <ns3:hr>138</ns3:hr>
            <ns3:cad>0</ns3:cad>
          </ns3:TrackPointExtension>
        </extensions>
      </trkpt>
      <trkpt lat="45.34881055355072021484375" lon="-71.0059008188545703887939453125">
        <ele>879.79998779296875</ele>
        <time>2026-08-21T19:35:10.000Z</time>
        <extensions>
          <ns3:TrackPointExtension>
            <ns3:hr>139</ns3:hr>
            <ns3:cad>0</ns3:cad>
          </ns3:TrackPointExtension>
        </extensions>
      </trkpt>
      <trkpt lat="45.3488009981811046600341796875" lon="-71.0059058479964733123779296875">
        <ele>880</ele>
        <time>2026-08-21T19:35:11.000Z</time>
        <extensions>
          <ns3:TrackPointExtension>
            <ns3:hr>139</ns3:hr>
            <ns3:cad>0</ns3:cad>
          </ns3:TrackPointExtension>
        </extensions>
      </trkpt>
      <trkpt lat="45.34879286773502826690673828125" lon="-71.0059102065861225128173828125">
        <ele>880.20001220703125</ele>
        <time>2026-08-21T19:35:12.000Z</time>
        <extensions>
          <ns3:TrackPointExtension>
            <ns3:hr>138</ns3:hr>
            <ns3:cad>0</ns3:cad>
          </ns3:TrackPointExtension>
        </extensions>
      </trkpt>
      <trkpt lat="45.34878708422183990478515625" lon="-71.0059182532131671905517578125">
        <ele>880.4000244140625</ele>
        <time>2026-08-21T19:35:13.000Z</time>
        <extensions>
          <ns3:TrackPointExtension>
            <ns3:hr>138</ns3:hr>
            <ns3:cad>0</ns3:cad>
          </ns3:TrackPointExtension>
        </extensions>
      </trkpt>
      <trkpt lat="45.3487798757851123809814453125" lon="-71.00592923350632190704345703125">
        <ele>880.5999755859375</ele>
        <time>2026-08-21T19:35:14.000Z</time>
        <extensions>
          <ns3:TrackPointExtension>
            <ns3:hr>138</ns3:hr>
            <ns3:cad>43</ns3:cad>
          </ns3:TrackPointExtension>
        </extensions>
      </trkpt>
      <trkpt lat="45.34877358935773372650146484375" lon="-71.00593878887593746185302734375">
        <ele>880.79998779296875</ele>
        <time>2026-08-21T19:35:15.000Z</time>
        <extensions>
          <ns3:TrackPointExtension>
            <ns3:hr>139</ns3:hr>
            <ns3:cad>43</ns3:cad>
          </ns3:TrackPointExtension>
        </extensions>
      </trkpt>
      <trkpt lat="45.3487662971019744873046875" lon="-71.00594960153102874755859375">
        <ele>881</ele>
        <time>2026-08-21T19:35:16.000Z</time>
        <extensions>
          <ns3:TrackPointExtension>
            <ns3:hr>138</ns3:hr>
            <ns3:cad>43</ns3:cad>
          </ns3:TrackPointExtension>
        </extensions>
      </trkpt>
      <trkpt lat="45.34876160323619842529296875" lon="-71.00595504976809024810791015625">
        <ele>881.20001220703125</ele>
        <time>2026-08-21T19:35:17.000Z</time>
        <extensions>
          <ns3:TrackPointExtension>
            <ns3:hr>138</ns3:hr>
            <ns3:cad>43</ns3:cad>
          </ns3:TrackPointExtension>
        </extensions>
      </trkpt>
      <trkpt lat="45.348758585751056671142578125" lon="-71.0059635154902935028076171875">
        <ele>881.4000244140625</ele>
        <time>2026-08-21T19:35:18.000Z</time>
        <extensions>
          <ns3:TrackPointExtension>
            <ns3:hr>139</ns3:hr>
            <ns3:cad>43</ns3:cad>
          </ns3:TrackPointExtension>
        </extensions>
      </trkpt>
      <trkpt lat="45.34875447861850261688232421875" lon="-71.00597231648862361907958984375">
        <ele>881.5999755859375</ele>
        <time>2026-08-21T19:35:19.000Z</time>
        <extensions>
          <ns3:TrackPointExtension>
            <ns3:hr>138</ns3:hr>
            <ns3:cad>43</ns3:cad>
          </ns3:TrackPointExtension>
        </extensions>
      </trkpt>
      <trkpt lat="45.3487480245530605316162109375" lon="-71.0059797763824462890625">
        <ele>881.79998779296875</ele>
        <time>2026-08-21T19:35:20.000Z</time>
        <extensions>
          <ns3:TrackPointExtension>
            <ns3:hr>138</ns3:hr>
            <ns3:cad>43</ns3:cad>
          </ns3:TrackPointExtension>
        </extensions>
      </trkpt>
      <trkpt lat="45.34874877892434597015380859375" lon="-71.00598455406725406646728515625">
        <ele>882</ele>
        <time>2026-08-21T19:35:21.000Z</time>
        <extensions>
          <ns3:TrackPointExtension>
            <ns3:hr>139</ns3:hr>
            <ns3:cad>44</ns3:cad>
          </ns3:TrackPointExtension>
        </extensions>
      </trkpt>
      <trkpt lat="45.348744504153728485107421875" lon="-71.005994863808155059814453125">
        <ele>882.20001220703125</ele>
        <time>2026-08-21T19:35:22.000Z</time>
        <extensions>
          <ns3:TrackPointExtension>
            <ns3:hr>138</ns3:hr>
            <ns3:cad>44</ns3:cad>
          </ns3:TrackPointExtension>
        </extensions>
      </trkpt>
      <trkpt lat="45.3487403132021427154541015625" lon="-71.0060111247003078460693359375">
        <ele>882.4000244140625</ele>
        <time>2026-08-21T19:35:23.000Z</time>
        <extensions>
          <ns3:TrackPointExtension>
            <ns3:hr>138</ns3:hr>
            <ns3:cad>41</ns3:cad>
          </ns3:TrackPointExtension>
        </extensions>
      </trkpt>
      <trkpt lat="45.34873855300247669219970703125" lon="-71.00601531565189361572265625">
        <ele>882.5999755859375</ele>
        <time>2026-08-21T19:35:24.000Z</time>
        <extensions>
          <ns3:TrackPointExtension>
            <ns3:hr>138</ns3:hr>
            <ns3:cad>41</ns3:cad>
          </ns3:TrackPointExtension>
        </extensions>
      </trkpt>
      <trkpt lat="45.348733775317668914794921875" lon="-71.0060226917266845703125">
        <ele>882.5999755859375</ele>
        <time>2026-08-21T19:35:25.000Z</time>
        <extensions>
          <ns3:TrackPointExtension>
            <ns3:hr>139</ns3:hr>
            <ns3:cad>41</ns3:cad>
          </ns3:TrackPointExtension>
        </extensions>
      </trkpt>
      <trkpt lat="45.348721705377101898193359375" lon="-71.00603283382952213287353515625">
        <ele>882.79998779296875</ele>
        <time>2026-08-21T19:35:26.000Z</time>
        <extensions>
          <ns3:TrackPointExtension>
            <ns3:hr>138</ns3:hr>
            <ns3:cad>41</ns3:cad>
          </ns3:TrackPointExtension>
        </extensions>
      </trkpt>
      <trkpt lat="45.34871256910264492034912109375" lon="-71.0060355998575687408447265625">
        <ele>883</ele>
        <time>2026-08-21T19:35:27.000Z</time>
        <extensions>
          <ns3:TrackPointExtension>
            <ns3:hr>137</ns3:hr>
            <ns3:cad>41</ns3:cad>
          </ns3:TrackPointExtension>
        </extensions>
      </trkpt>
      <trkpt lat="45.34871038980782032012939453125" lon="-71.00604440085589885711669921875">
        <ele>883.20001220703125</ele>
        <time>2026-08-21T19:35:28.000Z</time>
        <extensions>
          <ns3:TrackPointExtension>
            <ns3:hr>137</ns3:hr>
            <ns3:cad>41</ns3:cad>
          </ns3:TrackPointExtension>
        </extensions>
      </trkpt>
      <trkpt lat="45.34870636649429798126220703125" lon="-71.006056554615497589111328125">
        <ele>883.4000244140625</ele>
        <time>2026-08-21T19:35:29.000Z</time>
        <extensions>
          <ns3:TrackPointExtension>
            <ns3:hr>136</ns3:hr>
            <ns3:cad>41</ns3:cad>
          </ns3:TrackPointExtension>
        </extensions>
      </trkpt>
      <trkpt lat="45.34870125353336334228515625" lon="-71.00607021711766719818115234375">
        <ele>883.4000244140625</ele>
        <time>2026-08-21T19:35:30.000Z</time>
        <extensions>
          <ns3:TrackPointExtension>
            <ns3:hr>136</ns3:hr>
            <ns3:cad>41</ns3:cad>
          </ns3:TrackPointExtension>
        </extensions>
      </trkpt>
      <trkpt lat="45.3486990742385387420654296875" lon="-71.00607306696474552154541015625">
        <ele>883.5999755859375</ele>
        <time>2026-08-21T19:35:31.000Z</time>
        <extensions>
          <ns3:TrackPointExtension>
            <ns3:hr>136</ns3:hr>
            <ns3:cad>41</ns3:cad>
          </ns3:TrackPointExtension>
        </extensions>
      </trkpt>
      <trkpt lat="45.34868918359279632568359375" lon="-71.00608513690531253814697265625">
        <ele>883.79998779296875</ele>
        <time>2026-08-21T19:35:32.000Z</time>
        <extensions>
          <ns3:TrackPointExtension>
            <ns3:hr>136</ns3:hr>
            <ns3:cad>41</ns3:cad>
          </ns3:TrackPointExtension>
        </extensions>
      </trkpt>
      <trkpt lat="45.34868247807025909423828125" lon="-71.00609670393168926239013671875">
        <ele>884</ele>
        <time>2026-08-21T19:35:33.000Z</time>
        <extensions>
          <ns3:TrackPointExtension>
            <ns3:hr>136</ns3:hr>
            <ns3:cad>41</ns3:cad>
          </ns3:TrackPointExtension>
        </extensions>
      </trkpt>
      <trkpt lat="45.34867853857576847076416015625" lon="-71.006104834377765655517578125">
        <ele>884.20001220703125</ele>
        <time>2026-08-21T19:35:34.000Z</time>
        <extensions>
          <ns3:TrackPointExtension>
            <ns3:hr>136</ns3:hr>
            <ns3:cad>0</ns3:cad>
          </ns3:TrackPointExtension>
        </extensions>
      </trkpt>
      <trkpt lat="45.34867149777710437774658203125" lon="-71.00611531175673007965087890625">
        <ele>884.4000244140625</ele>
        <time>2026-08-21T19:35:35.000Z</time>
        <extensions>
          <ns3:TrackPointExtension>
            <ns3:hr>136</ns3:hr>
            <ns3:cad>0</ns3:cad>
          </ns3:TrackPointExtension>
        </extensions>
      </trkpt>
      <trkpt lat="45.3486685641109943389892578125" lon="-71.00611723959445953369140625">
        <ele>884.5999755859375</ele>
        <time>2026-08-21T19:35:36.000Z</time>
        <extensions>
          <ns3:TrackPointExtension>
            <ns3:hr>136</ns3:hr>
            <ns3:cad>0</ns3:cad>
          </ns3:TrackPointExtension>
        </extensions>
      </trkpt>
      <trkpt lat="45.3486662171781063079833984375" lon="-71.00612620823085308074951171875">
        <ele>884.79998779296875</ele>
        <time>2026-08-21T19:35:37.000Z</time>
        <extensions>
          <ns3:TrackPointExtension>
            <ns3:hr>136</ns3:hr>
            <ns3:cad>0</ns3:cad>
          </ns3:TrackPointExtension>
        </extensions>
      </trkpt>
      <trkpt lat="45.34865808673202991485595703125" lon="-71.0061318241059780120849609375">
        <ele>884.79998779296875</ele>
        <time>2026-08-21T19:35:38.000Z</time>
        <extensions>
          <ns3:TrackPointExtension>
            <ns3:hr>137</ns3:hr>
            <ns3:cad>0</ns3:cad>
          </ns3:TrackPointExtension>
        </extensions>
      </trkpt>
      <trkpt lat="45.34864366985857486724853515625" lon="-71.0061324946582317352294921875">
        <ele>885</ele>
        <time>2026-08-21T19:35:39.000Z</time>
        <extensions>
          <ns3:TrackPointExtension>
            <ns3:hr>137</ns3:hr>
            <ns3:cad>0</ns3:cad>
          </ns3:TrackPointExtension>
        </extensions>
      </trkpt>
      <trkpt lat="45.34863914363086223602294921875" lon="-71.00614867173135280609130859375">
        <ele>885.20001220703125</ele>
        <time>2026-08-21T19:35:40.000Z</time>
        <extensions>
          <ns3:TrackPointExtension>
            <ns3:hr>137</ns3:hr>
            <ns3:cad>0</ns3:cad>
          </ns3:TrackPointExtension>
        </extensions>
      </trkpt>
      <trkpt lat="45.34863763488829135894775390625" lon="-71.0061554610729217529296875">
        <ele>885.4000244140625</ele>
        <time>2026-08-21T19:35:41.000Z</time>
        <extensions>
          <ns3:TrackPointExtension>
            <ns3:hr>137</ns3:hr>
            <ns3:cad>0</ns3:cad>
          </ns3:TrackPointExtension>
        </extensions>
      </trkpt>
      <trkpt lat="45.34863662905991077423095703125" lon="-71.00615738891065120697021484375">
        <ele>885.5999755859375</ele>
        <time>2026-08-21T19:35:42.000Z</time>
        <extensions>
          <ns3:TrackPointExtension>
            <ns3:hr>138</ns3:hr>
            <ns3:cad>0</ns3:cad>
          </ns3:TrackPointExtension>
        </extensions>
      </trkpt>
      <trkpt lat="45.3486347012221813201904296875" lon="-71.0061653517186641693115234375">
        <ele>885.79998779296875</ele>
        <time>2026-08-21T19:35:43.000Z</time>
        <extensions>
          <ns3:TrackPointExtension>
            <ns3:hr>138</ns3:hr>
            <ns3:cad>0</ns3:cad>
          </ns3:TrackPointExtension>
        </extensions>
      </trkpt>
      <trkpt lat="45.34863143227994441986083984375" lon="-71.00616711191833019256591796875">
        <ele>885.79998779296875</ele>
        <time>2026-08-21T19:35:44.000Z</time>
        <extensions>
          <ns3:TrackPointExtension>
            <ns3:hr>138</ns3:hr>
            <ns3:cad>0</ns3:cad>
          </ns3:TrackPointExtension>
        </extensions>
      </trkpt>
      <trkpt lat="45.348628498613834381103515625" lon="-71.00616644136607646942138671875">
        <ele>886</ele>
        <time>2026-08-21T19:35:45.000Z</time>
        <extensions>
          <ns3:TrackPointExtension>
            <ns3:hr>138</ns3:hr>
            <ns3:cad>0</ns3:cad>
          </ns3:TrackPointExtension>
        </extensions>
      </trkpt>
      <trkpt lat="45.348621122539043426513671875" lon="-71.00617147050797939300537109375">
        <ele>886.20001220703125</ele>
        <time>2026-08-21T19:35:46.000Z</time>
        <extensions>
          <ns3:TrackPointExtension>
            <ns3:hr>138</ns3:hr>
            <ns3:cad>0</ns3:cad>
          </ns3:TrackPointExtension>
        </extensions>
      </trkpt>
      <trkpt lat="45.34861383028328418731689453125" lon="-71.006175577640533447265625">
        <ele>886.20001220703125</ele>
        <time>2026-08-21T19:35:47.000Z</time>
        <extensions>
          <ns3:TrackPointExtension>
            <ns3:hr>138</ns3:hr>
            <ns3:cad>0</ns3:cad>
          </ns3:TrackPointExtension>
        </extensions>
      </trkpt>
      <trkpt lat="45.34860645420849323272705078125" lon="-71.0061769187450408935546875">
        <ele>886.4000244140625</ele>
        <time>2026-08-21T19:35:48.000Z</time>
        <extensions>
          <ns3:TrackPointExtension>
            <ns3:hr>138</ns3:hr>
            <ns3:cad>0</ns3:cad>
          </ns3:TrackPointExtension>
        </extensions>
      </trkpt>
      <trkpt lat="45.3485998325049877166748046875" lon="-71.00618404336273670196533203125">
        <ele>886.5999755859375</ele>
        <time>2026-08-21T19:35:49.000Z</time>
        <extensions>
          <ns3:TrackPointExtension>
            <ns3:hr>137</ns3:hr>
            <ns3:cad>0</ns3:cad>
          </ns3:TrackPointExtension>
        </extensions>
      </trkpt>
      <trkpt lat="45.34859119914472103118896484375" lon="-71.006190665066242218017578125">
        <ele>886.79998779296875</ele>
        <time>2026-08-21T19:35:50.000Z</time>
        <extensions>
          <ns3:TrackPointExtension>
            <ns3:hr>138</ns3:hr>
            <ns3:cad>0</ns3:cad>
          </ns3:TrackPointExtension>
        </extensions>
      </trkpt>
      <trkpt lat="45.34858583472669124603271484375" lon="-71.00619561038911342620849609375">
        <ele>887</ele>
        <time>2026-08-21T19:35:51.000Z</time>
        <extensions>
          <ns3:TrackPointExtension>
            <ns3:hr>138</ns3:hr>
            <ns3:cad>0</ns3:cad>
          </ns3:TrackPointExtension>
        </extensions>
      </trkpt>
      <trkpt lat="45.348582565784454345703125" lon="-71.006198711693286895751953125">
        <ele>887.20001220703125</ele>
        <time>2026-08-21T19:35:52.000Z</time>
        <extensions>
          <ns3:TrackPointExtension>
            <ns3:hr>138</ns3:hr>
            <ns3:cad>0</ns3:cad>
          </ns3:TrackPointExtension>
        </extensions>
      </trkpt>
      <trkpt lat="45.34857896156609058380126953125" lon="-71.006205417215824127197265625">
        <ele>887.4000244140625</ele>
        <time>2026-08-21T19:35:53.000Z</time>
        <extensions>
          <ns3:TrackPointExtension>
            <ns3:hr>138</ns3:hr>
            <ns3:cad>0</ns3:cad>
          </ns3:TrackPointExtension>
        </extensions>
      </trkpt>
      <trkpt lat="45.34857694990932941436767578125" lon="-71.0062136314809322357177734375">
        <ele>887.4000244140625</ele>
        <time>2026-08-21T19:35:54.000Z</time>
        <extensions>
          <ns3:TrackPointExtension>
            <ns3:hr>139</ns3:hr>
            <ns3:cad>0</ns3:cad>
          </ns3:TrackPointExtension>
        </extensions>
      </trkpt>
      <trkpt lat="45.3485704958438873291015625" lon="-71.00622394122183322906494140625">
        <ele>887.5999755859375</ele>
        <time>2026-08-21T19:35:55.000Z</time>
        <extensions>
          <ns3:TrackPointExtension>
            <ns3:hr>139</ns3:hr>
            <ns3:cad>0</ns3:cad>
          </ns3:TrackPointExtension>
        </extensions>
      </trkpt>
      <trkpt lat="45.348568819463253021240234375" lon="-71.006234250962734222412109375">
        <ele>887.79998779296875</ele>
        <time>2026-08-21T19:35:56.000Z</time>
        <extensions>
          <ns3:TrackPointExtension>
            <ns3:hr>140</ns3:hr>
            <ns3:cad>0</ns3:cad>
          </ns3:TrackPointExtension>
        </extensions>
      </trkpt>
      <trkpt lat="45.348566137254238128662109375" lon="-71.0062458179891109466552734375">
        <ele>888</ele>
        <time>2026-08-21T19:35:57.000Z</time>
        <extensions>
          <ns3:TrackPointExtension>
            <ns3:hr>140</ns3:hr>
            <ns3:cad>0</ns3:cad>
          </ns3:TrackPointExtension>
        </extensions>
      </trkpt>
      <trkpt lat="45.34856555052101612091064453125" lon="-71.00625679828226566314697265625">
        <ele>888.20001220703125</ele>
        <time>2026-08-21T19:35:58.000Z</time>
        <extensions>
          <ns3:TrackPointExtension>
            <ns3:hr>140</ns3:hr>
            <ns3:cad>0</ns3:cad>
          </ns3:TrackPointExtension>
        </extensions>
      </trkpt>
      <trkpt lat="45.34856420941650867462158203125" lon="-71.006265766918659210205078125">
        <ele>888.4000244140625</ele>
        <time>2026-08-21T19:35:59.000Z</time>
        <extensions>
          <ns3:TrackPointExtension>
            <ns3:hr>140</ns3:hr>
            <ns3:cad>0</ns3:cad>
          </ns3:TrackPointExtension>
        </extensions>
      </trkpt>
      <trkpt lat="45.3485619463026523590087890625" lon="-71.00626803003251552581787109375">
        <ele>888.5999755859375</ele>
        <time>2026-08-21T19:36:00.000Z</time>
        <extensions>
          <ns3:TrackPointExtension>
            <ns3:hr>140</ns3:hr>
            <ns3:cad>0</ns3:cad>
          </ns3:TrackPointExtension>
        </extensions>
      </trkpt>
      <trkpt lat="45.34855850972235202789306640625" lon="-71.00627574138343334197998046875">
        <ele>888.79998779296875</ele>
        <time>2026-08-21T19:36:01.000Z</time>
        <extensions>
          <ns3:TrackPointExtension>
            <ns3:hr>139</ns3:hr>
            <ns3:cad>0</ns3:cad>
          </ns3:TrackPointExtension>
        </extensions>
      </trkpt>
      <trkpt lat="45.34855515696108341217041015625" lon="-71.0062820278108119964599609375">
        <ele>889.20001220703125</ele>
        <time>2026-08-21T19:36:02.000Z</time>
        <extensions>
          <ns3:TrackPointExtension>
            <ns3:hr>140</ns3:hr>
            <ns3:cad>0</ns3:cad>
          </ns3:TrackPointExtension>
        </extensions>
      </trkpt>
      <trkpt lat="45.34854912199079990386962890625" lon="-71.0062793456017971038818359375">
        <ele>889.4000244140625</ele>
        <time>2026-08-21T19:36:03.000Z</time>
        <extensions>
          <ns3:TrackPointExtension>
            <ns3:hr>140</ns3:hr>
            <ns3:cad>0</ns3:cad>
          </ns3:TrackPointExtension>
        </extensions>
      </trkpt>
      <trkpt lat="45.34853939898312091827392578125" lon="-71.00628697313368320465087890625">
        <ele>889.5999755859375</ele>
        <time>2026-08-21T19:36:04.000Z</time>
        <extensions>
          <ns3:TrackPointExtension>
            <ns3:hr>140</ns3:hr>
            <ns3:cad>0</ns3:cad>
          </ns3:TrackPointExtension>
        </extensions>
      </trkpt>
      <trkpt lat="45.34853587858378887176513671875" lon="-71.00629904307425022125244140625">
        <ele>889.79998779296875</ele>
        <time>2026-08-21T19:36:05.000Z</time>
        <extensions>
          <ns3:TrackPointExtension>
            <ns3:hr>140</ns3:hr>
            <ns3:cad>0</ns3:cad>
          </ns3:TrackPointExtension>
        </extensions>
      </trkpt>
      <trkpt lat="45.34854107536375522613525390625" lon="-71.006296612322330474853515625">
        <ele>890</ele>
        <time>2026-08-21T19:36:06.000Z</time>
        <extensions>
          <ns3:TrackPointExtension>
            <ns3:hr>140</ns3:hr>
            <ns3:cad>0</ns3:cad>
          </ns3:TrackPointExtension>
        </extensions>
      </trkpt>
      <trkpt lat="45.34853923134505748748779296875" lon="-71.00630323402583599090576171875">
        <ele>890.20001220703125</ele>
        <time>2026-08-21T19:36:07.000Z</time>
        <extensions>
          <ns3:TrackPointExtension>
            <ns3:hr>140</ns3:hr>
            <ns3:cad>0</ns3:cad>
          </ns3:TrackPointExtension>
        </extensions>
      </trkpt>
      <trkpt lat="45.348537303507328033447265625" lon="-71.00631094537675380706787109375">
        <ele>890.4000244140625</ele>
        <time>2026-08-21T19:36:08.000Z</time>
        <extensions>
          <ns3:TrackPointExtension>
            <ns3:hr>140</ns3:hr>
            <ns3:cad>0</ns3:cad>
          </ns3:TrackPointExtension>
        </extensions>
      </trkpt>
      <trkpt lat="45.34852934069931507110595703125" lon="-71.00632133893668651580810546875">
        <ele>890.5999755859375</ele>
        <time>2026-08-21T19:36:09.000Z</time>
        <extensions>
          <ns3:TrackPointExtension>
            <ns3:hr>140</ns3:hr>
            <ns3:cad>0</ns3:cad>
          </ns3:TrackPointExtension>
        </extensions>
      </trkpt>
      <trkpt lat="45.3485257364809513092041015625" lon="-71.0063269548118114471435546875">
        <ele>890.79998779296875</ele>
        <time>2026-08-21T19:36:10.000Z</time>
        <extensions>
          <ns3:TrackPointExtension>
            <ns3:hr>139</ns3:hr>
            <ns3:cad>0</ns3:cad>
          </ns3:TrackPointExtension>
        </extensions>
      </trkpt>
      <trkpt lat="45.34852498210966587066650390625" lon="-71.00632846355438232421875">
        <ele>891</ele>
        <time>2026-08-21T19:36:11.000Z</time>
        <extensions>
          <ns3:TrackPointExtension>
            <ns3:hr>140</ns3:hr>
            <ns3:cad>0</ns3:cad>
          </ns3:TrackPointExtension>
        </extensions>
      </trkpt>
      <trkpt lat="45.34851349890232086181640625" lon="-71.0063350014388561248779296875">
        <ele>891.20001220703125</ele>
        <time>2026-08-21T19:36:12.000Z</time>
        <extensions>
          <ns3:TrackPointExtension>
            <ns3:hr>140</ns3:hr>
            <ns3:cad>0</ns3:cad>
          </ns3:TrackPointExtension>
        </extensions>
      </trkpt>
      <trkpt lat="45.348509810864925384521484375" lon="-71.00633642636239528656005859375">
        <ele>891.4000244140625</ele>
        <time>2026-08-21T19:36:13.000Z</time>
        <extensions>
          <ns3:TrackPointExtension>
            <ns3:hr>139</ns3:hr>
            <ns3:cad>0</ns3:cad>
          </ns3:TrackPointExtension>
        </extensions>
      </trkpt>
      <trkpt lat="45.34850637428462505340576171875" lon="-71.00634614937007427215576171875">
        <ele>891.5999755859375</ele>
        <time>2026-08-21T19:36:14.000Z</time>
        <extensions>
          <ns3:TrackPointExtension>
            <ns3:hr>139</ns3:hr>
            <ns3:cad>0</ns3:cad>
          </ns3:TrackPointExtension>
        </extensions>
      </trkpt>
      <trkpt lat="45.3485042788088321685791015625" lon="-71.00635671056807041168212890625">
        <ele>891.79998779296875</ele>
        <time>2026-08-21T19:36:15.000Z</time>
        <extensions>
          <ns3:TrackPointExtension>
            <ns3:hr>140</ns3:hr>
            <ns3:cad>0</ns3:cad>
          </ns3:TrackPointExtension>
        </extensions>
      </trkpt>
      <trkpt lat="45.3485029377043247222900390625" lon="-71.006360985338687896728515625">
        <ele>892</ele>
        <time>2026-08-21T19:36:16.000Z</time>
        <extensions>
          <ns3:TrackPointExtension>
            <ns3:hr>140</ns3:hr>
            <ns3:cad>0</ns3:cad>
          </ns3:TrackPointExtension>
        </extensions>
      </trkpt>
      <trkpt lat="45.34850142896175384521484375" lon="-71.00636140443384647369384765625">
        <ele>892</ele>
        <time>2026-08-21T19:36:17.000Z</time>
        <extensions>
          <ns3:TrackPointExtension>
            <ns3:hr>140</ns3:hr>
            <ns3:cad>0</ns3:cad>
          </ns3:TrackPointExtension>
        </extensions>
      </trkpt>
      <trkpt lat="45.34849950112402439117431640625" lon="-71.006362326443195343017578125">
        <ele>892.20001220703125</ele>
        <time>2026-08-21T19:36:18.000Z</time>
        <extensions>
          <ns3:TrackPointExtension>
            <ns3:hr>140</ns3:hr>
            <ns3:cad>0</ns3:cad>
          </ns3:TrackPointExtension>
        </extensions>
      </trkpt>
      <trkpt lat="45.34849514253437519073486328125" lon="-71.00636576302349567413330078125">
        <ele>892.4000244140625</ele>
        <time>2026-08-21T19:36:19.000Z</time>
        <extensions>
          <ns3:TrackPointExtension>
            <ns3:hr>140</ns3:hr>
            <ns3:cad>0</ns3:cad>
          </ns3:TrackPointExtension>
        </extensions>
      </trkpt>
      <trkpt lat="45.34849380142986774444580078125" lon="-71.00637531839311122894287109375">
        <ele>892.5999755859375</ele>
        <time>2026-08-21T19:36:20.000Z</time>
        <extensions>
          <ns3:TrackPointExtension>
            <ns3:hr>140</ns3:hr>
            <ns3:cad>0</ns3:cad>
          </ns3:TrackPointExtension>
        </extensions>
      </trkpt>
      <trkpt lat="45.34849296323955059051513671875" lon="-71.0063799284398555755615234375">
        <ele>892.79998779296875</ele>
        <time>2026-08-21T19:36:21.000Z</time>
        <extensions>
          <ns3:TrackPointExtension>
            <ns3:hr>140</ns3:hr>
            <ns3:cad>0</ns3:cad>
          </ns3:TrackPointExtension>
        </extensions>
      </trkpt>
      <trkpt lat="45.3484868444502353668212890625" lon="-71.0063876397907733917236328125">
        <ele>893</ele>
        <time>2026-08-21T19:36:22.000Z</time>
        <extensions>
          <ns3:TrackPointExtension>
            <ns3:hr>140</ns3:hr>
            <ns3:cad>0</ns3:cad>
          </ns3:TrackPointExtension>
        </extensions>
      </trkpt>
      <trkpt lat="45.34848474897444248199462890625" lon="-71.006391160190105438232421875">
        <ele>893.20001220703125</ele>
        <time>2026-08-21T19:36:23.000Z</time>
        <extensions>
          <ns3:TrackPointExtension>
            <ns3:hr>140</ns3:hr>
            <ns3:cad>0</ns3:cad>
          </ns3:TrackPointExtension>
        </extensions>
      </trkpt>
      <trkpt lat="45.34847921691834926605224609375" lon="-71.00640155375003814697265625">
        <ele>893.4000244140625</ele>
        <time>2026-08-21T19:36:24.000Z</time>
        <extensions>
          <ns3:TrackPointExtension>
            <ns3:hr>140</ns3:hr>
            <ns3:cad>0</ns3:cad>
          </ns3:TrackPointExtension>
        </extensions>
      </trkpt>
      <trkpt lat="45.34847863018512725830078125" lon="-71.00640415214002132415771484375">
        <ele>893.4000244140625</ele>
        <time>2026-08-21T19:36:25.000Z</time>
        <extensions>
          <ns3:TrackPointExtension>
            <ns3:hr>140</ns3:hr>
            <ns3:cad>0</ns3:cad>
          </ns3:TrackPointExtension>
        </extensions>
      </trkpt>
      <trkpt lat="45.34847519360482692718505859375" lon="-71.0064127855002880096435546875">
        <ele>893.79998779296875</ele>
        <time>2026-08-21T19:36:26.000Z</time>
        <extensions>
          <ns3:TrackPointExtension>
            <ns3:hr>140</ns3:hr>
            <ns3:cad>0</ns3:cad>
          </ns3:TrackPointExtension>
        </extensions>
      </trkpt>
      <trkpt lat="45.348476283252239227294921875" lon="-71.0064209997653961181640625">
        <ele>894</ele>
        <time>2026-08-21T19:36:27.000Z</time>
        <extensions>
          <ns3:TrackPointExtension>
            <ns3:hr>140</ns3:hr>
            <ns3:cad>0</ns3:cad>
          </ns3:TrackPointExtension>
        </extensions>
      </trkpt>
      <trkpt lat="45.348471589386463165283203125" lon="-71.00642896257340908050537109375">
        <ele>894.20001220703125</ele>
        <time>2026-08-21T19:36:28.000Z</time>
        <extensions>
          <ns3:TrackPointExtension>
            <ns3:hr>139</ns3:hr>
            <ns3:cad>0</ns3:cad>
          </ns3:TrackPointExtension>
        </extensions>
      </trkpt>
      <trkpt lat="45.3484739363193511962890625" lon="-71.00642502307891845703125">
        <ele>894.4000244140625</ele>
        <time>2026-08-21T19:36:29.000Z</time>
        <extensions>
          <ns3:TrackPointExtension>
            <ns3:hr>139</ns3:hr>
            <ns3:cad>0</ns3:cad>
          </ns3:TrackPointExtension>
        </extensions>
      </trkpt>
      <trkpt lat="45.3484680689871311187744140625" lon="-71.006440110504627227783203125">
        <ele>894.5999755859375</ele>
        <time>2026-08-21T19:36:30.000Z</time>
        <extensions>
          <ns3:TrackPointExtension>
            <ns3:hr>139</ns3:hr>
            <ns3:cad>0</ns3:cad>
          </ns3:TrackPointExtension>
        </extensions>
      </trkpt>
      <trkpt lat="45.34846647642552852630615234375" lon="-71.00644974969327449798583984375">
        <ele>894.79998779296875</ele>
        <time>2026-08-21T19:36:31.000Z</time>
        <extensions>
          <ns3:TrackPointExtension>
            <ns3:hr>139</ns3:hr>
            <ns3:cad>0</ns3:cad>
          </ns3:TrackPointExtension>
        </extensions>
      </trkpt>
      <trkpt lat="45.34845985472202301025390625" lon="-71.00646299310028553009033203125">
        <ele>895</ele>
        <time>2026-08-21T19:36:32.000Z</time>
        <extensions>
          <ns3:TrackPointExtension>
            <ns3:hr>140</ns3:hr>
            <ns3:cad>0</ns3:cad>
          </ns3:TrackPointExtension>
        </extensions>
      </trkpt>
      <trkpt lat="45.34845708869397640228271484375" lon="-71.006472297012805938720703125">
        <ele>895.20001220703125</ele>
        <time>2026-08-21T19:36:33.000Z</time>
        <extensions>
          <ns3:TrackPointExtension>
            <ns3:hr>139</ns3:hr>
            <ns3:cad>0</ns3:cad>
          </ns3:TrackPointExtension>
        </extensions>
      </trkpt>
      <trkpt lat="45.34845524467527866363525390625" lon="-71.0064734704792499542236328125">
        <ele>895.4000244140625</ele>
        <time>2026-08-21T19:36:34.000Z</time>
        <extensions>
          <ns3:TrackPointExtension>
            <ns3:hr>139</ns3:hr>
            <ns3:cad>0</ns3:cad>
          </ns3:TrackPointExtension>
        </extensions>
      </trkpt>
      <trkpt lat="45.34844837151467800140380859375" lon="-71.0064805112779140472412109375">
        <ele>895.5999755859375</ele>
        <time>2026-08-21T19:36:35.000Z</time>
        <extensions>
          <ns3:TrackPointExtension>
            <ns3:hr>139</ns3:hr>
            <ns3:cad>0</ns3:cad>
          </ns3:TrackPointExtension>
        </extensions>
      </trkpt>
      <trkpt lat="45.3484486229717731475830078125" lon="-71.0064845345914363861083984375">
        <ele>895.79998779296875</ele>
        <time>2026-08-21T19:36:36.000Z</time>
        <extensions>
          <ns3:TrackPointExtension>
            <ns3:hr>138</ns3:hr>
            <ns3:cad>0</ns3:cad>
          </ns3:TrackPointExtension>
        </extensions>
      </trkpt>
      <trkpt lat="45.3484419174492359161376953125" lon="-71.00649367086589336395263671875">
        <ele>896</ele>
        <time>2026-08-21T19:36:37.000Z</time>
        <extensions>
          <ns3:TrackPointExtension>
            <ns3:hr>138</ns3:hr>
            <ns3:cad>0</ns3:cad>
          </ns3:TrackPointExtension>
        </extensions>
      </trkpt>
      <trkpt lat="45.348438061773777008056640625" lon="-71.00650071166455745697021484375">
        <ele>896.20001220703125</ele>
        <time>2026-08-21T19:36:38.000Z</time>
        <extensions>
          <ns3:TrackPointExtension>
            <ns3:hr>138</ns3:hr>
            <ns3:cad>0</ns3:cad>
          </ns3:TrackPointExtension>
        </extensions>
      </trkpt>
      <trkpt lat="45.34843169152736663818359375" lon="-71.006505824625492095947265625">
        <ele>896.4000244140625</ele>
        <time>2026-08-21T19:36:39.000Z</time>
        <extensions>
          <ns3:TrackPointExtension>
            <ns3:hr>138</ns3:hr>
            <ns3:cad>0</ns3:cad>
          </ns3:TrackPointExtension>
        </extensions>
      </trkpt>
      <trkpt lat="45.3484228067100048065185546875" lon="-71.00651244632899761199951171875">
        <ele>896.5999755859375</ele>
        <time>2026-08-21T19:36:40.000Z</time>
        <extensions>
          <ns3:TrackPointExtension>
            <ns3:hr>139</ns3:hr>
            <ns3:cad>0</ns3:cad>
          </ns3:TrackPointExtension>
        </extensions>
      </trkpt>
      <trkpt lat="45.34841551445424556732177734375" lon="-71.00652317516505718231201171875">
        <ele>896.5999755859375</ele>
        <time>2026-08-21T19:36:41.000Z</time>
        <extensions>
          <ns3:TrackPointExtension>
            <ns3:hr>139</ns3:hr>
            <ns3:cad>0</ns3:cad>
          </ns3:TrackPointExtension>
        </extensions>
      </trkpt>
      <trkpt lat="45.34841333515942096710205078125" lon="-71.0065257735550403594970703125">
        <ele>896.79998779296875</ele>
        <time>2026-08-21T19:36:42.000Z</time>
        <extensions>
          <ns3:TrackPointExtension>
            <ns3:hr>139</ns3:hr>
            <ns3:cad>0</ns3:cad>
          </ns3:TrackPointExtension>
        </extensions>
      </trkpt>
      <trkpt lat="45.3484063781797885894775390625" lon="-71.0065338201820850372314453125">
        <ele>897</ele>
        <time>2026-08-21T19:36:43.000Z</time>
        <extensions>
          <ns3:TrackPointExtension>
            <ns3:hr>140</ns3:hr>
            <ns3:cad>0</ns3:cad>
          </ns3:TrackPointExtension>
        </extensions>
      </trkpt>
      <trkpt lat="45.34840411506593227386474609375" lon="-71.00654949434101581573486328125">
        <ele>897.20001220703125</ele>
        <time>2026-08-21T19:36:44.000Z</time>
        <extensions>
          <ns3:TrackPointExtension>
            <ns3:hr>140</ns3:hr>
            <ns3:cad>0</ns3:cad>
          </ns3:TrackPointExtension>
        </extensions>
      </trkpt>
      <trkpt lat="45.348405875265598297119140625" lon="-71.00655117072165012359619140625">
        <ele>897.5999755859375</ele>
        <time>2026-08-21T19:36:45.000Z</time>
        <extensions>
          <ns3:TrackPointExtension>
            <ns3:hr>140</ns3:hr>
            <ns3:cad>0</ns3:cad>
          </ns3:TrackPointExtension>
        </extensions>
      </trkpt>
      <trkpt lat="45.34839958883821964263916015625" lon="-71.00656248629093170166015625">
        <ele>897.79998779296875</ele>
        <time>2026-08-21T19:36:46.000Z</time>
        <extensions>
          <ns3:TrackPointExtension>
            <ns3:hr>140</ns3:hr>
            <ns3:cad>0</ns3:cad>
          </ns3:TrackPointExtension>
        </extensions>
      </trkpt>
      <trkpt lat="45.3483976610004901885986328125" lon="-71.00656776688992977142333984375">
        <ele>897.79998779296875</ele>
        <time>2026-08-21T19:36:47.000Z</time>
        <extensions>
          <ns3:TrackPointExtension>
            <ns3:hr>140</ns3:hr>
            <ns3:cad>0</ns3:cad>
          </ns3:TrackPointExtension>
        </extensions>
      </trkpt>
      <trkpt lat="45.3483939729630947113037109375" lon="-71.006575562059879302978515625">
        <ele>898</ele>
        <time>2026-08-21T19:36:48.000Z</time>
        <extensions>
          <ns3:TrackPointExtension>
            <ns3:hr>140</ns3:hr>
            <ns3:cad>0</ns3:cad>
          </ns3:TrackPointExtension>
        </extensions>
      </trkpt>
      <trkpt lat="45.34838416613638401031494140625" lon="-71.00658101029694080352783203125">
        <ele>898.4000244140625</ele>
        <time>2026-08-21T19:36:49.000Z</time>
        <extensions>
          <ns3:TrackPointExtension>
            <ns3:hr>140</ns3:hr>
            <ns3:cad>0</ns3:cad>
          </ns3:TrackPointExtension>
        </extensions>
      </trkpt>
      <trkpt lat="45.34837880171835422515869140625" lon="-71.00658670999109745025634765625">
        <ele>898.5999755859375</ele>
        <time>2026-08-21T19:36:50.000Z</time>
        <extensions>
          <ns3:TrackPointExtension>
            <ns3:hr>140</ns3:hr>
            <ns3:cad>0</ns3:cad>
          </ns3:TrackPointExtension>
        </extensions>
      </trkpt>
      <trkpt lat="45.34837310202419757843017578125" lon="-71.00659626536071300506591796875">
        <ele>898.79998779296875</ele>
        <time>2026-08-21T19:36:51.000Z</time>
        <extensions>
          <ns3:TrackPointExtension>
            <ns3:hr>140</ns3:hr>
            <ns3:cad>0</ns3:cad>
          </ns3:TrackPointExtension>
        </extensions>
      </trkpt>
      <trkpt lat="45.34836606122553348541259765625" lon="-71.00660565309226512908935546875">
        <ele>899</ele>
        <time>2026-08-21T19:36:52.000Z</time>
        <extensions>
          <ns3:TrackPointExtension>
            <ns3:hr>140</ns3:hr>
            <ns3:cad>0</ns3:cad>
          </ns3:TrackPointExtension>
        </extensions>
      </trkpt>
      <trkpt lat="45.34836220555007457733154296875" lon="-71.0066095925867557525634765625">
        <ele>899</ele>
        <time>2026-08-21T19:36:53.000Z</time>
        <extensions>
          <ns3:TrackPointExtension>
            <ns3:hr>140</ns3:hr>
            <ns3:cad>0</ns3:cad>
          </ns3:TrackPointExtension>
        </extensions>
      </trkpt>
      <trkpt lat="45.348356254398822784423828125" lon="-71.0066183097660541534423828125">
        <ele>899.20001220703125</ele>
        <time>2026-08-21T19:36:54.000Z</time>
        <extensions>
          <ns3:TrackPointExtension>
            <ns3:hr>140</ns3:hr>
            <ns3:cad>0</ns3:cad>
          </ns3:TrackPointExtension>
        </extensions>
      </trkpt>
      <trkpt lat="45.34835265018045902252197265625" lon="-71.0066233389079570770263671875">
        <ele>899.4000244140625</ele>
        <time>2026-08-21T19:36:55.000Z</time>
        <extensions>
          <ns3:TrackPointExtension>
            <ns3:hr>140</ns3:hr>
            <ns3:cad>0</ns3:cad>
          </ns3:TrackPointExtension>
        </extensions>
      </trkpt>
      <trkpt lat="45.34834711812436580657958984375" lon="-71.0066297091543674468994140625">
        <ele>899.5999755859375</ele>
        <time>2026-08-21T19:36:56.000Z</time>
        <extensions>
          <ns3:TrackPointExtension>
            <ns3:hr>140</ns3:hr>
            <ns3:cad>0</ns3:cad>
          </ns3:TrackPointExtension>
        </extensions>
      </trkpt>
      <trkpt lat="45.3483436815440654754638671875" lon="-71.00663281045854091644287109375">
        <ele>899.79998779296875</ele>
        <time>2026-08-21T19:36:57.000Z</time>
        <extensions>
          <ns3:TrackPointExtension>
            <ns3:hr>140</ns3:hr>
            <ns3:cad>0</ns3:cad>
          </ns3:TrackPointExtension>
        </extensions>
      </trkpt>
      <trkpt lat="45.34833773039281368255615234375" lon="-71.0066434554755687713623046875">
        <ele>900</ele>
        <time>2026-08-21T19:36:58.000Z</time>
        <extensions>
          <ns3:TrackPointExtension>
            <ns3:hr>140</ns3:hr>
            <ns3:cad>0</ns3:cad>
          </ns3:TrackPointExtension>
        </extensions>
      </trkpt>
      <trkpt lat="45.3483346290886402130126953125" lon="-71.00664907135069370269775390625">
        <ele>900.20001220703125</ele>
        <time>2026-08-21T19:36:59.000Z</time>
        <extensions>
          <ns3:TrackPointExtension>
            <ns3:hr>139</ns3:hr>
            <ns3:cad>0</ns3:cad>
          </ns3:TrackPointExtension>
        </extensions>
      </trkpt>
      <trkpt lat="45.3483275882899761199951171875" lon="-71.00665275938808917999267578125">
        <ele>900.4000244140625</ele>
        <time>2026-08-21T19:37:00.000Z</time>
        <extensions>
          <ns3:TrackPointExtension>
            <ns3:hr>139</ns3:hr>
            <ns3:cad>0</ns3:cad>
          </ns3:TrackPointExtension>
        </extensions>
      </trkpt>
      <trkpt lat="45.3483252413570880889892578125" lon="-71.00665493868291378021240234375">
        <ele>900.5999755859375</ele>
        <time>2026-08-21T19:37:01.000Z</time>
        <extensions>
          <ns3:TrackPointExtension>
            <ns3:hr>139</ns3:hr>
            <ns3:cad>0</ns3:cad>
          </ns3:TrackPointExtension>
        </extensions>
      </trkpt>
      <trkpt lat="45.348316021263599395751953125" lon="-71.0066592134535312652587890625">
        <ele>900.79998779296875</ele>
        <time>2026-08-21T19:37:02.000Z</time>
        <extensions>
          <ns3:TrackPointExtension>
            <ns3:hr>139</ns3:hr>
            <ns3:cad>0</ns3:cad>
          </ns3:TrackPointExtension>
        </extensions>
      </trkpt>
      <trkpt lat="45.3483114950358867645263671875" lon="-71.006658375263214111328125">
        <ele>901</ele>
        <time>2026-08-21T19:37:03.000Z</time>
        <extensions>
          <ns3:TrackPointExtension>
            <ns3:hr>138</ns3:hr>
            <ns3:cad>0</ns3:cad>
          </ns3:TrackPointExtension>
        </extensions>
      </trkpt>
      <trkpt lat="45.34830856136977672576904296875" lon="-71.0066585429012775421142578125">
        <ele>901.20001220703125</ele>
        <time>2026-08-21T19:37:04.000Z</time>
        <extensions>
          <ns3:TrackPointExtension>
            <ns3:hr>138</ns3:hr>
            <ns3:cad>0</ns3:cad>
          </ns3:TrackPointExtension>
        </extensions>
      </trkpt>
      <trkpt lat="45.348297245800495147705078125" lon="-71.00665904581546783447265625">
        <ele>901.4000244140625</ele>
        <time>2026-08-21T19:37:05.000Z</time>
        <extensions>
          <ns3:TrackPointExtension>
            <ns3:hr>138</ns3:hr>
            <ns3:cad>0</ns3:cad>
          </ns3:TrackPointExtension>
        </extensions>
      </trkpt>
      <trkpt lat="45.3482930548489093780517578125" lon="-71.00666332058608531951904296875">
        <ele>901.5999755859375</ele>
        <time>2026-08-21T19:37:06.000Z</time>
        <extensions>
          <ns3:TrackPointExtension>
            <ns3:hr>138</ns3:hr>
            <ns3:cad>0</ns3:cad>
          </ns3:TrackPointExtension>
        </extensions>
      </trkpt>
      <trkpt lat="45.34828676842153072357177734375" lon="-71.00666549988090991973876953125">
        <ele>901.79998779296875</ele>
        <time>2026-08-21T19:37:07.000Z</time>
        <extensions>
          <ns3:TrackPointExtension>
            <ns3:hr>137</ns3:hr>
            <ns3:cad>0</ns3:cad>
          </ns3:TrackPointExtension>
        </extensions>
      </trkpt>
      <trkpt lat="45.3482759557664394378662109375" lon="-71.0066686011850833892822265625">
        <ele>901.79998779296875</ele>
        <time>2026-08-21T19:37:08.000Z</time>
        <extensions>
          <ns3:TrackPointExtension>
            <ns3:hr>138</ns3:hr>
            <ns3:cad>0</ns3:cad>
          </ns3:TrackPointExtension>
        </extensions>
      </trkpt>
      <trkpt lat="45.34826765768229961395263671875" lon="-71.0066689364612102508544921875">
        <ele>902</ele>
        <time>2026-08-21T19:37:09.000Z</time>
        <extensions>
          <ns3:TrackPointExtension>
            <ns3:hr>138</ns3:hr>
            <ns3:cad>0</ns3:cad>
          </ns3:TrackPointExtension>
        </extensions>
      </trkpt>
      <trkpt lat="45.34825868904590606689453125" lon="-71.00667337886989116668701171875">
        <ele>902.20001220703125</ele>
        <time>2026-08-21T19:37:10.000Z</time>
        <extensions>
          <ns3:TrackPointExtension>
            <ns3:hr>138</ns3:hr>
            <ns3:cad>0</ns3:cad>
          </ns3:TrackPointExtension>
        </extensions>
      </trkpt>
      <trkpt lat="45.3482511453330516815185546875" lon="-71.00668209604918956756591796875">
        <ele>902.20001220703125</ele>
        <time>2026-08-21T19:37:11.000Z</time>
        <extensions>
          <ns3:TrackPointExtension>
            <ns3:hr>139</ns3:hr>
            <ns3:cad>0</ns3:cad>
          </ns3:TrackPointExtension>
        </extensions>
      </trkpt>
      <trkpt lat="45.34824125468730926513671875" lon="-71.0066890530288219451904296875">
        <ele>902.4000244140625</ele>
        <time>2026-08-21T19:37:12.000Z</time>
        <extensions>
          <ns3:TrackPointExtension>
            <ns3:hr>139</ns3:hr>
            <ns3:cad>0</ns3:cad>
          </ns3:TrackPointExtension>
        </extensions>
      </trkpt>
      <trkpt lat="45.3482343815267086029052734375" lon="-71.00669483654201030731201171875">
        <ele>902.5999755859375</ele>
        <time>2026-08-21T19:37:13.000Z</time>
        <extensions>
          <ns3:TrackPointExtension>
            <ns3:hr>139</ns3:hr>
            <ns3:cad>0</ns3:cad>
          </ns3:TrackPointExtension>
        </extensions>
      </trkpt>
      <trkpt lat="45.348231531679630279541015625" lon="-71.0066960938274860382080078125">
        <ele>902.79998779296875</ele>
        <time>2026-08-21T19:37:14.000Z</time>
        <extensions>
          <ns3:TrackPointExtension>
            <ns3:hr>139</ns3:hr>
            <ns3:cad>41</ns3:cad>
          </ns3:TrackPointExtension>
        </extensions>
      </trkpt>
      <trkpt lat="45.3482244908809661865234375" lon="-71.00669793784618377685546875">
        <ele>903</ele>
        <time>2026-08-21T19:37:15.000Z</time>
        <extensions>
          <ns3:TrackPointExtension>
            <ns3:hr>138</ns3:hr>
            <ns3:cad>41</ns3:cad>
          </ns3:TrackPointExtension>
        </extensions>
      </trkpt>
      <trkpt lat="45.3482202999293804168701171875" lon="-71.006700955331325531005859375">
        <ele>903.20001220703125</ele>
        <time>2026-08-21T19:37:16.000Z</time>
        <extensions>
          <ns3:TrackPointExtension>
            <ns3:hr>138</ns3:hr>
            <ns3:cad>41</ns3:cad>
          </ns3:TrackPointExtension>
        </extensions>
      </trkpt>
      <trkpt lat="45.3482105769217014312744140625" lon="-71.00670120678842067718505859375">
        <ele>903.4000244140625</ele>
        <time>2026-08-21T19:37:17.000Z</time>
        <extensions>
          <ns3:TrackPointExtension>
            <ns3:hr>139</ns3:hr>
            <ns3:cad>0</ns3:cad>
          </ns3:TrackPointExtension>
        </extensions>
      </trkpt>
      <trkpt lat="45.3482082299888134002685546875" lon="-71.00670187734067440032958984375">
        <ele>903.5999755859375</ele>
        <time>2026-08-21T19:37:18.000Z</time>
        <extensions>
          <ns3:TrackPointExtension>
            <ns3:hr>139</ns3:hr>
            <ns3:cad>0</ns3:cad>
          </ns3:TrackPointExtension>
        </extensions>
      </trkpt>
      <trkpt lat="45.3482042066752910614013671875" lon="-71.00670724175870418548583984375">
        <ele>903.79998779296875</ele>
        <time>2026-08-21T19:37:19.000Z</time>
        <extensions>
          <ns3:TrackPointExtension>
            <ns3:hr>139</ns3:hr>
            <ns3:cad>0</ns3:cad>
          </ns3:TrackPointExtension>
        </extensions>
      </trkpt>
      <trkpt lat="45.34819833934307098388671875" lon="-71.0067098401486873626708984375">
        <ele>903.79998779296875</ele>
        <time>2026-08-21T19:37:20.000Z</time>
        <extensions>
          <ns3:TrackPointExtension>
            <ns3:hr>138</ns3:hr>
            <ns3:cad>0</ns3:cad>
          </ns3:TrackPointExtension>
        </extensions>
      </trkpt>
      <trkpt lat="45.34819439984858036041259765625" lon="-71.00671294145286083221435546875">
        <ele>904</ele>
        <time>2026-08-21T19:37:21.000Z</time>
        <extensions>
          <ns3:TrackPointExtension>
            <ns3:hr>138</ns3:hr>
            <ns3:cad>0</ns3:cad>
          </ns3:TrackPointExtension>
        </extensions>
      </trkpt>
      <trkpt lat="45.34818761050701141357421875" lon="-71.0067162103950977325439453125">
        <ele>904.20001220703125</ele>
        <time>2026-08-21T19:37:22.000Z</time>
        <extensions>
          <ns3:TrackPointExtension>
            <ns3:hr>138</ns3:hr>
            <ns3:cad>0</ns3:cad>
          </ns3:TrackPointExtension>
        </extensions>
      </trkpt>
      <trkpt lat="45.3481763787567615509033203125" lon="-71.00672450847923755645751953125">
        <ele>904.4000244140625</ele>
        <time>2026-08-21T19:37:23.000Z</time>
        <extensions>
          <ns3:TrackPointExtension>
            <ns3:hr>138</ns3:hr>
            <ns3:cad>0</ns3:cad>
          </ns3:TrackPointExtension>
        </extensions>
      </trkpt>
      <trkpt lat="45.3481733612716197967529296875" lon="-71.00673104636371135711669921875">
        <ele>904.5999755859375</ele>
        <time>2026-08-21T19:37:24.000Z</time>
        <extensions>
          <ns3:TrackPointExtension>
            <ns3:hr>138</ns3:hr>
            <ns3:cad>0</ns3:cad>
          </ns3:TrackPointExtension>
        </extensions>
      </trkpt>
      <trkpt lat="45.348161123692989349365234375" lon="-71.00673439912497997283935546875">
        <ele>904.5999755859375</ele>
        <time>2026-08-21T19:37:25.000Z</time>
        <extensions>
          <ns3:TrackPointExtension>
            <ns3:hr>139</ns3:hr>
            <ns3:cad>0</ns3:cad>
          </ns3:TrackPointExtension>
        </extensions>
      </trkpt>
      <trkpt lat="45.34814829938113689422607421875" lon="-71.00674076937139034271240234375">
        <ele>904.79998779296875</ele>
        <time>2026-08-21T19:37:26.000Z</time>
        <extensions>
          <ns3:TrackPointExtension>
            <ns3:hr>139</ns3:hr>
            <ns3:cad>44</ns3:cad>
          </ns3:TrackPointExtension>
        </extensions>
      </trkpt>
      <trkpt lat="45.348141677677631378173828125" lon="-71.00674428977072238922119140625">
        <ele>905</ele>
        <time>2026-08-21T19:37:27.000Z</time>
        <extensions>
          <ns3:TrackPointExtension>
            <ns3:hr>138</ns3:hr>
            <ns3:cad>44</ns3:cad>
          </ns3:TrackPointExtension>
        </extensions>
      </trkpt>
      <trkpt lat="45.34813304431736469268798828125" lon="-71.00674487650394439697265625">
        <ele>905.20001220703125</ele>
        <time>2026-08-21T19:37:28.000Z</time>
        <extensions>
          <ns3:TrackPointExtension>
            <ns3:hr>138</ns3:hr>
            <ns3:cad>44</ns3:cad>
          </ns3:TrackPointExtension>
        </extensions>
      </trkpt>
      <trkpt lat="45.348122231662273406982421875" lon="-71.00674211047589778900146484375">
        <ele>905.20001220703125</ele>
        <time>2026-08-21T19:37:29.000Z</time>
        <extensions>
          <ns3:TrackPointExtension>
            <ns3:hr>138</ns3:hr>
            <ns3:cad>44</ns3:cad>
          </ns3:TrackPointExtension>
        </extensions>
      </trkpt>
      <trkpt lat="45.34811058081686496734619140625" lon="-71.0067359916865825653076171875">
        <ele>905.4000244140625</ele>
        <time>2026-08-21T19:37:30.000Z</time>
        <extensions>
          <ns3:TrackPointExtension>
            <ns3:hr>138</ns3:hr>
            <ns3:cad>44</ns3:cad>
          </ns3:TrackPointExtension>
        </extensions>
      </trkpt>
      <trkpt lat="45.34809834323823451995849609375" lon="-71.006732471287250518798828125">
        <ele>905.4000244140625</ele>
        <time>2026-08-21T19:37:31.000Z</time>
        <extensions>
          <ns3:TrackPointExtension>
            <ns3:hr>138</ns3:hr>
            <ns3:cad>44</ns3:cad>
          </ns3:TrackPointExtension>
        </extensions>
      </trkpt>
      <trkpt lat="45.3480908833444118499755859375" lon="-71.006731130182743072509765625">
        <ele>905.4000244140625</ele>
        <time>2026-08-21T19:37:32.000Z</time>
        <extensions>
          <ns3:TrackPointExtension>
            <ns3:hr>138</ns3:hr>
            <ns3:cad>44</ns3:cad>
          </ns3:TrackPointExtension>
        </extensions>
      </trkpt>
      <trkpt lat="45.3480818308889865875244140625" lon="-71.0067255981266498565673828125">
        <ele>905.4000244140625</ele>
        <time>2026-08-21T19:37:33.000Z</time>
        <extensions>
          <ns3:TrackPointExtension>
            <ns3:hr>137</ns3:hr>
            <ns3:cad>45</ns3:cad>
          </ns3:TrackPointExtension>
        </extensions>
      </trkpt>
      <trkpt lat="45.34807118587195873260498046875" lon="-71.00672417320311069488525390625">
        <ele>905.4000244140625</ele>
        <time>2026-08-21T19:37:34.000Z</time>
        <extensions>
          <ns3:TrackPointExtension>
            <ns3:hr>137</ns3:hr>
            <ns3:cad>45</ns3:cad>
          </ns3:TrackPointExtension>
        </extensions>
      </trkpt>
      <trkpt lat="45.3480627201497554779052734375" lon="-71.00672132335603237152099609375">
        <ele>905.4000244140625</ele>
        <time>2026-08-21T19:37:35.000Z</time>
        <extensions>
          <ns3:TrackPointExtension>
            <ns3:hr>137</ns3:hr>
            <ns3:cad>45</ns3:cad>
          </ns3:TrackPointExtension>
        </extensions>
      </trkpt>
      <trkpt lat="45.34804788418114185333251953125" lon="-71.00671671330928802490234375">
        <ele>905.4000244140625</ele>
        <time>2026-08-21T19:37:36.000Z</time>
        <extensions>
          <ns3:TrackPointExtension>
            <ns3:hr>137</ns3:hr>
            <ns3:cad>49</ns3:cad>
          </ns3:TrackPointExtension>
        </extensions>
      </trkpt>
      <trkpt lat="45.3480340540409088134765625" lon="-71.0067192278802394866943359375">
        <ele>905.4000244140625</ele>
        <time>2026-08-21T19:37:37.000Z</time>
        <extensions>
          <ns3:TrackPointExtension>
            <ns3:hr>138</ns3:hr>
            <ns3:cad>49</ns3:cad>
          </ns3:TrackPointExtension>
        </extensions>
      </trkpt>
      <trkpt lat="45.34802265465259552001953125" lon="-71.00672417320311069488525390625">
        <ele>905.5999755859375</ele>
        <time>2026-08-21T19:37:38.000Z</time>
        <extensions>
          <ns3:TrackPointExtension>
            <ns3:hr>138</ns3:hr>
            <ns3:cad>49</ns3:cad>
          </ns3:TrackPointExtension>
        </extensions>
      </trkpt>
      <trkpt lat="45.34800924360752105712890625" lon="-71.0067209042608737945556640625">
        <ele>905.79998779296875</ele>
        <time>2026-08-21T19:37:39.000Z</time>
        <extensions>
          <ns3:TrackPointExtension>
            <ns3:hr>138</ns3:hr>
            <ns3:cad>51</ns3:cad>
          </ns3:TrackPointExtension>
        </extensions>
      </trkpt>
      <trkpt lat="45.3479943238198757171630859375" lon="-71.0067192278802394866943359375">
        <ele>905.79998779296875</ele>
        <time>2026-08-21T19:37:40.000Z</time>
        <extensions>
          <ns3:TrackPointExtension>
            <ns3:hr>137</ns3:hr>
            <ns3:cad>51</ns3:cad>
          </ns3:TrackPointExtension>
        </extensions>
      </trkpt>
      <trkpt lat="45.34797999076545238494873046875" lon="-71.006720401346683502197265625">
        <ele>906</ele>
        <time>2026-08-21T19:37:41.000Z</time>
        <extensions>
          <ns3:TrackPointExtension>
            <ns3:hr>137</ns3:hr>
            <ns3:cad>51</ns3:cad>
          </ns3:TrackPointExtension>
        </extensions>
      </trkpt>
      <trkpt lat="45.347967334091663360595703125" lon="-71.0067272745072841644287109375">
        <ele>906.20001220703125</ele>
        <time>2026-08-21T19:37:42.000Z</time>
        <extensions>
          <ns3:TrackPointExtension>
            <ns3:hr>137</ns3:hr>
            <ns3:cad>51</ns3:cad>
          </ns3:TrackPointExtension>
        </extensions>
      </trkpt>
      <trkpt lat="45.347957611083984375" lon="-71.006729789078235626220703125">
        <ele>906.20001220703125</ele>
        <time>2026-08-21T19:37:43.000Z</time>
        <extensions>
          <ns3:TrackPointExtension>
            <ns3:hr>136</ns3:hr>
            <ns3:cad>51</ns3:cad>
          </ns3:TrackPointExtension>
        </extensions>
      </trkpt>
      <trkpt lat="45.34794830717146396636962890625" lon="-71.00673205219209194183349609375">
        <ele>906.20001220703125</ele>
        <time>2026-08-21T19:37:44.000Z</time>
        <extensions>
          <ns3:TrackPointExtension>
            <ns3:hr>136</ns3:hr>
            <ns3:cad>51</ns3:cad>
          </ns3:TrackPointExtension>
        </extensions>
      </trkpt>
      <trkpt lat="45.34793841652572154998779296875" lon="-71.00673154927790164947509765625">
        <ele>906.4000244140625</ele>
        <time>2026-08-21T19:37:45.000Z</time>
        <extensions>
          <ns3:TrackPointExtension>
            <ns3:hr>136</ns3:hr>
            <ns3:cad>51</ns3:cad>
          </ns3:TrackPointExtension>
        </extensions>
      </trkpt>
      <trkpt lat="45.34792969934642314910888671875" lon="-71.0067373327910900115966796875">
        <ele>906.5999755859375</ele>
        <time>2026-08-21T19:37:46.000Z</time>
        <extensions>
          <ns3:TrackPointExtension>
            <ns3:hr>136</ns3:hr>
            <ns3:cad>51</ns3:cad>
          </ns3:TrackPointExtension>
        </extensions>
      </trkpt>
      <trkpt lat="45.347919054329395294189453125" lon="-71.006742529571056365966796875">
        <ele>906.5999755859375</ele>
        <time>2026-08-21T19:37:47.000Z</time>
        <extensions>
          <ns3:TrackPointExtension>
            <ns3:hr>136</ns3:hr>
            <ns3:cad>51</ns3:cad>
          </ns3:TrackPointExtension>
        </extensions>
      </trkpt>
      <trkpt lat="45.34791327081620693206787109375" lon="-71.0067530907690525054931640625">
        <ele>906.79998779296875</ele>
        <time>2026-08-21T19:37:48.000Z</time>
        <extensions>
          <ns3:TrackPointExtension>
            <ns3:hr>135</ns3:hr>
            <ns3:cad>51</ns3:cad>
          </ns3:TrackPointExtension>
        </extensions>
      </trkpt>
      <trkpt lat="45.3479079902172088623046875" lon="-71.00675954483449459075927734375">
        <ele>907</ele>
        <time>2026-08-21T19:37:49.000Z</time>
        <extensions>
          <ns3:TrackPointExtension>
            <ns3:hr>134</ns3:hr>
            <ns3:cad>51</ns3:cad>
          </ns3:TrackPointExtension>
        </extensions>
      </trkpt>
      <trkpt lat="45.34790153615176677703857421875" lon="-71.00676759146153926849365234375">
        <ele>907.20001220703125</ele>
        <time>2026-08-21T19:37:50.000Z</time>
        <extensions>
          <ns3:TrackPointExtension>
            <ns3:hr>134</ns3:hr>
            <ns3:cad>0</ns3:cad>
          </ns3:TrackPointExtension>
        </extensions>
      </trkpt>
      <trkpt lat="45.34789147786796092987060546875" lon="-71.006779409945011138916015625">
        <ele>907.4000244140625</ele>
        <time>2026-08-21T19:37:51.000Z</time>
        <extensions>
          <ns3:TrackPointExtension>
            <ns3:hr>134</ns3:hr>
            <ns3:cad>0</ns3:cad>
          </ns3:TrackPointExtension>
        </extensions>
      </trkpt>
      <trkpt lat="45.34788443706929683685302734375" lon="-71.0067879594862461090087890625">
        <ele>907.4000244140625</ele>
        <time>2026-08-21T19:37:52.000Z</time>
        <extensions>
          <ns3:TrackPointExtension>
            <ns3:hr>133</ns3:hr>
            <ns3:cad>0</ns3:cad>
          </ns3:TrackPointExtension>
        </extensions>
      </trkpt>
      <trkpt lat="45.347874127328395843505859375" lon="-71.00679374299943447113037109375">
        <ele>907.5999755859375</ele>
        <time>2026-08-21T19:37:53.000Z</time>
        <extensions>
          <ns3:TrackPointExtension>
            <ns3:hr>133</ns3:hr>
            <ns3:cad>44</ns3:cad>
          </ns3:TrackPointExtension>
        </extensions>
      </trkpt>
      <trkpt lat="45.34786348231136798858642578125" lon="-71.00680212490260601043701171875">
        <ele>907.79998779296875</ele>
        <time>2026-08-21T19:37:54.000Z</time>
        <extensions>
          <ns3:TrackPointExtension>
            <ns3:hr>132</ns3:hr>
            <ns3:cad>44</ns3:cad>
          </ns3:TrackPointExtension>
        </extensions>
      </trkpt>
      <trkpt lat="45.34785342402756214141845703125" lon="-71.00680463947355747222900390625">
        <ele>908</ele>
        <time>2026-08-21T19:37:55.000Z</time>
        <extensions>
          <ns3:TrackPointExtension>
            <ns3:hr>132</ns3:hr>
            <ns3:cad>44</ns3:cad>
          </ns3:TrackPointExtension>
        </extensions>
      </trkpt>
      <trkpt lat="45.34784671850502490997314453125" lon="-71.00680748932063579559326171875">
        <ele>908.20001220703125</ele>
        <time>2026-08-21T19:37:56.000Z</time>
        <extensions>
          <ns3:TrackPointExtension>
            <ns3:hr>131</ns3:hr>
            <ns3:cad>44</ns3:cad>
          </ns3:TrackPointExtension>
        </extensions>
      </trkpt>
      <trkpt lat="45.3478409349918365478515625" lon="-71.00680883042514324188232421875">
        <ele>908.4000244140625</ele>
        <time>2026-08-21T19:37:57.000Z</time>
        <extensions>
          <ns3:TrackPointExtension>
            <ns3:hr>131</ns3:hr>
            <ns3:cad>44</ns3:cad>
          </ns3:TrackPointExtension>
        </extensions>
      </trkpt>
      <trkpt lat="45.34783062525093555450439453125" lon="-71.006815619766712188720703125">
        <ele>908.5999755859375</ele>
        <time>2026-08-21T19:37:58.000Z</time>
        <extensions>
          <ns3:TrackPointExtension>
            <ns3:hr>130</ns3:hr>
            <ns3:cad>44</ns3:cad>
          </ns3:TrackPointExtension>
        </extensions>
      </trkpt>
      <trkpt lat="45.347827859222888946533203125" lon="-71.0068191401660442352294921875">
        <ele>908.79998779296875</ele>
        <time>2026-08-21T19:37:59.000Z</time>
        <extensions>
          <ns3:TrackPointExtension>
            <ns3:hr>130</ns3:hr>
            <ns3:cad>44</ns3:cad>
          </ns3:TrackPointExtension>
        </extensions>
      </trkpt>
      <trkpt lat="45.34782140515744686126708984375" lon="-71.00682576186954975128173828125">
        <ele>909</ele>
        <time>2026-08-21T19:38:00.000Z</time>
        <extensions>
          <ns3:TrackPointExtension>
            <ns3:hr>130</ns3:hr>
            <ns3:cad>44</ns3:cad>
          </ns3:TrackPointExtension>
        </extensions>
      </trkpt>
      <trkpt lat="45.3478119336068630218505859375" lon="-71.00683246739208698272705078125">
        <ele>909.20001220703125</ele>
        <time>2026-08-21T19:38:01.000Z</time>
        <extensions>
          <ns3:TrackPointExtension>
            <ns3:hr>130</ns3:hr>
            <ns3:cad>44</ns3:cad>
          </ns3:TrackPointExtension>
        </extensions>
      </trkpt>
      <trkpt lat="45.34780380316078662872314453125" lon="-71.00683531723916530609130859375">
        <ele>909.4000244140625</ele>
        <time>2026-08-21T19:38:02.000Z</time>
        <extensions>
          <ns3:TrackPointExtension>
            <ns3:hr>130</ns3:hr>
            <ns3:cad>0</ns3:cad>
          </ns3:TrackPointExtension>
        </extensions>
      </trkpt>
      <trkpt lat="45.34779642708599567413330078125" lon="-71.006840765476226806640625">
        <ele>909.5999755859375</ele>
        <time>2026-08-21T19:38:03.000Z</time>
        <extensions>
          <ns3:TrackPointExtension>
            <ns3:hr>130</ns3:hr>
            <ns3:cad>0</ns3:cad>
          </ns3:TrackPointExtension>
        </extensions>
      </trkpt>
      <trkpt lat="45.34778938628733158111572265625" lon="-71.00684688426554203033447265625">
        <ele>909.79998779296875</ele>
        <time>2026-08-21T19:38:04.000Z</time>
        <extensions>
          <ns3:TrackPointExtension>
            <ns3:hr>130</ns3:hr>
            <ns3:cad>0</ns3:cad>
          </ns3:TrackPointExtension>
        </extensions>
      </trkpt>
      <trkpt lat="45.34777631051838397979736328125" lon="-71.00685426034033298492431640625">
        <ele>910</ele>
        <time>2026-08-21T19:38:05.000Z</time>
        <extensions>
          <ns3:TrackPointExtension>
            <ns3:hr>131</ns3:hr>
            <ns3:cad>0</ns3:cad>
          </ns3:TrackPointExtension>
        </extensions>
      </trkpt>
      <trkpt lat="45.34776994027197360992431640625" lon="-71.00686197169125080108642578125">
        <ele>910.20001220703125</ele>
        <time>2026-08-21T19:38:06.000Z</time>
        <extensions>
          <ns3:TrackPointExtension>
            <ns3:hr>130</ns3:hr>
            <ns3:cad>0</ns3:cad>
          </ns3:TrackPointExtension>
        </extensions>
      </trkpt>
      <trkpt lat="45.3477639891207218170166015625" lon="-71.006869263947010040283203125">
        <ele>910.4000244140625</ele>
        <time>2026-08-21T19:38:07.000Z</time>
        <extensions>
          <ns3:TrackPointExtension>
            <ns3:hr>130</ns3:hr>
            <ns3:cad>0</ns3:cad>
          </ns3:TrackPointExtension>
        </extensions>
      </trkpt>
      <trkpt lat="45.3477552719414234161376953125" lon="-71.0068731196224689483642578125">
        <ele>910.5999755859375</ele>
        <time>2026-08-21T19:38:08.000Z</time>
        <extensions>
          <ns3:TrackPointExtension>
            <ns3:hr>130</ns3:hr>
            <ns3:cad>44</ns3:cad>
          </ns3:TrackPointExtension>
        </extensions>
      </trkpt>
      <trkpt lat="45.34774714149534702301025390625" lon="-71.00688007660210132598876953125">
        <ele>910.5999755859375</ele>
        <time>2026-08-21T19:38:09.000Z</time>
        <extensions>
          <ns3:TrackPointExtension>
            <ns3:hr>129</ns3:hr>
            <ns3:cad>44</ns3:cad>
          </ns3:TrackPointExtension>
        </extensions>
      </trkpt>
      <trkpt lat="45.3477363288402557373046875" lon="-71.0068841837346553802490234375">
        <ele>910.79998779296875</ele>
        <time>2026-08-21T19:38:10.000Z</time>
        <extensions>
          <ns3:TrackPointExtension>
            <ns3:hr>129</ns3:hr>
            <ns3:cad>0</ns3:cad>
          </ns3:TrackPointExtension>
        </extensions>
      </trkpt>
      <trkpt lat="45.3477229177951812744140625" lon="-71.006891727447509765625">
        <ele>910.79998779296875</ele>
        <time>2026-08-21T19:38:11.000Z</time>
        <extensions>
          <ns3:TrackPointExtension>
            <ns3:hr>129</ns3:hr>
            <ns3:cad>0</ns3:cad>
          </ns3:TrackPointExtension>
        </extensions>
      </trkpt>
      <trkpt lat="45.34771562553942203521728515625" lon="-71.006898097693920135498046875">
        <ele>911</ele>
        <time>2026-08-21T19:38:12.000Z</time>
        <extensions>
          <ns3:TrackPointExtension>
            <ns3:hr>129</ns3:hr>
            <ns3:cad>0</ns3:cad>
          </ns3:TrackPointExtension>
        </extensions>
      </trkpt>
      <trkpt lat="45.34771017730236053466796875" lon="-71.00691159255802631378173828125">
        <ele>911.20001220703125</ele>
        <time>2026-08-21T19:38:13.000Z</time>
        <extensions>
          <ns3:TrackPointExtension>
            <ns3:hr>129</ns3:hr>
            <ns3:cad>0</ns3:cad>
          </ns3:TrackPointExtension>
        </extensions>
      </trkpt>
      <trkpt lat="45.34770657308399677276611328125" lon="-71.00691494531929492950439453125">
        <ele>911.20001220703125</ele>
        <time>2026-08-21T19:38:14.000Z</time>
        <extensions>
          <ns3:TrackPointExtension>
            <ns3:hr>129</ns3:hr>
            <ns3:cad>41</ns3:cad>
          </ns3:TrackPointExtension>
        </extensions>
      </trkpt>
      <trkpt lat="45.34769668243825435638427734375" lon="-71.006923578679561614990234375">
        <ele>911.20001220703125</ele>
        <time>2026-08-21T19:38:15.000Z</time>
        <extensions>
          <ns3:TrackPointExtension>
            <ns3:hr>130</ns3:hr>
            <ns3:cad>41</ns3:cad>
          </ns3:TrackPointExtension>
        </extensions>
      </trkpt>
      <trkpt lat="45.34768980927765369415283203125" lon="-71.0069274343550205230712890625">
        <ele>911.4000244140625</ele>
        <time>2026-08-21T19:38:16.000Z</time>
        <extensions>
          <ns3:TrackPointExtension>
            <ns3:hr>130</ns3:hr>
            <ns3:cad>41</ns3:cad>
          </ns3:TrackPointExtension>
        </extensions>
      </trkpt>
      <trkpt lat="45.34768008626997470855712890625" lon="-71.0069384984672069549560546875">
        <ele>911.4000244140625</ele>
        <time>2026-08-21T19:38:17.000Z</time>
        <extensions>
          <ns3:TrackPointExtension>
            <ns3:hr>130</ns3:hr>
            <ns3:cad>0</ns3:cad>
          </ns3:TrackPointExtension>
        </extensions>
      </trkpt>
      <trkpt lat="45.3476768173277378082275390625" lon="-71.00694528780877590179443359375">
        <ele>911.5999755859375</ele>
        <time>2026-08-21T19:38:18.000Z</time>
        <extensions>
          <ns3:TrackPointExtension>
            <ns3:hr>130</ns3:hr>
            <ns3:cad>0</ns3:cad>
          </ns3:TrackPointExtension>
        </extensions>
      </trkpt>
      <trkpt lat="45.34767203964293003082275390625" lon="-71.0069552622735500335693359375">
        <ele>911.5999755859375</ele>
        <time>2026-08-21T19:38:19.000Z</time>
        <extensions>
          <ns3:TrackPointExtension>
            <ns3:hr>130</ns3:hr>
            <ns3:cad>0</ns3:cad>
          </ns3:TrackPointExtension>
        </extensions>
      </trkpt>
      <trkpt lat="45.3476650826632976531982421875" lon="-71.0069606266915798187255859375">
        <ele>911.79998779296875</ele>
        <time>2026-08-21T19:38:20.000Z</time>
        <extensions>
          <ns3:TrackPointExtension>
            <ns3:hr>130</ns3:hr>
            <ns3:cad>0</ns3:cad>
          </ns3:TrackPointExtension>
        </extensions>
      </trkpt>
      <trkpt lat="45.34765896387398242950439453125" lon="-71.00697026588022708892822265625">
        <ele>911.79998779296875</ele>
        <time>2026-08-21T19:38:21.000Z</time>
        <extensions>
          <ns3:TrackPointExtension>
            <ns3:hr>130</ns3:hr>
            <ns3:cad>0</ns3:cad>
          </ns3:TrackPointExtension>
        </extensions>
      </trkpt>
      <trkpt lat="45.3476530127227306365966796875" lon="-71.0069817490875720977783203125">
        <ele>912</ele>
        <time>2026-08-21T19:38:22.000Z</time>
        <extensions>
          <ns3:TrackPointExtension>
            <ns3:hr>130</ns3:hr>
            <ns3:cad>60</ns3:cad>
          </ns3:TrackPointExtension>
        </extensions>
      </trkpt>
      <trkpt lat="45.34764521755278110504150390625" lon="-71.00699323229491710662841796875">
        <ele>912.20001220703125</ele>
        <time>2026-08-21T19:38:23.000Z</time>
        <extensions>
          <ns3:TrackPointExtension>
            <ns3:hr>130</ns3:hr>
            <ns3:cad>60</ns3:cad>
          </ns3:TrackPointExtension>
        </extensions>
      </trkpt>
      <trkpt lat="45.3476424515247344970703125" lon="-71.0070038773119449615478515625">
        <ele>912.20001220703125</ele>
        <time>2026-08-21T19:38:24.000Z</time>
        <extensions>
          <ns3:TrackPointExtension>
            <ns3:hr>130</ns3:hr>
            <ns3:cad>0</ns3:cad>
          </ns3:TrackPointExtension>
        </extensions>
      </trkpt>
      <trkpt lat="45.34763398580253124237060546875" lon="-71.00701988674700260162353515625">
        <ele>912.4000244140625</ele>
        <time>2026-08-21T19:38:25.000Z</time>
        <extensions>
          <ns3:TrackPointExtension>
            <ns3:hr>130</ns3:hr>
            <ns3:cad>0</ns3:cad>
          </ns3:TrackPointExtension>
        </extensions>
      </trkpt>
      <trkpt lat="45.3476305492222309112548828125" lon="-71.00703648291528224945068359375">
        <ele>912.4000244140625</ele>
        <time>2026-08-21T19:38:26.000Z</time>
        <extensions>
          <ns3:TrackPointExtension>
            <ns3:hr>129</ns3:hr>
            <ns3:cad>0</ns3:cad>
          </ns3:TrackPointExtension>
        </extensions>
      </trkpt>
      <trkpt lat="45.347630046308040618896484375" lon="-71.007050983607769012451171875">
        <ele>912.4000244140625</ele>
        <time>2026-08-21T19:38:27.000Z</time>
        <extensions>
          <ns3:TrackPointExtension>
            <ns3:hr>130</ns3:hr>
            <ns3:cad>0</ns3:cad>
          </ns3:TrackPointExtension>
        </extensions>
      </trkpt>
      <trkpt lat="45.3476261906325817108154296875" lon="-71.00706933997571468353271484375">
        <ele>912.5999755859375</ele>
        <time>2026-08-21T19:38:28.000Z</time>
        <extensions>
          <ns3:TrackPointExtension>
            <ns3:hr>130</ns3:hr>
            <ns3:cad>0</ns3:cad>
          </ns3:TrackPointExtension>
        </extensions>
      </trkpt>
      <trkpt lat="45.3476245142519474029541015625" lon="-71.00707788951694965362548828125">
        <ele>912.79998779296875</ele>
        <time>2026-08-21T19:38:29.000Z</time>
        <extensions>
          <ns3:TrackPointExtension>
            <ns3:hr>130</ns3:hr>
            <ns3:cad>0</ns3:cad>
          </ns3:TrackPointExtension>
        </extensions>
      </trkpt>
      <trkpt lat="45.347622334957122802734375" lon="-71.00709297694265842437744140625">
        <ele>912.79998779296875</ele>
        <time>2026-08-21T19:38:30.000Z</time>
        <extensions>
          <ns3:TrackPointExtension>
            <ns3:hr>130</ns3:hr>
            <ns3:cad>0</ns3:cad>
          </ns3:TrackPointExtension>
        </extensions>
      </trkpt>
      <trkpt lat="45.34761889837682247161865234375" lon="-71.00710789673030376434326171875">
        <ele>913</ele>
        <time>2026-08-21T19:38:31.000Z</time>
        <extensions>
          <ns3:TrackPointExtension>
            <ns3:hr>130</ns3:hr>
            <ns3:cad>0</ns3:cad>
          </ns3:TrackPointExtension>
        </extensions>
      </trkpt>
      <trkpt lat="45.34761655144393444061279296875" lon="-71.007119379937648773193359375">
        <ele>913.20001220703125</ele>
        <time>2026-08-21T19:38:32.000Z</time>
        <extensions>
          <ns3:TrackPointExtension>
            <ns3:hr>129</ns3:hr>
            <ns3:cad>0</ns3:cad>
          </ns3:TrackPointExtension>
        </extensions>
      </trkpt>
      <trkpt lat="45.347615964710712432861328125" lon="-71.00713103078305721282958984375">
        <ele>913.5999755859375</ele>
        <time>2026-08-21T19:38:33.000Z</time>
        <extensions>
          <ns3:TrackPointExtension>
            <ns3:hr>129</ns3:hr>
            <ns3:cad>0</ns3:cad>
          </ns3:TrackPointExtension>
        </extensions>
      </trkpt>
      <trkpt lat="45.34761152230203151702880859375" lon="-71.00714259780943393707275390625">
        <ele>913.79998779296875</ele>
        <time>2026-08-21T19:38:34.000Z</time>
        <extensions>
          <ns3:TrackPointExtension>
            <ns3:hr>130</ns3:hr>
            <ns3:cad>0</ns3:cad>
          </ns3:TrackPointExtension>
        </extensions>
      </trkpt>
      <trkpt lat="45.34761068411171436309814453125" lon="-71.00715148262679576873779296875">
        <ele>914</ele>
        <time>2026-08-21T19:38:35.000Z</time>
        <extensions>
          <ns3:TrackPointExtension>
            <ns3:hr>130</ns3:hr>
            <ns3:cad>0</ns3:cad>
          </ns3:TrackPointExtension>
        </extensions>
      </trkpt>
      <trkpt lat="45.34760699607431888580322265625" lon="-71.00715885870158672332763671875">
        <ele>914</ele>
        <time>2026-08-21T19:38:36.000Z</time>
        <extensions>
          <ns3:TrackPointExtension>
            <ns3:hr>130</ns3:hr>
            <ns3:cad>44</ns3:cad>
          </ns3:TrackPointExtension>
        </extensions>
      </trkpt>
      <trkpt lat="45.34760280512273311614990234375" lon="-71.00717361085116863250732421875">
        <ele>914.20001220703125</ele>
        <time>2026-08-21T19:38:37.000Z</time>
        <extensions>
          <ns3:TrackPointExtension>
            <ns3:hr>130</ns3:hr>
            <ns3:cad>44</ns3:cad>
          </ns3:TrackPointExtension>
        </extensions>
      </trkpt>
      <trkpt lat="45.347600877285003662109375" lon="-71.007181070744991302490234375">
        <ele>914.4000244140625</ele>
        <time>2026-08-21T19:38:38.000Z</time>
        <extensions>
          <ns3:TrackPointExtension>
            <ns3:hr>130</ns3:hr>
            <ns3:cad>44</ns3:cad>
          </ns3:TrackPointExtension>
        </extensions>
      </trkpt>
      <trkpt lat="45.34759978763759136199951171875" lon="-71.00718568079173564910888671875">
        <ele>914.4000244140625</ele>
        <time>2026-08-21T19:38:39.000Z</time>
        <extensions>
          <ns3:TrackPointExtension>
            <ns3:hr>130</ns3:hr>
            <ns3:cad>0</ns3:cad>
          </ns3:TrackPointExtension>
        </extensions>
      </trkpt>
      <trkpt lat="45.34759618341922760009765625" lon="-71.00719842128455638885498046875">
        <ele>914.5999755859375</ele>
        <time>2026-08-21T19:38:40.000Z</time>
        <extensions>
          <ns3:TrackPointExtension>
            <ns3:hr>130</ns3:hr>
            <ns3:cad>0</ns3:cad>
          </ns3:TrackPointExtension>
        </extensions>
      </trkpt>
      <trkpt lat="45.347597859799861907958984375" lon="-71.0072006843984127044677734375">
        <ele>914.79998779296875</ele>
        <time>2026-08-21T19:38:41.000Z</time>
        <extensions>
          <ns3:TrackPointExtension>
            <ns3:hr>130</ns3:hr>
            <ns3:cad>0</ns3:cad>
          </ns3:TrackPointExtension>
        </extensions>
      </trkpt>
      <trkpt lat="45.34759358502924442291259765625" lon="-71.007207222282886505126953125">
        <ele>915</ele>
        <time>2026-08-21T19:38:42.000Z</time>
        <extensions>
          <ns3:TrackPointExtension>
            <ns3:hr>130</ns3:hr>
            <ns3:cad>0</ns3:cad>
          </ns3:TrackPointExtension>
        </extensions>
      </trkpt>
      <trkpt lat="45.34759224392473697662353515625" lon="-71.00721853785216808319091796875">
        <ele>915.20001220703125</ele>
        <time>2026-08-21T19:38:43.000Z</time>
        <extensions>
          <ns3:TrackPointExtension>
            <ns3:hr>129</ns3:hr>
            <ns3:cad>0</ns3:cad>
          </ns3:TrackPointExtension>
        </extensions>
      </trkpt>
      <trkpt lat="45.3475916571915149688720703125" lon="-71.007221303880214691162109375">
        <ele>915.4000244140625</ele>
        <time>2026-08-21T19:38:44.000Z</time>
        <extensions>
          <ns3:TrackPointExtension>
            <ns3:hr>130</ns3:hr>
            <ns3:cad>0</ns3:cad>
          </ns3:TrackPointExtension>
        </extensions>
      </trkpt>
      <trkpt lat="45.3475856222212314605712890625" lon="-71.00722792558372020721435546875">
        <ele>915.5999755859375</ele>
        <time>2026-08-21T19:38:45.000Z</time>
        <extensions>
          <ns3:TrackPointExtension>
            <ns3:hr>130</ns3:hr>
            <ns3:cad>0</ns3:cad>
          </ns3:TrackPointExtension>
        </extensions>
      </trkpt>
      <trkpt lat="45.34758285619318485260009765625" lon="-71.00723496638238430023193359375">
        <ele>915.5999755859375</ele>
        <time>2026-08-21T19:38:46.000Z</time>
        <extensions>
          <ns3:TrackPointExtension>
            <ns3:hr>130</ns3:hr>
            <ns3:cad>0</ns3:cad>
          </ns3:TrackPointExtension>
        </extensions>
      </trkpt>
      <trkpt lat="45.34757983870804309844970703125" lon="-71.00724083371460437774658203125">
        <ele>915.79998779296875</ele>
        <time>2026-08-21T19:38:47.000Z</time>
        <extensions>
          <ns3:TrackPointExtension>
            <ns3:hr>130</ns3:hr>
            <ns3:cad>0</ns3:cad>
          </ns3:TrackPointExtension>
        </extensions>
      </trkpt>
      <trkpt lat="45.34758034162223339080810546875" lon="-71.00724603049457073211669921875">
        <ele>916</ele>
        <time>2026-08-21T19:38:48.000Z</time>
        <extensions>
          <ns3:TrackPointExtension>
            <ns3:hr>130</ns3:hr>
            <ns3:cad>0</ns3:cad>
          </ns3:TrackPointExtension>
        </extensions>
      </trkpt>
      <trkpt lat="45.34758143126964569091796875" lon="-71.0072516463696956634521484375">
        <ele>916</ele>
        <time>2026-08-21T19:38:49.000Z</time>
        <extensions>
          <ns3:TrackPointExtension>
            <ns3:hr>130</ns3:hr>
            <ns3:cad>0</ns3:cad>
          </ns3:TrackPointExtension>
        </extensions>
      </trkpt>
      <trkpt lat="45.3475802578032016754150390625" lon="-71.00725910626351833343505859375">
        <ele>916</ele>
        <time>2026-08-21T19:38:50.000Z</time>
        <extensions>
          <ns3:TrackPointExtension>
            <ns3:hr>130</ns3:hr>
            <ns3:cad>0</ns3:cad>
          </ns3:TrackPointExtension>
        </extensions>
      </trkpt>
      <trkpt lat="45.347574055194854736328125" lon="-71.0072672367095947265625">
        <ele>916.20001220703125</ele>
        <time>2026-08-21T19:38:51.000Z</time>
        <extensions>
          <ns3:TrackPointExtension>
            <ns3:hr>130</ns3:hr>
            <ns3:cad>0</ns3:cad>
          </ns3:TrackPointExtension>
        </extensions>
      </trkpt>
      <trkpt lat="45.3475700318813323974609375" lon="-71.00726782344281673431396484375">
        <ele>916.20001220703125</ele>
        <time>2026-08-21T19:38:52.000Z</time>
        <extensions>
          <ns3:TrackPointExtension>
            <ns3:hr>130</ns3:hr>
            <ns3:cad>0</ns3:cad>
          </ns3:TrackPointExtension>
        </extensions>
      </trkpt>
      <trkpt lat="45.34756206907331943511962890625" lon="-71.0072737745940685272216796875">
        <ele>916.4000244140625</ele>
        <time>2026-08-21T19:38:53.000Z</time>
        <extensions>
          <ns3:TrackPointExtension>
            <ns3:hr>130</ns3:hr>
            <ns3:cad>0</ns3:cad>
          </ns3:TrackPointExtension>
        </extensions>
      </trkpt>
      <trkpt lat="45.3475574590265750885009765625" lon="-71.00727905519306659698486328125">
        <ele>916.4000244140625</ele>
        <time>2026-08-21T19:38:54.000Z</time>
        <extensions>
          <ns3:TrackPointExtension>
            <ns3:hr>130</ns3:hr>
            <ns3:cad>0</ns3:cad>
          </ns3:TrackPointExtension>
        </extensions>
      </trkpt>
      <trkpt lat="45.3475514240562915802001953125" lon="-71.0072868503630161285400390625">
        <ele>916.5999755859375</ele>
        <time>2026-08-21T19:38:55.000Z</time>
        <extensions>
          <ns3:TrackPointExtension>
            <ns3:hr>130</ns3:hr>
            <ns3:cad>0</ns3:cad>
          </ns3:TrackPointExtension>
        </extensions>
      </trkpt>
      <trkpt lat="45.34754849039018154144287109375" lon="-71.00729607045650482177734375">
        <ele>916.79998779296875</ele>
        <time>2026-08-21T19:38:56.000Z</time>
        <extensions>
          <ns3:TrackPointExtension>
            <ns3:hr>130</ns3:hr>
            <ns3:cad>0</ns3:cad>
          </ns3:TrackPointExtension>
        </extensions>
      </trkpt>
      <trkpt lat="45.34754094667732715606689453125" lon="-71.00730688311159610748291015625">
        <ele>916.79998779296875</ele>
        <time>2026-08-21T19:38:57.000Z</time>
        <extensions>
          <ns3:TrackPointExtension>
            <ns3:hr>130</ns3:hr>
            <ns3:cad>0</ns3:cad>
          </ns3:TrackPointExtension>
        </extensions>
      </trkpt>
      <trkpt lat="45.3475353308022022247314453125" lon="-71.0073193721473217010498046875">
        <ele>917</ele>
        <time>2026-08-21T19:38:58.000Z</time>
        <extensions>
          <ns3:TrackPointExtension>
            <ns3:hr>130</ns3:hr>
            <ns3:cad>71</ns3:cad>
          </ns3:TrackPointExtension>
        </extensions>
      </trkpt>
      <trkpt lat="45.347529463469982147216796875" lon="-71.00733068771660327911376953125">
        <ele>917</ele>
        <time>2026-08-21T19:38:59.000Z</time>
        <extensions>
          <ns3:TrackPointExtension>
            <ns3:hr>130</ns3:hr>
            <ns3:cad>71</ns3:cad>
          </ns3:TrackPointExtension>
        </extensions>
      </trkpt>
      <trkpt lat="45.3475242666900157928466796875" lon="-71.00734108127653598785400390625">
        <ele>917</ele>
        <time>2026-08-21T19:39:00.000Z</time>
        <extensions>
          <ns3:TrackPointExtension>
            <ns3:hr>130</ns3:hr>
            <ns3:cad>0</ns3:cad>
          </ns3:TrackPointExtension>
        </extensions>
      </trkpt>
      <trkpt lat="45.3475158847868442535400390625" lon="-71.00734778679907321929931640625">
        <ele>917.20001220703125</ele>
        <time>2026-08-21T19:39:01.000Z</time>
        <extensions>
          <ns3:TrackPointExtension>
            <ns3:hr>131</ns3:hr>
            <ns3:cad>0</ns3:cad>
          </ns3:TrackPointExtension>
        </extensions>
      </trkpt>
      <trkpt lat="45.34751169383525848388671875" lon="-71.0073565877974033355712890625">
        <ele>917.20001220703125</ele>
        <time>2026-08-21T19:39:02.000Z</time>
        <extensions>
          <ns3:TrackPointExtension>
            <ns3:hr>131</ns3:hr>
            <ns3:cad>0</ns3:cad>
          </ns3:TrackPointExtension>
        </extensions>
      </trkpt>
      <trkpt lat="45.3475054912269115447998046875" lon="-71.00736019201576709747314453125">
        <ele>917.4000244140625</ele>
        <time>2026-08-21T19:39:03.000Z</time>
        <extensions>
          <ns3:TrackPointExtension>
            <ns3:hr>131</ns3:hr>
            <ns3:cad>46</ns3:cad>
          </ns3:TrackPointExtension>
        </extensions>
      </trkpt>
      <trkpt lat="45.34749803133308887481689453125" lon="-71.00736019201576709747314453125">
        <ele>917.5999755859375</ele>
        <time>2026-08-21T19:39:04.000Z</time>
        <extensions>
          <ns3:TrackPointExtension>
            <ns3:hr>130</ns3:hr>
            <ns3:cad>46</ns3:cad>
          </ns3:TrackPointExtension>
        </extensions>
      </trkpt>
      <trkpt lat="45.347491241991519927978515625" lon="-71.00735667161643505096435546875">
        <ele>917.5999755859375</ele>
        <time>2026-08-21T19:39:05.000Z</time>
        <extensions>
          <ns3:TrackPointExtension>
            <ns3:hr>130</ns3:hr>
            <ns3:cad>45</ns3:cad>
          </ns3:TrackPointExtension>
        </extensions>
      </trkpt>
      <trkpt lat="45.34748747013509273529052734375" lon="-71.0073528997600078582763671875">
        <ele>917.5999755859375</ele>
        <time>2026-08-21T19:39:06.000Z</time>
        <extensions>
          <ns3:TrackPointExtension>
            <ns3:hr>130</ns3:hr>
            <ns3:cad>45</ns3:cad>
          </ns3:TrackPointExtension>
        </extensions>
      </trkpt>
      <trkpt lat="45.34747841767966747283935546875" lon="-71.00735105574131011962890625">
        <ele>917.5999755859375</ele>
        <time>2026-08-21T19:39:07.000Z</time>
        <extensions>
          <ns3:TrackPointExtension>
            <ns3:hr>130</ns3:hr>
            <ns3:cad>45</ns3:cad>
          </ns3:TrackPointExtension>
        </extensions>
      </trkpt>
      <trkpt lat="45.34746584482491016387939453125" lon="-71.0073478706181049346923828125">
        <ele>917.5999755859375</ele>
        <time>2026-08-21T19:39:08.000Z</time>
        <extensions>
          <ns3:TrackPointExtension>
            <ns3:hr>130</ns3:hr>
            <ns3:cad>45</ns3:cad>
          </ns3:TrackPointExtension>
        </extensions>
      </trkpt>
      <trkpt lat="45.347456037998199462890625" lon="-71.00734275765717029571533203125">
        <ele>917.5999755859375</ele>
        <time>2026-08-21T19:39:09.000Z</time>
        <extensions>
          <ns3:TrackPointExtension>
            <ns3:hr>130</ns3:hr>
            <ns3:cad>45</ns3:cad>
          </ns3:TrackPointExtension>
        </extensions>
      </trkpt>
      <trkpt lat="45.3474505059421062469482421875" lon="-71.00733806379139423370361328125">
        <ele>917.5999755859375</ele>
        <time>2026-08-21T19:39:10.000Z</time>
        <extensions>
          <ns3:TrackPointExtension>
            <ns3:hr>129</ns3:hr>
            <ns3:cad>41</ns3:cad>
          </ns3:TrackPointExtension>
        </extensions>
      </trkpt>
      <trkpt lat="45.347448326647281646728515625" lon="-71.007332615554332733154296875">
        <ele>917.5999755859375</ele>
        <time>2026-08-21T19:39:11.000Z</time>
        <extensions>
          <ns3:TrackPointExtension>
            <ns3:hr>128</ns3:hr>
            <ns3:cad>41</ns3:cad>
          </ns3:TrackPointExtension>
        </extensions>
      </trkpt>
      <trkpt lat="45.34744388423860073089599609375" lon="-71.007323898375034332275390625">
        <ele>917.5999755859375</ele>
        <time>2026-08-21T19:39:12.000Z</time>
        <extensions>
          <ns3:TrackPointExtension>
            <ns3:hr>128</ns3:hr>
            <ns3:cad>41</ns3:cad>
          </ns3:TrackPointExtension>
        </extensions>
      </trkpt>
      <trkpt lat="45.34744187258183956146240234375" lon="-71.00731350481510162353515625">
        <ele>917.5999755859375</ele>
        <time>2026-08-21T19:39:13.000Z</time>
        <extensions>
          <ns3:TrackPointExtension>
            <ns3:hr>128</ns3:hr>
            <ns3:cad>41</ns3:cad>
          </ns3:TrackPointExtension>
        </extensions>
      </trkpt>
      <trkpt lat="45.34744153730571269989013671875" lon="-71.00729833357036113739013671875">
        <ele>917.5999755859375</ele>
        <time>2026-08-21T19:39:14.000Z</time>
        <extensions>
          <ns3:TrackPointExtension>
            <ns3:hr>128</ns3:hr>
            <ns3:cad>41</ns3:cad>
          </ns3:TrackPointExtension>
        </extensions>
      </trkpt>
      <trkpt lat="45.347438938915729522705078125" lon="-71.00728391669690608978271484375">
        <ele>917.4000244140625</ele>
        <time>2026-08-21T19:39:15.000Z</time>
        <extensions>
          <ns3:TrackPointExtension>
            <ns3:hr>128</ns3:hr>
            <ns3:cad>44</ns3:cad>
          </ns3:TrackPointExtension>
        </extensions>
      </trkpt>
      <trkpt lat="45.34743298776447772979736328125" lon="-71.0072714276611804962158203125">
        <ele>917.20001220703125</ele>
        <time>2026-08-21T19:39:16.000Z</time>
        <extensions>
          <ns3:TrackPointExtension>
            <ns3:hr>128</ns3:hr>
            <ns3:cad>44</ns3:cad>
          </ns3:TrackPointExtension>
        </extensions>
      </trkpt>
      <trkpt lat="45.34742460586130619049072265625" lon="-71.00726581178605556488037109375">
        <ele>917.20001220703125</ele>
        <time>2026-08-21T19:39:17.000Z</time>
        <extensions>
          <ns3:TrackPointExtension>
            <ns3:hr>128</ns3:hr>
            <ns3:cad>50</ns3:cad>
          </ns3:TrackPointExtension>
        </extensions>
      </trkpt>
      <trkpt lat="45.3474117815494537353515625" lon="-71.00725851953029632568359375">
        <ele>917.20001220703125</ele>
        <time>2026-08-21T19:39:18.000Z</time>
        <extensions>
          <ns3:TrackPointExtension>
            <ns3:hr>127</ns3:hr>
            <ns3:cad>50</ns3:cad>
          </ns3:TrackPointExtension>
        </extensions>
      </trkpt>
      <trkpt lat="45.3473988734185695648193359375" lon="-71.00724955089390277862548828125">
        <ele>917.20001220703125</ele>
        <time>2026-08-21T19:39:19.000Z</time>
        <extensions>
          <ns3:TrackPointExtension>
            <ns3:hr>127</ns3:hr>
            <ns3:cad>50</ns3:cad>
          </ns3:TrackPointExtension>
        </extensions>
      </trkpt>
      <trkpt lat="45.347386300563812255859375" lon="-71.00724653340876102447509765625">
        <ele>917.20001220703125</ele>
        <time>2026-08-21T19:39:20.000Z</time>
        <extensions>
          <ns3:TrackPointExtension>
            <ns3:hr>127</ns3:hr>
            <ns3:cad>50</ns3:cad>
          </ns3:TrackPointExtension>
        </extensions>
      </trkpt>
      <trkpt lat="45.34737230278551578521728515625" lon="-71.0072435997426509857177734375">
        <ele>917.4000244140625</ele>
        <time>2026-08-21T19:39:21.000Z</time>
        <extensions>
          <ns3:TrackPointExtension>
            <ns3:hr>126</ns3:hr>
            <ns3:cad>50</ns3:cad>
          </ns3:TrackPointExtension>
        </extensions>
      </trkpt>
      <trkpt lat="45.34736140631139278411865234375" lon="-71.00724301300942897796630859375">
        <ele>917.4000244140625</ele>
        <time>2026-08-21T19:39:22.000Z</time>
        <extensions>
          <ns3:TrackPointExtension>
            <ns3:hr>126</ns3:hr>
            <ns3:cad>0</ns3:cad>
          </ns3:TrackPointExtension>
        </extensions>
      </trkpt>
      <trkpt lat="45.34734833054244518280029296875" lon="-71.00724083371460437774658203125">
        <ele>917.4000244140625</ele>
        <time>2026-08-21T19:39:23.000Z</time>
        <extensions>
          <ns3:TrackPointExtension>
            <ns3:hr>126</ns3:hr>
            <ns3:cad>46</ns3:cad>
          </ns3:TrackPointExtension>
        </extensions>
      </trkpt>
      <trkpt lat="45.34733600914478302001953125" lon="-71.00723697803914546966552734375">
        <ele>917.4000244140625</ele>
        <time>2026-08-21T19:39:24.000Z</time>
        <extensions>
          <ns3:TrackPointExtension>
            <ns3:hr>125</ns3:hr>
            <ns3:cad>46</ns3:cad>
          </ns3:TrackPointExtension>
        </extensions>
      </trkpt>
      <trkpt lat="45.34732469357550144195556640625" lon="-71.00723178125917911529541015625">
        <ele>917.4000244140625</ele>
        <time>2026-08-21T19:39:25.000Z</time>
        <extensions>
          <ns3:TrackPointExtension>
            <ns3:hr>125</ns3:hr>
            <ns3:cad>46</ns3:cad>
          </ns3:TrackPointExtension>
        </extensions>
      </trkpt>
      <trkpt lat="45.34731128253042697906494140625" lon="-71.00722725503146648406982421875">
        <ele>917.4000244140625</ele>
        <time>2026-08-21T19:39:26.000Z</time>
        <extensions>
          <ns3:TrackPointExtension>
            <ns3:hr>124</ns3:hr>
            <ns3:cad>46</ns3:cad>
          </ns3:TrackPointExtension>
        </extensions>
      </trkpt>
      <trkpt lat="45.34729653038084506988525390625" lon="-71.007226668298244476318359375">
        <ele>917.4000244140625</ele>
        <time>2026-08-21T19:39:27.000Z</time>
        <extensions>
          <ns3:TrackPointExtension>
            <ns3:hr>124</ns3:hr>
            <ns3:cad>46</ns3:cad>
          </ns3:TrackPointExtension>
        </extensions>
      </trkpt>
      <trkpt lat="45.3472798503935337066650390625" lon="-71.00723630748689174652099609375">
        <ele>917.5999755859375</ele>
        <time>2026-08-21T19:39:28.000Z</time>
        <extensions>
          <ns3:TrackPointExtension>
            <ns3:hr>123</ns3:hr>
            <ns3:cad>46</ns3:cad>
          </ns3:TrackPointExtension>
        </extensions>
      </trkpt>
      <trkpt lat="45.34726719371974468231201171875" lon="-71.00724921561777591705322265625">
        <ele>917.5999755859375</ele>
        <time>2026-08-21T19:39:29.000Z</time>
        <extensions>
          <ns3:TrackPointExtension>
            <ns3:hr>122</ns3:hr>
            <ns3:cad>50</ns3:cad>
          </ns3:TrackPointExtension>
        </extensions>
      </trkpt>
      <trkpt lat="45.34725822508335113525390625" lon="-71.007258854806423187255859375">
        <ele>917.5999755859375</ele>
        <time>2026-08-21T19:39:30.000Z</time>
        <extensions>
          <ns3:TrackPointExtension>
            <ns3:hr>121</ns3:hr>
            <ns3:cad>50</ns3:cad>
          </ns3:TrackPointExtension>
        </extensions>
      </trkpt>
      <trkpt lat="45.3472530283033847808837890625" lon="-71.00727318786084651947021484375">
        <ele>917.79998779296875</ele>
        <time>2026-08-21T19:39:31.000Z</time>
        <extensions>
          <ns3:TrackPointExtension>
            <ns3:hr>120</ns3:hr>
            <ns3:cad>50</ns3:cad>
          </ns3:TrackPointExtension>
        </extensions>
      </trkpt>
      <trkpt lat="45.3472473286092281341552734375" lon="-71.00728534162044525146484375">
        <ele>918</ele>
        <time>2026-08-21T19:39:32.000Z</time>
        <extensions>
          <ns3:TrackPointExtension>
            <ns3:hr>120</ns3:hr>
            <ns3:cad>52</ns3:cad>
          </ns3:TrackPointExtension>
        </extensions>
      </trkpt>
      <trkpt lat="45.34724070690572261810302734375" lon="-71.007293052971363067626953125">
        <ele>918</ele>
        <time>2026-08-21T19:39:33.000Z</time>
        <extensions>
          <ns3:TrackPointExtension>
            <ns3:hr>119</ns3:hr>
            <ns3:cad>52</ns3:cad>
          </ns3:TrackPointExtension>
        </extensions>
      </trkpt>
      <trkpt lat="45.34723316319286823272705078125" lon="-71.00730923004448413848876953125">
        <ele>918.20001220703125</ele>
        <time>2026-08-21T19:39:34.000Z</time>
        <extensions>
          <ns3:TrackPointExtension>
            <ns3:hr>119</ns3:hr>
            <ns3:cad>52</ns3:cad>
          </ns3:TrackPointExtension>
        </extensions>
      </trkpt>
      <trkpt lat="45.34722327254712581634521484375" lon="-71.00731777958571910858154296875">
        <ele>918.4000244140625</ele>
        <time>2026-08-21T19:39:35.000Z</time>
        <extensions>
          <ns3:TrackPointExtension>
            <ns3:hr>119</ns3:hr>
            <ns3:cad>52</ns3:cad>
          </ns3:TrackPointExtension>
        </extensions>
      </trkpt>
      <trkpt lat="45.34721522592008113861083984375" lon="-71.00732691586017608642578125">
        <ele>918.5999755859375</ele>
        <time>2026-08-21T19:39:36.000Z</time>
        <extensions>
          <ns3:TrackPointExtension>
            <ns3:hr>119</ns3:hr>
            <ns3:cad>48</ns3:cad>
          </ns3:TrackPointExtension>
        </extensions>
      </trkpt>
      <trkpt lat="45.347206592559814453125" lon="-71.00733404047787189483642578125">
        <ele>918.79998779296875</ele>
        <time>2026-08-21T19:39:37.000Z</time>
        <extensions>
          <ns3:TrackPointExtension>
            <ns3:hr>119</ns3:hr>
            <ns3:cad>48</ns3:cad>
          </ns3:TrackPointExtension>
        </extensions>
      </trkpt>
      <trkpt lat="45.34719544462859630584716796875" lon="-71.00733689032495021820068359375">
        <ele>918.79998779296875</ele>
        <time>2026-08-21T19:39:38.000Z</time>
        <extensions>
          <ns3:TrackPointExtension>
            <ns3:hr>120</ns3:hr>
            <ns3:cad>48</ns3:cad>
          </ns3:TrackPointExtension>
        </extensions>
      </trkpt>
      <trkpt lat="45.34718974493443965911865234375" lon="-71.007346697151660919189453125">
        <ele>918.79998779296875</ele>
        <time>2026-08-21T19:39:39.000Z</time>
        <extensions>
          <ns3:TrackPointExtension>
            <ns3:hr>119</ns3:hr>
            <ns3:cad>48</ns3:cad>
          </ns3:TrackPointExtension>
        </extensions>
      </trkpt>
      <trkpt lat="45.3471809439361095428466796875" lon="-71.00734896026551723480224609375">
        <ele>919</ele>
        <time>2026-08-21T19:39:40.000Z</time>
        <extensions>
          <ns3:TrackPointExtension>
            <ns3:hr>120</ns3:hr>
            <ns3:cad>48</ns3:cad>
          </ns3:TrackPointExtension>
        </extensions>
      </trkpt>
      <trkpt lat="45.347174741327762603759765625" lon="-71.007346697151660919189453125">
        <ele>919</ele>
        <time>2026-08-21T19:39:41.000Z</time>
        <extensions>
          <ns3:TrackPointExtension>
            <ns3:hr>120</ns3:hr>
            <ns3:cad>48</ns3:cad>
          </ns3:TrackPointExtension>
        </extensions>
      </trkpt>
      <trkpt lat="45.34715990535914897918701171875" lon="-71.007349379360675811767578125">
        <ele>919.20001220703125</ele>
        <time>2026-08-21T19:39:42.000Z</time>
        <extensions>
          <ns3:TrackPointExtension>
            <ns3:hr>120</ns3:hr>
            <ns3:cad>48</ns3:cad>
          </ns3:TrackPointExtension>
        </extensions>
      </trkpt>
      <trkpt lat="45.3471460752189159393310546875" lon="-71.00735398940742015838623046875">
        <ele>919.20001220703125</ele>
        <time>2026-08-21T19:39:43.000Z</time>
        <extensions>
          <ns3:TrackPointExtension>
            <ns3:hr>120</ns3:hr>
            <ns3:cad>48</ns3:cad>
          </ns3:TrackPointExtension>
        </extensions>
      </trkpt>
      <trkpt lat="45.347135178744792938232421875" lon="-71.00736354477703571319580078125">
        <ele>919.4000244140625</ele>
        <time>2026-08-21T19:39:44.000Z</time>
        <extensions>
          <ns3:TrackPointExtension>
            <ns3:hr>120</ns3:hr>
            <ns3:cad>48</ns3:cad>
          </ns3:TrackPointExtension>
        </extensions>
      </trkpt>
      <trkpt lat="45.3471252880990505218505859375" lon="-71.00737025029957294464111328125">
        <ele>919.4000244140625</ele>
        <time>2026-08-21T19:39:45.000Z</time>
        <extensions>
          <ns3:TrackPointExtension>
            <ns3:hr>120</ns3:hr>
            <ns3:cad>48</ns3:cad>
          </ns3:TrackPointExtension>
        </extensions>
      </trkpt>
      <trkpt lat="45.3471162356436252593994140625" lon="-71.00737879984080791473388671875">
        <ele>919.5999755859375</ele>
        <time>2026-08-21T19:39:46.000Z</time>
        <extensions>
          <ns3:TrackPointExtension>
            <ns3:hr>119</ns3:hr>
            <ns3:cad>0</ns3:cad>
          </ns3:TrackPointExtension>
        </extensions>
      </trkpt>
      <trkpt lat="45.34710802137851715087890625" lon="-71.0073897801339626312255859375">
        <ele>919.5999755859375</ele>
        <time>2026-08-21T19:39:47.000Z</time>
        <extensions>
          <ns3:TrackPointExtension>
            <ns3:hr>118</ns3:hr>
            <ns3:cad>0</ns3:cad>
          </ns3:TrackPointExtension>
        </extensions>
      </trkpt>
      <trkpt lat="45.34710056148469448089599609375" lon="-71.00739489309489727020263671875">
        <ele>919.79998779296875</ele>
        <time>2026-08-21T19:39:48.000Z</time>
        <extensions>
          <ns3:TrackPointExtension>
            <ns3:hr>118</ns3:hr>
            <ns3:cad>0</ns3:cad>
          </ns3:TrackPointExtension>
        </extensions>
      </trkpt>
      <trkpt lat="45.3470867313444614410400390625" lon="-71.007407717406749725341796875">
        <ele>919.79998779296875</ele>
        <time>2026-08-21T19:39:49.000Z</time>
        <extensions>
          <ns3:TrackPointExtension>
            <ns3:hr>118</ns3:hr>
            <ns3:cad>56</ns3:cad>
          </ns3:TrackPointExtension>
        </extensions>
      </trkpt>
      <trkpt lat="45.34707248210906982421875" lon="-71.00741199217736721038818359375">
        <ele>920</ele>
        <time>2026-08-21T19:39:50.000Z</time>
        <extensions>
          <ns3:TrackPointExtension>
            <ns3:hr>119</ns3:hr>
            <ns3:cad>56</ns3:cad>
          </ns3:TrackPointExtension>
        </extensions>
      </trkpt>
      <trkpt lat="45.34705865196883678436279296875" lon="-71.00741903297603130340576171875">
        <ele>920</ele>
        <time>2026-08-21T19:39:51.000Z</time>
        <extensions>
          <ns3:TrackPointExtension>
            <ns3:hr>119</ns3:hr>
            <ns3:cad>49</ns3:cad>
          </ns3:TrackPointExtension>
        </extensions>
      </trkpt>
      <trkpt lat="45.347046665847301483154296875" lon="-71.00742825306951999664306640625">
        <ele>920.20001220703125</ele>
        <time>2026-08-21T19:39:52.000Z</time>
        <extensions>
          <ns3:TrackPointExtension>
            <ns3:hr>120</ns3:hr>
            <ns3:cad>49</ns3:cad>
          </ns3:TrackPointExtension>
        </extensions>
      </trkpt>
      <trkpt lat="45.34703920595347881317138671875" lon="-71.007431857287883758544921875">
        <ele>920.20001220703125</ele>
        <time>2026-08-21T19:39:53.000Z</time>
        <extensions>
          <ns3:TrackPointExtension>
            <ns3:hr>120</ns3:hr>
            <ns3:cad>0</ns3:cad>
          </ns3:TrackPointExtension>
        </extensions>
      </trkpt>
      <trkpt lat="45.3470228612422943115234375" lon="-71.0074363835155963897705078125">
        <ele>920.4000244140625</ele>
        <time>2026-08-21T19:39:54.000Z</time>
        <extensions>
          <ns3:TrackPointExtension>
            <ns3:hr>121</ns3:hr>
            <ns3:cad>0</ns3:cad>
          </ns3:TrackPointExtension>
        </extensions>
      </trkpt>
      <trkpt lat="45.3470099531114101409912109375" lon="-71.00744116120040416717529296875">
        <ele>920.4000244140625</ele>
        <time>2026-08-21T19:39:55.000Z</time>
        <extensions>
          <ns3:TrackPointExtension>
            <ns3:hr>122</ns3:hr>
            <ns3:cad>0</ns3:cad>
          </ns3:TrackPointExtension>
        </extensions>
      </trkpt>
      <trkpt lat="45.34699981100857257843017578125" lon="-71.007444597780704498291015625">
        <ele>920.4000244140625</ele>
        <time>2026-08-21T19:39:56.000Z</time>
        <extensions>
          <ns3:TrackPointExtension>
            <ns3:hr>123</ns3:hr>
            <ns3:cad>49</ns3:cad>
          </ns3:TrackPointExtension>
        </extensions>
      </trkpt>
      <trkpt lat="45.34698975272476673126220703125" lon="-71.00744568742811679840087890625">
        <ele>920.4000244140625</ele>
        <time>2026-08-21T19:39:57.000Z</time>
        <extensions>
          <ns3:TrackPointExtension>
            <ns3:hr>123</ns3:hr>
            <ns3:cad>49</ns3:cad>
          </ns3:TrackPointExtension>
        </extensions>
      </trkpt>
      <trkpt lat="45.346978604793548583984375" lon="-71.00744870491325855255126953125">
        <ele>920.4000244140625</ele>
        <time>2026-08-21T19:39:58.000Z</time>
        <extensions>
          <ns3:TrackPointExtension>
            <ns3:hr>124</ns3:hr>
            <ns3:cad>49</ns3:cad>
          </ns3:TrackPointExtension>
        </extensions>
      </trkpt>
      <trkpt lat="45.3469646908342838287353515625" lon="-71.0074518062174320220947265625">
        <ele>920.4000244140625</ele>
        <time>2026-08-21T19:39:59.000Z</time>
        <extensions>
          <ns3:TrackPointExtension>
            <ns3:hr>124</ns3:hr>
            <ns3:cad>52</ns3:cad>
          </ns3:TrackPointExtension>
        </extensions>
      </trkpt>
      <trkpt lat="45.3469526208937168121337890625" lon="-71.00746236741542816162109375">
        <ele>920.5999755859375</ele>
        <time>2026-08-21T19:40:00.000Z</time>
        <extensions>
          <ns3:TrackPointExtension>
            <ns3:hr>124</ns3:hr>
            <ns3:cad>52</ns3:cad>
          </ns3:TrackPointExtension>
        </extensions>
      </trkpt>
      <trkpt lat="45.34694381989538669586181640625" lon="-71.00747016258537769317626953125">
        <ele>920.5999755859375</ele>
        <time>2026-08-21T19:40:01.000Z</time>
        <extensions>
          <ns3:TrackPointExtension>
            <ns3:hr>124</ns3:hr>
            <ns3:cad>54</ns3:cad>
          </ns3:TrackPointExtension>
        </extensions>
      </trkpt>
      <trkpt lat="45.34693627618253231048583984375" lon="-71.0074870102107524871826171875">
        <ele>920.79998779296875</ele>
        <time>2026-08-21T19:40:02.000Z</time>
        <extensions>
          <ns3:TrackPointExtension>
            <ns3:hr>123</ns3:hr>
            <ns3:cad>54</ns3:cad>
          </ns3:TrackPointExtension>
        </extensions>
      </trkpt>
      <trkpt lat="45.34693099558353424072265625" lon="-71.00750620476901531219482421875">
        <ele>920.79998779296875</ele>
        <time>2026-08-21T19:40:03.000Z</time>
        <extensions>
          <ns3:TrackPointExtension>
            <ns3:hr>124</ns3:hr>
            <ns3:cad>55</ns3:cad>
          </ns3:TrackPointExtension>
        </extensions>
      </trkpt>
      <trkpt lat="45.346927307546138763427734375" lon="-71.00752213038504123687744140625">
        <ele>921</ele>
        <time>2026-08-21T19:40:04.000Z</time>
        <extensions>
          <ns3:TrackPointExtension>
            <ns3:hr>124</ns3:hr>
            <ns3:cad>55</ns3:cad>
          </ns3:TrackPointExtension>
        </extensions>
      </trkpt>
      <trkpt lat="45.346923284232616424560546875" lon="-71.00753352977335453033447265625">
        <ele>921.20001220703125</ele>
        <time>2026-08-21T19:40:05.000Z</time>
        <extensions>
          <ns3:TrackPointExtension>
            <ns3:hr>123</ns3:hr>
            <ns3:cad>53</ns3:cad>
          </ns3:TrackPointExtension>
        </extensions>
      </trkpt>
      <trkpt lat="45.3469154052436351776123046875" lon="-71.00754660554230213165283203125">
        <ele>921.4000244140625</ele>
        <time>2026-08-21T19:40:06.000Z</time>
        <extensions>
          <ns3:TrackPointExtension>
            <ns3:hr>123</ns3:hr>
            <ns3:cad>52</ns3:cad>
          </ns3:TrackPointExtension>
        </extensions>
      </trkpt>
      <trkpt lat="45.34690207801759243011474609375" lon="-71.00756756030023097991943359375">
        <ele>921.4000244140625</ele>
        <time>2026-08-21T19:40:07.000Z</time>
        <extensions>
          <ns3:TrackPointExtension>
            <ns3:hr>123</ns3:hr>
            <ns3:cad>52</ns3:cad>
          </ns3:TrackPointExtension>
        </extensions>
      </trkpt>
      <trkpt lat="45.346897803246974945068359375" lon="-71.0075855813920497894287109375">
        <ele>921.5999755859375</ele>
        <time>2026-08-21T19:40:08.000Z</time>
        <extensions>
          <ns3:TrackPointExtension>
            <ns3:hr>123</ns3:hr>
            <ns3:cad>51</ns3:cad>
          </ns3:TrackPointExtension>
        </extensions>
      </trkpt>
      <trkpt lat="45.34689587540924549102783203125" lon="-71.00760125555098056793212890625">
        <ele>921.79998779296875</ele>
        <time>2026-08-21T19:40:09.000Z</time>
        <extensions>
          <ns3:TrackPointExtension>
            <ns3:hr>124</ns3:hr>
            <ns3:cad>51</ns3:cad>
          </ns3:TrackPointExtension>
        </extensions>
      </trkpt>
      <trkpt lat="45.346893779933452606201171875" lon="-71.00761265493929386138916015625">
        <ele>921.79998779296875</ele>
        <time>2026-08-21T19:40:10.000Z</time>
        <extensions>
          <ns3:TrackPointExtension>
            <ns3:hr>123</ns3:hr>
            <ns3:cad>51</ns3:cad>
          </ns3:TrackPointExtension>
        </extensions>
      </trkpt>
      <trkpt lat="45.346887409687042236328125" lon="-71.007631011307239532470703125">
        <ele>922</ele>
        <time>2026-08-21T19:40:11.000Z</time>
        <extensions>
          <ns3:TrackPointExtension>
            <ns3:hr>122</ns3:hr>
            <ns3:cad>51</ns3:cad>
          </ns3:TrackPointExtension>
        </extensions>
      </trkpt>
      <trkpt lat="45.346882045269012451171875" lon="-71.00764199160039424896240234375">
        <ele>922</ele>
        <time>2026-08-21T19:40:12.000Z</time>
        <extensions>
          <ns3:TrackPointExtension>
            <ns3:hr>122</ns3:hr>
            <ns3:cad>51</ns3:cad>
          </ns3:TrackPointExtension>
        </extensions>
      </trkpt>
      <trkpt lat="45.3468714840710163116455078125" lon="-71.00766244344413280487060546875">
        <ele>922.20001220703125</ele>
        <time>2026-08-21T19:40:13.000Z</time>
        <extensions>
          <ns3:TrackPointExtension>
            <ns3:hr>122</ns3:hr>
            <ns3:cad>51</ns3:cad>
          </ns3:TrackPointExtension>
        </extensions>
      </trkpt>
      <trkpt lat="45.3468634374439716339111328125" lon="-71.0076767764985561370849609375">
        <ele>922.4000244140625</ele>
        <time>2026-08-21T19:40:14.000Z</time>
        <extensions>
          <ns3:TrackPointExtension>
            <ns3:hr>123</ns3:hr>
            <ns3:cad>51</ns3:cad>
          </ns3:TrackPointExtension>
        </extensions>
      </trkpt>
      <trkpt lat="45.3468537144362926483154296875" lon="-71.00769798271358013153076171875">
        <ele>922.4000244140625</ele>
        <time>2026-08-21T19:40:15.000Z</time>
        <extensions>
          <ns3:TrackPointExtension>
            <ns3:hr>124</ns3:hr>
            <ns3:cad>51</ns3:cad>
          </ns3:TrackPointExtension>
        </extensions>
      </trkpt>
      <trkpt lat="45.34684893675148487091064453125" lon="-71.00771675817668437957763671875">
        <ele>922.5999755859375</ele>
        <time>2026-08-21T19:40:16.000Z</time>
        <extensions>
          <ns3:TrackPointExtension>
            <ns3:hr>125</ns3:hr>
            <ns3:cad>51</ns3:cad>
          </ns3:TrackPointExtension>
        </extensions>
      </trkpt>
      <trkpt lat="45.34683988429605960845947265625" lon="-71.00773461163043975830078125">
        <ele>922.79998779296875</ele>
        <time>2026-08-21T19:40:17.000Z</time>
        <extensions>
          <ns3:TrackPointExtension>
            <ns3:hr>126</ns3:hr>
            <ns3:cad>47</ns3:cad>
          </ns3:TrackPointExtension>
        </extensions>
      </trkpt>
      <trkpt lat="45.34683150239288806915283203125" lon="-71.00775565020740032196044921875">
        <ele>922.79998779296875</ele>
        <time>2026-08-21T19:40:18.000Z</time>
        <extensions>
          <ns3:TrackPointExtension>
            <ns3:hr>126</ns3:hr>
            <ns3:cad>47</ns3:cad>
          </ns3:TrackPointExtension>
        </extensions>
      </trkpt>
      <trkpt lat="45.34682949073612689971923828125" lon="-71.0077699832618236541748046875">
        <ele>922.79998779296875</ele>
        <time>2026-08-21T19:40:19.000Z</time>
        <extensions>
          <ns3:TrackPointExtension>
            <ns3:hr>126</ns3:hr>
            <ns3:cad>47</ns3:cad>
          </ns3:TrackPointExtension>
        </extensions>
      </trkpt>
      <trkpt lat="45.346828401088714599609375" lon="-71.007795967161655426025390625">
        <ele>923</ele>
        <time>2026-08-21T19:40:20.000Z</time>
        <extensions>
          <ns3:TrackPointExtension>
            <ns3:hr>125</ns3:hr>
            <ns3:cad>47</ns3:cad>
          </ns3:TrackPointExtension>
        </extensions>
      </trkpt>
      <trkpt lat="45.3468270599842071533203125" lon="-71.0078159160912036895751953125">
        <ele>923</ele>
        <time>2026-08-21T19:40:21.000Z</time>
        <extensions>
          <ns3:TrackPointExtension>
            <ns3:hr>125</ns3:hr>
            <ns3:cad>47</ns3:cad>
          </ns3:TrackPointExtension>
        </extensions>
      </trkpt>
      <trkpt lat="45.34682211466133594512939453125" lon="-71.007835529744625091552734375">
        <ele>923.20001220703125</ele>
        <time>2026-08-21T19:40:22.000Z</time>
        <extensions>
          <ns3:TrackPointExtension>
            <ns3:hr>125</ns3:hr>
            <ns3:cad>51</ns3:cad>
          </ns3:TrackPointExtension>
        </extensions>
      </trkpt>
      <trkpt lat="45.34681876190006732940673828125" lon="-71.0078527964651584625244140625">
        <ele>923.20001220703125</ele>
        <time>2026-08-21T19:40:23.000Z</time>
        <extensions>
          <ns3:TrackPointExtension>
            <ns3:hr>126</ns3:hr>
            <ns3:cad>51</ns3:cad>
          </ns3:TrackPointExtension>
        </extensions>
      </trkpt>
      <trkpt lat="45.346814654767513275146484375" lon="-71.007863692939281463623046875">
        <ele>923.4000244140625</ele>
        <time>2026-08-21T19:40:24.000Z</time>
        <extensions>
          <ns3:TrackPointExtension>
            <ns3:hr>126</ns3:hr>
            <ns3:cad>51</ns3:cad>
          </ns3:TrackPointExtension>
        </extensions>
      </trkpt>
      <trkpt lat="45.34680736251175403594970703125" lon="-71.00787668488919734954833984375">
        <ele>923.4000244140625</ele>
        <time>2026-08-21T19:40:25.000Z</time>
        <extensions>
          <ns3:TrackPointExtension>
            <ns3:hr>126</ns3:hr>
            <ns3:cad>51</ns3:cad>
          </ns3:TrackPointExtension>
        </extensions>
      </trkpt>
      <trkpt lat="45.3468094579875469207763671875" lon="-71.0078910179436206817626953125">
        <ele>923.4000244140625</ele>
        <time>2026-08-21T19:40:26.000Z</time>
        <extensions>
          <ns3:TrackPointExtension>
            <ns3:hr>126</ns3:hr>
            <ns3:cad>51</ns3:cad>
          </ns3:TrackPointExtension>
        </extensions>
      </trkpt>
      <trkpt lat="45.34680769778788089752197265625" lon="-71.00790870375931262969970703125">
        <ele>923.5999755859375</ele>
        <time>2026-08-21T19:40:27.000Z</time>
        <extensions>
          <ns3:TrackPointExtension>
            <ns3:hr>126</ns3:hr>
            <ns3:cad>52</ns3:cad>
          </ns3:TrackPointExtension>
        </extensions>
      </trkpt>
      <trkpt lat="45.34680635668337345123291015625" lon="-71.00792429409921169281005859375">
        <ele>923.5999755859375</ele>
        <time>2026-08-21T19:40:28.000Z</time>
        <extensions>
          <ns3:TrackPointExtension>
            <ns3:hr>126</ns3:hr>
            <ns3:cad>52</ns3:cad>
          </ns3:TrackPointExtension>
        </extensions>
      </trkpt>
      <trkpt lat="45.34680468030273914337158203125" lon="-71.0079382918775081634521484375">
        <ele>923.79998779296875</ele>
        <time>2026-08-21T19:40:29.000Z</time>
        <extensions>
          <ns3:TrackPointExtension>
            <ns3:hr>126</ns3:hr>
            <ns3:cad>52</ns3:cad>
          </ns3:TrackPointExtension>
        </extensions>
      </trkpt>
      <trkpt lat="45.3468014113605022430419921875" lon="-71.00795396603643894195556640625">
        <ele>923.79998779296875</ele>
        <time>2026-08-21T19:40:30.000Z</time>
        <extensions>
          <ns3:TrackPointExtension>
            <ns3:hr>127</ns3:hr>
            <ns3:cad>52</ns3:cad>
          </ns3:TrackPointExtension>
        </extensions>
      </trkpt>
      <trkpt lat="45.346795879304409027099609375" lon="-71.00796888582408428192138671875">
        <ele>924</ele>
        <time>2026-08-21T19:40:31.000Z</time>
        <extensions>
          <ns3:TrackPointExtension>
            <ns3:hr>127</ns3:hr>
            <ns3:cad>52</ns3:cad>
          </ns3:TrackPointExtension>
        </extensions>
      </trkpt>
      <trkpt lat="45.34679160453379154205322265625" lon="-71.0079818777740001678466796875">
        <ele>924</ele>
        <time>2026-08-21T19:40:32.000Z</time>
        <extensions>
          <ns3:TrackPointExtension>
            <ns3:hr>127</ns3:hr>
            <ns3:cad>50</ns3:cad>
          </ns3:TrackPointExtension>
        </extensions>
      </trkpt>
      <trkpt lat="45.34678707830607891082763671875" lon="-71.00800207816064357757568359375">
        <ele>924</ele>
        <time>2026-08-21T19:40:33.000Z</time>
        <extensions>
          <ns3:TrackPointExtension>
            <ns3:hr>127</ns3:hr>
            <ns3:cad>50</ns3:cad>
          </ns3:TrackPointExtension>
        </extensions>
      </trkpt>
      <trkpt lat="45.34678079187870025634765625" lon="-71.008017249405384063720703125">
        <ele>924.20001220703125</ele>
        <time>2026-08-21T19:40:34.000Z</time>
        <extensions>
          <ns3:TrackPointExtension>
            <ns3:hr>128</ns3:hr>
            <ns3:cad>50</ns3:cad>
          </ns3:TrackPointExtension>
        </extensions>
      </trkpt>
      <trkpt lat="45.34677836112678050994873046875" lon="-71.00804013200104236602783203125">
        <ele>924.20001220703125</ele>
        <time>2026-08-21T19:40:35.000Z</time>
        <extensions>
          <ns3:TrackPointExtension>
            <ns3:hr>128</ns3:hr>
            <ns3:cad>50</ns3:cad>
          </ns3:TrackPointExtension>
        </extensions>
      </trkpt>
      <trkpt lat="45.34677735529839992523193359375" lon="-71.00806058384478092193603515625">
        <ele>924.4000244140625</ele>
        <time>2026-08-21T19:40:36.000Z</time>
        <extensions>
          <ns3:TrackPointExtension>
            <ns3:hr>128</ns3:hr>
            <ns3:cad>50</ns3:cad>
          </ns3:TrackPointExtension>
        </extensions>
      </trkpt>
      <trkpt lat="45.34678121097385883331298828125" lon="-71.00808103568851947784423828125">
        <ele>924.4000244140625</ele>
        <time>2026-08-21T19:40:37.000Z</time>
        <extensions>
          <ns3:TrackPointExtension>
            <ns3:hr>128</ns3:hr>
            <ns3:cad>50</ns3:cad>
          </ns3:TrackPointExtension>
        </extensions>
      </trkpt>
      <trkpt lat="45.34678339026868343353271484375" lon="-71.008100397884845733642578125">
        <ele>924.5999755859375</ele>
        <time>2026-08-21T19:40:38.000Z</time>
        <extensions>
          <ns3:TrackPointExtension>
            <ns3:hr>128</ns3:hr>
            <ns3:cad>50</ns3:cad>
          </ns3:TrackPointExtension>
        </extensions>
      </trkpt>
      <trkpt lat="45.34678908996284008026123046875" lon="-71.00811758078634738922119140625">
        <ele>924.5999755859375</ele>
        <time>2026-08-21T19:40:39.000Z</time>
        <extensions>
          <ns3:TrackPointExtension>
            <ns3:hr>128</ns3:hr>
            <ns3:cad>50</ns3:cad>
          </ns3:TrackPointExtension>
        </extensions>
      </trkpt>
      <trkpt lat="45.3467943705618381500244140625" lon="-71.0081361047923564910888671875">
        <ele>924.79998779296875</ele>
        <time>2026-08-21T19:40:40.000Z</time>
        <extensions>
          <ns3:TrackPointExtension>
            <ns3:hr>128</ns3:hr>
            <ns3:cad>51</ns3:cad>
          </ns3:TrackPointExtension>
        </extensions>
      </trkpt>
      <trkpt lat="45.346797890961170196533203125" lon="-71.0081535391509532928466796875">
        <ele>924.79998779296875</ele>
        <time>2026-08-21T19:40:41.000Z</time>
        <extensions>
          <ns3:TrackPointExtension>
            <ns3:hr>128</ns3:hr>
            <ns3:cad>51</ns3:cad>
          </ns3:TrackPointExtension>
        </extensions>
      </trkpt>
      <trkpt lat="45.34679965116083621978759765625" lon="-71.00816921330988407135009765625">
        <ele>925</ele>
        <time>2026-08-21T19:40:42.000Z</time>
        <extensions>
          <ns3:TrackPointExtension>
            <ns3:hr>127</ns3:hr>
            <ns3:cad>51</ns3:cad>
          </ns3:TrackPointExtension>
        </extensions>
      </trkpt>
      <trkpt lat="45.3468047641217708587646484375" lon="-71.00818648003041744232177734375">
        <ele>925</ele>
        <time>2026-08-21T19:40:43.000Z</time>
        <extensions>
          <ns3:TrackPointExtension>
            <ns3:hr>127</ns3:hr>
            <ns3:cad>51</ns3:cad>
          </ns3:TrackPointExtension>
        </extensions>
      </trkpt>
      <trkpt lat="45.3468044288456439971923828125" lon="-71.00820223800837993621826171875">
        <ele>925</ele>
        <time>2026-08-21T19:40:44.000Z</time>
        <extensions>
          <ns3:TrackPointExtension>
            <ns3:hr>126</ns3:hr>
            <ns3:cad>51</ns3:cad>
          </ns3:TrackPointExtension>
        </extensions>
      </trkpt>
      <trkpt lat="45.34680400975048542022705078125" lon="-71.00821615196764469146728515625">
        <ele>925.20001220703125</ele>
        <time>2026-08-21T19:40:45.000Z</time>
        <extensions>
          <ns3:TrackPointExtension>
            <ns3:hr>126</ns3:hr>
            <ns3:cad>51</ns3:cad>
          </ns3:TrackPointExtension>
        </extensions>
      </trkpt>
      <trkpt lat="45.34680518321692943572998046875" lon="-71.00823090411722660064697265625">
        <ele>925.20001220703125</ele>
        <time>2026-08-21T19:40:46.000Z</time>
        <extensions>
          <ns3:TrackPointExtension>
            <ns3:hr>126</ns3:hr>
            <ns3:cad>51</ns3:cad>
          </ns3:TrackPointExtension>
        </extensions>
      </trkpt>
      <trkpt lat="45.346803925931453704833984375" lon="-71.00824917666614055633544921875">
        <ele>925.4000244140625</ele>
        <time>2026-08-21T19:40:47.000Z</time>
        <extensions>
          <ns3:TrackPointExtension>
            <ns3:hr>127</ns3:hr>
            <ns3:cad>51</ns3:cad>
          </ns3:TrackPointExtension>
        </extensions>
      </trkpt>
      <trkpt lat="45.34680115990340709686279296875" lon="-71.0082594864070415496826171875">
        <ele>925.5999755859375</ele>
        <time>2026-08-21T19:40:48.000Z</time>
        <extensions>
          <ns3:TrackPointExtension>
            <ns3:hr>127</ns3:hr>
            <ns3:cad>51</ns3:cad>
          </ns3:TrackPointExtension>
        </extensions>
      </trkpt>
      <trkpt lat="45.3468056023120880126953125" lon="-71.00828119553625583648681640625">
        <ele>925.79998779296875</ele>
        <time>2026-08-21T19:40:49.000Z</time>
        <extensions>
          <ns3:TrackPointExtension>
            <ns3:hr>127</ns3:hr>
            <ns3:cad>51</ns3:cad>
          </ns3:TrackPointExtension>
        </extensions>
      </trkpt>
      <trkpt lat="45.346809290349483489990234375" lon="-71.00829142145812511444091796875">
        <ele>925.79998779296875</ele>
        <time>2026-08-21T19:40:50.000Z</time>
        <extensions>
          <ns3:TrackPointExtension>
            <ns3:hr>128</ns3:hr>
            <ns3:cad>51</ns3:cad>
          </ns3:TrackPointExtension>
        </extensions>
      </trkpt>
      <trkpt lat="45.3468154929578304290771484375" lon="-71.0083070956170558929443359375">
        <ele>926</ele>
        <time>2026-08-21T19:40:51.000Z</time>
        <extensions>
          <ns3:TrackPointExtension>
            <ns3:hr>128</ns3:hr>
            <ns3:cad>51</ns3:cad>
          </ns3:TrackPointExtension>
        </extensions>
      </trkpt>
      <trkpt lat="45.34682412631809711456298828125" lon="-71.00832327269017696380615234375">
        <ele>926</ele>
        <time>2026-08-21T19:40:52.000Z</time>
        <extensions>
          <ns3:TrackPointExtension>
            <ns3:hr>127</ns3:hr>
            <ns3:cad>50</ns3:cad>
          </ns3:TrackPointExtension>
        </extensions>
      </trkpt>
      <trkpt lat="45.346829406917095184326171875" lon="-71.00833886303007602691650390625">
        <ele>926.20001220703125</ele>
        <time>2026-08-21T19:40:53.000Z</time>
        <extensions>
          <ns3:TrackPointExtension>
            <ns3:hr>127</ns3:hr>
            <ns3:cad>50</ns3:cad>
          </ns3:TrackPointExtension>
        </extensions>
      </trkpt>
      <trkpt lat="45.34683435223996639251708984375" lon="-71.00834657438099384307861328125">
        <ele>926.20001220703125</ele>
        <time>2026-08-21T19:40:54.000Z</time>
        <extensions>
          <ns3:TrackPointExtension>
            <ns3:hr>127</ns3:hr>
            <ns3:cad>50</ns3:cad>
          </ns3:TrackPointExtension>
        </extensions>
      </trkpt>
      <trkpt lat="45.3468362800776958465576171875" lon="-71.0083593986928462982177734375">
        <ele>926.4000244140625</ele>
        <time>2026-08-21T19:40:55.000Z</time>
        <extensions>
          <ns3:TrackPointExtension>
            <ns3:hr>127</ns3:hr>
            <ns3:cad>50</ns3:cad>
          </ns3:TrackPointExtension>
        </extensions>
      </trkpt>
      <trkpt lat="45.34684239886701107025146484375" lon="-71.008374989032745361328125">
        <ele>926.5999755859375</ele>
        <time>2026-08-21T19:40:56.000Z</time>
        <extensions>
          <ns3:TrackPointExtension>
            <ns3:hr>128</ns3:hr>
            <ns3:cad>0</ns3:cad>
          </ns3:TrackPointExtension>
        </extensions>
      </trkpt>
      <trkpt lat="45.34684742800891399383544921875" lon="-71.008391417562961578369140625">
        <ele>926.5999755859375</ele>
        <time>2026-08-21T19:40:57.000Z</time>
        <extensions>
          <ns3:TrackPointExtension>
            <ns3:hr>128</ns3:hr>
            <ns3:cad>48</ns3:cad>
          </ns3:TrackPointExtension>
        </extensions>
      </trkpt>
      <trkpt lat="45.3468543849885463714599609375" lon="-71.008412204682826995849609375">
        <ele>926.79998779296875</ele>
        <time>2026-08-21T19:40:58.000Z</time>
        <extensions>
          <ns3:TrackPointExtension>
            <ns3:hr>128</ns3:hr>
            <ns3:cad>48</ns3:cad>
          </ns3:TrackPointExtension>
        </extensions>
      </trkpt>
      <trkpt lat="45.3468580730259418487548828125" lon="-71.008424945175647735595703125">
        <ele>926.79998779296875</ele>
        <time>2026-08-21T19:40:59.000Z</time>
        <extensions>
          <ns3:TrackPointExtension>
            <ns3:hr>128</ns3:hr>
            <ns3:cad>48</ns3:cad>
          </ns3:TrackPointExtension>
        </extensions>
      </trkpt>
      <trkpt lat="45.34686335362493991851806640625" lon="-71.00843626074492931365966796875">
        <ele>926.79998779296875</ele>
        <time>2026-08-21T19:41:00.000Z</time>
        <extensions>
          <ns3:TrackPointExtension>
            <ns3:hr>128</ns3:hr>
            <ns3:cad>48</ns3:cad>
          </ns3:TrackPointExtension>
        </extensions>
      </trkpt>
      <trkpt lat="45.34686754457652568817138671875" lon="-71.00844698958098888397216796875">
        <ele>927</ele>
        <time>2026-08-21T19:41:01.000Z</time>
        <extensions>
          <ns3:TrackPointExtension>
            <ns3:hr>129</ns3:hr>
            <ns3:cad>48</ns3:cad>
          </ns3:TrackPointExtension>
        </extensions>
      </trkpt>
      <trkpt lat="45.34686972387135028839111328125" lon="-71.00845185108482837677001953125">
        <ele>927.20001220703125</ele>
        <time>2026-08-21T19:41:02.000Z</time>
        <extensions>
          <ns3:TrackPointExtension>
            <ns3:hr>129</ns3:hr>
            <ns3:cad>48</ns3:cad>
          </ns3:TrackPointExtension>
        </extensions>
      </trkpt>
      <trkpt lat="45.3468755073845386505126953125" lon="-71.0084650106728076934814453125">
        <ele>927.4000244140625</ele>
        <time>2026-08-21T19:41:03.000Z</time>
        <extensions>
          <ns3:TrackPointExtension>
            <ns3:hr>129</ns3:hr>
            <ns3:cad>0</ns3:cad>
          </ns3:TrackPointExtension>
        </extensions>
      </trkpt>
      <trkpt lat="45.34687760286033153533935546875" lon="-71.0084811039268970489501953125">
        <ele>927.5999755859375</ele>
        <time>2026-08-21T19:41:04.000Z</time>
        <extensions>
          <ns3:TrackPointExtension>
            <ns3:hr>128</ns3:hr>
            <ns3:cad>0</ns3:cad>
          </ns3:TrackPointExtension>
        </extensions>
      </trkpt>
      <trkpt lat="45.34688196144998073577880859375" lon="-71.0084916651248931884765625">
        <ele>927.79998779296875</ele>
        <time>2026-08-21T19:41:05.000Z</time>
        <extensions>
          <ns3:TrackPointExtension>
            <ns3:hr>128</ns3:hr>
            <ns3:cad>0</ns3:cad>
          </ns3:TrackPointExtension>
        </extensions>
      </trkpt>
      <trkpt lat="45.34688598476350307464599609375" lon="-71.00850532762706279754638671875">
        <ele>927.79998779296875</ele>
        <time>2026-08-21T19:41:06.000Z</time>
        <extensions>
          <ns3:TrackPointExtension>
            <ns3:hr>128</ns3:hr>
            <ns3:cad>45</ns3:cad>
          </ns3:TrackPointExtension>
        </extensions>
      </trkpt>
      <trkpt lat="45.34689252264797687530517578125" lon="-71.0085169784724712371826171875">
        <ele>928</ele>
        <time>2026-08-21T19:41:07.000Z</time>
        <extensions>
          <ns3:TrackPointExtension>
            <ns3:hr>128</ns3:hr>
            <ns3:cad>45</ns3:cad>
          </ns3:TrackPointExtension>
        </extensions>
      </trkpt>
      <trkpt lat="45.34689654596149921417236328125" lon="-71.00853164680302143096923828125">
        <ele>928</ele>
        <time>2026-08-21T19:41:08.000Z</time>
        <extensions>
          <ns3:TrackPointExtension>
            <ns3:hr>128</ns3:hr>
            <ns3:cad>43</ns3:cad>
          </ns3:TrackPointExtension>
        </extensions>
      </trkpt>
      <trkpt lat="45.3468989767134189605712890625" lon="-71.00854438729584217071533203125">
        <ele>928</ele>
        <time>2026-08-21T19:41:09.000Z</time>
        <extensions>
          <ns3:TrackPointExtension>
            <ns3:hr>128</ns3:hr>
            <ns3:cad>43</ns3:cad>
          </ns3:TrackPointExtension>
        </extensions>
      </trkpt>
      <trkpt lat="45.34690207801759243011474609375" lon="-71.00855595432221889495849609375">
        <ele>928.20001220703125</ele>
        <time>2026-08-21T19:41:10.000Z</time>
        <extensions>
          <ns3:TrackPointExtension>
            <ns3:hr>128</ns3:hr>
            <ns3:cad>43</ns3:cad>
          </ns3:TrackPointExtension>
        </extensions>
      </trkpt>
      <trkpt lat="45.346905849874019622802734375" lon="-71.0085635818541049957275390625">
        <ele>928.4000244140625</ele>
        <time>2026-08-21T19:41:11.000Z</time>
        <extensions>
          <ns3:TrackPointExtension>
            <ns3:hr>128</ns3:hr>
            <ns3:cad>45</ns3:cad>
          </ns3:TrackPointExtension>
        </extensions>
      </trkpt>
      <trkpt lat="45.346909202635288238525390625" lon="-71.00857104174792766571044921875">
        <ele>928.5999755859375</ele>
        <time>2026-08-21T19:41:12.000Z</time>
        <extensions>
          <ns3:TrackPointExtension>
            <ns3:hr>129</ns3:hr>
            <ns3:cad>45</ns3:cad>
          </ns3:TrackPointExtension>
        </extensions>
      </trkpt>
      <trkpt lat="45.346914567053318023681640625" lon="-71.008580513298511505126953125">
        <ele>928.79998779296875</ele>
        <time>2026-08-21T19:41:13.000Z</time>
        <extensions>
          <ns3:TrackPointExtension>
            <ns3:hr>128</ns3:hr>
            <ns3:cad>44</ns3:cad>
          </ns3:TrackPointExtension>
        </extensions>
      </trkpt>
      <trkpt lat="45.34691666252911090850830078125" lon="-71.00858931429684162139892578125">
        <ele>929</ele>
        <time>2026-08-21T19:41:14.000Z</time>
        <extensions>
          <ns3:TrackPointExtension>
            <ns3:hr>127</ns3:hr>
            <ns3:cad>43</ns3:cad>
          </ns3:TrackPointExtension>
        </extensions>
      </trkpt>
      <trkpt lat="45.34691783599555492401123046875" lon="-71.0085989534854888916015625">
        <ele>929</ele>
        <time>2026-08-21T19:41:15.000Z</time>
        <extensions>
          <ns3:TrackPointExtension>
            <ns3:hr>126</ns3:hr>
            <ns3:cad>42</ns3:cad>
          </ns3:TrackPointExtension>
        </extensions>
      </trkpt>
      <trkpt lat="45.34692051820456981658935546875" lon="-71.0086068324744701385498046875">
        <ele>929.20001220703125</ele>
        <time>2026-08-21T19:41:16.000Z</time>
        <extensions>
          <ns3:TrackPointExtension>
            <ns3:hr>125</ns3:hr>
            <ns3:cad>42</ns3:cad>
          </ns3:TrackPointExtension>
        </extensions>
      </trkpt>
      <trkpt lat="45.34692588262259960174560546875" lon="-71.008616723120212554931640625">
        <ele>929.20001220703125</ele>
        <time>2026-08-21T19:41:17.000Z</time>
        <extensions>
          <ns3:TrackPointExtension>
            <ns3:hr>125</ns3:hr>
            <ns3:cad>42</ns3:cad>
          </ns3:TrackPointExtension>
        </extensions>
      </trkpt>
      <trkpt lat="45.3469316661357879638671875" lon="-71.0086249373853206634521484375">
        <ele>929.4000244140625</ele>
        <time>2026-08-21T19:41:18.000Z</time>
        <extensions>
          <ns3:TrackPointExtension>
            <ns3:hr>125</ns3:hr>
            <ns3:cad>42</ns3:cad>
          </ns3:TrackPointExtension>
        </extensions>
      </trkpt>
      <trkpt lat="45.3469365276396274566650390625" lon="-71.008635498583316802978515625">
        <ele>929.5999755859375</ele>
        <time>2026-08-21T19:41:19.000Z</time>
        <extensions>
          <ns3:TrackPointExtension>
            <ns3:hr>125</ns3:hr>
            <ns3:cad>42</ns3:cad>
          </ns3:TrackPointExtension>
        </extensions>
      </trkpt>
      <trkpt lat="45.346942730247974395751953125" lon="-71.00864195264875888824462890625">
        <ele>929.79998779296875</ele>
        <time>2026-08-21T19:41:20.000Z</time>
        <extensions>
          <ns3:TrackPointExtension>
            <ns3:hr>124</ns3:hr>
            <ns3:cad>42</ns3:cad>
          </ns3:TrackPointExtension>
        </extensions>
      </trkpt>
      <trkpt lat="45.34694650210440158843994140625" lon="-71.0086514241993427276611328125">
        <ele>929.79998779296875</ele>
        <time>2026-08-21T19:41:21.000Z</time>
        <extensions>
          <ns3:TrackPointExtension>
            <ns3:hr>124</ns3:hr>
            <ns3:cad>42</ns3:cad>
          </ns3:TrackPointExtension>
        </extensions>
      </trkpt>
      <trkpt lat="45.34695002250373363494873046875" lon="-71.00865938700735569000244140625">
        <ele>930</ele>
        <time>2026-08-21T19:41:22.000Z</time>
        <extensions>
          <ns3:TrackPointExtension>
            <ns3:hr>124</ns3:hr>
            <ns3:cad>42</ns3:cad>
          </ns3:TrackPointExtension>
        </extensions>
      </trkpt>
      <trkpt lat="45.34695387817919254302978515625" lon="-71.00866575725376605987548828125">
        <ele>930.20001220703125</ele>
        <time>2026-08-21T19:41:23.000Z</time>
        <extensions>
          <ns3:TrackPointExtension>
            <ns3:hr>124</ns3:hr>
            <ns3:cad>0</ns3:cad>
          </ns3:TrackPointExtension>
        </extensions>
      </trkpt>
      <trkpt lat="45.3469569794833660125732421875" lon="-71.00867338478565216064453125">
        <ele>930.20001220703125</ele>
        <time>2026-08-21T19:41:24.000Z</time>
        <extensions>
          <ns3:TrackPointExtension>
            <ns3:hr>124</ns3:hr>
            <ns3:cad>0</ns3:cad>
          </ns3:TrackPointExtension>
        </extensions>
      </trkpt>
      <trkpt lat="45.346962846815586090087890625" lon="-71.00868000648915767669677734375">
        <ele>930.4000244140625</ele>
        <time>2026-08-21T19:41:25.000Z</time>
        <extensions>
          <ns3:TrackPointExtension>
            <ns3:hr>124</ns3:hr>
            <ns3:cad>79</ns3:cad>
          </ns3:TrackPointExtension>
        </extensions>
      </trkpt>
      <trkpt lat="45.34696795977652072906494140625" lon="-71.00868436507880687713623046875">
        <ele>930.5999755859375</ele>
        <time>2026-08-21T19:41:26.000Z</time>
        <extensions>
          <ns3:TrackPointExtension>
            <ns3:hr>124</ns3:hr>
            <ns3:cad>79</ns3:cad>
          </ns3:TrackPointExtension>
        </extensions>
      </trkpt>
      <trkpt lat="45.3469710610806941986083984375" lon="-71.0086899809539318084716796875">
        <ele>930.5999755859375</ele>
        <time>2026-08-21T19:41:27.000Z</time>
        <extensions>
          <ns3:TrackPointExtension>
            <ns3:hr>124</ns3:hr>
            <ns3:cad>79</ns3:cad>
          </ns3:TrackPointExtension>
        </extensions>
      </trkpt>
      <trkpt lat="45.34697801806032657623291015625" lon="-71.0087003745138645172119140625">
        <ele>930.79998779296875</ele>
        <time>2026-08-21T19:41:28.000Z</time>
        <extensions>
          <ns3:TrackPointExtension>
            <ns3:hr>123</ns3:hr>
            <ns3:cad>0</ns3:cad>
          </ns3:TrackPointExtension>
        </extensions>
      </trkpt>
      <trkpt lat="45.34698103554546833038330078125" lon="-71.00870766676962375640869140625">
        <ele>931</ele>
        <time>2026-08-21T19:41:29.000Z</time>
        <extensions>
          <ns3:TrackPointExtension>
            <ns3:hr>124</ns3:hr>
            <ns3:cad>0</ns3:cad>
          </ns3:TrackPointExtension>
        </extensions>
      </trkpt>
      <trkpt lat="45.34698438830673694610595703125" lon="-71.00871671922504901885986328125">
        <ele>931.20001220703125</ele>
        <time>2026-08-21T19:41:30.000Z</time>
        <extensions>
          <ns3:TrackPointExtension>
            <ns3:hr>124</ns3:hr>
            <ns3:cad>40</ns3:cad>
          </ns3:TrackPointExtension>
        </extensions>
      </trkpt>
      <trkpt lat="45.3469851426780223846435546875" lon="-71.008727364242076873779296875">
        <ele>931.4000244140625</ele>
        <time>2026-08-21T19:41:31.000Z</time>
        <extensions>
          <ns3:TrackPointExtension>
            <ns3:hr>124</ns3:hr>
            <ns3:cad>40</ns3:cad>
          </ns3:TrackPointExtension>
        </extensions>
      </trkpt>
      <trkpt lat="45.346985645592212677001953125" lon="-71.0087365843355655670166015625">
        <ele>931.5999755859375</ele>
        <time>2026-08-21T19:41:32.000Z</time>
        <extensions>
          <ns3:TrackPointExtension>
            <ns3:hr>125</ns3:hr>
            <ns3:cad>40</ns3:cad>
          </ns3:TrackPointExtension>
        </extensions>
      </trkpt>
      <trkpt lat="45.34698975272476673126220703125" lon="-71.008739769458770751953125">
        <ele>931.79998779296875</ele>
        <time>2026-08-21T19:41:33.000Z</time>
        <extensions>
          <ns3:TrackPointExtension>
            <ns3:hr>125</ns3:hr>
            <ns3:cad>40</ns3:cad>
          </ns3:TrackPointExtension>
        </extensions>
      </trkpt>
      <trkpt lat="45.34699000418186187744140625" lon="-71.00874538533389568328857421875">
        <ele>932</ele>
        <time>2026-08-21T19:41:34.000Z</time>
        <extensions>
          <ns3:TrackPointExtension>
            <ns3:hr>126</ns3:hr>
            <ns3:cad>40</ns3:cad>
          </ns3:TrackPointExtension>
        </extensions>
      </trkpt>
      <trkpt lat="45.34699243493378162384033203125" lon="-71.0087518393993377685546875">
        <ele>932</ele>
        <time>2026-08-21T19:41:35.000Z</time>
        <extensions>
          <ns3:TrackPointExtension>
            <ns3:hr>126</ns3:hr>
            <ns3:cad>42</ns3:cad>
          </ns3:TrackPointExtension>
        </extensions>
      </trkpt>
      <trkpt lat="45.3469948656857013702392578125" lon="-71.00875996984541416168212890625">
        <ele>932.20001220703125</ele>
        <time>2026-08-21T19:41:36.000Z</time>
        <extensions>
          <ns3:TrackPointExtension>
            <ns3:hr>127</ns3:hr>
            <ns3:cad>42</ns3:cad>
          </ns3:TrackPointExtension>
        </extensions>
      </trkpt>
      <trkpt lat="45.3469982184469699859619140625" lon="-71.0087714530527591705322265625">
        <ele>932.4000244140625</ele>
        <time>2026-08-21T19:41:37.000Z</time>
        <extensions>
          <ns3:TrackPointExtension>
            <ns3:hr>128</ns3:hr>
            <ns3:cad>43</ns3:cad>
          </ns3:TrackPointExtension>
        </extensions>
      </trkpt>
      <trkpt lat="45.3470029123127460479736328125" lon="-71.008780002593994140625">
        <ele>932.5999755859375</ele>
        <time>2026-08-21T19:41:38.000Z</time>
        <extensions>
          <ns3:TrackPointExtension>
            <ns3:hr>128</ns3:hr>
            <ns3:cad>43</ns3:cad>
          </ns3:TrackPointExtension>
        </extensions>
      </trkpt>
      <trkpt lat="45.3470092825591564178466796875" lon="-71.00879140198230743408203125">
        <ele>932.79998779296875</ele>
        <time>2026-08-21T19:41:39.000Z</time>
        <extensions>
          <ns3:TrackPointExtension>
            <ns3:hr>128</ns3:hr>
            <ns3:cad>43</ns3:cad>
          </ns3:TrackPointExtension>
        </extensions>
      </trkpt>
      <trkpt lat="45.34701640717685222625732421875" lon="-71.0087989456951618194580078125">
        <ele>933</ele>
        <time>2026-08-21T19:41:40.000Z</time>
        <extensions>
          <ns3:TrackPointExtension>
            <ns3:hr>128</ns3:hr>
            <ns3:cad>44</ns3:cad>
          </ns3:TrackPointExtension>
        </extensions>
      </trkpt>
      <trkpt lat="45.347025208175182342529296875" lon="-71.00880456157028675079345703125">
        <ele>933.20001220703125</ele>
        <time>2026-08-21T19:41:41.000Z</time>
        <extensions>
          <ns3:TrackPointExtension>
            <ns3:hr>129</ns3:hr>
            <ns3:cad>44</ns3:cad>
          </ns3:TrackPointExtension>
        </extensions>
      </trkpt>
      <trkpt lat="45.34703291952610015869140625" lon="-71.0088022984564304351806640625">
        <ele>933.4000244140625</ele>
        <time>2026-08-21T19:41:42.000Z</time>
        <extensions>
          <ns3:TrackPointExtension>
            <ns3:hr>130</ns3:hr>
            <ns3:cad>43</ns3:cad>
          </ns3:TrackPointExtension>
        </extensions>
      </trkpt>
      <trkpt lat="45.34704004414379596710205078125" lon="-71.00880137644708156585693359375">
        <ele>933.5999755859375</ele>
        <time>2026-08-21T19:41:43.000Z</time>
        <extensions>
          <ns3:TrackPointExtension>
            <ns3:hr>130</ns3:hr>
            <ns3:cad>43</ns3:cad>
          </ns3:TrackPointExtension>
        </extensions>
      </trkpt>
      <trkpt lat="45.34704674966633319854736328125" lon="-71.0088059864938259124755859375">
        <ele>933.5999755859375</ele>
        <time>2026-08-21T19:41:44.000Z</time>
        <extensions>
          <ns3:TrackPointExtension>
            <ns3:hr>131</ns3:hr>
            <ns3:cad>43</ns3:cad>
          </ns3:TrackPointExtension>
        </extensions>
      </trkpt>
      <trkpt lat="45.34705027006566524505615234375" lon="-71.00881059654057025909423828125">
        <ele>933.79998779296875</ele>
        <time>2026-08-21T19:41:45.000Z</time>
        <extensions>
          <ns3:TrackPointExtension>
            <ns3:hr>131</ns3:hr>
            <ns3:cad>43</ns3:cad>
          </ns3:TrackPointExtension>
        </extensions>
      </trkpt>
      <trkpt lat="45.34705161117017269134521484375" lon="-71.00881814025342464447021484375">
        <ele>934.20001220703125</ele>
        <time>2026-08-21T19:41:46.000Z</time>
        <extensions>
          <ns3:TrackPointExtension>
            <ns3:hr>132</ns3:hr>
            <ns3:cad>43</ns3:cad>
          </ns3:TrackPointExtension>
        </extensions>
      </trkpt>
      <trkpt lat="45.34705127589404582977294921875" lon="-71.00882367230951786041259765625">
        <ele>934.4000244140625</ele>
        <time>2026-08-21T19:41:47.000Z</time>
        <extensions>
          <ns3:TrackPointExtension>
            <ns3:hr>132</ns3:hr>
            <ns3:cad>77</ns3:cad>
          </ns3:TrackPointExtension>
        </extensions>
      </trkpt>
      <trkpt lat="45.34705261699855327606201171875" lon="-71.008831299841403961181640625">
        <ele>934.5999755859375</ele>
        <time>2026-08-21T19:41:48.000Z</time>
        <extensions>
          <ns3:TrackPointExtension>
            <ns3:hr>133</ns3:hr>
            <ns3:cad>77</ns3:cad>
          </ns3:TrackPointExtension>
        </extensions>
      </trkpt>
      <trkpt lat="45.34705102443695068359375" lon="-71.00884311832487583160400390625">
        <ele>934.79998779296875</ele>
        <time>2026-08-21T19:41:49.000Z</time>
        <extensions>
          <ns3:TrackPointExtension>
            <ns3:hr>134</ns3:hr>
            <ns3:cad>77</ns3:cad>
          </ns3:TrackPointExtension>
        </extensions>
      </trkpt>
      <trkpt lat="45.3470481745898723602294921875" lon="-71.00885082967579364776611328125">
        <ele>934.79998779296875</ele>
        <time>2026-08-21T19:41:50.000Z</time>
        <extensions>
          <ns3:TrackPointExtension>
            <ns3:hr>134</ns3:hr>
            <ns3:cad>77</ns3:cad>
          </ns3:TrackPointExtension>
        </extensions>
      </trkpt>
      <trkpt lat="45.34704674966633319854736328125" lon="-71.0088623128831386566162109375">
        <ele>935</ele>
        <time>2026-08-21T19:41:51.000Z</time>
        <extensions>
          <ns3:TrackPointExtension>
            <ns3:hr>134</ns3:hr>
            <ns3:cad>77</ns3:cad>
          </ns3:TrackPointExtension>
        </extensions>
      </trkpt>
      <trkpt lat="45.34704641439020633697509765625" lon="-71.008874215185642242431640625">
        <ele>935</ele>
        <time>2026-08-21T19:41:52.000Z</time>
        <extensions>
          <ns3:TrackPointExtension>
            <ns3:hr>135</ns3:hr>
            <ns3:cad>78</ns3:cad>
          </ns3:TrackPointExtension>
        </extensions>
      </trkpt>
      <trkpt lat="45.34704658202826976776123046875" lon="-71.00888854824006557464599609375">
        <ele>935.20001220703125</ele>
        <time>2026-08-21T19:41:53.000Z</time>
        <extensions>
          <ns3:TrackPointExtension>
            <ns3:hr>136</ns3:hr>
            <ns3:cad>78</ns3:cad>
          </ns3:TrackPointExtension>
        </extensions>
      </trkpt>
      <trkpt lat="45.347049348056316375732421875" lon="-71.00890271365642547607421875">
        <ele>935.20001220703125</ele>
        <time>2026-08-21T19:41:54.000Z</time>
        <extensions>
          <ns3:TrackPointExtension>
            <ns3:hr>136</ns3:hr>
            <ns3:cad>78</ns3:cad>
          </ns3:TrackPointExtension>
        </extensions>
      </trkpt>
      <trkpt lat="45.34705228172242641448974609375" lon="-71.00891687907278537750244140625">
        <ele>935.4000244140625</ele>
        <time>2026-08-21T19:41:55.000Z</time>
        <extensions>
          <ns3:TrackPointExtension>
            <ns3:hr>137</ns3:hr>
            <ns3:cad>78</ns3:cad>
          </ns3:TrackPointExtension>
        </extensions>
      </trkpt>
      <trkpt lat="45.34705596975982189178466796875" lon="-71.0089288651943206787109375">
        <ele>935.5999755859375</ele>
        <time>2026-08-21T19:41:56.000Z</time>
        <extensions>
          <ns3:TrackPointExtension>
            <ns3:hr>138</ns3:hr>
            <ns3:cad>78</ns3:cad>
          </ns3:TrackPointExtension>
        </extensions>
      </trkpt>
      <trkpt lat="45.34706016071140766143798828125" lon="-71.0089431144297122955322265625">
        <ele>935.79998779296875</ele>
        <time>2026-08-21T19:41:57.000Z</time>
        <extensions>
          <ns3:TrackPointExtension>
            <ns3:hr>139</ns3:hr>
            <ns3:cad>44</ns3:cad>
          </ns3:TrackPointExtension>
        </extensions>
      </trkpt>
      <trkpt lat="45.347064100205898284912109375" lon="-71.0089555196464061737060546875">
        <ele>936</ele>
        <time>2026-08-21T19:41:58.000Z</time>
        <extensions>
          <ns3:TrackPointExtension>
            <ns3:hr>139</ns3:hr>
            <ns3:cad>44</ns3:cad>
          </ns3:TrackPointExtension>
        </extensions>
      </trkpt>
      <trkpt lat="45.3470703028142452239990234375" lon="-71.0089662484824657440185546875">
        <ele>936.20001220703125</ele>
        <time>2026-08-21T19:41:59.000Z</time>
        <extensions>
          <ns3:TrackPointExtension>
            <ns3:hr>138</ns3:hr>
            <ns3:cad>44</ns3:cad>
          </ns3:TrackPointExtension>
        </extensions>
      </trkpt>
      <trkpt lat="45.34707583487033843994140625" lon="-71.00897756405174732208251953125">
        <ele>936.20001220703125</ele>
        <time>2026-08-21T19:42:00.000Z</time>
        <extensions>
          <ns3:TrackPointExtension>
            <ns3:hr>138</ns3:hr>
            <ns3:cad>44</ns3:cad>
          </ns3:TrackPointExtension>
        </extensions>
      </trkpt>
      <trkpt lat="45.3470830433070659637451171875" lon="-71.00898963399231433868408203125">
        <ele>936.4000244140625</ele>
        <time>2026-08-21T19:42:01.000Z</time>
        <extensions>
          <ns3:TrackPointExtension>
            <ns3:hr>138</ns3:hr>
            <ns3:cad>44</ns3:cad>
          </ns3:TrackPointExtension>
        </extensions>
      </trkpt>
      <trkpt lat="45.347090251743793487548828125" lon="-71.00900220684707164764404296875">
        <ele>936.5999755859375</ele>
        <time>2026-08-21T19:42:02.000Z</time>
        <extensions>
          <ns3:TrackPointExtension>
            <ns3:hr>138</ns3:hr>
            <ns3:cad>44</ns3:cad>
          </ns3:TrackPointExtension>
        </extensions>
      </trkpt>
      <trkpt lat="45.3470951132476329803466796875" lon="-71.009013690054416656494140625">
        <ele>936.5999755859375</ele>
        <time>2026-08-21T19:42:03.000Z</time>
        <extensions>
          <ns3:TrackPointExtension>
            <ns3:hr>138</ns3:hr>
            <ns3:cad>44</ns3:cad>
          </ns3:TrackPointExtension>
        </extensions>
      </trkpt>
      <trkpt lat="45.3470994718372821807861328125" lon="-71.00902668200433254241943359375">
        <ele>936.79998779296875</ele>
        <time>2026-08-21T19:42:04.000Z</time>
        <extensions>
          <ns3:TrackPointExtension>
            <ns3:hr>138</ns3:hr>
            <ns3:cad>44</ns3:cad>
          </ns3:TrackPointExtension>
        </extensions>
      </trkpt>
      <trkpt lat="45.3471031598746776580810546875" lon="-71.0090376622974872589111328125">
        <ele>937</ele>
        <time>2026-08-21T19:42:05.000Z</time>
        <extensions>
          <ns3:TrackPointExtension>
            <ns3:hr>138</ns3:hr>
            <ns3:cad>44</ns3:cad>
          </ns3:TrackPointExtension>
        </extensions>
      </trkpt>
      <trkpt lat="45.34710810519754886627197265625" lon="-71.00904780440032482147216796875">
        <ele>937</ele>
        <time>2026-08-21T19:42:06.000Z</time>
        <extensions>
          <ns3:TrackPointExtension>
            <ns3:hr>137</ns3:hr>
            <ns3:cad>47</ns3:cad>
          </ns3:TrackPointExtension>
        </extensions>
      </trkpt>
      <trkpt lat="45.34711531363427639007568359375" lon="-71.00905937142670154571533203125">
        <ele>937.20001220703125</ele>
        <time>2026-08-21T19:42:07.000Z</time>
        <extensions>
          <ns3:TrackPointExtension>
            <ns3:hr>138</ns3:hr>
            <ns3:cad>48</ns3:cad>
          </ns3:TrackPointExtension>
        </extensions>
      </trkpt>
      <trkpt lat="45.34712143242359161376953125" lon="-71.00907043553888797760009765625">
        <ele>937.20001220703125</ele>
        <time>2026-08-21T19:42:08.000Z</time>
        <extensions>
          <ns3:TrackPointExtension>
            <ns3:hr>138</ns3:hr>
            <ns3:cad>48</ns3:cad>
          </ns3:TrackPointExtension>
        </extensions>
      </trkpt>
      <trkpt lat="45.3471272997558116912841796875" lon="-71.0090795718133449554443359375">
        <ele>937.4000244140625</ele>
        <time>2026-08-21T19:42:09.000Z</time>
        <extensions>
          <ns3:TrackPointExtension>
            <ns3:hr>138</ns3:hr>
            <ns3:cad>48</ns3:cad>
          </ns3:TrackPointExtension>
        </extensions>
      </trkpt>
      <trkpt lat="45.34713492728769779205322265625" lon="-71.0090899653732776641845703125">
        <ele>937.5999755859375</ele>
        <time>2026-08-21T19:42:10.000Z</time>
        <extensions>
          <ns3:TrackPointExtension>
            <ns3:hr>138</ns3:hr>
            <ns3:cad>48</ns3:cad>
          </ns3:TrackPointExtension>
        </extensions>
      </trkpt>
      <trkpt lat="45.347147248685359954833984375" lon="-71.009096167981624603271484375">
        <ele>937.5999755859375</ele>
        <time>2026-08-21T19:42:11.000Z</time>
        <extensions>
          <ns3:TrackPointExtension>
            <ns3:hr>137</ns3:hr>
            <ns3:cad>49</ns3:cad>
          </ns3:TrackPointExtension>
        </extensions>
      </trkpt>
      <trkpt lat="45.34715588204562664031982421875" lon="-71.009102873504161834716796875">
        <ele>937.79998779296875</ele>
        <time>2026-08-21T19:42:12.000Z</time>
        <extensions>
          <ns3:TrackPointExtension>
            <ns3:hr>137</ns3:hr>
            <ns3:cad>49</ns3:cad>
          </ns3:TrackPointExtension>
        </extensions>
      </trkpt>
      <trkpt lat="45.34715739078819751739501953125" lon="-71.0091070644557476043701171875">
        <ele>938</ele>
        <time>2026-08-21T19:42:13.000Z</time>
        <extensions>
          <ns3:TrackPointExtension>
            <ns3:hr>137</ns3:hr>
            <ns3:cad>49</ns3:cad>
          </ns3:TrackPointExtension>
        </extensions>
      </trkpt>
      <trkpt lat="45.34716057591140270233154296875" lon="-71.00911586545407772064208984375">
        <ele>938.20001220703125</ele>
        <time>2026-08-21T19:42:14.000Z</time>
        <extensions>
          <ns3:TrackPointExtension>
            <ns3:hr>136</ns3:hr>
            <ns3:cad>50</ns3:cad>
          </ns3:TrackPointExtension>
        </extensions>
      </trkpt>
      <trkpt lat="45.347163341939449310302734375" lon="-71.0091218166053295135498046875">
        <ele>938.4000244140625</ele>
        <time>2026-08-21T19:42:15.000Z</time>
        <extensions>
          <ns3:TrackPointExtension>
            <ns3:hr>136</ns3:hr>
            <ns3:cad>50</ns3:cad>
          </ns3:TrackPointExtension>
        </extensions>
      </trkpt>
      <trkpt lat="45.3471651859581470489501953125" lon="-71.009131707251071929931640625">
        <ele>938.5999755859375</ele>
        <time>2026-08-21T19:42:16.000Z</time>
        <extensions>
          <ns3:TrackPointExtension>
            <ns3:hr>136</ns3:hr>
            <ns3:cad>50</ns3:cad>
          </ns3:TrackPointExtension>
        </extensions>
      </trkpt>
      <trkpt lat="45.3471692092716693878173828125" lon="-71.0091446153819561004638671875">
        <ele>938.79998779296875</ele>
        <time>2026-08-21T19:42:17.000Z</time>
        <extensions>
          <ns3:TrackPointExtension>
            <ns3:hr>136</ns3:hr>
            <ns3:cad>50</ns3:cad>
          </ns3:TrackPointExtension>
        </extensions>
      </trkpt>
      <trkpt lat="45.34717348404228687286376953125" lon="-71.00916028954088687896728515625">
        <ele>938.79998779296875</ele>
        <time>2026-08-21T19:42:18.000Z</time>
        <extensions>
          <ns3:TrackPointExtension>
            <ns3:hr>136</ns3:hr>
            <ns3:cad>44</ns3:cad>
          </ns3:TrackPointExtension>
        </extensions>
      </trkpt>
      <trkpt lat="45.34717365168035030364990234375" lon="-71.0091734491288661956787109375">
        <ele>938.79998779296875</ele>
        <time>2026-08-21T19:42:19.000Z</time>
        <extensions>
          <ns3:TrackPointExtension>
            <ns3:hr>136</ns3:hr>
            <ns3:cad>43</ns3:cad>
          </ns3:TrackPointExtension>
        </extensions>
      </trkpt>
      <trkpt lat="45.34717105329036712646484375" lon="-71.00918300449848175048828125">
        <ele>938.79998779296875</ele>
        <time>2026-08-21T19:42:20.000Z</time>
        <extensions>
          <ns3:TrackPointExtension>
            <ns3:hr>136</ns3:hr>
            <ns3:cad>43</ns3:cad>
          </ns3:TrackPointExtension>
        </extensions>
      </trkpt>
      <trkpt lat="45.34717650152742862701416015625" lon="-71.009197421371936798095703125">
        <ele>939</ele>
        <time>2026-08-21T19:42:21.000Z</time>
        <extensions>
          <ns3:TrackPointExtension>
            <ns3:hr>136</ns3:hr>
            <ns3:cad>41</ns3:cad>
          </ns3:TrackPointExtension>
        </extensions>
      </trkpt>
      <trkpt lat="45.3471775911748409271240234375" lon="-71.0092136822640895843505859375">
        <ele>939.20001220703125</ele>
        <time>2026-08-21T19:42:22.000Z</time>
        <extensions>
          <ns3:TrackPointExtension>
            <ns3:hr>136</ns3:hr>
            <ns3:cad>41</ns3:cad>
          </ns3:TrackPointExtension>
        </extensions>
      </trkpt>
      <trkpt lat="45.347180776298046112060546875" lon="-71.00922097451984882354736328125">
        <ele>939.20001220703125</ele>
        <time>2026-08-21T19:42:23.000Z</time>
        <extensions>
          <ns3:TrackPointExtension>
            <ns3:hr>136</ns3:hr>
            <ns3:cad>77</ns3:cad>
          </ns3:TrackPointExtension>
        </extensions>
      </trkpt>
      <trkpt lat="45.34718370996415615081787109375" lon="-71.00922935642302036285400390625">
        <ele>939.4000244140625</ele>
        <time>2026-08-21T19:42:24.000Z</time>
        <extensions>
          <ns3:TrackPointExtension>
            <ns3:hr>136</ns3:hr>
            <ns3:cad>77</ns3:cad>
          </ns3:TrackPointExtension>
        </extensions>
      </trkpt>
      <trkpt lat="45.3471863083541393280029296875" lon="-71.00922751240432262420654296875">
        <ele>939.5999755859375</ele>
        <time>2026-08-21T19:42:25.000Z</time>
        <extensions>
          <ns3:TrackPointExtension>
            <ns3:hr>136</ns3:hr>
            <ns3:cad>77</ns3:cad>
          </ns3:TrackPointExtension>
        </extensions>
      </trkpt>
      <trkpt lat="45.34719024784862995147705078125" lon="-71.00923723541200160980224609375">
        <ele>939.5999755859375</ele>
        <time>2026-08-21T19:42:26.000Z</time>
        <extensions>
          <ns3:TrackPointExtension>
            <ns3:hr>136</ns3:hr>
            <ns3:cad>77</ns3:cad>
          </ns3:TrackPointExtension>
        </extensions>
      </trkpt>
      <trkpt lat="45.347192846238613128662109375" lon="-71.00924511440098285675048828125">
        <ele>939.79998779296875</ele>
        <time>2026-08-21T19:42:27.000Z</time>
        <extensions>
          <ns3:TrackPointExtension>
            <ns3:hr>136</ns3:hr>
            <ns3:cad>77</ns3:cad>
          </ns3:TrackPointExtension>
        </extensions>
      </trkpt>
      <trkpt lat="45.34719460643827915191650390625" lon="-71.00924997590482234954833984375">
        <ele>939.79998779296875</ele>
        <time>2026-08-21T19:42:28.000Z</time>
        <extensions>
          <ns3:TrackPointExtension>
            <ns3:hr>136</ns3:hr>
            <ns3:cad>71</ns3:cad>
          </ns3:TrackPointExtension>
        </extensions>
      </trkpt>
      <trkpt lat="45.3471967019140720367431640625" lon="-71.009254418313503265380859375">
        <ele>940</ele>
        <time>2026-08-21T19:42:29.000Z</time>
        <extensions>
          <ns3:TrackPointExtension>
            <ns3:hr>136</ns3:hr>
            <ns3:cad>0</ns3:cad>
          </ns3:TrackPointExtension>
        </extensions>
      </trkpt>
      <trkpt lat="45.3472024016082286834716796875" lon="-71.009265482425689697265625">
        <ele>940.20001220703125</ele>
        <time>2026-08-21T19:42:30.000Z</time>
        <extensions>
          <ns3:TrackPointExtension>
            <ns3:hr>136</ns3:hr>
            <ns3:cad>0</ns3:cad>
          </ns3:TrackPointExtension>
        </extensions>
      </trkpt>
      <trkpt lat="45.34720550291240215301513671875" lon="-71.0092703439295291900634765625">
        <ele>940.4000244140625</ele>
        <time>2026-08-21T19:42:31.000Z</time>
        <extensions>
          <ns3:TrackPointExtension>
            <ns3:hr>135</ns3:hr>
            <ns3:cad>0</ns3:cad>
          </ns3:TrackPointExtension>
        </extensions>
      </trkpt>
      <trkpt lat="45.34720852039754390716552734375" lon="-71.00928400643169879913330078125">
        <ele>940.5999755859375</ele>
        <time>2026-08-21T19:42:32.000Z</time>
        <extensions>
          <ns3:TrackPointExtension>
            <ns3:hr>135</ns3:hr>
            <ns3:cad>0</ns3:cad>
          </ns3:TrackPointExtension>
        </extensions>
      </trkpt>
      <trkpt lat="45.3472111187875270843505859375" lon="-71.0092968307435512542724609375">
        <ele>940.79998779296875</ele>
        <time>2026-08-21T19:42:33.000Z</time>
        <extensions>
          <ns3:TrackPointExtension>
            <ns3:hr>134</ns3:hr>
            <ns3:cad>0</ns3:cad>
          </ns3:TrackPointExtension>
        </extensions>
      </trkpt>
      <trkpt lat="45.34721338190138339996337890625" lon="-71.00929406471550464630126953125">
        <ele>941</ele>
        <time>2026-08-21T19:42:34.000Z</time>
        <extensions>
          <ns3:TrackPointExtension>
            <ns3:hr>134</ns3:hr>
            <ns3:cad>0</ns3:cad>
          </ns3:TrackPointExtension>
        </extensions>
      </trkpt>
      <trkpt lat="45.34721338190138339996337890625" lon="-71.00929431617259979248046875">
        <ele>941.4000244140625</ele>
        <time>2026-08-21T19:42:35.000Z</time>
        <extensions>
          <ns3:TrackPointExtension>
            <ns3:hr>133</ns3:hr>
            <ns3:cad>0</ns3:cad>
          </ns3:TrackPointExtension>
        </extensions>
      </trkpt>
      <trkpt lat="45.3472164832055568695068359375" lon="-71.0093043744564056396484375">
        <ele>941.5999755859375</ele>
        <time>2026-08-21T19:42:36.000Z</time>
        <extensions>
          <ns3:TrackPointExtension>
            <ns3:hr>133</ns3:hr>
            <ns3:cad>0</ns3:cad>
          </ns3:TrackPointExtension>
        </extensions>
      </trkpt>
      <trkpt lat="45.347217656672000885009765625" lon="-71.00931032560765743255615234375">
        <ele>941.79998779296875</ele>
        <time>2026-08-21T19:42:37.000Z</time>
        <extensions>
          <ns3:TrackPointExtension>
            <ns3:hr>133</ns3:hr>
            <ns3:cad>0</ns3:cad>
          </ns3:TrackPointExtension>
        </extensions>
      </trkpt>
      <trkpt lat="45.34721958450973033905029296875" lon="-71.0093219764530658721923828125">
        <ele>942</ele>
        <time>2026-08-21T19:42:38.000Z</time>
        <extensions>
          <ns3:TrackPointExtension>
            <ns3:hr>132</ns3:hr>
            <ns3:cad>0</ns3:cad>
          </ns3:TrackPointExtension>
        </extensions>
      </trkpt>
      <trkpt lat="45.3472228534519672393798828125" lon="-71.00933312438428401947021484375">
        <ele>942.20001220703125</ele>
        <time>2026-08-21T19:42:39.000Z</time>
        <extensions>
          <ns3:TrackPointExtension>
            <ns3:hr>131</ns3:hr>
            <ns3:cad>0</ns3:cad>
          </ns3:TrackPointExtension>
        </extensions>
      </trkpt>
      <trkpt lat="45.347220338881015777587890625" lon="-71.0093471221625804901123046875">
        <ele>942.4000244140625</ele>
        <time>2026-08-21T19:42:40.000Z</time>
        <extensions>
          <ns3:TrackPointExtension>
            <ns3:hr>131</ns3:hr>
            <ns3:cad>0</ns3:cad>
          </ns3:TrackPointExtension>
        </extensions>
      </trkpt>
      <trkpt lat="45.34721924923360347747802734375" lon="-71.0093595273792743682861328125">
        <ele>942.5999755859375</ele>
        <time>2026-08-21T19:42:41.000Z</time>
        <extensions>
          <ns3:TrackPointExtension>
            <ns3:hr>131</ns3:hr>
            <ns3:cad>0</ns3:cad>
          </ns3:TrackPointExtension>
        </extensions>
      </trkpt>
      <trkpt lat="45.34722344018518924713134765625" lon="-71.00936430506408214569091796875">
        <ele>942.79998779296875</ele>
        <time>2026-08-21T19:42:42.000Z</time>
        <extensions>
          <ns3:TrackPointExtension>
            <ns3:hr>132</ns3:hr>
            <ns3:cad>0</ns3:cad>
          </ns3:TrackPointExtension>
        </extensions>
      </trkpt>
      <trkpt lat="45.34722645767033100128173828125" lon="-71.009378470480442047119140625">
        <ele>943</ele>
        <time>2026-08-21T19:42:43.000Z</time>
        <extensions>
          <ns3:TrackPointExtension>
            <ns3:hr>132</ns3:hr>
            <ns3:cad>0</ns3:cad>
          </ns3:TrackPointExtension>
        </extensions>
      </trkpt>
      <trkpt lat="45.3472332470118999481201171875" lon="-71.0093866847455501556396484375">
        <ele>943.20001220703125</ele>
        <time>2026-08-21T19:42:44.000Z</time>
        <extensions>
          <ns3:TrackPointExtension>
            <ns3:hr>132</ns3:hr>
            <ns3:cad>0</ns3:cad>
          </ns3:TrackPointExtension>
        </extensions>
      </trkpt>
      <trkpt lat="45.3472352586686611175537109375" lon="-71.00939397700130939483642578125">
        <ele>943.5999755859375</ele>
        <time>2026-08-21T19:42:45.000Z</time>
        <extensions>
          <ns3:TrackPointExtension>
            <ns3:hr>132</ns3:hr>
            <ns3:cad>40</ns3:cad>
          </ns3:TrackPointExtension>
        </extensions>
      </trkpt>
      <trkpt lat="45.34724137745797634124755859375" lon="-71.00940789096057415008544921875">
        <ele>943.5999755859375</ele>
        <time>2026-08-21T19:42:46.000Z</time>
        <extensions>
          <ns3:TrackPointExtension>
            <ns3:hr>132</ns3:hr>
            <ns3:cad>40</ns3:cad>
          </ns3:TrackPointExtension>
        </extensions>
      </trkpt>
      <trkpt lat="45.3472439758479595184326171875" lon="-71.00941878743469715118408203125">
        <ele>943.79998779296875</ele>
        <time>2026-08-21T19:42:47.000Z</time>
        <extensions>
          <ns3:TrackPointExtension>
            <ns3:hr>132</ns3:hr>
            <ns3:cad>40</ns3:cad>
          </ns3:TrackPointExtension>
        </extensions>
      </trkpt>
      <trkpt lat="45.34724808298051357269287109375" lon="-71.00943203084170818328857421875">
        <ele>944</ele>
        <time>2026-08-21T19:42:48.000Z</time>
        <extensions>
          <ns3:TrackPointExtension>
            <ns3:hr>131</ns3:hr>
            <ns3:cad>0</ns3:cad>
          </ns3:TrackPointExtension>
        </extensions>
      </trkpt>
      <trkpt lat="45.34725151956081390380859375" lon="-71.00944326259195804595947265625">
        <ele>944.20001220703125</ele>
        <time>2026-08-21T19:42:49.000Z</time>
        <extensions>
          <ns3:TrackPointExtension>
            <ns3:hr>131</ns3:hr>
            <ns3:cad>0</ns3:cad>
          </ns3:TrackPointExtension>
        </extensions>
      </trkpt>
      <trkpt lat="45.3472567163407802581787109375" lon="-71.0094490461051464080810546875">
        <ele>944.20001220703125</ele>
        <time>2026-08-21T19:42:50.000Z</time>
        <extensions>
          <ns3:TrackPointExtension>
            <ns3:hr>131</ns3:hr>
            <ns3:cad>0</ns3:cad>
          </ns3:TrackPointExtension>
        </extensions>
      </trkpt>
      <trkpt lat="45.34725579433143138885498046875" lon="-71.00945793092250823974609375">
        <ele>944.4000244140625</ele>
        <time>2026-08-21T19:42:51.000Z</time>
        <extensions>
          <ns3:TrackPointExtension>
            <ns3:hr>131</ns3:hr>
            <ns3:cad>0</ns3:cad>
          </ns3:TrackPointExtension>
        </extensions>
      </trkpt>
      <trkpt lat="45.347255878150463104248046875" lon="-71.0094706714153289794921875">
        <ele>944.5999755859375</ele>
        <time>2026-08-21T19:42:52.000Z</time>
        <extensions>
          <ns3:TrackPointExtension>
            <ns3:hr>131</ns3:hr>
            <ns3:cad>0</ns3:cad>
          </ns3:TrackPointExtension>
        </extensions>
      </trkpt>
      <trkpt lat="45.34725780598819255828857421875" lon="-71.0094829089939594268798828125">
        <ele>944.79998779296875</ele>
        <time>2026-08-21T19:42:53.000Z</time>
        <extensions>
          <ns3:TrackPointExtension>
            <ns3:hr>132</ns3:hr>
            <ns3:cad>0</ns3:cad>
          </ns3:TrackPointExtension>
        </extensions>
      </trkpt>
      <trkpt lat="45.34725881181657314300537109375" lon="-71.00948877632617950439453125">
        <ele>944.79998779296875</ele>
        <time>2026-08-21T19:42:54.000Z</time>
        <extensions>
          <ns3:TrackPointExtension>
            <ns3:hr>133</ns3:hr>
            <ns3:cad>0</ns3:cad>
          </ns3:TrackPointExtension>
        </extensions>
      </trkpt>
      <trkpt lat="45.3472630865871906280517578125" lon="-71.009503193199634552001953125">
        <ele>945</ele>
        <time>2026-08-21T19:42:55.000Z</time>
        <extensions>
          <ns3:TrackPointExtension>
            <ns3:hr>133</ns3:hr>
            <ns3:cad>0</ns3:cad>
          </ns3:TrackPointExtension>
        </extensions>
      </trkpt>
      <trkpt lat="45.34726317040622234344482421875" lon="-71.00951098836958408355712890625">
        <ele>945.20001220703125</ele>
        <time>2026-08-21T19:42:56.000Z</time>
        <extensions>
          <ns3:TrackPointExtension>
            <ns3:hr>133</ns3:hr>
            <ns3:cad>0</ns3:cad>
          </ns3:TrackPointExtension>
        </extensions>
      </trkpt>
      <trkpt lat="45.34726317040622234344482421875" lon="-71.00951098836958408355712890625">
        <ele>945.5999755859375</ele>
        <time>2026-08-21T19:42:57.000Z</time>
        <extensions>
          <ns3:TrackPointExtension>
            <ns3:hr>133</ns3:hr>
            <ns3:cad>0</ns3:cad>
          </ns3:TrackPointExtension>
        </extensions>
      </trkpt>
      <trkpt lat="45.34726417623460292816162109375" lon="-71.0095110721886157989501953125">
        <ele>945.79998779296875</ele>
        <time>2026-08-21T19:42:58.000Z</time>
        <extensions>
          <ns3:TrackPointExtension>
            <ns3:hr>133</ns3:hr>
            <ns3:cad>0</ns3:cad>
          </ns3:TrackPointExtension>
        </extensions>
      </trkpt>
      <trkpt lat="45.34726317040622234344482421875" lon="-71.00951098836958408355712890625">
        <ele>946</ele>
        <time>2026-08-21T19:42:59.000Z</time>
        <extensions>
          <ns3:TrackPointExtension>
            <ns3:hr>134</ns3:hr>
            <ns3:cad>0</ns3:cad>
          </ns3:TrackPointExtension>
        </extensions>
      </trkpt>
      <trkpt lat="45.34726317040622234344482421875" lon="-71.00951098836958408355712890625">
        <ele>946.20001220703125</ele>
        <time>2026-08-21T19:43:00.000Z</time>
        <extensions>
          <ns3:TrackPointExtension>
            <ns3:hr>134</ns3:hr>
            <ns3:cad>0</ns3:cad>
          </ns3:TrackPointExtension>
        </extensions>
      </trkpt>
      <trkpt lat="45.3472647629678249359130859375" lon="-71.00952004082500934600830078125">
        <ele>946.4000244140625</ele>
        <time>2026-08-21T19:43:01.000Z</time>
        <extensions>
          <ns3:TrackPointExtension>
            <ns3:hr>134</ns3:hr>
            <ns3:cad>0</ns3:cad>
          </ns3:TrackPointExtension>
        </extensions>
      </trkpt>
      <trkpt lat="45.3472634218633174896240234375" lon="-71.00952506996691226959228515625">
        <ele>946.5999755859375</ele>
        <time>2026-08-21T19:43:02.000Z</time>
        <extensions>
          <ns3:TrackPointExtension>
            <ns3:hr>134</ns3:hr>
            <ns3:cad>0</ns3:cad>
          </ns3:TrackPointExtension>
        </extensions>
      </trkpt>
      <trkpt lat="45.347266606986522674560546875" lon="-71.0095375590026378631591796875">
        <ele>946.79998779296875</ele>
        <time>2026-08-21T19:43:03.000Z</time>
        <extensions>
          <ns3:TrackPointExtension>
            <ns3:hr>134</ns3:hr>
            <ns3:cad>0</ns3:cad>
          </ns3:TrackPointExtension>
        </extensions>
      </trkpt>
      <trkpt lat="45.347269959747791290283203125" lon="-71.00954568944871425628662109375">
        <ele>947</ele>
        <time>2026-08-21T19:43:04.000Z</time>
        <extensions>
          <ns3:TrackPointExtension>
            <ns3:hr>134</ns3:hr>
            <ns3:cad>0</ns3:cad>
          </ns3:TrackPointExtension>
        </extensions>
      </trkpt>
      <trkpt lat="45.34727356396615505218505859375" lon="-71.00955457426607608795166015625">
        <ele>947.20001220703125</ele>
        <time>2026-08-21T19:43:05.000Z</time>
        <extensions>
          <ns3:TrackPointExtension>
            <ns3:hr>134</ns3:hr>
            <ns3:cad>0</ns3:cad>
          </ns3:TrackPointExtension>
        </extensions>
      </trkpt>
      <trkpt lat="45.34727825783193111419677734375" lon="-71.00956295616924762725830078125">
        <ele>947.5999755859375</ele>
        <time>2026-08-21T19:43:06.000Z</time>
        <extensions>
          <ns3:TrackPointExtension>
            <ns3:hr>135</ns3:hr>
            <ns3:cad>0</ns3:cad>
          </ns3:TrackPointExtension>
        </extensions>
      </trkpt>
      <trkpt lat="45.34727792255580425262451171875" lon="-71.0095657221972942352294921875">
        <ele>947.79998779296875</ele>
        <time>2026-08-21T19:43:07.000Z</time>
        <extensions>
          <ns3:TrackPointExtension>
            <ns3:hr>135</ns3:hr>
            <ns3:cad>0</ns3:cad>
          </ns3:TrackPointExtension>
        </extensions>
      </trkpt>
      <trkpt lat="45.3472857177257537841796875" lon="-71.00956949405372142791748046875">
        <ele>948</ele>
        <time>2026-08-21T19:43:08.000Z</time>
        <extensions>
          <ns3:TrackPointExtension>
            <ns3:hr>136</ns3:hr>
            <ns3:cad>0</ns3:cad>
          </ns3:TrackPointExtension>
        </extensions>
      </trkpt>
      <trkpt lat="45.34729166887700557708740234375" lon="-71.009573601186275482177734375">
        <ele>948.20001220703125</ele>
        <time>2026-08-21T19:43:09.000Z</time>
        <extensions>
          <ns3:TrackPointExtension>
            <ns3:hr>136</ns3:hr>
            <ns3:cad>0</ns3:cad>
          </ns3:TrackPointExtension>
        </extensions>
      </trkpt>
      <trkpt lat="45.3472996316850185394287109375" lon="-71.0095841623842716217041015625">
        <ele>948.4000244140625</ele>
        <time>2026-08-21T19:43:10.000Z</time>
        <extensions>
          <ns3:TrackPointExtension>
            <ns3:hr>136</ns3:hr>
            <ns3:cad>0</ns3:cad>
          </ns3:TrackPointExtension>
        </extensions>
      </trkpt>
      <trkpt lat="45.34730256535112857818603515625" lon="-71.00959480740129947662353515625">
        <ele>948.5999755859375</ele>
        <time>2026-08-21T19:43:11.000Z</time>
        <extensions>
          <ns3:TrackPointExtension>
            <ns3:hr>136</ns3:hr>
            <ns3:cad>0</ns3:cad>
          </ns3:TrackPointExtension>
        </extensions>
      </trkpt>
      <trkpt lat="45.3473043255507946014404296875" lon="-71.009599082171916961669921875">
        <ele>948.79998779296875</ele>
        <time>2026-08-21T19:43:12.000Z</time>
        <extensions>
          <ns3:TrackPointExtension>
            <ns3:hr>136</ns3:hr>
            <ns3:cad>0</ns3:cad>
          </ns3:TrackPointExtension>
        </extensions>
      </trkpt>
      <trkpt lat="45.34730650484561920166015625" lon="-71.00960972718894481658935546875">
        <ele>949</ele>
        <time>2026-08-21T19:43:13.000Z</time>
        <extensions>
          <ns3:TrackPointExtension>
            <ns3:hr>137</ns3:hr>
            <ns3:cad>0</ns3:cad>
          </ns3:TrackPointExtension>
        </extensions>
      </trkpt>
      <trkpt lat="45.34731094725430011749267578125" lon="-71.00962129421532154083251953125">
        <ele>949.20001220703125</ele>
        <time>2026-08-21T19:43:14.000Z</time>
        <extensions>
          <ns3:TrackPointExtension>
            <ns3:hr>137</ns3:hr>
            <ns3:cad>0</ns3:cad>
          </ns3:TrackPointExtension>
        </extensions>
      </trkpt>
      <trkpt lat="45.34731731750071048736572265625" lon="-71.00962917320430278778076171875">
        <ele>949.4000244140625</ele>
        <time>2026-08-21T19:43:15.000Z</time>
        <extensions>
          <ns3:TrackPointExtension>
            <ns3:hr>136</ns3:hr>
            <ns3:cad>0</ns3:cad>
          </ns3:TrackPointExtension>
        </extensions>
      </trkpt>
      <trkpt lat="45.3473194129765033721923828125" lon="-71.0096316039562225341796875">
        <ele>949.4000244140625</ele>
        <time>2026-08-21T19:43:16.000Z</time>
        <extensions>
          <ns3:TrackPointExtension>
            <ns3:hr>136</ns3:hr>
            <ns3:cad>0</ns3:cad>
          </ns3:TrackPointExtension>
        </extensions>
      </trkpt>
      <trkpt lat="45.3473251126706600189208984375" lon="-71.00964409299194812774658203125">
        <ele>949.5999755859375</ele>
        <time>2026-08-21T19:43:17.000Z</time>
        <extensions>
          <ns3:TrackPointExtension>
            <ns3:hr>136</ns3:hr>
            <ns3:cad>20</ns3:cad>
          </ns3:TrackPointExtension>
        </extensions>
      </trkpt>
      <trkpt lat="45.3473314829170703887939453125" lon="-71.00965549238026142120361328125">
        <ele>949.79998779296875</ele>
        <time>2026-08-21T19:43:18.000Z</time>
        <extensions>
          <ns3:TrackPointExtension>
            <ns3:hr>136</ns3:hr>
            <ns3:cad>20</ns3:cad>
          </ns3:TrackPointExtension>
        </extensions>
      </trkpt>
      <trkpt lat="45.3473381884396076202392578125" lon="-71.00965566001832485198974609375">
        <ele>949.79998779296875</ele>
        <time>2026-08-21T19:43:19.000Z</time>
        <extensions>
          <ns3:TrackPointExtension>
            <ns3:hr>136</ns3:hr>
            <ns3:cad>41</ns3:cad>
          </ns3:TrackPointExtension>
        </extensions>
      </trkpt>
      <trkpt lat="45.34734296612441539764404296875" lon="-71.00966119207441806793212890625">
        <ele>950</ele>
        <time>2026-08-21T19:43:20.000Z</time>
        <extensions>
          <ns3:TrackPointExtension>
            <ns3:hr>136</ns3:hr>
            <ns3:cad>41</ns3:cad>
          </ns3:TrackPointExtension>
        </extensions>
      </trkpt>
      <trkpt lat="45.347349755465984344482421875" lon="-71.00967544130980968475341796875">
        <ele>950.20001220703125</ele>
        <time>2026-08-21T19:43:21.000Z</time>
        <extensions>
          <ns3:TrackPointExtension>
            <ns3:hr>136</ns3:hr>
            <ns3:cad>45</ns3:cad>
          </ns3:TrackPointExtension>
        </extensions>
      </trkpt>
      <trkpt lat="45.3473536111414432525634765625" lon="-71.00967208854854106903076171875">
        <ele>950.4000244140625</ele>
        <time>2026-08-21T19:43:22.000Z</time>
        <extensions>
          <ns3:TrackPointExtension>
            <ns3:hr>137</ns3:hr>
            <ns3:cad>45</ns3:cad>
          </ns3:TrackPointExtension>
        </extensions>
      </trkpt>
      <trkpt lat="45.347355119884014129638671875" lon="-71.0096844099462032318115234375">
        <ele>950.5999755859375</ele>
        <time>2026-08-21T19:43:23.000Z</time>
        <extensions>
          <ns3:TrackPointExtension>
            <ns3:hr>136</ns3:hr>
            <ns3:cad>45</ns3:cad>
          </ns3:TrackPointExtension>
        </extensions>
      </trkpt>
      <trkpt lat="45.34735553897917270660400390625" lon="-71.009688265621662139892578125">
        <ele>950.79998779296875</ele>
        <time>2026-08-21T19:43:24.000Z</time>
        <extensions>
          <ns3:TrackPointExtension>
            <ns3:hr>136</ns3:hr>
            <ns3:cad>0</ns3:cad>
          </ns3:TrackPointExtension>
        </extensions>
      </trkpt>
      <trkpt lat="45.34736241213977336883544921875" lon="-71.00969119928777217864990234375">
        <ele>951</ele>
        <time>2026-08-21T19:43:25.000Z</time>
        <extensions>
          <ns3:TrackPointExtension>
            <ns3:hr>136</ns3:hr>
            <ns3:cad>0</ns3:cad>
          </ns3:TrackPointExtension>
        </extensions>
      </trkpt>
      <trkpt lat="45.34736760891973972320556640625" lon="-71.00970427505671977996826171875">
        <ele>951.20001220703125</ele>
        <time>2026-08-21T19:43:26.000Z</time>
        <extensions>
          <ns3:TrackPointExtension>
            <ns3:hr>136</ns3:hr>
            <ns3:cad>0</ns3:cad>
          </ns3:TrackPointExtension>
        </extensions>
      </trkpt>
      <trkpt lat="45.34737045876681804656982421875" lon="-71.00971064530313014984130859375">
        <ele>951.4000244140625</ele>
        <time>2026-08-21T19:43:27.000Z</time>
        <extensions>
          <ns3:TrackPointExtension>
            <ns3:hr>136</ns3:hr>
            <ns3:cad>0</ns3:cad>
          </ns3:TrackPointExtension>
        </extensions>
      </trkpt>
      <trkpt lat="45.34736928530037403106689453125" lon="-71.0097162611782550811767578125">
        <ele>951.5999755859375</ele>
        <time>2026-08-21T19:43:28.000Z</time>
        <extensions>
          <ns3:TrackPointExtension>
            <ns3:hr>135</ns3:hr>
            <ns3:cad>0</ns3:cad>
          </ns3:TrackPointExtension>
        </extensions>
      </trkpt>
      <trkpt lat="45.3473663516342639923095703125" lon="-71.009732186794281005859375">
        <ele>951.79998779296875</ele>
        <time>2026-08-21T19:43:29.000Z</time>
        <extensions>
          <ns3:TrackPointExtension>
            <ns3:hr>135</ns3:hr>
            <ns3:cad>0</ns3:cad>
          </ns3:TrackPointExtension>
        </extensions>
      </trkpt>
      <trkpt lat="45.34736861474812030792236328125" lon="-71.009740568697452545166015625">
        <ele>951.79998779296875</ele>
        <time>2026-08-21T19:43:30.000Z</time>
        <extensions>
          <ns3:TrackPointExtension>
            <ns3:hr>134</ns3:hr>
            <ns3:cad>0</ns3:cad>
          </ns3:TrackPointExtension>
        </extensions>
      </trkpt>
      <trkpt lat="45.34737062640488147735595703125" lon="-71.0097507946193218231201171875">
        <ele>952</ele>
        <time>2026-08-21T19:43:31.000Z</time>
        <extensions>
          <ns3:TrackPointExtension>
            <ns3:hr>135</ns3:hr>
            <ns3:cad>0</ns3:cad>
          </ns3:TrackPointExtension>
        </extensions>
      </trkpt>
      <trkpt lat="45.347373895347118377685546875" lon="-71.0097568295896053314208984375">
        <ele>952.20001220703125</ele>
        <time>2026-08-21T19:43:32.000Z</time>
        <extensions>
          <ns3:TrackPointExtension>
            <ns3:hr>135</ns3:hr>
            <ns3:cad>0</ns3:cad>
          </ns3:TrackPointExtension>
        </extensions>
      </trkpt>
      <trkpt lat="45.3473743982613086700439453125" lon="-71.00976236164569854736328125">
        <ele>952.4000244140625</ele>
        <time>2026-08-21T19:43:33.000Z</time>
        <extensions>
          <ns3:TrackPointExtension>
            <ns3:hr>135</ns3:hr>
            <ns3:cad>0</ns3:cad>
          </ns3:TrackPointExtension>
        </extensions>
      </trkpt>
      <trkpt lat="45.34737582318484783172607421875" lon="-71.00976169109344482421875">
        <ele>952.5999755859375</ele>
        <time>2026-08-21T19:43:34.000Z</time>
        <extensions>
          <ns3:TrackPointExtension>
            <ns3:hr>135</ns3:hr>
            <ns3:cad>0</ns3:cad>
          </ns3:TrackPointExtension>
        </extensions>
      </trkpt>
      <trkpt lat="45.34738504327833652496337890625" lon="-71.009762026369571685791015625">
        <ele>952.79998779296875</ele>
        <time>2026-08-21T19:43:35.000Z</time>
        <extensions>
          <ns3:TrackPointExtension>
            <ns3:hr>134</ns3:hr>
            <ns3:cad>0</ns3:cad>
          </ns3:TrackPointExtension>
        </extensions>
      </trkpt>
      <trkpt lat="45.34739091061055660247802734375" lon="-71.00976814515888690948486328125">
        <ele>953</ele>
        <time>2026-08-21T19:43:36.000Z</time>
        <extensions>
          <ns3:TrackPointExtension>
            <ns3:hr>135</ns3:hr>
            <ns3:cad>0</ns3:cad>
          </ns3:TrackPointExtension>
        </extensions>
      </trkpt>
      <trkpt lat="45.34739677794277667999267578125" lon="-71.00977317430078983306884765625">
        <ele>953.20001220703125</ele>
        <time>2026-08-21T19:43:37.000Z</time>
        <extensions>
          <ns3:TrackPointExtension>
            <ns3:hr>135</ns3:hr>
            <ns3:cad>0</ns3:cad>
          </ns3:TrackPointExtension>
        </extensions>
      </trkpt>
      <trkpt lat="45.34739728085696697235107421875" lon="-71.00978038273751735687255859375">
        <ele>953.4000244140625</ele>
        <time>2026-08-21T19:43:38.000Z</time>
        <extensions>
          <ns3:TrackPointExtension>
            <ns3:hr>135</ns3:hr>
            <ns3:cad>0</ns3:cad>
          </ns3:TrackPointExtension>
        </extensions>
      </trkpt>
      <trkpt lat="45.3473992086946964263916015625" lon="-71.00978842936456203460693359375">
        <ele>953.5999755859375</ele>
        <time>2026-08-21T19:43:39.000Z</time>
        <extensions>
          <ns3:TrackPointExtension>
            <ns3:hr>134</ns3:hr>
            <ns3:cad>0</ns3:cad>
          </ns3:TrackPointExtension>
        </extensions>
      </trkpt>
      <trkpt lat="45.34739610739052295684814453125" lon="-71.00980720482766628265380859375">
        <ele>953.79998779296875</ele>
        <time>2026-08-21T19:43:40.000Z</time>
        <extensions>
          <ns3:TrackPointExtension>
            <ns3:hr>134</ns3:hr>
            <ns3:cad>0</ns3:cad>
          </ns3:TrackPointExtension>
        </extensions>
      </trkpt>
      <trkpt lat="45.347397029399871826171875" lon="-71.0098144970834255218505859375">
        <ele>954</ele>
        <time>2026-08-21T19:43:41.000Z</time>
        <extensions>
          <ns3:TrackPointExtension>
            <ns3:hr>134</ns3:hr>
            <ns3:cad>60</ns3:cad>
          </ns3:TrackPointExtension>
        </extensions>
      </trkpt>
      <trkpt lat="45.34740230999886989593505859375" lon="-71.00982195697724819183349609375">
        <ele>954.20001220703125</ele>
        <time>2026-08-21T19:43:42.000Z</time>
        <extensions>
          <ns3:TrackPointExtension>
            <ns3:hr>134</ns3:hr>
            <ns3:cad>60</ns3:cad>
          </ns3:TrackPointExtension>
        </extensions>
      </trkpt>
      <trkpt lat="45.34740650095045566558837890625" lon="-71.009819693863391876220703125">
        <ele>954.4000244140625</ele>
        <time>2026-08-21T19:43:43.000Z</time>
        <extensions>
          <ns3:TrackPointExtension>
            <ns3:hr>134</ns3:hr>
            <ns3:cad>0</ns3:cad>
          </ns3:TrackPointExtension>
        </extensions>
      </trkpt>
      <trkpt lat="45.347409434616565704345703125" lon="-71.00983017124235630035400390625">
        <ele>954.4000244140625</ele>
        <time>2026-08-21T19:43:44.000Z</time>
        <extensions>
          <ns3:TrackPointExtension>
            <ns3:hr>135</ns3:hr>
            <ns3:cad>0</ns3:cad>
          </ns3:TrackPointExtension>
        </extensions>
      </trkpt>
      <trkpt lat="45.3474139608442783355712890625" lon="-71.00984391756355762481689453125">
        <ele>954.5999755859375</ele>
        <time>2026-08-21T19:43:45.000Z</time>
        <extensions>
          <ns3:TrackPointExtension>
            <ns3:hr>135</ns3:hr>
            <ns3:cad>0</ns3:cad>
          </ns3:TrackPointExtension>
        </extensions>
      </trkpt>
      <trkpt lat="45.34741639159619808197021484375" lon="-71.00984341464936733245849609375">
        <ele>954.79998779296875</ele>
        <time>2026-08-21T19:43:46.000Z</time>
        <extensions>
          <ns3:TrackPointExtension>
            <ns3:hr>135</ns3:hr>
            <ns3:cad>0</ns3:cad>
          </ns3:TrackPointExtension>
        </extensions>
      </trkpt>
      <trkpt lat="45.34741890616714954376220703125" lon="-71.0098520480096340179443359375">
        <ele>955</ele>
        <time>2026-08-21T19:43:47.000Z</time>
        <extensions>
          <ns3:TrackPointExtension>
            <ns3:hr>135</ns3:hr>
            <ns3:cad>0</ns3:cad>
          </ns3:TrackPointExtension>
        </extensions>
      </trkpt>
      <trkpt lat="45.3474246896803379058837890625" lon="-71.0098657943308353424072265625">
        <ele>955.20001220703125</ele>
        <time>2026-08-21T19:43:48.000Z</time>
        <extensions>
          <ns3:TrackPointExtension>
            <ns3:hr>136</ns3:hr>
            <ns3:cad>0</ns3:cad>
          </ns3:TrackPointExtension>
        </extensions>
      </trkpt>
      <trkpt lat="45.34742653369903564453125" lon="-71.00987073965370655059814453125">
        <ele>955.20001220703125</ele>
        <time>2026-08-21T19:43:49.000Z</time>
        <extensions>
          <ns3:TrackPointExtension>
            <ns3:hr>136</ns3:hr>
            <ns3:cad>0</ns3:cad>
          </ns3:TrackPointExtension>
        </extensions>
      </trkpt>
      <trkpt lat="45.3474273718893527984619140625" lon="-71.00987509824335575103759765625">
        <ele>955.4000244140625</ele>
        <time>2026-08-21T19:43:50.000Z</time>
        <extensions>
          <ns3:TrackPointExtension>
            <ns3:hr>136</ns3:hr>
            <ns3:cad>0</ns3:cad>
          </ns3:TrackPointExtension>
        </extensions>
      </trkpt>
      <trkpt lat="45.34742879681289196014404296875" lon="-71.00988029502332210540771484375">
        <ele>955.5999755859375</ele>
        <time>2026-08-21T19:43:51.000Z</time>
        <extensions>
          <ns3:TrackPointExtension>
            <ns3:hr>136</ns3:hr>
            <ns3:cad>0</ns3:cad>
          </ns3:TrackPointExtension>
        </extensions>
      </trkpt>
      <trkpt lat="45.34743550233542919158935546875" lon="-71.0098895989358425140380859375">
        <ele>956</ele>
        <time>2026-08-21T19:43:52.000Z</time>
        <extensions>
          <ns3:TrackPointExtension>
            <ns3:hr>136</ns3:hr>
            <ns3:cad>0</ns3:cad>
          </ns3:TrackPointExtension>
        </extensions>
      </trkpt>
      <trkpt lat="45.34744371660053730010986328125" lon="-71.009889431297779083251953125">
        <ele>956.20001220703125</ele>
        <time>2026-08-21T19:43:53.000Z</time>
        <extensions>
          <ns3:TrackPointExtension>
            <ns3:hr>136</ns3:hr>
            <ns3:cad>0</ns3:cad>
          </ns3:TrackPointExtension>
        </extensions>
      </trkpt>
      <trkpt lat="45.347451008856296539306640625" lon="-71.00989253260195255279541015625">
        <ele>956.4000244140625</ele>
        <time>2026-08-21T19:43:54.000Z</time>
        <extensions>
          <ns3:TrackPointExtension>
            <ns3:hr>135</ns3:hr>
            <ns3:cad>0</ns3:cad>
          </ns3:TrackPointExtension>
        </extensions>
      </trkpt>
      <trkpt lat="45.34745696000754833221435546875" lon="-71.0099013336002826690673828125">
        <ele>956.5999755859375</ele>
        <time>2026-08-21T19:43:55.000Z</time>
        <extensions>
          <ns3:TrackPointExtension>
            <ns3:hr>135</ns3:hr>
            <ns3:cad>0</ns3:cad>
          </ns3:TrackPointExtension>
        </extensions>
      </trkpt>
      <trkpt lat="45.34745897166430950164794921875" lon="-71.00990996696054935455322265625">
        <ele>956.79998779296875</ele>
        <time>2026-08-21T19:43:56.000Z</time>
        <extensions>
          <ns3:TrackPointExtension>
            <ns3:hr>135</ns3:hr>
            <ns3:cad>0</ns3:cad>
          </ns3:TrackPointExtension>
        </extensions>
      </trkpt>
      <trkpt lat="45.34746400080621242523193359375" lon="-71.00991792976856231689453125">
        <ele>957</ele>
        <time>2026-08-21T19:43:57.000Z</time>
        <extensions>
          <ns3:TrackPointExtension>
            <ns3:hr>135</ns3:hr>
            <ns3:cad>0</ns3:cad>
          </ns3:TrackPointExtension>
        </extensions>
      </trkpt>
      <trkpt lat="45.3474722988903522491455078125" lon="-71.00993477739393711090087890625">
        <ele>957.20001220703125</ele>
        <time>2026-08-21T19:43:58.000Z</time>
        <extensions>
          <ns3:TrackPointExtension>
            <ns3:hr>134</ns3:hr>
            <ns3:cad>0</ns3:cad>
          </ns3:TrackPointExtension>
        </extensions>
      </trkpt>
      <trkpt lat="45.34747925586998462677001953125" lon="-71.00994852371513843536376953125">
        <ele>957.20001220703125</ele>
        <time>2026-08-21T19:43:59.000Z</time>
        <extensions>
          <ns3:TrackPointExtension>
            <ns3:hr>134</ns3:hr>
            <ns3:cad>0</ns3:cad>
          </ns3:TrackPointExtension>
        </extensions>
      </trkpt>
      <trkpt lat="45.34748378209769725799560546875" lon="-71.00995321758091449737548828125">
        <ele>957.4000244140625</ele>
        <time>2026-08-21T19:44:00.000Z</time>
        <extensions>
          <ns3:TrackPointExtension>
            <ns3:hr>134</ns3:hr>
            <ns3:cad>0</ns3:cad>
          </ns3:TrackPointExtension>
        </extensions>
      </trkpt>
      <trkpt lat="45.34749484620988368988037109375" lon="-71.009957827627658843994140625">
        <ele>957.4000244140625</ele>
        <time>2026-08-21T19:44:01.000Z</time>
        <extensions>
          <ns3:TrackPointExtension>
            <ns3:hr>134</ns3:hr>
            <ns3:cad>0</ns3:cad>
          </ns3:TrackPointExtension>
        </extensions>
      </trkpt>
      <trkpt lat="45.3474984504282474517822265625" lon="-71.00996428169310092926025390625">
        <ele>957.5999755859375</ele>
        <time>2026-08-21T19:44:02.000Z</time>
        <extensions>
          <ns3:TrackPointExtension>
            <ns3:hr>134</ns3:hr>
            <ns3:cad>0</ns3:cad>
          </ns3:TrackPointExtension>
        </extensions>
      </trkpt>
      <trkpt lat="45.34750490449368953704833984375" lon="-71.009975261986255645751953125">
        <ele>957.79998779296875</ele>
        <time>2026-08-21T19:44:03.000Z</time>
        <extensions>
          <ns3:TrackPointExtension>
            <ns3:hr>135</ns3:hr>
            <ns3:cad>0</ns3:cad>
          </ns3:TrackPointExtension>
        </extensions>
      </trkpt>
      <trkpt lat="45.34750238992273807525634765625" lon="-71.00998875685036182403564453125">
        <ele>957.79998779296875</ele>
        <time>2026-08-21T19:44:04.000Z</time>
        <extensions>
          <ns3:TrackPointExtension>
            <ns3:hr>134</ns3:hr>
            <ns3:cad>0</ns3:cad>
          </ns3:TrackPointExtension>
        </extensions>
      </trkpt>
      <trkpt lat="45.347505323588848114013671875" lon="-71.00999948568642139434814453125">
        <ele>958</ele>
        <time>2026-08-21T19:44:05.000Z</time>
        <extensions>
          <ns3:TrackPointExtension>
            <ns3:hr>134</ns3:hr>
            <ns3:cad>0</ns3:cad>
          </ns3:TrackPointExtension>
        </extensions>
      </trkpt>
      <trkpt lat="45.34750767052173614501953125" lon="-71.0100019164383411407470703125">
        <ele>958.20001220703125</ele>
        <time>2026-08-21T19:44:06.000Z</time>
        <extensions>
          <ns3:TrackPointExtension>
            <ns3:hr>135</ns3:hr>
            <ns3:cad>0</ns3:cad>
          </ns3:TrackPointExtension>
        </extensions>
      </trkpt>
      <trkpt lat="45.34751211293041706085205078125" lon="-71.0100136511027812957763671875">
        <ele>958.4000244140625</ele>
        <time>2026-08-21T19:44:07.000Z</time>
        <extensions>
          <ns3:TrackPointExtension>
            <ns3:hr>135</ns3:hr>
            <ns3:cad>0</ns3:cad>
          </ns3:TrackPointExtension>
        </extensions>
      </trkpt>
      <trkpt lat="45.347510017454624176025390625" lon="-71.01001926697790622711181640625">
        <ele>958.5999755859375</ele>
        <time>2026-08-21T19:44:08.000Z</time>
        <extensions>
          <ns3:TrackPointExtension>
            <ns3:hr>135</ns3:hr>
            <ns3:cad>0</ns3:cad>
          </ns3:TrackPointExtension>
        </extensions>
      </trkpt>
      <trkpt lat="45.3475111909210681915283203125" lon="-71.010023541748523712158203125">
        <ele>958.79998779296875</ele>
        <time>2026-08-21T19:44:09.000Z</time>
        <extensions>
          <ns3:TrackPointExtension>
            <ns3:hr>135</ns3:hr>
            <ns3:cad>0</ns3:cad>
          </ns3:TrackPointExtension>
        </extensions>
      </trkpt>
      <trkpt lat="45.34751479513943195343017578125" lon="-71.010044328868389129638671875">
        <ele>959</ele>
        <time>2026-08-21T19:44:10.000Z</time>
        <extensions>
          <ns3:TrackPointExtension>
            <ns3:hr>136</ns3:hr>
            <ns3:cad>0</ns3:cad>
          </ns3:TrackPointExtension>
        </extensions>
      </trkpt>
      <trkpt lat="45.3475155495107173919677734375" lon="-71.0100542195141315460205078125">
        <ele>959.20001220703125</ele>
        <time>2026-08-21T19:44:11.000Z</time>
        <extensions>
          <ns3:TrackPointExtension>
            <ns3:hr>136</ns3:hr>
            <ns3:cad>0</ns3:cad>
          </ns3:TrackPointExtension>
        </extensions>
      </trkpt>
      <trkpt lat="45.34751429222524166107177734375" lon="-71.01006436161696910858154296875">
        <ele>959.4000244140625</ele>
        <time>2026-08-21T19:44:12.000Z</time>
        <extensions>
          <ns3:TrackPointExtension>
            <ns3:hr>136</ns3:hr>
            <ns3:cad>0</ns3:cad>
          </ns3:TrackPointExtension>
        </extensions>
      </trkpt>
      <trkpt lat="45.34751839935779571533203125" lon="-71.0100713185966014862060546875">
        <ele>959.5999755859375</ele>
        <time>2026-08-21T19:44:13.000Z</time>
        <extensions>
          <ns3:TrackPointExtension>
            <ns3:hr>136</ns3:hr>
            <ns3:cad>0</ns3:cad>
          </ns3:TrackPointExtension>
        </extensions>
      </trkpt>
      <trkpt lat="45.3475232608616352081298828125" lon="-71.0100783593952655792236328125">
        <ele>959.79998779296875</ele>
        <time>2026-08-21T19:44:14.000Z</time>
        <extensions>
          <ns3:TrackPointExtension>
            <ns3:hr>136</ns3:hr>
            <ns3:cad>0</ns3:cad>
          </ns3:TrackPointExtension>
        </extensions>
      </trkpt>
      <trkpt lat="45.3475366719067096710205078125" lon="-71.01009168662130832672119140625">
        <ele>960</ele>
        <time>2026-08-21T19:44:15.000Z</time>
        <extensions>
          <ns3:TrackPointExtension>
            <ns3:hr>136</ns3:hr>
            <ns3:cad>0</ns3:cad>
          </ns3:TrackPointExtension>
        </extensions>
      </trkpt>
      <trkpt lat="45.34752854146063327789306640625" lon="-71.0100848972797393798828125">
        <ele>960.20001220703125</ele>
        <time>2026-08-21T19:44:16.000Z</time>
        <extensions>
          <ns3:TrackPointExtension>
            <ns3:hr>136</ns3:hr>
            <ns3:cad>0</ns3:cad>
          </ns3:TrackPointExtension>
        </extensions>
      </trkpt>
      <trkpt lat="45.3475343249738216400146484375" lon="-71.01009654812514781951904296875">
        <ele>960.4000244140625</ele>
        <time>2026-08-21T19:44:17.000Z</time>
        <extensions>
          <ns3:TrackPointExtension>
            <ns3:hr>137</ns3:hr>
            <ns3:cad>0</ns3:cad>
          </ns3:TrackPointExtension>
        </extensions>
      </trkpt>
      <trkpt lat="45.347534827888011932373046875" lon="-71.0101041756570339202880859375">
        <ele>960.5999755859375</ele>
        <time>2026-08-21T19:44:18.000Z</time>
        <extensions>
          <ns3:TrackPointExtension>
            <ns3:hr>137</ns3:hr>
            <ns3:cad>0</ns3:cad>
          </ns3:TrackPointExtension>
        </extensions>
      </trkpt>
      <trkpt lat="45.347539521753787994384765625" lon="-71.010113060474395751953125">
        <ele>960.79998779296875</ele>
        <time>2026-08-21T19:44:19.000Z</time>
        <extensions>
          <ns3:TrackPointExtension>
            <ns3:hr>137</ns3:hr>
            <ns3:cad>0</ns3:cad>
          </ns3:TrackPointExtension>
        </extensions>
      </trkpt>
      <trkpt lat="45.34754748456180095672607421875" lon="-71.01012253202497959136962890625">
        <ele>961</ele>
        <time>2026-08-21T19:44:20.000Z</time>
        <extensions>
          <ns3:TrackPointExtension>
            <ns3:hr>136</ns3:hr>
            <ns3:cad>0</ns3:cad>
          </ns3:TrackPointExtension>
        </extensions>
      </trkpt>
      <trkpt lat="45.3475423716008663177490234375" lon="-71.01013342849910259246826171875">
        <ele>961.20001220703125</ele>
        <time>2026-08-21T19:44:21.000Z</time>
        <extensions>
          <ns3:TrackPointExtension>
            <ns3:hr>137</ns3:hr>
            <ns3:cad>0</ns3:cad>
          </ns3:TrackPointExtension>
        </extensions>
      </trkpt>
      <trkpt lat="45.34754522144794464111328125" lon="-71.010142900049686431884765625">
        <ele>961.4000244140625</ele>
        <time>2026-08-21T19:44:22.000Z</time>
        <extensions>
          <ns3:TrackPointExtension>
            <ns3:hr>137</ns3:hr>
            <ns3:cad>52</ns3:cad>
          </ns3:TrackPointExtension>
        </extensions>
      </trkpt>
      <trkpt lat="45.3475514240562915802001953125" lon="-71.01015320979058742523193359375">
        <ele>961.5999755859375</ele>
        <time>2026-08-21T19:44:23.000Z</time>
        <extensions>
          <ns3:TrackPointExtension>
            <ns3:hr>137</ns3:hr>
            <ns3:cad>52</ns3:cad>
          </ns3:TrackPointExtension>
        </extensions>
      </trkpt>
      <trkpt lat="45.347554273903369903564453125" lon="-71.0101618431508541107177734375">
        <ele>961.79998779296875</ele>
        <time>2026-08-21T19:44:24.000Z</time>
        <extensions>
          <ns3:TrackPointExtension>
            <ns3:hr>137</ns3:hr>
            <ns3:cad>52</ns3:cad>
          </ns3:TrackPointExtension>
        </extensions>
      </trkpt>
      <trkpt lat="45.34755905158817768096923828125" lon="-71.01016812957823276519775390625">
        <ele>962</ele>
        <time>2026-08-21T19:44:25.000Z</time>
        <extensions>
          <ns3:TrackPointExtension>
            <ns3:hr>137</ns3:hr>
            <ns3:cad>0</ns3:cad>
          </ns3:TrackPointExtension>
        </extensions>
      </trkpt>
      <trkpt lat="45.347566343843936920166015625" lon="-71.01017466746270656585693359375">
        <ele>962.20001220703125</ele>
        <time>2026-08-21T19:44:26.000Z</time>
        <extensions>
          <ns3:TrackPointExtension>
            <ns3:hr>136</ns3:hr>
            <ns3:cad>0</ns3:cad>
          </ns3:TrackPointExtension>
        </extensions>
      </trkpt>
      <trkpt lat="45.34757296554744243621826171875" lon="-71.0101816244423389434814453125">
        <ele>962.20001220703125</ele>
        <time>2026-08-21T19:44:27.000Z</time>
        <extensions>
          <ns3:TrackPointExtension>
            <ns3:hr>137</ns3:hr>
            <ns3:cad>0</ns3:cad>
          </ns3:TrackPointExtension>
        </extensions>
      </trkpt>
      <trkpt lat="45.34757799468934535980224609375" lon="-71.01018841378390789031982421875">
        <ele>962.4000244140625</ele>
        <time>2026-08-21T19:44:28.000Z</time>
        <extensions>
          <ns3:TrackPointExtension>
            <ns3:hr>137</ns3:hr>
            <ns3:cad>0</ns3:cad>
          </ns3:TrackPointExtension>
        </extensions>
      </trkpt>
      <trkpt lat="45.3475809283554553985595703125" lon="-71.01019042544066905975341796875">
        <ele>962.79998779296875</ele>
        <time>2026-08-21T19:44:29.000Z</time>
        <extensions>
          <ns3:TrackPointExtension>
            <ns3:hr>137</ns3:hr>
            <ns3:cad>0</ns3:cad>
          </ns3:TrackPointExtension>
        </extensions>
      </trkpt>
      <trkpt lat="45.3475886397063732147216796875" lon="-71.010199226438999176025390625">
        <ele>963</ele>
        <time>2026-08-21T19:44:30.000Z</time>
        <extensions>
          <ns3:TrackPointExtension>
            <ns3:hr>138</ns3:hr>
            <ns3:cad>0</ns3:cad>
          </ns3:TrackPointExtension>
        </extensions>
      </trkpt>
      <trkpt lat="45.34759484231472015380859375" lon="-71.0102034173905849456787109375">
        <ele>963.20001220703125</ele>
        <time>2026-08-21T19:44:31.000Z</time>
        <extensions>
          <ns3:TrackPointExtension>
            <ns3:hr>138</ns3:hr>
            <ns3:cad>0</ns3:cad>
          </ns3:TrackPointExtension>
        </extensions>
      </trkpt>
      <trkpt lat="45.347605235874652862548828125" lon="-71.0102081112563610076904296875">
        <ele>963.4000244140625</ele>
        <time>2026-08-21T19:44:32.000Z</time>
        <extensions>
          <ns3:TrackPointExtension>
            <ns3:hr>138</ns3:hr>
            <ns3:cad>0</ns3:cad>
          </ns3:TrackPointExtension>
        </extensions>
      </trkpt>
      <trkpt lat="45.34761068411171436309814453125" lon="-71.0102128051221370697021484375">
        <ele>963.5999755859375</ele>
        <time>2026-08-21T19:44:33.000Z</time>
        <extensions>
          <ns3:TrackPointExtension>
            <ns3:hr>138</ns3:hr>
            <ns3:cad>0</ns3:cad>
          </ns3:TrackPointExtension>
        </extensions>
      </trkpt>
      <trkpt lat="45.3476156294345855712890625" lon="-71.01022026501595973968505859375">
        <ele>963.5999755859375</ele>
        <time>2026-08-21T19:44:34.000Z</time>
        <extensions>
          <ns3:TrackPointExtension>
            <ns3:hr>138</ns3:hr>
            <ns3:cad>0</ns3:cad>
          </ns3:TrackPointExtension>
        </extensions>
      </trkpt>
      <trkpt lat="45.347613953053951263427734375" lon="-71.010225377976894378662109375">
        <ele>963.79998779296875</ele>
        <time>2026-08-21T19:44:35.000Z</time>
        <extensions>
          <ns3:TrackPointExtension>
            <ns3:hr>138</ns3:hr>
            <ns3:cad>0</ns3:cad>
          </ns3:TrackPointExtension>
        </extensions>
      </trkpt>
      <trkpt lat="45.3476161323487758636474609375" lon="-71.0102297365665435791015625">
        <ele>964</ele>
        <time>2026-08-21T19:44:36.000Z</time>
        <extensions>
          <ns3:TrackPointExtension>
            <ns3:hr>138</ns3:hr>
            <ns3:cad>0</ns3:cad>
          </ns3:TrackPointExtension>
        </extensions>
      </trkpt>
      <trkpt lat="45.34761973656713962554931640625" lon="-71.0102376155555248260498046875">
        <ele>964.20001220703125</ele>
        <time>2026-08-21T19:44:37.000Z</time>
        <extensions>
          <ns3:TrackPointExtension>
            <ns3:hr>138</ns3:hr>
            <ns3:cad>0</ns3:cad>
          </ns3:TrackPointExtension>
        </extensions>
      </trkpt>
      <trkpt lat="45.34761755727231502532958984375" lon="-71.01024926640093326568603515625">
        <ele>964.4000244140625</ele>
        <time>2026-08-21T19:44:38.000Z</time>
        <extensions>
          <ns3:TrackPointExtension>
            <ns3:hr>138</ns3:hr>
            <ns3:cad>0</ns3:cad>
          </ns3:TrackPointExtension>
        </extensions>
      </trkpt>
      <trkpt lat="45.34761940129101276397705078125" lon="-71.01025580428540706634521484375">
        <ele>964.5999755859375</ele>
        <time>2026-08-21T19:44:39.000Z</time>
        <extensions>
          <ns3:TrackPointExtension>
            <ns3:hr>137</ns3:hr>
            <ns3:cad>0</ns3:cad>
          </ns3:TrackPointExtension>
        </extensions>
      </trkpt>
      <trkpt lat="45.3476236760616302490234375" lon="-71.0102657787501811981201171875">
        <ele>964.79998779296875</ele>
        <time>2026-08-21T19:44:40.000Z</time>
        <extensions>
          <ns3:TrackPointExtension>
            <ns3:hr>137</ns3:hr>
            <ns3:cad>0</ns3:cad>
          </ns3:TrackPointExtension>
        </extensions>
      </trkpt>
      <trkpt lat="45.3476282022893428802490234375" lon="-71.0102753341197967529296875">
        <ele>965</ele>
        <time>2026-08-21T19:44:41.000Z</time>
        <extensions>
          <ns3:TrackPointExtension>
            <ns3:hr>137</ns3:hr>
            <ns3:cad>0</ns3:cad>
          </ns3:TrackPointExtension>
        </extensions>
      </trkpt>
      <trkpt lat="45.34762962721288204193115234375" lon="-71.01028312928974628448486328125">
        <ele>965</ele>
        <time>2026-08-21T19:44:42.000Z</time>
        <extensions>
          <ns3:TrackPointExtension>
            <ns3:hr>137</ns3:hr>
            <ns3:cad>0</ns3:cad>
          </ns3:TrackPointExtension>
        </extensions>
      </trkpt>
      <trkpt lat="45.3476317226886749267578125" lon="-71.01028807461261749267578125">
        <ele>965.20001220703125</ele>
        <time>2026-08-21T19:44:43.000Z</time>
        <extensions>
          <ns3:TrackPointExtension>
            <ns3:hr>137</ns3:hr>
            <ns3:cad>0</ns3:cad>
          </ns3:TrackPointExtension>
        </extensions>
      </trkpt>
      <trkpt lat="45.34763800911605358123779296875" lon="-71.01029536686837673187255859375">
        <ele>965.4000244140625</ele>
        <time>2026-08-21T19:44:44.000Z</time>
        <extensions>
          <ns3:TrackPointExtension>
            <ns3:hr>137</ns3:hr>
            <ns3:cad>61</ns3:cad>
          </ns3:TrackPointExtension>
        </extensions>
      </trkpt>
      <trkpt lat="45.34763935022056102752685546875" lon="-71.010303497314453125">
        <ele>965.5999755859375</ele>
        <time>2026-08-21T19:44:45.000Z</time>
        <extensions>
          <ns3:TrackPointExtension>
            <ns3:hr>136</ns3:hr>
            <ns3:cad>61</ns3:cad>
          </ns3:TrackPointExtension>
        </extensions>
      </trkpt>
      <trkpt lat="45.34764387644827365875244140625" lon="-71.01031146012246608734130859375">
        <ele>965.79998779296875</ele>
        <time>2026-08-21T19:44:46.000Z</time>
        <extensions>
          <ns3:TrackPointExtension>
            <ns3:hr>136</ns3:hr>
            <ns3:cad>61</ns3:cad>
          </ns3:TrackPointExtension>
        </extensions>
      </trkpt>
      <trkpt lat="45.3476483188569545745849609375" lon="-71.010318584740161895751953125">
        <ele>965.79998779296875</ele>
        <time>2026-08-21T19:44:47.000Z</time>
        <extensions>
          <ns3:TrackPointExtension>
            <ns3:hr>136</ns3:hr>
            <ns3:cad>0</ns3:cad>
          </ns3:TrackPointExtension>
        </extensions>
      </trkpt>
      <trkpt lat="45.34765292890369892120361328125" lon="-71.01032520644366741180419921875">
        <ele>966</ele>
        <time>2026-08-21T19:44:48.000Z</time>
        <extensions>
          <ns3:TrackPointExtension>
            <ns3:hr>136</ns3:hr>
            <ns3:cad>0</ns3:cad>
          </ns3:TrackPointExtension>
        </extensions>
      </trkpt>
      <trkpt lat="45.34765812568366527557373046875" lon="-71.01033224724233150482177734375">
        <ele>966.20001220703125</ele>
        <time>2026-08-21T19:44:49.000Z</time>
        <extensions>
          <ns3:TrackPointExtension>
            <ns3:hr>136</ns3:hr>
            <ns3:cad>0</ns3:cad>
          </ns3:TrackPointExtension>
        </extensions>
      </trkpt>
      <trkpt lat="45.3476650826632976531982421875" lon="-71.01033442653715610504150390625">
        <ele>966.20001220703125</ele>
        <time>2026-08-21T19:44:50.000Z</time>
        <extensions>
          <ns3:TrackPointExtension>
            <ns3:hr>136</ns3:hr>
            <ns3:cad>0</ns3:cad>
          </ns3:TrackPointExtension>
        </extensions>
      </trkpt>
      <trkpt lat="45.34767128527164459228515625" lon="-71.01033375598490238189697265625">
        <ele>966.4000244140625</ele>
        <time>2026-08-21T19:44:51.000Z</time>
        <extensions>
          <ns3:TrackPointExtension>
            <ns3:hr>136</ns3:hr>
            <ns3:cad>0</ns3:cad>
          </ns3:TrackPointExtension>
        </extensions>
      </trkpt>
      <trkpt lat="45.34769006073474884033203125" lon="-71.01033308543264865875244140625">
        <ele>966.5999755859375</ele>
        <time>2026-08-21T19:44:52.000Z</time>
        <extensions>
          <ns3:TrackPointExtension>
            <ns3:hr>136</ns3:hr>
            <ns3:cad>0</ns3:cad>
          </ns3:TrackPointExtension>
        </extensions>
      </trkpt>
      <trkpt lat="45.34769567660987377166748046875" lon="-71.0103338398039340972900390625">
        <ele>966.79998779296875</ele>
        <time>2026-08-21T19:44:53.000Z</time>
        <extensions>
          <ns3:TrackPointExtension>
            <ns3:hr>136</ns3:hr>
            <ns3:cad>0</ns3:cad>
          </ns3:TrackPointExtension>
        </extensions>
      </trkpt>
      <trkpt lat="45.34770322032272815704345703125" lon="-71.0103370249271392822265625">
        <ele>966.79998779296875</ele>
        <time>2026-08-21T19:44:54.000Z</time>
        <extensions>
          <ns3:TrackPointExtension>
            <ns3:hr>136</ns3:hr>
            <ns3:cad>0</ns3:cad>
          </ns3:TrackPointExtension>
        </extensions>
      </trkpt>
      <trkpt lat="45.34770824946463108062744140625" lon="-71.01034180261194705963134765625">
        <ele>967</ele>
        <time>2026-08-21T19:44:55.000Z</time>
        <extensions>
          <ns3:TrackPointExtension>
            <ns3:hr>136</ns3:hr>
            <ns3:cad>0</ns3:cad>
          </ns3:TrackPointExtension>
        </extensions>
      </trkpt>
      <trkpt lat="45.34770506434142589569091796875" lon="-71.01034666411578655242919921875">
        <ele>967.20001220703125</ele>
        <time>2026-08-21T19:44:56.000Z</time>
        <extensions>
          <ns3:TrackPointExtension>
            <ns3:hr>136</ns3:hr>
            <ns3:cad>0</ns3:cad>
          </ns3:TrackPointExtension>
        </extensions>
      </trkpt>
      <trkpt lat="45.34770539961755275726318359375" lon="-71.01035119034349918365478515625">
        <ele>967.4000244140625</ele>
        <time>2026-08-21T19:44:57.000Z</time>
        <extensions>
          <ns3:TrackPointExtension>
            <ns3:hr>137</ns3:hr>
            <ns3:cad>0</ns3:cad>
          </ns3:TrackPointExtension>
        </extensions>
      </trkpt>
      <trkpt lat="45.347708500921726226806640625" lon="-71.01035789586603641510009765625">
        <ele>967.4000244140625</ele>
        <time>2026-08-21T19:44:58.000Z</time>
        <extensions>
          <ns3:TrackPointExtension>
            <ns3:hr>137</ns3:hr>
            <ns3:cad>0</ns3:cad>
          </ns3:TrackPointExtension>
        </extensions>
      </trkpt>
      <trkpt lat="45.34770841710269451141357421875" lon="-71.0103512741625308990478515625">
        <ele>967.5999755859375</ele>
        <time>2026-08-21T19:44:59.000Z</time>
        <extensions>
          <ns3:TrackPointExtension>
            <ns3:hr>138</ns3:hr>
            <ns3:cad>0</ns3:cad>
          </ns3:TrackPointExtension>
        </extensions>
      </trkpt>
      <trkpt lat="45.34770573489367961883544921875" lon="-71.01034482009708881378173828125">
        <ele>968</ele>
        <time>2026-08-21T19:45:00.000Z</time>
        <extensions>
          <ns3:TrackPointExtension>
            <ns3:hr>138</ns3:hr>
            <ns3:cad>0</ns3:cad>
          </ns3:TrackPointExtension>
        </extensions>
      </trkpt>
      <trkpt lat="45.347702801227569580078125" lon="-71.01034716702997684478759765625">
        <ele>968.20001220703125</ele>
        <time>2026-08-21T19:45:01.000Z</time>
        <extensions>
          <ns3:TrackPointExtension>
            <ns3:hr>138</ns3:hr>
            <ns3:cad>0</ns3:cad>
          </ns3:TrackPointExtension>
        </extensions>
      </trkpt>
      <trkpt lat="45.34770405851304531097412109375" lon="-71.01035454310476779937744140625">
        <ele>968.4000244140625</ele>
        <time>2026-08-21T19:45:02.000Z</time>
        <extensions>
          <ns3:TrackPointExtension>
            <ns3:hr>138</ns3:hr>
            <ns3:cad>0</ns3:cad>
          </ns3:TrackPointExtension>
        </extensions>
      </trkpt>
      <trkpt lat="45.34770120866596698760986328125" lon="-71.01036862470209598541259765625">
        <ele>968.4000244140625</ele>
        <time>2026-08-21T19:45:03.000Z</time>
        <extensions>
          <ns3:TrackPointExtension>
            <ns3:hr>138</ns3:hr>
            <ns3:cad>0</ns3:cad>
          </ns3:TrackPointExtension>
        </extensions>
      </trkpt>
      <trkpt lat="45.3477012924849987030029296875" lon="-71.01037382148206233978271484375">
        <ele>968.5999755859375</ele>
        <time>2026-08-21T19:45:04.000Z</time>
        <extensions>
          <ns3:TrackPointExtension>
            <ns3:hr>138</ns3:hr>
            <ns3:cad>0</ns3:cad>
          </ns3:TrackPointExtension>
        </extensions>
      </trkpt>
      <trkpt lat="45.34770338796079158782958984375" lon="-71.010384298861026763916015625">
        <ele>968.79998779296875</ele>
        <time>2026-08-21T19:45:05.000Z</time>
        <extensions>
          <ns3:TrackPointExtension>
            <ns3:hr>137</ns3:hr>
            <ns3:cad>0</ns3:cad>
          </ns3:TrackPointExtension>
        </extensions>
      </trkpt>
      <trkpt lat="45.34769919700920581817626953125" lon="-71.01038865745067596435546875">
        <ele>969</ele>
        <time>2026-08-21T19:45:06.000Z</time>
        <extensions>
          <ns3:TrackPointExtension>
            <ns3:hr>138</ns3:hr>
            <ns3:cad>0</ns3:cad>
          </ns3:TrackPointExtension>
        </extensions>
      </trkpt>
      <trkpt lat="45.3476955927908420562744140625" lon="-71.01039846427738666534423828125">
        <ele>969.20001220703125</ele>
        <time>2026-08-21T19:45:07.000Z</time>
        <extensions>
          <ns3:TrackPointExtension>
            <ns3:hr>137</ns3:hr>
            <ns3:cad>0</ns3:cad>
          </ns3:TrackPointExtension>
        </extensions>
      </trkpt>
      <trkpt lat="45.34769450314342975616455078125" lon="-71.0103985480964183807373046875">
        <ele>969.4000244140625</ele>
        <time>2026-08-21T19:45:08.000Z</time>
        <extensions>
          <ns3:TrackPointExtension>
            <ns3:hr>137</ns3:hr>
            <ns3:cad>0</ns3:cad>
          </ns3:TrackPointExtension>
        </extensions>
      </trkpt>
      <trkpt lat="45.3476885519921779632568359375" lon="-71.010413132607936859130859375">
        <ele>969.5999755859375</ele>
        <time>2026-08-21T19:45:09.000Z</time>
        <extensions>
          <ns3:TrackPointExtension>
            <ns3:hr>137</ns3:hr>
            <ns3:cad>0</ns3:cad>
          </ns3:TrackPointExtension>
        </extensions>
      </trkpt>
      <trkpt lat="45.34768712706863880157470703125" lon="-71.0104206763207912445068359375">
        <ele>969.79998779296875</ele>
        <time>2026-08-21T19:45:10.000Z</time>
        <extensions>
          <ns3:TrackPointExtension>
            <ns3:hr>137</ns3:hr>
            <ns3:cad>40</ns3:cad>
          </ns3:TrackPointExtension>
        </extensions>
      </trkpt>
      <trkpt lat="45.34768595360219478607177734375" lon="-71.01043417118489742279052734375">
        <ele>970.20001220703125</ele>
        <time>2026-08-21T19:45:11.000Z</time>
        <extensions>
          <ns3:TrackPointExtension>
            <ns3:hr>137</ns3:hr>
            <ns3:cad>41</ns3:cad>
          </ns3:TrackPointExtension>
        </extensions>
      </trkpt>
      <trkpt lat="45.3476825170218944549560546875" lon="-71.010453365743160247802734375">
        <ele>970.4000244140625</ele>
        <time>2026-08-21T19:45:12.000Z</time>
        <extensions>
          <ns3:TrackPointExtension>
            <ns3:hr>138</ns3:hr>
            <ns3:cad>41</ns3:cad>
          </ns3:TrackPointExtension>
        </extensions>
      </trkpt>
      <trkpt lat="45.3476835228502750396728515625" lon="-71.010468788444995880126953125">
        <ele>970.5999755859375</ele>
        <time>2026-08-21T19:45:13.000Z</time>
        <extensions>
          <ns3:TrackPointExtension>
            <ns3:hr>138</ns3:hr>
            <ns3:cad>81</ns3:cad>
          </ns3:TrackPointExtension>
        </extensions>
      </trkpt>
      <trkpt lat="45.3476831875741481781005859375" lon="-71.01048714481294155120849609375">
        <ele>970.5999755859375</ele>
        <time>2026-08-21T19:45:14.000Z</time>
        <extensions>
          <ns3:TrackPointExtension>
            <ns3:hr>138</ns3:hr>
            <ns3:cad>81</ns3:cad>
          </ns3:TrackPointExtension>
        </extensions>
      </trkpt>
      <trkpt lat="45.3476818464696407318115234375" lon="-71.01050558499991893768310546875">
        <ele>970.5999755859375</ele>
        <time>2026-08-21T19:45:15.000Z</time>
        <extensions>
          <ns3:TrackPointExtension>
            <ns3:hr>138</ns3:hr>
            <ns3:cad>75</ns3:cad>
          </ns3:TrackPointExtension>
        </extensions>
      </trkpt>
      <trkpt lat="45.34767891280353069305419921875" lon="-71.0105229355394840240478515625">
        <ele>970.79998779296875</ele>
        <time>2026-08-21T19:45:16.000Z</time>
        <extensions>
          <ns3:TrackPointExtension>
            <ns3:hr>138</ns3:hr>
            <ns3:cad>75</ns3:cad>
          </ns3:TrackPointExtension>
        </extensions>
      </trkpt>
      <trkpt lat="45.34767924807965755462646484375" lon="-71.01053559221327304840087890625">
        <ele>970.79998779296875</ele>
        <time>2026-08-21T19:45:17.000Z</time>
        <extensions>
          <ns3:TrackPointExtension>
            <ns3:hr>139</ns3:hr>
            <ns3:cad>75</ns3:cad>
          </ns3:TrackPointExtension>
        </extensions>
      </trkpt>
      <trkpt lat="45.347677655518054962158203125" lon="-71.01055168546736240386962890625">
        <ele>971</ele>
        <time>2026-08-21T19:45:18.000Z</time>
        <extensions>
          <ns3:TrackPointExtension>
            <ns3:hr>140</ns3:hr>
            <ns3:cad>43</ns3:cad>
          </ns3:TrackPointExtension>
        </extensions>
      </trkpt>
      <trkpt lat="45.3476771526038646697998046875" lon="-71.0105685330927371978759765625">
        <ele>971.20001220703125</ele>
        <time>2026-08-21T19:45:19.000Z</time>
        <extensions>
          <ns3:TrackPointExtension>
            <ns3:hr>140</ns3:hr>
            <ns3:cad>43</ns3:cad>
          </ns3:TrackPointExtension>
        </extensions>
      </trkpt>
      <trkpt lat="45.347673632204532623291015625" lon="-71.01058521308004856109619140625">
        <ele>971.4000244140625</ele>
        <time>2026-08-21T19:45:20.000Z</time>
        <extensions>
          <ns3:TrackPointExtension>
            <ns3:hr>140</ns3:hr>
            <ns3:cad>45</ns3:cad>
          </ns3:TrackPointExtension>
        </extensions>
      </trkpt>
      <trkpt lat="45.34767354838550090789794921875" lon="-71.01059460081160068511962890625">
        <ele>971.4000244140625</ele>
        <time>2026-08-21T19:45:21.000Z</time>
        <extensions>
          <ns3:TrackPointExtension>
            <ns3:hr>140</ns3:hr>
            <ns3:cad>45</ns3:cad>
          </ns3:TrackPointExtension>
        </extensions>
      </trkpt>
      <trkpt lat="45.34767128527164459228515625" lon="-71.01060901768505573272705078125">
        <ele>971.5999755859375</ele>
        <time>2026-08-21T19:45:22.000Z</time>
        <extensions>
          <ns3:TrackPointExtension>
            <ns3:hr>140</ns3:hr>
            <ns3:cad>45</ns3:cad>
          </ns3:TrackPointExtension>
        </extensions>
      </trkpt>
      <trkpt lat="45.34766483120620250701904296875" lon="-71.0106201656162738800048828125">
        <ele>971.79998779296875</ele>
        <time>2026-08-21T19:45:23.000Z</time>
        <extensions>
          <ns3:TrackPointExtension>
            <ns3:hr>140</ns3:hr>
            <ns3:cad>44</ns3:cad>
          </ns3:TrackPointExtension>
        </extensions>
      </trkpt>
      <trkpt lat="45.34766349010169506072998046875" lon="-71.0106335766613483428955078125">
        <ele>972</ele>
        <time>2026-08-21T19:45:24.000Z</time>
        <extensions>
          <ns3:TrackPointExtension>
            <ns3:hr>140</ns3:hr>
            <ns3:cad>44</ns3:cad>
          </ns3:TrackPointExtension>
        </extensions>
      </trkpt>
      <trkpt lat="45.34766080789268016815185546875" lon="-71.0106443054974079132080078125">
        <ele>972</ele>
        <time>2026-08-21T19:45:25.000Z</time>
        <extensions>
          <ns3:TrackPointExtension>
            <ns3:hr>140</ns3:hr>
            <ns3:cad>44</ns3:cad>
          </ns3:TrackPointExtension>
        </extensions>
      </trkpt>
      <trkpt lat="45.347664244472980499267578125" lon="-71.0106530226767063140869140625">
        <ele>972.20001220703125</ele>
        <time>2026-08-21T19:45:26.000Z</time>
        <extensions>
          <ns3:TrackPointExtension>
            <ns3:hr>140</ns3:hr>
            <ns3:cad>42</ns3:cad>
          </ns3:TrackPointExtension>
        </extensions>
      </trkpt>
      <trkpt lat="45.34766457974910736083984375" lon="-71.010661236941814422607421875">
        <ele>972.20001220703125</ele>
        <time>2026-08-21T19:45:27.000Z</time>
        <extensions>
          <ns3:TrackPointExtension>
            <ns3:hr>140</ns3:hr>
            <ns3:cad>42</ns3:cad>
          </ns3:TrackPointExtension>
        </extensions>
      </trkpt>
      <trkpt lat="45.347662232816219329833984375" lon="-71.01067028939723968505859375">
        <ele>972.4000244140625</ele>
        <time>2026-08-21T19:45:28.000Z</time>
        <extensions>
          <ns3:TrackPointExtension>
            <ns3:hr>140</ns3:hr>
            <ns3:cad>42</ns3:cad>
          </ns3:TrackPointExtension>
        </extensions>
      </trkpt>
      <trkpt lat="45.34765611402690410614013671875" lon="-71.0106711275875568389892578125">
        <ele>972.4000244140625</ele>
        <time>2026-08-21T19:45:29.000Z</time>
        <extensions>
          <ns3:TrackPointExtension>
            <ns3:hr>140</ns3:hr>
            <ns3:cad>42</ns3:cad>
          </ns3:TrackPointExtension>
        </extensions>
      </trkpt>
      <trkpt lat="45.34765091724693775177001953125" lon="-71.01067364215850830078125">
        <ele>972.5999755859375</ele>
        <time>2026-08-21T19:45:30.000Z</time>
        <extensions>
          <ns3:TrackPointExtension>
            <ns3:hr>140</ns3:hr>
            <ns3:cad>44</ns3:cad>
          </ns3:TrackPointExtension>
        </extensions>
      </trkpt>
      <trkpt lat="45.34765142016112804412841796875" lon="-71.0106761567294597625732421875">
        <ele>972.5999755859375</ele>
        <time>2026-08-21T19:45:31.000Z</time>
        <extensions>
          <ns3:TrackPointExtension>
            <ns3:hr>139</ns3:hr>
            <ns3:cad>44</ns3:cad>
          </ns3:TrackPointExtension>
        </extensions>
      </trkpt>
      <trkpt lat="45.347650162875652313232421875" lon="-71.01067573763430118560791015625">
        <ele>972.5999755859375</ele>
        <time>2026-08-21T19:45:32.000Z</time>
        <extensions>
          <ns3:TrackPointExtension>
            <ns3:hr>139</ns3:hr>
            <ns3:cad>0</ns3:cad>
          </ns3:TrackPointExtension>
        </extensions>
      </trkpt>
      <trkpt lat="45.3476499952375888824462890625" lon="-71.010675989091396331787109375">
        <ele>972.5999755859375</ele>
        <time>2026-08-21T19:45:33.000Z</time>
        <extensions>
          <ns3:TrackPointExtension>
            <ns3:hr>138</ns3:hr>
            <ns3:cad>0</ns3:cad>
          </ns3:TrackPointExtension>
        </extensions>
      </trkpt>
      <trkpt lat="45.3476499952375888824462890625" lon="-71.010675989091396331787109375">
        <ele>972.4000244140625</ele>
        <time>2026-08-21T19:45:34.000Z</time>
        <extensions>
          <ns3:TrackPointExtension>
            <ns3:hr>138</ns3:hr>
            <ns3:cad>0</ns3:cad>
          </ns3:TrackPointExtension>
        </extensions>
      </trkpt>
      <trkpt lat="45.3476496599614620208740234375" lon="-71.01067607291042804718017578125">
        <ele>972.20001220703125</ele>
        <time>2026-08-21T19:45:35.000Z</time>
        <extensions>
          <ns3:TrackPointExtension>
            <ns3:hr>137</ns3:hr>
            <ns3:cad>79</ns3:cad>
          </ns3:TrackPointExtension>
        </extensions>
      </trkpt>
      <trkpt lat="45.347639434039592742919921875" lon="-71.010680012404918670654296875">
        <ele>972.20001220703125</ele>
        <time>2026-08-21T19:45:36.000Z</time>
        <extensions>
          <ns3:TrackPointExtension>
            <ns3:hr>137</ns3:hr>
            <ns3:cad>79</ns3:cad>
          </ns3:TrackPointExtension>
        </extensions>
      </trkpt>
      <trkpt lat="45.34763046540319919586181640625" lon="-71.01068780757486820220947265625">
        <ele>972</ele>
        <time>2026-08-21T19:45:37.000Z</time>
        <extensions>
          <ns3:TrackPointExtension>
            <ns3:hr>137</ns3:hr>
            <ns3:cad>53</ns3:cad>
          </ns3:TrackPointExtension>
        </extensions>
      </trkpt>
      <trkpt lat="45.3476201556622982025146484375" lon="-71.01069669239223003387451171875">
        <ele>971.79998779296875</ele>
        <time>2026-08-21T19:45:38.000Z</time>
        <extensions>
          <ns3:TrackPointExtension>
            <ns3:hr>136</ns3:hr>
            <ns3:cad>52</ns3:cad>
          </ns3:TrackPointExtension>
        </extensions>
      </trkpt>
      <trkpt lat="45.34761269576847553253173828125" lon="-71.0107016377151012420654296875">
        <ele>971.5999755859375</ele>
        <time>2026-08-21T19:45:39.000Z</time>
        <extensions>
          <ns3:TrackPointExtension>
            <ns3:hr>136</ns3:hr>
            <ns3:cad>52</ns3:cad>
          </ns3:TrackPointExtension>
        </extensions>
      </trkpt>
      <trkpt lat="45.34760766662657260894775390625" lon="-71.01070507429540157318115234375">
        <ele>971.4000244140625</ele>
        <time>2026-08-21T19:45:40.000Z</time>
        <extensions>
          <ns3:TrackPointExtension>
            <ns3:hr>135</ns3:hr>
            <ns3:cad>52</ns3:cad>
          </ns3:TrackPointExtension>
        </extensions>
      </trkpt>
      <trkpt lat="45.3475986979901790618896484375" lon="-71.0107143782079219818115234375">
        <ele>971.20001220703125</ele>
        <time>2026-08-21T19:45:41.000Z</time>
        <extensions>
          <ns3:TrackPointExtension>
            <ns3:hr>135</ns3:hr>
            <ns3:cad>52</ns3:cad>
          </ns3:TrackPointExtension>
        </extensions>
      </trkpt>
      <trkpt lat="45.3475909866392612457275390625" lon="-71.0107244364917278289794921875">
        <ele>971</ele>
        <time>2026-08-21T19:45:42.000Z</time>
        <extensions>
          <ns3:TrackPointExtension>
            <ns3:hr>135</ns3:hr>
            <ns3:cad>52</ns3:cad>
          </ns3:TrackPointExtension>
        </extensions>
      </trkpt>
      <trkpt lat="45.3475856222212314605712890625" lon="-71.01073742844164371490478515625">
        <ele>970.5999755859375</ele>
        <time>2026-08-21T19:45:43.000Z</time>
        <extensions>
          <ns3:TrackPointExtension>
            <ns3:hr>135</ns3:hr>
            <ns3:cad>51</ns3:cad>
          </ns3:TrackPointExtension>
        </extensions>
      </trkpt>
      <trkpt lat="45.34757883287966251373291015625" lon="-71.0107495822012424468994140625">
        <ele>970.4000244140625</ele>
        <time>2026-08-21T19:45:44.000Z</time>
        <extensions>
          <ns3:TrackPointExtension>
            <ns3:hr>135</ns3:hr>
            <ns3:cad>51</ns3:cad>
          </ns3:TrackPointExtension>
        </extensions>
      </trkpt>
      <trkpt lat="45.34757514484226703643798828125" lon="-71.01076274178922176361083984375">
        <ele>970</ele>
        <time>2026-08-21T19:45:45.000Z</time>
        <extensions>
          <ns3:TrackPointExtension>
            <ns3:hr>135</ns3:hr>
            <ns3:cad>51</ns3:cad>
          </ns3:TrackPointExtension>
        </extensions>
      </trkpt>
      <trkpt lat="45.3475715406239032745361328125" lon="-71.010780595242977142333984375">
        <ele>969.79998779296875</ele>
        <time>2026-08-21T19:45:46.000Z</time>
        <extensions>
          <ns3:TrackPointExtension>
            <ns3:hr>134</ns3:hr>
            <ns3:cad>51</ns3:cad>
          </ns3:TrackPointExtension>
        </extensions>
      </trkpt>
      <trkpt lat="45.34756533801555633544921875" lon="-71.010794676840305328369140625">
        <ele>969.5999755859375</ele>
        <time>2026-08-21T19:45:47.000Z</time>
        <extensions>
          <ns3:TrackPointExtension>
            <ns3:hr>134</ns3:hr>
            <ns3:cad>51</ns3:cad>
          </ns3:TrackPointExtension>
        </extensions>
      </trkpt>
      <trkpt lat="45.34756324253976345062255859375" lon="-71.01081437431275844573974609375">
        <ele>969.20001220703125</ele>
        <time>2026-08-21T19:45:48.000Z</time>
        <extensions>
          <ns3:TrackPointExtension>
            <ns3:hr>134</ns3:hr>
            <ns3:cad>51</ns3:cad>
          </ns3:TrackPointExtension>
        </extensions>
      </trkpt>
      <trkpt lat="45.3475646674633026123046875" lon="-71.01082577370107173919677734375">
        <ele>969</ele>
        <time>2026-08-21T19:45:49.000Z</time>
        <extensions>
          <ns3:TrackPointExtension>
            <ns3:hr>134</ns3:hr>
            <ns3:cad>60</ns3:cad>
          </ns3:TrackPointExtension>
        </extensions>
      </trkpt>
      <trkpt lat="45.34756206907331943511962890625" lon="-71.01083985529839992523193359375">
        <ele>968.5999755859375</ele>
        <time>2026-08-21T19:45:50.000Z</time>
        <extensions>
          <ns3:TrackPointExtension>
            <ns3:hr>134</ns3:hr>
            <ns3:cad>60</ns3:cad>
          </ns3:TrackPointExtension>
        </extensions>
      </trkpt>
      <trkpt lat="45.3475567884743213653564453125" lon="-71.0108535178005695343017578125">
        <ele>968.4000244140625</ele>
        <time>2026-08-21T19:45:51.000Z</time>
        <extensions>
          <ns3:TrackPointExtension>
            <ns3:hr>135</ns3:hr>
            <ns3:cad>60</ns3:cad>
          </ns3:TrackPointExtension>
        </extensions>
      </trkpt>
      <trkpt lat="45.3475524298846721649169921875" lon="-71.01086500100791454315185546875">
        <ele>968</ele>
        <time>2026-08-21T19:45:52.000Z</time>
        <extensions>
          <ns3:TrackPointExtension>
            <ns3:hr>135</ns3:hr>
            <ns3:cad>60</ns3:cad>
          </ns3:TrackPointExtension>
        </extensions>
      </trkpt>
      <trkpt lat="45.3475460596382617950439453125" lon="-71.010885201394557952880859375">
        <ele>967.5999755859375</ele>
        <time>2026-08-21T19:45:53.000Z</time>
        <extensions>
          <ns3:TrackPointExtension>
            <ns3:hr>134</ns3:hr>
            <ns3:cad>60</ns3:cad>
          </ns3:TrackPointExtension>
        </extensions>
      </trkpt>
      <trkpt lat="45.34753776155412197113037109375" lon="-71.0108976066112518310546875">
        <ele>967.20001220703125</ele>
        <time>2026-08-21T19:45:54.000Z</time>
        <extensions>
          <ns3:TrackPointExtension>
            <ns3:hr>133</ns3:hr>
            <ns3:cad>60</ns3:cad>
          </ns3:TrackPointExtension>
        </extensions>
      </trkpt>
      <trkpt lat="45.3475272841751575469970703125" lon="-71.01090758107602596282958984375">
        <ele>966.79998779296875</ele>
        <time>2026-08-21T19:45:55.000Z</time>
        <extensions>
          <ns3:TrackPointExtension>
            <ns3:hr>132</ns3:hr>
            <ns3:cad>60</ns3:cad>
          </ns3:TrackPointExtension>
        </extensions>
      </trkpt>
      <trkpt lat="45.3475138731300830841064453125" lon="-71.01092250086367130279541015625">
        <ele>966.5999755859375</ele>
        <time>2026-08-21T19:45:56.000Z</time>
        <extensions>
          <ns3:TrackPointExtension>
            <ns3:hr>131</ns3:hr>
            <ns3:cad>60</ns3:cad>
          </ns3:TrackPointExtension>
        </extensions>
      </trkpt>
      <trkpt lat="45.34750507213175296783447265625" lon="-71.0109329782426357269287109375">
        <ele>966.5999755859375</ele>
        <time>2026-08-21T19:45:57.000Z</time>
        <extensions>
          <ns3:TrackPointExtension>
            <ns3:hr>130</ns3:hr>
            <ns3:cad>60</ns3:cad>
          </ns3:TrackPointExtension>
        </extensions>
      </trkpt>
      <trkpt lat="45.3474974445998668670654296875" lon="-71.01094194687902927398681640625">
        <ele>966.4000244140625</ele>
        <time>2026-08-21T19:45:58.000Z</time>
        <extensions>
          <ns3:TrackPointExtension>
            <ns3:hr>130</ns3:hr>
            <ns3:cad>60</ns3:cad>
          </ns3:TrackPointExtension>
        </extensions>
      </trkpt>
      <trkpt lat="45.34748394973576068878173828125" lon="-71.010953597724437713623046875">
        <ele>966.4000244140625</ele>
        <time>2026-08-21T19:45:59.000Z</time>
        <extensions>
          <ns3:TrackPointExtension>
            <ns3:hr>129</ns3:hr>
            <ns3:cad>60</ns3:cad>
          </ns3:TrackPointExtension>
        </extensions>
      </trkpt>
      <trkpt lat="45.3474749810993671417236328125" lon="-71.0109695233404636383056640625">
        <ele>966.4000244140625</ele>
        <time>2026-08-21T19:46:00.000Z</time>
        <extensions>
          <ns3:TrackPointExtension>
            <ns3:hr>128</ns3:hr>
            <ns3:cad>60</ns3:cad>
          </ns3:TrackPointExtension>
        </extensions>
      </trkpt>
      <trkpt lat="45.347466766834259033203125" lon="-71.0109825991094112396240234375">
        <ele>966.4000244140625</ele>
        <time>2026-08-21T19:46:01.000Z</time>
        <extensions>
          <ns3:TrackPointExtension>
            <ns3:hr>127</ns3:hr>
            <ns3:cad>60</ns3:cad>
          </ns3:TrackPointExtension>
        </extensions>
      </trkpt>
      <trkpt lat="45.34745830111205577850341796875" lon="-71.01099550724029541015625">
        <ele>966.4000244140625</ele>
        <time>2026-08-21T19:46:02.000Z</time>
        <extensions>
          <ns3:TrackPointExtension>
            <ns3:hr>128</ns3:hr>
            <ns3:cad>53</ns3:cad>
          </ns3:TrackPointExtension>
        </extensions>
      </trkpt>
      <trkpt lat="45.34744866192340850830078125" lon="-71.0109995305538177490234375">
        <ele>966.5999755859375</ele>
        <time>2026-08-21T19:46:03.000Z</time>
        <extensions>
          <ns3:TrackPointExtension>
            <ns3:hr>128</ns3:hr>
            <ns3:cad>53</ns3:cad>
          </ns3:TrackPointExtension>
        </extensions>
      </trkpt>
      <trkpt lat="45.34744053147733211517333984375" lon="-71.01100514642894268035888671875">
        <ele>966.5999755859375</ele>
        <time>2026-08-21T19:46:04.000Z</time>
        <extensions>
          <ns3:TrackPointExtension>
            <ns3:hr>128</ns3:hr>
            <ns3:cad>52</ns3:cad>
          </ns3:TrackPointExtension>
        </extensions>
      </trkpt>
      <trkpt lat="45.34743282012641429901123046875" lon="-71.01101637817919254302978515625">
        <ele>966.79998779296875</ele>
        <time>2026-08-21T19:46:05.000Z</time>
        <extensions>
          <ns3:TrackPointExtension>
            <ns3:hr>129</ns3:hr>
            <ns3:cad>52</ns3:cad>
          </ns3:TrackPointExtension>
        </extensions>
      </trkpt>
      <trkpt lat="45.3474199958145618438720703125" lon="-71.01101838983595371246337890625">
        <ele>967</ele>
        <time>2026-08-21T19:46:06.000Z</time>
        <extensions>
          <ns3:TrackPointExtension>
            <ns3:hr>129</ns3:hr>
            <ns3:cad>0</ns3:cad>
          </ns3:TrackPointExtension>
        </extensions>
      </trkpt>
      <trkpt lat="45.34741370938718318939208984375" lon="-71.0110188089311122894287109375">
        <ele>967.20001220703125</ele>
        <time>2026-08-21T19:46:07.000Z</time>
        <extensions>
          <ns3:TrackPointExtension>
            <ns3:hr>129</ns3:hr>
            <ns3:cad>0</ns3:cad>
          </ns3:TrackPointExtension>
        </extensions>
      </trkpt>
      <trkpt lat="45.34740935079753398895263671875" lon="-71.0110154561698436737060546875">
        <ele>967.4000244140625</ele>
        <time>2026-08-21T19:46:08.000Z</time>
        <extensions>
          <ns3:TrackPointExtension>
            <ns3:hr>129</ns3:hr>
            <ns3:cad>0</ns3:cad>
          </ns3:TrackPointExtension>
        </extensions>
      </trkpt>
      <trkpt lat="45.3473983705043792724609375" lon="-71.01101453416049480438232421875">
        <ele>967.79998779296875</ele>
        <time>2026-08-21T19:46:09.000Z</time>
        <extensions>
          <ns3:TrackPointExtension>
            <ns3:hr>129</ns3:hr>
            <ns3:cad>0</ns3:cad>
          </ns3:TrackPointExtension>
        </extensions>
      </trkpt>
      <trkpt lat="45.34738789312541484832763671875" lon="-71.01101822219789028167724609375">
        <ele>968</ele>
        <time>2026-08-21T19:46:10.000Z</time>
        <extensions>
          <ns3:TrackPointExtension>
            <ns3:hr>129</ns3:hr>
            <ns3:cad>0</ns3:cad>
          </ns3:TrackPointExtension>
        </extensions>
      </trkpt>
      <trkpt lat="45.34738554619252681732177734375" lon="-71.01102031767368316650390625">
        <ele>968.4000244140625</ele>
        <time>2026-08-21T19:46:11.000Z</time>
        <extensions>
          <ns3:TrackPointExtension>
            <ns3:hr>129</ns3:hr>
            <ns3:cad>0</ns3:cad>
          </ns3:TrackPointExtension>
        </extensions>
      </trkpt>
      <trkpt lat="45.3473794274032115936279296875" lon="-71.011026687920093536376953125">
        <ele>968.5999755859375</ele>
        <time>2026-08-21T19:46:12.000Z</time>
        <extensions>
          <ns3:TrackPointExtension>
            <ns3:hr>129</ns3:hr>
            <ns3:cad>0</ns3:cad>
          </ns3:TrackPointExtension>
        </extensions>
      </trkpt>
      <trkpt lat="45.34737749956548213958740234375" lon="-71.011030040681362152099609375">
        <ele>968.79998779296875</ele>
        <time>2026-08-21T19:46:13.000Z</time>
        <extensions>
          <ns3:TrackPointExtension>
            <ns3:hr>128</ns3:hr>
            <ns3:cad>0</ns3:cad>
          </ns3:TrackPointExtension>
        </extensions>
      </trkpt>
      <trkpt lat="45.34736911766231060028076171875" lon="-71.011034063994884490966796875">
        <ele>969</ele>
        <time>2026-08-21T19:46:14.000Z</time>
        <extensions>
          <ns3:TrackPointExtension>
            <ns3:hr>129</ns3:hr>
            <ns3:cad>0</ns3:cad>
          </ns3:TrackPointExtension>
        </extensions>
      </trkpt>
      <trkpt lat="45.347363837063312530517578125" lon="-71.01103666238486766815185546875">
        <ele>969.20001220703125</ele>
        <time>2026-08-21T19:46:15.000Z</time>
        <extensions>
          <ns3:TrackPointExtension>
            <ns3:hr>130</ns3:hr>
            <ns3:cad>0</ns3:cad>
          </ns3:TrackPointExtension>
        </extensions>
      </trkpt>
      <trkpt lat="45.347353778779506683349609375" lon="-71.01104336790740489959716796875">
        <ele>969.5999755859375</ele>
        <time>2026-08-21T19:46:16.000Z</time>
        <extensions>
          <ns3:TrackPointExtension>
            <ns3:hr>129</ns3:hr>
            <ns3:cad>0</ns3:cad>
          </ns3:TrackPointExtension>
        </extensions>
      </trkpt>
      <trkpt lat="45.3473408706486225128173828125" lon="-71.01105174981057643890380859375">
        <ele>969.79998779296875</ele>
        <time>2026-08-21T19:46:17.000Z</time>
        <extensions>
          <ns3:TrackPointExtension>
            <ns3:hr>129</ns3:hr>
            <ns3:cad>0</ns3:cad>
          </ns3:TrackPointExtension>
        </extensions>
      </trkpt>
      <trkpt lat="45.34733726643025875091552734375" lon="-71.01105728186666965484619140625">
        <ele>970.20001220703125</ele>
        <time>2026-08-21T19:46:18.000Z</time>
        <extensions>
          <ns3:TrackPointExtension>
            <ns3:hr>129</ns3:hr>
            <ns3:cad>0</ns3:cad>
          </ns3:TrackPointExtension>
        </extensions>
      </trkpt>
      <trkpt lat="45.34733760170638561248779296875" lon="-71.01105912588536739349365234375">
        <ele>970.5999755859375</ele>
        <time>2026-08-21T19:46:19.000Z</time>
        <extensions>
          <ns3:TrackPointExtension>
            <ns3:hr>128</ns3:hr>
            <ns3:cad>0</ns3:cad>
          </ns3:TrackPointExtension>
        </extensions>
      </trkpt>
      <trkpt lat="45.34733257256448268890380859375" lon="-71.0110788233578205108642578125">
        <ele>970.79998779296875</ele>
        <time>2026-08-21T19:46:20.000Z</time>
        <extensions>
          <ns3:TrackPointExtension>
            <ns3:hr>127</ns3:hr>
            <ns3:cad>0</ns3:cad>
          </ns3:TrackPointExtension>
        </extensions>
      </trkpt>
      <trkpt lat="45.3473311476409435272216796875" lon="-71.01109097711741924285888671875">
        <ele>971</ele>
        <time>2026-08-21T19:46:21.000Z</time>
        <extensions>
          <ns3:TrackPointExtension>
            <ns3:hr>126</ns3:hr>
            <ns3:cad>0</ns3:cad>
          </ns3:TrackPointExtension>
        </extensions>
      </trkpt>
      <trkpt lat="45.34733491949737071990966796875" lon="-71.01110405288636684417724609375">
        <ele>971.20001220703125</ele>
        <time>2026-08-21T19:46:22.000Z</time>
        <extensions>
          <ns3:TrackPointExtension>
            <ns3:hr>125</ns3:hr>
            <ns3:cad>0</ns3:cad>
          </ns3:TrackPointExtension>
        </extensions>
      </trkpt>
      <trkpt lat="45.34733458422124385833740234375" lon="-71.01111696101725101470947265625">
        <ele>971.4000244140625</ele>
        <time>2026-08-21T19:46:23.000Z</time>
        <extensions>
          <ns3:TrackPointExtension>
            <ns3:hr>125</ns3:hr>
            <ns3:cad>0</ns3:cad>
          </ns3:TrackPointExtension>
        </extensions>
      </trkpt>
      <trkpt lat="45.34733223728835582733154296875" lon="-71.011127941310405731201171875">
        <ele>971.5999755859375</ele>
        <time>2026-08-21T19:46:24.000Z</time>
        <extensions>
          <ns3:TrackPointExtension>
            <ns3:hr>125</ns3:hr>
            <ns3:cad>0</ns3:cad>
          </ns3:TrackPointExtension>
        </extensions>
      </trkpt>
      <trkpt lat="45.347330980002880096435546875" lon="-71.0111438669264316558837890625">
        <ele>971.79998779296875</ele>
        <time>2026-08-21T19:46:25.000Z</time>
        <extensions>
          <ns3:TrackPointExtension>
            <ns3:hr>126</ns3:hr>
            <ns3:cad>0</ns3:cad>
          </ns3:TrackPointExtension>
        </extensions>
      </trkpt>
      <trkpt lat="45.34733198583126068115234375" lon="-71.01115643978118896484375">
        <ele>972</ele>
        <time>2026-08-21T19:46:26.000Z</time>
        <extensions>
          <ns3:TrackPointExtension>
            <ns3:hr>126</ns3:hr>
            <ns3:cad>0</ns3:cad>
          </ns3:TrackPointExtension>
        </extensions>
      </trkpt>
      <trkpt lat="45.3473341651260852813720703125" lon="-71.01116507314145565032958984375">
        <ele>972</ele>
        <time>2026-08-21T19:46:27.000Z</time>
        <extensions>
          <ns3:TrackPointExtension>
            <ns3:hr>127</ns3:hr>
            <ns3:cad>0</ns3:cad>
          </ns3:TrackPointExtension>
        </extensions>
      </trkpt>
      <trkpt lat="45.3473393619060516357421875" lon="-71.01116624660789966583251953125">
        <ele>972</ele>
        <time>2026-08-21T19:46:28.000Z</time>
        <extensions>
          <ns3:TrackPointExtension>
            <ns3:hr>127</ns3:hr>
            <ns3:cad>0</ns3:cad>
          </ns3:TrackPointExtension>
        </extensions>
      </trkpt>
      <trkpt lat="45.3473432175815105438232421875" lon="-71.0111663304269313812255859375">
        <ele>972</ele>
        <time>2026-08-21T19:46:29.000Z</time>
        <extensions>
          <ns3:TrackPointExtension>
            <ns3:hr>128</ns3:hr>
            <ns3:cad>0</ns3:cad>
          </ns3:TrackPointExtension>
        </extensions>
      </trkpt>
      <trkpt lat="45.34734405577182769775390625" lon="-71.0111592896282672882080078125">
        <ele>972</ele>
        <time>2026-08-21T19:46:30.000Z</time>
        <extensions>
          <ns3:TrackPointExtension>
            <ns3:hr>129</ns3:hr>
            <ns3:cad>0</ns3:cad>
          </ns3:TrackPointExtension>
        </extensions>
      </trkpt>
      <trkpt lat="45.347343049943447113037109375" lon="-71.01115602068603038787841796875">
        <ele>972</ele>
        <time>2026-08-21T19:46:31.000Z</time>
        <extensions>
          <ns3:TrackPointExtension>
            <ns3:hr>131</ns3:hr>
            <ns3:cad>0</ns3:cad>
          </ns3:TrackPointExtension>
        </extensions>
      </trkpt>
      <trkpt lat="45.3473438881337642669677734375" lon="-71.011159121990203857421875">
        <ele>972</ele>
        <time>2026-08-21T19:46:32.000Z</time>
        <extensions>
          <ns3:TrackPointExtension>
            <ns3:hr>131</ns3:hr>
            <ns3:cad>0</ns3:cad>
          </ns3:TrackPointExtension>
        </extensions>
      </trkpt>
      <trkpt lat="45.3473438881337642669677734375" lon="-71.011159121990203857421875">
        <ele>972.20001220703125</ele>
        <time>2026-08-21T19:46:33.000Z</time>
        <extensions>
          <ns3:TrackPointExtension>
            <ns3:hr>132</ns3:hr>
            <ns3:cad>0</ns3:cad>
          </ns3:TrackPointExtension>
        </extensions>
      </trkpt>
      <trkpt lat="45.3473438881337642669677734375" lon="-71.011159121990203857421875">
        <ele>972.20001220703125</ele>
        <time>2026-08-21T19:46:34.000Z</time>
        <extensions>
          <ns3:TrackPointExtension>
            <ns3:hr>133</ns3:hr>
            <ns3:cad>0</ns3:cad>
          </ns3:TrackPointExtension>
        </extensions>
      </trkpt>
      <trkpt lat="45.3473438881337642669677734375" lon="-71.011159121990203857421875">
        <ele>972.20001220703125</ele>
        <time>2026-08-21T19:46:35.000Z</time>
        <extensions>
          <ns3:TrackPointExtension>
            <ns3:hr>132</ns3:hr>
            <ns3:cad>0</ns3:cad>
          </ns3:TrackPointExtension>
        </extensions>
      </trkpt>
      <trkpt lat="45.3473438881337642669677734375" lon="-71.011159121990203857421875">
        <ele>972</ele>
        <time>2026-08-21T19:46:36.000Z</time>
        <extensions>
          <ns3:TrackPointExtension>
            <ns3:hr>132</ns3:hr>
            <ns3:cad>0</ns3:cad>
          </ns3:TrackPointExtension>
        </extensions>
      </trkpt>
      <trkpt lat="45.3473438881337642669677734375" lon="-71.011159121990203857421875">
        <ele>972</ele>
        <time>2026-08-21T19:46:37.000Z</time>
        <extensions>
          <ns3:TrackPointExtension>
            <ns3:hr>133</ns3:hr>
            <ns3:cad>0</ns3:cad>
          </ns3:TrackPointExtension>
        </extensions>
      </trkpt>
      <trkpt lat="45.3473438881337642669677734375" lon="-71.011159121990203857421875">
        <ele>972</ele>
        <time>2026-08-21T19:46:38.000Z</time>
        <extensions>
          <ns3:TrackPointExtension>
            <ns3:hr>133</ns3:hr>
            <ns3:cad>0</ns3:cad>
          </ns3:TrackPointExtension>
        </extensions>
      </trkpt>
      <trkpt lat="45.3473438881337642669677734375" lon="-71.011159121990203857421875">
        <ele>972</ele>
        <time>2026-08-21T19:46:39.000Z</time>
        <extensions>
          <ns3:TrackPointExtension>
            <ns3:hr>133</ns3:hr>
            <ns3:cad>0</ns3:cad>
          </ns3:TrackPointExtension>
        </extensions>
      </trkpt>
      <trkpt lat="45.3473438881337642669677734375" lon="-71.011159121990203857421875">
        <ele>972</ele>
        <time>2026-08-21T19:46:40.000Z</time>
        <extensions>
          <ns3:TrackPointExtension>
            <ns3:hr>134</ns3:hr>
            <ns3:cad>0</ns3:cad>
          </ns3:TrackPointExtension>
        </extensions>
      </trkpt>
      <trkpt lat="45.3473438881337642669677734375" lon="-71.011159121990203857421875">
        <ele>971.79998779296875</ele>
        <time>2026-08-21T19:46:41.000Z</time>
        <extensions>
          <ns3:TrackPointExtension>
            <ns3:hr>134</ns3:hr>
            <ns3:cad>0</ns3:cad>
          </ns3:TrackPointExtension>
        </extensions>
      </trkpt>
      <trkpt lat="45.3473438881337642669677734375" lon="-71.011159121990203857421875">
        <ele>971.79998779296875</ele>
        <time>2026-08-21T19:46:42.000Z</time>
        <extensions>
          <ns3:TrackPointExtension>
            <ns3:hr>133</ns3:hr>
            <ns3:cad>0</ns3:cad>
          </ns3:TrackPointExtension>
        </extensions>
      </trkpt>
      <trkpt lat="45.3473438881337642669677734375" lon="-71.011159121990203857421875">
        <ele>971.5999755859375</ele>
        <time>2026-08-21T19:46:43.000Z</time>
        <extensions>
          <ns3:TrackPointExtension>
            <ns3:hr>134</ns3:hr>
            <ns3:cad>0</ns3:cad>
          </ns3:TrackPointExtension>
        </extensions>
      </trkpt>
      <trkpt lat="45.3473438881337642669677734375" lon="-71.011159121990203857421875">
        <ele>971.4000244140625</ele>
        <time>2026-08-21T19:46:44.000Z</time>
        <extensions>
          <ns3:TrackPointExtension>
            <ns3:hr>135</ns3:hr>
            <ns3:cad>0</ns3:cad>
          </ns3:TrackPointExtension>
        </extensions>
      </trkpt>
      <trkpt lat="45.3473438881337642669677734375" lon="-71.011159121990203857421875">
        <ele>971.4000244140625</ele>
        <time>2026-08-21T19:46:45.000Z</time>
        <extensions>
          <ns3:TrackPointExtension>
            <ns3:hr>132</ns3:hr>
            <ns3:cad>0</ns3:cad>
          </ns3:TrackPointExtension>
        </extensions>
      </trkpt>
      <trkpt lat="45.3473438881337642669677734375" lon="-71.011159121990203857421875">
        <ele>971.4000244140625</ele>
        <time>2026-08-21T19:46:46.000Z</time>
        <extensions>
          <ns3:TrackPointExtension>
            <ns3:hr>129</ns3:hr>
            <ns3:cad>0</ns3:cad>
          </ns3:TrackPointExtension>
        </extensions>
      </trkpt>
      <trkpt lat="45.3473438881337642669677734375" lon="-71.011159121990203857421875">
        <ele>971.4000244140625</ele>
        <time>2026-08-21T19:46:47.000Z</time>
        <extensions>
          <ns3:TrackPointExtension>
            <ns3:hr>128</ns3:hr>
            <ns3:cad>0</ns3:cad>
          </ns3:TrackPointExtension>
        </extensions>
      </trkpt>
      <trkpt lat="45.3473438881337642669677734375" lon="-71.011159121990203857421875">
        <ele>971.4000244140625</ele>
        <time>2026-08-21T19:46:48.000Z</time>
        <extensions>
          <ns3:TrackPointExtension>
            <ns3:hr>128</ns3:hr>
            <ns3:cad>0</ns3:cad>
          </ns3:TrackPointExtension>
        </extensions>
      </trkpt>
      <trkpt lat="45.3473438881337642669677734375" lon="-71.011159121990203857421875">
        <ele>971.5999755859375</ele>
        <time>2026-08-21T19:46:49.000Z</time>
        <extensions>
          <ns3:TrackPointExtension>
            <ns3:hr>128</ns3:hr>
            <ns3:cad>0</ns3:cad>
          </ns3:TrackPointExtension>
        </extensions>
      </trkpt>
      <trkpt lat="45.3473438881337642669677734375" lon="-71.011159121990203857421875">
        <ele>971.5999755859375</ele>
        <time>2026-08-21T19:46:50.000Z</time>
        <extensions>
          <ns3:TrackPointExtension>
            <ns3:hr>128</ns3:hr>
            <ns3:cad>0</ns3:cad>
          </ns3:TrackPointExtension>
        </extensions>
      </trkpt>
      <trkpt lat="45.3473438881337642669677734375" lon="-71.011159121990203857421875">
        <ele>971.5999755859375</ele>
        <time>2026-08-21T19:46:51.000Z</time>
        <extensions>
          <ns3:TrackPointExtension>
            <ns3:hr>128</ns3:hr>
            <ns3:cad>0</ns3:cad>
          </ns3:TrackPointExtension>
        </extensions>
      </trkpt>
      <trkpt lat="45.3473438881337642669677734375" lon="-71.011159121990203857421875">
        <ele>971.5999755859375</ele>
        <time>2026-08-21T19:46:52.000Z</time>
        <extensions>
          <ns3:TrackPointExtension>
            <ns3:hr>128</ns3:hr>
            <ns3:cad>0</ns3:cad>
          </ns3:TrackPointExtension>
        </extensions>
      </trkpt>
      <trkpt lat="45.3473438881337642669677734375" lon="-71.011159121990203857421875">
        <ele>971.5999755859375</ele>
        <time>2026-08-21T19:46:53.000Z</time>
        <extensions>
          <ns3:TrackPointExtension>
            <ns3:hr>127</ns3:hr>
            <ns3:cad>0</ns3:cad>
          </ns3:TrackPointExtension>
        </extensions>
      </trkpt>
      <trkpt lat="45.3473438881337642669677734375" lon="-71.011159121990203857421875">
        <ele>971.5999755859375</ele>
        <time>2026-08-21T19:46:54.000Z</time>
        <extensions>
          <ns3:TrackPointExtension>
            <ns3:hr>128</ns3:hr>
            <ns3:cad>0</ns3:cad>
          </ns3:TrackPointExtension>
        </extensions>
      </trkpt>
      <trkpt lat="45.3473438881337642669677734375" lon="-71.011159121990203857421875">
        <ele>971.79998779296875</ele>
        <time>2026-08-21T19:46:55.000Z</time>
        <extensions>
          <ns3:TrackPointExtension>
            <ns3:hr>128</ns3:hr>
            <ns3:cad>0</ns3:cad>
          </ns3:TrackPointExtension>
        </extensions>
      </trkpt>
      <trkpt lat="45.3473438881337642669677734375" lon="-71.011159121990203857421875">
        <ele>971.79998779296875</ele>
        <time>2026-08-21T19:46:56.000Z</time>
        <extensions>
          <ns3:TrackPointExtension>
            <ns3:hr>128</ns3:hr>
            <ns3:cad>0</ns3:cad>
          </ns3:TrackPointExtension>
        </extensions>
      </trkpt>
      <trkpt lat="45.3473438881337642669677734375" lon="-71.011159121990203857421875">
        <ele>971.79998779296875</ele>
        <time>2026-08-21T19:46:57.000Z</time>
        <extensions>
          <ns3:TrackPointExtension>
            <ns3:hr>128</ns3:hr>
            <ns3:cad>0</ns3:cad>
          </ns3:TrackPointExtension>
        </extensions>
      </trkpt>
      <trkpt lat="45.3473438881337642669677734375" lon="-71.011159121990203857421875">
        <ele>971.5999755859375</ele>
        <time>2026-08-21T19:46:58.000Z</time>
        <extensions>
          <ns3:TrackPointExtension>
            <ns3:hr>128</ns3:hr>
            <ns3:cad>0</ns3:cad>
          </ns3:TrackPointExtension>
        </extensions>
      </trkpt>
      <trkpt lat="45.3473438881337642669677734375" lon="-71.011159121990203857421875">
        <ele>971.5999755859375</ele>
        <time>2026-08-21T19:46:59.000Z</time>
        <extensions>
          <ns3:TrackPointExtension>
            <ns3:hr>128</ns3:hr>
            <ns3:cad>0</ns3:cad>
          </ns3:TrackPointExtension>
        </extensions>
      </trkpt>
      <trkpt lat="45.3473438881337642669677734375" lon="-71.011159121990203857421875">
        <ele>971.4000244140625</ele>
        <time>2026-08-21T19:47:00.000Z</time>
        <extensions>
          <ns3:TrackPointExtension>
            <ns3:hr>129</ns3:hr>
            <ns3:cad>0</ns3:cad>
          </ns3:TrackPointExtension>
        </extensions>
      </trkpt>
      <trkpt lat="45.34735151566565036773681640625" lon="-71.0111576132476329803466796875">
        <ele>971.4000244140625</ele>
        <time>2026-08-21T19:47:01.000Z</time>
        <extensions>
          <ns3:TrackPointExtension>
            <ns3:hr>129</ns3:hr>
            <ns3:cad>0</ns3:cad>
          </ns3:TrackPointExtension>
        </extensions>
      </trkpt>
      <trkpt lat="45.34735210239887237548828125" lon="-71.01115132682025432586669921875">
        <ele>971.4000244140625</ele>
        <time>2026-08-21T19:47:02.000Z</time>
        <extensions>
          <ns3:TrackPointExtension>
            <ns3:hr>130</ns3:hr>
            <ns3:cad>0</ns3:cad>
          </ns3:TrackPointExtension>
        </extensions>
      </trkpt>
      <trkpt lat="45.34735285677015781402587890625" lon="-71.011149398982524871826171875">
        <ele>971.4000244140625</ele>
        <time>2026-08-21T19:47:03.000Z</time>
        <extensions>
          <ns3:TrackPointExtension>
            <ns3:hr>130</ns3:hr>
            <ns3:cad>0</ns3:cad>
          </ns3:TrackPointExtension>
        </extensions>
      </trkpt>
      <trkpt lat="45.3473438881337642669677734375" lon="-71.011159121990203857421875">
        <ele>971.5999755859375</ele>
        <time>2026-08-21T19:47:04.000Z</time>
        <extensions>
          <ns3:TrackPointExtension>
            <ns3:hr>130</ns3:hr>
            <ns3:cad>0</ns3:cad>
          </ns3:TrackPointExtension>
        </extensions>
      </trkpt>
      <trkpt lat="45.3473438881337642669677734375" lon="-71.011159121990203857421875">
        <ele>971.5999755859375</ele>
        <time>2026-08-21T19:47:05.000Z</time>
        <extensions>
          <ns3:TrackPointExtension>
            <ns3:hr>129</ns3:hr>
            <ns3:cad>0</ns3:cad>
          </ns3:TrackPointExtension>
        </extensions>
      </trkpt>
      <trkpt lat="45.3473438881337642669677734375" lon="-71.011159121990203857421875">
        <ele>971.5999755859375</ele>
        <time>2026-08-21T19:47:06.000Z</time>
        <extensions>
          <ns3:TrackPointExtension>
            <ns3:hr>130</ns3:hr>
            <ns3:cad>0</ns3:cad>
          </ns3:TrackPointExtension>
        </extensions>
      </trkpt>
      <trkpt lat="45.3473438881337642669677734375" lon="-71.011159121990203857421875">
        <ele>971.5999755859375</ele>
        <time>2026-08-21T19:47:07.000Z</time>
        <extensions>
          <ns3:TrackPointExtension>
            <ns3:hr>130</ns3:hr>
            <ns3:cad>0</ns3:cad>
          </ns3:TrackPointExtension>
        </extensions>
      </trkpt>
      <trkpt lat="45.3473438881337642669677734375" lon="-71.011159121990203857421875">
        <ele>971.79998779296875</ele>
        <time>2026-08-21T19:47:08.000Z</time>
        <extensions>
          <ns3:TrackPointExtension>
            <ns3:hr>130</ns3:hr>
            <ns3:cad>0</ns3:cad>
          </ns3:TrackPointExtension>
        </extensions>
      </trkpt>
      <trkpt lat="45.3473438881337642669677734375" lon="-71.011159121990203857421875">
        <ele>971.79998779296875</ele>
        <time>2026-08-21T19:47:09.000Z</time>
        <extensions>
          <ns3:TrackPointExtension>
            <ns3:hr>130</ns3:hr>
            <ns3:cad>0</ns3:cad>
          </ns3:TrackPointExtension>
        </extensions>
      </trkpt>
      <trkpt lat="45.3473438881337642669677734375" lon="-71.011159121990203857421875">
        <ele>971.79998779296875</ele>
        <time>2026-08-21T19:47:10.000Z</time>
        <extensions>
          <ns3:TrackPointExtension>
            <ns3:hr>130</ns3:hr>
            <ns3:cad>0</ns3:cad>
          </ns3:TrackPointExtension>
        </extensions>
      </trkpt>
      <trkpt lat="45.3473438881337642669677734375" lon="-71.011159121990203857421875">
        <ele>971.79998779296875</ele>
        <time>2026-08-21T19:47:11.000Z</time>
        <extensions>
          <ns3:TrackPointExtension>
            <ns3:hr>130</ns3:hr>
            <ns3:cad>0</ns3:cad>
          </ns3:TrackPointExtension>
        </extensions>
      </trkpt>
      <trkpt lat="45.3473438881337642669677734375" lon="-71.011159121990203857421875">
        <ele>972</ele>
        <time>2026-08-21T19:47:12.000Z</time>
        <extensions>
          <ns3:TrackPointExtension>
            <ns3:hr>130</ns3:hr>
            <ns3:cad>0</ns3:cad>
          </ns3:TrackPointExtension>
        </extensions>
      </trkpt>
      <trkpt lat="45.3473438881337642669677734375" lon="-71.011159121990203857421875">
        <ele>972</ele>
        <time>2026-08-21T19:47:13.000Z</time>
        <extensions>
          <ns3:TrackPointExtension>
            <ns3:hr>128</ns3:hr>
            <ns3:cad>0</ns3:cad>
          </ns3:TrackPointExtension>
        </extensions>
      </trkpt>
      <trkpt lat="45.3473438881337642669677734375" lon="-71.011159121990203857421875">
        <ele>972</ele>
        <time>2026-08-21T19:47:14.000Z</time>
        <extensions>
          <ns3:TrackPointExtension>
            <ns3:hr>126</ns3:hr>
            <ns3:cad>0</ns3:cad>
          </ns3:TrackPointExtension>
        </extensions>
      </trkpt>
      <trkpt lat="45.3473438881337642669677734375" lon="-71.011159121990203857421875">
        <ele>972</ele>
        <time>2026-08-21T19:47:15.000Z</time>
        <extensions>
          <ns3:TrackPointExtension>
            <ns3:hr>124</ns3:hr>
            <ns3:cad>0</ns3:cad>
          </ns3:TrackPointExtension>
        </extensions>
      </trkpt>
      <trkpt lat="45.3473438881337642669677734375" lon="-71.011159121990203857421875">
        <ele>972</ele>
        <time>2026-08-21T19:47:16.000Z</time>
        <extensions>
          <ns3:TrackPointExtension>
            <ns3:hr>120</ns3:hr>
            <ns3:cad>0</ns3:cad>
          </ns3:TrackPointExtension>
        </extensions>
      </trkpt>
      <trkpt lat="45.3473438881337642669677734375" lon="-71.011159121990203857421875">
        <ele>972</ele>
        <time>2026-08-21T19:47:17.000Z</time>
        <extensions>
          <ns3:TrackPointExtension>
            <ns3:hr>118</ns3:hr>
            <ns3:cad>0</ns3:cad>
          </ns3:TrackPointExtension>
        </extensions>
      </trkpt>
      <trkpt lat="45.3473438881337642669677734375" lon="-71.011159121990203857421875">
        <ele>972</ele>
        <time>2026-08-21T19:47:18.000Z</time>
        <extensions>
          <ns3:TrackPointExtension>
            <ns3:hr>117</ns3:hr>
            <ns3:cad>0</ns3:cad>
          </ns3:TrackPointExtension>
        </extensions>
      </trkpt>
      <trkpt lat="45.3473438881337642669677734375" lon="-71.011159121990203857421875">
        <ele>972</ele>
        <time>2026-08-21T19:47:19.000Z</time>
        <extensions>
          <ns3:TrackPointExtension>
            <ns3:hr>116</ns3:hr>
            <ns3:cad>0</ns3:cad>
          </ns3:TrackPointExtension>
        </extensions>
      </trkpt>
      <trkpt lat="45.3473438881337642669677734375" lon="-71.011159121990203857421875">
        <ele>972</ele>
        <time>2026-08-21T19:47:20.000Z</time>
        <extensions>
          <ns3:TrackPointExtension>
            <ns3:hr>114</ns3:hr>
            <ns3:cad>0</ns3:cad>
          </ns3:TrackPointExtension>
        </extensions>
      </trkpt>
      <trkpt lat="45.34735201857984066009521484375" lon="-71.011142022907733917236328125">
        <ele>972</ele>
        <time>2026-08-21T19:47:21.000Z</time>
        <extensions>
          <ns3:TrackPointExtension>
            <ns3:hr>112</ns3:hr>
            <ns3:cad>0</ns3:cad>
          </ns3:TrackPointExtension>
        </extensions>
      </trkpt>
      <trkpt lat="45.34735352732241153717041015625" lon="-71.01114093326032161712646484375">
        <ele>972</ele>
        <time>2026-08-21T19:47:22.000Z</time>
        <extensions>
          <ns3:TrackPointExtension>
            <ns3:hr>111</ns3:hr>
            <ns3:cad>0</ns3:cad>
          </ns3:TrackPointExtension>
        </extensions>
      </trkpt>
      <trkpt lat="45.34735352732241153717041015625" lon="-71.01114093326032161712646484375">
        <ele>972</ele>
        <time>2026-08-21T19:47:23.000Z</time>
        <extensions>
          <ns3:TrackPointExtension>
            <ns3:hr>110</ns3:hr>
            <ns3:cad>0</ns3:cad>
          </ns3:TrackPointExtension>
        </extensions>
      </trkpt>
      <trkpt lat="45.34735352732241153717041015625" lon="-71.01114093326032161712646484375">
        <ele>972</ele>
        <time>2026-08-21T19:47:24.000Z</time>
        <extensions>
          <ns3:TrackPointExtension>
            <ns3:hr>110</ns3:hr>
            <ns3:cad>0</ns3:cad>
          </ns3:TrackPointExtension>
        </extensions>
      </trkpt>
      <trkpt lat="45.34735352732241153717041015625" lon="-71.01114093326032161712646484375">
        <ele>972</ele>
        <time>2026-08-21T19:47:25.000Z</time>
        <extensions>
          <ns3:TrackPointExtension>
            <ns3:hr>110</ns3:hr>
            <ns3:cad>0</ns3:cad>
          </ns3:TrackPointExtension>
        </extensions>
      </trkpt>
      <trkpt lat="45.34735352732241153717041015625" lon="-71.01114093326032161712646484375">
        <ele>972</ele>
        <time>2026-08-21T19:47:26.000Z</time>
        <extensions>
          <ns3:TrackPointExtension>
            <ns3:hr>110</ns3:hr>
            <ns3:cad>0</ns3:cad>
          </ns3:TrackPointExtension>
        </extensions>
      </trkpt>
      <trkpt lat="45.34735352732241153717041015625" lon="-71.01114093326032161712646484375">
        <ele>972</ele>
        <time>2026-08-21T19:47:27.000Z</time>
        <extensions>
          <ns3:TrackPointExtension>
            <ns3:hr>111</ns3:hr>
            <ns3:cad>0</ns3:cad>
          </ns3:TrackPointExtension>
        </extensions>
      </trkpt>
      <trkpt lat="45.34735352732241153717041015625" lon="-71.01114093326032161712646484375">
        <ele>972</ele>
        <time>2026-08-21T19:47:28.000Z</time>
        <extensions>
          <ns3:TrackPointExtension>
            <ns3:hr>112</ns3:hr>
            <ns3:cad>0</ns3:cad>
          </ns3:TrackPointExtension>
        </extensions>
      </trkpt>
      <trkpt lat="45.34735352732241153717041015625" lon="-71.01114093326032161712646484375">
        <ele>971.79998779296875</ele>
        <time>2026-08-21T19:47:29.000Z</time>
        <extensions>
          <ns3:TrackPointExtension>
            <ns3:hr>112</ns3:hr>
            <ns3:cad>0</ns3:cad>
          </ns3:TrackPointExtension>
        </extensions>
      </trkpt>
      <trkpt lat="45.34735352732241153717041015625" lon="-71.01114093326032161712646484375">
        <ele>971.79998779296875</ele>
        <time>2026-08-21T19:47:30.000Z</time>
        <extensions>
          <ns3:TrackPointExtension>
            <ns3:hr>112</ns3:hr>
            <ns3:cad>0</ns3:cad>
          </ns3:TrackPointExtension>
        </extensions>
      </trkpt>
      <trkpt lat="45.347353108227252960205078125" lon="-71.01113707758486270904541015625">
        <ele>971.5999755859375</ele>
        <time>2026-08-21T19:47:31.000Z</time>
        <extensions>
          <ns3:TrackPointExtension>
            <ns3:hr>112</ns3:hr>
            <ns3:cad>0</ns3:cad>
          </ns3:TrackPointExtension>
        </extensions>
      </trkpt>
      <trkpt lat="45.3473495878279209136962890625" lon="-71.01111687719821929931640625">
        <ele>971.5999755859375</ele>
        <time>2026-08-21T19:47:32.000Z</time>
        <extensions>
          <ns3:TrackPointExtension>
            <ns3:hr>112</ns3:hr>
            <ns3:cad>0</ns3:cad>
          </ns3:TrackPointExtension>
        </extensions>
      </trkpt>
      <trkpt lat="45.34734942018985748291015625" lon="-71.01110279560089111328125">
        <ele>971.4000244140625</ele>
        <time>2026-08-21T19:47:33.000Z</time>
        <extensions>
          <ns3:TrackPointExtension>
            <ns3:hr>112</ns3:hr>
            <ns3:cad>0</ns3:cad>
          </ns3:TrackPointExtension>
        </extensions>
      </trkpt>
      <trkpt lat="45.3473465703427791595458984375" lon="-71.0110867023468017578125">
        <ele>971.20001220703125</ele>
        <time>2026-08-21T19:47:34.000Z</time>
        <extensions>
          <ns3:TrackPointExtension>
            <ns3:hr>112</ns3:hr>
            <ns3:cad>0</ns3:cad>
          </ns3:TrackPointExtension>
        </extensions>
      </trkpt>
      <trkpt lat="45.34734246321022510528564453125" lon="-71.01107236929237842559814453125">
        <ele>971</ele>
        <time>2026-08-21T19:47:35.000Z</time>
        <extensions>
          <ns3:TrackPointExtension>
            <ns3:hr>112</ns3:hr>
            <ns3:cad>0</ns3:cad>
          </ns3:TrackPointExtension>
        </extensions>
      </trkpt>
      <trkpt lat="45.347332656383514404296875" lon="-71.01106247864663600921630859375">
        <ele>970.79998779296875</ele>
        <time>2026-08-21T19:47:36.000Z</time>
        <extensions>
          <ns3:TrackPointExtension>
            <ns3:hr>114</ns3:hr>
            <ns3:cad>0</ns3:cad>
          </ns3:TrackPointExtension>
        </extensions>
      </trkpt>
      <trkpt lat="45.3473231010138988494873046875" lon="-71.01105610840022563934326171875">
        <ele>970.5999755859375</ele>
        <time>2026-08-21T19:47:37.000Z</time>
        <extensions>
          <ns3:TrackPointExtension>
            <ns3:hr>115</ns3:hr>
            <ns3:cad>51</ns3:cad>
          </ns3:TrackPointExtension>
        </extensions>
      </trkpt>
      <trkpt lat="45.34731455147266387939453125" lon="-71.01105275563895702362060546875">
        <ele>970.20001220703125</ele>
        <time>2026-08-21T19:47:38.000Z</time>
        <extensions>
          <ns3:TrackPointExtension>
            <ns3:hr>115</ns3:hr>
            <ns3:cad>51</ns3:cad>
          </ns3:TrackPointExtension>
        </extensions>
      </trkpt>
      <trkpt lat="45.34730491228401660919189453125" lon="-71.011051498353481292724609375">
        <ele>970</ele>
        <time>2026-08-21T19:47:39.000Z</time>
        <extensions>
          <ns3:TrackPointExtension>
            <ns3:hr>116</ns3:hr>
            <ns3:cad>53</ns3:cad>
          </ns3:TrackPointExtension>
        </extensions>
      </trkpt>
      <trkpt lat="45.3472949378192424774169921875" lon="-71.01105275563895702362060546875">
        <ele>969.79998779296875</ele>
        <time>2026-08-21T19:47:40.000Z</time>
        <extensions>
          <ns3:TrackPointExtension>
            <ns3:hr>116</ns3:hr>
            <ns3:cad>53</ns3:cad>
          </ns3:TrackPointExtension>
        </extensions>
      </trkpt>
      <trkpt lat="45.3472835384309291839599609375" lon="-71.0110553540289402008056640625">
        <ele>969.5999755859375</ele>
        <time>2026-08-21T19:47:41.000Z</time>
        <extensions>
          <ns3:TrackPointExtension>
            <ns3:hr>117</ns3:hr>
            <ns3:cad>53</ns3:cad>
          </ns3:TrackPointExtension>
        </extensions>
      </trkpt>
      <trkpt lat="45.34727431833744049072265625" lon="-71.01105979643762111663818359375">
        <ele>969.20001220703125</ele>
        <time>2026-08-21T19:47:42.000Z</time>
        <extensions>
          <ns3:TrackPointExtension>
            <ns3:hr>117</ns3:hr>
            <ns3:cad>52</ns3:cad>
          </ns3:TrackPointExtension>
        </extensions>
      </trkpt>
      <trkpt lat="45.3472610749304294586181640625" lon="-71.01106465794146060943603515625">
        <ele>969</ele>
        <time>2026-08-21T19:47:43.000Z</time>
        <extensions>
          <ns3:TrackPointExtension>
            <ns3:hr>117</ns3:hr>
            <ns3:cad>52</ns3:cad>
          </ns3:TrackPointExtension>
        </extensions>
      </trkpt>
      <trkpt lat="45.347249172627925872802734375" lon="-71.0110670886933803558349609375">
        <ele>968.79998779296875</ele>
        <time>2026-08-21T19:47:44.000Z</time>
        <extensions>
          <ns3:TrackPointExtension>
            <ns3:hr>117</ns3:hr>
            <ns3:cad>57</ns3:cad>
          </ns3:TrackPointExtension>
        </extensions>
      </trkpt>
      <trkpt lat="45.34723567776381969451904296875" lon="-71.01106415502727031707763671875">
        <ele>968.4000244140625</ele>
        <time>2026-08-21T19:47:45.000Z</time>
        <extensions>
          <ns3:TrackPointExtension>
            <ns3:hr>117</ns3:hr>
            <ns3:cad>57</ns3:cad>
          </ns3:TrackPointExtension>
        </extensions>
      </trkpt>
      <trkpt lat="45.3472265414893627166748046875" lon="-71.01106583140790462493896484375">
        <ele>968.20001220703125</ele>
        <time>2026-08-21T19:47:46.000Z</time>
        <extensions>
          <ns3:TrackPointExtension>
            <ns3:hr>117</ns3:hr>
            <ns3:cad>57</ns3:cad>
          </ns3:TrackPointExtension>
        </extensions>
      </trkpt>
      <trkpt lat="45.34721556119620800018310546875" lon="-71.0110652446746826171875">
        <ele>968</ele>
        <time>2026-08-21T19:47:47.000Z</time>
        <extensions>
          <ns3:TrackPointExtension>
            <ns3:hr>116</ns3:hr>
            <ns3:cad>57</ns3:cad>
          </ns3:TrackPointExtension>
        </extensions>
      </trkpt>
      <trkpt lat="45.34720717929303646087646484375" lon="-71.01107002235949039459228515625">
        <ele>967.79998779296875</ele>
        <time>2026-08-21T19:47:48.000Z</time>
        <extensions>
          <ns3:TrackPointExtension>
            <ns3:hr>115</ns3:hr>
            <ns3:cad>57</ns3:cad>
          </ns3:TrackPointExtension>
        </extensions>
      </trkpt>
      <trkpt lat="45.34719712100923061370849609375" lon="-71.0110746324062347412109375">
        <ele>967.4000244140625</ele>
        <time>2026-08-21T19:47:49.000Z</time>
        <extensions>
          <ns3:TrackPointExtension>
            <ns3:hr>115</ns3:hr>
            <ns3:cad>60</ns3:cad>
          </ns3:TrackPointExtension>
        </extensions>
      </trkpt>
      <trkpt lat="45.3471891582012176513671875" lon="-71.01108896546065807342529296875">
        <ele>967.20001220703125</ele>
        <time>2026-08-21T19:47:50.000Z</time>
        <extensions>
          <ns3:TrackPointExtension>
            <ns3:hr>114</ns3:hr>
            <ns3:cad>60</ns3:cad>
          </ns3:TrackPointExtension>
        </extensions>
      </trkpt>
      <trkpt lat="45.34718153066933155059814453125" lon="-71.01109986193478107452392578125">
        <ele>966.79998779296875</ele>
        <time>2026-08-21T19:47:51.000Z</time>
        <extensions>
          <ns3:TrackPointExtension>
            <ns3:hr>114</ns3:hr>
            <ns3:cad>60</ns3:cad>
          </ns3:TrackPointExtension>
        </extensions>
      </trkpt>
      <trkpt lat="45.34717499278485774993896484375" lon="-71.011111848056316375732421875">
        <ele>966.5999755859375</ele>
        <time>2026-08-21T19:47:52.000Z</time>
        <extensions>
          <ns3:TrackPointExtension>
            <ns3:hr>113</ns3:hr>
            <ns3:cad>60</ns3:cad>
          </ns3:TrackPointExtension>
        </extensions>
      </trkpt>
      <trkpt lat="45.34716828726232051849365234375" lon="-71.01112014614045619964599609375">
        <ele>966.20001220703125</ele>
        <time>2026-08-21T19:47:53.000Z</time>
        <extensions>
          <ns3:TrackPointExtension>
            <ns3:hr>113</ns3:hr>
            <ns3:cad>60</ns3:cad>
          </ns3:TrackPointExtension>
        </extensions>
      </trkpt>
      <trkpt lat="45.34716057591140270233154296875" lon="-71.01112618111073970794677734375">
        <ele>966</ele>
        <time>2026-08-21T19:47:54.000Z</time>
        <extensions>
          <ns3:TrackPointExtension>
            <ns3:hr>113</ns3:hr>
            <ns3:cad>60</ns3:cad>
          </ns3:TrackPointExtension>
        </extensions>
      </trkpt>
      <trkpt lat="45.34715604968369007110595703125" lon="-71.01112894713878631591796875">
        <ele>965.5999755859375</ele>
        <time>2026-08-21T19:47:55.000Z</time>
        <extensions>
          <ns3:TrackPointExtension>
            <ns3:hr>113</ns3:hr>
            <ns3:cad>60</ns3:cad>
          </ns3:TrackPointExtension>
        </extensions>
      </trkpt>
      <trkpt lat="45.34715169109404087066650390625" lon="-71.01113297045230865478515625">
        <ele>965.4000244140625</ele>
        <time>2026-08-21T19:47:56.000Z</time>
        <extensions>
          <ns3:TrackPointExtension>
            <ns3:hr>113</ns3:hr>
            <ns3:cad>0</ns3:cad>
          </ns3:TrackPointExtension>
        </extensions>
      </trkpt>
      <trkpt lat="45.34714884124696254730224609375" lon="-71.01113204844295978546142578125">
        <ele>965.20001220703125</ele>
        <time>2026-08-21T19:47:57.000Z</time>
        <extensions>
          <ns3:TrackPointExtension>
            <ns3:hr>113</ns3:hr>
            <ns3:cad>0</ns3:cad>
          </ns3:TrackPointExtension>
        </extensions>
      </trkpt>
      <trkpt lat="45.34714163281023502349853515625" lon="-71.01113741286098957061767578125">
        <ele>965</ele>
        <time>2026-08-21T19:47:58.000Z</time>
        <extensions>
          <ns3:TrackPointExtension>
            <ns3:hr>107</ns3:hr>
            <ns3:cad>0</ns3:cad>
          </ns3:TrackPointExtension>
        </extensions>
      </trkpt>
      <trkpt lat="45.3471329994499683380126953125" lon="-71.01113699376583099365234375">
        <ele>964.5999755859375</ele>
        <time>2026-08-21T19:47:59.000Z</time>
        <extensions>
          <ns3:TrackPointExtension>
            <ns3:hr>106</ns3:hr>
            <ns3:cad>0</ns3:cad>
          </ns3:TrackPointExtension>
        </extensions>
      </trkpt>
      <trkpt lat="45.34712721593677997589111328125" lon="-71.01113431155681610107421875">
        <ele>964.4000244140625</ele>
        <time>2026-08-21T19:48:00.000Z</time>
        <extensions>
          <ns3:TrackPointExtension>
            <ns3:hr>106</ns3:hr>
            <ns3:cad>0</ns3:cad>
          </ns3:TrackPointExtension>
        </extensions>
      </trkpt>
      <trkpt lat="45.34711740911006927490234375" lon="-71.0111307911574840545654296875">
        <ele>964.20001220703125</ele>
        <time>2026-08-21T19:48:01.000Z</time>
        <extensions>
          <ns3:TrackPointExtension>
            <ns3:hr>106</ns3:hr>
            <ns3:cad>0</ns3:cad>
          </ns3:TrackPointExtension>
        </extensions>
      </trkpt>
      <trkpt lat="45.34711011685431003570556640625" lon="-71.01112584583461284637451171875">
        <ele>963.79998779296875</ele>
        <time>2026-08-21T19:48:02.000Z</time>
        <extensions>
          <ns3:TrackPointExtension>
            <ns3:hr>106</ns3:hr>
            <ns3:cad>0</ns3:cad>
          </ns3:TrackPointExtension>
        </extensions>
      </trkpt>
      <trkpt lat="45.34710307605564594268798828125" lon="-71.01112400181591510772705078125">
        <ele>963.4000244140625</ele>
        <time>2026-08-21T19:48:03.000Z</time>
        <extensions>
          <ns3:TrackPointExtension>
            <ns3:hr>106</ns3:hr>
            <ns3:cad>0</ns3:cad>
          </ns3:TrackPointExtension>
        </extensions>
      </trkpt>
      <trkpt lat="45.34709368832409381866455078125" lon="-71.01111779920756816864013671875">
        <ele>963</ele>
        <time>2026-08-21T19:48:04.000Z</time>
        <extensions>
          <ns3:TrackPointExtension>
            <ns3:hr>106</ns3:hr>
            <ns3:cad>0</ns3:cad>
          </ns3:TrackPointExtension>
        </extensions>
      </trkpt>
      <trkpt lat="45.34708228893578052520751953125" lon="-71.01111645810306072235107421875">
        <ele>962.5999755859375</ele>
        <time>2026-08-21T19:48:05.000Z</time>
        <extensions>
          <ns3:TrackPointExtension>
            <ns3:hr>106</ns3:hr>
            <ns3:cad>0</ns3:cad>
          </ns3:TrackPointExtension>
        </extensions>
      </trkpt>
      <trkpt lat="45.34707457758486270904541015625" lon="-71.01111897267401218414306640625">
        <ele>962.20001220703125</ele>
        <time>2026-08-21T19:48:06.000Z</time>
        <extensions>
          <ns3:TrackPointExtension>
            <ns3:hr>106</ns3:hr>
            <ns3:cad>0</ns3:cad>
          </ns3:TrackPointExtension>
        </extensions>
      </trkpt>
      <trkpt lat="45.34706736914813518524169921875" lon="-71.0111193917691707611083984375">
        <ele>962</ele>
        <time>2026-08-21T19:48:07.000Z</time>
        <extensions>
          <ns3:TrackPointExtension>
            <ns3:hr>106</ns3:hr>
            <ns3:cad>0</ns3:cad>
          </ns3:TrackPointExtension>
        </extensions>
      </trkpt>
      <trkpt lat="45.3470577299594879150390625" lon="-71.0111126862466335296630859375">
        <ele>961.5999755859375</ele>
        <time>2026-08-21T19:48:08.000Z</time>
        <extensions>
          <ns3:TrackPointExtension>
            <ns3:hr>106</ns3:hr>
            <ns3:cad>0</ns3:cad>
          </ns3:TrackPointExtension>
        </extensions>
      </trkpt>
      <trkpt lat="45.3470458276569843292236328125" lon="-71.01111176423728466033935546875">
        <ele>961.20001220703125</ele>
        <time>2026-08-21T19:48:09.000Z</time>
        <extensions>
          <ns3:TrackPointExtension>
            <ns3:hr>106</ns3:hr>
            <ns3:cad>0</ns3:cad>
          </ns3:TrackPointExtension>
        </extensions>
      </trkpt>
      <trkpt lat="45.3470389544963836669921875" lon="-71.0111079923808574676513671875">
        <ele>960.79998779296875</ele>
        <time>2026-08-21T19:48:10.000Z</time>
        <extensions>
          <ns3:TrackPointExtension>
            <ns3:hr>106</ns3:hr>
            <ns3:cad>0</ns3:cad>
          </ns3:TrackPointExtension>
        </extensions>
      </trkpt>
      <trkpt lat="45.3470283932983875274658203125" lon="-71.011105813086032867431640625">
        <ele>960.5999755859375</ele>
        <time>2026-08-21T19:48:11.000Z</time>
        <extensions>
          <ns3:TrackPointExtension>
            <ns3:hr>105</ns3:hr>
            <ns3:cad>0</ns3:cad>
          </ns3:TrackPointExtension>
        </extensions>
      </trkpt>
      <trkpt lat="45.347021184861660003662109375" lon="-71.01110623218119144439697265625">
        <ele>960.20001220703125</ele>
        <time>2026-08-21T19:48:12.000Z</time>
        <extensions>
          <ns3:TrackPointExtension>
            <ns3:hr>106</ns3:hr>
            <ns3:cad>0</ns3:cad>
          </ns3:TrackPointExtension>
        </extensions>
      </trkpt>
      <trkpt lat="45.3470134735107421875" lon="-71.01110053248703479766845703125">
        <ele>960</ele>
        <time>2026-08-21T19:48:13.000Z</time>
        <extensions>
          <ns3:TrackPointExtension>
            <ns3:hr>105</ns3:hr>
            <ns3:cad>0</ns3:cad>
          </ns3:TrackPointExtension>
        </extensions>
      </trkpt>
      <trkpt lat="45.34700735472142696380615234375" lon="-71.01109868846833705902099609375">
        <ele>959.79998779296875</ele>
        <time>2026-08-21T19:48:14.000Z</time>
        <extensions>
          <ns3:TrackPointExtension>
            <ns3:hr>105</ns3:hr>
            <ns3:cad>0</ns3:cad>
          </ns3:TrackPointExtension>
        </extensions>
      </trkpt>
      <trkpt lat="45.34699897281825542449951171875" lon="-71.011094748973846435546875">
        <ele>959.4000244140625</ele>
        <time>2026-08-21T19:48:15.000Z</time>
        <extensions>
          <ns3:TrackPointExtension>
            <ns3:hr>105</ns3:hr>
            <ns3:cad>0</ns3:cad>
          </ns3:TrackPointExtension>
        </extensions>
      </trkpt>
      <trkpt lat="45.34699268639087677001953125" lon="-71.01108829490840435028076171875">
        <ele>959.20001220703125</ele>
        <time>2026-08-21T19:48:16.000Z</time>
        <extensions>
          <ns3:TrackPointExtension>
            <ns3:hr>106</ns3:hr>
            <ns3:cad>0</ns3:cad>
          </ns3:TrackPointExtension>
        </extensions>
      </trkpt>
      <trkpt lat="45.3469821251928806304931640625" lon="-71.01108812727034091949462890625">
        <ele>958.79998779296875</ele>
        <time>2026-08-21T19:48:17.000Z</time>
        <extensions>
          <ns3:TrackPointExtension>
            <ns3:hr>105</ns3:hr>
            <ns3:cad>0</ns3:cad>
          </ns3:TrackPointExtension>
        </extensions>
      </trkpt>
      <trkpt lat="45.3469724021852016448974609375" lon="-71.01108745671808719635009765625">
        <ele>958.5999755859375</ele>
        <time>2026-08-21T19:48:18.000Z</time>
        <extensions>
          <ns3:TrackPointExtension>
            <ns3:hr>105</ns3:hr>
            <ns3:cad>0</ns3:cad>
          </ns3:TrackPointExtension>
        </extensions>
      </trkpt>
      <trkpt lat="45.34696360118687152862548828125" lon="-71.01108091883361339569091796875">
        <ele>958.4000244140625</ele>
        <time>2026-08-21T19:48:19.000Z</time>
        <extensions>
          <ns3:TrackPointExtension>
            <ns3:hr>106</ns3:hr>
            <ns3:cad>59</ns3:cad>
          </ns3:TrackPointExtension>
        </extensions>
      </trkpt>
      <trkpt lat="45.3469499386847019195556640625" lon="-71.0110804997384548187255859375">
        <ele>958.20001220703125</ele>
        <time>2026-08-21T19:48:20.000Z</time>
        <extensions>
          <ns3:TrackPointExtension>
            <ns3:hr>105</ns3:hr>
            <ns3:cad>59</ns3:cad>
          </ns3:TrackPointExtension>
        </extensions>
      </trkpt>
      <trkpt lat="45.34694097004830837249755859375" lon="-71.01108125410974025726318359375">
        <ele>958</ele>
        <time>2026-08-21T19:48:21.000Z</time>
        <extensions>
          <ns3:TrackPointExtension>
            <ns3:hr>106</ns3:hr>
            <ns3:cad>59</ns3:cad>
          </ns3:TrackPointExtension>
        </extensions>
      </trkpt>
      <trkpt lat="45.346932001411914825439453125" lon="-71.01107974536716938018798828125">
        <ele>957.5999755859375</ele>
        <time>2026-08-21T19:48:22.000Z</time>
        <extensions>
          <ns3:TrackPointExtension>
            <ns3:hr>106</ns3:hr>
            <ns3:cad>59</ns3:cad>
          </ns3:TrackPointExtension>
        </extensions>
      </trkpt>
      <trkpt lat="45.3469214402139186859130859375" lon="-71.01107538677752017974853515625">
        <ele>957.4000244140625</ele>
        <time>2026-08-21T19:48:23.000Z</time>
        <extensions>
          <ns3:TrackPointExtension>
            <ns3:hr>106</ns3:hr>
            <ns3:cad>55</ns3:cad>
          </ns3:TrackPointExtension>
        </extensions>
      </trkpt>
      <trkpt lat="45.34690626896917819976806640625" lon="-71.01107656024396419525146484375">
        <ele>957.20001220703125</ele>
        <time>2026-08-21T19:48:24.000Z</time>
        <extensions>
          <ns3:TrackPointExtension>
            <ns3:hr>106</ns3:hr>
            <ns3:cad>54</ns3:cad>
          </ns3:TrackPointExtension>
        </extensions>
      </trkpt>
      <trkpt lat="45.34689503721892833709716796875" lon="-71.0110799968242645263671875">
        <ele>957</ele>
        <time>2026-08-21T19:48:25.000Z</time>
        <extensions>
          <ns3:TrackPointExtension>
            <ns3:hr>106</ns3:hr>
            <ns3:cad>52</ns3:cad>
          </ns3:TrackPointExtension>
        </extensions>
      </trkpt>
      <trkpt lat="45.34688497893512248992919921875" lon="-71.01108192466199398040771484375">
        <ele>956.79998779296875</ele>
        <time>2026-08-21T19:48:26.000Z</time>
        <extensions>
          <ns3:TrackPointExtension>
            <ns3:hr>106</ns3:hr>
            <ns3:cad>52</ns3:cad>
          </ns3:TrackPointExtension>
        </extensions>
      </trkpt>
      <trkpt lat="45.3468738310039043426513671875" lon="-71.0110848583281040191650390625">
        <ele>956.4000244140625</ele>
        <time>2026-08-21T19:48:27.000Z</time>
        <extensions>
          <ns3:TrackPointExtension>
            <ns3:hr>106</ns3:hr>
            <ns3:cad>52</ns3:cad>
          </ns3:TrackPointExtension>
        </extensions>
      </trkpt>
      <trkpt lat="45.346858240664005279541015625" lon="-71.01108762435615062713623046875">
        <ele>956.20001220703125</ele>
        <time>2026-08-21T19:48:28.000Z</time>
        <extensions>
          <ns3:TrackPointExtension>
            <ns3:hr>107</ns3:hr>
            <ns3:cad>0</ns3:cad>
          </ns3:TrackPointExtension>
        </extensions>
      </trkpt>
      <trkpt lat="45.34684248268604278564453125" lon="-71.01109483279287815093994140625">
        <ele>955.79998779296875</ele>
        <time>2026-08-21T19:48:29.000Z</time>
        <extensions>
          <ns3:TrackPointExtension>
            <ns3:hr>106</ns3:hr>
            <ns3:cad>0</ns3:cad>
          </ns3:TrackPointExtension>
        </extensions>
      </trkpt>
      <trkpt lat="45.34683217294514179229736328125" lon="-71.01110103540122509002685546875">
        <ele>955.5999755859375</ele>
        <time>2026-08-21T19:48:30.000Z</time>
        <extensions>
          <ns3:TrackPointExtension>
            <ns3:hr>106</ns3:hr>
            <ns3:cad>0</ns3:cad>
          </ns3:TrackPointExtension>
        </extensions>
      </trkpt>
      <trkpt lat="45.34682077355682849884033203125" lon="-71.0111103393137454986572265625">
        <ele>955.20001220703125</ele>
        <time>2026-08-21T19:48:31.000Z</time>
        <extensions>
          <ns3:TrackPointExtension>
            <ns3:hr>106</ns3:hr>
            <ns3:cad>0</ns3:cad>
          </ns3:TrackPointExtension>
        </extensions>
      </trkpt>
      <trkpt lat="45.3468077816069126129150390625" lon="-71.011121235787868499755859375">
        <ele>954.79998779296875</ele>
        <time>2026-08-21T19:48:32.000Z</time>
        <extensions>
          <ns3:TrackPointExtension>
            <ns3:hr>106</ns3:hr>
            <ns3:cad>0</ns3:cad>
          </ns3:TrackPointExtension>
        </extensions>
      </trkpt>
      <trkpt lat="45.34679554402828216552734375" lon="-71.01113188080489635467529296875">
        <ele>954.4000244140625</ele>
        <time>2026-08-21T19:48:33.000Z</time>
        <extensions>
          <ns3:TrackPointExtension>
            <ns3:hr>107</ns3:hr>
            <ns3:cad>0</ns3:cad>
          </ns3:TrackPointExtension>
        </extensions>
      </trkpt>
      <trkpt lat="45.34678121097385883331298828125" lon="-71.01113908924162387847900390625">
        <ele>954.20001220703125</ele>
        <time>2026-08-21T19:48:34.000Z</time>
        <extensions>
          <ns3:TrackPointExtension>
            <ns3:hr>108</ns3:hr>
            <ns3:cad>0</ns3:cad>
          </ns3:TrackPointExtension>
        </extensions>
      </trkpt>
      <trkpt lat="45.34677274525165557861328125" lon="-71.01114545948803424835205078125">
        <ele>954</ele>
        <time>2026-08-21T19:48:35.000Z</time>
        <extensions>
          <ns3:TrackPointExtension>
            <ns3:hr>108</ns3:hr>
            <ns3:cad>68</ns3:cad>
          </ns3:TrackPointExtension>
        </extensions>
      </trkpt>
      <trkpt lat="45.34675531089305877685546875" lon="-71.0111524164676666259765625">
        <ele>953.5999755859375</ele>
        <time>2026-08-21T19:48:36.000Z</time>
        <extensions>
          <ns3:TrackPointExtension>
            <ns3:hr>108</ns3:hr>
            <ns3:cad>68</ns3:cad>
          </ns3:TrackPointExtension>
        </extensions>
      </trkpt>
      <trkpt lat="45.3467387147247791290283203125" lon="-71.01116037927567958831787109375">
        <ele>953.4000244140625</ele>
        <time>2026-08-21T19:48:37.000Z</time>
        <extensions>
          <ns3:TrackPointExtension>
            <ns3:hr>106</ns3:hr>
            <ns3:cad>68</ns3:cad>
          </ns3:TrackPointExtension>
        </extensions>
      </trkpt>
      <trkpt lat="45.34672656096518039703369140625" lon="-71.01116172038018703460693359375">
        <ele>953</ele>
        <time>2026-08-21T19:48:38.000Z</time>
        <extensions>
          <ns3:TrackPointExtension>
            <ns3:hr>103</ns3:hr>
            <ns3:cad>68</ns3:cad>
          </ns3:TrackPointExtension>
        </extensions>
      </trkpt>
      <trkpt lat="45.346718765795230865478515625" lon="-71.011167503893375396728515625">
        <ele>952.79998779296875</ele>
        <time>2026-08-21T19:48:39.000Z</time>
        <extensions>
          <ns3:TrackPointExtension>
            <ns3:hr>100</ns3:hr>
            <ns3:cad>68</ns3:cad>
          </ns3:TrackPointExtension>
        </extensions>
      </trkpt>
      <trkpt lat="45.3467041812837123870849609375" lon="-71.0111767239868640899658203125">
        <ele>952.5999755859375</ele>
        <time>2026-08-21T19:48:40.000Z</time>
        <extensions>
          <ns3:TrackPointExtension>
            <ns3:hr>100</ns3:hr>
            <ns3:cad>50</ns3:cad>
          </ns3:TrackPointExtension>
        </extensions>
      </trkpt>
      <trkpt lat="45.3466914407908916473388671875" lon="-71.011180244386196136474609375">
        <ele>952.20001220703125</ele>
        <time>2026-08-21T19:48:41.000Z</time>
        <extensions>
          <ns3:TrackPointExtension>
            <ns3:hr>99</ns3:hr>
            <ns3:cad>50</ns3:cad>
          </ns3:TrackPointExtension>
        </extensions>
      </trkpt>
      <trkpt lat="45.3466827236115932464599609375" lon="-71.01118988357484340667724609375">
        <ele>952</ele>
        <time>2026-08-21T19:48:42.000Z</time>
        <extensions>
          <ns3:TrackPointExtension>
            <ns3:hr>99</ns3:hr>
            <ns3:cad>50</ns3:cad>
          </ns3:TrackPointExtension>
        </extensions>
      </trkpt>
      <trkpt lat="45.34667107276618480682373046875" lon="-71.01119332015514373779296875">
        <ele>951.79998779296875</ele>
        <time>2026-08-21T19:48:43.000Z</time>
        <extensions>
          <ns3:TrackPointExtension>
            <ns3:hr>99</ns3:hr>
            <ns3:cad>0</ns3:cad>
          </ns3:TrackPointExtension>
        </extensions>
      </trkpt>
      <trkpt lat="45.34665204584598541259765625" lon="-71.01121343672275543212890625">
        <ele>951.5999755859375</ele>
        <time>2026-08-21T19:48:44.000Z</time>
        <extensions>
          <ns3:TrackPointExtension>
            <ns3:hr>99</ns3:hr>
            <ns3:cad>0</ns3:cad>
          </ns3:TrackPointExtension>
        </extensions>
      </trkpt>
      <trkpt lat="45.3466364555060863494873046875" lon="-71.0112253390252590179443359375">
        <ele>951.4000244140625</ele>
        <time>2026-08-21T19:48:45.000Z</time>
        <extensions>
          <ns3:TrackPointExtension>
            <ns3:hr>100</ns3:hr>
            <ns3:cad>0</ns3:cad>
          </ns3:TrackPointExtension>
        </extensions>
      </trkpt>
      <trkpt lat="45.3466217033565044403076171875" lon="-71.01123916916549205780029296875">
        <ele>951.20001220703125</ele>
        <time>2026-08-21T19:48:46.000Z</time>
        <extensions>
          <ns3:TrackPointExtension>
            <ns3:hr>101</ns3:hr>
            <ns3:cad>0</ns3:cad>
          </ns3:TrackPointExtension>
        </extensions>
      </trkpt>
      <trkpt lat="45.34660913050174713134765625" lon="-71.01125593297183513641357421875">
        <ele>951.20001220703125</ele>
        <time>2026-08-21T19:48:47.000Z</time>
        <extensions>
          <ns3:TrackPointExtension>
            <ns3:hr>104</ns3:hr>
            <ns3:cad>0</ns3:cad>
          </ns3:TrackPointExtension>
        </extensions>
      </trkpt>
      <trkpt lat="45.34659379161894321441650390625" lon="-71.01126515306532382965087890625">
        <ele>951</ele>
        <time>2026-08-21T19:48:48.000Z</time>
        <extensions>
          <ns3:TrackPointExtension>
            <ns3:hr>109</ns3:hr>
            <ns3:cad>0</ns3:cad>
          </ns3:TrackPointExtension>
        </extensions>
      </trkpt>
      <trkpt lat="45.34658423624932765960693359375" lon="-71.01127638481557369232177734375">
        <ele>950.79998779296875</ele>
        <time>2026-08-21T19:48:49.000Z</time>
        <extensions>
          <ns3:TrackPointExtension>
            <ns3:hr>111</ns3:hr>
            <ns3:cad>0</ns3:cad>
          </ns3:TrackPointExtension>
        </extensions>
      </trkpt>
      <trkpt lat="45.3465757705271244049072265625" lon="-71.011286862194538116455078125">
        <ele>950.4000244140625</ele>
        <time>2026-08-21T19:48:50.000Z</time>
        <extensions>
          <ns3:TrackPointExtension>
            <ns3:hr>113</ns3:hr>
            <ns3:cad>57</ns3:cad>
          </ns3:TrackPointExtension>
        </extensions>
      </trkpt>
      <trkpt lat="45.34656462259590625762939453125" lon="-71.01129163987934589385986328125">
        <ele>950.20001220703125</ele>
        <time>2026-08-21T19:48:51.000Z</time>
        <extensions>
          <ns3:TrackPointExtension>
            <ns3:hr>114</ns3:hr>
            <ns3:cad>57</ns3:cad>
          </ns3:TrackPointExtension>
        </extensions>
      </trkpt>
      <trkpt lat="45.3465523011982440948486328125" lon="-71.01129935123026371002197265625">
        <ele>949.79998779296875</ele>
        <time>2026-08-21T19:48:52.000Z</time>
        <extensions>
          <ns3:TrackPointExtension>
            <ns3:hr>115</ns3:hr>
            <ns3:cad>57</ns3:cad>
          </ns3:TrackPointExtension>
        </extensions>
      </trkpt>
      <trkpt lat="45.34654048271477222442626953125" lon="-71.0113091580569744110107421875">
        <ele>949.5999755859375</ele>
        <time>2026-08-21T19:48:53.000Z</time>
        <extensions>
          <ns3:TrackPointExtension>
            <ns3:hr>115</ns3:hr>
            <ns3:cad>57</ns3:cad>
          </ns3:TrackPointExtension>
        </extensions>
      </trkpt>
      <trkpt lat="45.34653025679290294647216796875" lon="-71.0113131813704967498779296875">
        <ele>949.4000244140625</ele>
        <time>2026-08-21T19:48:54.000Z</time>
        <extensions>
          <ns3:TrackPointExtension>
            <ns3:hr>115</ns3:hr>
            <ns3:cad>57</ns3:cad>
          </ns3:TrackPointExtension>
        </extensions>
      </trkpt>
      <trkpt lat="45.3465194441378116607666015625" lon="-71.0113106667995452880859375">
        <ele>949</ele>
        <time>2026-08-21T19:48:55.000Z</time>
        <extensions>
          <ns3:TrackPointExtension>
            <ns3:hr>115</ns3:hr>
            <ns3:cad>69</ns3:cad>
          </ns3:TrackPointExtension>
        </extensions>
      </trkpt>
      <trkpt lat="45.346508212387561798095703125" lon="-71.01131242699921131134033203125">
        <ele>948.5999755859375</ele>
        <time>2026-08-21T19:48:56.000Z</time>
        <extensions>
          <ns3:TrackPointExtension>
            <ns3:hr>115</ns3:hr>
            <ns3:cad>69</ns3:cad>
          </ns3:TrackPointExtension>
        </extensions>
      </trkpt>
      <trkpt lat="45.34649924375116825103759765625" lon="-71.01131510920822620391845703125">
        <ele>948.4000244140625</ele>
        <time>2026-08-21T19:48:57.000Z</time>
        <extensions>
          <ns3:TrackPointExtension>
            <ns3:hr>115</ns3:hr>
            <ns3:cad>69</ns3:cad>
          </ns3:TrackPointExtension>
        </extensions>
      </trkpt>
      <trkpt lat="45.3464892692863941192626953125" lon="-71.011314690113067626953125">
        <ele>948</ele>
        <time>2026-08-21T19:48:58.000Z</time>
        <extensions>
          <ns3:TrackPointExtension>
            <ns3:hr>115</ns3:hr>
            <ns3:cad>69</ns3:cad>
          </ns3:TrackPointExtension>
        </extensions>
      </trkpt>
      <trkpt lat="45.34647460095584392547607421875" lon="-71.01131443865597248077392578125">
        <ele>947.79998779296875</ele>
        <time>2026-08-21T19:48:59.000Z</time>
        <extensions>
          <ns3:TrackPointExtension>
            <ns3:hr>115</ns3:hr>
            <ns3:cad>69</ns3:cad>
          </ns3:TrackPointExtension>
        </extensions>
      </trkpt>
      <trkpt lat="45.34645481966435909271240234375" lon="-71.01132064126431941986083984375">
        <ele>947.4000244140625</ele>
        <time>2026-08-21T19:49:00.000Z</time>
        <extensions>
          <ns3:TrackPointExtension>
            <ns3:hr>115</ns3:hr>
            <ns3:cad>71</ns3:cad>
          </ns3:TrackPointExtension>
        </extensions>
      </trkpt>
      <trkpt lat="45.34644124098122119903564453125" lon="-71.01133455522358417510986328125">
        <ele>947</ele>
        <time>2026-08-21T19:49:01.000Z</time>
        <extensions>
          <ns3:TrackPointExtension>
            <ns3:hr>115</ns3:hr>
            <ns3:cad>71</ns3:cad>
          </ns3:TrackPointExtension>
        </extensions>
      </trkpt>
      <trkpt lat="45.3464274108409881591796875" lon="-71.01134897209703922271728515625">
        <ele>946.5999755859375</ele>
        <time>2026-08-21T19:49:02.000Z</time>
        <extensions>
          <ns3:TrackPointExtension>
            <ns3:hr>114</ns3:hr>
            <ns3:cad>73</ns3:cad>
          </ns3:TrackPointExtension>
        </extensions>
      </trkpt>
      <trkpt lat="45.34641492180526256561279296875" lon="-71.01135827600955963134765625">
        <ele>946.20001220703125</ele>
        <time>2026-08-21T19:49:03.000Z</time>
        <extensions>
          <ns3:TrackPointExtension>
            <ns3:hr>114</ns3:hr>
            <ns3:cad>41</ns3:cad>
          </ns3:TrackPointExtension>
        </extensions>
      </trkpt>
      <trkpt lat="45.346406958997249603271484375" lon="-71.01136875338852405548095703125">
        <ele>945.79998779296875</ele>
        <time>2026-08-21T19:49:04.000Z</time>
        <extensions>
          <ns3:TrackPointExtension>
            <ns3:hr>114</ns3:hr>
            <ns3:cad>40</ns3:cad>
          </ns3:TrackPointExtension>
        </extensions>
      </trkpt>
      <trkpt lat="45.3464017622172832489013671875" lon="-71.0113750398159027099609375">
        <ele>945.5999755859375</ele>
        <time>2026-08-21T19:49:05.000Z</time>
        <extensions>
          <ns3:TrackPointExtension>
            <ns3:hr>114</ns3:hr>
            <ns3:cad>40</ns3:cad>
          </ns3:TrackPointExtension>
        </extensions>
      </trkpt>
      <trkpt lat="45.3463910333812236785888671875" lon="-71.01138384081423282623291015625">
        <ele>945.4000244140625</ele>
        <time>2026-08-21T19:49:06.000Z</time>
        <extensions>
          <ns3:TrackPointExtension>
            <ns3:hr>113</ns3:hr>
            <ns3:cad>40</ns3:cad>
          </ns3:TrackPointExtension>
        </extensions>
      </trkpt>
      <trkpt lat="45.34637820906937122344970703125" lon="-71.011384762823581695556640625">
        <ele>945</ele>
        <time>2026-08-21T19:49:07.000Z</time>
        <extensions>
          <ns3:TrackPointExtension>
            <ns3:hr>113</ns3:hr>
            <ns3:cad>0</ns3:cad>
          </ns3:TrackPointExtension>
        </extensions>
      </trkpt>
      <trkpt lat="45.346371419727802276611328125" lon="-71.0113933123648166656494140625">
        <ele>944.79998779296875</ele>
        <time>2026-08-21T19:49:08.000Z</time>
        <extensions>
          <ns3:TrackPointExtension>
            <ns3:hr>113</ns3:hr>
            <ns3:cad>0</ns3:cad>
          </ns3:TrackPointExtension>
        </extensions>
      </trkpt>
      <trkpt lat="45.34636236727237701416015625" lon="-71.011397838592529296875">
        <ele>944.4000244140625</ele>
        <time>2026-08-21T19:49:09.000Z</time>
        <extensions>
          <ns3:TrackPointExtension>
            <ns3:hr>114</ns3:hr>
            <ns3:cad>0</ns3:cad>
          </ns3:TrackPointExtension>
        </extensions>
      </trkpt>
      <trkpt lat="45.3463469445705413818359375" lon="-71.01139876060187816619873046875">
        <ele>944</ele>
        <time>2026-08-21T19:49:10.000Z</time>
        <extensions>
          <ns3:TrackPointExtension>
            <ns3:hr>115</ns3:hr>
            <ns3:cad>0</ns3:cad>
          </ns3:TrackPointExtension>
        </extensions>
      </trkpt>
      <trkpt lat="45.34633328206837177276611328125" lon="-71.01140865124762058258056640625">
        <ele>943.79998779296875</ele>
        <time>2026-08-21T19:49:11.000Z</time>
        <extensions>
          <ns3:TrackPointExtension>
            <ns3:hr>115</ns3:hr>
            <ns3:cad>0</ns3:cad>
          </ns3:TrackPointExtension>
        </extensions>
      </trkpt>
      <trkpt lat="45.34632372669875621795654296875" lon="-71.0114124231040477752685546875">
        <ele>943.4000244140625</ele>
        <time>2026-08-21T19:49:12.000Z</time>
        <extensions>
          <ns3:TrackPointExtension>
            <ns3:hr>115</ns3:hr>
            <ns3:cad>0</ns3:cad>
          </ns3:TrackPointExtension>
        </extensions>
      </trkpt>
      <trkpt lat="45.34630880691111087799072265625" lon="-71.01141166873276233673095703125">
        <ele>943.20001220703125</ele>
        <time>2026-08-21T19:49:13.000Z</time>
        <extensions>
          <ns3:TrackPointExtension>
            <ns3:hr>115</ns3:hr>
            <ns3:cad>0</ns3:cad>
          </ns3:TrackPointExtension>
        </extensions>
      </trkpt>
      <trkpt lat="45.34628952853381633758544921875" lon="-71.0114171169698238372802734375">
        <ele>942.79998779296875</ele>
        <time>2026-08-21T19:49:14.000Z</time>
        <extensions>
          <ns3:TrackPointExtension>
            <ns3:hr>114</ns3:hr>
            <ns3:cad>0</ns3:cad>
          </ns3:TrackPointExtension>
        </extensions>
      </trkpt>
      <trkpt lat="45.34627385437488555908203125" lon="-71.01141669787466526031494140625">
        <ele>942.4000244140625</ele>
        <time>2026-08-21T19:49:15.000Z</time>
        <extensions>
          <ns3:TrackPointExtension>
            <ns3:hr>115</ns3:hr>
            <ns3:cad>0</ns3:cad>
          </ns3:TrackPointExtension>
        </extensions>
      </trkpt>
      <trkpt lat="45.346263460814952850341796875" lon="-71.011422313749790191650390625">
        <ele>942.20001220703125</ele>
        <time>2026-08-21T19:49:16.000Z</time>
        <extensions>
          <ns3:TrackPointExtension>
            <ns3:hr>115</ns3:hr>
            <ns3:cad>0</ns3:cad>
          </ns3:TrackPointExtension>
        </extensions>
      </trkpt>
      <trkpt lat="45.346249043941497802734375" lon="-71.01142524741590023040771484375">
        <ele>942</ele>
        <time>2026-08-21T19:49:17.000Z</time>
        <extensions>
          <ns3:TrackPointExtension>
            <ns3:hr>115</ns3:hr>
            <ns3:cad>0</ns3:cad>
          </ns3:TrackPointExtension>
        </extensions>
      </trkpt>
      <trkpt lat="45.34623722545802593231201171875" lon="-71.01143195293843746185302734375">
        <ele>941.5999755859375</ele>
        <time>2026-08-21T19:49:18.000Z</time>
        <extensions>
          <ns3:TrackPointExtension>
            <ns3:hr>114</ns3:hr>
            <ns3:cad>0</ns3:cad>
          </ns3:TrackPointExtension>
        </extensions>
      </trkpt>
      <trkpt lat="45.3462230600416660308837890625" lon="-71.01144033484160900115966796875">
        <ele>941.4000244140625</ele>
        <time>2026-08-21T19:49:19.000Z</time>
        <extensions>
          <ns3:TrackPointExtension>
            <ns3:hr>115</ns3:hr>
            <ns3:cad>0</ns3:cad>
          </ns3:TrackPointExtension>
        </extensions>
      </trkpt>
      <trkpt lat="45.34620956517755985260009765625" lon="-71.01144670508801937103271484375">
        <ele>941</ele>
        <time>2026-08-21T19:49:20.000Z</time>
        <extensions>
          <ns3:TrackPointExtension>
            <ns3:hr>115</ns3:hr>
            <ns3:cad>0</ns3:cad>
          </ns3:TrackPointExtension>
        </extensions>
      </trkpt>
      <trkpt lat="45.34619146026670932769775390625" lon="-71.011460535228252410888671875">
        <ele>940.5999755859375</ele>
        <time>2026-08-21T19:49:21.000Z</time>
        <extensions>
          <ns3:TrackPointExtension>
            <ns3:hr>116</ns3:hr>
            <ns3:cad>0</ns3:cad>
          </ns3:TrackPointExtension>
        </extensions>
      </trkpt>
      <trkpt lat="45.34618475474417209625244140625" lon="-71.0114617086946964263916015625">
        <ele>940.20001220703125</ele>
        <time>2026-08-21T19:49:22.000Z</time>
        <extensions>
          <ns3:TrackPointExtension>
            <ns3:hr>116</ns3:hr>
            <ns3:cad>0</ns3:cad>
          </ns3:TrackPointExtension>
        </extensions>
      </trkpt>
      <trkpt lat="45.346169583499431610107421875" lon="-71.01147201843559741973876953125">
        <ele>939.79998779296875</ele>
        <time>2026-08-21T19:49:23.000Z</time>
        <extensions>
          <ns3:TrackPointExtension>
            <ns3:hr>116</ns3:hr>
            <ns3:cad>0</ns3:cad>
          </ns3:TrackPointExtension>
        </extensions>
      </trkpt>
      <trkpt lat="45.346160195767879486083984375" lon="-71.01148241199553012847900390625">
        <ele>939.4000244140625</ele>
        <time>2026-08-21T19:49:24.000Z</time>
        <extensions>
          <ns3:TrackPointExtension>
            <ns3:hr>117</ns3:hr>
            <ns3:cad>0</ns3:cad>
          </ns3:TrackPointExtension>
        </extensions>
      </trkpt>
      <trkpt lat="45.34614820964634418487548828125" lon="-71.01148459129035472869873046875">
        <ele>939.20001220703125</ele>
        <time>2026-08-21T19:49:25.000Z</time>
        <extensions>
          <ns3:TrackPointExtension>
            <ns3:hr>117</ns3:hr>
            <ns3:cad>0</ns3:cad>
          </ns3:TrackPointExtension>
        </extensions>
      </trkpt>
      <trkpt lat="45.34613437950611114501953125" lon="-71.0114912129938602447509765625">
        <ele>938.79998779296875</ele>
        <time>2026-08-21T19:49:26.000Z</time>
        <extensions>
          <ns3:TrackPointExtension>
            <ns3:hr>117</ns3:hr>
            <ns3:cad>0</ns3:cad>
          </ns3:TrackPointExtension>
        </extensions>
      </trkpt>
      <trkpt lat="45.3461251594126224517822265625" lon="-71.011506132781505584716796875">
        <ele>938.5999755859375</ele>
        <time>2026-08-21T19:49:27.000Z</time>
        <extensions>
          <ns3:TrackPointExtension>
            <ns3:hr>115</ns3:hr>
            <ns3:cad>0</ns3:cad>
          </ns3:TrackPointExtension>
        </extensions>
      </trkpt>
      <trkpt lat="45.3461120836436748504638671875" lon="-71.0115118324756622314453125">
        <ele>938.20001220703125</ele>
        <time>2026-08-21T19:49:28.000Z</time>
        <extensions>
          <ns3:TrackPointExtension>
            <ns3:hr>114</ns3:hr>
            <ns3:cad>0</ns3:cad>
          </ns3:TrackPointExtension>
        </extensions>
      </trkpt>
      <trkpt lat="45.346103198826313018798828125" lon="-71.01151811890304088592529296875">
        <ele>938</ele>
        <time>2026-08-21T19:49:29.000Z</time>
        <extensions>
          <ns3:TrackPointExtension>
            <ns3:hr>113</ns3:hr>
            <ns3:cad>0</ns3:cad>
          </ns3:TrackPointExtension>
        </extensions>
      </trkpt>
      <trkpt lat="45.34608769230544567108154296875" lon="-71.01152130402624607086181640625">
        <ele>937.5999755859375</ele>
        <time>2026-08-21T19:49:30.000Z</time>
        <extensions>
          <ns3:TrackPointExtension>
            <ns3:hr>111</ns3:hr>
            <ns3:cad>0</ns3:cad>
          </ns3:TrackPointExtension>
        </extensions>
      </trkpt>
      <trkpt lat="45.346074365079402923583984375" lon="-71.01152457296848297119140625">
        <ele>937.4000244140625</ele>
        <time>2026-08-21T19:49:31.000Z</time>
        <extensions>
          <ns3:TrackPointExtension>
            <ns3:hr>110</ns3:hr>
            <ns3:cad>0</ns3:cad>
          </ns3:TrackPointExtension>
        </extensions>
      </trkpt>
      <trkpt lat="45.34606221131980419158935546875" lon="-71.01153538562357425689697265625">
        <ele>937</ele>
        <time>2026-08-21T19:49:32.000Z</time>
        <extensions>
          <ns3:TrackPointExtension>
            <ns3:hr>109</ns3:hr>
            <ns3:cad>0</ns3:cad>
          </ns3:TrackPointExtension>
        </extensions>
      </trkpt>
      <trkpt lat="45.34604997374117374420166015625" lon="-71.0115441866219043731689453125">
        <ele>936.5999755859375</ele>
        <time>2026-08-21T19:49:33.000Z</time>
        <extensions>
          <ns3:TrackPointExtension>
            <ns3:hr>109</ns3:hr>
            <ns3:cad>0</ns3:cad>
          </ns3:TrackPointExtension>
        </extensions>
      </trkpt>
      <trkpt lat="45.3460379876196384429931640625" lon="-71.0115472041070461273193359375">
        <ele>936.20001220703125</ele>
        <time>2026-08-21T19:49:34.000Z</time>
        <extensions>
          <ns3:TrackPointExtension>
            <ns3:hr>109</ns3:hr>
            <ns3:cad>0</ns3:cad>
          </ns3:TrackPointExtension>
        </extensions>
      </trkpt>
      <trkpt lat="45.34602709114551544189453125" lon="-71.0115646384656429290771484375">
        <ele>935.79998779296875</ele>
        <time>2026-08-21T19:49:35.000Z</time>
        <extensions>
          <ns3:TrackPointExtension>
            <ns3:hr>108</ns3:hr>
            <ns3:cad>0</ns3:cad>
          </ns3:TrackPointExtension>
        </extensions>
      </trkpt>
      <trkpt lat="45.34601661376655101776123046875" lon="-71.01157528348267078399658203125">
        <ele>935.4000244140625</ele>
        <time>2026-08-21T19:49:36.000Z</time>
        <extensions>
          <ns3:TrackPointExtension>
            <ns3:hr>108</ns3:hr>
            <ns3:cad>0</ns3:cad>
          </ns3:TrackPointExtension>
        </extensions>
      </trkpt>
      <trkpt lat="45.34600705839693546295166015625" lon="-71.01158198900520801544189453125">
        <ele>934.79998779296875</ele>
        <time>2026-08-21T19:49:37.000Z</time>
        <extensions>
          <ns3:TrackPointExtension>
            <ns3:hr>107</ns3:hr>
            <ns3:cad>0</ns3:cad>
          </ns3:TrackPointExtension>
        </extensions>
      </trkpt>
      <trkpt lat="45.3460001014173030853271484375" lon="-71.0115881077945232391357421875">
        <ele>934.4000244140625</ele>
        <time>2026-08-21T19:49:38.000Z</time>
        <extensions>
          <ns3:TrackPointExtension>
            <ns3:hr>107</ns3:hr>
            <ns3:cad>0</ns3:cad>
          </ns3:TrackPointExtension>
        </extensions>
      </trkpt>
      <trkpt lat="45.34599146805703639984130859375" lon="-71.0115971602499485015869140625">
        <ele>934.20001220703125</ele>
        <time>2026-08-21T19:49:39.000Z</time>
        <extensions>
          <ns3:TrackPointExtension>
            <ns3:hr>108</ns3:hr>
            <ns3:cad>78</ns3:cad>
          </ns3:TrackPointExtension>
        </extensions>
      </trkpt>
      <trkpt lat="45.345981158316135406494140625" lon="-71.0116038657724857330322265625">
        <ele>933.79998779296875</ele>
        <time>2026-08-21T19:49:40.000Z</time>
        <extensions>
          <ns3:TrackPointExtension>
            <ns3:hr>109</ns3:hr>
            <ns3:cad>78</ns3:cad>
          </ns3:TrackPointExtension>
        </extensions>
      </trkpt>
      <trkpt lat="45.34597017802298069000244140625" lon="-71.011608056724071502685546875">
        <ele>933.4000244140625</ele>
        <time>2026-08-21T19:49:41.000Z</time>
        <extensions>
          <ns3:TrackPointExtension>
            <ns3:hr>111</ns3:hr>
            <ns3:cad>78</ns3:cad>
          </ns3:TrackPointExtension>
        </extensions>
      </trkpt>
      <trkpt lat="45.34596003592014312744140625" lon="-71.01161065511405467987060546875">
        <ele>932.79998779296875</ele>
        <time>2026-08-21T19:49:42.000Z</time>
        <extensions>
          <ns3:TrackPointExtension>
            <ns3:hr>111</ns3:hr>
            <ns3:cad>0</ns3:cad>
          </ns3:TrackPointExtension>
        </extensions>
      </trkpt>
      <trkpt lat="45.34594570286571979522705078125" lon="-71.01161216385662555694580078125">
        <ele>932.4000244140625</ele>
        <time>2026-08-21T19:49:43.000Z</time>
        <extensions>
          <ns3:TrackPointExtension>
            <ns3:hr>111</ns3:hr>
            <ns3:cad>0</ns3:cad>
          </ns3:TrackPointExtension>
        </extensions>
      </trkpt>
      <trkpt lat="45.34593882970511913299560546875" lon="-71.01161551661789417266845703125">
        <ele>931.79998779296875</ele>
        <time>2026-08-21T19:49:44.000Z</time>
        <extensions>
          <ns3:TrackPointExtension>
            <ns3:hr>111</ns3:hr>
            <ns3:cad>0</ns3:cad>
          </ns3:TrackPointExtension>
        </extensions>
      </trkpt>
      <trkpt lat="45.3459266759455204010009765625" lon="-71.01162490434944629669189453125">
        <ele>931.4000244140625</ele>
        <time>2026-08-21T19:49:45.000Z</time>
        <extensions>
          <ns3:TrackPointExtension>
            <ns3:hr>112</ns3:hr>
            <ns3:cad>0</ns3:cad>
          </ns3:TrackPointExtension>
        </extensions>
      </trkpt>
      <trkpt lat="45.3459169529378414154052734375" lon="-71.01162993349134922027587890625">
        <ele>931.20001220703125</ele>
        <time>2026-08-21T19:49:46.000Z</time>
        <extensions>
          <ns3:TrackPointExtension>
            <ns3:hr>111</ns3:hr>
            <ns3:cad>0</ns3:cad>
          </ns3:TrackPointExtension>
        </extensions>
      </trkpt>
      <trkpt lat="45.34590329043567180633544921875" lon="-71.01163546554744243621826171875">
        <ele>930.79998779296875</ele>
        <time>2026-08-21T19:49:47.000Z</time>
        <extensions>
          <ns3:TrackPointExtension>
            <ns3:hr>111</ns3:hr>
            <ns3:cad>0</ns3:cad>
          </ns3:TrackPointExtension>
        </extensions>
      </trkpt>
      <trkpt lat="45.3458918072283267974853515625" lon="-71.01163730956614017486572265625">
        <ele>930.4000244140625</ele>
        <time>2026-08-21T19:49:48.000Z</time>
        <extensions>
          <ns3:TrackPointExtension>
            <ns3:hr>111</ns3:hr>
            <ns3:cad>0</ns3:cad>
          </ns3:TrackPointExtension>
        </extensions>
      </trkpt>
      <trkpt lat="45.3458802402019500732421875" lon="-71.01163764484226703643798828125">
        <ele>930</ele>
        <time>2026-08-21T19:49:49.000Z</time>
        <extensions>
          <ns3:TrackPointExtension>
            <ns3:hr>111</ns3:hr>
            <ns3:cad>0</ns3:cad>
          </ns3:TrackPointExtension>
        </extensions>
      </trkpt>
      <trkpt lat="45.34587143920361995697021484375" lon="-71.0116394050419330596923828125">
        <ele>929.79998779296875</ele>
        <time>2026-08-21T19:49:50.000Z</time>
        <extensions>
          <ns3:TrackPointExtension>
            <ns3:hr>111</ns3:hr>
            <ns3:cad>0</ns3:cad>
          </ns3:TrackPointExtension>
        </extensions>
      </trkpt>
      <trkpt lat="45.3458629734814167022705078125" lon="-71.01164384745061397552490234375">
        <ele>929.4000244140625</ele>
        <time>2026-08-21T19:49:51.000Z</time>
        <extensions>
          <ns3:TrackPointExtension>
            <ns3:hr>111</ns3:hr>
            <ns3:cad>0</ns3:cad>
          </ns3:TrackPointExtension>
        </extensions>
      </trkpt>
      <trkpt lat="45.345852077007293701171875" lon="-71.0116518102586269378662109375">
        <ele>929</ele>
        <time>2026-08-21T19:49:52.000Z</time>
        <extensions>
          <ns3:TrackPointExtension>
            <ns3:hr>112</ns3:hr>
            <ns3:cad>0</ns3:cad>
          </ns3:TrackPointExtension>
        </extensions>
      </trkpt>
      <trkpt lat="45.345833636820316314697265625" lon="-71.01165466010570526123046875">
        <ele>928.4000244140625</ele>
        <time>2026-08-21T19:49:53.000Z</time>
        <extensions>
          <ns3:TrackPointExtension>
            <ns3:hr>112</ns3:hr>
            <ns3:cad>0</ns3:cad>
          </ns3:TrackPointExtension>
        </extensions>
      </trkpt>
      <trkpt lat="45.345818214118480682373046875" lon="-71.0116625390946865081787109375">
        <ele>928</ele>
        <time>2026-08-21T19:49:54.000Z</time>
        <extensions>
          <ns3:TrackPointExtension>
            <ns3:hr>111</ns3:hr>
            <ns3:cad>0</ns3:cad>
          </ns3:TrackPointExtension>
        </extensions>
      </trkpt>
      <trkpt lat="45.3458069823682308197021484375" lon="-71.01166681386530399322509765625">
        <ele>927.5999755859375</ele>
        <time>2026-08-21T19:49:55.000Z</time>
        <extensions>
          <ns3:TrackPointExtension>
            <ns3:hr>110</ns3:hr>
            <ns3:cad>0</ns3:cad>
          </ns3:TrackPointExtension>
        </extensions>
      </trkpt>
      <trkpt lat="45.3457942418754100799560546875" lon="-71.0116729326546192169189453125">
        <ele>927.20001220703125</ele>
        <time>2026-08-21T19:49:56.000Z</time>
        <extensions>
          <ns3:TrackPointExtension>
            <ns3:hr>110</ns3:hr>
            <ns3:cad>0</ns3:cad>
          </ns3:TrackPointExtension>
        </extensions>
      </trkpt>
      <trkpt lat="45.3457851894199848175048828125" lon="-71.01167477667331695556640625">
        <ele>926.79998779296875</ele>
        <time>2026-08-21T19:49:57.000Z</time>
        <extensions>
          <ns3:TrackPointExtension>
            <ns3:hr>108</ns3:hr>
            <ns3:cad>0</ns3:cad>
          </ns3:TrackPointExtension>
        </extensions>
      </trkpt>
      <trkpt lat="45.34577135927975177764892578125" lon="-71.01168039254844188690185546875">
        <ele>926.4000244140625</ele>
        <time>2026-08-21T19:49:58.000Z</time>
        <extensions>
          <ns3:TrackPointExtension>
            <ns3:hr>107</ns3:hr>
            <ns3:cad>0</ns3:cad>
          </ns3:TrackPointExtension>
        </extensions>
      </trkpt>
      <trkpt lat="45.34575493074953556060791015625" lon="-71.0116860084235668182373046875">
        <ele>926</ele>
        <time>2026-08-21T19:49:59.000Z</time>
        <extensions>
          <ns3:TrackPointExtension>
            <ns3:hr>106</ns3:hr>
            <ns3:cad>0</ns3:cad>
          </ns3:TrackPointExtension>
        </extensions>
      </trkpt>
      <trkpt lat="45.34574235789477825164794921875" lon="-71.01169221103191375732421875">
        <ele>925.79998779296875</ele>
        <time>2026-08-21T19:50:00.000Z</time>
        <extensions>
          <ns3:TrackPointExtension>
            <ns3:hr>105</ns3:hr>
            <ns3:cad>0</ns3:cad>
          </ns3:TrackPointExtension>
        </extensions>
      </trkpt>
      <trkpt lat="45.34573732875287532806396484375" lon="-71.01169799454510211944580078125">
        <ele>925.4000244140625</ele>
        <time>2026-08-21T19:50:01.000Z</time>
        <extensions>
          <ns3:TrackPointExtension>
            <ns3:hr>104</ns3:hr>
            <ns3:cad>0</ns3:cad>
          </ns3:TrackPointExtension>
        </extensions>
      </trkpt>
      <trkpt lat="45.3457245044410228729248046875" lon="-71.01170293986797332763671875">
        <ele>925</ele>
        <time>2026-08-21T19:50:02.000Z</time>
        <extensions>
          <ns3:TrackPointExtension>
            <ns3:hr>104</ns3:hr>
            <ns3:cad>0</ns3:cad>
          </ns3:TrackPointExtension>
        </extensions>
      </trkpt>
      <trkpt lat="45.34571335650980472564697265625" lon="-71.01170788519084453582763671875">
        <ele>924.5999755859375</ele>
        <time>2026-08-21T19:50:03.000Z</time>
        <extensions>
          <ns3:TrackPointExtension>
            <ns3:hr>104</ns3:hr>
            <ns3:cad>0</ns3:cad>
          </ns3:TrackPointExtension>
        </extensions>
      </trkpt>
      <trkpt lat="45.3457006998360157012939453125" lon="-71.01171190850436687469482421875">
        <ele>924.20001220703125</ele>
        <time>2026-08-21T19:50:04.000Z</time>
        <extensions>
          <ns3:TrackPointExtension>
            <ns3:hr>104</ns3:hr>
            <ns3:cad>0</ns3:cad>
          </ns3:TrackPointExtension>
        </extensions>
      </trkpt>
      <trkpt lat="45.3456906415522098541259765625" lon="-71.0117151774466037750244140625">
        <ele>924</ele>
        <time>2026-08-21T19:50:05.000Z</time>
        <extensions>
          <ns3:TrackPointExtension>
            <ns3:hr>105</ns3:hr>
            <ns3:cad>0</ns3:cad>
          </ns3:TrackPointExtension>
        </extensions>
      </trkpt>
      <trkpt lat="45.34568100236356258392333984375" lon="-71.01172062568366527557373046875">
        <ele>923.5999755859375</ele>
        <time>2026-08-21T19:50:06.000Z</time>
        <extensions>
          <ns3:TrackPointExtension>
            <ns3:hr>107</ns3:hr>
            <ns3:cad>0</ns3:cad>
          </ns3:TrackPointExtension>
        </extensions>
      </trkpt>
      <trkpt lat="45.34566842950880527496337890625" lon="-71.01173219271004199981689453125">
        <ele>923.4000244140625</ele>
        <time>2026-08-21T19:50:07.000Z</time>
        <extensions>
          <ns3:TrackPointExtension>
            <ns3:hr>111</ns3:hr>
            <ns3:cad>0</ns3:cad>
          </ns3:TrackPointExtension>
        </extensions>
      </trkpt>
      <trkpt lat="45.34565837122499942779541015625" lon="-71.0117346234619617462158203125">
        <ele>922.79998779296875</ele>
        <time>2026-08-21T19:50:08.000Z</time>
        <extensions>
          <ns3:TrackPointExtension>
            <ns3:hr>112</ns3:hr>
            <ns3:cad>42</ns3:cad>
          </ns3:TrackPointExtension>
        </extensions>
      </trkpt>
      <trkpt lat="45.34564848057925701141357421875" lon="-71.01173856295645236968994140625">
        <ele>922.5999755859375</ele>
        <time>2026-08-21T19:50:09.000Z</time>
        <extensions>
          <ns3:TrackPointExtension>
            <ns3:hr>113</ns3:hr>
            <ns3:cad>42</ns3:cad>
          </ns3:TrackPointExtension>
        </extensions>
      </trkpt>
      <trkpt lat="45.34563842229545116424560546875" lon="-71.0117503814399242401123046875">
        <ele>922.20001220703125</ele>
        <time>2026-08-21T19:50:10.000Z</time>
        <extensions>
          <ns3:TrackPointExtension>
            <ns3:hr>113</ns3:hr>
            <ns3:cad>42</ns3:cad>
          </ns3:TrackPointExtension>
        </extensions>
      </trkpt>
      <trkpt lat="45.345627106726169586181640625" lon="-71.0117621161043643951416015625">
        <ele>921.79998779296875</ele>
        <time>2026-08-21T19:50:11.000Z</time>
        <extensions>
          <ns3:TrackPointExtension>
            <ns3:hr>113</ns3:hr>
            <ns3:cad>42</ns3:cad>
          </ns3:TrackPointExtension>
        </extensions>
      </trkpt>
      <trkpt lat="45.34561897628009319305419921875" lon="-71.01177393458783626556396484375">
        <ele>921.4000244140625</ele>
        <time>2026-08-21T19:50:12.000Z</time>
        <extensions>
          <ns3:TrackPointExtension>
            <ns3:hr>113</ns3:hr>
            <ns3:cad>42</ns3:cad>
          </ns3:TrackPointExtension>
        </extensions>
      </trkpt>
      <trkpt lat="45.34560925327241420745849609375" lon="-71.01178566925227642059326171875">
        <ele>921</ele>
        <time>2026-08-21T19:50:13.000Z</time>
        <extensions>
          <ns3:TrackPointExtension>
            <ns3:hr>113</ns3:hr>
            <ns3:cad>0</ns3:cad>
          </ns3:TrackPointExtension>
        </extensions>
      </trkpt>
      <trkpt lat="45.34559936262667179107666015625" lon="-71.0117956437170505523681640625">
        <ele>920.5999755859375</ele>
        <time>2026-08-21T19:50:14.000Z</time>
        <extensions>
          <ns3:TrackPointExtension>
            <ns3:hr>113</ns3:hr>
            <ns3:cad>0</ns3:cad>
          </ns3:TrackPointExtension>
        </extensions>
      </trkpt>
      <trkpt lat="45.34558796323835849761962890625" lon="-71.0118016786873340606689453125">
        <ele>920.20001220703125</ele>
        <time>2026-08-21T19:50:15.000Z</time>
        <extensions>
          <ns3:TrackPointExtension>
            <ns3:hr>113</ns3:hr>
            <ns3:cad>0</ns3:cad>
          </ns3:TrackPointExtension>
        </extensions>
      </trkpt>
      <trkpt lat="45.34558025188744068145751953125" lon="-71.011809222400188446044921875">
        <ele>919.79998779296875</ele>
        <time>2026-08-21T19:50:16.000Z</time>
        <extensions>
          <ns3:TrackPointExtension>
            <ns3:hr>112</ns3:hr>
            <ns3:cad>0</ns3:cad>
          </ns3:TrackPointExtension>
        </extensions>
      </trkpt>
      <trkpt lat="45.3455749712884426116943359375" lon="-71.01181064732372760772705078125">
        <ele>919.4000244140625</ele>
        <time>2026-08-21T19:50:17.000Z</time>
        <extensions>
          <ns3:TrackPointExtension>
            <ns3:hr>112</ns3:hr>
            <ns3:cad>0</ns3:cad>
          </ns3:TrackPointExtension>
        </extensions>
      </trkpt>
      <trkpt lat="45.34557136707007884979248046875" lon="-71.0118160955607891082763671875">
        <ele>919.20001220703125</ele>
        <time>2026-08-21T19:50:18.000Z</time>
        <extensions>
          <ns3:TrackPointExtension>
            <ns3:hr>111</ns3:hr>
            <ns3:cad>0</ns3:cad>
          </ns3:TrackPointExtension>
        </extensions>
      </trkpt>
      <trkpt lat="45.34556047059595584869384765625" lon="-71.01181785576045513153076171875">
        <ele>919</ele>
        <time>2026-08-21T19:50:19.000Z</time>
        <extensions>
          <ns3:TrackPointExtension>
            <ns3:hr>111</ns3:hr>
            <ns3:cad>0</ns3:cad>
          </ns3:TrackPointExtension>
        </extensions>
      </trkpt>
      <trkpt lat="45.34556013531982898712158203125" lon="-71.01181886158883571624755859375">
        <ele>918.79998779296875</ele>
        <time>2026-08-21T19:50:20.000Z</time>
        <extensions>
          <ns3:TrackPointExtension>
            <ns3:hr>110</ns3:hr>
            <ns3:cad>0</ns3:cad>
          </ns3:TrackPointExtension>
        </extensions>
      </trkpt>
      <trkpt lat="45.34555611200630664825439453125" lon="-71.0118162631988525390625">
        <ele>918.5999755859375</ele>
        <time>2026-08-21T19:50:21.000Z</time>
        <extensions>
          <ns3:TrackPointExtension>
            <ns3:hr>110</ns3:hr>
            <ns3:cad>0</ns3:cad>
          </ns3:TrackPointExtension>
        </extensions>
      </trkpt>
      <trkpt lat="45.345551334321498870849609375" lon="-71.01181559264659881591796875">
        <ele>918.4000244140625</ele>
        <time>2026-08-21T19:50:22.000Z</time>
        <extensions>
          <ns3:TrackPointExtension>
            <ns3:hr>109</ns3:hr>
            <ns3:cad>0</ns3:cad>
          </ns3:TrackPointExtension>
        </extensions>
      </trkpt>
      <trkpt lat="45.3455468080937862396240234375" lon="-71.0118171013891696929931640625">
        <ele>918.20001220703125</ele>
        <time>2026-08-21T19:50:23.000Z</time>
        <extensions>
          <ns3:TrackPointExtension>
            <ns3:hr>109</ns3:hr>
            <ns3:cad>0</ns3:cad>
          </ns3:TrackPointExtension>
        </extensions>
      </trkpt>
      <trkpt lat="45.345534570515155792236328125" lon="-71.011815927922725677490234375">
        <ele>918</ele>
        <time>2026-08-21T19:50:24.000Z</time>
        <extensions>
          <ns3:TrackPointExtension>
            <ns3:hr>109</ns3:hr>
            <ns3:cad>0</ns3:cad>
          </ns3:TrackPointExtension>
        </extensions>
      </trkpt>
      <trkpt lat="45.3455233387649059295654296875" lon="-71.0118157602846622467041015625">
        <ele>917.79998779296875</ele>
        <time>2026-08-21T19:50:25.000Z</time>
        <extensions>
          <ns3:TrackPointExtension>
            <ns3:hr>108</ns3:hr>
            <ns3:cad>0</ns3:cad>
          </ns3:TrackPointExtension>
        </extensions>
      </trkpt>
      <trkpt lat="45.34551076591014862060546875" lon="-71.0118150897324085235595703125">
        <ele>917.4000244140625</ele>
        <time>2026-08-21T19:50:26.000Z</time>
        <extensions>
          <ns3:TrackPointExtension>
            <ns3:hr>108</ns3:hr>
            <ns3:cad>0</ns3:cad>
          </ns3:TrackPointExtension>
        </extensions>
      </trkpt>
      <trkpt lat="45.34550179727375507354736328125" lon="-71.01181852631270885467529296875">
        <ele>916.79998779296875</ele>
        <time>2026-08-21T19:50:27.000Z</time>
        <extensions>
          <ns3:TrackPointExtension>
            <ns3:hr>108</ns3:hr>
            <ns3:cad>67</ns3:cad>
          </ns3:TrackPointExtension>
        </extensions>
      </trkpt>
      <trkpt lat="45.34549324773252010345458984375" lon="-71.0118204541504383087158203125">
        <ele>916.4000244140625</ele>
        <time>2026-08-21T19:50:28.000Z</time>
        <extensions>
          <ns3:TrackPointExtension>
            <ns3:hr>107</ns3:hr>
            <ns3:cad>67</ns3:cad>
          </ns3:TrackPointExtension>
        </extensions>
      </trkpt>
      <trkpt lat="45.3454861231148242950439453125" lon="-71.0118268243968486785888671875">
        <ele>916</ele>
        <time>2026-08-21T19:50:29.000Z</time>
        <extensions>
          <ns3:TrackPointExtension>
            <ns3:hr>107</ns3:hr>
            <ns3:cad>67</ns3:cad>
          </ns3:TrackPointExtension>
        </extensions>
      </trkpt>
      <trkpt lat="45.34546575509011745452880859375" lon="-71.011829338967800140380859375">
        <ele>915.5999755859375</ele>
        <time>2026-08-21T19:50:30.000Z</time>
        <extensions>
          <ns3:TrackPointExtension>
            <ns3:hr>106</ns3:hr>
            <ns3:cad>67</ns3:cad>
          </ns3:TrackPointExtension>
        </extensions>
      </trkpt>
      <trkpt lat="45.34545284695923328399658203125" lon="-71.0118338651955127716064453125">
        <ele>915.20001220703125</ele>
        <time>2026-08-21T19:50:31.000Z</time>
        <extensions>
          <ns3:TrackPointExtension>
            <ns3:hr>106</ns3:hr>
            <ns3:cad>67</ns3:cad>
          </ns3:TrackPointExtension>
        </extensions>
      </trkpt>
      <trkpt lat="45.34543893299996852874755859375" lon="-71.01183512248098850250244140625">
        <ele>914.79998779296875</ele>
        <time>2026-08-21T19:50:32.000Z</time>
        <extensions>
          <ns3:TrackPointExtension>
            <ns3:hr>106</ns3:hr>
            <ns3:cad>73</ns3:cad>
          </ns3:TrackPointExtension>
        </extensions>
      </trkpt>
      <trkpt lat="45.3454277850687503814697265625" lon="-71.01185448467731475830078125">
        <ele>914.4000244140625</ele>
        <time>2026-08-21T19:50:33.000Z</time>
        <extensions>
          <ns3:TrackPointExtension>
            <ns3:hr>106</ns3:hr>
            <ns3:cad>73</ns3:cad>
          </ns3:TrackPointExtension>
        </extensions>
      </trkpt>
      <trkpt lat="45.34541688859462738037109375" lon="-71.01186655461788177490234375">
        <ele>914</ele>
        <time>2026-08-21T19:50:34.000Z</time>
        <extensions>
          <ns3:TrackPointExtension>
            <ns3:hr>106</ns3:hr>
            <ns3:cad>73</ns3:cad>
          </ns3:TrackPointExtension>
        </extensions>
      </trkpt>
      <trkpt lat="45.345412530004978179931640625" lon="-71.0118764452636241912841796875">
        <ele>913.5999755859375</ele>
        <time>2026-08-21T19:50:35.000Z</time>
        <extensions>
          <ns3:TrackPointExtension>
            <ns3:hr>106</ns3:hr>
            <ns3:cad>73</ns3:cad>
          </ns3:TrackPointExtension>
        </extensions>
      </trkpt>
      <trkpt lat="45.34541076980531215667724609375" lon="-71.01188139058649539947509765625">
        <ele>913.20001220703125</ele>
        <time>2026-08-21T19:50:36.000Z</time>
        <extensions>
          <ns3:TrackPointExtension>
            <ns3:hr>106</ns3:hr>
            <ns3:cad>73</ns3:cad>
          </ns3:TrackPointExtension>
        </extensions>
      </trkpt>
      <trkpt lat="45.34540523774921894073486328125" lon="-71.011883653700351715087890625">
        <ele>912.79998779296875</ele>
        <time>2026-08-21T19:50:37.000Z</time>
        <extensions>
          <ns3:TrackPointExtension>
            <ns3:hr>106</ns3:hr>
            <ns3:cad>73</ns3:cad>
          </ns3:TrackPointExtension>
        </extensions>
      </trkpt>
      <trkpt lat="45.345404148101806640625" lon="-71.01188206113874912261962890625">
        <ele>912.5999755859375</ele>
        <time>2026-08-21T19:50:38.000Z</time>
        <extensions>
          <ns3:TrackPointExtension>
            <ns3:hr>106</ns3:hr>
            <ns3:cad>73</ns3:cad>
          </ns3:TrackPointExtension>
        </extensions>
      </trkpt>
      <trkpt lat="45.34540615975856781005859375" lon="-71.011882983148097991943359375">
        <ele>912.4000244140625</ele>
        <time>2026-08-21T19:50:39.000Z</time>
        <extensions>
          <ns3:TrackPointExtension>
            <ns3:hr>106</ns3:hr>
            <ns3:cad>73</ns3:cad>
          </ns3:TrackPointExtension>
        </extensions>
      </trkpt>
      <trkpt lat="45.34540641121566295623779296875" lon="-71.011882983148097991943359375">
        <ele>912.4000244140625</ele>
        <time>2026-08-21T19:50:40.000Z</time>
        <extensions>
          <ns3:TrackPointExtension>
            <ns3:hr>105</ns3:hr>
            <ns3:cad>0</ns3:cad>
          </ns3:TrackPointExtension>
        </extensions>
      </trkpt>
      <trkpt lat="45.34540523774921894073486328125" lon="-71.01188675500452518463134765625">
        <ele>912.20001220703125</ele>
        <time>2026-08-21T19:50:41.000Z</time>
        <extensions>
          <ns3:TrackPointExtension>
            <ns3:hr>105</ns3:hr>
            <ns3:cad>0</ns3:cad>
          </ns3:TrackPointExtension>
        </extensions>
      </trkpt>
      <trkpt lat="45.34540154971182346343994140625" lon="-71.01189681328833103179931640625">
        <ele>912.20001220703125</ele>
        <time>2026-08-21T19:50:42.000Z</time>
        <extensions>
          <ns3:TrackPointExtension>
            <ns3:hr>105</ns3:hr>
            <ns3:cad>0</ns3:cad>
          </ns3:TrackPointExtension>
        </extensions>
      </trkpt>
      <trkpt lat="45.3453974425792694091796875" lon="-71.011906452476978302001953125">
        <ele>912</ele>
        <time>2026-08-21T19:50:43.000Z</time>
        <extensions>
          <ns3:TrackPointExtension>
            <ns3:hr>105</ns3:hr>
            <ns3:cad>0</ns3:cad>
          </ns3:TrackPointExtension>
        </extensions>
      </trkpt>
      <trkpt lat="45.34539165906608104705810546875" lon="-71.011909805238246917724609375">
        <ele>911.79998779296875</ele>
        <time>2026-08-21T19:50:44.000Z</time>
        <extensions>
          <ns3:TrackPointExtension>
            <ns3:hr>104</ns3:hr>
            <ns3:cad>0</ns3:cad>
          </ns3:TrackPointExtension>
        </extensions>
      </trkpt>
      <trkpt lat="45.34538662992417812347412109375" lon="-71.01191156543791294097900390625">
        <ele>911.4000244140625</ele>
        <time>2026-08-21T19:50:45.000Z</time>
        <extensions>
          <ns3:TrackPointExtension>
            <ns3:hr>102</ns3:hr>
            <ns3:cad>53</ns3:cad>
          </ns3:TrackPointExtension>
        </extensions>
      </trkpt>
      <trkpt lat="45.3453835286200046539306640625" lon="-71.0119200311601161956787109375">
        <ele>911</ele>
        <time>2026-08-21T19:50:46.000Z</time>
        <extensions>
          <ns3:TrackPointExtension>
            <ns3:hr>100</ns3:hr>
            <ns3:cad>53</ns3:cad>
          </ns3:TrackPointExtension>
        </extensions>
      </trkpt>
      <trkpt lat="45.345374308526515960693359375" lon="-71.01192246191203594207763671875">
        <ele>910.79998779296875</ele>
        <time>2026-08-21T19:50:47.000Z</time>
        <extensions>
          <ns3:TrackPointExtension>
            <ns3:hr>100</ns3:hr>
            <ns3:cad>53</ns3:cad>
          </ns3:TrackPointExtension>
        </extensions>
      </trkpt>
      <trkpt lat="45.34537455998361110687255859375" lon="-71.0119351185858249664306640625">
        <ele>910.4000244140625</ele>
        <time>2026-08-21T19:50:48.000Z</time>
        <extensions>
          <ns3:TrackPointExtension>
            <ns3:hr>100</ns3:hr>
            <ns3:cad>53</ns3:cad>
          </ns3:TrackPointExtension>
        </extensions>
      </trkpt>
      <trkpt lat="45.34536349587142467498779296875" lon="-71.0119404830038547515869140625">
        <ele>910.20001220703125</ele>
        <time>2026-08-21T19:50:49.000Z</time>
        <extensions>
          <ns3:TrackPointExtension>
            <ns3:hr>99</ns3:hr>
            <ns3:cad>0</ns3:cad>
          </ns3:TrackPointExtension>
        </extensions>
      </trkpt>
      <trkpt lat="45.345356874167919158935546875" lon="-71.01194031536579132080078125">
        <ele>910</ele>
        <time>2026-08-21T19:50:50.000Z</time>
        <extensions>
          <ns3:TrackPointExtension>
            <ns3:hr>100</ns3:hr>
            <ns3:cad>0</ns3:cad>
          </ns3:TrackPointExtension>
        </extensions>
      </trkpt>
      <trkpt lat="45.34534488804638385772705078125" lon="-71.01194165647029876708984375">
        <ele>909.5999755859375</ele>
        <time>2026-08-21T19:50:51.000Z</time>
        <extensions>
          <ns3:TrackPointExtension>
            <ns3:hr>103</ns3:hr>
            <ns3:cad>0</ns3:cad>
          </ns3:TrackPointExtension>
        </extensions>
      </trkpt>
      <trkpt lat="45.3453342430293560028076171875" lon="-71.01194660179316997528076171875">
        <ele>909.20001220703125</ele>
        <time>2026-08-21T19:50:52.000Z</time>
        <extensions>
          <ns3:TrackPointExtension>
            <ns3:hr>109</ns3:hr>
            <ns3:cad>0</ns3:cad>
          </ns3:TrackPointExtension>
        </extensions>
      </trkpt>
      <trkpt lat="45.34532913006842136383056640625" lon="-71.011958420276641845703125">
        <ele>908.79998779296875</ele>
        <time>2026-08-21T19:50:53.000Z</time>
        <extensions>
          <ns3:TrackPointExtension>
            <ns3:hr>113</ns3:hr>
            <ns3:cad>0</ns3:cad>
          </ns3:TrackPointExtension>
        </extensions>
      </trkpt>
      <trkpt lat="45.3453238494694232940673828125" lon="-71.0119619406759738922119140625">
        <ele>908.5999755859375</ele>
        <time>2026-08-21T19:50:54.000Z</time>
        <extensions>
          <ns3:TrackPointExtension>
            <ns3:hr>115</ns3:hr>
            <ns3:cad>0</ns3:cad>
          </ns3:TrackPointExtension>
        </extensions>
      </trkpt>
      <trkpt lat="45.34531437791883945465087890625" lon="-71.01197023876011371612548828125">
        <ele>908.20001220703125</ele>
        <time>2026-08-21T19:50:55.000Z</time>
        <extensions>
          <ns3:TrackPointExtension>
            <ns3:hr>116</ns3:hr>
            <ns3:cad>57</ns3:cad>
          </ns3:TrackPointExtension>
        </extensions>
      </trkpt>
      <trkpt lat="45.3453050740063190460205078125" lon="-71.011972837150096893310546875">
        <ele>907.79998779296875</ele>
        <time>2026-08-21T19:50:56.000Z</time>
        <extensions>
          <ns3:TrackPointExtension>
            <ns3:hr>116</ns3:hr>
            <ns3:cad>57</ns3:cad>
          </ns3:TrackPointExtension>
        </extensions>
      </trkpt>
      <trkpt lat="45.34529392607510089874267578125" lon="-71.0119746811687946319580078125">
        <ele>907.5999755859375</ele>
        <time>2026-08-21T19:50:57.000Z</time>
        <extensions>
          <ns3:TrackPointExtension>
            <ns3:hr>117</ns3:hr>
            <ns3:cad>57</ns3:cad>
          </ns3:TrackPointExtension>
        </extensions>
      </trkpt>
      <trkpt lat="45.345282442867755889892578125" lon="-71.01198591291904449462890625">
        <ele>907.20001220703125</ele>
        <time>2026-08-21T19:50:58.000Z</time>
        <extensions>
          <ns3:TrackPointExtension>
            <ns3:hr>117</ns3:hr>
            <ns3:cad>57</ns3:cad>
          </ns3:TrackPointExtension>
        </extensions>
      </trkpt>
      <trkpt lat="45.34527598880231380462646484375" lon="-71.0119988210499286651611328125">
        <ele>906.79998779296875</ele>
        <time>2026-08-21T19:50:59.000Z</time>
        <extensions>
          <ns3:TrackPointExtension>
            <ns3:hr>117</ns3:hr>
            <ns3:cad>0</ns3:cad>
          </ns3:TrackPointExtension>
        </extensions>
      </trkpt>
      <trkpt lat="45.345270372927188873291015625" lon="-71.01200913079082965850830078125">
        <ele>906.4000244140625</ele>
        <time>2026-08-21T19:51:00.000Z</time>
        <extensions>
          <ns3:TrackPointExtension>
            <ns3:hr>118</ns3:hr>
            <ns3:cad>0</ns3:cad>
          </ns3:TrackPointExtension>
        </extensions>
      </trkpt>
      <trkpt lat="45.345266349613666534423828125" lon="-71.012015081942081451416015625">
        <ele>906</ele>
        <time>2026-08-21T19:51:01.000Z</time>
        <extensions>
          <ns3:TrackPointExtension>
            <ns3:hr>118</ns3:hr>
            <ns3:cad>0</ns3:cad>
          </ns3:TrackPointExtension>
        </extensions>
      </trkpt>
      <trkpt lat="45.345258973538875579833984375" lon="-71.01202270947396755218505859375">
        <ele>905.79998779296875</ele>
        <time>2026-08-21T19:51:02.000Z</time>
        <extensions>
          <ns3:TrackPointExtension>
            <ns3:hr>120</ns3:hr>
            <ns3:cad>0</ns3:cad>
          </ns3:TrackPointExtension>
        </extensions>
      </trkpt>
      <trkpt lat="45.3452517651021480560302734375" lon="-71.01202757097780704498291015625">
        <ele>905.4000244140625</ele>
        <time>2026-08-21T19:51:03.000Z</time>
        <extensions>
          <ns3:TrackPointExtension>
            <ns3:hr>121</ns3:hr>
            <ns3:cad>0</ns3:cad>
          </ns3:TrackPointExtension>
        </extensions>
      </trkpt>
      <trkpt lat="45.345243550837039947509765625" lon="-71.01203226484358310699462890625">
        <ele>905.20001220703125</ele>
        <time>2026-08-21T19:51:04.000Z</time>
        <extensions>
          <ns3:TrackPointExtension>
            <ns3:hr>122</ns3:hr>
            <ns3:cad>0</ns3:cad>
          </ns3:TrackPointExtension>
        </extensions>
      </trkpt>
      <trkpt lat="45.34523977898061275482177734375" lon="-71.0120308399200439453125">
        <ele>904.79998779296875</ele>
        <time>2026-08-21T19:51:05.000Z</time>
        <extensions>
          <ns3:TrackPointExtension>
            <ns3:hr>123</ns3:hr>
            <ns3:cad>0</ns3:cad>
          </ns3:TrackPointExtension>
        </extensions>
      </trkpt>
      <trkpt lat="45.34523977898061275482177734375" lon="-71.0120246373116970062255859375">
        <ele>904.5999755859375</ele>
        <time>2026-08-21T19:51:06.000Z</time>
        <extensions>
          <ns3:TrackPointExtension>
            <ns3:hr>123</ns3:hr>
            <ns3:cad>0</ns3:cad>
          </ns3:TrackPointExtension>
        </extensions>
      </trkpt>
      <trkpt lat="45.34522804431617259979248046875" lon="-71.01202153600752353668212890625">
        <ele>904.4000244140625</ele>
        <time>2026-08-21T19:51:07.000Z</time>
        <extensions>
          <ns3:TrackPointExtension>
            <ns3:hr>122</ns3:hr>
            <ns3:cad>0</ns3:cad>
          </ns3:TrackPointExtension>
        </extensions>
      </trkpt>
      <trkpt lat="45.345218740403652191162109375" lon="-71.01202203892171382904052734375">
        <ele>904</ele>
        <time>2026-08-21T19:51:08.000Z</time>
        <extensions>
          <ns3:TrackPointExtension>
            <ns3:hr>120</ns3:hr>
            <ns3:cad>0</ns3:cad>
          </ns3:TrackPointExtension>
        </extensions>
      </trkpt>
      <trkpt lat="45.34520457498729228973388671875" lon="-71.01202321238815784454345703125">
        <ele>903.79998779296875</ele>
        <time>2026-08-21T19:51:09.000Z</time>
        <extensions>
          <ns3:TrackPointExtension>
            <ns3:hr>120</ns3:hr>
            <ns3:cad>0</ns3:cad>
          </ns3:TrackPointExtension>
        </extensions>
      </trkpt>
      <trkpt lat="45.3451971150934696197509765625" lon="-71.0120289959013462066650390625">
        <ele>903.5999755859375</ele>
        <time>2026-08-21T19:51:10.000Z</time>
        <extensions>
          <ns3:TrackPointExtension>
            <ns3:hr>119</ns3:hr>
            <ns3:cad>0</ns3:cad>
          </ns3:TrackPointExtension>
        </extensions>
      </trkpt>
      <trkpt lat="45.345187894999980926513671875" lon="-71.01204148493707180023193359375">
        <ele>903.4000244140625</ele>
        <time>2026-08-21T19:51:11.000Z</time>
        <extensions>
          <ns3:TrackPointExtension>
            <ns3:hr>118</ns3:hr>
            <ns3:cad>0</ns3:cad>
          </ns3:TrackPointExtension>
        </extensions>
      </trkpt>
      <trkpt lat="45.3451756574213504791259765625" lon="-71.01204986684024333953857421875">
        <ele>903</ele>
        <time>2026-08-21T19:51:12.000Z</time>
        <extensions>
          <ns3:TrackPointExtension>
            <ns3:hr>118</ns3:hr>
            <ns3:cad>0</ns3:cad>
          </ns3:TrackPointExtension>
        </extensions>
      </trkpt>
      <trkpt lat="45.3451629169285297393798828125" lon="-71.012063361704349517822265625">
        <ele>902.79998779296875</ele>
        <time>2026-08-21T19:51:13.000Z</time>
        <extensions>
          <ns3:TrackPointExtension>
            <ns3:hr>117</ns3:hr>
            <ns3:cad>0</ns3:cad>
          </ns3:TrackPointExtension>
        </extensions>
      </trkpt>
      <trkpt lat="45.34515763632953166961669921875" lon="-71.01208255626261234283447265625">
        <ele>902.5999755859375</ele>
        <time>2026-08-21T19:51:14.000Z</time>
        <extensions>
          <ns3:TrackPointExtension>
            <ns3:hr>117</ns3:hr>
            <ns3:cad>0</ns3:cad>
          </ns3:TrackPointExtension>
        </extensions>
      </trkpt>
      <trkpt lat="45.345151014626026153564453125" lon="-71.01210418157279491424560546875">
        <ele>902.20001220703125</ele>
        <time>2026-08-21T19:51:15.000Z</time>
        <extensions>
          <ns3:TrackPointExtension>
            <ns3:hr>117</ns3:hr>
            <ns3:cad>0</ns3:cad>
          </ns3:TrackPointExtension>
        </extensions>
      </trkpt>
      <trkpt lat="45.34514556638896465301513671875" lon="-71.012120358645915985107421875">
        <ele>902</ele>
        <time>2026-08-21T19:51:16.000Z</time>
        <extensions>
          <ns3:TrackPointExtension>
            <ns3:hr>117</ns3:hr>
            <ns3:cad>0</ns3:cad>
          </ns3:TrackPointExtension>
        </extensions>
      </trkpt>
      <trkpt lat="45.3451401181519031524658203125" lon="-71.01213209331035614013671875">
        <ele>901.5999755859375</ele>
        <time>2026-08-21T19:51:17.000Z</time>
        <extensions>
          <ns3:TrackPointExtension>
            <ns3:hr>117</ns3:hr>
            <ns3:cad>0</ns3:cad>
          </ns3:TrackPointExtension>
        </extensions>
      </trkpt>
      <trkpt lat="45.3451307304203510284423828125" lon="-71.01214290596544742584228515625">
        <ele>901.4000244140625</ele>
        <time>2026-08-21T19:51:18.000Z</time>
        <extensions>
          <ns3:TrackPointExtension>
            <ns3:hr>118</ns3:hr>
            <ns3:cad>0</ns3:cad>
          </ns3:TrackPointExtension>
        </extensions>
      </trkpt>
      <trkpt lat="45.34511924721300601959228515625" lon="-71.0121460072696208953857421875">
        <ele>901.20001220703125</ele>
        <time>2026-08-21T19:51:19.000Z</time>
        <extensions>
          <ns3:TrackPointExtension>
            <ns3:hr>117</ns3:hr>
            <ns3:cad>75</ns3:cad>
          </ns3:TrackPointExtension>
        </extensions>
      </trkpt>
      <trkpt lat="45.3451096080243587493896484375" lon="-71.01215849630534648895263671875">
        <ele>900.79998779296875</ele>
        <time>2026-08-21T19:51:20.000Z</time>
        <extensions>
          <ns3:TrackPointExtension>
            <ns3:hr>116</ns3:hr>
            <ns3:cad>75</ns3:cad>
          </ns3:TrackPointExtension>
        </extensions>
      </trkpt>
      <trkpt lat="45.3450965322554111480712890625" lon="-71.01216855458915233612060546875">
        <ele>900.5999755859375</ele>
        <time>2026-08-21T19:51:21.000Z</time>
        <extensions>
          <ns3:TrackPointExtension>
            <ns3:hr>116</ns3:hr>
            <ns3:cad>75</ns3:cad>
          </ns3:TrackPointExtension>
        </extensions>
      </trkpt>
      <trkpt lat="45.3450894914567470550537109375" lon="-71.01218171417713165283203125">
        <ele>900.20001220703125</ele>
        <time>2026-08-21T19:51:22.000Z</time>
        <extensions>
          <ns3:TrackPointExtension>
            <ns3:hr>116</ns3:hr>
            <ns3:cad>75</ns3:cad>
          </ns3:TrackPointExtension>
        </extensions>
      </trkpt>
      <trkpt lat="45.34507893025875091552734375" lon="-71.01219772361218929290771484375">
        <ele>899.79998779296875</ele>
        <time>2026-08-21T19:51:23.000Z</time>
        <extensions>
          <ns3:TrackPointExtension>
            <ns3:hr>116</ns3:hr>
            <ns3:cad>75</ns3:cad>
          </ns3:TrackPointExtension>
        </extensions>
      </trkpt>
      <trkpt lat="45.34506711177527904510498046875" lon="-71.01221381686627864837646484375">
        <ele>899.4000244140625</ele>
        <time>2026-08-21T19:51:24.000Z</time>
        <extensions>
          <ns3:TrackPointExtension>
            <ns3:hr>116</ns3:hr>
            <ns3:cad>75</ns3:cad>
          </ns3:TrackPointExtension>
        </extensions>
      </trkpt>
      <trkpt lat="45.345057807862758636474609375" lon="-71.01222672499716281890869140625">
        <ele>899.20001220703125</ele>
        <time>2026-08-21T19:51:25.000Z</time>
        <extensions>
          <ns3:TrackPointExtension>
            <ns3:hr>117</ns3:hr>
            <ns3:cad>75</ns3:cad>
          </ns3:TrackPointExtension>
        </extensions>
      </trkpt>
      <trkpt lat="45.34504716284573078155517578125" lon="-71.01223980076611042022705078125">
        <ele>898.79998779296875</ele>
        <time>2026-08-21T19:51:26.000Z</time>
        <extensions>
          <ns3:TrackPointExtension>
            <ns3:hr>117</ns3:hr>
            <ns3:cad>75</ns3:cad>
          </ns3:TrackPointExtension>
        </extensions>
      </trkpt>
      <trkpt lat="45.34503869712352752685546875" lon="-71.01225438527762889862060546875">
        <ele>898.4000244140625</ele>
        <time>2026-08-21T19:51:27.000Z</time>
        <extensions>
          <ns3:TrackPointExtension>
            <ns3:hr>117</ns3:hr>
            <ns3:cad>75</ns3:cad>
          </ns3:TrackPointExtension>
        </extensions>
      </trkpt>
      <trkpt lat="45.34502972848713397979736328125" lon="-71.01226746104657649993896484375">
        <ele>898</ele>
        <time>2026-08-21T19:51:28.000Z</time>
        <extensions>
          <ns3:TrackPointExtension>
            <ns3:hr>116</ns3:hr>
            <ns3:cad>75</ns3:cad>
          </ns3:TrackPointExtension>
        </extensions>
      </trkpt>
      <trkpt lat="45.34501497633755207061767578125" lon="-71.01228372193872928619384765625">
        <ele>897.5999755859375</ele>
        <time>2026-08-21T19:51:29.000Z</time>
        <extensions>
          <ns3:TrackPointExtension>
            <ns3:hr>116</ns3:hr>
            <ns3:cad>75</ns3:cad>
          </ns3:TrackPointExtension>
        </extensions>
      </trkpt>
      <trkpt lat="45.34500458277761936187744140625" lon="-71.01229411549866199493408203125">
        <ele>897.20001220703125</ele>
        <time>2026-08-21T19:51:30.000Z</time>
        <extensions>
          <ns3:TrackPointExtension>
            <ns3:hr>117</ns3:hr>
            <ns3:cad>75</ns3:cad>
          </ns3:TrackPointExtension>
        </extensions>
      </trkpt>
      <trkpt lat="45.34498983062803745269775390625" lon="-71.0123032517731189727783203125">
        <ele>896.79998779296875</ele>
        <time>2026-08-21T19:51:31.000Z</time>
        <extensions>
          <ns3:TrackPointExtension>
            <ns3:hr>116</ns3:hr>
            <ns3:cad>0</ns3:cad>
          </ns3:TrackPointExtension>
        </extensions>
      </trkpt>
      <trkpt lat="45.344979353249073028564453125" lon="-71.01231322623789310455322265625">
        <ele>896.4000244140625</ele>
        <time>2026-08-21T19:51:32.000Z</time>
        <extensions>
          <ns3:TrackPointExtension>
            <ns3:hr>116</ns3:hr>
            <ns3:cad>0</ns3:cad>
          </ns3:TrackPointExtension>
        </extensions>
      </trkpt>
      <trkpt lat="45.3449671156704425811767578125" lon="-71.0123270563781261444091796875">
        <ele>896</ele>
        <time>2026-08-21T19:51:33.000Z</time>
        <extensions>
          <ns3:TrackPointExtension>
            <ns3:hr>116</ns3:hr>
            <ns3:cad>0</ns3:cad>
          </ns3:TrackPointExtension>
        </extensions>
      </trkpt>
      <trkpt lat="45.34495462663471698760986328125" lon="-71.01234507746994495391845703125">
        <ele>895.79998779296875</ele>
        <time>2026-08-21T19:51:34.000Z</time>
        <extensions>
          <ns3:TrackPointExtension>
            <ns3:hr>116</ns3:hr>
            <ns3:cad>0</ns3:cad>
          </ns3:TrackPointExtension>
        </extensions>
      </trkpt>
      <trkpt lat="45.34494884312152862548828125" lon="-71.01236276328563690185546875">
        <ele>895.4000244140625</ele>
        <time>2026-08-21T19:51:35.000Z</time>
        <extensions>
          <ns3:TrackPointExtension>
            <ns3:hr>116</ns3:hr>
            <ns3:cad>0</ns3:cad>
          </ns3:TrackPointExtension>
        </extensions>
      </trkpt>
      <trkpt lat="45.344944484531879425048828125" lon="-71.0123786889016628265380859375">
        <ele>895</ele>
        <time>2026-08-21T19:51:36.000Z</time>
        <extensions>
          <ns3:TrackPointExtension>
            <ns3:hr>116</ns3:hr>
            <ns3:cad>71</ns3:cad>
          </ns3:TrackPointExtension>
        </extensions>
      </trkpt>
      <trkpt lat="45.3449319116771221160888671875" lon="-71.01239302195608615875244140625">
        <ele>894.5999755859375</ele>
        <time>2026-08-21T19:51:37.000Z</time>
        <extensions>
          <ns3:TrackPointExtension>
            <ns3:hr>116</ns3:hr>
            <ns3:cad>71</ns3:cad>
          </ns3:TrackPointExtension>
        </extensions>
      </trkpt>
      <trkpt lat="45.3449225239455699920654296875" lon="-71.0124091990292072296142578125">
        <ele>894.4000244140625</ele>
        <time>2026-08-21T19:51:38.000Z</time>
        <extensions>
          <ns3:TrackPointExtension>
            <ns3:hr>115</ns3:hr>
            <ns3:cad>71</ns3:cad>
          </ns3:TrackPointExtension>
        </extensions>
      </trkpt>
      <trkpt lat="45.3449114598333835601806640625" lon="-71.01241908967494964599609375">
        <ele>894</ele>
        <time>2026-08-21T19:51:39.000Z</time>
        <extensions>
          <ns3:TrackPointExtension>
            <ns3:hr>114</ns3:hr>
            <ns3:cad>71</ns3:cad>
          </ns3:TrackPointExtension>
        </extensions>
      </trkpt>
      <trkpt lat="45.344900898635387420654296875" lon="-71.012435853481292724609375">
        <ele>893.79998779296875</ele>
        <time>2026-08-21T19:51:40.000Z</time>
        <extensions>
          <ns3:TrackPointExtension>
            <ns3:hr>114</ns3:hr>
            <ns3:cad>71</ns3:cad>
          </ns3:TrackPointExtension>
        </extensions>
      </trkpt>
      <trkpt lat="45.34489545039832592010498046875" lon="-71.01244331337511539459228515625">
        <ele>893.4000244140625</ele>
        <time>2026-08-21T19:51:41.000Z</time>
        <extensions>
          <ns3:TrackPointExtension>
            <ns3:hr>114</ns3:hr>
            <ns3:cad>68</ns3:cad>
          </ns3:TrackPointExtension>
        </extensions>
      </trkpt>
      <trkpt lat="45.34488120116293430328369140625" lon="-71.01246066391468048095703125">
        <ele>893</ele>
        <time>2026-08-21T19:51:42.000Z</time>
        <extensions>
          <ns3:TrackPointExtension>
            <ns3:hr>114</ns3:hr>
            <ns3:cad>68</ns3:cad>
          </ns3:TrackPointExtension>
        </extensions>
      </trkpt>
      <trkpt lat="45.34487399272620677947998046875" lon="-71.0124708898365497589111328125">
        <ele>892.79998779296875</ele>
        <time>2026-08-21T19:51:43.000Z</time>
        <extensions>
          <ns3:TrackPointExtension>
            <ns3:hr>114</ns3:hr>
            <ns3:cad>68</ns3:cad>
          </ns3:TrackPointExtension>
        </extensions>
      </trkpt>
      <trkpt lat="45.34486225806176662445068359375" lon="-71.01248354651033878326416015625">
        <ele>892.4000244140625</ele>
        <time>2026-08-21T19:51:44.000Z</time>
        <extensions>
          <ns3:TrackPointExtension>
            <ns3:hr>114</ns3:hr>
            <ns3:cad>0</ns3:cad>
          </ns3:TrackPointExtension>
        </extensions>
      </trkpt>
      <trkpt lat="45.344848930835723876953125" lon="-71.01248907856643199920654296875">
        <ele>892</ele>
        <time>2026-08-21T19:51:45.000Z</time>
        <extensions>
          <ns3:TrackPointExtension>
            <ns3:hr>114</ns3:hr>
            <ns3:cad>0</ns3:cad>
          </ns3:TrackPointExtension>
        </extensions>
      </trkpt>
      <trkpt lat="45.344836525619029998779296875" lon="-71.01249980740249156951904296875">
        <ele>891.5999755859375</ele>
        <time>2026-08-21T19:51:46.000Z</time>
        <extensions>
          <ns3:TrackPointExtension>
            <ns3:hr>115</ns3:hr>
            <ns3:cad>63</ns3:cad>
          </ns3:TrackPointExtension>
        </extensions>
      </trkpt>
      <trkpt lat="45.34482680261135101318359375" lon="-71.012506596744060516357421875">
        <ele>891.20001220703125</ele>
        <time>2026-08-21T19:51:47.000Z</time>
        <extensions>
          <ns3:TrackPointExtension>
            <ns3:hr>115</ns3:hr>
            <ns3:cad>63</ns3:cad>
          </ns3:TrackPointExtension>
        </extensions>
      </trkpt>
      <trkpt lat="45.3448112122714519500732421875" lon="-71.01251355372369289398193359375">
        <ele>891</ele>
        <time>2026-08-21T19:51:48.000Z</time>
        <extensions>
          <ns3:TrackPointExtension>
            <ns3:hr>115</ns3:hr>
            <ns3:cad>63</ns3:cad>
          </ns3:TrackPointExtension>
        </extensions>
      </trkpt>
      <trkpt lat="45.3447984717786312103271484375" lon="-71.0125218518078327178955078125">
        <ele>890.5999755859375</ele>
        <time>2026-08-21T19:51:49.000Z</time>
        <extensions>
          <ns3:TrackPointExtension>
            <ns3:hr>116</ns3:hr>
            <ns3:cad>63</ns3:cad>
          </ns3:TrackPointExtension>
        </extensions>
      </trkpt>
      <trkpt lat="45.3447847254574298858642578125" lon="-71.01253115572035312652587890625">
        <ele>890.20001220703125</ele>
        <time>2026-08-21T19:51:50.000Z</time>
        <extensions>
          <ns3:TrackPointExtension>
            <ns3:hr>116</ns3:hr>
            <ns3:cad>63</ns3:cad>
          </ns3:TrackPointExtension>
        </extensions>
      </trkpt>
      <trkpt lat="45.34477223642170429229736328125" lon="-71.0125453211367130279541015625">
        <ele>889.79998779296875</ele>
        <time>2026-08-21T19:51:51.000Z</time>
        <extensions>
          <ns3:TrackPointExtension>
            <ns3:hr>116</ns3:hr>
            <ns3:cad>63</ns3:cad>
          </ns3:TrackPointExtension>
        </extensions>
      </trkpt>
      <trkpt lat="45.34476150758564472198486328125" lon="-71.0125537030398845672607421875">
        <ele>889.4000244140625</ele>
        <time>2026-08-21T19:51:52.000Z</time>
        <extensions>
          <ns3:TrackPointExtension>
            <ns3:hr>116</ns3:hr>
            <ns3:cad>63</ns3:cad>
          </ns3:TrackPointExtension>
        </extensions>
      </trkpt>
      <trkpt lat="45.34475094638764858245849609375" lon="-71.012568958103656768798828125">
        <ele>889</ele>
        <time>2026-08-21T19:51:53.000Z</time>
        <extensions>
          <ns3:TrackPointExtension>
            <ns3:hr>117</ns3:hr>
            <ns3:cad>0</ns3:cad>
          </ns3:TrackPointExtension>
        </extensions>
      </trkpt>
      <trkpt lat="45.34474189393222332000732421875" lon="-71.0125801898539066314697265625">
        <ele>888.5999755859375</ele>
        <time>2026-08-21T19:51:54.000Z</time>
        <extensions>
          <ns3:TrackPointExtension>
            <ns3:hr>117</ns3:hr>
            <ns3:cad>0</ns3:cad>
          </ns3:TrackPointExtension>
        </extensions>
      </trkpt>
      <trkpt lat="45.34472747705876827239990234375" lon="-71.0125929303467273712158203125">
        <ele>888.20001220703125</ele>
        <time>2026-08-21T19:51:55.000Z</time>
        <extensions>
          <ns3:TrackPointExtension>
            <ns3:hr>117</ns3:hr>
            <ns3:cad>0</ns3:cad>
          </ns3:TrackPointExtension>
        </extensions>
      </trkpt>
      <trkpt lat="45.3447163291275501251220703125" lon="-71.01260550320148468017578125">
        <ele>888</ele>
        <time>2026-08-21T19:51:56.000Z</time>
        <extensions>
          <ns3:TrackPointExtension>
            <ns3:hr>116</ns3:hr>
            <ns3:cad>0</ns3:cad>
          </ns3:TrackPointExtension>
        </extensions>
      </trkpt>
      <trkpt lat="45.344704091548919677734375" lon="-71.0126210935413837432861328125">
        <ele>887.5999755859375</ele>
        <time>2026-08-21T19:51:57.000Z</time>
        <extensions>
          <ns3:TrackPointExtension>
            <ns3:hr>116</ns3:hr>
            <ns3:cad>0</ns3:cad>
          </ns3:TrackPointExtension>
        </extensions>
      </trkpt>
      <trkpt lat="45.3446925245225429534912109375" lon="-71.012634001672267913818359375">
        <ele>887.20001220703125</ele>
        <time>2026-08-21T19:51:58.000Z</time>
        <extensions>
          <ns3:TrackPointExtension>
            <ns3:hr>116</ns3:hr>
            <ns3:cad>0</ns3:cad>
          </ns3:TrackPointExtension>
        </extensions>
      </trkpt>
      <trkpt lat="45.344683639705181121826171875" lon="-71.01264380849897861480712890625">
        <ele>887</ele>
        <time>2026-08-21T19:51:59.000Z</time>
        <extensions>
          <ns3:TrackPointExtension>
            <ns3:hr>116</ns3:hr>
            <ns3:cad>0</ns3:cad>
          </ns3:TrackPointExtension>
        </extensions>
      </trkpt>
      <trkpt lat="45.3446690551936626434326171875" lon="-71.01265487261116504669189453125">
        <ele>886.5999755859375</ele>
        <time>2026-08-21T19:52:00.000Z</time>
        <extensions>
          <ns3:TrackPointExtension>
            <ns3:hr>116</ns3:hr>
            <ns3:cad>65</ns3:cad>
          </ns3:TrackPointExtension>
        </extensions>
      </trkpt>
      <trkpt lat="45.3446566499769687652587890625" lon="-71.0126626677811145782470703125">
        <ele>886.20001220703125</ele>
        <time>2026-08-21T19:52:01.000Z</time>
        <extensions>
          <ns3:TrackPointExtension>
            <ns3:hr>116</ns3:hr>
            <ns3:cad>65</ns3:cad>
          </ns3:TrackPointExtension>
        </extensions>
      </trkpt>
      <trkpt lat="45.34464709460735321044921875" lon="-71.01267197169363498687744140625">
        <ele>885.79998779296875</ele>
        <time>2026-08-21T19:52:02.000Z</time>
        <extensions>
          <ns3:TrackPointExtension>
            <ns3:hr>116</ns3:hr>
            <ns3:cad>65</ns3:cad>
          </ns3:TrackPointExtension>
        </extensions>
      </trkpt>
      <trkpt lat="45.3446385450661182403564453125" lon="-71.01268856786191463470458984375">
        <ele>885.5999755859375</ele>
        <time>2026-08-21T19:52:03.000Z</time>
        <extensions>
          <ns3:TrackPointExtension>
            <ns3:hr>116</ns3:hr>
            <ns3:cad>70</ns3:cad>
          </ns3:TrackPointExtension>
        </extensions>
      </trkpt>
      <trkpt lat="45.344625972211360931396484375" lon="-71.01269946433603763580322265625">
        <ele>885.20001220703125</ele>
        <time>2026-08-21T19:52:04.000Z</time>
        <extensions>
          <ns3:TrackPointExtension>
            <ns3:hr>116</ns3:hr>
            <ns3:cad>70</ns3:cad>
          </ns3:TrackPointExtension>
        </extensions>
      </trkpt>
      <trkpt lat="45.34460962750017642974853515625" lon="-71.01271086372435092926025390625">
        <ele>884.79998779296875</ele>
        <time>2026-08-21T19:52:05.000Z</time>
        <extensions>
          <ns3:TrackPointExtension>
            <ns3:hr>116</ns3:hr>
            <ns3:cad>0</ns3:cad>
          </ns3:TrackPointExtension>
        </extensions>
      </trkpt>
      <trkpt lat="45.34459839574992656707763671875" lon="-71.01271840743720531463623046875">
        <ele>884.4000244140625</ele>
        <time>2026-08-21T19:52:06.000Z</time>
        <extensions>
          <ns3:TrackPointExtension>
            <ns3:hr>116</ns3:hr>
            <ns3:cad>0</ns3:cad>
          </ns3:TrackPointExtension>
        </extensions>
      </trkpt>
      <trkpt lat="45.34457894973456859588623046875" lon="-71.01272477768361568450927734375">
        <ele>884.20001220703125</ele>
        <time>2026-08-21T19:52:07.000Z</time>
        <extensions>
          <ns3:TrackPointExtension>
            <ns3:hr>116</ns3:hr>
            <ns3:cad>73</ns3:cad>
          </ns3:TrackPointExtension>
        </extensions>
      </trkpt>
      <trkpt lat="45.34456503577530384063720703125" lon="-71.0127307288348674774169921875">
        <ele>883.79998779296875</ele>
        <time>2026-08-21T19:52:08.000Z</time>
        <extensions>
          <ns3:TrackPointExtension>
            <ns3:hr>116</ns3:hr>
            <ns3:cad>73</ns3:cad>
          </ns3:TrackPointExtension>
        </extensions>
      </trkpt>
      <trkpt lat="45.3445517085492610931396484375" lon="-71.0127381049096584320068359375">
        <ele>883.4000244140625</ele>
        <time>2026-08-21T19:52:09.000Z</time>
        <extensions>
          <ns3:TrackPointExtension>
            <ns3:hr>116</ns3:hr>
            <ns3:cad>73</ns3:cad>
          </ns3:TrackPointExtension>
        </extensions>
      </trkpt>
      <trkpt lat="45.3445364534854888916015625" lon="-71.01274170912802219390869140625">
        <ele>883</ele>
        <time>2026-08-21T19:52:10.000Z</time>
        <extensions>
          <ns3:TrackPointExtension>
            <ns3:hr>116</ns3:hr>
            <ns3:cad>73</ns3:cad>
          </ns3:TrackPointExtension>
        </extensions>
      </trkpt>
      <trkpt lat="45.3445258922874927520751953125" lon="-71.0127464868128299713134765625">
        <ele>882.4000244140625</ele>
        <time>2026-08-21T19:52:11.000Z</time>
        <extensions>
          <ns3:TrackPointExtension>
            <ns3:hr>116</ns3:hr>
            <ns3:cad>73</ns3:cad>
          </ns3:TrackPointExtension>
        </extensions>
      </trkpt>
      <trkpt lat="45.34451088868081569671630859375" lon="-71.01275495253503322601318359375">
        <ele>882</ele>
        <time>2026-08-21T19:52:12.000Z</time>
        <extensions>
          <ns3:TrackPointExtension>
            <ns3:hr>116</ns3:hr>
            <ns3:cad>73</ns3:cad>
          </ns3:TrackPointExtension>
        </extensions>
      </trkpt>
      <trkpt lat="45.34449462778866291046142578125" lon="-71.0127666033804416656494140625">
        <ele>881.79998779296875</ele>
        <time>2026-08-21T19:52:13.000Z</time>
        <extensions>
          <ns3:TrackPointExtension>
            <ns3:hr>116</ns3:hr>
            <ns3:cad>77</ns3:cad>
          </ns3:TrackPointExtension>
        </extensions>
      </trkpt>
      <trkpt lat="45.3444813005626201629638671875" lon="-71.0127840377390384674072265625">
        <ele>881.4000244140625</ele>
        <time>2026-08-21T19:52:14.000Z</time>
        <extensions>
          <ns3:TrackPointExtension>
            <ns3:hr>116</ns3:hr>
            <ns3:cad>77</ns3:cad>
          </ns3:TrackPointExtension>
        </extensions>
      </trkpt>
      <trkpt lat="45.34446864388883113861083984375" lon="-71.01279904134571552276611328125">
        <ele>881</ele>
        <time>2026-08-21T19:52:15.000Z</time>
        <extensions>
          <ns3:TrackPointExtension>
            <ns3:hr>116</ns3:hr>
            <ns3:cad>79</ns3:cad>
          </ns3:TrackPointExtension>
        </extensions>
      </trkpt>
      <trkpt lat="45.34445590339601039886474609375" lon="-71.01281010545790195465087890625">
        <ele>880.79998779296875</ele>
        <time>2026-08-21T19:52:16.000Z</time>
        <extensions>
          <ns3:TrackPointExtension>
            <ns3:hr>115</ns3:hr>
            <ns3:cad>79</ns3:cad>
          </ns3:TrackPointExtension>
        </extensions>
      </trkpt>
      <trkpt lat="45.34444634802639484405517578125" lon="-71.01282435469329357147216796875">
        <ele>880.4000244140625</ele>
        <time>2026-08-21T19:52:17.000Z</time>
        <extensions>
          <ns3:TrackPointExtension>
            <ns3:hr>115</ns3:hr>
            <ns3:cad>79</ns3:cad>
          </ns3:TrackPointExtension>
        </extensions>
      </trkpt>
      <trkpt lat="45.34443360753357410430908203125" lon="-71.0128390230238437652587890625">
        <ele>880</ele>
        <time>2026-08-21T19:52:18.000Z</time>
        <extensions>
          <ns3:TrackPointExtension>
            <ns3:hr>115</ns3:hr>
            <ns3:cad>73</ns3:cad>
          </ns3:TrackPointExtension>
        </extensions>
      </trkpt>
      <trkpt lat="45.34442220814526081085205078125" lon="-71.01284983567893505096435546875">
        <ele>879.79998779296875</ele>
        <time>2026-08-21T19:52:19.000Z</time>
        <extensions>
          <ns3:TrackPointExtension>
            <ns3:hr>115</ns3:hr>
            <ns3:cad>73</ns3:cad>
          </ns3:TrackPointExtension>
        </extensions>
      </trkpt>
      <trkpt lat="45.34440997056663036346435546875" lon="-71.012859307229518890380859375">
        <ele>879.4000244140625</ele>
        <time>2026-08-21T19:52:20.000Z</time>
        <extensions>
          <ns3:TrackPointExtension>
            <ns3:hr>115</ns3:hr>
            <ns3:cad>71</ns3:cad>
          </ns3:TrackPointExtension>
        </extensions>
      </trkpt>
      <trkpt lat="45.3443921171128749847412109375" lon="-71.01287263445556163787841796875">
        <ele>879</ele>
        <time>2026-08-21T19:52:21.000Z</time>
        <extensions>
          <ns3:TrackPointExtension>
            <ns3:hr>115</ns3:hr>
            <ns3:cad>71</ns3:cad>
          </ns3:TrackPointExtension>
        </extensions>
      </trkpt>
      <trkpt lat="45.3443808853626251220703125" lon="-71.01288353092968463897705078125">
        <ele>878.79998779296875</ele>
        <time>2026-08-21T19:52:22.000Z</time>
        <extensions>
          <ns3:TrackPointExtension>
            <ns3:hr>114</ns3:hr>
            <ns3:cad>71</ns3:cad>
          </ns3:TrackPointExtension>
        </extensions>
      </trkpt>
      <trkpt lat="45.3443636186420917510986328125" lon="-71.0128973610699176788330078125">
        <ele>878.4000244140625</ele>
        <time>2026-08-21T19:52:23.000Z</time>
        <extensions>
          <ns3:TrackPointExtension>
            <ns3:hr>114</ns3:hr>
            <ns3:cad>0</ns3:cad>
          </ns3:TrackPointExtension>
        </extensions>
      </trkpt>
      <trkpt lat="45.34434936940670013427734375" lon="-71.012910939753055572509765625">
        <ele>878</ele>
        <time>2026-08-21T19:52:24.000Z</time>
        <extensions>
          <ns3:TrackPointExtension>
            <ns3:hr>114</ns3:hr>
            <ns3:cad>0</ns3:cad>
          </ns3:TrackPointExtension>
        </extensions>
      </trkpt>
      <trkpt lat="45.3443307615816593170166015625" lon="-71.01291932165622711181640625">
        <ele>877.79998779296875</ele>
        <time>2026-08-21T19:52:25.000Z</time>
        <extensions>
          <ns3:TrackPointExtension>
            <ns3:hr>114</ns3:hr>
            <ns3:cad>69</ns3:cad>
          </ns3:TrackPointExtension>
        </extensions>
      </trkpt>
      <trkpt lat="45.344316177070140838623046875" lon="-71.01293566636741161346435546875">
        <ele>877.5999755859375</ele>
        <time>2026-08-21T19:52:26.000Z</time>
        <extensions>
          <ns3:TrackPointExtension>
            <ns3:hr>115</ns3:hr>
            <ns3:cad>69</ns3:cad>
          </ns3:TrackPointExtension>
        </extensions>
      </trkpt>
      <trkpt lat="45.34430368803441524505615234375" lon="-71.01294689811766147613525390625">
        <ele>877.4000244140625</ele>
        <time>2026-08-21T19:52:27.000Z</time>
        <extensions>
          <ns3:TrackPointExtension>
            <ns3:hr>115</ns3:hr>
            <ns3:cad>72</ns3:cad>
          </ns3:TrackPointExtension>
        </extensions>
      </trkpt>
      <trkpt lat="45.34429346211254596710205078125" lon="-71.0129563696682453155517578125">
        <ele>877.20001220703125</ele>
        <time>2026-08-21T19:52:28.000Z</time>
        <extensions>
          <ns3:TrackPointExtension>
            <ns3:hr>115</ns3:hr>
            <ns3:cad>72</ns3:cad>
          </ns3:TrackPointExtension>
        </extensions>
      </trkpt>
      <trkpt lat="45.34428021870553493499755859375" lon="-71.01296282373368740081787109375">
        <ele>876.79998779296875</ele>
        <time>2026-08-21T19:52:29.000Z</time>
        <extensions>
          <ns3:TrackPointExtension>
            <ns3:hr>116</ns3:hr>
            <ns3:cad>74</ns3:cad>
          </ns3:TrackPointExtension>
        </extensions>
      </trkpt>
      <trkpt lat="45.3442735970020294189453125" lon="-71.01296986453235149383544921875">
        <ele>876.79998779296875</ele>
        <time>2026-08-21T19:52:30.000Z</time>
        <extensions>
          <ns3:TrackPointExtension>
            <ns3:hr>116</ns3:hr>
            <ns3:cad>72</ns3:cad>
          </ns3:TrackPointExtension>
        </extensions>
      </trkpt>
      <trkpt lat="45.3442650474607944488525390625" lon="-71.01297103799879550933837890625">
        <ele>876.5999755859375</ele>
        <time>2026-08-21T19:52:31.000Z</time>
        <extensions>
          <ns3:TrackPointExtension>
            <ns3:hr>117</ns3:hr>
            <ns3:cad>72</ns3:cad>
          </ns3:TrackPointExtension>
        </extensions>
      </trkpt>
      <trkpt lat="45.3442519716918468475341796875" lon="-71.0129717923700809478759765625">
        <ele>876.4000244140625</ele>
        <time>2026-08-21T19:52:32.000Z</time>
        <extensions>
          <ns3:TrackPointExtension>
            <ns3:hr>118</ns3:hr>
            <ns3:cad>0</ns3:cad>
          </ns3:TrackPointExtension>
        </extensions>
      </trkpt>
      <trkpt lat="45.344243086874485015869140625" lon="-71.0129677690565586090087890625">
        <ele>876.20001220703125</ele>
        <time>2026-08-21T19:52:33.000Z</time>
        <extensions>
          <ns3:TrackPointExtension>
            <ns3:hr>118</ns3:hr>
            <ns3:cad>0</ns3:cad>
          </ns3:TrackPointExtension>
        </extensions>
      </trkpt>
      <trkpt lat="45.3442321904003620147705078125" lon="-71.0129644162952899932861328125">
        <ele>876.20001220703125</ele>
        <time>2026-08-21T19:52:34.000Z</time>
        <extensions>
          <ns3:TrackPointExtension>
            <ns3:hr>118</ns3:hr>
            <ns3:cad>0</ns3:cad>
          </ns3:TrackPointExtension>
        </extensions>
      </trkpt>
      <trkpt lat="45.34421953372657299041748046875" lon="-71.0129575431346893310546875">
        <ele>876</ele>
        <time>2026-08-21T19:52:35.000Z</time>
        <extensions>
          <ns3:TrackPointExtension>
            <ns3:hr>117</ns3:hr>
            <ns3:cad>0</ns3:cad>
          </ns3:TrackPointExtension>
        </extensions>
      </trkpt>
      <trkpt lat="45.344206206500530242919921875" lon="-71.01294354535639286041259765625">
        <ele>875.79998779296875</ele>
        <time>2026-08-21T19:52:36.000Z</time>
        <extensions>
          <ns3:TrackPointExtension>
            <ns3:hr>116</ns3:hr>
            <ns3:cad>0</ns3:cad>
          </ns3:TrackPointExtension>
        </extensions>
      </trkpt>
      <trkpt lat="45.3441966511309146881103515625" lon="-71.0129332356154918670654296875">
        <ele>875.79998779296875</ele>
        <time>2026-08-21T19:52:37.000Z</time>
        <extensions>
          <ns3:TrackPointExtension>
            <ns3:hr>116</ns3:hr>
            <ns3:cad>0</ns3:cad>
          </ns3:TrackPointExtension>
        </extensions>
      </trkpt>
      <trkpt lat="45.34418952651321887969970703125" lon="-71.0129258595407009124755859375">
        <ele>875.5999755859375</ele>
        <time>2026-08-21T19:52:38.000Z</time>
        <extensions>
          <ns3:TrackPointExtension>
            <ns3:hr>115</ns3:hr>
            <ns3:cad>0</ns3:cad>
          </ns3:TrackPointExtension>
        </extensions>
      </trkpt>
      <trkpt lat="45.34417896531522274017333984375" lon="-71.0129208303987979888916015625">
        <ele>875.5999755859375</ele>
        <time>2026-08-21T19:52:39.000Z</time>
        <extensions>
          <ns3:TrackPointExtension>
            <ns3:hr>115</ns3:hr>
            <ns3:cad>54</ns3:cad>
          </ns3:TrackPointExtension>
        </extensions>
      </trkpt>
      <trkpt lat="45.34417259506881237030029296875" lon="-71.01291169412434101104736328125">
        <ele>875.4000244140625</ele>
        <time>2026-08-21T19:52:40.000Z</time>
        <extensions>
          <ns3:TrackPointExtension>
            <ns3:hr>115</ns3:hr>
            <ns3:cad>54</ns3:cad>
          </ns3:TrackPointExtension>
        </extensions>
      </trkpt>
      <trkpt lat="45.34416002221405506134033203125" lon="-71.0128946788609027862548828125">
        <ele>875.4000244140625</ele>
        <time>2026-08-21T19:52:41.000Z</time>
        <extensions>
          <ns3:TrackPointExtension>
            <ns3:hr>114</ns3:hr>
            <ns3:cad>54</ns3:cad>
          </ns3:TrackPointExtension>
        </extensions>
      </trkpt>
      <trkpt lat="45.344149209558963775634765625" lon="-71.0128832794725894927978515625">
        <ele>875.20001220703125</ele>
        <time>2026-08-21T19:52:42.000Z</time>
        <extensions>
          <ns3:TrackPointExtension>
            <ns3:hr>114</ns3:hr>
            <ns3:cad>54</ns3:cad>
          </ns3:TrackPointExtension>
        </extensions>
      </trkpt>
      <trkpt lat="45.34413403831422328948974609375" lon="-71.0128717124462127685546875">
        <ele>875.20001220703125</ele>
        <time>2026-08-21T19:52:43.000Z</time>
        <extensions>
          <ns3:TrackPointExtension>
            <ns3:hr>114</ns3:hr>
            <ns3:cad>54</ns3:cad>
          </ns3:TrackPointExtension>
        </extensions>
      </trkpt>
      <trkpt lat="45.34411995671689510345458984375" lon="-71.01285922341048717498779296875">
        <ele>875</ele>
        <time>2026-08-21T19:52:44.000Z</time>
        <extensions>
          <ns3:TrackPointExtension>
            <ns3:hr>114</ns3:hr>
            <ns3:cad>54</ns3:cad>
          </ns3:TrackPointExtension>
        </extensions>
      </trkpt>
      <trkpt lat="45.344105623662471771240234375" lon="-71.0128443874418735504150390625">
        <ele>874.5999755859375</ele>
        <time>2026-08-21T19:52:45.000Z</time>
        <extensions>
          <ns3:TrackPointExtension>
            <ns3:hr>114</ns3:hr>
            <ns3:cad>72</ns3:cad>
          </ns3:TrackPointExtension>
        </extensions>
      </trkpt>
      <trkpt lat="45.34408927895128726959228515625" lon="-71.01283022202551364898681640625">
        <ele>874.4000244140625</ele>
        <time>2026-08-21T19:52:46.000Z</time>
        <extensions>
          <ns3:TrackPointExtension>
            <ns3:hr>114</ns3:hr>
            <ns3:cad>73</ns3:cad>
          </ns3:TrackPointExtension>
        </extensions>
      </trkpt>
      <trkpt lat="45.34407301805913448333740234375" lon="-71.0128148831427097320556640625">
        <ele>874.20001220703125</ele>
        <time>2026-08-21T19:52:47.000Z</time>
        <extensions>
          <ns3:TrackPointExtension>
            <ns3:hr>114</ns3:hr>
            <ns3:cad>73</ns3:cad>
          </ns3:TrackPointExtension>
        </extensions>
      </trkpt>
      <trkpt lat="45.34405767917633056640625" lon="-71.01280122064054012298583984375">
        <ele>874</ele>
        <time>2026-08-21T19:52:48.000Z</time>
        <extensions>
          <ns3:TrackPointExtension>
            <ns3:hr>114</ns3:hr>
            <ns3:cad>73</ns3:cad>
          </ns3:TrackPointExtension>
        </extensions>
      </trkpt>
      <trkpt lat="45.3440434299409389495849609375" lon="-71.01278546266257762908935546875">
        <ele>874</ele>
        <time>2026-08-21T19:52:49.000Z</time>
        <extensions>
          <ns3:TrackPointExtension>
            <ns3:hr>113</ns3:hr>
            <ns3:cad>74</ns3:cad>
          </ns3:TrackPointExtension>
        </extensions>
      </trkpt>
      <trkpt lat="45.3440280072391033172607421875" lon="-71.01276987232267856597900390625">
        <ele>873.79998779296875</ele>
        <time>2026-08-21T19:52:50.000Z</time>
        <extensions>
          <ns3:TrackPointExtension>
            <ns3:hr>114</ns3:hr>
            <ns3:cad>74</ns3:cad>
          </ns3:TrackPointExtension>
        </extensions>
      </trkpt>
      <trkpt lat="45.34401585347950458526611328125" lon="-71.012757718563079833984375">
        <ele>873.79998779296875</ele>
        <time>2026-08-21T19:52:51.000Z</time>
        <extensions>
          <ns3:TrackPointExtension>
            <ns3:hr>114</ns3:hr>
            <ns3:cad>74</ns3:cad>
          </ns3:TrackPointExtension>
        </extensions>
      </trkpt>
      <trkpt lat="45.34400529228150844573974609375" lon="-71.01274388842284679412841796875">
        <ele>873.79998779296875</ele>
        <time>2026-08-21T19:52:52.000Z</time>
        <extensions>
          <ns3:TrackPointExtension>
            <ns3:hr>113</ns3:hr>
            <ns3:cad>74</ns3:cad>
          </ns3:TrackPointExtension>
        </extensions>
      </trkpt>
      <trkpt lat="45.34399330615997314453125" lon="-71.01273131556808948516845703125">
        <ele>873.79998779296875</ele>
        <time>2026-08-21T19:52:53.000Z</time>
        <extensions>
          <ns3:TrackPointExtension>
            <ns3:hr>114</ns3:hr>
            <ns3:cad>74</ns3:cad>
          </ns3:TrackPointExtension>
        </extensions>
      </trkpt>
      <trkpt lat="45.3439807333052158355712890625" lon="-71.0127199999988079071044921875">
        <ele>873.79998779296875</ele>
        <time>2026-08-21T19:52:54.000Z</time>
        <extensions>
          <ns3:TrackPointExtension>
            <ns3:hr>114</ns3:hr>
            <ns3:cad>74</ns3:cad>
          </ns3:TrackPointExtension>
        </extensions>
      </trkpt>
      <trkpt lat="45.34396975301206111907958984375" lon="-71.01270801387727260589599609375">
        <ele>873.79998779296875</ele>
        <time>2026-08-21T19:52:55.000Z</time>
        <extensions>
          <ns3:TrackPointExtension>
            <ns3:hr>114</ns3:hr>
            <ns3:cad>74</ns3:cad>
          </ns3:TrackPointExtension>
        </extensions>
      </trkpt>
      <trkpt lat="45.34396086819469928741455078125" lon="-71.0126928426325321197509765625">
        <ele>873.79998779296875</ele>
        <time>2026-08-21T19:52:56.000Z</time>
        <extensions>
          <ns3:TrackPointExtension>
            <ns3:hr>114</ns3:hr>
            <ns3:cad>74</ns3:cad>
          </ns3:TrackPointExtension>
        </extensions>
      </trkpt>
      <trkpt lat="45.34394980408251285552978515625" lon="-71.01266979239881038665771484375">
        <ele>873.5999755859375</ele>
        <time>2026-08-21T19:52:57.000Z</time>
        <extensions>
          <ns3:TrackPointExtension>
            <ns3:hr>115</ns3:hr>
            <ns3:cad>74</ns3:cad>
          </ns3:TrackPointExtension>
        </extensions>
      </trkpt>
      <trkpt lat="45.34393899142742156982421875" lon="-71.01265369914472103118896484375">
        <ele>873.5999755859375</ele>
        <time>2026-08-21T19:52:58.000Z</time>
        <extensions>
          <ns3:TrackPointExtension>
            <ns3:hr>115</ns3:hr>
            <ns3:cad>74</ns3:cad>
          </ns3:TrackPointExtension>
        </extensions>
      </trkpt>
      <trkpt lat="45.34392532892525196075439453125" lon="-71.01263861171901226043701171875">
        <ele>873.5999755859375</ele>
        <time>2026-08-21T19:52:59.000Z</time>
        <extensions>
          <ns3:TrackPointExtension>
            <ns3:hr>115</ns3:hr>
            <ns3:cad>74</ns3:cad>
          </ns3:TrackPointExtension>
        </extensions>
      </trkpt>
      <trkpt lat="45.343911834061145782470703125" lon="-71.01261547766625881195068359375">
        <ele>873.4000244140625</ele>
        <time>2026-08-21T19:53:00.000Z</time>
        <extensions>
          <ns3:TrackPointExtension>
            <ns3:hr>115</ns3:hr>
            <ns3:cad>74</ns3:cad>
          </ns3:TrackPointExtension>
        </extensions>
      </trkpt>
      <trkpt lat="45.3438972495496273040771484375" lon="-71.01259955205023288726806640625">
        <ele>873.4000244140625</ele>
        <time>2026-08-21T19:53:01.000Z</time>
        <extensions>
          <ns3:TrackPointExtension>
            <ns3:hr>115</ns3:hr>
            <ns3:cad>74</ns3:cad>
          </ns3:TrackPointExtension>
        </extensions>
      </trkpt>
      <trkpt lat="45.34388274885714054107666015625" lon="-71.0125862248241901397705078125">
        <ele>873.20001220703125</ele>
        <time>2026-08-21T19:53:02.000Z</time>
        <extensions>
          <ns3:TrackPointExtension>
            <ns3:hr>116</ns3:hr>
            <ns3:cad>74</ns3:cad>
          </ns3:TrackPointExtension>
        </extensions>
      </trkpt>
      <trkpt lat="45.34386699087917804718017578125" lon="-71.012578345835208892822265625">
        <ele>873</ele>
        <time>2026-08-21T19:53:03.000Z</time>
        <extensions>
          <ns3:TrackPointExtension>
            <ns3:hr>115</ns3:hr>
            <ns3:cad>74</ns3:cad>
          </ns3:TrackPointExtension>
        </extensions>
      </trkpt>
      <trkpt lat="45.34385257400572299957275390625" lon="-71.01257256232202053070068359375">
        <ele>872.79998779296875</ele>
        <time>2026-08-21T19:53:04.000Z</time>
        <extensions>
          <ns3:TrackPointExtension>
            <ns3:hr>115</ns3:hr>
            <ns3:cad>69</ns3:cad>
          </ns3:TrackPointExtension>
        </extensions>
      </trkpt>
      <trkpt lat="45.343832708895206451416015625" lon="-71.01256099529564380645751953125">
        <ele>872.5999755859375</ele>
        <time>2026-08-21T19:53:05.000Z</time>
        <extensions>
          <ns3:TrackPointExtension>
            <ns3:hr>115</ns3:hr>
            <ns3:cad>69</ns3:cad>
          </ns3:TrackPointExtension>
        </extensions>
      </trkpt>
      <trkpt lat="45.34381250850856304168701171875" lon="-71.0125520266592502593994140625">
        <ele>872.5999755859375</ele>
        <time>2026-08-21T19:53:06.000Z</time>
        <extensions>
          <ns3:TrackPointExtension>
            <ns3:hr>116</ns3:hr>
            <ns3:cad>69</ns3:cad>
          </ns3:TrackPointExtension>
        </extensions>
      </trkpt>
      <trkpt lat="45.34379624761641025543212890625" lon="-71.01254649460315704345703125">
        <ele>872.4000244140625</ele>
        <time>2026-08-21T19:53:07.000Z</time>
        <extensions>
          <ns3:TrackPointExtension>
            <ns3:hr>117</ns3:hr>
            <ns3:cad>69</ns3:cad>
          </ns3:TrackPointExtension>
        </extensions>
      </trkpt>
      <trkpt lat="45.3437745384871959686279296875" lon="-71.01254674606025218963623046875">
        <ele>872.4000244140625</ele>
        <time>2026-08-21T19:53:08.000Z</time>
        <extensions>
          <ns3:TrackPointExtension>
            <ns3:hr>117</ns3:hr>
            <ns3:cad>0</ns3:cad>
          </ns3:TrackPointExtension>
        </extensions>
      </trkpt>
      <trkpt lat="45.34375702030956745147705078125" lon="-71.012546159327030181884765625">
        <ele>872.20001220703125</ele>
        <time>2026-08-21T19:53:09.000Z</time>
        <extensions>
          <ns3:TrackPointExtension>
            <ns3:hr>118</ns3:hr>
            <ns3:cad>0</ns3:cad>
          </ns3:TrackPointExtension>
        </extensions>
      </trkpt>
      <trkpt lat="45.343736149370670318603515625" lon="-71.01254959590733051300048828125">
        <ele>871.79998779296875</ele>
        <time>2026-08-21T19:53:10.000Z</time>
        <extensions>
          <ns3:TrackPointExtension>
            <ns3:hr>118</ns3:hr>
            <ns3:cad>0</ns3:cad>
          </ns3:TrackPointExtension>
        </extensions>
      </trkpt>
      <trkpt lat="45.34371812827885150909423828125" lon="-71.0125476680696010589599609375">
        <ele>871.5999755859375</ele>
        <time>2026-08-21T19:53:11.000Z</time>
        <extensions>
          <ns3:TrackPointExtension>
            <ns3:hr>119</ns3:hr>
            <ns3:cad>0</ns3:cad>
          </ns3:TrackPointExtension>
        </extensions>
      </trkpt>
      <trkpt lat="45.3437027893960475921630859375" lon="-71.01254758425056934356689453125">
        <ele>871.4000244140625</ele>
        <time>2026-08-21T19:53:12.000Z</time>
        <extensions>
          <ns3:TrackPointExtension>
            <ns3:hr>119</ns3:hr>
            <ns3:cad>0</ns3:cad>
          </ns3:TrackPointExtension>
        </extensions>
      </trkpt>
      <trkpt lat="45.34368325956165790557861328125" lon="-71.01254926063120365142822265625">
        <ele>871</ele>
        <time>2026-08-21T19:53:13.000Z</time>
        <extensions>
          <ns3:TrackPointExtension>
            <ns3:hr>119</ns3:hr>
            <ns3:cad>0</ns3:cad>
          </ns3:TrackPointExtension>
        </extensions>
      </trkpt>
      <trkpt lat="45.34366540610790252685546875" lon="-71.01255177520215511322021484375">
        <ele>870.79998779296875</ele>
        <time>2026-08-21T19:53:14.000Z</time>
        <extensions>
          <ns3:TrackPointExtension>
            <ns3:hr>120</ns3:hr>
            <ns3:cad>0</ns3:cad>
          </ns3:TrackPointExtension>
        </extensions>
      </trkpt>
      <trkpt lat="45.3436467982828617095947265625" lon="-71.01255294866859912872314453125">
        <ele>870.5999755859375</ele>
        <time>2026-08-21T19:53:15.000Z</time>
        <extensions>
          <ns3:TrackPointExtension>
            <ns3:hr>120</ns3:hr>
            <ns3:cad>0</ns3:cad>
          </ns3:TrackPointExtension>
        </extensions>
      </trkpt>
      <trkpt lat="45.34362919628620147705078125" lon="-71.012548506259918212890625">
        <ele>870.4000244140625</ele>
        <time>2026-08-21T19:53:16.000Z</time>
        <extensions>
          <ns3:TrackPointExtension>
            <ns3:hr>120</ns3:hr>
            <ns3:cad>0</ns3:cad>
          </ns3:TrackPointExtension>
        </extensions>
      </trkpt>
      <trkpt lat="45.343614779412746429443359375" lon="-71.01254775188863277435302734375">
        <ele>870.20001220703125</ele>
        <time>2026-08-21T19:53:17.000Z</time>
        <extensions>
          <ns3:TrackPointExtension>
            <ns3:hr>120</ns3:hr>
            <ns3:cad>0</ns3:cad>
          </ns3:TrackPointExtension>
        </extensions>
      </trkpt>
      <trkpt lat="45.3435961715877056121826171875" lon="-71.01254540495574474334716796875">
        <ele>870</ele>
        <time>2026-08-21T19:53:18.000Z</time>
        <extensions>
          <ns3:TrackPointExtension>
            <ns3:hr>119</ns3:hr>
            <ns3:cad>72</ns3:cad>
          </ns3:TrackPointExtension>
        </extensions>
      </trkpt>
      <trkpt lat="45.34358083270490169525146484375" lon="-71.01254389621317386627197265625">
        <ele>869.79998779296875</ele>
        <time>2026-08-21T19:53:19.000Z</time>
        <extensions>
          <ns3:TrackPointExtension>
            <ns3:hr>119</ns3:hr>
            <ns3:cad>72</ns3:cad>
          </ns3:TrackPointExtension>
        </extensions>
      </trkpt>
      <trkpt lat="45.343564487993717193603515625" lon="-71.0125429742038249969482421875">
        <ele>869.5999755859375</ele>
        <time>2026-08-21T19:53:20.000Z</time>
        <extensions>
          <ns3:TrackPointExtension>
            <ns3:hr>118</ns3:hr>
            <ns3:cad>72</ns3:cad>
          </ns3:TrackPointExtension>
        </extensions>
      </trkpt>
      <trkpt lat="45.34354965202510356903076171875" lon="-71.012543141841888427734375">
        <ele>869.20001220703125</ele>
        <time>2026-08-21T19:53:21.000Z</time>
        <extensions>
          <ns3:TrackPointExtension>
            <ns3:hr>118</ns3:hr>
            <ns3:cad>72</ns3:cad>
          </ns3:TrackPointExtension>
        </extensions>
      </trkpt>
      <trkpt lat="45.343528278172016143798828125" lon="-71.01253635250031948089599609375">
        <ele>869</ele>
        <time>2026-08-21T19:53:22.000Z</time>
        <extensions>
          <ns3:TrackPointExtension>
            <ns3:hr>119</ns3:hr>
            <ns3:cad>72</ns3:cad>
          </ns3:TrackPointExtension>
        </extensions>
      </trkpt>
      <trkpt lat="45.3435126878321170806884765625" lon="-71.01253216154873371124267578125">
        <ele>868.5999755859375</ele>
        <time>2026-08-21T19:53:23.000Z</time>
        <extensions>
          <ns3:TrackPointExtension>
            <ns3:hr>119</ns3:hr>
            <ns3:cad>72</ns3:cad>
          </ns3:TrackPointExtension>
        </extensions>
      </trkpt>
      <trkpt lat="45.34349768422544002532958984375" lon="-71.01252503693103790283203125">
        <ele>868.20001220703125</ele>
        <time>2026-08-21T19:53:24.000Z</time>
        <extensions>
          <ns3:TrackPointExtension>
            <ns3:hr>119</ns3:hr>
            <ns3:cad>75</ns3:cad>
          </ns3:TrackPointExtension>
        </extensions>
      </trkpt>
      <trkpt lat="45.34348058514297008514404296875" lon="-71.0125195048749446868896484375">
        <ele>867.79998779296875</ele>
        <time>2026-08-21T19:53:25.000Z</time>
        <extensions>
          <ns3:TrackPointExtension>
            <ns3:hr>118</ns3:hr>
            <ns3:cad>76</ns3:cad>
          </ns3:TrackPointExtension>
        </extensions>
      </trkpt>
      <trkpt lat="45.3434613905847072601318359375" lon="-71.0125184990465641021728515625">
        <ele>867.4000244140625</ele>
        <time>2026-08-21T19:53:26.000Z</time>
        <extensions>
          <ns3:TrackPointExtension>
            <ns3:hr>118</ns3:hr>
            <ns3:cad>79</ns3:cad>
          </ns3:TrackPointExtension>
        </extensions>
      </trkpt>
      <trkpt lat="45.3434439562261104583740234375" lon="-71.01252025924623012542724609375">
        <ele>867</ele>
        <time>2026-08-21T19:53:27.000Z</time>
        <extensions>
          <ns3:TrackPointExtension>
            <ns3:hr>118</ns3:hr>
            <ns3:cad>79</ns3:cad>
          </ns3:TrackPointExtension>
        </extensions>
      </trkpt>
      <trkpt lat="45.34342677332460880279541015625" lon="-71.01252210326492786407470703125">
        <ele>866.79998779296875</ele>
        <time>2026-08-21T19:53:28.000Z</time>
        <extensions>
          <ns3:TrackPointExtension>
            <ns3:hr>118</ns3:hr>
            <ns3:cad>79</ns3:cad>
          </ns3:TrackPointExtension>
        </extensions>
      </trkpt>
      <trkpt lat="45.34340917132794857025146484375" lon="-71.012522019445896148681640625">
        <ele>866.4000244140625</ele>
        <time>2026-08-21T19:53:29.000Z</time>
        <extensions>
          <ns3:TrackPointExtension>
            <ns3:hr>118</ns3:hr>
            <ns3:cad>79</ns3:cad>
          </ns3:TrackPointExtension>
        </extensions>
      </trkpt>
      <trkpt lat="45.343389809131622314453125" lon="-71.01252428255975246429443359375">
        <ele>866</ele>
        <time>2026-08-21T19:53:30.000Z</time>
        <extensions>
          <ns3:TrackPointExtension>
            <ns3:hr>118</ns3:hr>
            <ns3:cad>79</ns3:cad>
          </ns3:TrackPointExtension>
        </extensions>
      </trkpt>
      <trkpt lat="45.34336960874497890472412109375" lon="-71.01252998225390911102294921875">
        <ele>865.5999755859375</ele>
        <time>2026-08-21T19:53:31.000Z</time>
        <extensions>
          <ns3:TrackPointExtension>
            <ns3:hr>117</ns3:hr>
            <ns3:cad>78</ns3:cad>
          </ns3:TrackPointExtension>
        </extensions>
      </trkpt>
      <trkpt lat="45.34334965981543064117431640625" lon="-71.0125252045691013336181640625">
        <ele>865.4000244140625</ele>
        <time>2026-08-21T19:53:32.000Z</time>
        <extensions>
          <ns3:TrackPointExtension>
            <ns3:hr>118</ns3:hr>
            <ns3:cad>78</ns3:cad>
          </ns3:TrackPointExtension>
        </extensions>
      </trkpt>
      <trkpt lat="45.34332518465816974639892578125" lon="-71.0125178284943103790283203125">
        <ele>865</ele>
        <time>2026-08-21T19:53:33.000Z</time>
        <extensions>
          <ns3:TrackPointExtension>
            <ns3:hr>118</ns3:hr>
            <ns3:cad>76</ns3:cad>
          </ns3:TrackPointExtension>
        </extensions>
      </trkpt>
      <trkpt lat="45.34330272115767002105712890625" lon="-71.01251321844756603240966796875">
        <ele>865</ele>
        <time>2026-08-21T19:53:34.000Z</time>
        <extensions>
          <ns3:TrackPointExtension>
            <ns3:hr>118</ns3:hr>
            <ns3:cad>76</ns3:cad>
          </ns3:TrackPointExtension>
        </extensions>
      </trkpt>
      <trkpt lat="45.34327874891459941864013671875" lon="-71.01251204498112201690673828125">
        <ele>864.79998779296875</ele>
        <time>2026-08-21T19:53:35.000Z</time>
        <extensions>
          <ns3:TrackPointExtension>
            <ns3:hr>118</ns3:hr>
            <ns3:cad>76</ns3:cad>
          </ns3:TrackPointExtension>
        </extensions>
      </trkpt>
      <trkpt lat="45.343257375061511993408203125" lon="-71.0125091113150119781494140625">
        <ele>864.5999755859375</ele>
        <time>2026-08-21T19:53:36.000Z</time>
        <extensions>
          <ns3:TrackPointExtension>
            <ns3:hr>118</ns3:hr>
            <ns3:cad>77</ns3:cad>
          </ns3:TrackPointExtension>
        </extensions>
      </trkpt>
      <trkpt lat="45.3432414494454860687255859375" lon="-71.01250248961150646209716796875">
        <ele>864.5999755859375</ele>
        <time>2026-08-21T19:53:37.000Z</time>
        <extensions>
          <ns3:TrackPointExtension>
            <ns3:hr>118</ns3:hr>
            <ns3:cad>77</ns3:cad>
          </ns3:TrackPointExtension>
        </extensions>
      </trkpt>
      <trkpt lat="45.34322309307754039764404296875" lon="-71.01249678991734981536865234375">
        <ele>864.4000244140625</ele>
        <time>2026-08-21T19:53:38.000Z</time>
        <extensions>
          <ns3:TrackPointExtension>
            <ns3:hr>119</ns3:hr>
            <ns3:cad>76</ns3:cad>
          </ns3:TrackPointExtension>
        </extensions>
      </trkpt>
      <trkpt lat="45.34320062957704067230224609375" lon="-71.0125040821731090545654296875">
        <ele>864.4000244140625</ele>
        <time>2026-08-21T19:53:39.000Z</time>
        <extensions>
          <ns3:TrackPointExtension>
            <ns3:hr>119</ns3:hr>
            <ns3:cad>76</ns3:cad>
          </ns3:TrackPointExtension>
        </extensions>
      </trkpt>
      <trkpt lat="45.34318260848522186279296875" lon="-71.0125117935240268707275390625">
        <ele>864.20001220703125</ele>
        <time>2026-08-21T19:53:40.000Z</time>
        <extensions>
          <ns3:TrackPointExtension>
            <ns3:hr>120</ns3:hr>
            <ns3:cad>75</ns3:cad>
          </ns3:TrackPointExtension>
        </extensions>
      </trkpt>
      <trkpt lat="45.343165509402751922607421875" lon="-71.0125161521136760711669921875">
        <ele>864.20001220703125</ele>
        <time>2026-08-21T19:53:41.000Z</time>
        <extensions>
          <ns3:TrackPointExtension>
            <ns3:hr>120</ns3:hr>
            <ns3:cad>74</ns3:cad>
          </ns3:TrackPointExtension>
        </extensions>
      </trkpt>
      <trkpt lat="45.3431489132344722747802734375" lon="-71.01251690648496150970458984375">
        <ele>864</ele>
        <time>2026-08-21T19:53:42.000Z</time>
        <extensions>
          <ns3:TrackPointExtension>
            <ns3:hr>120</ns3:hr>
            <ns3:cad>74</ns3:cad>
          </ns3:TrackPointExtension>
        </extensions>
      </trkpt>
      <trkpt lat="45.3431318141520023345947265625" lon="-71.0125161521136760711669921875">
        <ele>864</ele>
        <time>2026-08-21T19:53:43.000Z</time>
        <extensions>
          <ns3:TrackPointExtension>
            <ns3:hr>120</ns3:hr>
            <ns3:cad>73</ns3:cad>
          </ns3:TrackPointExtension>
        </extensions>
      </trkpt>
      <trkpt lat="45.3431106917560100555419921875" lon="-71.01251707412302494049072265625">
        <ele>863.79998779296875</ele>
        <time>2026-08-21T19:53:44.000Z</time>
        <extensions>
          <ns3:TrackPointExtension>
            <ns3:hr>120</ns3:hr>
            <ns3:cad>73</ns3:cad>
          </ns3:TrackPointExtension>
        </extensions>
      </trkpt>
      <trkpt lat="45.343093089759349822998046875" lon="-71.012521684169769287109375">
        <ele>863.79998779296875</ele>
        <time>2026-08-21T19:53:45.000Z</time>
        <extensions>
          <ns3:TrackPointExtension>
            <ns3:hr>121</ns3:hr>
            <ns3:cad>73</ns3:cad>
          </ns3:TrackPointExtension>
        </extensions>
      </trkpt>
      <trkpt lat="45.34307741560041904449462890625" lon="-71.0125211812555789947509765625">
        <ele>863.79998779296875</ele>
        <time>2026-08-21T19:53:46.000Z</time>
        <extensions>
          <ns3:TrackPointExtension>
            <ns3:hr>121</ns3:hr>
            <ns3:cad>73</ns3:cad>
          </ns3:TrackPointExtension>
        </extensions>
      </trkpt>
      <trkpt lat="45.34305780194699764251708984375" lon="-71.01252025924623012542724609375">
        <ele>863.79998779296875</ele>
        <time>2026-08-21T19:53:47.000Z</time>
        <extensions>
          <ns3:TrackPointExtension>
            <ns3:hr>120</ns3:hr>
            <ns3:cad>73</ns3:cad>
          </ns3:TrackPointExtension>
        </extensions>
      </trkpt>
      <trkpt lat="45.343038775026798248291015625" lon="-71.01251900196075439453125">
        <ele>863.5999755859375</ele>
        <time>2026-08-21T19:53:48.000Z</time>
        <extensions>
          <ns3:TrackPointExtension>
            <ns3:hr>120</ns3:hr>
            <ns3:cad>75</ns3:cad>
          </ns3:TrackPointExtension>
        </extensions>
      </trkpt>
      <trkpt lat="45.34302058629691600799560546875" lon="-71.01251422427594661712646484375">
        <ele>863.5999755859375</ele>
        <time>2026-08-21T19:53:49.000Z</time>
        <extensions>
          <ns3:TrackPointExtension>
            <ns3:hr>120</ns3:hr>
            <ns3:cad>75</ns3:cad>
          </ns3:TrackPointExtension>
        </extensions>
      </trkpt>
      <trkpt lat="45.3430049121379852294921875" lon="-71.0125091113150119781494140625">
        <ele>863.4000244140625</ele>
        <time>2026-08-21T19:53:50.000Z</time>
        <extensions>
          <ns3:TrackPointExtension>
            <ns3:hr>120</ns3:hr>
            <ns3:cad>75</ns3:cad>
          </ns3:TrackPointExtension>
        </extensions>
      </trkpt>
      <trkpt lat="45.34298856742680072784423828125" lon="-71.0125044174492359161376953125">
        <ele>863.4000244140625</ele>
        <time>2026-08-21T19:53:51.000Z</time>
        <extensions>
          <ns3:TrackPointExtension>
            <ns3:hr>120</ns3:hr>
            <ns3:cad>75</ns3:cad>
          </ns3:TrackPointExtension>
        </extensions>
      </trkpt>
      <trkpt lat="45.34297079779207706451416015625" lon="-71.01250181905925273895263671875">
        <ele>863.20001220703125</ele>
        <time>2026-08-21T19:53:52.000Z</time>
        <extensions>
          <ns3:TrackPointExtension>
            <ns3:hr>120</ns3:hr>
            <ns3:cad>75</ns3:cad>
          </ns3:TrackPointExtension>
        </extensions>
      </trkpt>
      <trkpt lat="45.34295302815735340118408203125" lon="-71.012500226497650146484375">
        <ele>863.20001220703125</ele>
        <time>2026-08-21T19:53:53.000Z</time>
        <extensions>
          <ns3:TrackPointExtension>
            <ns3:hr>120</ns3:hr>
            <ns3:cad>75</ns3:cad>
          </ns3:TrackPointExtension>
        </extensions>
      </trkpt>
      <trkpt lat="45.34293693490326404571533203125" lon="-71.01249980740249156951904296875">
        <ele>863</ele>
        <time>2026-08-21T19:53:54.000Z</time>
        <extensions>
          <ns3:TrackPointExtension>
            <ns3:hr>119</ns3:hr>
            <ns3:cad>75</ns3:cad>
          </ns3:TrackPointExtension>
        </extensions>
      </trkpt>
      <trkpt lat="45.34291966818273067474365234375" lon="-71.012500561773777008056640625">
        <ele>863</ele>
        <time>2026-08-21T19:53:55.000Z</time>
        <extensions>
          <ns3:TrackPointExtension>
            <ns3:hr>119</ns3:hr>
            <ns3:cad>74</ns3:cad>
          </ns3:TrackPointExtension>
        </extensions>
      </trkpt>
      <trkpt lat="45.34290290437638759613037109375" lon="-71.01250198669731616973876953125">
        <ele>862.79998779296875</ele>
        <time>2026-08-21T19:53:56.000Z</time>
        <extensions>
          <ns3:TrackPointExtension>
            <ns3:hr>120</ns3:hr>
            <ns3:cad>74</ns3:cad>
          </ns3:TrackPointExtension>
        </extensions>
      </trkpt>
      <trkpt lat="45.34288664348423480987548828125" lon="-71.01250047795474529266357421875">
        <ele>862.5999755859375</ele>
        <time>2026-08-21T19:53:57.000Z</time>
        <extensions>
          <ns3:TrackPointExtension>
            <ns3:hr>120</ns3:hr>
            <ns3:cad>72</ns3:cad>
          </ns3:TrackPointExtension>
        </extensions>
      </trkpt>
      <trkpt lat="45.3428679518401622772216796875" lon="-71.01250466890633106231689453125">
        <ele>862.5999755859375</ele>
        <time>2026-08-21T19:53:58.000Z</time>
        <extensions>
          <ns3:TrackPointExtension>
            <ns3:hr>120</ns3:hr>
            <ns3:cad>70</ns3:cad>
          </ns3:TrackPointExtension>
        </extensions>
      </trkpt>
      <trkpt lat="45.34284909255802631378173828125" lon="-71.01251170970499515533447265625">
        <ele>862.4000244140625</ele>
        <time>2026-08-21T19:53:59.000Z</time>
        <extensions>
          <ns3:TrackPointExtension>
            <ns3:hr>120</ns3:hr>
            <ns3:cad>70</ns3:cad>
          </ns3:TrackPointExtension>
        </extensions>
      </trkpt>
      <trkpt lat="45.34283232875168323516845703125" lon="-71.012515313923358917236328125">
        <ele>862.20001220703125</ele>
        <time>2026-08-21T19:54:00.000Z</time>
        <extensions>
          <ns3:TrackPointExtension>
            <ns3:hr>120</ns3:hr>
            <ns3:cad>69</ns3:cad>
          </ns3:TrackPointExtension>
        </extensions>
      </trkpt>
      <trkpt lat="45.342818163335323333740234375" lon="-71.012516319751739501953125">
        <ele>862.20001220703125</ele>
        <time>2026-08-21T19:54:01.000Z</time>
        <extensions>
          <ns3:TrackPointExtension>
            <ns3:hr>120</ns3:hr>
            <ns3:cad>69</ns3:cad>
          </ns3:TrackPointExtension>
        </extensions>
      </trkpt>
      <trkpt lat="45.3428019024431705474853515625" lon="-71.0125205107033252716064453125">
        <ele>862</ele>
        <time>2026-08-21T19:54:02.000Z</time>
        <extensions>
          <ns3:TrackPointExtension>
            <ns3:hr>120</ns3:hr>
            <ns3:cad>70</ns3:cad>
          </ns3:TrackPointExtension>
        </extensions>
      </trkpt>
      <trkpt lat="45.342786312103271484375" lon="-71.01252512075006961822509765625">
        <ele>861.79998779296875</ele>
        <time>2026-08-21T19:54:03.000Z</time>
        <extensions>
          <ns3:TrackPointExtension>
            <ns3:hr>121</ns3:hr>
            <ns3:cad>71</ns3:cad>
          </ns3:TrackPointExtension>
        </extensions>
      </trkpt>
      <trkpt lat="45.34276829101145267486572265625" lon="-71.01252595894038677215576171875">
        <ele>861.5999755859375</ele>
        <time>2026-08-21T19:54:04.000Z</time>
        <extensions>
          <ns3:TrackPointExtension>
            <ns3:hr>121</ns3:hr>
            <ns3:cad>72</ns3:cad>
          </ns3:TrackPointExtension>
        </extensions>
      </trkpt>
      <trkpt lat="45.34275052137672901153564453125" lon="-71.01252344436943531036376953125">
        <ele>861.4000244140625</ele>
        <time>2026-08-21T19:54:05.000Z</time>
        <extensions>
          <ns3:TrackPointExtension>
            <ns3:hr>121</ns3:hr>
            <ns3:cad>73</ns3:cad>
          </ns3:TrackPointExtension>
        </extensions>
      </trkpt>
      <trkpt lat="45.3427338413894176483154296875" lon="-71.0125195048749446868896484375">
        <ele>861.20001220703125</ele>
        <time>2026-08-21T19:54:06.000Z</time>
        <extensions>
          <ns3:TrackPointExtension>
            <ns3:hr>120</ns3:hr>
            <ns3:cad>73</ns3:cad>
          </ns3:TrackPointExtension>
        </extensions>
      </trkpt>
      <trkpt lat="45.34271246753633022308349609375" lon="-71.0125171579420566558837890625">
        <ele>861</ele>
        <time>2026-08-21T19:54:07.000Z</time>
        <extensions>
          <ns3:TrackPointExtension>
            <ns3:hr>120</ns3:hr>
            <ns3:cad>74</ns3:cad>
          </ns3:TrackPointExtension>
        </extensions>
      </trkpt>
      <trkpt lat="45.342693440616130828857421875" lon="-71.01251405663788318634033203125">
        <ele>860.79998779296875</ele>
        <time>2026-08-21T19:54:08.000Z</time>
        <extensions>
          <ns3:TrackPointExtension>
            <ns3:hr>120</ns3:hr>
            <ns3:cad>74</ns3:cad>
          </ns3:TrackPointExtension>
        </extensions>
      </trkpt>
      <trkpt lat="45.34267307259142398834228515625" lon="-71.01251020096242427825927734375">
        <ele>860.5999755859375</ele>
        <time>2026-08-21T19:54:09.000Z</time>
        <extensions>
          <ns3:TrackPointExtension>
            <ns3:hr>120</ns3:hr>
            <ns3:cad>75</ns3:cad>
          </ns3:TrackPointExtension>
        </extensions>
      </trkpt>
      <trkpt lat="45.34265396185219287872314453125" lon="-71.01250399835407733917236328125">
        <ele>860.5999755859375</ele>
        <time>2026-08-21T19:54:10.000Z</time>
        <extensions>
          <ns3:TrackPointExtension>
            <ns3:hr>121</ns3:hr>
            <ns3:cad>75</ns3:cad>
          </ns3:TrackPointExtension>
        </extensions>
      </trkpt>
      <trkpt lat="45.3426345996558666229248046875" lon="-71.01249880157411098480224609375">
        <ele>860.5999755859375</ele>
        <time>2026-08-21T19:54:11.000Z</time>
        <extensions>
          <ns3:TrackPointExtension>
            <ns3:hr>120</ns3:hr>
            <ns3:cad>75</ns3:cad>
          </ns3:TrackPointExtension>
        </extensions>
      </trkpt>
      <trkpt lat="45.3426181711256504058837890625" lon="-71.01249595172703266143798828125">
        <ele>860.5999755859375</ele>
        <time>2026-08-21T19:54:12.000Z</time>
        <extensions>
          <ns3:TrackPointExtension>
            <ns3:hr>120</ns3:hr>
            <ns3:cad>76</ns3:cad>
          </ns3:TrackPointExtension>
        </extensions>
      </trkpt>
      <trkpt lat="45.34259897656738758087158203125" lon="-71.012497879564762115478515625">
        <ele>860.5999755859375</ele>
        <time>2026-08-21T19:54:13.000Z</time>
        <extensions>
          <ns3:TrackPointExtension>
            <ns3:hr>120</ns3:hr>
            <ns3:cad>76</ns3:cad>
          </ns3:TrackPointExtension>
        </extensions>
      </trkpt>
      <trkpt lat="45.34258036874234676361083984375" lon="-71.01249896921217441558837890625">
        <ele>860.4000244140625</ele>
        <time>2026-08-21T19:54:14.000Z</time>
        <extensions>
          <ns3:TrackPointExtension>
            <ns3:hr>121</ns3:hr>
            <ns3:cad>77</ns3:cad>
          </ns3:TrackPointExtension>
        </extensions>
      </trkpt>
      <trkpt lat="45.34256243146955966949462890625" lon="-71.01250131614506244659423828125">
        <ele>860.4000244140625</ele>
        <time>2026-08-21T19:54:15.000Z</time>
        <extensions>
          <ns3:TrackPointExtension>
            <ns3:hr>120</ns3:hr>
            <ns3:cad>77</ns3:cad>
          </ns3:TrackPointExtension>
        </extensions>
      </trkpt>
      <trkpt lat="45.342543907463550567626953125" lon="-71.01250567473471164703369140625">
        <ele>860.4000244140625</ele>
        <time>2026-08-21T19:54:16.000Z</time>
        <extensions>
          <ns3:TrackPointExtension>
            <ns3:hr>120</ns3:hr>
            <ns3:cad>77</ns3:cad>
          </ns3:TrackPointExtension>
        </extensions>
      </trkpt>
      <trkpt lat="45.3425246290862560272216796875" lon="-71.0125097818672657012939453125">
        <ele>860.4000244140625</ele>
        <time>2026-08-21T19:54:17.000Z</time>
        <extensions>
          <ns3:TrackPointExtension>
            <ns3:hr>120</ns3:hr>
            <ns3:cad>78</ns3:cad>
          </ns3:TrackPointExtension>
        </extensions>
      </trkpt>
      <trkpt lat="45.34250828437507152557373046875" lon="-71.0125188343226909637451171875">
        <ele>860.4000244140625</ele>
        <time>2026-08-21T19:54:18.000Z</time>
        <extensions>
          <ns3:TrackPointExtension>
            <ns3:hr>120</ns3:hr>
            <ns3:cad>78</ns3:cad>
          </ns3:TrackPointExtension>
        </extensions>
      </trkpt>
      <trkpt lat="45.34249369986355304718017578125" lon="-71.01252260617911815643310546875">
        <ele>860.4000244140625</ele>
        <time>2026-08-21T19:54:19.000Z</time>
        <extensions>
          <ns3:TrackPointExtension>
            <ns3:hr>120</ns3:hr>
            <ns3:cad>78</ns3:cad>
          </ns3:TrackPointExtension>
        </extensions>
      </trkpt>
      <trkpt lat="45.3424810431897640228271484375" lon="-71.01251740939915180206298828125">
        <ele>860.20001220703125</ele>
        <time>2026-08-21T19:54:20.000Z</time>
        <extensions>
          <ns3:TrackPointExtension>
            <ns3:hr>119</ns3:hr>
            <ns3:cad>78</ns3:cad>
          </ns3:TrackPointExtension>
        </extensions>
      </trkpt>
      <trkpt lat="45.342467129230499267578125" lon="-71.01251221261918544769287109375">
        <ele>860.20001220703125</ele>
        <time>2026-08-21T19:54:21.000Z</time>
        <extensions>
          <ns3:TrackPointExtension>
            <ns3:hr>119</ns3:hr>
            <ns3:cad>78</ns3:cad>
          </ns3:TrackPointExtension>
        </extensions>
      </trkpt>
      <trkpt lat="45.34245531074702739715576171875" lon="-71.01250827312469482421875">
        <ele>860.20001220703125</ele>
        <time>2026-08-21T19:54:22.000Z</time>
        <extensions>
          <ns3:TrackPointExtension>
            <ns3:hr>119</ns3:hr>
            <ns3:cad>78</ns3:cad>
          </ns3:TrackPointExtension>
        </extensions>
      </trkpt>
      <trkpt lat="45.3424401395022869110107421875" lon="-71.012502573430538177490234375">
        <ele>860</ele>
        <time>2026-08-21T19:54:23.000Z</time>
        <extensions>
          <ns3:TrackPointExtension>
            <ns3:hr>119</ns3:hr>
            <ns3:cad>78</ns3:cad>
          </ns3:TrackPointExtension>
        </extensions>
      </trkpt>
      <trkpt lat="45.34242379479110240936279296875" lon="-71.0125027410686016082763671875">
        <ele>860</ele>
        <time>2026-08-21T19:54:24.000Z</time>
        <extensions>
          <ns3:TrackPointExtension>
            <ns3:hr>119</ns3:hr>
            <ns3:cad>78</ns3:cad>
          </ns3:TrackPointExtension>
        </extensions>
      </trkpt>
      <trkpt lat="45.34240887500345706939697265625" lon="-71.0125020705163478851318359375">
        <ele>859.79998779296875</ele>
        <time>2026-08-21T19:54:25.000Z</time>
        <extensions>
          <ns3:TrackPointExtension>
            <ns3:hr>119</ns3:hr>
            <ns3:cad>78</ns3:cad>
          </ns3:TrackPointExtension>
        </extensions>
      </trkpt>
      <trkpt lat="45.3423975594341754913330078125" lon="-71.012499891221523284912109375">
        <ele>859.79998779296875</ele>
        <time>2026-08-21T19:54:26.000Z</time>
        <extensions>
          <ns3:TrackPointExtension>
            <ns3:hr>119</ns3:hr>
            <ns3:cad>78</ns3:cad>
          </ns3:TrackPointExtension>
        </extensions>
      </trkpt>
      <trkpt lat="45.34238154999911785125732421875" lon="-71.01250047795474529266357421875">
        <ele>859.5999755859375</ele>
        <time>2026-08-21T19:54:27.000Z</time>
        <extensions>
          <ns3:TrackPointExtension>
            <ns3:hr>120</ns3:hr>
            <ns3:cad>57</ns3:cad>
          </ns3:TrackPointExtension>
        </extensions>
      </trkpt>
      <trkpt lat="45.3423673845827579498291015625" lon="-71.0125003941357135772705078125">
        <ele>859.5999755859375</ele>
        <time>2026-08-21T19:54:28.000Z</time>
        <extensions>
          <ns3:TrackPointExtension>
            <ns3:hr>120</ns3:hr>
            <ns3:cad>57</ns3:cad>
          </ns3:TrackPointExtension>
        </extensions>
      </trkpt>
      <trkpt lat="45.3423546440899372100830078125" lon="-71.01249930448830127716064453125">
        <ele>859.4000244140625</ele>
        <time>2026-08-21T19:54:29.000Z</time>
        <extensions>
          <ns3:TrackPointExtension>
            <ns3:hr>120</ns3:hr>
            <ns3:cad>0</ns3:cad>
          </ns3:TrackPointExtension>
        </extensions>
      </trkpt>
      <trkpt lat="45.34234232269227504730224609375" lon="-71.0125000588595867156982421875">
        <ele>859.4000244140625</ele>
        <time>2026-08-21T19:54:30.000Z</time>
        <extensions>
          <ns3:TrackPointExtension>
            <ns3:hr>120</ns3:hr>
            <ns3:cad>0</ns3:cad>
          </ns3:TrackPointExtension>
        </extensions>
      </trkpt>
      <trkpt lat="45.34232840873301029205322265625" lon="-71.01250450126826763153076171875">
        <ele>859.20001220703125</ele>
        <time>2026-08-21T19:54:31.000Z</time>
        <extensions>
          <ns3:TrackPointExtension>
            <ns3:hr>119</ns3:hr>
            <ns3:cad>55</ns3:cad>
          </ns3:TrackPointExtension>
        </extensions>
      </trkpt>
      <trkpt lat="45.3423170931637287139892578125" lon="-71.01250684820115566253662109375">
        <ele>859.20001220703125</ele>
        <time>2026-08-21T19:54:32.000Z</time>
        <extensions>
          <ns3:TrackPointExtension>
            <ns3:hr>119</ns3:hr>
            <ns3:cad>56</ns3:cad>
          </ns3:TrackPointExtension>
        </extensions>
      </trkpt>
      <trkpt lat="45.342305861413478851318359375" lon="-71.01250533945858478546142578125">
        <ele>859</ele>
        <time>2026-08-21T19:54:33.000Z</time>
        <extensions>
          <ns3:TrackPointExtension>
            <ns3:hr>119</ns3:hr>
            <ns3:cad>56</ns3:cad>
          </ns3:TrackPointExtension>
        </extensions>
      </trkpt>
      <trkpt lat="45.3422932885587215423583984375" lon="-71.01250349543988704681396484375">
        <ele>859</ele>
        <time>2026-08-21T19:54:34.000Z</time>
        <extensions>
          <ns3:TrackPointExtension>
            <ns3:hr>120</ns3:hr>
            <ns3:cad>56</ns3:cad>
          </ns3:TrackPointExtension>
        </extensions>
      </trkpt>
      <trkpt lat="45.3422815538942813873291015625" lon="-71.01250399835407733917236328125">
        <ele>858.79998779296875</ele>
        <time>2026-08-21T19:54:35.000Z</time>
        <extensions>
          <ns3:TrackPointExtension>
            <ns3:hr>120</ns3:hr>
            <ns3:cad>56</ns3:cad>
          </ns3:TrackPointExtension>
        </extensions>
      </trkpt>
      <trkpt lat="45.34226789139211177825927734375" lon="-71.01250223815441131591796875">
        <ele>858.5999755859375</ele>
        <time>2026-08-21T19:54:36.000Z</time>
        <extensions>
          <ns3:TrackPointExtension>
            <ns3:hr>120</ns3:hr>
            <ns3:cad>56</ns3:cad>
          </ns3:TrackPointExtension>
        </extensions>
      </trkpt>
      <trkpt lat="45.34225515089929103851318359375" lon="-71.01250165142118930816650390625">
        <ele>858.5999755859375</ele>
        <time>2026-08-21T19:54:37.000Z</time>
        <extensions>
          <ns3:TrackPointExtension>
            <ns3:hr>119</ns3:hr>
            <ns3:cad>56</ns3:cad>
          </ns3:TrackPointExtension>
        </extensions>
      </trkpt>
      <trkpt lat="45.34224006347358226776123046875" lon="-71.01250349543988704681396484375">
        <ele>858.5999755859375</ele>
        <time>2026-08-21T19:54:38.000Z</time>
        <extensions>
          <ns3:TrackPointExtension>
            <ns3:hr>118</ns3:hr>
            <ns3:cad>56</ns3:cad>
          </ns3:TrackPointExtension>
        </extensions>
      </trkpt>
      <trkpt lat="45.34222648479044437408447265625" lon="-71.01250031031668186187744140625">
        <ele>858.5999755859375</ele>
        <time>2026-08-21T19:54:39.000Z</time>
        <extensions>
          <ns3:TrackPointExtension>
            <ns3:hr>118</ns3:hr>
            <ns3:cad>57</ns3:cad>
          </ns3:TrackPointExtension>
        </extensions>
      </trkpt>
      <trkpt lat="45.34221424721181392669677734375" lon="-71.0124993883073329925537109375">
        <ele>858.5999755859375</ele>
        <time>2026-08-21T19:54:40.000Z</time>
        <extensions>
          <ns3:TrackPointExtension>
            <ns3:hr>118</ns3:hr>
            <ns3:cad>57</ns3:cad>
          </ns3:TrackPointExtension>
        </extensions>
      </trkpt>
      <trkpt lat="45.34220091998577117919921875" lon="-71.0124993883073329925537109375">
        <ele>858.4000244140625</ele>
        <time>2026-08-21T19:54:41.000Z</time>
        <extensions>
          <ns3:TrackPointExtension>
            <ns3:hr>118</ns3:hr>
            <ns3:cad>55</ns3:cad>
          </ns3:TrackPointExtension>
        </extensions>
      </trkpt>
      <trkpt lat="45.34218859858810901641845703125" lon="-71.0124997235834598541259765625">
        <ele>858.4000244140625</ele>
        <time>2026-08-21T19:54:42.000Z</time>
        <extensions>
          <ns3:TrackPointExtension>
            <ns3:hr>118</ns3:hr>
            <ns3:cad>55</ns3:cad>
          </ns3:TrackPointExtension>
        </extensions>
      </trkpt>
      <trkpt lat="45.34217678010463714599609375" lon="-71.01249829865992069244384765625">
        <ele>858.20001220703125</ele>
        <time>2026-08-21T19:54:43.000Z</time>
        <extensions>
          <ns3:TrackPointExtension>
            <ns3:hr>117</ns3:hr>
            <ns3:cad>55</ns3:cad>
          </ns3:TrackPointExtension>
        </extensions>
      </trkpt>
      <trkpt lat="45.3421618603169918060302734375" lon="-71.0124953649938106536865234375">
        <ele>858.20001220703125</ele>
        <time>2026-08-21T19:54:44.000Z</time>
        <extensions>
          <ns3:TrackPointExtension>
            <ns3:hr>117</ns3:hr>
            <ns3:cad>54</ns3:cad>
          </ns3:TrackPointExtension>
        </extensions>
      </trkpt>
      <trkpt lat="45.34214861690998077392578125" lon="-71.01249259896576404571533203125">
        <ele>858.20001220703125</ele>
        <time>2026-08-21T19:54:45.000Z</time>
        <extensions>
          <ns3:TrackPointExtension>
            <ns3:hr>117</ns3:hr>
            <ns3:cad>54</ns3:cad>
          </ns3:TrackPointExtension>
        </extensions>
      </trkpt>
      <trkpt lat="45.342135541141033172607421875" lon="-71.01248882710933685302734375">
        <ele>858</ele>
        <time>2026-08-21T19:54:46.000Z</time>
        <extensions>
          <ns3:TrackPointExtension>
            <ns3:hr>116</ns3:hr>
            <ns3:cad>55</ns3:cad>
          </ns3:TrackPointExtension>
        </extensions>
      </trkpt>
      <trkpt lat="45.34212171100080013275146484375" lon="-71.012487821280956268310546875">
        <ele>858</ele>
        <time>2026-08-21T19:54:47.000Z</time>
        <extensions>
          <ns3:TrackPointExtension>
            <ns3:hr>115</ns3:hr>
            <ns3:cad>55</ns3:cad>
          </ns3:TrackPointExtension>
        </extensions>
      </trkpt>
      <trkpt lat="45.3421062044799327850341796875" lon="-71.01248622871935367584228515625">
        <ele>858</ele>
        <time>2026-08-21T19:54:48.000Z</time>
        <extensions>
          <ns3:TrackPointExtension>
            <ns3:hr>115</ns3:hr>
            <ns3:cad>56</ns3:cad>
          </ns3:TrackPointExtension>
        </extensions>
      </trkpt>
      <trkpt lat="45.34209363162517547607421875" lon="-71.01248824037611484527587890625">
        <ele>857.79998779296875</ele>
        <time>2026-08-21T19:54:49.000Z</time>
        <extensions>
          <ns3:TrackPointExtension>
            <ns3:hr>115</ns3:hr>
            <ns3:cad>56</ns3:cad>
          </ns3:TrackPointExtension>
        </extensions>
      </trkpt>
      <trkpt lat="45.342078544199466705322265625" lon="-71.01248656399548053741455078125">
        <ele>857.79998779296875</ele>
        <time>2026-08-21T19:54:50.000Z</time>
        <extensions>
          <ns3:TrackPointExtension>
            <ns3:hr>116</ns3:hr>
            <ns3:cad>56</ns3:cad>
          </ns3:TrackPointExtension>
        </extensions>
      </trkpt>
      <trkpt lat="45.3420612774789333343505859375" lon="-71.0124900005757808685302734375">
        <ele>857.79998779296875</ele>
        <time>2026-08-21T19:54:51.000Z</time>
        <extensions>
          <ns3:TrackPointExtension>
            <ns3:hr>117</ns3:hr>
            <ns3:cad>56</ns3:cad>
          </ns3:TrackPointExtension>
        </extensions>
      </trkpt>
      <trkpt lat="45.3420465253293514251708984375" lon="-71.01249075494706630706787109375">
        <ele>857.79998779296875</ele>
        <time>2026-08-21T19:54:52.000Z</time>
        <extensions>
          <ns3:TrackPointExtension>
            <ns3:hr>117</ns3:hr>
            <ns3:cad>56</ns3:cad>
          </ns3:TrackPointExtension>
        </extensions>
      </trkpt>
      <trkpt lat="45.34203185699880123138427734375" lon="-71.01249226368963718414306640625">
        <ele>857.5999755859375</ele>
        <time>2026-08-21T19:54:53.000Z</time>
        <extensions>
          <ns3:TrackPointExtension>
            <ns3:hr>117</ns3:hr>
            <ns3:cad>56</ns3:cad>
          </ns3:TrackPointExtension>
        </extensions>
      </trkpt>
      <trkpt lat="45.342015512287616729736328125" lon="-71.0124906711280345916748046875">
        <ele>857.5999755859375</ele>
        <time>2026-08-21T19:54:54.000Z</time>
        <extensions>
          <ns3:TrackPointExtension>
            <ns3:hr>117</ns3:hr>
            <ns3:cad>56</ns3:cad>
          </ns3:TrackPointExtension>
        </extensions>
      </trkpt>
      <trkpt lat="45.34200218506157398223876953125" lon="-71.0124889947474002838134765625">
        <ele>857.5999755859375</ele>
        <time>2026-08-21T19:54:55.000Z</time>
        <extensions>
          <ns3:TrackPointExtension>
            <ns3:hr>117</ns3:hr>
            <ns3:cad>56</ns3:cad>
          </ns3:TrackPointExtension>
        </extensions>
      </trkpt>
      <trkpt lat="45.3419885225594043731689453125" lon="-71.01248756982386112213134765625">
        <ele>857.4000244140625</ele>
        <time>2026-08-21T19:54:56.000Z</time>
        <extensions>
          <ns3:TrackPointExtension>
            <ns3:hr>117</ns3:hr>
            <ns3:cad>57</ns3:cad>
          </ns3:TrackPointExtension>
        </extensions>
      </trkpt>
      <trkpt lat="45.34197737462818622589111328125" lon="-71.012491174042224884033203125">
        <ele>857.4000244140625</ele>
        <time>2026-08-21T19:54:57.000Z</time>
        <extensions>
          <ns3:TrackPointExtension>
            <ns3:hr>117</ns3:hr>
            <ns3:cad>57</ns3:cad>
          </ns3:TrackPointExtension>
        </extensions>
      </trkpt>
      <trkpt lat="45.341963879764080047607421875" lon="-71.01250081323087215423583984375">
        <ele>857.4000244140625</ele>
        <time>2026-08-21T19:54:58.000Z</time>
        <extensions>
          <ns3:TrackPointExtension>
            <ns3:hr>117</ns3:hr>
            <ns3:cad>57</ns3:cad>
          </ns3:TrackPointExtension>
        </extensions>
      </trkpt>
      <trkpt lat="45.34195189364254474639892578125" lon="-71.012505255639553070068359375">
        <ele>857.4000244140625</ele>
        <time>2026-08-21T19:54:59.000Z</time>
        <extensions>
          <ns3:TrackPointExtension>
            <ns3:hr>116</ns3:hr>
            <ns3:cad>57</ns3:cad>
          </ns3:TrackPointExtension>
        </extensions>
      </trkpt>
      <trkpt lat="45.34193764440715312957763671875" lon="-71.01251221261918544769287109375">
        <ele>857.4000244140625</ele>
        <time>2026-08-21T19:55:00.000Z</time>
        <extensions>
          <ns3:TrackPointExtension>
            <ns3:hr>116</ns3:hr>
            <ns3:cad>57</ns3:cad>
          </ns3:TrackPointExtension>
        </extensions>
      </trkpt>
      <trkpt lat="45.3419224731624126434326171875" lon="-71.0125188343226909637451171875">
        <ele>857.4000244140625</ele>
        <time>2026-08-21T19:55:01.000Z</time>
        <extensions>
          <ns3:TrackPointExtension>
            <ns3:hr>116</ns3:hr>
            <ns3:cad>57</ns3:cad>
          </ns3:TrackPointExtension>
        </extensions>
      </trkpt>
      <trkpt lat="45.341904871165752410888671875" lon="-71.01251925341784954071044921875">
        <ele>857.4000244140625</ele>
        <time>2026-08-21T19:55:02.000Z</time>
        <extensions>
          <ns3:TrackPointExtension>
            <ns3:hr>116</ns3:hr>
            <ns3:cad>57</ns3:cad>
          </ns3:TrackPointExtension>
        </extensions>
      </trkpt>
      <trkpt lat="45.34188869409263134002685546875" lon="-71.0125138051807880401611328125">
        <ele>857.4000244140625</ele>
        <time>2026-08-21T19:55:03.000Z</time>
        <extensions>
          <ns3:TrackPointExtension>
            <ns3:hr>116</ns3:hr>
            <ns3:cad>0</ns3:cad>
          </ns3:TrackPointExtension>
        </extensions>
      </trkpt>
      <trkpt lat="45.3418644703924655914306640625" lon="-71.0125074349343776702880859375">
        <ele>857.4000244140625</ele>
        <time>2026-08-21T19:55:04.000Z</time>
        <extensions>
          <ns3:TrackPointExtension>
            <ns3:hr>116</ns3:hr>
            <ns3:cad>0</ns3:cad>
          </ns3:TrackPointExtension>
        </extensions>
      </trkpt>
      <trkpt lat="45.34184494055807590484619140625" lon="-71.01250299252569675445556640625">
        <ele>857.20001220703125</ele>
        <time>2026-08-21T19:55:05.000Z</time>
        <extensions>
          <ns3:TrackPointExtension>
            <ns3:hr>116</ns3:hr>
            <ns3:cad>0</ns3:cad>
          </ns3:TrackPointExtension>
        </extensions>
      </trkpt>
      <trkpt lat="45.34182700328528881072998046875" lon="-71.01249729283154010772705078125">
        <ele>857.20001220703125</ele>
        <time>2026-08-21T19:55:06.000Z</time>
        <extensions>
          <ns3:TrackPointExtension>
            <ns3:hr>115</ns3:hr>
            <ns3:cad>75</ns3:cad>
          </ns3:TrackPointExtension>
        </extensions>
      </trkpt>
      <trkpt lat="45.34180453978478908538818359375" lon="-71.01249310187995433807373046875">
        <ele>857.20001220703125</ele>
        <time>2026-08-21T19:55:07.000Z</time>
        <extensions>
          <ns3:TrackPointExtension>
            <ns3:hr>115</ns3:hr>
            <ns3:cad>75</ns3:cad>
          </ns3:TrackPointExtension>
        </extensions>
      </trkpt>
      <trkpt lat="45.3417846746742725372314453125" lon="-71.01249243132770061492919921875">
        <ele>857.20001220703125</ele>
        <time>2026-08-21T19:55:08.000Z</time>
        <extensions>
          <ns3:TrackPointExtension>
            <ns3:hr>115</ns3:hr>
            <ns3:cad>77</ns3:cad>
          </ns3:TrackPointExtension>
        </extensions>
      </trkpt>
      <trkpt lat="45.34175978042185306549072265625" lon="-71.01249419152736663818359375">
        <ele>857</ele>
        <time>2026-08-21T19:55:09.000Z</time>
        <extensions>
          <ns3:TrackPointExtension>
            <ns3:hr>115</ns3:hr>
            <ns3:cad>77</ns3:cad>
          </ns3:TrackPointExtension>
        </extensions>
      </trkpt>
      <trkpt lat="45.34173681400716304779052734375" lon="-71.012494862079620361328125">
        <ele>857</ele>
        <time>2026-08-21T19:55:10.000Z</time>
        <extensions>
          <ns3:TrackPointExtension>
            <ns3:hr>114</ns3:hr>
            <ns3:cad>77</ns3:cad>
          </ns3:TrackPointExtension>
        </extensions>
      </trkpt>
      <trkpt lat="45.3417152725160121917724609375" lon="-71.01249217987060546875">
        <ele>857</ele>
        <time>2026-08-21T19:55:11.000Z</time>
        <extensions>
          <ns3:TrackPointExtension>
            <ns3:hr>114</ns3:hr>
            <ns3:cad>77</ns3:cad>
          </ns3:TrackPointExtension>
        </extensions>
      </trkpt>
      <trkpt lat="45.34169130027294158935546875" lon="-71.01249444298446178436279296875">
        <ele>857</ele>
        <time>2026-08-21T19:55:12.000Z</time>
        <extensions>
          <ns3:TrackPointExtension>
            <ns3:hr>113</ns3:hr>
            <ns3:cad>77</ns3:cad>
          </ns3:TrackPointExtension>
        </extensions>
      </trkpt>
      <trkpt lat="45.34166607074439525604248046875" lon="-71.01249880157411098480224609375">
        <ele>857</ele>
        <time>2026-08-21T19:55:13.000Z</time>
        <extensions>
          <ns3:TrackPointExtension>
            <ns3:hr>113</ns3:hr>
            <ns3:cad>78</ns3:cad>
          </ns3:TrackPointExtension>
        </extensions>
      </trkpt>
      <trkpt lat="45.341645367443561553955078125" lon="-71.0124988853931427001953125">
        <ele>856.79998779296875</ele>
        <time>2026-08-21T19:55:14.000Z</time>
        <extensions>
          <ns3:TrackPointExtension>
            <ns3:hr>114</ns3:hr>
            <ns3:cad>78</ns3:cad>
          </ns3:TrackPointExtension>
        </extensions>
      </trkpt>
      <trkpt lat="45.3416208922863006591796875" lon="-71.012497209012508392333984375">
        <ele>856.79998779296875</ele>
        <time>2026-08-21T19:55:15.000Z</time>
        <extensions>
          <ns3:TrackPointExtension>
            <ns3:hr>115</ns3:hr>
            <ns3:cad>78</ns3:cad>
          </ns3:TrackPointExtension>
        </extensions>
      </trkpt>
      <trkpt lat="45.34159566275775432586669921875" lon="-71.01249326951801776885986328125">
        <ele>856.5999755859375</ele>
        <time>2026-08-21T19:55:16.000Z</time>
        <extensions>
          <ns3:TrackPointExtension>
            <ns3:hr>116</ns3:hr>
            <ns3:cad>78</ns3:cad>
          </ns3:TrackPointExtension>
        </extensions>
      </trkpt>
      <trkpt lat="45.341575630009174346923828125" lon="-71.01249796338379383087158203125">
        <ele>856.5999755859375</ele>
        <time>2026-08-21T19:55:17.000Z</time>
        <extensions>
          <ns3:TrackPointExtension>
            <ns3:hr>117</ns3:hr>
            <ns3:cad>78</ns3:cad>
          </ns3:TrackPointExtension>
        </extensions>
      </trkpt>
      <trkpt lat="45.34154972992837429046630859375" lon="-71.0125034116208553314208984375">
        <ele>856.5999755859375</ele>
        <time>2026-08-21T19:55:18.000Z</time>
        <extensions>
          <ns3:TrackPointExtension>
            <ns3:hr>117</ns3:hr>
            <ns3:cad>76</ns3:cad>
          </ns3:TrackPointExtension>
        </extensions>
      </trkpt>
      <trkpt lat="45.341524668037891387939453125" lon="-71.01250215433537960052490234375">
        <ele>856.4000244140625</ele>
        <time>2026-08-21T19:55:19.000Z</time>
        <extensions>
          <ns3:TrackPointExtension>
            <ns3:hr>118</ns3:hr>
            <ns3:cad>76</ns3:cad>
          </ns3:TrackPointExtension>
        </extensions>
      </trkpt>
      <trkpt lat="45.3415020368993282318115234375" lon="-71.0125013999640941619873046875">
        <ele>856.20001220703125</ele>
        <time>2026-08-21T19:55:20.000Z</time>
        <extensions>
          <ns3:TrackPointExtension>
            <ns3:hr>118</ns3:hr>
            <ns3:cad>78</ns3:cad>
          </ns3:TrackPointExtension>
        </extensions>
      </trkpt>
      <trkpt lat="45.341481082141399383544921875" lon="-71.0124990530312061309814453125">
        <ele>856.20001220703125</ele>
        <time>2026-08-21T19:55:21.000Z</time>
        <extensions>
          <ns3:TrackPointExtension>
            <ns3:hr>118</ns3:hr>
            <ns3:cad>78</ns3:cad>
          </ns3:TrackPointExtension>
        </extensions>
      </trkpt>
      <trkpt lat="45.3414581157267093658447265625" lon="-71.01249528117477893829345703125">
        <ele>856</ele>
        <time>2026-08-21T19:55:22.000Z</time>
        <extensions>
          <ns3:TrackPointExtension>
            <ns3:hr>117</ns3:hr>
            <ns3:cad>80</ns3:cad>
          </ns3:TrackPointExtension>
        </extensions>
      </trkpt>
      <trkpt lat="45.3414383344352245330810546875" lon="-71.0124962031841278076171875">
        <ele>855.79998779296875</ele>
        <time>2026-08-21T19:55:23.000Z</time>
        <extensions>
          <ns3:TrackPointExtension>
            <ns3:hr>117</ns3:hr>
            <ns3:cad>80</ns3:cad>
          </ns3:TrackPointExtension>
        </extensions>
      </trkpt>
      <trkpt lat="45.34141863696277141571044921875" lon="-71.0125027410686016082763671875">
        <ele>855.79998779296875</ele>
        <time>2026-08-21T19:55:24.000Z</time>
        <extensions>
          <ns3:TrackPointExtension>
            <ns3:hr>117</ns3:hr>
            <ns3:cad>80</ns3:cad>
          </ns3:TrackPointExtension>
        </extensions>
      </trkpt>
      <trkpt lat="45.3413981013000011444091796875" lon="-71.01250634528696537017822265625">
        <ele>855.79998779296875</ele>
        <time>2026-08-21T19:55:25.000Z</time>
        <extensions>
          <ns3:TrackPointExtension>
            <ns3:hr>117</ns3:hr>
            <ns3:cad>80</ns3:cad>
          </ns3:TrackPointExtension>
        </extensions>
      </trkpt>
      <trkpt lat="45.3413796611130237579345703125" lon="-71.01250533945858478546142578125">
        <ele>856</ele>
        <time>2026-08-21T19:55:26.000Z</time>
        <extensions>
          <ns3:TrackPointExtension>
            <ns3:hr>118</ns3:hr>
            <ns3:cad>80</ns3:cad>
          </ns3:TrackPointExtension>
        </extensions>
      </trkpt>
      <trkpt lat="45.341357700526714324951171875" lon="-71.01250483654439449310302734375">
        <ele>856</ele>
        <time>2026-08-21T19:55:27.000Z</time>
        <extensions>
          <ns3:TrackPointExtension>
            <ns3:hr>118</ns3:hr>
            <ns3:cad>78</ns3:cad>
          </ns3:TrackPointExtension>
        </extensions>
      </trkpt>
      <trkpt lat="45.341337583959102630615234375" lon="-71.0125003941357135772705078125">
        <ele>856</ele>
        <time>2026-08-21T19:55:28.000Z</time>
        <extensions>
          <ns3:TrackPointExtension>
            <ns3:hr>118</ns3:hr>
            <ns3:cad>78</ns3:cad>
          </ns3:TrackPointExtension>
        </extensions>
      </trkpt>
      <trkpt lat="45.3413203172385692596435546875" lon="-71.01249276660382747650146484375">
        <ele>856</ele>
        <time>2026-08-21T19:55:29.000Z</time>
        <extensions>
          <ns3:TrackPointExtension>
            <ns3:hr>119</ns3:hr>
            <ns3:cad>78</ns3:cad>
          </ns3:TrackPointExtension>
        </extensions>
      </trkpt>
      <trkpt lat="45.34129835665225982666015625" lon="-71.012484468519687652587890625">
        <ele>856</ele>
        <time>2026-08-21T19:55:30.000Z</time>
        <extensions>
          <ns3:TrackPointExtension>
            <ns3:hr>119</ns3:hr>
            <ns3:cad>78</ns3:cad>
          </ns3:TrackPointExtension>
        </extensions>
      </trkpt>
      <trkpt lat="45.34127765335142612457275390625" lon="-71.01247667334973812103271484375">
        <ele>856</ele>
        <time>2026-08-21T19:55:31.000Z</time>
        <extensions>
          <ns3:TrackPointExtension>
            <ns3:hr>120</ns3:hr>
            <ns3:cad>78</ns3:cad>
          </ns3:TrackPointExtension>
        </extensions>
      </trkpt>
      <trkpt lat="45.34125678241252899169921875" lon="-71.0124685429036617279052734375">
        <ele>856.20001220703125</ele>
        <time>2026-08-21T19:55:32.000Z</time>
        <extensions>
          <ns3:TrackPointExtension>
            <ns3:hr>121</ns3:hr>
            <ns3:cad>78</ns3:cad>
          </ns3:TrackPointExtension>
        </extensions>
      </trkpt>
      <trkpt lat="45.3412358276546001434326171875" lon="-71.012458316981792449951171875">
        <ele>856.20001220703125</ele>
        <time>2026-08-21T19:55:33.000Z</time>
        <extensions>
          <ns3:TrackPointExtension>
            <ns3:hr>122</ns3:hr>
            <ns3:cad>78</ns3:cad>
          </ns3:TrackPointExtension>
        </extensions>
      </trkpt>
      <trkpt lat="45.34121998585760593414306640625" lon="-71.01244046352803707122802734375">
        <ele>856.20001220703125</ele>
        <time>2026-08-21T19:55:34.000Z</time>
        <extensions>
          <ns3:TrackPointExtension>
            <ns3:hr>123</ns3:hr>
            <ns3:cad>78</ns3:cad>
          </ns3:TrackPointExtension>
        </extensions>
      </trkpt>
      <trkpt lat="45.34120221622288227081298828125" lon="-71.01242579519748687744140625">
        <ele>856.4000244140625</ele>
        <time>2026-08-21T19:55:35.000Z</time>
        <extensions>
          <ns3:TrackPointExtension>
            <ns3:hr>123</ns3:hr>
            <ns3:cad>79</ns3:cad>
          </ns3:TrackPointExtension>
        </extensions>
      </trkpt>
      <trkpt lat="45.34118092618882656097412109375" lon="-71.01241062395274639129638671875">
        <ele>856.20001220703125</ele>
        <time>2026-08-21T19:55:36.000Z</time>
        <extensions>
          <ns3:TrackPointExtension>
            <ns3:hr>124</ns3:hr>
            <ns3:cad>79</ns3:cad>
          </ns3:TrackPointExtension>
        </extensions>
      </trkpt>
      <trkpt lat="45.34116634167730808258056640625" lon="-71.01239226758480072021484375">
        <ele>856.20001220703125</ele>
        <time>2026-08-21T19:55:37.000Z</time>
        <extensions>
          <ns3:TrackPointExtension>
            <ns3:hr>124</ns3:hr>
            <ns3:cad>79</ns3:cad>
          </ns3:TrackPointExtension>
        </extensions>
      </trkpt>
      <trkpt lat="45.34114840440452098846435546875" lon="-71.0123672895133495330810546875">
        <ele>856.20001220703125</ele>
        <time>2026-08-21T19:55:38.000Z</time>
        <extensions>
          <ns3:TrackPointExtension>
            <ns3:hr>124</ns3:hr>
            <ns3:cad>78</ns3:cad>
          </ns3:TrackPointExtension>
        </extensions>
      </trkpt>
      <trkpt lat="45.34113742411136627197265625" lon="-71.01235496811568737030029296875">
        <ele>856.20001220703125</ele>
        <time>2026-08-21T19:55:39.000Z</time>
        <extensions>
          <ns3:TrackPointExtension>
            <ns3:hr>124</ns3:hr>
            <ns3:cad>78</ns3:cad>
          </ns3:TrackPointExtension>
        </extensions>
      </trkpt>
      <trkpt lat="45.3411198221147060394287109375" lon="-71.01233518682420253753662109375">
        <ele>856.20001220703125</ele>
        <time>2026-08-21T19:55:40.000Z</time>
        <extensions>
          <ns3:TrackPointExtension>
            <ns3:hr>124</ns3:hr>
            <ns3:cad>78</ns3:cad>
          </ns3:TrackPointExtension>
        </extensions>
      </trkpt>
      <trkpt lat="45.3411023877561092376708984375" lon="-71.01232110522687435150146484375">
        <ele>856.4000244140625</ele>
        <time>2026-08-21T19:55:41.000Z</time>
        <extensions>
          <ns3:TrackPointExtension>
            <ns3:hr>124</ns3:hr>
            <ns3:cad>78</ns3:cad>
          </ns3:TrackPointExtension>
        </extensions>
      </trkpt>
      <trkpt lat="45.34108101390302181243896484375" lon="-71.012304089963436126708984375">
        <ele>856.5999755859375</ele>
        <time>2026-08-21T19:55:42.000Z</time>
        <extensions>
          <ns3:TrackPointExtension>
            <ns3:hr>124</ns3:hr>
            <ns3:cad>78</ns3:cad>
          </ns3:TrackPointExtension>
        </extensions>
      </trkpt>
      <trkpt lat="45.34106500446796417236328125" lon="-71.012287996709346771240234375">
        <ele>856.79998779296875</ele>
        <time>2026-08-21T19:55:43.000Z</time>
        <extensions>
          <ns3:TrackPointExtension>
            <ns3:hr>125</ns3:hr>
            <ns3:cad>78</ns3:cad>
          </ns3:TrackPointExtension>
        </extensions>
      </trkpt>
      <trkpt lat="45.34104882739484310150146484375" lon="-71.0122734121978282928466796875">
        <ele>857</ele>
        <time>2026-08-21T19:55:44.000Z</time>
        <extensions>
          <ns3:TrackPointExtension>
            <ns3:hr>126</ns3:hr>
            <ns3:cad>78</ns3:cad>
          </ns3:TrackPointExtension>
        </extensions>
      </trkpt>
      <trkpt lat="45.3410303033888339996337890625" lon="-71.01225120015442371368408203125">
        <ele>857.20001220703125</ele>
        <time>2026-08-21T19:55:45.000Z</time>
        <extensions>
          <ns3:TrackPointExtension>
            <ns3:hr>126</ns3:hr>
            <ns3:cad>78</ns3:cad>
          </ns3:TrackPointExtension>
        </extensions>
      </trkpt>
      <trkpt lat="45.3410125337541103363037109375" lon="-71.012233681976795196533203125">
        <ele>857.20001220703125</ele>
        <time>2026-08-21T19:55:46.000Z</time>
        <extensions>
          <ns3:TrackPointExtension>
            <ns3:hr>127</ns3:hr>
            <ns3:cad>78</ns3:cad>
          </ns3:TrackPointExtension>
        </extensions>
      </trkpt>
      <trkpt lat="45.3409961052238941192626953125" lon="-71.01221968419849872589111328125">
        <ele>857.4000244140625</ele>
        <time>2026-08-21T19:55:47.000Z</time>
        <extensions>
          <ns3:TrackPointExtension>
            <ns3:hr>129</ns3:hr>
            <ns3:cad>79</ns3:cad>
          </ns3:TrackPointExtension>
        </extensions>
      </trkpt>
      <trkpt lat="45.34097607247531414031982421875" lon="-71.0121966339647769927978515625">
        <ele>857.4000244140625</ele>
        <time>2026-08-21T19:55:48.000Z</time>
        <extensions>
          <ns3:TrackPointExtension>
            <ns3:hr>129</ns3:hr>
            <ns3:cad>79</ns3:cad>
          </ns3:TrackPointExtension>
        </extensions>
      </trkpt>
      <trkpt lat="45.34095495007932186126708984375" lon="-71.012184061110019683837890625">
        <ele>857.4000244140625</ele>
        <time>2026-08-21T19:55:49.000Z</time>
        <extensions>
          <ns3:TrackPointExtension>
            <ns3:hr>129</ns3:hr>
            <ns3:cad>78</ns3:cad>
          </ns3:TrackPointExtension>
        </extensions>
      </trkpt>
      <trkpt lat="45.34093667753040790557861328125" lon="-71.01217576302587985992431640625">
        <ele>857.5999755859375</ele>
        <time>2026-08-21T19:55:50.000Z</time>
        <extensions>
          <ns3:TrackPointExtension>
            <ns3:hr>130</ns3:hr>
            <ns3:cad>78</ns3:cad>
          </ns3:TrackPointExtension>
        </extensions>
      </trkpt>
      <trkpt lat="45.34091480076313018798828125" lon="-71.0121644474565982818603515625">
        <ele>857.5999755859375</ele>
        <time>2026-08-21T19:55:51.000Z</time>
        <extensions>
          <ns3:TrackPointExtension>
            <ns3:hr>130</ns3:hr>
            <ns3:cad>78</ns3:cad>
          </ns3:TrackPointExtension>
        </extensions>
      </trkpt>
      <trkpt lat="45.34089728258550167083740234375" lon="-71.0121577419340610504150390625">
        <ele>857.79998779296875</ele>
        <time>2026-08-21T19:55:52.000Z</time>
        <extensions>
          <ns3:TrackPointExtension>
            <ns3:hr>130</ns3:hr>
            <ns3:cad>78</ns3:cad>
          </ns3:TrackPointExtension>
        </extensions>
      </trkpt>
      <trkpt lat="45.34088253043591976165771484375" lon="-71.01214625872671604156494140625">
        <ele>857.79998779296875</ele>
        <time>2026-08-21T19:55:53.000Z</time>
        <extensions>
          <ns3:TrackPointExtension>
            <ns3:hr>130</ns3:hr>
            <ns3:cad>78</ns3:cad>
          </ns3:TrackPointExtension>
        </extensions>
      </trkpt>
      <trkpt lat="45.34087280742824077606201171875" lon="-71.01214290596544742584228515625">
        <ele>858</ele>
        <time>2026-08-21T19:55:54.000Z</time>
        <extensions>
          <ns3:TrackPointExtension>
            <ns3:hr>131</ns3:hr>
            <ns3:cad>78</ns3:cad>
          </ns3:TrackPointExtension>
        </extensions>
      </trkpt>
      <trkpt lat="45.34085805527865886688232421875" lon="-71.01212798617780208587646484375">
        <ele>858.20001220703125</ele>
        <time>2026-08-21T19:55:55.000Z</time>
        <extensions>
          <ns3:TrackPointExtension>
            <ns3:hr>131</ns3:hr>
            <ns3:cad>78</ns3:cad>
          </ns3:TrackPointExtension>
        </extensions>
      </trkpt>
      <trkpt lat="45.34084984101355075836181640625" lon="-71.01211558096110820770263671875">
        <ele>858.4000244140625</ele>
        <time>2026-08-21T19:55:56.000Z</time>
        <extensions>
          <ns3:TrackPointExtension>
            <ns3:hr>131</ns3:hr>
            <ns3:cad>78</ns3:cad>
          </ns3:TrackPointExtension>
        </extensions>
      </trkpt>
      <trkpt lat="45.3408405371010303497314453125" lon="-71.012102253735065460205078125">
        <ele>858.79998779296875</ele>
        <time>2026-08-21T19:55:57.000Z</time>
        <extensions>
          <ns3:TrackPointExtension>
            <ns3:hr>132</ns3:hr>
            <ns3:cad>78</ns3:cad>
          </ns3:TrackPointExtension>
        </extensions>
      </trkpt>
      <trkpt lat="45.3408304788172245025634765625" lon="-71.01208917796611785888671875">
        <ele>859</ele>
        <time>2026-08-21T19:55:58.000Z</time>
        <extensions>
          <ns3:TrackPointExtension>
            <ns3:hr>133</ns3:hr>
            <ns3:cad>78</ns3:cad>
          </ns3:TrackPointExtension>
        </extensions>
      </trkpt>
      <trkpt lat="45.34082318656146526336669921875" lon="-71.01208205334842205047607421875">
        <ele>859.20001220703125</ele>
        <time>2026-08-21T19:55:59.000Z</time>
        <extensions>
          <ns3:TrackPointExtension>
            <ns3:hr>133</ns3:hr>
            <ns3:cad>0</ns3:cad>
          </ns3:TrackPointExtension>
        </extensions>
      </trkpt>
      <trkpt lat="45.34081631340086460113525390625" lon="-71.0120688937604427337646484375">
        <ele>859.4000244140625</ele>
        <time>2026-08-21T19:56:00.000Z</time>
        <extensions>
          <ns3:TrackPointExtension>
            <ns3:hr>134</ns3:hr>
            <ns3:cad>54</ns3:cad>
          </ns3:TrackPointExtension>
        </extensions>
      </trkpt>
      <trkpt lat="45.34081195481121540069580078125" lon="-71.0120524652302265167236328125">
        <ele>859.4000244140625</ele>
        <time>2026-08-21T19:56:01.000Z</time>
        <extensions>
          <ns3:TrackPointExtension>
            <ns3:hr>134</ns3:hr>
            <ns3:cad>54</ns3:cad>
          </ns3:TrackPointExtension>
        </extensions>
      </trkpt>
      <trkpt lat="45.34080692566931247711181640625" lon="-71.012037210166454315185546875">
        <ele>859.5999755859375</ele>
        <time>2026-08-21T19:56:02.000Z</time>
        <extensions>
          <ns3:TrackPointExtension>
            <ns3:hr>135</ns3:hr>
            <ns3:cad>54</ns3:cad>
          </ns3:TrackPointExtension>
        </extensions>
      </trkpt>
      <trkpt lat="45.34080089069902896881103515625" lon="-71.01201835088431835174560546875">
        <ele>859.5999755859375</ele>
        <time>2026-08-21T19:56:03.000Z</time>
        <extensions>
          <ns3:TrackPointExtension>
            <ns3:hr>136</ns3:hr>
            <ns3:cad>54</ns3:cad>
          </ns3:TrackPointExtension>
        </extensions>
      </trkpt>
      <trkpt lat="45.34079569391906261444091796875" lon="-71.011998653411865234375">
        <ele>859.79998779296875</ele>
        <time>2026-08-21T19:56:04.000Z</time>
        <extensions>
          <ns3:TrackPointExtension>
            <ns3:hr>136</ns3:hr>
            <ns3:cad>53</ns3:cad>
          </ns3:TrackPointExtension>
        </extensions>
      </trkpt>
      <trkpt lat="45.34078739583492279052734375" lon="-71.01198079995810985565185546875">
        <ele>859.79998779296875</ele>
        <time>2026-08-21T19:56:05.000Z</time>
        <extensions>
          <ns3:TrackPointExtension>
            <ns3:hr>137</ns3:hr>
            <ns3:cad>53</ns3:cad>
          </ns3:TrackPointExtension>
        </extensions>
      </trkpt>
      <trkpt lat="45.34077800810337066650390625" lon="-71.01196202449500560760498046875">
        <ele>860</ele>
        <time>2026-08-21T19:56:06.000Z</time>
        <extensions>
          <ns3:TrackPointExtension>
            <ns3:hr>137</ns3:hr>
            <ns3:cad>54</ns3:cad>
          </ns3:TrackPointExtension>
        </extensions>
      </trkpt>
      <trkpt lat="45.3407687880098819732666015625" lon="-71.01194760762155055999755859375">
        <ele>860.20001220703125</ele>
        <time>2026-08-21T19:56:07.000Z</time>
        <extensions>
          <ns3:TrackPointExtension>
            <ns3:hr>137</ns3:hr>
            <ns3:cad>54</ns3:cad>
          </ns3:TrackPointExtension>
        </extensions>
      </trkpt>
      <trkpt lat="45.34075881354510784149169921875" lon="-71.01192715577781200408935546875">
        <ele>860.20001220703125</ele>
        <time>2026-08-21T19:56:08.000Z</time>
        <extensions>
          <ns3:TrackPointExtension>
            <ns3:hr>137</ns3:hr>
            <ns3:cad>54</ns3:cad>
          </ns3:TrackPointExtension>
        </extensions>
      </trkpt>
      <trkpt lat="45.34074791707098484039306640625" lon="-71.01191391237080097198486328125">
        <ele>860.20001220703125</ele>
        <time>2026-08-21T19:56:09.000Z</time>
        <extensions>
          <ns3:TrackPointExtension>
            <ns3:hr>138</ns3:hr>
            <ns3:cad>52</ns3:cad>
          </ns3:TrackPointExtension>
        </extensions>
      </trkpt>
      <trkpt lat="45.3407406248152256011962890625" lon="-71.0119039379060268402099609375">
        <ele>860.20001220703125</ele>
        <time>2026-08-21T19:56:10.000Z</time>
        <extensions>
          <ns3:TrackPointExtension>
            <ns3:hr>138</ns3:hr>
            <ns3:cad>52</ns3:cad>
          </ns3:TrackPointExtension>
        </extensions>
      </trkpt>
      <trkpt lat="45.3407288901507854461669921875" lon="-71.0118918679654598236083984375">
        <ele>860.4000244140625</ele>
        <time>2026-08-21T19:56:11.000Z</time>
        <extensions>
          <ns3:TrackPointExtension>
            <ns3:hr>138</ns3:hr>
            <ns3:cad>52</ns3:cad>
          </ns3:TrackPointExtension>
        </extensions>
      </trkpt>
      <trkpt lat="45.34071338362991809844970703125" lon="-71.0118771158158779144287109375">
        <ele>860.4000244140625</ele>
        <time>2026-08-21T19:56:12.000Z</time>
        <extensions>
          <ns3:TrackPointExtension>
            <ns3:hr>138</ns3:hr>
            <ns3:cad>53</ns3:cad>
          </ns3:TrackPointExtension>
        </extensions>
      </trkpt>
      <trkpt lat="45.34070156514644622802734375" lon="-71.011866219341754913330078125">
        <ele>860.4000244140625</ele>
        <time>2026-08-21T19:56:13.000Z</time>
        <extensions>
          <ns3:TrackPointExtension>
            <ns3:hr>138</ns3:hr>
            <ns3:cad>53</ns3:cad>
          </ns3:TrackPointExtension>
        </extensions>
      </trkpt>
      <trkpt lat="45.34068957902491092681884765625" lon="-71.01185238920152187347412109375">
        <ele>860.4000244140625</ele>
        <time>2026-08-21T19:56:14.000Z</time>
        <extensions>
          <ns3:TrackPointExtension>
            <ns3:hr>138</ns3:hr>
            <ns3:cad>53</ns3:cad>
          </ns3:TrackPointExtension>
        </extensions>
      </trkpt>
      <trkpt lat="45.340680442750453948974609375" lon="-71.01184501312673091888427734375">
        <ele>860.5999755859375</ele>
        <time>2026-08-21T19:56:15.000Z</time>
        <extensions>
          <ns3:TrackPointExtension>
            <ns3:hr>138</ns3:hr>
            <ns3:cad>53</ns3:cad>
          </ns3:TrackPointExtension>
        </extensions>
      </trkpt>
      <trkpt lat="45.34065873362123966217041015625" lon="-71.01183076389133930206298828125">
        <ele>860.5999755859375</ele>
        <time>2026-08-21T19:56:16.000Z</time>
        <extensions>
          <ns3:TrackPointExtension>
            <ns3:hr>137</ns3:hr>
            <ns3:cad>55</ns3:cad>
          </ns3:TrackPointExtension>
        </extensions>
      </trkpt>
      <trkpt lat="45.34064599312841892242431640625" lon="-71.0118194483220577239990234375">
        <ele>860.5999755859375</ele>
        <time>2026-08-21T19:56:17.000Z</time>
        <extensions>
          <ns3:TrackPointExtension>
            <ns3:hr>138</ns3:hr>
            <ns3:cad>55</ns3:cad>
          </ns3:TrackPointExtension>
        </extensions>
      </trkpt>
      <trkpt lat="45.3406343422830104827880859375" lon="-71.0118103958666324615478515625">
        <ele>860.5999755859375</ele>
        <time>2026-08-21T19:56:18.000Z</time>
        <extensions>
          <ns3:TrackPointExtension>
            <ns3:hr>138</ns3:hr>
            <ns3:cad>56</ns3:cad>
          </ns3:TrackPointExtension>
        </extensions>
      </trkpt>
      <trkpt lat="45.34062436781823635101318359375" lon="-71.01180142723023891448974609375">
        <ele>860.5999755859375</ele>
        <time>2026-08-21T19:56:19.000Z</time>
        <extensions>
          <ns3:TrackPointExtension>
            <ns3:hr>138</ns3:hr>
            <ns3:cad>56</ns3:cad>
          </ns3:TrackPointExtension>
        </extensions>
      </trkpt>
      <trkpt lat="45.340613387525081634521484375" lon="-71.011793129146099090576171875">
        <ele>860.5999755859375</ele>
        <time>2026-08-21T19:56:20.000Z</time>
        <extensions>
          <ns3:TrackPointExtension>
            <ns3:hr>138</ns3:hr>
            <ns3:cad>56</ns3:cad>
          </ns3:TrackPointExtension>
        </extensions>
      </trkpt>
      <trkpt lat="45.34060366451740264892578125" lon="-71.0117832385003566741943359375">
        <ele>860.79998779296875</ele>
        <time>2026-08-21T19:56:21.000Z</time>
        <extensions>
          <ns3:TrackPointExtension>
            <ns3:hr>138</ns3:hr>
            <ns3:cad>54</ns3:cad>
          </ns3:TrackPointExtension>
        </extensions>
      </trkpt>
      <trkpt lat="45.340594947338104248046875" lon="-71.0117746889591217041015625">
        <ele>860.79998779296875</ele>
        <time>2026-08-21T19:56:22.000Z</time>
        <extensions>
          <ns3:TrackPointExtension>
            <ns3:hr>138</ns3:hr>
            <ns3:cad>54</ns3:cad>
          </ns3:TrackPointExtension>
        </extensions>
      </trkpt>
      <trkpt lat="45.3405843861401081085205078125" lon="-71.01176538504660129547119140625">
        <ele>861</ele>
        <time>2026-08-21T19:56:23.000Z</time>
        <extensions>
          <ns3:TrackPointExtension>
            <ns3:hr>137</ns3:hr>
            <ns3:cad>54</ns3:cad>
          </ns3:TrackPointExtension>
        </extensions>
      </trkpt>
      <trkpt lat="45.34057508222758769989013671875" lon="-71.01175314746797084808349609375">
        <ele>861.20001220703125</ele>
        <time>2026-08-21T19:56:24.000Z</time>
        <extensions>
          <ns3:TrackPointExtension>
            <ns3:hr>137</ns3:hr>
            <ns3:cad>54</ns3:cad>
          </ns3:TrackPointExtension>
        </extensions>
      </trkpt>
      <trkpt lat="45.34056267701089382171630859375" lon="-71.011736132204532623291015625">
        <ele>861.20001220703125</ele>
        <time>2026-08-21T19:56:25.000Z</time>
        <extensions>
          <ns3:TrackPointExtension>
            <ns3:hr>137</ns3:hr>
            <ns3:cad>54</ns3:cad>
          </ns3:TrackPointExtension>
        </extensions>
      </trkpt>
      <trkpt lat="45.34055278636515140533447265625" lon="-71.0117175243794918060302734375">
        <ele>861.20001220703125</ele>
        <time>2026-08-21T19:56:26.000Z</time>
        <extensions>
          <ns3:TrackPointExtension>
            <ns3:hr>137</ns3:hr>
            <ns3:cad>54</ns3:cad>
          </ns3:TrackPointExtension>
        </extensions>
      </trkpt>
      <trkpt lat="45.3405424766242504119873046875" lon="-71.0116964019834995269775390625">
        <ele>861.4000244140625</ele>
        <time>2026-08-21T19:56:27.000Z</time>
        <extensions>
          <ns3:TrackPointExtension>
            <ns3:hr>136</ns3:hr>
            <ns3:cad>54</ns3:cad>
          </ns3:TrackPointExtension>
        </extensions>
      </trkpt>
      <trkpt lat="45.3405334241688251495361328125" lon="-71.0116796381771564483642578125">
        <ele>861.4000244140625</ele>
        <time>2026-08-21T19:56:28.000Z</time>
        <extensions>
          <ns3:TrackPointExtension>
            <ns3:hr>136</ns3:hr>
            <ns3:cad>54</ns3:cad>
          </ns3:TrackPointExtension>
        </extensions>
      </trkpt>
      <trkpt lat="45.34052479080855846405029296875" lon="-71.0116605274379253387451171875">
        <ele>861.4000244140625</ele>
        <time>2026-08-21T19:56:29.000Z</time>
        <extensions>
          <ns3:TrackPointExtension>
            <ns3:hr>136</ns3:hr>
            <ns3:cad>55</ns3:cad>
          </ns3:TrackPointExtension>
        </extensions>
      </trkpt>
      <trkpt lat="45.3405123017728328704833984375" lon="-71.01164669729769229888916015625">
        <ele>861.4000244140625</ele>
        <time>2026-08-21T19:56:30.000Z</time>
        <extensions>
          <ns3:TrackPointExtension>
            <ns3:hr>136</ns3:hr>
            <ns3:cad>55</ns3:cad>
          </ns3:TrackPointExtension>
        </extensions>
      </trkpt>
      <trkpt lat="45.3405032493174076080322265625" lon="-71.0116353817284107208251953125">
        <ele>861.4000244140625</ele>
        <time>2026-08-21T19:56:31.000Z</time>
        <extensions>
          <ns3:TrackPointExtension>
            <ns3:hr>137</ns3:hr>
            <ns3:cad>55</ns3:cad>
          </ns3:TrackPointExtension>
        </extensions>
      </trkpt>
      <trkpt lat="45.3404931910336017608642578125" lon="-71.01162741892039775848388671875">
        <ele>861.4000244140625</ele>
        <time>2026-08-21T19:56:32.000Z</time>
        <extensions>
          <ns3:TrackPointExtension>
            <ns3:hr>138</ns3:hr>
            <ns3:cad>55</ns3:cad>
          </ns3:TrackPointExtension>
        </extensions>
      </trkpt>
      <trkpt lat="45.34048162400722503662109375" lon="-71.0116196237504482269287109375">
        <ele>861.5999755859375</ele>
        <time>2026-08-21T19:56:33.000Z</time>
        <extensions>
          <ns3:TrackPointExtension>
            <ns3:hr>138</ns3:hr>
            <ns3:cad>53</ns3:cad>
          </ns3:TrackPointExtension>
        </extensions>
      </trkpt>
      <trkpt lat="45.34047265537083148956298828125" lon="-71.01161216385662555694580078125">
        <ele>861.79998779296875</ele>
        <time>2026-08-21T19:56:34.000Z</time>
        <extensions>
          <ns3:TrackPointExtension>
            <ns3:hr>139</ns3:hr>
            <ns3:cad>53</ns3:cad>
          </ns3:TrackPointExtension>
        </extensions>
      </trkpt>
      <trkpt lat="45.34045874141156673431396484375" lon="-71.011602692306041717529296875">
        <ele>862</ele>
        <time>2026-08-21T19:56:35.000Z</time>
        <extensions>
          <ns3:TrackPointExtension>
            <ns3:hr>140</ns3:hr>
            <ns3:cad>53</ns3:cad>
          </ns3:TrackPointExtension>
        </extensions>
      </trkpt>
      <trkpt lat="45.340448431670665740966796875" lon="-71.01159456185996532440185546875">
        <ele>862.20001220703125</ele>
        <time>2026-08-21T19:56:36.000Z</time>
        <extensions>
          <ns3:TrackPointExtension>
            <ns3:hr>140</ns3:hr>
            <ns3:cad>53</ns3:cad>
          </ns3:TrackPointExtension>
        </extensions>
      </trkpt>
      <trkpt lat="45.34043711610138416290283203125" lon="-71.01158400066196918487548828125">
        <ele>862.4000244140625</ele>
        <time>2026-08-21T19:56:37.000Z</time>
        <extensions>
          <ns3:TrackPointExtension>
            <ns3:hr>140</ns3:hr>
            <ns3:cad>53</ns3:cad>
          </ns3:TrackPointExtension>
        </extensions>
      </trkpt>
      <trkpt lat="45.34042663872241973876953125" lon="-71.01157285273075103759765625">
        <ele>862.5999755859375</ele>
        <time>2026-08-21T19:56:38.000Z</time>
        <extensions>
          <ns3:TrackPointExtension>
            <ns3:hr>140</ns3:hr>
            <ns3:cad>51</ns3:cad>
          </ns3:TrackPointExtension>
        </extensions>
      </trkpt>
      <trkpt lat="45.3404165804386138916015625" lon="-71.0115616209805011749267578125">
        <ele>862.5999755859375</ele>
        <time>2026-08-21T19:56:39.000Z</time>
        <extensions>
          <ns3:TrackPointExtension>
            <ns3:hr>139</ns3:hr>
            <ns3:cad>51</ns3:cad>
          </ns3:TrackPointExtension>
        </extensions>
      </trkpt>
      <trkpt lat="45.340402163565158843994140625" lon="-71.0115535743534564971923828125">
        <ele>862.79998779296875</ele>
        <time>2026-08-21T19:56:40.000Z</time>
        <extensions>
          <ns3:TrackPointExtension>
            <ns3:hr>139</ns3:hr>
            <ns3:cad>50</ns3:cad>
          </ns3:TrackPointExtension>
        </extensions>
      </trkpt>
      <trkpt lat="45.34039068035781383514404296875" lon="-71.01154427044093608856201171875">
        <ele>862.79998779296875</ele>
        <time>2026-08-21T19:56:41.000Z</time>
        <extensions>
          <ns3:TrackPointExtension>
            <ns3:hr>138</ns3:hr>
            <ns3:cad>50</ns3:cad>
          </ns3:TrackPointExtension>
        </extensions>
      </trkpt>
      <trkpt lat="45.34038045443594455718994140625" lon="-71.01153605617582798004150390625">
        <ele>863</ele>
        <time>2026-08-21T19:56:42.000Z</time>
        <extensions>
          <ns3:TrackPointExtension>
            <ns3:hr>137</ns3:hr>
            <ns3:cad>50</ns3:cad>
          </ns3:TrackPointExtension>
        </extensions>
      </trkpt>
      <trkpt lat="45.34036955796182155609130859375" lon="-71.01152616553008556365966796875">
        <ele>863</ele>
        <time>2026-08-21T19:56:43.000Z</time>
        <extensions>
          <ns3:TrackPointExtension>
            <ns3:hr>137</ns3:hr>
            <ns3:cad>51</ns3:cad>
          </ns3:TrackPointExtension>
        </extensions>
      </trkpt>
      <trkpt lat="45.34036184661090373992919921875" lon="-71.011516191065311431884765625">
        <ele>863.20001220703125</ele>
        <time>2026-08-21T19:56:44.000Z</time>
        <extensions>
          <ns3:TrackPointExtension>
            <ns3:hr>136</ns3:hr>
            <ns3:cad>51</ns3:cad>
          </ns3:TrackPointExtension>
        </extensions>
      </trkpt>
      <trkpt lat="45.34035363234579563140869140625" lon="-71.0115069709718227386474609375">
        <ele>863.20001220703125</ele>
        <time>2026-08-21T19:56:45.000Z</time>
        <extensions>
          <ns3:TrackPointExtension>
            <ns3:hr>136</ns3:hr>
            <ns3:cad>51</ns3:cad>
          </ns3:TrackPointExtension>
        </extensions>
      </trkpt>
      <trkpt lat="45.34034860320389270782470703125" lon="-71.01149699650704860687255859375">
        <ele>863.4000244140625</ele>
        <time>2026-08-21T19:56:46.000Z</time>
        <extensions>
          <ns3:TrackPointExtension>
            <ns3:hr>136</ns3:hr>
            <ns3:cad>51</ns3:cad>
          </ns3:TrackPointExtension>
        </extensions>
      </trkpt>
      <trkpt lat="45.340342819690704345703125" lon="-71.01148894988000392913818359375">
        <ele>863.5999755859375</ele>
        <time>2026-08-21T19:56:47.000Z</time>
        <extensions>
          <ns3:TrackPointExtension>
            <ns3:hr>135</ns3:hr>
            <ns3:cad>51</ns3:cad>
          </ns3:TrackPointExtension>
        </extensions>
      </trkpt>
      <trkpt lat="45.34033276140689849853515625" lon="-71.01148509420454502105712890625">
        <ele>863.79998779296875</ele>
        <time>2026-08-21T19:56:48.000Z</time>
        <extensions>
          <ns3:TrackPointExtension>
            <ns3:hr>135</ns3:hr>
            <ns3:cad>52</ns3:cad>
          </ns3:TrackPointExtension>
        </extensions>
      </trkpt>
      <trkpt lat="45.34032337367534637451171875" lon="-71.01147637702524662017822265625">
        <ele>864</ele>
        <time>2026-08-21T19:56:49.000Z</time>
        <extensions>
          <ns3:TrackPointExtension>
            <ns3:hr>134</ns3:hr>
            <ns3:cad>52</ns3:cad>
          </ns3:TrackPointExtension>
        </extensions>
      </trkpt>
      <trkpt lat="45.3403161652386188507080078125" lon="-71.01146933622658252716064453125">
        <ele>864.20001220703125</ele>
        <time>2026-08-21T19:56:50.000Z</time>
        <extensions>
          <ns3:TrackPointExtension>
            <ns3:hr>134</ns3:hr>
            <ns3:cad>51</ns3:cad>
          </ns3:TrackPointExtension>
        </extensions>
      </trkpt>
      <trkpt lat="45.3403097949922084808349609375" lon="-71.01145709864795207977294921875">
        <ele>864.4000244140625</ele>
        <time>2026-08-21T19:56:51.000Z</time>
        <extensions>
          <ns3:TrackPointExtension>
            <ns3:hr>134</ns3:hr>
            <ns3:cad>50</ns3:cad>
          </ns3:TrackPointExtension>
        </extensions>
      </trkpt>
      <trkpt lat="45.34030300565063953399658203125" lon="-71.01144544780254364013671875">
        <ele>864.5999755859375</ele>
        <time>2026-08-21T19:56:52.000Z</time>
        <extensions>
          <ns3:TrackPointExtension>
            <ns3:hr>135</ns3:hr>
            <ns3:cad>50</ns3:cad>
          </ns3:TrackPointExtension>
        </extensions>
      </trkpt>
      <trkpt lat="45.3402973897755146026611328125" lon="-71.0114345513284206390380859375">
        <ele>864.79998779296875</ele>
        <time>2026-08-21T19:56:53.000Z</time>
        <extensions>
          <ns3:TrackPointExtension>
            <ns3:hr>134</ns3:hr>
            <ns3:cad>49</ns3:cad>
          </ns3:TrackPointExtension>
        </extensions>
      </trkpt>
      <trkpt lat="45.3402913548052310943603515625" lon="-71.01142457686364650726318359375">
        <ele>865</ele>
        <time>2026-08-21T19:56:54.000Z</time>
        <extensions>
          <ns3:TrackPointExtension>
            <ns3:hr>134</ns3:hr>
            <ns3:cad>49</ns3:cad>
          </ns3:TrackPointExtension>
        </extensions>
      </trkpt>
      <trkpt lat="45.34028423018753528594970703125" lon="-71.0114164464175701141357421875">
        <ele>865.20001220703125</ele>
        <time>2026-08-21T19:56:55.000Z</time>
        <extensions>
          <ns3:TrackPointExtension>
            <ns3:hr>134</ns3:hr>
            <ns3:cad>50</ns3:cad>
          </ns3:TrackPointExtension>
        </extensions>
      </trkpt>
      <trkpt lat="45.340277440845966339111328125" lon="-71.01140915416181087493896484375">
        <ele>865.4000244140625</ele>
        <time>2026-08-21T19:56:56.000Z</time>
        <extensions>
          <ns3:TrackPointExtension>
            <ns3:hr>135</ns3:hr>
            <ns3:cad>50</ns3:cad>
          </ns3:TrackPointExtension>
        </extensions>
      </trkpt>
      <trkpt lat="45.34027249552309513092041015625" lon="-71.011397503316402435302734375">
        <ele>865.5999755859375</ele>
        <time>2026-08-21T19:56:57.000Z</time>
        <extensions>
          <ns3:TrackPointExtension>
            <ns3:hr>134</ns3:hr>
            <ns3:cad>50</ns3:cad>
          </ns3:TrackPointExtension>
        </extensions>
      </trkpt>
      <trkpt lat="45.34026646055281162261962890625" lon="-71.01139104925096035003662109375">
        <ele>865.79998779296875</ele>
        <time>2026-08-21T19:56:58.000Z</time>
        <extensions>
          <ns3:TrackPointExtension>
            <ns3:hr>135</ns3:hr>
            <ns3:cad>49</ns3:cad>
          </ns3:TrackPointExtension>
        </extensions>
      </trkpt>
      <trkpt lat="45.34025900065898895263671875" lon="-71.01138317026197910308837890625">
        <ele>866</ele>
        <time>2026-08-21T19:56:59.000Z</time>
        <extensions>
          <ns3:TrackPointExtension>
            <ns3:hr>135</ns3:hr>
            <ns3:cad>49</ns3:cad>
          </ns3:TrackPointExtension>
        </extensions>
      </trkpt>
      <trkpt lat="45.340255312621593475341796875" lon="-71.01137713529169559478759765625">
        <ele>866.20001220703125</ele>
        <time>2026-08-21T19:57:00.000Z</time>
        <extensions>
          <ns3:TrackPointExtension>
            <ns3:hr>136</ns3:hr>
            <ns3:cad>46</ns3:cad>
          </ns3:TrackPointExtension>
        </extensions>
      </trkpt>
      <trkpt lat="45.3402491100132465362548828125" lon="-71.0113664902746677398681640625">
        <ele>866.5999755859375</ele>
        <time>2026-08-21T19:57:01.000Z</time>
        <extensions>
          <ns3:TrackPointExtension>
            <ns3:hr>136</ns3:hr>
            <ns3:cad>46</ns3:cad>
          </ns3:TrackPointExtension>
        </extensions>
      </trkpt>
      <trkpt lat="45.34024315886199474334716796875" lon="-71.01136020384728908538818359375">
        <ele>866.79998779296875</ele>
        <time>2026-08-21T19:57:02.000Z</time>
        <extensions>
          <ns3:TrackPointExtension>
            <ns3:hr>136</ns3:hr>
            <ns3:cad>47</ns3:cad>
          </ns3:TrackPointExtension>
        </extensions>
      </trkpt>
      <trkpt lat="45.340235866606235504150390625" lon="-71.011351235210895538330078125">
        <ele>867</ele>
        <time>2026-08-21T19:57:03.000Z</time>
        <extensions>
          <ns3:TrackPointExtension>
            <ns3:hr>136</ns3:hr>
            <ns3:cad>47</ns3:cad>
          </ns3:TrackPointExtension>
        </extensions>
      </trkpt>
      <trkpt lat="45.34022890962660312652587890625" lon="-71.01134478114545345306396484375">
        <ele>867.20001220703125</ele>
        <time>2026-08-21T19:57:04.000Z</time>
        <extensions>
          <ns3:TrackPointExtension>
            <ns3:hr>136</ns3:hr>
            <ns3:cad>47</ns3:cad>
          </ns3:TrackPointExtension>
        </extensions>
      </trkpt>
      <trkpt lat="45.34022455103695392608642578125" lon="-71.0113373212516307830810546875">
        <ele>867.4000244140625</ele>
        <time>2026-08-21T19:57:05.000Z</time>
        <extensions>
          <ns3:TrackPointExtension>
            <ns3:hr>136</ns3:hr>
            <ns3:cad>47</ns3:cad>
          </ns3:TrackPointExtension>
        </extensions>
      </trkpt>
      <trkpt lat="45.34021985717117786407470703125" lon="-71.0113292746245861053466796875">
        <ele>867.5999755859375</ele>
        <time>2026-08-21T19:57:06.000Z</time>
        <extensions>
          <ns3:TrackPointExtension>
            <ns3:hr>136</ns3:hr>
            <ns3:cad>47</ns3:cad>
          </ns3:TrackPointExtension>
        </extensions>
      </trkpt>
      <trkpt lat="45.34021633677184581756591796875" lon="-71.0113235749304294586181640625">
        <ele>867.79998779296875</ele>
        <time>2026-08-21T19:57:07.000Z</time>
        <extensions>
          <ns3:TrackPointExtension>
            <ns3:hr>136</ns3:hr>
            <ns3:cad>47</ns3:cad>
          </ns3:TrackPointExtension>
        </extensions>
      </trkpt>
      <trkpt lat="45.34021046943962574005126953125" lon="-71.0113161988556385040283203125">
        <ele>868</ele>
        <time>2026-08-21T19:57:08.000Z</time>
        <extensions>
          <ns3:TrackPointExtension>
            <ns3:hr>137</ns3:hr>
            <ns3:cad>47</ns3:cad>
          </ns3:TrackPointExtension>
        </extensions>
      </trkpt>
      <trkpt lat="45.34020594321191310882568359375" lon="-71.01130505092442035675048828125">
        <ele>868</ele>
        <time>2026-08-21T19:57:09.000Z</time>
        <extensions>
          <ns3:TrackPointExtension>
            <ns3:hr>136</ns3:hr>
            <ns3:cad>47</ns3:cad>
          </ns3:TrackPointExtension>
        </extensions>
      </trkpt>
      <trkpt lat="45.34020158462226390838623046875" lon="-71.0112927295267581939697265625">
        <ele>868.20001220703125</ele>
        <time>2026-08-21T19:57:10.000Z</time>
        <extensions>
          <ns3:TrackPointExtension>
            <ns3:hr>136</ns3:hr>
            <ns3:cad>47</ns3:cad>
          </ns3:TrackPointExtension>
        </extensions>
      </trkpt>
      <trkpt lat="45.34019655548036098480224609375" lon="-71.01127856411039829254150390625">
        <ele>868.4000244140625</ele>
        <time>2026-08-21T19:57:11.000Z</time>
        <extensions>
          <ns3:TrackPointExtension>
            <ns3:hr>136</ns3:hr>
            <ns3:cad>47</ns3:cad>
          </ns3:TrackPointExtension>
        </extensions>
      </trkpt>
      <trkpt lat="45.34019462764263153076171875" lon="-71.01126615889370441436767578125">
        <ele>868.5999755859375</ele>
        <time>2026-08-21T19:57:12.000Z</time>
        <extensions>
          <ns3:TrackPointExtension>
            <ns3:hr>136</ns3:hr>
            <ns3:cad>46</ns3:cad>
          </ns3:TrackPointExtension>
        </extensions>
      </trkpt>
      <trkpt lat="45.3401894308626651763916015625" lon="-71.01125207729637622833251953125">
        <ele>868.79998779296875</ele>
        <time>2026-08-21T19:57:13.000Z</time>
        <extensions>
          <ns3:TrackPointExtension>
            <ns3:hr>137</ns3:hr>
            <ns3:cad>46</ns3:cad>
          </ns3:TrackPointExtension>
        </extensions>
      </trkpt>
      <trkpt lat="45.3401803784072399139404296875" lon="-71.011243276298046112060546875">
        <ele>869</ele>
        <time>2026-08-21T19:57:14.000Z</time>
        <extensions>
          <ns3:TrackPointExtension>
            <ns3:hr>136</ns3:hr>
            <ns3:cad>46</ns3:cad>
          </ns3:TrackPointExtension>
        </extensions>
      </trkpt>
      <trkpt lat="45.3401703201234340667724609375" lon="-71.01123447529971599578857421875">
        <ele>869.20001220703125</ele>
        <time>2026-08-21T19:57:15.000Z</time>
        <extensions>
          <ns3:TrackPointExtension>
            <ns3:hr>136</ns3:hr>
            <ns3:cad>48</ns3:cad>
          </ns3:TrackPointExtension>
        </extensions>
      </trkpt>
      <trkpt lat="45.34016034565865993499755859375" lon="-71.01122927851974964141845703125">
        <ele>869.4000244140625</ele>
        <time>2026-08-21T19:57:16.000Z</time>
        <extensions>
          <ns3:TrackPointExtension>
            <ns3:hr>136</ns3:hr>
            <ns3:cad>48</ns3:cad>
          </ns3:TrackPointExtension>
        </extensions>
      </trkpt>
      <trkpt lat="45.34014643169939517974853515625" lon="-71.0112280212342739105224609375">
        <ele>869.4000244140625</ele>
        <time>2026-08-21T19:57:17.000Z</time>
        <extensions>
          <ns3:TrackPointExtension>
            <ns3:hr>136</ns3:hr>
            <ns3:cad>47</ns3:cad>
          </ns3:TrackPointExtension>
        </extensions>
      </trkpt>
      <trkpt lat="45.34013419412076473236083984375" lon="-71.01122743450105190277099609375">
        <ele>869.5999755859375</ele>
        <time>2026-08-21T19:57:18.000Z</time>
        <extensions>
          <ns3:TrackPointExtension>
            <ns3:hr>137</ns3:hr>
            <ns3:cad>47</ns3:cad>
          </ns3:TrackPointExtension>
        </extensions>
      </trkpt>
      <trkpt lat="45.3401230461895465850830078125" lon="-71.011229865252971649169921875">
        <ele>869.79998779296875</ele>
        <time>2026-08-21T19:57:19.000Z</time>
        <extensions>
          <ns3:TrackPointExtension>
            <ns3:hr>136</ns3:hr>
            <ns3:cad>45</ns3:cad>
          </ns3:TrackPointExtension>
        </extensions>
      </trkpt>
      <trkpt lat="45.340111814439296722412109375" lon="-71.01123196072876453399658203125">
        <ele>870</ele>
        <time>2026-08-21T19:57:20.000Z</time>
        <extensions>
          <ns3:TrackPointExtension>
            <ns3:hr>136</ns3:hr>
            <ns3:cad>44</ns3:cad>
          </ns3:TrackPointExtension>
        </extensions>
      </trkpt>
      <trkpt lat="45.3401039354503154754638671875" lon="-71.01124084554612636566162109375">
        <ele>870</ele>
        <time>2026-08-21T19:57:21.000Z</time>
        <extensions>
          <ns3:TrackPointExtension>
            <ns3:hr>136</ns3:hr>
            <ns3:cad>44</ns3:cad>
          </ns3:TrackPointExtension>
        </extensions>
      </trkpt>
      <trkpt lat="45.3400942124426364898681640625" lon="-71.01124553941190242767333984375">
        <ele>870.4000244140625</ele>
        <time>2026-08-21T19:57:22.000Z</time>
        <extensions>
          <ns3:TrackPointExtension>
            <ns3:hr>137</ns3:hr>
            <ns3:cad>44</ns3:cad>
          </ns3:TrackPointExtension>
        </extensions>
      </trkpt>
      <trkpt lat="45.34008800983428955078125" lon="-71.01124268956482410430908203125">
        <ele>870.4000244140625</ele>
        <time>2026-08-21T19:57:23.000Z</time>
        <extensions>
          <ns3:TrackPointExtension>
            <ns3:hr>137</ns3:hr>
            <ns3:cad>44</ns3:cad>
          </ns3:TrackPointExtension>
        </extensions>
      </trkpt>
      <trkpt lat="45.34008071757853031158447265625" lon="-71.01124151609838008880615234375">
        <ele>870.5999755859375</ele>
        <time>2026-08-21T19:57:24.000Z</time>
        <extensions>
          <ns3:TrackPointExtension>
            <ns3:hr>138</ns3:hr>
            <ns3:cad>43</ns3:cad>
          </ns3:TrackPointExtension>
        </extensions>
      </trkpt>
      <trkpt lat="45.34007099457085132598876953125" lon="-71.01123698987066745758056640625">
        <ele>870.5999755859375</ele>
        <time>2026-08-21T19:57:25.000Z</time>
        <extensions>
          <ns3:TrackPointExtension>
            <ns3:hr>138</ns3:hr>
            <ns3:cad>42</ns3:cad>
          </ns3:TrackPointExtension>
        </extensions>
      </trkpt>
      <trkpt lat="45.34006328321993350982666015625" lon="-71.01123363710939884185791015625">
        <ele>870.5999755859375</ele>
        <time>2026-08-21T19:57:26.000Z</time>
        <extensions>
          <ns3:TrackPointExtension>
            <ns3:hr>138</ns3:hr>
            <ns3:cad>42</ns3:cad>
          </ns3:TrackPointExtension>
        </extensions>
      </trkpt>
      <trkpt lat="45.34005423076450824737548828125" lon="-71.01122944615781307220458984375">
        <ele>870.5999755859375</ele>
        <time>2026-08-21T19:57:27.000Z</time>
        <extensions>
          <ns3:TrackPointExtension>
            <ns3:hr>138</ns3:hr>
            <ns3:cad>42</ns3:cad>
          </ns3:TrackPointExtension>
        </extensions>
      </trkpt>
      <trkpt lat="45.34004618413746356964111328125" lon="-71.0112221539020538330078125">
        <ele>870.5999755859375</ele>
        <time>2026-08-21T19:57:28.000Z</time>
        <extensions>
          <ns3:TrackPointExtension>
            <ns3:hr>139</ns3:hr>
            <ns3:cad>42</ns3:cad>
          </ns3:TrackPointExtension>
        </extensions>
      </trkpt>
      <trkpt lat="45.3400341980159282684326171875" lon="-71.01121653802692890167236328125">
        <ele>870.79998779296875</ele>
        <time>2026-08-21T19:57:29.000Z</time>
        <extensions>
          <ns3:TrackPointExtension>
            <ns3:hr>140</ns3:hr>
            <ns3:cad>44</ns3:cad>
          </ns3:TrackPointExtension>
        </extensions>
      </trkpt>
      <trkpt lat="45.340022630989551544189453125" lon="-71.01120966486632823944091796875">
        <ele>870.79998779296875</ele>
        <time>2026-08-21T19:57:30.000Z</time>
        <extensions>
          <ns3:TrackPointExtension>
            <ns3:hr>140</ns3:hr>
            <ns3:cad>44</ns3:cad>
          </ns3:TrackPointExtension>
        </extensions>
      </trkpt>
      <trkpt lat="45.340010561048984527587890625" lon="-71.011203043162822723388671875">
        <ele>870.79998779296875</ele>
        <time>2026-08-21T19:57:31.000Z</time>
        <extensions>
          <ns3:TrackPointExtension>
            <ns3:hr>140</ns3:hr>
            <ns3:cad>44</ns3:cad>
          </ns3:TrackPointExtension>
        </extensions>
      </trkpt>
      <trkpt lat="45.3399963118135929107666015625" lon="-71.01119868457317352294921875">
        <ele>870.79998779296875</ele>
        <time>2026-08-21T19:57:32.000Z</time>
        <extensions>
          <ns3:TrackPointExtension>
            <ns3:hr>140</ns3:hr>
            <ns3:cad>48</ns3:cad>
          </ns3:TrackPointExtension>
        </extensions>
      </trkpt>
      <trkpt lat="45.33998298458755016326904296875" lon="-71.01119692437350749969482421875">
        <ele>870.79998779296875</ele>
        <time>2026-08-21T19:57:33.000Z</time>
        <extensions>
          <ns3:TrackPointExtension>
            <ns3:hr>140</ns3:hr>
            <ns3:cad>48</ns3:cad>
          </ns3:TrackPointExtension>
        </extensions>
      </trkpt>
      <trkpt lat="45.33997091464698314666748046875" lon="-71.01119424216449260711669921875">
        <ele>870.79998779296875</ele>
        <time>2026-08-21T19:57:34.000Z</time>
        <extensions>
          <ns3:TrackPointExtension>
            <ns3:hr>140</ns3:hr>
            <ns3:cad>51</ns3:cad>
          </ns3:TrackPointExtension>
        </extensions>
      </trkpt>
      <trkpt lat="45.33995783887803554534912109375" lon="-71.0111939907073974609375">
        <ele>870.79998779296875</ele>
        <time>2026-08-21T19:57:35.000Z</time>
        <extensions>
          <ns3:TrackPointExtension>
            <ns3:hr>140</ns3:hr>
            <ns3:cad>51</ns3:cad>
          </ns3:TrackPointExtension>
        </extensions>
      </trkpt>
      <trkpt lat="45.339945517480373382568359375" lon="-71.0111871175467967987060546875">
        <ele>870.5999755859375</ele>
        <time>2026-08-21T19:57:36.000Z</time>
        <extensions>
          <ns3:TrackPointExtension>
            <ns3:hr>140</ns3:hr>
            <ns3:cad>50</ns3:cad>
          </ns3:TrackPointExtension>
        </extensions>
      </trkpt>
      <trkpt lat="45.3399349562823772430419921875" lon="-71.011183597147464752197265625">
        <ele>870.5999755859375</ele>
        <time>2026-08-21T19:57:37.000Z</time>
        <extensions>
          <ns3:TrackPointExtension>
            <ns3:hr>140</ns3:hr>
            <ns3:cad>50</ns3:cad>
          </ns3:TrackPointExtension>
        </extensions>
      </trkpt>
      <trkpt lat="45.33992229960858821868896484375" lon="-71.0111817531287670135498046875">
        <ele>870.5999755859375</ele>
        <time>2026-08-21T19:57:38.000Z</time>
        <extensions>
          <ns3:TrackPointExtension>
            <ns3:hr>140</ns3:hr>
            <ns3:cad>50</ns3:cad>
          </ns3:TrackPointExtension>
        </extensions>
      </trkpt>
      <trkpt lat="45.3399124927818775177001953125" lon="-71.01117831654846668243408203125">
        <ele>870.5999755859375</ele>
        <time>2026-08-21T19:57:39.000Z</time>
        <extensions>
          <ns3:TrackPointExtension>
            <ns3:hr>140</ns3:hr>
            <ns3:cad>51</ns3:cad>
          </ns3:TrackPointExtension>
        </extensions>
      </trkpt>
      <trkpt lat="45.33990419469773769378662109375" lon="-71.01117588579654693603515625">
        <ele>870.5999755859375</ele>
        <time>2026-08-21T19:57:40.000Z</time>
        <extensions>
          <ns3:TrackPointExtension>
            <ns3:hr>140</ns3:hr>
            <ns3:cad>51</ns3:cad>
          </ns3:TrackPointExtension>
        </extensions>
      </trkpt>
      <trkpt lat="45.33989547751843929290771484375" lon="-71.0111659951508045196533203125">
        <ele>870.5999755859375</ele>
        <time>2026-08-21T19:57:41.000Z</time>
        <extensions>
          <ns3:TrackPointExtension>
            <ns3:hr>140</ns3:hr>
            <ns3:cad>52</ns3:cad>
          </ns3:TrackPointExtension>
        </extensions>
      </trkpt>
      <trkpt lat="45.33988575451076030731201171875" lon="-71.01116104982793331146240234375">
        <ele>870.5999755859375</ele>
        <time>2026-08-21T19:57:42.000Z</time>
        <extensions>
          <ns3:TrackPointExtension>
            <ns3:hr>140</ns3:hr>
            <ns3:cad>52</ns3:cad>
          </ns3:TrackPointExtension>
        </extensions>
      </trkpt>
      <trkpt lat="45.33987267874181270599365234375" lon="-71.01115987636148929595947265625">
        <ele>870.79998779296875</ele>
        <time>2026-08-21T19:57:43.000Z</time>
        <extensions>
          <ns3:TrackPointExtension>
            <ns3:hr>139</ns3:hr>
            <ns3:cad>52</ns3:cad>
          </ns3:TrackPointExtension>
        </extensions>
      </trkpt>
      <trkpt lat="45.33985926769673824310302734375" lon="-71.0111542604863643646240234375">
        <ele>870.5999755859375</ele>
        <time>2026-08-21T19:57:44.000Z</time>
        <extensions>
          <ns3:TrackPointExtension>
            <ns3:hr>138</ns3:hr>
            <ns3:cad>55</ns3:cad>
          </ns3:TrackPointExtension>
        </extensions>
      </trkpt>
      <trkpt lat="45.33984686248004436492919921875" lon="-71.011146716773509979248046875">
        <ele>870.5999755859375</ele>
        <time>2026-08-21T19:57:45.000Z</time>
        <extensions>
          <ns3:TrackPointExtension>
            <ns3:hr>138</ns3:hr>
            <ns3:cad>55</ns3:cad>
          </ns3:TrackPointExtension>
        </extensions>
      </trkpt>
      <trkpt lat="45.3398357145488262176513671875" lon="-71.01114395074546337127685546875">
        <ele>870.5999755859375</ele>
        <time>2026-08-21T19:57:46.000Z</time>
        <extensions>
          <ns3:TrackPointExtension>
            <ns3:hr>138</ns3:hr>
            <ns3:cad>53</ns3:cad>
          </ns3:TrackPointExtension>
        </extensions>
      </trkpt>
      <trkpt lat="45.33982574008405208587646484375" lon="-71.0111401788890361785888671875">
        <ele>870.5999755859375</ele>
        <time>2026-08-21T19:57:47.000Z</time>
        <extensions>
          <ns3:TrackPointExtension>
            <ns3:hr>138</ns3:hr>
            <ns3:cad>49</ns3:cad>
          </ns3:TrackPointExtension>
        </extensions>
      </trkpt>
      <trkpt lat="45.3398182801902294158935546875" lon="-71.01113355718553066253662109375">
        <ele>870.5999755859375</ele>
        <time>2026-08-21T19:57:48.000Z</time>
        <extensions>
          <ns3:TrackPointExtension>
            <ns3:hr>138</ns3:hr>
            <ns3:cad>49</ns3:cad>
          </ns3:TrackPointExtension>
        </extensions>
      </trkpt>
      <trkpt lat="45.33980906009674072265625" lon="-71.01112484000623226165771484375">
        <ele>870.5999755859375</ele>
        <time>2026-08-21T19:57:49.000Z</time>
        <extensions>
          <ns3:TrackPointExtension>
            <ns3:hr>138</ns3:hr>
            <ns3:cad>56</ns3:cad>
          </ns3:TrackPointExtension>
        </extensions>
      </trkpt>
      <trkpt lat="45.339801013469696044921875" lon="-71.01111461408436298370361328125">
        <ele>870.5999755859375</ele>
        <time>2026-08-21T19:57:50.000Z</time>
        <extensions>
          <ns3:TrackPointExtension>
            <ns3:hr>138</ns3:hr>
            <ns3:cad>56</ns3:cad>
          </ns3:TrackPointExtension>
        </extensions>
      </trkpt>
      <trkpt lat="45.3397911228239536285400390625" lon="-71.011105813086032867431640625">
        <ele>870.4000244140625</ele>
        <time>2026-08-21T19:57:51.000Z</time>
        <extensions>
          <ns3:TrackPointExtension>
            <ns3:hr>137</ns3:hr>
            <ns3:cad>58</ns3:cad>
          </ns3:TrackPointExtension>
        </extensions>
      </trkpt>
      <trkpt lat="45.33978131599724292755126953125" lon="-71.01109676063060760498046875">
        <ele>870.4000244140625</ele>
        <time>2026-08-21T19:57:52.000Z</time>
        <extensions>
          <ns3:TrackPointExtension>
            <ns3:hr>136</ns3:hr>
            <ns3:cad>58</ns3:cad>
          </ns3:TrackPointExtension>
        </extensions>
      </trkpt>
      <trkpt lat="45.33977109007537364959716796875" lon="-71.01109449751675128936767578125">
        <ele>870.20001220703125</ele>
        <time>2026-08-21T19:57:53.000Z</time>
        <extensions>
          <ns3:TrackPointExtension>
            <ns3:hr>136</ns3:hr>
            <ns3:cad>52</ns3:cad>
          </ns3:TrackPointExtension>
        </extensions>
      </trkpt>
      <trkpt lat="45.3397592715919017791748046875" lon="-71.0110934078693389892578125">
        <ele>870.20001220703125</ele>
        <time>2026-08-21T19:57:54.000Z</time>
        <extensions>
          <ns3:TrackPointExtension>
            <ns3:hr>136</ns3:hr>
            <ns3:cad>52</ns3:cad>
          </ns3:TrackPointExtension>
        </extensions>
      </trkpt>
      <trkpt lat="45.33975097350776195526123046875" lon="-71.01108795963227748870849609375">
        <ele>870</ele>
        <time>2026-08-21T19:57:55.000Z</time>
        <extensions>
          <ns3:TrackPointExtension>
            <ns3:hr>135</ns3:hr>
            <ns3:cad>52</ns3:cad>
          </ns3:TrackPointExtension>
        </extensions>
      </trkpt>
      <trkpt lat="45.339742340147495269775390625" lon="-71.01107806898653507232666015625">
        <ele>870</ele>
        <time>2026-08-21T19:57:56.000Z</time>
        <extensions>
          <ns3:TrackPointExtension>
            <ns3:hr>135</ns3:hr>
            <ns3:cad>57</ns3:cad>
          </ns3:TrackPointExtension>
        </extensions>
      </trkpt>
      <trkpt lat="45.33973454497754573822021484375" lon="-71.011066250503063201904296875">
        <ele>869.79998779296875</ele>
        <time>2026-08-21T19:57:57.000Z</time>
        <extensions>
          <ns3:TrackPointExtension>
            <ns3:hr>135</ns3:hr>
            <ns3:cad>57</ns3:cad>
          </ns3:TrackPointExtension>
        </extensions>
      </trkpt>
      <trkpt lat="45.3397267498075962066650390625" lon="-71.011053510010242462158203125">
        <ele>869.5999755859375</ele>
        <time>2026-08-21T19:57:58.000Z</time>
        <extensions>
          <ns3:TrackPointExtension>
            <ns3:hr>134</ns3:hr>
            <ns3:cad>56</ns3:cad>
          </ns3:TrackPointExtension>
        </extensions>
      </trkpt>
      <trkpt lat="45.33972046338021755218505859375" lon="-71.01103967987000942230224609375">
        <ele>869.4000244140625</ele>
        <time>2026-08-21T19:57:59.000Z</time>
        <extensions>
          <ns3:TrackPointExtension>
            <ns3:hr>133</ns3:hr>
            <ns3:cad>57</ns3:cad>
          </ns3:TrackPointExtension>
        </extensions>
      </trkpt>
      <trkpt lat="45.3397116623818874359130859375" lon="-71.01102769374847412109375">
        <ele>869.20001220703125</ele>
        <time>2026-08-21T19:58:00.000Z</time>
        <extensions>
          <ns3:TrackPointExtension>
            <ns3:hr>132</ns3:hr>
            <ns3:cad>57</ns3:cad>
          </ns3:TrackPointExtension>
        </extensions>
      </trkpt>
      <trkpt lat="45.33970336429774761199951171875" lon="-71.011015288531780242919921875">
        <ele>869.20001220703125</ele>
        <time>2026-08-21T19:58:01.000Z</time>
        <extensions>
          <ns3:TrackPointExtension>
            <ns3:hr>132</ns3:hr>
            <ns3:cad>57</ns3:cad>
          </ns3:TrackPointExtension>
        </extensions>
      </trkpt>
      <trkpt lat="45.3396897017955780029296875" lon="-71.01100020110607147216796875">
        <ele>869</ele>
        <time>2026-08-21T19:58:02.000Z</time>
        <extensions>
          <ns3:TrackPointExtension>
            <ns3:hr>132</ns3:hr>
            <ns3:cad>57</ns3:cad>
          </ns3:TrackPointExtension>
        </extensions>
      </trkpt>
      <trkpt lat="45.33967654220759868621826171875" lon="-71.0109846107661724090576171875">
        <ele>868.79998779296875</ele>
        <time>2026-08-21T19:58:03.000Z</time>
        <extensions>
          <ns3:TrackPointExtension>
            <ns3:hr>131</ns3:hr>
            <ns3:cad>57</ns3:cad>
          </ns3:TrackPointExtension>
        </extensions>
      </trkpt>
      <trkpt lat="45.33966463990509510040283203125" lon="-71.01097337901592254638671875">
        <ele>868.5999755859375</ele>
        <time>2026-08-21T19:58:04.000Z</time>
        <extensions>
          <ns3:TrackPointExtension>
            <ns3:hr>131</ns3:hr>
            <ns3:cad>57</ns3:cad>
          </ns3:TrackPointExtension>
        </extensions>
      </trkpt>
      <trkpt lat="45.33964720554649829864501953125" lon="-71.010964326560497283935546875">
        <ele>868.4000244140625</ele>
        <time>2026-08-21T19:58:05.000Z</time>
        <extensions>
          <ns3:TrackPointExtension>
            <ns3:hr>130</ns3:hr>
            <ns3:cad>57</ns3:cad>
          </ns3:TrackPointExtension>
        </extensions>
      </trkpt>
      <trkpt lat="45.33963161520659923553466796875" lon="-71.01095535792410373687744140625">
        <ele>868.20001220703125</ele>
        <time>2026-08-21T19:58:06.000Z</time>
        <extensions>
          <ns3:TrackPointExtension>
            <ns3:hr>130</ns3:hr>
            <ns3:cad>59</ns3:cad>
          </ns3:TrackPointExtension>
        </extensions>
      </trkpt>
      <trkpt lat="45.33961619250476360321044921875" lon="-71.0109494067728519439697265625">
        <ele>868.20001220703125</ele>
        <time>2026-08-21T19:58:07.000Z</time>
        <extensions>
          <ns3:TrackPointExtension>
            <ns3:hr>129</ns3:hr>
            <ns3:cad>59</ns3:cad>
          </ns3:TrackPointExtension>
        </extensions>
      </trkpt>
      <trkpt lat="45.33960160799324512481689453125" lon="-71.01094312034547328948974609375">
        <ele>868.20001220703125</ele>
        <time>2026-08-21T19:58:08.000Z</time>
        <extensions>
          <ns3:TrackPointExtension>
            <ns3:hr>128</ns3:hr>
            <ns3:cad>59</ns3:cad>
          </ns3:TrackPointExtension>
        </extensions>
      </trkpt>
      <trkpt lat="45.33958534710109233856201171875" lon="-71.01094328798353672027587890625">
        <ele>868</ele>
        <time>2026-08-21T19:58:09.000Z</time>
        <extensions>
          <ns3:TrackPointExtension>
            <ns3:hr>128</ns3:hr>
            <ns3:cad>59</ns3:cad>
          </ns3:TrackPointExtension>
        </extensions>
      </trkpt>
      <trkpt lat="45.33956875093281269073486328125" lon="-71.01094211451709270477294921875">
        <ele>868</ele>
        <time>2026-08-21T19:58:10.000Z</time>
        <extensions>
          <ns3:TrackPointExtension>
            <ns3:hr>128</ns3:hr>
            <ns3:cad>0</ns3:cad>
          </ns3:TrackPointExtension>
        </extensions>
      </trkpt>
      <trkpt lat="45.339548550546169281005859375" lon="-71.01094295270740985870361328125">
        <ele>868</ele>
        <time>2026-08-21T19:58:11.000Z</time>
        <extensions>
          <ns3:TrackPointExtension>
            <ns3:hr>128</ns3:hr>
            <ns3:cad>70</ns3:cad>
          </ns3:TrackPointExtension>
        </extensions>
      </trkpt>
      <trkpt lat="45.33953337930142879486083984375" lon="-71.01094429381191730499267578125">
        <ele>868.20001220703125</ele>
        <time>2026-08-21T19:58:12.000Z</time>
        <extensions>
          <ns3:TrackPointExtension>
            <ns3:hr>127</ns3:hr>
            <ns3:cad>70</ns3:cad>
          </ns3:TrackPointExtension>
        </extensions>
      </trkpt>
      <trkpt lat="45.339515693485736846923828125" lon="-71.01094714365899562835693359375">
        <ele>868.20001220703125</ele>
        <time>2026-08-21T19:58:13.000Z</time>
        <extensions>
          <ns3:TrackPointExtension>
            <ns3:hr>126</ns3:hr>
            <ns3:cad>71</ns3:cad>
          </ns3:TrackPointExtension>
        </extensions>
      </trkpt>
      <trkpt lat="45.33950085751712322235107421875" lon="-71.01095720194280147552490234375">
        <ele>868.20001220703125</ele>
        <time>2026-08-21T19:58:14.000Z</time>
        <extensions>
          <ns3:TrackPointExtension>
            <ns3:hr>124</ns3:hr>
            <ns3:cad>71</ns3:cad>
          </ns3:TrackPointExtension>
        </extensions>
      </trkpt>
      <trkpt lat="45.3394863568246364593505859375" lon="-71.01097580976784229278564453125">
        <ele>868.20001220703125</ele>
        <time>2026-08-21T19:58:15.000Z</time>
        <extensions>
          <ns3:TrackPointExtension>
            <ns3:hr>123</ns3:hr>
            <ns3:cad>71</ns3:cad>
          </ns3:TrackPointExtension>
        </extensions>
      </trkpt>
      <trkpt lat="45.33947646617889404296875" lon="-71.01099617779254913330078125">
        <ele>868.20001220703125</ele>
        <time>2026-08-21T19:58:16.000Z</time>
        <extensions>
          <ns3:TrackPointExtension>
            <ns3:hr>122</ns3:hr>
            <ns3:cad>72</ns3:cad>
          </ns3:TrackPointExtension>
        </extensions>
      </trkpt>
      <trkpt lat="45.3394682519137859344482421875" lon="-71.01101805455982685089111328125">
        <ele>868.20001220703125</ele>
        <time>2026-08-21T19:58:17.000Z</time>
        <extensions>
          <ns3:TrackPointExtension>
            <ns3:hr>121</ns3:hr>
            <ns3:cad>72</ns3:cad>
          </ns3:TrackPointExtension>
        </extensions>
      </trkpt>
      <trkpt lat="45.33945844508707523345947265625" lon="-71.011035740375518798828125">
        <ele>868.20001220703125</ele>
        <time>2026-08-21T19:58:18.000Z</time>
        <extensions>
          <ns3:TrackPointExtension>
            <ns3:hr>121</ns3:hr>
            <ns3:cad>72</ns3:cad>
          </ns3:TrackPointExtension>
        </extensions>
      </trkpt>
      <trkpt lat="45.3394471295177936553955078125" lon="-71.01105510257184505462646484375">
        <ele>868</ele>
        <time>2026-08-21T19:58:19.000Z</time>
        <extensions>
          <ns3:TrackPointExtension>
            <ns3:hr>120</ns3:hr>
            <ns3:cad>72</ns3:cad>
          </ns3:TrackPointExtension>
        </extensions>
      </trkpt>
      <trkpt lat="45.33943547867238521575927734375" lon="-71.01107454858720302581787109375">
        <ele>868</ele>
        <time>2026-08-21T19:58:20.000Z</time>
        <extensions>
          <ns3:TrackPointExtension>
            <ns3:hr>120</ns3:hr>
            <ns3:cad>72</ns3:cad>
          </ns3:TrackPointExtension>
        </extensions>
      </trkpt>
      <trkpt lat="45.33942424692213535308837890625" lon="-71.01109600625932216644287109375">
        <ele>868.20001220703125</ele>
        <time>2026-08-21T19:58:21.000Z</time>
        <extensions>
          <ns3:TrackPointExtension>
            <ns3:hr>119</ns3:hr>
            <ns3:cad>72</ns3:cad>
          </ns3:TrackPointExtension>
        </extensions>
      </trkpt>
      <trkpt lat="45.33940848894417285919189453125" lon="-71.01112090051174163818359375">
        <ele>868.20001220703125</ele>
        <time>2026-08-21T19:58:22.000Z</time>
        <extensions>
          <ns3:TrackPointExtension>
            <ns3:hr>118</ns3:hr>
            <ns3:cad>72</ns3:cad>
          </ns3:TrackPointExtension>
        </extensions>
      </trkpt>
      <trkpt lat="45.3393938206136226654052734375" lon="-71.0111452080309391021728515625">
        <ele>868.20001220703125</ele>
        <time>2026-08-21T19:58:23.000Z</time>
        <extensions>
          <ns3:TrackPointExtension>
            <ns3:hr>118</ns3:hr>
            <ns3:cad>73</ns3:cad>
          </ns3:TrackPointExtension>
        </extensions>
      </trkpt>
      <trkpt lat="45.3393810801208019256591796875" lon="-71.01116892881691455841064453125">
        <ele>868.20001220703125</ele>
        <time>2026-08-21T19:58:24.000Z</time>
        <extensions>
          <ns3:TrackPointExtension>
            <ns3:hr>118</ns3:hr>
            <ns3:cad>73</ns3:cad>
          </ns3:TrackPointExtension>
        </extensions>
      </trkpt>
      <trkpt lat="45.339366830885410308837890625" lon="-71.01118837483227252960205078125">
        <ele>868</ele>
        <time>2026-08-21T19:58:25.000Z</time>
        <extensions>
          <ns3:TrackPointExtension>
            <ns3:hr>118</ns3:hr>
            <ns3:cad>73</ns3:cad>
          </ns3:TrackPointExtension>
        </extensions>
      </trkpt>
      <trkpt lat="45.339355766773223876953125" lon="-71.011200360953807830810546875">
        <ele>868</ele>
        <time>2026-08-21T19:58:26.000Z</time>
        <extensions>
          <ns3:TrackPointExtension>
            <ns3:hr>117</ns3:hr>
            <ns3:cad>73</ns3:cad>
          </ns3:TrackPointExtension>
        </extensions>
      </trkpt>
      <trkpt lat="45.33934528939425945281982421875" lon="-71.01120949722826480865478515625">
        <ele>867.79998779296875</ele>
        <time>2026-08-21T19:58:27.000Z</time>
        <extensions>
          <ns3:TrackPointExtension>
            <ns3:hr>118</ns3:hr>
            <ns3:cad>73</ns3:cad>
          </ns3:TrackPointExtension>
        </extensions>
      </trkpt>
      <trkpt lat="45.33932559192180633544921875" lon="-71.011222489178180694580078125">
        <ele>867.79998779296875</ele>
        <time>2026-08-21T19:58:28.000Z</time>
        <extensions>
          <ns3:TrackPointExtension>
            <ns3:hr>118</ns3:hr>
            <ns3:cad>0</ns3:cad>
          </ns3:TrackPointExtension>
        </extensions>
      </trkpt>
      <trkpt lat="45.33931008540093898773193359375" lon="-71.0112337209284305572509765625">
        <ele>868</ele>
        <time>2026-08-21T19:58:29.000Z</time>
        <extensions>
          <ns3:TrackPointExtension>
            <ns3:hr>119</ns3:hr>
            <ns3:cad>0</ns3:cad>
          </ns3:TrackPointExtension>
        </extensions>
      </trkpt>
      <trkpt lat="45.33929265104234218597412109375" lon="-71.011245287954807281494140625">
        <ele>868</ele>
        <time>2026-08-21T19:58:30.000Z</time>
        <extensions>
          <ns3:TrackPointExtension>
            <ns3:hr>119</ns3:hr>
            <ns3:cad>73</ns3:cad>
          </ns3:TrackPointExtension>
        </extensions>
      </trkpt>
      <trkpt lat="45.3392727859318256378173828125" lon="-71.011255681514739990234375">
        <ele>868</ele>
        <time>2026-08-21T19:58:31.000Z</time>
        <extensions>
          <ns3:TrackPointExtension>
            <ns3:hr>120</ns3:hr>
            <ns3:cad>73</ns3:cad>
          </ns3:TrackPointExtension>
        </extensions>
      </trkpt>
      <trkpt lat="45.33925208263099193572998046875" lon="-71.0112635605037212371826171875">
        <ele>868.20001220703125</ele>
        <time>2026-08-21T19:58:32.000Z</time>
        <extensions>
          <ns3:TrackPointExtension>
            <ns3:hr>120</ns3:hr>
            <ns3:cad>73</ns3:cad>
          </ns3:TrackPointExtension>
        </extensions>
      </trkpt>
      <trkpt lat="45.339227356016635894775390625" lon="-71.01126582361757755279541015625">
        <ele>868.20001220703125</ele>
        <time>2026-08-21T19:58:33.000Z</time>
        <extensions>
          <ns3:TrackPointExtension>
            <ns3:hr>120</ns3:hr>
            <ns3:cad>73</ns3:cad>
          </ns3:TrackPointExtension>
        </extensions>
      </trkpt>
      <trkpt lat="45.3392104245722293853759765625" lon="-71.0112719424068927764892578125">
        <ele>868.20001220703125</ele>
        <time>2026-08-21T19:58:34.000Z</time>
        <extensions>
          <ns3:TrackPointExtension>
            <ns3:hr>120</ns3:hr>
            <ns3:cad>73</ns3:cad>
          </ns3:TrackPointExtension>
        </extensions>
      </trkpt>
      <trkpt lat="45.33919022418558597564697265625" lon="-71.011277474462985992431640625">
        <ele>868.20001220703125</ele>
        <time>2026-08-21T19:58:35.000Z</time>
        <extensions>
          <ns3:TrackPointExtension>
            <ns3:hr>121</ns3:hr>
            <ns3:cad>76</ns3:cad>
          </ns3:TrackPointExtension>
        </extensions>
      </trkpt>
      <trkpt lat="45.3391711972653865814208984375" lon="-71.01127780973911285400390625">
        <ele>868</ele>
        <time>2026-08-21T19:58:36.000Z</time>
        <extensions>
          <ns3:TrackPointExtension>
            <ns3:hr>121</ns3:hr>
            <ns3:cad>76</ns3:cad>
          </ns3:TrackPointExtension>
        </extensions>
      </trkpt>
      <trkpt lat="45.3391520865261554718017578125" lon="-71.0112789832055568695068359375">
        <ele>867.79998779296875</ele>
        <time>2026-08-21T19:58:37.000Z</time>
        <extensions>
          <ns3:TrackPointExtension>
            <ns3:hr>122</ns3:hr>
            <ns3:cad>77</ns3:cad>
          </ns3:TrackPointExtension>
        </extensions>
      </trkpt>
      <trkpt lat="45.33913942985236644744873046875" lon="-71.01128744892776012420654296875">
        <ele>867.79998779296875</ele>
        <time>2026-08-21T19:58:38.000Z</time>
        <extensions>
          <ns3:TrackPointExtension>
            <ns3:hr>122</ns3:hr>
            <ns3:cad>77</ns3:cad>
          </ns3:TrackPointExtension>
        </extensions>
      </trkpt>
      <trkpt lat="45.33912635408341884613037109375" lon="-71.01128694601356983184814453125">
        <ele>867.4000244140625</ele>
        <time>2026-08-21T19:58:39.000Z</time>
        <extensions>
          <ns3:TrackPointExtension>
            <ns3:hr>123</ns3:hr>
            <ns3:cad>77</ns3:cad>
          </ns3:TrackPointExtension>
        </extensions>
      </trkpt>
      <trkpt lat="45.3391145355999469757080078125" lon="-71.01128719747066497802734375">
        <ele>867.20001220703125</ele>
        <time>2026-08-21T19:58:40.000Z</time>
        <extensions>
          <ns3:TrackPointExtension>
            <ns3:hr>123</ns3:hr>
            <ns3:cad>74</ns3:cad>
          </ns3:TrackPointExtension>
        </extensions>
      </trkpt>
      <trkpt lat="45.3391031362116336822509765625" lon="-71.011280827224254608154296875">
        <ele>867</ele>
        <time>2026-08-21T19:58:41.000Z</time>
        <extensions>
          <ns3:TrackPointExtension>
            <ns3:hr>123</ns3:hr>
            <ns3:cad>74</ns3:cad>
          </ns3:TrackPointExtension>
        </extensions>
      </trkpt>
      <trkpt lat="45.33908980898559093475341796875" lon="-71.01126984693109989166259765625">
        <ele>866.79998779296875</ele>
        <time>2026-08-21T19:58:42.000Z</time>
        <extensions>
          <ns3:TrackPointExtension>
            <ns3:hr>124</ns3:hr>
            <ns3:cad>68</ns3:cad>
          </ns3:TrackPointExtension>
        </extensions>
      </trkpt>
      <trkpt lat="45.33907773904502391815185546875" lon="-71.01125811226665973663330078125">
        <ele>866.5999755859375</ele>
        <time>2026-08-21T19:58:43.000Z</time>
        <extensions>
          <ns3:TrackPointExtension>
            <ns3:hr>124</ns3:hr>
            <ns3:cad>68</ns3:cad>
          </ns3:TrackPointExtension>
        </extensions>
      </trkpt>
      <trkpt lat="45.33905711956322193145751953125" lon="-71.01124352775514125823974609375">
        <ele>866.4000244140625</ele>
        <time>2026-08-21T19:58:44.000Z</time>
        <extensions>
          <ns3:TrackPointExtension>
            <ns3:hr>125</ns3:hr>
            <ns3:cad>68</ns3:cad>
          </ns3:TrackPointExtension>
        </extensions>
      </trkpt>
      <trkpt lat="45.3390417806804180145263671875" lon="-71.0112357325851917266845703125">
        <ele>866.4000244140625</ele>
        <time>2026-08-21T19:58:45.000Z</time>
        <extensions>
          <ns3:TrackPointExtension>
            <ns3:hr>126</ns3:hr>
            <ns3:cad>68</ns3:cad>
          </ns3:TrackPointExtension>
        </extensions>
      </trkpt>
      <trkpt lat="45.3390206582844257354736328125" lon="-71.011221818625926971435546875">
        <ele>866.20001220703125</ele>
        <time>2026-08-21T19:58:46.000Z</time>
        <extensions>
          <ns3:TrackPointExtension>
            <ns3:hr>127</ns3:hr>
            <ns3:cad>68</ns3:cad>
          </ns3:TrackPointExtension>
        </extensions>
      </trkpt>
      <trkpt lat="45.33900314010679721832275390625" lon="-71.01121704094111919403076171875">
        <ele>866.20001220703125</ele>
        <time>2026-08-21T19:58:47.000Z</time>
        <extensions>
          <ns3:TrackPointExtension>
            <ns3:hr>127</ns3:hr>
            <ns3:cad>75</ns3:cad>
          </ns3:TrackPointExtension>
        </extensions>
      </trkpt>
      <trkpt lat="45.338985621929168701171875" lon="-71.0112052224576473236083984375">
        <ele>866.20001220703125</ele>
        <time>2026-08-21T19:58:48.000Z</time>
        <extensions>
          <ns3:TrackPointExtension>
            <ns3:hr>127</ns3:hr>
            <ns3:cad>75</ns3:cad>
          </ns3:TrackPointExtension>
        </extensions>
      </trkpt>
      <trkpt lat="45.33896743319928646087646484375" lon="-71.01119424216449260711669921875">
        <ele>866</ele>
        <time>2026-08-21T19:58:49.000Z</time>
        <extensions>
          <ns3:TrackPointExtension>
            <ns3:hr>127</ns3:hr>
            <ns3:cad>75</ns3:cad>
          </ns3:TrackPointExtension>
        </extensions>
      </trkpt>
      <trkpt lat="45.3389512561261653900146484375" lon="-71.01118586026132106781005859375">
        <ele>866</ele>
        <time>2026-08-21T19:58:50.000Z</time>
        <extensions>
          <ns3:TrackPointExtension>
            <ns3:hr>126</ns3:hr>
            <ns3:cad>75</ns3:cad>
          </ns3:TrackPointExtension>
        </extensions>
      </trkpt>
      <trkpt lat="45.3389346599578857421875" lon="-71.011175215244293212890625">
        <ele>866</ele>
        <time>2026-08-21T19:58:51.000Z</time>
        <extensions>
          <ns3:TrackPointExtension>
            <ns3:hr>126</ns3:hr>
            <ns3:cad>75</ns3:cad>
          </ns3:TrackPointExtension>
        </extensions>
      </trkpt>
      <trkpt lat="45.338918231427669525146484375" lon="-71.011164486408233642578125">
        <ele>866</ele>
        <time>2026-08-21T19:58:52.000Z</time>
        <extensions>
          <ns3:TrackPointExtension>
            <ns3:hr>126</ns3:hr>
            <ns3:cad>75</ns3:cad>
          </ns3:TrackPointExtension>
        </extensions>
      </trkpt>
      <trkpt lat="45.3389019705355167388916015625" lon="-71.011149398982524871826171875">
        <ele>866</ele>
        <time>2026-08-21T19:58:53.000Z</time>
        <extensions>
          <ns3:TrackPointExtension>
            <ns3:hr>125</ns3:hr>
            <ns3:cad>75</ns3:cad>
          </ns3:TrackPointExtension>
        </extensions>
      </trkpt>
      <trkpt lat="45.3388877213001251220703125" lon="-71.01113825105130672454833984375">
        <ele>866</ele>
        <time>2026-08-21T19:58:54.000Z</time>
        <extensions>
          <ns3:TrackPointExtension>
            <ns3:hr>125</ns3:hr>
            <ns3:cad>73</ns3:cad>
          </ns3:TrackPointExtension>
        </extensions>
      </trkpt>
      <trkpt lat="45.3388728015124797821044921875" lon="-71.01112567819654941558837890625">
        <ele>866</ele>
        <time>2026-08-21T19:58:55.000Z</time>
        <extensions>
          <ns3:TrackPointExtension>
            <ns3:hr>124</ns3:hr>
            <ns3:cad>73</ns3:cad>
          </ns3:TrackPointExtension>
        </extensions>
      </trkpt>
      <trkpt lat="45.3388582170009613037109375" lon="-71.01111427880823612213134765625">
        <ele>866</ele>
        <time>2026-08-21T19:58:56.000Z</time>
        <extensions>
          <ns3:TrackPointExtension>
            <ns3:hr>124</ns3:hr>
            <ns3:cad>73</ns3:cad>
          </ns3:TrackPointExtension>
        </extensions>
      </trkpt>
      <trkpt lat="45.33884438686072826385498046875" lon="-71.01110204122960567474365234375">
        <ele>866</ele>
        <time>2026-08-21T19:58:57.000Z</time>
        <extensions>
          <ns3:TrackPointExtension>
            <ns3:hr>124</ns3:hr>
            <ns3:cad>73</ns3:cad>
          </ns3:TrackPointExtension>
        </extensions>
      </trkpt>
      <trkpt lat="45.3388295508921146392822265625" lon="-71.0110875405371189117431640625">
        <ele>866</ele>
        <time>2026-08-21T19:58:58.000Z</time>
        <extensions>
          <ns3:TrackPointExtension>
            <ns3:hr>124</ns3:hr>
            <ns3:cad>73</ns3:cad>
          </ns3:TrackPointExtension>
        </extensions>
      </trkpt>
      <trkpt lat="45.33881857059895992279052734375" lon="-71.0110697709023952484130859375">
        <ele>866.20001220703125</ele>
        <time>2026-08-21T19:58:59.000Z</time>
        <extensions>
          <ns3:TrackPointExtension>
            <ns3:hr>124</ns3:hr>
            <ns3:cad>73</ns3:cad>
          </ns3:TrackPointExtension>
        </extensions>
      </trkpt>
      <trkpt lat="45.33880867995321750640869140625" lon="-71.01105359382927417755126953125">
        <ele>866.20001220703125</ele>
        <time>2026-08-21T19:59:00.000Z</time>
        <extensions>
          <ns3:TrackPointExtension>
            <ns3:hr>123</ns3:hr>
            <ns3:cad>72</ns3:cad>
          </ns3:TrackPointExtension>
        </extensions>
      </trkpt>
      <trkpt lat="45.33879828639328479766845703125" lon="-71.011035740375518798828125">
        <ele>866.20001220703125</ele>
        <time>2026-08-21T19:59:01.000Z</time>
        <extensions>
          <ns3:TrackPointExtension>
            <ns3:hr>124</ns3:hr>
            <ns3:cad>72</ns3:cad>
          </ns3:TrackPointExtension>
        </extensions>
      </trkpt>
      <trkpt lat="45.3387826122343540191650390625" lon="-71.01102107204496860504150390625">
        <ele>866.20001220703125</ele>
        <time>2026-08-21T19:59:02.000Z</time>
        <extensions>
          <ns3:TrackPointExtension>
            <ns3:hr>124</ns3:hr>
            <ns3:cad>72</ns3:cad>
          </ns3:TrackPointExtension>
        </extensions>
      </trkpt>
      <trkpt lat="45.33876878209412097930908203125" lon="-71.01101771928369998931884765625">
        <ele>866.20001220703125</ele>
        <time>2026-08-21T19:59:03.000Z</time>
        <extensions>
          <ns3:TrackPointExtension>
            <ns3:hr>124</ns3:hr>
            <ns3:cad>72</ns3:cad>
          </ns3:TrackPointExtension>
        </extensions>
      </trkpt>
      <trkpt lat="45.33875570632517337799072265625" lon="-71.01101403124630451202392578125">
        <ele>866.4000244140625</ele>
        <time>2026-08-21T19:59:04.000Z</time>
        <extensions>
          <ns3:TrackPointExtension>
            <ns3:hr>124</ns3:hr>
            <ns3:cad>70</ns3:cad>
          </ns3:TrackPointExtension>
        </extensions>
      </trkpt>
      <trkpt lat="45.3387440554797649383544921875" lon="-71.01100347004830837249755859375">
        <ele>866.4000244140625</ele>
        <time>2026-08-21T19:59:05.000Z</time>
        <extensions>
          <ns3:TrackPointExtension>
            <ns3:hr>123</ns3:hr>
            <ns3:cad>70</ns3:cad>
          </ns3:TrackPointExtension>
        </extensions>
      </trkpt>
      <trkpt lat="45.3387309797108173370361328125" lon="-71.0109946690499782562255859375">
        <ele>866.4000244140625</ele>
        <time>2026-08-21T19:59:06.000Z</time>
        <extensions>
          <ns3:TrackPointExtension>
            <ns3:hr>124</ns3:hr>
            <ns3:cad>70</ns3:cad>
          </ns3:TrackPointExtension>
        </extensions>
      </trkpt>
      <trkpt lat="45.3387202508747577667236328125" lon="-71.01098720915615558624267578125">
        <ele>866.5999755859375</ele>
        <time>2026-08-21T19:59:07.000Z</time>
        <extensions>
          <ns3:TrackPointExtension>
            <ns3:hr>124</ns3:hr>
            <ns3:cad>60</ns3:cad>
          </ns3:TrackPointExtension>
        </extensions>
      </trkpt>
      <trkpt lat="45.3387078456580638885498046875" lon="-71.01097815670073032379150390625">
        <ele>866.5999755859375</ele>
        <time>2026-08-21T19:59:08.000Z</time>
        <extensions>
          <ns3:TrackPointExtension>
            <ns3:hr>123</ns3:hr>
            <ns3:cad>60</ns3:cad>
          </ns3:TrackPointExtension>
        </extensions>
      </trkpt>
      <trkpt lat="45.33869485370814800262451171875" lon="-71.01096667349338531494140625">
        <ele>866.5999755859375</ele>
        <time>2026-08-21T19:59:09.000Z</time>
        <extensions>
          <ns3:TrackPointExtension>
            <ns3:hr>123</ns3:hr>
            <ns3:cad>58</ns3:cad>
          </ns3:TrackPointExtension>
        </extensions>
      </trkpt>
      <trkpt lat="45.33868253231048583984375" lon="-71.01095938123762607574462890625">
        <ele>866.5999755859375</ele>
        <time>2026-08-21T19:59:10.000Z</time>
        <extensions>
          <ns3:TrackPointExtension>
            <ns3:hr>123</ns3:hr>
            <ns3:cad>58</ns3:cad>
          </ns3:TrackPointExtension>
        </extensions>
      </trkpt>
      <trkpt lat="45.33867004327476024627685546875" lon="-71.01095016114413738250732421875">
        <ele>866.5999755859375</ele>
        <time>2026-08-21T19:59:11.000Z</time>
        <extensions>
          <ns3:TrackPointExtension>
            <ns3:hr>124</ns3:hr>
            <ns3:cad>57</ns3:cad>
          </ns3:TrackPointExtension>
        </extensions>
      </trkpt>
      <trkpt lat="45.33865713514387607574462890625" lon="-71.0109403543174266815185546875">
        <ele>866.5999755859375</ele>
        <time>2026-08-21T19:59:12.000Z</time>
        <extensions>
          <ns3:TrackPointExtension>
            <ns3:hr>124</ns3:hr>
            <ns3:cad>57</ns3:cad>
          </ns3:TrackPointExtension>
        </extensions>
      </trkpt>
      <trkpt lat="45.33864238299429416656494140625" lon="-71.01093708537518978118896484375">
        <ele>866.5999755859375</ele>
        <time>2026-08-21T19:59:13.000Z</time>
        <extensions>
          <ns3:TrackPointExtension>
            <ns3:hr>123</ns3:hr>
            <ns3:cad>57</ns3:cad>
          </ns3:TrackPointExtension>
        </extensions>
      </trkpt>
      <trkpt lat="45.33862930722534656524658203125" lon="-71.0109319724142551422119140625">
        <ele>866.79998779296875</ele>
        <time>2026-08-21T19:59:14.000Z</time>
        <extensions>
          <ns3:TrackPointExtension>
            <ns3:hr>123</ns3:hr>
            <ns3:cad>56</ns3:cad>
          </ns3:TrackPointExtension>
        </extensions>
      </trkpt>
      <trkpt lat="45.33861908130347728729248046875" lon="-71.01092685945332050323486328125">
        <ele>866.79998779296875</ele>
        <time>2026-08-21T19:59:15.000Z</time>
        <extensions>
          <ns3:TrackPointExtension>
            <ns3:hr>122</ns3:hr>
            <ns3:cad>56</ns3:cad>
          </ns3:TrackPointExtension>
        </extensions>
      </trkpt>
      <trkpt lat="45.3386065922677516937255859375" lon="-71.0109148733317852020263671875">
        <ele>866.79998779296875</ele>
        <time>2026-08-21T19:59:16.000Z</time>
        <extensions>
          <ns3:TrackPointExtension>
            <ns3:hr>122</ns3:hr>
            <ns3:cad>56</ns3:cad>
          </ns3:TrackPointExtension>
        </extensions>
      </trkpt>
      <trkpt lat="45.3385968692600727081298828125" lon="-71.01090766489505767822265625">
        <ele>867</ele>
        <time>2026-08-21T19:59:17.000Z</time>
        <extensions>
          <ns3:TrackPointExtension>
            <ns3:hr>122</ns3:hr>
            <ns3:cad>56</ns3:cad>
          </ns3:TrackPointExtension>
        </extensions>
      </trkpt>
      <trkpt lat="45.33858396112918853759765625" lon="-71.01090020500123500823974609375">
        <ele>867.20001220703125</ele>
        <time>2026-08-21T19:59:18.000Z</time>
        <extensions>
          <ns3:TrackPointExtension>
            <ns3:hr>122</ns3:hr>
            <ns3:cad>56</ns3:cad>
          </ns3:TrackPointExtension>
        </extensions>
      </trkpt>
      <trkpt lat="45.33857063390314579010009765625" lon="-71.01089282892644405364990234375">
        <ele>867.4000244140625</ele>
        <time>2026-08-21T19:59:19.000Z</time>
        <extensions>
          <ns3:TrackPointExtension>
            <ns3:hr>122</ns3:hr>
            <ns3:cad>55</ns3:cad>
          </ns3:TrackPointExtension>
        </extensions>
      </trkpt>
      <trkpt lat="45.3385583125054836273193359375" lon="-71.01088042370975017547607421875">
        <ele>867.5999755859375</ele>
        <time>2026-08-21T19:59:20.000Z</time>
        <extensions>
          <ns3:TrackPointExtension>
            <ns3:hr>122</ns3:hr>
            <ns3:cad>55</ns3:cad>
          </ns3:TrackPointExtension>
        </extensions>
      </trkpt>
      <trkpt lat="45.33854984678328037261962890625" lon="-71.0108662582933902740478515625">
        <ele>867.5999755859375</ele>
        <time>2026-08-21T19:59:21.000Z</time>
        <extensions>
          <ns3:TrackPointExtension>
            <ns3:hr>122</ns3:hr>
            <ns3:cad>55</ns3:cad>
          </ns3:TrackPointExtension>
        </extensions>
      </trkpt>
      <trkpt lat="45.338540039956569671630859375" lon="-71.010853350162506103515625">
        <ele>867.79998779296875</ele>
        <time>2026-08-21T19:59:22.000Z</time>
        <extensions>
          <ns3:TrackPointExtension>
            <ns3:hr>122</ns3:hr>
            <ns3:cad>55</ns3:cad>
          </ns3:TrackPointExtension>
        </extensions>
      </trkpt>
      <trkpt lat="45.33852671273052692413330078125" lon="-71.01084622554481029510498046875">
        <ele>867.79998779296875</ele>
        <time>2026-08-21T19:59:23.000Z</time>
        <extensions>
          <ns3:TrackPointExtension>
            <ns3:hr>122</ns3:hr>
            <ns3:cad>55</ns3:cad>
          </ns3:TrackPointExtension>
        </extensions>
      </trkpt>
      <trkpt lat="45.33851422369480133056640625" lon="-71.0108421184122562408447265625">
        <ele>867.79998779296875</ele>
        <time>2026-08-21T19:59:24.000Z</time>
        <extensions>
          <ns3:TrackPointExtension>
            <ns3:hr>123</ns3:hr>
            <ns3:cad>55</ns3:cad>
          </ns3:TrackPointExtension>
        </extensions>
      </trkpt>
      <trkpt lat="45.33850349485874176025390625" lon="-71.0108521766960620880126953125">
        <ele>868</ele>
        <time>2026-08-21T19:59:25.000Z</time>
        <extensions>
          <ns3:TrackPointExtension>
            <ns3:hr>123</ns3:hr>
            <ns3:cad>55</ns3:cad>
          </ns3:TrackPointExtension>
        </extensions>
      </trkpt>
      <trkpt lat="45.33849217928946018218994140625" lon="-71.01084689609706401824951171875">
        <ele>868</ele>
        <time>2026-08-21T19:59:26.000Z</time>
        <extensions>
          <ns3:TrackPointExtension>
            <ns3:hr>123</ns3:hr>
            <ns3:cad>54</ns3:cad>
          </ns3:TrackPointExtension>
        </extensions>
      </trkpt>
      <trkpt lat="45.3384818695485591888427734375" lon="-71.010835580527782440185546875">
        <ele>867.79998779296875</ele>
        <time>2026-08-21T19:59:27.000Z</time>
        <extensions>
          <ns3:TrackPointExtension>
            <ns3:hr>123</ns3:hr>
            <ns3:cad>54</ns3:cad>
          </ns3:TrackPointExtension>
        </extensions>
      </trkpt>
      <trkpt lat="45.33846703357994556427001953125" lon="-71.010826528072357177734375">
        <ele>867.79998779296875</ele>
        <time>2026-08-21T19:59:28.000Z</time>
        <extensions>
          <ns3:TrackPointExtension>
            <ns3:hr>124</ns3:hr>
            <ns3:cad>54</ns3:cad>
          </ns3:TrackPointExtension>
        </extensions>
      </trkpt>
      <trkpt lat="45.33845177851617336273193359375" lon="-71.01081688888370990753173828125">
        <ele>867.5999755859375</ele>
        <time>2026-08-21T19:59:29.000Z</time>
        <extensions>
          <ns3:TrackPointExtension>
            <ns3:hr>124</ns3:hr>
            <ns3:cad>54</ns3:cad>
          </ns3:TrackPointExtension>
        </extensions>
      </trkpt>
      <trkpt lat="45.3384372778236865997314453125" lon="-71.01080766879022121429443359375">
        <ele>867.5999755859375</ele>
        <time>2026-08-21T19:59:30.000Z</time>
        <extensions>
          <ns3:TrackPointExtension>
            <ns3:hr>124</ns3:hr>
            <ns3:cad>54</ns3:cad>
          </ns3:TrackPointExtension>
        </extensions>
      </trkpt>
      <trkpt lat="45.33842160366475582122802734375" lon="-71.01080171763896942138671875">
        <ele>867.5999755859375</ele>
        <time>2026-08-21T19:59:31.000Z</time>
        <extensions>
          <ns3:TrackPointExtension>
            <ns3:hr>125</ns3:hr>
            <ns3:cad>55</ns3:cad>
          </ns3:TrackPointExtension>
        </extensions>
      </trkpt>
      <trkpt lat="45.338407270610332489013671875" lon="-71.010797359049320220947265625">
        <ele>867.79998779296875</ele>
        <time>2026-08-21T19:59:32.000Z</time>
        <extensions>
          <ns3:TrackPointExtension>
            <ns3:hr>125</ns3:hr>
            <ns3:cad>55</ns3:cad>
          </ns3:TrackPointExtension>
        </extensions>
      </trkpt>
      <trkpt lat="45.33838790841400623321533203125" lon="-71.01078294217586517333984375">
        <ele>867.79998779296875</ele>
        <time>2026-08-21T19:59:33.000Z</time>
        <extensions>
          <ns3:TrackPointExtension>
            <ns3:hr>125</ns3:hr>
            <ns3:cad>55</ns3:cad>
          </ns3:TrackPointExtension>
        </extensions>
      </trkpt>
      <trkpt lat="45.33837701193988323211669921875" lon="-71.0107700340449810028076171875">
        <ele>867.79998779296875</ele>
        <time>2026-08-21T19:59:34.000Z</time>
        <extensions>
          <ns3:TrackPointExtension>
            <ns3:hr>125</ns3:hr>
            <ns3:cad>55</ns3:cad>
          </ns3:TrackPointExtension>
        </extensions>
      </trkpt>
      <trkpt lat="45.33836410380899906158447265625" lon="-71.0107566229999065399169921875">
        <ele>867.79998779296875</ele>
        <time>2026-08-21T19:59:35.000Z</time>
        <extensions>
          <ns3:TrackPointExtension>
            <ns3:hr>125</ns3:hr>
            <ns3:cad>55</ns3:cad>
          </ns3:TrackPointExtension>
        </extensions>
      </trkpt>
      <trkpt lat="45.33835387788712978363037109375" lon="-71.0107433795928955078125">
        <ele>867.79998779296875</ele>
        <time>2026-08-21T19:59:36.000Z</time>
        <extensions>
          <ns3:TrackPointExtension>
            <ns3:hr>125</ns3:hr>
            <ns3:cad>55</ns3:cad>
          </ns3:TrackPointExtension>
        </extensions>
      </trkpt>
      <trkpt lat="45.33834499306976795196533203125" lon="-71.01072954945266246795654296875">
        <ele>867.5999755859375</ele>
        <time>2026-08-21T19:59:37.000Z</time>
        <extensions>
          <ns3:TrackPointExtension>
            <ns3:hr>126</ns3:hr>
            <ns3:cad>55</ns3:cad>
          </ns3:TrackPointExtension>
        </extensions>
      </trkpt>
      <trkpt lat="45.338330827653408050537109375" lon="-71.0107133723795413970947265625">
        <ele>867.5999755859375</ele>
        <time>2026-08-21T19:59:38.000Z</time>
        <extensions>
          <ns3:TrackPointExtension>
            <ns3:hr>126</ns3:hr>
            <ns3:cad>68</ns3:cad>
          </ns3:TrackPointExtension>
        </extensions>
      </trkpt>
      <trkpt lat="45.33831632696092128753662109375" lon="-71.01069442927837371826171875">
        <ele>867.5999755859375</ele>
        <time>2026-08-21T19:59:39.000Z</time>
        <extensions>
          <ns3:TrackPointExtension>
            <ns3:hr>125</ns3:hr>
            <ns3:cad>68</ns3:cad>
          </ns3:TrackPointExtension>
        </extensions>
      </trkpt>
      <trkpt lat="45.33830023370683193206787109375" lon="-71.01068596355617046356201171875">
        <ele>867.79998779296875</ele>
        <time>2026-08-21T19:59:40.000Z</time>
        <extensions>
          <ns3:TrackPointExtension>
            <ns3:hr>125</ns3:hr>
            <ns3:cad>68</ns3:cad>
          </ns3:TrackPointExtension>
        </extensions>
      </trkpt>
      <trkpt lat="45.3382850624620914459228515625" lon="-71.01067506708204746246337890625">
        <ele>867.79998779296875</ele>
        <time>2026-08-21T19:59:41.000Z</time>
        <extensions>
          <ns3:TrackPointExtension>
            <ns3:hr>124</ns3:hr>
            <ns3:cad>68</ns3:cad>
          </ns3:TrackPointExtension>
        </extensions>
      </trkpt>
      <trkpt lat="45.33827307634055614471435546875" lon="-71.01066350005567073822021484375">
        <ele>868</ele>
        <time>2026-08-21T19:59:42.000Z</time>
        <extensions>
          <ns3:TrackPointExtension>
            <ns3:hr>124</ns3:hr>
            <ns3:cad>68</ns3:cad>
          </ns3:TrackPointExtension>
        </extensions>
      </trkpt>
      <trkpt lat="45.3382632695138454437255859375" lon="-71.01064941845834255218505859375">
        <ele>868</ele>
        <time>2026-08-21T19:59:43.000Z</time>
        <extensions>
          <ns3:TrackPointExtension>
            <ns3:hr>124</ns3:hr>
            <ns3:cad>56</ns3:cad>
          </ns3:TrackPointExtension>
        </extensions>
      </trkpt>
      <trkpt lat="45.3382518701255321502685546875" lon="-71.01063852198421955108642578125">
        <ele>868.20001220703125</ele>
        <time>2026-08-21T19:59:44.000Z</time>
        <extensions>
          <ns3:TrackPointExtension>
            <ns3:hr>123</ns3:hr>
            <ns3:cad>56</ns3:cad>
          </ns3:TrackPointExtension>
        </extensions>
      </trkpt>
      <trkpt lat="45.3382394649088382720947265625" lon="-71.0106319002807140350341796875">
        <ele>868.4000244140625</ele>
        <time>2026-08-21T19:59:45.000Z</time>
        <extensions>
          <ns3:TrackPointExtension>
            <ns3:hr>121</ns3:hr>
            <ns3:cad>0</ns3:cad>
          </ns3:TrackPointExtension>
        </extensions>
      </trkpt>
      <trkpt lat="45.3382250480353832244873046875" lon="-71.01063550449907779693603515625">
        <ele>868.4000244140625</ele>
        <time>2026-08-21T19:59:46.000Z</time>
        <extensions>
          <ns3:TrackPointExtension>
            <ns3:hr>120</ns3:hr>
            <ns3:cad>55</ns3:cad>
          </ns3:TrackPointExtension>
        </extensions>
      </trkpt>
      <trkpt lat="45.33820820041000843048095703125" lon="-71.01063030771911144256591796875">
        <ele>868.4000244140625</ele>
        <time>2026-08-21T19:59:47.000Z</time>
        <extensions>
          <ns3:TrackPointExtension>
            <ns3:hr>120</ns3:hr>
            <ns3:cad>55</ns3:cad>
          </ns3:TrackPointExtension>
        </extensions>
      </trkpt>
      <trkpt lat="45.338194370269775390625" lon="-71.0106282122433185577392578125">
        <ele>868.4000244140625</ele>
        <time>2026-08-21T19:59:48.000Z</time>
        <extensions>
          <ns3:TrackPointExtension>
            <ns3:hr>119</ns3:hr>
            <ns3:cad>55</ns3:cad>
          </ns3:TrackPointExtension>
        </extensions>
      </trkpt>
      <trkpt lat="45.338180623948574066162109375" lon="-71.010636426508426666259765625">
        <ele>868.4000244140625</ele>
        <time>2026-08-21T19:59:49.000Z</time>
        <extensions>
          <ns3:TrackPointExtension>
            <ns3:hr>119</ns3:hr>
            <ns3:cad>55</ns3:cad>
          </ns3:TrackPointExtension>
        </extensions>
      </trkpt>
      <trkpt lat="45.33816209994256496429443359375" lon="-71.010640449821949005126953125">
        <ele>868.5999755859375</ele>
        <time>2026-08-21T19:59:50.000Z</time>
        <extensions>
          <ns3:TrackPointExtension>
            <ns3:hr>119</ns3:hr>
            <ns3:cad>56</ns3:cad>
          </ns3:TrackPointExtension>
        </extensions>
      </trkpt>
      <trkpt lat="45.33814550377428531646728515625" lon="-71.01065419614315032958984375">
        <ele>868.5999755859375</ele>
        <time>2026-08-21T19:59:51.000Z</time>
        <extensions>
          <ns3:TrackPointExtension>
            <ns3:hr>119</ns3:hr>
            <ns3:cad>56</ns3:cad>
          </ns3:TrackPointExtension>
        </extensions>
      </trkpt>
      <trkpt lat="45.338135696947574615478515625" lon="-71.01066484116017818450927734375">
        <ele>868.4000244140625</ele>
        <time>2026-08-21T19:59:52.000Z</time>
        <extensions>
          <ns3:TrackPointExtension>
            <ns3:hr>122</ns3:hr>
            <ns3:cad>56</ns3:cad>
          </ns3:TrackPointExtension>
        </extensions>
      </trkpt>
      <trkpt lat="45.3381261415779590606689453125" lon="-71.01068160496652126312255859375">
        <ele>868.4000244140625</ele>
        <time>2026-08-21T19:59:53.000Z</time>
        <extensions>
          <ns3:TrackPointExtension>
            <ns3:hr>123</ns3:hr>
            <ns3:cad>56</ns3:cad>
          </ns3:TrackPointExtension>
        </extensions>
      </trkpt>
      <trkpt lat="45.33812002278864383697509765625" lon="-71.01070222444832324981689453125">
        <ele>868.20001220703125</ele>
        <time>2026-08-21T19:59:54.000Z</time>
        <extensions>
          <ns3:TrackPointExtension>
            <ns3:hr>125</ns3:hr>
            <ns3:cad>56</ns3:cad>
          </ns3:TrackPointExtension>
        </extensions>
      </trkpt>
      <trkpt lat="45.33811650238931179046630859375" lon="-71.010717563331127166748046875">
        <ele>868</ele>
        <time>2026-08-21T19:59:55.000Z</time>
        <extensions>
          <ns3:TrackPointExtension>
            <ns3:hr>125</ns3:hr>
            <ns3:cad>57</ns3:cad>
          </ns3:TrackPointExtension>
        </extensions>
      </trkpt>
      <trkpt lat="45.3381107188761234283447265625" lon="-71.0107408650219440460205078125">
        <ele>868</ele>
        <time>2026-08-21T19:59:56.000Z</time>
        <extensions>
          <ns3:TrackPointExtension>
            <ns3:hr>126</ns3:hr>
            <ns3:cad>58</ns3:cad>
          </ns3:TrackPointExtension>
        </extensions>
      </trkpt>
      <trkpt lat="45.33810594119131565093994140625" lon="-71.01075704209506511688232421875">
        <ele>867.79998779296875</ele>
        <time>2026-08-21T19:59:57.000Z</time>
        <extensions>
          <ns3:TrackPointExtension>
            <ns3:hr>128</ns3:hr>
            <ns3:cad>58</ns3:cad>
          </ns3:TrackPointExtension>
        </extensions>
      </trkpt>
      <trkpt lat="45.3381013311445713043212890625" lon="-71.01077020168304443359375">
        <ele>867.79998779296875</ele>
        <time>2026-08-21T19:59:58.000Z</time>
        <extensions>
          <ns3:TrackPointExtension>
            <ns3:hr>128</ns3:hr>
            <ns3:cad>58</ns3:cad>
          </ns3:TrackPointExtension>
        </extensions>
      </trkpt>
      <trkpt lat="45.33810057677328586578369140625" lon="-71.0107713751494884490966796875">
        <ele>867.5999755859375</ele>
        <time>2026-08-21T19:59:59.000Z</time>
        <extensions>
          <ns3:TrackPointExtension>
            <ns3:hr>127</ns3:hr>
            <ns3:cad>58</ns3:cad>
          </ns3:TrackPointExtension>
        </extensions>
      </trkpt>
      <trkpt lat="45.3380993194878101348876953125" lon="-71.0107623226940631866455078125">
        <ele>867.5999755859375</ele>
        <time>2026-08-21T20:00:00.000Z</time>
        <extensions>
          <ns3:TrackPointExtension>
            <ns3:hr>127</ns3:hr>
            <ns3:cad>59</ns3:cad>
          </ns3:TrackPointExtension>
        </extensions>
      </trkpt>
      <trkpt lat="45.33810518682003021240234375" lon="-71.0107613168656826019287109375">
        <ele>867.4000244140625</ele>
        <time>2026-08-21T20:00:01.000Z</time>
        <extensions>
          <ns3:TrackPointExtension>
            <ns3:hr>126</ns3:hr>
            <ns3:cad>59</ns3:cad>
          </ns3:TrackPointExtension>
        </extensions>
      </trkpt>
      <trkpt lat="45.33810384571552276611328125" lon="-71.01076777093112468719482421875">
        <ele>867.4000244140625</ele>
        <time>2026-08-21T20:00:02.000Z</time>
        <extensions>
          <ns3:TrackPointExtension>
            <ns3:hr>126</ns3:hr>
            <ns3:cad>59</ns3:cad>
          </ns3:TrackPointExtension>
        </extensions>
      </trkpt>
      <trkpt lat="45.3380963020026683807373046875" lon="-71.01077355444431304931640625">
        <ele>867.4000244140625</ele>
        <time>2026-08-21T20:00:03.000Z</time>
        <extensions>
          <ns3:TrackPointExtension>
            <ns3:hr>126</ns3:hr>
            <ns3:cad>57</ns3:cad>
          </ns3:TrackPointExtension>
        </extensions>
      </trkpt>
      <trkpt lat="45.33808968029916286468505859375" lon="-71.01079140789806842803955078125">
        <ele>867.4000244140625</ele>
        <time>2026-08-21T20:00:04.000Z</time>
        <extensions>
          <ns3:TrackPointExtension>
            <ns3:hr>126</ns3:hr>
            <ns3:cad>57</ns3:cad>
          </ns3:TrackPointExtension>
        </extensions>
      </trkpt>
      <trkpt lat="45.33808481879532337188720703125" lon="-71.0108102671802043914794921875">
        <ele>867.20001220703125</ele>
        <time>2026-08-21T20:00:05.000Z</time>
        <extensions>
          <ns3:TrackPointExtension>
            <ns3:hr>126</ns3:hr>
            <ns3:cad>57</ns3:cad>
          </ns3:TrackPointExtension>
        </extensions>
      </trkpt>
      <trkpt lat="45.3380808793008327484130859375" lon="-71.0108278691768646240234375">
        <ele>867</ele>
        <time>2026-08-21T20:00:06.000Z</time>
        <extensions>
          <ns3:TrackPointExtension>
            <ns3:hr>125</ns3:hr>
            <ns3:cad>57</ns3:cad>
          </ns3:TrackPointExtension>
        </extensions>
      </trkpt>
      <trkpt lat="45.33807626925408840179443359375" lon="-71.01084488444030284881591796875">
        <ele>866.79998779296875</ele>
        <time>2026-08-21T20:00:07.000Z</time>
        <extensions>
          <ns3:TrackPointExtension>
            <ns3:hr>125</ns3:hr>
            <ns3:cad>59</ns3:cad>
          </ns3:TrackPointExtension>
        </extensions>
      </trkpt>
      <trkpt lat="45.338069312274456024169921875" lon="-71.010864414274692535400390625">
        <ele>866.5999755859375</ele>
        <time>2026-08-21T20:00:08.000Z</time>
        <extensions>
          <ns3:TrackPointExtension>
            <ns3:hr>125</ns3:hr>
            <ns3:cad>59</ns3:cad>
          </ns3:TrackPointExtension>
        </extensions>
      </trkpt>
      <trkpt lat="45.33805958926677703857421875" lon="-71.0108853690326213836669921875">
        <ele>866.4000244140625</ele>
        <time>2026-08-21T20:00:09.000Z</time>
        <extensions>
          <ns3:TrackPointExtension>
            <ns3:hr>124</ns3:hr>
            <ns3:cad>59</ns3:cad>
          </ns3:TrackPointExtension>
        </extensions>
      </trkpt>
      <trkpt lat="45.3380537219345569610595703125" lon="-71.01090339012444019317626953125">
        <ele>866.4000244140625</ele>
        <time>2026-08-21T20:00:10.000Z</time>
        <extensions>
          <ns3:TrackPointExtension>
            <ns3:hr>124</ns3:hr>
            <ns3:cad>57</ns3:cad>
          </ns3:TrackPointExtension>
        </extensions>
      </trkpt>
      <trkpt lat="45.33804659731686115264892578125" lon="-71.01091696880757808685302734375">
        <ele>866.4000244140625</ele>
        <time>2026-08-21T20:00:11.000Z</time>
        <extensions>
          <ns3:TrackPointExtension>
            <ns3:hr>123</ns3:hr>
            <ns3:cad>57</ns3:cad>
          </ns3:TrackPointExtension>
        </extensions>
      </trkpt>
      <trkpt lat="45.33803880214691162109375" lon="-71.01093071512877941131591796875">
        <ele>866.20001220703125</ele>
        <time>2026-08-21T20:00:12.000Z</time>
        <extensions>
          <ns3:TrackPointExtension>
            <ns3:hr>123</ns3:hr>
            <ns3:cad>57</ns3:cad>
          </ns3:TrackPointExtension>
        </extensions>
      </trkpt>
      <trkpt lat="45.33802933059632778167724609375" lon="-71.01094932295382022857666015625">
        <ele>866.20001220703125</ele>
        <time>2026-08-21T20:00:13.000Z</time>
        <extensions>
          <ns3:TrackPointExtension>
            <ns3:hr>123</ns3:hr>
            <ns3:cad>57</ns3:cad>
          </ns3:TrackPointExtension>
        </extensions>
      </trkpt>
      <trkpt lat="45.3380232118070125579833984375" lon="-71.0109648294746875762939453125">
        <ele>866.20001220703125</ele>
        <time>2026-08-21T20:00:14.000Z</time>
        <extensions>
          <ns3:TrackPointExtension>
            <ns3:hr>124</ns3:hr>
            <ns3:cad>57</ns3:cad>
          </ns3:TrackPointExtension>
        </extensions>
      </trkpt>
      <trkpt lat="45.33801533281803131103515625" lon="-71.01097782142460346221923828125">
        <ele>866.20001220703125</ele>
        <time>2026-08-21T20:00:15.000Z</time>
        <extensions>
          <ns3:TrackPointExtension>
            <ns3:hr>125</ns3:hr>
            <ns3:cad>57</ns3:cad>
          </ns3:TrackPointExtension>
        </extensions>
      </trkpt>
      <trkpt lat="45.33800871111452579498291015625" lon="-71.01099307648837566375732421875">
        <ele>866</ele>
        <time>2026-08-21T20:00:16.000Z</time>
        <extensions>
          <ns3:TrackPointExtension>
            <ns3:hr>126</ns3:hr>
            <ns3:cad>57</ns3:cad>
          </ns3:TrackPointExtension>
        </extensions>
      </trkpt>
      <trkpt lat="45.338000915944576263427734375" lon="-71.01101067848503589630126953125">
        <ele>866</ele>
        <time>2026-08-21T20:00:17.000Z</time>
        <extensions>
          <ns3:TrackPointExtension>
            <ns3:hr>126</ns3:hr>
            <ns3:cad>56</ns3:cad>
          </ns3:TrackPointExtension>
        </extensions>
      </trkpt>
      <trkpt lat="45.337993539869785308837890625" lon="-71.01102911867201328277587890625">
        <ele>865.79998779296875</ele>
        <time>2026-08-21T20:00:18.000Z</time>
        <extensions>
          <ns3:TrackPointExtension>
            <ns3:hr>126</ns3:hr>
            <ns3:cad>56</ns3:cad>
          </ns3:TrackPointExtension>
        </extensions>
      </trkpt>
      <trkpt lat="45.33798859454691410064697265625" lon="-71.01104579865932464599609375">
        <ele>865.5999755859375</ele>
        <time>2026-08-21T20:00:19.000Z</time>
        <extensions>
          <ns3:TrackPointExtension>
            <ns3:hr>127</ns3:hr>
            <ns3:cad>55</ns3:cad>
          </ns3:TrackPointExtension>
        </extensions>
      </trkpt>
      <trkpt lat="45.33798105083405971527099609375" lon="-71.0110640712082386016845703125">
        <ele>865.4000244140625</ele>
        <time>2026-08-21T20:00:20.000Z</time>
        <extensions>
          <ns3:TrackPointExtension>
            <ns3:hr>127</ns3:hr>
            <ns3:cad>55</ns3:cad>
          </ns3:TrackPointExtension>
        </extensions>
      </trkpt>
      <trkpt lat="45.337975434958934783935546875" lon="-71.01108561269938945770263671875">
        <ele>865.4000244140625</ele>
        <time>2026-08-21T20:00:21.000Z</time>
        <extensions>
          <ns3:TrackPointExtension>
            <ns3:hr>127</ns3:hr>
            <ns3:cad>55</ns3:cad>
          </ns3:TrackPointExtension>
        </extensions>
      </trkpt>
      <trkpt lat="45.3379725851118564605712890625" lon="-71.0111086629331111907958984375">
        <ele>865.20001220703125</ele>
        <time>2026-08-21T20:00:22.000Z</time>
        <extensions>
          <ns3:TrackPointExtension>
            <ns3:hr>126</ns3:hr>
            <ns3:cad>61</ns3:cad>
          </ns3:TrackPointExtension>
        </extensions>
      </trkpt>
      <trkpt lat="45.3379665501415729522705078125" lon="-71.0111287795007228851318359375">
        <ele>865.20001220703125</ele>
        <time>2026-08-21T20:00:23.000Z</time>
        <extensions>
          <ns3:TrackPointExtension>
            <ns3:hr>127</ns3:hr>
            <ns3:cad>61</ns3:cad>
          </ns3:TrackPointExtension>
        </extensions>
      </trkpt>
      <trkpt lat="45.33795992843806743621826171875" lon="-71.01114713586866855621337890625">
        <ele>865</ele>
        <time>2026-08-21T20:00:24.000Z</time>
        <extensions>
          <ns3:TrackPointExtension>
            <ns3:hr>127</ns3:hr>
            <ns3:cad>61</ns3:cad>
          </ns3:TrackPointExtension>
        </extensions>
      </trkpt>
      <trkpt lat="45.337953977286815643310546875" lon="-71.011165492236614227294921875">
        <ele>865</ele>
        <time>2026-08-21T20:00:25.000Z</time>
        <extensions>
          <ns3:TrackPointExtension>
            <ns3:hr>127</ns3:hr>
            <ns3:cad>61</ns3:cad>
          </ns3:TrackPointExtension>
        </extensions>
      </trkpt>
      <trkpt lat="45.33794752322137355804443359375" lon="-71.011181585490703582763671875">
        <ele>864.79998779296875</ele>
        <time>2026-08-21T20:00:26.000Z</time>
        <extensions>
          <ns3:TrackPointExtension>
            <ns3:hr>127</ns3:hr>
            <ns3:cad>61</ns3:cad>
          </ns3:TrackPointExtension>
        </extensions>
      </trkpt>
      <trkpt lat="45.33794282935559749603271484375" lon="-71.01119575090706348419189453125">
        <ele>864.5999755859375</ele>
        <time>2026-08-21T20:00:27.000Z</time>
        <extensions>
          <ns3:TrackPointExtension>
            <ns3:hr>127</ns3:hr>
            <ns3:cad>57</ns3:cad>
          </ns3:TrackPointExtension>
        </extensions>
      </trkpt>
      <trkpt lat="45.33793830312788486480712890625" lon="-71.01120614446699619293212890625">
        <ele>864.5999755859375</ele>
        <time>2026-08-21T20:00:28.000Z</time>
        <extensions>
          <ns3:TrackPointExtension>
            <ns3:hr>127</ns3:hr>
            <ns3:cad>57</ns3:cad>
          </ns3:TrackPointExtension>
        </extensions>
      </trkpt>
      <trkpt lat="45.33793142996728420257568359375" lon="-71.01122089661657810211181640625">
        <ele>864.5999755859375</ele>
        <time>2026-08-21T20:00:29.000Z</time>
        <extensions>
          <ns3:TrackPointExtension>
            <ns3:hr>127</ns3:hr>
            <ns3:cad>57</ns3:cad>
          </ns3:TrackPointExtension>
        </extensions>
      </trkpt>
      <trkpt lat="45.33792170695960521697998046875" lon="-71.011234223842620849609375">
        <ele>864.4000244140625</ele>
        <time>2026-08-21T20:00:30.000Z</time>
        <extensions>
          <ns3:TrackPointExtension>
            <ns3:hr>126</ns3:hr>
            <ns3:cad>58</ns3:cad>
          </ns3:TrackPointExtension>
        </extensions>
      </trkpt>
      <trkpt lat="45.33791215158998966217041015625" lon="-71.01125241257250308990478515625">
        <ele>864.4000244140625</ele>
        <time>2026-08-21T20:00:31.000Z</time>
        <extensions>
          <ns3:TrackPointExtension>
            <ns3:hr>126</ns3:hr>
            <ns3:cad>58</ns3:cad>
          </ns3:TrackPointExtension>
        </extensions>
      </trkpt>
      <trkpt lat="45.337907038629055023193359375" lon="-71.0112722776830196380615234375">
        <ele>864.4000244140625</ele>
        <time>2026-08-21T20:00:32.000Z</time>
        <extensions>
          <ns3:TrackPointExtension>
            <ns3:hr>125</ns3:hr>
            <ns3:cad>58</ns3:cad>
          </ns3:TrackPointExtension>
        </extensions>
      </trkpt>
      <trkpt lat="45.33789999783039093017578125" lon="-71.01129013113677501678466796875">
        <ele>864.4000244140625</ele>
        <time>2026-08-21T20:00:33.000Z</time>
        <extensions>
          <ns3:TrackPointExtension>
            <ns3:hr>123</ns3:hr>
            <ns3:cad>58</ns3:cad>
          </ns3:TrackPointExtension>
        </extensions>
      </trkpt>
      <trkpt lat="45.33789639361202716827392578125" lon="-71.0113111697137355804443359375">
        <ele>864.20001220703125</ele>
        <time>2026-08-21T20:00:34.000Z</time>
        <extensions>
          <ns3:TrackPointExtension>
            <ns3:hr>122</ns3:hr>
            <ns3:cad>58</ns3:cad>
          </ns3:TrackPointExtension>
        </extensions>
      </trkpt>
      <trkpt lat="45.337888263165950775146484375" lon="-71.01133053191006183624267578125">
        <ele>864</ele>
        <time>2026-08-21T20:00:35.000Z</time>
        <extensions>
          <ns3:TrackPointExtension>
            <ns3:hr>122</ns3:hr>
            <ns3:cad>58</ns3:cad>
          </ns3:TrackPointExtension>
        </extensions>
      </trkpt>
      <trkpt lat="45.33788030035793781280517578125" lon="-71.01135157048702239990234375">
        <ele>864</ele>
        <time>2026-08-21T20:00:36.000Z</time>
        <extensions>
          <ns3:TrackPointExtension>
            <ns3:hr>122</ns3:hr>
            <ns3:cad>58</ns3:cad>
          </ns3:TrackPointExtension>
        </extensions>
      </trkpt>
      <trkpt lat="45.33787258900701999664306640625" lon="-71.01137076504528522491455078125">
        <ele>864</ele>
        <time>2026-08-21T20:00:37.000Z</time>
        <extensions>
          <ns3:TrackPointExtension>
            <ns3:hr>121</ns3:hr>
            <ns3:cad>58</ns3:cad>
          </ns3:TrackPointExtension>
        </extensions>
      </trkpt>
      <trkpt lat="45.33786487765610218048095703125" lon="-71.01138702593743801116943359375">
        <ele>863.79998779296875</ele>
        <time>2026-08-21T20:00:38.000Z</time>
        <extensions>
          <ns3:TrackPointExtension>
            <ns3:hr>121</ns3:hr>
            <ns3:cad>58</ns3:cad>
          </ns3:TrackPointExtension>
        </extensions>
      </trkpt>
      <trkpt lat="45.33785934560000896453857421875" lon="-71.011402867734432220458984375">
        <ele>863.79998779296875</ele>
        <time>2026-08-21T20:00:39.000Z</time>
        <extensions>
          <ns3:TrackPointExtension>
            <ns3:hr>119</ns3:hr>
            <ns3:cad>59</ns3:cad>
          </ns3:TrackPointExtension>
        </extensions>
      </trkpt>
      <trkpt lat="45.3378502093255519866943359375" lon="-71.0114161111414432525634765625">
        <ele>863.79998779296875</ele>
        <time>2026-08-21T20:00:40.000Z</time>
        <extensions>
          <ns3:TrackPointExtension>
            <ns3:hr>118</ns3:hr>
            <ns3:cad>59</ns3:cad>
          </ns3:TrackPointExtension>
        </extensions>
      </trkpt>
      <trkpt lat="45.33783830702304840087890625" lon="-71.0114271752536296844482421875">
        <ele>863.5999755859375</ele>
        <time>2026-08-21T20:00:41.000Z</time>
        <extensions>
          <ns3:TrackPointExtension>
            <ns3:hr>117</ns3:hr>
            <ns3:cad>59</ns3:cad>
          </ns3:TrackPointExtension>
        </extensions>
      </trkpt>
      <trkpt lat="45.3378282487392425537109375" lon="-71.011437736451625823974609375">
        <ele>863.5999755859375</ele>
        <time>2026-08-21T20:00:42.000Z</time>
        <extensions>
          <ns3:TrackPointExtension>
            <ns3:hr>116</ns3:hr>
            <ns3:cad>59</ns3:cad>
          </ns3:TrackPointExtension>
        </extensions>
      </trkpt>
      <trkpt lat="45.33781550824642181396484375" lon="-71.01144502870738506317138671875">
        <ele>863.4000244140625</ele>
        <time>2026-08-21T20:00:43.000Z</time>
        <extensions>
          <ns3:TrackPointExtension>
            <ns3:hr>116</ns3:hr>
            <ns3:cad>59</ns3:cad>
          </ns3:TrackPointExtension>
        </extensions>
      </trkpt>
      <trkpt lat="45.33780368976294994354248046875" lon="-71.01144720800220966339111328125">
        <ele>863.4000244140625</ele>
        <time>2026-08-21T20:00:44.000Z</time>
        <extensions>
          <ns3:TrackPointExtension>
            <ns3:hr>115</ns3:hr>
            <ns3:cad>57</ns3:cad>
          </ns3:TrackPointExtension>
        </extensions>
      </trkpt>
      <trkpt lat="45.33779405057430267333984375" lon="-71.011445112526416778564453125">
        <ele>863.20001220703125</ele>
        <time>2026-08-21T20:00:45.000Z</time>
        <extensions>
          <ns3:TrackPointExtension>
            <ns3:hr>115</ns3:hr>
            <ns3:cad>57</ns3:cad>
          </ns3:TrackPointExtension>
        </extensions>
      </trkpt>
      <trkpt lat="45.3377855010330677032470703125" lon="-71.01144167594611644744873046875">
        <ele>863</ele>
        <time>2026-08-21T20:00:46.000Z</time>
        <extensions>
          <ns3:TrackPointExtension>
            <ns3:hr>115</ns3:hr>
            <ns3:cad>57</ns3:cad>
          </ns3:TrackPointExtension>
        </extensions>
      </trkpt>
      <trkpt lat="45.33777284435927867889404296875" lon="-71.01143999956548213958740234375">
        <ele>863</ele>
        <time>2026-08-21T20:00:47.000Z</time>
        <extensions>
          <ns3:TrackPointExtension>
            <ns3:hr>115</ns3:hr>
            <ns3:cad>55</ns3:cad>
          </ns3:TrackPointExtension>
        </extensions>
      </trkpt>
      <trkpt lat="45.33776127733290195465087890625" lon="-71.011440753936767578125">
        <ele>862.79998779296875</ele>
        <time>2026-08-21T20:00:48.000Z</time>
        <extensions>
          <ns3:TrackPointExtension>
            <ns3:hr>116</ns3:hr>
            <ns3:cad>55</ns3:cad>
          </ns3:TrackPointExtension>
        </extensions>
      </trkpt>
      <trkpt lat="45.33774786628782749176025390625" lon="-71.01144117303192615509033203125">
        <ele>862.79998779296875</ele>
        <time>2026-08-21T20:00:49.000Z</time>
        <extensions>
          <ns3:TrackPointExtension>
            <ns3:hr>117</ns3:hr>
            <ns3:cad>55</ns3:cad>
          </ns3:TrackPointExtension>
        </extensions>
      </trkpt>
      <trkpt lat="45.3377352096140384674072265625" lon="-71.011440418660640716552734375">
        <ele>862.5999755859375</ele>
        <time>2026-08-21T20:00:50.000Z</time>
        <extensions>
          <ns3:TrackPointExtension>
            <ns3:hr>117</ns3:hr>
            <ns3:cad>55</ns3:cad>
          </ns3:TrackPointExtension>
        </extensions>
      </trkpt>
      <trkpt lat="45.3377209603786468505859375" lon="-71.01144117303192615509033203125">
        <ele>862.5999755859375</ele>
        <time>2026-08-21T20:00:51.000Z</time>
        <extensions>
          <ns3:TrackPointExtension>
            <ns3:hr>116</ns3:hr>
            <ns3:cad>55</ns3:cad>
          </ns3:TrackPointExtension>
        </extensions>
      </trkpt>
      <trkpt lat="45.33770713023841381072998046875" lon="-71.011444441974163055419921875">
        <ele>862.5999755859375</ele>
        <time>2026-08-21T20:00:52.000Z</time>
        <extensions>
          <ns3:TrackPointExtension>
            <ns3:hr>114</ns3:hr>
            <ns3:cad>55</ns3:cad>
          </ns3:TrackPointExtension>
        </extensions>
      </trkpt>
      <trkpt lat="45.3376936353743076324462890625" lon="-71.01144704036414623260498046875">
        <ele>862.5999755859375</ele>
        <time>2026-08-21T20:00:53.000Z</time>
        <extensions>
          <ns3:TrackPointExtension>
            <ns3:hr>112</ns3:hr>
            <ns3:cad>55</ns3:cad>
          </ns3:TrackPointExtension>
        </extensions>
      </trkpt>
      <trkpt lat="45.337679050862789154052734375" lon="-71.0114476270973682403564453125">
        <ele>862.4000244140625</ele>
        <time>2026-08-21T20:00:54.000Z</time>
        <extensions>
          <ns3:TrackPointExtension>
            <ns3:hr>111</ns3:hr>
            <ns3:cad>56</ns3:cad>
          </ns3:TrackPointExtension>
        </extensions>
      </trkpt>
      <trkpt lat="45.3376674838364124298095703125" lon="-71.01144787855446338653564453125">
        <ele>862.4000244140625</ele>
        <time>2026-08-21T20:00:55.000Z</time>
        <extensions>
          <ns3:TrackPointExtension>
            <ns3:hr>110</ns3:hr>
            <ns3:cad>56</ns3:cad>
          </ns3:TrackPointExtension>
        </extensions>
      </trkpt>
      <trkpt lat="45.337652228772640228271484375" lon="-71.011451147496700286865234375">
        <ele>862.20001220703125</ele>
        <time>2026-08-21T20:00:56.000Z</time>
        <extensions>
          <ns3:TrackPointExtension>
            <ns3:hr>110</ns3:hr>
            <ns3:cad>56</ns3:cad>
          </ns3:TrackPointExtension>
        </extensions>
      </trkpt>
      <trkpt lat="45.33763806335628032684326171875" lon="-71.01145575754344463348388671875">
        <ele>862.20001220703125</ele>
        <time>2026-08-21T20:00:57.000Z</time>
        <extensions>
          <ns3:TrackPointExtension>
            <ns3:hr>110</ns3:hr>
            <ns3:cad>56</ns3:cad>
          </ns3:TrackPointExtension>
        </extensions>
      </trkpt>
      <trkpt lat="45.33762247301638126373291015625" lon="-71.01146221160888671875">
        <ele>862.20001220703125</ele>
        <time>2026-08-21T20:00:58.000Z</time>
        <extensions>
          <ns3:TrackPointExtension>
            <ns3:hr>110</ns3:hr>
            <ns3:cad>56</ns3:cad>
          </ns3:TrackPointExtension>
        </extensions>
      </trkpt>
      <trkpt lat="45.33761191181838512420654296875" lon="-71.01147101260721683502197265625">
        <ele>862</ele>
        <time>2026-08-21T20:00:59.000Z</time>
        <extensions>
          <ns3:TrackPointExtension>
            <ns3:hr>110</ns3:hr>
            <ns3:cad>55</ns3:cad>
          </ns3:TrackPointExtension>
        </extensions>
      </trkpt>
      <trkpt lat="45.3376041166484355926513671875" lon="-71.0114796459674835205078125">
        <ele>862</ele>
        <time>2026-08-21T20:01:00.000Z</time>
        <extensions>
          <ns3:TrackPointExtension>
            <ns3:hr>110</ns3:hr>
            <ns3:cad>55</ns3:cad>
          </ns3:TrackPointExtension>
        </extensions>
      </trkpt>
      <trkpt lat="45.3376007638871669769287109375" lon="-71.01149062626063823699951171875">
        <ele>862</ele>
        <time>2026-08-21T20:01:01.000Z</time>
        <extensions>
          <ns3:TrackPointExtension>
            <ns3:hr>110</ns3:hr>
            <ns3:cad>51</ns3:cad>
          </ns3:TrackPointExtension>
        </extensions>
      </trkpt>
      <trkpt lat="45.33760235644876956939697265625" lon="-71.01149397902190685272216796875">
        <ele>862</ele>
        <time>2026-08-21T20:01:02.000Z</time>
        <extensions>
          <ns3:TrackPointExtension>
            <ns3:hr>110</ns3:hr>
            <ns3:cad>51</ns3:cad>
          </ns3:TrackPointExtension>
        </extensions>
      </trkpt>
      <trkpt lat="45.337600596249103546142578125" lon="-71.0114942304790019989013671875">
        <ele>861.79998779296875</ele>
        <time>2026-08-21T20:01:03.000Z</time>
        <extensions>
          <ns3:TrackPointExtension>
            <ns3:hr>110</ns3:hr>
            <ns3:cad>0</ns3:cad>
          </ns3:TrackPointExtension>
        </extensions>
      </trkpt>
      <trkpt lat="45.33760352991521358489990234375" lon="-71.0114952363073825836181640625">
        <ele>861.79998779296875</ele>
        <time>2026-08-21T20:01:04.000Z</time>
        <extensions>
          <ns3:TrackPointExtension>
            <ns3:hr>109</ns3:hr>
            <ns3:cad>0</ns3:cad>
          </ns3:TrackPointExtension>
        </extensions>
      </trkpt>
      <trkpt lat="45.3376057930290699005126953125" lon="-71.0114902071654796600341796875">
        <ele>862</ele>
        <time>2026-08-21T20:01:05.000Z</time>
        <extensions>
          <ns3:TrackPointExtension>
            <ns3:hr>110</ns3:hr>
            <ns3:cad>0</ns3:cad>
          </ns3:TrackPointExtension>
        </extensions>
      </trkpt>
      <trkpt lat="45.33760470338165760040283203125" lon="-71.0114875249564647674560546875">
        <ele>862</ele>
        <time>2026-08-21T20:01:06.000Z</time>
        <extensions>
          <ns3:TrackPointExtension>
            <ns3:hr>110</ns3:hr>
            <ns3:cad>0</ns3:cad>
          </ns3:TrackPointExtension>
        </extensions>
      </trkpt>
      <trkpt lat="45.33760470338165760040283203125" lon="-71.0114875249564647674560546875">
        <ele>862</ele>
        <time>2026-08-21T20:01:07.000Z</time>
        <extensions>
          <ns3:TrackPointExtension>
            <ns3:hr>111</ns3:hr>
            <ns3:cad>0</ns3:cad>
          </ns3:TrackPointExtension>
        </extensions>
      </trkpt>
      <trkpt lat="45.33760470338165760040283203125" lon="-71.0114875249564647674560546875">
        <ele>862</ele>
        <time>2026-08-21T20:01:08.000Z</time>
        <extensions>
          <ns3:TrackPointExtension>
            <ns3:hr>114</ns3:hr>
            <ns3:cad>0</ns3:cad>
          </ns3:TrackPointExtension>
        </extensions>
      </trkpt>
      <trkpt lat="45.33760470338165760040283203125" lon="-71.0114875249564647674560546875">
        <ele>862</ele>
        <time>2026-08-21T20:01:09.000Z</time>
        <extensions>
          <ns3:TrackPointExtension>
            <ns3:hr>115</ns3:hr>
            <ns3:cad>0</ns3:cad>
          </ns3:TrackPointExtension>
        </extensions>
      </trkpt>
      <trkpt lat="45.33760470338165760040283203125" lon="-71.0114875249564647674560546875">
        <ele>862</ele>
        <time>2026-08-21T20:01:10.000Z</time>
        <extensions>
          <ns3:TrackPointExtension>
            <ns3:hr>115</ns3:hr>
            <ns3:cad>0</ns3:cad>
          </ns3:TrackPointExtension>
        </extensions>
      </trkpt>
      <trkpt lat="45.33760470338165760040283203125" lon="-71.0114875249564647674560546875">
        <ele>862</ele>
        <time>2026-08-21T20:01:11.000Z</time>
        <extensions>
          <ns3:TrackPointExtension>
            <ns3:hr>114</ns3:hr>
            <ns3:cad>0</ns3:cad>
          </ns3:TrackPointExtension>
        </extensions>
      </trkpt>
      <trkpt lat="45.33760369755327701568603515625" lon="-71.01148392073810100555419921875">
        <ele>862</ele>
        <time>2026-08-21T20:01:12.000Z</time>
        <extensions>
          <ns3:TrackPointExtension>
            <ns3:hr>112</ns3:hr>
            <ns3:cad>0</ns3:cad>
          </ns3:TrackPointExtension>
        </extensions>
      </trkpt>
      <trkpt lat="45.33760118298232555389404296875" lon="-71.01147218607366085052490234375">
        <ele>862</ele>
        <time>2026-08-21T20:01:13.000Z</time>
        <extensions>
          <ns3:TrackPointExtension>
            <ns3:hr>111</ns3:hr>
            <ns3:cad>0</ns3:cad>
          </ns3:TrackPointExtension>
        </extensions>
      </trkpt>
      <trkpt lat="45.3375967405736446380615234375" lon="-71.011459864675998687744140625">
        <ele>861.79998779296875</ele>
        <time>2026-08-21T20:01:14.000Z</time>
        <extensions>
          <ns3:TrackPointExtension>
            <ns3:hr>111</ns3:hr>
            <ns3:cad>0</ns3:cad>
          </ns3:TrackPointExtension>
        </extensions>
      </trkpt>
      <trkpt lat="45.33758877776563167572021484375" lon="-71.0114529915153980255126953125">
        <ele>861.79998779296875</ele>
        <time>2026-08-21T20:01:15.000Z</time>
        <extensions>
          <ns3:TrackPointExtension>
            <ns3:hr>111</ns3:hr>
            <ns3:cad>0</ns3:cad>
          </ns3:TrackPointExtension>
        </extensions>
      </trkpt>
      <trkpt lat="45.3375799767673015594482421875" lon="-71.011449135839939117431640625">
        <ele>861.79998779296875</ele>
        <time>2026-08-21T20:01:16.000Z</time>
        <extensions>
          <ns3:TrackPointExtension>
            <ns3:hr>111</ns3:hr>
            <ns3:cad>0</ns3:cad>
          </ns3:TrackPointExtension>
        </extensions>
      </trkpt>
      <trkpt lat="45.33756882883608341217041015625" lon="-71.01144385524094104766845703125">
        <ele>861.79998779296875</ele>
        <time>2026-08-21T20:01:17.000Z</time>
        <extensions>
          <ns3:TrackPointExtension>
            <ns3:hr>112</ns3:hr>
            <ns3:cad>0</ns3:cad>
          </ns3:TrackPointExtension>
        </extensions>
      </trkpt>
      <trkpt lat="45.33755558542907238006591796875" lon="-71.01143731735646724700927734375">
        <ele>861.79998779296875</ele>
        <time>2026-08-21T20:01:18.000Z</time>
        <extensions>
          <ns3:TrackPointExtension>
            <ns3:hr>111</ns3:hr>
            <ns3:cad>60</ns3:cad>
          </ns3:TrackPointExtension>
        </extensions>
      </trkpt>
      <trkpt lat="45.33754326403141021728515625" lon="-71.01143337786197662353515625">
        <ele>861.79998779296875</ele>
        <time>2026-08-21T20:01:19.000Z</time>
        <extensions>
          <ns3:TrackPointExtension>
            <ns3:hr>112</ns3:hr>
            <ns3:cad>60</ns3:cad>
          </ns3:TrackPointExtension>
        </extensions>
      </trkpt>
      <trkpt lat="45.337526500225067138671875" lon="-71.0114335455000400543212890625">
        <ele>861.79998779296875</ele>
        <time>2026-08-21T20:01:20.000Z</time>
        <extensions>
          <ns3:TrackPointExtension>
            <ns3:hr>113</ns3:hr>
            <ns3:cad>60</ns3:cad>
          </ns3:TrackPointExtension>
        </extensions>
      </trkpt>
      <trkpt lat="45.33750881440937519073486328125" lon="-71.01143203675746917724609375">
        <ele>861.79998779296875</ele>
        <time>2026-08-21T20:01:21.000Z</time>
        <extensions>
          <ns3:TrackPointExtension>
            <ns3:hr>114</ns3:hr>
            <ns3:cad>60</ns3:cad>
          </ns3:TrackPointExtension>
        </extensions>
      </trkpt>
      <trkpt lat="45.33749154768884181976318359375" lon="-71.0114318691194057464599609375">
        <ele>861.79998779296875</ele>
        <time>2026-08-21T20:01:22.000Z</time>
        <extensions>
          <ns3:TrackPointExtension>
            <ns3:hr>114</ns3:hr>
            <ns3:cad>60</ns3:cad>
          </ns3:TrackPointExtension>
        </extensions>
      </trkpt>
      <trkpt lat="45.3374703414738178253173828125" lon="-71.01143446750938892364501953125">
        <ele>861.79998779296875</ele>
        <time>2026-08-21T20:01:23.000Z</time>
        <extensions>
          <ns3:TrackPointExtension>
            <ns3:hr>114</ns3:hr>
            <ns3:cad>59</ns3:cad>
          </ns3:TrackPointExtension>
        </extensions>
      </trkpt>
      <trkpt lat="45.33745449967682361602783203125" lon="-71.01143580861389636993408203125">
        <ele>861.79998779296875</ele>
        <time>2026-08-21T20:01:24.000Z</time>
        <extensions>
          <ns3:TrackPointExtension>
            <ns3:hr>113</ns3:hr>
            <ns3:cad>59</ns3:cad>
          </ns3:TrackPointExtension>
        </extensions>
      </trkpt>
      <trkpt lat="45.3374398313462734222412109375" lon="-71.01143949665129184722900390625">
        <ele>861.79998779296875</ele>
        <time>2026-08-21T20:01:25.000Z</time>
        <extensions>
          <ns3:TrackPointExtension>
            <ns3:hr>114</ns3:hr>
            <ns3:cad>57</ns3:cad>
          </ns3:TrackPointExtension>
        </extensions>
      </trkpt>
      <trkpt lat="45.3374230675399303436279296875" lon="-71.01143916137516498565673828125">
        <ele>861.79998779296875</ele>
        <time>2026-08-21T20:01:26.000Z</time>
        <extensions>
          <ns3:TrackPointExtension>
            <ns3:hr>114</ns3:hr>
            <ns3:cad>57</ns3:cad>
          </ns3:TrackPointExtension>
        </extensions>
      </trkpt>
      <trkpt lat="45.3374046273529529571533203125" lon="-71.01143916137516498565673828125">
        <ele>861.79998779296875</ele>
        <time>2026-08-21T20:01:27.000Z</time>
        <extensions>
          <ns3:TrackPointExtension>
            <ns3:hr>114</ns3:hr>
            <ns3:cad>57</ns3:cad>
          </ns3:TrackPointExtension>
        </extensions>
      </trkpt>
      <trkpt lat="45.33739230595529079437255859375" lon="-71.01144368760287761688232421875">
        <ele>861.79998779296875</ele>
        <time>2026-08-21T20:01:28.000Z</time>
        <extensions>
          <ns3:TrackPointExtension>
            <ns3:hr>114</ns3:hr>
            <ns3:cad>0</ns3:cad>
          </ns3:TrackPointExtension>
        </extensions>
      </trkpt>
      <trkpt lat="45.33737964928150177001953125" lon="-71.01144167594611644744873046875">
        <ele>861.79998779296875</ele>
        <time>2026-08-21T20:01:29.000Z</time>
        <extensions>
          <ns3:TrackPointExtension>
            <ns3:hr>115</ns3:hr>
            <ns3:cad>0</ns3:cad>
          </ns3:TrackPointExtension>
        </extensions>
      </trkpt>
      <trkpt lat="45.3373630531132221221923828125" lon="-71.01144586689770221710205078125">
        <ele>861.79998779296875</ele>
        <time>2026-08-21T20:01:30.000Z</time>
        <extensions>
          <ns3:TrackPointExtension>
            <ns3:hr>115</ns3:hr>
            <ns3:cad>0</ns3:cad>
          </ns3:TrackPointExtension>
        </extensions>
      </trkpt>
      <trkpt lat="45.337347127497196197509765625" lon="-71.01144335232675075531005859375">
        <ele>861.79998779296875</ele>
        <time>2026-08-21T20:01:31.000Z</time>
        <extensions>
          <ns3:TrackPointExtension>
            <ns3:hr>116</ns3:hr>
            <ns3:cad>0</ns3:cad>
          </ns3:TrackPointExtension>
        </extensions>
      </trkpt>
      <trkpt lat="45.33733312971889972686767578125" lon="-71.01144368760287761688232421875">
        <ele>861.79998779296875</ele>
        <time>2026-08-21T20:01:32.000Z</time>
        <extensions>
          <ns3:TrackPointExtension>
            <ns3:hr>116</ns3:hr>
            <ns3:cad>0</ns3:cad>
          </ns3:TrackPointExtension>
        </extensions>
      </trkpt>
      <trkpt lat="45.33732089214026927947998046875" lon="-71.01144611835479736328125">
        <ele>861.79998779296875</ele>
        <time>2026-08-21T20:01:33.000Z</time>
        <extensions>
          <ns3:TrackPointExtension>
            <ns3:hr>116</ns3:hr>
            <ns3:cad>0</ns3:cad>
          </ns3:TrackPointExtension>
        </extensions>
      </trkpt>
      <trkpt lat="45.33730831928551197052001953125" lon="-71.0114499740302562713623046875">
        <ele>861.79998779296875</ele>
        <time>2026-08-21T20:01:34.000Z</time>
        <extensions>
          <ns3:TrackPointExtension>
            <ns3:hr>115</ns3:hr>
            <ns3:cad>0</ns3:cad>
          </ns3:TrackPointExtension>
        </extensions>
      </trkpt>
      <trkpt lat="45.33729306422173976898193359375" lon="-71.011451147496700286865234375">
        <ele>861.79998779296875</ele>
        <time>2026-08-21T20:01:35.000Z</time>
        <extensions>
          <ns3:TrackPointExtension>
            <ns3:hr>115</ns3:hr>
            <ns3:cad>0</ns3:cad>
          </ns3:TrackPointExtension>
        </extensions>
      </trkpt>
      <trkpt lat="45.33727948553860187530517578125" lon="-71.0114476270973682403564453125">
        <ele>861.79998779296875</ele>
        <time>2026-08-21T20:01:36.000Z</time>
        <extensions>
          <ns3:TrackPointExtension>
            <ns3:hr>114</ns3:hr>
            <ns3:cad>0</ns3:cad>
          </ns3:TrackPointExtension>
        </extensions>
      </trkpt>
      <trkpt lat="45.33726674504578113555908203125" lon="-71.0114452801644802093505859375">
        <ele>861.79998779296875</ele>
        <time>2026-08-21T20:01:37.000Z</time>
        <extensions>
          <ns3:TrackPointExtension>
            <ns3:hr>114</ns3:hr>
            <ns3:cad>0</ns3:cad>
          </ns3:TrackPointExtension>
        </extensions>
      </trkpt>
      <trkpt lat="45.33725685440003871917724609375" lon="-71.0114432685077190399169921875">
        <ele>861.5999755859375</ele>
        <time>2026-08-21T20:01:38.000Z</time>
        <extensions>
          <ns3:TrackPointExtension>
            <ns3:hr>114</ns3:hr>
            <ns3:cad>0</ns3:cad>
          </ns3:TrackPointExtension>
        </extensions>
      </trkpt>
      <trkpt lat="45.3372480534017086029052734375" lon="-71.01143312640488147735595703125">
        <ele>861.4000244140625</ele>
        <time>2026-08-21T20:01:39.000Z</time>
        <extensions>
          <ns3:TrackPointExtension>
            <ns3:hr>114</ns3:hr>
            <ns3:cad>0</ns3:cad>
          </ns3:TrackPointExtension>
        </extensions>
      </trkpt>
      <trkpt lat="45.33724076114594936370849609375" lon="-71.01143295876681804656982421875">
        <ele>861.4000244140625</ele>
        <time>2026-08-21T20:01:40.000Z</time>
        <extensions>
          <ns3:TrackPointExtension>
            <ns3:hr>114</ns3:hr>
            <ns3:cad>0</ns3:cad>
          </ns3:TrackPointExtension>
        </extensions>
      </trkpt>
      <trkpt lat="45.33723003230988979339599609375" lon="-71.01143195293843746185302734375">
        <ele>861.4000244140625</ele>
        <time>2026-08-21T20:01:41.000Z</time>
        <extensions>
          <ns3:TrackPointExtension>
            <ns3:hr>114</ns3:hr>
            <ns3:cad>0</ns3:cad>
          </ns3:TrackPointExtension>
        </extensions>
      </trkpt>
      <trkpt lat="45.33722114749252796173095703125" lon="-71.01142960600554943084716796875">
        <ele>861.20001220703125</ele>
        <time>2026-08-21T20:01:42.000Z</time>
        <extensions>
          <ns3:TrackPointExtension>
            <ns3:hr>114</ns3:hr>
            <ns3:cad>0</ns3:cad>
          </ns3:TrackPointExtension>
        </extensions>
      </trkpt>
      <trkpt lat="45.337212346494197845458984375" lon="-71.0114224813878536224365234375">
        <ele>861.20001220703125</ele>
        <time>2026-08-21T20:01:43.000Z</time>
        <extensions>
          <ns3:TrackPointExtension>
            <ns3:hr>114</ns3:hr>
            <ns3:cad>0</ns3:cad>
          </ns3:TrackPointExtension>
        </extensions>
      </trkpt>
      <trkpt lat="45.33720220439136028289794921875" lon="-71.01141267456114292144775390625">
        <ele>861</ele>
        <time>2026-08-21T20:01:44.000Z</time>
        <extensions>
          <ns3:TrackPointExtension>
            <ns3:hr>114</ns3:hr>
            <ns3:cad>0</ns3:cad>
          </ns3:TrackPointExtension>
        </extensions>
      </trkpt>
      <trkpt lat="45.33718309365212917327880859375" lon="-71.01141334511339664459228515625">
        <ele>861</ele>
        <time>2026-08-21T20:01:45.000Z</time>
        <extensions>
          <ns3:TrackPointExtension>
            <ns3:hr>115</ns3:hr>
            <ns3:cad>0</ns3:cad>
          </ns3:TrackPointExtension>
        </extensions>
      </trkpt>
      <trkpt lat="45.3371709398925304412841796875" lon="-71.0114184580743312835693359375">
        <ele>860.79998779296875</ele>
        <time>2026-08-21T20:01:46.000Z</time>
        <extensions>
          <ns3:TrackPointExtension>
            <ns3:hr>114</ns3:hr>
            <ns3:cad>0</ns3:cad>
          </ns3:TrackPointExtension>
        </extensions>
      </trkpt>
      <trkpt lat="45.33715945668518543243408203125" lon="-71.01142105646431446075439453125">
        <ele>860.79998779296875</ele>
        <time>2026-08-21T20:01:47.000Z</time>
        <extensions>
          <ns3:TrackPointExtension>
            <ns3:hr>114</ns3:hr>
            <ns3:cad>0</ns3:cad>
          </ns3:TrackPointExtension>
        </extensions>
      </trkpt>
      <trkpt lat="45.337147973477840423583984375" lon="-71.0114271752536296844482421875">
        <ele>860.5999755859375</ele>
        <time>2026-08-21T20:01:48.000Z</time>
        <extensions>
          <ns3:TrackPointExtension>
            <ns3:hr>114</ns3:hr>
            <ns3:cad>0</ns3:cad>
          </ns3:TrackPointExtension>
        </extensions>
      </trkpt>
      <trkpt lat="45.33713196404278278350830078125" lon="-71.011438407003879547119140625">
        <ele>860.5999755859375</ele>
        <time>2026-08-21T20:01:49.000Z</time>
        <extensions>
          <ns3:TrackPointExtension>
            <ns3:hr>114</ns3:hr>
            <ns3:cad>0</ns3:cad>
          </ns3:TrackPointExtension>
        </extensions>
      </trkpt>
      <trkpt lat="45.33711721189320087432861328125" lon="-71.0114419274032115936279296875">
        <ele>860.5999755859375</ele>
        <time>2026-08-21T20:01:50.000Z</time>
        <extensions>
          <ns3:TrackPointExtension>
            <ns3:hr>114</ns3:hr>
            <ns3:cad>62</ns3:cad>
          </ns3:TrackPointExtension>
        </extensions>
      </trkpt>
      <trkpt lat="45.33710028044879436492919921875" lon="-71.01144469343125820159912109375">
        <ele>860.5999755859375</ele>
        <time>2026-08-21T20:01:51.000Z</time>
        <extensions>
          <ns3:TrackPointExtension>
            <ns3:hr>114</ns3:hr>
            <ns3:cad>62</ns3:cad>
          </ns3:TrackPointExtension>
        </extensions>
      </trkpt>
      <trkpt lat="45.33708653412759304046630859375" lon="-71.01144486106932163238525390625">
        <ele>860.5999755859375</ele>
        <time>2026-08-21T20:01:52.000Z</time>
        <extensions>
          <ns3:TrackPointExtension>
            <ns3:hr>114</ns3:hr>
            <ns3:cad>62</ns3:cad>
          </ns3:TrackPointExtension>
        </extensions>
      </trkpt>
      <trkpt lat="45.33707127906382083892822265625" lon="-71.0114452801644802093505859375">
        <ele>860.79998779296875</ele>
        <time>2026-08-21T20:01:53.000Z</time>
        <extensions>
          <ns3:TrackPointExtension>
            <ns3:hr>114</ns3:hr>
            <ns3:cad>60</ns3:cad>
          </ns3:TrackPointExtension>
        </extensions>
      </trkpt>
      <trkpt lat="45.33705770038068294525146484375" lon="-71.0114395804703235626220703125">
        <ele>860.79998779296875</ele>
        <time>2026-08-21T20:01:54.000Z</time>
        <extensions>
          <ns3:TrackPointExtension>
            <ns3:hr>114</ns3:hr>
            <ns3:cad>59</ns3:cad>
          </ns3:TrackPointExtension>
        </extensions>
      </trkpt>
      <trkpt lat="45.33704663626849651336669921875" lon="-71.0114318691194057464599609375">
        <ele>860.79998779296875</ele>
        <time>2026-08-21T20:01:55.000Z</time>
        <extensions>
          <ns3:TrackPointExtension>
            <ns3:hr>114</ns3:hr>
            <ns3:cad>59</ns3:cad>
          </ns3:TrackPointExtension>
        </extensions>
      </trkpt>
      <trkpt lat="45.337033979594707489013671875" lon="-71.01142507977783679962158203125">
        <ele>861</ele>
        <time>2026-08-21T20:01:56.000Z</time>
        <extensions>
          <ns3:TrackPointExtension>
            <ns3:hr>114</ns3:hr>
            <ns3:cad>59</ns3:cad>
          </ns3:TrackPointExtension>
        </extensions>
      </trkpt>
      <trkpt lat="45.33702216111123561859130859375" lon="-71.01141753606498241424560546875">
        <ele>861</ele>
        <time>2026-08-21T20:01:57.000Z</time>
        <extensions>
          <ns3:TrackPointExtension>
            <ns3:hr>114</ns3:hr>
            <ns3:cad>58</ns3:cad>
          </ns3:TrackPointExtension>
        </extensions>
      </trkpt>
      <trkpt lat="45.33700925298035144805908203125" lon="-71.01141267456114292144775390625">
        <ele>861</ele>
        <time>2026-08-21T20:01:58.000Z</time>
        <extensions>
          <ns3:TrackPointExtension>
            <ns3:hr>115</ns3:hr>
            <ns3:cad>58</ns3:cad>
          </ns3:TrackPointExtension>
        </extensions>
      </trkpt>
      <trkpt lat="45.33699634484946727752685546875" lon="-71.01140563376247882843017578125">
        <ele>861</ele>
        <time>2026-08-21T20:01:59.000Z</time>
        <extensions>
          <ns3:TrackPointExtension>
            <ns3:hr>116</ns3:hr>
            <ns3:cad>55</ns3:cad>
          </ns3:TrackPointExtension>
        </extensions>
      </trkpt>
      <trkpt lat="45.3369820117950439453125" lon="-71.0114033706486225128173828125">
        <ele>861.20001220703125</ele>
        <time>2026-08-21T20:02:00.000Z</time>
        <extensions>
          <ns3:TrackPointExtension>
            <ns3:hr>116</ns3:hr>
            <ns3:cad>54</ns3:cad>
          </ns3:TrackPointExtension>
        </extensions>
      </trkpt>
      <trkpt lat="45.33696684055030345916748046875" lon="-71.0113996826112270355224609375">
        <ele>861.20001220703125</ele>
        <time>2026-08-21T20:02:01.000Z</time>
        <extensions>
          <ns3:TrackPointExtension>
            <ns3:hr>116</ns3:hr>
            <ns3:cad>54</ns3:cad>
          </ns3:TrackPointExtension>
        </extensions>
      </trkpt>
      <trkpt lat="45.33695225603878498077392578125" lon="-71.011398173868656158447265625">
        <ele>861.4000244140625</ele>
        <time>2026-08-21T20:02:02.000Z</time>
        <extensions>
          <ns3:TrackPointExtension>
            <ns3:hr>116</ns3:hr>
            <ns3:cad>54</ns3:cad>
          </ns3:TrackPointExtension>
        </extensions>
      </trkpt>
      <trkpt lat="45.3369390964508056640625" lon="-71.011396162211894989013671875">
        <ele>861.5999755859375</ele>
        <time>2026-08-21T20:02:03.000Z</time>
        <extensions>
          <ns3:TrackPointExtension>
            <ns3:hr>117</ns3:hr>
            <ns3:cad>54</ns3:cad>
          </ns3:TrackPointExtension>
        </extensions>
      </trkpt>
      <trkpt lat="45.33692576922476291656494140625" lon="-71.011395491659641265869140625">
        <ele>861.5999755859375</ele>
        <time>2026-08-21T20:02:04.000Z</time>
        <extensions>
          <ns3:TrackPointExtension>
            <ns3:hr>116</ns3:hr>
            <ns3:cad>53</ns3:cad>
          </ns3:TrackPointExtension>
        </extensions>
      </trkpt>
      <trkpt lat="45.33691294491291046142578125" lon="-71.0113949887454509735107421875">
        <ele>861.79998779296875</ele>
        <time>2026-08-21T20:02:05.000Z</time>
        <extensions>
          <ns3:TrackPointExtension>
            <ns3:hr>116</ns3:hr>
            <ns3:cad>53</ns3:cad>
          </ns3:TrackPointExtension>
        </extensions>
      </trkpt>
      <trkpt lat="45.3369020484387874603271484375" lon="-71.0113936476409435272216796875">
        <ele>861.79998779296875</ele>
        <time>2026-08-21T20:02:06.000Z</time>
        <extensions>
          <ns3:TrackPointExtension>
            <ns3:hr>116</ns3:hr>
            <ns3:cad>53</ns3:cad>
          </ns3:TrackPointExtension>
        </extensions>
      </trkpt>
      <trkpt lat="45.336890481412410736083984375" lon="-71.011395491659641265869140625">
        <ele>862</ele>
        <time>2026-08-21T20:02:07.000Z</time>
        <extensions>
          <ns3:TrackPointExtension>
            <ns3:hr>116</ns3:hr>
            <ns3:cad>54</ns3:cad>
          </ns3:TrackPointExtension>
        </extensions>
      </trkpt>
      <trkpt lat="45.33688017167150974273681640625" lon="-71.01139708422124385833740234375">
        <ele>862.20001220703125</ele>
        <time>2026-08-21T20:02:08.000Z</time>
        <extensions>
          <ns3:TrackPointExtension>
            <ns3:hr>116</ns3:hr>
            <ns3:cad>54</ns3:cad>
          </ns3:TrackPointExtension>
        </extensions>
      </trkpt>
      <trkpt lat="45.33687028102576732635498046875" lon="-71.011392138898372650146484375">
        <ele>862.4000244140625</ele>
        <time>2026-08-21T20:02:09.000Z</time>
        <extensions>
          <ns3:TrackPointExtension>
            <ns3:hr>117</ns3:hr>
            <ns3:cad>53</ns3:cad>
          </ns3:TrackPointExtension>
        </extensions>
      </trkpt>
      <trkpt lat="45.33686106093227863311767578125" lon="-71.01138451136648654937744140625">
        <ele>862.5999755859375</ele>
        <time>2026-08-21T20:02:10.000Z</time>
        <extensions>
          <ns3:TrackPointExtension>
            <ns3:hr>117</ns3:hr>
            <ns3:cad>53</ns3:cad>
          </ns3:TrackPointExtension>
        </extensions>
      </trkpt>
      <trkpt lat="45.33685133792459964752197265625" lon="-71.01137881167232990264892578125">
        <ele>862.79998779296875</ele>
        <time>2026-08-21T20:02:11.000Z</time>
        <extensions>
          <ns3:TrackPointExtension>
            <ns3:hr>119</ns3:hr>
            <ns3:cad>53</ns3:cad>
          </ns3:TrackPointExtension>
        </extensions>
      </trkpt>
      <trkpt lat="45.336840189993381500244140625" lon="-71.01137512363493442535400390625">
        <ele>863.20001220703125</ele>
        <time>2026-08-21T20:02:12.000Z</time>
        <extensions>
          <ns3:TrackPointExtension>
            <ns3:hr>119</ns3:hr>
            <ns3:cad>53</ns3:cad>
          </ns3:TrackPointExtension>
        </extensions>
      </trkpt>
      <trkpt lat="45.33683155663311481475830078125" lon="-71.01136875338852405548095703125">
        <ele>863.4000244140625</ele>
        <time>2026-08-21T20:02:13.000Z</time>
        <extensions>
          <ns3:TrackPointExtension>
            <ns3:hr>119</ns3:hr>
            <ns3:cad>53</ns3:cad>
          </ns3:TrackPointExtension>
        </extensions>
      </trkpt>
      <trkpt lat="45.33682082779705524444580078125" lon="-71.01136204786598682403564453125">
        <ele>863.5999755859375</ele>
        <time>2026-08-21T20:02:14.000Z</time>
        <extensions>
          <ns3:TrackPointExtension>
            <ns3:hr>119</ns3:hr>
            <ns3:cad>53</ns3:cad>
          </ns3:TrackPointExtension>
        </extensions>
      </trkpt>
      <trkpt lat="45.33681043423712253570556640625" lon="-71.01135768927633762359619140625">
        <ele>864</ele>
        <time>2026-08-21T20:02:15.000Z</time>
        <extensions>
          <ns3:TrackPointExtension>
            <ns3:hr>119</ns3:hr>
            <ns3:cad>54</ns3:cad>
          </ns3:TrackPointExtension>
        </extensions>
      </trkpt>
      <trkpt lat="45.33680020831525325775146484375" lon="-71.011352241039276123046875">
        <ele>864.20001220703125</ele>
        <time>2026-08-21T20:02:16.000Z</time>
        <extensions>
          <ns3:TrackPointExtension>
            <ns3:hr>121</ns3:hr>
            <ns3:cad>54</ns3:cad>
          </ns3:TrackPointExtension>
        </extensions>
      </trkpt>
      <trkpt lat="45.3367902338504791259765625" lon="-71.01134620606899261474609375">
        <ele>864.5999755859375</ele>
        <time>2026-08-21T20:02:17.000Z</time>
        <extensions>
          <ns3:TrackPointExtension>
            <ns3:hr>122</ns3:hr>
            <ns3:cad>54</ns3:cad>
          </ns3:TrackPointExtension>
        </extensions>
      </trkpt>
      <trkpt lat="45.33677883446216583251953125" lon="-71.01134193129837512969970703125">
        <ele>864.79998779296875</ele>
        <time>2026-08-21T20:02:18.000Z</time>
        <extensions>
          <ns3:TrackPointExtension>
            <ns3:hr>123</ns3:hr>
            <ns3:cad>54</ns3:cad>
          </ns3:TrackPointExtension>
        </extensions>
      </trkpt>
      <trkpt lat="45.336767770349979400634765625" lon="-71.01133673451840877532958984375">
        <ele>865.20001220703125</ele>
        <time>2026-08-21T20:02:19.000Z</time>
        <extensions>
          <ns3:TrackPointExtension>
            <ns3:hr>125</ns3:hr>
            <ns3:cad>54</ns3:cad>
          </ns3:TrackPointExtension>
        </extensions>
      </trkpt>
      <trkpt lat="45.33675611950457096099853515625" lon="-71.0113316215574741363525390625">
        <ele>865.4000244140625</ele>
        <time>2026-08-21T20:02:20.000Z</time>
        <extensions>
          <ns3:TrackPointExtension>
            <ns3:hr>126</ns3:hr>
            <ns3:cad>54</ns3:cad>
          </ns3:TrackPointExtension>
        </extensions>
      </trkpt>
      <trkpt lat="45.336744301021099090576171875" lon="-71.01132474839687347412109375">
        <ele>865.79998779296875</ele>
        <time>2026-08-21T20:02:21.000Z</time>
        <extensions>
          <ns3:TrackPointExtension>
            <ns3:hr>129</ns3:hr>
            <ns3:cad>55</ns3:cad>
          </ns3:TrackPointExtension>
        </extensions>
      </trkpt>
      <trkpt lat="45.33673197962343692779541015625" lon="-71.011316366493701934814453125">
        <ele>866</ele>
        <time>2026-08-21T20:02:22.000Z</time>
        <extensions>
          <ns3:TrackPointExtension>
            <ns3:hr>130</ns3:hr>
            <ns3:cad>57</ns3:cad>
          </ns3:TrackPointExtension>
        </extensions>
      </trkpt>
      <trkpt lat="45.33671974204480648040771484375" lon="-71.0113111697137355804443359375">
        <ele>866.20001220703125</ele>
        <time>2026-08-21T20:02:23.000Z</time>
        <extensions>
          <ns3:TrackPointExtension>
            <ns3:hr>130</ns3:hr>
            <ns3:cad>57</ns3:cad>
          </ns3:TrackPointExtension>
        </extensions>
      </trkpt>
      <trkpt lat="45.33670649863779544830322265625" lon="-71.0113078169524669647216796875">
        <ele>866.20001220703125</ele>
        <time>2026-08-21T20:02:24.000Z</time>
        <extensions>
          <ns3:TrackPointExtension>
            <ns3:hr>130</ns3:hr>
            <ns3:cad>55</ns3:cad>
          </ns3:TrackPointExtension>
        </extensions>
      </trkpt>
      <trkpt lat="45.336695350706577301025390625" lon="-71.01130488328635692596435546875">
        <ele>866.4000244140625</ele>
        <time>2026-08-21T20:02:25.000Z</time>
        <extensions>
          <ns3:TrackPointExtension>
            <ns3:hr>130</ns3:hr>
            <ns3:cad>55</ns3:cad>
          </ns3:TrackPointExtension>
        </extensions>
      </trkpt>
      <trkpt lat="45.33668353222310543060302734375" lon="-71.01130605675280094146728515625">
        <ele>866.4000244140625</ele>
        <time>2026-08-21T20:02:26.000Z</time>
        <extensions>
          <ns3:TrackPointExtension>
            <ns3:hr>130</ns3:hr>
            <ns3:cad>54</ns3:cad>
          </ns3:TrackPointExtension>
        </extensions>
      </trkpt>
      <trkpt lat="45.33667230047285556793212890625" lon="-71.01130999624729156494140625">
        <ele>866.5999755859375</ele>
        <time>2026-08-21T20:02:27.000Z</time>
        <extensions>
          <ns3:TrackPointExtension>
            <ns3:hr>130</ns3:hr>
            <ns3:cad>55</ns3:cad>
          </ns3:TrackPointExtension>
        </extensions>
      </trkpt>
      <trkpt lat="45.3366609849035739898681640625" lon="-71.01131008006632328033447265625">
        <ele>866.5999755859375</ele>
        <time>2026-08-21T20:02:28.000Z</time>
        <extensions>
          <ns3:TrackPointExtension>
            <ns3:hr>130</ns3:hr>
            <ns3:cad>55</ns3:cad>
          </ns3:TrackPointExtension>
        </extensions>
      </trkpt>
      <trkpt lat="45.3366469033062458038330078125" lon="-71.01131494157016277313232421875">
        <ele>866.79998779296875</ele>
        <time>2026-08-21T20:02:29.000Z</time>
        <extensions>
          <ns3:TrackPointExtension>
            <ns3:hr>131</ns3:hr>
            <ns3:cad>54</ns3:cad>
          </ns3:TrackPointExtension>
        </extensions>
      </trkpt>
      <trkpt lat="45.336637683212757110595703125" lon="-71.0113175399601459503173828125">
        <ele>867</ele>
        <time>2026-08-21T20:02:30.000Z</time>
        <extensions>
          <ns3:TrackPointExtension>
            <ns3:hr>131</ns3:hr>
            <ns3:cad>54</ns3:cad>
          </ns3:TrackPointExtension>
        </extensions>
      </trkpt>
      <trkpt lat="45.33662418834865093231201171875" lon="-71.011319048702716827392578125">
        <ele>867.20001220703125</ele>
        <time>2026-08-21T20:02:31.000Z</time>
        <extensions>
          <ns3:TrackPointExtension>
            <ns3:hr>131</ns3:hr>
            <ns3:cad>52</ns3:cad>
          </ns3:TrackPointExtension>
        </extensions>
      </trkpt>
      <trkpt lat="45.3366137109696865081787109375" lon="-71.011316366493701934814453125">
        <ele>867.4000244140625</ele>
        <time>2026-08-21T20:02:32.000Z</time>
        <extensions>
          <ns3:TrackPointExtension>
            <ns3:hr>132</ns3:hr>
            <ns3:cad>52</ns3:cad>
          </ns3:TrackPointExtension>
        </extensions>
      </trkpt>
      <trkpt lat="45.3366049937903881072998046875" lon="-71.01130974479019641876220703125">
        <ele>867.5999755859375</ele>
        <time>2026-08-21T20:02:33.000Z</time>
        <extensions>
          <ns3:TrackPointExtension>
            <ns3:hr>132</ns3:hr>
            <ns3:cad>53</ns3:cad>
          </ns3:TrackPointExtension>
        </extensions>
      </trkpt>
      <trkpt lat="45.3365944325923919677734375" lon="-71.0113027878105640411376953125">
        <ele>867.79998779296875</ele>
        <time>2026-08-21T20:02:34.000Z</time>
        <extensions>
          <ns3:TrackPointExtension>
            <ns3:hr>132</ns3:hr>
            <ns3:cad>53</ns3:cad>
          </ns3:TrackPointExtension>
        </extensions>
      </trkpt>
      <trkpt lat="45.3365842066705226898193359375" lon="-71.01129650138318538665771484375">
        <ele>867.79998779296875</ele>
        <time>2026-08-21T20:02:35.000Z</time>
        <extensions>
          <ns3:TrackPointExtension>
            <ns3:hr>133</ns3:hr>
            <ns3:cad>53</ns3:cad>
          </ns3:TrackPointExtension>
        </extensions>
      </trkpt>
      <trkpt lat="45.33657423220574855804443359375" lon="-71.01128895767033100128173828125">
        <ele>868</ele>
        <time>2026-08-21T20:02:36.000Z</time>
        <extensions>
          <ns3:TrackPointExtension>
            <ns3:hr>133</ns3:hr>
            <ns3:cad>53</ns3:cad>
          </ns3:TrackPointExtension>
        </extensions>
      </trkpt>
      <trkpt lat="45.336564593017101287841796875" lon="-71.0112830065190792083740234375">
        <ele>868.20001220703125</ele>
        <time>2026-08-21T20:02:37.000Z</time>
        <extensions>
          <ns3:TrackPointExtension>
            <ns3:hr>133</ns3:hr>
            <ns3:cad>53</ns3:cad>
          </ns3:TrackPointExtension>
        </extensions>
      </trkpt>
      <trkpt lat="45.336555540561676025390625" lon="-71.01127571426331996917724609375">
        <ele>868.20001220703125</ele>
        <time>2026-08-21T20:02:38.000Z</time>
        <extensions>
          <ns3:TrackPointExtension>
            <ns3:hr>133</ns3:hr>
            <ns3:cad>53</ns3:cad>
          </ns3:TrackPointExtension>
        </extensions>
      </trkpt>
      <trkpt lat="45.33654640428721904754638671875" lon="-71.01126297377049922943115234375">
        <ele>868.4000244140625</ele>
        <time>2026-08-21T20:02:39.000Z</time>
        <extensions>
          <ns3:TrackPointExtension>
            <ns3:hr>133</ns3:hr>
            <ns3:cad>53</ns3:cad>
          </ns3:TrackPointExtension>
        </extensions>
      </trkpt>
      <trkpt lat="45.3365335799753665924072265625" lon="-71.01124788634479045867919921875">
        <ele>868.4000244140625</ele>
        <time>2026-08-21T20:02:40.000Z</time>
        <extensions>
          <ns3:TrackPointExtension>
            <ns3:hr>133</ns3:hr>
            <ns3:cad>53</ns3:cad>
          </ns3:TrackPointExtension>
        </extensions>
      </trkpt>
      <trkpt lat="45.3365265391767024993896484375" lon="-71.011232547461986541748046875">
        <ele>868.5999755859375</ele>
        <time>2026-08-21T20:02:41.000Z</time>
        <extensions>
          <ns3:TrackPointExtension>
            <ns3:hr>134</ns3:hr>
            <ns3:cad>51</ns3:cad>
          </ns3:TrackPointExtension>
        </extensions>
      </trkpt>
      <trkpt lat="45.33651866018772125244140625" lon="-71.0112189687788486480712890625">
        <ele>868.5999755859375</ele>
        <time>2026-08-21T20:02:42.000Z</time>
        <extensions>
          <ns3:TrackPointExtension>
            <ns3:hr>134</ns3:hr>
            <ns3:cad>51</ns3:cad>
          </ns3:TrackPointExtension>
        </extensions>
      </trkpt>
      <trkpt lat="45.33651002682745456695556640625" lon="-71.01120362989604473114013671875">
        <ele>868.5999755859375</ele>
        <time>2026-08-21T20:02:43.000Z</time>
        <extensions>
          <ns3:TrackPointExtension>
            <ns3:hr>134</ns3:hr>
            <ns3:cad>50</ns3:cad>
          </ns3:TrackPointExtension>
        </extensions>
      </trkpt>
      <trkpt lat="45.336498878896236419677734375" lon="-71.0111908055841922760009765625">
        <ele>868.79998779296875</ele>
        <time>2026-08-21T20:02:44.000Z</time>
        <extensions>
          <ns3:TrackPointExtension>
            <ns3:hr>135</ns3:hr>
            <ns3:cad>50</ns3:cad>
          </ns3:TrackPointExtension>
        </extensions>
      </trkpt>
      <trkpt lat="45.3364926762878894805908203125" lon="-71.01117714308202266693115234375">
        <ele>868.79998779296875</ele>
        <time>2026-08-21T20:02:45.000Z</time>
        <extensions>
          <ns3:TrackPointExtension>
            <ns3:hr>135</ns3:hr>
            <ns3:cad>50</ns3:cad>
          </ns3:TrackPointExtension>
        </extensions>
      </trkpt>
      <trkpt lat="45.336484126746654510498046875" lon="-71.01116381585597991943359375">
        <ele>869</ele>
        <time>2026-08-21T20:02:46.000Z</time>
        <extensions>
          <ns3:TrackPointExtension>
            <ns3:hr>136</ns3:hr>
            <ns3:cad>51</ns3:cad>
          </ns3:TrackPointExtension>
        </extensions>
      </trkpt>
      <trkpt lat="45.33647599630057811737060546875" lon="-71.01115040481090545654296875">
        <ele>869.20001220703125</ele>
        <time>2026-08-21T20:02:47.000Z</time>
        <extensions>
          <ns3:TrackPointExtension>
            <ns3:hr>136</ns3:hr>
            <ns3:cad>51</ns3:cad>
          </ns3:TrackPointExtension>
        </extensions>
      </trkpt>
      <trkpt lat="45.3364651836454868316650390625" lon="-71.01113439537584781646728515625">
        <ele>869.4000244140625</ele>
        <time>2026-08-21T20:02:48.000Z</time>
        <extensions>
          <ns3:TrackPointExtension>
            <ns3:hr>136</ns3:hr>
            <ns3:cad>53</ns3:cad>
          </ns3:TrackPointExtension>
        </extensions>
      </trkpt>
      <trkpt lat="45.336452610790729522705078125" lon="-71.0111224092543125152587890625">
        <ele>869.5999755859375</ele>
        <time>2026-08-21T20:02:49.000Z</time>
        <extensions>
          <ns3:TrackPointExtension>
            <ns3:hr>136</ns3:hr>
            <ns3:cad>53</ns3:cad>
          </ns3:TrackPointExtension>
        </extensions>
      </trkpt>
      <trkpt lat="45.33644330687820911407470703125" lon="-71.01111092604696750640869140625">
        <ele>869.79998779296875</ele>
        <time>2026-08-21T20:02:50.000Z</time>
        <extensions>
          <ns3:TrackPointExtension>
            <ns3:hr>136</ns3:hr>
            <ns3:cad>53</ns3:cad>
          </ns3:TrackPointExtension>
        </extensions>
      </trkpt>
      <trkpt lat="45.336434505879878997802734375" lon="-71.0110975988209247589111328125">
        <ele>869.79998779296875</ele>
        <time>2026-08-21T20:02:51.000Z</time>
        <extensions>
          <ns3:TrackPointExtension>
            <ns3:hr>137</ns3:hr>
            <ns3:cad>52</ns3:cad>
          </ns3:TrackPointExtension>
        </extensions>
      </trkpt>
      <trkpt lat="45.3364269621670246124267578125" lon="-71.0110858641564846038818359375">
        <ele>870</ele>
        <time>2026-08-21T20:02:52.000Z</time>
        <extensions>
          <ns3:TrackPointExtension>
            <ns3:hr>136</ns3:hr>
            <ns3:cad>52</ns3:cad>
          </ns3:TrackPointExtension>
        </extensions>
      </trkpt>
      <trkpt lat="45.33641941845417022705078125" lon="-71.01108024828135967254638671875">
        <ele>870</ele>
        <time>2026-08-21T20:02:53.000Z</time>
        <extensions>
          <ns3:TrackPointExtension>
            <ns3:hr>137</ns3:hr>
            <ns3:cad>52</ns3:cad>
          </ns3:TrackPointExtension>
        </extensions>
      </trkpt>
      <trkpt lat="45.33640491776168346405029296875" lon="-71.0110774822533130645751953125">
        <ele>870.20001220703125</ele>
        <time>2026-08-21T20:02:54.000Z</time>
        <extensions>
          <ns3:TrackPointExtension>
            <ns3:hr>138</ns3:hr>
            <ns3:cad>52</ns3:cad>
          </ns3:TrackPointExtension>
        </extensions>
      </trkpt>
      <trkpt lat="45.336394943296909332275390625" lon="-71.01107773371040821075439453125">
        <ele>870.4000244140625</ele>
        <time>2026-08-21T20:02:55.000Z</time>
        <extensions>
          <ns3:TrackPointExtension>
            <ns3:hr>138</ns3:hr>
            <ns3:cad>50</ns3:cad>
          </ns3:TrackPointExtension>
        </extensions>
      </trkpt>
      <trkpt lat="45.33638647757470607757568359375" lon="-71.0110719501972198486328125">
        <ele>870.5999755859375</ele>
        <time>2026-08-21T20:02:56.000Z</time>
        <extensions>
          <ns3:TrackPointExtension>
            <ns3:hr>138</ns3:hr>
            <ns3:cad>49</ns3:cad>
          </ns3:TrackPointExtension>
        </extensions>
      </trkpt>
      <trkpt lat="45.33637558110058307647705078125" lon="-71.01106314919888973236083984375">
        <ele>870.79998779296875</ele>
        <time>2026-08-21T20:02:57.000Z</time>
        <extensions>
          <ns3:TrackPointExtension>
            <ns3:hr>138</ns3:hr>
            <ns3:cad>49</ns3:cad>
          </ns3:TrackPointExtension>
        </extensions>
      </trkpt>
      <trkpt lat="45.33636736683547496795654296875" lon="-71.011058874428272247314453125">
        <ele>871</ele>
        <time>2026-08-21T20:02:58.000Z</time>
        <extensions>
          <ns3:TrackPointExtension>
            <ns3:hr>138</ns3:hr>
            <ns3:cad>49</ns3:cad>
          </ns3:TrackPointExtension>
        </extensions>
      </trkpt>
      <trkpt lat="45.3363568894565105438232421875" lon="-71.01104579865932464599609375">
        <ele>871</ele>
        <time>2026-08-21T20:02:59.000Z</time>
        <extensions>
          <ns3:TrackPointExtension>
            <ns3:hr>138</ns3:hr>
            <ns3:cad>49</ns3:cad>
          </ns3:TrackPointExtension>
        </extensions>
      </trkpt>
      <trkpt lat="45.33634808845818042755126953125" lon="-71.01103548891842365264892578125">
        <ele>871</ele>
        <time>2026-08-21T20:03:00.000Z</time>
        <extensions>
          <ns3:TrackPointExtension>
            <ns3:hr>138</ns3:hr>
            <ns3:cad>50</ns3:cad>
          </ns3:TrackPointExtension>
        </extensions>
      </trkpt>
      <trkpt lat="45.336337275803089141845703125" lon="-71.01102358661592006683349609375">
        <ele>871.20001220703125</ele>
        <time>2026-08-21T20:03:01.000Z</time>
        <extensions>
          <ns3:TrackPointExtension>
            <ns3:hr>138</ns3:hr>
            <ns3:cad>50</ns3:cad>
          </ns3:TrackPointExtension>
        </extensions>
      </trkpt>
      <trkpt lat="45.33632813952863216400146484375" lon="-71.0110147856175899505615234375">
        <ele>871.20001220703125</ele>
        <time>2026-08-21T20:03:02.000Z</time>
        <extensions>
          <ns3:TrackPointExtension>
            <ns3:hr>138</ns3:hr>
            <ns3:cad>50</ns3:cad>
          </ns3:TrackPointExtension>
        </extensions>
      </trkpt>
      <trkpt lat="45.3363213501870632171630859375" lon="-71.011006571352481842041015625">
        <ele>871.4000244140625</ele>
        <time>2026-08-21T20:03:03.000Z</time>
        <extensions>
          <ns3:TrackPointExtension>
            <ns3:hr>139</ns3:hr>
            <ns3:cad>50</ns3:cad>
          </ns3:TrackPointExtension>
        </extensions>
      </trkpt>
      <trkpt lat="45.3363143093883991241455078125" lon="-71.01100045256316661834716796875">
        <ele>871.4000244140625</ele>
        <time>2026-08-21T20:03:04.000Z</time>
        <extensions>
          <ns3:TrackPointExtension>
            <ns3:hr>138</ns3:hr>
            <ns3:cad>50</ns3:cad>
          </ns3:TrackPointExtension>
        </extensions>
      </trkpt>
      <trkpt lat="45.3363020718097686767578125" lon="-71.01099240593612194061279296875">
        <ele>871.5999755859375</ele>
        <time>2026-08-21T20:03:05.000Z</time>
        <extensions>
          <ns3:TrackPointExtension>
            <ns3:hr>138</ns3:hr>
            <ns3:cad>51</ns3:cad>
          </ns3:TrackPointExtension>
        </extensions>
      </trkpt>
      <trkpt lat="45.3362871520221233367919921875" lon="-71.01098469458520412445068359375">
        <ele>871.5999755859375</ele>
        <time>2026-08-21T20:03:06.000Z</time>
        <extensions>
          <ns3:TrackPointExtension>
            <ns3:hr>138</ns3:hr>
            <ns3:cad>51</ns3:cad>
          </ns3:TrackPointExtension>
        </extensions>
      </trkpt>
      <trkpt lat="45.33627801574766635894775390625" lon="-71.010976731777191162109375">
        <ele>871.5999755859375</ele>
        <time>2026-08-21T20:03:07.000Z</time>
        <extensions>
          <ns3:TrackPointExtension>
            <ns3:hr>138</ns3:hr>
            <ns3:cad>51</ns3:cad>
          </ns3:TrackPointExtension>
        </extensions>
      </trkpt>
      <trkpt lat="45.336266867816448211669921875" lon="-71.0109655000269412994384765625">
        <ele>871.5999755859375</ele>
        <time>2026-08-21T20:03:08.000Z</time>
        <extensions>
          <ns3:TrackPointExtension>
            <ns3:hr>138</ns3:hr>
            <ns3:cad>51</ns3:cad>
          </ns3:TrackPointExtension>
        </extensions>
      </trkpt>
      <trkpt lat="45.33625337295234203338623046875" lon="-71.01095259189605712890625">
        <ele>871.5999755859375</ele>
        <time>2026-08-21T20:03:09.000Z</time>
        <extensions>
          <ns3:TrackPointExtension>
            <ns3:hr>138</ns3:hr>
            <ns3:cad>51</ns3:cad>
          </ns3:TrackPointExtension>
        </extensions>
      </trkpt>
      <trkpt lat="45.336240045726299285888671875" lon="-71.01094312034547328948974609375">
        <ele>871.5999755859375</ele>
        <time>2026-08-21T20:03:10.000Z</time>
        <extensions>
          <ns3:TrackPointExtension>
            <ns3:hr>138</ns3:hr>
            <ns3:cad>51</ns3:cad>
          </ns3:TrackPointExtension>
        </extensions>
      </trkpt>
      <trkpt lat="45.336228311061859130859375" lon="-71.0109339840710163116455078125">
        <ele>871.5999755859375</ele>
        <time>2026-08-21T20:03:11.000Z</time>
        <extensions>
          <ns3:TrackPointExtension>
            <ns3:hr>138</ns3:hr>
            <ns3:cad>51</ns3:cad>
          </ns3:TrackPointExtension>
        </extensions>
      </trkpt>
      <trkpt lat="45.336216576397418975830078125" lon="-71.0109266079962253570556640625">
        <ele>871.79998779296875</ele>
        <time>2026-08-21T20:03:12.000Z</time>
        <extensions>
          <ns3:TrackPointExtension>
            <ns3:hr>138</ns3:hr>
            <ns3:cad>51</ns3:cad>
          </ns3:TrackPointExtension>
        </extensions>
      </trkpt>
      <trkpt lat="45.33620861358940601348876953125" lon="-71.0109225846827030181884765625">
        <ele>871.79998779296875</ele>
        <time>2026-08-21T20:03:13.000Z</time>
        <extensions>
          <ns3:TrackPointExtension>
            <ns3:hr>137</ns3:hr>
            <ns3:cad>51</ns3:cad>
          </ns3:TrackPointExtension>
        </extensions>
      </trkpt>
      <trkpt lat="45.33620442263782024383544921875" lon="-71.010914035141468048095703125">
        <ele>872</ele>
        <time>2026-08-21T20:03:14.000Z</time>
        <extensions>
          <ns3:TrackPointExtension>
            <ns3:hr>136</ns3:hr>
            <ns3:cad>51</ns3:cad>
          </ns3:TrackPointExtension>
        </extensions>
      </trkpt>
      <trkpt lat="45.33619520254433155059814453125" lon="-71.01090573705732822418212890625">
        <ele>872.20001220703125</ele>
        <time>2026-08-21T20:03:15.000Z</time>
        <extensions>
          <ns3:TrackPointExtension>
            <ns3:hr>136</ns3:hr>
            <ns3:cad>50</ns3:cad>
          </ns3:TrackPointExtension>
        </extensions>
      </trkpt>
      <trkpt lat="45.33618698827922344207763671875" lon="-71.01089618168771266937255859375">
        <ele>872.20001220703125</ele>
        <time>2026-08-21T20:03:16.000Z</time>
        <extensions>
          <ns3:TrackPointExtension>
            <ns3:hr>135</ns3:hr>
            <ns3:cad>50</ns3:cad>
          </ns3:TrackPointExtension>
        </extensions>
      </trkpt>
      <trkpt lat="45.336175672709941864013671875" lon="-71.01088679395616054534912109375">
        <ele>872.4000244140625</ele>
        <time>2026-08-21T20:03:17.000Z</time>
        <extensions>
          <ns3:TrackPointExtension>
            <ns3:hr>135</ns3:hr>
            <ns3:cad>50</ns3:cad>
          </ns3:TrackPointExtension>
        </extensions>
      </trkpt>
      <trkpt lat="45.33616536296904087066650390625" lon="-71.0108783282339572906494140625">
        <ele>872.5999755859375</ele>
        <time>2026-08-21T20:03:18.000Z</time>
        <extensions>
          <ns3:TrackPointExtension>
            <ns3:hr>135</ns3:hr>
            <ns3:cad>50</ns3:cad>
          </ns3:TrackPointExtension>
        </extensions>
      </trkpt>
      <trkpt lat="45.33615664578974246978759765625" lon="-71.01087405346333980560302734375">
        <ele>872.79998779296875</ele>
        <time>2026-08-21T20:03:19.000Z</time>
        <extensions>
          <ns3:TrackPointExtension>
            <ns3:hr>135</ns3:hr>
            <ns3:cad>50</ns3:cad>
          </ns3:TrackPointExtension>
        </extensions>
      </trkpt>
      <trkpt lat="45.33614440821111202239990234375" lon="-71.01086877286434173583984375">
        <ele>873</ele>
        <time>2026-08-21T20:03:20.000Z</time>
        <extensions>
          <ns3:TrackPointExtension>
            <ns3:hr>136</ns3:hr>
            <ns3:cad>51</ns3:cad>
          </ns3:TrackPointExtension>
        </extensions>
      </trkpt>
      <trkpt lat="45.33613434992730617523193359375" lon="-71.0108645819127559661865234375">
        <ele>873</ele>
        <time>2026-08-21T20:03:21.000Z</time>
        <extensions>
          <ns3:TrackPointExtension>
            <ns3:hr>135</ns3:hr>
            <ns3:cad>51</ns3:cad>
          </ns3:TrackPointExtension>
        </extensions>
      </trkpt>
      <trkpt lat="45.336117334663867950439453125" lon="-71.0108582116663455963134765625">
        <ele>873.20001220703125</ele>
        <time>2026-08-21T20:03:22.000Z</time>
        <extensions>
          <ns3:TrackPointExtension>
            <ns3:hr>135</ns3:hr>
            <ns3:cad>51</ns3:cad>
          </ns3:TrackPointExtension>
        </extensions>
      </trkpt>
      <trkpt lat="45.3361022472381591796875" lon="-71.01086340844631195068359375">
        <ele>873.20001220703125</ele>
        <time>2026-08-21T20:03:23.000Z</time>
        <extensions>
          <ns3:TrackPointExtension>
            <ns3:hr>135</ns3:hr>
            <ns3:cad>50</ns3:cad>
          </ns3:TrackPointExtension>
        </extensions>
      </trkpt>
      <trkpt lat="45.33608724363148212432861328125" lon="-71.010868437588214874267578125">
        <ele>873.4000244140625</ele>
        <time>2026-08-21T20:03:24.000Z</time>
        <extensions>
          <ns3:TrackPointExtension>
            <ns3:hr>134</ns3:hr>
            <ns3:cad>50</ns3:cad>
          </ns3:TrackPointExtension>
        </extensions>
      </trkpt>
      <trkpt lat="45.33607332967221736907958984375" lon="-71.0108732990920543670654296875">
        <ele>873.4000244140625</ele>
        <time>2026-08-21T20:03:25.000Z</time>
        <extensions>
          <ns3:TrackPointExtension>
            <ns3:hr>134</ns3:hr>
            <ns3:cad>51</ns3:cad>
          </ns3:TrackPointExtension>
        </extensions>
      </trkpt>
      <trkpt lat="45.33605941571295261383056640625" lon="-71.01088260300457477569580078125">
        <ele>873.5999755859375</ele>
        <time>2026-08-21T20:03:26.000Z</time>
        <extensions>
          <ns3:TrackPointExtension>
            <ns3:hr>133</ns3:hr>
            <ns3:cad>51</ns3:cad>
          </ns3:TrackPointExtension>
        </extensions>
      </trkpt>
      <trkpt lat="45.33604650758206844329833984375" lon="-71.0108877159655094146728515625">
        <ele>873.5999755859375</ele>
        <time>2026-08-21T20:03:27.000Z</time>
        <extensions>
          <ns3:TrackPointExtension>
            <ns3:hr>133</ns3:hr>
            <ns3:cad>51</ns3:cad>
          </ns3:TrackPointExtension>
        </extensions>
      </trkpt>
      <trkpt lat="45.33603477291762828826904296875" lon="-71.010890901088714599609375">
        <ele>873.5999755859375</ele>
        <time>2026-08-21T20:03:28.000Z</time>
        <extensions>
          <ns3:TrackPointExtension>
            <ns3:hr>133</ns3:hr>
            <ns3:cad>50</ns3:cad>
          </ns3:TrackPointExtension>
        </extensions>
      </trkpt>
      <trkpt lat="45.336023457348346710205078125" lon="-71.01089115254580974578857421875">
        <ele>873.79998779296875</ele>
        <time>2026-08-21T20:03:29.000Z</time>
        <extensions>
          <ns3:TrackPointExtension>
            <ns3:hr>132</ns3:hr>
            <ns3:cad>50</ns3:cad>
          </ns3:TrackPointExtension>
        </extensions>
      </trkpt>
      <trkpt lat="45.33601465635001659393310546875" lon="-71.01088863797485828399658203125">
        <ele>873.79998779296875</ele>
        <time>2026-08-21T20:03:30.000Z</time>
        <extensions>
          <ns3:TrackPointExtension>
            <ns3:hr>132</ns3:hr>
            <ns3:cad>50</ns3:cad>
          </ns3:TrackPointExtension>
        </extensions>
      </trkpt>
      <trkpt lat="45.3360041789710521697998046875" lon="-71.01088830269873142242431640625">
        <ele>874</ele>
        <time>2026-08-21T20:03:31.000Z</time>
        <extensions>
          <ns3:TrackPointExtension>
            <ns3:hr>131</ns3:hr>
            <ns3:cad>50</ns3:cad>
          </ns3:TrackPointExtension>
        </extensions>
      </trkpt>
      <trkpt lat="45.33599101938307285308837890625" lon="-71.01088981144130229949951171875">
        <ele>874</ele>
        <time>2026-08-21T20:03:32.000Z</time>
        <extensions>
          <ns3:TrackPointExtension>
            <ns3:hr>131</ns3:hr>
            <ns3:cad>50</ns3:cad>
          </ns3:TrackPointExtension>
        </extensions>
      </trkpt>
      <trkpt lat="45.33598029054701328277587890625" lon="-71.01088847033679485321044921875">
        <ele>874.20001220703125</ele>
        <time>2026-08-21T20:03:33.000Z</time>
        <extensions>
          <ns3:TrackPointExtension>
            <ns3:hr>131</ns3:hr>
            <ns3:cad>49</ns3:cad>
          </ns3:TrackPointExtension>
        </extensions>
      </trkpt>
      <trkpt lat="45.33596654422581195831298828125" lon="-71.010886542499065399169921875">
        <ele>874.20001220703125</ele>
        <time>2026-08-21T20:03:34.000Z</time>
        <extensions>
          <ns3:TrackPointExtension>
            <ns3:hr>131</ns3:hr>
            <ns3:cad>49</ns3:cad>
          </ns3:TrackPointExtension>
        </extensions>
      </trkpt>
      <trkpt lat="45.33595405519008636474609375" lon="-71.01088620722293853759765625">
        <ele>874.20001220703125</ele>
        <time>2026-08-21T20:03:35.000Z</time>
        <extensions>
          <ns3:TrackPointExtension>
            <ns3:hr>131</ns3:hr>
            <ns3:cad>48</ns3:cad>
          </ns3:TrackPointExtension>
        </extensions>
      </trkpt>
      <trkpt lat="45.33594341017305850982666015625" lon="-71.01088545285165309906005859375">
        <ele>874.4000244140625</ele>
        <time>2026-08-21T20:03:36.000Z</time>
        <extensions>
          <ns3:TrackPointExtension>
            <ns3:hr>131</ns3:hr>
            <ns3:cad>48</ns3:cad>
          </ns3:TrackPointExtension>
        </extensions>
      </trkpt>
      <trkpt lat="45.33593268133699893951416015625" lon="-71.0108850337564945220947265625">
        <ele>874.4000244140625</ele>
        <time>2026-08-21T20:03:37.000Z</time>
        <extensions>
          <ns3:TrackPointExtension>
            <ns3:hr>132</ns3:hr>
            <ns3:cad>48</ns3:cad>
          </ns3:TrackPointExtension>
        </extensions>
      </trkpt>
      <trkpt lat="45.33592144958674907684326171875" lon="-71.010883189737796783447265625">
        <ele>874.5999755859375</ele>
        <time>2026-08-21T20:03:38.000Z</time>
        <extensions>
          <ns3:TrackPointExtension>
            <ns3:hr>132</ns3:hr>
            <ns3:cad>52</ns3:cad>
          </ns3:TrackPointExtension>
        </extensions>
      </trkpt>
      <trkpt lat="45.33590904437005519866943359375" lon="-71.01088444702327251434326171875">
        <ele>874.79998779296875</ele>
        <time>2026-08-21T20:03:39.000Z</time>
        <extensions>
          <ns3:TrackPointExtension>
            <ns3:hr>132</ns3:hr>
            <ns3:cad>53</ns3:cad>
          </ns3:TrackPointExtension>
        </extensions>
      </trkpt>
      <trkpt lat="45.3358955495059490203857421875" lon="-71.01088821887969970703125">
        <ele>874.79998779296875</ele>
        <time>2026-08-21T20:03:40.000Z</time>
        <extensions>
          <ns3:TrackPointExtension>
            <ns3:hr>131</ns3:hr>
            <ns3:cad>53</ns3:cad>
          </ns3:TrackPointExtension>
        </extensions>
      </trkpt>
      <trkpt lat="45.33588792197406291961669921875" lon="-71.01089349947869777679443359375">
        <ele>875</ele>
        <time>2026-08-21T20:03:41.000Z</time>
        <extensions>
          <ns3:TrackPointExtension>
            <ns3:hr>131</ns3:hr>
            <ns3:cad>53</ns3:cad>
          </ns3:TrackPointExtension>
        </extensions>
      </trkpt>
      <trkpt lat="45.335880629718303680419921875" lon="-71.01089785806834697723388671875">
        <ele>875.20001220703125</ele>
        <time>2026-08-21T20:03:42.000Z</time>
        <extensions>
          <ns3:TrackPointExtension>
            <ns3:hr>131</ns3:hr>
            <ns3:cad>49</ns3:cad>
          </ns3:TrackPointExtension>
        </extensions>
      </trkpt>
      <trkpt lat="45.33587048761546611785888671875" lon="-71.0109014622867107391357421875">
        <ele>875.20001220703125</ele>
        <time>2026-08-21T20:03:43.000Z</time>
        <extensions>
          <ns3:TrackPointExtension>
            <ns3:hr>130</ns3:hr>
            <ns3:cad>49</ns3:cad>
          </ns3:TrackPointExtension>
        </extensions>
      </trkpt>
      <trkpt lat="45.33586026169359683990478515625" lon="-71.0109028033912181854248046875">
        <ele>875.4000244140625</ele>
        <time>2026-08-21T20:03:44.000Z</time>
        <extensions>
          <ns3:TrackPointExtension>
            <ns3:hr>131</ns3:hr>
            <ns3:cad>48</ns3:cad>
          </ns3:TrackPointExtension>
        </extensions>
      </trkpt>
      <trkpt lat="45.3358496166765689849853515625" lon="-71.0109068267047405242919921875">
        <ele>875.5999755859375</ele>
        <time>2026-08-21T20:03:45.000Z</time>
        <extensions>
          <ns3:TrackPointExtension>
            <ns3:hr>131</ns3:hr>
            <ns3:cad>47</ns3:cad>
          </ns3:TrackPointExtension>
        </extensions>
      </trkpt>
      <trkpt lat="45.33584148623049259185791015625" lon="-71.01090942509472370147705078125">
        <ele>875.5999755859375</ele>
        <time>2026-08-21T20:03:46.000Z</time>
        <extensions>
          <ns3:TrackPointExtension>
            <ns3:hr>131</ns3:hr>
            <ns3:cad>47</ns3:cad>
          </ns3:TrackPointExtension>
        </extensions>
      </trkpt>
      <trkpt lat="45.335836373269557952880859375" lon="-71.01090640760958194732666015625">
        <ele>875.79998779296875</ele>
        <time>2026-08-21T20:03:47.000Z</time>
        <extensions>
          <ns3:TrackPointExtension>
            <ns3:hr>130</ns3:hr>
            <ns3:cad>45</ns3:cad>
          </ns3:TrackPointExtension>
        </extensions>
      </trkpt>
      <trkpt lat="45.33583628945052623748779296875" lon="-71.0109051503241062164306640625">
        <ele>876</ele>
        <time>2026-08-21T20:03:48.000Z</time>
        <extensions>
          <ns3:TrackPointExtension>
            <ns3:hr>130</ns3:hr>
            <ns3:cad>45</ns3:cad>
          </ns3:TrackPointExtension>
        </extensions>
      </trkpt>
      <trkpt lat="45.33583444543182849884033203125" lon="-71.01090473122894763946533203125">
        <ele>876</ele>
        <time>2026-08-21T20:03:49.000Z</time>
        <extensions>
          <ns3:TrackPointExtension>
            <ns3:hr>130</ns3:hr>
            <ns3:cad>0</ns3:cad>
          </ns3:TrackPointExtension>
        </extensions>
      </trkpt>
      <trkpt lat="45.33583444543182849884033203125" lon="-71.01090489886701107025146484375">
        <ele>876</ele>
        <time>2026-08-21T20:03:50.000Z</time>
        <extensions>
          <ns3:TrackPointExtension>
            <ns3:hr>131</ns3:hr>
            <ns3:cad>0</ns3:cad>
          </ns3:TrackPointExtension>
        </extensions>
      </trkpt>
      <trkpt lat="45.3358258120715618133544921875" lon="-71.01090875454246997833251953125">
        <ele>876</ele>
        <time>2026-08-21T20:03:51.000Z</time>
        <extensions>
          <ns3:TrackPointExtension>
            <ns3:hr>130</ns3:hr>
            <ns3:cad>0</ns3:cad>
          </ns3:TrackPointExtension>
        </extensions>
      </trkpt>
      <trkpt lat="45.33581784926354885101318359375" lon="-71.010913364589214324951171875">
        <ele>876.20001220703125</ele>
        <time>2026-08-21T20:03:52.000Z</time>
        <extensions>
          <ns3:TrackPointExtension>
            <ns3:hr>130</ns3:hr>
            <ns3:cad>0</ns3:cad>
          </ns3:TrackPointExtension>
        </extensions>
      </trkpt>
      <trkpt lat="45.33580862917006015777587890625" lon="-71.01091445423662662506103515625">
        <ele>876.20001220703125</ele>
        <time>2026-08-21T20:03:53.000Z</time>
        <extensions>
          <ns3:TrackPointExtension>
            <ns3:hr>131</ns3:hr>
            <ns3:cad>0</ns3:cad>
          </ns3:TrackPointExtension>
        </extensions>
      </trkpt>
      <trkpt lat="45.33579655922949314117431640625" lon="-71.01091344840824604034423828125">
        <ele>876.4000244140625</ele>
        <time>2026-08-21T20:03:54.000Z</time>
        <extensions>
          <ns3:TrackPointExtension>
            <ns3:hr>131</ns3:hr>
            <ns3:cad>0</ns3:cad>
          </ns3:TrackPointExtension>
        </extensions>
      </trkpt>
      <trkpt lat="45.3357879258692264556884765625" lon="-71.01091361604630947113037109375">
        <ele>876.5999755859375</ele>
        <time>2026-08-21T20:03:55.000Z</time>
        <extensions>
          <ns3:TrackPointExtension>
            <ns3:hr>131</ns3:hr>
            <ns3:cad>47</ns3:cad>
          </ns3:TrackPointExtension>
        </extensions>
      </trkpt>
      <trkpt lat="45.33577711321413516998291015625" lon="-71.01091579534113407135009765625">
        <ele>876.79998779296875</ele>
        <time>2026-08-21T20:03:56.000Z</time>
        <extensions>
          <ns3:TrackPointExtension>
            <ns3:hr>131</ns3:hr>
            <ns3:cad>47</ns3:cad>
          </ns3:TrackPointExtension>
        </extensions>
      </trkpt>
      <trkpt lat="45.33576739020645618438720703125" lon="-71.01091613061726093292236328125">
        <ele>876.79998779296875</ele>
        <time>2026-08-21T20:03:57.000Z</time>
        <extensions>
          <ns3:TrackPointExtension>
            <ns3:hr>132</ns3:hr>
            <ns3:cad>51</ns3:cad>
          </ns3:TrackPointExtension>
        </extensions>
      </trkpt>
      <trkpt lat="45.335757918655872344970703125" lon="-71.01091680116951465606689453125">
        <ele>877</ele>
        <time>2026-08-21T20:03:58.000Z</time>
        <extensions>
          <ns3:TrackPointExtension>
            <ns3:hr>130</ns3:hr>
            <ns3:cad>51</ns3:cad>
          </ns3:TrackPointExtension>
        </extensions>
      </trkpt>
      <trkpt lat="45.3357486985623836517333984375" lon="-71.01091747172176837921142578125">
        <ele>877.20001220703125</ele>
        <time>2026-08-21T20:03:59.000Z</time>
        <extensions>
          <ns3:TrackPointExtension>
            <ns3:hr>129</ns3:hr>
            <ns3:cad>47</ns3:cad>
          </ns3:TrackPointExtension>
        </extensions>
      </trkpt>
      <trkpt lat="45.33573813736438751220703125" lon="-71.010917723178863525390625">
        <ele>877.4000244140625</ele>
        <time>2026-08-21T20:04:00.000Z</time>
        <extensions>
          <ns3:TrackPointExtension>
            <ns3:hr>127</ns3:hr>
            <ns3:cad>47</ns3:cad>
          </ns3:TrackPointExtension>
        </extensions>
      </trkpt>
      <trkpt lat="45.3357279114425182342529296875" lon="-71.01091193966567516326904296875">
        <ele>877.4000244140625</ele>
        <time>2026-08-21T20:04:01.000Z</time>
        <extensions>
          <ns3:TrackPointExtension>
            <ns3:hr>127</ns3:hr>
            <ns3:cad>47</ns3:cad>
          </ns3:TrackPointExtension>
        </extensions>
      </trkpt>
      <trkpt lat="45.335718356072902679443359375" lon="-71.010906994342803955078125">
        <ele>877.5999755859375</ele>
        <time>2026-08-21T20:04:02.000Z</time>
        <extensions>
          <ns3:TrackPointExtension>
            <ns3:hr>127</ns3:hr>
            <ns3:cad>48</ns3:cad>
          </ns3:TrackPointExtension>
        </extensions>
      </trkpt>
      <trkpt lat="45.33571424894034862518310546875" lon="-71.01090087555348873138427734375">
        <ele>877.79998779296875</ele>
        <time>2026-08-21T20:04:03.000Z</time>
        <extensions>
          <ns3:TrackPointExtension>
            <ns3:hr>128</ns3:hr>
            <ns3:cad>48</ns3:cad>
          </ns3:TrackPointExtension>
        </extensions>
      </trkpt>
      <trkpt lat="45.33570502884685993194580078125" lon="-71.01089718751609325408935546875">
        <ele>877.79998779296875</ele>
        <time>2026-08-21T20:04:04.000Z</time>
        <extensions>
          <ns3:TrackPointExtension>
            <ns3:hr>128</ns3:hr>
            <ns3:cad>48</ns3:cad>
          </ns3:TrackPointExtension>
        </extensions>
      </trkpt>
      <trkpt lat="45.33569681458175182342529296875" lon="-71.010893248021602630615234375">
        <ele>878</ele>
        <time>2026-08-21T20:04:05.000Z</time>
        <extensions>
          <ns3:TrackPointExtension>
            <ns3:hr>128</ns3:hr>
            <ns3:cad>48</ns3:cad>
          </ns3:TrackPointExtension>
        </extensions>
      </trkpt>
      <trkpt lat="45.3356880135834217071533203125" lon="-71.01088997907936573028564453125">
        <ele>878.20001220703125</ele>
        <time>2026-08-21T20:04:06.000Z</time>
        <extensions>
          <ns3:TrackPointExtension>
            <ns3:hr>128</ns3:hr>
            <ns3:cad>49</ns3:cad>
          </ns3:TrackPointExtension>
        </extensions>
      </trkpt>
      <trkpt lat="45.3356796316802501678466796875" lon="-71.01088981144130229949951171875">
        <ele>878.20001220703125</ele>
        <time>2026-08-21T20:04:07.000Z</time>
        <extensions>
          <ns3:TrackPointExtension>
            <ns3:hr>128</ns3:hr>
            <ns3:cad>49</ns3:cad>
          </ns3:TrackPointExtension>
        </extensions>
      </trkpt>
      <trkpt lat="45.33567183651030063629150390625" lon="-71.0108877159655094146728515625">
        <ele>878.4000244140625</ele>
        <time>2026-08-21T20:04:08.000Z</time>
        <extensions>
          <ns3:TrackPointExtension>
            <ns3:hr>128</ns3:hr>
            <ns3:cad>49</ns3:cad>
          </ns3:TrackPointExtension>
        </extensions>
      </trkpt>
      <trkpt lat="45.3356621973216533660888671875" lon="-71.01088360883295536041259765625">
        <ele>878.5999755859375</ele>
        <time>2026-08-21T20:04:09.000Z</time>
        <extensions>
          <ns3:TrackPointExtension>
            <ns3:hr>128</ns3:hr>
            <ns3:cad>48</ns3:cad>
          </ns3:TrackPointExtension>
        </extensions>
      </trkpt>
      <trkpt lat="45.33565306104719638824462890625" lon="-71.010881178081035614013671875">
        <ele>878.5999755859375</ele>
        <time>2026-08-21T20:04:10.000Z</time>
        <extensions>
          <ns3:TrackPointExtension>
            <ns3:hr>128</ns3:hr>
            <ns3:cad>48</ns3:cad>
          </ns3:TrackPointExtension>
        </extensions>
      </trkpt>
      <trkpt lat="45.3356417454779148101806640625" lon="-71.01087857969105243682861328125">
        <ele>878.79998779296875</ele>
        <time>2026-08-21T20:04:11.000Z</time>
        <extensions>
          <ns3:TrackPointExtension>
            <ns3:hr>128</ns3:hr>
            <ns3:cad>47</ns3:cad>
          </ns3:TrackPointExtension>
        </extensions>
      </trkpt>
      <trkpt lat="45.335632525384426116943359375" lon="-71.01087572984397411346435546875">
        <ele>879</ele>
        <time>2026-08-21T20:04:12.000Z</time>
        <extensions>
          <ns3:TrackPointExtension>
            <ns3:hr>128</ns3:hr>
            <ns3:cad>47</ns3:cad>
          </ns3:TrackPointExtension>
        </extensions>
      </trkpt>
      <trkpt lat="45.33561953343451023101806640625" lon="-71.01087237708270549774169921875">
        <ele>879.20001220703125</ele>
        <time>2026-08-21T20:04:13.000Z</time>
        <extensions>
          <ns3:TrackPointExtension>
            <ns3:hr>129</ns3:hr>
            <ns3:cad>47</ns3:cad>
          </ns3:TrackPointExtension>
        </extensions>
      </trkpt>
      <trkpt lat="45.3356068767607212066650390625" lon="-71.0108702816069126129150390625">
        <ele>879.4000244140625</ele>
        <time>2026-08-21T20:04:14.000Z</time>
        <extensions>
          <ns3:TrackPointExtension>
            <ns3:hr>129</ns3:hr>
            <ns3:cad>49</ns3:cad>
          </ns3:TrackPointExtension>
        </extensions>
      </trkpt>
      <trkpt lat="45.33559606410562992095947265625" lon="-71.01086818613111972808837890625">
        <ele>879.4000244140625</ele>
        <time>2026-08-21T20:04:15.000Z</time>
        <extensions>
          <ns3:TrackPointExtension>
            <ns3:hr>129</ns3:hr>
            <ns3:cad>49</ns3:cad>
          </ns3:TrackPointExtension>
        </extensions>
      </trkpt>
      <trkpt lat="45.33558181487023830413818359375" lon="-71.01086676120758056640625">
        <ele>879.4000244140625</ele>
        <time>2026-08-21T20:04:16.000Z</time>
        <extensions>
          <ns3:TrackPointExtension>
            <ns3:hr>128</ns3:hr>
            <ns3:cad>48</ns3:cad>
          </ns3:TrackPointExtension>
        </extensions>
      </trkpt>
      <trkpt lat="45.335571505129337310791015625" lon="-71.01086399517953395843505859375">
        <ele>879.5999755859375</ele>
        <time>2026-08-21T20:04:17.000Z</time>
        <extensions>
          <ns3:TrackPointExtension>
            <ns3:hr>129</ns3:hr>
            <ns3:cad>48</ns3:cad>
          </ns3:TrackPointExtension>
        </extensions>
      </trkpt>
      <trkpt lat="45.33555574715137481689453125" lon="-71.01086801849305629730224609375">
        <ele>879.5999755859375</ele>
        <time>2026-08-21T20:04:18.000Z</time>
        <extensions>
          <ns3:TrackPointExtension>
            <ns3:hr>129</ns3:hr>
            <ns3:cad>48</ns3:cad>
          </ns3:TrackPointExtension>
        </extensions>
      </trkpt>
      <trkpt lat="45.3355414979159832000732421875" lon="-71.01086768321692943572998046875">
        <ele>879.79998779296875</ele>
        <time>2026-08-21T20:04:19.000Z</time>
        <extensions>
          <ns3:TrackPointExtension>
            <ns3:hr>129</ns3:hr>
            <ns3:cad>48</ns3:cad>
          </ns3:TrackPointExtension>
        </extensions>
      </trkpt>
      <trkpt lat="45.33553252927958965301513671875" lon="-71.010871119797229766845703125">
        <ele>880</ele>
        <time>2026-08-21T20:04:20.000Z</time>
        <extensions>
          <ns3:TrackPointExtension>
            <ns3:hr>129</ns3:hr>
            <ns3:cad>48</ns3:cad>
          </ns3:TrackPointExtension>
        </extensions>
      </trkpt>
      <trkpt lat="45.33552029170095920562744140625" lon="-71.01087271235883235931396484375">
        <ele>880.20001220703125</ele>
        <time>2026-08-21T20:04:21.000Z</time>
        <extensions>
          <ns3:TrackPointExtension>
            <ns3:hr>129</ns3:hr>
            <ns3:cad>48</ns3:cad>
          </ns3:TrackPointExtension>
        </extensions>
      </trkpt>
      <trkpt lat="45.33551123924553394317626953125" lon="-71.0108769871294498443603515625">
        <ele>880.20001220703125</ele>
        <time>2026-08-21T20:04:22.000Z</time>
        <extensions>
          <ns3:TrackPointExtension>
            <ns3:hr>129</ns3:hr>
            <ns3:cad>48</ns3:cad>
          </ns3:TrackPointExtension>
        </extensions>
      </trkpt>
      <trkpt lat="45.3354995884001255035400390625" lon="-71.0108788311481475830078125">
        <ele>880.4000244140625</ele>
        <time>2026-08-21T20:04:23.000Z</time>
        <extensions>
          <ns3:TrackPointExtension>
            <ns3:hr>129</ns3:hr>
            <ns3:cad>48</ns3:cad>
          </ns3:TrackPointExtension>
        </extensions>
      </trkpt>
      <trkpt lat="45.335490368306636810302734375" lon="-71.0108800046145915985107421875">
        <ele>880.5999755859375</ele>
        <time>2026-08-21T20:04:24.000Z</time>
        <extensions>
          <ns3:TrackPointExtension>
            <ns3:hr>129</ns3:hr>
            <ns3:cad>50</ns3:cad>
          </ns3:TrackPointExtension>
        </extensions>
      </trkpt>
      <trkpt lat="45.335478968918323516845703125" lon="-71.0108833573758602142333984375">
        <ele>880.5999755859375</ele>
        <time>2026-08-21T20:04:25.000Z</time>
        <extensions>
          <ns3:TrackPointExtension>
            <ns3:hr>129</ns3:hr>
            <ns3:cad>50</ns3:cad>
          </ns3:TrackPointExtension>
        </extensions>
      </trkpt>
      <trkpt lat="45.33546849153935909271240234375" lon="-71.0108860395848751068115234375">
        <ele>880.5999755859375</ele>
        <time>2026-08-21T20:04:26.000Z</time>
        <extensions>
          <ns3:TrackPointExtension>
            <ns3:hr>128</ns3:hr>
            <ns3:cad>49</ns3:cad>
          </ns3:TrackPointExtension>
        </extensions>
      </trkpt>
      <trkpt lat="45.33545508049428462982177734375" lon="-71.0108868777751922607421875">
        <ele>880.79998779296875</ele>
        <time>2026-08-21T20:04:27.000Z</time>
        <extensions>
          <ns3:TrackPointExtension>
            <ns3:hr>128</ns3:hr>
            <ns3:cad>49</ns3:cad>
          </ns3:TrackPointExtension>
        </extensions>
      </trkpt>
      <trkpt lat="45.33544401638209819793701171875" lon="-71.0108880512416362762451171875">
        <ele>880.79998779296875</ele>
        <time>2026-08-21T20:04:28.000Z</time>
        <extensions>
          <ns3:TrackPointExtension>
            <ns3:hr>128</ns3:hr>
            <ns3:cad>0</ns3:cad>
          </ns3:TrackPointExtension>
        </extensions>
      </trkpt>
      <trkpt lat="45.33543295226991176605224609375" lon="-71.01089064963161945343017578125">
        <ele>881</ele>
        <time>2026-08-21T20:04:29.000Z</time>
        <extensions>
          <ns3:TrackPointExtension>
            <ns3:hr>128</ns3:hr>
            <ns3:cad>0</ns3:cad>
          </ns3:TrackPointExtension>
        </extensions>
      </trkpt>
      <trkpt lat="45.33542205579578876495361328125" lon="-71.010894589126110076904296875">
        <ele>881.20001220703125</ele>
        <time>2026-08-21T20:04:30.000Z</time>
        <extensions>
          <ns3:TrackPointExtension>
            <ns3:hr>128</ns3:hr>
            <ns3:cad>0</ns3:cad>
          </ns3:TrackPointExtension>
        </extensions>
      </trkpt>
      <trkpt lat="45.33541283570230007171630859375" lon="-71.0108967684209346771240234375">
        <ele>881.4000244140625</ele>
        <time>2026-08-21T20:04:31.000Z</time>
        <extensions>
          <ns3:TrackPointExtension>
            <ns3:hr>129</ns3:hr>
            <ns3:cad>47</ns3:cad>
          </ns3:TrackPointExtension>
        </extensions>
      </trkpt>
      <trkpt lat="45.33540294505655765533447265625" lon="-71.0108974389731884002685546875">
        <ele>881.4000244140625</ele>
        <time>2026-08-21T20:04:32.000Z</time>
        <extensions>
          <ns3:TrackPointExtension>
            <ns3:hr>128</ns3:hr>
            <ns3:cad>47</ns3:cad>
          </ns3:TrackPointExtension>
        </extensions>
      </trkpt>
      <trkpt lat="45.335395149886608123779296875" lon="-71.010896265506744384765625">
        <ele>881.5999755859375</ele>
        <time>2026-08-21T20:04:33.000Z</time>
        <extensions>
          <ns3:TrackPointExtension>
            <ns3:hr>128</ns3:hr>
            <ns3:cad>47</ns3:cad>
          </ns3:TrackPointExtension>
        </extensions>
      </trkpt>
      <trkpt lat="45.33538584597408771514892578125" lon="-71.0108914040029048919677734375">
        <ele>881.79998779296875</ele>
        <time>2026-08-21T20:04:34.000Z</time>
        <extensions>
          <ns3:TrackPointExtension>
            <ns3:hr>128</ns3:hr>
            <ns3:cad>45</ns3:cad>
          </ns3:TrackPointExtension>
        </extensions>
      </trkpt>
      <trkpt lat="45.33537846989929676055908203125" lon="-71.01088830269873142242431640625">
        <ele>882</ele>
        <time>2026-08-21T20:04:35.000Z</time>
        <extensions>
          <ns3:TrackPointExtension>
            <ns3:hr>128</ns3:hr>
            <ns3:cad>45</ns3:cad>
          </ns3:TrackPointExtension>
        </extensions>
      </trkpt>
      <trkpt lat="45.33537126146256923675537109375" lon="-71.01088109426200389862060546875">
        <ele>882.20001220703125</ele>
        <time>2026-08-21T20:04:36.000Z</time>
        <extensions>
          <ns3:TrackPointExtension>
            <ns3:hr>128</ns3:hr>
            <ns3:cad>46</ns3:cad>
          </ns3:TrackPointExtension>
        </extensions>
      </trkpt>
      <trkpt lat="45.33536304719746112823486328125" lon="-71.01087572984397411346435546875">
        <ele>882.4000244140625</ele>
        <time>2026-08-21T20:04:37.000Z</time>
        <extensions>
          <ns3:TrackPointExtension>
            <ns3:hr>128</ns3:hr>
            <ns3:cad>46</ns3:cad>
          </ns3:TrackPointExtension>
        </extensions>
      </trkpt>
      <trkpt lat="45.33535734750330448150634765625" lon="-71.0108689405024051666259765625">
        <ele>882.5999755859375</ele>
        <time>2026-08-21T20:04:38.000Z</time>
        <extensions>
          <ns3:TrackPointExtension>
            <ns3:hr>128</ns3:hr>
            <ns3:cad>47</ns3:cad>
          </ns3:TrackPointExtension>
        </extensions>
      </trkpt>
      <trkpt lat="45.3353497199714183807373046875" lon="-71.0108627378940582275390625">
        <ele>882.79998779296875</ele>
        <time>2026-08-21T20:04:39.000Z</time>
        <extensions>
          <ns3:TrackPointExtension>
            <ns3:hr>128</ns3:hr>
            <ns3:cad>47</ns3:cad>
          </ns3:TrackPointExtension>
        </extensions>
      </trkpt>
      <trkpt lat="45.335342846810817718505859375" lon="-71.01085536181926727294921875">
        <ele>882.79998779296875</ele>
        <time>2026-08-21T20:04:40.000Z</time>
        <extensions>
          <ns3:TrackPointExtension>
            <ns3:hr>128</ns3:hr>
            <ns3:cad>47</ns3:cad>
          </ns3:TrackPointExtension>
        </extensions>
      </trkpt>
      <trkpt lat="45.33533454872667789459228515625" lon="-71.0108478181064128875732421875">
        <ele>883</ele>
        <time>2026-08-21T20:04:41.000Z</time>
        <extensions>
          <ns3:TrackPointExtension>
            <ns3:hr>128</ns3:hr>
            <ns3:cad>48</ns3:cad>
          </ns3:TrackPointExtension>
        </extensions>
      </trkpt>
      <trkpt lat="45.33532650209963321685791015625" lon="-71.010842286050319671630859375">
        <ele>883.20001220703125</ele>
        <time>2026-08-21T20:04:42.000Z</time>
        <extensions>
          <ns3:TrackPointExtension>
            <ns3:hr>128</ns3:hr>
            <ns3:cad>48</ns3:cad>
          </ns3:TrackPointExtension>
        </extensions>
      </trkpt>
      <trkpt lat="45.33531434834003448486328125" lon="-71.01084069348871707916259765625">
        <ele>883.4000244140625</ele>
        <time>2026-08-21T20:04:43.000Z</time>
        <extensions>
          <ns3:TrackPointExtension>
            <ns3:hr>128</ns3:hr>
            <ns3:cad>47</ns3:cad>
          </ns3:TrackPointExtension>
        </extensions>
      </trkpt>
      <trkpt lat="45.3353021107614040374755859375" lon="-71.01083884947001934051513671875">
        <ele>883.5999755859375</ele>
        <time>2026-08-21T20:04:44.000Z</time>
        <extensions>
          <ns3:TrackPointExtension>
            <ns3:hr>128</ns3:hr>
            <ns3:cad>47</ns3:cad>
          </ns3:TrackPointExtension>
        </extensions>
      </trkpt>
      <trkpt lat="45.33529154956340789794921875" lon="-71.01083952002227306365966796875">
        <ele>883.79998779296875</ele>
        <time>2026-08-21T20:04:45.000Z</time>
        <extensions>
          <ns3:TrackPointExtension>
            <ns3:hr>129</ns3:hr>
            <ns3:cad>47</ns3:cad>
          </ns3:TrackPointExtension>
        </extensions>
      </trkpt>
      <trkpt lat="45.33528006635606288909912109375" lon="-71.01084186695516109466552734375">
        <ele>884</ele>
        <time>2026-08-21T20:04:46.000Z</time>
        <extensions>
          <ns3:TrackPointExtension>
            <ns3:hr>129</ns3:hr>
            <ns3:cad>48</ns3:cad>
          </ns3:TrackPointExtension>
        </extensions>
      </trkpt>
      <trkpt lat="45.335269086062908172607421875" lon="-71.01084656082093715667724609375">
        <ele>884.20001220703125</ele>
        <time>2026-08-21T20:04:47.000Z</time>
        <extensions>
          <ns3:TrackPointExtension>
            <ns3:hr>129</ns3:hr>
            <ns3:cad>48</ns3:cad>
          </ns3:TrackPointExtension>
        </extensions>
      </trkpt>
      <trkpt lat="45.33525936305522918701171875" lon="-71.0108474828302860260009765625">
        <ele>884.4000244140625</ele>
        <time>2026-08-21T20:04:48.000Z</time>
        <extensions>
          <ns3:TrackPointExtension>
            <ns3:hr>130</ns3:hr>
            <ns3:cad>48</ns3:cad>
          </ns3:TrackPointExtension>
        </extensions>
      </trkpt>
      <trkpt lat="45.33524737693369388580322265625" lon="-71.01085209287703037261962890625">
        <ele>884.5999755859375</ele>
        <time>2026-08-21T20:04:49.000Z</time>
        <extensions>
          <ns3:TrackPointExtension>
            <ns3:hr>130</ns3:hr>
            <ns3:cad>48</ns3:cad>
          </ns3:TrackPointExtension>
        </extensions>
      </trkpt>
      <trkpt lat="45.3352390788495540618896484375" lon="-71.0108562000095844268798828125">
        <ele>884.79998779296875</ele>
        <time>2026-08-21T20:04:50.000Z</time>
        <extensions>
          <ns3:TrackPointExtension>
            <ns3:hr>130</ns3:hr>
            <ns3:cad>48</ns3:cad>
          </ns3:TrackPointExtension>
        </extensions>
      </trkpt>
      <trkpt lat="45.33522860147058963775634765625" lon="-71.01085846312344074249267578125">
        <ele>885</ele>
        <time>2026-08-21T20:04:51.000Z</time>
        <extensions>
          <ns3:TrackPointExtension>
            <ns3:hr>130</ns3:hr>
            <ns3:cad>49</ns3:cad>
          </ns3:TrackPointExtension>
        </extensions>
      </trkpt>
      <trkpt lat="45.33521954901516437530517578125" lon="-71.01085804402828216552734375">
        <ele>885.4000244140625</ele>
        <time>2026-08-21T20:04:52.000Z</time>
        <extensions>
          <ns3:TrackPointExtension>
            <ns3:hr>131</ns3:hr>
            <ns3:cad>49</ns3:cad>
          </ns3:TrackPointExtension>
        </extensions>
      </trkpt>
      <trkpt lat="45.33521284349262714385986328125" lon="-71.01085494272410869598388671875">
        <ele>885.5999755859375</ele>
        <time>2026-08-21T20:04:53.000Z</time>
        <extensions>
          <ns3:TrackPointExtension>
            <ns3:hr>131</ns3:hr>
            <ns3:cad>48</ns3:cad>
          </ns3:TrackPointExtension>
        </extensions>
      </trkpt>
      <trkpt lat="45.33520379103720188140869140625" lon="-71.0108546912670135498046875">
        <ele>885.79998779296875</ele>
        <time>2026-08-21T20:04:54.000Z</time>
        <extensions>
          <ns3:TrackPointExtension>
            <ns3:hr>132</ns3:hr>
            <ns3:cad>48</ns3:cad>
          </ns3:TrackPointExtension>
        </extensions>
      </trkpt>
      <trkpt lat="45.3351944871246814727783203125" lon="-71.0108575411140918731689453125">
        <ele>886</ele>
        <time>2026-08-21T20:04:55.000Z</time>
        <extensions>
          <ns3:TrackPointExtension>
            <ns3:hr>132</ns3:hr>
            <ns3:cad>48</ns3:cad>
          </ns3:TrackPointExtension>
        </extensions>
      </trkpt>
      <trkpt lat="45.3351871110498905181884765625" lon="-71.0108608938753604888916015625">
        <ele>886.20001220703125</ele>
        <time>2026-08-21T20:04:56.000Z</time>
        <extensions>
          <ns3:TrackPointExtension>
            <ns3:hr>132</ns3:hr>
            <ns3:cad>49</ns3:cad>
          </ns3:TrackPointExtension>
        </extensions>
      </trkpt>
      <trkpt lat="45.33517763949930667877197265625" lon="-71.010864414274692535400390625">
        <ele>886.4000244140625</ele>
        <time>2026-08-21T20:04:57.000Z</time>
        <extensions>
          <ns3:TrackPointExtension>
            <ns3:hr>133</ns3:hr>
            <ns3:cad>49</ns3:cad>
          </ns3:TrackPointExtension>
        </extensions>
      </trkpt>
      <trkpt lat="45.3351700119674205780029296875" lon="-71.01087070070207118988037109375">
        <ele>886.4000244140625</ele>
        <time>2026-08-21T20:04:58.000Z</time>
        <extensions>
          <ns3:TrackPointExtension>
            <ns3:hr>134</ns3:hr>
            <ns3:cad>50</ns3:cad>
          </ns3:TrackPointExtension>
        </extensions>
      </trkpt>
      <trkpt lat="45.33516137860715389251708984375" lon="-71.01087673567235469818115234375">
        <ele>886.5999755859375</ele>
        <time>2026-08-21T20:04:59.000Z</time>
        <extensions>
          <ns3:TrackPointExtension>
            <ns3:hr>134</ns3:hr>
            <ns3:cad>50</ns3:cad>
          </ns3:TrackPointExtension>
        </extensions>
      </trkpt>
      <trkpt lat="45.3351525776088237762451171875" lon="-71.01088210009038448333740234375">
        <ele>886.79998779296875</ele>
        <time>2026-08-21T20:05:00.000Z</time>
        <extensions>
          <ns3:TrackPointExtension>
            <ns3:hr>135</ns3:hr>
            <ns3:cad>49</ns3:cad>
          </ns3:TrackPointExtension>
        </extensions>
      </trkpt>
      <trkpt lat="45.33514360897243022918701171875" lon="-71.01088344119489192962646484375">
        <ele>887</ele>
        <time>2026-08-21T20:05:01.000Z</time>
        <extensions>
          <ns3:TrackPointExtension>
            <ns3:hr>135</ns3:hr>
            <ns3:cad>48</ns3:cad>
          </ns3:TrackPointExtension>
        </extensions>
      </trkpt>
      <trkpt lat="45.33513422124087810516357421875" lon="-71.01088461466133594512939453125">
        <ele>887.20001220703125</ele>
        <time>2026-08-21T20:05:02.000Z</time>
        <extensions>
          <ns3:TrackPointExtension>
            <ns3:hr>136</ns3:hr>
            <ns3:cad>48</ns3:cad>
          </ns3:TrackPointExtension>
        </extensions>
      </trkpt>
      <trkpt lat="45.33512567169964313507080078125" lon="-71.01088461466133594512939453125">
        <ele>887.20001220703125</ele>
        <time>2026-08-21T20:05:03.000Z</time>
        <extensions>
          <ns3:TrackPointExtension>
            <ns3:hr>136</ns3:hr>
            <ns3:cad>47</ns3:cad>
          </ns3:TrackPointExtension>
        </extensions>
      </trkpt>
      <trkpt lat="45.33511829562485218048095703125" lon="-71.0108806751668453216552734375">
        <ele>887.4000244140625</ele>
        <time>2026-08-21T20:05:04.000Z</time>
        <extensions>
          <ns3:TrackPointExtension>
            <ns3:hr>136</ns3:hr>
            <ns3:cad>47</ns3:cad>
          </ns3:TrackPointExtension>
        </extensions>
      </trkpt>
      <trkpt lat="45.33511226065456867218017578125" lon="-71.01088210009038448333740234375">
        <ele>887.5999755859375</ele>
        <time>2026-08-21T20:05:05.000Z</time>
        <extensions>
          <ns3:TrackPointExtension>
            <ns3:hr>137</ns3:hr>
            <ns3:cad>48</ns3:cad>
          </ns3:TrackPointExtension>
        </extensions>
      </trkpt>
      <trkpt lat="45.335105471312999725341796875" lon="-71.01087749004364013671875">
        <ele>887.79998779296875</ele>
        <time>2026-08-21T20:05:06.000Z</time>
        <extensions>
          <ns3:TrackPointExtension>
            <ns3:hr>137</ns3:hr>
            <ns3:cad>48</ns3:cad>
          </ns3:TrackPointExtension>
        </extensions>
      </trkpt>
      <trkpt lat="45.3350996039807796478271484375" lon="-71.010873131453990936279296875">
        <ele>888</ele>
        <time>2026-08-21T20:05:07.000Z</time>
        <extensions>
          <ns3:TrackPointExtension>
            <ns3:hr>137</ns3:hr>
            <ns3:cad>47</ns3:cad>
          </ns3:TrackPointExtension>
        </extensions>
      </trkpt>
      <trkpt lat="45.335091389715671539306640625" lon="-71.01086885668337345123291015625">
        <ele>888.20001220703125</ele>
        <time>2026-08-21T20:05:08.000Z</time>
        <extensions>
          <ns3:TrackPointExtension>
            <ns3:hr>137</ns3:hr>
            <ns3:cad>46</ns3:cad>
          </ns3:TrackPointExtension>
        </extensions>
      </trkpt>
      <trkpt lat="45.33508258871734142303466796875" lon="-71.0108696110546588897705078125">
        <ele>888.4000244140625</ele>
        <time>2026-08-21T20:05:09.000Z</time>
        <extensions>
          <ns3:TrackPointExtension>
            <ns3:hr>138</ns3:hr>
            <ns3:cad>46</ns3:cad>
          </ns3:TrackPointExtension>
        </extensions>
      </trkpt>
      <trkpt lat="45.335076637566089630126953125" lon="-71.01087086834013462066650390625">
        <ele>888.5999755859375</ele>
        <time>2026-08-21T20:05:10.000Z</time>
        <extensions>
          <ns3:TrackPointExtension>
            <ns3:hr>138</ns3:hr>
            <ns3:cad>46</ns3:cad>
          </ns3:TrackPointExtension>
        </extensions>
      </trkpt>
      <trkpt lat="45.33506733365356922149658203125" lon="-71.01087145507335662841796875">
        <ele>888.79998779296875</ele>
        <time>2026-08-21T20:05:11.000Z</time>
        <extensions>
          <ns3:TrackPointExtension>
            <ns3:hr>138</ns3:hr>
            <ns3:cad>46</ns3:cad>
          </ns3:TrackPointExtension>
        </extensions>
      </trkpt>
      <trkpt lat="45.33506113104522228240966796875" lon="-71.0108692757785320281982421875">
        <ele>889</ele>
        <time>2026-08-21T20:05:12.000Z</time>
        <extensions>
          <ns3:TrackPointExtension>
            <ns3:hr>138</ns3:hr>
            <ns3:cad>47</ns3:cad>
          </ns3:TrackPointExtension>
        </extensions>
      </trkpt>
      <trkpt lat="45.33505392260849475860595703125" lon="-71.010869778692722320556640625">
        <ele>889.20001220703125</ele>
        <time>2026-08-21T20:05:13.000Z</time>
        <extensions>
          <ns3:TrackPointExtension>
            <ns3:hr>138</ns3:hr>
            <ns3:cad>47</ns3:cad>
          </ns3:TrackPointExtension>
        </extensions>
      </trkpt>
      <trkpt lat="45.3350483067333698272705078125" lon="-71.01086902432143688201904296875">
        <ele>889.20001220703125</ele>
        <time>2026-08-21T20:05:14.000Z</time>
        <extensions>
          <ns3:TrackPointExtension>
            <ns3:hr>138</ns3:hr>
            <ns3:cad>47</ns3:cad>
          </ns3:TrackPointExtension>
        </extensions>
      </trkpt>
      <trkpt lat="45.33504101447761058807373046875" lon="-71.01087355054914951324462890625">
        <ele>889.4000244140625</ele>
        <time>2026-08-21T20:05:15.000Z</time>
        <extensions>
          <ns3:TrackPointExtension>
            <ns3:hr>138</ns3:hr>
            <ns3:cad>45</ns3:cad>
          </ns3:TrackPointExtension>
        </extensions>
      </trkpt>
      <trkpt lat="45.33503296785056591033935546875" lon="-71.010869443416595458984375">
        <ele>889.5999755859375</ele>
        <time>2026-08-21T20:05:16.000Z</time>
        <extensions>
          <ns3:TrackPointExtension>
            <ns3:hr>139</ns3:hr>
            <ns3:cad>45</ns3:cad>
          </ns3:TrackPointExtension>
        </extensions>
      </trkpt>
      <trkpt lat="45.3350241668522357940673828125" lon="-71.0108707845211029052734375">
        <ele>889.79998779296875</ele>
        <time>2026-08-21T20:05:17.000Z</time>
        <extensions>
          <ns3:TrackPointExtension>
            <ns3:hr>139</ns3:hr>
            <ns3:cad>43</ns3:cad>
          </ns3:TrackPointExtension>
        </extensions>
      </trkpt>
      <trkpt lat="45.33501754514873027801513671875" lon="-71.01087103597819805145263671875">
        <ele>890</ele>
        <time>2026-08-21T20:05:18.000Z</time>
        <extensions>
          <ns3:TrackPointExtension>
            <ns3:hr>140</ns3:hr>
            <ns3:cad>43</ns3:cad>
          </ns3:TrackPointExtension>
        </extensions>
      </trkpt>
      <trkpt lat="45.3350100852549076080322265625" lon="-71.01086332462728023529052734375">
        <ele>890</ele>
        <time>2026-08-21T20:05:19.000Z</time>
        <extensions>
          <ns3:TrackPointExtension>
            <ns3:hr>140</ns3:hr>
            <ns3:cad>43</ns3:cad>
          </ns3:TrackPointExtension>
        </extensions>
      </trkpt>
      <trkpt lat="45.33500111661851406097412109375" lon="-71.01085980422794818878173828125">
        <ele>890.20001220703125</ele>
        <time>2026-08-21T20:05:20.000Z</time>
        <extensions>
          <ns3:TrackPointExtension>
            <ns3:hr>140</ns3:hr>
            <ns3:cad>42</ns3:cad>
          </ns3:TrackPointExtension>
        </extensions>
      </trkpt>
      <trkpt lat="45.3349933214485645294189453125" lon="-71.01085326634347438812255859375">
        <ele>890.4000244140625</ele>
        <time>2026-08-21T20:05:21.000Z</time>
        <extensions>
          <ns3:TrackPointExtension>
            <ns3:hr>140</ns3:hr>
            <ns3:cad>42</ns3:cad>
          </ns3:TrackPointExtension>
        </extensions>
      </trkpt>
      <trkpt lat="45.33498669974505901336669921875" lon="-71.01085360161960124969482421875">
        <ele>890.4000244140625</ele>
        <time>2026-08-21T20:05:22.000Z</time>
        <extensions>
          <ns3:TrackPointExtension>
            <ns3:hr>140</ns3:hr>
            <ns3:cad>41</ns3:cad>
          </ns3:TrackPointExtension>
        </extensions>
      </trkpt>
      <trkpt lat="45.33498108386993408203125" lon="-71.01085561327636241912841796875">
        <ele>890.5999755859375</ele>
        <time>2026-08-21T20:05:23.000Z</time>
        <extensions>
          <ns3:TrackPointExtension>
            <ns3:hr>140</ns3:hr>
            <ns3:cad>41</ns3:cad>
          </ns3:TrackPointExtension>
        </extensions>
      </trkpt>
      <trkpt lat="45.33497027121484279632568359375" lon="-71.0108575411140918731689453125">
        <ele>890.79998779296875</ele>
        <time>2026-08-21T20:05:24.000Z</time>
        <extensions>
          <ns3:TrackPointExtension>
            <ns3:hr>140</ns3:hr>
            <ns3:cad>41</ns3:cad>
          </ns3:TrackPointExtension>
        </extensions>
      </trkpt>
      <trkpt lat="45.33496323041617870330810546875" lon="-71.01085745729506015777587890625">
        <ele>891</ele>
        <time>2026-08-21T20:05:25.000Z</time>
        <extensions>
          <ns3:TrackPointExtension>
            <ns3:hr>140</ns3:hr>
            <ns3:cad>43</ns3:cad>
          </ns3:TrackPointExtension>
        </extensions>
      </trkpt>
      <trkpt lat="45.33495761454105377197265625" lon="-71.01086231879889965057373046875">
        <ele>891.20001220703125</ele>
        <time>2026-08-21T20:05:26.000Z</time>
        <extensions>
          <ns3:TrackPointExtension>
            <ns3:hr>141</ns3:hr>
            <ns3:cad>43</ns3:cad>
          </ns3:TrackPointExtension>
        </extensions>
      </trkpt>
      <trkpt lat="45.33495183102786540985107421875" lon="-71.010869443416595458984375">
        <ele>891.4000244140625</ele>
        <time>2026-08-21T20:05:27.000Z</time>
        <extensions>
          <ns3:TrackPointExtension>
            <ns3:hr>140</ns3:hr>
            <ns3:cad>44</ns3:cad>
          </ns3:TrackPointExtension>
        </extensions>
      </trkpt>
      <trkpt lat="45.334947220981121063232421875" lon="-71.01087547838687896728515625">
        <ele>891.5999755859375</ele>
        <time>2026-08-21T20:05:28.000Z</time>
        <extensions>
          <ns3:TrackPointExtension>
            <ns3:hr>140</ns3:hr>
            <ns3:cad>44</ns3:cad>
          </ns3:TrackPointExtension>
        </extensions>
      </trkpt>
      <trkpt lat="45.33494026400148868560791015625" lon="-71.01087874732911586761474609375">
        <ele>891.79998779296875</ele>
        <time>2026-08-21T20:05:29.000Z</time>
        <extensions>
          <ns3:TrackPointExtension>
            <ns3:hr>140</ns3:hr>
            <ns3:cad>40</ns3:cad>
          </ns3:TrackPointExtension>
        </extensions>
      </trkpt>
      <trkpt lat="45.3349329717457294464111328125" lon="-71.01088092662394046783447265625">
        <ele>892</ele>
        <time>2026-08-21T20:05:30.000Z</time>
        <extensions>
          <ns3:TrackPointExtension>
            <ns3:hr>140</ns3:hr>
            <ns3:cad>40</ns3:cad>
          </ns3:TrackPointExtension>
        </extensions>
      </trkpt>
      <trkpt lat="45.33492299728095531463623046875" lon="-71.01088210009038448333740234375">
        <ele>892.20001220703125</ele>
        <time>2026-08-21T20:05:31.000Z</time>
        <extensions>
          <ns3:TrackPointExtension>
            <ns3:hr>139</ns3:hr>
            <ns3:cad>40</ns3:cad>
          </ns3:TrackPointExtension>
        </extensions>
      </trkpt>
      <trkpt lat="45.33491981215775012969970703125" lon="-71.010885871946811676025390625">
        <ele>892.20001220703125</ele>
        <time>2026-08-21T20:05:32.000Z</time>
        <extensions>
          <ns3:TrackPointExtension>
            <ns3:hr>139</ns3:hr>
            <ns3:cad>40</ns3:cad>
          </ns3:TrackPointExtension>
        </extensions>
      </trkpt>
      <trkpt lat="45.33491243608295917510986328125" lon="-71.01088754832744598388671875">
        <ele>892.4000244140625</ele>
        <time>2026-08-21T20:05:33.000Z</time>
        <extensions>
          <ns3:TrackPointExtension>
            <ns3:hr>139</ns3:hr>
            <ns3:cad>40</ns3:cad>
          </ns3:TrackPointExtension>
        </extensions>
      </trkpt>
      <trkpt lat="45.33491059206426143646240234375" lon="-71.01088159717619419097900390625">
        <ele>892.5999755859375</ele>
        <time>2026-08-21T20:05:34.000Z</time>
        <extensions>
          <ns3:TrackPointExtension>
            <ns3:hr>139</ns3:hr>
            <ns3:cad>40</ns3:cad>
          </ns3:TrackPointExtension>
        </extensions>
      </trkpt>
      <trkpt lat="45.334907658398151397705078125" lon="-71.01087958551943302154541015625">
        <ele>892.5999755859375</ele>
        <time>2026-08-21T20:05:35.000Z</time>
        <extensions>
          <ns3:TrackPointExtension>
            <ns3:hr>138</ns3:hr>
            <ns3:cad>40</ns3:cad>
          </ns3:TrackPointExtension>
        </extensions>
      </trkpt>
      <trkpt lat="45.334904305636882781982421875" lon="-71.01088075898587703704833984375">
        <ele>892.79998779296875</ele>
        <time>2026-08-21T20:05:36.000Z</time>
        <extensions>
          <ns3:TrackPointExtension>
            <ns3:hr>139</ns3:hr>
            <ns3:cad>40</ns3:cad>
          </ns3:TrackPointExtension>
        </extensions>
      </trkpt>
      <trkpt lat="45.3348997794091701507568359375" lon="-71.0108756460249423980712890625">
        <ele>893</ele>
        <time>2026-08-21T20:05:37.000Z</time>
        <extensions>
          <ns3:TrackPointExtension>
            <ns3:hr>139</ns3:hr>
            <ns3:cad>40</ns3:cad>
          </ns3:TrackPointExtension>
        </extensions>
      </trkpt>
      <trkpt lat="45.3348960913717746734619140625" lon="-71.01087707094848155975341796875">
        <ele>893.20001220703125</ele>
        <time>2026-08-21T20:05:38.000Z</time>
        <extensions>
          <ns3:TrackPointExtension>
            <ns3:hr>138</ns3:hr>
            <ns3:cad>40</ns3:cad>
          </ns3:TrackPointExtension>
        </extensions>
      </trkpt>
      <trkpt lat="45.33488762564957141876220703125" lon="-71.01087841205298900604248046875">
        <ele>893.4000244140625</ele>
        <time>2026-08-21T20:05:39.000Z</time>
        <extensions>
          <ns3:TrackPointExtension>
            <ns3:hr>138</ns3:hr>
            <ns3:cad>0</ns3:cad>
          </ns3:TrackPointExtension>
        </extensions>
      </trkpt>
      <trkpt lat="45.33487823791801929473876953125" lon="-71.0108789987862110137939453125">
        <ele>893.5999755859375</ele>
        <time>2026-08-21T20:05:40.000Z</time>
        <extensions>
          <ns3:TrackPointExtension>
            <ns3:hr>138</ns3:hr>
            <ns3:cad>0</ns3:cad>
          </ns3:TrackPointExtension>
        </extensions>
      </trkpt>
      <trkpt lat="45.334866754710674285888671875" lon="-71.0108853690326213836669921875">
        <ele>893.79998779296875</ele>
        <time>2026-08-21T20:05:41.000Z</time>
        <extensions>
          <ns3:TrackPointExtension>
            <ns3:hr>139</ns3:hr>
            <ns3:cad>0</ns3:cad>
          </ns3:TrackPointExtension>
        </extensions>
      </trkpt>
      <trkpt lat="45.334860384464263916015625" lon="-71.01088629104197025299072265625">
        <ele>894</ele>
        <time>2026-08-21T20:05:42.000Z</time>
        <extensions>
          <ns3:TrackPointExtension>
            <ns3:hr>139</ns3:hr>
            <ns3:cad>40</ns3:cad>
          </ns3:TrackPointExtension>
        </extensions>
      </trkpt>
      <trkpt lat="45.33485057763755321502685546875" lon="-71.01088629104197025299072265625">
        <ele>894.20001220703125</ele>
        <time>2026-08-21T20:05:43.000Z</time>
        <extensions>
          <ns3:TrackPointExtension>
            <ns3:hr>140</ns3:hr>
            <ns3:cad>40</ns3:cad>
          </ns3:TrackPointExtension>
        </extensions>
      </trkpt>
      <trkpt lat="45.33483917824923992156982421875" lon="-71.0108823515474796295166015625">
        <ele>894.4000244140625</ele>
        <time>2026-08-21T20:05:44.000Z</time>
        <extensions>
          <ns3:TrackPointExtension>
            <ns3:hr>140</ns3:hr>
            <ns3:cad>40</ns3:cad>
          </ns3:TrackPointExtension>
        </extensions>
      </trkpt>
      <trkpt lat="45.33483465202152729034423828125" lon="-71.010877154767513275146484375">
        <ele>894.5999755859375</ele>
        <time>2026-08-21T20:05:45.000Z</time>
        <extensions>
          <ns3:TrackPointExtension>
            <ns3:hr>140</ns3:hr>
            <ns3:cad>46</ns3:cad>
          </ns3:TrackPointExtension>
        </extensions>
      </trkpt>
      <trkpt lat="45.3348300419747829437255859375" lon="-71.01087505929172039031982421875">
        <ele>894.5999755859375</ele>
        <time>2026-08-21T20:05:46.000Z</time>
        <extensions>
          <ns3:TrackPointExtension>
            <ns3:hr>140</ns3:hr>
            <ns3:cad>46</ns3:cad>
          </ns3:TrackPointExtension>
        </extensions>
      </trkpt>
      <trkpt lat="45.33482241444289684295654296875" lon="-71.0108788311481475830078125">
        <ele>894.79998779296875</ele>
        <time>2026-08-21T20:05:47.000Z</time>
        <extensions>
          <ns3:TrackPointExtension>
            <ns3:hr>140</ns3:hr>
            <ns3:cad>0</ns3:cad>
          </ns3:TrackPointExtension>
        </extensions>
      </trkpt>
      <trkpt lat="45.3348169662058353424072265625" lon="-71.010887883603572845458984375">
        <ele>895</ele>
        <time>2026-08-21T20:05:48.000Z</time>
        <extensions>
          <ns3:TrackPointExtension>
            <ns3:hr>140</ns3:hr>
            <ns3:cad>0</ns3:cad>
          </ns3:TrackPointExtension>
        </extensions>
      </trkpt>
      <trkpt lat="45.33480900339782238006591796875" lon="-71.01089023053646087646484375">
        <ele>895.20001220703125</ele>
        <time>2026-08-21T20:05:49.000Z</time>
        <extensions>
          <ns3:TrackPointExtension>
            <ns3:hr>140</ns3:hr>
            <ns3:cad>0</ns3:cad>
          </ns3:TrackPointExtension>
        </extensions>
      </trkpt>
      <trkpt lat="45.3348059020936489105224609375" lon="-71.01088930852711200714111328125">
        <ele>895.4000244140625</ele>
        <time>2026-08-21T20:05:50.000Z</time>
        <extensions>
          <ns3:TrackPointExtension>
            <ns3:hr>140</ns3:hr>
            <ns3:cad>0</ns3:cad>
          </ns3:TrackPointExtension>
        </extensions>
      </trkpt>
      <trkpt lat="45.33479693345725536346435546875" lon="-71.01088629104197025299072265625">
        <ele>895.5999755859375</ele>
        <time>2026-08-21T20:05:51.000Z</time>
        <extensions>
          <ns3:TrackPointExtension>
            <ns3:hr>139</ns3:hr>
            <ns3:cad>0</ns3:cad>
          </ns3:TrackPointExtension>
        </extensions>
      </trkpt>
      <trkpt lat="45.3347958438098430633544921875" lon="-71.0108773224055767059326171875">
        <ele>895.79998779296875</ele>
        <time>2026-08-21T20:05:52.000Z</time>
        <extensions>
          <ns3:TrackPointExtension>
            <ns3:hr>140</ns3:hr>
            <ns3:cad>0</ns3:cad>
          </ns3:TrackPointExtension>
        </extensions>
      </trkpt>
      <trkpt lat="45.3347914852201938629150390625" lon="-71.01087749004364013671875">
        <ele>896</ele>
        <time>2026-08-21T20:05:53.000Z</time>
        <extensions>
          <ns3:TrackPointExtension>
            <ns3:hr>139</ns3:hr>
            <ns3:cad>0</ns3:cad>
          </ns3:TrackPointExtension>
        </extensions>
      </trkpt>
      <trkpt lat="45.33478327095508575439453125" lon="-71.01087623275816440582275390625">
        <ele>896.20001220703125</ele>
        <time>2026-08-21T20:05:54.000Z</time>
        <extensions>
          <ns3:TrackPointExtension>
            <ns3:hr>139</ns3:hr>
            <ns3:cad>0</ns3:cad>
          </ns3:TrackPointExtension>
        </extensions>
      </trkpt>
      <trkpt lat="45.33476877026259899139404296875" lon="-71.010878495872020721435546875">
        <ele>896.20001220703125</ele>
        <time>2026-08-21T20:05:55.000Z</time>
        <extensions>
          <ns3:TrackPointExtension>
            <ns3:hr>139</ns3:hr>
            <ns3:cad>0</ns3:cad>
          </ns3:TrackPointExtension>
        </extensions>
      </trkpt>
      <trkpt lat="45.33475267700850963592529296875" lon="-71.01087757386267185211181640625">
        <ele>896.4000244140625</ele>
        <time>2026-08-21T20:05:56.000Z</time>
        <extensions>
          <ns3:TrackPointExtension>
            <ns3:hr>139</ns3:hr>
            <ns3:cad>0</ns3:cad>
          </ns3:TrackPointExtension>
        </extensions>
      </trkpt>
      <trkpt lat="45.33474261872470378875732421875" lon="-71.010881178081035614013671875">
        <ele>896.5999755859375</ele>
        <time>2026-08-21T20:05:57.000Z</time>
        <extensions>
          <ns3:TrackPointExtension>
            <ns3:hr>139</ns3:hr>
            <ns3:cad>0</ns3:cad>
          </ns3:TrackPointExtension>
        </extensions>
      </trkpt>
      <trkpt lat="45.33473256044089794158935546875" lon="-71.01089064963161945343017578125">
        <ele>896.79998779296875</ele>
        <time>2026-08-21T20:05:58.000Z</time>
        <extensions>
          <ns3:TrackPointExtension>
            <ns3:hr>140</ns3:hr>
            <ns3:cad>0</ns3:cad>
          </ns3:TrackPointExtension>
        </extensions>
      </trkpt>
      <trkpt lat="45.33472183160483837127685546875" lon="-71.01090406067669391632080078125">
        <ele>897</ele>
        <time>2026-08-21T20:05:59.000Z</time>
        <extensions>
          <ns3:TrackPointExtension>
            <ns3:hr>140</ns3:hr>
            <ns3:cad>0</ns3:cad>
          </ns3:TrackPointExtension>
        </extensions>
      </trkpt>
      <trkpt lat="45.3347100131213665008544921875" lon="-71.01091428659856319427490234375">
        <ele>897</ele>
        <time>2026-08-21T20:06:00.000Z</time>
        <extensions>
          <ns3:TrackPointExtension>
            <ns3:hr>140</ns3:hr>
            <ns3:cad>0</ns3:cad>
          </ns3:TrackPointExtension>
        </extensions>
      </trkpt>
      <trkpt lat="45.33469584770500659942626953125" lon="-71.0109209083020687103271484375">
        <ele>897</ele>
        <time>2026-08-21T20:06:01.000Z</time>
        <extensions>
          <ns3:TrackPointExtension>
            <ns3:hr>140</ns3:hr>
            <ns3:cad>47</ns3:cad>
          </ns3:TrackPointExtension>
        </extensions>
      </trkpt>
      <trkpt lat="45.334685705602169036865234375" lon="-71.01093188859522342681884765625">
        <ele>897.20001220703125</ele>
        <time>2026-08-21T20:06:02.000Z</time>
        <extensions>
          <ns3:TrackPointExtension>
            <ns3:hr>140</ns3:hr>
            <ns3:cad>48</ns3:cad>
          </ns3:TrackPointExtension>
        </extensions>
      </trkpt>
      <trkpt lat="45.334676317870616912841796875" lon="-71.01094312034547328948974609375">
        <ele>897.20001220703125</ele>
        <time>2026-08-21T20:06:03.000Z</time>
        <extensions>
          <ns3:TrackPointExtension>
            <ns3:hr>140</ns3:hr>
            <ns3:cad>48</ns3:cad>
          </ns3:TrackPointExtension>
        </extensions>
      </trkpt>
      <trkpt lat="45.334666930139064788818359375" lon="-71.01095720194280147552490234375">
        <ele>897.4000244140625</ele>
        <time>2026-08-21T20:06:04.000Z</time>
        <extensions>
          <ns3:TrackPointExtension>
            <ns3:hr>141</ns3:hr>
            <ns3:cad>50</ns3:cad>
          </ns3:TrackPointExtension>
        </extensions>
      </trkpt>
      <trkpt lat="45.3346603922545909881591796875" lon="-71.0109718702733516693115234375">
        <ele>897.4000244140625</ele>
        <time>2026-08-21T20:06:05.000Z</time>
        <extensions>
          <ns3:TrackPointExtension>
            <ns3:hr>141</ns3:hr>
            <ns3:cad>50</ns3:cad>
          </ns3:TrackPointExtension>
        </extensions>
      </trkpt>
      <trkpt lat="45.33465712331235408782958984375" lon="-71.01098687388002872467041015625">
        <ele>897.4000244140625</ele>
        <time>2026-08-21T20:06:06.000Z</time>
        <extensions>
          <ns3:TrackPointExtension>
            <ns3:hr>141</ns3:hr>
            <ns3:cad>50</ns3:cad>
          </ns3:TrackPointExtension>
        </extensions>
      </trkpt>
      <trkpt lat="45.33465041778981685638427734375" lon="-71.01099760271608829498291015625">
        <ele>897.5999755859375</ele>
        <time>2026-08-21T20:06:07.000Z</time>
        <extensions>
          <ns3:TrackPointExtension>
            <ns3:hr>140</ns3:hr>
            <ns3:cad>50</ns3:cad>
          </ns3:TrackPointExtension>
        </extensions>
      </trkpt>
      <trkpt lat="45.3346417844295501708984375" lon="-71.01100967265665531158447265625">
        <ele>897.5999755859375</ele>
        <time>2026-08-21T20:06:08.000Z</time>
        <extensions>
          <ns3:TrackPointExtension>
            <ns3:hr>140</ns3:hr>
            <ns3:cad>50</ns3:cad>
          </ns3:TrackPointExtension>
        </extensions>
      </trkpt>
      <trkpt lat="45.3346355818212032318115234375" lon="-71.0110211558640003204345703125">
        <ele>897.79998779296875</ele>
        <time>2026-08-21T20:06:09.000Z</time>
        <extensions>
          <ns3:TrackPointExtension>
            <ns3:hr>140</ns3:hr>
            <ns3:cad>50</ns3:cad>
          </ns3:TrackPointExtension>
        </extensions>
      </trkpt>
      <trkpt lat="45.3346292115747928619384765625" lon="-71.011026687920093536376953125">
        <ele>898</ele>
        <time>2026-08-21T20:06:10.000Z</time>
        <extensions>
          <ns3:TrackPointExtension>
            <ns3:hr>141</ns3:hr>
            <ns3:cad>50</ns3:cad>
          </ns3:TrackPointExtension>
        </extensions>
      </trkpt>
      <trkpt lat="45.3346216678619384765625" lon="-71.0110362432897090911865234375">
        <ele>898</ele>
        <time>2026-08-21T20:06:11.000Z</time>
        <extensions>
          <ns3:TrackPointExtension>
            <ns3:hr>141</ns3:hr>
            <ns3:cad>49</ns3:cad>
          </ns3:TrackPointExtension>
        </extensions>
      </trkpt>
      <trkpt lat="45.33460817299783229827880859375" lon="-71.01103967987000942230224609375">
        <ele>898.20001220703125</ele>
        <time>2026-08-21T20:06:12.000Z</time>
        <extensions>
          <ns3:TrackPointExtension>
            <ns3:hr>140</ns3:hr>
            <ns3:cad>49</ns3:cad>
          </ns3:TrackPointExtension>
        </extensions>
      </trkpt>
      <trkpt lat="45.3346002101898193359375" lon="-71.01104621775448322296142578125">
        <ele>898.4000244140625</ele>
        <time>2026-08-21T20:06:13.000Z</time>
        <extensions>
          <ns3:TrackPointExtension>
            <ns3:hr>140</ns3:hr>
            <ns3:cad>49</ns3:cad>
          </ns3:TrackPointExtension>
        </extensions>
      </trkpt>
      <trkpt lat="45.33459258265793323516845703125" lon="-71.01105057634413242340087890625">
        <ele>898.5999755859375</ele>
        <time>2026-08-21T20:06:14.000Z</time>
        <extensions>
          <ns3:TrackPointExtension>
            <ns3:hr>140</ns3:hr>
            <ns3:cad>48</ns3:cad>
          </ns3:TrackPointExtension>
        </extensions>
      </trkpt>
      <trkpt lat="45.33458587713539600372314453125" lon="-71.01105895824730396270751953125">
        <ele>898.79998779296875</ele>
        <time>2026-08-21T20:06:15.000Z</time>
        <extensions>
          <ns3:TrackPointExtension>
            <ns3:hr>140</ns3:hr>
            <ns3:cad>48</ns3:cad>
          </ns3:TrackPointExtension>
        </extensions>
      </trkpt>
      <trkpt lat="45.334575735032558441162109375" lon="-71.0110660828649997711181640625">
        <ele>898.79998779296875</ele>
        <time>2026-08-21T20:06:16.000Z</time>
        <extensions>
          <ns3:TrackPointExtension>
            <ns3:hr>139</ns3:hr>
            <ns3:cad>46</ns3:cad>
          </ns3:TrackPointExtension>
        </extensions>
      </trkpt>
      <trkpt lat="45.3345666825771331787109375" lon="-71.01107471622526645660400390625">
        <ele>899</ele>
        <time>2026-08-21T20:06:17.000Z</time>
        <extensions>
          <ns3:TrackPointExtension>
            <ns3:hr>139</ns3:hr>
            <ns3:cad>46</ns3:cad>
          </ns3:TrackPointExtension>
        </extensions>
      </trkpt>
      <trkpt lat="45.33455930650234222412109375" lon="-71.011083014309406280517578125">
        <ele>899.20001220703125</ele>
        <time>2026-08-21T20:06:18.000Z</time>
        <extensions>
          <ns3:TrackPointExtension>
            <ns3:hr>139</ns3:hr>
            <ns3:cad>46</ns3:cad>
          </ns3:TrackPointExtension>
        </extensions>
      </trkpt>
      <trkpt lat="45.33455084078013896942138671875" lon="-71.0110922344028949737548828125">
        <ele>899.4000244140625</ele>
        <time>2026-08-21T20:06:19.000Z</time>
        <extensions>
          <ns3:TrackPointExtension>
            <ns3:hr>139</ns3:hr>
            <ns3:cad>46</ns3:cad>
          </ns3:TrackPointExtension>
        </extensions>
      </trkpt>
      <trkpt lat="45.33454128541052341461181640625" lon="-71.01110522635281085968017578125">
        <ele>899.5999755859375</ele>
        <time>2026-08-21T20:06:20.000Z</time>
        <extensions>
          <ns3:TrackPointExtension>
            <ns3:hr>138</ns3:hr>
            <ns3:cad>46</ns3:cad>
          </ns3:TrackPointExtension>
        </extensions>
      </trkpt>
      <trkpt lat="45.33453122712671756744384765625" lon="-71.0111157037317752838134765625">
        <ele>899.79998779296875</ele>
        <time>2026-08-21T20:06:21.000Z</time>
        <extensions>
          <ns3:TrackPointExtension>
            <ns3:hr>138</ns3:hr>
            <ns3:cad>46</ns3:cad>
          </ns3:TrackPointExtension>
        </extensions>
      </trkpt>
      <trkpt lat="45.3345242701470851898193359375" lon="-71.011129282414913177490234375">
        <ele>900</ele>
        <time>2026-08-21T20:06:22.000Z</time>
        <extensions>
          <ns3:TrackPointExtension>
            <ns3:hr>138</ns3:hr>
            <ns3:cad>46</ns3:cad>
          </ns3:TrackPointExtension>
        </extensions>
      </trkpt>
      <trkpt lat="45.33451999537646770477294921875" lon="-71.01113808341324329376220703125">
        <ele>900.20001220703125</ele>
        <time>2026-08-21T20:06:23.000Z</time>
        <extensions>
          <ns3:TrackPointExtension>
            <ns3:hr>137</ns3:hr>
            <ns3:cad>46</ns3:cad>
          </ns3:TrackPointExtension>
        </extensions>
      </trkpt>
      <trkpt lat="45.33451831899583339691162109375" lon="-71.01115350611507892608642578125">
        <ele>900.4000244140625</ele>
        <time>2026-08-21T20:06:24.000Z</time>
        <extensions>
          <ns3:TrackPointExtension>
            <ns3:hr>137</ns3:hr>
            <ns3:cad>46</ns3:cad>
          </ns3:TrackPointExtension>
        </extensions>
      </trkpt>
      <trkpt lat="45.33451370894908905029296875" lon="-71.01116708479821681976318359375">
        <ele>900.5999755859375</ele>
        <time>2026-08-21T20:06:25.000Z</time>
        <extensions>
          <ns3:TrackPointExtension>
            <ns3:hr>137</ns3:hr>
            <ns3:cad>46</ns3:cad>
          </ns3:TrackPointExtension>
        </extensions>
      </trkpt>
      <trkpt lat="45.33450834453105926513671875" lon="-71.01118267513811588287353515625">
        <ele>900.79998779296875</ele>
        <time>2026-08-21T20:06:26.000Z</time>
        <extensions>
          <ns3:TrackPointExtension>
            <ns3:hr>136</ns3:hr>
            <ns3:cad>47</ns3:cad>
          </ns3:TrackPointExtension>
        </extensions>
      </trkpt>
      <trkpt lat="45.334502644836902618408203125" lon="-71.01119742728769779205322265625">
        <ele>901</ele>
        <time>2026-08-21T20:06:27.000Z</time>
        <extensions>
          <ns3:TrackPointExtension>
            <ns3:hr>137</ns3:hr>
            <ns3:cad>47</ns3:cad>
          </ns3:TrackPointExtension>
        </extensions>
      </trkpt>
      <trkpt lat="45.334497280418872833251953125" lon="-71.0112105868756771087646484375">
        <ele>901.20001220703125</ele>
        <time>2026-08-21T20:06:28.000Z</time>
        <extensions>
          <ns3:TrackPointExtension>
            <ns3:hr>137</ns3:hr>
            <ns3:cad>47</ns3:cad>
          </ns3:TrackPointExtension>
        </extensions>
      </trkpt>
      <trkpt lat="45.334490574896335601806640625" lon="-71.01122508756816387176513671875">
        <ele>901.4000244140625</ele>
        <time>2026-08-21T20:06:29.000Z</time>
        <extensions>
          <ns3:TrackPointExtension>
            <ns3:hr>138</ns3:hr>
            <ns3:cad>47</ns3:cad>
          </ns3:TrackPointExtension>
        </extensions>
      </trkpt>
      <trkpt lat="45.33447884023189544677734375" lon="-71.01123481057584285736083984375">
        <ele>901.5999755859375</ele>
        <time>2026-08-21T20:06:30.000Z</time>
        <extensions>
          <ns3:TrackPointExtension>
            <ns3:hr>138</ns3:hr>
            <ns3:cad>47</ns3:cad>
          </ns3:TrackPointExtension>
        </extensions>
      </trkpt>
      <trkpt lat="45.334468781948089599609375" lon="-71.01124084554612636566162109375">
        <ele>901.79998779296875</ele>
        <time>2026-08-21T20:06:31.000Z</time>
        <extensions>
          <ns3:TrackPointExtension>
            <ns3:hr>139</ns3:hr>
            <ns3:cad>47</ns3:cad>
          </ns3:TrackPointExtension>
        </extensions>
      </trkpt>
      <trkpt lat="45.334460735321044921875" lon="-71.0112464614212512969970703125">
        <ele>902</ele>
        <time>2026-08-21T20:06:32.000Z</time>
        <extensions>
          <ns3:TrackPointExtension>
            <ns3:hr>139</ns3:hr>
            <ns3:cad>47</ns3:cad>
          </ns3:TrackPointExtension>
        </extensions>
      </trkpt>
      <trkpt lat="45.3344513475894927978515625" lon="-71.0112555138766765594482421875">
        <ele>902.20001220703125</ele>
        <time>2026-08-21T20:06:33.000Z</time>
        <extensions>
          <ns3:TrackPointExtension>
            <ns3:hr>139</ns3:hr>
            <ns3:cad>47</ns3:cad>
          </ns3:TrackPointExtension>
        </extensions>
      </trkpt>
      <trkpt lat="45.3344433009624481201171875" lon="-71.01126532070338726043701171875">
        <ele>902.4000244140625</ele>
        <time>2026-08-21T20:06:34.000Z</time>
        <extensions>
          <ns3:TrackPointExtension>
            <ns3:hr>138</ns3:hr>
            <ns3:cad>47</ns3:cad>
          </ns3:TrackPointExtension>
        </extensions>
      </trkpt>
      <trkpt lat="45.33443366177380084991455078125" lon="-71.01127906702458858489990234375">
        <ele>902.5999755859375</ele>
        <time>2026-08-21T20:06:35.000Z</time>
        <extensions>
          <ns3:TrackPointExtension>
            <ns3:hr>138</ns3:hr>
            <ns3:cad>50</ns3:cad>
          </ns3:TrackPointExtension>
        </extensions>
      </trkpt>
      <trkpt lat="45.33442259766161441802978515625" lon="-71.01129398681223392486572265625">
        <ele>902.79998779296875</ele>
        <time>2026-08-21T20:06:36.000Z</time>
        <extensions>
          <ns3:TrackPointExtension>
            <ns3:hr>138</ns3:hr>
            <ns3:cad>50</ns3:cad>
          </ns3:TrackPointExtension>
        </extensions>
      </trkpt>
      <trkpt lat="45.33441446721553802490234375" lon="-71.011308990418910980224609375">
        <ele>902.79998779296875</ele>
        <time>2026-08-21T20:06:37.000Z</time>
        <extensions>
          <ns3:TrackPointExtension>
            <ns3:hr>138</ns3:hr>
            <ns3:cad>50</ns3:cad>
          </ns3:TrackPointExtension>
        </extensions>
      </trkpt>
      <trkpt lat="45.3344059176743030548095703125" lon="-71.0113262571394443511962890625">
        <ele>902.79998779296875</ele>
        <time>2026-08-21T20:06:38.000Z</time>
        <extensions>
          <ns3:TrackPointExtension>
            <ns3:hr>138</ns3:hr>
            <ns3:cad>50</ns3:cad>
          </ns3:TrackPointExtension>
        </extensions>
      </trkpt>
      <trkpt lat="45.33439896069467067718505859375" lon="-71.01134461350739002227783203125">
        <ele>902.79998779296875</ele>
        <time>2026-08-21T20:06:39.000Z</time>
        <extensions>
          <ns3:TrackPointExtension>
            <ns3:hr>138</ns3:hr>
            <ns3:cad>50</ns3:cad>
          </ns3:TrackPointExtension>
        </extensions>
      </trkpt>
      <trkpt lat="45.33439359627664089202880859375" lon="-71.01137193851172924041748046875">
        <ele>902.5999755859375</ele>
        <time>2026-08-21T20:06:40.000Z</time>
        <extensions>
          <ns3:TrackPointExtension>
            <ns3:hr>138</ns3:hr>
            <ns3:cad>50</ns3:cad>
          </ns3:TrackPointExtension>
        </extensions>
      </trkpt>
      <trkpt lat="45.3343898244202136993408203125" lon="-71.0114010237157344818115234375">
        <ele>902.4000244140625</ele>
        <time>2026-08-21T20:06:41.000Z</time>
        <extensions>
          <ns3:TrackPointExtension>
            <ns3:hr>137</ns3:hr>
            <ns3:cad>50</ns3:cad>
          </ns3:TrackPointExtension>
        </extensions>
      </trkpt>
      <trkpt lat="45.33438856713473796844482421875" lon="-71.011425666511058807373046875">
        <ele>902.20001220703125</ele>
        <time>2026-08-21T20:06:42.000Z</time>
        <extensions>
          <ns3:TrackPointExtension>
            <ns3:hr>137</ns3:hr>
            <ns3:cad>50</ns3:cad>
          </ns3:TrackPointExtension>
        </extensions>
      </trkpt>
      <trkpt lat="45.3343878127634525299072265625" lon="-71.0114459507167339324951171875">
        <ele>902.20001220703125</ele>
        <time>2026-08-21T20:06:43.000Z</time>
        <extensions>
          <ns3:TrackPointExtension>
            <ns3:hr>137</ns3:hr>
            <ns3:cad>62</ns3:cad>
          </ns3:TrackPointExtension>
        </extensions>
      </trkpt>
      <trkpt lat="45.334388650953769683837890625" lon="-71.0114710964262485504150390625">
        <ele>902.20001220703125</ele>
        <time>2026-08-21T20:06:44.000Z</time>
        <extensions>
          <ns3:TrackPointExtension>
            <ns3:hr>137</ns3:hr>
            <ns3:cad>62</ns3:cad>
          </ns3:TrackPointExtension>
        </extensions>
      </trkpt>
      <trkpt lat="45.3343837894499301910400390625" lon="-71.01149314083158969879150390625">
        <ele>902.20001220703125</ele>
        <time>2026-08-21T20:06:45.000Z</time>
        <extensions>
          <ns3:TrackPointExtension>
            <ns3:hr>137</ns3:hr>
            <ns3:cad>62</ns3:cad>
          </ns3:TrackPointExtension>
        </extensions>
      </trkpt>
      <trkpt lat="45.3343821130692958831787109375" lon="-71.01151384413242340087890625">
        <ele>902.20001220703125</ele>
        <time>2026-08-21T20:06:46.000Z</time>
        <extensions>
          <ns3:TrackPointExtension>
            <ns3:hr>138</ns3:hr>
            <ns3:cad>58</ns3:cad>
          </ns3:TrackPointExtension>
        </extensions>
      </trkpt>
      <trkpt lat="45.3343837894499301910400390625" lon="-71.01153220050036907196044921875">
        <ele>902.20001220703125</ele>
        <time>2026-08-21T20:06:47.000Z</time>
        <extensions>
          <ns3:TrackPointExtension>
            <ns3:hr>138</ns3:hr>
            <ns3:cad>58</ns3:cad>
          </ns3:TrackPointExtension>
        </extensions>
      </trkpt>
      <trkpt lat="45.33438638783991336822509765625" lon="-71.0115492157638072967529296875">
        <ele>902.4000244140625</ele>
        <time>2026-08-21T20:06:48.000Z</time>
        <extensions>
          <ns3:TrackPointExtension>
            <ns3:hr>138</ns3:hr>
            <ns3:cad>58</ns3:cad>
          </ns3:TrackPointExtension>
        </extensions>
      </trkpt>
      <trkpt lat="45.33438152633607387542724609375" lon="-71.01156639866530895233154296875">
        <ele>902.4000244140625</ele>
        <time>2026-08-21T20:06:49.000Z</time>
        <extensions>
          <ns3:TrackPointExtension>
            <ns3:hr>137</ns3:hr>
            <ns3:cad>58</ns3:cad>
          </ns3:TrackPointExtension>
        </extensions>
      </trkpt>
      <trkpt lat="45.33438052050769329071044921875" lon="-71.01158282719552516937255859375">
        <ele>902.4000244140625</ele>
        <time>2026-08-21T20:06:50.000Z</time>
        <extensions>
          <ns3:TrackPointExtension>
            <ns3:hr>137</ns3:hr>
            <ns3:cad>55</ns3:cad>
          </ns3:TrackPointExtension>
        </extensions>
      </trkpt>
      <trkpt lat="45.33437825739383697509765625" lon="-71.0116015188395977020263671875">
        <ele>902.4000244140625</ele>
        <time>2026-08-21T20:06:51.000Z</time>
        <extensions>
          <ns3:TrackPointExtension>
            <ns3:hr>136</ns3:hr>
            <ns3:cad>55</ns3:cad>
          </ns3:TrackPointExtension>
        </extensions>
      </trkpt>
      <trkpt lat="45.33437817357480525970458984375" lon="-71.01161953993141651153564453125">
        <ele>902.5999755859375</ele>
        <time>2026-08-21T20:06:52.000Z</time>
        <extensions>
          <ns3:TrackPointExtension>
            <ns3:hr>136</ns3:hr>
            <ns3:cad>52</ns3:cad>
          </ns3:TrackPointExtension>
        </extensions>
      </trkpt>
      <trkpt lat="45.3343804366886615753173828125" lon="-71.01163781248033046722412109375">
        <ele>902.5999755859375</ele>
        <time>2026-08-21T20:06:53.000Z</time>
        <extensions>
          <ns3:TrackPointExtension>
            <ns3:hr>135</ns3:hr>
            <ns3:cad>52</ns3:cad>
          </ns3:TrackPointExtension>
        </extensions>
      </trkpt>
      <trkpt lat="45.3343794308602809906005859375" lon="-71.0116566717624664306640625">
        <ele>902.5999755859375</ele>
        <time>2026-08-21T20:06:54.000Z</time>
        <extensions>
          <ns3:TrackPointExtension>
            <ns3:hr>135</ns3:hr>
            <ns3:cad>52</ns3:cad>
          </ns3:TrackPointExtension>
        </extensions>
      </trkpt>
      <trkpt lat="45.334379933774471282958984375" lon="-71.0116746090352535247802734375">
        <ele>902.79998779296875</ele>
        <time>2026-08-21T20:06:55.000Z</time>
        <extensions>
          <ns3:TrackPointExtension>
            <ns3:hr>135</ns3:hr>
            <ns3:cad>52</ns3:cad>
          </ns3:TrackPointExtension>
        </extensions>
      </trkpt>
      <trkpt lat="45.33437850885093212127685546875" lon="-71.011695899069309234619140625">
        <ele>902.79998779296875</ele>
        <time>2026-08-21T20:06:56.000Z</time>
        <extensions>
          <ns3:TrackPointExtension>
            <ns3:hr>135</ns3:hr>
            <ns3:cad>52</ns3:cad>
          </ns3:TrackPointExtension>
        </extensions>
      </trkpt>
      <trkpt lat="45.33437649719417095184326171875" lon="-71.0117118246853351593017578125">
        <ele>903</ele>
        <time>2026-08-21T20:06:57.000Z</time>
        <extensions>
          <ns3:TrackPointExtension>
            <ns3:hr>136</ns3:hr>
            <ns3:cad>52</ns3:cad>
          </ns3:TrackPointExtension>
        </extensions>
      </trkpt>
      <trkpt lat="45.3343754075467586517333984375" lon="-71.01172842085361480712890625">
        <ele>903</ele>
        <time>2026-08-21T20:06:58.000Z</time>
        <extensions>
          <ns3:TrackPointExtension>
            <ns3:hr>136</ns3:hr>
            <ns3:cad>52</ns3:cad>
          </ns3:TrackPointExtension>
        </extensions>
      </trkpt>
      <trkpt lat="45.334377922117710113525390625" lon="-71.01174560375511646270751953125">
        <ele>903.20001220703125</ele>
        <time>2026-08-21T20:06:59.000Z</time>
        <extensions>
          <ns3:TrackPointExtension>
            <ns3:hr>136</ns3:hr>
            <ns3:cad>52</ns3:cad>
          </ns3:TrackPointExtension>
        </extensions>
      </trkpt>
      <trkpt lat="45.334377922117710113525390625" lon="-71.01176471449434757232666015625">
        <ele>903.20001220703125</ele>
        <time>2026-08-21T20:07:00.000Z</time>
        <extensions>
          <ns3:TrackPointExtension>
            <ns3:hr>135</ns3:hr>
            <ns3:cad>52</ns3:cad>
          </ns3:TrackPointExtension>
        </extensions>
      </trkpt>
      <trkpt lat="45.33437515608966350555419921875" lon="-71.01178198121488094329833984375">
        <ele>903.4000244140625</ele>
        <time>2026-08-21T20:07:01.000Z</time>
        <extensions>
          <ns3:TrackPointExtension>
            <ns3:hr>135</ns3:hr>
            <ns3:cad>52</ns3:cad>
          </ns3:TrackPointExtension>
        </extensions>
      </trkpt>
      <trkpt lat="45.334372557699680328369140625" lon="-71.0117939673364162445068359375">
        <ele>903.4000244140625</ele>
        <time>2026-08-21T20:07:02.000Z</time>
        <extensions>
          <ns3:TrackPointExtension>
            <ns3:hr>135</ns3:hr>
            <ns3:cad>52</ns3:cad>
          </ns3:TrackPointExtension>
        </extensions>
      </trkpt>
      <trkpt lat="45.33436794765293598175048828125" lon="-71.01180511526763439178466796875">
        <ele>903.4000244140625</ele>
        <time>2026-08-21T20:07:03.000Z</time>
        <extensions>
          <ns3:TrackPointExtension>
            <ns3:hr>134</ns3:hr>
            <ns3:cad>52</ns3:cad>
          </ns3:TrackPointExtension>
        </extensions>
      </trkpt>
      <trkpt lat="45.3343586437404155731201171875" lon="-71.01181852631270885467529296875">
        <ele>903.4000244140625</ele>
        <time>2026-08-21T20:07:04.000Z</time>
        <extensions>
          <ns3:TrackPointExtension>
            <ns3:hr>134</ns3:hr>
            <ns3:cad>52</ns3:cad>
          </ns3:TrackPointExtension>
        </extensions>
      </trkpt>
      <trkpt lat="45.33435277640819549560546875" lon="-71.01183009333908557891845703125">
        <ele>903.4000244140625</ele>
        <time>2026-08-21T20:07:05.000Z</time>
        <extensions>
          <ns3:TrackPointExtension>
            <ns3:hr>134</ns3:hr>
            <ns3:cad>54</ns3:cad>
          </ns3:TrackPointExtension>
        </extensions>
      </trkpt>
      <trkpt lat="45.33434866927564144134521484375" lon="-71.0118382237851619720458984375">
        <ele>903.4000244140625</ele>
        <time>2026-08-21T20:07:06.000Z</time>
        <extensions>
          <ns3:TrackPointExtension>
            <ns3:hr>134</ns3:hr>
            <ns3:cad>54</ns3:cad>
          </ns3:TrackPointExtension>
        </extensions>
      </trkpt>
      <trkpt lat="45.33434129320085048675537109375" lon="-71.01185456849634647369384765625">
        <ele>903.5999755859375</ele>
        <time>2026-08-21T20:07:07.000Z</time>
        <extensions>
          <ns3:TrackPointExtension>
            <ns3:hr>134</ns3:hr>
            <ns3:cad>54</ns3:cad>
          </ns3:TrackPointExtension>
        </extensions>
      </trkpt>
      <trkpt lat="45.3343333303928375244140625" lon="-71.0118707455694675445556640625">
        <ele>903.5999755859375</ele>
        <time>2026-08-21T20:07:08.000Z</time>
        <extensions>
          <ns3:TrackPointExtension>
            <ns3:hr>134</ns3:hr>
            <ns3:cad>54</ns3:cad>
          </ns3:TrackPointExtension>
        </extensions>
      </trkpt>
      <trkpt lat="45.3343284688889980316162109375" lon="-71.01188356988131999969482421875">
        <ele>903.79998779296875</ele>
        <time>2026-08-21T20:07:09.000Z</time>
        <extensions>
          <ns3:TrackPointExtension>
            <ns3:hr>134</ns3:hr>
            <ns3:cad>54</ns3:cad>
          </ns3:TrackPointExtension>
        </extensions>
      </trkpt>
      <trkpt lat="45.3343298099935054779052734375" lon="-71.01189664565026760101318359375">
        <ele>904</ele>
        <time>2026-08-21T20:07:10.000Z</time>
        <extensions>
          <ns3:TrackPointExtension>
            <ns3:hr>133</ns3:hr>
            <ns3:cad>54</ns3:cad>
          </ns3:TrackPointExtension>
        </extensions>
      </trkpt>
      <trkpt lat="45.3343217633664608001708984375" lon="-71.0119039379060268402099609375">
        <ele>904.20001220703125</ele>
        <time>2026-08-21T20:07:11.000Z</time>
        <extensions>
          <ns3:TrackPointExtension>
            <ns3:hr>134</ns3:hr>
            <ns3:cad>54</ns3:cad>
          </ns3:TrackPointExtension>
        </extensions>
      </trkpt>
      <trkpt lat="45.3343143872916698455810546875" lon="-71.0119114816188812255859375">
        <ele>904.4000244140625</ele>
        <time>2026-08-21T20:07:12.000Z</time>
        <extensions>
          <ns3:TrackPointExtension>
            <ns3:hr>133</ns3:hr>
            <ns3:cad>53</ns3:cad>
          </ns3:TrackPointExtension>
        </extensions>
      </trkpt>
      <trkpt lat="45.33430508337914943695068359375" lon="-71.01191542111337184906005859375">
        <ele>904.4000244140625</ele>
        <time>2026-08-21T20:07:13.000Z</time>
        <extensions>
          <ns3:TrackPointExtension>
            <ns3:hr>133</ns3:hr>
            <ns3:cad>53</ns3:cad>
          </ns3:TrackPointExtension>
        </extensions>
      </trkpt>
      <trkpt lat="45.33429779112339019775390625" lon="-71.011927239596843719482421875">
        <ele>904.5999755859375</ele>
        <time>2026-08-21T20:07:14.000Z</time>
        <extensions>
          <ns3:TrackPointExtension>
            <ns3:hr>133</ns3:hr>
            <ns3:cad>50</ns3:cad>
          </ns3:TrackPointExtension>
        </extensions>
      </trkpt>
      <trkpt lat="45.3342904150485992431640625" lon="-71.01193302311003208160400390625">
        <ele>904.79998779296875</ele>
        <time>2026-08-21T20:07:15.000Z</time>
        <extensions>
          <ns3:TrackPointExtension>
            <ns3:hr>132</ns3:hr>
            <ns3:cad>49</ns3:cad>
          </ns3:TrackPointExtension>
        </extensions>
      </trkpt>
      <trkpt lat="45.3342815302312374114990234375" lon="-71.011939309537410736083984375">
        <ele>904.79998779296875</ele>
        <time>2026-08-21T20:07:16.000Z</time>
        <extensions>
          <ns3:TrackPointExtension>
            <ns3:hr>132</ns3:hr>
            <ns3:cad>49</ns3:cad>
          </ns3:TrackPointExtension>
        </extensions>
      </trkpt>
      <trkpt lat="45.3342744894325733184814453125" lon="-71.01194743998348712921142578125">
        <ele>905</ele>
        <time>2026-08-21T20:07:17.000Z</time>
        <extensions>
          <ns3:TrackPointExtension>
            <ns3:hr>132</ns3:hr>
            <ns3:cad>47</ns3:cad>
          </ns3:TrackPointExtension>
        </extensions>
      </trkpt>
      <trkpt lat="45.3342681191861629486083984375" lon="-71.011958085000514984130859375">
        <ele>905.20001220703125</ele>
        <time>2026-08-21T20:07:18.000Z</time>
        <extensions>
          <ns3:TrackPointExtension>
            <ns3:hr>132</ns3:hr>
            <ns3:cad>47</ns3:cad>
          </ns3:TrackPointExtension>
        </extensions>
      </trkpt>
      <trkpt lat="45.33426267094910144805908203125" lon="-71.01196177303791046142578125">
        <ele>905.4000244140625</ele>
        <time>2026-08-21T20:07:19.000Z</time>
        <extensions>
          <ns3:TrackPointExtension>
            <ns3:hr>132</ns3:hr>
            <ns3:cad>47</ns3:cad>
          </ns3:TrackPointExtension>
        </extensions>
      </trkpt>
      <trkpt lat="45.3342587314546108245849609375" lon="-71.01196973584592342376708984375">
        <ele>905.5999755859375</ele>
        <time>2026-08-21T20:07:20.000Z</time>
        <extensions>
          <ns3:TrackPointExtension>
            <ns3:hr>132</ns3:hr>
            <ns3:cad>47</ns3:cad>
          </ns3:TrackPointExtension>
        </extensions>
      </trkpt>
      <trkpt lat="45.3342567197978496551513671875" lon="-71.0119763575494289398193359375">
        <ele>905.79998779296875</ele>
        <time>2026-08-21T20:07:21.000Z</time>
        <extensions>
          <ns3:TrackPointExtension>
            <ns3:hr>132</ns3:hr>
            <ns3:cad>47</ns3:cad>
          </ns3:TrackPointExtension>
        </extensions>
      </trkpt>
      <trkpt lat="45.33425747416913509368896484375" lon="-71.01198800839483737945556640625">
        <ele>906</ele>
        <time>2026-08-21T20:07:22.000Z</time>
        <extensions>
          <ns3:TrackPointExtension>
            <ns3:hr>132</ns3:hr>
            <ns3:cad>47</ns3:cad>
          </ns3:TrackPointExtension>
        </extensions>
      </trkpt>
      <trkpt lat="45.33425093628466129302978515625" lon="-71.01198633201420307159423828125">
        <ele>906</ele>
        <time>2026-08-21T20:07:23.000Z</time>
        <extensions>
          <ns3:TrackPointExtension>
            <ns3:hr>131</ns3:hr>
            <ns3:cad>47</ns3:cad>
          </ns3:TrackPointExtension>
        </extensions>
      </trkpt>
      <trkpt lat="45.33424406312406063079833984375" lon="-71.01198256015777587890625">
        <ele>906.20001220703125</ele>
        <time>2026-08-21T20:07:24.000Z</time>
        <extensions>
          <ns3:TrackPointExtension>
            <ns3:hr>132</ns3:hr>
            <ns3:cad>47</ns3:cad>
          </ns3:TrackPointExtension>
        </extensions>
      </trkpt>
      <trkpt lat="45.334238111972808837890625" lon="-71.01198566146194934844970703125">
        <ele>906.20001220703125</ele>
        <time>2026-08-21T20:07:25.000Z</time>
        <extensions>
          <ns3:TrackPointExtension>
            <ns3:hr>131</ns3:hr>
            <ns3:cad>47</ns3:cad>
          </ns3:TrackPointExtension>
        </extensions>
      </trkpt>
      <trkpt lat="45.33423333428800106048583984375" lon="-71.0119901038706302642822265625">
        <ele>906.4000244140625</ele>
        <time>2026-08-21T20:07:26.000Z</time>
        <extensions>
          <ns3:TrackPointExtension>
            <ns3:hr>130</ns3:hr>
            <ns3:cad>47</ns3:cad>
          </ns3:TrackPointExtension>
        </extensions>
      </trkpt>
      <trkpt lat="45.33423651941120624542236328125" lon="-71.01199203170835971832275390625">
        <ele>906.4000244140625</ele>
        <time>2026-08-21T20:07:27.000Z</time>
        <extensions>
          <ns3:TrackPointExtension>
            <ns3:hr>130</ns3:hr>
            <ns3:cad>0</ns3:cad>
          </ns3:TrackPointExtension>
        </extensions>
      </trkpt>
      <trkpt lat="45.33423316664993762969970703125" lon="-71.01199320517480373382568359375">
        <ele>906.5999755859375</ele>
        <time>2026-08-21T20:07:28.000Z</time>
        <extensions>
          <ns3:TrackPointExtension>
            <ns3:hr>130</ns3:hr>
            <ns3:cad>0</ns3:cad>
          </ns3:TrackPointExtension>
        </extensions>
      </trkpt>
      <trkpt lat="45.33422461710870265960693359375" lon="-71.01199186407029628753662109375">
        <ele>907</ele>
        <time>2026-08-21T20:07:29.000Z</time>
        <extensions>
          <ns3:TrackPointExtension>
            <ns3:hr>130</ns3:hr>
            <ns3:cad>0</ns3:cad>
          </ns3:TrackPointExtension>
        </extensions>
      </trkpt>
      <trkpt lat="45.334221683442592620849609375" lon="-71.01199530065059661865234375">
        <ele>907.20001220703125</ele>
        <time>2026-08-21T20:07:30.000Z</time>
        <extensions>
          <ns3:TrackPointExtension>
            <ns3:hr>130</ns3:hr>
            <ns3:cad>0</ns3:cad>
          </ns3:TrackPointExtension>
        </extensions>
      </trkpt>
      <trkpt lat="45.33422092907130718231201171875" lon="-71.01199127733707427978515625">
        <ele>907.4000244140625</ele>
        <time>2026-08-21T20:07:31.000Z</time>
        <extensions>
          <ns3:TrackPointExtension>
            <ns3:hr>130</ns3:hr>
            <ns3:cad>0</ns3:cad>
          </ns3:TrackPointExtension>
        </extensions>
      </trkpt>
      <trkpt lat="45.33421187661588191986083984375" lon="-71.01199261844158172607421875">
        <ele>907.5999755859375</ele>
        <time>2026-08-21T20:07:32.000Z</time>
        <extensions>
          <ns3:TrackPointExtension>
            <ns3:hr>130</ns3:hr>
            <ns3:cad>0</ns3:cad>
          </ns3:TrackPointExtension>
        </extensions>
      </trkpt>
      <trkpt lat="45.33420860767364501953125" lon="-71.01199706085026264190673828125">
        <ele>908</ele>
        <time>2026-08-21T20:07:33.000Z</time>
        <extensions>
          <ns3:TrackPointExtension>
            <ns3:hr>130</ns3:hr>
            <ns3:cad>0</ns3:cad>
          </ns3:TrackPointExtension>
        </extensions>
      </trkpt>
      <trkpt lat="45.334204249083995819091796875" lon="-71.012008376419544219970703125">
        <ele>908.20001220703125</ele>
        <time>2026-08-21T20:07:34.000Z</time>
        <extensions>
          <ns3:TrackPointExtension>
            <ns3:hr>130</ns3:hr>
            <ns3:cad>0</ns3:cad>
          </ns3:TrackPointExtension>
        </extensions>
      </trkpt>
      <trkpt lat="45.3342010639607906341552734375" lon="-71.01201415993273258209228515625">
        <ele>908.4000244140625</ele>
        <time>2026-08-21T20:07:35.000Z</time>
        <extensions>
          <ns3:TrackPointExtension>
            <ns3:hr>129</ns3:hr>
            <ns3:cad>0</ns3:cad>
          </ns3:TrackPointExtension>
        </extensions>
      </trkpt>
      <trkpt lat="45.33419796265661716461181640625" lon="-71.0120179317891597747802734375">
        <ele>908.5999755859375</ele>
        <time>2026-08-21T20:07:36.000Z</time>
        <extensions>
          <ns3:TrackPointExtension>
            <ns3:hr>130</ns3:hr>
            <ns3:cad>0</ns3:cad>
          </ns3:TrackPointExtension>
        </extensions>
      </trkpt>
      <trkpt lat="45.33419318497180938720703125" lon="-71.01201952435076236724853515625">
        <ele>909</ele>
        <time>2026-08-21T20:07:37.000Z</time>
        <extensions>
          <ns3:TrackPointExtension>
            <ns3:hr>131</ns3:hr>
            <ns3:cad>0</ns3:cad>
          </ns3:TrackPointExtension>
        </extensions>
      </trkpt>
      <trkpt lat="45.334189496934413909912109375" lon="-71.0120214521884918212890625">
        <ele>909</ele>
        <time>2026-08-21T20:07:38.000Z</time>
        <extensions>
          <ns3:TrackPointExtension>
            <ns3:hr>131</ns3:hr>
            <ns3:cad>0</ns3:cad>
          </ns3:TrackPointExtension>
        </extensions>
      </trkpt>
      <trkpt lat="45.33418220467865467071533203125" lon="-71.01201550103724002838134765625">
        <ele>909.20001220703125</ele>
        <time>2026-08-21T20:07:39.000Z</time>
        <extensions>
          <ns3:TrackPointExtension>
            <ns3:hr>131</ns3:hr>
            <ns3:cad>0</ns3:cad>
          </ns3:TrackPointExtension>
        </extensions>
      </trkpt>
      <trkpt lat="45.33418253995478153228759765625" lon="-71.0120149143040180206298828125">
        <ele>909.4000244140625</ele>
        <time>2026-08-21T20:07:40.000Z</time>
        <extensions>
          <ns3:TrackPointExtension>
            <ns3:hr>132</ns3:hr>
            <ns3:cad>0</ns3:cad>
          </ns3:TrackPointExtension>
        </extensions>
      </trkpt>
      <trkpt lat="45.334184467792510986328125" lon="-71.01201348938047885894775390625">
        <ele>909.5999755859375</ele>
        <time>2026-08-21T20:07:41.000Z</time>
        <extensions>
          <ns3:TrackPointExtension>
            <ns3:hr>132</ns3:hr>
            <ns3:cad>0</ns3:cad>
          </ns3:TrackPointExtension>
        </extensions>
      </trkpt>
      <trkpt lat="45.33418304286897182464599609375" lon="-71.01200929842889308929443359375">
        <ele>909.79998779296875</ele>
        <time>2026-08-21T20:07:42.000Z</time>
        <extensions>
          <ns3:TrackPointExtension>
            <ns3:hr>132</ns3:hr>
            <ns3:cad>0</ns3:cad>
          </ns3:TrackPointExtension>
        </extensions>
      </trkpt>
      <trkpt lat="45.33418337814509868621826171875" lon="-71.01200611330568790435791015625">
        <ele>910</ele>
        <time>2026-08-21T20:07:43.000Z</time>
        <extensions>
          <ns3:TrackPointExtension>
            <ns3:hr>132</ns3:hr>
            <ns3:cad>0</ns3:cad>
          </ns3:TrackPointExtension>
        </extensions>
      </trkpt>
      <trkpt lat="45.33417684026062488555908203125" lon="-71.01201231591403484344482421875">
        <ele>910.20001220703125</ele>
        <time>2026-08-21T20:07:44.000Z</time>
        <extensions>
          <ns3:TrackPointExtension>
            <ns3:hr>133</ns3:hr>
            <ns3:cad>0</ns3:cad>
          </ns3:TrackPointExtension>
        </extensions>
      </trkpt>
      <trkpt lat="45.33417432568967342376708984375" lon="-71.01200980134308338165283203125">
        <ele>910.4000244140625</ele>
        <time>2026-08-21T20:07:45.000Z</time>
        <extensions>
          <ns3:TrackPointExtension>
            <ns3:hr>133</ns3:hr>
            <ns3:cad>0</ns3:cad>
          </ns3:TrackPointExtension>
        </extensions>
      </trkpt>
      <trkpt lat="45.33417306840419769287109375" lon="-71.0120095498859882354736328125">
        <ele>910.5999755859375</ele>
        <time>2026-08-21T20:07:46.000Z</time>
        <extensions>
          <ns3:TrackPointExtension>
            <ns3:hr>134</ns3:hr>
            <ns3:cad>0</ns3:cad>
          </ns3:TrackPointExtension>
        </extensions>
      </trkpt>
      <trkpt lat="45.334168039262294769287109375" lon="-71.01200745441019535064697265625">
        <ele>910.79998779296875</ele>
        <time>2026-08-21T20:07:47.000Z</time>
        <extensions>
          <ns3:TrackPointExtension>
            <ns3:hr>134</ns3:hr>
            <ns3:cad>0</ns3:cad>
          </ns3:TrackPointExtension>
        </extensions>
      </trkpt>
      <trkpt lat="45.3341601602733135223388671875" lon="-71.0120105557143688201904296875">
        <ele>911.20001220703125</ele>
        <time>2026-08-21T20:07:48.000Z</time>
        <extensions>
          <ns3:TrackPointExtension>
            <ns3:hr>134</ns3:hr>
            <ns3:cad>0</ns3:cad>
          </ns3:TrackPointExtension>
        </extensions>
      </trkpt>
      <trkpt lat="45.3341581486165523529052734375" lon="-71.01200376637279987335205078125">
        <ele>911.20001220703125</ele>
        <time>2026-08-21T20:07:49.000Z</time>
        <extensions>
          <ns3:TrackPointExtension>
            <ns3:hr>134</ns3:hr>
            <ns3:cad>0</ns3:cad>
          </ns3:TrackPointExtension>
        </extensions>
      </trkpt>
      <trkpt lat="45.3341554664075374603271484375" lon="-71.01200527511537075042724609375">
        <ele>911.4000244140625</ele>
        <time>2026-08-21T20:07:50.000Z</time>
        <extensions>
          <ns3:TrackPointExtension>
            <ns3:hr>135</ns3:hr>
            <ns3:cad>0</ns3:cad>
          </ns3:TrackPointExtension>
        </extensions>
      </trkpt>
      <trkpt lat="45.334152616560459136962890625" lon="-71.01201030425727367401123046875">
        <ele>911.5999755859375</ele>
        <time>2026-08-21T20:07:51.000Z</time>
        <extensions>
          <ns3:TrackPointExtension>
            <ns3:hr>135</ns3:hr>
            <ns3:cad>0</ns3:cad>
          </ns3:TrackPointExtension>
        </extensions>
      </trkpt>
      <trkpt lat="45.3341495990753173828125" lon="-71.0120108909904956817626953125">
        <ele>911.79998779296875</ele>
        <time>2026-08-21T20:07:52.000Z</time>
        <extensions>
          <ns3:TrackPointExtension>
            <ns3:hr>136</ns3:hr>
            <ns3:cad>0</ns3:cad>
          </ns3:TrackPointExtension>
        </extensions>
      </trkpt>
      <trkpt lat="45.3341444022953510284423828125" lon="-71.012013740837574005126953125">
        <ele>911.79998779296875</ele>
        <time>2026-08-21T20:07:53.000Z</time>
        <extensions>
          <ns3:TrackPointExtension>
            <ns3:hr>136</ns3:hr>
            <ns3:cad>0</ns3:cad>
          </ns3:TrackPointExtension>
        </extensions>
      </trkpt>
      <trkpt lat="45.33414314500987529754638671875" lon="-71.01201650686562061309814453125">
        <ele>912</ele>
        <time>2026-08-21T20:07:54.000Z</time>
        <extensions>
          <ns3:TrackPointExtension>
            <ns3:hr>137</ns3:hr>
            <ns3:cad>0</ns3:cad>
          </ns3:TrackPointExtension>
        </extensions>
      </trkpt>
      <trkpt lat="45.33414398320019245147705078125" lon="-71.01201483048498630523681640625">
        <ele>912.20001220703125</ele>
        <time>2026-08-21T20:07:55.000Z</time>
        <extensions>
          <ns3:TrackPointExtension>
            <ns3:hr>136</ns3:hr>
            <ns3:cad>0</ns3:cad>
          </ns3:TrackPointExtension>
        </extensions>
      </trkpt>
      <trkpt lat="45.33414088189601898193359375" lon="-71.0120139084756374359130859375">
        <ele>912.4000244140625</ele>
        <time>2026-08-21T20:07:56.000Z</time>
        <extensions>
          <ns3:TrackPointExtension>
            <ns3:hr>136</ns3:hr>
            <ns3:cad>0</ns3:cad>
          </ns3:TrackPointExtension>
        </extensions>
      </trkpt>
      <trkpt lat="45.3341380320489406585693359375" lon="-71.01201449520885944366455078125">
        <ele>912.5999755859375</ele>
        <time>2026-08-21T20:07:57.000Z</time>
        <extensions>
          <ns3:TrackPointExtension>
            <ns3:hr>136</ns3:hr>
            <ns3:cad>0</ns3:cad>
          </ns3:TrackPointExtension>
        </extensions>
      </trkpt>
      <trkpt lat="45.3341373614966869354248046875" lon="-71.01201617158949375152587890625">
        <ele>912.79998779296875</ele>
        <time>2026-08-21T20:07:58.000Z</time>
        <extensions>
          <ns3:TrackPointExtension>
            <ns3:hr>136</ns3:hr>
            <ns3:cad>0</ns3:cad>
          </ns3:TrackPointExtension>
        </extensions>
      </trkpt>
      <trkpt lat="45.3341330029070377349853515625" lon="-71.01201952435076236724853515625">
        <ele>913</ele>
        <time>2026-08-21T20:07:59.000Z</time>
        <extensions>
          <ns3:TrackPointExtension>
            <ns3:hr>136</ns3:hr>
            <ns3:cad>0</ns3:cad>
          </ns3:TrackPointExtension>
        </extensions>
      </trkpt>
      <trkpt lat="45.3341289795935153961181640625" lon="-71.0120209492743015289306640625">
        <ele>913.20001220703125</ele>
        <time>2026-08-21T20:08:00.000Z</time>
        <extensions>
          <ns3:TrackPointExtension>
            <ns3:hr>136</ns3:hr>
            <ns3:cad>0</ns3:cad>
          </ns3:TrackPointExtension>
        </extensions>
      </trkpt>
      <trkpt lat="45.3341296501457691192626953125" lon="-71.01201868616044521331787109375">
        <ele>913.4000244140625</ele>
        <time>2026-08-21T20:08:01.000Z</time>
        <extensions>
          <ns3:TrackPointExtension>
            <ns3:hr>136</ns3:hr>
            <ns3:cad>0</ns3:cad>
          </ns3:TrackPointExtension>
        </extensions>
      </trkpt>
      <trkpt lat="45.3341219387948513031005859375" lon="-71.01201114244759082794189453125">
        <ele>913.5999755859375</ele>
        <time>2026-08-21T20:08:02.000Z</time>
        <extensions>
          <ns3:TrackPointExtension>
            <ns3:hr>137</ns3:hr>
            <ns3:cad>0</ns3:cad>
          </ns3:TrackPointExtension>
        </extensions>
      </trkpt>
      <trkpt lat="45.33411950804293155670166015625" lon="-71.0120125673711299896240234375">
        <ele>913.79998779296875</ele>
        <time>2026-08-21T20:08:03.000Z</time>
        <extensions>
          <ns3:TrackPointExtension>
            <ns3:hr>137</ns3:hr>
            <ns3:cad>0</ns3:cad>
          </ns3:TrackPointExtension>
        </extensions>
      </trkpt>
      <trkpt lat="45.33412068150937557220458984375" lon="-71.012005023658275604248046875">
        <ele>914</ele>
        <time>2026-08-21T20:08:04.000Z</time>
        <extensions>
          <ns3:TrackPointExtension>
            <ns3:hr>137</ns3:hr>
            <ns3:cad>0</ns3:cad>
          </ns3:TrackPointExtension>
        </extensions>
      </trkpt>
      <trkpt lat="45.33411900512874126434326171875" lon="-71.01199974305927753448486328125">
        <ele>914.20001220703125</ele>
        <time>2026-08-21T20:08:05.000Z</time>
        <extensions>
          <ns3:TrackPointExtension>
            <ns3:hr>138</ns3:hr>
            <ns3:cad>0</ns3:cad>
          </ns3:TrackPointExtension>
        </extensions>
      </trkpt>
      <trkpt lat="45.33411766402423381805419921875" lon="-71.01199689321219921112060546875">
        <ele>914.4000244140625</ele>
        <time>2026-08-21T20:08:06.000Z</time>
        <extensions>
          <ns3:TrackPointExtension>
            <ns3:hr>138</ns3:hr>
            <ns3:cad>0</ns3:cad>
          </ns3:TrackPointExtension>
        </extensions>
      </trkpt>
      <trkpt lat="45.334114395081996917724609375" lon="-71.01199521683156490325927734375">
        <ele>914.5999755859375</ele>
        <time>2026-08-21T20:08:07.000Z</time>
        <extensions>
          <ns3:TrackPointExtension>
            <ns3:hr>139</ns3:hr>
            <ns3:cad>0</ns3:cad>
          </ns3:TrackPointExtension>
        </extensions>
      </trkpt>
      <trkpt lat="45.33410777337849140167236328125" lon="-71.0119946300983428955078125">
        <ele>914.5999755859375</ele>
        <time>2026-08-21T20:08:08.000Z</time>
        <extensions>
          <ns3:TrackPointExtension>
            <ns3:hr>139</ns3:hr>
            <ns3:cad>0</ns3:cad>
          </ns3:TrackPointExtension>
        </extensions>
      </trkpt>
      <trkpt lat="45.33410123549401760101318359375" lon="-71.01199873723089694976806640625">
        <ele>914.5999755859375</ele>
        <time>2026-08-21T20:08:09.000Z</time>
        <extensions>
          <ns3:TrackPointExtension>
            <ns3:hr>139</ns3:hr>
            <ns3:cad>0</ns3:cad>
          </ns3:TrackPointExtension>
        </extensions>
      </trkpt>
      <trkpt lat="45.33409235067665576934814453125" lon="-71.01200443692505359649658203125">
        <ele>914.5999755859375</ele>
        <time>2026-08-21T20:08:10.000Z</time>
        <extensions>
          <ns3:TrackPointExtension>
            <ns3:hr>140</ns3:hr>
            <ns3:cad>0</ns3:cad>
          </ns3:TrackPointExtension>
        </extensions>
      </trkpt>
      <trkpt lat="45.33408598043024539947509765625" lon="-71.0120092146098613739013671875">
        <ele>914.79998779296875</ele>
        <time>2026-08-21T20:08:11.000Z</time>
        <extensions>
          <ns3:TrackPointExtension>
            <ns3:hr>140</ns3:hr>
            <ns3:cad>0</ns3:cad>
          </ns3:TrackPointExtension>
        </extensions>
      </trkpt>
      <trkpt lat="45.334086231887340545654296875" lon="-71.01200510747730731964111328125">
        <ele>915</ele>
        <time>2026-08-21T20:08:12.000Z</time>
        <extensions>
          <ns3:TrackPointExtension>
            <ns3:hr>140</ns3:hr>
            <ns3:cad>0</ns3:cad>
          </ns3:TrackPointExtension>
        </extensions>
      </trkpt>
      <trkpt lat="45.334083549678325653076171875" lon="-71.01200728677213191986083984375">
        <ele>915.20001220703125</ele>
        <time>2026-08-21T20:08:13.000Z</time>
        <extensions>
          <ns3:TrackPointExtension>
            <ns3:hr>140</ns3:hr>
            <ns3:cad>79</ns3:cad>
          </ns3:TrackPointExtension>
        </extensions>
      </trkpt>
      <trkpt lat="45.33407709561288356781005859375" lon="-71.01200594566762447357177734375">
        <ele>915.4000244140625</ele>
        <time>2026-08-21T20:08:14.000Z</time>
        <extensions>
          <ns3:TrackPointExtension>
            <ns3:hr>141</ns3:hr>
            <ns3:cad>79</ns3:cad>
          </ns3:TrackPointExtension>
        </extensions>
      </trkpt>
      <trkpt lat="45.33406980335712432861328125" lon="-71.01199924014508724212646484375">
        <ele>915.5999755859375</ele>
        <time>2026-08-21T20:08:15.000Z</time>
        <extensions>
          <ns3:TrackPointExtension>
            <ns3:hr>141</ns3:hr>
            <ns3:cad>0</ns3:cad>
          </ns3:TrackPointExtension>
        </extensions>
      </trkpt>
      <trkpt lat="45.33406603150069713592529296875" lon="-71.01199320517480373382568359375">
        <ele>915.79998779296875</ele>
        <time>2026-08-21T20:08:16.000Z</time>
        <extensions>
          <ns3:TrackPointExtension>
            <ns3:hr>142</ns3:hr>
            <ns3:cad>0</ns3:cad>
          </ns3:TrackPointExtension>
        </extensions>
      </trkpt>
      <trkpt lat="45.3340599127113819122314453125" lon="-71.01199219934642314910888671875">
        <ele>916</ele>
        <time>2026-08-21T20:08:17.000Z</time>
        <extensions>
          <ns3:TrackPointExtension>
            <ns3:hr>142</ns3:hr>
            <ns3:cad>0</ns3:cad>
          </ns3:TrackPointExtension>
        </extensions>
      </trkpt>
      <trkpt lat="45.33405764959752559661865234375" lon="-71.011993624269962310791015625">
        <ele>916.20001220703125</ele>
        <time>2026-08-21T20:08:18.000Z</time>
        <extensions>
          <ns3:TrackPointExtension>
            <ns3:hr>142</ns3:hr>
            <ns3:cad>0</ns3:cad>
          </ns3:TrackPointExtension>
        </extensions>
      </trkpt>
      <trkpt lat="45.33405228517949581146240234375" lon="-71.011998318135738372802734375">
        <ele>916.4000244140625</ele>
        <time>2026-08-21T20:08:19.000Z</time>
        <extensions>
          <ns3:TrackPointExtension>
            <ns3:hr>142</ns3:hr>
            <ns3:cad>0</ns3:cad>
          </ns3:TrackPointExtension>
        </extensions>
      </trkpt>
      <trkpt lat="45.3340490162372589111328125" lon="-71.011998988687992095947265625">
        <ele>916.5999755859375</ele>
        <time>2026-08-21T20:08:20.000Z</time>
        <extensions>
          <ns3:TrackPointExtension>
            <ns3:hr>142</ns3:hr>
            <ns3:cad>0</ns3:cad>
          </ns3:TrackPointExtension>
        </extensions>
      </trkpt>
      <trkpt lat="45.33404155634343624114990234375" lon="-71.0120008327066898345947265625">
        <ele>916.79998779296875</ele>
        <time>2026-08-21T20:08:21.000Z</time>
        <extensions>
          <ns3:TrackPointExtension>
            <ns3:hr>142</ns3:hr>
            <ns3:cad>0</ns3:cad>
          </ns3:TrackPointExtension>
        </extensions>
      </trkpt>
      <trkpt lat="45.334031246602535247802734375" lon="-71.01200426928699016571044921875">
        <ele>917</ele>
        <time>2026-08-21T20:08:22.000Z</time>
        <extensions>
          <ns3:TrackPointExtension>
            <ns3:hr>141</ns3:hr>
            <ns3:cad>0</ns3:cad>
          </ns3:TrackPointExtension>
        </extensions>
      </trkpt>
      <trkpt lat="45.334026552736759185791015625" lon="-71.01200225763022899627685546875">
        <ele>917.20001220703125</ele>
        <time>2026-08-21T20:08:23.000Z</time>
        <extensions>
          <ns3:TrackPointExtension>
            <ns3:hr>142</ns3:hr>
            <ns3:cad>0</ns3:cad>
          </ns3:TrackPointExtension>
        </extensions>
      </trkpt>
      <trkpt lat="45.3340247087180614471435546875" lon="-71.011998653411865234375">
        <ele>917.5999755859375</ele>
        <time>2026-08-21T20:08:24.000Z</time>
        <extensions>
          <ns3:TrackPointExtension>
            <ns3:hr>142</ns3:hr>
            <ns3:cad>0</ns3:cad>
          </ns3:TrackPointExtension>
        </extensions>
      </trkpt>
      <trkpt lat="45.334021188318729400634765625" lon="-71.01199672557413578033447265625">
        <ele>917.79998779296875</ele>
        <time>2026-08-21T20:08:25.000Z</time>
        <extensions>
          <ns3:TrackPointExtension>
            <ns3:hr>142</ns3:hr>
            <ns3:cad>49</ns3:cad>
          </ns3:TrackPointExtension>
        </extensions>
      </trkpt>
      <trkpt lat="45.33401540480554103851318359375" lon="-71.01199571974575519561767578125">
        <ele>917.79998779296875</ele>
        <time>2026-08-21T20:08:26.000Z</time>
        <extensions>
          <ns3:TrackPointExtension>
            <ns3:hr>142</ns3:hr>
            <ns3:cad>49</ns3:cad>
          </ns3:TrackPointExtension>
        </extensions>
      </trkpt>
      <trkpt lat="45.33400936983525753021240234375" lon="-71.01199706085026264190673828125">
        <ele>918</ele>
        <time>2026-08-21T20:08:27.000Z</time>
        <extensions>
          <ns3:TrackPointExtension>
            <ns3:hr>142</ns3:hr>
            <ns3:cad>49</ns3:cad>
          </ns3:TrackPointExtension>
        </extensions>
      </trkpt>
      <trkpt lat="45.3340079449117183685302734375" lon="-71.0120105557143688201904296875">
        <ele>918.20001220703125</ele>
        <time>2026-08-21T20:08:28.000Z</time>
        <extensions>
          <ns3:TrackPointExtension>
            <ns3:hr>142</ns3:hr>
            <ns3:cad>0</ns3:cad>
          </ns3:TrackPointExtension>
        </extensions>
      </trkpt>
      <trkpt lat="45.3340089507400989532470703125" lon="-71.01201147772371768951416015625">
        <ele>918.4000244140625</ele>
        <time>2026-08-21T20:08:29.000Z</time>
        <extensions>
          <ns3:TrackPointExtension>
            <ns3:hr>142</ns3:hr>
            <ns3:cad>0</ns3:cad>
          </ns3:TrackPointExtension>
        </extensions>
      </trkpt>
      <trkpt lat="45.33400350250303745269775390625" lon="-71.01201667450368404388427734375">
        <ele>918.5999755859375</ele>
        <time>2026-08-21T20:08:30.000Z</time>
        <extensions>
          <ns3:TrackPointExtension>
            <ns3:hr>142</ns3:hr>
            <ns3:cad>0</ns3:cad>
          </ns3:TrackPointExtension>
        </extensions>
      </trkpt>
      <trkpt lat="45.333995707333087921142578125" lon="-71.0120276547968387603759765625">
        <ele>918.79998779296875</ele>
        <time>2026-08-21T20:08:31.000Z</time>
        <extensions>
          <ns3:TrackPointExtension>
            <ns3:hr>142</ns3:hr>
            <ns3:cad>0</ns3:cad>
          </ns3:TrackPointExtension>
        </extensions>
      </trkpt>
      <trkpt lat="45.3339908458292484283447265625" lon="-71.0120326839387416839599609375">
        <ele>919</ele>
        <time>2026-08-21T20:08:32.000Z</time>
        <extensions>
          <ns3:TrackPointExtension>
            <ns3:hr>142</ns3:hr>
            <ns3:cad>0</ns3:cad>
          </ns3:TrackPointExtension>
        </extensions>
      </trkpt>
      <trkpt lat="45.33399176783859729766845703125" lon="-71.01204550825059413909912109375">
        <ele>919.20001220703125</ele>
        <time>2026-08-21T20:08:33.000Z</time>
        <extensions>
          <ns3:TrackPointExtension>
            <ns3:hr>143</ns3:hr>
            <ns3:cad>0</ns3:cad>
          </ns3:TrackPointExtension>
        </extensions>
      </trkpt>
      <trkpt lat="45.33399729989469051361083984375" lon="-71.01205573417246341705322265625">
        <ele>919.4000244140625</ele>
        <time>2026-08-21T20:08:34.000Z</time>
        <extensions>
          <ns3:TrackPointExtension>
            <ns3:hr>143</ns3:hr>
            <ns3:cad>0</ns3:cad>
          </ns3:TrackPointExtension>
        </extensions>
      </trkpt>
      <trkpt lat="45.33400543034076690673828125" lon="-71.0120702348649501800537109375">
        <ele>919.5999755859375</ele>
        <time>2026-08-21T20:08:35.000Z</time>
        <extensions>
          <ns3:TrackPointExtension>
            <ns3:hr>144</ns3:hr>
            <ns3:cad>0</ns3:cad>
          </ns3:TrackPointExtension>
        </extensions>
      </trkpt>
      <trkpt lat="45.3340082801878452301025390625" lon="-71.01207635365426540374755859375">
        <ele>919.5999755859375</ele>
        <time>2026-08-21T20:08:36.000Z</time>
        <extensions>
          <ns3:TrackPointExtension>
            <ns3:hr>144</ns3:hr>
            <ns3:cad>0</ns3:cad>
          </ns3:TrackPointExtension>
        </extensions>
      </trkpt>
      <trkpt lat="45.33401121385395526885986328125" lon="-71.01208783686161041259765625">
        <ele>919.5999755859375</ele>
        <time>2026-08-21T20:08:37.000Z</time>
        <extensions>
          <ns3:TrackPointExtension>
            <ns3:hr>144</ns3:hr>
            <ns3:cad>0</ns3:cad>
          </ns3:TrackPointExtension>
        </extensions>
      </trkpt>
      <trkpt lat="45.33400467596948146820068359375" lon="-71.012090854346752166748046875">
        <ele>919.5999755859375</ele>
        <time>2026-08-21T20:08:38.000Z</time>
        <extensions>
          <ns3:TrackPointExtension>
            <ns3:hr>144</ns3:hr>
            <ns3:cad>0</ns3:cad>
          </ns3:TrackPointExtension>
        </extensions>
      </trkpt>
      <trkpt lat="45.3340066038072109222412109375" lon="-71.01210216991603374481201171875">
        <ele>919.4000244140625</ele>
        <time>2026-08-21T20:08:39.000Z</time>
        <extensions>
          <ns3:TrackPointExtension>
            <ns3:hr>144</ns3:hr>
            <ns3:cad>0</ns3:cad>
          </ns3:TrackPointExtension>
        </extensions>
      </trkpt>
      <trkpt lat="45.33400853164494037628173828125" lon="-71.01212002336978912353515625">
        <ele>919.20001220703125</ele>
        <time>2026-08-21T20:08:40.000Z</time>
        <extensions>
          <ns3:TrackPointExtension>
            <ns3:hr>144</ns3:hr>
            <ns3:cad>0</ns3:cad>
          </ns3:TrackPointExtension>
        </extensions>
      </trkpt>
      <trkpt lat="45.33401004038751125335693359375" lon="-71.0121329315006732940673828125">
        <ele>919.20001220703125</ele>
        <time>2026-08-21T20:08:41.000Z</time>
        <extensions>
          <ns3:TrackPointExtension>
            <ns3:hr>144</ns3:hr>
            <ns3:cad>0</ns3:cad>
          </ns3:TrackPointExtension>
        </extensions>
      </trkpt>
      <trkpt lat="45.33401347696781158447265625" lon="-71.01213745772838592529296875">
        <ele>919</ele>
        <time>2026-08-21T20:08:42.000Z</time>
        <extensions>
          <ns3:TrackPointExtension>
            <ns3:hr>144</ns3:hr>
            <ns3:cad>0</ns3:cad>
          </ns3:TrackPointExtension>
        </extensions>
      </trkpt>
      <trkpt lat="45.3340126387774944305419921875" lon="-71.012143827974796295166015625">
        <ele>919</ele>
        <time>2026-08-21T20:08:43.000Z</time>
        <extensions>
          <ns3:TrackPointExtension>
            <ns3:hr>144</ns3:hr>
            <ns3:cad>0</ns3:cad>
          </ns3:TrackPointExtension>
        </extensions>
      </trkpt>
      <trkpt lat="45.33401188440620899200439453125" lon="-71.01214818656444549560546875">
        <ele>918.79998779296875</ele>
        <time>2026-08-21T20:08:44.000Z</time>
        <extensions>
          <ns3:TrackPointExtension>
            <ns3:hr>144</ns3:hr>
            <ns3:cad>0</ns3:cad>
          </ns3:TrackPointExtension>
        </extensions>
      </trkpt>
      <trkpt lat="45.334011130034923553466796875" lon="-71.01215112023055553436279296875">
        <ele>918.5999755859375</ele>
        <time>2026-08-21T20:08:45.000Z</time>
        <extensions>
          <ns3:TrackPointExtension>
            <ns3:hr>144</ns3:hr>
            <ns3:cad>0</ns3:cad>
          </ns3:TrackPointExtension>
        </extensions>
      </trkpt>
      <trkpt lat="45.334011130034923553466796875" lon="-71.01215112023055553436279296875">
        <ele>918.5999755859375</ele>
        <time>2026-08-21T20:08:46.000Z</time>
        <extensions>
          <ns3:TrackPointExtension>
            <ns3:hr>144</ns3:hr>
            <ns3:cad>0</ns3:cad>
          </ns3:TrackPointExtension>
        </extensions>
      </trkpt>
      <trkpt lat="45.334011130034923553466796875" lon="-71.01215112023055553436279296875">
        <ele>918.4000244140625</ele>
        <time>2026-08-21T20:08:47.000Z</time>
        <extensions>
          <ns3:TrackPointExtension>
            <ns3:hr>144</ns3:hr>
            <ns3:cad>0</ns3:cad>
          </ns3:TrackPointExtension>
        </extensions>
      </trkpt>
      <trkpt lat="45.334011130034923553466796875" lon="-71.01215112023055553436279296875">
        <ele>918.4000244140625</ele>
        <time>2026-08-21T20:08:48.000Z</time>
        <extensions>
          <ns3:TrackPointExtension>
            <ns3:hr>143</ns3:hr>
            <ns3:cad>0</ns3:cad>
          </ns3:TrackPointExtension>
        </extensions>
      </trkpt>
      <trkpt lat="45.3340116329491138458251953125" lon="-71.01215086877346038818359375">
        <ele>918.4000244140625</ele>
        <time>2026-08-21T20:08:49.000Z</time>
        <extensions>
          <ns3:TrackPointExtension>
            <ns3:hr>143</ns3:hr>
            <ns3:cad>0</ns3:cad>
          </ns3:TrackPointExtension>
        </extensions>
      </trkpt>
      <trkpt lat="45.33401221968233585357666015625" lon="-71.01215916685760021209716796875">
        <ele>918.4000244140625</ele>
        <time>2026-08-21T20:08:50.000Z</time>
        <extensions>
          <ns3:TrackPointExtension>
            <ns3:hr>143</ns3:hr>
            <ns3:cad>0</ns3:cad>
          </ns3:TrackPointExtension>
        </extensions>
      </trkpt>
      <trkpt lat="45.33401037566363811492919921875" lon="-71.012169308960437774658203125">
        <ele>918.20001220703125</ele>
        <time>2026-08-21T20:08:51.000Z</time>
        <extensions>
          <ns3:TrackPointExtension>
            <ns3:hr>142</ns3:hr>
            <ns3:cad>0</ns3:cad>
          </ns3:TrackPointExtension>
        </extensions>
      </trkpt>
      <trkpt lat="45.33400735817849636077880859375" lon="-71.012188084423542022705078125">
        <ele>918.20001220703125</ele>
        <time>2026-08-21T20:08:52.000Z</time>
        <extensions>
          <ns3:TrackPointExtension>
            <ns3:hr>141</ns3:hr>
            <ns3:cad>0</ns3:cad>
          </ns3:TrackPointExtension>
        </extensions>
      </trkpt>
      <trkpt lat="45.33400719054043292999267578125" lon="-71.012198142707347869873046875">
        <ele>918</ele>
        <time>2026-08-21T20:08:53.000Z</time>
        <extensions>
          <ns3:TrackPointExtension>
            <ns3:hr>141</ns3:hr>
            <ns3:cad>0</ns3:cad>
          </ns3:TrackPointExtension>
        </extensions>
      </trkpt>
      <trkpt lat="45.33401221968233585357666015625" lon="-71.0121969692409038543701171875">
        <ele>917.79998779296875</ele>
        <time>2026-08-21T20:08:54.000Z</time>
        <extensions>
          <ns3:TrackPointExtension>
            <ns3:hr>140</ns3:hr>
            <ns3:cad>50</ns3:cad>
          </ns3:TrackPointExtension>
        </extensions>
      </trkpt>
      <trkpt lat="45.33401439897716045379638671875" lon="-71.01220048964023590087890625">
        <ele>917.5999755859375</ele>
        <time>2026-08-21T20:08:55.000Z</time>
        <extensions>
          <ns3:TrackPointExtension>
            <ns3:hr>140</ns3:hr>
            <ns3:cad>0</ns3:cad>
          </ns3:TrackPointExtension>
        </extensions>
      </trkpt>
      <trkpt lat="45.33401272259652614593505859375" lon="-71.01220308803021907806396484375">
        <ele>917.5999755859375</ele>
        <time>2026-08-21T20:08:56.000Z</time>
        <extensions>
          <ns3:TrackPointExtension>
            <ns3:hr>140</ns3:hr>
            <ns3:cad>0</ns3:cad>
          </ns3:TrackPointExtension>
        </extensions>
      </trkpt>
      <trkpt lat="45.33401523716747760772705078125" lon="-71.01221096701920032501220703125">
        <ele>917.4000244140625</ele>
        <time>2026-08-21T20:08:57.000Z</time>
        <extensions>
          <ns3:TrackPointExtension>
            <ns3:hr>140</ns3:hr>
            <ns3:cad>0</ns3:cad>
          </ns3:TrackPointExtension>
        </extensions>
      </trkpt>
      <trkpt lat="45.33402093686163425445556640625" lon="-71.0122133977711200714111328125">
        <ele>917.20001220703125</ele>
        <time>2026-08-21T20:08:58.000Z</time>
        <extensions>
          <ns3:TrackPointExtension>
            <ns3:hr>140</ns3:hr>
            <ns3:cad>0</ns3:cad>
          </ns3:TrackPointExtension>
        </extensions>
      </trkpt>
      <trkpt lat="45.3340247087180614471435546875" lon="-71.01221482269465923309326171875">
        <ele>917</ele>
        <time>2026-08-21T20:08:59.000Z</time>
        <extensions>
          <ns3:TrackPointExtension>
            <ns3:hr>140</ns3:hr>
            <ns3:cad>0</ns3:cad>
          </ns3:TrackPointExtension>
        </extensions>
      </trkpt>
      <trkpt lat="45.33402563072741031646728515625" lon="-71.012221276760101318359375">
        <ele>916.79998779296875</ele>
        <time>2026-08-21T20:09:00.000Z</time>
        <extensions>
          <ns3:TrackPointExtension>
            <ns3:hr>139</ns3:hr>
            <ns3:cad>0</ns3:cad>
          </ns3:TrackPointExtension>
        </extensions>
      </trkpt>
      <trkpt lat="45.3340267203748226165771484375" lon="-71.01222940720617771148681640625">
        <ele>916.4000244140625</ele>
        <time>2026-08-21T20:09:01.000Z</time>
        <extensions>
          <ns3:TrackPointExtension>
            <ns3:hr>139</ns3:hr>
            <ns3:cad>0</ns3:cad>
          </ns3:TrackPointExtension>
        </extensions>
      </trkpt>
      <trkpt lat="45.33403166569769382476806640625" lon="-71.01223812438547611236572265625">
        <ele>916</ele>
        <time>2026-08-21T20:09:02.000Z</time>
        <extensions>
          <ns3:TrackPointExtension>
            <ns3:hr>136</ns3:hr>
            <ns3:cad>0</ns3:cad>
          </ns3:TrackPointExtension>
        </extensions>
      </trkpt>
      <trkpt lat="45.33403451554477214813232421875" lon="-71.0122494399547576904296875">
        <ele>915.5999755859375</ele>
        <time>2026-08-21T20:09:03.000Z</time>
        <extensions>
          <ns3:TrackPointExtension>
            <ns3:hr>134</ns3:hr>
            <ns3:cad>0</ns3:cad>
          </ns3:TrackPointExtension>
        </extensions>
      </trkpt>
      <trkpt lat="45.33403719775378704071044921875" lon="-71.0122616775333881378173828125">
        <ele>915.20001220703125</ele>
        <time>2026-08-21T20:09:04.000Z</time>
        <extensions>
          <ns3:TrackPointExtension>
            <ns3:hr>133</ns3:hr>
            <ns3:cad>0</ns3:cad>
          </ns3:TrackPointExtension>
        </extensions>
      </trkpt>
      <trkpt lat="45.33403870649635791778564453125" lon="-71.0122777707874774932861328125">
        <ele>914.79998779296875</ele>
        <time>2026-08-21T20:09:05.000Z</time>
        <extensions>
          <ns3:TrackPointExtension>
            <ns3:hr>133</ns3:hr>
            <ns3:cad>71</ns3:cad>
          </ns3:TrackPointExtension>
        </extensions>
      </trkpt>
      <trkpt lat="45.33404172398149967193603515625" lon="-71.01228740997612476348876953125">
        <ele>914.5999755859375</ele>
        <time>2026-08-21T20:09:06.000Z</time>
        <extensions>
          <ns3:TrackPointExtension>
            <ns3:hr>133</ns3:hr>
            <ns3:cad>71</ns3:cad>
          </ns3:TrackPointExtension>
        </extensions>
      </trkpt>
      <trkpt lat="45.334040634334087371826171875" lon="-71.01229294203221797943115234375">
        <ele>914.20001220703125</ele>
        <time>2026-08-21T20:09:07.000Z</time>
        <extensions>
          <ns3:TrackPointExtension>
            <ns3:hr>133</ns3:hr>
            <ns3:cad>71</ns3:cad>
          </ns3:TrackPointExtension>
        </extensions>
      </trkpt>
      <trkpt lat="45.3340382874011993408203125" lon="-71.0123004019260406494140625">
        <ele>913.79998779296875</ele>
        <time>2026-08-21T20:09:08.000Z</time>
        <extensions>
          <ns3:TrackPointExtension>
            <ns3:hr>133</ns3:hr>
            <ns3:cad>71</ns3:cad>
          </ns3:TrackPointExtension>
        </extensions>
      </trkpt>
      <trkpt lat="45.33403635956346988677978515625" lon="-71.01230551488697528839111328125">
        <ele>913.5999755859375</ele>
        <time>2026-08-21T20:09:09.000Z</time>
        <extensions>
          <ns3:TrackPointExtension>
            <ns3:hr>133</ns3:hr>
            <ns3:cad>71</ns3:cad>
          </ns3:TrackPointExtension>
        </extensions>
      </trkpt>
      <trkpt lat="45.3340302407741546630859375" lon="-71.01231456734240055084228515625">
        <ele>913.4000244140625</ele>
        <time>2026-08-21T20:09:10.000Z</time>
        <extensions>
          <ns3:TrackPointExtension>
            <ns3:hr>133</ns3:hr>
            <ns3:cad>71</ns3:cad>
          </ns3:TrackPointExtension>
        </extensions>
      </trkpt>
      <trkpt lat="45.334025211632251739501953125" lon="-71.0123186744749546051025390625">
        <ele>913.4000244140625</ele>
        <time>2026-08-21T20:09:11.000Z</time>
        <extensions>
          <ns3:TrackPointExtension>
            <ns3:hr>132</ns3:hr>
            <ns3:cad>49</ns3:cad>
          </ns3:TrackPointExtension>
        </extensions>
      </trkpt>
      <trkpt lat="45.3340183384716510772705078125" lon="-71.01232076995074748992919921875">
        <ele>913.4000244140625</ele>
        <time>2026-08-21T20:09:12.000Z</time>
        <extensions>
          <ns3:TrackPointExtension>
            <ns3:hr>132</ns3:hr>
            <ns3:cad>49</ns3:cad>
          </ns3:TrackPointExtension>
        </extensions>
      </trkpt>
      <trkpt lat="45.334007441997528076171875" lon="-71.01232546381652355194091796875">
        <ele>913.4000244140625</ele>
        <time>2026-08-21T20:09:13.000Z</time>
        <extensions>
          <ns3:TrackPointExtension>
            <ns3:hr>131</ns3:hr>
            <ns3:cad>49</ns3:cad>
          </ns3:TrackPointExtension>
        </extensions>
      </trkpt>
      <trkpt lat="45.33400082029402256011962890625" lon="-71.0123273916542530059814453125">
        <ele>913.5999755859375</ele>
        <time>2026-08-21T20:09:14.000Z</time>
        <extensions>
          <ns3:TrackPointExtension>
            <ns3:hr>130</ns3:hr>
            <ns3:cad>49</ns3:cad>
          </ns3:TrackPointExtension>
        </extensions>
      </trkpt>
      <trkpt lat="45.3339935280382633209228515625" lon="-71.01232596673071384429931640625">
        <ele>913.5999755859375</ele>
        <time>2026-08-21T20:09:15.000Z</time>
        <extensions>
          <ns3:TrackPointExtension>
            <ns3:hr>128</ns3:hr>
            <ns3:cad>49</ns3:cad>
          </ns3:TrackPointExtension>
        </extensions>
      </trkpt>
      <trkpt lat="45.33398355357348918914794921875" lon="-71.01232588291168212890625">
        <ele>913.5999755859375</ele>
        <time>2026-08-21T20:09:16.000Z</time>
        <extensions>
          <ns3:TrackPointExtension>
            <ns3:hr>125</ns3:hr>
            <ns3:cad>49</ns3:cad>
          </ns3:TrackPointExtension>
        </extensions>
      </trkpt>
      <trkpt lat="45.3339693881571292877197265625" lon="-71.01233032532036304473876953125">
        <ele>913.4000244140625</ele>
        <time>2026-08-21T20:09:17.000Z</time>
        <extensions>
          <ns3:TrackPointExtension>
            <ns3:hr>124</ns3:hr>
            <ns3:cad>49</ns3:cad>
          </ns3:TrackPointExtension>
        </extensions>
      </trkpt>
      <trkpt lat="45.33395874314010143280029296875" lon="-71.0123325884342193603515625">
        <ele>913.4000244140625</ele>
        <time>2026-08-21T20:09:18.000Z</time>
        <extensions>
          <ns3:TrackPointExtension>
            <ns3:hr>124</ns3:hr>
            <ns3:cad>49</ns3:cad>
          </ns3:TrackPointExtension>
        </extensions>
      </trkpt>
      <trkpt lat="45.3339417278766632080078125" lon="-71.0123290680348873138427734375">
        <ele>913.20001220703125</ele>
        <time>2026-08-21T20:09:19.000Z</time>
        <extensions>
          <ns3:TrackPointExtension>
            <ns3:hr>123</ns3:hr>
            <ns3:cad>49</ns3:cad>
          </ns3:TrackPointExtension>
        </extensions>
      </trkpt>
      <trkpt lat="45.3339315019547939300537109375" lon="-71.0123273916542530059814453125">
        <ele>913</ele>
        <time>2026-08-21T20:09:20.000Z</time>
        <extensions>
          <ns3:TrackPointExtension>
            <ns3:hr>124</ns3:hr>
            <ns3:cad>49</ns3:cad>
          </ns3:TrackPointExtension>
        </extensions>
      </trkpt>
      <trkpt lat="45.33391582779586315155029296875" lon="-71.01232521235942840576171875">
        <ele>912.79998779296875</ele>
        <time>2026-08-21T20:09:21.000Z</time>
        <extensions>
          <ns3:TrackPointExtension>
            <ns3:hr>123</ns3:hr>
            <ns3:cad>49</ns3:cad>
          </ns3:TrackPointExtension>
        </extensions>
      </trkpt>
      <trkpt lat="45.33390342257916927337646484375" lon="-71.012326218187808990478515625">
        <ele>912.5999755859375</ele>
        <time>2026-08-21T20:09:22.000Z</time>
        <extensions>
          <ns3:TrackPointExtension>
            <ns3:hr>122</ns3:hr>
            <ns3:cad>49</ns3:cad>
          </ns3:TrackPointExtension>
        </extensions>
      </trkpt>
      <trkpt lat="45.33389403484761714935302734375" lon="-71.0123299062252044677734375">
        <ele>912.4000244140625</ele>
        <time>2026-08-21T20:09:23.000Z</time>
        <extensions>
          <ns3:TrackPointExtension>
            <ns3:hr>122</ns3:hr>
            <ns3:cad>49</ns3:cad>
          </ns3:TrackPointExtension>
        </extensions>
      </trkpt>
      <trkpt lat="45.33388213254511356353759765625" lon="-71.01232915185391902923583984375">
        <ele>912.20001220703125</ele>
        <time>2026-08-21T20:09:24.000Z</time>
        <extensions>
          <ns3:TrackPointExtension>
            <ns3:hr>122</ns3:hr>
            <ns3:cad>49</ns3:cad>
          </ns3:TrackPointExtension>
        </extensions>
      </trkpt>
      <trkpt lat="45.333868972957134246826171875" lon="-71.01232680492103099822998046875">
        <ele>912</ele>
        <time>2026-08-21T20:09:25.000Z</time>
        <extensions>
          <ns3:TrackPointExtension>
            <ns3:hr>122</ns3:hr>
            <ns3:cad>49</ns3:cad>
          </ns3:TrackPointExtension>
        </extensions>
      </trkpt>
      <trkpt lat="45.33385581336915493011474609375" lon="-71.01232521235942840576171875">
        <ele>911.79998779296875</ele>
        <time>2026-08-21T20:09:26.000Z</time>
        <extensions>
          <ns3:TrackPointExtension>
            <ns3:hr>121</ns3:hr>
            <ns3:cad>49</ns3:cad>
          </ns3:TrackPointExtension>
        </extensions>
      </trkpt>
      <trkpt lat="45.333842821419239044189453125" lon="-71.0123230330646038055419921875">
        <ele>911.4000244140625</ele>
        <time>2026-08-21T20:09:27.000Z</time>
        <extensions>
          <ns3:TrackPointExtension>
            <ns3:hr>121</ns3:hr>
            <ns3:cad>49</ns3:cad>
          </ns3:TrackPointExtension>
        </extensions>
      </trkpt>
      <trkpt lat="45.33383318223059177398681640625" lon="-71.0123213566839694976806640625">
        <ele>911.20001220703125</ele>
        <time>2026-08-21T20:09:28.000Z</time>
        <extensions>
          <ns3:TrackPointExtension>
            <ns3:hr>121</ns3:hr>
            <ns3:cad>49</ns3:cad>
          </ns3:TrackPointExtension>
        </extensions>
      </trkpt>
      <trkpt lat="45.33382647670805454254150390625" lon="-71.012316159904003143310546875">
        <ele>911</ele>
        <time>2026-08-21T20:09:29.000Z</time>
        <extensions>
          <ns3:TrackPointExtension>
            <ns3:hr>121</ns3:hr>
            <ns3:cad>49</ns3:cad>
          </ns3:TrackPointExtension>
        </extensions>
      </trkpt>
      <trkpt lat="45.3338151611387729644775390625" lon="-71.0123066045343875885009765625">
        <ele>910.79998779296875</ele>
        <time>2026-08-21T20:09:30.000Z</time>
        <extensions>
          <ns3:TrackPointExtension>
            <ns3:hr>121</ns3:hr>
            <ns3:cad>49</ns3:cad>
          </ns3:TrackPointExtension>
        </extensions>
      </trkpt>
      <trkpt lat="45.3338010795414447784423828125" lon="-71.01229797117412090301513671875">
        <ele>910.5999755859375</ele>
        <time>2026-08-21T20:09:31.000Z</time>
        <extensions>
          <ns3:TrackPointExtension>
            <ns3:hr>122</ns3:hr>
            <ns3:cad>49</ns3:cad>
          </ns3:TrackPointExtension>
        </extensions>
      </trkpt>
      <trkpt lat="45.33378020860254764556884765625" lon="-71.0122884996235370635986328125">
        <ele>910.4000244140625</ele>
        <time>2026-08-21T20:09:32.000Z</time>
        <extensions>
          <ns3:TrackPointExtension>
            <ns3:hr>121</ns3:hr>
            <ns3:cad>49</ns3:cad>
          </ns3:TrackPointExtension>
        </extensions>
      </trkpt>
      <trkpt lat="45.3337615169584751129150390625" lon="-71.012285314500331878662109375">
        <ele>910.20001220703125</ele>
        <time>2026-08-21T20:09:33.000Z</time>
        <extensions>
          <ns3:TrackPointExtension>
            <ns3:hr>121</ns3:hr>
            <ns3:cad>68</ns3:cad>
          </ns3:TrackPointExtension>
        </extensions>
      </trkpt>
      <trkpt lat="45.33374433405697345733642578125" lon="-71.01228497922420501708984375">
        <ele>910</ele>
        <time>2026-08-21T20:09:34.000Z</time>
        <extensions>
          <ns3:TrackPointExtension>
            <ns3:hr>121</ns3:hr>
            <ns3:cad>0</ns3:cad>
          </ns3:TrackPointExtension>
        </extensions>
      </trkpt>
      <trkpt lat="45.333731174468994140625" lon="-71.01228841580450534820556640625">
        <ele>909.79998779296875</ele>
        <time>2026-08-21T20:09:35.000Z</time>
        <extensions>
          <ns3:TrackPointExtension>
            <ns3:hr>121</ns3:hr>
            <ns3:cad>0</ns3:cad>
          </ns3:TrackPointExtension>
        </extensions>
      </trkpt>
      <trkpt lat="45.33371868543326854705810546875" lon="-71.0122955404222011566162109375">
        <ele>909.79998779296875</ele>
        <time>2026-08-21T20:09:36.000Z</time>
        <extensions>
          <ns3:TrackPointExtension>
            <ns3:hr>121</ns3:hr>
            <ns3:cad>79</ns3:cad>
          </ns3:TrackPointExtension>
        </extensions>
      </trkpt>
      <trkpt lat="45.33370577730238437652587890625" lon="-71.01230082102119922637939453125">
        <ele>909.79998779296875</ele>
        <time>2026-08-21T20:09:37.000Z</time>
        <extensions>
          <ns3:TrackPointExtension>
            <ns3:hr>121</ns3:hr>
            <ns3:cad>79</ns3:cad>
          </ns3:TrackPointExtension>
        </extensions>
      </trkpt>
      <trkpt lat="45.3336937911808490753173828125" lon="-71.012307107448577880859375">
        <ele>909.79998779296875</ele>
        <time>2026-08-21T20:09:38.000Z</time>
        <extensions>
          <ns3:TrackPointExtension>
            <ns3:hr>122</ns3:hr>
            <ns3:cad>79</ns3:cad>
          </ns3:TrackPointExtension>
        </extensions>
      </trkpt>
      <trkpt lat="45.33368297852575778961181640625" lon="-71.0123245418071746826171875">
        <ele>910</ele>
        <time>2026-08-21T20:09:39.000Z</time>
        <extensions>
          <ns3:TrackPointExtension>
            <ns3:hr>122</ns3:hr>
            <ns3:cad>79</ns3:cad>
          </ns3:TrackPointExtension>
        </extensions>
      </trkpt>
      <trkpt lat="45.3336726687848567962646484375" lon="-71.0123379528522491455078125">
        <ele>910</ele>
        <time>2026-08-21T20:09:40.000Z</time>
        <extensions>
          <ns3:TrackPointExtension>
            <ns3:hr>122</ns3:hr>
            <ns3:cad>79</ns3:cad>
          </ns3:TrackPointExtension>
        </extensions>
      </trkpt>
      <trkpt lat="45.33366336487233638763427734375" lon="-71.01235128007829189300537109375">
        <ele>910.20001220703125</ele>
        <time>2026-08-21T20:09:41.000Z</time>
        <extensions>
          <ns3:TrackPointExtension>
            <ns3:hr>121</ns3:hr>
            <ns3:cad>79</ns3:cad>
          </ns3:TrackPointExtension>
        </extensions>
      </trkpt>
      <trkpt lat="45.33365263603627681732177734375" lon="-71.0123595781624317169189453125">
        <ele>910.20001220703125</ele>
        <time>2026-08-21T20:09:42.000Z</time>
        <extensions>
          <ns3:TrackPointExtension>
            <ns3:hr>121</ns3:hr>
            <ns3:cad>79</ns3:cad>
          </ns3:TrackPointExtension>
        </extensions>
      </trkpt>
      <trkpt lat="45.33364475704729557037353515625" lon="-71.0123662836849689483642578125">
        <ele>910.20001220703125</ele>
        <time>2026-08-21T20:09:43.000Z</time>
        <extensions>
          <ns3:TrackPointExtension>
            <ns3:hr>120</ns3:hr>
            <ns3:cad>56</ns3:cad>
          </ns3:TrackPointExtension>
        </extensions>
      </trkpt>
      <trkpt lat="45.3336341120302677154541015625" lon="-71.01237810216844081878662109375">
        <ele>910.20001220703125</ele>
        <time>2026-08-21T20:09:44.000Z</time>
        <extensions>
          <ns3:TrackPointExtension>
            <ns3:hr>119</ns3:hr>
            <ns3:cad>56</ns3:cad>
          </ns3:TrackPointExtension>
        </extensions>
      </trkpt>
      <trkpt lat="45.33362816087901592254638671875" lon="-71.01239025592803955078125">
        <ele>910</ele>
        <time>2026-08-21T20:09:45.000Z</time>
        <extensions>
          <ns3:TrackPointExtension>
            <ns3:hr>118</ns3:hr>
            <ns3:cad>56</ns3:cad>
          </ns3:TrackPointExtension>
        </extensions>
      </trkpt>
      <trkpt lat="45.33362346701323986053466796875" lon="-71.01240308023989200592041015625">
        <ele>910</ele>
        <time>2026-08-21T20:09:46.000Z</time>
        <extensions>
          <ns3:TrackPointExtension>
            <ns3:hr>117</ns3:hr>
            <ns3:cad>56</ns3:cad>
          </ns3:TrackPointExtension>
        </extensions>
      </trkpt>
      <trkpt lat="45.3336196951568126678466796875" lon="-71.0124148987233638763427734375">
        <ele>909.79998779296875</ele>
        <time>2026-08-21T20:09:47.000Z</time>
        <extensions>
          <ns3:TrackPointExtension>
            <ns3:hr>116</ns3:hr>
            <ns3:cad>56</ns3:cad>
          </ns3:TrackPointExtension>
        </extensions>
      </trkpt>
      <trkpt lat="45.33361961133778095245361328125" lon="-71.01242587901651859283447265625">
        <ele>909.79998779296875</ele>
        <time>2026-08-21T20:09:48.000Z</time>
        <extensions>
          <ns3:TrackPointExtension>
            <ns3:hr>116</ns3:hr>
            <ns3:cad>47</ns3:cad>
          </ns3:TrackPointExtension>
        </extensions>
      </trkpt>
      <trkpt lat="45.33361810259521007537841796875" lon="-71.01243442855775356292724609375">
        <ele>909.79998779296875</ele>
        <time>2026-08-21T20:09:49.000Z</time>
        <extensions>
          <ns3:TrackPointExtension>
            <ns3:hr>116</ns3:hr>
            <ns3:cad>47</ns3:cad>
          </ns3:TrackPointExtension>
        </extensions>
      </trkpt>
      <trkpt lat="45.33361609093844890594482421875" lon="-71.0124444030225276947021484375">
        <ele>909.79998779296875</ele>
        <time>2026-08-21T20:09:50.000Z</time>
        <extensions>
          <ns3:TrackPointExtension>
            <ns3:hr>116</ns3:hr>
            <ns3:cad>47</ns3:cad>
          </ns3:TrackPointExtension>
        </extensions>
      </trkpt>
      <trkpt lat="45.33361173234879970550537109375" lon="-71.0124586522579193115234375">
        <ele>909.79998779296875</ele>
        <time>2026-08-21T20:09:51.000Z</time>
        <extensions>
          <ns3:TrackPointExtension>
            <ns3:hr>117</ns3:hr>
            <ns3:cad>47</ns3:cad>
          </ns3:TrackPointExtension>
        </extensions>
      </trkpt>
      <trkpt lat="45.33361055888235569000244140625" lon="-71.0124720633029937744140625">
        <ele>909.79998779296875</ele>
        <time>2026-08-21T20:09:52.000Z</time>
        <extensions>
          <ns3:TrackPointExtension>
            <ns3:hr>117</ns3:hr>
            <ns3:cad>47</ns3:cad>
          </ns3:TrackPointExtension>
        </extensions>
      </trkpt>
      <trkpt lat="45.33361022360622882843017578125" lon="-71.01248807273805141448974609375">
        <ele>909.5999755859375</ele>
        <time>2026-08-21T20:09:53.000Z</time>
        <extensions>
          <ns3:TrackPointExtension>
            <ns3:hr>116</ns3:hr>
            <ns3:cad>0</ns3:cad>
          </ns3:TrackPointExtension>
        </extensions>
      </trkpt>
      <trkpt lat="45.3336116485297679901123046875" lon="-71.01250902749598026275634765625">
        <ele>909.5999755859375</ele>
        <time>2026-08-21T20:09:54.000Z</time>
        <extensions>
          <ns3:TrackPointExtension>
            <ns3:hr>116</ns3:hr>
            <ns3:cad>0</ns3:cad>
          </ns3:TrackPointExtension>
        </extensions>
      </trkpt>
      <trkpt lat="45.333611480891704559326171875" lon="-71.01252797059714794158935546875">
        <ele>909.5999755859375</ele>
        <time>2026-08-21T20:09:55.000Z</time>
        <extensions>
          <ns3:TrackPointExtension>
            <ns3:hr>116</ns3:hr>
            <ns3:cad>0</ns3:cad>
          </ns3:TrackPointExtension>
        </extensions>
      </trkpt>
      <trkpt lat="45.333612151443958282470703125" lon="-71.0125423036515712738037109375">
        <ele>909.5999755859375</ele>
        <time>2026-08-21T20:09:56.000Z</time>
        <extensions>
          <ns3:TrackPointExtension>
            <ns3:hr>116</ns3:hr>
            <ns3:cad>0</ns3:cad>
          </ns3:TrackPointExtension>
        </extensions>
      </trkpt>
      <trkpt lat="45.33361692912876605987548828125" lon="-71.01255412213504314422607421875">
        <ele>909.79998779296875</ele>
        <time>2026-08-21T20:09:57.000Z</time>
        <extensions>
          <ns3:TrackPointExtension>
            <ns3:hr>116</ns3:hr>
            <ns3:cad>0</ns3:cad>
          </ns3:TrackPointExtension>
        </extensions>
      </trkpt>
      <trkpt lat="45.3336217068135738372802734375" lon="-71.012568287551403045654296875">
        <ele>910</ele>
        <time>2026-08-21T20:09:58.000Z</time>
        <extensions>
          <ns3:TrackPointExtension>
            <ns3:hr>117</ns3:hr>
            <ns3:cad>0</ns3:cad>
          </ns3:TrackPointExtension>
        </extensions>
      </trkpt>
      <trkpt lat="45.33362162299454212188720703125" lon="-71.01258044131100177764892578125">
        <ele>910.20001220703125</ele>
        <time>2026-08-21T20:09:59.000Z</time>
        <extensions>
          <ns3:TrackPointExtension>
            <ns3:hr>117</ns3:hr>
            <ns3:cad>0</ns3:cad>
          </ns3:TrackPointExtension>
        </extensions>
      </trkpt>
      <trkpt lat="45.33361726440489292144775390625" lon="-71.01259066723287105560302734375">
        <ele>910.4000244140625</ele>
        <time>2026-08-21T20:10:00.000Z</time>
        <extensions>
          <ns3:TrackPointExtension>
            <ns3:hr>117</ns3:hr>
            <ns3:cad>0</ns3:cad>
          </ns3:TrackPointExtension>
        </extensions>
      </trkpt>
      <trkpt lat="45.33361307345330715179443359375" lon="-71.0125972889363765716552734375">
        <ele>910.5999755859375</ele>
        <time>2026-08-21T20:10:01.000Z</time>
        <extensions>
          <ns3:TrackPointExtension>
            <ns3:hr>118</ns3:hr>
            <ns3:cad>0</ns3:cad>
          </ns3:TrackPointExtension>
        </extensions>
      </trkpt>
      <trkpt lat="45.33361248672008514404296875" lon="-71.01260139606893062591552734375">
        <ele>910.79998779296875</ele>
        <time>2026-08-21T20:10:02.000Z</time>
        <extensions>
          <ns3:TrackPointExtension>
            <ns3:hr>117</ns3:hr>
            <ns3:cad>0</ns3:cad>
          </ns3:TrackPointExtension>
        </extensions>
      </trkpt>
      <trkpt lat="45.3336143307387828826904296875" lon="-71.01260416209697723388671875">
        <ele>911</ele>
        <time>2026-08-21T20:10:03.000Z</time>
        <extensions>
          <ns3:TrackPointExtension>
            <ns3:hr>117</ns3:hr>
            <ns3:cad>0</ns3:cad>
          </ns3:TrackPointExtension>
        </extensions>
      </trkpt>
      <trkpt lat="45.33361055888235569000244140625" lon="-71.01260961033403873443603515625">
        <ele>911</ele>
        <time>2026-08-21T20:10:04.000Z</time>
        <extensions>
          <ns3:TrackPointExtension>
            <ns3:hr>118</ns3:hr>
            <ns3:cad>0</ns3:cad>
          </ns3:TrackPointExtension>
        </extensions>
      </trkpt>
      <trkpt lat="45.333604104816913604736328125" lon="-71.01262352429330348968505859375">
        <ele>910.79998779296875</ele>
        <time>2026-08-21T20:10:05.000Z</time>
        <extensions>
          <ns3:TrackPointExtension>
            <ns3:hr>118</ns3:hr>
            <ns3:cad>0</ns3:cad>
          </ns3:TrackPointExtension>
        </extensions>
      </trkpt>
      <trkpt lat="45.33359848894178867340087890625" lon="-71.012627296149730682373046875">
        <ele>910.5999755859375</ele>
        <time>2026-08-21T20:10:06.000Z</time>
        <extensions>
          <ns3:TrackPointExtension>
            <ns3:hr>118</ns3:hr>
            <ns3:cad>0</ns3:cad>
          </ns3:TrackPointExtension>
        </extensions>
      </trkpt>
      <trkpt lat="45.333589017391204833984375" lon="-71.0126308165490627288818359375">
        <ele>910.4000244140625</ele>
        <time>2026-08-21T20:10:07.000Z</time>
        <extensions>
          <ns3:TrackPointExtension>
            <ns3:hr>117</ns3:hr>
            <ns3:cad>0</ns3:cad>
          </ns3:TrackPointExtension>
        </extensions>
      </trkpt>
      <trkpt lat="45.3335808031260967254638671875" lon="-71.01263609714806079864501953125">
        <ele>910.20001220703125</ele>
        <time>2026-08-21T20:10:08.000Z</time>
        <extensions>
          <ns3:TrackPointExtension>
            <ns3:hr>118</ns3:hr>
            <ns3:cad>0</ns3:cad>
          </ns3:TrackPointExtension>
        </extensions>
      </trkpt>
      <trkpt lat="45.3335747681558132171630859375" lon="-71.0126383602619171142578125">
        <ele>910.20001220703125</ele>
        <time>2026-08-21T20:10:09.000Z</time>
        <extensions>
          <ns3:TrackPointExtension>
            <ns3:hr>118</ns3:hr>
            <ns3:cad>0</ns3:cad>
          </ns3:TrackPointExtension>
        </extensions>
      </trkpt>
      <trkpt lat="45.33357250504195690155029296875" lon="-71.0126368515193462371826171875">
        <ele>910.20001220703125</ele>
        <time>2026-08-21T20:10:10.000Z</time>
        <extensions>
          <ns3:TrackPointExtension>
            <ns3:hr>119</ns3:hr>
            <ns3:cad>0</ns3:cad>
          </ns3:TrackPointExtension>
        </extensions>
      </trkpt>
      <trkpt lat="45.333572588860988616943359375" lon="-71.01263140328228473663330078125">
        <ele>910.20001220703125</ele>
        <time>2026-08-21T20:10:11.000Z</time>
        <extensions>
          <ns3:TrackPointExtension>
            <ns3:hr>120</ns3:hr>
            <ns3:cad>0</ns3:cad>
          </ns3:TrackPointExtension>
        </extensions>
      </trkpt>
      <trkpt lat="45.333569906651973724365234375" lon="-71.01262670941650867462158203125">
        <ele>910</ele>
        <time>2026-08-21T20:10:12.000Z</time>
        <extensions>
          <ns3:TrackPointExtension>
            <ns3:hr>122</ns3:hr>
            <ns3:cad>0</ns3:cad>
          </ns3:TrackPointExtension>
        </extensions>
      </trkpt>
      <trkpt lat="45.33356496132910251617431640625" lon="-71.0126257874071598052978515625">
        <ele>910</ele>
        <time>2026-08-21T20:10:13.000Z</time>
        <extensions>
          <ns3:TrackPointExtension>
            <ns3:hr>122</ns3:hr>
            <ns3:cad>0</ns3:cad>
          </ns3:TrackPointExtension>
        </extensions>
      </trkpt>
      <trkpt lat="45.3335576690733432769775390625" lon="-71.01262486539781093597412109375">
        <ele>910</ele>
        <time>2026-08-21T20:10:14.000Z</time>
        <extensions>
          <ns3:TrackPointExtension>
            <ns3:hr>121</ns3:hr>
            <ns3:cad>0</ns3:cad>
          </ns3:TrackPointExtension>
        </extensions>
      </trkpt>
      <trkpt lat="45.3335509635508060455322265625" lon="-71.0126222670078277587890625">
        <ele>910</ele>
        <time>2026-08-21T20:10:15.000Z</time>
        <extensions>
          <ns3:TrackPointExtension>
            <ns3:hr>121</ns3:hr>
            <ns3:cad>0</ns3:cad>
          </ns3:TrackPointExtension>
        </extensions>
      </trkpt>
      <trkpt lat="45.3335462696850299835205078125" lon="-71.01261849515140056610107421875">
        <ele>910</ele>
        <time>2026-08-21T20:10:16.000Z</time>
        <extensions>
          <ns3:TrackPointExtension>
            <ns3:hr>122</ns3:hr>
            <ns3:cad>0</ns3:cad>
          </ns3:TrackPointExtension>
        </extensions>
      </trkpt>
      <trkpt lat="45.33354098908603191375732421875" lon="-71.0126133821904659271240234375">
        <ele>910.20001220703125</ele>
        <time>2026-08-21T20:10:17.000Z</time>
        <extensions>
          <ns3:TrackPointExtension>
            <ns3:hr>122</ns3:hr>
            <ns3:cad>0</ns3:cad>
          </ns3:TrackPointExtension>
        </extensions>
      </trkpt>
      <trkpt lat="45.33354048617184162139892578125" lon="-71.01261028088629245758056640625">
        <ele>910.20001220703125</ele>
        <time>2026-08-21T20:10:18.000Z</time>
        <extensions>
          <ns3:TrackPointExtension>
            <ns3:hr>122</ns3:hr>
            <ns3:cad>0</ns3:cad>
          </ns3:TrackPointExtension>
        </extensions>
      </trkpt>
      <trkpt lat="45.3335422463715076446533203125" lon="-71.01260407827794551849365234375">
        <ele>910.20001220703125</ele>
        <time>2026-08-21T20:10:19.000Z</time>
        <extensions>
          <ns3:TrackPointExtension>
            <ns3:hr>123</ns3:hr>
            <ns3:cad>0</ns3:cad>
          </ns3:TrackPointExtension>
        </extensions>
      </trkpt>
      <trkpt lat="45.33354635350406169891357421875" lon="-71.0126016475260257720947265625">
        <ele>910.20001220703125</ele>
        <time>2026-08-21T20:10:20.000Z</time>
        <extensions>
          <ns3:TrackPointExtension>
            <ns3:hr>122</ns3:hr>
            <ns3:cad>0</ns3:cad>
          </ns3:TrackPointExtension>
        </extensions>
      </trkpt>
      <trkpt lat="45.333548448979854583740234375" lon="-71.0126023180782794952392578125">
        <ele>910</ele>
        <time>2026-08-21T20:10:21.000Z</time>
        <extensions>
          <ns3:TrackPointExtension>
            <ns3:hr>122</ns3:hr>
            <ns3:cad>0</ns3:cad>
          </ns3:TrackPointExtension>
        </extensions>
      </trkpt>
      <trkpt lat="45.333548448979854583740234375" lon="-71.0126056708395481109619140625">
        <ele>910</ele>
        <time>2026-08-21T20:10:22.000Z</time>
        <extensions>
          <ns3:TrackPointExtension>
            <ns3:hr>121</ns3:hr>
            <ns3:cad>0</ns3:cad>
          </ns3:TrackPointExtension>
        </extensions>
      </trkpt>
      <trkpt lat="45.3335482813417911529541015625" lon="-71.012606509029865264892578125">
        <ele>909.79998779296875</ele>
        <time>2026-08-21T20:10:23.000Z</time>
        <extensions>
          <ns3:TrackPointExtension>
            <ns3:hr>121</ns3:hr>
            <ns3:cad>0</ns3:cad>
          </ns3:TrackPointExtension>
        </extensions>
      </trkpt>
      <trkpt lat="45.333547778427600860595703125" lon="-71.01260575465857982635498046875">
        <ele>909.79998779296875</ele>
        <time>2026-08-21T20:10:24.000Z</time>
        <extensions>
          <ns3:TrackPointExtension>
            <ns3:hr>121</ns3:hr>
            <ns3:cad>0</ns3:cad>
          </ns3:TrackPointExtension>
        </extensions>
      </trkpt>
      <trkpt lat="45.33354585058987140655517578125" lon="-71.01260826922953128814697265625">
        <ele>909.79998779296875</ele>
        <time>2026-08-21T20:10:25.000Z</time>
        <extensions>
          <ns3:TrackPointExtension>
            <ns3:hr>121</ns3:hr>
            <ns3:cad>0</ns3:cad>
          </ns3:TrackPointExtension>
        </extensions>
      </trkpt>
      <trkpt lat="45.33354618586599826812744140625" lon="-71.01260927505791187286376953125">
        <ele>909.79998779296875</ele>
        <time>2026-08-21T20:10:26.000Z</time>
        <extensions>
          <ns3:TrackPointExtension>
            <ns3:hr>122</ns3:hr>
            <ns3:cad>0</ns3:cad>
          </ns3:TrackPointExtension>
        </extensions>
      </trkpt>
      <trkpt lat="45.33354719169437885284423828125" lon="-71.01260860450565814971923828125">
        <ele>909.79998779296875</ele>
        <time>2026-08-21T20:10:27.000Z</time>
        <extensions>
          <ns3:TrackPointExtension>
            <ns3:hr>122</ns3:hr>
            <ns3:cad>0</ns3:cad>
          </ns3:TrackPointExtension>
        </extensions>
      </trkpt>
      <trkpt lat="45.333546437323093414306640625" lon="-71.0126083530485630035400390625">
        <ele>909.79998779296875</ele>
        <time>2026-08-21T20:10:28.000Z</time>
        <extensions>
          <ns3:TrackPointExtension>
            <ns3:hr>122</ns3:hr>
            <ns3:cad>0</ns3:cad>
          </ns3:TrackPointExtension>
        </extensions>
      </trkpt>
      <trkpt lat="45.33354735933244228363037109375" lon="-71.01260659284889698028564453125">
        <ele>910</ele>
        <time>2026-08-21T20:10:29.000Z</time>
        <extensions>
          <ns3:TrackPointExtension>
            <ns3:hr>122</ns3:hr>
            <ns3:cad>0</ns3:cad>
          </ns3:TrackPointExtension>
        </extensions>
      </trkpt>
      <trkpt lat="45.3335487842559814453125" lon="-71.01260550320148468017578125">
        <ele>910</ele>
        <time>2026-08-21T20:10:30.000Z</time>
        <extensions>
          <ns3:TrackPointExtension>
            <ns3:hr>122</ns3:hr>
            <ns3:cad>0</ns3:cad>
          </ns3:TrackPointExtension>
        </extensions>
      </trkpt>
      <trkpt lat="45.3335489518940448760986328125" lon="-71.01260290481150150299072265625">
        <ele>910</ele>
        <time>2026-08-21T20:10:31.000Z</time>
        <extensions>
          <ns3:TrackPointExtension>
            <ns3:hr>122</ns3:hr>
            <ns3:cad>0</ns3:cad>
          </ns3:TrackPointExtension>
        </extensions>
      </trkpt>
      <trkpt lat="45.3335489518940448760986328125" lon="-71.01260290481150150299072265625">
        <ele>910</ele>
        <time>2026-08-21T20:10:32.000Z</time>
        <extensions>
          <ns3:TrackPointExtension>
            <ns3:hr>121</ns3:hr>
            <ns3:cad>0</ns3:cad>
          </ns3:TrackPointExtension>
        </extensions>
      </trkpt>
      <trkpt lat="45.33354819752275943756103515625" lon="-71.0126023180782794952392578125">
        <ele>910</ele>
        <time>2026-08-21T20:10:33.000Z</time>
        <extensions>
          <ns3:TrackPointExtension>
            <ns3:hr>121</ns3:hr>
            <ns3:cad>0</ns3:cad>
          </ns3:TrackPointExtension>
        </extensions>
      </trkpt>
      <trkpt lat="45.33354719169437885284423828125" lon="-71.01258714683353900909423828125">
        <ele>910</ele>
        <time>2026-08-21T20:10:34.000Z</time>
        <extensions>
          <ns3:TrackPointExtension>
            <ns3:hr>121</ns3:hr>
            <ns3:cad>0</ns3:cad>
          </ns3:TrackPointExtension>
        </extensions>
      </trkpt>
      <trkpt lat="45.33354786224663257598876953125" lon="-71.0125721432268619537353515625">
        <ele>910</ele>
        <time>2026-08-21T20:10:35.000Z</time>
        <extensions>
          <ns3:TrackPointExtension>
            <ns3:hr>121</ns3:hr>
            <ns3:cad>0</ns3:cad>
          </ns3:TrackPointExtension>
        </extensions>
      </trkpt>
      <trkpt lat="45.33354970626533031463623046875" lon="-71.01255428977310657501220703125">
        <ele>910</ele>
        <time>2026-08-21T20:10:36.000Z</time>
        <extensions>
          <ns3:TrackPointExtension>
            <ns3:hr>121</ns3:hr>
            <ns3:cad>0</ns3:cad>
          </ns3:TrackPointExtension>
        </extensions>
      </trkpt>
      <trkpt lat="45.3335489518940448760986328125" lon="-71.01253350265324115753173828125">
        <ele>910</ele>
        <time>2026-08-21T20:10:37.000Z</time>
        <extensions>
          <ns3:TrackPointExtension>
            <ns3:hr>120</ns3:hr>
            <ns3:cad>0</ns3:cad>
          </ns3:TrackPointExtension>
        </extensions>
      </trkpt>
      <trkpt lat="45.3335459344089031219482421875" lon="-71.0125149786472320556640625">
        <ele>909.79998779296875</ele>
        <time>2026-08-21T20:10:38.000Z</time>
        <extensions>
          <ns3:TrackPointExtension>
            <ns3:hr>120</ns3:hr>
            <ns3:cad>0</ns3:cad>
          </ns3:TrackPointExtension>
        </extensions>
      </trkpt>
      <trkpt lat="45.3335462696850299835205078125" lon="-71.01249444298446178436279296875">
        <ele>909.79998779296875</ele>
        <time>2026-08-21T20:10:39.000Z</time>
        <extensions>
          <ns3:TrackPointExtension>
            <ns3:hr>117</ns3:hr>
            <ns3:cad>0</ns3:cad>
          </ns3:TrackPointExtension>
        </extensions>
      </trkpt>
      <trkpt lat="45.33354383893311023712158203125" lon="-71.01247516460716724395751953125">
        <ele>909.79998779296875</ele>
        <time>2026-08-21T20:10:40.000Z</time>
        <extensions>
          <ns3:TrackPointExtension>
            <ns3:hr>115</ns3:hr>
            <ns3:cad>0</ns3:cad>
          </ns3:TrackPointExtension>
        </extensions>
      </trkpt>
      <trkpt lat="45.33353713341057300567626953125" lon="-71.0124574787914752960205078125">
        <ele>909.79998779296875</ele>
        <time>2026-08-21T20:10:41.000Z</time>
        <extensions>
          <ns3:TrackPointExtension>
            <ns3:hr>115</ns3:hr>
            <ns3:cad>0</ns3:cad>
          </ns3:TrackPointExtension>
        </extensions>
      </trkpt>
      <trkpt lat="45.33353361301124095916748046875" lon="-71.0124356858432292938232421875">
        <ele>909.79998779296875</ele>
        <time>2026-08-21T20:10:42.000Z</time>
        <extensions>
          <ns3:TrackPointExtension>
            <ns3:hr>114</ns3:hr>
            <ns3:cad>50</ns3:cad>
          </ns3:TrackPointExtension>
        </extensions>
      </trkpt>
      <trkpt lat="45.3335281647741794586181640625" lon="-71.01241515018045902252197265625">
        <ele>910</ele>
        <time>2026-08-21T20:10:43.000Z</time>
        <extensions>
          <ns3:TrackPointExtension>
            <ns3:hr>113</ns3:hr>
            <ns3:cad>50</ns3:cad>
          </ns3:TrackPointExtension>
        </extensions>
      </trkpt>
      <trkpt lat="45.33352556638419628143310546875" lon="-71.01240509189665317535400390625">
        <ele>910</ele>
        <time>2026-08-21T20:10:44.000Z</time>
        <extensions>
          <ns3:TrackPointExtension>
            <ns3:hr>113</ns3:hr>
            <ns3:cad>52</ns3:cad>
          </ns3:TrackPointExtension>
        </extensions>
      </trkpt>
      <trkpt lat="45.33352137543261051177978515625" lon="-71.01238824427127838134765625">
        <ele>910</ele>
        <time>2026-08-21T20:10:45.000Z</time>
        <extensions>
          <ns3:TrackPointExtension>
            <ns3:hr>113</ns3:hr>
            <ns3:cad>52</ns3:cad>
          </ns3:TrackPointExtension>
        </extensions>
      </trkpt>
      <trkpt lat="45.33351718448102474212646484375" lon="-71.012365110218524932861328125">
        <ele>910</ele>
        <time>2026-08-21T20:10:46.000Z</time>
        <extensions>
          <ns3:TrackPointExtension>
            <ns3:hr>113</ns3:hr>
            <ns3:cad>50</ns3:cad>
          </ns3:TrackPointExtension>
        </extensions>
      </trkpt>
      <trkpt lat="45.33351383171975612640380859375" lon="-71.01234960369765758514404296875">
        <ele>909.79998779296875</ele>
        <time>2026-08-21T20:10:47.000Z</time>
        <extensions>
          <ns3:TrackPointExtension>
            <ns3:hr>116</ns3:hr>
            <ns3:cad>50</ns3:cad>
          </ns3:TrackPointExtension>
        </extensions>
      </trkpt>
      <trkpt lat="45.3335093893110752105712890625" lon="-71.01233736611902713775634765625">
        <ele>909.79998779296875</ele>
        <time>2026-08-21T20:10:48.000Z</time>
        <extensions>
          <ns3:TrackPointExtension>
            <ns3:hr>119</ns3:hr>
            <ns3:cad>50</ns3:cad>
          </ns3:TrackPointExtension>
        </extensions>
      </trkpt>
      <trkpt lat="45.33350327052175998687744140625" lon="-71.012327559292316436767578125">
        <ele>909.5999755859375</ele>
        <time>2026-08-21T20:10:49.000Z</time>
        <extensions>
          <ns3:TrackPointExtension>
            <ns3:hr>118</ns3:hr>
            <ns3:cad>0</ns3:cad>
          </ns3:TrackPointExtension>
        </extensions>
      </trkpt>
      <trkpt lat="45.33349388279020786285400390625" lon="-71.01231406442821025848388671875">
        <ele>909.5999755859375</ele>
        <time>2026-08-21T20:10:50.000Z</time>
        <extensions>
          <ns3:TrackPointExtension>
            <ns3:hr>118</ns3:hr>
            <ns3:cad>0</ns3:cad>
          </ns3:TrackPointExtension>
        </extensions>
      </trkpt>
      <trkpt lat="45.33348231576383113861083984375" lon="-71.01230350323021411895751953125">
        <ele>909.79998779296875</ele>
        <time>2026-08-21T20:10:51.000Z</time>
        <extensions>
          <ns3:TrackPointExtension>
            <ns3:hr>118</ns3:hr>
            <ns3:cad>52</ns3:cad>
          </ns3:TrackPointExtension>
        </extensions>
      </trkpt>
      <trkpt lat="45.3334698267281055450439453125" lon="-71.01229369640350341796875">
        <ele>909.79998779296875</ele>
        <time>2026-08-21T20:10:52.000Z</time>
        <extensions>
          <ns3:TrackPointExtension>
            <ns3:hr>117</ns3:hr>
            <ns3:cad>52</ns3:cad>
          </ns3:TrackPointExtension>
        </extensions>
      </trkpt>
      <trkpt lat="45.33346421085298061370849609375" lon="-71.01228824816644191741943359375">
        <ele>909.79998779296875</ele>
        <time>2026-08-21T20:10:53.000Z</time>
        <extensions>
          <ns3:TrackPointExtension>
            <ns3:hr>116</ns3:hr>
            <ns3:cad>52</ns3:cad>
          </ns3:TrackPointExtension>
        </extensions>
      </trkpt>
      <trkpt lat="45.33345582894980907440185546875" lon="-71.01227785460650920867919921875">
        <ele>909.79998779296875</ele>
        <time>2026-08-21T20:10:54.000Z</time>
        <extensions>
          <ns3:TrackPointExtension>
            <ns3:hr>117</ns3:hr>
            <ns3:cad>50</ns3:cad>
          </ns3:TrackPointExtension>
        </extensions>
      </trkpt>
      <trkpt lat="45.33344845287501811981201171875" lon="-71.012272574007511138916015625">
        <ele>909.79998779296875</ele>
        <time>2026-08-21T20:10:55.000Z</time>
        <extensions>
          <ns3:TrackPointExtension>
            <ns3:hr>116</ns3:hr>
            <ns3:cad>50</ns3:cad>
          </ns3:TrackPointExtension>
        </extensions>
      </trkpt>
      <trkpt lat="45.33344216644763946533203125" lon="-71.01226276718080043792724609375">
        <ele>909.79998779296875</ele>
        <time>2026-08-21T20:10:56.000Z</time>
        <extensions>
          <ns3:TrackPointExtension>
            <ns3:hr>116</ns3:hr>
            <ns3:cad>50</ns3:cad>
          </ns3:TrackPointExtension>
        </extensions>
      </trkpt>
      <trkpt lat="45.3334352932870388031005859375" lon="-71.0122512839734554290771484375">
        <ele>909.79998779296875</ele>
        <time>2026-08-21T20:10:57.000Z</time>
        <extensions>
          <ns3:TrackPointExtension>
            <ns3:hr>117</ns3:hr>
            <ns3:cad>53</ns3:cad>
          </ns3:TrackPointExtension>
        </extensions>
      </trkpt>
      <trkpt lat="45.33342967741191387176513671875" lon="-71.01223879493772983551025390625">
        <ele>909.79998779296875</ele>
        <time>2026-08-21T20:10:58.000Z</time>
        <extensions>
          <ns3:TrackPointExtension>
            <ns3:hr>117</ns3:hr>
            <ns3:cad>53</ns3:cad>
          </ns3:TrackPointExtension>
        </extensions>
      </trkpt>
      <trkpt lat="45.3334272466599941253662109375" lon="-71.01222622208297252655029296875">
        <ele>909.79998779296875</ele>
        <time>2026-08-21T20:10:59.000Z</time>
        <extensions>
          <ns3:TrackPointExtension>
            <ns3:hr>117</ns3:hr>
            <ns3:cad>53</ns3:cad>
          </ns3:TrackPointExtension>
        </extensions>
      </trkpt>
      <trkpt lat="45.33341978676617145538330078125" lon="-71.01221264339983463287353515625">
        <ele>910</ele>
        <time>2026-08-21T20:11:00.000Z</time>
        <extensions>
          <ns3:TrackPointExtension>
            <ns3:hr>116</ns3:hr>
            <ns3:cad>53</ns3:cad>
          </ns3:TrackPointExtension>
        </extensions>
      </trkpt>
      <trkpt lat="45.333412997424602508544921875" lon="-71.01220744661986827850341796875">
        <ele>910</ele>
        <time>2026-08-21T20:11:01.000Z</time>
        <extensions>
          <ns3:TrackPointExtension>
            <ns3:hr>116</ns3:hr>
            <ns3:cad>53</ns3:cad>
          </ns3:TrackPointExtension>
        </extensions>
      </trkpt>
      <trkpt lat="45.33340620808303356170654296875" lon="-71.0121912695467472076416015625">
        <ele>910.20001220703125</ele>
        <time>2026-08-21T20:11:02.000Z</time>
        <extensions>
          <ns3:TrackPointExtension>
            <ns3:hr>116</ns3:hr>
            <ns3:cad>53</ns3:cad>
          </ns3:TrackPointExtension>
        </extensions>
      </trkpt>
      <trkpt lat="45.3334007598459720611572265625" lon="-71.01217676885426044464111328125">
        <ele>910.4000244140625</ele>
        <time>2026-08-21T20:11:03.000Z</time>
        <extensions>
          <ns3:TrackPointExtension>
            <ns3:hr>116</ns3:hr>
            <ns3:cad>51</ns3:cad>
          </ns3:TrackPointExtension>
        </extensions>
      </trkpt>
      <trkpt lat="45.33339790999889373779296875" lon="-71.01216788403689861297607421875">
        <ele>910.4000244140625</ele>
        <time>2026-08-21T20:11:04.000Z</time>
        <extensions>
          <ns3:TrackPointExtension>
            <ns3:hr>116</ns3:hr>
            <ns3:cad>0</ns3:cad>
          </ns3:TrackPointExtension>
        </extensions>
      </trkpt>
      <trkpt lat="45.3333984129130840301513671875" lon="-71.012157239019870758056640625">
        <ele>910.4000244140625</ele>
        <time>2026-08-21T20:11:05.000Z</time>
        <extensions>
          <ns3:TrackPointExtension>
            <ns3:hr>117</ns3:hr>
            <ns3:cad>0</ns3:cad>
          </ns3:TrackPointExtension>
        </extensions>
      </trkpt>
      <trkpt lat="45.33340168185532093048095703125" lon="-71.01214013993740081787109375">
        <ele>910.20001220703125</ele>
        <time>2026-08-21T20:11:06.000Z</time>
        <extensions>
          <ns3:TrackPointExtension>
            <ns3:hr>117</ns3:hr>
            <ns3:cad>0</ns3:cad>
          </ns3:TrackPointExtension>
        </extensions>
      </trkpt>
      <trkpt lat="45.3334031067788600921630859375" lon="-71.01211172528564929962158203125">
        <ele>910</ele>
        <time>2026-08-21T20:11:07.000Z</time>
        <extensions>
          <ns3:TrackPointExtension>
            <ns3:hr>117</ns3:hr>
            <ns3:cad>0</ns3:cad>
          </ns3:TrackPointExtension>
        </extensions>
      </trkpt>
      <trkpt lat="45.3334024362266063690185546875" lon="-71.012086160480976104736328125">
        <ele>909.79998779296875</ele>
        <time>2026-08-21T20:11:08.000Z</time>
        <extensions>
          <ns3:TrackPointExtension>
            <ns3:hr>117</ns3:hr>
            <ns3:cad>0</ns3:cad>
          </ns3:TrackPointExtension>
        </extensions>
      </trkpt>
      <trkpt lat="45.333400927484035491943359375" lon="-71.01206797175109386444091796875">
        <ele>909.5999755859375</ele>
        <time>2026-08-21T20:11:09.000Z</time>
        <extensions>
          <ns3:TrackPointExtension>
            <ns3:hr>118</ns3:hr>
            <ns3:cad>0</ns3:cad>
          </ns3:TrackPointExtension>
        </extensions>
      </trkpt>
      <trkpt lat="45.33340151421725749969482421875" lon="-71.01205028593540191650390625">
        <ele>909.4000244140625</ele>
        <time>2026-08-21T20:11:10.000Z</time>
        <extensions>
          <ns3:TrackPointExtension>
            <ns3:hr>118</ns3:hr>
            <ns3:cad>0</ns3:cad>
          </ns3:TrackPointExtension>
        </extensions>
      </trkpt>
      <trkpt lat="45.33340034075081348419189453125" lon="-71.01203209720551967620849609375">
        <ele>909.4000244140625</ele>
        <time>2026-08-21T20:11:11.000Z</time>
        <extensions>
          <ns3:TrackPointExtension>
            <ns3:hr>118</ns3:hr>
            <ns3:cad>55</ns3:cad>
          </ns3:TrackPointExtension>
        </extensions>
      </trkpt>
      <trkpt lat="45.33340101130306720733642578125" lon="-71.012021787464618682861328125">
        <ele>909.4000244140625</ele>
        <time>2026-08-21T20:11:12.000Z</time>
        <extensions>
          <ns3:TrackPointExtension>
            <ns3:hr>118</ns3:hr>
            <ns3:cad>55</ns3:cad>
          </ns3:TrackPointExtension>
        </extensions>
      </trkpt>
      <trkpt lat="45.33340771682560443878173828125" lon="-71.01201097480952739715576171875">
        <ele>909.5999755859375</ele>
        <time>2026-08-21T20:11:13.000Z</time>
        <extensions>
          <ns3:TrackPointExtension>
            <ns3:hr>118</ns3:hr>
            <ns3:cad>0</ns3:cad>
          </ns3:TrackPointExtension>
        </extensions>
      </trkpt>
      <trkpt lat="45.33341241069138050079345703125" lon="-71.01200125180184841156005859375">
        <ele>909.79998779296875</ele>
        <time>2026-08-21T20:11:14.000Z</time>
        <extensions>
          <ns3:TrackPointExtension>
            <ns3:hr>118</ns3:hr>
            <ns3:cad>0</ns3:cad>
          </ns3:TrackPointExtension>
        </extensions>
      </trkpt>
      <trkpt lat="45.3334106504917144775390625" lon="-71.01198054850101470947265625">
        <ele>910</ele>
        <time>2026-08-21T20:11:15.000Z</time>
        <extensions>
          <ns3:TrackPointExtension>
            <ns3:hr>119</ns3:hr>
            <ns3:cad>0</ns3:cad>
          </ns3:TrackPointExtension>
        </extensions>
      </trkpt>
      <trkpt lat="45.33341073431074619293212890625" lon="-71.0119683109223842620849609375">
        <ele>910.20001220703125</ele>
        <time>2026-08-21T20:11:16.000Z</time>
        <extensions>
          <ns3:TrackPointExtension>
            <ns3:hr>119</ns3:hr>
            <ns3:cad>0</ns3:cad>
          </ns3:TrackPointExtension>
        </extensions>
      </trkpt>
      <trkpt lat="45.33341609872877597808837890625" lon="-71.0119512118399143218994140625">
        <ele>910.4000244140625</ele>
        <time>2026-08-21T20:11:17.000Z</time>
        <extensions>
          <ns3:TrackPointExtension>
            <ns3:hr>120</ns3:hr>
            <ns3:cad>0</ns3:cad>
          </ns3:TrackPointExtension>
        </extensions>
      </trkpt>
      <trkpt lat="45.3334175236523151397705078125" lon="-71.01193360984325408935546875">
        <ele>910.4000244140625</ele>
        <time>2026-08-21T20:11:18.000Z</time>
        <extensions>
          <ns3:TrackPointExtension>
            <ns3:hr>120</ns3:hr>
            <ns3:cad>50</ns3:cad>
          </ns3:TrackPointExtension>
        </extensions>
      </trkpt>
      <trkpt lat="45.333412997424602508544921875" lon="-71.011915840208530426025390625">
        <ele>910.5999755859375</ele>
        <time>2026-08-21T20:11:19.000Z</time>
        <extensions>
          <ns3:TrackPointExtension>
            <ns3:hr>120</ns3:hr>
            <ns3:cad>50</ns3:cad>
          </ns3:TrackPointExtension>
        </extensions>
      </trkpt>
      <trkpt lat="45.3334079682826995849609375" lon="-71.01190620101988315582275390625">
        <ele>910.5999755859375</ele>
        <time>2026-08-21T20:11:20.000Z</time>
        <extensions>
          <ns3:TrackPointExtension>
            <ns3:hr>120</ns3:hr>
            <ns3:cad>57</ns3:cad>
          </ns3:TrackPointExtension>
        </extensions>
      </trkpt>
      <trkpt lat="45.33339631743729114532470703125" lon="-71.01189161650836467742919921875">
        <ele>910.79998779296875</ele>
        <time>2026-08-21T20:11:21.000Z</time>
        <extensions>
          <ns3:TrackPointExtension>
            <ns3:hr>120</ns3:hr>
            <ns3:cad>57</ns3:cad>
          </ns3:TrackPointExtension>
        </extensions>
      </trkpt>
      <trkpt lat="45.33338584005832672119140625" lon="-71.0118784569203853607177734375">
        <ele>911</ele>
        <time>2026-08-21T20:11:22.000Z</time>
        <extensions>
          <ns3:TrackPointExtension>
            <ns3:hr>119</ns3:hr>
            <ns3:cad>57</ns3:cad>
          </ns3:TrackPointExtension>
        </extensions>
      </trkpt>
      <trkpt lat="45.33337175846099853515625" lon="-71.01186119019985198974609375">
        <ele>911.20001220703125</ele>
        <time>2026-08-21T20:11:23.000Z</time>
        <extensions>
          <ns3:TrackPointExtension>
            <ns3:hr>119</ns3:hr>
            <ns3:cad>57</ns3:cad>
          </ns3:TrackPointExtension>
        </extensions>
      </trkpt>
      <trkpt lat="45.33336262218654155731201171875" lon="-71.01185020990669727325439453125">
        <ele>911.20001220703125</ele>
        <time>2026-08-21T20:11:24.000Z</time>
        <extensions>
          <ns3:TrackPointExtension>
            <ns3:hr>118</ns3:hr>
            <ns3:cad>57</ns3:cad>
          </ns3:TrackPointExtension>
        </extensions>
      </trkpt>
      <trkpt lat="45.33336362801492214202880859375" lon="-71.011843420565128326416015625">
        <ele>911</ele>
        <time>2026-08-21T20:11:25.000Z</time>
        <extensions>
          <ns3:TrackPointExtension>
            <ns3:hr>118</ns3:hr>
            <ns3:cad>0</ns3:cad>
          </ns3:TrackPointExtension>
        </extensions>
      </trkpt>
      <trkpt lat="45.33335792832076549530029296875" lon="-71.0118295066058635711669921875">
        <ele>910.79998779296875</ele>
        <time>2026-08-21T20:11:26.000Z</time>
        <extensions>
          <ns3:TrackPointExtension>
            <ns3:hr>119</ns3:hr>
            <ns3:cad>0</ns3:cad>
          </ns3:TrackPointExtension>
        </extensions>
      </trkpt>
      <trkpt lat="45.33334988169372081756591796875" lon="-71.01182204671204090118408203125">
        <ele>910.5999755859375</ele>
        <time>2026-08-21T20:11:27.000Z</time>
        <extensions>
          <ns3:TrackPointExtension>
            <ns3:hr>120</ns3:hr>
            <ns3:cad>0</ns3:cad>
          </ns3:TrackPointExtension>
        </extensions>
      </trkpt>
      <trkpt lat="45.33334502018988132476806640625" lon="-71.0118162631988525390625">
        <ele>910.20001220703125</ele>
        <time>2026-08-21T20:11:28.000Z</time>
        <extensions>
          <ns3:TrackPointExtension>
            <ns3:hr>120</ns3:hr>
            <ns3:cad>0</ns3:cad>
          </ns3:TrackPointExtension>
        </extensions>
      </trkpt>
      <trkpt lat="45.3333414159715175628662109375" lon="-71.01181282661855220794677734375">
        <ele>909.79998779296875</ele>
        <time>2026-08-21T20:11:29.000Z</time>
        <extensions>
          <ns3:TrackPointExtension>
            <ns3:hr>120</ns3:hr>
            <ns3:cad>0</ns3:cad>
          </ns3:TrackPointExtension>
        </extensions>
      </trkpt>
      <trkpt lat="45.33333462662994861602783203125" lon="-71.01179840974509716033935546875">
        <ele>909.5999755859375</ele>
        <time>2026-08-21T20:11:30.000Z</time>
        <extensions>
          <ns3:TrackPointExtension>
            <ns3:hr>122</ns3:hr>
            <ns3:cad>0</ns3:cad>
          </ns3:TrackPointExtension>
        </extensions>
      </trkpt>
      <trkpt lat="45.3333286754786968231201171875" lon="-71.01178583689033985137939453125">
        <ele>909.20001220703125</ele>
        <time>2026-08-21T20:11:31.000Z</time>
        <extensions>
          <ns3:TrackPointExtension>
            <ns3:hr>123</ns3:hr>
            <ns3:cad>0</ns3:cad>
          </ns3:TrackPointExtension>
        </extensions>
      </trkpt>
      <trkpt lat="45.33332691527903079986572265625" lon="-71.01178248412907123565673828125">
        <ele>908.79998779296875</ele>
        <time>2026-08-21T20:11:32.000Z</time>
        <extensions>
          <ns3:TrackPointExtension>
            <ns3:hr>123</ns3:hr>
            <ns3:cad>0</ns3:cad>
          </ns3:TrackPointExtension>
        </extensions>
      </trkpt>
      <trkpt lat="45.33332549035549163818359375" lon="-71.01177938282489776611328125">
        <ele>908.5999755859375</ele>
        <time>2026-08-21T20:11:33.000Z</time>
        <extensions>
          <ns3:TrackPointExtension>
            <ns3:hr>124</ns3:hr>
            <ns3:cad>0</ns3:cad>
          </ns3:TrackPointExtension>
        </extensions>
      </trkpt>
      <trkpt lat="45.33332054503262042999267578125" lon="-71.0117718391120433807373046875">
        <ele>908.20001220703125</ele>
        <time>2026-08-21T20:11:34.000Z</time>
        <extensions>
          <ns3:TrackPointExtension>
            <ns3:hr>124</ns3:hr>
            <ns3:cad>0</ns3:cad>
          </ns3:TrackPointExtension>
        </extensions>
      </trkpt>
      <trkpt lat="45.33331836573779582977294921875" lon="-71.01176798343658447265625">
        <ele>908</ele>
        <time>2026-08-21T20:11:35.000Z</time>
        <extensions>
          <ns3:TrackPointExtension>
            <ns3:hr>124</ns3:hr>
            <ns3:cad>0</ns3:cad>
          </ns3:TrackPointExtension>
        </extensions>
      </trkpt>
      <trkpt lat="45.3333172760903835296630859375" lon="-71.01176194846630096435546875">
        <ele>907.5999755859375</ele>
        <time>2026-08-21T20:11:36.000Z</time>
        <extensions>
          <ns3:TrackPointExtension>
            <ns3:hr>124</ns3:hr>
            <ns3:cad>0</ns3:cad>
          </ns3:TrackPointExtension>
        </extensions>
      </trkpt>
      <trkpt lat="45.33331652171909809112548828125" lon="-71.0117520578205585479736328125">
        <ele>907.4000244140625</ele>
        <time>2026-08-21T20:11:37.000Z</time>
        <extensions>
          <ns3:TrackPointExtension>
            <ns3:hr>124</ns3:hr>
            <ns3:cad>0</ns3:cad>
          </ns3:TrackPointExtension>
        </extensions>
      </trkpt>
      <trkpt lat="45.3333167731761932373046875" lon="-71.01174191571772098541259765625">
        <ele>907</ele>
        <time>2026-08-21T20:11:38.000Z</time>
        <extensions>
          <ns3:TrackPointExtension>
            <ns3:hr>124</ns3:hr>
            <ns3:cad>0</ns3:cad>
          </ns3:TrackPointExtension>
        </extensions>
      </trkpt>
      <trkpt lat="45.33331719227135181427001953125" lon="-71.01173303090035915374755859375">
        <ele>906.5999755859375</ele>
        <time>2026-08-21T20:11:39.000Z</time>
        <extensions>
          <ns3:TrackPointExtension>
            <ns3:hr>124</ns3:hr>
            <ns3:cad>0</ns3:cad>
          </ns3:TrackPointExtension>
        </extensions>
      </trkpt>
      <trkpt lat="45.33331635408103466033935546875" lon="-71.0117222182452678680419921875">
        <ele>906</ele>
        <time>2026-08-21T20:11:40.000Z</time>
        <extensions>
          <ns3:TrackPointExtension>
            <ns3:hr>124</ns3:hr>
            <ns3:cad>40</ns3:cad>
          </ns3:TrackPointExtension>
        </extensions>
      </trkpt>
      <trkpt lat="45.33331769518554210662841796875" lon="-71.01171056739985942840576171875">
        <ele>905.5999755859375</ele>
        <time>2026-08-21T20:11:41.000Z</time>
        <extensions>
          <ns3:TrackPointExtension>
            <ns3:hr>124</ns3:hr>
            <ns3:cad>40</ns3:cad>
          </ns3:TrackPointExtension>
        </extensions>
      </trkpt>
      <trkpt lat="45.333317779004573822021484375" lon="-71.01170185022056102752685546875">
        <ele>905.20001220703125</ele>
        <time>2026-08-21T20:11:42.000Z</time>
        <extensions>
          <ns3:TrackPointExtension>
            <ns3:hr>125</ns3:hr>
            <ns3:cad>0</ns3:cad>
          </ns3:TrackPointExtension>
        </extensions>
      </trkpt>
      <trkpt lat="45.33331685699522495269775390625" lon="-71.01169765926897525787353515625">
        <ele>904.79998779296875</ele>
        <time>2026-08-21T20:11:43.000Z</time>
        <extensions>
          <ns3:TrackPointExtension>
            <ns3:hr>124</ns3:hr>
            <ns3:cad>0</ns3:cad>
          </ns3:TrackPointExtension>
        </extensions>
      </trkpt>
      <trkpt lat="45.33331652171909809112548828125" lon="-71.01168550550937652587890625">
        <ele>904.5999755859375</ele>
        <time>2026-08-21T20:11:44.000Z</time>
        <extensions>
          <ns3:TrackPointExtension>
            <ns3:hr>124</ns3:hr>
            <ns3:cad>0</ns3:cad>
          </ns3:TrackPointExtension>
        </extensions>
      </trkpt>
      <trkpt lat="45.3333122469484806060791015625" lon="-71.01167318411171436309814453125">
        <ele>904.20001220703125</ele>
        <time>2026-08-21T20:11:45.000Z</time>
        <extensions>
          <ns3:TrackPointExtension>
            <ns3:hr>124</ns3:hr>
            <ns3:cad>75</ns3:cad>
          </ns3:TrackPointExtension>
        </extensions>
      </trkpt>
      <trkpt lat="45.33330780453979969024658203125" lon="-71.01166882552206516265869140625">
        <ele>903.79998779296875</ele>
        <time>2026-08-21T20:11:46.000Z</time>
        <extensions>
          <ns3:TrackPointExtension>
            <ns3:hr>124</ns3:hr>
            <ns3:cad>75</ns3:cad>
          </ns3:TrackPointExtension>
        </extensions>
      </trkpt>
      <trkpt lat="45.33330311067402362823486328125" lon="-71.01165859960019588470458984375">
        <ele>903.5999755859375</ele>
        <time>2026-08-21T20:11:47.000Z</time>
        <extensions>
          <ns3:TrackPointExtension>
            <ns3:hr>125</ns3:hr>
            <ns3:cad>40</ns3:cad>
          </ns3:TrackPointExtension>
        </extensions>
      </trkpt>
      <trkpt lat="45.3333011828362941741943359375" lon="-71.01165038533508777618408203125">
        <ele>903.20001220703125</ele>
        <time>2026-08-21T20:11:48.000Z</time>
        <extensions>
          <ns3:TrackPointExtension>
            <ns3:hr>125</ns3:hr>
            <ns3:cad>40</ns3:cad>
          </ns3:TrackPointExtension>
        </extensions>
      </trkpt>
      <trkpt lat="45.33330026082694530487060546875" lon="-71.01164435036480426788330078125">
        <ele>902.79998779296875</ele>
        <time>2026-08-21T20:11:49.000Z</time>
        <extensions>
          <ns3:TrackPointExtension>
            <ns3:hr>125</ns3:hr>
            <ns3:cad>40</ns3:cad>
          </ns3:TrackPointExtension>
        </extensions>
      </trkpt>
      <trkpt lat="45.3333011828362941741943359375" lon="-71.01163387298583984375">
        <ele>902.4000244140625</ele>
        <time>2026-08-21T20:11:50.000Z</time>
        <extensions>
          <ns3:TrackPointExtension>
            <ns3:hr>126</ns3:hr>
            <ns3:cad>0</ns3:cad>
          </ns3:TrackPointExtension>
        </extensions>
      </trkpt>
      <trkpt lat="45.333303026854991912841796875" lon="-71.011620797216892242431640625">
        <ele>902.20001220703125</ele>
        <time>2026-08-21T20:11:51.000Z</time>
        <extensions>
          <ns3:TrackPointExtension>
            <ns3:hr>126</ns3:hr>
            <ns3:cad>0</ns3:cad>
          </ns3:TrackPointExtension>
        </extensions>
      </trkpt>
      <trkpt lat="45.3333005122840404510498046875" lon="-71.0116156004369258880615234375">
        <ele>901.79998779296875</ele>
        <time>2026-08-21T20:11:52.000Z</time>
        <extensions>
          <ns3:TrackPointExtension>
            <ns3:hr>126</ns3:hr>
            <ns3:cad>0</ns3:cad>
          </ns3:TrackPointExtension>
        </extensions>
      </trkpt>
      <trkpt lat="45.333301015198230743408203125" lon="-71.01160830818116664886474609375">
        <ele>901.5999755859375</ele>
        <time>2026-08-21T20:11:53.000Z</time>
        <extensions>
          <ns3:TrackPointExtension>
            <ns3:hr>126</ns3:hr>
            <ns3:cad>0</ns3:cad>
          </ns3:TrackPointExtension>
        </extensions>
      </trkpt>
      <trkpt lat="45.3333038650453090667724609375" lon="-71.01159573532640933990478515625">
        <ele>901.4000244140625</ele>
        <time>2026-08-21T20:11:54.000Z</time>
        <extensions>
          <ns3:TrackPointExtension>
            <ns3:hr>126</ns3:hr>
            <ns3:cad>0</ns3:cad>
          </ns3:TrackPointExtension>
        </extensions>
      </trkpt>
      <trkpt lat="45.33330311067402362823486328125" lon="-71.0115840844810009002685546875">
        <ele>901</ele>
        <time>2026-08-21T20:11:55.000Z</time>
        <extensions>
          <ns3:TrackPointExtension>
            <ns3:hr>126</ns3:hr>
            <ns3:cad>0</ns3:cad>
          </ns3:TrackPointExtension>
        </extensions>
      </trkpt>
      <trkpt lat="45.3333008475601673126220703125" lon="-71.01156773976981639862060546875">
        <ele>900.5999755859375</ele>
        <time>2026-08-21T20:11:56.000Z</time>
        <extensions>
          <ns3:TrackPointExtension>
            <ns3:hr>126</ns3:hr>
            <ns3:cad>0</ns3:cad>
          </ns3:TrackPointExtension>
        </extensions>
      </trkpt>
      <trkpt lat="45.33329875208437442779541015625" lon="-71.01155198179185390472412109375">
        <ele>900.20001220703125</ele>
        <time>2026-08-21T20:11:57.000Z</time>
        <extensions>
          <ns3:TrackPointExtension>
            <ns3:hr>126</ns3:hr>
            <ns3:cad>0</ns3:cad>
          </ns3:TrackPointExtension>
        </extensions>
      </trkpt>
      <trkpt lat="45.33329808153212070465087890625" lon="-71.011544354259967803955078125">
        <ele>899.79998779296875</ele>
        <time>2026-08-21T20:11:58.000Z</time>
        <extensions>
          <ns3:TrackPointExtension>
            <ns3:hr>126</ns3:hr>
            <ns3:cad>0</ns3:cad>
          </ns3:TrackPointExtension>
        </extensions>
      </trkpt>
      <trkpt lat="45.33329590223729610443115234375" lon="-71.0115277580916881561279296875">
        <ele>899.5999755859375</ele>
        <time>2026-08-21T20:11:59.000Z</time>
        <extensions>
          <ns3:TrackPointExtension>
            <ns3:hr>125</ns3:hr>
            <ns3:cad>0</ns3:cad>
          </ns3:TrackPointExtension>
        </extensions>
      </trkpt>
      <trkpt lat="45.3332938067615032196044921875" lon="-71.0115113295614719390869140625">
        <ele>899.20001220703125</ele>
        <time>2026-08-21T20:12:00.000Z</time>
        <extensions>
          <ns3:TrackPointExtension>
            <ns3:hr>124</ns3:hr>
            <ns3:cad>56</ns3:cad>
          </ns3:TrackPointExtension>
        </extensions>
      </trkpt>
      <trkpt lat="45.33329305239021778106689453125" lon="-71.01149247027933597564697265625">
        <ele>899</ele>
        <time>2026-08-21T20:12:01.000Z</time>
        <extensions>
          <ns3:TrackPointExtension>
            <ns3:hr>124</ns3:hr>
            <ns3:cad>56</ns3:cad>
          </ns3:TrackPointExtension>
        </extensions>
      </trkpt>
      <trkpt lat="45.3332928009331226348876953125" lon="-71.0114704258739948272705078125">
        <ele>898.5999755859375</ele>
        <time>2026-08-21T20:12:02.000Z</time>
        <extensions>
          <ns3:TrackPointExtension>
            <ns3:hr>123</ns3:hr>
            <ns3:cad>56</ns3:cad>
          </ns3:TrackPointExtension>
        </extensions>
      </trkpt>
      <trkpt lat="45.33329087309539318084716796875" lon="-71.01144737564027309417724609375">
        <ele>898.4000244140625</ele>
        <time>2026-08-21T20:12:03.000Z</time>
        <extensions>
          <ns3:TrackPointExtension>
            <ns3:hr>123</ns3:hr>
            <ns3:cad>56</ns3:cad>
          </ns3:TrackPointExtension>
        </extensions>
      </trkpt>
      <trkpt lat="45.33327989280223846435546875" lon="-71.01142801344394683837890625">
        <ele>898.4000244140625</ele>
        <time>2026-08-21T20:12:04.000Z</time>
        <extensions>
          <ns3:TrackPointExtension>
            <ns3:hr>122</ns3:hr>
            <ns3:cad>56</ns3:cad>
          </ns3:TrackPointExtension>
        </extensions>
      </trkpt>
      <trkpt lat="45.33326379954814910888671875" lon="-71.0114261694252490997314453125">
        <ele>898.5999755859375</ele>
        <time>2026-08-21T20:12:05.000Z</time>
        <extensions>
          <ns3:TrackPointExtension>
            <ns3:hr>122</ns3:hr>
            <ns3:cad>56</ns3:cad>
          </ns3:TrackPointExtension>
        </extensions>
      </trkpt>
      <trkpt lat="45.3332565911114215850830078125" lon="-71.0114285163581371307373046875">
        <ele>898.79998779296875</ele>
        <time>2026-08-21T20:12:06.000Z</time>
        <extensions>
          <ns3:TrackPointExtension>
            <ns3:hr>122</ns3:hr>
            <ns3:cad>56</ns3:cad>
          </ns3:TrackPointExtension>
        </extensions>
      </trkpt>
      <trkpt lat="45.3332431800663471221923828125" lon="-71.0114251635968685150146484375">
        <ele>899</ele>
        <time>2026-08-21T20:12:07.000Z</time>
        <extensions>
          <ns3:TrackPointExtension>
            <ns3:hr>122</ns3:hr>
            <ns3:cad>0</ns3:cad>
          </ns3:TrackPointExtension>
        </extensions>
      </trkpt>
      <trkpt lat="45.33323337323963642120361328125" lon="-71.0114197991788387298583984375">
        <ele>899.20001220703125</ele>
        <time>2026-08-21T20:12:08.000Z</time>
        <extensions>
          <ns3:TrackPointExtension>
            <ns3:hr>121</ns3:hr>
            <ns3:cad>0</ns3:cad>
          </ns3:TrackPointExtension>
        </extensions>
      </trkpt>
      <trkpt lat="45.33322432078421115875244140625" lon="-71.011416278779506683349609375">
        <ele>899.20001220703125</ele>
        <time>2026-08-21T20:12:09.000Z</time>
        <extensions>
          <ns3:TrackPointExtension>
            <ns3:hr>121</ns3:hr>
            <ns3:cad>0</ns3:cad>
          </ns3:TrackPointExtension>
        </extensions>
      </trkpt>
      <trkpt lat="45.33321694470942020416259765625" lon="-71.0114140994846820831298828125">
        <ele>899</ele>
        <time>2026-08-21T20:12:10.000Z</time>
        <extensions>
          <ns3:TrackPointExtension>
            <ns3:hr>120</ns3:hr>
            <ns3:cad>0</ns3:cad>
          </ns3:TrackPointExtension>
        </extensions>
      </trkpt>
      <trkpt lat="45.333207808434963226318359375" lon="-71.01140513084828853607177734375">
        <ele>898.5999755859375</ele>
        <time>2026-08-21T20:12:11.000Z</time>
        <extensions>
          <ns3:TrackPointExtension>
            <ns3:hr>120</ns3:hr>
            <ns3:cad>0</ns3:cad>
          </ns3:TrackPointExtension>
        </extensions>
      </trkpt>
      <trkpt lat="45.333198420703411102294921875" lon="-71.011399514973163604736328125">
        <ele>898.20001220703125</ele>
        <time>2026-08-21T20:12:12.000Z</time>
        <extensions>
          <ns3:TrackPointExtension>
            <ns3:hr>120</ns3:hr>
            <ns3:cad>0</ns3:cad>
          </ns3:TrackPointExtension>
        </extensions>
      </trkpt>
      <trkpt lat="45.33318777568638324737548828125" lon="-71.0114030353724956512451171875">
        <ele>897.79998779296875</ele>
        <time>2026-08-21T20:12:13.000Z</time>
        <extensions>
          <ns3:TrackPointExtension>
            <ns3:hr>120</ns3:hr>
            <ns3:cad>0</ns3:cad>
          </ns3:TrackPointExtension>
        </extensions>
      </trkpt>
      <trkpt lat="45.3331791423261165618896484375" lon="-71.011405885219573974609375">
        <ele>897.4000244140625</ele>
        <time>2026-08-21T20:12:14.000Z</time>
        <extensions>
          <ns3:TrackPointExtension>
            <ns3:hr>120</ns3:hr>
            <ns3:cad>0</ns3:cad>
          </ns3:TrackPointExtension>
        </extensions>
      </trkpt>
      <trkpt lat="45.3331670723855495452880859375" lon="-71.0114073939621448516845703125">
        <ele>897</ele>
        <time>2026-08-21T20:12:15.000Z</time>
        <extensions>
          <ns3:TrackPointExtension>
            <ns3:hr>119</ns3:hr>
            <ns3:cad>0</ns3:cad>
          </ns3:TrackPointExtension>
        </extensions>
      </trkpt>
      <trkpt lat="45.33315860666334629058837890625" lon="-71.01140177808701992034912109375">
        <ele>896.5999755859375</ele>
        <time>2026-08-21T20:12:16.000Z</time>
        <extensions>
          <ns3:TrackPointExtension>
            <ns3:hr>120</ns3:hr>
            <ns3:cad>0</ns3:cad>
          </ns3:TrackPointExtension>
        </extensions>
      </trkpt>
      <trkpt lat="45.333159528672695159912109375" lon="-71.01138669066131114959716796875">
        <ele>896.20001220703125</ele>
        <time>2026-08-21T20:12:17.000Z</time>
        <extensions>
          <ns3:TrackPointExtension>
            <ns3:hr>120</ns3:hr>
            <ns3:cad>0</ns3:cad>
          </ns3:TrackPointExtension>
        </extensions>
      </trkpt>
      <trkpt lat="45.33316229470074176788330078125" lon="-71.01137327961623668670654296875">
        <ele>895.79998779296875</ele>
        <time>2026-08-21T20:12:18.000Z</time>
        <extensions>
          <ns3:TrackPointExtension>
            <ns3:hr>121</ns3:hr>
            <ns3:cad>0</ns3:cad>
          </ns3:TrackPointExtension>
        </extensions>
      </trkpt>
      <trkpt lat="45.33316631801426410675048828125" lon="-71.0113591141998767852783203125">
        <ele>895.4000244140625</ele>
        <time>2026-08-21T20:12:19.000Z</time>
        <extensions>
          <ns3:TrackPointExtension>
            <ns3:hr>122</ns3:hr>
            <ns3:cad>0</ns3:cad>
          </ns3:TrackPointExtension>
        </extensions>
      </trkpt>
      <trkpt lat="45.3331680782139301300048828125" lon="-71.0113413445651531219482421875">
        <ele>894.79998779296875</ele>
        <time>2026-08-21T20:12:20.000Z</time>
        <extensions>
          <ns3:TrackPointExtension>
            <ns3:hr>123</ns3:hr>
            <ns3:cad>0</ns3:cad>
          </ns3:TrackPointExtension>
        </extensions>
      </trkpt>
      <trkpt lat="45.3331665694713592529296875" lon="-71.0113322921097278594970703125">
        <ele>894.4000244140625</ele>
        <time>2026-08-21T20:12:21.000Z</time>
        <extensions>
          <ns3:TrackPointExtension>
            <ns3:hr>123</ns3:hr>
            <ns3:cad>40</ns3:cad>
          </ns3:TrackPointExtension>
        </extensions>
      </trkpt>
      <trkpt lat="45.33316514454782009124755859375" lon="-71.0113118402659893035888671875">
        <ele>894</ele>
        <time>2026-08-21T20:12:22.000Z</time>
        <extensions>
          <ns3:TrackPointExtension>
            <ns3:hr>124</ns3:hr>
            <ns3:cad>40</ns3:cad>
          </ns3:TrackPointExtension>
        </extensions>
      </trkpt>
      <trkpt lat="45.3331643901765346527099609375" lon="-71.01129566319286823272705078125">
        <ele>893.4000244140625</ele>
        <time>2026-08-21T20:12:23.000Z</time>
        <extensions>
          <ns3:TrackPointExtension>
            <ns3:hr>124</ns3:hr>
            <ns3:cad>40</ns3:cad>
          </ns3:TrackPointExtension>
        </extensions>
      </trkpt>
      <trkpt lat="45.3331657312810420989990234375" lon="-71.01127655245363712310791015625">
        <ele>893</ele>
        <time>2026-08-21T20:12:24.000Z</time>
        <extensions>
          <ns3:TrackPointExtension>
            <ns3:hr>124</ns3:hr>
            <ns3:cad>40</ns3:cad>
          </ns3:TrackPointExtension>
        </extensions>
      </trkpt>
      <trkpt lat="45.33316698856651782989501953125" lon="-71.0112623870372772216796875">
        <ele>892.79998779296875</ele>
        <time>2026-08-21T20:12:25.000Z</time>
        <extensions>
          <ns3:TrackPointExtension>
            <ns3:hr>124</ns3:hr>
            <ns3:cad>40</ns3:cad>
          </ns3:TrackPointExtension>
        </extensions>
      </trkpt>
      <trkpt lat="45.33316413871943950653076171875" lon="-71.01124436594545841217041015625">
        <ele>892.4000244140625</ele>
        <time>2026-08-21T20:12:26.000Z</time>
        <extensions>
          <ns3:TrackPointExtension>
            <ns3:hr>124</ns3:hr>
            <ns3:cad>40</ns3:cad>
          </ns3:TrackPointExtension>
        </extensions>
      </trkpt>
      <trkpt lat="45.33316313289105892181396484375" lon="-71.0112221539020538330078125">
        <ele>892</ele>
        <time>2026-08-21T20:12:27.000Z</time>
        <extensions>
          <ns3:TrackPointExtension>
            <ns3:hr>125</ns3:hr>
            <ns3:cad>40</ns3:cad>
          </ns3:TrackPointExtension>
        </extensions>
      </trkpt>
      <trkpt lat="45.3331657312810420989990234375" lon="-71.0112032108008861541748046875">
        <ele>891.5999755859375</ele>
        <time>2026-08-21T20:12:28.000Z</time>
        <extensions>
          <ns3:TrackPointExtension>
            <ns3:hr>126</ns3:hr>
            <ns3:cad>40</ns3:cad>
          </ns3:TrackPointExtension>
        </extensions>
      </trkpt>
      <trkpt lat="45.33317302353680133819580078125" lon="-71.01118301041424274444580078125">
        <ele>891.4000244140625</ele>
        <time>2026-08-21T20:12:29.000Z</time>
        <extensions>
          <ns3:TrackPointExtension>
            <ns3:hr>126</ns3:hr>
            <ns3:cad>40</ns3:cad>
          </ns3:TrackPointExtension>
        </extensions>
      </trkpt>
      <trkpt lat="45.33318065106868743896484375" lon="-71.0111710242927074432373046875">
        <ele>891.20001220703125</ele>
        <time>2026-08-21T20:12:30.000Z</time>
        <extensions>
          <ns3:TrackPointExtension>
            <ns3:hr>126</ns3:hr>
            <ns3:cad>40</ns3:cad>
          </ns3:TrackPointExtension>
        </extensions>
      </trkpt>
      <trkpt lat="45.33318794332444667816162109375" lon="-71.0111577808856964111328125">
        <ele>891</ele>
        <time>2026-08-21T20:12:31.000Z</time>
        <extensions>
          <ns3:TrackPointExtension>
            <ns3:hr>126</ns3:hr>
            <ns3:cad>72</ns3:cad>
          </ns3:TrackPointExtension>
        </extensions>
      </trkpt>
      <trkpt lat="45.33319666050374507904052734375" lon="-71.01113674230873584747314453125">
        <ele>891</ele>
        <time>2026-08-21T20:12:32.000Z</time>
        <extensions>
          <ns3:TrackPointExtension>
            <ns3:hr>126</ns3:hr>
            <ns3:cad>72</ns3:cad>
          </ns3:TrackPointExtension>
        </extensions>
      </trkpt>
      <trkpt lat="45.33320453949272632598876953125" lon="-71.01111746393144130706787109375">
        <ele>891.20001220703125</ele>
        <time>2026-08-21T20:12:33.000Z</time>
        <extensions>
          <ns3:TrackPointExtension>
            <ns3:hr>126</ns3:hr>
            <ns3:cad>74</ns3:cad>
          </ns3:TrackPointExtension>
        </extensions>
      </trkpt>
      <trkpt lat="45.33321040682494640350341796875" lon="-71.01109533570706844329833984375">
        <ele>891.20001220703125</ele>
        <time>2026-08-21T20:12:34.000Z</time>
        <extensions>
          <ns3:TrackPointExtension>
            <ns3:hr>122</ns3:hr>
            <ns3:cad>74</ns3:cad>
          </ns3:TrackPointExtension>
        </extensions>
      </trkpt>
      <trkpt lat="45.33321141265332698822021484375" lon="-71.011070273816585540771484375">
        <ele>891.20001220703125</ele>
        <time>2026-08-21T20:12:35.000Z</time>
        <extensions>
          <ns3:TrackPointExtension>
            <ns3:hr>122</ns3:hr>
            <ns3:cad>74</ns3:cad>
          </ns3:TrackPointExtension>
        </extensions>
      </trkpt>
      <trkpt lat="45.33321660943329334259033203125" lon="-71.01105225272476673126220703125">
        <ele>891.20001220703125</ele>
        <time>2026-08-21T20:12:36.000Z</time>
        <extensions>
          <ns3:TrackPointExtension>
            <ns3:hr>122</ns3:hr>
            <ns3:cad>73</ns3:cad>
          </ns3:TrackPointExtension>
        </extensions>
      </trkpt>
      <trkpt lat="45.3332269191741943359375" lon="-71.0110335610806941986083984375">
        <ele>891.20001220703125</ele>
        <time>2026-08-21T20:12:37.000Z</time>
        <extensions>
          <ns3:TrackPointExtension>
            <ns3:hr>122</ns3:hr>
            <ns3:cad>73</ns3:cad>
          </ns3:TrackPointExtension>
        </extensions>
      </trkpt>
      <trkpt lat="45.3332404978573322296142578125" lon="-71.0110156238079071044921875">
        <ele>891.20001220703125</ele>
        <time>2026-08-21T20:12:38.000Z</time>
        <extensions>
          <ns3:TrackPointExtension>
            <ns3:hr>122</ns3:hr>
            <ns3:cad>74</ns3:cad>
          </ns3:TrackPointExtension>
        </extensions>
      </trkpt>
      <trkpt lat="45.3332483768463134765625" lon="-71.0109899751842021942138671875">
        <ele>891.20001220703125</ele>
        <time>2026-08-21T20:12:39.000Z</time>
        <extensions>
          <ns3:TrackPointExtension>
            <ns3:hr>121</ns3:hr>
            <ns3:cad>74</ns3:cad>
          </ns3:TrackPointExtension>
        </extensions>
      </trkpt>
      <trkpt lat="45.3332565911114215850830078125" lon="-71.01096122525632381439208984375">
        <ele>891.20001220703125</ele>
        <time>2026-08-21T20:12:40.000Z</time>
        <extensions>
          <ns3:TrackPointExtension>
            <ns3:hr>122</ns3:hr>
            <ns3:cad>74</ns3:cad>
          </ns3:TrackPointExtension>
        </extensions>
      </trkpt>
      <trkpt lat="45.3332684934139251708984375" lon="-71.0109413601458072662353515625">
        <ele>891.20001220703125</ele>
        <time>2026-08-21T20:12:41.000Z</time>
        <extensions>
          <ns3:TrackPointExtension>
            <ns3:hr>122</ns3:hr>
            <ns3:cad>70</ns3:cad>
          </ns3:TrackPointExtension>
        </extensions>
      </trkpt>
      <trkpt lat="45.333280228078365325927734375" lon="-71.01092903874814510345458984375">
        <ele>891</ele>
        <time>2026-08-21T20:12:42.000Z</time>
        <extensions>
          <ns3:TrackPointExtension>
            <ns3:hr>122</ns3:hr>
            <ns3:cad>70</ns3:cad>
          </ns3:TrackPointExtension>
        </extensions>
      </trkpt>
      <trkpt lat="45.33328886143863201141357421875" lon="-71.010910011827945709228515625">
        <ele>891</ele>
        <time>2026-08-21T20:12:43.000Z</time>
        <extensions>
          <ns3:TrackPointExtension>
            <ns3:hr>122</ns3:hr>
            <ns3:cad>70</ns3:cad>
          </ns3:TrackPointExtension>
        </extensions>
      </trkpt>
      <trkpt lat="45.33329992555081844329833984375" lon="-71.01088981144130229949951171875">
        <ele>890.79998779296875</ele>
        <time>2026-08-21T20:12:44.000Z</time>
        <extensions>
          <ns3:TrackPointExtension>
            <ns3:hr>123</ns3:hr>
            <ns3:cad>70</ns3:cad>
          </ns3:TrackPointExtension>
        </extensions>
      </trkpt>
      <trkpt lat="45.33330629579722881317138671875" lon="-71.01087656803429126739501953125">
        <ele>890.79998779296875</ele>
        <time>2026-08-21T20:12:45.000Z</time>
        <extensions>
          <ns3:TrackPointExtension>
            <ns3:hr>123</ns3:hr>
            <ns3:cad>70</ns3:cad>
          </ns3:TrackPointExtension>
        </extensions>
      </trkpt>
      <trkpt lat="45.33331300131976604461669921875" lon="-71.01085980422794818878173828125">
        <ele>890.5999755859375</ele>
        <time>2026-08-21T20:12:46.000Z</time>
        <extensions>
          <ns3:TrackPointExtension>
            <ns3:hr>123</ns3:hr>
            <ns3:cad>70</ns3:cad>
          </ns3:TrackPointExtension>
        </extensions>
      </trkpt>
      <trkpt lat="45.33331886865198612213134765625" lon="-71.010841615498065948486328125">
        <ele>890.5999755859375</ele>
        <time>2026-08-21T20:12:47.000Z</time>
        <extensions>
          <ns3:TrackPointExtension>
            <ns3:hr>122</ns3:hr>
            <ns3:cad>70</ns3:cad>
          </ns3:TrackPointExtension>
        </extensions>
      </trkpt>
      <trkpt lat="45.333327837288379669189453125" lon="-71.010820157825946807861328125">
        <ele>890.4000244140625</ele>
        <time>2026-08-21T20:12:48.000Z</time>
        <extensions>
          <ns3:TrackPointExtension>
            <ns3:hr>123</ns3:hr>
            <ns3:cad>70</ns3:cad>
          </ns3:TrackPointExtension>
        </extensions>
      </trkpt>
      <trkpt lat="45.33333647064864635467529296875" lon="-71.0107965208590030670166015625">
        <ele>890.20001220703125</ele>
        <time>2026-08-21T20:12:49.000Z</time>
        <extensions>
          <ns3:TrackPointExtension>
            <ns3:hr>122</ns3:hr>
            <ns3:cad>70</ns3:cad>
          </ns3:TrackPointExtension>
        </extensions>
      </trkpt>
      <trkpt lat="45.33334552310407161712646484375" lon="-71.01077715866267681121826171875">
        <ele>890</ele>
        <time>2026-08-21T20:12:50.000Z</time>
        <extensions>
          <ns3:TrackPointExtension>
            <ns3:hr>122</ns3:hr>
            <ns3:cad>70</ns3:cad>
          </ns3:TrackPointExtension>
        </extensions>
      </trkpt>
      <trkpt lat="45.33335709013044834136962890625" lon="-71.0107586346566677093505859375">
        <ele>890</ele>
        <time>2026-08-21T20:12:51.000Z</time>
        <extensions>
          <ns3:TrackPointExtension>
            <ns3:hr>122</ns3:hr>
            <ns3:cad>70</ns3:cad>
          </ns3:TrackPointExtension>
        </extensions>
      </trkpt>
      <trkpt lat="45.3333668969571590423583984375" lon="-71.01073801517486572265625">
        <ele>890</ele>
        <time>2026-08-21T20:12:52.000Z</time>
        <extensions>
          <ns3:TrackPointExtension>
            <ns3:hr>123</ns3:hr>
            <ns3:cad>70</ns3:cad>
          </ns3:TrackPointExtension>
        </extensions>
      </trkpt>
      <trkpt lat="45.33337284810841083526611328125" lon="-71.010719574987888336181640625">
        <ele>890</ele>
        <time>2026-08-21T20:12:53.000Z</time>
        <extensions>
          <ns3:TrackPointExtension>
            <ns3:hr>122</ns3:hr>
            <ns3:cad>70</ns3:cad>
          </ns3:TrackPointExtension>
        </extensions>
      </trkpt>
      <trkpt lat="45.3333712555468082427978515625" lon="-71.0106925852596759796142578125">
        <ele>890</ele>
        <time>2026-08-21T20:12:54.000Z</time>
        <extensions>
          <ns3:TrackPointExtension>
            <ns3:hr>123</ns3:hr>
            <ns3:cad>70</ns3:cad>
          </ns3:TrackPointExtension>
        </extensions>
      </trkpt>
      <trkpt lat="45.33336346037685871124267578125" lon="-71.01067489944398403167724609375">
        <ele>890</ele>
        <time>2026-08-21T20:12:55.000Z</time>
        <extensions>
          <ns3:TrackPointExtension>
            <ns3:hr>123</ns3:hr>
            <ns3:cad>70</ns3:cad>
          </ns3:TrackPointExtension>
        </extensions>
      </trkpt>
      <trkpt lat="45.3333528153598308563232421875" lon="-71.01065478287637233734130859375">
        <ele>889.79998779296875</ele>
        <time>2026-08-21T20:12:56.000Z</time>
        <extensions>
          <ns3:TrackPointExtension>
            <ns3:hr>124</ns3:hr>
            <ns3:cad>70</ns3:cad>
          </ns3:TrackPointExtension>
        </extensions>
      </trkpt>
      <trkpt lat="45.333347283303737640380859375" lon="-71.01063667796552181243896484375">
        <ele>889.79998779296875</ele>
        <time>2026-08-21T20:12:57.000Z</time>
        <extensions>
          <ns3:TrackPointExtension>
            <ns3:hr>124</ns3:hr>
            <ns3:cad>70</ns3:cad>
          </ns3:TrackPointExtension>
        </extensions>
      </trkpt>
      <trkpt lat="45.333349965512752532958984375" lon="-71.0106188245117664337158203125">
        <ele>889.79998779296875</ele>
        <time>2026-08-21T20:12:58.000Z</time>
        <extensions>
          <ns3:TrackPointExtension>
            <ns3:hr>124</ns3:hr>
            <ns3:cad>70</ns3:cad>
          </ns3:TrackPointExtension>
        </extensions>
      </trkpt>
      <trkpt lat="45.3333588503301143646240234375" lon="-71.010601222515106201171875">
        <ele>889.5999755859375</ele>
        <time>2026-08-21T20:12:59.000Z</time>
        <extensions>
          <ns3:TrackPointExtension>
            <ns3:hr>124</ns3:hr>
            <ns3:cad>70</ns3:cad>
          </ns3:TrackPointExtension>
        </extensions>
      </trkpt>
      <trkpt lat="45.33336698077619075775146484375" lon="-71.01058487780392169952392578125">
        <ele>889.4000244140625</ele>
        <time>2026-08-21T20:13:00.000Z</time>
        <extensions>
          <ns3:TrackPointExtension>
            <ns3:hr>124</ns3:hr>
            <ns3:cad>70</ns3:cad>
          </ns3:TrackPointExtension>
        </extensions>
      </trkpt>
      <trkpt lat="45.33337335102260112762451171875" lon="-71.0105730593204498291015625">
        <ele>889.4000244140625</ele>
        <time>2026-08-21T20:13:01.000Z</time>
        <extensions>
          <ns3:TrackPointExtension>
            <ns3:hr>124</ns3:hr>
            <ns3:cad>70</ns3:cad>
          </ns3:TrackPointExtension>
        </extensions>
      </trkpt>
      <trkpt lat="45.3333772905170917510986328125" lon="-71.01056442596018314361572265625">
        <ele>889.4000244140625</ele>
        <time>2026-08-21T20:13:02.000Z</time>
        <extensions>
          <ns3:TrackPointExtension>
            <ns3:hr>124</ns3:hr>
            <ns3:cad>70</ns3:cad>
          </ns3:TrackPointExtension>
        </extensions>
      </trkpt>
      <trkpt lat="45.33337838016450405120849609375" lon="-71.01055453531444072723388671875">
        <ele>889.4000244140625</ele>
        <time>2026-08-21T20:13:03.000Z</time>
        <extensions>
          <ns3:TrackPointExtension>
            <ns3:hr>125</ns3:hr>
            <ns3:cad>0</ns3:cad>
          </ns3:TrackPointExtension>
        </extensions>
      </trkpt>
      <trkpt lat="45.33337779343128204345703125" lon="-71.010547913610935211181640625">
        <ele>889.20001220703125</ele>
        <time>2026-08-21T20:13:04.000Z</time>
        <extensions>
          <ns3:TrackPointExtension>
            <ns3:hr>125</ns3:hr>
            <ns3:cad>0</ns3:cad>
          </ns3:TrackPointExtension>
        </extensions>
      </trkpt>
      <trkpt lat="45.3333823196589946746826171875" lon="-71.0105370171368122100830078125">
        <ele>889</ele>
        <time>2026-08-21T20:13:05.000Z</time>
        <extensions>
          <ns3:TrackPointExtension>
            <ns3:hr>125</ns3:hr>
            <ns3:cad>55</ns3:cad>
          </ns3:TrackPointExtension>
        </extensions>
      </trkpt>
      <trkpt lat="45.33338743261992931365966796875" lon="-71.0105232708156108856201171875">
        <ele>888.79998779296875</ele>
        <time>2026-08-21T20:13:06.000Z</time>
        <extensions>
          <ns3:TrackPointExtension>
            <ns3:hr>125</ns3:hr>
            <ns3:cad>0</ns3:cad>
          </ns3:TrackPointExtension>
        </extensions>
      </trkpt>
      <trkpt lat="45.3333930484950542449951171875" lon="-71.01050893776118755340576171875">
        <ele>888.4000244140625</ele>
        <time>2026-08-21T20:13:07.000Z</time>
        <extensions>
          <ns3:TrackPointExtension>
            <ns3:hr>125</ns3:hr>
            <ns3:cad>0</ns3:cad>
          </ns3:TrackPointExtension>
        </extensions>
      </trkpt>
      <trkpt lat="45.3334000892937183380126953125" lon="-71.0104941017925739288330078125">
        <ele>888</ele>
        <time>2026-08-21T20:13:08.000Z</time>
        <extensions>
          <ns3:TrackPointExtension>
            <ns3:hr>124</ns3:hr>
            <ns3:cad>0</ns3:cad>
          </ns3:TrackPointExtension>
        </extensions>
      </trkpt>
      <trkpt lat="45.33340788446366786956787109375" lon="-71.01047591306269168853759765625">
        <ele>887.79998779296875</ele>
        <time>2026-08-21T20:13:09.000Z</time>
        <extensions>
          <ns3:TrackPointExtension>
            <ns3:hr>124</ns3:hr>
            <ns3:cad>0</ns3:cad>
          </ns3:TrackPointExtension>
        </extensions>
      </trkpt>
      <trkpt lat="45.33341358415782451629638671875" lon="-71.01046149618923664093017578125">
        <ele>887.5999755859375</ele>
        <time>2026-08-21T20:13:10.000Z</time>
        <extensions>
          <ns3:TrackPointExtension>
            <ns3:hr>124</ns3:hr>
            <ns3:cad>0</ns3:cad>
          </ns3:TrackPointExtension>
        </extensions>
      </trkpt>
      <trkpt lat="45.33341458998620510101318359375" lon="-71.01044230163097381591796875">
        <ele>887.4000244140625</ele>
        <time>2026-08-21T20:13:11.000Z</time>
        <extensions>
          <ns3:TrackPointExtension>
            <ns3:hr>124</ns3:hr>
            <ns3:cad>0</ns3:cad>
          </ns3:TrackPointExtension>
        </extensions>
      </trkpt>
      <trkpt lat="45.33341978676617145538330078125" lon="-71.010427884757518768310546875">
        <ele>887.20001220703125</ele>
        <time>2026-08-21T20:13:12.000Z</time>
        <extensions>
          <ns3:TrackPointExtension>
            <ns3:hr>124</ns3:hr>
            <ns3:cad>0</ns3:cad>
          </ns3:TrackPointExtension>
        </extensions>
      </trkpt>
      <trkpt lat="45.33342431299388408660888671875" lon="-71.010414473712444305419921875">
        <ele>887</ele>
        <time>2026-08-21T20:13:13.000Z</time>
        <extensions>
          <ns3:TrackPointExtension>
            <ns3:hr>124</ns3:hr>
            <ns3:cad>0</ns3:cad>
          </ns3:TrackPointExtension>
        </extensions>
      </trkpt>
      <trkpt lat="45.33342540264129638671875" lon="-71.01040131412446498870849609375">
        <ele>886.79998779296875</ele>
        <time>2026-08-21T20:13:14.000Z</time>
        <extensions>
          <ns3:TrackPointExtension>
            <ns3:hr>124</ns3:hr>
            <ns3:cad>0</ns3:cad>
          </ns3:TrackPointExtension>
        </extensions>
      </trkpt>
      <trkpt lat="45.33342867158353328704833984375" lon="-71.0103893280029296875">
        <ele>886.5999755859375</ele>
        <time>2026-08-21T20:13:15.000Z</time>
        <extensions>
          <ns3:TrackPointExtension>
            <ns3:hr>124</ns3:hr>
            <ns3:cad>0</ns3:cad>
          </ns3:TrackPointExtension>
        </extensions>
      </trkpt>
      <trkpt lat="45.3334346227347850799560546875" lon="-71.01038220338523387908935546875">
        <ele>886.20001220703125</ele>
        <time>2026-08-21T20:13:16.000Z</time>
        <extensions>
          <ns3:TrackPointExtension>
            <ns3:hr>124</ns3:hr>
            <ns3:cad>0</ns3:cad>
          </ns3:TrackPointExtension>
        </extensions>
      </trkpt>
      <trkpt lat="45.333445854485034942626953125" lon="-71.010371558368206024169921875">
        <ele>885.79998779296875</ele>
        <time>2026-08-21T20:13:17.000Z</time>
        <extensions>
          <ns3:TrackPointExtension>
            <ns3:hr>124</ns3:hr>
            <ns3:cad>0</ns3:cad>
          </ns3:TrackPointExtension>
        </extensions>
      </trkpt>
      <trkpt lat="45.33345063216984272003173828125" lon="-71.0103579796850681304931640625">
        <ele>885.5999755859375</ele>
        <time>2026-08-21T20:13:18.000Z</time>
        <extensions>
          <ns3:TrackPointExtension>
            <ns3:hr>124</ns3:hr>
            <ns3:cad>0</ns3:cad>
          </ns3:TrackPointExtension>
        </extensions>
      </trkpt>
      <trkpt lat="45.33344895578920841217041015625" lon="-71.01033945567905902862548828125">
        <ele>885.20001220703125</ele>
        <time>2026-08-21T20:13:19.000Z</time>
        <extensions>
          <ns3:TrackPointExtension>
            <ns3:hr>124</ns3:hr>
            <ns3:cad>0</ns3:cad>
          </ns3:TrackPointExtension>
        </extensions>
      </trkpt>
      <trkpt lat="45.333445183932781219482421875" lon="-71.01032889448106288909912109375">
        <ele>885</ele>
        <time>2026-08-21T20:13:20.000Z</time>
        <extensions>
          <ns3:TrackPointExtension>
            <ns3:hr>123</ns3:hr>
            <ns3:cad>0</ns3:cad>
          </ns3:TrackPointExtension>
        </extensions>
      </trkpt>
      <trkpt lat="45.33344241790473461151123046875" lon="-71.01031464524567127227783203125">
        <ele>884.79998779296875</ele>
        <time>2026-08-21T20:13:21.000Z</time>
        <extensions>
          <ns3:TrackPointExtension>
            <ns3:hr>123</ns3:hr>
            <ns3:cad>0</ns3:cad>
          </ns3:TrackPointExtension>
        </extensions>
      </trkpt>
      <trkpt lat="45.3334379754960536956787109375" lon="-71.0103060118854045867919921875">
        <ele>884.4000244140625</ele>
        <time>2026-08-21T20:13:22.000Z</time>
        <extensions>
          <ns3:TrackPointExtension>
            <ns3:hr>122</ns3:hr>
            <ns3:cad>0</ns3:cad>
          </ns3:TrackPointExtension>
        </extensions>
      </trkpt>
      <trkpt lat="45.333430431783199310302734375" lon="-71.0102929361164569854736328125">
        <ele>884</ele>
        <time>2026-08-21T20:13:23.000Z</time>
        <extensions>
          <ns3:TrackPointExtension>
            <ns3:hr>122</ns3:hr>
            <ns3:cad>0</ns3:cad>
          </ns3:TrackPointExtension>
        </extensions>
      </trkpt>
      <trkpt lat="45.333418361842632293701171875" lon="-71.01028296165168285369873046875">
        <ele>883.5999755859375</ele>
        <time>2026-08-21T20:13:24.000Z</time>
        <extensions>
          <ns3:TrackPointExtension>
            <ns3:hr>122</ns3:hr>
            <ns3:cad>0</ns3:cad>
          </ns3:TrackPointExtension>
        </extensions>
      </trkpt>
      <trkpt lat="45.33340327441692352294921875" lon="-71.010277681052684783935546875">
        <ele>883.20001220703125</ele>
        <time>2026-08-21T20:13:25.000Z</time>
        <extensions>
          <ns3:TrackPointExtension>
            <ns3:hr>122</ns3:hr>
            <ns3:cad>0</ns3:cad>
          </ns3:TrackPointExtension>
        </extensions>
      </trkpt>
      <trkpt lat="45.33338910900056362152099609375" lon="-71.01027734577655792236328125">
        <ele>882.79998779296875</ele>
        <time>2026-08-21T20:13:26.000Z</time>
        <extensions>
          <ns3:TrackPointExtension>
            <ns3:hr>121</ns3:hr>
            <ns3:cad>0</ns3:cad>
          </ns3:TrackPointExtension>
        </extensions>
      </trkpt>
      <trkpt lat="45.33338374458253383636474609375" lon="-71.01027424447238445281982421875">
        <ele>882.4000244140625</ele>
        <time>2026-08-21T20:13:27.000Z</time>
        <extensions>
          <ns3:TrackPointExtension>
            <ns3:hr>121</ns3:hr>
            <ns3:cad>0</ns3:cad>
          </ns3:TrackPointExtension>
        </extensions>
      </trkpt>
      <trkpt lat="45.33338223583996295928955078125" lon="-71.0102698020637035369873046875">
        <ele>882</ele>
        <time>2026-08-21T20:13:28.000Z</time>
        <extensions>
          <ns3:TrackPointExtension>
            <ns3:hr>121</ns3:hr>
            <ns3:cad>0</ns3:cad>
          </ns3:TrackPointExtension>
        </extensions>
      </trkpt>
      <trkpt lat="45.33338072709739208221435546875" lon="-71.01026368327438831329345703125">
        <ele>881.5999755859375</ele>
        <time>2026-08-21T20:13:29.000Z</time>
        <extensions>
          <ns3:TrackPointExtension>
            <ns3:hr>120</ns3:hr>
            <ns3:cad>0</ns3:cad>
          </ns3:TrackPointExtension>
        </extensions>
      </trkpt>
      <trkpt lat="45.3333816491067409515380859375" lon="-71.01026016287505626678466796875">
        <ele>881.4000244140625</ele>
        <time>2026-08-21T20:13:30.000Z</time>
        <extensions>
          <ns3:TrackPointExtension>
            <ns3:hr>120</ns3:hr>
            <ns3:cad>0</ns3:cad>
          </ns3:TrackPointExtension>
        </extensions>
      </trkpt>
      <trkpt lat="45.333375446498394012451171875" lon="-71.01025127805769443511962890625">
        <ele>881</ele>
        <time>2026-08-21T20:13:31.000Z</time>
        <extensions>
          <ns3:TrackPointExtension>
            <ns3:hr>120</ns3:hr>
            <ns3:cad>0</ns3:cad>
          </ns3:TrackPointExtension>
        </extensions>
      </trkpt>
      <trkpt lat="45.333368740975856781005859375" lon="-71.010255552828311920166015625">
        <ele>880.79998779296875</ele>
        <time>2026-08-21T20:13:32.000Z</time>
        <extensions>
          <ns3:TrackPointExtension>
            <ns3:hr>120</ns3:hr>
            <ns3:cad>0</ns3:cad>
          </ns3:TrackPointExtension>
        </extensions>
      </trkpt>
      <trkpt lat="45.3333645500242710113525390625" lon="-71.0102600790560245513916015625">
        <ele>880.4000244140625</ele>
        <time>2026-08-21T20:13:33.000Z</time>
        <extensions>
          <ns3:TrackPointExtension>
            <ns3:hr>120</ns3:hr>
            <ns3:cad>0</ns3:cad>
          </ns3:TrackPointExtension>
        </extensions>
      </trkpt>
      <trkpt lat="45.33336312510073184967041015625" lon="-71.010254211723804473876953125">
        <ele>880</ele>
        <time>2026-08-21T20:13:34.000Z</time>
        <extensions>
          <ns3:TrackPointExtension>
            <ns3:hr>120</ns3:hr>
            <ns3:cad>0</ns3:cad>
          </ns3:TrackPointExtension>
        </extensions>
      </trkpt>
      <trkpt lat="45.33336010761559009552001953125" lon="-71.01024222560226917266845703125">
        <ele>879.5999755859375</ele>
        <time>2026-08-21T20:13:35.000Z</time>
        <extensions>
          <ns3:TrackPointExtension>
            <ns3:hr>120</ns3:hr>
            <ns3:cad>65</ns3:cad>
          </ns3:TrackPointExtension>
        </extensions>
      </trkpt>
      <trkpt lat="45.3333585150539875030517578125" lon="-71.010235436260700225830078125">
        <ele>879.20001220703125</ele>
        <time>2026-08-21T20:13:36.000Z</time>
        <extensions>
          <ns3:TrackPointExtension>
            <ns3:hr>120</ns3:hr>
            <ns3:cad>65</ns3:cad>
          </ns3:TrackPointExtension>
        </extensions>
      </trkpt>
      <trkpt lat="45.3333561681210994720458984375" lon="-71.010228060185909271240234375">
        <ele>878.79998779296875</ele>
        <time>2026-08-21T20:13:37.000Z</time>
        <extensions>
          <ns3:TrackPointExtension>
            <ns3:hr>120</ns3:hr>
            <ns3:cad>65</ns3:cad>
          </ns3:TrackPointExtension>
        </extensions>
      </trkpt>
      <trkpt lat="45.3333524800837039947509765625" lon="-71.01022026501595973968505859375">
        <ele>878.4000244140625</ele>
        <time>2026-08-21T20:13:38.000Z</time>
        <extensions>
          <ns3:TrackPointExtension>
            <ns3:hr>120</ns3:hr>
            <ns3:cad>65</ns3:cad>
          </ns3:TrackPointExtension>
        </extensions>
      </trkpt>
      <trkpt lat="45.33335038460791110992431640625" lon="-71.01021205075085163116455078125">
        <ele>878</ele>
        <time>2026-08-21T20:13:39.000Z</time>
        <extensions>
          <ns3:TrackPointExtension>
            <ns3:hr>120</ns3:hr>
            <ns3:cad>47</ns3:cad>
          </ns3:TrackPointExtension>
        </extensions>
      </trkpt>
      <trkpt lat="45.33334787003695964813232421875" lon="-71.01020266301929950714111328125">
        <ele>877.79998779296875</ele>
        <time>2026-08-21T20:13:40.000Z</time>
        <extensions>
          <ns3:TrackPointExtension>
            <ns3:hr>120</ns3:hr>
            <ns3:cad>47</ns3:cad>
          </ns3:TrackPointExtension>
        </extensions>
      </trkpt>
      <trkpt lat="45.33333429135382175445556640625" lon="-71.01020450703799724578857421875">
        <ele>877.4000244140625</ele>
        <time>2026-08-21T20:13:41.000Z</time>
        <extensions>
          <ns3:TrackPointExtension>
            <ns3:hr>120</ns3:hr>
            <ns3:cad>47</ns3:cad>
          </ns3:TrackPointExtension>
        </extensions>
      </trkpt>
      <trkpt lat="45.33332758583128452301025390625" lon="-71.0102037526667118072509765625">
        <ele>877.20001220703125</ele>
        <time>2026-08-21T20:13:42.000Z</time>
        <extensions>
          <ns3:TrackPointExtension>
            <ns3:hr>119</ns3:hr>
            <ns3:cad>47</ns3:cad>
          </ns3:TrackPointExtension>
        </extensions>
      </trkpt>
      <trkpt lat="45.333315767347812652587890625" lon="-71.01020266301929950714111328125">
        <ele>876.79998779296875</ele>
        <time>2026-08-21T20:13:43.000Z</time>
        <extensions>
          <ns3:TrackPointExtension>
            <ns3:hr>119</ns3:hr>
            <ns3:cad>47</ns3:cad>
          </ns3:TrackPointExtension>
        </extensions>
      </trkpt>
      <trkpt lat="45.33330696634948253631591796875" lon="-71.010199226438999176025390625">
        <ele>876.5999755859375</ele>
        <time>2026-08-21T20:13:44.000Z</time>
        <extensions>
          <ns3:TrackPointExtension>
            <ns3:hr>119</ns3:hr>
            <ns3:cad>0</ns3:cad>
          </ns3:TrackPointExtension>
        </extensions>
      </trkpt>
      <trkpt lat="45.33330093137919902801513671875" lon="-71.0101963765919208526611328125">
        <ele>876.4000244140625</ele>
        <time>2026-08-21T20:13:45.000Z</time>
        <extensions>
          <ns3:TrackPointExtension>
            <ns3:hr>119</ns3:hr>
            <ns3:cad>0</ns3:cad>
          </ns3:TrackPointExtension>
        </extensions>
      </trkpt>
      <trkpt lat="45.33329732716083526611328125" lon="-71.01018656976521015167236328125">
        <ele>876</ele>
        <time>2026-08-21T20:13:46.000Z</time>
        <extensions>
          <ns3:TrackPointExtension>
            <ns3:hr>118</ns3:hr>
            <ns3:cad>0</ns3:cad>
          </ns3:TrackPointExtension>
        </extensions>
      </trkpt>
      <trkpt lat="45.33329254947602748870849609375" lon="-71.0101672075688838958740234375">
        <ele>875.79998779296875</ele>
        <time>2026-08-21T20:13:47.000Z</time>
        <extensions>
          <ns3:TrackPointExtension>
            <ns3:hr>118</ns3:hr>
            <ns3:cad>0</ns3:cad>
          </ns3:TrackPointExtension>
        </extensions>
      </trkpt>
      <trkpt lat="45.33328467048704624176025390625" lon="-71.01015991531312465667724609375">
        <ele>875.5999755859375</ele>
        <time>2026-08-21T20:13:48.000Z</time>
        <extensions>
          <ns3:TrackPointExtension>
            <ns3:hr>117</ns3:hr>
            <ns3:cad>0</ns3:cad>
          </ns3:TrackPointExtension>
        </extensions>
      </trkpt>
      <trkpt lat="45.33327511511743068695068359375" lon="-71.01015673018991947174072265625">
        <ele>875.4000244140625</ele>
        <time>2026-08-21T20:13:49.000Z</time>
        <extensions>
          <ns3:TrackPointExtension>
            <ns3:hr>117</ns3:hr>
            <ns3:cad>0</ns3:cad>
          </ns3:TrackPointExtension>
        </extensions>
      </trkpt>
      <trkpt lat="45.33327184617519378662109375" lon="-71.01015823893249034881591796875">
        <ele>875</ele>
        <time>2026-08-21T20:13:50.000Z</time>
        <extensions>
          <ns3:TrackPointExtension>
            <ns3:hr>116</ns3:hr>
            <ns3:cad>0</ns3:cad>
          </ns3:TrackPointExtension>
        </extensions>
      </trkpt>
      <trkpt lat="45.33326975069940090179443359375" lon="-71.0101574845612049102783203125">
        <ele>874.5999755859375</ele>
        <time>2026-08-21T20:13:51.000Z</time>
        <extensions>
          <ns3:TrackPointExtension>
            <ns3:hr>116</ns3:hr>
            <ns3:cad>0</ns3:cad>
          </ns3:TrackPointExtension>
        </extensions>
      </trkpt>
      <trkpt lat="45.3332716785371303558349609375" lon="-71.01015605963766574859619140625">
        <ele>874.4000244140625</ele>
        <time>2026-08-21T20:13:52.000Z</time>
        <extensions>
          <ns3:TrackPointExtension>
            <ns3:hr>116</ns3:hr>
            <ns3:cad>0</ns3:cad>
          </ns3:TrackPointExtension>
        </extensions>
      </trkpt>
      <trkpt lat="45.3332698345184326171875" lon="-71.01014994084835052490234375">
        <ele>874.20001220703125</ele>
        <time>2026-08-21T20:13:53.000Z</time>
        <extensions>
          <ns3:TrackPointExtension>
            <ns3:hr>116</ns3:hr>
            <ns3:cad>0</ns3:cad>
          </ns3:TrackPointExtension>
        </extensions>
      </trkpt>
      <trkpt lat="45.3332696668803691864013671875" lon="-71.01014365442097187042236328125">
        <ele>873.79998779296875</ele>
        <time>2026-08-21T20:13:54.000Z</time>
        <extensions>
          <ns3:TrackPointExtension>
            <ns3:hr>116</ns3:hr>
            <ns3:cad>0</ns3:cad>
          </ns3:TrackPointExtension>
        </extensions>
      </trkpt>
      <trkpt lat="45.333267487585544586181640625" lon="-71.01012974046170711517333984375">
        <ele>873.79998779296875</ele>
        <time>2026-08-21T20:13:55.000Z</time>
        <extensions>
          <ns3:TrackPointExtension>
            <ns3:hr>116</ns3:hr>
            <ns3:cad>0</ns3:cad>
          </ns3:TrackPointExtension>
        </extensions>
      </trkpt>
      <trkpt lat="45.3332700021564960479736328125" lon="-71.01012580096721649169921875">
        <ele>873.5999755859375</ele>
        <time>2026-08-21T20:13:56.000Z</time>
        <extensions>
          <ns3:TrackPointExtension>
            <ns3:hr>116</ns3:hr>
            <ns3:cad>0</ns3:cad>
          </ns3:TrackPointExtension>
        </extensions>
      </trkpt>
      <trkpt lat="45.3332696668803691864013671875" lon="-71.01011901162564754486083984375">
        <ele>873.20001220703125</ele>
        <time>2026-08-21T20:13:57.000Z</time>
        <extensions>
          <ns3:TrackPointExtension>
            <ns3:hr>116</ns3:hr>
            <ns3:cad>0</ns3:cad>
          </ns3:TrackPointExtension>
        </extensions>
      </trkpt>
      <trkpt lat="45.3332631289958953857421875" lon="-71.01010970771312713623046875">
        <ele>872.79998779296875</ele>
        <time>2026-08-21T20:13:58.000Z</time>
        <extensions>
          <ns3:TrackPointExtension>
            <ns3:hr>116</ns3:hr>
            <ns3:cad>0</ns3:cad>
          </ns3:TrackPointExtension>
        </extensions>
      </trkpt>
      <trkpt lat="45.33325768075883388519287109375" lon="-71.01010107435286045074462890625">
        <ele>872.4000244140625</ele>
        <time>2026-08-21T20:13:59.000Z</time>
        <extensions>
          <ns3:TrackPointExtension>
            <ns3:hr>116</ns3:hr>
            <ns3:cad>49</ns3:cad>
          </ns3:TrackPointExtension>
        </extensions>
      </trkpt>
      <trkpt lat="45.33325516618788242340087890625" lon="-71.01009403355419635772705078125">
        <ele>872</ele>
        <time>2026-08-21T20:14:00.000Z</time>
        <extensions>
          <ns3:TrackPointExtension>
            <ns3:hr>116</ns3:hr>
            <ns3:cad>49</ns3:cad>
          </ns3:TrackPointExtension>
        </extensions>
      </trkpt>
      <trkpt lat="45.333254747092723846435546875" lon="-71.0100833885371685028076171875">
        <ele>871.5999755859375</ele>
        <time>2026-08-21T20:14:01.000Z</time>
        <extensions>
          <ns3:TrackPointExtension>
            <ns3:hr>116</ns3:hr>
            <ns3:cad>51</ns3:cad>
          </ns3:TrackPointExtension>
        </extensions>
      </trkpt>
      <trkpt lat="45.333257429301738739013671875" lon="-71.01007978431880474090576171875">
        <ele>871.4000244140625</ele>
        <time>2026-08-21T20:14:02.000Z</time>
        <extensions>
          <ns3:TrackPointExtension>
            <ns3:hr>116</ns3:hr>
            <ns3:cad>51</ns3:cad>
          </ns3:TrackPointExtension>
        </extensions>
      </trkpt>
      <trkpt lat="45.33326136879622936248779296875" lon="-71.01007257588207721710205078125">
        <ele>871</ele>
        <time>2026-08-21T20:14:03.000Z</time>
        <extensions>
          <ns3:TrackPointExtension>
            <ns3:hr>116</ns3:hr>
            <ns3:cad>51</ns3:cad>
          </ns3:TrackPointExtension>
        </extensions>
      </trkpt>
      <trkpt lat="45.3332643024623394012451171875" lon="-71.01006000302731990814208984375">
        <ele>870.79998779296875</ele>
        <time>2026-08-21T20:14:04.000Z</time>
        <extensions>
          <ns3:TrackPointExtension>
            <ns3:hr>118</ns3:hr>
            <ns3:cad>52</ns3:cad>
          </ns3:TrackPointExtension>
        </extensions>
      </trkpt>
      <trkpt lat="45.33326840959489345550537109375" lon="-71.010043323040008544921875">
        <ele>870.4000244140625</ele>
        <time>2026-08-21T20:14:05.000Z</time>
        <extensions>
          <ns3:TrackPointExtension>
            <ns3:hr>118</ns3:hr>
            <ns3:cad>52</ns3:cad>
          </ns3:TrackPointExtension>
        </extensions>
      </trkpt>
      <trkpt lat="45.333272852003574371337890625" lon="-71.010031588375568389892578125">
        <ele>870</ele>
        <time>2026-08-21T20:14:06.000Z</time>
        <extensions>
          <ns3:TrackPointExtension>
            <ns3:hr>119</ns3:hr>
            <ns3:cad>0</ns3:cad>
          </ns3:TrackPointExtension>
        </extensions>
      </trkpt>
      <trkpt lat="45.3332750312983989715576171875" lon="-71.0100163333117961883544921875">
        <ele>869.79998779296875</ele>
        <time>2026-08-21T20:14:07.000Z</time>
        <extensions>
          <ns3:TrackPointExtension>
            <ns3:hr>120</ns3:hr>
            <ns3:cad>0</ns3:cad>
          </ns3:TrackPointExtension>
        </extensions>
      </trkpt>
      <trkpt lat="45.3332773782312870025634765625" lon="-71.00999764166772365570068359375">
        <ele>869.4000244140625</ele>
        <time>2026-08-21T20:14:08.000Z</time>
        <extensions>
          <ns3:TrackPointExtension>
            <ns3:hr>120</ns3:hr>
            <ns3:cad>0</ns3:cad>
          </ns3:TrackPointExtension>
        </extensions>
      </trkpt>
      <trkpt lat="45.3332767076790332794189453125" lon="-71.0099891759455204010009765625">
        <ele>869.20001220703125</ele>
        <time>2026-08-21T20:14:09.000Z</time>
        <extensions>
          <ns3:TrackPointExtension>
            <ns3:hr>120</ns3:hr>
            <ns3:cad>0</ns3:cad>
          </ns3:TrackPointExtension>
        </extensions>
      </trkpt>
      <trkpt lat="45.333277545869350433349609375" lon="-71.00996780209243297576904296875">
        <ele>868.79998779296875</ele>
        <time>2026-08-21T20:14:10.000Z</time>
        <extensions>
          <ns3:TrackPointExtension>
            <ns3:hr>120</ns3:hr>
            <ns3:cad>0</ns3:cad>
          </ns3:TrackPointExtension>
        </extensions>
      </trkpt>
      <trkpt lat="45.33327461220324039459228515625" lon="-71.00995137356221675872802734375">
        <ele>868.5999755859375</ele>
        <time>2026-08-21T20:14:11.000Z</time>
        <extensions>
          <ns3:TrackPointExtension>
            <ns3:hr>120</ns3:hr>
            <ns3:cad>0</ns3:cad>
          </ns3:TrackPointExtension>
        </extensions>
      </trkpt>
      <trkpt lat="45.33326908014714717864990234375" lon="-71.009938716888427734375">
        <ele>868.20001220703125</ele>
        <time>2026-08-21T20:14:12.000Z</time>
        <extensions>
          <ns3:TrackPointExtension>
            <ns3:hr>120</ns3:hr>
            <ns3:cad>0</ns3:cad>
          </ns3:TrackPointExtension>
        </extensions>
      </trkpt>
      <trkpt lat="45.3332683257758617401123046875" lon="-71.009935699403285980224609375">
        <ele>867.79998779296875</ele>
        <time>2026-08-21T20:14:13.000Z</time>
        <extensions>
          <ns3:TrackPointExtension>
            <ns3:hr>120</ns3:hr>
            <ns3:cad>0</ns3:cad>
          </ns3:TrackPointExtension>
        </extensions>
      </trkpt>
      <trkpt lat="45.333268158137798309326171875" lon="-71.00992597639560699462890625">
        <ele>867.20001220703125</ele>
        <time>2026-08-21T20:14:14.000Z</time>
        <extensions>
          <ns3:TrackPointExtension>
            <ns3:hr>120</ns3:hr>
            <ns3:cad>0</ns3:cad>
          </ns3:TrackPointExtension>
        </extensions>
      </trkpt>
      <trkpt lat="45.3332669846713542938232421875" lon="-71.00991281680762767791748046875">
        <ele>866.79998779296875</ele>
        <time>2026-08-21T20:14:15.000Z</time>
        <extensions>
          <ns3:TrackPointExtension>
            <ns3:hr>120</ns3:hr>
            <ns3:cad>0</ns3:cad>
          </ns3:TrackPointExtension>
        </extensions>
      </trkpt>
      <trkpt lat="45.33326656557619571685791015625" lon="-71.0099051892757415771484375">
        <ele>866.4000244140625</ele>
        <time>2026-08-21T20:14:16.000Z</time>
        <extensions>
          <ns3:TrackPointExtension>
            <ns3:hr>120</ns3:hr>
            <ns3:cad>0</ns3:cad>
          </ns3:TrackPointExtension>
        </extensions>
      </trkpt>
      <trkpt lat="45.33326857723295688629150390625" lon="-71.00989622063934803009033203125">
        <ele>866</ele>
        <time>2026-08-21T20:14:17.000Z</time>
        <extensions>
          <ns3:TrackPointExtension>
            <ns3:hr>120</ns3:hr>
            <ns3:cad>0</ns3:cad>
          </ns3:TrackPointExtension>
        </extensions>
      </trkpt>
      <trkpt lat="45.3332733549177646636962890625" lon="-71.00989169441163539886474609375">
        <ele>865.79998779296875</ele>
        <time>2026-08-21T20:14:18.000Z</time>
        <extensions>
          <ns3:TrackPointExtension>
            <ns3:hr>120</ns3:hr>
            <ns3:cad>68</ns3:cad>
          </ns3:TrackPointExtension>
        </extensions>
      </trkpt>
      <trkpt lat="45.33327855169773101806640625" lon="-71.00987459532916545867919921875">
        <ele>865.4000244140625</ele>
        <time>2026-08-21T20:14:19.000Z</time>
        <extensions>
          <ns3:TrackPointExtension>
            <ns3:hr>119</ns3:hr>
            <ns3:cad>68</ns3:cad>
          </ns3:TrackPointExtension>
        </extensions>
      </trkpt>
      <trkpt lat="45.3332780487835407257080078125" lon="-71.00985623896121978759765625">
        <ele>865.20001220703125</ele>
        <time>2026-08-21T20:14:20.000Z</time>
        <extensions>
          <ns3:TrackPointExtension>
            <ns3:hr>119</ns3:hr>
            <ns3:cad>68</ns3:cad>
          </ns3:TrackPointExtension>
        </extensions>
      </trkpt>
      <trkpt lat="45.33327561803162097930908203125" lon="-71.00984425283968448638916015625">
        <ele>865</ele>
        <time>2026-08-21T20:14:21.000Z</time>
        <extensions>
          <ns3:TrackPointExtension>
            <ns3:hr>119</ns3:hr>
            <ns3:cad>61</ns3:cad>
          </ns3:TrackPointExtension>
        </extensions>
      </trkpt>
      <trkpt lat="45.33327293582260608673095703125" lon="-71.009834110736846923828125">
        <ele>864.79998779296875</ele>
        <time>2026-08-21T20:14:22.000Z</time>
        <extensions>
          <ns3:TrackPointExtension>
            <ns3:hr>119</ns3:hr>
            <ns3:cad>61</ns3:cad>
          </ns3:TrackPointExtension>
        </extensions>
      </trkpt>
      <trkpt lat="45.33327042125165462493896484375" lon="-71.0098206996917724609375">
        <ele>864.4000244140625</ele>
        <time>2026-08-21T20:14:23.000Z</time>
        <extensions>
          <ns3:TrackPointExtension>
            <ns3:hr>119</ns3:hr>
            <ns3:cad>61</ns3:cad>
          </ns3:TrackPointExtension>
        </extensions>
      </trkpt>
      <trkpt lat="45.33326623030006885528564453125" lon="-71.0098094679415225982666015625">
        <ele>864.20001220703125</ele>
        <time>2026-08-21T20:14:24.000Z</time>
        <extensions>
          <ns3:TrackPointExtension>
            <ns3:hr>119</ns3:hr>
            <ns3:cad>61</ns3:cad>
          </ns3:TrackPointExtension>
        </extensions>
      </trkpt>
      <trkpt lat="45.33325935713946819305419921875" lon="-71.00980351679027080535888671875">
        <ele>864</ele>
        <time>2026-08-21T20:14:25.000Z</time>
        <extensions>
          <ns3:TrackPointExtension>
            <ns3:hr>119</ns3:hr>
            <ns3:cad>52</ns3:cad>
          </ns3:TrackPointExtension>
        </extensions>
      </trkpt>
      <trkpt lat="45.333252735435962677001953125" lon="-71.0097980685532093048095703125">
        <ele>863.79998779296875</ele>
        <time>2026-08-21T20:14:26.000Z</time>
        <extensions>
          <ns3:TrackPointExtension>
            <ns3:hr>121</ns3:hr>
            <ns3:cad>52</ns3:cad>
          </ns3:TrackPointExtension>
        </extensions>
      </trkpt>
      <trkpt lat="45.333252064883708953857421875" lon="-71.00979262031614780426025390625">
        <ele>863.4000244140625</ele>
        <time>2026-08-21T20:14:27.000Z</time>
        <extensions>
          <ns3:TrackPointExtension>
            <ns3:hr>121</ns3:hr>
            <ns3:cad>52</ns3:cad>
          </ns3:TrackPointExtension>
        </extensions>
      </trkpt>
      <trkpt lat="45.33325483091175556182861328125" lon="-71.00978557951748371124267578125">
        <ele>863.20001220703125</ele>
        <time>2026-08-21T20:14:28.000Z</time>
        <extensions>
          <ns3:TrackPointExtension>
            <ns3:hr>121</ns3:hr>
            <ns3:cad>0</ns3:cad>
          </ns3:TrackPointExtension>
        </extensions>
      </trkpt>
      <trkpt lat="45.3332599438726902008056640625" lon="-71.00977535359561443328857421875">
        <ele>863</ele>
        <time>2026-08-21T20:14:29.000Z</time>
        <extensions>
          <ns3:TrackPointExtension>
            <ns3:hr>121</ns3:hr>
            <ns3:cad>0</ns3:cad>
          </ns3:TrackPointExtension>
        </extensions>
      </trkpt>
      <trkpt lat="45.33326203934848308563232421875" lon="-71.0097628645598888397216796875">
        <ele>862.79998779296875</ele>
        <time>2026-08-21T20:14:30.000Z</time>
        <extensions>
          <ns3:TrackPointExtension>
            <ns3:hr>121</ns3:hr>
            <ns3:cad>0</ns3:cad>
          </ns3:TrackPointExtension>
        </extensions>
      </trkpt>
      <trkpt lat="45.33326438628137111663818359375" lon="-71.00974936969578266143798828125">
        <ele>862.5999755859375</ele>
        <time>2026-08-21T20:14:31.000Z</time>
        <extensions>
          <ns3:TrackPointExtension>
            <ns3:hr>121</ns3:hr>
            <ns3:cad>0</ns3:cad>
          </ns3:TrackPointExtension>
        </extensions>
      </trkpt>
      <trkpt lat="45.33326472155749797821044921875" lon="-71.00973897613584995269775390625">
        <ele>862.4000244140625</ele>
        <time>2026-08-21T20:14:32.000Z</time>
        <extensions>
          <ns3:TrackPointExtension>
            <ns3:hr>121</ns3:hr>
            <ns3:cad>0</ns3:cad>
          </ns3:TrackPointExtension>
        </extensions>
      </trkpt>
      <trkpt lat="45.33326287753880023956298828125" lon="-71.0097229667007923126220703125">
        <ele>862.20001220703125</ele>
        <time>2026-08-21T20:14:33.000Z</time>
        <extensions>
          <ns3:TrackPointExtension>
            <ns3:hr>120</ns3:hr>
            <ns3:cad>55</ns3:cad>
          </ns3:TrackPointExtension>
        </extensions>
      </trkpt>
      <trkpt lat="45.333261787891387939453125" lon="-71.0097065381705760955810546875">
        <ele>862</ele>
        <time>2026-08-21T20:14:34.000Z</time>
        <extensions>
          <ns3:TrackPointExtension>
            <ns3:hr>121</ns3:hr>
            <ns3:cad>55</ns3:cad>
          </ns3:TrackPointExtension>
        </extensions>
      </trkpt>
      <trkpt lat="45.3332622908055782318115234375" lon="-71.0096844099462032318115234375">
        <ele>861.79998779296875</ele>
        <time>2026-08-21T20:14:35.000Z</time>
        <extensions>
          <ns3:TrackPointExtension>
            <ns3:hr>121</ns3:hr>
            <ns3:cad>55</ns3:cad>
          </ns3:TrackPointExtension>
        </extensions>
      </trkpt>
      <trkpt lat="45.3332673199474811553955078125" lon="-71.009667478501796722412109375">
        <ele>861.5999755859375</ele>
        <time>2026-08-21T20:14:36.000Z</time>
        <extensions>
          <ns3:TrackPointExtension>
            <ns3:hr>120</ns3:hr>
            <ns3:cad>55</ns3:cad>
          </ns3:TrackPointExtension>
        </extensions>
      </trkpt>
      <trkpt lat="45.33327075652778148651123046875" lon="-71.00965239107608795166015625">
        <ele>861.5999755859375</ele>
        <time>2026-08-21T20:14:37.000Z</time>
        <extensions>
          <ns3:TrackPointExtension>
            <ns3:hr>120</ns3:hr>
            <ns3:cad>55</ns3:cad>
          </ns3:TrackPointExtension>
        </extensions>
      </trkpt>
      <trkpt lat="45.333278216421604156494140625" lon="-71.009639985859394073486328125">
        <ele>861.5999755859375</ele>
        <time>2026-08-21T20:14:38.000Z</time>
        <extensions>
          <ns3:TrackPointExtension>
            <ns3:hr>119</ns3:hr>
            <ns3:cad>55</ns3:cad>
          </ns3:TrackPointExtension>
        </extensions>
      </trkpt>
      <trkpt lat="45.333288274705410003662109375" lon="-71.0096294246613979339599609375">
        <ele>861.5999755859375</ele>
        <time>2026-08-21T20:14:39.000Z</time>
        <extensions>
          <ns3:TrackPointExtension>
            <ns3:hr>118</ns3:hr>
            <ns3:cad>55</ns3:cad>
          </ns3:TrackPointExtension>
        </extensions>
      </trkpt>
      <trkpt lat="45.33329757861793041229248046875" lon="-71.009616851806640625">
        <ele>861.5999755859375</ele>
        <time>2026-08-21T20:14:40.000Z</time>
        <extensions>
          <ns3:TrackPointExtension>
            <ns3:hr>117</ns3:hr>
            <ns3:cad>68</ns3:cad>
          </ns3:TrackPointExtension>
        </extensions>
      </trkpt>
      <trkpt lat="45.33330545760691165924072265625" lon="-71.00960587151348590850830078125">
        <ele>861.5999755859375</ele>
        <time>2026-08-21T20:14:41.000Z</time>
        <extensions>
          <ns3:TrackPointExtension>
            <ns3:hr>117</ns3:hr>
            <ns3:cad>68</ns3:cad>
          </ns3:TrackPointExtension>
        </extensions>
      </trkpt>
      <trkpt lat="45.3333149291574954986572265625" lon="-71.00960050709545612335205078125">
        <ele>861.4000244140625</ele>
        <time>2026-08-21T20:14:42.000Z</time>
        <extensions>
          <ns3:TrackPointExtension>
            <ns3:hr>117</ns3:hr>
            <ns3:cad>68</ns3:cad>
          </ns3:TrackPointExtension>
        </extensions>
      </trkpt>
      <trkpt lat="45.3333223052322864532470703125" lon="-71.009592376649379730224609375">
        <ele>861.4000244140625</ele>
        <time>2026-08-21T20:14:43.000Z</time>
        <extensions>
          <ns3:TrackPointExtension>
            <ns3:hr>116</ns3:hr>
            <ns3:cad>68</ns3:cad>
          </ns3:TrackPointExtension>
        </extensions>
      </trkpt>
      <trkpt lat="45.33332892693579196929931640625" lon="-71.00956647656857967376708984375">
        <ele>861.20001220703125</ele>
        <time>2026-08-21T20:14:44.000Z</time>
        <extensions>
          <ns3:TrackPointExtension>
            <ns3:hr>116</ns3:hr>
            <ns3:cad>68</ns3:cad>
          </ns3:TrackPointExtension>
        </extensions>
      </trkpt>
      <trkpt lat="45.333327837288379669189453125" lon="-71.00954283960163593292236328125">
        <ele>861.20001220703125</ele>
        <time>2026-08-21T20:14:45.000Z</time>
        <extensions>
          <ns3:TrackPointExtension>
            <ns3:hr>115</ns3:hr>
            <ns3:cad>0</ns3:cad>
          </ns3:TrackPointExtension>
        </extensions>
      </trkpt>
      <trkpt lat="45.33332624472677707672119140625" lon="-71.009516604244709014892578125">
        <ele>861</ele>
        <time>2026-08-21T20:14:46.000Z</time>
        <extensions>
          <ns3:TrackPointExtension>
            <ns3:hr>115</ns3:hr>
            <ns3:cad>0</ns3:cad>
          </ns3:TrackPointExtension>
        </extensions>
      </trkpt>
      <trkpt lat="45.33332305960357189178466796875" lon="-71.00949958898127079010009765625">
        <ele>861</ele>
        <time>2026-08-21T20:14:47.000Z</time>
        <extensions>
          <ns3:TrackPointExtension>
            <ns3:hr>115</ns3:hr>
            <ns3:cad>0</ns3:cad>
          </ns3:TrackPointExtension>
        </extensions>
      </trkpt>
      <trkpt lat="45.333316437900066375732421875" lon="-71.0094805620610713958740234375">
        <ele>860.5999755859375</ele>
        <time>2026-08-21T20:14:48.000Z</time>
        <extensions>
          <ns3:TrackPointExtension>
            <ns3:hr>115</ns3:hr>
            <ns3:cad>0</ns3:cad>
          </ns3:TrackPointExtension>
        </extensions>
      </trkpt>
      <trkpt lat="45.333305709064006805419921875" lon="-71.00947444327175617218017578125">
        <ele>860.4000244140625</ele>
        <time>2026-08-21T20:14:49.000Z</time>
        <extensions>
          <ns3:TrackPointExtension>
            <ns3:hr>115</ns3:hr>
            <ns3:cad>0</ns3:cad>
          </ns3:TrackPointExtension>
        </extensions>
      </trkpt>
      <trkpt lat="45.3332954831421375274658203125" lon="-71.009461618959903717041015625">
        <ele>860.20001220703125</ele>
        <time>2026-08-21T20:14:50.000Z</time>
        <extensions>
          <ns3:TrackPointExtension>
            <ns3:hr>115</ns3:hr>
            <ns3:cad>0</ns3:cad>
          </ns3:TrackPointExtension>
        </extensions>
      </trkpt>
      <trkpt lat="45.333283580839633941650390625" lon="-71.0094483755528926849365234375">
        <ele>859.79998779296875</ele>
        <time>2026-08-21T20:14:51.000Z</time>
        <extensions>
          <ns3:TrackPointExtension>
            <ns3:hr>115</ns3:hr>
            <ns3:cad>0</ns3:cad>
          </ns3:TrackPointExtension>
        </extensions>
      </trkpt>
      <trkpt lat="45.333275534212589263916015625" lon="-71.0094386525452136993408203125">
        <ele>859.4000244140625</ele>
        <time>2026-08-21T20:14:52.000Z</time>
        <extensions>
          <ns3:TrackPointExtension>
            <ns3:hr>115</ns3:hr>
            <ns3:cad>0</ns3:cad>
          </ns3:TrackPointExtension>
        </extensions>
      </trkpt>
      <trkpt lat="45.33326891250908374786376953125" lon="-71.00941644050180912017822265625">
        <ele>859</ele>
        <time>2026-08-21T20:14:53.000Z</time>
        <extensions>
          <ns3:TrackPointExtension>
            <ns3:hr>115</ns3:hr>
            <ns3:cad>0</ns3:cad>
          </ns3:TrackPointExtension>
        </extensions>
      </trkpt>
      <trkpt lat="45.33326857723295688629150390625" lon="-71.00940068252384662628173828125">
        <ele>858.5999755859375</ele>
        <time>2026-08-21T20:14:54.000Z</time>
        <extensions>
          <ns3:TrackPointExtension>
            <ns3:hr>115</ns3:hr>
            <ns3:cad>0</ns3:cad>
          </ns3:TrackPointExtension>
        </extensions>
      </trkpt>
      <trkpt lat="45.33326874487102031707763671875" lon="-71.009379141032695770263671875">
        <ele>858.20001220703125</ele>
        <time>2026-08-21T20:14:55.000Z</time>
        <extensions>
          <ns3:TrackPointExtension>
            <ns3:hr>114</ns3:hr>
            <ns3:cad>0</ns3:cad>
          </ns3:TrackPointExtension>
        </extensions>
      </trkpt>
      <trkpt lat="45.33327125944197177886962890625" lon="-71.00936262868344783782958984375">
        <ele>857.79998779296875</ele>
        <time>2026-08-21T20:14:56.000Z</time>
        <extensions>
          <ns3:TrackPointExtension>
            <ns3:hr>115</ns3:hr>
            <ns3:cad>0</ns3:cad>
          </ns3:TrackPointExtension>
        </extensions>
      </trkpt>
      <trkpt lat="45.3332763724029064178466796875" lon="-71.00933982990682125091552734375">
        <ele>857.4000244140625</ele>
        <time>2026-08-21T20:14:57.000Z</time>
        <extensions>
          <ns3:TrackPointExtension>
            <ns3:hr>115</ns3:hr>
            <ns3:cad>0</ns3:cad>
          </ns3:TrackPointExtension>
        </extensions>
      </trkpt>
      <trkpt lat="45.3332740254700183868408203125" lon="-71.0093226470053195953369140625">
        <ele>857.20001220703125</ele>
        <time>2026-08-21T20:14:58.000Z</time>
        <extensions>
          <ns3:TrackPointExtension>
            <ns3:hr>116</ns3:hr>
            <ns3:cad>0</ns3:cad>
          </ns3:TrackPointExtension>
        </extensions>
      </trkpt>
      <trkpt lat="45.33326589502394199371337890625" lon="-71.009303033351898193359375">
        <ele>857</ele>
        <time>2026-08-21T20:14:59.000Z</time>
        <extensions>
          <ns3:TrackPointExtension>
            <ns3:hr>116</ns3:hr>
            <ns3:cad>0</ns3:cad>
          </ns3:TrackPointExtension>
        </extensions>
      </trkpt>
      <trkpt lat="45.33326421864330768585205078125" lon="-71.00929372943937778472900390625">
        <ele>856.79998779296875</ele>
        <time>2026-08-21T20:15:00.000Z</time>
        <extensions>
          <ns3:TrackPointExtension>
            <ns3:hr>117</ns3:hr>
            <ns3:cad>0</ns3:cad>
          </ns3:TrackPointExtension>
        </extensions>
      </trkpt>
      <trkpt lat="45.33326623030006885528564453125" lon="-71.00928132422268390655517578125">
        <ele>856.5999755859375</ele>
        <time>2026-08-21T20:15:01.000Z</time>
        <extensions>
          <ns3:TrackPointExtension>
            <ns3:hr>118</ns3:hr>
            <ns3:cad>0</ns3:cad>
          </ns3:TrackPointExtension>
        </extensions>
      </trkpt>
      <trkpt lat="45.3332684934139251708984375" lon="-71.009269841015338897705078125">
        <ele>856.20001220703125</ele>
        <time>2026-08-21T20:15:02.000Z</time>
        <extensions>
          <ns3:TrackPointExtension>
            <ns3:hr>118</ns3:hr>
            <ns3:cad>0</ns3:cad>
          </ns3:TrackPointExtension>
        </extensions>
      </trkpt>
      <trkpt lat="45.3332765400409698486328125" lon="-71.0092480480670928955078125">
        <ele>855.79998779296875</ele>
        <time>2026-08-21T20:15:03.000Z</time>
        <extensions>
          <ns3:TrackPointExtension>
            <ns3:hr>119</ns3:hr>
            <ns3:cad>0</ns3:cad>
          </ns3:TrackPointExtension>
        </extensions>
      </trkpt>
      <trkpt lat="45.33328098244965076446533203125" lon="-71.00923052988946437835693359375">
        <ele>855.4000244140625</ele>
        <time>2026-08-21T20:15:04.000Z</time>
        <extensions>
          <ns3:TrackPointExtension>
            <ns3:hr>119</ns3:hr>
            <ns3:cad>71</ns3:cad>
          </ns3:TrackPointExtension>
        </extensions>
      </trkpt>
      <trkpt lat="45.33328684978187084197998046875" lon="-71.0092046298086643218994140625">
        <ele>855</ele>
        <time>2026-08-21T20:15:05.000Z</time>
        <extensions>
          <ns3:TrackPointExtension>
            <ns3:hr>120</ns3:hr>
            <ns3:cad>71</ns3:cad>
          </ns3:TrackPointExtension>
        </extensions>
      </trkpt>
      <trkpt lat="45.3332881070673465728759765625" lon="-71.00918945856392383575439453125">
        <ele>854.5999755859375</ele>
        <time>2026-08-21T20:15:06.000Z</time>
        <extensions>
          <ns3:TrackPointExtension>
            <ns3:hr>120</ns3:hr>
            <ns3:cad>71</ns3:cad>
          </ns3:TrackPointExtension>
        </extensions>
      </trkpt>
      <trkpt lat="45.333284251391887664794921875" lon="-71.00916691124439239501953125">
        <ele>854.20001220703125</ele>
        <time>2026-08-21T20:15:07.000Z</time>
        <extensions>
          <ns3:TrackPointExtension>
            <ns3:hr>120</ns3:hr>
            <ns3:cad>71</ns3:cad>
          </ns3:TrackPointExtension>
        </extensions>
      </trkpt>
      <trkpt lat="45.3332807309925556182861328125" lon="-71.0091476328670978546142578125">
        <ele>853.79998779296875</ele>
        <time>2026-08-21T20:15:08.000Z</time>
        <extensions>
          <ns3:TrackPointExtension>
            <ns3:hr>121</ns3:hr>
            <ns3:cad>71</ns3:cad>
          </ns3:TrackPointExtension>
        </extensions>
      </trkpt>
      <trkpt lat="45.33327662386000156402587890625" lon="-71.00913262926042079925537109375">
        <ele>853.4000244140625</ele>
        <time>2026-08-21T20:15:09.000Z</time>
        <extensions>
          <ns3:TrackPointExtension>
            <ns3:hr>121</ns3:hr>
            <ns3:cad>52</ns3:cad>
          </ns3:TrackPointExtension>
        </extensions>
      </trkpt>
      <trkpt lat="45.333264805376529693603515625" lon="-71.00911385379731655120849609375">
        <ele>853</ele>
        <time>2026-08-21T20:15:10.000Z</time>
        <extensions>
          <ns3:TrackPointExtension>
            <ns3:hr>121</ns3:hr>
            <ns3:cad>52</ns3:cad>
          </ns3:TrackPointExtension>
        </extensions>
      </trkpt>
      <trkpt lat="45.33324846066534519195556640625" lon="-71.00909776054322719573974609375">
        <ele>852.4000244140625</ele>
        <time>2026-08-21T20:15:11.000Z</time>
        <extensions>
          <ns3:TrackPointExtension>
            <ns3:hr>121</ns3:hr>
            <ns3:cad>52</ns3:cad>
          </ns3:TrackPointExtension>
        </extensions>
      </trkpt>
      <trkpt lat="45.3332336246967315673828125" lon="-71.00907839834690093994140625">
        <ele>852</ele>
        <time>2026-08-21T20:15:12.000Z</time>
        <extensions>
          <ns3:TrackPointExtension>
            <ns3:hr>121</ns3:hr>
            <ns3:cad>75</ns3:cad>
          </ns3:TrackPointExtension>
        </extensions>
      </trkpt>
      <trkpt lat="45.33321526832878589630126953125" lon="-71.00905652157962322235107421875">
        <ele>851.5999755859375</ele>
        <time>2026-08-21T20:15:13.000Z</time>
        <extensions>
          <ns3:TrackPointExtension>
            <ns3:hr>122</ns3:hr>
            <ns3:cad>75</ns3:cad>
          </ns3:TrackPointExtension>
        </extensions>
      </trkpt>
      <trkpt lat="45.3331987559795379638671875" lon="-71.00904663093388080596923828125">
        <ele>851.20001220703125</ele>
        <time>2026-08-21T20:15:14.000Z</time>
        <extensions>
          <ns3:TrackPointExtension>
            <ns3:hr>122</ns3:hr>
            <ns3:cad>75</ns3:cad>
          </ns3:TrackPointExtension>
        </extensions>
      </trkpt>
      <trkpt lat="45.333181321620941162109375" lon="-71.00903523154556751251220703125">
        <ele>851</ele>
        <time>2026-08-21T20:15:15.000Z</time>
        <extensions>
          <ns3:TrackPointExtension>
            <ns3:hr>122</ns3:hr>
            <ns3:cad>75</ns3:cad>
          </ns3:TrackPointExtension>
        </extensions>
      </trkpt>
      <trkpt lat="45.33316816203296184539794921875" lon="-71.00902684964239597320556640625">
        <ele>851</ele>
        <time>2026-08-21T20:15:16.000Z</time>
        <extensions>
          <ns3:TrackPointExtension>
            <ns3:hr>122</ns3:hr>
            <ns3:cad>75</ns3:cad>
          </ns3:TrackPointExtension>
        </extensions>
      </trkpt>
      <trkpt lat="45.33315693028271198272705078125" lon="-71.00901327095925807952880859375">
        <ele>851</ele>
        <time>2026-08-21T20:15:17.000Z</time>
        <extensions>
          <ns3:TrackPointExtension>
            <ns3:hr>122</ns3:hr>
            <ns3:cad>75</ns3:cad>
          </ns3:TrackPointExtension>
        </extensions>
      </trkpt>
      <trkpt lat="45.3331436030566692352294921875" lon="-71.0089937411248683929443359375">
        <ele>851</ele>
        <time>2026-08-21T20:15:18.000Z</time>
        <extensions>
          <ns3:TrackPointExtension>
            <ns3:hr>123</ns3:hr>
            <ns3:cad>75</ns3:cad>
          </ns3:TrackPointExtension>
        </extensions>
      </trkpt>
      <trkpt lat="45.33312843181192874908447265625" lon="-71.0089846886694431304931640625">
        <ele>851</ele>
        <time>2026-08-21T20:15:19.000Z</time>
        <extensions>
          <ns3:TrackPointExtension>
            <ns3:hr>123</ns3:hr>
            <ns3:cad>75</ns3:cad>
          </ns3:TrackPointExtension>
        </extensions>
      </trkpt>
      <trkpt lat="45.333114601671695709228515625" lon="-71.0089887119829654693603515625">
        <ele>851</ele>
        <time>2026-08-21T20:15:20.000Z</time>
        <extensions>
          <ns3:TrackPointExtension>
            <ns3:hr>123</ns3:hr>
            <ns3:cad>57</ns3:cad>
          </ns3:TrackPointExtension>
        </extensions>
      </trkpt>
      <trkpt lat="45.333103202283382415771484375" lon="-71.00899994373321533203125">
        <ele>851.20001220703125</ele>
        <time>2026-08-21T20:15:21.000Z</time>
        <extensions>
          <ns3:TrackPointExtension>
            <ns3:hr>123</ns3:hr>
            <ns3:cad>57</ns3:cad>
          </ns3:TrackPointExtension>
        </extensions>
      </trkpt>
      <trkpt lat="45.33308937214314937591552734375" lon="-71.00900941528379917144775390625">
        <ele>851.4000244140625</ele>
        <time>2026-08-21T20:15:22.000Z</time>
        <extensions>
          <ns3:TrackPointExtension>
            <ns3:hr>123</ns3:hr>
            <ns3:cad>57</ns3:cad>
          </ns3:TrackPointExtension>
        </extensions>
      </trkpt>
      <trkpt lat="45.33308275043964385986328125" lon="-71.0090151987969875335693359375">
        <ele>851.79998779296875</ele>
        <time>2026-08-21T20:15:23.000Z</time>
        <extensions>
          <ns3:TrackPointExtension>
            <ns3:hr>122</ns3:hr>
            <ns3:cad>57</ns3:cad>
          </ns3:TrackPointExtension>
        </extensions>
      </trkpt>
      <trkpt lat="45.33307093195617198944091796875" lon="-71.0090259276330471038818359375">
        <ele>852.20001220703125</ele>
        <time>2026-08-21T20:15:24.000Z</time>
        <extensions>
          <ns3:TrackPointExtension>
            <ns3:hr>122</ns3:hr>
            <ns3:cad>57</ns3:cad>
          </ns3:TrackPointExtension>
        </extensions>
      </trkpt>
      <trkpt lat="45.3330641426146030426025390625" lon="-71.00903472863137722015380859375">
        <ele>852.4000244140625</ele>
        <time>2026-08-21T20:15:25.000Z</time>
        <extensions>
          <ns3:TrackPointExtension>
            <ns3:hr>122</ns3:hr>
            <ns3:cad>57</ns3:cad>
          </ns3:TrackPointExtension>
        </extensions>
      </trkpt>
      <trkpt lat="45.3330527432262897491455078125" lon="-71.0090386681258678436279296875">
        <ele>852.79998779296875</ele>
        <time>2026-08-21T20:15:26.000Z</time>
        <extensions>
          <ns3:TrackPointExtension>
            <ns3:hr>122</ns3:hr>
            <ns3:cad>57</ns3:cad>
          </ns3:TrackPointExtension>
        </extensions>
      </trkpt>
      <trkpt lat="45.33304461278021335601806640625" lon="-71.009049229323863983154296875">
        <ele>853</ele>
        <time>2026-08-21T20:15:27.000Z</time>
        <extensions>
          <ns3:TrackPointExtension>
            <ns3:hr>122</ns3:hr>
            <ns3:cad>57</ns3:cad>
          </ns3:TrackPointExtension>
        </extensions>
      </trkpt>
      <trkpt lat="45.3330326266586780548095703125" lon="-71.00905367173254489898681640625">
        <ele>853.4000244140625</ele>
        <time>2026-08-21T20:15:28.000Z</time>
        <extensions>
          <ns3:TrackPointExtension>
            <ns3:hr>122</ns3:hr>
            <ns3:cad>57</ns3:cad>
          </ns3:TrackPointExtension>
        </extensions>
      </trkpt>
      <trkpt lat="45.33302684314548969268798828125" lon="-71.00905534811317920684814453125">
        <ele>853.5999755859375</ele>
        <time>2026-08-21T20:15:29.000Z</time>
        <extensions>
          <ns3:TrackPointExtension>
            <ns3:hr>122</ns3:hr>
            <ns3:cad>0</ns3:cad>
          </ns3:TrackPointExtension>
        </extensions>
      </trkpt>
      <trkpt lat="45.33302013762295246124267578125" lon="-71.0090618021786212921142578125">
        <ele>854</ele>
        <time>2026-08-21T20:15:30.000Z</time>
        <extensions>
          <ns3:TrackPointExtension>
            <ns3:hr>122</ns3:hr>
            <ns3:cad>0</ns3:cad>
          </ns3:TrackPointExtension>
        </extensions>
      </trkpt>
      <trkpt lat="45.33301259391009807586669921875" lon="-71.00906766951084136962890625">
        <ele>854.20001220703125</ele>
        <time>2026-08-21T20:15:31.000Z</time>
        <extensions>
          <ns3:TrackPointExtension>
            <ns3:hr>122</ns3:hr>
            <ns3:cad>0</ns3:cad>
          </ns3:TrackPointExtension>
        </extensions>
      </trkpt>
      <trkpt lat="45.33299960196018218994140625" lon="-71.0090805776417255401611328125">
        <ele>854.4000244140625</ele>
        <time>2026-08-21T20:15:32.000Z</time>
        <extensions>
          <ns3:TrackPointExtension>
            <ns3:hr>122</ns3:hr>
            <ns3:cad>44</ns3:cad>
          </ns3:TrackPointExtension>
        </extensions>
      </trkpt>
      <trkpt lat="45.33299281261861324310302734375" lon="-71.00909256376326084136962890625">
        <ele>854.4000244140625</ele>
        <time>2026-08-21T20:15:33.000Z</time>
        <extensions>
          <ns3:TrackPointExtension>
            <ns3:hr>121</ns3:hr>
            <ns3:cad>44</ns3:cad>
          </ns3:TrackPointExtension>
        </extensions>
      </trkpt>
      <trkpt lat="45.332988202571868896484375" lon="-71.0091030411422252655029296875">
        <ele>854.5999755859375</ele>
        <time>2026-08-21T20:15:34.000Z</time>
        <extensions>
          <ns3:TrackPointExtension>
            <ns3:hr>121</ns3:hr>
            <ns3:cad>46</ns3:cad>
          </ns3:TrackPointExtension>
        </extensions>
      </trkpt>
      <trkpt lat="45.33298208378255367279052734375" lon="-71.00911335088312625885009765625">
        <ele>854.5999755859375</ele>
        <time>2026-08-21T20:15:35.000Z</time>
        <extensions>
          <ns3:TrackPointExtension>
            <ns3:hr>121</ns3:hr>
            <ns3:cad>46</ns3:cad>
          </ns3:TrackPointExtension>
        </extensions>
      </trkpt>
      <trkpt lat="45.33297479152679443359375" lon="-71.009133718907833099365234375">
        <ele>854.5999755859375</ele>
        <time>2026-08-21T20:15:36.000Z</time>
        <extensions>
          <ns3:TrackPointExtension>
            <ns3:hr>122</ns3:hr>
            <ns3:cad>46</ns3:cad>
          </ns3:TrackPointExtension>
        </extensions>
      </trkpt>
      <trkpt lat="45.33296632580459117889404296875" lon="-71.0091493092477321624755859375">
        <ele>854.5999755859375</ele>
        <time>2026-08-21T20:15:37.000Z</time>
        <extensions>
          <ns3:TrackPointExtension>
            <ns3:hr>122</ns3:hr>
            <ns3:cad>48</ns3:cad>
          </ns3:TrackPointExtension>
        </extensions>
      </trkpt>
      <trkpt lat="45.33296012319624423980712890625" lon="-71.00916422903537750244140625">
        <ele>854.79998779296875</ele>
        <time>2026-08-21T20:15:38.000Z</time>
        <extensions>
          <ns3:TrackPointExtension>
            <ns3:hr>123</ns3:hr>
            <ns3:cad>48</ns3:cad>
          </ns3:TrackPointExtension>
        </extensions>
      </trkpt>
      <trkpt lat="45.33295291475951671600341796875" lon="-71.00917437113821506500244140625">
        <ele>854.79998779296875</ele>
        <time>2026-08-21T20:15:39.000Z</time>
        <extensions>
          <ns3:TrackPointExtension>
            <ns3:hr>123</ns3:hr>
            <ns3:cad>50</ns3:cad>
          </ns3:TrackPointExtension>
        </extensions>
      </trkpt>
      <trkpt lat="45.33294252119958400726318359375" lon="-71.009179651737213134765625">
        <ele>855</ele>
        <time>2026-08-21T20:15:40.000Z</time>
        <extensions>
          <ns3:TrackPointExtension>
            <ns3:hr>124</ns3:hr>
            <ns3:cad>50</ns3:cad>
          </ns3:TrackPointExtension>
        </extensions>
      </trkpt>
      <trkpt lat="45.33292860724031925201416015625" lon="-71.00918929092586040496826171875">
        <ele>855</ele>
        <time>2026-08-21T20:15:41.000Z</time>
        <extensions>
          <ns3:TrackPointExtension>
            <ns3:hr>125</ns3:hr>
            <ns3:cad>51</ns3:cad>
          </ns3:TrackPointExtension>
        </extensions>
      </trkpt>
      <trkpt lat="45.3329144418239593505859375" lon="-71.00919063203036785125732421875">
        <ele>855.20001220703125</ele>
        <time>2026-08-21T20:15:42.000Z</time>
        <extensions>
          <ns3:TrackPointExtension>
            <ns3:hr>126</ns3:hr>
            <ns3:cad>51</ns3:cad>
          </ns3:TrackPointExtension>
        </extensions>
      </trkpt>
      <trkpt lat="45.332901366055011749267578125" lon="-71.0091917216777801513671875">
        <ele>855.4000244140625</ele>
        <time>2026-08-21T20:15:43.000Z</time>
        <extensions>
          <ns3:TrackPointExtension>
            <ns3:hr>127</ns3:hr>
            <ns3:cad>51</ns3:cad>
          </ns3:TrackPointExtension>
        </extensions>
      </trkpt>
      <trkpt lat="45.332885943353176116943359375" lon="-71.00919415242969989776611328125">
        <ele>855.4000244140625</ele>
        <time>2026-08-21T20:15:44.000Z</time>
        <extensions>
          <ns3:TrackPointExtension>
            <ns3:hr>128</ns3:hr>
            <ns3:cad>51</ns3:cad>
          </ns3:TrackPointExtension>
        </extensions>
      </trkpt>
      <trkpt lat="45.3328723646700382232666015625" lon="-71.00919532589614391326904296875">
        <ele>855.5999755859375</ele>
        <time>2026-08-21T20:15:45.000Z</time>
        <extensions>
          <ns3:TrackPointExtension>
            <ns3:hr>129</ns3:hr>
            <ns3:cad>51</ns3:cad>
          </ns3:TrackPointExtension>
        </extensions>
      </trkpt>
      <trkpt lat="45.332863144576549530029296875" lon="-71.00919499062001705169677734375">
        <ele>855.5999755859375</ele>
        <time>2026-08-21T20:15:46.000Z</time>
        <extensions>
          <ns3:TrackPointExtension>
            <ns3:hr>131</ns3:hr>
            <ns3:cad>52</ns3:cad>
          </ns3:TrackPointExtension>
        </extensions>
      </trkpt>
      <trkpt lat="45.33285476267337799072265625" lon="-71.0091875307261943817138671875">
        <ele>855.5999755859375</ele>
        <time>2026-08-21T20:15:47.000Z</time>
        <extensions>
          <ns3:TrackPointExtension>
            <ns3:hr>132</ns3:hr>
            <ns3:cad>52</ns3:cad>
          </ns3:TrackPointExtension>
        </extensions>
      </trkpt>
      <trkpt lat="45.33285099081695079803466796875" lon="-71.0091868601739406585693359375">
        <ele>855.5999755859375</ele>
        <time>2026-08-21T20:15:48.000Z</time>
        <extensions>
          <ns3:TrackPointExtension>
            <ns3:hr>134</ns3:hr>
            <ns3:cad>52</ns3:cad>
          </ns3:TrackPointExtension>
        </extensions>
      </trkpt>
      <trkpt lat="45.3328438661992549896240234375" lon="-71.00918074138462543487548828125">
        <ele>855.5999755859375</ele>
        <time>2026-08-21T20:15:49.000Z</time>
        <extensions>
          <ns3:TrackPointExtension>
            <ns3:hr>135</ns3:hr>
            <ns3:cad>52</ns3:cad>
          </ns3:TrackPointExtension>
        </extensions>
      </trkpt>
      <trkpt lat="45.33283322118222713470458984375" lon="-71.0091774724423885345458984375">
        <ele>855.5999755859375</ele>
        <time>2026-08-21T20:15:50.000Z</time>
        <extensions>
          <ns3:TrackPointExtension>
            <ns3:hr>135</ns3:hr>
            <ns3:cad>52</ns3:cad>
          </ns3:TrackPointExtension>
        </extensions>
      </trkpt>
      <trkpt lat="45.3328267671167850494384765625" lon="-71.0091687552630901336669921875">
        <ele>855.4000244140625</ele>
        <time>2026-08-21T20:15:51.000Z</time>
        <extensions>
          <ns3:TrackPointExtension>
            <ns3:hr>135</ns3:hr>
            <ns3:cad>52</ns3:cad>
          </ns3:TrackPointExtension>
        </extensions>
      </trkpt>
      <trkpt lat="45.332822911441326141357421875" lon="-71.0091573558747768402099609375">
        <ele>855.4000244140625</ele>
        <time>2026-08-21T20:15:52.000Z</time>
        <extensions>
          <ns3:TrackPointExtension>
            <ns3:hr>136</ns3:hr>
            <ns3:cad>52</ns3:cad>
          </ns3:TrackPointExtension>
        </extensions>
      </trkpt>
      <trkpt lat="45.3328177146613597869873046875" lon="-71.0091442801058292388916015625">
        <ele>855.20001220703125</ele>
        <time>2026-08-21T20:15:53.000Z</time>
        <extensions>
          <ns3:TrackPointExtension>
            <ns3:hr>136</ns3:hr>
            <ns3:cad>52</ns3:cad>
          </ns3:TrackPointExtension>
        </extensions>
      </trkpt>
      <trkpt lat="45.33280975185334682464599609375" lon="-71.00913598202168941497802734375">
        <ele>854.79998779296875</ele>
        <time>2026-08-21T20:15:54.000Z</time>
        <extensions>
          <ns3:TrackPointExtension>
            <ns3:hr>136</ns3:hr>
            <ns3:cad>50</ns3:cad>
          </ns3:TrackPointExtension>
        </extensions>
      </trkpt>
      <trkpt lat="45.3328012861311435699462890625" lon="-71.009127013385295867919921875">
        <ele>854.4000244140625</ele>
        <time>2026-08-21T20:15:55.000Z</time>
        <extensions>
          <ns3:TrackPointExtension>
            <ns3:hr>136</ns3:hr>
            <ns3:cad>50</ns3:cad>
          </ns3:TrackPointExtension>
        </extensions>
      </trkpt>
      <trkpt lat="45.3327952511608600616455078125" lon="-71.00912190042436122894287109375">
        <ele>853.79998779296875</ele>
        <time>2026-08-21T20:15:56.000Z</time>
        <extensions>
          <ns3:TrackPointExtension>
            <ns3:hr>136</ns3:hr>
            <ns3:cad>50</ns3:cad>
          </ns3:TrackPointExtension>
        </extensions>
      </trkpt>
      <trkpt lat="45.33278904855251312255859375" lon="-71.00911888293921947479248046875">
        <ele>853.4000244140625</ele>
        <time>2026-08-21T20:15:57.000Z</time>
        <extensions>
          <ns3:TrackPointExtension>
            <ns3:hr>137</ns3:hr>
            <ns3:cad>50</ns3:cad>
          </ns3:TrackPointExtension>
        </extensions>
      </trkpt>
      <trkpt lat="45.33278594724833965301513671875" lon="-71.0091154463589191436767578125">
        <ele>852.79998779296875</ele>
        <time>2026-08-21T20:15:58.000Z</time>
        <extensions>
          <ns3:TrackPointExtension>
            <ns3:hr>137</ns3:hr>
            <ns3:cad>0</ns3:cad>
          </ns3:TrackPointExtension>
        </extensions>
      </trkpt>
      <trkpt lat="45.332779996097087860107421875" lon="-71.00910614244639873504638671875">
        <ele>852.4000244140625</ele>
        <time>2026-08-21T20:15:59.000Z</time>
        <extensions>
          <ns3:TrackPointExtension>
            <ns3:hr>137</ns3:hr>
            <ns3:cad>0</ns3:cad>
          </ns3:TrackPointExtension>
        </extensions>
      </trkpt>
      <trkpt lat="45.33277672715485095977783203125" lon="-71.0090879537165164947509765625">
        <ele>851.79998779296875</ele>
        <time>2026-08-21T20:16:00.000Z</time>
        <extensions>
          <ns3:TrackPointExtension>
            <ns3:hr>136</ns3:hr>
            <ns3:cad>0</ns3:cad>
          </ns3:TrackPointExtension>
        </extensions>
      </trkpt>
      <trkpt lat="45.332778990268707275390625" lon="-71.0090758837759494781494140625">
        <ele>851.4000244140625</ele>
        <time>2026-08-21T20:16:01.000Z</time>
        <extensions>
          <ns3:TrackPointExtension>
            <ns3:hr>136</ns3:hr>
            <ns3:cad>0</ns3:cad>
          </ns3:TrackPointExtension>
        </extensions>
      </trkpt>
      <trkpt lat="45.3327935747802257537841796875" lon="-71.00906632840633392333984375">
        <ele>851</ele>
        <time>2026-08-21T20:16:02.000Z</time>
        <extensions>
          <ns3:TrackPointExtension>
            <ns3:hr>136</ns3:hr>
            <ns3:cad>0</ns3:cad>
          </ns3:TrackPointExtension>
        </extensions>
      </trkpt>
      <trkpt lat="45.3328002803027629852294921875" lon="-71.00906255654990673065185546875">
        <ele>850.5999755859375</ele>
        <time>2026-08-21T20:16:03.000Z</time>
        <extensions>
          <ns3:TrackPointExtension>
            <ns3:hr>136</ns3:hr>
            <ns3:cad>0</ns3:cad>
          </ns3:TrackPointExtension>
        </extensions>
      </trkpt>
      <trkpt lat="45.33280991949141025543212890625" lon="-71.009056605398654937744140625">
        <ele>850.20001220703125</ele>
        <time>2026-08-21T20:16:04.000Z</time>
        <extensions>
          <ns3:TrackPointExtension>
            <ns3:hr>136</ns3:hr>
            <ns3:cad>0</ns3:cad>
          </ns3:TrackPointExtension>
        </extensions>
      </trkpt>
      <trkpt lat="45.33281796611845493316650390625" lon="-71.00904713384807109832763671875">
        <ele>850</ele>
        <time>2026-08-21T20:16:05.000Z</time>
        <extensions>
          <ns3:TrackPointExtension>
            <ns3:hr>136</ns3:hr>
            <ns3:cad>0</ns3:cad>
          </ns3:TrackPointExtension>
        </extensions>
      </trkpt>
      <trkpt lat="45.33282525837421417236328125" lon="-71.00903254933655261993408203125">
        <ele>849.5999755859375</ele>
        <time>2026-08-21T20:16:06.000Z</time>
        <extensions>
          <ns3:TrackPointExtension>
            <ns3:hr>136</ns3:hr>
            <ns3:cad>0</ns3:cad>
          </ns3:TrackPointExtension>
        </extensions>
      </trkpt>
      <trkpt lat="45.3328328020870685577392578125" lon="-71.00901980884373188018798828125">
        <ele>849.20001220703125</ele>
        <time>2026-08-21T20:16:07.000Z</time>
        <extensions>
          <ns3:TrackPointExtension>
            <ns3:hr>135</ns3:hr>
            <ns3:cad>0</ns3:cad>
          </ns3:TrackPointExtension>
        </extensions>
      </trkpt>
      <trkpt lat="45.33283590339124202728271484375" lon="-71.00899927318096160888671875">
        <ele>848.79998779296875</ele>
        <time>2026-08-21T20:16:08.000Z</time>
        <extensions>
          <ns3:TrackPointExtension>
            <ns3:hr>135</ns3:hr>
            <ns3:cad>0</ns3:cad>
          </ns3:TrackPointExtension>
        </extensions>
      </trkpt>
      <trkpt lat="45.3328366577625274658203125" lon="-71.00897219963371753692626953125">
        <ele>848.20001220703125</ele>
        <time>2026-08-21T20:16:09.000Z</time>
        <extensions>
          <ns3:TrackPointExtension>
            <ns3:hr>135</ns3:hr>
            <ns3:cad>0</ns3:cad>
          </ns3:TrackPointExtension>
        </extensions>
      </trkpt>
      <trkpt lat="45.3328378312289714813232421875" lon="-71.00894956849515438079833984375">
        <ele>847.5999755859375</ele>
        <time>2026-08-21T20:16:10.000Z</time>
        <extensions>
          <ns3:TrackPointExtension>
            <ns3:hr>135</ns3:hr>
            <ns3:cad>0</ns3:cad>
          </ns3:TrackPointExtension>
        </extensions>
      </trkpt>
      <trkpt lat="45.3328338079154491424560546875" lon="-71.0089223273098468780517578125">
        <ele>847.20001220703125</ele>
        <time>2026-08-21T20:16:11.000Z</time>
        <extensions>
          <ns3:TrackPointExtension>
            <ns3:hr>136</ns3:hr>
            <ns3:cad>0</ns3:cad>
          </ns3:TrackPointExtension>
        </extensions>
      </trkpt>
      <trkpt lat="45.33283070661127567291259765625" lon="-71.00891252048313617706298828125">
        <ele>846.5999755859375</ele>
        <time>2026-08-21T20:16:12.000Z</time>
        <extensions>
          <ns3:TrackPointExtension>
            <ns3:hr>135</ns3:hr>
            <ns3:cad>0</ns3:cad>
          </ns3:TrackPointExtension>
        </extensions>
      </trkpt>
      <trkpt lat="45.33283405937254428863525390625" lon="-71.00889961235225200653076171875">
        <ele>846.20001220703125</ele>
        <time>2026-08-21T20:16:13.000Z</time>
        <extensions>
          <ns3:TrackPointExtension>
            <ns3:hr>135</ns3:hr>
            <ns3:cad>0</ns3:cad>
          </ns3:TrackPointExtension>
        </extensions>
      </trkpt>
      <trkpt lat="45.33284093253314495086669921875" lon="-71.0088898055255413055419921875">
        <ele>845.79998779296875</ele>
        <time>2026-08-21T20:16:14.000Z</time>
        <extensions>
          <ns3:TrackPointExtension>
            <ns3:hr>135</ns3:hr>
            <ns3:cad>0</ns3:cad>
          </ns3:TrackPointExtension>
        </extensions>
      </trkpt>
      <trkpt lat="45.33285736106336116790771484375" lon="-71.00887463428080081939697265625">
        <ele>845.5999755859375</ele>
        <time>2026-08-21T20:16:15.000Z</time>
        <extensions>
          <ns3:TrackPointExtension>
            <ns3:hr>135</ns3:hr>
            <ns3:cad>0</ns3:cad>
          </ns3:TrackPointExtension>
        </extensions>
      </trkpt>
      <trkpt lat="45.3328646533191204071044921875" lon="-71.00885921157896518707275390625">
        <ele>845.20001220703125</ele>
        <time>2026-08-21T20:16:16.000Z</time>
        <extensions>
          <ns3:TrackPointExtension>
            <ns3:hr>136</ns3:hr>
            <ns3:cad>0</ns3:cad>
          </ns3:TrackPointExtension>
        </extensions>
      </trkpt>
      <trkpt lat="45.33286859281361103057861328125" lon="-71.00883741863071918487548828125">
        <ele>844.79998779296875</ele>
        <time>2026-08-21T20:16:17.000Z</time>
        <extensions>
          <ns3:TrackPointExtension>
            <ns3:hr>136</ns3:hr>
            <ns3:cad>0</ns3:cad>
          </ns3:TrackPointExtension>
        </extensions>
      </trkpt>
      <trkpt lat="45.33287211321294307708740234375" lon="-71.0088083334267139434814453125">
        <ele>844.20001220703125</ele>
        <time>2026-08-21T20:16:18.000Z</time>
        <extensions>
          <ns3:TrackPointExtension>
            <ns3:hr>136</ns3:hr>
            <ns3:cad>0</ns3:cad>
          </ns3:TrackPointExtension>
        </extensions>
      </trkpt>
      <trkpt lat="45.33287613652646541595458984375" lon="-71.0087865404784679412841796875">
        <ele>844</ele>
        <time>2026-08-21T20:16:19.000Z</time>
        <extensions>
          <ns3:TrackPointExtension>
            <ns3:hr>136</ns3:hr>
            <ns3:cad>0</ns3:cad>
          </ns3:TrackPointExtension>
        </extensions>
      </trkpt>
      <trkpt lat="45.3328851051628589630126953125" lon="-71.008768267929553985595703125">
        <ele>843.5999755859375</ele>
        <time>2026-08-21T20:16:20.000Z</time>
        <extensions>
          <ns3:TrackPointExtension>
            <ns3:hr>135</ns3:hr>
            <ns3:cad>0</ns3:cad>
          </ns3:TrackPointExtension>
        </extensions>
      </trkpt>
      <trkpt lat="45.3328958339989185333251953125" lon="-71.008751504123210906982421875">
        <ele>843.4000244140625</ele>
        <time>2026-08-21T20:16:21.000Z</time>
        <extensions>
          <ns3:TrackPointExtension>
            <ns3:hr>135</ns3:hr>
            <ns3:cad>0</ns3:cad>
          </ns3:TrackPointExtension>
        </extensions>
      </trkpt>
      <trkpt lat="45.3329052217304706573486328125" lon="-71.00874102674424648284912109375">
        <ele>843.20001220703125</ele>
        <time>2026-08-21T20:16:22.000Z</time>
        <extensions>
          <ns3:TrackPointExtension>
            <ns3:hr>134</ns3:hr>
            <ns3:cad>0</ns3:cad>
          </ns3:TrackPointExtension>
        </extensions>
      </trkpt>
      <trkpt lat="45.33291645348072052001953125" lon="-71.0087379254400730133056640625">
        <ele>843.20001220703125</ele>
        <time>2026-08-21T20:16:23.000Z</time>
        <extensions>
          <ns3:TrackPointExtension>
            <ns3:hr>134</ns3:hr>
            <ns3:cad>0</ns3:cad>
          </ns3:TrackPointExtension>
        </extensions>
      </trkpt>
      <trkpt lat="45.33293179236352443695068359375" lon="-71.0087339021265506744384765625">
        <ele>843.20001220703125</ele>
        <time>2026-08-21T20:16:24.000Z</time>
        <extensions>
          <ns3:TrackPointExtension>
            <ns3:hr>133</ns3:hr>
            <ns3:cad>0</ns3:cad>
          </ns3:TrackPointExtension>
        </extensions>
      </trkpt>
      <trkpt lat="45.33294470049440860748291015625" lon="-71.00872728042304515838623046875">
        <ele>843.20001220703125</ele>
        <time>2026-08-21T20:16:25.000Z</time>
        <extensions>
          <ns3:TrackPointExtension>
            <ns3:hr>133</ns3:hr>
            <ns3:cad>72</ns3:cad>
          </ns3:TrackPointExtension>
        </extensions>
      </trkpt>
      <trkpt lat="45.33296314068138599395751953125" lon="-71.00871956907212734222412109375">
        <ele>843.20001220703125</ele>
        <time>2026-08-21T20:16:26.000Z</time>
        <extensions>
          <ns3:TrackPointExtension>
            <ns3:hr>132</ns3:hr>
            <ns3:cad>72</ns3:cad>
          </ns3:TrackPointExtension>
        </extensions>
      </trkpt>
      <trkpt lat="45.33297772519290447235107421875" lon="-71.00871806032955646514892578125">
        <ele>843.20001220703125</ele>
        <time>2026-08-21T20:16:27.000Z</time>
        <extensions>
          <ns3:TrackPointExtension>
            <ns3:hr>132</ns3:hr>
            <ns3:cad>72</ns3:cad>
          </ns3:TrackPointExtension>
        </extensions>
      </trkpt>
      <trkpt lat="45.332989208400249481201171875" lon="-71.00871034897863864898681640625">
        <ele>843.20001220703125</ele>
        <time>2026-08-21T20:16:28.000Z</time>
        <extensions>
          <ns3:TrackPointExtension>
            <ns3:hr>131</ns3:hr>
            <ns3:cad>72</ns3:cad>
          </ns3:TrackPointExtension>
        </extensions>
      </trkpt>
      <trkpt lat="45.33300102688372135162353515625" lon="-71.0087008774280548095703125">
        <ele>843</ele>
        <time>2026-08-21T20:16:29.000Z</time>
        <extensions>
          <ns3:TrackPointExtension>
            <ns3:hr>131</ns3:hr>
            <ns3:cad>72</ns3:cad>
          </ns3:TrackPointExtension>
        </extensions>
      </trkpt>
      <trkpt lat="45.33301393501460552215576171875" lon="-71.00868604145944118499755859375">
        <ele>843</ele>
        <time>2026-08-21T20:16:30.000Z</time>
        <extensions>
          <ns3:TrackPointExtension>
            <ns3:hr>130</ns3:hr>
            <ns3:cad>72</ns3:cad>
          </ns3:TrackPointExtension>
        </extensions>
      </trkpt>
      <trkpt lat="45.3330252505838871002197265625" lon="-71.0086701996624469757080078125">
        <ele>842.79998779296875</ele>
        <time>2026-08-21T20:16:31.000Z</time>
        <extensions>
          <ns3:TrackPointExtension>
            <ns3:hr>130</ns3:hr>
            <ns3:cad>72</ns3:cad>
          </ns3:TrackPointExtension>
        </extensions>
      </trkpt>
      <trkpt lat="45.33303924836218357086181640625" lon="-71.00865167565643787384033203125">
        <ele>842.79998779296875</ele>
        <time>2026-08-21T20:16:32.000Z</time>
        <extensions>
          <ns3:TrackPointExtension>
            <ns3:hr>130</ns3:hr>
            <ns3:cad>72</ns3:cad>
          </ns3:TrackPointExtension>
        </extensions>
      </trkpt>
      <trkpt lat="45.33305483870208263397216796875" lon="-71.00863541476428508758544921875">
        <ele>842.5999755859375</ele>
        <time>2026-08-21T20:16:33.000Z</time>
        <extensions>
          <ns3:TrackPointExtension>
            <ns3:hr>130</ns3:hr>
            <ns3:cad>72</ns3:cad>
          </ns3:TrackPointExtension>
        </extensions>
      </trkpt>
      <trkpt lat="45.33306908793747425079345703125" lon="-71.008621416985988616943359375">
        <ele>842.5999755859375</ele>
        <time>2026-08-21T20:16:34.000Z</time>
        <extensions>
          <ns3:TrackPointExtension>
            <ns3:hr>130</ns3:hr>
            <ns3:cad>72</ns3:cad>
          </ns3:TrackPointExtension>
        </extensions>
      </trkpt>
      <trkpt lat="45.33308015204966068267822265625" lon="-71.008607335388660430908203125">
        <ele>842.5999755859375</ele>
        <time>2026-08-21T20:16:35.000Z</time>
        <extensions>
          <ns3:TrackPointExtension>
            <ns3:hr>129</ns3:hr>
            <ns3:cad>72</ns3:cad>
          </ns3:TrackPointExtension>
        </extensions>
      </trkpt>
      <trkpt lat="45.333090126514434814453125" lon="-71.00859249942004680633544921875">
        <ele>842.5999755859375</ele>
        <time>2026-08-21T20:16:36.000Z</time>
        <extensions>
          <ns3:TrackPointExtension>
            <ns3:hr>129</ns3:hr>
            <ns3:cad>72</ns3:cad>
          </ns3:TrackPointExtension>
        </extensions>
      </trkpt>
      <trkpt lat="45.3330990113317966461181640625" lon="-71.00858394987881183624267578125">
        <ele>842.5999755859375</ele>
        <time>2026-08-21T20:16:37.000Z</time>
        <extensions>
          <ns3:TrackPointExtension>
            <ns3:hr>129</ns3:hr>
            <ns3:cad>72</ns3:cad>
          </ns3:TrackPointExtension>
        </extensions>
      </trkpt>
      <trkpt lat="45.3331100754439830780029296875" lon="-71.0085826925933361053466796875">
        <ele>842.5999755859375</ele>
        <time>2026-08-21T20:16:38.000Z</time>
        <extensions>
          <ns3:TrackPointExtension>
            <ns3:hr>129</ns3:hr>
            <ns3:cad>72</ns3:cad>
          </ns3:TrackPointExtension>
        </extensions>
      </trkpt>
      <trkpt lat="45.33312407322227954864501953125" lon="-71.0085763223469257354736328125">
        <ele>842.5999755859375</ele>
        <time>2026-08-21T20:16:39.000Z</time>
        <extensions>
          <ns3:TrackPointExtension>
            <ns3:hr>129</ns3:hr>
            <ns3:cad>72</ns3:cad>
          </ns3:TrackPointExtension>
        </extensions>
      </trkpt>
      <trkpt lat="45.33313279040157794952392578125" lon="-71.00856517441570758819580078125">
        <ele>842.79998779296875</ele>
        <time>2026-08-21T20:16:40.000Z</time>
        <extensions>
          <ns3:TrackPointExtension>
            <ns3:hr>128</ns3:hr>
            <ns3:cad>0</ns3:cad>
          </ns3:TrackPointExtension>
        </extensions>
      </trkpt>
      <trkpt lat="45.33314201049506664276123046875" lon="-71.0085622407495975494384765625">
        <ele>842.79998779296875</ele>
        <time>2026-08-21T20:16:41.000Z</time>
        <extensions>
          <ns3:TrackPointExtension>
            <ns3:hr>129</ns3:hr>
            <ns3:cad>0</ns3:cad>
          </ns3:TrackPointExtension>
        </extensions>
      </trkpt>
      <trkpt lat="45.3331526555120944976806640625" lon="-71.0085585527122020721435546875">
        <ele>843</ele>
        <time>2026-08-21T20:16:42.000Z</time>
        <extensions>
          <ns3:TrackPointExtension>
            <ns3:hr>130</ns3:hr>
            <ns3:cad>0</ns3:cad>
          </ns3:TrackPointExtension>
        </extensions>
      </trkpt>
      <trkpt lat="45.33316531218588352203369140625" lon="-71.00855478085577487945556640625">
        <ele>843</ele>
        <time>2026-08-21T20:16:43.000Z</time>
        <extensions>
          <ns3:TrackPointExtension>
            <ns3:hr>130</ns3:hr>
            <ns3:cad>0</ns3:cad>
          </ns3:TrackPointExtension>
        </extensions>
      </trkpt>
      <trkpt lat="45.3331774659454822540283203125" lon="-71.00854891352355480194091796875">
        <ele>843.20001220703125</ele>
        <time>2026-08-21T20:16:44.000Z</time>
        <extensions>
          <ns3:TrackPointExtension>
            <ns3:hr>130</ns3:hr>
            <ns3:cad>0</ns3:cad>
          </ns3:TrackPointExtension>
        </extensions>
      </trkpt>
      <trkpt lat="45.33318425528705120086669921875" lon="-71.0085273720324039459228515625">
        <ele>843.20001220703125</ele>
        <time>2026-08-21T20:16:45.000Z</time>
        <extensions>
          <ns3:TrackPointExtension>
            <ns3:hr>130</ns3:hr>
            <ns3:cad>0</ns3:cad>
          </ns3:TrackPointExtension>
        </extensions>
      </trkpt>
      <trkpt lat="45.33318693749606609344482421875" lon="-71.0085035674273967742919921875">
        <ele>843.4000244140625</ele>
        <time>2026-08-21T20:16:46.000Z</time>
        <extensions>
          <ns3:TrackPointExtension>
            <ns3:hr>129</ns3:hr>
            <ns3:cad>0</ns3:cad>
          </ns3:TrackPointExtension>
        </extensions>
      </trkpt>
      <trkpt lat="45.33319498412311077117919921875" lon="-71.0084787569940090179443359375">
        <ele>843.4000244140625</ele>
        <time>2026-08-21T20:16:47.000Z</time>
        <extensions>
          <ns3:TrackPointExtension>
            <ns3:hr>129</ns3:hr>
            <ns3:cad>0</ns3:cad>
          </ns3:TrackPointExtension>
        </extensions>
      </trkpt>
      <trkpt lat="45.333204455673694610595703125" lon="-71.0084593109786510467529296875">
        <ele>843.4000244140625</ele>
        <time>2026-08-21T20:16:48.000Z</time>
        <extensions>
          <ns3:TrackPointExtension>
            <ns3:hr>129</ns3:hr>
            <ns3:cad>0</ns3:cad>
          </ns3:TrackPointExtension>
        </extensions>
      </trkpt>
      <trkpt lat="45.33321526832878589630126953125" lon="-71.00844673812389373779296875">
        <ele>843.4000244140625</ele>
        <time>2026-08-21T20:16:49.000Z</time>
        <extensions>
          <ns3:TrackPointExtension>
            <ns3:hr>129</ns3:hr>
            <ns3:cad>0</ns3:cad>
          </ns3:TrackPointExtension>
        </extensions>
      </trkpt>
      <trkpt lat="45.3332203812897205352783203125" lon="-71.00843793712556362152099609375">
        <ele>843.5999755859375</ele>
        <time>2026-08-21T20:16:50.000Z</time>
        <extensions>
          <ns3:TrackPointExtension>
            <ns3:hr>129</ns3:hr>
            <ns3:cad>54</ns3:cad>
          </ns3:TrackPointExtension>
        </extensions>
      </trkpt>
      <trkpt lat="45.3332233987748622894287109375" lon="-71.00842528045177459716796875">
        <ele>843.5999755859375</ele>
        <time>2026-08-21T20:16:51.000Z</time>
        <extensions>
          <ns3:TrackPointExtension>
            <ns3:hr>129</ns3:hr>
            <ns3:cad>57</ns3:cad>
          </ns3:TrackPointExtension>
        </extensions>
      </trkpt>
      <trkpt lat="45.33322893083095550537109375" lon="-71.0084086842834949493408203125">
        <ele>843.5999755859375</ele>
        <time>2026-08-21T20:16:52.000Z</time>
        <extensions>
          <ns3:TrackPointExtension>
            <ns3:hr>130</ns3:hr>
            <ns3:cad>57</ns3:cad>
          </ns3:TrackPointExtension>
        </extensions>
      </trkpt>
      <trkpt lat="45.33323219977319240570068359375" lon="-71.00840038619935512542724609375">
        <ele>843.5999755859375</ele>
        <time>2026-08-21T20:16:53.000Z</time>
        <extensions>
          <ns3:TrackPointExtension>
            <ns3:hr>129</ns3:hr>
            <ns3:cad>57</ns3:cad>
          </ns3:TrackPointExtension>
        </extensions>
      </trkpt>
      <trkpt lat="45.33323521725833415985107421875" lon="-71.00838596932590007781982421875">
        <ele>843.5999755859375</ele>
        <time>2026-08-21T20:16:54.000Z</time>
        <extensions>
          <ns3:TrackPointExtension>
            <ns3:hr>129</ns3:hr>
            <ns3:cad>57</ns3:cad>
          </ns3:TrackPointExtension>
        </extensions>
      </trkpt>
      <trkpt lat="45.3332384862005710601806640625" lon="-71.00837373174726963043212890625">
        <ele>843.4000244140625</ele>
        <time>2026-08-21T20:16:55.000Z</time>
        <extensions>
          <ns3:TrackPointExtension>
            <ns3:hr>130</ns3:hr>
            <ns3:cad>57</ns3:cad>
          </ns3:TrackPointExtension>
        </extensions>
      </trkpt>
      <trkpt lat="45.333251394331455230712890625" lon="-71.00835478864610195159912109375">
        <ele>843</ele>
        <time>2026-08-21T20:16:56.000Z</time>
        <extensions>
          <ns3:TrackPointExtension>
            <ns3:hr>130</ns3:hr>
            <ns3:cad>57</ns3:cad>
          </ns3:TrackPointExtension>
        </extensions>
      </trkpt>
      <trkpt lat="45.333257429301738739013671875" lon="-71.00834607146680355072021484375">
        <ele>842.79998779296875</ele>
        <time>2026-08-21T20:16:57.000Z</time>
        <extensions>
          <ns3:TrackPointExtension>
            <ns3:hr>130</ns3:hr>
            <ns3:cad>57</ns3:cad>
          </ns3:TrackPointExtension>
        </extensions>
      </trkpt>
      <trkpt lat="45.3332653082907199859619140625" lon="-71.0083332471549510955810546875">
        <ele>842.4000244140625</ele>
        <time>2026-08-21T20:16:58.000Z</time>
        <extensions>
          <ns3:TrackPointExtension>
            <ns3:hr>130</ns3:hr>
            <ns3:cad>57</ns3:cad>
          </ns3:TrackPointExtension>
        </extensions>
      </trkpt>
      <trkpt lat="45.33326958306133747100830078125" lon="-71.00831975229084491729736328125">
        <ele>842.20001220703125</ele>
        <time>2026-08-21T20:16:59.000Z</time>
        <extensions>
          <ns3:TrackPointExtension>
            <ns3:hr>131</ns3:hr>
            <ns3:cad>57</ns3:cad>
          </ns3:TrackPointExtension>
        </extensions>
      </trkpt>
      <trkpt lat="45.3332736901938915252685546875" lon="-71.008300893008708953857421875">
        <ele>841.79998779296875</ele>
        <time>2026-08-21T20:17:00.000Z</time>
        <extensions>
          <ns3:TrackPointExtension>
            <ns3:hr>131</ns3:hr>
            <ns3:cad>57</ns3:cad>
          </ns3:TrackPointExtension>
        </extensions>
      </trkpt>
      <trkpt lat="45.33327779732644557952880859375" lon="-71.00828069262206554412841796875">
        <ele>841.4000244140625</ele>
        <time>2026-08-21T20:17:01.000Z</time>
        <extensions>
          <ns3:TrackPointExtension>
            <ns3:hr>130</ns3:hr>
            <ns3:cad>57</ns3:cad>
          </ns3:TrackPointExtension>
        </extensions>
      </trkpt>
      <trkpt lat="45.33327729441225528717041015625" lon="-71.00825906731188297271728515625">
        <ele>841</ele>
        <time>2026-08-21T20:17:02.000Z</time>
        <extensions>
          <ns3:TrackPointExtension>
            <ns3:hr>130</ns3:hr>
            <ns3:cad>57</ns3:cad>
          </ns3:TrackPointExtension>
        </extensions>
      </trkpt>
      <trkpt lat="45.33327394165098667144775390625" lon="-71.008239202201366424560546875">
        <ele>840.5999755859375</ele>
        <time>2026-08-21T20:17:03.000Z</time>
        <extensions>
          <ns3:TrackPointExtension>
            <ns3:hr>130</ns3:hr>
            <ns3:cad>57</ns3:cad>
          </ns3:TrackPointExtension>
        </extensions>
      </trkpt>
      <trkpt lat="45.3332643024623394012451171875" lon="-71.00822151638567447662353515625">
        <ele>840</ele>
        <time>2026-08-21T20:17:04.000Z</time>
        <extensions>
          <ns3:TrackPointExtension>
            <ns3:hr>130</ns3:hr>
            <ns3:cad>0</ns3:cad>
          </ns3:TrackPointExtension>
        </extensions>
      </trkpt>
      <trkpt lat="45.33325038850307464599609375" lon="-71.00821112282574176788330078125">
        <ele>839.5999755859375</ele>
        <time>2026-08-21T20:17:05.000Z</time>
        <extensions>
          <ns3:TrackPointExtension>
            <ns3:hr>130</ns3:hr>
            <ns3:cad>0</ns3:cad>
          </ns3:TrackPointExtension>
        </extensions>
      </trkpt>
      <trkpt lat="45.33323823474347591400146484375" lon="-71.0082018189132213592529296875">
        <ele>839.20001220703125</ele>
        <time>2026-08-21T20:17:06.000Z</time>
        <extensions>
          <ns3:TrackPointExtension>
            <ns3:hr>130</ns3:hr>
            <ns3:cad>0</ns3:cad>
          </ns3:TrackPointExtension>
        </extensions>
      </trkpt>
      <trkpt lat="45.33322650007903575897216796875" lon="-71.00819704122841358184814453125">
        <ele>838.79998779296875</ele>
        <time>2026-08-21T20:17:07.000Z</time>
        <extensions>
          <ns3:TrackPointExtension>
            <ns3:hr>130</ns3:hr>
            <ns3:cad>0</ns3:cad>
          </ns3:TrackPointExtension>
        </extensions>
      </trkpt>
      <trkpt lat="45.33322012983262538909912109375" lon="-71.00818656384944915771484375">
        <ele>838.4000244140625</ele>
        <time>2026-08-21T20:17:08.000Z</time>
        <extensions>
          <ns3:TrackPointExtension>
            <ns3:hr>130</ns3:hr>
            <ns3:cad>0</ns3:cad>
          </ns3:TrackPointExtension>
        </extensions>
      </trkpt>
      <trkpt lat="45.333218537271022796630859375" lon="-71.008175499737262725830078125">
        <ele>838</ele>
        <time>2026-08-21T20:17:09.000Z</time>
        <extensions>
          <ns3:TrackPointExtension>
            <ns3:hr>129</ns3:hr>
            <ns3:cad>0</ns3:cad>
          </ns3:TrackPointExtension>
        </extensions>
      </trkpt>
      <trkpt lat="45.3332193754613399505615234375" lon="-71.00816518999636173248291015625">
        <ele>837.79998779296875</ele>
        <time>2026-08-21T20:17:10.000Z</time>
        <extensions>
          <ns3:TrackPointExtension>
            <ns3:hr>130</ns3:hr>
            <ns3:cad>0</ns3:cad>
          </ns3:TrackPointExtension>
        </extensions>
      </trkpt>
      <trkpt lat="45.333222560584545135498046875" lon="-71.0081578977406024932861328125">
        <ele>837.5999755859375</ele>
        <time>2026-08-21T20:17:11.000Z</time>
        <extensions>
          <ns3:TrackPointExtension>
            <ns3:hr>131</ns3:hr>
            <ns3:cad>0</ns3:cad>
          </ns3:TrackPointExtension>
        </extensions>
      </trkpt>
      <trkpt lat="45.33322867937386035919189453125" lon="-71.00813551805913448333740234375">
        <ele>837.4000244140625</ele>
        <time>2026-08-21T20:17:12.000Z</time>
        <extensions>
          <ns3:TrackPointExtension>
            <ns3:hr>131</ns3:hr>
            <ns3:cad>0</ns3:cad>
          </ns3:TrackPointExtension>
        </extensions>
      </trkpt>
      <trkpt lat="45.33322582952678203582763671875" lon="-71.0081133060157299041748046875">
        <ele>837.20001220703125</ele>
        <time>2026-08-21T20:17:13.000Z</time>
        <extensions>
          <ns3:TrackPointExtension>
            <ns3:hr>131</ns3:hr>
            <ns3:cad>0</ns3:cad>
          </ns3:TrackPointExtension>
        </extensions>
      </trkpt>
      <trkpt lat="45.33322096802294254302978515625" lon="-71.00810148753225803375244140625">
        <ele>837</ele>
        <time>2026-08-21T20:17:14.000Z</time>
        <extensions>
          <ns3:TrackPointExtension>
            <ns3:hr>131</ns3:hr>
            <ns3:cad>0</ns3:cad>
          </ns3:TrackPointExtension>
        </extensions>
      </trkpt>
      <trkpt lat="45.333211831748485565185546875" lon="-71.0080781020224094390869140625">
        <ele>836.79998779296875</ele>
        <time>2026-08-21T20:17:15.000Z</time>
        <extensions>
          <ns3:TrackPointExtension>
            <ns3:hr>130</ns3:hr>
            <ns3:cad>0</ns3:cad>
          </ns3:TrackPointExtension>
        </extensions>
      </trkpt>
      <trkpt lat="45.3331955708563327789306640625" lon="-71.008072234690189361572265625">
        <ele>836.5999755859375</ele>
        <time>2026-08-21T20:17:16.000Z</time>
        <extensions>
          <ns3:TrackPointExtension>
            <ns3:hr>130</ns3:hr>
            <ns3:cad>0</ns3:cad>
          </ns3:TrackPointExtension>
        </extensions>
      </trkpt>
      <trkpt lat="45.33318475820124149322509765625" lon="-71.0080559737980365753173828125">
        <ele>836.20001220703125</ele>
        <time>2026-08-21T20:17:17.000Z</time>
        <extensions>
          <ns3:TrackPointExtension>
            <ns3:hr>130</ns3:hr>
            <ns3:cad>0</ns3:cad>
          </ns3:TrackPointExtension>
        </extensions>
      </trkpt>
      <trkpt lat="45.33317604102194309234619140625" lon="-71.00804801099002361297607421875">
        <ele>836</ele>
        <time>2026-08-21T20:17:18.000Z</time>
        <extensions>
          <ns3:TrackPointExtension>
            <ns3:hr>129</ns3:hr>
            <ns3:cad>0</ns3:cad>
          </ns3:TrackPointExtension>
        </extensions>
      </trkpt>
      <trkpt lat="45.33316883258521556854248046875" lon="-71.00803208537399768829345703125">
        <ele>835.79998779296875</ele>
        <time>2026-08-21T20:17:19.000Z</time>
        <extensions>
          <ns3:TrackPointExtension>
            <ns3:hr>128</ns3:hr>
            <ns3:cad>41</ns3:cad>
          </ns3:TrackPointExtension>
        </extensions>
      </trkpt>
      <trkpt lat="45.3331653960049152374267578125" lon="-71.00802202709019184112548828125">
        <ele>835.4000244140625</ele>
        <time>2026-08-21T20:17:20.000Z</time>
        <extensions>
          <ns3:TrackPointExtension>
            <ns3:hr>128</ns3:hr>
            <ns3:cad>41</ns3:cad>
          </ns3:TrackPointExtension>
        </extensions>
      </trkpt>
      <trkpt lat="45.33315843902528285980224609375" lon="-71.00799738429486751556396484375">
        <ele>835.20001220703125</ele>
        <time>2026-08-21T20:17:21.000Z</time>
        <extensions>
          <ns3:TrackPointExtension>
            <ns3:hr>125</ns3:hr>
            <ns3:cad>0</ns3:cad>
          </ns3:TrackPointExtension>
        </extensions>
      </trkpt>
      <trkpt lat="45.33314335159957408905029296875" lon="-71.00799285806715488433837890625">
        <ele>835</ele>
        <time>2026-08-21T20:17:22.000Z</time>
        <extensions>
          <ns3:TrackPointExtension>
            <ns3:hr>124</ns3:hr>
            <ns3:cad>0</ns3:cad>
          </ns3:TrackPointExtension>
        </extensions>
      </trkpt>
      <trkpt lat="45.33313312567770481109619140625" lon="-71.0079788602888584136962890625">
        <ele>834.5999755859375</ele>
        <time>2026-08-21T20:17:23.000Z</time>
        <extensions>
          <ns3:TrackPointExtension>
            <ns3:hr>123</ns3:hr>
            <ns3:cad>0</ns3:cad>
          </ns3:TrackPointExtension>
        </extensions>
      </trkpt>
      <trkpt lat="45.3331301920115947723388671875" lon="-71.00796352140605449676513671875">
        <ele>834.4000244140625</ele>
        <time>2026-08-21T20:17:24.000Z</time>
        <extensions>
          <ns3:TrackPointExtension>
            <ns3:hr>124</ns3:hr>
            <ns3:cad>0</ns3:cad>
          </ns3:TrackPointExtension>
        </extensions>
      </trkpt>
      <trkpt lat="45.3331261686980724334716796875" lon="-71.007952205836772918701171875">
        <ele>834</ele>
        <time>2026-08-21T20:17:25.000Z</time>
        <extensions>
          <ns3:TrackPointExtension>
            <ns3:hr>124</ns3:hr>
            <ns3:cad>0</ns3:cad>
          </ns3:TrackPointExtension>
        </extensions>
      </trkpt>
      <trkpt lat="45.3331191278994083404541015625" lon="-71.0079413093626499176025390625">
        <ele>833.79998779296875</ele>
        <time>2026-08-21T20:17:26.000Z</time>
        <extensions>
          <ns3:TrackPointExtension>
            <ns3:hr>124</ns3:hr>
            <ns3:cad>0</ns3:cad>
          </ns3:TrackPointExtension>
        </extensions>
      </trkpt>
      <trkpt lat="45.33311652950942516326904296875" lon="-71.00792731158435344696044921875">
        <ele>833.5999755859375</ele>
        <time>2026-08-21T20:17:27.000Z</time>
        <extensions>
          <ns3:TrackPointExtension>
            <ns3:hr>124</ns3:hr>
            <ns3:cad>0</ns3:cad>
          </ns3:TrackPointExtension>
        </extensions>
      </trkpt>
      <trkpt lat="45.3331104107201099395751953125" lon="-71.00790434516966342926025390625">
        <ele>833.4000244140625</ele>
        <time>2026-08-21T20:17:28.000Z</time>
        <extensions>
          <ns3:TrackPointExtension>
            <ns3:hr>123</ns3:hr>
            <ns3:cad>0</ns3:cad>
          </ns3:TrackPointExtension>
        </extensions>
      </trkpt>
      <trkpt lat="45.33310018479824066162109375" lon="-71.00788992829620838165283203125">
        <ele>833.20001220703125</ele>
        <time>2026-08-21T20:17:29.000Z</time>
        <extensions>
          <ns3:TrackPointExtension>
            <ns3:hr>124</ns3:hr>
            <ns3:cad>0</ns3:cad>
          </ns3:TrackPointExtension>
        </extensions>
      </trkpt>
      <trkpt lat="45.333091132342815399169921875" lon="-71.00787735544145107269287109375">
        <ele>833</ele>
        <time>2026-08-21T20:17:30.000Z</time>
        <extensions>
          <ns3:TrackPointExtension>
            <ns3:hr>124</ns3:hr>
            <ns3:cad>57</ns3:cad>
          </ns3:TrackPointExtension>
        </extensions>
      </trkpt>
      <trkpt lat="45.33308333717286586761474609375" lon="-71.00786444731056690216064453125">
        <ele>832.79998779296875</ele>
        <time>2026-08-21T20:17:31.000Z</time>
        <extensions>
          <ns3:TrackPointExtension>
            <ns3:hr>123</ns3:hr>
            <ns3:cad>55</ns3:cad>
          </ns3:TrackPointExtension>
        </extensions>
      </trkpt>
      <trkpt lat="45.33307730220258235931396484375" lon="-71.00785908289253711700439453125">
        <ele>832.5999755859375</ele>
        <time>2026-08-21T20:17:32.000Z</time>
        <extensions>
          <ns3:TrackPointExtension>
            <ns3:hr>122</ns3:hr>
            <ns3:cad>55</ns3:cad>
          </ns3:TrackPointExtension>
        </extensions>
      </trkpt>
      <trkpt lat="45.3330768831074237823486328125" lon="-71.007856316864490509033203125">
        <ele>832.4000244140625</ele>
        <time>2026-08-21T20:17:33.000Z</time>
        <extensions>
          <ns3:TrackPointExtension>
            <ns3:hr>122</ns3:hr>
            <ns3:cad>55</ns3:cad>
          </ns3:TrackPointExtension>
        </extensions>
      </trkpt>
      <trkpt lat="45.333071686327457427978515625" lon="-71.00784634239971637725830078125">
        <ele>832.20001220703125</ele>
        <time>2026-08-21T20:17:34.000Z</time>
        <extensions>
          <ns3:TrackPointExtension>
            <ns3:hr>122</ns3:hr>
            <ns3:cad>55</ns3:cad>
          </ns3:TrackPointExtension>
        </extensions>
      </trkpt>
      <trkpt lat="45.3330646455287933349609375" lon="-71.00783611647784709930419921875">
        <ele>831.79998779296875</ele>
        <time>2026-08-21T20:17:35.000Z</time>
        <extensions>
          <ns3:TrackPointExtension>
            <ns3:hr>122</ns3:hr>
            <ns3:cad>55</ns3:cad>
          </ns3:TrackPointExtension>
        </extensions>
      </trkpt>
      <trkpt lat="45.333056934177875518798828125" lon="-71.00783075205981731414794921875">
        <ele>831.4000244140625</ele>
        <time>2026-08-21T20:17:36.000Z</time>
        <extensions>
          <ns3:TrackPointExtension>
            <ns3:hr>122</ns3:hr>
            <ns3:cad>54</ns3:cad>
          </ns3:TrackPointExtension>
        </extensions>
      </trkpt>
      <trkpt lat="45.33305383287370204925537109375" lon="-71.00782672874629497528076171875">
        <ele>831</ele>
        <time>2026-08-21T20:17:37.000Z</time>
        <extensions>
          <ns3:TrackPointExtension>
            <ns3:hr>122</ns3:hr>
            <ns3:cad>54</ns3:cad>
          </ns3:TrackPointExtension>
        </extensions>
      </trkpt>
      <trkpt lat="45.33305098302662372589111328125" lon="-71.0078118927776813507080078125">
        <ele>830.5999755859375</ele>
        <time>2026-08-21T20:17:38.000Z</time>
        <extensions>
          <ns3:TrackPointExtension>
            <ns3:hr>122</ns3:hr>
            <ns3:cad>54</ns3:cad>
          </ns3:TrackPointExtension>
        </extensions>
      </trkpt>
      <trkpt lat="45.33304410986602306365966796875" lon="-71.0078021697700023651123046875">
        <ele>830.4000244140625</ele>
        <time>2026-08-21T20:17:39.000Z</time>
        <extensions>
          <ns3:TrackPointExtension>
            <ns3:hr>122</ns3:hr>
            <ns3:cad>54</ns3:cad>
          </ns3:TrackPointExtension>
        </extensions>
      </trkpt>
      <trkpt lat="45.33304226584732532501220703125" lon="-71.0077921114861965179443359375">
        <ele>830</ele>
        <time>2026-08-21T20:17:40.000Z</time>
        <extensions>
          <ns3:TrackPointExtension>
            <ns3:hr>121</ns3:hr>
            <ns3:cad>54</ns3:cad>
          </ns3:TrackPointExtension>
        </extensions>
      </trkpt>
      <trkpt lat="45.33303371630609035491943359375" lon="-71.007776521146297454833984375">
        <ele>829.79998779296875</ele>
        <time>2026-08-21T20:17:41.000Z</time>
        <extensions>
          <ns3:TrackPointExtension>
            <ns3:hr>121</ns3:hr>
            <ns3:cad>46</ns3:cad>
          </ns3:TrackPointExtension>
        </extensions>
      </trkpt>
      <trkpt lat="45.33302684314548969268798828125" lon="-71.0077669657766819000244140625">
        <ele>829.4000244140625</ele>
        <time>2026-08-21T20:17:42.000Z</time>
        <extensions>
          <ns3:TrackPointExtension>
            <ns3:hr>121</ns3:hr>
            <ns3:cad>46</ns3:cad>
          </ns3:TrackPointExtension>
        </extensions>
      </trkpt>
      <trkpt lat="45.33301703631877899169921875" lon="-71.00775682367384433746337890625">
        <ele>829.20001220703125</ele>
        <time>2026-08-21T20:17:43.000Z</time>
        <extensions>
          <ns3:TrackPointExtension>
            <ns3:hr>121</ns3:hr>
            <ns3:cad>58</ns3:cad>
          </ns3:TrackPointExtension>
        </extensions>
      </trkpt>
      <trkpt lat="45.33301209099590778350830078125" lon="-71.00774844177067279815673828125">
        <ele>828.79998779296875</ele>
        <time>2026-08-21T20:17:44.000Z</time>
        <extensions>
          <ns3:TrackPointExtension>
            <ns3:hr>121</ns3:hr>
            <ns3:cad>58</ns3:cad>
          </ns3:TrackPointExtension>
        </extensions>
      </trkpt>
      <trkpt lat="45.33300253562629222869873046875" lon="-71.0077398084104061126708984375">
        <ele>828.5999755859375</ele>
        <time>2026-08-21T20:17:45.000Z</time>
        <extensions>
          <ns3:TrackPointExtension>
            <ns3:hr>121</ns3:hr>
            <ns3:cad>0</ns3:cad>
          </ns3:TrackPointExtension>
        </extensions>
      </trkpt>
      <trkpt lat="45.332991220057010650634765625" lon="-71.00774240680038928985595703125">
        <ele>828.4000244140625</ele>
        <time>2026-08-21T20:17:46.000Z</time>
        <extensions>
          <ns3:TrackPointExtension>
            <ns3:hr>121</ns3:hr>
            <ns3:cad>0</ns3:cad>
          </ns3:TrackPointExtension>
        </extensions>
      </trkpt>
      <trkpt lat="45.33298526890575885772705078125" lon="-71.00774265825748443603515625">
        <ele>828</ele>
        <time>2026-08-21T20:17:47.000Z</time>
        <extensions>
          <ns3:TrackPointExtension>
            <ns3:hr>120</ns3:hr>
            <ns3:cad>0</ns3:cad>
          </ns3:TrackPointExtension>
        </extensions>
      </trkpt>
      <trkpt lat="45.33298091031610965728759765625" lon="-71.00773997604846954345703125">
        <ele>827.79998779296875</ele>
        <time>2026-08-21T20:17:48.000Z</time>
        <extensions>
          <ns3:TrackPointExtension>
            <ns3:hr>120</ns3:hr>
            <ns3:cad>0</ns3:cad>
          </ns3:TrackPointExtension>
        </extensions>
      </trkpt>
      <trkpt lat="45.33297051675617694854736328125" lon="-71.007732935249805450439453125">
        <ele>827.4000244140625</ele>
        <time>2026-08-21T20:17:49.000Z</time>
        <extensions>
          <ns3:TrackPointExtension>
            <ns3:hr>120</ns3:hr>
            <ns3:cad>0</ns3:cad>
          </ns3:TrackPointExtension>
        </extensions>
      </trkpt>
      <trkpt lat="45.33296205103397369384765625" lon="-71.00772681646049022674560546875">
        <ele>827.20001220703125</ele>
        <time>2026-08-21T20:17:50.000Z</time>
        <extensions>
          <ns3:TrackPointExtension>
            <ns3:hr>119</ns3:hr>
            <ns3:cad>0</ns3:cad>
          </ns3:TrackPointExtension>
        </extensions>
      </trkpt>
      <trkpt lat="45.33295190893113613128662109375" lon="-71.00772312842309474945068359375">
        <ele>826.79998779296875</ele>
        <time>2026-08-21T20:17:51.000Z</time>
        <extensions>
          <ns3:TrackPointExtension>
            <ns3:hr>118</ns3:hr>
            <ns3:cad>0</ns3:cad>
          </ns3:TrackPointExtension>
        </extensions>
      </trkpt>
      <trkpt lat="45.33293833024799823760986328125" lon="-71.00772321224212646484375">
        <ele>826.4000244140625</ele>
        <time>2026-08-21T20:17:52.000Z</time>
        <extensions>
          <ns3:TrackPointExtension>
            <ns3:hr>118</ns3:hr>
            <ns3:cad>0</ns3:cad>
          </ns3:TrackPointExtension>
        </extensions>
      </trkpt>
      <trkpt lat="45.33293145708739757537841796875" lon="-71.007722876965999603271484375">
        <ele>826.20001220703125</ele>
        <time>2026-08-21T20:17:53.000Z</time>
        <extensions>
          <ns3:TrackPointExtension>
            <ns3:hr>118</ns3:hr>
            <ns3:cad>58</ns3:cad>
          </ns3:TrackPointExtension>
        </extensions>
      </trkpt>
      <trkpt lat="45.33291972242295742034912109375" lon="-71.00772522389888763427734375">
        <ele>825.79998779296875</ele>
        <time>2026-08-21T20:17:54.000Z</time>
        <extensions>
          <ns3:TrackPointExtension>
            <ns3:hr>118</ns3:hr>
            <ns3:cad>58</ns3:cad>
          </ns3:TrackPointExtension>
        </extensions>
      </trkpt>
      <trkpt lat="45.33290731720626354217529296875" lon="-71.00772715173661708831787109375">
        <ele>825.5999755859375</ele>
        <time>2026-08-21T20:17:55.000Z</time>
        <extensions>
          <ns3:TrackPointExtension>
            <ns3:hr>118</ns3:hr>
            <ns3:cad>59</ns3:cad>
          </ns3:TrackPointExtension>
        </extensions>
      </trkpt>
      <trkpt lat="45.3328948281705379486083984375" lon="-71.0077217034995555877685546875">
        <ele>825.4000244140625</ele>
        <time>2026-08-21T20:17:56.000Z</time>
        <extensions>
          <ns3:TrackPointExtension>
            <ns3:hr>118</ns3:hr>
            <ns3:cad>59</ns3:cad>
          </ns3:TrackPointExtension>
        </extensions>
      </trkpt>
      <trkpt lat="45.3328795731067657470703125" lon="-71.007714830338954925537109375">
        <ele>825</ele>
        <time>2026-08-21T20:17:57.000Z</time>
        <extensions>
          <ns3:TrackPointExtension>
            <ns3:hr>118</ns3:hr>
            <ns3:cad>59</ns3:cad>
          </ns3:TrackPointExtension>
        </extensions>
      </trkpt>
      <trkpt lat="45.33286892808973789215087890625" lon="-71.00771105848252773284912109375">
        <ele>824.79998779296875</ele>
        <time>2026-08-21T20:17:58.000Z</time>
        <extensions>
          <ns3:TrackPointExtension>
            <ns3:hr>119</ns3:hr>
            <ns3:cad>52</ns3:cad>
          </ns3:TrackPointExtension>
        </extensions>
      </trkpt>
      <trkpt lat="45.33285400830209255218505859375" lon="-71.0077129863202571868896484375">
        <ele>824.4000244140625</ele>
        <time>2026-08-21T20:17:59.000Z</time>
        <extensions>
          <ns3:TrackPointExtension>
            <ns3:hr>119</ns3:hr>
            <ns3:cad>0</ns3:cad>
          </ns3:TrackPointExtension>
        </extensions>
      </trkpt>
      <trkpt lat="45.33283732831478118896484375" lon="-71.007715500891208648681640625">
        <ele>824</ele>
        <time>2026-08-21T20:18:00.000Z</time>
        <extensions>
          <ns3:TrackPointExtension>
            <ns3:hr>119</ns3:hr>
            <ns3:cad>0</ns3:cad>
          </ns3:TrackPointExtension>
        </extensions>
      </trkpt>
      <trkpt lat="45.3328227438032627105712890625" lon="-71.007720194756984710693359375">
        <ele>823.4000244140625</ele>
        <time>2026-08-21T20:18:01.000Z</time>
        <extensions>
          <ns3:TrackPointExtension>
            <ns3:hr>118</ns3:hr>
            <ns3:cad>0</ns3:cad>
          </ns3:TrackPointExtension>
        </extensions>
      </trkpt>
      <trkpt lat="45.3328073211014270782470703125" lon="-71.0077233798801898956298828125">
        <ele>823</ele>
        <time>2026-08-21T20:18:02.000Z</time>
        <extensions>
          <ns3:TrackPointExtension>
            <ns3:hr>119</ns3:hr>
            <ns3:cad>0</ns3:cad>
          </ns3:TrackPointExtension>
        </extensions>
      </trkpt>
      <trkpt lat="45.3327898867428302764892578125" lon="-71.00773536600172519683837890625">
        <ele>822.79998779296875</ele>
        <time>2026-08-21T20:18:03.000Z</time>
        <extensions>
          <ns3:TrackPointExtension>
            <ns3:hr>119</ns3:hr>
            <ns3:cad>0</ns3:cad>
          </ns3:TrackPointExtension>
        </extensions>
      </trkpt>
      <trkpt lat="45.3327737934887409210205078125" lon="-71.00775129161775112152099609375">
        <ele>822.5999755859375</ele>
        <time>2026-08-21T20:18:04.000Z</time>
        <extensions>
          <ns3:TrackPointExtension>
            <ns3:hr>120</ns3:hr>
            <ns3:cad>71</ns3:cad>
          </ns3:TrackPointExtension>
        </extensions>
      </trkpt>
      <trkpt lat="45.33276197500526905059814453125" lon="-71.00775950588285923004150390625">
        <ele>822.4000244140625</ele>
        <time>2026-08-21T20:18:05.000Z</time>
        <extensions>
          <ns3:TrackPointExtension>
            <ns3:hr>120</ns3:hr>
            <ns3:cad>71</ns3:cad>
          </ns3:TrackPointExtension>
        </extensions>
      </trkpt>
      <trkpt lat="45.33275241963565349578857421875" lon="-71.00775984115898609161376953125">
        <ele>822.20001220703125</ele>
        <time>2026-08-21T20:18:06.000Z</time>
        <extensions>
          <ns3:TrackPointExtension>
            <ns3:hr>120</ns3:hr>
            <ns3:cad>71</ns3:cad>
          </ns3:TrackPointExtension>
        </extensions>
      </trkpt>
      <trkpt lat="45.33274479210376739501953125" lon="-71.007758080959320068359375">
        <ele>822</ele>
        <time>2026-08-21T20:18:07.000Z</time>
        <extensions>
          <ns3:TrackPointExtension>
            <ns3:hr>120</ns3:hr>
            <ns3:cad>71</ns3:cad>
          </ns3:TrackPointExtension>
        </extensions>
      </trkpt>
      <trkpt lat="45.3327389247715473175048828125" lon="-71.0077505372464656829833984375">
        <ele>821.79998779296875</ele>
        <time>2026-08-21T20:18:08.000Z</time>
        <extensions>
          <ns3:TrackPointExtension>
            <ns3:hr>120</ns3:hr>
            <ns3:cad>71</ns3:cad>
          </ns3:TrackPointExtension>
        </extensions>
      </trkpt>
      <trkpt lat="45.3327275253832340240478515625" lon="-71.00774257443845272064208984375">
        <ele>821.4000244140625</ele>
        <time>2026-08-21T20:18:09.000Z</time>
        <extensions>
          <ns3:TrackPointExtension>
            <ns3:hr>120</ns3:hr>
            <ns3:cad>71</ns3:cad>
          </ns3:TrackPointExtension>
        </extensions>
      </trkpt>
      <trkpt lat="45.3327121026813983917236328125" lon="-71.0077307559549808502197265625">
        <ele>821</ele>
        <time>2026-08-21T20:18:10.000Z</time>
        <extensions>
          <ns3:TrackPointExtension>
            <ns3:hr>120</ns3:hr>
            <ns3:cad>71</ns3:cad>
          </ns3:TrackPointExtension>
        </extensions>
      </trkpt>
      <trkpt lat="45.3327020443975925445556640625" lon="-71.007720865309238433837890625">
        <ele>820.20001220703125</ele>
        <time>2026-08-21T20:18:11.000Z</time>
        <extensions>
          <ns3:TrackPointExtension>
            <ns3:hr>120</ns3:hr>
            <ns3:cad>71</ns3:cad>
          </ns3:TrackPointExtension>
        </extensions>
      </trkpt>
      <trkpt lat="45.33268502913415431976318359375" lon="-71.0077056102454662322998046875">
        <ele>819.5999755859375</ele>
        <time>2026-08-21T20:18:12.000Z</time>
        <extensions>
          <ns3:TrackPointExtension>
            <ns3:hr>120</ns3:hr>
            <ns3:cad>0</ns3:cad>
          </ns3:TrackPointExtension>
        </extensions>
      </trkpt>
      <trkpt lat="45.33266491256654262542724609375" lon="-71.00769848562777042388916015625">
        <ele>819</ele>
        <time>2026-08-21T20:18:13.000Z</time>
        <extensions>
          <ns3:TrackPointExtension>
            <ns3:hr>120</ns3:hr>
            <ns3:cad>0</ns3:cad>
          </ns3:TrackPointExtension>
        </extensions>
      </trkpt>
      <trkpt lat="45.3326443769037723541259765625" lon="-71.00768926553428173065185546875">
        <ele>818.4000244140625</ele>
        <time>2026-08-21T20:18:14.000Z</time>
        <extensions>
          <ns3:TrackPointExtension>
            <ns3:hr>120</ns3:hr>
            <ns3:cad>0</ns3:cad>
          </ns3:TrackPointExtension>
        </extensions>
      </trkpt>
      <trkpt lat="45.3326259367167949676513671875" lon="-71.0076757706701755523681640625">
        <ele>818</ele>
        <time>2026-08-21T20:18:15.000Z</time>
        <extensions>
          <ns3:TrackPointExtension>
            <ns3:hr>120</ns3:hr>
            <ns3:cad>0</ns3:cad>
          </ns3:TrackPointExtension>
        </extensions>
      </trkpt>
      <trkpt lat="45.33260741271078586578369140625" lon="-71.00766328163444995880126953125">
        <ele>817.5999755859375</ele>
        <time>2026-08-21T20:18:16.000Z</time>
        <extensions>
          <ns3:TrackPointExtension>
            <ns3:hr>121</ns3:hr>
            <ns3:cad>81</ns3:cad>
          </ns3:TrackPointExtension>
        </extensions>
      </trkpt>
      <trkpt lat="45.3325914032757282257080078125" lon="-71.0076566599309444427490234375">
        <ele>817.5999755859375</ele>
        <time>2026-08-21T20:18:17.000Z</time>
        <extensions>
          <ns3:TrackPointExtension>
            <ns3:hr>122</ns3:hr>
            <ns3:cad>81</ns3:cad>
          </ns3:TrackPointExtension>
        </extensions>
      </trkpt>
      <trkpt lat="45.3325706161558628082275390625" lon="-71.00765674374997615814208984375">
        <ele>817.4000244140625</ele>
        <time>2026-08-21T20:18:18.000Z</time>
        <extensions>
          <ns3:TrackPointExtension>
            <ns3:hr>122</ns3:hr>
            <ns3:cad>81</ns3:cad>
          </ns3:TrackPointExtension>
        </extensions>
      </trkpt>
      <trkpt lat="45.332554019987583160400390625" lon="-71.007656157016754150390625">
        <ele>817.20001220703125</ele>
        <time>2026-08-21T20:18:19.000Z</time>
        <extensions>
          <ns3:TrackPointExtension>
            <ns3:hr>123</ns3:hr>
            <ns3:cad>81</ns3:cad>
          </ns3:TrackPointExtension>
        </extensions>
      </trkpt>
      <trkpt lat="45.3325362503528594970703125" lon="-71.007649786770343780517578125">
        <ele>817</ele>
        <time>2026-08-21T20:18:20.000Z</time>
        <extensions>
          <ns3:TrackPointExtension>
            <ns3:hr>123</ns3:hr>
            <ns3:cad>81</ns3:cad>
          </ns3:TrackPointExtension>
        </extensions>
      </trkpt>
      <trkpt lat="45.3325246833264827728271484375" lon="-71.00764450617134571075439453125">
        <ele>817</ele>
        <time>2026-08-21T20:18:21.000Z</time>
        <extensions>
          <ns3:TrackPointExtension>
            <ns3:hr>124</ns3:hr>
            <ns3:cad>74</ns3:cad>
          </ns3:TrackPointExtension>
        </extensions>
      </trkpt>
      <trkpt lat="45.332515127956867218017578125" lon="-71.007627658545970916748046875">
        <ele>816.5999755859375</ele>
        <time>2026-08-21T20:18:22.000Z</time>
        <extensions>
          <ns3:TrackPointExtension>
            <ns3:hr>124</ns3:hr>
            <ns3:cad>72</ns3:cad>
          </ns3:TrackPointExtension>
        </extensions>
      </trkpt>
      <trkpt lat="45.33250079490244388580322265625" lon="-71.00761500187218189239501953125">
        <ele>816.4000244140625</ele>
        <time>2026-08-21T20:18:23.000Z</time>
        <extensions>
          <ns3:TrackPointExtension>
            <ns3:hr>124</ns3:hr>
            <ns3:cad>72</ns3:cad>
          </ns3:TrackPointExtension>
        </extensions>
      </trkpt>
      <trkpt lat="45.332484953105449676513671875" lon="-71.0076117329299449920654296875">
        <ele>816</ele>
        <time>2026-08-21T20:18:24.000Z</time>
        <extensions>
          <ns3:TrackPointExtension>
            <ns3:hr>124</ns3:hr>
            <ns3:cad>72</ns3:cad>
          </ns3:TrackPointExtension>
        </extensions>
      </trkpt>
      <trkpt lat="45.3324764035642147064208984375" lon="-71.007605530321598052978515625">
        <ele>815.79998779296875</ele>
        <time>2026-08-21T20:18:25.000Z</time>
        <extensions>
          <ns3:TrackPointExtension>
            <ns3:hr>123</ns3:hr>
            <ns3:cad>72</ns3:cad>
          </ns3:TrackPointExtension>
        </extensions>
      </trkpt>
      <trkpt lat="45.33247715793550014495849609375" lon="-71.007595472037792205810546875">
        <ele>815.4000244140625</ele>
        <time>2026-08-21T20:18:26.000Z</time>
        <extensions>
          <ns3:TrackPointExtension>
            <ns3:hr>123</ns3:hr>
            <ns3:cad>72</ns3:cad>
          </ns3:TrackPointExtension>
        </extensions>
      </trkpt>
      <trkpt lat="45.3324790857732295989990234375" lon="-71.0075828991830348968505859375">
        <ele>815.20001220703125</ele>
        <time>2026-08-21T20:18:27.000Z</time>
        <extensions>
          <ns3:TrackPointExtension>
            <ns3:hr>122</ns3:hr>
            <ns3:cad>0</ns3:cad>
          </ns3:TrackPointExtension>
        </extensions>
      </trkpt>
      <trkpt lat="45.3324851207435131072998046875" lon="-71.0075775347650051116943359375">
        <ele>814.79998779296875</ele>
        <time>2026-08-21T20:18:28.000Z</time>
        <extensions>
          <ns3:TrackPointExtension>
            <ns3:hr>122</ns3:hr>
            <ns3:cad>0</ns3:cad>
          </ns3:TrackPointExtension>
        </extensions>
      </trkpt>
      <trkpt lat="45.33249534666538238525390625" lon="-71.00756831467151641845703125">
        <ele>814.4000244140625</ele>
        <time>2026-08-21T20:18:29.000Z</time>
        <extensions>
          <ns3:TrackPointExtension>
            <ns3:hr>121</ns3:hr>
            <ns3:cad>0</ns3:cad>
          </ns3:TrackPointExtension>
        </extensions>
      </trkpt>
      <trkpt lat="45.33250071108341217041015625" lon="-71.0075582563877105712890625">
        <ele>813.79998779296875</ele>
        <time>2026-08-21T20:18:30.000Z</time>
        <extensions>
          <ns3:TrackPointExtension>
            <ns3:hr>121</ns3:hr>
            <ns3:cad>0</ns3:cad>
          </ns3:TrackPointExtension>
        </extensions>
      </trkpt>
      <trkpt lat="45.33250071108341217041015625" lon="-71.00753872655332088470458984375">
        <ele>813.4000244140625</ele>
        <time>2026-08-21T20:18:31.000Z</time>
        <extensions>
          <ns3:TrackPointExtension>
            <ns3:hr>121</ns3:hr>
            <ns3:cad>0</ns3:cad>
          </ns3:TrackPointExtension>
        </extensions>
      </trkpt>
      <trkpt lat="45.33249936997890472412109375" lon="-71.0075205378234386444091796875">
        <ele>813</ele>
        <time>2026-08-21T20:18:32.000Z</time>
        <extensions>
          <ns3:TrackPointExtension>
            <ns3:hr>122</ns3:hr>
            <ns3:cad>0</ns3:cad>
          </ns3:TrackPointExtension>
        </extensions>
      </trkpt>
      <trkpt lat="45.33250062726438045501708984375" lon="-71.00749379955232143402099609375">
        <ele>812.5999755859375</ele>
        <time>2026-08-21T20:18:33.000Z</time>
        <extensions>
          <ns3:TrackPointExtension>
            <ns3:hr>121</ns3:hr>
            <ns3:cad>0</ns3:cad>
          </ns3:TrackPointExtension>
        </extensions>
      </trkpt>
      <trkpt lat="45.33250263892114162445068359375" lon="-71.0074813105165958404541015625">
        <ele>812.20001220703125</ele>
        <time>2026-08-21T20:18:34.000Z</time>
        <extensions>
          <ns3:TrackPointExtension>
            <ns3:hr>122</ns3:hr>
            <ns3:cad>0</ns3:cad>
          </ns3:TrackPointExtension>
        </extensions>
      </trkpt>
      <trkpt lat="45.33250448293983936309814453125" lon="-71.0074615292251110076904296875">
        <ele>811.79998779296875</ele>
        <time>2026-08-21T20:18:35.000Z</time>
        <extensions>
          <ns3:TrackPointExtension>
            <ns3:hr>122</ns3:hr>
            <ns3:cad>0</ns3:cad>
          </ns3:TrackPointExtension>
        </extensions>
      </trkpt>
      <trkpt lat="45.33250967971980571746826171875" lon="-71.00744426250457763671875">
        <ele>811.4000244140625</ele>
        <time>2026-08-21T20:18:36.000Z</time>
        <extensions>
          <ns3:TrackPointExtension>
            <ns3:hr>122</ns3:hr>
            <ns3:cad>0</ns3:cad>
          </ns3:TrackPointExtension>
        </extensions>
      </trkpt>
      <trkpt lat="45.33251412212848663330078125" lon="-71.0074266605079174041748046875">
        <ele>810.79998779296875</ele>
        <time>2026-08-21T20:18:37.000Z</time>
        <extensions>
          <ns3:TrackPointExtension>
            <ns3:hr>122</ns3:hr>
            <ns3:cad>0</ns3:cad>
          </ns3:TrackPointExtension>
        </extensions>
      </trkpt>
      <trkpt lat="45.3325193189084529876708984375" lon="-71.007406376302242279052734375">
        <ele>810.4000244140625</ele>
        <time>2026-08-21T20:18:38.000Z</time>
        <extensions>
          <ns3:TrackPointExtension>
            <ns3:hr>123</ns3:hr>
            <ns3:cad>68</ns3:cad>
          </ns3:TrackPointExtension>
        </extensions>
      </trkpt>
      <trkpt lat="45.33251822926104068756103515625" lon="-71.00738265551626682281494140625">
        <ele>810</ele>
        <time>2026-08-21T20:18:39.000Z</time>
        <extensions>
          <ns3:TrackPointExtension>
            <ns3:hr>124</ns3:hr>
            <ns3:cad>68</ns3:cad>
          </ns3:TrackPointExtension>
        </extensions>
      </trkpt>
      <trkpt lat="45.3325166366994380950927734375" lon="-71.007362790405750274658203125">
        <ele>809.5999755859375</ele>
        <time>2026-08-21T20:18:40.000Z</time>
        <extensions>
          <ns3:TrackPointExtension>
            <ns3:hr>124</ns3:hr>
            <ns3:cad>68</ns3:cad>
          </ns3:TrackPointExtension>
        </extensions>
      </trkpt>
      <trkpt lat="45.33251940272748470306396484375" lon="-71.00734493695199489593505859375">
        <ele>809.20001220703125</ele>
        <time>2026-08-21T20:18:41.000Z</time>
        <extensions>
          <ns3:TrackPointExtension>
            <ns3:hr>123</ns3:hr>
            <ns3:cad>68</ns3:cad>
          </ns3:TrackPointExtension>
        </extensions>
      </trkpt>
      <trkpt lat="45.33252895809710025787353515625" lon="-71.00732431747019290924072265625">
        <ele>808.79998779296875</ele>
        <time>2026-08-21T20:18:42.000Z</time>
        <extensions>
          <ns3:TrackPointExtension>
            <ns3:hr>123</ns3:hr>
            <ns3:cad>68</ns3:cad>
          </ns3:TrackPointExtension>
        </extensions>
      </trkpt>
      <trkpt lat="45.33253750763833522796630859375" lon="-71.0072980821132659912109375">
        <ele>808.5999755859375</ele>
        <time>2026-08-21T20:18:43.000Z</time>
        <extensions>
          <ns3:TrackPointExtension>
            <ns3:hr>122</ns3:hr>
            <ns3:cad>68</ns3:cad>
          </ns3:TrackPointExtension>
        </extensions>
      </trkpt>
      <trkpt lat="45.3325367532670497894287109375" lon="-71.00727335549890995025634765625">
        <ele>808.4000244140625</ele>
        <time>2026-08-21T20:18:44.000Z</time>
        <extensions>
          <ns3:TrackPointExtension>
            <ns3:hr>122</ns3:hr>
            <ns3:cad>72</ns3:cad>
          </ns3:TrackPointExtension>
        </extensions>
      </trkpt>
      <trkpt lat="45.332541279494762420654296875" lon="-71.00725726224482059478759765625">
        <ele>808.20001220703125</ele>
        <time>2026-08-21T20:18:45.000Z</time>
        <extensions>
          <ns3:TrackPointExtension>
            <ns3:hr>122</ns3:hr>
            <ns3:cad>72</ns3:cad>
          </ns3:TrackPointExtension>
        </extensions>
      </trkpt>
      <trkpt lat="45.33254588954150676727294921875" lon="-71.00723982788622379302978515625">
        <ele>808</ele>
        <time>2026-08-21T20:18:46.000Z</time>
        <extensions>
          <ns3:TrackPointExtension>
            <ns3:hr>122</ns3:hr>
            <ns3:cad>72</ns3:cad>
          </ns3:TrackPointExtension>
        </extensions>
      </trkpt>
      <trkpt lat="45.3325498290359973907470703125" lon="-71.0072231478989124298095703125">
        <ele>808</ele>
        <time>2026-08-21T20:18:47.000Z</time>
        <extensions>
          <ns3:TrackPointExtension>
            <ns3:hr>122</ns3:hr>
            <ns3:cad>72</ns3:cad>
          </ns3:TrackPointExtension>
        </extensions>
      </trkpt>
      <trkpt lat="45.3325518406927585601806640625" lon="-71.00720294751226902008056640625">
        <ele>807.79998779296875</ele>
        <time>2026-08-21T20:18:48.000Z</time>
        <extensions>
          <ns3:TrackPointExtension>
            <ns3:hr>122</ns3:hr>
            <ns3:cad>72</ns3:cad>
          </ns3:TrackPointExtension>
        </extensions>
      </trkpt>
      <trkpt lat="45.3325538523495197296142578125" lon="-71.00717461667954921722412109375">
        <ele>807.5999755859375</ele>
        <time>2026-08-21T20:18:49.000Z</time>
        <extensions>
          <ns3:TrackPointExtension>
            <ns3:hr>123</ns3:hr>
            <ns3:cad>72</ns3:cad>
          </ns3:TrackPointExtension>
        </extensions>
      </trkpt>
      <trkpt lat="45.33255628310143947601318359375" lon="-71.00715659558773040771484375">
        <ele>807.20001220703125</ele>
        <time>2026-08-21T20:18:50.000Z</time>
        <extensions>
          <ns3:TrackPointExtension>
            <ns3:hr>122</ns3:hr>
            <ns3:cad>69</ns3:cad>
          </ns3:TrackPointExtension>
        </extensions>
      </trkpt>
      <trkpt lat="45.332561396062374114990234375" lon="-71.00714460946619510650634765625">
        <ele>806.79998779296875</ele>
        <time>2026-08-21T20:18:51.000Z</time>
        <extensions>
          <ns3:TrackPointExtension>
            <ns3:hr>122</ns3:hr>
            <ns3:cad>69</ns3:cad>
          </ns3:TrackPointExtension>
        </extensions>
      </trkpt>
      <trkpt lat="45.3325669281184673309326171875" lon="-71.00713136605918407440185546875">
        <ele>806.20001220703125</ele>
        <time>2026-08-21T20:18:52.000Z</time>
        <extensions>
          <ns3:TrackPointExtension>
            <ns3:hr>121</ns3:hr>
            <ns3:cad>69</ns3:cad>
          </ns3:TrackPointExtension>
        </extensions>
      </trkpt>
      <trkpt lat="45.3325709514319896697998046875" lon="-71.007117368280887603759765625">
        <ele>805.5999755859375</ele>
        <time>2026-08-21T20:18:53.000Z</time>
        <extensions>
          <ns3:TrackPointExtension>
            <ns3:hr>120</ns3:hr>
            <ns3:cad>69</ns3:cad>
          </ns3:TrackPointExtension>
        </extensions>
      </trkpt>
      <trkpt lat="45.33257983624935150146484375" lon="-71.00710437633097171783447265625">
        <ele>805.20001220703125</ele>
        <time>2026-08-21T20:18:54.000Z</time>
        <extensions>
          <ns3:TrackPointExtension>
            <ns3:hr>120</ns3:hr>
            <ns3:cad>69</ns3:cad>
          </ns3:TrackPointExtension>
        </extensions>
      </trkpt>
      <trkpt lat="45.33258276991546154022216796875" lon="-71.00709264166653156280517578125">
        <ele>804.5999755859375</ele>
        <time>2026-08-21T20:18:55.000Z</time>
        <extensions>
          <ns3:TrackPointExtension>
            <ns3:hr>119</ns3:hr>
            <ns3:cad>41</ns3:cad>
          </ns3:TrackPointExtension>
        </extensions>
      </trkpt>
      <trkpt lat="45.332585871219635009765625" lon="-71.007078476250171661376953125">
        <ele>804.20001220703125</ele>
        <time>2026-08-21T20:18:56.000Z</time>
        <extensions>
          <ns3:TrackPointExtension>
            <ns3:hr>119</ns3:hr>
            <ns3:cad>41</ns3:cad>
          </ns3:TrackPointExtension>
        </extensions>
      </trkpt>
      <trkpt lat="45.33259299583733081817626953125" lon="-71.00706481374800205230712890625">
        <ele>804</ele>
        <time>2026-08-21T20:18:57.000Z</time>
        <extensions>
          <ns3:TrackPointExtension>
            <ns3:hr>120</ns3:hr>
            <ns3:cad>41</ns3:cad>
          </ns3:TrackPointExtension>
        </extensions>
      </trkpt>
      <trkpt lat="45.3326021321117877960205078125" lon="-71.00704922340810298919677734375">
        <ele>803.5999755859375</ele>
        <time>2026-08-21T20:18:58.000Z</time>
        <extensions>
          <ns3:TrackPointExtension>
            <ns3:hr>120</ns3:hr>
            <ns3:cad>73</ns3:cad>
          </ns3:TrackPointExtension>
        </extensions>
      </trkpt>
      <trkpt lat="45.3326074965298175811767578125" lon="-71.00703078322112560272216796875">
        <ele>803.4000244140625</ele>
        <time>2026-08-21T20:18:59.000Z</time>
        <extensions>
          <ns3:TrackPointExtension>
            <ns3:hr>120</ns3:hr>
            <ns3:cad>73</ns3:cad>
          </ns3:TrackPointExtension>
        </extensions>
      </trkpt>
      <trkpt lat="45.33261328004300594329833984375" lon="-71.00701670162379741668701171875">
        <ele>803.20001220703125</ele>
        <time>2026-08-21T20:19:00.000Z</time>
        <extensions>
          <ns3:TrackPointExtension>
            <ns3:hr>120</ns3:hr>
            <ns3:cad>73</ns3:cad>
          </ns3:TrackPointExtension>
        </extensions>
      </trkpt>
      <trkpt lat="45.33262685872614383697509765625" lon="-71.0069985128939151763916015625">
        <ele>803</ele>
        <time>2026-08-21T20:19:01.000Z</time>
        <extensions>
          <ns3:TrackPointExtension>
            <ns3:hr>119</ns3:hr>
            <ns3:cad>66</ns3:cad>
          </ns3:TrackPointExtension>
        </extensions>
      </trkpt>
      <trkpt lat="45.33263188786804676055908203125" lon="-71.00698686204850673675537109375">
        <ele>802.5999755859375</ele>
        <time>2026-08-21T20:19:02.000Z</time>
        <extensions>
          <ns3:TrackPointExtension>
            <ns3:hr>120</ns3:hr>
            <ns3:cad>66</ns3:cad>
          </ns3:TrackPointExtension>
        </extensions>
      </trkpt>
      <trkpt lat="45.3326420299708843231201171875" lon="-71.0069757141172885894775390625">
        <ele>802.4000244140625</ele>
        <time>2026-08-21T20:19:03.000Z</time>
        <extensions>
          <ns3:TrackPointExtension>
            <ns3:hr>119</ns3:hr>
            <ns3:cad>66</ns3:cad>
          </ns3:TrackPointExtension>
        </extensions>
      </trkpt>
      <trkpt lat="45.3326494060456752777099609375" lon="-71.0069619677960872650146484375">
        <ele>802.20001220703125</ele>
        <time>2026-08-21T20:19:04.000Z</time>
        <extensions>
          <ns3:TrackPointExtension>
            <ns3:hr>119</ns3:hr>
            <ns3:cad>66</ns3:cad>
          </ns3:TrackPointExtension>
        </extensions>
      </trkpt>
      <trkpt lat="45.3326601348817348480224609375" lon="-71.00694830529391765594482421875">
        <ele>802</ele>
        <time>2026-08-21T20:19:05.000Z</time>
        <extensions>
          <ns3:TrackPointExtension>
            <ns3:hr>120</ns3:hr>
            <ns3:cad>66</ns3:cad>
          </ns3:TrackPointExtension>
        </extensions>
      </trkpt>
      <trkpt lat="45.3326701931655406951904296875" lon="-71.00693724118173122406005859375">
        <ele>801.79998779296875</ele>
        <time>2026-08-21T20:19:06.000Z</time>
        <extensions>
          <ns3:TrackPointExtension>
            <ns3:hr>120</ns3:hr>
            <ns3:cad>66</ns3:cad>
          </ns3:TrackPointExtension>
        </extensions>
      </trkpt>
      <trkpt lat="45.3326859511435031890869140625" lon="-71.00692458450794219970703125">
        <ele>801.4000244140625</ele>
        <time>2026-08-21T20:19:07.000Z</time>
        <extensions>
          <ns3:TrackPointExtension>
            <ns3:hr>120</ns3:hr>
            <ns3:cad>66</ns3:cad>
          </ns3:TrackPointExtension>
        </extensions>
      </trkpt>
      <trkpt lat="45.33269810490310192108154296875" lon="-71.0069133527576923370361328125">
        <ele>801.20001220703125</ele>
        <time>2026-08-21T20:19:08.000Z</time>
        <extensions>
          <ns3:TrackPointExtension>
            <ns3:hr>120</ns3:hr>
            <ns3:cad>66</ns3:cad>
          </ns3:TrackPointExtension>
        </extensions>
      </trkpt>
      <trkpt lat="45.33271034248173236846923828125" lon="-71.006893403828144073486328125">
        <ele>800.79998779296875</ele>
        <time>2026-08-21T20:19:09.000Z</time>
        <extensions>
          <ns3:TrackPointExtension>
            <ns3:hr>119</ns3:hr>
            <ns3:cad>66</ns3:cad>
          </ns3:TrackPointExtension>
        </extensions>
      </trkpt>
      <trkpt lat="45.33272090367972850799560546875" lon="-71.00687353871762752532958984375">
        <ele>800.5999755859375</ele>
        <time>2026-08-21T20:19:10.000Z</time>
        <extensions>
          <ns3:TrackPointExtension>
            <ns3:hr>120</ns3:hr>
            <ns3:cad>62</ns3:cad>
          </ns3:TrackPointExtension>
        </extensions>
      </trkpt>
      <trkpt lat="45.33273163251578807830810546875" lon="-71.0068543441593647003173828125">
        <ele>800.4000244140625</ele>
        <time>2026-08-21T20:19:11.000Z</time>
        <extensions>
          <ns3:TrackPointExtension>
            <ns3:hr>120</ns3:hr>
            <ns3:cad>62</ns3:cad>
          </ns3:TrackPointExtension>
        </extensions>
      </trkpt>
      <trkpt lat="45.33274034969508647918701171875" lon="-71.0068335570394992828369140625">
        <ele>800.20001220703125</ele>
        <time>2026-08-21T20:19:12.000Z</time>
        <extensions>
          <ns3:TrackPointExtension>
            <ns3:hr>120</ns3:hr>
            <ns3:cad>0</ns3:cad>
          </ns3:TrackPointExtension>
        </extensions>
      </trkpt>
      <trkpt lat="45.33274076879024505615234375" lon="-71.00681168027222156524658203125">
        <ele>800</ele>
        <time>2026-08-21T20:19:13.000Z</time>
        <extensions>
          <ns3:TrackPointExtension>
            <ns3:hr>120</ns3:hr>
            <ns3:cad>0</ns3:cad>
          </ns3:TrackPointExtension>
        </extensions>
      </trkpt>
      <trkpt lat="45.33273867331445217132568359375" lon="-71.0067899711430072784423828125">
        <ele>799.79998779296875</ele>
        <time>2026-08-21T20:19:14.000Z</time>
        <extensions>
          <ns3:TrackPointExtension>
            <ns3:hr>119</ns3:hr>
            <ns3:cad>0</ns3:cad>
          </ns3:TrackPointExtension>
        </extensions>
      </trkpt>
      <trkpt lat="45.3327342309057712554931640625" lon="-71.00677681155502796173095703125">
        <ele>799.5999755859375</ele>
        <time>2026-08-21T20:19:15.000Z</time>
        <extensions>
          <ns3:TrackPointExtension>
            <ns3:hr>119</ns3:hr>
            <ns3:cad>0</ns3:cad>
          </ns3:TrackPointExtension>
        </extensions>
      </trkpt>
      <trkpt lat="45.33273062668740749359130859375" lon="-71.00676775909960269927978515625">
        <ele>799.4000244140625</ele>
        <time>2026-08-21T20:19:16.000Z</time>
        <extensions>
          <ns3:TrackPointExtension>
            <ns3:hr>119</ns3:hr>
            <ns3:cad>0</ns3:cad>
          </ns3:TrackPointExtension>
        </extensions>
      </trkpt>
      <trkpt lat="45.33272492699325084686279296875" lon="-71.00674781017005443572998046875">
        <ele>799.20001220703125</ele>
        <time>2026-08-21T20:19:17.000Z</time>
        <extensions>
          <ns3:TrackPointExtension>
            <ns3:hr>118</ns3:hr>
            <ns3:cad>0</ns3:cad>
          </ns3:TrackPointExtension>
        </extensions>
      </trkpt>
      <trkpt lat="45.3327218256890773773193359375" lon="-71.00673708133399486541748046875">
        <ele>799</ele>
        <time>2026-08-21T20:19:18.000Z</time>
        <extensions>
          <ns3:TrackPointExtension>
            <ns3:hr>118</ns3:hr>
            <ns3:cad>0</ns3:cad>
          </ns3:TrackPointExtension>
        </extensions>
      </trkpt>
      <trkpt lat="45.33271729946136474609375" lon="-71.00672232918441295623779296875">
        <ele>798.5999755859375</ele>
        <time>2026-08-21T20:19:19.000Z</time>
        <extensions>
          <ns3:TrackPointExtension>
            <ns3:hr>118</ns3:hr>
            <ns3:cad>0</ns3:cad>
          </ns3:TrackPointExtension>
        </extensions>
      </trkpt>
      <trkpt lat="45.33271126449108123779296875" lon="-71.0067115165293216705322265625">
        <ele>798.4000244140625</ele>
        <time>2026-08-21T20:19:20.000Z</time>
        <extensions>
          <ns3:TrackPointExtension>
            <ns3:hr>118</ns3:hr>
            <ns3:cad>0</ns3:cad>
          </ns3:TrackPointExtension>
        </extensions>
      </trkpt>
      <trkpt lat="45.3327023796737194061279296875" lon="-71.00670120678842067718505859375">
        <ele>798.20001220703125</ele>
        <time>2026-08-21T20:19:21.000Z</time>
        <extensions>
          <ns3:TrackPointExtension>
            <ns3:hr>118</ns3:hr>
            <ns3:cad>0</ns3:cad>
          </ns3:TrackPointExtension>
        </extensions>
      </trkpt>
      <trkpt lat="45.332693159580230712890625" lon="-71.0066920705139636993408203125">
        <ele>797.79998779296875</ele>
        <time>2026-08-21T20:19:22.000Z</time>
        <extensions>
          <ns3:TrackPointExtension>
            <ns3:hr>118</ns3:hr>
            <ns3:cad>0</ns3:cad>
          </ns3:TrackPointExtension>
        </extensions>
      </trkpt>
      <trkpt lat="45.332682766020298004150390625" lon="-71.0066850297152996063232421875">
        <ele>797.4000244140625</ele>
        <time>2026-08-21T20:19:23.000Z</time>
        <extensions>
          <ns3:TrackPointExtension>
            <ns3:hr>118</ns3:hr>
            <ns3:cad>0</ns3:cad>
          </ns3:TrackPointExtension>
        </extensions>
      </trkpt>
      <trkpt lat="45.33267396502196788787841796875" lon="-71.0066863708198070526123046875">
        <ele>797</ele>
        <time>2026-08-21T20:19:24.000Z</time>
        <extensions>
          <ns3:TrackPointExtension>
            <ns3:hr>117</ns3:hr>
            <ns3:cad>0</ns3:cad>
          </ns3:TrackPointExtension>
        </extensions>
      </trkpt>
      <trkpt lat="45.33265418373048305511474609375" lon="-71.00669232197105884552001953125">
        <ele>796.79998779296875</ele>
        <time>2026-08-21T20:19:25.000Z</time>
        <extensions>
          <ns3:TrackPointExtension>
            <ns3:hr>117</ns3:hr>
            <ns3:cad>0</ns3:cad>
          </ns3:TrackPointExtension>
        </extensions>
      </trkpt>
      <trkpt lat="45.3326403535902500152587890625" lon="-71.00670330226421356201171875">
        <ele>796.4000244140625</ele>
        <time>2026-08-21T20:19:26.000Z</time>
        <extensions>
          <ns3:TrackPointExtension>
            <ns3:hr>116</ns3:hr>
            <ns3:cad>0</ns3:cad>
          </ns3:TrackPointExtension>
        </extensions>
      </trkpt>
      <trkpt lat="45.33263792283833026885986328125" lon="-71.0067053139209747314453125">
        <ele>796.20001220703125</ele>
        <time>2026-08-21T20:19:27.000Z</time>
        <extensions>
          <ns3:TrackPointExtension>
            <ns3:hr>116</ns3:hr>
            <ns3:cad>0</ns3:cad>
          </ns3:TrackPointExtension>
        </extensions>
      </trkpt>
      <trkpt lat="45.3326299600303173065185546875" lon="-71.006701290607452392578125">
        <ele>796.20001220703125</ele>
        <time>2026-08-21T20:19:28.000Z</time>
        <extensions>
          <ns3:TrackPointExtension>
            <ns3:hr>116</ns3:hr>
            <ns3:cad>0</ns3:cad>
          </ns3:TrackPointExtension>
        </extensions>
      </trkpt>
      <trkpt lat="45.3326209075748920440673828125" lon="-71.00670187734067440032958984375">
        <ele>796</ele>
        <time>2026-08-21T20:19:29.000Z</time>
        <extensions>
          <ns3:TrackPointExtension>
            <ns3:hr>116</ns3:hr>
            <ns3:cad>0</ns3:cad>
          </ns3:TrackPointExtension>
        </extensions>
      </trkpt>
      <trkpt lat="45.33261277712881565093994140625" lon="-71.00671294145286083221435546875">
        <ele>795.79998779296875</ele>
        <time>2026-08-21T20:19:30.000Z</time>
        <extensions>
          <ns3:TrackPointExtension>
            <ns3:hr>116</ns3:hr>
            <ns3:cad>0</ns3:cad>
          </ns3:TrackPointExtension>
        </extensions>
      </trkpt>
      <trkpt lat="45.33260255120694637298583984375" lon="-71.0067222453653812408447265625">
        <ele>795.4000244140625</ele>
        <time>2026-08-21T20:19:31.000Z</time>
        <extensions>
          <ns3:TrackPointExtension>
            <ns3:hr>117</ns3:hr>
            <ns3:cad>0</ns3:cad>
          </ns3:TrackPointExtension>
        </extensions>
      </trkpt>
      <trkpt lat="45.33259752206504344940185546875" lon="-71.0067232511937618255615234375">
        <ele>795.20001220703125</ele>
        <time>2026-08-21T20:19:32.000Z</time>
        <extensions>
          <ns3:TrackPointExtension>
            <ns3:hr>117</ns3:hr>
            <ns3:cad>0</ns3:cad>
          </ns3:TrackPointExtension>
        </extensions>
      </trkpt>
      <trkpt lat="45.33259081654250621795654296875" lon="-71.0067214071750640869140625">
        <ele>794.79998779296875</ele>
        <time>2026-08-21T20:19:33.000Z</time>
        <extensions>
          <ns3:TrackPointExtension>
            <ns3:hr>118</ns3:hr>
            <ns3:cad>0</ns3:cad>
          </ns3:TrackPointExtension>
        </extensions>
      </trkpt>
      <trkpt lat="45.3325759805738925933837890625" lon="-71.00672073662281036376953125">
        <ele>794.4000244140625</ele>
        <time>2026-08-21T20:19:34.000Z</time>
        <extensions>
          <ns3:TrackPointExtension>
            <ns3:hr>118</ns3:hr>
            <ns3:cad>77</ns3:cad>
          </ns3:TrackPointExtension>
        </extensions>
      </trkpt>
      <trkpt lat="45.33256365917623043060302734375" lon="-71.00671805441379547119140625">
        <ele>794.20001220703125</ele>
        <time>2026-08-21T20:19:35.000Z</time>
        <extensions>
          <ns3:TrackPointExtension>
            <ns3:hr>118</ns3:hr>
            <ns3:cad>77</ns3:cad>
          </ns3:TrackPointExtension>
        </extensions>
      </trkpt>
      <trkpt lat="45.332552678883075714111328125" lon="-71.0067209042608737945556640625">
        <ele>793.79998779296875</ele>
        <time>2026-08-21T20:19:36.000Z</time>
        <extensions>
          <ns3:TrackPointExtension>
            <ns3:hr>119</ns3:hr>
            <ns3:cad>77</ns3:cad>
          </ns3:TrackPointExtension>
        </extensions>
      </trkpt>
      <trkpt lat="45.3325416147708892822265625" lon="-71.00672341883182525634765625">
        <ele>793.4000244140625</ele>
        <time>2026-08-21T20:19:37.000Z</time>
        <extensions>
          <ns3:TrackPointExtension>
            <ns3:hr>119</ns3:hr>
            <ns3:cad>48</ns3:cad>
          </ns3:TrackPointExtension>
        </extensions>
      </trkpt>
      <trkpt lat="45.33253398723900318145751953125" lon="-71.00671713240444660186767578125">
        <ele>792.79998779296875</ele>
        <time>2026-08-21T20:19:38.000Z</time>
        <extensions>
          <ns3:TrackPointExtension>
            <ns3:hr>120</ns3:hr>
            <ns3:cad>48</ns3:cad>
          </ns3:TrackPointExtension>
        </extensions>
      </trkpt>
      <trkpt lat="45.3325240127742290496826171875" lon="-71.00671696476638317108154296875">
        <ele>792.4000244140625</ele>
        <time>2026-08-21T20:19:39.000Z</time>
        <extensions>
          <ns3:TrackPointExtension>
            <ns3:hr>120</ns3:hr>
            <ns3:cad>48</ns3:cad>
          </ns3:TrackPointExtension>
        </extensions>
      </trkpt>
      <trkpt lat="45.33251143991947174072265625" lon="-71.00672501139342784881591796875">
        <ele>792</ele>
        <time>2026-08-21T20:19:40.000Z</time>
        <extensions>
          <ns3:TrackPointExtension>
            <ns3:hr>121</ns3:hr>
            <ns3:cad>48</ns3:cad>
          </ns3:TrackPointExtension>
        </extensions>
      </trkpt>
      <trkpt lat="45.3324998728930950164794921875" lon="-71.00673439912497997283935546875">
        <ele>791.4000244140625</ele>
        <time>2026-08-21T20:19:41.000Z</time>
        <extensions>
          <ns3:TrackPointExtension>
            <ns3:hr>121</ns3:hr>
            <ns3:cad>0</ns3:cad>
          </ns3:TrackPointExtension>
        </extensions>
      </trkpt>
      <trkpt lat="45.33248470164835453033447265625" lon="-71.00674278102815151214599609375">
        <ele>791.20001220703125</ele>
        <time>2026-08-21T20:19:42.000Z</time>
        <extensions>
          <ns3:TrackPointExtension>
            <ns3:hr>121</ns3:hr>
            <ns3:cad>0</ns3:cad>
          </ns3:TrackPointExtension>
        </extensions>
      </trkpt>
      <trkpt lat="45.3324767388403415679931640625" lon="-71.0067455470561981201171875">
        <ele>790.79998779296875</ele>
        <time>2026-08-21T20:19:43.000Z</time>
        <extensions>
          <ns3:TrackPointExtension>
            <ns3:hr>122</ns3:hr>
            <ns3:cad>0</ns3:cad>
          </ns3:TrackPointExtension>
        </extensions>
      </trkpt>
      <trkpt lat="45.3324653394520282745361328125" lon="-71.0067447088658809661865234375">
        <ele>790.5999755859375</ele>
        <time>2026-08-21T20:19:44.000Z</time>
        <extensions>
          <ns3:TrackPointExtension>
            <ns3:hr>122</ns3:hr>
            <ns3:cad>55</ns3:cad>
          </ns3:TrackPointExtension>
        </extensions>
      </trkpt>
      <trkpt lat="45.3324519284069538116455078125" lon="-71.00674462504684925079345703125">
        <ele>790.4000244140625</ele>
        <time>2026-08-21T20:19:45.000Z</time>
        <extensions>
          <ns3:TrackPointExtension>
            <ns3:hr>122</ns3:hr>
            <ns3:cad>55</ns3:cad>
          </ns3:TrackPointExtension>
        </extensions>
      </trkpt>
      <trkpt lat="45.33243642188608646392822265625" lon="-71.00674797780811786651611328125">
        <ele>790.20001220703125</ele>
        <time>2026-08-21T20:19:46.000Z</time>
        <extensions>
          <ns3:TrackPointExtension>
            <ns3:hr>122</ns3:hr>
            <ns3:cad>55</ns3:cad>
          </ns3:TrackPointExtension>
        </extensions>
      </trkpt>
      <trkpt lat="45.33241756260395050048828125" lon="-71.00676960311830043792724609375">
        <ele>790</ele>
        <time>2026-08-21T20:19:47.000Z</time>
        <extensions>
          <ns3:TrackPointExtension>
            <ns3:hr>122</ns3:hr>
            <ns3:cad>55</ns3:cad>
          </ns3:TrackPointExtension>
        </extensions>
      </trkpt>
      <trkpt lat="45.3324096836149692535400390625" lon="-71.00678837858140468597412109375">
        <ele>789.79998779296875</ele>
        <time>2026-08-21T20:19:48.000Z</time>
        <extensions>
          <ns3:TrackPointExtension>
            <ns3:hr>122</ns3:hr>
            <ns3:cad>55</ns3:cad>
          </ns3:TrackPointExtension>
        </extensions>
      </trkpt>
      <trkpt lat="45.3324073366820812225341796875" lon="-71.00679743103682994842529296875">
        <ele>789.79998779296875</ele>
        <time>2026-08-21T20:19:49.000Z</time>
        <extensions>
          <ns3:TrackPointExtension>
            <ns3:hr>123</ns3:hr>
            <ns3:cad>55</ns3:cad>
          </ns3:TrackPointExtension>
        </extensions>
      </trkpt>
      <trkpt lat="45.3324073366820812225341796875" lon="-71.00680799223482608795166015625">
        <ele>790</ele>
        <time>2026-08-21T20:19:50.000Z</time>
        <extensions>
          <ns3:TrackPointExtension>
            <ns3:hr>123</ns3:hr>
            <ns3:cad>55</ns3:cad>
          </ns3:TrackPointExtension>
        </extensions>
      </trkpt>
      <trkpt lat="45.33240624703466892242431640625" lon="-71.00681126117706298828125">
        <ele>790</ele>
        <time>2026-08-21T20:19:51.000Z</time>
        <extensions>
          <ns3:TrackPointExtension>
            <ns3:hr>124</ns3:hr>
            <ns3:cad>0</ns3:cad>
          </ns3:TrackPointExtension>
        </extensions>
      </trkpt>
      <trkpt lat="45.3324039839208126068115234375" lon="-71.0068110935389995574951171875">
        <ele>790.20001220703125</ele>
        <time>2026-08-21T20:19:52.000Z</time>
        <extensions>
          <ns3:TrackPointExtension>
            <ns3:hr>124</ns3:hr>
            <ns3:cad>0</ns3:cad>
          </ns3:TrackPointExtension>
        </extensions>
      </trkpt>
      <trkpt lat="45.3323992900550365447998046875" lon="-71.0068074055016040802001953125">
        <ele>790.20001220703125</ele>
        <time>2026-08-21T20:19:53.000Z</time>
        <extensions>
          <ns3:TrackPointExtension>
            <ns3:hr>123</ns3:hr>
            <ns3:cad>0</ns3:cad>
          </ns3:TrackPointExtension>
        </extensions>
      </trkpt>
      <trkpt lat="45.33239283598959445953369140625" lon="-71.0068151168525218963623046875">
        <ele>790</ele>
        <time>2026-08-21T20:19:54.000Z</time>
        <extensions>
          <ns3:TrackPointExtension>
            <ns3:hr>123</ns3:hr>
            <ns3:cad>0</ns3:cad>
          </ns3:TrackPointExtension>
        </extensions>
      </trkpt>
      <trkpt lat="45.332385040819644927978515625" lon="-71.00681922398507595062255859375">
        <ele>789.79998779296875</ele>
        <time>2026-08-21T20:19:55.000Z</time>
        <extensions>
          <ns3:TrackPointExtension>
            <ns3:hr>122</ns3:hr>
            <ns3:cad>0</ns3:cad>
          </ns3:TrackPointExtension>
        </extensions>
      </trkpt>
      <trkpt lat="45.33238026313483715057373046875" lon="-71.0068177990615367889404296875">
        <ele>789.4000244140625</ele>
        <time>2026-08-21T20:19:56.000Z</time>
        <extensions>
          <ns3:TrackPointExtension>
            <ns3:hr>121</ns3:hr>
            <ns3:cad>0</ns3:cad>
          </ns3:TrackPointExtension>
        </extensions>
      </trkpt>
      <trkpt lat="45.33237892203032970428466796875" lon="-71.00681553594768047332763671875">
        <ele>789.20001220703125</ele>
        <time>2026-08-21T20:19:57.000Z</time>
        <extensions>
          <ns3:TrackPointExtension>
            <ns3:hr>121</ns3:hr>
            <ns3:cad>0</ns3:cad>
          </ns3:TrackPointExtension>
        </extensions>
      </trkpt>
      <trkpt lat="45.33238227479159832000732421875" lon="-71.00680514238774776458740234375">
        <ele>788.79998779296875</ele>
        <time>2026-08-21T20:19:58.000Z</time>
        <extensions>
          <ns3:TrackPointExtension>
            <ns3:hr>121</ns3:hr>
            <ns3:cad>0</ns3:cad>
          </ns3:TrackPointExtension>
        </extensions>
      </trkpt>
      <trkpt lat="45.33238537609577178955078125" lon="-71.00679977796971797943115234375">
        <ele>788.4000244140625</ele>
        <time>2026-08-21T20:19:59.000Z</time>
        <extensions>
          <ns3:TrackPointExtension>
            <ns3:hr>121</ns3:hr>
            <ns3:cad>0</ns3:cad>
          </ns3:TrackPointExtension>
        </extensions>
      </trkpt>
      <trkpt lat="45.33238780684769153594970703125" lon="-71.0067913122475147247314453125">
        <ele>788</ele>
        <time>2026-08-21T20:20:00.000Z</time>
        <extensions>
          <ns3:TrackPointExtension>
            <ns3:hr>121</ns3:hr>
            <ns3:cad>0</ns3:cad>
          </ns3:TrackPointExtension>
        </extensions>
      </trkpt>
      <trkpt lat="45.3323872201144695281982421875" lon="-71.0067830979824066162109375">
        <ele>787.5999755859375</ele>
        <time>2026-08-21T20:20:01.000Z</time>
        <extensions>
          <ns3:TrackPointExtension>
            <ns3:hr>121</ns3:hr>
            <ns3:cad>0</ns3:cad>
          </ns3:TrackPointExtension>
        </extensions>
      </trkpt>
      <trkpt lat="45.332387052476406097412109375" lon="-71.00676834583282470703125">
        <ele>787.4000244140625</ele>
        <time>2026-08-21T20:20:02.000Z</time>
        <extensions>
          <ns3:TrackPointExtension>
            <ns3:hr>121</ns3:hr>
            <ns3:cad>0</ns3:cad>
          </ns3:TrackPointExtension>
        </extensions>
      </trkpt>
      <trkpt lat="45.33238294534385204315185546875" lon="-71.0067701898515224456787109375">
        <ele>787</ele>
        <time>2026-08-21T20:20:03.000Z</time>
        <extensions>
          <ns3:TrackPointExtension>
            <ns3:hr>122</ns3:hr>
            <ns3:cad>0</ns3:cad>
          </ns3:TrackPointExtension>
        </extensions>
      </trkpt>
      <trkpt lat="45.332380346953868865966796875" lon="-71.00676323287189006805419921875">
        <ele>786.79998779296875</ele>
        <time>2026-08-21T20:20:04.000Z</time>
        <extensions>
          <ns3:TrackPointExtension>
            <ns3:hr>121</ns3:hr>
            <ns3:cad>0</ns3:cad>
          </ns3:TrackPointExtension>
        </extensions>
      </trkpt>
      <trkpt lat="45.332381017506122589111328125" lon="-71.00675703026354312896728515625">
        <ele>786.4000244140625</ele>
        <time>2026-08-21T20:20:05.000Z</time>
        <extensions>
          <ns3:TrackPointExtension>
            <ns3:hr>121</ns3:hr>
            <ns3:cad>0</ns3:cad>
          </ns3:TrackPointExtension>
        </extensions>
      </trkpt>
      <trkpt lat="45.33238529227674007415771484375" lon="-71.00674412213265895843505859375">
        <ele>786</ele>
        <time>2026-08-21T20:20:06.000Z</time>
        <extensions>
          <ns3:TrackPointExtension>
            <ns3:hr>121</ns3:hr>
            <ns3:cad>0</ns3:cad>
          </ns3:TrackPointExtension>
        </extensions>
      </trkpt>
      <trkpt lat="45.332391746342182159423828125" lon="-71.00673372857272624969482421875">
        <ele>785.5999755859375</ele>
        <time>2026-08-21T20:20:07.000Z</time>
        <extensions>
          <ns3:TrackPointExtension>
            <ns3:hr>120</ns3:hr>
            <ns3:cad>0</ns3:cad>
          </ns3:TrackPointExtension>
        </extensions>
      </trkpt>
      <trkpt lat="45.3324009664356708526611328125" lon="-71.00672685541212558746337890625">
        <ele>785.20001220703125</ele>
        <time>2026-08-21T20:20:08.000Z</time>
        <extensions>
          <ns3:TrackPointExtension>
            <ns3:hr>121</ns3:hr>
            <ns3:cad>0</ns3:cad>
          </ns3:TrackPointExtension>
        </extensions>
      </trkpt>
      <trkpt lat="45.3324039839208126068115234375" lon="-71.0067202337086200714111328125">
        <ele>784.79998779296875</ele>
        <time>2026-08-21T20:20:09.000Z</time>
        <extensions>
          <ns3:TrackPointExtension>
            <ns3:hr>123</ns3:hr>
            <ns3:cad>0</ns3:cad>
          </ns3:TrackPointExtension>
        </extensions>
      </trkpt>
      <trkpt lat="45.3324075043201446533203125" lon="-71.00671160034835338592529296875">
        <ele>784.5999755859375</ele>
        <time>2026-08-21T20:20:10.000Z</time>
        <extensions>
          <ns3:TrackPointExtension>
            <ns3:hr>124</ns3:hr>
            <ns3:cad>0</ns3:cad>
          </ns3:TrackPointExtension>
        </extensions>
      </trkpt>
      <trkpt lat="45.33240993507206439971923828125" lon="-71.00670036859810352325439453125">
        <ele>784.4000244140625</ele>
        <time>2026-08-21T20:20:11.000Z</time>
        <extensions>
          <ns3:TrackPointExtension>
            <ns3:hr>125</ns3:hr>
            <ns3:cad>0</ns3:cad>
          </ns3:TrackPointExtension>
        </extensions>
      </trkpt>
      <trkpt lat="45.33241345547139644622802734375" lon="-71.00669047795236110687255859375">
        <ele>784.20001220703125</ele>
        <time>2026-08-21T20:20:12.000Z</time>
        <extensions>
          <ns3:TrackPointExtension>
            <ns3:hr>125</ns3:hr>
            <ns3:cad>0</ns3:cad>
          </ns3:TrackPointExtension>
        </extensions>
      </trkpt>
      <trkpt lat="45.3324180655181407928466796875" lon="-71.00667723454535007476806640625">
        <ele>784</ele>
        <time>2026-08-21T20:20:13.000Z</time>
        <extensions>
          <ns3:TrackPointExtension>
            <ns3:hr>125</ns3:hr>
            <ns3:cad>0</ns3:cad>
          </ns3:TrackPointExtension>
        </extensions>
      </trkpt>
      <trkpt lat="45.33242083154618740081787109375" lon="-71.0066629014909267425537109375">
        <ele>783.79998779296875</ele>
        <time>2026-08-21T20:20:14.000Z</time>
        <extensions>
          <ns3:TrackPointExtension>
            <ns3:hr>125</ns3:hr>
            <ns3:cad>55</ns3:cad>
          </ns3:TrackPointExtension>
        </extensions>
      </trkpt>
      <trkpt lat="45.3324173949658870697021484375" lon="-71.00665510632097721099853515625">
        <ele>783.5999755859375</ele>
        <time>2026-08-21T20:20:15.000Z</time>
        <extensions>
          <ns3:TrackPointExtension>
            <ns3:hr>126</ns3:hr>
            <ns3:cad>55</ns3:cad>
          </ns3:TrackPointExtension>
        </extensions>
      </trkpt>
      <trkpt lat="45.3324209153652191162109375" lon="-71.00663901306688785552978515625">
        <ele>783</ele>
        <time>2026-08-21T20:20:16.000Z</time>
        <extensions>
          <ns3:TrackPointExtension>
            <ns3:hr>126</ns3:hr>
            <ns3:cad>50</ns3:cad>
          </ns3:TrackPointExtension>
        </extensions>
      </trkpt>
      <trkpt lat="45.33243097364902496337890625" lon="-71.00662157870829105377197265625">
        <ele>782.5999755859375</ele>
        <time>2026-08-21T20:20:17.000Z</time>
        <extensions>
          <ns3:TrackPointExtension>
            <ns3:hr>126</ns3:hr>
            <ns3:cad>50</ns3:cad>
          </ns3:TrackPointExtension>
        </extensions>
      </trkpt>
      <trkpt lat="45.33243776299059391021728515625" lon="-71.006601043045520782470703125">
        <ele>782.20001220703125</ele>
        <time>2026-08-21T20:20:18.000Z</time>
        <extensions>
          <ns3:TrackPointExtension>
            <ns3:hr>126</ns3:hr>
            <ns3:cad>50</ns3:cad>
          </ns3:TrackPointExtension>
        </extensions>
      </trkpt>
      <trkpt lat="45.33244279213249683380126953125" lon="-71.00658738054335117340087890625">
        <ele>781.79998779296875</ele>
        <time>2026-08-21T20:20:19.000Z</time>
        <extensions>
          <ns3:TrackPointExtension>
            <ns3:hr>125</ns3:hr>
            <ns3:cad>50</ns3:cad>
          </ns3:TrackPointExtension>
        </extensions>
      </trkpt>
      <trkpt lat="45.33243902027606964111328125" lon="-71.006569527089595794677734375">
        <ele>781.4000244140625</ele>
        <time>2026-08-21T20:20:20.000Z</time>
        <extensions>
          <ns3:TrackPointExtension>
            <ns3:hr>125</ns3:hr>
            <ns3:cad>65</ns3:cad>
          </ns3:TrackPointExtension>
        </extensions>
      </trkpt>
      <trkpt lat="45.33242803998291492462158203125" lon="-71.00654664449393749237060546875">
        <ele>781</ele>
        <time>2026-08-21T20:20:21.000Z</time>
        <extensions>
          <ns3:TrackPointExtension>
            <ns3:hr>125</ns3:hr>
            <ns3:cad>65</ns3:cad>
          </ns3:TrackPointExtension>
        </extensions>
      </trkpt>
      <trkpt lat="45.33241814933717250823974609375" lon="-71.00653231143951416015625">
        <ele>780.79998779296875</ele>
        <time>2026-08-21T20:20:22.000Z</time>
        <extensions>
          <ns3:TrackPointExtension>
            <ns3:hr>125</ns3:hr>
            <ns3:cad>65</ns3:cad>
          </ns3:TrackPointExtension>
        </extensions>
      </trkpt>
      <trkpt lat="45.3324096836149692535400390625" lon="-71.00651831366121768951416015625">
        <ele>780.4000244140625</ele>
        <time>2026-08-21T20:20:23.000Z</time>
        <extensions>
          <ns3:TrackPointExtension>
            <ns3:hr>125</ns3:hr>
            <ns3:cad>71</ns3:cad>
          </ns3:TrackPointExtension>
        </extensions>
      </trkpt>
      <trkpt lat="45.3324006311595439910888671875" lon="-71.0065120272338390350341796875">
        <ele>780.20001220703125</ele>
        <time>2026-08-21T20:20:24.000Z</time>
        <extensions>
          <ns3:TrackPointExtension>
            <ns3:hr>125</ns3:hr>
            <ns3:cad>71</ns3:cad>
          </ns3:TrackPointExtension>
        </extensions>
      </trkpt>
      <trkpt lat="45.332394428551197052001953125" lon="-71.00650674663484096527099609375">
        <ele>779.79998779296875</ele>
        <time>2026-08-21T20:20:25.000Z</time>
        <extensions>
          <ns3:TrackPointExtension>
            <ns3:hr>126</ns3:hr>
            <ns3:cad>71</ns3:cad>
          </ns3:TrackPointExtension>
        </extensions>
      </trkpt>
      <trkpt lat="45.332390405237674713134765625" lon="-71.00650347769260406494140625">
        <ele>779.5999755859375</ele>
        <time>2026-08-21T20:20:26.000Z</time>
        <extensions>
          <ns3:TrackPointExtension>
            <ns3:hr>126</ns3:hr>
            <ns3:cad>71</ns3:cad>
          </ns3:TrackPointExtension>
        </extensions>
      </trkpt>
      <trkpt lat="45.33238814212381839752197265625" lon="-71.00650012493133544921875">
        <ele>779.4000244140625</ele>
        <time>2026-08-21T20:20:27.000Z</time>
        <extensions>
          <ns3:TrackPointExtension>
            <ns3:hr>126</ns3:hr>
            <ns3:cad>71</ns3:cad>
          </ns3:TrackPointExtension>
        </extensions>
      </trkpt>
      <trkpt lat="45.33238830976188182830810546875" lon="-71.00649266503751277923583984375">
        <ele>779.20001220703125</ele>
        <time>2026-08-21T20:20:28.000Z</time>
        <extensions>
          <ns3:TrackPointExtension>
            <ns3:hr>125</ns3:hr>
            <ns3:cad>71</ns3:cad>
          </ns3:TrackPointExtension>
        </extensions>
      </trkpt>
      <trkpt lat="45.33238428644835948944091796875" lon="-71.00648310966789722442626953125">
        <ele>779</ele>
        <time>2026-08-21T20:20:29.000Z</time>
        <extensions>
          <ns3:TrackPointExtension>
            <ns3:hr>125</ns3:hr>
            <ns3:cad>71</ns3:cad>
          </ns3:TrackPointExtension>
        </extensions>
      </trkpt>
      <trkpt lat="45.33237640745937824249267578125" lon="-71.006478331983089447021484375">
        <ele>778.79998779296875</ele>
        <time>2026-08-21T20:20:30.000Z</time>
        <extensions>
          <ns3:TrackPointExtension>
            <ns3:hr>124</ns3:hr>
            <ns3:cad>71</ns3:cad>
          </ns3:TrackPointExtension>
        </extensions>
      </trkpt>
      <trkpt lat="45.33237305469810962677001953125" lon="-71.006468273699283599853515625">
        <ele>778.4000244140625</ele>
        <time>2026-08-21T20:20:31.000Z</time>
        <extensions>
          <ns3:TrackPointExtension>
            <ns3:hr>124</ns3:hr>
            <ns3:cad>71</ns3:cad>
          </ns3:TrackPointExtension>
        </extensions>
      </trkpt>
      <trkpt lat="45.332366935908794403076171875" lon="-71.006454192101955413818359375">
        <ele>778.20001220703125</ele>
        <time>2026-08-21T20:20:32.000Z</time>
        <extensions>
          <ns3:TrackPointExtension>
            <ns3:hr>124</ns3:hr>
            <ns3:cad>71</ns3:cad>
          </ns3:TrackPointExtension>
        </extensions>
      </trkpt>
      <trkpt lat="45.33235863782465457916259765625" lon="-71.0064389370381832122802734375">
        <ele>777.79998779296875</ele>
        <time>2026-08-21T20:20:33.000Z</time>
        <extensions>
          <ns3:TrackPointExtension>
            <ns3:hr>124</ns3:hr>
            <ns3:cad>48</ns3:cad>
          </ns3:TrackPointExtension>
        </extensions>
      </trkpt>
      <trkpt lat="45.33235092647373676300048828125" lon="-71.0064245201647281646728515625">
        <ele>777.4000244140625</ele>
        <time>2026-08-21T20:20:34.000Z</time>
        <extensions>
          <ns3:TrackPointExtension>
            <ns3:hr>123</ns3:hr>
            <ns3:cad>48</ns3:cad>
          </ns3:TrackPointExtension>
        </extensions>
      </trkpt>
      <trkpt lat="45.3323379345238208770751953125" lon="-71.0064151324331760406494140625">
        <ele>777.20001220703125</ele>
        <time>2026-08-21T20:20:35.000Z</time>
        <extensions>
          <ns3:TrackPointExtension>
            <ns3:hr>123</ns3:hr>
            <ns3:cad>0</ns3:cad>
          </ns3:TrackPointExtension>
        </extensions>
      </trkpt>
      <trkpt lat="45.332328043878078460693359375" lon="-71.00641454569995403289794921875">
        <ele>776.79998779296875</ele>
        <time>2026-08-21T20:20:36.000Z</time>
        <extensions>
          <ns3:TrackPointExtension>
            <ns3:hr>123</ns3:hr>
            <ns3:cad>0</ns3:cad>
          </ns3:TrackPointExtension>
        </extensions>
      </trkpt>
      <trkpt lat="45.332314968109130859375" lon="-71.0064121149480342864990234375">
        <ele>776.5999755859375</ele>
        <time>2026-08-21T20:20:37.000Z</time>
        <extensions>
          <ns3:TrackPointExtension>
            <ns3:hr>123</ns3:hr>
            <ns3:cad>0</ns3:cad>
          </ns3:TrackPointExtension>
        </extensions>
      </trkpt>
      <trkpt lat="45.33230356872081756591796875" lon="-71.00641370750963687896728515625">
        <ele>776.20001220703125</ele>
        <time>2026-08-21T20:20:38.000Z</time>
        <extensions>
          <ns3:TrackPointExtension>
            <ns3:hr>123</ns3:hr>
            <ns3:cad>0</ns3:cad>
          </ns3:TrackPointExtension>
        </extensions>
      </trkpt>
      <trkpt lat="45.33229359425604343414306640625" lon="-71.00641957484185695648193359375">
        <ele>775.79998779296875</ele>
        <time>2026-08-21T20:20:39.000Z</time>
        <extensions>
          <ns3:TrackPointExtension>
            <ns3:hr>123</ns3:hr>
            <ns3:cad>0</ns3:cad>
          </ns3:TrackPointExtension>
        </extensions>
      </trkpt>
      <trkpt lat="45.33228479325771331787109375" lon="-71.006417982280254364013671875">
        <ele>775.4000244140625</ele>
        <time>2026-08-21T20:20:40.000Z</time>
        <extensions>
          <ns3:TrackPointExtension>
            <ns3:hr>123</ns3:hr>
            <ns3:cad>71</ns3:cad>
          </ns3:TrackPointExtension>
        </extensions>
      </trkpt>
      <trkpt lat="45.33227213658392429351806640625" lon="-71.0064077563583850860595703125">
        <ele>775</ele>
        <time>2026-08-21T20:20:41.000Z</time>
        <extensions>
          <ns3:TrackPointExtension>
            <ns3:hr>123</ns3:hr>
            <ns3:cad>71</ns3:cad>
          </ns3:TrackPointExtension>
        </extensions>
      </trkpt>
      <trkpt lat="45.3322591446340084075927734375" lon="-71.00640331394970417022705078125">
        <ele>774.4000244140625</ele>
        <time>2026-08-21T20:20:42.000Z</time>
        <extensions>
          <ns3:TrackPointExtension>
            <ns3:hr>123</ns3:hr>
            <ns3:cad>71</ns3:cad>
          </ns3:TrackPointExtension>
        </extensions>
      </trkpt>
      <trkpt lat="45.33224724233150482177734375" lon="-71.00640549324452877044677734375">
        <ele>773.79998779296875</ele>
        <time>2026-08-21T20:20:43.000Z</time>
        <extensions>
          <ns3:TrackPointExtension>
            <ns3:hr>123</ns3:hr>
            <ns3:cad>0</ns3:cad>
          </ns3:TrackPointExtension>
        </extensions>
      </trkpt>
      <trkpt lat="45.3322309814393520355224609375" lon="-71.00640985183417797088623046875">
        <ele>773.4000244140625</ele>
        <time>2026-08-21T20:20:44.000Z</time>
        <extensions>
          <ns3:TrackPointExtension>
            <ns3:hr>123</ns3:hr>
            <ns3:cad>0</ns3:cad>
          </ns3:TrackPointExtension>
        </extensions>
      </trkpt>
      <trkpt lat="45.33221597783267498016357421875" lon="-71.00641219876706600189208984375">
        <ele>772.79998779296875</ele>
        <time>2026-08-21T20:20:45.000Z</time>
        <extensions>
          <ns3:TrackPointExtension>
            <ns3:hr>124</ns3:hr>
            <ns3:cad>0</ns3:cad>
          </ns3:TrackPointExtension>
        </extensions>
      </trkpt>
      <trkpt lat="45.33219804055988788604736328125" lon="-71.00642024539411067962646484375">
        <ele>772.20001220703125</ele>
        <time>2026-08-21T20:20:46.000Z</time>
        <extensions>
          <ns3:TrackPointExtension>
            <ns3:hr>124</ns3:hr>
            <ns3:cad>0</ns3:cad>
          </ns3:TrackPointExtension>
        </extensions>
      </trkpt>
      <trkpt lat="45.3321880660951137542724609375" lon="-71.0064369253814220428466796875">
        <ele>771.5999755859375</ele>
        <time>2026-08-21T20:20:47.000Z</time>
        <extensions>
          <ns3:TrackPointExtension>
            <ns3:hr>124</ns3:hr>
            <ns3:cad>0</ns3:cad>
          </ns3:TrackPointExtension>
        </extensions>
      </trkpt>
      <trkpt lat="45.3321773372590541839599609375" lon="-71.00645310245454311370849609375">
        <ele>771.20001220703125</ele>
        <time>2026-08-21T20:20:48.000Z</time>
        <extensions>
          <ns3:TrackPointExtension>
            <ns3:hr>123</ns3:hr>
            <ns3:cad>0</ns3:cad>
          </ns3:TrackPointExtension>
        </extensions>
      </trkpt>
      <trkpt lat="45.3321699611842632293701171875" lon="-71.00645729340612888336181640625">
        <ele>770.79998779296875</ele>
        <time>2026-08-21T20:20:49.000Z</time>
        <extensions>
          <ns3:TrackPointExtension>
            <ns3:hr>124</ns3:hr>
            <ns3:cad>0</ns3:cad>
          </ns3:TrackPointExtension>
        </extensions>
      </trkpt>
      <trkpt lat="45.33215872943401336669921875" lon="-71.00646190345287322998046875">
        <ele>770.5999755859375</ele>
        <time>2026-08-21T20:20:50.000Z</time>
        <extensions>
          <ns3:TrackPointExtension>
            <ns3:hr>124</ns3:hr>
            <ns3:cad>0</ns3:cad>
          </ns3:TrackPointExtension>
        </extensions>
      </trkpt>
      <trkpt lat="45.33215143717825412750244140625" lon="-71.00646466948091983795166015625">
        <ele>770.4000244140625</ele>
        <time>2026-08-21T20:20:51.000Z</time>
        <extensions>
          <ns3:TrackPointExtension>
            <ns3:hr>124</ns3:hr>
            <ns3:cad>0</ns3:cad>
          </ns3:TrackPointExtension>
        </extensions>
      </trkpt>
      <trkpt lat="45.33214439637959003448486328125" lon="-71.006446816027164459228515625">
        <ele>770.20001220703125</ele>
        <time>2026-08-21T20:20:52.000Z</time>
        <extensions>
          <ns3:TrackPointExtension>
            <ns3:hr>123</ns3:hr>
            <ns3:cad>0</ns3:cad>
          </ns3:TrackPointExtension>
        </extensions>
      </trkpt>
      <trkpt lat="45.332137607038021087646484375" lon="-71.0064352490007877349853515625">
        <ele>769.79998779296875</ele>
        <time>2026-08-21T20:20:53.000Z</time>
        <extensions>
          <ns3:TrackPointExtension>
            <ns3:hr>123</ns3:hr>
            <ns3:cad>0</ns3:cad>
          </ns3:TrackPointExtension>
        </extensions>
      </trkpt>
      <trkpt lat="45.33213148824870586395263671875" lon="-71.00642301142215728759765625">
        <ele>769.4000244140625</ele>
        <time>2026-08-21T20:20:54.000Z</time>
        <extensions>
          <ns3:TrackPointExtension>
            <ns3:hr>124</ns3:hr>
            <ns3:cad>0</ns3:cad>
          </ns3:TrackPointExtension>
        </extensions>
      </trkpt>
      <trkpt lat="45.3321260400116443634033203125" lon="-71.0064104385673999786376953125">
        <ele>768.79998779296875</ele>
        <time>2026-08-21T20:20:55.000Z</time>
        <extensions>
          <ns3:TrackPointExtension>
            <ns3:hr>124</ns3:hr>
            <ns3:cad>80</ns3:cad>
          </ns3:TrackPointExtension>
        </extensions>
      </trkpt>
      <trkpt lat="45.33212159760296344757080078125" lon="-71.006397865712642669677734375">
        <ele>768.4000244140625</ele>
        <time>2026-08-21T20:20:56.000Z</time>
        <extensions>
          <ns3:TrackPointExtension>
            <ns3:hr>124</ns3:hr>
            <ns3:cad>80</ns3:cad>
          </ns3:TrackPointExtension>
        </extensions>
      </trkpt>
      <trkpt lat="45.3321179933845996856689453125" lon="-71.0063873045146465301513671875">
        <ele>768</ele>
        <time>2026-08-21T20:20:57.000Z</time>
        <extensions>
          <ns3:TrackPointExtension>
            <ns3:hr>124</ns3:hr>
            <ns3:cad>80</ns3:cad>
          </ns3:TrackPointExtension>
        </extensions>
      </trkpt>
      <trkpt lat="45.33211790956556797027587890625" lon="-71.00637515075504779815673828125">
        <ele>767.5999755859375</ele>
        <time>2026-08-21T20:20:58.000Z</time>
        <extensions>
          <ns3:TrackPointExtension>
            <ns3:hr>124</ns3:hr>
            <ns3:cad>80</ns3:cad>
          </ns3:TrackPointExtension>
        </extensions>
      </trkpt>
      <trkpt lat="45.3321206755936145782470703125" lon="-71.00636475719511508941650390625">
        <ele>767.20001220703125</ele>
        <time>2026-08-21T20:20:59.000Z</time>
        <extensions>
          <ns3:TrackPointExtension>
            <ns3:hr>124</ns3:hr>
            <ns3:cad>80</ns3:cad>
          </ns3:TrackPointExtension>
        </extensions>
      </trkpt>
      <trkpt lat="45.33212595619261264801025390625" lon="-71.00635469891130924224853515625">
        <ele>766.79998779296875</ele>
        <time>2026-08-21T20:21:00.000Z</time>
        <extensions>
          <ns3:TrackPointExtension>
            <ns3:hr>124</ns3:hr>
            <ns3:cad>80</ns3:cad>
          </ns3:TrackPointExtension>
        </extensions>
      </trkpt>
      <trkpt lat="45.3321310691535472869873046875" lon="-71.00634095259010791778564453125">
        <ele>766.4000244140625</ele>
        <time>2026-08-21T20:21:01.000Z</time>
        <extensions>
          <ns3:TrackPointExtension>
            <ns3:hr>123</ns3:hr>
            <ns3:cad>80</ns3:cad>
          </ns3:TrackPointExtension>
        </extensions>
      </trkpt>
      <trkpt lat="45.3321366012096405029296875" lon="-71.00631865672767162322998046875">
        <ele>765.79998779296875</ele>
        <time>2026-08-21T20:21:02.000Z</time>
        <extensions>
          <ns3:TrackPointExtension>
            <ns3:hr>123</ns3:hr>
            <ns3:cad>80</ns3:cad>
          </ns3:TrackPointExtension>
        </extensions>
      </trkpt>
      <trkpt lat="45.3321438096463680267333984375" lon="-71.0062991268932819366455078125">
        <ele>765.4000244140625</ele>
        <time>2026-08-21T20:21:03.000Z</time>
        <extensions>
          <ns3:TrackPointExtension>
            <ns3:hr>122</ns3:hr>
            <ns3:cad>80</ns3:cad>
          </ns3:TrackPointExtension>
        </extensions>
      </trkpt>
      <trkpt lat="45.33215445466339588165283203125" lon="-71.0062739811837673187255859375">
        <ele>765</ele>
        <time>2026-08-21T20:21:04.000Z</time>
        <extensions>
          <ns3:TrackPointExtension>
            <ns3:hr>122</ns3:hr>
            <ns3:cad>80</ns3:cad>
          </ns3:TrackPointExtension>
        </extensions>
      </trkpt>
      <trkpt lat="45.3321595676243305206298828125" lon="-71.00624975748360157012939453125">
        <ele>764.79998779296875</ele>
        <time>2026-08-21T20:21:05.000Z</time>
        <extensions>
          <ns3:TrackPointExtension>
            <ns3:hr>122</ns3:hr>
            <ns3:cad>80</ns3:cad>
          </ns3:TrackPointExtension>
        </extensions>
      </trkpt>
      <trkpt lat="45.3321555443108081817626953125" lon="-71.006221510469913482666015625">
        <ele>764.5999755859375</ele>
        <time>2026-08-21T20:21:06.000Z</time>
        <extensions>
          <ns3:TrackPointExtension>
            <ns3:hr>122</ns3:hr>
            <ns3:cad>80</ns3:cad>
          </ns3:TrackPointExtension>
        </extensions>
      </trkpt>
      <trkpt lat="45.3321471624076366424560546875" lon="-71.00620700977742671966552734375">
        <ele>764.4000244140625</ele>
        <time>2026-08-21T20:21:07.000Z</time>
        <extensions>
          <ns3:TrackPointExtension>
            <ns3:hr>122</ns3:hr>
            <ns3:cad>80</ns3:cad>
          </ns3:TrackPointExtension>
        </extensions>
      </trkpt>
      <trkpt lat="45.33213819377124309539794921875" lon="-71.00619192235171794891357421875">
        <ele>764.20001220703125</ele>
        <time>2026-08-21T20:21:08.000Z</time>
        <extensions>
          <ns3:TrackPointExtension>
            <ns3:hr>122</ns3:hr>
            <ns3:cad>80</ns3:cad>
          </ns3:TrackPointExtension>
        </extensions>
      </trkpt>
      <trkpt lat="45.33212344162166118621826171875" lon="-71.0061861388385295867919921875">
        <ele>763.79998779296875</ele>
        <time>2026-08-21T20:21:09.000Z</time>
        <extensions>
          <ns3:TrackPointExtension>
            <ns3:hr>123</ns3:hr>
            <ns3:cad>80</ns3:cad>
          </ns3:TrackPointExtension>
        </extensions>
      </trkpt>
      <trkpt lat="45.3321169875562191009521484375" lon="-71.00618697702884674072265625">
        <ele>763.4000244140625</ele>
        <time>2026-08-21T20:21:10.000Z</time>
        <extensions>
          <ns3:TrackPointExtension>
            <ns3:hr>123</ns3:hr>
            <ns3:cad>80</ns3:cad>
          </ns3:TrackPointExtension>
        </extensions>
      </trkpt>
      <trkpt lat="45.33211422152817249298095703125" lon="-71.00618890486657619476318359375">
        <ele>762.79998779296875</ele>
        <time>2026-08-21T20:21:11.000Z</time>
        <extensions>
          <ns3:TrackPointExtension>
            <ns3:hr>124</ns3:hr>
            <ns3:cad>80</ns3:cad>
          </ns3:TrackPointExtension>
        </extensions>
      </trkpt>
      <trkpt lat="45.3321069292724132537841796875" lon="-71.006181277334690093994140625">
        <ele>762.20001220703125</ele>
        <time>2026-08-21T20:21:12.000Z</time>
        <extensions>
          <ns3:TrackPointExtension>
            <ns3:hr>124</ns3:hr>
            <ns3:cad>43</ns3:cad>
          </ns3:TrackPointExtension>
        </extensions>
      </trkpt>
      <trkpt lat="45.3320883214473724365234375" lon="-71.00617599673569202423095703125">
        <ele>761.5999755859375</ele>
        <time>2026-08-21T20:21:13.000Z</time>
        <extensions>
          <ns3:TrackPointExtension>
            <ns3:hr>125</ns3:hr>
            <ns3:cad>43</ns3:cad>
          </ns3:TrackPointExtension>
        </extensions>
      </trkpt>
      <trkpt lat="45.332073904573917388916015625" lon="-71.00617582909762859344482421875">
        <ele>761.20001220703125</ele>
        <time>2026-08-21T20:21:14.000Z</time>
        <extensions>
          <ns3:TrackPointExtension>
            <ns3:hr>126</ns3:hr>
            <ns3:cad>43</ns3:cad>
          </ns3:TrackPointExtension>
        </extensions>
      </trkpt>
      <trkpt lat="45.33206711523234844207763671875" lon="-71.00616191513836383819580078125">
        <ele>760.5999755859375</ele>
        <time>2026-08-21T20:21:15.000Z</time>
        <extensions>
          <ns3:TrackPointExtension>
            <ns3:hr>126</ns3:hr>
            <ns3:cad>43</ns3:cad>
          </ns3:TrackPointExtension>
        </extensions>
      </trkpt>
      <trkpt lat="45.332066528499126434326171875" lon="-71.0061489231884479522705078125">
        <ele>760</ele>
        <time>2026-08-21T20:21:16.000Z</time>
        <extensions>
          <ns3:TrackPointExtension>
            <ns3:hr>126</ns3:hr>
            <ns3:cad>43</ns3:cad>
          </ns3:TrackPointExtension>
        </extensions>
      </trkpt>
      <trkpt lat="45.33207063563168048858642578125" lon="-71.00613006390631198883056640625">
        <ele>759.5999755859375</ele>
        <time>2026-08-21T20:21:17.000Z</time>
        <extensions>
          <ns3:TrackPointExtension>
            <ns3:hr>125</ns3:hr>
            <ns3:cad>43</ns3:cad>
          </ns3:TrackPointExtension>
        </extensions>
      </trkpt>
      <trkpt lat="45.33207315020263195037841796875" lon="-71.00611045025289058685302734375">
        <ele>759.20001220703125</ele>
        <time>2026-08-21T20:21:18.000Z</time>
        <extensions>
          <ns3:TrackPointExtension>
            <ns3:hr>125</ns3:hr>
            <ns3:cad>43</ns3:cad>
          </ns3:TrackPointExtension>
        </extensions>
      </trkpt>
      <trkpt lat="45.332073234021663665771484375" lon="-71.006089411675930023193359375">
        <ele>759</ele>
        <time>2026-08-21T20:21:19.000Z</time>
        <extensions>
          <ns3:TrackPointExtension>
            <ns3:hr>125</ns3:hr>
            <ns3:cad>43</ns3:cad>
          </ns3:TrackPointExtension>
        </extensions>
      </trkpt>
      <trkpt lat="45.3320703841745853424072265625" lon="-71.00606317631900310516357421875">
        <ele>758.5999755859375</ele>
        <time>2026-08-21T20:21:20.000Z</time>
        <extensions>
          <ns3:TrackPointExtension>
            <ns3:hr>126</ns3:hr>
            <ns3:cad>43</ns3:cad>
          </ns3:TrackPointExtension>
        </extensions>
      </trkpt>
      <trkpt lat="45.33207113854587078094482421875" lon="-71.00603836588561534881591796875">
        <ele>758.4000244140625</ele>
        <time>2026-08-21T20:21:21.000Z</time>
        <extensions>
          <ns3:TrackPointExtension>
            <ns3:hr>126</ns3:hr>
            <ns3:cad>74</ns3:cad>
          </ns3:TrackPointExtension>
        </extensions>
      </trkpt>
      <trkpt lat="45.33207030035555362701416015625" lon="-71.00601992569863796234130859375">
        <ele>758</ele>
        <time>2026-08-21T20:21:22.000Z</time>
        <extensions>
          <ns3:TrackPointExtension>
            <ns3:hr>127</ns3:hr>
            <ns3:cad>74</ns3:cad>
          </ns3:TrackPointExtension>
        </extensions>
      </trkpt>
      <trkpt lat="45.3320723958313465118408203125" lon="-71.00599528290331363677978515625">
        <ele>757.79998779296875</ele>
        <time>2026-08-21T20:21:23.000Z</time>
        <extensions>
          <ns3:TrackPointExtension>
            <ns3:hr>127</ns3:hr>
            <ns3:cad>74</ns3:cad>
          </ns3:TrackPointExtension>
        </extensions>
      </trkpt>
      <trkpt lat="45.3320710547268390655517578125" lon="-71.00598086602985858917236328125">
        <ele>757.4000244140625</ele>
        <time>2026-08-21T20:21:24.000Z</time>
        <extensions>
          <ns3:TrackPointExtension>
            <ns3:hr>127</ns3:hr>
            <ns3:cad>77</ns3:cad>
          </ns3:TrackPointExtension>
        </extensions>
      </trkpt>
      <trkpt lat="45.33206510357558727264404296875" lon="-71.0059688799083232879638671875">
        <ele>757.20001220703125</ele>
        <time>2026-08-21T20:21:25.000Z</time>
        <extensions>
          <ns3:TrackPointExtension>
            <ns3:hr>127</ns3:hr>
            <ns3:cad>77</ns3:cad>
          </ns3:TrackPointExtension>
        </extensions>
      </trkpt>
      <trkpt lat="45.33206175081431865692138671875" lon="-71.00596007890999317169189453125">
        <ele>756.79998779296875</ele>
        <time>2026-08-21T20:21:26.000Z</time>
        <extensions>
          <ns3:TrackPointExtension>
            <ns3:hr>128</ns3:hr>
            <ns3:cad>77</ns3:cad>
          </ns3:TrackPointExtension>
        </extensions>
      </trkpt>
      <trkpt lat="45.33205948770046234130859375" lon="-71.00594817660748958587646484375">
        <ele>756.4000244140625</ele>
        <time>2026-08-21T20:21:27.000Z</time>
        <extensions>
          <ns3:TrackPointExtension>
            <ns3:hr>128</ns3:hr>
            <ns3:cad>77</ns3:cad>
          </ns3:TrackPointExtension>
        </extensions>
      </trkpt>
      <trkpt lat="45.33205890096724033355712890625" lon="-71.0059400461614131927490234375">
        <ele>756</ele>
        <time>2026-08-21T20:21:28.000Z</time>
        <extensions>
          <ns3:TrackPointExtension>
            <ns3:hr>128</ns3:hr>
            <ns3:cad>77</ns3:cad>
          </ns3:TrackPointExtension>
        </extensions>
      </trkpt>
      <trkpt lat="45.3320586495101451873779296875" lon="-71.00593728013336658477783203125">
        <ele>755.5999755859375</ele>
        <time>2026-08-21T20:21:29.000Z</time>
        <extensions>
          <ns3:TrackPointExtension>
            <ns3:hr>128</ns3:hr>
            <ns3:cad>77</ns3:cad>
          </ns3:TrackPointExtension>
        </extensions>
      </trkpt>
      <trkpt lat="45.33205722458660602569580078125" lon="-71.0059333406388759613037109375">
        <ele>755.4000244140625</ele>
        <time>2026-08-21T20:21:30.000Z</time>
        <extensions>
          <ns3:TrackPointExtension>
            <ns3:hr>129</ns3:hr>
            <ns3:cad>77</ns3:cad>
          </ns3:TrackPointExtension>
        </extensions>
      </trkpt>
      <trkpt lat="45.3320522792637348175048828125" lon="-71.0059216059744358062744140625">
        <ele>755</ele>
        <time>2026-08-21T20:21:31.000Z</time>
        <extensions>
          <ns3:TrackPointExtension>
            <ns3:hr>129</ns3:hr>
            <ns3:cad>77</ns3:cad>
          </ns3:TrackPointExtension>
        </extensions>
      </trkpt>
      <trkpt lat="45.33204750157892704010009765625" lon="-71.0059182532131671905517578125">
        <ele>754.79998779296875</ele>
        <time>2026-08-21T20:21:32.000Z</time>
        <extensions>
          <ns3:TrackPointExtension>
            <ns3:hr>129</ns3:hr>
            <ns3:cad>77</ns3:cad>
          </ns3:TrackPointExtension>
        </extensions>
      </trkpt>
      <trkpt lat="45.33203945495188236236572265625" lon="-71.005911044776439666748046875">
        <ele>754.4000244140625</ele>
        <time>2026-08-21T20:21:33.000Z</time>
        <extensions>
          <ns3:TrackPointExtension>
            <ns3:hr>130</ns3:hr>
            <ns3:cad>0</ns3:cad>
          </ns3:TrackPointExtension>
        </extensions>
      </trkpt>
      <trkpt lat="45.33203224651515483856201171875" lon="-71.0059108771383762359619140625">
        <ele>754</ele>
        <time>2026-08-21T20:21:34.000Z</time>
        <extensions>
          <ns3:TrackPointExtension>
            <ns3:hr>129</ns3:hr>
            <ns3:cad>0</ns3:cad>
          </ns3:TrackPointExtension>
        </extensions>
      </trkpt>
      <trkpt lat="45.332022272050380706787109375" lon="-71.005901992321014404296875">
        <ele>753.5999755859375</ele>
        <time>2026-08-21T20:21:35.000Z</time>
        <extensions>
          <ns3:TrackPointExtension>
            <ns3:hr>129</ns3:hr>
            <ns3:cad>0</ns3:cad>
          </ns3:TrackPointExtension>
        </extensions>
      </trkpt>
      <trkpt lat="45.33201657235622406005859375" lon="-71.00588531233370304107666015625">
        <ele>753.20001220703125</ele>
        <time>2026-08-21T20:21:36.000Z</time>
        <extensions>
          <ns3:TrackPointExtension>
            <ns3:hr>129</ns3:hr>
            <ns3:cad>0</ns3:cad>
          </ns3:TrackPointExtension>
        </extensions>
      </trkpt>
      <trkpt lat="45.3320046700537204742431640625" lon="-71.0058646090328693389892578125">
        <ele>752.5999755859375</ele>
        <time>2026-08-21T20:21:37.000Z</time>
        <extensions>
          <ns3:TrackPointExtension>
            <ns3:hr>129</ns3:hr>
            <ns3:cad>0</ns3:cad>
          </ns3:TrackPointExtension>
        </extensions>
      </trkpt>
      <trkpt lat="45.33199469558894634246826171875" lon="-71.005837619304656982421875">
        <ele>752</ele>
        <time>2026-08-21T20:21:38.000Z</time>
        <extensions>
          <ns3:TrackPointExtension>
            <ns3:hr>129</ns3:hr>
            <ns3:cad>40</ns3:cad>
          </ns3:TrackPointExtension>
        </extensions>
      </trkpt>
      <trkpt lat="45.33199083991348743438720703125" lon="-71.00581892766058444976806640625">
        <ele>751.79998779296875</ele>
        <time>2026-08-21T20:21:39.000Z</time>
        <extensions>
          <ns3:TrackPointExtension>
            <ns3:hr>129</ns3:hr>
            <ns3:cad>40</ns3:cad>
          </ns3:TrackPointExtension>
        </extensions>
      </trkpt>
      <trkpt lat="45.33198572695255279541015625" lon="-71.00580769591033458709716796875">
        <ele>751.4000244140625</ele>
        <time>2026-08-21T20:21:40.000Z</time>
        <extensions>
          <ns3:TrackPointExtension>
            <ns3:hr>129</ns3:hr>
            <ns3:cad>40</ns3:cad>
          </ns3:TrackPointExtension>
        </extensions>
      </trkpt>
      <trkpt lat="45.33197826705873012542724609375" lon="-71.00579981692135334014892578125">
        <ele>751.20001220703125</ele>
        <time>2026-08-21T20:21:41.000Z</time>
        <extensions>
          <ns3:TrackPointExtension>
            <ns3:hr>129</ns3:hr>
            <ns3:cad>0</ns3:cad>
          </ns3:TrackPointExtension>
        </extensions>
      </trkpt>
      <trkpt lat="45.33197156153619289398193359375" lon="-71.005784980952739715576171875">
        <ele>751.20001220703125</ele>
        <time>2026-08-21T20:21:42.000Z</time>
        <extensions>
          <ns3:TrackPointExtension>
            <ns3:hr>129</ns3:hr>
            <ns3:cad>0</ns3:cad>
          </ns3:TrackPointExtension>
        </extensions>
      </trkpt>
      <trkpt lat="45.331969298422336578369140625" lon="-71.00577249191701412200927734375">
        <ele>750.79998779296875</ele>
        <time>2026-08-21T20:21:43.000Z</time>
        <extensions>
          <ns3:TrackPointExtension>
            <ns3:hr>129</ns3:hr>
            <ns3:cad>0</ns3:cad>
          </ns3:TrackPointExtension>
        </extensions>
      </trkpt>
      <trkpt lat="45.33196670003235340118408203125" lon="-71.005750782787799835205078125">
        <ele>750.5999755859375</ele>
        <time>2026-08-21T20:21:44.000Z</time>
        <extensions>
          <ns3:TrackPointExtension>
            <ns3:hr>129</ns3:hr>
            <ns3:cad>0</ns3:cad>
          </ns3:TrackPointExtension>
        </extensions>
      </trkpt>
      <trkpt lat="45.33195530064404010772705078125" lon="-71.00573368370532989501953125">
        <ele>750</ele>
        <time>2026-08-21T20:21:45.000Z</time>
        <extensions>
          <ns3:TrackPointExtension>
            <ns3:hr>129</ns3:hr>
            <ns3:cad>77</ns3:cad>
          </ns3:TrackPointExtension>
        </extensions>
      </trkpt>
      <trkpt lat="45.3319339267909526824951171875" lon="-71.00572404451668262481689453125">
        <ele>749.4000244140625</ele>
        <time>2026-08-21T20:21:46.000Z</time>
        <extensions>
          <ns3:TrackPointExtension>
            <ns3:hr>128</ns3:hr>
            <ns3:cad>77</ns3:cad>
          </ns3:TrackPointExtension>
        </extensions>
      </trkpt>
      <trkpt lat="45.33191238529980182647705078125" lon="-71.00571633316576480865478515625">
        <ele>749</ele>
        <time>2026-08-21T20:21:47.000Z</time>
        <extensions>
          <ns3:TrackPointExtension>
            <ns3:hr>128</ns3:hr>
            <ns3:cad>77</ns3:cad>
          </ns3:TrackPointExtension>
        </extensions>
      </trkpt>
      <trkpt lat="45.33189461566507816314697265625" lon="-71.00570593960583209991455078125">
        <ele>748.4000244140625</ele>
        <time>2026-08-21T20:21:48.000Z</time>
        <extensions>
          <ns3:TrackPointExtension>
            <ns3:hr>128</ns3:hr>
            <ns3:cad>70</ns3:cad>
          </ns3:TrackPointExtension>
        </extensions>
      </trkpt>
      <trkpt lat="45.331876762211322784423828125" lon="-71.00570015609264373779296875">
        <ele>748</ele>
        <time>2026-08-21T20:21:49.000Z</time>
        <extensions>
          <ns3:TrackPointExtension>
            <ns3:hr>127</ns3:hr>
            <ns3:cad>70</ns3:cad>
          </ns3:TrackPointExtension>
        </extensions>
      </trkpt>
      <trkpt lat="45.33185505308210849761962890625" lon="-71.00570778362452983856201171875">
        <ele>747.5999755859375</ele>
        <time>2026-08-21T20:21:50.000Z</time>
        <extensions>
          <ns3:TrackPointExtension>
            <ns3:hr>128</ns3:hr>
            <ns3:cad>70</ns3:cad>
          </ns3:TrackPointExtension>
        </extensions>
      </trkpt>
      <trkpt lat="45.33183644525706768035888671875" lon="-71.00571532733738422393798828125">
        <ele>747.4000244140625</ele>
        <time>2026-08-21T20:21:51.000Z</time>
        <extensions>
          <ns3:TrackPointExtension>
            <ns3:hr>128</ns3:hr>
            <ns3:cad>70</ns3:cad>
          </ns3:TrackPointExtension>
        </extensions>
      </trkpt>
      <trkpt lat="45.3318269737064838409423828125" lon="-71.00572773255407810211181640625">
        <ele>747.20001220703125</ele>
        <time>2026-08-21T20:21:52.000Z</time>
        <extensions>
          <ns3:TrackPointExtension>
            <ns3:hr>128</ns3:hr>
            <ns3:cad>70</ns3:cad>
          </ns3:TrackPointExtension>
        </extensions>
      </trkpt>
      <trkpt lat="45.331836529076099395751953125" lon="-71.0057372041046619415283203125">
        <ele>747.20001220703125</ele>
        <time>2026-08-21T20:21:53.000Z</time>
        <extensions>
          <ns3:TrackPointExtension>
            <ns3:hr>128</ns3:hr>
            <ns3:cad>75</ns3:cad>
          </ns3:TrackPointExtension>
        </extensions>
      </trkpt>
      <trkpt lat="45.33184491097927093505859375" lon="-71.00574969314038753509521484375">
        <ele>747.20001220703125</ele>
        <time>2026-08-21T20:21:54.000Z</time>
        <extensions>
          <ns3:TrackPointExtension>
            <ns3:hr>127</ns3:hr>
            <ns3:cad>75</ns3:cad>
          </ns3:TrackPointExtension>
        </extensions>
      </trkpt>
      <trkpt lat="45.33185698091983795166015625" lon="-71.00577668286859989166259765625">
        <ele>747</ele>
        <time>2026-08-21T20:21:55.000Z</time>
        <extensions>
          <ns3:TrackPointExtension>
            <ns3:hr>126</ns3:hr>
            <ns3:cad>0</ns3:cad>
          </ns3:TrackPointExtension>
        </extensions>
      </trkpt>
      <trkpt lat="45.33186905086040496826171875" lon="-71.00580300204455852508544921875">
        <ele>747.20001220703125</ele>
        <time>2026-08-21T20:21:56.000Z</time>
        <extensions>
          <ns3:TrackPointExtension>
            <ns3:hr>126</ns3:hr>
            <ns3:cad>0</ns3:cad>
          </ns3:TrackPointExtension>
        </extensions>
      </trkpt>
      <trkpt lat="45.33187550492584705352783203125" lon="-71.00582328625023365020751953125">
        <ele>747.4000244140625</ele>
        <time>2026-08-21T20:21:57.000Z</time>
        <extensions>
          <ns3:TrackPointExtension>
            <ns3:hr>126</ns3:hr>
            <ns3:cad>0</ns3:cad>
          </ns3:TrackPointExtension>
        </extensions>
      </trkpt>
      <trkpt lat="45.33188019879162311553955078125" lon="-71.00584231317043304443359375">
        <ele>747.4000244140625</ele>
        <time>2026-08-21T20:21:58.000Z</time>
        <extensions>
          <ns3:TrackPointExtension>
            <ns3:hr>126</ns3:hr>
            <ns3:cad>0</ns3:cad>
          </ns3:TrackPointExtension>
        </extensions>
      </trkpt>
      <trkpt lat="45.33188103698194026947021484375" lon="-71.00585513748228549957275390625">
        <ele>747.5999755859375</ele>
        <time>2026-08-21T20:21:59.000Z</time>
        <extensions>
          <ns3:TrackPointExtension>
            <ns3:hr>126</ns3:hr>
            <ns3:cad>0</ns3:cad>
          </ns3:TrackPointExtension>
        </extensions>
      </trkpt>
      <trkpt lat="45.33188573084771633148193359375" lon="-71.0058736614882946014404296875">
        <ele>747.5999755859375</ele>
        <time>2026-08-21T20:22:00.000Z</time>
        <extensions>
          <ns3:TrackPointExtension>
            <ns3:hr>125</ns3:hr>
            <ns3:cad>0</ns3:cad>
          </ns3:TrackPointExtension>
        </extensions>
      </trkpt>
      <trkpt lat="45.331896878778934478759765625" lon="-71.00589470006525516510009765625">
        <ele>747.4000244140625</ele>
        <time>2026-08-21T20:22:01.000Z</time>
        <extensions>
          <ns3:TrackPointExtension>
            <ns3:hr>125</ns3:hr>
            <ns3:cad>0</ns3:cad>
          </ns3:TrackPointExtension>
        </extensions>
      </trkpt>
      <trkpt lat="45.3319054283201694488525390625" lon="-71.0059162415564060211181640625">
        <ele>747</ele>
        <time>2026-08-21T20:22:02.000Z</time>
        <extensions>
          <ns3:TrackPointExtension>
            <ns3:hr>125</ns3:hr>
            <ns3:cad>0</ns3:cad>
          </ns3:TrackPointExtension>
        </extensions>
      </trkpt>
      <trkpt lat="45.3319072723388671875" lon="-71.00593082606792449951171875">
        <ele>746.5999755859375</ele>
        <time>2026-08-21T20:22:03.000Z</time>
        <extensions>
          <ns3:TrackPointExtension>
            <ns3:hr>125</ns3:hr>
            <ns3:cad>0</ns3:cad>
          </ns3:TrackPointExtension>
        </extensions>
      </trkpt>
      <trkpt lat="45.3319124691188335418701171875" lon="-71.00594717077910900115966796875">
        <ele>746.4000244140625</ele>
        <time>2026-08-21T20:22:04.000Z</time>
        <extensions>
          <ns3:TrackPointExtension>
            <ns3:hr>125</ns3:hr>
            <ns3:cad>0</ns3:cad>
          </ns3:TrackPointExtension>
        </extensions>
      </trkpt>
      <trkpt lat="45.33191330730915069580078125" lon="-71.0059608332812786102294921875">
        <ele>746.20001220703125</ele>
        <time>2026-08-21T20:22:05.000Z</time>
        <extensions>
          <ns3:TrackPointExtension>
            <ns3:hr>126</ns3:hr>
            <ns3:cad>0</ns3:cad>
          </ns3:TrackPointExtension>
        </extensions>
      </trkpt>
      <trkpt lat="45.3319151513278484344482421875" lon="-71.0059712268412113189697265625">
        <ele>746.4000244140625</ele>
        <time>2026-08-21T20:22:06.000Z</time>
        <extensions>
          <ns3:TrackPointExtension>
            <ns3:hr>126</ns3:hr>
            <ns3:cad>0</ns3:cad>
          </ns3:TrackPointExtension>
        </extensions>
      </trkpt>
      <trkpt lat="45.33191205002367496490478515625" lon="-71.00598555989563465118408203125">
        <ele>746.5999755859375</ele>
        <time>2026-08-21T20:22:07.000Z</time>
        <extensions>
          <ns3:TrackPointExtension>
            <ns3:hr>126</ns3:hr>
            <ns3:cad>0</ns3:cad>
          </ns3:TrackPointExtension>
        </extensions>
      </trkpt>
      <trkpt lat="45.33190635032951831817626953125" lon="-71.0059983842074871063232421875">
        <ele>746.79998779296875</ele>
        <time>2026-08-21T20:22:08.000Z</time>
        <extensions>
          <ns3:TrackPointExtension>
            <ns3:hr>127</ns3:hr>
            <ns3:cad>0</ns3:cad>
          </ns3:TrackPointExtension>
        </extensions>
      </trkpt>
      <trkpt lat="45.33190383575856685638427734375" lon="-71.00600634701550006866455078125">
        <ele>746.79998779296875</ele>
        <time>2026-08-21T20:22:09.000Z</time>
        <extensions>
          <ns3:TrackPointExtension>
            <ns3:hr>127</ns3:hr>
            <ns3:cad>0</ns3:cad>
          </ns3:TrackPointExtension>
        </extensions>
      </trkpt>
      <trkpt lat="45.331899225711822509765625" lon="-71.0060134716331958770751953125">
        <ele>746.79998779296875</ele>
        <time>2026-08-21T20:22:10.000Z</time>
        <extensions>
          <ns3:TrackPointExtension>
            <ns3:hr>129</ns3:hr>
            <ns3:cad>57</ns3:cad>
          </ns3:TrackPointExtension>
        </extensions>
      </trkpt>
      <trkpt lat="45.33189394511282444000244140625" lon="-71.00602068006992340087890625">
        <ele>746.79998779296875</ele>
        <time>2026-08-21T20:22:11.000Z</time>
        <extensions>
          <ns3:TrackPointExtension>
            <ns3:hr>129</ns3:hr>
            <ns3:cad>57</ns3:cad>
          </ns3:TrackPointExtension>
        </extensions>
      </trkpt>
      <trkpt lat="45.331883132457733154296875" lon="-71.00603409111499786376953125">
        <ele>746.5999755859375</ele>
        <time>2026-08-21T20:22:12.000Z</time>
        <extensions>
          <ns3:TrackPointExtension>
            <ns3:hr>129</ns3:hr>
            <ns3:cad>53</ns3:cad>
          </ns3:TrackPointExtension>
        </extensions>
      </trkpt>
      <trkpt lat="45.33187516964972019195556640625" lon="-71.006045155227184295654296875">
        <ele>746.20001220703125</ele>
        <time>2026-08-21T20:22:13.000Z</time>
        <extensions>
          <ns3:TrackPointExtension>
            <ns3:hr>129</ns3:hr>
            <ns3:cad>53</ns3:cad>
          </ns3:TrackPointExtension>
        </extensions>
      </trkpt>
      <trkpt lat="45.3318705596029758453369140625" lon="-71.00606099702417850494384765625">
        <ele>746</ele>
        <time>2026-08-21T20:22:14.000Z</time>
        <extensions>
          <ns3:TrackPointExtension>
            <ns3:hr>130</ns3:hr>
            <ns3:cad>53</ns3:cad>
          </ns3:TrackPointExtension>
        </extensions>
      </trkpt>
      <trkpt lat="45.33186963759362697601318359375" lon="-71.00608077831566333770751953125">
        <ele>745.5999755859375</ele>
        <time>2026-08-21T20:22:15.000Z</time>
        <extensions>
          <ns3:TrackPointExtension>
            <ns3:hr>129</ns3:hr>
            <ns3:cad>53</ns3:cad>
          </ns3:TrackPointExtension>
        </extensions>
      </trkpt>
      <trkpt lat="45.33186695538461208343505859375" lon="-71.006097458302974700927734375">
        <ele>745.5999755859375</ele>
        <time>2026-08-21T20:22:16.000Z</time>
        <extensions>
          <ns3:TrackPointExtension>
            <ns3:hr>128</ns3:hr>
            <ns3:cad>53</ns3:cad>
          </ns3:TrackPointExtension>
        </extensions>
      </trkpt>
      <trkpt lat="45.33186075277626514434814453125" lon="-71.00610977970063686370849609375">
        <ele>745.4000244140625</ele>
        <time>2026-08-21T20:22:17.000Z</time>
        <extensions>
          <ns3:TrackPointExtension>
            <ns3:hr>127</ns3:hr>
            <ns3:cad>53</ns3:cad>
          </ns3:TrackPointExtension>
        </extensions>
      </trkpt>
      <trkpt lat="45.33185589127242565155029296875" lon="-71.00612989626824855804443359375">
        <ele>745.4000244140625</ele>
        <time>2026-08-21T20:22:18.000Z</time>
        <extensions>
          <ns3:TrackPointExtension>
            <ns3:hr>128</ns3:hr>
            <ns3:cad>53</ns3:cad>
          </ns3:TrackPointExtension>
        </extensions>
      </trkpt>
      <trkpt lat="45.33185086213052272796630859375" lon="-71.00615152157843112945556640625">
        <ele>745.20001220703125</ele>
        <time>2026-08-21T20:22:19.000Z</time>
        <extensions>
          <ns3:TrackPointExtension>
            <ns3:hr>128</ns3:hr>
            <ns3:cad>68</ns3:cad>
          </ns3:TrackPointExtension>
        </extensions>
      </trkpt>
      <trkpt lat="45.331845581531524658203125" lon="-71.006167866289615631103515625">
        <ele>745</ele>
        <time>2026-08-21T20:22:20.000Z</time>
        <extensions>
          <ns3:TrackPointExtension>
            <ns3:hr>128</ns3:hr>
            <ns3:cad>0</ns3:cad>
          </ns3:TrackPointExtension>
        </extensions>
      </trkpt>
      <trkpt lat="45.33184222877025604248046875" lon="-71.0061871446669101715087890625">
        <ele>744.79998779296875</ele>
        <time>2026-08-21T20:22:21.000Z</time>
        <extensions>
          <ns3:TrackPointExtension>
            <ns3:hr>128</ns3:hr>
            <ns3:cad>0</ns3:cad>
          </ns3:TrackPointExtension>
        </extensions>
      </trkpt>
      <trkpt lat="45.3318400494754314422607421875" lon="-71.006191670894622802734375">
        <ele>744.5999755859375</ele>
        <time>2026-08-21T20:22:22.000Z</time>
        <extensions>
          <ns3:TrackPointExtension>
            <ns3:hr>127</ns3:hr>
            <ns3:cad>0</ns3:cad>
          </ns3:TrackPointExtension>
        </extensions>
      </trkpt>
      <trkpt lat="45.3318393789231777191162109375" lon="-71.00619896315038204193115234375">
        <ele>744.5999755859375</ele>
        <time>2026-08-21T20:22:23.000Z</time>
        <extensions>
          <ns3:TrackPointExtension>
            <ns3:hr>127</ns3:hr>
            <ns3:cad>0</ns3:cad>
          </ns3:TrackPointExtension>
        </extensions>
      </trkpt>
      <trkpt lat="45.33183820545673370361328125" lon="-71.00620709359645843505859375">
        <ele>744.4000244140625</ele>
        <time>2026-08-21T20:22:24.000Z</time>
        <extensions>
          <ns3:TrackPointExtension>
            <ns3:hr>127</ns3:hr>
            <ns3:cad>0</ns3:cad>
          </ns3:TrackPointExtension>
        </extensions>
      </trkpt>
      <trkpt lat="45.3318316675722599029541015625" lon="-71.00621648132801055908203125">
        <ele>744.4000244140625</ele>
        <time>2026-08-21T20:22:25.000Z</time>
        <extensions>
          <ns3:TrackPointExtension>
            <ns3:hr>127</ns3:hr>
            <ns3:cad>0</ns3:cad>
          </ns3:TrackPointExtension>
        </extensions>
      </trkpt>
      <trkpt lat="45.33182437531650066375732421875" lon="-71.00622897036373615264892578125">
        <ele>744.20001220703125</ele>
        <time>2026-08-21T20:22:26.000Z</time>
        <extensions>
          <ns3:TrackPointExtension>
            <ns3:hr>126</ns3:hr>
            <ns3:cad>0</ns3:cad>
          </ns3:TrackPointExtension>
        </extensions>
      </trkpt>
      <trkpt lat="45.3318199329078197479248046875" lon="-71.0062384419143199920654296875">
        <ele>744</ele>
        <time>2026-08-21T20:22:27.000Z</time>
        <extensions>
          <ns3:TrackPointExtension>
            <ns3:hr>126</ns3:hr>
            <ns3:cad>0</ns3:cad>
          </ns3:TrackPointExtension>
        </extensions>
      </trkpt>
      <trkpt lat="45.33181515522301197052001953125" lon="-71.006245315074920654296875">
        <ele>743.79998779296875</ele>
        <time>2026-08-21T20:22:28.000Z</time>
        <extensions>
          <ns3:TrackPointExtension>
            <ns3:hr>126</ns3:hr>
            <ns3:cad>0</ns3:cad>
          </ns3:TrackPointExtension>
        </extensions>
      </trkpt>
      <trkpt lat="45.33181481994688510894775390625" lon="-71.00624489597976207733154296875">
        <ele>743.4000244140625</ele>
        <time>2026-08-21T20:22:29.000Z</time>
        <extensions>
          <ns3:TrackPointExtension>
            <ns3:hr>126</ns3:hr>
            <ns3:cad>0</ns3:cad>
          </ns3:TrackPointExtension>
        </extensions>
      </trkpt>
      <trkpt lat="45.33181004226207733154296875" lon="-71.0062491707503795623779296875">
        <ele>743.20001220703125</ele>
        <time>2026-08-21T20:22:30.000Z</time>
        <extensions>
          <ns3:TrackPointExtension>
            <ns3:hr>127</ns3:hr>
            <ns3:cad>0</ns3:cad>
          </ns3:TrackPointExtension>
        </extensions>
      </trkpt>
      <trkpt lat="45.331804342567920684814453125" lon="-71.00625797174870967864990234375">
        <ele>743</ele>
        <time>2026-08-21T20:22:31.000Z</time>
        <extensions>
          <ns3:TrackPointExtension>
            <ns3:hr>127</ns3:hr>
            <ns3:cad>0</ns3:cad>
          </ns3:TrackPointExtension>
        </extensions>
      </trkpt>
      <trkpt lat="45.33180191181600093841552734375" lon="-71.00626199506223201751708984375">
        <ele>742.79998779296875</ele>
        <time>2026-08-21T20:22:32.000Z</time>
        <extensions>
          <ns3:TrackPointExtension>
            <ns3:hr>127</ns3:hr>
            <ns3:cad>0</ns3:cad>
          </ns3:TrackPointExtension>
        </extensions>
      </trkpt>
      <trkpt lat="45.33179101534187793731689453125" lon="-71.00627255626022815704345703125">
        <ele>742.5999755859375</ele>
        <time>2026-08-21T20:22:33.000Z</time>
        <extensions>
          <ns3:TrackPointExtension>
            <ns3:hr>127</ns3:hr>
            <ns3:cad>0</ns3:cad>
          </ns3:TrackPointExtension>
        </extensions>
      </trkpt>
      <trkpt lat="45.3317803703248500823974609375" lon="-71.00627951323986053466796875">
        <ele>742.20001220703125</ele>
        <time>2026-08-21T20:22:34.000Z</time>
        <extensions>
          <ns3:TrackPointExtension>
            <ns3:hr>127</ns3:hr>
            <ns3:cad>0</ns3:cad>
          </ns3:TrackPointExtension>
        </extensions>
      </trkpt>
      <trkpt lat="45.33177257515490055084228515625" lon="-71.00628848187625408172607421875">
        <ele>742</ele>
        <time>2026-08-21T20:22:35.000Z</time>
        <extensions>
          <ns3:TrackPointExtension>
            <ns3:hr>127</ns3:hr>
            <ns3:cad>0</ns3:cad>
          </ns3:TrackPointExtension>
        </extensions>
      </trkpt>
      <trkpt lat="45.3317626006901264190673828125" lon="-71.00629451684653759002685546875">
        <ele>741.5999755859375</ele>
        <time>2026-08-21T20:22:36.000Z</time>
        <extensions>
          <ns3:TrackPointExtension>
            <ns3:hr>126</ns3:hr>
            <ns3:cad>0</ns3:cad>
          </ns3:TrackPointExtension>
        </extensions>
      </trkpt>
      <trkpt lat="45.3317538835108280181884765625" lon="-71.00630700588226318359375">
        <ele>741.4000244140625</ele>
        <time>2026-08-21T20:22:37.000Z</time>
        <extensions>
          <ns3:TrackPointExtension>
            <ns3:hr>126</ns3:hr>
            <ns3:cad>0</ns3:cad>
          </ns3:TrackPointExtension>
        </extensions>
      </trkpt>
      <trkpt lat="45.331748686730861663818359375" lon="-71.0063162259757518768310546875">
        <ele>741.20001220703125</ele>
        <time>2026-08-21T20:22:38.000Z</time>
        <extensions>
          <ns3:TrackPointExtension>
            <ns3:hr>126</ns3:hr>
            <ns3:cad>0</ns3:cad>
          </ns3:TrackPointExtension>
        </extensions>
      </trkpt>
      <trkpt lat="45.33174122683703899383544921875" lon="-71.00632351823151111602783203125">
        <ele>741</ele>
        <time>2026-08-21T20:22:39.000Z</time>
        <extensions>
          <ns3:TrackPointExtension>
            <ns3:hr>126</ns3:hr>
            <ns3:cad>0</ns3:cad>
          </ns3:TrackPointExtension>
        </extensions>
      </trkpt>
      <trkpt lat="45.33173049800097942352294921875" lon="-71.006335504353046417236328125">
        <ele>740.5999755859375</ele>
        <time>2026-08-21T20:22:40.000Z</time>
        <extensions>
          <ns3:TrackPointExtension>
            <ns3:hr>126</ns3:hr>
            <ns3:cad>0</ns3:cad>
          </ns3:TrackPointExtension>
        </extensions>
      </trkpt>
      <trkpt lat="45.3317203558981418609619140625" lon="-71.00634648464620113372802734375">
        <ele>740.4000244140625</ele>
        <time>2026-08-21T20:22:41.000Z</time>
        <extensions>
          <ns3:TrackPointExtension>
            <ns3:hr>126</ns3:hr>
            <ns3:cad>0</ns3:cad>
          </ns3:TrackPointExtension>
        </extensions>
      </trkpt>
      <trkpt lat="45.331709794700145721435546875" lon="-71.00635654293000698089599609375">
        <ele>740.20001220703125</ele>
        <time>2026-08-21T20:22:42.000Z</time>
        <extensions>
          <ns3:TrackPointExtension>
            <ns3:hr>127</ns3:hr>
            <ns3:cad>0</ns3:cad>
          </ns3:TrackPointExtension>
        </extensions>
      </trkpt>
      <trkpt lat="45.33170065842568874359130859375" lon="-71.00636224262416362762451171875">
        <ele>740</ele>
        <time>2026-08-21T20:22:43.000Z</time>
        <extensions>
          <ns3:TrackPointExtension>
            <ns3:hr>127</ns3:hr>
            <ns3:cad>0</ns3:cad>
          </ns3:TrackPointExtension>
        </extensions>
      </trkpt>
      <trkpt lat="45.3316999040544033050537109375" lon="-71.00636643357574939727783203125">
        <ele>739.79998779296875</ele>
        <time>2026-08-21T20:22:44.000Z</time>
        <extensions>
          <ns3:TrackPointExtension>
            <ns3:hr>127</ns3:hr>
            <ns3:cad>0</ns3:cad>
          </ns3:TrackPointExtension>
        </extensions>
      </trkpt>
      <trkpt lat="45.33169881440699100494384765625" lon="-71.006370373070240020751953125">
        <ele>739.5999755859375</ele>
        <time>2026-08-21T20:22:45.000Z</time>
        <extensions>
          <ns3:TrackPointExtension>
            <ns3:hr>128</ns3:hr>
            <ns3:cad>0</ns3:cad>
          </ns3:TrackPointExtension>
        </extensions>
      </trkpt>
      <trkpt lat="45.33169738948345184326171875" lon="-71.006361655890941619873046875">
        <ele>739.4000244140625</ele>
        <time>2026-08-21T20:22:46.000Z</time>
        <extensions>
          <ns3:TrackPointExtension>
            <ns3:hr>128</ns3:hr>
            <ns3:cad>0</ns3:cad>
          </ns3:TrackPointExtension>
        </extensions>
      </trkpt>
      <trkpt lat="45.331695042550563812255859375" lon="-71.00635654293000698089599609375">
        <ele>739</ele>
        <time>2026-08-21T20:22:47.000Z</time>
        <extensions>
          <ns3:TrackPointExtension>
            <ns3:hr>127</ns3:hr>
            <ns3:cad>0</ns3:cad>
          </ns3:TrackPointExtension>
        </extensions>
      </trkpt>
      <trkpt lat="45.331697054207324981689453125" lon="-71.0063514299690723419189453125">
        <ele>738.5999755859375</ele>
        <time>2026-08-21T20:22:48.000Z</time>
        <extensions>
          <ns3:TrackPointExtension>
            <ns3:hr>127</ns3:hr>
            <ns3:cad>0</ns3:cad>
          </ns3:TrackPointExtension>
        </extensions>
      </trkpt>
      <trkpt lat="45.33171105198562145233154296875" lon="-71.0063400305807590484619140625">
        <ele>738</ele>
        <time>2026-08-21T20:22:49.000Z</time>
        <extensions>
          <ns3:TrackPointExtension>
            <ns3:hr>126</ns3:hr>
            <ns3:cad>0</ns3:cad>
          </ns3:TrackPointExtension>
        </extensions>
      </trkpt>
      <trkpt lat="45.33172328956425189971923828125" lon="-71.0063326545059680938720703125">
        <ele>737.5999755859375</ele>
        <time>2026-08-21T20:22:50.000Z</time>
        <extensions>
          <ns3:TrackPointExtension>
            <ns3:hr>126</ns3:hr>
            <ns3:cad>0</ns3:cad>
          </ns3:TrackPointExtension>
        </extensions>
      </trkpt>
      <trkpt lat="45.33173066563904285430908203125" lon="-71.006323434412479400634765625">
        <ele>737.20001220703125</ele>
        <time>2026-08-21T20:22:51.000Z</time>
        <extensions>
          <ns3:TrackPointExtension>
            <ns3:hr>126</ns3:hr>
            <ns3:cad>0</ns3:cad>
          </ns3:TrackPointExtension>
        </extensions>
      </trkpt>
      <trkpt lat="45.3317320905625820159912109375" lon="-71.00631094537675380706787109375">
        <ele>737</ele>
        <time>2026-08-21T20:22:52.000Z</time>
        <extensions>
          <ns3:TrackPointExtension>
            <ns3:hr>126</ns3:hr>
            <ns3:cad>0</ns3:cad>
          </ns3:TrackPointExtension>
        </extensions>
      </trkpt>
      <trkpt lat="45.331735275685787200927734375" lon="-71.0063004679977893829345703125">
        <ele>736.79998779296875</ele>
        <time>2026-08-21T20:22:53.000Z</time>
        <extensions>
          <ns3:TrackPointExtension>
            <ns3:hr>127</ns3:hr>
            <ns3:cad>0</ns3:cad>
          </ns3:TrackPointExtension>
        </extensions>
      </trkpt>
      <trkpt lat="45.33174307085573673248291015625" lon="-71.00628144107758998870849609375">
        <ele>736.79998779296875</ele>
        <time>2026-08-21T20:22:54.000Z</time>
        <extensions>
          <ns3:TrackPointExtension>
            <ns3:hr>126</ns3:hr>
            <ns3:cad>72</ns3:cad>
          </ns3:TrackPointExtension>
        </extensions>
      </trkpt>
      <trkpt lat="45.33174977637827396392822265625" lon="-71.0062642581760883331298828125">
        <ele>736.5999755859375</ele>
        <time>2026-08-21T20:22:55.000Z</time>
        <extensions>
          <ns3:TrackPointExtension>
            <ns3:hr>127</ns3:hr>
            <ns3:cad>72</ns3:cad>
          </ns3:TrackPointExtension>
        </extensions>
      </trkpt>
      <trkpt lat="45.33175413496792316436767578125" lon="-71.00624757818877696990966796875">
        <ele>736.4000244140625</ele>
        <time>2026-08-21T20:22:56.000Z</time>
        <extensions>
          <ns3:TrackPointExtension>
            <ns3:hr>127</ns3:hr>
            <ns3:cad>72</ns3:cad>
          </ns3:TrackPointExtension>
        </extensions>
      </trkpt>
      <trkpt lat="45.33176067285239696502685546875" lon="-71.0062297247350215911865234375">
        <ele>736</ele>
        <time>2026-08-21T20:22:57.000Z</time>
        <extensions>
          <ns3:TrackPointExtension>
            <ns3:hr>126</ns3:hr>
            <ns3:cad>72</ns3:cad>
          </ns3:TrackPointExtension>
        </extensions>
      </trkpt>
      <trkpt lat="45.331769473850727081298828125" lon="-71.0062119551002979278564453125">
        <ele>735.79998779296875</ele>
        <time>2026-08-21T20:22:58.000Z</time>
        <extensions>
          <ns3:TrackPointExtension>
            <ns3:hr>126</ns3:hr>
            <ns3:cad>72</ns3:cad>
          </ns3:TrackPointExtension>
        </extensions>
      </trkpt>
      <trkpt lat="45.3317703120410442352294921875" lon="-71.0061938501894474029541015625">
        <ele>735.5999755859375</ele>
        <time>2026-08-21T20:22:59.000Z</time>
        <extensions>
          <ns3:TrackPointExtension>
            <ns3:hr>126</ns3:hr>
            <ns3:cad>72</ns3:cad>
          </ns3:TrackPointExtension>
        </extensions>
      </trkpt>
      <trkpt lat="45.33176637254655361175537109375" lon="-71.0061767511069774627685546875">
        <ele>735.5999755859375</ele>
        <time>2026-08-21T20:23:00.000Z</time>
        <extensions>
          <ns3:TrackPointExtension>
            <ns3:hr>126</ns3:hr>
            <ns3:cad>72</ns3:cad>
          </ns3:TrackPointExtension>
        </extensions>
      </trkpt>
      <trkpt lat="45.33176234923303127288818359375" lon="-71.00615152157843112945556640625">
        <ele>735.4000244140625</ele>
        <time>2026-08-21T20:23:01.000Z</time>
        <extensions>
          <ns3:TrackPointExtension>
            <ns3:hr>126</ns3:hr>
            <ns3:cad>72</ns3:cad>
          </ns3:TrackPointExtension>
        </extensions>
      </trkpt>
      <trkpt lat="45.33176100812852382659912109375" lon="-71.00612922571599483489990234375">
        <ele>735.20001220703125</ele>
        <time>2026-08-21T20:23:02.000Z</time>
        <extensions>
          <ns3:TrackPointExtension>
            <ns3:hr>126</ns3:hr>
            <ns3:cad>72</ns3:cad>
          </ns3:TrackPointExtension>
        </extensions>
      </trkpt>
      <trkpt lat="45.33176218159496784210205078125" lon="-71.00610625930130481719970703125">
        <ele>735</ele>
        <time>2026-08-21T20:23:03.000Z</time>
        <extensions>
          <ns3:TrackPointExtension>
            <ns3:hr>126</ns3:hr>
            <ns3:cad>72</ns3:cad>
          </ns3:TrackPointExtension>
        </extensions>
      </trkpt>
      <trkpt lat="45.33176503144204616546630859375" lon="-71.006086729466915130615234375">
        <ele>734.79998779296875</ele>
        <time>2026-08-21T20:23:04.000Z</time>
        <extensions>
          <ns3:TrackPointExtension>
            <ns3:hr>126</ns3:hr>
            <ns3:cad>72</ns3:cad>
          </ns3:TrackPointExtension>
        </extensions>
      </trkpt>
      <trkpt lat="45.331765450537204742431640625" lon="-71.00607507862150669097900390625">
        <ele>734.5999755859375</ele>
        <time>2026-08-21T20:23:05.000Z</time>
        <extensions>
          <ns3:TrackPointExtension>
            <ns3:hr>126</ns3:hr>
            <ns3:cad>72</ns3:cad>
          </ns3:TrackPointExtension>
        </extensions>
      </trkpt>
      <trkpt lat="45.33176452852785587310791015625" lon="-71.0060627572238445281982421875">
        <ele>734.4000244140625</ele>
        <time>2026-08-21T20:23:06.000Z</time>
        <extensions>
          <ns3:TrackPointExtension>
            <ns3:hr>126</ns3:hr>
            <ns3:cad>72</ns3:cad>
          </ns3:TrackPointExtension>
        </extensions>
      </trkpt>
      <trkpt lat="45.331762097775936126708984375" lon="-71.0060533694922924041748046875">
        <ele>734.4000244140625</ele>
        <time>2026-08-21T20:23:07.000Z</time>
        <extensions>
          <ns3:TrackPointExtension>
            <ns3:hr>126</ns3:hr>
            <ns3:cad>72</ns3:cad>
          </ns3:TrackPointExtension>
        </extensions>
      </trkpt>
      <trkpt lat="45.33176033757627010345458984375" lon="-71.00604171864688396453857421875">
        <ele>734.20001220703125</ele>
        <time>2026-08-21T20:23:08.000Z</time>
        <extensions>
          <ns3:TrackPointExtension>
            <ns3:hr>125</ns3:hr>
            <ns3:cad>72</ns3:cad>
          </ns3:TrackPointExtension>
        </extensions>
      </trkpt>
      <trkpt lat="45.33176218159496784210205078125" lon="-71.00602428428828716278076171875">
        <ele>734</ele>
        <time>2026-08-21T20:23:09.000Z</time>
        <extensions>
          <ns3:TrackPointExtension>
            <ns3:hr>124</ns3:hr>
            <ns3:cad>72</ns3:cad>
          </ns3:TrackPointExtension>
        </extensions>
      </trkpt>
      <trkpt lat="45.331759750843048095703125" lon="-71.0060178302228450775146484375">
        <ele>733.79998779296875</ele>
        <time>2026-08-21T20:23:10.000Z</time>
        <extensions>
          <ns3:TrackPointExtension>
            <ns3:hr>123</ns3:hr>
            <ns3:cad>52</ns3:cad>
          </ns3:TrackPointExtension>
        </extensions>
      </trkpt>
      <trkpt lat="45.3317589126527309417724609375" lon="-71.0060067661106586456298828125">
        <ele>733.5999755859375</ele>
        <time>2026-08-21T20:23:11.000Z</time>
        <extensions>
          <ns3:TrackPointExtension>
            <ns3:hr>123</ns3:hr>
            <ns3:cad>52</ns3:cad>
          </ns3:TrackPointExtension>
        </extensions>
      </trkpt>
      <trkpt lat="45.33175245858728885650634765625" lon="-71.005997546017169952392578125">
        <ele>733.5999755859375</ele>
        <time>2026-08-21T20:23:12.000Z</time>
        <extensions>
          <ns3:TrackPointExtension>
            <ns3:hr>123</ns3:hr>
            <ns3:cad>52</ns3:cad>
          </ns3:TrackPointExtension>
        </extensions>
      </trkpt>
      <trkpt lat="45.33174608834087848663330078125" lon="-71.00599243305623531341552734375">
        <ele>733.20001220703125</ele>
        <time>2026-08-21T20:23:13.000Z</time>
        <extensions>
          <ns3:TrackPointExtension>
            <ns3:hr>122</ns3:hr>
            <ns3:cad>0</ns3:cad>
          </ns3:TrackPointExtension>
        </extensions>
      </trkpt>
      <trkpt lat="45.331742651760578155517578125" lon="-71.0059799440205097198486328125">
        <ele>733</ele>
        <time>2026-08-21T20:23:14.000Z</time>
        <extensions>
          <ns3:TrackPointExtension>
            <ns3:hr>122</ns3:hr>
            <ns3:cad>0</ns3:cad>
          </ns3:TrackPointExtension>
        </extensions>
      </trkpt>
      <trkpt lat="45.33174223266541957855224609375" lon="-71.00596762262284755706787109375">
        <ele>732.79998779296875</ele>
        <time>2026-08-21T20:23:15.000Z</time>
        <extensions>
          <ns3:TrackPointExtension>
            <ns3:hr>123</ns3:hr>
            <ns3:cad>0</ns3:cad>
          </ns3:TrackPointExtension>
        </extensions>
      </trkpt>
      <trkpt lat="45.33173502422869205474853515625" lon="-71.0059588216245174407958984375">
        <ele>732.4000244140625</ele>
        <time>2026-08-21T20:23:16.000Z</time>
        <extensions>
          <ns3:TrackPointExtension>
            <ns3:hr>123</ns3:hr>
            <ns3:cad>0</ns3:cad>
          </ns3:TrackPointExtension>
        </extensions>
      </trkpt>
      <trkpt lat="45.331725887954235076904296875" lon="-71.00594960153102874755859375">
        <ele>732</ele>
        <time>2026-08-21T20:23:17.000Z</time>
        <extensions>
          <ns3:TrackPointExtension>
            <ns3:hr>122</ns3:hr>
            <ns3:cad>0</ns3:cad>
          </ns3:TrackPointExtension>
        </extensions>
      </trkpt>
      <trkpt lat="45.33172211609780788421630859375" lon="-71.00594968535006046295166015625">
        <ele>731.79998779296875</ele>
        <time>2026-08-21T20:23:18.000Z</time>
        <extensions>
          <ns3:TrackPointExtension>
            <ns3:hr>122</ns3:hr>
            <ns3:cad>0</ns3:cad>
          </ns3:TrackPointExtension>
        </extensions>
      </trkpt>
      <trkpt lat="45.33171323128044605255126953125" lon="-71.00594767369329929351806640625">
        <ele>731.5999755859375</ele>
        <time>2026-08-21T20:23:19.000Z</time>
        <extensions>
          <ns3:TrackPointExtension>
            <ns3:hr>122</ns3:hr>
            <ns3:cad>0</ns3:cad>
          </ns3:TrackPointExtension>
        </extensions>
      </trkpt>
      <trkpt lat="45.33170987851917743682861328125" lon="-71.0059444047510623931884765625">
        <ele>731.5999755859375</ele>
        <time>2026-08-21T20:23:20.000Z</time>
        <extensions>
          <ns3:TrackPointExtension>
            <ns3:hr>123</ns3:hr>
            <ns3:cad>0</ns3:cad>
          </ns3:TrackPointExtension>
        </extensions>
      </trkpt>
      <trkpt lat="45.33170199953019618988037109375" lon="-71.00594314746558666229248046875">
        <ele>731.4000244140625</ele>
        <time>2026-08-21T20:23:21.000Z</time>
        <extensions>
          <ns3:TrackPointExtension>
            <ns3:hr>123</ns3:hr>
            <ns3:cad>0</ns3:cad>
          </ns3:TrackPointExtension>
        </extensions>
      </trkpt>
      <trkpt lat="45.33169361762702465057373046875" lon="-71.005948595702648162841796875">
        <ele>731</ele>
        <time>2026-08-21T20:23:22.000Z</time>
        <extensions>
          <ns3:TrackPointExtension>
            <ns3:hr>124</ns3:hr>
            <ns3:cad>0</ns3:cad>
          </ns3:TrackPointExtension>
        </extensions>
      </trkpt>
      <trkpt lat="45.33169344998896121978759765625" lon="-71.00595337338745594024658203125">
        <ele>730.79998779296875</ele>
        <time>2026-08-21T20:23:23.000Z</time>
        <extensions>
          <ns3:TrackPointExtension>
            <ns3:hr>124</ns3:hr>
            <ns3:cad>0</ns3:cad>
          </ns3:TrackPointExtension>
        </extensions>
      </trkpt>
      <trkpt lat="45.33167970366775989532470703125" lon="-71.00596242584288120269775390625">
        <ele>730.4000244140625</ele>
        <time>2026-08-21T20:23:24.000Z</time>
        <extensions>
          <ns3:TrackPointExtension>
            <ns3:hr>124</ns3:hr>
            <ns3:cad>0</ns3:cad>
          </ns3:TrackPointExtension>
        </extensions>
      </trkpt>
      <trkpt lat="45.33166897483170032501220703125" lon="-71.00596527568995952606201171875">
        <ele>729.79998779296875</ele>
        <time>2026-08-21T20:23:25.000Z</time>
        <extensions>
          <ns3:TrackPointExtension>
            <ns3:hr>124</ns3:hr>
            <ns3:cad>0</ns3:cad>
          </ns3:TrackPointExtension>
        </extensions>
      </trkpt>
      <trkpt lat="45.33165707252919673919677734375" lon="-71.0059725679457187652587890625">
        <ele>729.4000244140625</ele>
        <time>2026-08-21T20:23:26.000Z</time>
        <extensions>
          <ns3:TrackPointExtension>
            <ns3:hr>125</ns3:hr>
            <ns3:cad>0</ns3:cad>
          </ns3:TrackPointExtension>
        </extensions>
      </trkpt>
      <trkpt lat="45.33165489323437213897705078125" lon="-71.00597449578344821929931640625">
        <ele>729.20001220703125</ele>
        <time>2026-08-21T20:23:27.000Z</time>
        <extensions>
          <ns3:TrackPointExtension>
            <ns3:hr>125</ns3:hr>
            <ns3:cad>0</ns3:cad>
          </ns3:TrackPointExtension>
        </extensions>
      </trkpt>
      <trkpt lat="45.33164885826408863067626953125" lon="-71.0059745796024799346923828125">
        <ele>728.79998779296875</ele>
        <time>2026-08-21T20:23:28.000Z</time>
        <extensions>
          <ns3:TrackPointExtension>
            <ns3:hr>125</ns3:hr>
            <ns3:cad>0</ns3:cad>
          </ns3:TrackPointExtension>
        </extensions>
      </trkpt>
      <trkpt lat="45.33163947053253650665283203125" lon="-71.00597550161182880401611328125">
        <ele>728.5999755859375</ele>
        <time>2026-08-21T20:23:29.000Z</time>
        <extensions>
          <ns3:TrackPointExtension>
            <ns3:hr>126</ns3:hr>
            <ns3:cad>0</ns3:cad>
          </ns3:TrackPointExtension>
        </extensions>
      </trkpt>
      <trkpt lat="45.3316392190754413604736328125" lon="-71.00597265176475048065185546875">
        <ele>728.4000244140625</ele>
        <time>2026-08-21T20:23:30.000Z</time>
        <extensions>
          <ns3:TrackPointExtension>
            <ns3:hr>126</ns3:hr>
            <ns3:cad>59</ns3:cad>
          </ns3:TrackPointExtension>
        </extensions>
      </trkpt>
      <trkpt lat="45.331638045608997344970703125" lon="-71.0059722326695919036865234375">
        <ele>728</ele>
        <time>2026-08-21T20:23:31.000Z</time>
        <extensions>
          <ns3:TrackPointExtension>
            <ns3:hr>126</ns3:hr>
            <ns3:cad>59</ns3:cad>
          </ns3:TrackPointExtension>
        </extensions>
      </trkpt>
      <trkpt lat="45.33163779415190219879150390625" lon="-71.005965359508991241455078125">
        <ele>727.79998779296875</ele>
        <time>2026-08-21T20:23:32.000Z</time>
        <extensions>
          <ns3:TrackPointExtension>
            <ns3:hr>126</ns3:hr>
            <ns3:cad>59</ns3:cad>
          </ns3:TrackPointExtension>
        </extensions>
      </trkpt>
      <trkpt lat="45.3316351957619190216064453125" lon="-71.00595773197710514068603515625">
        <ele>727.4000244140625</ele>
        <time>2026-08-21T20:23:33.000Z</time>
        <extensions>
          <ns3:TrackPointExtension>
            <ns3:hr>126</ns3:hr>
            <ns3:cad>59</ns3:cad>
          </ns3:TrackPointExtension>
        </extensions>
      </trkpt>
      <trkpt lat="45.3316351957619190216064453125" lon="-71.005947589874267578125">
        <ele>727</ele>
        <time>2026-08-21T20:23:34.000Z</time>
        <extensions>
          <ns3:TrackPointExtension>
            <ns3:hr>126</ns3:hr>
            <ns3:cad>59</ns3:cad>
          </ns3:TrackPointExtension>
        </extensions>
      </trkpt>
      <trkpt lat="45.3316362015902996063232421875" lon="-71.00593484938144683837890625">
        <ele>726.79998779296875</ele>
        <time>2026-08-21T20:23:35.000Z</time>
        <extensions>
          <ns3:TrackPointExtension>
            <ns3:hr>126</ns3:hr>
            <ns3:cad>59</ns3:cad>
          </ns3:TrackPointExtension>
        </extensions>
      </trkpt>
      <trkpt lat="45.331640057265758514404296875" lon="-71.0059219412505626678466796875">
        <ele>726.4000244140625</ele>
        <time>2026-08-21T20:23:36.000Z</time>
        <extensions>
          <ns3:TrackPointExtension>
            <ns3:hr>126</ns3:hr>
            <ns3:cad>59</ns3:cad>
          </ns3:TrackPointExtension>
        </extensions>
      </trkpt>
      <trkpt lat="45.33163846470415592193603515625" lon="-71.00590475834906101226806640625">
        <ele>726.20001220703125</ele>
        <time>2026-08-21T20:23:37.000Z</time>
        <extensions>
          <ns3:TrackPointExtension>
            <ns3:hr>126</ns3:hr>
            <ns3:cad>59</ns3:cad>
          </ns3:TrackPointExtension>
        </extensions>
      </trkpt>
      <trkpt lat="45.33163662068545818328857421875" lon="-71.0058964602649211883544921875">
        <ele>726</ele>
        <time>2026-08-21T20:23:38.000Z</time>
        <extensions>
          <ns3:TrackPointExtension>
            <ns3:hr>125</ns3:hr>
            <ns3:cad>59</ns3:cad>
          </ns3:TrackPointExtension>
        </extensions>
      </trkpt>
      <trkpt lat="45.3316338546574115753173828125" lon="-71.00588497705757617950439453125">
        <ele>725.5999755859375</ele>
        <time>2026-08-21T20:23:39.000Z</time>
        <extensions>
          <ns3:TrackPointExtension>
            <ns3:hr>124</ns3:hr>
            <ns3:cad>59</ns3:cad>
          </ns3:TrackPointExtension>
        </extensions>
      </trkpt>
      <trkpt lat="45.33163025043904781341552734375" lon="-71.0058739967644214630126953125">
        <ele>725.4000244140625</ele>
        <time>2026-08-21T20:23:40.000Z</time>
        <extensions>
          <ns3:TrackPointExtension>
            <ns3:hr>123</ns3:hr>
            <ns3:cad>59</ns3:cad>
          </ns3:TrackPointExtension>
        </extensions>
      </trkpt>
      <trkpt lat="45.331625305116176605224609375" lon="-71.0058729909360408782958984375">
        <ele>725</ele>
        <time>2026-08-21T20:23:41.000Z</time>
        <extensions>
          <ns3:TrackPointExtension>
            <ns3:hr>122</ns3:hr>
            <ns3:cad>59</ns3:cad>
          </ns3:TrackPointExtension>
        </extensions>
      </trkpt>
      <trkpt lat="45.33161633647978305816650390625" lon="-71.00585798732936382293701171875">
        <ele>724.5999755859375</ele>
        <time>2026-08-21T20:23:42.000Z</time>
        <extensions>
          <ns3:TrackPointExtension>
            <ns3:hr>122</ns3:hr>
            <ns3:cad>58</ns3:cad>
          </ns3:TrackPointExtension>
        </extensions>
      </trkpt>
      <trkpt lat="45.3316080383956432342529296875" lon="-71.00585027597844600677490234375">
        <ele>724.4000244140625</ele>
        <time>2026-08-21T20:23:43.000Z</time>
        <extensions>
          <ns3:TrackPointExtension>
            <ns3:hr>121</ns3:hr>
            <ns3:cad>58</ns3:cad>
          </ns3:TrackPointExtension>
        </extensions>
      </trkpt>
      <trkpt lat="45.3315983153879642486572265625" lon="-71.00584206171333789825439453125">
        <ele>724</ele>
        <time>2026-08-21T20:23:44.000Z</time>
        <extensions>
          <ns3:TrackPointExtension>
            <ns3:hr>121</ns3:hr>
            <ns3:cad>58</ns3:cad>
          </ns3:TrackPointExtension>
        </extensions>
      </trkpt>
      <trkpt lat="45.33158414997160434722900390625" lon="-71.00583384744822978973388671875">
        <ele>723.5999755859375</ele>
        <time>2026-08-21T20:23:45.000Z</time>
        <extensions>
          <ns3:TrackPointExtension>
            <ns3:hr>121</ns3:hr>
            <ns3:cad>58</ns3:cad>
          </ns3:TrackPointExtension>
        </extensions>
      </trkpt>
      <trkpt lat="45.33157710917294025421142578125" lon="-71.0058240406215190887451171875">
        <ele>723.20001220703125</ele>
        <time>2026-08-21T20:23:46.000Z</time>
        <extensions>
          <ns3:TrackPointExtension>
            <ns3:hr>120</ns3:hr>
            <ns3:cad>58</ns3:cad>
          </ns3:TrackPointExtension>
        </extensions>
      </trkpt>
      <trkpt lat="45.33156772144138813018798828125" lon="-71.00582194514572620391845703125">
        <ele>722.79998779296875</ele>
        <time>2026-08-21T20:23:47.000Z</time>
        <extensions>
          <ns3:TrackPointExtension>
            <ns3:hr>120</ns3:hr>
            <ns3:cad>0</ns3:cad>
          </ns3:TrackPointExtension>
        </extensions>
      </trkpt>
      <trkpt lat="45.33156369812786579132080078125" lon="-71.00583082996308803558349609375">
        <ele>722.4000244140625</ele>
        <time>2026-08-21T20:23:48.000Z</time>
        <extensions>
          <ns3:TrackPointExtension>
            <ns3:hr>119</ns3:hr>
            <ns3:cad>0</ns3:cad>
          </ns3:TrackPointExtension>
        </extensions>
      </trkpt>
      <trkpt lat="45.33155858516693115234375" lon="-71.00584231317043304443359375">
        <ele>722.20001220703125</ele>
        <time>2026-08-21T20:23:49.000Z</time>
        <extensions>
          <ns3:TrackPointExtension>
            <ns3:hr>119</ns3:hr>
            <ns3:cad>0</ns3:cad>
          </ns3:TrackPointExtension>
        </extensions>
      </trkpt>
      <trkpt lat="45.3315523825585842132568359375" lon="-71.0058545507490634918212890625">
        <ele>722</ele>
        <time>2026-08-21T20:23:50.000Z</time>
        <extensions>
          <ns3:TrackPointExtension>
            <ns3:hr>118</ns3:hr>
            <ns3:cad>0</ns3:cad>
          </ns3:TrackPointExtension>
        </extensions>
      </trkpt>
      <trkpt lat="45.33154852688312530517578125" lon="-71.00586821325123310089111328125">
        <ele>721.79998779296875</ele>
        <time>2026-08-21T20:23:51.000Z</time>
        <extensions>
          <ns3:TrackPointExtension>
            <ns3:hr>118</ns3:hr>
            <ns3:cad>0</ns3:cad>
          </ns3:TrackPointExtension>
        </extensions>
      </trkpt>
      <trkpt lat="45.3315426595509052276611328125" lon="-71.00588229484856128692626953125">
        <ele>721.4000244140625</ele>
        <time>2026-08-21T20:23:52.000Z</time>
        <extensions>
          <ns3:TrackPointExtension>
            <ns3:hr>118</ns3:hr>
            <ns3:cad>0</ns3:cad>
          </ns3:TrackPointExtension>
        </extensions>
      </trkpt>
      <trkpt lat="45.3315379656851291656494140625" lon="-71.00589620880782604217529296875">
        <ele>721.20001220703125</ele>
        <time>2026-08-21T20:23:53.000Z</time>
        <extensions>
          <ns3:TrackPointExtension>
            <ns3:hr>118</ns3:hr>
            <ns3:cad>0</ns3:cad>
          </ns3:TrackPointExtension>
        </extensions>
      </trkpt>
      <trkpt lat="45.33153302036225795745849609375" lon="-71.00590375252068042755126953125">
        <ele>721</ele>
        <time>2026-08-21T20:23:54.000Z</time>
        <extensions>
          <ns3:TrackPointExtension>
            <ns3:hr>118</ns3:hr>
            <ns3:cad>0</ns3:cad>
          </ns3:TrackPointExtension>
        </extensions>
      </trkpt>
      <trkpt lat="45.33152665011584758758544921875" lon="-71.005918420851230621337890625">
        <ele>721</ele>
        <time>2026-08-21T20:23:55.000Z</time>
        <extensions>
          <ns3:TrackPointExtension>
            <ns3:hr>118</ns3:hr>
            <ns3:cad>0</ns3:cad>
          </ns3:TrackPointExtension>
        </extensions>
      </trkpt>
      <trkpt lat="45.33152262680232524871826171875" lon="-71.0059323348104953765869140625">
        <ele>720.79998779296875</ele>
        <time>2026-08-21T20:23:56.000Z</time>
        <extensions>
          <ns3:TrackPointExtension>
            <ns3:hr>118</ns3:hr>
            <ns3:cad>0</ns3:cad>
          </ns3:TrackPointExtension>
        </extensions>
      </trkpt>
      <trkpt lat="45.33152027986943721771240234375" lon="-71.0059407167136669158935546875">
        <ele>720.5999755859375</ele>
        <time>2026-08-21T20:23:57.000Z</time>
        <extensions>
          <ns3:TrackPointExtension>
            <ns3:hr>118</ns3:hr>
            <ns3:cad>0</ns3:cad>
          </ns3:TrackPointExtension>
        </extensions>
      </trkpt>
      <trkpt lat="45.33151005394756793975830078125" lon="-71.00595018826425075531005859375">
        <ele>720.4000244140625</ele>
        <time>2026-08-21T20:23:58.000Z</time>
        <extensions>
          <ns3:TrackPointExtension>
            <ns3:hr>118</ns3:hr>
            <ns3:cad>0</ns3:cad>
          </ns3:TrackPointExtension>
        </extensions>
      </trkpt>
      <trkpt lat="45.33150292932987213134765625" lon="-71.0059554688632488250732421875">
        <ele>720.20001220703125</ele>
        <time>2026-08-21T20:23:59.000Z</time>
        <extensions>
          <ns3:TrackPointExtension>
            <ns3:hr>118</ns3:hr>
            <ns3:cad>70</ns3:cad>
          </ns3:TrackPointExtension>
        </extensions>
      </trkpt>
      <trkpt lat="45.33150234259665012359619140625" lon="-71.00595094263553619384765625">
        <ele>719.79998779296875</ele>
        <time>2026-08-21T20:24:00.000Z</time>
        <extensions>
          <ns3:TrackPointExtension>
            <ns3:hr>117</ns3:hr>
            <ns3:cad>70</ns3:cad>
          </ns3:TrackPointExtension>
        </extensions>
      </trkpt>
      <trkpt lat="45.33149127848446369171142578125" lon="-71.00595236755907535552978515625">
        <ele>719.4000244140625</ele>
        <time>2026-08-21T20:24:01.000Z</time>
        <extensions>
          <ns3:TrackPointExtension>
            <ns3:hr>118</ns3:hr>
            <ns3:cad>70</ns3:cad>
          </ns3:TrackPointExtension>
        </extensions>
      </trkpt>
      <trkpt lat="45.33147987909615039825439453125" lon="-71.0059516131877899169921875">
        <ele>718.79998779296875</ele>
        <time>2026-08-21T20:24:02.000Z</time>
        <extensions>
          <ns3:TrackPointExtension>
            <ns3:hr>119</ns3:hr>
            <ns3:cad>0</ns3:cad>
          </ns3:TrackPointExtension>
        </extensions>
      </trkpt>
      <trkpt lat="45.33147417940199375152587890625" lon="-71.0059537924826145172119140625">
        <ele>718.4000244140625</ele>
        <time>2026-08-21T20:24:03.000Z</time>
        <extensions>
          <ns3:TrackPointExtension>
            <ns3:hr>120</ns3:hr>
            <ns3:cad>0</ns3:cad>
          </ns3:TrackPointExtension>
        </extensions>
      </trkpt>
      <trkpt lat="45.33146646805107593536376953125" lon="-71.00595437921583652496337890625">
        <ele>718</ele>
        <time>2026-08-21T20:24:04.000Z</time>
        <extensions>
          <ns3:TrackPointExtension>
            <ns3:hr>120</ns3:hr>
            <ns3:cad>0</ns3:cad>
          </ns3:TrackPointExtension>
        </extensions>
      </trkpt>
      <trkpt lat="45.331455655395984649658203125" lon="-71.0059628449380397796630859375">
        <ele>717.5999755859375</ele>
        <time>2026-08-21T20:24:05.000Z</time>
        <extensions>
          <ns3:TrackPointExtension>
            <ns3:hr>121</ns3:hr>
            <ns3:cad>0</ns3:cad>
          </ns3:TrackPointExtension>
        </extensions>
      </trkpt>
      <trkpt lat="45.33145339228212833404541015625" lon="-71.0059749148786067962646484375">
        <ele>717.4000244140625</ele>
        <time>2026-08-21T20:24:06.000Z</time>
        <extensions>
          <ns3:TrackPointExtension>
            <ns3:hr>121</ns3:hr>
            <ns3:cad>55</ns3:cad>
          </ns3:TrackPointExtension>
        </extensions>
      </trkpt>
      <trkpt lat="45.33145339228212833404541015625" lon="-71.00599142722785472869873046875">
        <ele>717</ele>
        <time>2026-08-21T20:24:07.000Z</time>
        <extensions>
          <ns3:TrackPointExtension>
            <ns3:hr>121</ns3:hr>
            <ns3:cad>55</ns3:cad>
          </ns3:TrackPointExtension>
        </extensions>
      </trkpt>
      <trkpt lat="45.3314524702727794647216796875" lon="-71.00599628873169422149658203125">
        <ele>716.5999755859375</ele>
        <time>2026-08-21T20:24:08.000Z</time>
        <extensions>
          <ns3:TrackPointExtension>
            <ns3:hr>121</ns3:hr>
            <ns3:cad>55</ns3:cad>
          </ns3:TrackPointExtension>
        </extensions>
      </trkpt>
      <trkpt lat="45.331449620425701141357421875" lon="-71.00599561817944049835205078125">
        <ele>716.4000244140625</ele>
        <time>2026-08-21T20:24:09.000Z</time>
        <extensions>
          <ns3:TrackPointExtension>
            <ns3:hr>122</ns3:hr>
            <ns3:cad>55</ns3:cad>
          </ns3:TrackPointExtension>
        </extensions>
      </trkpt>
      <trkpt lat="45.33144383691251277923583984375" lon="-71.00599243305623531341552734375">
        <ele>716</ele>
        <time>2026-08-21T20:24:10.000Z</time>
        <extensions>
          <ns3:TrackPointExtension>
            <ns3:hr>122</ns3:hr>
            <ns3:cad>55</ns3:cad>
          </ns3:TrackPointExtension>
        </extensions>
      </trkpt>
      <trkpt lat="45.33143696375191211700439453125" lon="-71.0059879906475543975830078125">
        <ele>715.79998779296875</ele>
        <time>2026-08-21T20:24:11.000Z</time>
        <extensions>
          <ns3:TrackPointExtension>
            <ns3:hr>122</ns3:hr>
            <ns3:cad>55</ns3:cad>
          </ns3:TrackPointExtension>
        </extensions>
      </trkpt>
      <trkpt lat="45.3314340300858020782470703125" lon="-71.00598044693470001220703125">
        <ele>715.4000244140625</ele>
        <time>2026-08-21T20:24:12.000Z</time>
        <extensions>
          <ns3:TrackPointExtension>
            <ns3:hr>122</ns3:hr>
            <ns3:cad>55</ns3:cad>
          </ns3:TrackPointExtension>
        </extensions>
      </trkpt>
      <trkpt lat="45.33143721520900726318359375" lon="-71.0059792734682559967041015625">
        <ele>715</ele>
        <time>2026-08-21T20:24:13.000Z</time>
        <extensions>
          <ns3:TrackPointExtension>
            <ns3:hr>122</ns3:hr>
            <ns3:cad>55</ns3:cad>
          </ns3:TrackPointExtension>
        </extensions>
      </trkpt>
      <trkpt lat="45.33143855631351470947265625" lon="-71.005977094173431396484375">
        <ele>714.79998779296875</ele>
        <time>2026-08-21T20:24:14.000Z</time>
        <extensions>
          <ns3:TrackPointExtension>
            <ns3:hr>122</ns3:hr>
            <ns3:cad>0</ns3:cad>
          </ns3:TrackPointExtension>
        </extensions>
      </trkpt>
      <trkpt lat="45.3314407356083393096923828125" lon="-71.0059739090502262115478515625">
        <ele>714.79998779296875</ele>
        <time>2026-08-21T20:24:15.000Z</time>
        <extensions>
          <ns3:TrackPointExtension>
            <ns3:hr>122</ns3:hr>
            <ns3:cad>0</ns3:cad>
          </ns3:TrackPointExtension>
        </extensions>
      </trkpt>
      <trkpt lat="45.33144526183605194091796875" lon="-71.00597315467894077301025390625">
        <ele>714.79998779296875</ele>
        <time>2026-08-21T20:24:16.000Z</time>
        <extensions>
          <ns3:TrackPointExtension>
            <ns3:hr>122</ns3:hr>
            <ns3:cad>0</ns3:cad>
          </ns3:TrackPointExtension>
        </extensions>
      </trkpt>
      <trkpt lat="45.331444926559925079345703125" lon="-71.00596837699413299560546875">
        <ele>714.79998779296875</ele>
        <time>2026-08-21T20:24:17.000Z</time>
        <extensions>
          <ns3:TrackPointExtension>
            <ns3:hr>121</ns3:hr>
            <ns3:cad>0</ns3:cad>
          </ns3:TrackPointExtension>
        </extensions>
      </trkpt>
      <trkpt lat="45.33144635148346424102783203125" lon="-71.00596058182418346405029296875">
        <ele>714.79998779296875</ele>
        <time>2026-08-21T20:24:18.000Z</time>
        <extensions>
          <ns3:TrackPointExtension>
            <ns3:hr>122</ns3:hr>
            <ns3:cad>0</ns3:cad>
          </ns3:TrackPointExtension>
        </extensions>
      </trkpt>
      <trkpt lat="45.33144601620733737945556640625" lon="-71.00595655851066112518310546875">
        <ele>714.5999755859375</ele>
        <time>2026-08-21T20:24:19.000Z</time>
        <extensions>
          <ns3:TrackPointExtension>
            <ns3:hr>122</ns3:hr>
            <ns3:cad>0</ns3:cad>
          </ns3:TrackPointExtension>
        </extensions>
      </trkpt>
      <trkpt lat="45.33144400455057621002197265625" lon="-71.005950272083282470703125">
        <ele>714.4000244140625</ele>
        <time>2026-08-21T20:24:20.000Z</time>
        <extensions>
          <ns3:TrackPointExtension>
            <ns3:hr>122</ns3:hr>
            <ns3:cad>0</ns3:cad>
          </ns3:TrackPointExtension>
        </extensions>
      </trkpt>
      <trkpt lat="45.33144685439765453338623046875" lon="-71.00594029761850833892822265625">
        <ele>714.20001220703125</ele>
        <time>2026-08-21T20:24:21.000Z</time>
        <extensions>
          <ns3:TrackPointExtension>
            <ns3:hr>122</ns3:hr>
            <ns3:cad>0</ns3:cad>
          </ns3:TrackPointExtension>
        </extensions>
      </trkpt>
      <trkpt lat="45.33144400455057621002197265625" lon="-71.00593660958111286163330078125">
        <ele>713.79998779296875</ele>
        <time>2026-08-21T20:24:22.000Z</time>
        <extensions>
          <ns3:TrackPointExtension>
            <ns3:hr>121</ns3:hr>
            <ns3:cad>0</ns3:cad>
          </ns3:TrackPointExtension>
        </extensions>
      </trkpt>
      <trkpt lat="45.3314445912837982177734375" lon="-71.0059249587357044219970703125">
        <ele>713.4000244140625</ele>
        <time>2026-08-21T20:24:23.000Z</time>
        <extensions>
          <ns3:TrackPointExtension>
            <ns3:hr>122</ns3:hr>
            <ns3:cad>0</ns3:cad>
          </ns3:TrackPointExtension>
        </extensions>
      </trkpt>
      <trkpt lat="45.33144366927444934844970703125" lon="-71.0059122182428836822509765625">
        <ele>713.20001220703125</ele>
        <time>2026-08-21T20:24:24.000Z</time>
        <extensions>
          <ns3:TrackPointExtension>
            <ns3:hr>122</ns3:hr>
            <ns3:cad>0</ns3:cad>
          </ns3:TrackPointExtension>
        </extensions>
      </trkpt>
      <trkpt lat="45.3314419090747833251953125" lon="-71.005909703671932220458984375">
        <ele>713</ele>
        <time>2026-08-21T20:24:25.000Z</time>
        <extensions>
          <ns3:TrackPointExtension>
            <ns3:hr>123</ns3:hr>
            <ns3:cad>0</ns3:cad>
          </ns3:TrackPointExtension>
        </extensions>
      </trkpt>
      <trkpt lat="45.3314353711903095245361328125" lon="-71.00590291433036327362060546875">
        <ele>712.5999755859375</ele>
        <time>2026-08-21T20:24:26.000Z</time>
        <extensions>
          <ns3:TrackPointExtension>
            <ns3:hr>122</ns3:hr>
            <ns3:cad>0</ns3:cad>
          </ns3:TrackPointExtension>
        </extensions>
      </trkpt>
      <trkpt lat="45.33142740838229656219482421875" lon="-71.00590425543487071990966796875">
        <ele>712.4000244140625</ele>
        <time>2026-08-21T20:24:27.000Z</time>
        <extensions>
          <ns3:TrackPointExtension>
            <ns3:hr>121</ns3:hr>
            <ns3:cad>0</ns3:cad>
          </ns3:TrackPointExtension>
        </extensions>
      </trkpt>
      <trkpt lat="45.33141936175525188446044921875" lon="-71.00590157322585582733154296875">
        <ele>712</ele>
        <time>2026-08-21T20:24:28.000Z</time>
        <extensions>
          <ns3:TrackPointExtension>
            <ns3:hr>121</ns3:hr>
            <ns3:cad>0</ns3:cad>
          </ns3:TrackPointExtension>
        </extensions>
      </trkpt>
      <trkpt lat="45.3314149193465709686279296875" lon="-71.005904674530029296875">
        <ele>711.79998779296875</ele>
        <time>2026-08-21T20:24:29.000Z</time>
        <extensions>
          <ns3:TrackPointExtension>
            <ns3:hr>120</ns3:hr>
            <ns3:cad>0</ns3:cad>
          </ns3:TrackPointExtension>
        </extensions>
      </trkpt>
      <trkpt lat="45.3314092196524143218994140625" lon="-71.0059045068919658660888671875">
        <ele>711.20001220703125</ele>
        <time>2026-08-21T20:24:30.000Z</time>
        <extensions>
          <ns3:TrackPointExtension>
            <ns3:hr>120</ns3:hr>
            <ns3:cad>0</ns3:cad>
          </ns3:TrackPointExtension>
        </extensions>
      </trkpt>
      <trkpt lat="45.33140092156827449798583984375" lon="-71.00589788518846035003662109375">
        <ele>710.79998779296875</ele>
        <time>2026-08-21T20:24:31.000Z</time>
        <extensions>
          <ns3:TrackPointExtension>
            <ns3:hr>120</ns3:hr>
            <ns3:cad>0</ns3:cad>
          </ns3:TrackPointExtension>
        </extensions>
      </trkpt>
      <trkpt lat="45.33139555715024471282958984375" lon="-71.0058853961527347564697265625">
        <ele>710.20001220703125</ele>
        <time>2026-08-21T20:24:32.000Z</time>
        <extensions>
          <ns3:TrackPointExtension>
            <ns3:hr>119</ns3:hr>
            <ns3:cad>0</ns3:cad>
          </ns3:TrackPointExtension>
        </extensions>
      </trkpt>
      <trkpt lat="45.33139371313154697418212890625" lon="-71.0058738291263580322265625">
        <ele>709.79998779296875</ele>
        <time>2026-08-21T20:24:33.000Z</time>
        <extensions>
          <ns3:TrackPointExtension>
            <ns3:hr>120</ns3:hr>
            <ns3:cad>0</ns3:cad>
          </ns3:TrackPointExtension>
        </extensions>
      </trkpt>
      <trkpt lat="45.33139337785542011260986328125" lon="-71.00586519576609134674072265625">
        <ele>709.4000244140625</ele>
        <time>2026-08-21T20:24:34.000Z</time>
        <extensions>
          <ns3:TrackPointExtension>
            <ns3:hr>121</ns3:hr>
            <ns3:cad>0</ns3:cad>
          </ns3:TrackPointExtension>
        </extensions>
      </trkpt>
      <trkpt lat="45.33139723353087902069091796875" lon="-71.005850695073604583740234375">
        <ele>709</ele>
        <time>2026-08-21T20:24:35.000Z</time>
        <extensions>
          <ns3:TrackPointExtension>
            <ns3:hr>121</ns3:hr>
            <ns3:cad>0</ns3:cad>
          </ns3:TrackPointExtension>
        </extensions>
      </trkpt>
      <trkpt lat="45.33139832317829132080078125" lon="-71.005836613476276397705078125">
        <ele>708.5999755859375</ele>
        <time>2026-08-21T20:24:36.000Z</time>
        <extensions>
          <ns3:TrackPointExtension>
            <ns3:hr>122</ns3:hr>
            <ns3:cad>0</ns3:cad>
          </ns3:TrackPointExtension>
        </extensions>
      </trkpt>
      <trkpt lat="45.33139890991151332855224609375" lon="-71.00583292543888092041015625">
        <ele>708.4000244140625</ele>
        <time>2026-08-21T20:24:37.000Z</time>
        <extensions>
          <ns3:TrackPointExtension>
            <ns3:hr>123</ns3:hr>
            <ns3:cad>0</ns3:cad>
          </ns3:TrackPointExtension>
        </extensions>
      </trkpt>
      <trkpt lat="45.33140175975859165191650390625" lon="-71.00582445971667766571044921875">
        <ele>708.20001220703125</ele>
        <time>2026-08-21T20:24:38.000Z</time>
        <extensions>
          <ns3:TrackPointExtension>
            <ns3:hr>123</ns3:hr>
            <ns3:cad>0</ns3:cad>
          </ns3:TrackPointExtension>
        </extensions>
      </trkpt>
      <trkpt lat="45.3314051963388919830322265625" lon="-71.00581490434706211090087890625">
        <ele>708.20001220703125</ele>
        <time>2026-08-21T20:24:39.000Z</time>
        <extensions>
          <ns3:TrackPointExtension>
            <ns3:hr>123</ns3:hr>
            <ns3:cad>0</ns3:cad>
          </ns3:TrackPointExtension>
        </extensions>
      </trkpt>
      <trkpt lat="45.331405699253082275390625" lon="-71.005808450281620025634765625">
        <ele>708.20001220703125</ele>
        <time>2026-08-21T20:24:40.000Z</time>
        <extensions>
          <ns3:TrackPointExtension>
            <ns3:hr>123</ns3:hr>
            <ns3:cad>0</ns3:cad>
          </ns3:TrackPointExtension>
        </extensions>
      </trkpt>
      <trkpt lat="45.3314098902046680450439453125" lon="-71.005794368684291839599609375">
        <ele>708.20001220703125</ele>
        <time>2026-08-21T20:24:41.000Z</time>
        <extensions>
          <ns3:TrackPointExtension>
            <ns3:hr>124</ns3:hr>
            <ns3:cad>0</ns3:cad>
          </ns3:TrackPointExtension>
        </extensions>
      </trkpt>
      <trkpt lat="45.33140813000500202178955078125" lon="-71.005785651504993438720703125">
        <ele>708.20001220703125</ele>
        <time>2026-08-21T20:24:42.000Z</time>
        <extensions>
          <ns3:TrackPointExtension>
            <ns3:hr>124</ns3:hr>
            <ns3:cad>0</ns3:cad>
          </ns3:TrackPointExtension>
        </extensions>
      </trkpt>
      <trkpt lat="45.331407375633716583251953125" lon="-71.00577064789831638336181640625">
        <ele>708.20001220703125</ele>
        <time>2026-08-21T20:24:43.000Z</time>
        <extensions>
          <ns3:TrackPointExtension>
            <ns3:hr>124</ns3:hr>
            <ns3:cad>0</ns3:cad>
          </ns3:TrackPointExtension>
        </extensions>
      </trkpt>
      <trkpt lat="45.33140092156827449798583984375" lon="-71.00575388409197330474853515625">
        <ele>708</ele>
        <time>2026-08-21T20:24:44.000Z</time>
        <extensions>
          <ns3:TrackPointExtension>
            <ns3:hr>124</ns3:hr>
            <ns3:cad>0</ns3:cad>
          </ns3:TrackPointExtension>
        </extensions>
      </trkpt>
      <trkpt lat="45.3313981555402278900146484375" lon="-71.0057408921420574188232421875">
        <ele>707.79998779296875</ele>
        <time>2026-08-21T20:24:45.000Z</time>
        <extensions>
          <ns3:TrackPointExtension>
            <ns3:hr>124</ns3:hr>
            <ns3:cad>0</ns3:cad>
          </ns3:TrackPointExtension>
        </extensions>
      </trkpt>
      <trkpt lat="45.3313984908163547515869140625" lon="-71.005713902413845062255859375">
        <ele>707.4000244140625</ele>
        <time>2026-08-21T20:24:46.000Z</time>
        <extensions>
          <ns3:TrackPointExtension>
            <ns3:hr>123</ns3:hr>
            <ns3:cad>0</ns3:cad>
          </ns3:TrackPointExtension>
        </extensions>
      </trkpt>
      <trkpt lat="45.33139723353087902069091796875" lon="-71.00570074282586574554443359375">
        <ele>707.4000244140625</ele>
        <time>2026-08-21T20:24:47.000Z</time>
        <extensions>
          <ns3:TrackPointExtension>
            <ns3:hr>122</ns3:hr>
            <ns3:cad>0</ns3:cad>
          </ns3:TrackPointExtension>
        </extensions>
      </trkpt>
      <trkpt lat="45.3314005024731159210205078125" lon="-71.00568649359047412872314453125">
        <ele>707.20001220703125</ele>
        <time>2026-08-21T20:24:48.000Z</time>
        <extensions>
          <ns3:TrackPointExtension>
            <ns3:hr>122</ns3:hr>
            <ns3:cad>0</ns3:cad>
          </ns3:TrackPointExtension>
        </extensions>
      </trkpt>
      <trkpt lat="45.331397987902164459228515625" lon="-71.0056647844612598419189453125">
        <ele>707</ele>
        <time>2026-08-21T20:24:49.000Z</time>
        <extensions>
          <ns3:TrackPointExtension>
            <ns3:hr>122</ns3:hr>
            <ns3:cad>0</ns3:cad>
          </ns3:TrackPointExtension>
        </extensions>
      </trkpt>
      <trkpt lat="45.33139304257929325103759765625" lon="-71.0056624375283718109130859375">
        <ele>707</ele>
        <time>2026-08-21T20:24:50.000Z</time>
        <extensions>
          <ns3:TrackPointExtension>
            <ns3:hr>121</ns3:hr>
            <ns3:cad>0</ns3:cad>
          </ns3:TrackPointExtension>
        </extensions>
      </trkpt>
      <trkpt lat="45.33139019273221492767333984375" lon="-71.0056507028639316558837890625">
        <ele>706.79998779296875</ele>
        <time>2026-08-21T20:24:51.000Z</time>
        <extensions>
          <ns3:TrackPointExtension>
            <ns3:hr>122</ns3:hr>
            <ns3:cad>0</ns3:cad>
          </ns3:TrackPointExtension>
        </extensions>
      </trkpt>
      <trkpt lat="45.3313887678086757659912109375" lon="-71.005637459456920623779296875">
        <ele>706.79998779296875</ele>
        <time>2026-08-21T20:24:52.000Z</time>
        <extensions>
          <ns3:TrackPointExtension>
            <ns3:hr>122</ns3:hr>
            <ns3:cad>0</ns3:cad>
          </ns3:TrackPointExtension>
        </extensions>
      </trkpt>
      <trkpt lat="45.3313855826854705810546875" lon="-71.005619354546070098876953125">
        <ele>706.5999755859375</ele>
        <time>2026-08-21T20:24:53.000Z</time>
        <extensions>
          <ns3:TrackPointExtension>
            <ns3:hr>122</ns3:hr>
            <ns3:cad>0</ns3:cad>
          </ns3:TrackPointExtension>
        </extensions>
      </trkpt>
      <trkpt lat="45.33138482831418514251708984375" lon="-71.00560761988162994384765625">
        <ele>706.5999755859375</ele>
        <time>2026-08-21T20:24:54.000Z</time>
        <extensions>
          <ns3:TrackPointExtension>
            <ns3:hr>123</ns3:hr>
            <ns3:cad>0</ns3:cad>
          </ns3:TrackPointExtension>
        </extensions>
      </trkpt>
      <trkpt lat="45.33138566650450229644775390625" lon="-71.00558825768530368804931640625">
        <ele>706.5999755859375</ele>
        <time>2026-08-21T20:24:55.000Z</time>
        <extensions>
          <ns3:TrackPointExtension>
            <ns3:hr>124</ns3:hr>
            <ns3:cad>0</ns3:cad>
          </ns3:TrackPointExtension>
        </extensions>
      </trkpt>
      <trkpt lat="45.33137946389615535736083984375" lon="-71.0055762715637683868408203125">
        <ele>706.4000244140625</ele>
        <time>2026-08-21T20:24:56.000Z</time>
        <extensions>
          <ns3:TrackPointExtension>
            <ns3:hr>124</ns3:hr>
            <ns3:cad>0</ns3:cad>
          </ns3:TrackPointExtension>
        </extensions>
      </trkpt>
      <trkpt lat="45.33137124963104724884033203125" lon="-71.00555422715842723846435546875">
        <ele>706.20001220703125</ele>
        <time>2026-08-21T20:24:57.000Z</time>
        <extensions>
          <ns3:TrackPointExtension>
            <ns3:hr>124</ns3:hr>
            <ns3:cad>0</ns3:cad>
          </ns3:TrackPointExtension>
        </extensions>
      </trkpt>
      <trkpt lat="45.33136705867946147918701171875" lon="-71.00553612224757671356201171875">
        <ele>706</ele>
        <time>2026-08-21T20:24:58.000Z</time>
        <extensions>
          <ns3:TrackPointExtension>
            <ns3:hr>124</ns3:hr>
            <ns3:cad>0</ns3:cad>
          </ns3:TrackPointExtension>
        </extensions>
      </trkpt>
      <trkpt lat="45.3313673101365566253662109375" lon="-71.00550795905292034149169921875">
        <ele>705.5999755859375</ele>
        <time>2026-08-21T20:24:59.000Z</time>
        <extensions>
          <ns3:TrackPointExtension>
            <ns3:hr>124</ns3:hr>
            <ns3:cad>0</ns3:cad>
          </ns3:TrackPointExtension>
        </extensions>
      </trkpt>
      <trkpt lat="45.33137292601168155670166015625" lon="-71.00549957714974880218505859375">
        <ele>705.4000244140625</ele>
        <time>2026-08-21T20:25:00.000Z</time>
        <extensions>
          <ns3:TrackPointExtension>
            <ns3:hr>124</ns3:hr>
            <ns3:cad>0</ns3:cad>
          </ns3:TrackPointExtension>
        </extensions>
      </trkpt>
      <trkpt lat="45.331375189125537872314453125" lon="-71.005483902990818023681640625">
        <ele>705.20001220703125</ele>
        <time>2026-08-21T20:25:01.000Z</time>
        <extensions>
          <ns3:TrackPointExtension>
            <ns3:hr>124</ns3:hr>
            <ns3:cad>0</ns3:cad>
          </ns3:TrackPointExtension>
        </extensions>
      </trkpt>
      <trkpt lat="45.33137577585875988006591796875" lon="-71.00546856410801410675048828125">
        <ele>705.20001220703125</ele>
        <time>2026-08-21T20:25:02.000Z</time>
        <extensions>
          <ns3:TrackPointExtension>
            <ns3:hr>124</ns3:hr>
            <ns3:cad>0</ns3:cad>
          </ns3:TrackPointExtension>
        </extensions>
      </trkpt>
      <trkpt lat="45.33137409947812557220458984375" lon="-71.00545749999582767486572265625">
        <ele>705.20001220703125</ele>
        <time>2026-08-21T20:25:03.000Z</time>
        <extensions>
          <ns3:TrackPointExtension>
            <ns3:hr>124</ns3:hr>
            <ns3:cad>0</ns3:cad>
          </ns3:TrackPointExtension>
        </extensions>
      </trkpt>
      <trkpt lat="45.33137150108814239501953125" lon="-71.005444340407848358154296875">
        <ele>705</ele>
        <time>2026-08-21T20:25:04.000Z</time>
        <extensions>
          <ns3:TrackPointExtension>
            <ns3:hr>124</ns3:hr>
            <ns3:cad>0</ns3:cad>
          </ns3:TrackPointExtension>
        </extensions>
      </trkpt>
      <trkpt lat="45.331369154155254364013671875" lon="-71.005439646542072296142578125">
        <ele>704.79998779296875</ele>
        <time>2026-08-21T20:25:05.000Z</time>
        <extensions>
          <ns3:TrackPointExtension>
            <ns3:hr>125</ns3:hr>
            <ns3:cad>0</ns3:cad>
          </ns3:TrackPointExtension>
        </extensions>
      </trkpt>
      <trkpt lat="45.33136772923171520233154296875" lon="-71.00542833097279071807861328125">
        <ele>704.5999755859375</ele>
        <time>2026-08-21T20:25:06.000Z</time>
        <extensions>
          <ns3:TrackPointExtension>
            <ns3:hr>126</ns3:hr>
            <ns3:cad>0</ns3:cad>
          </ns3:TrackPointExtension>
        </extensions>
      </trkpt>
      <trkpt lat="45.33136957325041294097900390625" lon="-71.00540905259549617767333984375">
        <ele>704.20001220703125</ele>
        <time>2026-08-21T20:25:07.000Z</time>
        <extensions>
          <ns3:TrackPointExtension>
            <ns3:hr>126</ns3:hr>
            <ns3:cad>0</ns3:cad>
          </ns3:TrackPointExtension>
        </extensions>
      </trkpt>
      <trkpt lat="45.33136689104139804840087890625" lon="-71.00539061240851879119873046875">
        <ele>703.79998779296875</ele>
        <time>2026-08-21T20:25:08.000Z</time>
        <extensions>
          <ns3:TrackPointExtension>
            <ns3:hr>126</ns3:hr>
            <ns3:cad>0</ns3:cad>
          </ns3:TrackPointExtension>
        </extensions>
      </trkpt>
      <trkpt lat="45.3313582576811313629150390625" lon="-71.0053684003651142120361328125">
        <ele>703.4000244140625</ele>
        <time>2026-08-21T20:25:09.000Z</time>
        <extensions>
          <ns3:TrackPointExtension>
            <ns3:hr>126</ns3:hr>
            <ns3:cad>0</ns3:cad>
          </ns3:TrackPointExtension>
        </extensions>
      </trkpt>
      <trkpt lat="45.33135331235826015472412109375" lon="-71.0053439252078533172607421875">
        <ele>703</ele>
        <time>2026-08-21T20:25:10.000Z</time>
        <extensions>
          <ns3:TrackPointExtension>
            <ns3:hr>125</ns3:hr>
            <ns3:cad>0</ns3:cad>
          </ns3:TrackPointExtension>
        </extensions>
      </trkpt>
      <trkpt lat="45.331350378692150115966796875" lon="-71.0053261555731296539306640625">
        <ele>702.79998779296875</ele>
        <time>2026-08-21T20:25:11.000Z</time>
        <extensions>
          <ns3:TrackPointExtension>
            <ns3:hr>125</ns3:hr>
            <ns3:cad>0</ns3:cad>
          </ns3:TrackPointExtension>
        </extensions>
      </trkpt>
      <trkpt lat="45.331349708139896392822265625" lon="-71.00530494935810565948486328125">
        <ele>702.4000244140625</ele>
        <time>2026-08-21T20:25:12.000Z</time>
        <extensions>
          <ns3:TrackPointExtension>
            <ns3:hr>125</ns3:hr>
            <ns3:cad>0</ns3:cad>
          </ns3:TrackPointExtension>
        </extensions>
      </trkpt>
      <trkpt lat="45.3313508816063404083251953125" lon="-71.00529153831303119659423828125">
        <ele>702.4000244140625</ele>
        <time>2026-08-21T20:25:13.000Z</time>
        <extensions>
          <ns3:TrackPointExtension>
            <ns3:hr>124</ns3:hr>
            <ns3:cad>0</ns3:cad>
          </ns3:TrackPointExtension>
        </extensions>
      </trkpt>
      <trkpt lat="45.33134811557829380035400390625" lon="-71.0052812285721302032470703125">
        <ele>702.4000244140625</ele>
        <time>2026-08-21T20:25:14.000Z</time>
        <extensions>
          <ns3:TrackPointExtension>
            <ns3:hr>124</ns3:hr>
            <ns3:cad>0</ns3:cad>
          </ns3:TrackPointExtension>
        </extensions>
      </trkpt>
      <trkpt lat="45.3313485346734523773193359375" lon="-71.00526320748031139373779296875">
        <ele>702.20001220703125</ele>
        <time>2026-08-21T20:25:15.000Z</time>
        <extensions>
          <ns3:TrackPointExtension>
            <ns3:hr>124</ns3:hr>
            <ns3:cad>0</ns3:cad>
          </ns3:TrackPointExtension>
        </extensions>
      </trkpt>
      <trkpt lat="45.3313453495502471923828125" lon="-71.005247533321380615234375">
        <ele>702.20001220703125</ele>
        <time>2026-08-21T20:25:16.000Z</time>
        <extensions>
          <ns3:TrackPointExtension>
            <ns3:hr>124</ns3:hr>
            <ns3:cad>0</ns3:cad>
          </ns3:TrackPointExtension>
        </extensions>
      </trkpt>
      <trkpt lat="45.3313458524644374847412109375" lon="-71.0052322782576084136962890625">
        <ele>701.79998779296875</ele>
        <time>2026-08-21T20:25:17.000Z</time>
        <extensions>
          <ns3:TrackPointExtension>
            <ns3:hr>124</ns3:hr>
            <ns3:cad>0</ns3:cad>
          </ns3:TrackPointExtension>
        </extensions>
      </trkpt>
      <trkpt lat="45.331346690654754638671875" lon="-71.0052185319364070892333984375">
        <ele>701.4000244140625</ele>
        <time>2026-08-21T20:25:18.000Z</time>
        <extensions>
          <ns3:TrackPointExtension>
            <ns3:hr>123</ns3:hr>
            <ns3:cad>0</ns3:cad>
          </ns3:TrackPointExtension>
        </extensions>
      </trkpt>
      <trkpt lat="45.331349037587642669677734375" lon="-71.00519179366528987884521484375">
        <ele>701</ele>
        <time>2026-08-21T20:25:19.000Z</time>
        <extensions>
          <ns3:TrackPointExtension>
            <ns3:hr>124</ns3:hr>
            <ns3:cad>0</ns3:cad>
          </ns3:TrackPointExtension>
        </extensions>
      </trkpt>
      <trkpt lat="45.33135482110083103179931640625" lon="-71.0051813162863254547119140625">
        <ele>700.79998779296875</ele>
        <time>2026-08-21T20:25:20.000Z</time>
        <extensions>
          <ns3:TrackPointExtension>
            <ns3:hr>124</ns3:hr>
            <ns3:cad>0</ns3:cad>
          </ns3:TrackPointExtension>
        </extensions>
      </trkpt>
      <trkpt lat="45.33135783858597278594970703125" lon="-71.00516195408999919891357421875">
        <ele>700.79998779296875</ele>
        <time>2026-08-21T20:25:21.000Z</time>
        <extensions>
          <ns3:TrackPointExtension>
            <ns3:hr>124</ns3:hr>
            <ns3:cad>0</ns3:cad>
          </ns3:TrackPointExtension>
        </extensions>
      </trkpt>
      <trkpt lat="45.33135264180600643157958984375" lon="-71.00514954887330532073974609375">
        <ele>700.5999755859375</ele>
        <time>2026-08-21T20:25:22.000Z</time>
        <extensions>
          <ns3:TrackPointExtension>
            <ns3:hr>123</ns3:hr>
            <ns3:cad>0</ns3:cad>
          </ns3:TrackPointExtension>
        </extensions>
      </trkpt>
      <trkpt lat="45.33133839257061481475830078125" lon="-71.0051353834569454193115234375">
        <ele>700.5999755859375</ele>
        <time>2026-08-21T20:25:23.000Z</time>
        <extensions>
          <ns3:TrackPointExtension>
            <ns3:hr>124</ns3:hr>
            <ns3:cad>0</ns3:cad>
          </ns3:TrackPointExtension>
        </extensions>
      </trkpt>
      <trkpt lat="45.33132498152554035186767578125" lon="-71.0051189549267292022705078125">
        <ele>700.4000244140625</ele>
        <time>2026-08-21T20:25:24.000Z</time>
        <extensions>
          <ns3:TrackPointExtension>
            <ns3:hr>124</ns3:hr>
            <ns3:cad>0</ns3:cad>
          </ns3:TrackPointExtension>
        </extensions>
      </trkpt>
      <trkpt lat="45.331311486661434173583984375" lon="-71.0051109082996845245361328125">
        <ele>700.20001220703125</ele>
        <time>2026-08-21T20:25:25.000Z</time>
        <extensions>
          <ns3:TrackPointExtension>
            <ns3:hr>124</ns3:hr>
            <ns3:cad>0</ns3:cad>
          </ns3:TrackPointExtension>
        </extensions>
      </trkpt>
      <trkpt lat="45.33129229210317134857177734375" lon="-71.00509406067430973052978515625">
        <ele>699.5999755859375</ele>
        <time>2026-08-21T20:25:26.000Z</time>
        <extensions>
          <ns3:TrackPointExtension>
            <ns3:hr>124</ns3:hr>
            <ns3:cad>0</ns3:cad>
          </ns3:TrackPointExtension>
        </extensions>
      </trkpt>
      <trkpt lat="45.33127184025943279266357421875" lon="-71.005091965198516845703125">
        <ele>699.20001220703125</ele>
        <time>2026-08-21T20:25:27.000Z</time>
        <extensions>
          <ns3:TrackPointExtension>
            <ns3:hr>124</ns3:hr>
            <ns3:cad>0</ns3:cad>
          </ns3:TrackPointExtension>
        </extensions>
      </trkpt>
      <trkpt lat="45.33125792630016803741455078125" lon="-71.00509137846529483795166015625">
        <ele>698.79998779296875</ele>
        <time>2026-08-21T20:25:28.000Z</time>
        <extensions>
          <ns3:TrackPointExtension>
            <ns3:hr>124</ns3:hr>
            <ns3:cad>0</ns3:cad>
          </ns3:TrackPointExtension>
        </extensions>
      </trkpt>
      <trkpt lat="45.3312432579696178436279296875" lon="-71.00507679395377635955810546875">
        <ele>698.4000244140625</ele>
        <time>2026-08-21T20:25:29.000Z</time>
        <extensions>
          <ns3:TrackPointExtension>
            <ns3:hr>125</ns3:hr>
            <ns3:cad>0</ns3:cad>
          </ns3:TrackPointExtension>
        </extensions>
      </trkpt>
      <trkpt lat="45.33123361878097057342529296875" lon="-71.00505835376679897308349609375">
        <ele>698.20001220703125</ele>
        <time>2026-08-21T20:25:30.000Z</time>
        <extensions>
          <ns3:TrackPointExtension>
            <ns3:hr>126</ns3:hr>
            <ns3:cad>0</ns3:cad>
          </ns3:TrackPointExtension>
        </extensions>
      </trkpt>
      <trkpt lat="45.3312271647155284881591796875" lon="-71.0050518997013568878173828125">
        <ele>698</ele>
        <time>2026-08-21T20:25:31.000Z</time>
        <extensions>
          <ns3:TrackPointExtension>
            <ns3:hr>126</ns3:hr>
            <ns3:cad>0</ns3:cad>
          </ns3:TrackPointExtension>
        </extensions>
      </trkpt>
      <trkpt lat="45.33121668733656406402587890625" lon="-71.00504846312105655670166015625">
        <ele>698</ele>
        <time>2026-08-21T20:25:32.000Z</time>
        <extensions>
          <ns3:TrackPointExtension>
            <ns3:hr>126</ns3:hr>
            <ns3:cad>0</ns3:cad>
          </ns3:TrackPointExtension>
        </extensions>
      </trkpt>
      <trkpt lat="45.33120981417596340179443359375" lon="-71.00504544563591480255126953125">
        <ele>697.79998779296875</ele>
        <time>2026-08-21T20:25:33.000Z</time>
        <extensions>
          <ns3:TrackPointExtension>
            <ns3:hr>126</ns3:hr>
            <ns3:cad>0</ns3:cad>
          </ns3:TrackPointExtension>
        </extensions>
      </trkpt>
      <trkpt lat="45.33119757659733295440673828125" lon="-71.00503706373274326324462890625">
        <ele>697.5999755859375</ele>
        <time>2026-08-21T20:25:34.000Z</time>
        <extensions>
          <ns3:TrackPointExtension>
            <ns3:hr>127</ns3:hr>
            <ns3:cad>0</ns3:cad>
          </ns3:TrackPointExtension>
        </extensions>
      </trkpt>
      <trkpt lat="45.331190787255764007568359375" lon="-71.0050324536859989166259765625">
        <ele>697.4000244140625</ele>
        <time>2026-08-21T20:25:35.000Z</time>
        <extensions>
          <ns3:TrackPointExtension>
            <ns3:hr>126</ns3:hr>
            <ns3:cad>0</ns3:cad>
          </ns3:TrackPointExtension>
        </extensions>
      </trkpt>
      <trkpt lat="45.33118500374257564544677734375" lon="-71.0050208866596221923828125">
        <ele>697.20001220703125</ele>
        <time>2026-08-21T20:25:36.000Z</time>
        <extensions>
          <ns3:TrackPointExtension>
            <ns3:hr>126</ns3:hr>
            <ns3:cad>0</ns3:cad>
          </ns3:TrackPointExtension>
        </extensions>
      </trkpt>
      <trkpt lat="45.33118315972387790679931640625" lon="-71.0050099901854991912841796875">
        <ele>696.79998779296875</ele>
        <time>2026-08-21T20:25:37.000Z</time>
        <extensions>
          <ns3:TrackPointExtension>
            <ns3:hr>126</ns3:hr>
            <ns3:cad>0</ns3:cad>
          </ns3:TrackPointExtension>
        </extensions>
      </trkpt>
      <trkpt lat="45.33117259852588176727294921875" lon="-71.004985012114048004150390625">
        <ele>696.4000244140625</ele>
        <time>2026-08-21T20:25:38.000Z</time>
        <extensions>
          <ns3:TrackPointExtension>
            <ns3:hr>126</ns3:hr>
            <ns3:cad>0</ns3:cad>
          </ns3:TrackPointExtension>
        </extensions>
      </trkpt>
      <trkpt lat="45.3311671502888202667236328125" lon="-71.00497000850737094879150390625">
        <ele>696</ele>
        <time>2026-08-21T20:25:39.000Z</time>
        <extensions>
          <ns3:TrackPointExtension>
            <ns3:hr>127</ns3:hr>
            <ns3:cad>0</ns3:cad>
          </ns3:TrackPointExtension>
        </extensions>
      </trkpt>
      <trkpt lat="45.33116337843239307403564453125" lon="-71.004948131740093231201171875">
        <ele>695.5999755859375</ele>
        <time>2026-08-21T20:25:40.000Z</time>
        <extensions>
          <ns3:TrackPointExtension>
            <ns3:hr>129</ns3:hr>
            <ns3:cad>0</ns3:cad>
          </ns3:TrackPointExtension>
        </extensions>
      </trkpt>
      <trkpt lat="45.331155918538570404052734375" lon="-71.00492508150637149810791015625">
        <ele>695.4000244140625</ele>
        <time>2026-08-21T20:25:41.000Z</time>
        <extensions>
          <ns3:TrackPointExtension>
            <ns3:hr>129</ns3:hr>
            <ns3:cad>61</ns3:cad>
          </ns3:TrackPointExtension>
        </extensions>
      </trkpt>
      <trkpt lat="45.331149213016033172607421875" lon="-71.00490630604326725006103515625">
        <ele>695</ele>
        <time>2026-08-21T20:25:42.000Z</time>
        <extensions>
          <ns3:TrackPointExtension>
            <ns3:hr>129</ns3:hr>
            <ns3:cad>61</ns3:cad>
          </ns3:TrackPointExtension>
        </extensions>
      </trkpt>
      <trkpt lat="45.3311446867883205413818359375" lon="-71.00488719530403614044189453125">
        <ele>694.79998779296875</ele>
        <time>2026-08-21T20:25:43.000Z</time>
        <extensions>
          <ns3:TrackPointExtension>
            <ns3:hr>129</ns3:hr>
            <ns3:cad>61</ns3:cad>
          </ns3:TrackPointExtension>
        </extensions>
      </trkpt>
      <trkpt lat="45.33114091493189334869384765625" lon="-71.00487537682056427001953125">
        <ele>694.5999755859375</ele>
        <time>2026-08-21T20:25:44.000Z</time>
        <extensions>
          <ns3:TrackPointExtension>
            <ns3:hr>128</ns3:hr>
            <ns3:cad>61</ns3:cad>
          </ns3:TrackPointExtension>
        </extensions>
      </trkpt>
      <trkpt lat="45.3311373107135295867919921875" lon="-71.00485668517649173736572265625">
        <ele>694.4000244140625</ele>
        <time>2026-08-21T20:25:45.000Z</time>
        <extensions>
          <ns3:TrackPointExtension>
            <ns3:hr>129</ns3:hr>
            <ns3:cad>61</ns3:cad>
          </ns3:TrackPointExtension>
        </extensions>
      </trkpt>
      <trkpt lat="45.3311383165419101715087890625" lon="-71.0048406757414340972900390625">
        <ele>694.20001220703125</ele>
        <time>2026-08-21T20:25:46.000Z</time>
        <extensions>
          <ns3:TrackPointExtension>
            <ns3:hr>129</ns3:hr>
            <ns3:cad>61</ns3:cad>
          </ns3:TrackPointExtension>
        </extensions>
      </trkpt>
      <trkpt lat="45.33114326186478137969970703125" lon="-71.00481770932674407958984375">
        <ele>694</ele>
        <time>2026-08-21T20:25:47.000Z</time>
        <extensions>
          <ns3:TrackPointExtension>
            <ns3:hr>130</ns3:hr>
            <ns3:cad>61</ns3:cad>
          </ns3:TrackPointExtension>
        </extensions>
      </trkpt>
      <trkpt lat="45.3311507217586040496826171875" lon="-71.00480907596647739410400390625">
        <ele>694</ele>
        <time>2026-08-21T20:25:48.000Z</time>
        <extensions>
          <ns3:TrackPointExtension>
            <ns3:hr>130</ns3:hr>
            <ns3:cad>61</ns3:cad>
          </ns3:TrackPointExtension>
        </extensions>
      </trkpt>
      <trkpt lat="45.3311580978333950042724609375" lon="-71.0047913901507854461669921875">
        <ele>694.20001220703125</ele>
        <time>2026-08-21T20:25:49.000Z</time>
        <extensions>
          <ns3:TrackPointExtension>
            <ns3:hr>130</ns3:hr>
            <ns3:cad>73</ns3:cad>
          </ns3:TrackPointExtension>
        </extensions>
      </trkpt>
      <trkpt lat="45.33116254024207592010498046875" lon="-71.00476766936480998992919921875">
        <ele>694.4000244140625</ele>
        <time>2026-08-21T20:25:50.000Z</time>
        <extensions>
          <ns3:TrackPointExtension>
            <ns3:hr>130</ns3:hr>
            <ns3:cad>73</ns3:cad>
          </ns3:TrackPointExtension>
        </extensions>
      </trkpt>
      <trkpt lat="45.33116539008915424346923828125" lon="-71.00474755279719829559326171875">
        <ele>694.4000244140625</ele>
        <time>2026-08-21T20:25:51.000Z</time>
        <extensions>
          <ns3:TrackPointExtension>
            <ns3:hr>129</ns3:hr>
            <ns3:cad>73</ns3:cad>
          </ns3:TrackPointExtension>
        </extensions>
      </trkpt>
      <trkpt lat="45.331161282956600189208984375" lon="-71.00472894497215747833251953125">
        <ele>694.20001220703125</ele>
        <time>2026-08-21T20:25:52.000Z</time>
        <extensions>
          <ns3:TrackPointExtension>
            <ns3:hr>130</ns3:hr>
            <ns3:cad>73</ns3:cad>
          </ns3:TrackPointExtension>
        </extensions>
      </trkpt>
      <trkpt lat="45.33115784637629985809326171875" lon="-71.0047115944325923919677734375">
        <ele>694</ele>
        <time>2026-08-21T20:25:53.000Z</time>
        <extensions>
          <ns3:TrackPointExtension>
            <ns3:hr>130</ns3:hr>
            <ns3:cad>73</ns3:cad>
          </ns3:TrackPointExtension>
        </extensions>
      </trkpt>
      <trkpt lat="45.3311550803482532501220703125" lon="-71.0046971775591373443603515625">
        <ele>693.79998779296875</ele>
        <time>2026-08-21T20:25:54.000Z</time>
        <extensions>
          <ns3:TrackPointExtension>
            <ns3:hr>130</ns3:hr>
            <ns3:cad>0</ns3:cad>
          </ns3:TrackPointExtension>
        </extensions>
      </trkpt>
      <trkpt lat="45.331153571605682373046875" lon="-71.00467613898217678070068359375">
        <ele>693.4000244140625</ele>
        <time>2026-08-21T20:25:55.000Z</time>
        <extensions>
          <ns3:TrackPointExtension>
            <ns3:hr>130</ns3:hr>
            <ns3:cad>0</ns3:cad>
          </ns3:TrackPointExtension>
        </extensions>
      </trkpt>
      <trkpt lat="45.33115482889115810394287109375" lon="-71.00465945899486541748046875">
        <ele>693.20001220703125</ele>
        <time>2026-08-21T20:25:56.000Z</time>
        <extensions>
          <ns3:TrackPointExtension>
            <ns3:hr>129</ns3:hr>
            <ns3:cad>0</ns3:cad>
          </ns3:TrackPointExtension>
        </extensions>
      </trkpt>
      <trkpt lat="45.3311575949192047119140625" lon="-71.0046452097594738006591796875">
        <ele>693</ele>
        <time>2026-08-21T20:25:57.000Z</time>
        <extensions>
          <ns3:TrackPointExtension>
            <ns3:hr>129</ns3:hr>
            <ns3:cad>0</ns3:cad>
          </ns3:TrackPointExtension>
        </extensions>
      </trkpt>
      <trkpt lat="45.33115851692855358123779296875" lon="-71.00461922585964202880859375">
        <ele>693</ele>
        <time>2026-08-21T20:25:58.000Z</time>
        <extensions>
          <ns3:TrackPointExtension>
            <ns3:hr>129</ns3:hr>
            <ns3:cad>69</ns3:cad>
          </ns3:TrackPointExtension>
        </extensions>
      </trkpt>
      <trkpt lat="45.331152565777301788330078125" lon="-71.00459299050271511077880859375">
        <ele>692.79998779296875</ele>
        <time>2026-08-21T20:25:59.000Z</time>
        <extensions>
          <ns3:TrackPointExtension>
            <ns3:hr>129</ns3:hr>
            <ns3:cad>69</ns3:cad>
          </ns3:TrackPointExtension>
        </extensions>
      </trkpt>
      <trkpt lat="45.3311393223702907562255859375" lon="-71.004578657448291778564453125">
        <ele>692.79998779296875</ele>
        <time>2026-08-21T20:26:00.000Z</time>
        <extensions>
          <ns3:TrackPointExtension>
            <ns3:hr>128</ns3:hr>
            <ns3:cad>69</ns3:cad>
          </ns3:TrackPointExtension>
        </extensions>
      </trkpt>
      <trkpt lat="45.33112029545009136199951171875" lon="-71.00456583313643932342529296875">
        <ele>692.5999755859375</ele>
        <time>2026-08-21T20:26:01.000Z</time>
        <extensions>
          <ns3:TrackPointExtension>
            <ns3:hr>128</ns3:hr>
            <ns3:cad>69</ns3:cad>
          </ns3:TrackPointExtension>
        </extensions>
      </trkpt>
      <trkpt lat="45.33110705204308032989501953125" lon="-71.004553847014904022216796875">
        <ele>692.5999755859375</ele>
        <time>2026-08-21T20:26:02.000Z</time>
        <extensions>
          <ns3:TrackPointExtension>
            <ns3:hr>127</ns3:hr>
            <ns3:cad>69</ns3:cad>
          </ns3:TrackPointExtension>
        </extensions>
      </trkpt>
      <trkpt lat="45.331095568835735321044921875" lon="-71.0045380890369415283203125">
        <ele>692.4000244140625</ele>
        <time>2026-08-21T20:26:03.000Z</time>
        <extensions>
          <ns3:TrackPointExtension>
            <ns3:hr>127</ns3:hr>
            <ns3:cad>69</ns3:cad>
          </ns3:TrackPointExtension>
        </extensions>
      </trkpt>
      <trkpt lat="45.3310893662273883819580078125" lon="-71.00451839156448841094970703125">
        <ele>692.4000244140625</ele>
        <time>2026-08-21T20:26:04.000Z</time>
        <extensions>
          <ns3:TrackPointExtension>
            <ns3:hr>126</ns3:hr>
            <ns3:cad>69</ns3:cad>
          </ns3:TrackPointExtension>
        </extensions>
      </trkpt>
      <trkpt lat="45.3310796432197093963623046875" lon="-71.00450028665363788604736328125">
        <ele>692.20001220703125</ele>
        <time>2026-08-21T20:26:05.000Z</time>
        <extensions>
          <ns3:TrackPointExtension>
            <ns3:hr>126</ns3:hr>
            <ns3:cad>69</ns3:cad>
          </ns3:TrackPointExtension>
        </extensions>
      </trkpt>
      <trkpt lat="45.33106849528849124908447265625" lon="-71.00448033772408962249755859375">
        <ele>691.79998779296875</ele>
        <time>2026-08-21T20:26:06.000Z</time>
        <extensions>
          <ns3:TrackPointExtension>
            <ns3:hr>126</ns3:hr>
            <ns3:cad>0</ns3:cad>
          </ns3:TrackPointExtension>
        </extensions>
      </trkpt>
      <trkpt lat="45.331056676805019378662109375" lon="-71.0044614784419536590576171875">
        <ele>691.5999755859375</ele>
        <time>2026-08-21T20:26:07.000Z</time>
        <extensions>
          <ns3:TrackPointExtension>
            <ns3:hr>126</ns3:hr>
            <ns3:cad>0</ns3:cad>
          </ns3:TrackPointExtension>
        </extensions>
      </trkpt>
      <trkpt lat="45.33104234375059604644775390625" lon="-71.004448235034942626953125">
        <ele>691.20001220703125</ele>
        <time>2026-08-21T20:26:08.000Z</time>
        <extensions>
          <ns3:TrackPointExtension>
            <ns3:hr>126</ns3:hr>
            <ns3:cad>0</ns3:cad>
          </ns3:TrackPointExtension>
        </extensions>
      </trkpt>
      <trkpt lat="45.33102122135460376739501953125" lon="-71.00444220006465911865234375">
        <ele>690.79998779296875</ele>
        <time>2026-08-21T20:26:09.000Z</time>
        <extensions>
          <ns3:TrackPointExtension>
            <ns3:hr>125</ns3:hr>
            <ns3:cad>0</ns3:cad>
          </ns3:TrackPointExtension>
        </extensions>
      </trkpt>
      <trkpt lat="45.33100294880568981170654296875" lon="-71.00444882176816463470458984375">
        <ele>690.5999755859375</ele>
        <time>2026-08-21T20:26:10.000Z</time>
        <extensions>
          <ns3:TrackPointExtension>
            <ns3:hr>125</ns3:hr>
            <ns3:cad>0</ns3:cad>
          </ns3:TrackPointExtension>
        </extensions>
      </trkpt>
      <trkpt lat="45.33098367042839527130126953125" lon="-71.00445820949971675872802734375">
        <ele>690.4000244140625</ele>
        <time>2026-08-21T20:26:11.000Z</time>
        <extensions>
          <ns3:TrackPointExtension>
            <ns3:hr>124</ns3:hr>
            <ns3:cad>0</ns3:cad>
          </ns3:TrackPointExtension>
        </extensions>
      </trkpt>
      <trkpt lat="45.33097009174525737762451171875" lon="-71.00446642376482486724853515625">
        <ele>690.20001220703125</ele>
        <time>2026-08-21T20:26:12.000Z</time>
        <extensions>
          <ns3:TrackPointExtension>
            <ns3:hr>124</ns3:hr>
            <ns3:cad>0</ns3:cad>
          </ns3:TrackPointExtension>
        </extensions>
      </trkpt>
      <trkpt lat="45.33095307648181915283203125" lon="-71.0044737160205841064453125">
        <ele>690</ele>
        <time>2026-08-21T20:26:13.000Z</time>
        <extensions>
          <ns3:TrackPointExtension>
            <ns3:hr>124</ns3:hr>
            <ns3:cad>0</ns3:cad>
          </ns3:TrackPointExtension>
        </extensions>
      </trkpt>
      <trkpt lat="45.3309401683509349822998046875" lon="-71.00447597913444042205810546875">
        <ele>690</ele>
        <time>2026-08-21T20:26:14.000Z</time>
        <extensions>
          <ns3:TrackPointExtension>
            <ns3:hr>124</ns3:hr>
            <ns3:cad>0</ns3:cad>
          </ns3:TrackPointExtension>
        </extensions>
      </trkpt>
      <trkpt lat="45.330920554697513580322265625" lon="-71.0044836066663265228271484375">
        <ele>689.79998779296875</ele>
        <time>2026-08-21T20:26:15.000Z</time>
        <extensions>
          <ns3:TrackPointExtension>
            <ns3:hr>124</ns3:hr>
            <ns3:cad>54</ns3:cad>
          </ns3:TrackPointExtension>
        </extensions>
      </trkpt>
      <trkpt lat="45.33090974204242229461669921875" lon="-71.00448922254145145416259765625">
        <ele>689.4000244140625</ele>
        <time>2026-08-21T20:26:16.000Z</time>
        <extensions>
          <ns3:TrackPointExtension>
            <ns3:hr>125</ns3:hr>
            <ns3:cad>54</ns3:cad>
          </ns3:TrackPointExtension>
        </extensions>
      </trkpt>
      <trkpt lat="45.33089666627347469329833984375" lon="-71.00448670797049999237060546875">
        <ele>689.4000244140625</ele>
        <time>2026-08-21T20:26:17.000Z</time>
        <extensions>
          <ns3:TrackPointExtension>
            <ns3:hr>125</ns3:hr>
            <ns3:cad>58</ns3:cad>
          </ns3:TrackPointExtension>
        </extensions>
      </trkpt>
      <trkpt lat="45.3308893740177154541015625" lon="-71.004483439028263092041015625">
        <ele>689.20001220703125</ele>
        <time>2026-08-21T20:26:18.000Z</time>
        <extensions>
          <ns3:TrackPointExtension>
            <ns3:hr>125</ns3:hr>
            <ns3:cad>58</ns3:cad>
          </ns3:TrackPointExtension>
        </extensions>
      </trkpt>
      <trkpt lat="45.3308774717152118682861328125" lon="-71.0044871270656585693359375">
        <ele>688.79998779296875</ele>
        <time>2026-08-21T20:26:19.000Z</time>
        <extensions>
          <ns3:TrackPointExtension>
            <ns3:hr>126</ns3:hr>
            <ns3:cad>58</ns3:cad>
          </ns3:TrackPointExtension>
        </extensions>
      </trkpt>
      <trkpt lat="45.33086632378399372100830078125" lon="-71.00448788143694400787353515625">
        <ele>688.5999755859375</ele>
        <time>2026-08-21T20:26:20.000Z</time>
        <extensions>
          <ns3:TrackPointExtension>
            <ns3:hr>126</ns3:hr>
            <ns3:cad>64</ns3:cad>
          </ns3:TrackPointExtension>
        </extensions>
      </trkpt>
      <trkpt lat="45.33085676841437816619873046875" lon="-71.0044913180172443389892578125">
        <ele>688.4000244140625</ele>
        <time>2026-08-21T20:26:21.000Z</time>
        <extensions>
          <ns3:TrackPointExtension>
            <ns3:hr>126</ns3:hr>
            <ns3:cad>64</ns3:cad>
          </ns3:TrackPointExtension>
        </extensions>
      </trkpt>
      <trkpt lat="45.33084721304476261138916015625" lon="-71.0044978559017181396484375">
        <ele>688.20001220703125</ele>
        <time>2026-08-21T20:26:22.000Z</time>
        <extensions>
          <ns3:TrackPointExtension>
            <ns3:hr>126</ns3:hr>
            <ns3:cad>66</ns3:cad>
          </ns3:TrackPointExtension>
        </extensions>
      </trkpt>
      <trkpt lat="45.3308312036097049713134765625" lon="-71.0044973529875278472900390625">
        <ele>687.79998779296875</ele>
        <time>2026-08-21T20:26:23.000Z</time>
        <extensions>
          <ns3:TrackPointExtension>
            <ns3:hr>126</ns3:hr>
            <ns3:cad>66</ns3:cad>
          </ns3:TrackPointExtension>
        </extensions>
      </trkpt>
      <trkpt lat="45.33081770874559879302978515625" lon="-71.0044966824352741241455078125">
        <ele>687.4000244140625</ele>
        <time>2026-08-21T20:26:24.000Z</time>
        <extensions>
          <ns3:TrackPointExtension>
            <ns3:hr>127</ns3:hr>
            <ns3:cad>66</ns3:cad>
          </ns3:TrackPointExtension>
        </extensions>
      </trkpt>
      <trkpt lat="45.33079876564443111419677734375" lon="-71.004494838416576385498046875">
        <ele>687</ele>
        <time>2026-08-21T20:26:25.000Z</time>
        <extensions>
          <ns3:TrackPointExtension>
            <ns3:hr>127</ns3:hr>
            <ns3:cad>66</ns3:cad>
          </ns3:TrackPointExtension>
        </extensions>
      </trkpt>
      <trkpt lat="45.3307822532951831817626953125" lon="-71.0044896416366100311279296875">
        <ele>686.4000244140625</ele>
        <time>2026-08-21T20:26:26.000Z</time>
        <extensions>
          <ns3:TrackPointExtension>
            <ns3:hr>127</ns3:hr>
            <ns3:cad>66</ns3:cad>
          </ns3:TrackPointExtension>
        </extensions>
      </trkpt>
      <trkpt lat="45.33076657913625240325927734375" lon="-71.0044819302856922149658203125">
        <ele>685.79998779296875</ele>
        <time>2026-08-21T20:26:27.000Z</time>
        <extensions>
          <ns3:TrackPointExtension>
            <ns3:hr>126</ns3:hr>
            <ns3:cad>66</ns3:cad>
          </ns3:TrackPointExtension>
        </extensions>
      </trkpt>
      <trkpt lat="45.33075517974793910980224609375" lon="-71.00447027944028377532958984375">
        <ele>685.4000244140625</ele>
        <time>2026-08-21T20:26:28.000Z</time>
        <extensions>
          <ns3:TrackPointExtension>
            <ns3:hr>125</ns3:hr>
            <ns3:cad>66</ns3:cad>
          </ns3:TrackPointExtension>
        </extensions>
      </trkpt>
      <trkpt lat="45.3307457081973552703857421875" lon="-71.00445452146232128143310546875">
        <ele>685</ele>
        <time>2026-08-21T20:26:29.000Z</time>
        <extensions>
          <ns3:TrackPointExtension>
            <ns3:hr>125</ns3:hr>
            <ns3:cad>66</ns3:cad>
          </ns3:TrackPointExtension>
        </extensions>
      </trkpt>
      <trkpt lat="45.3307390026748180389404296875" lon="-71.00444043986499309539794921875">
        <ele>684.5999755859375</ele>
        <time>2026-08-21T20:26:30.000Z</time>
        <extensions>
          <ns3:TrackPointExtension>
            <ns3:hr>124</ns3:hr>
            <ns3:cad>66</ns3:cad>
          </ns3:TrackPointExtension>
        </extensions>
      </trkpt>
      <trkpt lat="45.33073456026613712310791015625" lon="-71.00442702881991863250732421875">
        <ele>684.4000244140625</ele>
        <time>2026-08-21T20:26:31.000Z</time>
        <extensions>
          <ns3:TrackPointExtension>
            <ns3:hr>124</ns3:hr>
            <ns3:cad>66</ns3:cad>
          </ns3:TrackPointExtension>
        </extensions>
      </trkpt>
      <trkpt lat="45.33072911202907562255859375" lon="-71.00440942682325839996337890625">
        <ele>684.4000244140625</ele>
        <time>2026-08-21T20:26:32.000Z</time>
        <extensions>
          <ns3:TrackPointExtension>
            <ns3:hr>123</ns3:hr>
            <ns3:cad>66</ns3:cad>
          </ns3:TrackPointExtension>
        </extensions>
      </trkpt>
      <trkpt lat="45.330726094543933868408203125" lon="-71.004394590854644775390625">
        <ele>684.4000244140625</ele>
        <time>2026-08-21T20:26:33.000Z</time>
        <extensions>
          <ns3:TrackPointExtension>
            <ns3:hr>124</ns3:hr>
            <ns3:cad>66</ns3:cad>
          </ns3:TrackPointExtension>
        </extensions>
      </trkpt>
      <trkpt lat="45.330718047916889190673828125" lon="-71.0043877176940441131591796875">
        <ele>684.4000244140625</ele>
        <time>2026-08-21T20:26:34.000Z</time>
        <extensions>
          <ns3:TrackPointExtension>
            <ns3:hr>124</ns3:hr>
            <ns3:cad>66</ns3:cad>
          </ns3:TrackPointExtension>
        </extensions>
      </trkpt>
      <trkpt lat="45.3307091630995273590087890625" lon="-71.00438377819955348968505859375">
        <ele>684.4000244140625</ele>
        <time>2026-08-21T20:26:35.000Z</time>
        <extensions>
          <ns3:TrackPointExtension>
            <ns3:hr>124</ns3:hr>
            <ns3:cad>66</ns3:cad>
          </ns3:TrackPointExtension>
        </extensions>
      </trkpt>
      <trkpt lat="45.33069985918700695037841796875" lon="-71.0043905675411224365234375">
        <ele>684.20001220703125</ele>
        <time>2026-08-21T20:26:36.000Z</time>
        <extensions>
          <ns3:TrackPointExtension>
            <ns3:hr>124</ns3:hr>
            <ns3:cad>66</ns3:cad>
          </ns3:TrackPointExtension>
        </extensions>
      </trkpt>
      <trkpt lat="45.33069198019802570343017578125" lon="-71.00439635105431079864501953125">
        <ele>684</ele>
        <time>2026-08-21T20:26:37.000Z</time>
        <extensions>
          <ns3:TrackPointExtension>
            <ns3:hr>124</ns3:hr>
            <ns3:cad>66</ns3:cad>
          </ns3:TrackPointExtension>
        </extensions>
      </trkpt>
      <trkpt lat="45.33067789860069751739501953125" lon="-71.00439392030239105224609375">
        <ele>683.5999755859375</ele>
        <time>2026-08-21T20:26:38.000Z</time>
        <extensions>
          <ns3:TrackPointExtension>
            <ns3:hr>123</ns3:hr>
            <ns3:cad>66</ns3:cad>
          </ns3:TrackPointExtension>
        </extensions>
      </trkpt>
      <trkpt lat="45.3306669183075428009033203125" lon="-71.00438763387501239776611328125">
        <ele>683.4000244140625</ele>
        <time>2026-08-21T20:26:39.000Z</time>
        <extensions>
          <ns3:TrackPointExtension>
            <ns3:hr>123</ns3:hr>
            <ns3:cad>66</ns3:cad>
          </ns3:TrackPointExtension>
        </extensions>
      </trkpt>
      <trkpt lat="45.3306548483669757843017578125" lon="-71.00437648594379425048828125">
        <ele>683</ele>
        <time>2026-08-21T20:26:40.000Z</time>
        <extensions>
          <ns3:TrackPointExtension>
            <ns3:hr>123</ns3:hr>
            <ns3:cad>66</ns3:cad>
          </ns3:TrackPointExtension>
        </extensions>
      </trkpt>
      <trkpt lat="45.3306444548070430755615234375" lon="-71.0043704509735107421875">
        <ele>682.79998779296875</ele>
        <time>2026-08-21T20:26:41.000Z</time>
        <extensions>
          <ns3:TrackPointExtension>
            <ns3:hr>122</ns3:hr>
            <ns3:cad>66</ns3:cad>
          </ns3:TrackPointExtension>
        </extensions>
      </trkpt>
      <trkpt lat="45.33063380979001522064208984375" lon="-71.00436248816549777984619140625">
        <ele>682.5999755859375</ele>
        <time>2026-08-21T20:26:42.000Z</time>
        <extensions>
          <ns3:TrackPointExtension>
            <ns3:hr>122</ns3:hr>
            <ns3:cad>62</ns3:cad>
          </ns3:TrackPointExtension>
        </extensions>
      </trkpt>
      <trkpt lat="45.330622494220733642578125" lon="-71.004350669682025909423828125">
        <ele>682.4000244140625</ele>
        <time>2026-08-21T20:26:43.000Z</time>
        <extensions>
          <ns3:TrackPointExtension>
            <ns3:hr>122</ns3:hr>
            <ns3:cad>62</ns3:cad>
          </ns3:TrackPointExtension>
        </extensions>
      </trkpt>
      <trkpt lat="45.33060665242373943328857421875" lon="-71.0043417848646640777587890625">
        <ele>682.20001220703125</ele>
        <time>2026-08-21T20:26:44.000Z</time>
        <extensions>
          <ns3:TrackPointExtension>
            <ns3:hr>122</ns3:hr>
            <ns3:cad>66</ns3:cad>
          </ns3:TrackPointExtension>
        </extensions>
      </trkpt>
      <trkpt lat="45.33059374429285526275634765625" lon="-71.00433348678052425384521484375">
        <ele>682.20001220703125</ele>
        <time>2026-08-21T20:26:45.000Z</time>
        <extensions>
          <ns3:TrackPointExtension>
            <ns3:hr>122</ns3:hr>
            <ns3:cad>66</ns3:cad>
          </ns3:TrackPointExtension>
        </extensions>
      </trkpt>
      <trkpt lat="45.330577902495861053466796875" lon="-71.00432024337351322174072265625">
        <ele>682</ele>
        <time>2026-08-21T20:26:46.000Z</time>
        <extensions>
          <ns3:TrackPointExtension>
            <ns3:hr>122</ns3:hr>
            <ns3:cad>66</ns3:cad>
          </ns3:TrackPointExtension>
        </extensions>
      </trkpt>
      <trkpt lat="45.33056524582207202911376953125" lon="-71.0043112747371196746826171875">
        <ele>681.79998779296875</ele>
        <time>2026-08-21T20:26:47.000Z</time>
        <extensions>
          <ns3:TrackPointExtension>
            <ns3:hr>121</ns3:hr>
            <ns3:cad>61</ns3:cad>
          </ns3:TrackPointExtension>
        </extensions>
      </trkpt>
      <trkpt lat="45.33055552281439304351806640625" lon="-71.0043035633862018585205078125">
        <ele>681.79998779296875</ele>
        <time>2026-08-21T20:26:48.000Z</time>
        <extensions>
          <ns3:TrackPointExtension>
            <ns3:hr>120</ns3:hr>
            <ns3:cad>61</ns3:cad>
          </ns3:TrackPointExtension>
        </extensions>
      </trkpt>
      <trkpt lat="45.3305475600063800811767578125" lon="-71.0042941756546497344970703125">
        <ele>681.5999755859375</ele>
        <time>2026-08-21T20:26:49.000Z</time>
        <extensions>
          <ns3:TrackPointExtension>
            <ns3:hr>120</ns3:hr>
            <ns3:cad>58</ns3:cad>
          </ns3:TrackPointExtension>
        </extensions>
      </trkpt>
      <trkpt lat="45.3305385075509548187255859375" lon="-71.00428336299955844879150390625">
        <ele>681.4000244140625</ele>
        <time>2026-08-21T20:26:50.000Z</time>
        <extensions>
          <ns3:TrackPointExtension>
            <ns3:hr>120</ns3:hr>
            <ns3:cad>57</ns3:cad>
          </ns3:TrackPointExtension>
        </extensions>
      </trkpt>
      <trkpt lat="45.3305272758007049560546875" lon="-71.004278920590877532958984375">
        <ele>681.20001220703125</ele>
        <time>2026-08-21T20:26:51.000Z</time>
        <extensions>
          <ns3:TrackPointExtension>
            <ns3:hr>120</ns3:hr>
            <ns3:cad>57</ns3:cad>
          </ns3:TrackPointExtension>
        </extensions>
      </trkpt>
      <trkpt lat="45.3305165469646453857421875" lon="-71.0042737238109111785888671875">
        <ele>681</ele>
        <time>2026-08-21T20:26:52.000Z</time>
        <extensions>
          <ns3:TrackPointExtension>
            <ns3:hr>119</ns3:hr>
            <ns3:cad>57</ns3:cad>
          </ns3:TrackPointExtension>
        </extensions>
      </trkpt>
      <trkpt lat="45.33050338737666606903076171875" lon="-71.0042717121541500091552734375">
        <ele>680.79998779296875</ele>
        <time>2026-08-21T20:26:53.000Z</time>
        <extensions>
          <ns3:TrackPointExtension>
            <ns3:hr>119</ns3:hr>
            <ns3:cad>57</ns3:cad>
          </ns3:TrackPointExtension>
        </extensions>
      </trkpt>
      <trkpt lat="45.33048930577933788299560546875" lon="-71.0042666830122470855712890625">
        <ele>680.5999755859375</ele>
        <time>2026-08-21T20:26:54.000Z</time>
        <extensions>
          <ns3:TrackPointExtension>
            <ns3:hr>119</ns3:hr>
            <ns3:cad>57</ns3:cad>
          </ns3:TrackPointExtension>
        </extensions>
      </trkpt>
      <trkpt lat="45.33047170378267765045166015625" lon="-71.00426441989839076995849609375">
        <ele>680.4000244140625</ele>
        <time>2026-08-21T20:26:55.000Z</time>
        <extensions>
          <ns3:TrackPointExtension>
            <ns3:hr>119</ns3:hr>
            <ns3:cad>57</ns3:cad>
          </ns3:TrackPointExtension>
        </extensions>
      </trkpt>
      <trkpt lat="45.3304600529372692108154296875" lon="-71.00426576100289821624755859375">
        <ele>680.20001220703125</ele>
        <time>2026-08-21T20:26:56.000Z</time>
        <extensions>
          <ns3:TrackPointExtension>
            <ns3:hr>118</ns3:hr>
            <ns3:cad>57</ns3:cad>
          </ns3:TrackPointExtension>
        </extensions>
      </trkpt>
      <trkpt lat="45.33045074902474880218505859375" lon="-71.0042660124599933624267578125">
        <ele>680</ele>
        <time>2026-08-21T20:26:57.000Z</time>
        <extensions>
          <ns3:TrackPointExtension>
            <ns3:hr>118</ns3:hr>
            <ns3:cad>57</ns3:cad>
          </ns3:TrackPointExtension>
        </extensions>
      </trkpt>
      <trkpt lat="45.330440439283847808837890625" lon="-71.00426525808870792388916015625">
        <ele>680</ele>
        <time>2026-08-21T20:26:58.000Z</time>
        <extensions>
          <ns3:TrackPointExtension>
            <ns3:hr>118</ns3:hr>
            <ns3:cad>57</ns3:cad>
          </ns3:TrackPointExtension>
        </extensions>
      </trkpt>
      <trkpt lat="45.33042602241039276123046875" lon="-71.00426743738353252410888671875">
        <ele>679.79998779296875</ele>
        <time>2026-08-21T20:26:59.000Z</time>
        <extensions>
          <ns3:TrackPointExtension>
            <ns3:hr>118</ns3:hr>
            <ns3:cad>59</ns3:cad>
          </ns3:TrackPointExtension>
        </extensions>
      </trkpt>
      <trkpt lat="45.3304090909659862518310546875" lon="-71.00426391698420047760009765625">
        <ele>679.5999755859375</ele>
        <time>2026-08-21T20:27:00.000Z</time>
        <extensions>
          <ns3:TrackPointExtension>
            <ns3:hr>118</ns3:hr>
            <ns3:cad>59</ns3:cad>
          </ns3:TrackPointExtension>
        </extensions>
      </trkpt>
      <trkpt lat="45.330397188663482666015625" lon="-71.004250757396221160888671875">
        <ele>679.5999755859375</ele>
        <time>2026-08-21T20:27:01.000Z</time>
        <extensions>
          <ns3:TrackPointExtension>
            <ns3:hr>119</ns3:hr>
            <ns3:cad>59</ns3:cad>
          </ns3:TrackPointExtension>
        </extensions>
      </trkpt>
      <trkpt lat="45.33038838766515254974365234375" lon="-71.0042395256459712982177734375">
        <ele>679.5999755859375</ele>
        <time>2026-08-21T20:27:02.000Z</time>
        <extensions>
          <ns3:TrackPointExtension>
            <ns3:hr>119</ns3:hr>
            <ns3:cad>59</ns3:cad>
          </ns3:TrackPointExtension>
        </extensions>
      </trkpt>
      <trkpt lat="45.3303805924952030181884765625" lon="-71.0042242705821990966796875">
        <ele>679.5999755859375</ele>
        <time>2026-08-21T20:27:03.000Z</time>
        <extensions>
          <ns3:TrackPointExtension>
            <ns3:hr>119</ns3:hr>
            <ns3:cad>59</ns3:cad>
          </ns3:TrackPointExtension>
        </extensions>
      </trkpt>
      <trkpt lat="45.3303738869726657867431640625" lon="-71.00421010516583919525146484375">
        <ele>679.4000244140625</ele>
        <time>2026-08-21T20:27:04.000Z</time>
        <extensions>
          <ns3:TrackPointExtension>
            <ns3:hr>119</ns3:hr>
            <ns3:cad>0</ns3:cad>
          </ns3:TrackPointExtension>
        </extensions>
      </trkpt>
      <trkpt lat="45.33037564717233180999755859375" lon="-71.00419803522527217864990234375">
        <ele>679.20001220703125</ele>
        <time>2026-08-21T20:27:05.000Z</time>
        <extensions>
          <ns3:TrackPointExtension>
            <ns3:hr>119</ns3:hr>
            <ns3:cad>0</ns3:cad>
          </ns3:TrackPointExtension>
        </extensions>
      </trkpt>
      <trkpt lat="45.3303775750100612640380859375" lon="-71.004174314439296722412109375">
        <ele>679.20001220703125</ele>
        <time>2026-08-21T20:27:06.000Z</time>
        <extensions>
          <ns3:TrackPointExtension>
            <ns3:hr>119</ns3:hr>
            <ns3:cad>43</ns3:cad>
          </ns3:TrackPointExtension>
        </extensions>
      </trkpt>
      <trkpt lat="45.33037782646715641021728515625" lon="-71.00415050983428955078125">
        <ele>679</ele>
        <time>2026-08-21T20:27:07.000Z</time>
        <extensions>
          <ns3:TrackPointExtension>
            <ns3:hr>120</ns3:hr>
            <ns3:cad>43</ns3:cad>
          </ns3:TrackPointExtension>
        </extensions>
      </trkpt>
      <trkpt lat="45.3303795866668224334716796875" lon="-71.00413450039923191070556640625">
        <ele>679</ele>
        <time>2026-08-21T20:27:08.000Z</time>
        <extensions>
          <ns3:TrackPointExtension>
            <ns3:hr>120</ns3:hr>
            <ns3:cad>43</ns3:cad>
          </ns3:TrackPointExtension>
        </extensions>
      </trkpt>
      <trkpt lat="45.33037841320037841796875" lon="-71.0041164793074131011962890625">
        <ele>679</ele>
        <time>2026-08-21T20:27:09.000Z</time>
        <extensions>
          <ns3:TrackPointExtension>
            <ns3:hr>120</ns3:hr>
            <ns3:cad>43</ns3:cad>
          </ns3:TrackPointExtension>
        </extensions>
      </trkpt>
      <trkpt lat="45.33037841320037841796875" lon="-71.00409829057753086090087890625">
        <ele>679</ele>
        <time>2026-08-21T20:27:10.000Z</time>
        <extensions>
          <ns3:TrackPointExtension>
            <ns3:hr>119</ns3:hr>
            <ns3:cad>43</ns3:cad>
          </ns3:TrackPointExtension>
        </extensions>
      </trkpt>
      <trkpt lat="45.33038101159036159515380859375" lon="-71.00408320315182209014892578125">
        <ele>679</ele>
        <time>2026-08-21T20:27:11.000Z</time>
        <extensions>
          <ns3:TrackPointExtension>
            <ns3:hr>120</ns3:hr>
            <ns3:cad>0</ns3:cad>
          </ns3:TrackPointExtension>
        </extensions>
      </trkpt>
      <trkpt lat="45.3303809277713298797607421875" lon="-71.00406677462160587310791015625">
        <ele>679</ele>
        <time>2026-08-21T20:27:12.000Z</time>
        <extensions>
          <ns3:TrackPointExtension>
            <ns3:hr>120</ns3:hr>
            <ns3:cad>0</ns3:cad>
          </ns3:TrackPointExtension>
        </extensions>
      </trkpt>
      <trkpt lat="45.3303795866668224334716796875" lon="-71.0040443949401378631591796875">
        <ele>679</ele>
        <time>2026-08-21T20:27:13.000Z</time>
        <extensions>
          <ns3:TrackPointExtension>
            <ns3:hr>121</ns3:hr>
            <ns3:cad>0</ns3:cad>
          </ns3:TrackPointExtension>
        </extensions>
      </trkpt>
      <trkpt lat="45.33037380315363407135009765625" lon="-71.004030816256999969482421875">
        <ele>679</ele>
        <time>2026-08-21T20:27:14.000Z</time>
        <extensions>
          <ns3:TrackPointExtension>
            <ns3:hr>122</ns3:hr>
            <ns3:cad>0</ns3:cad>
          </ns3:TrackPointExtension>
        </extensions>
      </trkpt>
      <trkpt lat="45.33036558888852596282958984375" lon="-71.00401363335549831390380859375">
        <ele>679</ele>
        <time>2026-08-21T20:27:15.000Z</time>
        <extensions>
          <ns3:TrackPointExtension>
            <ns3:hr>122</ns3:hr>
            <ns3:cad>0</ns3:cad>
          </ns3:TrackPointExtension>
        </extensions>
      </trkpt>
      <trkpt lat="45.3303587995469570159912109375" lon="-71.00400491617619991302490234375">
        <ele>679</ele>
        <time>2026-08-21T20:27:16.000Z</time>
        <extensions>
          <ns3:TrackPointExtension>
            <ns3:hr>122</ns3:hr>
            <ns3:cad>0</ns3:cad>
          </ns3:TrackPointExtension>
        </extensions>
      </trkpt>
      <trkpt lat="45.33035318367183208465576171875" lon="-71.00399158895015716552734375">
        <ele>678.79998779296875</ele>
        <time>2026-08-21T20:27:17.000Z</time>
        <extensions>
          <ns3:TrackPointExtension>
            <ns3:hr>122</ns3:hr>
            <ns3:cad>0</ns3:cad>
          </ns3:TrackPointExtension>
        </extensions>
      </trkpt>
      <trkpt lat="45.3303475677967071533203125" lon="-71.0039733164012432098388671875">
        <ele>678.79998779296875</ele>
        <time>2026-08-21T20:27:18.000Z</time>
        <extensions>
          <ns3:TrackPointExtension>
            <ns3:hr>122</ns3:hr>
            <ns3:cad>0</ns3:cad>
          </ns3:TrackPointExtension>
        </extensions>
      </trkpt>
      <trkpt lat="45.330344550311565399169921875" lon="-71.00395630113780498504638671875">
        <ele>678.79998779296875</ele>
        <time>2026-08-21T20:27:19.000Z</time>
        <extensions>
          <ns3:TrackPointExtension>
            <ns3:hr>122</ns3:hr>
            <ns3:cad>0</ns3:cad>
          </ns3:TrackPointExtension>
        </extensions>
      </trkpt>
      <trkpt lat="45.33033876679837703704833984375" lon="-71.00393936969339847564697265625">
        <ele>678.79998779296875</ele>
        <time>2026-08-21T20:27:20.000Z</time>
        <extensions>
          <ns3:TrackPointExtension>
            <ns3:hr>122</ns3:hr>
            <ns3:cad>0</ns3:cad>
          </ns3:TrackPointExtension>
        </extensions>
      </trkpt>
      <trkpt lat="45.3303303010761737823486328125" lon="-71.00392243824899196624755859375">
        <ele>678.79998779296875</ele>
        <time>2026-08-21T20:27:21.000Z</time>
        <extensions>
          <ns3:TrackPointExtension>
            <ns3:hr>122</ns3:hr>
            <ns3:cad>0</ns3:cad>
          </ns3:TrackPointExtension>
        </extensions>
      </trkpt>
      <trkpt lat="45.3303235955536365509033203125" lon="-71.00391036830842494964599609375">
        <ele>678.5999755859375</ele>
        <time>2026-08-21T20:27:22.000Z</time>
        <extensions>
          <ns3:TrackPointExtension>
            <ns3:hr>121</ns3:hr>
            <ns3:cad>0</ns3:cad>
          </ns3:TrackPointExtension>
        </extensions>
      </trkpt>
      <trkpt lat="45.3303172253072261810302734375" lon="-71.0039022378623485565185546875">
        <ele>678.5999755859375</ele>
        <time>2026-08-21T20:27:23.000Z</time>
        <extensions>
          <ns3:TrackPointExtension>
            <ns3:hr>120</ns3:hr>
            <ns3:cad>0</ns3:cad>
          </ns3:TrackPointExtension>
        </extensions>
      </trkpt>
      <trkpt lat="45.33031026832759380340576171875" lon="-71.00388564169406890869140625">
        <ele>678.5999755859375</ele>
        <time>2026-08-21T20:27:24.000Z</time>
        <extensions>
          <ns3:TrackPointExtension>
            <ns3:hr>120</ns3:hr>
            <ns3:cad>54</ns3:cad>
          </ns3:TrackPointExtension>
        </extensions>
      </trkpt>
      <trkpt lat="45.33029727637767791748046875" lon="-71.00386644713580608367919921875">
        <ele>678.5999755859375</ele>
        <time>2026-08-21T20:27:25.000Z</time>
        <extensions>
          <ns3:TrackPointExtension>
            <ns3:hr>120</ns3:hr>
            <ns3:cad>54</ns3:cad>
          </ns3:TrackPointExtension>
        </extensions>
      </trkpt>
      <trkpt lat="45.33028227277100086212158203125" lon="-71.003852784633636474609375">
        <ele>678.5999755859375</ele>
        <time>2026-08-21T20:27:26.000Z</time>
        <extensions>
          <ns3:TrackPointExtension>
            <ns3:hr>119</ns3:hr>
            <ns3:cad>54</ns3:cad>
          </ns3:TrackPointExtension>
        </extensions>
      </trkpt>
      <trkpt lat="45.3302632458508014678955078125" lon="-71.00384180434048175811767578125">
        <ele>678.5999755859375</ele>
        <time>2026-08-21T20:27:27.000Z</time>
        <extensions>
          <ns3:TrackPointExtension>
            <ns3:hr>119</ns3:hr>
            <ns3:cad>54</ns3:cad>
          </ns3:TrackPointExtension>
        </extensions>
      </trkpt>
      <trkpt lat="45.33025293610990047454833984375" lon="-71.003824956715106964111328125">
        <ele>678.4000244140625</ele>
        <time>2026-08-21T20:27:28.000Z</time>
        <extensions>
          <ns3:TrackPointExtension>
            <ns3:hr>118</ns3:hr>
            <ns3:cad>54</ns3:cad>
          </ns3:TrackPointExtension>
        </extensions>
      </trkpt>
      <trkpt lat="45.3302402794361114501953125" lon="-71.00380525924265384674072265625">
        <ele>678.4000244140625</ele>
        <time>2026-08-21T20:27:29.000Z</time>
        <extensions>
          <ns3:TrackPointExtension>
            <ns3:hr>118</ns3:hr>
            <ns3:cad>54</ns3:cad>
          </ns3:TrackPointExtension>
        </extensions>
      </trkpt>
      <trkpt lat="45.33023290336132049560546875" lon="-71.0037897527217864990234375">
        <ele>678.20001220703125</ele>
        <time>2026-08-21T20:27:30.000Z</time>
        <extensions>
          <ns3:TrackPointExtension>
            <ns3:hr>118</ns3:hr>
            <ns3:cad>54</ns3:cad>
          </ns3:TrackPointExtension>
        </extensions>
      </trkpt>
      <trkpt lat="45.33021605573594570159912109375" lon="-71.00378128699958324432373046875">
        <ele>678</ele>
        <time>2026-08-21T20:27:31.000Z</time>
        <extensions>
          <ns3:TrackPointExtension>
            <ns3:hr>118</ns3:hr>
            <ns3:cad>54</ns3:cad>
          </ns3:TrackPointExtension>
        </extensions>
      </trkpt>
      <trkpt lat="45.3302082605659961700439453125" lon="-71.0037709772586822509765625">
        <ele>678</ele>
        <time>2026-08-21T20:27:32.000Z</time>
        <extensions>
          <ns3:TrackPointExtension>
            <ns3:hr>118</ns3:hr>
            <ns3:cad>54</ns3:cad>
          </ns3:TrackPointExtension>
        </extensions>
      </trkpt>
      <trkpt lat="45.3301995433866977691650390625" lon="-71.00375966168940067291259765625">
        <ele>678</ele>
        <time>2026-08-21T20:27:33.000Z</time>
        <extensions>
          <ns3:TrackPointExtension>
            <ns3:hr>118</ns3:hr>
            <ns3:cad>0</ns3:cad>
          </ns3:TrackPointExtension>
        </extensions>
      </trkpt>
      <trkpt lat="45.33018596470355987548828125" lon="-71.00374759174883365631103515625">
        <ele>678</ele>
        <time>2026-08-21T20:27:34.000Z</time>
        <extensions>
          <ns3:TrackPointExtension>
            <ns3:hr>118</ns3:hr>
            <ns3:cad>0</ns3:cad>
          </ns3:TrackPointExtension>
        </extensions>
      </trkpt>
      <trkpt lat="45.33017649315297603607177734375" lon="-71.00373954512178897857666015625">
        <ele>678.20001220703125</ele>
        <time>2026-08-21T20:27:35.000Z</time>
        <extensions>
          <ns3:TrackPointExtension>
            <ns3:hr>119</ns3:hr>
            <ns3:cad>0</ns3:cad>
          </ns3:TrackPointExtension>
        </extensions>
      </trkpt>
      <trkpt lat="45.3301624953746795654296875" lon="-71.0037248767912387847900390625">
        <ele>678.20001220703125</ele>
        <time>2026-08-21T20:27:36.000Z</time>
        <extensions>
          <ns3:TrackPointExtension>
            <ns3:hr>119</ns3:hr>
            <ns3:cad>0</ns3:cad>
          </ns3:TrackPointExtension>
        </extensions>
      </trkpt>
      <trkpt lat="45.33015268854796886444091796875" lon="-71.0037151537835597991943359375">
        <ele>678.20001220703125</ele>
        <time>2026-08-21T20:27:37.000Z</time>
        <extensions>
          <ns3:TrackPointExtension>
            <ns3:hr>120</ns3:hr>
            <ns3:cad>0</ns3:cad>
          </ns3:TrackPointExtension>
        </extensions>
      </trkpt>
      <trkpt lat="45.3301438875496387481689453125" lon="-71.003703586757183074951171875">
        <ele>678.20001220703125</ele>
        <time>2026-08-21T20:27:38.000Z</time>
        <extensions>
          <ns3:TrackPointExtension>
            <ns3:hr>120</ns3:hr>
            <ns3:cad>0</ns3:cad>
          </ns3:TrackPointExtension>
        </extensions>
      </trkpt>
      <trkpt lat="45.3301324881613254547119140625" lon="-71.003684140741825103759765625">
        <ele>678.20001220703125</ele>
        <time>2026-08-21T20:27:39.000Z</time>
        <extensions>
          <ns3:TrackPointExtension>
            <ns3:hr>120</ns3:hr>
            <ns3:cad>0</ns3:cad>
          </ns3:TrackPointExtension>
        </extensions>
      </trkpt>
      <trkpt lat="45.33012025058269500732421875" lon="-71.0036762617528438568115234375">
        <ele>678</ele>
        <time>2026-08-21T20:27:40.000Z</time>
        <extensions>
          <ns3:TrackPointExtension>
            <ns3:hr>120</ns3:hr>
            <ns3:cad>0</ns3:cad>
          </ns3:TrackPointExtension>
        </extensions>
      </trkpt>
      <trkpt lat="45.33010658808052539825439453125" lon="-71.0036690533161163330078125">
        <ele>678</ele>
        <time>2026-08-21T20:27:41.000Z</time>
        <extensions>
          <ns3:TrackPointExtension>
            <ns3:hr>120</ns3:hr>
            <ns3:cad>0</ns3:cad>
          </ns3:TrackPointExtension>
        </extensions>
      </trkpt>
      <trkpt lat="45.3300919197499752044677734375" lon="-71.0036529600620269775390625">
        <ele>678</ele>
        <time>2026-08-21T20:27:42.000Z</time>
        <extensions>
          <ns3:TrackPointExtension>
            <ns3:hr>120</ns3:hr>
            <ns3:cad>0</ns3:cad>
          </ns3:TrackPointExtension>
        </extensions>
      </trkpt>
      <trkpt lat="45.33007741905748844146728515625" lon="-71.00364851765334606170654296875">
        <ele>678</ele>
        <time>2026-08-21T20:27:43.000Z</time>
        <extensions>
          <ns3:TrackPointExtension>
            <ns3:hr>121</ns3:hr>
            <ns3:cad>59</ns3:cad>
          </ns3:TrackPointExtension>
        </extensions>
      </trkpt>
      <trkpt lat="45.33006920479238033294677734375" lon="-71.003640554845333099365234375">
        <ele>677.79998779296875</ele>
        <time>2026-08-21T20:27:44.000Z</time>
        <extensions>
          <ns3:TrackPointExtension>
            <ns3:hr>121</ns3:hr>
            <ns3:cad>59</ns3:cad>
          </ns3:TrackPointExtension>
        </extensions>
      </trkpt>
      <trkpt lat="45.3300583921372890472412109375" lon="-71.00363326258957386016845703125">
        <ele>677.79998779296875</ele>
        <time>2026-08-21T20:27:45.000Z</time>
        <extensions>
          <ns3:TrackPointExtension>
            <ns3:hr>121</ns3:hr>
            <ns3:cad>59</ns3:cad>
          </ns3:TrackPointExtension>
        </extensions>
      </trkpt>
      <trkpt lat="45.33005344681441783905029296875" lon="-71.00362471304833889007568359375">
        <ele>677.79998779296875</ele>
        <time>2026-08-21T20:27:46.000Z</time>
        <extensions>
          <ns3:TrackPointExtension>
            <ns3:hr>122</ns3:hr>
            <ns3:cad>59</ns3:cad>
          </ns3:TrackPointExtension>
        </extensions>
      </trkpt>
      <trkpt lat="45.33004422672092914581298828125" lon="-71.00361339747905731201171875">
        <ele>677.5999755859375</ele>
        <time>2026-08-21T20:27:47.000Z</time>
        <extensions>
          <ns3:TrackPointExtension>
            <ns3:hr>122</ns3:hr>
            <ns3:cad>59</ns3:cad>
          </ns3:TrackPointExtension>
        </extensions>
      </trkpt>
      <trkpt lat="45.33003668300807476043701171875" lon="-71.0036011599004268646240234375">
        <ele>677.4000244140625</ele>
        <time>2026-08-21T20:27:48.000Z</time>
        <extensions>
          <ns3:TrackPointExtension>
            <ns3:hr>123</ns3:hr>
            <ns3:cad>59</ns3:cad>
          </ns3:TrackPointExtension>
        </extensions>
      </trkpt>
      <trkpt lat="45.3300283849239349365234375" lon="-71.0035880841314792633056640625">
        <ele>677.4000244140625</ele>
        <time>2026-08-21T20:27:49.000Z</time>
        <extensions>
          <ns3:TrackPointExtension>
            <ns3:hr>123</ns3:hr>
            <ns3:cad>59</ns3:cad>
          </ns3:TrackPointExtension>
        </extensions>
      </trkpt>
      <trkpt lat="45.33001874573528766632080078125" lon="-71.0035783611238002777099609375">
        <ele>677.20001220703125</ele>
        <time>2026-08-21T20:27:50.000Z</time>
        <extensions>
          <ns3:TrackPointExtension>
            <ns3:hr>124</ns3:hr>
            <ns3:cad>52</ns3:cad>
          </ns3:TrackPointExtension>
        </extensions>
      </trkpt>
      <trkpt lat="45.3300096094608306884765625" lon="-71.0035672970116138458251953125">
        <ele>677.20001220703125</ele>
        <time>2026-08-21T20:27:51.000Z</time>
        <extensions>
          <ns3:TrackPointExtension>
            <ns3:hr>124</ns3:hr>
            <ns3:cad>52</ns3:cad>
          </ns3:TrackPointExtension>
        </extensions>
      </trkpt>
      <trkpt lat="45.32999846152961254119873046875" lon="-71.0035550594329833984375">
        <ele>677</ele>
        <time>2026-08-21T20:27:52.000Z</time>
        <extensions>
          <ns3:TrackPointExtension>
            <ns3:hr>124</ns3:hr>
            <ns3:cad>54</ns3:cad>
          </ns3:TrackPointExtension>
        </extensions>
      </trkpt>
      <trkpt lat="45.3299940191209316253662109375" lon="-71.0035471804440021514892578125">
        <ele>677</ele>
        <time>2026-08-21T20:27:53.000Z</time>
        <extensions>
          <ns3:TrackPointExtension>
            <ns3:hr>124</ns3:hr>
            <ns3:cad>54</ns3:cad>
          </ns3:TrackPointExtension>
        </extensions>
      </trkpt>
      <trkpt lat="45.3299796022474765777587890625" lon="-71.0035243816673755645751953125">
        <ele>677</ele>
        <time>2026-08-21T20:27:54.000Z</time>
        <extensions>
          <ns3:TrackPointExtension>
            <ns3:hr>124</ns3:hr>
            <ns3:cad>54</ns3:cad>
          </ns3:TrackPointExtension>
        </extensions>
      </trkpt>
      <trkpt lat="45.32996694557368755340576171875" lon="-71.00351591594517230987548828125">
        <ele>676.79998779296875</ele>
        <time>2026-08-21T20:27:55.000Z</time>
        <extensions>
          <ns3:TrackPointExtension>
            <ns3:hr>124</ns3:hr>
            <ns3:cad>0</ns3:cad>
          </ns3:TrackPointExtension>
        </extensions>
      </trkpt>
      <trkpt lat="45.32995839603245258331298828125" lon="-71.00350954569876194000244140625">
        <ele>676.5999755859375</ele>
        <time>2026-08-21T20:27:56.000Z</time>
        <extensions>
          <ns3:TrackPointExtension>
            <ns3:hr>124</ns3:hr>
            <ns3:cad>0</ns3:cad>
          </ns3:TrackPointExtension>
        </extensions>
      </trkpt>
      <trkpt lat="45.32994724810123443603515625" lon="-71.00349982269108295440673828125">
        <ele>676.4000244140625</ele>
        <time>2026-08-21T20:27:57.000Z</time>
        <extensions>
          <ns3:TrackPointExtension>
            <ns3:hr>124</ns3:hr>
            <ns3:cad>0</ns3:cad>
          </ns3:TrackPointExtension>
        </extensions>
      </trkpt>
      <trkpt lat="45.3299316577613353729248046875" lon="-71.00348406471312046051025390625">
        <ele>676.20001220703125</ele>
        <time>2026-08-21T20:27:58.000Z</time>
        <extensions>
          <ns3:TrackPointExtension>
            <ns3:hr>124</ns3:hr>
            <ns3:cad>0</ns3:cad>
          </ns3:TrackPointExtension>
        </extensions>
      </trkpt>
      <trkpt lat="45.329915396869182586669921875" lon="-71.0034667141735553741455078125">
        <ele>676</ele>
        <time>2026-08-21T20:27:59.000Z</time>
        <extensions>
          <ns3:TrackPointExtension>
            <ns3:hr>124</ns3:hr>
            <ns3:cad>0</ns3:cad>
          </ns3:TrackPointExtension>
        </extensions>
      </trkpt>
      <trkpt lat="45.32990324310958385467529296875" lon="-71.00345942191779613494873046875">
        <ele>675.79998779296875</ele>
        <time>2026-08-21T20:28:00.000Z</time>
        <extensions>
          <ns3:TrackPointExtension>
            <ns3:hr>124</ns3:hr>
            <ns3:cad>0</ns3:cad>
          </ns3:TrackPointExtension>
        </extensions>
      </trkpt>
      <trkpt lat="45.32988228835165500640869140625" lon="-71.0034472681581974029541015625">
        <ele>675.79998779296875</ele>
        <time>2026-08-21T20:28:01.000Z</time>
        <extensions>
          <ns3:TrackPointExtension>
            <ns3:hr>124</ns3:hr>
            <ns3:cad>0</ns3:cad>
          </ns3:TrackPointExtension>
        </extensions>
      </trkpt>
      <trkpt lat="45.32986954785883426666259765625" lon="-71.00343930535018444061279296875">
        <ele>675.5999755859375</ele>
        <time>2026-08-21T20:28:02.000Z</time>
        <extensions>
          <ns3:TrackPointExtension>
            <ns3:hr>124</ns3:hr>
            <ns3:cad>0</ns3:cad>
          </ns3:TrackPointExtension>
        </extensions>
      </trkpt>
      <trkpt lat="45.32985261641442775726318359375" lon="-71.00343746133148670196533203125">
        <ele>675.5999755859375</ele>
        <time>2026-08-21T20:28:03.000Z</time>
        <extensions>
          <ns3:TrackPointExtension>
            <ns3:hr>124</ns3:hr>
            <ns3:cad>0</ns3:cad>
          </ns3:TrackPointExtension>
        </extensions>
      </trkpt>
      <trkpt lat="45.32983467914164066314697265625" lon="-71.00344316102564334869384765625">
        <ele>675.4000244140625</ele>
        <time>2026-08-21T20:28:04.000Z</time>
        <extensions>
          <ns3:TrackPointExtension>
            <ns3:hr>124</ns3:hr>
            <ns3:cad>62</ns3:cad>
          </ns3:TrackPointExtension>
        </extensions>
      </trkpt>
      <trkpt lat="45.32982327975332736968994140625" lon="-71.00344969891011714935302734375">
        <ele>675.4000244140625</ele>
        <time>2026-08-21T20:28:05.000Z</time>
        <extensions>
          <ns3:TrackPointExtension>
            <ns3:hr>125</ns3:hr>
            <ns3:cad>62</ns3:cad>
          </ns3:TrackPointExtension>
        </extensions>
      </trkpt>
      <trkpt lat="45.3298076055943965911865234375" lon="-71.00345271639525890350341796875">
        <ele>675.20001220703125</ele>
        <time>2026-08-21T20:28:06.000Z</time>
        <extensions>
          <ns3:TrackPointExtension>
            <ns3:hr>124</ns3:hr>
            <ns3:cad>62</ns3:cad>
          </ns3:TrackPointExtension>
        </extensions>
      </trkpt>
      <trkpt lat="45.32979545183479785919189453125" lon="-71.00345942191779613494873046875">
        <ele>675.20001220703125</ele>
        <time>2026-08-21T20:28:07.000Z</time>
        <extensions>
          <ns3:TrackPointExtension>
            <ns3:hr>124</ns3:hr>
            <ns3:cad>62</ns3:cad>
          </ns3:TrackPointExtension>
        </extensions>
      </trkpt>
      <trkpt lat="45.3297816216945648193359375" lon="-71.00346059538424015045166015625">
        <ele>675</ele>
        <time>2026-08-21T20:28:08.000Z</time>
        <extensions>
          <ns3:TrackPointExtension>
            <ns3:hr>124</ns3:hr>
            <ns3:cad>62</ns3:cad>
          </ns3:TrackPointExtension>
        </extensions>
      </trkpt>
      <trkpt lat="45.3297697193920612335205078125" lon="-71.0034626908600330352783203125">
        <ele>675</ele>
        <time>2026-08-21T20:28:09.000Z</time>
        <extensions>
          <ns3:TrackPointExtension>
            <ns3:hr>125</ns3:hr>
            <ns3:cad>62</ns3:cad>
          </ns3:TrackPointExtension>
        </extensions>
      </trkpt>
      <trkpt lat="45.3297547996044158935546875" lon="-71.00346160121262073516845703125">
        <ele>674.79998779296875</ele>
        <time>2026-08-21T20:28:10.000Z</time>
        <extensions>
          <ns3:TrackPointExtension>
            <ns3:hr>126</ns3:hr>
            <ns3:cad>62</ns3:cad>
          </ns3:TrackPointExtension>
        </extensions>
      </trkpt>
      <trkpt lat="45.32973979599773883819580078125" lon="-71.00346042774617671966552734375">
        <ele>674.79998779296875</ele>
        <time>2026-08-21T20:28:11.000Z</time>
        <extensions>
          <ns3:TrackPointExtension>
            <ns3:hr>126</ns3:hr>
            <ns3:cad>62</ns3:cad>
          </ns3:TrackPointExtension>
        </extensions>
      </trkpt>
      <trkpt lat="45.32972403801977634429931640625" lon="-71.00346696563065052032470703125">
        <ele>674.5999755859375</ele>
        <time>2026-08-21T20:28:12.000Z</time>
        <extensions>
          <ns3:TrackPointExtension>
            <ns3:hr>126</ns3:hr>
            <ns3:cad>62</ns3:cad>
          </ns3:TrackPointExtension>
        </extensions>
      </trkpt>
      <trkpt lat="45.32971297390758991241455078125" lon="-71.00346847437322139739990234375">
        <ele>674.20001220703125</ele>
        <time>2026-08-21T20:28:13.000Z</time>
        <extensions>
          <ns3:TrackPointExtension>
            <ns3:hr>126</ns3:hr>
            <ns3:cad>62</ns3:cad>
          </ns3:TrackPointExtension>
        </extensions>
      </trkpt>
      <trkpt lat="45.32970056869089603424072265625" lon="-71.0034692287445068359375">
        <ele>674</ele>
        <time>2026-08-21T20:28:14.000Z</time>
        <extensions>
          <ns3:TrackPointExtension>
            <ns3:hr>126</ns3:hr>
            <ns3:cad>53</ns3:cad>
          </ns3:TrackPointExtension>
        </extensions>
      </trkpt>
      <trkpt lat="45.32968631945550441741943359375" lon="-71.00347132422029972076416015625">
        <ele>673.5999755859375</ele>
        <time>2026-08-21T20:28:15.000Z</time>
        <extensions>
          <ns3:TrackPointExtension>
            <ns3:hr>126</ns3:hr>
            <ns3:cad>53</ns3:cad>
          </ns3:TrackPointExtension>
        </extensions>
      </trkpt>
      <trkpt lat="45.3296711482107639312744140625" lon="-71.00347392261028289794921875">
        <ele>673.20001220703125</ele>
        <time>2026-08-21T20:28:16.000Z</time>
        <extensions>
          <ns3:TrackPointExtension>
            <ns3:hr>125</ns3:hr>
            <ns3:cad>53</ns3:cad>
          </ns3:TrackPointExtension>
        </extensions>
      </trkpt>
      <trkpt lat="45.3296563960611820220947265625" lon="-71.00347467698156833648681640625">
        <ele>672.79998779296875</ele>
        <time>2026-08-21T20:28:17.000Z</time>
        <extensions>
          <ns3:TrackPointExtension>
            <ns3:hr>124</ns3:hr>
            <ns3:cad>53</ns3:cad>
          </ns3:TrackPointExtension>
        </extensions>
      </trkpt>
      <trkpt lat="45.329643823206424713134765625" lon="-71.00347719155251979827880859375">
        <ele>672.4000244140625</ele>
        <time>2026-08-21T20:28:18.000Z</time>
        <extensions>
          <ns3:TrackPointExtension>
            <ns3:hr>123</ns3:hr>
            <ns3:cad>53</ns3:cad>
          </ns3:TrackPointExtension>
        </extensions>
      </trkpt>
      <trkpt lat="45.3296292386949062347412109375" lon="-71.00347995758056640625">
        <ele>672</ele>
        <time>2026-08-21T20:28:19.000Z</time>
        <extensions>
          <ns3:TrackPointExtension>
            <ns3:hr>123</ns3:hr>
            <ns3:cad>53</ns3:cad>
          </ns3:TrackPointExtension>
        </extensions>
      </trkpt>
      <trkpt lat="45.32961490564048290252685546875" lon="-71.0034814663231372833251953125">
        <ele>671.79998779296875</ele>
        <time>2026-08-21T20:28:20.000Z</time>
        <extensions>
          <ns3:TrackPointExtension>
            <ns3:hr>123</ns3:hr>
            <ns3:cad>53</ns3:cad>
          </ns3:TrackPointExtension>
        </extensions>
      </trkpt>
      <trkpt lat="45.32960115931928157806396484375" lon="-71.00348020903766155242919921875">
        <ele>671.4000244140625</ele>
        <time>2026-08-21T20:28:21.000Z</time>
        <extensions>
          <ns3:TrackPointExtension>
            <ns3:hr>123</ns3:hr>
            <ns3:cad>53</ns3:cad>
          </ns3:TrackPointExtension>
        </extensions>
      </trkpt>
      <trkpt lat="45.32958858646452426910400390625" lon="-71.0034945420920848846435546875">
        <ele>671.4000244140625</ele>
        <time>2026-08-21T20:28:22.000Z</time>
        <extensions>
          <ns3:TrackPointExtension>
            <ns3:hr>122</ns3:hr>
            <ns3:cad>53</ns3:cad>
          </ns3:TrackPointExtension>
        </extensions>
      </trkpt>
      <trkpt lat="45.32958003692328929901123046875" lon="-71.00349672138690948486328125">
        <ele>671.20001220703125</ele>
        <time>2026-08-21T20:28:23.000Z</time>
        <extensions>
          <ns3:TrackPointExtension>
            <ns3:hr>122</ns3:hr>
            <ns3:cad>53</ns3:cad>
          </ns3:TrackPointExtension>
        </extensions>
      </trkpt>
      <trkpt lat="45.3295678831636905670166015625" lon="-71.00349026732146739959716796875">
        <ele>671</ele>
        <time>2026-08-21T20:28:24.000Z</time>
        <extensions>
          <ns3:TrackPointExtension>
            <ns3:hr>122</ns3:hr>
            <ns3:cad>53</ns3:cad>
          </ns3:TrackPointExtension>
        </extensions>
      </trkpt>
      <trkpt lat="45.32955438829958438873291015625" lon="-71.00348892621695995330810546875">
        <ele>671</ele>
        <time>2026-08-21T20:28:25.000Z</time>
        <extensions>
          <ns3:TrackPointExtension>
            <ns3:hr>122</ns3:hr>
            <ns3:cad>53</ns3:cad>
          </ns3:TrackPointExtension>
        </extensions>
      </trkpt>
      <trkpt lat="45.32954156398773193359375" lon="-71.00348875857889652252197265625">
        <ele>670.79998779296875</ele>
        <time>2026-08-21T20:28:26.000Z</time>
        <extensions>
          <ns3:TrackPointExtension>
            <ns3:hr>122</ns3:hr>
            <ns3:cad>53</ns3:cad>
          </ns3:TrackPointExtension>
        </extensions>
      </trkpt>
      <trkpt lat="45.3295273147523403167724609375" lon="-71.0034898482263088226318359375">
        <ele>670.5999755859375</ele>
        <time>2026-08-21T20:28:27.000Z</time>
        <extensions>
          <ns3:TrackPointExtension>
            <ns3:hr>122</ns3:hr>
            <ns3:cad>53</ns3:cad>
          </ns3:TrackPointExtension>
        </extensions>
      </trkpt>
      <trkpt lat="45.32951273024082183837890625" lon="-71.003499738872051239013671875">
        <ele>670.5999755859375</ele>
        <time>2026-08-21T20:28:28.000Z</time>
        <extensions>
          <ns3:TrackPointExtension>
            <ns3:hr>122</ns3:hr>
            <ns3:cad>53</ns3:cad>
          </ns3:TrackPointExtension>
        </extensions>
      </trkpt>
      <trkpt lat="45.3295008279383182525634765625" lon="-71.00350342690944671630859375">
        <ele>670.4000244140625</ele>
        <time>2026-08-21T20:28:29.000Z</time>
        <extensions>
          <ns3:TrackPointExtension>
            <ns3:hr>122</ns3:hr>
            <ns3:cad>60</ns3:cad>
          </ns3:TrackPointExtension>
        </extensions>
      </trkpt>
      <trkpt lat="45.329488925635814666748046875" lon="-71.00350200198590755462646484375">
        <ele>670.20001220703125</ele>
        <time>2026-08-21T20:28:30.000Z</time>
        <extensions>
          <ns3:TrackPointExtension>
            <ns3:hr>122</ns3:hr>
            <ns3:cad>60</ns3:cad>
          </ns3:TrackPointExtension>
        </extensions>
      </trkpt>
      <trkpt lat="45.32947761006653308868408203125" lon="-71.00350233726203441619873046875">
        <ele>670.20001220703125</ele>
        <time>2026-08-21T20:28:31.000Z</time>
        <extensions>
          <ns3:TrackPointExtension>
            <ns3:hr>122</ns3:hr>
            <ns3:cad>60</ns3:cad>
          </ns3:TrackPointExtension>
        </extensions>
      </trkpt>
      <trkpt lat="45.32946201972663402557373046875" lon="-71.00349898450076580047607421875">
        <ele>670</ele>
        <time>2026-08-21T20:28:32.000Z</time>
        <extensions>
          <ns3:TrackPointExtension>
            <ns3:hr>121</ns3:hr>
            <ns3:cad>60</ns3:cad>
          </ns3:TrackPointExtension>
        </extensions>
      </trkpt>
      <trkpt lat="45.32944827340543270111083984375" lon="-71.003501415252685546875">
        <ele>669.79998779296875</ele>
        <time>2026-08-21T20:28:33.000Z</time>
        <extensions>
          <ns3:TrackPointExtension>
            <ns3:hr>122</ns3:hr>
            <ns3:cad>60</ns3:cad>
          </ns3:TrackPointExtension>
        </extensions>
      </trkpt>
      <trkpt lat="45.3294307552278041839599609375" lon="-71.00350149907171726226806640625">
        <ele>669.5999755859375</ele>
        <time>2026-08-21T20:28:34.000Z</time>
        <extensions>
          <ns3:TrackPointExtension>
            <ns3:hr>122</ns3:hr>
            <ns3:cad>0</ns3:cad>
          </ns3:TrackPointExtension>
        </extensions>
      </trkpt>
      <trkpt lat="45.3294143266975879669189453125" lon="-71.003505773842334747314453125">
        <ele>669.5999755859375</ele>
        <time>2026-08-21T20:28:35.000Z</time>
        <extensions>
          <ns3:TrackPointExtension>
            <ns3:hr>122</ns3:hr>
            <ns3:cad>0</ns3:cad>
          </ns3:TrackPointExtension>
        </extensions>
      </trkpt>
      <trkpt lat="45.3294002451002597808837890625" lon="-71.003508456051349639892578125">
        <ele>669.4000244140625</ele>
        <time>2026-08-21T20:28:36.000Z</time>
        <extensions>
          <ns3:TrackPointExtension>
            <ns3:hr>122</ns3:hr>
            <ns3:cad>0</ns3:cad>
          </ns3:TrackPointExtension>
        </extensions>
      </trkpt>
      <trkpt lat="45.32938859425485134124755859375" lon="-71.00350853987038135528564453125">
        <ele>669.20001220703125</ele>
        <time>2026-08-21T20:28:37.000Z</time>
        <extensions>
          <ns3:TrackPointExtension>
            <ns3:hr>122</ns3:hr>
            <ns3:cad>0</ns3:cad>
          </ns3:TrackPointExtension>
        </extensions>
      </trkpt>
      <trkpt lat="45.329375602304935455322265625" lon="-71.0035052709281444549560546875">
        <ele>669.20001220703125</ele>
        <time>2026-08-21T20:28:38.000Z</time>
        <extensions>
          <ns3:TrackPointExtension>
            <ns3:hr>122</ns3:hr>
            <ns3:cad>0</ns3:cad>
          </ns3:TrackPointExtension>
        </extensions>
      </trkpt>
      <trkpt lat="45.329366214573383331298828125" lon="-71.00349496118724346160888671875">
        <ele>669</ele>
        <time>2026-08-21T20:28:39.000Z</time>
        <extensions>
          <ns3:TrackPointExtension>
            <ns3:hr>122</ns3:hr>
            <ns3:cad>0</ns3:cad>
          </ns3:TrackPointExtension>
        </extensions>
      </trkpt>
      <trkpt lat="45.329353809356689453125" lon="-71.0034893453121185302734375">
        <ele>669</ele>
        <time>2026-08-21T20:28:40.000Z</time>
        <extensions>
          <ns3:TrackPointExtension>
            <ns3:hr>122</ns3:hr>
            <ns3:cad>0</ns3:cad>
          </ns3:TrackPointExtension>
        </extensions>
      </trkpt>
      <trkpt lat="45.32935045659542083740234375" lon="-71.003487668931484222412109375">
        <ele>668.79998779296875</ele>
        <time>2026-08-21T20:28:41.000Z</time>
        <extensions>
          <ns3:TrackPointExtension>
            <ns3:hr>122</ns3:hr>
            <ns3:cad>0</ns3:cad>
          </ns3:TrackPointExtension>
        </extensions>
      </trkpt>
      <trkpt lat="45.3293482773005962371826171875" lon="-71.0034804604947566986083984375">
        <ele>668.5999755859375</ele>
        <time>2026-08-21T20:28:42.000Z</time>
        <extensions>
          <ns3:TrackPointExtension>
            <ns3:hr>122</ns3:hr>
            <ns3:cad>0</ns3:cad>
          </ns3:TrackPointExtension>
        </extensions>
      </trkpt>
      <trkpt lat="45.32934232614934444427490234375" lon="-71.00347450934350490570068359375">
        <ele>668.4000244140625</ele>
        <time>2026-08-21T20:28:43.000Z</time>
        <extensions>
          <ns3:TrackPointExtension>
            <ns3:hr>122</ns3:hr>
            <ns3:cad>0</ns3:cad>
          </ns3:TrackPointExtension>
        </extensions>
      </trkpt>
      <trkpt lat="45.32933813519775867462158203125" lon="-71.00345917046070098876953125">
        <ele>668.20001220703125</ele>
        <time>2026-08-21T20:28:44.000Z</time>
        <extensions>
          <ns3:TrackPointExtension>
            <ns3:hr>122</ns3:hr>
            <ns3:cad>0</ns3:cad>
          </ns3:TrackPointExtension>
        </extensions>
      </trkpt>
      <trkpt lat="45.329329334199428558349609375" lon="-71.0034422390162944793701171875">
        <ele>667.79998779296875</ele>
        <time>2026-08-21T20:28:45.000Z</time>
        <extensions>
          <ns3:TrackPointExtension>
            <ns3:hr>121</ns3:hr>
            <ns3:cad>0</ns3:cad>
          </ns3:TrackPointExtension>
        </extensions>
      </trkpt>
      <trkpt lat="45.3293204493820667266845703125" lon="-71.00342589430510997772216796875">
        <ele>667.4000244140625</ele>
        <time>2026-08-21T20:28:46.000Z</time>
        <extensions>
          <ns3:TrackPointExtension>
            <ns3:hr>121</ns3:hr>
            <ns3:cad>0</ns3:cad>
          </ns3:TrackPointExtension>
        </extensions>
      </trkpt>
      <trkpt lat="45.32930829562246799468994140625" lon="-71.003417260944843292236328125">
        <ele>667</ele>
        <time>2026-08-21T20:28:47.000Z</time>
        <extensions>
          <ns3:TrackPointExtension>
            <ns3:hr>120</ns3:hr>
            <ns3:cad>0</ns3:cad>
          </ns3:TrackPointExtension>
        </extensions>
      </trkpt>
      <trkpt lat="45.3292934596538543701171875" lon="-71.0034127347171306610107421875">
        <ele>666.5999755859375</ele>
        <time>2026-08-21T20:28:48.000Z</time>
        <extensions>
          <ns3:TrackPointExtension>
            <ns3:hr>120</ns3:hr>
            <ns3:cad>56</ns3:cad>
          </ns3:TrackPointExtension>
        </extensions>
      </trkpt>
      <trkpt lat="45.32927845604717731475830078125" lon="-71.003403179347515106201171875">
        <ele>666.4000244140625</ele>
        <time>2026-08-21T20:28:49.000Z</time>
        <extensions>
          <ns3:TrackPointExtension>
            <ns3:hr>120</ns3:hr>
            <ns3:cad>56</ns3:cad>
          </ns3:TrackPointExtension>
        </extensions>
      </trkpt>
      <trkpt lat="45.32926571555435657501220703125" lon="-71.0033983178436756134033203125">
        <ele>666.20001220703125</ele>
        <time>2026-08-21T20:28:50.000Z</time>
        <extensions>
          <ns3:TrackPointExtension>
            <ns3:hr>120</ns3:hr>
            <ns3:cad>56</ns3:cad>
          </ns3:TrackPointExtension>
        </extensions>
      </trkpt>
      <trkpt lat="45.32924585044384002685546875" lon="-71.0033879242837429046630859375">
        <ele>666</ele>
        <time>2026-08-21T20:28:51.000Z</time>
        <extensions>
          <ns3:TrackPointExtension>
            <ns3:hr>120</ns3:hr>
            <ns3:cad>41</ns3:cad>
          </ns3:TrackPointExtension>
        </extensions>
      </trkpt>
      <trkpt lat="45.32923520542681217193603515625" lon="-71.003387756645679473876953125">
        <ele>665.5999755859375</ele>
        <time>2026-08-21T20:28:52.000Z</time>
        <extensions>
          <ns3:TrackPointExtension>
            <ns3:hr>120</ns3:hr>
            <ns3:cad>41</ns3:cad>
          </ns3:TrackPointExtension>
        </extensions>
      </trkpt>
      <trkpt lat="45.3292212076485157012939453125" lon="-71.0033875890076160430908203125">
        <ele>665.4000244140625</ele>
        <time>2026-08-21T20:28:53.000Z</time>
        <extensions>
          <ns3:TrackPointExtension>
            <ns3:hr>119</ns3:hr>
            <ns3:cad>41</ns3:cad>
          </ns3:TrackPointExtension>
        </extensions>
      </trkpt>
      <trkpt lat="45.32921575941145420074462890625" lon="-71.00338138639926910400390625">
        <ele>665</ele>
        <time>2026-08-21T20:28:54.000Z</time>
        <extensions>
          <ns3:TrackPointExtension>
            <ns3:hr>119</ns3:hr>
            <ns3:cad>41</ns3:cad>
          </ns3:TrackPointExtension>
        </extensions>
      </trkpt>
      <trkpt lat="45.32920218072831630706787109375" lon="-71.0033735074102878570556640625">
        <ele>664.5999755859375</ele>
        <time>2026-08-21T20:28:55.000Z</time>
        <extensions>
          <ns3:TrackPointExtension>
            <ns3:hr>120</ns3:hr>
            <ns3:cad>41</ns3:cad>
          </ns3:TrackPointExtension>
        </extensions>
      </trkpt>
      <trkpt lat="45.329189859330654144287109375" lon="-71.00336755625903606414794921875">
        <ele>664</ele>
        <time>2026-08-21T20:28:56.000Z</time>
        <extensions>
          <ns3:TrackPointExtension>
            <ns3:hr>120</ns3:hr>
            <ns3:cad>41</ns3:cad>
          </ns3:TrackPointExtension>
        </extensions>
      </trkpt>
      <trkpt lat="45.329181812703609466552734375" lon="-71.0033624432981014251708984375">
        <ele>663.5999755859375</ele>
        <time>2026-08-21T20:28:57.000Z</time>
        <extensions>
          <ns3:TrackPointExtension>
            <ns3:hr>120</ns3:hr>
            <ns3:cad>41</ns3:cad>
          </ns3:TrackPointExtension>
        </extensions>
      </trkpt>
      <trkpt lat="45.32917016185820102691650390625" lon="-71.0033540613949298858642578125">
        <ele>663</ele>
        <time>2026-08-21T20:28:58.000Z</time>
        <extensions>
          <ns3:TrackPointExtension>
            <ns3:hr>120</ns3:hr>
            <ns3:cad>77</ns3:cad>
          </ns3:TrackPointExtension>
        </extensions>
      </trkpt>
      <trkpt lat="45.32915842719376087188720703125" lon="-71.0033483617007732391357421875">
        <ele>662.4000244140625</ele>
        <time>2026-08-21T20:28:59.000Z</time>
        <extensions>
          <ns3:TrackPointExtension>
            <ns3:hr>120</ns3:hr>
            <ns3:cad>77</ns3:cad>
          </ns3:TrackPointExtension>
        </extensions>
      </trkpt>
      <trkpt lat="45.32914820127189159393310546875" lon="-71.0033476911485195159912109375">
        <ele>662</ele>
        <time>2026-08-21T20:29:00.000Z</time>
        <extensions>
          <ns3:TrackPointExtension>
            <ns3:hr>120</ns3:hr>
            <ns3:cad>64</ns3:cad>
          </ns3:TrackPointExtension>
        </extensions>
      </trkpt>
      <trkpt lat="45.32914258539676666259765625" lon="-71.00334257818758487701416015625">
        <ele>661.4000244140625</ele>
        <time>2026-08-21T20:29:01.000Z</time>
        <extensions>
          <ns3:TrackPointExtension>
            <ns3:hr>120</ns3:hr>
            <ns3:cad>64</ns3:cad>
          </ns3:TrackPointExtension>
        </extensions>
      </trkpt>
      <trkpt lat="45.32912892289459705352783203125" lon="-71.00334559567272663116455078125">
        <ele>660.79998779296875</ele>
        <time>2026-08-21T20:29:02.000Z</time>
        <extensions>
          <ns3:TrackPointExtension>
            <ns3:hr>120</ns3:hr>
            <ns3:cad>64</ns3:cad>
          </ns3:TrackPointExtension>
        </extensions>
      </trkpt>
      <trkpt lat="45.32911534421145915985107421875" lon="-71.00334919989109039306640625">
        <ele>660.20001220703125</ele>
        <time>2026-08-21T20:29:03.000Z</time>
        <extensions>
          <ns3:TrackPointExtension>
            <ns3:hr>119</ns3:hr>
            <ns3:cad>64</ns3:cad>
          </ns3:TrackPointExtension>
        </extensions>
      </trkpt>
      <trkpt lat="45.329099334776401519775390625" lon="-71.00334827788174152374267578125">
        <ele>659.5999755859375</ele>
        <time>2026-08-21T20:29:04.000Z</time>
        <extensions>
          <ns3:TrackPointExtension>
            <ns3:hr>120</ns3:hr>
            <ns3:cad>64</ns3:cad>
          </ns3:TrackPointExtension>
        </extensions>
      </trkpt>
      <trkpt lat="45.32908785156905651092529296875" lon="-71.0033470205962657928466796875">
        <ele>659</ele>
        <time>2026-08-21T20:29:05.000Z</time>
        <extensions>
          <ns3:TrackPointExtension>
            <ns3:hr>120</ns3:hr>
            <ns3:cad>64</ns3:cad>
          </ns3:TrackPointExtension>
        </extensions>
      </trkpt>
      <trkpt lat="45.329077206552028656005859375" lon="-71.00333369337022304534912109375">
        <ele>658.20001220703125</ele>
        <time>2026-08-21T20:29:06.000Z</time>
        <extensions>
          <ns3:TrackPointExtension>
            <ns3:hr>120</ns3:hr>
            <ns3:cad>64</ns3:cad>
          </ns3:TrackPointExtension>
        </extensions>
      </trkpt>
      <trkpt lat="45.32906689681112766265869140625" lon="-71.00332438945770263671875">
        <ele>657.79998779296875</ele>
        <time>2026-08-21T20:29:07.000Z</time>
        <extensions>
          <ns3:TrackPointExtension>
            <ns3:hr>120</ns3:hr>
            <ns3:cad>64</ns3:cad>
          </ns3:TrackPointExtension>
        </extensions>
      </trkpt>
      <trkpt lat="45.32905499450862407684326171875" lon="-71.003309972584247589111328125">
        <ele>657.20001220703125</ele>
        <time>2026-08-21T20:29:08.000Z</time>
        <extensions>
          <ns3:TrackPointExtension>
            <ns3:hr>121</ns3:hr>
            <ns3:cad>64</ns3:cad>
          </ns3:TrackPointExtension>
        </extensions>
      </trkpt>
      <trkpt lat="45.3290421701967716217041015625" lon="-71.00330100394785404205322265625">
        <ele>656.5999755859375</ele>
        <time>2026-08-21T20:29:09.000Z</time>
        <extensions>
          <ns3:TrackPointExtension>
            <ns3:hr>122</ns3:hr>
            <ns3:cad>64</ns3:cad>
          </ns3:TrackPointExtension>
        </extensions>
      </trkpt>
      <trkpt lat="45.3290317766368389129638671875" lon="-71.00330301560461521148681640625">
        <ele>656.20001220703125</ele>
        <time>2026-08-21T20:29:10.000Z</time>
        <extensions>
          <ns3:TrackPointExtension>
            <ns3:hr>123</ns3:hr>
            <ns3:cad>41</ns3:cad>
          </ns3:TrackPointExtension>
        </extensions>
      </trkpt>
      <trkpt lat="45.329025574028491973876953125" lon="-71.00330603308975696563720703125">
        <ele>655.5999755859375</ele>
        <time>2026-08-21T20:29:11.000Z</time>
        <extensions>
          <ns3:TrackPointExtension>
            <ns3:hr>124</ns3:hr>
            <ns3:cad>41</ns3:cad>
          </ns3:TrackPointExtension>
        </extensions>
      </trkpt>
      <trkpt lat="45.3290183655917644500732421875" lon="-71.00330293178558349609375">
        <ele>655.20001220703125</ele>
        <time>2026-08-21T20:29:12.000Z</time>
        <extensions>
          <ns3:TrackPointExtension>
            <ns3:hr>125</ns3:hr>
            <ns3:cad>41</ns3:cad>
          </ns3:TrackPointExtension>
        </extensions>
      </trkpt>
      <trkpt lat="45.3290064632892608642578125" lon="-71.00329161621630191802978515625">
        <ele>654.5999755859375</ele>
        <time>2026-08-21T20:29:13.000Z</time>
        <extensions>
          <ns3:TrackPointExtension>
            <ns3:hr>124</ns3:hr>
            <ns3:cad>41</ns3:cad>
          </ns3:TrackPointExtension>
        </extensions>
      </trkpt>
      <trkpt lat="45.329000093042850494384765625" lon="-71.0032893531024456024169921875">
        <ele>654.20001220703125</ele>
        <time>2026-08-21T20:29:14.000Z</time>
        <extensions>
          <ns3:TrackPointExtension>
            <ns3:hr>124</ns3:hr>
            <ns3:cad>41</ns3:cad>
          </ns3:TrackPointExtension>
        </extensions>
      </trkpt>
      <trkpt lat="45.32899430952966213226318359375" lon="-71.0032873414456844329833984375">
        <ele>653.79998779296875</ele>
        <time>2026-08-21T20:29:15.000Z</time>
        <extensions>
          <ns3:TrackPointExtension>
            <ns3:hr>125</ns3:hr>
            <ns3:cad>41</ns3:cad>
          </ns3:TrackPointExtension>
        </extensions>
      </trkpt>
      <trkpt lat="45.32899078913033008575439453125" lon="-71.0032689012587070465087890625">
        <ele>653.20001220703125</ele>
        <time>2026-08-21T20:29:16.000Z</time>
        <extensions>
          <ns3:TrackPointExtension>
            <ns3:hr>125</ns3:hr>
            <ns3:cad>41</ns3:cad>
          </ns3:TrackPointExtension>
        </extensions>
      </trkpt>
      <trkpt lat="45.328984670341014862060546875" lon="-71.00325741805136203765869140625">
        <ele>652.79998779296875</ele>
        <time>2026-08-21T20:29:17.000Z</time>
        <extensions>
          <ns3:TrackPointExtension>
            <ns3:hr>126</ns3:hr>
            <ns3:cad>0</ns3:cad>
          </ns3:TrackPointExtension>
        </extensions>
      </trkpt>
      <trkpt lat="45.32898156903684139251708984375" lon="-71.00325104780495166778564453125">
        <ele>652.4000244140625</ele>
        <time>2026-08-21T20:29:18.000Z</time>
        <extensions>
          <ns3:TrackPointExtension>
            <ns3:hr>126</ns3:hr>
            <ns3:cad>0</ns3:cad>
          </ns3:TrackPointExtension>
        </extensions>
      </trkpt>
      <trkpt lat="45.32897687517106533050537109375" lon="-71.003239564597606658935546875">
        <ele>651.79998779296875</ele>
        <time>2026-08-21T20:29:19.000Z</time>
        <extensions>
          <ns3:TrackPointExtension>
            <ns3:hr>126</ns3:hr>
            <ns3:cad>0</ns3:cad>
          </ns3:TrackPointExtension>
        </extensions>
      </trkpt>
      <trkpt lat="45.32896715216338634490966796875" lon="-71.00321701727807521820068359375">
        <ele>651</ele>
        <time>2026-08-21T20:29:20.000Z</time>
        <extensions>
          <ns3:TrackPointExtension>
            <ns3:hr>126</ns3:hr>
            <ns3:cad>0</ns3:cad>
          </ns3:TrackPointExtension>
        </extensions>
      </trkpt>
      <trkpt lat="45.32895726151764392852783203125" lon="-71.00320494733750820159912109375">
        <ele>650.4000244140625</ele>
        <time>2026-08-21T20:29:21.000Z</time>
        <extensions>
          <ns3:TrackPointExtension>
            <ns3:hr>126</ns3:hr>
            <ns3:cad>0</ns3:cad>
          </ns3:TrackPointExtension>
        </extensions>
      </trkpt>
      <trkpt lat="45.3289429284632205963134765625" lon="-71.00319807417690753936767578125">
        <ele>649.79998779296875</ele>
        <time>2026-08-21T20:29:22.000Z</time>
        <extensions>
          <ns3:TrackPointExtension>
            <ns3:hr>126</ns3:hr>
            <ns3:cad>0</ns3:cad>
          </ns3:TrackPointExtension>
        </extensions>
      </trkpt>
      <trkpt lat="45.3289301879703998565673828125" lon="-71.0031954757869243621826171875">
        <ele>649.20001220703125</ele>
        <time>2026-08-21T20:29:23.000Z</time>
        <extensions>
          <ns3:TrackPointExtension>
            <ns3:hr>125</ns3:hr>
            <ns3:cad>0</ns3:cad>
          </ns3:TrackPointExtension>
        </extensions>
      </trkpt>
      <trkpt lat="45.3289191238582134246826171875" lon="-71.00319421850144863128662109375">
        <ele>648.5999755859375</ele>
        <time>2026-08-21T20:29:24.000Z</time>
        <extensions>
          <ns3:TrackPointExtension>
            <ns3:hr>125</ns3:hr>
            <ns3:cad>0</ns3:cad>
          </ns3:TrackPointExtension>
        </extensions>
      </trkpt>
      <trkpt lat="45.328905545175075531005859375" lon="-71.0031914524734020233154296875">
        <ele>648.20001220703125</ele>
        <time>2026-08-21T20:29:25.000Z</time>
        <extensions>
          <ns3:TrackPointExtension>
            <ns3:hr>125</ns3:hr>
            <ns3:cad>0</ns3:cad>
          </ns3:TrackPointExtension>
        </extensions>
      </trkpt>
      <trkpt lat="45.3288953192532062530517578125" lon="-71.00318684242665767669677734375">
        <ele>647.79998779296875</ele>
        <time>2026-08-21T20:29:26.000Z</time>
        <extensions>
          <ns3:TrackPointExtension>
            <ns3:hr>125</ns3:hr>
            <ns3:cad>0</ns3:cad>
          </ns3:TrackPointExtension>
        </extensions>
      </trkpt>
      <trkpt lat="45.32889104448258876800537109375" lon="-71.00319053046405315399169921875">
        <ele>647.4000244140625</ele>
        <time>2026-08-21T20:29:27.000Z</time>
        <extensions>
          <ns3:TrackPointExtension>
            <ns3:hr>125</ns3:hr>
            <ns3:cad>53</ns3:cad>
          </ns3:TrackPointExtension>
        </extensions>
      </trkpt>
      <trkpt lat="45.3288882784545421600341796875" lon="-71.00319564342498779296875">
        <ele>647</ele>
        <time>2026-08-21T20:29:28.000Z</time>
        <extensions>
          <ns3:TrackPointExtension>
            <ns3:hr>125</ns3:hr>
            <ns3:cad>53</ns3:cad>
          </ns3:TrackPointExtension>
        </extensions>
      </trkpt>
      <trkpt lat="45.328879058361053466796875" lon="-71.00319631397724151611328125">
        <ele>646.5999755859375</ele>
        <time>2026-08-21T20:29:29.000Z</time>
        <extensions>
          <ns3:TrackPointExtension>
            <ns3:hr>126</ns3:hr>
            <ns3:cad>53</ns3:cad>
          </ns3:TrackPointExtension>
        </extensions>
      </trkpt>
      <trkpt lat="45.3288678266108036041259765625" lon="-71.0032082162797451019287109375">
        <ele>646.4000244140625</ele>
        <time>2026-08-21T20:29:30.000Z</time>
        <extensions>
          <ns3:TrackPointExtension>
            <ns3:hr>127</ns3:hr>
            <ns3:cad>0</ns3:cad>
          </ns3:TrackPointExtension>
        </extensions>
      </trkpt>
      <trkpt lat="45.328857600688934326171875" lon="-71.00322422571480274200439453125">
        <ele>646.20001220703125</ele>
        <time>2026-08-21T20:29:31.000Z</time>
        <extensions>
          <ns3:TrackPointExtension>
            <ns3:hr>127</ns3:hr>
            <ns3:cad>0</ns3:cad>
          </ns3:TrackPointExtension>
        </extensions>
      </trkpt>
      <trkpt lat="45.32884812913835048675537109375" lon="-71.0032425820827484130859375">
        <ele>646</ele>
        <time>2026-08-21T20:29:32.000Z</time>
        <extensions>
          <ns3:TrackPointExtension>
            <ns3:hr>128</ns3:hr>
            <ns3:cad>68</ns3:cad>
          </ns3:TrackPointExtension>
        </extensions>
      </trkpt>
      <trkpt lat="45.32884058542549610137939453125" lon="-71.00325540639460086822509765625">
        <ele>645.79998779296875</ele>
        <time>2026-08-21T20:29:33.000Z</time>
        <extensions>
          <ns3:TrackPointExtension>
            <ns3:hr>128</ns3:hr>
            <ns3:cad>68</ns3:cad>
          </ns3:TrackPointExtension>
        </extensions>
      </trkpt>
      <trkpt lat="45.32882876694202423095703125" lon="-71.00326378829777240753173828125">
        <ele>645.5999755859375</ele>
        <time>2026-08-21T20:29:34.000Z</time>
        <extensions>
          <ns3:TrackPointExtension>
            <ns3:hr>128</ns3:hr>
            <ns3:cad>68</ns3:cad>
          </ns3:TrackPointExtension>
        </extensions>
      </trkpt>
      <trkpt lat="45.32881535589694976806640625" lon="-71.003284491598606109619140625">
        <ele>645.4000244140625</ele>
        <time>2026-08-21T20:29:35.000Z</time>
        <extensions>
          <ns3:TrackPointExtension>
            <ns3:hr>127</ns3:hr>
            <ns3:cad>68</ns3:cad>
          </ns3:TrackPointExtension>
        </extensions>
      </trkpt>
      <trkpt lat="45.3288079798221588134765625" lon="-71.003305613994598388671875">
        <ele>645.20001220703125</ele>
        <time>2026-08-21T20:29:36.000Z</time>
        <extensions>
          <ns3:TrackPointExtension>
            <ns3:hr>127</ns3:hr>
            <ns3:cad>68</ns3:cad>
          </ns3:TrackPointExtension>
        </extensions>
      </trkpt>
      <trkpt lat="45.328807644546031951904296875" lon="-71.00332816131412982940673828125">
        <ele>645</ele>
        <time>2026-08-21T20:29:37.000Z</time>
        <extensions>
          <ns3:TrackPointExtension>
            <ns3:hr>127</ns3:hr>
            <ns3:cad>68</ns3:cad>
          </ns3:TrackPointExtension>
        </extensions>
      </trkpt>
      <trkpt lat="45.328808985650539398193359375" lon="-71.003343500196933746337890625">
        <ele>645</ele>
        <time>2026-08-21T20:29:38.000Z</time>
        <extensions>
          <ns3:TrackPointExtension>
            <ns3:hr>127</ns3:hr>
            <ns3:cad>68</ns3:cad>
          </ns3:TrackPointExtension>
        </extensions>
      </trkpt>
      <trkpt lat="45.32880730926990509033203125" lon="-71.0033590905368328094482421875">
        <ele>645</ele>
        <time>2026-08-21T20:29:39.000Z</time>
        <extensions>
          <ns3:TrackPointExtension>
            <ns3:hr>127</ns3:hr>
            <ns3:cad>68</ns3:cad>
          </ns3:TrackPointExtension>
        </extensions>
      </trkpt>
      <trkpt lat="45.32880865037441253662109375" lon="-71.00337996147572994232177734375">
        <ele>645</ele>
        <time>2026-08-21T20:29:40.000Z</time>
        <extensions>
          <ns3:TrackPointExtension>
            <ns3:hr>126</ns3:hr>
            <ns3:cad>68</ns3:cad>
          </ns3:TrackPointExtension>
        </extensions>
      </trkpt>
      <trkpt lat="45.328804291784763336181640625" lon="-71.00339320488274097442626953125">
        <ele>645.20001220703125</ele>
        <time>2026-08-21T20:29:41.000Z</time>
        <extensions>
          <ns3:TrackPointExtension>
            <ns3:hr>126</ns3:hr>
            <ns3:cad>68</ns3:cad>
          </ns3:TrackPointExtension>
        </extensions>
      </trkpt>
      <trkpt lat="45.3287937305867671966552734375" lon="-71.0034008324146270751953125">
        <ele>645</ele>
        <time>2026-08-21T20:29:42.000Z</time>
        <extensions>
          <ns3:TrackPointExtension>
            <ns3:hr>126</ns3:hr>
            <ns3:cad>0</ns3:cad>
          </ns3:TrackPointExtension>
        </extensions>
      </trkpt>
      <trkpt lat="45.3287850134074687957763671875" lon="-71.003403179347515106201171875">
        <ele>645</ele>
        <time>2026-08-21T20:29:43.000Z</time>
        <extensions>
          <ns3:TrackPointExtension>
            <ns3:hr>126</ns3:hr>
            <ns3:cad>0</ns3:cad>
          </ns3:TrackPointExtension>
        </extensions>
      </trkpt>
      <trkpt lat="45.3287746198475360870361328125" lon="-71.00340745411813259124755859375">
        <ele>644.79998779296875</ele>
        <time>2026-08-21T20:29:44.000Z</time>
        <extensions>
          <ns3:TrackPointExtension>
            <ns3:hr>126</ns3:hr>
            <ns3:cad>0</ns3:cad>
          </ns3:TrackPointExtension>
        </extensions>
      </trkpt>
      <trkpt lat="45.3287685848772525787353515625" lon="-71.003423631191253662109375">
        <ele>644.5999755859375</ele>
        <time>2026-08-21T20:29:45.000Z</time>
        <extensions>
          <ns3:TrackPointExtension>
            <ns3:hr>126</ns3:hr>
            <ns3:cad>0</ns3:cad>
          </ns3:TrackPointExtension>
        </extensions>
      </trkpt>
      <trkpt lat="45.3287726081907749176025390625" lon="-71.00344886071979999542236328125">
        <ele>644.4000244140625</ele>
        <time>2026-08-21T20:29:46.000Z</time>
        <extensions>
          <ns3:TrackPointExtension>
            <ns3:hr>126</ns3:hr>
            <ns3:cad>0</ns3:cad>
          </ns3:TrackPointExtension>
        </extensions>
      </trkpt>
      <trkpt lat="45.32877319492399692535400390625" lon="-71.0034794546663761138916015625">
        <ele>644.4000244140625</ele>
        <time>2026-08-21T20:29:47.000Z</time>
        <extensions>
          <ns3:TrackPointExtension>
            <ns3:hr>126</ns3:hr>
            <ns3:cad>0</ns3:cad>
          </ns3:TrackPointExtension>
        </extensions>
      </trkpt>
      <trkpt lat="45.3287729434669017791748046875" lon="-71.0035139881074428558349609375">
        <ele>644.20001220703125</ele>
        <time>2026-08-21T20:29:48.000Z</time>
        <extensions>
          <ns3:TrackPointExtension>
            <ns3:hr>126</ns3:hr>
            <ns3:cad>0</ns3:cad>
          </ns3:TrackPointExtension>
        </extensions>
      </trkpt>
      <trkpt lat="45.3287762962281703948974609375" lon="-71.00354257039725780487060546875">
        <ele>644.20001220703125</ele>
        <time>2026-08-21T20:29:49.000Z</time>
        <extensions>
          <ns3:TrackPointExtension>
            <ns3:hr>126</ns3:hr>
            <ns3:cad>0</ns3:cad>
          </ns3:TrackPointExtension>
        </extensions>
      </trkpt>
      <trkpt lat="45.328781493008136749267578125" lon="-71.00357056595385074615478515625">
        <ele>644.4000244140625</ele>
        <time>2026-08-21T20:29:50.000Z</time>
        <extensions>
          <ns3:TrackPointExtension>
            <ns3:hr>126</ns3:hr>
            <ns3:cad>0</ns3:cad>
          </ns3:TrackPointExtension>
        </extensions>
      </trkpt>
      <trkpt lat="45.32877914607524871826171875" lon="-71.003598980605602264404296875">
        <ele>644.4000244140625</ele>
        <time>2026-08-21T20:29:51.000Z</time>
        <extensions>
          <ns3:TrackPointExtension>
            <ns3:hr>126</ns3:hr>
            <ns3:cad>79</ns3:cad>
          </ns3:TrackPointExtension>
        </extensions>
      </trkpt>
      <trkpt lat="45.3287757933139801025390625" lon="-71.0036279819905757904052734375">
        <ele>644.4000244140625</ele>
        <time>2026-08-21T20:29:52.000Z</time>
        <extensions>
          <ns3:TrackPointExtension>
            <ns3:hr>126</ns3:hr>
            <ns3:cad>79</ns3:cad>
          </ns3:TrackPointExtension>
        </extensions>
      </trkpt>
      <trkpt lat="45.328769423067569732666015625" lon="-71.0036537982523441314697265625">
        <ele>644.4000244140625</ele>
        <time>2026-08-21T20:29:53.000Z</time>
        <extensions>
          <ns3:TrackPointExtension>
            <ns3:hr>127</ns3:hr>
            <ns3:cad>79</ns3:cad>
          </ns3:TrackPointExtension>
        </extensions>
      </trkpt>
      <trkpt lat="45.32876296900212764739990234375" lon="-71.0036717355251312255859375">
        <ele>644.4000244140625</ele>
        <time>2026-08-21T20:29:54.000Z</time>
        <extensions>
          <ns3:TrackPointExtension>
            <ns3:hr>127</ns3:hr>
            <ns3:cad>79</ns3:cad>
          </ns3:TrackPointExtension>
        </extensions>
      </trkpt>
      <trkpt lat="45.32875793986022472381591796875" lon="-71.00369931198656558990478515625">
        <ele>644.20001220703125</ele>
        <time>2026-08-21T20:29:55.000Z</time>
        <extensions>
          <ns3:TrackPointExtension>
            <ns3:hr>127</ns3:hr>
            <ns3:cad>79</ns3:cad>
          </ns3:TrackPointExtension>
        </extensions>
      </trkpt>
      <trkpt lat="45.3287602029740810394287109375" lon="-71.00372864864766597747802734375">
        <ele>644</ele>
        <time>2026-08-21T20:29:56.000Z</time>
        <extensions>
          <ns3:TrackPointExtension>
            <ns3:hr>127</ns3:hr>
            <ns3:cad>79</ns3:cad>
          </ns3:TrackPointExtension>
        </extensions>
      </trkpt>
      <trkpt lat="45.32876481302082538604736328125" lon="-71.0037617571651935577392578125">
        <ele>643.79998779296875</ele>
        <time>2026-08-21T20:29:57.000Z</time>
        <extensions>
          <ns3:TrackPointExtension>
            <ns3:hr>127</ns3:hr>
            <ns3:cad>79</ns3:cad>
          </ns3:TrackPointExtension>
        </extensions>
      </trkpt>
      <trkpt lat="45.32876431010663509368896484375" lon="-71.00378396920859813690185546875">
        <ele>643.79998779296875</ele>
        <time>2026-08-21T20:29:58.000Z</time>
        <extensions>
          <ns3:TrackPointExtension>
            <ns3:hr>127</ns3:hr>
            <ns3:cad>79</ns3:cad>
          </ns3:TrackPointExtension>
        </extensions>
      </trkpt>
      <trkpt lat="45.32876037061214447021484375" lon="-71.00380626507103443145751953125">
        <ele>643.5999755859375</ele>
        <time>2026-08-21T20:29:59.000Z</time>
        <extensions>
          <ns3:TrackPointExtension>
            <ns3:hr>127</ns3:hr>
            <ns3:cad>68</ns3:cad>
          </ns3:TrackPointExtension>
        </extensions>
      </trkpt>
      <trkpt lat="45.32876078970730304718017578125" lon="-71.00383308716118335723876953125">
        <ele>643.5999755859375</ele>
        <time>2026-08-21T20:30:00.000Z</time>
        <extensions>
          <ns3:TrackPointExtension>
            <ns3:hr>127</ns3:hr>
            <ns3:cad>68</ns3:cad>
          </ns3:TrackPointExtension>
        </extensions>
      </trkpt>
      <trkpt lat="45.32876363955438137054443359375" lon="-71.00385186262428760528564453125">
        <ele>643.5999755859375</ele>
        <time>2026-08-21T20:30:01.000Z</time>
        <extensions>
          <ns3:TrackPointExtension>
            <ns3:hr>128</ns3:hr>
            <ns3:cad>72</ns3:cad>
          </ns3:TrackPointExtension>
        </extensions>
      </trkpt>
      <trkpt lat="45.3287655673921108245849609375" lon="-71.00387357175350189208984375">
        <ele>643.79998779296875</ele>
        <time>2026-08-21T20:30:02.000Z</time>
        <extensions>
          <ns3:TrackPointExtension>
            <ns3:hr>128</ns3:hr>
            <ns3:cad>72</ns3:cad>
          </ns3:TrackPointExtension>
        </extensions>
      </trkpt>
      <trkpt lat="45.3287612088024616241455078125" lon="-71.00388832390308380126953125">
        <ele>643.79998779296875</ele>
        <time>2026-08-21T20:30:03.000Z</time>
        <extensions>
          <ns3:TrackPointExtension>
            <ns3:hr>128</ns3:hr>
            <ns3:cad>72</ns3:cad>
          </ns3:TrackPointExtension>
        </extensions>
      </trkpt>
      <trkpt lat="45.32875509001314640045166015625" lon="-71.0039035789668560028076171875">
        <ele>644</ele>
        <time>2026-08-21T20:30:04.000Z</time>
        <extensions>
          <ns3:TrackPointExtension>
            <ns3:hr>128</ns3:hr>
            <ns3:cad>72</ns3:cad>
          </ns3:TrackPointExtension>
        </extensions>
      </trkpt>
      <trkpt lat="45.32874771393835544586181640625" lon="-71.00391958840191364288330078125">
        <ele>644</ele>
        <time>2026-08-21T20:30:05.000Z</time>
        <extensions>
          <ns3:TrackPointExtension>
            <ns3:hr>128</ns3:hr>
            <ns3:cad>72</ns3:cad>
          </ns3:TrackPointExtension>
        </extensions>
      </trkpt>
      <trkpt lat="45.32874218188226222991943359375" lon="-71.0039387829601764678955078125">
        <ele>643.79998779296875</ele>
        <time>2026-08-21T20:30:06.000Z</time>
        <extensions>
          <ns3:TrackPointExtension>
            <ns3:hr>129</ns3:hr>
            <ns3:cad>72</ns3:cad>
          </ns3:TrackPointExtension>
        </extensions>
      </trkpt>
      <trkpt lat="45.32873631455004215240478515625" lon="-71.00395412184298038482666015625">
        <ele>643.79998779296875</ele>
        <time>2026-08-21T20:30:07.000Z</time>
        <extensions>
          <ns3:TrackPointExtension>
            <ns3:hr>129</ns3:hr>
            <ns3:cad>72</ns3:cad>
          </ns3:TrackPointExtension>
        </extensions>
      </trkpt>
      <trkpt lat="45.3287330456078052520751953125" lon="-71.00397457368671894073486328125">
        <ele>643.79998779296875</ele>
        <time>2026-08-21T20:30:08.000Z</time>
        <extensions>
          <ns3:TrackPointExtension>
            <ns3:hr>129</ns3:hr>
            <ns3:cad>72</ns3:cad>
          </ns3:TrackPointExtension>
        </extensions>
      </trkpt>
      <trkpt lat="45.32872843556106090545654296875" lon="-71.0039934329688549041748046875">
        <ele>643.79998779296875</ele>
        <time>2026-08-21T20:30:09.000Z</time>
        <extensions>
          <ns3:TrackPointExtension>
            <ns3:hr>129</ns3:hr>
            <ns3:cad>72</ns3:cad>
          </ns3:TrackPointExtension>
        </extensions>
      </trkpt>
      <trkpt lat="45.32872307114303112030029296875" lon="-71.00400810129940509796142578125">
        <ele>643.79998779296875</ele>
        <time>2026-08-21T20:30:10.000Z</time>
        <extensions>
          <ns3:TrackPointExtension>
            <ns3:hr>129</ns3:hr>
            <ns3:cad>72</ns3:cad>
          </ns3:TrackPointExtension>
        </extensions>
      </trkpt>
      <trkpt lat="45.3287152759730815887451171875" lon="-71.004008352756500244140625">
        <ele>643.79998779296875</ele>
        <time>2026-08-21T20:30:11.000Z</time>
        <extensions>
          <ns3:TrackPointExtension>
            <ns3:hr>130</ns3:hr>
            <ns3:cad>72</ns3:cad>
          </ns3:TrackPointExtension>
        </extensions>
      </trkpt>
      <trkpt lat="45.328708402812480926513671875" lon="-71.0040065087378025054931640625">
        <ele>643.79998779296875</ele>
        <time>2026-08-21T20:30:12.000Z</time>
        <extensions>
          <ns3:TrackPointExtension>
            <ns3:hr>130</ns3:hr>
            <ns3:cad>72</ns3:cad>
          </ns3:TrackPointExtension>
        </extensions>
      </trkpt>
      <trkpt lat="45.32870345748960971832275390625" lon="-71.0040071792900562286376953125">
        <ele>643.79998779296875</ele>
        <time>2026-08-21T20:30:13.000Z</time>
        <extensions>
          <ns3:TrackPointExtension>
            <ns3:hr>130</ns3:hr>
            <ns3:cad>72</ns3:cad>
          </ns3:TrackPointExtension>
        </extensions>
      </trkpt>
      <trkpt lat="45.32869390211999416351318359375" lon="-71.004004664719104766845703125">
        <ele>643.79998779296875</ele>
        <time>2026-08-21T20:30:14.000Z</time>
        <extensions>
          <ns3:TrackPointExtension>
            <ns3:hr>130</ns3:hr>
            <ns3:cad>72</ns3:cad>
          </ns3:TrackPointExtension>
        </extensions>
      </trkpt>
      <trkpt lat="45.328682251274585723876953125" lon="-71.00399695336818695068359375">
        <ele>643.79998779296875</ele>
        <time>2026-08-21T20:30:15.000Z</time>
        <extensions>
          <ns3:TrackPointExtension>
            <ns3:hr>130</ns3:hr>
            <ns3:cad>72</ns3:cad>
          </ns3:TrackPointExtension>
        </extensions>
      </trkpt>
      <trkpt lat="45.3286711871623992919921875" lon="-71.00399552844464778900146484375">
        <ele>643.79998779296875</ele>
        <time>2026-08-21T20:30:16.000Z</time>
        <extensions>
          <ns3:TrackPointExtension>
            <ns3:hr>130</ns3:hr>
            <ns3:cad>0</ns3:cad>
          </ns3:TrackPointExtension>
        </extensions>
      </trkpt>
      <trkpt lat="45.32866205088794231414794921875" lon="-71.00400189869105815887451171875">
        <ele>643.79998779296875</ele>
        <time>2026-08-21T20:30:17.000Z</time>
        <extensions>
          <ns3:TrackPointExtension>
            <ns3:hr>130</ns3:hr>
            <ns3:cad>0</ns3:cad>
          </ns3:TrackPointExtension>
        </extensions>
      </trkpt>
      <trkpt lat="45.3286509029567241668701171875" lon="-71.0040142200887203216552734375">
        <ele>644</ele>
        <time>2026-08-21T20:30:18.000Z</time>
        <extensions>
          <ns3:TrackPointExtension>
            <ns3:hr>129</ns3:hr>
            <ns3:cad>0</ns3:cad>
          </ns3:TrackPointExtension>
        </extensions>
      </trkpt>
      <trkpt lat="45.32863698899745941162109375" lon="-71.00403374992311000823974609375">
        <ele>644.20001220703125</ele>
        <time>2026-08-21T20:30:19.000Z</time>
        <extensions>
          <ns3:TrackPointExtension>
            <ns3:hr>128</ns3:hr>
            <ns3:cad>0</ns3:cad>
          </ns3:TrackPointExtension>
        </extensions>
      </trkpt>
      <trkpt lat="45.32862466759979724884033203125" lon="-71.00405872799456119537353515625">
        <ele>644.20001220703125</ele>
        <time>2026-08-21T20:30:20.000Z</time>
        <extensions>
          <ns3:TrackPointExtension>
            <ns3:hr>126</ns3:hr>
            <ns3:cad>0</ns3:cad>
          </ns3:TrackPointExtension>
        </extensions>
      </trkpt>
      <trkpt lat="45.32861913554370403289794921875" lon="-71.00408940576016902923583984375">
        <ele>644.4000244140625</ele>
        <time>2026-08-21T20:30:21.000Z</time>
        <extensions>
          <ns3:TrackPointExtension>
            <ns3:hr>125</ns3:hr>
            <ns3:cad>0</ns3:cad>
          </ns3:TrackPointExtension>
        </extensions>
      </trkpt>
      <trkpt lat="45.32862181775271892547607421875" lon="-71.00412360392510890960693359375">
        <ele>644.4000244140625</ele>
        <time>2026-08-21T20:30:22.000Z</time>
        <extensions>
          <ns3:TrackPointExtension>
            <ns3:hr>125</ns3:hr>
            <ns3:cad>0</ns3:cad>
          </ns3:TrackPointExtension>
        </extensions>
      </trkpt>
      <trkpt lat="45.32862315885722637176513671875" lon="-71.0041446425020694732666015625">
        <ele>644.4000244140625</ele>
        <time>2026-08-21T20:30:23.000Z</time>
        <extensions>
          <ns3:TrackPointExtension>
            <ns3:hr>126</ns3:hr>
            <ns3:cad>0</ns3:cad>
          </ns3:TrackPointExtension>
        </extensions>
      </trkpt>
      <trkpt lat="45.32862265594303607940673828125" lon="-71.00418043322861194610595703125">
        <ele>644.20001220703125</ele>
        <time>2026-08-21T20:30:24.000Z</time>
        <extensions>
          <ns3:TrackPointExtension>
            <ns3:hr>126</ns3:hr>
            <ns3:cad>0</ns3:cad>
          </ns3:TrackPointExtension>
        </extensions>
      </trkpt>
      <trkpt lat="45.32862064428627490997314453125" lon="-71.00421915762126445770263671875">
        <ele>644.20001220703125</ele>
        <time>2026-08-21T20:30:25.000Z</time>
        <extensions>
          <ns3:TrackPointExtension>
            <ns3:hr>128</ns3:hr>
            <ns3:cad>0</ns3:cad>
          </ns3:TrackPointExtension>
        </extensions>
      </trkpt>
      <trkpt lat="45.3286224044859409332275390625" lon="-71.00424648262560367584228515625">
        <ele>644</ele>
        <time>2026-08-21T20:30:26.000Z</time>
        <extensions>
          <ns3:TrackPointExtension>
            <ns3:hr>128</ns3:hr>
            <ns3:cad>77</ns3:cad>
          </ns3:TrackPointExtension>
        </extensions>
      </trkpt>
      <trkpt lat="45.32862299121916294097900390625" lon="-71.0042790882289409637451171875">
        <ele>644</ele>
        <time>2026-08-21T20:30:27.000Z</time>
        <extensions>
          <ns3:TrackPointExtension>
            <ns3:hr>129</ns3:hr>
            <ns3:cad>77</ns3:cad>
          </ns3:TrackPointExtension>
        </extensions>
      </trkpt>
      <trkpt lat="45.3286210633814334869384765625" lon="-71.00431186147034168243408203125">
        <ele>643.79998779296875</ele>
        <time>2026-08-21T20:30:28.000Z</time>
        <extensions>
          <ns3:TrackPointExtension>
            <ns3:hr>130</ns3:hr>
            <ns3:cad>77</ns3:cad>
          </ns3:TrackPointExtension>
        </extensions>
      </trkpt>
      <trkpt lat="45.32861821353435516357421875" lon="-71.004337258636951446533203125">
        <ele>643.79998779296875</ele>
        <time>2026-08-21T20:30:29.000Z</time>
        <extensions>
          <ns3:TrackPointExtension>
            <ns3:hr>131</ns3:hr>
            <ns3:cad>77</ns3:cad>
          </ns3:TrackPointExtension>
        </extensions>
      </trkpt>
      <trkpt lat="45.3286167047917842864990234375" lon="-71.004367433488368988037109375">
        <ele>643.79998779296875</ele>
        <time>2026-08-21T20:30:30.000Z</time>
        <extensions>
          <ns3:TrackPointExtension>
            <ns3:hr>131</ns3:hr>
            <ns3:cad>78</ns3:cad>
          </ns3:TrackPointExtension>
        </extensions>
      </trkpt>
      <trkpt lat="45.32861410640180110931396484375" lon="-71.0044004581868648529052734375">
        <ele>643.5999755859375</ele>
        <time>2026-08-21T20:30:31.000Z</time>
        <extensions>
          <ns3:TrackPointExtension>
            <ns3:hr>131</ns3:hr>
            <ns3:cad>78</ns3:cad>
          </ns3:TrackPointExtension>
        </extensions>
      </trkpt>
      <trkpt lat="45.3286136873066425323486328125" lon="-71.00442635826766490936279296875">
        <ele>643.5999755859375</ele>
        <time>2026-08-21T20:30:32.000Z</time>
        <extensions>
          <ns3:TrackPointExtension>
            <ns3:hr>132</ns3:hr>
            <ns3:cad>78</ns3:cad>
          </ns3:TrackPointExtension>
        </extensions>
      </trkpt>
      <trkpt lat="45.32860673032701015472412109375" lon="-71.00445636548101902008056640625">
        <ele>643.4000244140625</ele>
        <time>2026-08-21T20:30:33.000Z</time>
        <extensions>
          <ns3:TrackPointExtension>
            <ns3:hr>132</ns3:hr>
            <ns3:cad>77</ns3:cad>
          </ns3:TrackPointExtension>
        </extensions>
      </trkpt>
      <trkpt lat="45.3285992704331874847412109375" lon="-71.004483439028263092041015625">
        <ele>643.20001220703125</ele>
        <time>2026-08-21T20:30:34.000Z</time>
        <extensions>
          <ns3:TrackPointExtension>
            <ns3:hr>133</ns3:hr>
            <ns3:cad>77</ns3:cad>
          </ns3:TrackPointExtension>
        </extensions>
      </trkpt>
      <trkpt lat="45.32859214581549167633056640625" lon="-71.0045077465474605560302734375">
        <ele>643.20001220703125</ele>
        <time>2026-08-21T20:30:35.000Z</time>
        <extensions>
          <ns3:TrackPointExtension>
            <ns3:hr>133</ns3:hr>
            <ns3:cad>77</ns3:cad>
          </ns3:TrackPointExtension>
        </extensions>
      </trkpt>
      <trkpt lat="45.32858326099812984466552734375" lon="-71.00453280843794345855712890625">
        <ele>643.20001220703125</ele>
        <time>2026-08-21T20:30:36.000Z</time>
        <extensions>
          <ns3:TrackPointExtension>
            <ns3:hr>132</ns3:hr>
            <ns3:cad>76</ns3:cad>
          </ns3:TrackPointExtension>
        </extensions>
      </trkpt>
      <trkpt lat="45.3285714425146579742431640625" lon="-71.0045461356639862060546875">
        <ele>643</ele>
        <time>2026-08-21T20:30:37.000Z</time>
        <extensions>
          <ns3:TrackPointExtension>
            <ns3:hr>132</ns3:hr>
            <ns3:cad>76</ns3:cad>
          </ns3:TrackPointExtension>
        </extensions>
      </trkpt>
      <trkpt lat="45.3285593725740909576416015625" lon="-71.0045617260038852691650390625">
        <ele>643</ele>
        <time>2026-08-21T20:30:38.000Z</time>
        <extensions>
          <ns3:TrackPointExtension>
            <ns3:hr>132</ns3:hr>
            <ns3:cad>76</ns3:cad>
          </ns3:TrackPointExtension>
        </extensions>
      </trkpt>
      <trkpt lat="45.32854621298611164093017578125" lon="-71.00457572378218173980712890625">
        <ele>642.79998779296875</ele>
        <time>2026-08-21T20:30:39.000Z</time>
        <extensions>
          <ns3:TrackPointExtension>
            <ns3:hr>132</ns3:hr>
            <ns3:cad>76</ns3:cad>
          </ns3:TrackPointExtension>
        </extensions>
      </trkpt>
      <trkpt lat="45.32853372395038604736328125" lon="-71.004592739045619964599609375">
        <ele>642.5999755859375</ele>
        <time>2026-08-21T20:30:40.000Z</time>
        <extensions>
          <ns3:TrackPointExtension>
            <ns3:hr>132</ns3:hr>
            <ns3:cad>73</ns3:cad>
          </ns3:TrackPointExtension>
        </extensions>
      </trkpt>
      <trkpt lat="45.32852324657142162322998046875" lon="-71.00460690446197986602783203125">
        <ele>642.4000244140625</ele>
        <time>2026-08-21T20:30:41.000Z</time>
        <extensions>
          <ns3:TrackPointExtension>
            <ns3:hr>131</ns3:hr>
            <ns3:cad>73</ns3:cad>
          </ns3:TrackPointExtension>
        </extensions>
      </trkpt>
      <trkpt lat="45.32851268537342548370361328125" lon="-71.004619561135768890380859375">
        <ele>642.20001220703125</ele>
        <time>2026-08-21T20:30:42.000Z</time>
        <extensions>
          <ns3:TrackPointExtension>
            <ns3:hr>132</ns3:hr>
            <ns3:cad>73</ns3:cad>
          </ns3:TrackPointExtension>
        </extensions>
      </trkpt>
      <trkpt lat="45.32850229181349277496337890625" lon="-71.00463397800922393798828125">
        <ele>642</ele>
        <time>2026-08-21T20:30:43.000Z</time>
        <extensions>
          <ns3:TrackPointExtension>
            <ns3:hr>132</ns3:hr>
            <ns3:cad>71</ns3:cad>
          </ns3:TrackPointExtension>
        </extensions>
      </trkpt>
      <trkpt lat="45.32849139533936977386474609375" lon="-71.00465065799653530120849609375">
        <ele>641.79998779296875</ele>
        <time>2026-08-21T20:30:44.000Z</time>
        <extensions>
          <ns3:TrackPointExtension>
            <ns3:hr>132</ns3:hr>
            <ns3:cad>71</ns3:cad>
          </ns3:TrackPointExtension>
        </extensions>
      </trkpt>
      <trkpt lat="45.3284866176545619964599609375" lon="-71.00466574542224407196044921875">
        <ele>641.5999755859375</ele>
        <time>2026-08-21T20:30:45.000Z</time>
        <extensions>
          <ns3:TrackPointExtension>
            <ns3:hr>132</ns3:hr>
            <ns3:cad>71</ns3:cad>
          </ns3:TrackPointExtension>
        </extensions>
      </trkpt>
      <trkpt lat="45.3284809179604053497314453125" lon="-71.0046773962676525115966796875">
        <ele>641.5999755859375</ele>
        <time>2026-08-21T20:30:46.000Z</time>
        <extensions>
          <ns3:TrackPointExtension>
            <ns3:hr>131</ns3:hr>
            <ns3:cad>71</ns3:cad>
          </ns3:TrackPointExtension>
        </extensions>
      </trkpt>
      <trkpt lat="45.32847530208528041839599609375" lon="-71.00468485616147518157958984375">
        <ele>641.4000244140625</ele>
        <time>2026-08-21T20:30:47.000Z</time>
        <extensions>
          <ns3:TrackPointExtension>
            <ns3:hr>132</ns3:hr>
            <ns3:cad>71</ns3:cad>
          </ns3:TrackPointExtension>
        </extensions>
      </trkpt>
      <trkpt lat="45.32846407033503055572509765625" lon="-71.004698015749454498291015625">
        <ele>641.4000244140625</ele>
        <time>2026-08-21T20:30:48.000Z</time>
        <extensions>
          <ns3:TrackPointExtension>
            <ns3:hr>132</ns3:hr>
            <ns3:cad>71</ns3:cad>
          </ns3:TrackPointExtension>
        </extensions>
      </trkpt>
      <trkpt lat="45.32845300622284412384033203125" lon="-71.00470530800521373748779296875">
        <ele>641.4000244140625</ele>
        <time>2026-08-21T20:30:49.000Z</time>
        <extensions>
          <ns3:TrackPointExtension>
            <ns3:hr>132</ns3:hr>
            <ns3:cad>71</ns3:cad>
          </ns3:TrackPointExtension>
        </extensions>
      </trkpt>
      <trkpt lat="45.32844093628227710723876953125" lon="-71.0047179646790027618408203125">
        <ele>641.20001220703125</ele>
        <time>2026-08-21T20:30:50.000Z</time>
        <extensions>
          <ns3:TrackPointExtension>
            <ns3:hr>131</ns3:hr>
            <ns3:cad>71</ns3:cad>
          </ns3:TrackPointExtension>
        </extensions>
      </trkpt>
      <trkpt lat="45.3284272737801074981689453125" lon="-71.00473280064761638641357421875">
        <ele>641.20001220703125</ele>
        <time>2026-08-21T20:30:51.000Z</time>
        <extensions>
          <ns3:TrackPointExtension>
            <ns3:hr>132</ns3:hr>
            <ns3:cad>71</ns3:cad>
          </ns3:TrackPointExtension>
        </extensions>
      </trkpt>
      <trkpt lat="45.32841780222952365875244140625" lon="-71.00474797189235687255859375">
        <ele>641</ele>
        <time>2026-08-21T20:30:52.000Z</time>
        <extensions>
          <ns3:TrackPointExtension>
            <ns3:hr>132</ns3:hr>
            <ns3:cad>71</ns3:cad>
          </ns3:TrackPointExtension>
        </extensions>
      </trkpt>
      <trkpt lat="45.32840573228895664215087890625" lon="-71.00476406514644622802734375">
        <ele>640.79998779296875</ele>
        <time>2026-08-21T20:30:53.000Z</time>
        <extensions>
          <ns3:TrackPointExtension>
            <ns3:hr>131</ns3:hr>
            <ns3:cad>0</ns3:cad>
          </ns3:TrackPointExtension>
        </extensions>
      </trkpt>
      <trkpt lat="45.3283957578241825103759765625" lon="-71.00477672182023525238037109375">
        <ele>640.4000244140625</ele>
        <time>2026-08-21T20:30:54.000Z</time>
        <extensions>
          <ns3:TrackPointExtension>
            <ns3:hr>131</ns3:hr>
            <ns3:cad>0</ns3:cad>
          </ns3:TrackPointExtension>
        </extensions>
      </trkpt>
      <trkpt lat="45.3283880464732646942138671875" lon="-71.00479331798851490020751953125">
        <ele>640.4000244140625</ele>
        <time>2026-08-21T20:30:55.000Z</time>
        <extensions>
          <ns3:TrackPointExtension>
            <ns3:hr>130</ns3:hr>
            <ns3:cad>67</ns3:cad>
          </ns3:TrackPointExtension>
        </extensions>
      </trkpt>
      <trkpt lat="45.32838276587426662445068359375" lon="-71.0048061423003673553466796875">
        <ele>640.20001220703125</ele>
        <time>2026-08-21T20:30:56.000Z</time>
        <extensions>
          <ns3:TrackPointExtension>
            <ns3:hr>129</ns3:hr>
            <ns3:cad>67</ns3:cad>
          </ns3:TrackPointExtension>
        </extensions>
      </trkpt>
      <trkpt lat="45.3283763118088245391845703125" lon="-71.0048116743564605712890625">
        <ele>640</ele>
        <time>2026-08-21T20:30:57.000Z</time>
        <extensions>
          <ns3:TrackPointExtension>
            <ns3:hr>128</ns3:hr>
            <ns3:cad>73</ns3:cad>
          </ns3:TrackPointExtension>
        </extensions>
      </trkpt>
      <trkpt lat="45.3283682651817798614501953125" lon="-71.00481770932674407958984375">
        <ele>640</ele>
        <time>2026-08-21T20:30:58.000Z</time>
        <extensions>
          <ns3:TrackPointExtension>
            <ns3:hr>127</ns3:hr>
            <ns3:cad>0</ns3:cad>
          </ns3:TrackPointExtension>
        </extensions>
      </trkpt>
      <trkpt lat="45.3283551894128322601318359375" lon="-71.0048245824873447418212890625">
        <ele>639.79998779296875</ele>
        <time>2026-08-21T20:30:59.000Z</time>
        <extensions>
          <ns3:TrackPointExtension>
            <ns3:hr>127</ns3:hr>
            <ns3:cad>0</ns3:cad>
          </ns3:TrackPointExtension>
        </extensions>
      </trkpt>
      <trkpt lat="45.32833901233971118927001953125" lon="-71.0048286058008670806884765625">
        <ele>639.79998779296875</ele>
        <time>2026-08-21T20:31:00.000Z</time>
        <extensions>
          <ns3:TrackPointExtension>
            <ns3:hr>127</ns3:hr>
            <ns3:cad>0</ns3:cad>
          </ns3:TrackPointExtension>
        </extensions>
      </trkpt>
      <trkpt lat="45.32832409255206584930419921875" lon="-71.00484092719852924346923828125">
        <ele>639.5999755859375</ele>
        <time>2026-08-21T20:31:01.000Z</time>
        <extensions>
          <ns3:TrackPointExtension>
            <ns3:hr>128</ns3:hr>
            <ns3:cad>0</ns3:cad>
          </ns3:TrackPointExtension>
        </extensions>
      </trkpt>
      <trkpt lat="45.328310765326023101806640625" lon="-71.00485182367265224456787109375">
        <ele>639.4000244140625</ele>
        <time>2026-08-21T20:31:02.000Z</time>
        <extensions>
          <ns3:TrackPointExtension>
            <ns3:hr>127</ns3:hr>
            <ns3:cad>0</ns3:cad>
          </ns3:TrackPointExtension>
        </extensions>
      </trkpt>
      <trkpt lat="45.32829903066158294677734375" lon="-71.0048641450703144073486328125">
        <ele>639.4000244140625</ele>
        <time>2026-08-21T20:31:03.000Z</time>
        <extensions>
          <ns3:TrackPointExtension>
            <ns3:hr>127</ns3:hr>
            <ns3:cad>0</ns3:cad>
          </ns3:TrackPointExtension>
        </extensions>
      </trkpt>
      <trkpt lat="45.32828989438712596893310546875" lon="-71.0048742033541202545166015625">
        <ele>639.20001220703125</ele>
        <time>2026-08-21T20:31:04.000Z</time>
        <extensions>
          <ns3:TrackPointExtension>
            <ns3:hr>127</ns3:hr>
            <ns3:cad>0</ns3:cad>
          </ns3:TrackPointExtension>
        </extensions>
      </trkpt>
      <trkpt lat="45.32828134484589099884033203125" lon="-71.004887111485004425048828125">
        <ele>639</ele>
        <time>2026-08-21T20:31:05.000Z</time>
        <extensions>
          <ns3:TrackPointExtension>
            <ns3:hr>127</ns3:hr>
            <ns3:cad>0</ns3:cad>
          </ns3:TrackPointExtension>
        </extensions>
      </trkpt>
      <trkpt lat="45.3282733820378780364990234375" lon="-71.0049100778996944427490234375">
        <ele>639</ele>
        <time>2026-08-21T20:31:06.000Z</time>
        <extensions>
          <ns3:TrackPointExtension>
            <ns3:hr>127</ns3:hr>
            <ns3:cad>0</ns3:cad>
          </ns3:TrackPointExtension>
        </extensions>
      </trkpt>
      <trkpt lat="45.32827346585690975189208984375" lon="-71.0049352236092090606689453125">
        <ele>639</ele>
        <time>2026-08-21T20:31:07.000Z</time>
        <extensions>
          <ns3:TrackPointExtension>
            <ns3:hr>128</ns3:hr>
            <ns3:cad>0</ns3:cad>
          </ns3:TrackPointExtension>
        </extensions>
      </trkpt>
      <trkpt lat="45.32827430404722690582275390625" lon="-71.00496078841388225555419921875">
        <ele>639</ele>
        <time>2026-08-21T20:31:08.000Z</time>
        <extensions>
          <ns3:TrackPointExtension>
            <ns3:hr>127</ns3:hr>
            <ns3:cad>0</ns3:cad>
          </ns3:TrackPointExtension>
        </extensions>
      </trkpt>
      <trkpt lat="45.32827514223754405975341796875" lon="-71.00498073734343051910400390625">
        <ele>638.79998779296875</ele>
        <time>2026-08-21T20:31:09.000Z</time>
        <extensions>
          <ns3:TrackPointExtension>
            <ns3:hr>127</ns3:hr>
            <ns3:cad>57</ns3:cad>
          </ns3:TrackPointExtension>
        </extensions>
      </trkpt>
      <trkpt lat="45.32827715389430522918701171875" lon="-71.0049985907971858978271484375">
        <ele>638.79998779296875</ele>
        <time>2026-08-21T20:31:10.000Z</time>
        <extensions>
          <ns3:TrackPointExtension>
            <ns3:hr>126</ns3:hr>
            <ns3:cad>57</ns3:cad>
          </ns3:TrackPointExtension>
        </extensions>
      </trkpt>
      <trkpt lat="45.32828025519847869873046875" lon="-71.00500219501554965972900390625">
        <ele>638.79998779296875</ele>
        <time>2026-08-21T20:31:11.000Z</time>
        <extensions>
          <ns3:TrackPointExtension>
            <ns3:hr>125</ns3:hr>
            <ns3:cad>57</ns3:cad>
          </ns3:TrackPointExtension>
        </extensions>
      </trkpt>
      <trkpt lat="45.328283607959747314453125" lon="-71.0050002671778202056884765625">
        <ele>638.5999755859375</ele>
        <time>2026-08-21T20:31:12.000Z</time>
        <extensions>
          <ns3:TrackPointExtension>
            <ns3:hr>125</ns3:hr>
            <ns3:cad>56</ns3:cad>
          </ns3:TrackPointExtension>
        </extensions>
      </trkpt>
      <trkpt lat="45.32828821800649166107177734375" lon="-71.005008481442928314208984375">
        <ele>638.5999755859375</ele>
        <time>2026-08-21T20:31:13.000Z</time>
        <extensions>
          <ns3:TrackPointExtension>
            <ns3:hr>125</ns3:hr>
            <ns3:cad>56</ns3:cad>
          </ns3:TrackPointExtension>
        </extensions>
      </trkpt>
      <trkpt lat="45.32829928211867809295654296875" lon="-71.00501543842256069183349609375">
        <ele>638.4000244140625</ele>
        <time>2026-08-21T20:31:14.000Z</time>
        <extensions>
          <ns3:TrackPointExtension>
            <ns3:hr>124</ns3:hr>
            <ns3:cad>54</ns3:cad>
          </ns3:TrackPointExtension>
        </extensions>
      </trkpt>
      <trkpt lat="45.32830707728862762451171875" lon="-71.00502080284059047698974609375">
        <ele>638.20001220703125</ele>
        <time>2026-08-21T20:31:15.000Z</time>
        <extensions>
          <ns3:TrackPointExtension>
            <ns3:hr>124</ns3:hr>
            <ns3:cad>54</ns3:cad>
          </ns3:TrackPointExtension>
        </extensions>
      </trkpt>
      <trkpt lat="45.32831302843987941741943359375" lon="-71.00503228604793548583984375">
        <ele>637.79998779296875</ele>
        <time>2026-08-21T20:31:16.000Z</time>
        <extensions>
          <ns3:TrackPointExtension>
            <ns3:hr>124</ns3:hr>
            <ns3:cad>54</ns3:cad>
          </ns3:TrackPointExtension>
        </extensions>
      </trkpt>
      <trkpt lat="45.32831856049597263336181640625" lon="-71.005041338503360748291015625">
        <ele>637.5999755859375</ele>
        <time>2026-08-21T20:31:17.000Z</time>
        <extensions>
          <ns3:TrackPointExtension>
            <ns3:hr>121</ns3:hr>
            <ns3:cad>48</ns3:cad>
          </ns3:TrackPointExtension>
        </extensions>
      </trkpt>
      <trkpt lat="45.32832392491400241851806640625" lon="-71.00504712201654911041259765625">
        <ele>637.4000244140625</ele>
        <time>2026-08-21T20:31:18.000Z</time>
        <extensions>
          <ns3:TrackPointExtension>
            <ns3:hr>119</ns3:hr>
            <ns3:cad>48</ns3:cad>
          </ns3:TrackPointExtension>
        </extensions>
      </trkpt>
      <trkpt lat="45.328331552445888519287109375" lon="-71.00505097769200801849365234375">
        <ele>637.20001220703125</ele>
        <time>2026-08-21T20:31:19.000Z</time>
        <extensions>
          <ns3:TrackPointExtension>
            <ns3:hr>119</ns3:hr>
            <ns3:cad>48</ns3:cad>
          </ns3:TrackPointExtension>
        </extensions>
      </trkpt>
      <trkpt lat="45.3283374197781085968017578125" lon="-71.00505550391972064971923828125">
        <ele>637</ele>
        <time>2026-08-21T20:31:20.000Z</time>
        <extensions>
          <ns3:TrackPointExtension>
            <ns3:hr>119</ns3:hr>
            <ns3:cad>48</ns3:cad>
          </ns3:TrackPointExtension>
        </extensions>
      </trkpt>
      <trkpt lat="45.32834588550031185150146484375" lon="-71.005061455070972442626953125">
        <ele>636.79998779296875</ele>
        <time>2026-08-21T20:31:21.000Z</time>
        <extensions>
          <ns3:TrackPointExtension>
            <ns3:hr>119</ns3:hr>
            <ns3:cad>51</ns3:cad>
          </ns3:TrackPointExtension>
        </extensions>
      </trkpt>
      <trkpt lat="45.32835208810865879058837890625" lon="-71.00507394410669803619384765625">
        <ele>636.5999755859375</ele>
        <time>2026-08-21T20:31:22.000Z</time>
        <extensions>
          <ns3:TrackPointExtension>
            <ns3:hr>118</ns3:hr>
            <ns3:cad>50</ns3:cad>
          </ns3:TrackPointExtension>
        </extensions>
      </trkpt>
      <trkpt lat="45.328350327908992767333984375" lon="-71.0050760395824909210205078125">
        <ele>636.4000244140625</ele>
        <time>2026-08-21T20:31:23.000Z</time>
        <extensions>
          <ns3:TrackPointExtension>
            <ns3:hr>119</ns3:hr>
            <ns3:cad>50</ns3:cad>
          </ns3:TrackPointExtension>
        </extensions>
      </trkpt>
      <trkpt lat="45.32834462821483612060546875" lon="-71.00506857968866825103759765625">
        <ele>636.20001220703125</ele>
        <time>2026-08-21T20:31:24.000Z</time>
        <extensions>
          <ns3:TrackPointExtension>
            <ns3:hr>119</ns3:hr>
            <ns3:cad>0</ns3:cad>
          </ns3:TrackPointExtension>
        </extensions>
      </trkpt>
      <trkpt lat="45.3283437900245189666748046875" lon="-71.00506044924259185791015625">
        <ele>636.20001220703125</ele>
        <time>2026-08-21T20:31:25.000Z</time>
        <extensions>
          <ns3:TrackPointExtension>
            <ns3:hr>120</ns3:hr>
            <ns3:cad>0</ns3:cad>
          </ns3:TrackPointExtension>
        </extensions>
      </trkpt>
      <trkpt lat="45.32834052108228206634521484375" lon="-71.0050575993955135345458984375">
        <ele>636.20001220703125</ele>
        <time>2026-08-21T20:31:26.000Z</time>
        <extensions>
          <ns3:TrackPointExtension>
            <ns3:hr>120</ns3:hr>
            <ns3:cad>0</ns3:cad>
          </ns3:TrackPointExtension>
        </extensions>
      </trkpt>
      <trkpt lat="45.3283384256064891815185546875" lon="-71.00505533628165721893310546875">
        <ele>636.4000244140625</ele>
        <time>2026-08-21T20:31:27.000Z</time>
        <extensions>
          <ns3:TrackPointExtension>
            <ns3:hr>120</ns3:hr>
            <ns3:cad>0</ns3:cad>
          </ns3:TrackPointExtension>
        </extensions>
      </trkpt>
      <trkpt lat="45.3283344022929668426513671875" lon="-71.00505349226295948028564453125">
        <ele>636.4000244140625</ele>
        <time>2026-08-21T20:31:28.000Z</time>
        <extensions>
          <ns3:TrackPointExtension>
            <ns3:hr>120</ns3:hr>
            <ns3:cad>0</ns3:cad>
          </ns3:TrackPointExtension>
        </extensions>
      </trkpt>
      <trkpt lat="45.3283307142555713653564453125" lon="-71.0050508938729763031005859375">
        <ele>636.4000244140625</ele>
        <time>2026-08-21T20:31:29.000Z</time>
        <extensions>
          <ns3:TrackPointExtension>
            <ns3:hr>121</ns3:hr>
            <ns3:cad>0</ns3:cad>
          </ns3:TrackPointExtension>
        </extensions>
      </trkpt>
      <trkpt lat="45.32833163626492023468017578125" lon="-71.00505047477781772613525390625">
        <ele>636.4000244140625</ele>
        <time>2026-08-21T20:31:30.000Z</time>
        <extensions>
          <ns3:TrackPointExtension>
            <ns3:hr>122</ns3:hr>
            <ns3:cad>0</ns3:cad>
          </ns3:TrackPointExtension>
        </extensions>
      </trkpt>
      <trkpt lat="45.32833398319780826568603515625" lon="-71.0050475411117076873779296875">
        <ele>636.4000244140625</ele>
        <time>2026-08-21T20:31:31.000Z</time>
        <extensions>
          <ns3:TrackPointExtension>
            <ns3:hr>123</ns3:hr>
            <ns3:cad>0</ns3:cad>
          </ns3:TrackPointExtension>
        </extensions>
      </trkpt>
      <trkpt lat="45.32833532430231571197509765625" lon="-71.0050477087497711181640625">
        <ele>636.4000244140625</ele>
        <time>2026-08-21T20:31:32.000Z</time>
        <extensions>
          <ns3:TrackPointExtension>
            <ns3:hr>123</ns3:hr>
            <ns3:cad>0</ns3:cad>
          </ns3:TrackPointExtension>
        </extensions>
      </trkpt>
      <trkpt lat="45.328336246311664581298828125" lon="-71.00504829548299312591552734375">
        <ele>636.4000244140625</ele>
        <time>2026-08-21T20:31:33.000Z</time>
        <extensions>
          <ns3:TrackPointExtension>
            <ns3:hr>123</ns3:hr>
            <ns3:cad>0</ns3:cad>
          </ns3:TrackPointExtension>
        </extensions>
      </trkpt>
      <trkpt lat="45.328334234654903411865234375" lon="-71.00504913367331027984619140625">
        <ele>636.20001220703125</ele>
        <time>2026-08-21T20:31:34.000Z</time>
        <extensions>
          <ns3:TrackPointExtension>
            <ns3:hr>123</ns3:hr>
            <ns3:cad>0</ns3:cad>
          </ns3:TrackPointExtension>
        </extensions>
      </trkpt>
      <trkpt lat="45.32833415083587169647216796875" lon="-71.005049049854278564453125">
        <ele>636.20001220703125</ele>
        <time>2026-08-21T20:31:35.000Z</time>
        <extensions>
          <ns3:TrackPointExtension>
            <ns3:hr>122</ns3:hr>
            <ns3:cad>0</ns3:cad>
          </ns3:TrackPointExtension>
        </extensions>
      </trkpt>
      <trkpt lat="45.32833415083587169647216796875" lon="-71.005049049854278564453125">
        <ele>636.20001220703125</ele>
        <time>2026-08-21T20:31:36.000Z</time>
        <extensions>
          <ns3:TrackPointExtension>
            <ns3:hr>122</ns3:hr>
            <ns3:cad>0</ns3:cad>
          </ns3:TrackPointExtension>
        </extensions>
      </trkpt>
      <trkpt lat="45.3283340670168399810791015625" lon="-71.0050488822162151336669921875">
        <ele>636.20001220703125</ele>
        <time>2026-08-21T20:31:37.000Z</time>
        <extensions>
          <ns3:TrackPointExtension>
            <ns3:hr>122</ns3:hr>
            <ns3:cad>0</ns3:cad>
          </ns3:TrackPointExtension>
        </extensions>
      </trkpt>
      <trkpt lat="45.32833524048328399658203125" lon="-71.00505030713975429534912109375">
        <ele>636.20001220703125</ele>
        <time>2026-08-21T20:31:38.000Z</time>
        <extensions>
          <ns3:TrackPointExtension>
            <ns3:hr>121</ns3:hr>
            <ns3:cad>0</ns3:cad>
          </ns3:TrackPointExtension>
        </extensions>
      </trkpt>
      <trkpt lat="45.3283357433974742889404296875" lon="-71.00505148060619831085205078125">
        <ele>636.20001220703125</ele>
        <time>2026-08-21T20:31:39.000Z</time>
        <extensions>
          <ns3:TrackPointExtension>
            <ns3:hr>120</ns3:hr>
            <ns3:cad>0</ns3:cad>
          </ns3:TrackPointExtension>
        </extensions>
      </trkpt>
      <trkpt lat="45.3283380903303623199462890625" lon="-71.00505332462489604949951171875">
        <ele>636.20001220703125</ele>
        <time>2026-08-21T20:31:40.000Z</time>
        <extensions>
          <ns3:TrackPointExtension>
            <ns3:hr>119</ns3:hr>
            <ns3:cad>0</ns3:cad>
          </ns3:TrackPointExtension>
        </extensions>
      </trkpt>
      <trkpt lat="45.32833633013069629669189453125" lon="-71.00505173206329345703125">
        <ele>636.20001220703125</ele>
        <time>2026-08-21T20:31:41.000Z</time>
        <extensions>
          <ns3:TrackPointExtension>
            <ns3:hr>119</ns3:hr>
            <ns3:cad>0</ns3:cad>
          </ns3:TrackPointExtension>
        </extensions>
      </trkpt>
      <trkpt lat="45.3283354081213474273681640625" lon="-71.00504435598850250244140625">
        <ele>636.20001220703125</ele>
        <time>2026-08-21T20:31:42.000Z</time>
        <extensions>
          <ns3:TrackPointExtension>
            <ns3:hr>117</ns3:hr>
            <ns3:cad>0</ns3:cad>
          </ns3:TrackPointExtension>
        </extensions>
      </trkpt>
      <trkpt lat="45.32833834178745746612548828125" lon="-71.005039997398853302001953125">
        <ele>636.20001220703125</ele>
        <time>2026-08-21T20:31:43.000Z</time>
        <extensions>
          <ns3:TrackPointExtension>
            <ns3:hr>116</ns3:hr>
            <ns3:cad>0</ns3:cad>
          </ns3:TrackPointExtension>
        </extensions>
      </trkpt>
      <trkpt lat="45.32833733595907688140869140625" lon="-71.00504259578883647918701171875">
        <ele>636.20001220703125</ele>
        <time>2026-08-21T20:31:44.000Z</time>
        <extensions>
          <ns3:TrackPointExtension>
            <ns3:hr>116</ns3:hr>
            <ns3:cad>0</ns3:cad>
          </ns3:TrackPointExtension>
        </extensions>
      </trkpt>
      <trkpt lat="45.32833800651133060455322265625" lon="-71.00504226051270961761474609375">
        <ele>636.20001220703125</ele>
        <time>2026-08-21T20:31:45.000Z</time>
        <extensions>
          <ns3:TrackPointExtension>
            <ns3:hr>115</ns3:hr>
            <ns3:cad>0</ns3:cad>
          </ns3:TrackPointExtension>
        </extensions>
      </trkpt>
      <trkpt lat="45.32833415083587169647216796875" lon="-71.005049049854278564453125">
        <ele>636.20001220703125</ele>
        <time>2026-08-21T20:31:46.000Z</time>
        <extensions>
          <ns3:TrackPointExtension>
            <ns3:hr>114</ns3:hr>
            <ns3:cad>0</ns3:cad>
          </ns3:TrackPointExtension>
        </extensions>
      </trkpt>
      <trkpt lat="45.32833415083587169647216796875" lon="-71.005049049854278564453125">
        <ele>636.20001220703125</ele>
        <time>2026-08-21T20:31:47.000Z</time>
        <extensions>
          <ns3:TrackPointExtension>
            <ns3:hr>114</ns3:hr>
            <ns3:cad>0</ns3:cad>
          </ns3:TrackPointExtension>
        </extensions>
      </trkpt>
      <trkpt lat="45.32833415083587169647216796875" lon="-71.005049049854278564453125">
        <ele>636.20001220703125</ele>
        <time>2026-08-21T20:31:48.000Z</time>
        <extensions>
          <ns3:TrackPointExtension>
            <ns3:hr>114</ns3:hr>
            <ns3:cad>0</ns3:cad>
          </ns3:TrackPointExtension>
        </extensions>
      </trkpt>
      <trkpt lat="45.32833415083587169647216796875" lon="-71.005049049854278564453125">
        <ele>636.20001220703125</ele>
        <time>2026-08-21T20:31:49.000Z</time>
        <extensions>
          <ns3:TrackPointExtension>
            <ns3:hr>113</ns3:hr>
            <ns3:cad>0</ns3:cad>
          </ns3:TrackPointExtension>
        </extensions>
      </trkpt>
      <trkpt lat="45.32833415083587169647216796875" lon="-71.005049049854278564453125">
        <ele>636.20001220703125</ele>
        <time>2026-08-21T20:31:50.000Z</time>
        <extensions>
          <ns3:TrackPointExtension>
            <ns3:hr>115</ns3:hr>
            <ns3:cad>0</ns3:cad>
          </ns3:TrackPointExtension>
        </extensions>
      </trkpt>
      <trkpt lat="45.32833415083587169647216796875" lon="-71.005049049854278564453125">
        <ele>636.20001220703125</ele>
        <time>2026-08-21T20:31:51.000Z</time>
        <extensions>
          <ns3:TrackPointExtension>
            <ns3:hr>115</ns3:hr>
            <ns3:cad>0</ns3:cad>
          </ns3:TrackPointExtension>
        </extensions>
      </trkpt>
      <trkpt lat="45.32833415083587169647216796875" lon="-71.005049049854278564453125">
        <ele>636.20001220703125</ele>
        <time>2026-08-21T20:31:52.000Z</time>
        <extensions>
          <ns3:TrackPointExtension>
            <ns3:hr>114</ns3:hr>
            <ns3:cad>0</ns3:cad>
          </ns3:TrackPointExtension>
        </extensions>
      </trkpt>
      <trkpt lat="45.32833415083587169647216796875" lon="-71.005049049854278564453125">
        <ele>636.20001220703125</ele>
        <time>2026-08-21T20:31:53.000Z</time>
        <extensions>
          <ns3:TrackPointExtension>
            <ns3:hr>113</ns3:hr>
            <ns3:cad>0</ns3:cad>
          </ns3:TrackPointExtension>
        </extensions>
      </trkpt>
      <trkpt lat="45.32833415083587169647216796875" lon="-71.005049049854278564453125">
        <ele>636.20001220703125</ele>
        <time>2026-08-21T20:31:54.000Z</time>
        <extensions>
          <ns3:TrackPointExtension>
            <ns3:hr>113</ns3:hr>
            <ns3:cad>0</ns3:cad>
          </ns3:TrackPointExtension>
        </extensions>
      </trkpt>
      <trkpt lat="45.32833415083587169647216796875" lon="-71.005049049854278564453125">
        <ele>636.20001220703125</ele>
        <time>2026-08-21T20:31:55.000Z</time>
        <extensions>
          <ns3:TrackPointExtension>
            <ns3:hr>113</ns3:hr>
            <ns3:cad>0</ns3:cad>
          </ns3:TrackPointExtension>
        </extensions>
      </trkpt>
      <trkpt lat="45.32833415083587169647216796875" lon="-71.005049049854278564453125">
        <ele>636.4000244140625</ele>
        <time>2026-08-21T20:31:56.000Z</time>
        <extensions>
          <ns3:TrackPointExtension>
            <ns3:hr>112</ns3:hr>
            <ns3:cad>0</ns3:cad>
          </ns3:TrackPointExtension>
        </extensions>
      </trkpt>
      <trkpt lat="45.32833415083587169647216796875" lon="-71.005049049854278564453125">
        <ele>636.4000244140625</ele>
        <time>2026-08-21T20:31:57.000Z</time>
        <extensions>
          <ns3:TrackPointExtension>
            <ns3:hr>112</ns3:hr>
            <ns3:cad>0</ns3:cad>
          </ns3:TrackPointExtension>
        </extensions>
      </trkpt>
      <trkpt lat="45.3283404372632503509521484375" lon="-71.00504376925528049468994140625">
        <ele>636.4000244140625</ele>
        <time>2026-08-21T20:31:58.000Z</time>
        <extensions>
          <ns3:TrackPointExtension>
            <ns3:hr>112</ns3:hr>
            <ns3:cad>68</ns3:cad>
          </ns3:TrackPointExtension>
        </extensions>
      </trkpt>
      <trkpt lat="45.32833968289196491241455078125" lon="-71.0050468705594539642333984375">
        <ele>636.4000244140625</ele>
        <time>2026-08-21T20:31:59.000Z</time>
        <extensions>
          <ns3:TrackPointExtension>
            <ns3:hr>112</ns3:hr>
            <ns3:cad>68</ns3:cad>
          </ns3:TrackPointExtension>
        </extensions>
      </trkpt>
      <trkpt lat="45.32834068872034549713134765625" lon="-71.00505097769200801849365234375">
        <ele>636.20001220703125</ele>
        <time>2026-08-21T20:32:00.000Z</time>
        <extensions>
          <ns3:TrackPointExtension>
            <ns3:hr>112</ns3:hr>
            <ns3:cad>0</ns3:cad>
          </ns3:TrackPointExtension>
        </extensions>
      </trkpt>
      <trkpt lat="45.32834303565323352813720703125" lon="-71.005054414272308349609375">
        <ele>636.20001220703125</ele>
        <time>2026-08-21T20:32:01.000Z</time>
        <extensions>
          <ns3:TrackPointExtension>
            <ns3:hr>111</ns3:hr>
            <ns3:cad>0</ns3:cad>
          </ns3:TrackPointExtension>
        </extensions>
      </trkpt>
      <trkpt lat="45.3283431194722652435302734375" lon="-71.0050599463284015655517578125">
        <ele>636</ele>
        <time>2026-08-21T20:32:02.000Z</time>
        <extensions>
          <ns3:TrackPointExtension>
            <ns3:hr>112</ns3:hr>
            <ns3:cad>0</ns3:cad>
          </ns3:TrackPointExtension>
        </extensions>
      </trkpt>
      <trkpt lat="45.3283431194722652435302734375" lon="-71.005062796175479888916015625">
        <ele>636</ele>
        <time>2026-08-21T20:32:03.000Z</time>
        <extensions>
          <ns3:TrackPointExtension>
            <ns3:hr>113</ns3:hr>
            <ns3:cad>0</ns3:cad>
          </ns3:TrackPointExtension>
        </extensions>
      </trkpt>
      <trkpt lat="45.3283441253006458282470703125" lon="-71.00506455637514591217041015625">
        <ele>635.79998779296875</ele>
        <time>2026-08-21T20:32:04.000Z</time>
        <extensions>
          <ns3:TrackPointExtension>
            <ns3:hr>112</ns3:hr>
            <ns3:cad>0</ns3:cad>
          </ns3:TrackPointExtension>
        </extensions>
      </trkpt>
      <trkpt lat="45.32834420911967754364013671875" lon="-71.0050530731678009033203125">
        <ele>636</ele>
        <time>2026-08-21T20:32:05.000Z</time>
        <extensions>
          <ns3:TrackPointExtension>
            <ns3:hr>112</ns3:hr>
            <ns3:cad>0</ns3:cad>
          </ns3:TrackPointExtension>
        </extensions>
      </trkpt>
      <trkpt lat="45.32834320329129695892333984375" lon="-71.00505030713975429534912109375">
        <ele>636</ele>
        <time>2026-08-21T20:32:06.000Z</time>
        <extensions>
          <ns3:TrackPointExtension>
            <ns3:hr>112</ns3:hr>
            <ns3:cad>0</ns3:cad>
          </ns3:TrackPointExtension>
        </extensions>
      </trkpt>
      <trkpt lat="45.3283414430916309356689453125" lon="-71.00505097769200801849365234375">
        <ele>635.79998779296875</ele>
        <time>2026-08-21T20:32:07.000Z</time>
        <extensions>
          <ns3:TrackPointExtension>
            <ns3:hr>112</ns3:hr>
            <ns3:cad>0</ns3:cad>
          </ns3:TrackPointExtension>
        </extensions>
      </trkpt>
      <trkpt lat="45.32834068872034549713134765625" lon="-71.0050532408058643341064453125">
        <ele>635.79998779296875</ele>
        <time>2026-08-21T20:32:08.000Z</time>
        <extensions>
          <ns3:TrackPointExtension>
            <ns3:hr>113</ns3:hr>
            <ns3:cad>0</ns3:cad>
          </ns3:TrackPointExtension>
        </extensions>
      </trkpt>
      <trkpt lat="45.32833415083587169647216796875" lon="-71.005049049854278564453125">
        <ele>635.5999755859375</ele>
        <time>2026-08-21T20:32:09.000Z</time>
        <extensions>
          <ns3:TrackPointExtension>
            <ns3:hr>113</ns3:hr>
            <ns3:cad>0</ns3:cad>
          </ns3:TrackPointExtension>
        </extensions>
      </trkpt>
      <trkpt lat="45.32833415083587169647216796875" lon="-71.005049049854278564453125">
        <ele>635.5999755859375</ele>
        <time>2026-08-21T20:32:10.000Z</time>
        <extensions>
          <ns3:TrackPointExtension>
            <ns3:hr>113</ns3:hr>
            <ns3:cad>0</ns3:cad>
          </ns3:TrackPointExtension>
        </extensions>
      </trkpt>
      <trkpt lat="45.32833415083587169647216796875" lon="-71.005049049854278564453125">
        <ele>635.4000244140625</ele>
        <time>2026-08-21T20:32:11.000Z</time>
        <extensions>
          <ns3:TrackPointExtension>
            <ns3:hr>112</ns3:hr>
            <ns3:cad>0</ns3:cad>
          </ns3:TrackPointExtension>
        </extensions>
      </trkpt>
      <trkpt lat="45.32833415083587169647216796875" lon="-71.005049049854278564453125">
        <ele>635.4000244140625</ele>
        <time>2026-08-21T20:32:12.000Z</time>
        <extensions>
          <ns3:TrackPointExtension>
            <ns3:hr>112</ns3:hr>
            <ns3:cad>0</ns3:cad>
          </ns3:TrackPointExtension>
        </extensions>
      </trkpt>
      <trkpt lat="45.32833415083587169647216796875" lon="-71.005049049854278564453125">
        <ele>635.4000244140625</ele>
        <time>2026-08-21T20:32:13.000Z</time>
        <extensions>
          <ns3:TrackPointExtension>
            <ns3:hr>112</ns3:hr>
            <ns3:cad>0</ns3:cad>
          </ns3:TrackPointExtension>
        </extensions>
      </trkpt>
      <trkpt lat="45.32833415083587169647216796875" lon="-71.005049049854278564453125">
        <ele>635.4000244140625</ele>
        <time>2026-08-21T20:32:14.000Z</time>
        <extensions>
          <ns3:TrackPointExtension>
            <ns3:hr>112</ns3:hr>
            <ns3:cad>0</ns3:cad>
          </ns3:TrackPointExtension>
        </extensions>
      </trkpt>
      <trkpt lat="45.328342616558074951171875" lon="-71.00505181588232517242431640625">
        <ele>635.5999755859375</ele>
        <time>2026-08-21T20:32:15.000Z</time>
        <extensions>
          <ns3:TrackPointExtension>
            <ns3:hr>111</ns3:hr>
            <ns3:cad>0</ns3:cad>
          </ns3:TrackPointExtension>
        </extensions>
      </trkpt>
      <trkpt lat="45.32834521494805812835693359375" lon="-71.0050525702536106109619140625">
        <ele>635.79998779296875</ele>
        <time>2026-08-21T20:32:16.000Z</time>
        <extensions>
          <ns3:TrackPointExtension>
            <ns3:hr>111</ns3:hr>
            <ns3:cad>0</ns3:cad>
          </ns3:TrackPointExtension>
        </extensions>
      </trkpt>
      <trkpt lat="45.32834940589964389801025390625" lon="-71.0050616227090358734130859375">
        <ele>636</ele>
        <time>2026-08-21T20:32:17.000Z</time>
        <extensions>
          <ns3:TrackPointExtension>
            <ns3:hr>111</ns3:hr>
            <ns3:cad>0</ns3:cad>
          </ns3:TrackPointExtension>
        </extensions>
      </trkpt>
      <trkpt lat="45.3283528424799442291259765625" lon="-71.00507042370736598968505859375">
        <ele>636.20001220703125</ele>
        <time>2026-08-21T20:32:18.000Z</time>
        <extensions>
          <ns3:TrackPointExtension>
            <ns3:hr>111</ns3:hr>
            <ns3:cad>0</ns3:cad>
          </ns3:TrackPointExtension>
        </extensions>
      </trkpt>
      <trkpt lat="45.32835460267961025238037109375" lon="-71.00506874732673168182373046875">
        <ele>636.20001220703125</ele>
        <time>2026-08-21T20:32:19.000Z</time>
        <extensions>
          <ns3:TrackPointExtension>
            <ns3:hr>111</ns3:hr>
            <ns3:cad>0</ns3:cad>
          </ns3:TrackPointExtension>
        </extensions>
      </trkpt>
      <trkpt lat="45.32835661433637142181396484375" lon="-71.00506715476512908935546875">
        <ele>636.20001220703125</ele>
        <time>2026-08-21T20:32:20.000Z</time>
        <extensions>
          <ns3:TrackPointExtension>
            <ns3:hr>111</ns3:hr>
            <ns3:cad>0</ns3:cad>
          </ns3:TrackPointExtension>
        </extensions>
      </trkpt>
      <trkpt lat="45.32835577614605426788330078125" lon="-71.00506313145160675048828125">
        <ele>636</ele>
        <time>2026-08-21T20:32:21.000Z</time>
        <extensions>
          <ns3:TrackPointExtension>
            <ns3:hr>111</ns3:hr>
            <ns3:cad>0</ns3:cad>
          </ns3:TrackPointExtension>
        </extensions>
      </trkpt>
      <trkpt lat="45.32835376448929309844970703125" lon="-71.00505751557648181915283203125">
        <ele>635.79998779296875</ele>
        <time>2026-08-21T20:32:22.000Z</time>
        <extensions>
          <ns3:TrackPointExtension>
            <ns3:hr>110</ns3:hr>
            <ns3:cad>0</ns3:cad>
          </ns3:TrackPointExtension>
        </extensions>
      </trkpt>
      <trkpt lat="45.3283508308231830596923828125" lon="-71.00505684502422809600830078125">
        <ele>635.79998779296875</ele>
        <time>2026-08-21T20:32:23.000Z</time>
        <extensions>
          <ns3:TrackPointExtension>
            <ns3:hr>110</ns3:hr>
            <ns3:cad>0</ns3:cad>
          </ns3:TrackPointExtension>
        </extensions>
      </trkpt>
      <trkpt lat="45.3283508308231830596923828125" lon="-71.00506246089935302734375">
        <ele>635.79998779296875</ele>
        <time>2026-08-21T20:32:24.000Z</time>
        <extensions>
          <ns3:TrackPointExtension>
            <ns3:hr>110</ns3:hr>
            <ns3:cad>0</ns3:cad>
          </ns3:TrackPointExtension>
        </extensions>
      </trkpt>
      <trkpt lat="45.32835175283253192901611328125" lon="-71.00506589747965335845947265625">
        <ele>635.79998779296875</ele>
        <time>2026-08-21T20:32:25.000Z</time>
        <extensions>
          <ns3:TrackPointExtension>
            <ns3:hr>109</ns3:hr>
            <ns3:cad>0</ns3:cad>
          </ns3:TrackPointExtension>
        </extensions>
      </trkpt>
      <trkpt lat="45.32835544086992740631103515625" lon="-71.0050706751644611358642578125">
        <ele>635.79998779296875</ele>
        <time>2026-08-21T20:32:26.000Z</time>
        <extensions>
          <ns3:TrackPointExtension>
            <ns3:hr>109</ns3:hr>
            <ns3:cad>0</ns3:cad>
          </ns3:TrackPointExtension>
        </extensions>
      </trkpt>
      <trkpt lat="45.32835426740348339080810546875" lon="-71.00507595576345920562744140625">
        <ele>635.79998779296875</ele>
        <time>2026-08-21T20:32:27.000Z</time>
        <extensions>
          <ns3:TrackPointExtension>
            <ns3:hr>109</ns3:hr>
            <ns3:cad>0</ns3:cad>
          </ns3:TrackPointExtension>
        </extensions>
      </trkpt>
      <trkpt lat="45.32835460267961025238037109375" lon="-71.00507947616279125213623046875">
        <ele>635.79998779296875</ele>
        <time>2026-08-21T20:32:28.000Z</time>
        <extensions>
          <ns3:TrackPointExtension>
            <ns3:hr>109</ns3:hr>
            <ns3:cad>0</ns3:cad>
          </ns3:TrackPointExtension>
        </extensions>
      </trkpt>
      <trkpt lat="45.3283555246889591217041015625" lon="-71.00508349947631359100341796875">
        <ele>635.79998779296875</ele>
        <time>2026-08-21T20:32:29.000Z</time>
        <extensions>
          <ns3:TrackPointExtension>
            <ns3:hr>111</ns3:hr>
            <ns3:cad>0</ns3:cad>
          </ns3:TrackPointExtension>
        </extensions>
      </trkpt>
      <trkpt lat="45.32835661433637142181396484375" lon="-71.0050887800753116607666015625">
        <ele>635.79998779296875</ele>
        <time>2026-08-21T20:32:30.000Z</time>
        <extensions>
          <ns3:TrackPointExtension>
            <ns3:hr>112</ns3:hr>
            <ns3:cad>0</ns3:cad>
          </ns3:TrackPointExtension>
        </extensions>
      </trkpt>
      <trkpt lat="45.32835644669830799102783203125" lon="-71.0050906240940093994140625">
        <ele>635.5999755859375</ele>
        <time>2026-08-21T20:32:31.000Z</time>
        <extensions>
          <ns3:TrackPointExtension>
            <ns3:hr>112</ns3:hr>
            <ns3:cad>0</ns3:cad>
          </ns3:TrackPointExtension>
        </extensions>
      </trkpt>
      <trkpt lat="45.32835644669830799102783203125" lon="-71.0050904564559459686279296875">
        <ele>635.4000244140625</ele>
        <time>2026-08-21T20:32:32.000Z</time>
        <extensions>
          <ns3:TrackPointExtension>
            <ns3:hr>112</ns3:hr>
            <ns3:cad>0</ns3:cad>
          </ns3:TrackPointExtension>
        </extensions>
      </trkpt>
      <trkpt lat="45.32835644669830799102783203125" lon="-71.0050904564559459686279296875">
        <ele>635.20001220703125</ele>
        <time>2026-08-21T20:32:33.000Z</time>
        <extensions>
          <ns3:TrackPointExtension>
            <ns3:hr>112</ns3:hr>
            <ns3:cad>0</ns3:cad>
          </ns3:TrackPointExtension>
        </extensions>
      </trkpt>
      <trkpt lat="45.32835644669830799102783203125" lon="-71.0050904564559459686279296875">
        <ele>635</ele>
        <time>2026-08-21T20:32:34.000Z</time>
        <extensions>
          <ns3:TrackPointExtension>
            <ns3:hr>113</ns3:hr>
            <ns3:cad>0</ns3:cad>
          </ns3:TrackPointExtension>
        </extensions>
      </trkpt>
      <trkpt lat="45.32835644669830799102783203125" lon="-71.0050904564559459686279296875">
        <ele>634.79998779296875</ele>
        <time>2026-08-21T20:32:35.000Z</time>
        <extensions>
          <ns3:TrackPointExtension>
            <ns3:hr>113</ns3:hr>
            <ns3:cad>0</ns3:cad>
          </ns3:TrackPointExtension>
        </extensions>
      </trkpt>
      <trkpt lat="45.32835644669830799102783203125" lon="-71.0050904564559459686279296875">
        <ele>634.79998779296875</ele>
        <time>2026-08-21T20:32:36.000Z</time>
        <extensions>
          <ns3:TrackPointExtension>
            <ns3:hr>112</ns3:hr>
            <ns3:cad>0</ns3:cad>
          </ns3:TrackPointExtension>
        </extensions>
      </trkpt>
      <trkpt lat="45.32835644669830799102783203125" lon="-71.0050904564559459686279296875">
        <ele>635</ele>
        <time>2026-08-21T20:32:37.000Z</time>
        <extensions>
          <ns3:TrackPointExtension>
            <ns3:hr>112</ns3:hr>
            <ns3:cad>0</ns3:cad>
          </ns3:TrackPointExtension>
        </extensions>
      </trkpt>
      <trkpt lat="45.32835644669830799102783203125" lon="-71.0050904564559459686279296875">
        <ele>635</ele>
        <time>2026-08-21T20:32:38.000Z</time>
        <extensions>
          <ns3:TrackPointExtension>
            <ns3:hr>112</ns3:hr>
            <ns3:cad>0</ns3:cad>
          </ns3:TrackPointExtension>
        </extensions>
      </trkpt>
      <trkpt lat="45.32835644669830799102783203125" lon="-71.0050904564559459686279296875">
        <ele>635</ele>
        <time>2026-08-21T20:32:39.000Z</time>
        <extensions>
          <ns3:TrackPointExtension>
            <ns3:hr>112</ns3:hr>
            <ns3:cad>0</ns3:cad>
          </ns3:TrackPointExtension>
        </extensions>
      </trkpt>
      <trkpt lat="45.32835644669830799102783203125" lon="-71.0050904564559459686279296875">
        <ele>635</ele>
        <time>2026-08-21T20:32:40.000Z</time>
        <extensions>
          <ns3:TrackPointExtension>
            <ns3:hr>112</ns3:hr>
            <ns3:cad>0</ns3:cad>
          </ns3:TrackPointExtension>
        </extensions>
      </trkpt>
      <trkpt lat="45.32835644669830799102783203125" lon="-71.0050904564559459686279296875">
        <ele>635</ele>
        <time>2026-08-21T20:32:41.000Z</time>
        <extensions>
          <ns3:TrackPointExtension>
            <ns3:hr>112</ns3:hr>
            <ns3:cad>0</ns3:cad>
          </ns3:TrackPointExtension>
        </extensions>
      </trkpt>
      <trkpt lat="45.32835644669830799102783203125" lon="-71.0050904564559459686279296875">
        <ele>635</ele>
        <time>2026-08-21T20:32:42.000Z</time>
        <extensions>
          <ns3:TrackPointExtension>
            <ns3:hr>113</ns3:hr>
            <ns3:cad>0</ns3:cad>
          </ns3:TrackPointExtension>
        </extensions>
      </trkpt>
      <trkpt lat="45.32835644669830799102783203125" lon="-71.0050904564559459686279296875">
        <ele>635</ele>
        <time>2026-08-21T20:32:43.000Z</time>
        <extensions>
          <ns3:TrackPointExtension>
            <ns3:hr>112</ns3:hr>
            <ns3:cad>0</ns3:cad>
          </ns3:TrackPointExtension>
        </extensions>
      </trkpt>
      <trkpt lat="45.32835644669830799102783203125" lon="-71.0050904564559459686279296875">
        <ele>635</ele>
        <time>2026-08-21T20:32:44.000Z</time>
        <extensions>
          <ns3:TrackPointExtension>
            <ns3:hr>112</ns3:hr>
            <ns3:cad>0</ns3:cad>
          </ns3:TrackPointExtension>
        </extensions>
      </trkpt>
      <trkpt lat="45.32835644669830799102783203125" lon="-71.0050904564559459686279296875">
        <ele>635</ele>
        <time>2026-08-21T20:32:45.000Z</time>
        <extensions>
          <ns3:TrackPointExtension>
            <ns3:hr>112</ns3:hr>
            <ns3:cad>0</ns3:cad>
          </ns3:TrackPointExtension>
        </extensions>
      </trkpt>
      <trkpt lat="45.32835644669830799102783203125" lon="-71.0050904564559459686279296875">
        <ele>635</ele>
        <time>2026-08-21T20:32:46.000Z</time>
        <extensions>
          <ns3:TrackPointExtension>
            <ns3:hr>112</ns3:hr>
            <ns3:cad>0</ns3:cad>
          </ns3:TrackPointExtension>
        </extensions>
      </trkpt>
      <trkpt lat="45.32835644669830799102783203125" lon="-71.0050904564559459686279296875">
        <ele>635.20001220703125</ele>
        <time>2026-08-21T20:32:47.000Z</time>
        <extensions>
          <ns3:TrackPointExtension>
            <ns3:hr>112</ns3:hr>
            <ns3:cad>0</ns3:cad>
          </ns3:TrackPointExtension>
        </extensions>
      </trkpt>
      <trkpt lat="45.32835644669830799102783203125" lon="-71.0050904564559459686279296875">
        <ele>635.20001220703125</ele>
        <time>2026-08-21T20:32:48.000Z</time>
        <extensions>
          <ns3:TrackPointExtension>
            <ns3:hr>111</ns3:hr>
            <ns3:cad>0</ns3:cad>
          </ns3:TrackPointExtension>
        </extensions>
      </trkpt>
      <trkpt lat="45.32835644669830799102783203125" lon="-71.0050904564559459686279296875">
        <ele>635.4000244140625</ele>
        <time>2026-08-21T20:32:49.000Z</time>
        <extensions>
          <ns3:TrackPointExtension>
            <ns3:hr>110</ns3:hr>
            <ns3:cad>0</ns3:cad>
          </ns3:TrackPointExtension>
        </extensions>
      </trkpt>
      <trkpt lat="45.3283642418682575225830078125" lon="-71.00508685223758220672607421875">
        <ele>635.5999755859375</ele>
        <time>2026-08-21T20:32:50.000Z</time>
        <extensions>
          <ns3:TrackPointExtension>
            <ns3:hr>108</ns3:hr>
            <ns3:cad>0</ns3:cad>
          </ns3:TrackPointExtension>
        </extensions>
      </trkpt>
      <trkpt lat="45.3283635713160037994384765625" lon="-71.00507729686796665191650390625">
        <ele>635.79998779296875</ele>
        <time>2026-08-21T20:32:51.000Z</time>
        <extensions>
          <ns3:TrackPointExtension>
            <ns3:hr>105</ns3:hr>
            <ns3:cad>0</ns3:cad>
          </ns3:TrackPointExtension>
        </extensions>
      </trkpt>
      <trkpt lat="45.32836147584021091461181640625" lon="-71.00507763214409351348876953125">
        <ele>636.20001220703125</ele>
        <time>2026-08-21T20:32:52.000Z</time>
        <extensions>
          <ns3:TrackPointExtension>
            <ns3:hr>101</ns3:hr>
            <ns3:cad>0</ns3:cad>
          </ns3:TrackPointExtension>
        </extensions>
      </trkpt>
      <trkpt lat="45.328359715640544891357421875" lon="-71.00506589747965335845947265625">
        <ele>636.20001220703125</ele>
        <time>2026-08-21T20:32:53.000Z</time>
        <extensions>
          <ns3:TrackPointExtension>
            <ns3:hr>99</ns3:hr>
            <ns3:cad>0</ns3:cad>
          </ns3:TrackPointExtension>
        </extensions>
      </trkpt>
      <trkpt lat="45.3283558599650859832763671875" lon="-71.005042679607868194580078125">
        <ele>636.4000244140625</ele>
        <time>2026-08-21T20:32:54.000Z</time>
        <extensions>
          <ns3:TrackPointExtension>
            <ns3:hr>95</ns3:hr>
            <ns3:cad>0</ns3:cad>
          </ns3:TrackPointExtension>
        </extensions>
      </trkpt>
      <trkpt lat="45.3283525072038173675537109375" lon="-71.00503538735210895538330078125">
        <ele>636.4000244140625</ele>
        <time>2026-08-21T20:32:55.000Z</time>
        <extensions>
          <ns3:TrackPointExtension>
            <ns3:hr>93</ns3:hr>
            <ns3:cad>0</ns3:cad>
          </ns3:TrackPointExtension>
        </extensions>
      </trkpt>
      <trkpt lat="45.32834420911967754364013671875" lon="-71.00502734072506427764892578125">
        <ele>636.4000244140625</ele>
        <time>2026-08-21T20:32:56.000Z</time>
        <extensions>
          <ns3:TrackPointExtension>
            <ns3:hr>93</ns3:hr>
            <ns3:cad>0</ns3:cad>
          </ns3:TrackPointExtension>
        </extensions>
      </trkpt>
      <trkpt lat="45.3283421136438846588134765625" lon="-71.00502868182957172393798828125">
        <ele>636.4000244140625</ele>
        <time>2026-08-21T20:32:57.000Z</time>
        <extensions>
          <ns3:TrackPointExtension>
            <ns3:hr>92</ns3:hr>
            <ns3:cad>0</ns3:cad>
          </ns3:TrackPointExtension>
        </extensions>
      </trkpt>
      <trkpt lat="45.3283427841961383819580078125" lon="-71.0050284303724765777587890625">
        <ele>636.4000244140625</ele>
        <time>2026-08-21T20:32:58.000Z</time>
        <extensions>
          <ns3:TrackPointExtension>
            <ns3:hr>92</ns3:hr>
            <ns3:cad>0</ns3:cad>
          </ns3:TrackPointExtension>
        </extensions>
      </trkpt>
      <trkpt lat="45.328343622386455535888671875" lon="-71.00502960383892059326171875">
        <ele>636.4000244140625</ele>
        <time>2026-08-21T20:32:59.000Z</time>
        <extensions>
          <ns3:TrackPointExtension>
            <ns3:hr>92</ns3:hr>
            <ns3:cad>0</ns3:cad>
          </ns3:TrackPointExtension>
        </extensions>
      </trkpt>
      <trkpt lat="45.32834370620548725128173828125" lon="-71.00502985529601573944091796875">
        <ele>636.4000244140625</ele>
        <time>2026-08-21T20:33:00.000Z</time>
        <extensions>
          <ns3:TrackPointExtension>
            <ns3:hr>92</ns3:hr>
            <ns3:cad>0</ns3:cad>
          </ns3:TrackPointExtension>
        </extensions>
      </trkpt>
      <trkpt lat="45.32834370620548725128173828125" lon="-71.00502985529601573944091796875">
        <ele>636.4000244140625</ele>
        <time>2026-08-21T20:33:01.000Z</time>
        <extensions>
          <ns3:TrackPointExtension>
            <ns3:hr>92</ns3:hr>
            <ns3:cad>0</ns3:cad>
          </ns3:TrackPointExtension>
        </extensions>
      </trkpt>
      <trkpt lat="45.32834370620548725128173828125" lon="-71.00502985529601573944091796875">
        <ele>636.4000244140625</ele>
        <time>2026-08-21T20:33:02.000Z</time>
        <extensions>
          <ns3:TrackPointExtension>
            <ns3:hr>97</ns3:hr>
            <ns3:cad>0</ns3:cad>
          </ns3:TrackPointExtension>
        </extensions>
      </trkpt>
      <trkpt lat="45.32834370620548725128173828125" lon="-71.00502985529601573944091796875">
        <ele>636.4000244140625</ele>
        <time>2026-08-21T20:33:03.000Z</time>
        <extensions>
          <ns3:TrackPointExtension>
            <ns3:hr>101</ns3:hr>
            <ns3:cad>0</ns3:cad>
          </ns3:TrackPointExtension>
        </extensions>
      </trkpt>
      <trkpt lat="45.32834404148161411285400390625" lon="-71.00503069348633289337158203125">
        <ele>636.4000244140625</ele>
        <time>2026-08-21T20:33:04.000Z</time>
        <extensions>
          <ns3:TrackPointExtension>
            <ns3:hr>112</ns3:hr>
            <ns3:cad>0</ns3:cad>
          </ns3:TrackPointExtension>
        </extensions>
      </trkpt>
      <trkpt lat="45.32835267484188079833984375" lon="-71.00504167377948760986328125">
        <ele>636.4000244140625</ele>
        <time>2026-08-21T20:33:05.000Z</time>
        <extensions>
          <ns3:TrackPointExtension>
            <ns3:hr>115</ns3:hr>
            <ns3:cad>0</ns3:cad>
          </ns3:TrackPointExtension>
        </extensions>
      </trkpt>
      <trkpt lat="45.32835946418344974517822265625" lon="-71.00504796020686626434326171875">
        <ele>636.4000244140625</ele>
        <time>2026-08-21T20:33:06.000Z</time>
        <extensions>
          <ns3:TrackPointExtension>
            <ns3:hr>116</ns3:hr>
            <ns3:cad>0</ns3:cad>
          </ns3:TrackPointExtension>
        </extensions>
      </trkpt>
      <trkpt lat="45.32836415804922580718994140625" lon="-71.00504896603524684906005859375">
        <ele>636.20001220703125</ele>
        <time>2026-08-21T20:33:07.000Z</time>
        <extensions>
          <ns3:TrackPointExtension>
            <ns3:hr>116</ns3:hr>
            <ns3:cad>0</ns3:cad>
          </ns3:TrackPointExtension>
        </extensions>
      </trkpt>
      <trkpt lat="45.328365750610828399658203125" lon="-71.005046367645263671875">
        <ele>636.20001220703125</ele>
        <time>2026-08-21T20:33:08.000Z</time>
        <extensions>
          <ns3:TrackPointExtension>
            <ns3:hr>116</ns3:hr>
            <ns3:cad>0</ns3:cad>
          </ns3:TrackPointExtension>
        </extensions>
      </trkpt>
      <trkpt lat="45.328365750610828399658203125" lon="-71.005046367645263671875">
        <ele>636.20001220703125</ele>
        <time>2026-08-21T20:33:09.000Z</time>
        <extensions>
          <ns3:TrackPointExtension>
            <ns3:hr>117</ns3:hr>
            <ns3:cad>0</ns3:cad>
          </ns3:TrackPointExtension>
        </extensions>
      </trkpt>
      <trkpt lat="45.328365750610828399658203125" lon="-71.005046367645263671875">
        <ele>636.20001220703125</ele>
        <time>2026-08-21T20:33:10.000Z</time>
        <extensions>
          <ns3:TrackPointExtension>
            <ns3:hr>117</ns3:hr>
            <ns3:cad>0</ns3:cad>
          </ns3:TrackPointExtension>
        </extensions>
      </trkpt>
      <trkpt lat="45.328365750610828399658203125" lon="-71.005046367645263671875">
        <ele>636.4000244140625</ele>
        <time>2026-08-21T20:33:11.000Z</time>
        <extensions>
          <ns3:TrackPointExtension>
            <ns3:hr>117</ns3:hr>
            <ns3:cad>0</ns3:cad>
          </ns3:TrackPointExtension>
        </extensions>
      </trkpt>
      <trkpt lat="45.328365750610828399658203125" lon="-71.005046367645263671875">
        <ele>636.4000244140625</ele>
        <time>2026-08-21T20:33:12.000Z</time>
        <extensions>
          <ns3:TrackPointExtension>
            <ns3:hr>118</ns3:hr>
            <ns3:cad>0</ns3:cad>
          </ns3:TrackPointExtension>
        </extensions>
      </trkpt>
      <trkpt lat="45.328365750610828399658203125" lon="-71.005046367645263671875">
        <ele>636.4000244140625</ele>
        <time>2026-08-21T20:33:13.000Z</time>
        <extensions>
          <ns3:TrackPointExtension>
            <ns3:hr>118</ns3:hr>
            <ns3:cad>0</ns3:cad>
          </ns3:TrackPointExtension>
        </extensions>
      </trkpt>
      <trkpt lat="45.328365750610828399658203125" lon="-71.005046367645263671875">
        <ele>636.4000244140625</ele>
        <time>2026-08-21T20:33:14.000Z</time>
        <extensions>
          <ns3:TrackPointExtension>
            <ns3:hr>118</ns3:hr>
            <ns3:cad>0</ns3:cad>
          </ns3:TrackPointExtension>
        </extensions>
      </trkpt>
      <trkpt lat="45.328365750610828399658203125" lon="-71.005046367645263671875">
        <ele>636.20001220703125</ele>
        <time>2026-08-21T20:33:15.000Z</time>
        <extensions>
          <ns3:TrackPointExtension>
            <ns3:hr>118</ns3:hr>
            <ns3:cad>0</ns3:cad>
          </ns3:TrackPointExtension>
        </extensions>
      </trkpt>
      <trkpt lat="45.328365750610828399658203125" lon="-71.005046367645263671875">
        <ele>636</ele>
        <time>2026-08-21T20:33:16.000Z</time>
        <extensions>
          <ns3:TrackPointExtension>
            <ns3:hr>118</ns3:hr>
            <ns3:cad>0</ns3:cad>
          </ns3:TrackPointExtension>
        </extensions>
      </trkpt>
      <trkpt lat="45.328365750610828399658203125" lon="-71.005046367645263671875">
        <ele>635.79998779296875</ele>
        <time>2026-08-21T20:33:17.000Z</time>
        <extensions>
          <ns3:TrackPointExtension>
            <ns3:hr>117</ns3:hr>
            <ns3:cad>0</ns3:cad>
          </ns3:TrackPointExtension>
        </extensions>
      </trkpt>
      <trkpt lat="45.32836331985890865325927734375" lon="-71.005049049854278564453125">
        <ele>635.5999755859375</ele>
        <time>2026-08-21T20:33:18.000Z</time>
        <extensions>
          <ns3:TrackPointExtension>
            <ns3:hr>116</ns3:hr>
            <ns3:cad>0</ns3:cad>
          </ns3:TrackPointExtension>
        </extensions>
      </trkpt>
      <trkpt lat="45.3283612243831157684326171875" lon="-71.00504427216947078704833984375">
        <ele>635.5999755859375</ele>
        <time>2026-08-21T20:33:19.000Z</time>
        <extensions>
          <ns3:TrackPointExtension>
            <ns3:hr>116</ns3:hr>
            <ns3:cad>0</ns3:cad>
          </ns3:TrackPointExtension>
        </extensions>
      </trkpt>
      <trkpt lat="45.3283582068979740142822265625" lon="-71.005038656294345855712890625">
        <ele>635.79998779296875</ele>
        <time>2026-08-21T20:33:20.000Z</time>
        <extensions>
          <ns3:TrackPointExtension>
            <ns3:hr>116</ns3:hr>
            <ns3:cad>0</ns3:cad>
          </ns3:TrackPointExtension>
        </extensions>
      </trkpt>
      <trkpt lat="45.3283471427857875823974609375" lon="-71.00503287278115749359130859375">
        <ele>636</ele>
        <time>2026-08-21T20:33:21.000Z</time>
        <extensions>
          <ns3:TrackPointExtension>
            <ns3:hr>116</ns3:hr>
            <ns3:cad>0</ns3:cad>
          </ns3:TrackPointExtension>
        </extensions>
      </trkpt>
      <trkpt lat="45.328336916863918304443359375" lon="-71.00503496825695037841796875">
        <ele>636.20001220703125</ele>
        <time>2026-08-21T20:33:22.000Z</time>
        <extensions>
          <ns3:TrackPointExtension>
            <ns3:hr>116</ns3:hr>
            <ns3:cad>0</ns3:cad>
          </ns3:TrackPointExtension>
        </extensions>
      </trkpt>
      <trkpt lat="45.32833331264555454254150390625" lon="-71.0050331242382526397705078125">
        <ele>636.20001220703125</ele>
        <time>2026-08-21T20:33:23.000Z</time>
        <extensions>
          <ns3:TrackPointExtension>
            <ns3:hr>116</ns3:hr>
            <ns3:cad>41</ns3:cad>
          </ns3:TrackPointExtension>
        </extensions>
      </trkpt>
      <trkpt lat="45.32833113335072994232177734375" lon="-71.0050274245440959930419921875">
        <ele>636.20001220703125</ele>
        <time>2026-08-21T20:33:24.000Z</time>
        <extensions>
          <ns3:TrackPointExtension>
            <ns3:hr>116</ns3:hr>
            <ns3:cad>41</ns3:cad>
          </ns3:TrackPointExtension>
        </extensions>
      </trkpt>
      <trkpt lat="45.3283307142555713653564453125" lon="-71.005031950771808624267578125">
        <ele>636.20001220703125</ele>
        <time>2026-08-21T20:33:25.000Z</time>
        <extensions>
          <ns3:TrackPointExtension>
            <ns3:hr>117</ns3:hr>
            <ns3:cad>41</ns3:cad>
          </ns3:TrackPointExtension>
        </extensions>
      </trkpt>
      <trkpt lat="45.32833180390298366546630859375" lon="-71.0050317831337451934814453125">
        <ele>636</ele>
        <time>2026-08-21T20:33:26.000Z</time>
        <extensions>
          <ns3:TrackPointExtension>
            <ns3:hr>116</ns3:hr>
            <ns3:cad>0</ns3:cad>
          </ns3:TrackPointExtension>
        </extensions>
      </trkpt>
      <trkpt lat="45.32833012752234935760498046875" lon="-71.00503270514309406280517578125">
        <ele>636</ele>
        <time>2026-08-21T20:33:27.000Z</time>
        <extensions>
          <ns3:TrackPointExtension>
            <ns3:hr>116</ns3:hr>
            <ns3:cad>0</ns3:cad>
          </ns3:TrackPointExtension>
        </extensions>
      </trkpt>
      <trkpt lat="45.32833012752234935760498046875" lon="-71.00503270514309406280517578125">
        <ele>636</ele>
        <time>2026-08-21T20:33:28.000Z</time>
        <extensions>
          <ns3:TrackPointExtension>
            <ns3:hr>118</ns3:hr>
            <ns3:cad>0</ns3:cad>
          </ns3:TrackPointExtension>
        </extensions>
      </trkpt>
      <trkpt lat="45.32833012752234935760498046875" lon="-71.00503270514309406280517578125">
        <ele>636</ele>
        <time>2026-08-21T20:33:29.000Z</time>
        <extensions>
          <ns3:TrackPointExtension>
            <ns3:hr>119</ns3:hr>
            <ns3:cad>0</ns3:cad>
          </ns3:TrackPointExtension>
        </extensions>
      </trkpt>
      <trkpt lat="45.32833012752234935760498046875" lon="-71.00503270514309406280517578125">
        <ele>636</ele>
        <time>2026-08-21T20:33:30.000Z</time>
        <extensions>
          <ns3:TrackPointExtension>
            <ns3:hr>119</ns3:hr>
            <ns3:cad>0</ns3:cad>
          </ns3:TrackPointExtension>
        </extensions>
      </trkpt>
      <trkpt lat="45.32833012752234935760498046875" lon="-71.00503270514309406280517578125">
        <ele>636</ele>
        <time>2026-08-21T20:33:31.000Z</time>
        <extensions>
          <ns3:TrackPointExtension>
            <ns3:hr>117</ns3:hr>
            <ns3:cad>0</ns3:cad>
          </ns3:TrackPointExtension>
        </extensions>
      </trkpt>
      <trkpt lat="45.32833012752234935760498046875" lon="-71.00503270514309406280517578125">
        <ele>636</ele>
        <time>2026-08-21T20:33:32.000Z</time>
        <extensions>
          <ns3:TrackPointExtension>
            <ns3:hr>115</ns3:hr>
            <ns3:cad>0</ns3:cad>
          </ns3:TrackPointExtension>
        </extensions>
      </trkpt>
      <trkpt lat="45.32833012752234935760498046875" lon="-71.00503270514309406280517578125">
        <ele>636</ele>
        <time>2026-08-21T20:33:33.000Z</time>
        <extensions>
          <ns3:TrackPointExtension>
            <ns3:hr>113</ns3:hr>
            <ns3:cad>0</ns3:cad>
          </ns3:TrackPointExtension>
        </extensions>
      </trkpt>
      <trkpt lat="45.32833012752234935760498046875" lon="-71.00503270514309406280517578125">
        <ele>636</ele>
        <time>2026-08-21T20:33:34.000Z</time>
        <extensions>
          <ns3:TrackPointExtension>
            <ns3:hr>113</ns3:hr>
            <ns3:cad>0</ns3:cad>
          </ns3:TrackPointExtension>
        </extensions>
      </trkpt>
      <trkpt lat="45.32833012752234935760498046875" lon="-71.00503270514309406280517578125">
        <ele>636</ele>
        <time>2026-08-21T20:33:35.000Z</time>
        <extensions>
          <ns3:TrackPointExtension>
            <ns3:hr>112</ns3:hr>
            <ns3:cad>0</ns3:cad>
          </ns3:TrackPointExtension>
        </extensions>
      </trkpt>
      <trkpt lat="45.32833012752234935760498046875" lon="-71.00503270514309406280517578125">
        <ele>636</ele>
        <time>2026-08-21T20:33:36.000Z</time>
        <extensions>
          <ns3:TrackPointExtension>
            <ns3:hr>112</ns3:hr>
            <ns3:cad>0</ns3:cad>
          </ns3:TrackPointExtension>
        </extensions>
      </trkpt>
      <trkpt lat="45.32833012752234935760498046875" lon="-71.00503270514309406280517578125">
        <ele>636</ele>
        <time>2026-08-21T20:33:37.000Z</time>
        <extensions>
          <ns3:TrackPointExtension>
            <ns3:hr>112</ns3:hr>
            <ns3:cad>0</ns3:cad>
          </ns3:TrackPointExtension>
        </extensions>
      </trkpt>
      <trkpt lat="45.32832962460815906524658203125" lon="-71.00503320805728435516357421875">
        <ele>636</ele>
        <time>2026-08-21T20:33:38.000Z</time>
        <extensions>
          <ns3:TrackPointExtension>
            <ns3:hr>112</ns3:hr>
            <ns3:cad>64</ns3:cad>
          </ns3:TrackPointExtension>
        </extensions>
      </trkpt>
      <trkpt lat="45.3283287025988101959228515625" lon="-71.0050289332866668701171875">
        <ele>636</ele>
        <time>2026-08-21T20:33:39.000Z</time>
        <extensions>
          <ns3:TrackPointExtension>
            <ns3:hr>112</ns3:hr>
            <ns3:cad>64</ns3:cad>
          </ns3:TrackPointExtension>
        </extensions>
      </trkpt>
      <trkpt lat="45.32832451164722442626953125" lon="-71.00503371097147464752197265625">
        <ele>636</ele>
        <time>2026-08-21T20:33:40.000Z</time>
        <extensions>
          <ns3:TrackPointExtension>
            <ns3:hr>112</ns3:hr>
            <ns3:cad>0</ns3:cad>
          </ns3:TrackPointExtension>
        </extensions>
      </trkpt>
      <trkpt lat="45.3283287025988101959228515625" lon="-71.00502767600119113922119140625">
        <ele>635.79998779296875</ele>
        <time>2026-08-21T20:33:41.000Z</time>
        <extensions>
          <ns3:TrackPointExtension>
            <ns3:hr>111</ns3:hr>
            <ns3:cad>0</ns3:cad>
          </ns3:TrackPointExtension>
        </extensions>
      </trkpt>
      <trkpt lat="45.32832845114171504974365234375" lon="-71.00502952001988887786865234375">
        <ele>635.79998779296875</ele>
        <time>2026-08-21T20:33:42.000Z</time>
        <extensions>
          <ns3:TrackPointExtension>
            <ns3:hr>112</ns3:hr>
            <ns3:cad>0</ns3:cad>
          </ns3:TrackPointExtension>
        </extensions>
      </trkpt>
      <trkpt lat="45.32833012752234935760498046875" lon="-71.00503270514309406280517578125">
        <ele>635.79998779296875</ele>
        <time>2026-08-21T20:33:43.000Z</time>
        <extensions>
          <ns3:TrackPointExtension>
            <ns3:hr>113</ns3:hr>
            <ns3:cad>0</ns3:cad>
          </ns3:TrackPointExtension>
        </extensions>
      </trkpt>
      <trkpt lat="45.32833012752234935760498046875" lon="-71.00503270514309406280517578125">
        <ele>635.79998779296875</ele>
        <time>2026-08-21T20:33:44.000Z</time>
        <extensions>
          <ns3:TrackPointExtension>
            <ns3:hr>113</ns3:hr>
            <ns3:cad>0</ns3:cad>
          </ns3:TrackPointExtension>
        </extensions>
      </trkpt>
      <trkpt lat="45.32833012752234935760498046875" lon="-71.00503270514309406280517578125">
        <ele>635.79998779296875</ele>
        <time>2026-08-21T20:33:45.000Z</time>
        <extensions>
          <ns3:TrackPointExtension>
            <ns3:hr>114</ns3:hr>
            <ns3:cad>0</ns3:cad>
          </ns3:TrackPointExtension>
        </extensions>
      </trkpt>
      <trkpt lat="45.32833012752234935760498046875" lon="-71.00503270514309406280517578125">
        <ele>635.79998779296875</ele>
        <time>2026-08-21T20:33:46.000Z</time>
        <extensions>
          <ns3:TrackPointExtension>
            <ns3:hr>117</ns3:hr>
            <ns3:cad>0</ns3:cad>
          </ns3:TrackPointExtension>
        </extensions>
      </trkpt>
      <trkpt lat="45.32833012752234935760498046875" lon="-71.00503270514309406280517578125">
        <ele>635.79998779296875</ele>
        <time>2026-08-21T20:33:47.000Z</time>
        <extensions>
          <ns3:TrackPointExtension>
            <ns3:hr>117</ns3:hr>
            <ns3:cad>0</ns3:cad>
          </ns3:TrackPointExtension>
        </extensions>
      </trkpt>
      <trkpt lat="45.32833012752234935760498046875" lon="-71.00503270514309406280517578125">
        <ele>635.79998779296875</ele>
        <time>2026-08-21T20:33:48.000Z</time>
        <extensions>
          <ns3:TrackPointExtension>
            <ns3:hr>116</ns3:hr>
            <ns3:cad>0</ns3:cad>
          </ns3:TrackPointExtension>
        </extensions>
      </trkpt>
      <trkpt lat="45.32833012752234935760498046875" lon="-71.00503270514309406280517578125">
        <ele>635.79998779296875</ele>
        <time>2026-08-21T20:33:49.000Z</time>
        <extensions>
          <ns3:TrackPointExtension>
            <ns3:hr>116</ns3:hr>
            <ns3:cad>0</ns3:cad>
          </ns3:TrackPointExtension>
        </extensions>
      </trkpt>
      <trkpt lat="45.32833012752234935760498046875" lon="-71.00503270514309406280517578125">
        <ele>635.79998779296875</ele>
        <time>2026-08-21T20:33:50.000Z</time>
        <extensions>
          <ns3:TrackPointExtension>
            <ns3:hr>115</ns3:hr>
            <ns3:cad>0</ns3:cad>
          </ns3:TrackPointExtension>
        </extensions>
      </trkpt>
      <trkpt lat="45.32833012752234935760498046875" lon="-71.00503270514309406280517578125">
        <ele>635.79998779296875</ele>
        <time>2026-08-21T20:33:51.000Z</time>
        <extensions>
          <ns3:TrackPointExtension>
            <ns3:hr>115</ns3:hr>
            <ns3:cad>0</ns3:cad>
          </ns3:TrackPointExtension>
        </extensions>
      </trkpt>
      <trkpt lat="45.32833012752234935760498046875" lon="-71.00503270514309406280517578125">
        <ele>635.79998779296875</ele>
        <time>2026-08-21T20:33:52.000Z</time>
        <extensions>
          <ns3:TrackPointExtension>
            <ns3:hr>115</ns3:hr>
            <ns3:cad>0</ns3:cad>
          </ns3:TrackPointExtension>
        </extensions>
      </trkpt>
      <trkpt lat="45.32833012752234935760498046875" lon="-71.00503270514309406280517578125">
        <ele>635.79998779296875</ele>
        <time>2026-08-21T20:33:53.000Z</time>
        <extensions>
          <ns3:TrackPointExtension>
            <ns3:hr>116</ns3:hr>
            <ns3:cad>0</ns3:cad>
          </ns3:TrackPointExtension>
        </extensions>
      </trkpt>
      <trkpt lat="45.32833012752234935760498046875" lon="-71.00503270514309406280517578125">
        <ele>635.79998779296875</ele>
        <time>2026-08-21T20:33:54.000Z</time>
        <extensions>
          <ns3:TrackPointExtension>
            <ns3:hr>117</ns3:hr>
            <ns3:cad>0</ns3:cad>
          </ns3:TrackPointExtension>
        </extensions>
      </trkpt>
      <trkpt lat="45.32833012752234935760498046875" lon="-71.00503270514309406280517578125">
        <ele>635.5999755859375</ele>
        <time>2026-08-21T20:33:55.000Z</time>
        <extensions>
          <ns3:TrackPointExtension>
            <ns3:hr>118</ns3:hr>
            <ns3:cad>0</ns3:cad>
          </ns3:TrackPointExtension>
        </extensions>
      </trkpt>
      <trkpt lat="45.32833012752234935760498046875" lon="-71.00503270514309406280517578125">
        <ele>635.5999755859375</ele>
        <time>2026-08-21T20:33:56.000Z</time>
        <extensions>
          <ns3:TrackPointExtension>
            <ns3:hr>117</ns3:hr>
            <ns3:cad>0</ns3:cad>
          </ns3:TrackPointExtension>
        </extensions>
      </trkpt>
      <trkpt lat="45.32833012752234935760498046875" lon="-71.00503270514309406280517578125">
        <ele>635.5999755859375</ele>
        <time>2026-08-21T20:33:57.000Z</time>
        <extensions>
          <ns3:TrackPointExtension>
            <ns3:hr>117</ns3:hr>
            <ns3:cad>0</ns3:cad>
          </ns3:TrackPointExtension>
        </extensions>
      </trkpt>
      <trkpt lat="45.32833012752234935760498046875" lon="-71.00503270514309406280517578125">
        <ele>635.5999755859375</ele>
        <time>2026-08-21T20:33:58.000Z</time>
        <extensions>
          <ns3:TrackPointExtension>
            <ns3:hr>118</ns3:hr>
            <ns3:cad>0</ns3:cad>
          </ns3:TrackPointExtension>
        </extensions>
      </trkpt>
      <trkpt lat="45.32833012752234935760498046875" lon="-71.00503270514309406280517578125">
        <ele>635.5999755859375</ele>
        <time>2026-08-21T20:33:59.000Z</time>
        <extensions>
          <ns3:TrackPointExtension>
            <ns3:hr>118</ns3:hr>
            <ns3:cad>0</ns3:cad>
          </ns3:TrackPointExtension>
        </extensions>
      </trkpt>
      <trkpt lat="45.32833012752234935760498046875" lon="-71.00503270514309406280517578125">
        <ele>635.5999755859375</ele>
        <time>2026-08-21T20:34:00.000Z</time>
        <extensions>
          <ns3:TrackPointExtension>
            <ns3:hr>117</ns3:hr>
            <ns3:cad>0</ns3:cad>
          </ns3:TrackPointExtension>
        </extensions>
      </trkpt>
      <trkpt lat="45.32833012752234935760498046875" lon="-71.00503270514309406280517578125">
        <ele>635.5999755859375</ele>
        <time>2026-08-21T20:34:01.000Z</time>
        <extensions>
          <ns3:TrackPointExtension>
            <ns3:hr>117</ns3:hr>
            <ns3:cad>0</ns3:cad>
          </ns3:TrackPointExtension>
        </extensions>
      </trkpt>
      <trkpt lat="45.32833012752234935760498046875" lon="-71.00503270514309406280517578125">
        <ele>635.79998779296875</ele>
        <time>2026-08-21T20:34:02.000Z</time>
        <extensions>
          <ns3:TrackPointExtension>
            <ns3:hr>116</ns3:hr>
            <ns3:cad>0</ns3:cad>
          </ns3:TrackPointExtension>
        </extensions>
      </trkpt>
      <trkpt lat="45.32833012752234935760498046875" lon="-71.00503270514309406280517578125">
        <ele>635.5999755859375</ele>
        <time>2026-08-21T20:34:03.000Z</time>
        <extensions>
          <ns3:TrackPointExtension>
            <ns3:hr>115</ns3:hr>
            <ns3:cad>0</ns3:cad>
          </ns3:TrackPointExtension>
        </extensions>
      </trkpt>
      <trkpt lat="45.32833012752234935760498046875" lon="-71.00503270514309406280517578125">
        <ele>635.5999755859375</ele>
        <time>2026-08-21T20:34:04.000Z</time>
        <extensions>
          <ns3:TrackPointExtension>
            <ns3:hr>114</ns3:hr>
            <ns3:cad>0</ns3:cad>
          </ns3:TrackPointExtension>
        </extensions>
      </trkpt>
      <trkpt lat="45.32833012752234935760498046875" lon="-71.00503270514309406280517578125">
        <ele>635.79998779296875</ele>
        <time>2026-08-21T20:34:05.000Z</time>
        <extensions>
          <ns3:TrackPointExtension>
            <ns3:hr>113</ns3:hr>
            <ns3:cad>0</ns3:cad>
          </ns3:TrackPointExtension>
        </extensions>
      </trkpt>
      <trkpt lat="45.32833012752234935760498046875" lon="-71.00503270514309406280517578125">
        <ele>635.79998779296875</ele>
        <time>2026-08-21T20:34:06.000Z</time>
        <extensions>
          <ns3:TrackPointExtension>
            <ns3:hr>110</ns3:hr>
            <ns3:cad>0</ns3:cad>
          </ns3:TrackPointExtension>
        </extensions>
      </trkpt>
      <trkpt lat="45.32833012752234935760498046875" lon="-71.00503270514309406280517578125">
        <ele>635.79998779296875</ele>
        <time>2026-08-21T20:34:07.000Z</time>
        <extensions>
          <ns3:TrackPointExtension>
            <ns3:hr>109</ns3:hr>
            <ns3:cad>0</ns3:cad>
          </ns3:TrackPointExtension>
        </extensions>
      </trkpt>
      <trkpt lat="45.32833012752234935760498046875" lon="-71.00503270514309406280517578125">
        <ele>635.79998779296875</ele>
        <time>2026-08-21T20:34:08.000Z</time>
        <extensions>
          <ns3:TrackPointExtension>
            <ns3:hr>107</ns3:hr>
            <ns3:cad>0</ns3:cad>
          </ns3:TrackPointExtension>
        </extensions>
      </trkpt>
      <trkpt lat="45.32833012752234935760498046875" lon="-71.00503270514309406280517578125">
        <ele>636</ele>
        <time>2026-08-21T20:34:09.000Z</time>
        <extensions>
          <ns3:TrackPointExtension>
            <ns3:hr>106</ns3:hr>
            <ns3:cad>0</ns3:cad>
          </ns3:TrackPointExtension>
        </extensions>
      </trkpt>
      <trkpt lat="45.32833012752234935760498046875" lon="-71.00503270514309406280517578125">
        <ele>636</ele>
        <time>2026-08-21T20:34:10.000Z</time>
        <extensions>
          <ns3:TrackPointExtension>
            <ns3:hr>105</ns3:hr>
            <ns3:cad>0</ns3:cad>
          </ns3:TrackPointExtension>
        </extensions>
      </trkpt>
      <trkpt lat="45.32833012752234935760498046875" lon="-71.00503270514309406280517578125">
        <ele>636</ele>
        <time>2026-08-21T20:34:11.000Z</time>
        <extensions>
          <ns3:TrackPointExtension>
            <ns3:hr>105</ns3:hr>
            <ns3:cad>0</ns3:cad>
          </ns3:TrackPointExtension>
        </extensions>
      </trkpt>
      <trkpt lat="45.32833012752234935760498046875" lon="-71.00503270514309406280517578125">
        <ele>636</ele>
        <time>2026-08-21T20:34:12.000Z</time>
        <extensions>
          <ns3:TrackPointExtension>
            <ns3:hr>105</ns3:hr>
            <ns3:cad>0</ns3:cad>
          </ns3:TrackPointExtension>
        </extensions>
      </trkpt>
      <trkpt lat="45.32833012752234935760498046875" lon="-71.00503270514309406280517578125">
        <ele>636</ele>
        <time>2026-08-21T20:34:13.000Z</time>
        <extensions>
          <ns3:TrackPointExtension>
            <ns3:hr>106</ns3:hr>
            <ns3:cad>0</ns3:cad>
          </ns3:TrackPointExtension>
        </extensions>
      </trkpt>
      <trkpt lat="45.32833012752234935760498046875" lon="-71.00503270514309406280517578125">
        <ele>635.79998779296875</ele>
        <time>2026-08-21T20:34:14.000Z</time>
        <extensions>
          <ns3:TrackPointExtension>
            <ns3:hr>107</ns3:hr>
            <ns3:cad>0</ns3:cad>
          </ns3:TrackPointExtension>
        </extensions>
      </trkpt>
      <trkpt lat="45.32833012752234935760498046875" lon="-71.00503270514309406280517578125">
        <ele>635.79998779296875</ele>
        <time>2026-08-21T20:34:15.000Z</time>
        <extensions>
          <ns3:TrackPointExtension>
            <ns3:hr>107</ns3:hr>
            <ns3:cad>0</ns3:cad>
          </ns3:TrackPointExtension>
        </extensions>
      </trkpt>
      <trkpt lat="45.32833012752234935760498046875" lon="-71.00503270514309406280517578125">
        <ele>635.79998779296875</ele>
        <time>2026-08-21T20:34:16.000Z</time>
        <extensions>
          <ns3:TrackPointExtension>
            <ns3:hr>108</ns3:hr>
            <ns3:cad>0</ns3:cad>
          </ns3:TrackPointExtension>
        </extensions>
      </trkpt>
      <trkpt lat="45.32833012752234935760498046875" lon="-71.00503270514309406280517578125">
        <ele>635.79998779296875</ele>
        <time>2026-08-21T20:34:17.000Z</time>
        <extensions>
          <ns3:TrackPointExtension>
            <ns3:hr>108</ns3:hr>
            <ns3:cad>0</ns3:cad>
          </ns3:TrackPointExtension>
        </extensions>
      </trkpt>
      <trkpt lat="45.32833012752234935760498046875" lon="-71.00503270514309406280517578125">
        <ele>635.79998779296875</ele>
        <time>2026-08-21T20:34:18.000Z</time>
        <extensions>
          <ns3:TrackPointExtension>
            <ns3:hr>108</ns3:hr>
            <ns3:cad>0</ns3:cad>
          </ns3:TrackPointExtension>
        </extensions>
      </trkpt>
      <trkpt lat="45.32833012752234935760498046875" lon="-71.00503270514309406280517578125">
        <ele>636</ele>
        <time>2026-08-21T20:34:19.000Z</time>
        <extensions>
          <ns3:TrackPointExtension>
            <ns3:hr>108</ns3:hr>
            <ns3:cad>0</ns3:cad>
          </ns3:TrackPointExtension>
        </extensions>
      </trkpt>
      <trkpt lat="45.32833012752234935760498046875" lon="-71.00503270514309406280517578125">
        <ele>636</ele>
        <time>2026-08-21T20:34:20.000Z</time>
        <extensions>
          <ns3:TrackPointExtension>
            <ns3:hr>108</ns3:hr>
            <ns3:cad>0</ns3:cad>
          </ns3:TrackPointExtension>
        </extensions>
      </trkpt>
      <trkpt lat="45.32833012752234935760498046875" lon="-71.00503270514309406280517578125">
        <ele>636</ele>
        <time>2026-08-21T20:34:21.000Z</time>
        <extensions>
          <ns3:TrackPointExtension>
            <ns3:hr>108</ns3:hr>
            <ns3:cad>0</ns3:cad>
          </ns3:TrackPointExtension>
        </extensions>
      </trkpt>
      <trkpt lat="45.32833012752234935760498046875" lon="-71.00503270514309406280517578125">
        <ele>636</ele>
        <time>2026-08-21T20:34:22.000Z</time>
        <extensions>
          <ns3:TrackPointExtension>
            <ns3:hr>108</ns3:hr>
            <ns3:cad>0</ns3:cad>
          </ns3:TrackPointExtension>
        </extensions>
      </trkpt>
      <trkpt lat="45.32833012752234935760498046875" lon="-71.00503270514309406280517578125">
        <ele>636</ele>
        <time>2026-08-21T20:34:23.000Z</time>
        <extensions>
          <ns3:TrackPointExtension>
            <ns3:hr>108</ns3:hr>
            <ns3:cad>0</ns3:cad>
          </ns3:TrackPointExtension>
        </extensions>
      </trkpt>
      <trkpt lat="45.32833012752234935760498046875" lon="-71.00503270514309406280517578125">
        <ele>636</ele>
        <time>2026-08-21T20:34:24.000Z</time>
        <extensions>
          <ns3:TrackPointExtension>
            <ns3:hr>108</ns3:hr>
            <ns3:cad>0</ns3:cad>
          </ns3:TrackPointExtension>
        </extensions>
      </trkpt>
      <trkpt lat="45.32833012752234935760498046875" lon="-71.00503270514309406280517578125">
        <ele>636</ele>
        <time>2026-08-21T20:34:25.000Z</time>
        <extensions>
          <ns3:TrackPointExtension>
            <ns3:hr>108</ns3:hr>
            <ns3:cad>0</ns3:cad>
          </ns3:TrackPointExtension>
        </extensions>
      </trkpt>
      <trkpt lat="45.32833012752234935760498046875" lon="-71.00503270514309406280517578125">
        <ele>636</ele>
        <time>2026-08-21T20:34:26.000Z</time>
        <extensions>
          <ns3:TrackPointExtension>
            <ns3:hr>107</ns3:hr>
            <ns3:cad>0</ns3:cad>
          </ns3:TrackPointExtension>
        </extensions>
      </trkpt>
      <trkpt lat="45.32833012752234935760498046875" lon="-71.00503270514309406280517578125">
        <ele>636</ele>
        <time>2026-08-21T20:34:27.000Z</time>
        <extensions>
          <ns3:TrackPointExtension>
            <ns3:hr>107</ns3:hr>
            <ns3:cad>0</ns3:cad>
          </ns3:TrackPointExtension>
        </extensions>
      </trkpt>
      <trkpt lat="45.32833012752234935760498046875" lon="-71.00503270514309406280517578125">
        <ele>636</ele>
        <time>2026-08-21T20:34:28.000Z</time>
        <extensions>
          <ns3:TrackPointExtension>
            <ns3:hr>106</ns3:hr>
            <ns3:cad>0</ns3:cad>
          </ns3:TrackPointExtension>
        </extensions>
      </trkpt>
      <trkpt lat="45.32833012752234935760498046875" lon="-71.00503270514309406280517578125">
        <ele>635.79998779296875</ele>
        <time>2026-08-21T20:34:29.000Z</time>
        <extensions>
          <ns3:TrackPointExtension>
            <ns3:hr>106</ns3:hr>
            <ns3:cad>0</ns3:cad>
          </ns3:TrackPointExtension>
        </extensions>
      </trkpt>
      <trkpt lat="45.32833012752234935760498046875" lon="-71.00503270514309406280517578125">
        <ele>635.79998779296875</ele>
        <time>2026-08-21T20:34:30.000Z</time>
        <extensions>
          <ns3:TrackPointExtension>
            <ns3:hr>108</ns3:hr>
            <ns3:cad>0</ns3:cad>
          </ns3:TrackPointExtension>
        </extensions>
      </trkpt>
      <trkpt lat="45.32833012752234935760498046875" lon="-71.00503270514309406280517578125">
        <ele>635.79998779296875</ele>
        <time>2026-08-21T20:34:31.000Z</time>
        <extensions>
          <ns3:TrackPointExtension>
            <ns3:hr>108</ns3:hr>
            <ns3:cad>0</ns3:cad>
          </ns3:TrackPointExtension>
        </extensions>
      </trkpt>
      <trkpt lat="45.32833012752234935760498046875" lon="-71.00503270514309406280517578125">
        <ele>635.79998779296875</ele>
        <time>2026-08-21T20:34:32.000Z</time>
        <extensions>
          <ns3:TrackPointExtension>
            <ns3:hr>109</ns3:hr>
            <ns3:cad>0</ns3:cad>
          </ns3:TrackPointExtension>
        </extensions>
      </trkpt>
      <trkpt lat="45.32833012752234935760498046875" lon="-71.00503270514309406280517578125">
        <ele>635.79998779296875</ele>
        <time>2026-08-21T20:34:33.000Z</time>
        <extensions>
          <ns3:TrackPointExtension>
            <ns3:hr>111</ns3:hr>
            <ns3:cad>0</ns3:cad>
          </ns3:TrackPointExtension>
        </extensions>
      </trkpt>
      <trkpt lat="45.32833012752234935760498046875" lon="-71.00503270514309406280517578125">
        <ele>635.79998779296875</ele>
        <time>2026-08-21T20:34:34.000Z</time>
        <extensions>
          <ns3:TrackPointExtension>
            <ns3:hr>111</ns3:hr>
            <ns3:cad>0</ns3:cad>
          </ns3:TrackPointExtension>
        </extensions>
      </trkpt>
      <trkpt lat="45.32833012752234935760498046875" lon="-71.00503270514309406280517578125">
        <ele>635.79998779296875</ele>
        <time>2026-08-21T20:34:35.000Z</time>
        <extensions>
          <ns3:TrackPointExtension>
            <ns3:hr>111</ns3:hr>
            <ns3:cad>0</ns3:cad>
          </ns3:TrackPointExtension>
        </extensions>
      </trkpt>
      <trkpt lat="45.32833012752234935760498046875" lon="-71.00503270514309406280517578125">
        <ele>635.79998779296875</ele>
        <time>2026-08-21T20:34:36.000Z</time>
        <extensions>
          <ns3:TrackPointExtension>
            <ns3:hr>111</ns3:hr>
            <ns3:cad>0</ns3:cad>
          </ns3:TrackPointExtension>
        </extensions>
      </trkpt>
      <trkpt lat="45.32833012752234935760498046875" lon="-71.00503270514309406280517578125">
        <ele>635.79998779296875</ele>
        <time>2026-08-21T20:34:37.000Z</time>
        <extensions>
          <ns3:TrackPointExtension>
            <ns3:hr>110</ns3:hr>
            <ns3:cad>0</ns3:cad>
          </ns3:TrackPointExtension>
        </extensions>
      </trkpt>
      <trkpt lat="45.32833012752234935760498046875" lon="-71.00503270514309406280517578125">
        <ele>635.79998779296875</ele>
        <time>2026-08-21T20:34:38.000Z</time>
        <extensions>
          <ns3:TrackPointExtension>
            <ns3:hr>110</ns3:hr>
            <ns3:cad>0</ns3:cad>
          </ns3:TrackPointExtension>
        </extensions>
      </trkpt>
      <trkpt lat="45.32833012752234935760498046875" lon="-71.00503270514309406280517578125">
        <ele>635.79998779296875</ele>
        <time>2026-08-21T20:34:39.000Z</time>
        <extensions>
          <ns3:TrackPointExtension>
            <ns3:hr>110</ns3:hr>
            <ns3:cad>0</ns3:cad>
          </ns3:TrackPointExtension>
        </extensions>
      </trkpt>
      <trkpt lat="45.32833012752234935760498046875" lon="-71.00503270514309406280517578125">
        <ele>635.79998779296875</ele>
        <time>2026-08-21T20:34:40.000Z</time>
        <extensions>
          <ns3:TrackPointExtension>
            <ns3:hr>110</ns3:hr>
            <ns3:cad>0</ns3:cad>
          </ns3:TrackPointExtension>
        </extensions>
      </trkpt>
      <trkpt lat="45.32833012752234935760498046875" lon="-71.00503270514309406280517578125">
        <ele>635.79998779296875</ele>
        <time>2026-08-21T20:34:41.000Z</time>
        <extensions>
          <ns3:TrackPointExtension>
            <ns3:hr>110</ns3:hr>
            <ns3:cad>0</ns3:cad>
          </ns3:TrackPointExtension>
        </extensions>
      </trkpt>
      <trkpt lat="45.32833012752234935760498046875" lon="-71.00503270514309406280517578125">
        <ele>635.79998779296875</ele>
        <time>2026-08-21T20:34:42.000Z</time>
        <extensions>
          <ns3:TrackPointExtension>
            <ns3:hr>109</ns3:hr>
            <ns3:cad>0</ns3:cad>
          </ns3:TrackPointExtension>
        </extensions>
      </trkpt>
      <trkpt lat="45.32833012752234935760498046875" lon="-71.00503270514309406280517578125">
        <ele>635.79998779296875</ele>
        <time>2026-08-21T20:34:43.000Z</time>
        <extensions>
          <ns3:TrackPointExtension>
            <ns3:hr>108</ns3:hr>
            <ns3:cad>0</ns3:cad>
          </ns3:TrackPointExtension>
        </extensions>
      </trkpt>
      <trkpt lat="45.32833012752234935760498046875" lon="-71.00503270514309406280517578125">
        <ele>635.79998779296875</ele>
        <time>2026-08-21T20:34:44.000Z</time>
        <extensions>
          <ns3:TrackPointExtension>
            <ns3:hr>107</ns3:hr>
            <ns3:cad>0</ns3:cad>
          </ns3:TrackPointExtension>
        </extensions>
      </trkpt>
      <trkpt lat="45.32833012752234935760498046875" lon="-71.00503270514309406280517578125">
        <ele>635.79998779296875</ele>
        <time>2026-08-21T20:34:45.000Z</time>
        <extensions>
          <ns3:TrackPointExtension>
            <ns3:hr>106</ns3:hr>
            <ns3:cad>0</ns3:cad>
          </ns3:TrackPointExtension>
        </extensions>
      </trkpt>
      <trkpt lat="45.32833012752234935760498046875" lon="-71.00503270514309406280517578125">
        <ele>635.79998779296875</ele>
        <time>2026-08-21T20:34:46.000Z</time>
        <extensions>
          <ns3:TrackPointExtension>
            <ns3:hr>106</ns3:hr>
            <ns3:cad>0</ns3:cad>
          </ns3:TrackPointExtension>
        </extensions>
      </trkpt>
      <trkpt lat="45.32833012752234935760498046875" lon="-71.00503270514309406280517578125">
        <ele>635.79998779296875</ele>
        <time>2026-08-21T20:34:47.000Z</time>
        <extensions>
          <ns3:TrackPointExtension>
            <ns3:hr>107</ns3:hr>
            <ns3:cad>0</ns3:cad>
          </ns3:TrackPointExtension>
        </extensions>
      </trkpt>
      <trkpt lat="45.32833012752234935760498046875" lon="-71.00503270514309406280517578125">
        <ele>635.79998779296875</ele>
        <time>2026-08-21T20:34:48.000Z</time>
        <extensions>
          <ns3:TrackPointExtension>
            <ns3:hr>108</ns3:hr>
            <ns3:cad>0</ns3:cad>
          </ns3:TrackPointExtension>
        </extensions>
      </trkpt>
      <trkpt lat="45.32833012752234935760498046875" lon="-71.00503270514309406280517578125">
        <ele>635.79998779296875</ele>
        <time>2026-08-21T20:34:49.000Z</time>
        <extensions>
          <ns3:TrackPointExtension>
            <ns3:hr>108</ns3:hr>
            <ns3:cad>0</ns3:cad>
          </ns3:TrackPointExtension>
        </extensions>
      </trkpt>
      <trkpt lat="45.32833012752234935760498046875" lon="-71.00503270514309406280517578125">
        <ele>635.79998779296875</ele>
        <time>2026-08-21T20:34:50.000Z</time>
        <extensions>
          <ns3:TrackPointExtension>
            <ns3:hr>108</ns3:hr>
            <ns3:cad>0</ns3:cad>
          </ns3:TrackPointExtension>
        </extensions>
      </trkpt>
      <trkpt lat="45.32833012752234935760498046875" lon="-71.00503270514309406280517578125">
        <ele>635.79998779296875</ele>
        <time>2026-08-21T20:34:51.000Z</time>
        <extensions>
          <ns3:TrackPointExtension>
            <ns3:hr>107</ns3:hr>
            <ns3:cad>0</ns3:cad>
          </ns3:TrackPointExtension>
        </extensions>
      </trkpt>
      <trkpt lat="45.32833012752234935760498046875" lon="-71.00503270514309406280517578125">
        <ele>635.79998779296875</ele>
        <time>2026-08-21T20:34:52.000Z</time>
        <extensions>
          <ns3:TrackPointExtension>
            <ns3:hr>107</ns3:hr>
            <ns3:cad>0</ns3:cad>
          </ns3:TrackPointExtension>
        </extensions>
      </trkpt>
      <trkpt lat="45.32833012752234935760498046875" lon="-71.00503270514309406280517578125">
        <ele>635.79998779296875</ele>
        <time>2026-08-21T20:34:53.000Z</time>
        <extensions>
          <ns3:TrackPointExtension>
            <ns3:hr>106</ns3:hr>
            <ns3:cad>0</ns3:cad>
          </ns3:TrackPointExtension>
        </extensions>
      </trkpt>
      <trkpt lat="45.32833012752234935760498046875" lon="-71.00503270514309406280517578125">
        <ele>635.79998779296875</ele>
        <time>2026-08-21T20:34:54.000Z</time>
        <extensions>
          <ns3:TrackPointExtension>
            <ns3:hr>106</ns3:hr>
            <ns3:cad>0</ns3:cad>
          </ns3:TrackPointExtension>
        </extensions>
      </trkpt>
      <trkpt lat="45.32833012752234935760498046875" lon="-71.00503270514309406280517578125">
        <ele>635.79998779296875</ele>
        <time>2026-08-21T20:34:55.000Z</time>
        <extensions>
          <ns3:TrackPointExtension>
            <ns3:hr>107</ns3:hr>
            <ns3:cad>0</ns3:cad>
          </ns3:TrackPointExtension>
        </extensions>
      </trkpt>
      <trkpt lat="45.32833012752234935760498046875" lon="-71.00503270514309406280517578125">
        <ele>635.79998779296875</ele>
        <time>2026-08-21T20:34:56.000Z</time>
        <extensions>
          <ns3:TrackPointExtension>
            <ns3:hr>107</ns3:hr>
            <ns3:cad>0</ns3:cad>
          </ns3:TrackPointExtension>
        </extensions>
      </trkpt>
      <trkpt lat="45.32833012752234935760498046875" lon="-71.00503270514309406280517578125">
        <ele>635.79998779296875</ele>
        <time>2026-08-21T20:34:57.000Z</time>
        <extensions>
          <ns3:TrackPointExtension>
            <ns3:hr>108</ns3:hr>
            <ns3:cad>0</ns3:cad>
          </ns3:TrackPointExtension>
        </extensions>
      </trkpt>
      <trkpt lat="45.32833012752234935760498046875" lon="-71.00503270514309406280517578125">
        <ele>635.79998779296875</ele>
        <time>2026-08-21T20:34:58.000Z</time>
        <extensions>
          <ns3:TrackPointExtension>
            <ns3:hr>108</ns3:hr>
            <ns3:cad>0</ns3:cad>
          </ns3:TrackPointExtension>
        </extensions>
      </trkpt>
      <trkpt lat="45.32833012752234935760498046875" lon="-71.00503270514309406280517578125">
        <ele>635.79998779296875</ele>
        <time>2026-08-21T20:34:59.000Z</time>
        <extensions>
          <ns3:TrackPointExtension>
            <ns3:hr>107</ns3:hr>
            <ns3:cad>0</ns3:cad>
          </ns3:TrackPointExtension>
        </extensions>
      </trkpt>
      <trkpt lat="45.32833012752234935760498046875" lon="-71.00503270514309406280517578125">
        <ele>635.79998779296875</ele>
        <time>2026-08-21T20:35:00.000Z</time>
        <extensions>
          <ns3:TrackPointExtension>
            <ns3:hr>105</ns3:hr>
            <ns3:cad>0</ns3:cad>
          </ns3:TrackPointExtension>
        </extensions>
      </trkpt>
      <trkpt lat="45.32833012752234935760498046875" lon="-71.00503270514309406280517578125">
        <ele>635.79998779296875</ele>
        <time>2026-08-21T20:35:01.000Z</time>
        <extensions>
          <ns3:TrackPointExtension>
            <ns3:hr>103</ns3:hr>
            <ns3:cad>0</ns3:cad>
          </ns3:TrackPointExtension>
        </extensions>
      </trkpt>
      <trkpt lat="45.32833012752234935760498046875" lon="-71.00503270514309406280517578125">
        <ele>635.79998779296875</ele>
        <time>2026-08-21T20:35:02.000Z</time>
        <extensions>
          <ns3:TrackPointExtension>
            <ns3:hr>103</ns3:hr>
            <ns3:cad>0</ns3:cad>
          </ns3:TrackPointExtension>
        </extensions>
      </trkpt>
      <trkpt lat="45.32833012752234935760498046875" lon="-71.00503270514309406280517578125">
        <ele>635.79998779296875</ele>
        <time>2026-08-21T20:35:03.000Z</time>
        <extensions>
          <ns3:TrackPointExtension>
            <ns3:hr>103</ns3:hr>
            <ns3:cad>0</ns3:cad>
          </ns3:TrackPointExtension>
        </extensions>
      </trkpt>
      <trkpt lat="45.32833012752234935760498046875" lon="-71.00503270514309406280517578125">
        <ele>635.79998779296875</ele>
        <time>2026-08-21T20:35:04.000Z</time>
        <extensions>
          <ns3:TrackPointExtension>
            <ns3:hr>102</ns3:hr>
            <ns3:cad>0</ns3:cad>
          </ns3:TrackPointExtension>
        </extensions>
      </trkpt>
      <trkpt lat="45.32833012752234935760498046875" lon="-71.00503270514309406280517578125">
        <ele>635.79998779296875</ele>
        <time>2026-08-21T20:35:05.000Z</time>
        <extensions>
          <ns3:TrackPointExtension>
            <ns3:hr>103</ns3:hr>
            <ns3:cad>0</ns3:cad>
          </ns3:TrackPointExtension>
        </extensions>
      </trkpt>
      <trkpt lat="45.32833012752234935760498046875" lon="-71.00503270514309406280517578125">
        <ele>635.79998779296875</ele>
        <time>2026-08-21T20:35:06.000Z</time>
        <extensions>
          <ns3:TrackPointExtension>
            <ns3:hr>103</ns3:hr>
            <ns3:cad>0</ns3:cad>
          </ns3:TrackPointExtension>
        </extensions>
      </trkpt>
      <trkpt lat="45.32833012752234935760498046875" lon="-71.00503270514309406280517578125">
        <ele>635.79998779296875</ele>
        <time>2026-08-21T20:35:07.000Z</time>
        <extensions>
          <ns3:TrackPointExtension>
            <ns3:hr>103</ns3:hr>
            <ns3:cad>0</ns3:cad>
          </ns3:TrackPointExtension>
        </extensions>
      </trkpt>
      <trkpt lat="45.32833012752234935760498046875" lon="-71.00503270514309406280517578125">
        <ele>635.79998779296875</ele>
        <time>2026-08-21T20:35:08.000Z</time>
        <extensions>
          <ns3:TrackPointExtension>
            <ns3:hr>103</ns3:hr>
            <ns3:cad>0</ns3:cad>
          </ns3:TrackPointExtension>
        </extensions>
      </trkpt>
      <trkpt lat="45.32833012752234935760498046875" lon="-71.00503270514309406280517578125">
        <ele>635.79998779296875</ele>
        <time>2026-08-21T20:35:09.000Z</time>
        <extensions>
          <ns3:TrackPointExtension>
            <ns3:hr>106</ns3:hr>
            <ns3:cad>0</ns3:cad>
          </ns3:TrackPointExtension>
        </extensions>
      </trkpt>
      <trkpt lat="45.32833012752234935760498046875" lon="-71.00503270514309406280517578125">
        <ele>635.79998779296875</ele>
        <time>2026-08-21T20:35:10.000Z</time>
        <extensions>
          <ns3:TrackPointExtension>
            <ns3:hr>109</ns3:hr>
            <ns3:cad>0</ns3:cad>
          </ns3:TrackPointExtension>
        </extensions>
      </trkpt>
      <trkpt lat="45.32833012752234935760498046875" lon="-71.00503270514309406280517578125">
        <ele>635.79998779296875</ele>
        <time>2026-08-21T20:35:11.000Z</time>
        <extensions>
          <ns3:TrackPointExtension>
            <ns3:hr>110</ns3:hr>
            <ns3:cad>0</ns3:cad>
          </ns3:TrackPointExtension>
        </extensions>
      </trkpt>
      <trkpt lat="45.32833012752234935760498046875" lon="-71.00503270514309406280517578125">
        <ele>635.79998779296875</ele>
        <time>2026-08-21T20:35:12.000Z</time>
        <extensions>
          <ns3:TrackPointExtension>
            <ns3:hr>111</ns3:hr>
            <ns3:cad>0</ns3:cad>
          </ns3:TrackPointExtension>
        </extensions>
      </trkpt>
      <trkpt lat="45.328325517475605010986328125" lon="-71.0050371475517749786376953125">
        <ele>635.79998779296875</ele>
        <time>2026-08-21T20:35:13.000Z</time>
        <extensions>
          <ns3:TrackPointExtension>
            <ns3:hr>110</ns3:hr>
            <ns3:cad>0</ns3:cad>
          </ns3:TrackPointExtension>
        </extensions>
      </trkpt>
      <trkpt lat="45.32832560129463672637939453125" lon="-71.0050438530743122100830078125">
        <ele>636</ele>
        <time>2026-08-21T20:35:14.000Z</time>
        <extensions>
          <ns3:TrackPointExtension>
            <ns3:hr>110</ns3:hr>
            <ns3:cad>0</ns3:cad>
          </ns3:TrackPointExtension>
        </extensions>
      </trkpt>
      <trkpt lat="45.3283307142555713653564453125" lon="-71.00505198352038860321044921875">
        <ele>636</ele>
        <time>2026-08-21T20:35:15.000Z</time>
        <extensions>
          <ns3:TrackPointExtension>
            <ns3:hr>110</ns3:hr>
            <ns3:cad>0</ns3:cad>
          </ns3:TrackPointExtension>
        </extensions>
      </trkpt>
      <trkpt lat="45.32833515666425228118896484375" lon="-71.0050575993955135345458984375">
        <ele>636.20001220703125</ele>
        <time>2026-08-21T20:35:16.000Z</time>
        <extensions>
          <ns3:TrackPointExtension>
            <ns3:hr>110</ns3:hr>
            <ns3:cad>0</ns3:cad>
          </ns3:TrackPointExtension>
        </extensions>
      </trkpt>
      <trkpt lat="45.3283385932445526123046875" lon="-71.0050616227090358734130859375">
        <ele>636.20001220703125</ele>
        <time>2026-08-21T20:35:17.000Z</time>
        <extensions>
          <ns3:TrackPointExtension>
            <ns3:hr>108</ns3:hr>
            <ns3:cad>0</ns3:cad>
          </ns3:TrackPointExtension>
        </extensions>
      </trkpt>
      <trkpt lat="45.32833901233971118927001953125" lon="-71.00506522692739963531494140625">
        <ele>636</ele>
        <time>2026-08-21T20:35:18.000Z</time>
        <extensions>
          <ns3:TrackPointExtension>
            <ns3:hr>107</ns3:hr>
            <ns3:cad>0</ns3:cad>
          </ns3:TrackPointExtension>
        </extensions>
      </trkpt>
      <trkpt lat="45.32834035344421863555908203125" lon="-71.00506690330803394317626953125">
        <ele>635.79998779296875</ele>
        <time>2026-08-21T20:35:19.000Z</time>
        <extensions>
          <ns3:TrackPointExtension>
            <ns3:hr>107</ns3:hr>
            <ns3:cad>0</ns3:cad>
          </ns3:TrackPointExtension>
        </extensions>
      </trkpt>
      <trkpt lat="45.32834052108228206634521484375" lon="-71.0050676576793193817138671875">
        <ele>635.4000244140625</ele>
        <time>2026-08-21T20:35:20.000Z</time>
        <extensions>
          <ns3:TrackPointExtension>
            <ns3:hr>106</ns3:hr>
            <ns3:cad>0</ns3:cad>
          </ns3:TrackPointExtension>
        </extensions>
      </trkpt>
      <trkpt lat="45.3283407725393772125244140625" lon="-71.00506740622222423553466796875">
        <ele>635.20001220703125</ele>
        <time>2026-08-21T20:35:21.000Z</time>
        <extensions>
          <ns3:TrackPointExtension>
            <ns3:hr>107</ns3:hr>
            <ns3:cad>0</ns3:cad>
          </ns3:TrackPointExtension>
        </extensions>
      </trkpt>
      <trkpt lat="45.3283407725393772125244140625" lon="-71.00506740622222423553466796875">
        <ele>635</ele>
        <time>2026-08-21T20:35:22.000Z</time>
        <extensions>
          <ns3:TrackPointExtension>
            <ns3:hr>108</ns3:hr>
            <ns3:cad>0</ns3:cad>
          </ns3:TrackPointExtension>
        </extensions>
      </trkpt>
      <trkpt lat="45.3283407725393772125244140625" lon="-71.00506740622222423553466796875">
        <ele>635</ele>
        <time>2026-08-21T20:35:23.000Z</time>
        <extensions>
          <ns3:TrackPointExtension>
            <ns3:hr>108</ns3:hr>
            <ns3:cad>0</ns3:cad>
          </ns3:TrackPointExtension>
        </extensions>
      </trkpt>
      <trkpt lat="45.3283407725393772125244140625" lon="-71.00506740622222423553466796875">
        <ele>635</ele>
        <time>2026-08-21T20:35:24.000Z</time>
        <extensions>
          <ns3:TrackPointExtension>
            <ns3:hr>108</ns3:hr>
            <ns3:cad>0</ns3:cad>
          </ns3:TrackPointExtension>
        </extensions>
      </trkpt>
      <trkpt lat="45.3283407725393772125244140625" lon="-71.00506740622222423553466796875">
        <ele>635</ele>
        <time>2026-08-21T20:35:25.000Z</time>
        <extensions>
          <ns3:TrackPointExtension>
            <ns3:hr>109</ns3:hr>
            <ns3:cad>0</ns3:cad>
          </ns3:TrackPointExtension>
        </extensions>
      </trkpt>
      <trkpt lat="45.3283407725393772125244140625" lon="-71.00506740622222423553466796875">
        <ele>635</ele>
        <time>2026-08-21T20:35:26.000Z</time>
        <extensions>
          <ns3:TrackPointExtension>
            <ns3:hr>109</ns3:hr>
            <ns3:cad>0</ns3:cad>
          </ns3:TrackPointExtension>
        </extensions>
      </trkpt>
      <trkpt lat="45.3283407725393772125244140625" lon="-71.00506740622222423553466796875">
        <ele>635</ele>
        <time>2026-08-21T20:35:27.000Z</time>
        <extensions>
          <ns3:TrackPointExtension>
            <ns3:hr>109</ns3:hr>
            <ns3:cad>0</ns3:cad>
          </ns3:TrackPointExtension>
        </extensions>
      </trkpt>
      <trkpt lat="45.3283407725393772125244140625" lon="-71.00506740622222423553466796875">
        <ele>635</ele>
        <time>2026-08-21T20:35:28.000Z</time>
        <extensions>
          <ns3:TrackPointExtension>
            <ns3:hr>109</ns3:hr>
            <ns3:cad>0</ns3:cad>
          </ns3:TrackPointExtension>
        </extensions>
      </trkpt>
      <trkpt lat="45.3283407725393772125244140625" lon="-71.00506740622222423553466796875">
        <ele>635</ele>
        <time>2026-08-21T20:35:29.000Z</time>
        <extensions>
          <ns3:TrackPointExtension>
            <ns3:hr>109</ns3:hr>
            <ns3:cad>0</ns3:cad>
          </ns3:TrackPointExtension>
        </extensions>
      </trkpt>
      <trkpt lat="45.3283407725393772125244140625" lon="-71.00506740622222423553466796875">
        <ele>635.20001220703125</ele>
        <time>2026-08-21T20:35:30.000Z</time>
        <extensions>
          <ns3:TrackPointExtension>
            <ns3:hr>109</ns3:hr>
            <ns3:cad>0</ns3:cad>
          </ns3:TrackPointExtension>
        </extensions>
      </trkpt>
      <trkpt lat="45.3283407725393772125244140625" lon="-71.00506740622222423553466796875">
        <ele>635.20001220703125</ele>
        <time>2026-08-21T20:35:31.000Z</time>
        <extensions>
          <ns3:TrackPointExtension>
            <ns3:hr>108</ns3:hr>
            <ns3:cad>0</ns3:cad>
          </ns3:TrackPointExtension>
        </extensions>
      </trkpt>
      <trkpt lat="45.3283407725393772125244140625" lon="-71.00506740622222423553466796875">
        <ele>635.4000244140625</ele>
        <time>2026-08-21T20:35:32.000Z</time>
        <extensions>
          <ns3:TrackPointExtension>
            <ns3:hr>108</ns3:hr>
            <ns3:cad>0</ns3:cad>
          </ns3:TrackPointExtension>
        </extensions>
      </trkpt>
      <trkpt lat="45.3283407725393772125244140625" lon="-71.00506740622222423553466796875">
        <ele>635.4000244140625</ele>
        <time>2026-08-21T20:35:33.000Z</time>
        <extensions>
          <ns3:TrackPointExtension>
            <ns3:hr>108</ns3:hr>
            <ns3:cad>0</ns3:cad>
          </ns3:TrackPointExtension>
        </extensions>
      </trkpt>
      <trkpt lat="45.3283407725393772125244140625" lon="-71.00506740622222423553466796875">
        <ele>635.4000244140625</ele>
        <time>2026-08-21T20:35:34.000Z</time>
        <extensions>
          <ns3:TrackPointExtension>
            <ns3:hr>109</ns3:hr>
            <ns3:cad>0</ns3:cad>
          </ns3:TrackPointExtension>
        </extensions>
      </trkpt>
      <trkpt lat="45.3283407725393772125244140625" lon="-71.00506740622222423553466796875">
        <ele>635.4000244140625</ele>
        <time>2026-08-21T20:35:35.000Z</time>
        <extensions>
          <ns3:TrackPointExtension>
            <ns3:hr>109</ns3:hr>
            <ns3:cad>0</ns3:cad>
          </ns3:TrackPointExtension>
        </extensions>
      </trkpt>
      <trkpt lat="45.3283407725393772125244140625" lon="-71.00506740622222423553466796875">
        <ele>635.20001220703125</ele>
        <time>2026-08-21T20:35:36.000Z</time>
        <extensions>
          <ns3:TrackPointExtension>
            <ns3:hr>109</ns3:hr>
            <ns3:cad>0</ns3:cad>
          </ns3:TrackPointExtension>
        </extensions>
      </trkpt>
      <trkpt lat="45.3283407725393772125244140625" lon="-71.00506740622222423553466796875">
        <ele>635.20001220703125</ele>
        <time>2026-08-21T20:35:37.000Z</time>
        <extensions>
          <ns3:TrackPointExtension>
            <ns3:hr>109</ns3:hr>
            <ns3:cad>0</ns3:cad>
          </ns3:TrackPointExtension>
        </extensions>
      </trkpt>
      <trkpt lat="45.3283407725393772125244140625" lon="-71.00506740622222423553466796875">
        <ele>635.20001220703125</ele>
        <time>2026-08-21T20:35:38.000Z</time>
        <extensions>
          <ns3:TrackPointExtension>
            <ns3:hr>108</ns3:hr>
            <ns3:cad>0</ns3:cad>
          </ns3:TrackPointExtension>
        </extensions>
      </trkpt>
      <trkpt lat="45.3283407725393772125244140625" lon="-71.00506740622222423553466796875">
        <ele>635</ele>
        <time>2026-08-21T20:35:39.000Z</time>
        <extensions>
          <ns3:TrackPointExtension>
            <ns3:hr>108</ns3:hr>
            <ns3:cad>0</ns3:cad>
          </ns3:TrackPointExtension>
        </extensions>
      </trkpt>
      <trkpt lat="45.3283407725393772125244140625" lon="-71.00506740622222423553466796875">
        <ele>635</ele>
        <time>2026-08-21T20:35:40.000Z</time>
        <extensions>
          <ns3:TrackPointExtension>
            <ns3:hr>108</ns3:hr>
            <ns3:cad>0</ns3:cad>
          </ns3:TrackPointExtension>
        </extensions>
      </trkpt>
      <trkpt lat="45.3283407725393772125244140625" lon="-71.00506740622222423553466796875">
        <ele>635</ele>
        <time>2026-08-21T20:35:41.000Z</time>
        <extensions>
          <ns3:TrackPointExtension>
            <ns3:hr>108</ns3:hr>
            <ns3:cad>0</ns3:cad>
          </ns3:TrackPointExtension>
        </extensions>
      </trkpt>
      <trkpt lat="45.3283407725393772125244140625" lon="-71.00506740622222423553466796875">
        <ele>635</ele>
        <time>2026-08-21T20:35:42.000Z</time>
        <extensions>
          <ns3:TrackPointExtension>
            <ns3:hr>109</ns3:hr>
            <ns3:cad>0</ns3:cad>
          </ns3:TrackPointExtension>
        </extensions>
      </trkpt>
      <trkpt lat="45.3283407725393772125244140625" lon="-71.00506740622222423553466796875">
        <ele>635</ele>
        <time>2026-08-21T20:35:43.000Z</time>
        <extensions>
          <ns3:TrackPointExtension>
            <ns3:hr>110</ns3:hr>
            <ns3:cad>0</ns3:cad>
          </ns3:TrackPointExtension>
        </extensions>
      </trkpt>
      <trkpt lat="45.3283407725393772125244140625" lon="-71.00506740622222423553466796875">
        <ele>635</ele>
        <time>2026-08-21T20:35:44.000Z</time>
        <extensions>
          <ns3:TrackPointExtension>
            <ns3:hr>109</ns3:hr>
            <ns3:cad>0</ns3:cad>
          </ns3:TrackPointExtension>
        </extensions>
      </trkpt>
      <trkpt lat="45.3283407725393772125244140625" lon="-71.00506740622222423553466796875">
        <ele>635.20001220703125</ele>
        <time>2026-08-21T20:35:45.000Z</time>
        <extensions>
          <ns3:TrackPointExtension>
            <ns3:hr>105</ns3:hr>
            <ns3:cad>0</ns3:cad>
          </ns3:TrackPointExtension>
        </extensions>
      </trkpt>
      <trkpt lat="45.3283407725393772125244140625" lon="-71.00506740622222423553466796875">
        <ele>635.20001220703125</ele>
        <time>2026-08-21T20:35:46.000Z</time>
        <extensions>
          <ns3:TrackPointExtension>
            <ns3:hr>102</ns3:hr>
            <ns3:cad>0</ns3:cad>
          </ns3:TrackPointExtension>
        </extensions>
      </trkpt>
      <trkpt lat="45.3283407725393772125244140625" lon="-71.00506740622222423553466796875">
        <ele>635.20001220703125</ele>
        <time>2026-08-21T20:35:47.000Z</time>
        <extensions>
          <ns3:TrackPointExtension>
            <ns3:hr>99</ns3:hr>
            <ns3:cad>0</ns3:cad>
          </ns3:TrackPointExtension>
        </extensions>
      </trkpt>
      <trkpt lat="45.3283407725393772125244140625" lon="-71.00506740622222423553466796875">
        <ele>635.20001220703125</ele>
        <time>2026-08-21T20:35:48.000Z</time>
        <extensions>
          <ns3:TrackPointExtension>
            <ns3:hr>97</ns3:hr>
            <ns3:cad>0</ns3:cad>
          </ns3:TrackPointExtension>
        </extensions>
      </trkpt>
      <trkpt lat="45.3283407725393772125244140625" lon="-71.00506740622222423553466796875">
        <ele>635.20001220703125</ele>
        <time>2026-08-21T20:35:49.000Z</time>
        <extensions>
          <ns3:TrackPointExtension>
            <ns3:hr>97</ns3:hr>
            <ns3:cad>0</ns3:cad>
          </ns3:TrackPointExtension>
        </extensions>
      </trkpt>
      <trkpt lat="45.3283407725393772125244140625" lon="-71.00506740622222423553466796875">
        <ele>635</ele>
        <time>2026-08-21T20:35:50.000Z</time>
        <extensions>
          <ns3:TrackPointExtension>
            <ns3:hr>97</ns3:hr>
            <ns3:cad>0</ns3:cad>
          </ns3:TrackPointExtension>
        </extensions>
      </trkpt>
      <trkpt lat="45.3283407725393772125244140625" lon="-71.00506740622222423553466796875">
        <ele>635</ele>
        <time>2026-08-21T20:35:51.000Z</time>
        <extensions>
          <ns3:TrackPointExtension>
            <ns3:hr>96</ns3:hr>
            <ns3:cad>0</ns3:cad>
          </ns3:TrackPointExtension>
        </extensions>
      </trkpt>
      <trkpt lat="45.3283407725393772125244140625" lon="-71.00506740622222423553466796875">
        <ele>635</ele>
        <time>2026-08-21T20:35:52.000Z</time>
        <extensions>
          <ns3:TrackPointExtension>
            <ns3:hr>97</ns3:hr>
            <ns3:cad>0</ns3:cad>
          </ns3:TrackPointExtension>
        </extensions>
      </trkpt>
      <trkpt lat="45.3283407725393772125244140625" lon="-71.00506740622222423553466796875">
        <ele>635.20001220703125</ele>
        <time>2026-08-21T20:35:53.000Z</time>
        <extensions>
          <ns3:TrackPointExtension>
            <ns3:hr>97</ns3:hr>
            <ns3:cad>0</ns3:cad>
          </ns3:TrackPointExtension>
        </extensions>
      </trkpt>
      <trkpt lat="45.3283407725393772125244140625" lon="-71.00506740622222423553466796875">
        <ele>635.20001220703125</ele>
        <time>2026-08-21T20:35:54.000Z</time>
        <extensions>
          <ns3:TrackPointExtension>
            <ns3:hr>97</ns3:hr>
            <ns3:cad>0</ns3:cad>
          </ns3:TrackPointExtension>
        </extensions>
      </trkpt>
      <trkpt lat="45.3283434547483921051025390625" lon="-71.00506790913641452789306640625">
        <ele>635.20001220703125</ele>
        <time>2026-08-21T20:35:55.000Z</time>
        <extensions>
          <ns3:TrackPointExtension>
            <ns3:hr>97</ns3:hr>
            <ns3:cad>0</ns3:cad>
          </ns3:TrackPointExtension>
        </extensions>
      </trkpt>
      <trkpt lat="45.32834622077643871307373046875" lon="-71.00506673566997051239013671875">
        <ele>635.20001220703125</ele>
        <time>2026-08-21T20:35:56.000Z</time>
        <extensions>
          <ns3:TrackPointExtension>
            <ns3:hr>98</ns3:hr>
            <ns3:cad>0</ns3:cad>
          </ns3:TrackPointExtension>
        </extensions>
      </trkpt>
      <trkpt lat="45.3283444605767726898193359375" lon="-71.00506690330803394317626953125">
        <ele>635</ele>
        <time>2026-08-21T20:35:57.000Z</time>
        <extensions>
          <ns3:TrackPointExtension>
            <ns3:hr>98</ns3:hr>
            <ns3:cad>0</ns3:cad>
          </ns3:TrackPointExtension>
        </extensions>
      </trkpt>
      <trkpt lat="45.3283439576625823974609375" lon="-71.00506489165127277374267578125">
        <ele>635</ele>
        <time>2026-08-21T20:35:58.000Z</time>
        <extensions>
          <ns3:TrackPointExtension>
            <ns3:hr>98</ns3:hr>
            <ns3:cad>0</ns3:cad>
          </ns3:TrackPointExtension>
        </extensions>
      </trkpt>
      <trkpt lat="45.3283407725393772125244140625" lon="-71.00506740622222423553466796875">
        <ele>635</ele>
        <time>2026-08-21T20:35:59.000Z</time>
        <extensions>
          <ns3:TrackPointExtension>
            <ns3:hr>99</ns3:hr>
            <ns3:cad>0</ns3:cad>
          </ns3:TrackPointExtension>
        </extensions>
      </trkpt>
      <trkpt lat="45.3283407725393772125244140625" lon="-71.00506740622222423553466796875">
        <ele>635</ele>
        <time>2026-08-21T20:36:00.000Z</time>
        <extensions>
          <ns3:TrackPointExtension>
            <ns3:hr>99</ns3:hr>
            <ns3:cad>0</ns3:cad>
          </ns3:TrackPointExtension>
        </extensions>
      </trkpt>
      <trkpt lat="45.3283407725393772125244140625" lon="-71.00506740622222423553466796875">
        <ele>635</ele>
        <time>2026-08-21T20:36:01.000Z</time>
        <extensions>
          <ns3:TrackPointExtension>
            <ns3:hr>100</ns3:hr>
            <ns3:cad>0</ns3:cad>
          </ns3:TrackPointExtension>
        </extensions>
      </trkpt>
      <trkpt lat="45.3283407725393772125244140625" lon="-71.00506740622222423553466796875">
        <ele>635</ele>
        <time>2026-08-21T20:36:02.000Z</time>
        <extensions>
          <ns3:TrackPointExtension>
            <ns3:hr>100</ns3:hr>
            <ns3:cad>0</ns3:cad>
          </ns3:TrackPointExtension>
        </extensions>
      </trkpt>
      <trkpt lat="45.3283407725393772125244140625" lon="-71.00506740622222423553466796875">
        <ele>635</ele>
        <time>2026-08-21T20:36:03.000Z</time>
        <extensions>
          <ns3:TrackPointExtension>
            <ns3:hr>100</ns3:hr>
            <ns3:cad>0</ns3:cad>
          </ns3:TrackPointExtension>
        </extensions>
      </trkpt>
      <trkpt lat="45.3283407725393772125244140625" lon="-71.00506740622222423553466796875">
        <ele>635.20001220703125</ele>
        <time>2026-08-21T20:36:04.000Z</time>
        <extensions>
          <ns3:TrackPointExtension>
            <ns3:hr>99</ns3:hr>
            <ns3:cad>0</ns3:cad>
          </ns3:TrackPointExtension>
        </extensions>
      </trkpt>
      <trkpt lat="45.3283407725393772125244140625" lon="-71.00506740622222423553466796875">
        <ele>635.20001220703125</ele>
        <time>2026-08-21T20:36:05.000Z</time>
        <extensions>
          <ns3:TrackPointExtension>
            <ns3:hr>100</ns3:hr>
            <ns3:cad>0</ns3:cad>
          </ns3:TrackPointExtension>
        </extensions>
      </trkpt>
      <trkpt lat="45.3283407725393772125244140625" lon="-71.00506740622222423553466796875">
        <ele>635.20001220703125</ele>
        <time>2026-08-21T20:36:06.000Z</time>
        <extensions>
          <ns3:TrackPointExtension>
            <ns3:hr>100</ns3:hr>
            <ns3:cad>0</ns3:cad>
          </ns3:TrackPointExtension>
        </extensions>
      </trkpt>
      <trkpt lat="45.3283407725393772125244140625" lon="-71.00506740622222423553466796875">
        <ele>635.20001220703125</ele>
        <time>2026-08-21T20:36:07.000Z</time>
        <extensions>
          <ns3:TrackPointExtension>
            <ns3:hr>100</ns3:hr>
            <ns3:cad>0</ns3:cad>
          </ns3:TrackPointExtension>
        </extensions>
      </trkpt>
      <trkpt lat="45.3283407725393772125244140625" lon="-71.00506740622222423553466796875">
        <ele>635</ele>
        <time>2026-08-21T20:36:08.000Z</time>
        <extensions>
          <ns3:TrackPointExtension>
            <ns3:hr>100</ns3:hr>
            <ns3:cad>0</ns3:cad>
          </ns3:TrackPointExtension>
        </extensions>
      </trkpt>
      <trkpt lat="45.3283407725393772125244140625" lon="-71.00506740622222423553466796875">
        <ele>635</ele>
        <time>2026-08-21T20:36:09.000Z</time>
        <extensions>
          <ns3:TrackPointExtension>
            <ns3:hr>100</ns3:hr>
            <ns3:cad>0</ns3:cad>
          </ns3:TrackPointExtension>
        </extensions>
      </trkpt>
      <trkpt lat="45.3283407725393772125244140625" lon="-71.00506740622222423553466796875">
        <ele>635</ele>
        <time>2026-08-21T20:36:10.000Z</time>
        <extensions>
          <ns3:TrackPointExtension>
            <ns3:hr>100</ns3:hr>
            <ns3:cad>0</ns3:cad>
          </ns3:TrackPointExtension>
        </extensions>
      </trkpt>
      <trkpt lat="45.3283407725393772125244140625" lon="-71.00506740622222423553466796875">
        <ele>635</ele>
        <time>2026-08-21T20:36:11.000Z</time>
        <extensions>
          <ns3:TrackPointExtension>
            <ns3:hr>100</ns3:hr>
            <ns3:cad>0</ns3:cad>
          </ns3:TrackPointExtension>
        </extensions>
      </trkpt>
      <trkpt lat="45.3283407725393772125244140625" lon="-71.00506740622222423553466796875">
        <ele>635.20001220703125</ele>
        <time>2026-08-21T20:36:12.000Z</time>
        <extensions>
          <ns3:TrackPointExtension>
            <ns3:hr>100</ns3:hr>
            <ns3:cad>0</ns3:cad>
          </ns3:TrackPointExtension>
        </extensions>
      </trkpt>
      <trkpt lat="45.3283407725393772125244140625" lon="-71.00506740622222423553466796875">
        <ele>635.20001220703125</ele>
        <time>2026-08-21T20:36:13.000Z</time>
        <extensions>
          <ns3:TrackPointExtension>
            <ns3:hr>99</ns3:hr>
            <ns3:cad>0</ns3:cad>
          </ns3:TrackPointExtension>
        </extensions>
      </trkpt>
      <trkpt lat="45.3283407725393772125244140625" lon="-71.00506740622222423553466796875">
        <ele>635.20001220703125</ele>
        <time>2026-08-21T20:36:14.000Z</time>
        <extensions>
          <ns3:TrackPointExtension>
            <ns3:hr>100</ns3:hr>
            <ns3:cad>0</ns3:cad>
          </ns3:TrackPointExtension>
        </extensions>
      </trkpt>
      <trkpt lat="45.3283407725393772125244140625" lon="-71.00506740622222423553466796875">
        <ele>635.20001220703125</ele>
        <time>2026-08-21T20:36:15.000Z</time>
        <extensions>
          <ns3:TrackPointExtension>
            <ns3:hr>101</ns3:hr>
            <ns3:cad>0</ns3:cad>
          </ns3:TrackPointExtension>
        </extensions>
      </trkpt>
      <trkpt lat="45.3283407725393772125244140625" lon="-71.00506740622222423553466796875">
        <ele>635.20001220703125</ele>
        <time>2026-08-21T20:36:16.000Z</time>
        <extensions>
          <ns3:TrackPointExtension>
            <ns3:hr>102</ns3:hr>
            <ns3:cad>0</ns3:cad>
          </ns3:TrackPointExtension>
        </extensions>
      </trkpt>
      <trkpt lat="45.3283407725393772125244140625" lon="-71.00506740622222423553466796875">
        <ele>635.20001220703125</ele>
        <time>2026-08-21T20:36:17.000Z</time>
        <extensions>
          <ns3:TrackPointExtension>
            <ns3:hr>101</ns3:hr>
            <ns3:cad>0</ns3:cad>
          </ns3:TrackPointExtension>
        </extensions>
      </trkpt>
      <trkpt lat="45.3283407725393772125244140625" lon="-71.00506740622222423553466796875">
        <ele>635.20001220703125</ele>
        <time>2026-08-21T20:36:18.000Z</time>
        <extensions>
          <ns3:TrackPointExtension>
            <ns3:hr>101</ns3:hr>
            <ns3:cad>0</ns3:cad>
          </ns3:TrackPointExtension>
        </extensions>
      </trkpt>
      <trkpt lat="45.3283407725393772125244140625" lon="-71.00506740622222423553466796875">
        <ele>635</ele>
        <time>2026-08-21T20:36:19.000Z</time>
        <extensions>
          <ns3:TrackPointExtension>
            <ns3:hr>101</ns3:hr>
            <ns3:cad>0</ns3:cad>
          </ns3:TrackPointExtension>
        </extensions>
      </trkpt>
      <trkpt lat="45.3283407725393772125244140625" lon="-71.00506740622222423553466796875">
        <ele>635.20001220703125</ele>
        <time>2026-08-21T20:36:20.000Z</time>
        <extensions>
          <ns3:TrackPointExtension>
            <ns3:hr>100</ns3:hr>
            <ns3:cad>0</ns3:cad>
          </ns3:TrackPointExtension>
        </extensions>
      </trkpt>
      <trkpt lat="45.3283407725393772125244140625" lon="-71.00506740622222423553466796875">
        <ele>635.20001220703125</ele>
        <time>2026-08-21T20:36:21.000Z</time>
        <extensions>
          <ns3:TrackPointExtension>
            <ns3:hr>99</ns3:hr>
            <ns3:cad>0</ns3:cad>
          </ns3:TrackPointExtension>
        </extensions>
      </trkpt>
      <trkpt lat="45.3283407725393772125244140625" lon="-71.00506740622222423553466796875">
        <ele>635.20001220703125</ele>
        <time>2026-08-21T20:36:22.000Z</time>
        <extensions>
          <ns3:TrackPointExtension>
            <ns3:hr>97</ns3:hr>
            <ns3:cad>0</ns3:cad>
          </ns3:TrackPointExtension>
        </extensions>
      </trkpt>
      <trkpt lat="45.3283407725393772125244140625" lon="-71.00506740622222423553466796875">
        <ele>635.20001220703125</ele>
        <time>2026-08-21T20:36:23.000Z</time>
        <extensions>
          <ns3:TrackPointExtension>
            <ns3:hr>96</ns3:hr>
            <ns3:cad>0</ns3:cad>
          </ns3:TrackPointExtension>
        </extensions>
      </trkpt>
      <trkpt lat="45.3283407725393772125244140625" lon="-71.00506740622222423553466796875">
        <ele>635.20001220703125</ele>
        <time>2026-08-21T20:36:24.000Z</time>
        <extensions>
          <ns3:TrackPointExtension>
            <ns3:hr>96</ns3:hr>
            <ns3:cad>0</ns3:cad>
          </ns3:TrackPointExtension>
        </extensions>
      </trkpt>
      <trkpt lat="45.3283407725393772125244140625" lon="-71.00506740622222423553466796875">
        <ele>635.20001220703125</ele>
        <time>2026-08-21T20:36:25.000Z</time>
        <extensions>
          <ns3:TrackPointExtension>
            <ns3:hr>95</ns3:hr>
            <ns3:cad>0</ns3:cad>
          </ns3:TrackPointExtension>
        </extensions>
      </trkpt>
      <trkpt lat="45.32834865152835845947265625" lon="-71.005054078996181488037109375">
        <ele>635.20001220703125</ele>
        <time>2026-08-21T20:36:26.000Z</time>
        <extensions>
          <ns3:TrackPointExtension>
            <ns3:hr>95</ns3:hr>
            <ns3:cad>0</ns3:cad>
          </ns3:TrackPointExtension>
        </extensions>
      </trkpt>
      <trkpt lat="45.328348986804485321044921875" lon="-71.00505282171070575714111328125">
        <ele>635.20001220703125</ele>
        <time>2026-08-21T20:36:27.000Z</time>
        <extensions>
          <ns3:TrackPointExtension>
            <ns3:hr>95</ns3:hr>
            <ns3:cad>0</ns3:cad>
          </ns3:TrackPointExtension>
        </extensions>
      </trkpt>
      <trkpt lat="45.32835074700415134429931640625" lon="-71.0050522349774837493896484375">
        <ele>635.20001220703125</ele>
        <time>2026-08-21T20:36:28.000Z</time>
        <extensions>
          <ns3:TrackPointExtension>
            <ns3:hr>94</ns3:hr>
            <ns3:cad>0</ns3:cad>
          </ns3:TrackPointExtension>
        </extensions>
      </trkpt>
      <trkpt lat="45.328354351222515106201171875" lon="-71.00505013950169086456298828125">
        <ele>635.20001220703125</ele>
        <time>2026-08-21T20:36:29.000Z</time>
        <extensions>
          <ns3:TrackPointExtension>
            <ns3:hr>94</ns3:hr>
            <ns3:cad>0</ns3:cad>
          </ns3:TrackPointExtension>
        </extensions>
      </trkpt>
      <trkpt lat="45.32835678197443485260009765625" lon="-71.00505106151103973388671875">
        <ele>635.20001220703125</ele>
        <time>2026-08-21T20:36:30.000Z</time>
        <extensions>
          <ns3:TrackPointExtension>
            <ns3:hr>95</ns3:hr>
            <ns3:cad>0</ns3:cad>
          </ns3:TrackPointExtension>
        </extensions>
      </trkpt>
      <trkpt lat="45.3283568657934665679931640625" lon="-71.00504896603524684906005859375">
        <ele>635.20001220703125</ele>
        <time>2026-08-21T20:36:31.000Z</time>
        <extensions>
          <ns3:TrackPointExtension>
            <ns3:hr>94</ns3:hr>
            <ns3:cad>0</ns3:cad>
          </ns3:TrackPointExtension>
        </extensions>
      </trkpt>
      <trkpt lat="45.32835896126925945281982421875" lon="-71.00504846312105655670166015625">
        <ele>635.20001220703125</ele>
        <time>2026-08-21T20:36:32.000Z</time>
        <extensions>
          <ns3:TrackPointExtension>
            <ns3:hr>94</ns3:hr>
            <ns3:cad>0</ns3:cad>
          </ns3:TrackPointExtension>
        </extensions>
      </trkpt>
      <trkpt lat="45.3283558599650859832763671875" lon="-71.005054078996181488037109375">
        <ele>635.20001220703125</ele>
        <time>2026-08-21T20:36:33.000Z</time>
        <extensions>
          <ns3:TrackPointExtension>
            <ns3:hr>94</ns3:hr>
            <ns3:cad>0</ns3:cad>
          </ns3:TrackPointExtension>
        </extensions>
      </trkpt>
      <trkpt lat="45.32835443504154682159423828125" lon="-71.00505617447197437286376953125">
        <ele>635</ele>
        <time>2026-08-21T20:36:34.000Z</time>
        <extensions>
          <ns3:TrackPointExtension>
            <ns3:hr>94</ns3:hr>
            <ns3:cad>0</ns3:cad>
          </ns3:TrackPointExtension>
        </extensions>
      </trkpt>
      <trkpt lat="45.32835393212735652923583984375" lon="-71.00506137125194072723388671875">
        <ele>635</ele>
        <time>2026-08-21T20:36:35.000Z</time>
        <extensions>
          <ns3:TrackPointExtension>
            <ns3:hr>95</ns3:hr>
            <ns3:cad>0</ns3:cad>
          </ns3:TrackPointExtension>
        </extensions>
      </trkpt>
      <trkpt lat="45.3283515013754367828369140625" lon="-71.0050649754703044891357421875">
        <ele>635</ele>
        <time>2026-08-21T20:36:36.000Z</time>
        <extensions>
          <ns3:TrackPointExtension>
            <ns3:hr>94</ns3:hr>
            <ns3:cad>0</ns3:cad>
          </ns3:TrackPointExtension>
        </extensions>
      </trkpt>
      <trkpt lat="45.3283407725393772125244140625" lon="-71.00506740622222423553466796875">
        <ele>635</ele>
        <time>2026-08-21T20:36:37.000Z</time>
        <extensions>
          <ns3:TrackPointExtension>
            <ns3:hr>94</ns3:hr>
            <ns3:cad>0</ns3:cad>
          </ns3:TrackPointExtension>
        </extensions>
      </trkpt>
      <trkpt lat="45.3283407725393772125244140625" lon="-71.00506740622222423553466796875">
        <ele>635</ele>
        <time>2026-08-21T20:36:38.000Z</time>
        <extensions>
          <ns3:TrackPointExtension>
            <ns3:hr>95</ns3:hr>
            <ns3:cad>0</ns3:cad>
          </ns3:TrackPointExtension>
        </extensions>
      </trkpt>
      <trkpt lat="45.3283407725393772125244140625" lon="-71.00506740622222423553466796875">
        <ele>635</ele>
        <time>2026-08-21T20:36:39.000Z</time>
        <extensions>
          <ns3:TrackPointExtension>
            <ns3:hr>95</ns3:hr>
            <ns3:cad>0</ns3:cad>
          </ns3:TrackPointExtension>
        </extensions>
      </trkpt>
      <trkpt lat="45.3283407725393772125244140625" lon="-71.00506740622222423553466796875">
        <ele>635.20001220703125</ele>
        <time>2026-08-21T20:36:40.000Z</time>
        <extensions>
          <ns3:TrackPointExtension>
            <ns3:hr>95</ns3:hr>
            <ns3:cad>0</ns3:cad>
          </ns3:TrackPointExtension>
        </extensions>
      </trkpt>
      <trkpt lat="45.3283407725393772125244140625" lon="-71.00506740622222423553466796875">
        <ele>635.20001220703125</ele>
        <time>2026-08-21T20:36:41.000Z</time>
        <extensions>
          <ns3:TrackPointExtension>
            <ns3:hr>94</ns3:hr>
            <ns3:cad>0</ns3:cad>
          </ns3:TrackPointExtension>
        </extensions>
      </trkpt>
      <trkpt lat="45.3283407725393772125244140625" lon="-71.00506740622222423553466796875">
        <ele>635.20001220703125</ele>
        <time>2026-08-21T20:36:42.000Z</time>
        <extensions>
          <ns3:TrackPointExtension>
            <ns3:hr>94</ns3:hr>
            <ns3:cad>0</ns3:cad>
          </ns3:TrackPointExtension>
        </extensions>
      </trkpt>
      <trkpt lat="45.3283407725393772125244140625" lon="-71.00506740622222423553466796875">
        <ele>635.20001220703125</ele>
        <time>2026-08-21T20:36:43.000Z</time>
        <extensions>
          <ns3:TrackPointExtension>
            <ns3:hr>94</ns3:hr>
            <ns3:cad>0</ns3:cad>
          </ns3:TrackPointExtension>
        </extensions>
      </trkpt>
      <trkpt lat="45.3283407725393772125244140625" lon="-71.00506740622222423553466796875">
        <ele>635.20001220703125</ele>
        <time>2026-08-21T20:36:44.000Z</time>
        <extensions>
          <ns3:TrackPointExtension>
            <ns3:hr>94</ns3:hr>
            <ns3:cad>0</ns3:cad>
          </ns3:TrackPointExtension>
        </extensions>
      </trkpt>
      <trkpt lat="45.3283407725393772125244140625" lon="-71.00506740622222423553466796875">
        <ele>635.20001220703125</ele>
        <time>2026-08-21T20:36:45.000Z</time>
        <extensions>
          <ns3:TrackPointExtension>
            <ns3:hr>93</ns3:hr>
            <ns3:cad>0</ns3:cad>
          </ns3:TrackPointExtension>
        </extensions>
      </trkpt>
      <trkpt lat="45.3283407725393772125244140625" lon="-71.00506740622222423553466796875">
        <ele>635.20001220703125</ele>
        <time>2026-08-21T20:36:46.000Z</time>
        <extensions>
          <ns3:TrackPointExtension>
            <ns3:hr>94</ns3:hr>
            <ns3:cad>0</ns3:cad>
          </ns3:TrackPointExtension>
        </extensions>
      </trkpt>
      <trkpt lat="45.3283407725393772125244140625" lon="-71.00506740622222423553466796875">
        <ele>635.20001220703125</ele>
        <time>2026-08-21T20:36:47.000Z</time>
        <extensions>
          <ns3:TrackPointExtension>
            <ns3:hr>95</ns3:hr>
            <ns3:cad>0</ns3:cad>
          </ns3:TrackPointExtension>
        </extensions>
      </trkpt>
      <trkpt lat="45.3283407725393772125244140625" lon="-71.00506740622222423553466796875">
        <ele>635</ele>
        <time>2026-08-21T20:36:48.000Z</time>
        <extensions>
          <ns3:TrackPointExtension>
            <ns3:hr>95</ns3:hr>
            <ns3:cad>0</ns3:cad>
          </ns3:TrackPointExtension>
        </extensions>
      </trkpt>
      <trkpt lat="45.32834999263286590576171875" lon="-71.00506187416613101959228515625">
        <ele>635</ele>
        <time>2026-08-21T20:36:49.000Z</time>
        <extensions>
          <ns3:TrackPointExtension>
            <ns3:hr>95</ns3:hr>
            <ns3:cad>0</ns3:cad>
          </ns3:TrackPointExtension>
        </extensions>
      </trkpt>
      <trkpt lat="45.32834907062351703643798828125" lon="-71.00506505928933620452880859375">
        <ele>635</ele>
        <time>2026-08-21T20:36:50.000Z</time>
        <extensions>
          <ns3:TrackPointExtension>
            <ns3:hr>96</ns3:hr>
            <ns3:cad>0</ns3:cad>
          </ns3:TrackPointExtension>
        </extensions>
      </trkpt>
      <trkpt lat="45.3283498249948024749755859375" lon="-71.0050599463284015655517578125">
        <ele>635</ele>
        <time>2026-08-21T20:36:51.000Z</time>
        <extensions>
          <ns3:TrackPointExtension>
            <ns3:hr>96</ns3:hr>
            <ns3:cad>0</ns3:cad>
          </ns3:TrackPointExtension>
        </extensions>
      </trkpt>
      <trkpt lat="45.32834856770932674407958984375" lon="-71.005046367645263671875">
        <ele>635</ele>
        <time>2026-08-21T20:36:52.000Z</time>
        <extensions>
          <ns3:TrackPointExtension>
            <ns3:hr>96</ns3:hr>
            <ns3:cad>0</ns3:cad>
          </ns3:TrackPointExtension>
        </extensions>
      </trkpt>
      <trkpt lat="45.32834890298545360565185546875" lon="-71.00504326634109020233154296875">
        <ele>635</ele>
        <time>2026-08-21T20:36:53.000Z</time>
        <extensions>
          <ns3:TrackPointExtension>
            <ns3:hr>96</ns3:hr>
            <ns3:cad>0</ns3:cad>
          </ns3:TrackPointExtension>
        </extensions>
      </trkpt>
      <trkpt lat="45.3283481486141681671142578125" lon="-71.00504192523658275604248046875">
        <ele>635</ele>
        <time>2026-08-21T20:36:54.000Z</time>
        <extensions>
          <ns3:TrackPointExtension>
            <ns3:hr>97</ns3:hr>
            <ns3:cad>0</ns3:cad>
          </ns3:TrackPointExtension>
        </extensions>
      </trkpt>
      <trkpt lat="45.32834689132869243621826171875" lon="-71.0050492174923419952392578125">
        <ele>635</ele>
        <time>2026-08-21T20:36:55.000Z</time>
        <extensions>
          <ns3:TrackPointExtension>
            <ns3:hr>97</ns3:hr>
            <ns3:cad>0</ns3:cad>
          </ns3:TrackPointExtension>
        </extensions>
      </trkpt>
      <trkpt lat="45.3283466398715972900390625" lon="-71.00505818612873554229736328125">
        <ele>635</ele>
        <time>2026-08-21T20:36:56.000Z</time>
        <extensions>
          <ns3:TrackPointExtension>
            <ns3:hr>98</ns3:hr>
            <ns3:cad>0</ns3:cad>
          </ns3:TrackPointExtension>
        </extensions>
      </trkpt>
      <trkpt lat="45.32834756188094615936279296875" lon="-71.005064137279987335205078125">
        <ele>635</ele>
        <time>2026-08-21T20:36:57.000Z</time>
        <extensions>
          <ns3:TrackPointExtension>
            <ns3:hr>98</ns3:hr>
            <ns3:cad>0</ns3:cad>
          </ns3:TrackPointExtension>
        </extensions>
      </trkpt>
      <trkpt lat="45.3283407725393772125244140625" lon="-71.00506740622222423553466796875">
        <ele>635</ele>
        <time>2026-08-21T20:36:58.000Z</time>
        <extensions>
          <ns3:TrackPointExtension>
            <ns3:hr>98</ns3:hr>
            <ns3:cad>0</ns3:cad>
          </ns3:TrackPointExtension>
        </extensions>
      </trkpt>
      <trkpt lat="45.3283407725393772125244140625" lon="-71.00506740622222423553466796875">
        <ele>635</ele>
        <time>2026-08-21T20:36:59.000Z</time>
        <extensions>
          <ns3:TrackPointExtension>
            <ns3:hr>98</ns3:hr>
            <ns3:cad>0</ns3:cad>
          </ns3:TrackPointExtension>
        </extensions>
      </trkpt>
      <trkpt lat="45.3283407725393772125244140625" lon="-71.00506740622222423553466796875">
        <ele>635</ele>
        <time>2026-08-21T20:37:00.000Z</time>
        <extensions>
          <ns3:TrackPointExtension>
            <ns3:hr>99</ns3:hr>
            <ns3:cad>0</ns3:cad>
          </ns3:TrackPointExtension>
        </extensions>
      </trkpt>
      <trkpt lat="45.3283407725393772125244140625" lon="-71.00506740622222423553466796875">
        <ele>635</ele>
        <time>2026-08-21T20:37:01.000Z</time>
        <extensions>
          <ns3:TrackPointExtension>
            <ns3:hr>99</ns3:hr>
            <ns3:cad>0</ns3:cad>
          </ns3:TrackPointExtension>
        </extensions>
      </trkpt>
      <trkpt lat="45.3283407725393772125244140625" lon="-71.00506740622222423553466796875">
        <ele>635</ele>
        <time>2026-08-21T20:37:02.000Z</time>
        <extensions>
          <ns3:TrackPointExtension>
            <ns3:hr>99</ns3:hr>
            <ns3:cad>0</ns3:cad>
          </ns3:TrackPointExtension>
        </extensions>
      </trkpt>
      <trkpt lat="45.3283407725393772125244140625" lon="-71.00506740622222423553466796875">
        <ele>635</ele>
        <time>2026-08-21T20:37:03.000Z</time>
        <extensions>
          <ns3:TrackPointExtension>
            <ns3:hr>98</ns3:hr>
            <ns3:cad>0</ns3:cad>
          </ns3:TrackPointExtension>
        </extensions>
      </trkpt>
      <trkpt lat="45.3283407725393772125244140625" lon="-71.00506740622222423553466796875">
        <ele>635</ele>
        <time>2026-08-21T20:37:04.000Z</time>
        <extensions>
          <ns3:TrackPointExtension>
            <ns3:hr>98</ns3:hr>
            <ns3:cad>0</ns3:cad>
          </ns3:TrackPointExtension>
        </extensions>
      </trkpt>
      <trkpt lat="45.3283407725393772125244140625" lon="-71.00506740622222423553466796875">
        <ele>635</ele>
        <time>2026-08-21T20:37:05.000Z</time>
        <extensions>
          <ns3:TrackPointExtension>
            <ns3:hr>98</ns3:hr>
            <ns3:cad>0</ns3:cad>
          </ns3:TrackPointExtension>
        </extensions>
      </trkpt>
      <trkpt lat="45.3283407725393772125244140625" lon="-71.00506740622222423553466796875">
        <ele>634.79998779296875</ele>
        <time>2026-08-21T20:37:06.000Z</time>
        <extensions>
          <ns3:TrackPointExtension>
            <ns3:hr>94</ns3:hr>
            <ns3:cad>0</ns3:cad>
          </ns3:TrackPointExtension>
        </extensions>
      </trkpt>
      <trkpt lat="45.3283407725393772125244140625" lon="-71.00506740622222423553466796875">
        <ele>634.79998779296875</ele>
        <time>2026-08-21T20:37:07.000Z</time>
        <extensions>
          <ns3:TrackPointExtension>
            <ns3:hr>91</ns3:hr>
            <ns3:cad>0</ns3:cad>
          </ns3:TrackPointExtension>
        </extensions>
      </trkpt>
      <trkpt lat="45.3283407725393772125244140625" lon="-71.00506740622222423553466796875">
        <ele>634.79998779296875</ele>
        <time>2026-08-21T20:37:08.000Z</time>
        <extensions>
          <ns3:TrackPointExtension>
            <ns3:hr>92</ns3:hr>
            <ns3:cad>0</ns3:cad>
          </ns3:TrackPointExtension>
        </extensions>
      </trkpt>
      <trkpt lat="45.3283407725393772125244140625" lon="-71.00506740622222423553466796875">
        <ele>635</ele>
        <time>2026-08-21T20:37:09.000Z</time>
        <extensions>
          <ns3:TrackPointExtension>
            <ns3:hr>93</ns3:hr>
            <ns3:cad>0</ns3:cad>
          </ns3:TrackPointExtension>
        </extensions>
      </trkpt>
      <trkpt lat="45.3283407725393772125244140625" lon="-71.00506740622222423553466796875">
        <ele>635</ele>
        <time>2026-08-21T20:37:10.000Z</time>
        <extensions>
          <ns3:TrackPointExtension>
            <ns3:hr>93</ns3:hr>
            <ns3:cad>0</ns3:cad>
          </ns3:TrackPointExtension>
        </extensions>
      </trkpt>
      <trkpt lat="45.3283407725393772125244140625" lon="-71.00506740622222423553466796875">
        <ele>635</ele>
        <time>2026-08-21T20:37:11.000Z</time>
        <extensions>
          <ns3:TrackPointExtension>
            <ns3:hr>93</ns3:hr>
            <ns3:cad>0</ns3:cad>
          </ns3:TrackPointExtension>
        </extensions>
      </trkpt>
      <trkpt lat="45.3283407725393772125244140625" lon="-71.00506740622222423553466796875">
        <ele>635</ele>
        <time>2026-08-21T20:37:12.000Z</time>
        <extensions>
          <ns3:TrackPointExtension>
            <ns3:hr>92</ns3:hr>
            <ns3:cad>0</ns3:cad>
          </ns3:TrackPointExtension>
        </extensions>
      </trkpt>
      <trkpt lat="45.3283407725393772125244140625" lon="-71.00506740622222423553466796875">
        <ele>635</ele>
        <time>2026-08-21T20:37:13.000Z</time>
        <extensions>
          <ns3:TrackPointExtension>
            <ns3:hr>92</ns3:hr>
            <ns3:cad>0</ns3:cad>
          </ns3:TrackPointExtension>
        </extensions>
      </trkpt>
      <trkpt lat="45.3283407725393772125244140625" lon="-71.00506740622222423553466796875">
        <ele>634.79998779296875</ele>
        <time>2026-08-21T20:37:14.000Z</time>
        <extensions>
          <ns3:TrackPointExtension>
            <ns3:hr>92</ns3:hr>
            <ns3:cad>0</ns3:cad>
          </ns3:TrackPointExtension>
        </extensions>
      </trkpt>
      <trkpt lat="45.3283407725393772125244140625" lon="-71.00506740622222423553466796875">
        <ele>634.79998779296875</ele>
        <time>2026-08-21T20:37:15.000Z</time>
        <extensions>
          <ns3:TrackPointExtension>
            <ns3:hr>92</ns3:hr>
            <ns3:cad>0</ns3:cad>
          </ns3:TrackPointExtension>
        </extensions>
      </trkpt>
      <trkpt lat="45.3283407725393772125244140625" lon="-71.00506740622222423553466796875">
        <ele>634.79998779296875</ele>
        <time>2026-08-21T20:37:16.000Z</time>
        <extensions>
          <ns3:TrackPointExtension>
            <ns3:hr>93</ns3:hr>
            <ns3:cad>0</ns3:cad>
          </ns3:TrackPointExtension>
        </extensions>
      </trkpt>
      <trkpt lat="45.3283407725393772125244140625" lon="-71.00506740622222423553466796875">
        <ele>634.79998779296875</ele>
        <time>2026-08-21T20:37:17.000Z</time>
        <extensions>
          <ns3:TrackPointExtension>
            <ns3:hr>93</ns3:hr>
            <ns3:cad>0</ns3:cad>
          </ns3:TrackPointExtension>
        </extensions>
      </trkpt>
      <trkpt lat="45.3283407725393772125244140625" lon="-71.00506740622222423553466796875">
        <ele>634.79998779296875</ele>
        <time>2026-08-21T20:37:18.000Z</time>
        <extensions>
          <ns3:TrackPointExtension>
            <ns3:hr>91</ns3:hr>
            <ns3:cad>0</ns3:cad>
          </ns3:TrackPointExtension>
        </extensions>
      </trkpt>
      <trkpt lat="45.3283407725393772125244140625" lon="-71.00506740622222423553466796875">
        <ele>634.79998779296875</ele>
        <time>2026-08-21T20:37:19.000Z</time>
        <extensions>
          <ns3:TrackPointExtension>
            <ns3:hr>89</ns3:hr>
            <ns3:cad>0</ns3:cad>
          </ns3:TrackPointExtension>
        </extensions>
      </trkpt>
      <trkpt lat="45.3283407725393772125244140625" lon="-71.00506740622222423553466796875">
        <ele>634.79998779296875</ele>
        <time>2026-08-21T20:37:20.000Z</time>
        <extensions>
          <ns3:TrackPointExtension>
            <ns3:hr>88</ns3:hr>
            <ns3:cad>0</ns3:cad>
          </ns3:TrackPointExtension>
        </extensions>
      </trkpt>
      <trkpt lat="45.3283407725393772125244140625" lon="-71.00506740622222423553466796875">
        <ele>634.79998779296875</ele>
        <time>2026-08-21T20:37:21.000Z</time>
        <extensions>
          <ns3:TrackPointExtension>
            <ns3:hr>87</ns3:hr>
            <ns3:cad>0</ns3:cad>
          </ns3:TrackPointExtension>
        </extensions>
      </trkpt>
      <trkpt lat="45.3283407725393772125244140625" lon="-71.00506740622222423553466796875">
        <ele>634.79998779296875</ele>
        <time>2026-08-21T20:37:22.000Z</time>
        <extensions>
          <ns3:TrackPointExtension>
            <ns3:hr>87</ns3:hr>
            <ns3:cad>0</ns3:cad>
          </ns3:TrackPointExtension>
        </extensions>
      </trkpt>
      <trkpt lat="45.3283407725393772125244140625" lon="-71.00506740622222423553466796875">
        <ele>634.79998779296875</ele>
        <time>2026-08-21T20:37:23.000Z</time>
        <extensions>
          <ns3:TrackPointExtension>
            <ns3:hr>86</ns3:hr>
            <ns3:cad>0</ns3:cad>
          </ns3:TrackPointExtension>
        </extensions>
      </trkpt>
      <trkpt lat="45.3283407725393772125244140625" lon="-71.00506740622222423553466796875">
        <ele>634.79998779296875</ele>
        <time>2026-08-21T20:37:24.000Z</time>
        <extensions>
          <ns3:TrackPointExtension>
            <ns3:hr>86</ns3:hr>
            <ns3:cad>0</ns3:cad>
          </ns3:TrackPointExtension>
        </extensions>
      </trkpt>
      <trkpt lat="45.3283407725393772125244140625" lon="-71.00506740622222423553466796875">
        <ele>635</ele>
        <time>2026-08-21T20:37:25.000Z</time>
        <extensions>
          <ns3:TrackPointExtension>
            <ns3:hr>87</ns3:hr>
            <ns3:cad>0</ns3:cad>
          </ns3:TrackPointExtension>
        </extensions>
      </trkpt>
      <trkpt lat="45.3283407725393772125244140625" lon="-71.00506740622222423553466796875">
        <ele>635.4000244140625</ele>
        <time>2026-08-21T20:37:26.000Z</time>
        <extensions>
          <ns3:TrackPointExtension>
            <ns3:hr>87</ns3:hr>
            <ns3:cad>0</ns3:cad>
          </ns3:TrackPointExtension>
        </extensions>
      </trkpt>
      <trkpt lat="45.3283407725393772125244140625" lon="-71.00506740622222423553466796875">
        <ele>635.5999755859375</ele>
        <time>2026-08-21T20:37:27.000Z</time>
        <extensions>
          <ns3:TrackPointExtension>
            <ns3:hr>87</ns3:hr>
            <ns3:cad>0</ns3:cad>
          </ns3:TrackPointExtension>
        </extensions>
      </trkpt>
      <trkpt lat="45.3283407725393772125244140625" lon="-71.00506740622222423553466796875">
        <ele>635.79998779296875</ele>
        <time>2026-08-21T20:37:28.000Z</time>
        <extensions>
          <ns3:TrackPointExtension>
            <ns3:hr>87</ns3:hr>
            <ns3:cad>0</ns3:cad>
          </ns3:TrackPointExtension>
        </extensions>
      </trkpt>
      <trkpt lat="45.3283407725393772125244140625" lon="-71.00506740622222423553466796875">
        <ele>635.79998779296875</ele>
        <time>2026-08-21T20:37:29.000Z</time>
        <extensions>
          <ns3:TrackPointExtension>
            <ns3:hr>87</ns3:hr>
            <ns3:cad>0</ns3:cad>
          </ns3:TrackPointExtension>
        </extensions>
      </trkpt>
      <trkpt lat="45.32835175283253192901611328125" lon="-71.00506983697414398193359375">
        <ele>635.5999755859375</ele>
        <time>2026-08-21T20:37:30.000Z</time>
        <extensions>
          <ns3:TrackPointExtension>
            <ns3:hr>87</ns3:hr>
            <ns3:cad>0</ns3:cad>
          </ns3:TrackPointExtension>
        </extensions>
      </trkpt>
      <trkpt lat="45.32835342921316623687744140625" lon="-71.005076877772808074951171875">
        <ele>635.5999755859375</ele>
        <time>2026-08-21T20:37:31.000Z</time>
        <extensions>
          <ns3:TrackPointExtension>
            <ns3:hr>90</ns3:hr>
            <ns3:cad>0</ns3:cad>
          </ns3:TrackPointExtension>
        </extensions>
      </trkpt>
      <trkpt lat="45.32835460267961025238037109375" lon="-71.0050793923437595367431640625">
        <ele>635.5999755859375</ele>
        <time>2026-08-21T20:37:32.000Z</time>
        <extensions>
          <ns3:TrackPointExtension>
            <ns3:hr>91</ns3:hr>
            <ns3:cad>0</ns3:cad>
          </ns3:TrackPointExtension>
        </extensions>
      </trkpt>
      <trkpt lat="45.32835460267961025238037109375" lon="-71.00508366711437702178955078125">
        <ele>635.4000244140625</ele>
        <time>2026-08-21T20:37:33.000Z</time>
        <extensions>
          <ns3:TrackPointExtension>
            <ns3:hr>92</ns3:hr>
            <ns3:cad>0</ns3:cad>
          </ns3:TrackPointExtension>
        </extensions>
      </trkpt>
      <trkpt lat="45.3283546864986419677734375" lon="-71.0050837509334087371826171875">
        <ele>635.4000244140625</ele>
        <time>2026-08-21T20:37:34.000Z</time>
        <extensions>
          <ns3:TrackPointExtension>
            <ns3:hr>92</ns3:hr>
            <ns3:cad>79</ns3:cad>
          </ns3:TrackPointExtension>
        </extensions>
      </trkpt>
      <trkpt lat="45.32835477031767368316650390625" lon="-71.00508391857147216796875">
        <ele>635.4000244140625</ele>
        <time>2026-08-21T20:37:35.000Z</time>
        <extensions>
          <ns3:TrackPointExtension>
            <ns3:hr>93</ns3:hr>
            <ns3:cad>79</ns3:cad>
          </ns3:TrackPointExtension>
        </extensions>
      </trkpt>
      <trkpt lat="45.3283561952412128448486328125" lon="-71.00508551113307476043701171875">
        <ele>635.4000244140625</ele>
        <time>2026-08-21T20:37:36.000Z</time>
        <extensions>
          <ns3:TrackPointExtension>
            <ns3:hr>93</ns3:hr>
            <ns3:cad>79</ns3:cad>
          </ns3:TrackPointExtension>
        </extensions>
      </trkpt>
      <trkpt lat="45.328356362879276275634765625" lon="-71.005090288817882537841796875">
        <ele>635.4000244140625</ele>
        <time>2026-08-21T20:37:37.000Z</time>
        <extensions>
          <ns3:TrackPointExtension>
            <ns3:hr>93</ns3:hr>
            <ns3:cad>0</ns3:cad>
          </ns3:TrackPointExtension>
        </extensions>
      </trkpt>
      <trkpt lat="45.3283546864986419677734375" lon="-71.0050837509334087371826171875">
        <ele>635.4000244140625</ele>
        <time>2026-08-21T20:37:38.000Z</time>
        <extensions>
          <ns3:TrackPointExtension>
            <ns3:hr>92</ns3:hr>
            <ns3:cad>0</ns3:cad>
          </ns3:TrackPointExtension>
        </extensions>
      </trkpt>
      <trkpt lat="45.3283546864986419677734375" lon="-71.0050837509334087371826171875">
        <ele>635.4000244140625</ele>
        <time>2026-08-21T20:37:39.000Z</time>
        <extensions>
          <ns3:TrackPointExtension>
            <ns3:hr>92</ns3:hr>
            <ns3:cad>0</ns3:cad>
          </ns3:TrackPointExtension>
        </extensions>
      </trkpt>
      <trkpt lat="45.3283546864986419677734375" lon="-71.0050837509334087371826171875">
        <ele>635.4000244140625</ele>
        <time>2026-08-21T20:37:40.000Z</time>
        <extensions>
          <ns3:TrackPointExtension>
            <ns3:hr>92</ns3:hr>
            <ns3:cad>0</ns3:cad>
          </ns3:TrackPointExtension>
        </extensions>
      </trkpt>
      <trkpt lat="45.3283546864986419677734375" lon="-71.0050837509334087371826171875">
        <ele>635.4000244140625</ele>
        <time>2026-08-21T20:37:41.000Z</time>
        <extensions>
          <ns3:TrackPointExtension>
            <ns3:hr>92</ns3:hr>
            <ns3:cad>0</ns3:cad>
          </ns3:TrackPointExtension>
        </extensions>
      </trkpt>
      <trkpt lat="45.3283546864986419677734375" lon="-71.0050837509334087371826171875">
        <ele>635.4000244140625</ele>
        <time>2026-08-21T20:37:42.000Z</time>
        <extensions>
          <ns3:TrackPointExtension>
            <ns3:hr>93</ns3:hr>
            <ns3:cad>0</ns3:cad>
          </ns3:TrackPointExtension>
        </extensions>
      </trkpt>
      <trkpt lat="45.3283546864986419677734375" lon="-71.0050837509334087371826171875">
        <ele>635.4000244140625</ele>
        <time>2026-08-21T20:37:43.000Z</time>
        <extensions>
          <ns3:TrackPointExtension>
            <ns3:hr>95</ns3:hr>
            <ns3:cad>0</ns3:cad>
          </ns3:TrackPointExtension>
        </extensions>
      </trkpt>
      <trkpt lat="45.3283546864986419677734375" lon="-71.0050837509334087371826171875">
        <ele>635.4000244140625</ele>
        <time>2026-08-21T20:37:44.000Z</time>
        <extensions>
          <ns3:TrackPointExtension>
            <ns3:hr>102</ns3:hr>
            <ns3:cad>0</ns3:cad>
          </ns3:TrackPointExtension>
        </extensions>
      </trkpt>
      <trkpt lat="45.3283546864986419677734375" lon="-71.0050837509334087371826171875">
        <ele>635.4000244140625</ele>
        <time>2026-08-21T20:37:45.000Z</time>
        <extensions>
          <ns3:TrackPointExtension>
            <ns3:hr>103</ns3:hr>
            <ns3:cad>0</ns3:cad>
          </ns3:TrackPointExtension>
        </extensions>
      </trkpt>
      <trkpt lat="45.3283546864986419677734375" lon="-71.0050837509334087371826171875">
        <ele>635.5999755859375</ele>
        <time>2026-08-21T20:37:46.000Z</time>
        <extensions>
          <ns3:TrackPointExtension>
            <ns3:hr>105</ns3:hr>
            <ns3:cad>0</ns3:cad>
          </ns3:TrackPointExtension>
        </extensions>
      </trkpt>
      <trkpt lat="45.3283546864986419677734375" lon="-71.0050837509334087371826171875">
        <ele>635.5999755859375</ele>
        <time>2026-08-21T20:37:47.000Z</time>
        <extensions>
          <ns3:TrackPointExtension>
            <ns3:hr>106</ns3:hr>
            <ns3:cad>0</ns3:cad>
          </ns3:TrackPointExtension>
        </extensions>
      </trkpt>
      <trkpt lat="45.3283546864986419677734375" lon="-71.0050837509334087371826171875">
        <ele>635.5999755859375</ele>
        <time>2026-08-21T20:37:48.000Z</time>
        <extensions>
          <ns3:TrackPointExtension>
            <ns3:hr>106</ns3:hr>
            <ns3:cad>0</ns3:cad>
          </ns3:TrackPointExtension>
        </extensions>
      </trkpt>
      <trkpt lat="45.3283546864986419677734375" lon="-71.0050837509334087371826171875">
        <ele>635.5999755859375</ele>
        <time>2026-08-21T20:37:49.000Z</time>
        <extensions>
          <ns3:TrackPointExtension>
            <ns3:hr>106</ns3:hr>
            <ns3:cad>0</ns3:cad>
          </ns3:TrackPointExtension>
        </extensions>
      </trkpt>
      <trkpt lat="45.3283546864986419677734375" lon="-71.0050837509334087371826171875">
        <ele>635.5999755859375</ele>
        <time>2026-08-21T20:37:50.000Z</time>
        <extensions>
          <ns3:TrackPointExtension>
            <ns3:hr>106</ns3:hr>
            <ns3:cad>0</ns3:cad>
          </ns3:TrackPointExtension>
        </extensions>
      </trkpt>
      <trkpt lat="45.3283546864986419677734375" lon="-71.0050837509334087371826171875">
        <ele>635.5999755859375</ele>
        <time>2026-08-21T20:37:51.000Z</time>
        <extensions>
          <ns3:TrackPointExtension>
            <ns3:hr>107</ns3:hr>
            <ns3:cad>0</ns3:cad>
          </ns3:TrackPointExtension>
        </extensions>
      </trkpt>
      <trkpt lat="45.3283546864986419677734375" lon="-71.0050837509334087371826171875">
        <ele>635.5999755859375</ele>
        <time>2026-08-21T20:37:52.000Z</time>
        <extensions>
          <ns3:TrackPointExtension>
            <ns3:hr>107</ns3:hr>
            <ns3:cad>0</ns3:cad>
          </ns3:TrackPointExtension>
        </extensions>
      </trkpt>
      <trkpt lat="45.3283546864986419677734375" lon="-71.0050837509334087371826171875">
        <ele>635.5999755859375</ele>
        <time>2026-08-21T20:37:53.000Z</time>
        <extensions>
          <ns3:TrackPointExtension>
            <ns3:hr>108</ns3:hr>
            <ns3:cad>0</ns3:cad>
          </ns3:TrackPointExtension>
        </extensions>
      </trkpt>
      <trkpt lat="45.3283546864986419677734375" lon="-71.0050837509334087371826171875">
        <ele>635.5999755859375</ele>
        <time>2026-08-21T20:37:54.000Z</time>
        <extensions>
          <ns3:TrackPointExtension>
            <ns3:hr>108</ns3:hr>
            <ns3:cad>0</ns3:cad>
          </ns3:TrackPointExtension>
        </extensions>
      </trkpt>
      <trkpt lat="45.3283546864986419677734375" lon="-71.0050837509334087371826171875">
        <ele>635.5999755859375</ele>
        <time>2026-08-21T20:37:55.000Z</time>
        <extensions>
          <ns3:TrackPointExtension>
            <ns3:hr>108</ns3:hr>
            <ns3:cad>0</ns3:cad>
          </ns3:TrackPointExtension>
        </extensions>
      </trkpt>
      <trkpt lat="45.3283546864986419677734375" lon="-71.0050837509334087371826171875">
        <ele>635.5999755859375</ele>
        <time>2026-08-21T20:37:56.000Z</time>
        <extensions>
          <ns3:TrackPointExtension>
            <ns3:hr>108</ns3:hr>
            <ns3:cad>0</ns3:cad>
          </ns3:TrackPointExtension>
        </extensions>
      </trkpt>
      <trkpt lat="45.3283538483083248138427734375" lon="-71.0050894506275653839111328125">
        <ele>635.5999755859375</ele>
        <time>2026-08-21T20:37:57.000Z</time>
        <extensions>
          <ns3:TrackPointExtension>
            <ns3:hr>107</ns3:hr>
            <ns3:cad>0</ns3:cad>
          </ns3:TrackPointExtension>
        </extensions>
      </trkpt>
      <trkpt lat="45.32835493795573711395263671875" lon="-71.005091629922389984130859375">
        <ele>635.5999755859375</ele>
        <time>2026-08-21T20:37:58.000Z</time>
        <extensions>
          <ns3:TrackPointExtension>
            <ns3:hr>108</ns3:hr>
            <ns3:cad>0</ns3:cad>
          </ns3:TrackPointExtension>
        </extensions>
      </trkpt>
      <trkpt lat="45.3283545188605785369873046875" lon="-71.005091629922389984130859375">
        <ele>635.5999755859375</ele>
        <time>2026-08-21T20:37:59.000Z</time>
        <extensions>
          <ns3:TrackPointExtension>
            <ns3:hr>108</ns3:hr>
            <ns3:cad>0</ns3:cad>
          </ns3:TrackPointExtension>
        </extensions>
      </trkpt>
      <trkpt lat="45.32835477031767368316650390625" lon="-71.00508836098015308380126953125">
        <ele>635.5999755859375</ele>
        <time>2026-08-21T20:38:00.000Z</time>
        <extensions>
          <ns3:TrackPointExtension>
            <ns3:hr>107</ns3:hr>
            <ns3:cad>0</ns3:cad>
          </ns3:TrackPointExtension>
        </extensions>
      </trkpt>
      <trkpt lat="45.3283565305173397064208984375" lon="-71.005089618265628814697265625">
        <ele>635.4000244140625</ele>
        <time>2026-08-21T20:38:01.000Z</time>
        <extensions>
          <ns3:TrackPointExtension>
            <ns3:hr>107</ns3:hr>
            <ns3:cad>0</ns3:cad>
          </ns3:TrackPointExtension>
        </extensions>
      </trkpt>
      <trkpt lat="45.3283561952412128448486328125" lon="-71.0050897859036922454833984375">
        <ele>635.4000244140625</ele>
        <time>2026-08-21T20:38:02.000Z</time>
        <extensions>
          <ns3:TrackPointExtension>
            <ns3:hr>108</ns3:hr>
            <ns3:cad>0</ns3:cad>
          </ns3:TrackPointExtension>
        </extensions>
      </trkpt>
      <trkpt lat="45.3283546864986419677734375" lon="-71.0050837509334087371826171875">
        <ele>635.20001220703125</ele>
        <time>2026-08-21T20:38:03.000Z</time>
        <extensions>
          <ns3:TrackPointExtension>
            <ns3:hr>108</ns3:hr>
            <ns3:cad>0</ns3:cad>
          </ns3:TrackPointExtension>
        </extensions>
      </trkpt>
      <trkpt lat="45.3283546864986419677734375" lon="-71.0050837509334087371826171875">
        <ele>635</ele>
        <time>2026-08-21T20:38:04.000Z</time>
        <extensions>
          <ns3:TrackPointExtension>
            <ns3:hr>108</ns3:hr>
            <ns3:cad>0</ns3:cad>
          </ns3:TrackPointExtension>
        </extensions>
      </trkpt>
      <trkpt lat="45.3283546864986419677734375" lon="-71.0050837509334087371826171875">
        <ele>634.79998779296875</ele>
        <time>2026-08-21T20:38:05.000Z</time>
        <extensions>
          <ns3:TrackPointExtension>
            <ns3:hr>109</ns3:hr>
            <ns3:cad>0</ns3:cad>
          </ns3:TrackPointExtension>
        </extensions>
      </trkpt>
      <trkpt lat="45.3283546864986419677734375" lon="-71.0050837509334087371826171875">
        <ele>634.79998779296875</ele>
        <time>2026-08-21T20:38:06.000Z</time>
        <extensions>
          <ns3:TrackPointExtension>
            <ns3:hr>110</ns3:hr>
            <ns3:cad>0</ns3:cad>
          </ns3:TrackPointExtension>
        </extensions>
      </trkpt>
      <trkpt lat="45.3283546864986419677734375" lon="-71.0050837509334087371826171875">
        <ele>634.79998779296875</ele>
        <time>2026-08-21T20:38:07.000Z</time>
        <extensions>
          <ns3:TrackPointExtension>
            <ns3:hr>110</ns3:hr>
            <ns3:cad>0</ns3:cad>
          </ns3:TrackPointExtension>
        </extensions>
      </trkpt>
      <trkpt lat="45.3283546864986419677734375" lon="-71.0050837509334087371826171875">
        <ele>634.79998779296875</ele>
        <time>2026-08-21T20:38:08.000Z</time>
        <extensions>
          <ns3:TrackPointExtension>
            <ns3:hr>110</ns3:hr>
            <ns3:cad>0</ns3:cad>
          </ns3:TrackPointExtension>
        </extensions>
      </trkpt>
      <trkpt lat="45.3283546864986419677734375" lon="-71.0050837509334087371826171875">
        <ele>634.79998779296875</ele>
        <time>2026-08-21T20:38:09.000Z</time>
        <extensions>
          <ns3:TrackPointExtension>
            <ns3:hr>110</ns3:hr>
            <ns3:cad>0</ns3:cad>
          </ns3:TrackPointExtension>
        </extensions>
      </trkpt>
      <trkpt lat="45.3283546864986419677734375" lon="-71.0050837509334087371826171875">
        <ele>634.79998779296875</ele>
        <time>2026-08-21T20:38:10.000Z</time>
        <extensions>
          <ns3:TrackPointExtension>
            <ns3:hr>110</ns3:hr>
            <ns3:cad>0</ns3:cad>
          </ns3:TrackPointExtension>
        </extensions>
      </trkpt>
      <trkpt lat="45.3283546864986419677734375" lon="-71.0050837509334087371826171875">
        <ele>634.79998779296875</ele>
        <time>2026-08-21T20:38:11.000Z</time>
        <extensions>
          <ns3:TrackPointExtension>
            <ns3:hr>110</ns3:hr>
            <ns3:cad>0</ns3:cad>
          </ns3:TrackPointExtension>
        </extensions>
      </trkpt>
      <trkpt lat="45.3283546864986419677734375" lon="-71.0050837509334087371826171875">
        <ele>634.5999755859375</ele>
        <time>2026-08-21T20:38:12.000Z</time>
        <extensions>
          <ns3:TrackPointExtension>
            <ns3:hr>110</ns3:hr>
            <ns3:cad>0</ns3:cad>
          </ns3:TrackPointExtension>
        </extensions>
      </trkpt>
      <trkpt lat="45.3283546864986419677734375" lon="-71.0050837509334087371826171875">
        <ele>634.5999755859375</ele>
        <time>2026-08-21T20:38:13.000Z</time>
        <extensions>
          <ns3:TrackPointExtension>
            <ns3:hr>110</ns3:hr>
            <ns3:cad>0</ns3:cad>
          </ns3:TrackPointExtension>
        </extensions>
      </trkpt>
      <trkpt lat="45.3283546864986419677734375" lon="-71.0050837509334087371826171875">
        <ele>634.5999755859375</ele>
        <time>2026-08-21T20:38:14.000Z</time>
        <extensions>
          <ns3:TrackPointExtension>
            <ns3:hr>110</ns3:hr>
            <ns3:cad>0</ns3:cad>
          </ns3:TrackPointExtension>
        </extensions>
      </trkpt>
      <trkpt lat="45.3283546864986419677734375" lon="-71.0050837509334087371826171875">
        <ele>634.5999755859375</ele>
        <time>2026-08-21T20:38:15.000Z</time>
        <extensions>
          <ns3:TrackPointExtension>
            <ns3:hr>110</ns3:hr>
            <ns3:cad>0</ns3:cad>
          </ns3:TrackPointExtension>
        </extensions>
      </trkpt>
      <trkpt lat="45.3283546864986419677734375" lon="-71.0050837509334087371826171875">
        <ele>634.5999755859375</ele>
        <time>2026-08-21T20:38:16.000Z</time>
        <extensions>
          <ns3:TrackPointExtension>
            <ns3:hr>109</ns3:hr>
            <ns3:cad>0</ns3:cad>
          </ns3:TrackPointExtension>
        </extensions>
      </trkpt>
      <trkpt lat="45.3283546864986419677734375" lon="-71.0050837509334087371826171875">
        <ele>634.5999755859375</ele>
        <time>2026-08-21T20:38:17.000Z</time>
        <extensions>
          <ns3:TrackPointExtension>
            <ns3:hr>109</ns3:hr>
            <ns3:cad>0</ns3:cad>
          </ns3:TrackPointExtension>
        </extensions>
      </trkpt>
      <trkpt lat="45.3283546864986419677734375" lon="-71.0050837509334087371826171875">
        <ele>634.5999755859375</ele>
        <time>2026-08-21T20:38:18.000Z</time>
        <extensions>
          <ns3:TrackPointExtension>
            <ns3:hr>109</ns3:hr>
            <ns3:cad>0</ns3:cad>
          </ns3:TrackPointExtension>
        </extensions>
      </trkpt>
      <trkpt lat="45.3283546864986419677734375" lon="-71.0050837509334087371826171875">
        <ele>634.4000244140625</ele>
        <time>2026-08-21T20:38:19.000Z</time>
        <extensions>
          <ns3:TrackPointExtension>
            <ns3:hr>109</ns3:hr>
            <ns3:cad>0</ns3:cad>
          </ns3:TrackPointExtension>
        </extensions>
      </trkpt>
      <trkpt lat="45.3283546864986419677734375" lon="-71.0050837509334087371826171875">
        <ele>634.4000244140625</ele>
        <time>2026-08-21T20:38:20.000Z</time>
        <extensions>
          <ns3:TrackPointExtension>
            <ns3:hr>109</ns3:hr>
            <ns3:cad>0</ns3:cad>
          </ns3:TrackPointExtension>
        </extensions>
      </trkpt>
      <trkpt lat="45.3283546864986419677734375" lon="-71.0050837509334087371826171875">
        <ele>634.4000244140625</ele>
        <time>2026-08-21T20:38:21.000Z</time>
        <extensions>
          <ns3:TrackPointExtension>
            <ns3:hr>108</ns3:hr>
            <ns3:cad>0</ns3:cad>
          </ns3:TrackPointExtension>
        </extensions>
      </trkpt>
      <trkpt lat="45.3283546864986419677734375" lon="-71.0050837509334087371826171875">
        <ele>634.4000244140625</ele>
        <time>2026-08-21T20:38:22.000Z</time>
        <extensions>
          <ns3:TrackPointExtension>
            <ns3:hr>108</ns3:hr>
            <ns3:cad>0</ns3:cad>
          </ns3:TrackPointExtension>
        </extensions>
      </trkpt>
      <trkpt lat="45.3283546864986419677734375" lon="-71.0050837509334087371826171875">
        <ele>634.4000244140625</ele>
        <time>2026-08-21T20:38:23.000Z</time>
        <extensions>
          <ns3:TrackPointExtension>
            <ns3:hr>107</ns3:hr>
            <ns3:cad>0</ns3:cad>
          </ns3:TrackPointExtension>
        </extensions>
      </trkpt>
      <trkpt lat="45.3283546864986419677734375" lon="-71.0050837509334087371826171875">
        <ele>634.4000244140625</ele>
        <time>2026-08-21T20:38:24.000Z</time>
        <extensions>
          <ns3:TrackPointExtension>
            <ns3:hr>103</ns3:hr>
            <ns3:cad>0</ns3:cad>
          </ns3:TrackPointExtension>
        </extensions>
      </trkpt>
      <trkpt lat="45.3283546864986419677734375" lon="-71.0050837509334087371826171875">
        <ele>634.4000244140625</ele>
        <time>2026-08-21T20:38:25.000Z</time>
        <extensions>
          <ns3:TrackPointExtension>
            <ns3:hr>95</ns3:hr>
            <ns3:cad>0</ns3:cad>
          </ns3:TrackPointExtension>
        </extensions>
      </trkpt>
      <trkpt lat="45.3283546864986419677734375" lon="-71.0050837509334087371826171875">
        <ele>634.4000244140625</ele>
        <time>2026-08-21T20:38:26.000Z</time>
        <extensions>
          <ns3:TrackPointExtension>
            <ns3:hr>86</ns3:hr>
            <ns3:cad>0</ns3:cad>
          </ns3:TrackPointExtension>
        </extensions>
      </trkpt>
      <trkpt lat="45.3283546864986419677734375" lon="-71.0050837509334087371826171875">
        <ele>634.4000244140625</ele>
        <time>2026-08-21T20:38:27.000Z</time>
        <extensions>
          <ns3:TrackPointExtension>
            <ns3:hr>82</ns3:hr>
            <ns3:cad>0</ns3:cad>
          </ns3:TrackPointExtension>
        </extensions>
      </trkpt>
      <trkpt lat="45.3283546864986419677734375" lon="-71.0050837509334087371826171875">
        <ele>634.4000244140625</ele>
        <time>2026-08-21T20:38:28.000Z</time>
        <extensions>
          <ns3:TrackPointExtension>
            <ns3:hr>81</ns3:hr>
            <ns3:cad>0</ns3:cad>
          </ns3:TrackPointExtension>
        </extensions>
      </trkpt>
      <trkpt lat="45.3283546864986419677734375" lon="-71.0050837509334087371826171875">
        <ele>634.4000244140625</ele>
        <time>2026-08-21T20:38:29.000Z</time>
        <extensions>
          <ns3:TrackPointExtension>
            <ns3:hr>80</ns3:hr>
            <ns3:cad>0</ns3:cad>
          </ns3:TrackPointExtension>
        </extensions>
      </trkpt>
      <trkpt lat="45.3283546864986419677734375" lon="-71.0050837509334087371826171875">
        <ele>634.4000244140625</ele>
        <time>2026-08-21T20:38:30.000Z</time>
        <extensions>
          <ns3:TrackPointExtension>
            <ns3:hr>80</ns3:hr>
            <ns3:cad>0</ns3:cad>
          </ns3:TrackPointExtension>
        </extensions>
      </trkpt>
      <trkpt lat="45.3283546864986419677734375" lon="-71.0050837509334087371826171875">
        <ele>634.4000244140625</ele>
        <time>2026-08-21T20:38:31.000Z</time>
        <extensions>
          <ns3:TrackPointExtension>
            <ns3:hr>80</ns3:hr>
            <ns3:cad>0</ns3:cad>
          </ns3:TrackPointExtension>
        </extensions>
      </trkpt>
      <trkpt lat="45.3283546864986419677734375" lon="-71.0050837509334087371826171875">
        <ele>634.4000244140625</ele>
        <time>2026-08-21T20:38:32.000Z</time>
        <extensions>
          <ns3:TrackPointExtension>
            <ns3:hr>80</ns3:hr>
            <ns3:cad>0</ns3:cad>
          </ns3:TrackPointExtension>
        </extensions>
      </trkpt>
      <trkpt lat="45.3283546864986419677734375" lon="-71.0050837509334087371826171875">
        <ele>634.4000244140625</ele>
        <time>2026-08-21T20:38:33.000Z</time>
        <extensions>
          <ns3:TrackPointExtension>
            <ns3:hr>80</ns3:hr>
            <ns3:cad>0</ns3:cad>
          </ns3:TrackPointExtension>
        </extensions>
      </trkpt>
      <trkpt lat="45.3283546864986419677734375" lon="-71.0050837509334087371826171875">
        <ele>634.4000244140625</ele>
        <time>2026-08-21T20:38:34.000Z</time>
        <extensions>
          <ns3:TrackPointExtension>
            <ns3:hr>80</ns3:hr>
            <ns3:cad>0</ns3:cad>
          </ns3:TrackPointExtension>
        </extensions>
      </trkpt>
      <trkpt lat="45.3283546864986419677734375" lon="-71.0050837509334087371826171875">
        <ele>634.5999755859375</ele>
        <time>2026-08-21T20:38:35.000Z</time>
        <extensions>
          <ns3:TrackPointExtension>
            <ns3:hr>81</ns3:hr>
            <ns3:cad>0</ns3:cad>
          </ns3:TrackPointExtension>
        </extensions>
      </trkpt>
      <trkpt lat="45.3283598832786083221435546875" lon="-71.0050837509334087371826171875">
        <ele>634.79998779296875</ele>
        <time>2026-08-21T20:38:36.000Z</time>
        <extensions>
          <ns3:TrackPointExtension>
            <ns3:hr>81</ns3:hr>
            <ns3:cad>0</ns3:cad>
          </ns3:TrackPointExtension>
        </extensions>
      </trkpt>
      <trkpt lat="45.328357703983783721923828125" lon="-71.00506824441254138946533203125">
        <ele>635</ele>
        <time>2026-08-21T20:38:37.000Z</time>
        <extensions>
          <ns3:TrackPointExtension>
            <ns3:hr>81</ns3:hr>
            <ns3:cad>0</ns3:cad>
          </ns3:TrackPointExtension>
        </extensions>
      </trkpt>
      <trkpt lat="45.328359045088291168212890625" lon="-71.005053408443927764892578125">
        <ele>635.20001220703125</ele>
        <time>2026-08-21T20:38:38.000Z</time>
        <extensions>
          <ns3:TrackPointExtension>
            <ns3:hr>82</ns3:hr>
            <ns3:cad>0</ns3:cad>
          </ns3:TrackPointExtension>
        </extensions>
      </trkpt>
      <trkpt lat="45.3283588774502277374267578125" lon="-71.00504796020686626434326171875">
        <ele>635.20001220703125</ele>
        <time>2026-08-21T20:38:39.000Z</time>
        <extensions>
          <ns3:TrackPointExtension>
            <ns3:hr>82</ns3:hr>
            <ns3:cad>0</ns3:cad>
          </ns3:TrackPointExtension>
        </extensions>
      </trkpt>
      <trkpt lat="45.32835627906024456024169921875" lon="-71.0050435177981853485107421875">
        <ele>635.20001220703125</ele>
        <time>2026-08-21T20:38:40.000Z</time>
        <extensions>
          <ns3:TrackPointExtension>
            <ns3:hr>82</ns3:hr>
            <ns3:cad>0</ns3:cad>
          </ns3:TrackPointExtension>
        </extensions>
      </trkpt>
      <trkpt lat="45.3283538483083248138427734375" lon="-71.0050307773053646087646484375">
        <ele>635.4000244140625</ele>
        <time>2026-08-21T20:38:41.000Z</time>
        <extensions>
          <ns3:TrackPointExtension>
            <ns3:hr>83</ns3:hr>
            <ns3:cad>43</ns3:cad>
          </ns3:TrackPointExtension>
        </extensions>
      </trkpt>
      <trkpt lat="45.32834865152835845947265625" lon="-71.005021221935749053955078125">
        <ele>635.4000244140625</ele>
        <time>2026-08-21T20:38:42.000Z</time>
        <extensions>
          <ns3:TrackPointExtension>
            <ns3:hr>83</ns3:hr>
            <ns3:cad>43</ns3:cad>
          </ns3:TrackPointExtension>
        </extensions>
      </trkpt>
      <trkpt lat="45.3283424489200115203857421875" lon="-71.00501996465027332305908203125">
        <ele>635.4000244140625</ele>
        <time>2026-08-21T20:38:43.000Z</time>
        <extensions>
          <ns3:TrackPointExtension>
            <ns3:hr>82</ns3:hr>
            <ns3:cad>45</ns3:cad>
          </ns3:TrackPointExtension>
        </extensions>
      </trkpt>
      <trkpt lat="45.3283401019871234893798828125" lon="-71.0050227306783199310302734375">
        <ele>635.4000244140625</ele>
        <time>2026-08-21T20:38:44.000Z</time>
        <extensions>
          <ns3:TrackPointExtension>
            <ns3:hr>82</ns3:hr>
            <ns3:cad>45</ns3:cad>
          </ns3:TrackPointExtension>
        </extensions>
      </trkpt>
      <trkpt lat="45.328339599072933197021484375" lon="-71.0050182044506072998046875">
        <ele>635.4000244140625</ele>
        <time>2026-08-21T20:38:45.000Z</time>
        <extensions>
          <ns3:TrackPointExtension>
            <ns3:hr>82</ns3:hr>
            <ns3:cad>45</ns3:cad>
          </ns3:TrackPointExtension>
        </extensions>
      </trkpt>
      <trkpt lat="45.32833901233971118927001953125" lon="-71.005017869174480438232421875">
        <ele>635.4000244140625</ele>
        <time>2026-08-21T20:38:46.000Z</time>
        <extensions>
          <ns3:TrackPointExtension>
            <ns3:hr>82</ns3:hr>
            <ns3:cad>0</ns3:cad>
          </ns3:TrackPointExtension>
        </extensions>
      </trkpt>
      <trkpt lat="45.328338928520679473876953125" lon="-71.00501812063157558441162109375">
        <ele>635.20001220703125</ele>
        <time>2026-08-21T20:38:47.000Z</time>
        <extensions>
          <ns3:TrackPointExtension>
            <ns3:hr>82</ns3:hr>
            <ns3:cad>0</ns3:cad>
          </ns3:TrackPointExtension>
        </extensions>
      </trkpt>
      <trkpt lat="45.328338928520679473876953125" lon="-71.00501812063157558441162109375">
        <ele>635.20001220703125</ele>
        <time>2026-08-21T20:38:48.000Z</time>
        <extensions>
          <ns3:TrackPointExtension>
            <ns3:hr>83</ns3:hr>
            <ns3:cad>0</ns3:cad>
          </ns3:TrackPointExtension>
        </extensions>
      </trkpt>
      <trkpt lat="45.328338928520679473876953125" lon="-71.00501812063157558441162109375">
        <ele>635</ele>
        <time>2026-08-21T20:38:49.000Z</time>
        <extensions>
          <ns3:TrackPointExtension>
            <ns3:hr>83</ns3:hr>
            <ns3:cad>0</ns3:cad>
          </ns3:TrackPointExtension>
        </extensions>
      </trkpt>
      <trkpt lat="45.328338928520679473876953125" lon="-71.00501812063157558441162109375">
        <ele>635</ele>
        <time>2026-08-21T20:38:50.000Z</time>
        <extensions>
          <ns3:TrackPointExtension>
            <ns3:hr>83</ns3:hr>
            <ns3:cad>0</ns3:cad>
          </ns3:TrackPointExtension>
        </extensions>
      </trkpt>
      <trkpt lat="45.328338928520679473876953125" lon="-71.00501812063157558441162109375">
        <ele>635.20001220703125</ele>
        <time>2026-08-21T20:38:51.000Z</time>
        <extensions>
          <ns3:TrackPointExtension>
            <ns3:hr>83</ns3:hr>
            <ns3:cad>0</ns3:cad>
          </ns3:TrackPointExtension>
        </extensions>
      </trkpt>
      <trkpt lat="45.328338928520679473876953125" lon="-71.00501812063157558441162109375">
        <ele>635.20001220703125</ele>
        <time>2026-08-21T20:38:52.000Z</time>
        <extensions>
          <ns3:TrackPointExtension>
            <ns3:hr>83</ns3:hr>
            <ns3:cad>0</ns3:cad>
          </ns3:TrackPointExtension>
        </extensions>
      </trkpt>
      <trkpt lat="45.328338928520679473876953125" lon="-71.00501812063157558441162109375">
        <ele>635.4000244140625</ele>
        <time>2026-08-21T20:38:53.000Z</time>
        <extensions>
          <ns3:TrackPointExtension>
            <ns3:hr>83</ns3:hr>
            <ns3:cad>0</ns3:cad>
          </ns3:TrackPointExtension>
        </extensions>
      </trkpt>
      <trkpt lat="45.328338928520679473876953125" lon="-71.00501812063157558441162109375">
        <ele>635.4000244140625</ele>
        <time>2026-08-21T20:38:54.000Z</time>
        <extensions>
          <ns3:TrackPointExtension>
            <ns3:hr>82</ns3:hr>
            <ns3:cad>0</ns3:cad>
          </ns3:TrackPointExtension>
        </extensions>
      </trkpt>
      <trkpt lat="45.328338928520679473876953125" lon="-71.00501812063157558441162109375">
        <ele>635.4000244140625</ele>
        <time>2026-08-21T20:38:55.000Z</time>
        <extensions>
          <ns3:TrackPointExtension>
            <ns3:hr>84</ns3:hr>
            <ns3:cad>0</ns3:cad>
          </ns3:TrackPointExtension>
        </extensions>
      </trkpt>
      <trkpt lat="45.328338928520679473876953125" lon="-71.00501812063157558441162109375">
        <ele>635.4000244140625</ele>
        <time>2026-08-21T20:38:56.000Z</time>
        <extensions>
          <ns3:TrackPointExtension>
            <ns3:hr>84</ns3:hr>
            <ns3:cad>0</ns3:cad>
          </ns3:TrackPointExtension>
        </extensions>
      </trkpt>
      <trkpt lat="45.328338928520679473876953125" lon="-71.00501812063157558441162109375">
        <ele>635.4000244140625</ele>
        <time>2026-08-21T20:38:57.000Z</time>
        <extensions>
          <ns3:TrackPointExtension>
            <ns3:hr>84</ns3:hr>
            <ns3:cad>0</ns3:cad>
          </ns3:TrackPointExtension>
        </extensions>
      </trkpt>
      <trkpt lat="45.328338928520679473876953125" lon="-71.00501812063157558441162109375">
        <ele>635.4000244140625</ele>
        <time>2026-08-21T20:38:58.000Z</time>
        <extensions>
          <ns3:TrackPointExtension>
            <ns3:hr>84</ns3:hr>
            <ns3:cad>0</ns3:cad>
          </ns3:TrackPointExtension>
        </extensions>
      </trkpt>
      <trkpt lat="45.328338928520679473876953125" lon="-71.00501812063157558441162109375">
        <ele>635.4000244140625</ele>
        <time>2026-08-21T20:38:59.000Z</time>
        <extensions>
          <ns3:TrackPointExtension>
            <ns3:hr>85</ns3:hr>
            <ns3:cad>0</ns3:cad>
          </ns3:TrackPointExtension>
        </extensions>
      </trkpt>
      <trkpt lat="45.328338928520679473876953125" lon="-71.00501812063157558441162109375">
        <ele>635.4000244140625</ele>
        <time>2026-08-21T20:39:00.000Z</time>
        <extensions>
          <ns3:TrackPointExtension>
            <ns3:hr>86</ns3:hr>
            <ns3:cad>0</ns3:cad>
          </ns3:TrackPointExtension>
        </extensions>
      </trkpt>
      <trkpt lat="45.328338928520679473876953125" lon="-71.00501812063157558441162109375">
        <ele>635.4000244140625</ele>
        <time>2026-08-21T20:39:01.000Z</time>
        <extensions>
          <ns3:TrackPointExtension>
            <ns3:hr>90</ns3:hr>
            <ns3:cad>0</ns3:cad>
          </ns3:TrackPointExtension>
        </extensions>
      </trkpt>
      <trkpt lat="45.328338928520679473876953125" lon="-71.00501812063157558441162109375">
        <ele>635.4000244140625</ele>
        <time>2026-08-21T20:39:02.000Z</time>
        <extensions>
          <ns3:TrackPointExtension>
            <ns3:hr>97</ns3:hr>
            <ns3:cad>0</ns3:cad>
          </ns3:TrackPointExtension>
        </extensions>
      </trkpt>
      <trkpt lat="45.328338928520679473876953125" lon="-71.00501812063157558441162109375">
        <ele>635.4000244140625</ele>
        <time>2026-08-21T20:39:03.000Z</time>
        <extensions>
          <ns3:TrackPointExtension>
            <ns3:hr>103</ns3:hr>
            <ns3:cad>0</ns3:cad>
          </ns3:TrackPointExtension>
        </extensions>
      </trkpt>
      <trkpt lat="45.328338928520679473876953125" lon="-71.00501812063157558441162109375">
        <ele>635.5999755859375</ele>
        <time>2026-08-21T20:39:04.000Z</time>
        <extensions>
          <ns3:TrackPointExtension>
            <ns3:hr>105</ns3:hr>
            <ns3:cad>0</ns3:cad>
          </ns3:TrackPointExtension>
        </extensions>
      </trkpt>
      <trkpt lat="45.328338928520679473876953125" lon="-71.00501812063157558441162109375">
        <ele>635.5999755859375</ele>
        <time>2026-08-21T20:39:05.000Z</time>
        <extensions>
          <ns3:TrackPointExtension>
            <ns3:hr>105</ns3:hr>
            <ns3:cad>0</ns3:cad>
          </ns3:TrackPointExtension>
        </extensions>
      </trkpt>
      <trkpt lat="45.328338928520679473876953125" lon="-71.00501812063157558441162109375">
        <ele>635.4000244140625</ele>
        <time>2026-08-21T20:39:06.000Z</time>
        <extensions>
          <ns3:TrackPointExtension>
            <ns3:hr>106</ns3:hr>
            <ns3:cad>0</ns3:cad>
          </ns3:TrackPointExtension>
        </extensions>
      </trkpt>
      <trkpt lat="45.328338928520679473876953125" lon="-71.00501812063157558441162109375">
        <ele>635.4000244140625</ele>
        <time>2026-08-21T20:39:07.000Z</time>
        <extensions>
          <ns3:TrackPointExtension>
            <ns3:hr>106</ns3:hr>
            <ns3:cad>0</ns3:cad>
          </ns3:TrackPointExtension>
        </extensions>
      </trkpt>
      <trkpt lat="45.328338928520679473876953125" lon="-71.00501812063157558441162109375">
        <ele>635.4000244140625</ele>
        <time>2026-08-21T20:39:08.000Z</time>
        <extensions>
          <ns3:TrackPointExtension>
            <ns3:hr>106</ns3:hr>
            <ns3:cad>0</ns3:cad>
          </ns3:TrackPointExtension>
        </extensions>
      </trkpt>
      <trkpt lat="45.328338928520679473876953125" lon="-71.00501812063157558441162109375">
        <ele>635.4000244140625</ele>
        <time>2026-08-21T20:39:09.000Z</time>
        <extensions>
          <ns3:TrackPointExtension>
            <ns3:hr>106</ns3:hr>
            <ns3:cad>0</ns3:cad>
          </ns3:TrackPointExtension>
        </extensions>
      </trkpt>
      <trkpt lat="45.328338928520679473876953125" lon="-71.00501812063157558441162109375">
        <ele>635.4000244140625</ele>
        <time>2026-08-21T20:39:10.000Z</time>
        <extensions>
          <ns3:TrackPointExtension>
            <ns3:hr>106</ns3:hr>
            <ns3:cad>0</ns3:cad>
          </ns3:TrackPointExtension>
        </extensions>
      </trkpt>
      <trkpt lat="45.32833649776875972747802734375" lon="-71.00502281449735164642333984375">
        <ele>635.4000244140625</ele>
        <time>2026-08-21T20:39:11.000Z</time>
        <extensions>
          <ns3:TrackPointExtension>
            <ns3:hr>106</ns3:hr>
            <ns3:cad>0</ns3:cad>
          </ns3:TrackPointExtension>
        </extensions>
      </trkpt>
      <trkpt lat="45.32833792269229888916015625" lon="-71.00502583198249340057373046875">
        <ele>635.5999755859375</ele>
        <time>2026-08-21T20:39:12.000Z</time>
        <extensions>
          <ns3:TrackPointExtension>
            <ns3:hr>106</ns3:hr>
            <ns3:cad>0</ns3:cad>
          </ns3:TrackPointExtension>
        </extensions>
      </trkpt>
      <trkpt lat="45.3283414430916309356689453125" lon="-71.00503253750503063201904296875">
        <ele>635.5999755859375</ele>
        <time>2026-08-21T20:39:13.000Z</time>
        <extensions>
          <ns3:TrackPointExtension>
            <ns3:hr>105</ns3:hr>
            <ns3:cad>0</ns3:cad>
          </ns3:TrackPointExtension>
        </extensions>
      </trkpt>
      <trkpt lat="45.3283478133380413055419921875" lon="-71.0050411708652973175048828125">
        <ele>635.79998779296875</ele>
        <time>2026-08-21T20:39:14.000Z</time>
        <extensions>
          <ns3:TrackPointExtension>
            <ns3:hr>103</ns3:hr>
            <ns3:cad>0</ns3:cad>
          </ns3:TrackPointExtension>
        </extensions>
      </trkpt>
      <trkpt lat="45.32835259102284908294677734375" lon="-71.00504703819751739501953125">
        <ele>635.79998779296875</ele>
        <time>2026-08-21T20:39:15.000Z</time>
        <extensions>
          <ns3:TrackPointExtension>
            <ns3:hr>102</ns3:hr>
            <ns3:cad>52</ns3:cad>
          </ns3:TrackPointExtension>
        </extensions>
      </trkpt>
      <trkpt lat="45.3283558599650859832763671875" lon="-71.00504728965461254119873046875">
        <ele>636</ele>
        <time>2026-08-21T20:39:16.000Z</time>
        <extensions>
          <ns3:TrackPointExtension>
            <ns3:hr>101</ns3:hr>
            <ns3:cad>52</ns3:cad>
          </ns3:TrackPointExtension>
        </extensions>
      </trkpt>
      <trkpt lat="45.32835376448929309844970703125" lon="-71.00504276342689990997314453125">
        <ele>636</ele>
        <time>2026-08-21T20:39:17.000Z</time>
        <extensions>
          <ns3:TrackPointExtension>
            <ns3:hr>100</ns3:hr>
            <ns3:cad>52</ns3:cad>
          </ns3:TrackPointExtension>
        </extensions>
      </trkpt>
      <trkpt lat="45.3283558599650859832763671875" lon="-71.00505081005394458770751953125">
        <ele>635.79998779296875</ele>
        <time>2026-08-21T20:39:18.000Z</time>
        <extensions>
          <ns3:TrackPointExtension>
            <ns3:hr>100</ns3:hr>
            <ns3:cad>0</ns3:cad>
          </ns3:TrackPointExtension>
        </extensions>
      </trkpt>
      <trkpt lat="45.32835963182151317596435546875" lon="-71.0050626285374164581298828125">
        <ele>635.79998779296875</ele>
        <time>2026-08-21T20:39:19.000Z</time>
        <extensions>
          <ns3:TrackPointExtension>
            <ns3:hr>100</ns3:hr>
            <ns3:cad>0</ns3:cad>
          </ns3:TrackPointExtension>
        </extensions>
      </trkpt>
      <trkpt lat="45.32836281694471836090087890625" lon="-71.00507210008800029754638671875">
        <ele>635.79998779296875</ele>
        <time>2026-08-21T20:39:20.000Z</time>
        <extensions>
          <ns3:TrackPointExtension>
            <ns3:hr>99</ns3:hr>
            <ns3:cad>0</ns3:cad>
          </ns3:TrackPointExtension>
        </extensions>
      </trkpt>
      <trkpt lat="45.32836114056408405303955078125" lon="-71.0050767101347446441650390625">
        <ele>635.5999755859375</ele>
        <time>2026-08-21T20:39:21.000Z</time>
        <extensions>
          <ns3:TrackPointExtension>
            <ns3:hr>99</ns3:hr>
            <ns3:cad>0</ns3:cad>
          </ns3:TrackPointExtension>
        </extensions>
      </trkpt>
      <trkpt lat="45.32836080528795719146728515625" lon="-71.0050790570676326751708984375">
        <ele>635.5999755859375</ele>
        <time>2026-08-21T20:39:22.000Z</time>
        <extensions>
          <ns3:TrackPointExtension>
            <ns3:hr>99</ns3:hr>
            <ns3:cad>0</ns3:cad>
          </ns3:TrackPointExtension>
        </extensions>
      </trkpt>
      <trkpt lat="45.32836072146892547607421875" lon="-71.00508048199117183685302734375">
        <ele>635.5999755859375</ele>
        <time>2026-08-21T20:39:23.000Z</time>
        <extensions>
          <ns3:TrackPointExtension>
            <ns3:hr>100</ns3:hr>
            <ns3:cad>0</ns3:cad>
          </ns3:TrackPointExtension>
        </extensions>
      </trkpt>
      <trkpt lat="45.32836097292602062225341796875" lon="-71.005080230534076690673828125">
        <ele>635.5999755859375</ele>
        <time>2026-08-21T20:39:24.000Z</time>
        <extensions>
          <ns3:TrackPointExtension>
            <ns3:hr>99</ns3:hr>
            <ns3:cad>0</ns3:cad>
          </ns3:TrackPointExtension>
        </extensions>
      </trkpt>
      <trkpt lat="45.32836097292602062225341796875" lon="-71.005080230534076690673828125">
        <ele>635.4000244140625</ele>
        <time>2026-08-21T20:39:25.000Z</time>
        <extensions>
          <ns3:TrackPointExtension>
            <ns3:hr>99</ns3:hr>
            <ns3:cad>0</ns3:cad>
          </ns3:TrackPointExtension>
        </extensions>
      </trkpt>
      <trkpt lat="45.32836097292602062225341796875" lon="-71.005080230534076690673828125">
        <ele>635.4000244140625</ele>
        <time>2026-08-21T20:39:26.000Z</time>
        <extensions>
          <ns3:TrackPointExtension>
            <ns3:hr>99</ns3:hr>
            <ns3:cad>0</ns3:cad>
          </ns3:TrackPointExtension>
        </extensions>
      </trkpt>
      <trkpt lat="45.32836097292602062225341796875" lon="-71.005080230534076690673828125">
        <ele>635.20001220703125</ele>
        <time>2026-08-21T20:39:27.000Z</time>
        <extensions>
          <ns3:TrackPointExtension>
            <ns3:hr>99</ns3:hr>
            <ns3:cad>0</ns3:cad>
          </ns3:TrackPointExtension>
        </extensions>
      </trkpt>
      <trkpt lat="45.32836097292602062225341796875" lon="-71.005080230534076690673828125">
        <ele>635</ele>
        <time>2026-08-21T20:39:28.000Z</time>
        <extensions>
          <ns3:TrackPointExtension>
            <ns3:hr>99</ns3:hr>
            <ns3:cad>0</ns3:cad>
          </ns3:TrackPointExtension>
        </extensions>
      </trkpt>
      <trkpt lat="45.32836097292602062225341796875" lon="-71.005080230534076690673828125">
        <ele>634.79998779296875</ele>
        <time>2026-08-21T20:39:29.000Z</time>
        <extensions>
          <ns3:TrackPointExtension>
            <ns3:hr>100</ns3:hr>
            <ns3:cad>0</ns3:cad>
          </ns3:TrackPointExtension>
        </extensions>
      </trkpt>
      <trkpt lat="45.32836097292602062225341796875" lon="-71.005080230534076690673828125">
        <ele>634.79998779296875</ele>
        <time>2026-08-21T20:39:30.000Z</time>
        <extensions>
          <ns3:TrackPointExtension>
            <ns3:hr>103</ns3:hr>
            <ns3:cad>0</ns3:cad>
          </ns3:TrackPointExtension>
        </extensions>
      </trkpt>
      <trkpt lat="45.32836097292602062225341796875" lon="-71.005080230534076690673828125">
        <ele>634.79998779296875</ele>
        <time>2026-08-21T20:39:31.000Z</time>
        <extensions>
          <ns3:TrackPointExtension>
            <ns3:hr>103</ns3:hr>
            <ns3:cad>0</ns3:cad>
          </ns3:TrackPointExtension>
        </extensions>
      </trkpt>
      <trkpt lat="45.32836097292602062225341796875" lon="-71.005080230534076690673828125">
        <ele>635</ele>
        <time>2026-08-21T20:39:32.000Z</time>
        <extensions>
          <ns3:TrackPointExtension>
            <ns3:hr>104</ns3:hr>
            <ns3:cad>0</ns3:cad>
          </ns3:TrackPointExtension>
        </extensions>
      </trkpt>
      <trkpt lat="45.32836097292602062225341796875" lon="-71.005080230534076690673828125">
        <ele>635</ele>
        <time>2026-08-21T20:39:33.000Z</time>
        <extensions>
          <ns3:TrackPointExtension>
            <ns3:hr>106</ns3:hr>
            <ns3:cad>0</ns3:cad>
          </ns3:TrackPointExtension>
        </extensions>
      </trkpt>
      <trkpt lat="45.32836097292602062225341796875" lon="-71.005080230534076690673828125">
        <ele>635</ele>
        <time>2026-08-21T20:39:34.000Z</time>
        <extensions>
          <ns3:TrackPointExtension>
            <ns3:hr>106</ns3:hr>
            <ns3:cad>0</ns3:cad>
          </ns3:TrackPointExtension>
        </extensions>
      </trkpt>
      <trkpt lat="45.32836097292602062225341796875" lon="-71.005080230534076690673828125">
        <ele>635</ele>
        <time>2026-08-21T20:39:35.000Z</time>
        <extensions>
          <ns3:TrackPointExtension>
            <ns3:hr>106</ns3:hr>
            <ns3:cad>0</ns3:cad>
          </ns3:TrackPointExtension>
        </extensions>
      </trkpt>
      <trkpt lat="45.32836097292602062225341796875" lon="-71.005080230534076690673828125">
        <ele>635</ele>
        <time>2026-08-21T20:39:36.000Z</time>
        <extensions>
          <ns3:TrackPointExtension>
            <ns3:hr>106</ns3:hr>
            <ns3:cad>0</ns3:cad>
          </ns3:TrackPointExtension>
        </extensions>
      </trkpt>
      <trkpt lat="45.32836097292602062225341796875" lon="-71.005080230534076690673828125">
        <ele>635</ele>
        <time>2026-08-21T20:39:37.000Z</time>
        <extensions>
          <ns3:TrackPointExtension>
            <ns3:hr>106</ns3:hr>
            <ns3:cad>0</ns3:cad>
          </ns3:TrackPointExtension>
        </extensions>
      </trkpt>
      <trkpt lat="45.32836097292602062225341796875" lon="-71.005080230534076690673828125">
        <ele>635</ele>
        <time>2026-08-21T20:39:38.000Z</time>
        <extensions>
          <ns3:TrackPointExtension>
            <ns3:hr>106</ns3:hr>
            <ns3:cad>0</ns3:cad>
          </ns3:TrackPointExtension>
        </extensions>
      </trkpt>
      <trkpt lat="45.32836097292602062225341796875" lon="-71.005080230534076690673828125">
        <ele>635</ele>
        <time>2026-08-21T20:39:39.000Z</time>
        <extensions>
          <ns3:TrackPointExtension>
            <ns3:hr>106</ns3:hr>
            <ns3:cad>0</ns3:cad>
          </ns3:TrackPointExtension>
        </extensions>
      </trkpt>
      <trkpt lat="45.32836097292602062225341796875" lon="-71.005080230534076690673828125">
        <ele>635</ele>
        <time>2026-08-21T20:39:40.000Z</time>
        <extensions>
          <ns3:TrackPointExtension>
            <ns3:hr>106</ns3:hr>
            <ns3:cad>0</ns3:cad>
          </ns3:TrackPointExtension>
        </extensions>
      </trkpt>
      <trkpt lat="45.32836097292602062225341796875" lon="-71.005080230534076690673828125">
        <ele>635.20001220703125</ele>
        <time>2026-08-21T20:39:41.000Z</time>
        <extensions>
          <ns3:TrackPointExtension>
            <ns3:hr>106</ns3:hr>
            <ns3:cad>0</ns3:cad>
          </ns3:TrackPointExtension>
        </extensions>
      </trkpt>
      <trkpt lat="45.32836097292602062225341796875" lon="-71.005080230534076690673828125">
        <ele>635.4000244140625</ele>
        <time>2026-08-21T20:39:42.000Z</time>
        <extensions>
          <ns3:TrackPointExtension>
            <ns3:hr>107</ns3:hr>
            <ns3:cad>0</ns3:cad>
          </ns3:TrackPointExtension>
        </extensions>
      </trkpt>
      <trkpt lat="45.32835912890732288360595703125" lon="-71.00506807677447795867919921875">
        <ele>635.5999755859375</ele>
        <time>2026-08-21T20:39:43.000Z</time>
        <extensions>
          <ns3:TrackPointExtension>
            <ns3:hr>106</ns3:hr>
            <ns3:cad>0</ns3:cad>
          </ns3:TrackPointExtension>
        </extensions>
      </trkpt>
      <trkpt lat="45.32835862599313259124755859375" lon="-71.00505634211003780364990234375">
        <ele>635.79998779296875</ele>
        <time>2026-08-21T20:39:44.000Z</time>
        <extensions>
          <ns3:TrackPointExtension>
            <ns3:hr>105</ns3:hr>
            <ns3:cad>0</ns3:cad>
          </ns3:TrackPointExtension>
        </extensions>
      </trkpt>
      <trkpt lat="45.3283602185547351837158203125" lon="-71.00504293106496334075927734375">
        <ele>636</ele>
        <time>2026-08-21T20:39:45.000Z</time>
        <extensions>
          <ns3:TrackPointExtension>
            <ns3:hr>104</ns3:hr>
            <ns3:cad>0</ns3:cad>
          </ns3:TrackPointExtension>
        </extensions>
      </trkpt>
      <trkpt lat="45.32836147584021091461181640625" lon="-71.00503689609467983245849609375">
        <ele>635.79998779296875</ele>
        <time>2026-08-21T20:39:46.000Z</time>
        <extensions>
          <ns3:TrackPointExtension>
            <ns3:hr>103</ns3:hr>
            <ns3:cad>0</ns3:cad>
          </ns3:TrackPointExtension>
        </extensions>
      </trkpt>
      <trkpt lat="45.32836432568728923797607421875" lon="-71.0050344653427600860595703125">
        <ele>635.79998779296875</ele>
        <time>2026-08-21T20:39:47.000Z</time>
        <extensions>
          <ns3:TrackPointExtension>
            <ns3:hr>101</ns3:hr>
            <ns3:cad>0</ns3:cad>
          </ns3:TrackPointExtension>
        </extensions>
      </trkpt>
      <trkpt lat="45.32836399041116237640380859375" lon="-71.00504142232239246368408203125">
        <ele>635.5999755859375</ele>
        <time>2026-08-21T20:39:48.000Z</time>
        <extensions>
          <ns3:TrackPointExtension>
            <ns3:hr>100</ns3:hr>
            <ns3:cad>0</ns3:cad>
          </ns3:TrackPointExtension>
        </extensions>
      </trkpt>
      <trkpt lat="45.32836600206792354583740234375" lon="-71.00504703819751739501953125">
        <ele>635.5999755859375</ele>
        <time>2026-08-21T20:39:49.000Z</time>
        <extensions>
          <ns3:TrackPointExtension>
            <ns3:hr>97</ns3:hr>
            <ns3:cad>0</ns3:cad>
          </ns3:TrackPointExtension>
        </extensions>
      </trkpt>
      <trkpt lat="45.32836901955306529998779296875" lon="-71.00504611618816852569580078125">
        <ele>635.5999755859375</ele>
        <time>2026-08-21T20:39:50.000Z</time>
        <extensions>
          <ns3:TrackPointExtension>
            <ns3:hr>96</ns3:hr>
            <ns3:cad>0</ns3:cad>
          </ns3:TrackPointExtension>
        </extensions>
      </trkpt>
      <trkpt lat="45.3283709473907947540283203125" lon="-71.0050512291491031646728515625">
        <ele>635.5999755859375</ele>
        <time>2026-08-21T20:39:51.000Z</time>
        <extensions>
          <ns3:TrackPointExtension>
            <ns3:hr>96</ns3:hr>
            <ns3:cad>0</ns3:cad>
          </ns3:TrackPointExtension>
        </extensions>
      </trkpt>
      <trkpt lat="45.32837086357176303863525390625" lon="-71.00505374372005462646484375">
        <ele>635.5999755859375</ele>
        <time>2026-08-21T20:39:52.000Z</time>
        <extensions>
          <ns3:TrackPointExtension>
            <ns3:hr>96</ns3:hr>
            <ns3:cad>0</ns3:cad>
          </ns3:TrackPointExtension>
        </extensions>
      </trkpt>
      <trkpt lat="45.3283707797527313232421875" lon="-71.005055420100688934326171875">
        <ele>635.5999755859375</ele>
        <time>2026-08-21T20:39:53.000Z</time>
        <extensions>
          <ns3:TrackPointExtension>
            <ns3:hr>96</ns3:hr>
            <ns3:cad>0</ns3:cad>
          </ns3:TrackPointExtension>
        </extensions>
      </trkpt>
      <trkpt lat="45.3283679299056529998779296875" lon="-71.0050529055297374725341796875">
        <ele>635.79998779296875</ele>
        <time>2026-08-21T20:39:54.000Z</time>
        <extensions>
          <ns3:TrackPointExtension>
            <ns3:hr>96</ns3:hr>
            <ns3:cad>0</ns3:cad>
          </ns3:TrackPointExtension>
        </extensions>
      </trkpt>
      <trkpt lat="45.32836952246725559234619140625" lon="-71.00505567155778408050537109375">
        <ele>635.79998779296875</ele>
        <time>2026-08-21T20:39:55.000Z</time>
        <extensions>
          <ns3:TrackPointExtension>
            <ns3:hr>96</ns3:hr>
            <ns3:cad>0</ns3:cad>
          </ns3:TrackPointExtension>
        </extensions>
      </trkpt>
      <trkpt lat="45.32836969010531902313232421875" lon="-71.00505751557648181915283203125">
        <ele>636</ele>
        <time>2026-08-21T20:39:56.000Z</time>
        <extensions>
          <ns3:TrackPointExtension>
            <ns3:hr>96</ns3:hr>
            <ns3:cad>0</ns3:cad>
          </ns3:TrackPointExtension>
        </extensions>
      </trkpt>
      <trkpt lat="45.32836667262017726898193359375" lon="-71.00505785085260868072509765625">
        <ele>636</ele>
        <time>2026-08-21T20:39:57.000Z</time>
        <extensions>
          <ns3:TrackPointExtension>
            <ns3:hr>96</ns3:hr>
            <ns3:cad>0</ns3:cad>
          </ns3:TrackPointExtension>
        </extensions>
      </trkpt>
      <trkpt lat="45.328373797237873077392578125" lon="-71.0050572641193866729736328125">
        <ele>636.20001220703125</ele>
        <time>2026-08-21T20:39:58.000Z</time>
        <extensions>
          <ns3:TrackPointExtension>
            <ns3:hr>96</ns3:hr>
            <ns3:cad>0</ns3:cad>
          </ns3:TrackPointExtension>
        </extensions>
      </trkpt>
      <trkpt lat="45.32837606035172939300537109375" lon="-71.00505818612873554229736328125">
        <ele>636.20001220703125</ele>
        <time>2026-08-21T20:39:59.000Z</time>
        <extensions>
          <ns3:TrackPointExtension>
            <ns3:hr>96</ns3:hr>
            <ns3:cad>0</ns3:cad>
          </ns3:TrackPointExtension>
        </extensions>
      </trkpt>
      <trkpt lat="45.32837220467627048492431640625" lon="-71.0050478763878345489501953125">
        <ele>636.20001220703125</ele>
        <time>2026-08-21T20:40:00.000Z</time>
        <extensions>
          <ns3:TrackPointExtension>
            <ns3:hr>97</ns3:hr>
            <ns3:cad>0</ns3:cad>
          </ns3:TrackPointExtension>
        </extensions>
      </trkpt>
      <trkpt lat="45.32837404869496822357177734375" lon="-71.00505734793841838836669921875">
        <ele>636.20001220703125</ele>
        <time>2026-08-21T20:40:01.000Z</time>
        <extensions>
          <ns3:TrackPointExtension>
            <ns3:hr>97</ns3:hr>
            <ns3:cad>0</ns3:cad>
          </ns3:TrackPointExtension>
        </extensions>
      </trkpt>
      <trkpt lat="45.32837279140949249267578125" lon="-71.00505776703357696533203125">
        <ele>636.20001220703125</ele>
        <time>2026-08-21T20:40:02.000Z</time>
        <extensions>
          <ns3:TrackPointExtension>
            <ns3:hr>97</ns3:hr>
            <ns3:cad>0</ns3:cad>
          </ns3:TrackPointExtension>
        </extensions>
      </trkpt>
      <trkpt lat="45.32837103120982646942138671875" lon="-71.00505667738616466522216796875">
        <ele>636</ele>
        <time>2026-08-21T20:40:03.000Z</time>
        <extensions>
          <ns3:TrackPointExtension>
            <ns3:hr>98</ns3:hr>
            <ns3:cad>0</ns3:cad>
          </ns3:TrackPointExtension>
        </extensions>
      </trkpt>
      <trkpt lat="45.32837145030498504638671875" lon="-71.0050579346716403961181640625">
        <ele>636</ele>
        <time>2026-08-21T20:40:04.000Z</time>
        <extensions>
          <ns3:TrackPointExtension>
            <ns3:hr>98</ns3:hr>
            <ns3:cad>0</ns3:cad>
          </ns3:TrackPointExtension>
        </extensions>
      </trkpt>
      <trkpt lat="45.32836985774338245391845703125" lon="-71.00505508482456207275390625">
        <ele>636</ele>
        <time>2026-08-21T20:40:05.000Z</time>
        <extensions>
          <ns3:TrackPointExtension>
            <ns3:hr>98</ns3:hr>
            <ns3:cad>0</ns3:cad>
          </ns3:TrackPointExtension>
        </extensions>
      </trkpt>
      <trkpt lat="45.32837212085723876953125" lon="-71.00505231879651546478271484375">
        <ele>636</ele>
        <time>2026-08-21T20:40:06.000Z</time>
        <extensions>
          <ns3:TrackPointExtension>
            <ns3:hr>98</ns3:hr>
            <ns3:cad>0</ns3:cad>
          </ns3:TrackPointExtension>
        </extensions>
      </trkpt>
      <trkpt lat="45.328374803066253662109375" lon="-71.00505852140486240386962890625">
        <ele>636</ele>
        <time>2026-08-21T20:40:07.000Z</time>
        <extensions>
          <ns3:TrackPointExtension>
            <ns3:hr>97</ns3:hr>
            <ns3:cad>0</ns3:cad>
          </ns3:TrackPointExtension>
        </extensions>
      </trkpt>
      <trkpt lat="45.32837455160915851593017578125" lon="-71.00505332462489604949951171875">
        <ele>636.20001220703125</ele>
        <time>2026-08-21T20:40:08.000Z</time>
        <extensions>
          <ns3:TrackPointExtension>
            <ns3:hr>98</ns3:hr>
            <ns3:cad>0</ns3:cad>
          </ns3:TrackPointExtension>
        </extensions>
      </trkpt>
      <trkpt lat="45.328374803066253662109375" lon="-71.005056090652942657470703125">
        <ele>636.20001220703125</ele>
        <time>2026-08-21T20:40:09.000Z</time>
        <extensions>
          <ns3:TrackPointExtension>
            <ns3:hr>98</ns3:hr>
            <ns3:cad>0</ns3:cad>
          </ns3:TrackPointExtension>
        </extensions>
      </trkpt>
      <trkpt lat="45.3283739648759365081787109375" lon="-71.00505298934876918792724609375">
        <ele>636.4000244140625</ele>
        <time>2026-08-21T20:40:10.000Z</time>
        <extensions>
          <ns3:TrackPointExtension>
            <ns3:hr>98</ns3:hr>
            <ns3:cad>0</ns3:cad>
          </ns3:TrackPointExtension>
        </extensions>
      </trkpt>
      <trkpt lat="45.32837622798979282379150390625" lon="-71.0050584375858306884765625">
        <ele>636.4000244140625</ele>
        <time>2026-08-21T20:40:11.000Z</time>
        <extensions>
          <ns3:TrackPointExtension>
            <ns3:hr>99</ns3:hr>
            <ns3:cad>0</ns3:cad>
          </ns3:TrackPointExtension>
        </extensions>
      </trkpt>
      <trkpt lat="45.32836818136274814605712890625" lon="-71.00505734793841838836669921875">
        <ele>636.4000244140625</ele>
        <time>2026-08-21T20:40:12.000Z</time>
        <extensions>
          <ns3:TrackPointExtension>
            <ns3:hr>99</ns3:hr>
            <ns3:cad>0</ns3:cad>
          </ns3:TrackPointExtension>
        </extensions>
      </trkpt>
      <trkpt lat="45.32836876809597015380859375" lon="-71.00505617447197437286376953125">
        <ele>636.4000244140625</ele>
        <time>2026-08-21T20:40:13.000Z</time>
        <extensions>
          <ns3:TrackPointExtension>
            <ns3:hr>99</ns3:hr>
            <ns3:cad>0</ns3:cad>
          </ns3:TrackPointExtension>
        </extensions>
      </trkpt>
      <trkpt lat="45.328371115028858184814453125" lon="-71.0050575993955135345458984375">
        <ele>636.4000244140625</ele>
        <time>2026-08-21T20:40:14.000Z</time>
        <extensions>
          <ns3:TrackPointExtension>
            <ns3:hr>98</ns3:hr>
            <ns3:cad>0</ns3:cad>
          </ns3:TrackPointExtension>
        </extensions>
      </trkpt>
      <trkpt lat="45.32837270759046077728271484375" lon="-71.005058102309703826904296875">
        <ele>636.4000244140625</ele>
        <time>2026-08-21T20:40:15.000Z</time>
        <extensions>
          <ns3:TrackPointExtension>
            <ns3:hr>98</ns3:hr>
            <ns3:cad>0</ns3:cad>
          </ns3:TrackPointExtension>
        </extensions>
      </trkpt>
      <trkpt lat="45.32837010920047760009765625" lon="-71.005055420100688934326171875">
        <ele>636.4000244140625</ele>
        <time>2026-08-21T20:40:16.000Z</time>
        <extensions>
          <ns3:TrackPointExtension>
            <ns3:hr>98</ns3:hr>
            <ns3:cad>0</ns3:cad>
          </ns3:TrackPointExtension>
        </extensions>
      </trkpt>
      <trkpt lat="45.328369438648223876953125" lon="-71.0050530731678009033203125">
        <ele>636.20001220703125</ele>
        <time>2026-08-21T20:40:17.000Z</time>
        <extensions>
          <ns3:TrackPointExtension>
            <ns3:hr>98</ns3:hr>
            <ns3:cad>0</ns3:cad>
          </ns3:TrackPointExtension>
        </extensions>
      </trkpt>
      <trkpt lat="45.3283696062862873077392578125" lon="-71.0050582699477672576904296875">
        <ele>636.20001220703125</ele>
        <time>2026-08-21T20:40:18.000Z</time>
        <extensions>
          <ns3:TrackPointExtension>
            <ns3:hr>99</ns3:hr>
            <ns3:cad>0</ns3:cad>
          </ns3:TrackPointExtension>
        </extensions>
      </trkpt>
      <trkpt lat="45.32837170176208019256591796875" lon="-71.0050565935671329498291015625">
        <ele>636.20001220703125</ele>
        <time>2026-08-21T20:40:19.000Z</time>
        <extensions>
          <ns3:TrackPointExtension>
            <ns3:hr>99</ns3:hr>
            <ns3:cad>0</ns3:cad>
          </ns3:TrackPointExtension>
        </extensions>
      </trkpt>
      <trkpt lat="45.32837253995239734649658203125" lon="-71.00506044924259185791015625">
        <ele>636.20001220703125</ele>
        <time>2026-08-21T20:40:20.000Z</time>
        <extensions>
          <ns3:TrackPointExtension>
            <ns3:hr>99</ns3:hr>
            <ns3:cad>0</ns3:cad>
          </ns3:TrackPointExtension>
        </extensions>
      </trkpt>
      <trkpt lat="45.328373126685619354248046875" lon="-71.0050589405000209808349609375">
        <ele>636.20001220703125</ele>
        <time>2026-08-21T20:40:21.000Z</time>
        <extensions>
          <ns3:TrackPointExtension>
            <ns3:hr>99</ns3:hr>
            <ns3:cad>0</ns3:cad>
          </ns3:TrackPointExtension>
        </extensions>
      </trkpt>
      <trkpt lat="45.3283719532191753387451171875" lon="-71.00505910813808441162109375">
        <ele>636</ele>
        <time>2026-08-21T20:40:22.000Z</time>
        <extensions>
          <ns3:TrackPointExtension>
            <ns3:hr>99</ns3:hr>
            <ns3:cad>0</ns3:cad>
          </ns3:TrackPointExtension>
        </extensions>
      </trkpt>
      <trkpt lat="45.32837145030498504638671875" lon="-71.00505885668098926544189453125">
        <ele>636</ele>
        <time>2026-08-21T20:40:23.000Z</time>
        <extensions>
          <ns3:TrackPointExtension>
            <ns3:hr>100</ns3:hr>
            <ns3:cad>0</ns3:cad>
          </ns3:TrackPointExtension>
        </extensions>
      </trkpt>
      <trkpt lat="45.32836566679179668426513671875" lon="-71.00504309870302677154541015625">
        <ele>636</ele>
        <time>2026-08-21T20:40:24.000Z</time>
        <extensions>
          <ns3:TrackPointExtension>
            <ns3:hr>100</ns3:hr>
            <ns3:cad>0</ns3:cad>
          </ns3:TrackPointExtension>
        </extensions>
      </trkpt>
      <trkpt lat="45.3283672593533992767333984375" lon="-71.00503019057214260101318359375">
        <ele>636</ele>
        <time>2026-08-21T20:40:25.000Z</time>
        <extensions>
          <ns3:TrackPointExtension>
            <ns3:hr>100</ns3:hr>
            <ns3:cad>0</ns3:cad>
          </ns3:TrackPointExtension>
        </extensions>
      </trkpt>
      <trkpt lat="45.3283605538308620452880859375" lon="-71.0050193779170513153076171875">
        <ele>636.20001220703125</ele>
        <time>2026-08-21T20:40:26.000Z</time>
        <extensions>
          <ns3:TrackPointExtension>
            <ns3:hr>101</ns3:hr>
            <ns3:cad>0</ns3:cad>
          </ns3:TrackPointExtension>
        </extensions>
      </trkpt>
      <trkpt lat="45.3283541835844516754150390625" lon="-71.0050106607377529144287109375">
        <ele>636.4000244140625</ele>
        <time>2026-08-21T20:40:27.000Z</time>
        <extensions>
          <ns3:TrackPointExtension>
            <ns3:hr>105</ns3:hr>
            <ns3:cad>0</ns3:cad>
          </ns3:TrackPointExtension>
        </extensions>
      </trkpt>
      <trkpt lat="45.32834588550031185150146484375" lon="-71.00500387139618396759033203125">
        <ele>636.4000244140625</ele>
        <time>2026-08-21T20:40:28.000Z</time>
        <extensions>
          <ns3:TrackPointExtension>
            <ns3:hr>108</ns3:hr>
            <ns3:cad>0</ns3:cad>
          </ns3:TrackPointExtension>
        </extensions>
      </trkpt>
      <trkpt lat="45.328338928520679473876953125" lon="-71.00500135682523250579833984375">
        <ele>636.5999755859375</ele>
        <time>2026-08-21T20:40:29.000Z</time>
        <extensions>
          <ns3:TrackPointExtension>
            <ns3:hr>109</ns3:hr>
            <ns3:cad>0</ns3:cad>
          </ns3:TrackPointExtension>
        </extensions>
      </trkpt>
      <trkpt lat="45.3283340670168399810791015625" lon="-71.0049967467784881591796875">
        <ele>636.79998779296875</ele>
        <time>2026-08-21T20:40:30.000Z</time>
        <extensions>
          <ns3:TrackPointExtension>
            <ns3:hr>110</ns3:hr>
            <ns3:cad>74</ns3:cad>
          </ns3:TrackPointExtension>
        </extensions>
      </trkpt>
      <trkpt lat="45.32832627184689044952392578125" lon="-71.00499146617949008941650390625">
        <ele>636.79998779296875</ele>
        <time>2026-08-21T20:40:31.000Z</time>
        <extensions>
          <ns3:TrackPointExtension>
            <ns3:hr>110</ns3:hr>
            <ns3:cad>74</ns3:cad>
          </ns3:TrackPointExtension>
        </extensions>
      </trkpt>
      <trkpt lat="45.3283162973821163177490234375" lon="-71.00498744286596775054931640625">
        <ele>637</ele>
        <time>2026-08-21T20:40:32.000Z</time>
        <extensions>
          <ns3:TrackPointExtension>
            <ns3:hr>110</ns3:hr>
            <ns3:cad>75</ns3:cad>
          </ns3:TrackPointExtension>
        </extensions>
      </trkpt>
      <trkpt lat="45.32830866985023021697998046875" lon="-71.0049831680953502655029296875">
        <ele>637.20001220703125</ele>
        <time>2026-08-21T20:40:33.000Z</time>
        <extensions>
          <ns3:TrackPointExtension>
            <ns3:hr>110</ns3:hr>
            <ns3:cad>75</ns3:cad>
          </ns3:TrackPointExtension>
        </extensions>
      </trkpt>
      <trkpt lat="45.32830498181283473968505859375" lon="-71.00498174317181110382080078125">
        <ele>637.20001220703125</ele>
        <time>2026-08-21T20:40:34.000Z</time>
        <extensions>
          <ns3:TrackPointExtension>
            <ns3:hr>110</ns3:hr>
            <ns3:cad>75</ns3:cad>
          </ns3:TrackPointExtension>
        </extensions>
      </trkpt>
      <trkpt lat="45.32829903066158294677734375" lon="-71.004978306591510772705078125">
        <ele>637.4000244140625</ele>
        <time>2026-08-21T20:40:35.000Z</time>
        <extensions>
          <ns3:TrackPointExtension>
            <ns3:hr>110</ns3:hr>
            <ns3:cad>73</ns3:cad>
          </ns3:TrackPointExtension>
        </extensions>
      </trkpt>
      <trkpt lat="45.32829173840582370758056640625" lon="-71.004976965487003326416015625">
        <ele>637.5999755859375</ele>
        <time>2026-08-21T20:40:36.000Z</time>
        <extensions>
          <ns3:TrackPointExtension>
            <ns3:hr>109</ns3:hr>
            <ns3:cad>76</ns3:cad>
          </ns3:TrackPointExtension>
        </extensions>
      </trkpt>
      <trkpt lat="45.3282881341874599456787109375" lon="-71.004973612725734710693359375">
        <ele>637.79998779296875</ele>
        <time>2026-08-21T20:40:37.000Z</time>
        <extensions>
          <ns3:TrackPointExtension>
            <ns3:hr>110</ns3:hr>
            <ns3:cad>80</ns3:cad>
          </ns3:TrackPointExtension>
        </extensions>
      </trkpt>
      <trkpt lat="45.32828251831233501434326171875" lon="-71.004968583583831787109375">
        <ele>638</ele>
        <time>2026-08-21T20:40:38.000Z</time>
        <extensions>
          <ns3:TrackPointExtension>
            <ns3:hr>112</ns3:hr>
            <ns3:cad>80</ns3:cad>
          </ns3:TrackPointExtension>
        </extensions>
      </trkpt>
      <trkpt lat="45.32827799208462238311767578125" lon="-71.0049664042890071868896484375">
        <ele>638.20001220703125</ele>
        <time>2026-08-21T20:40:39.000Z</time>
        <extensions>
          <ns3:TrackPointExtension>
            <ns3:hr>113</ns3:hr>
            <ns3:cad>80</ns3:cad>
          </ns3:TrackPointExtension>
        </extensions>
      </trkpt>
      <trkpt lat="45.32827195711433887481689453125" lon="-71.00496095605194568634033203125">
        <ele>638.4000244140625</ele>
        <time>2026-08-21T20:40:40.000Z</time>
        <extensions>
          <ns3:TrackPointExtension>
            <ns3:hr>113</ns3:hr>
            <ns3:cad>43</ns3:cad>
          </ns3:TrackPointExtension>
        </extensions>
      </trkpt>
      <trkpt lat="45.3282653354108333587646484375" lon="-71.0049566812813282012939453125">
        <ele>638.5999755859375</ele>
        <time>2026-08-21T20:40:41.000Z</time>
        <extensions>
          <ns3:TrackPointExtension>
            <ns3:hr>113</ns3:hr>
            <ns3:cad>43</ns3:cad>
          </ns3:TrackPointExtension>
        </extensions>
      </trkpt>
      <trkpt lat="45.32825837843120098114013671875" lon="-71.00495207123458385467529296875">
        <ele>638.5999755859375</ele>
        <time>2026-08-21T20:40:42.000Z</time>
        <extensions>
          <ns3:TrackPointExtension>
            <ns3:hr>114</ns3:hr>
            <ns3:cad>42</ns3:cad>
          </ns3:TrackPointExtension>
        </extensions>
      </trkpt>
      <trkpt lat="45.3282527625560760498046875" lon="-71.004941761493682861328125">
        <ele>638.79998779296875</ele>
        <time>2026-08-21T20:40:43.000Z</time>
        <extensions>
          <ns3:TrackPointExtension>
            <ns3:hr>114</ns3:hr>
            <ns3:cad>42</ns3:cad>
          </ns3:TrackPointExtension>
        </extensions>
      </trkpt>
      <trkpt lat="45.3282452188432216644287109375" lon="-71.00493933074176311492919921875">
        <ele>638.79998779296875</ele>
        <time>2026-08-21T20:40:44.000Z</time>
        <extensions>
          <ns3:TrackPointExtension>
            <ns3:hr>115</ns3:hr>
            <ns3:cad>42</ns3:cad>
          </ns3:TrackPointExtension>
        </extensions>
      </trkpt>
      <trkpt lat="45.32823608256876468658447265625" lon="-71.00493430159986019134521484375">
        <ele>639</ele>
        <time>2026-08-21T20:40:45.000Z</time>
        <extensions>
          <ns3:TrackPointExtension>
            <ns3:hr>115</ns3:hr>
            <ns3:cad>0</ns3:cad>
          </ns3:TrackPointExtension>
        </extensions>
      </trkpt>
      <trkpt lat="45.32822602428495883941650390625" lon="-71.004925668239593505859375">
        <ele>639</ele>
        <time>2026-08-21T20:40:46.000Z</time>
        <extensions>
          <ns3:TrackPointExtension>
            <ns3:hr>116</ns3:hr>
            <ns3:cad>0</ns3:cad>
          </ns3:TrackPointExtension>
        </extensions>
      </trkpt>
      <trkpt lat="45.3282153792679309844970703125" lon="-71.0049167834222316741943359375">
        <ele>639.20001220703125</ele>
        <time>2026-08-21T20:40:47.000Z</time>
        <extensions>
          <ns3:TrackPointExtension>
            <ns3:hr>116</ns3:hr>
            <ns3:cad>45</ns3:cad>
          </ns3:TrackPointExtension>
        </extensions>
      </trkpt>
      <trkpt lat="45.32820506952702999114990234375" lon="-71.0049100778996944427490234375">
        <ele>639.4000244140625</ele>
        <time>2026-08-21T20:40:48.000Z</time>
        <extensions>
          <ns3:TrackPointExtension>
            <ns3:hr>117</ns3:hr>
            <ns3:cad>45</ns3:cad>
          </ns3:TrackPointExtension>
        </extensions>
      </trkpt>
      <trkpt lat="45.3281929157674312591552734375" lon="-71.0049070604145526885986328125">
        <ele>639.5999755859375</ele>
        <time>2026-08-21T20:40:49.000Z</time>
        <extensions>
          <ns3:TrackPointExtension>
            <ns3:hr>118</ns3:hr>
            <ns3:cad>45</ns3:cad>
          </ns3:TrackPointExtension>
        </extensions>
      </trkpt>
      <trkpt lat="45.32818394713103771209716796875" lon="-71.004907228052616119384765625">
        <ele>639.5999755859375</ele>
        <time>2026-08-21T20:40:50.000Z</time>
        <extensions>
          <ns3:TrackPointExtension>
            <ns3:hr>119</ns3:hr>
            <ns3:cad>43</ns3:cad>
          </ns3:TrackPointExtension>
        </extensions>
      </trkpt>
      <trkpt lat="45.32817690633237361907958984375" lon="-71.0049063898622989654541015625">
        <ele>639.79998779296875</ele>
        <time>2026-08-21T20:40:51.000Z</time>
        <extensions>
          <ns3:TrackPointExtension>
            <ns3:hr>119</ns3:hr>
            <ns3:cad>43</ns3:cad>
          </ns3:TrackPointExtension>
        </extensions>
      </trkpt>
      <trkpt lat="45.32816760241985321044921875" lon="-71.004906557500362396240234375">
        <ele>639.79998779296875</ele>
        <time>2026-08-21T20:40:52.000Z</time>
        <extensions>
          <ns3:TrackPointExtension>
            <ns3:hr>119</ns3:hr>
            <ns3:cad>43</ns3:cad>
          </ns3:TrackPointExtension>
        </extensions>
      </trkpt>
      <trkpt lat="45.32815754413604736328125" lon="-71.00490479730069637298583984375">
        <ele>639.79998779296875</ele>
        <time>2026-08-21T20:40:53.000Z</time>
        <extensions>
          <ns3:TrackPointExtension>
            <ns3:hr>120</ns3:hr>
            <ns3:cad>43</ns3:cad>
          </ns3:TrackPointExtension>
        </extensions>
      </trkpt>
      <trkpt lat="45.32814681529998779296875" lon="-71.0049003548920154571533203125">
        <ele>640</ele>
        <time>2026-08-21T20:40:54.000Z</time>
        <extensions>
          <ns3:TrackPointExtension>
            <ns3:hr>119</ns3:hr>
            <ns3:cad>43</ns3:cad>
          </ns3:TrackPointExtension>
        </extensions>
      </trkpt>
      <trkpt lat="45.32813751138746738433837890625" lon="-71.00489926524460315704345703125">
        <ele>640</ele>
        <time>2026-08-21T20:40:55.000Z</time>
        <extensions>
          <ns3:TrackPointExtension>
            <ns3:hr>119</ns3:hr>
            <ns3:cad>43</ns3:cad>
          </ns3:TrackPointExtension>
        </extensions>
      </trkpt>
      <trkpt lat="45.32812871038913726806640625" lon="-71.00489758886396884918212890625">
        <ele>640</ele>
        <time>2026-08-21T20:40:56.000Z</time>
        <extensions>
          <ns3:TrackPointExtension>
            <ns3:hr>121</ns3:hr>
            <ns3:cad>43</ns3:cad>
          </ns3:TrackPointExtension>
        </extensions>
      </trkpt>
      <trkpt lat="45.328116975724697113037109375" lon="-71.004893146455287933349609375">
        <ele>640.20001220703125</ele>
        <time>2026-08-21T20:40:57.000Z</time>
        <extensions>
          <ns3:TrackPointExtension>
            <ns3:hr>122</ns3:hr>
            <ns3:cad>45</ns3:cad>
          </ns3:TrackPointExtension>
        </extensions>
      </trkpt>
      <trkpt lat="45.32810767181217670440673828125" lon="-71.00489406846463680267333984375">
        <ele>640.4000244140625</ele>
        <time>2026-08-21T20:40:58.000Z</time>
        <extensions>
          <ns3:TrackPointExtension>
            <ns3:hr>122</ns3:hr>
            <ns3:cad>45</ns3:cad>
          </ns3:TrackPointExtension>
        </extensions>
      </trkpt>
      <trkpt lat="45.3280963562428951263427734375" lon="-71.00489423610270023345947265625">
        <ele>640.4000244140625</ele>
        <time>2026-08-21T20:40:59.000Z</time>
        <extensions>
          <ns3:TrackPointExtension>
            <ns3:hr>123</ns3:hr>
            <ns3:cad>45</ns3:cad>
          </ns3:TrackPointExtension>
        </extensions>
      </trkpt>
      <trkpt lat="45.328084118664264678955078125" lon="-71.00489415228366851806640625">
        <ele>640.5999755859375</ele>
        <time>2026-08-21T20:41:00.000Z</time>
        <extensions>
          <ns3:TrackPointExtension>
            <ns3:hr>123</ns3:hr>
            <ns3:cad>45</ns3:cad>
          </ns3:TrackPointExtension>
        </extensions>
      </trkpt>
      <trkpt lat="45.32807263545691967010498046875" lon="-71.004891134798526763916015625">
        <ele>640.79998779296875</ele>
        <time>2026-08-21T20:41:01.000Z</time>
        <extensions>
          <ns3:TrackPointExtension>
            <ns3:hr>124</ns3:hr>
            <ns3:cad>45</ns3:cad>
          </ns3:TrackPointExtension>
        </extensions>
      </trkpt>
      <trkpt lat="45.32806056551635265350341796875" lon="-71.00489809177815914154052734375">
        <ele>640.79998779296875</ele>
        <time>2026-08-21T20:41:02.000Z</time>
        <extensions>
          <ns3:TrackPointExtension>
            <ns3:hr>125</ns3:hr>
            <ns3:cad>46</ns3:cad>
          </ns3:TrackPointExtension>
        </extensions>
      </trkpt>
      <trkpt lat="45.32804966904222965240478515625" lon="-71.0049067251384258270263671875">
        <ele>640.79998779296875</ele>
        <time>2026-08-21T20:41:03.000Z</time>
        <extensions>
          <ns3:TrackPointExtension>
            <ns3:hr>126</ns3:hr>
            <ns3:cad>46</ns3:cad>
          </ns3:TrackPointExtension>
        </extensions>
      </trkpt>
      <trkpt lat="45.328040532767772674560546875" lon="-71.00491737015545368194580078125">
        <ele>641</ele>
        <time>2026-08-21T20:41:04.000Z</time>
        <extensions>
          <ns3:TrackPointExtension>
            <ns3:hr>126</ns3:hr>
            <ns3:cad>46</ns3:cad>
          </ns3:TrackPointExtension>
        </extensions>
      </trkpt>
      <trkpt lat="45.32803525216877460479736328125" lon="-71.00493061356246471405029296875">
        <ele>641</ele>
        <time>2026-08-21T20:41:05.000Z</time>
        <extensions>
          <ns3:TrackPointExtension>
            <ns3:hr>126</ns3:hr>
            <ns3:cad>47</ns3:cad>
          </ns3:TrackPointExtension>
        </extensions>
      </trkpt>
      <trkpt lat="45.32803055830299854278564453125" lon="-71.004942767322063446044921875">
        <ele>641</ele>
        <time>2026-08-21T20:41:06.000Z</time>
        <extensions>
          <ns3:TrackPointExtension>
            <ns3:hr>126</ns3:hr>
            <ns3:cad>47</ns3:cad>
          </ns3:TrackPointExtension>
        </extensions>
      </trkpt>
      <trkpt lat="45.328028462827205657958984375" lon="-71.004952155053615570068359375">
        <ele>641.20001220703125</ele>
        <time>2026-08-21T20:41:07.000Z</time>
        <extensions>
          <ns3:TrackPointExtension>
            <ns3:hr>125</ns3:hr>
            <ns3:cad>46</ns3:cad>
          </ns3:TrackPointExtension>
        </extensions>
      </trkpt>
      <trkpt lat="45.32802619971334934234619140625" lon="-71.0049617104232311248779296875">
        <ele>641.20001220703125</ele>
        <time>2026-08-21T20:41:08.000Z</time>
        <extensions>
          <ns3:TrackPointExtension>
            <ns3:hr>125</ns3:hr>
            <ns3:cad>46</ns3:cad>
          </ns3:TrackPointExtension>
        </extensions>
      </trkpt>
      <trkpt lat="45.3280247747898101806640625" lon="-71.004968583583831787109375">
        <ele>641.4000244140625</ele>
        <time>2026-08-21T20:41:09.000Z</time>
        <extensions>
          <ns3:TrackPointExtension>
            <ns3:hr>125</ns3:hr>
            <ns3:cad>46</ns3:cad>
          </ns3:TrackPointExtension>
        </extensions>
      </trkpt>
      <trkpt lat="45.32802301459014415740966796875" lon="-71.00497730076313018798828125">
        <ele>641.5999755859375</ele>
        <time>2026-08-21T20:41:10.000Z</time>
        <extensions>
          <ns3:TrackPointExtension>
            <ns3:hr>125</ns3:hr>
            <ns3:cad>44</ns3:cad>
          </ns3:TrackPointExtension>
        </extensions>
      </trkpt>
      <trkpt lat="45.32802133820950984954833984375" lon="-71.00498794578015804290771484375">
        <ele>642</ele>
        <time>2026-08-21T20:41:11.000Z</time>
        <extensions>
          <ns3:TrackPointExtension>
            <ns3:hr>124</ns3:hr>
            <ns3:cad>44</ns3:cad>
          </ns3:TrackPointExtension>
        </extensions>
      </trkpt>
      <trkpt lat="45.32801647670567035675048828125" lon="-71.0049969144165515899658203125">
        <ele>642.20001220703125</ele>
        <time>2026-08-21T20:41:12.000Z</time>
        <extensions>
          <ns3:TrackPointExtension>
            <ns3:hr>125</ns3:hr>
            <ns3:cad>44</ns3:cad>
          </ns3:TrackPointExtension>
        </extensions>
      </trkpt>
      <trkpt lat="45.32801412977278232574462890625" lon="-71.0050026141107082366943359375">
        <ele>642.4000244140625</ele>
        <time>2026-08-21T20:41:13.000Z</time>
        <extensions>
          <ns3:TrackPointExtension>
            <ns3:hr>125</ns3:hr>
            <ns3:cad>43</ns3:cad>
          </ns3:TrackPointExtension>
        </extensions>
      </trkpt>
      <trkpt lat="45.3280122019350528717041015625" lon="-71.0050026141107082366943359375">
        <ele>642.5999755859375</ele>
        <time>2026-08-21T20:41:14.000Z</time>
        <extensions>
          <ns3:TrackPointExtension>
            <ns3:hr>124</ns3:hr>
            <ns3:cad>43</ns3:cad>
          </ns3:TrackPointExtension>
        </extensions>
      </trkpt>
      <trkpt lat="45.32801211811602115631103515625" lon="-71.0049965791404247283935546875">
        <ele>642.79998779296875</ele>
        <time>2026-08-21T20:41:15.000Z</time>
        <extensions>
          <ns3:TrackPointExtension>
            <ns3:hr>125</ns3:hr>
            <ns3:cad>41</ns3:cad>
          </ns3:TrackPointExtension>
        </extensions>
      </trkpt>
      <trkpt lat="45.3280098550021648406982421875" lon="-71.0049898736178874969482421875">
        <ele>643</ele>
        <time>2026-08-21T20:41:16.000Z</time>
        <extensions>
          <ns3:TrackPointExtension>
            <ns3:hr>124</ns3:hr>
            <ns3:cad>41</ns3:cad>
          </ns3:TrackPointExtension>
        </extensions>
      </trkpt>
      <trkpt lat="45.3280059993267059326171875" lon="-71.0049861855804920196533203125">
        <ele>643</ele>
        <time>2026-08-21T20:41:17.000Z</time>
        <extensions>
          <ns3:TrackPointExtension>
            <ns3:hr>124</ns3:hr>
            <ns3:cad>0</ns3:cad>
          </ns3:TrackPointExtension>
        </extensions>
      </trkpt>
      <trkpt lat="45.32800130546092987060546875" lon="-71.00498693995177745819091796875">
        <ele>643</ele>
        <time>2026-08-21T20:41:18.000Z</time>
        <extensions>
          <ns3:TrackPointExtension>
            <ns3:hr>124</ns3:hr>
            <ns3:cad>0</ns3:cad>
          </ns3:TrackPointExtension>
        </extensions>
      </trkpt>
      <trkpt lat="45.327990911900997161865234375" lon="-71.00499163381755352020263671875">
        <ele>643</ele>
        <time>2026-08-21T20:41:19.000Z</time>
        <extensions>
          <ns3:TrackPointExtension>
            <ns3:hr>125</ns3:hr>
            <ns3:cad>0</ns3:cad>
          </ns3:TrackPointExtension>
        </extensions>
      </trkpt>
      <trkpt lat="45.32797850668430328369140625" lon="-71.00499196909368038177490234375">
        <ele>643</ele>
        <time>2026-08-21T20:41:20.000Z</time>
        <extensions>
          <ns3:TrackPointExtension>
            <ns3:hr>124</ns3:hr>
            <ns3:cad>0</ns3:cad>
          </ns3:TrackPointExtension>
        </extensions>
      </trkpt>
      <trkpt lat="45.3279686160385608673095703125" lon="-71.0049927234649658203125">
        <ele>643</ele>
        <time>2026-08-21T20:41:21.000Z</time>
        <extensions>
          <ns3:TrackPointExtension>
            <ns3:hr>124</ns3:hr>
            <ns3:cad>0</ns3:cad>
          </ns3:TrackPointExtension>
        </extensions>
      </trkpt>
      <trkpt lat="45.3279577195644378662109375" lon="-71.004992388188838958740234375">
        <ele>643.20001220703125</ele>
        <time>2026-08-21T20:41:22.000Z</time>
        <extensions>
          <ns3:TrackPointExtension>
            <ns3:hr>125</ns3:hr>
            <ns3:cad>74</ns3:cad>
          </ns3:TrackPointExtension>
        </extensions>
      </trkpt>
      <trkpt lat="45.32794808037579059600830078125" lon="-71.0049915499985218048095703125">
        <ele>643.4000244140625</ele>
        <time>2026-08-21T20:41:23.000Z</time>
        <extensions>
          <ns3:TrackPointExtension>
            <ns3:hr>124</ns3:hr>
            <ns3:cad>74</ns3:cad>
          </ns3:TrackPointExtension>
        </extensions>
      </trkpt>
      <trkpt lat="45.3279394470155239105224609375" lon="-71.00498341955244541168212890625">
        <ele>643.4000244140625</ele>
        <time>2026-08-21T20:41:24.000Z</time>
        <extensions>
          <ns3:TrackPointExtension>
            <ns3:hr>124</ns3:hr>
            <ns3:cad>74</ns3:cad>
          </ns3:TrackPointExtension>
        </extensions>
      </trkpt>
      <trkpt lat="45.32793098129332065582275390625" lon="-71.004980988800525665283203125">
        <ele>643.5999755859375</ele>
        <time>2026-08-21T20:41:25.000Z</time>
        <extensions>
          <ns3:TrackPointExtension>
            <ns3:hr>124</ns3:hr>
            <ns3:cad>47</ns3:cad>
          </ns3:TrackPointExtension>
        </extensions>
      </trkpt>
      <trkpt lat="45.32792377285659313201904296875" lon="-71.00497872568666934967041015625">
        <ele>643.5999755859375</ele>
        <time>2026-08-21T20:41:26.000Z</time>
        <extensions>
          <ns3:TrackPointExtension>
            <ns3:hr>124</ns3:hr>
            <ns3:cad>47</ns3:cad>
          </ns3:TrackPointExtension>
        </extensions>
      </trkpt>
      <trkpt lat="45.3279163129627704620361328125" lon="-71.0049781389534473419189453125">
        <ele>643.5999755859375</ele>
        <time>2026-08-21T20:41:27.000Z</time>
        <extensions>
          <ns3:TrackPointExtension>
            <ns3:hr>124</ns3:hr>
            <ns3:cad>47</ns3:cad>
          </ns3:TrackPointExtension>
        </extensions>
      </trkpt>
      <trkpt lat="45.32790608704090118408203125" lon="-71.00497503764927387237548828125">
        <ele>643.5999755859375</ele>
        <time>2026-08-21T20:41:28.000Z</time>
        <extensions>
          <ns3:TrackPointExtension>
            <ns3:hr>124</ns3:hr>
            <ns3:cad>47</ns3:cad>
          </ns3:TrackPointExtension>
        </extensions>
      </trkpt>
      <trkpt lat="45.32789225690066814422607421875" lon="-71.0049707628786563873291015625">
        <ele>643.79998779296875</ele>
        <time>2026-08-21T20:41:29.000Z</time>
        <extensions>
          <ns3:TrackPointExtension>
            <ns3:hr>125</ns3:hr>
            <ns3:cad>47</ns3:cad>
          </ns3:TrackPointExtension>
        </extensions>
      </trkpt>
      <trkpt lat="45.327880270779132843017578125" lon="-71.0049677453935146331787109375">
        <ele>644</ele>
        <time>2026-08-21T20:41:30.000Z</time>
        <extensions>
          <ns3:TrackPointExtension>
            <ns3:hr>125</ns3:hr>
            <ns3:cad>50</ns3:cad>
          </ns3:TrackPointExtension>
        </extensions>
      </trkpt>
      <trkpt lat="45.32786878757178783416748046875" lon="-71.004965566098690032958984375">
        <ele>644</ele>
        <time>2026-08-21T20:41:31.000Z</time>
        <extensions>
          <ns3:TrackPointExtension>
            <ns3:hr>126</ns3:hr>
            <ns3:cad>50</ns3:cad>
          </ns3:TrackPointExtension>
        </extensions>
      </trkpt>
      <trkpt lat="45.32785923220217227935791015625" lon="-71.004963554441928863525390625">
        <ele>644.20001220703125</ele>
        <time>2026-08-21T20:41:32.000Z</time>
        <extensions>
          <ns3:TrackPointExtension>
            <ns3:hr>126</ns3:hr>
            <ns3:cad>48</ns3:cad>
          </ns3:TrackPointExtension>
        </extensions>
      </trkpt>
      <trkpt lat="45.32785185612738132476806640625" lon="-71.00496120750904083251953125">
        <ele>644.20001220703125</ele>
        <time>2026-08-21T20:41:33.000Z</time>
        <extensions>
          <ns3:TrackPointExtension>
            <ns3:hr>126</ns3:hr>
            <ns3:cad>47</ns3:cad>
          </ns3:TrackPointExtension>
        </extensions>
      </trkpt>
      <trkpt lat="45.32784565351903438568115234375" lon="-71.00495718419551849365234375">
        <ele>644.20001220703125</ele>
        <time>2026-08-21T20:41:34.000Z</time>
        <extensions>
          <ns3:TrackPointExtension>
            <ns3:hr>126</ns3:hr>
            <ns3:cad>47</ns3:cad>
          </ns3:TrackPointExtension>
        </extensions>
      </trkpt>
      <trkpt lat="45.32783358357846736907958984375" lon="-71.0049479641020298004150390625">
        <ele>644.20001220703125</ele>
        <time>2026-08-21T20:41:35.000Z</time>
        <extensions>
          <ns3:TrackPointExtension>
            <ns3:hr>127</ns3:hr>
            <ns3:cad>47</ns3:cad>
          </ns3:TrackPointExtension>
        </extensions>
      </trkpt>
      <trkpt lat="45.32782620750367641448974609375" lon="-71.00494855083525180816650390625">
        <ele>644.4000244140625</ele>
        <time>2026-08-21T20:41:36.000Z</time>
        <extensions>
          <ns3:TrackPointExtension>
            <ns3:hr>127</ns3:hr>
            <ns3:cad>47</ns3:cad>
          </ns3:TrackPointExtension>
        </extensions>
      </trkpt>
      <trkpt lat="45.3278187476098537445068359375" lon="-71.004948802292346954345703125">
        <ele>644.4000244140625</ele>
        <time>2026-08-21T20:41:37.000Z</time>
        <extensions>
          <ns3:TrackPointExtension>
            <ns3:hr>128</ns3:hr>
            <ns3:cad>0</ns3:cad>
          </ns3:TrackPointExtension>
        </extensions>
      </trkpt>
      <trkpt lat="45.32780877314507961273193359375" lon="-71.0049526579678058624267578125">
        <ele>644.4000244140625</ele>
        <time>2026-08-21T20:41:38.000Z</time>
        <extensions>
          <ns3:TrackPointExtension>
            <ns3:hr>128</ns3:hr>
            <ns3:cad>0</ns3:cad>
          </ns3:TrackPointExtension>
        </extensions>
      </trkpt>
      <trkpt lat="45.32779921777546405792236328125" lon="-71.00495978258550167083740234375">
        <ele>644.5999755859375</ele>
        <time>2026-08-21T20:41:39.000Z</time>
        <extensions>
          <ns3:TrackPointExtension>
            <ns3:hr>128</ns3:hr>
            <ns3:cad>0</ns3:cad>
          </ns3:TrackPointExtension>
        </extensions>
      </trkpt>
      <trkpt lat="45.32778882421553134918212890625" lon="-71.0049757920205593109130859375">
        <ele>644.5999755859375</ele>
        <time>2026-08-21T20:41:40.000Z</time>
        <extensions>
          <ns3:TrackPointExtension>
            <ns3:hr>128</ns3:hr>
            <ns3:cad>48</ns3:cad>
          </ns3:TrackPointExtension>
        </extensions>
      </trkpt>
      <trkpt lat="45.32777599990367889404296875" lon="-71.0049855150282382965087890625">
        <ele>644.5999755859375</ele>
        <time>2026-08-21T20:41:41.000Z</time>
        <extensions>
          <ns3:TrackPointExtension>
            <ns3:hr>128</ns3:hr>
            <ns3:cad>48</ns3:cad>
          </ns3:TrackPointExtension>
        </extensions>
      </trkpt>
      <trkpt lat="45.32776585780084133148193359375" lon="-71.00499649532139301300048828125">
        <ele>644.5999755859375</ele>
        <time>2026-08-21T20:41:42.000Z</time>
        <extensions>
          <ns3:TrackPointExtension>
            <ns3:hr>128</ns3:hr>
            <ns3:cad>47</ns3:cad>
          </ns3:TrackPointExtension>
        </extensions>
      </trkpt>
      <trkpt lat="45.32776518724858760833740234375" lon="-71.00499213673174381256103515625">
        <ele>644.79998779296875</ele>
        <time>2026-08-21T20:41:43.000Z</time>
        <extensions>
          <ns3:TrackPointExtension>
            <ns3:hr>128</ns3:hr>
            <ns3:cad>44</ns3:cad>
          </ns3:TrackPointExtension>
        </extensions>
      </trkpt>
      <trkpt lat="45.3277567215263843536376953125" lon="-71.00499666295945644378662109375">
        <ele>644.79998779296875</ele>
        <time>2026-08-21T20:41:44.000Z</time>
        <extensions>
          <ns3:TrackPointExtension>
            <ns3:hr>128</ns3:hr>
            <ns3:cad>44</ns3:cad>
          </ns3:TrackPointExtension>
        </extensions>
      </trkpt>
      <trkpt lat="45.327746160328388214111328125" lon="-71.00500085391104221343994140625">
        <ele>644.79998779296875</ele>
        <time>2026-08-21T20:41:45.000Z</time>
        <extensions>
          <ns3:TrackPointExtension>
            <ns3:hr>128</ns3:hr>
            <ns3:cad>44</ns3:cad>
          </ns3:TrackPointExtension>
        </extensions>
      </trkpt>
      <trkpt lat="45.32773501239717006683349609375" lon="-71.00500303320586681365966796875">
        <ele>645</ele>
        <time>2026-08-21T20:41:46.000Z</time>
        <extensions>
          <ns3:TrackPointExtension>
            <ns3:hr>128</ns3:hr>
            <ns3:cad>44</ns3:cad>
          </ns3:TrackPointExtension>
        </extensions>
      </trkpt>
      <trkpt lat="45.3277258761227130889892578125" lon="-71.00500605069100856781005859375">
        <ele>645</ele>
        <time>2026-08-21T20:41:47.000Z</time>
        <extensions>
          <ns3:TrackPointExtension>
            <ns3:hr>128</ns3:hr>
            <ns3:cad>44</ns3:cad>
          </ns3:TrackPointExtension>
        </extensions>
      </trkpt>
      <trkpt lat="45.32771858386695384979248046875" lon="-71.00501074455678462982177734375">
        <ele>645.20001220703125</ele>
        <time>2026-08-21T20:41:48.000Z</time>
        <extensions>
          <ns3:TrackPointExtension>
            <ns3:hr>128</ns3:hr>
            <ns3:cad>44</ns3:cad>
          </ns3:TrackPointExtension>
        </extensions>
      </trkpt>
      <trkpt lat="45.32771288417279720306396484375" lon="-71.0050177015364170074462890625">
        <ele>645.4000244140625</ele>
        <time>2026-08-21T20:41:49.000Z</time>
        <extensions>
          <ns3:TrackPointExtension>
            <ns3:hr>128</ns3:hr>
            <ns3:cad>47</ns3:cad>
          </ns3:TrackPointExtension>
        </extensions>
      </trkpt>
      <trkpt lat="45.32770693302154541015625" lon="-71.0050197131931781768798828125">
        <ele>645.5999755859375</ele>
        <time>2026-08-21T20:41:50.000Z</time>
        <extensions>
          <ns3:TrackPointExtension>
            <ns3:hr>127</ns3:hr>
            <ns3:cad>47</ns3:cad>
          </ns3:TrackPointExtension>
        </extensions>
      </trkpt>
      <trkpt lat="45.32769620418548583984375" lon="-71.0050247423350811004638671875">
        <ele>645.79998779296875</ele>
        <time>2026-08-21T20:41:51.000Z</time>
        <extensions>
          <ns3:TrackPointExtension>
            <ns3:hr>127</ns3:hr>
            <ns3:cad>47</ns3:cad>
          </ns3:TrackPointExtension>
        </extensions>
      </trkpt>
      <trkpt lat="45.32768975012004375457763671875" lon="-71.00502901710569858551025390625">
        <ele>645.79998779296875</ele>
        <time>2026-08-21T20:41:52.000Z</time>
        <extensions>
          <ns3:TrackPointExtension>
            <ns3:hr>127</ns3:hr>
            <ns3:cad>47</ns3:cad>
          </ns3:TrackPointExtension>
        </extensions>
      </trkpt>
      <trkpt lat="45.32768354751169681549072265625" lon="-71.00503027439117431640625">
        <ele>646</ele>
        <time>2026-08-21T20:41:53.000Z</time>
        <extensions>
          <ns3:TrackPointExtension>
            <ns3:hr>126</ns3:hr>
            <ns3:cad>47</ns3:cad>
          </ns3:TrackPointExtension>
        </extensions>
      </trkpt>
      <trkpt lat="45.3276765905320644378662109375" lon="-71.00503320805728435516357421875">
        <ele>646.20001220703125</ele>
        <time>2026-08-21T20:41:54.000Z</time>
        <extensions>
          <ns3:TrackPointExtension>
            <ns3:hr>126</ns3:hr>
            <ns3:cad>47</ns3:cad>
          </ns3:TrackPointExtension>
        </extensions>
      </trkpt>
      <trkpt lat="45.32767005264759063720703125" lon="-71.00503656081855297088623046875">
        <ele>646.20001220703125</ele>
        <time>2026-08-21T20:41:55.000Z</time>
        <extensions>
          <ns3:TrackPointExtension>
            <ns3:hr>126</ns3:hr>
            <ns3:cad>43</ns3:cad>
          </ns3:TrackPointExtension>
        </extensions>
      </trkpt>
      <trkpt lat="45.3276655264198780059814453125" lon="-71.0050391592085361480712890625">
        <ele>646.4000244140625</ele>
        <time>2026-08-21T20:41:56.000Z</time>
        <extensions>
          <ns3:TrackPointExtension>
            <ns3:hr>126</ns3:hr>
            <ns3:cad>43</ns3:cad>
          </ns3:TrackPointExtension>
        </extensions>
      </trkpt>
      <trkpt lat="45.3276588208973407745361328125" lon="-71.00504142232239246368408203125">
        <ele>646.5999755859375</ele>
        <time>2026-08-21T20:41:57.000Z</time>
        <extensions>
          <ns3:TrackPointExtension>
            <ns3:hr>126</ns3:hr>
            <ns3:cad>0</ns3:cad>
          </ns3:TrackPointExtension>
        </extensions>
      </trkpt>
      <trkpt lat="45.3276541270315647125244140625" lon="-71.00504410453140735626220703125">
        <ele>646.79998779296875</ele>
        <time>2026-08-21T20:41:58.000Z</time>
        <extensions>
          <ns3:TrackPointExtension>
            <ns3:hr>127</ns3:hr>
            <ns3:cad>0</ns3:cad>
          </ns3:TrackPointExtension>
        </extensions>
      </trkpt>
      <trkpt lat="45.32764901407063007354736328125" lon="-71.00504645146429538726806640625">
        <ele>647</ele>
        <time>2026-08-21T20:41:59.000Z</time>
        <extensions>
          <ns3:TrackPointExtension>
            <ns3:hr>128</ns3:hr>
            <ns3:cad>78</ns3:cad>
          </ns3:TrackPointExtension>
        </extensions>
      </trkpt>
      <trkpt lat="45.32764381729066371917724609375" lon="-71.0050488822162151336669921875">
        <ele>647</ele>
        <time>2026-08-21T20:42:00.000Z</time>
        <extensions>
          <ns3:TrackPointExtension>
            <ns3:hr>128</ns3:hr>
            <ns3:cad>80</ns3:cad>
          </ns3:TrackPointExtension>
        </extensions>
      </trkpt>
      <trkpt lat="45.3276356868445873260498046875" lon="-71.00504980422556400299072265625">
        <ele>647.20001220703125</ele>
        <time>2026-08-21T20:42:01.000Z</time>
        <extensions>
          <ns3:TrackPointExtension>
            <ns3:hr>128</ns3:hr>
            <ns3:cad>80</ns3:cad>
          </ns3:TrackPointExtension>
        </extensions>
      </trkpt>
      <trkpt lat="45.32763157971203327178955078125" lon="-71.00505265407264232635498046875">
        <ele>647.20001220703125</ele>
        <time>2026-08-21T20:42:02.000Z</time>
        <extensions>
          <ns3:TrackPointExtension>
            <ns3:hr>129</ns3:hr>
            <ns3:cad>80</ns3:cad>
          </ns3:TrackPointExtension>
        </extensions>
      </trkpt>
      <trkpt lat="45.32762520946562290191650390625" lon="-71.0050535760819911956787109375">
        <ele>647.4000244140625</ele>
        <time>2026-08-21T20:42:03.000Z</time>
        <extensions>
          <ns3:TrackPointExtension>
            <ns3:hr>129</ns3:hr>
            <ns3:cad>80</ns3:cad>
          </ns3:TrackPointExtension>
        </extensions>
      </trkpt>
      <trkpt lat="45.32762018032371997833251953125" lon="-71.00505449809134006500244140625">
        <ele>647.5999755859375</ele>
        <time>2026-08-21T20:42:04.000Z</time>
        <extensions>
          <ns3:TrackPointExtension>
            <ns3:hr>129</ns3:hr>
            <ns3:cad>80</ns3:cad>
          </ns3:TrackPointExtension>
        </extensions>
      </trkpt>
      <trkpt lat="45.3276143968105316162109375" lon="-71.005058102309703826904296875">
        <ele>647.79998779296875</ele>
        <time>2026-08-21T20:42:05.000Z</time>
        <extensions>
          <ns3:TrackPointExtension>
            <ns3:hr>130</ns3:hr>
            <ns3:cad>42</ns3:cad>
          </ns3:TrackPointExtension>
        </extensions>
      </trkpt>
      <trkpt lat="45.3276051767170429229736328125" lon="-71.00506539456546306610107421875">
        <ele>648</ele>
        <time>2026-08-21T20:42:06.000Z</time>
        <extensions>
          <ns3:TrackPointExtension>
            <ns3:hr>130</ns3:hr>
            <ns3:cad>42</ns3:cad>
          </ns3:TrackPointExtension>
        </extensions>
      </trkpt>
      <trkpt lat="45.3275983035564422607421875" lon="-71.00507008843123912811279296875">
        <ele>648.20001220703125</ele>
        <time>2026-08-21T20:42:07.000Z</time>
        <extensions>
          <ns3:TrackPointExtension>
            <ns3:hr>130</ns3:hr>
            <ns3:cad>40</ns3:cad>
          </ns3:TrackPointExtension>
        </extensions>
      </trkpt>
      <trkpt lat="45.327591598033905029296875" lon="-71.0050710104405879974365234375">
        <ele>648.4000244140625</ele>
        <time>2026-08-21T20:42:08.000Z</time>
        <extensions>
          <ns3:TrackPointExtension>
            <ns3:hr>130</ns3:hr>
            <ns3:cad>40</ns3:cad>
          </ns3:TrackPointExtension>
        </extensions>
      </trkpt>
      <trkpt lat="45.32758648507297039031982421875" lon="-71.00506849586963653564453125">
        <ele>648.5999755859375</ele>
        <time>2026-08-21T20:42:09.000Z</time>
        <extensions>
          <ns3:TrackPointExtension>
            <ns3:hr>130</ns3:hr>
            <ns3:cad>40</ns3:cad>
          </ns3:TrackPointExtension>
        </extensions>
      </trkpt>
      <trkpt lat="45.32757927663624286651611328125" lon="-71.0050666518509387969970703125">
        <ele>648.79998779296875</ele>
        <time>2026-08-21T20:42:10.000Z</time>
        <extensions>
          <ns3:TrackPointExtension>
            <ns3:hr>130</ns3:hr>
            <ns3:cad>40</ns3:cad>
          </ns3:TrackPointExtension>
        </extensions>
      </trkpt>
      <trkpt lat="45.327570140361785888671875" lon="-71.0050653107464313507080078125">
        <ele>649</ele>
        <time>2026-08-21T20:42:11.000Z</time>
        <extensions>
          <ns3:TrackPointExtension>
            <ns3:hr>130</ns3:hr>
            <ns3:cad>40</ns3:cad>
          </ns3:TrackPointExtension>
        </extensions>
      </trkpt>
      <trkpt lat="45.32755865715444087982177734375" lon="-71.00506941787898540496826171875">
        <ele>649.20001220703125</ele>
        <time>2026-08-21T20:42:12.000Z</time>
        <extensions>
          <ns3:TrackPointExtension>
            <ns3:hr>130</ns3:hr>
            <ns3:cad>42</ns3:cad>
          </ns3:TrackPointExtension>
        </extensions>
      </trkpt>
      <trkpt lat="45.3275542147457599639892578125" lon="-71.00507922470569610595703125">
        <ele>649.4000244140625</ele>
        <time>2026-08-21T20:42:13.000Z</time>
        <extensions>
          <ns3:TrackPointExtension>
            <ns3:hr>130</ns3:hr>
            <ns3:cad>42</ns3:cad>
          </ns3:TrackPointExtension>
        </extensions>
      </trkpt>
      <trkpt lat="45.3275458328425884246826171875" lon="-71.00508701987564563751220703125">
        <ele>649.4000244140625</ele>
        <time>2026-08-21T20:42:14.000Z</time>
        <extensions>
          <ns3:TrackPointExtension>
            <ns3:hr>130</ns3:hr>
            <ns3:cad>42</ns3:cad>
          </ns3:TrackPointExtension>
        </extensions>
      </trkpt>
      <trkpt lat="45.3275404684245586395263671875" lon="-71.00509456358850002288818359375">
        <ele>649.5999755859375</ele>
        <time>2026-08-21T20:42:15.000Z</time>
        <extensions>
          <ns3:TrackPointExtension>
            <ns3:hr>130</ns3:hr>
            <ns3:cad>42</ns3:cad>
          </ns3:TrackPointExtension>
        </extensions>
      </trkpt>
      <trkpt lat="45.3275347687304019927978515625" lon="-71.00510126911103725433349609375">
        <ele>649.5999755859375</ele>
        <time>2026-08-21T20:42:16.000Z</time>
        <extensions>
          <ns3:TrackPointExtension>
            <ns3:hr>130</ns3:hr>
            <ns3:cad>42</ns3:cad>
          </ns3:TrackPointExtension>
        </extensions>
      </trkpt>
      <trkpt lat="45.3275297395884990692138671875" lon="-71.005112417042255401611328125">
        <ele>649.79998779296875</ele>
        <time>2026-08-21T20:42:17.000Z</time>
        <extensions>
          <ns3:TrackPointExtension>
            <ns3:hr>130</ns3:hr>
            <ns3:cad>42</ns3:cad>
          </ns3:TrackPointExtension>
        </extensions>
      </trkpt>
      <trkpt lat="45.3275263868272304534912109375" lon="-71.00512574426829814910888671875">
        <ele>650</ele>
        <time>2026-08-21T20:42:18.000Z</time>
        <extensions>
          <ns3:TrackPointExtension>
            <ns3:hr>130</ns3:hr>
            <ns3:cad>42</ns3:cad>
          </ns3:TrackPointExtension>
        </extensions>
      </trkpt>
      <trkpt lat="45.327524207532405853271484375" lon="-71.00513261742889881134033203125">
        <ele>650</ele>
        <time>2026-08-21T20:42:19.000Z</time>
        <extensions>
          <ns3:TrackPointExtension>
            <ns3:hr>131</ns3:hr>
            <ns3:cad>42</ns3:cad>
          </ns3:TrackPointExtension>
        </extensions>
      </trkpt>
      <trkpt lat="45.32751850783824920654296875" lon="-71.005141250789165496826171875">
        <ele>650</ele>
        <time>2026-08-21T20:42:20.000Z</time>
        <extensions>
          <ns3:TrackPointExtension>
            <ns3:hr>130</ns3:hr>
            <ns3:cad>43</ns3:cad>
          </ns3:TrackPointExtension>
        </extensions>
      </trkpt>
      <trkpt lat="45.3275097906589508056640625" lon="-71.005152650177478790283203125">
        <ele>650.20001220703125</ele>
        <time>2026-08-21T20:42:21.000Z</time>
        <extensions>
          <ns3:TrackPointExtension>
            <ns3:hr>130</ns3:hr>
            <ns3:cad>43</ns3:cad>
          </ns3:TrackPointExtension>
        </extensions>
      </trkpt>
      <trkpt lat="45.32750199548900127410888671875" lon="-71.00516371428966522216796875">
        <ele>650.20001220703125</ele>
        <time>2026-08-21T20:42:22.000Z</time>
        <extensions>
          <ns3:TrackPointExtension>
            <ns3:hr>130</ns3:hr>
            <ns3:cad>43</ns3:cad>
          </ns3:TrackPointExtension>
        </extensions>
      </trkpt>
      <trkpt lat="45.3274965472519397735595703125" lon="-71.00516983307898044586181640625">
        <ele>650.4000244140625</ele>
        <time>2026-08-21T20:42:23.000Z</time>
        <extensions>
          <ns3:TrackPointExtension>
            <ns3:hr>131</ns3:hr>
            <ns3:cad>43</ns3:cad>
          </ns3:TrackPointExtension>
        </extensions>
      </trkpt>
      <trkpt lat="45.32749193720519542694091796875" lon="-71.00517469458281993865966796875">
        <ele>650.4000244140625</ele>
        <time>2026-08-21T20:42:24.000Z</time>
        <extensions>
          <ns3:TrackPointExtension>
            <ns3:hr>131</ns3:hr>
            <ns3:cad>53</ns3:cad>
          </ns3:TrackPointExtension>
        </extensions>
      </trkpt>
      <trkpt lat="45.32748271711170673370361328125" lon="-71.00518492050468921661376953125">
        <ele>650.4000244140625</ele>
        <time>2026-08-21T20:42:25.000Z</time>
        <extensions>
          <ns3:TrackPointExtension>
            <ns3:hr>131</ns3:hr>
            <ns3:cad>0</ns3:cad>
          </ns3:TrackPointExtension>
        </extensions>
      </trkpt>
      <trkpt lat="45.32747517339885234832763671875" lon="-71.00519455969333648681640625">
        <ele>650.4000244140625</ele>
        <time>2026-08-21T20:42:26.000Z</time>
        <extensions>
          <ns3:TrackPointExtension>
            <ns3:hr>131</ns3:hr>
            <ns3:cad>0</ns3:cad>
          </ns3:TrackPointExtension>
        </extensions>
      </trkpt>
      <trkpt lat="45.327468216419219970703125" lon="-71.00520067848265171051025390625">
        <ele>650.4000244140625</ele>
        <time>2026-08-21T20:42:27.000Z</time>
        <extensions>
          <ns3:TrackPointExtension>
            <ns3:hr>131</ns3:hr>
            <ns3:cad>47</ns3:cad>
          </ns3:TrackPointExtension>
        </extensions>
      </trkpt>
      <trkpt lat="45.32746176235377788543701171875" lon="-71.005205623805522918701171875">
        <ele>650.4000244140625</ele>
        <time>2026-08-21T20:42:28.000Z</time>
        <extensions>
          <ns3:TrackPointExtension>
            <ns3:hr>132</ns3:hr>
            <ns3:cad>47</ns3:cad>
          </ns3:TrackPointExtension>
        </extensions>
      </trkpt>
      <trkpt lat="45.32745639793574810028076171875" lon="-71.00520788691937923431396484375">
        <ele>650.5999755859375</ele>
        <time>2026-08-21T20:42:29.000Z</time>
        <extensions>
          <ns3:TrackPointExtension>
            <ns3:hr>132</ns3:hr>
            <ns3:cad>44</ns3:cad>
          </ns3:TrackPointExtension>
        </extensions>
      </trkpt>
      <trkpt lat="45.32744851894676685333251953125" lon="-71.00521358661353588104248046875">
        <ele>650.5999755859375</ele>
        <time>2026-08-21T20:42:30.000Z</time>
        <extensions>
          <ns3:TrackPointExtension>
            <ns3:hr>132</ns3:hr>
            <ns3:cad>44</ns3:cad>
          </ns3:TrackPointExtension>
        </extensions>
      </trkpt>
      <trkpt lat="45.3274400532245635986328125" lon="-71.00521693937480449676513671875">
        <ele>650.79998779296875</ele>
        <time>2026-08-21T20:42:31.000Z</time>
        <extensions>
          <ns3:TrackPointExtension>
            <ns3:hr>132</ns3:hr>
            <ns3:cad>44</ns3:cad>
          </ns3:TrackPointExtension>
        </extensions>
      </trkpt>
      <trkpt lat="45.3274318389594554901123046875" lon="-71.00521978922188282012939453125">
        <ele>651</ele>
        <time>2026-08-21T20:42:32.000Z</time>
        <extensions>
          <ns3:TrackPointExtension>
            <ns3:hr>132</ns3:hr>
            <ns3:cad>44</ns3:cad>
          </ns3:TrackPointExtension>
        </extensions>
      </trkpt>
      <trkpt lat="45.3274244628846645355224609375" lon="-71.00522448308765888214111328125">
        <ele>651.20001220703125</ele>
        <time>2026-08-21T20:42:33.000Z</time>
        <extensions>
          <ns3:TrackPointExtension>
            <ns3:hr>132</ns3:hr>
            <ns3:cad>44</ns3:cad>
          </ns3:TrackPointExtension>
        </extensions>
      </trkpt>
      <trkpt lat="45.32741784118115901947021484375" lon="-71.00522515363991260528564453125">
        <ele>651.4000244140625</ele>
        <time>2026-08-21T20:42:34.000Z</time>
        <extensions>
          <ns3:TrackPointExtension>
            <ns3:hr>132</ns3:hr>
            <ns3:cad>42</ns3:cad>
          </ns3:TrackPointExtension>
        </extensions>
      </trkpt>
      <trkpt lat="45.32740996219217777252197265625" lon="-71.00522615946829319000244140625">
        <ele>651.5999755859375</ele>
        <time>2026-08-21T20:42:35.000Z</time>
        <extensions>
          <ns3:TrackPointExtension>
            <ns3:hr>132</ns3:hr>
            <ns3:cad>42</ns3:cad>
          </ns3:TrackPointExtension>
        </extensions>
      </trkpt>
      <trkpt lat="45.32740141265094280242919921875" lon="-71.005225740373134613037109375">
        <ele>651.5999755859375</ele>
        <time>2026-08-21T20:42:36.000Z</time>
        <extensions>
          <ns3:TrackPointExtension>
            <ns3:hr>132</ns3:hr>
            <ns3:cad>42</ns3:cad>
          </ns3:TrackPointExtension>
        </extensions>
      </trkpt>
      <trkpt lat="45.32739512622356414794921875" lon="-71.0052245669066905975341796875">
        <ele>651.79998779296875</ele>
        <time>2026-08-21T20:42:37.000Z</time>
        <extensions>
          <ns3:TrackPointExtension>
            <ns3:hr>133</ns3:hr>
            <ns3:cad>42</ns3:cad>
          </ns3:TrackPointExtension>
        </extensions>
      </trkpt>
      <trkpt lat="45.32739110291004180908203125" lon="-71.00522196851670742034912109375">
        <ele>652</ele>
        <time>2026-08-21T20:42:38.000Z</time>
        <extensions>
          <ns3:TrackPointExtension>
            <ns3:hr>132</ns3:hr>
            <ns3:cad>42</ns3:cad>
          </ns3:TrackPointExtension>
        </extensions>
      </trkpt>
      <trkpt lat="45.32738397829234600067138671875" lon="-71.00521677173674106597900390625">
        <ele>652.20001220703125</ele>
        <time>2026-08-21T20:42:39.000Z</time>
        <extensions>
          <ns3:TrackPointExtension>
            <ns3:hr>132</ns3:hr>
            <ns3:cad>42</ns3:cad>
          </ns3:TrackPointExtension>
        </extensions>
      </trkpt>
      <trkpt lat="45.32737492583692073822021484375" lon="-71.00521962158381938934326171875">
        <ele>652.4000244140625</ele>
        <time>2026-08-21T20:42:40.000Z</time>
        <extensions>
          <ns3:TrackPointExtension>
            <ns3:hr>132</ns3:hr>
            <ns3:cad>44</ns3:cad>
          </ns3:TrackPointExtension>
        </extensions>
      </trkpt>
      <trkpt lat="45.3273667953908443450927734375" lon="-71.00521928630769252777099609375">
        <ele>652.4000244140625</ele>
        <time>2026-08-21T20:42:41.000Z</time>
        <extensions>
          <ns3:TrackPointExtension>
            <ns3:hr>132</ns3:hr>
            <ns3:cad>44</ns3:cad>
          </ns3:TrackPointExtension>
        </extensions>
      </trkpt>
      <trkpt lat="45.32735615037381649017333984375" lon="-71.005221046507358551025390625">
        <ele>652.5999755859375</ele>
        <time>2026-08-21T20:42:42.000Z</time>
        <extensions>
          <ns3:TrackPointExtension>
            <ns3:hr>132</ns3:hr>
            <ns3:cad>47</ns3:cad>
          </ns3:TrackPointExtension>
        </extensions>
      </trkpt>
      <trkpt lat="45.327343158423900604248046875" lon="-71.00522138178348541259765625">
        <ele>652.79998779296875</ele>
        <time>2026-08-21T20:42:43.000Z</time>
        <extensions>
          <ns3:TrackPointExtension>
            <ns3:hr>132</ns3:hr>
            <ns3:cad>47</ns3:cad>
          </ns3:TrackPointExtension>
        </extensions>
      </trkpt>
      <trkpt lat="45.32732966355979442596435546875" lon="-71.00522146560251712799072265625">
        <ele>652.79998779296875</ele>
        <time>2026-08-21T20:42:44.000Z</time>
        <extensions>
          <ns3:TrackPointExtension>
            <ns3:hr>132</ns3:hr>
            <ns3:cad>46</ns3:cad>
          </ns3:TrackPointExtension>
        </extensions>
      </trkpt>
      <trkpt lat="45.32732061110436916351318359375" lon="-71.00522599183022975921630859375">
        <ele>653</ele>
        <time>2026-08-21T20:42:45.000Z</time>
        <extensions>
          <ns3:TrackPointExtension>
            <ns3:hr>132</ns3:hr>
            <ns3:cad>46</ns3:cad>
          </ns3:TrackPointExtension>
        </extensions>
      </trkpt>
      <trkpt lat="45.32731524668633937835693359375" lon="-71.0052245669066905975341796875">
        <ele>653</ele>
        <time>2026-08-21T20:42:46.000Z</time>
        <extensions>
          <ns3:TrackPointExtension>
            <ns3:hr>131</ns3:hr>
            <ns3:cad>46</ns3:cad>
          </ns3:TrackPointExtension>
        </extensions>
      </trkpt>
      <trkpt lat="45.32731642015278339385986328125" lon="-71.00522381253540515899658203125">
        <ele>653.20001220703125</ele>
        <time>2026-08-21T20:42:47.000Z</time>
        <extensions>
          <ns3:TrackPointExtension>
            <ns3:hr>131</ns3:hr>
            <ns3:cad>46</ns3:cad>
          </ns3:TrackPointExtension>
        </extensions>
      </trkpt>
      <trkpt lat="45.327318012714385986328125" lon="-71.00522280670702457427978515625">
        <ele>653.20001220703125</ele>
        <time>2026-08-21T20:42:48.000Z</time>
        <extensions>
          <ns3:TrackPointExtension>
            <ns3:hr>131</ns3:hr>
            <ns3:cad>46</ns3:cad>
          </ns3:TrackPointExtension>
        </extensions>
      </trkpt>
      <trkpt lat="45.32732681371271610260009765625" lon="-71.00522272288799285888671875">
        <ele>653.20001220703125</ele>
        <time>2026-08-21T20:42:49.000Z</time>
        <extensions>
          <ns3:TrackPointExtension>
            <ns3:hr>131</ns3:hr>
            <ns3:cad>48</ns3:cad>
          </ns3:TrackPointExtension>
        </extensions>
      </trkpt>
      <trkpt lat="45.32733075320720672607421875" lon="-71.00521878339350223541259765625">
        <ele>653.20001220703125</ele>
        <time>2026-08-21T20:42:50.000Z</time>
        <extensions>
          <ns3:TrackPointExtension>
            <ns3:hr>132</ns3:hr>
            <ns3:cad>0</ns3:cad>
          </ns3:TrackPointExtension>
        </extensions>
      </trkpt>
      <trkpt lat="45.32733569853007793426513671875" lon="-71.00521677173674106597900390625">
        <ele>653.20001220703125</ele>
        <time>2026-08-21T20:42:51.000Z</time>
        <extensions>
          <ns3:TrackPointExtension>
            <ns3:hr>132</ns3:hr>
            <ns3:cad>0</ns3:cad>
          </ns3:TrackPointExtension>
        </extensions>
      </trkpt>
      <trkpt lat="45.327334441244602203369140625" lon="-71.00521543063223361968994140625">
        <ele>653.20001220703125</ele>
        <time>2026-08-21T20:42:52.000Z</time>
        <extensions>
          <ns3:TrackPointExtension>
            <ns3:hr>132</ns3:hr>
            <ns3:cad>0</ns3:cad>
          </ns3:TrackPointExtension>
        </extensions>
      </trkpt>
      <trkpt lat="45.327333100140094757080078125" lon="-71.00521258078515529632568359375">
        <ele>653.20001220703125</ele>
        <time>2026-08-21T20:42:53.000Z</time>
        <extensions>
          <ns3:TrackPointExtension>
            <ns3:hr>132</ns3:hr>
            <ns3:cad>0</ns3:cad>
          </ns3:TrackPointExtension>
        </extensions>
      </trkpt>
      <trkpt lat="45.327333100140094757080078125" lon="-71.00521258078515529632568359375">
        <ele>653.20001220703125</ele>
        <time>2026-08-21T20:42:54.000Z</time>
        <extensions>
          <ns3:TrackPointExtension>
            <ns3:hr>132</ns3:hr>
            <ns3:cad>0</ns3:cad>
          </ns3:TrackPointExtension>
        </extensions>
      </trkpt>
      <trkpt lat="45.327333100140094757080078125" lon="-71.00521258078515529632568359375">
        <ele>653.20001220703125</ele>
        <time>2026-08-21T20:42:55.000Z</time>
        <extensions>
          <ns3:TrackPointExtension>
            <ns3:hr>132</ns3:hr>
            <ns3:cad>0</ns3:cad>
          </ns3:TrackPointExtension>
        </extensions>
      </trkpt>
      <trkpt lat="45.327333100140094757080078125" lon="-71.00521258078515529632568359375">
        <ele>653.20001220703125</ele>
        <time>2026-08-21T20:42:56.000Z</time>
        <extensions>
          <ns3:TrackPointExtension>
            <ns3:hr>132</ns3:hr>
            <ns3:cad>0</ns3:cad>
          </ns3:TrackPointExtension>
        </extensions>
      </trkpt>
      <trkpt lat="45.327333100140094757080078125" lon="-71.00521258078515529632568359375">
        <ele>653.20001220703125</ele>
        <time>2026-08-21T20:42:57.000Z</time>
        <extensions>
          <ns3:TrackPointExtension>
            <ns3:hr>132</ns3:hr>
            <ns3:cad>0</ns3:cad>
          </ns3:TrackPointExtension>
        </extensions>
      </trkpt>
      <trkpt lat="45.327333100140094757080078125" lon="-71.00521258078515529632568359375">
        <ele>653.20001220703125</ele>
        <time>2026-08-21T20:42:58.000Z</time>
        <extensions>
          <ns3:TrackPointExtension>
            <ns3:hr>132</ns3:hr>
            <ns3:cad>0</ns3:cad>
          </ns3:TrackPointExtension>
        </extensions>
      </trkpt>
      <trkpt lat="45.3273329325020313262939453125" lon="-71.0052118264138698577880859375">
        <ele>653.20001220703125</ele>
        <time>2026-08-21T20:42:59.000Z</time>
        <extensions>
          <ns3:TrackPointExtension>
            <ns3:hr>131</ns3:hr>
            <ns3:cad>0</ns3:cad>
          </ns3:TrackPointExtension>
        </extensions>
      </trkpt>
      <trkpt lat="45.3273285739123821258544921875" lon="-71.00520671345293521881103515625">
        <ele>653.4000244140625</ele>
        <time>2026-08-21T20:43:00.000Z</time>
        <extensions>
          <ns3:TrackPointExtension>
            <ns3:hr>131</ns3:hr>
            <ns3:cad>0</ns3:cad>
          </ns3:TrackPointExtension>
        </extensions>
      </trkpt>
      <trkpt lat="45.32732195220887660980224609375" lon="-71.00520369596779346466064453125">
        <ele>653.4000244140625</ele>
        <time>2026-08-21T20:43:01.000Z</time>
        <extensions>
          <ns3:TrackPointExtension>
            <ns3:hr>130</ns3:hr>
            <ns3:cad>0</ns3:cad>
          </ns3:TrackPointExtension>
        </extensions>
      </trkpt>
      <trkpt lat="45.32732429914176464080810546875" lon="-71.00520486943423748016357421875">
        <ele>653.5999755859375</ele>
        <time>2026-08-21T20:43:02.000Z</time>
        <extensions>
          <ns3:TrackPointExtension>
            <ns3:hr>130</ns3:hr>
            <ns3:cad>0</ns3:cad>
          </ns3:TrackPointExtension>
        </extensions>
      </trkpt>
      <trkpt lat="45.327319689095020294189453125" lon="-71.005201600492000579833984375">
        <ele>653.5999755859375</ele>
        <time>2026-08-21T20:43:03.000Z</time>
        <extensions>
          <ns3:TrackPointExtension>
            <ns3:hr>129</ns3:hr>
            <ns3:cad>0</ns3:cad>
          </ns3:TrackPointExtension>
        </extensions>
      </trkpt>
      <trkpt lat="45.3273198567330837249755859375" lon="-71.00518609397113323211669921875">
        <ele>653.79998779296875</ele>
        <time>2026-08-21T20:43:04.000Z</time>
        <extensions>
          <ns3:TrackPointExtension>
            <ns3:hr>129</ns3:hr>
            <ns3:cad>0</ns3:cad>
          </ns3:TrackPointExtension>
        </extensions>
      </trkpt>
      <trkpt lat="45.32732111401855945587158203125" lon="-71.00517989136278629302978515625">
        <ele>653.79998779296875</ele>
        <time>2026-08-21T20:43:05.000Z</time>
        <extensions>
          <ns3:TrackPointExtension>
            <ns3:hr>130</ns3:hr>
            <ns3:cad>0</ns3:cad>
          </ns3:TrackPointExtension>
        </extensions>
      </trkpt>
      <trkpt lat="45.32732295803725719451904296875" lon="-71.00517310202121734619140625">
        <ele>653.79998779296875</ele>
        <time>2026-08-21T20:43:06.000Z</time>
        <extensions>
          <ns3:TrackPointExtension>
            <ns3:hr>130</ns3:hr>
            <ns3:cad>45</ns3:cad>
          </ns3:TrackPointExtension>
        </extensions>
      </trkpt>
      <trkpt lat="45.32732396386563777923583984375" lon="-71.0051643848419189453125">
        <ele>654</ele>
        <time>2026-08-21T20:43:07.000Z</time>
        <extensions>
          <ns3:TrackPointExtension>
            <ns3:hr>130</ns3:hr>
            <ns3:cad>45</ns3:cad>
          </ns3:TrackPointExtension>
        </extensions>
      </trkpt>
      <trkpt lat="45.3273238800466060638427734375" lon="-71.005155332386493682861328125">
        <ele>654</ele>
        <time>2026-08-21T20:43:08.000Z</time>
        <extensions>
          <ns3:TrackPointExtension>
            <ns3:hr>130</ns3:hr>
            <ns3:cad>45</ns3:cad>
          </ns3:TrackPointExtension>
        </extensions>
      </trkpt>
      <trkpt lat="45.32732530497014522552490234375" lon="-71.00514359772205352783203125">
        <ele>654</ele>
        <time>2026-08-21T20:43:09.000Z</time>
        <extensions>
          <ns3:TrackPointExtension>
            <ns3:hr>130</ns3:hr>
            <ns3:cad>42</ns3:cad>
          </ns3:TrackPointExtension>
        </extensions>
      </trkpt>
      <trkpt lat="45.32732564024627208709716796875" lon="-71.00512926466763019561767578125">
        <ele>654.20001220703125</ele>
        <time>2026-08-21T20:43:10.000Z</time>
        <extensions>
          <ns3:TrackPointExtension>
            <ns3:hr>130</ns3:hr>
            <ns3:cad>42</ns3:cad>
          </ns3:TrackPointExtension>
        </extensions>
      </trkpt>
      <trkpt lat="45.327325053513050079345703125" lon="-71.0051156021654605865478515625">
        <ele>654.20001220703125</ele>
        <time>2026-08-21T20:43:11.000Z</time>
        <extensions>
          <ns3:TrackPointExtension>
            <ns3:hr>129</ns3:hr>
            <ns3:cad>41</ns3:cad>
          </ns3:TrackPointExtension>
        </extensions>
      </trkpt>
      <trkpt lat="45.327323041856288909912109375" lon="-71.00511141121387481689453125">
        <ele>654.4000244140625</ele>
        <time>2026-08-21T20:43:12.000Z</time>
        <extensions>
          <ns3:TrackPointExtension>
            <ns3:hr>130</ns3:hr>
            <ns3:cad>0</ns3:cad>
          </ns3:TrackPointExtension>
        </extensions>
      </trkpt>
      <trkpt lat="45.32732446677982807159423828125" lon="-71.005105040967464447021484375">
        <ele>654.4000244140625</ele>
        <time>2026-08-21T20:43:13.000Z</time>
        <extensions>
          <ns3:TrackPointExtension>
            <ns3:hr>130</ns3:hr>
            <ns3:cad>0</ns3:cad>
          </ns3:TrackPointExtension>
        </extensions>
      </trkpt>
      <trkpt lat="45.32732748426496982574462890625" lon="-71.0051078908145427703857421875">
        <ele>654.5999755859375</ele>
        <time>2026-08-21T20:43:14.000Z</time>
        <extensions>
          <ns3:TrackPointExtension>
            <ns3:hr>130</ns3:hr>
            <ns3:cad>0</ns3:cad>
          </ns3:TrackPointExtension>
        </extensions>
      </trkpt>
      <trkpt lat="45.327325053513050079345703125" lon="-71.00510026328265666961669921875">
        <ele>654.5999755859375</ele>
        <time>2026-08-21T20:43:15.000Z</time>
        <extensions>
          <ns3:TrackPointExtension>
            <ns3:hr>130</ns3:hr>
            <ns3:cad>0</ns3:cad>
          </ns3:TrackPointExtension>
        </extensions>
      </trkpt>
      <trkpt lat="45.3273220360279083251953125" lon="-71.00509154610335826873779296875">
        <ele>654.5999755859375</ele>
        <time>2026-08-21T20:43:16.000Z</time>
        <extensions>
          <ns3:TrackPointExtension>
            <ns3:hr>130</ns3:hr>
            <ns3:cad>0</ns3:cad>
          </ns3:TrackPointExtension>
        </extensions>
      </trkpt>
      <trkpt lat="45.32732195220887660980224609375" lon="-71.00508182309567928314208984375">
        <ele>654.5999755859375</ele>
        <time>2026-08-21T20:43:17.000Z</time>
        <extensions>
          <ns3:TrackPointExtension>
            <ns3:hr>130</ns3:hr>
            <ns3:cad>0</ns3:cad>
          </ns3:TrackPointExtension>
        </extensions>
      </trkpt>
      <trkpt lat="45.3273208625614643096923828125" lon="-71.00506891496479511260986328125">
        <ele>654.5999755859375</ele>
        <time>2026-08-21T20:43:18.000Z</time>
        <extensions>
          <ns3:TrackPointExtension>
            <ns3:hr>130</ns3:hr>
            <ns3:cad>0</ns3:cad>
          </ns3:TrackPointExtension>
        </extensions>
      </trkpt>
      <trkpt lat="45.3273171745240688323974609375" lon="-71.005054078996181488037109375">
        <ele>654.79998779296875</ele>
        <time>2026-08-21T20:43:19.000Z</time>
        <extensions>
          <ns3:TrackPointExtension>
            <ns3:hr>130</ns3:hr>
            <ns3:cad>0</ns3:cad>
          </ns3:TrackPointExtension>
        </extensions>
      </trkpt>
      <trkpt lat="45.327311642467975616455078125" lon="-71.0050398297607898712158203125">
        <ele>654.79998779296875</ele>
        <time>2026-08-21T20:43:20.000Z</time>
        <extensions>
          <ns3:TrackPointExtension>
            <ns3:hr>129</ns3:hr>
            <ns3:cad>0</ns3:cad>
          </ns3:TrackPointExtension>
        </extensions>
      </trkpt>
      <trkpt lat="45.3273046016693115234375" lon="-71.00502616725862026214599609375">
        <ele>654.79998779296875</ele>
        <time>2026-08-21T20:43:21.000Z</time>
        <extensions>
          <ns3:TrackPointExtension>
            <ns3:hr>129</ns3:hr>
            <ns3:cad>44</ns3:cad>
          </ns3:TrackPointExtension>
        </extensions>
      </trkpt>
      <trkpt lat="45.3272952139377593994140625" lon="-71.0050200484693050384521484375">
        <ele>654.79998779296875</ele>
        <time>2026-08-21T20:43:22.000Z</time>
        <extensions>
          <ns3:TrackPointExtension>
            <ns3:hr>128</ns3:hr>
            <ns3:cad>43</ns3:cad>
          </ns3:TrackPointExtension>
        </extensions>
      </trkpt>
      <trkpt lat="45.32728959806263446807861328125" lon="-71.00501594133675098419189453125">
        <ele>654.79998779296875</ele>
        <time>2026-08-21T20:43:23.000Z</time>
        <extensions>
          <ns3:TrackPointExtension>
            <ns3:hr>128</ns3:hr>
            <ns3:cad>43</ns3:cad>
          </ns3:TrackPointExtension>
        </extensions>
      </trkpt>
      <trkpt lat="45.32728574238717555999755859375" lon="-71.00500605069100856781005859375">
        <ele>654.5999755859375</ele>
        <time>2026-08-21T20:43:24.000Z</time>
        <extensions>
          <ns3:TrackPointExtension>
            <ns3:hr>128</ns3:hr>
            <ns3:cad>41</ns3:cad>
          </ns3:TrackPointExtension>
        </extensions>
      </trkpt>
      <trkpt lat="45.32727970741689205169677734375" lon="-71.00499079562723636627197265625">
        <ele>654.4000244140625</ele>
        <time>2026-08-21T20:43:25.000Z</time>
        <extensions>
          <ns3:TrackPointExtension>
            <ns3:hr>128</ns3:hr>
            <ns3:cad>41</ns3:cad>
          </ns3:TrackPointExtension>
        </extensions>
      </trkpt>
      <trkpt lat="45.32727149315178394317626953125" lon="-71.0049784742295742034912109375">
        <ele>654.20001220703125</ele>
        <time>2026-08-21T20:43:26.000Z</time>
        <extensions>
          <ns3:TrackPointExtension>
            <ns3:hr>127</ns3:hr>
            <ns3:cad>53</ns3:cad>
          </ns3:TrackPointExtension>
        </extensions>
      </trkpt>
      <trkpt lat="45.3272648714482784271240234375" lon="-71.00496657192707061767578125">
        <ele>654</ele>
        <time>2026-08-21T20:43:27.000Z</time>
        <extensions>
          <ns3:TrackPointExtension>
            <ns3:hr>128</ns3:hr>
            <ns3:cad>54</ns3:cad>
          </ns3:TrackPointExtension>
        </extensions>
      </trkpt>
      <trkpt lat="45.32725171186029911041259765625" lon="-71.00495559163391590118408203125">
        <ele>653.5999755859375</ele>
        <time>2026-08-21T20:43:28.000Z</time>
        <extensions>
          <ns3:TrackPointExtension>
            <ns3:hr>128</ns3:hr>
            <ns3:cad>54</ns3:cad>
          </ns3:TrackPointExtension>
        </extensions>
      </trkpt>
      <trkpt lat="45.32723511569201946258544921875" lon="-71.00493866018950939178466796875">
        <ele>653.4000244140625</ele>
        <time>2026-08-21T20:43:29.000Z</time>
        <extensions>
          <ns3:TrackPointExtension>
            <ns3:hr>128</ns3:hr>
            <ns3:cad>54</ns3:cad>
          </ns3:TrackPointExtension>
        </extensions>
      </trkpt>
      <trkpt lat="45.32722472213208675384521484375" lon="-71.00492809899151325225830078125">
        <ele>653.4000244140625</ele>
        <time>2026-08-21T20:43:30.000Z</time>
        <extensions>
          <ns3:TrackPointExtension>
            <ns3:hr>127</ns3:hr>
            <ns3:cad>54</ns3:cad>
          </ns3:TrackPointExtension>
        </extensions>
      </trkpt>
      <trkpt lat="45.32720745541155338287353515625" lon="-71.00491837598383426666259765625">
        <ele>653.20001220703125</ele>
        <time>2026-08-21T20:43:31.000Z</time>
        <extensions>
          <ns3:TrackPointExtension>
            <ns3:hr>128</ns3:hr>
            <ns3:cad>55</ns3:cad>
          </ns3:TrackPointExtension>
        </extensions>
      </trkpt>
      <trkpt lat="45.32719303853809833526611328125" lon="-71.00491284392774105072021484375">
        <ele>653.20001220703125</ele>
        <time>2026-08-21T20:43:32.000Z</time>
        <extensions>
          <ns3:TrackPointExtension>
            <ns3:hr>128</ns3:hr>
            <ns3:cad>55</ns3:cad>
          </ns3:TrackPointExtension>
        </extensions>
      </trkpt>
      <trkpt lat="45.32717945985496044158935546875" lon="-71.00490831770002841949462890625">
        <ele>653.20001220703125</ele>
        <time>2026-08-21T20:43:33.000Z</time>
        <extensions>
          <ns3:TrackPointExtension>
            <ns3:hr>127</ns3:hr>
            <ns3:cad>55</ns3:cad>
          </ns3:TrackPointExtension>
        </extensions>
      </trkpt>
      <trkpt lat="45.32716839574277400970458984375" lon="-71.00490446202456951141357421875">
        <ele>653.20001220703125</ele>
        <time>2026-08-21T20:43:34.000Z</time>
        <extensions>
          <ns3:TrackPointExtension>
            <ns3:hr>127</ns3:hr>
            <ns3:cad>55</ns3:cad>
          </ns3:TrackPointExtension>
        </extensions>
      </trkpt>
      <trkpt lat="45.3271599300205707550048828125" lon="-71.0049016959965229034423828125">
        <ele>653.20001220703125</ele>
        <time>2026-08-21T20:43:35.000Z</time>
        <extensions>
          <ns3:TrackPointExtension>
            <ns3:hr>126</ns3:hr>
            <ns3:cad>55</ns3:cad>
          </ns3:TrackPointExtension>
        </extensions>
      </trkpt>
      <trkpt lat="45.32715347595512866973876953125" lon="-71.004895158112049102783203125">
        <ele>653.20001220703125</ele>
        <time>2026-08-21T20:43:36.000Z</time>
        <extensions>
          <ns3:TrackPointExtension>
            <ns3:hr>126</ns3:hr>
            <ns3:cad>56</ns3:cad>
          </ns3:TrackPointExtension>
        </extensions>
      </trkpt>
      <trkpt lat="45.3271476924419403076171875" lon="-71.00488501600921154022216796875">
        <ele>653.20001220703125</ele>
        <time>2026-08-21T20:43:37.000Z</time>
        <extensions>
          <ns3:TrackPointExtension>
            <ns3:hr>126</ns3:hr>
            <ns3:cad>55</ns3:cad>
          </ns3:TrackPointExtension>
        </extensions>
      </trkpt>
      <trkpt lat="45.32714576460421085357666015625" lon="-71.004872359335422515869140625">
        <ele>653</ele>
        <time>2026-08-21T20:43:38.000Z</time>
        <extensions>
          <ns3:TrackPointExtension>
            <ns3:hr>126</ns3:hr>
            <ns3:cad>55</ns3:cad>
          </ns3:TrackPointExtension>
        </extensions>
      </trkpt>
      <trkpt lat="45.3271445073187351226806640625" lon="-71.00486288778483867645263671875">
        <ele>653</ele>
        <time>2026-08-21T20:43:39.000Z</time>
        <extensions>
          <ns3:TrackPointExtension>
            <ns3:hr>126</ns3:hr>
            <ns3:cad>52</ns3:cad>
          </ns3:TrackPointExtension>
        </extensions>
      </trkpt>
      <trkpt lat="45.327141992747783660888671875" lon="-71.0048519074916839599609375">
        <ele>653</ele>
        <time>2026-08-21T20:43:40.000Z</time>
        <extensions>
          <ns3:TrackPointExtension>
            <ns3:hr>126</ns3:hr>
            <ns3:cad>52</ns3:cad>
          </ns3:TrackPointExtension>
        </extensions>
      </trkpt>
      <trkpt lat="45.3271404840052127838134765625" lon="-71.00484075956046581268310546875">
        <ele>653</ele>
        <time>2026-08-21T20:43:41.000Z</time>
        <extensions>
          <ns3:TrackPointExtension>
            <ns3:hr>126</ns3:hr>
            <ns3:cad>51</ns3:cad>
          </ns3:TrackPointExtension>
        </extensions>
      </trkpt>
      <trkpt lat="45.32713855616748332977294921875" lon="-71.00482634268701076507568359375">
        <ele>653</ele>
        <time>2026-08-21T20:43:42.000Z</time>
        <extensions>
          <ns3:TrackPointExtension>
            <ns3:hr>125</ns3:hr>
            <ns3:cad>51</ns3:cad>
          </ns3:TrackPointExtension>
        </extensions>
      </trkpt>
      <trkpt lat="45.3271367959678173065185546875" lon="-71.00481502711772918701171875">
        <ele>653</ele>
        <time>2026-08-21T20:43:43.000Z</time>
        <extensions>
          <ns3:TrackPointExtension>
            <ns3:hr>123</ns3:hr>
            <ns3:cad>51</ns3:cad>
          </ns3:TrackPointExtension>
        </extensions>
      </trkpt>
      <trkpt lat="45.32713620923459529876708984375" lon="-71.00479616783559322357177734375">
        <ele>653</ele>
        <time>2026-08-21T20:43:44.000Z</time>
        <extensions>
          <ns3:TrackPointExtension>
            <ns3:hr>121</ns3:hr>
            <ns3:cad>51</ns3:cad>
          </ns3:TrackPointExtension>
        </extensions>
      </trkpt>
      <trkpt lat="45.3271357901394367218017578125" lon="-71.00478057749569416046142578125">
        <ele>653.20001220703125</ele>
        <time>2026-08-21T20:43:45.000Z</time>
        <extensions>
          <ns3:TrackPointExtension>
            <ns3:hr>119</ns3:hr>
            <ns3:cad>51</ns3:cad>
          </ns3:TrackPointExtension>
        </extensions>
      </trkpt>
      <trkpt lat="45.3271342813968658447265625" lon="-71.004760377109050750732421875">
        <ele>653.20001220703125</ele>
        <time>2026-08-21T20:43:46.000Z</time>
        <extensions>
          <ns3:TrackPointExtension>
            <ns3:hr>119</ns3:hr>
            <ns3:cad>51</ns3:cad>
          </ns3:TrackPointExtension>
        </extensions>
      </trkpt>
      <trkpt lat="45.3271307609975337982177734375" lon="-71.004744954407215118408203125">
        <ele>653.20001220703125</ele>
        <time>2026-08-21T20:43:47.000Z</time>
        <extensions>
          <ns3:TrackPointExtension>
            <ns3:hr>119</ns3:hr>
            <ns3:cad>51</ns3:cad>
          </ns3:TrackPointExtension>
        </extensions>
      </trkpt>
      <trkpt lat="45.327127911150455474853515625" lon="-71.0047310404479503631591796875">
        <ele>653.20001220703125</ele>
        <time>2026-08-21T20:43:48.000Z</time>
        <extensions>
          <ns3:TrackPointExtension>
            <ns3:hr>119</ns3:hr>
            <ns3:cad>51</ns3:cad>
          </ns3:TrackPointExtension>
        </extensions>
      </trkpt>
      <trkpt lat="45.32712548039853572845458984375" lon="-71.0047082416713237762451171875">
        <ele>653.20001220703125</ele>
        <time>2026-08-21T20:43:49.000Z</time>
        <extensions>
          <ns3:TrackPointExtension>
            <ns3:hr>120</ns3:hr>
            <ns3:cad>51</ns3:cad>
          </ns3:TrackPointExtension>
        </extensions>
      </trkpt>
      <trkpt lat="45.3271277435123920440673828125" lon="-71.00469038821756839752197265625">
        <ele>653.20001220703125</ele>
        <time>2026-08-21T20:43:50.000Z</time>
        <extensions>
          <ns3:TrackPointExtension>
            <ns3:hr>119</ns3:hr>
            <ns3:cad>51</ns3:cad>
          </ns3:TrackPointExtension>
        </extensions>
      </trkpt>
      <trkpt lat="45.32713084481656551361083984375" lon="-71.0046730376780033111572265625">
        <ele>653.20001220703125</ele>
        <time>2026-08-21T20:43:51.000Z</time>
        <extensions>
          <ns3:TrackPointExtension>
            <ns3:hr>118</ns3:hr>
            <ns3:cad>79</ns3:cad>
          </ns3:TrackPointExtension>
        </extensions>
      </trkpt>
      <trkpt lat="45.32713235355913639068603515625" lon="-71.0046587884426116943359375">
        <ele>653</ele>
        <time>2026-08-21T20:43:52.000Z</time>
        <extensions>
          <ns3:TrackPointExtension>
            <ns3:hr>118</ns3:hr>
            <ns3:cad>79</ns3:cad>
          </ns3:TrackPointExtension>
        </extensions>
      </trkpt>
      <trkpt lat="45.32713302411139011383056640625" lon="-71.0046455450356006622314453125">
        <ele>652.79998779296875</ele>
        <time>2026-08-21T20:43:53.000Z</time>
        <extensions>
          <ns3:TrackPointExtension>
            <ns3:hr>118</ns3:hr>
            <ns3:cad>57</ns3:cad>
          </ns3:TrackPointExtension>
        </extensions>
      </trkpt>
      <trkpt lat="45.3271364606916904449462890625" lon="-71.0046277754008769989013671875">
        <ele>652.79998779296875</ele>
        <time>2026-08-21T20:43:54.000Z</time>
        <extensions>
          <ns3:TrackPointExtension>
            <ns3:hr>118</ns3:hr>
            <ns3:cad>57</ns3:cad>
          </ns3:TrackPointExtension>
        </extensions>
      </trkpt>
      <trkpt lat="45.32713972963392734527587890625" lon="-71.004610173404216766357421875">
        <ele>652.79998779296875</ele>
        <time>2026-08-21T20:43:55.000Z</time>
        <extensions>
          <ns3:TrackPointExtension>
            <ns3:hr>118</ns3:hr>
            <ns3:cad>57</ns3:cad>
          </ns3:TrackPointExtension>
        </extensions>
      </trkpt>
      <trkpt lat="45.32714291475713253021240234375" lon="-71.0045929066836833953857421875">
        <ele>652.5999755859375</ele>
        <time>2026-08-21T20:43:56.000Z</time>
        <extensions>
          <ns3:TrackPointExtension>
            <ns3:hr>118</ns3:hr>
            <ns3:cad>57</ns3:cad>
          </ns3:TrackPointExtension>
        </extensions>
      </trkpt>
      <trkpt lat="45.3271476924419403076171875" lon="-71.00457966327667236328125">
        <ele>652.5999755859375</ele>
        <time>2026-08-21T20:43:57.000Z</time>
        <extensions>
          <ns3:TrackPointExtension>
            <ns3:hr>117</ns3:hr>
            <ns3:cad>57</ns3:cad>
          </ns3:TrackPointExtension>
        </extensions>
      </trkpt>
      <trkpt lat="45.32715397886931896209716796875" lon="-71.00456683896481990814208984375">
        <ele>652.5999755859375</ele>
        <time>2026-08-21T20:43:58.000Z</time>
        <extensions>
          <ns3:TrackPointExtension>
            <ns3:hr>118</ns3:hr>
            <ns3:cad>53</ns3:cad>
          </ns3:TrackPointExtension>
        </extensions>
      </trkpt>
      <trkpt lat="45.32716034911572933197021484375" lon="-71.00455376319587230682373046875">
        <ele>652.4000244140625</ele>
        <time>2026-08-21T20:43:59.000Z</time>
        <extensions>
          <ns3:TrackPointExtension>
            <ns3:hr>118</ns3:hr>
            <ns3:cad>55</ns3:cad>
          </ns3:TrackPointExtension>
        </extensions>
      </trkpt>
      <trkpt lat="45.3271659649908542633056640625" lon="-71.0045473091304302215576171875">
        <ele>652.4000244140625</ele>
        <time>2026-08-21T20:44:00.000Z</time>
        <extensions>
          <ns3:TrackPointExtension>
            <ns3:hr>118</ns3:hr>
            <ns3:cad>55</ns3:cad>
          </ns3:TrackPointExtension>
        </extensions>
      </trkpt>
      <trkpt lat="45.3271686471998691558837890625" lon="-71.0045375861227512359619140625">
        <ele>652.20001220703125</ele>
        <time>2026-08-21T20:44:01.000Z</time>
        <extensions>
          <ns3:TrackPointExtension>
            <ns3:hr>119</ns3:hr>
            <ns3:cad>55</ns3:cad>
          </ns3:TrackPointExtension>
        </extensions>
      </trkpt>
      <trkpt lat="45.3271713294088840484619140625" lon="-71.004523001611232757568359375">
        <ele>652.20001220703125</ele>
        <time>2026-08-21T20:44:02.000Z</time>
        <extensions>
          <ns3:TrackPointExtension>
            <ns3:hr>119</ns3:hr>
            <ns3:cad>55</ns3:cad>
          </ns3:TrackPointExtension>
        </extensions>
      </trkpt>
      <trkpt lat="45.327173173427581787109375" lon="-71.00450900383293628692626953125">
        <ele>652.20001220703125</ele>
        <time>2026-08-21T20:44:03.000Z</time>
        <extensions>
          <ns3:TrackPointExtension>
            <ns3:hr>119</ns3:hr>
            <ns3:cad>55</ns3:cad>
          </ns3:TrackPointExtension>
        </extensions>
      </trkpt>
      <trkpt lat="45.327176861464977264404296875" lon="-71.00449760444462299346923828125">
        <ele>652.20001220703125</ele>
        <time>2026-08-21T20:44:04.000Z</time>
        <extensions>
          <ns3:TrackPointExtension>
            <ns3:hr>119</ns3:hr>
            <ns3:cad>55</ns3:cad>
          </ns3:TrackPointExtension>
        </extensions>
      </trkpt>
      <trkpt lat="45.32718247734010219573974609375" lon="-71.0044898092746734619140625">
        <ele>652.20001220703125</ele>
        <time>2026-08-21T20:44:05.000Z</time>
        <extensions>
          <ns3:TrackPointExtension>
            <ns3:hr>120</ns3:hr>
            <ns3:cad>55</ns3:cad>
          </ns3:TrackPointExtension>
        </extensions>
      </trkpt>
      <trkpt lat="45.32718700356781482696533203125" lon="-71.00448017008602619171142578125">
        <ele>652.20001220703125</ele>
        <time>2026-08-21T20:44:06.000Z</time>
        <extensions>
          <ns3:TrackPointExtension>
            <ns3:hr>120</ns3:hr>
            <ns3:cad>55</ns3:cad>
          </ns3:TrackPointExtension>
        </extensions>
      </trkpt>
      <trkpt lat="45.32719555310904979705810546875" lon="-71.0044661723077297210693359375">
        <ele>652.4000244140625</ele>
        <time>2026-08-21T20:44:07.000Z</time>
        <extensions>
          <ns3:TrackPointExtension>
            <ns3:hr>119</ns3:hr>
            <ns3:cad>55</ns3:cad>
          </ns3:TrackPointExtension>
        </extensions>
      </trkpt>
      <trkpt lat="45.32720427028834819793701171875" lon="-71.00445519201457500457763671875">
        <ele>652.5999755859375</ele>
        <time>2026-08-21T20:44:08.000Z</time>
        <extensions>
          <ns3:TrackPointExtension>
            <ns3:hr>118</ns3:hr>
            <ns3:cad>51</ns3:cad>
          </ns3:TrackPointExtension>
        </extensions>
      </trkpt>
      <trkpt lat="45.32721340656280517578125" lon="-71.00444831885397434234619140625">
        <ele>652.79998779296875</ele>
        <time>2026-08-21T20:44:09.000Z</time>
        <extensions>
          <ns3:TrackPointExtension>
            <ns3:hr>118</ns3:hr>
            <ns3:cad>51</ns3:cad>
          </ns3:TrackPointExtension>
        </extensions>
      </trkpt>
      <trkpt lat="45.3272256441414356231689453125" lon="-71.00444965995848178863525390625">
        <ele>652.79998779296875</ele>
        <time>2026-08-21T20:44:10.000Z</time>
        <extensions>
          <ns3:TrackPointExtension>
            <ns3:hr>118</ns3:hr>
            <ns3:cad>51</ns3:cad>
          </ns3:TrackPointExtension>
        </extensions>
      </trkpt>
      <trkpt lat="45.327236540615558624267578125" lon="-71.00444488227367401123046875">
        <ele>652.79998779296875</ele>
        <time>2026-08-21T20:44:11.000Z</time>
        <extensions>
          <ns3:TrackPointExtension>
            <ns3:hr>118</ns3:hr>
            <ns3:cad>53</ns3:cad>
          </ns3:TrackPointExtension>
        </extensions>
      </trkpt>
      <trkpt lat="45.3272477723658084869384765625" lon="-71.00443826057016849517822265625">
        <ele>652.79998779296875</ele>
        <time>2026-08-21T20:44:12.000Z</time>
        <extensions>
          <ns3:TrackPointExtension>
            <ns3:hr>118</ns3:hr>
            <ns3:cad>53</ns3:cad>
          </ns3:TrackPointExtension>
        </extensions>
      </trkpt>
      <trkpt lat="45.3272642008960247039794921875" lon="-71.004431806504726409912109375">
        <ele>652.79998779296875</ele>
        <time>2026-08-21T20:44:13.000Z</time>
        <extensions>
          <ns3:TrackPointExtension>
            <ns3:hr>118</ns3:hr>
            <ns3:cad>53</ns3:cad>
          </ns3:TrackPointExtension>
        </extensions>
      </trkpt>
      <trkpt lat="45.327275097370147705078125" lon="-71.00442619062960147857666015625">
        <ele>652.79998779296875</ele>
        <time>2026-08-21T20:44:14.000Z</time>
        <extensions>
          <ns3:TrackPointExtension>
            <ns3:hr>118</ns3:hr>
            <ns3:cad>53</ns3:cad>
          </ns3:TrackPointExtension>
        </extensions>
      </trkpt>
      <trkpt lat="45.32728456892073154449462890625" lon="-71.00442049093544483184814453125">
        <ele>652.79998779296875</ele>
        <time>2026-08-21T20:44:15.000Z</time>
        <extensions>
          <ns3:TrackPointExtension>
            <ns3:hr>117</ns3:hr>
            <ns3:cad>53</ns3:cad>
          </ns3:TrackPointExtension>
        </extensions>
      </trkpt>
      <trkpt lat="45.32729479484260082244873046875" lon="-71.00441462360322475433349609375">
        <ele>652.79998779296875</ele>
        <time>2026-08-21T20:44:16.000Z</time>
        <extensions>
          <ns3:TrackPointExtension>
            <ns3:hr>118</ns3:hr>
            <ns3:cad>51</ns3:cad>
          </ns3:TrackPointExtension>
        </extensions>
      </trkpt>
      <trkpt lat="45.3273057751357555389404296875" lon="-71.0044115222990512847900390625">
        <ele>652.5999755859375</ele>
        <time>2026-08-21T20:44:17.000Z</time>
        <extensions>
          <ns3:TrackPointExtension>
            <ns3:hr>119</ns3:hr>
            <ns3:cad>51</ns3:cad>
          </ns3:TrackPointExtension>
        </extensions>
      </trkpt>
      <trkpt lat="45.3273144923150539398193359375" lon="-71.00441135466098785400390625">
        <ele>652.5999755859375</ele>
        <time>2026-08-21T20:44:18.000Z</time>
        <extensions>
          <ns3:TrackPointExtension>
            <ns3:hr>119</ns3:hr>
            <ns3:cad>53</ns3:cad>
          </ns3:TrackPointExtension>
        </extensions>
      </trkpt>
      <trkpt lat="45.3273265622556209564208984375" lon="-71.00440808571875095367431640625">
        <ele>652.5999755859375</ele>
        <time>2026-08-21T20:44:19.000Z</time>
        <extensions>
          <ns3:TrackPointExtension>
            <ns3:hr>119</ns3:hr>
            <ns3:cad>53</ns3:cad>
          </ns3:TrackPointExtension>
        </extensions>
      </trkpt>
      <trkpt lat="45.32733670435845851898193359375" lon="-71.00440640933811664581298828125">
        <ele>652.5999755859375</ele>
        <time>2026-08-21T20:44:20.000Z</time>
        <extensions>
          <ns3:TrackPointExtension>
            <ns3:hr>119</ns3:hr>
            <ns3:cad>53</ns3:cad>
          </ns3:TrackPointExtension>
        </extensions>
      </trkpt>
      <trkpt lat="45.327348522841930389404296875" lon="-71.00440707989037036895751953125">
        <ele>652.5999755859375</ele>
        <time>2026-08-21T20:44:21.000Z</time>
        <extensions>
          <ns3:TrackPointExtension>
            <ns3:hr>119</ns3:hr>
            <ns3:cad>52</ns3:cad>
          </ns3:TrackPointExtension>
        </extensions>
      </trkpt>
      <trkpt lat="45.327361933887004852294921875" lon="-71.0044115222990512847900390625">
        <ele>652.4000244140625</ele>
        <time>2026-08-21T20:44:22.000Z</time>
        <extensions>
          <ns3:TrackPointExtension>
            <ns3:hr>119</ns3:hr>
            <ns3:cad>52</ns3:cad>
          </ns3:TrackPointExtension>
        </extensions>
      </trkpt>
      <trkpt lat="45.327375344932079315185546875" lon="-71.00440858863294124603271484375">
        <ele>652.20001220703125</ele>
        <time>2026-08-21T20:44:23.000Z</time>
        <extensions>
          <ns3:TrackPointExtension>
            <ns3:hr>119</ns3:hr>
            <ns3:cad>53</ns3:cad>
          </ns3:TrackPointExtension>
        </extensions>
      </trkpt>
      <trkpt lat="45.3273869119584560394287109375" lon="-71.00440490059554576873779296875">
        <ele>652.20001220703125</ele>
        <time>2026-08-21T20:44:24.000Z</time>
        <extensions>
          <ns3:TrackPointExtension>
            <ns3:hr>120</ns3:hr>
            <ns3:cad>53</ns3:cad>
          </ns3:TrackPointExtension>
        </extensions>
      </trkpt>
      <trkpt lat="45.32739571295678615570068359375" lon="-71.0044021345674991607666015625">
        <ele>652.20001220703125</ele>
        <time>2026-08-21T20:44:25.000Z</time>
        <extensions>
          <ns3:TrackPointExtension>
            <ns3:hr>120</ns3:hr>
            <ns3:cad>53</ns3:cad>
          </ns3:TrackPointExtension>
        </extensions>
      </trkpt>
      <trkpt lat="45.32741390168666839599609375" lon="-71.00438847206532955169677734375">
        <ele>652.20001220703125</ele>
        <time>2026-08-21T20:44:26.000Z</time>
        <extensions>
          <ns3:TrackPointExtension>
            <ns3:hr>120</ns3:hr>
            <ns3:cad>55</ns3:cad>
          </ns3:TrackPointExtension>
        </extensions>
      </trkpt>
      <trkpt lat="45.32742421142756938934326171875" lon="-71.004365421831607818603515625">
        <ele>652.20001220703125</ele>
        <time>2026-08-21T20:44:27.000Z</time>
        <extensions>
          <ns3:TrackPointExtension>
            <ns3:hr>121</ns3:hr>
            <ns3:cad>55</ns3:cad>
          </ns3:TrackPointExtension>
        </extensions>
      </trkpt>
      <trkpt lat="45.32743133604526519775390625" lon="-71.0043407790362834930419921875">
        <ele>652.20001220703125</ele>
        <time>2026-08-21T20:44:28.000Z</time>
        <extensions>
          <ns3:TrackPointExtension>
            <ns3:hr>121</ns3:hr>
            <ns3:cad>53</ns3:cad>
          </ns3:TrackPointExtension>
        </extensions>
      </trkpt>
      <trkpt lat="45.32743192277848720550537109375" lon="-71.00432217121124267578125">
        <ele>652.4000244140625</ele>
        <time>2026-08-21T20:44:29.000Z</time>
        <extensions>
          <ns3:TrackPointExtension>
            <ns3:hr>121</ns3:hr>
            <ns3:cad>53</ns3:cad>
          </ns3:TrackPointExtension>
        </extensions>
      </trkpt>
      <trkpt lat="45.3274318389594554901123046875" lon="-71.00430431775748729705810546875">
        <ele>652.4000244140625</ele>
        <time>2026-08-21T20:44:30.000Z</time>
        <extensions>
          <ns3:TrackPointExtension>
            <ns3:hr>121</ns3:hr>
            <ns3:cad>53</ns3:cad>
          </ns3:TrackPointExtension>
        </extensions>
      </trkpt>
      <trkpt lat="45.3274311684072017669677734375" lon="-71.0042911581695079803466796875">
        <ele>652.5999755859375</ele>
        <time>2026-08-21T20:44:31.000Z</time>
        <extensions>
          <ns3:TrackPointExtension>
            <ns3:hr>121</ns3:hr>
            <ns3:cad>53</ns3:cad>
          </ns3:TrackPointExtension>
        </extensions>
      </trkpt>
      <trkpt lat="45.327431671321392059326171875" lon="-71.0042737238109111785888671875">
        <ele>652.79998779296875</ele>
        <time>2026-08-21T20:44:32.000Z</time>
        <extensions>
          <ns3:TrackPointExtension>
            <ns3:hr>120</ns3:hr>
            <ns3:cad>53</ns3:cad>
          </ns3:TrackPointExtension>
        </extensions>
      </trkpt>
      <trkpt lat="45.32743192277848720550537109375" lon="-71.0042606480419635772705078125">
        <ele>653</ele>
        <time>2026-08-21T20:44:33.000Z</time>
        <extensions>
          <ns3:TrackPointExtension>
            <ns3:hr>120</ns3:hr>
            <ns3:cad>53</ns3:cad>
          </ns3:TrackPointExtension>
        </extensions>
      </trkpt>
      <trkpt lat="45.32742890529334545135498046875" lon="-71.00425067357718944549560546875">
        <ele>653.20001220703125</ele>
        <time>2026-08-21T20:44:34.000Z</time>
        <extensions>
          <ns3:TrackPointExtension>
            <ns3:hr>120</ns3:hr>
            <ns3:cad>0</ns3:cad>
          </ns3:TrackPointExtension>
        </extensions>
      </trkpt>
      <trkpt lat="45.327425301074981689453125" lon="-71.00423634052276611328125">
        <ele>653.5999755859375</ele>
        <time>2026-08-21T20:44:35.000Z</time>
        <extensions>
          <ns3:TrackPointExtension>
            <ns3:hr>120</ns3:hr>
            <ns3:cad>0</ns3:cad>
          </ns3:TrackPointExtension>
        </extensions>
      </trkpt>
      <trkpt lat="45.327424965798854827880859375" lon="-71.0042291320860385894775390625">
        <ele>653.79998779296875</ele>
        <time>2026-08-21T20:44:36.000Z</time>
        <extensions>
          <ns3:TrackPointExtension>
            <ns3:hr>120</ns3:hr>
            <ns3:cad>48</ns3:cad>
          </ns3:TrackPointExtension>
        </extensions>
      </trkpt>
      <trkpt lat="45.3274211101233959197998046875" lon="-71.00420926697552204132080078125">
        <ele>654.20001220703125</ele>
        <time>2026-08-21T20:44:37.000Z</time>
        <extensions>
          <ns3:TrackPointExtension>
            <ns3:hr>120</ns3:hr>
            <ns3:cad>48</ns3:cad>
          </ns3:TrackPointExtension>
        </extensions>
      </trkpt>
      <trkpt lat="45.32742253504693508148193359375" lon="-71.00419082678854465484619140625">
        <ele>654.4000244140625</ele>
        <time>2026-08-21T20:44:38.000Z</time>
        <extensions>
          <ns3:TrackPointExtension>
            <ns3:hr>120</ns3:hr>
            <ns3:cad>48</ns3:cad>
          </ns3:TrackPointExtension>
        </extensions>
      </trkpt>
      <trkpt lat="45.32742253504693508148193359375" lon="-71.00417532026767730712890625">
        <ele>654.5999755859375</ele>
        <time>2026-08-21T20:44:39.000Z</time>
        <extensions>
          <ns3:TrackPointExtension>
            <ns3:hr>121</ns3:hr>
            <ns3:cad>48</ns3:cad>
          </ns3:TrackPointExtension>
        </extensions>
      </trkpt>
      <trkpt lat="45.3274190984666347503662109375" lon="-71.00416249595582485198974609375">
        <ele>654.79998779296875</ele>
        <time>2026-08-21T20:44:40.000Z</time>
        <extensions>
          <ns3:TrackPointExtension>
            <ns3:hr>121</ns3:hr>
            <ns3:cad>48</ns3:cad>
          </ns3:TrackPointExtension>
        </extensions>
      </trkpt>
      <trkpt lat="45.32741331495344638824462890625" lon="-71.0041503421962261199951171875">
        <ele>654.79998779296875</ele>
        <time>2026-08-21T20:44:41.000Z</time>
        <extensions>
          <ns3:TrackPointExtension>
            <ns3:hr>122</ns3:hr>
            <ns3:cad>48</ns3:cad>
          </ns3:TrackPointExtension>
        </extensions>
      </trkpt>
      <trkpt lat="45.32740845344960689544677734375" lon="-71.00413433276116847991943359375">
        <ele>655</ele>
        <time>2026-08-21T20:44:42.000Z</time>
        <extensions>
          <ns3:TrackPointExtension>
            <ns3:hr>122</ns3:hr>
            <ns3:cad>48</ns3:cad>
          </ns3:TrackPointExtension>
        </extensions>
      </trkpt>
      <trkpt lat="45.32740459777414798736572265625" lon="-71.00412041880190372467041015625">
        <ele>655</ele>
        <time>2026-08-21T20:44:43.000Z</time>
        <extensions>
          <ns3:TrackPointExtension>
            <ns3:hr>122</ns3:hr>
            <ns3:cad>50</ns3:cad>
          </ns3:TrackPointExtension>
        </extensions>
      </trkpt>
      <trkpt lat="45.3274046815931797027587890625" lon="-71.00410650484263896942138671875">
        <ele>655</ele>
        <time>2026-08-21T20:44:44.000Z</time>
        <extensions>
          <ns3:TrackPointExtension>
            <ns3:hr>122</ns3:hr>
            <ns3:cad>50</ns3:cad>
          </ns3:TrackPointExtension>
        </extensions>
      </trkpt>
      <trkpt lat="45.32740141265094280242919921875" lon="-71.00409351289272308349609375">
        <ele>655.20001220703125</ele>
        <time>2026-08-21T20:44:45.000Z</time>
        <extensions>
          <ns3:TrackPointExtension>
            <ns3:hr>123</ns3:hr>
            <ns3:cad>50</ns3:cad>
          </ns3:TrackPointExtension>
        </extensions>
      </trkpt>
      <trkpt lat="45.3273969702422618865966796875" lon="-71.0040742345154285430908203125">
        <ele>655.4000244140625</ele>
        <time>2026-08-21T20:44:46.000Z</time>
        <extensions>
          <ns3:TrackPointExtension>
            <ns3:hr>124</ns3:hr>
            <ns3:cad>49</ns3:cad>
          </ns3:TrackPointExtension>
        </extensions>
      </trkpt>
      <trkpt lat="45.32739269547164440155029296875" lon="-71.00405135191977024078369140625">
        <ele>655.4000244140625</ele>
        <time>2026-08-21T20:44:47.000Z</time>
        <extensions>
          <ns3:TrackPointExtension>
            <ns3:hr>124</ns3:hr>
            <ns3:cad>49</ns3:cad>
          </ns3:TrackPointExtension>
        </extensions>
      </trkpt>
      <trkpt lat="45.32738649286329746246337890625" lon="-71.00403643213212490081787109375">
        <ele>655.4000244140625</ele>
        <time>2026-08-21T20:44:48.000Z</time>
        <extensions>
          <ns3:TrackPointExtension>
            <ns3:hr>125</ns3:hr>
            <ns3:cad>49</ns3:cad>
          </ns3:TrackPointExtension>
        </extensions>
      </trkpt>
      <trkpt lat="45.32738263718783855438232421875" lon="-71.0040162317454814910888671875">
        <ele>655.5999755859375</ele>
        <time>2026-08-21T20:44:49.000Z</time>
        <extensions>
          <ns3:TrackPointExtension>
            <ns3:hr>125</ns3:hr>
            <ns3:cad>49</ns3:cad>
          </ns3:TrackPointExtension>
        </extensions>
      </trkpt>
      <trkpt lat="45.3273775242269039154052734375" lon="-71.003997959196567535400390625">
        <ele>655.5999755859375</ele>
        <time>2026-08-21T20:44:50.000Z</time>
        <extensions>
          <ns3:TrackPointExtension>
            <ns3:hr>125</ns3:hr>
            <ns3:cad>49</ns3:cad>
          </ns3:TrackPointExtension>
        </extensions>
      </trkpt>
      <trkpt lat="45.32736428081989288330078125" lon="-71.00398362614214420318603515625">
        <ele>655.79998779296875</ele>
        <time>2026-08-21T20:44:51.000Z</time>
        <extensions>
          <ns3:TrackPointExtension>
            <ns3:hr>127</ns3:hr>
            <ns3:cad>49</ns3:cad>
          </ns3:TrackPointExtension>
        </extensions>
      </trkpt>
      <trkpt lat="45.3273453377187252044677734375" lon="-71.003976501524448394775390625">
        <ele>656</ele>
        <time>2026-08-21T20:44:52.000Z</time>
        <extensions>
          <ns3:TrackPointExtension>
            <ns3:hr>129</ns3:hr>
            <ns3:cad>49</ns3:cad>
          </ns3:TrackPointExtension>
        </extensions>
      </trkpt>
      <trkpt lat="45.3273282386362552642822265625" lon="-71.00397909991443157196044921875">
        <ele>656</ele>
        <time>2026-08-21T20:44:53.000Z</time>
        <extensions>
          <ns3:TrackPointExtension>
            <ns3:hr>129</ns3:hr>
            <ns3:cad>52</ns3:cad>
          </ns3:TrackPointExtension>
        </extensions>
      </trkpt>
      <trkpt lat="45.327308289706707000732421875" lon="-71.00398622453212738037109375">
        <ele>656.20001220703125</ele>
        <time>2026-08-21T20:44:54.000Z</time>
        <extensions>
          <ns3:TrackPointExtension>
            <ns3:hr>129</ns3:hr>
            <ns3:cad>52</ns3:cad>
          </ns3:TrackPointExtension>
        </extensions>
      </trkpt>
      <trkpt lat="45.32728649675846099853515625" lon="-71.00399318151175975799560546875">
        <ele>656.20001220703125</ele>
        <time>2026-08-21T20:44:55.000Z</time>
        <extensions>
          <ns3:TrackPointExtension>
            <ns3:hr>129</ns3:hr>
            <ns3:cad>54</ns3:cad>
          </ns3:TrackPointExtension>
        </extensions>
      </trkpt>
      <trkpt lat="45.32727819867432117462158203125" lon="-71.0039977915585041046142578125">
        <ele>656</ele>
        <time>2026-08-21T20:44:56.000Z</time>
        <extensions>
          <ns3:TrackPointExtension>
            <ns3:hr>130</ns3:hr>
            <ns3:cad>54</ns3:cad>
          </ns3:TrackPointExtension>
        </extensions>
      </trkpt>
      <trkpt lat="45.3272635303437709808349609375" lon="-71.0040101967751979827880859375">
        <ele>656</ele>
        <time>2026-08-21T20:44:57.000Z</time>
        <extensions>
          <ns3:TrackPointExtension>
            <ns3:hr>130</ns3:hr>
            <ns3:cad>54</ns3:cad>
          </ns3:TrackPointExtension>
        </extensions>
      </trkpt>
      <trkpt lat="45.327250622212886810302734375" lon="-71.00401841104030609130859375">
        <ele>656</ele>
        <time>2026-08-21T20:44:58.000Z</time>
        <extensions>
          <ns3:TrackPointExtension>
            <ns3:hr>131</ns3:hr>
            <ns3:cad>49</ns3:cad>
          </ns3:TrackPointExtension>
        </extensions>
      </trkpt>
      <trkpt lat="45.3272388875484466552734375" lon="-71.004029475152492523193359375">
        <ele>656</ele>
        <time>2026-08-21T20:44:59.000Z</time>
        <extensions>
          <ns3:TrackPointExtension>
            <ns3:hr>131</ns3:hr>
            <ns3:cad>49</ns3:cad>
          </ns3:TrackPointExtension>
        </extensions>
      </trkpt>
      <trkpt lat="45.3272303380072116851806640625" lon="-71.00404347293078899383544921875">
        <ele>656</ele>
        <time>2026-08-21T20:45:00.000Z</time>
        <extensions>
          <ns3:TrackPointExtension>
            <ns3:hr>130</ns3:hr>
            <ns3:cad>54</ns3:cad>
          </ns3:TrackPointExtension>
        </extensions>
      </trkpt>
      <trkpt lat="45.3272179327905178070068359375" lon="-71.00404984317719936370849609375">
        <ele>656</ele>
        <time>2026-08-21T20:45:01.000Z</time>
        <extensions>
          <ns3:TrackPointExtension>
            <ns3:hr>128</ns3:hr>
            <ns3:cad>54</ns3:cad>
          </ns3:TrackPointExtension>
        </extensions>
      </trkpt>
      <trkpt lat="45.32720544375479221343994140625" lon="-71.00405151955783367156982421875">
        <ele>655.79998779296875</ele>
        <time>2026-08-21T20:45:02.000Z</time>
        <extensions>
          <ns3:TrackPointExtension>
            <ns3:hr>128</ns3:hr>
            <ns3:cad>54</ns3:cad>
          </ns3:TrackPointExtension>
        </extensions>
      </trkpt>
      <trkpt lat="45.3271986544132232666015625" lon="-71.00405906327068805694580078125">
        <ele>655.79998779296875</ele>
        <time>2026-08-21T20:45:03.000Z</time>
        <extensions>
          <ns3:TrackPointExtension>
            <ns3:hr>128</ns3:hr>
            <ns3:cad>54</ns3:cad>
          </ns3:TrackPointExtension>
        </extensions>
      </trkpt>
      <trkpt lat="45.32719136215746402740478515625" lon="-71.00406400859355926513671875">
        <ele>655.5999755859375</ele>
        <time>2026-08-21T20:45:04.000Z</time>
        <extensions>
          <ns3:TrackPointExtension>
            <ns3:hr>129</ns3:hr>
            <ns3:cad>54</ns3:cad>
          </ns3:TrackPointExtension>
        </extensions>
      </trkpt>
      <trkpt lat="45.3271753527224063873291015625" lon="-71.00406912155449390411376953125">
        <ele>655.5999755859375</ele>
        <time>2026-08-21T20:45:05.000Z</time>
        <extensions>
          <ns3:TrackPointExtension>
            <ns3:hr>130</ns3:hr>
            <ns3:cad>54</ns3:cad>
          </ns3:TrackPointExtension>
        </extensions>
      </trkpt>
      <trkpt lat="45.32716043293476104736328125" lon="-71.00407515652477741241455078125">
        <ele>655.5999755859375</ele>
        <time>2026-08-21T20:45:06.000Z</time>
        <extensions>
          <ns3:TrackPointExtension>
            <ns3:hr>130</ns3:hr>
            <ns3:cad>54</ns3:cad>
          </ns3:TrackPointExtension>
        </extensions>
      </trkpt>
      <trkpt lat="45.3271471895277500152587890625" lon="-71.00407800637185573577880859375">
        <ele>655.79998779296875</ele>
        <time>2026-08-21T20:45:07.000Z</time>
        <extensions>
          <ns3:TrackPointExtension>
            <ns3:hr>130</ns3:hr>
            <ns3:cad>54</ns3:cad>
          </ns3:TrackPointExtension>
        </extensions>
      </trkpt>
      <trkpt lat="45.3271357901394367218017578125" lon="-71.00408538244664669036865234375">
        <ele>655.5999755859375</ele>
        <time>2026-08-21T20:45:08.000Z</time>
        <extensions>
          <ns3:TrackPointExtension>
            <ns3:hr>131</ns3:hr>
            <ns3:cad>54</ns3:cad>
          </ns3:TrackPointExtension>
        </extensions>
      </trkpt>
      <trkpt lat="45.32712447457015514373779296875" lon="-71.00409627892076969146728515625">
        <ele>655.5999755859375</ele>
        <time>2026-08-21T20:45:09.000Z</time>
        <extensions>
          <ns3:TrackPointExtension>
            <ns3:hr>131</ns3:hr>
            <ns3:cad>54</ns3:cad>
          </ns3:TrackPointExtension>
        </extensions>
      </trkpt>
      <trkpt lat="45.3271136619150638580322265625" lon="-71.00410063751041889190673828125">
        <ele>655.5999755859375</ele>
        <time>2026-08-21T20:45:10.000Z</time>
        <extensions>
          <ns3:TrackPointExtension>
            <ns3:hr>131</ns3:hr>
            <ns3:cad>0</ns3:cad>
          </ns3:TrackPointExtension>
        </extensions>
      </trkpt>
      <trkpt lat="45.32710134051740169525146484375" lon="-71.00410499610006809234619140625">
        <ele>655.4000244140625</ele>
        <time>2026-08-21T20:45:11.000Z</time>
        <extensions>
          <ns3:TrackPointExtension>
            <ns3:hr>130</ns3:hr>
            <ns3:cad>0</ns3:cad>
          </ns3:TrackPointExtension>
        </extensions>
      </trkpt>
      <trkpt lat="45.3270878456532955169677734375" lon="-71.0041084326803684234619140625">
        <ele>655.20001220703125</ele>
        <time>2026-08-21T20:45:12.000Z</time>
        <extensions>
          <ns3:TrackPointExtension>
            <ns3:hr>131</ns3:hr>
            <ns3:cad>0</ns3:cad>
          </ns3:TrackPointExtension>
        </extensions>
      </trkpt>
      <trkpt lat="45.327072255313396453857421875" lon="-71.0041141323745250701904296875">
        <ele>655</ele>
        <time>2026-08-21T20:45:13.000Z</time>
        <extensions>
          <ns3:TrackPointExtension>
            <ns3:hr>131</ns3:hr>
            <ns3:cad>60</ns3:cad>
          </ns3:TrackPointExtension>
        </extensions>
      </trkpt>
      <trkpt lat="45.32705926336348056793212890625" lon="-71.004115976393222808837890625">
        <ele>654.5999755859375</ele>
        <time>2026-08-21T20:45:14.000Z</time>
        <extensions>
          <ns3:TrackPointExtension>
            <ns3:hr>131</ns3:hr>
            <ns3:cad>60</ns3:cad>
          </ns3:TrackPointExtension>
        </extensions>
      </trkpt>
      <trkpt lat="45.3270472772419452667236328125" lon="-71.004120670258998870849609375">
        <ele>654.4000244140625</ele>
        <time>2026-08-21T20:45:15.000Z</time>
        <extensions>
          <ns3:TrackPointExtension>
            <ns3:hr>130</ns3:hr>
            <ns3:cad>60</ns3:cad>
          </ns3:TrackPointExtension>
        </extensions>
      </trkpt>
      <trkpt lat="45.32703395001590251922607421875" lon="-71.004129387438297271728515625">
        <ele>654</ele>
        <time>2026-08-21T20:45:16.000Z</time>
        <extensions>
          <ns3:TrackPointExtension>
            <ns3:hr>130</ns3:hr>
            <ns3:cad>60</ns3:cad>
          </ns3:TrackPointExtension>
        </extensions>
      </trkpt>
      <trkpt lat="45.32702364027500152587890625" lon="-71.004138104617595672607421875">
        <ele>653.79998779296875</ele>
        <time>2026-08-21T20:45:17.000Z</time>
        <extensions>
          <ns3:TrackPointExtension>
            <ns3:hr>130</ns3:hr>
            <ns3:cad>63</ns3:cad>
          </ns3:TrackPointExtension>
        </extensions>
      </trkpt>
      <trkpt lat="45.32701349817216396331787109375" lon="-71.004144139587879180908203125">
        <ele>653.5999755859375</ele>
        <time>2026-08-21T20:45:18.000Z</time>
        <extensions>
          <ns3:TrackPointExtension>
            <ns3:hr>130</ns3:hr>
            <ns3:cad>63</ns3:cad>
          </ns3:TrackPointExtension>
        </extensions>
      </trkpt>
      <trkpt lat="45.327001512050628662109375" lon="-71.00414858199656009674072265625">
        <ele>653.4000244140625</ele>
        <time>2026-08-21T20:45:19.000Z</time>
        <extensions>
          <ns3:TrackPointExtension>
            <ns3:hr>129</ns3:hr>
            <ns3:cad>63</ns3:cad>
          </ns3:TrackPointExtension>
        </extensions>
      </trkpt>
      <trkpt lat="45.32698449678719043731689453125" lon="-71.00415227003395557403564453125">
        <ele>653.20001220703125</ele>
        <time>2026-08-21T20:45:20.000Z</time>
        <extensions>
          <ns3:TrackPointExtension>
            <ns3:hr>129</ns3:hr>
            <ns3:cad>63</ns3:cad>
          </ns3:TrackPointExtension>
        </extensions>
      </trkpt>
      <trkpt lat="45.3269698284566402435302734375" lon="-71.00415897555649280548095703125">
        <ele>653</ele>
        <time>2026-08-21T20:45:21.000Z</time>
        <extensions>
          <ns3:TrackPointExtension>
            <ns3:hr>128</ns3:hr>
            <ns3:cad>63</ns3:cad>
          </ns3:TrackPointExtension>
        </extensions>
      </trkpt>
      <trkpt lat="45.3269584290683269500732421875" lon="-71.0041644237935543060302734375">
        <ele>653</ele>
        <time>2026-08-21T20:45:22.000Z</time>
        <extensions>
          <ns3:TrackPointExtension>
            <ns3:hr>128</ns3:hr>
            <ns3:cad>0</ns3:cad>
          </ns3:TrackPointExtension>
        </extensions>
      </trkpt>
      <trkpt lat="45.32694728113710880279541015625" lon="-71.00416651926934719085693359375">
        <ele>653</ele>
        <time>2026-08-21T20:45:23.000Z</time>
        <extensions>
          <ns3:TrackPointExtension>
            <ns3:hr>128</ns3:hr>
            <ns3:cad>0</ns3:cad>
          </ns3:TrackPointExtension>
        </extensions>
      </trkpt>
      <trkpt lat="45.32693269662559032440185546875" lon="-71.0041707940399646759033203125">
        <ele>653</ele>
        <time>2026-08-21T20:45:24.000Z</time>
        <extensions>
          <ns3:TrackPointExtension>
            <ns3:hr>128</ns3:hr>
            <ns3:cad>0</ns3:cad>
          </ns3:TrackPointExtension>
        </extensions>
      </trkpt>
      <trkpt lat="45.32692230306565761566162109375" lon="-71.00418160669505596160888671875">
        <ele>653</ele>
        <time>2026-08-21T20:45:25.000Z</time>
        <extensions>
          <ns3:TrackPointExtension>
            <ns3:hr>128</ns3:hr>
            <ns3:cad>0</ns3:cad>
          </ns3:TrackPointExtension>
        </extensions>
      </trkpt>
      <trkpt lat="45.326909981667995452880859375" lon="-71.0041912458837032318115234375">
        <ele>653</ele>
        <time>2026-08-21T20:45:26.000Z</time>
        <extensions>
          <ns3:TrackPointExtension>
            <ns3:hr>128</ns3:hr>
            <ns3:cad>0</ns3:cad>
          </ns3:TrackPointExtension>
        </extensions>
      </trkpt>
      <trkpt lat="45.32690537162125110626220703125" lon="-71.004189737141132354736328125">
        <ele>652.79998779296875</ele>
        <time>2026-08-21T20:45:27.000Z</time>
        <extensions>
          <ns3:TrackPointExtension>
            <ns3:hr>128</ns3:hr>
            <ns3:cad>0</ns3:cad>
          </ns3:TrackPointExtension>
        </extensions>
      </trkpt>
      <trkpt lat="45.32689598388969898223876953125" lon="-71.004191748797893524169921875">
        <ele>652.79998779296875</ele>
        <time>2026-08-21T20:45:28.000Z</time>
        <extensions>
          <ns3:TrackPointExtension>
            <ns3:hr>127</ns3:hr>
            <ns3:cad>45</ns3:cad>
          </ns3:TrackPointExtension>
        </extensions>
      </trkpt>
      <trkpt lat="45.32688424922525882720947265625" lon="-71.00419183261692523956298828125">
        <ele>652.79998779296875</ele>
        <time>2026-08-21T20:45:29.000Z</time>
        <extensions>
          <ns3:TrackPointExtension>
            <ns3:hr>127</ns3:hr>
            <ns3:cad>45</ns3:cad>
          </ns3:TrackPointExtension>
        </extensions>
      </trkpt>
      <trkpt lat="45.3268746100366115570068359375" lon="-71.00419501774013042449951171875">
        <ele>652.79998779296875</ele>
        <time>2026-08-21T20:45:30.000Z</time>
        <extensions>
          <ns3:TrackPointExtension>
            <ns3:hr>127</ns3:hr>
            <ns3:cad>45</ns3:cad>
          </ns3:TrackPointExtension>
        </extensions>
      </trkpt>
      <trkpt lat="45.32687184400856494903564453125" lon="-71.0041992925107479095458984375">
        <ele>652.5999755859375</ele>
        <time>2026-08-21T20:45:31.000Z</time>
        <extensions>
          <ns3:TrackPointExtension>
            <ns3:hr>127</ns3:hr>
            <ns3:cad>45</ns3:cad>
          </ns3:TrackPointExtension>
        </extensions>
      </trkpt>
      <trkpt lat="45.3268715925514698028564453125" lon="-71.00420021452009677886962890625">
        <ele>652.79998779296875</ele>
        <time>2026-08-21T20:45:32.000Z</time>
        <extensions>
          <ns3:TrackPointExtension>
            <ns3:hr>126</ns3:hr>
            <ns3:cad>0</ns3:cad>
          </ns3:TrackPointExtension>
        </extensions>
      </trkpt>
      <trkpt lat="45.3268714249134063720703125" lon="-71.00420189090073108673095703125">
        <ele>652.79998779296875</ele>
        <time>2026-08-21T20:45:33.000Z</time>
        <extensions>
          <ns3:TrackPointExtension>
            <ns3:hr>126</ns3:hr>
            <ns3:cad>0</ns3:cad>
          </ns3:TrackPointExtension>
        </extensions>
      </trkpt>
      <trkpt lat="45.3268714249134063720703125" lon="-71.00420189090073108673095703125">
        <ele>652.79998779296875</ele>
        <time>2026-08-21T20:45:34.000Z</time>
        <extensions>
          <ns3:TrackPointExtension>
            <ns3:hr>125</ns3:hr>
            <ns3:cad>0</ns3:cad>
          </ns3:TrackPointExtension>
        </extensions>
      </trkpt>
      <trkpt lat="45.3268714249134063720703125" lon="-71.00420189090073108673095703125">
        <ele>652.79998779296875</ele>
        <time>2026-08-21T20:45:35.000Z</time>
        <extensions>
          <ns3:TrackPointExtension>
            <ns3:hr>123</ns3:hr>
            <ns3:cad>0</ns3:cad>
          </ns3:TrackPointExtension>
        </extensions>
      </trkpt>
      <trkpt lat="45.3268714249134063720703125" lon="-71.00420189090073108673095703125">
        <ele>652.79998779296875</ele>
        <time>2026-08-21T20:45:36.000Z</time>
        <extensions>
          <ns3:TrackPointExtension>
            <ns3:hr>122</ns3:hr>
            <ns3:cad>0</ns3:cad>
          </ns3:TrackPointExtension>
        </extensions>
      </trkpt>
      <trkpt lat="45.3268714249134063720703125" lon="-71.00420189090073108673095703125">
        <ele>652.79998779296875</ele>
        <time>2026-08-21T20:45:37.000Z</time>
        <extensions>
          <ns3:TrackPointExtension>
            <ns3:hr>122</ns3:hr>
            <ns3:cad>0</ns3:cad>
          </ns3:TrackPointExtension>
        </extensions>
      </trkpt>
      <trkpt lat="45.3268714249134063720703125" lon="-71.00420189090073108673095703125">
        <ele>652.79998779296875</ele>
        <time>2026-08-21T20:45:38.000Z</time>
        <extensions>
          <ns3:TrackPointExtension>
            <ns3:hr>121</ns3:hr>
            <ns3:cad>0</ns3:cad>
          </ns3:TrackPointExtension>
        </extensions>
      </trkpt>
      <trkpt lat="45.3268714249134063720703125" lon="-71.00420189090073108673095703125">
        <ele>652.79998779296875</ele>
        <time>2026-08-21T20:45:39.000Z</time>
        <extensions>
          <ns3:TrackPointExtension>
            <ns3:hr>120</ns3:hr>
            <ns3:cad>0</ns3:cad>
          </ns3:TrackPointExtension>
        </extensions>
      </trkpt>
      <trkpt lat="45.3268714249134063720703125" lon="-71.00420189090073108673095703125">
        <ele>652.79998779296875</ele>
        <time>2026-08-21T20:45:40.000Z</time>
        <extensions>
          <ns3:TrackPointExtension>
            <ns3:hr>119</ns3:hr>
            <ns3:cad>0</ns3:cad>
          </ns3:TrackPointExtension>
        </extensions>
      </trkpt>
      <trkpt lat="45.3268714249134063720703125" lon="-71.00420189090073108673095703125">
        <ele>652.5999755859375</ele>
        <time>2026-08-21T20:45:41.000Z</time>
        <extensions>
          <ns3:TrackPointExtension>
            <ns3:hr>118</ns3:hr>
            <ns3:cad>0</ns3:cad>
          </ns3:TrackPointExtension>
        </extensions>
      </trkpt>
      <trkpt lat="45.32687067054212093353271484375" lon="-71.0041996277868747711181640625">
        <ele>652.5999755859375</ele>
        <time>2026-08-21T20:45:42.000Z</time>
        <extensions>
          <ns3:TrackPointExtension>
            <ns3:hr>118</ns3:hr>
            <ns3:cad>0</ns3:cad>
          </ns3:TrackPointExtension>
        </extensions>
      </trkpt>
      <trkpt lat="45.32685927115380764007568359375" lon="-71.0042054951190948486328125">
        <ele>652.5999755859375</ele>
        <time>2026-08-21T20:45:43.000Z</time>
        <extensions>
          <ns3:TrackPointExtension>
            <ns3:hr>118</ns3:hr>
            <ns3:cad>0</ns3:cad>
          </ns3:TrackPointExtension>
        </extensions>
      </trkpt>
      <trkpt lat="45.32684602774679660797119140625" lon="-71.004209853708744049072265625">
        <ele>652.4000244140625</ele>
        <time>2026-08-21T20:45:44.000Z</time>
        <extensions>
          <ns3:TrackPointExtension>
            <ns3:hr>118</ns3:hr>
            <ns3:cad>0</ns3:cad>
          </ns3:TrackPointExtension>
        </extensions>
      </trkpt>
      <trkpt lat="45.326832868158817291259765625" lon="-71.004207842051982879638671875">
        <ele>652.4000244140625</ele>
        <time>2026-08-21T20:45:45.000Z</time>
        <extensions>
          <ns3:TrackPointExtension>
            <ns3:hr>118</ns3:hr>
            <ns3:cad>0</ns3:cad>
          </ns3:TrackPointExtension>
        </extensions>
      </trkpt>
      <trkpt lat="45.326818116009235382080078125" lon="-71.0042116977274417877197265625">
        <ele>652.20001220703125</ele>
        <time>2026-08-21T20:45:46.000Z</time>
        <extensions>
          <ns3:TrackPointExtension>
            <ns3:hr>118</ns3:hr>
            <ns3:cad>0</ns3:cad>
          </ns3:TrackPointExtension>
        </extensions>
      </trkpt>
      <trkpt lat="45.32680981792509555816650390625" lon="-71.00421044044196605682373046875">
        <ele>652.20001220703125</ele>
        <time>2026-08-21T20:45:47.000Z</time>
        <extensions>
          <ns3:TrackPointExtension>
            <ns3:hr>118</ns3:hr>
            <ns3:cad>0</ns3:cad>
          </ns3:TrackPointExtension>
        </extensions>
      </trkpt>
      <trkpt lat="45.32679791562259197235107421875" lon="-71.0042116977274417877197265625">
        <ele>652</ele>
        <time>2026-08-21T20:45:48.000Z</time>
        <extensions>
          <ns3:TrackPointExtension>
            <ns3:hr>118</ns3:hr>
            <ns3:cad>0</ns3:cad>
          </ns3:TrackPointExtension>
        </extensions>
      </trkpt>
      <trkpt lat="45.32678299583494663238525390625" lon="-71.00421153008937835693359375">
        <ele>652</ele>
        <time>2026-08-21T20:45:49.000Z</time>
        <extensions>
          <ns3:TrackPointExtension>
            <ns3:hr>118</ns3:hr>
            <ns3:cad>0</ns3:cad>
          </ns3:TrackPointExtension>
        </extensions>
      </trkpt>
      <trkpt lat="45.32676975242793560028076171875" lon="-71.0042113624513149261474609375">
        <ele>652</ele>
        <time>2026-08-21T20:45:50.000Z</time>
        <extensions>
          <ns3:TrackPointExtension>
            <ns3:hr>118</ns3:hr>
            <ns3:cad>58</ns3:cad>
          </ns3:TrackPointExtension>
        </extensions>
      </trkpt>
      <trkpt lat="45.32675407826900482177734375" lon="-71.00422150455415248870849609375">
        <ele>651.79998779296875</ele>
        <time>2026-08-21T20:45:51.000Z</time>
        <extensions>
          <ns3:TrackPointExtension>
            <ns3:hr>118</ns3:hr>
            <ns3:cad>58</ns3:cad>
          </ns3:TrackPointExtension>
        </extensions>
      </trkpt>
      <trkpt lat="45.32674041576683521270751953125" lon="-71.00423240102827548980712890625">
        <ele>651.5999755859375</ele>
        <time>2026-08-21T20:45:52.000Z</time>
        <extensions>
          <ns3:TrackPointExtension>
            <ns3:hr>118</ns3:hr>
            <ns3:cad>58</ns3:cad>
          </ns3:TrackPointExtension>
        </extensions>
      </trkpt>
      <trkpt lat="45.3267274238169193267822265625" lon="-71.00424933247268199920654296875">
        <ele>651.4000244140625</ele>
        <time>2026-08-21T20:45:53.000Z</time>
        <extensions>
          <ns3:TrackPointExtension>
            <ns3:hr>118</ns3:hr>
            <ns3:cad>58</ns3:cad>
          </ns3:TrackPointExtension>
        </extensions>
      </trkpt>
      <trkpt lat="45.32670655287802219390869140625" lon="-71.0042703710496425628662109375">
        <ele>651.4000244140625</ele>
        <time>2026-08-21T20:45:54.000Z</time>
        <extensions>
          <ns3:TrackPointExtension>
            <ns3:hr>118</ns3:hr>
            <ns3:cad>0</ns3:cad>
          </ns3:TrackPointExtension>
        </extensions>
      </trkpt>
      <trkpt lat="45.326693058013916015625" lon="-71.00428168661892414093017578125">
        <ele>651.20001220703125</ele>
        <time>2026-08-21T20:45:55.000Z</time>
        <extensions>
          <ns3:TrackPointExtension>
            <ns3:hr>119</ns3:hr>
            <ns3:cad>0</ns3:cad>
          </ns3:TrackPointExtension>
        </extensions>
      </trkpt>
      <trkpt lat="45.32668056897819042205810546875" lon="-71.00429560057818889617919921875">
        <ele>651.20001220703125</ele>
        <time>2026-08-21T20:45:56.000Z</time>
        <extensions>
          <ns3:TrackPointExtension>
            <ns3:hr>119</ns3:hr>
            <ns3:cad>0</ns3:cad>
          </ns3:TrackPointExtension>
        </extensions>
      </trkpt>
      <trkpt lat="45.32666916958987712860107421875" lon="-71.00430415011942386627197265625">
        <ele>651.4000244140625</ele>
        <time>2026-08-21T20:45:57.000Z</time>
        <extensions>
          <ns3:TrackPointExtension>
            <ns3:hr>120</ns3:hr>
            <ns3:cad>0</ns3:cad>
          </ns3:TrackPointExtension>
        </extensions>
      </trkpt>
      <trkpt lat="45.3266566805541515350341796875" lon="-71.004316471517086029052734375">
        <ele>651.4000244140625</ele>
        <time>2026-08-21T20:45:58.000Z</time>
        <extensions>
          <ns3:TrackPointExtension>
            <ns3:hr>120</ns3:hr>
            <ns3:cad>0</ns3:cad>
          </ns3:TrackPointExtension>
        </extensions>
      </trkpt>
      <trkpt lat="45.32664586789906024932861328125" lon="-71.00432954728603363037109375">
        <ele>651.4000244140625</ele>
        <time>2026-08-21T20:45:59.000Z</time>
        <extensions>
          <ns3:TrackPointExtension>
            <ns3:hr>121</ns3:hr>
            <ns3:cad>0</ns3:cad>
          </ns3:TrackPointExtension>
        </extensions>
      </trkpt>
      <trkpt lat="45.326630361378192901611328125" lon="-71.00434186868369579315185546875">
        <ele>651.4000244140625</ele>
        <time>2026-08-21T20:46:00.000Z</time>
        <extensions>
          <ns3:TrackPointExtension>
            <ns3:hr>121</ns3:hr>
            <ns3:cad>0</ns3:cad>
          </ns3:TrackPointExtension>
        </extensions>
      </trkpt>
      <trkpt lat="45.326611585915088653564453125" lon="-71.004351340234279632568359375">
        <ele>651.20001220703125</ele>
        <time>2026-08-21T20:46:01.000Z</time>
        <extensions>
          <ns3:TrackPointExtension>
            <ns3:hr>121</ns3:hr>
            <ns3:cad>0</ns3:cad>
          </ns3:TrackPointExtension>
        </extensions>
      </trkpt>
      <trkpt lat="45.32659775577485561370849609375" lon="-71.00436299107968807220458984375">
        <ele>651.20001220703125</ele>
        <time>2026-08-21T20:46:02.000Z</time>
        <extensions>
          <ns3:TrackPointExtension>
            <ns3:hr>122</ns3:hr>
            <ns3:cad>0</ns3:cad>
          </ns3:TrackPointExtension>
        </extensions>
      </trkpt>
      <trkpt lat="45.32658870331943035125732421875" lon="-71.00437187589704990386962890625">
        <ele>651</ele>
        <time>2026-08-21T20:46:03.000Z</time>
        <extensions>
          <ns3:TrackPointExtension>
            <ns3:hr>121</ns3:hr>
            <ns3:cad>0</ns3:cad>
          </ns3:TrackPointExtension>
        </extensions>
      </trkpt>
      <trkpt lat="45.326578058302402496337890625" lon="-71.00438780151307582855224609375">
        <ele>651</ele>
        <time>2026-08-21T20:46:04.000Z</time>
        <extensions>
          <ns3:TrackPointExtension>
            <ns3:hr>121</ns3:hr>
            <ns3:cad>0</ns3:cad>
          </ns3:TrackPointExtension>
        </extensions>
      </trkpt>
      <trkpt lat="45.3265674971044063568115234375" lon="-71.0044007934629917144775390625">
        <ele>651</ele>
        <time>2026-08-21T20:46:05.000Z</time>
        <extensions>
          <ns3:TrackPointExtension>
            <ns3:hr>120</ns3:hr>
            <ns3:cad>0</ns3:cad>
          </ns3:TrackPointExtension>
        </extensions>
      </trkpt>
      <trkpt lat="45.3265550918877124786376953125" lon="-71.00441177375614643096923828125">
        <ele>651</ele>
        <time>2026-08-21T20:46:06.000Z</time>
        <extensions>
          <ns3:TrackPointExtension>
            <ns3:hr>120</ns3:hr>
            <ns3:cad>0</ns3:cad>
          </ns3:TrackPointExtension>
        </extensions>
      </trkpt>
      <trkpt lat="45.3265423513948917388916015625" lon="-71.00441998802125453948974609375">
        <ele>651</ele>
        <time>2026-08-21T20:46:07.000Z</time>
        <extensions>
          <ns3:TrackPointExtension>
            <ns3:hr>120</ns3:hr>
            <ns3:cad>0</ns3:cad>
          </ns3:TrackPointExtension>
        </extensions>
      </trkpt>
      <trkpt lat="45.32653279602527618408203125" lon="-71.00442417897284030914306640625">
        <ele>651.20001220703125</ele>
        <time>2026-08-21T20:46:08.000Z</time>
        <extensions>
          <ns3:TrackPointExtension>
            <ns3:hr>120</ns3:hr>
            <ns3:cad>0</ns3:cad>
          </ns3:TrackPointExtension>
        </extensions>
      </trkpt>
      <trkpt lat="45.32652634195983409881591796875" lon="-71.004429124295711517333984375">
        <ele>651.20001220703125</ele>
        <time>2026-08-21T20:46:09.000Z</time>
        <extensions>
          <ns3:TrackPointExtension>
            <ns3:hr>119</ns3:hr>
            <ns3:cad>0</ns3:cad>
          </ns3:TrackPointExtension>
        </extensions>
      </trkpt>
      <trkpt lat="45.326508320868015289306640625" lon="-71.0044313035905361175537109375">
        <ele>651.20001220703125</ele>
        <time>2026-08-21T20:46:10.000Z</time>
        <extensions>
          <ns3:TrackPointExtension>
            <ns3:hr>120</ns3:hr>
            <ns3:cad>0</ns3:cad>
          </ns3:TrackPointExtension>
        </extensions>
      </trkpt>
      <trkpt lat="45.32649616710841655731201171875" lon="-71.00444345735013484954833984375">
        <ele>651</ele>
        <time>2026-08-21T20:46:11.000Z</time>
        <extensions>
          <ns3:TrackPointExtension>
            <ns3:hr>120</ns3:hr>
            <ns3:cad>0</ns3:cad>
          </ns3:TrackPointExtension>
        </extensions>
      </trkpt>
      <trkpt lat="45.3264840133488178253173828125" lon="-71.00445938296616077423095703125">
        <ele>651</ele>
        <time>2026-08-21T20:46:12.000Z</time>
        <extensions>
          <ns3:TrackPointExtension>
            <ns3:hr>120</ns3:hr>
            <ns3:cad>0</ns3:cad>
          </ns3:TrackPointExtension>
        </extensions>
      </trkpt>
      <trkpt lat="45.3264771401882171630859375" lon="-71.00447866134345531463623046875">
        <ele>651</ele>
        <time>2026-08-21T20:46:13.000Z</time>
        <extensions>
          <ns3:TrackPointExtension>
            <ns3:hr>119</ns3:hr>
            <ns3:cad>0</ns3:cad>
          </ns3:TrackPointExtension>
        </extensions>
      </trkpt>
      <trkpt lat="45.3264726139605045318603515625" lon="-71.004498191177845001220703125">
        <ele>650.79998779296875</ele>
        <time>2026-08-21T20:46:14.000Z</time>
        <extensions>
          <ns3:TrackPointExtension>
            <ns3:hr>120</ns3:hr>
            <ns3:cad>0</ns3:cad>
          </ns3:TrackPointExtension>
        </extensions>
      </trkpt>
      <trkpt lat="45.32646548934280872344970703125" lon="-71.00451721809804439544677734375">
        <ele>650.79998779296875</ele>
        <time>2026-08-21T20:46:15.000Z</time>
        <extensions>
          <ns3:TrackPointExtension>
            <ns3:hr>121</ns3:hr>
            <ns3:cad>0</ns3:cad>
          </ns3:TrackPointExtension>
        </extensions>
      </trkpt>
      <trkpt lat="45.3264575265347957611083984375" lon="-71.004540435969829559326171875">
        <ele>650.79998779296875</ele>
        <time>2026-08-21T20:46:16.000Z</time>
        <extensions>
          <ns3:TrackPointExtension>
            <ns3:hr>122</ns3:hr>
            <ns3:cad>0</ns3:cad>
          </ns3:TrackPointExtension>
        </extensions>
      </trkpt>
      <trkpt lat="45.32644939608871936798095703125" lon="-71.0045577026903629302978515625">
        <ele>650.79998779296875</ele>
        <time>2026-08-21T20:46:17.000Z</time>
        <extensions>
          <ns3:TrackPointExtension>
            <ns3:hr>122</ns3:hr>
            <ns3:cad>0</ns3:cad>
          </ns3:TrackPointExtension>
        </extensions>
      </trkpt>
      <trkpt lat="45.3264404274523258209228515625" lon="-71.004577316343784332275390625">
        <ele>650.79998779296875</ele>
        <time>2026-08-21T20:46:18.000Z</time>
        <extensions>
          <ns3:TrackPointExtension>
            <ns3:hr>122</ns3:hr>
            <ns3:cad>0</ns3:cad>
          </ns3:TrackPointExtension>
        </extensions>
      </trkpt>
      <trkpt lat="45.32642844133079051971435546875" lon="-71.00459852255880832672119140625">
        <ele>650.79998779296875</ele>
        <time>2026-08-21T20:46:19.000Z</time>
        <extensions>
          <ns3:TrackPointExtension>
            <ns3:hr>122</ns3:hr>
            <ns3:cad>0</ns3:cad>
          </ns3:TrackPointExtension>
        </extensions>
      </trkpt>
      <trkpt lat="45.3264213167130947113037109375" lon="-71.0046133585274219512939453125">
        <ele>650.79998779296875</ele>
        <time>2026-08-21T20:46:20.000Z</time>
        <extensions>
          <ns3:TrackPointExtension>
            <ns3:hr>122</ns3:hr>
            <ns3:cad>0</ns3:cad>
          </ns3:TrackPointExtension>
        </extensions>
      </trkpt>
      <trkpt lat="45.3264112584292888641357421875" lon="-71.0046239197254180908203125">
        <ele>650.5999755859375</ele>
        <time>2026-08-21T20:46:21.000Z</time>
        <extensions>
          <ns3:TrackPointExtension>
            <ns3:hr>122</ns3:hr>
            <ns3:cad>0</ns3:cad>
          </ns3:TrackPointExtension>
        </extensions>
      </trkpt>
      <trkpt lat="45.32640279270708560943603515625" lon="-71.0046281106770038604736328125">
        <ele>650.5999755859375</ele>
        <time>2026-08-21T20:46:22.000Z</time>
        <extensions>
          <ns3:TrackPointExtension>
            <ns3:hr>122</ns3:hr>
            <ns3:cad>0</ns3:cad>
          </ns3:TrackPointExtension>
        </extensions>
      </trkpt>
      <trkpt lat="45.3263908065855503082275390625" lon="-71.0046287812292575836181640625">
        <ele>650.5999755859375</ele>
        <time>2026-08-21T20:46:23.000Z</time>
        <extensions>
          <ns3:TrackPointExtension>
            <ns3:hr>122</ns3:hr>
            <ns3:cad>0</ns3:cad>
          </ns3:TrackPointExtension>
        </extensions>
      </trkpt>
      <trkpt lat="45.32638259232044219970703125" lon="-71.00463389419019222259521484375">
        <ele>650.5999755859375</ele>
        <time>2026-08-21T20:46:24.000Z</time>
        <extensions>
          <ns3:TrackPointExtension>
            <ns3:hr>122</ns3:hr>
            <ns3:cad>0</ns3:cad>
          </ns3:TrackPointExtension>
        </extensions>
      </trkpt>
      <trkpt lat="45.32637010328471660614013671875" lon="-71.00465384311974048614501953125">
        <ele>650.5999755859375</ele>
        <time>2026-08-21T20:46:25.000Z</time>
        <extensions>
          <ns3:TrackPointExtension>
            <ns3:hr>121</ns3:hr>
            <ns3:cad>0</ns3:cad>
          </ns3:TrackPointExtension>
        </extensions>
      </trkpt>
      <trkpt lat="45.32635577023029327392578125" lon="-71.00466272793710231781005859375">
        <ele>650.5999755859375</ele>
        <time>2026-08-21T20:46:26.000Z</time>
        <extensions>
          <ns3:TrackPointExtension>
            <ns3:hr>122</ns3:hr>
            <ns3:cad>0</ns3:cad>
          </ns3:TrackPointExtension>
        </extensions>
      </trkpt>
      <trkpt lat="45.32634370028972625732421875" lon="-71.0046586208045482635498046875">
        <ele>650.5999755859375</ele>
        <time>2026-08-21T20:46:27.000Z</time>
        <extensions>
          <ns3:TrackPointExtension>
            <ns3:hr>122</ns3:hr>
            <ns3:cad>0</ns3:cad>
          </ns3:TrackPointExtension>
        </extensions>
      </trkpt>
      <trkpt lat="45.3263284452259540557861328125" lon="-71.00465803407132625579833984375">
        <ele>650.5999755859375</ele>
        <time>2026-08-21T20:46:28.000Z</time>
        <extensions>
          <ns3:TrackPointExtension>
            <ns3:hr>122</ns3:hr>
            <ns3:cad>0</ns3:cad>
          </ns3:TrackPointExtension>
        </extensions>
      </trkpt>
      <trkpt lat="45.32631956040859222412109375" lon="-71.00466105155646800994873046875">
        <ele>650.5999755859375</ele>
        <time>2026-08-21T20:46:29.000Z</time>
        <extensions>
          <ns3:TrackPointExtension>
            <ns3:hr>121</ns3:hr>
            <ns3:cad>0</ns3:cad>
          </ns3:TrackPointExtension>
        </extensions>
      </trkpt>
      <trkpt lat="45.32630690373480319976806640625" lon="-71.00466482341289520263671875">
        <ele>650.5999755859375</ele>
        <time>2026-08-21T20:46:30.000Z</time>
        <extensions>
          <ns3:TrackPointExtension>
            <ns3:hr>121</ns3:hr>
            <ns3:cad>0</ns3:cad>
          </ns3:TrackPointExtension>
        </extensions>
      </trkpt>
      <trkpt lat="45.32629516907036304473876953125" lon="-71.0046680085361003875732421875">
        <ele>650.5999755859375</ele>
        <time>2026-08-21T20:46:31.000Z</time>
        <extensions>
          <ns3:TrackPointExtension>
            <ns3:hr>121</ns3:hr>
            <ns3:cad>0</ns3:cad>
          </ns3:TrackPointExtension>
        </extensions>
      </trkpt>
      <trkpt lat="45.32629164867103099822998046875" lon="-71.00465568713843822479248046875">
        <ele>650.5999755859375</ele>
        <time>2026-08-21T20:46:32.000Z</time>
        <extensions>
          <ns3:TrackPointExtension>
            <ns3:hr>121</ns3:hr>
            <ns3:cad>0</ns3:cad>
          </ns3:TrackPointExtension>
        </extensions>
      </trkpt>
      <trkpt lat="45.3262764774262905120849609375" lon="-71.0046542622148990631103515625">
        <ele>650.4000244140625</ele>
        <time>2026-08-21T20:46:33.000Z</time>
        <extensions>
          <ns3:TrackPointExtension>
            <ns3:hr>122</ns3:hr>
            <ns3:cad>0</ns3:cad>
          </ns3:TrackPointExtension>
        </extensions>
      </trkpt>
      <trkpt lat="45.32625342719256877899169921875" lon="-71.00466188974678516387939453125">
        <ele>650.4000244140625</ele>
        <time>2026-08-21T20:46:34.000Z</time>
        <extensions>
          <ns3:TrackPointExtension>
            <ns3:hr>122</ns3:hr>
            <ns3:cad>0</ns3:cad>
          </ns3:TrackPointExtension>
        </extensions>
      </trkpt>
      <trkpt lat="45.326234735548496246337890625" lon="-71.00466574542224407196044921875">
        <ele>650.4000244140625</ele>
        <time>2026-08-21T20:46:35.000Z</time>
        <extensions>
          <ns3:TrackPointExtension>
            <ns3:hr>122</ns3:hr>
            <ns3:cad>0</ns3:cad>
          </ns3:TrackPointExtension>
        </extensions>
      </trkpt>
      <trkpt lat="45.32622878439724445343017578125" lon="-71.00466557778418064117431640625">
        <ele>650.4000244140625</ele>
        <time>2026-08-21T20:46:36.000Z</time>
        <extensions>
          <ns3:TrackPointExtension>
            <ns3:hr>123</ns3:hr>
            <ns3:cad>0</ns3:cad>
          </ns3:TrackPointExtension>
        </extensions>
      </trkpt>
      <trkpt lat="45.3262292034924030303955078125" lon="-71.00466758944094181060791015625">
        <ele>650.5999755859375</ele>
        <time>2026-08-21T20:46:37.000Z</time>
        <extensions>
          <ns3:TrackPointExtension>
            <ns3:hr>124</ns3:hr>
            <ns3:cad>0</ns3:cad>
          </ns3:TrackPointExtension>
        </extensions>
      </trkpt>
      <trkpt lat="45.32622979022562503814697265625" lon="-71.00466339848935604095458984375">
        <ele>650.79998779296875</ele>
        <time>2026-08-21T20:46:38.000Z</time>
        <extensions>
          <ns3:TrackPointExtension>
            <ns3:hr>124</ns3:hr>
            <ns3:cad>0</ns3:cad>
          </ns3:TrackPointExtension>
        </extensions>
      </trkpt>
      <trkpt lat="45.3262250125408172607421875" lon="-71.00465501658618450164794921875">
        <ele>651.20001220703125</ele>
        <time>2026-08-21T20:46:39.000Z</time>
        <extensions>
          <ns3:TrackPointExtension>
            <ns3:hr>123</ns3:hr>
            <ns3:cad>43</ns3:cad>
          </ns3:TrackPointExtension>
        </extensions>
      </trkpt>
      <trkpt lat="45.3262245096266269683837890625" lon="-71.00464696995913982391357421875">
        <ele>651.5999755859375</ele>
        <time>2026-08-21T20:46:40.000Z</time>
        <extensions>
          <ns3:TrackPointExtension>
            <ns3:hr>123</ns3:hr>
            <ns3:cad>43</ns3:cad>
          </ns3:TrackPointExtension>
        </extensions>
      </trkpt>
      <trkpt lat="45.3262171335518360137939453125" lon="-71.0046368278563022613525390625">
        <ele>651.79998779296875</ele>
        <time>2026-08-21T20:46:41.000Z</time>
        <extensions>
          <ns3:TrackPointExtension>
            <ns3:hr>122</ns3:hr>
            <ns3:cad>0</ns3:cad>
          </ns3:TrackPointExtension>
        </extensions>
      </trkpt>
      <trkpt lat="45.32620422542095184326171875" lon="-71.00462601520121097564697265625">
        <ele>652</ele>
        <time>2026-08-21T20:46:42.000Z</time>
        <extensions>
          <ns3:TrackPointExtension>
            <ns3:hr>122</ns3:hr>
            <ns3:cad>0</ns3:cad>
          </ns3:TrackPointExtension>
        </extensions>
      </trkpt>
      <trkpt lat="45.32619140110909938812255859375" lon="-71.00461008958518505096435546875">
        <ele>652.20001220703125</ele>
        <time>2026-08-21T20:46:43.000Z</time>
        <extensions>
          <ns3:TrackPointExtension>
            <ns3:hr>123</ns3:hr>
            <ns3:cad>0</ns3:cad>
          </ns3:TrackPointExtension>
        </extensions>
      </trkpt>
      <trkpt lat="45.3261799179017543792724609375" lon="-71.0046019591391086578369140625">
        <ele>652.4000244140625</ele>
        <time>2026-08-21T20:46:44.000Z</time>
        <extensions>
          <ns3:TrackPointExtension>
            <ns3:hr>124</ns3:hr>
            <ns3:cad>0</ns3:cad>
          </ns3:TrackPointExtension>
        </extensions>
      </trkpt>
      <trkpt lat="45.326164662837982177734375" lon="-71.00459483452141284942626953125">
        <ele>652.4000244140625</ele>
        <time>2026-08-21T20:46:45.000Z</time>
        <extensions>
          <ns3:TrackPointExtension>
            <ns3:hr>125</ns3:hr>
            <ns3:cad>0</ns3:cad>
          </ns3:TrackPointExtension>
        </extensions>
      </trkpt>
      <trkpt lat="45.3261547721922397613525390625" lon="-71.00459433160722255706787109375">
        <ele>652.5999755859375</ele>
        <time>2026-08-21T20:46:46.000Z</time>
        <extensions>
          <ns3:TrackPointExtension>
            <ns3:hr>127</ns3:hr>
            <ns3:cad>0</ns3:cad>
          </ns3:TrackPointExtension>
        </extensions>
      </trkpt>
      <trkpt lat="45.32613859511911869049072265625" lon="-71.0045942477881908416748046875">
        <ele>652.79998779296875</ele>
        <time>2026-08-21T20:46:47.000Z</time>
        <extensions>
          <ns3:TrackPointExtension>
            <ns3:hr>128</ns3:hr>
            <ns3:cad>0</ns3:cad>
          </ns3:TrackPointExtension>
        </extensions>
      </trkpt>
      <trkpt lat="45.32612719573080539703369140625" lon="-71.004592068493366241455078125">
        <ele>653</ele>
        <time>2026-08-21T20:46:48.000Z</time>
        <extensions>
          <ns3:TrackPointExtension>
            <ns3:hr>128</ns3:hr>
            <ns3:cad>0</ns3:cad>
          </ns3:TrackPointExtension>
        </extensions>
      </trkpt>
      <trkpt lat="45.3261115215718746185302734375" lon="-71.0045862011611461639404296875">
        <ele>653.4000244140625</ele>
        <time>2026-08-21T20:46:49.000Z</time>
        <extensions>
          <ns3:TrackPointExtension>
            <ns3:hr>129</ns3:hr>
            <ns3:cad>0</ns3:cad>
          </ns3:TrackPointExtension>
        </extensions>
      </trkpt>
      <trkpt lat="45.32608964480459690093994140625" lon="-71.00457404740154743194580078125">
        <ele>653.5999755859375</ele>
        <time>2026-08-21T20:46:50.000Z</time>
        <extensions>
          <ns3:TrackPointExtension>
            <ns3:hr>129</ns3:hr>
            <ns3:cad>0</ns3:cad>
          </ns3:TrackPointExtension>
        </extensions>
      </trkpt>
      <trkpt lat="45.32607925124466419219970703125" lon="-71.00457237102091312408447265625">
        <ele>653.79998779296875</ele>
        <time>2026-08-21T20:46:51.000Z</time>
        <extensions>
          <ns3:TrackPointExtension>
            <ns3:hr>129</ns3:hr>
            <ns3:cad>0</ns3:cad>
          </ns3:TrackPointExtension>
        </extensions>
      </trkpt>
      <trkpt lat="45.32607137225568294525146484375" lon="-71.00457505322992801666259765625">
        <ele>654</ele>
        <time>2026-08-21T20:46:52.000Z</time>
        <extensions>
          <ns3:TrackPointExtension>
            <ns3:hr>130</ns3:hr>
            <ns3:cad>0</ns3:cad>
          </ns3:TrackPointExtension>
        </extensions>
      </trkpt>
      <trkpt lat="45.3260625712573528289794921875" lon="-71.004574298858642578125">
        <ele>654</ele>
        <time>2026-08-21T20:46:53.000Z</time>
        <extensions>
          <ns3:TrackPointExtension>
            <ns3:hr>131</ns3:hr>
            <ns3:cad>0</ns3:cad>
          </ns3:TrackPointExtension>
        </extensions>
      </trkpt>
      <trkpt lat="45.32605041749775409698486328125" lon="-71.00457170046865940093994140625">
        <ele>654</ele>
        <time>2026-08-21T20:46:54.000Z</time>
        <extensions>
          <ns3:TrackPointExtension>
            <ns3:hr>133</ns3:hr>
            <ns3:cad>0</ns3:cad>
          </ns3:TrackPointExtension>
        </extensions>
      </trkpt>
      <trkpt lat="45.3260407783091068267822265625" lon="-71.00457102991640567779541015625">
        <ele>654</ele>
        <time>2026-08-21T20:46:55.000Z</time>
        <extensions>
          <ns3:TrackPointExtension>
            <ns3:hr>133</ns3:hr>
            <ns3:cad>0</ns3:cad>
          </ns3:TrackPointExtension>
        </extensions>
      </trkpt>
      <trkpt lat="45.32602979801595211029052734375" lon="-71.004571951925754547119140625">
        <ele>653.79998779296875</ele>
        <time>2026-08-21T20:46:56.000Z</time>
        <extensions>
          <ns3:TrackPointExtension>
            <ns3:hr>134</ns3:hr>
            <ns3:cad>0</ns3:cad>
          </ns3:TrackPointExtension>
        </extensions>
      </trkpt>
      <trkpt lat="45.32601915299892425537109375" lon="-71.00457505322992801666259765625">
        <ele>653.79998779296875</ele>
        <time>2026-08-21T20:46:57.000Z</time>
        <extensions>
          <ns3:TrackPointExtension>
            <ns3:hr>134</ns3:hr>
            <ns3:cad>0</ns3:cad>
          </ns3:TrackPointExtension>
        </extensions>
      </trkpt>
      <trkpt lat="45.3260062448680400848388671875" lon="-71.004579328000545501708984375">
        <ele>653.5999755859375</ele>
        <time>2026-08-21T20:46:58.000Z</time>
        <extensions>
          <ns3:TrackPointExtension>
            <ns3:hr>135</ns3:hr>
            <ns3:cad>0</ns3:cad>
          </ns3:TrackPointExtension>
        </extensions>
      </trkpt>
      <trkpt lat="45.32599476166069507598876953125" lon="-71.00459282286465167999267578125">
        <ele>653.4000244140625</ele>
        <time>2026-08-21T20:46:59.000Z</time>
        <extensions>
          <ns3:TrackPointExtension>
            <ns3:hr>135</ns3:hr>
            <ns3:cad>60</ns3:cad>
          </ns3:TrackPointExtension>
        </extensions>
      </trkpt>
      <trkpt lat="45.32598369754850864410400390625" lon="-71.00461897440254688262939453125">
        <ele>653.20001220703125</ele>
        <time>2026-08-21T20:47:00.000Z</time>
        <extensions>
          <ns3:TrackPointExtension>
            <ns3:hr>135</ns3:hr>
            <ns3:cad>60</ns3:cad>
          </ns3:TrackPointExtension>
        </extensions>
      </trkpt>
      <trkpt lat="45.3259728848934173583984375" lon="-71.004635989665985107421875">
        <ele>653</ele>
        <time>2026-08-21T20:47:01.000Z</time>
        <extensions>
          <ns3:TrackPointExtension>
            <ns3:hr>134</ns3:hr>
            <ns3:cad>65</ns3:cad>
          </ns3:TrackPointExtension>
        </extensions>
      </trkpt>
      <trkpt lat="45.32595989294350147247314453125" lon="-71.00464680232107639312744140625">
        <ele>652.79998779296875</ele>
        <time>2026-08-21T20:47:02.000Z</time>
        <extensions>
          <ns3:TrackPointExtension>
            <ns3:hr>134</ns3:hr>
            <ns3:cad>65</ns3:cad>
          </ns3:TrackPointExtension>
        </extensions>
      </trkpt>
      <trkpt lat="45.3259492479264736175537109375" lon="-71.0046542622148990631103515625">
        <ele>652.79998779296875</ele>
        <time>2026-08-21T20:47:03.000Z</time>
        <extensions>
          <ns3:TrackPointExtension>
            <ns3:hr>135</ns3:hr>
            <ns3:cad>0</ns3:cad>
          </ns3:TrackPointExtension>
        </extensions>
      </trkpt>
      <trkpt lat="45.3259321488440036773681640625" lon="-71.00467882119119167327880859375">
        <ele>652.79998779296875</ele>
        <time>2026-08-21T20:47:04.000Z</time>
        <extensions>
          <ns3:TrackPointExtension>
            <ns3:hr>136</ns3:hr>
            <ns3:cad>0</ns3:cad>
          </ns3:TrackPointExtension>
        </extensions>
      </trkpt>
      <trkpt lat="45.32592133618891239166259765625" lon="-71.004699356853961944580078125">
        <ele>652.79998779296875</ele>
        <time>2026-08-21T20:47:05.000Z</time>
        <extensions>
          <ns3:TrackPointExtension>
            <ns3:hr>136</ns3:hr>
            <ns3:cad>0</ns3:cad>
          </ns3:TrackPointExtension>
        </extensions>
      </trkpt>
      <trkpt lat="45.3259167261421680450439453125" lon="-71.00471050478518009185791015625">
        <ele>653</ele>
        <time>2026-08-21T20:47:06.000Z</time>
        <extensions>
          <ns3:TrackPointExtension>
            <ns3:hr>136</ns3:hr>
            <ns3:cad>0</ns3:cad>
          </ns3:TrackPointExtension>
        </extensions>
      </trkpt>
      <trkpt lat="45.32590507529675960540771484375" lon="-71.0047300346195697784423828125">
        <ele>653</ele>
        <time>2026-08-21T20:47:07.000Z</time>
        <extensions>
          <ns3:TrackPointExtension>
            <ns3:hr>136</ns3:hr>
            <ns3:cad>0</ns3:cad>
          </ns3:TrackPointExtension>
        </extensions>
      </trkpt>
      <trkpt lat="45.3258924186229705810546875" lon="-71.00473992526531219482421875">
        <ele>653</ele>
        <time>2026-08-21T20:47:08.000Z</time>
        <extensions>
          <ns3:TrackPointExtension>
            <ns3:hr>136</ns3:hr>
            <ns3:cad>56</ns3:cad>
          </ns3:TrackPointExtension>
        </extensions>
      </trkpt>
      <trkpt lat="45.3258808515965938568115234375" lon="-71.004748977720737457275390625">
        <ele>653</ele>
        <time>2026-08-21T20:47:09.000Z</time>
        <extensions>
          <ns3:TrackPointExtension>
            <ns3:hr>136</ns3:hr>
            <ns3:cad>57</ns3:cad>
          </ns3:TrackPointExtension>
        </extensions>
      </trkpt>
      <trkpt lat="45.325869284570217132568359375" lon="-71.0047571919858455657958984375">
        <ele>653</ele>
        <time>2026-08-21T20:47:10.000Z</time>
        <extensions>
          <ns3:TrackPointExtension>
            <ns3:hr>136</ns3:hr>
            <ns3:cad>57</ns3:cad>
          </ns3:TrackPointExtension>
        </extensions>
      </trkpt>
      <trkpt lat="45.3258573822677135467529296875" lon="-71.00476800464093685150146484375">
        <ele>653</ele>
        <time>2026-08-21T20:47:11.000Z</time>
        <extensions>
          <ns3:TrackPointExtension>
            <ns3:hr>135</ns3:hr>
            <ns3:cad>57</ns3:cad>
          </ns3:TrackPointExtension>
        </extensions>
      </trkpt>
      <trkpt lat="45.3258486650884151458740234375" lon="-71.0047840140759944915771484375">
        <ele>653</ele>
        <time>2026-08-21T20:47:12.000Z</time>
        <extensions>
          <ns3:TrackPointExtension>
            <ns3:hr>136</ns3:hr>
            <ns3:cad>57</ns3:cad>
          </ns3:TrackPointExtension>
        </extensions>
      </trkpt>
      <trkpt lat="45.32584070228040218353271484375" lon="-71.0047950781881809234619140625">
        <ele>653</ele>
        <time>2026-08-21T20:47:13.000Z</time>
        <extensions>
          <ns3:TrackPointExtension>
            <ns3:hr>136</ns3:hr>
            <ns3:cad>57</ns3:cad>
          </ns3:TrackPointExtension>
        </extensions>
      </trkpt>
      <trkpt lat="45.3258295543491840362548828125" lon="-71.0048063099384307861328125">
        <ele>653</ele>
        <time>2026-08-21T20:47:14.000Z</time>
        <extensions>
          <ns3:TrackPointExtension>
            <ns3:hr>136</ns3:hr>
            <ns3:cad>56</ns3:cad>
          </ns3:TrackPointExtension>
        </extensions>
      </trkpt>
      <trkpt lat="45.32582066953182220458984375" lon="-71.00481879897415637969970703125">
        <ele>653</ele>
        <time>2026-08-21T20:47:15.000Z</time>
        <extensions>
          <ns3:TrackPointExtension>
            <ns3:hr>136</ns3:hr>
            <ns3:cad>56</ns3:cad>
          </ns3:TrackPointExtension>
        </extensions>
      </trkpt>
      <trkpt lat="45.32581329345703125" lon="-71.00482768379151821136474609375">
        <ele>653</ele>
        <time>2026-08-21T20:47:16.000Z</time>
        <extensions>
          <ns3:TrackPointExtension>
            <ns3:hr>136</ns3:hr>
            <ns3:cad>54</ns3:cad>
          </ns3:TrackPointExtension>
        </extensions>
      </trkpt>
      <trkpt lat="45.3258070908486843109130859375" lon="-71.00483623333275318145751953125">
        <ele>652.79998779296875</ele>
        <time>2026-08-21T20:47:17.000Z</time>
        <extensions>
          <ns3:TrackPointExtension>
            <ns3:hr>136</ns3:hr>
            <ns3:cad>54</ns3:cad>
          </ns3:TrackPointExtension>
        </extensions>
      </trkpt>
      <trkpt lat="45.32580600120127201080322265625" lon="-71.00483640097081661224365234375">
        <ele>652.79998779296875</ele>
        <time>2026-08-21T20:47:18.000Z</time>
        <extensions>
          <ns3:TrackPointExtension>
            <ns3:hr>137</ns3:hr>
            <ns3:cad>54</ns3:cad>
          </ns3:TrackPointExtension>
        </extensions>
      </trkpt>
      <trkpt lat="45.32579929567873477935791015625" lon="-71.0048436932265758514404296875">
        <ele>653</ele>
        <time>2026-08-21T20:47:19.000Z</time>
        <extensions>
          <ns3:TrackPointExtension>
            <ns3:hr>136</ns3:hr>
            <ns3:cad>54</ns3:cad>
          </ns3:TrackPointExtension>
        </extensions>
      </trkpt>
      <trkpt lat="45.32580415718257427215576171875" lon="-71.00483992137014865875244140625">
        <ele>653.20001220703125</ele>
        <time>2026-08-21T20:47:20.000Z</time>
        <extensions>
          <ns3:TrackPointExtension>
            <ns3:hr>136</ns3:hr>
            <ns3:cad>54</ns3:cad>
          </ns3:TrackPointExtension>
        </extensions>
      </trkpt>
      <trkpt lat="45.32579652965068817138671875" lon="-71.00482818670570850372314453125">
        <ele>653.4000244140625</ele>
        <time>2026-08-21T20:47:21.000Z</time>
        <extensions>
          <ns3:TrackPointExtension>
            <ns3:hr>136</ns3:hr>
            <ns3:cad>48</ns3:cad>
          </ns3:TrackPointExtension>
        </extensions>
      </trkpt>
      <trkpt lat="45.32580113969743251800537109375" lon="-71.00482617504894733428955078125">
        <ele>653.5999755859375</ele>
        <time>2026-08-21T20:47:22.000Z</time>
        <extensions>
          <ns3:TrackPointExtension>
            <ns3:hr>136</ns3:hr>
            <ns3:cad>48</ns3:cad>
          </ns3:TrackPointExtension>
        </extensions>
      </trkpt>
      <trkpt lat="45.32580264844000339508056640625" lon="-71.00482868961989879608154296875">
        <ele>653.5999755859375</ele>
        <time>2026-08-21T20:47:23.000Z</time>
        <extensions>
          <ns3:TrackPointExtension>
            <ns3:hr>136</ns3:hr>
            <ns3:cad>48</ns3:cad>
          </ns3:TrackPointExtension>
        </extensions>
      </trkpt>
      <trkpt lat="45.3258030675351619720458984375" lon="-71.004828102886676788330078125">
        <ele>653.79998779296875</ele>
        <time>2026-08-21T20:47:24.000Z</time>
        <extensions>
          <ns3:TrackPointExtension>
            <ns3:hr>135</ns3:hr>
            <ns3:cad>0</ns3:cad>
          </ns3:TrackPointExtension>
        </extensions>
      </trkpt>
      <trkpt lat="45.3258017264306545257568359375" lon="-71.0048265941441059112548828125">
        <ele>653.79998779296875</ele>
        <time>2026-08-21T20:47:25.000Z</time>
        <extensions>
          <ns3:TrackPointExtension>
            <ns3:hr>136</ns3:hr>
            <ns3:cad>0</ns3:cad>
          </ns3:TrackPointExtension>
        </extensions>
      </trkpt>
      <trkpt lat="45.32580097205936908721923828125" lon="-71.00483640097081661224365234375">
        <ele>654</ele>
        <time>2026-08-21T20:47:26.000Z</time>
        <extensions>
          <ns3:TrackPointExtension>
            <ns3:hr>136</ns3:hr>
            <ns3:cad>0</ns3:cad>
          </ns3:TrackPointExtension>
        </extensions>
      </trkpt>
      <trkpt lat="45.32579116523265838623046875" lon="-71.0048349760472774505615234375">
        <ele>654.20001220703125</ele>
        <time>2026-08-21T20:47:27.000Z</time>
        <extensions>
          <ns3:TrackPointExtension>
            <ns3:hr>136</ns3:hr>
            <ns3:cad>0</ns3:cad>
          </ns3:TrackPointExtension>
        </extensions>
      </trkpt>
      <trkpt lat="45.32578135840594768524169921875" lon="-71.004832796752452850341796875">
        <ele>654.4000244140625</ele>
        <time>2026-08-21T20:47:28.000Z</time>
        <extensions>
          <ns3:TrackPointExtension>
            <ns3:hr>135</ns3:hr>
            <ns3:cad>0</ns3:cad>
          </ns3:TrackPointExtension>
        </extensions>
      </trkpt>
      <trkpt lat="45.32576526515185832977294921875" lon="-71.00482667796313762664794921875">
        <ele>654.79998779296875</ele>
        <time>2026-08-21T20:47:29.000Z</time>
        <extensions>
          <ns3:TrackPointExtension>
            <ns3:hr>135</ns3:hr>
            <ns3:cad>0</ns3:cad>
          </ns3:TrackPointExtension>
        </extensions>
      </trkpt>
      <trkpt lat="45.32575537450611591339111328125" lon="-71.00481712259352207183837890625">
        <ele>655</ele>
        <time>2026-08-21T20:47:30.000Z</time>
        <extensions>
          <ns3:TrackPointExtension>
            <ns3:hr>135</ns3:hr>
            <ns3:cad>0</ns3:cad>
          </ns3:TrackPointExtension>
        </extensions>
      </trkpt>
      <trkpt lat="45.32574749551713466644287109375" lon="-71.00481326691806316375732421875">
        <ele>655.20001220703125</ele>
        <time>2026-08-21T20:47:31.000Z</time>
        <extensions>
          <ns3:TrackPointExtension>
            <ns3:hr>135</ns3:hr>
            <ns3:cad>0</ns3:cad>
          </ns3:TrackPointExtension>
        </extensions>
      </trkpt>
      <trkpt lat="45.32573726959526538848876953125" lon="-71.0047997720539569854736328125">
        <ele>655.20001220703125</ele>
        <time>2026-08-21T20:47:32.000Z</time>
        <extensions>
          <ns3:TrackPointExtension>
            <ns3:hr>134</ns3:hr>
            <ns3:cad>0</ns3:cad>
          </ns3:TrackPointExtension>
        </extensions>
      </trkpt>
      <trkpt lat="45.3257252834737300872802734375" lon="-71.004791222512722015380859375">
        <ele>655.20001220703125</ele>
        <time>2026-08-21T20:47:33.000Z</time>
        <extensions>
          <ns3:TrackPointExtension>
            <ns3:hr>134</ns3:hr>
            <ns3:cad>0</ns3:cad>
          </ns3:TrackPointExtension>
        </extensions>
      </trkpt>
      <trkpt lat="45.32571363262832164764404296875" lon="-71.0047783143818378448486328125">
        <ele>655</ele>
        <time>2026-08-21T20:47:34.000Z</time>
        <extensions>
          <ns3:TrackPointExtension>
            <ns3:hr>134</ns3:hr>
            <ns3:cad>0</ns3:cad>
          </ns3:TrackPointExtension>
        </extensions>
      </trkpt>
      <trkpt lat="45.32569938339293003082275390625" lon="-71.004777140915393829345703125">
        <ele>655</ele>
        <time>2026-08-21T20:47:35.000Z</time>
        <extensions>
          <ns3:TrackPointExtension>
            <ns3:hr>134</ns3:hr>
            <ns3:cad>0</ns3:cad>
          </ns3:TrackPointExtension>
        </extensions>
      </trkpt>
      <trkpt lat="45.325689576566219329833984375" lon="-71.00478460080921649932861328125">
        <ele>655</ele>
        <time>2026-08-21T20:47:36.000Z</time>
        <extensions>
          <ns3:TrackPointExtension>
            <ns3:hr>134</ns3:hr>
            <ns3:cad>0</ns3:cad>
          </ns3:TrackPointExtension>
        </extensions>
      </trkpt>
      <trkpt lat="45.32567583024501800537109375" lon="-71.00479013286530971527099609375">
        <ele>655</ele>
        <time>2026-08-21T20:47:37.000Z</time>
        <extensions>
          <ns3:TrackPointExtension>
            <ns3:hr>134</ns3:hr>
            <ns3:cad>0</ns3:cad>
          </ns3:TrackPointExtension>
        </extensions>
      </trkpt>
      <trkpt lat="45.325660407543182373046875" lon="-71.00479600019752979278564453125">
        <ele>655</ele>
        <time>2026-08-21T20:47:38.000Z</time>
        <extensions>
          <ns3:TrackPointExtension>
            <ns3:hr>134</ns3:hr>
            <ns3:cad>0</ns3:cad>
          </ns3:TrackPointExtension>
        </extensions>
      </trkpt>
      <trkpt lat="45.32564766705036163330078125" lon="-71.0048063099384307861328125">
        <ele>655</ele>
        <time>2026-08-21T20:47:39.000Z</time>
        <extensions>
          <ns3:TrackPointExtension>
            <ns3:hr>134</ns3:hr>
            <ns3:cad>0</ns3:cad>
          </ns3:TrackPointExtension>
        </extensions>
      </trkpt>
      <trkpt lat="45.325639285147190093994140625" lon="-71.004809327423572540283203125">
        <ele>655</ele>
        <time>2026-08-21T20:47:40.000Z</time>
        <extensions>
          <ns3:TrackPointExtension>
            <ns3:hr>134</ns3:hr>
            <ns3:cad>0</ns3:cad>
          </ns3:TrackPointExtension>
        </extensions>
      </trkpt>
      <trkpt lat="45.32562620937824249267578125" lon="-71.00480723194777965545654296875">
        <ele>655</ele>
        <time>2026-08-21T20:47:41.000Z</time>
        <extensions>
          <ns3:TrackPointExtension>
            <ns3:hr>134</ns3:hr>
            <ns3:cad>0</ns3:cad>
          </ns3:TrackPointExtension>
        </extensions>
      </trkpt>
      <trkpt lat="45.3256139717996120452880859375" lon="-71.0048135183751583099365234375">
        <ele>655.20001220703125</ele>
        <time>2026-08-21T20:47:42.000Z</time>
        <extensions>
          <ns3:TrackPointExtension>
            <ns3:hr>134</ns3:hr>
            <ns3:cad>0</ns3:cad>
          </ns3:TrackPointExtension>
        </extensions>
      </trkpt>
      <trkpt lat="45.3256022371351718902587890625" lon="-71.00482382811605930328369140625">
        <ele>655.20001220703125</ele>
        <time>2026-08-21T20:47:43.000Z</time>
        <extensions>
          <ns3:TrackPointExtension>
            <ns3:hr>134</ns3:hr>
            <ns3:cad>0</ns3:cad>
          </ns3:TrackPointExtension>
        </extensions>
      </trkpt>
      <trkpt lat="45.32558999955654144287109375" lon="-71.00482801906764507293701171875">
        <ele>655.20001220703125</ele>
        <time>2026-08-21T20:47:44.000Z</time>
        <extensions>
          <ns3:TrackPointExtension>
            <ns3:hr>135</ns3:hr>
            <ns3:cad>0</ns3:cad>
          </ns3:TrackPointExtension>
        </extensions>
      </trkpt>
      <trkpt lat="45.3255727328360080718994140625" lon="-71.004832126200199127197265625">
        <ele>655.20001220703125</ele>
        <time>2026-08-21T20:47:45.000Z</time>
        <extensions>
          <ns3:TrackPointExtension>
            <ns3:hr>136</ns3:hr>
            <ns3:cad>0</ns3:cad>
          </ns3:TrackPointExtension>
        </extensions>
      </trkpt>
      <trkpt lat="45.325550772249698638916015625" lon="-71.00483573041856288909912109375">
        <ele>655.4000244140625</ele>
        <time>2026-08-21T20:47:46.000Z</time>
        <extensions>
          <ns3:TrackPointExtension>
            <ns3:hr>136</ns3:hr>
            <ns3:cad>0</ns3:cad>
          </ns3:TrackPointExtension>
        </extensions>
      </trkpt>
      <trkpt lat="45.32553576864302158355712890625" lon="-71.00484159775078296661376953125">
        <ele>655.4000244140625</ele>
        <time>2026-08-21T20:47:47.000Z</time>
        <extensions>
          <ns3:TrackPointExtension>
            <ns3:hr>136</ns3:hr>
            <ns3:cad>0</ns3:cad>
          </ns3:TrackPointExtension>
        </extensions>
      </trkpt>
      <trkpt lat="45.3255236148834228515625" lon="-71.00485366769134998321533203125">
        <ele>655.5999755859375</ele>
        <time>2026-08-21T20:47:48.000Z</time>
        <extensions>
          <ns3:TrackPointExtension>
            <ns3:hr>136</ns3:hr>
            <ns3:cad>55</ns3:cad>
          </ns3:TrackPointExtension>
        </extensions>
      </trkpt>
      <trkpt lat="45.3255115449428558349609375" lon="-71.0048664920032024383544921875">
        <ele>655.79998779296875</ele>
        <time>2026-08-21T20:47:49.000Z</time>
        <extensions>
          <ns3:TrackPointExtension>
            <ns3:hr>136</ns3:hr>
            <ns3:cad>55</ns3:cad>
          </ns3:TrackPointExtension>
        </extensions>
      </trkpt>
      <trkpt lat="45.32549872063100337982177734375" lon="-71.0048688389360904693603515625">
        <ele>656</ele>
        <time>2026-08-21T20:47:50.000Z</time>
        <extensions>
          <ns3:TrackPointExtension>
            <ns3:hr>135</ns3:hr>
            <ns3:cad>54</ns3:cad>
          </ns3:TrackPointExtension>
        </extensions>
      </trkpt>
      <trkpt lat="45.3254855610430240631103515625" lon="-71.0048752091825008392333984375">
        <ele>656.20001220703125</ele>
        <time>2026-08-21T20:47:51.000Z</time>
        <extensions>
          <ns3:TrackPointExtension>
            <ns3:hr>135</ns3:hr>
            <ns3:cad>53</ns3:cad>
          </ns3:TrackPointExtension>
        </extensions>
      </trkpt>
      <trkpt lat="45.32547391019761562347412109375" lon="-71.00488216616213321685791015625">
        <ele>656.4000244140625</ele>
        <time>2026-08-21T20:47:52.000Z</time>
        <extensions>
          <ns3:TrackPointExtension>
            <ns3:hr>135</ns3:hr>
            <ns3:cad>53</ns3:cad>
          </ns3:TrackPointExtension>
        </extensions>
      </trkpt>
      <trkpt lat="45.3254637680947780609130859375" lon="-71.00488468073308467864990234375">
        <ele>656.4000244140625</ele>
        <time>2026-08-21T20:47:53.000Z</time>
        <extensions>
          <ns3:TrackPointExtension>
            <ns3:hr>135</ns3:hr>
            <ns3:cad>53</ns3:cad>
          </ns3:TrackPointExtension>
        </extensions>
      </trkpt>
      <trkpt lat="45.32544909976422786712646484375" lon="-71.00489255972206592559814453125">
        <ele>656.5999755859375</ele>
        <time>2026-08-21T20:47:54.000Z</time>
        <extensions>
          <ns3:TrackPointExtension>
            <ns3:hr>135</ns3:hr>
            <ns3:cad>53</ns3:cad>
          </ns3:TrackPointExtension>
        </extensions>
      </trkpt>
      <trkpt lat="45.32544155605137348175048828125" lon="-71.00490094162523746490478515625">
        <ele>656.79998779296875</ele>
        <time>2026-08-21T20:47:55.000Z</time>
        <extensions>
          <ns3:TrackPointExtension>
            <ns3:hr>134</ns3:hr>
            <ns3:cad>52</ns3:cad>
          </ns3:TrackPointExtension>
        </extensions>
      </trkpt>
      <trkpt lat="45.32543518580496311187744140625" lon="-71.004899851977825164794921875">
        <ele>657.20001220703125</ele>
        <time>2026-08-21T20:47:56.000Z</time>
        <extensions>
          <ns3:TrackPointExtension>
            <ns3:hr>135</ns3:hr>
            <ns3:cad>52</ns3:cad>
          </ns3:TrackPointExtension>
        </extensions>
      </trkpt>
      <trkpt lat="45.325428731739521026611328125" lon="-71.004895828664302825927734375">
        <ele>657.4000244140625</ele>
        <time>2026-08-21T20:47:57.000Z</time>
        <extensions>
          <ns3:TrackPointExtension>
            <ns3:hr>135</ns3:hr>
            <ns3:cad>52</ns3:cad>
          </ns3:TrackPointExtension>
        </extensions>
      </trkpt>
      <trkpt lat="45.32541406340897083282470703125" lon="-71.00489323027431964874267578125">
        <ele>657.5999755859375</ele>
        <time>2026-08-21T20:47:58.000Z</time>
        <extensions>
          <ns3:TrackPointExtension>
            <ns3:hr>136</ns3:hr>
            <ns3:cad>52</ns3:cad>
          </ns3:TrackPointExtension>
        </extensions>
      </trkpt>
      <trkpt lat="45.325405597686767578125" lon="-71.00489708594977855682373046875">
        <ele>657.79998779296875</ele>
        <time>2026-08-21T20:47:59.000Z</time>
        <extensions>
          <ns3:TrackPointExtension>
            <ns3:hr>137</ns3:hr>
            <ns3:cad>52</ns3:cad>
          </ns3:TrackPointExtension>
        </extensions>
      </trkpt>
      <trkpt lat="45.32540383748710155487060546875" lon="-71.0049127601087093353271484375">
        <ele>658</ele>
        <time>2026-08-21T20:48:00.000Z</time>
        <extensions>
          <ns3:TrackPointExtension>
            <ns3:hr>137</ns3:hr>
            <ns3:cad>52</ns3:cad>
          </ns3:TrackPointExtension>
        </extensions>
      </trkpt>
      <trkpt lat="45.325395874679088592529296875" lon="-71.00492306984961032867431640625">
        <ele>658.20001220703125</ele>
        <time>2026-08-21T20:48:01.000Z</time>
        <extensions>
          <ns3:TrackPointExtension>
            <ns3:hr>137</ns3:hr>
            <ns3:cad>52</ns3:cad>
          </ns3:TrackPointExtension>
        </extensions>
      </trkpt>
      <trkpt lat="45.3253869898617267608642578125" lon="-71.00493212230503559112548828125">
        <ele>658.20001220703125</ele>
        <time>2026-08-21T20:48:02.000Z</time>
        <extensions>
          <ns3:TrackPointExtension>
            <ns3:hr>137</ns3:hr>
            <ns3:cad>52</ns3:cad>
          </ns3:TrackPointExtension>
        </extensions>
      </trkpt>
      <trkpt lat="45.32537802122533321380615234375" lon="-71.00494050420820713043212890625">
        <ele>658.4000244140625</ele>
        <time>2026-08-21T20:48:03.000Z</time>
        <extensions>
          <ns3:TrackPointExtension>
            <ns3:hr>137</ns3:hr>
            <ns3:cad>52</ns3:cad>
          </ns3:TrackPointExtension>
        </extensions>
      </trkpt>
      <trkpt lat="45.3253665380179882049560546875" lon="-71.00496112369000911712646484375">
        <ele>658.5999755859375</ele>
        <time>2026-08-21T20:48:04.000Z</time>
        <extensions>
          <ns3:TrackPointExtension>
            <ns3:hr>138</ns3:hr>
            <ns3:cad>52</ns3:cad>
          </ns3:TrackPointExtension>
        </extensions>
      </trkpt>
      <trkpt lat="45.3253594972193241119384765625" lon="-71.00497017614543437957763671875">
        <ele>658.79998779296875</ele>
        <time>2026-08-21T20:48:05.000Z</time>
        <extensions>
          <ns3:TrackPointExtension>
            <ns3:hr>138</ns3:hr>
            <ns3:cad>45</ns3:cad>
          </ns3:TrackPointExtension>
        </extensions>
      </trkpt>
      <trkpt lat="45.32534985803067684173583984375" lon="-71.00498341955244541168212890625">
        <ele>658.79998779296875</ele>
        <time>2026-08-21T20:48:06.000Z</time>
        <extensions>
          <ns3:TrackPointExtension>
            <ns3:hr>138</ns3:hr>
            <ns3:cad>45</ns3:cad>
          </ns3:TrackPointExtension>
        </extensions>
      </trkpt>
      <trkpt lat="45.32533812336623668670654296875" lon="-71.00499607622623443603515625">
        <ele>659</ele>
        <time>2026-08-21T20:48:07.000Z</time>
        <extensions>
          <ns3:TrackPointExtension>
            <ns3:hr>139</ns3:hr>
            <ns3:cad>49</ns3:cad>
          </ns3:TrackPointExtension>
        </extensions>
      </trkpt>
      <trkpt lat="45.32532840035855770111083984375" lon="-71.005005128681659698486328125">
        <ele>659</ele>
        <time>2026-08-21T20:48:08.000Z</time>
        <extensions>
          <ns3:TrackPointExtension>
            <ns3:hr>139</ns3:hr>
            <ns3:cad>49</ns3:cad>
          </ns3:TrackPointExtension>
        </extensions>
      </trkpt>
      <trkpt lat="45.32531565986573696136474609375" lon="-71.00501175038516521453857421875">
        <ele>659</ele>
        <time>2026-08-21T20:48:09.000Z</time>
        <extensions>
          <ns3:TrackPointExtension>
            <ns3:hr>140</ns3:hr>
            <ns3:cad>49</ns3:cad>
          </ns3:TrackPointExtension>
        </extensions>
      </trkpt>
      <trkpt lat="45.32530258409678936004638671875" lon="-71.0050187073647975921630859375">
        <ele>659</ele>
        <time>2026-08-21T20:48:10.000Z</time>
        <extensions>
          <ns3:TrackPointExtension>
            <ns3:hr>140</ns3:hr>
            <ns3:cad>54</ns3:cad>
          </ns3:TrackPointExtension>
        </extensions>
      </trkpt>
      <trkpt lat="45.32529738731682300567626953125" lon="-71.00501527078449726104736328125">
        <ele>659.20001220703125</ele>
        <time>2026-08-21T20:48:11.000Z</time>
        <extensions>
          <ns3:TrackPointExtension>
            <ns3:hr>140</ns3:hr>
            <ns3:cad>54</ns3:cad>
          </ns3:TrackPointExtension>
        </extensions>
      </trkpt>
      <trkpt lat="45.32528380863368511199951171875" lon="-71.00502516143023967742919921875">
        <ele>659.4000244140625</ele>
        <time>2026-08-21T20:48:12.000Z</time>
        <extensions>
          <ns3:TrackPointExtension>
            <ns3:hr>140</ns3:hr>
            <ns3:cad>55</ns3:cad>
          </ns3:TrackPointExtension>
        </extensions>
      </trkpt>
      <trkpt lat="45.32527559436857700347900390625" lon="-71.00502901710569858551025390625">
        <ele>659.79998779296875</ele>
        <time>2026-08-21T20:48:13.000Z</time>
        <extensions>
          <ns3:TrackPointExtension>
            <ns3:hr>141</ns3:hr>
            <ns3:cad>55</ns3:cad>
          </ns3:TrackPointExtension>
        </extensions>
      </trkpt>
      <trkpt lat="45.32527307979762554168701171875" lon="-71.0050267539918422698974609375">
        <ele>660.4000244140625</ele>
        <time>2026-08-21T20:48:14.000Z</time>
        <extensions>
          <ns3:TrackPointExtension>
            <ns3:hr>141</ns3:hr>
            <ns3:cad>55</ns3:cad>
          </ns3:TrackPointExtension>
        </extensions>
      </trkpt>
      <trkpt lat="45.32526453025639057159423828125" lon="-71.005027256906032562255859375">
        <ele>660.5999755859375</ele>
        <time>2026-08-21T20:48:15.000Z</time>
        <extensions>
          <ns3:TrackPointExtension>
            <ns3:hr>141</ns3:hr>
            <ns3:cad>55</ns3:cad>
          </ns3:TrackPointExtension>
        </extensions>
      </trkpt>
      <trkpt lat="45.325258411467075347900390625" lon="-71.005032956600189208984375">
        <ele>661</ele>
        <time>2026-08-21T20:48:16.000Z</time>
        <extensions>
          <ns3:TrackPointExtension>
            <ns3:hr>140</ns3:hr>
            <ns3:cad>55</ns3:cad>
          </ns3:TrackPointExtension>
        </extensions>
      </trkpt>
      <trkpt lat="45.32524391077458858489990234375" lon="-71.0050418414175510406494140625">
        <ele>661</ele>
        <time>2026-08-21T20:48:17.000Z</time>
        <extensions>
          <ns3:TrackPointExtension>
            <ns3:hr>141</ns3:hr>
            <ns3:cad>0</ns3:cad>
          </ns3:TrackPointExtension>
        </extensions>
      </trkpt>
      <trkpt lat="45.3252314217388629913330078125" lon="-71.0050468705594539642333984375">
        <ele>660.79998779296875</ele>
        <time>2026-08-21T20:48:18.000Z</time>
        <extensions>
          <ns3:TrackPointExtension>
            <ns3:hr>141</ns3:hr>
            <ns3:cad>0</ns3:cad>
          </ns3:TrackPointExtension>
        </extensions>
      </trkpt>
      <trkpt lat="45.32522312365472316741943359375" lon="-71.005054414272308349609375">
        <ele>660.79998779296875</ele>
        <time>2026-08-21T20:48:19.000Z</time>
        <extensions>
          <ns3:TrackPointExtension>
            <ns3:hr>141</ns3:hr>
            <ns3:cad>0</ns3:cad>
          </ns3:TrackPointExtension>
        </extensions>
      </trkpt>
      <trkpt lat="45.32521046698093414306640625" lon="-71.00506304763257503509521484375">
        <ele>660.79998779296875</ele>
        <time>2026-08-21T20:48:20.000Z</time>
        <extensions>
          <ns3:TrackPointExtension>
            <ns3:hr>141</ns3:hr>
            <ns3:cad>0</ns3:cad>
          </ns3:TrackPointExtension>
        </extensions>
      </trkpt>
      <trkpt lat="45.32519713975489139556884765625" lon="-71.00506874732673168182373046875">
        <ele>660.79998779296875</ele>
        <time>2026-08-21T20:48:21.000Z</time>
        <extensions>
          <ns3:TrackPointExtension>
            <ns3:hr>140</ns3:hr>
            <ns3:cad>0</ns3:cad>
          </ns3:TrackPointExtension>
        </extensions>
      </trkpt>
      <trkpt lat="45.325185321271419525146484375" lon="-71.0050783865153789520263671875">
        <ele>660.79998779296875</ele>
        <time>2026-08-21T20:48:22.000Z</time>
        <extensions>
          <ns3:TrackPointExtension>
            <ns3:hr>141</ns3:hr>
            <ns3:cad>0</ns3:cad>
          </ns3:TrackPointExtension>
        </extensions>
      </trkpt>
      <trkpt lat="45.3251709043979644775390625" lon="-71.00508551113307476043701171875">
        <ele>660.79998779296875</ele>
        <time>2026-08-21T20:48:23.000Z</time>
        <extensions>
          <ns3:TrackPointExtension>
            <ns3:hr>141</ns3:hr>
            <ns3:cad>0</ns3:cad>
          </ns3:TrackPointExtension>
        </extensions>
      </trkpt>
      <trkpt lat="45.32515682280063629150390625" lon="-71.00509104318916797637939453125">
        <ele>661</ele>
        <time>2026-08-21T20:48:24.000Z</time>
        <extensions>
          <ns3:TrackPointExtension>
            <ns3:hr>141</ns3:hr>
            <ns3:cad>0</ns3:cad>
          </ns3:TrackPointExtension>
        </extensions>
      </trkpt>
      <trkpt lat="45.32514316029846668243408203125" lon="-71.0051028616726398468017578125">
        <ele>661</ele>
        <time>2026-08-21T20:48:25.000Z</time>
        <extensions>
          <ns3:TrackPointExtension>
            <ns3:hr>141</ns3:hr>
            <ns3:cad>0</ns3:cad>
          </ns3:TrackPointExtension>
        </extensions>
      </trkpt>
      <trkpt lat="45.32513243146240711212158203125" lon="-71.00510713644325733184814453125">
        <ele>661</ele>
        <time>2026-08-21T20:48:26.000Z</time>
        <extensions>
          <ns3:TrackPointExtension>
            <ns3:hr>141</ns3:hr>
            <ns3:cad>0</ns3:cad>
          </ns3:TrackPointExtension>
        </extensions>
      </trkpt>
      <trkpt lat="45.32512455247342586517333984375" lon="-71.0051109082996845245361328125">
        <ele>661</ele>
        <time>2026-08-21T20:48:27.000Z</time>
        <extensions>
          <ns3:TrackPointExtension>
            <ns3:hr>140</ns3:hr>
            <ns3:cad>0</ns3:cad>
          </ns3:TrackPointExtension>
        </extensions>
      </trkpt>
      <trkpt lat="45.325114242732524871826171875" lon="-71.0051142610609531402587890625">
        <ele>661</ele>
        <time>2026-08-21T20:48:28.000Z</time>
        <extensions>
          <ns3:TrackPointExtension>
            <ns3:hr>140</ns3:hr>
            <ns3:cad>0</ns3:cad>
          </ns3:TrackPointExtension>
        </extensions>
      </trkpt>
      <trkpt lat="45.3251030109822750091552734375" lon="-71.00511970929801464080810546875">
        <ele>661.20001220703125</ele>
        <time>2026-08-21T20:48:29.000Z</time>
        <extensions>
          <ns3:TrackPointExtension>
            <ns3:hr>140</ns3:hr>
            <ns3:cad>0</ns3:cad>
          </ns3:TrackPointExtension>
        </extensions>
      </trkpt>
      <trkpt lat="45.325092114508152008056640625" lon="-71.00512473843991756439208984375">
        <ele>661.20001220703125</ele>
        <time>2026-08-21T20:48:30.000Z</time>
        <extensions>
          <ns3:TrackPointExtension>
            <ns3:hr>140</ns3:hr>
            <ns3:cad>53</ns3:cad>
          </ns3:TrackPointExtension>
        </extensions>
      </trkpt>
      <trkpt lat="45.3250823915004730224609375" lon="-71.00513018667697906494140625">
        <ele>661.4000244140625</ele>
        <time>2026-08-21T20:48:31.000Z</time>
        <extensions>
          <ns3:TrackPointExtension>
            <ns3:hr>140</ns3:hr>
            <ns3:cad>53</ns3:cad>
          </ns3:TrackPointExtension>
        </extensions>
      </trkpt>
      <trkpt lat="45.32507233321666717529296875" lon="-71.00513412617146968841552734375">
        <ele>661.5999755859375</ele>
        <time>2026-08-21T20:48:32.000Z</time>
        <extensions>
          <ns3:TrackPointExtension>
            <ns3:hr>140</ns3:hr>
            <ns3:cad>53</ns3:cad>
          </ns3:TrackPointExtension>
        </extensions>
      </trkpt>
      <trkpt lat="45.32505213283002376556396484375" lon="-71.00513429380953311920166015625">
        <ele>661.5999755859375</ele>
        <time>2026-08-21T20:48:33.000Z</time>
        <extensions>
          <ns3:TrackPointExtension>
            <ns3:hr>140</ns3:hr>
            <ns3:cad>53</ns3:cad>
          </ns3:TrackPointExtension>
        </extensions>
      </trkpt>
      <trkpt lat="45.32503746449947357177734375" lon="-71.00513647310435771942138671875">
        <ele>661.79998779296875</ele>
        <time>2026-08-21T20:48:34.000Z</time>
        <extensions>
          <ns3:TrackPointExtension>
            <ns3:hr>140</ns3:hr>
            <ns3:cad>53</ns3:cad>
          </ns3:TrackPointExtension>
        </extensions>
      </trkpt>
      <trkpt lat="45.32502246089279651641845703125" lon="-71.00513697601854801177978515625">
        <ele>662</ele>
        <time>2026-08-21T20:48:35.000Z</time>
        <extensions>
          <ns3:TrackPointExtension>
            <ns3:hr>140</ns3:hr>
            <ns3:cad>53</ns3:cad>
          </ns3:TrackPointExtension>
        </extensions>
      </trkpt>
      <trkpt lat="45.32501139678061008453369140625" lon="-71.00514569319784641265869140625">
        <ele>662.20001220703125</ele>
        <time>2026-08-21T20:48:36.000Z</time>
        <extensions>
          <ns3:TrackPointExtension>
            <ns3:hr>140</ns3:hr>
            <ns3:cad>53</ns3:cad>
          </ns3:TrackPointExtension>
        </extensions>
      </trkpt>
      <trkpt lat="45.32499915920197963714599609375" lon="-71.00515189580619335174560546875">
        <ele>662.20001220703125</ele>
        <time>2026-08-21T20:48:37.000Z</time>
        <extensions>
          <ns3:TrackPointExtension>
            <ns3:hr>139</ns3:hr>
            <ns3:cad>52</ns3:cad>
          </ns3:TrackPointExtension>
        </extensions>
      </trkpt>
      <trkpt lat="45.32498926855623722076416015625" lon="-71.00516463629901409149169921875">
        <ele>662.20001220703125</ele>
        <time>2026-08-21T20:48:38.000Z</time>
        <extensions>
          <ns3:TrackPointExtension>
            <ns3:hr>139</ns3:hr>
            <ns3:cad>52</ns3:cad>
          </ns3:TrackPointExtension>
        </extensions>
      </trkpt>
      <trkpt lat="45.324977450072765350341796875" lon="-71.0051769576966762542724609375">
        <ele>662.4000244140625</ele>
        <time>2026-08-21T20:48:39.000Z</time>
        <extensions>
          <ns3:TrackPointExtension>
            <ns3:hr>138</ns3:hr>
            <ns3:cad>52</ns3:cad>
          </ns3:TrackPointExtension>
        </extensions>
      </trkpt>
      <trkpt lat="45.3249618597328662872314453125" lon="-71.005188189446926116943359375">
        <ele>662.4000244140625</ele>
        <time>2026-08-21T20:48:40.000Z</time>
        <extensions>
          <ns3:TrackPointExtension>
            <ns3:hr>138</ns3:hr>
            <ns3:cad>52</ns3:cad>
          </ns3:TrackPointExtension>
        </extensions>
      </trkpt>
      <trkpt lat="45.3249484486877918243408203125" lon="-71.0051893629133701324462890625">
        <ele>662.4000244140625</ele>
        <time>2026-08-21T20:48:41.000Z</time>
        <extensions>
          <ns3:TrackPointExtension>
            <ns3:hr>137</ns3:hr>
            <ns3:cad>52</ns3:cad>
          </ns3:TrackPointExtension>
        </extensions>
      </trkpt>
      <trkpt lat="45.32493419945240020751953125" lon="-71.00519246421754360198974609375">
        <ele>662.20001220703125</ele>
        <time>2026-08-21T20:48:42.000Z</time>
        <extensions>
          <ns3:TrackPointExtension>
            <ns3:hr>137</ns3:hr>
            <ns3:cad>51</ns3:cad>
          </ns3:TrackPointExtension>
        </extensions>
      </trkpt>
      <trkpt lat="45.32491944730281829833984375" lon="-71.00520000793039798736572265625">
        <ele>662.20001220703125</ele>
        <time>2026-08-21T20:48:43.000Z</time>
        <extensions>
          <ns3:TrackPointExtension>
            <ns3:hr>136</ns3:hr>
            <ns3:cad>51</ns3:cad>
          </ns3:TrackPointExtension>
        </extensions>
      </trkpt>
      <trkpt lat="45.324905700981616973876953125" lon="-71.0052121616899967193603515625">
        <ele>662.4000244140625</ele>
        <time>2026-08-21T20:48:44.000Z</time>
        <extensions>
          <ns3:TrackPointExtension>
            <ns3:hr>136</ns3:hr>
            <ns3:cad>51</ns3:cad>
          </ns3:TrackPointExtension>
        </extensions>
      </trkpt>
      <trkpt lat="45.32489254139363765716552734375" lon="-71.00521978922188282012939453125">
        <ele>662.20001220703125</ele>
        <time>2026-08-21T20:48:45.000Z</time>
        <extensions>
          <ns3:TrackPointExtension>
            <ns3:hr>136</ns3:hr>
            <ns3:cad>51</ns3:cad>
          </ns3:TrackPointExtension>
        </extensions>
      </trkpt>
      <trkpt lat="45.3248760290443897247314453125" lon="-71.00522733293473720550537109375">
        <ele>662.4000244140625</ele>
        <time>2026-08-21T20:48:46.000Z</time>
        <extensions>
          <ns3:TrackPointExtension>
            <ns3:hr>136</ns3:hr>
            <ns3:cad>51</ns3:cad>
          </ns3:TrackPointExtension>
        </extensions>
      </trkpt>
      <trkpt lat="45.32485649921000003814697265625" lon="-71.00523571483790874481201171875">
        <ele>662.20001220703125</ele>
        <time>2026-08-21T20:48:47.000Z</time>
        <extensions>
          <ns3:TrackPointExtension>
            <ns3:hr>137</ns3:hr>
            <ns3:cad>51</ns3:cad>
          </ns3:TrackPointExtension>
        </extensions>
      </trkpt>
      <trkpt lat="45.32483956776559352874755859375" lon="-71.0052443481981754302978515625">
        <ele>662.20001220703125</ele>
        <time>2026-08-21T20:48:48.000Z</time>
        <extensions>
          <ns3:TrackPointExtension>
            <ns3:hr>136</ns3:hr>
            <ns3:cad>51</ns3:cad>
          </ns3:TrackPointExtension>
        </extensions>
      </trkpt>
      <trkpt lat="45.32482246868312358856201171875" lon="-71.00525985471904277801513671875">
        <ele>662.20001220703125</ele>
        <time>2026-08-21T20:48:49.000Z</time>
        <extensions>
          <ns3:TrackPointExtension>
            <ns3:hr>136</ns3:hr>
            <ns3:cad>51</ns3:cad>
          </ns3:TrackPointExtension>
        </extensions>
      </trkpt>
      <trkpt lat="45.3248032741248607635498046875" lon="-71.0052751936018466949462890625">
        <ele>662.20001220703125</ele>
        <time>2026-08-21T20:48:50.000Z</time>
        <extensions>
          <ns3:TrackPointExtension>
            <ns3:hr>137</ns3:hr>
            <ns3:cad>51</ns3:cad>
          </ns3:TrackPointExtension>
        </extensions>
      </trkpt>
      <trkpt lat="45.324785672128200531005859375" lon="-71.0052875988185405731201171875">
        <ele>662</ele>
        <time>2026-08-21T20:48:51.000Z</time>
        <extensions>
          <ns3:TrackPointExtension>
            <ns3:hr>137</ns3:hr>
            <ns3:cad>73</ns3:cad>
          </ns3:TrackPointExtension>
        </extensions>
      </trkpt>
      <trkpt lat="45.32476522028446197509765625" lon="-71.00529774092137813568115234375">
        <ele>662</ele>
        <time>2026-08-21T20:48:52.000Z</time>
        <extensions>
          <ns3:TrackPointExtension>
            <ns3:hr>137</ns3:hr>
            <ns3:cad>73</ns3:cad>
          </ns3:TrackPointExtension>
        </extensions>
      </trkpt>
      <trkpt lat="45.3247482888400554656982421875" lon="-71.00530981086194515228271484375">
        <ele>662</ele>
        <time>2026-08-21T20:48:53.000Z</time>
        <extensions>
          <ns3:TrackPointExtension>
            <ns3:hr>138</ns3:hr>
            <ns3:cad>73</ns3:cad>
          </ns3:TrackPointExtension>
        </extensions>
      </trkpt>
      <trkpt lat="45.32472758553922176361083984375" lon="-71.00531701929867267608642578125">
        <ele>662</ele>
        <time>2026-08-21T20:48:54.000Z</time>
        <extensions>
          <ns3:TrackPointExtension>
            <ns3:hr>138</ns3:hr>
            <ns3:cad>73</ns3:cad>
          </ns3:TrackPointExtension>
        </extensions>
      </trkpt>
      <trkpt lat="45.32470352947711944580078125" lon="-71.00532288663089275360107421875">
        <ele>662.20001220703125</ele>
        <time>2026-08-21T20:48:55.000Z</time>
        <extensions>
          <ns3:TrackPointExtension>
            <ns3:hr>138</ns3:hr>
            <ns3:cad>73</ns3:cad>
          </ns3:TrackPointExtension>
        </extensions>
      </trkpt>
      <trkpt lat="45.32468366436660289764404296875" lon="-71.0053360462188720703125">
        <ele>662.20001220703125</ele>
        <time>2026-08-21T20:48:56.000Z</time>
        <extensions>
          <ns3:TrackPointExtension>
            <ns3:hr>138</ns3:hr>
            <ns3:cad>75</ns3:cad>
          </ns3:TrackPointExtension>
        </extensions>
      </trkpt>
      <trkpt lat="45.32466354779899120330810546875" lon="-71.005346439778804779052734375">
        <ele>662.4000244140625</ele>
        <time>2026-08-21T20:48:57.000Z</time>
        <extensions>
          <ns3:TrackPointExtension>
            <ns3:hr>138</ns3:hr>
            <ns3:cad>75</ns3:cad>
          </ns3:TrackPointExtension>
        </extensions>
      </trkpt>
      <trkpt lat="45.3246470354497432708740234375" lon="-71.00535415112972259521484375">
        <ele>662.5999755859375</ele>
        <time>2026-08-21T20:48:58.000Z</time>
        <extensions>
          <ns3:TrackPointExtension>
            <ns3:hr>139</ns3:hr>
            <ns3:cad>75</ns3:cad>
          </ns3:TrackPointExtension>
        </extensions>
      </trkpt>
      <trkpt lat="45.32463110983371734619140625" lon="-71.0053640417754650115966796875">
        <ele>662.5999755859375</ele>
        <time>2026-08-21T20:48:59.000Z</time>
        <extensions>
          <ns3:TrackPointExtension>
            <ns3:hr>139</ns3:hr>
            <ns3:cad>75</ns3:cad>
          </ns3:TrackPointExtension>
        </extensions>
      </trkpt>
      <trkpt lat="45.32461392693221569061279296875" lon="-71.00537150166928768157958984375">
        <ele>662.79998779296875</ele>
        <time>2026-08-21T20:49:00.000Z</time>
        <extensions>
          <ns3:TrackPointExtension>
            <ns3:hr>139</ns3:hr>
            <ns3:cad>75</ns3:cad>
          </ns3:TrackPointExtension>
        </extensions>
      </trkpt>
      <trkpt lat="45.32459867186844348907470703125" lon="-71.0053814761340618133544921875">
        <ele>662.79998779296875</ele>
        <time>2026-08-21T20:49:01.000Z</time>
        <extensions>
          <ns3:TrackPointExtension>
            <ns3:hr>139</ns3:hr>
            <ns3:cad>75</ns3:cad>
          </ns3:TrackPointExtension>
        </extensions>
      </trkpt>
      <trkpt lat="45.32458995468914508819580078125" lon="-71.0053995810449123382568359375">
        <ele>662.79998779296875</ele>
        <time>2026-08-21T20:49:02.000Z</time>
        <extensions>
          <ns3:TrackPointExtension>
            <ns3:hr>139</ns3:hr>
            <ns3:cad>0</ns3:cad>
          </ns3:TrackPointExtension>
        </extensions>
      </trkpt>
      <trkpt lat="45.32458241097629070281982421875" lon="-71.0054082982242107391357421875">
        <ele>663</ele>
        <time>2026-08-21T20:49:03.000Z</time>
        <extensions>
          <ns3:TrackPointExtension>
            <ns3:hr>139</ns3:hr>
            <ns3:cad>0</ns3:cad>
          </ns3:TrackPointExtension>
        </extensions>
      </trkpt>
      <trkpt lat="45.324569083750247955322265625" lon="-71.00542179308831691741943359375">
        <ele>663</ele>
        <time>2026-08-21T20:49:04.000Z</time>
        <extensions>
          <ns3:TrackPointExtension>
            <ns3:hr>139</ns3:hr>
            <ns3:cad>0</ns3:cad>
          </ns3:TrackPointExtension>
        </extensions>
      </trkpt>
      <trkpt lat="45.32455877400934696197509765625" lon="-71.0054304264485836029052734375">
        <ele>663</ele>
        <time>2026-08-21T20:49:05.000Z</time>
        <extensions>
          <ns3:TrackPointExtension>
            <ns3:hr>139</ns3:hr>
            <ns3:cad>0</ns3:cad>
          </ns3:TrackPointExtension>
        </extensions>
      </trkpt>
      <trkpt lat="45.32454662024974822998046875" lon="-71.00543503649532794952392578125">
        <ele>663.20001220703125</ele>
        <time>2026-08-21T20:49:06.000Z</time>
        <extensions>
          <ns3:TrackPointExtension>
            <ns3:hr>138</ns3:hr>
            <ns3:cad>54</ns3:cad>
          </ns3:TrackPointExtension>
        </extensions>
      </trkpt>
      <trkpt lat="45.32453279010951519012451171875" lon="-71.005441658198833465576171875">
        <ele>663.20001220703125</ele>
        <time>2026-08-21T20:49:07.000Z</time>
        <extensions>
          <ns3:TrackPointExtension>
            <ns3:hr>138</ns3:hr>
            <ns3:cad>54</ns3:cad>
          </ns3:TrackPointExtension>
        </extensions>
      </trkpt>
      <trkpt lat="45.324527509510517120361328125" lon="-71.00544760935008525848388671875">
        <ele>663.4000244140625</ele>
        <time>2026-08-21T20:49:08.000Z</time>
        <extensions>
          <ns3:TrackPointExtension>
            <ns3:hr>137</ns3:hr>
            <ns3:cad>54</ns3:cad>
          </ns3:TrackPointExtension>
        </extensions>
      </trkpt>
      <trkpt lat="45.32451585866510868072509765625" lon="-71.005456410348415374755859375">
        <ele>663.4000244140625</ele>
        <time>2026-08-21T20:49:09.000Z</time>
        <extensions>
          <ns3:TrackPointExtension>
            <ns3:hr>137</ns3:hr>
            <ns3:cad>53</ns3:cad>
          </ns3:TrackPointExtension>
        </extensions>
      </trkpt>
      <trkpt lat="45.324502028524875640869140625" lon="-71.0054622776806354522705078125">
        <ele>663.5999755859375</ele>
        <time>2026-08-21T20:49:10.000Z</time>
        <extensions>
          <ns3:TrackPointExtension>
            <ns3:hr>137</ns3:hr>
            <ns3:cad>53</ns3:cad>
          </ns3:TrackPointExtension>
        </extensions>
      </trkpt>
      <trkpt lat="45.32448895275592803955078125" lon="-71.005470491945743560791015625">
        <ele>663.5999755859375</ele>
        <time>2026-08-21T20:49:11.000Z</time>
        <extensions>
          <ns3:TrackPointExtension>
            <ns3:hr>137</ns3:hr>
            <ns3:cad>0</ns3:cad>
          </ns3:TrackPointExtension>
        </extensions>
      </trkpt>
      <trkpt lat="45.32447755336761474609375" lon="-71.00547996349632740020751953125">
        <ele>663.79998779296875</ele>
        <time>2026-08-21T20:49:12.000Z</time>
        <extensions>
          <ns3:TrackPointExtension>
            <ns3:hr>137</ns3:hr>
            <ns3:cad>0</ns3:cad>
          </ns3:TrackPointExtension>
        </extensions>
      </trkpt>
      <trkpt lat="45.32446615397930145263671875" lon="-71.00548482500016689300537109375">
        <ele>664</ele>
        <time>2026-08-21T20:49:13.000Z</time>
        <extensions>
          <ns3:TrackPointExtension>
            <ns3:hr>136</ns3:hr>
            <ns3:cad>0</ns3:cad>
          </ns3:TrackPointExtension>
        </extensions>
      </trkpt>
      <trkpt lat="45.32445483841001987457275390625" lon="-71.0054890997707843780517578125">
        <ele>664.4000244140625</ele>
        <time>2026-08-21T20:49:14.000Z</time>
        <extensions>
          <ns3:TrackPointExtension>
            <ns3:hr>135</ns3:hr>
            <ns3:cad>0</ns3:cad>
          </ns3:TrackPointExtension>
        </extensions>
      </trkpt>
      <trkpt lat="45.32444871962070465087890625" lon="-71.00549505092203617095947265625">
        <ele>664.5999755859375</ele>
        <time>2026-08-21T20:49:15.000Z</time>
        <extensions>
          <ns3:TrackPointExtension>
            <ns3:hr>135</ns3:hr>
            <ns3:cad>0</ns3:cad>
          </ns3:TrackPointExtension>
        </extensions>
      </trkpt>
      <trkpt lat="45.32443488948047161102294921875" lon="-71.00550234317779541015625">
        <ele>664.79998779296875</ele>
        <time>2026-08-21T20:49:16.000Z</time>
        <extensions>
          <ns3:TrackPointExtension>
            <ns3:hr>135</ns3:hr>
            <ns3:cad>0</ns3:cad>
          </ns3:TrackPointExtension>
        </extensions>
      </trkpt>
      <trkpt lat="45.324424915015697479248046875" lon="-71.00550661794841289520263671875">
        <ele>665.20001220703125</ele>
        <time>2026-08-21T20:49:17.000Z</time>
        <extensions>
          <ns3:TrackPointExtension>
            <ns3:hr>135</ns3:hr>
            <ns3:cad>0</ns3:cad>
          </ns3:TrackPointExtension>
        </extensions>
      </trkpt>
      <trkpt lat="45.3244039602577686309814453125" lon="-71.005504690110683441162109375">
        <ele>665.20001220703125</ele>
        <time>2026-08-21T20:49:18.000Z</time>
        <extensions>
          <ns3:TrackPointExtension>
            <ns3:hr>135</ns3:hr>
            <ns3:cad>0</ns3:cad>
          </ns3:TrackPointExtension>
        </extensions>
      </trkpt>
      <trkpt lat="45.32438744790852069854736328125" lon="-71.005515754222869873046875">
        <ele>665.4000244140625</ele>
        <time>2026-08-21T20:49:19.000Z</time>
        <extensions>
          <ns3:TrackPointExtension>
            <ns3:hr>135</ns3:hr>
            <ns3:cad>0</ns3:cad>
          </ns3:TrackPointExtension>
        </extensions>
      </trkpt>
      <trkpt lat="45.32437554560601711273193359375" lon="-71.00552321411669254302978515625">
        <ele>665.4000244140625</ele>
        <time>2026-08-21T20:49:20.000Z</time>
        <extensions>
          <ns3:TrackPointExtension>
            <ns3:hr>135</ns3:hr>
            <ns3:cad>0</ns3:cad>
          </ns3:TrackPointExtension>
        </extensions>
      </trkpt>
      <trkpt lat="45.32436246983706951141357421875" lon="-71.00553260184824466705322265625">
        <ele>665.5999755859375</ele>
        <time>2026-08-21T20:49:21.000Z</time>
        <extensions>
          <ns3:TrackPointExtension>
            <ns3:hr>136</ns3:hr>
            <ns3:cad>47</ns3:cad>
          </ns3:TrackPointExtension>
        </extensions>
      </trkpt>
      <trkpt lat="45.3243533335626125335693359375" lon="-71.0055393911898136138916015625">
        <ele>665.5999755859375</ele>
        <time>2026-08-21T20:49:22.000Z</time>
        <extensions>
          <ns3:TrackPointExtension>
            <ns3:hr>136</ns3:hr>
            <ns3:cad>47</ns3:cad>
          </ns3:TrackPointExtension>
        </extensions>
      </trkpt>
      <trkpt lat="45.32433548010885715484619140625" lon="-71.00554249249398708343505859375">
        <ele>665.5999755859375</ele>
        <time>2026-08-21T20:49:23.000Z</time>
        <extensions>
          <ns3:TrackPointExtension>
            <ns3:hr>136</ns3:hr>
            <ns3:cad>47</ns3:cad>
          </ns3:TrackPointExtension>
        </extensions>
      </trkpt>
      <trkpt lat="45.32432533800601959228515625" lon="-71.0055477730929851531982421875">
        <ele>665.5999755859375</ele>
        <time>2026-08-21T20:49:24.000Z</time>
        <extensions>
          <ns3:TrackPointExtension>
            <ns3:hr>137</ns3:hr>
            <ns3:cad>47</ns3:cad>
          </ns3:TrackPointExtension>
        </extensions>
      </trkpt>
      <trkpt lat="45.3243167884647846221923828125" lon="-71.0055554844439029693603515625">
        <ele>665.5999755859375</ele>
        <time>2026-08-21T20:49:25.000Z</time>
        <extensions>
          <ns3:TrackPointExtension>
            <ns3:hr>137</ns3:hr>
            <ns3:cad>47</ns3:cad>
          </ns3:TrackPointExtension>
        </extensions>
      </trkpt>
      <trkpt lat="45.3243067301809787750244140625" lon="-71.0055626928806304931640625">
        <ele>665.4000244140625</ele>
        <time>2026-08-21T20:49:26.000Z</time>
        <extensions>
          <ns3:TrackPointExtension>
            <ns3:hr>137</ns3:hr>
            <ns3:cad>52</ns3:cad>
          </ns3:TrackPointExtension>
        </extensions>
      </trkpt>
      <trkpt lat="45.32429591752588748931884765625" lon="-71.0055631957948207855224609375">
        <ele>665.4000244140625</ele>
        <time>2026-08-21T20:49:27.000Z</time>
        <extensions>
          <ns3:TrackPointExtension>
            <ns3:hr>136</ns3:hr>
            <ns3:cad>52</ns3:cad>
          </ns3:TrackPointExtension>
        </extensions>
      </trkpt>
      <trkpt lat="45.3242782317101955413818359375" lon="-71.005584485828876495361328125">
        <ele>665.20001220703125</ele>
        <time>2026-08-21T20:49:28.000Z</time>
        <extensions>
          <ns3:TrackPointExtension>
            <ns3:hr>136</ns3:hr>
            <ns3:cad>52</ns3:cad>
          </ns3:TrackPointExtension>
        </extensions>
      </trkpt>
      <trkpt lat="45.32427244819700717926025390625" lon="-71.00559982471168041229248046875">
        <ele>665.20001220703125</ele>
        <time>2026-08-21T20:49:29.000Z</time>
        <extensions>
          <ns3:TrackPointExtension>
            <ns3:hr>136</ns3:hr>
            <ns3:cad>52</ns3:cad>
          </ns3:TrackPointExtension>
        </extensions>
      </trkpt>
      <trkpt lat="45.324261970818042755126953125" lon="-71.00560493767261505126953125">
        <ele>665</ele>
        <time>2026-08-21T20:49:30.000Z</time>
        <extensions>
          <ns3:TrackPointExtension>
            <ns3:hr>136</ns3:hr>
            <ns3:cad>52</ns3:cad>
          </ns3:TrackPointExtension>
        </extensions>
      </trkpt>
      <trkpt lat="45.3242467157542705535888671875" lon="-71.0056151635944843292236328125">
        <ele>665</ele>
        <time>2026-08-21T20:49:31.000Z</time>
        <extensions>
          <ns3:TrackPointExtension>
            <ns3:hr>136</ns3:hr>
            <ns3:cad>52</ns3:cad>
          </ns3:TrackPointExtension>
        </extensions>
      </trkpt>
      <trkpt lat="45.32423154450953006744384765625" lon="-71.00562379695475101470947265625">
        <ele>665</ele>
        <time>2026-08-21T20:49:32.000Z</time>
        <extensions>
          <ns3:TrackPointExtension>
            <ns3:hr>136</ns3:hr>
            <ns3:cad>52</ns3:cad>
          </ns3:TrackPointExtension>
        </extensions>
      </trkpt>
      <trkpt lat="45.32421939074993133544921875" lon="-71.005628071725368499755859375">
        <ele>665</ele>
        <time>2026-08-21T20:49:33.000Z</time>
        <extensions>
          <ns3:TrackPointExtension>
            <ns3:hr>136</ns3:hr>
            <ns3:cad>52</ns3:cad>
          </ns3:TrackPointExtension>
        </extensions>
      </trkpt>
      <trkpt lat="45.324204973876476287841796875" lon="-71.005636788904666900634765625">
        <ele>665</ele>
        <time>2026-08-21T20:49:34.000Z</time>
        <extensions>
          <ns3:TrackPointExtension>
            <ns3:hr>136</ns3:hr>
            <ns3:cad>52</ns3:cad>
          </ns3:TrackPointExtension>
        </extensions>
      </trkpt>
      <trkpt lat="45.32419231720268726348876953125" lon="-71.00564357824623584747314453125">
        <ele>665</ele>
        <time>2026-08-21T20:49:35.000Z</time>
        <extensions>
          <ns3:TrackPointExtension>
            <ns3:hr>136</ns3:hr>
            <ns3:cad>56</ns3:cad>
          </ns3:TrackPointExtension>
        </extensions>
      </trkpt>
      <trkpt lat="45.32417722977697849273681640625" lon="-71.00564206950366497039794921875">
        <ele>665</ele>
        <time>2026-08-21T20:49:36.000Z</time>
        <extensions>
          <ns3:TrackPointExtension>
            <ns3:hr>135</ns3:hr>
            <ns3:cad>56</ns3:cad>
          </ns3:TrackPointExtension>
        </extensions>
      </trkpt>
      <trkpt lat="45.3241618908941745758056640625" lon="-71.0056431591510772705078125">
        <ele>665</ele>
        <time>2026-08-21T20:49:37.000Z</time>
        <extensions>
          <ns3:TrackPointExtension>
            <ns3:hr>135</ns3:hr>
            <ns3:cad>56</ns3:cad>
          </ns3:TrackPointExtension>
        </extensions>
      </trkpt>
      <trkpt lat="45.32414889894425868988037109375" lon="-71.00564860738813877105712890625">
        <ele>665</ele>
        <time>2026-08-21T20:49:38.000Z</time>
        <extensions>
          <ns3:TrackPointExtension>
            <ns3:hr>135</ns3:hr>
            <ns3:cad>52</ns3:cad>
          </ns3:TrackPointExtension>
        </extensions>
      </trkpt>
      <trkpt lat="45.32414001412689685821533203125" lon="-71.00566201843321323394775390625">
        <ele>665</ele>
        <time>2026-08-21T20:49:39.000Z</time>
        <extensions>
          <ns3:TrackPointExtension>
            <ns3:hr>135</ns3:hr>
            <ns3:cad>52</ns3:cad>
          </ns3:TrackPointExtension>
        </extensions>
      </trkpt>
      <trkpt lat="45.3241313807666301727294921875" lon="-71.0056726634502410888671875">
        <ele>665</ele>
        <time>2026-08-21T20:49:40.000Z</time>
        <extensions>
          <ns3:TrackPointExtension>
            <ns3:hr>136</ns3:hr>
            <ns3:cad>52</ns3:cad>
          </ns3:TrackPointExtension>
        </extensions>
      </trkpt>
      <trkpt lat="45.324121825397014617919921875" lon="-71.0056835599243640899658203125">
        <ele>665</ele>
        <time>2026-08-21T20:49:41.000Z</time>
        <extensions>
          <ns3:TrackPointExtension>
            <ns3:hr>135</ns3:hr>
            <ns3:cad>52</ns3:cad>
          </ns3:TrackPointExtension>
        </extensions>
      </trkpt>
      <trkpt lat="45.32411168329417705535888671875" lon="-71.0056959651410579681396484375">
        <ele>665.20001220703125</ele>
        <time>2026-08-21T20:49:42.000Z</time>
        <extensions>
          <ns3:TrackPointExtension>
            <ns3:hr>135</ns3:hr>
            <ns3:cad>52</ns3:cad>
          </ns3:TrackPointExtension>
        </extensions>
      </trkpt>
      <trkpt lat="45.32410162501037120819091796875" lon="-71.00571046583354473114013671875">
        <ele>665.20001220703125</ele>
        <time>2026-08-21T20:49:43.000Z</time>
        <extensions>
          <ns3:TrackPointExtension>
            <ns3:hr>134</ns3:hr>
            <ns3:cad>51</ns3:cad>
          </ns3:TrackPointExtension>
        </extensions>
      </trkpt>
      <trkpt lat="45.324093997478485107421875" lon="-71.0057263076305389404296875">
        <ele>665.4000244140625</ele>
        <time>2026-08-21T20:49:44.000Z</time>
        <extensions>
          <ns3:TrackPointExtension>
            <ns3:hr>134</ns3:hr>
            <ns3:cad>51</ns3:cad>
          </ns3:TrackPointExtension>
        </extensions>
      </trkpt>
      <trkpt lat="45.3240894712507724761962890625" lon="-71.00573728792369365692138671875">
        <ele>665.5999755859375</ele>
        <time>2026-08-21T20:49:45.000Z</time>
        <extensions>
          <ns3:TrackPointExtension>
            <ns3:hr>134</ns3:hr>
            <ns3:cad>0</ns3:cad>
          </ns3:TrackPointExtension>
        </extensions>
      </trkpt>
      <trkpt lat="45.3240859508514404296875" lon="-71.00575136952102184295654296875">
        <ele>665.5999755859375</ele>
        <time>2026-08-21T20:49:46.000Z</time>
        <extensions>
          <ns3:TrackPointExtension>
            <ns3:hr>133</ns3:hr>
            <ns3:cad>0</ns3:cad>
          </ns3:TrackPointExtension>
        </extensions>
      </trkpt>
      <trkpt lat="45.32407949678599834442138671875" lon="-71.0057613439857959747314453125">
        <ele>665.79998779296875</ele>
        <time>2026-08-21T20:49:47.000Z</time>
        <extensions>
          <ns3:TrackPointExtension>
            <ns3:hr>133</ns3:hr>
            <ns3:cad>0</ns3:cad>
          </ns3:TrackPointExtension>
        </extensions>
      </trkpt>
      <trkpt lat="45.32407262362539768218994140625" lon="-71.00577048026025295257568359375">
        <ele>665.79998779296875</ele>
        <time>2026-08-21T20:49:48.000Z</time>
        <extensions>
          <ns3:TrackPointExtension>
            <ns3:hr>133</ns3:hr>
            <ns3:cad>0</ns3:cad>
          </ns3:TrackPointExtension>
        </extensions>
      </trkpt>
      <trkpt lat="45.324069522321224212646484375" lon="-71.00577902980148792266845703125">
        <ele>666</ele>
        <time>2026-08-21T20:49:49.000Z</time>
        <extensions>
          <ns3:TrackPointExtension>
            <ns3:hr>134</ns3:hr>
            <ns3:cad>0</ns3:cad>
          </ns3:TrackPointExtension>
        </extensions>
      </trkpt>
      <trkpt lat="45.32405569218099117279052734375" lon="-71.00578892044723033905029296875">
        <ele>666</ele>
        <time>2026-08-21T20:49:50.000Z</time>
        <extensions>
          <ns3:TrackPointExtension>
            <ns3:hr>134</ns3:hr>
            <ns3:cad>0</ns3:cad>
          </ns3:TrackPointExtension>
        </extensions>
      </trkpt>
      <trkpt lat="45.32404772937297821044921875" lon="-71.00579646416008472442626953125">
        <ele>666.20001220703125</ele>
        <time>2026-08-21T20:49:51.000Z</time>
        <extensions>
          <ns3:TrackPointExtension>
            <ns3:hr>134</ns3:hr>
            <ns3:cad>0</ns3:cad>
          </ns3:TrackPointExtension>
        </extensions>
      </trkpt>
      <trkpt lat="45.32403725199401378631591796875" lon="-71.0057972185313701629638671875">
        <ele>666.20001220703125</ele>
        <time>2026-08-21T20:49:52.000Z</time>
        <extensions>
          <ns3:TrackPointExtension>
            <ns3:hr>133</ns3:hr>
            <ns3:cad>0</ns3:cad>
          </ns3:TrackPointExtension>
        </extensions>
      </trkpt>
      <trkpt lat="45.32402786426246166229248046875" lon="-71.0057754255831241607666015625">
        <ele>666.4000244140625</ele>
        <time>2026-08-21T20:49:53.000Z</time>
        <extensions>
          <ns3:TrackPointExtension>
            <ns3:hr>134</ns3:hr>
            <ns3:cad>0</ns3:cad>
          </ns3:TrackPointExtension>
        </extensions>
      </trkpt>
      <trkpt lat="45.32401445321738719940185546875" lon="-71.00577056407928466796875">
        <ele>666.4000244140625</ele>
        <time>2026-08-21T20:49:54.000Z</time>
        <extensions>
          <ns3:TrackPointExtension>
            <ns3:hr>133</ns3:hr>
            <ns3:cad>0</ns3:cad>
          </ns3:TrackPointExtension>
        </extensions>
      </trkpt>
      <trkpt lat="45.32400640659034252166748046875" lon="-71.00577123463153839111328125">
        <ele>666.5999755859375</ele>
        <time>2026-08-21T20:49:55.000Z</time>
        <extensions>
          <ns3:TrackPointExtension>
            <ns3:hr>133</ns3:hr>
            <ns3:cad>51</ns3:cad>
          </ns3:TrackPointExtension>
        </extensions>
      </trkpt>
      <trkpt lat="45.32400347292423248291015625" lon="-71.0057730786502361297607421875">
        <ele>666.79998779296875</ele>
        <time>2026-08-21T20:49:56.000Z</time>
        <extensions>
          <ns3:TrackPointExtension>
            <ns3:hr>133</ns3:hr>
            <ns3:cad>51</ns3:cad>
          </ns3:TrackPointExtension>
        </extensions>
      </trkpt>
      <trkpt lat="45.32399366609752178192138671875" lon="-71.00576913915574550628662109375">
        <ele>667</ele>
        <time>2026-08-21T20:49:57.000Z</time>
        <extensions>
          <ns3:TrackPointExtension>
            <ns3:hr>133</ns3:hr>
            <ns3:cad>51</ns3:cad>
          </ns3:TrackPointExtension>
        </extensions>
      </trkpt>
      <trkpt lat="45.32398025505244731903076171875" lon="-71.00576897151768207550048828125">
        <ele>667.20001220703125</ele>
        <time>2026-08-21T20:49:58.000Z</time>
        <extensions>
          <ns3:TrackPointExtension>
            <ns3:hr>133</ns3:hr>
            <ns3:cad>51</ns3:cad>
          </ns3:TrackPointExtension>
        </extensions>
      </trkpt>
      <trkpt lat="45.3239773213863372802734375" lon="-71.005773581564426422119140625">
        <ele>667.4000244140625</ele>
        <time>2026-08-21T20:49:59.000Z</time>
        <extensions>
          <ns3:TrackPointExtension>
            <ns3:hr>134</ns3:hr>
            <ns3:cad>51</ns3:cad>
          </ns3:TrackPointExtension>
        </extensions>
      </trkpt>
      <trkpt lat="45.32397019676864147186279296875" lon="-71.005774252116680145263671875">
        <ele>667.5999755859375</ele>
        <time>2026-08-21T20:50:00.000Z</time>
        <extensions>
          <ns3:TrackPointExtension>
            <ns3:hr>134</ns3:hr>
            <ns3:cad>0</ns3:cad>
          </ns3:TrackPointExtension>
        </extensions>
      </trkpt>
      <trkpt lat="45.32397396862506866455078125" lon="-71.00577735342085361480712890625">
        <ele>668</ele>
        <time>2026-08-21T20:50:01.000Z</time>
        <extensions>
          <ns3:TrackPointExtension>
            <ns3:hr>134</ns3:hr>
            <ns3:cad>0</ns3:cad>
          </ns3:TrackPointExtension>
        </extensions>
      </trkpt>
      <trkpt lat="45.32397673465311527252197265625" lon="-71.0057791136205196380615234375">
        <ele>668.20001220703125</ele>
        <time>2026-08-21T20:50:02.000Z</time>
        <extensions>
          <ns3:TrackPointExtension>
            <ns3:hr>134</ns3:hr>
            <ns3:cad>0</ns3:cad>
          </ns3:TrackPointExtension>
        </extensions>
      </trkpt>
      <trkpt lat="45.32397304661571979522705078125" lon="-71.0057804547250270843505859375">
        <ele>668.4000244140625</ele>
        <time>2026-08-21T20:50:03.000Z</time>
        <extensions>
          <ns3:TrackPointExtension>
            <ns3:hr>134</ns3:hr>
            <ns3:cad>0</ns3:cad>
          </ns3:TrackPointExtension>
        </extensions>
      </trkpt>
      <trkpt lat="45.3239610604941844940185546875" lon="-71.0057814605534076690673828125">
        <ele>668.5999755859375</ele>
        <time>2026-08-21T20:50:04.000Z</time>
        <extensions>
          <ns3:TrackPointExtension>
            <ns3:hr>134</ns3:hr>
            <ns3:cad>0</ns3:cad>
          </ns3:TrackPointExtension>
        </extensions>
      </trkpt>
      <trkpt lat="45.32395343296229839324951171875" lon="-71.0057811252772808074951171875">
        <ele>669</ele>
        <time>2026-08-21T20:50:05.000Z</time>
        <extensions>
          <ns3:TrackPointExtension>
            <ns3:hr>134</ns3:hr>
            <ns3:cad>46</ns3:cad>
          </ns3:TrackPointExtension>
        </extensions>
      </trkpt>
      <trkpt lat="45.3239422850310802459716796875" lon="-71.00578975863754749298095703125">
        <ele>669.20001220703125</ele>
        <time>2026-08-21T20:50:06.000Z</time>
        <extensions>
          <ns3:TrackPointExtension>
            <ns3:hr>134</ns3:hr>
            <ns3:cad>46</ns3:cad>
          </ns3:TrackPointExtension>
        </extensions>
      </trkpt>
      <trkpt lat="45.32393465749919414520263671875" lon="-71.0057938657701015472412109375">
        <ele>669.4000244140625</ele>
        <time>2026-08-21T20:50:07.000Z</time>
        <extensions>
          <ns3:TrackPointExtension>
            <ns3:hr>135</ns3:hr>
            <ns3:cad>46</ns3:cad>
          </ns3:TrackPointExtension>
        </extensions>
      </trkpt>
      <trkpt lat="45.323926694691181182861328125" lon="-71.00581289269030094146728515625">
        <ele>669.5999755859375</ele>
        <time>2026-08-21T20:50:08.000Z</time>
        <extensions>
          <ns3:TrackPointExtension>
            <ns3:hr>134</ns3:hr>
            <ns3:cad>0</ns3:cad>
          </ns3:TrackPointExtension>
        </extensions>
      </trkpt>
      <trkpt lat="45.3239231742918491363525390625" lon="-71.00582077167928218841552734375">
        <ele>670</ele>
        <time>2026-08-21T20:50:09.000Z</time>
        <extensions>
          <ns3:TrackPointExtension>
            <ns3:hr>134</ns3:hr>
            <ns3:cad>0</ns3:cad>
          </ns3:TrackPointExtension>
        </extensions>
      </trkpt>
      <trkpt lat="45.32391672022640705108642578125" lon="-71.005830578505992889404296875">
        <ele>670</ele>
        <time>2026-08-21T20:50:10.000Z</time>
        <extensions>
          <ns3:TrackPointExtension>
            <ns3:hr>135</ns3:hr>
            <ns3:cad>0</ns3:cad>
          </ns3:TrackPointExtension>
        </extensions>
      </trkpt>
      <trkpt lat="45.32391252927482128143310546875" lon="-71.00584323517978191375732421875">
        <ele>670.20001220703125</ele>
        <time>2026-08-21T20:50:11.000Z</time>
        <extensions>
          <ns3:TrackPointExtension>
            <ns3:hr>135</ns3:hr>
            <ns3:cad>0</ns3:cad>
          </ns3:TrackPointExtension>
        </extensions>
      </trkpt>
      <trkpt lat="45.32391085289418697357177734375" lon="-71.00585304200649261474609375">
        <ele>670.4000244140625</ele>
        <time>2026-08-21T20:50:12.000Z</time>
        <extensions>
          <ns3:TrackPointExtension>
            <ns3:hr>135</ns3:hr>
            <ns3:cad>0</ns3:cad>
          </ns3:TrackPointExtension>
        </extensions>
      </trkpt>
      <trkpt lat="45.323898531496524810791015625" lon="-71.00586955435574054718017578125">
        <ele>670.5999755859375</ele>
        <time>2026-08-21T20:50:13.000Z</time>
        <extensions>
          <ns3:TrackPointExtension>
            <ns3:hr>136</ns3:hr>
            <ns3:cad>0</ns3:cad>
          </ns3:TrackPointExtension>
        </extensions>
      </trkpt>
      <trkpt lat="45.32389056868851184844970703125" lon="-71.0058780200779438018798828125">
        <ele>670.5999755859375</ele>
        <time>2026-08-21T20:50:14.000Z</time>
        <extensions>
          <ns3:TrackPointExtension>
            <ns3:hr>136</ns3:hr>
            <ns3:cad>44</ns3:cad>
          </ns3:TrackPointExtension>
        </extensions>
      </trkpt>
      <trkpt lat="45.3238862939178943634033203125" lon="-71.0058853961527347564697265625">
        <ele>670.79998779296875</ele>
        <time>2026-08-21T20:50:15.000Z</time>
        <extensions>
          <ns3:TrackPointExtension>
            <ns3:hr>137</ns3:hr>
            <ns3:cad>47</ns3:cad>
          </ns3:TrackPointExtension>
        </extensions>
      </trkpt>
      <trkpt lat="45.32387983985245227813720703125" lon="-71.00589889101684093475341796875">
        <ele>671</ele>
        <time>2026-08-21T20:50:16.000Z</time>
        <extensions>
          <ns3:TrackPointExtension>
            <ns3:hr>137</ns3:hr>
            <ns3:cad>47</ns3:cad>
          </ns3:TrackPointExtension>
        </extensions>
      </trkpt>
      <trkpt lat="45.32387481071054935455322265625" lon="-71.00591213442385196685791015625">
        <ele>671</ele>
        <time>2026-08-21T20:50:17.000Z</time>
        <extensions>
          <ns3:TrackPointExtension>
            <ns3:hr>138</ns3:hr>
            <ns3:cad>47</ns3:cad>
          </ns3:TrackPointExtension>
        </extensions>
      </trkpt>
      <trkpt lat="45.323868691921234130859375" lon="-71.00592521019279956817626953125">
        <ele>671.20001220703125</ele>
        <time>2026-08-21T20:50:18.000Z</time>
        <extensions>
          <ns3:TrackPointExtension>
            <ns3:hr>138</ns3:hr>
            <ns3:cad>47</ns3:cad>
          </ns3:TrackPointExtension>
        </extensions>
      </trkpt>
      <trkpt lat="45.32386341132223606109619140625" lon="-71.00593543611466884613037109375">
        <ele>671.4000244140625</ele>
        <time>2026-08-21T20:50:19.000Z</time>
        <extensions>
          <ns3:TrackPointExtension>
            <ns3:hr>139</ns3:hr>
            <ns3:cad>46</ns3:cad>
          </ns3:TrackPointExtension>
        </extensions>
      </trkpt>
      <trkpt lat="45.32384731806814670562744140625" lon="-71.0059319995343685150146484375">
        <ele>671.5999755859375</ele>
        <time>2026-08-21T20:50:20.000Z</time>
        <extensions>
          <ns3:TrackPointExtension>
            <ns3:hr>139</ns3:hr>
            <ns3:cad>46</ns3:cad>
          </ns3:TrackPointExtension>
        </extensions>
      </trkpt>
      <trkpt lat="45.32383717596530914306640625" lon="-71.005935184657573699951171875">
        <ele>671.79998779296875</ele>
        <time>2026-08-21T20:50:21.000Z</time>
        <extensions>
          <ns3:TrackPointExtension>
            <ns3:hr>140</ns3:hr>
            <ns3:cad>46</ns3:cad>
          </ns3:TrackPointExtension>
        </extensions>
      </trkpt>
      <trkpt lat="45.323826782405376434326171875" lon="-71.0059390403330326080322265625">
        <ele>672</ele>
        <time>2026-08-21T20:50:22.000Z</time>
        <extensions>
          <ns3:TrackPointExtension>
            <ns3:hr>140</ns3:hr>
            <ns3:cad>48</ns3:cad>
          </ns3:TrackPointExtension>
        </extensions>
      </trkpt>
      <trkpt lat="45.3238189034163951873779296875" lon="-71.00594331510365009307861328125">
        <ele>672</ele>
        <time>2026-08-21T20:50:23.000Z</time>
        <extensions>
          <ns3:TrackPointExtension>
            <ns3:hr>141</ns3:hr>
            <ns3:cad>48</ns3:cad>
          </ns3:TrackPointExtension>
        </extensions>
      </trkpt>
      <trkpt lat="45.32381236553192138671875" lon="-71.00594867952167987823486328125">
        <ele>672.20001220703125</ele>
        <time>2026-08-21T20:50:24.000Z</time>
        <extensions>
          <ns3:TrackPointExtension>
            <ns3:hr>141</ns3:hr>
            <ns3:cad>0</ns3:cad>
          </ns3:TrackPointExtension>
        </extensions>
      </trkpt>
      <trkpt lat="45.3238058276474475860595703125" lon="-71.005951948463916778564453125">
        <ele>672.4000244140625</ele>
        <time>2026-08-21T20:50:25.000Z</time>
        <extensions>
          <ns3:TrackPointExtension>
            <ns3:hr>142</ns3:hr>
            <ns3:cad>0</ns3:cad>
          </ns3:TrackPointExtension>
        </extensions>
      </trkpt>
      <trkpt lat="45.32379836775362491607666015625" lon="-71.0059514455497264862060546875">
        <ele>672.5999755859375</ele>
        <time>2026-08-21T20:50:26.000Z</time>
        <extensions>
          <ns3:TrackPointExtension>
            <ns3:hr>142</ns3:hr>
            <ns3:cad>0</ns3:cad>
          </ns3:TrackPointExtension>
        </extensions>
      </trkpt>
      <trkpt lat="45.32378411851823329925537109375" lon="-71.00595823489129543304443359375">
        <ele>673</ele>
        <time>2026-08-21T20:50:27.000Z</time>
        <extensions>
          <ns3:TrackPointExtension>
            <ns3:hr>142</ns3:hr>
            <ns3:cad>0</ns3:cad>
          </ns3:TrackPointExtension>
        </extensions>
      </trkpt>
      <trkpt lat="45.32377548515796661376953125" lon="-71.0059591569006443023681640625">
        <ele>673.20001220703125</ele>
        <time>2026-08-21T20:50:28.000Z</time>
        <extensions>
          <ns3:TrackPointExtension>
            <ns3:hr>142</ns3:hr>
            <ns3:cad>0</ns3:cad>
          </ns3:TrackPointExtension>
        </extensions>
      </trkpt>
      <trkpt lat="45.32377280294895172119140625" lon="-71.00596510805189609527587890625">
        <ele>673.4000244140625</ele>
        <time>2026-08-21T20:50:29.000Z</time>
        <extensions>
          <ns3:TrackPointExtension>
            <ns3:hr>143</ns3:hr>
            <ns3:cad>0</ns3:cad>
          </ns3:TrackPointExtension>
        </extensions>
      </trkpt>
      <trkpt lat="45.323765762150287628173828125" lon="-71.00597198121249675750732421875">
        <ele>673.5999755859375</ele>
        <time>2026-08-21T20:50:30.000Z</time>
        <extensions>
          <ns3:TrackPointExtension>
            <ns3:hr>142</ns3:hr>
            <ns3:cad>0</ns3:cad>
          </ns3:TrackPointExtension>
        </extensions>
      </trkpt>
      <trkpt lat="45.323755703866481781005859375" lon="-71.0059772618114948272705078125">
        <ele>673.79998779296875</ele>
        <time>2026-08-21T20:50:31.000Z</time>
        <extensions>
          <ns3:TrackPointExtension>
            <ns3:hr>142</ns3:hr>
            <ns3:cad>0</ns3:cad>
          </ns3:TrackPointExtension>
        </extensions>
      </trkpt>
      <trkpt lat="45.323746986687183380126953125" lon="-71.00598388351500034332275390625">
        <ele>674</ele>
        <time>2026-08-21T20:50:32.000Z</time>
        <extensions>
          <ns3:TrackPointExtension>
            <ns3:hr>142</ns3:hr>
            <ns3:cad>46</ns3:cad>
          </ns3:TrackPointExtension>
        </extensions>
      </trkpt>
      <trkpt lat="45.32373919151723384857177734375" lon="-71.00599042139947414398193359375">
        <ele>674.20001220703125</ele>
        <time>2026-08-21T20:50:33.000Z</time>
        <extensions>
          <ns3:TrackPointExtension>
            <ns3:hr>142</ns3:hr>
            <ns3:cad>46</ns3:cad>
          </ns3:TrackPointExtension>
        </extensions>
      </trkpt>
      <trkpt lat="45.32373500056564807891845703125" lon="-71.005996875464916229248046875">
        <ele>674.4000244140625</ele>
        <time>2026-08-21T20:50:34.000Z</time>
        <extensions>
          <ns3:TrackPointExtension>
            <ns3:hr>142</ns3:hr>
            <ns3:cad>46</ns3:cad>
          </ns3:TrackPointExtension>
        </extensions>
      </trkpt>
      <trkpt lat="45.32372678630053997039794921875" lon="-71.0060034133493900299072265625">
        <ele>674.5999755859375</ele>
        <time>2026-08-21T20:50:35.000Z</time>
        <extensions>
          <ns3:TrackPointExtension>
            <ns3:hr>143</ns3:hr>
            <ns3:cad>46</ns3:cad>
          </ns3:TrackPointExtension>
        </extensions>
      </trkpt>
      <trkpt lat="45.32371739856898784637451171875" lon="-71.00600969977676868438720703125">
        <ele>674.79998779296875</ele>
        <time>2026-08-21T20:50:36.000Z</time>
        <extensions>
          <ns3:TrackPointExtension>
            <ns3:hr>143</ns3:hr>
            <ns3:cad>46</ns3:cad>
          </ns3:TrackPointExtension>
        </extensions>
      </trkpt>
      <trkpt lat="45.323707759380340576171875" lon="-71.0060077719390392303466796875">
        <ele>675</ele>
        <time>2026-08-21T20:50:37.000Z</time>
        <extensions>
          <ns3:TrackPointExtension>
            <ns3:hr>143</ns3:hr>
            <ns3:cad>46</ns3:cad>
          </ns3:TrackPointExtension>
        </extensions>
      </trkpt>
      <trkpt lat="45.3237012214958667755126953125" lon="-71.00600483827292919158935546875">
        <ele>675.20001220703125</ele>
        <time>2026-08-21T20:50:38.000Z</time>
        <extensions>
          <ns3:TrackPointExtension>
            <ns3:hr>143</ns3:hr>
            <ns3:cad>46</ns3:cad>
          </ns3:TrackPointExtension>
        </extensions>
      </trkpt>
      <trkpt lat="45.32368672080338001251220703125" lon="-71.00600835867226123809814453125">
        <ele>675.4000244140625</ele>
        <time>2026-08-21T20:50:39.000Z</time>
        <extensions>
          <ns3:TrackPointExtension>
            <ns3:hr>143</ns3:hr>
            <ns3:cad>46</ns3:cad>
          </ns3:TrackPointExtension>
        </extensions>
      </trkpt>
      <trkpt lat="45.3236814402043819427490234375" lon="-71.006016321480274200439453125">
        <ele>675.5999755859375</ele>
        <time>2026-08-21T20:50:40.000Z</time>
        <extensions>
          <ns3:TrackPointExtension>
            <ns3:hr>144</ns3:hr>
            <ns3:cad>46</ns3:cad>
          </ns3:TrackPointExtension>
        </extensions>
      </trkpt>
      <trkpt lat="45.32366191036999225616455078125" lon="-71.00602596066892147064208984375">
        <ele>675.79998779296875</ele>
        <time>2026-08-21T20:50:41.000Z</time>
        <extensions>
          <ns3:TrackPointExtension>
            <ns3:hr>144</ns3:hr>
            <ns3:cad>46</ns3:cad>
          </ns3:TrackPointExtension>
        </extensions>
      </trkpt>
      <trkpt lat="45.3236474096775054931640625" lon="-71.00603635422885417938232421875">
        <ele>676</ele>
        <time>2026-08-21T20:50:42.000Z</time>
        <extensions>
          <ns3:TrackPointExtension>
            <ns3:hr>144</ns3:hr>
            <ns3:cad>46</ns3:cad>
          </ns3:TrackPointExtension>
        </extensions>
      </trkpt>
      <trkpt lat="45.32363911159336566925048828125" lon="-71.00603677332401275634765625">
        <ele>676.20001220703125</ele>
        <time>2026-08-21T20:50:43.000Z</time>
        <extensions>
          <ns3:TrackPointExtension>
            <ns3:hr>144</ns3:hr>
            <ns3:cad>46</ns3:cad>
          </ns3:TrackPointExtension>
        </extensions>
      </trkpt>
      <trkpt lat="45.3236267901957035064697265625" lon="-71.00604222156107425689697265625">
        <ele>676.4000244140625</ele>
        <time>2026-08-21T20:50:44.000Z</time>
        <extensions>
          <ns3:TrackPointExtension>
            <ns3:hr>144</ns3:hr>
            <ns3:cad>47</ns3:cad>
          </ns3:TrackPointExtension>
        </extensions>
      </trkpt>
      <trkpt lat="45.323618240654468536376953125" lon="-71.0060500167310237884521484375">
        <ele>676.5999755859375</ele>
        <time>2026-08-21T20:50:45.000Z</time>
        <extensions>
          <ns3:TrackPointExtension>
            <ns3:hr>145</ns3:hr>
            <ns3:cad>47</ns3:cad>
          </ns3:TrackPointExtension>
        </extensions>
      </trkpt>
      <trkpt lat="45.323610864579677581787109375" lon="-71.0060577280819416046142578125">
        <ele>676.5999755859375</ele>
        <time>2026-08-21T20:50:46.000Z</time>
        <extensions>
          <ns3:TrackPointExtension>
            <ns3:hr>144</ns3:hr>
            <ns3:cad>47</ns3:cad>
          </ns3:TrackPointExtension>
        </extensions>
      </trkpt>
      <trkpt lat="45.3236066736280918121337890625" lon="-71.00606351159512996673583984375">
        <ele>676.79998779296875</ele>
        <time>2026-08-21T20:50:47.000Z</time>
        <extensions>
          <ns3:TrackPointExtension>
            <ns3:hr>144</ns3:hr>
            <ns3:cad>47</ns3:cad>
          </ns3:TrackPointExtension>
        </extensions>
      </trkpt>
      <trkpt lat="45.3236023150384426116943359375" lon="-71.00607256405055522918701171875">
        <ele>677</ele>
        <time>2026-08-21T20:50:48.000Z</time>
        <extensions>
          <ns3:TrackPointExtension>
            <ns3:hr>144</ns3:hr>
            <ns3:cad>47</ns3:cad>
          </ns3:TrackPointExtension>
        </extensions>
      </trkpt>
      <trkpt lat="45.3236013092100620269775390625" lon="-71.00608932785689830780029296875">
        <ele>677.20001220703125</ele>
        <time>2026-08-21T20:50:49.000Z</time>
        <extensions>
          <ns3:TrackPointExtension>
            <ns3:hr>144</ns3:hr>
            <ns3:cad>47</ns3:cad>
          </ns3:TrackPointExtension>
        </extensions>
      </trkpt>
      <trkpt lat="45.32359921373426914215087890625" lon="-71.00609838031232357025146484375">
        <ele>677.4000244140625</ele>
        <time>2026-08-21T20:50:50.000Z</time>
        <extensions>
          <ns3:TrackPointExtension>
            <ns3:hr>144</ns3:hr>
            <ns3:cad>47</ns3:cad>
          </ns3:TrackPointExtension>
        </extensions>
      </trkpt>
      <trkpt lat="45.3235966153442859649658203125" lon="-71.00611028261482715606689453125">
        <ele>677.79998779296875</ele>
        <time>2026-08-21T20:50:51.000Z</time>
        <extensions>
          <ns3:TrackPointExtension>
            <ns3:hr>144</ns3:hr>
            <ns3:cad>43</ns3:cad>
          </ns3:TrackPointExtension>
        </extensions>
      </trkpt>
      <trkpt lat="45.323594771325588226318359375" lon="-71.0061232745647430419921875">
        <ele>678</ele>
        <time>2026-08-21T20:50:52.000Z</time>
        <extensions>
          <ns3:TrackPointExtension>
            <ns3:hr>145</ns3:hr>
            <ns3:cad>43</ns3:cad>
          </ns3:TrackPointExtension>
        </extensions>
      </trkpt>
      <trkpt lat="45.3235909156501293182373046875" lon="-71.0061341710388660430908203125">
        <ele>678.20001220703125</ele>
        <time>2026-08-21T20:50:53.000Z</time>
        <extensions>
          <ns3:TrackPointExtension>
            <ns3:hr>144</ns3:hr>
            <ns3:cad>43</ns3:cad>
          </ns3:TrackPointExtension>
        </extensions>
      </trkpt>
      <trkpt lat="45.32358664087951183319091796875" lon="-71.0061351768672466278076171875">
        <ele>678.4000244140625</ele>
        <time>2026-08-21T20:50:54.000Z</time>
        <extensions>
          <ns3:TrackPointExtension>
            <ns3:hr>144</ns3:hr>
            <ns3:cad>43</ns3:cad>
          </ns3:TrackPointExtension>
        </extensions>
      </trkpt>
      <trkpt lat="45.32358177937567234039306640625" lon="-71.00613777525722980499267578125">
        <ele>678.79998779296875</ele>
        <time>2026-08-21T20:50:55.000Z</time>
        <extensions>
          <ns3:TrackPointExtension>
            <ns3:hr>144</ns3:hr>
            <ns3:cad>43</ns3:cad>
          </ns3:TrackPointExtension>
        </extensions>
      </trkpt>
      <trkpt lat="45.323575995862483978271484375" lon="-71.00614414550364017486572265625">
        <ele>679</ele>
        <time>2026-08-21T20:50:56.000Z</time>
        <extensions>
          <ns3:TrackPointExtension>
            <ns3:hr>145</ns3:hr>
            <ns3:cad>45</ns3:cad>
          </ns3:TrackPointExtension>
        </extensions>
      </trkpt>
      <trkpt lat="45.323573648929595947265625" lon="-71.0061361826956272125244140625">
        <ele>679.20001220703125</ele>
        <time>2026-08-21T20:50:57.000Z</time>
        <extensions>
          <ns3:TrackPointExtension>
            <ns3:hr>144</ns3:hr>
            <ns3:cad>45</ns3:cad>
          </ns3:TrackPointExtension>
        </extensions>
      </trkpt>
      <trkpt lat="45.3235677815973758697509765625" lon="-71.00613609887659549713134765625">
        <ele>679.4000244140625</ele>
        <time>2026-08-21T20:50:58.000Z</time>
        <extensions>
          <ns3:TrackPointExtension>
            <ns3:hr>144</ns3:hr>
            <ns3:cad>45</ns3:cad>
          </ns3:TrackPointExtension>
        </extensions>
      </trkpt>
      <trkpt lat="45.32355688512325286865234375" lon="-71.0061393678188323974609375">
        <ele>679.79998779296875</ele>
        <time>2026-08-21T20:50:59.000Z</time>
        <extensions>
          <ns3:TrackPointExtension>
            <ns3:hr>144</ns3:hr>
            <ns3:cad>45</ns3:cad>
          </ns3:TrackPointExtension>
        </extensions>
      </trkpt>
      <trkpt lat="45.32355261035263538360595703125" lon="-71.006137691438198089599609375">
        <ele>680</ele>
        <time>2026-08-21T20:51:00.000Z</time>
        <extensions>
          <ns3:TrackPointExtension>
            <ns3:hr>145</ns3:hr>
            <ns3:cad>45</ns3:cad>
          </ns3:TrackPointExtension>
        </extensions>
      </trkpt>
      <trkpt lat="45.3235526941716670989990234375" lon="-71.0061435587704181671142578125">
        <ele>680.4000244140625</ele>
        <time>2026-08-21T20:51:01.000Z</time>
        <extensions>
          <ns3:TrackPointExtension>
            <ns3:hr>144</ns3:hr>
            <ns3:cad>0</ns3:cad>
          </ns3:TrackPointExtension>
        </extensions>
      </trkpt>
      <trkpt lat="45.32354724593460559844970703125" lon="-71.00614800117909908294677734375">
        <ele>680.5999755859375</ele>
        <time>2026-08-21T20:51:02.000Z</time>
        <extensions>
          <ns3:TrackPointExtension>
            <ns3:hr>144</ns3:hr>
            <ns3:cad>0</ns3:cad>
          </ns3:TrackPointExtension>
        </extensions>
      </trkpt>
      <trkpt lat="45.323541462421417236328125" lon="-71.00615185685455799102783203125">
        <ele>680.79998779296875</ele>
        <time>2026-08-21T20:51:03.000Z</time>
        <extensions>
          <ns3:TrackPointExtension>
            <ns3:hr>145</ns3:hr>
            <ns3:cad>0</ns3:cad>
          </ns3:TrackPointExtension>
        </extensions>
      </trkpt>
      <trkpt lat="45.32353048212826251983642578125" lon="-71.00616057403385639190673828125">
        <ele>681</ele>
        <time>2026-08-21T20:51:04.000Z</time>
        <extensions>
          <ns3:TrackPointExtension>
            <ns3:hr>144</ns3:hr>
            <ns3:cad>0</ns3:cad>
          </ns3:TrackPointExtension>
        </extensions>
      </trkpt>
      <trkpt lat="45.32352528534829616546630859375" lon="-71.0061653517186641693115234375">
        <ele>681.20001220703125</ele>
        <time>2026-08-21T20:51:05.000Z</time>
        <extensions>
          <ns3:TrackPointExtension>
            <ns3:hr>145</ns3:hr>
            <ns3:cad>0</ns3:cad>
          </ns3:TrackPointExtension>
        </extensions>
      </trkpt>
      <trkpt lat="45.3235195018351078033447265625" lon="-71.006161160767078399658203125">
        <ele>681.4000244140625</ele>
        <time>2026-08-21T20:51:06.000Z</time>
        <extensions>
          <ns3:TrackPointExtension>
            <ns3:hr>145</ns3:hr>
            <ns3:cad>0</ns3:cad>
          </ns3:TrackPointExtension>
        </extensions>
      </trkpt>
      <trkpt lat="45.32351388595998287200927734375" lon="-71.006157808005809783935546875">
        <ele>681.5999755859375</ele>
        <time>2026-08-21T20:51:07.000Z</time>
        <extensions>
          <ns3:TrackPointExtension>
            <ns3:hr>145</ns3:hr>
            <ns3:cad>0</ns3:cad>
          </ns3:TrackPointExtension>
        </extensions>
      </trkpt>
      <trkpt lat="45.32350315712392330169677734375" lon="-71.0061623342335224151611328125">
        <ele>681.79998779296875</ele>
        <time>2026-08-21T20:51:08.000Z</time>
        <extensions>
          <ns3:TrackPointExtension>
            <ns3:hr>144</ns3:hr>
            <ns3:cad>0</ns3:cad>
          </ns3:TrackPointExtension>
        </extensions>
      </trkpt>
      <trkpt lat="45.3234972059726715087890625" lon="-71.00616459734737873077392578125">
        <ele>682</ele>
        <time>2026-08-21T20:51:09.000Z</time>
        <extensions>
          <ns3:TrackPointExtension>
            <ns3:hr>144</ns3:hr>
            <ns3:cad>0</ns3:cad>
          </ns3:TrackPointExtension>
        </extensions>
      </trkpt>
      <trkpt lat="45.32349125482141971588134765625" lon="-71.00616208277642726898193359375">
        <ele>682.20001220703125</ele>
        <time>2026-08-21T20:51:10.000Z</time>
        <extensions>
          <ns3:TrackPointExtension>
            <ns3:hr>144</ns3:hr>
            <ns3:cad>0</ns3:cad>
          </ns3:TrackPointExtension>
        </extensions>
      </trkpt>
      <trkpt lat="45.3234842978417873382568359375" lon="-71.00616057403385639190673828125">
        <ele>682.4000244140625</ele>
        <time>2026-08-21T20:51:11.000Z</time>
        <extensions>
          <ns3:TrackPointExtension>
            <ns3:hr>144</ns3:hr>
            <ns3:cad>43</ns3:cad>
          </ns3:TrackPointExtension>
        </extensions>
      </trkpt>
      <trkpt lat="45.323475413024425506591796875" lon="-71.00616258569061756134033203125">
        <ele>682.4000244140625</ele>
        <time>2026-08-21T20:51:12.000Z</time>
        <extensions>
          <ns3:TrackPointExtension>
            <ns3:hr>144</ns3:hr>
            <ns3:cad>43</ns3:cad>
          </ns3:TrackPointExtension>
        </extensions>
      </trkpt>
      <trkpt lat="45.3234675340354442596435546875" lon="-71.00616686046123504638671875">
        <ele>682.5999755859375</ele>
        <time>2026-08-21T20:51:13.000Z</time>
        <extensions>
          <ns3:TrackPointExtension>
            <ns3:hr>144</ns3:hr>
            <ns3:cad>41</ns3:cad>
          </ns3:TrackPointExtension>
        </extensions>
      </trkpt>
      <trkpt lat="45.3234601579606533050537109375" lon="-71.0061710514128208160400390625">
        <ele>682.79998779296875</ele>
        <time>2026-08-21T20:51:14.000Z</time>
        <extensions>
          <ns3:TrackPointExtension>
            <ns3:hr>144</ns3:hr>
            <ns3:cad>41</ns3:cad>
          </ns3:TrackPointExtension>
        </extensions>
      </trkpt>
      <trkpt lat="45.3234527818858623504638671875" lon="-71.00618018768727779388427734375">
        <ele>683</ele>
        <time>2026-08-21T20:51:15.000Z</time>
        <extensions>
          <ns3:TrackPointExtension>
            <ns3:hr>145</ns3:hr>
            <ns3:cad>41</ns3:cad>
          </ns3:TrackPointExtension>
        </extensions>
      </trkpt>
      <trkpt lat="45.32344414852559566497802734375" lon="-71.00618555210530757904052734375">
        <ele>683.20001220703125</ele>
        <time>2026-08-21T20:51:16.000Z</time>
        <extensions>
          <ns3:TrackPointExtension>
            <ns3:hr>145</ns3:hr>
            <ns3:cad>41</ns3:cad>
          </ns3:TrackPointExtension>
        </extensions>
      </trkpt>
      <trkpt lat="45.32343978993594646453857421875" lon="-71.0061928443610668182373046875">
        <ele>683.4000244140625</ele>
        <time>2026-08-21T20:51:17.000Z</time>
        <extensions>
          <ns3:TrackPointExtension>
            <ns3:hr>145</ns3:hr>
            <ns3:cad>41</ns3:cad>
          </ns3:TrackPointExtension>
        </extensions>
      </trkpt>
      <trkpt lat="45.3234346769750118255615234375" lon="-71.00620449520647525787353515625">
        <ele>683.5999755859375</ele>
        <time>2026-08-21T20:51:18.000Z</time>
        <extensions>
          <ns3:TrackPointExtension>
            <ns3:hr>145</ns3:hr>
            <ns3:cad>0</ns3:cad>
          </ns3:TrackPointExtension>
        </extensions>
      </trkpt>
      <trkpt lat="45.3234274685382843017578125" lon="-71.00621555931866168975830078125">
        <ele>683.79998779296875</ele>
        <time>2026-08-21T20:51:19.000Z</time>
        <extensions>
          <ns3:TrackPointExtension>
            <ns3:hr>145</ns3:hr>
            <ns3:cad>0</ns3:cad>
          </ns3:TrackPointExtension>
        </extensions>
      </trkpt>
      <trkpt lat="45.32342143356800079345703125" lon="-71.00622528232634067535400390625">
        <ele>684</ele>
        <time>2026-08-21T20:51:20.000Z</time>
        <extensions>
          <ns3:TrackPointExtension>
            <ns3:hr>144</ns3:hr>
            <ns3:cad>0</ns3:cad>
          </ns3:TrackPointExtension>
        </extensions>
      </trkpt>
      <trkpt lat="45.3234169073402881622314453125" lon="-71.00624464452266693115234375">
        <ele>684.20001220703125</ele>
        <time>2026-08-21T20:51:21.000Z</time>
        <extensions>
          <ns3:TrackPointExtension>
            <ns3:hr>144</ns3:hr>
            <ns3:cad>0</ns3:cad>
          </ns3:TrackPointExtension>
        </extensions>
      </trkpt>
      <trkpt lat="45.323404334485530853271484375" lon="-71.00625981576740741729736328125">
        <ele>684.4000244140625</ele>
        <time>2026-08-21T20:51:22.000Z</time>
        <extensions>
          <ns3:TrackPointExtension>
            <ns3:hr>144</ns3:hr>
            <ns3:cad>0</ns3:cad>
          </ns3:TrackPointExtension>
        </extensions>
      </trkpt>
      <trkpt lat="45.32340240664780139923095703125" lon="-71.0062652640044689178466796875">
        <ele>684.5999755859375</ele>
        <time>2026-08-21T20:51:23.000Z</time>
        <extensions>
          <ns3:TrackPointExtension>
            <ns3:hr>144</ns3:hr>
            <ns3:cad>0</ns3:cad>
          </ns3:TrackPointExtension>
        </extensions>
      </trkpt>
      <trkpt lat="45.32339436002075672149658203125" lon="-71.0062729753553867340087890625">
        <ele>684.79998779296875</ele>
        <time>2026-08-21T20:51:24.000Z</time>
        <extensions>
          <ns3:TrackPointExtension>
            <ns3:hr>144</ns3:hr>
            <ns3:cad>0</ns3:cad>
          </ns3:TrackPointExtension>
        </extensions>
      </trkpt>
      <trkpt lat="45.32338581047952175140380859375" lon="-71.00627976469695568084716796875">
        <ele>685</ele>
        <time>2026-08-21T20:51:25.000Z</time>
        <extensions>
          <ns3:TrackPointExtension>
            <ns3:hr>145</ns3:hr>
            <ns3:cad>41</ns3:cad>
          </ns3:TrackPointExtension>
        </extensions>
      </trkpt>
      <trkpt lat="45.32338212244212627410888671875" lon="-71.0062853805720806121826171875">
        <ele>685.20001220703125</ele>
        <time>2026-08-21T20:51:26.000Z</time>
        <extensions>
          <ns3:TrackPointExtension>
            <ns3:hr>145</ns3:hr>
            <ns3:cad>41</ns3:cad>
          </ns3:TrackPointExtension>
        </extensions>
      </trkpt>
      <trkpt lat="45.32338027842342853546142578125" lon="-71.0062873922288417816162109375">
        <ele>685.4000244140625</ele>
        <time>2026-08-21T20:51:27.000Z</time>
        <extensions>
          <ns3:TrackPointExtension>
            <ns3:hr>146</ns3:hr>
            <ns3:cad>41</ns3:cad>
          </ns3:TrackPointExtension>
        </extensions>
      </trkpt>
      <trkpt lat="45.323370136320590972900390625" lon="-71.00629250518977642059326171875">
        <ele>685.5999755859375</ele>
        <time>2026-08-21T20:51:28.000Z</time>
        <extensions>
          <ns3:TrackPointExtension>
            <ns3:hr>146</ns3:hr>
            <ns3:cad>41</ns3:cad>
          </ns3:TrackPointExtension>
        </extensions>
      </trkpt>
      <trkpt lat="45.32336066477000713348388671875" lon="-71.0062954388558864593505859375">
        <ele>685.79998779296875</ele>
        <time>2026-08-21T20:51:29.000Z</time>
        <extensions>
          <ns3:TrackPointExtension>
            <ns3:hr>146</ns3:hr>
            <ns3:cad>41</ns3:cad>
          </ns3:TrackPointExtension>
        </extensions>
      </trkpt>
      <trkpt lat="45.323354713618755340576171875" lon="-71.00630088709294795989990234375">
        <ele>686</ele>
        <time>2026-08-21T20:51:30.000Z</time>
        <extensions>
          <ns3:TrackPointExtension>
            <ns3:hr>145</ns3:hr>
            <ns3:cad>41</ns3:cad>
          </ns3:TrackPointExtension>
        </extensions>
      </trkpt>
      <trkpt lat="45.32334591262042522430419921875" lon="-71.0063108615577220916748046875">
        <ele>686.20001220703125</ele>
        <time>2026-08-21T20:51:31.000Z</time>
        <extensions>
          <ns3:TrackPointExtension>
            <ns3:hr>145</ns3:hr>
            <ns3:cad>41</ns3:cad>
          </ns3:TrackPointExtension>
        </extensions>
      </trkpt>
      <trkpt lat="45.32334029674530029296875" lon="-71.00631974637508392333984375">
        <ele>686.4000244140625</ele>
        <time>2026-08-21T20:51:32.000Z</time>
        <extensions>
          <ns3:TrackPointExtension>
            <ns3:hr>145</ns3:hr>
            <ns3:cad>41</ns3:cad>
          </ns3:TrackPointExtension>
        </extensions>
      </trkpt>
      <trkpt lat="45.3233350999653339385986328125" lon="-71.006327457726001739501953125">
        <ele>686.5999755859375</ele>
        <time>2026-08-21T20:51:33.000Z</time>
        <extensions>
          <ns3:TrackPointExtension>
            <ns3:hr>146</ns3:hr>
            <ns3:cad>41</ns3:cad>
          </ns3:TrackPointExtension>
        </extensions>
      </trkpt>
      <trkpt lat="45.32332680188119411468505859375" lon="-71.0063370130956172943115234375">
        <ele>686.79998779296875</ele>
        <time>2026-08-21T20:51:34.000Z</time>
        <extensions>
          <ns3:TrackPointExtension>
            <ns3:hr>146</ns3:hr>
            <ns3:cad>41</ns3:cad>
          </ns3:TrackPointExtension>
        </extensions>
      </trkpt>
      <trkpt lat="45.32331682741641998291015625" lon="-71.00634531117975711822509765625">
        <ele>687</ele>
        <time>2026-08-21T20:51:35.000Z</time>
        <extensions>
          <ns3:TrackPointExtension>
            <ns3:hr>146</ns3:hr>
            <ns3:cad>43</ns3:cad>
          </ns3:TrackPointExtension>
        </extensions>
      </trkpt>
      <trkpt lat="45.3233089484274387359619140625" lon="-71.00635754875838756561279296875">
        <ele>687.20001220703125</ele>
        <time>2026-08-21T20:51:36.000Z</time>
        <extensions>
          <ns3:TrackPointExtension>
            <ns3:hr>147</ns3:hr>
            <ns3:cad>43</ns3:cad>
          </ns3:TrackPointExtension>
        </extensions>
      </trkpt>
      <trkpt lat="45.3233049251139163970947265625" lon="-71.0063593089580535888671875">
        <ele>687.4000244140625</ele>
        <time>2026-08-21T20:51:37.000Z</time>
        <extensions>
          <ns3:TrackPointExtension>
            <ns3:hr>147</ns3:hr>
            <ns3:cad>43</ns3:cad>
          </ns3:TrackPointExtension>
        </extensions>
      </trkpt>
      <trkpt lat="45.32329897396266460418701171875" lon="-71.0063645057380199432373046875">
        <ele>687.5999755859375</ele>
        <time>2026-08-21T20:51:38.000Z</time>
        <extensions>
          <ns3:TrackPointExtension>
            <ns3:hr>148</ns3:hr>
            <ns3:cad>46</ns3:cad>
          </ns3:TrackPointExtension>
        </extensions>
      </trkpt>
      <trkpt lat="45.32329059205949306488037109375" lon="-71.006373725831508636474609375">
        <ele>687.79998779296875</ele>
        <time>2026-08-21T20:51:39.000Z</time>
        <extensions>
          <ns3:TrackPointExtension>
            <ns3:hr>148</ns3:hr>
            <ns3:cad>46</ns3:cad>
          </ns3:TrackPointExtension>
        </extensions>
      </trkpt>
      <trkpt lat="45.32328153960406780242919921875" lon="-71.00638135336339473724365234375">
        <ele>688</ele>
        <time>2026-08-21T20:51:40.000Z</time>
        <extensions>
          <ns3:TrackPointExtension>
            <ns3:hr>148</ns3:hr>
            <ns3:cad>47</ns3:cad>
          </ns3:TrackPointExtension>
        </extensions>
      </trkpt>
      <trkpt lat="45.32327332533895969390869140625" lon="-71.00639082491397857666015625">
        <ele>688.20001220703125</ele>
        <time>2026-08-21T20:51:41.000Z</time>
        <extensions>
          <ns3:TrackPointExtension>
            <ns3:hr>148</ns3:hr>
            <ns3:cad>47</ns3:cad>
          </ns3:TrackPointExtension>
        </extensions>
      </trkpt>
      <trkpt lat="45.32326226122677326202392578125" lon="-71.006399206817150115966796875">
        <ele>688.4000244140625</ele>
        <time>2026-08-21T20:51:42.000Z</time>
        <extensions>
          <ns3:TrackPointExtension>
            <ns3:hr>148</ns3:hr>
            <ns3:cad>47</ns3:cad>
          </ns3:TrackPointExtension>
        </extensions>
      </trkpt>
      <trkpt lat="45.32326024957001209259033203125" lon="-71.00641186349093914031982421875">
        <ele>688.5999755859375</ele>
        <time>2026-08-21T20:51:43.000Z</time>
        <extensions>
          <ns3:TrackPointExtension>
            <ns3:hr>149</ns3:hr>
            <ns3:cad>43</ns3:cad>
          </ns3:TrackPointExtension>
        </extensions>
      </trkpt>
      <trkpt lat="45.32325203530490398406982421875" lon="-71.006425358355045318603515625">
        <ele>688.79998779296875</ele>
        <time>2026-08-21T20:51:44.000Z</time>
        <extensions>
          <ns3:TrackPointExtension>
            <ns3:hr>148</ns3:hr>
            <ns3:cad>43</ns3:cad>
          </ns3:TrackPointExtension>
        </extensions>
      </trkpt>
      <trkpt lat="45.3232412226498126983642578125" lon="-71.00643181242048740386962890625">
        <ele>688.79998779296875</ele>
        <time>2026-08-21T20:51:45.000Z</time>
        <extensions>
          <ns3:TrackPointExtension>
            <ns3:hr>148</ns3:hr>
            <ns3:cad>44</ns3:cad>
          </ns3:TrackPointExtension>
        </extensions>
      </trkpt>
      <trkpt lat="45.3232382051646709442138671875" lon="-71.00643482990562915802001953125">
        <ele>689</ele>
        <time>2026-08-21T20:51:46.000Z</time>
        <extensions>
          <ns3:TrackPointExtension>
            <ns3:hr>149</ns3:hr>
            <ns3:cad>44</ns3:cad>
          </ns3:TrackPointExtension>
        </extensions>
      </trkpt>
      <trkpt lat="45.323227979242801666259765625" lon="-71.00644354708492755889892578125">
        <ele>689.20001220703125</ele>
        <time>2026-08-21T20:51:47.000Z</time>
        <extensions>
          <ns3:TrackPointExtension>
            <ns3:hr>148</ns3:hr>
            <ns3:cad>44</ns3:cad>
          </ns3:TrackPointExtension>
        </extensions>
      </trkpt>
      <trkpt lat="45.32322085462510585784912109375" lon="-71.00644673220813274383544921875">
        <ele>689.4000244140625</ele>
        <time>2026-08-21T20:51:48.000Z</time>
        <extensions>
          <ns3:TrackPointExtension>
            <ns3:hr>148</ns3:hr>
            <ns3:cad>44</ns3:cad>
          </ns3:TrackPointExtension>
        </extensions>
      </trkpt>
      <trkpt lat="45.32321616075932979583740234375" lon="-71.00645293481647968292236328125">
        <ele>689.5999755859375</ele>
        <time>2026-08-21T20:51:49.000Z</time>
        <extensions>
          <ns3:TrackPointExtension>
            <ns3:hr>147</ns3:hr>
            <ns3:cad>44</ns3:cad>
          </ns3:TrackPointExtension>
        </extensions>
      </trkpt>
      <trkpt lat="45.3232090361416339874267578125" lon="-71.006459556519985198974609375">
        <ele>689.79998779296875</ele>
        <time>2026-08-21T20:51:50.000Z</time>
        <extensions>
          <ns3:TrackPointExtension>
            <ns3:hr>147</ns3:hr>
            <ns3:cad>45</ns3:cad>
          </ns3:TrackPointExtension>
        </extensions>
      </trkpt>
      <trkpt lat="45.3231996484100818634033203125" lon="-71.00646592676639556884765625">
        <ele>690</ele>
        <time>2026-08-21T20:51:51.000Z</time>
        <extensions>
          <ns3:TrackPointExtension>
            <ns3:hr>147</ns3:hr>
            <ns3:cad>45</ns3:cad>
          </ns3:TrackPointExtension>
        </extensions>
      </trkpt>
      <trkpt lat="45.32319118268787860870361328125" lon="-71.00647020153701305389404296875">
        <ele>690</ele>
        <time>2026-08-21T20:51:52.000Z</time>
        <extensions>
          <ns3:TrackPointExtension>
            <ns3:hr>146</ns3:hr>
            <ns3:cad>0</ns3:cad>
          </ns3:TrackPointExtension>
        </extensions>
      </trkpt>
      <trkpt lat="45.32318405807018280029296875" lon="-71.00648277439177036285400390625">
        <ele>690.20001220703125</ele>
        <time>2026-08-21T20:51:53.000Z</time>
        <extensions>
          <ns3:TrackPointExtension>
            <ns3:hr>146</ns3:hr>
            <ns3:cad>0</ns3:cad>
          </ns3:TrackPointExtension>
        </extensions>
      </trkpt>
      <trkpt lat="45.3231758438050746917724609375" lon="-71.00649534724652767181396484375">
        <ele>690.20001220703125</ele>
        <time>2026-08-21T20:51:54.000Z</time>
        <extensions>
          <ns3:TrackPointExtension>
            <ns3:hr>146</ns3:hr>
            <ns3:cad>47</ns3:cad>
          </ns3:TrackPointExtension>
        </extensions>
      </trkpt>
      <trkpt lat="45.32316721044480800628662109375" lon="-71.00650842301547527313232421875">
        <ele>690.4000244140625</ele>
        <time>2026-08-21T20:51:55.000Z</time>
        <extensions>
          <ns3:TrackPointExtension>
            <ns3:hr>146</ns3:hr>
            <ns3:cad>47</ns3:cad>
          </ns3:TrackPointExtension>
        </extensions>
      </trkpt>
      <trkpt lat="45.32316033728420734405517578125" lon="-71.0065160505473613739013671875">
        <ele>690.4000244140625</ele>
        <time>2026-08-21T20:51:56.000Z</time>
        <extensions>
          <ns3:TrackPointExtension>
            <ns3:hr>146</ns3:hr>
            <ns3:cad>47</ns3:cad>
          </ns3:TrackPointExtension>
        </extensions>
      </trkpt>
      <trkpt lat="45.32315078191459178924560546875" lon="-71.0065282881259918212890625">
        <ele>690.5999755859375</ele>
        <time>2026-08-21T20:51:57.000Z</time>
        <extensions>
          <ns3:TrackPointExtension>
            <ns3:hr>146</ns3:hr>
            <ns3:cad>47</ns3:cad>
          </ns3:TrackPointExtension>
        </extensions>
      </trkpt>
      <trkpt lat="45.32314089126884937286376953125" lon="-71.0065432079136371612548828125">
        <ele>690.79998779296875</ele>
        <time>2026-08-21T20:51:58.000Z</time>
        <extensions>
          <ns3:TrackPointExtension>
            <ns3:hr>145</ns3:hr>
            <ns3:cad>47</ns3:cad>
          </ns3:TrackPointExtension>
        </extensions>
      </trkpt>
      <trkpt lat="45.323138125240802764892578125" lon="-71.00654329173266887664794921875">
        <ele>690.79998779296875</ele>
        <time>2026-08-21T20:51:59.000Z</time>
        <extensions>
          <ns3:TrackPointExtension>
            <ns3:hr>145</ns3:hr>
            <ns3:cad>47</ns3:cad>
          </ns3:TrackPointExtension>
        </extensions>
      </trkpt>
      <trkpt lat="45.32313100062310695648193359375" lon="-71.0065522603690624237060546875">
        <ele>691</ele>
        <time>2026-08-21T20:52:00.000Z</time>
        <extensions>
          <ns3:TrackPointExtension>
            <ns3:hr>145</ns3:hr>
            <ns3:cad>46</ns3:cad>
          </ns3:TrackPointExtension>
        </extensions>
      </trkpt>
      <trkpt lat="45.3231238760054111480712890625" lon="-71.00656139664351940155029296875">
        <ele>691.20001220703125</ele>
        <time>2026-08-21T20:52:01.000Z</time>
        <extensions>
          <ns3:TrackPointExtension>
            <ns3:hr>145</ns3:hr>
            <ns3:cad>46</ns3:cad>
          </ns3:TrackPointExtension>
        </extensions>
      </trkpt>
      <trkpt lat="45.32312236726284027099609375" lon="-71.0065650008618831634521484375">
        <ele>691.4000244140625</ele>
        <time>2026-08-21T20:52:02.000Z</time>
        <extensions>
          <ns3:TrackPointExtension>
            <ns3:hr>144</ns3:hr>
            <ns3:cad>0</ns3:cad>
          </ns3:TrackPointExtension>
        </extensions>
      </trkpt>
      <trkpt lat="45.32311708666384220123291015625" lon="-71.00656424649059772491455078125">
        <ele>691.5999755859375</ele>
        <time>2026-08-21T20:52:03.000Z</time>
        <extensions>
          <ns3:TrackPointExtension>
            <ns3:hr>144</ns3:hr>
            <ns3:cad>0</ns3:cad>
          </ns3:TrackPointExtension>
        </extensions>
      </trkpt>
      <trkpt lat="45.32310551963746547698974609375" lon="-71.00657296366989612579345703125">
        <ele>691.79998779296875</ele>
        <time>2026-08-21T20:52:04.000Z</time>
        <extensions>
          <ns3:TrackPointExtension>
            <ns3:hr>144</ns3:hr>
            <ns3:cad>47</ns3:cad>
          </ns3:TrackPointExtension>
        </extensions>
      </trkpt>
      <trkpt lat="45.3231029212474822998046875" lon="-71.006576232612133026123046875">
        <ele>692</ele>
        <time>2026-08-21T20:52:05.000Z</time>
        <extensions>
          <ns3:TrackPointExtension>
            <ns3:hr>143</ns3:hr>
            <ns3:cad>47</ns3:cad>
          </ns3:TrackPointExtension>
        </extensions>
      </trkpt>
      <trkpt lat="45.323095209896564483642578125" lon="-71.0065804235637187957763671875">
        <ele>692.20001220703125</ele>
        <time>2026-08-21T20:52:06.000Z</time>
        <extensions>
          <ns3:TrackPointExtension>
            <ns3:hr>143</ns3:hr>
            <ns3:cad>47</ns3:cad>
          </ns3:TrackPointExtension>
        </extensions>
      </trkpt>
      <trkpt lat="45.32308339141309261322021484375" lon="-71.00658117793500423431396484375">
        <ele>692.4000244140625</ele>
        <time>2026-08-21T20:52:07.000Z</time>
        <extensions>
          <ns3:TrackPointExtension>
            <ns3:hr>142</ns3:hr>
            <ns3:cad>47</ns3:cad>
          </ns3:TrackPointExtension>
        </extensions>
      </trkpt>
      <trkpt lat="45.32308079302310943603515625" lon="-71.00658419542014598846435546875">
        <ele>692.5999755859375</ele>
        <time>2026-08-21T20:52:08.000Z</time>
        <extensions>
          <ns3:TrackPointExtension>
            <ns3:hr>142</ns3:hr>
            <ns3:cad>47</ns3:cad>
          </ns3:TrackPointExtension>
        </extensions>
      </trkpt>
      <trkpt lat="45.32307232730090618133544921875" lon="-71.0065881349146366119384765625">
        <ele>692.79998779296875</ele>
        <time>2026-08-21T20:52:09.000Z</time>
        <extensions>
          <ns3:TrackPointExtension>
            <ns3:hr>142</ns3:hr>
            <ns3:cad>0</ns3:cad>
          </ns3:TrackPointExtension>
        </extensions>
      </trkpt>
      <trkpt lat="45.3230628557503223419189453125" lon="-71.00658905692398548126220703125">
        <ele>692.79998779296875</ele>
        <time>2026-08-21T20:52:10.000Z</time>
        <extensions>
          <ns3:TrackPointExtension>
            <ns3:hr>142</ns3:hr>
            <ns3:cad>0</ns3:cad>
          </ns3:TrackPointExtension>
        </extensions>
      </trkpt>
      <trkpt lat="45.32305422239005565643310546875" lon="-71.00659106858074665069580078125">
        <ele>693</ele>
        <time>2026-08-21T20:52:11.000Z</time>
        <extensions>
          <ns3:TrackPointExtension>
            <ns3:hr>142</ns3:hr>
            <ns3:cad>0</ns3:cad>
          </ns3:TrackPointExtension>
        </extensions>
      </trkpt>
      <trkpt lat="45.32304684631526470184326171875" lon="-71.0065931640565395355224609375">
        <ele>693.20001220703125</ele>
        <time>2026-08-21T20:52:12.000Z</time>
        <extensions>
          <ns3:TrackPointExtension>
            <ns3:hr>142</ns3:hr>
            <ns3:cad>0</ns3:cad>
          </ns3:TrackPointExtension>
        </extensions>
      </trkpt>
      <trkpt lat="45.32303611747920513153076171875" lon="-71.0065955109894275665283203125">
        <ele>693.4000244140625</ele>
        <time>2026-08-21T20:52:13.000Z</time>
        <extensions>
          <ns3:TrackPointExtension>
            <ns3:hr>142</ns3:hr>
            <ns3:cad>0</ns3:cad>
          </ns3:TrackPointExtension>
        </extensions>
      </trkpt>
      <trkpt lat="45.32302957959473133087158203125" lon="-71.0065978579223155975341796875">
        <ele>693.5999755859375</ele>
        <time>2026-08-21T20:52:14.000Z</time>
        <extensions>
          <ns3:TrackPointExtension>
            <ns3:hr>142</ns3:hr>
            <ns3:cad>0</ns3:cad>
          </ns3:TrackPointExtension>
        </extensions>
      </trkpt>
      <trkpt lat="45.32302421517670154571533203125" lon="-71.0065980255603790283203125">
        <ele>693.5999755859375</ele>
        <time>2026-08-21T20:52:15.000Z</time>
        <extensions>
          <ns3:TrackPointExtension>
            <ns3:hr>142</ns3:hr>
            <ns3:cad>0</ns3:cad>
          </ns3:TrackPointExtension>
        </extensions>
      </trkpt>
      <trkpt lat="45.32300963066518306732177734375" lon="-71.00660246796905994415283203125">
        <ele>693.79998779296875</ele>
        <time>2026-08-21T20:52:16.000Z</time>
        <extensions>
          <ns3:TrackPointExtension>
            <ns3:hr>142</ns3:hr>
            <ns3:cad>0</ns3:cad>
          </ns3:TrackPointExtension>
        </extensions>
      </trkpt>
      <trkpt lat="45.3230011649429798126220703125" lon="-71.00660950876772403717041015625">
        <ele>694</ele>
        <time>2026-08-21T20:52:17.000Z</time>
        <extensions>
          <ns3:TrackPointExtension>
            <ns3:hr>142</ns3:hr>
            <ns3:cad>0</ns3:cad>
          </ns3:TrackPointExtension>
        </extensions>
      </trkpt>
      <trkpt lat="45.32299722544848918914794921875" lon="-71.00660934112966060638427734375">
        <ele>694.20001220703125</ele>
        <time>2026-08-21T20:52:18.000Z</time>
        <extensions>
          <ns3:TrackPointExtension>
            <ns3:hr>142</ns3:hr>
            <ns3:cad>0</ns3:cad>
          </ns3:TrackPointExtension>
        </extensions>
      </trkpt>
      <trkpt lat="45.32299068756401538848876953125" lon="-71.006615795195102691650390625">
        <ele>694.4000244140625</ele>
        <time>2026-08-21T20:52:19.000Z</time>
        <extensions>
          <ns3:TrackPointExtension>
            <ns3:hr>142</ns3:hr>
            <ns3:cad>0</ns3:cad>
          </ns3:TrackPointExtension>
        </extensions>
      </trkpt>
      <trkpt lat="45.3229790367186069488525390625" lon="-71.00662794895470142364501953125">
        <ele>694.5999755859375</ele>
        <time>2026-08-21T20:52:20.000Z</time>
        <extensions>
          <ns3:TrackPointExtension>
            <ns3:hr>142</ns3:hr>
            <ns3:cad>0</ns3:cad>
          </ns3:TrackPointExtension>
        </extensions>
      </trkpt>
      <trkpt lat="45.3229716606438159942626953125" lon="-71.0066297091543674468994140625">
        <ele>694.79998779296875</ele>
        <time>2026-08-21T20:52:21.000Z</time>
        <extensions>
          <ns3:TrackPointExtension>
            <ns3:hr>142</ns3:hr>
            <ns3:cad>43</ns3:cad>
          </ns3:TrackPointExtension>
        </extensions>
      </trkpt>
      <trkpt lat="45.32296814024448394775390625" lon="-71.00663398392498493194580078125">
        <ele>695</ele>
        <time>2026-08-21T20:52:22.000Z</time>
        <extensions>
          <ns3:TrackPointExtension>
            <ns3:hr>142</ns3:hr>
            <ns3:cad>45</ns3:cad>
          </ns3:TrackPointExtension>
        </extensions>
      </trkpt>
      <trkpt lat="45.3229582495987415313720703125" lon="-71.00664697587490081787109375">
        <ele>695</ele>
        <time>2026-08-21T20:52:23.000Z</time>
        <extensions>
          <ns3:TrackPointExtension>
            <ns3:hr>141</ns3:hr>
            <ns3:cad>45</ns3:cad>
          </ns3:TrackPointExtension>
        </extensions>
      </trkpt>
      <trkpt lat="45.32294810749590396881103515625" lon="-71.006653010845184326171875">
        <ele>695.20001220703125</ele>
        <time>2026-08-21T20:52:24.000Z</time>
        <extensions>
          <ns3:TrackPointExtension>
            <ns3:hr>141</ns3:hr>
            <ns3:cad>45</ns3:cad>
          </ns3:TrackPointExtension>
        </extensions>
      </trkpt>
      <trkpt lat="45.3229438327252864837646484375" lon="-71.00665879435837268829345703125">
        <ele>695.4000244140625</ele>
        <time>2026-08-21T20:52:25.000Z</time>
        <extensions>
          <ns3:TrackPointExtension>
            <ns3:hr>141</ns3:hr>
            <ns3:cad>45</ns3:cad>
          </ns3:TrackPointExtension>
        </extensions>
      </trkpt>
      <trkpt lat="45.32293922267854213714599609375" lon="-71.00666315294802188873291015625">
        <ele>695.5999755859375</ele>
        <time>2026-08-21T20:52:26.000Z</time>
        <extensions>
          <ns3:TrackPointExtension>
            <ns3:hr>140</ns3:hr>
            <ns3:cad>45</ns3:cad>
          </ns3:TrackPointExtension>
        </extensions>
      </trkpt>
      <trkpt lat="45.32293268479406833648681640625" lon="-71.0066753067076206207275390625">
        <ele>695.79998779296875</ele>
        <time>2026-08-21T20:52:27.000Z</time>
        <extensions>
          <ns3:TrackPointExtension>
            <ns3:hr>140</ns3:hr>
            <ns3:cad>45</ns3:cad>
          </ns3:TrackPointExtension>
        </extensions>
      </trkpt>
      <trkpt lat="45.322924889624118804931640625" lon="-71.006686203181743621826171875">
        <ele>696</ele>
        <time>2026-08-21T20:52:28.000Z</time>
        <extensions>
          <ns3:TrackPointExtension>
            <ns3:hr>140</ns3:hr>
            <ns3:cad>45</ns3:cad>
          </ns3:TrackPointExtension>
        </extensions>
      </trkpt>
      <trkpt lat="45.3229151666164398193359375" lon="-71.00669651292264461517333984375">
        <ele>696.20001220703125</ele>
        <time>2026-08-21T20:52:29.000Z</time>
        <extensions>
          <ns3:TrackPointExtension>
            <ns3:hr>140</ns3:hr>
            <ns3:cad>45</ns3:cad>
          </ns3:TrackPointExtension>
        </extensions>
      </trkpt>
      <trkpt lat="45.32290468923747539520263671875" lon="-71.00670724175870418548583984375">
        <ele>696.20001220703125</ele>
        <time>2026-08-21T20:52:30.000Z</time>
        <extensions>
          <ns3:TrackPointExtension>
            <ns3:hr>140</ns3:hr>
            <ns3:cad>45</ns3:cad>
          </ns3:TrackPointExtension>
        </extensions>
      </trkpt>
      <trkpt lat="45.3228948824107646942138671875" lon="-71.0067214071750640869140625">
        <ele>696.20001220703125</ele>
        <time>2026-08-21T20:52:31.000Z</time>
        <extensions>
          <ns3:TrackPointExtension>
            <ns3:hr>140</ns3:hr>
            <ns3:cad>45</ns3:cad>
          </ns3:TrackPointExtension>
        </extensions>
      </trkpt>
      <trkpt lat="45.32288541086018085479736328125" lon="-71.0067348182201385498046875">
        <ele>696.20001220703125</ele>
        <time>2026-08-21T20:52:32.000Z</time>
        <extensions>
          <ns3:TrackPointExtension>
            <ns3:hr>141</ns3:hr>
            <ns3:cad>45</ns3:cad>
          </ns3:TrackPointExtension>
        </extensions>
      </trkpt>
      <trkpt lat="45.32287803478538990020751953125" lon="-71.00674713961780071258544921875">
        <ele>696.20001220703125</ele>
        <time>2026-08-21T20:52:33.000Z</time>
        <extensions>
          <ns3:TrackPointExtension>
            <ns3:hr>141</ns3:hr>
            <ns3:cad>45</ns3:cad>
          </ns3:TrackPointExtension>
        </extensions>
      </trkpt>
      <trkpt lat="45.32286755740642547607421875" lon="-71.0067670047283172607421875">
        <ele>696.20001220703125</ele>
        <time>2026-08-21T20:52:34.000Z</time>
        <extensions>
          <ns3:TrackPointExtension>
            <ns3:hr>142</ns3:hr>
            <ns3:cad>45</ns3:cad>
          </ns3:TrackPointExtension>
        </extensions>
      </trkpt>
      <trkpt lat="45.322857834398746490478515625" lon="-71.00677982904016971588134765625">
        <ele>696.20001220703125</ele>
        <time>2026-08-21T20:52:35.000Z</time>
        <extensions>
          <ns3:TrackPointExtension>
            <ns3:hr>142</ns3:hr>
            <ns3:cad>45</ns3:cad>
          </ns3:TrackPointExtension>
        </extensions>
      </trkpt>
      <trkpt lat="45.3228455968201160430908203125" lon="-71.006790138781070709228515625">
        <ele>696.20001220703125</ele>
        <time>2026-08-21T20:52:36.000Z</time>
        <extensions>
          <ns3:TrackPointExtension>
            <ns3:hr>142</ns3:hr>
            <ns3:cad>55</ns3:cad>
          </ns3:TrackPointExtension>
        </extensions>
      </trkpt>
      <trkpt lat="45.3228288330137729644775390625" lon="-71.0067991912364959716796875">
        <ele>696.20001220703125</ele>
        <time>2026-08-21T20:52:37.000Z</time>
        <extensions>
          <ns3:TrackPointExtension>
            <ns3:hr>142</ns3:hr>
            <ns3:cad>55</ns3:cad>
          </ns3:TrackPointExtension>
        </extensions>
      </trkpt>
      <trkpt lat="45.32281433232128620147705078125" lon="-71.006808914244174957275390625">
        <ele>696</ele>
        <time>2026-08-21T20:52:38.000Z</time>
        <extensions>
          <ns3:TrackPointExtension>
            <ns3:hr>142</ns3:hr>
            <ns3:cad>55</ns3:cad>
          </ns3:TrackPointExtension>
        </extensions>
      </trkpt>
      <trkpt lat="45.322802849113941192626953125" lon="-71.0068228282034397125244140625">
        <ele>696</ele>
        <time>2026-08-21T20:52:39.000Z</time>
        <extensions>
          <ns3:TrackPointExtension>
            <ns3:hr>142</ns3:hr>
            <ns3:cad>55</ns3:cad>
          </ns3:TrackPointExtension>
        </extensions>
      </trkpt>
      <trkpt lat="45.3227949701249599456787109375" lon="-71.0068345628678798675537109375">
        <ele>696</ele>
        <time>2026-08-21T20:52:40.000Z</time>
        <extensions>
          <ns3:TrackPointExtension>
            <ns3:hr>142</ns3:hr>
            <ns3:cad>55</ns3:cad>
          </ns3:TrackPointExtension>
        </extensions>
      </trkpt>
      <trkpt lat="45.32278239727020263671875" lon="-71.00684889592230319976806640625">
        <ele>696</ele>
        <time>2026-08-21T20:52:41.000Z</time>
        <extensions>
          <ns3:TrackPointExtension>
            <ns3:hr>142</ns3:hr>
            <ns3:cad>55</ns3:cad>
          </ns3:TrackPointExtension>
        </extensions>
      </trkpt>
      <trkpt lat="45.32276974059641361236572265625" lon="-71.0068654082715511322021484375">
        <ele>696.20001220703125</ele>
        <time>2026-08-21T20:52:42.000Z</time>
        <extensions>
          <ns3:TrackPointExtension>
            <ns3:hr>142</ns3:hr>
            <ns3:cad>55</ns3:cad>
          </ns3:TrackPointExtension>
        </extensions>
      </trkpt>
      <trkpt lat="45.3227547369897365570068359375" lon="-71.0068721137940883636474609375">
        <ele>696.20001220703125</ele>
        <time>2026-08-21T20:52:43.000Z</time>
        <extensions>
          <ns3:TrackPointExtension>
            <ns3:hr>141</ns3:hr>
            <ns3:cad>58</ns3:cad>
          </ns3:TrackPointExtension>
        </extensions>
      </trkpt>
      <trkpt lat="45.32274241559207439422607421875" lon="-71.006876640021800994873046875">
        <ele>696.4000244140625</ele>
        <time>2026-08-21T20:52:44.000Z</time>
        <extensions>
          <ns3:TrackPointExtension>
            <ns3:hr>142</ns3:hr>
            <ns3:cad>58</ns3:cad>
          </ns3:TrackPointExtension>
        </extensions>
      </trkpt>
      <trkpt lat="45.3227312676608562469482421875" lon="-71.00688560865819454193115234375">
        <ele>696.4000244140625</ele>
        <time>2026-08-21T20:52:45.000Z</time>
        <extensions>
          <ns3:TrackPointExtension>
            <ns3:hr>142</ns3:hr>
            <ns3:cad>55</ns3:cad>
          </ns3:TrackPointExtension>
        </extensions>
      </trkpt>
      <trkpt lat="45.32271978445351123809814453125" lon="-71.00689105689525604248046875">
        <ele>696.5999755859375</ele>
        <time>2026-08-21T20:52:46.000Z</time>
        <extensions>
          <ns3:TrackPointExtension>
            <ns3:hr>142</ns3:hr>
            <ns3:cad>54</ns3:cad>
          </ns3:TrackPointExtension>
        </extensions>
      </trkpt>
      <trkpt lat="45.322709977626800537109375" lon="-71.0068979300558567047119140625">
        <ele>696.79998779296875</ele>
        <time>2026-08-21T20:52:47.000Z</time>
        <extensions>
          <ns3:TrackPointExtension>
            <ns3:hr>142</ns3:hr>
            <ns3:cad>54</ns3:cad>
          </ns3:TrackPointExtension>
        </extensions>
      </trkpt>
      <trkpt lat="45.32269933260977268218994140625" lon="-71.006905473768711090087890625">
        <ele>697</ele>
        <time>2026-08-21T20:52:48.000Z</time>
        <extensions>
          <ns3:TrackPointExtension>
            <ns3:hr>141</ns3:hr>
            <ns3:cad>54</ns3:cad>
          </ns3:TrackPointExtension>
        </extensions>
      </trkpt>
      <trkpt lat="45.322684161365032196044921875" lon="-71.0069143585860729217529296875">
        <ele>697.20001220703125</ele>
        <time>2026-08-21T20:52:49.000Z</time>
        <extensions>
          <ns3:TrackPointExtension>
            <ns3:hr>141</ns3:hr>
            <ns3:cad>54</ns3:cad>
          </ns3:TrackPointExtension>
        </extensions>
      </trkpt>
      <trkpt lat="45.32267309725284576416015625" lon="-71.00692592561244964599609375">
        <ele>697.20001220703125</ele>
        <time>2026-08-21T20:52:50.000Z</time>
        <extensions>
          <ns3:TrackPointExtension>
            <ns3:hr>141</ns3:hr>
            <ns3:cad>53</ns3:cad>
          </ns3:TrackPointExtension>
        </extensions>
      </trkpt>
      <trkpt lat="45.32266228459775447845458984375" lon="-71.0069368220865726470947265625">
        <ele>697.4000244140625</ele>
        <time>2026-08-21T20:52:51.000Z</time>
        <extensions>
          <ns3:TrackPointExtension>
            <ns3:hr>140</ns3:hr>
            <ns3:cad>53</ns3:cad>
          </ns3:TrackPointExtension>
        </extensions>
      </trkpt>
      <trkpt lat="45.32265658490359783172607421875" lon="-71.00694696418941020965576171875">
        <ele>697.5999755859375</ele>
        <time>2026-08-21T20:52:52.000Z</time>
        <extensions>
          <ns3:TrackPointExtension>
            <ns3:hr>139</ns3:hr>
            <ns3:cad>53</ns3:cad>
          </ns3:TrackPointExtension>
        </extensions>
      </trkpt>
      <trkpt lat="45.32264635898172855377197265625" lon="-71.0069601237773895263671875">
        <ele>697.79998779296875</ele>
        <time>2026-08-21T20:52:53.000Z</time>
        <extensions>
          <ns3:TrackPointExtension>
            <ns3:hr>139</ns3:hr>
            <ns3:cad>53</ns3:cad>
          </ns3:TrackPointExtension>
        </extensions>
      </trkpt>
      <trkpt lat="45.32263965345919132232666015625" lon="-71.0069703496992588043212890625">
        <ele>697.79998779296875</ele>
        <time>2026-08-21T20:52:54.000Z</time>
        <extensions>
          <ns3:TrackPointExtension>
            <ns3:hr>139</ns3:hr>
            <ns3:cad>53</ns3:cad>
          </ns3:TrackPointExtension>
        </extensions>
      </trkpt>
      <trkpt lat="45.322629846632480621337890625" lon="-71.00698384456336498260498046875">
        <ele>698</ele>
        <time>2026-08-21T20:52:55.000Z</time>
        <extensions>
          <ns3:TrackPointExtension>
            <ns3:hr>138</ns3:hr>
            <ns3:cad>50</ns3:cad>
          </ns3:TrackPointExtension>
        </extensions>
      </trkpt>
      <trkpt lat="45.32261702232062816619873046875" lon="-71.0069961659610271453857421875">
        <ele>698.20001220703125</ele>
        <time>2026-08-21T20:52:56.000Z</time>
        <extensions>
          <ns3:TrackPointExtension>
            <ns3:hr>138</ns3:hr>
            <ns3:cad>50</ns3:cad>
          </ns3:TrackPointExtension>
        </extensions>
      </trkpt>
      <trkpt lat="45.32260612584650516510009765625" lon="-71.0070052184164524078369140625">
        <ele>698.20001220703125</ele>
        <time>2026-08-21T20:52:57.000Z</time>
        <extensions>
          <ns3:TrackPointExtension>
            <ns3:hr>138</ns3:hr>
            <ns3:cad>52</ns3:cad>
          </ns3:TrackPointExtension>
        </extensions>
      </trkpt>
      <trkpt lat="45.32259254716336727142333984375" lon="-71.00701670162379741668701171875">
        <ele>698.4000244140625</ele>
        <time>2026-08-21T20:52:58.000Z</time>
        <extensions>
          <ns3:TrackPointExtension>
            <ns3:hr>138</ns3:hr>
            <ns3:cad>52</ns3:cad>
          </ns3:TrackPointExtension>
        </extensions>
      </trkpt>
      <trkpt lat="45.32258064486086368560791015625" lon="-71.00703111849725246429443359375">
        <ele>698.4000244140625</ele>
        <time>2026-08-21T20:52:59.000Z</time>
        <extensions>
          <ns3:TrackPointExtension>
            <ns3:hr>138</ns3:hr>
            <ns3:cad>52</ns3:cad>
          </ns3:TrackPointExtension>
        </extensions>
      </trkpt>
      <trkpt lat="45.32257108949124813079833984375" lon="-71.00704335607588291168212890625">
        <ele>698.4000244140625</ele>
        <time>2026-08-21T20:53:00.000Z</time>
        <extensions>
          <ns3:TrackPointExtension>
            <ns3:hr>138</ns3:hr>
            <ns3:cad>52</ns3:cad>
          </ns3:TrackPointExtension>
        </extensions>
      </trkpt>
      <trkpt lat="45.32256069593131542205810546875" lon="-71.00705224089324474334716796875">
        <ele>698.4000244140625</ele>
        <time>2026-08-21T20:53:01.000Z</time>
        <extensions>
          <ns3:TrackPointExtension>
            <ns3:hr>137</ns3:hr>
            <ns3:cad>52</ns3:cad>
          </ns3:TrackPointExtension>
        </extensions>
      </trkpt>
      <trkpt lat="45.322551392018795013427734375" lon="-71.00706347264349460601806640625">
        <ele>698.4000244140625</ele>
        <time>2026-08-21T20:53:02.000Z</time>
        <extensions>
          <ns3:TrackPointExtension>
            <ns3:hr>136</ns3:hr>
            <ns3:cad>52</ns3:cad>
          </ns3:TrackPointExtension>
        </extensions>
      </trkpt>
      <trkpt lat="45.32254242338240146636962890625" lon="-71.0070727765560150146484375">
        <ele>698.5999755859375</ele>
        <time>2026-08-21T20:53:03.000Z</time>
        <extensions>
          <ns3:TrackPointExtension>
            <ns3:hr>136</ns3:hr>
            <ns3:cad>52</ns3:cad>
          </ns3:TrackPointExtension>
        </extensions>
      </trkpt>
      <trkpt lat="45.3225337900221347808837890625" lon="-71.0070840083062648773193359375">
        <ele>698.5999755859375</ele>
        <time>2026-08-21T20:53:04.000Z</time>
        <extensions>
          <ns3:TrackPointExtension>
            <ns3:hr>136</ns3:hr>
            <ns3:cad>52</ns3:cad>
          </ns3:TrackPointExtension>
        </extensions>
      </trkpt>
      <trkpt lat="45.3225235641002655029296875" lon="-71.007097922265529632568359375">
        <ele>698.79998779296875</ele>
        <time>2026-08-21T20:53:05.000Z</time>
        <extensions>
          <ns3:TrackPointExtension>
            <ns3:hr>136</ns3:hr>
            <ns3:cad>52</ns3:cad>
          </ns3:TrackPointExtension>
        </extensions>
      </trkpt>
      <trkpt lat="45.3225155174732208251953125" lon="-71.00710420869290828704833984375">
        <ele>698.79998779296875</ele>
        <time>2026-08-21T20:53:06.000Z</time>
        <extensions>
          <ns3:TrackPointExtension>
            <ns3:hr>135</ns3:hr>
            <ns3:cad>52</ns3:cad>
          </ns3:TrackPointExtension>
        </extensions>
      </trkpt>
      <trkpt lat="45.32250369898974895477294921875" lon="-71.007109321653842926025390625">
        <ele>699</ele>
        <time>2026-08-21T20:53:07.000Z</time>
        <extensions>
          <ns3:TrackPointExtension>
            <ns3:hr>135</ns3:hr>
            <ns3:cad>52</ns3:cad>
          </ns3:TrackPointExtension>
        </extensions>
      </trkpt>
      <trkpt lat="45.32249280251562595367431640625" lon="-71.0071172006428241729736328125">
        <ele>699</ele>
        <time>2026-08-21T20:53:08.000Z</time>
        <extensions>
          <ns3:TrackPointExtension>
            <ns3:hr>135</ns3:hr>
            <ns3:cad>53</ns3:cad>
          </ns3:TrackPointExtension>
        </extensions>
      </trkpt>
      <trkpt lat="45.32248266041278839111328125" lon="-71.00713069550693035125732421875">
        <ele>699</ele>
        <time>2026-08-21T20:53:09.000Z</time>
        <extensions>
          <ns3:TrackPointExtension>
            <ns3:hr>136</ns3:hr>
            <ns3:cad>53</ns3:cad>
          </ns3:TrackPointExtension>
        </extensions>
      </trkpt>
      <trkpt lat="45.32247100956737995147705078125" lon="-71.0071436874568462371826171875">
        <ele>699.20001220703125</ele>
        <time>2026-08-21T20:53:10.000Z</time>
        <extensions>
          <ns3:TrackPointExtension>
            <ns3:hr>135</ns3:hr>
            <ns3:cad>52</ns3:cad>
          </ns3:TrackPointExtension>
        </extensions>
      </trkpt>
      <trkpt lat="45.32246195711195468902587890625" lon="-71.00715466775000095367431640625">
        <ele>699.20001220703125</ele>
        <time>2026-08-21T20:53:11.000Z</time>
        <extensions>
          <ns3:TrackPointExtension>
            <ns3:hr>135</ns3:hr>
            <ns3:cad>52</ns3:cad>
          </ns3:TrackPointExtension>
        </extensions>
      </trkpt>
      <trkpt lat="45.3224511444568634033203125" lon="-71.007167659699916839599609375">
        <ele>699.4000244140625</ele>
        <time>2026-08-21T20:53:12.000Z</time>
        <extensions>
          <ns3:TrackPointExtension>
            <ns3:hr>135</ns3:hr>
            <ns3:cad>53</ns3:cad>
          </ns3:TrackPointExtension>
        </extensions>
      </trkpt>
      <trkpt lat="45.3224399127066135406494140625" lon="-71.00717579014599323272705078125">
        <ele>699.4000244140625</ele>
        <time>2026-08-21T20:53:13.000Z</time>
        <extensions>
          <ns3:TrackPointExtension>
            <ns3:hr>135</ns3:hr>
            <ns3:cad>53</ns3:cad>
          </ns3:TrackPointExtension>
        </extensions>
      </trkpt>
      <trkpt lat="45.32242474146187305450439453125" lon="-71.00718651898205280303955078125">
        <ele>699.5999755859375</ele>
        <time>2026-08-21T20:53:14.000Z</time>
        <extensions>
          <ns3:TrackPointExtension>
            <ns3:hr>135</ns3:hr>
            <ns3:cad>53</ns3:cad>
          </ns3:TrackPointExtension>
        </extensions>
      </trkpt>
      <trkpt lat="45.322411917150020599365234375" lon="-71.007195152342319488525390625">
        <ele>699.79998779296875</ele>
        <time>2026-08-21T20:53:15.000Z</time>
        <extensions>
          <ns3:TrackPointExtension>
            <ns3:hr>135</ns3:hr>
            <ns3:cad>53</ns3:cad>
          </ns3:TrackPointExtension>
        </extensions>
      </trkpt>
      <trkpt lat="45.32240219414234161376953125" lon="-71.0072057135403156280517578125">
        <ele>700</ele>
        <time>2026-08-21T20:53:16.000Z</time>
        <extensions>
          <ns3:TrackPointExtension>
            <ns3:hr>134</ns3:hr>
            <ns3:cad>53</ns3:cad>
          </ns3:TrackPointExtension>
        </extensions>
      </trkpt>
      <trkpt lat="45.322391800582408905029296875" lon="-71.0072181187570095062255859375">
        <ele>700.20001220703125</ele>
        <time>2026-08-21T20:53:17.000Z</time>
        <extensions>
          <ns3:TrackPointExtension>
            <ns3:hr>135</ns3:hr>
            <ns3:cad>53</ns3:cad>
          </ns3:TrackPointExtension>
        </extensions>
      </trkpt>
      <trkpt lat="45.3223805688321590423583984375" lon="-71.0072291828691959381103515625">
        <ele>700.20001220703125</ele>
        <time>2026-08-21T20:53:18.000Z</time>
        <extensions>
          <ns3:TrackPointExtension>
            <ns3:hr>135</ns3:hr>
            <ns3:cad>53</ns3:cad>
          </ns3:TrackPointExtension>
        </extensions>
      </trkpt>
      <trkpt lat="45.32236841507256031036376953125" lon="-71.0072415880858898162841796875">
        <ele>700.20001220703125</ele>
        <time>2026-08-21T20:53:19.000Z</time>
        <extensions>
          <ns3:TrackPointExtension>
            <ns3:hr>135</ns3:hr>
            <ns3:cad>53</ns3:cad>
          </ns3:TrackPointExtension>
        </extensions>
      </trkpt>
      <trkpt lat="45.32235885970294475555419921875" lon="-71.0072546638548374176025390625">
        <ele>700.4000244140625</ele>
        <time>2026-08-21T20:53:20.000Z</time>
        <extensions>
          <ns3:TrackPointExtension>
            <ns3:hr>135</ns3:hr>
            <ns3:cad>53</ns3:cad>
          </ns3:TrackPointExtension>
        </extensions>
      </trkpt>
      <trkpt lat="45.32234896905720233917236328125" lon="-71.00726882927119731903076171875">
        <ele>700.4000244140625</ele>
        <time>2026-08-21T20:53:21.000Z</time>
        <extensions>
          <ns3:TrackPointExtension>
            <ns3:hr>136</ns3:hr>
            <ns3:cad>53</ns3:cad>
          </ns3:TrackPointExtension>
        </extensions>
      </trkpt>
      <trkpt lat="45.3223383240401744842529296875" lon="-71.00728257559239864349365234375">
        <ele>700.5999755859375</ele>
        <time>2026-08-21T20:53:22.000Z</time>
        <extensions>
          <ns3:TrackPointExtension>
            <ns3:hr>136</ns3:hr>
            <ns3:cad>53</ns3:cad>
          </ns3:TrackPointExtension>
        </extensions>
      </trkpt>
      <trkpt lat="45.3223299421370029449462890625" lon="-71.00729347206652164459228515625">
        <ele>700.5999755859375</ele>
        <time>2026-08-21T20:53:23.000Z</time>
        <extensions>
          <ns3:TrackPointExtension>
            <ns3:hr>136</ns3:hr>
            <ns3:cad>53</ns3:cad>
          </ns3:TrackPointExtension>
        </extensions>
      </trkpt>
      <trkpt lat="45.32232700847089290618896484375" lon="-71.00730923004448413848876953125">
        <ele>700.5999755859375</ele>
        <time>2026-08-21T20:53:24.000Z</time>
        <extensions>
          <ns3:TrackPointExtension>
            <ns3:hr>136</ns3:hr>
            <ns3:cad>53</ns3:cad>
          </ns3:TrackPointExtension>
        </extensions>
      </trkpt>
      <trkpt lat="45.32232231460511684417724609375" lon="-71.00732230581343173980712890625">
        <ele>700.79998779296875</ele>
        <time>2026-08-21T20:53:25.000Z</time>
        <extensions>
          <ns3:TrackPointExtension>
            <ns3:hr>136</ns3:hr>
            <ns3:cad>53</ns3:cad>
          </ns3:TrackPointExtension>
        </extensions>
      </trkpt>
      <trkpt lat="45.3223118372261524200439453125" lon="-71.0073384828865528106689453125">
        <ele>700.79998779296875</ele>
        <time>2026-08-21T20:53:26.000Z</time>
        <extensions>
          <ns3:TrackPointExtension>
            <ns3:hr>135</ns3:hr>
            <ns3:cad>53</ns3:cad>
          </ns3:TrackPointExtension>
        </extensions>
      </trkpt>
      <trkpt lat="45.3223071433603763580322265625" lon="-71.00735197775065898895263671875">
        <ele>701</ele>
        <time>2026-08-21T20:53:27.000Z</time>
        <extensions>
          <ns3:TrackPointExtension>
            <ns3:hr>136</ns3:hr>
            <ns3:cad>52</ns3:cad>
          </ns3:TrackPointExtension>
        </extensions>
      </trkpt>
      <trkpt lat="45.32229851000010967254638671875" lon="-71.00737041793763637542724609375">
        <ele>701.20001220703125</ele>
        <time>2026-08-21T20:53:28.000Z</time>
        <extensions>
          <ns3:TrackPointExtension>
            <ns3:hr>136</ns3:hr>
            <ns3:cad>52</ns3:cad>
          </ns3:TrackPointExtension>
        </extensions>
      </trkpt>
      <trkpt lat="45.3222897090017795562744140625" lon="-71.00739103741943836212158203125">
        <ele>701.20001220703125</ele>
        <time>2026-08-21T20:53:29.000Z</time>
        <extensions>
          <ns3:TrackPointExtension>
            <ns3:hr>136</ns3:hr>
            <ns3:cad>52</ns3:cad>
          </ns3:TrackPointExtension>
        </extensions>
      </trkpt>
      <trkpt lat="45.32228593714535236358642578125" lon="-71.00740076042711734771728515625">
        <ele>701.5999755859375</ele>
        <time>2026-08-21T20:53:30.000Z</time>
        <extensions>
          <ns3:TrackPointExtension>
            <ns3:hr>135</ns3:hr>
            <ns3:cad>52</ns3:cad>
          </ns3:TrackPointExtension>
        </extensions>
      </trkpt>
      <trkpt lat="45.32227990217506885528564453125" lon="-71.00741215981543064117431640625">
        <ele>701.79998779296875</ele>
        <time>2026-08-21T20:53:31.000Z</time>
        <extensions>
          <ns3:TrackPointExtension>
            <ns3:hr>136</ns3:hr>
            <ns3:cad>52</ns3:cad>
          </ns3:TrackPointExtension>
        </extensions>
      </trkpt>
      <trkpt lat="45.322275459766387939453125" lon="-71.00741735659539699554443359375">
        <ele>702</ele>
        <time>2026-08-21T20:53:32.000Z</time>
        <extensions>
          <ns3:TrackPointExtension>
            <ns3:hr>135</ns3:hr>
            <ns3:cad>52</ns3:cad>
          </ns3:TrackPointExtension>
        </extensions>
      </trkpt>
      <trkpt lat="45.32226531766355037689208984375" lon="-71.007425487041473388671875">
        <ele>702.20001220703125</ele>
        <time>2026-08-21T20:53:33.000Z</time>
        <extensions>
          <ns3:TrackPointExtension>
            <ns3:hr>135</ns3:hr>
            <ns3:cad>52</ns3:cad>
          </ns3:TrackPointExtension>
        </extensions>
      </trkpt>
      <trkpt lat="45.32225442118942737579345703125" lon="-71.00742691196501255035400390625">
        <ele>702.4000244140625</ele>
        <time>2026-08-21T20:53:34.000Z</time>
        <extensions>
          <ns3:TrackPointExtension>
            <ns3:hr>135</ns3:hr>
            <ns3:cad>49</ns3:cad>
          </ns3:TrackPointExtension>
        </extensions>
      </trkpt>
      <trkpt lat="45.3222474642097949981689453125" lon="-71.00742942653596401214599609375">
        <ele>702.5999755859375</ele>
        <time>2026-08-21T20:53:35.000Z</time>
        <extensions>
          <ns3:TrackPointExtension>
            <ns3:hr>135</ns3:hr>
            <ns3:cad>49</ns3:cad>
          </ns3:TrackPointExtension>
        </extensions>
      </trkpt>
      <trkpt lat="45.32224000431597232818603515625" lon="-71.0074343718588352203369140625">
        <ele>702.79998779296875</ele>
        <time>2026-08-21T20:53:36.000Z</time>
        <extensions>
          <ns3:TrackPointExtension>
            <ns3:hr>135</ns3:hr>
            <ns3:cad>48</ns3:cad>
          </ns3:TrackPointExtension>
        </extensions>
      </trkpt>
      <trkpt lat="45.3222377412021160125732421875" lon="-71.00743512623012065887451171875">
        <ele>703</ele>
        <time>2026-08-21T20:53:37.000Z</time>
        <extensions>
          <ns3:TrackPointExtension>
            <ns3:hr>135</ns3:hr>
            <ns3:cad>48</ns3:cad>
          </ns3:TrackPointExtension>
        </extensions>
      </trkpt>
      <trkpt lat="45.32222558744251728057861328125" lon="-71.00743898190557956695556640625">
        <ele>703.20001220703125</ele>
        <time>2026-08-21T20:53:38.000Z</time>
        <extensions>
          <ns3:TrackPointExtension>
            <ns3:hr>135</ns3:hr>
            <ns3:cad>48</ns3:cad>
          </ns3:TrackPointExtension>
        </extensions>
      </trkpt>
      <trkpt lat="45.32221720553934574127197265625" lon="-71.0074410773813724517822265625">
        <ele>703.4000244140625</ele>
        <time>2026-08-21T20:53:39.000Z</time>
        <extensions>
          <ns3:TrackPointExtension>
            <ns3:hr>135</ns3:hr>
            <ns3:cad>48</ns3:cad>
          </ns3:TrackPointExtension>
        </extensions>
      </trkpt>
      <trkpt lat="45.3222112543880939483642578125" lon="-71.007450632750988006591796875">
        <ele>703.5999755859375</ele>
        <time>2026-08-21T20:53:40.000Z</time>
        <extensions>
          <ns3:TrackPointExtension>
            <ns3:hr>135</ns3:hr>
            <ns3:cad>48</ns3:cad>
          </ns3:TrackPointExtension>
        </extensions>
      </trkpt>
      <trkpt lat="45.32220211811363697052001953125" lon="-71.00744836963713169097900390625">
        <ele>703.79998779296875</ele>
        <time>2026-08-21T20:53:41.000Z</time>
        <extensions>
          <ns3:TrackPointExtension>
            <ns3:hr>134</ns3:hr>
            <ns3:cad>48</ns3:cad>
          </ns3:TrackPointExtension>
        </extensions>
      </trkpt>
      <trkpt lat="45.32218518666923046112060546875" lon="-71.00744769908487796783447265625">
        <ele>703.79998779296875</ele>
        <time>2026-08-21T20:53:42.000Z</time>
        <extensions>
          <ns3:TrackPointExtension>
            <ns3:hr>135</ns3:hr>
            <ns3:cad>48</ns3:cad>
          </ns3:TrackPointExtension>
        </extensions>
      </trkpt>
      <trkpt lat="45.3221743740141391754150390625" lon="-71.00744761526584625244140625">
        <ele>704</ele>
        <time>2026-08-21T20:53:43.000Z</time>
        <extensions>
          <ns3:TrackPointExtension>
            <ns3:hr>134</ns3:hr>
            <ns3:cad>48</ns3:cad>
          </ns3:TrackPointExtension>
        </extensions>
      </trkpt>
      <trkpt lat="45.322163142263889312744140625" lon="-71.007449626922607421875">
        <ele>704.20001220703125</ele>
        <time>2026-08-21T20:53:44.000Z</time>
        <extensions>
          <ns3:TrackPointExtension>
            <ns3:hr>134</ns3:hr>
            <ns3:cad>48</ns3:cad>
          </ns3:TrackPointExtension>
        </extensions>
      </trkpt>
      <trkpt lat="45.32215199433267116546630859375" lon="-71.00745239295065402984619140625">
        <ele>704.4000244140625</ele>
        <time>2026-08-21T20:53:45.000Z</time>
        <extensions>
          <ns3:TrackPointExtension>
            <ns3:hr>134</ns3:hr>
            <ns3:cad>48</ns3:cad>
          </ns3:TrackPointExtension>
        </extensions>
      </trkpt>
      <trkpt lat="45.3221401758491992950439453125" lon="-71.00746647454798221588134765625">
        <ele>704.4000244140625</ele>
        <time>2026-08-21T20:53:46.000Z</time>
        <extensions>
          <ns3:TrackPointExtension>
            <ns3:hr>134</ns3:hr>
            <ns3:cad>43</ns3:cad>
          </ns3:TrackPointExtension>
        </extensions>
      </trkpt>
      <trkpt lat="45.32213506288826465606689453125" lon="-71.00747787393629550933837890625">
        <ele>704.5999755859375</ele>
        <time>2026-08-21T20:53:47.000Z</time>
        <extensions>
          <ns3:TrackPointExtension>
            <ns3:hr>134</ns3:hr>
            <ns3:cad>46</ns3:cad>
          </ns3:TrackPointExtension>
        </extensions>
      </trkpt>
      <trkpt lat="45.3221301175653934478759765625" lon="-71.0074940510094165802001953125">
        <ele>704.5999755859375</ele>
        <time>2026-08-21T20:53:48.000Z</time>
        <extensions>
          <ns3:TrackPointExtension>
            <ns3:hr>134</ns3:hr>
            <ns3:cad>46</ns3:cad>
          </ns3:TrackPointExtension>
        </extensions>
      </trkpt>
      <trkpt lat="45.322125256061553955078125" lon="-71.00750486366450786590576171875">
        <ele>704.79998779296875</ele>
        <time>2026-08-21T20:53:49.000Z</time>
        <extensions>
          <ns3:TrackPointExtension>
            <ns3:hr>133</ns3:hr>
            <ns3:cad>47</ns3:cad>
          </ns3:TrackPointExtension>
        </extensions>
      </trkpt>
      <trkpt lat="45.3221210651099681854248046875" lon="-71.00751207210123538970947265625">
        <ele>704.79998779296875</ele>
        <time>2026-08-21T20:53:50.000Z</time>
        <extensions>
          <ns3:TrackPointExtension>
            <ns3:hr>133</ns3:hr>
            <ns3:cad>47</ns3:cad>
          </ns3:TrackPointExtension>
        </extensions>
      </trkpt>
      <trkpt lat="45.32211243174970149993896484375" lon="-71.007520370185375213623046875">
        <ele>705</ele>
        <time>2026-08-21T20:53:51.000Z</time>
        <extensions>
          <ns3:TrackPointExtension>
            <ns3:hr>133</ns3:hr>
            <ns3:cad>48</ns3:cad>
          </ns3:TrackPointExtension>
        </extensions>
      </trkpt>
      <trkpt lat="45.32210019417107105255126953125" lon="-71.007529757916927337646484375">
        <ele>705</ele>
        <time>2026-08-21T20:53:52.000Z</time>
        <extensions>
          <ns3:TrackPointExtension>
            <ns3:hr>134</ns3:hr>
            <ns3:cad>48</ns3:cad>
          </ns3:TrackPointExtension>
        </extensions>
      </trkpt>
      <trkpt lat="45.32208711840212345123291015625" lon="-71.00754157640039920806884765625">
        <ele>705.20001220703125</ele>
        <time>2026-08-21T20:53:53.000Z</time>
        <extensions>
          <ns3:TrackPointExtension>
            <ns3:hr>134</ns3:hr>
            <ns3:cad>50</ns3:cad>
          </ns3:TrackPointExtension>
        </extensions>
      </trkpt>
      <trkpt lat="45.32207337208092212677001953125" lon="-71.007555238902568817138671875">
        <ele>705.20001220703125</ele>
        <time>2026-08-21T20:53:54.000Z</time>
        <extensions>
          <ns3:TrackPointExtension>
            <ns3:hr>135</ns3:hr>
            <ns3:cad>50</ns3:cad>
          </ns3:TrackPointExtension>
        </extensions>
      </trkpt>
      <trkpt lat="45.32205694355070590972900390625" lon="-71.0075641237199306488037109375">
        <ele>705.20001220703125</ele>
        <time>2026-08-21T20:53:55.000Z</time>
        <extensions>
          <ns3:TrackPointExtension>
            <ns3:hr>135</ns3:hr>
            <ns3:cad>50</ns3:cad>
          </ns3:TrackPointExtension>
        </extensions>
      </trkpt>
      <trkpt lat="45.32204277813434600830078125" lon="-71.00758013315498828887939453125">
        <ele>705.4000244140625</ele>
        <time>2026-08-21T20:53:56.000Z</time>
        <extensions>
          <ns3:TrackPointExtension>
            <ns3:hr>134</ns3:hr>
            <ns3:cad>0</ns3:cad>
          </ns3:TrackPointExtension>
        </extensions>
      </trkpt>
      <trkpt lat="45.32202668488025665283203125" lon="-71.007590107619762420654296875">
        <ele>705.4000244140625</ele>
        <time>2026-08-21T20:53:57.000Z</time>
        <extensions>
          <ns3:TrackPointExtension>
            <ns3:hr>134</ns3:hr>
            <ns3:cad>0</ns3:cad>
          </ns3:TrackPointExtension>
        </extensions>
      </trkpt>
      <trkpt lat="45.32201327383518218994140625" lon="-71.00759807042777538299560546875">
        <ele>705.5999755859375</ele>
        <time>2026-08-21T20:53:58.000Z</time>
        <extensions>
          <ns3:TrackPointExtension>
            <ns3:hr>134</ns3:hr>
            <ns3:cad>0</ns3:cad>
          </ns3:TrackPointExtension>
        </extensions>
      </trkpt>
      <trkpt lat="45.3219950012862682342529296875" lon="-71.00760913453996181488037109375">
        <ele>705.5999755859375</ele>
        <time>2026-08-21T20:53:59.000Z</time>
        <extensions>
          <ns3:TrackPointExtension>
            <ns3:hr>134</ns3:hr>
            <ns3:cad>0</ns3:cad>
          </ns3:TrackPointExtension>
        </extensions>
      </trkpt>
      <trkpt lat="45.32198083586990833282470703125" lon="-71.00760460831224918365478515625">
        <ele>705.79998779296875</ele>
        <time>2026-08-21T20:54:00.000Z</time>
        <extensions>
          <ns3:TrackPointExtension>
            <ns3:hr>134</ns3:hr>
            <ns3:cad>0</ns3:cad>
          </ns3:TrackPointExtension>
        </extensions>
      </trkpt>
      <trkpt lat="45.32196708954870700836181640625" lon="-71.00760997273027896881103515625">
        <ele>706</ele>
        <time>2026-08-21T20:54:01.000Z</time>
        <extensions>
          <ns3:TrackPointExtension>
            <ns3:hr>134</ns3:hr>
            <ns3:cad>0</ns3:cad>
          </ns3:TrackPointExtension>
        </extensions>
      </trkpt>
      <trkpt lat="45.3219577856361865997314453125" lon="-71.00761516951024532318115234375">
        <ele>706.20001220703125</ele>
        <time>2026-08-21T20:54:02.000Z</time>
        <extensions>
          <ns3:TrackPointExtension>
            <ns3:hr>134</ns3:hr>
            <ns3:cad>0</ns3:cad>
          </ns3:TrackPointExtension>
        </extensions>
      </trkpt>
      <trkpt lat="45.321945212781429290771484375" lon="-71.00762506015598773956298828125">
        <ele>706.20001220703125</ele>
        <time>2026-08-21T20:54:03.000Z</time>
        <extensions>
          <ns3:TrackPointExtension>
            <ns3:hr>134</ns3:hr>
            <ns3:cad>0</ns3:cad>
          </ns3:TrackPointExtension>
        </extensions>
      </trkpt>
      <trkpt lat="45.32193507067859172821044921875" lon="-71.0076425783336162567138671875">
        <ele>706.20001220703125</ele>
        <time>2026-08-21T20:54:04.000Z</time>
        <extensions>
          <ns3:TrackPointExtension>
            <ns3:hr>134</ns3:hr>
            <ns3:cad>0</ns3:cad>
          </ns3:TrackPointExtension>
        </extensions>
      </trkpt>
      <trkpt lat="45.3219229169189929962158203125" lon="-71.0076556541025638580322265625">
        <ele>706.20001220703125</ele>
        <time>2026-08-21T20:54:05.000Z</time>
        <extensions>
          <ns3:TrackPointExtension>
            <ns3:hr>134</ns3:hr>
            <ns3:cad>0</ns3:cad>
          </ns3:TrackPointExtension>
        </extensions>
      </trkpt>
      <trkpt lat="45.32190925441682338714599609375" lon="-71.0076667182147502899169921875">
        <ele>706.20001220703125</ele>
        <time>2026-08-21T20:54:06.000Z</time>
        <extensions>
          <ns3:TrackPointExtension>
            <ns3:hr>134</ns3:hr>
            <ns3:cad>0</ns3:cad>
          </ns3:TrackPointExtension>
        </extensions>
      </trkpt>
      <trkpt lat="45.32189634628593921661376953125" lon="-71.0076843202114105224609375">
        <ele>706.20001220703125</ele>
        <time>2026-08-21T20:54:07.000Z</time>
        <extensions>
          <ns3:TrackPointExtension>
            <ns3:hr>134</ns3:hr>
            <ns3:cad>0</ns3:cad>
          </ns3:TrackPointExtension>
        </extensions>
      </trkpt>
      <trkpt lat="45.321888886392116546630859375" lon="-71.007695384323596954345703125">
        <ele>706.20001220703125</ele>
        <time>2026-08-21T20:54:08.000Z</time>
        <extensions>
          <ns3:TrackPointExtension>
            <ns3:hr>134</ns3:hr>
            <ns3:cad>0</ns3:cad>
          </ns3:TrackPointExtension>
        </extensions>
      </trkpt>
      <trkpt lat="45.3218736313283443450927734375" lon="-71.00771072320640087127685546875">
        <ele>706.20001220703125</ele>
        <time>2026-08-21T20:54:09.000Z</time>
        <extensions>
          <ns3:TrackPointExtension>
            <ns3:hr>134</ns3:hr>
            <ns3:cad>0</ns3:cad>
          </ns3:TrackPointExtension>
        </extensions>
      </trkpt>
      <trkpt lat="45.3218635730445384979248046875" lon="-71.0077166743576526641845703125">
        <ele>706.20001220703125</ele>
        <time>2026-08-21T20:54:10.000Z</time>
        <extensions>
          <ns3:TrackPointExtension>
            <ns3:hr>134</ns3:hr>
            <ns3:cad>0</ns3:cad>
          </ns3:TrackPointExtension>
        </extensions>
      </trkpt>
      <trkpt lat="45.32184706069529056549072265625" lon="-71.0077304206788539886474609375">
        <ele>706.20001220703125</ele>
        <time>2026-08-21T20:54:11.000Z</time>
        <extensions>
          <ns3:TrackPointExtension>
            <ns3:hr>135</ns3:hr>
            <ns3:cad>0</ns3:cad>
          </ns3:TrackPointExtension>
        </extensions>
      </trkpt>
      <trkpt lat="45.321839265525341033935546875" lon="-71.007736623287200927734375">
        <ele>706.20001220703125</ele>
        <time>2026-08-21T20:54:12.000Z</time>
        <extensions>
          <ns3:TrackPointExtension>
            <ns3:hr>135</ns3:hr>
            <ns3:cad>0</ns3:cad>
          </ns3:TrackPointExtension>
        </extensions>
      </trkpt>
      <trkpt lat="45.3218246810138225555419921875" lon="-71.00774458609521389007568359375">
        <ele>706.20001220703125</ele>
        <time>2026-08-21T20:54:13.000Z</time>
        <extensions>
          <ns3:TrackPointExtension>
            <ns3:hr>136</ns3:hr>
            <ns3:cad>0</ns3:cad>
          </ns3:TrackPointExtension>
        </extensions>
      </trkpt>
      <trkpt lat="45.32181269489228725433349609375" lon="-71.00775112397968769073486328125">
        <ele>706</ele>
        <time>2026-08-21T20:54:14.000Z</time>
        <extensions>
          <ns3:TrackPointExtension>
            <ns3:hr>136</ns3:hr>
            <ns3:cad>0</ns3:cad>
          </ns3:TrackPointExtension>
        </extensions>
      </trkpt>
      <trkpt lat="45.32179844565689563751220703125" lon="-71.0077575780451297760009765625">
        <ele>706</ele>
        <time>2026-08-21T20:54:15.000Z</time>
        <extensions>
          <ns3:TrackPointExtension>
            <ns3:hr>136</ns3:hr>
            <ns3:cad>0</ns3:cad>
          </ns3:TrackPointExtension>
        </extensions>
      </trkpt>
      <trkpt lat="45.32178687863051891326904296875" lon="-71.007763780653476715087890625">
        <ele>706</ele>
        <time>2026-08-21T20:54:16.000Z</time>
        <extensions>
          <ns3:TrackPointExtension>
            <ns3:hr>136</ns3:hr>
            <ns3:cad>0</ns3:cad>
          </ns3:TrackPointExtension>
        </extensions>
      </trkpt>
      <trkpt lat="45.321771539747714996337890625" lon="-71.007773168385028839111328125">
        <ele>706</ele>
        <time>2026-08-21T20:54:17.000Z</time>
        <extensions>
          <ns3:TrackPointExtension>
            <ns3:hr>135</ns3:hr>
            <ns3:cad>0</ns3:cad>
          </ns3:TrackPointExtension>
        </extensions>
      </trkpt>
      <trkpt lat="45.32175804488360881805419921875" lon="-71.00778599269688129425048828125">
        <ele>706</ele>
        <time>2026-08-21T20:54:18.000Z</time>
        <extensions>
          <ns3:TrackPointExtension>
            <ns3:hr>135</ns3:hr>
            <ns3:cad>0</ns3:cad>
          </ns3:TrackPointExtension>
        </extensions>
      </trkpt>
      <trkpt lat="45.321748070418834686279296875" lon="-71.007792614400386810302734375">
        <ele>706</ele>
        <time>2026-08-21T20:54:19.000Z</time>
        <extensions>
          <ns3:TrackPointExtension>
            <ns3:hr>134</ns3:hr>
            <ns3:cad>0</ns3:cad>
          </ns3:TrackPointExtension>
        </extensions>
      </trkpt>
      <trkpt lat="45.32173725776374340057373046875" lon="-71.0078061930835247039794921875">
        <ele>706</ele>
        <time>2026-08-21T20:54:20.000Z</time>
        <extensions>
          <ns3:TrackPointExtension>
            <ns3:hr>133</ns3:hr>
            <ns3:cad>0</ns3:cad>
          </ns3:TrackPointExtension>
        </extensions>
      </trkpt>
      <trkpt lat="45.32172870822250843048095703125" lon="-71.0078182630240917205810546875">
        <ele>705.79998779296875</ele>
        <time>2026-08-21T20:54:21.000Z</time>
        <extensions>
          <ns3:TrackPointExtension>
            <ns3:hr>132</ns3:hr>
            <ns3:cad>0</ns3:cad>
          </ns3:TrackPointExtension>
        </extensions>
      </trkpt>
      <trkpt lat="45.3217090107500553131103515625" lon="-71.007834859192371368408203125">
        <ele>705.79998779296875</ele>
        <time>2026-08-21T20:54:22.000Z</time>
        <extensions>
          <ns3:TrackPointExtension>
            <ns3:hr>132</ns3:hr>
            <ns3:cad>0</ns3:cad>
          </ns3:TrackPointExtension>
        </extensions>
      </trkpt>
      <trkpt lat="45.32169735990464687347412109375" lon="-71.007849276065826416015625">
        <ele>705.5999755859375</ele>
        <time>2026-08-21T20:54:23.000Z</time>
        <extensions>
          <ns3:TrackPointExtension>
            <ns3:hr>132</ns3:hr>
            <ns3:cad>0</ns3:cad>
          </ns3:TrackPointExtension>
        </extensions>
      </trkpt>
      <trkpt lat="45.321681685745716094970703125" lon="-71.0078735835850238800048828125">
        <ele>705.5999755859375</ele>
        <time>2026-08-21T20:54:24.000Z</time>
        <extensions>
          <ns3:TrackPointExtension>
            <ns3:hr>132</ns3:hr>
            <ns3:cad>0</ns3:cad>
          </ns3:TrackPointExtension>
        </extensions>
      </trkpt>
      <trkpt lat="45.3216677717864513397216796875" lon="-71.0078997351229190826416015625">
        <ele>705.5999755859375</ele>
        <time>2026-08-21T20:54:25.000Z</time>
        <extensions>
          <ns3:TrackPointExtension>
            <ns3:hr>132</ns3:hr>
            <ns3:cad>0</ns3:cad>
          </ns3:TrackPointExtension>
        </extensions>
      </trkpt>
      <trkpt lat="45.3216607309877872467041015625" lon="-71.00792706012725830078125">
        <ele>705.5999755859375</ele>
        <time>2026-08-21T20:54:26.000Z</time>
        <extensions>
          <ns3:TrackPointExtension>
            <ns3:hr>132</ns3:hr>
            <ns3:cad>0</ns3:cad>
          </ns3:TrackPointExtension>
        </extensions>
      </trkpt>
      <trkpt lat="45.32165654003620147705078125" lon="-71.007949523627758026123046875">
        <ele>705.4000244140625</ele>
        <time>2026-08-21T20:54:27.000Z</time>
        <extensions>
          <ns3:TrackPointExtension>
            <ns3:hr>131</ns3:hr>
            <ns3:cad>0</ns3:cad>
          </ns3:TrackPointExtension>
        </extensions>
      </trkpt>
      <trkpt lat="45.3216540254652500152587890625" lon="-71.00796796381473541259765625">
        <ele>705.4000244140625</ele>
        <time>2026-08-21T20:54:28.000Z</time>
        <extensions>
          <ns3:TrackPointExtension>
            <ns3:hr>131</ns3:hr>
            <ns3:cad>0</ns3:cad>
          </ns3:TrackPointExtension>
        </extensions>
      </trkpt>
      <trkpt lat="45.3216523490846157073974609375" lon="-71.00798849947750568389892578125">
        <ele>705.20001220703125</ele>
        <time>2026-08-21T20:54:29.000Z</time>
        <extensions>
          <ns3:TrackPointExtension>
            <ns3:hr>131</ns3:hr>
            <ns3:cad>0</ns3:cad>
          </ns3:TrackPointExtension>
        </extensions>
      </trkpt>
      <trkpt lat="45.3216489963233470916748046875" lon="-71.0080083645880222320556640625">
        <ele>705.20001220703125</ele>
        <time>2026-08-21T20:54:30.000Z</time>
        <extensions>
          <ns3:TrackPointExtension>
            <ns3:hr>131</ns3:hr>
            <ns3:cad>0</ns3:cad>
          </ns3:TrackPointExtension>
        </extensions>
      </trkpt>
      <trkpt lat="45.3216416202485561370849609375" lon="-71.0080257989466190338134765625">
        <ele>705</ele>
        <time>2026-08-21T20:54:31.000Z</time>
        <extensions>
          <ns3:TrackPointExtension>
            <ns3:hr>131</ns3:hr>
            <ns3:cad>0</ns3:cad>
          </ns3:TrackPointExtension>
        </extensions>
      </trkpt>
      <trkpt lat="45.3216305561363697052001953125" lon="-71.00804901681840419769287109375">
        <ele>704.79998779296875</ele>
        <time>2026-08-21T20:54:32.000Z</time>
        <extensions>
          <ns3:TrackPointExtension>
            <ns3:hr>131</ns3:hr>
            <ns3:cad>0</ns3:cad>
          </ns3:TrackPointExtension>
        </extensions>
      </trkpt>
      <trkpt lat="45.3216188214719295501708984375" lon="-71.00806578062474727630615234375">
        <ele>704.4000244140625</ele>
        <time>2026-08-21T20:54:33.000Z</time>
        <extensions>
          <ns3:TrackPointExtension>
            <ns3:hr>132</ns3:hr>
            <ns3:cad>0</ns3:cad>
          </ns3:TrackPointExtension>
        </extensions>
      </trkpt>
      <trkpt lat="45.3216040693223476409912109375" lon="-71.00807114504277706146240234375">
        <ele>704.20001220703125</ele>
        <time>2026-08-21T20:54:34.000Z</time>
        <extensions>
          <ns3:TrackPointExtension>
            <ns3:hr>131</ns3:hr>
            <ns3:cad>0</ns3:cad>
          </ns3:TrackPointExtension>
        </extensions>
      </trkpt>
      <trkpt lat="45.32159677706658840179443359375" lon="-71.00807013921439647674560546875">
        <ele>704</ele>
        <time>2026-08-21T20:54:35.000Z</time>
        <extensions>
          <ns3:TrackPointExtension>
            <ns3:hr>130</ns3:hr>
            <ns3:cad>77</ns3:cad>
          </ns3:TrackPointExtension>
        </extensions>
      </trkpt>
      <trkpt lat="45.32158755697309970855712890625" lon="-71.00808388553559780120849609375">
        <ele>703.79998779296875</ele>
        <time>2026-08-21T20:54:36.000Z</time>
        <extensions>
          <ns3:TrackPointExtension>
            <ns3:hr>130</ns3:hr>
            <ns3:cad>77</ns3:cad>
          </ns3:TrackPointExtension>
        </extensions>
      </trkpt>
      <trkpt lat="45.3215754032135009765625" lon="-71.00811707787215709686279296875">
        <ele>703.79998779296875</ele>
        <time>2026-08-21T20:54:37.000Z</time>
        <extensions>
          <ns3:TrackPointExtension>
            <ns3:hr>130</ns3:hr>
            <ns3:cad>79</ns3:cad>
          </ns3:TrackPointExtension>
        </extensions>
      </trkpt>
      <trkpt lat="45.32156023196876049041748046875" lon="-71.008129231631755828857421875">
        <ele>704</ele>
        <time>2026-08-21T20:54:38.000Z</time>
        <extensions>
          <ns3:TrackPointExtension>
            <ns3:hr>130</ns3:hr>
            <ns3:cad>73</ns3:cad>
          </ns3:TrackPointExtension>
        </extensions>
      </trkpt>
      <trkpt lat="45.32154665328562259674072265625" lon="-71.008136607706546783447265625">
        <ele>704</ele>
        <time>2026-08-21T20:54:39.000Z</time>
        <extensions>
          <ns3:TrackPointExtension>
            <ns3:hr>130</ns3:hr>
            <ns3:cad>73</ns3:cad>
          </ns3:TrackPointExtension>
        </extensions>
      </trkpt>
      <trkpt lat="45.32153206877410411834716796875" lon="-71.00814775563776493072509765625">
        <ele>704</ele>
        <time>2026-08-21T20:54:40.000Z</time>
        <extensions>
          <ns3:TrackPointExtension>
            <ns3:hr>130</ns3:hr>
            <ns3:cad>70</ns3:cad>
          </ns3:TrackPointExtension>
        </extensions>
      </trkpt>
      <trkpt lat="45.32151916064321994781494140625" lon="-71.0081656090915203094482421875">
        <ele>704</ele>
        <time>2026-08-21T20:54:41.000Z</time>
        <extensions>
          <ns3:TrackPointExtension>
            <ns3:hr>130</ns3:hr>
            <ns3:cad>70</ns3:cad>
          </ns3:TrackPointExtension>
        </extensions>
      </trkpt>
      <trkpt lat="45.32150742597877979278564453125" lon="-71.00818145088851451873779296875">
        <ele>704</ele>
        <time>2026-08-21T20:54:42.000Z</time>
        <extensions>
          <ns3:TrackPointExtension>
            <ns3:hr>130</ns3:hr>
            <ns3:cad>70</ns3:cad>
          </ns3:TrackPointExtension>
        </extensions>
      </trkpt>
      <trkpt lat="45.32149585895240306854248046875" lon="-71.00819528102874755859375">
        <ele>704</ele>
        <time>2026-08-21T20:54:43.000Z</time>
        <extensions>
          <ns3:TrackPointExtension>
            <ns3:hr>130</ns3:hr>
            <ns3:cad>70</ns3:cad>
          </ns3:TrackPointExtension>
        </extensions>
      </trkpt>
      <trkpt lat="45.32148697413504123687744140625" lon="-71.0082135535776615142822265625">
        <ele>704</ele>
        <time>2026-08-21T20:54:44.000Z</time>
        <extensions>
          <ns3:TrackPointExtension>
            <ns3:hr>131</ns3:hr>
            <ns3:cad>70</ns3:cad>
          </ns3:TrackPointExtension>
        </extensions>
      </trkpt>
      <trkpt lat="45.32147758640348911285400390625" lon="-71.00823861546814441680908203125">
        <ele>704</ele>
        <time>2026-08-21T20:54:45.000Z</time>
        <extensions>
          <ns3:TrackPointExtension>
            <ns3:hr>131</ns3:hr>
            <ns3:cad>70</ns3:cad>
          </ns3:TrackPointExtension>
        </extensions>
      </trkpt>
      <trkpt lat="45.32146744430065155029296875" lon="-71.00826007314026355743408203125">
        <ele>704</ele>
        <time>2026-08-21T20:54:46.000Z</time>
        <extensions>
          <ns3:TrackPointExtension>
            <ns3:hr>130</ns3:hr>
            <ns3:cad>70</ns3:cad>
          </ns3:TrackPointExtension>
        </extensions>
      </trkpt>
      <trkpt lat="45.32145311124622821807861328125" lon="-71.00827532820403575897216796875">
        <ele>704</ele>
        <time>2026-08-21T20:54:47.000Z</time>
        <extensions>
          <ns3:TrackPointExtension>
            <ns3:hr>130</ns3:hr>
            <ns3:cad>0</ns3:cad>
          </ns3:TrackPointExtension>
        </extensions>
      </trkpt>
      <trkpt lat="45.32144129276275634765625" lon="-71.0082926787436008453369140625">
        <ele>704</ele>
        <time>2026-08-21T20:54:48.000Z</time>
        <extensions>
          <ns3:TrackPointExtension>
            <ns3:hr>129</ns3:hr>
            <ns3:cad>0</ns3:cad>
          </ns3:TrackPointExtension>
        </extensions>
      </trkpt>
      <trkpt lat="45.32143433578312397003173828125" lon="-71.00832042284309864044189453125">
        <ele>704</ele>
        <time>2026-08-21T20:54:49.000Z</time>
        <extensions>
          <ns3:TrackPointExtension>
            <ns3:hr>128</ns3:hr>
            <ns3:cad>0</ns3:cad>
          </ns3:TrackPointExtension>
        </extensions>
      </trkpt>
      <trkpt lat="45.32143316231667995452880859375" lon="-71.00833752192556858062744140625">
        <ele>704</ele>
        <time>2026-08-21T20:54:50.000Z</time>
        <extensions>
          <ns3:TrackPointExtension>
            <ns3:hr>128</ns3:hr>
            <ns3:cad>0</ns3:cad>
          </ns3:TrackPointExtension>
        </extensions>
      </trkpt>
      <trkpt lat="45.321428887546062469482421875" lon="-71.00836451165378093719482421875">
        <ele>704</ele>
        <time>2026-08-21T20:54:51.000Z</time>
        <extensions>
          <ns3:TrackPointExtension>
            <ns3:hr>127</ns3:hr>
            <ns3:cad>0</ns3:cad>
          </ns3:TrackPointExtension>
        </extensions>
      </trkpt>
      <trkpt lat="45.32142645679414272308349609375" lon="-71.008385717868804931640625">
        <ele>704.20001220703125</ele>
        <time>2026-08-21T20:54:52.000Z</time>
        <extensions>
          <ns3:TrackPointExtension>
            <ns3:hr>127</ns3:hr>
            <ns3:cad>0</ns3:cad>
          </ns3:TrackPointExtension>
        </extensions>
      </trkpt>
      <trkpt lat="45.321428216993808746337890625" lon="-71.0083956085145473480224609375">
        <ele>704.20001220703125</ele>
        <time>2026-08-21T20:54:53.000Z</time>
        <extensions>
          <ns3:TrackPointExtension>
            <ns3:hr>126</ns3:hr>
            <ns3:cad>0</ns3:cad>
          </ns3:TrackPointExtension>
        </extensions>
      </trkpt>
      <trkpt lat="45.321426205337047576904296875" lon="-71.0084111988544464111328125">
        <ele>704.20001220703125</ele>
        <time>2026-08-21T20:54:54.000Z</time>
        <extensions>
          <ns3:TrackPointExtension>
            <ns3:hr>126</ns3:hr>
            <ns3:cad>0</ns3:cad>
          </ns3:TrackPointExtension>
        </extensions>
      </trkpt>
      <trkpt lat="45.32142360694706439971923828125" lon="-71.00842804647982120513916015625">
        <ele>704.4000244140625</ele>
        <time>2026-08-21T20:54:55.000Z</time>
        <extensions>
          <ns3:TrackPointExtension>
            <ns3:hr>126</ns3:hr>
            <ns3:cad>0</ns3:cad>
          </ns3:TrackPointExtension>
        </extensions>
      </trkpt>
      <trkpt lat="45.32141723670065402984619140625" lon="-71.00844413973391056060791015625">
        <ele>704.4000244140625</ele>
        <time>2026-08-21T20:54:56.000Z</time>
        <extensions>
          <ns3:TrackPointExtension>
            <ns3:hr>127</ns3:hr>
            <ns3:cad>0</ns3:cad>
          </ns3:TrackPointExtension>
        </extensions>
      </trkpt>
      <trkpt lat="45.3214183263480663299560546875" lon="-71.00845268927514553070068359375">
        <ele>704.4000244140625</ele>
        <time>2026-08-21T20:54:57.000Z</time>
        <extensions>
          <ns3:TrackPointExtension>
            <ns3:hr>127</ns3:hr>
            <ns3:cad>75</ns3:cad>
          </ns3:TrackPointExtension>
        </extensions>
      </trkpt>
      <trkpt lat="45.3214196674525737762451171875" lon="-71.0084675252437591552734375">
        <ele>704.4000244140625</ele>
        <time>2026-08-21T20:54:58.000Z</time>
        <extensions>
          <ns3:TrackPointExtension>
            <ns3:hr>127</ns3:hr>
            <ns3:cad>75</ns3:cad>
          </ns3:TrackPointExtension>
        </extensions>
      </trkpt>
      <trkpt lat="45.32141706906259059906005859375" lon="-71.00849309004843235015869140625">
        <ele>704.4000244140625</ele>
        <time>2026-08-21T20:54:59.000Z</time>
        <extensions>
          <ns3:TrackPointExtension>
            <ns3:hr>127</ns3:hr>
            <ns3:cad>0</ns3:cad>
          </ns3:TrackPointExtension>
        </extensions>
      </trkpt>
      <trkpt lat="45.3214166499674320220947265625" lon="-71.00851471535861492156982421875">
        <ele>704.4000244140625</ele>
        <time>2026-08-21T20:55:00.000Z</time>
        <extensions>
          <ns3:TrackPointExtension>
            <ns3:hr>127</ns3:hr>
            <ns3:cad>0</ns3:cad>
          </ns3:TrackPointExtension>
        </extensions>
      </trkpt>
      <trkpt lat="45.32142025418579578399658203125" lon="-71.00852795876562595367431640625">
        <ele>704.4000244140625</ele>
        <time>2026-08-21T20:55:01.000Z</time>
        <extensions>
          <ns3:TrackPointExtension>
            <ns3:hr>128</ns3:hr>
            <ns3:cad>0</ns3:cad>
          </ns3:TrackPointExtension>
        </extensions>
      </trkpt>
      <trkpt lat="45.32142478041350841522216796875" lon="-71.00853952579200267791748046875">
        <ele>704.4000244140625</ele>
        <time>2026-08-21T20:55:02.000Z</time>
        <extensions>
          <ns3:TrackPointExtension>
            <ns3:hr>128</ns3:hr>
            <ns3:cad>0</ns3:cad>
          </ns3:TrackPointExtension>
        </extensions>
      </trkpt>
      <trkpt lat="45.32142880372703075408935546875" lon="-71.00856634788215160369873046875">
        <ele>704.4000244140625</ele>
        <time>2026-08-21T20:55:03.000Z</time>
        <extensions>
          <ns3:TrackPointExtension>
            <ns3:hr>128</ns3:hr>
            <ns3:cad>0</ns3:cad>
          </ns3:TrackPointExtension>
        </extensions>
      </trkpt>
      <trkpt lat="45.32142930664122104644775390625" lon="-71.0085890628397464752197265625">
        <ele>704.5999755859375</ele>
        <time>2026-08-21T20:55:04.000Z</time>
        <extensions>
          <ns3:TrackPointExtension>
            <ns3:hr>128</ns3:hr>
            <ns3:cad>0</ns3:cad>
          </ns3:TrackPointExtension>
        </extensions>
      </trkpt>
      <trkpt lat="45.32142628915607929229736328125" lon="-71.00860767066478729248046875">
        <ele>704.5999755859375</ele>
        <time>2026-08-21T20:55:05.000Z</time>
        <extensions>
          <ns3:TrackPointExtension>
            <ns3:hr>128</ns3:hr>
            <ns3:cad>0</ns3:cad>
          </ns3:TrackPointExtension>
        </extensions>
      </trkpt>
      <trkpt lat="45.32142243348062038421630859375" lon="-71.0086266137659549713134765625">
        <ele>704.5999755859375</ele>
        <time>2026-08-21T20:55:06.000Z</time>
        <extensions>
          <ns3:TrackPointExtension>
            <ns3:hr>128</ns3:hr>
            <ns3:cad>0</ns3:cad>
          </ns3:TrackPointExtension>
        </extensions>
      </trkpt>
      <trkpt lat="45.32141405157744884490966796875" lon="-71.00865284912288188934326171875">
        <ele>704.5999755859375</ele>
        <time>2026-08-21T20:55:07.000Z</time>
        <extensions>
          <ns3:TrackPointExtension>
            <ns3:hr>127</ns3:hr>
            <ns3:cad>0</ns3:cad>
          </ns3:TrackPointExtension>
        </extensions>
      </trkpt>
      <trkpt lat="45.32141069881618022918701171875" lon="-71.00866944529116153717041015625">
        <ele>704.79998779296875</ele>
        <time>2026-08-21T20:55:08.000Z</time>
        <extensions>
          <ns3:TrackPointExtension>
            <ns3:hr>128</ns3:hr>
            <ns3:cad>0</ns3:cad>
          </ns3:TrackPointExtension>
        </extensions>
      </trkpt>
      <trkpt lat="45.3214104473590850830078125" lon="-71.00868084467947483062744140625">
        <ele>704.79998779296875</ele>
        <time>2026-08-21T20:55:09.000Z</time>
        <extensions>
          <ns3:TrackPointExtension>
            <ns3:hr>128</ns3:hr>
            <ns3:cad>0</ns3:cad>
          </ns3:TrackPointExtension>
        </extensions>
      </trkpt>
      <trkpt lat="45.32141271047294139862060546875" lon="-71.00869559682905673980712890625">
        <ele>705</ele>
        <time>2026-08-21T20:55:10.000Z</time>
        <extensions>
          <ns3:TrackPointExtension>
            <ns3:hr>127</ns3:hr>
            <ns3:cad>0</ns3:cad>
          </ns3:TrackPointExtension>
        </extensions>
      </trkpt>
      <trkpt lat="45.321408770978450775146484375" lon="-71.0087111033499240875244140625">
        <ele>705</ele>
        <time>2026-08-21T20:55:11.000Z</time>
        <extensions>
          <ns3:TrackPointExtension>
            <ns3:hr>128</ns3:hr>
            <ns3:cad>0</ns3:cad>
          </ns3:TrackPointExtension>
        </extensions>
      </trkpt>
      <trkpt lat="45.321401059627532958984375" lon="-71.00872434675693511962890625">
        <ele>705</ele>
        <time>2026-08-21T20:55:12.000Z</time>
        <extensions>
          <ns3:TrackPointExtension>
            <ns3:hr>129</ns3:hr>
            <ns3:cad>0</ns3:cad>
          </ns3:TrackPointExtension>
        </extensions>
      </trkpt>
      <trkpt lat="45.32139301300048828125" lon="-71.00872711278498172760009765625">
        <ele>705.20001220703125</ele>
        <time>2026-08-21T20:55:13.000Z</time>
        <extensions>
          <ns3:TrackPointExtension>
            <ns3:hr>129</ns3:hr>
            <ns3:cad>0</ns3:cad>
          </ns3:TrackPointExtension>
        </extensions>
      </trkpt>
      <trkpt lat="45.32137515954673290252685546875" lon="-71.00873650051653385162353515625">
        <ele>705.4000244140625</ele>
        <time>2026-08-21T20:55:14.000Z</time>
        <extensions>
          <ns3:TrackPointExtension>
            <ns3:hr>129</ns3:hr>
            <ns3:cad>0</ns3:cad>
          </ns3:TrackPointExtension>
        </extensions>
      </trkpt>
      <trkpt lat="45.32136476598680019378662109375" lon="-71.00873775780200958251953125">
        <ele>705.5999755859375</ele>
        <time>2026-08-21T20:55:15.000Z</time>
        <extensions>
          <ns3:TrackPointExtension>
            <ns3:hr>130</ns3:hr>
            <ns3:cad>0</ns3:cad>
          </ns3:TrackPointExtension>
        </extensions>
      </trkpt>
      <trkpt lat="45.32135873101651668548583984375" lon="-71.00873247720301151275634765625">
        <ele>705.5999755859375</ele>
        <time>2026-08-21T20:55:16.000Z</time>
        <extensions>
          <ns3:TrackPointExtension>
            <ns3:hr>130</ns3:hr>
            <ns3:cad>0</ns3:cad>
          </ns3:TrackPointExtension>
        </extensions>
      </trkpt>
      <trkpt lat="45.3213546238839626312255859375" lon="-71.00872560404241085052490234375">
        <ele>705.79998779296875</ele>
        <time>2026-08-21T20:55:17.000Z</time>
        <extensions>
          <ns3:TrackPointExtension>
            <ns3:hr>130</ns3:hr>
            <ns3:cad>0</ns3:cad>
          </ns3:TrackPointExtension>
        </extensions>
      </trkpt>
      <trkpt lat="45.32134540379047393798828125" lon="-71.00871495902538299560546875">
        <ele>706</ele>
        <time>2026-08-21T20:55:18.000Z</time>
        <extensions>
          <ns3:TrackPointExtension>
            <ns3:hr>130</ns3:hr>
            <ns3:cad>0</ns3:cad>
          </ns3:TrackPointExtension>
        </extensions>
      </trkpt>
      <trkpt lat="45.32133727334439754486083984375" lon="-71.0087070800364017486572265625">
        <ele>706</ele>
        <time>2026-08-21T20:55:19.000Z</time>
        <extensions>
          <ns3:TrackPointExtension>
            <ns3:hr>130</ns3:hr>
            <ns3:cad>0</ns3:cad>
          </ns3:TrackPointExtension>
        </extensions>
      </trkpt>
      <trkpt lat="45.321333669126033782958984375" lon="-71.008698530495166778564453125">
        <ele>706</ele>
        <time>2026-08-21T20:55:20.000Z</time>
        <extensions>
          <ns3:TrackPointExtension>
            <ns3:hr>131</ns3:hr>
            <ns3:cad>0</ns3:cad>
          </ns3:TrackPointExtension>
        </extensions>
      </trkpt>
      <trkpt lat="45.3213288076221942901611328125" lon="-71.008692495524883270263671875">
        <ele>706</ele>
        <time>2026-08-21T20:55:21.000Z</time>
        <extensions>
          <ns3:TrackPointExtension>
            <ns3:hr>131</ns3:hr>
            <ns3:cad>0</ns3:cad>
          </ns3:TrackPointExtension>
        </extensions>
      </trkpt>
      <trkpt lat="45.3213217668235301971435546875" lon="-71.0086926631629467010498046875">
        <ele>706</ele>
        <time>2026-08-21T20:55:22.000Z</time>
        <extensions>
          <ns3:TrackPointExtension>
            <ns3:hr>132</ns3:hr>
            <ns3:cad>0</ns3:cad>
          </ns3:TrackPointExtension>
        </extensions>
      </trkpt>
      <trkpt lat="45.3213143907487392425537109375" lon="-71.0086856223642826080322265625">
        <ele>706</ele>
        <time>2026-08-21T20:55:23.000Z</time>
        <extensions>
          <ns3:TrackPointExtension>
            <ns3:hr>132</ns3:hr>
            <ns3:cad>0</ns3:cad>
          </ns3:TrackPointExtension>
        </extensions>
      </trkpt>
      <trkpt lat="45.32130517065525054931640625" lon="-71.0086725465953350067138671875">
        <ele>706.20001220703125</ele>
        <time>2026-08-21T20:55:24.000Z</time>
        <extensions>
          <ns3:TrackPointExtension>
            <ns3:hr>132</ns3:hr>
            <ns3:cad>0</ns3:cad>
          </ns3:TrackPointExtension>
        </extensions>
      </trkpt>
      <trkpt lat="45.32129905186593532562255859375" lon="-71.00865955464541912078857421875">
        <ele>706.4000244140625</ele>
        <time>2026-08-21T20:55:25.000Z</time>
        <extensions>
          <ns3:TrackPointExtension>
            <ns3:hr>132</ns3:hr>
            <ns3:cad>0</ns3:cad>
          </ns3:TrackPointExtension>
        </extensions>
      </trkpt>
      <trkpt lat="45.32129419036209583282470703125" lon="-71.0086423717439174652099609375">
        <ele>706.4000244140625</ele>
        <time>2026-08-21T20:55:26.000Z</time>
        <extensions>
          <ns3:TrackPointExtension>
            <ns3:hr>132</ns3:hr>
            <ns3:cad>0</ns3:cad>
          </ns3:TrackPointExtension>
        </extensions>
      </trkpt>
      <trkpt lat="45.3212862275540828704833984375" lon="-71.008630804717540740966796875">
        <ele>706.5999755859375</ele>
        <time>2026-08-21T20:55:27.000Z</time>
        <extensions>
          <ns3:TrackPointExtension>
            <ns3:hr>132</ns3:hr>
            <ns3:cad>0</ns3:cad>
          </ns3:TrackPointExtension>
        </extensions>
      </trkpt>
      <trkpt lat="45.32127541489899158477783203125" lon="-71.008621416985988616943359375">
        <ele>706.5999755859375</ele>
        <time>2026-08-21T20:55:28.000Z</time>
        <extensions>
          <ns3:TrackPointExtension>
            <ns3:hr>132</ns3:hr>
            <ns3:cad>0</ns3:cad>
          </ns3:TrackPointExtension>
        </extensions>
      </trkpt>
      <trkpt lat="45.32126435078680515289306640625" lon="-71.00861932151019573211669921875">
        <ele>706.5999755859375</ele>
        <time>2026-08-21T20:55:29.000Z</time>
        <extensions>
          <ns3:TrackPointExtension>
            <ns3:hr>132</ns3:hr>
            <ns3:cad>53</ns3:cad>
          </ns3:TrackPointExtension>
        </extensions>
      </trkpt>
      <trkpt lat="45.32125513069331645965576171875" lon="-71.0086132027208805084228515625">
        <ele>706.79998779296875</ele>
        <time>2026-08-21T20:55:30.000Z</time>
        <extensions>
          <ns3:TrackPointExtension>
            <ns3:hr>131</ns3:hr>
            <ns3:cad>53</ns3:cad>
          </ns3:TrackPointExtension>
        </extensions>
      </trkpt>
      <trkpt lat="45.3212456591427326202392578125" lon="-71.008611358702182769775390625">
        <ele>706.79998779296875</ele>
        <time>2026-08-21T20:55:31.000Z</time>
        <extensions>
          <ns3:TrackPointExtension>
            <ns3:hr>132</ns3:hr>
            <ns3:cad>53</ns3:cad>
          </ns3:TrackPointExtension>
        </extensions>
      </trkpt>
      <trkpt lat="45.3212265484035015106201171875" lon="-71.0086054913699626922607421875">
        <ele>707</ele>
        <time>2026-08-21T20:55:32.000Z</time>
        <extensions>
          <ns3:TrackPointExtension>
            <ns3:hr>131</ns3:hr>
            <ns3:cad>53</ns3:cad>
          </ns3:TrackPointExtension>
        </extensions>
      </trkpt>
      <trkpt lat="45.32121456228196620941162109375" lon="-71.0086058266460895538330078125">
        <ele>707</ele>
        <time>2026-08-21T20:55:33.000Z</time>
        <extensions>
          <ns3:TrackPointExtension>
            <ns3:hr>132</ns3:hr>
            <ns3:cad>53</ns3:cad>
          </ns3:TrackPointExtension>
        </extensions>
      </trkpt>
      <trkpt lat="45.32119930721819400787353515625" lon="-71.0086096823215484619140625">
        <ele>707.20001220703125</ele>
        <time>2026-08-21T20:55:34.000Z</time>
        <extensions>
          <ns3:TrackPointExtension>
            <ns3:hr>132</ns3:hr>
            <ns3:cad>53</ns3:cad>
          </ns3:TrackPointExtension>
        </extensions>
      </trkpt>
      <trkpt lat="45.3211883269250392913818359375" lon="-71.00861026905477046966552734375">
        <ele>707.4000244140625</ele>
        <time>2026-08-21T20:55:35.000Z</time>
        <extensions>
          <ns3:TrackPointExtension>
            <ns3:hr>132</ns3:hr>
            <ns3:cad>54</ns3:cad>
          </ns3:TrackPointExtension>
        </extensions>
      </trkpt>
      <trkpt lat="45.3211802802979946136474609375" lon="-71.00861479528248310089111328125">
        <ele>707.5999755859375</ele>
        <time>2026-08-21T20:55:36.000Z</time>
        <extensions>
          <ns3:TrackPointExtension>
            <ns3:hr>132</ns3:hr>
            <ns3:cad>51</ns3:cad>
          </ns3:TrackPointExtension>
        </extensions>
      </trkpt>
      <trkpt lat="45.3211648575961589813232421875" lon="-71.00862317718565464019775390625">
        <ele>707.79998779296875</ele>
        <time>2026-08-21T20:55:37.000Z</time>
        <extensions>
          <ns3:TrackPointExtension>
            <ns3:hr>132</ns3:hr>
            <ns3:cad>51</ns3:cad>
          </ns3:TrackPointExtension>
        </extensions>
      </trkpt>
      <trkpt lat="45.32115538604557514190673828125" lon="-71.00862233899533748626708984375">
        <ele>708</ele>
        <time>2026-08-21T20:55:38.000Z</time>
        <extensions>
          <ns3:TrackPointExtension>
            <ns3:hr>132</ns3:hr>
            <ns3:cad>51</ns3:cad>
          </ns3:TrackPointExtension>
        </extensions>
      </trkpt>
      <trkpt lat="45.3211390413343906402587890625" lon="-71.00862644612789154052734375">
        <ele>708.20001220703125</ele>
        <time>2026-08-21T20:55:39.000Z</time>
        <extensions>
          <ns3:TrackPointExtension>
            <ns3:hr>132</ns3:hr>
            <ns3:cad>51</ns3:cad>
          </ns3:TrackPointExtension>
        </extensions>
      </trkpt>
      <trkpt lat="45.3211249597370624542236328125" lon="-71.00862435065209865570068359375">
        <ele>708.4000244140625</ele>
        <time>2026-08-21T20:55:40.000Z</time>
        <extensions>
          <ns3:TrackPointExtension>
            <ns3:hr>133</ns3:hr>
            <ns3:cad>51</ns3:cad>
          </ns3:TrackPointExtension>
        </extensions>
      </trkpt>
      <trkpt lat="45.321113057434558868408203125" lon="-71.0086257755756378173828125">
        <ele>708.5999755859375</ele>
        <time>2026-08-21T20:55:41.000Z</time>
        <extensions>
          <ns3:TrackPointExtension>
            <ns3:hr>132</ns3:hr>
            <ns3:cad>51</ns3:cad>
          </ns3:TrackPointExtension>
        </extensions>
      </trkpt>
      <trkpt lat="45.3211038373410701751708984375" lon="-71.0086276195943355560302734375">
        <ele>708.79998779296875</ele>
        <time>2026-08-21T20:55:42.000Z</time>
        <extensions>
          <ns3:TrackPointExtension>
            <ns3:hr>132</ns3:hr>
            <ns3:cad>51</ns3:cad>
          </ns3:TrackPointExtension>
        </extensions>
      </trkpt>
      <trkpt lat="45.32109319232404232025146484375" lon="-71.008627116680145263671875">
        <ele>709</ele>
        <time>2026-08-21T20:55:43.000Z</time>
        <extensions>
          <ns3:TrackPointExtension>
            <ns3:hr>133</ns3:hr>
            <ns3:cad>0</ns3:cad>
          </ns3:TrackPointExtension>
        </extensions>
      </trkpt>
      <trkpt lat="45.32107860781252384185791015625" lon="-71.008622758090496063232421875">
        <ele>709.20001220703125</ele>
        <time>2026-08-21T20:55:44.000Z</time>
        <extensions>
          <ns3:TrackPointExtension>
            <ns3:hr>132</ns3:hr>
            <ns3:cad>0</ns3:cad>
          </ns3:TrackPointExtension>
        </extensions>
      </trkpt>
      <trkpt lat="45.32106469385325908660888671875" lon="-71.00862242281436920166015625">
        <ele>709.20001220703125</ele>
        <time>2026-08-21T20:55:45.000Z</time>
        <extensions>
          <ns3:TrackPointExtension>
            <ns3:hr>132</ns3:hr>
            <ns3:cad>48</ns3:cad>
          </ns3:TrackPointExtension>
        </extensions>
      </trkpt>
      <trkpt lat="45.321052037179470062255859375" lon="-71.00861965678632259368896484375">
        <ele>709.4000244140625</ele>
        <time>2026-08-21T20:55:46.000Z</time>
        <extensions>
          <ns3:TrackPointExtension>
            <ns3:hr>132</ns3:hr>
            <ns3:cad>48</ns3:cad>
          </ns3:TrackPointExtension>
        </extensions>
      </trkpt>
      <trkpt lat="45.32104759477078914642333984375" lon="-71.00861680693924427032470703125">
        <ele>709.4000244140625</ele>
        <time>2026-08-21T20:55:47.000Z</time>
        <extensions>
          <ns3:TrackPointExtension>
            <ns3:hr>132</ns3:hr>
            <ns3:cad>48</ns3:cad>
          </ns3:TrackPointExtension>
        </extensions>
      </trkpt>
      <trkpt lat="45.3210389614105224609375" lon="-71.0086189024150371551513671875">
        <ele>709.5999755859375</ele>
        <time>2026-08-21T20:55:48.000Z</time>
        <extensions>
          <ns3:TrackPointExtension>
            <ns3:hr>133</ns3:hr>
            <ns3:cad>48</ns3:cad>
          </ns3:TrackPointExtension>
        </extensions>
      </trkpt>
      <trkpt lat="45.32101909630000591278076171875" lon="-71.00861831568181514739990234375">
        <ele>709.5999755859375</ele>
        <time>2026-08-21T20:55:49.000Z</time>
        <extensions>
          <ns3:TrackPointExtension>
            <ns3:hr>133</ns3:hr>
            <ns3:cad>48</ns3:cad>
          </ns3:TrackPointExtension>
        </extensions>
      </trkpt>
      <trkpt lat="45.32100677490234375" lon="-71.00861714221537113189697265625">
        <ele>709.79998779296875</ele>
        <time>2026-08-21T20:55:50.000Z</time>
        <extensions>
          <ns3:TrackPointExtension>
            <ns3:hr>133</ns3:hr>
            <ns3:cad>48</ns3:cad>
          </ns3:TrackPointExtension>
        </extensions>
      </trkpt>
      <trkpt lat="45.3209942020475864410400390625" lon="-71.00861278362572193145751953125">
        <ele>710</ele>
        <time>2026-08-21T20:55:51.000Z</time>
        <extensions>
          <ns3:TrackPointExtension>
            <ns3:hr>134</ns3:hr>
            <ns3:cad>48</ns3:cad>
          </ns3:TrackPointExtension>
        </extensions>
      </trkpt>
      <trkpt lat="45.32098087482154369354248046875" lon="-71.00861429236829280853271484375">
        <ele>710</ele>
        <time>2026-08-21T20:55:52.000Z</time>
        <extensions>
          <ns3:TrackPointExtension>
            <ns3:hr>135</ns3:hr>
            <ns3:cad>48</ns3:cad>
          </ns3:TrackPointExtension>
        </extensions>
      </trkpt>
      <trkpt lat="45.320966541767120361328125" lon="-71.0086088441312313079833984375">
        <ele>710.20001220703125</ele>
        <time>2026-08-21T20:55:53.000Z</time>
        <extensions>
          <ns3:TrackPointExtension>
            <ns3:hr>135</ns3:hr>
            <ns3:cad>48</ns3:cad>
          </ns3:TrackPointExtension>
        </extensions>
      </trkpt>
      <trkpt lat="45.32095204107463359832763671875" lon="-71.00861161015927791595458984375">
        <ele>710.20001220703125</ele>
        <time>2026-08-21T20:55:54.000Z</time>
        <extensions>
          <ns3:TrackPointExtension>
            <ns3:hr>136</ns3:hr>
            <ns3:cad>48</ns3:cad>
          </ns3:TrackPointExtension>
        </extensions>
      </trkpt>
      <trkpt lat="45.32092588953673839569091796875" lon="-71.0086152143776416778564453125">
        <ele>710.20001220703125</ele>
        <time>2026-08-21T20:55:55.000Z</time>
        <extensions>
          <ns3:TrackPointExtension>
            <ns3:hr>136</ns3:hr>
            <ns3:cad>51</ns3:cad>
          </ns3:TrackPointExtension>
        </extensions>
      </trkpt>
      <trkpt lat="45.32091557979583740234375" lon="-71.00861630402505397796630859375">
        <ele>710.4000244140625</ele>
        <time>2026-08-21T20:55:56.000Z</time>
        <extensions>
          <ns3:TrackPointExtension>
            <ns3:hr>137</ns3:hr>
            <ns3:cad>51</ns3:cad>
          </ns3:TrackPointExtension>
        </extensions>
      </trkpt>
      <trkpt lat="45.32090342603623867034912109375" lon="-71.00862217135727405548095703125">
        <ele>710.5999755859375</ele>
        <time>2026-08-21T20:55:57.000Z</time>
        <extensions>
          <ns3:TrackPointExtension>
            <ns3:hr>138</ns3:hr>
            <ns3:cad>50</ns3:cad>
          </ns3:TrackPointExtension>
        </extensions>
      </trkpt>
      <trkpt lat="45.32088615931570529937744140625" lon="-71.00862988270819187164306640625">
        <ele>710.79998779296875</ele>
        <time>2026-08-21T20:55:58.000Z</time>
        <extensions>
          <ns3:TrackPointExtension>
            <ns3:hr>138</ns3:hr>
            <ns3:cad>50</ns3:cad>
          </ns3:TrackPointExtension>
        </extensions>
      </trkpt>
      <trkpt lat="45.32088062725961208343505859375" lon="-71.00862820632755756378173828125">
        <ele>711</ele>
        <time>2026-08-21T20:55:59.000Z</time>
        <extensions>
          <ns3:TrackPointExtension>
            <ns3:hr>138</ns3:hr>
            <ns3:cad>50</ns3:cad>
          </ns3:TrackPointExtension>
        </extensions>
      </trkpt>
      <trkpt lat="45.3208738379180431365966796875" lon="-71.00863088853657245635986328125">
        <ele>711.20001220703125</ele>
        <time>2026-08-21T20:56:00.000Z</time>
        <extensions>
          <ns3:TrackPointExtension>
            <ns3:hr>137</ns3:hr>
            <ns3:cad>53</ns3:cad>
          </ns3:TrackPointExtension>
        </extensions>
      </trkpt>
      <trkpt lat="45.3208701498806476593017578125" lon="-71.008638851344585418701171875">
        <ele>711.4000244140625</ele>
        <time>2026-08-21T20:56:01.000Z</time>
        <extensions>
          <ns3:TrackPointExtension>
            <ns3:hr>136</ns3:hr>
            <ns3:cad>53</ns3:cad>
          </ns3:TrackPointExtension>
        </extensions>
      </trkpt>
      <trkpt lat="45.32086201943457126617431640625" lon="-71.00864094682037830352783203125">
        <ele>711.5999755859375</ele>
        <time>2026-08-21T20:56:02.000Z</time>
        <extensions>
          <ns3:TrackPointExtension>
            <ns3:hr>136</ns3:hr>
            <ns3:cad>53</ns3:cad>
          </ns3:TrackPointExtension>
        </extensions>
      </trkpt>
      <trkpt lat="45.32085749320685863494873046875" lon="-71.0086437128484249114990234375">
        <ele>711.5999755859375</ele>
        <time>2026-08-21T20:56:03.000Z</time>
        <extensions>
          <ns3:TrackPointExtension>
            <ns3:hr>136</ns3:hr>
            <ns3:cad>50</ns3:cad>
          </ns3:TrackPointExtension>
        </extensions>
      </trkpt>
      <trkpt lat="45.3208466805517673492431640625" lon="-71.00864815525710582733154296875">
        <ele>711.79998779296875</ele>
        <time>2026-08-21T20:56:04.000Z</time>
        <extensions>
          <ns3:TrackPointExtension>
            <ns3:hr>135</ns3:hr>
            <ns3:cad>50</ns3:cad>
          </ns3:TrackPointExtension>
        </extensions>
      </trkpt>
      <trkpt lat="45.3208413161337375640869140625" lon="-71.00864681415259838104248046875">
        <ele>712</ele>
        <time>2026-08-21T20:56:05.000Z</time>
        <extensions>
          <ns3:TrackPointExtension>
            <ns3:hr>134</ns3:hr>
            <ns3:cad>43</ns3:cad>
          </ns3:TrackPointExtension>
        </extensions>
      </trkpt>
      <trkpt lat="45.32083150930702686309814453125" lon="-71.00864413194358348846435546875">
        <ele>712</ele>
        <time>2026-08-21T20:56:06.000Z</time>
        <extensions>
          <ns3:TrackPointExtension>
            <ns3:hr>134</ns3:hr>
            <ns3:cad>43</ns3:cad>
          </ns3:TrackPointExtension>
        </extensions>
      </trkpt>
      <trkpt lat="45.3208191879093647003173828125" lon="-71.0086510889232158660888671875">
        <ele>712.20001220703125</ele>
        <time>2026-08-21T20:56:07.000Z</time>
        <extensions>
          <ns3:TrackPointExtension>
            <ns3:hr>134</ns3:hr>
            <ns3:cad>0</ns3:cad>
          </ns3:TrackPointExtension>
        </extensions>
      </trkpt>
      <trkpt lat="45.320808626711368560791015625" lon="-71.00865720771253108978271484375">
        <ele>712.20001220703125</ele>
        <time>2026-08-21T20:56:08.000Z</time>
        <extensions>
          <ns3:TrackPointExtension>
            <ns3:hr>134</ns3:hr>
            <ns3:cad>0</ns3:cad>
          </ns3:TrackPointExtension>
        </extensions>
      </trkpt>
      <trkpt lat="45.320797227323055267333984375" lon="-71.0086631588637828826904296875">
        <ele>712.4000244140625</ele>
        <time>2026-08-21T20:56:09.000Z</time>
        <extensions>
          <ns3:TrackPointExtension>
            <ns3:hr>135</ns3:hr>
            <ns3:cad>0</ns3:cad>
          </ns3:TrackPointExtension>
        </extensions>
      </trkpt>
      <trkpt lat="45.32078356482088565826416015625" lon="-71.0086651705205440521240234375">
        <ele>712.5999755859375</ele>
        <time>2026-08-21T20:56:10.000Z</time>
        <extensions>
          <ns3:TrackPointExtension>
            <ns3:hr>134</ns3:hr>
            <ns3:cad>0</ns3:cad>
          </ns3:TrackPointExtension>
        </extensions>
      </trkpt>
      <trkpt lat="45.3207719139754772186279296875" lon="-71.00867497734725475311279296875">
        <ele>712.5999755859375</ele>
        <time>2026-08-21T20:56:11.000Z</time>
        <extensions>
          <ns3:TrackPointExtension>
            <ns3:hr>134</ns3:hr>
            <ns3:cad>0</ns3:cad>
          </ns3:TrackPointExtension>
        </extensions>
      </trkpt>
      <trkpt lat="45.3207611851394176483154296875" lon="-71.00869081914424896240234375">
        <ele>712.79998779296875</ele>
        <time>2026-08-21T20:56:12.000Z</time>
        <extensions>
          <ns3:TrackPointExtension>
            <ns3:hr>134</ns3:hr>
            <ns3:cad>48</ns3:cad>
          </ns3:TrackPointExtension>
        </extensions>
      </trkpt>
      <trkpt lat="45.32075406052172183990478515625" lon="-71.00870179943740367889404296875">
        <ele>713</ele>
        <time>2026-08-21T20:56:13.000Z</time>
        <extensions>
          <ns3:TrackPointExtension>
            <ns3:hr>134</ns3:hr>
            <ns3:cad>48</ns3:cad>
          </ns3:TrackPointExtension>
        </extensions>
      </trkpt>
      <trkpt lat="45.3207447566092014312744140625" lon="-71.008708588778972625732421875">
        <ele>713.20001220703125</ele>
        <time>2026-08-21T20:56:14.000Z</time>
        <extensions>
          <ns3:TrackPointExtension>
            <ns3:hr>134</ns3:hr>
            <ns3:cad>48</ns3:cad>
          </ns3:TrackPointExtension>
        </extensions>
      </trkpt>
      <trkpt lat="45.3207363747060298919677734375" lon="-71.00871789269149303436279296875">
        <ele>713.4000244140625</ele>
        <time>2026-08-21T20:56:15.000Z</time>
        <extensions>
          <ns3:TrackPointExtension>
            <ns3:hr>134</ns3:hr>
            <ns3:cad>48</ns3:cad>
          </ns3:TrackPointExtension>
        </extensions>
      </trkpt>
      <trkpt lat="45.320727825164794921875" lon="-71.00872593931853771209716796875">
        <ele>713.5999755859375</ele>
        <time>2026-08-21T20:56:16.000Z</time>
        <extensions>
          <ns3:TrackPointExtension>
            <ns3:hr>134</ns3:hr>
            <ns3:cad>48</ns3:cad>
          </ns3:TrackPointExtension>
        </extensions>
      </trkpt>
      <trkpt lat="45.320720113813877105712890625" lon="-71.00873373448848724365234375">
        <ele>713.79998779296875</ele>
        <time>2026-08-21T20:56:17.000Z</time>
        <extensions>
          <ns3:TrackPointExtension>
            <ns3:hr>134</ns3:hr>
            <ns3:cad>47</ns3:cad>
          </ns3:TrackPointExtension>
        </extensions>
      </trkpt>
      <trkpt lat="45.32071416266262531280517578125" lon="-71.0087396018207073211669921875">
        <ele>714</ele>
        <time>2026-08-21T20:56:18.000Z</time>
        <extensions>
          <ns3:TrackPointExtension>
            <ns3:hr>134</ns3:hr>
            <ns3:cad>47</ns3:cad>
          </ns3:TrackPointExtension>
        </extensions>
      </trkpt>
      <trkpt lat="45.3207041881978511810302734375" lon="-71.00874505005776882171630859375">
        <ele>714.20001220703125</ele>
        <time>2026-08-21T20:56:19.000Z</time>
        <extensions>
          <ns3:TrackPointExtension>
            <ns3:hr>134</ns3:hr>
            <ns3:cad>47</ns3:cad>
          </ns3:TrackPointExtension>
        </extensions>
      </trkpt>
      <trkpt lat="45.32069706358015537261962890625" lon="-71.00875074975192546844482421875">
        <ele>714.4000244140625</ele>
        <time>2026-08-21T20:56:20.000Z</time>
        <extensions>
          <ns3:TrackPointExtension>
            <ns3:hr>134</ns3:hr>
            <ns3:cad>47</ns3:cad>
          </ns3:TrackPointExtension>
        </extensions>
      </trkpt>
      <trkpt lat="45.3206894360482692718505859375" lon="-71.00875318050384521484375">
        <ele>714.5999755859375</ele>
        <time>2026-08-21T20:56:21.000Z</time>
        <extensions>
          <ns3:TrackPointExtension>
            <ns3:hr>134</ns3:hr>
            <ns3:cad>0</ns3:cad>
          </ns3:TrackPointExtension>
        </extensions>
      </trkpt>
      <trkpt lat="45.32068147324025630950927734375" lon="-71.0087543539702892303466796875">
        <ele>714.79998779296875</ele>
        <time>2026-08-21T20:56:22.000Z</time>
        <extensions>
          <ns3:TrackPointExtension>
            <ns3:hr>135</ns3:hr>
            <ns3:cad>0</ns3:cad>
          </ns3:TrackPointExtension>
        </extensions>
      </trkpt>
      <trkpt lat="45.3206750191748142242431640625" lon="-71.008758209645748138427734375">
        <ele>715.20001220703125</ele>
        <time>2026-08-21T20:56:23.000Z</time>
        <extensions>
          <ns3:TrackPointExtension>
            <ns3:hr>135</ns3:hr>
            <ns3:cad>0</ns3:cad>
          </ns3:TrackPointExtension>
        </extensions>
      </trkpt>
      <trkpt lat="45.3206649608910083770751953125" lon="-71.00877153687179088592529296875">
        <ele>715.4000244140625</ele>
        <time>2026-08-21T20:56:24.000Z</time>
        <extensions>
          <ns3:TrackPointExtension>
            <ns3:hr>135</ns3:hr>
            <ns3:cad>0</ns3:cad>
          </ns3:TrackPointExtension>
        </extensions>
      </trkpt>
      <trkpt lat="45.32065473496913909912109375" lon="-71.008780337870121002197265625">
        <ele>715.5999755859375</ele>
        <time>2026-08-21T20:56:25.000Z</time>
        <extensions>
          <ns3:TrackPointExtension>
            <ns3:hr>135</ns3:hr>
            <ns3:cad>0</ns3:cad>
          </ns3:TrackPointExtension>
        </extensions>
      </trkpt>
      <trkpt lat="45.32065548934042453765869140625" lon="-71.008781678974628448486328125">
        <ele>715.79998779296875</ele>
        <time>2026-08-21T20:56:26.000Z</time>
        <extensions>
          <ns3:TrackPointExtension>
            <ns3:hr>134</ns3:hr>
            <ns3:cad>0</ns3:cad>
          </ns3:TrackPointExtension>
        </extensions>
      </trkpt>
      <trkpt lat="45.32064878381788730621337890625" lon="-71.008792407810688018798828125">
        <ele>716</ele>
        <time>2026-08-21T20:56:27.000Z</time>
        <extensions>
          <ns3:TrackPointExtension>
            <ns3:hr>134</ns3:hr>
            <ns3:cad>0</ns3:cad>
          </ns3:TrackPointExtension>
        </extensions>
      </trkpt>
      <trkpt lat="45.32064056955277919769287109375" lon="-71.00881009362637996673583984375">
        <ele>716.20001220703125</ele>
        <time>2026-08-21T20:56:28.000Z</time>
        <extensions>
          <ns3:TrackPointExtension>
            <ns3:hr>134</ns3:hr>
            <ns3:cad>0</ns3:cad>
          </ns3:TrackPointExtension>
        </extensions>
      </trkpt>
      <trkpt lat="45.32063327729701995849609375" lon="-71.00881830789148807525634765625">
        <ele>716.4000244140625</ele>
        <time>2026-08-21T20:56:29.000Z</time>
        <extensions>
          <ns3:TrackPointExtension>
            <ns3:hr>134</ns3:hr>
            <ns3:cad>0</ns3:cad>
          </ns3:TrackPointExtension>
        </extensions>
      </trkpt>
      <trkpt lat="45.3206287510693073272705078125" lon="-71.0088250972330570220947265625">
        <ele>716.5999755859375</ele>
        <time>2026-08-21T20:56:30.000Z</time>
        <extensions>
          <ns3:TrackPointExtension>
            <ns3:hr>135</ns3:hr>
            <ns3:cad>0</ns3:cad>
          </ns3:TrackPointExtension>
        </extensions>
      </trkpt>
      <trkpt lat="45.320618189871311187744140625" lon="-71.0088371671736240386962890625">
        <ele>716.79998779296875</ele>
        <time>2026-08-21T20:56:31.000Z</time>
        <extensions>
          <ns3:TrackPointExtension>
            <ns3:hr>135</ns3:hr>
            <ns3:cad>0</ns3:cad>
          </ns3:TrackPointExtension>
        </extensions>
      </trkpt>
      <trkpt lat="45.32060720957815647125244140625" lon="-71.00885166786611080169677734375">
        <ele>717</ele>
        <time>2026-08-21T20:56:32.000Z</time>
        <extensions>
          <ns3:TrackPointExtension>
            <ns3:hr>136</ns3:hr>
            <ns3:cad>0</ns3:cad>
          </ns3:TrackPointExtension>
        </extensions>
      </trkpt>
      <trkpt lat="45.32060218043625354766845703125" lon="-71.00886172614991664886474609375">
        <ele>717.20001220703125</ele>
        <time>2026-08-21T20:56:33.000Z</time>
        <extensions>
          <ns3:TrackPointExtension>
            <ns3:hr>137</ns3:hr>
            <ns3:cad>0</ns3:cad>
          </ns3:TrackPointExtension>
        </extensions>
      </trkpt>
      <trkpt lat="45.3205965645611286163330078125" lon="-71.00887631066143512725830078125">
        <ele>717.4000244140625</ele>
        <time>2026-08-21T20:56:34.000Z</time>
        <extensions>
          <ns3:TrackPointExtension>
            <ns3:hr>137</ns3:hr>
            <ns3:cad>0</ns3:cad>
          </ns3:TrackPointExtension>
        </extensions>
      </trkpt>
      <trkpt lat="45.3205885179340839385986328125" lon="-71.0088904760777950286865234375">
        <ele>717.5999755859375</ele>
        <time>2026-08-21T20:56:35.000Z</time>
        <extensions>
          <ns3:TrackPointExtension>
            <ns3:hr>137</ns3:hr>
            <ns3:cad>0</ns3:cad>
          </ns3:TrackPointExtension>
        </extensions>
      </trkpt>
      <trkpt lat="45.3205818124115467071533203125" lon="-71.00890497677028179168701171875">
        <ele>717.5999755859375</ele>
        <time>2026-08-21T20:56:36.000Z</time>
        <extensions>
          <ns3:TrackPointExtension>
            <ns3:hr>137</ns3:hr>
            <ns3:cad>0</ns3:cad>
          </ns3:TrackPointExtension>
        </extensions>
      </trkpt>
      <trkpt lat="45.32058105804026126861572265625" lon="-71.00891252048313617706298828125">
        <ele>717.79998779296875</ele>
        <time>2026-08-21T20:56:37.000Z</time>
        <extensions>
          <ns3:TrackPointExtension>
            <ns3:hr>136</ns3:hr>
            <ns3:cad>0</ns3:cad>
          </ns3:TrackPointExtension>
        </extensions>
      </trkpt>
      <trkpt lat="45.3205757774412631988525390625" lon="-71.00891587324440479278564453125">
        <ele>718</ele>
        <time>2026-08-21T20:56:38.000Z</time>
        <extensions>
          <ns3:TrackPointExtension>
            <ns3:hr>136</ns3:hr>
            <ns3:cad>0</ns3:cad>
          </ns3:TrackPointExtension>
        </extensions>
      </trkpt>
      <trkpt lat="45.3205717541277408599853515625" lon="-71.00892484188079833984375">
        <ele>718</ele>
        <time>2026-08-21T20:56:39.000Z</time>
        <extensions>
          <ns3:TrackPointExtension>
            <ns3:hr>136</ns3:hr>
            <ns3:cad>0</ns3:cad>
          </ns3:TrackPointExtension>
        </extensions>
      </trkpt>
      <trkpt lat="45.32057016156613826751708984375" lon="-71.00893381051719188690185546875">
        <ele>718.20001220703125</ele>
        <time>2026-08-21T20:56:40.000Z</time>
        <extensions>
          <ns3:TrackPointExtension>
            <ns3:hr>137</ns3:hr>
            <ns3:cad>0</ns3:cad>
          </ns3:TrackPointExtension>
        </extensions>
      </trkpt>
      <trkpt lat="45.32056622207164764404296875" lon="-71.00894420407712459564208984375">
        <ele>718.4000244140625</ele>
        <time>2026-08-21T20:56:41.000Z</time>
        <extensions>
          <ns3:TrackPointExtension>
            <ns3:hr>138</ns3:hr>
            <ns3:cad>41</ns3:cad>
          </ns3:TrackPointExtension>
        </extensions>
      </trkpt>
      <trkpt lat="45.3205566667020320892333984375" lon="-71.00895526818931102752685546875">
        <ele>718.5999755859375</ele>
        <time>2026-08-21T20:56:42.000Z</time>
        <extensions>
          <ns3:TrackPointExtension>
            <ns3:hr>138</ns3:hr>
            <ns3:cad>41</ns3:cad>
          </ns3:TrackPointExtension>
        </extensions>
      </trkpt>
      <trkpt lat="45.32055356539785861968994140625" lon="-71.0089649073779582977294921875">
        <ele>718.79998779296875</ele>
        <time>2026-08-21T20:56:43.000Z</time>
        <extensions>
          <ns3:TrackPointExtension>
            <ns3:hr>138</ns3:hr>
            <ns3:cad>44</ns3:cad>
          </ns3:TrackPointExtension>
        </extensions>
      </trkpt>
      <trkpt lat="45.32055012881755828857421875" lon="-71.0089712776243686676025390625">
        <ele>719.20001220703125</ele>
        <time>2026-08-21T20:56:44.000Z</time>
        <extensions>
          <ns3:TrackPointExtension>
            <ns3:hr>139</ns3:hr>
            <ns3:cad>44</ns3:cad>
          </ns3:TrackPointExtension>
        </extensions>
      </trkpt>
      <trkpt lat="45.3205454349517822265625" lon="-71.00898125208914279937744140625">
        <ele>719.4000244140625</ele>
        <time>2026-08-21T20:56:45.000Z</time>
        <extensions>
          <ns3:TrackPointExtension>
            <ns3:hr>141</ns3:hr>
            <ns3:cad>44</ns3:cad>
          </ns3:TrackPointExtension>
        </extensions>
      </trkpt>
      <trkpt lat="45.320543758571147918701171875" lon="-71.00898879580199718475341796875">
        <ele>719.5999755859375</ele>
        <time>2026-08-21T20:56:46.000Z</time>
        <extensions>
          <ns3:TrackPointExtension>
            <ns3:hr>142</ns3:hr>
            <ns3:cad>41</ns3:cad>
          </ns3:TrackPointExtension>
        </extensions>
      </trkpt>
      <trkpt lat="45.32053814269602298736572265625" lon="-71.00899751298129558563232421875">
        <ele>719.79998779296875</ele>
        <time>2026-08-21T20:56:47.000Z</time>
        <extensions>
          <ns3:TrackPointExtension>
            <ns3:hr>142</ns3:hr>
            <ns3:cad>41</ns3:cad>
          </ns3:TrackPointExtension>
        </extensions>
      </trkpt>
      <trkpt lat="45.3205308504402637481689453125" lon="-71.0090088285505771636962890625">
        <ele>720</ele>
        <time>2026-08-21T20:56:48.000Z</time>
        <extensions>
          <ns3:TrackPointExtension>
            <ns3:hr>142</ns3:hr>
            <ns3:cad>41</ns3:cad>
          </ns3:TrackPointExtension>
        </extensions>
      </trkpt>
      <trkpt lat="45.32053001224994659423828125" lon="-71.00901109166443347930908203125">
        <ele>720.20001220703125</ele>
        <time>2026-08-21T20:56:49.000Z</time>
        <extensions>
          <ns3:TrackPointExtension>
            <ns3:hr>142</ns3:hr>
            <ns3:cad>0</ns3:cad>
          </ns3:TrackPointExtension>
        </extensions>
      </trkpt>
      <trkpt lat="45.3205228038132190704345703125" lon="-71.00901578553020954132080078125">
        <ele>720.4000244140625</ele>
        <time>2026-08-21T20:56:50.000Z</time>
        <extensions>
          <ns3:TrackPointExtension>
            <ns3:hr>142</ns3:hr>
            <ns3:cad>0</ns3:cad>
          </ns3:TrackPointExtension>
        </extensions>
      </trkpt>
      <trkpt lat="45.3205197863280773162841796875" lon="-71.0090227425098419189453125">
        <ele>720.5999755859375</ele>
        <time>2026-08-21T20:56:51.000Z</time>
        <extensions>
          <ns3:TrackPointExtension>
            <ns3:hr>142</ns3:hr>
            <ns3:cad>0</ns3:cad>
          </ns3:TrackPointExtension>
        </extensions>
      </trkpt>
      <trkpt lat="45.3205124102532863616943359375" lon="-71.00903414189815521240234375">
        <ele>720.79998779296875</ele>
        <time>2026-08-21T20:56:52.000Z</time>
        <extensions>
          <ns3:TrackPointExtension>
            <ns3:hr>142</ns3:hr>
            <ns3:cad>0</ns3:cad>
          </ns3:TrackPointExtension>
        </extensions>
      </trkpt>
      <trkpt lat="45.32050780020654201507568359375" lon="-71.00903875194489955902099609375">
        <ele>721</ele>
        <time>2026-08-21T20:56:53.000Z</time>
        <extensions>
          <ns3:TrackPointExtension>
            <ns3:hr>142</ns3:hr>
            <ns3:cad>0</ns3:cad>
          </ns3:TrackPointExtension>
        </extensions>
      </trkpt>
      <trkpt lat="45.320505537092685699462890625" lon="-71.00903338752686977386474609375">
        <ele>721.20001220703125</ele>
        <time>2026-08-21T20:56:54.000Z</time>
        <extensions>
          <ns3:TrackPointExtension>
            <ns3:hr>141</ns3:hr>
            <ns3:cad>0</ns3:cad>
          </ns3:TrackPointExtension>
        </extensions>
      </trkpt>
      <trkpt lat="45.320496819913387298583984375" lon="-71.00903288461267948150634765625">
        <ele>721.4000244140625</ele>
        <time>2026-08-21T20:56:55.000Z</time>
        <extensions>
          <ns3:TrackPointExtension>
            <ns3:hr>141</ns3:hr>
            <ns3:cad>44</ns3:cad>
          </ns3:TrackPointExtension>
        </extensions>
      </trkpt>
      <trkpt lat="45.32048751600086688995361328125" lon="-71.009024083614349365234375">
        <ele>721.5999755859375</ele>
        <time>2026-08-21T20:56:56.000Z</time>
        <extensions>
          <ns3:TrackPointExtension>
            <ns3:hr>141</ns3:hr>
            <ns3:cad>44</ns3:cad>
          </ns3:TrackPointExtension>
        </extensions>
      </trkpt>
      <trkpt lat="45.32048701308667659759521484375" lon="-71.00902701728045940399169921875">
        <ele>721.5999755859375</ele>
        <time>2026-08-21T20:56:57.000Z</time>
        <extensions>
          <ns3:TrackPointExtension>
            <ns3:hr>141</ns3:hr>
            <ns3:cad>44</ns3:cad>
          </ns3:TrackPointExtension>
        </extensions>
      </trkpt>
      <trkpt lat="45.32048709690570831298828125" lon="-71.00902341306209564208984375">
        <ele>721.79998779296875</ele>
        <time>2026-08-21T20:56:58.000Z</time>
        <extensions>
          <ns3:TrackPointExtension>
            <ns3:hr>141</ns3:hr>
            <ns3:cad>0</ns3:cad>
          </ns3:TrackPointExtension>
        </extensions>
      </trkpt>
      <trkpt lat="45.32048064284026622772216796875" lon="-71.00901327095925807952880859375">
        <ele>721.79998779296875</ele>
        <time>2026-08-21T20:56:59.000Z</time>
        <extensions>
          <ns3:TrackPointExtension>
            <ns3:hr>141</ns3:hr>
            <ns3:cad>0</ns3:cad>
          </ns3:TrackPointExtension>
        </extensions>
      </trkpt>
      <trkpt lat="45.32047309912741184234619140625" lon="-71.00900874473154544830322265625">
        <ele>722</ele>
        <time>2026-08-21T20:57:00.000Z</time>
        <extensions>
          <ns3:TrackPointExtension>
            <ns3:hr>140</ns3:hr>
            <ns3:cad>0</ns3:cad>
          </ns3:TrackPointExtension>
        </extensions>
      </trkpt>
      <trkpt lat="45.320467986166477203369140625" lon="-71.00900555960834026336669921875">
        <ele>722.20001220703125</ele>
        <time>2026-08-21T20:57:01.000Z</time>
        <extensions>
          <ns3:TrackPointExtension>
            <ns3:hr>140</ns3:hr>
            <ns3:cad>0</ns3:cad>
          </ns3:TrackPointExtension>
        </extensions>
      </trkpt>
      <trkpt lat="45.32045851461589336395263671875" lon="-71.0090024583041667938232421875">
        <ele>722.20001220703125</ele>
        <time>2026-08-21T20:57:02.000Z</time>
        <extensions>
          <ns3:TrackPointExtension>
            <ns3:hr>139</ns3:hr>
            <ns3:cad>0</ns3:cad>
          </ns3:TrackPointExtension>
        </extensions>
      </trkpt>
      <trkpt lat="45.3204497136175632476806640625" lon="-71.00900505669414997100830078125">
        <ele>722.20001220703125</ele>
        <time>2026-08-21T20:57:03.000Z</time>
        <extensions>
          <ns3:TrackPointExtension>
            <ns3:hr>138</ns3:hr>
            <ns3:cad>0</ns3:cad>
          </ns3:TrackPointExtension>
        </extensions>
      </trkpt>
      <trkpt lat="45.3204420022666454315185546875" lon="-71.00901067256927490234375">
        <ele>722.20001220703125</ele>
        <time>2026-08-21T20:57:04.000Z</time>
        <extensions>
          <ns3:TrackPointExtension>
            <ns3:hr>138</ns3:hr>
            <ns3:cad>0</ns3:cad>
          </ns3:TrackPointExtension>
        </extensions>
      </trkpt>
      <trkpt lat="45.320436470210552215576171875" lon="-71.0090200603008270263671875">
        <ele>722.4000244140625</ele>
        <time>2026-08-21T20:57:05.000Z</time>
        <extensions>
          <ns3:TrackPointExtension>
            <ns3:hr>138</ns3:hr>
            <ns3:cad>0</ns3:cad>
          </ns3:TrackPointExtension>
        </extensions>
      </trkpt>
      <trkpt lat="45.320424735546112060546875" lon="-71.0090326331555843353271484375">
        <ele>722.5999755859375</ele>
        <time>2026-08-21T20:57:06.000Z</time>
        <extensions>
          <ns3:TrackPointExtension>
            <ns3:hr>138</ns3:hr>
            <ns3:cad>50</ns3:cad>
          </ns3:TrackPointExtension>
        </extensions>
      </trkpt>
      <trkpt lat="45.32042138278484344482421875" lon="-71.0090423561632633209228515625">
        <ele>723</ele>
        <time>2026-08-21T20:57:07.000Z</time>
        <extensions>
          <ns3:TrackPointExtension>
            <ns3:hr>138</ns3:hr>
            <ns3:cad>50</ns3:cad>
          </ns3:TrackPointExtension>
        </extensions>
      </trkpt>
      <trkpt lat="45.320414006710052490234375" lon="-71.00905031897127628326416015625">
        <ele>723.20001220703125</ele>
        <time>2026-08-21T20:57:08.000Z</time>
        <extensions>
          <ns3:TrackPointExtension>
            <ns3:hr>137</ns3:hr>
            <ns3:cad>50</ns3:cad>
          </ns3:TrackPointExtension>
        </extensions>
      </trkpt>
      <trkpt lat="45.32040654681622982025146484375" lon="-71.009051911532878875732421875">
        <ele>723.4000244140625</ele>
        <time>2026-08-21T20:57:09.000Z</time>
        <extensions>
          <ns3:TrackPointExtension>
            <ns3:hr>138</ns3:hr>
            <ns3:cad>50</ns3:cad>
          </ns3:TrackPointExtension>
        </extensions>
      </trkpt>
      <trkpt lat="45.3204010985791683197021484375" lon="-71.00905467756092548370361328125">
        <ele>723.5999755859375</ele>
        <time>2026-08-21T20:57:10.000Z</time>
        <extensions>
          <ns3:TrackPointExtension>
            <ns3:hr>137</ns3:hr>
            <ns3:cad>50</ns3:cad>
          </ns3:TrackPointExtension>
        </extensions>
      </trkpt>
      <trkpt lat="45.3203977458178997039794921875" lon="-71.0090514086186885833740234375">
        <ele>723.5999755859375</ele>
        <time>2026-08-21T20:57:11.000Z</time>
        <extensions>
          <ns3:TrackPointExtension>
            <ns3:hr>137</ns3:hr>
            <ns3:cad>50</ns3:cad>
          </ns3:TrackPointExtension>
        </extensions>
      </trkpt>
      <trkpt lat="45.32039179466664791107177734375" lon="-71.0090493969619274139404296875">
        <ele>723.79998779296875</ele>
        <time>2026-08-21T20:57:12.000Z</time>
        <extensions>
          <ns3:TrackPointExtension>
            <ns3:hr>137</ns3:hr>
            <ns3:cad>47</ns3:cad>
          </ns3:TrackPointExtension>
        </extensions>
      </trkpt>
      <trkpt lat="45.320381484925746917724609375" lon="-71.00904663093388080596923828125">
        <ele>723.79998779296875</ele>
        <time>2026-08-21T20:57:13.000Z</time>
        <extensions>
          <ns3:TrackPointExtension>
            <ns3:hr>138</ns3:hr>
            <ns3:cad>47</ns3:cad>
          </ns3:TrackPointExtension>
        </extensions>
      </trkpt>
      <trkpt lat="45.32037519849836826324462890625" lon="-71.00903774611651897430419921875">
        <ele>724</ele>
        <time>2026-08-21T20:57:14.000Z</time>
        <extensions>
          <ns3:TrackPointExtension>
            <ns3:hr>138</ns3:hr>
            <ns3:cad>47</ns3:cad>
          </ns3:TrackPointExtension>
        </extensions>
      </trkpt>
      <trkpt lat="45.32037486322224140167236328125" lon="-71.0090281069278717041015625">
        <ele>724</ele>
        <time>2026-08-21T20:57:15.000Z</time>
        <extensions>
          <ns3:TrackPointExtension>
            <ns3:hr>138</ns3:hr>
            <ns3:cad>47</ns3:cad>
          </ns3:TrackPointExtension>
        </extensions>
      </trkpt>
      <trkpt lat="45.32037218101322650909423828125" lon="-71.00901913829147815704345703125">
        <ele>724.20001220703125</ele>
        <time>2026-08-21T20:57:16.000Z</time>
        <extensions>
          <ns3:TrackPointExtension>
            <ns3:hr>138</ns3:hr>
            <ns3:cad>47</ns3:cad>
          </ns3:TrackPointExtension>
        </extensions>
      </trkpt>
      <trkpt lat="45.320368073880672454833984375" lon="-71.00901159457862377166748046875">
        <ele>724.4000244140625</ele>
        <time>2026-08-21T20:57:17.000Z</time>
        <extensions>
          <ns3:TrackPointExtension>
            <ns3:hr>138</ns3:hr>
            <ns3:cad>47</ns3:cad>
          </ns3:TrackPointExtension>
        </extensions>
      </trkpt>
      <trkpt lat="45.3203672356903553009033203125" lon="-71.00900824181735515594482421875">
        <ele>724.5999755859375</ele>
        <time>2026-08-21T20:57:18.000Z</time>
        <extensions>
          <ns3:TrackPointExtension>
            <ns3:hr>138</ns3:hr>
            <ns3:cad>47</ns3:cad>
          </ns3:TrackPointExtension>
        </extensions>
      </trkpt>
      <trkpt lat="45.32036237418651580810546875" lon="-71.00899969227612018585205078125">
        <ele>724.79998779296875</ele>
        <time>2026-08-21T20:57:19.000Z</time>
        <extensions>
          <ns3:TrackPointExtension>
            <ns3:hr>139</ns3:hr>
            <ns3:cad>47</ns3:cad>
          </ns3:TrackPointExtension>
        </extensions>
      </trkpt>
      <trkpt lat="45.32036262564361095428466796875" lon="-71.0089903883635997772216796875">
        <ele>725</ele>
        <time>2026-08-21T20:57:20.000Z</time>
        <extensions>
          <ns3:TrackPointExtension>
            <ns3:hr>139</ns3:hr>
            <ns3:cad>47</ns3:cad>
          </ns3:TrackPointExtension>
        </extensions>
      </trkpt>
      <trkpt lat="45.32036463730037212371826171875" lon="-71.00897848606109619140625">
        <ele>725.20001220703125</ele>
        <time>2026-08-21T20:57:21.000Z</time>
        <extensions>
          <ns3:TrackPointExtension>
            <ns3:hr>139</ns3:hr>
            <ns3:cad>47</ns3:cad>
          </ns3:TrackPointExtension>
        </extensions>
      </trkpt>
      <trkpt lat="45.32036514021456241607666015625" lon="-71.0089783184230327606201171875">
        <ele>725.4000244140625</ele>
        <time>2026-08-21T20:57:22.000Z</time>
        <extensions>
          <ns3:TrackPointExtension>
            <ns3:hr>140</ns3:hr>
            <ns3:cad>0</ns3:cad>
          </ns3:TrackPointExtension>
        </extensions>
      </trkpt>
      <trkpt lat="45.32036296091973781585693359375" lon="-71.00896834395825862884521484375">
        <ele>725.5999755859375</ele>
        <time>2026-08-21T20:57:23.000Z</time>
        <extensions>
          <ns3:TrackPointExtension>
            <ns3:hr>140</ns3:hr>
            <ns3:cad>0</ns3:cad>
          </ns3:TrackPointExtension>
        </extensions>
      </trkpt>
      <trkpt lat="45.32036245800554752349853515625" lon="-71.00895426236093044281005859375">
        <ele>725.5999755859375</ele>
        <time>2026-08-21T20:57:24.000Z</time>
        <extensions>
          <ns3:TrackPointExtension>
            <ns3:hr>140</ns3:hr>
            <ns3:cad>0</ns3:cad>
          </ns3:TrackPointExtension>
        </extensions>
      </trkpt>
      <trkpt lat="45.3203617036342620849609375" lon="-71.0089471377432346343994140625">
        <ele>725.79998779296875</ele>
        <time>2026-08-21T20:57:25.000Z</time>
        <extensions>
          <ns3:TrackPointExtension>
            <ns3:hr>140</ns3:hr>
            <ns3:cad>0</ns3:cad>
          </ns3:TrackPointExtension>
        </extensions>
      </trkpt>
      <trkpt lat="45.3203575126826763153076171875" lon="-71.00893758237361907958984375">
        <ele>726</ele>
        <time>2026-08-21T20:57:26.000Z</time>
        <extensions>
          <ns3:TrackPointExtension>
            <ns3:hr>140</ns3:hr>
            <ns3:cad>0</ns3:cad>
          </ns3:TrackPointExtension>
        </extensions>
      </trkpt>
      <trkpt lat="45.32035357318818569183349609375" lon="-71.00893230177462100982666015625">
        <ele>726.20001220703125</ele>
        <time>2026-08-21T20:57:27.000Z</time>
        <extensions>
          <ns3:TrackPointExtension>
            <ns3:hr>141</ns3:hr>
            <ns3:cad>0</ns3:cad>
          </ns3:TrackPointExtension>
        </extensions>
      </trkpt>
      <trkpt lat="45.320351980626583099365234375" lon="-71.00892844609916210174560546875">
        <ele>726.4000244140625</ele>
        <time>2026-08-21T20:57:28.000Z</time>
        <extensions>
          <ns3:TrackPointExtension>
            <ns3:hr>141</ns3:hr>
            <ns3:cad>0</ns3:cad>
          </ns3:TrackPointExtension>
        </extensions>
      </trkpt>
      <trkpt lat="45.3203454427421092987060546875" lon="-71.00892324931919574737548828125">
        <ele>726.5999755859375</ele>
        <time>2026-08-21T20:57:29.000Z</time>
        <extensions>
          <ns3:TrackPointExtension>
            <ns3:hr>142</ns3:hr>
            <ns3:cad>0</ns3:cad>
          </ns3:TrackPointExtension>
        </extensions>
      </trkpt>
      <trkpt lat="45.320339240133762359619140625" lon="-71.0089122690260410308837890625">
        <ele>726.79998779296875</ele>
        <time>2026-08-21T20:57:30.000Z</time>
        <extensions>
          <ns3:TrackPointExtension>
            <ns3:hr>142</ns3:hr>
            <ns3:cad>0</ns3:cad>
          </ns3:TrackPointExtension>
        </extensions>
      </trkpt>
      <trkpt lat="45.32033680938184261322021484375" lon="-71.00890397094190120697021484375">
        <ele>727.20001220703125</ele>
        <time>2026-08-21T20:57:31.000Z</time>
        <extensions>
          <ns3:TrackPointExtension>
            <ns3:hr>142</ns3:hr>
            <ns3:cad>0</ns3:cad>
          </ns3:TrackPointExtension>
        </extensions>
      </trkpt>
      <trkpt lat="45.3203348815441131591796875" lon="-71.00889734923839569091796875">
        <ele>727.20001220703125</ele>
        <time>2026-08-21T20:57:32.000Z</time>
        <extensions>
          <ns3:TrackPointExtension>
            <ns3:hr>141</ns3:hr>
            <ns3:cad>0</ns3:cad>
          </ns3:TrackPointExtension>
        </extensions>
      </trkpt>
      <trkpt lat="45.32033697701990604400634765625" lon="-71.0088988579809665679931640625">
        <ele>727.4000244140625</ele>
        <time>2026-08-21T20:57:33.000Z</time>
        <extensions>
          <ns3:TrackPointExtension>
            <ns3:hr>141</ns3:hr>
            <ns3:cad>0</ns3:cad>
          </ns3:TrackPointExtension>
        </extensions>
      </trkpt>
      <trkpt lat="45.3203327022492885589599609375" lon="-71.00888469256460666656494140625">
        <ele>727.5999755859375</ele>
        <time>2026-08-21T20:57:34.000Z</time>
        <extensions>
          <ns3:TrackPointExtension>
            <ns3:hr>141</ns3:hr>
            <ns3:cad>0</ns3:cad>
          </ns3:TrackPointExtension>
        </extensions>
      </trkpt>
      <trkpt lat="45.32033110968768596649169921875" lon="-71.00887480191886425018310546875">
        <ele>727.79998779296875</ele>
        <time>2026-08-21T20:57:35.000Z</time>
        <extensions>
          <ns3:TrackPointExtension>
            <ns3:hr>141</ns3:hr>
            <ns3:cad>0</ns3:cad>
          </ns3:TrackPointExtension>
        </extensions>
      </trkpt>
      <trkpt lat="45.32032893039286136627197265625" lon="-71.00886784493923187255859375">
        <ele>728</ele>
        <time>2026-08-21T20:57:36.000Z</time>
        <extensions>
          <ns3:TrackPointExtension>
            <ns3:hr>141</ns3:hr>
            <ns3:cad>0</ns3:cad>
          </ns3:TrackPointExtension>
        </extensions>
      </trkpt>
      <trkpt lat="45.320327840745449066162109375" lon="-71.00885971449315547943115234375">
        <ele>728.20001220703125</ele>
        <time>2026-08-21T20:57:37.000Z</time>
        <extensions>
          <ns3:TrackPointExtension>
            <ns3:hr>140</ns3:hr>
            <ns3:cad>0</ns3:cad>
          </ns3:TrackPointExtension>
        </extensions>
      </trkpt>
      <trkpt lat="45.3203246556222438812255859375" lon="-71.00885535590350627899169921875">
        <ele>728.4000244140625</ele>
        <time>2026-08-21T20:57:38.000Z</time>
        <extensions>
          <ns3:TrackPointExtension>
            <ns3:hr>141</ns3:hr>
            <ns3:cad>0</ns3:cad>
          </ns3:TrackPointExtension>
        </extensions>
      </trkpt>
      <trkpt lat="45.32032373361289501190185546875" lon="-71.00885041058063507080078125">
        <ele>728.79998779296875</ele>
        <time>2026-08-21T20:57:39.000Z</time>
        <extensions>
          <ns3:TrackPointExtension>
            <ns3:hr>141</ns3:hr>
            <ns3:cad>0</ns3:cad>
          </ns3:TrackPointExtension>
        </extensions>
      </trkpt>
      <trkpt lat="45.320325829088687896728515625" lon="-71.00883825682103633880615234375">
        <ele>729</ele>
        <time>2026-08-21T20:57:40.000Z</time>
        <extensions>
          <ns3:TrackPointExtension>
            <ns3:hr>140</ns3:hr>
            <ns3:cad>0</ns3:cad>
          </ns3:TrackPointExtension>
        </extensions>
      </trkpt>
      <trkpt lat="45.32032356597483158111572265625" lon="-71.00882132537662982940673828125">
        <ele>729</ele>
        <time>2026-08-21T20:57:41.000Z</time>
        <extensions>
          <ns3:TrackPointExtension>
            <ns3:hr>140</ns3:hr>
            <ns3:cad>0</ns3:cad>
          </ns3:TrackPointExtension>
        </extensions>
      </trkpt>
      <trkpt lat="45.32032549381256103515625" lon="-71.008815877139568328857421875">
        <ele>729.20001220703125</ele>
        <time>2026-08-21T20:57:42.000Z</time>
        <extensions>
          <ns3:TrackPointExtension>
            <ns3:hr>140</ns3:hr>
            <ns3:cad>0</ns3:cad>
          </ns3:TrackPointExtension>
        </extensions>
      </trkpt>
      <trkpt lat="45.32032725401222705841064453125" lon="-71.008803136646747589111328125">
        <ele>729.20001220703125</ele>
        <time>2026-08-21T20:57:43.000Z</time>
        <extensions>
          <ns3:TrackPointExtension>
            <ns3:hr>140</ns3:hr>
            <ns3:cad>0</ns3:cad>
          </ns3:TrackPointExtension>
        </extensions>
      </trkpt>
      <trkpt lat="45.320327840745449066162109375" lon="-71.0087989456951618194580078125">
        <ele>729.4000244140625</ele>
        <time>2026-08-21T20:57:44.000Z</time>
        <extensions>
          <ns3:TrackPointExtension>
            <ns3:hr>140</ns3:hr>
            <ns3:cad>0</ns3:cad>
          </ns3:TrackPointExtension>
        </extensions>
      </trkpt>
      <trkpt lat="45.320329852402210235595703125" lon="-71.0087905637919902801513671875">
        <ele>729.5999755859375</ele>
        <time>2026-08-21T20:57:45.000Z</time>
        <extensions>
          <ns3:TrackPointExtension>
            <ns3:hr>140</ns3:hr>
            <ns3:cad>0</ns3:cad>
          </ns3:TrackPointExtension>
        </extensions>
      </trkpt>
      <trkpt lat="45.3203327022492885589599609375" lon="-71.00877438671886920928955078125">
        <ele>729.5999755859375</ele>
        <time>2026-08-21T20:57:46.000Z</time>
        <extensions>
          <ns3:TrackPointExtension>
            <ns3:hr>140</ns3:hr>
            <ns3:cad>47</ns3:cad>
          </ns3:TrackPointExtension>
        </extensions>
      </trkpt>
      <trkpt lat="45.32033764757215976715087890625" lon="-71.0087545216083526611328125">
        <ele>729.79998779296875</ele>
        <time>2026-08-21T20:57:47.000Z</time>
        <extensions>
          <ns3:TrackPointExtension>
            <ns3:hr>140</ns3:hr>
            <ns3:cad>47</ns3:cad>
          </ns3:TrackPointExtension>
        </extensions>
      </trkpt>
      <trkpt lat="45.32033982686698436737060546875" lon="-71.00874312222003936767578125">
        <ele>729.79998779296875</ele>
        <time>2026-08-21T20:57:48.000Z</time>
        <extensions>
          <ns3:TrackPointExtension>
            <ns3:hr>140</ns3:hr>
            <ns3:cad>47</ns3:cad>
          </ns3:TrackPointExtension>
        </extensions>
      </trkpt>
      <trkpt lat="45.32034200616180896759033203125" lon="-71.0087305493652820587158203125">
        <ele>729.79998779296875</ele>
        <time>2026-08-21T20:57:49.000Z</time>
        <extensions>
          <ns3:TrackPointExtension>
            <ns3:hr>140</ns3:hr>
            <ns3:cad>47</ns3:cad>
          </ns3:TrackPointExtension>
        </extensions>
      </trkpt>
      <trkpt lat="45.32033823430538177490234375" lon="-71.00872107781469821929931640625">
        <ele>729.79998779296875</ele>
        <time>2026-08-21T20:57:50.000Z</time>
        <extensions>
          <ns3:TrackPointExtension>
            <ns3:hr>140</ns3:hr>
            <ns3:cad>47</ns3:cad>
          </ns3:TrackPointExtension>
        </extensions>
      </trkpt>
      <trkpt lat="45.32033747993409633636474609375" lon="-71.008714623749256134033203125">
        <ele>730</ele>
        <time>2026-08-21T20:57:51.000Z</time>
        <extensions>
          <ns3:TrackPointExtension>
            <ns3:hr>140</ns3:hr>
            <ns3:cad>0</ns3:cad>
          </ns3:TrackPointExtension>
        </extensions>
      </trkpt>
      <trkpt lat="45.32033463008701801300048828125" lon="-71.00870825350284576416015625">
        <ele>730.20001220703125</ele>
        <time>2026-08-21T20:57:52.000Z</time>
        <extensions>
          <ns3:TrackPointExtension>
            <ns3:hr>141</ns3:hr>
            <ns3:cad>0</ns3:cad>
          </ns3:TrackPointExtension>
        </extensions>
      </trkpt>
      <trkpt lat="45.32033421099185943603515625" lon="-71.00869978778064250946044921875">
        <ele>730.4000244140625</ele>
        <time>2026-08-21T20:57:53.000Z</time>
        <extensions>
          <ns3:TrackPointExtension>
            <ns3:hr>140</ns3:hr>
            <ns3:cad>0</ns3:cad>
          </ns3:TrackPointExtension>
        </extensions>
      </trkpt>
      <trkpt lat="45.3203320316970348358154296875" lon="-71.0086846165359020233154296875">
        <ele>730.5999755859375</ele>
        <time>2026-08-21T20:57:54.000Z</time>
        <extensions>
          <ns3:TrackPointExtension>
            <ns3:hr>140</ns3:hr>
            <ns3:cad>0</ns3:cad>
          </ns3:TrackPointExtension>
        </extensions>
      </trkpt>
      <trkpt lat="45.32032859511673450469970703125" lon="-71.00867606699466705322265625">
        <ele>731</ele>
        <time>2026-08-21T20:57:55.000Z</time>
        <extensions>
          <ns3:TrackPointExtension>
            <ns3:hr>140</ns3:hr>
            <ns3:cad>0</ns3:cad>
          </ns3:TrackPointExtension>
        </extensions>
      </trkpt>
      <trkpt lat="45.320325829088687896728515625" lon="-71.00866676308214664459228515625">
        <ele>731.20001220703125</ele>
        <time>2026-08-21T20:57:56.000Z</time>
        <extensions>
          <ns3:TrackPointExtension>
            <ns3:hr>140</ns3:hr>
            <ns3:cad>0</ns3:cad>
          </ns3:TrackPointExtension>
        </extensions>
      </trkpt>
      <trkpt lat="45.3203219734132289886474609375" lon="-71.00866240449249744415283203125">
        <ele>731.4000244140625</ele>
        <time>2026-08-21T20:57:57.000Z</time>
        <extensions>
          <ns3:TrackPointExtension>
            <ns3:hr>140</ns3:hr>
            <ns3:cad>0</ns3:cad>
          </ns3:TrackPointExtension>
        </extensions>
      </trkpt>
      <trkpt lat="45.320317782461643218994140625" lon="-71.00865863263607025146484375">
        <ele>731.5999755859375</ele>
        <time>2026-08-21T20:57:58.000Z</time>
        <extensions>
          <ns3:TrackPointExtension>
            <ns3:hr>140</ns3:hr>
            <ns3:cad>0</ns3:cad>
          </ns3:TrackPointExtension>
        </extensions>
      </trkpt>
      <trkpt lat="45.3203166089951992034912109375" lon="-71.00865486077964305877685546875">
        <ele>731.5999755859375</ele>
        <time>2026-08-21T20:57:59.000Z</time>
        <extensions>
          <ns3:TrackPointExtension>
            <ns3:hr>140</ns3:hr>
            <ns3:cad>0</ns3:cad>
          </ns3:TrackPointExtension>
        </extensions>
      </trkpt>
      <trkpt lat="45.320313759148120880126953125" lon="-71.00865670479834079742431640625">
        <ele>731.79998779296875</ele>
        <time>2026-08-21T20:58:00.000Z</time>
        <extensions>
          <ns3:TrackPointExtension>
            <ns3:hr>139</ns3:hr>
            <ns3:cad>0</ns3:cad>
          </ns3:TrackPointExtension>
        </extensions>
      </trkpt>
      <trkpt lat="45.3203099034726619720458984375" lon="-71.00864983163774013519287109375">
        <ele>732</ele>
        <time>2026-08-21T20:58:01.000Z</time>
        <extensions>
          <ns3:TrackPointExtension>
            <ns3:hr>139</ns3:hr>
            <ns3:cad>0</ns3:cad>
          </ns3:TrackPointExtension>
        </extensions>
      </trkpt>
      <trkpt lat="45.32030780799686908721923828125" lon="-71.00864480249583721160888671875">
        <ele>732.20001220703125</ele>
        <time>2026-08-21T20:58:02.000Z</time>
        <extensions>
          <ns3:TrackPointExtension>
            <ns3:hr>139</ns3:hr>
            <ns3:cad>0</ns3:cad>
          </ns3:TrackPointExtension>
        </extensions>
      </trkpt>
      <trkpt lat="45.32030948437750339508056640625" lon="-71.00864647887647151947021484375">
        <ele>732.20001220703125</ele>
        <time>2026-08-21T20:58:03.000Z</time>
        <extensions>
          <ns3:TrackPointExtension>
            <ns3:hr>140</ns3:hr>
            <ns3:cad>0</ns3:cad>
          </ns3:TrackPointExtension>
        </extensions>
      </trkpt>
      <trkpt lat="45.32030613161623477935791015625" lon="-71.00864396430552005767822265625">
        <ele>732.5999755859375</ele>
        <time>2026-08-21T20:58:04.000Z</time>
        <extensions>
          <ns3:TrackPointExtension>
            <ns3:hr>140</ns3:hr>
            <ns3:cad>0</ns3:cad>
          </ns3:TrackPointExtension>
        </extensions>
      </trkpt>
      <trkpt lat="45.3203008510172367095947265625" lon="-71.00863725878298282623291015625">
        <ele>732.79998779296875</ele>
        <time>2026-08-21T20:58:05.000Z</time>
        <extensions>
          <ns3:TrackPointExtension>
            <ns3:hr>140</ns3:hr>
            <ns3:cad>0</ns3:cad>
          </ns3:TrackPointExtension>
        </extensions>
      </trkpt>
      <trkpt lat="45.32029842026531696319580078125" lon="-71.00863575004041194915771484375">
        <ele>733</ele>
        <time>2026-08-21T20:58:06.000Z</time>
        <extensions>
          <ns3:TrackPointExtension>
            <ns3:hr>140</ns3:hr>
            <ns3:cad>0</ns3:cad>
          </ns3:TrackPointExtension>
        </extensions>
      </trkpt>
      <trkpt lat="45.32029330730438232421875" lon="-71.00863725878298282623291015625">
        <ele>733.20001220703125</ele>
        <time>2026-08-21T20:58:07.000Z</time>
        <extensions>
          <ns3:TrackPointExtension>
            <ns3:hr>140</ns3:hr>
            <ns3:cad>0</ns3:cad>
          </ns3:TrackPointExtension>
        </extensions>
      </trkpt>
      <trkpt lat="45.320285595953464508056640625" lon="-71.0086373426020145416259765625">
        <ele>733.4000244140625</ele>
        <time>2026-08-21T20:58:08.000Z</time>
        <extensions>
          <ns3:TrackPointExtension>
            <ns3:hr>140</ns3:hr>
            <ns3:cad>0</ns3:cad>
          </ns3:TrackPointExtension>
        </extensions>
      </trkpt>
      <trkpt lat="45.32028417102992534637451171875" lon="-71.00863725878298282623291015625">
        <ele>733.5999755859375</ele>
        <time>2026-08-21T20:58:09.000Z</time>
        <extensions>
          <ns3:TrackPointExtension>
            <ns3:hr>139</ns3:hr>
            <ns3:cad>0</ns3:cad>
          </ns3:TrackPointExtension>
        </extensions>
      </trkpt>
      <trkpt lat="45.3202783875167369842529296875" lon="-71.0086373426020145416259765625">
        <ele>733.79998779296875</ele>
        <time>2026-08-21T20:58:10.000Z</time>
        <extensions>
          <ns3:TrackPointExtension>
            <ns3:hr>138</ns3:hr>
            <ns3:cad>0</ns3:cad>
          </ns3:TrackPointExtension>
        </extensions>
      </trkpt>
      <trkpt lat="45.3202716819941997528076171875" lon="-71.00863927043974399566650390625">
        <ele>734</ele>
        <time>2026-08-21T20:58:11.000Z</time>
        <extensions>
          <ns3:TrackPointExtension>
            <ns3:hr>138</ns3:hr>
            <ns3:cad>0</ns3:cad>
          </ns3:TrackPointExtension>
        </extensions>
      </trkpt>
      <trkpt lat="45.3202693350613117218017578125" lon="-71.00863851606845855712890625">
        <ele>734.20001220703125</ele>
        <time>2026-08-21T20:58:12.000Z</time>
        <extensions>
          <ns3:TrackPointExtension>
            <ns3:hr>138</ns3:hr>
            <ns3:cad>0</ns3:cad>
          </ns3:TrackPointExtension>
        </extensions>
      </trkpt>
      <trkpt lat="45.32026489265263080596923828125" lon="-71.00863625295460224151611328125">
        <ele>734.4000244140625</ele>
        <time>2026-08-21T20:58:13.000Z</time>
        <extensions>
          <ns3:TrackPointExtension>
            <ns3:hr>138</ns3:hr>
            <ns3:cad>0</ns3:cad>
          </ns3:TrackPointExtension>
        </extensions>
      </trkpt>
      <trkpt lat="45.32026003114879131317138671875" lon="-71.00864279083907604217529296875">
        <ele>734.5999755859375</ele>
        <time>2026-08-21T20:58:14.000Z</time>
        <extensions>
          <ns3:TrackPointExtension>
            <ns3:hr>138</ns3:hr>
            <ns3:cad>0</ns3:cad>
          </ns3:TrackPointExtension>
        </extensions>
      </trkpt>
      <trkpt lat="45.32026045024394989013671875" lon="-71.008643545210361480712890625">
        <ele>734.79998779296875</ele>
        <time>2026-08-21T20:58:15.000Z</time>
        <extensions>
          <ns3:TrackPointExtension>
            <ns3:hr>138</ns3:hr>
            <ns3:cad>0</ns3:cad>
          </ns3:TrackPointExtension>
        </extensions>
      </trkpt>
      <trkpt lat="45.3202599473297595977783203125" lon="-71.00864656269550323486328125">
        <ele>735</ele>
        <time>2026-08-21T20:58:16.000Z</time>
        <extensions>
          <ns3:TrackPointExtension>
            <ns3:hr>138</ns3:hr>
            <ns3:cad>0</ns3:cad>
          </ns3:TrackPointExtension>
        </extensions>
      </trkpt>
      <trkpt lat="45.3202552534639835357666015625" lon="-71.00865251384675502777099609375">
        <ele>735.20001220703125</ele>
        <time>2026-08-21T20:58:17.000Z</time>
        <extensions>
          <ns3:TrackPointExtension>
            <ns3:hr>138</ns3:hr>
            <ns3:cad>0</ns3:cad>
          </ns3:TrackPointExtension>
        </extensions>
      </trkpt>
      <trkpt lat="45.32025039196014404296875" lon="-71.0086557827889919281005859375">
        <ele>735.4000244140625</ele>
        <time>2026-08-21T20:58:18.000Z</time>
        <extensions>
          <ns3:TrackPointExtension>
            <ns3:hr>138</ns3:hr>
            <ns3:cad>0</ns3:cad>
          </ns3:TrackPointExtension>
        </extensions>
      </trkpt>
      <trkpt lat="45.320249386131763458251953125" lon="-71.00865620188415050506591796875">
        <ele>735.4000244140625</ele>
        <time>2026-08-21T20:58:19.000Z</time>
        <extensions>
          <ns3:TrackPointExtension>
            <ns3:hr>138</ns3:hr>
            <ns3:cad>0</ns3:cad>
          </ns3:TrackPointExtension>
        </extensions>
      </trkpt>
      <trkpt lat="45.32024142332375049591064453125" lon="-71.00866072811186313629150390625">
        <ele>735.5999755859375</ele>
        <time>2026-08-21T20:58:20.000Z</time>
        <extensions>
          <ns3:TrackPointExtension>
            <ns3:hr>138</ns3:hr>
            <ns3:cad>0</ns3:cad>
          </ns3:TrackPointExtension>
        </extensions>
      </trkpt>
      <trkpt lat="45.3202410042285919189453125" lon="-71.00866408087313175201416015625">
        <ele>735.79998779296875</ele>
        <time>2026-08-21T20:58:21.000Z</time>
        <extensions>
          <ns3:TrackPointExtension>
            <ns3:hr>138</ns3:hr>
            <ns3:cad>0</ns3:cad>
          </ns3:TrackPointExtension>
        </extensions>
      </trkpt>
      <trkpt lat="45.32024242915213108062744140625" lon="-71.0086638294160366058349609375">
        <ele>735.79998779296875</ele>
        <time>2026-08-21T20:58:22.000Z</time>
        <extensions>
          <ns3:TrackPointExtension>
            <ns3:hr>138</ns3:hr>
            <ns3:cad>0</ns3:cad>
          </ns3:TrackPointExtension>
        </extensions>
      </trkpt>
      <trkpt lat="45.32024435698986053466796875" lon="-71.0086651705205440521240234375">
        <ele>736</ele>
        <time>2026-08-21T20:58:23.000Z</time>
        <extensions>
          <ns3:TrackPointExtension>
            <ns3:hr>138</ns3:hr>
            <ns3:cad>0</ns3:cad>
          </ns3:TrackPointExtension>
        </extensions>
      </trkpt>
      <trkpt lat="45.32023790292441844940185546875" lon="-71.00867145694792270660400390625">
        <ele>736.20001220703125</ele>
        <time>2026-08-21T20:58:24.000Z</time>
        <extensions>
          <ns3:TrackPointExtension>
            <ns3:hr>138</ns3:hr>
            <ns3:cad>0</ns3:cad>
          </ns3:TrackPointExtension>
        </extensions>
      </trkpt>
      <trkpt lat="45.3202358074486255645751953125" lon="-71.00867413915693759918212890625">
        <ele>736.4000244140625</ele>
        <time>2026-08-21T20:58:25.000Z</time>
        <extensions>
          <ns3:TrackPointExtension>
            <ns3:hr>138</ns3:hr>
            <ns3:cad>0</ns3:cad>
          </ns3:TrackPointExtension>
        </extensions>
      </trkpt>
      <trkpt lat="45.3202354721724987030029296875" lon="-71.00866978056728839874267578125">
        <ele>736.5999755859375</ele>
        <time>2026-08-21T20:58:26.000Z</time>
        <extensions>
          <ns3:TrackPointExtension>
            <ns3:hr>139</ns3:hr>
            <ns3:cad>0</ns3:cad>
          </ns3:TrackPointExtension>
        </extensions>
      </trkpt>
      <trkpt lat="45.3202348016202449798583984375" lon="-71.0086686909198760986328125">
        <ele>736.5999755859375</ele>
        <time>2026-08-21T20:58:27.000Z</time>
        <extensions>
          <ns3:TrackPointExtension>
            <ns3:hr>138</ns3:hr>
            <ns3:cad>0</ns3:cad>
          </ns3:TrackPointExtension>
        </extensions>
      </trkpt>
      <trkpt lat="45.320235304534435272216796875" lon="-71.00866927765309810638427734375">
        <ele>736.79998779296875</ele>
        <time>2026-08-21T20:58:28.000Z</time>
        <extensions>
          <ns3:TrackPointExtension>
            <ns3:hr>138</ns3:hr>
            <ns3:cad>0</ns3:cad>
          </ns3:TrackPointExtension>
        </extensions>
      </trkpt>
      <trkpt lat="45.3202311135828495025634765625" lon="-71.00866558961570262908935546875">
        <ele>737</ele>
        <time>2026-08-21T20:58:29.000Z</time>
        <extensions>
          <ns3:TrackPointExtension>
            <ns3:hr>138</ns3:hr>
            <ns3:cad>0</ns3:cad>
          </ns3:TrackPointExtension>
        </extensions>
      </trkpt>
      <trkpt lat="45.32023538835346698760986328125" lon="-71.00866894237697124481201171875">
        <ele>737.20001220703125</ele>
        <time>2026-08-21T20:58:30.000Z</time>
        <extensions>
          <ns3:TrackPointExtension>
            <ns3:hr>139</ns3:hr>
            <ns3:cad>0</ns3:cad>
          </ns3:TrackPointExtension>
        </extensions>
      </trkpt>
      <trkpt lat="45.32023496925830841064453125" lon="-71.0086561180651187896728515625">
        <ele>737.4000244140625</ele>
        <time>2026-08-21T20:58:31.000Z</time>
        <extensions>
          <ns3:TrackPointExtension>
            <ns3:hr>138</ns3:hr>
            <ns3:cad>0</ns3:cad>
          </ns3:TrackPointExtension>
        </extensions>
      </trkpt>
      <trkpt lat="45.3202324546873569488525390625" lon="-71.00865335203707218170166015625">
        <ele>737.4000244140625</ele>
        <time>2026-08-21T20:58:32.000Z</time>
        <extensions>
          <ns3:TrackPointExtension>
            <ns3:hr>138</ns3:hr>
            <ns3:cad>0</ns3:cad>
          </ns3:TrackPointExtension>
        </extensions>
      </trkpt>
      <trkpt lat="45.32023119740188121795654296875" lon="-71.00865460932254791259765625">
        <ele>737.5999755859375</ele>
        <time>2026-08-21T20:58:33.000Z</time>
        <extensions>
          <ns3:TrackPointExtension>
            <ns3:hr>138</ns3:hr>
            <ns3:cad>0</ns3:cad>
          </ns3:TrackPointExtension>
        </extensions>
      </trkpt>
      <trkpt lat="45.3202317841351032257080078125" lon="-71.00864924490451812744140625">
        <ele>737.79998779296875</ele>
        <time>2026-08-21T20:58:34.000Z</time>
        <extensions>
          <ns3:TrackPointExtension>
            <ns3:hr>138</ns3:hr>
            <ns3:cad>0</ns3:cad>
          </ns3:TrackPointExtension>
        </extensions>
      </trkpt>
      <trkpt lat="45.32023228704929351806640625" lon="-71.00864144973456859588623046875">
        <ele>737.79998779296875</ele>
        <time>2026-08-21T20:58:35.000Z</time>
        <extensions>
          <ns3:TrackPointExtension>
            <ns3:hr>138</ns3:hr>
            <ns3:cad>0</ns3:cad>
          </ns3:TrackPointExtension>
        </extensions>
      </trkpt>
      <trkpt lat="45.320228599011898040771484375" lon="-71.0086282901465892791748046875">
        <ele>738</ele>
        <time>2026-08-21T20:58:36.000Z</time>
        <extensions>
          <ns3:TrackPointExtension>
            <ns3:hr>139</ns3:hr>
            <ns3:cad>0</ns3:cad>
          </ns3:TrackPointExtension>
        </extensions>
      </trkpt>
      <trkpt lat="45.32022616825997829437255859375" lon="-71.00862644612789154052734375">
        <ele>738</ele>
        <time>2026-08-21T20:58:37.000Z</time>
        <extensions>
          <ns3:TrackPointExtension>
            <ns3:hr>139</ns3:hr>
            <ns3:cad>0</ns3:cad>
          </ns3:TrackPointExtension>
        </extensions>
      </trkpt>
      <trkpt lat="45.320224575698375701904296875" lon="-71.0086269490420818328857421875">
        <ele>738</ele>
        <time>2026-08-21T20:58:38.000Z</time>
        <extensions>
          <ns3:TrackPointExtension>
            <ns3:hr>140</ns3:hr>
            <ns3:cad>0</ns3:cad>
          </ns3:TrackPointExtension>
        </extensions>
      </trkpt>
      <trkpt lat="45.320224575698375701904296875" lon="-71.00862703286111354827880859375">
        <ele>738</ele>
        <time>2026-08-21T20:58:39.000Z</time>
        <extensions>
          <ns3:TrackPointExtension>
            <ns3:hr>140</ns3:hr>
            <ns3:cad>0</ns3:cad>
          </ns3:TrackPointExtension>
        </extensions>
      </trkpt>
      <trkpt lat="45.320224575698375701904296875" lon="-71.00862703286111354827880859375">
        <ele>738</ele>
        <time>2026-08-21T20:58:40.000Z</time>
        <extensions>
          <ns3:TrackPointExtension>
            <ns3:hr>140</ns3:hr>
            <ns3:cad>0</ns3:cad>
          </ns3:TrackPointExtension>
        </extensions>
      </trkpt>
      <trkpt lat="45.320224575698375701904296875" lon="-71.00862703286111354827880859375">
        <ele>738</ele>
        <time>2026-08-21T20:58:41.000Z</time>
        <extensions>
          <ns3:TrackPointExtension>
            <ns3:hr>140</ns3:hr>
            <ns3:cad>0</ns3:cad>
          </ns3:TrackPointExtension>
        </extensions>
      </trkpt>
      <trkpt lat="45.320224575698375701904296875" lon="-71.00862703286111354827880859375">
        <ele>738</ele>
        <time>2026-08-21T20:58:42.000Z</time>
        <extensions>
          <ns3:TrackPointExtension>
            <ns3:hr>141</ns3:hr>
            <ns3:cad>0</ns3:cad>
          </ns3:TrackPointExtension>
        </extensions>
      </trkpt>
      <trkpt lat="45.32022465951740741729736328125" lon="-71.00862602703273296356201171875">
        <ele>738</ele>
        <time>2026-08-21T20:58:43.000Z</time>
        <extensions>
          <ns3:TrackPointExtension>
            <ns3:hr>141</ns3:hr>
            <ns3:cad>0</ns3:cad>
          </ns3:TrackPointExtension>
        </extensions>
      </trkpt>
      <trkpt lat="45.320224575698375701904296875" lon="-71.00862703286111354827880859375">
        <ele>738</ele>
        <time>2026-08-21T20:58:44.000Z</time>
        <extensions>
          <ns3:TrackPointExtension>
            <ns3:hr>142</ns3:hr>
            <ns3:cad>0</ns3:cad>
          </ns3:TrackPointExtension>
        </extensions>
      </trkpt>
      <trkpt lat="45.320224575698375701904296875" lon="-71.00862703286111354827880859375">
        <ele>738</ele>
        <time>2026-08-21T20:58:45.000Z</time>
        <extensions>
          <ns3:TrackPointExtension>
            <ns3:hr>142</ns3:hr>
            <ns3:cad>0</ns3:cad>
          </ns3:TrackPointExtension>
        </extensions>
      </trkpt>
      <trkpt lat="45.3202247433364391326904296875" lon="-71.0086209140717983245849609375">
        <ele>738</ele>
        <time>2026-08-21T20:58:46.000Z</time>
        <extensions>
          <ns3:TrackPointExtension>
            <ns3:hr>142</ns3:hr>
            <ns3:cad>0</ns3:cad>
          </ns3:TrackPointExtension>
        </extensions>
      </trkpt>
      <trkpt lat="45.32022281549870967864990234375" lon="-71.00861370563507080078125">
        <ele>738.20001220703125</ele>
        <time>2026-08-21T20:58:47.000Z</time>
        <extensions>
          <ns3:TrackPointExtension>
            <ns3:hr>141</ns3:hr>
            <ns3:cad>0</ns3:cad>
          </ns3:TrackPointExtension>
        </extensions>
      </trkpt>
      <trkpt lat="45.32021887600421905517578125" lon="-71.00860188715159893035888671875">
        <ele>738.4000244140625</ele>
        <time>2026-08-21T20:58:48.000Z</time>
        <extensions>
          <ns3:TrackPointExtension>
            <ns3:hr>141</ns3:hr>
            <ns3:cad>0</ns3:cad>
          </ns3:TrackPointExtension>
        </extensions>
      </trkpt>
      <trkpt lat="45.320211164653301239013671875" lon="-71.00858579389750957489013671875">
        <ele>738.5999755859375</ele>
        <time>2026-08-21T20:58:49.000Z</time>
        <extensions>
          <ns3:TrackPointExtension>
            <ns3:hr>140</ns3:hr>
            <ns3:cad>0</ns3:cad>
          </ns3:TrackPointExtension>
        </extensions>
      </trkpt>
      <trkpt lat="45.32020739279687404632568359375" lon="-71.00858478806912899017333984375">
        <ele>738.79998779296875</ele>
        <time>2026-08-21T20:58:50.000Z</time>
        <extensions>
          <ns3:TrackPointExtension>
            <ns3:hr>140</ns3:hr>
            <ns3:cad>0</ns3:cad>
          </ns3:TrackPointExtension>
        </extensions>
      </trkpt>
      <trkpt lat="45.32020068727433681488037109375" lon="-71.00857372395694255828857421875">
        <ele>739</ele>
        <time>2026-08-21T20:58:51.000Z</time>
        <extensions>
          <ns3:TrackPointExtension>
            <ns3:hr>140</ns3:hr>
            <ns3:cad>0</ns3:cad>
          </ns3:TrackPointExtension>
        </extensions>
      </trkpt>
      <trkpt lat="45.32019934616982936859130859375" lon="-71.0085689462721347808837890625">
        <ele>739.20001220703125</ele>
        <time>2026-08-21T20:58:52.000Z</time>
        <extensions>
          <ns3:TrackPointExtension>
            <ns3:hr>139</ns3:hr>
            <ns3:cad>0</ns3:cad>
          </ns3:TrackPointExtension>
        </extensions>
      </trkpt>
      <trkpt lat="45.32019699923694133758544921875" lon="-71.00856207311153411865234375">
        <ele>739.4000244140625</ele>
        <time>2026-08-21T20:58:53.000Z</time>
        <extensions>
          <ns3:TrackPointExtension>
            <ns3:hr>139</ns3:hr>
            <ns3:cad>0</ns3:cad>
          </ns3:TrackPointExtension>
        </extensions>
      </trkpt>
      <trkpt lat="45.32019632868468761444091796875" lon="-71.0085546970367431640625">
        <ele>739.5999755859375</ele>
        <time>2026-08-21T20:58:54.000Z</time>
        <extensions>
          <ns3:TrackPointExtension>
            <ns3:hr>139</ns3:hr>
            <ns3:cad>0</ns3:cad>
          </ns3:TrackPointExtension>
        </extensions>
      </trkpt>
      <trkpt lat="45.32018593512475490570068359375" lon="-71.0085337422788143157958984375">
        <ele>739.79998779296875</ele>
        <time>2026-08-21T20:58:55.000Z</time>
        <extensions>
          <ns3:TrackPointExtension>
            <ns3:hr>139</ns3:hr>
            <ns3:cad>0</ns3:cad>
          </ns3:TrackPointExtension>
        </extensions>
      </trkpt>
      <trkpt lat="45.32017730176448822021484375" lon="-71.00852712057530879974365234375">
        <ele>739.79998779296875</ele>
        <time>2026-08-21T20:58:56.000Z</time>
        <extensions>
          <ns3:TrackPointExtension>
            <ns3:hr>138</ns3:hr>
            <ns3:cad>0</ns3:cad>
          </ns3:TrackPointExtension>
        </extensions>
      </trkpt>
      <trkpt lat="45.32017461955547332763671875" lon="-71.00853080861270427703857421875">
        <ele>740</ele>
        <time>2026-08-21T20:58:57.000Z</time>
        <extensions>
          <ns3:TrackPointExtension>
            <ns3:hr>138</ns3:hr>
            <ns3:cad>0</ns3:cad>
          </ns3:TrackPointExtension>
        </extensions>
      </trkpt>
      <trkpt lat="45.3201660700142383575439453125" lon="-71.0085233487188816070556640625">
        <ele>740.20001220703125</ele>
        <time>2026-08-21T20:58:58.000Z</time>
        <extensions>
          <ns3:TrackPointExtension>
            <ns3:hr>138</ns3:hr>
            <ns3:cad>0</ns3:cad>
          </ns3:TrackPointExtension>
        </extensions>
      </trkpt>
      <trkpt lat="45.32015106640756130218505859375" lon="-71.00851454772055149078369140625">
        <ele>740.20001220703125</ele>
        <time>2026-08-21T20:58:59.000Z</time>
        <extensions>
          <ns3:TrackPointExtension>
            <ns3:hr>138</ns3:hr>
            <ns3:cad>0</ns3:cad>
          </ns3:TrackPointExtension>
        </extensions>
      </trkpt>
      <trkpt lat="45.320148468017578125" lon="-71.0085158050060272216796875">
        <ele>740.4000244140625</ele>
        <time>2026-08-21T20:59:00.000Z</time>
        <extensions>
          <ns3:TrackPointExtension>
            <ns3:hr>137</ns3:hr>
            <ns3:cad>0</ns3:cad>
          </ns3:TrackPointExtension>
        </extensions>
      </trkpt>
      <trkpt lat="45.3201444447040557861328125" lon="-71.008507423102855682373046875">
        <ele>740.5999755859375</ele>
        <time>2026-08-21T20:59:01.000Z</time>
        <extensions>
          <ns3:TrackPointExtension>
            <ns3:hr>138</ns3:hr>
            <ns3:cad>0</ns3:cad>
          </ns3:TrackPointExtension>
        </extensions>
      </trkpt>
      <trkpt lat="45.3201328776776790618896484375" lon="-71.008509434759616851806640625">
        <ele>740.79998779296875</ele>
        <time>2026-08-21T20:59:02.000Z</time>
        <extensions>
          <ns3:TrackPointExtension>
            <ns3:hr>138</ns3:hr>
            <ns3:cad>0</ns3:cad>
          </ns3:TrackPointExtension>
        </extensions>
      </trkpt>
      <trkpt lat="45.3201241604983806610107421875" lon="-71.008509434759616851806640625">
        <ele>740.79998779296875</ele>
        <time>2026-08-21T20:59:03.000Z</time>
        <extensions>
          <ns3:TrackPointExtension>
            <ns3:hr>138</ns3:hr>
            <ns3:cad>0</ns3:cad>
          </ns3:TrackPointExtension>
        </extensions>
      </trkpt>
      <trkpt lat="45.32011921517550945281982421875" lon="-71.00851153023540973663330078125">
        <ele>741</ele>
        <time>2026-08-21T20:59:04.000Z</time>
        <extensions>
          <ns3:TrackPointExtension>
            <ns3:hr>138</ns3:hr>
            <ns3:cad>0</ns3:cad>
          </ns3:TrackPointExtension>
        </extensions>
      </trkpt>
      <trkpt lat="45.32010312192142009735107421875" lon="-71.0085104405879974365234375">
        <ele>741.20001220703125</ele>
        <time>2026-08-21T20:59:05.000Z</time>
        <extensions>
          <ns3:TrackPointExtension>
            <ns3:hr>139</ns3:hr>
            <ns3:cad>0</ns3:cad>
          </ns3:TrackPointExtension>
        </extensions>
      </trkpt>
      <trkpt lat="45.32009490765631198883056640625" lon="-71.008517481386661529541015625">
        <ele>741.4000244140625</ele>
        <time>2026-08-21T20:59:06.000Z</time>
        <extensions>
          <ns3:TrackPointExtension>
            <ns3:hr>141</ns3:hr>
            <ns3:cad>0</ns3:cad>
          </ns3:TrackPointExtension>
        </extensions>
      </trkpt>
      <trkpt lat="45.32009608112275600433349609375" lon="-71.00851706229150295257568359375">
        <ele>741.5999755859375</ele>
        <time>2026-08-21T20:59:07.000Z</time>
        <extensions>
          <ns3:TrackPointExtension>
            <ns3:hr>142</ns3:hr>
            <ns3:cad>0</ns3:cad>
          </ns3:TrackPointExtension>
        </extensions>
      </trkpt>
      <trkpt lat="45.320099852979183197021484375" lon="-71.00852007977664470672607421875">
        <ele>741.79998779296875</ele>
        <time>2026-08-21T20:59:08.000Z</time>
        <extensions>
          <ns3:TrackPointExtension>
            <ns3:hr>142</ns3:hr>
            <ns3:cad>0</ns3:cad>
          </ns3:TrackPointExtension>
        </extensions>
      </trkpt>
      <trkpt lat="45.3201016969978809356689453125" lon="-71.00852787494659423828125">
        <ele>742</ele>
        <time>2026-08-21T20:59:09.000Z</time>
        <extensions>
          <ns3:TrackPointExtension>
            <ns3:hr>139</ns3:hr>
            <ns3:cad>0</ns3:cad>
          </ns3:TrackPointExtension>
        </extensions>
      </trkpt>
      <trkpt lat="45.320097506046295166015625" lon="-71.00853525102138519287109375">
        <ele>742.20001220703125</ele>
        <time>2026-08-21T20:59:10.000Z</time>
        <extensions>
          <ns3:TrackPointExtension>
            <ns3:hr>139</ns3:hr>
            <ns3:cad>0</ns3:cad>
          </ns3:TrackPointExtension>
        </extensions>
      </trkpt>
      <trkpt lat="45.32009624876081943511962890625" lon="-71.0085372626781463623046875">
        <ele>742.4000244140625</ele>
        <time>2026-08-21T20:59:11.000Z</time>
        <extensions>
          <ns3:TrackPointExtension>
            <ns3:hr>138</ns3:hr>
            <ns3:cad>0</ns3:cad>
          </ns3:TrackPointExtension>
        </extensions>
      </trkpt>
      <trkpt lat="45.32008518464863300323486328125" lon="-71.00852846167981624603271484375">
        <ele>742.5999755859375</ele>
        <time>2026-08-21T20:59:12.000Z</time>
        <extensions>
          <ns3:TrackPointExtension>
            <ns3:hr>138</ns3:hr>
            <ns3:cad>0</ns3:cad>
          </ns3:TrackPointExtension>
        </extensions>
      </trkpt>
      <trkpt lat="45.32007806003093719482421875" lon="-71.00853298790752887725830078125">
        <ele>742.79998779296875</ele>
        <time>2026-08-21T20:59:13.000Z</time>
        <extensions>
          <ns3:TrackPointExtension>
            <ns3:hr>138</ns3:hr>
            <ns3:cad>0</ns3:cad>
          </ns3:TrackPointExtension>
        </extensions>
      </trkpt>
      <trkpt lat="45.32007160596549510955810546875" lon="-71.00853390991687774658203125">
        <ele>743.20001220703125</ele>
        <time>2026-08-21T20:59:14.000Z</time>
        <extensions>
          <ns3:TrackPointExtension>
            <ns3:hr>138</ns3:hr>
            <ns3:cad>68</ns3:cad>
          </ns3:TrackPointExtension>
        </extensions>
      </trkpt>
      <trkpt lat="45.32006825320422649383544921875" lon="-71.00853634066879749298095703125">
        <ele>743.4000244140625</ele>
        <time>2026-08-21T20:59:15.000Z</time>
        <extensions>
          <ns3:TrackPointExtension>
            <ns3:hr>137</ns3:hr>
            <ns3:cad>68</ns3:cad>
          </ns3:TrackPointExtension>
        </extensions>
      </trkpt>
      <trkpt lat="45.3200614638626575469970703125" lon="-71.00853516720235347747802734375">
        <ele>743.5999755859375</ele>
        <time>2026-08-21T20:59:16.000Z</time>
        <extensions>
          <ns3:TrackPointExtension>
            <ns3:hr>137</ns3:hr>
            <ns3:cad>68</ns3:cad>
          </ns3:TrackPointExtension>
        </extensions>
      </trkpt>
      <trkpt lat="45.32005635090172290802001953125" lon="-71.00853122770786285400390625">
        <ele>743.79998779296875</ele>
        <time>2026-08-21T20:59:17.000Z</time>
        <extensions>
          <ns3:TrackPointExtension>
            <ns3:hr>136</ns3:hr>
            <ns3:cad>68</ns3:cad>
          </ns3:TrackPointExtension>
        </extensions>
      </trkpt>
      <trkpt lat="45.32005115412175655364990234375" lon="-71.00852360017597675323486328125">
        <ele>744</ele>
        <time>2026-08-21T20:59:18.000Z</time>
        <extensions>
          <ns3:TrackPointExtension>
            <ns3:hr>136</ns3:hr>
            <ns3:cad>0</ns3:cad>
          </ns3:TrackPointExtension>
        </extensions>
      </trkpt>
      <trkpt lat="45.32004612497985363006591796875" lon="-71.00852292962372303009033203125">
        <ele>744.20001220703125</ele>
        <time>2026-08-21T20:59:19.000Z</time>
        <extensions>
          <ns3:TrackPointExtension>
            <ns3:hr>136</ns3:hr>
            <ns3:cad>0</ns3:cad>
          </ns3:TrackPointExtension>
        </extensions>
      </trkpt>
      <trkpt lat="45.32004319131374359130859375" lon="-71.008518151938915252685546875">
        <ele>744.4000244140625</ele>
        <time>2026-08-21T20:59:20.000Z</time>
        <extensions>
          <ns3:TrackPointExtension>
            <ns3:hr>137</ns3:hr>
            <ns3:cad>0</ns3:cad>
          </ns3:TrackPointExtension>
        </extensions>
      </trkpt>
      <trkpt lat="45.3200386650860309600830078125" lon="-71.008514128625392913818359375">
        <ele>744.5999755859375</ele>
        <time>2026-08-21T20:59:21.000Z</time>
        <extensions>
          <ns3:TrackPointExtension>
            <ns3:hr>138</ns3:hr>
            <ns3:cad>0</ns3:cad>
          </ns3:TrackPointExtension>
        </extensions>
      </trkpt>
      <trkpt lat="45.32003539614379405975341796875" lon="-71.00851639173924922943115234375">
        <ele>744.79998779296875</ele>
        <time>2026-08-21T20:59:22.000Z</time>
        <extensions>
          <ns3:TrackPointExtension>
            <ns3:hr>138</ns3:hr>
            <ns3:cad>0</ns3:cad>
          </ns3:TrackPointExtension>
        </extensions>
      </trkpt>
      <trkpt lat="45.32002986408770084381103515625" lon="-71.008520163595676422119140625">
        <ele>745</ele>
        <time>2026-08-21T20:59:23.000Z</time>
        <extensions>
          <ns3:TrackPointExtension>
            <ns3:hr>138</ns3:hr>
            <ns3:cad>0</ns3:cad>
          </ns3:TrackPointExtension>
        </extensions>
      </trkpt>
      <trkpt lat="45.32002550549805164337158203125" lon="-71.00852292962372303009033203125">
        <ele>745.20001220703125</ele>
        <time>2026-08-21T20:59:24.000Z</time>
        <extensions>
          <ns3:TrackPointExtension>
            <ns3:hr>138</ns3:hr>
            <ns3:cad>0</ns3:cad>
          </ns3:TrackPointExtension>
        </extensions>
      </trkpt>
      <trkpt lat="45.3200210630893707275390625" lon="-71.00852846167981624603271484375">
        <ele>745.4000244140625</ele>
        <time>2026-08-21T20:59:25.000Z</time>
        <extensions>
          <ns3:TrackPointExtension>
            <ns3:hr>138</ns3:hr>
            <ns3:cad>0</ns3:cad>
          </ns3:TrackPointExtension>
        </extensions>
      </trkpt>
      <trkpt lat="45.3200145252048969268798828125" lon="-71.0085310600697994232177734375">
        <ele>745.5999755859375</ele>
        <time>2026-08-21T20:59:26.000Z</time>
        <extensions>
          <ns3:TrackPointExtension>
            <ns3:hr>139</ns3:hr>
            <ns3:cad>0</ns3:cad>
          </ns3:TrackPointExtension>
        </extensions>
      </trkpt>
      <trkpt lat="45.32000840641558170318603515625" lon="-71.00852980278432369232177734375">
        <ele>745.79998779296875</ele>
        <time>2026-08-21T20:59:27.000Z</time>
        <extensions>
          <ns3:TrackPointExtension>
            <ns3:hr>140</ns3:hr>
            <ns3:cad>0</ns3:cad>
          </ns3:TrackPointExtension>
        </extensions>
      </trkpt>
      <trkpt lat="45.32000354491174221038818359375" lon="-71.00852988660335540771484375">
        <ele>746</ele>
        <time>2026-08-21T20:59:28.000Z</time>
        <extensions>
          <ns3:TrackPointExtension>
            <ns3:hr>140</ns3:hr>
            <ns3:cad>0</ns3:cad>
          </ns3:TrackPointExtension>
        </extensions>
      </trkpt>
      <trkpt lat="45.319999270141124725341796875" lon="-71.00852510891854763031005859375">
        <ele>746.20001220703125</ele>
        <time>2026-08-21T20:59:29.000Z</time>
        <extensions>
          <ns3:TrackPointExtension>
            <ns3:hr>140</ns3:hr>
            <ns3:cad>0</ns3:cad>
          </ns3:TrackPointExtension>
        </extensions>
      </trkpt>
      <trkpt lat="45.3199964202940464019775390625" lon="-71.00852192379534244537353515625">
        <ele>746.4000244140625</ele>
        <time>2026-08-21T20:59:30.000Z</time>
        <extensions>
          <ns3:TrackPointExtension>
            <ns3:hr>140</ns3:hr>
            <ns3:cad>0</ns3:cad>
          </ns3:TrackPointExtension>
        </extensions>
      </trkpt>
      <trkpt lat="45.31999449245631694793701171875" lon="-71.00851672701537609100341796875">
        <ele>746.5999755859375</ele>
        <time>2026-08-21T20:59:31.000Z</time>
        <extensions>
          <ns3:TrackPointExtension>
            <ns3:hr>140</ns3:hr>
            <ns3:cad>0</ns3:cad>
          </ns3:TrackPointExtension>
        </extensions>
      </trkpt>
      <trkpt lat="45.3199873678386211395263671875" lon="-71.0085126198828220367431640625">
        <ele>746.79998779296875</ele>
        <time>2026-08-21T20:59:32.000Z</time>
        <extensions>
          <ns3:TrackPointExtension>
            <ns3:hr>140</ns3:hr>
            <ns3:cad>0</ns3:cad>
          </ns3:TrackPointExtension>
        </extensions>
      </trkpt>
      <trkpt lat="45.3199808299541473388671875" lon="-71.00851354189217090606689453125">
        <ele>747</ele>
        <time>2026-08-21T20:59:33.000Z</time>
        <extensions>
          <ns3:TrackPointExtension>
            <ns3:hr>140</ns3:hr>
            <ns3:cad>0</ns3:cad>
          </ns3:TrackPointExtension>
        </extensions>
      </trkpt>
      <trkpt lat="45.31997504644095897674560546875" lon="-71.00851136259734630584716796875">
        <ele>747</ele>
        <time>2026-08-21T20:59:34.000Z</time>
        <extensions>
          <ns3:TrackPointExtension>
            <ns3:hr>141</ns3:hr>
            <ns3:cad>0</ns3:cad>
          </ns3:TrackPointExtension>
        </extensions>
      </trkpt>
      <trkpt lat="45.319968760013580322265625" lon="-71.0085028968751430511474609375">
        <ele>747.20001220703125</ele>
        <time>2026-08-21T20:59:35.000Z</time>
        <extensions>
          <ns3:TrackPointExtension>
            <ns3:hr>140</ns3:hr>
            <ns3:cad>0</ns3:cad>
          </ns3:TrackPointExtension>
        </extensions>
      </trkpt>
      <trkpt lat="45.3199742920696735382080078125" lon="-71.00850566290318965911865234375">
        <ele>747.4000244140625</ele>
        <time>2026-08-21T20:59:36.000Z</time>
        <extensions>
          <ns3:TrackPointExtension>
            <ns3:hr>140</ns3:hr>
            <ns3:cad>0</ns3:cad>
          </ns3:TrackPointExtension>
        </extensions>
      </trkpt>
      <trkpt lat="45.319974459707736968994140625" lon="-71.0084997117519378662109375">
        <ele>747.5999755859375</ele>
        <time>2026-08-21T20:59:37.000Z</time>
        <extensions>
          <ns3:TrackPointExtension>
            <ns3:hr>140</ns3:hr>
            <ns3:cad>0</ns3:cad>
          </ns3:TrackPointExtension>
        </extensions>
      </trkpt>
      <trkpt lat="45.31997655518352985382080078125" lon="-71.00849510170519351959228515625">
        <ele>747.79998779296875</ele>
        <time>2026-08-21T20:59:38.000Z</time>
        <extensions>
          <ns3:TrackPointExtension>
            <ns3:hr>141</ns3:hr>
            <ns3:cad>0</ns3:cad>
          </ns3:TrackPointExtension>
        </extensions>
      </trkpt>
      <trkpt lat="45.31997823156416416168212890625" lon="-71.00848588161170482635498046875">
        <ele>748</ele>
        <time>2026-08-21T20:59:39.000Z</time>
        <extensions>
          <ns3:TrackPointExtension>
            <ns3:hr>141</ns3:hr>
            <ns3:cad>0</ns3:cad>
          </ns3:TrackPointExtension>
        </extensions>
      </trkpt>
      <trkpt lat="45.31998158432543277740478515625" lon="-71.008477918803691864013671875">
        <ele>748.20001220703125</ele>
        <time>2026-08-21T20:59:40.000Z</time>
        <extensions>
          <ns3:TrackPointExtension>
            <ns3:hr>141</ns3:hr>
            <ns3:cad>0</ns3:cad>
          </ns3:TrackPointExtension>
        </extensions>
      </trkpt>
      <trkpt lat="45.319989211857318878173828125" lon="-71.0084723867475986480712890625">
        <ele>748.4000244140625</ele>
        <time>2026-08-21T20:59:41.000Z</time>
        <extensions>
          <ns3:TrackPointExtension>
            <ns3:hr>141</ns3:hr>
            <ns3:cad>0</ns3:cad>
          </ns3:TrackPointExtension>
        </extensions>
      </trkpt>
      <trkpt lat="45.3199994377791881561279296875" lon="-71.0084743984043598175048828125">
        <ele>748.4000244140625</ele>
        <time>2026-08-21T20:59:42.000Z</time>
        <extensions>
          <ns3:TrackPointExtension>
            <ns3:hr>142</ns3:hr>
            <ns3:cad>0</ns3:cad>
          </ns3:TrackPointExtension>
        </extensions>
      </trkpt>
      <trkpt lat="45.320001281797885894775390625" lon="-71.00847045890986919403076171875">
        <ele>748.5999755859375</ele>
        <time>2026-08-21T20:59:43.000Z</time>
        <extensions>
          <ns3:TrackPointExtension>
            <ns3:hr>143</ns3:hr>
            <ns3:cad>0</ns3:cad>
          </ns3:TrackPointExtension>
        </extensions>
      </trkpt>
      <trkpt lat="45.32000572420656681060791015625" lon="-71.008463166654109954833984375">
        <ele>748.5999755859375</ele>
        <time>2026-08-21T20:59:44.000Z</time>
        <extensions>
          <ns3:TrackPointExtension>
            <ns3:hr>143</ns3:hr>
            <ns3:cad>0</ns3:cad>
          </ns3:TrackPointExtension>
        </extensions>
      </trkpt>
      <trkpt lat="45.32000832259654998779296875" lon="-71.0084529407322406768798828125">
        <ele>748.5999755859375</ele>
        <time>2026-08-21T20:59:45.000Z</time>
        <extensions>
          <ns3:TrackPointExtension>
            <ns3:hr>142</ns3:hr>
            <ns3:cad>0</ns3:cad>
          </ns3:TrackPointExtension>
        </extensions>
      </trkpt>
      <trkpt lat="45.3200111724436283111572265625" lon="-71.00844564847648143768310546875">
        <ele>748.5999755859375</ele>
        <time>2026-08-21T20:59:46.000Z</time>
        <extensions>
          <ns3:TrackPointExtension>
            <ns3:hr>142</ns3:hr>
            <ns3:cad>0</ns3:cad>
          </ns3:TrackPointExtension>
        </extensions>
      </trkpt>
      <trkpt lat="45.32001980580389499664306640625" lon="-71.00844095461070537567138671875">
        <ele>748.79998779296875</ele>
        <time>2026-08-21T20:59:47.000Z</time>
        <extensions>
          <ns3:TrackPointExtension>
            <ns3:hr>142</ns3:hr>
            <ns3:cad>43</ns3:cad>
          </ns3:TrackPointExtension>
        </extensions>
      </trkpt>
      <trkpt lat="45.32002885825932025909423828125" lon="-71.0084241069853305816650390625">
        <ele>748.79998779296875</ele>
        <time>2026-08-21T20:59:48.000Z</time>
        <extensions>
          <ns3:TrackPointExtension>
            <ns3:hr>143</ns3:hr>
            <ns3:cad>43</ns3:cad>
          </ns3:TrackPointExtension>
        </extensions>
      </trkpt>
      <trkpt lat="45.32003170810639858245849609375" lon="-71.0084160603582859039306640625">
        <ele>749</ele>
        <time>2026-08-21T20:59:49.000Z</time>
        <extensions>
          <ns3:TrackPointExtension>
            <ns3:hr>142</ns3:hr>
            <ns3:cad>43</ns3:cad>
          </ns3:TrackPointExtension>
        </extensions>
      </trkpt>
      <trkpt lat="45.320033468306064605712890625" lon="-71.00840248167514801025390625">
        <ele>749</ele>
        <time>2026-08-21T20:59:50.000Z</time>
        <extensions>
          <ns3:TrackPointExtension>
            <ns3:hr>142</ns3:hr>
            <ns3:cad>43</ns3:cad>
          </ns3:TrackPointExtension>
        </extensions>
      </trkpt>
      <trkpt lat="45.32003086991608142852783203125" lon="-71.008391417562961578369140625">
        <ele>749.20001220703125</ele>
        <time>2026-08-21T20:59:51.000Z</time>
        <extensions>
          <ns3:TrackPointExtension>
            <ns3:hr>143</ns3:hr>
            <ns3:cad>43</ns3:cad>
          </ns3:TrackPointExtension>
        </extensions>
      </trkpt>
      <trkpt lat="45.3200259245932102203369140625" lon="-71.00836761295795440673828125">
        <ele>749.4000244140625</ele>
        <time>2026-08-21T20:59:52.000Z</time>
        <extensions>
          <ns3:TrackPointExtension>
            <ns3:hr>142</ns3:hr>
            <ns3:cad>0</ns3:cad>
          </ns3:TrackPointExtension>
        </extensions>
      </trkpt>
      <trkpt lat="45.320018045604228973388671875" lon="-71.00834908895194530487060546875">
        <ele>749.5999755859375</ele>
        <time>2026-08-21T20:59:53.000Z</time>
        <extensions>
          <ns3:TrackPointExtension>
            <ns3:hr>142</ns3:hr>
            <ns3:cad>0</ns3:cad>
          </ns3:TrackPointExtension>
        </extensions>
      </trkpt>
      <trkpt lat="45.3200084902346134185791015625" lon="-71.00833584554493427276611328125">
        <ele>749.79998779296875</ele>
        <time>2026-08-21T20:59:54.000Z</time>
        <extensions>
          <ns3:TrackPointExtension>
            <ns3:hr>142</ns3:hr>
            <ns3:cad>0</ns3:cad>
          </ns3:TrackPointExtension>
        </extensions>
      </trkpt>
      <trkpt lat="45.31999851576983928680419921875" lon="-71.0083268769085407257080078125">
        <ele>749.79998779296875</ele>
        <time>2026-08-21T20:59:55.000Z</time>
        <extensions>
          <ns3:TrackPointExtension>
            <ns3:hr>142</ns3:hr>
            <ns3:cad>0</ns3:cad>
          </ns3:TrackPointExtension>
        </extensions>
      </trkpt>
      <trkpt lat="45.3199887089431285858154296875" lon="-71.0083225183188915252685546875">
        <ele>750</ele>
        <time>2026-08-21T20:59:56.000Z</time>
        <extensions>
          <ns3:TrackPointExtension>
            <ns3:hr>142</ns3:hr>
            <ns3:cad>0</ns3:cad>
          </ns3:TrackPointExtension>
        </extensions>
      </trkpt>
      <trkpt lat="45.31998158432543277740478515625" lon="-71.00832109339535236358642578125">
        <ele>750.20001220703125</ele>
        <time>2026-08-21T20:59:57.000Z</time>
        <extensions>
          <ns3:TrackPointExtension>
            <ns3:hr>142</ns3:hr>
            <ns3:cad>0</ns3:cad>
          </ns3:TrackPointExtension>
        </extensions>
      </trkpt>
      <trkpt lat="45.31997345387935638427734375" lon="-71.00831790827214717864990234375">
        <ele>750.20001220703125</ele>
        <time>2026-08-21T20:59:58.000Z</time>
        <extensions>
          <ns3:TrackPointExtension>
            <ns3:hr>142</ns3:hr>
            <ns3:cad>0</ns3:cad>
          </ns3:TrackPointExtension>
        </extensions>
      </trkpt>
      <trkpt lat="45.31996314413845539093017578125" lon="-71.00831799209117889404296875">
        <ele>750.4000244140625</ele>
        <time>2026-08-21T20:59:59.000Z</time>
        <extensions>
          <ns3:TrackPointExtension>
            <ns3:hr>141</ns3:hr>
            <ns3:cad>0</ns3:cad>
          </ns3:TrackPointExtension>
        </extensions>
      </trkpt>
      <trkpt lat="45.31994872726500034332275390625" lon="-71.008321009576320648193359375">
        <ele>750.5999755859375</ele>
        <time>2026-08-21T21:00:00.000Z</time>
        <extensions>
          <ns3:TrackPointExtension>
            <ns3:hr>141</ns3:hr>
            <ns3:cad>0</ns3:cad>
          </ns3:TrackPointExtension>
        </extensions>
      </trkpt>
      <trkpt lat="45.31994034536182880401611328125" lon="-71.0083238594233989715576171875">
        <ele>750.5999755859375</ele>
        <time>2026-08-21T21:00:01.000Z</time>
        <extensions>
          <ns3:TrackPointExtension>
            <ns3:hr>141</ns3:hr>
            <ns3:cad>0</ns3:cad>
          </ns3:TrackPointExtension>
        </extensions>
      </trkpt>
      <trkpt lat="45.31993146054446697235107421875" lon="-71.008321009576320648193359375">
        <ele>750.79998779296875</ele>
        <time>2026-08-21T21:00:02.000Z</time>
        <extensions>
          <ns3:TrackPointExtension>
            <ns3:hr>140</ns3:hr>
            <ns3:cad>0</ns3:cad>
          </ns3:TrackPointExtension>
        </extensions>
      </trkpt>
      <trkpt lat="45.319926850497722625732421875" lon="-71.00830265320837497711181640625">
        <ele>750.79998779296875</ele>
        <time>2026-08-21T21:00:03.000Z</time>
        <extensions>
          <ns3:TrackPointExtension>
            <ns3:hr>140</ns3:hr>
            <ns3:cad>0</ns3:cad>
          </ns3:TrackPointExtension>
        </extensions>
      </trkpt>
      <trkpt lat="45.31991570256650447845458984375" lon="-71.00829628296196460723876953125">
        <ele>750.79998779296875</ele>
        <time>2026-08-21T21:00:04.000Z</time>
        <extensions>
          <ns3:TrackPointExtension>
            <ns3:hr>140</ns3:hr>
            <ns3:cad>0</ns3:cad>
          </ns3:TrackPointExtension>
        </extensions>
      </trkpt>
      <trkpt lat="45.3199115954339504241943359375" lon="-71.00828706286847591400146484375">
        <ele>750.79998779296875</ele>
        <time>2026-08-21T21:00:05.000Z</time>
        <extensions>
          <ns3:TrackPointExtension>
            <ns3:hr>140</ns3:hr>
            <ns3:cad>52</ns3:cad>
          </ns3:TrackPointExtension>
        </extensions>
      </trkpt>
      <trkpt lat="45.31990933232009410858154296875" lon="-71.00828018970787525177001953125">
        <ele>751</ele>
        <time>2026-08-21T21:00:06.000Z</time>
        <extensions>
          <ns3:TrackPointExtension>
            <ns3:hr>140</ns3:hr>
            <ns3:cad>52</ns3:cad>
          </ns3:TrackPointExtension>
        </extensions>
      </trkpt>
      <trkpt lat="45.31990312971174716949462890625" lon="-71.0082695446908473968505859375">
        <ele>751</ele>
        <time>2026-08-21T21:00:07.000Z</time>
        <extensions>
          <ns3:TrackPointExtension>
            <ns3:hr>140</ns3:hr>
            <ns3:cad>47</ns3:cad>
          </ns3:TrackPointExtension>
        </extensions>
      </trkpt>
      <trkpt lat="45.319898016750812530517578125" lon="-71.0082591511309146881103515625">
        <ele>751.20001220703125</ele>
        <time>2026-08-21T21:00:08.000Z</time>
        <extensions>
          <ns3:TrackPointExtension>
            <ns3:hr>141</ns3:hr>
            <ns3:cad>47</ns3:cad>
          </ns3:TrackPointExtension>
        </extensions>
      </trkpt>
      <trkpt lat="45.319893322885036468505859375" lon="-71.008249931037425994873046875">
        <ele>751.4000244140625</ele>
        <time>2026-08-21T21:00:09.000Z</time>
        <extensions>
          <ns3:TrackPointExtension>
            <ns3:hr>141</ns3:hr>
            <ns3:cad>47</ns3:cad>
          </ns3:TrackPointExtension>
        </extensions>
      </trkpt>
      <trkpt lat="45.3198881261050701141357421875" lon="-71.0082521103322505950927734375">
        <ele>751.5999755859375</ele>
        <time>2026-08-21T21:00:10.000Z</time>
        <extensions>
          <ns3:TrackPointExtension>
            <ns3:hr>141</ns3:hr>
            <ns3:cad>45</ns3:cad>
          </ns3:TrackPointExtension>
        </extensions>
      </trkpt>
      <trkpt lat="45.31987915746867656707763671875" lon="-71.00824716500937938690185546875">
        <ele>751.79998779296875</ele>
        <time>2026-08-21T21:00:11.000Z</time>
        <extensions>
          <ns3:TrackPointExtension>
            <ns3:hr>140</ns3:hr>
            <ns3:cad>45</ns3:cad>
          </ns3:TrackPointExtension>
        </extensions>
      </trkpt>
      <trkpt lat="45.31987295486032962799072265625" lon="-71.0082376934587955474853515625">
        <ele>752</ele>
        <time>2026-08-21T21:00:12.000Z</time>
        <extensions>
          <ns3:TrackPointExtension>
            <ns3:hr>140</ns3:hr>
            <ns3:cad>43</ns3:cad>
          </ns3:TrackPointExtension>
        </extensions>
      </trkpt>
      <trkpt lat="45.3198720328509807586669921875" lon="-71.00823123939335346221923828125">
        <ele>752.20001220703125</ele>
        <time>2026-08-21T21:00:13.000Z</time>
        <extensions>
          <ns3:TrackPointExtension>
            <ns3:hr>140</ns3:hr>
            <ns3:cad>43</ns3:cad>
          </ns3:TrackPointExtension>
        </extensions>
      </trkpt>
      <trkpt lat="45.31987362541258335113525390625" lon="-71.00823140703141689300537109375">
        <ele>752.4000244140625</ele>
        <time>2026-08-21T21:00:14.000Z</time>
        <extensions>
          <ns3:TrackPointExtension>
            <ns3:hr>140</ns3:hr>
            <ns3:cad>43</ns3:cad>
          </ns3:TrackPointExtension>
        </extensions>
      </trkpt>
      <trkpt lat="45.31987362541258335113525390625" lon="-71.00822386331856250762939453125">
        <ele>752.79998779296875</ele>
        <time>2026-08-21T21:00:15.000Z</time>
        <extensions>
          <ns3:TrackPointExtension>
            <ns3:hr>139</ns3:hr>
            <ns3:cad>43</ns3:cad>
          </ns3:TrackPointExtension>
        </extensions>
      </trkpt>
      <trkpt lat="45.31986876390874385833740234375" lon="-71.00821699015796184539794921875">
        <ele>753</ele>
        <time>2026-08-21T21:00:16.000Z</time>
        <extensions>
          <ns3:TrackPointExtension>
            <ns3:hr>139</ns3:hr>
            <ns3:cad>0</ns3:cad>
          </ns3:TrackPointExtension>
        </extensions>
      </trkpt>
      <trkpt lat="45.31986356712877750396728515625" lon="-71.0082028247416019439697265625">
        <ele>753.20001220703125</ele>
        <time>2026-08-21T21:00:17.000Z</time>
        <extensions>
          <ns3:TrackPointExtension>
            <ns3:hr>138</ns3:hr>
            <ns3:cad>0</ns3:cad>
          </ns3:TrackPointExtension>
        </extensions>
      </trkpt>
      <trkpt lat="45.3198532573878765106201171875" lon="-71.00819603540003299713134765625">
        <ele>753.4000244140625</ele>
        <time>2026-08-21T21:00:18.000Z</time>
        <extensions>
          <ns3:TrackPointExtension>
            <ns3:hr>138</ns3:hr>
            <ns3:cad>0</ns3:cad>
          </ns3:TrackPointExtension>
        </extensions>
      </trkpt>
      <trkpt lat="45.3198405168950557708740234375" lon="-71.008192934095859527587890625">
        <ele>753.5999755859375</ele>
        <time>2026-08-21T21:00:19.000Z</time>
        <extensions>
          <ns3:TrackPointExtension>
            <ns3:hr>138</ns3:hr>
            <ns3:cad>0</ns3:cad>
          </ns3:TrackPointExtension>
        </extensions>
      </trkpt>
      <trkpt lat="45.3198271058499813079833984375" lon="-71.008191592991352081298828125">
        <ele>753.5999755859375</ele>
        <time>2026-08-21T21:00:20.000Z</time>
        <extensions>
          <ns3:TrackPointExtension>
            <ns3:hr>138</ns3:hr>
            <ns3:cad>0</ns3:cad>
          </ns3:TrackPointExtension>
        </extensions>
      </trkpt>
      <trkpt lat="45.3198143653571605682373046875" lon="-71.0081917606294155120849609375">
        <ele>753.79998779296875</ele>
        <time>2026-08-21T21:00:21.000Z</time>
        <extensions>
          <ns3:TrackPointExtension>
            <ns3:hr>138</ns3:hr>
            <ns3:cad>0</ns3:cad>
          </ns3:TrackPointExtension>
        </extensions>
      </trkpt>
      <trkpt lat="45.3198012895882129669189453125" lon="-71.00819536484777927398681640625">
        <ele>753.79998779296875</ele>
        <time>2026-08-21T21:00:22.000Z</time>
        <extensions>
          <ns3:TrackPointExtension>
            <ns3:hr>138</ns3:hr>
            <ns3:cad>48</ns3:cad>
          </ns3:TrackPointExtension>
        </extensions>
      </trkpt>
      <trkpt lat="45.31979081220924854278564453125" lon="-71.00819528102874755859375">
        <ele>753.79998779296875</ele>
        <time>2026-08-21T21:00:23.000Z</time>
        <extensions>
          <ns3:TrackPointExtension>
            <ns3:hr>139</ns3:hr>
            <ns3:cad>48</ns3:cad>
          </ns3:TrackPointExtension>
        </extensions>
      </trkpt>
      <trkpt lat="45.31978276558220386505126953125" lon="-71.00819553248584270477294921875">
        <ele>754</ele>
        <time>2026-08-21T21:00:24.000Z</time>
        <extensions>
          <ns3:TrackPointExtension>
            <ns3:hr>139</ns3:hr>
            <ns3:cad>48</ns3:cad>
          </ns3:TrackPointExtension>
        </extensions>
      </trkpt>
      <trkpt lat="45.31978075392544269561767578125" lon="-71.0081947781145572662353515625">
        <ele>754.20001220703125</ele>
        <time>2026-08-21T21:00:25.000Z</time>
        <extensions>
          <ns3:TrackPointExtension>
            <ns3:hr>139</ns3:hr>
            <ns3:cad>48</ns3:cad>
          </ns3:TrackPointExtension>
        </extensions>
      </trkpt>
      <trkpt lat="45.3197769820690155029296875" lon="-71.00819192826747894287109375">
        <ele>754.4000244140625</ele>
        <time>2026-08-21T21:00:26.000Z</time>
        <extensions>
          <ns3:TrackPointExtension>
            <ns3:hr>138</ns3:hr>
            <ns3:cad>49</ns3:cad>
          </ns3:TrackPointExtension>
        </extensions>
      </trkpt>
      <trkpt lat="45.31976784579455852508544921875" lon="-71.00818731822073459625244140625">
        <ele>754.5999755859375</ele>
        <time>2026-08-21T21:00:27.000Z</time>
        <extensions>
          <ns3:TrackPointExtension>
            <ns3:hr>138</ns3:hr>
            <ns3:cad>49</ns3:cad>
          </ns3:TrackPointExtension>
        </extensions>
      </trkpt>
      <trkpt lat="45.319761894643306732177734375" lon="-71.00818094797432422637939453125">
        <ele>754.79998779296875</ele>
        <time>2026-08-21T21:00:28.000Z</time>
        <extensions>
          <ns3:TrackPointExtension>
            <ns3:hr>138</ns3:hr>
            <ns3:cad>49</ns3:cad>
          </ns3:TrackPointExtension>
        </extensions>
      </trkpt>
      <trkpt lat="45.31975544057786464691162109375" lon="-71.0081751644611358642578125">
        <ele>755.20001220703125</ele>
        <time>2026-08-21T21:00:29.000Z</time>
        <extensions>
          <ns3:TrackPointExtension>
            <ns3:hr>138</ns3:hr>
            <ns3:cad>49</ns3:cad>
          </ns3:TrackPointExtension>
        </extensions>
      </trkpt>
      <trkpt lat="45.319749154150485992431640625" lon="-71.008170135319232940673828125">
        <ele>755.4000244140625</ele>
        <time>2026-08-21T21:00:30.000Z</time>
        <extensions>
          <ns3:TrackPointExtension>
            <ns3:hr>139</ns3:hr>
            <ns3:cad>49</ns3:cad>
          </ns3:TrackPointExtension>
        </extensions>
      </trkpt>
      <trkpt lat="45.31974202953279018402099609375" lon="-71.008173488080501556396484375">
        <ele>755.5999755859375</ele>
        <time>2026-08-21T21:00:31.000Z</time>
        <extensions>
          <ns3:TrackPointExtension>
            <ns3:hr>139</ns3:hr>
            <ns3:cad>49</ns3:cad>
          </ns3:TrackPointExtension>
        </extensions>
      </trkpt>
      <trkpt lat="45.31973079778254032135009765625" lon="-71.0081716440618038177490234375">
        <ele>755.79998779296875</ele>
        <time>2026-08-21T21:00:32.000Z</time>
        <extensions>
          <ns3:TrackPointExtension>
            <ns3:hr>138</ns3:hr>
            <ns3:cad>49</ns3:cad>
          </ns3:TrackPointExtension>
        </extensions>
      </trkpt>
      <trkpt lat="45.319725684821605682373046875" lon="-71.0081656090915203094482421875">
        <ele>756</ele>
        <time>2026-08-21T21:00:33.000Z</time>
        <extensions>
          <ns3:TrackPointExtension>
            <ns3:hr>138</ns3:hr>
            <ns3:cad>43</ns3:cad>
          </ns3:TrackPointExtension>
        </extensions>
      </trkpt>
      <trkpt lat="45.31970632262527942657470703125" lon="-71.00815613754093647003173828125">
        <ele>756</ele>
        <time>2026-08-21T21:00:34.000Z</time>
        <extensions>
          <ns3:TrackPointExtension>
            <ns3:hr>138</ns3:hr>
            <ns3:cad>43</ns3:cad>
          </ns3:TrackPointExtension>
        </extensions>
      </trkpt>
      <trkpt lat="45.31969509087502956390380859375" lon="-71.0081537067890167236328125">
        <ele>756.20001220703125</ele>
        <time>2026-08-21T21:00:35.000Z</time>
        <extensions>
          <ns3:TrackPointExtension>
            <ns3:hr>138</ns3:hr>
            <ns3:cad>43</ns3:cad>
          </ns3:TrackPointExtension>
        </extensions>
      </trkpt>
      <trkpt lat="45.31968503259122371673583984375" lon="-71.00814767181873321533203125">
        <ele>756.20001220703125</ele>
        <time>2026-08-21T21:00:36.000Z</time>
        <extensions>
          <ns3:TrackPointExtension>
            <ns3:hr>138</ns3:hr>
            <ns3:cad>42</ns3:cad>
          </ns3:TrackPointExtension>
        </extensions>
      </trkpt>
      <trkpt lat="45.3196708671748638153076171875" lon="-71.0081451572477817535400390625">
        <ele>756.4000244140625</ele>
        <time>2026-08-21T21:00:37.000Z</time>
        <extensions>
          <ns3:TrackPointExtension>
            <ns3:hr>138</ns3:hr>
            <ns3:cad>42</ns3:cad>
          </ns3:TrackPointExtension>
        </extensions>
      </trkpt>
      <trkpt lat="45.319654941558837890625" lon="-71.00815236568450927734375">
        <ele>756.4000244140625</ele>
        <time>2026-08-21T21:00:38.000Z</time>
        <extensions>
          <ns3:TrackPointExtension>
            <ns3:hr>139</ns3:hr>
            <ns3:cad>42</ns3:cad>
          </ns3:TrackPointExtension>
        </extensions>
      </trkpt>
      <trkpt lat="45.31964714638888835906982421875" lon="-71.00815379060804843902587890625">
        <ele>756.4000244140625</ele>
        <time>2026-08-21T21:00:39.000Z</time>
        <extensions>
          <ns3:TrackPointExtension>
            <ns3:hr>140</ns3:hr>
            <ns3:cad>42</ns3:cad>
          </ns3:TrackPointExtension>
        </extensions>
      </trkpt>
      <trkpt lat="45.3196348249912261962890625" lon="-71.008159406483173370361328125">
        <ele>756.5999755859375</ele>
        <time>2026-08-21T21:00:40.000Z</time>
        <extensions>
          <ns3:TrackPointExtension>
            <ns3:hr>140</ns3:hr>
            <ns3:cad>42</ns3:cad>
          </ns3:TrackPointExtension>
        </extensions>
      </trkpt>
      <trkpt lat="45.319623090326786041259765625" lon="-71.00816602818667888641357421875">
        <ele>756.5999755859375</ele>
        <time>2026-08-21T21:00:41.000Z</time>
        <extensions>
          <ns3:TrackPointExtension>
            <ns3:hr>140</ns3:hr>
            <ns3:cad>42</ns3:cad>
          </ns3:TrackPointExtension>
        </extensions>
      </trkpt>
      <trkpt lat="45.31961495988070964813232421875" lon="-71.00817306898534297943115234375">
        <ele>756.5999755859375</ele>
        <time>2026-08-21T21:00:42.000Z</time>
        <extensions>
          <ns3:TrackPointExtension>
            <ns3:hr>140</ns3:hr>
            <ns3:cad>42</ns3:cad>
          </ns3:TrackPointExtension>
        </extensions>
      </trkpt>
      <trkpt lat="45.319603644311428070068359375" lon="-71.00817943923175334930419921875">
        <ele>756.5999755859375</ele>
        <time>2026-08-21T21:00:43.000Z</time>
        <extensions>
          <ns3:TrackPointExtension>
            <ns3:hr>140</ns3:hr>
            <ns3:cad>48</ns3:cad>
          </ns3:TrackPointExtension>
        </extensions>
      </trkpt>
      <trkpt lat="45.31958998180925846099853515625" lon="-71.0081991367042064666748046875">
        <ele>756.5999755859375</ele>
        <time>2026-08-21T21:00:44.000Z</time>
        <extensions>
          <ns3:TrackPointExtension>
            <ns3:hr>140</ns3:hr>
            <ns3:cad>48</ns3:cad>
          </ns3:TrackPointExtension>
        </extensions>
      </trkpt>
      <trkpt lat="45.3195823542773723602294921875" lon="-71.0082115419209003448486328125">
        <ele>756.5999755859375</ele>
        <time>2026-08-21T21:00:45.000Z</time>
        <extensions>
          <ns3:TrackPointExtension>
            <ns3:hr>140</ns3:hr>
            <ns3:cad>48</ns3:cad>
          </ns3:TrackPointExtension>
        </extensions>
      </trkpt>
      <trkpt lat="45.31956978142261505126953125" lon="-71.0082272998988628387451171875">
        <ele>756.5999755859375</ele>
        <time>2026-08-21T21:00:46.000Z</time>
        <extensions>
          <ns3:TrackPointExtension>
            <ns3:hr>140</ns3:hr>
            <ns3:cad>52</ns3:cad>
          </ns3:TrackPointExtension>
        </extensions>
      </trkpt>
      <trkpt lat="45.31955628655850887298583984375" lon="-71.008240543305873870849609375">
        <ele>756.5999755859375</ele>
        <time>2026-08-21T21:00:47.000Z</time>
        <extensions>
          <ns3:TrackPointExtension>
            <ns3:hr>139</ns3:hr>
            <ns3:cad>52</ns3:cad>
          </ns3:TrackPointExtension>
        </extensions>
      </trkpt>
      <trkpt lat="45.31954891048371791839599609375" lon="-71.008251942694187164306640625">
        <ele>756.5999755859375</ele>
        <time>2026-08-21T21:00:48.000Z</time>
        <extensions>
          <ns3:TrackPointExtension>
            <ns3:hr>139</ns3:hr>
            <ns3:cad>52</ns3:cad>
          </ns3:TrackPointExtension>
        </extensions>
      </trkpt>
      <trkpt lat="45.31954228878021240234375" lon="-71.00826426409184932708740234375">
        <ele>756.5999755859375</ele>
        <time>2026-08-21T21:00:49.000Z</time>
        <extensions>
          <ns3:TrackPointExtension>
            <ns3:hr>138</ns3:hr>
            <ns3:cad>52</ns3:cad>
          </ns3:TrackPointExtension>
        </extensions>
      </trkpt>
      <trkpt lat="45.31953751109540462493896484375" lon="-71.008278094232082366943359375">
        <ele>756.79998779296875</ele>
        <time>2026-08-21T21:00:50.000Z</time>
        <extensions>
          <ns3:TrackPointExtension>
            <ns3:hr>138</ns3:hr>
            <ns3:cad>52</ns3:cad>
          </ns3:TrackPointExtension>
        </extensions>
      </trkpt>
      <trkpt lat="45.31953063793480396270751953125" lon="-71.00828907452523708343505859375">
        <ele>756.79998779296875</ele>
        <time>2026-08-21T21:00:51.000Z</time>
        <extensions>
          <ns3:TrackPointExtension>
            <ns3:hr>137</ns3:hr>
            <ns3:cad>52</ns3:cad>
          </ns3:TrackPointExtension>
        </extensions>
      </trkpt>
      <trkpt lat="45.31952426768839359283447265625" lon="-71.0082973726093769073486328125">
        <ele>757</ele>
        <time>2026-08-21T21:00:52.000Z</time>
        <extensions>
          <ns3:TrackPointExtension>
            <ns3:hr>137</ns3:hr>
            <ns3:cad>52</ns3:cad>
          </ns3:TrackPointExtension>
        </extensions>
      </trkpt>
      <trkpt lat="45.3195196576416492462158203125" lon="-71.0083104483783245086669921875">
        <ele>757.20001220703125</ele>
        <time>2026-08-21T21:00:53.000Z</time>
        <extensions>
          <ns3:TrackPointExtension>
            <ns3:hr>137</ns3:hr>
            <ns3:cad>52</ns3:cad>
          </ns3:TrackPointExtension>
        </extensions>
      </trkpt>
      <trkpt lat="45.31951404176652431488037109375" lon="-71.0083131305873394012451171875">
        <ele>757.4000244140625</ele>
        <time>2026-08-21T21:00:54.000Z</time>
        <extensions>
          <ns3:TrackPointExtension>
            <ns3:hr>137</ns3:hr>
            <ns3:cad>52</ns3:cad>
          </ns3:TrackPointExtension>
        </extensions>
      </trkpt>
      <trkpt lat="45.31951387412846088409423828125" lon="-71.00832025520503520965576171875">
        <ele>757.5999755859375</ele>
        <time>2026-08-21T21:00:55.000Z</time>
        <extensions>
          <ns3:TrackPointExtension>
            <ns3:hr>137</ns3:hr>
            <ns3:cad>51</ns3:cad>
          </ns3:TrackPointExtension>
        </extensions>
      </trkpt>
      <trkpt lat="45.3195072524249553680419921875" lon="-71.008331738412380218505859375">
        <ele>757.79998779296875</ele>
        <time>2026-08-21T21:00:56.000Z</time>
        <extensions>
          <ns3:TrackPointExtension>
            <ns3:hr>137</ns3:hr>
            <ns3:cad>47</ns3:cad>
          </ns3:TrackPointExtension>
        </extensions>
      </trkpt>
      <trkpt lat="45.31950180418789386749267578125" lon="-71.00833500735461711883544921875">
        <ele>758</ele>
        <time>2026-08-21T21:00:57.000Z</time>
        <extensions>
          <ns3:TrackPointExtension>
            <ns3:hr>137</ns3:hr>
            <ns3:cad>47</ns3:cad>
          </ns3:TrackPointExtension>
        </extensions>
      </trkpt>
      <trkpt lat="45.31950264237821102142333984375" lon="-71.00832679308950901031494140625">
        <ele>758</ele>
        <time>2026-08-21T21:00:58.000Z</time>
        <extensions>
          <ns3:TrackPointExtension>
            <ns3:hr>136</ns3:hr>
            <ns3:cad>46</ns3:cad>
          </ns3:TrackPointExtension>
        </extensions>
      </trkpt>
      <trkpt lat="45.31950113363564014434814453125" lon="-71.00831505842506885528564453125">
        <ele>758.20001220703125</ele>
        <time>2026-08-21T21:00:59.000Z</time>
        <extensions>
          <ns3:TrackPointExtension>
            <ns3:hr>136</ns3:hr>
            <ns3:cad>46</ns3:cad>
          </ns3:TrackPointExtension>
        </extensions>
      </trkpt>
      <trkpt lat="45.31949828378856182098388671875" lon="-71.008300893008708953857421875">
        <ele>758.20001220703125</ele>
        <time>2026-08-21T21:01:00.000Z</time>
        <extensions>
          <ns3:TrackPointExtension>
            <ns3:hr>136</ns3:hr>
            <ns3:cad>46</ns3:cad>
          </ns3:TrackPointExtension>
        </extensions>
      </trkpt>
      <trkpt lat="45.31949057243764400482177734375" lon="-71.0082896612584590911865234375">
        <ele>758.4000244140625</ele>
        <time>2026-08-21T21:01:01.000Z</time>
        <extensions>
          <ns3:TrackPointExtension>
            <ns3:hr>136</ns3:hr>
            <ns3:cad>46</ns3:cad>
          </ns3:TrackPointExtension>
        </extensions>
      </trkpt>
      <trkpt lat="45.31947900541126728057861328125" lon="-71.00828438065946102142333984375">
        <ele>758.4000244140625</ele>
        <time>2026-08-21T21:01:02.000Z</time>
        <extensions>
          <ns3:TrackPointExtension>
            <ns3:hr>136</ns3:hr>
            <ns3:cad>44</ns3:cad>
          </ns3:TrackPointExtension>
        </extensions>
      </trkpt>
      <trkpt lat="45.31947213225066661834716796875" lon="-71.0082896612584590911865234375">
        <ele>758.5999755859375</ele>
        <time>2026-08-21T21:01:03.000Z</time>
        <extensions>
          <ns3:TrackPointExtension>
            <ns3:hr>137</ns3:hr>
            <ns3:cad>44</ns3:cad>
          </ns3:TrackPointExtension>
        </extensions>
      </trkpt>
      <trkpt lat="45.31946844421327114105224609375" lon="-71.00829309783875942230224609375">
        <ele>758.79998779296875</ele>
        <time>2026-08-21T21:01:04.000Z</time>
        <extensions>
          <ns3:TrackPointExtension>
            <ns3:hr>136</ns3:hr>
            <ns3:cad>44</ns3:cad>
          </ns3:TrackPointExtension>
        </extensions>
      </trkpt>
      <trkpt lat="45.319461487233638763427734375" lon="-71.00830365903675556182861328125">
        <ele>759</ele>
        <time>2026-08-21T21:01:05.000Z</time>
        <extensions>
          <ns3:TrackPointExtension>
            <ns3:hr>136</ns3:hr>
            <ns3:cad>0</ns3:cad>
          </ns3:TrackPointExtension>
        </extensions>
      </trkpt>
      <trkpt lat="45.31945033930242061614990234375" lon="-71.0083186626434326171875">
        <ele>759.20001220703125</ele>
        <time>2026-08-21T21:01:06.000Z</time>
        <extensions>
          <ns3:TrackPointExtension>
            <ns3:hr>136</ns3:hr>
            <ns3:cad>0</ns3:cad>
          </ns3:TrackPointExtension>
        </extensions>
      </trkpt>
      <trkpt lat="45.31944363377988338470458984375" lon="-71.00831807591021060943603515625">
        <ele>759.4000244140625</ele>
        <time>2026-08-21T21:01:07.000Z</time>
        <extensions>
          <ns3:TrackPointExtension>
            <ns3:hr>136</ns3:hr>
            <ns3:cad>0</ns3:cad>
          </ns3:TrackPointExtension>
        </extensions>
      </trkpt>
      <trkpt lat="45.31943567097187042236328125" lon="-71.00832025520503520965576171875">
        <ele>759.4000244140625</ele>
        <time>2026-08-21T21:01:08.000Z</time>
        <extensions>
          <ns3:TrackPointExtension>
            <ns3:hr>137</ns3:hr>
            <ns3:cad>0</ns3:cad>
          </ns3:TrackPointExtension>
        </extensions>
      </trkpt>
      <trkpt lat="45.3194291330873966217041015625" lon="-71.00832360796630382537841796875">
        <ele>759.4000244140625</ele>
        <time>2026-08-21T21:01:09.000Z</time>
        <extensions>
          <ns3:TrackPointExtension>
            <ns3:hr>136</ns3:hr>
            <ns3:cad>0</ns3:cad>
          </ns3:TrackPointExtension>
        </extensions>
      </trkpt>
      <trkpt lat="45.31941614113748073577880859375" lon="-71.0083332471549510955810546875">
        <ele>759.4000244140625</ele>
        <time>2026-08-21T21:01:10.000Z</time>
        <extensions>
          <ns3:TrackPointExtension>
            <ns3:hr>136</ns3:hr>
            <ns3:cad>47</ns3:cad>
          </ns3:TrackPointExtension>
        </extensions>
      </trkpt>
      <trkpt lat="45.3194041550159454345703125" lon="-71.00833819247782230377197265625">
        <ele>759.4000244140625</ele>
        <time>2026-08-21T21:01:11.000Z</time>
        <extensions>
          <ns3:TrackPointExtension>
            <ns3:hr>136</ns3:hr>
            <ns3:cad>47</ns3:cad>
          </ns3:TrackPointExtension>
        </extensions>
      </trkpt>
      <trkpt lat="45.3193939290940761566162109375" lon="-71.00834808312356472015380859375">
        <ele>759.20001220703125</ele>
        <time>2026-08-21T21:01:12.000Z</time>
        <extensions>
          <ns3:TrackPointExtension>
            <ns3:hr>136</ns3:hr>
            <ns3:cad>50</ns3:cad>
          </ns3:TrackPointExtension>
        </extensions>
      </trkpt>
      <trkpt lat="45.31938261352479457855224609375" lon="-71.00835965014994144439697265625">
        <ele>759.20001220703125</ele>
        <time>2026-08-21T21:01:13.000Z</time>
        <extensions>
          <ns3:TrackPointExtension>
            <ns3:hr>136</ns3:hr>
            <ns3:cad>50</ns3:cad>
          </ns3:TrackPointExtension>
        </extensions>
      </trkpt>
      <trkpt lat="45.31937138177454471588134765625" lon="-71.0083697922527790069580078125">
        <ele>759</ele>
        <time>2026-08-21T21:01:14.000Z</time>
        <extensions>
          <ns3:TrackPointExtension>
            <ns3:hr>136</ns3:hr>
            <ns3:cad>50</ns3:cad>
          </ns3:TrackPointExtension>
        </extensions>
      </trkpt>
      <trkpt lat="45.3193536959588527679443359375" lon="-71.0083818621933460235595703125">
        <ele>758.79998779296875</ele>
        <time>2026-08-21T21:01:15.000Z</time>
        <extensions>
          <ns3:TrackPointExtension>
            <ns3:hr>136</ns3:hr>
            <ns3:cad>60</ns3:cad>
          </ns3:TrackPointExtension>
        </extensions>
      </trkpt>
      <trkpt lat="45.31934447586536407470703125" lon="-71.00839443504810333251953125">
        <ele>758.5999755859375</ele>
        <time>2026-08-21T21:01:16.000Z</time>
        <extensions>
          <ns3:TrackPointExtension>
            <ns3:hr>136</ns3:hr>
            <ns3:cad>60</ns3:cad>
          </ns3:TrackPointExtension>
        </extensions>
      </trkpt>
      <trkpt lat="45.31933240592479705810546875" lon="-71.00840658880770206451416015625">
        <ele>758.5999755859375</ele>
        <time>2026-08-21T21:01:17.000Z</time>
        <extensions>
          <ns3:TrackPointExtension>
            <ns3:hr>136</ns3:hr>
            <ns3:cad>60</ns3:cad>
          </ns3:TrackPointExtension>
        </extensions>
      </trkpt>
      <trkpt lat="45.31932326965034008026123046875" lon="-71.0084177367389202117919921875">
        <ele>758.4000244140625</ele>
        <time>2026-08-21T21:01:18.000Z</time>
        <extensions>
          <ns3:TrackPointExtension>
            <ns3:hr>136</ns3:hr>
            <ns3:cad>60</ns3:cad>
          </ns3:TrackPointExtension>
        </extensions>
      </trkpt>
      <trkpt lat="45.31930801458656787872314453125" lon="-71.00842771120369434356689453125">
        <ele>758.20001220703125</ele>
        <time>2026-08-21T21:01:19.000Z</time>
        <extensions>
          <ns3:TrackPointExtension>
            <ns3:hr>136</ns3:hr>
            <ns3:cad>60</ns3:cad>
          </ns3:TrackPointExtension>
        </extensions>
      </trkpt>
      <trkpt lat="45.31929594464600086212158203125" lon="-71.00843659602105617523193359375">
        <ele>758</ele>
        <time>2026-08-21T21:01:20.000Z</time>
        <extensions>
          <ns3:TrackPointExtension>
            <ns3:hr>135</ns3:hr>
            <ns3:cad>60</ns3:cad>
          </ns3:TrackPointExtension>
        </extensions>
      </trkpt>
      <trkpt lat="45.31928990967571735382080078125" lon="-71.00844766013324260711669921875">
        <ele>758</ele>
        <time>2026-08-21T21:01:21.000Z</time>
        <extensions>
          <ns3:TrackPointExtension>
            <ns3:hr>135</ns3:hr>
            <ns3:cad>60</ns3:cad>
          </ns3:TrackPointExtension>
        </extensions>
      </trkpt>
      <trkpt lat="45.3192863054573535919189453125" lon="-71.00845738314092159271240234375">
        <ele>758.20001220703125</ele>
        <time>2026-08-21T21:01:22.000Z</time>
        <extensions>
          <ns3:TrackPointExtension>
            <ns3:hr>135</ns3:hr>
            <ns3:cad>60</ns3:cad>
          </ns3:TrackPointExtension>
        </extensions>
      </trkpt>
      <trkpt lat="45.3192785941064357757568359375" lon="-71.00846945308148860931396484375">
        <ele>758.20001220703125</ele>
        <time>2026-08-21T21:01:23.000Z</time>
        <extensions>
          <ns3:TrackPointExtension>
            <ns3:hr>134</ns3:hr>
            <ns3:cad>60</ns3:cad>
          </ns3:TrackPointExtension>
        </extensions>
      </trkpt>
      <trkpt lat="45.319273732602596282958984375" lon="-71.00847381167113780975341796875">
        <ele>758.5999755859375</ele>
        <time>2026-08-21T21:01:24.000Z</time>
        <extensions>
          <ns3:TrackPointExtension>
            <ns3:hr>134</ns3:hr>
            <ns3:cad>60</ns3:cad>
          </ns3:TrackPointExtension>
        </extensions>
      </trkpt>
      <trkpt lat="45.31926560215651988983154296875" lon="-71.00848102010786533355712890625">
        <ele>758.79998779296875</ele>
        <time>2026-08-21T21:01:25.000Z</time>
        <extensions>
          <ns3:TrackPointExtension>
            <ns3:hr>133</ns3:hr>
            <ns3:cad>60</ns3:cad>
          </ns3:TrackPointExtension>
        </extensions>
      </trkpt>
      <trkpt lat="45.319258309900760650634765625" lon="-71.00849258713424205780029296875">
        <ele>759</ele>
        <time>2026-08-21T21:01:26.000Z</time>
        <extensions>
          <ns3:TrackPointExtension>
            <ns3:hr>133</ns3:hr>
            <ns3:cad>60</ns3:cad>
          </ns3:TrackPointExtension>
        </extensions>
      </trkpt>
      <trkpt lat="45.319247581064701080322265625" lon="-71.0085050761699676513671875">
        <ele>759.20001220703125</ele>
        <time>2026-08-21T21:01:27.000Z</time>
        <extensions>
          <ns3:TrackPointExtension>
            <ns3:hr>132</ns3:hr>
            <ns3:cad>0</ns3:cad>
          </ns3:TrackPointExtension>
        </extensions>
      </trkpt>
      <trkpt lat="45.31923743896186351776123046875" lon="-71.008514463901519775390625">
        <ele>759.4000244140625</ele>
        <time>2026-08-21T21:01:28.000Z</time>
        <extensions>
          <ns3:TrackPointExtension>
            <ns3:hr>131</ns3:hr>
            <ns3:cad>0</ns3:cad>
          </ns3:TrackPointExtension>
        </extensions>
      </trkpt>
      <trkpt lat="45.31922704540193080902099609375" lon="-71.00854220800101757049560546875">
        <ele>759.5999755859375</ele>
        <time>2026-08-21T21:01:29.000Z</time>
        <extensions>
          <ns3:TrackPointExtension>
            <ns3:hr>130</ns3:hr>
            <ns3:cad>0</ns3:cad>
          </ns3:TrackPointExtension>
        </extensions>
      </trkpt>
      <trkpt lat="45.31921564601361751556396484375" lon="-71.00856416858732700347900390625">
        <ele>759.5999755859375</ele>
        <time>2026-08-21T21:01:30.000Z</time>
        <extensions>
          <ns3:TrackPointExtension>
            <ns3:hr>129</ns3:hr>
            <ns3:cad>0</ns3:cad>
          </ns3:TrackPointExtension>
        </extensions>
      </trkpt>
      <trkpt lat="45.3192108683288097381591796875" lon="-71.00857791490852832794189453125">
        <ele>759.5999755859375</ele>
        <time>2026-08-21T21:01:31.000Z</time>
        <extensions>
          <ns3:TrackPointExtension>
            <ns3:hr>129</ns3:hr>
            <ns3:cad>0</ns3:cad>
          </ns3:TrackPointExtension>
        </extensions>
      </trkpt>
      <trkpt lat="45.3192021511495113372802734375" lon="-71.00859669037163257598876953125">
        <ele>759.4000244140625</ele>
        <time>2026-08-21T21:01:32.000Z</time>
        <extensions>
          <ns3:TrackPointExtension>
            <ns3:hr>128</ns3:hr>
            <ns3:cad>0</ns3:cad>
          </ns3:TrackPointExtension>
        </extensions>
      </trkpt>
      <trkpt lat="45.319194607436656951904296875" lon="-71.008611358702182769775390625">
        <ele>759.4000244140625</ele>
        <time>2026-08-21T21:01:33.000Z</time>
        <extensions>
          <ns3:TrackPointExtension>
            <ns3:hr>128</ns3:hr>
            <ns3:cad>0</ns3:cad>
          </ns3:TrackPointExtension>
        </extensions>
      </trkpt>
      <trkpt lat="45.319186560809612274169921875" lon="-71.00861680693924427032470703125">
        <ele>759.4000244140625</ele>
        <time>2026-08-21T21:01:34.000Z</time>
        <extensions>
          <ns3:TrackPointExtension>
            <ns3:hr>129</ns3:hr>
            <ns3:cad>0</ns3:cad>
          </ns3:TrackPointExtension>
        </extensions>
      </trkpt>
      <trkpt lat="45.31917658634483814239501953125" lon="-71.00862854160368442535400390625">
        <ele>759.5999755859375</ele>
        <time>2026-08-21T21:01:35.000Z</time>
        <extensions>
          <ns3:TrackPointExtension>
            <ns3:hr>130</ns3:hr>
            <ns3:cad>0</ns3:cad>
          </ns3:TrackPointExtension>
        </extensions>
      </trkpt>
      <trkpt lat="45.31916988082230091094970703125" lon="-71.00863558240234851837158203125">
        <ele>759.4000244140625</ele>
        <time>2026-08-21T21:01:36.000Z</time>
        <extensions>
          <ns3:TrackPointExtension>
            <ns3:hr>130</ns3:hr>
            <ns3:cad>50</ns3:cad>
          </ns3:TrackPointExtension>
        </extensions>
      </trkpt>
      <trkpt lat="45.31915982253849506378173828125" lon="-71.00864664651453495025634765625">
        <ele>759.4000244140625</ele>
        <time>2026-08-21T21:01:37.000Z</time>
        <extensions>
          <ns3:TrackPointExtension>
            <ns3:hr>130</ns3:hr>
            <ns3:cad>50</ns3:cad>
          </ns3:TrackPointExtension>
        </extensions>
      </trkpt>
      <trkpt lat="45.31915445812046527862548828125" lon="-71.00865720771253108978271484375">
        <ele>759.4000244140625</ele>
        <time>2026-08-21T21:01:38.000Z</time>
        <extensions>
          <ns3:TrackPointExtension>
            <ns3:hr>130</ns3:hr>
            <ns3:cad>50</ns3:cad>
          </ns3:TrackPointExtension>
        </extensions>
      </trkpt>
      <trkpt lat="45.3191520273685455322265625" lon="-71.00866399705410003662109375">
        <ele>759.4000244140625</ele>
        <time>2026-08-21T21:01:39.000Z</time>
        <extensions>
          <ns3:TrackPointExtension>
            <ns3:hr>129</ns3:hr>
            <ns3:cad>47</ns3:cad>
          </ns3:TrackPointExtension>
        </extensions>
      </trkpt>
      <trkpt lat="45.31915227882564067840576171875" lon="-71.0086606442928314208984375">
        <ele>759.20001220703125</ele>
        <time>2026-08-21T21:01:40.000Z</time>
        <extensions>
          <ns3:TrackPointExtension>
            <ns3:hr>128</ns3:hr>
            <ns3:cad>47</ns3:cad>
          </ns3:TrackPointExtension>
        </extensions>
      </trkpt>
      <trkpt lat="45.3191508539021015167236328125" lon="-71.0086619853973388671875">
        <ele>759.20001220703125</ele>
        <time>2026-08-21T21:01:41.000Z</time>
        <extensions>
          <ns3:TrackPointExtension>
            <ns3:hr>128</ns3:hr>
            <ns3:cad>0</ns3:cad>
          </ns3:TrackPointExtension>
        </extensions>
      </trkpt>
      <trkpt lat="45.3191498480737209320068359375" lon="-71.0086638294160366058349609375">
        <ele>759.20001220703125</ele>
        <time>2026-08-21T21:01:42.000Z</time>
        <extensions>
          <ns3:TrackPointExtension>
            <ns3:hr>128</ns3:hr>
            <ns3:cad>0</ns3:cad>
          </ns3:TrackPointExtension>
        </extensions>
      </trkpt>
      <trkpt lat="45.3191488422453403472900390625" lon="-71.0086634941399097442626953125">
        <ele>759.20001220703125</ele>
        <time>2026-08-21T21:01:43.000Z</time>
        <extensions>
          <ns3:TrackPointExtension>
            <ns3:hr>128</ns3:hr>
            <ns3:cad>0</ns3:cad>
          </ns3:TrackPointExtension>
        </extensions>
      </trkpt>
      <trkpt lat="45.3191488422453403472900390625" lon="-71.0086634941399097442626953125">
        <ele>759.20001220703125</ele>
        <time>2026-08-21T21:01:44.000Z</time>
        <extensions>
          <ns3:TrackPointExtension>
            <ns3:hr>127</ns3:hr>
            <ns3:cad>0</ns3:cad>
          </ns3:TrackPointExtension>
        </extensions>
      </trkpt>
      <trkpt lat="45.3191488422453403472900390625" lon="-71.0086634941399097442626953125">
        <ele>759.20001220703125</ele>
        <time>2026-08-21T21:01:45.000Z</time>
        <extensions>
          <ns3:TrackPointExtension>
            <ns3:hr>127</ns3:hr>
            <ns3:cad>0</ns3:cad>
          </ns3:TrackPointExtension>
        </extensions>
      </trkpt>
      <trkpt lat="45.3191488422453403472900390625" lon="-71.0086634941399097442626953125">
        <ele>759.20001220703125</ele>
        <time>2026-08-21T21:01:46.000Z</time>
        <extensions>
          <ns3:TrackPointExtension>
            <ns3:hr>127</ns3:hr>
            <ns3:cad>0</ns3:cad>
          </ns3:TrackPointExtension>
        </extensions>
      </trkpt>
      <trkpt lat="45.3191488422453403472900390625" lon="-71.0086634941399097442626953125">
        <ele>759.20001220703125</ele>
        <time>2026-08-21T21:01:47.000Z</time>
        <extensions>
          <ns3:TrackPointExtension>
            <ns3:hr>127</ns3:hr>
            <ns3:cad>0</ns3:cad>
          </ns3:TrackPointExtension>
        </extensions>
      </trkpt>
      <trkpt lat="45.3191488422453403472900390625" lon="-71.0086634941399097442626953125">
        <ele>759</ele>
        <time>2026-08-21T21:01:48.000Z</time>
        <extensions>
          <ns3:TrackPointExtension>
            <ns3:hr>127</ns3:hr>
            <ns3:cad>0</ns3:cad>
          </ns3:TrackPointExtension>
        </extensions>
      </trkpt>
      <trkpt lat="45.3191488422453403472900390625" lon="-71.0086634941399097442626953125">
        <ele>759</ele>
        <time>2026-08-21T21:01:49.000Z</time>
        <extensions>
          <ns3:TrackPointExtension>
            <ns3:hr>128</ns3:hr>
            <ns3:cad>0</ns3:cad>
          </ns3:TrackPointExtension>
        </extensions>
      </trkpt>
      <trkpt lat="45.31914993189275264739990234375" lon="-71.00866542197763919830322265625">
        <ele>759</ele>
        <time>2026-08-21T21:01:50.000Z</time>
        <extensions>
          <ns3:TrackPointExtension>
            <ns3:hr>127</ns3:hr>
            <ns3:cad>0</ns3:cad>
          </ns3:TrackPointExtension>
        </extensions>
      </trkpt>
      <trkpt lat="45.31914792023599147796630859375" lon="-71.0086738876998424530029296875">
        <ele>759</ele>
        <time>2026-08-21T21:01:51.000Z</time>
        <extensions>
          <ns3:TrackPointExtension>
            <ns3:hr>127</ns3:hr>
            <ns3:cad>0</ns3:cad>
          </ns3:TrackPointExtension>
        </extensions>
      </trkpt>
      <trkpt lat="45.31914356164634227752685546875" lon="-71.00868402980268001556396484375">
        <ele>759</ele>
        <time>2026-08-21T21:01:52.000Z</time>
        <extensions>
          <ns3:TrackPointExtension>
            <ns3:hr>127</ns3:hr>
            <ns3:cad>0</ns3:cad>
          </ns3:TrackPointExtension>
        </extensions>
      </trkpt>
      <trkpt lat="45.319138951599597930908203125" lon="-71.0086909867823123931884765625">
        <ele>758.79998779296875</ele>
        <time>2026-08-21T21:01:53.000Z</time>
        <extensions>
          <ns3:TrackPointExtension>
            <ns3:hr>127</ns3:hr>
            <ns3:cad>0</ns3:cad>
          </ns3:TrackPointExtension>
        </extensions>
      </trkpt>
      <trkpt lat="45.31912981532514095306396484375" lon="-71.0087067447602748870849609375">
        <ele>758.4000244140625</ele>
        <time>2026-08-21T21:01:54.000Z</time>
        <extensions>
          <ns3:TrackPointExtension>
            <ns3:hr>128</ns3:hr>
            <ns3:cad>0</ns3:cad>
          </ns3:TrackPointExtension>
        </extensions>
      </trkpt>
      <trkpt lat="45.31912185251712799072265625" lon="-71.0087204910814762115478515625">
        <ele>758.20001220703125</ele>
        <time>2026-08-21T21:01:55.000Z</time>
        <extensions>
          <ns3:TrackPointExtension>
            <ns3:hr>128</ns3:hr>
            <ns3:cad>0</ns3:cad>
          </ns3:TrackPointExtension>
        </extensions>
      </trkpt>
      <trkpt lat="45.3191190026700496673583984375" lon="-71.00873482413589954376220703125">
        <ele>757.5999755859375</ele>
        <time>2026-08-21T21:01:56.000Z</time>
        <extensions>
          <ns3:TrackPointExtension>
            <ns3:hr>128</ns3:hr>
            <ns3:cad>0</ns3:cad>
          </ns3:TrackPointExtension>
        </extensions>
      </trkpt>
      <trkpt lat="45.3191183321177959442138671875" lon="-71.00874982774257659912109375">
        <ele>757.20001220703125</ele>
        <time>2026-08-21T21:01:57.000Z</time>
        <extensions>
          <ns3:TrackPointExtension>
            <ns3:hr>128</ns3:hr>
            <ns3:cad>0</ns3:cad>
          </ns3:TrackPointExtension>
        </extensions>
      </trkpt>
      <trkpt lat="45.3191176615655422210693359375" lon="-71.00876332260668277740478515625">
        <ele>756.5999755859375</ele>
        <time>2026-08-21T21:01:58.000Z</time>
        <extensions>
          <ns3:TrackPointExtension>
            <ns3:hr>128</ns3:hr>
            <ns3:cad>0</ns3:cad>
          </ns3:TrackPointExtension>
        </extensions>
      </trkpt>
      <trkpt lat="45.31911875121295452117919921875" lon="-71.008778996765613555908203125">
        <ele>756.20001220703125</ele>
        <time>2026-08-21T21:01:59.000Z</time>
        <extensions>
          <ns3:TrackPointExtension>
            <ns3:hr>129</ns3:hr>
            <ns3:cad>0</ns3:cad>
          </ns3:TrackPointExtension>
        </extensions>
      </trkpt>
      <trkpt lat="45.31911489553749561309814453125" lon="-71.00879852660000324249267578125">
        <ele>755.79998779296875</ele>
        <time>2026-08-21T21:02:00.000Z</time>
        <extensions>
          <ns3:TrackPointExtension>
            <ns3:hr>128</ns3:hr>
            <ns3:cad>0</ns3:cad>
          </ns3:TrackPointExtension>
        </extensions>
      </trkpt>
      <trkpt lat="45.31910978257656097412109375" lon="-71.00881378166377544403076171875">
        <ele>755.5999755859375</ele>
        <time>2026-08-21T21:02:01.000Z</time>
        <extensions>
          <ns3:TrackPointExtension>
            <ns3:hr>128</ns3:hr>
            <ns3:cad>0</ns3:cad>
          </ns3:TrackPointExtension>
        </extensions>
      </trkpt>
      <trkpt lat="45.31910181976854801177978515625" lon="-71.00883297622203826904296875">
        <ele>755.4000244140625</ele>
        <time>2026-08-21T21:02:02.000Z</time>
        <extensions>
          <ns3:TrackPointExtension>
            <ns3:hr>129</ns3:hr>
            <ns3:cad>0</ns3:cad>
          </ns3:TrackPointExtension>
        </extensions>
      </trkpt>
      <trkpt lat="45.3190881572663784027099609375" lon="-71.00884512998163700103759765625">
        <ele>755</ele>
        <time>2026-08-21T21:02:03.000Z</time>
        <extensions>
          <ns3:TrackPointExtension>
            <ns3:hr>129</ns3:hr>
            <ns3:cad>61</ns3:cad>
          </ns3:TrackPointExtension>
        </extensions>
      </trkpt>
      <trkpt lat="45.3190814517438411712646484375" lon="-71.0088613070547580718994140625">
        <ele>754.79998779296875</ele>
        <time>2026-08-21T21:02:04.000Z</time>
        <extensions>
          <ns3:TrackPointExtension>
            <ns3:hr>129</ns3:hr>
            <ns3:cad>61</ns3:cad>
          </ns3:TrackPointExtension>
        </extensions>
      </trkpt>
      <trkpt lat="45.31907382421195507049560546875" lon="-71.008876226842403411865234375">
        <ele>754.5999755859375</ele>
        <time>2026-08-21T21:02:05.000Z</time>
        <extensions>
          <ns3:TrackPointExtension>
            <ns3:hr>130</ns3:hr>
            <ns3:cad>0</ns3:cad>
          </ns3:TrackPointExtension>
        </extensions>
      </trkpt>
      <trkpt lat="45.31906845979392528533935546875" lon="-71.008902378380298614501953125">
        <ele>754.20001220703125</ele>
        <time>2026-08-21T21:02:06.000Z</time>
        <extensions>
          <ns3:TrackPointExtension>
            <ns3:hr>130</ns3:hr>
            <ns3:cad>0</ns3:cad>
          </ns3:TrackPointExtension>
        </extensions>
      </trkpt>
      <trkpt lat="45.31906284391880035400390625" lon="-71.0089196451008319854736328125">
        <ele>753.79998779296875</ele>
        <time>2026-08-21T21:02:07.000Z</time>
        <extensions>
          <ns3:TrackPointExtension>
            <ns3:hr>129</ns3:hr>
            <ns3:cad>0</ns3:cad>
          </ns3:TrackPointExtension>
        </extensions>
      </trkpt>
      <trkpt lat="45.3190579824149608612060546875" lon="-71.00893615745007991790771484375">
        <ele>753.4000244140625</ele>
        <time>2026-08-21T21:02:08.000Z</time>
        <extensions>
          <ns3:TrackPointExtension>
            <ns3:hr>129</ns3:hr>
            <ns3:cad>0</ns3:cad>
          </ns3:TrackPointExtension>
        </extensions>
      </trkpt>
      <trkpt lat="45.3190527856349945068359375" lon="-71.008949987590312957763671875">
        <ele>753</ele>
        <time>2026-08-21T21:02:09.000Z</time>
        <extensions>
          <ns3:TrackPointExtension>
            <ns3:hr>128</ns3:hr>
            <ns3:cad>0</ns3:cad>
          </ns3:TrackPointExtension>
        </extensions>
      </trkpt>
      <trkpt lat="45.31904633156955242156982421875" lon="-71.00896717049181461334228515625">
        <ele>752.79998779296875</ele>
        <time>2026-08-21T21:02:10.000Z</time>
        <extensions>
          <ns3:TrackPointExtension>
            <ns3:hr>125</ns3:hr>
            <ns3:cad>0</ns3:cad>
          </ns3:TrackPointExtension>
        </extensions>
      </trkpt>
      <trkpt lat="45.31904096715152263641357421875" lon="-71.00898728705942630767822265625">
        <ele>752.5999755859375</ele>
        <time>2026-08-21T21:02:11.000Z</time>
        <extensions>
          <ns3:TrackPointExtension>
            <ns3:hr>124</ns3:hr>
            <ns3:cad>0</ns3:cad>
          </ns3:TrackPointExtension>
        </extensions>
      </trkpt>
      <trkpt lat="45.31903644092381000518798828125" lon="-71.00900589488446712493896484375">
        <ele>752.4000244140625</ele>
        <time>2026-08-21T21:02:12.000Z</time>
        <extensions>
          <ns3:TrackPointExtension>
            <ns3:hr>123</ns3:hr>
            <ns3:cad>0</ns3:cad>
          </ns3:TrackPointExtension>
        </extensions>
      </trkpt>
      <trkpt lat="45.31902931630611419677734375" lon="-71.0090212337672710418701171875">
        <ele>752.20001220703125</ele>
        <time>2026-08-21T21:02:13.000Z</time>
        <extensions>
          <ns3:TrackPointExtension>
            <ns3:hr>121</ns3:hr>
            <ns3:cad>54</ns3:cad>
          </ns3:TrackPointExtension>
        </extensions>
      </trkpt>
      <trkpt lat="45.3190204314887523651123046875" lon="-71.00904042832553386688232421875">
        <ele>752.20001220703125</ele>
        <time>2026-08-21T21:02:14.000Z</time>
        <extensions>
          <ns3:TrackPointExtension>
            <ns3:hr>119</ns3:hr>
            <ns3:cad>54</ns3:cad>
          </ns3:TrackPointExtension>
        </extensions>
      </trkpt>
      <trkpt lat="45.3190137259662151336669921875" lon="-71.00905735976994037628173828125">
        <ele>752</ele>
        <time>2026-08-21T21:02:15.000Z</time>
        <extensions>
          <ns3:TrackPointExtension>
            <ns3:hr>118</ns3:hr>
            <ns3:cad>56</ns3:cad>
          </ns3:TrackPointExtension>
        </extensions>
      </trkpt>
      <trkpt lat="45.3190050087869167327880859375" lon="-71.00907345302402973175048828125">
        <ele>752</ele>
        <time>2026-08-21T21:02:16.000Z</time>
        <extensions>
          <ns3:TrackPointExtension>
            <ns3:hr>117</ns3:hr>
            <ns3:cad>56</ns3:cad>
          </ns3:TrackPointExtension>
        </extensions>
      </trkpt>
      <trkpt lat="45.31899738125503063201904296875" lon="-71.0090913064777851104736328125">
        <ele>751.79998779296875</ele>
        <time>2026-08-21T21:02:17.000Z</time>
        <extensions>
          <ns3:TrackPointExtension>
            <ns3:hr>116</ns3:hr>
            <ns3:cad>56</ns3:cad>
          </ns3:TrackPointExtension>
        </extensions>
      </trkpt>
      <trkpt lat="45.3189803659915924072265625" lon="-71.009111590683460235595703125">
        <ele>751.79998779296875</ele>
        <time>2026-08-21T21:02:18.000Z</time>
        <extensions>
          <ns3:TrackPointExtension>
            <ns3:hr>116</ns3:hr>
            <ns3:cad>0</ns3:cad>
          </ns3:TrackPointExtension>
        </extensions>
      </trkpt>
      <trkpt lat="45.31897307373583316802978515625" lon="-71.00912290625274181365966796875">
        <ele>751.5999755859375</ele>
        <time>2026-08-21T21:02:19.000Z</time>
        <extensions>
          <ns3:TrackPointExtension>
            <ns3:hr>116</ns3:hr>
            <ns3:cad>0</ns3:cad>
          </ns3:TrackPointExtension>
        </extensions>
      </trkpt>
      <trkpt lat="45.3189597465097904205322265625" lon="-71.0091348923742771148681640625">
        <ele>751.4000244140625</ele>
        <time>2026-08-21T21:02:20.000Z</time>
        <extensions>
          <ns3:TrackPointExtension>
            <ns3:hr>116</ns3:hr>
            <ns3:cad>0</ns3:cad>
          </ns3:TrackPointExtension>
        </extensions>
      </trkpt>
      <trkpt lat="45.31894507817924022674560546875" lon="-71.009145788848400115966796875">
        <ele>751.20001220703125</ele>
        <time>2026-08-21T21:02:21.000Z</time>
        <extensions>
          <ns3:TrackPointExtension>
            <ns3:hr>117</ns3:hr>
            <ns3:cad>0</ns3:cad>
          </ns3:TrackPointExtension>
        </extensions>
      </trkpt>
      <trkpt lat="45.31893267296254634857177734375" lon="-71.00915542803704738616943359375">
        <ele>751</ele>
        <time>2026-08-21T21:02:22.000Z</time>
        <extensions>
          <ns3:TrackPointExtension>
            <ns3:hr>117</ns3:hr>
            <ns3:cad>0</ns3:cad>
          </ns3:TrackPointExtension>
        </extensions>
      </trkpt>
      <trkpt lat="45.31892194412648677825927734375" lon="-71.009173281490802764892578125">
        <ele>751</ele>
        <time>2026-08-21T21:02:23.000Z</time>
        <extensions>
          <ns3:TrackPointExtension>
            <ns3:hr>117</ns3:hr>
            <ns3:cad>0</ns3:cad>
          </ns3:TrackPointExtension>
        </extensions>
      </trkpt>
      <trkpt lat="45.31891691498458385467529296875" lon="-71.00919180549681186676025390625">
        <ele>750.79998779296875</ele>
        <time>2026-08-21T21:02:24.000Z</time>
        <extensions>
          <ns3:TrackPointExtension>
            <ns3:hr>118</ns3:hr>
            <ns3:cad>0</ns3:cad>
          </ns3:TrackPointExtension>
        </extensions>
      </trkpt>
      <trkpt lat="45.3189101256430149078369140625" lon="-71.00920940749347209930419921875">
        <ele>750.5999755859375</ele>
        <time>2026-08-21T21:02:25.000Z</time>
        <extensions>
          <ns3:TrackPointExtension>
            <ns3:hr>117</ns3:hr>
            <ns3:cad>62</ns3:cad>
          </ns3:TrackPointExtension>
        </extensions>
      </trkpt>
      <trkpt lat="45.31889629550278186798095703125" lon="-71.009233631193637847900390625">
        <ele>750.4000244140625</ele>
        <time>2026-08-21T21:02:26.000Z</time>
        <extensions>
          <ns3:TrackPointExtension>
            <ns3:hr>118</ns3:hr>
            <ns3:cad>62</ns3:cad>
          </ns3:TrackPointExtension>
        </extensions>
      </trkpt>
      <trkpt lat="45.31888355500996112823486328125" lon="-71.00925064645707607269287109375">
        <ele>750.20001220703125</ele>
        <time>2026-08-21T21:02:27.000Z</time>
        <extensions>
          <ns3:TrackPointExtension>
            <ns3:hr>119</ns3:hr>
            <ns3:cad>62</ns3:cad>
          </ns3:TrackPointExtension>
        </extensions>
      </trkpt>
      <trkpt lat="45.318885147571563720703125" lon="-71.00927579216659069061279296875">
        <ele>750</ele>
        <time>2026-08-21T21:02:28.000Z</time>
        <extensions>
          <ns3:TrackPointExtension>
            <ns3:hr>119</ns3:hr>
            <ns3:cad>62</ns3:cad>
          </ns3:TrackPointExtension>
        </extensions>
      </trkpt>
      <trkpt lat="45.31887785531580448150634765625" lon="-71.00930236279964447021484375">
        <ele>749.79998779296875</ele>
        <time>2026-08-21T21:02:29.000Z</time>
        <extensions>
          <ns3:TrackPointExtension>
            <ns3:hr>120</ns3:hr>
            <ns3:cad>62</ns3:cad>
          </ns3:TrackPointExtension>
        </extensions>
      </trkpt>
      <trkpt lat="45.3188668750226497650146484375" lon="-71.00932306610047817230224609375">
        <ele>749.4000244140625</ele>
        <time>2026-08-21T21:02:30.000Z</time>
        <extensions>
          <ns3:TrackPointExtension>
            <ns3:hr>120</ns3:hr>
            <ns3:cad>72</ns3:cad>
          </ns3:TrackPointExtension>
        </extensions>
      </trkpt>
      <trkpt lat="45.3188544698059558868408203125" lon="-71.0093447752296924591064453125">
        <ele>749.20001220703125</ele>
        <time>2026-08-21T21:02:31.000Z</time>
        <extensions>
          <ns3:TrackPointExtension>
            <ns3:hr>120</ns3:hr>
            <ns3:cad>72</ns3:cad>
          </ns3:TrackPointExtension>
        </extensions>
      </trkpt>
      <trkpt lat="45.318849943578243255615234375" lon="-71.009361036121845245361328125">
        <ele>748.79998779296875</ele>
        <time>2026-08-21T21:02:32.000Z</time>
        <extensions>
          <ns3:TrackPointExtension>
            <ns3:hr>119</ns3:hr>
            <ns3:cad>72</ns3:cad>
          </ns3:TrackPointExtension>
        </extensions>
      </trkpt>
      <trkpt lat="45.31884424388408660888671875" lon="-71.00938685238361358642578125">
        <ele>748.5999755859375</ele>
        <time>2026-08-21T21:02:33.000Z</time>
        <extensions>
          <ns3:TrackPointExtension>
            <ns3:hr>119</ns3:hr>
            <ns3:cad>72</ns3:cad>
          </ns3:TrackPointExtension>
        </extensions>
      </trkpt>
      <trkpt lat="45.31884499825537204742431640625" lon="-71.0094131715595722198486328125">
        <ele>748.4000244140625</ele>
        <time>2026-08-21T21:02:34.000Z</time>
        <extensions>
          <ns3:TrackPointExtension>
            <ns3:hr>119</ns3:hr>
            <ns3:cad>72</ns3:cad>
          </ns3:TrackPointExtension>
        </extensions>
      </trkpt>
      <trkpt lat="45.318846590816974639892578125" lon="-71.00943521596491336822509765625">
        <ele>748.4000244140625</ele>
        <time>2026-08-21T21:02:35.000Z</time>
        <extensions>
          <ns3:TrackPointExtension>
            <ns3:hr>119</ns3:hr>
            <ns3:cad>73</ns3:cad>
          </ns3:TrackPointExtension>
        </extensions>
      </trkpt>
      <trkpt lat="45.3188457526266574859619140625" lon="-71.009463965892791748046875">
        <ele>748.20001220703125</ele>
        <time>2026-08-21T21:02:36.000Z</time>
        <extensions>
          <ns3:TrackPointExtension>
            <ns3:hr>120</ns3:hr>
            <ns3:cad>73</ns3:cad>
          </ns3:TrackPointExtension>
        </extensions>
      </trkpt>
      <trkpt lat="45.31884516589343547821044921875" lon="-71.0094902850687503814697265625">
        <ele>748.20001220703125</ele>
        <time>2026-08-21T21:02:37.000Z</time>
        <extensions>
          <ns3:TrackPointExtension>
            <ns3:hr>121</ns3:hr>
            <ns3:cad>73</ns3:cad>
          </ns3:TrackPointExtension>
        </extensions>
      </trkpt>
      <trkpt lat="45.31884365715086460113525390625" lon="-71.00950730033218860626220703125">
        <ele>748</ele>
        <time>2026-08-21T21:02:38.000Z</time>
        <extensions>
          <ns3:TrackPointExtension>
            <ns3:hr>122</ns3:hr>
            <ns3:cad>73</ns3:cad>
          </ns3:TrackPointExtension>
        </extensions>
      </trkpt>
      <trkpt lat="45.3188480995595455169677734375" lon="-71.00951559841632843017578125">
        <ele>748</ele>
        <time>2026-08-21T21:02:39.000Z</time>
        <extensions>
          <ns3:TrackPointExtension>
            <ns3:hr>122</ns3:hr>
            <ns3:cad>73</ns3:cad>
          </ns3:TrackPointExtension>
        </extensions>
      </trkpt>
      <trkpt lat="45.318849943578243255615234375" lon="-71.0095278359949588775634765625">
        <ele>747.79998779296875</ele>
        <time>2026-08-21T21:02:40.000Z</time>
        <extensions>
          <ns3:TrackPointExtension>
            <ns3:hr>122</ns3:hr>
            <ns3:cad>73</ns3:cad>
          </ns3:TrackPointExtension>
        </extensions>
      </trkpt>
      <trkpt lat="45.3188548050820827484130859375" lon="-71.0095338709652423858642578125">
        <ele>747.79998779296875</ele>
        <time>2026-08-21T21:02:41.000Z</time>
        <extensions>
          <ns3:TrackPointExtension>
            <ns3:hr>122</ns3:hr>
            <ns3:cad>73</ns3:cad>
          </ns3:TrackPointExtension>
        </extensions>
      </trkpt>
      <trkpt lat="45.318863689899444580078125" lon="-71.009548790752887725830078125">
        <ele>747.5999755859375</ele>
        <time>2026-08-21T21:02:42.000Z</time>
        <extensions>
          <ns3:TrackPointExtension>
            <ns3:hr>122</ns3:hr>
            <ns3:cad>73</ns3:cad>
          </ns3:TrackPointExtension>
        </extensions>
      </trkpt>
      <trkpt lat="45.31886913813650608062744140625" lon="-71.0095586813986301422119140625">
        <ele>747.20001220703125</ele>
        <time>2026-08-21T21:02:43.000Z</time>
        <extensions>
          <ns3:TrackPointExtension>
            <ns3:hr>123</ns3:hr>
            <ns3:cad>73</ns3:cad>
          </ns3:TrackPointExtension>
        </extensions>
      </trkpt>
      <trkpt lat="45.3188765980303287506103515625" lon="-71.00957971997559070587158203125">
        <ele>747</ele>
        <time>2026-08-21T21:02:44.000Z</time>
        <extensions>
          <ns3:TrackPointExtension>
            <ns3:hr>124</ns3:hr>
            <ns3:cad>0</ns3:cad>
          </ns3:TrackPointExtension>
        </extensions>
      </trkpt>
      <trkpt lat="45.31887852586805820465087890625" lon="-71.0096015967428684234619140625">
        <ele>746.4000244140625</ele>
        <time>2026-08-21T21:02:45.000Z</time>
        <extensions>
          <ns3:TrackPointExtension>
            <ns3:hr>124</ns3:hr>
            <ns3:cad>0</ns3:cad>
          </ns3:TrackPointExtension>
        </extensions>
      </trkpt>
      <trkpt lat="45.3188812918961048126220703125" lon="-71.00963361561298370361328125">
        <ele>746</ele>
        <time>2026-08-21T21:02:46.000Z</time>
        <extensions>
          <ns3:TrackPointExtension>
            <ns3:hr>124</ns3:hr>
            <ns3:cad>0</ns3:cad>
          </ns3:TrackPointExtension>
        </extensions>
      </trkpt>
      <trkpt lat="45.318879447877407073974609375" lon="-71.0096532292664051055908203125">
        <ele>745.5999755859375</ele>
        <time>2026-08-21T21:02:47.000Z</time>
        <extensions>
          <ns3:TrackPointExtension>
            <ns3:hr>124</ns3:hr>
            <ns3:cad>73</ns3:cad>
          </ns3:TrackPointExtension>
        </extensions>
      </trkpt>
      <trkpt lat="45.31887517310678958892822265625" lon="-71.00967477075755596160888671875">
        <ele>745.20001220703125</ele>
        <time>2026-08-21T21:02:48.000Z</time>
        <extensions>
          <ns3:TrackPointExtension>
            <ns3:hr>122</ns3:hr>
            <ns3:cad>73</ns3:cad>
          </ns3:TrackPointExtension>
        </extensions>
      </trkpt>
      <trkpt lat="45.3188702277839183807373046875" lon="-71.0096911154687404632568359375">
        <ele>744.79998779296875</ele>
        <time>2026-08-21T21:02:49.000Z</time>
        <extensions>
          <ns3:TrackPointExtension>
            <ns3:hr>121</ns3:hr>
            <ns3:cad>73</ns3:cad>
          </ns3:TrackPointExtension>
        </extensions>
      </trkpt>
      <trkpt lat="45.318868048489093780517578125" lon="-71.00970226339995861053466796875">
        <ele>744.5999755859375</ele>
        <time>2026-08-21T21:02:50.000Z</time>
        <extensions>
          <ns3:TrackPointExtension>
            <ns3:hr>121</ns3:hr>
            <ns3:cad>73</ns3:cad>
          </ns3:TrackPointExtension>
        </extensions>
      </trkpt>
      <trkpt lat="45.31886410899460315704345703125" lon="-71.009713746607303619384765625">
        <ele>744.5999755859375</ele>
        <time>2026-08-21T21:02:51.000Z</time>
        <extensions>
          <ns3:TrackPointExtension>
            <ns3:hr>120</ns3:hr>
            <ns3:cad>73</ns3:cad>
          </ns3:TrackPointExtension>
        </extensions>
      </trkpt>
      <trkpt lat="45.31885991804301738739013671875" lon="-71.00972020067274570465087890625">
        <ele>744.5999755859375</ele>
        <time>2026-08-21T21:02:52.000Z</time>
        <extensions>
          <ns3:TrackPointExtension>
            <ns3:hr>120</ns3:hr>
            <ns3:cad>0</ns3:cad>
          </ns3:TrackPointExtension>
        </extensions>
      </trkpt>
      <trkpt lat="45.318847261369228363037109375" lon="-71.00972908549010753631591796875">
        <ele>744.5999755859375</ele>
        <time>2026-08-21T21:02:53.000Z</time>
        <extensions>
          <ns3:TrackPointExtension>
            <ns3:hr>120</ns3:hr>
            <ns3:cad>0</ns3:cad>
          </ns3:TrackPointExtension>
        </extensions>
      </trkpt>
      <trkpt lat="45.318838544189929962158203125" lon="-71.00973310880362987518310546875">
        <ele>744.79998779296875</ele>
        <time>2026-08-21T21:02:54.000Z</time>
        <extensions>
          <ns3:TrackPointExtension>
            <ns3:hr>120</ns3:hr>
            <ns3:cad>0</ns3:cad>
          </ns3:TrackPointExtension>
        </extensions>
      </trkpt>
      <trkpt lat="45.31883242540061473846435546875" lon="-71.00973947905004024505615234375">
        <ele>745</ele>
        <time>2026-08-21T21:02:55.000Z</time>
        <extensions>
          <ns3:TrackPointExtension>
            <ns3:hr>120</ns3:hr>
            <ns3:cad>0</ns3:cad>
          </ns3:TrackPointExtension>
        </extensions>
      </trkpt>
      <trkpt lat="45.318819768726825714111328125" lon="-71.0097491182386875152587890625">
        <ele>745</ele>
        <time>2026-08-21T21:02:56.000Z</time>
        <extensions>
          <ns3:TrackPointExtension>
            <ns3:hr>119</ns3:hr>
            <ns3:cad>0</ns3:cad>
          </ns3:TrackPointExtension>
        </extensions>
      </trkpt>
      <trkpt lat="45.31881918199360370635986328125" lon="-71.00975423119962215423583984375">
        <ele>745.20001220703125</ele>
        <time>2026-08-21T21:02:57.000Z</time>
        <extensions>
          <ns3:TrackPointExtension>
            <ns3:hr>120</ns3:hr>
            <ns3:cad>0</ns3:cad>
          </ns3:TrackPointExtension>
        </extensions>
      </trkpt>
      <trkpt lat="45.3188112191855907440185546875" lon="-71.00976713933050632476806640625">
        <ele>745.4000244140625</ele>
        <time>2026-08-21T21:02:58.000Z</time>
        <extensions>
          <ns3:TrackPointExtension>
            <ns3:hr>120</ns3:hr>
            <ns3:cad>0</ns3:cad>
          </ns3:TrackPointExtension>
        </extensions>
      </trkpt>
      <trkpt lat="45.3188025020062923431396484375" lon="-71.00977133028209209442138671875">
        <ele>745.5999755859375</ele>
        <time>2026-08-21T21:02:59.000Z</time>
        <extensions>
          <ns3:TrackPointExtension>
            <ns3:hr>120</ns3:hr>
            <ns3:cad>54</ns3:cad>
          </ns3:TrackPointExtension>
        </extensions>
      </trkpt>
      <trkpt lat="45.3187884204089641571044921875" lon="-71.00978055037558078765869140625">
        <ele>745.79998779296875</ele>
        <time>2026-08-21T21:03:00.000Z</time>
        <extensions>
          <ns3:TrackPointExtension>
            <ns3:hr>120</ns3:hr>
            <ns3:cad>54</ns3:cad>
          </ns3:TrackPointExtension>
        </extensions>
      </trkpt>
      <trkpt lat="45.31878079287707805633544921875" lon="-71.00978826172649860382080078125">
        <ele>746</ele>
        <time>2026-08-21T21:03:01.000Z</time>
        <extensions>
          <ns3:TrackPointExtension>
            <ns3:hr>121</ns3:hr>
            <ns3:cad>0</ns3:cad>
          </ns3:TrackPointExtension>
        </extensions>
      </trkpt>
      <trkpt lat="45.31877308152616024017333984375" lon="-71.0098030976951122283935546875">
        <ele>746.4000244140625</ele>
        <time>2026-08-21T21:03:02.000Z</time>
        <extensions>
          <ns3:TrackPointExtension>
            <ns3:hr>120</ns3:hr>
            <ns3:cad>0</ns3:cad>
          </ns3:TrackPointExtension>
        </extensions>
      </trkpt>
      <trkpt lat="45.31876386143267154693603515625" lon="-71.0098161734640598297119140625">
        <ele>746.5999755859375</ele>
        <time>2026-08-21T21:03:03.000Z</time>
        <extensions>
          <ns3:TrackPointExtension>
            <ns3:hr>120</ns3:hr>
            <ns3:cad>0</ns3:cad>
          </ns3:TrackPointExtension>
        </extensions>
      </trkpt>
      <trkpt lat="45.3187577426433563232421875" lon="-71.0098279081284999847412109375">
        <ele>746.5999755859375</ele>
        <time>2026-08-21T21:03:04.000Z</time>
        <extensions>
          <ns3:TrackPointExtension>
            <ns3:hr>120</ns3:hr>
            <ns3:cad>0</ns3:cad>
          </ns3:TrackPointExtension>
        </extensions>
      </trkpt>
      <trkpt lat="45.318747349083423614501953125" lon="-71.00984140299260616302490234375">
        <ele>746.79998779296875</ele>
        <time>2026-08-21T21:03:05.000Z</time>
        <extensions>
          <ns3:TrackPointExtension>
            <ns3:hr>120</ns3:hr>
            <ns3:cad>0</ns3:cad>
          </ns3:TrackPointExtension>
        </extensions>
      </trkpt>
      <trkpt lat="45.31874542124569416046142578125" lon="-71.00985012017190456390380859375">
        <ele>747</ele>
        <time>2026-08-21T21:03:06.000Z</time>
        <extensions>
          <ns3:TrackPointExtension>
            <ns3:hr>121</ns3:hr>
            <ns3:cad>0</ns3:cad>
          </ns3:TrackPointExtension>
        </extensions>
      </trkpt>
      <trkpt lat="45.31874793581664562225341796875" lon="-71.00985967554152011871337890625">
        <ele>747</ele>
        <time>2026-08-21T21:03:07.000Z</time>
        <extensions>
          <ns3:TrackPointExtension>
            <ns3:hr>121</ns3:hr>
            <ns3:cad>46</ns3:cad>
          </ns3:TrackPointExtension>
        </extensions>
      </trkpt>
      <trkpt lat="45.31874592415988445281982421875" lon="-71.009876690804958343505859375">
        <ele>747.20001220703125</ele>
        <time>2026-08-21T21:03:08.000Z</time>
        <extensions>
          <ns3:TrackPointExtension>
            <ns3:hr>122</ns3:hr>
            <ns3:cad>46</ns3:cad>
          </ns3:TrackPointExtension>
        </extensions>
      </trkpt>
      <trkpt lat="45.3187461756169795989990234375" lon="-71.0098912753164768218994140625">
        <ele>747.4000244140625</ele>
        <time>2026-08-21T21:03:09.000Z</time>
        <extensions>
          <ns3:TrackPointExtension>
            <ns3:hr>122</ns3:hr>
            <ns3:cad>0</ns3:cad>
          </ns3:TrackPointExtension>
        </extensions>
      </trkpt>
      <trkpt lat="45.31874500215053558349609375" lon="-71.00990074686706066131591796875">
        <ele>747.5999755859375</ele>
        <time>2026-08-21T21:03:10.000Z</time>
        <extensions>
          <ns3:TrackPointExtension>
            <ns3:hr>123</ns3:hr>
            <ns3:cad>0</ns3:cad>
          </ns3:TrackPointExtension>
        </extensions>
      </trkpt>
      <trkpt lat="45.31874257139861583709716796875" lon="-71.00991399027407169342041015625">
        <ele>748</ele>
        <time>2026-08-21T21:03:11.000Z</time>
        <extensions>
          <ns3:TrackPointExtension>
            <ns3:hr>123</ns3:hr>
            <ns3:cad>0</ns3:cad>
          </ns3:TrackPointExtension>
        </extensions>
      </trkpt>
      <trkpt lat="45.31874240376055240631103515625" lon="-71.00993268191814422607421875">
        <ele>748.20001220703125</ele>
        <time>2026-08-21T21:03:12.000Z</time>
        <extensions>
          <ns3:TrackPointExtension>
            <ns3:hr>124</ns3:hr>
            <ns3:cad>0</ns3:cad>
          </ns3:TrackPointExtension>
        </extensions>
      </trkpt>
      <trkpt lat="45.31874072737991809844970703125" lon="-71.0099422372877597808837890625">
        <ele>748.5999755859375</ele>
        <time>2026-08-21T21:03:13.000Z</time>
        <extensions>
          <ns3:TrackPointExtension>
            <ns3:hr>124</ns3:hr>
            <ns3:cad>0</ns3:cad>
          </ns3:TrackPointExtension>
        </extensions>
      </trkpt>
      <trkpt lat="45.31873955391347408294677734375" lon="-71.009955145418643951416015625">
        <ele>748.79998779296875</ele>
        <time>2026-08-21T21:03:14.000Z</time>
        <extensions>
          <ns3:TrackPointExtension>
            <ns3:hr>125</ns3:hr>
            <ns3:cad>0</ns3:cad>
          </ns3:TrackPointExtension>
        </extensions>
      </trkpt>
      <trkpt lat="45.3187408111989498138427734375" lon="-71.00996620953083038330078125">
        <ele>749.20001220703125</ele>
        <time>2026-08-21T21:03:15.000Z</time>
        <extensions>
          <ns3:TrackPointExtension>
            <ns3:hr>126</ns3:hr>
            <ns3:cad>0</ns3:cad>
          </ns3:TrackPointExtension>
        </extensions>
      </trkpt>
      <trkpt lat="45.31874123029410839080810546875" lon="-71.00997827947139739990234375">
        <ele>749.4000244140625</ele>
        <time>2026-08-21T21:03:16.000Z</time>
        <extensions>
          <ns3:TrackPointExtension>
            <ns3:hr>126</ns3:hr>
            <ns3:cad>0</ns3:cad>
          </ns3:TrackPointExtension>
        </extensions>
      </trkpt>
      <trkpt lat="45.318741984665393829345703125" lon="-71.0099937021732330322265625">
        <ele>749.5999755859375</ele>
        <time>2026-08-21T21:03:17.000Z</time>
        <extensions>
          <ns3:TrackPointExtension>
            <ns3:hr>126</ns3:hr>
            <ns3:cad>0</ns3:cad>
          </ns3:TrackPointExtension>
        </extensions>
      </trkpt>
      <trkpt lat="45.3187411464750766754150390625" lon="-71.01000401191413402557373046875">
        <ele>750</ele>
        <time>2026-08-21T21:03:18.000Z</time>
        <extensions>
          <ns3:TrackPointExtension>
            <ns3:hr>127</ns3:hr>
            <ns3:cad>0</ns3:cad>
          </ns3:TrackPointExtension>
        </extensions>
      </trkpt>
      <trkpt lat="45.3187414817512035369873046875" lon="-71.0100153274834156036376953125">
        <ele>750.20001220703125</ele>
        <time>2026-08-21T21:03:19.000Z</time>
        <extensions>
          <ns3:TrackPointExtension>
            <ns3:hr>127</ns3:hr>
            <ns3:cad>0</ns3:cad>
          </ns3:TrackPointExtension>
        </extensions>
      </trkpt>
      <trkpt lat="45.31874340958893299102783203125" lon="-71.01002898998558521270751953125">
        <ele>750.5999755859375</ele>
        <time>2026-08-21T21:03:20.000Z</time>
        <extensions>
          <ns3:TrackPointExtension>
            <ns3:hr>128</ns3:hr>
            <ns3:cad>0</ns3:cad>
          </ns3:TrackPointExtension>
        </extensions>
      </trkpt>
      <trkpt lat="45.3187411464750766754150390625" lon="-71.0100287385284900665283203125">
        <ele>750.79998779296875</ele>
        <time>2026-08-21T21:03:21.000Z</time>
        <extensions>
          <ns3:TrackPointExtension>
            <ns3:hr>128</ns3:hr>
            <ns3:cad>0</ns3:cad>
          </ns3:TrackPointExtension>
        </extensions>
      </trkpt>
      <trkpt lat="45.31873955391347408294677734375" lon="-71.01004273630678653717041015625">
        <ele>750.79998779296875</ele>
        <time>2026-08-21T21:03:22.000Z</time>
        <extensions>
          <ns3:TrackPointExtension>
            <ns3:hr>129</ns3:hr>
            <ns3:cad>0</ns3:cad>
          </ns3:TrackPointExtension>
        </extensions>
      </trkpt>
      <trkpt lat="45.3187398053705692291259765625" lon="-71.010054387152194976806640625">
        <ele>751</ele>
        <time>2026-08-21T21:03:23.000Z</time>
        <extensions>
          <ns3:TrackPointExtension>
            <ns3:hr>130</ns3:hr>
            <ns3:cad>0</ns3:cad>
          </ns3:TrackPointExtension>
        </extensions>
      </trkpt>
      <trkpt lat="45.31874340958893299102783203125" lon="-71.0100706480443477630615234375">
        <ele>751</ele>
        <time>2026-08-21T21:03:24.000Z</time>
        <extensions>
          <ns3:TrackPointExtension>
            <ns3:hr>130</ns3:hr>
            <ns3:cad>0</ns3:cad>
          </ns3:TrackPointExtension>
        </extensions>
      </trkpt>
      <trkpt lat="45.318740643560886383056640625" lon="-71.01008296944200992584228515625">
        <ele>751.20001220703125</ele>
        <time>2026-08-21T21:03:25.000Z</time>
        <extensions>
          <ns3:TrackPointExtension>
            <ns3:hr>132</ns3:hr>
            <ns3:cad>0</ns3:cad>
          </ns3:TrackPointExtension>
        </extensions>
      </trkpt>
      <trkpt lat="45.3187309205532073974609375" lon="-71.01009068079292774200439453125">
        <ele>751.20001220703125</ele>
        <time>2026-08-21T21:03:26.000Z</time>
        <extensions>
          <ns3:TrackPointExtension>
            <ns3:hr>133</ns3:hr>
            <ns3:cad>0</ns3:cad>
          </ns3:TrackPointExtension>
        </extensions>
      </trkpt>
      <trkpt lat="45.31872195191681385040283203125" lon="-71.01010576821863651275634765625">
        <ele>751.20001220703125</ele>
        <time>2026-08-21T21:03:27.000Z</time>
        <extensions>
          <ns3:TrackPointExtension>
            <ns3:hr>134</ns3:hr>
            <ns3:cad>0</ns3:cad>
          </ns3:TrackPointExtension>
        </extensions>
      </trkpt>
      <trkpt lat="45.31871507875621318817138671875" lon="-71.0101172514259815216064453125">
        <ele>751.20001220703125</ele>
        <time>2026-08-21T21:03:28.000Z</time>
        <extensions>
          <ns3:TrackPointExtension>
            <ns3:hr>135</ns3:hr>
            <ns3:cad>0</ns3:cad>
          </ns3:TrackPointExtension>
        </extensions>
      </trkpt>
      <trkpt lat="45.3187092952430248260498046875" lon="-71.01012823171913623809814453125">
        <ele>751.20001220703125</ele>
        <time>2026-08-21T21:03:29.000Z</time>
        <extensions>
          <ns3:TrackPointExtension>
            <ns3:hr>136</ns3:hr>
            <ns3:cad>0</ns3:cad>
          </ns3:TrackPointExtension>
        </extensions>
      </trkpt>
      <trkpt lat="45.31869999133050441741943359375" lon="-71.01014449261128902435302734375">
        <ele>751.4000244140625</ele>
        <time>2026-08-21T21:03:30.000Z</time>
        <extensions>
          <ns3:TrackPointExtension>
            <ns3:hr>136</ns3:hr>
            <ns3:cad>0</ns3:cad>
          </ns3:TrackPointExtension>
        </extensions>
      </trkpt>
      <trkpt lat="45.3186985664069652557373046875" lon="-71.01015865802764892578125">
        <ele>751.20001220703125</ele>
        <time>2026-08-21T21:03:31.000Z</time>
        <extensions>
          <ns3:TrackPointExtension>
            <ns3:hr>137</ns3:hr>
            <ns3:cad>0</ns3:cad>
          </ns3:TrackPointExtension>
        </extensions>
      </trkpt>
      <trkpt lat="45.3186952136456966400146484375" lon="-71.0101829655468463897705078125">
        <ele>751.20001220703125</ele>
        <time>2026-08-21T21:03:32.000Z</time>
        <extensions>
          <ns3:TrackPointExtension>
            <ns3:hr>138</ns3:hr>
            <ns3:cad>0</ns3:cad>
          </ns3:TrackPointExtension>
        </extensions>
      </trkpt>
      <trkpt lat="45.31869160942733287811279296875" lon="-71.01020316593348979949951171875">
        <ele>751.20001220703125</ele>
        <time>2026-08-21T21:03:33.000Z</time>
        <extensions>
          <ns3:TrackPointExtension>
            <ns3:hr>138</ns3:hr>
            <ns3:cad>0</ns3:cad>
          </ns3:TrackPointExtension>
        </extensions>
      </trkpt>
      <trkpt lat="45.3186858259141445159912109375" lon="-71.010220348834991455078125">
        <ele>751.20001220703125</ele>
        <time>2026-08-21T21:03:34.000Z</time>
        <extensions>
          <ns3:TrackPointExtension>
            <ns3:hr>138</ns3:hr>
            <ns3:cad>0</ns3:cad>
          </ns3:TrackPointExtension>
        </extensions>
      </trkpt>
      <trkpt lat="45.3186826407909393310546875" lon="-71.010241471230983734130859375">
        <ele>751.20001220703125</ele>
        <time>2026-08-21T21:03:35.000Z</time>
        <extensions>
          <ns3:TrackPointExtension>
            <ns3:hr>137</ns3:hr>
            <ns3:cad>0</ns3:cad>
          </ns3:TrackPointExtension>
        </extensions>
      </trkpt>
      <trkpt lat="45.3186764381825923919677734375" lon="-71.010268963873386383056640625">
        <ele>751</ele>
        <time>2026-08-21T21:03:36.000Z</time>
        <extensions>
          <ns3:TrackPointExtension>
            <ns3:hr>137</ns3:hr>
            <ns3:cad>18</ns3:cad>
          </ns3:TrackPointExtension>
        </extensions>
      </trkpt>
      <trkpt lat="45.318669565021991729736328125" lon="-71.0102887451648712158203125">
        <ele>751</ele>
        <time>2026-08-21T21:03:37.000Z</time>
        <extensions>
          <ns3:TrackPointExtension>
            <ns3:hr>138</ns3:hr>
            <ns3:cad>18</ns3:cad>
          </ns3:TrackPointExtension>
        </extensions>
      </trkpt>
      <trkpt lat="45.3186600096523761749267578125" lon="-71.01030810736119747161865234375">
        <ele>750.79998779296875</ele>
        <time>2026-08-21T21:03:38.000Z</time>
        <extensions>
          <ns3:TrackPointExtension>
            <ns3:hr>138</ns3:hr>
            <ns3:cad>71</ns3:cad>
          </ns3:TrackPointExtension>
        </extensions>
      </trkpt>
      <trkpt lat="45.31865070573985576629638671875" lon="-71.010330654680728912353515625">
        <ele>750.79998779296875</ele>
        <time>2026-08-21T21:03:39.000Z</time>
        <extensions>
          <ns3:TrackPointExtension>
            <ns3:hr>138</ns3:hr>
            <ns3:cad>71</ns3:cad>
          </ns3:TrackPointExtension>
        </extensions>
      </trkpt>
      <trkpt lat="45.31864198856055736541748046875" lon="-71.01034699939191341400146484375">
        <ele>750.79998779296875</ele>
        <time>2026-08-21T21:03:40.000Z</time>
        <extensions>
          <ns3:TrackPointExtension>
            <ns3:hr>137</ns3:hr>
            <ns3:cad>71</ns3:cad>
          </ns3:TrackPointExtension>
        </extensions>
      </trkpt>
      <trkpt lat="45.31863612122833728790283203125" lon="-71.0103666968643665313720703125">
        <ele>750.79998779296875</ele>
        <time>2026-08-21T21:03:41.000Z</time>
        <extensions>
          <ns3:TrackPointExtension>
            <ns3:hr>138</ns3:hr>
            <ns3:cad>71</ns3:cad>
          </ns3:TrackPointExtension>
        </extensions>
      </trkpt>
      <trkpt lat="45.318629331886768341064453125" lon="-71.0103888250887393951416015625">
        <ele>750.79998779296875</ele>
        <time>2026-08-21T21:03:42.000Z</time>
        <extensions>
          <ns3:TrackPointExtension>
            <ns3:hr>137</ns3:hr>
            <ns3:cad>71</ns3:cad>
          </ns3:TrackPointExtension>
        </extensions>
      </trkpt>
      <trkpt lat="45.31862472184002399444580078125" lon="-71.01041036657989025115966796875">
        <ele>750.5999755859375</ele>
        <time>2026-08-21T21:03:43.000Z</time>
        <extensions>
          <ns3:TrackPointExtension>
            <ns3:hr>137</ns3:hr>
            <ns3:cad>74</ns3:cad>
          </ns3:TrackPointExtension>
        </extensions>
      </trkpt>
      <trkpt lat="45.3186244703829288482666015625" lon="-71.01043224334716796875">
        <ele>750.5999755859375</ele>
        <time>2026-08-21T21:03:44.000Z</time>
        <extensions>
          <ns3:TrackPointExtension>
            <ns3:hr>137</ns3:hr>
            <ns3:cad>74</ns3:cad>
          </ns3:TrackPointExtension>
        </extensions>
      </trkpt>
      <trkpt lat="45.318621955811977386474609375" lon="-71.0104629211127758026123046875">
        <ele>750.4000244140625</ele>
        <time>2026-08-21T21:03:45.000Z</time>
        <extensions>
          <ns3:TrackPointExtension>
            <ns3:hr>137</ns3:hr>
            <ns3:cad>74</ns3:cad>
          </ns3:TrackPointExtension>
        </extensions>
      </trkpt>
      <trkpt lat="45.3186227940022945404052734375" lon="-71.010488905012607574462890625">
        <ele>750.4000244140625</ele>
        <time>2026-08-21T21:03:46.000Z</time>
        <extensions>
          <ns3:TrackPointExtension>
            <ns3:hr>138</ns3:hr>
            <ns3:cad>74</ns3:cad>
          </ns3:TrackPointExtension>
        </extensions>
      </trkpt>
      <trkpt lat="45.31863100826740264892578125" lon="-71.010506339371204376220703125">
        <ele>750.4000244140625</ele>
        <time>2026-08-21T21:03:47.000Z</time>
        <extensions>
          <ns3:TrackPointExtension>
            <ns3:hr>137</ns3:hr>
            <ns3:cad>64</ns3:cad>
          </ns3:TrackPointExtension>
        </extensions>
      </trkpt>
      <trkpt lat="45.3186388872563838958740234375" lon="-71.0105229355394840240478515625">
        <ele>750.4000244140625</ele>
        <time>2026-08-21T21:03:48.000Z</time>
        <extensions>
          <ns3:TrackPointExtension>
            <ns3:hr>137</ns3:hr>
            <ns3:cad>64</ns3:cad>
          </ns3:TrackPointExtension>
        </extensions>
      </trkpt>
      <trkpt lat="45.3186496160924434661865234375" lon="-71.01054447703063488006591796875">
        <ele>750.20001220703125</ele>
        <time>2026-08-21T21:03:49.000Z</time>
        <extensions>
          <ns3:TrackPointExtension>
            <ns3:hr>137</ns3:hr>
            <ns3:cad>64</ns3:cad>
          </ns3:TrackPointExtension>
        </extensions>
      </trkpt>
      <trkpt lat="45.31866126693785190582275390625" lon="-71.01055939681828022003173828125">
        <ele>750</ele>
        <time>2026-08-21T21:03:50.000Z</time>
        <extensions>
          <ns3:TrackPointExtension>
            <ns3:hr>137</ns3:hr>
            <ns3:cad>64</ns3:cad>
          </ns3:TrackPointExtension>
        </extensions>
      </trkpt>
      <trkpt lat="45.31867283396422863006591796875" lon="-71.0105730593204498291015625">
        <ele>749.79998779296875</ele>
        <time>2026-08-21T21:03:51.000Z</time>
        <extensions>
          <ns3:TrackPointExtension>
            <ns3:hr>136</ns3:hr>
            <ns3:cad>64</ns3:cad>
          </ns3:TrackPointExtension>
        </extensions>
      </trkpt>
      <trkpt lat="45.318682976067066192626953125" lon="-71.01059225387871265411376953125">
        <ele>749.4000244140625</ele>
        <time>2026-08-21T21:03:52.000Z</time>
        <extensions>
          <ns3:TrackPointExtension>
            <ns3:hr>136</ns3:hr>
            <ns3:cad>66</ns3:cad>
          </ns3:TrackPointExtension>
        </extensions>
      </trkpt>
      <trkpt lat="45.31869538128376007080078125" lon="-71.01060591638088226318359375">
        <ele>749</ele>
        <time>2026-08-21T21:03:53.000Z</time>
        <extensions>
          <ns3:TrackPointExtension>
            <ns3:hr>136</ns3:hr>
            <ns3:cad>66</ns3:cad>
          </ns3:TrackPointExtension>
        </extensions>
      </trkpt>
      <trkpt lat="45.31870954670011997222900390625" lon="-71.01061991415917873382568359375">
        <ele>748.5999755859375</ele>
        <time>2026-08-21T21:03:54.000Z</time>
        <extensions>
          <ns3:TrackPointExtension>
            <ns3:hr>136</ns3:hr>
            <ns3:cad>66</ns3:cad>
          </ns3:TrackPointExtension>
        </extensions>
      </trkpt>
      <trkpt lat="45.318719185888767242431640625" lon="-71.01063600741326808929443359375">
        <ele>748.20001220703125</ele>
        <time>2026-08-21T21:03:55.000Z</time>
        <extensions>
          <ns3:TrackPointExtension>
            <ns3:hr>135</ns3:hr>
            <ns3:cad>75</ns3:cad>
          </ns3:TrackPointExtension>
        </extensions>
      </trkpt>
      <trkpt lat="45.31872597523033618927001953125" lon="-71.01064891554415225982666015625">
        <ele>747.5999755859375</ele>
        <time>2026-08-21T21:03:56.000Z</time>
        <extensions>
          <ns3:TrackPointExtension>
            <ns3:hr>135</ns3:hr>
            <ns3:cad>75</ns3:cad>
          </ns3:TrackPointExtension>
        </extensions>
      </trkpt>
      <trkpt lat="45.31873159110546112060546875" lon="-71.01066836155951023101806640625">
        <ele>747.20001220703125</ele>
        <time>2026-08-21T21:03:57.000Z</time>
        <extensions>
          <ns3:TrackPointExtension>
            <ns3:hr>134</ns3:hr>
            <ns3:cad>40</ns3:cad>
          </ns3:TrackPointExtension>
        </extensions>
      </trkpt>
      <trkpt lat="45.318741984665393829345703125" lon="-71.01068898104131221771240234375">
        <ele>746.79998779296875</ele>
        <time>2026-08-21T21:03:58.000Z</time>
        <extensions>
          <ns3:TrackPointExtension>
            <ns3:hr>134</ns3:hr>
            <ns3:cad>40</ns3:cad>
          </ns3:TrackPointExtension>
        </extensions>
      </trkpt>
      <trkpt lat="45.3187501989305019378662109375" lon="-71.01070440374314785003662109375">
        <ele>746.4000244140625</ele>
        <time>2026-08-21T21:03:59.000Z</time>
        <extensions>
          <ns3:TrackPointExtension>
            <ns3:hr>134</ns3:hr>
            <ns3:cad>40</ns3:cad>
          </ns3:TrackPointExtension>
        </extensions>
      </trkpt>
      <trkpt lat="45.31876050867140293121337890625" lon="-71.01072393357753753662109375">
        <ele>746</ele>
        <time>2026-08-21T21:04:00.000Z</time>
        <extensions>
          <ns3:TrackPointExtension>
            <ns3:hr>134</ns3:hr>
            <ns3:cad>79</ns3:cad>
          </ns3:TrackPointExtension>
        </extensions>
      </trkpt>
      <trkpt lat="45.31877190805971622467041015625" lon="-71.0107438825070858001708984375">
        <ele>745.79998779296875</ele>
        <time>2026-08-21T21:04:01.000Z</time>
        <extensions>
          <ns3:TrackPointExtension>
            <ns3:hr>135</ns3:hr>
            <ns3:cad>79</ns3:cad>
          </ns3:TrackPointExtension>
        </extensions>
      </trkpt>
      <trkpt lat="45.3187854029238224029541015625" lon="-71.01075746119022369384765625">
        <ele>745.5999755859375</ele>
        <time>2026-08-21T21:04:02.000Z</time>
        <extensions>
          <ns3:TrackPointExtension>
            <ns3:hr>135</ns3:hr>
            <ns3:cad>79</ns3:cad>
          </ns3:TrackPointExtension>
        </extensions>
      </trkpt>
      <trkpt lat="45.3187954612076282501220703125" lon="-71.010773219168186187744140625">
        <ele>745.4000244140625</ele>
        <time>2026-08-21T21:04:03.000Z</time>
        <extensions>
          <ns3:TrackPointExtension>
            <ns3:hr>135</ns3:hr>
            <ns3:cad>79</ns3:cad>
          </ns3:TrackPointExtension>
        </extensions>
      </trkpt>
      <trkpt lat="45.31879822723567485809326171875" lon="-71.01080046035349369049072265625">
        <ele>745.20001220703125</ele>
        <time>2026-08-21T21:04:04.000Z</time>
        <extensions>
          <ns3:TrackPointExtension>
            <ns3:hr>135</ns3:hr>
            <ns3:cad>79</ns3:cad>
          </ns3:TrackPointExtension>
        </extensions>
      </trkpt>
      <trkpt lat="45.31880426220595836639404296875" lon="-71.0108236782252788543701171875">
        <ele>745.20001220703125</ele>
        <time>2026-08-21T21:04:05.000Z</time>
        <extensions>
          <ns3:TrackPointExtension>
            <ns3:hr>134</ns3:hr>
            <ns3:cad>79</ns3:cad>
          </ns3:TrackPointExtension>
        </extensions>
      </trkpt>
      <trkpt lat="45.31881163828074932098388671875" lon="-71.010847985744476318359375">
        <ele>744.79998779296875</ele>
        <time>2026-08-21T21:04:06.000Z</time>
        <extensions>
          <ns3:TrackPointExtension>
            <ns3:hr>134</ns3:hr>
            <ns3:cad>79</ns3:cad>
          </ns3:TrackPointExtension>
        </extensions>
      </trkpt>
      <trkpt lat="45.31881876289844512939453125" lon="-71.01087036542594432830810546875">
        <ele>744.5999755859375</ele>
        <time>2026-08-21T21:04:07.000Z</time>
        <extensions>
          <ns3:TrackPointExtension>
            <ns3:hr>132</ns3:hr>
            <ns3:cad>0</ns3:cad>
          </ns3:TrackPointExtension>
        </extensions>
      </trkpt>
      <trkpt lat="45.31882437877357006072998046875" lon="-71.01089484058320522308349609375">
        <ele>744.20001220703125</ele>
        <time>2026-08-21T21:04:08.000Z</time>
        <extensions>
          <ns3:TrackPointExtension>
            <ns3:hr>132</ns3:hr>
            <ns3:cad>0</ns3:cad>
          </ns3:TrackPointExtension>
        </extensions>
      </trkpt>
      <trkpt lat="45.3188303299248218536376953125" lon="-71.01092115975916385650634765625">
        <ele>743.79998779296875</ele>
        <time>2026-08-21T21:04:09.000Z</time>
        <extensions>
          <ns3:TrackPointExtension>
            <ns3:hr>132</ns3:hr>
            <ns3:cad>76</ns3:cad>
          </ns3:TrackPointExtension>
        </extensions>
      </trkpt>
      <trkpt lat="45.318833850324153900146484375" lon="-71.0109396837651729583740234375">
        <ele>743.4000244140625</ele>
        <time>2026-08-21T21:04:10.000Z</time>
        <extensions>
          <ns3:TrackPointExtension>
            <ns3:hr>131</ns3:hr>
            <ns3:cad>76</ns3:cad>
          </ns3:TrackPointExtension>
        </extensions>
      </trkpt>
      <trkpt lat="45.31883887946605682373046875" lon="-71.0109604708850383758544921875">
        <ele>743</ele>
        <time>2026-08-21T21:04:11.000Z</time>
        <extensions>
          <ns3:TrackPointExtension>
            <ns3:hr>131</ns3:hr>
            <ns3:cad>76</ns3:cad>
          </ns3:TrackPointExtension>
        </extensions>
      </trkpt>
      <trkpt lat="45.3188435733318328857421875" lon="-71.01097681559622287750244140625">
        <ele>742.79998779296875</ele>
        <time>2026-08-21T21:04:12.000Z</time>
        <extensions>
          <ns3:TrackPointExtension>
            <ns3:hr>130</ns3:hr>
            <ns3:cad>77</ns3:cad>
          </ns3:TrackPointExtension>
        </extensions>
      </trkpt>
      <trkpt lat="45.31885053031146526336669921875" lon="-71.01099424995481967926025390625">
        <ele>742.4000244140625</ele>
        <time>2026-08-21T21:04:13.000Z</time>
        <extensions>
          <ns3:TrackPointExtension>
            <ns3:hr>130</ns3:hr>
            <ns3:cad>77</ns3:cad>
          </ns3:TrackPointExtension>
        </extensions>
      </trkpt>
      <trkpt lat="45.31885522417724132537841796875" lon="-71.0110053978860378265380859375">
        <ele>742.20001220703125</ele>
        <time>2026-08-21T21:04:14.000Z</time>
        <extensions>
          <ns3:TrackPointExtension>
            <ns3:hr>129</ns3:hr>
            <ns3:cad>77</ns3:cad>
          </ns3:TrackPointExtension>
        </extensions>
      </trkpt>
      <trkpt lat="45.3188638575375080108642578125" lon="-71.0110161267220973968505859375">
        <ele>741.79998779296875</ele>
        <time>2026-08-21T21:04:15.000Z</time>
        <extensions>
          <ns3:TrackPointExtension>
            <ns3:hr>128</ns3:hr>
            <ns3:cad>77</ns3:cad>
          </ns3:TrackPointExtension>
        </extensions>
      </trkpt>
      <trkpt lat="45.3188675455749034881591796875" lon="-71.01103372871875762939453125">
        <ele>741.4000244140625</ele>
        <time>2026-08-21T21:04:16.000Z</time>
        <extensions>
          <ns3:TrackPointExtension>
            <ns3:hr>127</ns3:hr>
            <ns3:cad>77</ns3:cad>
          </ns3:TrackPointExtension>
        </extensions>
      </trkpt>
      <trkpt lat="45.31886729411780834197998046875" lon="-71.0110476426780223846435546875">
        <ele>741</ele>
        <time>2026-08-21T21:04:17.000Z</time>
        <extensions>
          <ns3:TrackPointExtension>
            <ns3:hr>126</ns3:hr>
            <ns3:cad>77</ns3:cad>
          </ns3:TrackPointExtension>
        </extensions>
      </trkpt>
      <trkpt lat="45.31886838376522064208984375" lon="-71.0110623948276042938232421875">
        <ele>740.79998779296875</ele>
        <time>2026-08-21T21:04:18.000Z</time>
        <extensions>
          <ns3:TrackPointExtension>
            <ns3:hr>126</ns3:hr>
            <ns3:cad>77</ns3:cad>
          </ns3:TrackPointExtension>
        </extensions>
      </trkpt>
      <trkpt lat="45.3188742510974407196044921875" lon="-71.01107823662459850311279296875">
        <ele>740.4000244140625</ele>
        <time>2026-08-21T21:04:19.000Z</time>
        <extensions>
          <ns3:TrackPointExtension>
            <ns3:hr>126</ns3:hr>
            <ns3:cad>56</ns3:cad>
          </ns3:TrackPointExtension>
        </extensions>
      </trkpt>
      <trkpt lat="45.3188786096870899200439453125" lon="-71.0110969282686710357666015625">
        <ele>740</ele>
        <time>2026-08-21T21:04:20.000Z</time>
        <extensions>
          <ns3:TrackPointExtension>
            <ns3:hr>125</ns3:hr>
            <ns3:cad>56</ns3:cad>
          </ns3:TrackPointExtension>
        </extensions>
      </trkpt>
      <trkpt lat="45.31888020224869251251220703125" lon="-71.0111120156943798065185546875">
        <ele>739.79998779296875</ele>
        <time>2026-08-21T21:04:21.000Z</time>
        <extensions>
          <ns3:TrackPointExtension>
            <ns3:hr>125</ns3:hr>
            <ns3:cad>59</ns3:cad>
          </ns3:TrackPointExtension>
        </extensions>
      </trkpt>
      <trkpt lat="45.3188811242580413818359375" lon="-71.011129952967166900634765625">
        <ele>739.79998779296875</ele>
        <time>2026-08-21T21:04:22.000Z</time>
        <extensions>
          <ns3:TrackPointExtension>
            <ns3:hr>125</ns3:hr>
            <ns3:cad>59</ns3:cad>
          </ns3:TrackPointExtension>
        </extensions>
      </trkpt>
      <trkpt lat="45.318880788981914520263671875" lon="-71.0111445374786853790283203125">
        <ele>739.5999755859375</ele>
        <time>2026-08-21T21:04:23.000Z</time>
        <extensions>
          <ns3:TrackPointExtension>
            <ns3:hr>124</ns3:hr>
            <ns3:cad>59</ns3:cad>
          </ns3:TrackPointExtension>
        </extensions>
      </trkpt>
      <trkpt lat="45.3188819624483585357666015625" lon="-71.0111572779715061187744140625">
        <ele>739.4000244140625</ele>
        <time>2026-08-21T21:04:24.000Z</time>
        <extensions>
          <ns3:TrackPointExtension>
            <ns3:hr>124</ns3:hr>
            <ns3:cad>59</ns3:cad>
          </ns3:TrackPointExtension>
        </extensions>
      </trkpt>
      <trkpt lat="45.318882130086421966552734375" lon="-71.01116943173110485076904296875">
        <ele>739.20001220703125</ele>
        <time>2026-08-21T21:04:25.000Z</time>
        <extensions>
          <ns3:TrackPointExtension>
            <ns3:hr>124</ns3:hr>
            <ns3:cad>59</ns3:cad>
          </ns3:TrackPointExtension>
        </extensions>
      </trkpt>
      <trkpt lat="45.3188809566199779510498046875" lon="-71.011184938251972198486328125">
        <ele>739.20001220703125</ele>
        <time>2026-08-21T21:04:26.000Z</time>
        <extensions>
          <ns3:TrackPointExtension>
            <ns3:hr>124</ns3:hr>
            <ns3:cad>58</ns3:cad>
          </ns3:TrackPointExtension>
        </extensions>
      </trkpt>
      <trkpt lat="45.31888053752481937408447265625" lon="-71.0111921466886997222900390625">
        <ele>739</ele>
        <time>2026-08-21T21:04:27.000Z</time>
        <extensions>
          <ns3:TrackPointExtension>
            <ns3:hr>123</ns3:hr>
            <ns3:cad>57</ns3:cad>
          </ns3:TrackPointExtension>
        </extensions>
      </trkpt>
      <trkpt lat="45.31887919642031192779541015625" lon="-71.01119994185864925384521484375">
        <ele>738.79998779296875</ele>
        <time>2026-08-21T21:04:28.000Z</time>
        <extensions>
          <ns3:TrackPointExtension>
            <ns3:hr>123</ns3:hr>
            <ns3:cad>57</ns3:cad>
          </ns3:TrackPointExtension>
        </extensions>
      </trkpt>
      <trkpt lat="45.318874754011631011962890625" lon="-71.01121787913143634796142578125">
        <ele>738.5999755859375</ele>
        <time>2026-08-21T21:04:29.000Z</time>
        <extensions>
          <ns3:TrackPointExtension>
            <ns3:hr>122</ns3:hr>
            <ns3:cad>57</ns3:cad>
          </ns3:TrackPointExtension>
        </extensions>
      </trkpt>
      <trkpt lat="45.3188725747168064117431640625" lon="-71.01123950444161891937255859375">
        <ele>738.4000244140625</ele>
        <time>2026-08-21T21:04:30.000Z</time>
        <extensions>
          <ns3:TrackPointExtension>
            <ns3:hr>122</ns3:hr>
            <ns3:cad>57</ns3:cad>
          </ns3:TrackPointExtension>
        </extensions>
      </trkpt>
      <trkpt lat="45.3188739158213138580322265625" lon="-71.0112628899514675140380859375">
        <ele>738.4000244140625</ele>
        <time>2026-08-21T21:04:31.000Z</time>
        <extensions>
          <ns3:TrackPointExtension>
            <ns3:hr>122</ns3:hr>
            <ns3:cad>57</ns3:cad>
          </ns3:TrackPointExtension>
        </extensions>
      </trkpt>
      <trkpt lat="45.318873412907123565673828125" lon="-71.0112856887280941009521484375">
        <ele>738.4000244140625</ele>
        <time>2026-08-21T21:04:32.000Z</time>
        <extensions>
          <ns3:TrackPointExtension>
            <ns3:hr>121</ns3:hr>
            <ns3:cad>57</ns3:cad>
          </ns3:TrackPointExtension>
        </extensions>
      </trkpt>
      <trkpt lat="45.31887374818325042724609375" lon="-71.0113131813704967498779296875">
        <ele>738.20001220703125</ele>
        <time>2026-08-21T21:04:33.000Z</time>
        <extensions>
          <ns3:TrackPointExtension>
            <ns3:hr>121</ns3:hr>
            <ns3:cad>57</ns3:cad>
          </ns3:TrackPointExtension>
        </extensions>
      </trkpt>
      <trkpt lat="45.31887332908809185028076171875" lon="-71.01133774034678936004638671875">
        <ele>738</ele>
        <time>2026-08-21T21:04:34.000Z</time>
        <extensions>
          <ns3:TrackPointExtension>
            <ns3:hr>122</ns3:hr>
            <ns3:cad>65</ns3:cad>
          </ns3:TrackPointExtension>
        </extensions>
      </trkpt>
      <trkpt lat="45.318872071802616119384765625" lon="-71.01135953329503536224365234375">
        <ele>737.79998779296875</ele>
        <time>2026-08-21T21:04:35.000Z</time>
        <extensions>
          <ns3:TrackPointExtension>
            <ns3:hr>122</ns3:hr>
            <ns3:cad>65</ns3:cad>
          </ns3:TrackPointExtension>
        </extensions>
      </trkpt>
      <trkpt lat="45.31887064687907695770263671875" lon="-71.011383421719074249267578125">
        <ele>737.5999755859375</ele>
        <time>2026-08-21T21:04:36.000Z</time>
        <extensions>
          <ns3:TrackPointExtension>
            <ns3:hr>122</ns3:hr>
            <ns3:cad>65</ns3:cad>
          </ns3:TrackPointExtension>
        </extensions>
      </trkpt>
      <trkpt lat="45.31886704266071319580078125" lon="-71.01140228100121021270751953125">
        <ele>737.20001220703125</ele>
        <time>2026-08-21T21:04:37.000Z</time>
        <extensions>
          <ns3:TrackPointExtension>
            <ns3:hr>122</ns3:hr>
            <ns3:cad>65</ns3:cad>
          </ns3:TrackPointExtension>
        </extensions>
      </trkpt>
      <trkpt lat="45.31886025331914424896240234375" lon="-71.01142306812107563018798828125">
        <ele>736.79998779296875</ele>
        <time>2026-08-21T21:04:38.000Z</time>
        <extensions>
          <ns3:TrackPointExtension>
            <ns3:hr>122</ns3:hr>
            <ns3:cad>70</ns3:cad>
          </ns3:TrackPointExtension>
        </extensions>
      </trkpt>
      <trkpt lat="45.31885405071079730987548828125" lon="-71.01143999956548213958740234375">
        <ele>736.5999755859375</ele>
        <time>2026-08-21T21:04:39.000Z</time>
        <extensions>
          <ns3:TrackPointExtension>
            <ns3:hr>122</ns3:hr>
            <ns3:cad>70</ns3:cad>
          </ns3:TrackPointExtension>
        </extensions>
      </trkpt>
      <trkpt lat="45.3188494406640529632568359375" lon="-71.01146757602691650390625">
        <ele>736.20001220703125</ele>
        <time>2026-08-21T21:04:40.000Z</time>
        <extensions>
          <ns3:TrackPointExtension>
            <ns3:hr>122</ns3:hr>
            <ns3:cad>70</ns3:cad>
          </ns3:TrackPointExtension>
        </extensions>
      </trkpt>
      <trkpt lat="45.31884650699794292449951171875" lon="-71.01148442365229129791259765625">
        <ele>735.79998779296875</ele>
        <time>2026-08-21T21:04:41.000Z</time>
        <extensions>
          <ns3:TrackPointExtension>
            <ns3:hr>122</ns3:hr>
            <ns3:cad>72</ns3:cad>
          </ns3:TrackPointExtension>
        </extensions>
      </trkpt>
      <trkpt lat="45.318835191428661346435546875" lon="-71.01150252856314182281494140625">
        <ele>735.5999755859375</ele>
        <time>2026-08-21T21:04:42.000Z</time>
        <extensions>
          <ns3:TrackPointExtension>
            <ns3:hr>121</ns3:hr>
            <ns3:cad>72</ns3:cad>
          </ns3:TrackPointExtension>
        </extensions>
      </trkpt>
      <trkpt lat="45.31882773153483867645263671875" lon="-71.01151392795145511627197265625">
        <ele>735.5999755859375</ele>
        <time>2026-08-21T21:04:43.000Z</time>
        <extensions>
          <ns3:TrackPointExtension>
            <ns3:hr>122</ns3:hr>
            <ns3:cad>72</ns3:cad>
          </ns3:TrackPointExtension>
        </extensions>
      </trkpt>
      <trkpt lat="45.31881834380328655242919921875" lon="-71.011526919901371002197265625">
        <ele>735.4000244140625</ele>
        <time>2026-08-21T21:04:44.000Z</time>
        <extensions>
          <ns3:TrackPointExtension>
            <ns3:hr>122</ns3:hr>
            <ns3:cad>72</ns3:cad>
          </ns3:TrackPointExtension>
        </extensions>
      </trkpt>
      <trkpt lat="45.31881071627140045166015625" lon="-71.01153689436614513397216796875">
        <ele>735.4000244140625</ele>
        <time>2026-08-21T21:04:45.000Z</time>
        <extensions>
          <ns3:TrackPointExtension>
            <ns3:hr>122</ns3:hr>
            <ns3:cad>72</ns3:cad>
          </ns3:TrackPointExtension>
        </extensions>
      </trkpt>
      <trkpt lat="45.31879722140729427337646484375" lon="-71.0115465335547924041748046875">
        <ele>735.20001220703125</ele>
        <time>2026-08-21T21:04:46.000Z</time>
        <extensions>
          <ns3:TrackPointExtension>
            <ns3:hr>121</ns3:hr>
            <ns3:cad>72</ns3:cad>
          </ns3:TrackPointExtension>
        </extensions>
      </trkpt>
      <trkpt lat="45.3187820501625537872314453125" lon="-71.0115455277264118194580078125">
        <ele>735.20001220703125</ele>
        <time>2026-08-21T21:04:47.000Z</time>
        <extensions>
          <ns3:TrackPointExtension>
            <ns3:hr>121</ns3:hr>
            <ns3:cad>72</ns3:cad>
          </ns3:TrackPointExtension>
        </extensions>
      </trkpt>
      <trkpt lat="45.3187656216323375701904296875" lon="-71.01154929958283901214599609375">
        <ele>735</ele>
        <time>2026-08-21T21:04:48.000Z</time>
        <extensions>
          <ns3:TrackPointExtension>
            <ns3:hr>121</ns3:hr>
            <ns3:cad>0</ns3:cad>
          </ns3:TrackPointExtension>
        </extensions>
      </trkpt>
      <trkpt lat="45.3187548927962779998779296875" lon="-71.0115505568683147430419921875">
        <ele>735</ele>
        <time>2026-08-21T21:04:49.000Z</time>
        <extensions>
          <ns3:TrackPointExtension>
            <ns3:hr>121</ns3:hr>
            <ns3:cad>0</ns3:cad>
          </ns3:TrackPointExtension>
        </extensions>
      </trkpt>
      <trkpt lat="45.31874357722699642181396484375" lon="-71.0115629620850086212158203125">
        <ele>735</ele>
        <time>2026-08-21T21:04:50.000Z</time>
        <extensions>
          <ns3:TrackPointExtension>
            <ns3:hr>120</ns3:hr>
            <ns3:cad>0</ns3:cad>
          </ns3:TrackPointExtension>
        </extensions>
      </trkpt>
      <trkpt lat="45.318737290799617767333984375" lon="-71.01157729513943195343017578125">
        <ele>734.79998779296875</ele>
        <time>2026-08-21T21:04:51.000Z</time>
        <extensions>
          <ns3:TrackPointExtension>
            <ns3:hr>120</ns3:hr>
            <ns3:cad>0</ns3:cad>
          </ns3:TrackPointExtension>
        </extensions>
      </trkpt>
      <trkpt lat="45.31872983090579509735107421875" lon="-71.01159028708934783935546875">
        <ele>734.5999755859375</ele>
        <time>2026-08-21T21:04:52.000Z</time>
        <extensions>
          <ns3:TrackPointExtension>
            <ns3:hr>119</ns3:hr>
            <ns3:cad>0</ns3:cad>
          </ns3:TrackPointExtension>
        </extensions>
      </trkpt>
      <trkpt lat="45.318710803985595703125" lon="-71.01159757934510707855224609375">
        <ele>734.5999755859375</ele>
        <time>2026-08-21T21:04:53.000Z</time>
        <extensions>
          <ns3:TrackPointExtension>
            <ns3:hr>118</ns3:hr>
            <ns3:cad>0</ns3:cad>
          </ns3:TrackPointExtension>
        </extensions>
      </trkpt>
      <trkpt lat="45.31869781203567981719970703125" lon="-71.01160193793475627899169921875">
        <ele>734.5999755859375</ele>
        <time>2026-08-21T21:04:54.000Z</time>
        <extensions>
          <ns3:TrackPointExtension>
            <ns3:hr>117</ns3:hr>
            <ns3:cad>0</ns3:cad>
          </ns3:TrackPointExtension>
        </extensions>
      </trkpt>
      <trkpt lat="45.31868775375187397003173828125" lon="-71.01160344667732715606689453125">
        <ele>734.5999755859375</ele>
        <time>2026-08-21T21:04:55.000Z</time>
        <extensions>
          <ns3:TrackPointExtension>
            <ns3:hr>115</ns3:hr>
            <ns3:cad>0</ns3:cad>
          </ns3:TrackPointExtension>
        </extensions>
      </trkpt>
      <trkpt lat="45.31867434270679950714111328125" lon="-71.01159992627799510955810546875">
        <ele>734.5999755859375</ele>
        <time>2026-08-21T21:04:56.000Z</time>
        <extensions>
          <ns3:TrackPointExtension>
            <ns3:hr>114</ns3:hr>
            <ns3:cad>0</ns3:cad>
          </ns3:TrackPointExtension>
        </extensions>
      </trkpt>
      <trkpt lat="45.31866344623267650604248046875" lon="-71.0116001777350902557373046875">
        <ele>734.5999755859375</ele>
        <time>2026-08-21T21:04:57.000Z</time>
        <extensions>
          <ns3:TrackPointExtension>
            <ns3:hr>113</ns3:hr>
            <ns3:cad>0</ns3:cad>
          </ns3:TrackPointExtension>
        </extensions>
      </trkpt>
      <trkpt lat="45.31864953227341175079345703125" lon="-71.011600680649280548095703125">
        <ele>734.79998779296875</ele>
        <time>2026-08-21T21:04:58.000Z</time>
        <extensions>
          <ns3:TrackPointExtension>
            <ns3:hr>113</ns3:hr>
            <ns3:cad>0</ns3:cad>
          </ns3:TrackPointExtension>
        </extensions>
      </trkpt>
      <trkpt lat="45.3186439163982868194580078125" lon="-71.011605374515056610107421875">
        <ele>735</ele>
        <time>2026-08-21T21:04:59.000Z</time>
        <extensions>
          <ns3:TrackPointExtension>
            <ns3:hr>112</ns3:hr>
            <ns3:cad>0</ns3:cad>
          </ns3:TrackPointExtension>
        </extensions>
      </trkpt>
      <trkpt lat="45.31862807460129261016845703125" lon="-71.01161777973175048828125">
        <ele>735.20001220703125</ele>
        <time>2026-08-21T21:05:00.000Z</time>
        <extensions>
          <ns3:TrackPointExtension>
            <ns3:hr>112</ns3:hr>
            <ns3:cad>0</ns3:cad>
          </ns3:TrackPointExtension>
        </extensions>
      </trkpt>
      <trkpt lat="45.31861516647040843963623046875" lon="-71.011626161634922027587890625">
        <ele>735.20001220703125</ele>
        <time>2026-08-21T21:05:01.000Z</time>
        <extensions>
          <ns3:TrackPointExtension>
            <ns3:hr>113</ns3:hr>
            <ns3:cad>0</ns3:cad>
          </ns3:TrackPointExtension>
        </extensions>
      </trkpt>
      <trkpt lat="45.3186016716063022613525390625" lon="-71.01163647137582302093505859375">
        <ele>735.20001220703125</ele>
        <time>2026-08-21T21:05:02.000Z</time>
        <extensions>
          <ns3:TrackPointExtension>
            <ns3:hr>114</ns3:hr>
            <ns3:cad>0</ns3:cad>
          </ns3:TrackPointExtension>
        </extensions>
      </trkpt>
      <trkpt lat="45.31859102658927440643310546875" lon="-71.01164552383124828338623046875">
        <ele>735.20001220703125</ele>
        <time>2026-08-21T21:05:03.000Z</time>
        <extensions>
          <ns3:TrackPointExtension>
            <ns3:hr>115</ns3:hr>
            <ns3:cad>53</ns3:cad>
          </ns3:TrackPointExtension>
        </extensions>
      </trkpt>
      <trkpt lat="45.318573676049709320068359375" lon="-71.01165038533508777618408203125">
        <ele>735.20001220703125</ele>
        <time>2026-08-21T21:05:04.000Z</time>
        <extensions>
          <ns3:TrackPointExtension>
            <ns3:hr>116</ns3:hr>
            <ns3:cad>53</ns3:cad>
          </ns3:TrackPointExtension>
        </extensions>
      </trkpt>
      <trkpt lat="45.3185611031949520111083984375" lon="-71.01166547276079654693603515625">
        <ele>735</ele>
        <time>2026-08-21T21:05:05.000Z</time>
        <extensions>
          <ns3:TrackPointExtension>
            <ns3:hr>116</ns3:hr>
            <ns3:cad>53</ns3:cad>
          </ns3:TrackPointExtension>
        </extensions>
      </trkpt>
      <trkpt lat="45.3185513801872730255126953125" lon="-71.01168072782456874847412109375">
        <ele>734.79998779296875</ele>
        <time>2026-08-21T21:05:06.000Z</time>
        <extensions>
          <ns3:TrackPointExtension>
            <ns3:hr>116</ns3:hr>
            <ns3:cad>53</ns3:cad>
          </ns3:TrackPointExtension>
        </extensions>
      </trkpt>
      <trkpt lat="45.31853570602834224700927734375" lon="-71.01169900037348270416259765625">
        <ele>734.5999755859375</ele>
        <time>2026-08-21T21:05:07.000Z</time>
        <extensions>
          <ns3:TrackPointExtension>
            <ns3:hr>116</ns3:hr>
            <ns3:cad>53</ns3:cad>
          </ns3:TrackPointExtension>
        </extensions>
      </trkpt>
      <trkpt lat="45.31852765940129756927490234375" lon="-71.0117145068943500518798828125">
        <ele>734.4000244140625</ele>
        <time>2026-08-21T21:05:08.000Z</time>
        <extensions>
          <ns3:TrackPointExtension>
            <ns3:hr>115</ns3:hr>
            <ns3:cad>56</ns3:cad>
          </ns3:TrackPointExtension>
        </extensions>
      </trkpt>
      <trkpt lat="45.31852028332650661468505859375" lon="-71.01172883994877338409423828125">
        <ele>734.20001220703125</ele>
        <time>2026-08-21T21:05:09.000Z</time>
        <extensions>
          <ns3:TrackPointExtension>
            <ns3:hr>115</ns3:hr>
            <ns3:cad>56</ns3:cad>
          </ns3:TrackPointExtension>
        </extensions>
      </trkpt>
      <trkpt lat="45.31850938685238361358642578125" lon="-71.0117510519921779632568359375">
        <ele>734</ele>
        <time>2026-08-21T21:05:10.000Z</time>
        <extensions>
          <ns3:TrackPointExtension>
            <ns3:hr>115</ns3:hr>
            <ns3:cad>56</ns3:cad>
          </ns3:TrackPointExtension>
        </extensions>
      </trkpt>
      <trkpt lat="45.31850083731114864349365234375" lon="-71.01176756434142589569091796875">
        <ele>733.79998779296875</ele>
        <time>2026-08-21T21:05:11.000Z</time>
        <extensions>
          <ns3:TrackPointExtension>
            <ns3:hr>115</ns3:hr>
            <ns3:cad>56</ns3:cad>
          </ns3:TrackPointExtension>
        </extensions>
      </trkpt>
      <trkpt lat="45.3184933774173259735107421875" lon="-71.0117872618138790130615234375">
        <ele>733.4000244140625</ele>
        <time>2026-08-21T21:05:12.000Z</time>
        <extensions>
          <ns3:TrackPointExtension>
            <ns3:hr>115</ns3:hr>
            <ns3:cad>56</ns3:cad>
          </ns3:TrackPointExtension>
        </extensions>
      </trkpt>
      <trkpt lat="45.3184870071709156036376953125" lon="-71.01180486381053924560546875">
        <ele>733.20001220703125</ele>
        <time>2026-08-21T21:05:13.000Z</time>
        <extensions>
          <ns3:TrackPointExtension>
            <ns3:hr>114</ns3:hr>
            <ns3:cad>56</ns3:cad>
          </ns3:TrackPointExtension>
        </extensions>
      </trkpt>
      <trkpt lat="45.318481139838695526123046875" lon="-71.011823303997516632080078125">
        <ele>733</ele>
        <time>2026-08-21T21:05:14.000Z</time>
        <extensions>
          <ns3:TrackPointExtension>
            <ns3:hr>114</ns3:hr>
            <ns3:cad>56</ns3:cad>
          </ns3:TrackPointExtension>
        </extensions>
      </trkpt>
      <trkpt lat="45.3184803016483783721923828125" lon="-71.01184786297380924224853515625">
        <ele>732.79998779296875</ele>
        <time>2026-08-21T21:05:15.000Z</time>
        <extensions>
          <ns3:TrackPointExtension>
            <ns3:hr>114</ns3:hr>
            <ns3:cad>56</ns3:cad>
          </ns3:TrackPointExtension>
        </extensions>
      </trkpt>
      <trkpt lat="45.318484492599964141845703125" lon="-71.01186915300786495208740234375">
        <ele>732.4000244140625</ele>
        <time>2026-08-21T21:05:16.000Z</time>
        <extensions>
          <ns3:TrackPointExtension>
            <ns3:hr>115</ns3:hr>
            <ns3:cad>56</ns3:cad>
          </ns3:TrackPointExtension>
        </extensions>
      </trkpt>
      <trkpt lat="45.31848859973251819610595703125" lon="-71.01188776083290576934814453125">
        <ele>732.20001220703125</ele>
        <time>2026-08-21T21:05:17.000Z</time>
        <extensions>
          <ns3:TrackPointExtension>
            <ns3:hr>115</ns3:hr>
            <ns3:cad>56</ns3:cad>
          </ns3:TrackPointExtension>
        </extensions>
      </trkpt>
      <trkpt lat="45.3184947185218334197998046875" lon="-71.011911816895008087158203125">
        <ele>732</ele>
        <time>2026-08-21T21:05:18.000Z</time>
        <extensions>
          <ns3:TrackPointExtension>
            <ns3:hr>116</ns3:hr>
            <ns3:cad>56</ns3:cad>
          </ns3:TrackPointExtension>
        </extensions>
      </trkpt>
      <trkpt lat="45.31850066967308521270751953125" lon="-71.01193151436746120452880859375">
        <ele>731.79998779296875</ele>
        <time>2026-08-21T21:05:19.000Z</time>
        <extensions>
          <ns3:TrackPointExtension>
            <ns3:hr>116</ns3:hr>
            <ns3:cad>56</ns3:cad>
          </ns3:TrackPointExtension>
        </extensions>
      </trkpt>
      <trkpt lat="45.318509638309478759765625" lon="-71.01194878108799457550048828125">
        <ele>731.4000244140625</ele>
        <time>2026-08-21T21:05:20.000Z</time>
        <extensions>
          <ns3:TrackPointExtension>
            <ns3:hr>116</ns3:hr>
            <ns3:cad>56</ns3:cad>
          </ns3:TrackPointExtension>
        </extensions>
      </trkpt>
      <trkpt lat="45.31852237880229949951171875" lon="-71.01196504198014736175537109375">
        <ele>731.20001220703125</ele>
        <time>2026-08-21T21:05:21.000Z</time>
        <extensions>
          <ns3:TrackPointExtension>
            <ns3:hr>115</ns3:hr>
            <ns3:cad>56</ns3:cad>
          </ns3:TrackPointExtension>
        </extensions>
      </trkpt>
      <trkpt lat="45.31852908432483673095703125" lon="-71.0119763575494289398193359375">
        <ele>730.79998779296875</ele>
        <time>2026-08-21T21:05:22.000Z</time>
        <extensions>
          <ns3:TrackPointExtension>
            <ns3:hr>116</ns3:hr>
            <ns3:cad>73</ns3:cad>
          </ns3:TrackPointExtension>
        </extensions>
      </trkpt>
      <trkpt lat="45.31854157336056232452392578125" lon="-71.0119847394526004791259765625">
        <ele>730.4000244140625</ele>
        <time>2026-08-21T21:05:23.000Z</time>
        <extensions>
          <ns3:TrackPointExtension>
            <ns3:hr>116</ns3:hr>
            <ns3:cad>73</ns3:cad>
          </ns3:TrackPointExtension>
        </extensions>
      </trkpt>
      <trkpt lat="45.3185530565679073333740234375" lon="-71.0119907744228839874267578125">
        <ele>730.20001220703125</ele>
        <time>2026-08-21T21:05:24.000Z</time>
        <extensions>
          <ns3:TrackPointExtension>
            <ns3:hr>116</ns3:hr>
            <ns3:cad>73</ns3:cad>
          </ns3:TrackPointExtension>
        </extensions>
      </trkpt>
      <trkpt lat="45.31856060028076171875" lon="-71.01199664175510406494140625">
        <ele>729.79998779296875</ele>
        <time>2026-08-21T21:05:25.000Z</time>
        <extensions>
          <ns3:TrackPointExtension>
            <ns3:hr>117</ns3:hr>
            <ns3:cad>73</ns3:cad>
          </ns3:TrackPointExtension>
        </extensions>
      </trkpt>
      <trkpt lat="45.31857091002166271209716796875" lon="-71.01201013661921024322509765625">
        <ele>729.20001220703125</ele>
        <time>2026-08-21T21:05:26.000Z</time>
        <extensions>
          <ns3:TrackPointExtension>
            <ns3:hr>117</ns3:hr>
            <ns3:cad>73</ns3:cad>
          </ns3:TrackPointExtension>
        </extensions>
      </trkpt>
      <trkpt lat="45.3185748495161533355712890625" lon="-71.012017093598842620849609375">
        <ele>728.79998779296875</ele>
        <time>2026-08-21T21:05:27.000Z</time>
        <extensions>
          <ns3:TrackPointExtension>
            <ns3:hr>118</ns3:hr>
            <ns3:cad>73</ns3:cad>
          </ns3:TrackPointExtension>
        </extensions>
      </trkpt>
      <trkpt lat="45.318582393229007720947265625" lon="-71.01202388294041156768798828125">
        <ele>728.4000244140625</ele>
        <time>2026-08-21T21:05:28.000Z</time>
        <extensions>
          <ns3:TrackPointExtension>
            <ns3:hr>118</ns3:hr>
            <ns3:cad>73</ns3:cad>
          </ns3:TrackPointExtension>
        </extensions>
      </trkpt>
      <trkpt lat="45.3185887634754180908203125" lon="-71.0120276547968387603759765625">
        <ele>728</ele>
        <time>2026-08-21T21:05:29.000Z</time>
        <extensions>
          <ns3:TrackPointExtension>
            <ns3:hr>117</ns3:hr>
            <ns3:cad>0</ns3:cad>
          </ns3:TrackPointExtension>
        </extensions>
      </trkpt>
      <trkpt lat="45.3185968101024627685546875" lon="-71.01203561760485172271728515625">
        <ele>727.5999755859375</ele>
        <time>2026-08-21T21:05:30.000Z</time>
        <extensions>
          <ns3:TrackPointExtension>
            <ns3:hr>117</ns3:hr>
            <ns3:cad>0</ns3:cad>
          </ns3:TrackPointExtension>
        </extensions>
      </trkpt>
      <trkpt lat="45.3186080418527126312255859375" lon="-71.01204483769834041595458984375">
        <ele>727</ele>
        <time>2026-08-21T21:05:31.000Z</time>
        <extensions>
          <ns3:TrackPointExtension>
            <ns3:hr>116</ns3:hr>
            <ns3:cad>0</ns3:cad>
          </ns3:TrackPointExtension>
        </extensions>
      </trkpt>
      <trkpt lat="45.31861734576523303985595703125" lon="-71.012049280107021331787109375">
        <ele>726.4000244140625</ele>
        <time>2026-08-21T21:05:32.000Z</time>
        <extensions>
          <ns3:TrackPointExtension>
            <ns3:hr>116</ns3:hr>
            <ns3:cad>0</ns3:cad>
          </ns3:TrackPointExtension>
        </extensions>
      </trkpt>
      <trkpt lat="45.3186268173158168792724609375" lon="-71.01204768754541873931884765625">
        <ele>726</ele>
        <time>2026-08-21T21:05:33.000Z</time>
        <extensions>
          <ns3:TrackPointExtension>
            <ns3:hr>116</ns3:hr>
            <ns3:cad>0</ns3:cad>
          </ns3:TrackPointExtension>
        </extensions>
      </trkpt>
      <trkpt lat="45.31863662414252758026123046875" lon="-71.0120558179914951324462890625">
        <ele>725.4000244140625</ele>
        <time>2026-08-21T21:05:34.000Z</time>
        <extensions>
          <ns3:TrackPointExtension>
            <ns3:hr>116</ns3:hr>
            <ns3:cad>0</ns3:cad>
          </ns3:TrackPointExtension>
        </extensions>
      </trkpt>
      <trkpt lat="45.31863880343735218048095703125" lon="-71.01206880994141101837158203125">
        <ele>725</ele>
        <time>2026-08-21T21:05:35.000Z</time>
        <extensions>
          <ns3:TrackPointExtension>
            <ns3:hr>117</ns3:hr>
            <ns3:cad>0</ns3:cad>
          </ns3:TrackPointExtension>
        </extensions>
      </trkpt>
      <trkpt lat="45.318643413484096527099609375" lon="-71.01208188571035861968994140625">
        <ele>724.4000244140625</ele>
        <time>2026-08-21T21:05:36.000Z</time>
        <extensions>
          <ns3:TrackPointExtension>
            <ns3:hr>118</ns3:hr>
            <ns3:cad>0</ns3:cad>
          </ns3:TrackPointExtension>
        </extensions>
      </trkpt>
      <trkpt lat="45.3186459280550479888916015625" lon="-71.01208574138581752777099609375">
        <ele>724</ele>
        <time>2026-08-21T21:05:37.000Z</time>
        <extensions>
          <ns3:TrackPointExtension>
            <ns3:hr>118</ns3:hr>
            <ns3:cad>0</ns3:cad>
          </ns3:TrackPointExtension>
        </extensions>
      </trkpt>
      <trkpt lat="45.318648107349872589111328125" lon="-71.01209898479282855987548828125">
        <ele>723.5999755859375</ele>
        <time>2026-08-21T21:05:38.000Z</time>
        <extensions>
          <ns3:TrackPointExtension>
            <ns3:hr>118</ns3:hr>
            <ns3:cad>0</ns3:cad>
          </ns3:TrackPointExtension>
        </extensions>
      </trkpt>
      <trkpt lat="45.318657495081424713134765625" lon="-71.0121072828769683837890625">
        <ele>723.4000244140625</ele>
        <time>2026-08-21T21:05:39.000Z</time>
        <extensions>
          <ns3:TrackPointExtension>
            <ns3:hr>117</ns3:hr>
            <ns3:cad>0</ns3:cad>
          </ns3:TrackPointExtension>
        </extensions>
      </trkpt>
      <trkpt lat="45.318666212260723114013671875" lon="-71.0121180117130279541015625">
        <ele>723</ele>
        <time>2026-08-21T21:05:40.000Z</time>
        <extensions>
          <ns3:TrackPointExtension>
            <ns3:hr>118</ns3:hr>
            <ns3:cad>0</ns3:cad>
          </ns3:TrackPointExtension>
        </extensions>
      </trkpt>
      <trkpt lat="45.3186714090406894683837890625" lon="-71.01212806999683380126953125">
        <ele>722.4000244140625</ele>
        <time>2026-08-21T21:05:41.000Z</time>
        <extensions>
          <ns3:TrackPointExtension>
            <ns3:hr>118</ns3:hr>
            <ns3:cad>0</ns3:cad>
          </ns3:TrackPointExtension>
        </extensions>
      </trkpt>
      <trkpt lat="45.31867618672549724578857421875" lon="-71.01214374415576457977294921875">
        <ele>722</ele>
        <time>2026-08-21T21:05:42.000Z</time>
        <extensions>
          <ns3:TrackPointExtension>
            <ns3:hr>118</ns3:hr>
            <ns3:cad>68</ns3:cad>
          </ns3:TrackPointExtension>
        </extensions>
      </trkpt>
      <trkpt lat="45.318679623305797576904296875" lon="-71.0121555626392364501953125">
        <ele>721.4000244140625</ele>
        <time>2026-08-21T21:05:43.000Z</time>
        <extensions>
          <ns3:TrackPointExtension>
            <ns3:hr>118</ns3:hr>
            <ns3:cad>68</ns3:cad>
          </ns3:TrackPointExtension>
        </extensions>
      </trkpt>
      <trkpt lat="45.31868238933384418487548828125" lon="-71.01216050796210765838623046875">
        <ele>721.20001220703125</ele>
        <time>2026-08-21T21:05:44.000Z</time>
        <extensions>
          <ns3:TrackPointExtension>
            <ns3:hr>118</ns3:hr>
            <ns3:cad>0</ns3:cad>
          </ns3:TrackPointExtension>
        </extensions>
      </trkpt>
      <trkpt lat="45.3186901845037937164306640625" lon="-71.01216536946594715118408203125">
        <ele>720.79998779296875</ele>
        <time>2026-08-21T21:05:45.000Z</time>
        <extensions>
          <ns3:TrackPointExtension>
            <ns3:hr>118</ns3:hr>
            <ns3:cad>0</ns3:cad>
          </ns3:TrackPointExtension>
        </extensions>
      </trkpt>
      <trkpt lat="45.31870150007307529449462890625" lon="-71.01217157207429409027099609375">
        <ele>720.5999755859375</ele>
        <time>2026-08-21T21:05:46.000Z</time>
        <extensions>
          <ns3:TrackPointExtension>
            <ns3:hr>116</ns3:hr>
            <ns3:cad>0</ns3:cad>
          </ns3:TrackPointExtension>
        </extensions>
      </trkpt>
      <trkpt lat="45.31870745122432708740234375" lon="-71.012177355587482452392578125">
        <ele>720.5999755859375</ele>
        <time>2026-08-21T21:05:47.000Z</time>
        <extensions>
          <ns3:TrackPointExtension>
            <ns3:hr>116</ns3:hr>
            <ns3:cad>0</ns3:cad>
          </ns3:TrackPointExtension>
        </extensions>
      </trkpt>
      <trkpt lat="45.3187186829745769500732421875" lon="-71.0121785290539264678955078125">
        <ele>720.4000244140625</ele>
        <time>2026-08-21T21:05:48.000Z</time>
        <extensions>
          <ns3:TrackPointExtension>
            <ns3:hr>116</ns3:hr>
            <ns3:cad>0</ns3:cad>
          </ns3:TrackPointExtension>
        </extensions>
      </trkpt>
      <trkpt lat="45.31872563995420932769775390625" lon="-71.01217324845492839813232421875">
        <ele>720.20001220703125</ele>
        <time>2026-08-21T21:05:49.000Z</time>
        <extensions>
          <ns3:TrackPointExtension>
            <ns3:hr>116</ns3:hr>
            <ns3:cad>0</ns3:cad>
          </ns3:TrackPointExtension>
        </extensions>
      </trkpt>
      <trkpt lat="45.31873167492449283599853515625" lon="-71.01217274554073810577392578125">
        <ele>720</ele>
        <time>2026-08-21T21:05:50.000Z</time>
        <extensions>
          <ns3:TrackPointExtension>
            <ns3:hr>116</ns3:hr>
            <ns3:cad>0</ns3:cad>
          </ns3:TrackPointExtension>
        </extensions>
      </trkpt>
      <trkpt lat="45.318740643560886383056640625" lon="-71.01217559538781642913818359375">
        <ele>719.79998779296875</ele>
        <time>2026-08-21T21:05:51.000Z</time>
        <extensions>
          <ns3:TrackPointExtension>
            <ns3:hr>117</ns3:hr>
            <ns3:cad>0</ns3:cad>
          </ns3:TrackPointExtension>
        </extensions>
      </trkpt>
      <trkpt lat="45.31874994747340679168701171875" lon="-71.012179367244243621826171875">
        <ele>719.5999755859375</ele>
        <time>2026-08-21T21:05:52.000Z</time>
        <extensions>
          <ns3:TrackPointExtension>
            <ns3:hr>117</ns3:hr>
            <ns3:cad>0</ns3:cad>
          </ns3:TrackPointExtension>
        </extensions>
      </trkpt>
      <trkpt lat="45.3187555633485317230224609375" lon="-71.01218573749065399169921875">
        <ele>719.20001220703125</ele>
        <time>2026-08-21T21:05:53.000Z</time>
        <extensions>
          <ns3:TrackPointExtension>
            <ns3:hr>117</ns3:hr>
            <ns3:cad>0</ns3:cad>
          </ns3:TrackPointExtension>
        </extensions>
      </trkpt>
      <trkpt lat="45.31876117922365665435791015625" lon="-71.01219520904123783111572265625">
        <ele>719</ele>
        <time>2026-08-21T21:05:54.000Z</time>
        <extensions>
          <ns3:TrackPointExtension>
            <ns3:hr>117</ns3:hr>
            <ns3:cad>0</ns3:cad>
          </ns3:TrackPointExtension>
        </extensions>
      </trkpt>
      <trkpt lat="45.31877182424068450927734375" lon="-71.012205518782138824462890625">
        <ele>718.5999755859375</ele>
        <time>2026-08-21T21:05:55.000Z</time>
        <extensions>
          <ns3:TrackPointExtension>
            <ns3:hr>118</ns3:hr>
            <ns3:cad>0</ns3:cad>
          </ns3:TrackPointExtension>
        </extensions>
      </trkpt>
      <trkpt lat="45.31878255307674407958984375" lon="-71.0122113861143589019775390625">
        <ele>718.4000244140625</ele>
        <time>2026-08-21T21:05:56.000Z</time>
        <extensions>
          <ns3:TrackPointExtension>
            <ns3:hr>117</ns3:hr>
            <ns3:cad>0</ns3:cad>
          </ns3:TrackPointExtension>
        </extensions>
      </trkpt>
      <trkpt lat="45.31879319809377193450927734375" lon="-71.01221767254173755645751953125">
        <ele>718</ele>
        <time>2026-08-21T21:05:57.000Z</time>
        <extensions>
          <ns3:TrackPointExtension>
            <ns3:hr>117</ns3:hr>
            <ns3:cad>0</ns3:cad>
          </ns3:TrackPointExtension>
        </extensions>
      </trkpt>
      <trkpt lat="45.31880308873951435089111328125" lon="-71.0122306644916534423828125">
        <ele>717.79998779296875</ele>
        <time>2026-08-21T21:05:58.000Z</time>
        <extensions>
          <ns3:TrackPointExtension>
            <ns3:hr>117</ns3:hr>
            <ns3:cad>0</ns3:cad>
          </ns3:TrackPointExtension>
        </extensions>
      </trkpt>
      <trkpt lat="45.31880895607173442840576171875" lon="-71.01224449463188648223876953125">
        <ele>717.4000244140625</ele>
        <time>2026-08-21T21:05:59.000Z</time>
        <extensions>
          <ns3:TrackPointExtension>
            <ns3:hr>117</ns3:hr>
            <ns3:cad>0</ns3:cad>
          </ns3:TrackPointExtension>
        </extensions>
      </trkpt>
      <trkpt lat="45.31881197355687618255615234375" lon="-71.012269891798496246337890625">
        <ele>717.20001220703125</ele>
        <time>2026-08-21T21:06:00.000Z</time>
        <extensions>
          <ns3:TrackPointExtension>
            <ns3:hr>116</ns3:hr>
            <ns3:cad>0</ns3:cad>
          </ns3:TrackPointExtension>
        </extensions>
      </trkpt>
      <trkpt lat="45.3188185952603816986083984375" lon="-71.012288667261600494384765625">
        <ele>717</ele>
        <time>2026-08-21T21:06:01.000Z</time>
        <extensions>
          <ns3:TrackPointExtension>
            <ns3:hr>116</ns3:hr>
            <ns3:cad>64</ns3:cad>
          </ns3:TrackPointExtension>
        </extensions>
      </trkpt>
      <trkpt lat="45.318821109831333160400390625" lon="-71.012311466038227081298828125">
        <ele>716.5999755859375</ele>
        <time>2026-08-21T21:06:02.000Z</time>
        <extensions>
          <ns3:TrackPointExtension>
            <ns3:hr>116</ns3:hr>
            <ns3:cad>0</ns3:cad>
          </ns3:TrackPointExtension>
        </extensions>
      </trkpt>
      <trkpt lat="45.3188226185739040374755859375" lon="-71.01232630200684070587158203125">
        <ele>716.20001220703125</ele>
        <time>2026-08-21T21:06:03.000Z</time>
        <extensions>
          <ns3:TrackPointExtension>
            <ns3:hr>116</ns3:hr>
            <ns3:cad>0</ns3:cad>
          </ns3:TrackPointExtension>
        </extensions>
      </trkpt>
      <trkpt lat="45.3188182599842548370361328125" lon="-71.01234692148864269256591796875">
        <ele>715.79998779296875</ele>
        <time>2026-08-21T21:06:04.000Z</time>
        <extensions>
          <ns3:TrackPointExtension>
            <ns3:hr>116</ns3:hr>
            <ns3:cad>0</ns3:cad>
          </ns3:TrackPointExtension>
        </extensions>
      </trkpt>
      <trkpt lat="45.3188152424991130828857421875" lon="-71.01236519403755664825439453125">
        <ele>715.20001220703125</ele>
        <time>2026-08-21T21:06:05.000Z</time>
        <extensions>
          <ns3:TrackPointExtension>
            <ns3:hr>116</ns3:hr>
            <ns3:cad>0</ns3:cad>
          </ns3:TrackPointExtension>
        </extensions>
      </trkpt>
      <trkpt lat="45.3188092075288295745849609375" lon="-71.01237826980650424957275390625">
        <ele>714.79998779296875</ele>
        <time>2026-08-21T21:06:06.000Z</time>
        <extensions>
          <ns3:TrackPointExtension>
            <ns3:hr>116</ns3:hr>
            <ns3:cad>0</ns3:cad>
          </ns3:TrackPointExtension>
        </extensions>
      </trkpt>
      <trkpt lat="45.3188025020062923431396484375" lon="-71.01238396950066089630126953125">
        <ele>714.4000244140625</ele>
        <time>2026-08-21T21:06:07.000Z</time>
        <extensions>
          <ns3:TrackPointExtension>
            <ns3:hr>117</ns3:hr>
            <ns3:cad>0</ns3:cad>
          </ns3:TrackPointExtension>
        </extensions>
      </trkpt>
      <trkpt lat="45.3187899291515350341796875" lon="-71.01239670999348163604736328125">
        <ele>714</ele>
        <time>2026-08-21T21:06:08.000Z</time>
        <extensions>
          <ns3:TrackPointExtension>
            <ns3:hr>117</ns3:hr>
            <ns3:cad>0</ns3:cad>
          </ns3:TrackPointExtension>
        </extensions>
      </trkpt>
      <trkpt lat="45.31879051588475704193115234375" lon="-71.01242504082620143890380859375">
        <ele>713.5999755859375</ele>
        <time>2026-08-21T21:06:09.000Z</time>
        <extensions>
          <ns3:TrackPointExtension>
            <ns3:hr>118</ns3:hr>
            <ns3:cad>0</ns3:cad>
          </ns3:TrackPointExtension>
        </extensions>
      </trkpt>
      <trkpt lat="45.31878934241831302642822265625" lon="-71.01244448684155941009521484375">
        <ele>713.20001220703125</ele>
        <time>2026-08-21T21:06:10.000Z</time>
        <extensions>
          <ns3:TrackPointExtension>
            <ns3:hr>118</ns3:hr>
            <ns3:cad>0</ns3:cad>
          </ns3:TrackPointExtension>
        </extensions>
      </trkpt>
      <trkpt lat="45.31878816895186901092529296875" lon="-71.01246912963688373565673828125">
        <ele>712.79998779296875</ele>
        <time>2026-08-21T21:06:11.000Z</time>
        <extensions>
          <ns3:TrackPointExtension>
            <ns3:hr>118</ns3:hr>
            <ns3:cad>77</ns3:cad>
          </ns3:TrackPointExtension>
        </extensions>
      </trkpt>
      <trkpt lat="45.318784229457378387451171875" lon="-71.01249628700315952301025390625">
        <ele>712.4000244140625</ele>
        <time>2026-08-21T21:06:12.000Z</time>
        <extensions>
          <ns3:TrackPointExtension>
            <ns3:hr>118</ns3:hr>
            <ns3:cad>77</ns3:cad>
          </ns3:TrackPointExtension>
        </extensions>
      </trkpt>
      <trkpt lat="45.3187813796103000640869140625" lon="-71.01251992397010326385498046875">
        <ele>712</ele>
        <time>2026-08-21T21:06:13.000Z</time>
        <extensions>
          <ns3:TrackPointExtension>
            <ns3:hr>118</ns3:hr>
            <ns3:cad>77</ns3:cad>
          </ns3:TrackPointExtension>
        </extensions>
      </trkpt>
      <trkpt lat="45.3187843970954418182373046875" lon="-71.0125496797263622283935546875">
        <ele>711.4000244140625</ele>
        <time>2026-08-21T21:06:14.000Z</time>
        <extensions>
          <ns3:TrackPointExtension>
            <ns3:hr>118</ns3:hr>
            <ns3:cad>77</ns3:cad>
          </ns3:TrackPointExtension>
        </extensions>
      </trkpt>
      <trkpt lat="45.3187904320657253265380859375" lon="-71.012574993073940277099609375">
        <ele>711</ele>
        <time>2026-08-21T21:06:15.000Z</time>
        <extensions>
          <ns3:TrackPointExtension>
            <ns3:hr>119</ns3:hr>
            <ns3:cad>77</ns3:cad>
          </ns3:TrackPointExtension>
        </extensions>
      </trkpt>
      <trkpt lat="45.3187961317598819732666015625" lon="-71.0125993005931377410888671875">
        <ele>710.4000244140625</ele>
        <time>2026-08-21T21:06:16.000Z</time>
        <extensions>
          <ns3:TrackPointExtension>
            <ns3:hr>118</ns3:hr>
            <ns3:cad>77</ns3:cad>
          </ns3:TrackPointExtension>
        </extensions>
      </trkpt>
      <trkpt lat="45.3188028372824192047119140625" lon="-71.01262972690165042877197265625">
        <ele>710</ele>
        <time>2026-08-21T21:06:17.000Z</time>
        <extensions>
          <ns3:TrackPointExtension>
            <ns3:hr>118</ns3:hr>
            <ns3:cad>77</ns3:cad>
          </ns3:TrackPointExtension>
        </extensions>
      </trkpt>
      <trkpt lat="45.31880694441497325897216796875" lon="-71.01265118457376956939697265625">
        <ele>709.5999755859375</ele>
        <time>2026-08-21T21:06:18.000Z</time>
        <extensions>
          <ns3:TrackPointExtension>
            <ns3:hr>119</ns3:hr>
            <ns3:cad>77</ns3:cad>
          </ns3:TrackPointExtension>
        </extensions>
      </trkpt>
      <trkpt lat="45.3188025020062923431396484375" lon="-71.01266727782785892486572265625">
        <ele>709.20001220703125</ele>
        <time>2026-08-21T21:06:19.000Z</time>
        <extensions>
          <ns3:TrackPointExtension>
            <ns3:hr>121</ns3:hr>
            <ns3:cad>77</ns3:cad>
          </ns3:TrackPointExtension>
        </extensions>
      </trkpt>
      <trkpt lat="45.31879152171313762664794921875" lon="-71.01268555037677288055419921875">
        <ele>709</ele>
        <time>2026-08-21T21:06:20.000Z</time>
        <extensions>
          <ns3:TrackPointExtension>
            <ns3:hr>122</ns3:hr>
            <ns3:cad>77</ns3:cad>
          </ns3:TrackPointExtension>
        </extensions>
      </trkpt>
      <trkpt lat="45.31878121197223663330078125" lon="-71.01269326172769069671630859375">
        <ele>708.79998779296875</ele>
        <time>2026-08-21T21:06:21.000Z</time>
        <extensions>
          <ns3:TrackPointExtension>
            <ns3:hr>123</ns3:hr>
            <ns3:cad>79</ns3:cad>
          </ns3:TrackPointExtension>
        </extensions>
      </trkpt>
      <trkpt lat="45.31877123750746250152587890625" lon="-71.01269829086959362030029296875">
        <ele>708.5999755859375</ele>
        <time>2026-08-21T21:06:22.000Z</time>
        <extensions>
          <ns3:TrackPointExtension>
            <ns3:hr>123</ns3:hr>
            <ns3:cad>79</ns3:cad>
          </ns3:TrackPointExtension>
        </extensions>
      </trkpt>
      <trkpt lat="45.31876034103333950042724609375" lon="-71.01270684041082859039306640625">
        <ele>708.20001220703125</ele>
        <time>2026-08-21T21:06:23.000Z</time>
        <extensions>
          <ns3:TrackPointExtension>
            <ns3:hr>124</ns3:hr>
            <ns3:cad>0</ns3:cad>
          </ns3:TrackPointExtension>
        </extensions>
      </trkpt>
      <trkpt lat="45.31875078566372394561767578125" lon="-71.012722514569759368896484375">
        <ele>708</ele>
        <time>2026-08-21T21:06:24.000Z</time>
        <extensions>
          <ns3:TrackPointExtension>
            <ns3:hr>124</ns3:hr>
            <ns3:cad>0</ns3:cad>
          </ns3:TrackPointExtension>
        </extensions>
      </trkpt>
      <trkpt lat="45.3187391348183155059814453125" lon="-71.01274221204221248626708984375">
        <ele>707.5999755859375</ele>
        <time>2026-08-21T21:06:25.000Z</time>
        <extensions>
          <ns3:TrackPointExtension>
            <ns3:hr>124</ns3:hr>
            <ns3:cad>0</ns3:cad>
          </ns3:TrackPointExtension>
        </extensions>
      </trkpt>
      <trkpt lat="45.3187307529151439666748046875" lon="-71.01275931112468242645263671875">
        <ele>707.20001220703125</ele>
        <time>2026-08-21T21:06:26.000Z</time>
        <extensions>
          <ns3:TrackPointExtension>
            <ns3:hr>124</ns3:hr>
            <ns3:cad>0</ns3:cad>
          </ns3:TrackPointExtension>
        </extensions>
      </trkpt>
      <trkpt lat="45.31872144900262355804443359375" lon="-71.012773811817169189453125">
        <ele>706.79998779296875</ele>
        <time>2026-08-21T21:06:27.000Z</time>
        <extensions>
          <ns3:TrackPointExtension>
            <ns3:hr>123</ns3:hr>
            <ns3:cad>0</ns3:cad>
          </ns3:TrackPointExtension>
        </extensions>
      </trkpt>
      <trkpt lat="45.3187166713178157806396484375" lon="-71.01279015652835369110107421875">
        <ele>706.4000244140625</ele>
        <time>2026-08-21T21:06:28.000Z</time>
        <extensions>
          <ns3:TrackPointExtension>
            <ns3:hr>123</ns3:hr>
            <ns3:cad>0</ns3:cad>
          </ns3:TrackPointExtension>
        </extensions>
      </trkpt>
      <trkpt lat="45.3187079541385173797607421875" lon="-71.0128024779260158538818359375">
        <ele>706</ele>
        <time>2026-08-21T21:06:29.000Z</time>
        <extensions>
          <ns3:TrackPointExtension>
            <ns3:hr>123</ns3:hr>
            <ns3:cad>0</ns3:cad>
          </ns3:TrackPointExtension>
        </extensions>
      </trkpt>
      <trkpt lat="45.31870066188275814056396484375" lon="-71.012812368571758270263671875">
        <ele>705.79998779296875</ele>
        <time>2026-08-21T21:06:30.000Z</time>
        <extensions>
          <ns3:TrackPointExtension>
            <ns3:hr>122</ns3:hr>
            <ns3:cad>79</ns3:cad>
          </ns3:TrackPointExtension>
        </extensions>
      </trkpt>
      <trkpt lat="45.318686664104461669921875" lon="-71.0128272883594036102294921875">
        <ele>705.4000244140625</ele>
        <time>2026-08-21T21:06:31.000Z</time>
        <extensions>
          <ns3:TrackPointExtension>
            <ns3:hr>122</ns3:hr>
            <ns3:cad>79</ns3:cad>
          </ns3:TrackPointExtension>
        </extensions>
      </trkpt>
      <trkpt lat="45.31867819838225841522216796875" lon="-71.01283994503319263458251953125">
        <ele>705.20001220703125</ele>
        <time>2026-08-21T21:06:32.000Z</time>
        <extensions>
          <ns3:TrackPointExtension>
            <ns3:hr>122</ns3:hr>
            <ns3:cad>79</ns3:cad>
          </ns3:TrackPointExtension>
        </extensions>
      </trkpt>
      <trkpt lat="45.3186687268316745758056640625" lon="-71.012854613363742828369140625">
        <ele>704.79998779296875</ele>
        <time>2026-08-21T21:06:33.000Z</time>
        <extensions>
          <ns3:TrackPointExtension>
            <ns3:hr>122</ns3:hr>
            <ns3:cad>79</ns3:cad>
          </ns3:TrackPointExtension>
        </extensions>
      </trkpt>
      <trkpt lat="45.3186623565852642059326171875" lon="-71.012868694961071014404296875">
        <ele>704.4000244140625</ele>
        <time>2026-08-21T21:06:34.000Z</time>
        <extensions>
          <ns3:TrackPointExtension>
            <ns3:hr>121</ns3:hr>
            <ns3:cad>79</ns3:cad>
          </ns3:TrackPointExtension>
        </extensions>
      </trkpt>
      <trkpt lat="45.31865456141531467437744140625" lon="-71.01288453675806522369384765625">
        <ele>704</ele>
        <time>2026-08-21T21:06:35.000Z</time>
        <extensions>
          <ns3:TrackPointExtension>
            <ns3:hr>121</ns3:hr>
            <ns3:cad>79</ns3:cad>
          </ns3:TrackPointExtension>
        </extensions>
      </trkpt>
      <trkpt lat="45.318646766245365142822265625" lon="-71.01290314458310604095458984375">
        <ele>703.5999755859375</ele>
        <time>2026-08-21T21:06:36.000Z</time>
        <extensions>
          <ns3:TrackPointExtension>
            <ns3:hr>121</ns3:hr>
            <ns3:cad>79</ns3:cad>
          </ns3:TrackPointExtension>
        </extensions>
      </trkpt>
      <trkpt lat="45.3186419047415256500244140625" lon="-71.0129208303987979888916015625">
        <ele>703.20001220703125</ele>
        <time>2026-08-21T21:06:37.000Z</time>
        <extensions>
          <ns3:TrackPointExtension>
            <ns3:hr>121</ns3:hr>
            <ns3:cad>79</ns3:cad>
          </ns3:TrackPointExtension>
        </extensions>
      </trkpt>
      <trkpt lat="45.3186415694653987884521484375" lon="-71.01293943822383880615234375">
        <ele>702.79998779296875</ele>
        <time>2026-08-21T21:06:38.000Z</time>
        <extensions>
          <ns3:TrackPointExtension>
            <ns3:hr>121</ns3:hr>
            <ns3:cad>79</ns3:cad>
          </ns3:TrackPointExtension>
        </extensions>
      </trkpt>
      <trkpt lat="45.31863897107541561126708984375" lon="-71.01295243017375469207763671875">
        <ele>702.4000244140625</ele>
        <time>2026-08-21T21:06:39.000Z</time>
        <extensions>
          <ns3:TrackPointExtension>
            <ns3:hr>121</ns3:hr>
            <ns3:cad>79</ns3:cad>
          </ns3:TrackPointExtension>
        </extensions>
      </trkpt>
      <trkpt lat="45.3186362050473690032958984375" lon="-71.0129761509597301483154296875">
        <ele>702</ele>
        <time>2026-08-21T21:06:40.000Z</time>
        <extensions>
          <ns3:TrackPointExtension>
            <ns3:hr>121</ns3:hr>
            <ns3:cad>79</ns3:cad>
          </ns3:TrackPointExtension>
        </extensions>
      </trkpt>
      <trkpt lat="45.31863193027675151824951171875" lon="-71.01299668662250041961669921875">
        <ele>701.5999755859375</ele>
        <time>2026-08-21T21:06:41.000Z</time>
        <extensions>
          <ns3:TrackPointExtension>
            <ns3:hr>120</ns3:hr>
            <ns3:cad>79</ns3:cad>
          </ns3:TrackPointExtension>
        </extensions>
      </trkpt>
      <trkpt lat="45.3186281584203243255615234375" lon="-71.0130090080201625823974609375">
        <ele>701.20001220703125</ele>
        <time>2026-08-21T21:06:42.000Z</time>
        <extensions>
          <ns3:TrackPointExtension>
            <ns3:hr>119</ns3:hr>
            <ns3:cad>0</ns3:cad>
          </ns3:TrackPointExtension>
        </extensions>
      </trkpt>
      <trkpt lat="45.31862187199294567108154296875" lon="-71.01302535273134708404541015625">
        <ele>700.5999755859375</ele>
        <time>2026-08-21T21:06:43.000Z</time>
        <extensions>
          <ns3:TrackPointExtension>
            <ns3:hr>119</ns3:hr>
            <ns3:cad>0</ns3:cad>
          </ns3:TrackPointExtension>
        </extensions>
      </trkpt>
      <trkpt lat="45.31861818395555019378662109375" lon="-71.01303876377642154693603515625">
        <ele>700.20001220703125</ele>
        <time>2026-08-21T21:06:44.000Z</time>
        <extensions>
          <ns3:TrackPointExtension>
            <ns3:hr>119</ns3:hr>
            <ns3:cad>0</ns3:cad>
          </ns3:TrackPointExtension>
        </extensions>
      </trkpt>
      <trkpt lat="45.31861349008977413177490234375" lon="-71.0130566172301769256591796875">
        <ele>699.5999755859375</ele>
        <time>2026-08-21T21:06:45.000Z</time>
        <extensions>
          <ns3:TrackPointExtension>
            <ns3:hr>119</ns3:hr>
            <ns3:cad>74</ns3:cad>
          </ns3:TrackPointExtension>
        </extensions>
      </trkpt>
      <trkpt lat="45.31861089169979095458984375" lon="-71.01306994445621967315673828125">
        <ele>699.20001220703125</ele>
        <time>2026-08-21T21:06:46.000Z</time>
        <extensions>
          <ns3:TrackPointExtension>
            <ns3:hr>120</ns3:hr>
            <ns3:cad>74</ns3:cad>
          </ns3:TrackPointExtension>
        </extensions>
      </trkpt>
      <trkpt lat="45.318600833415985107421875" lon="-71.013091988861560821533203125">
        <ele>698.79998779296875</ele>
        <time>2026-08-21T21:06:47.000Z</time>
        <extensions>
          <ns3:TrackPointExtension>
            <ns3:hr>120</ns3:hr>
            <ns3:cad>0</ns3:cad>
          </ns3:TrackPointExtension>
        </extensions>
      </trkpt>
      <trkpt lat="45.3185976482927799224853515625" lon="-71.01311302743852138519287109375">
        <ele>698.20001220703125</ele>
        <time>2026-08-21T21:06:48.000Z</time>
        <extensions>
          <ns3:TrackPointExtension>
            <ns3:hr>120</ns3:hr>
            <ns3:cad>0</ns3:cad>
          </ns3:TrackPointExtension>
        </extensions>
      </trkpt>
      <trkpt lat="45.318589769303798675537109375" lon="-71.013133227825164794921875">
        <ele>697.5999755859375</ele>
        <time>2026-08-21T21:06:49.000Z</time>
        <extensions>
          <ns3:TrackPointExtension>
            <ns3:hr>119</ns3:hr>
            <ns3:cad>78</ns3:cad>
          </ns3:TrackPointExtension>
        </extensions>
      </trkpt>
      <trkpt lat="45.3185780346393585205078125" lon="-71.0131506621837615966796875">
        <ele>697</ele>
        <time>2026-08-21T21:06:50.000Z</time>
        <extensions>
          <ns3:TrackPointExtension>
            <ns3:hr>119</ns3:hr>
            <ns3:cad>78</ns3:cad>
          </ns3:TrackPointExtension>
        </extensions>
      </trkpt>
      <trkpt lat="45.3185619413852691650390625" lon="-71.0131732933223247528076171875">
        <ele>696.5999755859375</ele>
        <time>2026-08-21T21:06:51.000Z</time>
        <extensions>
          <ns3:TrackPointExtension>
            <ns3:hr>119</ns3:hr>
            <ns3:cad>78</ns3:cad>
          </ns3:TrackPointExtension>
        </extensions>
      </trkpt>
      <trkpt lat="45.3185517154633998870849609375" lon="-71.01319248788058757781982421875">
        <ele>696.20001220703125</ele>
        <time>2026-08-21T21:06:52.000Z</time>
        <extensions>
          <ns3:TrackPointExtension>
            <ns3:hr>119</ns3:hr>
            <ns3:cad>78</ns3:cad>
          </ns3:TrackPointExtension>
        </extensions>
      </trkpt>
      <trkpt lat="45.3185378015041351318359375" lon="-71.0132098384201526641845703125">
        <ele>695.79998779296875</ele>
        <time>2026-08-21T21:06:53.000Z</time>
        <extensions>
          <ns3:TrackPointExtension>
            <ns3:hr>120</ns3:hr>
            <ns3:cad>78</ns3:cad>
          </ns3:TrackPointExtension>
        </extensions>
      </trkpt>
      <trkpt lat="45.318523384630680084228515625" lon="-71.01321880705654621124267578125">
        <ele>695.5999755859375</ele>
        <time>2026-08-21T21:06:54.000Z</time>
        <extensions>
          <ns3:TrackPointExtension>
            <ns3:hr>119</ns3:hr>
            <ns3:cad>78</ns3:cad>
          </ns3:TrackPointExtension>
        </extensions>
      </trkpt>
      <trkpt lat="45.31850905157625675201416015625" lon="-71.01323288865387439727783203125">
        <ele>695.4000244140625</ele>
        <time>2026-08-21T21:06:55.000Z</time>
        <extensions>
          <ns3:TrackPointExtension>
            <ns3:hr>119</ns3:hr>
            <ns3:cad>72</ns3:cad>
          </ns3:TrackPointExtension>
        </extensions>
      </trkpt>
      <trkpt lat="45.3184975683689117431640625" lon="-71.0132500715553760528564453125">
        <ele>695.20001220703125</ele>
        <time>2026-08-21T21:06:56.000Z</time>
        <extensions>
          <ns3:TrackPointExtension>
            <ns3:hr>119</ns3:hr>
            <ns3:cad>72</ns3:cad>
          </ns3:TrackPointExtension>
        </extensions>
      </trkpt>
      <trkpt lat="45.318487845361232757568359375" lon="-71.0132695175707340240478515625">
        <ele>694.79998779296875</ele>
        <time>2026-08-21T21:06:57.000Z</time>
        <extensions>
          <ns3:TrackPointExtension>
            <ns3:hr>119</ns3:hr>
            <ns3:cad>72</ns3:cad>
          </ns3:TrackPointExtension>
        </extensions>
      </trkpt>
      <trkpt lat="45.31847485341131687164306640625" lon="-71.01327337324619293212890625">
        <ele>694.5999755859375</ele>
        <time>2026-08-21T21:06:58.000Z</time>
        <extensions>
          <ns3:TrackPointExtension>
            <ns3:hr>119</ns3:hr>
            <ns3:cad>72</ns3:cad>
          </ns3:TrackPointExtension>
        </extensions>
      </trkpt>
      <trkpt lat="45.3184581734240055084228515625" lon="-71.01328083314001560211181640625">
        <ele>694.4000244140625</ele>
        <time>2026-08-21T21:06:59.000Z</time>
        <extensions>
          <ns3:TrackPointExtension>
            <ns3:hr>121</ns3:hr>
            <ns3:cad>72</ns3:cad>
          </ns3:TrackPointExtension>
        </extensions>
      </trkpt>
      <trkpt lat="45.31844635494053363800048828125" lon="-71.01328485645353794097900390625">
        <ele>694.20001220703125</ele>
        <time>2026-08-21T21:07:00.000Z</time>
        <extensions>
          <ns3:TrackPointExtension>
            <ns3:hr>121</ns3:hr>
            <ns3:cad>73</ns3:cad>
          </ns3:TrackPointExtension>
        </extensions>
      </trkpt>
      <trkpt lat="45.3184331953525543212890625" lon="-71.013298518955707550048828125">
        <ele>694.20001220703125</ele>
        <time>2026-08-21T21:07:01.000Z</time>
        <extensions>
          <ns3:TrackPointExtension>
            <ns3:hr>121</ns3:hr>
            <ns3:cad>73</ns3:cad>
          </ns3:TrackPointExtension>
        </extensions>
      </trkpt>
      <trkpt lat="45.31842472963035106658935546875" lon="-71.01331016980111598968505859375">
        <ele>694.20001220703125</ele>
        <time>2026-08-21T21:07:02.000Z</time>
        <extensions>
          <ns3:TrackPointExtension>
            <ns3:hr>120</ns3:hr>
            <ns3:cad>0</ns3:cad>
          </ns3:TrackPointExtension>
        </extensions>
      </trkpt>
      <trkpt lat="45.3184090554714202880859375" lon="-71.01332835853099822998046875">
        <ele>694</ele>
        <time>2026-08-21T21:07:03.000Z</time>
        <extensions>
          <ns3:TrackPointExtension>
            <ns3:hr>120</ns3:hr>
            <ns3:cad>0</ns3:cad>
          </ns3:TrackPointExtension>
        </extensions>
      </trkpt>
      <trkpt lat="45.31840033829212188720703125" lon="-71.0133389197289943695068359375">
        <ele>693.79998779296875</ele>
        <time>2026-08-21T21:07:04.000Z</time>
        <extensions>
          <ns3:TrackPointExtension>
            <ns3:hr>120</ns3:hr>
            <ns3:cad>0</ns3:cad>
          </ns3:TrackPointExtension>
        </extensions>
      </trkpt>
      <trkpt lat="45.31838466413319110870361328125" lon="-71.01335727609694004058837890625">
        <ele>693.5999755859375</ele>
        <time>2026-08-21T21:07:05.000Z</time>
        <extensions>
          <ns3:TrackPointExtension>
            <ns3:hr>120</ns3:hr>
            <ns3:cad>0</ns3:cad>
          </ns3:TrackPointExtension>
        </extensions>
      </trkpt>
      <trkpt lat="45.3183753602206707000732421875" lon="-71.01336934603750705718994140625">
        <ele>693.20001220703125</ele>
        <time>2026-08-21T21:07:06.000Z</time>
        <extensions>
          <ns3:TrackPointExtension>
            <ns3:hr>120</ns3:hr>
            <ns3:cad>0</ns3:cad>
          </ns3:TrackPointExtension>
        </extensions>
      </trkpt>
      <trkpt lat="45.3183636255562305450439453125" lon="-71.01338208653032779693603515625">
        <ele>693</ele>
        <time>2026-08-21T21:07:07.000Z</time>
        <extensions>
          <ns3:TrackPointExtension>
            <ns3:hr>120</ns3:hr>
            <ns3:cad>0</ns3:cad>
          </ns3:TrackPointExtension>
        </extensions>
      </trkpt>
      <trkpt lat="45.31835163943469524383544921875" lon="-71.013394407927989959716796875">
        <ele>692.79998779296875</ele>
        <time>2026-08-21T21:07:08.000Z</time>
        <extensions>
          <ns3:TrackPointExtension>
            <ns3:hr>120</ns3:hr>
            <ns3:cad>0</ns3:cad>
          </ns3:TrackPointExtension>
        </extensions>
      </trkpt>
      <trkpt lat="45.31833990477025508880615234375" lon="-71.01340170018374919891357421875">
        <ele>692.5999755859375</ele>
        <time>2026-08-21T21:07:09.000Z</time>
        <extensions>
          <ns3:TrackPointExtension>
            <ns3:hr>120</ns3:hr>
            <ns3:cad>0</ns3:cad>
          </ns3:TrackPointExtension>
        </extensions>
      </trkpt>
      <trkpt lat="45.3183290921151638031005859375" lon="-71.0134217329323291778564453125">
        <ele>692.4000244140625</ele>
        <time>2026-08-21T21:07:10.000Z</time>
        <extensions>
          <ns3:TrackPointExtension>
            <ns3:hr>120</ns3:hr>
            <ns3:cad>0</ns3:cad>
          </ns3:TrackPointExtension>
        </extensions>
      </trkpt>
      <trkpt lat="45.3183357976377010345458984375" lon="-71.0134428553283214569091796875">
        <ele>692.20001220703125</ele>
        <time>2026-08-21T21:07:11.000Z</time>
        <extensions>
          <ns3:TrackPointExtension>
            <ns3:hr>120</ns3:hr>
            <ns3:cad>0</ns3:cad>
          </ns3:TrackPointExtension>
        </extensions>
      </trkpt>
      <trkpt lat="45.3183451853692531585693359375" lon="-71.01346917450428009033203125">
        <ele>692</ele>
        <time>2026-08-21T21:07:12.000Z</time>
        <extensions>
          <ns3:TrackPointExtension>
            <ns3:hr>119</ns3:hr>
            <ns3:cad>68</ns3:cad>
          </ns3:TrackPointExtension>
        </extensions>
      </trkpt>
      <trkpt lat="45.31835532747209072113037109375" lon="-71.0134874470531940460205078125">
        <ele>691.79998779296875</ele>
        <time>2026-08-21T21:07:13.000Z</time>
        <extensions>
          <ns3:TrackPointExtension>
            <ns3:hr>119</ns3:hr>
            <ns3:cad>68</ns3:cad>
          </ns3:TrackPointExtension>
        </extensions>
      </trkpt>
      <trkpt lat="45.318361110985279083251953125" lon="-71.01350613869726657867431640625">
        <ele>691.4000244140625</ele>
        <time>2026-08-21T21:07:14.000Z</time>
        <extensions>
          <ns3:TrackPointExtension>
            <ns3:hr>119</ns3:hr>
            <ns3:cad>71</ns3:cad>
          </ns3:TrackPointExtension>
        </extensions>
      </trkpt>
      <trkpt lat="45.3183679841458797454833984375" lon="-71.01353229023516178131103515625">
        <ele>691</ele>
        <time>2026-08-21T21:07:15.000Z</time>
        <extensions>
          <ns3:TrackPointExtension>
            <ns3:hr>119</ns3:hr>
            <ns3:cad>71</ns3:cad>
          </ns3:TrackPointExtension>
        </extensions>
      </trkpt>
      <trkpt lat="45.3183753602206707000732421875" lon="-71.01355056278407573699951171875">
        <ele>690.4000244140625</ele>
        <time>2026-08-21T21:07:16.000Z</time>
        <extensions>
          <ns3:TrackPointExtension>
            <ns3:hr>119</ns3:hr>
            <ns3:cad>0</ns3:cad>
          </ns3:TrackPointExtension>
        </extensions>
      </trkpt>
      <trkpt lat="45.31838181428611278533935546875" lon="-71.01356715895235538482666015625">
        <ele>690</ele>
        <time>2026-08-21T21:07:17.000Z</time>
        <extensions>
          <ns3:TrackPointExtension>
            <ns3:hr>119</ns3:hr>
            <ns3:cad>0</ns3:cad>
          </ns3:TrackPointExtension>
        </extensions>
      </trkpt>
      <trkpt lat="45.31838751398026943206787109375" lon="-71.01358224637806415557861328125">
        <ele>689.5999755859375</ele>
        <time>2026-08-21T21:07:18.000Z</time>
        <extensions>
          <ns3:TrackPointExtension>
            <ns3:hr>119</ns3:hr>
            <ns3:cad>0</ns3:cad>
          </ns3:TrackPointExtension>
        </extensions>
      </trkpt>
      <trkpt lat="45.3183938004076480865478515625" lon="-71.01359968073666095733642578125">
        <ele>689.20001220703125</ele>
        <time>2026-08-21T21:07:19.000Z</time>
        <extensions>
          <ns3:TrackPointExtension>
            <ns3:hr>119</ns3:hr>
            <ns3:cad>0</ns3:cad>
          </ns3:TrackPointExtension>
        </extensions>
      </trkpt>
      <trkpt lat="45.31839740462601184844970703125" lon="-71.013613007962703704833984375">
        <ele>688.79998779296875</ele>
        <time>2026-08-21T21:07:20.000Z</time>
        <extensions>
          <ns3:TrackPointExtension>
            <ns3:hr>119</ns3:hr>
            <ns3:cad>0</ns3:cad>
          </ns3:TrackPointExtension>
        </extensions>
      </trkpt>
      <trkpt lat="45.31840243376791477203369140625" lon="-71.01362918503582477569580078125">
        <ele>688.4000244140625</ele>
        <time>2026-08-21T21:07:21.000Z</time>
        <extensions>
          <ns3:TrackPointExtension>
            <ns3:hr>120</ns3:hr>
            <ns3:cad>41</ns3:cad>
          </ns3:TrackPointExtension>
        </extensions>
      </trkpt>
      <trkpt lat="45.31840704381465911865234375" lon="-71.01363681256771087646484375">
        <ele>688</ele>
        <time>2026-08-21T21:07:22.000Z</time>
        <extensions>
          <ns3:TrackPointExtension>
            <ns3:hr>120</ns3:hr>
            <ns3:cad>0</ns3:cad>
          </ns3:TrackPointExtension>
        </extensions>
      </trkpt>
      <trkpt lat="45.31841081567108631134033203125" lon="-71.0136517323553562164306640625">
        <ele>687.4000244140625</ele>
        <time>2026-08-21T21:07:23.000Z</time>
        <extensions>
          <ns3:TrackPointExtension>
            <ns3:hr>120</ns3:hr>
            <ns3:cad>0</ns3:cad>
          </ns3:TrackPointExtension>
        </extensions>
      </trkpt>
      <trkpt lat="45.31841383315622806549072265625" lon="-71.013665981590747833251953125">
        <ele>687</ele>
        <time>2026-08-21T21:07:24.000Z</time>
        <extensions>
          <ns3:TrackPointExtension>
            <ns3:hr>120</ns3:hr>
            <ns3:cad>0</ns3:cad>
          </ns3:TrackPointExtension>
        </extensions>
      </trkpt>
      <trkpt lat="45.318417437374591827392578125" lon="-71.01368802599608898162841796875">
        <ele>686.5999755859375</ele>
        <time>2026-08-21T21:07:25.000Z</time>
        <extensions>
          <ns3:TrackPointExtension>
            <ns3:hr>121</ns3:hr>
            <ns3:cad>0</ns3:cad>
          </ns3:TrackPointExtension>
        </extensions>
      </trkpt>
      <trkpt lat="45.31841785646975040435791015625" lon="-71.0137031972408294677734375">
        <ele>686.20001220703125</ele>
        <time>2026-08-21T21:07:26.000Z</time>
        <extensions>
          <ns3:TrackPointExtension>
            <ns3:hr>121</ns3:hr>
            <ns3:cad>0</ns3:cad>
          </ns3:TrackPointExtension>
        </extensions>
      </trkpt>
      <trkpt lat="45.31841911375522613525390625" lon="-71.013716273009777069091796875">
        <ele>686</ele>
        <time>2026-08-21T21:07:27.000Z</time>
        <extensions>
          <ns3:TrackPointExtension>
            <ns3:hr>121</ns3:hr>
            <ns3:cad>0</ns3:cad>
          </ns3:TrackPointExtension>
        </extensions>
      </trkpt>
      <trkpt lat="45.31842020340263843536376953125" lon="-71.0137268342077732086181640625">
        <ele>685.5999755859375</ele>
        <time>2026-08-21T21:07:28.000Z</time>
        <extensions>
          <ns3:TrackPointExtension>
            <ns3:hr>121</ns3:hr>
            <ns3:cad>0</ns3:cad>
          </ns3:TrackPointExtension>
        </extensions>
      </trkpt>
      <trkpt lat="45.318421460688114166259765625" lon="-71.0137486271560192108154296875">
        <ele>685.4000244140625</ele>
        <time>2026-08-21T21:07:29.000Z</time>
        <extensions>
          <ns3:TrackPointExtension>
            <ns3:hr>120</ns3:hr>
            <ns3:cad>0</ns3:cad>
          </ns3:TrackPointExtension>
        </extensions>
      </trkpt>
      <trkpt lat="45.3184296749532222747802734375" lon="-71.01376782171428203582763671875">
        <ele>685</ele>
        <time>2026-08-21T21:07:30.000Z</time>
        <extensions>
          <ns3:TrackPointExtension>
            <ns3:hr>121</ns3:hr>
            <ns3:cad>0</ns3:cad>
          </ns3:TrackPointExtension>
        </extensions>
      </trkpt>
      <trkpt lat="45.31843730248510837554931640625" lon="-71.0137821547687053680419921875">
        <ele>684.79998779296875</ele>
        <time>2026-08-21T21:07:31.000Z</time>
        <extensions>
          <ns3:TrackPointExtension>
            <ns3:hr>121</ns3:hr>
            <ns3:cad>0</ns3:cad>
          </ns3:TrackPointExtension>
        </extensions>
      </trkpt>
      <trkpt lat="45.31843881122767925262451171875" lon="-71.0137938894331455230712890625">
        <ele>684.5999755859375</ele>
        <time>2026-08-21T21:07:32.000Z</time>
        <extensions>
          <ns3:TrackPointExtension>
            <ns3:hr>120</ns3:hr>
            <ns3:cad>0</ns3:cad>
          </ns3:TrackPointExtension>
        </extensions>
      </trkpt>
      <trkpt lat="45.3184383921325206756591796875" lon="-71.01380185224115848541259765625">
        <ele>684.4000244140625</ele>
        <time>2026-08-21T21:07:33.000Z</time>
        <extensions>
          <ns3:TrackPointExtension>
            <ns3:hr>120</ns3:hr>
            <ns3:cad>0</ns3:cad>
          </ns3:TrackPointExtension>
        </extensions>
      </trkpt>
      <trkpt lat="45.3184417448937892913818359375" lon="-71.01381174288690090179443359375">
        <ele>684.4000244140625</ele>
        <time>2026-08-21T21:07:34.000Z</time>
        <extensions>
          <ns3:TrackPointExtension>
            <ns3:hr>121</ns3:hr>
            <ns3:cad>0</ns3:cad>
          </ns3:TrackPointExtension>
        </extensions>
      </trkpt>
      <trkpt lat="45.31844954006373882293701171875" lon="-71.013822220265865325927734375">
        <ele>684.20001220703125</ele>
        <time>2026-08-21T21:07:35.000Z</time>
        <extensions>
          <ns3:TrackPointExtension>
            <ns3:hr>122</ns3:hr>
            <ns3:cad>0</ns3:cad>
          </ns3:TrackPointExtension>
        </extensions>
      </trkpt>
      <trkpt lat="45.3184575028717517852783203125" lon="-71.01383286528289318084716796875">
        <ele>683.79998779296875</ele>
        <time>2026-08-21T21:07:36.000Z</time>
        <extensions>
          <ns3:TrackPointExtension>
            <ns3:hr>122</ns3:hr>
            <ns3:cad>0</ns3:cad>
          </ns3:TrackPointExtension>
        </extensions>
      </trkpt>
      <trkpt lat="45.31846680678427219390869140625" lon="-71.01384208537638187408447265625">
        <ele>683.5999755859375</ele>
        <time>2026-08-21T21:07:37.000Z</time>
        <extensions>
          <ns3:TrackPointExtension>
            <ns3:hr>122</ns3:hr>
            <ns3:cad>0</ns3:cad>
          </ns3:TrackPointExtension>
        </extensions>
      </trkpt>
      <trkpt lat="45.3184695728123188018798828125" lon="-71.013859771192073822021484375">
        <ele>683.4000244140625</ele>
        <time>2026-08-21T21:07:38.000Z</time>
        <extensions>
          <ns3:TrackPointExtension>
            <ns3:hr>123</ns3:hr>
            <ns3:cad>0</ns3:cad>
          </ns3:TrackPointExtension>
        </extensions>
      </trkpt>
      <trkpt lat="45.31848105601966381072998046875" lon="-71.01387209258973598480224609375">
        <ele>683.20001220703125</ele>
        <time>2026-08-21T21:07:39.000Z</time>
        <extensions>
          <ns3:TrackPointExtension>
            <ns3:hr>123</ns3:hr>
            <ns3:cad>0</ns3:cad>
          </ns3:TrackPointExtension>
        </extensions>
      </trkpt>
      <trkpt lat="45.31849681399762630462646484375" lon="-71.0138800553977489471435546875">
        <ele>683</ele>
        <time>2026-08-21T21:07:40.000Z</time>
        <extensions>
          <ns3:TrackPointExtension>
            <ns3:hr>122</ns3:hr>
            <ns3:cad>0</ns3:cad>
          </ns3:TrackPointExtension>
        </extensions>
      </trkpt>
      <trkpt lat="45.318509303033351898193359375" lon="-71.0138855874538421630859375">
        <ele>682.79998779296875</ele>
        <time>2026-08-21T21:07:41.000Z</time>
        <extensions>
          <ns3:TrackPointExtension>
            <ns3:hr>122</ns3:hr>
            <ns3:cad>0</ns3:cad>
          </ns3:TrackPointExtension>
        </extensions>
      </trkpt>
      <trkpt lat="45.31852304935455322265625" lon="-71.013889946043491363525390625">
        <ele>682.5999755859375</ele>
        <time>2026-08-21T21:07:42.000Z</time>
        <extensions>
          <ns3:TrackPointExtension>
            <ns3:hr>122</ns3:hr>
            <ns3:cad>0</ns3:cad>
          </ns3:TrackPointExtension>
        </extensions>
      </trkpt>
      <trkpt lat="45.318538807332515716552734375" lon="-71.0138971544802188873291015625">
        <ele>682.20001220703125</ele>
        <time>2026-08-21T21:07:43.000Z</time>
        <extensions>
          <ns3:TrackPointExtension>
            <ns3:hr>121</ns3:hr>
            <ns3:cad>0</ns3:cad>
          </ns3:TrackPointExtension>
        </extensions>
      </trkpt>
      <trkpt lat="45.3185493685305118560791015625" lon="-71.0139058716595172882080078125">
        <ele>682</ele>
        <time>2026-08-21T21:07:44.000Z</time>
        <extensions>
          <ns3:TrackPointExtension>
            <ns3:hr>120</ns3:hr>
            <ns3:cad>0</ns3:cad>
          </ns3:TrackPointExtension>
        </extensions>
      </trkpt>
      <trkpt lat="45.31856051646173000335693359375" lon="-71.01392372511327266693115234375">
        <ele>681.5999755859375</ele>
        <time>2026-08-21T21:07:45.000Z</time>
        <extensions>
          <ns3:TrackPointExtension>
            <ns3:hr>120</ns3:hr>
            <ns3:cad>0</ns3:cad>
          </ns3:TrackPointExtension>
        </extensions>
      </trkpt>
      <trkpt lat="45.31857459805905818939208984375" lon="-71.0139367170631885528564453125">
        <ele>681.4000244140625</ele>
        <time>2026-08-21T21:07:46.000Z</time>
        <extensions>
          <ns3:TrackPointExtension>
            <ns3:hr>120</ns3:hr>
            <ns3:cad>0</ns3:cad>
          </ns3:TrackPointExtension>
        </extensions>
      </trkpt>
      <trkpt lat="45.31858666799962520599365234375" lon="-71.01394233293831348419189453125">
        <ele>681.20001220703125</ele>
        <time>2026-08-21T21:07:47.000Z</time>
        <extensions>
          <ns3:TrackPointExtension>
            <ns3:hr>120</ns3:hr>
            <ns3:cad>0</ns3:cad>
          </ns3:TrackPointExtension>
        </extensions>
      </trkpt>
      <trkpt lat="45.31859287060797214508056640625" lon="-71.01394752971827983856201171875">
        <ele>681</ele>
        <time>2026-08-21T21:07:48.000Z</time>
        <extensions>
          <ns3:TrackPointExtension>
            <ns3:hr>120</ns3:hr>
            <ns3:cad>0</ns3:cad>
          </ns3:TrackPointExtension>
        </extensions>
      </trkpt>
      <trkpt lat="45.31859572045505046844482421875" lon="-71.01395993493497371673583984375">
        <ele>680.5999755859375</ele>
        <time>2026-08-21T21:07:49.000Z</time>
        <extensions>
          <ns3:TrackPointExtension>
            <ns3:hr>120</ns3:hr>
            <ns3:cad>0</ns3:cad>
          </ns3:TrackPointExtension>
        </extensions>
      </trkpt>
      <trkpt lat="45.31859655864536762237548828125" lon="-71.0139746032655239105224609375">
        <ele>680.5999755859375</ele>
        <time>2026-08-21T21:07:50.000Z</time>
        <extensions>
          <ns3:TrackPointExtension>
            <ns3:hr>121</ns3:hr>
            <ns3:cad>0</ns3:cad>
          </ns3:TrackPointExtension>
        </extensions>
      </trkpt>
      <trkpt lat="45.3185939602553844451904296875" lon="-71.01398373953998088836669921875">
        <ele>680.20001220703125</ele>
        <time>2026-08-21T21:07:51.000Z</time>
        <extensions>
          <ns3:TrackPointExtension>
            <ns3:hr>120</ns3:hr>
            <ns3:cad>0</ns3:cad>
          </ns3:TrackPointExtension>
        </extensions>
      </trkpt>
      <trkpt lat="45.3185914456844329833984375" lon="-71.01399145089089870452880859375">
        <ele>680</ele>
        <time>2026-08-21T21:07:52.000Z</time>
        <extensions>
          <ns3:TrackPointExtension>
            <ns3:hr>121</ns3:hr>
            <ns3:cad>0</ns3:cad>
          </ns3:TrackPointExtension>
        </extensions>
      </trkpt>
      <trkpt lat="45.3185909427702426910400390625" lon="-71.014005951583385467529296875">
        <ele>679.79998779296875</ele>
        <time>2026-08-21T21:07:53.000Z</time>
        <extensions>
          <ns3:TrackPointExtension>
            <ns3:hr>121</ns3:hr>
            <ns3:cad>0</ns3:cad>
          </ns3:TrackPointExtension>
        </extensions>
      </trkpt>
      <trkpt lat="45.31859253533184528350830078125" lon="-71.01401927880942821502685546875">
        <ele>679.79998779296875</ele>
        <time>2026-08-21T21:07:54.000Z</time>
        <extensions>
          <ns3:TrackPointExtension>
            <ns3:hr>120</ns3:hr>
            <ns3:cad>0</ns3:cad>
          </ns3:TrackPointExtension>
        </extensions>
      </trkpt>
      <trkpt lat="45.31859085895121097564697265625" lon="-71.014026738703250885009765625">
        <ele>679.5999755859375</ele>
        <time>2026-08-21T21:07:55.000Z</time>
        <extensions>
          <ns3:TrackPointExtension>
            <ns3:hr>120</ns3:hr>
            <ns3:cad>0</ns3:cad>
          </ns3:TrackPointExtension>
        </extensions>
      </trkpt>
      <trkpt lat="45.31859748065471649169921875" lon="-71.0140255652368068695068359375">
        <ele>679.5999755859375</ele>
        <time>2026-08-21T21:07:56.000Z</time>
        <extensions>
          <ns3:TrackPointExtension>
            <ns3:hr>120</ns3:hr>
            <ns3:cad>0</ns3:cad>
          </ns3:TrackPointExtension>
        </extensions>
      </trkpt>
      <trkpt lat="45.31860259361565113067626953125" lon="-71.0140212066471576690673828125">
        <ele>679.4000244140625</ele>
        <time>2026-08-21T21:07:57.000Z</time>
        <extensions>
          <ns3:TrackPointExtension>
            <ns3:hr>121</ns3:hr>
            <ns3:cad>0</ns3:cad>
          </ns3:TrackPointExtension>
        </extensions>
      </trkpt>
      <trkpt lat="45.3186080418527126312255859375" lon="-71.01401634514331817626953125">
        <ele>679.4000244140625</ele>
        <time>2026-08-21T21:07:58.000Z</time>
        <extensions>
          <ns3:TrackPointExtension>
            <ns3:hr>121</ns3:hr>
            <ns3:cad>0</ns3:cad>
          </ns3:TrackPointExtension>
        </extensions>
      </trkpt>
      <trkpt lat="45.31860644929111003875732421875" lon="-71.014020033180713653564453125">
        <ele>679.4000244140625</ele>
        <time>2026-08-21T21:07:59.000Z</time>
        <extensions>
          <ns3:TrackPointExtension>
            <ns3:hr>123</ns3:hr>
            <ns3:cad>0</ns3:cad>
          </ns3:TrackPointExtension>
        </extensions>
      </trkpt>
      <trkpt lat="45.3186050243675708770751953125" lon="-71.014020703732967376708984375">
        <ele>679.4000244140625</ele>
        <time>2026-08-21T21:08:00.000Z</time>
        <extensions>
          <ns3:TrackPointExtension>
            <ns3:hr>126</ns3:hr>
            <ns3:cad>0</ns3:cad>
          </ns3:TrackPointExtension>
        </extensions>
      </trkpt>
      <trkpt lat="45.31860074959695339202880859375" lon="-71.01401944644749164581298828125">
        <ele>679.4000244140625</ele>
        <time>2026-08-21T21:08:01.000Z</time>
        <extensions>
          <ns3:TrackPointExtension>
            <ns3:hr>126</ns3:hr>
            <ns3:cad>0</ns3:cad>
          </ns3:TrackPointExtension>
        </extensions>
      </trkpt>
      <trkpt lat="45.31860108487308025360107421875" lon="-71.014011316001415252685546875">
        <ele>679.4000244140625</ele>
        <time>2026-08-21T21:08:02.000Z</time>
        <extensions>
          <ns3:TrackPointExtension>
            <ns3:hr>126</ns3:hr>
            <ns3:cad>0</ns3:cad>
          </ns3:TrackPointExtension>
        </extensions>
      </trkpt>
      <trkpt lat="45.318600833415985107421875" lon="-71.0140108130872249603271484375">
        <ele>679.20001220703125</ele>
        <time>2026-08-21T21:08:03.000Z</time>
        <extensions>
          <ns3:TrackPointExtension>
            <ns3:hr>124</ns3:hr>
            <ns3:cad>0</ns3:cad>
          </ns3:TrackPointExtension>
        </extensions>
      </trkpt>
      <trkpt lat="45.318600833415985107421875" lon="-71.0140108130872249603271484375">
        <ele>679.20001220703125</ele>
        <time>2026-08-21T21:08:04.000Z</time>
        <extensions>
          <ns3:TrackPointExtension>
            <ns3:hr>124</ns3:hr>
            <ns3:cad>0</ns3:cad>
          </ns3:TrackPointExtension>
        </extensions>
      </trkpt>
      <trkpt lat="45.31860074959695339202880859375" lon="-71.01401039399206638336181640625">
        <ele>679.20001220703125</ele>
        <time>2026-08-21T21:08:05.000Z</time>
        <extensions>
          <ns3:TrackPointExtension>
            <ns3:hr>123</ns3:hr>
            <ns3:cad>0</ns3:cad>
          </ns3:TrackPointExtension>
        </extensions>
      </trkpt>
      <trkpt lat="45.31859404407441616058349609375" lon="-71.0140051133930683135986328125">
        <ele>679.4000244140625</ele>
        <time>2026-08-21T21:08:06.000Z</time>
        <extensions>
          <ns3:TrackPointExtension>
            <ns3:hr>121</ns3:hr>
            <ns3:cad>0</ns3:cad>
          </ns3:TrackPointExtension>
        </extensions>
      </trkpt>
      <trkpt lat="45.3185887634754180908203125" lon="-71.01400234736502170562744140625">
        <ele>679.4000244140625</ele>
        <time>2026-08-21T21:08:07.000Z</time>
        <extensions>
          <ns3:TrackPointExtension>
            <ns3:hr>119</ns3:hr>
            <ns3:cad>0</ns3:cad>
          </ns3:TrackPointExtension>
        </extensions>
      </trkpt>
      <trkpt lat="45.31857602298259735107421875" lon="-71.0140044428408145904541015625">
        <ele>679.4000244140625</ele>
        <time>2026-08-21T21:08:08.000Z</time>
        <extensions>
          <ns3:TrackPointExtension>
            <ns3:hr>117</ns3:hr>
            <ns3:cad>0</ns3:cad>
          </ns3:TrackPointExtension>
        </extensions>
      </trkpt>
      <trkpt lat="45.3185735084116458892822265625" lon="-71.01400570012629032135009765625">
        <ele>679.5999755859375</ele>
        <time>2026-08-21T21:08:09.000Z</time>
        <extensions>
          <ns3:TrackPointExtension>
            <ns3:hr>116</ns3:hr>
            <ns3:cad>0</ns3:cad>
          </ns3:TrackPointExtension>
        </extensions>
      </trkpt>
      <trkpt lat="45.3185713291168212890625" lon="-71.0140094719827175140380859375">
        <ele>679.5999755859375</ele>
        <time>2026-08-21T21:08:10.000Z</time>
        <extensions>
          <ns3:TrackPointExtension>
            <ns3:hr>116</ns3:hr>
            <ns3:cad>0</ns3:cad>
          </ns3:TrackPointExtension>
        </extensions>
      </trkpt>
      <trkpt lat="45.3185802139341831207275390625" lon="-71.01401860825717449188232421875">
        <ele>679.5999755859375</ele>
        <time>2026-08-21T21:08:11.000Z</time>
        <extensions>
          <ns3:TrackPointExtension>
            <ns3:hr>116</ns3:hr>
            <ns3:cad>0</ns3:cad>
          </ns3:TrackPointExtension>
        </extensions>
      </trkpt>
      <trkpt lat="45.3185906074941158294677734375" lon="-71.01403377950191497802734375">
        <ele>679.5999755859375</ele>
        <time>2026-08-21T21:08:12.000Z</time>
        <extensions>
          <ns3:TrackPointExtension>
            <ns3:hr>116</ns3:hr>
            <ns3:cad>0</ns3:cad>
          </ns3:TrackPointExtension>
        </extensions>
      </trkpt>
      <trkpt lat="45.31859823502600193023681640625" lon="-71.014043502509593963623046875">
        <ele>679.5999755859375</ele>
        <time>2026-08-21T21:08:13.000Z</time>
        <extensions>
          <ns3:TrackPointExtension>
            <ns3:hr>115</ns3:hr>
            <ns3:cad>0</ns3:cad>
          </ns3:TrackPointExtension>
        </extensions>
      </trkpt>
      <trkpt lat="45.31859613955020904541015625" lon="-71.01405448280274868011474609375">
        <ele>679.4000244140625</ele>
        <time>2026-08-21T21:08:14.000Z</time>
        <extensions>
          <ns3:TrackPointExtension>
            <ns3:hr>115</ns3:hr>
            <ns3:cad>0</ns3:cad>
          </ns3:TrackPointExtension>
        </extensions>
      </trkpt>
      <trkpt lat="45.31859169714152812957763671875" lon="-71.0140691511332988739013671875">
        <ele>679.20001220703125</ele>
        <time>2026-08-21T21:08:15.000Z</time>
        <extensions>
          <ns3:TrackPointExtension>
            <ns3:hr>115</ns3:hr>
            <ns3:cad>0</ns3:cad>
          </ns3:TrackPointExtension>
        </extensions>
      </trkpt>
      <trkpt lat="45.31858918257057666778564453125" lon="-71.01408742368221282958984375">
        <ele>679.20001220703125</ele>
        <time>2026-08-21T21:08:16.000Z</time>
        <extensions>
          <ns3:TrackPointExtension>
            <ns3:hr>115</ns3:hr>
            <ns3:cad>0</ns3:cad>
          </ns3:TrackPointExtension>
        </extensions>
      </trkpt>
      <trkpt lat="45.3185872547328472137451171875" lon="-71.01411013863980770111083984375">
        <ele>679</ele>
        <time>2026-08-21T21:08:17.000Z</time>
        <extensions>
          <ns3:TrackPointExtension>
            <ns3:hr>115</ns3:hr>
            <ns3:cad>0</ns3:cad>
          </ns3:TrackPointExtension>
        </extensions>
      </trkpt>
      <trkpt lat="45.31858616508543491363525390625" lon="-71.014127321541309356689453125">
        <ele>678.79998779296875</ele>
        <time>2026-08-21T21:08:18.000Z</time>
        <extensions>
          <ns3:TrackPointExtension>
            <ns3:hr>115</ns3:hr>
            <ns3:cad>0</ns3:cad>
          </ns3:TrackPointExtension>
        </extensions>
      </trkpt>
      <trkpt lat="45.3185849077999591827392578125" lon="-71.01414936594665050506591796875">
        <ele>678.5999755859375</ele>
        <time>2026-08-21T21:08:19.000Z</time>
        <extensions>
          <ns3:TrackPointExtension>
            <ns3:hr>115</ns3:hr>
            <ns3:cad>0</ns3:cad>
          </ns3:TrackPointExtension>
        </extensions>
      </trkpt>
      <trkpt lat="45.3185835666954517364501953125" lon="-71.0141647048294544219970703125">
        <ele>678.4000244140625</ele>
        <time>2026-08-21T21:08:20.000Z</time>
        <extensions>
          <ns3:TrackPointExtension>
            <ns3:hr>115</ns3:hr>
            <ns3:cad>0</ns3:cad>
          </ns3:TrackPointExtension>
        </extensions>
      </trkpt>
      <trkpt lat="45.3185795433819293975830078125" lon="-71.01417333818972110748291015625">
        <ele>678.20001220703125</ele>
        <time>2026-08-21T21:08:21.000Z</time>
        <extensions>
          <ns3:TrackPointExtension>
            <ns3:hr>116</ns3:hr>
            <ns3:cad>0</ns3:cad>
          </ns3:TrackPointExtension>
        </extensions>
      </trkpt>
      <trkpt lat="45.31857761554419994354248046875" lon="-71.0141848213970661163330078125">
        <ele>678</ele>
        <time>2026-08-21T21:08:22.000Z</time>
        <extensions>
          <ns3:TrackPointExtension>
            <ns3:hr>116</ns3:hr>
            <ns3:cad>0</ns3:cad>
          </ns3:TrackPointExtension>
        </extensions>
      </trkpt>
      <trkpt lat="45.31857870519161224365234375" lon="-71.014203764498233795166015625">
        <ele>677.79998779296875</ele>
        <time>2026-08-21T21:08:23.000Z</time>
        <extensions>
          <ns3:TrackPointExtension>
            <ns3:hr>116</ns3:hr>
            <ns3:cad>0</ns3:cad>
          </ns3:TrackPointExtension>
        </extensions>
      </trkpt>
      <trkpt lat="45.31857744790613651275634765625" lon="-71.01422849111258983612060546875">
        <ele>677.5999755859375</ele>
        <time>2026-08-21T21:08:24.000Z</time>
        <extensions>
          <ns3:TrackPointExtension>
            <ns3:hr>116</ns3:hr>
            <ns3:cad>51</ns3:cad>
          </ns3:TrackPointExtension>
        </extensions>
      </trkpt>
      <trkpt lat="45.31857627443969249725341796875" lon="-71.014246009290218353271484375">
        <ele>677.4000244140625</ele>
        <time>2026-08-21T21:08:25.000Z</time>
        <extensions>
          <ns3:TrackPointExtension>
            <ns3:hr>116</ns3:hr>
            <ns3:cad>51</ns3:cad>
          </ns3:TrackPointExtension>
        </extensions>
      </trkpt>
      <trkpt lat="45.318573676049709320068359375" lon="-71.01426218636333942413330078125">
        <ele>677.4000244140625</ele>
        <time>2026-08-21T21:08:26.000Z</time>
        <extensions>
          <ns3:TrackPointExtension>
            <ns3:hr>117</ns3:hr>
            <ns3:cad>54</ns3:cad>
          </ns3:TrackPointExtension>
        </extensions>
      </trkpt>
      <trkpt lat="45.31857074238359928131103515625" lon="-71.014280207455158233642578125">
        <ele>677.20001220703125</ele>
        <time>2026-08-21T21:08:27.000Z</time>
        <extensions>
          <ns3:TrackPointExtension>
            <ns3:hr>117</ns3:hr>
            <ns3:cad>54</ns3:cad>
          </ns3:TrackPointExtension>
        </extensions>
      </trkpt>
      <trkpt lat="45.3185673058032989501953125" lon="-71.0142988152801990509033203125">
        <ele>677</ele>
        <time>2026-08-21T21:08:28.000Z</time>
        <extensions>
          <ns3:TrackPointExtension>
            <ns3:hr>117</ns3:hr>
            <ns3:cad>54</ns3:cad>
          </ns3:TrackPointExtension>
        </extensions>
      </trkpt>
      <trkpt lat="45.31856168992817401885986328125" lon="-71.01431381888687610626220703125">
        <ele>676.79998779296875</ele>
        <time>2026-08-21T21:08:29.000Z</time>
        <extensions>
          <ns3:TrackPointExtension>
            <ns3:hr>118</ns3:hr>
            <ns3:cad>56</ns3:cad>
          </ns3:TrackPointExtension>
        </extensions>
      </trkpt>
      <trkpt lat="45.31855766661465167999267578125" lon="-71.01433142088353633880615234375">
        <ele>676.79998779296875</ele>
        <time>2026-08-21T21:08:30.000Z</time>
        <extensions>
          <ns3:TrackPointExtension>
            <ns3:hr>118</ns3:hr>
            <ns3:cad>56</ns3:cad>
          </ns3:TrackPointExtension>
        </extensions>
      </trkpt>
      <trkpt lat="45.3185533918440341949462890625" lon="-71.014344580471515655517578125">
        <ele>676.5999755859375</ele>
        <time>2026-08-21T21:08:31.000Z</time>
        <extensions>
          <ns3:TrackPointExtension>
            <ns3:hr>118</ns3:hr>
            <ns3:cad>58</ns3:cad>
          </ns3:TrackPointExtension>
        </extensions>
      </trkpt>
      <trkpt lat="45.3185493685305118560791015625" lon="-71.01435556076467037200927734375">
        <ele>676.5999755859375</ele>
        <time>2026-08-21T21:08:32.000Z</time>
        <extensions>
          <ns3:TrackPointExtension>
            <ns3:hr>118</ns3:hr>
            <ns3:cad>53</ns3:cad>
          </ns3:TrackPointExtension>
        </extensions>
      </trkpt>
      <trkpt lat="45.318543501198291778564453125" lon="-71.01436528377234935760498046875">
        <ele>676.5999755859375</ele>
        <time>2026-08-21T21:08:33.000Z</time>
        <extensions>
          <ns3:TrackPointExtension>
            <ns3:hr>118</ns3:hr>
            <ns3:cad>53</ns3:cad>
          </ns3:TrackPointExtension>
        </extensions>
      </trkpt>
      <trkpt lat="45.3185376338660717010498046875" lon="-71.01437886245548725128173828125">
        <ele>676.5999755859375</ele>
        <time>2026-08-21T21:08:34.000Z</time>
        <extensions>
          <ns3:TrackPointExtension>
            <ns3:hr>117</ns3:hr>
            <ns3:cad>53</ns3:cad>
          </ns3:TrackPointExtension>
        </extensions>
      </trkpt>
      <trkpt lat="45.31853444874286651611328125" lon="-71.01439110003411769866943359375">
        <ele>676.79998779296875</ele>
        <time>2026-08-21T21:08:35.000Z</time>
        <extensions>
          <ns3:TrackPointExtension>
            <ns3:hr>117</ns3:hr>
            <ns3:cad>53</ns3:cad>
          </ns3:TrackPointExtension>
        </extensions>
      </trkpt>
      <trkpt lat="45.3185282461345195770263671875" lon="-71.01440568454563617706298828125">
        <ele>676.79998779296875</ele>
        <time>2026-08-21T21:08:36.000Z</time>
        <extensions>
          <ns3:TrackPointExtension>
            <ns3:hr>116</ns3:hr>
            <ns3:cad>53</ns3:cad>
          </ns3:TrackPointExtension>
        </extensions>
      </trkpt>
      <trkpt lat="45.31852145679295063018798828125" lon="-71.01441876031458377838134765625">
        <ele>677</ele>
        <time>2026-08-21T21:08:37.000Z</time>
        <extensions>
          <ns3:TrackPointExtension>
            <ns3:hr>116</ns3:hr>
            <ns3:cad>54</ns3:cad>
          </ns3:TrackPointExtension>
        </extensions>
      </trkpt>
      <trkpt lat="45.31851659528911113739013671875" lon="-71.01443250663578510284423828125">
        <ele>677</ele>
        <time>2026-08-21T21:08:38.000Z</time>
        <extensions>
          <ns3:TrackPointExtension>
            <ns3:hr>116</ns3:hr>
            <ns3:cad>54</ns3:cad>
          </ns3:TrackPointExtension>
        </extensions>
      </trkpt>
      <trkpt lat="45.3185094706714153289794921875" lon="-71.014444828033447265625">
        <ele>677</ele>
        <time>2026-08-21T21:08:39.000Z</time>
        <extensions>
          <ns3:TrackPointExtension>
            <ns3:hr>116</ns3:hr>
            <ns3:cad>54</ns3:cad>
          </ns3:TrackPointExtension>
        </extensions>
      </trkpt>
      <trkpt lat="45.3185047768056392669677734375" lon="-71.0144563950598239898681640625">
        <ele>677.20001220703125</ele>
        <time>2026-08-21T21:08:40.000Z</time>
        <extensions>
          <ns3:TrackPointExtension>
            <ns3:hr>116</ns3:hr>
            <ns3:cad>54</ns3:cad>
          </ns3:TrackPointExtension>
        </extensions>
      </trkpt>
      <trkpt lat="45.3184933774173259735107421875" lon="-71.01447089575231075286865234375">
        <ele>677.20001220703125</ele>
        <time>2026-08-21T21:08:41.000Z</time>
        <extensions>
          <ns3:TrackPointExtension>
            <ns3:hr>116</ns3:hr>
            <ns3:cad>51</ns3:cad>
          </ns3:TrackPointExtension>
        </extensions>
      </trkpt>
      <trkpt lat="45.31848558224737644195556640625" lon="-71.0144845582544803619384765625">
        <ele>677.20001220703125</ele>
        <time>2026-08-21T21:08:42.000Z</time>
        <extensions>
          <ns3:TrackPointExtension>
            <ns3:hr>116</ns3:hr>
            <ns3:cad>51</ns3:cad>
          </ns3:TrackPointExtension>
        </extensions>
      </trkpt>
      <trkpt lat="45.31847946345806121826171875" lon="-71.01449738256633281707763671875">
        <ele>677.20001220703125</ele>
        <time>2026-08-21T21:08:43.000Z</time>
        <extensions>
          <ns3:TrackPointExtension>
            <ns3:hr>115</ns3:hr>
            <ns3:cad>54</ns3:cad>
          </ns3:TrackPointExtension>
        </extensions>
      </trkpt>
      <trkpt lat="45.3184761106967926025390625" lon="-71.0145105421543121337890625">
        <ele>677.4000244140625</ele>
        <time>2026-08-21T21:08:44.000Z</time>
        <extensions>
          <ns3:TrackPointExtension>
            <ns3:hr>116</ns3:hr>
            <ns3:cad>54</ns3:cad>
          </ns3:TrackPointExtension>
        </extensions>
      </trkpt>
      <trkpt lat="45.3184715844690799713134765625" lon="-71.0145247913897037506103515625">
        <ele>677.4000244140625</ele>
        <time>2026-08-21T21:08:45.000Z</time>
        <extensions>
          <ns3:TrackPointExtension>
            <ns3:hr>115</ns3:hr>
            <ns3:cad>54</ns3:cad>
          </ns3:TrackPointExtension>
        </extensions>
      </trkpt>
      <trkpt lat="45.31846395693719387054443359375" lon="-71.01453929208219051361083984375">
        <ele>677.4000244140625</ele>
        <time>2026-08-21T21:08:46.000Z</time>
        <extensions>
          <ns3:TrackPointExtension>
            <ns3:hr>115</ns3:hr>
            <ns3:cad>49</ns3:cad>
          </ns3:TrackPointExtension>
        </extensions>
      </trkpt>
      <trkpt lat="45.3184571675956249237060546875" lon="-71.01455437950789928436279296875">
        <ele>677.4000244140625</ele>
        <time>2026-08-21T21:08:47.000Z</time>
        <extensions>
          <ns3:TrackPointExtension>
            <ns3:hr>115</ns3:hr>
            <ns3:cad>49</ns3:cad>
          </ns3:TrackPointExtension>
        </extensions>
      </trkpt>
      <trkpt lat="45.318452976644039154052734375" lon="-71.01456485688686370849609375">
        <ele>677.5999755859375</ele>
        <time>2026-08-21T21:08:48.000Z</time>
        <extensions>
          <ns3:TrackPointExtension>
            <ns3:hr>115</ns3:hr>
            <ns3:cad>50</ns3:cad>
          </ns3:TrackPointExtension>
        </extensions>
      </trkpt>
      <trkpt lat="45.31844803132116794586181640625" lon="-71.014569886028766632080078125">
        <ele>677.5999755859375</ele>
        <time>2026-08-21T21:08:49.000Z</time>
        <extensions>
          <ns3:TrackPointExtension>
            <ns3:hr>116</ns3:hr>
            <ns3:cad>50</ns3:cad>
          </ns3:TrackPointExtension>
        </extensions>
      </trkpt>
      <trkpt lat="45.31844484619796276092529296875" lon="-71.014581955969333648681640625">
        <ele>677.5999755859375</ele>
        <time>2026-08-21T21:08:50.000Z</time>
        <extensions>
          <ns3:TrackPointExtension>
            <ns3:hr>115</ns3:hr>
            <ns3:cad>50</ns3:cad>
          </ns3:TrackPointExtension>
        </extensions>
      </trkpt>
      <trkpt lat="45.3184410743415355682373046875" lon="-71.01459226571023464202880859375">
        <ele>677.79998779296875</ele>
        <time>2026-08-21T21:08:51.000Z</time>
        <extensions>
          <ns3:TrackPointExtension>
            <ns3:hr>115</ns3:hr>
            <ns3:cad>49</ns3:cad>
          </ns3:TrackPointExtension>
        </extensions>
      </trkpt>
      <trkpt lat="45.3184373863041400909423828125" lon="-71.01460014469921588897705078125">
        <ele>677.79998779296875</ele>
        <time>2026-08-21T21:08:52.000Z</time>
        <extensions>
          <ns3:TrackPointExtension>
            <ns3:hr>116</ns3:hr>
            <ns3:cad>49</ns3:cad>
          </ns3:TrackPointExtension>
        </extensions>
      </trkpt>
      <trkpt lat="45.3184310160577297210693359375" lon="-71.01460886187851428985595703125">
        <ele>678</ele>
        <time>2026-08-21T21:08:53.000Z</time>
        <extensions>
          <ns3:TrackPointExtension>
            <ns3:hr>116</ns3:hr>
            <ns3:cad>49</ns3:cad>
          </ns3:TrackPointExtension>
        </extensions>
      </trkpt>
      <trkpt lat="45.318426825106143951416015625" lon="-71.01461288519203662872314453125">
        <ele>678.20001220703125</ele>
        <time>2026-08-21T21:08:54.000Z</time>
        <extensions>
          <ns3:TrackPointExtension>
            <ns3:hr>116</ns3:hr>
            <ns3:cad>49</ns3:cad>
          </ns3:TrackPointExtension>
        </extensions>
      </trkpt>
      <trkpt lat="45.31841467134654521942138671875" lon="-71.01462252438068389892578125">
        <ele>678.4000244140625</ele>
        <time>2026-08-21T21:08:55.000Z</time>
        <extensions>
          <ns3:TrackPointExtension>
            <ns3:hr>116</ns3:hr>
            <ns3:cad>49</ns3:cad>
          </ns3:TrackPointExtension>
        </extensions>
      </trkpt>
      <trkpt lat="45.31840545125305652618408203125" lon="-71.01462897844612598419189453125">
        <ele>678.5999755859375</ele>
        <time>2026-08-21T21:08:56.000Z</time>
        <extensions>
          <ns3:TrackPointExtension>
            <ns3:hr>116</ns3:hr>
            <ns3:cad>49</ns3:cad>
          </ns3:TrackPointExtension>
        </extensions>
      </trkpt>
      <trkpt lat="45.318390615284442901611328125" lon="-71.01463719271123409271240234375">
        <ele>678.5999755859375</ele>
        <time>2026-08-21T21:08:57.000Z</time>
        <extensions>
          <ns3:TrackPointExtension>
            <ns3:hr>117</ns3:hr>
            <ns3:cad>49</ns3:cad>
          </ns3:TrackPointExtension>
        </extensions>
      </trkpt>
      <trkpt lat="45.3183793835341930389404296875" lon="-71.014642305672168731689453125">
        <ele>678.79998779296875</ele>
        <time>2026-08-21T21:08:58.000Z</time>
        <extensions>
          <ns3:TrackPointExtension>
            <ns3:hr>118</ns3:hr>
            <ns3:cad>51</ns3:cad>
          </ns3:TrackPointExtension>
        </extensions>
      </trkpt>
      <trkpt lat="45.3183679841458797454833984375" lon="-71.01464926265180110931396484375">
        <ele>679</ele>
        <time>2026-08-21T21:08:59.000Z</time>
        <extensions>
          <ns3:TrackPointExtension>
            <ns3:hr>118</ns3:hr>
            <ns3:cad>51</ns3:cad>
          </ns3:TrackPointExtension>
        </extensions>
      </trkpt>
      <trkpt lat="45.31836010515689849853515625" lon="-71.01466116495430469512939453125">
        <ele>679.20001220703125</ele>
        <time>2026-08-21T21:09:00.000Z</time>
        <extensions>
          <ns3:TrackPointExtension>
            <ns3:hr>119</ns3:hr>
            <ns3:cad>51</ns3:cad>
          </ns3:TrackPointExtension>
        </extensions>
      </trkpt>
      <trkpt lat="45.3183522261679172515869140625" lon="-71.0146723128855228424072265625">
        <ele>679.4000244140625</ele>
        <time>2026-08-21T21:09:01.000Z</time>
        <extensions>
          <ns3:TrackPointExtension>
            <ns3:hr>119</ns3:hr>
            <ns3:cad>53</ns3:cad>
          </ns3:TrackPointExtension>
        </extensions>
      </trkpt>
      <trkpt lat="45.31834174878895282745361328125" lon="-71.0146822035312652587890625">
        <ele>679.4000244140625</ele>
        <time>2026-08-21T21:09:02.000Z</time>
        <extensions>
          <ns3:TrackPointExtension>
            <ns3:hr>120</ns3:hr>
            <ns3:cad>53</ns3:cad>
          </ns3:TrackPointExtension>
        </extensions>
      </trkpt>
      <trkpt lat="45.31832967884838581085205078125" lon="-71.014689244329929351806640625">
        <ele>679.5999755859375</ele>
        <time>2026-08-21T21:09:03.000Z</time>
        <extensions>
          <ns3:TrackPointExtension>
            <ns3:hr>121</ns3:hr>
            <ns3:cad>53</ns3:cad>
          </ns3:TrackPointExtension>
        </extensions>
      </trkpt>
      <trkpt lat="45.31831593252718448638916015625" lon="-71.01469536311924457550048828125">
        <ele>679.79998779296875</ele>
        <time>2026-08-21T21:09:04.000Z</time>
        <extensions>
          <ns3:TrackPointExtension>
            <ns3:hr>121</ns3:hr>
            <ns3:cad>53</ns3:cad>
          </ns3:TrackPointExtension>
        </extensions>
      </trkpt>
      <trkpt lat="45.31830302439630031585693359375" lon="-71.0147036612033843994140625">
        <ele>680</ele>
        <time>2026-08-21T21:09:05.000Z</time>
        <extensions>
          <ns3:TrackPointExtension>
            <ns3:hr>122</ns3:hr>
            <ns3:cad>52</ns3:cad>
          </ns3:TrackPointExtension>
        </extensions>
      </trkpt>
      <trkpt lat="45.3182938881218433380126953125" lon="-71.01471313275396823883056640625">
        <ele>680</ele>
        <time>2026-08-21T21:09:06.000Z</time>
        <extensions>
          <ns3:TrackPointExtension>
            <ns3:hr>122</ns3:hr>
            <ns3:cad>52</ns3:cad>
          </ns3:TrackPointExtension>
        </extensions>
      </trkpt>
      <trkpt lat="45.3182848356664180755615234375" lon="-71.014721095561981201171875">
        <ele>680.20001220703125</ele>
        <time>2026-08-21T21:09:07.000Z</time>
        <extensions>
          <ns3:TrackPointExtension>
            <ns3:hr>122</ns3:hr>
            <ns3:cad>52</ns3:cad>
          </ns3:TrackPointExtension>
        </extensions>
      </trkpt>
      <trkpt lat="45.31827293336391448974609375" lon="-71.01472377777099609375">
        <ele>680.4000244140625</ele>
        <time>2026-08-21T21:09:08.000Z</time>
        <extensions>
          <ns3:TrackPointExtension>
            <ns3:hr>123</ns3:hr>
            <ns3:cad>52</ns3:cad>
          </ns3:TrackPointExtension>
        </extensions>
      </trkpt>
      <trkpt lat="45.31826547347009181976318359375" lon="-71.01472604088485240936279296875">
        <ele>680.5999755859375</ele>
        <time>2026-08-21T21:09:09.000Z</time>
        <extensions>
          <ns3:TrackPointExtension>
            <ns3:hr>124</ns3:hr>
            <ns3:cad>52</ns3:cad>
          </ns3:TrackPointExtension>
        </extensions>
      </trkpt>
      <trkpt lat="45.31825709156692028045654296875" lon="-71.0147224366664886474609375">
        <ele>680.5999755859375</ele>
        <time>2026-08-21T21:09:10.000Z</time>
        <extensions>
          <ns3:TrackPointExtension>
            <ns3:hr>125</ns3:hr>
            <ns3:cad>50</ns3:cad>
          </ns3:TrackPointExtension>
        </extensions>
      </trkpt>
      <trkpt lat="45.3182439319789409637451171875" lon="-71.0147205926477909088134765625">
        <ele>680.79998779296875</ele>
        <time>2026-08-21T21:09:11.000Z</time>
        <extensions>
          <ns3:TrackPointExtension>
            <ns3:hr>127</ns3:hr>
            <ns3:cad>51</ns3:cad>
          </ns3:TrackPointExtension>
        </extensions>
      </trkpt>
      <trkpt lat="45.31823094002902507781982421875" lon="-71.0147179104387760162353515625">
        <ele>681.20001220703125</ele>
        <time>2026-08-21T21:09:12.000Z</time>
        <extensions>
          <ns3:TrackPointExtension>
            <ns3:hr>128</ns3:hr>
            <ns3:cad>51</ns3:cad>
          </ns3:TrackPointExtension>
        </extensions>
      </trkpt>
      <trkpt lat="45.3182228095829486846923828125" lon="-71.01471506059169769287109375">
        <ele>681.4000244140625</ele>
        <time>2026-08-21T21:09:13.000Z</time>
        <extensions>
          <ns3:TrackPointExtension>
            <ns3:hr>129</ns3:hr>
            <ns3:cad>51</ns3:cad>
          </ns3:TrackPointExtension>
        </extensions>
      </trkpt>
      <trkpt lat="45.3182161040604114532470703125" lon="-71.0147148929536342620849609375">
        <ele>681.5999755859375</ele>
        <time>2026-08-21T21:09:14.000Z</time>
        <extensions>
          <ns3:TrackPointExtension>
            <ns3:hr>130</ns3:hr>
            <ns3:cad>51</ns3:cad>
          </ns3:TrackPointExtension>
        </extensions>
      </trkpt>
      <trkpt lat="45.31820311211049556732177734375" lon="-71.01471195928752422332763671875">
        <ele>681.79998779296875</ele>
        <time>2026-08-21T21:09:15.000Z</time>
        <extensions>
          <ns3:TrackPointExtension>
            <ns3:hr>131</ns3:hr>
            <ns3:cad>0</ns3:cad>
          </ns3:TrackPointExtension>
        </extensions>
      </trkpt>
      <trkpt lat="45.31819338910281658172607421875" lon="-71.0147055052220821380615234375">
        <ele>682</ele>
        <time>2026-08-21T21:09:16.000Z</time>
        <extensions>
          <ns3:TrackPointExtension>
            <ns3:hr>132</ns3:hr>
            <ns3:cad>0</ns3:cad>
          </ns3:TrackPointExtension>
        </extensions>
      </trkpt>
      <trkpt lat="45.31818618066608905792236328125" lon="-71.014697290956974029541015625">
        <ele>682.20001220703125</ele>
        <time>2026-08-21T21:09:17.000Z</time>
        <extensions>
          <ns3:TrackPointExtension>
            <ns3:hr>132</ns3:hr>
            <ns3:cad>0</ns3:cad>
          </ns3:TrackPointExtension>
        </extensions>
      </trkpt>
      <trkpt lat="45.31818064860999584197998046875" lon="-71.01469586603343486785888671875">
        <ele>682.4000244140625</ele>
        <time>2026-08-21T21:09:18.000Z</time>
        <extensions>
          <ns3:TrackPointExtension>
            <ns3:hr>133</ns3:hr>
            <ns3:cad>0</ns3:cad>
          </ns3:TrackPointExtension>
        </extensions>
      </trkpt>
      <trkpt lat="45.3181698359549045562744140625" lon="-71.01469435729086399078369140625">
        <ele>682.5999755859375</ele>
        <time>2026-08-21T21:09:19.000Z</time>
        <extensions>
          <ns3:TrackPointExtension>
            <ns3:hr>133</ns3:hr>
            <ns3:cad>0</ns3:cad>
          </ns3:TrackPointExtension>
        </extensions>
      </trkpt>
      <trkpt lat="45.318152569234371185302734375" lon="-71.014703325927257537841796875">
        <ele>682.79998779296875</ele>
        <time>2026-08-21T21:09:20.000Z</time>
        <extensions>
          <ns3:TrackPointExtension>
            <ns3:hr>133</ns3:hr>
            <ns3:cad>45</ns3:cad>
          </ns3:TrackPointExtension>
        </extensions>
      </trkpt>
      <trkpt lat="45.318143852055072784423828125" lon="-71.01471229456365108489990234375">
        <ele>682.79998779296875</ele>
        <time>2026-08-21T21:09:21.000Z</time>
        <extensions>
          <ns3:TrackPointExtension>
            <ns3:hr>133</ns3:hr>
            <ns3:cad>45</ns3:cad>
          </ns3:TrackPointExtension>
        </extensions>
      </trkpt>
      <trkpt lat="45.31813991256058216094970703125" lon="-71.014714054763317108154296875">
        <ele>683</ele>
        <time>2026-08-21T21:09:22.000Z</time>
        <extensions>
          <ns3:TrackPointExtension>
            <ns3:hr>134</ns3:hr>
            <ns3:cad>45</ns3:cad>
          </ns3:TrackPointExtension>
        </extensions>
      </trkpt>
      <trkpt lat="45.3181312792003154754638671875" lon="-71.0147179104387760162353515625">
        <ele>683.20001220703125</ele>
        <time>2026-08-21T21:09:23.000Z</time>
        <extensions>
          <ns3:TrackPointExtension>
            <ns3:hr>134</ns3:hr>
            <ns3:cad>0</ns3:cad>
          </ns3:TrackPointExtension>
        </extensions>
      </trkpt>
      <trkpt lat="45.31812348403036594390869140625" lon="-71.01472218520939350128173828125">
        <ele>683.4000244140625</ele>
        <time>2026-08-21T21:09:24.000Z</time>
        <extensions>
          <ns3:TrackPointExtension>
            <ns3:hr>135</ns3:hr>
            <ns3:cad>0</ns3:cad>
          </ns3:TrackPointExtension>
        </extensions>
      </trkpt>
      <trkpt lat="45.3181140124797821044921875" lon="-71.01472754962742328643798828125">
        <ele>683.5999755859375</ele>
        <time>2026-08-21T21:09:25.000Z</time>
        <extensions>
          <ns3:TrackPointExtension>
            <ns3:hr>135</ns3:hr>
            <ns3:cad>0</ns3:cad>
          </ns3:TrackPointExtension>
        </extensions>
      </trkpt>
      <trkpt lat="45.31811325810849666595458984375" lon="-71.01472855545580387115478515625">
        <ele>684</ele>
        <time>2026-08-21T21:09:26.000Z</time>
        <extensions>
          <ns3:TrackPointExtension>
            <ns3:hr>135</ns3:hr>
            <ns3:cad>0</ns3:cad>
          </ns3:TrackPointExtension>
        </extensions>
      </trkpt>
      <trkpt lat="45.31810797750949859619140625" lon="-71.01473785936832427978515625">
        <ele>684.20001220703125</ele>
        <time>2026-08-21T21:09:27.000Z</time>
        <extensions>
          <ns3:TrackPointExtension>
            <ns3:hr>134</ns3:hr>
            <ns3:cad>0</ns3:cad>
          </ns3:TrackPointExtension>
        </extensions>
      </trkpt>
      <trkpt lat="45.31809682957828044891357421875" lon="-71.014744900166988372802734375">
        <ele>684.4000244140625</ele>
        <time>2026-08-21T21:09:28.000Z</time>
        <extensions>
          <ns3:TrackPointExtension>
            <ns3:hr>135</ns3:hr>
            <ns3:cad>0</ns3:cad>
          </ns3:TrackPointExtension>
        </extensions>
      </trkpt>
      <trkpt lat="45.31808509491384029388427734375" lon="-71.014753617346286773681640625">
        <ele>684.5999755859375</ele>
        <time>2026-08-21T21:09:29.000Z</time>
        <extensions>
          <ns3:TrackPointExtension>
            <ns3:hr>134</ns3:hr>
            <ns3:cad>0</ns3:cad>
          </ns3:TrackPointExtension>
        </extensions>
      </trkpt>
      <trkpt lat="45.31807587482035160064697265625" lon="-71.0147608257830142974853515625">
        <ele>684.5999755859375</ele>
        <time>2026-08-21T21:09:30.000Z</time>
        <extensions>
          <ns3:TrackPointExtension>
            <ns3:hr>135</ns3:hr>
            <ns3:cad>0</ns3:cad>
          </ns3:TrackPointExtension>
        </extensions>
      </trkpt>
      <trkpt lat="45.31807118095457553863525390625" lon="-71.01476736366748809814453125">
        <ele>684.79998779296875</ele>
        <time>2026-08-21T21:09:31.000Z</time>
        <extensions>
          <ns3:TrackPointExtension>
            <ns3:hr>135</ns3:hr>
            <ns3:cad>0</ns3:cad>
          </ns3:TrackPointExtension>
        </extensions>
      </trkpt>
      <trkpt lat="45.318060033023357391357421875" lon="-71.01477884687483310699462890625">
        <ele>685</ele>
        <time>2026-08-21T21:09:32.000Z</time>
        <extensions>
          <ns3:TrackPointExtension>
            <ns3:hr>136</ns3:hr>
            <ns3:cad>0</ns3:cad>
          </ns3:TrackPointExtension>
        </extensions>
      </trkpt>
      <trkpt lat="45.3180531598627567291259765625" lon="-71.01479326374828815460205078125">
        <ele>685.20001220703125</ele>
        <time>2026-08-21T21:09:33.000Z</time>
        <extensions>
          <ns3:TrackPointExtension>
            <ns3:hr>136</ns3:hr>
            <ns3:cad>0</ns3:cad>
          </ns3:TrackPointExtension>
        </extensions>
      </trkpt>
      <trkpt lat="45.31804435886442661285400390625" lon="-71.014803908765316009521484375">
        <ele>685.4000244140625</ele>
        <time>2026-08-21T21:09:34.000Z</time>
        <extensions>
          <ns3:TrackPointExtension>
            <ns3:hr>136</ns3:hr>
            <ns3:cad>0</ns3:cad>
          </ns3:TrackPointExtension>
        </extensions>
      </trkpt>
      <trkpt lat="45.31803882680833339691162109375" lon="-71.01481254212558269500732421875">
        <ele>685.5999755859375</ele>
        <time>2026-08-21T21:09:35.000Z</time>
        <extensions>
          <ns3:TrackPointExtension>
            <ns3:hr>135</ns3:hr>
            <ns3:cad>0</ns3:cad>
          </ns3:TrackPointExtension>
        </extensions>
      </trkpt>
      <trkpt lat="45.31803019344806671142578125" lon="-71.01482142694294452667236328125">
        <ele>685.79998779296875</ele>
        <time>2026-08-21T21:09:36.000Z</time>
        <extensions>
          <ns3:TrackPointExtension>
            <ns3:hr>136</ns3:hr>
            <ns3:cad>0</ns3:cad>
          </ns3:TrackPointExtension>
        </extensions>
      </trkpt>
      <trkpt lat="45.3180260024964809417724609375" lon="-71.0148359276354312896728515625">
        <ele>686</ele>
        <time>2026-08-21T21:09:37.000Z</time>
        <extensions>
          <ns3:TrackPointExtension>
            <ns3:hr>137</ns3:hr>
            <ns3:cad>0</ns3:cad>
          </ns3:TrackPointExtension>
        </extensions>
      </trkpt>
      <trkpt lat="45.31801736913621425628662109375" lon="-71.01485319435596466064453125">
        <ele>686.20001220703125</ele>
        <time>2026-08-21T21:09:38.000Z</time>
        <extensions>
          <ns3:TrackPointExtension>
            <ns3:hr>137</ns3:hr>
            <ns3:cad>0</ns3:cad>
          </ns3:TrackPointExtension>
        </extensions>
      </trkpt>
      <trkpt lat="45.3180075623095035552978515625" lon="-71.01486350409686565399169921875">
        <ele>686.20001220703125</ele>
        <time>2026-08-21T21:09:39.000Z</time>
        <extensions>
          <ns3:TrackPointExtension>
            <ns3:hr>138</ns3:hr>
            <ns3:cad>46</ns3:cad>
          </ns3:TrackPointExtension>
        </extensions>
      </trkpt>
      <trkpt lat="45.31800244934856891632080078125" lon="-71.014869622886180877685546875">
        <ele>686.4000244140625</ele>
        <time>2026-08-21T21:09:40.000Z</time>
        <extensions>
          <ns3:TrackPointExtension>
            <ns3:hr>138</ns3:hr>
            <ns3:cad>46</ns3:cad>
          </ns3:TrackPointExtension>
        </extensions>
      </trkpt>
      <trkpt lat="45.31799054704606533050537109375" lon="-71.014875657856464385986328125">
        <ele>686.5999755859375</ele>
        <time>2026-08-21T21:09:41.000Z</time>
        <extensions>
          <ns3:TrackPointExtension>
            <ns3:hr>138</ns3:hr>
            <ns3:cad>46</ns3:cad>
          </ns3:TrackPointExtension>
        </extensions>
      </trkpt>
      <trkpt lat="45.3179854340851306915283203125" lon="-71.014886386692523956298828125">
        <ele>686.79998779296875</ele>
        <time>2026-08-21T21:09:42.000Z</time>
        <extensions>
          <ns3:TrackPointExtension>
            <ns3:hr>139</ns3:hr>
            <ns3:cad>47</ns3:cad>
          </ns3:TrackPointExtension>
        </extensions>
      </trkpt>
      <trkpt lat="45.3179730288684368133544921875" lon="-71.01489887572824954986572265625">
        <ele>687</ele>
        <time>2026-08-21T21:09:43.000Z</time>
        <extensions>
          <ns3:TrackPointExtension>
            <ns3:hr>139</ns3:hr>
            <ns3:cad>47</ns3:cad>
          </ns3:TrackPointExtension>
        </extensions>
      </trkpt>
      <trkpt lat="45.3179626353085041046142578125" lon="-71.0149053297936916351318359375">
        <ele>687</ele>
        <time>2026-08-21T21:09:44.000Z</time>
        <extensions>
          <ns3:TrackPointExtension>
            <ns3:hr>139</ns3:hr>
            <ns3:cad>0</ns3:cad>
          </ns3:TrackPointExtension>
        </extensions>
      </trkpt>
      <trkpt lat="45.31795416958630084991455078125" lon="-71.01490809582173824310302734375">
        <ele>687.20001220703125</ele>
        <time>2026-08-21T21:09:45.000Z</time>
        <extensions>
          <ns3:TrackPointExtension>
            <ns3:hr>138</ns3:hr>
            <ns3:cad>0</ns3:cad>
          </ns3:TrackPointExtension>
        </extensions>
      </trkpt>
      <trkpt lat="45.31794729642570018768310546875" lon="-71.01490876637399196624755859375">
        <ele>687.4000244140625</ele>
        <time>2026-08-21T21:09:46.000Z</time>
        <extensions>
          <ns3:TrackPointExtension>
            <ns3:hr>139</ns3:hr>
            <ns3:cad>0</ns3:cad>
          </ns3:TrackPointExtension>
        </extensions>
      </trkpt>
      <trkpt lat="45.3179378248751163482666015625" lon="-71.0149100236594676971435546875">
        <ele>687.5999755859375</ele>
        <time>2026-08-21T21:09:47.000Z</time>
        <extensions>
          <ns3:TrackPointExtension>
            <ns3:hr>140</ns3:hr>
            <ns3:cad>48</ns3:cad>
          </ns3:TrackPointExtension>
        </extensions>
      </trkpt>
      <trkpt lat="45.3179235756397247314453125" lon="-71.01491413079202175140380859375">
        <ele>687.79998779296875</ele>
        <time>2026-08-21T21:09:48.000Z</time>
        <extensions>
          <ns3:TrackPointExtension>
            <ns3:hr>140</ns3:hr>
            <ns3:cad>48</ns3:cad>
          </ns3:TrackPointExtension>
        </extensions>
      </trkpt>
      <trkpt lat="45.31791510991752147674560546875" lon="-71.014917232096195220947265625">
        <ele>687.79998779296875</ele>
        <time>2026-08-21T21:09:49.000Z</time>
        <extensions>
          <ns3:TrackPointExtension>
            <ns3:hr>140</ns3:hr>
            <ns3:cad>49</ns3:cad>
          </ns3:TrackPointExtension>
        </extensions>
      </trkpt>
      <trkpt lat="45.31790723092854022979736328125" lon="-71.0149184055626392364501953125">
        <ele>688</ele>
        <time>2026-08-21T21:09:50.000Z</time>
        <extensions>
          <ns3:TrackPointExtension>
            <ns3:hr>140</ns3:hr>
            <ns3:cad>49</ns3:cad>
          </ns3:TrackPointExtension>
        </extensions>
      </trkpt>
      <trkpt lat="45.31789583154022693634033203125" lon="-71.014930307865142822265625">
        <ele>688.20001220703125</ele>
        <time>2026-08-21T21:09:51.000Z</time>
        <extensions>
          <ns3:TrackPointExtension>
            <ns3:hr>141</ns3:hr>
            <ns3:cad>50</ns3:cad>
          </ns3:TrackPointExtension>
        </extensions>
      </trkpt>
      <trkpt lat="45.3178905509412288665771484375" lon="-71.014939360320568084716796875">
        <ele>688.20001220703125</ele>
        <time>2026-08-21T21:09:52.000Z</time>
        <extensions>
          <ns3:TrackPointExtension>
            <ns3:hr>141</ns3:hr>
            <ns3:cad>50</ns3:cad>
          </ns3:TrackPointExtension>
        </extensions>
      </trkpt>
      <trkpt lat="45.31788376159965991973876953125" lon="-71.014948748052120208740234375">
        <ele>688.4000244140625</ele>
        <time>2026-08-21T21:09:53.000Z</time>
        <extensions>
          <ns3:TrackPointExtension>
            <ns3:hr>141</ns3:hr>
            <ns3:cad>50</ns3:cad>
          </ns3:TrackPointExtension>
        </extensions>
      </trkpt>
      <trkpt lat="45.31787688843905925750732421875" lon="-71.01495671086013317108154296875">
        <ele>688.5999755859375</ele>
        <time>2026-08-21T21:09:54.000Z</time>
        <extensions>
          <ns3:TrackPointExtension>
            <ns3:hr>141</ns3:hr>
            <ns3:cad>50</ns3:cad>
          </ns3:TrackPointExtension>
        </extensions>
      </trkpt>
      <trkpt lat="45.31787152402102947235107421875" lon="-71.01495905779302120208740234375">
        <ele>688.5999755859375</ele>
        <time>2026-08-21T21:09:55.000Z</time>
        <extensions>
          <ns3:TrackPointExtension>
            <ns3:hr>141</ns3:hr>
            <ns3:cad>50</ns3:cad>
          </ns3:TrackPointExtension>
        </extensions>
      </trkpt>
      <trkpt lat="45.31786213628947734832763671875" lon="-71.0149646736681461334228515625">
        <ele>688.79998779296875</ele>
        <time>2026-08-21T21:09:56.000Z</time>
        <extensions>
          <ns3:TrackPointExtension>
            <ns3:hr>141</ns3:hr>
            <ns3:cad>50</ns3:cad>
          </ns3:TrackPointExtension>
        </extensions>
      </trkpt>
      <trkpt lat="45.317849479615688323974609375" lon="-71.0149670206010341644287109375">
        <ele>689</ele>
        <time>2026-08-21T21:09:57.000Z</time>
        <extensions>
          <ns3:TrackPointExtension>
            <ns3:hr>141</ns3:hr>
            <ns3:cad>50</ns3:cad>
          </ns3:TrackPointExtension>
        </extensions>
      </trkpt>
      <trkpt lat="45.31783900223672389984130859375" lon="-71.01496878080070018768310546875">
        <ele>689.20001220703125</ele>
        <time>2026-08-21T21:09:58.000Z</time>
        <extensions>
          <ns3:TrackPointExtension>
            <ns3:hr>142</ns3:hr>
            <ns3:cad>50</ns3:cad>
          </ns3:TrackPointExtension>
        </extensions>
      </trkpt>
      <trkpt lat="45.317834056913852691650390625" lon="-71.01496861316263675689697265625">
        <ele>689.4000244140625</ele>
        <time>2026-08-21T21:09:59.000Z</time>
        <extensions>
          <ns3:TrackPointExtension>
            <ns3:hr>141</ns3:hr>
            <ns3:cad>0</ns3:cad>
          </ns3:TrackPointExtension>
        </extensions>
      </trkpt>
      <trkpt lat="45.3178218193352222442626953125" lon="-71.01496593095362186431884765625">
        <ele>689.5999755859375</ele>
        <time>2026-08-21T21:10:00.000Z</time>
        <extensions>
          <ns3:TrackPointExtension>
            <ns3:hr>141</ns3:hr>
            <ns3:cad>0</ns3:cad>
          </ns3:TrackPointExtension>
        </extensions>
      </trkpt>
      <trkpt lat="45.31781637109816074371337890625" lon="-71.0149697028100490570068359375">
        <ele>690</ele>
        <time>2026-08-21T21:10:01.000Z</time>
        <extensions>
          <ns3:TrackPointExtension>
            <ns3:hr>141</ns3:hr>
            <ns3:cad>0</ns3:cad>
          </ns3:TrackPointExtension>
        </extensions>
      </trkpt>
      <trkpt lat="45.3178063966333866119384765625" lon="-71.01497464813292026519775390625">
        <ele>690.20001220703125</ele>
        <time>2026-08-21T21:10:02.000Z</time>
        <extensions>
          <ns3:TrackPointExtension>
            <ns3:hr>141</ns3:hr>
            <ns3:cad>0</ns3:cad>
          </ns3:TrackPointExtension>
        </extensions>
      </trkpt>
      <trkpt lat="45.31779306940734386444091796875" lon="-71.01498194038867950439453125">
        <ele>690.4000244140625</ele>
        <time>2026-08-21T21:10:03.000Z</time>
        <extensions>
          <ns3:TrackPointExtension>
            <ns3:hr>141</ns3:hr>
            <ns3:cad>0</ns3:cad>
          </ns3:TrackPointExtension>
        </extensions>
      </trkpt>
      <trkpt lat="45.317784436047077178955078125" lon="-71.0149928368628025054931640625">
        <ele>690.5999755859375</ele>
        <time>2026-08-21T21:10:04.000Z</time>
        <extensions>
          <ns3:TrackPointExtension>
            <ns3:hr>140</ns3:hr>
            <ns3:cad>0</ns3:cad>
          </ns3:TrackPointExtension>
        </extensions>
      </trkpt>
      <trkpt lat="45.31777630560100078582763671875" lon="-71.01499778218567371368408203125">
        <ele>690.5999755859375</ele>
        <time>2026-08-21T21:10:05.000Z</time>
        <extensions>
          <ns3:TrackPointExtension>
            <ns3:hr>141</ns3:hr>
            <ns3:cad>0</ns3:cad>
          </ns3:TrackPointExtension>
        </extensions>
      </trkpt>
      <trkpt lat="45.3177685104310512542724609375" lon="-71.01500339806079864501953125">
        <ele>690.79998779296875</ele>
        <time>2026-08-21T21:10:06.000Z</time>
        <extensions>
          <ns3:TrackPointExtension>
            <ns3:hr>141</ns3:hr>
            <ns3:cad>47</ns3:cad>
          </ns3:TrackPointExtension>
        </extensions>
      </trkpt>
      <trkpt lat="45.3177577815949916839599609375" lon="-71.01500876247882843017578125">
        <ele>691</ele>
        <time>2026-08-21T21:10:07.000Z</time>
        <extensions>
          <ns3:TrackPointExtension>
            <ns3:hr>140</ns3:hr>
            <ns3:cad>47</ns3:cad>
          </ns3:TrackPointExtension>
        </extensions>
      </trkpt>
      <trkpt lat="45.31774453818798065185546875" lon="-71.015016138553619384765625">
        <ele>691.20001220703125</ele>
        <time>2026-08-21T21:10:08.000Z</time>
        <extensions>
          <ns3:TrackPointExtension>
            <ns3:hr>140</ns3:hr>
            <ns3:cad>47</ns3:cad>
          </ns3:TrackPointExtension>
        </extensions>
      </trkpt>
      <trkpt lat="45.317736156284809112548828125" lon="-71.0150216706097126007080078125">
        <ele>691.4000244140625</ele>
        <time>2026-08-21T21:10:09.000Z</time>
        <extensions>
          <ns3:TrackPointExtension>
            <ns3:hr>140</ns3:hr>
            <ns3:cad>0</ns3:cad>
          </ns3:TrackPointExtension>
        </extensions>
      </trkpt>
      <trkpt lat="45.3177282772958278656005859375" lon="-71.01502745412290096282958984375">
        <ele>691.5999755859375</ele>
        <time>2026-08-21T21:10:10.000Z</time>
        <extensions>
          <ns3:TrackPointExtension>
            <ns3:hr>141</ns3:hr>
            <ns3:cad>0</ns3:cad>
          </ns3:TrackPointExtension>
        </extensions>
      </trkpt>
      <trkpt lat="45.3177229128777980804443359375" lon="-71.0150401107966899871826171875">
        <ele>692</ele>
        <time>2026-08-21T21:10:11.000Z</time>
        <extensions>
          <ns3:TrackPointExtension>
            <ns3:hr>141</ns3:hr>
            <ns3:cad>0</ns3:cad>
          </ns3:TrackPointExtension>
        </extensions>
      </trkpt>
      <trkpt lat="45.31771830283105373382568359375" lon="-71.01505561731755733489990234375">
        <ele>692.20001220703125</ele>
        <time>2026-08-21T21:10:12.000Z</time>
        <extensions>
          <ns3:TrackPointExtension>
            <ns3:hr>141</ns3:hr>
            <ns3:cad>0</ns3:cad>
          </ns3:TrackPointExtension>
        </extensions>
      </trkpt>
      <trkpt lat="45.3177115134894847869873046875" lon="-71.0150619037449359893798828125">
        <ele>692.4000244140625</ele>
        <time>2026-08-21T21:10:13.000Z</time>
        <extensions>
          <ns3:TrackPointExtension>
            <ns3:hr>142</ns3:hr>
            <ns3:cad>48</ns3:cad>
          </ns3:TrackPointExtension>
        </extensions>
      </trkpt>
      <trkpt lat="45.3177078254520893096923828125" lon="-71.0150657594203948974609375">
        <ele>692.4000244140625</ele>
        <time>2026-08-21T21:10:14.000Z</time>
        <extensions>
          <ns3:TrackPointExtension>
            <ns3:hr>142</ns3:hr>
            <ns3:cad>48</ns3:cad>
          </ns3:TrackPointExtension>
        </extensions>
      </trkpt>
      <trkpt lat="45.3177004493772983551025390625" lon="-71.0150766558945178985595703125">
        <ele>692.5999755859375</ele>
        <time>2026-08-21T21:10:15.000Z</time>
        <extensions>
          <ns3:TrackPointExtension>
            <ns3:hr>143</ns3:hr>
            <ns3:cad>48</ns3:cad>
          </ns3:TrackPointExtension>
        </extensions>
      </trkpt>
      <trkpt lat="45.3176924027502536773681640625" lon="-71.01508461870253086090087890625">
        <ele>692.79998779296875</ele>
        <time>2026-08-21T21:10:16.000Z</time>
        <extensions>
          <ns3:TrackPointExtension>
            <ns3:hr>143</ns3:hr>
            <ns3:cad>46</ns3:cad>
          </ns3:TrackPointExtension>
        </extensions>
      </trkpt>
      <trkpt lat="45.3176897205412387847900390625" lon="-71.0150883905589580535888671875">
        <ele>693</ele>
        <time>2026-08-21T21:10:17.000Z</time>
        <extensions>
          <ns3:TrackPointExtension>
            <ns3:hr>143</ns3:hr>
            <ns3:cad>46</ns3:cad>
          </ns3:TrackPointExtension>
        </extensions>
      </trkpt>
      <trkpt lat="45.3176823444664478302001953125" lon="-71.01509517990052700042724609375">
        <ele>693.20001220703125</ele>
        <time>2026-08-21T21:10:18.000Z</time>
        <extensions>
          <ns3:TrackPointExtension>
            <ns3:hr>143</ns3:hr>
            <ns3:cad>46</ns3:cad>
          </ns3:TrackPointExtension>
        </extensions>
      </trkpt>
      <trkpt lat="45.31767136417329311370849609375" lon="-71.01510171778500080108642578125">
        <ele>693.4000244140625</ele>
        <time>2026-08-21T21:10:19.000Z</time>
        <extensions>
          <ns3:TrackPointExtension>
            <ns3:hr>143</ns3:hr>
            <ns3:cad>0</ns3:cad>
          </ns3:TrackPointExtension>
        </extensions>
      </trkpt>
      <trkpt lat="45.3176652453839778900146484375" lon="-71.01509853266179561614990234375">
        <ele>693.79998779296875</ele>
        <time>2026-08-21T21:10:20.000Z</time>
        <extensions>
          <ns3:TrackPointExtension>
            <ns3:hr>142</ns3:hr>
            <ns3:cad>0</ns3:cad>
          </ns3:TrackPointExtension>
        </extensions>
      </trkpt>
      <trkpt lat="45.31766331754624843597412109375" lon="-71.0151006281375885009765625">
        <ele>694</ele>
        <time>2026-08-21T21:10:21.000Z</time>
        <extensions>
          <ns3:TrackPointExtension>
            <ns3:hr>142</ns3:hr>
            <ns3:cad>0</ns3:cad>
          </ns3:TrackPointExtension>
        </extensions>
      </trkpt>
      <trkpt lat="45.31765510328114032745361328125" lon="-71.0151086747646331787109375">
        <ele>694.20001220703125</ele>
        <time>2026-08-21T21:10:22.000Z</time>
        <extensions>
          <ns3:TrackPointExtension>
            <ns3:hr>142</ns3:hr>
            <ns3:cad>0</ns3:cad>
          </ns3:TrackPointExtension>
        </extensions>
      </trkpt>
      <trkpt lat="45.317642278969287872314453125" lon="-71.0151185654103755950927734375">
        <ele>694.4000244140625</ele>
        <time>2026-08-21T21:10:23.000Z</time>
        <extensions>
          <ns3:TrackPointExtension>
            <ns3:hr>143</ns3:hr>
            <ns3:cad>0</ns3:cad>
          </ns3:TrackPointExtension>
        </extensions>
      </trkpt>
      <trkpt lat="45.31763884238898754119873046875" lon="-71.01512619294226169586181640625">
        <ele>694.79998779296875</ele>
        <time>2026-08-21T21:10:24.000Z</time>
        <extensions>
          <ns3:TrackPointExtension>
            <ns3:hr>142</ns3:hr>
            <ns3:cad>0</ns3:cad>
          </ns3:TrackPointExtension>
        </extensions>
      </trkpt>
      <trkpt lat="45.31763616017997264862060546875" lon="-71.0151354968547821044921875">
        <ele>695</ele>
        <time>2026-08-21T21:10:25.000Z</time>
        <extensions>
          <ns3:TrackPointExtension>
            <ns3:hr>142</ns3:hr>
            <ns3:cad>0</ns3:cad>
          </ns3:TrackPointExtension>
        </extensions>
      </trkpt>
      <trkpt lat="45.31762526370584964752197265625" lon="-71.01514379493892192840576171875">
        <ele>695.20001220703125</ele>
        <time>2026-08-21T21:10:26.000Z</time>
        <extensions>
          <ns3:TrackPointExtension>
            <ns3:hr>143</ns3:hr>
            <ns3:cad>0</ns3:cad>
          </ns3:TrackPointExtension>
        </extensions>
      </trkpt>
      <trkpt lat="45.3176246769726276397705078125" lon="-71.01514312438666820526123046875">
        <ele>695.20001220703125</ele>
        <time>2026-08-21T21:10:27.000Z</time>
        <extensions>
          <ns3:TrackPointExtension>
            <ns3:hr>142</ns3:hr>
            <ns3:cad>0</ns3:cad>
          </ns3:TrackPointExtension>
        </extensions>
      </trkpt>
      <trkpt lat="45.31762107275426387786865234375" lon="-71.0151433758437633514404296875">
        <ele>695.4000244140625</ele>
        <time>2026-08-21T21:10:28.000Z</time>
        <extensions>
          <ns3:TrackPointExtension>
            <ns3:hr>142</ns3:hr>
            <ns3:cad>0</ns3:cad>
          </ns3:TrackPointExtension>
        </extensions>
      </trkpt>
      <trkpt lat="45.31761285848915576934814453125" lon="-71.0151422023773193359375">
        <ele>695.5999755859375</ele>
        <time>2026-08-21T21:10:29.000Z</time>
        <extensions>
          <ns3:TrackPointExtension>
            <ns3:hr>143</ns3:hr>
            <ns3:cad>0</ns3:cad>
          </ns3:TrackPointExtension>
        </extensions>
      </trkpt>
      <trkpt lat="45.3176124393939971923828125" lon="-71.0151490755379199981689453125">
        <ele>695.79998779296875</ele>
        <time>2026-08-21T21:10:30.000Z</time>
        <extensions>
          <ns3:TrackPointExtension>
            <ns3:hr>143</ns3:hr>
            <ns3:cad>0</ns3:cad>
          </ns3:TrackPointExtension>
        </extensions>
      </trkpt>
      <trkpt lat="45.317603051662445068359375" lon="-71.015158630907535552978515625">
        <ele>696.20001220703125</ele>
        <time>2026-08-21T21:10:31.000Z</time>
        <extensions>
          <ns3:TrackPointExtension>
            <ns3:hr>143</ns3:hr>
            <ns3:cad>0</ns3:cad>
          </ns3:TrackPointExtension>
        </extensions>
      </trkpt>
      <trkpt lat="45.31759961508214473724365234375" lon="-71.01516223512589931488037109375">
        <ele>696.4000244140625</ele>
        <time>2026-08-21T21:10:32.000Z</time>
        <extensions>
          <ns3:TrackPointExtension>
            <ns3:hr>143</ns3:hr>
            <ns3:cad>0</ns3:cad>
          </ns3:TrackPointExtension>
        </extensions>
      </trkpt>
      <trkpt lat="45.31759374774992465972900390625" lon="-71.0151644982397556304931640625">
        <ele>696.5999755859375</ele>
        <time>2026-08-21T21:10:33.000Z</time>
        <extensions>
          <ns3:TrackPointExtension>
            <ns3:hr>144</ns3:hr>
            <ns3:cad>0</ns3:cad>
          </ns3:TrackPointExtension>
        </extensions>
      </trkpt>
      <trkpt lat="45.3175817616283893585205078125" lon="-71.015174724161624908447265625">
        <ele>696.79998779296875</ele>
        <time>2026-08-21T21:10:34.000Z</time>
        <extensions>
          <ns3:TrackPointExtension>
            <ns3:hr>144</ns3:hr>
            <ns3:cad>0</ns3:cad>
          </ns3:TrackPointExtension>
        </extensions>
      </trkpt>
      <trkpt lat="45.3175757266581058502197265625" lon="-71.01517774164676666259765625">
        <ele>697</ele>
        <time>2026-08-21T21:10:35.000Z</time>
        <extensions>
          <ns3:TrackPointExtension>
            <ns3:hr>143</ns3:hr>
            <ns3:cad>0</ns3:cad>
          </ns3:TrackPointExtension>
        </extensions>
      </trkpt>
      <trkpt lat="45.31757396645843982696533203125" lon="-71.01517732255160808563232421875">
        <ele>697.20001220703125</ele>
        <time>2026-08-21T21:10:36.000Z</time>
        <extensions>
          <ns3:TrackPointExtension>
            <ns3:hr>143</ns3:hr>
            <ns3:cad>0</ns3:cad>
          </ns3:TrackPointExtension>
        </extensions>
      </trkpt>
      <trkpt lat="45.317566506564617156982421875" lon="-71.01517648436129093170166015625">
        <ele>697.4000244140625</ele>
        <time>2026-08-21T21:10:37.000Z</time>
        <extensions>
          <ns3:TrackPointExtension>
            <ns3:hr>143</ns3:hr>
            <ns3:cad>0</ns3:cad>
          </ns3:TrackPointExtension>
        </extensions>
      </trkpt>
      <trkpt lat="45.3175663389265537261962890625" lon="-71.015174388885498046875">
        <ele>697.5999755859375</ele>
        <time>2026-08-21T21:10:38.000Z</time>
        <extensions>
          <ns3:TrackPointExtension>
            <ns3:hr>144</ns3:hr>
            <ns3:cad>0</ns3:cad>
          </ns3:TrackPointExtension>
        </extensions>
      </trkpt>
      <trkpt lat="45.31756709329783916473388671875" lon="-71.0151703655719757080078125">
        <ele>697.79998779296875</ele>
        <time>2026-08-21T21:10:39.000Z</time>
        <extensions>
          <ns3:TrackPointExtension>
            <ns3:hr>144</ns3:hr>
            <ns3:cad>0</ns3:cad>
          </ns3:TrackPointExtension>
        </extensions>
      </trkpt>
      <trkpt lat="45.3175646625459194183349609375" lon="-71.01515854708850383758544921875">
        <ele>698</ele>
        <time>2026-08-21T21:10:40.000Z</time>
        <extensions>
          <ns3:TrackPointExtension>
            <ns3:hr>144</ns3:hr>
            <ns3:cad>41</ns3:cad>
          </ns3:TrackPointExtension>
        </extensions>
      </trkpt>
      <trkpt lat="45.31755678355693817138671875" lon="-71.01515770889818668365478515625">
        <ele>698.4000244140625</ele>
        <time>2026-08-21T21:10:41.000Z</time>
        <extensions>
          <ns3:TrackPointExtension>
            <ns3:hr>144</ns3:hr>
            <ns3:cad>41</ns3:cad>
          </ns3:TrackPointExtension>
        </extensions>
      </trkpt>
      <trkpt lat="45.3175502456724643707275390625" lon="-71.01515653543174266815185546875">
        <ele>698.5999755859375</ele>
        <time>2026-08-21T21:10:42.000Z</time>
        <extensions>
          <ns3:TrackPointExtension>
            <ns3:hr>145</ns3:hr>
            <ns3:cad>0</ns3:cad>
          </ns3:TrackPointExtension>
        </extensions>
      </trkpt>
      <trkpt lat="45.31754060648381710052490234375" lon="-71.01515552960336208343505859375">
        <ele>698.79998779296875</ele>
        <time>2026-08-21T21:10:43.000Z</time>
        <extensions>
          <ns3:TrackPointExtension>
            <ns3:hr>145</ns3:hr>
            <ns3:cad>0</ns3:cad>
          </ns3:TrackPointExtension>
        </extensions>
      </trkpt>
      <trkpt lat="45.31754278577864170074462890625" lon="-71.0151577927172183990478515625">
        <ele>699</ele>
        <time>2026-08-21T21:10:44.000Z</time>
        <extensions>
          <ns3:TrackPointExtension>
            <ns3:hr>145</ns3:hr>
            <ns3:cad>0</ns3:cad>
          </ns3:TrackPointExtension>
        </extensions>
      </trkpt>
      <trkpt lat="45.31753842718899250030517578125" lon="-71.01516089402139186859130859375">
        <ele>699.20001220703125</ele>
        <time>2026-08-21T21:10:45.000Z</time>
        <extensions>
          <ns3:TrackPointExtension>
            <ns3:hr>146</ns3:hr>
            <ns3:cad>0</ns3:cad>
          </ns3:TrackPointExtension>
        </extensions>
      </trkpt>
      <trkpt lat="45.3175301291048526763916015625" lon="-71.0151587985455989837646484375">
        <ele>699.4000244140625</ele>
        <time>2026-08-21T21:10:46.000Z</time>
        <extensions>
          <ns3:TrackPointExtension>
            <ns3:hr>145</ns3:hr>
            <ns3:cad>0</ns3:cad>
          </ns3:TrackPointExtension>
        </extensions>
      </trkpt>
      <trkpt lat="45.31752434559166431427001953125" lon="-71.01515703834593296051025390625">
        <ele>699.5999755859375</ele>
        <time>2026-08-21T21:10:47.000Z</time>
        <extensions>
          <ns3:TrackPointExtension>
            <ns3:hr>146</ns3:hr>
            <ns3:cad>0</ns3:cad>
          </ns3:TrackPointExtension>
        </extensions>
      </trkpt>
      <trkpt lat="45.31751512549817562103271484375" lon="-71.01516374386847019195556640625">
        <ele>699.79998779296875</ele>
        <time>2026-08-21T21:10:48.000Z</time>
        <extensions>
          <ns3:TrackPointExtension>
            <ns3:hr>146</ns3:hr>
            <ns3:cad>0</ns3:cad>
          </ns3:TrackPointExtension>
        </extensions>
      </trkpt>
      <trkpt lat="45.31751252710819244384765625" lon="-71.01517111994326114654541015625">
        <ele>700</ele>
        <time>2026-08-21T21:10:49.000Z</time>
        <extensions>
          <ns3:TrackPointExtension>
            <ns3:hr>146</ns3:hr>
            <ns3:cad>0</ns3:cad>
          </ns3:TrackPointExtension>
        </extensions>
      </trkpt>
      <trkpt lat="45.317506827414035797119140625" lon="-71.0151752270758152008056640625">
        <ele>700.20001220703125</ele>
        <time>2026-08-21T21:10:50.000Z</time>
        <extensions>
          <ns3:TrackPointExtension>
            <ns3:hr>146</ns3:hr>
            <ns3:cad>0</ns3:cad>
          </ns3:TrackPointExtension>
        </extensions>
      </trkpt>
      <trkpt lat="45.31750179827213287353515625" lon="-71.015178747475147247314453125">
        <ele>700.20001220703125</ele>
        <time>2026-08-21T21:10:51.000Z</time>
        <extensions>
          <ns3:TrackPointExtension>
            <ns3:hr>146</ns3:hr>
            <ns3:cad>0</ns3:cad>
          </ns3:TrackPointExtension>
        </extensions>
      </trkpt>
      <trkpt lat="45.31749065034091472625732421875" lon="-71.0151784121990203857421875">
        <ele>700.5999755859375</ele>
        <time>2026-08-21T21:10:52.000Z</time>
        <extensions>
          <ns3:TrackPointExtension>
            <ns3:hr>146</ns3:hr>
            <ns3:cad>0</ns3:cad>
          </ns3:TrackPointExtension>
        </extensions>
      </trkpt>
      <trkpt lat="45.3174848668277263641357421875" lon="-71.015181429684162139892578125">
        <ele>700.79998779296875</ele>
        <time>2026-08-21T21:10:53.000Z</time>
        <extensions>
          <ns3:TrackPointExtension>
            <ns3:hr>146</ns3:hr>
            <ns3:cad>0</ns3:cad>
          </ns3:TrackPointExtension>
        </extensions>
      </trkpt>
      <trkpt lat="45.3174761496484279632568359375" lon="-71.015184782445430755615234375">
        <ele>701</ele>
        <time>2026-08-21T21:10:54.000Z</time>
        <extensions>
          <ns3:TrackPointExtension>
            <ns3:hr>147</ns3:hr>
            <ns3:cad>0</ns3:cad>
          </ns3:TrackPointExtension>
        </extensions>
      </trkpt>
      <trkpt lat="45.31746366061270236968994140625" lon="-71.01519525982439517974853515625">
        <ele>701.20001220703125</ele>
        <time>2026-08-21T21:10:55.000Z</time>
        <extensions>
          <ns3:TrackPointExtension>
            <ns3:hr>146</ns3:hr>
            <ns3:cad>0</ns3:cad>
          </ns3:TrackPointExtension>
        </extensions>
      </trkpt>
      <trkpt lat="45.317453853785991668701171875" lon="-71.0152087546885013580322265625">
        <ele>701.20001220703125</ele>
        <time>2026-08-21T21:10:56.000Z</time>
        <extensions>
          <ns3:TrackPointExtension>
            <ns3:hr>146</ns3:hr>
            <ns3:cad>0</ns3:cad>
          </ns3:TrackPointExtension>
        </extensions>
      </trkpt>
      <trkpt lat="45.3174479864537715911865234375" lon="-71.0152201540768146514892578125">
        <ele>701.4000244140625</ele>
        <time>2026-08-21T21:10:57.000Z</time>
        <extensions>
          <ns3:TrackPointExtension>
            <ns3:hr>146</ns3:hr>
            <ns3:cad>44</ns3:cad>
          </ns3:TrackPointExtension>
        </extensions>
      </trkpt>
      <trkpt lat="45.317441113293170928955078125" lon="-71.01523096673190593719482421875">
        <ele>701.5999755859375</ele>
        <time>2026-08-21T21:10:58.000Z</time>
        <extensions>
          <ns3:TrackPointExtension>
            <ns3:hr>146</ns3:hr>
            <ns3:cad>44</ns3:cad>
          </ns3:TrackPointExtension>
        </extensions>
      </trkpt>
      <trkpt lat="45.317434407770633697509765625" lon="-71.0152436234056949615478515625">
        <ele>701.5999755859375</ele>
        <time>2026-08-21T21:10:59.000Z</time>
        <extensions>
          <ns3:TrackPointExtension>
            <ns3:hr>147</ns3:hr>
            <ns3:cad>44</ns3:cad>
          </ns3:TrackPointExtension>
        </extensions>
      </trkpt>
      <trkpt lat="45.317426361143589019775390625" lon="-71.01525762118399143218994140625">
        <ele>701.79998779296875</ele>
        <time>2026-08-21T21:11:00.000Z</time>
        <extensions>
          <ns3:TrackPointExtension>
            <ns3:hr>146</ns3:hr>
            <ns3:cad>44</ns3:cad>
          </ns3:TrackPointExtension>
        </extensions>
      </trkpt>
      <trkpt lat="45.31742242164909839630126953125" lon="-71.0152664221823215484619140625">
        <ele>701.79998779296875</ele>
        <time>2026-08-21T21:11:01.000Z</time>
        <extensions>
          <ns3:TrackPointExtension>
            <ns3:hr>146</ns3:hr>
            <ns3:cad>44</ns3:cad>
          </ns3:TrackPointExtension>
        </extensions>
      </trkpt>
      <trkpt lat="45.317419655621051788330078125" lon="-71.0152749717235565185546875">
        <ele>702</ele>
        <time>2026-08-21T21:11:02.000Z</time>
        <extensions>
          <ns3:TrackPointExtension>
            <ns3:hr>146</ns3:hr>
            <ns3:cad>48</ns3:cad>
          </ns3:TrackPointExtension>
        </extensions>
      </trkpt>
      <trkpt lat="45.31741403974592685699462890625" lon="-71.01528628729283809661865234375">
        <ele>702.20001220703125</ele>
        <time>2026-08-21T21:11:03.000Z</time>
        <extensions>
          <ns3:TrackPointExtension>
            <ns3:hr>146</ns3:hr>
            <ns3:cad>48</ns3:cad>
          </ns3:TrackPointExtension>
        </extensions>
      </trkpt>
      <trkpt lat="45.3174060769379138946533203125" lon="-71.01529383100569248199462890625">
        <ele>702.4000244140625</ele>
        <time>2026-08-21T21:11:04.000Z</time>
        <extensions>
          <ns3:TrackPointExtension>
            <ns3:hr>146</ns3:hr>
            <ns3:cad>47</ns3:cad>
          </ns3:TrackPointExtension>
        </extensions>
      </trkpt>
      <trkpt lat="45.317401885986328125" lon="-71.01529844105243682861328125">
        <ele>702.5999755859375</ele>
        <time>2026-08-21T21:11:05.000Z</time>
        <extensions>
          <ns3:TrackPointExtension>
            <ns3:hr>146</ns3:hr>
            <ns3:cad>47</ns3:cad>
          </ns3:TrackPointExtension>
        </extensions>
      </trkpt>
      <trkpt lat="45.31739727593958377838134765625" lon="-71.01530087180435657501220703125">
        <ele>702.79998779296875</ele>
        <time>2026-08-21T21:11:06.000Z</time>
        <extensions>
          <ns3:TrackPointExtension>
            <ns3:hr>146</ns3:hr>
            <ns3:cad>47</ns3:cad>
          </ns3:TrackPointExtension>
        </extensions>
      </trkpt>
      <trkpt lat="45.31739040277898311614990234375" lon="-71.0153157077729701995849609375">
        <ele>703</ele>
        <time>2026-08-21T21:11:07.000Z</time>
        <extensions>
          <ns3:TrackPointExtension>
            <ns3:hr>145</ns3:hr>
            <ns3:cad>43</ns3:cad>
          </ns3:TrackPointExtension>
        </extensions>
      </trkpt>
      <trkpt lat="45.317384786903858184814453125" lon="-71.01532216183841228485107421875">
        <ele>703.20001220703125</ele>
        <time>2026-08-21T21:11:08.000Z</time>
        <extensions>
          <ns3:TrackPointExtension>
            <ns3:hr>145</ns3:hr>
            <ns3:cad>43</ns3:cad>
          </ns3:TrackPointExtension>
        </extensions>
      </trkpt>
      <trkpt lat="45.31738302670419216156005859375" lon="-71.01532584987580776214599609375">
        <ele>703.4000244140625</ele>
        <time>2026-08-21T21:11:09.000Z</time>
        <extensions>
          <ns3:TrackPointExtension>
            <ns3:hr>144</ns3:hr>
            <ns3:cad>43</ns3:cad>
          </ns3:TrackPointExtension>
        </extensions>
      </trkpt>
      <trkpt lat="45.31737313605844974517822265625" lon="-71.01533238776028156280517578125">
        <ele>703.79998779296875</ele>
        <time>2026-08-21T21:11:10.000Z</time>
        <extensions>
          <ns3:TrackPointExtension>
            <ns3:hr>144</ns3:hr>
            <ns3:cad>41</ns3:cad>
          </ns3:TrackPointExtension>
        </extensions>
      </trkpt>
      <trkpt lat="45.317363329231739044189453125" lon="-71.015344373881816864013671875">
        <ele>703.79998779296875</ele>
        <time>2026-08-21T21:11:11.000Z</time>
        <extensions>
          <ns3:TrackPointExtension>
            <ns3:hr>144</ns3:hr>
            <ns3:cad>41</ns3:cad>
          </ns3:TrackPointExtension>
        </extensions>
      </trkpt>
      <trkpt lat="45.31735830008983612060546875" lon="-71.01535133086144924163818359375">
        <ele>704</ele>
        <time>2026-08-21T21:11:12.000Z</time>
        <extensions>
          <ns3:TrackPointExtension>
            <ns3:hr>144</ns3:hr>
            <ns3:cad>41</ns3:cad>
          </ns3:TrackPointExtension>
        </extensions>
      </trkpt>
      <trkpt lat="45.3173504211008548736572265625" lon="-71.01536038331687450408935546875">
        <ele>704.20001220703125</ele>
        <time>2026-08-21T21:11:13.000Z</time>
        <extensions>
          <ns3:TrackPointExtension>
            <ns3:hr>144</ns3:hr>
            <ns3:cad>41</ns3:cad>
          </ns3:TrackPointExtension>
        </extensions>
      </trkpt>
      <trkpt lat="45.31734027899801731109619140625" lon="-71.01537027396261692047119140625">
        <ele>704.4000244140625</ele>
        <time>2026-08-21T21:11:14.000Z</time>
        <extensions>
          <ns3:TrackPointExtension>
            <ns3:hr>144</ns3:hr>
            <ns3:cad>41</ns3:cad>
          </ns3:TrackPointExtension>
        </extensions>
      </trkpt>
      <trkpt lat="45.31733826734125614166259765625" lon="-71.01537982933223247528076171875">
        <ele>704.5999755859375</ele>
        <time>2026-08-21T21:11:15.000Z</time>
        <extensions>
          <ns3:TrackPointExtension>
            <ns3:hr>144</ns3:hr>
            <ns3:cad>41</ns3:cad>
          </ns3:TrackPointExtension>
        </extensions>
      </trkpt>
      <trkpt lat="45.31733390875160694122314453125" lon="-71.01539256982505321502685546875">
        <ele>704.79998779296875</ele>
        <time>2026-08-21T21:11:16.000Z</time>
        <extensions>
          <ns3:TrackPointExtension>
            <ns3:hr>144</ns3:hr>
            <ns3:cad>41</ns3:cad>
          </ns3:TrackPointExtension>
        </extensions>
      </trkpt>
      <trkpt lat="45.31732703559100627899169921875" lon="-71.0154079087078571319580078125">
        <ele>704.79998779296875</ele>
        <time>2026-08-21T21:11:17.000Z</time>
        <extensions>
          <ns3:TrackPointExtension>
            <ns3:hr>144</ns3:hr>
            <ns3:cad>42</ns3:cad>
          </ns3:TrackPointExtension>
        </extensions>
      </trkpt>
      <trkpt lat="45.31732317991554737091064453125" lon="-71.0154243372380733489990234375">
        <ele>705</ele>
        <time>2026-08-21T21:11:18.000Z</time>
        <extensions>
          <ns3:TrackPointExtension>
            <ns3:hr>144</ns3:hr>
            <ns3:cad>42</ns3:cad>
          </ns3:TrackPointExtension>
        </extensions>
      </trkpt>
      <trkpt lat="45.317318737506866455078125" lon="-71.01543447934091091156005859375">
        <ele>705.20001220703125</ele>
        <time>2026-08-21T21:11:19.000Z</time>
        <extensions>
          <ns3:TrackPointExtension>
            <ns3:hr>144</ns3:hr>
            <ns3:cad>42</ns3:cad>
          </ns3:TrackPointExtension>
        </extensions>
      </trkpt>
      <trkpt lat="45.31731412746012210845947265625" lon="-71.0154471360146999359130859375">
        <ele>705.20001220703125</ele>
        <time>2026-08-21T21:11:20.000Z</time>
        <extensions>
          <ns3:TrackPointExtension>
            <ns3:hr>144</ns3:hr>
            <ns3:cad>42</ns3:cad>
          </ns3:TrackPointExtension>
        </extensions>
      </trkpt>
      <trkpt lat="45.31730993650853633880615234375" lon="-71.0154598765075206756591796875">
        <ele>705.4000244140625</ele>
        <time>2026-08-21T21:11:21.000Z</time>
        <extensions>
          <ns3:TrackPointExtension>
            <ns3:hr>144</ns3:hr>
            <ns3:cad>42</ns3:cad>
          </ns3:TrackPointExtension>
        </extensions>
      </trkpt>
      <trkpt lat="45.31730867922306060791015625" lon="-71.01546968333423137664794921875">
        <ele>705.5999755859375</ele>
        <time>2026-08-21T21:11:22.000Z</time>
        <extensions>
          <ns3:TrackPointExtension>
            <ns3:hr>144</ns3:hr>
            <ns3:cad>45</ns3:cad>
          </ns3:TrackPointExtension>
        </extensions>
      </trkpt>
      <trkpt lat="45.3173051588237285614013671875" lon="-71.01548477075994014739990234375">
        <ele>705.79998779296875</ele>
        <time>2026-08-21T21:11:23.000Z</time>
        <extensions>
          <ns3:TrackPointExtension>
            <ns3:hr>144</ns3:hr>
            <ns3:cad>45</ns3:cad>
          </ns3:TrackPointExtension>
        </extensions>
      </trkpt>
      <trkpt lat="45.31730272807180881500244140625" lon="-71.0154947452247142791748046875">
        <ele>706</ele>
        <time>2026-08-21T21:11:24.000Z</time>
        <extensions>
          <ns3:TrackPointExtension>
            <ns3:hr>144</ns3:hr>
            <ns3:cad>46</ns3:cad>
          </ns3:TrackPointExtension>
        </extensions>
      </trkpt>
      <trkpt lat="45.31729820184409618377685546875" lon="-71.0155064798891544342041015625">
        <ele>706.20001220703125</ele>
        <time>2026-08-21T21:11:25.000Z</time>
        <extensions>
          <ns3:TrackPointExtension>
            <ns3:hr>144</ns3:hr>
            <ns3:cad>46</ns3:cad>
          </ns3:TrackPointExtension>
        </extensions>
      </trkpt>
      <trkpt lat="45.317294932901859283447265625" lon="-71.0155141912400722503662109375">
        <ele>706.4000244140625</ele>
        <time>2026-08-21T21:11:26.000Z</time>
        <extensions>
          <ns3:TrackPointExtension>
            <ns3:hr>144</ns3:hr>
            <ns3:cad>45</ns3:cad>
          </ns3:TrackPointExtension>
        </extensions>
      </trkpt>
      <trkpt lat="45.317292921245098114013671875" lon="-71.01551947183907032012939453125">
        <ele>706.5999755859375</ele>
        <time>2026-08-21T21:11:27.000Z</time>
        <extensions>
          <ns3:TrackPointExtension>
            <ns3:hr>144</ns3:hr>
            <ns3:cad>45</ns3:cad>
          </ns3:TrackPointExtension>
        </extensions>
      </trkpt>
      <trkpt lat="45.317292921245098114013671875" lon="-71.01552466861903667449951171875">
        <ele>706.79998779296875</ele>
        <time>2026-08-21T21:11:28.000Z</time>
        <extensions>
          <ns3:TrackPointExtension>
            <ns3:hr>145</ns3:hr>
            <ns3:cad>45</ns3:cad>
          </ns3:TrackPointExtension>
        </extensions>
      </trkpt>
      <trkpt lat="45.31729526817798614501953125" lon="-71.015530787408351898193359375">
        <ele>707</ele>
        <time>2026-08-21T21:11:29.000Z</time>
        <extensions>
          <ns3:TrackPointExtension>
            <ns3:hr>144</ns3:hr>
            <ns3:cad>45</ns3:cad>
          </ns3:TrackPointExtension>
        </extensions>
      </trkpt>
      <trkpt lat="45.31729619018733501434326171875" lon="-71.01553942076861858367919921875">
        <ele>707.20001220703125</ele>
        <time>2026-08-21T21:11:30.000Z</time>
        <extensions>
          <ns3:TrackPointExtension>
            <ns3:hr>144</ns3:hr>
            <ns3:cad>45</ns3:cad>
          </ns3:TrackPointExtension>
        </extensions>
      </trkpt>
      <trkpt lat="45.31729669310152530670166015625" lon="-71.01555350236594676971435546875">
        <ele>707.4000244140625</ele>
        <time>2026-08-21T21:11:31.000Z</time>
        <extensions>
          <ns3:TrackPointExtension>
            <ns3:hr>144</ns3:hr>
            <ns3:cad>79</ns3:cad>
          </ns3:TrackPointExtension>
        </extensions>
      </trkpt>
      <trkpt lat="45.317296944558620452880859375" lon="-71.0155695118010044097900390625">
        <ele>707.5999755859375</ele>
        <time>2026-08-21T21:11:32.000Z</time>
        <extensions>
          <ns3:TrackPointExtension>
            <ns3:hr>144</ns3:hr>
            <ns3:cad>79</ns3:cad>
          </ns3:TrackPointExtension>
        </extensions>
      </trkpt>
      <trkpt lat="45.31729585491120815277099609375" lon="-71.01558216847479343414306640625">
        <ele>707.79998779296875</ele>
        <time>2026-08-21T21:11:33.000Z</time>
        <extensions>
          <ns3:TrackPointExtension>
            <ns3:hr>144</ns3:hr>
            <ns3:cad>79</ns3:cad>
          </ns3:TrackPointExtension>
        </extensions>
      </trkpt>
      <trkpt lat="45.31729652546346187591552734375" lon="-71.015597172081470489501953125">
        <ele>707.79998779296875</ele>
        <time>2026-08-21T21:11:34.000Z</time>
        <extensions>
          <ns3:TrackPointExtension>
            <ns3:hr>144</ns3:hr>
            <ns3:cad>80</ns3:cad>
          </ns3:TrackPointExtension>
        </extensions>
      </trkpt>
      <trkpt lat="45.31729526817798614501953125" lon="-71.01561519317328929901123046875">
        <ele>708</ele>
        <time>2026-08-21T21:11:35.000Z</time>
        <extensions>
          <ns3:TrackPointExtension>
            <ns3:hr>144</ns3:hr>
            <ns3:cad>80</ns3:cad>
          </ns3:TrackPointExtension>
        </extensions>
      </trkpt>
      <trkpt lat="45.3172971121966838836669921875" lon="-71.0156285203993320465087890625">
        <ele>708.20001220703125</ele>
        <time>2026-08-21T21:11:36.000Z</time>
        <extensions>
          <ns3:TrackPointExtension>
            <ns3:hr>144</ns3:hr>
            <ns3:cad>43</ns3:cad>
          </ns3:TrackPointExtension>
        </extensions>
      </trkpt>
      <trkpt lat="45.31729518435895442962646484375" lon="-71.01564017124474048614501953125">
        <ele>708.4000244140625</ele>
        <time>2026-08-21T21:11:37.000Z</time>
        <extensions>
          <ns3:TrackPointExtension>
            <ns3:hr>144</ns3:hr>
            <ns3:cad>43</ns3:cad>
          </ns3:TrackPointExtension>
        </extensions>
      </trkpt>
      <trkpt lat="45.3172927536070346832275390625" lon="-71.015654169023036956787109375">
        <ele>708.4000244140625</ele>
        <time>2026-08-21T21:11:38.000Z</time>
        <extensions>
          <ns3:TrackPointExtension>
            <ns3:hr>144</ns3:hr>
            <ns3:cad>42</ns3:cad>
          </ns3:TrackPointExtension>
        </extensions>
      </trkpt>
      <trkpt lat="45.31729216687381267547607421875" lon="-71.0156583599746227264404296875">
        <ele>708.5999755859375</ele>
        <time>2026-08-21T21:11:39.000Z</time>
        <extensions>
          <ns3:TrackPointExtension>
            <ns3:hr>144</ns3:hr>
            <ns3:cad>44</ns3:cad>
          </ns3:TrackPointExtension>
        </extensions>
      </trkpt>
      <trkpt lat="45.3172947652637958526611328125" lon="-71.0156660713255405426025390625">
        <ele>708.5999755859375</ele>
        <time>2026-08-21T21:11:40.000Z</time>
        <extensions>
          <ns3:TrackPointExtension>
            <ns3:hr>143</ns3:hr>
            <ns3:cad>44</ns3:cad>
          </ns3:TrackPointExtension>
        </extensions>
      </trkpt>
      <trkpt lat="45.31729635782539844512939453125" lon="-71.01568526588380336761474609375">
        <ele>708.79998779296875</ele>
        <time>2026-08-21T21:11:41.000Z</time>
        <extensions>
          <ns3:TrackPointExtension>
            <ns3:hr>143</ns3:hr>
            <ns3:cad>43</ns3:cad>
          </ns3:TrackPointExtension>
        </extensions>
      </trkpt>
      <trkpt lat="45.31729786656796932220458984375" lon="-71.01569448597729206085205078125">
        <ele>709</ele>
        <time>2026-08-21T21:11:42.000Z</time>
        <extensions>
          <ns3:TrackPointExtension>
            <ns3:hr>143</ns3:hr>
            <ns3:cad>43</ns3:cad>
          </ns3:TrackPointExtension>
        </extensions>
      </trkpt>
      <trkpt lat="45.31730205751955509185791015625" lon="-71.01569767110049724578857421875">
        <ele>709.20001220703125</ele>
        <time>2026-08-21T21:11:43.000Z</time>
        <extensions>
          <ns3:TrackPointExtension>
            <ns3:hr>143</ns3:hr>
            <ns3:cad>41</ns3:cad>
          </ns3:TrackPointExtension>
        </extensions>
      </trkpt>
      <trkpt lat="45.3173034824430942535400390625" lon="-71.0157106630504131317138671875">
        <ele>709.5999755859375</ele>
        <time>2026-08-21T21:11:44.000Z</time>
        <extensions>
          <ns3:TrackPointExtension>
            <ns3:hr>143</ns3:hr>
            <ns3:cad>41</ns3:cad>
          </ns3:TrackPointExtension>
        </extensions>
      </trkpt>
      <trkpt lat="45.31730356626212596893310546875" lon="-71.0157140158116817474365234375">
        <ele>709.79998779296875</ele>
        <time>2026-08-21T21:11:45.000Z</time>
        <extensions>
          <ns3:TrackPointExtension>
            <ns3:hr>143</ns3:hr>
            <ns3:cad>0</ns3:cad>
          </ns3:TrackPointExtension>
        </extensions>
      </trkpt>
      <trkpt lat="45.31730339862406253814697265625" lon="-71.0157190449535846710205078125">
        <ele>710.20001220703125</ele>
        <time>2026-08-21T21:11:46.000Z</time>
        <extensions>
          <ns3:TrackPointExtension>
            <ns3:hr>142</ns3:hr>
            <ns3:cad>0</ns3:cad>
          </ns3:TrackPointExtension>
        </extensions>
      </trkpt>
      <trkpt lat="45.3173028118908405303955078125" lon="-71.01572549901902675628662109375">
        <ele>710.4000244140625</ele>
        <time>2026-08-21T21:11:47.000Z</time>
        <extensions>
          <ns3:TrackPointExtension>
            <ns3:hr>142</ns3:hr>
            <ns3:cad>0</ns3:cad>
          </ns3:TrackPointExtension>
        </extensions>
      </trkpt>
      <trkpt lat="45.3173034824430942535400390625" lon="-71.01572650484740734100341796875">
        <ele>710.5999755859375</ele>
        <time>2026-08-21T21:11:48.000Z</time>
        <extensions>
          <ns3:TrackPointExtension>
            <ns3:hr>143</ns3:hr>
            <ns3:cad>0</ns3:cad>
          </ns3:TrackPointExtension>
        </extensions>
      </trkpt>
      <trkpt lat="45.31730541028082370758056640625" lon="-71.01572818122804164886474609375">
        <ele>710.79998779296875</ele>
        <time>2026-08-21T21:11:49.000Z</time>
        <extensions>
          <ns3:TrackPointExtension>
            <ns3:hr>144</ns3:hr>
            <ns3:cad>0</ns3:cad>
          </ns3:TrackPointExtension>
        </extensions>
      </trkpt>
      <trkpt lat="45.317300297319889068603515625" lon="-71.01573991589248180389404296875">
        <ele>711.20001220703125</ele>
        <time>2026-08-21T21:11:50.000Z</time>
        <extensions>
          <ns3:TrackPointExtension>
            <ns3:hr>144</ns3:hr>
            <ns3:cad>68</ns3:cad>
          </ns3:TrackPointExtension>
        </extensions>
      </trkpt>
      <trkpt lat="45.317296944558620452880859375" lon="-71.01575366221368312835693359375">
        <ele>711.20001220703125</ele>
        <time>2026-08-21T21:11:51.000Z</time>
        <extensions>
          <ns3:TrackPointExtension>
            <ns3:hr>144</ns3:hr>
            <ns3:cad>68</ns3:cad>
          </ns3:TrackPointExtension>
        </extensions>
      </trkpt>
      <trkpt lat="45.31729266978800296783447265625" lon="-71.01576221175491809844970703125">
        <ele>711.4000244140625</ele>
        <time>2026-08-21T21:11:52.000Z</time>
        <extensions>
          <ns3:TrackPointExtension>
            <ns3:hr>144</ns3:hr>
            <ns3:cad>68</ns3:cad>
          </ns3:TrackPointExtension>
        </extensions>
      </trkpt>
      <trkpt lat="45.31728814356029033660888671875" lon="-71.01577159948647022247314453125">
        <ele>711.5999755859375</ele>
        <time>2026-08-21T21:11:53.000Z</time>
        <extensions>
          <ns3:TrackPointExtension>
            <ns3:hr>144</ns3:hr>
            <ns3:cad>68</ns3:cad>
          </ns3:TrackPointExtension>
        </extensions>
      </trkpt>
      <trkpt lat="45.31728495843708515167236328125" lon="-71.01577461697161197662353515625">
        <ele>712</ele>
        <time>2026-08-21T21:11:54.000Z</time>
        <extensions>
          <ns3:TrackPointExtension>
            <ns3:hr>144</ns3:hr>
            <ns3:cad>68</ns3:cad>
          </ns3:TrackPointExtension>
        </extensions>
      </trkpt>
      <trkpt lat="45.31728210859000682830810546875" lon="-71.0157780535519123077392578125">
        <ele>712.20001220703125</ele>
        <time>2026-08-21T21:11:55.000Z</time>
        <extensions>
          <ns3:TrackPointExtension>
            <ns3:hr>144</ns3:hr>
            <ns3:cad>0</ns3:cad>
          </ns3:TrackPointExtension>
        </extensions>
      </trkpt>
      <trkpt lat="45.31727791763842105865478515625" lon="-71.01578216068446636199951171875">
        <ele>712.4000244140625</ele>
        <time>2026-08-21T21:11:56.000Z</time>
        <extensions>
          <ns3:TrackPointExtension>
            <ns3:hr>144</ns3:hr>
            <ns3:cad>41</ns3:cad>
          </ns3:TrackPointExtension>
        </extensions>
      </trkpt>
      <trkpt lat="45.317272804677486419677734375" lon="-71.01578517816960811614990234375">
        <ele>712.5999755859375</ele>
        <time>2026-08-21T21:11:57.000Z</time>
        <extensions>
          <ns3:TrackPointExtension>
            <ns3:hr>144</ns3:hr>
            <ns3:cad>41</ns3:cad>
          </ns3:TrackPointExtension>
        </extensions>
      </trkpt>
      <trkpt lat="45.31726735644042491912841796875" lon="-71.01579733192920684814453125">
        <ele>713</ele>
        <time>2026-08-21T21:11:58.000Z</time>
        <extensions>
          <ns3:TrackPointExtension>
            <ns3:hr>144</ns3:hr>
            <ns3:cad>41</ns3:cad>
          </ns3:TrackPointExtension>
        </extensions>
      </trkpt>
      <trkpt lat="45.317260734736919403076171875" lon="-71.01580210961401462554931640625">
        <ele>713.20001220703125</ele>
        <time>2026-08-21T21:11:59.000Z</time>
        <extensions>
          <ns3:TrackPointExtension>
            <ns3:hr>144</ns3:hr>
            <ns3:cad>41</ns3:cad>
          </ns3:TrackPointExtension>
        </extensions>
      </trkpt>
      <trkpt lat="45.3172518499195575714111328125" lon="-71.0158099047839641571044921875">
        <ele>713.4000244140625</ele>
        <time>2026-08-21T21:12:00.000Z</time>
        <extensions>
          <ns3:TrackPointExtension>
            <ns3:hr>143</ns3:hr>
            <ns3:cad>0</ns3:cad>
          </ns3:TrackPointExtension>
        </extensions>
      </trkpt>
      <trkpt lat="45.31724832952022552490234375" lon="-71.015816442668437957763671875">
        <ele>713.5999755859375</ele>
        <time>2026-08-21T21:12:01.000Z</time>
        <extensions>
          <ns3:TrackPointExtension>
            <ns3:hr>144</ns3:hr>
            <ns3:cad>0</ns3:cad>
          </ns3:TrackPointExtension>
        </extensions>
      </trkpt>
      <trkpt lat="45.31724472530186176300048828125" lon="-71.015818119049072265625">
        <ele>713.79998779296875</ele>
        <time>2026-08-21T21:12:02.000Z</time>
        <extensions>
          <ns3:TrackPointExtension>
            <ns3:hr>144</ns3:hr>
            <ns3:cad>0</ns3:cad>
          </ns3:TrackPointExtension>
        </extensions>
      </trkpt>
      <trkpt lat="45.3172340802848339080810546875" lon="-71.0158283449709415435791015625">
        <ele>714</ele>
        <time>2026-08-21T21:12:03.000Z</time>
        <extensions>
          <ns3:TrackPointExtension>
            <ns3:hr>144</ns3:hr>
            <ns3:cad>0</ns3:cad>
          </ns3:TrackPointExtension>
        </extensions>
      </trkpt>
      <trkpt lat="45.31722846440970897674560546875" lon="-71.0158316977322101593017578125">
        <ele>714.20001220703125</ele>
        <time>2026-08-21T21:12:04.000Z</time>
        <extensions>
          <ns3:TrackPointExtension>
            <ns3:hr>144</ns3:hr>
            <ns3:cad>0</ns3:cad>
          </ns3:TrackPointExtension>
        </extensions>
      </trkpt>
      <trkpt lat="45.317227207124233245849609375" lon="-71.015832535922527313232421875">
        <ele>714.4000244140625</ele>
        <time>2026-08-21T21:12:05.000Z</time>
        <extensions>
          <ns3:TrackPointExtension>
            <ns3:hr>144</ns3:hr>
            <ns3:cad>0</ns3:cad>
          </ns3:TrackPointExtension>
        </extensions>
      </trkpt>
      <trkpt lat="45.31721974723041057586669921875" lon="-71.01583488285541534423828125">
        <ele>714.5999755859375</ele>
        <time>2026-08-21T21:12:06.000Z</time>
        <extensions>
          <ns3:TrackPointExtension>
            <ns3:hr>144</ns3:hr>
            <ns3:cad>0</ns3:cad>
          </ns3:TrackPointExtension>
        </extensions>
      </trkpt>
      <trkpt lat="45.31720809638500213623046875" lon="-71.0158387385308742523193359375">
        <ele>714.79998779296875</ele>
        <time>2026-08-21T21:12:07.000Z</time>
        <extensions>
          <ns3:TrackPointExtension>
            <ns3:hr>144</ns3:hr>
            <ns3:cad>0</ns3:cad>
          </ns3:TrackPointExtension>
        </extensions>
      </trkpt>
      <trkpt lat="45.31720080412924289703369140625" lon="-71.01584695279598236083984375">
        <ele>714.79998779296875</ele>
        <time>2026-08-21T21:12:08.000Z</time>
        <extensions>
          <ns3:TrackPointExtension>
            <ns3:hr>144</ns3:hr>
            <ns3:cad>0</ns3:cad>
          </ns3:TrackPointExtension>
        </extensions>
      </trkpt>
      <trkpt lat="45.3171940147876739501953125" lon="-71.01585634052753448486328125">
        <ele>715</ele>
        <time>2026-08-21T21:12:09.000Z</time>
        <extensions>
          <ns3:TrackPointExtension>
            <ns3:hr>144</ns3:hr>
            <ns3:cad>0</ns3:cad>
          </ns3:TrackPointExtension>
        </extensions>
      </trkpt>
      <trkpt lat="45.317188315093517303466796875" lon="-71.01587117649614810943603515625">
        <ele>715.20001220703125</ele>
        <time>2026-08-21T21:12:10.000Z</time>
        <extensions>
          <ns3:TrackPointExtension>
            <ns3:hr>144</ns3:hr>
            <ns3:cad>0</ns3:cad>
          </ns3:TrackPointExtension>
        </extensions>
      </trkpt>
      <trkpt lat="45.317181609570980072021484375" lon="-71.01589179597795009613037109375">
        <ele>715.4000244140625</ele>
        <time>2026-08-21T21:12:11.000Z</time>
        <extensions>
          <ns3:TrackPointExtension>
            <ns3:hr>144</ns3:hr>
            <ns3:cad>0</ns3:cad>
          </ns3:TrackPointExtension>
        </extensions>
      </trkpt>
      <trkpt lat="45.31717993319034576416015625" lon="-71.01590470410883426666259765625">
        <ele>715.5999755859375</ele>
        <time>2026-08-21T21:12:12.000Z</time>
        <extensions>
          <ns3:TrackPointExtension>
            <ns3:hr>144</ns3:hr>
            <ns3:cad>0</ns3:cad>
          </ns3:TrackPointExtension>
        </extensions>
      </trkpt>
      <trkpt lat="45.31717733480036258697509765625" lon="-71.01592465303838253021240234375">
        <ele>715.79998779296875</ele>
        <time>2026-08-21T21:12:13.000Z</time>
        <extensions>
          <ns3:TrackPointExtension>
            <ns3:hr>144</ns3:hr>
            <ns3:cad>44</ns3:cad>
          </ns3:TrackPointExtension>
        </extensions>
      </trkpt>
      <trkpt lat="45.3171767480671405792236328125" lon="-71.01593705825507640838623046875">
        <ele>716</ele>
        <time>2026-08-21T21:12:14.000Z</time>
        <extensions>
          <ns3:TrackPointExtension>
            <ns3:hr>144</ns3:hr>
            <ns3:cad>44</ns3:cad>
          </ns3:TrackPointExtension>
        </extensions>
      </trkpt>
      <trkpt lat="45.31717532314360141754150390625" lon="-71.0159562528133392333984375">
        <ele>716.20001220703125</ele>
        <time>2026-08-21T21:12:15.000Z</time>
        <extensions>
          <ns3:TrackPointExtension>
            <ns3:hr>143</ns3:hr>
            <ns3:cad>44</ns3:cad>
          </ns3:TrackPointExtension>
        </extensions>
      </trkpt>
      <trkpt lat="45.31717322766780853271484375" lon="-71.0159723460674285888671875">
        <ele>716.20001220703125</ele>
        <time>2026-08-21T21:12:16.000Z</time>
        <extensions>
          <ns3:TrackPointExtension>
            <ns3:hr>142</ns3:hr>
            <ns3:cad>44</ns3:cad>
          </ns3:TrackPointExtension>
        </extensions>
      </trkpt>
      <trkpt lat="45.317173898220062255859375" lon="-71.0159842483699321746826171875">
        <ele>716.4000244140625</ele>
        <time>2026-08-21T21:12:17.000Z</time>
        <extensions>
          <ns3:TrackPointExtension>
            <ns3:hr>142</ns3:hr>
            <ns3:cad>44</ns3:cad>
          </ns3:TrackPointExtension>
        </extensions>
      </trkpt>
      <trkpt lat="45.31717213802039623260498046875" lon="-71.0159990005195140838623046875">
        <ele>716.5999755859375</ele>
        <time>2026-08-21T21:12:18.000Z</time>
        <extensions>
          <ns3:TrackPointExtension>
            <ns3:hr>142</ns3:hr>
            <ns3:cad>44</ns3:cad>
          </ns3:TrackPointExtension>
        </extensions>
      </trkpt>
      <trkpt lat="45.3171671926975250244140625" lon="-71.01601199246942996978759765625">
        <ele>716.79998779296875</ele>
        <time>2026-08-21T21:12:19.000Z</time>
        <extensions>
          <ns3:TrackPointExtension>
            <ns3:hr>142</ns3:hr>
            <ns3:cad>44</ns3:cad>
          </ns3:TrackPointExtension>
        </extensions>
      </trkpt>
      <trkpt lat="45.3171603195369243621826171875" lon="-71.01602473296225070953369140625">
        <ele>716.79998779296875</ele>
        <time>2026-08-21T21:12:20.000Z</time>
        <extensions>
          <ns3:TrackPointExtension>
            <ns3:hr>143</ns3:hr>
            <ns3:cad>47</ns3:cad>
          </ns3:TrackPointExtension>
        </extensions>
      </trkpt>
      <trkpt lat="45.31715353019535541534423828125" lon="-71.01603948511183261871337890625">
        <ele>716.79998779296875</ele>
        <time>2026-08-21T21:12:21.000Z</time>
        <extensions>
          <ns3:TrackPointExtension>
            <ns3:hr>143</ns3:hr>
            <ns3:cad>47</ns3:cad>
          </ns3:TrackPointExtension>
        </extensions>
      </trkpt>
      <trkpt lat="45.31714984215795993804931640625" lon="-71.01605272851884365081787109375">
        <ele>717</ele>
        <time>2026-08-21T21:12:22.000Z</time>
        <extensions>
          <ns3:TrackPointExtension>
            <ns3:hr>143</ns3:hr>
            <ns3:cad>44</ns3:cad>
          </ns3:TrackPointExtension>
        </extensions>
      </trkpt>
      <trkpt lat="45.3171457350254058837890625" lon="-71.01606463082134723663330078125">
        <ele>717</ele>
        <time>2026-08-21T21:12:23.000Z</time>
        <extensions>
          <ns3:TrackPointExtension>
            <ns3:hr>143</ns3:hr>
            <ns3:cad>44</ns3:cad>
          </ns3:TrackPointExtension>
        </extensions>
      </trkpt>
      <trkpt lat="45.31713928095996379852294921875" lon="-71.01607603020966053009033203125">
        <ele>717</ele>
        <time>2026-08-21T21:12:24.000Z</time>
        <extensions>
          <ns3:TrackPointExtension>
            <ns3:hr>143</ns3:hr>
            <ns3:cad>0</ns3:cad>
          </ns3:TrackPointExtension>
        </extensions>
      </trkpt>
      <trkpt lat="45.3171311505138874053955078125" lon="-71.0160878486931324005126953125">
        <ele>717.20001220703125</ele>
        <time>2026-08-21T21:12:25.000Z</time>
        <extensions>
          <ns3:TrackPointExtension>
            <ns3:hr>143</ns3:hr>
            <ns3:cad>0</ns3:cad>
          </ns3:TrackPointExtension>
        </extensions>
      </trkpt>
      <trkpt lat="45.317117236554622650146484375" lon="-71.016094721853733062744140625">
        <ele>717.4000244140625</ele>
        <time>2026-08-21T21:12:26.000Z</time>
        <extensions>
          <ns3:TrackPointExtension>
            <ns3:hr>143</ns3:hr>
            <ns3:cad>0</ns3:cad>
          </ns3:TrackPointExtension>
        </extensions>
      </trkpt>
      <trkpt lat="45.31711178831756114959716796875" lon="-71.0160999186336994171142578125">
        <ele>717.5999755859375</ele>
        <time>2026-08-21T21:12:27.000Z</time>
        <extensions>
          <ns3:TrackPointExtension>
            <ns3:hr>144</ns3:hr>
            <ns3:cad>50</ns3:cad>
          </ns3:TrackPointExtension>
        </extensions>
      </trkpt>
      <trkpt lat="45.31710374169051647186279296875" lon="-71.01610452868044376373291015625">
        <ele>717.5999755859375</ele>
        <time>2026-08-21T21:12:28.000Z</time>
        <extensions>
          <ns3:TrackPointExtension>
            <ns3:hr>144</ns3:hr>
            <ns3:cad>50</ns3:cad>
          </ns3:TrackPointExtension>
        </extensions>
      </trkpt>
      <trkpt lat="45.3170949406921863555908203125" lon="-71.01610553450882434844970703125">
        <ele>717.79998779296875</ele>
        <time>2026-08-21T21:12:29.000Z</time>
        <extensions>
          <ns3:TrackPointExtension>
            <ns3:hr>144</ns3:hr>
            <ns3:cad>50</ns3:cad>
          </ns3:TrackPointExtension>
        </extensions>
      </trkpt>
      <trkpt lat="45.31708764843642711639404296875" lon="-71.0161049477756023406982421875">
        <ele>718</ele>
        <time>2026-08-21T21:12:30.000Z</time>
        <extensions>
          <ns3:TrackPointExtension>
            <ns3:hr>144</ns3:hr>
            <ns3:cad>50</ns3:cad>
          </ns3:TrackPointExtension>
        </extensions>
      </trkpt>
      <trkpt lat="45.317082703113555908203125" lon="-71.01610519923269748687744140625">
        <ele>718</ele>
        <time>2026-08-21T21:12:31.000Z</time>
        <extensions>
          <ns3:TrackPointExtension>
            <ns3:hr>144</ns3:hr>
            <ns3:cad>50</ns3:cad>
          </ns3:TrackPointExtension>
        </extensions>
      </trkpt>
      <trkpt lat="45.31707222573459148406982421875" lon="-71.0161022655665874481201171875">
        <ele>718.20001220703125</ele>
        <time>2026-08-21T21:12:32.000Z</time>
        <extensions>
          <ns3:TrackPointExtension>
            <ns3:hr>144</ns3:hr>
            <ns3:cad>50</ns3:cad>
          </ns3:TrackPointExtension>
        </extensions>
      </trkpt>
      <trkpt lat="45.3170599043369293212890625" lon="-71.016100086271762847900390625">
        <ele>718.4000244140625</ele>
        <time>2026-08-21T21:12:33.000Z</time>
        <extensions>
          <ns3:TrackPointExtension>
            <ns3:hr>144</ns3:hr>
            <ns3:cad>50</ns3:cad>
          </ns3:TrackPointExtension>
        </extensions>
      </trkpt>
      <trkpt lat="45.3170520253479480743408203125" lon="-71.01610704325139522552490234375">
        <ele>718.5999755859375</ele>
        <time>2026-08-21T21:12:34.000Z</time>
        <extensions>
          <ns3:TrackPointExtension>
            <ns3:hr>144</ns3:hr>
            <ns3:cad>50</ns3:cad>
          </ns3:TrackPointExtension>
        </extensions>
      </trkpt>
      <trkpt lat="45.317044816911220550537109375" lon="-71.01611115038394927978515625">
        <ele>718.79998779296875</ele>
        <time>2026-08-21T21:12:35.000Z</time>
        <extensions>
          <ns3:TrackPointExtension>
            <ns3:hr>144</ns3:hr>
            <ns3:cad>50</ns3:cad>
          </ns3:TrackPointExtension>
        </extensions>
      </trkpt>
      <trkpt lat="45.31703165732324123382568359375" lon="-71.016114167869091033935546875">
        <ele>718.79998779296875</ele>
        <time>2026-08-21T21:12:36.000Z</time>
        <extensions>
          <ns3:TrackPointExtension>
            <ns3:hr>143</ns3:hr>
            <ns3:cad>0</ns3:cad>
          </ns3:TrackPointExtension>
        </extensions>
      </trkpt>
      <trkpt lat="45.3170181624591350555419921875" lon="-71.0161171853542327880859375">
        <ele>719</ele>
        <time>2026-08-21T21:12:37.000Z</time>
        <extensions>
          <ns3:TrackPointExtension>
            <ns3:hr>144</ns3:hr>
            <ns3:cad>0</ns3:cad>
          </ns3:TrackPointExtension>
        </extensions>
      </trkpt>
      <trkpt lat="45.317004583775997161865234375" lon="-71.016120873391628265380859375">
        <ele>719.20001220703125</ele>
        <time>2026-08-21T21:12:38.000Z</time>
        <extensions>
          <ns3:TrackPointExtension>
            <ns3:hr>144</ns3:hr>
            <ns3:cad>0</ns3:cad>
          </ns3:TrackPointExtension>
        </extensions>
      </trkpt>
      <trkpt lat="45.3169963695108890533447265625" lon="-71.0161190293729305267333984375">
        <ele>719.4000244140625</ele>
        <time>2026-08-21T21:12:39.000Z</time>
        <extensions>
          <ns3:TrackPointExtension>
            <ns3:hr>144</ns3:hr>
            <ns3:cad>0</ns3:cad>
          </ns3:TrackPointExtension>
        </extensions>
      </trkpt>
      <trkpt lat="45.316989831626415252685546875" lon="-71.01611827500164508819580078125">
        <ele>719.4000244140625</ele>
        <time>2026-08-21T21:12:40.000Z</time>
        <extensions>
          <ns3:TrackPointExtension>
            <ns3:hr>144</ns3:hr>
            <ns3:cad>0</ns3:cad>
          </ns3:TrackPointExtension>
        </extensions>
      </trkpt>
      <trkpt lat="45.316980779170989990234375" lon="-71.0161186940968036651611328125">
        <ele>719.5999755859375</ele>
        <time>2026-08-21T21:12:41.000Z</time>
        <extensions>
          <ns3:TrackPointExtension>
            <ns3:hr>144</ns3:hr>
            <ns3:cad>47</ns3:cad>
          </ns3:TrackPointExtension>
        </extensions>
      </trkpt>
      <trkpt lat="45.31696896068751811981201171875" lon="-71.0161166824400424957275390625">
        <ele>719.79998779296875</ele>
        <time>2026-08-21T21:12:42.000Z</time>
        <extensions>
          <ns3:TrackPointExtension>
            <ns3:hr>144</ns3:hr>
            <ns3:cad>47</ns3:cad>
          </ns3:TrackPointExtension>
        </extensions>
      </trkpt>
      <trkpt lat="45.3169598244130611419677734375" lon="-71.0161140002310276031494140625">
        <ele>720</ele>
        <time>2026-08-21T21:12:43.000Z</time>
        <extensions>
          <ns3:TrackPointExtension>
            <ns3:hr>144</ns3:hr>
            <ns3:cad>47</ns3:cad>
          </ns3:TrackPointExtension>
        </extensions>
      </trkpt>
      <trkpt lat="45.3169507719576358795166015625" lon="-71.0161183588206768035888671875">
        <ele>720.4000244140625</ele>
        <time>2026-08-21T21:12:44.000Z</time>
        <extensions>
          <ns3:TrackPointExtension>
            <ns3:hr>144</ns3:hr>
            <ns3:cad>46</ns3:cad>
          </ns3:TrackPointExtension>
        </extensions>
      </trkpt>
      <trkpt lat="45.31694415025413036346435546875" lon="-71.0161145031452178955078125">
        <ele>720.5999755859375</ele>
        <time>2026-08-21T21:12:45.000Z</time>
        <extensions>
          <ns3:TrackPointExtension>
            <ns3:hr>144</ns3:hr>
            <ns3:cad>46</ns3:cad>
          </ns3:TrackPointExtension>
        </extensions>
      </trkpt>
      <trkpt lat="45.31693627126514911651611328125" lon="-71.0161136649549007415771484375">
        <ele>720.79998779296875</ele>
        <time>2026-08-21T21:12:46.000Z</time>
        <extensions>
          <ns3:TrackPointExtension>
            <ns3:hr>143</ns3:hr>
            <ns3:cad>47</ns3:cad>
          </ns3:TrackPointExtension>
        </extensions>
      </trkpt>
      <trkpt lat="45.3169279731810092926025390625" lon="-71.0161103121936321258544921875">
        <ele>721</ele>
        <time>2026-08-21T21:12:47.000Z</time>
        <extensions>
          <ns3:TrackPointExtension>
            <ns3:hr>143</ns3:hr>
            <ns3:cad>47</ns3:cad>
          </ns3:TrackPointExtension>
        </extensions>
      </trkpt>
      <trkpt lat="45.316922776401042938232421875" lon="-71.016108132898807525634765625">
        <ele>721.20001220703125</ele>
        <time>2026-08-21T21:12:48.000Z</time>
        <extensions>
          <ns3:TrackPointExtension>
            <ns3:hr>143</ns3:hr>
            <ns3:cad>46</ns3:cad>
          </ns3:TrackPointExtension>
        </extensions>
      </trkpt>
      <trkpt lat="45.31691481359302997589111328125" lon="-71.016102097928524017333984375">
        <ele>721.4000244140625</ele>
        <time>2026-08-21T21:12:49.000Z</time>
        <extensions>
          <ns3:TrackPointExtension>
            <ns3:hr>142</ns3:hr>
            <ns3:cad>45</ns3:cad>
          </ns3:TrackPointExtension>
        </extensions>
      </trkpt>
      <trkpt lat="45.3169055096805095672607421875" lon="-71.01609832607209682464599609375">
        <ele>721.5999755859375</ele>
        <time>2026-08-21T21:12:50.000Z</time>
        <extensions>
          <ns3:TrackPointExtension>
            <ns3:hr>142</ns3:hr>
            <ns3:cad>45</ns3:cad>
          </ns3:TrackPointExtension>
        </extensions>
      </trkpt>
      <trkpt lat="45.31688715331256389617919921875" lon="-71.0160881839692592620849609375">
        <ele>721.79998779296875</ele>
        <time>2026-08-21T21:12:51.000Z</time>
        <extensions>
          <ns3:TrackPointExtension>
            <ns3:hr>142</ns3:hr>
            <ns3:cad>44</ns3:cad>
          </ns3:TrackPointExtension>
        </extensions>
      </trkpt>
      <trkpt lat="45.316873826086521148681640625" lon="-71.01609262637794017791748046875">
        <ele>721.79998779296875</ele>
        <time>2026-08-21T21:12:52.000Z</time>
        <extensions>
          <ns3:TrackPointExtension>
            <ns3:hr>142</ns3:hr>
            <ns3:cad>44</ns3:cad>
          </ns3:TrackPointExtension>
        </extensions>
      </trkpt>
      <trkpt lat="45.31686016358435153961181640625" lon="-71.01609447039663791656494140625">
        <ele>722</ele>
        <time>2026-08-21T21:12:53.000Z</time>
        <extensions>
          <ns3:TrackPointExtension>
            <ns3:hr>142</ns3:hr>
            <ns3:cad>44</ns3:cad>
          </ns3:TrackPointExtension>
        </extensions>
      </trkpt>
      <trkpt lat="45.31684759072959423065185546875" lon="-71.01609732024371623992919921875">
        <ele>722</ele>
        <time>2026-08-21T21:12:54.000Z</time>
        <extensions>
          <ns3:TrackPointExtension>
            <ns3:hr>143</ns3:hr>
            <ns3:cad>44</ns3:cad>
          </ns3:TrackPointExtension>
        </extensions>
      </trkpt>
      <trkpt lat="45.31683686189353466033935546875" lon="-71.01610176265239715576171875">
        <ele>722.20001220703125</ele>
        <time>2026-08-21T21:12:55.000Z</time>
        <extensions>
          <ns3:TrackPointExtension>
            <ns3:hr>143</ns3:hr>
            <ns3:cad>44</ns3:cad>
          </ns3:TrackPointExtension>
        </extensions>
      </trkpt>
      <trkpt lat="45.31681925989687442779541015625" lon="-71.0161091387271881103515625">
        <ele>722.4000244140625</ele>
        <time>2026-08-21T21:12:56.000Z</time>
        <extensions>
          <ns3:TrackPointExtension>
            <ns3:hr>144</ns3:hr>
            <ns3:cad>44</ns3:cad>
          </ns3:TrackPointExtension>
        </extensions>
      </trkpt>
      <trkpt lat="45.31680970452725887298583984375" lon="-71.0161116532981395721435546875">
        <ele>722.5999755859375</ele>
        <time>2026-08-21T21:12:57.000Z</time>
        <extensions>
          <ns3:TrackPointExtension>
            <ns3:hr>143</ns3:hr>
            <ns3:cad>44</ns3:cad>
          </ns3:TrackPointExtension>
        </extensions>
      </trkpt>
      <trkpt lat="45.31679830513894557952880859375" lon="-71.01611475460231304168701171875">
        <ele>722.5999755859375</ele>
        <time>2026-08-21T21:12:58.000Z</time>
        <extensions>
          <ns3:TrackPointExtension>
            <ns3:hr>143</ns3:hr>
            <ns3:cad>50</ns3:cad>
          </ns3:TrackPointExtension>
        </extensions>
      </trkpt>
      <trkpt lat="45.3167864866554737091064453125" lon="-71.01611810736358165740966796875">
        <ele>722.79998779296875</ele>
        <time>2026-08-21T21:12:59.000Z</time>
        <extensions>
          <ns3:TrackPointExtension>
            <ns3:hr>143</ns3:hr>
            <ns3:cad>0</ns3:cad>
          </ns3:TrackPointExtension>
        </extensions>
      </trkpt>
      <trkpt lat="45.31677198596298694610595703125" lon="-71.01612498052418231964111328125">
        <ele>723</ele>
        <time>2026-08-21T21:13:00.000Z</time>
        <extensions>
          <ns3:TrackPointExtension>
            <ns3:hr>143</ns3:hr>
            <ns3:cad>0</ns3:cad>
          </ns3:TrackPointExtension>
        </extensions>
      </trkpt>
      <trkpt lat="45.31675958074629306793212890625" lon="-71.01613755337893962860107421875">
        <ele>723</ele>
        <time>2026-08-21T21:13:01.000Z</time>
        <extensions>
          <ns3:TrackPointExtension>
            <ns3:hr>143</ns3:hr>
            <ns3:cad>0</ns3:cad>
          </ns3:TrackPointExtension>
        </extensions>
      </trkpt>
      <trkpt lat="45.31674633733928203582763671875" lon="-71.01614727638661861419677734375">
        <ele>723.20001220703125</ele>
        <time>2026-08-21T21:13:02.000Z</time>
        <extensions>
          <ns3:TrackPointExtension>
            <ns3:hr>144</ns3:hr>
            <ns3:cad>0</ns3:cad>
          </ns3:TrackPointExtension>
        </extensions>
      </trkpt>
      <trkpt lat="45.3167341835796833038330078125" lon="-71.01614945568144321441650390625">
        <ele>723.20001220703125</ele>
        <time>2026-08-21T21:13:03.000Z</time>
        <extensions>
          <ns3:TrackPointExtension>
            <ns3:hr>143</ns3:hr>
            <ns3:cad>0</ns3:cad>
          </ns3:TrackPointExtension>
        </extensions>
      </trkpt>
      <trkpt lat="45.31672303564846515655517578125" lon="-71.01615414954721927642822265625">
        <ele>723.4000244140625</ele>
        <time>2026-08-21T21:13:04.000Z</time>
        <extensions>
          <ns3:TrackPointExtension>
            <ns3:hr>142</ns3:hr>
            <ns3:cad>0</ns3:cad>
          </ns3:TrackPointExtension>
        </extensions>
      </trkpt>
      <trkpt lat="45.316710881888866424560546875" lon="-71.016163788735866546630859375">
        <ele>723.4000244140625</ele>
        <time>2026-08-21T21:13:05.000Z</time>
        <extensions>
          <ns3:TrackPointExtension>
            <ns3:hr>142</ns3:hr>
            <ns3:cad>48</ns3:cad>
          </ns3:TrackPointExtension>
        </extensions>
      </trkpt>
      <trkpt lat="45.31669788993895053863525390625" lon="-71.0161673091351985931396484375">
        <ele>723.5999755859375</ele>
        <time>2026-08-21T21:13:06.000Z</time>
        <extensions>
          <ns3:TrackPointExtension>
            <ns3:hr>142</ns3:hr>
            <ns3:cad>50</ns3:cad>
          </ns3:TrackPointExtension>
        </extensions>
      </trkpt>
      <trkpt lat="45.31668514944612979888916015625" lon="-71.016172505915164947509765625">
        <ele>723.5999755859375</ele>
        <time>2026-08-21T21:13:07.000Z</time>
        <extensions>
          <ns3:TrackPointExtension>
            <ns3:hr>142</ns3:hr>
            <ns3:cad>50</ns3:cad>
          </ns3:TrackPointExtension>
        </extensions>
      </trkpt>
      <trkpt lat="45.31667659990489482879638671875" lon="-71.01617208682000637054443359375">
        <ele>723.5999755859375</ele>
        <time>2026-08-21T21:13:08.000Z</time>
        <extensions>
          <ns3:TrackPointExtension>
            <ns3:hr>142</ns3:hr>
            <ns3:cad>53</ns3:cad>
          </ns3:TrackPointExtension>
        </extensions>
      </trkpt>
      <trkpt lat="45.31666494905948638916015625" lon="-71.01616890169680118560791015625">
        <ele>723.79998779296875</ele>
        <time>2026-08-21T21:13:09.000Z</time>
        <extensions>
          <ns3:TrackPointExtension>
            <ns3:hr>142</ns3:hr>
            <ns3:cad>53</ns3:cad>
          </ns3:TrackPointExtension>
        </extensions>
      </trkpt>
      <trkpt lat="45.3166557289659976959228515625" lon="-71.01616605184972286224365234375">
        <ele>723.79998779296875</ele>
        <time>2026-08-21T21:13:10.000Z</time>
        <extensions>
          <ns3:TrackPointExtension>
            <ns3:hr>141</ns3:hr>
            <ns3:cad>53</ns3:cad>
          </ns3:TrackPointExtension>
        </extensions>
      </trkpt>
      <trkpt lat="45.31664625741541385650634765625" lon="-71.01616077125072479248046875">
        <ele>723.79998779296875</ele>
        <time>2026-08-21T21:13:11.000Z</time>
        <extensions>
          <ns3:TrackPointExtension>
            <ns3:hr>141</ns3:hr>
            <ns3:cad>53</ns3:cad>
          </ns3:TrackPointExtension>
        </extensions>
      </trkpt>
      <trkpt lat="45.31663686968386173248291015625" lon="-71.01615766994655132293701171875">
        <ele>724</ele>
        <time>2026-08-21T21:13:12.000Z</time>
        <extensions>
          <ns3:TrackPointExtension>
            <ns3:hr>140</ns3:hr>
            <ns3:cad>53</ns3:cad>
          </ns3:TrackPointExtension>
        </extensions>
      </trkpt>
      <trkpt lat="45.31662798486649990081787109375" lon="-71.016154401004314422607421875">
        <ele>724</ele>
        <time>2026-08-21T21:13:13.000Z</time>
        <extensions>
          <ns3:TrackPointExtension>
            <ns3:hr>140</ns3:hr>
            <ns3:cad>53</ns3:cad>
          </ns3:TrackPointExtension>
        </extensions>
      </trkpt>
      <trkpt lat="45.31662178225815296173095703125" lon="-71.0161507129669189453125">
        <ele>724</ele>
        <time>2026-08-21T21:13:14.000Z</time>
        <extensions>
          <ns3:TrackPointExtension>
            <ns3:hr>140</ns3:hr>
            <ns3:cad>53</ns3:cad>
          </ns3:TrackPointExtension>
        </extensions>
      </trkpt>
      <trkpt lat="45.316615663468837738037109375" lon="-71.0161361284554004669189453125">
        <ele>724.20001220703125</ele>
        <time>2026-08-21T21:13:15.000Z</time>
        <extensions>
          <ns3:TrackPointExtension>
            <ns3:hr>140</ns3:hr>
            <ns3:cad>53</ns3:cad>
          </ns3:TrackPointExtension>
        </extensions>
      </trkpt>
      <trkpt lat="45.3166108019649982452392578125" lon="-71.0161252319812774658203125">
        <ele>724.20001220703125</ele>
        <time>2026-08-21T21:13:16.000Z</time>
        <extensions>
          <ns3:TrackPointExtension>
            <ns3:hr>140</ns3:hr>
            <ns3:cad>53</ns3:cad>
          </ns3:TrackPointExtension>
        </extensions>
      </trkpt>
      <trkpt lat="45.31660719774663448333740234375" lon="-71.0161133296787738800048828125">
        <ele>724.4000244140625</ele>
        <time>2026-08-21T21:13:17.000Z</time>
        <extensions>
          <ns3:TrackPointExtension>
            <ns3:hr>140</ns3:hr>
            <ns3:cad>52</ns3:cad>
          </ns3:TrackPointExtension>
        </extensions>
      </trkpt>
      <trkpt lat="45.3166014142334461212158203125" lon="-71.016102768480777740478515625">
        <ele>724.5999755859375</ele>
        <time>2026-08-21T21:13:18.000Z</time>
        <extensions>
          <ns3:TrackPointExtension>
            <ns3:hr>140</ns3:hr>
            <ns3:cad>52</ns3:cad>
          </ns3:TrackPointExtension>
        </extensions>
      </trkpt>
      <trkpt lat="45.316592864692211151123046875" lon="-71.01609329693019390106201171875">
        <ele>724.79998779296875</ele>
        <time>2026-08-21T21:13:19.000Z</time>
        <extensions>
          <ns3:TrackPointExtension>
            <ns3:hr>140</ns3:hr>
            <ns3:cad>52</ns3:cad>
          </ns3:TrackPointExtension>
        </extensions>
      </trkpt>
      <trkpt lat="45.31658389605581760406494140625" lon="-71.0160855017602443695068359375">
        <ele>725</ele>
        <time>2026-08-21T21:13:20.000Z</time>
        <extensions>
          <ns3:TrackPointExtension>
            <ns3:hr>140</ns3:hr>
            <ns3:cad>51</ns3:cad>
          </ns3:TrackPointExtension>
        </extensions>
      </trkpt>
      <trkpt lat="45.31657316721975803375244140625" lon="-71.0160747729241847991943359375">
        <ele>725.20001220703125</ele>
        <time>2026-08-21T21:13:21.000Z</time>
        <extensions>
          <ns3:TrackPointExtension>
            <ns3:hr>139</ns3:hr>
            <ns3:cad>51</ns3:cad>
          </ns3:TrackPointExtension>
        </extensions>
      </trkpt>
      <trkpt lat="45.31656394712626934051513671875" lon="-71.01606530137360095977783203125">
        <ele>725.20001220703125</ele>
        <time>2026-08-21T21:13:22.000Z</time>
        <extensions>
          <ns3:TrackPointExtension>
            <ns3:hr>139</ns3:hr>
            <ns3:cad>49</ns3:cad>
          </ns3:TrackPointExtension>
        </extensions>
      </trkpt>
      <trkpt lat="45.316553972661495208740234375" lon="-71.01605616509914398193359375">
        <ele>725.4000244140625</ele>
        <time>2026-08-21T21:13:23.000Z</time>
        <extensions>
          <ns3:TrackPointExtension>
            <ns3:hr>139</ns3:hr>
            <ns3:cad>49</ns3:cad>
          </ns3:TrackPointExtension>
        </extensions>
      </trkpt>
      <trkpt lat="45.31653947196900844573974609375" lon="-71.01604870520532131195068359375">
        <ele>725.4000244140625</ele>
        <time>2026-08-21T21:13:24.000Z</time>
        <extensions>
          <ns3:TrackPointExtension>
            <ns3:hr>139</ns3:hr>
            <ns3:cad>49</ns3:cad>
          </ns3:TrackPointExtension>
        </extensions>
      </trkpt>
      <trkpt lat="45.3165266476571559906005859375" lon="-71.016041748225688934326171875">
        <ele>725.5999755859375</ele>
        <time>2026-08-21T21:13:25.000Z</time>
        <extensions>
          <ns3:TrackPointExtension>
            <ns3:hr>139</ns3:hr>
            <ns3:cad>49</ns3:cad>
          </ns3:TrackPointExtension>
        </extensions>
      </trkpt>
      <trkpt lat="45.31650938093662261962890625" lon="-71.01603311486542224884033203125">
        <ele>725.5999755859375</ele>
        <time>2026-08-21T21:13:26.000Z</time>
        <extensions>
          <ns3:TrackPointExtension>
            <ns3:hr>139</ns3:hr>
            <ns3:cad>49</ns3:cad>
          </ns3:TrackPointExtension>
        </extensions>
      </trkpt>
      <trkpt lat="45.3164944611489772796630859375" lon="-71.01602439768612384796142578125">
        <ele>725.5999755859375</ele>
        <time>2026-08-21T21:13:27.000Z</time>
        <extensions>
          <ns3:TrackPointExtension>
            <ns3:hr>140</ns3:hr>
            <ns3:cad>49</ns3:cad>
          </ns3:TrackPointExtension>
        </extensions>
      </trkpt>
      <trkpt lat="45.316480882465839385986328125" lon="-71.0160187818109989166259765625">
        <ele>725.5999755859375</ele>
        <time>2026-08-21T21:13:28.000Z</time>
        <extensions>
          <ns3:TrackPointExtension>
            <ns3:hr>140</ns3:hr>
            <ns3:cad>49</ns3:cad>
          </ns3:TrackPointExtension>
        </extensions>
      </trkpt>
      <trkpt lat="45.31646654941141605377197265625" lon="-71.01601551286876201629638671875">
        <ele>725.79998779296875</ele>
        <time>2026-08-21T21:13:29.000Z</time>
        <extensions>
          <ns3:TrackPointExtension>
            <ns3:hr>140</ns3:hr>
            <ns3:cad>49</ns3:cad>
          </ns3:TrackPointExtension>
        </extensions>
      </trkpt>
      <trkpt lat="45.31645179726183414459228515625" lon="-71.01601232774555683135986328125">
        <ele>725.79998779296875</ele>
        <time>2026-08-21T21:13:30.000Z</time>
        <extensions>
          <ns3:TrackPointExtension>
            <ns3:hr>140</ns3:hr>
            <ns3:cad>51</ns3:cad>
          </ns3:TrackPointExtension>
        </extensions>
      </trkpt>
      <trkpt lat="45.3164403140544891357421875" lon="-71.0160179436206817626953125">
        <ele>725.79998779296875</ele>
        <time>2026-08-21T21:13:31.000Z</time>
        <extensions>
          <ns3:TrackPointExtension>
            <ns3:hr>140</ns3:hr>
            <ns3:cad>51</ns3:cad>
          </ns3:TrackPointExtension>
        </extensions>
      </trkpt>
      <trkpt lat="45.3164253942668437957763671875" lon="-71.01602741517126560211181640625">
        <ele>726</ele>
        <time>2026-08-21T21:13:32.000Z</time>
        <extensions>
          <ns3:TrackPointExtension>
            <ns3:hr>140</ns3:hr>
            <ns3:cad>52</ns3:cad>
          </ns3:TrackPointExtension>
        </extensions>
      </trkpt>
      <trkpt lat="45.316414497792720794677734375" lon="-71.01603160612285137176513671875">
        <ele>726.20001220703125</ele>
        <time>2026-08-21T21:13:33.000Z</time>
        <extensions>
          <ns3:TrackPointExtension>
            <ns3:hr>139</ns3:hr>
            <ns3:cad>52</ns3:cad>
          </ns3:TrackPointExtension>
        </extensions>
      </trkpt>
      <trkpt lat="45.31640150584280490875244140625" lon="-71.01603613235056400299072265625">
        <ele>726.4000244140625</ele>
        <time>2026-08-21T21:13:34.000Z</time>
        <extensions>
          <ns3:TrackPointExtension>
            <ns3:hr>137</ns3:hr>
            <ns3:cad>50</ns3:cad>
          </ns3:TrackPointExtension>
        </extensions>
      </trkpt>
      <trkpt lat="45.316386334598064422607421875" lon="-71.01603948511183261871337890625">
        <ele>726.4000244140625</ele>
        <time>2026-08-21T21:13:35.000Z</time>
        <extensions>
          <ns3:TrackPointExtension>
            <ns3:hr>137</ns3:hr>
            <ns3:cad>0</ns3:cad>
          </ns3:TrackPointExtension>
        </extensions>
      </trkpt>
      <trkpt lat="45.3163794614374637603759765625" lon="-71.01604065857827663421630859375">
        <ele>726.5999755859375</ele>
        <time>2026-08-21T21:13:36.000Z</time>
        <extensions>
          <ns3:TrackPointExtension>
            <ns3:hr>137</ns3:hr>
            <ns3:cad>0</ns3:cad>
          </ns3:TrackPointExtension>
        </extensions>
      </trkpt>
      <trkpt lat="45.31636655330657958984375" lon="-71.01604971103370189666748046875">
        <ele>726.79998779296875</ele>
        <time>2026-08-21T21:13:37.000Z</time>
        <extensions>
          <ns3:TrackPointExtension>
            <ns3:hr>138</ns3:hr>
            <ns3:cad>0</ns3:cad>
          </ns3:TrackPointExtension>
        </extensions>
      </trkpt>
      <trkpt lat="45.3163556568324565887451171875" lon="-71.01605893112719058990478515625">
        <ele>726.79998779296875</ele>
        <time>2026-08-21T21:13:38.000Z</time>
        <extensions>
          <ns3:TrackPointExtension>
            <ns3:hr>138</ns3:hr>
            <ns3:cad>0</ns3:cad>
          </ns3:TrackPointExtension>
        </extensions>
      </trkpt>
      <trkpt lat="45.31634015031158924102783203125" lon="-71.016067564487457275390625">
        <ele>727</ele>
        <time>2026-08-21T21:13:39.000Z</time>
        <extensions>
          <ns3:TrackPointExtension>
            <ns3:hr>138</ns3:hr>
            <ns3:cad>50</ns3:cad>
          </ns3:TrackPointExtension>
        </extensions>
      </trkpt>
      <trkpt lat="45.3163315169513225555419921875" lon="-71.01606764830648899078369140625">
        <ele>727.20001220703125</ele>
        <time>2026-08-21T21:13:40.000Z</time>
        <extensions>
          <ns3:TrackPointExtension>
            <ns3:hr>138</ns3:hr>
            <ns3:cad>50</ns3:cad>
          </ns3:TrackPointExtension>
        </extensions>
      </trkpt>
      <trkpt lat="45.31632422469556331634521484375" lon="-71.01606815122067928314208984375">
        <ele>727.4000244140625</ele>
        <time>2026-08-21T21:13:41.000Z</time>
        <extensions>
          <ns3:TrackPointExtension>
            <ns3:hr>138</ns3:hr>
            <ns3:cad>50</ns3:cad>
          </ns3:TrackPointExtension>
        </extensions>
      </trkpt>
      <trkpt lat="45.31631483696401119232177734375" lon="-71.01606865413486957550048828125">
        <ele>727.5999755859375</ele>
        <time>2026-08-21T21:13:42.000Z</time>
        <extensions>
          <ns3:TrackPointExtension>
            <ns3:hr>138</ns3:hr>
            <ns3:cad>48</ns3:cad>
          </ns3:TrackPointExtension>
        </extensions>
      </trkpt>
      <trkpt lat="45.31630285084247589111328125" lon="-71.01606965996325016021728515625">
        <ele>727.79998779296875</ele>
        <time>2026-08-21T21:13:43.000Z</time>
        <extensions>
          <ns3:TrackPointExtension>
            <ns3:hr>137</ns3:hr>
            <ns3:cad>48</ns3:cad>
          </ns3:TrackPointExtension>
        </extensions>
      </trkpt>
      <trkpt lat="45.31629136763513088226318359375" lon="-71.016070581972599029541015625">
        <ele>728</ele>
        <time>2026-08-21T21:13:44.000Z</time>
        <extensions>
          <ns3:TrackPointExtension>
            <ns3:hr>136</ns3:hr>
            <ns3:cad>48</ns3:cad>
          </ns3:TrackPointExtension>
        </extensions>
      </trkpt>
      <trkpt lat="45.31628005206584930419921875" lon="-71.01607016287744045257568359375">
        <ele>728.20001220703125</ele>
        <time>2026-08-21T21:13:45.000Z</time>
        <extensions>
          <ns3:TrackPointExtension>
            <ns3:hr>136</ns3:hr>
            <ns3:cad>48</ns3:cad>
          </ns3:TrackPointExtension>
        </extensions>
      </trkpt>
      <trkpt lat="45.3162698261439800262451171875" lon="-71.016069240868091583251953125">
        <ele>728.20001220703125</ele>
        <time>2026-08-21T21:13:46.000Z</time>
        <extensions>
          <ns3:TrackPointExtension>
            <ns3:hr>136</ns3:hr>
            <ns3:cad>47</ns3:cad>
          </ns3:TrackPointExtension>
        </extensions>
      </trkpt>
      <trkpt lat="45.31625784002244472503662109375" lon="-71.0160620324313640594482421875">
        <ele>728.4000244140625</ele>
        <time>2026-08-21T21:13:47.000Z</time>
        <extensions>
          <ns3:TrackPointExtension>
            <ns3:hr>136</ns3:hr>
            <ns3:cad>47</ns3:cad>
          </ns3:TrackPointExtension>
        </extensions>
      </trkpt>
      <trkpt lat="45.31624518334865570068359375" lon="-71.016059182584285736083984375">
        <ele>728.5999755859375</ele>
        <time>2026-08-21T21:13:48.000Z</time>
        <extensions>
          <ns3:TrackPointExtension>
            <ns3:hr>136</ns3:hr>
            <ns3:cad>47</ns3:cad>
          </ns3:TrackPointExtension>
        </extensions>
      </trkpt>
      <trkpt lat="45.31624208204448223114013671875" lon="-71.01605507545173168182373046875">
        <ele>728.79998779296875</ele>
        <time>2026-08-21T21:13:49.000Z</time>
        <extensions>
          <ns3:TrackPointExtension>
            <ns3:hr>136</ns3:hr>
            <ns3:cad>47</ns3:cad>
          </ns3:TrackPointExtension>
        </extensions>
      </trkpt>
      <trkpt lat="45.3162312693893909454345703125" lon="-71.01605054922401905059814453125">
        <ele>728.79998779296875</ele>
        <time>2026-08-21T21:13:50.000Z</time>
        <extensions>
          <ns3:TrackPointExtension>
            <ns3:hr>136</ns3:hr>
            <ns3:cad>47</ns3:cad>
          </ns3:TrackPointExtension>
        </extensions>
      </trkpt>
      <trkpt lat="45.31622062437236309051513671875" lon="-71.01604753173887729644775390625">
        <ele>729</ele>
        <time>2026-08-21T21:13:51.000Z</time>
        <extensions>
          <ns3:TrackPointExtension>
            <ns3:hr>136</ns3:hr>
            <ns3:cad>47</ns3:cad>
          </ns3:TrackPointExtension>
        </extensions>
      </trkpt>
      <trkpt lat="45.31621299684047698974609375" lon="-71.01604275405406951904296875">
        <ele>729.20001220703125</ele>
        <time>2026-08-21T21:13:52.000Z</time>
        <extensions>
          <ns3:TrackPointExtension>
            <ns3:hr>135</ns3:hr>
            <ns3:cad>48</ns3:cad>
          </ns3:TrackPointExtension>
        </extensions>
      </trkpt>
      <trkpt lat="45.31620352528989315032958984375" lon="-71.0160394012928009033203125">
        <ele>729.4000244140625</ele>
        <time>2026-08-21T21:13:53.000Z</time>
        <extensions>
          <ns3:TrackPointExtension>
            <ns3:hr>135</ns3:hr>
            <ns3:cad>48</ns3:cad>
          </ns3:TrackPointExtension>
        </extensions>
      </trkpt>
      <trkpt lat="45.31619547866284847259521484375" lon="-71.0160372219979763031005859375">
        <ele>729.5999755859375</ele>
        <time>2026-08-21T21:13:54.000Z</time>
        <extensions>
          <ns3:TrackPointExtension>
            <ns3:hr>135</ns3:hr>
            <ns3:cad>48</ns3:cad>
          </ns3:TrackPointExtension>
        </extensions>
      </trkpt>
      <trkpt lat="45.316185839474201202392578125" lon="-71.01604199968278408050537109375">
        <ele>729.79998779296875</ele>
        <time>2026-08-21T21:13:55.000Z</time>
        <extensions>
          <ns3:TrackPointExtension>
            <ns3:hr>136</ns3:hr>
            <ns3:cad>48</ns3:cad>
          </ns3:TrackPointExtension>
        </extensions>
      </trkpt>
      <trkpt lat="45.3161789663136005401611328125" lon="-71.016047112643718719482421875">
        <ele>729.79998779296875</ele>
        <time>2026-08-21T21:13:56.000Z</time>
        <extensions>
          <ns3:TrackPointExtension>
            <ns3:hr>136</ns3:hr>
            <ns3:cad>46</ns3:cad>
          </ns3:TrackPointExtension>
        </extensions>
      </trkpt>
      <trkpt lat="45.31617133878171443939208984375" lon="-71.01605306379497051239013671875">
        <ele>730</ele>
        <time>2026-08-21T21:13:57.000Z</time>
        <extensions>
          <ns3:TrackPointExtension>
            <ns3:hr>136</ns3:hr>
            <ns3:cad>44</ns3:cad>
          </ns3:TrackPointExtension>
        </extensions>
      </trkpt>
      <trkpt lat="45.3161642141640186309814453125" lon="-71.01605658419430255889892578125">
        <ele>730.20001220703125</ele>
        <time>2026-08-21T21:13:58.000Z</time>
        <extensions>
          <ns3:TrackPointExtension>
            <ns3:hr>137</ns3:hr>
            <ns3:cad>44</ns3:cad>
          </ns3:TrackPointExtension>
        </extensions>
      </trkpt>
      <trkpt lat="45.31615792773663997650146484375" lon="-71.016061864793300628662109375">
        <ele>730.4000244140625</ele>
        <time>2026-08-21T21:13:59.000Z</time>
        <extensions>
          <ns3:TrackPointExtension>
            <ns3:hr>136</ns3:hr>
            <ns3:cad>44</ns3:cad>
          </ns3:TrackPointExtension>
        </extensions>
      </trkpt>
      <trkpt lat="45.316149629652500152587890625" lon="-71.01606957614421844482421875">
        <ele>730.5999755859375</ele>
        <time>2026-08-21T21:14:00.000Z</time>
        <extensions>
          <ns3:TrackPointExtension>
            <ns3:hr>136</ns3:hr>
            <ns3:cad>44</ns3:cad>
          </ns3:TrackPointExtension>
        </extensions>
      </trkpt>
      <trkpt lat="45.31614057719707489013671875" lon="-71.0160769522190093994140625">
        <ele>730.5999755859375</ele>
        <time>2026-08-21T21:14:01.000Z</time>
        <extensions>
          <ns3:TrackPointExtension>
            <ns3:hr>136</ns3:hr>
            <ns3:cad>44</ns3:cad>
          </ns3:TrackPointExtension>
        </extensions>
      </trkpt>
      <trkpt lat="45.3161353804171085357666015625" lon="-71.01607871241867542266845703125">
        <ele>730.5999755859375</ele>
        <time>2026-08-21T21:14:02.000Z</time>
        <extensions>
          <ns3:TrackPointExtension>
            <ns3:hr>137</ns3:hr>
            <ns3:cad>44</ns3:cad>
          </ns3:TrackPointExtension>
        </extensions>
      </trkpt>
      <trkpt lat="45.3161246515810489654541015625" lon="-71.0160798020660877227783203125">
        <ele>730.79998779296875</ele>
        <time>2026-08-21T21:14:03.000Z</time>
        <extensions>
          <ns3:TrackPointExtension>
            <ns3:hr>137</ns3:hr>
            <ns3:cad>43</ns3:cad>
          </ns3:TrackPointExtension>
        </extensions>
      </trkpt>
      <trkpt lat="45.31611534766852855682373046875" lon="-71.016081310808658599853515625">
        <ele>730.79998779296875</ele>
        <time>2026-08-21T21:14:04.000Z</time>
        <extensions>
          <ns3:TrackPointExtension>
            <ns3:hr>138</ns3:hr>
            <ns3:cad>43</ns3:cad>
          </ns3:TrackPointExtension>
        </extensions>
      </trkpt>
      <trkpt lat="45.3161058761179447174072265625" lon="-71.01608592085540294647216796875">
        <ele>730.79998779296875</ele>
        <time>2026-08-21T21:14:05.000Z</time>
        <extensions>
          <ns3:TrackPointExtension>
            <ns3:hr>138</ns3:hr>
            <ns3:cad>43</ns3:cad>
          </ns3:TrackPointExtension>
        </extensions>
      </trkpt>
      <trkpt lat="45.3160974942147731781005859375" lon="-71.016083657741546630859375">
        <ele>730.79998779296875</ele>
        <time>2026-08-21T21:14:06.000Z</time>
        <extensions>
          <ns3:TrackPointExtension>
            <ns3:hr>138</ns3:hr>
            <ns3:cad>46</ns3:cad>
          </ns3:TrackPointExtension>
        </extensions>
      </trkpt>
      <trkpt lat="45.31608835794031620025634765625" lon="-71.0160871781408786773681640625">
        <ele>731</ele>
        <time>2026-08-21T21:14:07.000Z</time>
        <extensions>
          <ns3:TrackPointExtension>
            <ns3:hr>138</ns3:hr>
            <ns3:cad>46</ns3:cad>
          </ns3:TrackPointExtension>
        </extensions>
      </trkpt>
      <trkpt lat="45.31607947312295436859130859375" lon="-71.01608944125473499298095703125">
        <ele>731</ele>
        <time>2026-08-21T21:14:08.000Z</time>
        <extensions>
          <ns3:TrackPointExtension>
            <ns3:hr>137</ns3:hr>
            <ns3:cad>46</ns3:cad>
          </ns3:TrackPointExtension>
        </extensions>
      </trkpt>
      <trkpt lat="45.31606857664883136749267578125" lon="-71.0160932131111621856689453125">
        <ele>731.20001220703125</ele>
        <time>2026-08-21T21:14:09.000Z</time>
        <extensions>
          <ns3:TrackPointExtension>
            <ns3:hr>137</ns3:hr>
            <ns3:cad>46</ns3:cad>
          </ns3:TrackPointExtension>
        </extensions>
      </trkpt>
      <trkpt lat="45.316058099269866943359375" lon="-71.01609648205339908599853515625">
        <ele>731.20001220703125</ele>
        <time>2026-08-21T21:14:10.000Z</time>
        <extensions>
          <ns3:TrackPointExtension>
            <ns3:hr>136</ns3:hr>
            <ns3:cad>46</ns3:cad>
          </ns3:TrackPointExtension>
        </extensions>
      </trkpt>
      <trkpt lat="45.3160478733479976654052734375" lon="-71.01610084064304828643798828125">
        <ele>731.20001220703125</ele>
        <time>2026-08-21T21:14:11.000Z</time>
        <extensions>
          <ns3:TrackPointExtension>
            <ns3:hr>136</ns3:hr>
            <ns3:cad>46</ns3:cad>
          </ns3:TrackPointExtension>
        </extensions>
      </trkpt>
      <trkpt lat="45.31603840179741382598876953125" lon="-71.01610570214688777923583984375">
        <ele>731.4000244140625</ele>
        <time>2026-08-21T21:14:12.000Z</time>
        <extensions>
          <ns3:TrackPointExtension>
            <ns3:hr>136</ns3:hr>
            <ns3:cad>46</ns3:cad>
          </ns3:TrackPointExtension>
        </extensions>
      </trkpt>
      <trkpt lat="45.31602649949491024017333984375" lon="-71.01611123420298099517822265625">
        <ele>731.4000244140625</ele>
        <time>2026-08-21T21:14:13.000Z</time>
        <extensions>
          <ns3:TrackPointExtension>
            <ns3:hr>136</ns3:hr>
            <ns3:cad>47</ns3:cad>
          </ns3:TrackPointExtension>
        </extensions>
      </trkpt>
      <trkpt lat="45.31601308844983577728271484375" lon="-71.01611291058361530303955078125">
        <ele>731.4000244140625</ele>
        <time>2026-08-21T21:14:14.000Z</time>
        <extensions>
          <ns3:TrackPointExtension>
            <ns3:hr>136</ns3:hr>
            <ns3:cad>48</ns3:cad>
          </ns3:TrackPointExtension>
        </extensions>
      </trkpt>
      <trkpt lat="45.3160026110708713531494140625" lon="-71.01611517369747161865234375">
        <ele>731.5999755859375</ele>
        <time>2026-08-21T21:14:15.000Z</time>
        <extensions>
          <ns3:TrackPointExtension>
            <ns3:hr>136</ns3:hr>
            <ns3:cad>48</ns3:cad>
          </ns3:TrackPointExtension>
        </extensions>
      </trkpt>
      <trkpt lat="45.31599397771060466766357421875" lon="-71.0161166824400424957275390625">
        <ele>731.5999755859375</ele>
        <time>2026-08-21T21:14:16.000Z</time>
        <extensions>
          <ns3:TrackPointExtension>
            <ns3:hr>136</ns3:hr>
            <ns3:cad>48</ns3:cad>
          </ns3:TrackPointExtension>
        </extensions>
      </trkpt>
      <trkpt lat="45.3159811533987522125244140625" lon="-71.01611978374421596527099609375">
        <ele>731.5999755859375</ele>
        <time>2026-08-21T21:14:17.000Z</time>
        <extensions>
          <ns3:TrackPointExtension>
            <ns3:hr>136</ns3:hr>
            <ns3:cad>48</ns3:cad>
          </ns3:TrackPointExtension>
        </extensions>
      </trkpt>
      <trkpt lat="45.31596564687788486480712890625" lon="-71.0161227174103260040283203125">
        <ele>731.5999755859375</ele>
        <time>2026-08-21T21:14:18.000Z</time>
        <extensions>
          <ns3:TrackPointExtension>
            <ns3:hr>136</ns3:hr>
            <ns3:cad>49</ns3:cad>
          </ns3:TrackPointExtension>
        </extensions>
      </trkpt>
      <trkpt lat="45.31595424748957157135009765625" lon="-71.0161223821341991424560546875">
        <ele>731.79998779296875</ele>
        <time>2026-08-21T21:14:19.000Z</time>
        <extensions>
          <ns3:TrackPointExtension>
            <ns3:hr>135</ns3:hr>
            <ns3:cad>49</ns3:cad>
          </ns3:TrackPointExtension>
        </extensions>
      </trkpt>
      <trkpt lat="45.31594167463481426239013671875" lon="-71.01612313650548458099365234375">
        <ele>731.79998779296875</ele>
        <time>2026-08-21T21:14:20.000Z</time>
        <extensions>
          <ns3:TrackPointExtension>
            <ns3:hr>136</ns3:hr>
            <ns3:cad>47</ns3:cad>
          </ns3:TrackPointExtension>
        </extensions>
      </trkpt>
      <trkpt lat="45.3159298561513423919677734375" lon="-71.01612330414354801177978515625">
        <ele>732</ele>
        <time>2026-08-21T21:14:21.000Z</time>
        <extensions>
          <ns3:TrackPointExtension>
            <ns3:hr>136</ns3:hr>
            <ns3:cad>47</ns3:cad>
          </ns3:TrackPointExtension>
        </extensions>
      </trkpt>
      <trkpt lat="45.315917618572711944580078125" lon="-71.01612363941967487335205078125">
        <ele>732</ele>
        <time>2026-08-21T21:14:22.000Z</time>
        <extensions>
          <ns3:TrackPointExtension>
            <ns3:hr>135</ns3:hr>
            <ns3:cad>47</ns3:cad>
          </ns3:TrackPointExtension>
        </extensions>
      </trkpt>
      <trkpt lat="45.31590663827955722808837890625" lon="-71.0161220468580722808837890625">
        <ele>732.20001220703125</ele>
        <time>2026-08-21T21:14:23.000Z</time>
        <extensions>
          <ns3:TrackPointExtension>
            <ns3:hr>135</ns3:hr>
            <ns3:cad>50</ns3:cad>
          </ns3:TrackPointExtension>
        </extensions>
      </trkpt>
      <trkpt lat="45.3158973343670368194580078125" lon="-71.0161279141902923583984375">
        <ele>732.4000244140625</ele>
        <time>2026-08-21T21:14:24.000Z</time>
        <extensions>
          <ns3:TrackPointExtension>
            <ns3:hr>135</ns3:hr>
            <ns3:cad>50</ns3:cad>
          </ns3:TrackPointExtension>
        </extensions>
      </trkpt>
      <trkpt lat="45.3158855997025966644287109375" lon="-71.01613068021833896636962890625">
        <ele>732.4000244140625</ele>
        <time>2026-08-21T21:14:25.000Z</time>
        <extensions>
          <ns3:TrackPointExtension>
            <ns3:hr>134</ns3:hr>
            <ns3:cad>50</ns3:cad>
          </ns3:TrackPointExtension>
        </extensions>
      </trkpt>
      <trkpt lat="45.31587260775268077850341796875" lon="-71.0161337815225124359130859375">
        <ele>732.5999755859375</ele>
        <time>2026-08-21T21:14:26.000Z</time>
        <extensions>
          <ns3:TrackPointExtension>
            <ns3:hr>134</ns3:hr>
            <ns3:cad>50</ns3:cad>
          </ns3:TrackPointExtension>
        </extensions>
      </trkpt>
      <trkpt lat="45.3158638067543506622314453125" lon="-71.01614107377827167510986328125">
        <ele>732.79998779296875</ele>
        <time>2026-08-21T21:14:27.000Z</time>
        <extensions>
          <ns3:TrackPointExtension>
            <ns3:hr>134</ns3:hr>
            <ns3:cad>50</ns3:cad>
          </ns3:TrackPointExtension>
        </extensions>
      </trkpt>
      <trkpt lat="45.31585433520376682281494140625" lon="-71.01614576764404773712158203125">
        <ele>732.79998779296875</ele>
        <time>2026-08-21T21:14:28.000Z</time>
        <extensions>
          <ns3:TrackPointExtension>
            <ns3:hr>134</ns3:hr>
            <ns3:cad>48</ns3:cad>
          </ns3:TrackPointExtension>
        </extensions>
      </trkpt>
      <trkpt lat="45.315843857824802398681640625" lon="-71.01614861749112606048583984375">
        <ele>733</ele>
        <time>2026-08-21T21:14:29.000Z</time>
        <extensions>
          <ns3:TrackPointExtension>
            <ns3:hr>134</ns3:hr>
            <ns3:cad>48</ns3:cad>
          </ns3:TrackPointExtension>
        </extensions>
      </trkpt>
      <trkpt lat="45.31583136878907680511474609375" lon="-71.016150377690792083740234375">
        <ele>733</ele>
        <time>2026-08-21T21:14:30.000Z</time>
        <extensions>
          <ns3:TrackPointExtension>
            <ns3:hr>134</ns3:hr>
            <ns3:cad>46</ns3:cad>
          </ns3:TrackPointExtension>
        </extensions>
      </trkpt>
      <trkpt lat="45.3158207237720489501953125" lon="-71.01615012623369693756103515625">
        <ele>733</ele>
        <time>2026-08-21T21:14:31.000Z</time>
        <extensions>
          <ns3:TrackPointExtension>
            <ns3:hr>133</ns3:hr>
            <ns3:cad>46</ns3:cad>
          </ns3:TrackPointExtension>
        </extensions>
      </trkpt>
      <trkpt lat="45.31581175513565540313720703125" lon="-71.01615582592785358428955078125">
        <ele>733.20001220703125</ele>
        <time>2026-08-21T21:14:32.000Z</time>
        <extensions>
          <ns3:TrackPointExtension>
            <ns3:hr>132</ns3:hr>
            <ns3:cad>46</ns3:cad>
          </ns3:TrackPointExtension>
        </extensions>
      </trkpt>
      <trkpt lat="45.3158024512231349945068359375" lon="-71.01616001687943935394287109375">
        <ele>733.20001220703125</ele>
        <time>2026-08-21T21:14:33.000Z</time>
        <extensions>
          <ns3:TrackPointExtension>
            <ns3:hr>132</ns3:hr>
            <ns3:cad>50</ns3:cad>
          </ns3:TrackPointExtension>
        </extensions>
      </trkpt>
      <trkpt lat="45.3157923929393291473388671875" lon="-71.0161632858216762542724609375">
        <ele>733.20001220703125</ele>
        <time>2026-08-21T21:14:34.000Z</time>
        <extensions>
          <ns3:TrackPointExtension>
            <ns3:hr>132</ns3:hr>
            <ns3:cad>50</ns3:cad>
          </ns3:TrackPointExtension>
        </extensions>
      </trkpt>
      <trkpt lat="45.315779484808444976806640625" lon="-71.0161673091351985931396484375">
        <ele>733.4000244140625</ele>
        <time>2026-08-21T21:14:35.000Z</time>
        <extensions>
          <ns3:TrackPointExtension>
            <ns3:hr>131</ns3:hr>
            <ns3:cad>51</ns3:cad>
          </ns3:TrackPointExtension>
        </extensions>
      </trkpt>
      <trkpt lat="45.31576682813465595245361328125" lon="-71.0161686502397060394287109375">
        <ele>733.4000244140625</ele>
        <time>2026-08-21T21:14:36.000Z</time>
        <extensions>
          <ns3:TrackPointExtension>
            <ns3:hr>131</ns3:hr>
            <ns3:cad>51</ns3:cad>
          </ns3:TrackPointExtension>
        </extensions>
      </trkpt>
      <trkpt lat="45.315752662718296051025390625" lon="-71.01616940461099147796630859375">
        <ele>733.5999755859375</ele>
        <time>2026-08-21T21:14:37.000Z</time>
        <extensions>
          <ns3:TrackPointExtension>
            <ns3:hr>130</ns3:hr>
            <ns3:cad>50</ns3:cad>
          </ns3:TrackPointExtension>
        </extensions>
      </trkpt>
      <trkpt lat="45.31573900021612644195556640625" lon="-71.0161699913442134857177734375">
        <ele>733.5999755859375</ele>
        <time>2026-08-21T21:14:38.000Z</time>
        <extensions>
          <ns3:TrackPointExtension>
            <ns3:hr>130</ns3:hr>
            <ns3:cad>50</ns3:cad>
          </ns3:TrackPointExtension>
        </extensions>
      </trkpt>
      <trkpt lat="45.31572676263749599456787109375" lon="-71.01617150008678436279296875">
        <ele>733.79998779296875</ele>
        <time>2026-08-21T21:14:39.000Z</time>
        <extensions>
          <ns3:TrackPointExtension>
            <ns3:hr>129</ns3:hr>
            <ns3:cad>50</ns3:cad>
          </ns3:TrackPointExtension>
        </extensions>
      </trkpt>
      <trkpt lat="45.31571586616337299346923828125" lon="-71.016171835362911224365234375">
        <ele>733.79998779296875</ele>
        <time>2026-08-21T21:14:40.000Z</time>
        <extensions>
          <ns3:TrackPointExtension>
            <ns3:hr>129</ns3:hr>
            <ns3:cad>50</ns3:cad>
          </ns3:TrackPointExtension>
        </extensions>
      </trkpt>
      <trkpt lat="45.31570463441312313079833984375" lon="-71.0161735117435455322265625">
        <ele>734</ele>
        <time>2026-08-21T21:14:41.000Z</time>
        <extensions>
          <ns3:TrackPointExtension>
            <ns3:hr>129</ns3:hr>
            <ns3:cad>50</ns3:cad>
          </ns3:TrackPointExtension>
        </extensions>
      </trkpt>
      <trkpt lat="45.31569289974868297576904296875" lon="-71.01617753505706787109375">
        <ele>734</ele>
        <time>2026-08-21T21:14:42.000Z</time>
        <extensions>
          <ns3:TrackPointExtension>
            <ns3:hr>129</ns3:hr>
            <ns3:cad>52</ns3:cad>
          </ns3:TrackPointExtension>
        </extensions>
      </trkpt>
      <trkpt lat="45.315682590007781982421875" lon="-71.01618315093219280242919921875">
        <ele>734.20001220703125</ele>
        <time>2026-08-21T21:14:43.000Z</time>
        <extensions>
          <ns3:TrackPointExtension>
            <ns3:hr>128</ns3:hr>
            <ns3:cad>52</ns3:cad>
          </ns3:TrackPointExtension>
        </extensions>
      </trkpt>
      <trkpt lat="45.31567328609526157379150390625" lon="-71.01619086228311061859130859375">
        <ele>734.4000244140625</ele>
        <time>2026-08-21T21:14:44.000Z</time>
        <extensions>
          <ns3:TrackPointExtension>
            <ns3:hr>129</ns3:hr>
            <ns3:cad>52</ns3:cad>
          </ns3:TrackPointExtension>
        </extensions>
      </trkpt>
      <trkpt lat="45.315663814544677734375" lon="-71.0162003338336944580078125">
        <ele>734.5999755859375</ele>
        <time>2026-08-21T21:14:45.000Z</time>
        <extensions>
          <ns3:TrackPointExtension>
            <ns3:hr>129</ns3:hr>
            <ns3:cad>53</ns3:cad>
          </ns3:TrackPointExtension>
        </extensions>
      </trkpt>
      <trkpt lat="45.315652750432491302490234375" lon="-71.0162048600614070892333984375">
        <ele>734.79998779296875</ele>
        <time>2026-08-21T21:14:46.000Z</time>
        <extensions>
          <ns3:TrackPointExtension>
            <ns3:hr>130</ns3:hr>
            <ns3:cad>53</ns3:cad>
          </ns3:TrackPointExtension>
        </extensions>
      </trkpt>
      <trkpt lat="45.3156421892344951629638671875" lon="-71.016212403774261474609375">
        <ele>735</ele>
        <time>2026-08-21T21:14:47.000Z</time>
        <extensions>
          <ns3:TrackPointExtension>
            <ns3:hr>130</ns3:hr>
            <ns3:cad>51</ns3:cad>
          </ns3:TrackPointExtension>
        </extensions>
      </trkpt>
      <trkpt lat="45.315631963312625885009765625" lon="-71.01622514426708221435546875">
        <ele>735</ele>
        <time>2026-08-21T21:14:48.000Z</time>
        <extensions>
          <ns3:TrackPointExtension>
            <ns3:hr>130</ns3:hr>
            <ns3:cad>49</ns3:cad>
          </ns3:TrackPointExtension>
        </extensions>
      </trkpt>
      <trkpt lat="45.3156230784952640533447265625" lon="-71.01623897440731525421142578125">
        <ele>735</ele>
        <time>2026-08-21T21:14:49.000Z</time>
        <extensions>
          <ns3:TrackPointExtension>
            <ns3:hr>130</ns3:hr>
            <ns3:cad>47</ns3:cad>
          </ns3:TrackPointExtension>
        </extensions>
      </trkpt>
      <trkpt lat="45.31561528332531452178955078125" lon="-71.0162605158984661102294921875">
        <ele>735</ele>
        <time>2026-08-21T21:14:50.000Z</time>
        <extensions>
          <ns3:TrackPointExtension>
            <ns3:hr>130</ns3:hr>
            <ns3:cad>47</ns3:cad>
          </ns3:TrackPointExtension>
        </extensions>
      </trkpt>
      <trkpt lat="45.31560874544084072113037109375" lon="-71.01627476513385772705078125">
        <ele>735.20001220703125</ele>
        <time>2026-08-21T21:14:51.000Z</time>
        <extensions>
          <ns3:TrackPointExtension>
            <ns3:hr>130</ns3:hr>
            <ns3:cad>47</ns3:cad>
          </ns3:TrackPointExtension>
        </extensions>
      </trkpt>
      <trkpt lat="45.31560187228024005889892578125" lon="-71.01628591306507587432861328125">
        <ele>735.20001220703125</ele>
        <time>2026-08-21T21:14:52.000Z</time>
        <extensions>
          <ns3:TrackPointExtension>
            <ns3:hr>130</ns3:hr>
            <ns3:cad>49</ns3:cad>
          </ns3:TrackPointExtension>
        </extensions>
      </trkpt>
      <trkpt lat="45.31559231691062450408935546875" lon="-71.01629563607275485992431640625">
        <ele>735.4000244140625</ele>
        <time>2026-08-21T21:14:53.000Z</time>
        <extensions>
          <ns3:TrackPointExtension>
            <ns3:hr>130</ns3:hr>
            <ns3:cad>49</ns3:cad>
          </ns3:TrackPointExtension>
        </extensions>
      </trkpt>
      <trkpt lat="45.315586365759372711181640625" lon="-71.01630317978560924530029296875">
        <ele>735.4000244140625</ele>
        <time>2026-08-21T21:14:54.000Z</time>
        <extensions>
          <ns3:TrackPointExtension>
            <ns3:hr>130</ns3:hr>
            <ns3:cad>49</ns3:cad>
          </ns3:TrackPointExtension>
        </extensions>
      </trkpt>
      <trkpt lat="45.31557672657072544097900390625" lon="-71.01631558500230312347412109375">
        <ele>735.5999755859375</ele>
        <time>2026-08-21T21:14:55.000Z</time>
        <extensions>
          <ns3:TrackPointExtension>
            <ns3:hr>130</ns3:hr>
            <ns3:cad>49</ns3:cad>
          </ns3:TrackPointExtension>
        </extensions>
      </trkpt>
      <trkpt lat="45.31556717120110988616943359375" lon="-71.01632446981966495513916015625">
        <ele>735.5999755859375</ele>
        <time>2026-08-21T21:14:56.000Z</time>
        <extensions>
          <ns3:TrackPointExtension>
            <ns3:hr>129</ns3:hr>
            <ns3:cad>49</ns3:cad>
          </ns3:TrackPointExtension>
        </extensions>
      </trkpt>
      <trkpt lat="45.31555845402181148529052734375" lon="-71.0163443349301815032958984375">
        <ele>735.79998779296875</ele>
        <time>2026-08-21T21:14:57.000Z</time>
        <extensions>
          <ns3:TrackPointExtension>
            <ns3:hr>130</ns3:hr>
            <ns3:cad>49</ns3:cad>
          </ns3:TrackPointExtension>
        </extensions>
      </trkpt>
      <trkpt lat="45.31555342487990856170654296875" lon="-71.01636067964136600494384765625">
        <ele>735.79998779296875</ele>
        <time>2026-08-21T21:14:58.000Z</time>
        <extensions>
          <ns3:TrackPointExtension>
            <ns3:hr>130</ns3:hr>
            <ns3:cad>49</ns3:cad>
          </ns3:TrackPointExtension>
        </extensions>
      </trkpt>
      <trkpt lat="45.3155483119189739227294921875" lon="-71.016377694904804229736328125">
        <ele>735.79998779296875</ele>
        <time>2026-08-21T21:14:59.000Z</time>
        <extensions>
          <ns3:TrackPointExtension>
            <ns3:hr>130</ns3:hr>
            <ns3:cad>50</ns3:cad>
          </ns3:TrackPointExtension>
        </extensions>
      </trkpt>
      <trkpt lat="45.3155452944338321685791015625" lon="-71.0163952969014644622802734375">
        <ele>735.79998779296875</ele>
        <time>2026-08-21T21:15:00.000Z</time>
        <extensions>
          <ns3:TrackPointExtension>
            <ns3:hr>130</ns3:hr>
            <ns3:cad>51</ns3:cad>
          </ns3:TrackPointExtension>
        </extensions>
      </trkpt>
      <trkpt lat="45.3155426122248172760009765625" lon="-71.01641633547842502593994140625">
        <ele>735.79998779296875</ele>
        <time>2026-08-21T21:15:01.000Z</time>
        <extensions>
          <ns3:TrackPointExtension>
            <ns3:hr>130</ns3:hr>
            <ns3:cad>51</ns3:cad>
          </ns3:TrackPointExtension>
        </extensions>
      </trkpt>
      <trkpt lat="45.31553976237773895263671875" lon="-71.0164336860179901123046875">
        <ele>735.79998779296875</ele>
        <time>2026-08-21T21:15:02.000Z</time>
        <extensions>
          <ns3:TrackPointExtension>
            <ns3:hr>130</ns3:hr>
            <ns3:cad>54</ns3:cad>
          </ns3:TrackPointExtension>
        </extensions>
      </trkpt>
      <trkpt lat="45.31553766690194606781005859375" lon="-71.0164509527385234832763671875">
        <ele>735.79998779296875</ele>
        <time>2026-08-21T21:15:03.000Z</time>
        <extensions>
          <ns3:TrackPointExtension>
            <ns3:hr>130</ns3:hr>
            <ns3:cad>54</ns3:cad>
          </ns3:TrackPointExtension>
        </extensions>
      </trkpt>
      <trkpt lat="45.31553582288324832916259765625" lon="-71.0164710693061351776123046875">
        <ele>735.79998779296875</ele>
        <time>2026-08-21T21:15:04.000Z</time>
        <extensions>
          <ns3:TrackPointExtension>
            <ns3:hr>130</ns3:hr>
            <ns3:cad>56</ns3:cad>
          </ns3:TrackPointExtension>
        </extensions>
      </trkpt>
      <trkpt lat="45.31553666107356548309326171875" lon="-71.01648858748376369476318359375">
        <ele>735.79998779296875</ele>
        <time>2026-08-21T21:15:05.000Z</time>
        <extensions>
          <ns3:TrackPointExtension>
            <ns3:hr>130</ns3:hr>
            <ns3:cad>56</ns3:cad>
          </ns3:TrackPointExtension>
        </extensions>
      </trkpt>
      <trkpt lat="45.31553733162581920623779296875" lon="-71.01650970987975597381591796875">
        <ele>735.79998779296875</ele>
        <time>2026-08-21T21:15:06.000Z</time>
        <extensions>
          <ns3:TrackPointExtension>
            <ns3:hr>131</ns3:hr>
            <ns3:cad>56</ns3:cad>
          </ns3:TrackPointExtension>
        </extensions>
      </trkpt>
      <trkpt lat="45.31554454006254673004150390625" lon="-71.01652848534286022186279296875">
        <ele>735.79998779296875</ele>
        <time>2026-08-21T21:15:07.000Z</time>
        <extensions>
          <ns3:TrackPointExtension>
            <ns3:hr>131</ns3:hr>
            <ns3:cad>54</ns3:cad>
          </ns3:TrackPointExtension>
        </extensions>
      </trkpt>
      <trkpt lat="45.31555183231830596923828125" lon="-71.01654692552983760833740234375">
        <ele>736</ele>
        <time>2026-08-21T21:15:08.000Z</time>
        <extensions>
          <ns3:TrackPointExtension>
            <ns3:hr>132</ns3:hr>
            <ns3:cad>54</ns3:cad>
          </ns3:TrackPointExtension>
        </extensions>
      </trkpt>
      <trkpt lat="45.315549485385417938232421875" lon="-71.01655949838459491729736328125">
        <ele>736</ele>
        <time>2026-08-21T21:15:09.000Z</time>
        <extensions>
          <ns3:TrackPointExtension>
            <ns3:hr>132</ns3:hr>
            <ns3:cad>54</ns3:cad>
          </ns3:TrackPointExtension>
        </extensions>
      </trkpt>
      <trkpt lat="45.3155457973480224609375" lon="-71.01656871847808361053466796875">
        <ele>736.20001220703125</ele>
        <time>2026-08-21T21:15:10.000Z</time>
        <extensions>
          <ns3:TrackPointExtension>
            <ns3:hr>132</ns3:hr>
            <ns3:cad>54</ns3:cad>
          </ns3:TrackPointExtension>
        </extensions>
      </trkpt>
      <trkpt lat="45.31553917564451694488525390625" lon="-71.01657911203801631927490234375">
        <ele>736.4000244140625</ele>
        <time>2026-08-21T21:15:11.000Z</time>
        <extensions>
          <ns3:TrackPointExtension>
            <ns3:hr>131</ns3:hr>
            <ns3:cad>54</ns3:cad>
          </ns3:TrackPointExtension>
        </extensions>
      </trkpt>
      <trkpt lat="45.3155322186648845672607421875" lon="-71.01659386418759822845458984375">
        <ele>736.5999755859375</ele>
        <time>2026-08-21T21:15:12.000Z</time>
        <extensions>
          <ns3:TrackPointExtension>
            <ns3:hr>132</ns3:hr>
            <ns3:cad>54</ns3:cad>
          </ns3:TrackPointExtension>
        </extensions>
      </trkpt>
      <trkpt lat="45.31552878208458423614501953125" lon="-71.0166035033762454986572265625">
        <ele>736.79998779296875</ele>
        <time>2026-08-21T21:15:13.000Z</time>
        <extensions>
          <ns3:TrackPointExtension>
            <ns3:hr>133</ns3:hr>
            <ns3:cad>54</ns3:cad>
          </ns3:TrackPointExtension>
        </extensions>
      </trkpt>
      <trkpt lat="45.31552626751363277435302734375" lon="-71.0166095383465290069580078125">
        <ele>737</ele>
        <time>2026-08-21T21:15:14.000Z</time>
        <extensions>
          <ns3:TrackPointExtension>
            <ns3:hr>133</ns3:hr>
            <ns3:cad>48</ns3:cad>
          </ns3:TrackPointExtension>
        </extensions>
      </trkpt>
      <trkpt lat="45.315521657466888427734375" lon="-71.0166160762310028076171875">
        <ele>737</ele>
        <time>2026-08-21T21:15:15.000Z</time>
        <extensions>
          <ns3:TrackPointExtension>
            <ns3:hr>133</ns3:hr>
            <ns3:cad>48</ns3:cad>
          </ns3:TrackPointExtension>
        </extensions>
      </trkpt>
      <trkpt lat="45.3155131079256534576416015625" lon="-71.0166256316006183624267578125">
        <ele>737.20001220703125</ele>
        <time>2026-08-21T21:15:16.000Z</time>
        <extensions>
          <ns3:TrackPointExtension>
            <ns3:hr>133</ns3:hr>
            <ns3:cad>45</ns3:cad>
          </ns3:TrackPointExtension>
        </extensions>
      </trkpt>
      <trkpt lat="45.3155087493360042572021484375" lon="-71.01663778536021709442138671875">
        <ele>737.4000244140625</ele>
        <time>2026-08-21T21:15:17.000Z</time>
        <extensions>
          <ns3:TrackPointExtension>
            <ns3:hr>133</ns3:hr>
            <ns3:cad>48</ns3:cad>
          </ns3:TrackPointExtension>
        </extensions>
      </trkpt>
      <trkpt lat="45.3155053965747356414794921875" lon="-71.01664759218692779541015625">
        <ele>737.5999755859375</ele>
        <time>2026-08-21T21:15:18.000Z</time>
        <extensions>
          <ns3:TrackPointExtension>
            <ns3:hr>132</ns3:hr>
            <ns3:cad>48</ns3:cad>
          </ns3:TrackPointExtension>
        </extensions>
      </trkpt>
      <trkpt lat="45.31549927778542041778564453125" lon="-71.01665438152849674224853515625">
        <ele>737.79998779296875</ele>
        <time>2026-08-21T21:15:19.000Z</time>
        <extensions>
          <ns3:TrackPointExtension>
            <ns3:hr>132</ns3:hr>
            <ns3:cad>48</ns3:cad>
          </ns3:TrackPointExtension>
        </extensions>
      </trkpt>
      <trkpt lat="45.3154908120632171630859375" lon="-71.01666946895420551300048828125">
        <ele>738</ele>
        <time>2026-08-21T21:15:20.000Z</time>
        <extensions>
          <ns3:TrackPointExtension>
            <ns3:hr>132</ns3:hr>
            <ns3:cad>48</ns3:cad>
          </ns3:TrackPointExtension>
        </extensions>
      </trkpt>
      <trkpt lat="45.3154854476451873779296875" lon="-71.01668103598058223724365234375">
        <ele>738</ele>
        <time>2026-08-21T21:15:21.000Z</time>
        <extensions>
          <ns3:TrackPointExtension>
            <ns3:hr>132</ns3:hr>
            <ns3:cad>46</ns3:cad>
          </ns3:TrackPointExtension>
        </extensions>
      </trkpt>
      <trkpt lat="45.31548385508358478546142578125" lon="-71.01669981144368648529052734375">
        <ele>738</ele>
        <time>2026-08-21T21:15:22.000Z</time>
        <extensions>
          <ns3:TrackPointExtension>
            <ns3:hr>132</ns3:hr>
            <ns3:cad>47</ns3:cad>
          </ns3:TrackPointExtension>
        </extensions>
      </trkpt>
      <trkpt lat="45.31548050232231616973876953125" lon="-71.016714982688426971435546875">
        <ele>737.79998779296875</ele>
        <time>2026-08-21T21:15:23.000Z</time>
        <extensions>
          <ns3:TrackPointExtension>
            <ns3:hr>132</ns3:hr>
            <ns3:cad>47</ns3:cad>
          </ns3:TrackPointExtension>
        </extensions>
      </trkpt>
      <trkpt lat="45.31547480262815952301025390625" lon="-71.01672780700027942657470703125">
        <ele>737.79998779296875</ele>
        <time>2026-08-21T21:15:24.000Z</time>
        <extensions>
          <ns3:TrackPointExtension>
            <ns3:hr>132</ns3:hr>
            <ns3:cad>47</ns3:cad>
          </ns3:TrackPointExtension>
        </extensions>
      </trkpt>
      <trkpt lat="45.3154725395143032073974609375" lon="-71.01674926467239856719970703125">
        <ele>737.5999755859375</ele>
        <time>2026-08-21T21:15:25.000Z</time>
        <extensions>
          <ns3:TrackPointExtension>
            <ns3:hr>132</ns3:hr>
            <ns3:cad>47</ns3:cad>
          </ns3:TrackPointExtension>
        </extensions>
      </trkpt>
      <trkpt lat="45.31547094695270061492919921875" lon="-71.0167701356112957000732421875">
        <ele>737.5999755859375</ele>
        <time>2026-08-21T21:15:26.000Z</time>
        <extensions>
          <ns3:TrackPointExtension>
            <ns3:hr>132</ns3:hr>
            <ns3:cad>47</ns3:cad>
          </ns3:TrackPointExtension>
        </extensions>
      </trkpt>
      <trkpt lat="45.315476395189762115478515625" lon="-71.01678782142698764801025390625">
        <ele>737.4000244140625</ele>
        <time>2026-08-21T21:15:27.000Z</time>
        <extensions>
          <ns3:TrackPointExtension>
            <ns3:hr>132</ns3:hr>
            <ns3:cad>47</ns3:cad>
          </ns3:TrackPointExtension>
        </extensions>
      </trkpt>
      <trkpt lat="45.31548385508358478546142578125" lon="-71.01680458523333072662353515625">
        <ele>737.20001220703125</ele>
        <time>2026-08-21T21:15:28.000Z</time>
        <extensions>
          <ns3:TrackPointExtension>
            <ns3:hr>132</ns3:hr>
            <ns3:cad>47</ns3:cad>
          </ns3:TrackPointExtension>
        </extensions>
      </trkpt>
      <trkpt lat="45.31549324281513690948486328125" lon="-71.01681866683065891265869140625">
        <ele>736.79998779296875</ele>
        <time>2026-08-21T21:15:29.000Z</time>
        <extensions>
          <ns3:TrackPointExtension>
            <ns3:hr>131</ns3:hr>
            <ns3:cad>47</ns3:cad>
          </ns3:TrackPointExtension>
        </extensions>
      </trkpt>
      <trkpt lat="45.31549609266221523284912109375" lon="-71.01683400571346282958984375">
        <ele>736.79998779296875</ele>
        <time>2026-08-21T21:15:30.000Z</time>
        <extensions>
          <ns3:TrackPointExtension>
            <ns3:hr>131</ns3:hr>
            <ns3:cad>47</ns3:cad>
          </ns3:TrackPointExtension>
        </extensions>
      </trkpt>
      <trkpt lat="45.31549743376672267913818359375" lon="-71.0168442316353321075439453125">
        <ele>736.5999755859375</ele>
        <time>2026-08-21T21:15:31.000Z</time>
        <extensions>
          <ns3:TrackPointExtension>
            <ns3:hr>130</ns3:hr>
            <ns3:cad>53</ns3:cad>
          </ns3:TrackPointExtension>
        </extensions>
      </trkpt>
      <trkpt lat="45.3155013732612133026123046875" lon="-71.016854457557201385498046875">
        <ele>736.4000244140625</ele>
        <time>2026-08-21T21:15:32.000Z</time>
        <extensions>
          <ns3:TrackPointExtension>
            <ns3:hr>130</ns3:hr>
            <ns3:cad>53</ns3:cad>
          </ns3:TrackPointExtension>
        </extensions>
      </trkpt>
      <trkpt lat="45.3155064024031162261962890625" lon="-71.016867868602275848388671875">
        <ele>736.4000244140625</ele>
        <time>2026-08-21T21:15:33.000Z</time>
        <extensions>
          <ns3:TrackPointExtension>
            <ns3:hr>130</ns3:hr>
            <ns3:cad>0</ns3:cad>
          </ns3:TrackPointExtension>
        </extensions>
      </trkpt>
      <trkpt lat="45.3155087493360042572021484375" lon="-71.0168821178376674652099609375">
        <ele>736.20001220703125</ele>
        <time>2026-08-21T21:15:34.000Z</time>
        <extensions>
          <ns3:TrackPointExtension>
            <ns3:hr>130</ns3:hr>
            <ns3:cad>0</ns3:cad>
          </ns3:TrackPointExtension>
        </extensions>
      </trkpt>
      <trkpt lat="45.3155137784779071807861328125" lon="-71.016891002655029296875">
        <ele>736</ele>
        <time>2026-08-21T21:15:35.000Z</time>
        <extensions>
          <ns3:TrackPointExtension>
            <ns3:hr>129</ns3:hr>
            <ns3:cad>0</ns3:cad>
          </ns3:TrackPointExtension>
        </extensions>
      </trkpt>
      <trkpt lat="45.31551268883049488067626953125" lon="-71.01689695380628108978271484375">
        <ele>735.79998779296875</ele>
        <time>2026-08-21T21:15:36.000Z</time>
        <extensions>
          <ns3:TrackPointExtension>
            <ns3:hr>129</ns3:hr>
            <ns3:cad>0</ns3:cad>
          </ns3:TrackPointExtension>
        </extensions>
      </trkpt>
      <trkpt lat="45.31550682149827480316162109375" lon="-71.01690349169075489044189453125">
        <ele>735.5999755859375</ele>
        <time>2026-08-21T21:15:37.000Z</time>
        <extensions>
          <ns3:TrackPointExtension>
            <ns3:hr>129</ns3:hr>
            <ns3:cad>0</ns3:cad>
          </ns3:TrackPointExtension>
        </extensions>
      </trkpt>
      <trkpt lat="45.31550061888992786407470703125" lon="-71.01691790856420993804931640625">
        <ele>735.4000244140625</ele>
        <time>2026-08-21T21:15:38.000Z</time>
        <extensions>
          <ns3:TrackPointExtension>
            <ns3:hr>128</ns3:hr>
            <ns3:cad>0</ns3:cad>
          </ns3:TrackPointExtension>
        </extensions>
      </trkpt>
      <trkpt lat="45.31549475155770778656005859375" lon="-71.01692922413349151611328125">
        <ele>735.20001220703125</ele>
        <time>2026-08-21T21:15:39.000Z</time>
        <extensions>
          <ns3:TrackPointExtension>
            <ns3:hr>128</ns3:hr>
            <ns3:cad>0</ns3:cad>
          </ns3:TrackPointExtension>
        </extensions>
      </trkpt>
      <trkpt lat="45.315489135682582855224609375" lon="-71.016936935484409332275390625">
        <ele>734.79998779296875</ele>
        <time>2026-08-21T21:15:40.000Z</time>
        <extensions>
          <ns3:TrackPointExtension>
            <ns3:hr>127</ns3:hr>
            <ns3:cad>0</ns3:cad>
          </ns3:TrackPointExtension>
        </extensions>
      </trkpt>
      <trkpt lat="45.3154795803129673004150390625" lon="-71.01694154553115367889404296875">
        <ele>734.5999755859375</ele>
        <time>2026-08-21T21:15:41.000Z</time>
        <extensions>
          <ns3:TrackPointExtension>
            <ns3:hr>127</ns3:hr>
            <ns3:cad>0</ns3:cad>
          </ns3:TrackPointExtension>
        </extensions>
      </trkpt>
      <trkpt lat="45.3154745511710643768310546875" lon="-71.016946323215961456298828125">
        <ele>734.4000244140625</ele>
        <time>2026-08-21T21:15:42.000Z</time>
        <extensions>
          <ns3:TrackPointExtension>
            <ns3:hr>127</ns3:hr>
            <ns3:cad>0</ns3:cad>
          </ns3:TrackPointExtension>
        </extensions>
      </trkpt>
      <trkpt lat="45.31546709127724170684814453125" lon="-71.0169538669288158416748046875">
        <ele>734</ele>
        <time>2026-08-21T21:15:43.000Z</time>
        <extensions>
          <ns3:TrackPointExtension>
            <ns3:hr>127</ns3:hr>
            <ns3:cad>0</ns3:cad>
          </ns3:TrackPointExtension>
        </extensions>
      </trkpt>
      <trkpt lat="45.31545661389827728271484375" lon="-71.016965098679065704345703125">
        <ele>733.5999755859375</ele>
        <time>2026-08-21T21:15:44.000Z</time>
        <extensions>
          <ns3:TrackPointExtension>
            <ns3:hr>127</ns3:hr>
            <ns3:cad>0</ns3:cad>
          </ns3:TrackPointExtension>
        </extensions>
      </trkpt>
      <trkpt lat="45.31544990837574005126953125" lon="-71.01697389967739582061767578125">
        <ele>733.4000244140625</ele>
        <time>2026-08-21T21:15:45.000Z</time>
        <extensions>
          <ns3:TrackPointExtension>
            <ns3:hr>127</ns3:hr>
            <ns3:cad>60</ns3:cad>
          </ns3:TrackPointExtension>
        </extensions>
      </trkpt>
      <trkpt lat="45.31543524004518985748291015625" lon="-71.01698689162731170654296875">
        <ele>733.20001220703125</ele>
        <time>2026-08-21T21:15:46.000Z</time>
        <extensions>
          <ns3:TrackPointExtension>
            <ns3:hr>127</ns3:hr>
            <ns3:cad>60</ns3:cad>
          </ns3:TrackPointExtension>
        </extensions>
      </trkpt>
      <trkpt lat="45.31542870216071605682373046875" lon="-71.01700357161462306976318359375">
        <ele>733</ele>
        <time>2026-08-21T21:15:47.000Z</time>
        <extensions>
          <ns3:TrackPointExtension>
            <ns3:hr>127</ns3:hr>
            <ns3:cad>60</ns3:cad>
          </ns3:TrackPointExtension>
        </extensions>
      </trkpt>
      <trkpt lat="45.31542442739009857177734375" lon="-71.017022430896759033203125">
        <ele>733</ele>
        <time>2026-08-21T21:15:48.000Z</time>
        <extensions>
          <ns3:TrackPointExtension>
            <ns3:hr>127</ns3:hr>
            <ns3:cad>60</ns3:cad>
          </ns3:TrackPointExtension>
        </extensions>
      </trkpt>
      <trkpt lat="45.3154205717146396636962890625" lon="-71.0170440562069416046142578125">
        <ele>732.79998779296875</ele>
        <time>2026-08-21T21:15:49.000Z</time>
        <extensions>
          <ns3:TrackPointExtension>
            <ns3:hr>127</ns3:hr>
            <ns3:cad>60</ns3:cad>
          </ns3:TrackPointExtension>
        </extensions>
      </trkpt>
      <trkpt lat="45.315417386591434478759765625" lon="-71.01706459186971187591552734375">
        <ele>732.5999755859375</ele>
        <time>2026-08-21T21:15:50.000Z</time>
        <extensions>
          <ns3:TrackPointExtension>
            <ns3:hr>126</ns3:hr>
            <ns3:cad>60</ns3:cad>
          </ns3:TrackPointExtension>
        </extensions>
      </trkpt>
      <trkpt lat="45.3154130280017852783203125" lon="-71.01708822883665561676025390625">
        <ele>732.5999755859375</ele>
        <time>2026-08-21T21:15:51.000Z</time>
        <extensions>
          <ns3:TrackPointExtension>
            <ns3:hr>126</ns3:hr>
            <ns3:cad>60</ns3:cad>
          </ns3:TrackPointExtension>
        </extensions>
      </trkpt>
      <trkpt lat="45.31540992669761180877685546875" lon="-71.01711018942296504974365234375">
        <ele>732.4000244140625</ele>
        <time>2026-08-21T21:15:52.000Z</time>
        <extensions>
          <ns3:TrackPointExtension>
            <ns3:hr>126</ns3:hr>
            <ns3:cad>60</ns3:cad>
          </ns3:TrackPointExtension>
        </extensions>
      </trkpt>
      <trkpt lat="45.3154108487069606781005859375" lon="-71.01713441312313079833984375">
        <ele>732.20001220703125</ele>
        <time>2026-08-21T21:15:53.000Z</time>
        <extensions>
          <ns3:TrackPointExtension>
            <ns3:hr>125</ns3:hr>
            <ns3:cad>69</ns3:cad>
          </ns3:TrackPointExtension>
        </extensions>
      </trkpt>
      <trkpt lat="45.3154128603637218475341796875" lon="-71.01716165430843830108642578125">
        <ele>732.20001220703125</ele>
        <time>2026-08-21T21:15:54.000Z</time>
        <extensions>
          <ns3:TrackPointExtension>
            <ns3:hr>124</ns3:hr>
            <ns3:cad>69</ns3:cad>
          </ns3:TrackPointExtension>
        </extensions>
      </trkpt>
      <trkpt lat="45.31541235744953155517578125" lon="-71.01717942394316196441650390625">
        <ele>732</ele>
        <time>2026-08-21T21:15:55.000Z</time>
        <extensions>
          <ns3:TrackPointExtension>
            <ns3:hr>123</ns3:hr>
            <ns3:cad>66</ns3:cad>
          </ns3:TrackPointExtension>
        </extensions>
      </trkpt>
      <trkpt lat="45.3154138661921024322509765625" lon="-71.01719769649207592010498046875">
        <ele>732</ele>
        <time>2026-08-21T21:15:56.000Z</time>
        <extensions>
          <ns3:TrackPointExtension>
            <ns3:hr>123</ns3:hr>
            <ns3:cad>66</ns3:cad>
          </ns3:TrackPointExtension>
        </extensions>
      </trkpt>
      <trkpt lat="45.3154165484011173248291015625" lon="-71.017217896878719329833984375">
        <ele>732</ele>
        <time>2026-08-21T21:15:57.000Z</time>
        <extensions>
          <ns3:TrackPointExtension>
            <ns3:hr>123</ns3:hr>
            <ns3:cad>64</ns3:cad>
          </ns3:TrackPointExtension>
        </extensions>
      </trkpt>
      <trkpt lat="45.315417386591434478759765625" lon="-71.0172385163605213165283203125">
        <ele>732</ele>
        <time>2026-08-21T21:15:58.000Z</time>
        <extensions>
          <ns3:TrackPointExtension>
            <ns3:hr>124</ns3:hr>
            <ns3:cad>64</ns3:cad>
          </ns3:TrackPointExtension>
        </extensions>
      </trkpt>
      <trkpt lat="45.3154157102108001708984375" lon="-71.01725913584232330322265625">
        <ele>732</ele>
        <time>2026-08-21T21:15:59.000Z</time>
        <extensions>
          <ns3:TrackPointExtension>
            <ns3:hr>123</ns3:hr>
            <ns3:cad>64</ns3:cad>
          </ns3:TrackPointExtension>
        </extensions>
      </trkpt>
      <trkpt lat="45.3154158778488636016845703125" lon="-71.01728218607604503631591796875">
        <ele>731.79998779296875</ele>
        <time>2026-08-21T21:16:00.000Z</time>
        <extensions>
          <ns3:TrackPointExtension>
            <ns3:hr>123</ns3:hr>
            <ns3:cad>65</ns3:cad>
          </ns3:TrackPointExtension>
        </extensions>
      </trkpt>
      <trkpt lat="45.31541478820145130157470703125" lon="-71.0172973573207855224609375">
        <ele>731.5999755859375</ele>
        <time>2026-08-21T21:16:01.000Z</time>
        <extensions>
          <ns3:TrackPointExtension>
            <ns3:hr>123</ns3:hr>
            <ns3:cad>65</ns3:cad>
          </ns3:TrackPointExtension>
        </extensions>
      </trkpt>
      <trkpt lat="45.31541562639176845550537109375" lon="-71.0173176415264606475830078125">
        <ele>731.4000244140625</ele>
        <time>2026-08-21T21:16:02.000Z</time>
        <extensions>
          <ns3:TrackPointExtension>
            <ns3:hr>122</ns3:hr>
            <ns3:cad>54</ns3:cad>
          </ns3:TrackPointExtension>
        </extensions>
      </trkpt>
      <trkpt lat="45.31541579402983188629150390625" lon="-71.0173340700566768646240234375">
        <ele>731.20001220703125</ele>
        <time>2026-08-21T21:16:03.000Z</time>
        <extensions>
          <ns3:TrackPointExtension>
            <ns3:hr>122</ns3:hr>
            <ns3:cad>54</ns3:cad>
          </ns3:TrackPointExtension>
        </extensions>
      </trkpt>
      <trkpt lat="45.31541177071630954742431640625" lon="-71.01734706200659275054931640625">
        <ele>731</ele>
        <time>2026-08-21T21:16:04.000Z</time>
        <extensions>
          <ns3:TrackPointExtension>
            <ns3:hr>121</ns3:hr>
            <ns3:cad>54</ns3:cad>
          </ns3:TrackPointExtension>
        </extensions>
      </trkpt>
      <trkpt lat="45.31540405936539173126220703125" lon="-71.01737103424966335296630859375">
        <ele>730.79998779296875</ele>
        <time>2026-08-21T21:16:05.000Z</time>
        <extensions>
          <ns3:TrackPointExtension>
            <ns3:hr>120</ns3:hr>
            <ns3:cad>0</ns3:cad>
          </ns3:TrackPointExtension>
        </extensions>
      </trkpt>
      <trkpt lat="45.31539760529994964599609375" lon="-71.0173857025802135467529296875">
        <ele>730.5999755859375</ele>
        <time>2026-08-21T21:16:06.000Z</time>
        <extensions>
          <ns3:TrackPointExtension>
            <ns3:hr>120</ns3:hr>
            <ns3:cad>0</ns3:cad>
          </ns3:TrackPointExtension>
        </extensions>
      </trkpt>
      <trkpt lat="45.31539048068225383758544921875" lon="-71.01741026155650615692138671875">
        <ele>730.4000244140625</ele>
        <time>2026-08-21T21:16:07.000Z</time>
        <extensions>
          <ns3:TrackPointExtension>
            <ns3:hr>119</ns3:hr>
            <ns3:cad>0</ns3:cad>
          </ns3:TrackPointExtension>
        </extensions>
      </trkpt>
      <trkpt lat="45.31538628973066806793212890625" lon="-71.01742719300091266632080078125">
        <ele>730.20001220703125</ele>
        <time>2026-08-21T21:16:08.000Z</time>
        <extensions>
          <ns3:TrackPointExtension>
            <ns3:hr>119</ns3:hr>
            <ns3:cad>0</ns3:cad>
          </ns3:TrackPointExtension>
        </extensions>
      </trkpt>
      <trkpt lat="45.315385870635509490966796875" lon="-71.0174346528947353363037109375">
        <ele>729.79998779296875</ele>
        <time>2026-08-21T21:16:09.000Z</time>
        <extensions>
          <ns3:TrackPointExtension>
            <ns3:hr>118</ns3:hr>
            <ns3:cad>0</ns3:cad>
          </ns3:TrackPointExtension>
        </extensions>
      </trkpt>
      <trkpt lat="45.31537841074168682098388671875" lon="-71.0174551047384738922119140625">
        <ele>729.5999755859375</ele>
        <time>2026-08-21T21:16:10.000Z</time>
        <extensions>
          <ns3:TrackPointExtension>
            <ns3:hr>118</ns3:hr>
            <ns3:cad>0</ns3:cad>
          </ns3:TrackPointExtension>
        </extensions>
      </trkpt>
      <trkpt lat="45.31537237577140331268310546875" lon="-71.0174743831157684326171875">
        <ele>729.4000244140625</ele>
        <time>2026-08-21T21:16:11.000Z</time>
        <extensions>
          <ns3:TrackPointExtension>
            <ns3:hr>118</ns3:hr>
            <ns3:cad>0</ns3:cad>
          </ns3:TrackPointExtension>
        </extensions>
      </trkpt>
      <trkpt lat="45.31536751426756381988525390625" lon="-71.01750162430107593536376953125">
        <ele>729</ele>
        <time>2026-08-21T21:16:12.000Z</time>
        <extensions>
          <ns3:TrackPointExtension>
            <ns3:hr>118</ns3:hr>
            <ns3:cad>0</ns3:cad>
          </ns3:TrackPointExtension>
        </extensions>
      </trkpt>
      <trkpt lat="45.31536332331597805023193359375" lon="-71.01752224378287792205810546875">
        <ele>728.79998779296875</ele>
        <time>2026-08-21T21:16:13.000Z</time>
        <extensions>
          <ns3:TrackPointExtension>
            <ns3:hr>118</ns3:hr>
            <ns3:cad>0</ns3:cad>
          </ns3:TrackPointExtension>
        </extensions>
      </trkpt>
      <trkpt lat="45.31535879708826541900634765625" lon="-71.0175352357327938079833984375">
        <ele>728.5999755859375</ele>
        <time>2026-08-21T21:16:14.000Z</time>
        <extensions>
          <ns3:TrackPointExtension>
            <ns3:hr>117</ns3:hr>
            <ns3:cad>0</ns3:cad>
          </ns3:TrackPointExtension>
        </extensions>
      </trkpt>
      <trkpt lat="45.31535225920379161834716796875" lon="-71.017556525766849517822265625">
        <ele>728.5999755859375</ele>
        <time>2026-08-21T21:16:15.000Z</time>
        <extensions>
          <ns3:TrackPointExtension>
            <ns3:hr>118</ns3:hr>
            <ns3:cad>0</ns3:cad>
          </ns3:TrackPointExtension>
        </extensions>
      </trkpt>
      <trkpt lat="45.31534655950963497161865234375" lon="-71.017577312886714935302734375">
        <ele>728.4000244140625</ele>
        <time>2026-08-21T21:16:16.000Z</time>
        <extensions>
          <ns3:TrackPointExtension>
            <ns3:hr>118</ns3:hr>
            <ns3:cad>0</ns3:cad>
          </ns3:TrackPointExtension>
        </extensions>
      </trkpt>
      <trkpt lat="45.3153451345860958099365234375" lon="-71.01760002784430980682373046875">
        <ele>728.4000244140625</ele>
        <time>2026-08-21T21:16:17.000Z</time>
        <extensions>
          <ns3:TrackPointExtension>
            <ns3:hr>118</ns3:hr>
            <ns3:cad>0</ns3:cad>
          </ns3:TrackPointExtension>
        </extensions>
      </trkpt>
      <trkpt lat="45.31534303911030292510986328125" lon="-71.01762257516384124755859375">
        <ele>728.4000244140625</ele>
        <time>2026-08-21T21:16:18.000Z</time>
        <extensions>
          <ns3:TrackPointExtension>
            <ns3:hr>117</ns3:hr>
            <ns3:cad>0</ns3:cad>
          </ns3:TrackPointExtension>
        </extensions>
      </trkpt>
      <trkpt lat="45.31533951871097087860107421875" lon="-71.01764545775949954986572265625">
        <ele>728.20001220703125</ele>
        <time>2026-08-21T21:16:19.000Z</time>
        <extensions>
          <ns3:TrackPointExtension>
            <ns3:hr>118</ns3:hr>
            <ns3:cad>0</ns3:cad>
          </ns3:TrackPointExtension>
        </extensions>
      </trkpt>
      <trkpt lat="45.31533616594970226287841796875" lon="-71.0176686756312847137451171875">
        <ele>728.20001220703125</ele>
        <time>2026-08-21T21:16:20.000Z</time>
        <extensions>
          <ns3:TrackPointExtension>
            <ns3:hr>118</ns3:hr>
            <ns3:cad>0</ns3:cad>
          </ns3:TrackPointExtension>
        </extensions>
      </trkpt>
      <trkpt lat="45.3153352439403533935546875" lon="-71.01768904365599155426025390625">
        <ele>728</ele>
        <time>2026-08-21T21:16:21.000Z</time>
        <extensions>
          <ns3:TrackPointExtension>
            <ns3:hr>118</ns3:hr>
            <ns3:cad>0</ns3:cad>
          </ns3:TrackPointExtension>
        </extensions>
      </trkpt>
      <trkpt lat="45.31533650122582912445068359375" lon="-71.01770781911909580230712890625">
        <ele>728</ele>
        <time>2026-08-21T21:16:22.000Z</time>
        <extensions>
          <ns3:TrackPointExtension>
            <ns3:hr>118</ns3:hr>
            <ns3:cad>70</ns3:cad>
          </ns3:TrackPointExtension>
        </extensions>
      </trkpt>
      <trkpt lat="45.3153344057500362396240234375" lon="-71.0177313722670078277587890625">
        <ele>728</ele>
        <time>2026-08-21T21:16:23.000Z</time>
        <extensions>
          <ns3:TrackPointExtension>
            <ns3:hr>118</ns3:hr>
            <ns3:cad>70</ns3:cad>
          </ns3:TrackPointExtension>
        </extensions>
      </trkpt>
      <trkpt lat="45.3153313882648944854736328125" lon="-71.01775090210139751434326171875">
        <ele>727.79998779296875</ele>
        <time>2026-08-21T21:16:24.000Z</time>
        <extensions>
          <ns3:TrackPointExtension>
            <ns3:hr>118</ns3:hr>
            <ns3:cad>0</ns3:cad>
          </ns3:TrackPointExtension>
        </extensions>
      </trkpt>
      <trkpt lat="45.31533013097941875457763671875" lon="-71.017769090831279754638671875">
        <ele>727.79998779296875</ele>
        <time>2026-08-21T21:16:25.000Z</time>
        <extensions>
          <ns3:TrackPointExtension>
            <ns3:hr>118</ns3:hr>
            <ns3:cad>0</ns3:cad>
          </ns3:TrackPointExtension>
        </extensions>
      </trkpt>
      <trkpt lat="45.3153290413320064544677734375" lon="-71.01779398508369922637939453125">
        <ele>727.79998779296875</ele>
        <time>2026-08-21T21:16:26.000Z</time>
        <extensions>
          <ns3:TrackPointExtension>
            <ns3:hr>118</ns3:hr>
            <ns3:cad>0</ns3:cad>
          </ns3:TrackPointExtension>
        </extensions>
      </trkpt>
      <trkpt lat="45.3153293766081333160400390625" lon="-71.017813347280025482177734375">
        <ele>727.5999755859375</ele>
        <time>2026-08-21T21:16:27.000Z</time>
        <extensions>
          <ns3:TrackPointExtension>
            <ns3:hr>117</ns3:hr>
            <ns3:cad>0</ns3:cad>
          </ns3:TrackPointExtension>
        </extensions>
      </trkpt>
      <trkpt lat="45.31532694585621356964111328125" lon="-71.017834804952144622802734375">
        <ele>727.5999755859375</ele>
        <time>2026-08-21T21:16:28.000Z</time>
        <extensions>
          <ns3:TrackPointExtension>
            <ns3:hr>118</ns3:hr>
            <ns3:cad>0</ns3:cad>
          </ns3:TrackPointExtension>
        </extensions>
      </trkpt>
      <trkpt lat="45.3153240121901035308837890625" lon="-71.01786171086132526397705078125">
        <ele>727.5999755859375</ele>
        <time>2026-08-21T21:16:29.000Z</time>
        <extensions>
          <ns3:TrackPointExtension>
            <ns3:hr>118</ns3:hr>
            <ns3:cad>0</ns3:cad>
          </ns3:TrackPointExtension>
        </extensions>
      </trkpt>
      <trkpt lat="45.31532560475170612335205078125" lon="-71.01787981577217578887939453125">
        <ele>727.5999755859375</ele>
        <time>2026-08-21T21:16:30.000Z</time>
        <extensions>
          <ns3:TrackPointExtension>
            <ns3:hr>117</ns3:hr>
            <ns3:cad>0</ns3:cad>
          </ns3:TrackPointExtension>
        </extensions>
      </trkpt>
      <trkpt lat="45.315320827066898345947265625" lon="-71.01789557375013828277587890625">
        <ele>727.4000244140625</ele>
        <time>2026-08-21T21:16:31.000Z</time>
        <extensions>
          <ns3:TrackPointExtension>
            <ns3:hr>116</ns3:hr>
            <ns3:cad>57</ns3:cad>
          </ns3:TrackPointExtension>
        </extensions>
      </trkpt>
      <trkpt lat="45.315316803753376007080078125" lon="-71.01792273111641407012939453125">
        <ele>727.4000244140625</ele>
        <time>2026-08-21T21:16:32.000Z</time>
        <extensions>
          <ns3:TrackPointExtension>
            <ns3:hr>115</ns3:hr>
            <ns3:cad>57</ns3:cad>
          </ns3:TrackPointExtension>
        </extensions>
      </trkpt>
      <trkpt lat="45.315314792096614837646484375" lon="-71.0179459489881992340087890625">
        <ele>727.4000244140625</ele>
        <time>2026-08-21T21:16:33.000Z</time>
        <extensions>
          <ns3:TrackPointExtension>
            <ns3:hr>114</ns3:hr>
            <ns3:cad>57</ns3:cad>
          </ns3:TrackPointExtension>
        </extensions>
      </trkpt>
      <trkpt lat="45.315312780439853668212890625" lon="-71.0179674066603183746337890625">
        <ele>727.4000244140625</ele>
        <time>2026-08-21T21:16:34.000Z</time>
        <extensions>
          <ns3:TrackPointExtension>
            <ns3:hr>114</ns3:hr>
            <ns3:cad>57</ns3:cad>
          </ns3:TrackPointExtension>
        </extensions>
      </trkpt>
      <trkpt lat="45.31531051732599735260009765625" lon="-71.017986349761486053466796875">
        <ele>727.4000244140625</ele>
        <time>2026-08-21T21:16:35.000Z</time>
        <extensions>
          <ns3:TrackPointExtension>
            <ns3:hr>114</ns3:hr>
            <ns3:cad>57</ns3:cad>
          </ns3:TrackPointExtension>
        </extensions>
      </trkpt>
      <trkpt lat="45.31531219370663166046142578125" lon="-71.01800336502492427825927734375">
        <ele>727.4000244140625</ele>
        <time>2026-08-21T21:16:36.000Z</time>
        <extensions>
          <ns3:TrackPointExtension>
            <ns3:hr>113</ns3:hr>
            <ns3:cad>57</ns3:cad>
          </ns3:TrackPointExtension>
        </extensions>
      </trkpt>
      <trkpt lat="45.3153089247643947601318359375" lon="-71.018022559583187103271484375">
        <ele>727.4000244140625</ele>
        <time>2026-08-21T21:16:37.000Z</time>
        <extensions>
          <ns3:TrackPointExtension>
            <ns3:hr>114</ns3:hr>
            <ns3:cad>57</ns3:cad>
          </ns3:TrackPointExtension>
        </extensions>
      </trkpt>
      <trkpt lat="45.31530749984085559844970703125" lon="-71.01804158650338649749755859375">
        <ele>727.20001220703125</ele>
        <time>2026-08-21T21:16:38.000Z</time>
        <extensions>
          <ns3:TrackPointExtension>
            <ns3:hr>114</ns3:hr>
            <ns3:cad>57</ns3:cad>
          </ns3:TrackPointExtension>
        </extensions>
      </trkpt>
      <trkpt lat="45.31530532054603099822998046875" lon="-71.0180659778416156768798828125">
        <ele>727.20001220703125</ele>
        <time>2026-08-21T21:16:39.000Z</time>
        <extensions>
          <ns3:TrackPointExtension>
            <ns3:hr>113</ns3:hr>
            <ns3:cad>57</ns3:cad>
          </ns3:TrackPointExtension>
        </extensions>
      </trkpt>
      <trkpt lat="45.31530632637441158294677734375" lon="-71.01808215491473674774169921875">
        <ele>727.20001220703125</ele>
        <time>2026-08-21T21:16:40.000Z</time>
        <extensions>
          <ns3:TrackPointExtension>
            <ns3:hr>113</ns3:hr>
            <ns3:cad>57</ns3:cad>
          </ns3:TrackPointExtension>
        </extensions>
      </trkpt>
      <trkpt lat="45.3153055720031261444091796875" lon="-71.0181033611297607421875">
        <ele>727.20001220703125</ele>
        <time>2026-08-21T21:16:41.000Z</time>
        <extensions>
          <ns3:TrackPointExtension>
            <ns3:hr>113</ns3:hr>
            <ns3:cad>57</ns3:cad>
          </ns3:TrackPointExtension>
        </extensions>
      </trkpt>
      <trkpt lat="45.3153049014508724212646484375" lon="-71.01812289096415042877197265625">
        <ele>727.20001220703125</ele>
        <time>2026-08-21T21:16:42.000Z</time>
        <extensions>
          <ns3:TrackPointExtension>
            <ns3:hr>113</ns3:hr>
            <ns3:cad>57</ns3:cad>
          </ns3:TrackPointExtension>
        </extensions>
      </trkpt>
      <trkpt lat="45.315307416021823883056640625" lon="-71.01814887486398220062255859375">
        <ele>727.4000244140625</ele>
        <time>2026-08-21T21:16:43.000Z</time>
        <extensions>
          <ns3:TrackPointExtension>
            <ns3:hr>113</ns3:hr>
            <ns3:cad>57</ns3:cad>
          </ns3:TrackPointExtension>
        </extensions>
      </trkpt>
      <trkpt lat="45.315304733812808990478515625" lon="-71.01817217655479907989501953125">
        <ele>727.4000244140625</ele>
        <time>2026-08-21T21:16:44.000Z</time>
        <extensions>
          <ns3:TrackPointExtension>
            <ns3:hr>114</ns3:hr>
            <ns3:cad>57</ns3:cad>
          </ns3:TrackPointExtension>
        </extensions>
      </trkpt>
      <trkpt lat="45.31530397944152355194091796875" lon="-71.01819078437983989715576171875">
        <ele>727.20001220703125</ele>
        <time>2026-08-21T21:16:45.000Z</time>
        <extensions>
          <ns3:TrackPointExtension>
            <ns3:hr>114</ns3:hr>
            <ns3:cad>57</ns3:cad>
          </ns3:TrackPointExtension>
        </extensions>
      </trkpt>
      <trkpt lat="45.3153099305927753448486328125" lon="-71.01821777410805225372314453125">
        <ele>727.20001220703125</ele>
        <time>2026-08-21T21:16:46.000Z</time>
        <extensions>
          <ns3:TrackPointExtension>
            <ns3:hr>114</ns3:hr>
            <ns3:cad>57</ns3:cad>
          </ns3:TrackPointExtension>
        </extensions>
      </trkpt>
      <trkpt lat="45.31530431471765041351318359375" lon="-71.01823420263826847076416015625">
        <ele>727.20001220703125</ele>
        <time>2026-08-21T21:16:47.000Z</time>
        <extensions>
          <ns3:TrackPointExtension>
            <ns3:hr>115</ns3:hr>
            <ns3:cad>57</ns3:cad>
          </ns3:TrackPointExtension>
        </extensions>
      </trkpt>
      <trkpt lat="45.315302051603794097900390625" lon="-71.01825448684394359588623046875">
        <ele>727</ele>
        <time>2026-08-21T21:16:48.000Z</time>
        <extensions>
          <ns3:TrackPointExtension>
            <ns3:hr>115</ns3:hr>
            <ns3:cad>62</ns3:cad>
          </ns3:TrackPointExtension>
        </extensions>
      </trkpt>
      <trkpt lat="45.31530104577541351318359375" lon="-71.01827426813542842864990234375">
        <ele>726.79998779296875</ele>
        <time>2026-08-21T21:16:49.000Z</time>
        <extensions>
          <ns3:TrackPointExtension>
            <ns3:hr>115</ns3:hr>
            <ns3:cad>62</ns3:cad>
          </ns3:TrackPointExtension>
        </extensions>
      </trkpt>
      <trkpt lat="45.31530104577541351318359375" lon="-71.01829388178884983062744140625">
        <ele>726.5999755859375</ele>
        <time>2026-08-21T21:16:50.000Z</time>
        <extensions>
          <ns3:TrackPointExtension>
            <ns3:hr>115</ns3:hr>
            <ns3:cad>62</ns3:cad>
          </ns3:TrackPointExtension>
        </extensions>
      </trkpt>
      <trkpt lat="45.31530909240245819091796875" lon="-71.0183080472052097320556640625">
        <ele>726.20001220703125</ele>
        <time>2026-08-21T21:16:51.000Z</time>
        <extensions>
          <ns3:TrackPointExtension>
            <ns3:hr>116</ns3:hr>
            <ns3:cad>64</ns3:cad>
          </ns3:TrackPointExtension>
        </extensions>
      </trkpt>
      <trkpt lat="45.3153109364211559295654296875" lon="-71.0183227993547916412353515625">
        <ele>725.79998779296875</ele>
        <time>2026-08-21T21:16:52.000Z</time>
        <extensions>
          <ns3:TrackPointExtension>
            <ns3:hr>115</ns3:hr>
            <ns3:cad>64</ns3:cad>
          </ns3:TrackPointExtension>
        </extensions>
      </trkpt>
      <trkpt lat="45.31531018204987049102783203125" lon="-71.018341742455959320068359375">
        <ele>725.5999755859375</ele>
        <time>2026-08-21T21:16:53.000Z</time>
        <extensions>
          <ns3:TrackPointExtension>
            <ns3:hr>115</ns3:hr>
            <ns3:cad>0</ns3:cad>
          </ns3:TrackPointExtension>
        </extensions>
      </trkpt>
      <trkpt lat="45.31531588174402713775634765625" lon="-71.0183650441467761993408203125">
        <ele>725.4000244140625</ele>
        <time>2026-08-21T21:16:54.000Z</time>
        <extensions>
          <ns3:TrackPointExtension>
            <ns3:hr>115</ns3:hr>
            <ns3:cad>0</ns3:cad>
          </ns3:TrackPointExtension>
        </extensions>
      </trkpt>
      <trkpt lat="45.31532074324786663055419921875" lon="-71.018375940620899200439453125">
        <ele>725</ele>
        <time>2026-08-21T21:16:55.000Z</time>
        <extensions>
          <ns3:TrackPointExtension>
            <ns3:hr>116</ns3:hr>
            <ns3:cad>0</ns3:cad>
          </ns3:TrackPointExtension>
        </extensions>
      </trkpt>
      <trkpt lat="45.3153240121901035308837890625" lon="-71.01838658563792705535888671875">
        <ele>724.79998779296875</ele>
        <time>2026-08-21T21:16:56.000Z</time>
        <extensions>
          <ns3:TrackPointExtension>
            <ns3:hr>117</ns3:hr>
            <ns3:cad>0</ns3:cad>
          </ns3:TrackPointExtension>
        </extensions>
      </trkpt>
      <trkpt lat="45.31532560475170612335205078125" lon="-71.018398068845272064208984375">
        <ele>724.5999755859375</ele>
        <time>2026-08-21T21:16:57.000Z</time>
        <extensions>
          <ns3:TrackPointExtension>
            <ns3:hr>118</ns3:hr>
            <ns3:cad>0</ns3:cad>
          </ns3:TrackPointExtension>
        </extensions>
      </trkpt>
      <trkpt lat="45.31532744877040386199951171875" lon="-71.0184166766703128814697265625">
        <ele>724.4000244140625</ele>
        <time>2026-08-21T21:16:58.000Z</time>
        <extensions>
          <ns3:TrackPointExtension>
            <ns3:hr>119</ns3:hr>
            <ns3:cad>76</ns3:cad>
          </ns3:TrackPointExtension>
        </extensions>
      </trkpt>
      <trkpt lat="45.3153312206268310546875" lon="-71.01843570359051227569580078125">
        <ele>724</ele>
        <time>2026-08-21T21:16:59.000Z</time>
        <extensions>
          <ns3:TrackPointExtension>
            <ns3:hr>119</ns3:hr>
            <ns3:cad>76</ns3:cad>
          </ns3:TrackPointExtension>
        </extensions>
      </trkpt>
      <trkpt lat="45.3153367526829242706298828125" lon="-71.01845146156847476959228515625">
        <ele>723.79998779296875</ele>
        <time>2026-08-21T21:17:00.000Z</time>
        <extensions>
          <ns3:TrackPointExtension>
            <ns3:hr>119</ns3:hr>
            <ns3:cad>73</ns3:cad>
          </ns3:TrackPointExtension>
        </extensions>
      </trkpt>
      <trkpt lat="45.31533599831163883209228515625" lon="-71.0184636153280735015869140625">
        <ele>723.4000244140625</ele>
        <time>2026-08-21T21:17:01.000Z</time>
        <extensions>
          <ns3:TrackPointExtension>
            <ns3:hr>120</ns3:hr>
            <ns3:cad>68</ns3:cad>
          </ns3:TrackPointExtension>
        </extensions>
      </trkpt>
      <trkpt lat="45.315338931977748870849609375" lon="-71.018476523458957672119140625">
        <ele>723</ele>
        <time>2026-08-21T21:17:02.000Z</time>
        <extensions>
          <ns3:TrackPointExtension>
            <ns3:hr>120</ns3:hr>
            <ns3:cad>68</ns3:cad>
          </ns3:TrackPointExtension>
        </extensions>
      </trkpt>
      <trkpt lat="45.315337590873241424560546875" lon="-71.01848624646663665771484375">
        <ele>722.5999755859375</ele>
        <time>2026-08-21T21:17:03.000Z</time>
        <extensions>
          <ns3:TrackPointExtension>
            <ns3:hr>120</ns3:hr>
            <ns3:cad>68</ns3:cad>
          </ns3:TrackPointExtension>
        </extensions>
      </trkpt>
      <trkpt lat="45.3153397701680660247802734375" lon="-71.0184964723885059356689453125">
        <ele>722.20001220703125</ele>
        <time>2026-08-21T21:17:04.000Z</time>
        <extensions>
          <ns3:TrackPointExtension>
            <ns3:hr>119</ns3:hr>
            <ns3:cad>68</ns3:cad>
          </ns3:TrackPointExtension>
        </extensions>
      </trkpt>
      <trkpt lat="45.3153380937874317169189453125" lon="-71.018505357205867767333984375">
        <ele>721.79998779296875</ele>
        <time>2026-08-21T21:17:05.000Z</time>
        <extensions>
          <ns3:TrackPointExtension>
            <ns3:hr>119</ns3:hr>
            <ns3:cad>0</ns3:cad>
          </ns3:TrackPointExtension>
        </extensions>
      </trkpt>
      <trkpt lat="45.31533650122582912445068359375" lon="-71.01851700805127620697021484375">
        <ele>721.4000244140625</ele>
        <time>2026-08-21T21:17:06.000Z</time>
        <extensions>
          <ns3:TrackPointExtension>
            <ns3:hr>118</ns3:hr>
            <ns3:cad>0</ns3:cad>
          </ns3:TrackPointExtension>
        </extensions>
      </trkpt>
      <trkpt lat="45.315336920320987701416015625" lon="-71.018534861505031585693359375">
        <ele>721</ele>
        <time>2026-08-21T21:17:07.000Z</time>
        <extensions>
          <ns3:TrackPointExtension>
            <ns3:hr>117</ns3:hr>
            <ns3:cad>0</ns3:cad>
          </ns3:TrackPointExtension>
        </extensions>
      </trkpt>
      <trkpt lat="45.3153397701680660247802734375" lon="-71.0185554809868335723876953125">
        <ele>720.5999755859375</ele>
        <time>2026-08-21T21:17:08.000Z</time>
        <extensions>
          <ns3:TrackPointExtension>
            <ns3:hr>117</ns3:hr>
            <ns3:cad>0</ns3:cad>
          </ns3:TrackPointExtension>
        </extensions>
      </trkpt>
      <trkpt lat="45.31534018926322460174560546875" lon="-71.01857182569801807403564453125">
        <ele>720</ele>
        <time>2026-08-21T21:17:09.000Z</time>
        <extensions>
          <ns3:TrackPointExtension>
            <ns3:hr>118</ns3:hr>
            <ns3:cad>0</ns3:cad>
          </ns3:TrackPointExtension>
        </extensions>
      </trkpt>
      <trkpt lat="45.3153407759964466094970703125" lon="-71.0185963846743106842041015625">
        <ele>719.5999755859375</ele>
        <time>2026-08-21T21:17:10.000Z</time>
        <extensions>
          <ns3:TrackPointExtension>
            <ns3:hr>118</ns3:hr>
            <ns3:cad>0</ns3:cad>
          </ns3:TrackPointExtension>
        </extensions>
      </trkpt>
      <trkpt lat="45.31534471549093723297119140625" lon="-71.01862614043056964874267578125">
        <ele>719.20001220703125</ele>
        <time>2026-08-21T21:17:11.000Z</time>
        <extensions>
          <ns3:TrackPointExtension>
            <ns3:hr>118</ns3:hr>
            <ns3:cad>70</ns3:cad>
          </ns3:TrackPointExtension>
        </extensions>
      </trkpt>
      <trkpt lat="45.3153513371944427490234375" lon="-71.01865665055811405181884765625">
        <ele>719</ele>
        <time>2026-08-21T21:17:12.000Z</time>
        <extensions>
          <ns3:TrackPointExtension>
            <ns3:hr>118</ns3:hr>
            <ns3:cad>70</ns3:cad>
          </ns3:TrackPointExtension>
        </extensions>
      </trkpt>
      <trkpt lat="45.3153555281460285186767578125" lon="-71.01867844350636005401611328125">
        <ele>719</ele>
        <time>2026-08-21T21:17:13.000Z</time>
        <extensions>
          <ns3:TrackPointExtension>
            <ns3:hr>118</ns3:hr>
            <ns3:cad>70</ns3:cad>
          </ns3:TrackPointExtension>
        </extensions>
      </trkpt>
      <trkpt lat="45.31536315567791461944580078125" lon="-71.01869889535009860992431640625">
        <ele>719</ele>
        <time>2026-08-21T21:17:14.000Z</time>
        <extensions>
          <ns3:TrackPointExtension>
            <ns3:hr>117</ns3:hr>
            <ns3:cad>70</ns3:cad>
          </ns3:TrackPointExtension>
        </extensions>
      </trkpt>
      <trkpt lat="45.31536952592432498931884765625" lon="-71.01872093975543975830078125">
        <ele>719</ele>
        <time>2026-08-21T21:17:15.000Z</time>
        <extensions>
          <ns3:TrackPointExtension>
            <ns3:hr>118</ns3:hr>
            <ns3:cad>69</ns3:cad>
          </ns3:TrackPointExtension>
        </extensions>
      </trkpt>
      <trkpt lat="45.31536986120045185089111328125" lon="-71.01874239742755889892578125">
        <ele>719.20001220703125</ele>
        <time>2026-08-21T21:17:16.000Z</time>
        <extensions>
          <ns3:TrackPointExtension>
            <ns3:hr>118</ns3:hr>
            <ns3:cad>69</ns3:cad>
          </ns3:TrackPointExtension>
        </extensions>
      </trkpt>
      <trkpt lat="45.31537388451397418975830078125" lon="-71.0187645256519317626953125">
        <ele>719.20001220703125</ele>
        <time>2026-08-21T21:17:17.000Z</time>
        <extensions>
          <ns3:TrackPointExtension>
            <ns3:hr>117</ns3:hr>
            <ns3:cad>69</ns3:cad>
          </ns3:TrackPointExtension>
        </extensions>
      </trkpt>
      <trkpt lat="45.3153759799897670745849609375" lon="-71.018784306943416595458984375">
        <ele>719.4000244140625</ele>
        <time>2026-08-21T21:17:18.000Z</time>
        <extensions>
          <ns3:TrackPointExtension>
            <ns3:hr>117</ns3:hr>
            <ns3:cad>0</ns3:cad>
          </ns3:TrackPointExtension>
        </extensions>
      </trkpt>
      <trkpt lat="45.3153776563704013824462890625" lon="-71.01879947818815708160400390625">
        <ele>719.4000244140625</ele>
        <time>2026-08-21T21:17:19.000Z</time>
        <extensions>
          <ns3:TrackPointExtension>
            <ns3:hr>118</ns3:hr>
            <ns3:cad>0</ns3:cad>
          </ns3:TrackPointExtension>
        </extensions>
      </trkpt>
      <trkpt lat="45.31537690199911594390869140625" lon="-71.018817164003849029541015625">
        <ele>719.5999755859375</ele>
        <time>2026-08-21T21:17:20.000Z</time>
        <extensions>
          <ns3:TrackPointExtension>
            <ns3:hr>119</ns3:hr>
            <ns3:cad>0</ns3:cad>
          </ns3:TrackPointExtension>
        </extensions>
      </trkpt>
      <trkpt lat="45.31537405215203762054443359375" lon="-71.01883820258080959320068359375">
        <ele>719.5999755859375</ele>
        <time>2026-08-21T21:17:21.000Z</time>
        <extensions>
          <ns3:TrackPointExtension>
            <ns3:hr>119</ns3:hr>
            <ns3:cad>0</ns3:cad>
          </ns3:TrackPointExtension>
        </extensions>
      </trkpt>
      <trkpt lat="45.315370447933673858642578125" lon="-71.01884557865560054779052734375">
        <ele>719.79998779296875</ele>
        <time>2026-08-21T21:17:22.000Z</time>
        <extensions>
          <ns3:TrackPointExtension>
            <ns3:hr>119</ns3:hr>
            <ns3:cad>0</ns3:cad>
          </ns3:TrackPointExtension>
        </extensions>
      </trkpt>
      <trkpt lat="45.31536315567791461944580078125" lon="-71.018866784870624542236328125">
        <ele>720</ele>
        <time>2026-08-21T21:17:23.000Z</time>
        <extensions>
          <ns3:TrackPointExtension>
            <ns3:hr>119</ns3:hr>
            <ns3:cad>0</ns3:cad>
          </ns3:TrackPointExtension>
        </extensions>
      </trkpt>
      <trkpt lat="45.3153593838214874267578125" lon="-71.01887055672705173492431640625">
        <ele>720.20001220703125</ele>
        <time>2026-08-21T21:17:24.000Z</time>
        <extensions>
          <ns3:TrackPointExtension>
            <ns3:hr>119</ns3:hr>
            <ns3:cad>0</ns3:cad>
          </ns3:TrackPointExtension>
        </extensions>
      </trkpt>
      <trkpt lat="45.31535192392766475677490234375" lon="-71.0188905894756317138671875">
        <ele>720.4000244140625</ele>
        <time>2026-08-21T21:17:25.000Z</time>
        <extensions>
          <ns3:TrackPointExtension>
            <ns3:hr>119</ns3:hr>
            <ns3:cad>0</ns3:cad>
          </ns3:TrackPointExtension>
        </extensions>
      </trkpt>
      <trkpt lat="45.31534731388092041015625" lon="-71.01890794001519680023193359375">
        <ele>720.5999755859375</ele>
        <time>2026-08-21T21:17:26.000Z</time>
        <extensions>
          <ns3:TrackPointExtension>
            <ns3:hr>119</ns3:hr>
            <ns3:cad>0</ns3:cad>
          </ns3:TrackPointExtension>
        </extensions>
      </trkpt>
      <trkpt lat="45.31534588895738124847412109375" lon="-71.01891850121319293975830078125">
        <ele>721</ele>
        <time>2026-08-21T21:17:27.000Z</time>
        <extensions>
          <ns3:TrackPointExtension>
            <ns3:hr>119</ns3:hr>
            <ns3:cad>51</ns3:cad>
          </ns3:TrackPointExtension>
        </extensions>
      </trkpt>
      <trkpt lat="45.31534756533801555633544921875" lon="-71.01893207989633083343505859375">
        <ele>721.20001220703125</ele>
        <time>2026-08-21T21:17:28.000Z</time>
        <extensions>
          <ns3:TrackPointExtension>
            <ns3:hr>119</ns3:hr>
            <ns3:cad>51</ns3:cad>
          </ns3:TrackPointExtension>
        </extensions>
      </trkpt>
      <trkpt lat="45.31534521840512752532958984375" lon="-71.01894557476043701171875">
        <ele>721.4000244140625</ele>
        <time>2026-08-21T21:17:29.000Z</time>
        <extensions>
          <ns3:TrackPointExtension>
            <ns3:hr>119</ns3:hr>
            <ns3:cad>51</ns3:cad>
          </ns3:TrackPointExtension>
        </extensions>
      </trkpt>
      <trkpt lat="45.3153461404144763946533203125" lon="-71.0189558006823062896728515625">
        <ele>721.79998779296875</ele>
        <time>2026-08-21T21:17:30.000Z</time>
        <extensions>
          <ns3:TrackPointExtension>
            <ns3:hr>119</ns3:hr>
            <ns3:cad>51</ns3:cad>
          </ns3:TrackPointExtension>
        </extensions>
      </trkpt>
      <trkpt lat="45.3153451345860958099365234375" lon="-71.01896703243255615234375">
        <ele>722</ele>
        <time>2026-08-21T21:17:31.000Z</time>
        <extensions>
          <ns3:TrackPointExtension>
            <ns3:hr>119</ns3:hr>
            <ns3:cad>51</ns3:cad>
          </ns3:TrackPointExtension>
        </extensions>
      </trkpt>
      <trkpt lat="45.315340943634510040283203125" lon="-71.0189789347350597381591796875">
        <ele>722.20001220703125</ele>
        <time>2026-08-21T21:17:32.000Z</time>
        <extensions>
          <ns3:TrackPointExtension>
            <ns3:hr>119</ns3:hr>
            <ns3:cad>51</ns3:cad>
          </ns3:TrackPointExtension>
        </extensions>
      </trkpt>
      <trkpt lat="45.31534203328192234039306640625" lon="-71.018989495933055877685546875">
        <ele>722.5999755859375</ele>
        <time>2026-08-21T21:17:33.000Z</time>
        <extensions>
          <ns3:TrackPointExtension>
            <ns3:hr>120</ns3:hr>
            <ns3:cad>51</ns3:cad>
          </ns3:TrackPointExtension>
        </extensions>
      </trkpt>
      <trkpt lat="45.31534664332866668701171875" lon="-71.01900994777679443359375">
        <ele>722.79998779296875</ele>
        <time>2026-08-21T21:17:34.000Z</time>
        <extensions>
          <ns3:TrackPointExtension>
            <ns3:hr>120</ns3:hr>
            <ns3:cad>51</ns3:cad>
          </ns3:TrackPointExtension>
        </extensions>
      </trkpt>
      <trkpt lat="45.3153468109667301177978515625" lon="-71.0190184973180294036865234375">
        <ele>723.20001220703125</ele>
        <time>2026-08-21T21:17:35.000Z</time>
        <extensions>
          <ns3:TrackPointExtension>
            <ns3:hr>120</ns3:hr>
            <ns3:cad>51</ns3:cad>
          </ns3:TrackPointExtension>
        </extensions>
      </trkpt>
      <trkpt lat="45.31535142101347446441650390625" lon="-71.019034422934055328369140625">
        <ele>723.5999755859375</ele>
        <time>2026-08-21T21:17:36.000Z</time>
        <extensions>
          <ns3:TrackPointExtension>
            <ns3:hr>120</ns3:hr>
            <ns3:cad>51</ns3:cad>
          </ns3:TrackPointExtension>
        </extensions>
      </trkpt>
      <trkpt lat="45.315355695784091949462890625" lon="-71.01904490031301975250244140625">
        <ele>723.79998779296875</ele>
        <time>2026-08-21T21:17:37.000Z</time>
        <extensions>
          <ns3:TrackPointExtension>
            <ns3:hr>121</ns3:hr>
            <ns3:cad>50</ns3:cad>
          </ns3:TrackPointExtension>
        </extensions>
      </trkpt>
      <trkpt lat="45.31536005437374114990234375" lon="-71.01904892362654209136962890625">
        <ele>724.20001220703125</ele>
        <time>2026-08-21T21:17:38.000Z</time>
        <extensions>
          <ns3:TrackPointExtension>
            <ns3:hr>121</ns3:hr>
            <ns3:cad>50</ns3:cad>
          </ns3:TrackPointExtension>
        </extensions>
      </trkpt>
      <trkpt lat="45.31536935828626155853271484375" lon="-71.01906317286193370819091796875">
        <ele>724.4000244140625</ele>
        <time>2026-08-21T21:17:39.000Z</time>
        <extensions>
          <ns3:TrackPointExtension>
            <ns3:hr>122</ns3:hr>
            <ns3:cad>50</ns3:cad>
          </ns3:TrackPointExtension>
        </extensions>
      </trkpt>
      <trkpt lat="45.31537489034235477447509765625" lon="-71.01907457225024700164794921875">
        <ele>724.79998779296875</ele>
        <time>2026-08-21T21:17:40.000Z</time>
        <extensions>
          <ns3:TrackPointExtension>
            <ns3:hr>123</ns3:hr>
            <ns3:cad>50</ns3:cad>
          </ns3:TrackPointExtension>
        </extensions>
      </trkpt>
      <trkpt lat="45.315379835665225982666015625" lon="-71.01907943375408649444580078125">
        <ele>725</ele>
        <time>2026-08-21T21:17:41.000Z</time>
        <extensions>
          <ns3:TrackPointExtension>
            <ns3:hr>123</ns3:hr>
            <ns3:cad>50</ns3:cad>
          </ns3:TrackPointExtension>
        </extensions>
      </trkpt>
      <trkpt lat="45.31538276933133602142333984375" lon="-71.01909167133271694183349609375">
        <ele>725.20001220703125</ele>
        <time>2026-08-21T21:17:42.000Z</time>
        <extensions>
          <ns3:TrackPointExtension>
            <ns3:hr>123</ns3:hr>
            <ns3:cad>0</ns3:cad>
          </ns3:TrackPointExtension>
        </extensions>
      </trkpt>
      <trkpt lat="45.31538612209260463714599609375" lon="-71.0191140510141849517822265625">
        <ele>725.4000244140625</ele>
        <time>2026-08-21T21:17:43.000Z</time>
        <extensions>
          <ns3:TrackPointExtension>
            <ns3:hr>124</ns3:hr>
            <ns3:cad>0</ns3:cad>
          </ns3:TrackPointExtension>
        </extensions>
      </trkpt>
      <trkpt lat="45.31538176350295543670654296875" lon="-71.019131653010845184326171875">
        <ele>725.5999755859375</ele>
        <time>2026-08-21T21:17:44.000Z</time>
        <extensions>
          <ns3:TrackPointExtension>
            <ns3:hr>125</ns3:hr>
            <ns3:cad>0</ns3:cad>
          </ns3:TrackPointExtension>
        </extensions>
      </trkpt>
      <trkpt lat="45.31538109295070171356201171875" lon="-71.01914380677044391632080078125">
        <ele>725.5999755859375</ele>
        <time>2026-08-21T21:17:45.000Z</time>
        <extensions>
          <ns3:TrackPointExtension>
            <ns3:hr>125</ns3:hr>
            <ns3:cad>0</ns3:cad>
          </ns3:TrackPointExtension>
        </extensions>
      </trkpt>
      <trkpt lat="45.31538042239844799041748046875" lon="-71.019164510071277618408203125">
        <ele>725.5999755859375</ele>
        <time>2026-08-21T21:17:46.000Z</time>
        <extensions>
          <ns3:TrackPointExtension>
            <ns3:hr>126</ns3:hr>
            <ns3:cad>0</ns3:cad>
          </ns3:TrackPointExtension>
        </extensions>
      </trkpt>
      <trkpt lat="45.31537757255136966705322265625" lon="-71.01917163468897342681884765625">
        <ele>725.5999755859375</ele>
        <time>2026-08-21T21:17:47.000Z</time>
        <extensions>
          <ns3:TrackPointExtension>
            <ns3:hr>126</ns3:hr>
            <ns3:cad>0</ns3:cad>
          </ns3:TrackPointExtension>
        </extensions>
      </trkpt>
      <trkpt lat="45.31537212431430816650390625" lon="-71.0191837884485721588134765625">
        <ele>725.79998779296875</ele>
        <time>2026-08-21T21:17:48.000Z</time>
        <extensions>
          <ns3:TrackPointExtension>
            <ns3:hr>127</ns3:hr>
            <ns3:cad>0</ns3:cad>
          </ns3:TrackPointExtension>
        </extensions>
      </trkpt>
      <trkpt lat="45.3153712861239910125732421875" lon="-71.0192008875310420989990234375">
        <ele>726</ele>
        <time>2026-08-21T21:17:49.000Z</time>
        <extensions>
          <ns3:TrackPointExtension>
            <ns3:hr>129</ns3:hr>
            <ns3:cad>0</ns3:cad>
          </ns3:TrackPointExtension>
        </extensions>
      </trkpt>
      <trkpt lat="45.3153729625046253204345703125" lon="-71.01921170018613338470458984375">
        <ele>726.20001220703125</ele>
        <time>2026-08-21T21:17:50.000Z</time>
        <extensions>
          <ns3:TrackPointExtension>
            <ns3:hr>130</ns3:hr>
            <ns3:cad>0</ns3:cad>
          </ns3:TrackPointExtension>
        </extensions>
      </trkpt>
      <trkpt lat="45.31537187285721302032470703125" lon="-71.01921907626092433929443359375">
        <ele>726.4000244140625</ele>
        <time>2026-08-21T21:17:51.000Z</time>
        <extensions>
          <ns3:TrackPointExtension>
            <ns3:hr>131</ns3:hr>
            <ns3:cad>0</ns3:cad>
          </ns3:TrackPointExtension>
        </extensions>
      </trkpt>
      <trkpt lat="45.3153689391911029815673828125" lon="-71.0192337445914745330810546875">
        <ele>726.79998779296875</ele>
        <time>2026-08-21T21:17:52.000Z</time>
        <extensions>
          <ns3:TrackPointExtension>
            <ns3:hr>132</ns3:hr>
            <ns3:cad>48</ns3:cad>
          </ns3:TrackPointExtension>
        </extensions>
      </trkpt>
      <trkpt lat="45.31536533497273921966552734375" lon="-71.01924321614205837249755859375">
        <ele>727</ele>
        <time>2026-08-21T21:17:53.000Z</time>
        <extensions>
          <ns3:TrackPointExtension>
            <ns3:hr>133</ns3:hr>
            <ns3:cad>48</ns3:cad>
          </ns3:TrackPointExtension>
        </extensions>
      </trkpt>
      <trkpt lat="45.3153652511537075042724609375" lon="-71.01924489252269268035888671875">
        <ele>727.20001220703125</ele>
        <time>2026-08-21T21:17:54.000Z</time>
        <extensions>
          <ns3:TrackPointExtension>
            <ns3:hr>134</ns3:hr>
            <ns3:cad>48</ns3:cad>
          </ns3:TrackPointExtension>
        </extensions>
      </trkpt>
      <trkpt lat="45.31536810100078582763671875" lon="-71.01925495080649852752685546875">
        <ele>727.4000244140625</ele>
        <time>2026-08-21T21:17:55.000Z</time>
        <extensions>
          <ns3:TrackPointExtension>
            <ns3:hr>135</ns3:hr>
            <ns3:cad>48</ns3:cad>
          </ns3:TrackPointExtension>
        </extensions>
      </trkpt>
      <trkpt lat="45.3153712861239910125732421875" lon="-71.0192572139203548431396484375">
        <ele>727.79998779296875</ele>
        <time>2026-08-21T21:17:56.000Z</time>
        <extensions>
          <ns3:TrackPointExtension>
            <ns3:hr>136</ns3:hr>
            <ns3:cad>77</ns3:cad>
          </ns3:TrackPointExtension>
        </extensions>
      </trkpt>
      <trkpt lat="45.3153789974749088287353515625" lon="-71.01926249451935291290283203125">
        <ele>728</ele>
        <time>2026-08-21T21:17:57.000Z</time>
        <extensions>
          <ns3:TrackPointExtension>
            <ns3:hr>137</ns3:hr>
            <ns3:cad>77</ns3:cad>
          </ns3:TrackPointExtension>
        </extensions>
      </trkpt>
      <trkpt lat="45.31538427807390689849853515625" lon="-71.019275821745395660400390625">
        <ele>728.20001220703125</ele>
        <time>2026-08-21T21:17:58.000Z</time>
        <extensions>
          <ns3:TrackPointExtension>
            <ns3:hr>137</ns3:hr>
            <ns3:cad>77</ns3:cad>
          </ns3:TrackPointExtension>
        </extensions>
      </trkpt>
      <trkpt lat="45.31539400108158588409423828125" lon="-71.019287221133708953857421875">
        <ele>728.4000244140625</ele>
        <time>2026-08-21T21:17:59.000Z</time>
        <extensions>
          <ns3:TrackPointExtension>
            <ns3:hr>137</ns3:hr>
            <ns3:cad>77</ns3:cad>
          </ns3:TrackPointExtension>
        </extensions>
      </trkpt>
      <trkpt lat="45.3154031373560428619384765625" lon="-71.01930172182619571685791015625">
        <ele>728.4000244140625</ele>
        <time>2026-08-21T21:18:00.000Z</time>
        <extensions>
          <ns3:TrackPointExtension>
            <ns3:hr>137</ns3:hr>
            <ns3:cad>77</ns3:cad>
          </ns3:TrackPointExtension>
        </extensions>
      </trkpt>
      <trkpt lat="45.31540523283183574676513671875" lon="-71.01931815035641193389892578125">
        <ele>728.5999755859375</ele>
        <time>2026-08-21T21:18:01.000Z</time>
        <extensions>
          <ns3:TrackPointExtension>
            <ns3:hr>138</ns3:hr>
            <ns3:cad>0</ns3:cad>
          </ns3:TrackPointExtension>
        </extensions>
      </trkpt>
      <trkpt lat="45.31541210599243640899658203125" lon="-71.01932871155440807342529296875">
        <ele>728.5999755859375</ele>
        <time>2026-08-21T21:18:02.000Z</time>
        <extensions>
          <ns3:TrackPointExtension>
            <ns3:hr>137</ns3:hr>
            <ns3:cad>0</ns3:cad>
          </ns3:TrackPointExtension>
        </extensions>
      </trkpt>
      <trkpt lat="45.31542241573333740234375" lon="-71.01934111677110195159912109375">
        <ele>728.5999755859375</ele>
        <time>2026-08-21T21:18:03.000Z</time>
        <extensions>
          <ns3:TrackPointExtension>
            <ns3:hr>137</ns3:hr>
            <ns3:cad>0</ns3:cad>
          </ns3:TrackPointExtension>
        </extensions>
      </trkpt>
      <trkpt lat="45.3154289536178112030029296875" lon="-71.0193504206836223602294921875">
        <ele>728.5999755859375</ele>
        <time>2026-08-21T21:18:04.000Z</time>
        <extensions>
          <ns3:TrackPointExtension>
            <ns3:hr>138</ns3:hr>
            <ns3:cad>0</ns3:cad>
          </ns3:TrackPointExtension>
        </extensions>
      </trkpt>
      <trkpt lat="45.315435491502285003662109375" lon="-71.01937497965991497039794921875">
        <ele>728.4000244140625</ele>
        <time>2026-08-21T21:18:05.000Z</time>
        <extensions>
          <ns3:TrackPointExtension>
            <ns3:hr>138</ns3:hr>
            <ns3:cad>0</ns3:cad>
          </ns3:TrackPointExtension>
        </extensions>
      </trkpt>
      <trkpt lat="45.31543741934001445770263671875" lon="-71.01939811371266841888427734375">
        <ele>728.4000244140625</ele>
        <time>2026-08-21T21:18:06.000Z</time>
        <extensions>
          <ns3:TrackPointExtension>
            <ns3:hr>139</ns3:hr>
            <ns3:cad>48</ns3:cad>
          </ns3:TrackPointExtension>
        </extensions>
      </trkpt>
      <trkpt lat="45.31543674878776073455810546875" lon="-71.0194131173193454742431640625">
        <ele>728.4000244140625</ele>
        <time>2026-08-21T21:18:07.000Z</time>
        <extensions>
          <ns3:TrackPointExtension>
            <ns3:hr>139</ns3:hr>
            <ns3:cad>48</ns3:cad>
          </ns3:TrackPointExtension>
        </extensions>
      </trkpt>
      <trkpt lat="45.3154383413493633270263671875" lon="-71.0194342397153377532958984375">
        <ele>728.20001220703125</ele>
        <time>2026-08-21T21:18:08.000Z</time>
        <extensions>
          <ns3:TrackPointExtension>
            <ns3:hr>139</ns3:hr>
            <ns3:cad>51</ns3:cad>
          </ns3:TrackPointExtension>
        </extensions>
      </trkpt>
      <trkpt lat="45.31543255783617496490478515625" lon="-71.01945586502552032470703125">
        <ele>728.20001220703125</ele>
        <time>2026-08-21T21:18:09.000Z</time>
        <extensions>
          <ns3:TrackPointExtension>
            <ns3:hr>140</ns3:hr>
            <ns3:cad>51</ns3:cad>
          </ns3:TrackPointExtension>
        </extensions>
      </trkpt>
      <trkpt lat="45.31543239019811153411865234375" lon="-71.0194731317460536956787109375">
        <ele>728.20001220703125</ele>
        <time>2026-08-21T21:18:10.000Z</time>
        <extensions>
          <ns3:TrackPointExtension>
            <ns3:hr>140</ns3:hr>
            <ns3:cad>51</ns3:cad>
          </ns3:TrackPointExtension>
        </extensions>
      </trkpt>
      <trkpt lat="45.315429456532001495361328125" lon="-71.0194872133433818817138671875">
        <ele>728.20001220703125</ele>
        <time>2026-08-21T21:18:11.000Z</time>
        <extensions>
          <ns3:TrackPointExtension>
            <ns3:hr>140</ns3:hr>
            <ns3:cad>51</ns3:cad>
          </ns3:TrackPointExtension>
        </extensions>
      </trkpt>
      <trkpt lat="45.3154222480952739715576171875" lon="-71.019496433436870574951171875">
        <ele>728.4000244140625</ele>
        <time>2026-08-21T21:18:12.000Z</time>
        <extensions>
          <ns3:TrackPointExtension>
            <ns3:hr>139</ns3:hr>
            <ns3:cad>51</ns3:cad>
          </ns3:TrackPointExtension>
        </extensions>
      </trkpt>
      <trkpt lat="45.315417386591434478759765625" lon="-71.0195083357393741607666015625">
        <ele>728.4000244140625</ele>
        <time>2026-08-21T21:18:13.000Z</time>
        <extensions>
          <ns3:TrackPointExtension>
            <ns3:hr>139</ns3:hr>
            <ns3:cad>51</ns3:cad>
          </ns3:TrackPointExtension>
        </extensions>
      </trkpt>
      <trkpt lat="45.3154111839830875396728515625" lon="-71.0195210762321949005126953125">
        <ele>728.5999755859375</ele>
        <time>2026-08-21T21:18:14.000Z</time>
        <extensions>
          <ns3:TrackPointExtension>
            <ns3:hr>139</ns3:hr>
            <ns3:cad>51</ns3:cad>
          </ns3:TrackPointExtension>
        </extensions>
      </trkpt>
      <trkpt lat="45.31540489755570888519287109375" lon="-71.01953172124922275543212890625">
        <ele>728.79998779296875</ele>
        <time>2026-08-21T21:18:15.000Z</time>
        <extensions>
          <ns3:TrackPointExtension>
            <ns3:hr>139</ns3:hr>
            <ns3:cad>51</ns3:cad>
          </ns3:TrackPointExtension>
        </extensions>
      </trkpt>
      <trkpt lat="45.315395928919315338134765625" lon="-71.01954144425690174102783203125">
        <ele>728.79998779296875</ele>
        <time>2026-08-21T21:18:16.000Z</time>
        <extensions>
          <ns3:TrackPointExtension>
            <ns3:hr>138</ns3:hr>
            <ns3:cad>52</ns3:cad>
          </ns3:TrackPointExtension>
        </extensions>
      </trkpt>
      <trkpt lat="45.315387211740016937255859375" lon="-71.019552759826183319091796875">
        <ele>729</ele>
        <time>2026-08-21T21:18:17.000Z</time>
        <extensions>
          <ns3:TrackPointExtension>
            <ns3:hr>138</ns3:hr>
            <ns3:cad>52</ns3:cad>
          </ns3:TrackPointExtension>
        </extensions>
      </trkpt>
      <trkpt lat="45.315377824008464813232421875" lon="-71.01956089027225971221923828125">
        <ele>729.20001220703125</ele>
        <time>2026-08-21T21:18:18.000Z</time>
        <extensions>
          <ns3:TrackPointExtension>
            <ns3:hr>138</ns3:hr>
            <ns3:cad>51</ns3:cad>
          </ns3:TrackPointExtension>
        </extensions>
      </trkpt>
      <trkpt lat="45.315371453762054443359375" lon="-71.01957145147025585174560546875">
        <ele>729.20001220703125</ele>
        <time>2026-08-21T21:18:19.000Z</time>
        <extensions>
          <ns3:TrackPointExtension>
            <ns3:hr>137</ns3:hr>
            <ns3:cad>51</ns3:cad>
          </ns3:TrackPointExtension>
        </extensions>
      </trkpt>
      <trkpt lat="45.3153618983924388885498046875" lon="-71.01959039457142353057861328125">
        <ele>729.4000244140625</ele>
        <time>2026-08-21T21:18:20.000Z</time>
        <extensions>
          <ns3:TrackPointExtension>
            <ns3:hr>137</ns3:hr>
            <ns3:cad>51</ns3:cad>
          </ns3:TrackPointExtension>
        </extensions>
      </trkpt>
      <trkpt lat="45.3153540194034576416015625" lon="-71.01960481144487857818603515625">
        <ele>729.4000244140625</ele>
        <time>2026-08-21T21:18:21.000Z</time>
        <extensions>
          <ns3:TrackPointExtension>
            <ns3:hr>136</ns3:hr>
            <ns3:cad>51</ns3:cad>
          </ns3:TrackPointExtension>
        </extensions>
      </trkpt>
      <trkpt lat="45.3153471462428569793701171875" lon="-71.01962123997509479522705078125">
        <ele>729.5999755859375</ele>
        <time>2026-08-21T21:18:22.000Z</time>
        <extensions>
          <ns3:TrackPointExtension>
            <ns3:hr>136</ns3:hr>
            <ns3:cad>51</ns3:cad>
          </ns3:TrackPointExtension>
        </extensions>
      </trkpt>
      <trkpt lat="45.315346308052539825439453125" lon="-71.0196280293166637420654296875">
        <ele>729.79998779296875</ele>
        <time>2026-08-21T21:18:23.000Z</time>
        <extensions>
          <ns3:TrackPointExtension>
            <ns3:hr>136</ns3:hr>
            <ns3:cad>51</ns3:cad>
          </ns3:TrackPointExtension>
        </extensions>
      </trkpt>
      <trkpt lat="45.31534521840512752532958984375" lon="-71.0196481458842754364013671875">
        <ele>730</ele>
        <time>2026-08-21T21:18:24.000Z</time>
        <extensions>
          <ns3:TrackPointExtension>
            <ns3:hr>136</ns3:hr>
            <ns3:cad>51</ns3:cad>
          </ns3:TrackPointExtension>
        </extensions>
      </trkpt>
      <trkpt lat="45.31534588895738124847412109375" lon="-71.0196684300899505615234375">
        <ele>730.20001220703125</ele>
        <time>2026-08-21T21:18:25.000Z</time>
        <extensions>
          <ns3:TrackPointExtension>
            <ns3:hr>136</ns3:hr>
            <ns3:cad>51</ns3:cad>
          </ns3:TrackPointExtension>
        </extensions>
      </trkpt>
      <trkpt lat="45.31534689478576183319091796875" lon="-71.0196820087730884552001953125">
        <ele>730.4000244140625</ele>
        <time>2026-08-21T21:18:26.000Z</time>
        <extensions>
          <ns3:TrackPointExtension>
            <ns3:hr>136</ns3:hr>
            <ns3:cad>0</ns3:cad>
          </ns3:TrackPointExtension>
        </extensions>
      </trkpt>
      <trkpt lat="45.3153374232351779937744140625" lon="-71.0196947492659091949462890625">
        <ele>730.5999755859375</ele>
        <time>2026-08-21T21:18:27.000Z</time>
        <extensions>
          <ns3:TrackPointExtension>
            <ns3:hr>136</ns3:hr>
            <ns3:cad>0</ns3:cad>
          </ns3:TrackPointExtension>
        </extensions>
      </trkpt>
      <trkpt lat="45.315330214798450469970703125" lon="-71.0197165422141551971435546875">
        <ele>730.79998779296875</ele>
        <time>2026-08-21T21:18:28.000Z</time>
        <extensions>
          <ns3:TrackPointExtension>
            <ns3:hr>136</ns3:hr>
            <ns3:cad>0</ns3:cad>
          </ns3:TrackPointExtension>
        </extensions>
      </trkpt>
      <trkpt lat="45.3153290413320064544677734375" lon="-71.019731126725673675537109375">
        <ele>731</ele>
        <time>2026-08-21T21:18:29.000Z</time>
        <extensions>
          <ns3:TrackPointExtension>
            <ns3:hr>135</ns3:hr>
            <ns3:cad>0</ns3:cad>
          </ns3:TrackPointExtension>
        </extensions>
      </trkpt>
      <trkpt lat="45.3153253532946109771728515625" lon="-71.01974043063819408416748046875">
        <ele>731.20001220703125</ele>
        <time>2026-08-21T21:18:30.000Z</time>
        <extensions>
          <ns3:TrackPointExtension>
            <ns3:hr>134</ns3:hr>
            <ns3:cad>0</ns3:cad>
          </ns3:TrackPointExtension>
        </extensions>
      </trkpt>
      <trkpt lat="45.31531990505754947662353515625" lon="-71.01975400932133197784423828125">
        <ele>731.4000244140625</ele>
        <time>2026-08-21T21:18:31.000Z</time>
        <extensions>
          <ns3:TrackPointExtension>
            <ns3:hr>134</ns3:hr>
            <ns3:cad>45</ns3:cad>
          </ns3:TrackPointExtension>
        </extensions>
      </trkpt>
      <trkpt lat="45.31531512737274169921875" lon="-71.01976322941482067108154296875">
        <ele>731.5999755859375</ele>
        <time>2026-08-21T21:18:32.000Z</time>
        <extensions>
          <ns3:TrackPointExtension>
            <ns3:hr>133</ns3:hr>
            <ns3:cad>45</ns3:cad>
          </ns3:TrackPointExtension>
        </extensions>
      </trkpt>
      <trkpt lat="45.31530733220279216766357421875" lon="-71.01976029574871063232421875">
        <ele>731.79998779296875</ele>
        <time>2026-08-21T21:18:33.000Z</time>
        <extensions>
          <ns3:TrackPointExtension>
            <ns3:hr>133</ns3:hr>
            <ns3:cad>0</ns3:cad>
          </ns3:TrackPointExtension>
        </extensions>
      </trkpt>
      <trkpt lat="45.31531185843050479888916015625" lon="-71.0197577811777591705322265625">
        <ele>732</ele>
        <time>2026-08-21T21:18:34.000Z</time>
        <extensions>
          <ns3:TrackPointExtension>
            <ns3:hr>134</ns3:hr>
            <ns3:cad>0</ns3:cad>
          </ns3:TrackPointExtension>
        </extensions>
      </trkpt>
      <trkpt lat="45.31530850566923618316650390625" lon="-71.0197577811777591705322265625">
        <ele>732.20001220703125</ele>
        <time>2026-08-21T21:18:35.000Z</time>
        <extensions>
          <ns3:TrackPointExtension>
            <ns3:hr>134</ns3:hr>
            <ns3:cad>0</ns3:cad>
          </ns3:TrackPointExtension>
        </extensions>
      </trkpt>
      <trkpt lat="45.31530498526990413665771484375" lon="-71.01977144367992877960205078125">
        <ele>732.4000244140625</ele>
        <time>2026-08-21T21:18:36.000Z</time>
        <extensions>
          <ns3:TrackPointExtension>
            <ns3:hr>135</ns3:hr>
            <ns3:cad>0</ns3:cad>
          </ns3:TrackPointExtension>
        </extensions>
      </trkpt>
      <trkpt lat="45.31530247069895267486572265625" lon="-71.0197762213647365570068359375">
        <ele>732.79998779296875</ele>
        <time>2026-08-21T21:18:37.000Z</time>
        <extensions>
          <ns3:TrackPointExtension>
            <ns3:hr>135</ns3:hr>
            <ns3:cad>0</ns3:cad>
          </ns3:TrackPointExtension>
        </extensions>
      </trkpt>
      <trkpt lat="45.31529702246189117431640625" lon="-71.01978351362049579620361328125">
        <ele>733</ele>
        <time>2026-08-21T21:18:38.000Z</time>
        <extensions>
          <ns3:TrackPointExtension>
            <ns3:hr>135</ns3:hr>
            <ns3:cad>0</ns3:cad>
          </ns3:TrackPointExtension>
        </extensions>
      </trkpt>
      <trkpt lat="45.315291322767734527587890625" lon="-71.019795835018157958984375">
        <ele>733.4000244140625</ele>
        <time>2026-08-21T21:18:39.000Z</time>
        <extensions>
          <ns3:TrackPointExtension>
            <ns3:hr>136</ns3:hr>
            <ns3:cad>0</ns3:cad>
          </ns3:TrackPointExtension>
        </extensions>
      </trkpt>
      <trkpt lat="45.3152864612638950347900390625" lon="-71.01980547420680522918701171875">
        <ele>733.5999755859375</ele>
        <time>2026-08-21T21:18:40.000Z</time>
        <extensions>
          <ns3:TrackPointExtension>
            <ns3:hr>136</ns3:hr>
            <ns3:cad>0</ns3:cad>
          </ns3:TrackPointExtension>
        </extensions>
      </trkpt>
      <trkpt lat="45.3152753971517086029052734375" lon="-71.01980916224420070648193359375">
        <ele>733.79998779296875</ele>
        <time>2026-08-21T21:18:41.000Z</time>
        <extensions>
          <ns3:TrackPointExtension>
            <ns3:hr>136</ns3:hr>
            <ns3:cad>0</ns3:cad>
          </ns3:TrackPointExtension>
        </extensions>
      </trkpt>
      <trkpt lat="45.31527061946690082550048828125" lon="-71.0198117606341838836669921875">
        <ele>734</ele>
        <time>2026-08-21T21:18:42.000Z</time>
        <extensions>
          <ns3:TrackPointExtension>
            <ns3:hr>136</ns3:hr>
            <ns3:cad>0</ns3:cad>
          </ns3:TrackPointExtension>
        </extensions>
      </trkpt>
      <trkpt lat="45.31526341103017330169677734375" lon="-71.01982357911765575408935546875">
        <ele>734.20001220703125</ele>
        <time>2026-08-21T21:18:43.000Z</time>
        <extensions>
          <ns3:TrackPointExtension>
            <ns3:hr>135</ns3:hr>
            <ns3:cad>0</ns3:cad>
          </ns3:TrackPointExtension>
        </extensions>
      </trkpt>
      <trkpt lat="45.31525352038443088531494140625" lon="-71.019835732877254486083984375">
        <ele>734.4000244140625</ele>
        <time>2026-08-21T21:18:44.000Z</time>
        <extensions>
          <ns3:TrackPointExtension>
            <ns3:hr>136</ns3:hr>
            <ns3:cad>0</ns3:cad>
          </ns3:TrackPointExtension>
        </extensions>
      </trkpt>
      <trkpt lat="45.31524949707090854644775390625" lon="-71.019843779504299163818359375">
        <ele>734.5999755859375</ele>
        <time>2026-08-21T21:18:45.000Z</time>
        <extensions>
          <ns3:TrackPointExtension>
            <ns3:hr>137</ns3:hr>
            <ns3:cad>0</ns3:cad>
          </ns3:TrackPointExtension>
        </extensions>
      </trkpt>
      <trkpt lat="45.315246395766735076904296875" lon="-71.019855178892612457275390625">
        <ele>735</ele>
        <time>2026-08-21T21:18:46.000Z</time>
        <extensions>
          <ns3:TrackPointExtension>
            <ns3:hr>137</ns3:hr>
            <ns3:cad>0</ns3:cad>
          </ns3:TrackPointExtension>
        </extensions>
      </trkpt>
      <trkpt lat="45.3152502514421939849853515625" lon="-71.01985828019678592681884765625">
        <ele>735</ele>
        <time>2026-08-21T21:18:47.000Z</time>
        <extensions>
          <ns3:TrackPointExtension>
            <ns3:hr>138</ns3:hr>
            <ns3:cad>0</ns3:cad>
          </ns3:TrackPointExtension>
        </extensions>
      </trkpt>
      <trkpt lat="45.3152472339570522308349609375" lon="-71.0198657400906085968017578125">
        <ele>735.20001220703125</ele>
        <time>2026-08-21T21:18:48.000Z</time>
        <extensions>
          <ns3:TrackPointExtension>
            <ns3:hr>138</ns3:hr>
            <ns3:cad>45</ns3:cad>
          </ns3:TrackPointExtension>
        </extensions>
      </trkpt>
      <trkpt lat="45.3152438811957836151123046875" lon="-71.01987772621214389801025390625">
        <ele>735.4000244140625</ele>
        <time>2026-08-21T21:18:49.000Z</time>
        <extensions>
          <ns3:TrackPointExtension>
            <ns3:hr>138</ns3:hr>
            <ns3:cad>45</ns3:cad>
          </ns3:TrackPointExtension>
        </extensions>
      </trkpt>
      <trkpt lat="45.31524513848125934600830078125" lon="-71.01988242007791996002197265625">
        <ele>735.5999755859375</ele>
        <time>2026-08-21T21:18:50.000Z</time>
        <extensions>
          <ns3:TrackPointExtension>
            <ns3:hr>138</ns3:hr>
            <ns3:cad>43</ns3:cad>
          </ns3:TrackPointExtension>
        </extensions>
      </trkpt>
      <trkpt lat="45.31523801386356353759765625" lon="-71.01989314891397953033447265625">
        <ele>735.79998779296875</ele>
        <time>2026-08-21T21:18:51.000Z</time>
        <extensions>
          <ns3:TrackPointExtension>
            <ns3:hr>139</ns3:hr>
            <ns3:cad>43</ns3:cad>
          </ns3:TrackPointExtension>
        </extensions>
      </trkpt>
      <trkpt lat="45.31523692421615123748779296875" lon="-71.0199016146361827850341796875">
        <ele>736</ele>
        <time>2026-08-21T21:18:52.000Z</time>
        <extensions>
          <ns3:TrackPointExtension>
            <ns3:hr>139</ns3:hr>
            <ns3:cad>0</ns3:cad>
          </ns3:TrackPointExtension>
        </extensions>
      </trkpt>
      <trkpt lat="45.3152314759790897369384765625" lon="-71.019910164177417755126953125">
        <ele>736.20001220703125</ele>
        <time>2026-08-21T21:18:53.000Z</time>
        <extensions>
          <ns3:TrackPointExtension>
            <ns3:hr>139</ns3:hr>
            <ns3:cad>0</ns3:cad>
          </ns3:TrackPointExtension>
        </extensions>
      </trkpt>
      <trkpt lat="45.31522552482783794403076171875" lon="-71.01991259492933750152587890625">
        <ele>736.4000244140625</ele>
        <time>2026-08-21T21:18:54.000Z</time>
        <extensions>
          <ns3:TrackPointExtension>
            <ns3:hr>140</ns3:hr>
            <ns3:cad>0</ns3:cad>
          </ns3:TrackPointExtension>
        </extensions>
      </trkpt>
      <trkpt lat="45.3152224235236644744873046875" lon="-71.01992256939411163330078125">
        <ele>736.5999755859375</ele>
        <time>2026-08-21T21:18:55.000Z</time>
        <extensions>
          <ns3:TrackPointExtension>
            <ns3:hr>140</ns3:hr>
            <ns3:cad>0</ns3:cad>
          </ns3:TrackPointExtension>
        </extensions>
      </trkpt>
      <trkpt lat="45.31521999277174472808837890625" lon="-71.01993069984018802642822265625">
        <ele>736.79998779296875</ele>
        <time>2026-08-21T21:18:56.000Z</time>
        <extensions>
          <ns3:TrackPointExtension>
            <ns3:hr>140</ns3:hr>
            <ns3:cad>0</ns3:cad>
          </ns3:TrackPointExtension>
        </extensions>
      </trkpt>
      <trkpt lat="45.31521923840045928955078125" lon="-71.01993170566856861114501953125">
        <ele>737</ele>
        <time>2026-08-21T21:18:57.000Z</time>
        <extensions>
          <ns3:TrackPointExtension>
            <ns3:hr>139</ns3:hr>
            <ns3:cad>0</ns3:cad>
          </ns3:TrackPointExtension>
        </extensions>
      </trkpt>
      <trkpt lat="45.31521278433501720428466796875" lon="-71.01993707008659839630126953125">
        <ele>737.4000244140625</ele>
        <time>2026-08-21T21:18:58.000Z</time>
        <extensions>
          <ns3:TrackPointExtension>
            <ns3:hr>140</ns3:hr>
            <ns3:cad>0</ns3:cad>
          </ns3:TrackPointExtension>
        </extensions>
      </trkpt>
      <trkpt lat="45.31520222313702106475830078125" lon="-71.01993489079177379608154296875">
        <ele>737.5999755859375</ele>
        <time>2026-08-21T21:18:59.000Z</time>
        <extensions>
          <ns3:TrackPointExtension>
            <ns3:hr>141</ns3:hr>
            <ns3:cad>0</ns3:cad>
          </ns3:TrackPointExtension>
        </extensions>
      </trkpt>
      <trkpt lat="45.31519819982349872589111328125" lon="-71.01993824355304241180419921875">
        <ele>737.79998779296875</ele>
        <time>2026-08-21T21:19:00.000Z</time>
        <extensions>
          <ns3:TrackPointExtension>
            <ns3:hr>141</ns3:hr>
            <ns3:cad>0</ns3:cad>
          </ns3:TrackPointExtension>
        </extensions>
      </trkpt>
      <trkpt lat="45.31518864445388317108154296875" lon="-71.01994712837040424346923828125">
        <ele>738</ele>
        <time>2026-08-21T21:19:01.000Z</time>
        <extensions>
          <ns3:TrackPointExtension>
            <ns3:hr>142</ns3:hr>
            <ns3:cad>0</ns3:cad>
          </ns3:TrackPointExtension>
        </extensions>
      </trkpt>
      <trkpt lat="45.31518680043518543243408203125" lon="-71.01995098404586315155029296875">
        <ele>738.20001220703125</ele>
        <time>2026-08-21T21:19:02.000Z</time>
        <extensions>
          <ns3:TrackPointExtension>
            <ns3:hr>142</ns3:hr>
            <ns3:cad>0</ns3:cad>
          </ns3:TrackPointExtension>
        </extensions>
      </trkpt>
      <trkpt lat="45.31518009491264820098876953125" lon="-71.01995785720646381378173828125">
        <ele>738.20001220703125</ele>
        <time>2026-08-21T21:19:03.000Z</time>
        <extensions>
          <ns3:TrackPointExtension>
            <ns3:hr>142</ns3:hr>
            <ns3:cad>0</ns3:cad>
          </ns3:TrackPointExtension>
        </extensions>
      </trkpt>
      <trkpt lat="45.31517020426690578460693359375" lon="-71.0199679993093013763427734375">
        <ele>738.4000244140625</ele>
        <time>2026-08-21T21:19:04.000Z</time>
        <extensions>
          <ns3:TrackPointExtension>
            <ns3:hr>142</ns3:hr>
            <ns3:cad>40</ns3:cad>
          </ns3:TrackPointExtension>
        </extensions>
      </trkpt>
      <trkpt lat="45.315163247287273406982421875" lon="-71.0199742019176483154296875">
        <ele>738.5999755859375</ele>
        <time>2026-08-21T21:19:05.000Z</time>
        <extensions>
          <ns3:TrackPointExtension>
            <ns3:hr>141</ns3:hr>
            <ns3:cad>41</ns3:cad>
          </ns3:TrackPointExtension>
        </extensions>
      </trkpt>
      <trkpt lat="45.3151607327163219451904296875" lon="-71.01998099125921726226806640625">
        <ele>738.79998779296875</ele>
        <time>2026-08-21T21:19:06.000Z</time>
        <extensions>
          <ns3:TrackPointExtension>
            <ns3:hr>141</ns3:hr>
            <ns3:cad>41</ns3:cad>
          </ns3:TrackPointExtension>
        </extensions>
      </trkpt>
      <trkpt lat="45.31515645794570446014404296875" lon="-71.01998828351497650146484375">
        <ele>739</ele>
        <time>2026-08-21T21:19:07.000Z</time>
        <extensions>
          <ns3:TrackPointExtension>
            <ns3:hr>141</ns3:hr>
            <ns3:cad>79</ns3:cad>
          </ns3:TrackPointExtension>
        </extensions>
      </trkpt>
      <trkpt lat="45.31514891423285007476806640625" lon="-71.02000303566455841064453125">
        <ele>739.20001220703125</ele>
        <time>2026-08-21T21:19:08.000Z</time>
        <extensions>
          <ns3:TrackPointExtension>
            <ns3:hr>141</ns3:hr>
            <ns3:cad>79</ns3:cad>
          </ns3:TrackPointExtension>
        </extensions>
      </trkpt>
      <trkpt lat="45.31514120288193225860595703125" lon="-71.02001736871898174285888671875">
        <ele>739.4000244140625</ele>
        <time>2026-08-21T21:19:09.000Z</time>
        <extensions>
          <ns3:TrackPointExtension>
            <ns3:hr>141</ns3:hr>
            <ns3:cad>41</ns3:cad>
          </ns3:TrackPointExtension>
        </extensions>
      </trkpt>
      <trkpt lat="45.31513483263552188873291015625" lon="-71.02002541534602642059326171875">
        <ele>739.4000244140625</ele>
        <time>2026-08-21T21:19:10.000Z</time>
        <extensions>
          <ns3:TrackPointExtension>
            <ns3:hr>141</ns3:hr>
            <ns3:cad>40</ns3:cad>
          </ns3:TrackPointExtension>
        </extensions>
      </trkpt>
      <trkpt lat="45.31512896530330181121826171875" lon="-71.02003798820078372955322265625">
        <ele>739.5999755859375</ele>
        <time>2026-08-21T21:19:11.000Z</time>
        <extensions>
          <ns3:TrackPointExtension>
            <ns3:hr>142</ns3:hr>
            <ns3:cad>40</ns3:cad>
          </ns3:TrackPointExtension>
        </extensions>
      </trkpt>
      <trkpt lat="45.31512527726590633392333984375" lon="-71.02005274035036563873291015625">
        <ele>739.5999755859375</ele>
        <time>2026-08-21T21:19:12.000Z</time>
        <extensions>
          <ns3:TrackPointExtension>
            <ns3:hr>142</ns3:hr>
            <ns3:cad>40</ns3:cad>
          </ns3:TrackPointExtension>
        </extensions>
      </trkpt>
      <trkpt lat="45.3151211701333522796630859375" lon="-71.02006833069026470184326171875">
        <ele>739.79998779296875</ele>
        <time>2026-08-21T21:19:13.000Z</time>
        <extensions>
          <ns3:TrackPointExtension>
            <ns3:hr>142</ns3:hr>
            <ns3:cad>40</ns3:cad>
          </ns3:TrackPointExtension>
        </extensions>
      </trkpt>
      <trkpt lat="45.31511538662016391754150390625" lon="-71.02007947862148284912109375">
        <ele>739.79998779296875</ele>
        <time>2026-08-21T21:19:14.000Z</time>
        <extensions>
          <ns3:TrackPointExtension>
            <ns3:hr>143</ns3:hr>
            <ns3:cad>40</ns3:cad>
          </ns3:TrackPointExtension>
        </extensions>
      </trkpt>
      <trkpt lat="45.31510658562183380126953125" lon="-71.02009247057139873504638671875">
        <ele>739.79998779296875</ele>
        <time>2026-08-21T21:19:15.000Z</time>
        <extensions>
          <ns3:TrackPointExtension>
            <ns3:hr>143</ns3:hr>
            <ns3:cad>0</ns3:cad>
          </ns3:TrackPointExtension>
        </extensions>
      </trkpt>
      <trkpt lat="45.31509543769061565399169921875" lon="-71.0201041214168071746826171875">
        <ele>739.79998779296875</ele>
        <time>2026-08-21T21:19:16.000Z</time>
        <extensions>
          <ns3:TrackPointExtension>
            <ns3:hr>144</ns3:hr>
            <ns3:cad>0</ns3:cad>
          </ns3:TrackPointExtension>
        </extensions>
      </trkpt>
      <trkpt lat="45.31508621759712696075439453125" lon="-71.02012281306087970733642578125">
        <ele>739.79998779296875</ele>
        <time>2026-08-21T21:19:17.000Z</time>
        <extensions>
          <ns3:TrackPointExtension>
            <ns3:hr>144</ns3:hr>
            <ns3:cad>0</ns3:cad>
          </ns3:TrackPointExtension>
        </extensions>
      </trkpt>
      <trkpt lat="45.31507917679846286773681640625" lon="-71.02014024741947650909423828125">
        <ele>739.5999755859375</ele>
        <time>2026-08-21T21:19:18.000Z</time>
        <extensions>
          <ns3:TrackPointExtension>
            <ns3:hr>145</ns3:hr>
            <ns3:cad>0</ns3:cad>
          </ns3:TrackPointExtension>
        </extensions>
      </trkpt>
      <trkpt lat="45.31507733277976512908935546875" lon="-71.02016530930995941162109375">
        <ele>739.5999755859375</ele>
        <time>2026-08-21T21:19:19.000Z</time>
        <extensions>
          <ns3:TrackPointExtension>
            <ns3:hr>145</ns3:hr>
            <ns3:cad>0</ns3:cad>
          </ns3:TrackPointExtension>
        </extensions>
      </trkpt>
      <trkpt lat="45.315076075494289398193359375" lon="-71.0201862640678882598876953125">
        <ele>739.4000244140625</ele>
        <time>2026-08-21T21:19:20.000Z</time>
        <extensions>
          <ns3:TrackPointExtension>
            <ns3:hr>146</ns3:hr>
            <ns3:cad>0</ns3:cad>
          </ns3:TrackPointExtension>
        </extensions>
      </trkpt>
      <trkpt lat="45.315075404942035675048828125" lon="-71.02020420134067535400390625">
        <ele>739.4000244140625</ele>
        <time>2026-08-21T21:19:21.000Z</time>
        <extensions>
          <ns3:TrackPointExtension>
            <ns3:hr>146</ns3:hr>
            <ns3:cad>0</ns3:cad>
          </ns3:TrackPointExtension>
        </extensions>
      </trkpt>
      <trkpt lat="45.31507498584687709808349609375" lon="-71.0202234797179698944091796875">
        <ele>739.20001220703125</ele>
        <time>2026-08-21T21:19:22.000Z</time>
        <extensions>
          <ns3:TrackPointExtension>
            <ns3:hr>147</ns3:hr>
            <ns3:cad>0</ns3:cad>
          </ns3:TrackPointExtension>
        </extensions>
      </trkpt>
      <trkpt lat="45.3150737285614013671875" lon="-71.020240746438503265380859375">
        <ele>739.20001220703125</ele>
        <time>2026-08-21T21:19:23.000Z</time>
        <extensions>
          <ns3:TrackPointExtension>
            <ns3:hr>148</ns3:hr>
            <ns3:cad>0</ns3:cad>
          </ns3:TrackPointExtension>
        </extensions>
      </trkpt>
      <trkpt lat="45.315068699419498443603515625" lon="-71.02025809697806835174560546875">
        <ele>739</ele>
        <time>2026-08-21T21:19:24.000Z</time>
        <extensions>
          <ns3:TrackPointExtension>
            <ns3:hr>148</ns3:hr>
            <ns3:cad>0</ns3:cad>
          </ns3:TrackPointExtension>
        </extensions>
      </trkpt>
      <trkpt lat="45.31506224535405635833740234375" lon="-71.02027620188891887664794921875">
        <ele>739</ele>
        <time>2026-08-21T21:19:25.000Z</time>
        <extensions>
          <ns3:TrackPointExtension>
            <ns3:hr>149</ns3:hr>
            <ns3:cad>0</ns3:cad>
          </ns3:TrackPointExtension>
        </extensions>
      </trkpt>
      <trkpt lat="45.31505386345088481903076171875" lon="-71.020301096141338348388671875">
        <ele>738.79998779296875</ele>
        <time>2026-08-21T21:19:26.000Z</time>
        <extensions>
          <ns3:TrackPointExtension>
            <ns3:hr>151</ns3:hr>
            <ns3:cad>0</ns3:cad>
          </ns3:TrackPointExtension>
        </extensions>
      </trkpt>
      <trkpt lat="45.31505319289863109588623046875" lon="-71.0203197039663791656494140625">
        <ele>738.79998779296875</ele>
        <time>2026-08-21T21:19:27.000Z</time>
        <extensions>
          <ns3:TrackPointExtension>
            <ns3:hr>152</ns3:hr>
            <ns3:cad>0</ns3:cad>
          </ns3:TrackPointExtension>
        </extensions>
      </trkpt>
      <trkpt lat="45.3150561265647411346435546875" lon="-71.02033822797238826751708984375">
        <ele>738.4000244140625</ele>
        <time>2026-08-21T21:19:28.000Z</time>
        <extensions>
          <ns3:TrackPointExtension>
            <ns3:hr>154</ns3:hr>
            <ns3:cad>0</ns3:cad>
          </ns3:TrackPointExtension>
        </extensions>
      </trkpt>
      <trkpt lat="45.315061323344707489013671875" lon="-71.020364128053188323974609375">
        <ele>738.20001220703125</ele>
        <time>2026-08-21T21:19:29.000Z</time>
        <extensions>
          <ns3:TrackPointExtension>
            <ns3:hr>160</ns3:hr>
            <ns3:cad>0</ns3:cad>
          </ns3:TrackPointExtension>
        </extensions>
      </trkpt>
      <trkpt lat="45.31506861560046672821044921875" lon="-71.0203818976879119873046875">
        <ele>737.79998779296875</ele>
        <time>2026-08-21T21:19:30.000Z</time>
        <extensions>
          <ns3:TrackPointExtension>
            <ns3:hr>174</ns3:hr>
            <ns3:cad>0</ns3:cad>
          </ns3:TrackPointExtension>
        </extensions>
      </trkpt>
      <trkpt lat="45.31507766805589199066162109375" lon="-71.02040628902614116668701171875">
        <ele>737.4000244140625</ele>
        <time>2026-08-21T21:19:31.000Z</time>
        <extensions>
          <ns3:TrackPointExtension>
            <ns3:hr>185</ns3:hr>
            <ns3:cad>0</ns3:cad>
          </ns3:TrackPointExtension>
        </extensions>
      </trkpt>
      <trkpt lat="45.3150812722742557525634765625" lon="-71.02042389102280139923095703125">
        <ele>737.20001220703125</ele>
        <time>2026-08-21T21:19:32.000Z</time>
        <extensions>
          <ns3:TrackPointExtension>
            <ns3:hr>186</ns3:hr>
            <ns3:cad>0</ns3:cad>
          </ns3:TrackPointExtension>
        </extensions>
      </trkpt>
      <trkpt lat="45.31508470885455608367919921875" lon="-71.0204363800585269927978515625">
        <ele>736.79998779296875</ele>
        <time>2026-08-21T21:19:33.000Z</time>
        <extensions>
          <ns3:TrackPointExtension>
            <ns3:hr>186</ns3:hr>
            <ns3:cad>0</ns3:cad>
          </ns3:TrackPointExtension>
        </extensions>
      </trkpt>
      <trkpt lat="45.31508923508226871490478515625" lon="-71.0204501263797283172607421875">
        <ele>736.5999755859375</ele>
        <time>2026-08-21T21:19:34.000Z</time>
        <extensions>
          <ns3:TrackPointExtension>
            <ns3:hr>186</ns3:hr>
            <ns3:cad>0</ns3:cad>
          </ns3:TrackPointExtension>
        </extensions>
      </trkpt>
      <trkpt lat="45.31508982181549072265625" lon="-71.020457334816455841064453125">
        <ele>736.5999755859375</ele>
        <time>2026-08-21T21:19:35.000Z</time>
        <extensions>
          <ns3:TrackPointExtension>
            <ns3:hr>185</ns3:hr>
            <ns3:cad>0</ns3:cad>
          </ns3:TrackPointExtension>
        </extensions>
      </trkpt>
      <trkpt lat="45.3150832839310169219970703125" lon="-71.0204809717833995819091796875">
        <ele>736.5999755859375</ele>
        <time>2026-08-21T21:19:36.000Z</time>
        <extensions>
          <ns3:TrackPointExtension>
            <ns3:hr>184</ns3:hr>
            <ns3:cad>0</ns3:cad>
          </ns3:TrackPointExtension>
        </extensions>
      </trkpt>
      <trkpt lat="45.315078757703304290771484375" lon="-71.020495556294918060302734375">
        <ele>736.5999755859375</ele>
        <time>2026-08-21T21:19:37.000Z</time>
        <extensions>
          <ns3:TrackPointExtension>
            <ns3:hr>183</ns3:hr>
            <ns3:cad>0</ns3:cad>
          </ns3:TrackPointExtension>
        </extensions>
      </trkpt>
      <trkpt lat="45.3150802664458751678466796875" lon="-71.02051508612930774688720703125">
        <ele>736.5999755859375</ele>
        <time>2026-08-21T21:19:38.000Z</time>
        <extensions>
          <ns3:TrackPointExtension>
            <ns3:hr>183</ns3:hr>
            <ns3:cad>0</ns3:cad>
          </ns3:TrackPointExtension>
        </extensions>
      </trkpt>
      <trkpt lat="45.31508571468293666839599609375" lon="-71.02053620852530002593994140625">
        <ele>736.4000244140625</ele>
        <time>2026-08-21T21:19:39.000Z</time>
        <extensions>
          <ns3:TrackPointExtension>
            <ns3:hr>182</ns3:hr>
            <ns3:cad>0</ns3:cad>
          </ns3:TrackPointExtension>
        </extensions>
      </trkpt>
      <trkpt lat="45.31509049236774444580078125" lon="-71.0205460153520107269287109375">
        <ele>736.4000244140625</ele>
        <time>2026-08-21T21:19:40.000Z</time>
        <extensions>
          <ns3:TrackPointExtension>
            <ns3:hr>182</ns3:hr>
            <ns3:cad>0</ns3:cad>
          </ns3:TrackPointExtension>
        </extensions>
      </trkpt>
      <trkpt lat="45.31508420594036579132080078125" lon="-71.0205698199570178985595703125">
        <ele>736.20001220703125</ele>
        <time>2026-08-21T21:19:41.000Z</time>
        <extensions>
          <ns3:TrackPointExtension>
            <ns3:hr>181</ns3:hr>
            <ns3:cad>0</ns3:cad>
          </ns3:TrackPointExtension>
        </extensions>
      </trkpt>
      <trkpt lat="45.31508504413068294525146484375" lon="-71.020589433610439300537109375">
        <ele>736.20001220703125</ele>
        <time>2026-08-21T21:19:42.000Z</time>
        <extensions>
          <ns3:TrackPointExtension>
            <ns3:hr>181</ns3:hr>
            <ns3:cad>0</ns3:cad>
          </ns3:TrackPointExtension>
        </extensions>
      </trkpt>
      <trkpt lat="45.3150876425206661224365234375" lon="-71.02061030454933643341064453125">
        <ele>736.20001220703125</ele>
        <time>2026-08-21T21:19:43.000Z</time>
        <extensions>
          <ns3:TrackPointExtension>
            <ns3:hr>180</ns3:hr>
            <ns3:cad>0</ns3:cad>
          </ns3:TrackPointExtension>
        </extensions>
      </trkpt>
      <trkpt lat="45.31508923508226871490478515625" lon="-71.0206358693540096282958984375">
        <ele>736.20001220703125</ele>
        <time>2026-08-21T21:19:44.000Z</time>
        <extensions>
          <ns3:TrackPointExtension>
            <ns3:hr>179</ns3:hr>
            <ns3:cad>0</ns3:cad>
          </ns3:TrackPointExtension>
        </extensions>
      </trkpt>
      <trkpt lat="45.3150876425206661224365234375" lon="-71.0206569917500019073486328125">
        <ele>736.20001220703125</ele>
        <time>2026-08-21T21:19:45.000Z</time>
        <extensions>
          <ns3:TrackPointExtension>
            <ns3:hr>179</ns3:hr>
            <ns3:cad>0</ns3:cad>
          </ns3:TrackPointExtension>
        </extensions>
      </trkpt>
      <trkpt lat="45.31508973799645900726318359375" lon="-71.0206861607730388641357421875">
        <ele>736.20001220703125</ele>
        <time>2026-08-21T21:19:46.000Z</time>
        <extensions>
          <ns3:TrackPointExtension>
            <ns3:hr>179</ns3:hr>
            <ns3:cad>0</ns3:cad>
          </ns3:TrackPointExtension>
        </extensions>
      </trkpt>
      <trkpt lat="45.3150960244238376617431640625" lon="-71.02071155793964862823486328125">
        <ele>736</ele>
        <time>2026-08-21T21:19:47.000Z</time>
        <extensions>
          <ns3:TrackPointExtension>
            <ns3:hr>179</ns3:hr>
            <ns3:cad>0</ns3:cad>
          </ns3:TrackPointExtension>
        </extensions>
      </trkpt>
      <trkpt lat="45.315098203718662261962890625" lon="-71.020737625658512115478515625">
        <ele>736</ele>
        <time>2026-08-21T21:19:48.000Z</time>
        <extensions>
          <ns3:TrackPointExtension>
            <ns3:hr>179</ns3:hr>
            <ns3:cad>0</ns3:cad>
          </ns3:TrackPointExtension>
        </extensions>
      </trkpt>
      <trkpt lat="45.3150977008044719696044921875" lon="-71.02076553739607334136962890625">
        <ele>736</ele>
        <time>2026-08-21T21:19:49.000Z</time>
        <extensions>
          <ns3:TrackPointExtension>
            <ns3:hr>178</ns3:hr>
            <ns3:cad>68</ns3:cad>
          </ns3:TrackPointExtension>
        </extensions>
      </trkpt>
      <trkpt lat="45.315097533166408538818359375" lon="-71.02078867144882678985595703125">
        <ele>736.20001220703125</ele>
        <time>2026-08-21T21:19:50.000Z</time>
        <extensions>
          <ns3:TrackPointExtension>
            <ns3:hr>178</ns3:hr>
            <ns3:cad>68</ns3:cad>
          </ns3:TrackPointExtension>
        </extensions>
      </trkpt>
      <trkpt lat="45.31509946100413799285888671875" lon="-71.02080845274031162261962890625">
        <ele>736.20001220703125</ele>
        <time>2026-08-21T21:19:51.000Z</time>
        <extensions>
          <ns3:TrackPointExtension>
            <ns3:hr>177</ns3:hr>
            <ns3:cad>70</ns3:cad>
          </ns3:TrackPointExtension>
        </extensions>
      </trkpt>
      <trkpt lat="45.315095521509647369384765625" lon="-71.02083041332662105560302734375">
        <ele>736.20001220703125</ele>
        <time>2026-08-21T21:19:52.000Z</time>
        <extensions>
          <ns3:TrackPointExtension>
            <ns3:hr>177</ns3:hr>
            <ns3:cad>70</ns3:cad>
          </ns3:TrackPointExtension>
        </extensions>
      </trkpt>
      <trkpt lat="45.3150873072445392608642578125" lon="-71.02084449492394924163818359375">
        <ele>736.20001220703125</ele>
        <time>2026-08-21T21:19:53.000Z</time>
        <extensions>
          <ns3:TrackPointExtension>
            <ns3:hr>176</ns3:hr>
            <ns3:cad>69</ns3:cad>
          </ns3:TrackPointExtension>
        </extensions>
      </trkpt>
      <trkpt lat="45.31507884152233600616455078125" lon="-71.02086444385349750518798828125">
        <ele>736.20001220703125</ele>
        <time>2026-08-21T21:19:54.000Z</time>
        <extensions>
          <ns3:TrackPointExtension>
            <ns3:hr>174</ns3:hr>
            <ns3:cad>69</ns3:cad>
          </ns3:TrackPointExtension>
        </extensions>
      </trkpt>
      <trkpt lat="45.31507481820881366729736328125" lon="-71.0208883322775363922119140625">
        <ele>736.4000244140625</ele>
        <time>2026-08-21T21:19:55.000Z</time>
        <extensions>
          <ns3:TrackPointExtension>
            <ns3:hr>173</ns3:hr>
            <ns3:cad>69</ns3:cad>
          </ns3:TrackPointExtension>
        </extensions>
      </trkpt>
      <trkpt lat="45.31507029198110103607177734375" lon="-71.0208950378000736236572265625">
        <ele>736.5999755859375</ele>
        <time>2026-08-21T21:19:56.000Z</time>
        <extensions>
          <ns3:TrackPointExtension>
            <ns3:hr>173</ns3:hr>
            <ns3:cad>69</ns3:cad>
          </ns3:TrackPointExtension>
        </extensions>
      </trkpt>
      <trkpt lat="45.315064676105976104736328125" lon="-71.020903922617435455322265625">
        <ele>736.79998779296875</ele>
        <time>2026-08-21T21:19:57.000Z</time>
        <extensions>
          <ns3:TrackPointExtension>
            <ns3:hr>172</ns3:hr>
            <ns3:cad>69</ns3:cad>
          </ns3:TrackPointExtension>
        </extensions>
      </trkpt>
      <trkpt lat="45.31506995670497417449951171875" lon="-71.0209094546735286712646484375">
        <ele>737</ele>
        <time>2026-08-21T21:19:58.000Z</time>
        <extensions>
          <ns3:TrackPointExtension>
            <ns3:hr>172</ns3:hr>
            <ns3:cad>0</ns3:cad>
          </ns3:TrackPointExtension>
        </extensions>
      </trkpt>
      <trkpt lat="45.31507817097008228302001953125" lon="-71.0209228657186031341552734375">
        <ele>737.4000244140625</ele>
        <time>2026-08-21T21:19:59.000Z</time>
        <extensions>
          <ns3:TrackPointExtension>
            <ns3:hr>173</ns3:hr>
            <ns3:cad>0</ns3:cad>
          </ns3:TrackPointExtension>
        </extensions>
      </trkpt>
      <trkpt lat="45.31508252955973148345947265625" lon="-71.0209295712411403656005859375">
        <ele>737.5999755859375</ele>
        <time>2026-08-21T21:20:00.000Z</time>
        <extensions>
          <ns3:TrackPointExtension>
            <ns3:hr>175</ns3:hr>
            <ns3:cad>0</ns3:cad>
          </ns3:TrackPointExtension>
        </extensions>
      </trkpt>
      <trkpt lat="45.315080769360065460205078125" lon="-71.02093468420207500457763671875">
        <ele>737.79998779296875</ele>
        <time>2026-08-21T21:20:01.000Z</time>
        <extensions>
          <ns3:TrackPointExtension>
            <ns3:hr>174</ns3:hr>
            <ns3:cad>0</ns3:cad>
          </ns3:TrackPointExtension>
        </extensions>
      </trkpt>
      <trkpt lat="45.31507649458944797515869140625" lon="-71.0209424793720245361328125">
        <ele>738</ele>
        <time>2026-08-21T21:20:02.000Z</time>
        <extensions>
          <ns3:TrackPointExtension>
            <ns3:hr>174</ns3:hr>
            <ns3:cad>0</ns3:cad>
          </ns3:TrackPointExtension>
        </extensions>
      </trkpt>
      <trkpt lat="45.31506710685789585113525390625" lon="-71.020950861275196075439453125">
        <ele>738.20001220703125</ele>
        <time>2026-08-21T21:20:03.000Z</time>
        <extensions>
          <ns3:TrackPointExtension>
            <ns3:hr>173</ns3:hr>
            <ns3:cad>0</ns3:cad>
          </ns3:TrackPointExtension>
        </extensions>
      </trkpt>
      <trkpt lat="45.31506191007792949676513671875" lon="-71.02095815353095531463623046875">
        <ele>738.4000244140625</ele>
        <time>2026-08-21T21:20:04.000Z</time>
        <extensions>
          <ns3:TrackPointExtension>
            <ns3:hr>173</ns3:hr>
            <ns3:cad>0</ns3:cad>
          </ns3:TrackPointExtension>
        </extensions>
      </trkpt>
      <trkpt lat="45.31505604274570941925048828125" lon="-71.020971648395061492919921875">
        <ele>738.5999755859375</ele>
        <time>2026-08-21T21:20:05.000Z</time>
        <extensions>
          <ns3:TrackPointExtension>
            <ns3:hr>173</ns3:hr>
            <ns3:cad>46</ns3:cad>
          </ns3:TrackPointExtension>
        </extensions>
      </trkpt>
      <trkpt lat="45.31504464335739612579345703125" lon="-71.02098346687853336334228515625">
        <ele>738.5999755859375</ele>
        <time>2026-08-21T21:20:06.000Z</time>
        <extensions>
          <ns3:TrackPointExtension>
            <ns3:hr>173</ns3:hr>
            <ns3:cad>46</ns3:cad>
          </ns3:TrackPointExtension>
        </extensions>
      </trkpt>
      <trkpt lat="45.31503877602517604827880859375" lon="-71.0209983028471469879150390625">
        <ele>738.79998779296875</ele>
        <time>2026-08-21T21:20:07.000Z</time>
        <extensions>
          <ns3:TrackPointExtension>
            <ns3:hr>173</ns3:hr>
            <ns3:cad>46</ns3:cad>
          </ns3:TrackPointExtension>
        </extensions>
      </trkpt>
      <trkpt lat="45.31503508798778057098388671875" lon="-71.02101280353963375091552734375">
        <ele>739</ele>
        <time>2026-08-21T21:20:08.000Z</time>
        <extensions>
          <ns3:TrackPointExtension>
            <ns3:hr>174</ns3:hr>
            <ns3:cad>46</ns3:cad>
          </ns3:TrackPointExtension>
        </extensions>
      </trkpt>
      <trkpt lat="45.3150294721126556396484375" lon="-71.02102696895599365234375">
        <ele>738.79998779296875</ele>
        <time>2026-08-21T21:20:09.000Z</time>
        <extensions>
          <ns3:TrackPointExtension>
            <ns3:hr>175</ns3:hr>
            <ns3:cad>46</ns3:cad>
          </ns3:TrackPointExtension>
        </extensions>
      </trkpt>
      <trkpt lat="45.3150246106088161468505859375" lon="-71.02103375829756259918212890625">
        <ele>738.79998779296875</ele>
        <time>2026-08-21T21:20:10.000Z</time>
        <extensions>
          <ns3:TrackPointExtension>
            <ns3:hr>175</ns3:hr>
            <ns3:cad>46</ns3:cad>
          </ns3:TrackPointExtension>
        </extensions>
      </trkpt>
      <trkpt lat="45.31501530669629573822021484375" lon="-71.0210405476391315460205078125">
        <ele>738.5999755859375</ele>
        <time>2026-08-21T21:20:11.000Z</time>
        <extensions>
          <ns3:TrackPointExtension>
            <ns3:hr>176</ns3:hr>
            <ns3:cad>46</ns3:cad>
          </ns3:TrackPointExtension>
        </extensions>
      </trkpt>
      <trkpt lat="45.31500399112701416015625" lon="-71.0210576467216014862060546875">
        <ele>738.4000244140625</ele>
        <time>2026-08-21T21:20:12.000Z</time>
        <extensions>
          <ns3:TrackPointExtension>
            <ns3:hr>176</ns3:hr>
            <ns3:cad>46</ns3:cad>
          </ns3:TrackPointExtension>
        </extensions>
      </trkpt>
      <trkpt lat="45.31499954871833324432373046875" lon="-71.02107114158570766448974609375">
        <ele>738.20001220703125</ele>
        <time>2026-08-21T21:20:13.000Z</time>
        <extensions>
          <ns3:TrackPointExtension>
            <ns3:hr>176</ns3:hr>
            <ns3:cad>46</ns3:cad>
          </ns3:TrackPointExtension>
        </extensions>
      </trkpt>
      <trkpt lat="45.31499334610998630523681640625" lon="-71.0210819542407989501953125">
        <ele>737.79998779296875</ele>
        <time>2026-08-21T21:20:14.000Z</time>
        <extensions>
          <ns3:TrackPointExtension>
            <ns3:hr>177</ns3:hr>
            <ns3:cad>46</ns3:cad>
          </ns3:TrackPointExtension>
        </extensions>
      </trkpt>
      <trkpt lat="45.314986892044544219970703125" lon="-71.02108991704881191253662109375">
        <ele>737.5999755859375</ele>
        <time>2026-08-21T21:20:15.000Z</time>
        <extensions>
          <ns3:TrackPointExtension>
            <ns3:hr>176</ns3:hr>
            <ns3:cad>68</ns3:cad>
          </ns3:TrackPointExtension>
        </extensions>
      </trkpt>
      <trkpt lat="45.3149783425033092498779296875" lon="-71.0210980474948883056640625">
        <ele>737.20001220703125</ele>
        <time>2026-08-21T21:20:16.000Z</time>
        <extensions>
          <ns3:TrackPointExtension>
            <ns3:hr>176</ns3:hr>
            <ns3:cad>68</ns3:cad>
          </ns3:TrackPointExtension>
        </extensions>
      </trkpt>
      <trkpt lat="45.31497121788561344146728515625" lon="-71.0211055912077426910400390625">
        <ele>737</ele>
        <time>2026-08-21T21:20:17.000Z</time>
        <extensions>
          <ns3:TrackPointExtension>
            <ns3:hr>176</ns3:hr>
            <ns3:cad>68</ns3:cad>
          </ns3:TrackPointExtension>
        </extensions>
      </trkpt>
      <trkpt lat="45.31496518291532993316650390625" lon="-71.02111355401575565338134765625">
        <ele>736.79998779296875</ele>
        <time>2026-08-21T21:20:18.000Z</time>
        <extensions>
          <ns3:TrackPointExtension>
            <ns3:hr>176</ns3:hr>
            <ns3:cad>68</ns3:cad>
          </ns3:TrackPointExtension>
        </extensions>
      </trkpt>
      <trkpt lat="45.31495780684053897857666015625" lon="-71.02112143300473690032958984375">
        <ele>736.5999755859375</ele>
        <time>2026-08-21T21:20:19.000Z</time>
        <extensions>
          <ns3:TrackPointExtension>
            <ns3:hr>176</ns3:hr>
            <ns3:cad>68</ns3:cad>
          </ns3:TrackPointExtension>
        </extensions>
      </trkpt>
      <trkpt lat="45.31494858674705028533935546875" lon="-71.021129898726940155029296875">
        <ele>736.4000244140625</ele>
        <time>2026-08-21T21:20:20.000Z</time>
        <extensions>
          <ns3:TrackPointExtension>
            <ns3:hr>175</ns3:hr>
            <ns3:cad>68</ns3:cad>
          </ns3:TrackPointExtension>
        </extensions>
      </trkpt>
      <trkpt lat="45.31494020484387874603271484375" lon="-71.021138615906238555908203125">
        <ele>736.4000244140625</ele>
        <time>2026-08-21T21:20:21.000Z</time>
        <extensions>
          <ns3:TrackPointExtension>
            <ns3:hr>175</ns3:hr>
            <ns3:cad>68</ns3:cad>
          </ns3:TrackPointExtension>
        </extensions>
      </trkpt>
      <trkpt lat="45.314929895102977752685546875" lon="-71.02114959619939327239990234375">
        <ele>736.4000244140625</ele>
        <time>2026-08-21T21:20:22.000Z</time>
        <extensions>
          <ns3:TrackPointExtension>
            <ns3:hr>175</ns3:hr>
            <ns3:cad>55</ns3:cad>
          </ns3:TrackPointExtension>
        </extensions>
      </trkpt>
      <trkpt lat="45.314916484057903289794921875" lon="-71.02115982212126255035400390625">
        <ele>736.4000244140625</ele>
        <time>2026-08-21T21:20:23.000Z</time>
        <extensions>
          <ns3:TrackPointExtension>
            <ns3:hr>174</ns3:hr>
            <ns3:cad>53</ns3:cad>
          </ns3:TrackPointExtension>
        </extensions>
      </trkpt>
      <trkpt lat="45.314902402460575103759765625" lon="-71.02117524482309818267822265625">
        <ele>736.4000244140625</ele>
        <time>2026-08-21T21:20:24.000Z</time>
        <extensions>
          <ns3:TrackPointExtension>
            <ns3:hr>174</ns3:hr>
            <ns3:cad>53</ns3:cad>
          </ns3:TrackPointExtension>
        </extensions>
      </trkpt>
      <trkpt lat="45.31489226035773754119873046875" lon="-71.021184884011745452880859375">
        <ele>736.4000244140625</ele>
        <time>2026-08-21T21:20:25.000Z</time>
        <extensions>
          <ns3:TrackPointExtension>
            <ns3:hr>173</ns3:hr>
            <ns3:cad>53</ns3:cad>
          </ns3:TrackPointExtension>
        </extensions>
      </trkpt>
      <trkpt lat="45.3148837946355342864990234375" lon="-71.02118932642042636871337890625">
        <ele>736.4000244140625</ele>
        <time>2026-08-21T21:20:26.000Z</time>
        <extensions>
          <ns3:TrackPointExtension>
            <ns3:hr>172</ns3:hr>
            <ns3:cad>53</ns3:cad>
          </ns3:TrackPointExtension>
        </extensions>
      </trkpt>
      <trkpt lat="45.31487298198044300079345703125" lon="-71.0212008096277713775634765625">
        <ele>736.5999755859375</ele>
        <time>2026-08-21T21:20:27.000Z</time>
        <extensions>
          <ns3:TrackPointExtension>
            <ns3:hr>172</ns3:hr>
            <ns3:cad>55</ns3:cad>
          </ns3:TrackPointExtension>
        </extensions>
      </trkpt>
      <trkpt lat="45.3148552961647510528564453125" lon="-71.0212162323296070098876953125">
        <ele>736.5999755859375</ele>
        <time>2026-08-21T21:20:28.000Z</time>
        <extensions>
          <ns3:TrackPointExtension>
            <ns3:hr>172</ns3:hr>
            <ns3:cad>55</ns3:cad>
          </ns3:TrackPointExtension>
        </extensions>
      </trkpt>
      <trkpt lat="45.314844064414501190185546875" lon="-71.02122503332793712615966796875">
        <ele>736.5999755859375</ele>
        <time>2026-08-21T21:20:29.000Z</time>
        <extensions>
          <ns3:TrackPointExtension>
            <ns3:hr>171</ns3:hr>
            <ns3:cad>55</ns3:cad>
          </ns3:TrackPointExtension>
        </extensions>
      </trkpt>
      <trkpt lat="45.3148351795971393585205078125" lon="-71.0212323255836963653564453125">
        <ele>736.5999755859375</ele>
        <time>2026-08-21T21:20:30.000Z</time>
        <extensions>
          <ns3:TrackPointExtension>
            <ns3:hr>171</ns3:hr>
            <ns3:cad>55</ns3:cad>
          </ns3:TrackPointExtension>
        </extensions>
      </trkpt>
      <trkpt lat="45.3148180805146694183349609375" lon="-71.02124347351491451263427734375">
        <ele>736.5999755859375</ele>
        <time>2026-08-21T21:20:31.000Z</time>
        <extensions>
          <ns3:TrackPointExtension>
            <ns3:hr>171</ns3:hr>
            <ns3:cad>55</ns3:cad>
          </ns3:TrackPointExtension>
        </extensions>
      </trkpt>
      <trkpt lat="45.31480617821216583251953125" lon="-71.02125252597033977508544921875">
        <ele>736.5999755859375</ele>
        <time>2026-08-21T21:20:32.000Z</time>
        <extensions>
          <ns3:TrackPointExtension>
            <ns3:hr>171</ns3:hr>
            <ns3:cad>55</ns3:cad>
          </ns3:TrackPointExtension>
        </extensions>
      </trkpt>
      <trkpt lat="45.31479989178478717803955078125" lon="-71.02126769721508026123046875">
        <ele>736.5999755859375</ele>
        <time>2026-08-21T21:20:33.000Z</time>
        <extensions>
          <ns3:TrackPointExtension>
            <ns3:hr>170</ns3:hr>
            <ns3:cad>57</ns3:cad>
          </ns3:TrackPointExtension>
        </extensions>
      </trkpt>
      <trkpt lat="45.3147934377193450927734375" lon="-71.02127767167985439300537109375">
        <ele>736.79998779296875</ele>
        <time>2026-08-21T21:20:34.000Z</time>
        <extensions>
          <ns3:TrackPointExtension>
            <ns3:hr>170</ns3:hr>
            <ns3:cad>57</ns3:cad>
          </ns3:TrackPointExtension>
        </extensions>
      </trkpt>
      <trkpt lat="45.31478874385356903076171875" lon="-71.0212879814207553863525390625">
        <ele>737</ele>
        <time>2026-08-21T21:20:35.000Z</time>
        <extensions>
          <ns3:TrackPointExtension>
            <ns3:hr>170</ns3:hr>
            <ns3:cad>57</ns3:cad>
          </ns3:TrackPointExtension>
        </extensions>
      </trkpt>
      <trkpt lat="45.31478069722652435302734375" lon="-71.02130298502743244171142578125">
        <ele>737</ele>
        <time>2026-08-21T21:20:36.000Z</time>
        <extensions>
          <ns3:TrackPointExtension>
            <ns3:hr>169</ns3:hr>
            <ns3:cad>57</ns3:cad>
          </ns3:TrackPointExtension>
        </extensions>
      </trkpt>
      <trkpt lat="45.3147733211517333984375" lon="-71.02131664752960205078125">
        <ele>737.20001220703125</ele>
        <time>2026-08-21T21:20:37.000Z</time>
        <extensions>
          <ns3:TrackPointExtension>
            <ns3:hr>169</ns3:hr>
            <ns3:cad>52</ns3:cad>
          </ns3:TrackPointExtension>
        </extensions>
      </trkpt>
      <trkpt lat="45.3147657774388790130615234375" lon="-71.02131790481507778167724609375">
        <ele>737.20001220703125</ele>
        <time>2026-08-21T21:20:38.000Z</time>
        <extensions>
          <ns3:TrackPointExtension>
            <ns3:hr>168</ns3:hr>
            <ns3:cad>52</ns3:cad>
          </ns3:TrackPointExtension>
        </extensions>
      </trkpt>
      <trkpt lat="45.31475261785089969635009765625" lon="-71.02132310159504413604736328125">
        <ele>737.4000244140625</ele>
        <time>2026-08-21T21:20:39.000Z</time>
        <extensions>
          <ns3:TrackPointExtension>
            <ns3:hr>167</ns3:hr>
            <ns3:cad>52</ns3:cad>
          </ns3:TrackPointExtension>
        </extensions>
      </trkpt>
      <trkpt lat="45.3147478401660919189453125" lon="-71.0213278792798519134521484375">
        <ele>737.5999755859375</ele>
        <time>2026-08-21T21:20:40.000Z</time>
        <extensions>
          <ns3:TrackPointExtension>
            <ns3:hr>166</ns3:hr>
            <ns3:cad>52</ns3:cad>
          </ns3:TrackPointExtension>
        </extensions>
      </trkpt>
      <trkpt lat="45.3147406317293643951416015625" lon="-71.02133282460272312164306640625">
        <ele>737.79998779296875</ele>
        <time>2026-08-21T21:20:41.000Z</time>
        <extensions>
          <ns3:TrackPointExtension>
            <ns3:hr>164</ns3:hr>
            <ns3:cad>52</ns3:cad>
          </ns3:TrackPointExtension>
        </extensions>
      </trkpt>
      <trkpt lat="45.3147312439978122711181640625" lon="-71.02133877575397491455078125">
        <ele>738</ele>
        <time>2026-08-21T21:20:42.000Z</time>
        <extensions>
          <ns3:TrackPointExtension>
            <ns3:hr>162</ns3:hr>
            <ns3:cad>52</ns3:cad>
          </ns3:TrackPointExtension>
        </extensions>
      </trkpt>
      <trkpt lat="45.3147288970649242401123046875" lon="-71.0213453136384487152099609375">
        <ele>738.4000244140625</ele>
        <time>2026-08-21T21:20:43.000Z</time>
        <extensions>
          <ns3:TrackPointExtension>
            <ns3:hr>158</ns3:hr>
            <ns3:cad>52</ns3:cad>
          </ns3:TrackPointExtension>
        </extensions>
      </trkpt>
      <trkpt lat="45.31471976079046726226806640625" lon="-71.021356880664825439453125">
        <ele>738.79998779296875</ele>
        <time>2026-08-21T21:20:44.000Z</time>
        <extensions>
          <ns3:TrackPointExtension>
            <ns3:hr>143</ns3:hr>
            <ns3:cad>0</ns3:cad>
          </ns3:TrackPointExtension>
        </extensions>
      </trkpt>
      <trkpt lat="45.31470987014472484588623046875" lon="-71.021361909806728363037109375">
        <ele>739.20001220703125</ele>
        <time>2026-08-21T21:20:45.000Z</time>
        <extensions>
          <ns3:TrackPointExtension>
            <ns3:hr>134</ns3:hr>
            <ns3:cad>0</ns3:cad>
          </ns3:TrackPointExtension>
        </extensions>
      </trkpt>
      <trkpt lat="45.3146973811089992523193359375" lon="-71.021368615329265594482421875">
        <ele>739.4000244140625</ele>
        <time>2026-08-21T21:20:46.000Z</time>
        <extensions>
          <ns3:TrackPointExtension>
            <ns3:hr>133</ns3:hr>
            <ns3:cad>0</ns3:cad>
          </ns3:TrackPointExtension>
        </extensions>
      </trkpt>
      <trkpt lat="45.31468505971133708953857421875" lon="-71.0213734768331050872802734375">
        <ele>739.5999755859375</ele>
        <time>2026-08-21T21:20:47.000Z</time>
        <extensions>
          <ns3:TrackPointExtension>
            <ns3:hr>133</ns3:hr>
            <ns3:cad>0</ns3:cad>
          </ns3:TrackPointExtension>
        </extensions>
      </trkpt>
      <trkpt lat="45.314675085246562957763671875" lon="-71.02138169109821319580078125">
        <ele>739.5999755859375</ele>
        <time>2026-08-21T21:20:48.000Z</time>
        <extensions>
          <ns3:TrackPointExtension>
            <ns3:hr>133</ns3:hr>
            <ns3:cad>0</ns3:cad>
          </ns3:TrackPointExtension>
        </extensions>
      </trkpt>
      <trkpt lat="45.31465974636375904083251953125" lon="-71.02138931863009929656982421875">
        <ele>739.5999755859375</ele>
        <time>2026-08-21T21:20:49.000Z</time>
        <extensions>
          <ns3:TrackPointExtension>
            <ns3:hr>133</ns3:hr>
            <ns3:cad>0</ns3:cad>
          </ns3:TrackPointExtension>
        </extensions>
      </trkpt>
      <trkpt lat="45.31464499421417713165283203125" lon="-71.02139099501073360443115234375">
        <ele>739.5999755859375</ele>
        <time>2026-08-21T21:20:50.000Z</time>
        <extensions>
          <ns3:TrackPointExtension>
            <ns3:hr>133</ns3:hr>
            <ns3:cad>0</ns3:cad>
          </ns3:TrackPointExtension>
        </extensions>
      </trkpt>
      <trkpt lat="45.31462739221751689910888671875" lon="-71.02139803580939769744873046875">
        <ele>739.4000244140625</ele>
        <time>2026-08-21T21:20:51.000Z</time>
        <extensions>
          <ns3:TrackPointExtension>
            <ns3:hr>133</ns3:hr>
            <ns3:cad>0</ns3:cad>
          </ns3:TrackPointExtension>
        </extensions>
      </trkpt>
      <trkpt lat="45.31460995785892009735107421875" lon="-71.0214080102741718292236328125">
        <ele>739.4000244140625</ele>
        <time>2026-08-21T21:20:52.000Z</time>
        <extensions>
          <ns3:TrackPointExtension>
            <ns3:hr>131</ns3:hr>
            <ns3:cad>0</ns3:cad>
          </ns3:TrackPointExtension>
        </extensions>
      </trkpt>
      <trkpt lat="45.3146008215844631195068359375" lon="-71.02141999639570713043212890625">
        <ele>739.4000244140625</ele>
        <time>2026-08-21T21:20:53.000Z</time>
        <extensions>
          <ns3:TrackPointExtension>
            <ns3:hr>128</ns3:hr>
            <ns3:cad>0</ns3:cad>
          </ns3:TrackPointExtension>
        </extensions>
      </trkpt>
      <trkpt lat="45.31458632089197635650634765625" lon="-71.02142938412725925445556640625">
        <ele>739.5999755859375</ele>
        <time>2026-08-21T21:20:54.000Z</time>
        <extensions>
          <ns3:TrackPointExtension>
            <ns3:hr>127</ns3:hr>
            <ns3:cad>0</ns3:cad>
          </ns3:TrackPointExtension>
        </extensions>
      </trkpt>
      <trkpt lat="45.31457550823688507080078125" lon="-71.021439693868160247802734375">
        <ele>739.5999755859375</ele>
        <time>2026-08-21T21:20:55.000Z</time>
        <extensions>
          <ns3:TrackPointExtension>
            <ns3:hr>127</ns3:hr>
            <ns3:cad>0</ns3:cad>
          </ns3:TrackPointExtension>
        </extensions>
      </trkpt>
      <trkpt lat="45.31456746160984039306640625" lon="-71.02144883014261722564697265625">
        <ele>739.79998779296875</ele>
        <time>2026-08-21T21:20:56.000Z</time>
        <extensions>
          <ns3:TrackPointExtension>
            <ns3:hr>127</ns3:hr>
            <ns3:cad>70</ns3:cad>
          </ns3:TrackPointExtension>
        </extensions>
      </trkpt>
      <trkpt lat="45.31455899588763713836669921875" lon="-71.0214593075215816497802734375">
        <ele>739.79998779296875</ele>
        <time>2026-08-21T21:20:57.000Z</time>
        <extensions>
          <ns3:TrackPointExtension>
            <ns3:hr>128</ns3:hr>
            <ns3:cad>70</ns3:cad>
          </ns3:TrackPointExtension>
        </extensions>
      </trkpt>
      <trkpt lat="45.314548015594482421875" lon="-71.02147028781473636627197265625">
        <ele>740</ele>
        <time>2026-08-21T21:20:58.000Z</time>
        <extensions>
          <ns3:TrackPointExtension>
            <ns3:hr>128</ns3:hr>
            <ns3:cad>70</ns3:cad>
          </ns3:TrackPointExtension>
        </extensions>
      </trkpt>
      <trkpt lat="45.31453703530132770538330078125" lon="-71.0214837826788425445556640625">
        <ele>740</ele>
        <time>2026-08-21T21:20:59.000Z</time>
        <extensions>
          <ns3:TrackPointExtension>
            <ns3:hr>128</ns3:hr>
            <ns3:cad>70</ns3:cad>
          </ns3:TrackPointExtension>
        </extensions>
      </trkpt>
      <trkpt lat="45.314526893198490142822265625" lon="-71.02149426005780696868896484375">
        <ele>740</ele>
        <time>2026-08-21T21:21:00.000Z</time>
        <extensions>
          <ns3:TrackPointExtension>
            <ns3:hr>129</ns3:hr>
            <ns3:cad>70</ns3:cad>
          </ns3:TrackPointExtension>
        </extensions>
      </trkpt>
      <trkpt lat="45.3145210258662700653076171875" lon="-71.02150507271289825439453125">
        <ele>740</ele>
        <time>2026-08-21T21:21:01.000Z</time>
        <extensions>
          <ns3:TrackPointExtension>
            <ns3:hr>129</ns3:hr>
            <ns3:cad>51</ns3:cad>
          </ns3:TrackPointExtension>
        </extensions>
      </trkpt>
      <trkpt lat="45.314510129392147064208984375" lon="-71.021518819034099578857421875">
        <ele>740</ele>
        <time>2026-08-21T21:21:02.000Z</time>
        <extensions>
          <ns3:TrackPointExtension>
            <ns3:hr>129</ns3:hr>
            <ns3:cad>51</ns3:cad>
          </ns3:TrackPointExtension>
        </extensions>
      </trkpt>
      <trkpt lat="45.314495377242565155029296875" lon="-71.021528206765651702880859375">
        <ele>740</ele>
        <time>2026-08-21T21:21:03.000Z</time>
        <extensions>
          <ns3:TrackPointExtension>
            <ns3:hr>129</ns3:hr>
            <ns3:cad>51</ns3:cad>
          </ns3:TrackPointExtension>
        </extensions>
      </trkpt>
      <trkpt lat="45.3144868277013301849365234375" lon="-71.02154036052525043487548828125">
        <ele>740</ele>
        <time>2026-08-21T21:21:04.000Z</time>
        <extensions>
          <ns3:TrackPointExtension>
            <ns3:hr>130</ns3:hr>
            <ns3:cad>51</ns3:cad>
          </ns3:TrackPointExtension>
        </extensions>
      </trkpt>
      <trkpt lat="45.314477272331714630126953125" lon="-71.0215555317699909210205078125">
        <ele>740</ele>
        <time>2026-08-21T21:21:05.000Z</time>
        <extensions>
          <ns3:TrackPointExtension>
            <ns3:hr>130</ns3:hr>
            <ns3:cad>51</ns3:cad>
          </ns3:TrackPointExtension>
        </extensions>
      </trkpt>
      <trkpt lat="45.31446981243789196014404296875" lon="-71.021567769348621368408203125">
        <ele>740.20001220703125</ele>
        <time>2026-08-21T21:21:06.000Z</time>
        <extensions>
          <ns3:TrackPointExtension>
            <ns3:hr>131</ns3:hr>
            <ns3:cad>53</ns3:cad>
          </ns3:TrackPointExtension>
        </extensions>
      </trkpt>
      <trkpt lat="45.31446059234440326690673828125" lon="-71.0215800069272518157958984375">
        <ele>740.20001220703125</ele>
        <time>2026-08-21T21:21:07.000Z</time>
        <extensions>
          <ns3:TrackPointExtension>
            <ns3:hr>131</ns3:hr>
            <ns3:cad>53</ns3:cad>
          </ns3:TrackPointExtension>
        </extensions>
      </trkpt>
      <trkpt lat="45.31445304863154888153076171875" lon="-71.02159618400037288665771484375">
        <ele>740.4000244140625</ele>
        <time>2026-08-21T21:21:08.000Z</time>
        <extensions>
          <ns3:TrackPointExtension>
            <ns3:hr>132</ns3:hr>
            <ns3:cad>53</ns3:cad>
          </ns3:TrackPointExtension>
        </extensions>
      </trkpt>
      <trkpt lat="45.3144452534615993499755859375" lon="-71.02160540409386157989501953125">
        <ele>740.4000244140625</ele>
        <time>2026-08-21T21:21:09.000Z</time>
        <extensions>
          <ns3:TrackPointExtension>
            <ns3:hr>132</ns3:hr>
            <ns3:cad>53</ns3:cad>
          </ns3:TrackPointExtension>
        </extensions>
      </trkpt>
      <trkpt lat="45.3144367039203643798828125" lon="-71.0216145403683185577392578125">
        <ele>740.4000244140625</ele>
        <time>2026-08-21T21:21:10.000Z</time>
        <extensions>
          <ns3:TrackPointExtension>
            <ns3:hr>132</ns3:hr>
            <ns3:cad>53</ns3:cad>
          </ns3:TrackPointExtension>
        </extensions>
      </trkpt>
      <trkpt lat="45.3144294954836368560791015625" lon="-71.0216333158314228057861328125">
        <ele>740.4000244140625</ele>
        <time>2026-08-21T21:21:11.000Z</time>
        <extensions>
          <ns3:TrackPointExtension>
            <ns3:hr>132</ns3:hr>
            <ns3:cad>53</ns3:cad>
          </ns3:TrackPointExtension>
        </extensions>
      </trkpt>
      <trkpt lat="45.31442639417946338653564453125" lon="-71.0216510854661464691162109375">
        <ele>740.20001220703125</ele>
        <time>2026-08-21T21:21:12.000Z</time>
        <extensions>
          <ns3:TrackPointExtension>
            <ns3:hr>131</ns3:hr>
            <ns3:cad>53</ns3:cad>
          </ns3:TrackPointExtension>
        </extensions>
      </trkpt>
      <trkpt lat="45.31442270614206790924072265625" lon="-71.02166659198701381683349609375">
        <ele>740</ele>
        <time>2026-08-21T21:21:13.000Z</time>
        <extensions>
          <ns3:TrackPointExtension>
            <ns3:hr>131</ns3:hr>
            <ns3:cad>53</ns3:cad>
          </ns3:TrackPointExtension>
        </extensions>
      </trkpt>
      <trkpt lat="45.3144180960953235626220703125" lon="-71.02168838493525981903076171875">
        <ele>739.79998779296875</ele>
        <time>2026-08-21T21:21:14.000Z</time>
        <extensions>
          <ns3:TrackPointExtension>
            <ns3:hr>131</ns3:hr>
            <ns3:cad>0</ns3:cad>
          </ns3:TrackPointExtension>
        </extensions>
      </trkpt>
      <trkpt lat="45.3144110552966594696044921875" lon="-71.021706573665142059326171875">
        <ele>739.5999755859375</ele>
        <time>2026-08-21T21:21:15.000Z</time>
        <extensions>
          <ns3:TrackPointExtension>
            <ns3:hr>131</ns3:hr>
            <ns3:cad>0</ns3:cad>
          </ns3:TrackPointExtension>
        </extensions>
      </trkpt>
      <trkpt lat="45.31440309248864650726318359375" lon="-71.021736077964305877685546875">
        <ele>739.20001220703125</ele>
        <time>2026-08-21T21:21:16.000Z</time>
        <extensions>
          <ns3:TrackPointExtension>
            <ns3:hr>131</ns3:hr>
            <ns3:cad>0</ns3:cad>
          </ns3:TrackPointExtension>
        </extensions>
      </trkpt>
      <trkpt lat="45.31440258957445621490478515625" lon="-71.02176248095929622650146484375">
        <ele>738.79998779296875</ele>
        <time>2026-08-21T21:21:17.000Z</time>
        <extensions>
          <ns3:TrackPointExtension>
            <ns3:hr>130</ns3:hr>
            <ns3:cad>0</ns3:cad>
          </ns3:TrackPointExtension>
        </extensions>
      </trkpt>
      <trkpt lat="45.31440309248864650726318359375" lon="-71.021776981651782989501953125">
        <ele>738.4000244140625</ele>
        <time>2026-08-21T21:21:18.000Z</time>
        <extensions>
          <ns3:TrackPointExtension>
            <ns3:hr>130</ns3:hr>
            <ns3:cad>0</ns3:cad>
          </ns3:TrackPointExtension>
        </extensions>
      </trkpt>
      <trkpt lat="45.31440191902220249176025390625" lon="-71.02179349400103092193603515625">
        <ele>738</ele>
        <time>2026-08-21T21:21:19.000Z</time>
        <extensions>
          <ns3:TrackPointExtension>
            <ns3:hr>130</ns3:hr>
            <ns3:cad>0</ns3:cad>
          </ns3:TrackPointExtension>
        </extensions>
      </trkpt>
      <trkpt lat="45.31440057791769504547119140625" lon="-71.02180774323642253875732421875">
        <ele>737.5999755859375</ele>
        <time>2026-08-21T21:21:20.000Z</time>
        <extensions>
          <ns3:TrackPointExtension>
            <ns3:hr>131</ns3:hr>
            <ns3:cad>0</ns3:cad>
          </ns3:TrackPointExtension>
        </extensions>
      </trkpt>
      <trkpt lat="45.314400829374790191650390625" lon="-71.02182266302406787872314453125">
        <ele>737.20001220703125</ele>
        <time>2026-08-21T21:21:21.000Z</time>
        <extensions>
          <ns3:TrackPointExtension>
            <ns3:hr>131</ns3:hr>
            <ns3:cad>0</ns3:cad>
          </ns3:TrackPointExtension>
        </extensions>
      </trkpt>
      <trkpt lat="45.31440745107829570770263671875" lon="-71.02183758281171321868896484375">
        <ele>736.79998779296875</ele>
        <time>2026-08-21T21:21:22.000Z</time>
        <extensions>
          <ns3:TrackPointExtension>
            <ns3:hr>131</ns3:hr>
            <ns3:cad>0</ns3:cad>
          </ns3:TrackPointExtension>
        </extensions>
      </trkpt>
      <trkpt lat="45.31440879218280315399169921875" lon="-71.02184764109551906585693359375">
        <ele>736.5999755859375</ele>
        <time>2026-08-21T21:21:23.000Z</time>
        <extensions>
          <ns3:TrackPointExtension>
            <ns3:hr>131</ns3:hr>
            <ns3:cad>0</ns3:cad>
          </ns3:TrackPointExtension>
        </extensions>
      </trkpt>
      <trkpt lat="45.3144070319831371307373046875" lon="-71.02186121977865695953369140625">
        <ele>736.20001220703125</ele>
        <time>2026-08-21T21:21:24.000Z</time>
        <extensions>
          <ns3:TrackPointExtension>
            <ns3:hr>131</ns3:hr>
            <ns3:cad>0</ns3:cad>
          </ns3:TrackPointExtension>
        </extensions>
      </trkpt>
      <trkpt lat="45.31440409831702709197998046875" lon="-71.0218760557472705841064453125">
        <ele>735.79998779296875</ele>
        <time>2026-08-21T21:21:25.000Z</time>
        <extensions>
          <ns3:TrackPointExtension>
            <ns3:hr>132</ns3:hr>
            <ns3:cad>0</ns3:cad>
          </ns3:TrackPointExtension>
        </extensions>
      </trkpt>
      <trkpt lat="45.3144033439457416534423828125" lon="-71.02188921533524990081787109375">
        <ele>735.5999755859375</ele>
        <time>2026-08-21T21:21:26.000Z</time>
        <extensions>
          <ns3:TrackPointExtension>
            <ns3:hr>131</ns3:hr>
            <ns3:cad>0</ns3:cad>
          </ns3:TrackPointExtension>
        </extensions>
      </trkpt>
      <trkpt lat="45.31440527178347110748291015625" lon="-71.02191486395895481109619140625">
        <ele>735.20001220703125</ele>
        <time>2026-08-21T21:21:27.000Z</time>
        <extensions>
          <ns3:TrackPointExtension>
            <ns3:hr>131</ns3:hr>
            <ns3:cad>0</ns3:cad>
          </ns3:TrackPointExtension>
        </extensions>
      </trkpt>
      <trkpt lat="45.314410217106342315673828125" lon="-71.02193850092589855194091796875">
        <ele>734.79998779296875</ele>
        <time>2026-08-21T21:21:28.000Z</time>
        <extensions>
          <ns3:TrackPointExtension>
            <ns3:hr>131</ns3:hr>
            <ns3:cad>0</ns3:cad>
          </ns3:TrackPointExtension>
        </extensions>
      </trkpt>
      <trkpt lat="45.3144157491624355316162109375" lon="-71.021956019103527069091796875">
        <ele>734.4000244140625</ele>
        <time>2026-08-21T21:21:29.000Z</time>
        <extensions>
          <ns3:TrackPointExtension>
            <ns3:hr>131</ns3:hr>
            <ns3:cad>0</ns3:cad>
          </ns3:TrackPointExtension>
        </extensions>
      </trkpt>
      <trkpt lat="45.31442253850400447845458984375" lon="-71.02197169326245784759521484375">
        <ele>734.20001220703125</ele>
        <time>2026-08-21T21:21:30.000Z</time>
        <extensions>
          <ns3:TrackPointExtension>
            <ns3:hr>132</ns3:hr>
            <ns3:cad>0</ns3:cad>
          </ns3:TrackPointExtension>
        </extensions>
      </trkpt>
      <trkpt lat="45.31442664563655853271484375" lon="-71.0219870321452617645263671875">
        <ele>734</ele>
        <time>2026-08-21T21:21:31.000Z</time>
        <extensions>
          <ns3:TrackPointExtension>
            <ns3:hr>131</ns3:hr>
            <ns3:cad>71</ns3:cad>
          </ns3:TrackPointExtension>
        </extensions>
      </trkpt>
      <trkpt lat="45.31442874111235141754150390625" lon="-71.02200656197965145111083984375">
        <ele>734</ele>
        <time>2026-08-21T21:21:32.000Z</time>
        <extensions>
          <ns3:TrackPointExtension>
            <ns3:hr>131</ns3:hr>
            <ns3:cad>71</ns3:cad>
          </ns3:TrackPointExtension>
        </extensions>
      </trkpt>
      <trkpt lat="45.31443159095942974090576171875" lon="-71.02203522808849811553955078125">
        <ele>734</ele>
        <time>2026-08-21T21:21:33.000Z</time>
        <extensions>
          <ns3:TrackPointExtension>
            <ns3:hr>132</ns3:hr>
            <ns3:cad>71</ns3:cad>
          </ns3:TrackPointExtension>
        </extensions>
      </trkpt>
      <trkpt lat="45.31443594954907894134521484375" lon="-71.02205987088382244110107421875">
        <ele>734</ele>
        <time>2026-08-21T21:21:34.000Z</time>
        <extensions>
          <ns3:TrackPointExtension>
            <ns3:hr>131</ns3:hr>
            <ns3:cad>71</ns3:cad>
          </ns3:TrackPointExtension>
        </extensions>
      </trkpt>
      <trkpt lat="45.3144375421106815338134765625" lon="-71.022082082927227020263671875">
        <ele>734.20001220703125</ele>
        <time>2026-08-21T21:21:35.000Z</time>
        <extensions>
          <ns3:TrackPointExtension>
            <ns3:hr>130</ns3:hr>
            <ns3:cad>71</ns3:cad>
          </ns3:TrackPointExtension>
        </extensions>
      </trkpt>
      <trkpt lat="45.31442941166460514068603515625" lon="-71.02211670018732547760009765625">
        <ele>734.20001220703125</ele>
        <time>2026-08-21T21:21:36.000Z</time>
        <extensions>
          <ns3:TrackPointExtension>
            <ns3:hr>129</ns3:hr>
            <ns3:cad>0</ns3:cad>
          </ns3:TrackPointExtension>
        </extensions>
      </trkpt>
      <trkpt lat="45.31442664563655853271484375" lon="-71.0221405886113643646240234375">
        <ele>734</ele>
        <time>2026-08-21T21:21:37.000Z</time>
        <extensions>
          <ns3:TrackPointExtension>
            <ns3:hr>128</ns3:hr>
            <ns3:cad>0</ns3:cad>
          </ns3:TrackPointExtension>
        </extensions>
      </trkpt>
      <trkpt lat="45.31442589126527309417724609375" lon="-71.0221707634627819061279296875">
        <ele>734</ele>
        <time>2026-08-21T21:21:38.000Z</time>
        <extensions>
          <ns3:TrackPointExtension>
            <ns3:hr>127</ns3:hr>
            <ns3:cad>0</ns3:cad>
          </ns3:TrackPointExtension>
        </extensions>
      </trkpt>
      <trkpt lat="45.31443444080650806427001953125" lon="-71.02220353670418262481689453125">
        <ele>734.20001220703125</ele>
        <time>2026-08-21T21:21:39.000Z</time>
        <extensions>
          <ns3:TrackPointExtension>
            <ns3:hr>127</ns3:hr>
            <ns3:cad>0</ns3:cad>
          </ns3:TrackPointExtension>
        </extensions>
      </trkpt>
      <trkpt lat="45.31443863175809383392333984375" lon="-71.02222432382404804229736328125">
        <ele>734</ele>
        <time>2026-08-21T21:21:40.000Z</time>
        <extensions>
          <ns3:TrackPointExtension>
            <ns3:hr>126</ns3:hr>
            <ns3:cad>70</ns3:cad>
          </ns3:TrackPointExtension>
        </extensions>
      </trkpt>
      <trkpt lat="45.31444349326193332672119140625" lon="-71.02224729023873805999755859375">
        <ele>734</ele>
        <time>2026-08-21T21:21:41.000Z</time>
        <extensions>
          <ns3:TrackPointExtension>
            <ns3:hr>126</ns3:hr>
            <ns3:cad>70</ns3:cad>
          </ns3:TrackPointExtension>
        </extensions>
      </trkpt>
      <trkpt lat="45.3144429065287113189697265625" lon="-71.02226547896862030029296875">
        <ele>734.20001220703125</ele>
        <time>2026-08-21T21:21:42.000Z</time>
        <extensions>
          <ns3:TrackPointExtension>
            <ns3:hr>125</ns3:hr>
            <ns3:cad>0</ns3:cad>
          </ns3:TrackPointExtension>
        </extensions>
      </trkpt>
      <trkpt lat="45.31444265507161617279052734375" lon="-71.02229288779199123382568359375">
        <ele>734.20001220703125</ele>
        <time>2026-08-21T21:21:43.000Z</time>
        <extensions>
          <ns3:TrackPointExtension>
            <ns3:hr>124</ns3:hr>
            <ns3:cad>0</ns3:cad>
          </ns3:TrackPointExtension>
        </extensions>
      </trkpt>
      <trkpt lat="45.314438045024871826171875" lon="-71.02230571210384368896484375">
        <ele>734.20001220703125</ele>
        <time>2026-08-21T21:21:44.000Z</time>
        <extensions>
          <ns3:TrackPointExtension>
            <ns3:hr>122</ns3:hr>
            <ns3:cad>0</ns3:cad>
          </ns3:TrackPointExtension>
        </extensions>
      </trkpt>
      <trkpt lat="45.314433686435222625732421875" lon="-71.02232373319566249847412109375">
        <ele>734.20001220703125</ele>
        <time>2026-08-21T21:21:45.000Z</time>
        <extensions>
          <ns3:TrackPointExtension>
            <ns3:hr>122</ns3:hr>
            <ns3:cad>0</ns3:cad>
          </ns3:TrackPointExtension>
        </extensions>
      </trkpt>
      <trkpt lat="45.31443175859749317169189453125" lon="-71.02234837599098682403564453125">
        <ele>734.20001220703125</ele>
        <time>2026-08-21T21:21:46.000Z</time>
        <extensions>
          <ns3:TrackPointExtension>
            <ns3:hr>122</ns3:hr>
            <ns3:cad>0</ns3:cad>
          </ns3:TrackPointExtension>
        </extensions>
      </trkpt>
      <trkpt lat="45.31443259678781032562255859375" lon="-71.0223675705492496490478515625">
        <ele>734.20001220703125</ele>
        <time>2026-08-21T21:21:47.000Z</time>
        <extensions>
          <ns3:TrackPointExtension>
            <ns3:hr>122</ns3:hr>
            <ns3:cad>0</ns3:cad>
          </ns3:TrackPointExtension>
        </extensions>
      </trkpt>
      <trkpt lat="45.3144355304539203643798828125" lon="-71.02239062078297138214111328125">
        <ele>734.20001220703125</ele>
        <time>2026-08-21T21:21:48.000Z</time>
        <extensions>
          <ns3:TrackPointExtension>
            <ns3:hr>123</ns3:hr>
            <ns3:cad>0</ns3:cad>
          </ns3:TrackPointExtension>
        </extensions>
      </trkpt>
      <trkpt lat="45.31443812884390354156494140625" lon="-71.02241241373121738433837890625">
        <ele>734.4000244140625</ele>
        <time>2026-08-21T21:21:49.000Z</time>
        <extensions>
          <ns3:TrackPointExtension>
            <ns3:hr>123</ns3:hr>
            <ns3:cad>0</ns3:cad>
          </ns3:TrackPointExtension>
        </extensions>
      </trkpt>
      <trkpt lat="45.3144422359764575958251953125" lon="-71.02243035100400447845458984375">
        <ele>734.4000244140625</ele>
        <time>2026-08-21T21:21:50.000Z</time>
        <extensions>
          <ns3:TrackPointExtension>
            <ns3:hr>123</ns3:hr>
            <ns3:cad>0</ns3:cad>
          </ns3:TrackPointExtension>
        </extensions>
      </trkpt>
      <trkpt lat="45.31445304863154888153076171875" lon="-71.02244577370584011077880859375">
        <ele>734.4000244140625</ele>
        <time>2026-08-21T21:21:51.000Z</time>
        <extensions>
          <ns3:TrackPointExtension>
            <ns3:hr>123</ns3:hr>
            <ns3:cad>0</ns3:cad>
          </ns3:TrackPointExtension>
        </extensions>
      </trkpt>
      <trkpt lat="45.31446419656276702880859375" lon="-71.022470332682132720947265625">
        <ele>734.5999755859375</ele>
        <time>2026-08-21T21:21:52.000Z</time>
        <extensions>
          <ns3:TrackPointExtension>
            <ns3:hr>122</ns3:hr>
            <ns3:cad>58</ns3:cad>
          </ns3:TrackPointExtension>
        </extensions>
      </trkpt>
      <trkpt lat="45.3144715726375579833984375" lon="-71.0224847495555877685546875">
        <ele>734.5999755859375</ele>
        <time>2026-08-21T21:21:53.000Z</time>
        <extensions>
          <ns3:TrackPointExtension>
            <ns3:hr>123</ns3:hr>
            <ns3:cad>56</ns3:cad>
          </ns3:TrackPointExtension>
        </extensions>
      </trkpt>
      <trkpt lat="45.31448054127395153045654296875" lon="-71.0225021839141845703125">
        <ele>734.5999755859375</ele>
        <time>2026-08-21T21:21:54.000Z</time>
        <extensions>
          <ns3:TrackPointExtension>
            <ns3:hr>123</ns3:hr>
            <ns3:cad>56</ns3:cad>
          </ns3:TrackPointExtension>
        </extensions>
      </trkpt>
      <trkpt lat="45.31449210830032825469970703125" lon="-71.02252162992954254150390625">
        <ele>734.79998779296875</ele>
        <time>2026-08-21T21:21:55.000Z</time>
        <extensions>
          <ns3:TrackPointExtension>
            <ns3:hr>123</ns3:hr>
            <ns3:cad>56</ns3:cad>
          </ns3:TrackPointExtension>
        </extensions>
      </trkpt>
      <trkpt lat="45.31450082547962665557861328125" lon="-71.0225429199635982513427734375">
        <ele>734.79998779296875</ele>
        <time>2026-08-21T21:21:56.000Z</time>
        <extensions>
          <ns3:TrackPointExtension>
            <ns3:hr>124</ns3:hr>
            <ns3:cad>56</ns3:cad>
          </ns3:TrackPointExtension>
        </extensions>
      </trkpt>
      <trkpt lat="45.3145039267838001251220703125" lon="-71.02257669903337955474853515625">
        <ele>734.79998779296875</ele>
        <time>2026-08-21T21:21:57.000Z</time>
        <extensions>
          <ns3:TrackPointExtension>
            <ns3:hr>123</ns3:hr>
            <ns3:cad>0</ns3:cad>
          </ns3:TrackPointExtension>
        </extensions>
      </trkpt>
      <trkpt lat="45.3145116381347179412841796875" lon="-71.02259128354489803314208984375">
        <ele>734.79998779296875</ele>
        <time>2026-08-21T21:21:58.000Z</time>
        <extensions>
          <ns3:TrackPointExtension>
            <ns3:hr>123</ns3:hr>
            <ns3:cad>0</ns3:cad>
          </ns3:TrackPointExtension>
        </extensions>
      </trkpt>
      <trkpt lat="45.314518176019191741943359375" lon="-71.02259941399097442626953125">
        <ele>734.79998779296875</ele>
        <time>2026-08-21T21:21:59.000Z</time>
        <extensions>
          <ns3:TrackPointExtension>
            <ns3:hr>124</ns3:hr>
            <ns3:cad>0</ns3:cad>
          </ns3:TrackPointExtension>
        </extensions>
      </trkpt>
      <trkpt lat="45.31452546827495098114013671875" lon="-71.02262464351952075958251953125">
        <ele>734.79998779296875</ele>
        <time>2026-08-21T21:22:00.000Z</time>
        <extensions>
          <ns3:TrackPointExtension>
            <ns3:hr>124</ns3:hr>
            <ns3:cad>0</ns3:cad>
          </ns3:TrackPointExtension>
        </extensions>
      </trkpt>
      <trkpt lat="45.314526893198490142822265625" lon="-71.022634617984294891357421875">
        <ele>734.79998779296875</ele>
        <time>2026-08-21T21:22:01.000Z</time>
        <extensions>
          <ns3:TrackPointExtension>
            <ns3:hr>124</ns3:hr>
            <ns3:cad>0</ns3:cad>
          </ns3:TrackPointExtension>
        </extensions>
      </trkpt>
      <trkpt lat="45.314530245959758758544921875" lon="-71.02265364490449428558349609375">
        <ele>735</ele>
        <time>2026-08-21T21:22:02.000Z</time>
        <extensions>
          <ns3:TrackPointExtension>
            <ns3:hr>123</ns3:hr>
            <ns3:cad>0</ns3:cad>
          </ns3:TrackPointExtension>
        </extensions>
      </trkpt>
      <trkpt lat="45.3145398013293743133544921875" lon="-71.0226730071008205413818359375">
        <ele>735</ele>
        <time>2026-08-21T21:22:03.000Z</time>
        <extensions>
          <ns3:TrackPointExtension>
            <ns3:hr>124</ns3:hr>
            <ns3:cad>0</ns3:cad>
          </ns3:TrackPointExtension>
        </extensions>
      </trkpt>
      <trkpt lat="45.31455530785024166107177734375" lon="-71.0226783715188503265380859375">
        <ele>735.20001220703125</ele>
        <time>2026-08-21T21:22:04.000Z</time>
        <extensions>
          <ns3:TrackPointExtension>
            <ns3:hr>124</ns3:hr>
            <ns3:cad>0</ns3:cad>
          </ns3:TrackPointExtension>
        </extensions>
      </trkpt>
      <trkpt lat="45.314563773572444915771484375" lon="-71.0226807184517383575439453125">
        <ele>735.4000244140625</ele>
        <time>2026-08-21T21:22:05.000Z</time>
        <extensions>
          <ns3:TrackPointExtension>
            <ns3:hr>123</ns3:hr>
            <ns3:cad>0</ns3:cad>
          </ns3:TrackPointExtension>
        </extensions>
      </trkpt>
      <trkpt lat="45.314572155475616455078125" lon="-71.0226911120116710662841796875">
        <ele>735.4000244140625</ele>
        <time>2026-08-21T21:22:06.000Z</time>
        <extensions>
          <ns3:TrackPointExtension>
            <ns3:hr>124</ns3:hr>
            <ns3:cad>0</ns3:cad>
          </ns3:TrackPointExtension>
        </extensions>
      </trkpt>
      <trkpt lat="45.31458196230232715606689453125" lon="-71.02270108647644519805908203125">
        <ele>735.5999755859375</ele>
        <time>2026-08-21T21:22:07.000Z</time>
        <extensions>
          <ns3:TrackPointExtension>
            <ns3:hr>124</ns3:hr>
            <ns3:cad>55</ns3:cad>
          </ns3:TrackPointExtension>
        </extensions>
      </trkpt>
      <trkpt lat="45.31459151767194271087646484375" lon="-71.0227127373218536376953125">
        <ele>735.79998779296875</ele>
        <time>2026-08-21T21:22:08.000Z</time>
        <extensions>
          <ns3:TrackPointExtension>
            <ns3:hr>124</ns3:hr>
            <ns3:cad>55</ns3:cad>
          </ns3:TrackPointExtension>
        </extensions>
      </trkpt>
      <trkpt lat="45.3146016597747802734375" lon="-71.02272287942469120025634765625">
        <ele>735.79998779296875</ele>
        <time>2026-08-21T21:22:09.000Z</time>
        <extensions>
          <ns3:TrackPointExtension>
            <ns3:hr>123</ns3:hr>
            <ns3:cad>51</ns3:cad>
          </ns3:TrackPointExtension>
        </extensions>
      </trkpt>
      <trkpt lat="45.3146068565547466278076171875" lon="-71.0227333568036556243896484375">
        <ele>736</ele>
        <time>2026-08-21T21:22:10.000Z</time>
        <extensions>
          <ns3:TrackPointExtension>
            <ns3:hr>123</ns3:hr>
            <ns3:cad>50</ns3:cad>
          </ns3:TrackPointExtension>
        </extensions>
      </trkpt>
      <trkpt lat="45.31461414881050586700439453125" lon="-71.02274433709681034088134765625">
        <ele>736.4000244140625</ele>
        <time>2026-08-21T21:22:11.000Z</time>
        <extensions>
          <ns3:TrackPointExtension>
            <ns3:hr>123</ns3:hr>
            <ns3:cad>50</ns3:cad>
          </ns3:TrackPointExtension>
        </extensions>
      </trkpt>
      <trkpt lat="45.3146164119243621826171875" lon="-71.02275221608579158782958984375">
        <ele>736.5999755859375</ele>
        <time>2026-08-21T21:22:12.000Z</time>
        <extensions>
          <ns3:TrackPointExtension>
            <ns3:hr>123</ns3:hr>
            <ns3:cad>50</ns3:cad>
          </ns3:TrackPointExtension>
        </extensions>
      </trkpt>
      <trkpt lat="45.31462001614272594451904296875" lon="-71.022756993770599365234375">
        <ele>736.79998779296875</ele>
        <time>2026-08-21T21:22:13.000Z</time>
        <extensions>
          <ns3:TrackPointExtension>
            <ns3:hr>124</ns3:hr>
            <ns3:cad>50</ns3:cad>
          </ns3:TrackPointExtension>
        </extensions>
      </trkpt>
      <trkpt lat="45.31462638638913631439208984375" lon="-71.02277451194822788238525390625">
        <ele>737.20001220703125</ele>
        <time>2026-08-21T21:22:14.000Z</time>
        <extensions>
          <ns3:TrackPointExtension>
            <ns3:hr>124</ns3:hr>
            <ns3:cad>51</ns3:cad>
          </ns3:TrackPointExtension>
        </extensions>
      </trkpt>
      <trkpt lat="45.314628817141056060791015625" lon="-71.0227866657078266143798828125">
        <ele>737.4000244140625</ele>
        <time>2026-08-21T21:22:15.000Z</time>
        <extensions>
          <ns3:TrackPointExtension>
            <ns3:hr>124</ns3:hr>
            <ns3:cad>51</ns3:cad>
          </ns3:TrackPointExtension>
        </extensions>
      </trkpt>
      <trkpt lat="45.3146325051784515380859375" lon="-71.02280267514288425445556640625">
        <ele>737.79998779296875</ele>
        <time>2026-08-21T21:22:16.000Z</time>
        <extensions>
          <ns3:TrackPointExtension>
            <ns3:hr>125</ns3:hr>
            <ns3:cad>51</ns3:cad>
          </ns3:TrackPointExtension>
        </extensions>
      </trkpt>
      <trkpt lat="45.31464264728128910064697265625" lon="-71.022812314331531524658203125">
        <ele>738</ele>
        <time>2026-08-21T21:22:17.000Z</time>
        <extensions>
          <ns3:TrackPointExtension>
            <ns3:hr>125</ns3:hr>
            <ns3:cad>51</ns3:cad>
          </ns3:TrackPointExtension>
        </extensions>
      </trkpt>
      <trkpt lat="45.31464583240449428558349609375" lon="-71.02281793020665645599365234375">
        <ele>738.20001220703125</ele>
        <time>2026-08-21T21:22:18.000Z</time>
        <extensions>
          <ns3:TrackPointExtension>
            <ns3:hr>126</ns3:hr>
            <ns3:cad>51</ns3:cad>
          </ns3:TrackPointExtension>
        </extensions>
      </trkpt>
      <trkpt lat="45.31465438194572925567626953125" lon="-71.02283335290849208831787109375">
        <ele>738.4000244140625</ele>
        <time>2026-08-21T21:22:19.000Z</time>
        <extensions>
          <ns3:TrackPointExtension>
            <ns3:hr>126</ns3:hr>
            <ns3:cad>47</ns3:cad>
          </ns3:TrackPointExtension>
        </extensions>
      </trkpt>
      <trkpt lat="45.31466896645724773406982421875" lon="-71.0228413157165050506591796875">
        <ele>738.4000244140625</ele>
        <time>2026-08-21T21:22:20.000Z</time>
        <extensions>
          <ns3:TrackPointExtension>
            <ns3:hr>126</ns3:hr>
            <ns3:cad>47</ns3:cad>
          </ns3:TrackPointExtension>
        </extensions>
      </trkpt>
      <trkpt lat="45.3146806173026561737060546875" lon="-71.022847853600978851318359375">
        <ele>738.5999755859375</ele>
        <time>2026-08-21T21:22:21.000Z</time>
        <extensions>
          <ns3:TrackPointExtension>
            <ns3:hr>126</ns3:hr>
            <ns3:cad>47</ns3:cad>
          </ns3:TrackPointExtension>
        </extensions>
      </trkpt>
      <trkpt lat="45.31469042412936687469482421875" lon="-71.02284357883036136627197265625">
        <ele>738.5999755859375</ele>
        <time>2026-08-21T21:22:22.000Z</time>
        <extensions>
          <ns3:TrackPointExtension>
            <ns3:hr>126</ns3:hr>
            <ns3:cad>47</ns3:cad>
          </ns3:TrackPointExtension>
        </extensions>
      </trkpt>
      <trkpt lat="45.3147014044225215911865234375" lon="-71.02284307591617107391357421875">
        <ele>738.5999755859375</ele>
        <time>2026-08-21T21:22:23.000Z</time>
        <extensions>
          <ns3:TrackPointExtension>
            <ns3:hr>126</ns3:hr>
            <ns3:cad>47</ns3:cad>
          </ns3:TrackPointExtension>
        </extensions>
      </trkpt>
      <trkpt lat="45.31471841968595981597900390625" lon="-71.0228466801345348358154296875">
        <ele>738.5999755859375</ele>
        <time>2026-08-21T21:22:24.000Z</time>
        <extensions>
          <ns3:TrackPointExtension>
            <ns3:hr>127</ns3:hr>
            <ns3:cad>47</ns3:cad>
          </ns3:TrackPointExtension>
        </extensions>
      </trkpt>
      <trkpt lat="45.3147315792739391326904296875" lon="-71.022842489182949066162109375">
        <ele>738.5999755859375</ele>
        <time>2026-08-21T21:22:25.000Z</time>
        <extensions>
          <ns3:TrackPointExtension>
            <ns3:hr>127</ns3:hr>
            <ns3:cad>47</ns3:cad>
          </ns3:TrackPointExtension>
        </extensions>
      </trkpt>
      <trkpt lat="45.3147402964532375335693359375" lon="-71.02283955551683902740478515625">
        <ele>738.4000244140625</ele>
        <time>2026-08-21T21:22:26.000Z</time>
        <extensions>
          <ns3:TrackPointExtension>
            <ns3:hr>127</ns3:hr>
            <ns3:cad>52</ns3:cad>
          </ns3:TrackPointExtension>
        </extensions>
      </trkpt>
      <trkpt lat="45.314751528203487396240234375" lon="-71.022827737033367156982421875">
        <ele>738.4000244140625</ele>
        <time>2026-08-21T21:22:27.000Z</time>
        <extensions>
          <ns3:TrackPointExtension>
            <ns3:hr>127</ns3:hr>
            <ns3:cad>52</ns3:cad>
          </ns3:TrackPointExtension>
        </extensions>
      </trkpt>
      <trkpt lat="45.31476250849664211273193359375" lon="-71.022812984883785247802734375">
        <ele>738.4000244140625</ele>
        <time>2026-08-21T21:22:28.000Z</time>
        <extensions>
          <ns3:TrackPointExtension>
            <ns3:hr>127</ns3:hr>
            <ns3:cad>52</ns3:cad>
          </ns3:TrackPointExtension>
        </extensions>
      </trkpt>
      <trkpt lat="45.31477742828428745269775390625" lon="-71.02279798127710819244384765625">
        <ele>738.20001220703125</ele>
        <time>2026-08-21T21:22:29.000Z</time>
        <extensions>
          <ns3:TrackPointExtension>
            <ns3:hr>128</ns3:hr>
            <ns3:cad>52</ns3:cad>
          </ns3:TrackPointExtension>
        </extensions>
      </trkpt>
      <trkpt lat="45.31479033641517162322998046875" lon="-71.022790186107158660888671875">
        <ele>737.79998779296875</ele>
        <time>2026-08-21T21:22:30.000Z</time>
        <extensions>
          <ns3:TrackPointExtension>
            <ns3:hr>128</ns3:hr>
            <ns3:cad>52</ns3:cad>
          </ns3:TrackPointExtension>
        </extensions>
      </trkpt>
      <trkpt lat="45.3147989697754383087158203125" lon="-71.02279462851583957672119140625">
        <ele>737.5999755859375</ele>
        <time>2026-08-21T21:22:31.000Z</time>
        <extensions>
          <ns3:TrackPointExtension>
            <ns3:hr>128</ns3:hr>
            <ns3:cad>0</ns3:cad>
          </ns3:TrackPointExtension>
        </extensions>
      </trkpt>
      <trkpt lat="45.31481749378144741058349609375" lon="-71.02280032820999622344970703125">
        <ele>737.5999755859375</ele>
        <time>2026-08-21T21:22:32.000Z</time>
        <extensions>
          <ns3:TrackPointExtension>
            <ns3:hr>128</ns3:hr>
            <ns3:cad>0</ns3:cad>
          </ns3:TrackPointExtension>
        </extensions>
      </trkpt>
      <trkpt lat="45.31483978964388370513916015625" lon="-71.02278674952685832977294921875">
        <ele>737.4000244140625</ele>
        <time>2026-08-21T21:22:33.000Z</time>
        <extensions>
          <ns3:TrackPointExtension>
            <ns3:hr>129</ns3:hr>
            <ns3:cad>0</ns3:cad>
          </ns3:TrackPointExtension>
        </extensions>
      </trkpt>
      <trkpt lat="45.31485219486057758331298828125" lon="-71.02278088219463825225830078125">
        <ele>737.4000244140625</ele>
        <time>2026-08-21T21:22:34.000Z</time>
        <extensions>
          <ns3:TrackPointExtension>
            <ns3:hr>130</ns3:hr>
            <ns3:cad>77</ns3:cad>
          </ns3:TrackPointExtension>
        </extensions>
      </trkpt>
      <trkpt lat="45.31487013213336467742919921875" lon="-71.02277736179530620574951171875">
        <ele>737.4000244140625</ele>
        <time>2026-08-21T21:22:35.000Z</time>
        <extensions>
          <ns3:TrackPointExtension>
            <ns3:hr>130</ns3:hr>
            <ns3:cad>77</ns3:cad>
          </ns3:TrackPointExtension>
        </extensions>
      </trkpt>
      <trkpt lat="45.3148891590535640716552734375" lon="-71.02277451194822788238525390625">
        <ele>737.4000244140625</ele>
        <time>2026-08-21T21:22:36.000Z</time>
        <extensions>
          <ns3:TrackPointExtension>
            <ns3:hr>130</ns3:hr>
            <ns3:cad>77</ns3:cad>
          </ns3:TrackPointExtension>
        </extensions>
      </trkpt>
      <trkpt lat="45.31490785069763660430908203125" lon="-71.022784151136875152587890625">
        <ele>737.4000244140625</ele>
        <time>2026-08-21T21:22:37.000Z</time>
        <extensions>
          <ns3:TrackPointExtension>
            <ns3:hr>130</ns3:hr>
            <ns3:cad>77</ns3:cad>
          </ns3:TrackPointExtension>
        </extensions>
      </trkpt>
      <trkpt lat="45.3149243630468845367431640625" lon="-71.02278490550816059112548828125">
        <ele>737.5999755859375</ele>
        <time>2026-08-21T21:22:38.000Z</time>
        <extensions>
          <ns3:TrackPointExtension>
            <ns3:hr>130</ns3:hr>
            <ns3:cad>0</ns3:cad>
          </ns3:TrackPointExtension>
        </extensions>
      </trkpt>
      <trkpt lat="45.314937941730022430419921875" lon="-71.0227816365659236907958984375">
        <ele>737.5999755859375</ele>
        <time>2026-08-21T21:22:39.000Z</time>
        <extensions>
          <ns3:TrackPointExtension>
            <ns3:hr>130</ns3:hr>
            <ns3:cad>0</ns3:cad>
          </ns3:TrackPointExtension>
        </extensions>
      </trkpt>
      <trkpt lat="45.31495411880314350128173828125" lon="-71.02277652360498905181884765625">
        <ele>737.5999755859375</ele>
        <time>2026-08-21T21:22:40.000Z</time>
        <extensions>
          <ns3:TrackPointExtension>
            <ns3:hr>130</ns3:hr>
            <ns3:cad>0</ns3:cad>
          </ns3:TrackPointExtension>
        </extensions>
      </trkpt>
      <trkpt lat="45.3149679489433765411376953125" lon="-71.02277819998562335968017578125">
        <ele>737.5999755859375</ele>
        <time>2026-08-21T21:22:41.000Z</time>
        <extensions>
          <ns3:TrackPointExtension>
            <ns3:hr>130</ns3:hr>
            <ns3:cad>64</ns3:cad>
          </ns3:TrackPointExtension>
        </extensions>
      </trkpt>
      <trkpt lat="45.314978845417499542236328125" lon="-71.0227749310433864593505859375">
        <ele>737.4000244140625</ele>
        <time>2026-08-21T21:22:42.000Z</time>
        <extensions>
          <ns3:TrackPointExtension>
            <ns3:hr>130</ns3:hr>
            <ns3:cad>64</ns3:cad>
          </ns3:TrackPointExtension>
        </extensions>
      </trkpt>
      <trkpt lat="45.3149927593767642974853515625" lon="-71.022766716778278350830078125">
        <ele>737.4000244140625</ele>
        <time>2026-08-21T21:22:43.000Z</time>
        <extensions>
          <ns3:TrackPointExtension>
            <ns3:hr>129</ns3:hr>
            <ns3:cad>65</ns3:cad>
          </ns3:TrackPointExtension>
        </extensions>
      </trkpt>
      <trkpt lat="45.31500524841248989105224609375" lon="-71.02275774814188480377197265625">
        <ele>737.20001220703125</ele>
        <time>2026-08-21T21:22:44.000Z</time>
        <extensions>
          <ns3:TrackPointExtension>
            <ns3:hr>130</ns3:hr>
            <ns3:cad>65</ns3:cad>
          </ns3:TrackPointExtension>
        </extensions>
      </trkpt>
      <trkpt lat="45.31501807272434234619140625" lon="-71.02275355719029903411865234375">
        <ele>737</ele>
        <time>2026-08-21T21:22:45.000Z</time>
        <extensions>
          <ns3:TrackPointExtension>
            <ns3:hr>130</ns3:hr>
            <ns3:cad>65</ns3:cad>
          </ns3:TrackPointExtension>
        </extensions>
      </trkpt>
      <trkpt lat="45.3150353394448757171630859375" lon="-71.0227471031248569488525390625">
        <ele>736.79998779296875</ele>
        <time>2026-08-21T21:22:46.000Z</time>
        <extensions>
          <ns3:TrackPointExtension>
            <ns3:hr>130</ns3:hr>
            <ns3:cad>67</ns3:cad>
          </ns3:TrackPointExtension>
        </extensions>
      </trkpt>
      <trkpt lat="45.3150567971169948577880859375" lon="-71.02274718694388866424560546875">
        <ele>736.79998779296875</ele>
        <time>2026-08-21T21:22:47.000Z</time>
        <extensions>
          <ns3:TrackPointExtension>
            <ns3:hr>129</ns3:hr>
            <ns3:cad>67</ns3:cad>
          </ns3:TrackPointExtension>
        </extensions>
      </trkpt>
      <trkpt lat="45.31507465057075023651123046875" lon="-71.02274953387677669525146484375">
        <ele>736.5999755859375</ele>
        <time>2026-08-21T21:22:48.000Z</time>
        <extensions>
          <ns3:TrackPointExtension>
            <ns3:hr>129</ns3:hr>
            <ns3:cad>66</ns3:cad>
          </ns3:TrackPointExtension>
        </extensions>
      </trkpt>
      <trkpt lat="45.3150899894535541534423828125" lon="-71.02275137789547443389892578125">
        <ele>736.5999755859375</ele>
        <time>2026-08-21T21:22:49.000Z</time>
        <extensions>
          <ns3:TrackPointExtension>
            <ns3:hr>129</ns3:hr>
            <ns3:cad>67</ns3:cad>
          </ns3:TrackPointExtension>
        </extensions>
      </trkpt>
      <trkpt lat="45.31510516069829463958740234375" lon="-71.02275556884706020355224609375">
        <ele>736.5999755859375</ele>
        <time>2026-08-21T21:22:50.000Z</time>
        <extensions>
          <ns3:TrackPointExtension>
            <ns3:hr>129</ns3:hr>
            <ns3:cad>67</ns3:cad>
          </ns3:TrackPointExtension>
        </extensions>
      </trkpt>
      <trkpt lat="45.31511404551565647125244140625" lon="-71.022760681807994842529296875">
        <ele>736.79998779296875</ele>
        <time>2026-08-21T21:22:51.000Z</time>
        <extensions>
          <ns3:TrackPointExtension>
            <ns3:hr>129</ns3:hr>
            <ns3:cad>73</ns3:cad>
          </ns3:TrackPointExtension>
        </extensions>
      </trkpt>
      <trkpt lat="45.315123014152050018310546875" lon="-71.0227636992931365966796875">
        <ele>737</ele>
        <time>2026-08-21T21:22:52.000Z</time>
        <extensions>
          <ns3:TrackPointExtension>
            <ns3:hr>130</ns3:hr>
            <ns3:cad>73</ns3:cad>
          </ns3:TrackPointExtension>
        </extensions>
      </trkpt>
      <trkpt lat="45.31512401998043060302734375" lon="-71.02276311255991458892822265625">
        <ele>737.20001220703125</ele>
        <time>2026-08-21T21:22:53.000Z</time>
        <extensions>
          <ns3:TrackPointExtension>
            <ns3:hr>130</ns3:hr>
            <ns3:cad>73</ns3:cad>
          </ns3:TrackPointExtension>
        </extensions>
      </trkpt>
      <trkpt lat="45.3151305578649044036865234375" lon="-71.02277300320565700531005859375">
        <ele>737.4000244140625</ele>
        <time>2026-08-21T21:22:54.000Z</time>
        <extensions>
          <ns3:TrackPointExtension>
            <ns3:hr>130</ns3:hr>
            <ns3:cad>73</ns3:cad>
          </ns3:TrackPointExtension>
        </extensions>
      </trkpt>
      <trkpt lat="45.31513315625488758087158203125" lon="-71.022784151136875152587890625">
        <ele>737.5999755859375</ele>
        <time>2026-08-21T21:22:55.000Z</time>
        <extensions>
          <ns3:TrackPointExtension>
            <ns3:hr>129</ns3:hr>
            <ns3:cad>68</ns3:cad>
          </ns3:TrackPointExtension>
        </extensions>
      </trkpt>
      <trkpt lat="45.31513474881649017333984375" lon="-71.022787503898143768310546875">
        <ele>737.79998779296875</ele>
        <time>2026-08-21T21:22:56.000Z</time>
        <extensions>
          <ns3:TrackPointExtension>
            <ns3:hr>129</ns3:hr>
            <ns3:cad>68</ns3:cad>
          </ns3:TrackPointExtension>
        </extensions>
      </trkpt>
      <trkpt lat="45.3151386044919490814208984375" lon="-71.0227970592677593231201171875">
        <ele>738</ele>
        <time>2026-08-21T21:22:57.000Z</time>
        <extensions>
          <ns3:TrackPointExtension>
            <ns3:hr>129</ns3:hr>
            <ns3:cad>68</ns3:cad>
          </ns3:TrackPointExtension>
        </extensions>
      </trkpt>
      <trkpt lat="45.315141789615154266357421875" lon="-71.02280736900866031646728515625">
        <ele>738.4000244140625</ele>
        <time>2026-08-21T21:22:58.000Z</time>
        <extensions>
          <ns3:TrackPointExtension>
            <ns3:hr>129</ns3:hr>
            <ns3:cad>68</ns3:cad>
          </ns3:TrackPointExtension>
        </extensions>
      </trkpt>
      <trkpt lat="45.315137095749378204345703125" lon="-71.02281826548278331756591796875">
        <ele>738.5999755859375</ele>
        <time>2026-08-21T21:22:59.000Z</time>
        <extensions>
          <ns3:TrackPointExtension>
            <ns3:hr>129</ns3:hr>
            <ns3:cad>68</ns3:cad>
          </ns3:TrackPointExtension>
        </extensions>
      </trkpt>
      <trkpt lat="45.31513684429228305816650390625" lon="-71.02282731793820858001708984375">
        <ele>738.79998779296875</ele>
        <time>2026-08-21T21:23:00.000Z</time>
        <extensions>
          <ns3:TrackPointExtension>
            <ns3:hr>128</ns3:hr>
            <ns3:cad>50</ns3:cad>
          </ns3:TrackPointExtension>
        </extensions>
      </trkpt>
      <trkpt lat="45.3151412867009639739990234375" lon="-71.02283821441233158111572265625">
        <ele>739.20001220703125</ele>
        <time>2026-08-21T21:23:01.000Z</time>
        <extensions>
          <ns3:TrackPointExtension>
            <ns3:hr>128</ns3:hr>
            <ns3:cad>50</ns3:cad>
          </ns3:TrackPointExtension>
        </extensions>
      </trkpt>
      <trkpt lat="45.3151453100144863128662109375" lon="-71.0228466801345348358154296875">
        <ele>739.4000244140625</ele>
        <time>2026-08-21T21:23:02.000Z</time>
        <extensions>
          <ns3:TrackPointExtension>
            <ns3:hr>128</ns3:hr>
            <ns3:cad>50</ns3:cad>
          </ns3:TrackPointExtension>
        </extensions>
      </trkpt>
      <trkpt lat="45.31514774076640605926513671875" lon="-71.0228594206273555755615234375">
        <ele>739.5999755859375</ele>
        <time>2026-08-21T21:23:03.000Z</time>
        <extensions>
          <ns3:TrackPointExtension>
            <ns3:hr>127</ns3:hr>
            <ns3:cad>0</ns3:cad>
          </ns3:TrackPointExtension>
        </extensions>
      </trkpt>
      <trkpt lat="45.315149165689945220947265625" lon="-71.02287626825273036956787109375">
        <ele>740</ele>
        <time>2026-08-21T21:23:04.000Z</time>
        <extensions>
          <ns3:TrackPointExtension>
            <ns3:hr>127</ns3:hr>
            <ns3:cad>0</ns3:cad>
          </ns3:TrackPointExtension>
        </extensions>
      </trkpt>
      <trkpt lat="45.31515075825154781341552734375" lon="-71.02288582362234592437744140625">
        <ele>740.20001220703125</ele>
        <time>2026-08-21T21:23:05.000Z</time>
        <extensions>
          <ns3:TrackPointExtension>
            <ns3:hr>127</ns3:hr>
            <ns3:cad>0</ns3:cad>
          </ns3:TrackPointExtension>
        </extensions>
      </trkpt>
      <trkpt lat="45.3151516802608966827392578125" lon="-71.022890098392963409423828125">
        <ele>740.4000244140625</ele>
        <time>2026-08-21T21:23:06.000Z</time>
        <extensions>
          <ns3:TrackPointExtension>
            <ns3:hr>127</ns3:hr>
            <ns3:cad>0</ns3:cad>
          </ns3:TrackPointExtension>
        </extensions>
      </trkpt>
      <trkpt lat="45.3151555359363555908203125" lon="-71.0229058563709259033203125">
        <ele>740.79998779296875</ele>
        <time>2026-08-21T21:23:07.000Z</time>
        <extensions>
          <ns3:TrackPointExtension>
            <ns3:hr>128</ns3:hr>
            <ns3:cad>0</ns3:cad>
          </ns3:TrackPointExtension>
        </extensions>
      </trkpt>
      <trkpt lat="45.3151603974401950836181640625" lon="-71.02291859686374664306640625">
        <ele>741</ele>
        <time>2026-08-21T21:23:08.000Z</time>
        <extensions>
          <ns3:TrackPointExtension>
            <ns3:hr>128</ns3:hr>
            <ns3:cad>0</ns3:cad>
          </ns3:TrackPointExtension>
        </extensions>
      </trkpt>
      <trkpt lat="45.31516618095338344573974609375" lon="-71.0229244641959667205810546875">
        <ele>741.4000244140625</ele>
        <time>2026-08-21T21:23:09.000Z</time>
        <extensions>
          <ns3:TrackPointExtension>
            <ns3:hr>129</ns3:hr>
            <ns3:cad>0</ns3:cad>
          </ns3:TrackPointExtension>
        </extensions>
      </trkpt>
      <trkpt lat="45.315175987780094146728515625" lon="-71.02293343283236026763916015625">
        <ele>741.5999755859375</ele>
        <time>2026-08-21T21:23:10.000Z</time>
        <extensions>
          <ns3:TrackPointExtension>
            <ns3:hr>129</ns3:hr>
            <ns3:cad>0</ns3:cad>
          </ns3:TrackPointExtension>
        </extensions>
      </trkpt>
      <trkpt lat="45.31518076546490192413330078125" lon="-71.0229429043829441070556640625">
        <ele>741.79998779296875</ele>
        <time>2026-08-21T21:23:11.000Z</time>
        <extensions>
          <ns3:TrackPointExtension>
            <ns3:hr>132</ns3:hr>
            <ns3:cad>0</ns3:cad>
          </ns3:TrackPointExtension>
        </extensions>
      </trkpt>
      <trkpt lat="45.315186046063899993896484375" lon="-71.0229546390473842620849609375">
        <ele>742.20001220703125</ele>
        <time>2026-08-21T21:23:12.000Z</time>
        <extensions>
          <ns3:TrackPointExtension>
            <ns3:hr>133</ns3:hr>
            <ns3:cad>0</ns3:cad>
          </ns3:TrackPointExtension>
        </extensions>
      </trkpt>
      <trkpt lat="45.31519484706223011016845703125" lon="-71.0229663737118244171142578125">
        <ele>742.4000244140625</ele>
        <time>2026-08-21T21:23:13.000Z</time>
        <extensions>
          <ns3:TrackPointExtension>
            <ns3:hr>134</ns3:hr>
            <ns3:cad>0</ns3:cad>
          </ns3:TrackPointExtension>
        </extensions>
      </trkpt>
      <trkpt lat="45.31520272605121135711669921875" lon="-71.0229754261672496795654296875">
        <ele>742.5999755859375</ele>
        <time>2026-08-21T21:23:14.000Z</time>
        <extensions>
          <ns3:TrackPointExtension>
            <ns3:hr>134</ns3:hr>
            <ns3:cad>0</ns3:cad>
          </ns3:TrackPointExtension>
        </extensions>
      </trkpt>
      <trkpt lat="45.31521655619144439697265625" lon="-71.02298372425138950347900390625">
        <ele>743</ele>
        <time>2026-08-21T21:23:15.000Z</time>
        <extensions>
          <ns3:TrackPointExtension>
            <ns3:hr>135</ns3:hr>
            <ns3:cad>0</ns3:cad>
          </ns3:TrackPointExtension>
        </extensions>
      </trkpt>
      <trkpt lat="45.3152237646281719207763671875" lon="-71.02299638092517852783203125">
        <ele>743.20001220703125</ele>
        <time>2026-08-21T21:23:16.000Z</time>
        <extensions>
          <ns3:TrackPointExtension>
            <ns3:hr>136</ns3:hr>
            <ns3:cad>0</ns3:cad>
          </ns3:TrackPointExtension>
        </extensions>
      </trkpt>
      <trkpt lat="45.31522770412266254425048828125" lon="-71.02299638092517852783203125">
        <ele>743.4000244140625</ele>
        <time>2026-08-21T21:23:17.000Z</time>
        <extensions>
          <ns3:TrackPointExtension>
            <ns3:hr>137</ns3:hr>
            <ns3:cad>0</ns3:cad>
          </ns3:TrackPointExtension>
        </extensions>
      </trkpt>
      <trkpt lat="45.31523960642516613006591796875" lon="-71.02300107479095458984375">
        <ele>743.5999755859375</ele>
        <time>2026-08-21T21:23:18.000Z</time>
        <extensions>
          <ns3:TrackPointExtension>
            <ns3:hr>137</ns3:hr>
            <ns3:cad>0</ns3:cad>
          </ns3:TrackPointExtension>
        </extensions>
      </trkpt>
      <trkpt lat="45.3152448870241641998291015625" lon="-71.023003421723842620849609375">
        <ele>743.79998779296875</ele>
        <time>2026-08-21T21:23:19.000Z</time>
        <extensions>
          <ns3:TrackPointExtension>
            <ns3:hr>138</ns3:hr>
            <ns3:cad>0</ns3:cad>
          </ns3:TrackPointExtension>
        </extensions>
      </trkpt>
      <trkpt lat="45.31525142490863800048828125" lon="-71.023011468350887298583984375">
        <ele>744.20001220703125</ele>
        <time>2026-08-21T21:23:20.000Z</time>
        <extensions>
          <ns3:TrackPointExtension>
            <ns3:hr>138</ns3:hr>
            <ns3:cad>0</ns3:cad>
          </ns3:TrackPointExtension>
        </extensions>
      </trkpt>
      <trkpt lat="45.31525922007858753204345703125" lon="-71.02302228100597858428955078125">
        <ele>744.4000244140625</ele>
        <time>2026-08-21T21:23:21.000Z</time>
        <extensions>
          <ns3:TrackPointExtension>
            <ns3:hr>139</ns3:hr>
            <ns3:cad>0</ns3:cad>
          </ns3:TrackPointExtension>
        </extensions>
      </trkpt>
      <trkpt lat="45.3152636624872684478759765625" lon="-71.02303150109946727752685546875">
        <ele>744.5999755859375</ele>
        <time>2026-08-21T21:23:22.000Z</time>
        <extensions>
          <ns3:TrackPointExtension>
            <ns3:hr>140</ns3:hr>
            <ns3:cad>0</ns3:cad>
          </ns3:TrackPointExtension>
        </extensions>
      </trkpt>
      <trkpt lat="45.3152673505246639251708984375" lon="-71.02303753606975078582763671875">
        <ele>744.79998779296875</ele>
        <time>2026-08-21T21:23:23.000Z</time>
        <extensions>
          <ns3:TrackPointExtension>
            <ns3:hr>140</ns3:hr>
            <ns3:cad>0</ns3:cad>
          </ns3:TrackPointExtension>
        </extensions>
      </trkpt>
      <trkpt lat="45.3152696974575519561767578125" lon="-71.02304625324904918670654296875">
        <ele>745</ele>
        <time>2026-08-21T21:23:24.000Z</time>
        <extensions>
          <ns3:TrackPointExtension>
            <ns3:hr>141</ns3:hr>
            <ns3:cad>0</ns3:cad>
          </ns3:TrackPointExtension>
        </extensions>
      </trkpt>
      <trkpt lat="45.3152723796665668487548828125" lon="-71.02305597625672817230224609375">
        <ele>745.4000244140625</ele>
        <time>2026-08-21T21:23:25.000Z</time>
        <extensions>
          <ns3:TrackPointExtension>
            <ns3:hr>141</ns3:hr>
            <ns3:cad>49</ns3:cad>
          </ns3:TrackPointExtension>
        </extensions>
      </trkpt>
      <trkpt lat="45.315274894237518310546875" lon="-71.02306771092116832733154296875">
        <ele>745.5999755859375</ele>
        <time>2026-08-21T21:23:26.000Z</time>
        <extensions>
          <ns3:TrackPointExtension>
            <ns3:hr>141</ns3:hr>
            <ns3:cad>49</ns3:cad>
          </ns3:TrackPointExtension>
        </extensions>
      </trkpt>
      <trkpt lat="45.31527715735137462615966796875" lon="-71.0230803675949573516845703125">
        <ele>745.79998779296875</ele>
        <time>2026-08-21T21:23:27.000Z</time>
        <extensions>
          <ns3:TrackPointExtension>
            <ns3:hr>141</ns3:hr>
            <ns3:cad>49</ns3:cad>
          </ns3:TrackPointExtension>
        </extensions>
      </trkpt>
      <trkpt lat="45.31527866609394550323486328125" lon="-71.02309235371649265289306640625">
        <ele>745.79998779296875</ele>
        <time>2026-08-21T21:23:28.000Z</time>
        <extensions>
          <ns3:TrackPointExtension>
            <ns3:hr>141</ns3:hr>
            <ns3:cad>49</ns3:cad>
          </ns3:TrackPointExtension>
        </extensions>
      </trkpt>
      <trkpt lat="45.3152774088084697723388671875" lon="-71.02310559712350368499755859375">
        <ele>746</ele>
        <time>2026-08-21T21:23:29.000Z</time>
        <extensions>
          <ns3:TrackPointExtension>
            <ns3:hr>141</ns3:hr>
            <ns3:cad>48</ns3:cad>
          </ns3:TrackPointExtension>
        </extensions>
      </trkpt>
      <trkpt lat="45.315277241170406341552734375" lon="-71.0231199301779270172119140625">
        <ele>746.20001220703125</ele>
        <time>2026-08-21T21:23:30.000Z</time>
        <extensions>
          <ns3:TrackPointExtension>
            <ns3:hr>141</ns3:hr>
            <ns3:cad>47</ns3:cad>
          </ns3:TrackPointExtension>
        </extensions>
      </trkpt>
      <trkpt lat="45.31527430750429630279541015625" lon="-71.023129485547542572021484375">
        <ele>746.4000244140625</ele>
        <time>2026-08-21T21:23:31.000Z</time>
        <extensions>
          <ns3:TrackPointExtension>
            <ns3:hr>142</ns3:hr>
            <ns3:cad>47</ns3:cad>
          </ns3:TrackPointExtension>
        </extensions>
      </trkpt>
      <trkpt lat="45.3152690269052982330322265625" lon="-71.0231413878500461578369140625">
        <ele>746.5999755859375</ele>
        <time>2026-08-21T21:23:32.000Z</time>
        <extensions>
          <ns3:TrackPointExtension>
            <ns3:hr>142</ns3:hr>
            <ns3:cad>49</ns3:cad>
          </ns3:TrackPointExtension>
        </extensions>
      </trkpt>
      <trkpt lat="45.31526525504887104034423828125" lon="-71.0231467522680759429931640625">
        <ele>746.79998779296875</ele>
        <time>2026-08-21T21:23:33.000Z</time>
        <extensions>
          <ns3:TrackPointExtension>
            <ns3:hr>142</ns3:hr>
            <ns3:cad>49</ns3:cad>
          </ns3:TrackPointExtension>
        </extensions>
      </trkpt>
      <trkpt lat="45.3152619861066341400146484375" lon="-71.023156978189945220947265625">
        <ele>747</ele>
        <time>2026-08-21T21:23:34.000Z</time>
        <extensions>
          <ns3:TrackPointExtension>
            <ns3:hr>143</ns3:hr>
            <ns3:cad>49</ns3:cad>
          </ns3:TrackPointExtension>
        </extensions>
      </trkpt>
      <trkpt lat="45.31525687314569950103759765625" lon="-71.02317550219595432281494140625">
        <ele>747.20001220703125</ele>
        <time>2026-08-21T21:23:35.000Z</time>
        <extensions>
          <ns3:TrackPointExtension>
            <ns3:hr>143</ns3:hr>
            <ns3:cad>49</ns3:cad>
          </ns3:TrackPointExtension>
        </extensions>
      </trkpt>
      <trkpt lat="45.31525385566055774688720703125" lon="-71.02318472228944301605224609375">
        <ele>747.4000244140625</ele>
        <time>2026-08-21T21:23:36.000Z</time>
        <extensions>
          <ns3:TrackPointExtension>
            <ns3:hr>144</ns3:hr>
            <ns3:cad>49</ns3:cad>
          </ns3:TrackPointExtension>
        </extensions>
      </trkpt>
      <trkpt lat="45.31524983234703540802001953125" lon="-71.0231997258961200714111328125">
        <ele>747.5999755859375</ele>
        <time>2026-08-21T21:23:37.000Z</time>
        <extensions>
          <ns3:TrackPointExtension>
            <ns3:hr>144</ns3:hr>
            <ns3:cad>49</ns3:cad>
          </ns3:TrackPointExtension>
        </extensions>
      </trkpt>
      <trkpt lat="45.31524513848125934600830078125" lon="-71.0232087783515453338623046875">
        <ele>747.79998779296875</ele>
        <time>2026-08-21T21:23:38.000Z</time>
        <extensions>
          <ns3:TrackPointExtension>
            <ns3:hr>143</ns3:hr>
            <ns3:cad>49</ns3:cad>
          </ns3:TrackPointExtension>
        </extensions>
      </trkpt>
      <trkpt lat="45.3152368403971195220947265625" lon="-71.023222692310810089111328125">
        <ele>748</ele>
        <time>2026-08-21T21:23:39.000Z</time>
        <extensions>
          <ns3:TrackPointExtension>
            <ns3:hr>143</ns3:hr>
            <ns3:cad>0</ns3:cad>
          </ns3:TrackPointExtension>
        </extensions>
      </trkpt>
      <trkpt lat="45.3152341581881046295166015625" lon="-71.02322998456656932830810546875">
        <ele>748.20001220703125</ele>
        <time>2026-08-21T21:23:40.000Z</time>
        <extensions>
          <ns3:TrackPointExtension>
            <ns3:hr>143</ns3:hr>
            <ns3:cad>0</ns3:cad>
          </ns3:TrackPointExtension>
        </extensions>
      </trkpt>
      <trkpt lat="45.3152254410088062286376953125" lon="-71.0232419706881046295166015625">
        <ele>748.4000244140625</ele>
        <time>2026-08-21T21:23:41.000Z</time>
        <extensions>
          <ns3:TrackPointExtension>
            <ns3:hr>143</ns3:hr>
            <ns3:cad>0</ns3:cad>
          </ns3:TrackPointExtension>
        </extensions>
      </trkpt>
      <trkpt lat="45.3152180649340152740478515625" lon="-71.02324448525905609130859375">
        <ele>748.5999755859375</ele>
        <time>2026-08-21T21:23:42.000Z</time>
        <extensions>
          <ns3:TrackPointExtension>
            <ns3:hr>144</ns3:hr>
            <ns3:cad>0</ns3:cad>
          </ns3:TrackPointExtension>
        </extensions>
      </trkpt>
      <trkpt lat="45.3152116946876049041748046875" lon="-71.023254878818988800048828125">
        <ele>748.79998779296875</ele>
        <time>2026-08-21T21:23:43.000Z</time>
        <extensions>
          <ns3:TrackPointExtension>
            <ns3:hr>144</ns3:hr>
            <ns3:cad>0</ns3:cad>
          </ns3:TrackPointExtension>
        </extensions>
      </trkpt>
      <trkpt lat="45.3152063302695751190185546875" lon="-71.02326937951147556304931640625">
        <ele>749</ele>
        <time>2026-08-21T21:23:44.000Z</time>
        <extensions>
          <ns3:TrackPointExtension>
            <ns3:hr>144</ns3:hr>
            <ns3:cad>0</ns3:cad>
          </ns3:TrackPointExtension>
        </extensions>
      </trkpt>
      <trkpt lat="45.3151982836425304412841796875" lon="-71.02327667176723480224609375">
        <ele>749.20001220703125</ele>
        <time>2026-08-21T21:23:45.000Z</time>
        <extensions>
          <ns3:TrackPointExtension>
            <ns3:hr>144</ns3:hr>
            <ns3:cad>0</ns3:cad>
          </ns3:TrackPointExtension>
        </extensions>
      </trkpt>
      <trkpt lat="45.3151904046535491943359375" lon="-71.023282706737518310546875">
        <ele>749.4000244140625</ele>
        <time>2026-08-21T21:23:46.000Z</time>
        <extensions>
          <ns3:TrackPointExtension>
            <ns3:hr>143</ns3:hr>
            <ns3:cad>0</ns3:cad>
          </ns3:TrackPointExtension>
        </extensions>
      </trkpt>
      <trkpt lat="45.31518596224486827850341796875" lon="-71.02329368703067302703857421875">
        <ele>749.4000244140625</ele>
        <time>2026-08-21T21:23:47.000Z</time>
        <extensions>
          <ns3:TrackPointExtension>
            <ns3:hr>143</ns3:hr>
            <ns3:cad>0</ns3:cad>
          </ns3:TrackPointExtension>
        </extensions>
      </trkpt>
      <trkpt lat="45.3151815198361873626708984375" lon="-71.02330827154219150543212890625">
        <ele>749.5999755859375</ele>
        <time>2026-08-21T21:23:48.000Z</time>
        <extensions>
          <ns3:TrackPointExtension>
            <ns3:hr>142</ns3:hr>
            <ns3:cad>0</ns3:cad>
          </ns3:TrackPointExtension>
        </extensions>
      </trkpt>
      <trkpt lat="45.31517540104687213897705078125" lon="-71.02332268841564655303955078125">
        <ele>749.79998779296875</ele>
        <time>2026-08-21T21:23:49.000Z</time>
        <extensions>
          <ns3:TrackPointExtension>
            <ns3:hr>142</ns3:hr>
            <ns3:cad>0</ns3:cad>
          </ns3:TrackPointExtension>
        </extensions>
      </trkpt>
      <trkpt lat="45.31517288647592067718505859375" lon="-71.02333777584135532379150390625">
        <ele>749.79998779296875</ele>
        <time>2026-08-21T21:23:50.000Z</time>
        <extensions>
          <ns3:TrackPointExtension>
            <ns3:hr>142</ns3:hr>
            <ns3:cad>0</ns3:cad>
          </ns3:TrackPointExtension>
        </extensions>
      </trkpt>
      <trkpt lat="45.3151671029627323150634765625" lon="-71.023348756134510040283203125">
        <ele>750</ele>
        <time>2026-08-21T21:23:51.000Z</time>
        <extensions>
          <ns3:TrackPointExtension>
            <ns3:hr>143</ns3:hr>
            <ns3:cad>0</ns3:cad>
          </ns3:TrackPointExtension>
        </extensions>
      </trkpt>
      <trkpt lat="45.31516157090663909912109375" lon="-71.0233633406460285186767578125">
        <ele>750.20001220703125</ele>
        <time>2026-08-21T21:23:52.000Z</time>
        <extensions>
          <ns3:TrackPointExtension>
            <ns3:hr>143</ns3:hr>
            <ns3:cad>0</ns3:cad>
          </ns3:TrackPointExtension>
        </extensions>
      </trkpt>
      <trkpt lat="45.315155871212482452392578125" lon="-71.0233740694820880889892578125">
        <ele>750.4000244140625</ele>
        <time>2026-08-21T21:23:53.000Z</time>
        <extensions>
          <ns3:TrackPointExtension>
            <ns3:hr>143</ns3:hr>
            <ns3:cad>0</ns3:cad>
          </ns3:TrackPointExtension>
        </extensions>
      </trkpt>
      <trkpt lat="45.31514790840446949005126953125" lon="-71.023388989269733428955078125">
        <ele>750.4000244140625</ele>
        <time>2026-08-21T21:23:54.000Z</time>
        <extensions>
          <ns3:TrackPointExtension>
            <ns3:hr>144</ns3:hr>
            <ns3:cad>0</ns3:cad>
          </ns3:TrackPointExtension>
        </extensions>
      </trkpt>
      <trkpt lat="45.31514187343418598175048828125" lon="-71.02340030483901500701904296875">
        <ele>750.5999755859375</ele>
        <time>2026-08-21T21:23:55.000Z</time>
        <extensions>
          <ns3:TrackPointExtension>
            <ns3:hr>145</ns3:hr>
            <ns3:cad>0</ns3:cad>
          </ns3:TrackPointExtension>
        </extensions>
      </trkpt>
      <trkpt lat="45.31513986177742481231689453125" lon="-71.02341354824602603912353515625">
        <ele>750.79998779296875</ele>
        <time>2026-08-21T21:23:56.000Z</time>
        <extensions>
          <ns3:TrackPointExtension>
            <ns3:hr>145</ns3:hr>
            <ns3:cad>48</ns3:cad>
          </ns3:TrackPointExtension>
        </extensions>
      </trkpt>
      <trkpt lat="45.3151369281113147735595703125" lon="-71.02343014441430568695068359375">
        <ele>750.79998779296875</ele>
        <time>2026-08-21T21:23:57.000Z</time>
        <extensions>
          <ns3:TrackPointExtension>
            <ns3:hr>145</ns3:hr>
            <ns3:cad>48</ns3:cad>
          </ns3:TrackPointExtension>
        </extensions>
      </trkpt>
      <trkpt lat="45.31513432972133159637451171875" lon="-71.02344422601163387298583984375">
        <ele>751</ele>
        <time>2026-08-21T21:23:58.000Z</time>
        <extensions>
          <ns3:TrackPointExtension>
            <ns3:hr>145</ns3:hr>
            <ns3:cad>48</ns3:cad>
          </ns3:TrackPointExtension>
        </extensions>
      </trkpt>
      <trkpt lat="45.31512829475104808807373046875" lon="-71.02346803061664104461669921875">
        <ele>751.20001220703125</ele>
        <time>2026-08-21T21:23:59.000Z</time>
        <extensions>
          <ns3:TrackPointExtension>
            <ns3:hr>144</ns3:hr>
            <ns3:cad>48</ns3:cad>
          </ns3:TrackPointExtension>
        </extensions>
      </trkpt>
      <trkpt lat="45.31512343324720859527587890625" lon="-71.0234961099922657012939453125">
        <ele>751.20001220703125</ele>
        <time>2026-08-21T21:24:00.000Z</time>
        <extensions>
          <ns3:TrackPointExtension>
            <ns3:hr>144</ns3:hr>
            <ns3:cad>48</ns3:cad>
          </ns3:TrackPointExtension>
        </extensions>
      </trkpt>
      <trkpt lat="45.3151153028011322021484375" lon="-71.0235128737986087799072265625">
        <ele>751.4000244140625</ele>
        <time>2026-08-21T21:24:01.000Z</time>
        <extensions>
          <ns3:TrackPointExtension>
            <ns3:hr>143</ns3:hr>
            <ns3:cad>50</ns3:cad>
          </ns3:TrackPointExtension>
        </extensions>
      </trkpt>
      <trkpt lat="45.3151074238121509552001953125" lon="-71.02353542111814022064208984375">
        <ele>751.4000244140625</ele>
        <time>2026-08-21T21:24:02.000Z</time>
        <extensions>
          <ns3:TrackPointExtension>
            <ns3:hr>141</ns3:hr>
            <ns3:cad>50</ns3:cad>
          </ns3:TrackPointExtension>
        </extensions>
      </trkpt>
      <trkpt lat="45.31509862281382083892822265625" lon="-71.02355897426605224609375">
        <ele>751.4000244140625</ele>
        <time>2026-08-21T21:24:03.000Z</time>
        <extensions>
          <ns3:TrackPointExtension>
            <ns3:hr>140</ns3:hr>
            <ns3:cad>50</ns3:cad>
          </ns3:TrackPointExtension>
        </extensions>
      </trkpt>
      <trkpt lat="45.31508957035839557647705078125" lon="-71.02358252741396427154541015625">
        <ele>751.4000244140625</ele>
        <time>2026-08-21T21:24:04.000Z</time>
        <extensions>
          <ns3:TrackPointExtension>
            <ns3:hr>141</ns3:hr>
            <ns3:cad>52</ns3:cad>
          </ns3:TrackPointExtension>
        </extensions>
      </trkpt>
      <trkpt lat="45.31508521176874637603759765625" lon="-71.02360524237155914306640625">
        <ele>751.4000244140625</ele>
        <time>2026-08-21T21:24:05.000Z</time>
        <extensions>
          <ns3:TrackPointExtension>
            <ns3:hr>141</ns3:hr>
            <ns3:cad>52</ns3:cad>
          </ns3:TrackPointExtension>
        </extensions>
      </trkpt>
      <trkpt lat="45.31508889980614185333251953125" lon="-71.02362401783466339111328125">
        <ele>751.20001220703125</ele>
        <time>2026-08-21T21:24:06.000Z</time>
        <extensions>
          <ns3:TrackPointExtension>
            <ns3:hr>141</ns3:hr>
            <ns3:cad>53</ns3:cad>
          </ns3:TrackPointExtension>
        </extensions>
      </trkpt>
      <trkpt lat="45.3150970302522182464599609375" lon="-71.02363734506070613861083984375">
        <ele>751.20001220703125</ele>
        <time>2026-08-21T21:24:07.000Z</time>
        <extensions>
          <ns3:TrackPointExtension>
            <ns3:hr>141</ns3:hr>
            <ns3:cad>53</ns3:cad>
          </ns3:TrackPointExtension>
        </extensions>
      </trkpt>
      <trkpt lat="45.31510465778410434722900390625" lon="-71.02365209721028804779052734375">
        <ele>751</ele>
        <time>2026-08-21T21:24:08.000Z</time>
        <extensions>
          <ns3:TrackPointExtension>
            <ns3:hr>141</ns3:hr>
            <ns3:cad>53</ns3:cad>
          </ns3:TrackPointExtension>
        </extensions>
      </trkpt>
      <trkpt lat="45.3151144646108150482177734375" lon="-71.023673973977565765380859375">
        <ele>750.79998779296875</ele>
        <time>2026-08-21T21:24:09.000Z</time>
        <extensions>
          <ns3:TrackPointExtension>
            <ns3:hr>141</ns3:hr>
            <ns3:cad>53</ns3:cad>
          </ns3:TrackPointExtension>
        </extensions>
      </trkpt>
      <trkpt lat="45.3151255287230014801025390625" lon="-71.02369199506938457489013671875">
        <ele>750.4000244140625</ele>
        <time>2026-08-21T21:24:10.000Z</time>
        <extensions>
          <ns3:TrackPointExtension>
            <ns3:hr>142</ns3:hr>
            <ns3:cad>53</ns3:cad>
          </ns3:TrackPointExtension>
        </extensions>
      </trkpt>
      <trkpt lat="45.315139777958393096923828125" lon="-71.02370574139058589935302734375">
        <ele>750</ele>
        <time>2026-08-21T21:24:11.000Z</time>
        <extensions>
          <ns3:TrackPointExtension>
            <ns3:hr>141</ns3:hr>
            <ns3:cad>53</ns3:cad>
          </ns3:TrackPointExtension>
        </extensions>
      </trkpt>
      <trkpt lat="45.3151540271937847137451171875" lon="-71.023716889321804046630859375">
        <ele>749.5999755859375</ele>
        <time>2026-08-21T21:24:12.000Z</time>
        <extensions>
          <ns3:TrackPointExtension>
            <ns3:hr>141</ns3:hr>
            <ns3:cad>53</ns3:cad>
          </ns3:TrackPointExtension>
        </extensions>
      </trkpt>
      <trkpt lat="45.31516869552433490753173828125" lon="-71.02373708970844745635986328125">
        <ele>749</ele>
        <time>2026-08-21T21:24:13.000Z</time>
        <extensions>
          <ns3:TrackPointExtension>
            <ns3:hr>142</ns3:hr>
            <ns3:cad>0</ns3:cad>
          </ns3:TrackPointExtension>
        </extensions>
      </trkpt>
      <trkpt lat="45.31518462114036083221435546875" lon="-71.0237539373338222503662109375">
        <ele>748.5999755859375</ele>
        <time>2026-08-21T21:24:14.000Z</time>
        <extensions>
          <ns3:TrackPointExtension>
            <ns3:hr>142</ns3:hr>
            <ns3:cad>0</ns3:cad>
          </ns3:TrackPointExtension>
        </extensions>
      </trkpt>
      <trkpt lat="45.31519786454737186431884765625" lon="-71.02376575581729412078857421875">
        <ele>748.4000244140625</ele>
        <time>2026-08-21T21:24:15.000Z</time>
        <extensions>
          <ns3:TrackPointExtension>
            <ns3:hr>142</ns3:hr>
            <ns3:cad>79</ns3:cad>
          </ns3:TrackPointExtension>
        </extensions>
      </trkpt>
      <trkpt lat="45.31521345488727092742919921875" lon="-71.0237774066627025604248046875">
        <ele>748.20001220703125</ele>
        <time>2026-08-21T21:24:16.000Z</time>
        <extensions>
          <ns3:TrackPointExtension>
            <ns3:hr>141</ns3:hr>
            <ns3:cad>79</ns3:cad>
          </ns3:TrackPointExtension>
        </extensions>
      </trkpt>
      <trkpt lat="45.31522837467491626739501953125" lon="-71.023788638412952423095703125">
        <ele>748.20001220703125</ele>
        <time>2026-08-21T21:24:17.000Z</time>
        <extensions>
          <ns3:TrackPointExtension>
            <ns3:hr>140</ns3:hr>
            <ns3:cad>79</ns3:cad>
          </ns3:TrackPointExtension>
        </extensions>
      </trkpt>
      <trkpt lat="45.31523977406322956085205078125" lon="-71.02380079217255115509033203125">
        <ele>748</ele>
        <time>2026-08-21T21:24:18.000Z</time>
        <extensions>
          <ns3:TrackPointExtension>
            <ns3:hr>139</ns3:hr>
            <ns3:cad>69</ns3:cad>
          </ns3:TrackPointExtension>
        </extensions>
      </trkpt>
      <trkpt lat="45.31525284983217716217041015625" lon="-71.0238183103501796722412109375">
        <ele>747.79998779296875</ele>
        <time>2026-08-21T21:24:19.000Z</time>
        <extensions>
          <ns3:TrackPointExtension>
            <ns3:hr>139</ns3:hr>
            <ns3:cad>69</ns3:cad>
          </ns3:TrackPointExtension>
        </extensions>
      </trkpt>
      <trkpt lat="45.3152616508305072784423828125" lon="-71.02383800782263278961181640625">
        <ele>747.79998779296875</ele>
        <time>2026-08-21T21:24:20.000Z</time>
        <extensions>
          <ns3:TrackPointExtension>
            <ns3:hr>139</ns3:hr>
            <ns3:cad>69</ns3:cad>
          </ns3:TrackPointExtension>
        </extensions>
      </trkpt>
      <trkpt lat="45.31527112238109111785888671875" lon="-71.02386466227471828460693359375">
        <ele>747.5999755859375</ele>
        <time>2026-08-21T21:24:21.000Z</time>
        <extensions>
          <ns3:TrackPointExtension>
            <ns3:hr>139</ns3:hr>
            <ns3:cad>69</ns3:cad>
          </ns3:TrackPointExtension>
        </extensions>
      </trkpt>
      <trkpt lat="45.3152814321219921112060546875" lon="-71.0238833539187908172607421875">
        <ele>747.4000244140625</ele>
        <time>2026-08-21T21:24:22.000Z</time>
        <extensions>
          <ns3:TrackPointExtension>
            <ns3:hr>138</ns3:hr>
            <ns3:cad>69</ns3:cad>
          </ns3:TrackPointExtension>
        </extensions>
      </trkpt>
      <trkpt lat="45.3153015486896038055419921875" lon="-71.0238944180309772491455078125">
        <ele>747.4000244140625</ele>
        <time>2026-08-21T21:24:23.000Z</time>
        <extensions>
          <ns3:TrackPointExtension>
            <ns3:hr>137</ns3:hr>
            <ns3:cad>69</ns3:cad>
          </ns3:TrackPointExtension>
        </extensions>
      </trkpt>
      <trkpt lat="45.31531956978142261505126953125" lon="-71.0239105112850666046142578125">
        <ele>747.20001220703125</ele>
        <time>2026-08-21T21:24:24.000Z</time>
        <extensions>
          <ns3:TrackPointExtension>
            <ns3:hr>137</ns3:hr>
            <ns3:cad>69</ns3:cad>
          </ns3:TrackPointExtension>
        </extensions>
      </trkpt>
      <trkpt lat="45.3153354115784168243408203125" lon="-71.02392308413982391357421875">
        <ele>747.20001220703125</ele>
        <time>2026-08-21T21:24:25.000Z</time>
        <extensions>
          <ns3:TrackPointExtension>
            <ns3:hr>137</ns3:hr>
            <ns3:cad>69</ns3:cad>
          </ns3:TrackPointExtension>
        </extensions>
      </trkpt>
      <trkpt lat="45.31534530222415924072265625" lon="-71.02393917739391326904296875">
        <ele>747.20001220703125</ele>
        <time>2026-08-21T21:24:26.000Z</time>
        <extensions>
          <ns3:TrackPointExtension>
            <ns3:hr>137</ns3:hr>
            <ns3:cad>69</ns3:cad>
          </ns3:TrackPointExtension>
        </extensions>
      </trkpt>
      <trkpt lat="45.315360389649868011474609375" lon="-71.02396055124700069427490234375">
        <ele>747.20001220703125</ele>
        <time>2026-08-21T21:24:27.000Z</time>
        <extensions>
          <ns3:TrackPointExtension>
            <ns3:hr>137</ns3:hr>
            <ns3:cad>69</ns3:cad>
          </ns3:TrackPointExtension>
        </extensions>
      </trkpt>
      <trkpt lat="45.31537153758108615875244140625" lon="-71.0239799134433269500732421875">
        <ele>747</ele>
        <time>2026-08-21T21:24:28.000Z</time>
        <extensions>
          <ns3:TrackPointExtension>
            <ns3:hr>136</ns3:hr>
            <ns3:cad>69</ns3:cad>
          </ns3:TrackPointExtension>
        </extensions>
      </trkpt>
      <trkpt lat="45.315382182598114013671875" lon="-71.0239996947348117828369140625">
        <ele>747</ele>
        <time>2026-08-21T21:24:29.000Z</time>
        <extensions>
          <ns3:TrackPointExtension>
            <ns3:hr>136</ns3:hr>
            <ns3:cad>69</ns3:cad>
          </ns3:TrackPointExtension>
        </extensions>
      </trkpt>
      <trkpt lat="45.31539031304419040679931640625" lon="-71.02401721291244029998779296875">
        <ele>747</ele>
        <time>2026-08-21T21:24:30.000Z</time>
        <extensions>
          <ns3:TrackPointExtension>
            <ns3:hr>136</ns3:hr>
            <ns3:cad>0</ns3:cad>
          </ns3:TrackPointExtension>
        </extensions>
      </trkpt>
      <trkpt lat="45.3153915703296661376953125" lon="-71.02404152043163776397705078125">
        <ele>747</ele>
        <time>2026-08-21T21:24:31.000Z</time>
        <extensions>
          <ns3:TrackPointExtension>
            <ns3:hr>135</ns3:hr>
            <ns3:cad>0</ns3:cad>
          </ns3:TrackPointExtension>
        </extensions>
      </trkpt>
      <trkpt lat="45.31539182178676128387451171875" lon="-71.0240667499601840972900390625">
        <ele>746.79998779296875</ele>
        <time>2026-08-21T21:24:32.000Z</time>
        <extensions>
          <ns3:TrackPointExtension>
            <ns3:hr>135</ns3:hr>
            <ns3:cad>0</ns3:cad>
          </ns3:TrackPointExtension>
        </extensions>
      </trkpt>
      <trkpt lat="45.3153955936431884765625" lon="-71.02408242411911487579345703125">
        <ele>746.79998779296875</ele>
        <time>2026-08-21T21:24:33.000Z</time>
        <extensions>
          <ns3:TrackPointExtension>
            <ns3:hr>134</ns3:hr>
            <ns3:cad>0</ns3:cad>
          </ns3:TrackPointExtension>
        </extensions>
      </trkpt>
      <trkpt lat="45.31539685092866420745849609375" lon="-71.02409818209707736968994140625">
        <ele>746.5999755859375</ele>
        <time>2026-08-21T21:24:34.000Z</time>
        <extensions>
          <ns3:TrackPointExtension>
            <ns3:hr>132</ns3:hr>
            <ns3:cad>0</ns3:cad>
          </ns3:TrackPointExtension>
        </extensions>
      </trkpt>
      <trkpt lat="45.31539701856672763824462890625" lon="-71.0241136886179447174072265625">
        <ele>746.5999755859375</ele>
        <time>2026-08-21T21:24:35.000Z</time>
        <extensions>
          <ns3:TrackPointExtension>
            <ns3:hr>131</ns3:hr>
            <ns3:cad>0</ns3:cad>
          </ns3:TrackPointExtension>
        </extensions>
      </trkpt>
      <trkpt lat="45.315390564501285552978515625" lon="-71.02412953041493892669677734375">
        <ele>746.4000244140625</ele>
        <time>2026-08-21T21:24:36.000Z</time>
        <extensions>
          <ns3:TrackPointExtension>
            <ns3:hr>130</ns3:hr>
            <ns3:cad>0</ns3:cad>
          </ns3:TrackPointExtension>
        </extensions>
      </trkpt>
      <trkpt lat="45.3153816796839237213134765625" lon="-71.02414646185934543609619140625">
        <ele>746.4000244140625</ele>
        <time>2026-08-21T21:24:37.000Z</time>
        <extensions>
          <ns3:TrackPointExtension>
            <ns3:hr>130</ns3:hr>
            <ns3:cad>0</ns3:cad>
          </ns3:TrackPointExtension>
        </extensions>
      </trkpt>
      <trkpt lat="45.3153803385794162750244140625" lon="-71.0241609625518321990966796875">
        <ele>746.20001220703125</ele>
        <time>2026-08-21T21:24:38.000Z</time>
        <extensions>
          <ns3:TrackPointExtension>
            <ns3:hr>130</ns3:hr>
            <ns3:cad>0</ns3:cad>
          </ns3:TrackPointExtension>
        </extensions>
      </trkpt>
      <trkpt lat="45.31537908129394054412841796875" lon="-71.024180240929126739501953125">
        <ele>746</ele>
        <time>2026-08-21T21:24:39.000Z</time>
        <extensions>
          <ns3:TrackPointExtension>
            <ns3:hr>130</ns3:hr>
            <ns3:cad>0</ns3:cad>
          </ns3:TrackPointExtension>
        </extensions>
      </trkpt>
      <trkpt lat="45.315375812351703643798828125" lon="-71.0241931490600109100341796875">
        <ele>746</ele>
        <time>2026-08-21T21:24:40.000Z</time>
        <extensions>
          <ns3:TrackPointExtension>
            <ns3:hr>129</ns3:hr>
            <ns3:cad>0</ns3:cad>
          </ns3:TrackPointExtension>
        </extensions>
      </trkpt>
      <trkpt lat="45.3153722919523715972900390625" lon="-71.02421787567436695098876953125">
        <ele>745.79998779296875</ele>
        <time>2026-08-21T21:24:41.000Z</time>
        <extensions>
          <ns3:TrackPointExtension>
            <ns3:hr>129</ns3:hr>
            <ns3:cad>0</ns3:cad>
          </ns3:TrackPointExtension>
        </extensions>
      </trkpt>
      <trkpt lat="45.31537019647657871246337890625" lon="-71.02423489093780517578125">
        <ele>745.4000244140625</ele>
        <time>2026-08-21T21:24:42.000Z</time>
        <extensions>
          <ns3:TrackPointExtension>
            <ns3:hr>129</ns3:hr>
            <ns3:cad>0</ns3:cad>
          </ns3:TrackPointExtension>
        </extensions>
      </trkpt>
      <trkpt lat="45.31536868773400783538818359375" lon="-71.02425207383930683135986328125">
        <ele>745.20001220703125</ele>
        <time>2026-08-21T21:24:43.000Z</time>
        <extensions>
          <ns3:TrackPointExtension>
            <ns3:hr>128</ns3:hr>
            <ns3:cad>0</ns3:cad>
          </ns3:TrackPointExtension>
        </extensions>
      </trkpt>
      <trkpt lat="45.31536852009594440460205078125" lon="-71.0242682509124279022216796875">
        <ele>744.79998779296875</ele>
        <time>2026-08-21T21:24:44.000Z</time>
        <extensions>
          <ns3:TrackPointExtension>
            <ns3:hr>126</ns3:hr>
            <ns3:cad>55</ns3:cad>
          </ns3:TrackPointExtension>
        </extensions>
      </trkpt>
      <trkpt lat="45.3153719566762447357177734375" lon="-71.0242850147187709808349609375">
        <ele>744.4000244140625</ele>
        <time>2026-08-21T21:24:45.000Z</time>
        <extensions>
          <ns3:TrackPointExtension>
            <ns3:hr>125</ns3:hr>
            <ns3:cad>55</ns3:cad>
          </ns3:TrackPointExtension>
        </extensions>
      </trkpt>
      <trkpt lat="45.31537539325654506683349609375" lon="-71.02430253289639949798583984375">
        <ele>744.20001220703125</ele>
        <time>2026-08-21T21:24:46.000Z</time>
        <extensions>
          <ns3:TrackPointExtension>
            <ns3:hr>125</ns3:hr>
            <ns3:cad>55</ns3:cad>
          </ns3:TrackPointExtension>
        </extensions>
      </trkpt>
      <trkpt lat="45.315380506217479705810546875" lon="-71.02431812323629856109619140625">
        <ele>744</ele>
        <time>2026-08-21T21:24:47.000Z</time>
        <extensions>
          <ns3:TrackPointExtension>
            <ns3:hr>126</ns3:hr>
            <ns3:cad>0</ns3:cad>
          </ns3:TrackPointExtension>
        </extensions>
      </trkpt>
      <trkpt lat="45.31538494862616062164306640625" lon="-71.0243316181004047393798828125">
        <ele>743.79998779296875</ele>
        <time>2026-08-21T21:24:48.000Z</time>
        <extensions>
          <ns3:TrackPointExtension>
            <ns3:hr>125</ns3:hr>
            <ns3:cad>0</ns3:cad>
          </ns3:TrackPointExtension>
        </extensions>
      </trkpt>
      <trkpt lat="45.31539089977741241455078125" lon="-71.02434310130774974822998046875">
        <ele>743.5999755859375</ele>
        <time>2026-08-21T21:24:49.000Z</time>
        <extensions>
          <ns3:TrackPointExtension>
            <ns3:hr>126</ns3:hr>
            <ns3:cad>55</ns3:cad>
          </ns3:TrackPointExtension>
        </extensions>
      </trkpt>
      <trkpt lat="45.31539601273834705352783203125" lon="-71.024349890649318695068359375">
        <ele>743.4000244140625</ele>
        <time>2026-08-21T21:24:50.000Z</time>
        <extensions>
          <ns3:TrackPointExtension>
            <ns3:hr>126</ns3:hr>
            <ns3:cad>55</ns3:cad>
          </ns3:TrackPointExtension>
        </extensions>
      </trkpt>
      <trkpt lat="45.31540137715637683868408203125" lon="-71.02435667999088764190673828125">
        <ele>743</ele>
        <time>2026-08-21T21:24:51.000Z</time>
        <extensions>
          <ns3:TrackPointExtension>
            <ns3:hr>125</ns3:hr>
            <ns3:cad>55</ns3:cad>
          </ns3:TrackPointExtension>
        </extensions>
      </trkpt>
      <trkpt lat="45.315409339964389801025390625" lon="-71.02436120621860027313232421875">
        <ele>742.79998779296875</ele>
        <time>2026-08-21T21:24:52.000Z</time>
        <extensions>
          <ns3:TrackPointExtension>
            <ns3:hr>124</ns3:hr>
            <ns3:cad>0</ns3:cad>
          </ns3:TrackPointExtension>
        </extensions>
      </trkpt>
      <trkpt lat="45.31541696749627590179443359375" lon="-71.0243649780750274658203125">
        <ele>742.5999755859375</ele>
        <time>2026-08-21T21:24:53.000Z</time>
        <extensions>
          <ns3:TrackPointExtension>
            <ns3:hr>125</ns3:hr>
            <ns3:cad>0</ns3:cad>
          </ns3:TrackPointExtension>
        </extensions>
      </trkpt>
      <trkpt lat="45.3154229186475276947021484375" lon="-71.02437092922627925872802734375">
        <ele>742.20001220703125</ele>
        <time>2026-08-21T21:24:54.000Z</time>
        <extensions>
          <ns3:TrackPointExtension>
            <ns3:hr>125</ns3:hr>
            <ns3:cad>0</ns3:cad>
          </ns3:TrackPointExtension>
        </extensions>
      </trkpt>
      <trkpt lat="45.3154346533119678497314453125" lon="-71.024375371634960174560546875">
        <ele>742</ele>
        <time>2026-08-21T21:24:55.000Z</time>
        <extensions>
          <ns3:TrackPointExtension>
            <ns3:hr>125</ns3:hr>
            <ns3:cad>0</ns3:cad>
          </ns3:TrackPointExtension>
        </extensions>
      </trkpt>
      <trkpt lat="45.315440855920314788818359375" lon="-71.024382412433624267578125">
        <ele>741.79998779296875</ele>
        <time>2026-08-21T21:24:56.000Z</time>
        <extensions>
          <ns3:TrackPointExtension>
            <ns3:hr>124</ns3:hr>
            <ns3:cad>0</ns3:cad>
          </ns3:TrackPointExtension>
        </extensions>
      </trkpt>
      <trkpt lat="45.315451584756374359130859375" lon="-71.02438752539455890655517578125">
        <ele>741.4000244140625</ele>
        <time>2026-08-21T21:24:57.000Z</time>
        <extensions>
          <ns3:TrackPointExtension>
            <ns3:hr>124</ns3:hr>
            <ns3:cad>0</ns3:cad>
          </ns3:TrackPointExtension>
        </extensions>
      </trkpt>
      <trkpt lat="45.31546088866889476776123046875" lon="-71.0243944823741912841796875">
        <ele>741</ele>
        <time>2026-08-21T21:24:58.000Z</time>
        <extensions>
          <ns3:TrackPointExtension>
            <ns3:hr>123</ns3:hr>
            <ns3:cad>0</ns3:cad>
          </ns3:TrackPointExtension>
        </extensions>
      </trkpt>
      <trkpt lat="45.31546860001981258392333984375" lon="-71.024405546486377716064453125">
        <ele>740.5999755859375</ele>
        <time>2026-08-21T21:24:59.000Z</time>
        <extensions>
          <ns3:TrackPointExtension>
            <ns3:hr>122</ns3:hr>
            <ns3:cad>0</ns3:cad>
          </ns3:TrackPointExtension>
        </extensions>
      </trkpt>
      <trkpt lat="45.315473712980747222900390625" lon="-71.02441837079823017120361328125">
        <ele>740</ele>
        <time>2026-08-21T21:25:00.000Z</time>
        <extensions>
          <ns3:TrackPointExtension>
            <ns3:hr>122</ns3:hr>
            <ns3:cad>0</ns3:cad>
          </ns3:TrackPointExtension>
        </extensions>
      </trkpt>
      <trkpt lat="45.31547765247523784637451171875" lon="-71.024430356919765472412109375">
        <ele>739.5999755859375</ele>
        <time>2026-08-21T21:25:01.000Z</time>
        <extensions>
          <ns3:TrackPointExtension>
            <ns3:hr>121</ns3:hr>
            <ns3:cad>71</ns3:cad>
          </ns3:TrackPointExtension>
        </extensions>
      </trkpt>
      <trkpt lat="45.31548150815069675445556640625" lon="-71.02444921620190143585205078125">
        <ele>739</ele>
        <time>2026-08-21T21:25:02.000Z</time>
        <extensions>
          <ns3:TrackPointExtension>
            <ns3:hr>121</ns3:hr>
            <ns3:cad>71</ns3:cad>
          </ns3:TrackPointExtension>
        </extensions>
      </trkpt>
      <trkpt lat="45.3154822625219821929931640625" lon="-71.0244722664356231689453125">
        <ele>738.5999755859375</ele>
        <time>2026-08-21T21:25:03.000Z</time>
        <extensions>
          <ns3:TrackPointExtension>
            <ns3:hr>121</ns3:hr>
            <ns3:cad>71</ns3:cad>
          </ns3:TrackPointExtension>
        </extensions>
      </trkpt>
      <trkpt lat="45.31547983177006244659423828125" lon="-71.02449464611709117889404296875">
        <ele>738</ele>
        <time>2026-08-21T21:25:04.000Z</time>
        <extensions>
          <ns3:TrackPointExtension>
            <ns3:hr>121</ns3:hr>
            <ns3:cad>0</ns3:cad>
          </ns3:TrackPointExtension>
        </extensions>
      </trkpt>
      <trkpt lat="45.3154775686562061309814453125" lon="-71.024516858160495758056640625">
        <ele>737.5999755859375</ele>
        <time>2026-08-21T21:25:05.000Z</time>
        <extensions>
          <ns3:TrackPointExtension>
            <ns3:hr>120</ns3:hr>
            <ns3:cad>0</ns3:cad>
          </ns3:TrackPointExtension>
        </extensions>
      </trkpt>
      <trkpt lat="45.31547513790428638458251953125" lon="-71.02453806437551975250244140625">
        <ele>737.20001220703125</ele>
        <time>2026-08-21T21:25:06.000Z</time>
        <extensions>
          <ns3:TrackPointExtension>
            <ns3:hr>121</ns3:hr>
            <ns3:cad>0</ns3:cad>
          </ns3:TrackPointExtension>
        </extensions>
      </trkpt>
      <trkpt lat="45.3154765628278255462646484375" lon="-71.024559438228607177734375">
        <ele>736.79998779296875</ele>
        <time>2026-08-21T21:25:07.000Z</time>
        <extensions>
          <ns3:TrackPointExtension>
            <ns3:hr>122</ns3:hr>
            <ns3:cad>80</ns3:cad>
          </ns3:TrackPointExtension>
        </extensions>
      </trkpt>
      <trkpt lat="45.3154815919697284698486328125" lon="-71.02458248846232891082763671875">
        <ele>736.20001220703125</ele>
        <time>2026-08-21T21:25:08.000Z</time>
        <extensions>
          <ns3:TrackPointExtension>
            <ns3:hr>122</ns3:hr>
            <ns3:cad>80</ns3:cad>
          </ns3:TrackPointExtension>
        </extensions>
      </trkpt>
      <trkpt lat="45.3154774010181427001953125" lon="-71.02460176683962345123291015625">
        <ele>735.79998779296875</ele>
        <time>2026-08-21T21:25:09.000Z</time>
        <extensions>
          <ns3:TrackPointExtension>
            <ns3:hr>122</ns3:hr>
            <ns3:cad>80</ns3:cad>
          </ns3:TrackPointExtension>
        </extensions>
      </trkpt>
      <trkpt lat="45.31547798775136470794677734375" lon="-71.02461903356015682220458984375">
        <ele>735.4000244140625</ele>
        <time>2026-08-21T21:25:10.000Z</time>
        <extensions>
          <ns3:TrackPointExtension>
            <ns3:hr>122</ns3:hr>
            <ns3:cad>80</ns3:cad>
          </ns3:TrackPointExtension>
        </extensions>
      </trkpt>
      <trkpt lat="45.31547807157039642333984375" lon="-71.024638898670673370361328125">
        <ele>734.79998779296875</ele>
        <time>2026-08-21T21:25:11.000Z</time>
        <extensions>
          <ns3:TrackPointExtension>
            <ns3:hr>123</ns3:hr>
            <ns3:cad>77</ns3:cad>
          </ns3:TrackPointExtension>
        </extensions>
      </trkpt>
      <trkpt lat="45.3154809214174747467041015625" lon="-71.02465775795280933380126953125">
        <ele>734.4000244140625</ele>
        <time>2026-08-21T21:25:12.000Z</time>
        <extensions>
          <ns3:TrackPointExtension>
            <ns3:hr>123</ns3:hr>
            <ns3:cad>75</ns3:cad>
          </ns3:TrackPointExtension>
        </extensions>
      </trkpt>
      <trkpt lat="45.3154829330742359161376953125" lon="-71.02467468939721584320068359375">
        <ele>733.79998779296875</ele>
        <time>2026-08-21T21:25:13.000Z</time>
        <extensions>
          <ns3:TrackPointExtension>
            <ns3:hr>124</ns3:hr>
            <ns3:cad>75</ns3:cad>
          </ns3:TrackPointExtension>
        </extensions>
      </trkpt>
      <trkpt lat="45.31548586674034595489501953125" lon="-71.0246856696903705596923828125">
        <ele>733.4000244140625</ele>
        <time>2026-08-21T21:25:14.000Z</time>
        <extensions>
          <ns3:TrackPointExtension>
            <ns3:hr>125</ns3:hr>
            <ns3:cad>75</ns3:cad>
          </ns3:TrackPointExtension>
        </extensions>
      </trkpt>
      <trkpt lat="45.3154866211116313934326171875" lon="-71.0247081331908702850341796875">
        <ele>732.79998779296875</ele>
        <time>2026-08-21T21:25:15.000Z</time>
        <extensions>
          <ns3:TrackPointExtension>
            <ns3:hr>125</ns3:hr>
            <ns3:cad>75</ns3:cad>
          </ns3:TrackPointExtension>
        </extensions>
      </trkpt>
      <trkpt lat="45.315489470958709716796875" lon="-71.0247259028255939483642578125">
        <ele>732.4000244140625</ele>
        <time>2026-08-21T21:25:16.000Z</time>
        <extensions>
          <ns3:TrackPointExtension>
            <ns3:hr>124</ns3:hr>
            <ns3:cad>77</ns3:cad>
          </ns3:TrackPointExtension>
        </extensions>
      </trkpt>
      <trkpt lat="45.31549014151096343994140625" lon="-71.0247378051280975341796875">
        <ele>732</ele>
        <time>2026-08-21T21:25:17.000Z</time>
        <extensions>
          <ns3:TrackPointExtension>
            <ns3:hr>124</ns3:hr>
            <ns3:cad>77</ns3:cad>
          </ns3:TrackPointExtension>
        </extensions>
      </trkpt>
      <trkpt lat="45.31549056060612201690673828125" lon="-71.0247480310499668121337890625">
        <ele>731.4000244140625</ele>
        <time>2026-08-21T21:25:18.000Z</time>
        <extensions>
          <ns3:TrackPointExtension>
            <ns3:hr>124</ns3:hr>
            <ns3:cad>43</ns3:cad>
          </ns3:TrackPointExtension>
        </extensions>
      </trkpt>
      <trkpt lat="45.31549156643450260162353515625" lon="-71.02476722560822963714599609375">
        <ele>731</ele>
        <time>2026-08-21T21:25:19.000Z</time>
        <extensions>
          <ns3:TrackPointExtension>
            <ns3:hr>124</ns3:hr>
            <ns3:cad>43</ns3:cad>
          </ns3:TrackPointExtension>
        </extensions>
      </trkpt>
      <trkpt lat="45.3154953382909297943115234375" lon="-71.02477963082492351531982421875">
        <ele>730.4000244140625</ele>
        <time>2026-08-21T21:25:20.000Z</time>
        <extensions>
          <ns3:TrackPointExtension>
            <ns3:hr>124</ns3:hr>
            <ns3:cad>43</ns3:cad>
          </ns3:TrackPointExtension>
        </extensions>
      </trkpt>
      <trkpt lat="45.315497852861881256103515625" lon="-71.024799160659313201904296875">
        <ele>729.79998779296875</ele>
        <time>2026-08-21T21:25:21.000Z</time>
        <extensions>
          <ns3:TrackPointExtension>
            <ns3:hr>124</ns3:hr>
            <ns3:cad>76</ns3:cad>
          </ns3:TrackPointExtension>
        </extensions>
      </trkpt>
      <trkpt lat="45.3154934942722320556640625" lon="-71.024816595017910003662109375">
        <ele>729.20001220703125</ele>
        <time>2026-08-21T21:25:22.000Z</time>
        <extensions>
          <ns3:TrackPointExtension>
            <ns3:hr>124</ns3:hr>
            <ns3:cad>76</ns3:cad>
          </ns3:TrackPointExtension>
        </extensions>
      </trkpt>
      <trkpt lat="45.315491817891597747802734375" lon="-71.02482707239687442779541015625">
        <ele>728.79998779296875</ele>
        <time>2026-08-21T21:25:23.000Z</time>
        <extensions>
          <ns3:TrackPointExtension>
            <ns3:hr>123</ns3:hr>
            <ns3:cad>77</ns3:cad>
          </ns3:TrackPointExtension>
        </extensions>
      </trkpt>
      <trkpt lat="45.3154929913580417633056640625" lon="-71.02485238574445247650146484375">
        <ele>728.20001220703125</ele>
        <time>2026-08-21T21:25:24.000Z</time>
        <extensions>
          <ns3:TrackPointExtension>
            <ns3:hr>123</ns3:hr>
            <ns3:cad>0</ns3:cad>
          </ns3:TrackPointExtension>
        </extensions>
      </trkpt>
      <trkpt lat="45.31549491919577121734619140625" lon="-71.02486613206565380096435546875">
        <ele>727.4000244140625</ele>
        <time>2026-08-21T21:25:25.000Z</time>
        <extensions>
          <ns3:TrackPointExtension>
            <ns3:hr>123</ns3:hr>
            <ns3:cad>0</ns3:cad>
          </ns3:TrackPointExtension>
        </extensions>
      </trkpt>
      <trkpt lat="45.31549341045320034027099609375" lon="-71.02488541044294834136962890625">
        <ele>726.79998779296875</ele>
        <time>2026-08-21T21:25:26.000Z</time>
        <extensions>
          <ns3:TrackPointExtension>
            <ns3:hr>123</ns3:hr>
            <ns3:cad>0</ns3:cad>
          </ns3:TrackPointExtension>
        </extensions>
      </trkpt>
      <trkpt lat="45.3154966793954372406005859375" lon="-71.02489865384995937347412109375">
        <ele>726.20001220703125</ele>
        <time>2026-08-21T21:25:27.000Z</time>
        <extensions>
          <ns3:TrackPointExtension>
            <ns3:hr>123</ns3:hr>
            <ns3:cad>0</ns3:cad>
          </ns3:TrackPointExtension>
        </extensions>
      </trkpt>
      <trkpt lat="45.31550028361380100250244140625" lon="-71.02491910569369792938232421875">
        <ele>725.5999755859375</ele>
        <time>2026-08-21T21:25:28.000Z</time>
        <extensions>
          <ns3:TrackPointExtension>
            <ns3:hr>123</ns3:hr>
            <ns3:cad>41</ns3:cad>
          </ns3:TrackPointExtension>
        </extensions>
      </trkpt>
      <trkpt lat="45.3155037201941013336181640625" lon="-71.02493503130972385406494140625">
        <ele>725.20001220703125</ele>
        <time>2026-08-21T21:25:29.000Z</time>
        <extensions>
          <ns3:TrackPointExtension>
            <ns3:hr>123</ns3:hr>
            <ns3:cad>0</ns3:cad>
          </ns3:TrackPointExtension>
        </extensions>
      </trkpt>
      <trkpt lat="45.31550296582281589508056640625" lon="-71.0249555669724941253662109375">
        <ele>724.5999755859375</ele>
        <time>2026-08-21T21:25:30.000Z</time>
        <extensions>
          <ns3:TrackPointExtension>
            <ns3:hr>123</ns3:hr>
            <ns3:cad>0</ns3:cad>
          </ns3:TrackPointExtension>
        </extensions>
      </trkpt>
      <trkpt lat="45.31550765968859195709228515625" lon="-71.0249803774058818817138671875">
        <ele>724.20001220703125</ele>
        <time>2026-08-21T21:25:31.000Z</time>
        <extensions>
          <ns3:TrackPointExtension>
            <ns3:hr>123</ns3:hr>
            <ns3:cad>0</ns3:cad>
          </ns3:TrackPointExtension>
        </extensions>
      </trkpt>
      <trkpt lat="45.31551134772598743438720703125" lon="-71.02499663829803466796875">
        <ele>723.5999755859375</ele>
        <time>2026-08-21T21:25:32.000Z</time>
        <extensions>
          <ns3:TrackPointExtension>
            <ns3:hr>123</ns3:hr>
            <ns3:cad>0</ns3:cad>
          </ns3:TrackPointExtension>
        </extensions>
      </trkpt>
      <trkpt lat="45.3155154548585414886474609375" lon="-71.0250140726566314697265625">
        <ele>723</ele>
        <time>2026-08-21T21:25:33.000Z</time>
        <extensions>
          <ns3:TrackPointExtension>
            <ns3:hr>123</ns3:hr>
            <ns3:cad>0</ns3:cad>
          </ns3:TrackPointExtension>
        </extensions>
      </trkpt>
      <trkpt lat="45.315517969429492950439453125" lon="-71.0250303335487842559814453125">
        <ele>722.5999755859375</ele>
        <time>2026-08-21T21:25:34.000Z</time>
        <extensions>
          <ns3:TrackPointExtension>
            <ns3:hr>124</ns3:hr>
            <ns3:cad>0</ns3:cad>
          </ns3:TrackPointExtension>
        </extensions>
      </trkpt>
      <trkpt lat="45.315517969429492950439453125" lon="-71.0250434093177318572998046875">
        <ele>722.20001220703125</ele>
        <time>2026-08-21T21:25:35.000Z</time>
        <extensions>
          <ns3:TrackPointExtension>
            <ns3:hr>124</ns3:hr>
            <ns3:cad>0</ns3:cad>
          </ns3:TrackPointExtension>
        </extensions>
      </trkpt>
      <trkpt lat="45.31551687978208065032958984375" lon="-71.025063693523406982421875">
        <ele>721.5999755859375</ele>
        <time>2026-08-21T21:25:36.000Z</time>
        <extensions>
          <ns3:TrackPointExtension>
            <ns3:hr>124</ns3:hr>
            <ns3:cad>0</ns3:cad>
          </ns3:TrackPointExtension>
        </extensions>
      </trkpt>
      <trkpt lat="45.31551620922982692718505859375" lon="-71.0250757634639739990234375">
        <ele>721.20001220703125</ele>
        <time>2026-08-21T21:25:37.000Z</time>
        <extensions>
          <ns3:TrackPointExtension>
            <ns3:hr>123</ns3:hr>
            <ns3:cad>0</ns3:cad>
          </ns3:TrackPointExtension>
        </extensions>
      </trkpt>
      <trkpt lat="45.3155114315450191497802734375" lon="-71.0250920243561267852783203125">
        <ele>720.79998779296875</ele>
        <time>2026-08-21T21:25:38.000Z</time>
        <extensions>
          <ns3:TrackPointExtension>
            <ns3:hr>124</ns3:hr>
            <ns3:cad>0</ns3:cad>
          </ns3:TrackPointExtension>
        </extensions>
      </trkpt>
      <trkpt lat="45.3155030496418476104736328125" lon="-71.02511256001889705657958984375">
        <ele>720.4000244140625</ele>
        <time>2026-08-21T21:25:39.000Z</time>
        <extensions>
          <ns3:TrackPointExtension>
            <ns3:hr>124</ns3:hr>
            <ns3:cad>0</ns3:cad>
          </ns3:TrackPointExtension>
        </extensions>
      </trkpt>
      <trkpt lat="45.3154950030148029327392578125" lon="-71.02512647397816181182861328125">
        <ele>720.20001220703125</ele>
        <time>2026-08-21T21:25:40.000Z</time>
        <extensions>
          <ns3:TrackPointExtension>
            <ns3:hr>124</ns3:hr>
            <ns3:cad>69</ns3:cad>
          </ns3:TrackPointExtension>
        </extensions>
      </trkpt>
      <trkpt lat="45.31548335216939449310302734375" lon="-71.025137118995189666748046875">
        <ele>719.79998779296875</ele>
        <time>2026-08-21T21:25:41.000Z</time>
        <extensions>
          <ns3:TrackPointExtension>
            <ns3:hr>123</ns3:hr>
            <ns3:cad>70</ns3:cad>
          </ns3:TrackPointExtension>
        </extensions>
      </trkpt>
      <trkpt lat="45.3154705278575420379638671875" lon="-71.025149524211883544921875">
        <ele>719.5999755859375</ele>
        <time>2026-08-21T21:25:42.000Z</time>
        <extensions>
          <ns3:TrackPointExtension>
            <ns3:hr>124</ns3:hr>
            <ns3:cad>70</ns3:cad>
          </ns3:TrackPointExtension>
        </extensions>
      </trkpt>
      <trkpt lat="45.3154574520885944366455078125" lon="-71.0251580737531185150146484375">
        <ele>719.4000244140625</ele>
        <time>2026-08-21T21:25:43.000Z</time>
        <extensions>
          <ns3:TrackPointExtension>
            <ns3:hr>124</ns3:hr>
            <ns3:cad>70</ns3:cad>
          </ns3:TrackPointExtension>
        </extensions>
      </trkpt>
      <trkpt lat="45.31545166857540607452392578125" lon="-71.0251791961491107940673828125">
        <ele>719.4000244140625</ele>
        <time>2026-08-21T21:25:44.000Z</time>
        <extensions>
          <ns3:TrackPointExtension>
            <ns3:hr>123</ns3:hr>
            <ns3:cad>70</ns3:cad>
          </ns3:TrackPointExtension>
        </extensions>
      </trkpt>
      <trkpt lat="45.3154433704912662506103515625" lon="-71.02519621141254901885986328125">
        <ele>719.20001220703125</ele>
        <time>2026-08-21T21:25:45.000Z</time>
        <extensions>
          <ns3:TrackPointExtension>
            <ns3:hr>123</ns3:hr>
            <ns3:cad>70</ns3:cad>
          </ns3:TrackPointExtension>
        </extensions>
      </trkpt>
      <trkpt lat="45.3154373355209827423095703125" lon="-71.02521163411438465118408203125">
        <ele>719.20001220703125</ele>
        <time>2026-08-21T21:25:46.000Z</time>
        <extensions>
          <ns3:TrackPointExtension>
            <ns3:hr>123</ns3:hr>
            <ns3:cad>70</ns3:cad>
          </ns3:TrackPointExtension>
        </extensions>
      </trkpt>
      <trkpt lat="45.3154319711029529571533203125" lon="-71.02522705681622028350830078125">
        <ele>719.20001220703125</ele>
        <time>2026-08-21T21:25:47.000Z</time>
        <extensions>
          <ns3:TrackPointExtension>
            <ns3:hr>123</ns3:hr>
            <ns3:cad>70</ns3:cad>
          </ns3:TrackPointExtension>
        </extensions>
      </trkpt>
      <trkpt lat="45.31542518176138401031494140625" lon="-71.0252462513744831085205078125">
        <ele>719.20001220703125</ele>
        <time>2026-08-21T21:25:48.000Z</time>
        <extensions>
          <ns3:TrackPointExtension>
            <ns3:hr>123</ns3:hr>
            <ns3:cad>70</ns3:cad>
          </ns3:TrackPointExtension>
        </extensions>
      </trkpt>
      <trkpt lat="45.31541503965854644775390625" lon="-71.025259830057621002197265625">
        <ele>719.20001220703125</ele>
        <time>2026-08-21T21:25:49.000Z</time>
        <extensions>
          <ns3:TrackPointExtension>
            <ns3:hr>123</ns3:hr>
            <ns3:cad>70</ns3:cad>
          </ns3:TrackPointExtension>
        </extensions>
      </trkpt>
      <trkpt lat="45.31540221534669399261474609375" lon="-71.02526326663792133331298828125">
        <ele>719.20001220703125</ele>
        <time>2026-08-21T21:25:50.000Z</time>
        <extensions>
          <ns3:TrackPointExtension>
            <ns3:hr>122</ns3:hr>
            <ns3:cad>70</ns3:cad>
          </ns3:TrackPointExtension>
        </extensions>
      </trkpt>
      <trkpt lat="45.31538913957774639129638671875" lon="-71.02526460774242877960205078125">
        <ele>719.20001220703125</ele>
        <time>2026-08-21T21:25:51.000Z</time>
        <extensions>
          <ns3:TrackPointExtension>
            <ns3:hr>123</ns3:hr>
            <ns3:cad>70</ns3:cad>
          </ns3:TrackPointExtension>
        </extensions>
      </trkpt>
      <trkpt lat="45.31537438742816448211669921875" lon="-71.025268547236919403076171875">
        <ele>719.20001220703125</ele>
        <time>2026-08-21T21:25:52.000Z</time>
        <extensions>
          <ns3:TrackPointExtension>
            <ns3:hr>124</ns3:hr>
            <ns3:cad>70</ns3:cad>
          </ns3:TrackPointExtension>
        </extensions>
      </trkpt>
      <trkpt lat="45.3153608925640583038330078125" lon="-71.02527382783591747283935546875">
        <ele>719.4000244140625</ele>
        <time>2026-08-21T21:25:53.000Z</time>
        <extensions>
          <ns3:TrackPointExtension>
            <ns3:hr>123</ns3:hr>
            <ns3:cad>70</ns3:cad>
          </ns3:TrackPointExtension>
        </extensions>
      </trkpt>
      <trkpt lat="45.31534739769995212554931640625" lon="-71.025277934968471527099609375">
        <ele>719.4000244140625</ele>
        <time>2026-08-21T21:25:54.000Z</time>
        <extensions>
          <ns3:TrackPointExtension>
            <ns3:hr>123</ns3:hr>
            <ns3:cad>70</ns3:cad>
          </ns3:TrackPointExtension>
        </extensions>
      </trkpt>
      <trkpt lat="45.31533683650195598602294921875" lon="-71.0252851434051990509033203125">
        <ele>719.5999755859375</ele>
        <time>2026-08-21T21:25:55.000Z</time>
        <extensions>
          <ns3:TrackPointExtension>
            <ns3:hr>122</ns3:hr>
            <ns3:cad>0</ns3:cad>
          </ns3:TrackPointExtension>
        </extensions>
      </trkpt>
      <trkpt lat="45.31532241962850093841552734375" lon="-71.02529126219451427459716796875">
        <ele>719.5999755859375</ele>
        <time>2026-08-21T21:25:56.000Z</time>
        <extensions>
          <ns3:TrackPointExtension>
            <ns3:hr>122</ns3:hr>
            <ns3:cad>0</ns3:cad>
          </ns3:TrackPointExtension>
        </extensions>
      </trkpt>
      <trkpt lat="45.31530850566923618316650390625" lon="-71.0252945311367511749267578125">
        <ele>719.5999755859375</ele>
        <time>2026-08-21T21:25:57.000Z</time>
        <extensions>
          <ns3:TrackPointExtension>
            <ns3:hr>121</ns3:hr>
            <ns3:cad>0</ns3:cad>
          </ns3:TrackPointExtension>
        </extensions>
      </trkpt>
      <trkpt lat="45.31529358588159084320068359375" lon="-71.02529126219451427459716796875">
        <ele>719.5999755859375</ele>
        <time>2026-08-21T21:25:58.000Z</time>
        <extensions>
          <ns3:TrackPointExtension>
            <ns3:hr>120</ns3:hr>
            <ns3:cad>0</ns3:cad>
          </ns3:TrackPointExtension>
        </extensions>
      </trkpt>
      <trkpt lat="45.31528134830296039581298828125" lon="-71.02528874762356281280517578125">
        <ele>719.79998779296875</ele>
        <time>2026-08-21T21:25:59.000Z</time>
        <extensions>
          <ns3:TrackPointExtension>
            <ns3:hr>120</ns3:hr>
            <ns3:cad>0</ns3:cad>
          </ns3:TrackPointExtension>
        </extensions>
      </trkpt>
      <trkpt lat="45.3152680210769176483154296875" lon="-71.02528505958616733551025390625">
        <ele>719.79998779296875</ele>
        <time>2026-08-21T21:26:00.000Z</time>
        <extensions>
          <ns3:TrackPointExtension>
            <ns3:hr>119</ns3:hr>
            <ns3:cad>0</ns3:cad>
          </ns3:TrackPointExtension>
        </extensions>
      </trkpt>
      <trkpt lat="45.315253771841526031494140625" lon="-71.02528422139585018157958984375">
        <ele>720</ele>
        <time>2026-08-21T21:26:01.000Z</time>
        <extensions>
          <ns3:TrackPointExtension>
            <ns3:hr>121</ns3:hr>
            <ns3:cad>0</ns3:cad>
          </ns3:TrackPointExtension>
        </extensions>
      </trkpt>
      <trkpt lat="45.31524010933935642242431640625" lon="-71.02528975345194339752197265625">
        <ele>720</ele>
        <time>2026-08-21T21:26:02.000Z</time>
        <extensions>
          <ns3:TrackPointExtension>
            <ns3:hr>122</ns3:hr>
            <ns3:cad>0</ns3:cad>
          </ns3:TrackPointExtension>
        </extensions>
      </trkpt>
      <trkpt lat="45.3152301348745822906494140625" lon="-71.0253022424876689910888671875">
        <ele>720</ele>
        <time>2026-08-21T21:26:03.000Z</time>
        <extensions>
          <ns3:TrackPointExtension>
            <ns3:hr>122</ns3:hr>
            <ns3:cad>0</ns3:cad>
          </ns3:TrackPointExtension>
        </extensions>
      </trkpt>
      <trkpt lat="45.3152173943817615509033203125" lon="-71.025313474237918853759765625">
        <ele>720</ele>
        <time>2026-08-21T21:26:04.000Z</time>
        <extensions>
          <ns3:TrackPointExtension>
            <ns3:hr>122</ns3:hr>
            <ns3:cad>53</ns3:cad>
          </ns3:TrackPointExtension>
        </extensions>
      </trkpt>
      <trkpt lat="45.31520624645054340362548828125" lon="-71.02532244287431240081787109375">
        <ele>720</ele>
        <time>2026-08-21T21:26:05.000Z</time>
        <extensions>
          <ns3:TrackPointExtension>
            <ns3:hr>123</ns3:hr>
            <ns3:cad>53</ns3:cad>
          </ns3:TrackPointExtension>
        </extensions>
      </trkpt>
      <trkpt lat="45.31519384123384952545166015625" lon="-71.02534540928900241851806640625">
        <ele>720</ele>
        <time>2026-08-21T21:26:06.000Z</time>
        <extensions>
          <ns3:TrackPointExtension>
            <ns3:hr>123</ns3:hr>
            <ns3:cad>53</ns3:cad>
          </ns3:TrackPointExtension>
        </extensions>
      </trkpt>
      <trkpt lat="45.31518177129328250885009765625" lon="-71.02536954917013645172119140625">
        <ele>720</ele>
        <time>2026-08-21T21:26:07.000Z</time>
        <extensions>
          <ns3:TrackPointExtension>
            <ns3:hr>123</ns3:hr>
            <ns3:cad>53</ns3:cad>
          </ns3:TrackPointExtension>
        </extensions>
      </trkpt>
      <trkpt lat="45.3151716291904449462890625" lon="-71.0253843851387500762939453125">
        <ele>720</ele>
        <time>2026-08-21T21:26:08.000Z</time>
        <extensions>
          <ns3:TrackPointExtension>
            <ns3:hr>123</ns3:hr>
            <ns3:cad>53</ns3:cad>
          </ns3:TrackPointExtension>
        </extensions>
      </trkpt>
      <trkpt lat="45.31516048125922679901123046875" lon="-71.02539905346930027008056640625">
        <ele>719.79998779296875</ele>
        <time>2026-08-21T21:26:09.000Z</time>
        <extensions>
          <ns3:TrackPointExtension>
            <ns3:hr>123</ns3:hr>
            <ns3:cad>53</ns3:cad>
          </ns3:TrackPointExtension>
        </extensions>
      </trkpt>
      <trkpt lat="45.31514589674770832061767578125" lon="-71.0254192538559436798095703125">
        <ele>719.79998779296875</ele>
        <time>2026-08-21T21:26:10.000Z</time>
        <extensions>
          <ns3:TrackPointExtension>
            <ns3:hr>123</ns3:hr>
            <ns3:cad>0</ns3:cad>
          </ns3:TrackPointExtension>
        </extensions>
      </trkpt>
      <trkpt lat="45.315137766301631927490234375" lon="-71.0254432260990142822265625">
        <ele>719.79998779296875</ele>
        <time>2026-08-21T21:26:11.000Z</time>
        <extensions>
          <ns3:TrackPointExtension>
            <ns3:hr>122</ns3:hr>
            <ns3:cad>0</ns3:cad>
          </ns3:TrackPointExtension>
        </extensions>
      </trkpt>
      <trkpt lat="45.315131060779094696044921875" lon="-71.02546309120953083038330078125">
        <ele>719.79998779296875</ele>
        <time>2026-08-21T21:26:12.000Z</time>
        <extensions>
          <ns3:TrackPointExtension>
            <ns3:hr>122</ns3:hr>
            <ns3:cad>0</ns3:cad>
          </ns3:TrackPointExtension>
        </extensions>
      </trkpt>
      <trkpt lat="45.315127037465572357177734375" lon="-71.0254836268723011016845703125">
        <ele>719.79998779296875</ele>
        <time>2026-08-21T21:26:13.000Z</time>
        <extensions>
          <ns3:TrackPointExtension>
            <ns3:hr>122</ns3:hr>
            <ns3:cad>0</ns3:cad>
          </ns3:TrackPointExtension>
        </extensions>
      </trkpt>
      <trkpt lat="45.31512200832366943359375" lon="-71.025508940219879150390625">
        <ele>719.79998779296875</ele>
        <time>2026-08-21T21:26:14.000Z</time>
        <extensions>
          <ns3:TrackPointExtension>
            <ns3:hr>122</ns3:hr>
            <ns3:cad>0</ns3:cad>
          </ns3:TrackPointExtension>
        </extensions>
      </trkpt>
      <trkpt lat="45.31511706300079822540283203125" lon="-71.02554372511804103851318359375">
        <ele>720</ele>
        <time>2026-08-21T21:26:15.000Z</time>
        <extensions>
          <ns3:TrackPointExtension>
            <ns3:hr>122</ns3:hr>
            <ns3:cad>0</ns3:cad>
          </ns3:TrackPointExtension>
        </extensions>
      </trkpt>
      <trkpt lat="45.31511739827692508697509765625" lon="-71.02556526660919189453125">
        <ele>720</ele>
        <time>2026-08-21T21:26:16.000Z</time>
        <extensions>
          <ns3:TrackPointExtension>
            <ns3:hr>122</ns3:hr>
            <ns3:cad>0</ns3:cad>
          </ns3:TrackPointExtension>
        </extensions>
      </trkpt>
      <trkpt lat="45.3151171468198299407958984375" lon="-71.02558496408164501190185546875">
        <ele>720</ele>
        <time>2026-08-21T21:26:17.000Z</time>
        <extensions>
          <ns3:TrackPointExtension>
            <ns3:hr>122</ns3:hr>
            <ns3:cad>0</ns3:cad>
          </ns3:TrackPointExtension>
        </extensions>
      </trkpt>
      <trkpt lat="45.31511756591498851776123046875" lon="-71.0256060026586055755615234375">
        <ele>720</ele>
        <time>2026-08-21T21:26:18.000Z</time>
        <extensions>
          <ns3:TrackPointExtension>
            <ns3:hr>122</ns3:hr>
            <ns3:cad>0</ns3:cad>
          </ns3:TrackPointExtension>
        </extensions>
      </trkpt>
      <trkpt lat="45.3151179850101470947265625" lon="-71.02562150917947292327880859375">
        <ele>720</ele>
        <time>2026-08-21T21:26:19.000Z</time>
        <extensions>
          <ns3:TrackPointExtension>
            <ns3:hr>122</ns3:hr>
            <ns3:cad>0</ns3:cad>
          </ns3:TrackPointExtension>
        </extensions>
      </trkpt>
      <trkpt lat="45.3151206672191619873046875" lon="-71.02564296685159206390380859375">
        <ele>720</ele>
        <time>2026-08-21T21:26:20.000Z</time>
        <extensions>
          <ns3:TrackPointExtension>
            <ns3:hr>122</ns3:hr>
            <ns3:cad>0</ns3:cad>
          </ns3:TrackPointExtension>
        </extensions>
      </trkpt>
      <trkpt lat="45.31512326560914516448974609375" lon="-71.025663502514362335205078125">
        <ele>720.20001220703125</ele>
        <time>2026-08-21T21:26:21.000Z</time>
        <extensions>
          <ns3:TrackPointExtension>
            <ns3:hr>122</ns3:hr>
            <ns3:cad>54</ns3:cad>
          </ns3:TrackPointExtension>
        </extensions>
      </trkpt>
      <trkpt lat="45.31512527726590633392333984375" lon="-71.02567590773105621337890625">
        <ele>720.20001220703125</ele>
        <time>2026-08-21T21:26:22.000Z</time>
        <extensions>
          <ns3:TrackPointExtension>
            <ns3:hr>122</ns3:hr>
            <ns3:cad>54</ns3:cad>
          </ns3:TrackPointExtension>
        </extensions>
      </trkpt>
      <trkpt lat="45.3151275403797626495361328125" lon="-71.02570046670734882354736328125">
        <ele>720.4000244140625</ele>
        <time>2026-08-21T21:26:23.000Z</time>
        <extensions>
          <ns3:TrackPointExtension>
            <ns3:hr>122</ns3:hr>
            <ns3:cad>54</ns3:cad>
          </ns3:TrackPointExtension>
        </extensions>
      </trkpt>
      <trkpt lat="45.31513231806457042694091796875" lon="-71.025715805590152740478515625">
        <ele>720.4000244140625</ele>
        <time>2026-08-21T21:26:24.000Z</time>
        <extensions>
          <ns3:TrackPointExtension>
            <ns3:hr>122</ns3:hr>
            <ns3:cad>55</ns3:cad>
          </ns3:TrackPointExtension>
        </extensions>
      </trkpt>
      <trkpt lat="45.31513449735939502716064453125" lon="-71.0257297195494174957275390625">
        <ele>720.5999755859375</ele>
        <time>2026-08-21T21:26:25.000Z</time>
        <extensions>
          <ns3:TrackPointExtension>
            <ns3:hr>122</ns3:hr>
            <ns3:cad>55</ns3:cad>
          </ns3:TrackPointExtension>
        </extensions>
      </trkpt>
      <trkpt lat="45.31513550318777561187744140625" lon="-71.02574774064123630523681640625">
        <ele>720.5999755859375</ele>
        <time>2026-08-21T21:26:26.000Z</time>
        <extensions>
          <ns3:TrackPointExtension>
            <ns3:hr>122</ns3:hr>
            <ns3:cad>55</ns3:cad>
          </ns3:TrackPointExtension>
        </extensions>
      </trkpt>
      <trkpt lat="45.3151446394622325897216796875" lon="-71.02577020414173603057861328125">
        <ele>720.79998779296875</ele>
        <time>2026-08-21T21:26:27.000Z</time>
        <extensions>
          <ns3:TrackPointExtension>
            <ns3:hr>122</ns3:hr>
            <ns3:cad>55</ns3:cad>
          </ns3:TrackPointExtension>
        </extensions>
      </trkpt>
      <trkpt lat="45.31514790840446949005126953125" lon="-71.02578847669064998626708984375">
        <ele>721</ele>
        <time>2026-08-21T21:26:28.000Z</time>
        <extensions>
          <ns3:TrackPointExtension>
            <ns3:hr>122</ns3:hr>
            <ns3:cad>55</ns3:cad>
          </ns3:TrackPointExtension>
        </extensions>
      </trkpt>
      <trkpt lat="45.3151516802608966827392578125" lon="-71.02580540813505649566650390625">
        <ele>721.20001220703125</ele>
        <time>2026-08-21T21:26:29.000Z</time>
        <extensions>
          <ns3:TrackPointExtension>
            <ns3:hr>123</ns3:hr>
            <ns3:cad>55</ns3:cad>
          </ns3:TrackPointExtension>
        </extensions>
      </trkpt>
      <trkpt lat="45.3151536919176578521728515625" lon="-71.02582745254039764404296875">
        <ele>721.4000244140625</ele>
        <time>2026-08-21T21:26:30.000Z</time>
        <extensions>
          <ns3:TrackPointExtension>
            <ns3:hr>123</ns3:hr>
            <ns3:cad>55</ns3:cad>
          </ns3:TrackPointExtension>
        </extensions>
      </trkpt>
      <trkpt lat="45.3151582181453704833984375" lon="-71.02583943866193294525146484375">
        <ele>721.5999755859375</ele>
        <time>2026-08-21T21:26:31.000Z</time>
        <extensions>
          <ns3:TrackPointExtension>
            <ns3:hr>124</ns3:hr>
            <ns3:cad>0</ns3:cad>
          </ns3:TrackPointExtension>
        </extensions>
      </trkpt>
      <trkpt lat="45.31516249291598796844482421875" lon="-71.02585670538246631622314453125">
        <ele>722</ele>
        <time>2026-08-21T21:26:32.000Z</time>
        <extensions>
          <ns3:TrackPointExtension>
            <ns3:hr>124</ns3:hr>
            <ns3:cad>0</ns3:cad>
          </ns3:TrackPointExtension>
        </extensions>
      </trkpt>
      <trkpt lat="45.31516601331532001495361328125" lon="-71.025863327085971832275390625">
        <ele>722.20001220703125</ele>
        <time>2026-08-21T21:26:33.000Z</time>
        <extensions>
          <ns3:TrackPointExtension>
            <ns3:hr>125</ns3:hr>
            <ns3:cad>0</ns3:cad>
          </ns3:TrackPointExtension>
        </extensions>
      </trkpt>
      <trkpt lat="45.31516836024820804595947265625" lon="-71.0258789174258708953857421875">
        <ele>722.4000244140625</ele>
        <time>2026-08-21T21:26:34.000Z</time>
        <extensions>
          <ns3:TrackPointExtension>
            <ns3:hr>126</ns3:hr>
            <ns3:cad>0</ns3:cad>
          </ns3:TrackPointExtension>
        </extensions>
      </trkpt>
      <trkpt lat="45.31517389230430126190185546875" lon="-71.0258909873664379119873046875">
        <ele>722.79998779296875</ele>
        <time>2026-08-21T21:26:35.000Z</time>
        <extensions>
          <ns3:TrackPointExtension>
            <ns3:hr>127</ns3:hr>
            <ns3:cad>0</ns3:cad>
          </ns3:TrackPointExtension>
        </extensions>
      </trkpt>
      <trkpt lat="45.31517456285655498504638671875" lon="-71.02589811198413372039794921875">
        <ele>723</ele>
        <time>2026-08-21T21:26:36.000Z</time>
        <extensions>
          <ns3:TrackPointExtension>
            <ns3:hr>128</ns3:hr>
            <ns3:cad>0</ns3:cad>
          </ns3:TrackPointExtension>
        </extensions>
      </trkpt>
      <trkpt lat="45.31517556868493556976318359375" lon="-71.0259037278592586517333984375">
        <ele>723.20001220703125</ele>
        <time>2026-08-21T21:26:37.000Z</time>
        <extensions>
          <ns3:TrackPointExtension>
            <ns3:hr>128</ns3:hr>
            <ns3:cad>0</ns3:cad>
          </ns3:TrackPointExtension>
        </extensions>
      </trkpt>
      <trkpt lat="45.3151748143136501312255859375" lon="-71.0259090922772884368896484375">
        <ele>723.5999755859375</ele>
        <time>2026-08-21T21:26:38.000Z</time>
        <extensions>
          <ns3:TrackPointExtension>
            <ns3:hr>129</ns3:hr>
            <ns3:cad>0</ns3:cad>
          </ns3:TrackPointExtension>
        </extensions>
      </trkpt>
      <trkpt lat="45.31517355702817440032958984375" lon="-71.0259154625236988067626953125">
        <ele>723.79998779296875</ele>
        <time>2026-08-21T21:26:39.000Z</time>
        <extensions>
          <ns3:TrackPointExtension>
            <ns3:hr>129</ns3:hr>
            <ns3:cad>0</ns3:cad>
          </ns3:TrackPointExtension>
        </extensions>
      </trkpt>
      <trkpt lat="45.3151778317987918853759765625" lon="-71.02591906674206256866455078125">
        <ele>724</ele>
        <time>2026-08-21T21:26:40.000Z</time>
        <extensions>
          <ns3:TrackPointExtension>
            <ns3:hr>129</ns3:hr>
            <ns3:cad>0</ns3:cad>
          </ns3:TrackPointExtension>
        </extensions>
      </trkpt>
      <trkpt lat="45.31517825089395046234130859375" lon="-71.02592535316944122314453125">
        <ele>724.20001220703125</ele>
        <time>2026-08-21T21:26:41.000Z</time>
        <extensions>
          <ns3:TrackPointExtension>
            <ns3:hr>128</ns3:hr>
            <ns3:cad>0</ns3:cad>
          </ns3:TrackPointExtension>
        </extensions>
      </trkpt>
      <trkpt lat="45.3151825256645679473876953125" lon="-71.025931723415851593017578125">
        <ele>724.5999755859375</ele>
        <time>2026-08-21T21:26:42.000Z</time>
        <extensions>
          <ns3:TrackPointExtension>
            <ns3:hr>128</ns3:hr>
            <ns3:cad>0</ns3:cad>
          </ns3:TrackPointExtension>
        </extensions>
      </trkpt>
      <trkpt lat="45.31518612988293170928955078125" lon="-71.02594102732837200164794921875">
        <ele>724.79998779296875</ele>
        <time>2026-08-21T21:26:43.000Z</time>
        <extensions>
          <ns3:TrackPointExtension>
            <ns3:hr>128</ns3:hr>
            <ns3:cad>40</ns3:cad>
          </ns3:TrackPointExtension>
        </extensions>
      </trkpt>
      <trkpt lat="45.315192751586437225341796875" lon="-71.02594706229865550994873046875">
        <ele>725</ele>
        <time>2026-08-21T21:26:44.000Z</time>
        <extensions>
          <ns3:TrackPointExtension>
            <ns3:hr>127</ns3:hr>
            <ns3:cad>40</ns3:cad>
          </ns3:TrackPointExtension>
        </extensions>
      </trkpt>
      <trkpt lat="45.31519551761448383331298828125" lon="-71.0259560309350490570068359375">
        <ele>725.20001220703125</ele>
        <time>2026-08-21T21:26:45.000Z</time>
        <extensions>
          <ns3:TrackPointExtension>
            <ns3:hr>127</ns3:hr>
            <ns3:cad>40</ns3:cad>
          </ns3:TrackPointExtension>
        </extensions>
      </trkpt>
      <trkpt lat="45.31520071439445018768310546875" lon="-71.02596382610499858856201171875">
        <ele>725.4000244140625</ele>
        <time>2026-08-21T21:26:46.000Z</time>
        <extensions>
          <ns3:TrackPointExtension>
            <ns3:hr>127</ns3:hr>
            <ns3:cad>41</ns3:cad>
          </ns3:TrackPointExtension>
        </extensions>
      </trkpt>
      <trkpt lat="45.31520046293735504150390625" lon="-71.0259603895246982574462890625">
        <ele>725.5999755859375</ele>
        <time>2026-08-21T21:26:47.000Z</time>
        <extensions>
          <ns3:TrackPointExtension>
            <ns3:hr>127</ns3:hr>
            <ns3:cad>41</ns3:cad>
          </ns3:TrackPointExtension>
        </extensions>
      </trkpt>
      <trkpt lat="45.31520708464086055755615234375" lon="-71.02597774006426334381103515625">
        <ele>725.79998779296875</ele>
        <time>2026-08-21T21:26:48.000Z</time>
        <extensions>
          <ns3:TrackPointExtension>
            <ns3:hr>127</ns3:hr>
            <ns3:cad>0</ns3:cad>
          </ns3:TrackPointExtension>
        </extensions>
      </trkpt>
      <trkpt lat="45.31520741991698741912841796875" lon="-71.02598972618579864501953125">
        <ele>726</ele>
        <time>2026-08-21T21:26:49.000Z</time>
        <extensions>
          <ns3:TrackPointExtension>
            <ns3:hr>128</ns3:hr>
            <ns3:cad>0</ns3:cad>
          </ns3:TrackPointExtension>
        </extensions>
      </trkpt>
      <trkpt lat="45.31521110795438289642333984375" lon="-71.02599986828863620758056640625">
        <ele>726.20001220703125</ele>
        <time>2026-08-21T21:26:50.000Z</time>
        <extensions>
          <ns3:TrackPointExtension>
            <ns3:hr>132</ns3:hr>
            <ns3:cad>0</ns3:cad>
          </ns3:TrackPointExtension>
        </extensions>
      </trkpt>
      <trkpt lat="45.31521462835371494293212890625" lon="-71.026018224656581878662109375">
        <ele>726.5999755859375</ele>
        <time>2026-08-21T21:26:51.000Z</time>
        <extensions>
          <ns3:TrackPointExtension>
            <ns3:hr>133</ns3:hr>
            <ns3:cad>0</ns3:cad>
          </ns3:TrackPointExtension>
        </extensions>
      </trkpt>
      <trkpt lat="45.315214879810810089111328125" lon="-71.0260324738919734954833984375">
        <ele>726.79998779296875</ele>
        <time>2026-08-21T21:26:52.000Z</time>
        <extensions>
          <ns3:TrackPointExtension>
            <ns3:hr>134</ns3:hr>
            <ns3:cad>0</ns3:cad>
          </ns3:TrackPointExtension>
        </extensions>
      </trkpt>
      <trkpt lat="45.31521680764853954315185546875" lon="-71.02603188715875148773193359375">
        <ele>727</ele>
        <time>2026-08-21T21:26:53.000Z</time>
        <extensions>
          <ns3:TrackPointExtension>
            <ns3:hr>135</ns3:hr>
            <ns3:cad>0</ns3:cad>
          </ns3:TrackPointExtension>
        </extensions>
      </trkpt>
      <trkpt lat="45.3152184002101421356201171875" lon="-71.02604395709931850433349609375">
        <ele>727.20001220703125</ele>
        <time>2026-08-21T21:26:54.000Z</time>
        <extensions>
          <ns3:TrackPointExtension>
            <ns3:hr>137</ns3:hr>
            <ns3:cad>0</ns3:cad>
          </ns3:TrackPointExtension>
        </extensions>
      </trkpt>
      <trkpt lat="45.31521764583885669708251953125" lon="-71.02605435065925121307373046875">
        <ele>727.4000244140625</ele>
        <time>2026-08-21T21:26:55.000Z</time>
        <extensions>
          <ns3:TrackPointExtension>
            <ns3:hr>138</ns3:hr>
            <ns3:cad>0</ns3:cad>
          </ns3:TrackPointExtension>
        </extensions>
      </trkpt>
      <trkpt lat="45.31521311961114406585693359375" lon="-71.02606927044689655303955078125">
        <ele>727.5999755859375</ele>
        <time>2026-08-21T21:26:56.000Z</time>
        <extensions>
          <ns3:TrackPointExtension>
            <ns3:hr>138</ns3:hr>
            <ns3:cad>45</ns3:cad>
          </ns3:TrackPointExtension>
        </extensions>
      </trkpt>
      <trkpt lat="45.31521094031631946563720703125" lon="-71.02608502842485904693603515625">
        <ele>727.79998779296875</ele>
        <time>2026-08-21T21:26:57.000Z</time>
        <extensions>
          <ns3:TrackPointExtension>
            <ns3:hr>138</ns3:hr>
            <ns3:cad>45</ns3:cad>
          </ns3:TrackPointExtension>
        </extensions>
      </trkpt>
      <trkpt lat="45.31521228142082691192626953125" lon="-71.0260908119380474090576171875">
        <ele>728.20001220703125</ele>
        <time>2026-08-21T21:26:58.000Z</time>
        <extensions>
          <ns3:TrackPointExtension>
            <ns3:hr>139</ns3:hr>
            <ns3:cad>0</ns3:cad>
          </ns3:TrackPointExtension>
        </extensions>
      </trkpt>
      <trkpt lat="45.31521295197308063507080078125" lon="-71.026099361479282379150390625">
        <ele>728.4000244140625</ele>
        <time>2026-08-21T21:26:59.000Z</time>
        <extensions>
          <ns3:TrackPointExtension>
            <ns3:hr>139</ns3:hr>
            <ns3:cad>0</ns3:cad>
          </ns3:TrackPointExtension>
        </extensions>
      </trkpt>
      <trkpt lat="45.315207503736019134521484375" lon="-71.026112772524356842041015625">
        <ele>728.5999755859375</ele>
        <time>2026-08-21T21:27:00.000Z</time>
        <extensions>
          <ns3:TrackPointExtension>
            <ns3:hr>139</ns3:hr>
            <ns3:cad>0</ns3:cad>
          </ns3:TrackPointExtension>
        </extensions>
      </trkpt>
      <trkpt lat="45.315206833183765411376953125" lon="-71.02612324990332126617431640625">
        <ele>728.79998779296875</ele>
        <time>2026-08-21T21:27:01.000Z</time>
        <extensions>
          <ns3:TrackPointExtension>
            <ns3:hr>139</ns3:hr>
            <ns3:cad>0</ns3:cad>
          </ns3:TrackPointExtension>
        </extensions>
      </trkpt>
      <trkpt lat="45.31520758755505084991455078125" lon="-71.02612760849297046661376953125">
        <ele>729</ele>
        <time>2026-08-21T21:27:02.000Z</time>
        <extensions>
          <ns3:TrackPointExtension>
            <ns3:hr>139</ns3:hr>
            <ns3:cad>0</ns3:cad>
          </ns3:TrackPointExtension>
        </extensions>
      </trkpt>
      <trkpt lat="45.315203480422496795654296875" lon="-71.0261256806552410125732421875">
        <ele>729.20001220703125</ele>
        <time>2026-08-21T21:27:03.000Z</time>
        <extensions>
          <ns3:TrackPointExtension>
            <ns3:hr>139</ns3:hr>
            <ns3:cad>0</ns3:cad>
          </ns3:TrackPointExtension>
        </extensions>
      </trkpt>
      <trkpt lat="45.3152002952992916107177734375" lon="-71.02613884024322032928466796875">
        <ele>729.4000244140625</ele>
        <time>2026-08-21T21:27:04.000Z</time>
        <extensions>
          <ns3:TrackPointExtension>
            <ns3:hr>139</ns3:hr>
            <ns3:cad>0</ns3:cad>
          </ns3:TrackPointExtension>
        </extensions>
      </trkpt>
      <trkpt lat="45.31520088203251361846923828125" lon="-71.02615334093570709228515625">
        <ele>729.5999755859375</ele>
        <time>2026-08-21T21:27:05.000Z</time>
        <extensions>
          <ns3:TrackPointExtension>
            <ns3:hr>139</ns3:hr>
            <ns3:cad>0</ns3:cad>
          </ns3:TrackPointExtension>
        </extensions>
      </trkpt>
      <trkpt lat="45.31520448625087738037109375" lon="-71.026157028973102569580078125">
        <ele>729.79998779296875</ele>
        <time>2026-08-21T21:27:06.000Z</time>
        <extensions>
          <ns3:TrackPointExtension>
            <ns3:hr>139</ns3:hr>
            <ns3:cad>0</ns3:cad>
          </ns3:TrackPointExtension>
        </extensions>
      </trkpt>
      <trkpt lat="45.31520272605121135711669921875" lon="-71.02616650052368640899658203125">
        <ele>730</ele>
        <time>2026-08-21T21:27:07.000Z</time>
        <extensions>
          <ns3:TrackPointExtension>
            <ns3:hr>139</ns3:hr>
            <ns3:cad>0</ns3:cad>
          </ns3:TrackPointExtension>
        </extensions>
      </trkpt>
      <trkpt lat="45.31520306132733821868896484375" lon="-71.02617613971233367919921875">
        <ele>730.20001220703125</ele>
        <time>2026-08-21T21:27:08.000Z</time>
        <extensions>
          <ns3:TrackPointExtension>
            <ns3:hr>140</ns3:hr>
            <ns3:cad>41</ns3:cad>
          </ns3:TrackPointExtension>
        </extensions>
      </trkpt>
      <trkpt lat="45.31520046293735504150390625" lon="-71.02617882192134857177734375">
        <ele>730.4000244140625</ele>
        <time>2026-08-21T21:27:09.000Z</time>
        <extensions>
          <ns3:TrackPointExtension>
            <ns3:hr>141</ns3:hr>
            <ns3:cad>41</ns3:cad>
          </ns3:TrackPointExtension>
        </extensions>
      </trkpt>
      <trkpt lat="45.31519400887191295623779296875" lon="-71.0261830128729343414306640625">
        <ele>730.5999755859375</ele>
        <time>2026-08-21T21:27:10.000Z</time>
        <extensions>
          <ns3:TrackPointExtension>
            <ns3:hr>141</ns3:hr>
            <ns3:cad>41</ns3:cad>
          </ns3:TrackPointExtension>
        </extensions>
      </trkpt>
      <trkpt lat="45.31518948264420032501220703125" lon="-71.0261920653283596038818359375">
        <ele>730.79998779296875</ele>
        <time>2026-08-21T21:27:11.000Z</time>
        <extensions>
          <ns3:TrackPointExtension>
            <ns3:hr>142</ns3:hr>
            <ns3:cad>41</ns3:cad>
          </ns3:TrackPointExtension>
        </extensions>
      </trkpt>
      <trkpt lat="45.31518277712166309356689453125" lon="-71.02621234953403472900390625">
        <ele>731</ele>
        <time>2026-08-21T21:27:12.000Z</time>
        <extensions>
          <ns3:TrackPointExtension>
            <ns3:hr>142</ns3:hr>
            <ns3:cad>44</ns3:cad>
          </ns3:TrackPointExtension>
        </extensions>
      </trkpt>
      <trkpt lat="45.31518043018877506256103515625" lon="-71.02622047998011112213134765625">
        <ele>731.4000244140625</ele>
        <time>2026-08-21T21:27:13.000Z</time>
        <extensions>
          <ns3:TrackPointExtension>
            <ns3:hr>143</ns3:hr>
            <ns3:cad>40</ns3:cad>
          </ns3:TrackPointExtension>
        </extensions>
      </trkpt>
      <trkpt lat="45.31517925672233104705810546875" lon="-71.02622852660715579986572265625">
        <ele>731.5999755859375</ele>
        <time>2026-08-21T21:27:14.000Z</time>
        <extensions>
          <ns3:TrackPointExtension>
            <ns3:hr>143</ns3:hr>
            <ns3:cad>40</ns3:cad>
          </ns3:TrackPointExtension>
        </extensions>
      </trkpt>
      <trkpt lat="45.3151728026568889617919921875" lon="-71.02623975835740566253662109375">
        <ele>731.79998779296875</ele>
        <time>2026-08-21T21:27:15.000Z</time>
        <extensions>
          <ns3:TrackPointExtension>
            <ns3:hr>143</ns3:hr>
            <ns3:cad>41</ns3:cad>
          </ns3:TrackPointExtension>
        </extensions>
      </trkpt>
      <trkpt lat="45.315166600048542022705078125" lon="-71.02625283412635326385498046875">
        <ele>732</ele>
        <time>2026-08-21T21:27:16.000Z</time>
        <extensions>
          <ns3:TrackPointExtension>
            <ns3:hr>143</ns3:hr>
            <ns3:cad>41</ns3:cad>
          </ns3:TrackPointExtension>
        </extensions>
      </trkpt>
      <trkpt lat="45.3151637502014636993408203125" lon="-71.02626800537109375">
        <ele>732.20001220703125</ele>
        <time>2026-08-21T21:27:17.000Z</time>
        <extensions>
          <ns3:TrackPointExtension>
            <ns3:hr>143</ns3:hr>
            <ns3:cad>41</ns3:cad>
          </ns3:TrackPointExtension>
        </extensions>
      </trkpt>
      <trkpt lat="45.31516291201114654541015625" lon="-71.0262842662632465362548828125">
        <ele>732.5999755859375</ele>
        <time>2026-08-21T21:27:18.000Z</time>
        <extensions>
          <ns3:TrackPointExtension>
            <ns3:hr>143</ns3:hr>
            <ns3:cad>41</ns3:cad>
          </ns3:TrackPointExtension>
        </extensions>
      </trkpt>
      <trkpt lat="45.31516651622951030731201171875" lon="-71.02628787048161029815673828125">
        <ele>732.5999755859375</ele>
        <time>2026-08-21T21:27:19.000Z</time>
        <extensions>
          <ns3:TrackPointExtension>
            <ns3:hr>144</ns3:hr>
            <ns3:cad>41</ns3:cad>
          </ns3:TrackPointExtension>
        </extensions>
      </trkpt>
      <trkpt lat="45.315165929496288299560546875" lon="-71.02630061097443103790283203125">
        <ele>732.79998779296875</ele>
        <time>2026-08-21T21:27:20.000Z</time>
        <extensions>
          <ns3:TrackPointExtension>
            <ns3:hr>144</ns3:hr>
            <ns3:cad>41</ns3:cad>
          </ns3:TrackPointExtension>
        </extensions>
      </trkpt>
      <trkpt lat="45.3151660971343517303466796875" lon="-71.02631452493369579315185546875">
        <ele>733</ele>
        <time>2026-08-21T21:27:21.000Z</time>
        <extensions>
          <ns3:TrackPointExtension>
            <ns3:hr>145</ns3:hr>
            <ns3:cad>41</ns3:cad>
          </ns3:TrackPointExtension>
        </extensions>
      </trkpt>
      <trkpt lat="45.31516903080046176910400390625" lon="-71.0263369046151638031005859375">
        <ele>733.20001220703125</ele>
        <time>2026-08-21T21:27:22.000Z</time>
        <extensions>
          <ns3:TrackPointExtension>
            <ns3:hr>145</ns3:hr>
            <ns3:cad>0</ns3:cad>
          </ns3:TrackPointExtension>
        </extensions>
      </trkpt>
      <trkpt lat="45.31516869552433490753173828125" lon="-71.02635107003152370452880859375">
        <ele>733.20001220703125</ele>
        <time>2026-08-21T21:27:23.000Z</time>
        <extensions>
          <ns3:TrackPointExtension>
            <ns3:hr>145</ns3:hr>
            <ns3:cad>0</ns3:cad>
          </ns3:TrackPointExtension>
        </extensions>
      </trkpt>
      <trkpt lat="45.31516450457274913787841796875" lon="-71.026362888514995574951171875">
        <ele>733.20001220703125</ele>
        <time>2026-08-21T21:27:24.000Z</time>
        <extensions>
          <ns3:TrackPointExtension>
            <ns3:hr>145</ns3:hr>
            <ns3:cad>47</ns3:cad>
          </ns3:TrackPointExtension>
        </extensions>
      </trkpt>
      <trkpt lat="45.3151635825634002685546875" lon="-71.0263737849891185760498046875">
        <ele>733.20001220703125</ele>
        <time>2026-08-21T21:27:25.000Z</time>
        <extensions>
          <ns3:TrackPointExtension>
            <ns3:hr>144</ns3:hr>
            <ns3:cad>47</ns3:cad>
          </ns3:TrackPointExtension>
        </extensions>
      </trkpt>
      <trkpt lat="45.3151555359363555908203125" lon="-71.02639767341315746307373046875">
        <ele>733.4000244140625</ele>
        <time>2026-08-21T21:27:26.000Z</time>
        <extensions>
          <ns3:TrackPointExtension>
            <ns3:hr>144</ns3:hr>
            <ns3:cad>47</ns3:cad>
          </ns3:TrackPointExtension>
        </extensions>
      </trkpt>
      <trkpt lat="45.3151506744325160980224609375" lon="-71.026410162448883056640625">
        <ele>733.5999755859375</ele>
        <time>2026-08-21T21:27:27.000Z</time>
        <extensions>
          <ns3:TrackPointExtension>
            <ns3:hr>144</ns3:hr>
            <ns3:cad>47</ns3:cad>
          </ns3:TrackPointExtension>
        </extensions>
      </trkpt>
      <trkpt lat="45.31514790840446949005126953125" lon="-71.02641762234270572662353515625">
        <ele>733.79998779296875</ele>
        <time>2026-08-21T21:27:28.000Z</time>
        <extensions>
          <ns3:TrackPointExtension>
            <ns3:hr>144</ns3:hr>
            <ns3:cad>47</ns3:cad>
          </ns3:TrackPointExtension>
        </extensions>
      </trkpt>
      <trkpt lat="45.31514346599578857421875" lon="-71.02642692625522613525390625">
        <ele>734</ele>
        <time>2026-08-21T21:27:29.000Z</time>
        <extensions>
          <ns3:TrackPointExtension>
            <ns3:hr>144</ns3:hr>
            <ns3:cad>47</ns3:cad>
          </ns3:TrackPointExtension>
        </extensions>
      </trkpt>
      <trkpt lat="45.31513818539679050445556640625" lon="-71.02643472142517566680908203125">
        <ele>734.20001220703125</ele>
        <time>2026-08-21T21:27:30.000Z</time>
        <extensions>
          <ns3:TrackPointExtension>
            <ns3:hr>144</ns3:hr>
            <ns3:cad>47</ns3:cad>
          </ns3:TrackPointExtension>
        </extensions>
      </trkpt>
      <trkpt lat="45.3151313960552215576171875" lon="-71.02644679136574268341064453125">
        <ele>734.20001220703125</ele>
        <time>2026-08-21T21:27:31.000Z</time>
        <extensions>
          <ns3:TrackPointExtension>
            <ns3:hr>144</ns3:hr>
            <ns3:cad>47</ns3:cad>
          </ns3:TrackPointExtension>
        </extensions>
      </trkpt>
      <trkpt lat="45.31512443907558917999267578125" lon="-71.02645215578377246856689453125">
        <ele>734.4000244140625</ele>
        <time>2026-08-21T21:27:32.000Z</time>
        <extensions>
          <ns3:TrackPointExtension>
            <ns3:hr>145</ns3:hr>
            <ns3:cad>51</ns3:cad>
          </ns3:TrackPointExtension>
        </extensions>
      </trkpt>
      <trkpt lat="45.31511555425822734832763671875" lon="-71.026456765830516815185546875">
        <ele>734.4000244140625</ele>
        <time>2026-08-21T21:27:33.000Z</time>
        <extensions>
          <ns3:TrackPointExtension>
            <ns3:hr>144</ns3:hr>
            <ns3:cad>51</ns3:cad>
          </ns3:TrackPointExtension>
        </extensions>
      </trkpt>
      <trkpt lat="45.31510834582149982452392578125" lon="-71.02646581828594207763671875">
        <ele>734.4000244140625</ele>
        <time>2026-08-21T21:27:34.000Z</time>
        <extensions>
          <ns3:TrackPointExtension>
            <ns3:hr>144</ns3:hr>
            <ns3:cad>51</ns3:cad>
          </ns3:TrackPointExtension>
        </extensions>
      </trkpt>
      <trkpt lat="45.31509979628026485443115234375" lon="-71.0264777205884456634521484375">
        <ele>734.5999755859375</ele>
        <time>2026-08-21T21:27:35.000Z</time>
        <extensions>
          <ns3:TrackPointExtension>
            <ns3:hr>144</ns3:hr>
            <ns3:cad>51</ns3:cad>
          </ns3:TrackPointExtension>
        </extensions>
      </trkpt>
      <trkpt lat="45.315090827643871307373046875" lon="-71.0264844261109828948974609375">
        <ele>734.79998779296875</ele>
        <time>2026-08-21T21:27:36.000Z</time>
        <extensions>
          <ns3:TrackPointExtension>
            <ns3:hr>145</ns3:hr>
            <ns3:cad>47</ns3:cad>
          </ns3:TrackPointExtension>
        </extensions>
      </trkpt>
      <trkpt lat="45.3150826133787631988525390625" lon="-71.02649339474737644195556640625">
        <ele>735</ele>
        <time>2026-08-21T21:27:37.000Z</time>
        <extensions>
          <ns3:TrackPointExtension>
            <ns3:hr>144</ns3:hr>
            <ns3:cad>47</ns3:cad>
          </ns3:TrackPointExtension>
        </extensions>
      </trkpt>
      <trkpt lat="45.3150804340839385986328125" lon="-71.02649875916540622711181640625">
        <ele>735</ele>
        <time>2026-08-21T21:27:38.000Z</time>
        <extensions>
          <ns3:TrackPointExtension>
            <ns3:hr>144</ns3:hr>
            <ns3:cad>47</ns3:cad>
          </ns3:TrackPointExtension>
        </extensions>
      </trkpt>
      <trkpt lat="45.31507498584687709808349609375" lon="-71.0265058837831020355224609375">
        <ele>735.20001220703125</ele>
        <time>2026-08-21T21:27:39.000Z</time>
        <extensions>
          <ns3:TrackPointExtension>
            <ns3:hr>143</ns3:hr>
            <ns3:cad>46</ns3:cad>
          </ns3:TrackPointExtension>
        </extensions>
      </trkpt>
      <trkpt lat="45.3150631673634052276611328125" lon="-71.0265125893056392669677734375">
        <ele>735.4000244140625</ele>
        <time>2026-08-21T21:27:40.000Z</time>
        <extensions>
          <ns3:TrackPointExtension>
            <ns3:hr>143</ns3:hr>
            <ns3:cad>46</ns3:cad>
          </ns3:TrackPointExtension>
        </extensions>
      </trkpt>
      <trkpt lat="45.3150517679750919342041015625" lon="-71.02652206085622310638427734375">
        <ele>735.5999755859375</ele>
        <time>2026-08-21T21:27:41.000Z</time>
        <extensions>
          <ns3:TrackPointExtension>
            <ns3:hr>142</ns3:hr>
            <ns3:cad>46</ns3:cad>
          </ns3:TrackPointExtension>
        </extensions>
      </trkpt>
      <trkpt lat="45.31504631973803043365478515625" lon="-71.02652910165488719940185546875">
        <ele>736</ele>
        <time>2026-08-21T21:27:42.000Z</time>
        <extensions>
          <ns3:TrackPointExtension>
            <ns3:hr>142</ns3:hr>
            <ns3:cad>46</ns3:cad>
          </ns3:TrackPointExtension>
        </extensions>
      </trkpt>
      <trkpt lat="45.315039195120334625244140625" lon="-71.0265434347093105316162109375">
        <ele>736.20001220703125</ele>
        <time>2026-08-21T21:27:43.000Z</time>
        <extensions>
          <ns3:TrackPointExtension>
            <ns3:hr>142</ns3:hr>
            <ns3:cad>46</ns3:cad>
          </ns3:TrackPointExtension>
        </extensions>
      </trkpt>
      <trkpt lat="45.31503374688327312469482421875" lon="-71.0265536606311798095703125">
        <ele>736.4000244140625</ele>
        <time>2026-08-21T21:27:44.000Z</time>
        <extensions>
          <ns3:TrackPointExtension>
            <ns3:hr>142</ns3:hr>
            <ns3:cad>45</ns3:cad>
          </ns3:TrackPointExtension>
        </extensions>
      </trkpt>
      <trkpt lat="45.315029807388782501220703125" lon="-71.02655743248760700225830078125">
        <ele>736.5999755859375</ele>
        <time>2026-08-21T21:27:45.000Z</time>
        <extensions>
          <ns3:TrackPointExtension>
            <ns3:hr>142</ns3:hr>
            <ns3:cad>45</ns3:cad>
          </ns3:TrackPointExtension>
        </extensions>
      </trkpt>
      <trkpt lat="45.3150262869894504547119140625" lon="-71.02656581439077854156494140625">
        <ele>736.79998779296875</ele>
        <time>2026-08-21T21:27:46.000Z</time>
        <extensions>
          <ns3:TrackPointExtension>
            <ns3:hr>142</ns3:hr>
            <ns3:cad>44</ns3:cad>
          </ns3:TrackPointExtension>
        </extensions>
      </trkpt>
      <trkpt lat="45.315020084381103515625" lon="-71.02657587267458438873291015625">
        <ele>737</ele>
        <time>2026-08-21T21:27:47.000Z</time>
        <extensions>
          <ns3:TrackPointExtension>
            <ns3:hr>142</ns3:hr>
            <ns3:cad>44</ns3:cad>
          </ns3:TrackPointExtension>
        </extensions>
      </trkpt>
      <trkpt lat="45.3150182403624057769775390625" lon="-71.02658651769161224365234375">
        <ele>737.20001220703125</ele>
        <time>2026-08-21T21:27:48.000Z</time>
        <extensions>
          <ns3:TrackPointExtension>
            <ns3:hr>142</ns3:hr>
            <ns3:cad>44</ns3:cad>
          </ns3:TrackPointExtension>
        </extensions>
      </trkpt>
      <trkpt lat="45.31501295976340770721435546875" lon="-71.0265933908522129058837890625">
        <ele>737.4000244140625</ele>
        <time>2026-08-21T21:27:49.000Z</time>
        <extensions>
          <ns3:TrackPointExtension>
            <ns3:hr>141</ns3:hr>
            <ns3:cad>44</ns3:cad>
          </ns3:TrackPointExtension>
        </extensions>
      </trkpt>
      <trkpt lat="45.3150075115263462066650390625" lon="-71.02660554461181163787841796875">
        <ele>737.5999755859375</ele>
        <time>2026-08-21T21:27:50.000Z</time>
        <extensions>
          <ns3:TrackPointExtension>
            <ns3:hr>142</ns3:hr>
            <ns3:cad>44</ns3:cad>
          </ns3:TrackPointExtension>
        </extensions>
      </trkpt>
      <trkpt lat="45.3150135464966297149658203125" lon="-71.02660504169762134552001953125">
        <ele>738</ele>
        <time>2026-08-21T21:27:51.000Z</time>
        <extensions>
          <ns3:TrackPointExtension>
            <ns3:hr>142</ns3:hr>
            <ns3:cad>44</ns3:cad>
          </ns3:TrackPointExtension>
        </extensions>
      </trkpt>
      <trkpt lat="45.31501413322985172271728515625" lon="-71.02660822682082653045654296875">
        <ele>738.20001220703125</ele>
        <time>2026-08-21T21:27:52.000Z</time>
        <extensions>
          <ns3:TrackPointExtension>
            <ns3:hr>142</ns3:hr>
            <ns3:cad>44</ns3:cad>
          </ns3:TrackPointExtension>
        </extensions>
      </trkpt>
      <trkpt lat="45.31500591896474361419677734375" lon="-71.02662147022783756256103515625">
        <ele>738.4000244140625</ele>
        <time>2026-08-21T21:27:53.000Z</time>
        <extensions>
          <ns3:TrackPointExtension>
            <ns3:hr>142</ns3:hr>
            <ns3:cad>0</ns3:cad>
          </ns3:TrackPointExtension>
        </extensions>
      </trkpt>
      <trkpt lat="45.315000973641872406005859375" lon="-71.0266329534351825714111328125">
        <ele>738.5999755859375</ele>
        <time>2026-08-21T21:27:54.000Z</time>
        <extensions>
          <ns3:TrackPointExtension>
            <ns3:hr>142</ns3:hr>
            <ns3:cad>0</ns3:cad>
          </ns3:TrackPointExtension>
        </extensions>
      </trkpt>
      <trkpt lat="45.3149954415857791900634765625" lon="-71.0266500525176525115966796875">
        <ele>738.79998779296875</ele>
        <time>2026-08-21T21:27:55.000Z</time>
        <extensions>
          <ns3:TrackPointExtension>
            <ns3:hr>142</ns3:hr>
            <ns3:cad>0</ns3:cad>
          </ns3:TrackPointExtension>
        </extensions>
      </trkpt>
      <trkpt lat="45.31499150209128856658935546875" lon="-71.02665650658309459686279296875">
        <ele>739</ele>
        <time>2026-08-21T21:27:56.000Z</time>
        <extensions>
          <ns3:TrackPointExtension>
            <ns3:hr>142</ns3:hr>
            <ns3:cad>0</ns3:cad>
          </ns3:TrackPointExtension>
        </extensions>
      </trkpt>
      <trkpt lat="45.31498479656875133514404296875" lon="-71.02666706778109073638916015625">
        <ele>739.20001220703125</ele>
        <time>2026-08-21T21:27:57.000Z</time>
        <extensions>
          <ns3:TrackPointExtension>
            <ns3:hr>142</ns3:hr>
            <ns3:cad>0</ns3:cad>
          </ns3:TrackPointExtension>
        </extensions>
      </trkpt>
      <trkpt lat="45.31498253345489501953125" lon="-71.0266824066638946533203125">
        <ele>739.4000244140625</ele>
        <time>2026-08-21T21:27:58.000Z</time>
        <extensions>
          <ns3:TrackPointExtension>
            <ns3:hr>142</ns3:hr>
            <ns3:cad>0</ns3:cad>
          </ns3:TrackPointExtension>
        </extensions>
      </trkpt>
      <trkpt lat="45.31497691757977008819580078125" lon="-71.026696152985095977783203125">
        <ele>739.5999755859375</ele>
        <time>2026-08-21T21:27:59.000Z</time>
        <extensions>
          <ns3:TrackPointExtension>
            <ns3:hr>142</ns3:hr>
            <ns3:cad>0</ns3:cad>
          </ns3:TrackPointExtension>
        </extensions>
      </trkpt>
      <trkpt lat="45.3149723075330257415771484375" lon="-71.026701517403125762939453125">
        <ele>739.79998779296875</ele>
        <time>2026-08-21T21:28:00.000Z</time>
        <extensions>
          <ns3:TrackPointExtension>
            <ns3:hr>142</ns3:hr>
            <ns3:cad>0</ns3:cad>
          </ns3:TrackPointExtension>
        </extensions>
      </trkpt>
      <trkpt lat="45.314969122409820556640625" lon="-71.02671149186789989471435546875">
        <ele>740</ele>
        <time>2026-08-21T21:28:01.000Z</time>
        <extensions>
          <ns3:TrackPointExtension>
            <ns3:hr>143</ns3:hr>
            <ns3:cad>0</ns3:cad>
          </ns3:TrackPointExtension>
        </extensions>
      </trkpt>
      <trkpt lat="45.314964763820171356201171875" lon="-71.026718281209468841552734375">
        <ele>740.20001220703125</ele>
        <time>2026-08-21T21:28:02.000Z</time>
        <extensions>
          <ns3:TrackPointExtension>
            <ns3:hr>144</ns3:hr>
            <ns3:cad>0</ns3:cad>
          </ns3:TrackPointExtension>
        </extensions>
      </trkpt>
      <trkpt lat="45.314966104924678802490234375" lon="-71.02672490291297435760498046875">
        <ele>740.4000244140625</ele>
        <time>2026-08-21T21:28:03.000Z</time>
        <extensions>
          <ns3:TrackPointExtension>
            <ns3:hr>144</ns3:hr>
            <ns3:cad>0</ns3:cad>
          </ns3:TrackPointExtension>
        </extensions>
      </trkpt>
      <trkpt lat="45.31496199779212474822998046875" lon="-71.0267360508441925048828125">
        <ele>740.5999755859375</ele>
        <time>2026-08-21T21:28:04.000Z</time>
        <extensions>
          <ns3:TrackPointExtension>
            <ns3:hr>145</ns3:hr>
            <ns3:cad>0</ns3:cad>
          </ns3:TrackPointExtension>
        </extensions>
      </trkpt>
      <trkpt lat="45.3149625845253467559814453125" lon="-71.0267440974712371826171875">
        <ele>740.79998779296875</ele>
        <time>2026-08-21T21:28:05.000Z</time>
        <extensions>
          <ns3:TrackPointExtension>
            <ns3:hr>145</ns3:hr>
            <ns3:cad>0</ns3:cad>
          </ns3:TrackPointExtension>
        </extensions>
      </trkpt>
      <trkpt lat="45.314956717193126678466796875" lon="-71.02675708942115306854248046875">
        <ele>741</ele>
        <time>2026-08-21T21:28:06.000Z</time>
        <extensions>
          <ns3:TrackPointExtension>
            <ns3:hr>145</ns3:hr>
            <ns3:cad>0</ns3:cad>
          </ns3:TrackPointExtension>
        </extensions>
      </trkpt>
      <trkpt lat="45.31495235860347747802734375" lon="-71.02677117101848125457763671875">
        <ele>741.4000244140625</ele>
        <time>2026-08-21T21:28:07.000Z</time>
        <extensions>
          <ns3:TrackPointExtension>
            <ns3:hr>145</ns3:hr>
            <ns3:cad>0</ns3:cad>
          </ns3:TrackPointExtension>
        </extensions>
      </trkpt>
      <trkpt lat="45.3149454854428768157958984375" lon="-71.02678424678742885589599609375">
        <ele>741.5999755859375</ele>
        <time>2026-08-21T21:28:08.000Z</time>
        <extensions>
          <ns3:TrackPointExtension>
            <ns3:hr>144</ns3:hr>
            <ns3:cad>0</ns3:cad>
          </ns3:TrackPointExtension>
        </extensions>
      </trkpt>
      <trkpt lat="45.31493584625422954559326171875" lon="-71.02679162286221981048583984375">
        <ele>741.79998779296875</ele>
        <time>2026-08-21T21:28:09.000Z</time>
        <extensions>
          <ns3:TrackPointExtension>
            <ns3:hr>144</ns3:hr>
            <ns3:cad>0</ns3:cad>
          </ns3:TrackPointExtension>
        </extensions>
      </trkpt>
      <trkpt lat="45.31493199057877063751220703125" lon="-71.0267975740134716033935546875">
        <ele>741.79998779296875</ele>
        <time>2026-08-21T21:28:10.000Z</time>
        <extensions>
          <ns3:TrackPointExtension>
            <ns3:hr>144</ns3:hr>
            <ns3:cad>0</ns3:cad>
          </ns3:TrackPointExtension>
        </extensions>
      </trkpt>
      <trkpt lat="45.3149263747036457061767578125" lon="-71.0267992503941059112548828125">
        <ele>742</ele>
        <time>2026-08-21T21:28:11.000Z</time>
        <extensions>
          <ns3:TrackPointExtension>
            <ns3:hr>144</ns3:hr>
            <ns3:cad>0</ns3:cad>
          </ns3:TrackPointExtension>
        </extensions>
      </trkpt>
      <trkpt lat="45.3149163164198398590087890625" lon="-71.0268015973269939422607421875">
        <ele>742.20001220703125</ele>
        <time>2026-08-21T21:28:12.000Z</time>
        <extensions>
          <ns3:TrackPointExtension>
            <ns3:hr>145</ns3:hr>
            <ns3:cad>0</ns3:cad>
          </ns3:TrackPointExtension>
        </extensions>
      </trkpt>
      <trkpt lat="45.31491070054471492767333984375" lon="-71.0268002562224864959716796875">
        <ele>742.4000244140625</ele>
        <time>2026-08-21T21:28:13.000Z</time>
        <extensions>
          <ns3:TrackPointExtension>
            <ns3:hr>145</ns3:hr>
            <ns3:cad>0</ns3:cad>
          </ns3:TrackPointExtension>
        </extensions>
      </trkpt>
      <trkpt lat="45.31490449793636798858642578125" lon="-71.02679849602282047271728515625">
        <ele>742.5999755859375</ele>
        <time>2026-08-21T21:28:14.000Z</time>
        <extensions>
          <ns3:TrackPointExtension>
            <ns3:hr>145</ns3:hr>
            <ns3:cad>0</ns3:cad>
          </ns3:TrackPointExtension>
        </extensions>
      </trkpt>
      <trkpt lat="45.31489913351833820343017578125" lon="-71.026804782450199127197265625">
        <ele>742.79998779296875</ele>
        <time>2026-08-21T21:28:15.000Z</time>
        <extensions>
          <ns3:TrackPointExtension>
            <ns3:hr>145</ns3:hr>
            <ns3:cad>0</ns3:cad>
          </ns3:TrackPointExtension>
        </extensions>
      </trkpt>
      <trkpt lat="45.31489058397710323333740234375" lon="-71.026812158524990081787109375">
        <ele>743</ele>
        <time>2026-08-21T21:28:16.000Z</time>
        <extensions>
          <ns3:TrackPointExtension>
            <ns3:hr>144</ns3:hr>
            <ns3:cad>0</ns3:cad>
          </ns3:TrackPointExtension>
        </extensions>
      </trkpt>
      <trkpt lat="45.3148824535310268402099609375" lon="-71.0268191993236541748046875">
        <ele>743.20001220703125</ele>
        <time>2026-08-21T21:28:17.000Z</time>
        <extensions>
          <ns3:TrackPointExtension>
            <ns3:hr>144</ns3:hr>
            <ns3:cad>0</ns3:cad>
          </ns3:TrackPointExtension>
        </extensions>
      </trkpt>
      <trkpt lat="45.31487817876040935516357421875" lon="-71.0268213786184787750244140625">
        <ele>743.4000244140625</ele>
        <time>2026-08-21T21:28:18.000Z</time>
        <extensions>
          <ns3:TrackPointExtension>
            <ns3:hr>144</ns3:hr>
            <ns3:cad>0</ns3:cad>
          </ns3:TrackPointExtension>
        </extensions>
      </trkpt>
      <trkpt lat="45.31487432308495044708251953125" lon="-71.02682280354201793670654296875">
        <ele>743.5999755859375</ele>
        <time>2026-08-21T21:28:19.000Z</time>
        <extensions>
          <ns3:TrackPointExtension>
            <ns3:hr>144</ns3:hr>
            <ns3:cad>0</ns3:cad>
          </ns3:TrackPointExtension>
        </extensions>
      </trkpt>
      <trkpt lat="45.3148640133440494537353515625" lon="-71.02682783268392086029052734375">
        <ele>743.79998779296875</ele>
        <time>2026-08-21T21:28:20.000Z</time>
        <extensions>
          <ns3:TrackPointExtension>
            <ns3:hr>144</ns3:hr>
            <ns3:cad>0</ns3:cad>
          </ns3:TrackPointExtension>
        </extensions>
      </trkpt>
      <trkpt lat="45.31485118903219699859619140625" lon="-71.0268270783126354217529296875">
        <ele>743.79998779296875</ele>
        <time>2026-08-21T21:28:21.000Z</time>
        <extensions>
          <ns3:TrackPointExtension>
            <ns3:hr>144</ns3:hr>
            <ns3:cad>0</ns3:cad>
          </ns3:TrackPointExtension>
        </extensions>
      </trkpt>
      <trkpt lat="45.31485152430832386016845703125" lon="-71.02682364173233509063720703125">
        <ele>744</ele>
        <time>2026-08-21T21:28:22.000Z</time>
        <extensions>
          <ns3:TrackPointExtension>
            <ns3:hr>144</ns3:hr>
            <ns3:cad>0</ns3:cad>
          </ns3:TrackPointExtension>
        </extensions>
      </trkpt>
      <trkpt lat="45.31484716571867465972900390625" lon="-71.02681844495236873626708984375">
        <ele>744.20001220703125</ele>
        <time>2026-08-21T21:28:23.000Z</time>
        <extensions>
          <ns3:TrackPointExtension>
            <ns3:hr>144</ns3:hr>
            <ns3:cad>0</ns3:cad>
          </ns3:TrackPointExtension>
        </extensions>
      </trkpt>
      <trkpt lat="45.3148449026048183441162109375" lon="-71.02681425400078296661376953125">
        <ele>744.5999755859375</ele>
        <time>2026-08-21T21:28:24.000Z</time>
        <extensions>
          <ns3:TrackPointExtension>
            <ns3:hr>143</ns3:hr>
            <ns3:cad>0</ns3:cad>
          </ns3:TrackPointExtension>
        </extensions>
      </trkpt>
      <trkpt lat="45.3148308210074901580810546875" lon="-71.0268086381256580352783203125">
        <ele>744.79998779296875</ele>
        <time>2026-08-21T21:28:25.000Z</time>
        <extensions>
          <ns3:TrackPointExtension>
            <ns3:hr>143</ns3:hr>
            <ns3:cad>0</ns3:cad>
          </ns3:TrackPointExtension>
        </extensions>
      </trkpt>
      <trkpt lat="45.31482486985623836517333984375" lon="-71.02680704556405544281005859375">
        <ele>745</ele>
        <time>2026-08-21T21:28:26.000Z</time>
        <extensions>
          <ns3:TrackPointExtension>
            <ns3:hr>143</ns3:hr>
            <ns3:cad>0</ns3:cad>
          </ns3:TrackPointExtension>
        </extensions>
      </trkpt>
      <trkpt lat="45.314817912876605987548828125" lon="-71.026807464659214019775390625">
        <ele>745.20001220703125</ele>
        <time>2026-08-21T21:28:27.000Z</time>
        <extensions>
          <ns3:TrackPointExtension>
            <ns3:hr>142</ns3:hr>
            <ns3:cad>0</ns3:cad>
          </ns3:TrackPointExtension>
        </extensions>
      </trkpt>
      <trkpt lat="45.3148095309734344482421875" lon="-71.026812493801116943359375">
        <ele>745.4000244140625</ele>
        <time>2026-08-21T21:28:28.000Z</time>
        <extensions>
          <ns3:TrackPointExtension>
            <ns3:hr>142</ns3:hr>
            <ns3:cad>0</ns3:cad>
          </ns3:TrackPointExtension>
        </extensions>
      </trkpt>
      <trkpt lat="45.31480072997510433197021484375" lon="-71.02681676857173442840576171875">
        <ele>745.5999755859375</ele>
        <time>2026-08-21T21:28:29.000Z</time>
        <extensions>
          <ns3:TrackPointExtension>
            <ns3:hr>143</ns3:hr>
            <ns3:cad>0</ns3:cad>
          </ns3:TrackPointExtension>
        </extensions>
      </trkpt>
      <trkpt lat="45.31479167751967906951904296875" lon="-71.02683353237807750701904296875">
        <ele>745.79998779296875</ele>
        <time>2026-08-21T21:28:30.000Z</time>
        <extensions>
          <ns3:TrackPointExtension>
            <ns3:hr>143</ns3:hr>
            <ns3:cad>0</ns3:cad>
          </ns3:TrackPointExtension>
        </extensions>
      </trkpt>
      <trkpt lat="45.31478513963520526885986328125" lon="-71.0268352925777435302734375">
        <ele>746</ele>
        <time>2026-08-21T21:28:31.000Z</time>
        <extensions>
          <ns3:TrackPointExtension>
            <ns3:hr>143</ns3:hr>
            <ns3:cad>0</ns3:cad>
          </ns3:TrackPointExtension>
        </extensions>
      </trkpt>
      <trkpt lat="45.31478145159780979156494140625" lon="-71.0268352925777435302734375">
        <ele>746.20001220703125</ele>
        <time>2026-08-21T21:28:32.000Z</time>
        <extensions>
          <ns3:TrackPointExtension>
            <ns3:hr>143</ns3:hr>
            <ns3:cad>0</ns3:cad>
          </ns3:TrackPointExtension>
        </extensions>
      </trkpt>
      <trkpt lat="45.3147791884839534759521484375" lon="-71.02683487348258495330810546875">
        <ele>746.20001220703125</ele>
        <time>2026-08-21T21:28:33.000Z</time>
        <extensions>
          <ns3:TrackPointExtension>
            <ns3:hr>142</ns3:hr>
            <ns3:cad>0</ns3:cad>
          </ns3:TrackPointExtension>
        </extensions>
      </trkpt>
      <trkpt lat="45.31476460397243499755859375" lon="-71.02683571167290210723876953125">
        <ele>746.4000244140625</ele>
        <time>2026-08-21T21:28:34.000Z</time>
        <extensions>
          <ns3:TrackPointExtension>
            <ns3:hr>143</ns3:hr>
            <ns3:cad>0</ns3:cad>
          </ns3:TrackPointExtension>
        </extensions>
      </trkpt>
      <trkpt lat="45.3147532045841217041015625" lon="-71.02684199810028076171875">
        <ele>746.4000244140625</ele>
        <time>2026-08-21T21:28:35.000Z</time>
        <extensions>
          <ns3:TrackPointExtension>
            <ns3:hr>143</ns3:hr>
            <ns3:cad>0</ns3:cad>
          </ns3:TrackPointExtension>
        </extensions>
      </trkpt>
      <trkpt lat="45.3147493489086627960205078125" lon="-71.02685532532632350921630859375">
        <ele>746.4000244140625</ele>
        <time>2026-08-21T21:28:36.000Z</time>
        <extensions>
          <ns3:TrackPointExtension>
            <ns3:hr>143</ns3:hr>
            <ns3:cad>0</ns3:cad>
          </ns3:TrackPointExtension>
        </extensions>
      </trkpt>
      <trkpt lat="45.3147443197667598724365234375" lon="-71.0268723405897617340087890625">
        <ele>746.4000244140625</ele>
        <time>2026-08-21T21:28:37.000Z</time>
        <extensions>
          <ns3:TrackPointExtension>
            <ns3:hr>144</ns3:hr>
            <ns3:cad>52</ns3:cad>
          </ns3:TrackPointExtension>
        </extensions>
      </trkpt>
      <trkpt lat="45.3147411346435546875" lon="-71.02688650600612163543701171875">
        <ele>746.5999755859375</ele>
        <time>2026-08-21T21:28:38.000Z</time>
        <extensions>
          <ns3:TrackPointExtension>
            <ns3:hr>144</ns3:hr>
            <ns3:cad>52</ns3:cad>
          </ns3:TrackPointExtension>
        </extensions>
      </trkpt>
      <trkpt lat="45.3147371113300323486328125" lon="-71.02690192870795726776123046875">
        <ele>746.5999755859375</ele>
        <time>2026-08-21T21:28:39.000Z</time>
        <extensions>
          <ns3:TrackPointExtension>
            <ns3:hr>144</ns3:hr>
            <ns3:cad>52</ns3:cad>
          </ns3:TrackPointExtension>
        </extensions>
      </trkpt>
      <trkpt lat="45.31473015435039997100830078125" lon="-71.02692221291363239288330078125">
        <ele>746.5999755859375</ele>
        <time>2026-08-21T21:28:40.000Z</time>
        <extensions>
          <ns3:TrackPointExtension>
            <ns3:hr>144</ns3:hr>
            <ns3:cad>48</ns3:cad>
          </ns3:TrackPointExtension>
        </extensions>
      </trkpt>
      <trkpt lat="45.314726047217845916748046875" lon="-71.02693445049226284027099609375">
        <ele>746.79998779296875</ele>
        <time>2026-08-21T21:28:41.000Z</time>
        <extensions>
          <ns3:TrackPointExtension>
            <ns3:hr>143</ns3:hr>
            <ns3:cad>48</ns3:cad>
          </ns3:TrackPointExtension>
        </extensions>
      </trkpt>
      <trkpt lat="45.3147210180759429931640625" lon="-71.026942916214466094970703125">
        <ele>747</ele>
        <time>2026-08-21T21:28:42.000Z</time>
        <extensions>
          <ns3:TrackPointExtension>
            <ns3:hr>143</ns3:hr>
            <ns3:cad>48</ns3:cad>
          </ns3:TrackPointExtension>
        </extensions>
      </trkpt>
      <trkpt lat="45.3147151507437229156494140625" lon="-71.026952303946018218994140625">
        <ele>747</ele>
        <time>2026-08-21T21:28:43.000Z</time>
        <extensions>
          <ns3:TrackPointExtension>
            <ns3:hr>142</ns3:hr>
            <ns3:cad>48</ns3:cad>
          </ns3:TrackPointExtension>
        </extensions>
      </trkpt>
      <trkpt lat="45.3147102892398834228515625" lon="-71.02696026675403118133544921875">
        <ele>747.20001220703125</ele>
        <time>2026-08-21T21:28:44.000Z</time>
        <extensions>
          <ns3:TrackPointExtension>
            <ns3:hr>142</ns3:hr>
            <ns3:cad>46</ns3:cad>
          </ns3:TrackPointExtension>
        </extensions>
      </trkpt>
      <trkpt lat="45.31470517627894878387451171875" lon="-71.026973091065883636474609375">
        <ele>747.4000244140625</ele>
        <time>2026-08-21T21:28:45.000Z</time>
        <extensions>
          <ns3:TrackPointExtension>
            <ns3:hr>142</ns3:hr>
            <ns3:cad>47</ns3:cad>
          </ns3:TrackPointExtension>
        </extensions>
      </trkpt>
      <trkpt lat="45.31470115296542644500732421875" lon="-71.02698423899710178375244140625">
        <ele>747.5999755859375</ele>
        <time>2026-08-21T21:28:46.000Z</time>
        <extensions>
          <ns3:TrackPointExtension>
            <ns3:hr>143</ns3:hr>
            <ns3:cad>47</ns3:cad>
          </ns3:TrackPointExtension>
        </extensions>
      </trkpt>
      <trkpt lat="45.3146977163851261138916015625" lon="-71.02699697948992252349853515625">
        <ele>747.5999755859375</ele>
        <time>2026-08-21T21:28:47.000Z</time>
        <extensions>
          <ns3:TrackPointExtension>
            <ns3:hr>142</ns3:hr>
            <ns3:cad>44</ns3:cad>
          </ns3:TrackPointExtension>
        </extensions>
      </trkpt>
      <trkpt lat="45.3146946988999843597412109375" lon="-71.02701290510594844818115234375">
        <ele>747.79998779296875</ele>
        <time>2026-08-21T21:28:48.000Z</time>
        <extensions>
          <ns3:TrackPointExtension>
            <ns3:hr>142</ns3:hr>
            <ns3:cad>44</ns3:cad>
          </ns3:TrackPointExtension>
        </extensions>
      </trkpt>
      <trkpt lat="45.3146926872432231903076171875" lon="-71.02702514268457889556884765625">
        <ele>748</ele>
        <time>2026-08-21T21:28:49.000Z</time>
        <extensions>
          <ns3:TrackPointExtension>
            <ns3:hr>142</ns3:hr>
            <ns3:cad>42</ns3:cad>
          </ns3:TrackPointExtension>
        </extensions>
      </trkpt>
      <trkpt lat="45.31468547880649566650390625" lon="-71.02703888900578022003173828125">
        <ele>748</ele>
        <time>2026-08-21T21:28:50.000Z</time>
        <extensions>
          <ns3:TrackPointExtension>
            <ns3:hr>142</ns3:hr>
            <ns3:cad>41</ns3:cad>
          </ns3:TrackPointExtension>
        </extensions>
      </trkpt>
      <trkpt lat="45.3146782703697681427001953125" lon="-71.02705297060310840606689453125">
        <ele>748.20001220703125</ele>
        <time>2026-08-21T21:28:51.000Z</time>
        <extensions>
          <ns3:TrackPointExtension>
            <ns3:hr>142</ns3:hr>
            <ns3:cad>41</ns3:cad>
          </ns3:TrackPointExtension>
        </extensions>
      </trkpt>
      <trkpt lat="45.31467533670365810394287109375" lon="-71.02706470526754856109619140625">
        <ele>748.20001220703125</ele>
        <time>2026-08-21T21:28:52.000Z</time>
        <extensions>
          <ns3:TrackPointExtension>
            <ns3:hr>142</ns3:hr>
            <ns3:cad>43</ns3:cad>
          </ns3:TrackPointExtension>
        </extensions>
      </trkpt>
      <trkpt lat="45.314669720828533172607421875" lon="-71.02707962505519390106201171875">
        <ele>748.20001220703125</ele>
        <time>2026-08-21T21:28:53.000Z</time>
        <extensions>
          <ns3:TrackPointExtension>
            <ns3:hr>142</ns3:hr>
            <ns3:cad>43</ns3:cad>
          </ns3:TrackPointExtension>
        </extensions>
      </trkpt>
      <trkpt lat="45.31466536223888397216796875" lon="-71.02708876132965087890625">
        <ele>748.20001220703125</ele>
        <time>2026-08-21T21:28:54.000Z</time>
        <extensions>
          <ns3:TrackPointExtension>
            <ns3:hr>142</ns3:hr>
            <ns3:cad>47</ns3:cad>
          </ns3:TrackPointExtension>
        </extensions>
      </trkpt>
      <trkpt lat="45.31466008163988590240478515625" lon="-71.02709613740444183349609375">
        <ele>748.4000244140625</ele>
        <time>2026-08-21T21:28:55.000Z</time>
        <extensions>
          <ns3:TrackPointExtension>
            <ns3:hr>141</ns3:hr>
            <ns3:cad>47</ns3:cad>
          </ns3:TrackPointExtension>
        </extensions>
      </trkpt>
      <trkpt lat="45.314654968678951263427734375" lon="-71.02709957398474216461181640625">
        <ele>748.4000244140625</ele>
        <time>2026-08-21T21:28:56.000Z</time>
        <extensions>
          <ns3:TrackPointExtension>
            <ns3:hr>141</ns3:hr>
            <ns3:cad>47</ns3:cad>
          </ns3:TrackPointExtension>
        </extensions>
      </trkpt>
      <trkpt lat="45.31465102918446063995361328125" lon="-71.0271053574979305267333984375">
        <ele>748.4000244140625</ele>
        <time>2026-08-21T21:28:57.000Z</time>
        <extensions>
          <ns3:TrackPointExtension>
            <ns3:hr>141</ns3:hr>
            <ns3:cad>45</ns3:cad>
          </ns3:TrackPointExtension>
        </extensions>
      </trkpt>
      <trkpt lat="45.31464717350900173187255859375" lon="-71.02711097337305545806884765625">
        <ele>748.5999755859375</ele>
        <time>2026-08-21T21:28:58.000Z</time>
        <extensions>
          <ns3:TrackPointExtension>
            <ns3:hr>141</ns3:hr>
            <ns3:cad>45</ns3:cad>
          </ns3:TrackPointExtension>
        </extensions>
      </trkpt>
      <trkpt lat="45.31464315019547939300537109375" lon="-71.02711482904851436614990234375">
        <ele>748.5999755859375</ele>
        <time>2026-08-21T21:28:59.000Z</time>
        <extensions>
          <ns3:TrackPointExtension>
            <ns3:hr>141</ns3:hr>
            <ns3:cad>0</ns3:cad>
          </ns3:TrackPointExtension>
        </extensions>
      </trkpt>
      <trkpt lat="45.31464030034840106964111328125" lon="-71.0271187685430049896240234375">
        <ele>748.5999755859375</ele>
        <time>2026-08-21T21:29:00.000Z</time>
        <extensions>
          <ns3:TrackPointExtension>
            <ns3:hr>140</ns3:hr>
            <ns3:cad>0</ns3:cad>
          </ns3:TrackPointExtension>
        </extensions>
      </trkpt>
      <trkpt lat="45.31463208608329296112060546875" lon="-71.0271231271326541900634765625">
        <ele>748.5999755859375</ele>
        <time>2026-08-21T21:29:01.000Z</time>
        <extensions>
          <ns3:TrackPointExtension>
            <ns3:hr>140</ns3:hr>
            <ns3:cad>0</ns3:cad>
          </ns3:TrackPointExtension>
        </extensions>
      </trkpt>
      <trkpt lat="45.31462403945624828338623046875" lon="-71.02713008411228656768798828125">
        <ele>748.5999755859375</ele>
        <time>2026-08-21T21:29:02.000Z</time>
        <extensions>
          <ns3:TrackPointExtension>
            <ns3:hr>140</ns3:hr>
            <ns3:cad>40</ns3:cad>
          </ns3:TrackPointExtension>
        </extensions>
      </trkpt>
      <trkpt lat="45.31461733393371105194091796875" lon="-71.0271370410919189453125">
        <ele>748.5999755859375</ele>
        <time>2026-08-21T21:29:03.000Z</time>
        <extensions>
          <ns3:TrackPointExtension>
            <ns3:hr>140</ns3:hr>
            <ns3:cad>40</ns3:cad>
          </ns3:TrackPointExtension>
        </extensions>
      </trkpt>
      <trkpt lat="45.31460903584957122802734375" lon="-71.02714299224317073822021484375">
        <ele>748.4000244140625</ele>
        <time>2026-08-21T21:29:04.000Z</time>
        <extensions>
          <ns3:TrackPointExtension>
            <ns3:hr>140</ns3:hr>
            <ns3:cad>0</ns3:cad>
          </ns3:TrackPointExtension>
        </extensions>
      </trkpt>
      <trkpt lat="45.3145998157560825347900390625" lon="-71.02714282460510730743408203125">
        <ele>748.4000244140625</ele>
        <time>2026-08-21T21:29:05.000Z</time>
        <extensions>
          <ns3:TrackPointExtension>
            <ns3:hr>139</ns3:hr>
            <ns3:cad>0</ns3:cad>
          </ns3:TrackPointExtension>
        </extensions>
      </trkpt>
      <trkpt lat="45.31458850018680095672607421875" lon="-71.02714785374701023101806640625">
        <ele>748.20001220703125</ele>
        <time>2026-08-21T21:29:06.000Z</time>
        <extensions>
          <ns3:TrackPointExtension>
            <ns3:hr>139</ns3:hr>
            <ns3:cad>50</ns3:cad>
          </ns3:TrackPointExtension>
        </extensions>
      </trkpt>
      <trkpt lat="45.31457693316042423248291015625" lon="-71.02715254761278629302978515625">
        <ele>748.20001220703125</ele>
        <time>2026-08-21T21:29:07.000Z</time>
        <extensions>
          <ns3:TrackPointExtension>
            <ns3:hr>138</ns3:hr>
            <ns3:cad>53</ns3:cad>
          </ns3:TrackPointExtension>
        </extensions>
      </trkpt>
      <trkpt lat="45.3145632706582546234130859375" lon="-71.02716076187789440155029296875">
        <ele>748</ele>
        <time>2026-08-21T21:29:08.000Z</time>
        <extensions>
          <ns3:TrackPointExtension>
            <ns3:hr>138</ns3:hr>
            <ns3:cad>53</ns3:cad>
          </ns3:TrackPointExtension>
        </extensions>
      </trkpt>
      <trkpt lat="45.31455312855541706085205078125" lon="-71.0271705687046051025390625">
        <ele>747.79998779296875</ele>
        <time>2026-08-21T21:29:09.000Z</time>
        <extensions>
          <ns3:TrackPointExtension>
            <ns3:hr>138</ns3:hr>
            <ns3:cad>54</ns3:cad>
          </ns3:TrackPointExtension>
        </extensions>
      </trkpt>
      <trkpt lat="45.31454307027161121368408203125" lon="-71.0271761007606983184814453125">
        <ele>747.79998779296875</ele>
        <time>2026-08-21T21:29:10.000Z</time>
        <extensions>
          <ns3:TrackPointExtension>
            <ns3:hr>138</ns3:hr>
            <ns3:cad>54</ns3:cad>
          </ns3:TrackPointExtension>
        </extensions>
      </trkpt>
      <trkpt lat="45.31453837640583515167236328125" lon="-71.02718020789325237274169921875">
        <ele>747.79998779296875</ele>
        <time>2026-08-21T21:29:11.000Z</time>
        <extensions>
          <ns3:TrackPointExtension>
            <ns3:hr>138</ns3:hr>
            <ns3:cad>51</ns3:cad>
          </ns3:TrackPointExtension>
        </extensions>
      </trkpt>
      <trkpt lat="45.31453167088329792022705078125" lon="-71.02718205191195011138916015625">
        <ele>748</ele>
        <time>2026-08-21T21:29:12.000Z</time>
        <extensions>
          <ns3:TrackPointExtension>
            <ns3:hr>137</ns3:hr>
            <ns3:cad>51</ns3:cad>
          </ns3:TrackPointExtension>
        </extensions>
      </trkpt>
      <trkpt lat="45.3145247139036655426025390625" lon="-71.02718339301645755767822265625">
        <ele>748.20001220703125</ele>
        <time>2026-08-21T21:29:13.000Z</time>
        <extensions>
          <ns3:TrackPointExtension>
            <ns3:hr>137</ns3:hr>
            <ns3:cad>51</ns3:cad>
          </ns3:TrackPointExtension>
        </extensions>
      </trkpt>
      <trkpt lat="45.31451624818146228790283203125" lon="-71.02718607522547245025634765625">
        <ele>748.4000244140625</ele>
        <time>2026-08-21T21:29:14.000Z</time>
        <extensions>
          <ns3:TrackPointExtension>
            <ns3:hr>137</ns3:hr>
            <ns3:cad>50</ns3:cad>
          </ns3:TrackPointExtension>
        </extensions>
      </trkpt>
      <trkpt lat="45.31450711190700531005859375" lon="-71.0271878354251384735107421875">
        <ele>748.5999755859375</ele>
        <time>2026-08-21T21:29:15.000Z</time>
        <extensions>
          <ns3:TrackPointExtension>
            <ns3:hr>137</ns3:hr>
            <ns3:cad>50</ns3:cad>
          </ns3:TrackPointExtension>
        </extensions>
      </trkpt>
      <trkpt lat="45.3144992329180240631103515625" lon="-71.0271898470818996429443359375">
        <ele>748.5999755859375</ele>
        <time>2026-08-21T21:29:16.000Z</time>
        <extensions>
          <ns3:TrackPointExtension>
            <ns3:hr>137</ns3:hr>
            <ns3:cad>0</ns3:cad>
          </ns3:TrackPointExtension>
        </extensions>
      </trkpt>
      <trkpt lat="45.31448774971067905426025390625" lon="-71.02718733251094818115234375">
        <ele>748.79998779296875</ele>
        <time>2026-08-21T21:29:17.000Z</time>
        <extensions>
          <ns3:TrackPointExtension>
            <ns3:hr>136</ns3:hr>
            <ns3:cad>0</ns3:cad>
          </ns3:TrackPointExtension>
        </extensions>
      </trkpt>
      <trkpt lat="45.3144774399697780609130859375" lon="-71.0271918587386608123779296875">
        <ele>748.79998779296875</ele>
        <time>2026-08-21T21:29:18.000Z</time>
        <extensions>
          <ns3:TrackPointExtension>
            <ns3:hr>134</ns3:hr>
            <ns3:cad>0</ns3:cad>
          </ns3:TrackPointExtension>
        </extensions>
      </trkpt>
      <trkpt lat="45.3144667111337184906005859375" lon="-71.02720133028924465179443359375">
        <ele>748.5999755859375</ele>
        <time>2026-08-21T21:29:19.000Z</time>
        <extensions>
          <ns3:TrackPointExtension>
            <ns3:hr>133</ns3:hr>
            <ns3:cad>44</ns3:cad>
          </ns3:TrackPointExtension>
        </extensions>
      </trkpt>
      <trkpt lat="45.31445883214473724365234375" lon="-71.02720317430794239044189453125">
        <ele>748.5999755859375</ele>
        <time>2026-08-21T21:29:20.000Z</time>
        <extensions>
          <ns3:TrackPointExtension>
            <ns3:hr>133</ns3:hr>
            <ns3:cad>44</ns3:cad>
          </ns3:TrackPointExtension>
        </extensions>
      </trkpt>
      <trkpt lat="45.31444952823221683502197265625" lon="-71.0272109694778919219970703125">
        <ele>748.4000244140625</ele>
        <time>2026-08-21T21:29:21.000Z</time>
        <extensions>
          <ns3:TrackPointExtension>
            <ns3:hr>132</ns3:hr>
            <ns3:cad>0</ns3:cad>
          </ns3:TrackPointExtension>
        </extensions>
      </trkpt>
      <trkpt lat="45.3144382126629352569580078125" lon="-71.02721759118139743804931640625">
        <ele>748.4000244140625</ele>
        <time>2026-08-21T21:29:22.000Z</time>
        <extensions>
          <ns3:TrackPointExtension>
            <ns3:hr>132</ns3:hr>
            <ns3:cad>0</ns3:cad>
          </ns3:TrackPointExtension>
        </extensions>
      </trkpt>
      <trkpt lat="45.3144268132746219635009765625" lon="-71.0272210277616977691650390625">
        <ele>748</ele>
        <time>2026-08-21T21:29:23.000Z</time>
        <extensions>
          <ns3:TrackPointExtension>
            <ns3:hr>132</ns3:hr>
            <ns3:cad>0</ns3:cad>
          </ns3:TrackPointExtension>
        </extensions>
      </trkpt>
      <trkpt lat="45.31440963037312030792236328125" lon="-71.027230583131313323974609375">
        <ele>747.79998779296875</ele>
        <time>2026-08-21T21:29:24.000Z</time>
        <extensions>
          <ns3:TrackPointExtension>
            <ns3:hr>131</ns3:hr>
            <ns3:cad>0</ns3:cad>
          </ns3:TrackPointExtension>
        </extensions>
      </trkpt>
      <trkpt lat="45.31439370475709438323974609375" lon="-71.02723896503448486328125">
        <ele>747.5999755859375</ele>
        <time>2026-08-21T21:29:25.000Z</time>
        <extensions>
          <ns3:TrackPointExtension>
            <ns3:hr>131</ns3:hr>
            <ns3:cad>0</ns3:cad>
          </ns3:TrackPointExtension>
        </extensions>
      </trkpt>
      <trkpt lat="45.31438096426427364349365234375" lon="-71.02725044824182987213134765625">
        <ele>747.4000244140625</ele>
        <time>2026-08-21T21:29:26.000Z</time>
        <extensions>
          <ns3:TrackPointExtension>
            <ns3:hr>131</ns3:hr>
            <ns3:cad>68</ns3:cad>
          </ns3:TrackPointExtension>
        </extensions>
      </trkpt>
      <trkpt lat="45.314364619553089141845703125" lon="-71.02725975215435028076171875">
        <ele>747.4000244140625</ele>
        <time>2026-08-21T21:29:27.000Z</time>
        <extensions>
          <ns3:TrackPointExtension>
            <ns3:hr>132</ns3:hr>
            <ns3:cad>68</ns3:cad>
          </ns3:TrackPointExtension>
        </extensions>
      </trkpt>
      <trkpt lat="45.31434659846127033233642578125" lon="-71.02726888842880725860595703125">
        <ele>747.4000244140625</ele>
        <time>2026-08-21T21:29:28.000Z</time>
        <extensions>
          <ns3:TrackPointExtension>
            <ns3:hr>131</ns3:hr>
            <ns3:cad>72</ns3:cad>
          </ns3:TrackPointExtension>
        </extensions>
      </trkpt>
      <trkpt lat="45.31432799063622951507568359375" lon="-71.02727794088423252105712890625">
        <ele>747.4000244140625</ele>
        <time>2026-08-21T21:29:29.000Z</time>
        <extensions>
          <ns3:TrackPointExtension>
            <ns3:hr>131</ns3:hr>
            <ns3:cad>72</ns3:cad>
          </ns3:TrackPointExtension>
        </extensions>
      </trkpt>
      <trkpt lat="45.3143111430108547210693359375" lon="-71.0272870771586894989013671875">
        <ele>747.4000244140625</ele>
        <time>2026-08-21T21:29:30.000Z</time>
        <extensions>
          <ns3:TrackPointExtension>
            <ns3:hr>130</ns3:hr>
            <ns3:cad>72</ns3:cad>
          </ns3:TrackPointExtension>
        </extensions>
      </trkpt>
      <trkpt lat="45.3142950497567653656005859375" lon="-71.02729864418506622314453125">
        <ele>747.5999755859375</ele>
        <time>2026-08-21T21:29:31.000Z</time>
        <extensions>
          <ns3:TrackPointExtension>
            <ns3:hr>131</ns3:hr>
            <ns3:cad>72</ns3:cad>
          </ns3:TrackPointExtension>
        </extensions>
      </trkpt>
      <trkpt lat="45.31427652575075626373291015625" lon="-71.0273085348308086395263671875">
        <ele>747.4000244140625</ele>
        <time>2026-08-21T21:29:32.000Z</time>
        <extensions>
          <ns3:TrackPointExtension>
            <ns3:hr>130</ns3:hr>
            <ns3:cad>72</ns3:cad>
          </ns3:TrackPointExtension>
        </extensions>
      </trkpt>
      <trkpt lat="45.31426060013473033905029296875" lon="-71.0273252986371517181396484375">
        <ele>747.4000244140625</ele>
        <time>2026-08-21T21:29:33.000Z</time>
        <extensions>
          <ns3:TrackPointExtension>
            <ns3:hr>130</ns3:hr>
            <ns3:cad>72</ns3:cad>
          </ns3:TrackPointExtension>
        </extensions>
      </trkpt>
      <trkpt lat="45.3142460994422435760498046875" lon="-71.02734834887087345123291015625">
        <ele>747.20001220703125</ele>
        <time>2026-08-21T21:29:34.000Z</time>
        <extensions>
          <ns3:TrackPointExtension>
            <ns3:hr>130</ns3:hr>
            <ns3:cad>72</ns3:cad>
          </ns3:TrackPointExtension>
        </extensions>
      </trkpt>
      <trkpt lat="45.31423243694007396697998046875" lon="-71.027372740209102630615234375">
        <ele>747.20001220703125</ele>
        <time>2026-08-21T21:29:35.000Z</time>
        <extensions>
          <ns3:TrackPointExtension>
            <ns3:hr>130</ns3:hr>
            <ns3:cad>0</ns3:cad>
          </ns3:TrackPointExtension>
        </extensions>
      </trkpt>
      <trkpt lat="45.31422154046595096588134765625" lon="-71.02739092893898487091064453125">
        <ele>747.20001220703125</ele>
        <time>2026-08-21T21:29:36.000Z</time>
        <extensions>
          <ns3:TrackPointExtension>
            <ns3:hr>130</ns3:hr>
            <ns3:cad>0</ns3:cad>
          </ns3:TrackPointExtension>
        </extensions>
      </trkpt>
      <trkpt lat="45.31421005725860595703125" lon="-71.02741062641143798828125">
        <ele>747.20001220703125</ele>
        <time>2026-08-21T21:29:37.000Z</time>
        <extensions>
          <ns3:TrackPointExtension>
            <ns3:hr>130</ns3:hr>
            <ns3:cad>0</ns3:cad>
          </ns3:TrackPointExtension>
        </extensions>
      </trkpt>
      <trkpt lat="45.31420092098414897918701171875" lon="-71.02743099443614482879638671875">
        <ele>747.20001220703125</ele>
        <time>2026-08-21T21:29:38.000Z</time>
        <extensions>
          <ns3:TrackPointExtension>
            <ns3:hr>130</ns3:hr>
            <ns3:cad>0</ns3:cad>
          </ns3:TrackPointExtension>
        </extensions>
      </trkpt>
      <trkpt lat="45.314192958176136016845703125" lon="-71.027456559240818023681640625">
        <ele>747.20001220703125</ele>
        <time>2026-08-21T21:29:39.000Z</time>
        <extensions>
          <ns3:TrackPointExtension>
            <ns3:hr>131</ns3:hr>
            <ns3:cad>0</ns3:cad>
          </ns3:TrackPointExtension>
        </extensions>
      </trkpt>
      <trkpt lat="45.314175188541412353515625" lon="-71.02747223339974880218505859375">
        <ele>747.4000244140625</ele>
        <time>2026-08-21T21:29:40.000Z</time>
        <extensions>
          <ns3:TrackPointExtension>
            <ns3:hr>131</ns3:hr>
            <ns3:cad>0</ns3:cad>
          </ns3:TrackPointExtension>
        </extensions>
      </trkpt>
      <trkpt lat="45.314167477190494537353515625" lon="-71.02749042212963104248046875">
        <ele>747.4000244140625</ele>
        <time>2026-08-21T21:29:41.000Z</time>
        <extensions>
          <ns3:TrackPointExtension>
            <ns3:hr>131</ns3:hr>
            <ns3:cad>0</ns3:cad>
          </ns3:TrackPointExtension>
        </extensions>
      </trkpt>
      <trkpt lat="45.31415574252605438232421875" lon="-71.02750291116535663604736328125">
        <ele>747.4000244140625</ele>
        <time>2026-08-21T21:29:42.000Z</time>
        <extensions>
          <ns3:TrackPointExtension>
            <ns3:hr>131</ns3:hr>
            <ns3:cad>0</ns3:cad>
          </ns3:TrackPointExtension>
        </extensions>
      </trkpt>
      <trkpt lat="45.31414409168064594268798828125" lon="-71.027515567839145660400390625">
        <ele>747.4000244140625</ele>
        <time>2026-08-21T21:29:43.000Z</time>
        <extensions>
          <ns3:TrackPointExtension>
            <ns3:hr>132</ns3:hr>
            <ns3:cad>0</ns3:cad>
          </ns3:TrackPointExtension>
        </extensions>
      </trkpt>
      <trkpt lat="45.31413654796779155731201171875" lon="-71.02752503938972949981689453125">
        <ele>747.5999755859375</ele>
        <time>2026-08-21T21:29:44.000Z</time>
        <extensions>
          <ns3:TrackPointExtension>
            <ns3:hr>131</ns3:hr>
            <ns3:cad>0</ns3:cad>
          </ns3:TrackPointExtension>
        </extensions>
      </trkpt>
      <trkpt lat="45.31413001008331775665283203125" lon="-71.02753995917737483978271484375">
        <ele>747.79998779296875</ele>
        <time>2026-08-21T21:29:45.000Z</time>
        <extensions>
          <ns3:TrackPointExtension>
            <ns3:hr>130</ns3:hr>
            <ns3:cad>0</ns3:cad>
          </ns3:TrackPointExtension>
        </extensions>
      </trkpt>
      <trkpt lat="45.31412129290401935577392578125" lon="-71.02755672298371791839599609375">
        <ele>747.79998779296875</ele>
        <time>2026-08-21T21:29:46.000Z</time>
        <extensions>
          <ns3:TrackPointExtension>
            <ns3:hr>129</ns3:hr>
            <ns3:cad>0</ns3:cad>
          </ns3:TrackPointExtension>
        </extensions>
      </trkpt>
      <trkpt lat="45.31411576084792613983154296875" lon="-71.02756460197269916534423828125">
        <ele>748</ele>
        <time>2026-08-21T21:29:47.000Z</time>
        <extensions>
          <ns3:TrackPointExtension>
            <ns3:hr>128</ns3:hr>
            <ns3:cad>0</ns3:cad>
          </ns3:TrackPointExtension>
        </extensions>
      </trkpt>
      <trkpt lat="45.3141089715063571929931640625" lon="-71.027571223676204681396484375">
        <ele>748.20001220703125</ele>
        <time>2026-08-21T21:29:48.000Z</time>
        <extensions>
          <ns3:TrackPointExtension>
            <ns3:hr>127</ns3:hr>
            <ns3:cad>48</ns3:cad>
          </ns3:TrackPointExtension>
        </extensions>
      </trkpt>
      <trkpt lat="45.3141005896031856536865234375" lon="-71.02758522145450115203857421875">
        <ele>748.4000244140625</ele>
        <time>2026-08-21T21:29:49.000Z</time>
        <extensions>
          <ns3:TrackPointExtension>
            <ns3:hr>127</ns3:hr>
            <ns3:cad>48</ns3:cad>
          </ns3:TrackPointExtension>
        </extensions>
      </trkpt>
      <trkpt lat="45.31409363262355327606201171875" lon="-71.02760030888020992279052734375">
        <ele>748.4000244140625</ele>
        <time>2026-08-21T21:29:50.000Z</time>
        <extensions>
          <ns3:TrackPointExtension>
            <ns3:hr>127</ns3:hr>
            <ns3:cad>47</ns3:cad>
          </ns3:TrackPointExtension>
        </extensions>
      </trkpt>
      <trkpt lat="45.31408843584358692169189453125" lon="-71.02761204354465007781982421875">
        <ele>748.5999755859375</ele>
        <time>2026-08-21T21:29:51.000Z</time>
        <extensions>
          <ns3:TrackPointExtension>
            <ns3:hr>127</ns3:hr>
            <ns3:cad>47</ns3:cad>
          </ns3:TrackPointExtension>
        </extensions>
      </trkpt>
      <trkpt lat="45.3140848316252231597900390625" lon="-71.0276273824274539947509765625">
        <ele>748.79998779296875</ele>
        <time>2026-08-21T21:29:52.000Z</time>
        <extensions>
          <ns3:TrackPointExtension>
            <ns3:hr>127</ns3:hr>
            <ns3:cad>48</ns3:cad>
          </ns3:TrackPointExtension>
        </extensions>
      </trkpt>
      <trkpt lat="45.3140821494162082672119140625" lon="-71.02763953618705272674560546875">
        <ele>748.79998779296875</ele>
        <time>2026-08-21T21:29:53.000Z</time>
        <extensions>
          <ns3:TrackPointExtension>
            <ns3:hr>127</ns3:hr>
            <ns3:cad>49</ns3:cad>
          </ns3:TrackPointExtension>
        </extensions>
      </trkpt>
      <trkpt lat="45.31407720409333705902099609375" lon="-71.02765797637403011322021484375">
        <ele>749</ele>
        <time>2026-08-21T21:29:54.000Z</time>
        <extensions>
          <ns3:TrackPointExtension>
            <ns3:hr>128</ns3:hr>
            <ns3:cad>49</ns3:cad>
          </ns3:TrackPointExtension>
        </extensions>
      </trkpt>
      <trkpt lat="45.31406857073307037353515625" lon="-71.0276734828948974609375">
        <ele>749.20001220703125</ele>
        <time>2026-08-21T21:29:55.000Z</time>
        <extensions>
          <ns3:TrackPointExtension>
            <ns3:hr>128</ns3:hr>
            <ns3:cad>49</ns3:cad>
          </ns3:TrackPointExtension>
        </extensions>
      </trkpt>
      <trkpt lat="45.3140593506395816802978515625" lon="-71.02768312208354473114013671875">
        <ele>749.4000244140625</ele>
        <time>2026-08-21T21:29:56.000Z</time>
        <extensions>
          <ns3:TrackPointExtension>
            <ns3:hr>128</ns3:hr>
            <ns3:cad>49</ns3:cad>
          </ns3:TrackPointExtension>
        </extensions>
      </trkpt>
      <trkpt lat="45.31404971145093441009521484375" lon="-71.02769250981509685516357421875">
        <ele>749.5999755859375</ele>
        <time>2026-08-21T21:29:57.000Z</time>
        <extensions>
          <ns3:TrackPointExtension>
            <ns3:hr>128</ns3:hr>
            <ns3:cad>48</ns3:cad>
          </ns3:TrackPointExtension>
        </extensions>
      </trkpt>
      <trkpt lat="45.3140445984899997711181640625" lon="-71.0277051664888858795166015625">
        <ele>749.79998779296875</ele>
        <time>2026-08-21T21:29:58.000Z</time>
        <extensions>
          <ns3:TrackPointExtension>
            <ns3:hr>127</ns3:hr>
            <ns3:cad>48</ns3:cad>
          </ns3:TrackPointExtension>
        </extensions>
      </trkpt>
      <trkpt lat="45.31403562985360622406005859375" lon="-71.0277212597429752349853515625">
        <ele>749.79998779296875</ele>
        <time>2026-08-21T21:29:59.000Z</time>
        <extensions>
          <ns3:TrackPointExtension>
            <ns3:hr>128</ns3:hr>
            <ns3:cad>49</ns3:cad>
          </ns3:TrackPointExtension>
        </extensions>
      </trkpt>
      <trkpt lat="45.31402724795043468475341796875" lon="-71.02773525752127170562744140625">
        <ele>750</ele>
        <time>2026-08-21T21:30:00.000Z</time>
        <extensions>
          <ns3:TrackPointExtension>
            <ns3:hr>128</ns3:hr>
            <ns3:cad>49</ns3:cad>
          </ns3:TrackPointExtension>
        </extensions>
      </trkpt>
      <trkpt lat="45.314019955694675445556640625" lon="-71.02774447761476039886474609375">
        <ele>750.20001220703125</ele>
        <time>2026-08-21T21:30:01.000Z</time>
        <extensions>
          <ns3:TrackPointExtension>
            <ns3:hr>129</ns3:hr>
            <ns3:cad>49</ns3:cad>
          </ns3:TrackPointExtension>
        </extensions>
      </trkpt>
      <trkpt lat="45.31401266343891620635986328125" lon="-71.02775587700307369232177734375">
        <ele>750.4000244140625</ele>
        <time>2026-08-21T21:30:02.000Z</time>
        <extensions>
          <ns3:TrackPointExtension>
            <ns3:hr>130</ns3:hr>
            <ns3:cad>47</ns3:cad>
          </ns3:TrackPointExtension>
        </extensions>
      </trkpt>
      <trkpt lat="45.3140067122876644134521484375" lon="-71.0277665220201015472412109375">
        <ele>750.5999755859375</ele>
        <time>2026-08-21T21:30:03.000Z</time>
        <extensions>
          <ns3:TrackPointExtension>
            <ns3:hr>130</ns3:hr>
            <ns3:cad>47</ns3:cad>
          </ns3:TrackPointExtension>
        </extensions>
      </trkpt>
      <trkpt lat="45.3140000067651271820068359375" lon="-71.0277792625129222869873046875">
        <ele>750.79998779296875</ele>
        <time>2026-08-21T21:30:04.000Z</time>
        <extensions>
          <ns3:TrackPointExtension>
            <ns3:hr>130</ns3:hr>
            <ns3:cad>47</ns3:cad>
          </ns3:TrackPointExtension>
        </extensions>
      </trkpt>
      <trkpt lat="45.31399740837514400482177734375" lon="-71.02779242210090160369873046875">
        <ele>751</ele>
        <time>2026-08-21T21:30:05.000Z</time>
        <extensions>
          <ns3:TrackPointExtension>
            <ns3:hr>130</ns3:hr>
            <ns3:cad>47</ns3:cad>
          </ns3:TrackPointExtension>
        </extensions>
      </trkpt>
      <trkpt lat="45.31399355269968509674072265625" lon="-71.02781035937368869781494140625">
        <ele>751.20001220703125</ele>
        <time>2026-08-21T21:30:06.000Z</time>
        <extensions>
          <ns3:TrackPointExtension>
            <ns3:hr>131</ns3:hr>
            <ns3:cad>47</ns3:cad>
          </ns3:TrackPointExtension>
        </extensions>
      </trkpt>
      <trkpt lat="45.31398542225360870361328125" lon="-71.0278178192675113677978515625">
        <ele>751.4000244140625</ele>
        <time>2026-08-21T21:30:07.000Z</time>
        <extensions>
          <ns3:TrackPointExtension>
            <ns3:hr>132</ns3:hr>
            <ns3:cad>47</ns3:cad>
          </ns3:TrackPointExtension>
        </extensions>
      </trkpt>
      <trkpt lat="45.31397997401654720306396484375" lon="-71.02783240377902984619140625">
        <ele>751.4000244140625</ele>
        <time>2026-08-21T21:30:08.000Z</time>
        <extensions>
          <ns3:TrackPointExtension>
            <ns3:hr>132</ns3:hr>
            <ns3:cad>47</ns3:cad>
          </ns3:TrackPointExtension>
        </extensions>
      </trkpt>
      <trkpt lat="45.313970334827899932861328125" lon="-71.0278392769396305084228515625">
        <ele>751.5999755859375</ele>
        <time>2026-08-21T21:30:09.000Z</time>
        <extensions>
          <ns3:TrackPointExtension>
            <ns3:hr>133</ns3:hr>
            <ns3:cad>0</ns3:cad>
          </ns3:TrackPointExtension>
        </extensions>
      </trkpt>
      <trkpt lat="45.313968658447265625" lon="-71.02784740738570690155029296875">
        <ele>751.79998779296875</ele>
        <time>2026-08-21T21:30:10.000Z</time>
        <extensions>
          <ns3:TrackPointExtension>
            <ns3:hr>133</ns3:hr>
            <ns3:cad>0</ns3:cad>
          </ns3:TrackPointExtension>
        </extensions>
      </trkpt>
      <trkpt lat="45.3139601089060306549072265625" lon="-71.02786065079271793365478515625">
        <ele>752</ele>
        <time>2026-08-21T21:30:11.000Z</time>
        <extensions>
          <ns3:TrackPointExtension>
            <ns3:hr>133</ns3:hr>
            <ns3:cad>47</ns3:cad>
          </ns3:TrackPointExtension>
        </extensions>
      </trkpt>
      <trkpt lat="45.313954912126064300537109375" lon="-71.027875654399394989013671875">
        <ele>752.20001220703125</ele>
        <time>2026-08-21T21:30:12.000Z</time>
        <extensions>
          <ns3:TrackPointExtension>
            <ns3:hr>132</ns3:hr>
            <ns3:cad>47</ns3:cad>
          </ns3:TrackPointExtension>
        </extensions>
      </trkpt>
      <trkpt lat="45.3139490447938442230224609375" lon="-71.0278811864554882049560546875">
        <ele>752.5999755859375</ele>
        <time>2026-08-21T21:30:13.000Z</time>
        <extensions>
          <ns3:TrackPointExtension>
            <ns3:hr>132</ns3:hr>
            <ns3:cad>47</ns3:cad>
          </ns3:TrackPointExtension>
        </extensions>
      </trkpt>
      <trkpt lat="45.31394527293741703033447265625" lon="-71.02790222503244876861572265625">
        <ele>752.79998779296875</ele>
        <time>2026-08-21T21:30:14.000Z</time>
        <extensions>
          <ns3:TrackPointExtension>
            <ns3:hr>133</ns3:hr>
            <ns3:cad>0</ns3:cad>
          </ns3:TrackPointExtension>
        </extensions>
      </trkpt>
      <trkpt lat="45.31394091434776782989501953125" lon="-71.02791689336299896240234375">
        <ele>752.79998779296875</ele>
        <time>2026-08-21T21:30:15.000Z</time>
        <extensions>
          <ns3:TrackPointExtension>
            <ns3:hr>134</ns3:hr>
            <ns3:cad>0</ns3:cad>
          </ns3:TrackPointExtension>
        </extensions>
      </trkpt>
      <trkpt lat="45.3139363043010234832763671875" lon="-71.02792561054229736328125">
        <ele>753</ele>
        <time>2026-08-21T21:30:16.000Z</time>
        <extensions>
          <ns3:TrackPointExtension>
            <ns3:hr>134</ns3:hr>
            <ns3:cad>0</ns3:cad>
          </ns3:TrackPointExtension>
        </extensions>
      </trkpt>
      <trkpt lat="45.3139312751591205596923828125" lon="-71.0279358364641666412353515625">
        <ele>753.20001220703125</ele>
        <time>2026-08-21T21:30:17.000Z</time>
        <extensions>
          <ns3:TrackPointExtension>
            <ns3:hr>134</ns3:hr>
            <ns3:cad>0</ns3:cad>
          </ns3:TrackPointExtension>
        </extensions>
      </trkpt>
      <trkpt lat="45.31392515636980533599853515625" lon="-71.0279529355466365814208984375">
        <ele>753.4000244140625</ele>
        <time>2026-08-21T21:30:18.000Z</time>
        <extensions>
          <ns3:TrackPointExtension>
            <ns3:hr>134</ns3:hr>
            <ns3:cad>0</ns3:cad>
          </ns3:TrackPointExtension>
        </extensions>
      </trkpt>
      <trkpt lat="45.31392029486596584320068359375" lon="-71.02796123363077640533447265625">
        <ele>753.5999755859375</ele>
        <time>2026-08-21T21:30:19.000Z</time>
        <extensions>
          <ns3:TrackPointExtension>
            <ns3:hr>134</ns3:hr>
            <ns3:cad>53</ns3:cad>
          </ns3:TrackPointExtension>
        </extensions>
      </trkpt>
      <trkpt lat="45.31391526572406291961669921875" lon="-71.02796894498169422149658203125">
        <ele>753.79998779296875</ele>
        <time>2026-08-21T21:30:20.000Z</time>
        <extensions>
          <ns3:TrackPointExtension>
            <ns3:hr>134</ns3:hr>
            <ns3:cad>53</ns3:cad>
          </ns3:TrackPointExtension>
        </extensions>
      </trkpt>
      <trkpt lat="45.31390964984893798828125" lon="-71.02798436768352985382080078125">
        <ele>754</ele>
        <time>2026-08-21T21:30:21.000Z</time>
        <extensions>
          <ns3:TrackPointExtension>
            <ns3:hr>134</ns3:hr>
            <ns3:cad>52</ns3:cad>
          </ns3:TrackPointExtension>
        </extensions>
      </trkpt>
      <trkpt lat="45.3139056265354156494140625" lon="-71.02799735963344573974609375">
        <ele>754.20001220703125</ele>
        <time>2026-08-21T21:30:22.000Z</time>
        <extensions>
          <ns3:TrackPointExtension>
            <ns3:hr>134</ns3:hr>
            <ns3:cad>46</ns3:cad>
          </ns3:TrackPointExtension>
        </extensions>
      </trkpt>
      <trkpt lat="45.3139041177928447723388671875" lon="-71.02800867520272731781005859375">
        <ele>754.4000244140625</ele>
        <time>2026-08-21T21:30:23.000Z</time>
        <extensions>
          <ns3:TrackPointExtension>
            <ns3:hr>135</ns3:hr>
            <ns3:cad>46</ns3:cad>
          </ns3:TrackPointExtension>
        </extensions>
      </trkpt>
      <trkpt lat="45.313898585736751556396484375" lon="-71.02801823057234287261962890625">
        <ele>754.5999755859375</ele>
        <time>2026-08-21T21:30:24.000Z</time>
        <extensions>
          <ns3:TrackPointExtension>
            <ns3:hr>136</ns3:hr>
            <ns3:cad>41</ns3:cad>
          </ns3:TrackPointExtension>
        </extensions>
      </trkpt>
      <trkpt lat="45.3138957358896732330322265625" lon="-71.028029881417751312255859375">
        <ele>754.79998779296875</ele>
        <time>2026-08-21T21:30:25.000Z</time>
        <extensions>
          <ns3:TrackPointExtension>
            <ns3:hr>136</ns3:hr>
            <ns3:cad>41</ns3:cad>
          </ns3:TrackPointExtension>
        </extensions>
      </trkpt>
      <trkpt lat="45.31389196403324604034423828125" lon="-71.0280344076454639434814453125">
        <ele>755</ele>
        <time>2026-08-21T21:30:26.000Z</time>
        <extensions>
          <ns3:TrackPointExtension>
            <ns3:hr>137</ns3:hr>
            <ns3:cad>0</ns3:cad>
          </ns3:TrackPointExtension>
        </extensions>
      </trkpt>
      <trkpt lat="45.31388559378683567047119140625" lon="-71.0280431248247623443603515625">
        <ele>755.4000244140625</ele>
        <time>2026-08-21T21:30:27.000Z</time>
        <extensions>
          <ns3:TrackPointExtension>
            <ns3:hr>137</ns3:hr>
            <ns3:cad>0</ns3:cad>
          </ns3:TrackPointExtension>
        </extensions>
      </trkpt>
      <trkpt lat="45.31388676725327968597412109375" lon="-71.02805343456566333770751953125">
        <ele>755.5999755859375</ele>
        <time>2026-08-21T21:30:28.000Z</time>
        <extensions>
          <ns3:TrackPointExtension>
            <ns3:hr>138</ns3:hr>
            <ns3:cad>0</ns3:cad>
          </ns3:TrackPointExtension>
        </extensions>
      </trkpt>
      <trkpt lat="45.31388358213007450103759765625" lon="-71.0280585475265979766845703125">
        <ele>756</ele>
        <time>2026-08-21T21:30:29.000Z</time>
        <extensions>
          <ns3:TrackPointExtension>
            <ns3:hr>138</ns3:hr>
            <ns3:cad>0</ns3:cad>
          </ns3:TrackPointExtension>
        </extensions>
      </trkpt>
      <trkpt lat="45.31388274393975734710693359375" lon="-71.02807388640940189361572265625">
        <ele>756.20001220703125</ele>
        <time>2026-08-21T21:30:30.000Z</time>
        <extensions>
          <ns3:TrackPointExtension>
            <ns3:hr>138</ns3:hr>
            <ns3:cad>0</ns3:cad>
          </ns3:TrackPointExtension>
        </extensions>
      </trkpt>
      <trkpt lat="45.31388274393975734710693359375" lon="-71.02809316478669643402099609375">
        <ele>756.4000244140625</ele>
        <time>2026-08-21T21:30:31.000Z</time>
        <extensions>
          <ns3:TrackPointExtension>
            <ns3:hr>139</ns3:hr>
            <ns3:cad>0</ns3:cad>
          </ns3:TrackPointExtension>
        </extensions>
      </trkpt>
      <trkpt lat="45.31388525851070880889892578125" lon="-71.0281014628708362579345703125">
        <ele>756.5999755859375</ele>
        <time>2026-08-21T21:30:32.000Z</time>
        <extensions>
          <ns3:TrackPointExtension>
            <ns3:hr>139</ns3:hr>
            <ns3:cad>0</ns3:cad>
          </ns3:TrackPointExtension>
        </extensions>
      </trkpt>
      <trkpt lat="45.31388727016746997833251953125" lon="-71.02812015451490879058837890625">
        <ele>756.79998779296875</ele>
        <time>2026-08-21T21:30:33.000Z</time>
        <extensions>
          <ns3:TrackPointExtension>
            <ns3:hr>139</ns3:hr>
            <ns3:cad>0</ns3:cad>
          </ns3:TrackPointExtension>
        </extensions>
      </trkpt>
      <trkpt lat="45.31388475559651851654052734375" lon="-71.02813306264579296112060546875">
        <ele>757.20001220703125</ele>
        <time>2026-08-21T21:30:34.000Z</time>
        <extensions>
          <ns3:TrackPointExtension>
            <ns3:hr>138</ns3:hr>
            <ns3:cad>0</ns3:cad>
          </ns3:TrackPointExtension>
        </extensions>
      </trkpt>
      <trkpt lat="45.31388358213007450103759765625" lon="-71.0281383432447910308837890625">
        <ele>757.4000244140625</ele>
        <time>2026-08-21T21:30:35.000Z</time>
        <extensions>
          <ns3:TrackPointExtension>
            <ns3:hr>138</ns3:hr>
            <ns3:cad>0</ns3:cad>
          </ns3:TrackPointExtension>
        </extensions>
      </trkpt>
      <trkpt lat="45.31388039700686931610107421875" lon="-71.0281480662524700164794921875">
        <ele>757.5999755859375</ele>
        <time>2026-08-21T21:30:36.000Z</time>
        <extensions>
          <ns3:TrackPointExtension>
            <ns3:hr>138</ns3:hr>
            <ns3:cad>0</ns3:cad>
          </ns3:TrackPointExtension>
        </extensions>
      </trkpt>
      <trkpt lat="45.31387788243591785430908203125" lon="-71.0281601361930370330810546875">
        <ele>757.79998779296875</ele>
        <time>2026-08-21T21:30:37.000Z</time>
        <extensions>
          <ns3:TrackPointExtension>
            <ns3:hr>139</ns3:hr>
            <ns3:cad>0</ns3:cad>
          </ns3:TrackPointExtension>
        </extensions>
      </trkpt>
      <trkpt lat="45.313877798616886138916015625" lon="-71.02815963327884674072265625">
        <ele>758</ele>
        <time>2026-08-21T21:30:38.000Z</time>
        <extensions>
          <ns3:TrackPointExtension>
            <ns3:hr>139</ns3:hr>
            <ns3:cad>0</ns3:cad>
          </ns3:TrackPointExtension>
        </extensions>
      </trkpt>
      <trkpt lat="45.31387318857014179229736328125" lon="-71.0281688533723354339599609375">
        <ele>758.20001220703125</ele>
        <time>2026-08-21T21:30:39.000Z</time>
        <extensions>
          <ns3:TrackPointExtension>
            <ns3:hr>139</ns3:hr>
            <ns3:cad>0</ns3:cad>
          </ns3:TrackPointExtension>
        </extensions>
      </trkpt>
      <trkpt lat="45.31387545168399810791015625" lon="-71.0281678475439548492431640625">
        <ele>758.4000244140625</ele>
        <time>2026-08-21T21:30:40.000Z</time>
        <extensions>
          <ns3:TrackPointExtension>
            <ns3:hr>139</ns3:hr>
            <ns3:cad>0</ns3:cad>
          </ns3:TrackPointExtension>
        </extensions>
      </trkpt>
      <trkpt lat="45.3138712607324123382568359375" lon="-71.0281792469322681427001953125">
        <ele>758.5999755859375</ele>
        <time>2026-08-21T21:30:41.000Z</time>
        <extensions>
          <ns3:TrackPointExtension>
            <ns3:hr>139</ns3:hr>
            <ns3:cad>0</ns3:cad>
          </ns3:TrackPointExtension>
        </extensions>
      </trkpt>
      <trkpt lat="45.31386765651404857635498046875" lon="-71.02818134240806102752685546875">
        <ele>759</ele>
        <time>2026-08-21T21:30:42.000Z</time>
        <extensions>
          <ns3:TrackPointExtension>
            <ns3:hr>139</ns3:hr>
            <ns3:cad>0</ns3:cad>
          </ns3:TrackPointExtension>
        </extensions>
      </trkpt>
      <trkpt lat="45.31386111862957477569580078125" lon="-71.028182096779346466064453125">
        <ele>759.20001220703125</ele>
        <time>2026-08-21T21:30:43.000Z</time>
        <extensions>
          <ns3:TrackPointExtension>
            <ns3:hr>140</ns3:hr>
            <ns3:cad>42</ns3:cad>
          </ns3:TrackPointExtension>
        </extensions>
      </trkpt>
      <trkpt lat="45.313854329288005828857421875" lon="-71.028180755674839019775390625">
        <ele>759.4000244140625</ele>
        <time>2026-08-21T21:30:44.000Z</time>
        <extensions>
          <ns3:TrackPointExtension>
            <ns3:hr>140</ns3:hr>
            <ns3:cad>42</ns3:cad>
          </ns3:TrackPointExtension>
        </extensions>
      </trkpt>
      <trkpt lat="45.313847959041595458984375" lon="-71.02818821556866168975830078125">
        <ele>759.5999755859375</ele>
        <time>2026-08-21T21:30:45.000Z</time>
        <extensions>
          <ns3:TrackPointExtension>
            <ns3:hr>141</ns3:hr>
            <ns3:cad>0</ns3:cad>
          </ns3:TrackPointExtension>
        </extensions>
      </trkpt>
      <trkpt lat="45.3138420917093753814697265625" lon="-71.028193496167659759521484375">
        <ele>759.79998779296875</ele>
        <time>2026-08-21T21:30:46.000Z</time>
        <extensions>
          <ns3:TrackPointExtension>
            <ns3:hr>141</ns3:hr>
            <ns3:cad>0</ns3:cad>
          </ns3:TrackPointExtension>
        </extensions>
      </trkpt>
      <trkpt lat="45.313836894929409027099609375" lon="-71.0281960107386112213134765625">
        <ele>760</ele>
        <time>2026-08-21T21:30:47.000Z</time>
        <extensions>
          <ns3:TrackPointExtension>
            <ns3:hr>141</ns3:hr>
            <ns3:cad>0</ns3:cad>
          </ns3:TrackPointExtension>
        </extensions>
      </trkpt>
      <trkpt lat="45.31382859684526920318603515625" lon="-71.02820212952792644500732421875">
        <ele>760.20001220703125</ele>
        <time>2026-08-21T21:30:48.000Z</time>
        <extensions>
          <ns3:TrackPointExtension>
            <ns3:hr>140</ns3:hr>
            <ns3:cad>0</ns3:cad>
          </ns3:TrackPointExtension>
        </extensions>
      </trkpt>
      <trkpt lat="45.31382507644593715667724609375" lon="-71.02821989916265010833740234375">
        <ele>760.4000244140625</ele>
        <time>2026-08-21T21:30:49.000Z</time>
        <extensions>
          <ns3:TrackPointExtension>
            <ns3:hr>141</ns3:hr>
            <ns3:cad>0</ns3:cad>
          </ns3:TrackPointExtension>
        </extensions>
      </trkpt>
      <trkpt lat="45.31382943503558635711669921875" lon="-71.02822643704712390899658203125">
        <ele>760.5999755859375</ele>
        <time>2026-08-21T21:30:50.000Z</time>
        <extensions>
          <ns3:TrackPointExtension>
            <ns3:hr>141</ns3:hr>
            <ns3:cad>0</ns3:cad>
          </ns3:TrackPointExtension>
        </extensions>
      </trkpt>
      <trkpt lat="45.31382742337882518768310546875" lon="-71.0282318852841854095458984375">
        <ele>760.79998779296875</ele>
        <time>2026-08-21T21:30:51.000Z</time>
        <extensions>
          <ns3:TrackPointExtension>
            <ns3:hr>141</ns3:hr>
            <ns3:cad>0</ns3:cad>
          </ns3:TrackPointExtension>
        </extensions>
      </trkpt>
      <trkpt lat="45.31382541172206401824951171875" lon="-71.02824672125279903411865234375">
        <ele>761</ele>
        <time>2026-08-21T21:30:52.000Z</time>
        <extensions>
          <ns3:TrackPointExtension>
            <ns3:hr>141</ns3:hr>
            <ns3:cad>0</ns3:cad>
          </ns3:TrackPointExtension>
        </extensions>
      </trkpt>
      <trkpt lat="45.3138156048953533172607421875" lon="-71.028258539736270904541015625">
        <ele>761.20001220703125</ele>
        <time>2026-08-21T21:30:53.000Z</time>
        <extensions>
          <ns3:TrackPointExtension>
            <ns3:hr>140</ns3:hr>
            <ns3:cad>0</ns3:cad>
          </ns3:TrackPointExtension>
        </extensions>
      </trkpt>
      <trkpt lat="45.3138092346489429473876953125" lon="-71.02826314978301525115966796875">
        <ele>761.4000244140625</ele>
        <time>2026-08-21T21:30:54.000Z</time>
        <extensions>
          <ns3:TrackPointExtension>
            <ns3:hr>141</ns3:hr>
            <ns3:cad>0</ns3:cad>
          </ns3:TrackPointExtension>
        </extensions>
      </trkpt>
      <trkpt lat="45.313804037868976593017578125" lon="-71.028275303542613983154296875">
        <ele>761.5999755859375</ele>
        <time>2026-08-21T21:30:55.000Z</time>
        <extensions>
          <ns3:TrackPointExtension>
            <ns3:hr>141</ns3:hr>
            <ns3:cad>0</ns3:cad>
          </ns3:TrackPointExtension>
        </extensions>
      </trkpt>
      <trkpt lat="45.313804708421230316162109375" lon="-71.02828896604478359222412109375">
        <ele>761.79998779296875</ele>
        <time>2026-08-21T21:30:56.000Z</time>
        <extensions>
          <ns3:TrackPointExtension>
            <ns3:hr>141</ns3:hr>
            <ns3:cad>0</ns3:cad>
          </ns3:TrackPointExtension>
        </extensions>
      </trkpt>
      <trkpt lat="45.3138018585741519927978515625" lon="-71.0282915644347667694091796875">
        <ele>762</ele>
        <time>2026-08-21T21:30:57.000Z</time>
        <extensions>
          <ns3:TrackPointExtension>
            <ns3:hr>142</ns3:hr>
            <ns3:cad>0</ns3:cad>
          </ns3:TrackPointExtension>
        </extensions>
      </trkpt>
      <trkpt lat="45.31379708088934421539306640625" lon="-71.02830053307116031646728515625">
        <ele>762.20001220703125</ele>
        <time>2026-08-21T21:30:58.000Z</time>
        <extensions>
          <ns3:TrackPointExtension>
            <ns3:hr>142</ns3:hr>
            <ns3:cad>40</ns3:cad>
          </ns3:TrackPointExtension>
        </extensions>
      </trkpt>
      <trkpt lat="45.3137954883277416229248046875" lon="-71.028306148946285247802734375">
        <ele>762.4000244140625</ele>
        <time>2026-08-21T21:30:59.000Z</time>
        <extensions>
          <ns3:TrackPointExtension>
            <ns3:hr>142</ns3:hr>
            <ns3:cad>40</ns3:cad>
          </ns3:TrackPointExtension>
        </extensions>
      </trkpt>
      <trkpt lat="45.31379364430904388427734375" lon="-71.02831779979169368743896484375">
        <ele>762.5999755859375</ele>
        <time>2026-08-21T21:31:00.000Z</time>
        <extensions>
          <ns3:TrackPointExtension>
            <ns3:hr>142</ns3:hr>
            <ns3:cad>0</ns3:cad>
          </ns3:TrackPointExtension>
        </extensions>
      </trkpt>
      <trkpt lat="45.31378434039652347564697265625" lon="-71.02832349948585033416748046875">
        <ele>762.79998779296875</ele>
        <time>2026-08-21T21:31:01.000Z</time>
        <extensions>
          <ns3:TrackPointExtension>
            <ns3:hr>143</ns3:hr>
            <ns3:cad>0</ns3:cad>
          </ns3:TrackPointExtension>
        </extensions>
      </trkpt>
      <trkpt lat="45.31378157436847686767578125" lon="-71.0283314622938632965087890625">
        <ele>763</ele>
        <time>2026-08-21T21:31:02.000Z</time>
        <extensions>
          <ns3:TrackPointExtension>
            <ns3:hr>143</ns3:hr>
            <ns3:cad>0</ns3:cad>
          </ns3:TrackPointExtension>
        </extensions>
      </trkpt>
      <trkpt lat="45.313777215778827667236328125" lon="-71.02834244258701801300048828125">
        <ele>763.20001220703125</ele>
        <time>2026-08-21T21:31:03.000Z</time>
        <extensions>
          <ns3:TrackPointExtension>
            <ns3:hr>142</ns3:hr>
            <ns3:cad>0</ns3:cad>
          </ns3:TrackPointExtension>
        </extensions>
      </trkpt>
      <trkpt lat="45.31377947889268398284912109375" lon="-71.0283453762531280517578125">
        <ele>763.4000244140625</ele>
        <time>2026-08-21T21:31:04.000Z</time>
        <extensions>
          <ns3:TrackPointExtension>
            <ns3:hr>142</ns3:hr>
            <ns3:cad>0</ns3:cad>
          </ns3:TrackPointExtension>
        </extensions>
      </trkpt>
      <trkpt lat="45.31377227045595645904541015625" lon="-71.0283562727272510528564453125">
        <ele>763.5999755859375</ele>
        <time>2026-08-21T21:31:05.000Z</time>
        <extensions>
          <ns3:TrackPointExtension>
            <ns3:hr>142</ns3:hr>
            <ns3:cad>20</ns3:cad>
          </ns3:TrackPointExtension>
        </extensions>
      </trkpt>
      <trkpt lat="45.3137706778943538665771484375" lon="-71.0283626429736614227294921875">
        <ele>763.79998779296875</ele>
        <time>2026-08-21T21:31:06.000Z</time>
        <extensions>
          <ns3:TrackPointExtension>
            <ns3:hr>142</ns3:hr>
            <ns3:cad>20</ns3:cad>
          </ns3:TrackPointExtension>
        </extensions>
      </trkpt>
      <trkpt lat="45.31376640312373638153076171875" lon="-71.02837848477065563201904296875">
        <ele>764</ele>
        <time>2026-08-21T21:31:07.000Z</time>
        <extensions>
          <ns3:TrackPointExtension>
            <ns3:hr>142</ns3:hr>
            <ns3:cad>20</ns3:cad>
          </ns3:TrackPointExtension>
        </extensions>
      </trkpt>
      <trkpt lat="45.31376254744827747344970703125" lon="-71.02838091552257537841796875">
        <ele>764.20001220703125</ele>
        <time>2026-08-21T21:31:08.000Z</time>
        <extensions>
          <ns3:TrackPointExtension>
            <ns3:hr>142</ns3:hr>
            <ns3:cad>20</ns3:cad>
          </ns3:TrackPointExtension>
        </extensions>
      </trkpt>
      <trkpt lat="45.31375818885862827301025390625" lon="-71.02838703431189060211181640625">
        <ele>764.4000244140625</ele>
        <time>2026-08-21T21:31:09.000Z</time>
        <extensions>
          <ns3:TrackPointExtension>
            <ns3:hr>142</ns3:hr>
            <ns3:cad>0</ns3:cad>
          </ns3:TrackPointExtension>
        </extensions>
      </trkpt>
      <trkpt lat="45.313751399517059326171875" lon="-71.0283951647579669952392578125">
        <ele>764.79998779296875</ele>
        <time>2026-08-21T21:31:10.000Z</time>
        <extensions>
          <ns3:TrackPointExtension>
            <ns3:hr>142</ns3:hr>
            <ns3:cad>0</ns3:cad>
          </ns3:TrackPointExtension>
        </extensions>
      </trkpt>
      <trkpt lat="45.31374402344226837158203125" lon="-71.028397344052791595458984375">
        <ele>765</ele>
        <time>2026-08-21T21:31:11.000Z</time>
        <extensions>
          <ns3:TrackPointExtension>
            <ns3:hr>142</ns3:hr>
            <ns3:cad>0</ns3:cad>
          </ns3:TrackPointExtension>
        </extensions>
      </trkpt>
      <trkpt lat="45.31373555772006511688232421875" lon="-71.02840245701372623443603515625">
        <ele>765.20001220703125</ele>
        <time>2026-08-21T21:31:12.000Z</time>
        <extensions>
          <ns3:TrackPointExtension>
            <ns3:hr>143</ns3:hr>
            <ns3:cad>0</ns3:cad>
          </ns3:TrackPointExtension>
        </extensions>
      </trkpt>
      <trkpt lat="45.3137294389307498931884765625" lon="-71.02840681560337543487548828125">
        <ele>765.4000244140625</ele>
        <time>2026-08-21T21:31:13.000Z</time>
        <extensions>
          <ns3:TrackPointExtension>
            <ns3:hr>143</ns3:hr>
            <ns3:cad>0</ns3:cad>
          </ns3:TrackPointExtension>
        </extensions>
      </trkpt>
      <trkpt lat="45.31372130848467350006103515625" lon="-71.02841335348784923553466796875">
        <ele>765.5999755859375</ele>
        <time>2026-08-21T21:31:14.000Z</time>
        <extensions>
          <ns3:TrackPointExtension>
            <ns3:hr>143</ns3:hr>
            <ns3:cad>44</ns3:cad>
          </ns3:TrackPointExtension>
        </extensions>
      </trkpt>
      <trkpt lat="45.313714183866977691650390625" lon="-71.02841846644878387451171875">
        <ele>765.5999755859375</ele>
        <time>2026-08-21T21:31:15.000Z</time>
        <extensions>
          <ns3:TrackPointExtension>
            <ns3:hr>143</ns3:hr>
            <ns3:cad>44</ns3:cad>
          </ns3:TrackPointExtension>
        </extensions>
      </trkpt>
      <trkpt lat="45.31370504759252071380615234375" lon="-71.02842810563743114471435546875">
        <ele>765.79998779296875</ele>
        <time>2026-08-21T21:31:16.000Z</time>
        <extensions>
          <ns3:TrackPointExtension>
            <ns3:hr>142</ns3:hr>
            <ns3:cad>44</ns3:cad>
          </ns3:TrackPointExtension>
        </extensions>
      </trkpt>
      <trkpt lat="45.31369683332741260528564453125" lon="-71.02844126522541046142578125">
        <ele>766</ele>
        <time>2026-08-21T21:31:17.000Z</time>
        <extensions>
          <ns3:TrackPointExtension>
            <ns3:hr>142</ns3:hr>
            <ns3:cad>44</ns3:cad>
          </ns3:TrackPointExtension>
        </extensions>
      </trkpt>
      <trkpt lat="45.313699431717395782470703125" lon="-71.0284531675279140472412109375">
        <ele>766.20001220703125</ele>
        <time>2026-08-21T21:31:18.000Z</time>
        <extensions>
          <ns3:TrackPointExtension>
            <ns3:hr>142</ns3:hr>
            <ns3:cad>44</ns3:cad>
          </ns3:TrackPointExtension>
        </extensions>
      </trkpt>
      <trkpt lat="45.3136892057955265045166015625" lon="-71.02847320027649402618408203125">
        <ele>766.4000244140625</ele>
        <time>2026-08-21T21:31:19.000Z</time>
        <extensions>
          <ns3:TrackPointExtension>
            <ns3:hr>142</ns3:hr>
            <ns3:cad>44</ns3:cad>
          </ns3:TrackPointExtension>
        </extensions>
      </trkpt>
      <trkpt lat="45.3136798180639743804931640625" lon="-71.02847336791455745697021484375">
        <ele>766.5999755859375</ele>
        <time>2026-08-21T21:31:20.000Z</time>
        <extensions>
          <ns3:TrackPointExtension>
            <ns3:hr>143</ns3:hr>
            <ns3:cad>44</ns3:cad>
          </ns3:TrackPointExtension>
        </extensions>
      </trkpt>
      <trkpt lat="45.31367068178951740264892578125" lon="-71.028478145599365234375">
        <ele>766.79998779296875</ele>
        <time>2026-08-21T21:31:21.000Z</time>
        <extensions>
          <ns3:TrackPointExtension>
            <ns3:hr>144</ns3:hr>
            <ns3:cad>44</ns3:cad>
          </ns3:TrackPointExtension>
        </extensions>
      </trkpt>
      <trkpt lat="45.31366682611405849456787109375" lon="-71.0284887067973613739013671875">
        <ele>767</ele>
        <time>2026-08-21T21:31:22.000Z</time>
        <extensions>
          <ns3:TrackPointExtension>
            <ns3:hr>144</ns3:hr>
            <ns3:cad>44</ns3:cad>
          </ns3:TrackPointExtension>
        </extensions>
      </trkpt>
      <trkpt lat="45.313660539686679840087890625" lon="-71.0285007767379283905029296875">
        <ele>767.20001220703125</ele>
        <time>2026-08-21T21:31:23.000Z</time>
        <extensions>
          <ns3:TrackPointExtension>
            <ns3:hr>144</ns3:hr>
            <ns3:cad>44</ns3:cad>
          </ns3:TrackPointExtension>
        </extensions>
      </trkpt>
      <trkpt lat="45.313655175268650054931640625" lon="-71.02851360104978084564208984375">
        <ele>767.4000244140625</ele>
        <time>2026-08-21T21:31:24.000Z</time>
        <extensions>
          <ns3:TrackPointExtension>
            <ns3:hr>145</ns3:hr>
            <ns3:cad>0</ns3:cad>
          </ns3:TrackPointExtension>
        </extensions>
      </trkpt>
      <trkpt lat="45.31365106813609600067138671875" lon="-71.028523743152618408203125">
        <ele>767.4000244140625</ele>
        <time>2026-08-21T21:31:25.000Z</time>
        <extensions>
          <ns3:TrackPointExtension>
            <ns3:hr>145</ns3:hr>
            <ns3:cad>0</ns3:cad>
          </ns3:TrackPointExtension>
        </extensions>
      </trkpt>
      <trkpt lat="45.313646458089351654052734375" lon="-71.02853505872189998626708984375">
        <ele>767.5999755859375</ele>
        <time>2026-08-21T21:31:26.000Z</time>
        <extensions>
          <ns3:TrackPointExtension>
            <ns3:hr>145</ns3:hr>
            <ns3:cad>0</ns3:cad>
          </ns3:TrackPointExtension>
        </extensions>
      </trkpt>
      <trkpt lat="45.313641764223575592041015625" lon="-71.02854461409151554107666015625">
        <ele>767.79998779296875</ele>
        <time>2026-08-21T21:31:27.000Z</time>
        <extensions>
          <ns3:TrackPointExtension>
            <ns3:hr>145</ns3:hr>
            <ns3:cad>0</ns3:cad>
          </ns3:TrackPointExtension>
        </extensions>
      </trkpt>
      <trkpt lat="45.3136325441300868988037109375" lon="-71.0285520739853382110595703125">
        <ele>768</ele>
        <time>2026-08-21T21:31:28.000Z</time>
        <extensions>
          <ns3:TrackPointExtension>
            <ns3:hr>145</ns3:hr>
            <ns3:cad>0</ns3:cad>
          </ns3:TrackPointExtension>
        </extensions>
      </trkpt>
      <trkpt lat="45.31362927518784999847412109375" lon="-71.02856456302106380462646484375">
        <ele>768.20001220703125</ele>
        <time>2026-08-21T21:31:29.000Z</time>
        <extensions>
          <ns3:TrackPointExtension>
            <ns3:hr>146</ns3:hr>
            <ns3:cad>44</ns3:cad>
          </ns3:TrackPointExtension>
        </extensions>
      </trkpt>
      <trkpt lat="45.31362441368401050567626953125" lon="-71.02856867015361785888671875">
        <ele>768.4000244140625</ele>
        <time>2026-08-21T21:31:30.000Z</time>
        <extensions>
          <ns3:TrackPointExtension>
            <ns3:hr>146</ns3:hr>
            <ns3:cad>44</ns3:cad>
          </ns3:TrackPointExtension>
        </extensions>
      </trkpt>
      <trkpt lat="45.3136181272566318511962890625" lon="-71.02857797406613826751708984375">
        <ele>768.5999755859375</ele>
        <time>2026-08-21T21:31:31.000Z</time>
        <extensions>
          <ns3:TrackPointExtension>
            <ns3:hr>146</ns3:hr>
            <ns3:cad>47</ns3:cad>
          </ns3:TrackPointExtension>
        </extensions>
      </trkpt>
      <trkpt lat="45.3136107511818408966064453125" lon="-71.02859138511121273040771484375">
        <ele>768.79998779296875</ele>
        <time>2026-08-21T21:31:32.000Z</time>
        <extensions>
          <ns3:TrackPointExtension>
            <ns3:hr>146</ns3:hr>
            <ns3:cad>47</ns3:cad>
          </ns3:TrackPointExtension>
        </extensions>
      </trkpt>
      <trkpt lat="45.313602201640605926513671875" lon="-71.02859507314860820770263671875">
        <ele>769</ele>
        <time>2026-08-21T21:31:33.000Z</time>
        <extensions>
          <ns3:TrackPointExtension>
            <ns3:hr>147</ns3:hr>
            <ns3:cad>47</ns3:cad>
          </ns3:TrackPointExtension>
        </extensions>
      </trkpt>
      <trkpt lat="45.31359759159386157989501953125" lon="-71.02860647253692150115966796875">
        <ele>769.20001220703125</ele>
        <time>2026-08-21T21:31:34.000Z</time>
        <extensions>
          <ns3:TrackPointExtension>
            <ns3:hr>147</ns3:hr>
            <ns3:cad>47</ns3:cad>
          </ns3:TrackPointExtension>
        </extensions>
      </trkpt>
      <trkpt lat="45.3135919757187366485595703125" lon="-71.0286184586584568023681640625">
        <ele>769.4000244140625</ele>
        <time>2026-08-21T21:31:35.000Z</time>
        <extensions>
          <ns3:TrackPointExtension>
            <ns3:hr>147</ns3:hr>
            <ns3:cad>47</ns3:cad>
          </ns3:TrackPointExtension>
        </extensions>
      </trkpt>
      <trkpt lat="45.31357781030237674713134765625" lon="-71.0286345519125461578369140625">
        <ele>769.5999755859375</ele>
        <time>2026-08-21T21:31:36.000Z</time>
        <extensions>
          <ns3:TrackPointExtension>
            <ns3:hr>147</ns3:hr>
            <ns3:cad>46</ns3:cad>
          </ns3:TrackPointExtension>
        </extensions>
      </trkpt>
      <trkpt lat="45.313572026789188385009765625" lon="-71.02865181863307952880859375">
        <ele>769.79998779296875</ele>
        <time>2026-08-21T21:31:37.000Z</time>
        <extensions>
          <ns3:TrackPointExtension>
            <ns3:hr>146</ns3:hr>
            <ns3:cad>46</ns3:cad>
          </ns3:TrackPointExtension>
        </extensions>
      </trkpt>
      <trkpt lat="45.31356674619019031524658203125" lon="-71.02866313420236110687255859375">
        <ele>769.79998779296875</ele>
        <time>2026-08-21T21:31:38.000Z</time>
        <extensions>
          <ns3:TrackPointExtension>
            <ns3:hr>146</ns3:hr>
            <ns3:cad>44</ns3:cad>
          </ns3:TrackPointExtension>
        </extensions>
      </trkpt>
      <trkpt lat="45.3135628066956996917724609375" lon="-71.02867218665778636932373046875">
        <ele>770</ele>
        <time>2026-08-21T21:31:39.000Z</time>
        <extensions>
          <ns3:TrackPointExtension>
            <ns3:hr>146</ns3:hr>
            <ns3:cad>44</ns3:cad>
          </ns3:TrackPointExtension>
        </extensions>
      </trkpt>
      <trkpt lat="45.3135591186583042144775390625" lon="-71.02868543006479740142822265625">
        <ele>770.20001220703125</ele>
        <time>2026-08-21T21:31:40.000Z</time>
        <extensions>
          <ns3:TrackPointExtension>
            <ns3:hr>146</ns3:hr>
            <ns3:cad>44</ns3:cad>
          </ns3:TrackPointExtension>
        </extensions>
      </trkpt>
      <trkpt lat="45.31355383805930614471435546875" lon="-71.02869716472923755645751953125">
        <ele>770.4000244140625</ele>
        <time>2026-08-21T21:31:41.000Z</time>
        <extensions>
          <ns3:TrackPointExtension>
            <ns3:hr>147</ns3:hr>
            <ns3:cad>44</ns3:cad>
          </ns3:TrackPointExtension>
        </extensions>
      </trkpt>
      <trkpt lat="45.31355400569736957550048828125" lon="-71.02870814502239227294921875">
        <ele>770.4000244140625</ele>
        <time>2026-08-21T21:31:42.000Z</time>
        <extensions>
          <ns3:TrackPointExtension>
            <ns3:hr>146</ns3:hr>
            <ns3:cad>44</ns3:cad>
          </ns3:TrackPointExtension>
        </extensions>
      </trkpt>
      <trkpt lat="45.31354813836514949798583984375" lon="-71.02871526964008808135986328125">
        <ele>770.5999755859375</ele>
        <time>2026-08-21T21:31:43.000Z</time>
        <extensions>
          <ns3:TrackPointExtension>
            <ns3:hr>146</ns3:hr>
            <ns3:cad>44</ns3:cad>
          </ns3:TrackPointExtension>
        </extensions>
      </trkpt>
      <trkpt lat="45.31353615224361419677734375" lon="-71.028723903000354766845703125">
        <ele>770.79998779296875</ele>
        <time>2026-08-21T21:31:44.000Z</time>
        <extensions>
          <ns3:TrackPointExtension>
            <ns3:hr>147</ns3:hr>
            <ns3:cad>44</ns3:cad>
          </ns3:TrackPointExtension>
        </extensions>
      </trkpt>
      <trkpt lat="45.31353020109236240386962890625" lon="-71.028732955455780029296875">
        <ele>771</ele>
        <time>2026-08-21T21:31:45.000Z</time>
        <extensions>
          <ns3:TrackPointExtension>
            <ns3:hr>146</ns3:hr>
            <ns3:cad>44</ns3:cad>
          </ns3:TrackPointExtension>
        </extensions>
      </trkpt>
      <trkpt lat="45.3135229088366031646728515625" lon="-71.028742678463459014892578125">
        <ele>771.20001220703125</ele>
        <time>2026-08-21T21:31:46.000Z</time>
        <extensions>
          <ns3:TrackPointExtension>
            <ns3:hr>146</ns3:hr>
            <ns3:cad>44</ns3:cad>
          </ns3:TrackPointExtension>
        </extensions>
      </trkpt>
      <trkpt lat="45.31351360492408275604248046875" lon="-71.02875567041337490081787109375">
        <ele>771.4000244140625</ele>
        <time>2026-08-21T21:31:47.000Z</time>
        <extensions>
          <ns3:TrackPointExtension>
            <ns3:hr>146</ns3:hr>
            <ns3:cad>44</ns3:cad>
          </ns3:TrackPointExtension>
        </extensions>
      </trkpt>
      <trkpt lat="45.31350530683994293212890625" lon="-71.028770506381988525390625">
        <ele>771.5999755859375</ele>
        <time>2026-08-21T21:31:48.000Z</time>
        <extensions>
          <ns3:TrackPointExtension>
            <ns3:hr>147</ns3:hr>
            <ns3:cad>45</ns3:cad>
          </ns3:TrackPointExtension>
        </extensions>
      </trkpt>
      <trkpt lat="45.313498266041278839111328125" lon="-71.02878316305577754974365234375">
        <ele>771.5999755859375</ele>
        <time>2026-08-21T21:31:49.000Z</time>
        <extensions>
          <ns3:TrackPointExtension>
            <ns3:hr>146</ns3:hr>
            <ns3:cad>45</ns3:cad>
          </ns3:TrackPointExtension>
        </extensions>
      </trkpt>
      <trkpt lat="45.31349013559520244598388671875" lon="-71.02880009450018405914306640625">
        <ele>771.5999755859375</ele>
        <time>2026-08-21T21:31:50.000Z</time>
        <extensions>
          <ns3:TrackPointExtension>
            <ns3:hr>146</ns3:hr>
            <ns3:cad>45</ns3:cad>
          </ns3:TrackPointExtension>
        </extensions>
      </trkpt>
      <trkpt lat="45.31348443590104579925537109375" lon="-71.02881819941103458404541015625">
        <ele>771.5999755859375</ele>
        <time>2026-08-21T21:31:51.000Z</time>
        <extensions>
          <ns3:TrackPointExtension>
            <ns3:hr>145</ns3:hr>
            <ns3:cad>45</ns3:cad>
          </ns3:TrackPointExtension>
        </extensions>
      </trkpt>
      <trkpt lat="45.3134769760072231292724609375" lon="-71.02884938009083271026611328125">
        <ele>771.5999755859375</ele>
        <time>2026-08-21T21:31:52.000Z</time>
        <extensions>
          <ns3:TrackPointExtension>
            <ns3:hr>144</ns3:hr>
            <ns3:cad>45</ns3:cad>
          </ns3:TrackPointExtension>
        </extensions>
      </trkpt>
      <trkpt lat="45.31347152777016162872314453125" lon="-71.02886698208749294281005859375">
        <ele>771.5999755859375</ele>
        <time>2026-08-21T21:31:53.000Z</time>
        <extensions>
          <ns3:TrackPointExtension>
            <ns3:hr>145</ns3:hr>
            <ns3:cad>45</ns3:cad>
          </ns3:TrackPointExtension>
        </extensions>
      </trkpt>
      <trkpt lat="45.31345878727734088897705078125" lon="-71.02889128960669040679931640625">
        <ele>771.5999755859375</ele>
        <time>2026-08-21T21:31:54.000Z</time>
        <extensions>
          <ns3:TrackPointExtension>
            <ns3:hr>146</ns3:hr>
            <ns3:cad>45</ns3:cad>
          </ns3:TrackPointExtension>
        </extensions>
      </trkpt>
      <trkpt lat="45.3134538419544696807861328125" lon="-71.02891408838331699371337890625">
        <ele>771.79998779296875</ele>
        <time>2026-08-21T21:31:55.000Z</time>
        <extensions>
          <ns3:TrackPointExtension>
            <ns3:hr>146</ns3:hr>
            <ns3:cad>45</ns3:cad>
          </ns3:TrackPointExtension>
        </extensions>
      </trkpt>
      <trkpt lat="45.3134484775364398956298828125" lon="-71.0289349593222141265869140625">
        <ele>771.79998779296875</ele>
        <time>2026-08-21T21:31:56.000Z</time>
        <extensions>
          <ns3:TrackPointExtension>
            <ns3:hr>146</ns3:hr>
            <ns3:cad>45</ns3:cad>
          </ns3:TrackPointExtension>
        </extensions>
      </trkpt>
      <trkpt lat="45.31343422830104827880859375" lon="-71.0289567522704601287841796875">
        <ele>771.79998779296875</ele>
        <time>2026-08-21T21:31:57.000Z</time>
        <extensions>
          <ns3:TrackPointExtension>
            <ns3:hr>146</ns3:hr>
            <ns3:cad>45</ns3:cad>
          </ns3:TrackPointExtension>
        </extensions>
      </trkpt>
      <trkpt lat="45.31342492438852787017822265625" lon="-71.0289815627038478851318359375">
        <ele>772</ele>
        <time>2026-08-21T21:31:58.000Z</time>
        <extensions>
          <ns3:TrackPointExtension>
            <ns3:hr>146</ns3:hr>
            <ns3:cad>71</ns3:cad>
          </ns3:TrackPointExtension>
        </extensions>
      </trkpt>
      <trkpt lat="45.31341721303761005401611328125" lon="-71.02900679223239421844482421875">
        <ele>772</ele>
        <time>2026-08-21T21:31:59.000Z</time>
        <extensions>
          <ns3:TrackPointExtension>
            <ns3:hr>146</ns3:hr>
            <ns3:cad>71</ns3:cad>
          </ns3:TrackPointExtension>
        </extensions>
      </trkpt>
      <trkpt lat="45.31340883113443851470947265625" lon="-71.02902724407613277435302734375">
        <ele>772.20001220703125</ele>
        <time>2026-08-21T21:32:00.000Z</time>
        <extensions>
          <ns3:TrackPointExtension>
            <ns3:hr>145</ns3:hr>
            <ns3:cad>71</ns3:cad>
          </ns3:TrackPointExtension>
        </extensions>
      </trkpt>
      <trkpt lat="45.3134013712406158447265625" lon="-71.02904819883406162261962890625">
        <ele>772.4000244140625</ele>
        <time>2026-08-21T21:32:01.000Z</time>
        <extensions>
          <ns3:TrackPointExtension>
            <ns3:hr>144</ns3:hr>
            <ns3:cad>71</ns3:cad>
          </ns3:TrackPointExtension>
        </extensions>
      </trkpt>
      <trkpt lat="45.31338552944362163543701171875" lon="-71.02907468564808368682861328125">
        <ele>772.5999755859375</ele>
        <time>2026-08-21T21:32:02.000Z</time>
        <extensions>
          <ns3:TrackPointExtension>
            <ns3:hr>143</ns3:hr>
            <ns3:cad>71</ns3:cad>
          </ns3:TrackPointExtension>
        </extensions>
      </trkpt>
      <trkpt lat="45.31337513588368892669677734375" lon="-71.029096730053424835205078125">
        <ele>772.5999755859375</ele>
        <time>2026-08-21T21:32:03.000Z</time>
        <extensions>
          <ns3:TrackPointExtension>
            <ns3:hr>143</ns3:hr>
            <ns3:cad>72</ns3:cad>
          </ns3:TrackPointExtension>
        </extensions>
      </trkpt>
      <trkpt lat="45.31336247920989990234375" lon="-71.02912028320133686065673828125">
        <ele>772.5999755859375</ele>
        <time>2026-08-21T21:32:04.000Z</time>
        <extensions>
          <ns3:TrackPointExtension>
            <ns3:hr>143</ns3:hr>
            <ns3:cad>72</ns3:cad>
          </ns3:TrackPointExtension>
        </extensions>
      </trkpt>
      <trkpt lat="45.313358791172504425048828125" lon="-71.02913537062704563140869140625">
        <ele>772.79998779296875</ele>
        <time>2026-08-21T21:32:05.000Z</time>
        <extensions>
          <ns3:TrackPointExtension>
            <ns3:hr>142</ns3:hr>
            <ns3:cad>72</ns3:cad>
          </ns3:TrackPointExtension>
        </extensions>
      </trkpt>
      <trkpt lat="45.3133499063551425933837890625" lon="-71.0291508771479129791259765625">
        <ele>772.79998779296875</ele>
        <time>2026-08-21T21:32:06.000Z</time>
        <extensions>
          <ns3:TrackPointExtension>
            <ns3:hr>142</ns3:hr>
            <ns3:cad>72</ns3:cad>
          </ns3:TrackPointExtension>
        </extensions>
      </trkpt>
      <trkpt lat="45.31334169209003448486328125" lon="-71.02917124517261981964111328125">
        <ele>772.79998779296875</ele>
        <time>2026-08-21T21:32:07.000Z</time>
        <extensions>
          <ns3:TrackPointExtension>
            <ns3:hr>143</ns3:hr>
            <ns3:cad>72</ns3:cad>
          </ns3:TrackPointExtension>
        </extensions>
      </trkpt>
      <trkpt lat="45.31333389692008495330810546875" lon="-71.02918398566544055938720703125">
        <ele>772.5999755859375</ele>
        <time>2026-08-21T21:32:08.000Z</time>
        <extensions>
          <ns3:TrackPointExtension>
            <ns3:hr>143</ns3:hr>
            <ns3:cad>72</ns3:cad>
          </ns3:TrackPointExtension>
        </extensions>
      </trkpt>
      <trkpt lat="45.31332400627434253692626953125" lon="-71.0292038507759571075439453125">
        <ele>772.5999755859375</ele>
        <time>2026-08-21T21:32:09.000Z</time>
        <extensions>
          <ns3:TrackPointExtension>
            <ns3:hr>144</ns3:hr>
            <ns3:cad>72</ns3:cad>
          </ns3:TrackPointExtension>
        </extensions>
      </trkpt>
      <trkpt lat="45.313316546380519866943359375" lon="-71.02922421880066394805908203125">
        <ele>772.4000244140625</ele>
        <time>2026-08-21T21:32:10.000Z</time>
        <extensions>
          <ns3:TrackPointExtension>
            <ns3:hr>144</ns3:hr>
            <ns3:cad>55</ns3:cad>
          </ns3:TrackPointExtension>
        </extensions>
      </trkpt>
      <trkpt lat="45.31330958940088748931884765625" lon="-71.02924869395792484283447265625">
        <ele>772.20001220703125</ele>
        <time>2026-08-21T21:32:11.000Z</time>
        <extensions>
          <ns3:TrackPointExtension>
            <ns3:hr>144</ns3:hr>
            <ns3:cad>55</ns3:cad>
          </ns3:TrackPointExtension>
        </extensions>
      </trkpt>
      <trkpt lat="45.31330271624028682708740234375" lon="-71.029261685907840728759765625">
        <ele>772.20001220703125</ele>
        <time>2026-08-21T21:32:12.000Z</time>
        <extensions>
          <ns3:TrackPointExtension>
            <ns3:hr>144</ns3:hr>
            <ns3:cad>0</ns3:cad>
          </ns3:TrackPointExtension>
        </extensions>
      </trkpt>
      <trkpt lat="45.31328930519521236419677734375" lon="-71.02927451021969318389892578125">
        <ele>772.20001220703125</ele>
        <time>2026-08-21T21:32:13.000Z</time>
        <extensions>
          <ns3:TrackPointExtension>
            <ns3:hr>143</ns3:hr>
            <ns3:cad>0</ns3:cad>
          </ns3:TrackPointExtension>
        </extensions>
      </trkpt>
      <trkpt lat="45.3132781572639942169189453125" lon="-71.029286496341228485107421875">
        <ele>772.20001220703125</ele>
        <time>2026-08-21T21:32:14.000Z</time>
        <extensions>
          <ns3:TrackPointExtension>
            <ns3:hr>143</ns3:hr>
            <ns3:cad>0</ns3:cad>
          </ns3:TrackPointExtension>
        </extensions>
      </trkpt>
      <trkpt lat="45.31326767988502979278564453125" lon="-71.02930518798530101776123046875">
        <ele>772.4000244140625</ele>
        <time>2026-08-21T21:32:15.000Z</time>
        <extensions>
          <ns3:TrackPointExtension>
            <ns3:hr>142</ns3:hr>
            <ns3:cad>54</ns3:cad>
          </ns3:TrackPointExtension>
        </extensions>
      </trkpt>
      <trkpt lat="45.313263572752475738525390625" lon="-71.02932077832520008087158203125">
        <ele>772.5999755859375</ele>
        <time>2026-08-21T21:32:16.000Z</time>
        <extensions>
          <ns3:TrackPointExtension>
            <ns3:hr>142</ns3:hr>
            <ns3:cad>54</ns3:cad>
          </ns3:TrackPointExtension>
        </extensions>
      </trkpt>
      <trkpt lat="45.31325628049671649932861328125" lon="-71.0293349437415599822998046875">
        <ele>772.5999755859375</ele>
        <time>2026-08-21T21:32:17.000Z</time>
        <extensions>
          <ns3:TrackPointExtension>
            <ns3:hr>142</ns3:hr>
            <ns3:cad>53</ns3:cad>
          </ns3:TrackPointExtension>
        </extensions>
      </trkpt>
      <trkpt lat="45.31324806623160839080810546875" lon="-71.0293480195105075836181640625">
        <ele>772.79998779296875</ele>
        <time>2026-08-21T21:32:18.000Z</time>
        <extensions>
          <ns3:TrackPointExtension>
            <ns3:hr>141</ns3:hr>
            <ns3:cad>53</ns3:cad>
          </ns3:TrackPointExtension>
        </extensions>
      </trkpt>
      <trkpt lat="45.31324286945164203643798828125" lon="-71.02935682050883769989013671875">
        <ele>773</ele>
        <time>2026-08-21T21:32:19.000Z</time>
        <extensions>
          <ns3:TrackPointExtension>
            <ns3:hr>141</ns3:hr>
            <ns3:cad>53</ns3:cad>
          </ns3:TrackPointExtension>
        </extensions>
      </trkpt>
      <trkpt lat="45.31323599629104137420654296875" lon="-71.0293698124587535858154296875">
        <ele>773.20001220703125</ele>
        <time>2026-08-21T21:32:20.000Z</time>
        <extensions>
          <ns3:TrackPointExtension>
            <ns3:hr>140</ns3:hr>
            <ns3:cad>53</ns3:cad>
          </ns3:TrackPointExtension>
        </extensions>
      </trkpt>
      <trkpt lat="45.31322610564529895782470703125" lon="-71.029380373656749725341796875">
        <ele>773.4000244140625</ele>
        <time>2026-08-21T21:32:21.000Z</time>
        <extensions>
          <ns3:TrackPointExtension>
            <ns3:hr>139</ns3:hr>
            <ns3:cad>53</ns3:cad>
          </ns3:TrackPointExtension>
        </extensions>
      </trkpt>
      <trkpt lat="45.31322007067501544952392578125" lon="-71.0293895937502384185791015625">
        <ele>773.5999755859375</ele>
        <time>2026-08-21T21:32:22.000Z</time>
        <extensions>
          <ns3:TrackPointExtension>
            <ns3:hr>138</ns3:hr>
            <ns3:cad>52</ns3:cad>
          </ns3:TrackPointExtension>
        </extensions>
      </trkpt>
      <trkpt lat="45.31321219168603420257568359375" lon="-71.029398478567600250244140625">
        <ele>773.79998779296875</ele>
        <time>2026-08-21T21:32:23.000Z</time>
        <extensions>
          <ns3:TrackPointExtension>
            <ns3:hr>138</ns3:hr>
            <ns3:cad>52</ns3:cad>
          </ns3:TrackPointExtension>
        </extensions>
      </trkpt>
      <trkpt lat="45.31320355832576751708984375" lon="-71.02940895594656467437744140625">
        <ele>774</ele>
        <time>2026-08-21T21:32:24.000Z</time>
        <extensions>
          <ns3:TrackPointExtension>
            <ns3:hr>138</ns3:hr>
            <ns3:cad>49</ns3:cad>
          </ns3:TrackPointExtension>
        </extensions>
      </trkpt>
      <trkpt lat="45.31319425441324710845947265625" lon="-71.0294241271913051605224609375">
        <ele>774.20001220703125</ele>
        <time>2026-08-21T21:32:25.000Z</time>
        <extensions>
          <ns3:TrackPointExtension>
            <ns3:hr>138</ns3:hr>
            <ns3:cad>49</ns3:cad>
          </ns3:TrackPointExtension>
        </extensions>
      </trkpt>
      <trkpt lat="45.313191823661327362060546875" lon="-71.029442064464092254638671875">
        <ele>774.4000244140625</ele>
        <time>2026-08-21T21:32:26.000Z</time>
        <extensions>
          <ns3:TrackPointExtension>
            <ns3:hr>138</ns3:hr>
            <ns3:cad>49</ns3:cad>
          </ns3:TrackPointExtension>
        </extensions>
      </trkpt>
      <trkpt lat="45.31318453140556812286376953125" lon="-71.02945807389914989471435546875">
        <ele>774.5999755859375</ele>
        <time>2026-08-21T21:32:27.000Z</time>
        <extensions>
          <ns3:TrackPointExtension>
            <ns3:hr>138</ns3:hr>
            <ns3:cad>51</ns3:cad>
          </ns3:TrackPointExtension>
        </extensions>
      </trkpt>
      <trkpt lat="45.313177406787872314453125" lon="-71.029464863240718841552734375">
        <ele>774.79998779296875</ele>
        <time>2026-08-21T21:32:28.000Z</time>
        <extensions>
          <ns3:TrackPointExtension>
            <ns3:hr>138</ns3:hr>
            <ns3:cad>51</ns3:cad>
          </ns3:TrackPointExtension>
        </extensions>
      </trkpt>
      <trkpt lat="45.3131691925227642059326171875" lon="-71.0294781066477298736572265625">
        <ele>775</ele>
        <time>2026-08-21T21:32:29.000Z</time>
        <extensions>
          <ns3:TrackPointExtension>
            <ns3:hr>138</ns3:hr>
            <ns3:cad>52</ns3:cad>
          </ns3:TrackPointExtension>
        </extensions>
      </trkpt>
      <trkpt lat="45.31316491775214672088623046875" lon="-71.02949746884405612945556640625">
        <ele>775</ele>
        <time>2026-08-21T21:32:30.000Z</time>
        <extensions>
          <ns3:TrackPointExtension>
            <ns3:hr>138</ns3:hr>
            <ns3:cad>50</ns3:cad>
          </ns3:TrackPointExtension>
        </extensions>
      </trkpt>
      <trkpt lat="45.31315955333411693572998046875" lon="-71.0295112989842891693115234375">
        <ele>775.20001220703125</ele>
        <time>2026-08-21T21:32:31.000Z</time>
        <extensions>
          <ns3:TrackPointExtension>
            <ns3:hr>138</ns3:hr>
            <ns3:cad>50</ns3:cad>
          </ns3:TrackPointExtension>
        </extensions>
      </trkpt>
      <trkpt lat="45.31315972097218036651611328125" lon="-71.02952311746776103973388671875">
        <ele>775.4000244140625</ele>
        <time>2026-08-21T21:32:32.000Z</time>
        <extensions>
          <ns3:TrackPointExtension>
            <ns3:hr>138</ns3:hr>
            <ns3:cad>48</ns3:cad>
          </ns3:TrackPointExtension>
        </extensions>
      </trkpt>
      <trkpt lat="45.31315636821091175079345703125" lon="-71.0295340977609157562255859375">
        <ele>775.5999755859375</ele>
        <time>2026-08-21T21:32:33.000Z</time>
        <extensions>
          <ns3:TrackPointExtension>
            <ns3:hr>137</ns3:hr>
            <ns3:cad>48</ns3:cad>
          </ns3:TrackPointExtension>
        </extensions>
      </trkpt>
      <trkpt lat="45.31314932741224765777587890625" lon="-71.0295468382537364959716796875">
        <ele>775.79998779296875</ele>
        <time>2026-08-21T21:32:34.000Z</time>
        <extensions>
          <ns3:TrackPointExtension>
            <ns3:hr>138</ns3:hr>
            <ns3:cad>45</ns3:cad>
          </ns3:TrackPointExtension>
        </extensions>
      </trkpt>
      <trkpt lat="45.313141532242298126220703125" lon="-71.02955798618495464324951171875">
        <ele>776</ele>
        <time>2026-08-21T21:32:35.000Z</time>
        <extensions>
          <ns3:TrackPointExtension>
            <ns3:hr>137</ns3:hr>
            <ns3:cad>47</ns3:cad>
          </ns3:TrackPointExtension>
        </extensions>
      </trkpt>
      <trkpt lat="45.31313558109104633331298828125" lon="-71.02956754155457019805908203125">
        <ele>776</ele>
        <time>2026-08-21T21:32:36.000Z</time>
        <extensions>
          <ns3:TrackPointExtension>
            <ns3:hr>137</ns3:hr>
            <ns3:cad>47</ns3:cad>
          </ns3:TrackPointExtension>
        </extensions>
      </trkpt>
      <trkpt lat="45.31313382089138031005859375" lon="-71.02957718074321746826171875">
        <ele>776.20001220703125</ele>
        <time>2026-08-21T21:32:37.000Z</time>
        <extensions>
          <ns3:TrackPointExtension>
            <ns3:hr>137</ns3:hr>
            <ns3:cad>47</ns3:cad>
          </ns3:TrackPointExtension>
        </extensions>
      </trkpt>
      <trkpt lat="45.31312937848269939422607421875" lon="-71.02958749048411846160888671875">
        <ele>776.4000244140625</ele>
        <time>2026-08-21T21:32:38.000Z</time>
        <extensions>
          <ns3:TrackPointExtension>
            <ns3:hr>138</ns3:hr>
            <ns3:cad>47</ns3:cad>
          </ns3:TrackPointExtension>
        </extensions>
      </trkpt>
      <trkpt lat="45.3131256066262722015380859375" lon="-71.02959704585373401641845703125">
        <ele>776.4000244140625</ele>
        <time>2026-08-21T21:32:39.000Z</time>
        <extensions>
          <ns3:TrackPointExtension>
            <ns3:hr>138</ns3:hr>
            <ns3:cad>0</ns3:cad>
          </ns3:TrackPointExtension>
        </extensions>
      </trkpt>
      <trkpt lat="45.31312200240790843963623046875" lon="-71.02960794232785701751708984375">
        <ele>776.5999755859375</ele>
        <time>2026-08-21T21:32:40.000Z</time>
        <extensions>
          <ns3:TrackPointExtension>
            <ns3:hr>138</ns3:hr>
            <ns3:cad>0</ns3:cad>
          </ns3:TrackPointExtension>
        </extensions>
      </trkpt>
      <trkpt lat="45.3131168894469738006591796875" lon="-71.02961766533553600311279296875">
        <ele>776.79998779296875</ele>
        <time>2026-08-21T21:32:41.000Z</time>
        <extensions>
          <ns3:TrackPointExtension>
            <ns3:hr>138</ns3:hr>
            <ns3:cad>0</ns3:cad>
          </ns3:TrackPointExtension>
        </extensions>
      </trkpt>
      <trkpt lat="45.31311211176216602325439453125" lon="-71.02962889708578586578369140625">
        <ele>776.79998779296875</ele>
        <time>2026-08-21T21:32:42.000Z</time>
        <extensions>
          <ns3:TrackPointExtension>
            <ns3:hr>138</ns3:hr>
            <ns3:cad>45</ns3:cad>
          </ns3:TrackPointExtension>
        </extensions>
      </trkpt>
      <trkpt lat="45.31310423277318477630615234375" lon="-71.0296420566737651824951171875">
        <ele>777</ele>
        <time>2026-08-21T21:32:43.000Z</time>
        <extensions>
          <ns3:TrackPointExtension>
            <ns3:hr>138</ns3:hr>
            <ns3:cad>45</ns3:cad>
          </ns3:TrackPointExtension>
        </extensions>
      </trkpt>
      <trkpt lat="45.31310029327869415283203125" lon="-71.0296524502336978912353515625">
        <ele>777.20001220703125</ele>
        <time>2026-08-21T21:32:44.000Z</time>
        <extensions>
          <ns3:TrackPointExtension>
            <ns3:hr>137</ns3:hr>
            <ns3:cad>45</ns3:cad>
          </ns3:TrackPointExtension>
        </extensions>
      </trkpt>
      <trkpt lat="45.31309937126934528350830078125" lon="-71.0296658612787723541259765625">
        <ele>777.4000244140625</ele>
        <time>2026-08-21T21:32:45.000Z</time>
        <extensions>
          <ns3:TrackPointExtension>
            <ns3:hr>138</ns3:hr>
            <ns3:cad>45</ns3:cad>
          </ns3:TrackPointExtension>
        </extensions>
      </trkpt>
      <trkpt lat="45.3130937553942203521728515625" lon="-71.0296782664954662322998046875">
        <ele>777.5999755859375</ele>
        <time>2026-08-21T21:32:46.000Z</time>
        <extensions>
          <ns3:TrackPointExtension>
            <ns3:hr>138</ns3:hr>
            <ns3:cad>45</ns3:cad>
          </ns3:TrackPointExtension>
        </extensions>
      </trkpt>
      <trkpt lat="45.31309165991842746734619140625" lon="-71.0296918451786041259765625">
        <ele>777.79998779296875</ele>
        <time>2026-08-21T21:32:47.000Z</time>
        <extensions>
          <ns3:TrackPointExtension>
            <ns3:hr>138</ns3:hr>
            <ns3:cad>45</ns3:cad>
          </ns3:TrackPointExtension>
        </extensions>
      </trkpt>
      <trkpt lat="45.31309300102293491363525390625" lon="-71.02971707470715045928955078125">
        <ele>777.79998779296875</ele>
        <time>2026-08-21T21:32:48.000Z</time>
        <extensions>
          <ns3:TrackPointExtension>
            <ns3:hr>137</ns3:hr>
            <ns3:cad>45</ns3:cad>
          </ns3:TrackPointExtension>
        </extensions>
      </trkpt>
      <trkpt lat="45.31309283338487148284912109375" lon="-71.0297335870563983917236328125">
        <ele>778</ele>
        <time>2026-08-21T21:32:49.000Z</time>
        <extensions>
          <ns3:TrackPointExtension>
            <ns3:hr>138</ns3:hr>
            <ns3:cad>0</ns3:cad>
          </ns3:TrackPointExtension>
        </extensions>
      </trkpt>
      <trkpt lat="45.31309333629906177520751953125" lon="-71.02974875830113887786865234375">
        <ele>778.20001220703125</ele>
        <time>2026-08-21T21:32:50.000Z</time>
        <extensions>
          <ns3:TrackPointExtension>
            <ns3:hr>138</ns3:hr>
            <ns3:cad>0</ns3:cad>
          </ns3:TrackPointExtension>
        </extensions>
      </trkpt>
      <trkpt lat="45.31310171820223331451416015625" lon="-71.0297610796988010406494140625">
        <ele>778.20001220703125</ele>
        <time>2026-08-21T21:32:51.000Z</time>
        <extensions>
          <ns3:TrackPointExtension>
            <ns3:hr>137</ns3:hr>
            <ns3:cad>0</ns3:cad>
          </ns3:TrackPointExtension>
        </extensions>
      </trkpt>
      <trkpt lat="45.31310892663896083831787109375" lon="-71.02977340109646320343017578125">
        <ele>778.4000244140625</ele>
        <time>2026-08-21T21:32:52.000Z</time>
        <extensions>
          <ns3:TrackPointExtension>
            <ns3:hr>136</ns3:hr>
            <ns3:cad>0</ns3:cad>
          </ns3:TrackPointExtension>
        </extensions>
      </trkpt>
      <trkpt lat="45.31311529688537120819091796875" lon="-71.02978647686541080474853515625">
        <ele>778.4000244140625</ele>
        <time>2026-08-21T21:32:53.000Z</time>
        <extensions>
          <ns3:TrackPointExtension>
            <ns3:hr>136</ns3:hr>
            <ns3:cad>0</ns3:cad>
          </ns3:TrackPointExtension>
        </extensions>
      </trkpt>
      <trkpt lat="45.3131246007978916168212890625" lon="-71.02980458177626132965087890625">
        <ele>778.4000244140625</ele>
        <time>2026-08-21T21:32:54.000Z</time>
        <extensions>
          <ns3:TrackPointExtension>
            <ns3:hr>136</ns3:hr>
            <ns3:cad>0</ns3:cad>
          </ns3:TrackPointExtension>
        </extensions>
      </trkpt>
      <trkpt lat="45.31313675455749034881591796875" lon="-71.02981723845005035400390625">
        <ele>778.4000244140625</ele>
        <time>2026-08-21T21:32:55.000Z</time>
        <extensions>
          <ns3:TrackPointExtension>
            <ns3:hr>136</ns3:hr>
            <ns3:cad>0</ns3:cad>
          </ns3:TrackPointExtension>
        </extensions>
      </trkpt>
      <trkpt lat="45.313147567212581634521484375" lon="-71.02982805110514163970947265625">
        <ele>778.4000244140625</ele>
        <time>2026-08-21T21:32:56.000Z</time>
        <extensions>
          <ns3:TrackPointExtension>
            <ns3:hr>136</ns3:hr>
            <ns3:cad>51</ns3:cad>
          </ns3:TrackPointExtension>
        </extensions>
      </trkpt>
      <trkpt lat="45.313162319362163543701171875" lon="-71.02984246797859668731689453125">
        <ele>778.4000244140625</ele>
        <time>2026-08-21T21:32:57.000Z</time>
        <extensions>
          <ns3:TrackPointExtension>
            <ns3:hr>136</ns3:hr>
            <ns3:cad>51</ns3:cad>
          </ns3:TrackPointExtension>
        </extensions>
      </trkpt>
      <trkpt lat="45.3131752274930477142333984375" lon="-71.02985554374754428863525390625">
        <ele>778.4000244140625</ele>
        <time>2026-08-21T21:32:58.000Z</time>
        <extensions>
          <ns3:TrackPointExtension>
            <ns3:hr>136</ns3:hr>
            <ns3:cad>51</ns3:cad>
          </ns3:TrackPointExtension>
        </extensions>
      </trkpt>
      <trkpt lat="45.31318855471909046173095703125" lon="-71.0298680327832698822021484375">
        <ele>778.4000244140625</ele>
        <time>2026-08-21T21:32:59.000Z</time>
        <extensions>
          <ns3:TrackPointExtension>
            <ns3:hr>136</ns3:hr>
            <ns3:cad>51</ns3:cad>
          </ns3:TrackPointExtension>
        </extensions>
      </trkpt>
      <trkpt lat="45.31320045702159404754638671875" lon="-71.02988320402801036834716796875">
        <ele>778.4000244140625</ele>
        <time>2026-08-21T21:33:00.000Z</time>
        <extensions>
          <ns3:TrackPointExtension>
            <ns3:hr>136</ns3:hr>
            <ns3:cad>53</ns3:cad>
          </ns3:TrackPointExtension>
        </extensions>
      </trkpt>
      <trkpt lat="45.31320934183895587921142578125" lon="-71.02989845909178256988525390625">
        <ele>778.4000244140625</ele>
        <time>2026-08-21T21:33:01.000Z</time>
        <extensions>
          <ns3:TrackPointExtension>
            <ns3:hr>137</ns3:hr>
            <ns3:cad>53</ns3:cad>
          </ns3:TrackPointExtension>
        </extensions>
      </trkpt>
      <trkpt lat="45.31321655027568340301513671875" lon="-71.029905416071414947509765625">
        <ele>778.5999755859375</ele>
        <time>2026-08-21T21:33:02.000Z</time>
        <extensions>
          <ns3:TrackPointExtension>
            <ns3:hr>137</ns3:hr>
            <ns3:cad>53</ns3:cad>
          </ns3:TrackPointExtension>
        </extensions>
      </trkpt>
      <trkpt lat="45.31322442926466464996337890625" lon="-71.029914803802967071533203125">
        <ele>778.5999755859375</ele>
        <time>2026-08-21T21:33:03.000Z</time>
        <extensions>
          <ns3:TrackPointExtension>
            <ns3:hr>138</ns3:hr>
            <ns3:cad>53</ns3:cad>
          </ns3:TrackPointExtension>
        </extensions>
      </trkpt>
      <trkpt lat="45.31323147006332874298095703125" lon="-71.0299340821802616119384765625">
        <ele>778.79998779296875</ele>
        <time>2026-08-21T21:33:04.000Z</time>
        <extensions>
          <ns3:TrackPointExtension>
            <ns3:hr>139</ns3:hr>
            <ns3:cad>53</ns3:cad>
          </ns3:TrackPointExtension>
        </extensions>
      </trkpt>
      <trkpt lat="45.31323398463428020477294921875" lon="-71.02995545603334903717041015625">
        <ele>778.79998779296875</ele>
        <time>2026-08-21T21:33:05.000Z</time>
        <extensions>
          <ns3:TrackPointExtension>
            <ns3:hr>140</ns3:hr>
            <ns3:cad>54</ns3:cad>
          </ns3:TrackPointExtension>
        </extensions>
      </trkpt>
      <trkpt lat="45.3132359124720096588134765625" lon="-71.029971800744533538818359375">
        <ele>779</ele>
        <time>2026-08-21T21:33:06.000Z</time>
        <extensions>
          <ns3:TrackPointExtension>
            <ns3:hr>139</ns3:hr>
            <ns3:cad>54</ns3:cad>
          </ns3:TrackPointExtension>
        </extensions>
      </trkpt>
      <trkpt lat="45.3132419474422931671142578125" lon="-71.02998630143702030181884765625">
        <ele>779</ele>
        <time>2026-08-21T21:33:07.000Z</time>
        <extensions>
          <ns3:TrackPointExtension>
            <ns3:hr>138</ns3:hr>
            <ns3:cad>54</ns3:cad>
          </ns3:TrackPointExtension>
        </extensions>
      </trkpt>
      <trkpt lat="45.31324437819421291351318359375" lon="-71.0300024785101413726806640625">
        <ele>779</ele>
        <time>2026-08-21T21:33:08.000Z</time>
        <extensions>
          <ns3:TrackPointExtension>
            <ns3:hr>138</ns3:hr>
            <ns3:cad>54</ns3:cad>
          </ns3:TrackPointExtension>
        </extensions>
      </trkpt>
      <trkpt lat="45.31325158663094043731689453125" lon="-71.03001748211681842803955078125">
        <ele>779</ele>
        <time>2026-08-21T21:33:09.000Z</time>
        <extensions>
          <ns3:TrackPointExtension>
            <ns3:hr>138</ns3:hr>
            <ns3:cad>54</ns3:cad>
          </ns3:TrackPointExtension>
        </extensions>
      </trkpt>
      <trkpt lat="45.31325879506766796112060546875" lon="-71.03003558702766895294189453125">
        <ele>779</ele>
        <time>2026-08-21T21:33:10.000Z</time>
        <extensions>
          <ns3:TrackPointExtension>
            <ns3:hr>138</ns3:hr>
            <ns3:cad>51</ns3:cad>
          </ns3:TrackPointExtension>
        </extensions>
      </trkpt>
      <trkpt lat="45.31326231546700000762939453125" lon="-71.03004966862499713897705078125">
        <ele>779</ele>
        <time>2026-08-21T21:33:11.000Z</time>
        <extensions>
          <ns3:TrackPointExtension>
            <ns3:hr>138</ns3:hr>
            <ns3:cad>51</ns3:cad>
          </ns3:TrackPointExtension>
        </extensions>
      </trkpt>
      <trkpt lat="45.313268601894378662109375" lon="-71.03006307967007160186767578125">
        <ele>779.20001220703125</ele>
        <time>2026-08-21T21:33:12.000Z</time>
        <extensions>
          <ns3:TrackPointExtension>
            <ns3:hr>137</ns3:hr>
            <ns3:cad>51</ns3:cad>
          </ns3:TrackPointExtension>
        </extensions>
      </trkpt>
      <trkpt lat="45.31327740289270877838134765625" lon="-71.03008135221898555755615234375">
        <ele>779.20001220703125</ele>
        <time>2026-08-21T21:33:13.000Z</time>
        <extensions>
          <ns3:TrackPointExtension>
            <ns3:hr>137</ns3:hr>
            <ns3:cad>51</ns3:cad>
          </ns3:TrackPointExtension>
        </extensions>
      </trkpt>
      <trkpt lat="45.3132875449955463409423828125" lon="-71.03009275160729885101318359375">
        <ele>779.20001220703125</ele>
        <time>2026-08-21T21:33:14.000Z</time>
        <extensions>
          <ns3:TrackPointExtension>
            <ns3:hr>137</ns3:hr>
            <ns3:cad>51</ns3:cad>
          </ns3:TrackPointExtension>
        </extensions>
      </trkpt>
      <trkpt lat="45.31330221332609653472900390625" lon="-71.0300960205495357513427734375">
        <ele>779</ele>
        <time>2026-08-21T21:33:15.000Z</time>
        <extensions>
          <ns3:TrackPointExtension>
            <ns3:hr>137</ns3:hr>
            <ns3:cad>51</ns3:cad>
          </ns3:TrackPointExtension>
        </extensions>
      </trkpt>
      <trkpt lat="45.31331914477050304412841796875" lon="-71.03010700084269046783447265625">
        <ele>779</ele>
        <time>2026-08-21T21:33:16.000Z</time>
        <extensions>
          <ns3:TrackPointExtension>
            <ns3:hr>137</ns3:hr>
            <ns3:cad>51</ns3:cad>
          </ns3:TrackPointExtension>
        </extensions>
      </trkpt>
      <trkpt lat="45.3133331425487995147705078125" lon="-71.030119322240352630615234375">
        <ele>779</ele>
        <time>2026-08-21T21:33:17.000Z</time>
        <extensions>
          <ns3:TrackPointExtension>
            <ns3:hr>137</ns3:hr>
            <ns3:cad>51</ns3:cad>
          </ns3:TrackPointExtension>
        </extensions>
      </trkpt>
      <trkpt lat="45.31334144063293933868408203125" lon="-71.030127704143524169921875">
        <ele>779</ele>
        <time>2026-08-21T21:33:18.000Z</time>
        <extensions>
          <ns3:TrackPointExtension>
            <ns3:hr>136</ns3:hr>
            <ns3:cad>51</ns3:cad>
          </ns3:TrackPointExtension>
        </extensions>
      </trkpt>
      <trkpt lat="45.31334915198385715484619140625" lon="-71.03013197891414165496826171875">
        <ele>779</ele>
        <time>2026-08-21T21:33:19.000Z</time>
        <extensions>
          <ns3:TrackPointExtension>
            <ns3:hr>135</ns3:hr>
            <ns3:cad>51</ns3:cad>
          </ns3:TrackPointExtension>
        </extensions>
      </trkpt>
      <trkpt lat="45.31336155720055103302001953125" lon="-71.03014321066439151763916015625">
        <ele>779</ele>
        <time>2026-08-21T21:33:20.000Z</time>
        <extensions>
          <ns3:TrackPointExtension>
            <ns3:hr>135</ns3:hr>
            <ns3:cad>56</ns3:cad>
          </ns3:TrackPointExtension>
        </extensions>
      </trkpt>
      <trkpt lat="45.3133745491504669189453125" lon="-71.0301654227077960968017578125">
        <ele>779.20001220703125</ele>
        <time>2026-08-21T21:33:21.000Z</time>
        <extensions>
          <ns3:TrackPointExtension>
            <ns3:hr>134</ns3:hr>
            <ns3:cad>56</ns3:cad>
          </ns3:TrackPointExtension>
        </extensions>
      </trkpt>
      <trkpt lat="45.3133898042142391204833984375" lon="-71.030172966420650482177734375">
        <ele>779.4000244140625</ele>
        <time>2026-08-21T21:33:22.000Z</time>
        <extensions>
          <ns3:TrackPointExtension>
            <ns3:hr>135</ns3:hr>
            <ns3:cad>56</ns3:cad>
          </ns3:TrackPointExtension>
        </extensions>
      </trkpt>
      <trkpt lat="45.31339340843260288238525390625" lon="-71.03019098751246929168701171875">
        <ele>779.4000244140625</ele>
        <time>2026-08-21T21:33:23.000Z</time>
        <extensions>
          <ns3:TrackPointExtension>
            <ns3:hr>134</ns3:hr>
            <ns3:cad>56</ns3:cad>
          </ns3:TrackPointExtension>
        </extensions>
      </trkpt>
      <trkpt lat="45.3133991919457912445068359375" lon="-71.030197441577911376953125">
        <ele>779.5999755859375</ele>
        <time>2026-08-21T21:33:24.000Z</time>
        <extensions>
          <ns3:TrackPointExtension>
            <ns3:hr>134</ns3:hr>
            <ns3:cad>56</ns3:cad>
          </ns3:TrackPointExtension>
        </extensions>
      </trkpt>
      <trkpt lat="45.3134142793715000152587890625" lon="-71.03020590730011463165283203125">
        <ele>779.79998779296875</ele>
        <time>2026-08-21T21:33:25.000Z</time>
        <extensions>
          <ns3:TrackPointExtension>
            <ns3:hr>134</ns3:hr>
            <ns3:cad>52</ns3:cad>
          </ns3:TrackPointExtension>
        </extensions>
      </trkpt>
      <trkpt lat="45.313424170017242431640625" lon="-71.03020808659493923187255859375">
        <ele>780</ele>
        <time>2026-08-21T21:33:26.000Z</time>
        <extensions>
          <ns3:TrackPointExtension>
            <ns3:hr>133</ns3:hr>
            <ns3:cad>52</ns3:cad>
          </ns3:TrackPointExtension>
        </extensions>
      </trkpt>
      <trkpt lat="45.31343297101557254791259765625" lon="-71.03021261282265186309814453125">
        <ele>780</ele>
        <time>2026-08-21T21:33:27.000Z</time>
        <extensions>
          <ns3:TrackPointExtension>
            <ns3:hr>133</ns3:hr>
            <ns3:cad>48</ns3:cad>
          </ns3:TrackPointExtension>
        </extensions>
      </trkpt>
      <trkpt lat="45.313441939651966094970703125" lon="-71.03022149764001369476318359375">
        <ele>780.20001220703125</ele>
        <time>2026-08-21T21:33:28.000Z</time>
        <extensions>
          <ns3:TrackPointExtension>
            <ns3:hr>133</ns3:hr>
            <ns3:cad>48</ns3:cad>
          </ns3:TrackPointExtension>
        </extensions>
      </trkpt>
      <trkpt lat="45.313452668488025665283203125" lon="-71.0302365012466907501220703125">
        <ele>780.4000244140625</ele>
        <time>2026-08-21T21:33:29.000Z</time>
        <extensions>
          <ns3:TrackPointExtension>
            <ns3:hr>133</ns3:hr>
            <ns3:cad>48</ns3:cad>
          </ns3:TrackPointExtension>
        </extensions>
      </trkpt>
      <trkpt lat="45.3134585358202457427978515625" lon="-71.0302502475678920745849609375">
        <ele>780.4000244140625</ele>
        <time>2026-08-21T21:33:30.000Z</time>
        <extensions>
          <ns3:TrackPointExtension>
            <ns3:hr>132</ns3:hr>
            <ns3:cad>48</ns3:cad>
          </ns3:TrackPointExtension>
        </extensions>
      </trkpt>
      <trkpt lat="45.31347270123660564422607421875" lon="-71.0302616469562053680419921875">
        <ele>780.5999755859375</ele>
        <time>2026-08-21T21:33:31.000Z</time>
        <extensions>
          <ns3:TrackPointExtension>
            <ns3:hr>132</ns3:hr>
            <ns3:cad>48</ns3:cad>
          </ns3:TrackPointExtension>
        </extensions>
      </trkpt>
      <trkpt lat="45.31348116695880889892578125" lon="-71.03026323951780796051025390625">
        <ele>780.79998779296875</ele>
        <time>2026-08-21T21:33:32.000Z</time>
        <extensions>
          <ns3:TrackPointExtension>
            <ns3:hr>132</ns3:hr>
            <ns3:cad>49</ns3:cad>
          </ns3:TrackPointExtension>
        </extensions>
      </trkpt>
      <trkpt lat="45.3134877048432826995849609375" lon="-71.03027363307774066925048828125">
        <ele>781.20001220703125</ele>
        <time>2026-08-21T21:33:33.000Z</time>
        <extensions>
          <ns3:TrackPointExtension>
            <ns3:hr>131</ns3:hr>
            <ns3:cad>49</ns3:cad>
          </ns3:TrackPointExtension>
        </extensions>
      </trkpt>
      <trkpt lat="45.3134910576045513153076171875" lon="-71.03028084151446819305419921875">
        <ele>781.4000244140625</ele>
        <time>2026-08-21T21:33:34.000Z</time>
        <extensions>
          <ns3:TrackPointExtension>
            <ns3:hr>131</ns3:hr>
            <ns3:cad>51</ns3:cad>
          </ns3:TrackPointExtension>
        </extensions>
      </trkpt>
      <trkpt lat="45.31350069679319858551025390625" lon="-71.030294336378574371337890625">
        <ele>781.5999755859375</ele>
        <time>2026-08-21T21:33:35.000Z</time>
        <extensions>
          <ns3:TrackPointExtension>
            <ns3:hr>130</ns3:hr>
            <ns3:cad>51</ns3:cad>
          </ns3:TrackPointExtension>
        </extensions>
      </trkpt>
      <trkpt lat="45.31350740231573581695556640625" lon="-71.030318476259708404541015625">
        <ele>781.5999755859375</ele>
        <time>2026-08-21T21:33:36.000Z</time>
        <extensions>
          <ns3:TrackPointExtension>
            <ns3:hr>129</ns3:hr>
            <ns3:cad>51</ns3:cad>
          </ns3:TrackPointExtension>
        </extensions>
      </trkpt>
      <trkpt lat="45.31351310200989246368408203125" lon="-71.03033063001930713653564453125">
        <ele>781.79998779296875</ele>
        <time>2026-08-21T21:33:37.000Z</time>
        <extensions>
          <ns3:TrackPointExtension>
            <ns3:hr>129</ns3:hr>
            <ns3:cad>50</ns3:cad>
          </ns3:TrackPointExtension>
        </extensions>
      </trkpt>
      <trkpt lat="45.31351846642792224884033203125" lon="-71.0303434543311595916748046875">
        <ele>782</ele>
        <time>2026-08-21T21:33:38.000Z</time>
        <extensions>
          <ns3:TrackPointExtension>
            <ns3:hr>128</ns3:hr>
            <ns3:cad>50</ns3:cad>
          </ns3:TrackPointExtension>
        </extensions>
      </trkpt>
      <trkpt lat="45.31352383084595203399658203125" lon="-71.0303605534136295318603515625">
        <ele>782</ele>
        <time>2026-08-21T21:33:39.000Z</time>
        <extensions>
          <ns3:TrackPointExtension>
            <ns3:hr>129</ns3:hr>
            <ns3:cad>49</ns3:cad>
          </ns3:TrackPointExtension>
        </extensions>
      </trkpt>
      <trkpt lat="45.3135302849113941192626953125" lon="-71.03037178516387939453125">
        <ele>782.20001220703125</ele>
        <time>2026-08-21T21:33:40.000Z</time>
        <extensions>
          <ns3:TrackPointExtension>
            <ns3:hr>129</ns3:hr>
            <ns3:cad>49</ns3:cad>
          </ns3:TrackPointExtension>
        </extensions>
      </trkpt>
      <trkpt lat="45.31353858299553394317626953125" lon="-71.030388884246349334716796875">
        <ele>782.20001220703125</ele>
        <time>2026-08-21T21:33:41.000Z</time>
        <extensions>
          <ns3:TrackPointExtension>
            <ns3:hr>130</ns3:hr>
            <ns3:cad>49</ns3:cad>
          </ns3:TrackPointExtension>
        </extensions>
      </trkpt>
      <trkpt lat="45.31354713253676891326904296875" lon="-71.03040522895753383636474609375">
        <ele>782.20001220703125</ele>
        <time>2026-08-21T21:33:42.000Z</time>
        <extensions>
          <ns3:TrackPointExtension>
            <ns3:hr>130</ns3:hr>
            <ns3:cad>49</ns3:cad>
          </ns3:TrackPointExtension>
        </extensions>
      </trkpt>
      <trkpt lat="45.31355534680187702178955078125" lon="-71.03041964583098888397216796875">
        <ele>782.20001220703125</ele>
        <time>2026-08-21T21:33:43.000Z</time>
        <extensions>
          <ns3:TrackPointExtension>
            <ns3:hr>130</ns3:hr>
            <ns3:cad>49</ns3:cad>
          </ns3:TrackPointExtension>
        </extensions>
      </trkpt>
      <trkpt lat="45.31356054358184337615966796875" lon="-71.0304423607885837554931640625">
        <ele>782.20001220703125</ele>
        <time>2026-08-21T21:33:44.000Z</time>
        <extensions>
          <ns3:TrackPointExtension>
            <ns3:hr>130</ns3:hr>
            <ns3:cad>50</ns3:cad>
          </ns3:TrackPointExtension>
        </extensions>
      </trkpt>
      <trkpt lat="45.3135661594569683074951171875" lon="-71.03046356700360774993896484375">
        <ele>782.4000244140625</ele>
        <time>2026-08-21T21:33:45.000Z</time>
        <extensions>
          <ns3:TrackPointExtension>
            <ns3:hr>130</ns3:hr>
            <ns3:cad>52</ns3:cad>
          </ns3:TrackPointExtension>
        </extensions>
      </trkpt>
      <trkpt lat="45.31357579864561557769775390625" lon="-71.0304768942296504974365234375">
        <ele>782.4000244140625</ele>
        <time>2026-08-21T21:33:46.000Z</time>
        <extensions>
          <ns3:TrackPointExtension>
            <ns3:hr>129</ns3:hr>
            <ns3:cad>52</ns3:cad>
          </ns3:TrackPointExtension>
        </extensions>
      </trkpt>
      <trkpt lat="45.31358820386230945587158203125" lon="-71.03049826808273792266845703125">
        <ele>782.4000244140625</ele>
        <time>2026-08-21T21:33:47.000Z</time>
        <extensions>
          <ns3:TrackPointExtension>
            <ns3:hr>129</ns3:hr>
            <ns3:cad>53</ns3:cad>
          </ns3:TrackPointExtension>
        </extensions>
      </trkpt>
      <trkpt lat="45.31360010616481304168701171875" lon="-71.030510924756526947021484375">
        <ele>782.4000244140625</ele>
        <time>2026-08-21T21:33:48.000Z</time>
        <extensions>
          <ns3:TrackPointExtension>
            <ns3:hr>128</ns3:hr>
            <ns3:cad>53</ns3:cad>
          </ns3:TrackPointExtension>
        </extensions>
      </trkpt>
      <trkpt lat="45.3136100806295871734619140625" lon="-71.030518971383571624755859375">
        <ele>782.20001220703125</ele>
        <time>2026-08-21T21:33:49.000Z</time>
        <extensions>
          <ns3:TrackPointExtension>
            <ns3:hr>127</ns3:hr>
            <ns3:cad>53</ns3:cad>
          </ns3:TrackPointExtension>
        </extensions>
      </trkpt>
      <trkpt lat="45.3136208094656467437744140625" lon="-71.03052525781095027923583984375">
        <ele>782</ele>
        <time>2026-08-21T21:33:50.000Z</time>
        <extensions>
          <ns3:TrackPointExtension>
            <ns3:hr>126</ns3:hr>
            <ns3:cad>53</ns3:cad>
          </ns3:TrackPointExtension>
        </extensions>
      </trkpt>
      <trkpt lat="45.31363296322524547576904296875" lon="-71.03052458725869655609130859375">
        <ele>781.79998779296875</ele>
        <time>2026-08-21T21:33:51.000Z</time>
        <extensions>
          <ns3:TrackPointExtension>
            <ns3:hr>126</ns3:hr>
            <ns3:cad>53</ns3:cad>
          </ns3:TrackPointExtension>
        </extensions>
      </trkpt>
      <trkpt lat="45.31364888884127140045166015625" lon="-71.03052928112447261810302734375">
        <ele>781.5999755859375</ele>
        <time>2026-08-21T21:33:52.000Z</time>
        <extensions>
          <ns3:TrackPointExtension>
            <ns3:hr>125</ns3:hr>
            <ns3:cad>0</ns3:cad>
          </ns3:TrackPointExtension>
        </extensions>
      </trkpt>
      <trkpt lat="45.3136680833995342254638671875" lon="-71.030536405742168426513671875">
        <ele>781.20001220703125</ele>
        <time>2026-08-21T21:33:53.000Z</time>
        <extensions>
          <ns3:TrackPointExtension>
            <ns3:hr>127</ns3:hr>
            <ns3:cad>0</ns3:cad>
          </ns3:TrackPointExtension>
        </extensions>
      </trkpt>
      <trkpt lat="45.3136803209781646728515625" lon="-71.030544452369213104248046875">
        <ele>781</ele>
        <time>2026-08-21T21:33:54.000Z</time>
        <extensions>
          <ns3:TrackPointExtension>
            <ns3:hr>132</ns3:hr>
            <ns3:cad>0</ns3:cad>
          </ns3:TrackPointExtension>
        </extensions>
      </trkpt>
      <trkpt lat="45.31369834206998348236083984375" lon="-71.03055040352046489715576171875">
        <ele>780.79998779296875</ele>
        <time>2026-08-21T21:33:55.000Z</time>
        <extensions>
          <ns3:TrackPointExtension>
            <ns3:hr>132</ns3:hr>
            <ns3:cad>0</ns3:cad>
          </ns3:TrackPointExtension>
        </extensions>
      </trkpt>
      <trkpt lat="45.31371586024761199951171875" lon="-71.03055350482463836669921875">
        <ele>780.5999755859375</ele>
        <time>2026-08-21T21:33:56.000Z</time>
        <extensions>
          <ns3:TrackPointExtension>
            <ns3:hr>131</ns3:hr>
            <ns3:cad>0</ns3:cad>
          </ns3:TrackPointExtension>
        </extensions>
      </trkpt>
      <trkpt lat="45.3137213923037052154541015625" lon="-71.03055928833782672882080078125">
        <ele>780.4000244140625</ele>
        <time>2026-08-21T21:33:57.000Z</time>
        <extensions>
          <ns3:TrackPointExtension>
            <ns3:hr>131</ns3:hr>
            <ns3:cad>0</ns3:cad>
          </ns3:TrackPointExtension>
        </extensions>
      </trkpt>
      <trkpt lat="45.3137351386249065399169921875" lon="-71.03057052008807659149169921875">
        <ele>780.4000244140625</ele>
        <time>2026-08-21T21:33:58.000Z</time>
        <extensions>
          <ns3:TrackPointExtension>
            <ns3:hr>130</ns3:hr>
            <ns3:cad>0</ns3:cad>
          </ns3:TrackPointExtension>
        </extensions>
      </trkpt>
      <trkpt lat="45.31375248916447162628173828125" lon="-71.0305811651051044464111328125">
        <ele>780.20001220703125</ele>
        <time>2026-08-21T21:33:59.000Z</time>
        <extensions>
          <ns3:TrackPointExtension>
            <ns3:hr>130</ns3:hr>
            <ns3:cad>64</ns3:cad>
          </ns3:TrackPointExtension>
        </extensions>
      </trkpt>
      <trkpt lat="45.31376640312373638153076171875" lon="-71.03059600107371807098388671875">
        <ele>780</ele>
        <time>2026-08-21T21:34:00.000Z</time>
        <extensions>
          <ns3:TrackPointExtension>
            <ns3:hr>130</ns3:hr>
            <ns3:cad>64</ns3:cad>
          </ns3:TrackPointExtension>
        </extensions>
      </trkpt>
      <trkpt lat="45.31378249637782573699951171875" lon="-71.03060572408139705657958984375">
        <ele>779.79998779296875</ele>
        <time>2026-08-21T21:34:01.000Z</time>
        <extensions>
          <ns3:TrackPointExtension>
            <ns3:hr>129</ns3:hr>
            <ns3:cad>64</ns3:cad>
          </ns3:TrackPointExtension>
        </extensions>
      </trkpt>
      <trkpt lat="45.31379607506096363067626953125" lon="-71.030618883669376373291015625">
        <ele>779.5999755859375</ele>
        <time>2026-08-21T21:34:02.000Z</time>
        <extensions>
          <ns3:TrackPointExtension>
            <ns3:hr>129</ns3:hr>
            <ns3:cad>64</ns3:cad>
          </ns3:TrackPointExtension>
        </extensions>
      </trkpt>
      <trkpt lat="45.31381065957248210906982421875" lon="-71.0306338034570217132568359375">
        <ele>779.4000244140625</ele>
        <time>2026-08-21T21:34:03.000Z</time>
        <extensions>
          <ns3:TrackPointExtension>
            <ns3:hr>129</ns3:hr>
            <ns3:cad>64</ns3:cad>
          </ns3:TrackPointExtension>
        </extensions>
      </trkpt>
      <trkpt lat="45.3138226456940174102783203125" lon="-71.03064897470176219940185546875">
        <ele>779.4000244140625</ele>
        <time>2026-08-21T21:34:04.000Z</time>
        <extensions>
          <ns3:TrackPointExtension>
            <ns3:hr>128</ns3:hr>
            <ns3:cad>61</ns3:cad>
          </ns3:TrackPointExtension>
        </extensions>
      </trkpt>
      <trkpt lat="45.31383614055812358856201171875" lon="-71.0306599549949169158935546875">
        <ele>779.4000244140625</ele>
        <time>2026-08-21T21:34:05.000Z</time>
        <extensions>
          <ns3:TrackPointExtension>
            <ns3:hr>127</ns3:hr>
            <ns3:cad>61</ns3:cad>
          </ns3:TrackPointExtension>
        </extensions>
      </trkpt>
      <trkpt lat="45.3138518147170543670654296875" lon="-71.03067177347838878631591796875">
        <ele>779.4000244140625</ele>
        <time>2026-08-21T21:34:06.000Z</time>
        <extensions>
          <ns3:TrackPointExtension>
            <ns3:hr>127</ns3:hr>
            <ns3:cad>61</ns3:cad>
          </ns3:TrackPointExtension>
        </extensions>
      </trkpt>
      <trkpt lat="45.3138652257621288299560546875" lon="-71.030681245028972625732421875">
        <ele>779.4000244140625</ele>
        <time>2026-08-21T21:34:07.000Z</time>
        <extensions>
          <ns3:TrackPointExtension>
            <ns3:hr>126</ns3:hr>
            <ns3:cad>61</ns3:cad>
          </ns3:TrackPointExtension>
        </extensions>
      </trkpt>
      <trkpt lat="45.3138726018369197845458984375" lon="-71.03068417869508266448974609375">
        <ele>779.4000244140625</ele>
        <time>2026-08-21T21:34:08.000Z</time>
        <extensions>
          <ns3:TrackPointExtension>
            <ns3:hr>126</ns3:hr>
            <ns3:cad>59</ns3:cad>
          </ns3:TrackPointExtension>
        </extensions>
      </trkpt>
      <trkpt lat="45.3138715960085391998291015625" lon="-71.03066456504166126251220703125">
        <ele>779.4000244140625</ele>
        <time>2026-08-21T21:34:09.000Z</time>
        <extensions>
          <ns3:TrackPointExtension>
            <ns3:hr>125</ns3:hr>
            <ns3:cad>59</ns3:cad>
          </ns3:TrackPointExtension>
        </extensions>
      </trkpt>
      <trkpt lat="45.31386380083858966827392578125" lon="-71.030651070177555084228515625">
        <ele>779.4000244140625</ele>
        <time>2026-08-21T21:34:10.000Z</time>
        <extensions>
          <ns3:TrackPointExtension>
            <ns3:hr>124</ns3:hr>
            <ns3:cad>59</ns3:cad>
          </ns3:TrackPointExtension>
        </extensions>
      </trkpt>
      <trkpt lat="45.313848964869976043701171875" lon="-71.0306519083678722381591796875">
        <ele>779.4000244140625</ele>
        <time>2026-08-21T21:34:11.000Z</time>
        <extensions>
          <ns3:TrackPointExtension>
            <ns3:hr>123</ns3:hr>
            <ns3:cad>55</ns3:cad>
          </ns3:TrackPointExtension>
        </extensions>
      </trkpt>
      <trkpt lat="45.31383924186229705810546875" lon="-71.030658446252346038818359375">
        <ele>779.5999755859375</ele>
        <time>2026-08-21T21:34:12.000Z</time>
        <extensions>
          <ns3:TrackPointExtension>
            <ns3:hr>122</ns3:hr>
            <ns3:cad>55</ns3:cad>
          </ns3:TrackPointExtension>
        </extensions>
      </trkpt>
      <trkpt lat="45.31383764930069446563720703125" lon="-71.03067261166870594024658203125">
        <ele>779.5999755859375</ele>
        <time>2026-08-21T21:34:13.000Z</time>
        <extensions>
          <ns3:TrackPointExtension>
            <ns3:hr>121</ns3:hr>
            <ns3:cad>55</ns3:cad>
          </ns3:TrackPointExtension>
        </extensions>
      </trkpt>
      <trkpt lat="45.31383748166263103485107421875" lon="-71.0306884534657001495361328125">
        <ele>779.5999755859375</ele>
        <time>2026-08-21T21:34:14.000Z</time>
        <extensions>
          <ns3:TrackPointExtension>
            <ns3:hr>121</ns3:hr>
            <ns3:cad>55</ns3:cad>
          </ns3:TrackPointExtension>
        </extensions>
      </trkpt>
      <trkpt lat="45.3138343803584575653076171875" lon="-71.030708067119121551513671875">
        <ele>779.79998779296875</ele>
        <time>2026-08-21T21:34:15.000Z</time>
        <extensions>
          <ns3:TrackPointExtension>
            <ns3:hr>120</ns3:hr>
            <ns3:cad>55</ns3:cad>
          </ns3:TrackPointExtension>
        </extensions>
      </trkpt>
      <trkpt lat="45.3138305246829986572265625" lon="-71.03072248399257659912109375">
        <ele>779.79998779296875</ele>
        <time>2026-08-21T21:34:16.000Z</time>
        <extensions>
          <ns3:TrackPointExtension>
            <ns3:hr>119</ns3:hr>
            <ns3:cad>55</ns3:cad>
          </ns3:TrackPointExtension>
        </extensions>
      </trkpt>
      <trkpt lat="45.3138256631791591644287109375" lon="-71.0307384096086025238037109375">
        <ele>780</ele>
        <time>2026-08-21T21:34:17.000Z</time>
        <extensions>
          <ns3:TrackPointExtension>
            <ns3:hr>119</ns3:hr>
            <ns3:cad>55</ns3:cad>
          </ns3:TrackPointExtension>
        </extensions>
      </trkpt>
      <trkpt lat="45.31382717192173004150390625" lon="-71.03075123392045497894287109375">
        <ele>780</ele>
        <time>2026-08-21T21:34:18.000Z</time>
        <extensions>
          <ns3:TrackPointExtension>
            <ns3:hr>118</ns3:hr>
            <ns3:cad>53</ns3:cad>
          </ns3:TrackPointExtension>
        </extensions>
      </trkpt>
      <trkpt lat="45.313825495541095733642578125" lon="-71.0307803191244602203369140625">
        <ele>780.20001220703125</ele>
        <time>2026-08-21T21:34:19.000Z</time>
        <extensions>
          <ns3:TrackPointExtension>
            <ns3:hr>117</ns3:hr>
            <ns3:cad>53</ns3:cad>
          </ns3:TrackPointExtension>
        </extensions>
      </trkpt>
      <trkpt lat="45.3138233162462711334228515625" lon="-71.03079649619758129119873046875">
        <ele>780.20001220703125</ele>
        <time>2026-08-21T21:34:20.000Z</time>
        <extensions>
          <ns3:TrackPointExtension>
            <ns3:hr>117</ns3:hr>
            <ns3:cad>57</ns3:cad>
          </ns3:TrackPointExtension>
        </extensions>
      </trkpt>
      <trkpt lat="45.3138216398656368255615234375" lon="-71.03080906905233860015869140625">
        <ele>780.4000244140625</ele>
        <time>2026-08-21T21:34:21.000Z</time>
        <extensions>
          <ns3:TrackPointExtension>
            <ns3:hr>117</ns3:hr>
            <ns3:cad>57</ns3:cad>
          </ns3:TrackPointExtension>
        </extensions>
      </trkpt>
      <trkpt lat="45.3138239867985248565673828125" lon="-71.0308326222002506256103515625">
        <ele>780.5999755859375</ele>
        <time>2026-08-21T21:34:22.000Z</time>
        <extensions>
          <ns3:TrackPointExtension>
            <ns3:hr>118</ns3:hr>
            <ns3:cad>57</ns3:cad>
          </ns3:TrackPointExtension>
        </extensions>
      </trkpt>
      <trkpt lat="45.31382658518850803375244140625" lon="-71.0308510623872280120849609375">
        <ele>780.79998779296875</ele>
        <time>2026-08-21T21:34:23.000Z</time>
        <extensions>
          <ns3:TrackPointExtension>
            <ns3:hr>118</ns3:hr>
            <ns3:cad>57</ns3:cad>
          </ns3:TrackPointExtension>
        </extensions>
      </trkpt>
      <trkpt lat="45.31382583081722259521484375" lon="-71.03086707182228565216064453125">
        <ele>780.79998779296875</ele>
        <time>2026-08-21T21:34:24.000Z</time>
        <extensions>
          <ns3:TrackPointExtension>
            <ns3:hr>118</ns3:hr>
            <ns3:cad>57</ns3:cad>
          </ns3:TrackPointExtension>
        </extensions>
      </trkpt>
      <trkpt lat="45.31382457353174686431884765625" lon="-71.0308832488954067230224609375">
        <ele>781</ele>
        <time>2026-08-21T21:34:25.000Z</time>
        <extensions>
          <ns3:TrackPointExtension>
            <ns3:hr>118</ns3:hr>
            <ns3:cad>57</ns3:cad>
          </ns3:TrackPointExtension>
        </extensions>
      </trkpt>
      <trkpt lat="45.313822142779827117919921875" lon="-71.03090696968138217926025390625">
        <ele>781.20001220703125</ele>
        <time>2026-08-21T21:34:26.000Z</time>
        <extensions>
          <ns3:TrackPointExtension>
            <ns3:hr>119</ns3:hr>
            <ns3:cad>54</ns3:cad>
          </ns3:TrackPointExtension>
        </extensions>
      </trkpt>
      <trkpt lat="45.3138186223804950714111328125" lon="-71.03092708624899387359619140625">
        <ele>781.20001220703125</ele>
        <time>2026-08-21T21:34:27.000Z</time>
        <extensions>
          <ns3:TrackPointExtension>
            <ns3:hr>120</ns3:hr>
            <ns3:cad>54</ns3:cad>
          </ns3:TrackPointExtension>
        </extensions>
      </trkpt>
      <trkpt lat="45.3138082288205623626708984375" lon="-71.03094016201794147491455078125">
        <ele>781.4000244140625</ele>
        <time>2026-08-21T21:34:28.000Z</time>
        <extensions>
          <ns3:TrackPointExtension>
            <ns3:hr>121</ns3:hr>
            <ns3:cad>53</ns3:cad>
          </ns3:TrackPointExtension>
        </extensions>
      </trkpt>
      <trkpt lat="45.3137998469173908233642578125" lon="-71.030958183109760284423828125">
        <ele>781.4000244140625</ele>
        <time>2026-08-21T21:34:29.000Z</time>
        <extensions>
          <ns3:TrackPointExtension>
            <ns3:hr>121</ns3:hr>
            <ns3:cad>53</ns3:cad>
          </ns3:TrackPointExtension>
        </extensions>
      </trkpt>
      <trkpt lat="45.31379272229969501495361328125" lon="-71.0309720970690250396728515625">
        <ele>781.5999755859375</ele>
        <time>2026-08-21T21:34:30.000Z</time>
        <extensions>
          <ns3:TrackPointExtension>
            <ns3:hr>124</ns3:hr>
            <ns3:cad>54</ns3:cad>
          </ns3:TrackPointExtension>
        </extensions>
      </trkpt>
      <trkpt lat="45.31378266401588916778564453125" lon="-71.03098534047603607177734375">
        <ele>781.79998779296875</ele>
        <time>2026-08-21T21:34:31.000Z</time>
        <extensions>
          <ns3:TrackPointExtension>
            <ns3:hr>124</ns3:hr>
            <ns3:cad>53</ns3:cad>
          </ns3:TrackPointExtension>
        </extensions>
      </trkpt>
      <trkpt lat="45.31377159990370273590087890625" lon="-71.0309942252933979034423828125">
        <ele>781.79998779296875</ele>
        <time>2026-08-21T21:34:32.000Z</time>
        <extensions>
          <ns3:TrackPointExtension>
            <ns3:hr>124</ns3:hr>
            <ns3:cad>53</ns3:cad>
          </ns3:TrackPointExtension>
        </extensions>
      </trkpt>
      <trkpt lat="45.3137612901628017425537109375" lon="-71.03100352920591831207275390625">
        <ele>782</ele>
        <time>2026-08-21T21:34:33.000Z</time>
        <extensions>
          <ns3:TrackPointExtension>
            <ns3:hr>124</ns3:hr>
            <ns3:cad>53</ns3:cad>
          </ns3:TrackPointExtension>
        </extensions>
      </trkpt>
      <trkpt lat="45.3137488849461078643798828125" lon="-71.03101551532745361328125">
        <ele>782</ele>
        <time>2026-08-21T21:34:34.000Z</time>
        <extensions>
          <ns3:TrackPointExtension>
            <ns3:hr>124</ns3:hr>
            <ns3:cad>53</ns3:cad>
          </ns3:TrackPointExtension>
        </extensions>
      </trkpt>
      <trkpt lat="45.31374008394777774810791015625" lon="-71.03103102184832096099853515625">
        <ele>782.20001220703125</ele>
        <time>2026-08-21T21:34:35.000Z</time>
        <extensions>
          <ns3:TrackPointExtension>
            <ns3:hr>124</ns3:hr>
            <ns3:cad>53</ns3:cad>
          </ns3:TrackPointExtension>
        </extensions>
      </trkpt>
      <trkpt lat="45.31373321078717708587646484375" lon="-71.0310425050556659698486328125">
        <ele>782.20001220703125</ele>
        <time>2026-08-21T21:34:36.000Z</time>
        <extensions>
          <ns3:TrackPointExtension>
            <ns3:hr>124</ns3:hr>
            <ns3:cad>53</ns3:cad>
          </ns3:TrackPointExtension>
        </extensions>
      </trkpt>
      <trkpt lat="45.31372549943625926971435546875" lon="-71.0310544073581695556640625">
        <ele>782.4000244140625</ele>
        <time>2026-08-21T21:34:37.000Z</time>
        <extensions>
          <ns3:TrackPointExtension>
            <ns3:hr>124</ns3:hr>
            <ns3:cad>53</ns3:cad>
          </ns3:TrackPointExtension>
        </extensions>
      </trkpt>
      <trkpt lat="45.3137207217514514923095703125" lon="-71.03107008151710033416748046875">
        <ele>782.4000244140625</ele>
        <time>2026-08-21T21:34:38.000Z</time>
        <extensions>
          <ns3:TrackPointExtension>
            <ns3:hr>125</ns3:hr>
            <ns3:cad>55</ns3:cad>
          </ns3:TrackPointExtension>
        </extensions>
      </trkpt>
      <trkpt lat="45.31371292658150196075439453125" lon="-71.03109103627502918243408203125">
        <ele>782.5999755859375</ele>
        <time>2026-08-21T21:34:39.000Z</time>
        <extensions>
          <ns3:TrackPointExtension>
            <ns3:hr>125</ns3:hr>
            <ns3:cad>55</ns3:cad>
          </ns3:TrackPointExtension>
        </extensions>
      </trkpt>
      <trkpt lat="45.31370789743959903717041015625" lon="-71.03110528551042079925537109375">
        <ele>782.79998779296875</ele>
        <time>2026-08-21T21:34:40.000Z</time>
        <extensions>
          <ns3:TrackPointExtension>
            <ns3:hr>125</ns3:hr>
            <ns3:cad>55</ns3:cad>
          </ns3:TrackPointExtension>
        </extensions>
      </trkpt>
      <trkpt lat="45.313700772821903228759765625" lon="-71.03112121112644672393798828125">
        <ele>783</ele>
        <time>2026-08-21T21:34:41.000Z</time>
        <extensions>
          <ns3:TrackPointExtension>
            <ns3:hr>124</ns3:hr>
            <ns3:cad>55</ns3:cad>
          </ns3:TrackPointExtension>
        </extensions>
      </trkpt>
      <trkpt lat="45.31369465403258800506591796875" lon="-71.03113898076117038726806640625">
        <ele>783.20001220703125</ele>
        <time>2026-08-21T21:34:42.000Z</time>
        <extensions>
          <ns3:TrackPointExtension>
            <ns3:hr>125</ns3:hr>
            <ns3:cad>55</ns3:cad>
          </ns3:TrackPointExtension>
        </extensions>
      </trkpt>
      <trkpt lat="45.31368794851005077362060546875" lon="-71.03115507401525974273681640625">
        <ele>783.4000244140625</ele>
        <time>2026-08-21T21:34:43.000Z</time>
        <extensions>
          <ns3:TrackPointExtension>
            <ns3:hr>125</ns3:hr>
            <ns3:cad>55</ns3:cad>
          </ns3:TrackPointExtension>
        </extensions>
      </trkpt>
      <trkpt lat="45.31367755495011806488037109375" lon="-71.03116831742227077484130859375">
        <ele>783.4000244140625</ele>
        <time>2026-08-21T21:34:44.000Z</time>
        <extensions>
          <ns3:TrackPointExtension>
            <ns3:hr>126</ns3:hr>
            <ns3:cad>55</ns3:cad>
          </ns3:TrackPointExtension>
        </extensions>
      </trkpt>
      <trkpt lat="45.313668586313724517822265625" lon="-71.03117384947836399078369140625">
        <ele>783.5999755859375</ele>
        <time>2026-08-21T21:34:45.000Z</time>
        <extensions>
          <ns3:TrackPointExtension>
            <ns3:hr>126</ns3:hr>
            <ns3:cad>54</ns3:cad>
          </ns3:TrackPointExtension>
        </extensions>
      </trkpt>
      <trkpt lat="45.313652493059635162353515625" lon="-71.0311792977154254913330078125">
        <ele>783.79998779296875</ele>
        <time>2026-08-21T21:34:46.000Z</time>
        <extensions>
          <ns3:TrackPointExtension>
            <ns3:hr>127</ns3:hr>
            <ns3:cad>54</ns3:cad>
          </ns3:TrackPointExtension>
        </extensions>
      </trkpt>
      <trkpt lat="45.313647128641605377197265625" lon="-71.03119321167469024658203125">
        <ele>783.79998779296875</ele>
        <time>2026-08-21T21:34:47.000Z</time>
        <extensions>
          <ns3:TrackPointExtension>
            <ns3:hr>128</ns3:hr>
            <ns3:cad>54</ns3:cad>
          </ns3:TrackPointExtension>
        </extensions>
      </trkpt>
      <trkpt lat="45.31364100985229015350341796875" lon="-71.03120989166200160980224609375">
        <ele>784</ele>
        <time>2026-08-21T21:34:48.000Z</time>
        <extensions>
          <ns3:TrackPointExtension>
            <ns3:hr>128</ns3:hr>
            <ns3:cad>54</ns3:cad>
          </ns3:TrackPointExtension>
        </extensions>
      </trkpt>
      <trkpt lat="45.313635058701038360595703125" lon="-71.03122145868837833404541015625">
        <ele>784.20001220703125</ele>
        <time>2026-08-21T21:34:49.000Z</time>
        <extensions>
          <ns3:TrackPointExtension>
            <ns3:hr>129</ns3:hr>
            <ns3:cad>54</ns3:cad>
          </ns3:TrackPointExtension>
        </extensions>
      </trkpt>
      <trkpt lat="45.31362466514110565185546875" lon="-71.031225062906742095947265625">
        <ele>784.5999755859375</ele>
        <time>2026-08-21T21:34:50.000Z</time>
        <extensions>
          <ns3:TrackPointExtension>
            <ns3:hr>129</ns3:hr>
            <ns3:cad>54</ns3:cad>
          </ns3:TrackPointExtension>
        </extensions>
      </trkpt>
      <trkpt lat="45.31361402012407779693603515625" lon="-71.03122782893478870391845703125">
        <ele>784.5999755859375</ele>
        <time>2026-08-21T21:34:51.000Z</time>
        <extensions>
          <ns3:TrackPointExtension>
            <ns3:hr>129</ns3:hr>
            <ns3:cad>54</ns3:cad>
          </ns3:TrackPointExtension>
        </extensions>
      </trkpt>
      <trkpt lat="45.313602872192859649658203125" lon="-71.0312326066195964813232421875">
        <ele>784.79998779296875</ele>
        <time>2026-08-21T21:34:52.000Z</time>
        <extensions>
          <ns3:TrackPointExtension>
            <ns3:hr>129</ns3:hr>
            <ns3:cad>53</ns3:cad>
          </ns3:TrackPointExtension>
        </extensions>
      </trkpt>
      <trkpt lat="45.31359021551907062530517578125" lon="-71.0312366299331188201904296875">
        <ele>785.20001220703125</ele>
        <time>2026-08-21T21:34:53.000Z</time>
        <extensions>
          <ns3:TrackPointExtension>
            <ns3:hr>129</ns3:hr>
            <ns3:cad>53</ns3:cad>
          </ns3:TrackPointExtension>
        </extensions>
      </trkpt>
      <trkpt lat="45.3135809116065502166748046875" lon="-71.031235791742801666259765625">
        <ele>785.4000244140625</ele>
        <time>2026-08-21T21:34:54.000Z</time>
        <extensions>
          <ns3:TrackPointExtension>
            <ns3:hr>129</ns3:hr>
            <ns3:cad>48</ns3:cad>
          </ns3:TrackPointExtension>
        </extensions>
      </trkpt>
      <trkpt lat="45.31356859020888805389404296875" lon="-71.03124090470373630523681640625">
        <ele>785.4000244140625</ele>
        <time>2026-08-21T21:34:55.000Z</time>
        <extensions>
          <ns3:TrackPointExtension>
            <ns3:hr>129</ns3:hr>
            <ns3:cad>48</ns3:cad>
          </ns3:TrackPointExtension>
        </extensions>
      </trkpt>
      <trkpt lat="45.31355853192508220672607421875" lon="-71.03124861605465412139892578125">
        <ele>785.79998779296875</ele>
        <time>2026-08-21T21:34:56.000Z</time>
        <extensions>
          <ns3:TrackPointExtension>
            <ns3:hr>129</ns3:hr>
            <ns3:cad>48</ns3:cad>
          </ns3:TrackPointExtension>
        </extensions>
      </trkpt>
      <trkpt lat="45.31354763545095920562744140625" lon="-71.03125356137752532958984375">
        <ele>786</ele>
        <time>2026-08-21T21:34:57.000Z</time>
        <extensions>
          <ns3:TrackPointExtension>
            <ns3:hr>128</ns3:hr>
            <ns3:cad>48</ns3:cad>
          </ns3:TrackPointExtension>
        </extensions>
      </trkpt>
      <trkpt lat="45.31353791244328022003173828125" lon="-71.03126068599522113800048828125">
        <ele>786.20001220703125</ele>
        <time>2026-08-21T21:34:58.000Z</time>
        <extensions>
          <ns3:TrackPointExtension>
            <ns3:hr>129</ns3:hr>
            <ns3:cad>48</ns3:cad>
          </ns3:TrackPointExtension>
        </extensions>
      </trkpt>
      <trkpt lat="45.3135265968739986419677734375" lon="-71.03127610869705677032470703125">
        <ele>786.20001220703125</ele>
        <time>2026-08-21T21:34:59.000Z</time>
        <extensions>
          <ns3:TrackPointExtension>
            <ns3:hr>129</ns3:hr>
            <ns3:cad>41</ns3:cad>
          </ns3:TrackPointExtension>
        </extensions>
      </trkpt>
      <trkpt lat="45.31352031044661998748779296875" lon="-71.0312963090837001800537109375">
        <ele>786.4000244140625</ele>
        <time>2026-08-21T21:35:00.000Z</time>
        <extensions>
          <ns3:TrackPointExtension>
            <ns3:hr>129</ns3:hr>
            <ns3:cad>41</ns3:cad>
          </ns3:TrackPointExtension>
        </extensions>
      </trkpt>
      <trkpt lat="45.3135148622095584869384765625" lon="-71.03131181560456752777099609375">
        <ele>786.5999755859375</ele>
        <time>2026-08-21T21:35:01.000Z</time>
        <extensions>
          <ns3:TrackPointExtension>
            <ns3:hr>130</ns3:hr>
            <ns3:cad>41</ns3:cad>
          </ns3:TrackPointExtension>
        </extensions>
      </trkpt>
      <trkpt lat="45.313511006534099578857421875" lon="-71.03131701238453388214111328125">
        <ele>786.5999755859375</ele>
        <time>2026-08-21T21:35:02.000Z</time>
        <extensions>
          <ns3:TrackPointExtension>
            <ns3:hr>131</ns3:hr>
            <ns3:cad>52</ns3:cad>
          </ns3:TrackPointExtension>
        </extensions>
      </trkpt>
      <trkpt lat="45.31350170262157917022705078125" lon="-71.0313320159912109375">
        <ele>786.79998779296875</ele>
        <time>2026-08-21T21:35:03.000Z</time>
        <extensions>
          <ns3:TrackPointExtension>
            <ns3:hr>132</ns3:hr>
            <ns3:cad>52</ns3:cad>
          </ns3:TrackPointExtension>
        </extensions>
      </trkpt>
      <trkpt lat="45.31348963268101215362548828125" lon="-71.03134199045598506927490234375">
        <ele>787</ele>
        <time>2026-08-21T21:35:04.000Z</time>
        <extensions>
          <ns3:TrackPointExtension>
            <ns3:hr>132</ns3:hr>
            <ns3:cad>52</ns3:cad>
          </ns3:TrackPointExtension>
        </extensions>
      </trkpt>
      <trkpt lat="45.31347722746431827545166015625" lon="-71.03135271929204463958740234375">
        <ele>787.20001220703125</ele>
        <time>2026-08-21T21:35:05.000Z</time>
        <extensions>
          <ns3:TrackPointExtension>
            <ns3:hr>132</ns3:hr>
            <ns3:cad>50</ns3:cad>
          </ns3:TrackPointExtension>
        </extensions>
      </trkpt>
      <trkpt lat="45.3134729526937007904052734375" lon="-71.0313663817942142486572265625">
        <ele>787.4000244140625</ele>
        <time>2026-08-21T21:35:06.000Z</time>
        <extensions>
          <ns3:TrackPointExtension>
            <ns3:hr>133</ns3:hr>
            <ns3:cad>0</ns3:cad>
          </ns3:TrackPointExtension>
        </extensions>
      </trkpt>
      <trkpt lat="45.31346582807600498199462890625" lon="-71.03137694299221038818359375">
        <ele>787.5999755859375</ele>
        <time>2026-08-21T21:35:07.000Z</time>
        <extensions>
          <ns3:TrackPointExtension>
            <ns3:hr>133</ns3:hr>
            <ns3:cad>0</ns3:cad>
          </ns3:TrackPointExtension>
        </extensions>
      </trkpt>
      <trkpt lat="45.31345711089670658111572265625" lon="-71.0313891805708408355712890625">
        <ele>787.5999755859375</ele>
        <time>2026-08-21T21:35:08.000Z</time>
        <extensions>
          <ns3:TrackPointExtension>
            <ns3:hr>134</ns3:hr>
            <ns3:cad>0</ns3:cad>
          </ns3:TrackPointExtension>
        </extensions>
      </trkpt>
      <trkpt lat="45.3134481422603130340576171875" lon="-71.03140485472977161407470703125">
        <ele>787.79998779296875</ele>
        <time>2026-08-21T21:35:09.000Z</time>
        <extensions>
          <ns3:TrackPointExtension>
            <ns3:hr>134</ns3:hr>
            <ns3:cad>49</ns3:cad>
          </ns3:TrackPointExtension>
        </extensions>
      </trkpt>
      <trkpt lat="45.31344017945230007171630859375" lon="-71.03141809813678264617919921875">
        <ele>787.79998779296875</ele>
        <time>2026-08-21T21:35:10.000Z</time>
        <extensions>
          <ns3:TrackPointExtension>
            <ns3:hr>134</ns3:hr>
            <ns3:cad>49</ns3:cad>
          </ns3:TrackPointExtension>
        </extensions>
      </trkpt>
      <trkpt lat="45.3134362399578094482421875" lon="-71.03143519721925258636474609375">
        <ele>788</ele>
        <time>2026-08-21T21:35:11.000Z</time>
        <extensions>
          <ns3:TrackPointExtension>
            <ns3:hr>135</ns3:hr>
            <ns3:cad>48</ns3:cad>
          </ns3:TrackPointExtension>
        </extensions>
      </trkpt>
      <trkpt lat="45.313433222472667694091796875" lon="-71.0314478538930416107177734375">
        <ele>788.20001220703125</ele>
        <time>2026-08-21T21:35:12.000Z</time>
        <extensions>
          <ns3:TrackPointExtension>
            <ns3:hr>136</ns3:hr>
            <ns3:cad>48</ns3:cad>
          </ns3:TrackPointExtension>
        </extensions>
      </trkpt>
      <trkpt lat="45.31342626549303531646728515625" lon="-71.0314552299678325653076171875">
        <ele>788.20001220703125</ele>
        <time>2026-08-21T21:35:13.000Z</time>
        <extensions>
          <ns3:TrackPointExtension>
            <ns3:hr>136</ns3:hr>
            <ns3:cad>48</ns3:cad>
          </ns3:TrackPointExtension>
        </extensions>
      </trkpt>
      <trkpt lat="45.3134193085134029388427734375" lon="-71.03146277368068695068359375">
        <ele>788.4000244140625</ele>
        <time>2026-08-21T21:35:14.000Z</time>
        <extensions>
          <ns3:TrackPointExtension>
            <ns3:hr>136</ns3:hr>
            <ns3:cad>48</ns3:cad>
          </ns3:TrackPointExtension>
        </extensions>
      </trkpt>
      <trkpt lat="45.3134115971624851226806640625" lon="-71.0314770229160785675048828125">
        <ele>788.4000244140625</ele>
        <time>2026-08-21T21:35:15.000Z</time>
        <extensions>
          <ns3:TrackPointExtension>
            <ns3:hr>136</ns3:hr>
            <ns3:cad>48</ns3:cad>
          </ns3:TrackPointExtension>
        </extensions>
      </trkpt>
      <trkpt lat="45.313404388725757598876953125" lon="-71.03148716501891613006591796875">
        <ele>788.5999755859375</ele>
        <time>2026-08-21T21:35:16.000Z</time>
        <extensions>
          <ns3:TrackPointExtension>
            <ns3:hr>136</ns3:hr>
            <ns3:cad>51</ns3:cad>
          </ns3:TrackPointExtension>
        </extensions>
      </trkpt>
      <trkpt lat="45.31340044923126697540283203125" lon="-71.03149772621691226959228515625">
        <ele>788.79998779296875</ele>
        <time>2026-08-21T21:35:17.000Z</time>
        <extensions>
          <ns3:TrackPointExtension>
            <ns3:hr>136</ns3:hr>
            <ns3:cad>51</ns3:cad>
          </ns3:TrackPointExtension>
        </extensions>
      </trkpt>
      <trkpt lat="45.31339525245130062103271484375" lon="-71.03150912560522556304931640625">
        <ele>789</ele>
        <time>2026-08-21T21:35:18.000Z</time>
        <extensions>
          <ns3:TrackPointExtension>
            <ns3:hr>136</ns3:hr>
            <ns3:cad>51</ns3:cad>
          </ns3:TrackPointExtension>
        </extensions>
      </trkpt>
      <trkpt lat="45.3133871220052242279052734375" lon="-71.031516082584857940673828125">
        <ele>789.20001220703125</ele>
        <time>2026-08-21T21:35:19.000Z</time>
        <extensions>
          <ns3:TrackPointExtension>
            <ns3:hr>136</ns3:hr>
            <ns3:cad>50</ns3:cad>
          </ns3:TrackPointExtension>
        </extensions>
      </trkpt>
      <trkpt lat="45.31336993910372257232666015625" lon="-71.03152002207934856414794921875">
        <ele>789.4000244140625</ele>
        <time>2026-08-21T21:35:20.000Z</time>
        <extensions>
          <ns3:TrackPointExtension>
            <ns3:hr>136</ns3:hr>
            <ns3:cad>50</ns3:cad>
          </ns3:TrackPointExtension>
        </extensions>
      </trkpt>
      <trkpt lat="45.31335686333477497100830078125" lon="-71.0315242968499660491943359375">
        <ele>789.4000244140625</ele>
        <time>2026-08-21T21:35:21.000Z</time>
        <extensions>
          <ns3:TrackPointExtension>
            <ns3:hr>137</ns3:hr>
            <ns3:cad>50</ns3:cad>
          </ns3:TrackPointExtension>
        </extensions>
      </trkpt>
      <trkpt lat="45.3133458830416202545166015625" lon="-71.03153192438185214996337890625">
        <ele>789.5999755859375</ele>
        <time>2026-08-21T21:35:22.000Z</time>
        <extensions>
          <ns3:TrackPointExtension>
            <ns3:hr>136</ns3:hr>
            <ns3:cad>50</ns3:cad>
          </ns3:TrackPointExtension>
        </extensions>
      </trkpt>
      <trkpt lat="45.31334102153778076171875" lon="-71.0315454192459583282470703125">
        <ele>789.79998779296875</ele>
        <time>2026-08-21T21:35:23.000Z</time>
        <extensions>
          <ns3:TrackPointExtension>
            <ns3:hr>136</ns3:hr>
            <ns3:cad>50</ns3:cad>
          </ns3:TrackPointExtension>
        </extensions>
      </trkpt>
      <trkpt lat="45.31334311701357364654541015625" lon="-71.03156729601323604583740234375">
        <ele>790</ele>
        <time>2026-08-21T21:35:24.000Z</time>
        <extensions>
          <ns3:TrackPointExtension>
            <ns3:hr>136</ns3:hr>
            <ns3:cad>50</ns3:cad>
          </ns3:TrackPointExtension>
        </extensions>
      </trkpt>
      <trkpt lat="45.31334160827100276947021484375" lon="-71.03158414363861083984375">
        <ele>790</ele>
        <time>2026-08-21T21:35:25.000Z</time>
        <extensions>
          <ns3:TrackPointExtension>
            <ns3:hr>137</ns3:hr>
            <ns3:cad>50</ns3:cad>
          </ns3:TrackPointExtension>
        </extensions>
      </trkpt>
      <trkpt lat="45.3133411891758441925048828125" lon="-71.03159897960722446441650390625">
        <ele>790</ele>
        <time>2026-08-21T21:35:26.000Z</time>
        <extensions>
          <ns3:TrackPointExtension>
            <ns3:hr>137</ns3:hr>
            <ns3:cad>50</ns3:cad>
          </ns3:TrackPointExtension>
        </extensions>
      </trkpt>
      <trkpt lat="45.313332639634609222412109375" lon="-71.0316185094416141510009765625">
        <ele>790.20001220703125</ele>
        <time>2026-08-21T21:35:27.000Z</time>
        <extensions>
          <ns3:TrackPointExtension>
            <ns3:hr>138</ns3:hr>
            <ns3:cad>50</ns3:cad>
          </ns3:TrackPointExtension>
        </extensions>
      </trkpt>
      <trkpt lat="45.31332199461758136749267578125" lon="-71.0316349379718303680419921875">
        <ele>790.20001220703125</ele>
        <time>2026-08-21T21:35:28.000Z</time>
        <extensions>
          <ns3:TrackPointExtension>
            <ns3:hr>138</ns3:hr>
            <ns3:cad>49</ns3:cad>
          </ns3:TrackPointExtension>
        </extensions>
      </trkpt>
      <trkpt lat="45.31331612728536128997802734375" lon="-71.0316533781588077545166015625">
        <ele>790.4000244140625</ele>
        <time>2026-08-21T21:35:29.000Z</time>
        <extensions>
          <ns3:TrackPointExtension>
            <ns3:hr>138</ns3:hr>
            <ns3:cad>49</ns3:cad>
          </ns3:TrackPointExtension>
        </extensions>
      </trkpt>
      <trkpt lat="45.31331621110439300537109375" lon="-71.03166997432708740234375">
        <ele>790.4000244140625</ele>
        <time>2026-08-21T21:35:30.000Z</time>
        <extensions>
          <ns3:TrackPointExtension>
            <ns3:hr>138</ns3:hr>
            <ns3:cad>49</ns3:cad>
          </ns3:TrackPointExtension>
        </extensions>
      </trkpt>
      <trkpt lat="45.31331352889537811279296875" lon="-71.031688749790191650390625">
        <ele>790.5999755859375</ele>
        <time>2026-08-21T21:35:31.000Z</time>
        <extensions>
          <ns3:TrackPointExtension>
            <ns3:hr>138</ns3:hr>
            <ns3:cad>49</ns3:cad>
          </ns3:TrackPointExtension>
        </extensions>
      </trkpt>
      <trkpt lat="45.3133079968392848968505859375" lon="-71.031699813902378082275390625">
        <ele>790.79998779296875</ele>
        <time>2026-08-21T21:35:32.000Z</time>
        <extensions>
          <ns3:TrackPointExtension>
            <ns3:hr>138</ns3:hr>
            <ns3:cad>49</ns3:cad>
          </ns3:TrackPointExtension>
        </extensions>
      </trkpt>
      <trkpt lat="45.3133029676973819732666015625" lon="-71.031713895499706268310546875">
        <ele>790.79998779296875</ele>
        <time>2026-08-21T21:35:33.000Z</time>
        <extensions>
          <ns3:TrackPointExtension>
            <ns3:hr>138</ns3:hr>
            <ns3:cad>49</ns3:cad>
          </ns3:TrackPointExtension>
        </extensions>
      </trkpt>
      <trkpt lat="45.31329768709838390350341796875" lon="-71.031727306544780731201171875">
        <ele>791</ele>
        <time>2026-08-21T21:35:34.000Z</time>
        <extensions>
          <ns3:TrackPointExtension>
            <ns3:hr>138</ns3:hr>
            <ns3:cad>50</ns3:cad>
          </ns3:TrackPointExtension>
        </extensions>
      </trkpt>
      <trkpt lat="45.31329366378486156463623046875" lon="-71.031736694276332855224609375">
        <ele>791</ele>
        <time>2026-08-21T21:35:35.000Z</time>
        <extensions>
          <ns3:TrackPointExtension>
            <ns3:hr>138</ns3:hr>
            <ns3:cad>50</ns3:cad>
          </ns3:TrackPointExtension>
        </extensions>
      </trkpt>
      <trkpt lat="45.31328511424362659454345703125" lon="-71.0317490994930267333984375">
        <ele>791.20001220703125</ele>
        <time>2026-08-21T21:35:36.000Z</time>
        <extensions>
          <ns3:TrackPointExtension>
            <ns3:hr>138</ns3:hr>
            <ns3:cad>50</ns3:cad>
          </ns3:TrackPointExtension>
        </extensions>
      </trkpt>
      <trkpt lat="45.313276983797550201416015625" lon="-71.031761504709720611572265625">
        <ele>791.4000244140625</ele>
        <time>2026-08-21T21:35:37.000Z</time>
        <extensions>
          <ns3:TrackPointExtension>
            <ns3:hr>138</ns3:hr>
            <ns3:cad>50</ns3:cad>
          </ns3:TrackPointExtension>
        </extensions>
      </trkpt>
      <trkpt lat="45.31326835043728351593017578125" lon="-71.031770221889019012451171875">
        <ele>791.5999755859375</ele>
        <time>2026-08-21T21:35:38.000Z</time>
        <extensions>
          <ns3:TrackPointExtension>
            <ns3:hr>139</ns3:hr>
            <ns3:cad>0</ns3:cad>
          </ns3:TrackPointExtension>
        </extensions>
      </trkpt>
      <trkpt lat="45.3132613934576511383056640625" lon="-71.03177734650671482086181640625">
        <ele>791.79998779296875</ele>
        <time>2026-08-21T21:35:39.000Z</time>
        <extensions>
          <ns3:TrackPointExtension>
            <ns3:hr>138</ns3:hr>
            <ns3:cad>0</ns3:cad>
          </ns3:TrackPointExtension>
        </extensions>
      </trkpt>
      <trkpt lat="45.31325376592576503753662109375" lon="-71.03178354911506175994873046875">
        <ele>792</ele>
        <time>2026-08-21T21:35:40.000Z</time>
        <extensions>
          <ns3:TrackPointExtension>
            <ns3:hr>138</ns3:hr>
            <ns3:cad>0</ns3:cad>
          </ns3:TrackPointExtension>
        </extensions>
      </trkpt>
      <trkpt lat="45.31325049698352813720703125" lon="-71.0317965410649776458740234375">
        <ele>792.20001220703125</ele>
        <time>2026-08-21T21:35:41.000Z</time>
        <extensions>
          <ns3:TrackPointExtension>
            <ns3:hr>138</ns3:hr>
            <ns3:cad>50</ns3:cad>
          </ns3:TrackPointExtension>
        </extensions>
      </trkpt>
      <trkpt lat="45.313247144222259521484375" lon="-71.03181221522390842437744140625">
        <ele>792.20001220703125</ele>
        <time>2026-08-21T21:35:42.000Z</time>
        <extensions>
          <ns3:TrackPointExtension>
            <ns3:hr>138</ns3:hr>
            <ns3:cad>50</ns3:cad>
          </ns3:TrackPointExtension>
        </extensions>
      </trkpt>
      <trkpt lat="45.31324186362326145172119140625" lon="-71.0318280570209026336669921875">
        <ele>792.4000244140625</ele>
        <time>2026-08-21T21:35:43.000Z</time>
        <extensions>
          <ns3:TrackPointExtension>
            <ns3:hr>138</ns3:hr>
            <ns3:cad>49</ns3:cad>
          </ns3:TrackPointExtension>
        </extensions>
      </trkpt>
      <trkpt lat="45.31323482282459735870361328125" lon="-71.03183694183826446533203125">
        <ele>792.4000244140625</ele>
        <time>2026-08-21T21:35:44.000Z</time>
        <extensions>
          <ns3:TrackPointExtension>
            <ns3:hr>138</ns3:hr>
            <ns3:cad>49</ns3:cad>
          </ns3:TrackPointExtension>
        </extensions>
      </trkpt>
      <trkpt lat="45.31322442926466464996337890625" lon="-71.03184708394110202789306640625">
        <ele>792.4000244140625</ele>
        <time>2026-08-21T21:35:45.000Z</time>
        <extensions>
          <ns3:TrackPointExtension>
            <ns3:hr>138</ns3:hr>
            <ns3:cad>49</ns3:cad>
          </ns3:TrackPointExtension>
        </extensions>
      </trkpt>
      <trkpt lat="45.31321562826633453369140625" lon="-71.03185144253075122833251953125">
        <ele>792.4000244140625</ele>
        <time>2026-08-21T21:35:46.000Z</time>
        <extensions>
          <ns3:TrackPointExtension>
            <ns3:hr>138</ns3:hr>
            <ns3:cad>49</ns3:cad>
          </ns3:TrackPointExtension>
        </extensions>
      </trkpt>
      <trkpt lat="45.313205905258655548095703125" lon="-71.03185571730136871337890625">
        <ele>792.5999755859375</ele>
        <time>2026-08-21T21:35:47.000Z</time>
        <extensions>
          <ns3:TrackPointExtension>
            <ns3:hr>138</ns3:hr>
            <ns3:cad>49</ns3:cad>
          </ns3:TrackPointExtension>
        </extensions>
      </trkpt>
      <trkpt lat="45.31320012174546718597412109375" lon="-71.031858064234256744384765625">
        <ele>792.79998779296875</ele>
        <time>2026-08-21T21:35:48.000Z</time>
        <extensions>
          <ns3:TrackPointExtension>
            <ns3:hr>137</ns3:hr>
            <ns3:cad>50</ns3:cad>
          </ns3:TrackPointExtension>
        </extensions>
      </trkpt>
      <trkpt lat="45.3131866268813610076904296875" lon="-71.0318590700626373291015625">
        <ele>793</ele>
        <time>2026-08-21T21:35:49.000Z</time>
        <extensions>
          <ns3:TrackPointExtension>
            <ns3:hr>136</ns3:hr>
            <ns3:cad>50</ns3:cad>
          </ns3:TrackPointExtension>
        </extensions>
      </trkpt>
      <trkpt lat="45.31317832879722118377685546875" lon="-71.03186384774744510650634765625">
        <ele>793.20001220703125</ele>
        <time>2026-08-21T21:35:50.000Z</time>
        <extensions>
          <ns3:TrackPointExtension>
            <ns3:hr>136</ns3:hr>
            <ns3:cad>50</ns3:cad>
          </ns3:TrackPointExtension>
        </extensions>
      </trkpt>
      <trkpt lat="45.3131712041795253753662109375" lon="-71.03186820633709430694580078125">
        <ele>793.4000244140625</ele>
        <time>2026-08-21T21:35:51.000Z</time>
        <extensions>
          <ns3:TrackPointExtension>
            <ns3:hr>136</ns3:hr>
            <ns3:cad>50</ns3:cad>
          </ns3:TrackPointExtension>
        </extensions>
      </trkpt>
      <trkpt lat="45.3131634928286075592041015625" lon="-71.031870804727077484130859375">
        <ele>793.5999755859375</ele>
        <time>2026-08-21T21:35:52.000Z</time>
        <extensions>
          <ns3:TrackPointExtension>
            <ns3:hr>136</ns3:hr>
            <ns3:cad>50</ns3:cad>
          </ns3:TrackPointExtension>
        </extensions>
      </trkpt>
      <trkpt lat="45.3131530992686748504638671875" lon="-71.03187340311706066131591796875">
        <ele>793.79998779296875</ele>
        <time>2026-08-21T21:35:53.000Z</time>
        <extensions>
          <ns3:TrackPointExtension>
            <ns3:hr>136</ns3:hr>
            <ns3:cad>0</ns3:cad>
          </ns3:TrackPointExtension>
        </extensions>
      </trkpt>
      <trkpt lat="45.3131440468132495880126953125" lon="-71.0318719781935214996337890625">
        <ele>794</ele>
        <time>2026-08-21T21:35:54.000Z</time>
        <extensions>
          <ns3:TrackPointExtension>
            <ns3:hr>136</ns3:hr>
            <ns3:cad>0</ns3:cad>
          </ns3:TrackPointExtension>
        </extensions>
      </trkpt>
      <trkpt lat="45.31313658691942691802978515625" lon="-71.03187675587832927703857421875">
        <ele>794.20001220703125</ele>
        <time>2026-08-21T21:35:55.000Z</time>
        <extensions>
          <ns3:TrackPointExtension>
            <ns3:hr>135</ns3:hr>
            <ns3:cad>0</ns3:cad>
          </ns3:TrackPointExtension>
        </extensions>
      </trkpt>
      <trkpt lat="45.31312770210206508636474609375" lon="-71.03187910281121730804443359375">
        <ele>794.4000244140625</ele>
        <time>2026-08-21T21:35:56.000Z</time>
        <extensions>
          <ns3:TrackPointExtension>
            <ns3:hr>135</ns3:hr>
            <ns3:cad>0</ns3:cad>
          </ns3:TrackPointExtension>
        </extensions>
      </trkpt>
      <trkpt lat="45.313124768435955047607421875" lon="-71.03187759406864643096923828125">
        <ele>794.5999755859375</ele>
        <time>2026-08-21T21:35:57.000Z</time>
        <extensions>
          <ns3:TrackPointExtension>
            <ns3:hr>135</ns3:hr>
            <ns3:cad>0</ns3:cad>
          </ns3:TrackPointExtension>
        </extensions>
      </trkpt>
      <trkpt lat="45.31311613507568836212158203125" lon="-71.0318773426115512847900390625">
        <ele>794.79998779296875</ele>
        <time>2026-08-21T21:35:58.000Z</time>
        <extensions>
          <ns3:TrackPointExtension>
            <ns3:hr>134</ns3:hr>
            <ns3:cad>0</ns3:cad>
          </ns3:TrackPointExtension>
        </extensions>
      </trkpt>
      <trkpt lat="45.31310565769672393798828125" lon="-71.03188631124794483184814453125">
        <ele>795</ele>
        <time>2026-08-21T21:35:59.000Z</time>
        <extensions>
          <ns3:TrackPointExtension>
            <ns3:hr>134</ns3:hr>
            <ns3:cad>0</ns3:cad>
          </ns3:TrackPointExtension>
        </extensions>
      </trkpt>
      <trkpt lat="45.313087888062000274658203125" lon="-71.031892597675323486328125">
        <ele>795</ele>
        <time>2026-08-21T21:36:00.000Z</time>
        <extensions>
          <ns3:TrackPointExtension>
            <ns3:hr>134</ns3:hr>
            <ns3:cad>48</ns3:cad>
          </ns3:TrackPointExtension>
        </extensions>
      </trkpt>
      <trkpt lat="45.313079841434955596923828125" lon="-71.0319028235971927642822265625">
        <ele>795.20001220703125</ele>
        <time>2026-08-21T21:36:01.000Z</time>
        <extensions>
          <ns3:TrackPointExtension>
            <ns3:hr>135</ns3:hr>
            <ns3:cad>48</ns3:cad>
          </ns3:TrackPointExtension>
        </extensions>
      </trkpt>
      <trkpt lat="45.31307087279856204986572265625" lon="-71.03191095404326915740966796875">
        <ele>795.4000244140625</ele>
        <time>2026-08-21T21:36:02.000Z</time>
        <extensions>
          <ns3:TrackPointExtension>
            <ns3:hr>135</ns3:hr>
            <ns3:cad>48</ns3:cad>
          </ns3:TrackPointExtension>
        </extensions>
      </trkpt>
      <trkpt lat="45.31306140124797821044921875" lon="-71.03192101232707500457763671875">
        <ele>795.4000244140625</ele>
        <time>2026-08-21T21:36:03.000Z</time>
        <extensions>
          <ns3:TrackPointExtension>
            <ns3:hr>136</ns3:hr>
            <ns3:cad>48</ns3:cad>
          </ns3:TrackPointExtension>
        </extensions>
      </trkpt>
      <trkpt lat="45.31304539181292057037353515625" lon="-71.03192855603992938995361328125">
        <ele>795.4000244140625</ele>
        <time>2026-08-21T21:36:04.000Z</time>
        <extensions>
          <ns3:TrackPointExtension>
            <ns3:hr>136</ns3:hr>
            <ns3:cad>48</ns3:cad>
          </ns3:TrackPointExtension>
        </extensions>
      </trkpt>
      <trkpt lat="45.3130365908145904541015625" lon="-71.0319313220679759979248046875">
        <ele>795.5999755859375</ele>
        <time>2026-08-21T21:36:05.000Z</time>
        <extensions>
          <ns3:TrackPointExtension>
            <ns3:hr>136</ns3:hr>
            <ns3:cad>50</ns3:cad>
          </ns3:TrackPointExtension>
        </extensions>
      </trkpt>
      <trkpt lat="45.31302795745432376861572265625" lon="-71.03193140588700771331787109375">
        <ele>795.5999755859375</ele>
        <time>2026-08-21T21:36:06.000Z</time>
        <extensions>
          <ns3:TrackPointExtension>
            <ns3:hr>136</ns3:hr>
            <ns3:cad>50</ns3:cad>
          </ns3:TrackPointExtension>
        </extensions>
      </trkpt>
      <trkpt lat="45.31302209012210369110107421875" lon="-71.03192956186830997467041015625">
        <ele>795.79998779296875</ele>
        <time>2026-08-21T21:36:07.000Z</time>
        <extensions>
          <ns3:TrackPointExtension>
            <ns3:hr>136</ns3:hr>
            <ns3:cad>47</ns3:cad>
          </ns3:TrackPointExtension>
        </extensions>
      </trkpt>
      <trkpt lat="45.31301253475248813629150390625" lon="-71.03193207643926143646240234375">
        <ele>796</ele>
        <time>2026-08-21T21:36:08.000Z</time>
        <extensions>
          <ns3:TrackPointExtension>
            <ns3:hr>135</ns3:hr>
            <ns3:cad>47</ns3:cad>
          </ns3:TrackPointExtension>
        </extensions>
      </trkpt>
      <trkpt lat="45.313004069030284881591796875" lon="-71.03193886578083038330078125">
        <ele>796</ele>
        <time>2026-08-21T21:36:09.000Z</time>
        <extensions>
          <ns3:TrackPointExtension>
            <ns3:hr>136</ns3:hr>
            <ns3:cad>47</ns3:cad>
          </ns3:TrackPointExtension>
        </extensions>
      </trkpt>
      <trkpt lat="45.31299359165132045745849609375" lon="-71.03194330818951129913330078125">
        <ele>796.20001220703125</ele>
        <time>2026-08-21T21:36:10.000Z</time>
        <extensions>
          <ns3:TrackPointExtension>
            <ns3:hr>135</ns3:hr>
            <ns3:cad>0</ns3:cad>
          </ns3:TrackPointExtension>
        </extensions>
      </trkpt>
      <trkpt lat="45.31298160552978515625" lon="-71.031950600445270538330078125">
        <ele>796.4000244140625</ele>
        <time>2026-08-21T21:36:11.000Z</time>
        <extensions>
          <ns3:TrackPointExtension>
            <ns3:hr>135</ns3:hr>
            <ns3:cad>0</ns3:cad>
          </ns3:TrackPointExtension>
        </extensions>
      </trkpt>
      <trkpt lat="45.3129750676453113555908203125" lon="-71.0319541208446025848388671875">
        <ele>796.5999755859375</ele>
        <time>2026-08-21T21:36:12.000Z</time>
        <extensions>
          <ns3:TrackPointExtension>
            <ns3:hr>135</ns3:hr>
            <ns3:cad>0</ns3:cad>
          </ns3:TrackPointExtension>
        </extensions>
      </trkpt>
      <trkpt lat="45.31296140514314174652099609375" lon="-71.03195923380553722381591796875">
        <ele>796.79998779296875</ele>
        <time>2026-08-21T21:36:13.000Z</time>
        <extensions>
          <ns3:TrackPointExtension>
            <ns3:hr>135</ns3:hr>
            <ns3:cad>0</ns3:cad>
          </ns3:TrackPointExtension>
        </extensions>
      </trkpt>
      <trkpt lat="45.31295050866901874542236328125" lon="-71.03196158073842525482177734375">
        <ele>797</ele>
        <time>2026-08-21T21:36:14.000Z</time>
        <extensions>
          <ns3:TrackPointExtension>
            <ns3:hr>135</ns3:hr>
            <ns3:cad>47</ns3:cad>
          </ns3:TrackPointExtension>
        </extensions>
      </trkpt>
      <trkpt lat="45.31294095329940319061279296875" lon="-71.03196627460420131683349609375">
        <ele>797</ele>
        <time>2026-08-21T21:36:15.000Z</time>
        <extensions>
          <ns3:TrackPointExtension>
            <ns3:hr>135</ns3:hr>
            <ns3:cad>47</ns3:cad>
          </ns3:TrackPointExtension>
        </extensions>
      </trkpt>
      <trkpt lat="45.31293332576751708984375" lon="-71.03197750635445117950439453125">
        <ele>797.20001220703125</ele>
        <time>2026-08-21T21:36:16.000Z</time>
        <extensions>
          <ns3:TrackPointExtension>
            <ns3:hr>134</ns3:hr>
            <ns3:cad>47</ns3:cad>
          </ns3:TrackPointExtension>
        </extensions>
      </trkpt>
      <trkpt lat="45.3129217587411403656005859375" lon="-71.03198555298149585723876953125">
        <ele>797.4000244140625</ele>
        <time>2026-08-21T21:36:17.000Z</time>
        <extensions>
          <ns3:TrackPointExtension>
            <ns3:hr>134</ns3:hr>
            <ns3:cad>47</ns3:cad>
          </ns3:TrackPointExtension>
        </extensions>
      </trkpt>
      <trkpt lat="45.31290843151509761810302734375" lon="-71.03199594654142856597900390625">
        <ele>797.4000244140625</ele>
        <time>2026-08-21T21:36:18.000Z</time>
        <extensions>
          <ns3:TrackPointExtension>
            <ns3:hr>134</ns3:hr>
            <ns3:cad>47</ns3:cad>
          </ns3:TrackPointExtension>
        </extensions>
      </trkpt>
      <trkpt lat="45.3128935955464839935302734375" lon="-71.03200030513107776641845703125">
        <ele>797.5999755859375</ele>
        <time>2026-08-21T21:36:19.000Z</time>
        <extensions>
          <ns3:TrackPointExtension>
            <ns3:hr>134</ns3:hr>
            <ns3:cad>47</ns3:cad>
          </ns3:TrackPointExtension>
        </extensions>
      </trkpt>
      <trkpt lat="45.31288429163396358489990234375" lon="-71.0320074297487735748291015625">
        <ele>797.5999755859375</ele>
        <time>2026-08-21T21:36:20.000Z</time>
        <extensions>
          <ns3:TrackPointExtension>
            <ns3:hr>134</ns3:hr>
            <ns3:cad>47</ns3:cad>
          </ns3:TrackPointExtension>
        </extensions>
      </trkpt>
      <trkpt lat="45.3128761611878871917724609375" lon="-71.03201321326196193695068359375">
        <ele>797.5999755859375</ele>
        <time>2026-08-21T21:36:21.000Z</time>
        <extensions>
          <ns3:TrackPointExtension>
            <ns3:hr>134</ns3:hr>
            <ns3:cad>47</ns3:cad>
          </ns3:TrackPointExtension>
        </extensions>
      </trkpt>
      <trkpt lat="45.3128711320459842681884765625" lon="-71.0320151410996913909912109375">
        <ele>797.79998779296875</ele>
        <time>2026-08-21T21:36:22.000Z</time>
        <extensions>
          <ns3:TrackPointExtension>
            <ns3:hr>133</ns3:hr>
            <ns3:cad>47</ns3:cad>
          </ns3:TrackPointExtension>
        </extensions>
      </trkpt>
      <trkpt lat="45.3128644265234470367431640625" lon="-71.0320194996893405914306640625">
        <ele>798</ele>
        <time>2026-08-21T21:36:23.000Z</time>
        <extensions>
          <ns3:TrackPointExtension>
            <ns3:hr>133</ns3:hr>
            <ns3:cad>47</ns3:cad>
          </ns3:TrackPointExtension>
        </extensions>
      </trkpt>
      <trkpt lat="45.312855206429958343505859375" lon="-71.0320268757641315460205078125">
        <ele>798</ele>
        <time>2026-08-21T21:36:24.000Z</time>
        <extensions>
          <ns3:TrackPointExtension>
            <ns3:hr>132</ns3:hr>
            <ns3:cad>50</ns3:cad>
          </ns3:TrackPointExtension>
        </extensions>
      </trkpt>
      <trkpt lat="45.31284372322261333465576171875" lon="-71.03203014470636844635009765625">
        <ele>798.20001220703125</ele>
        <time>2026-08-21T21:36:25.000Z</time>
        <extensions>
          <ns3:TrackPointExtension>
            <ns3:hr>133</ns3:hr>
            <ns3:cad>50</ns3:cad>
          </ns3:TrackPointExtension>
        </extensions>
      </trkpt>
      <trkpt lat="45.3128386102616786956787109375" lon="-71.03202871978282928466796875">
        <ele>798.4000244140625</ele>
        <time>2026-08-21T21:36:26.000Z</time>
        <extensions>
          <ns3:TrackPointExtension>
            <ns3:hr>133</ns3:hr>
            <ns3:cad>49</ns3:cad>
          </ns3:TrackPointExtension>
        </extensions>
      </trkpt>
      <trkpt lat="45.3128332458436489105224609375" lon="-71.03202695958316326141357421875">
        <ele>798.4000244140625</ele>
        <time>2026-08-21T21:36:27.000Z</time>
        <extensions>
          <ns3:TrackPointExtension>
            <ns3:hr>134</ns3:hr>
            <ns3:cad>49</ns3:cad>
          </ns3:TrackPointExtension>
        </extensions>
      </trkpt>
      <trkpt lat="45.31281589530408382415771484375" lon="-71.0320319049060344696044921875">
        <ele>798.5999755859375</ele>
        <time>2026-08-21T21:36:28.000Z</time>
        <extensions>
          <ns3:TrackPointExtension>
            <ns3:hr>134</ns3:hr>
            <ns3:cad>49</ns3:cad>
          </ns3:TrackPointExtension>
        </extensions>
      </trkpt>
      <trkpt lat="45.31280281953513622283935546875" lon="-71.0320362634956836700439453125">
        <ele>798.79998779296875</ele>
        <time>2026-08-21T21:36:29.000Z</time>
        <extensions>
          <ns3:TrackPointExtension>
            <ns3:hr>134</ns3:hr>
            <ns3:cad>49</ns3:cad>
          </ns3:TrackPointExtension>
        </extensions>
      </trkpt>
      <trkpt lat="45.31279183924198150634765625" lon="-71.0320406220853328704833984375">
        <ele>798.79998779296875</ele>
        <time>2026-08-21T21:36:30.000Z</time>
        <extensions>
          <ns3:TrackPointExtension>
            <ns3:hr>134</ns3:hr>
            <ns3:cad>49</ns3:cad>
          </ns3:TrackPointExtension>
        </extensions>
      </trkpt>
      <trkpt lat="45.3127789311110973358154296875" lon="-71.0320443101227283477783203125">
        <ele>799</ele>
        <time>2026-08-21T21:36:31.000Z</time>
        <extensions>
          <ns3:TrackPointExtension>
            <ns3:hr>134</ns3:hr>
            <ns3:cad>47</ns3:cad>
          </ns3:TrackPointExtension>
        </extensions>
      </trkpt>
      <trkpt lat="45.31276694498956203460693359375" lon="-71.03204690851271152496337890625">
        <ele>799.20001220703125</ele>
        <time>2026-08-21T21:36:32.000Z</time>
        <extensions>
          <ns3:TrackPointExtension>
            <ns3:hr>134</ns3:hr>
            <ns3:cad>47</ns3:cad>
          </ns3:TrackPointExtension>
        </extensions>
      </trkpt>
      <trkpt lat="45.3127581439912319183349609375" lon="-71.03205126710236072540283203125">
        <ele>799.4000244140625</ele>
        <time>2026-08-21T21:36:33.000Z</time>
        <extensions>
          <ns3:TrackPointExtension>
            <ns3:hr>134</ns3:hr>
            <ns3:cad>48</ns3:cad>
          </ns3:TrackPointExtension>
        </extensions>
      </trkpt>
      <trkpt lat="45.312741883099079132080078125" lon="-71.03206333704292774200439453125">
        <ele>799.5999755859375</ele>
        <time>2026-08-21T21:36:34.000Z</time>
        <extensions>
          <ns3:TrackPointExtension>
            <ns3:hr>134</ns3:hr>
            <ns3:cad>49</ns3:cad>
          </ns3:TrackPointExtension>
        </extensions>
      </trkpt>
      <trkpt lat="45.31273475848138332366943359375" lon="-71.03207775391638278961181640625">
        <ele>799.79998779296875</ele>
        <time>2026-08-21T21:36:35.000Z</time>
        <extensions>
          <ns3:TrackPointExtension>
            <ns3:hr>134</ns3:hr>
            <ns3:cad>49</ns3:cad>
          </ns3:TrackPointExtension>
        </extensions>
      </trkpt>
      <trkpt lat="45.3127262927591800689697265625" lon="-71.03208462707698345184326171875">
        <ele>800</ele>
        <time>2026-08-21T21:36:36.000Z</time>
        <extensions>
          <ns3:TrackPointExtension>
            <ns3:hr>134</ns3:hr>
            <ns3:cad>51</ns3:cad>
          </ns3:TrackPointExtension>
        </extensions>
      </trkpt>
      <trkpt lat="45.31271514482796192169189453125" lon="-71.03209082968533039093017578125">
        <ele>800</ele>
        <time>2026-08-21T21:36:37.000Z</time>
        <extensions>
          <ns3:TrackPointExtension>
            <ns3:hr>133</ns3:hr>
            <ns3:cad>51</ns3:cad>
          </ns3:TrackPointExtension>
        </extensions>
      </trkpt>
      <trkpt lat="45.31270600855350494384765625" lon="-71.0320942662656307220458984375">
        <ele>800</ele>
        <time>2026-08-21T21:36:38.000Z</time>
        <extensions>
          <ns3:TrackPointExtension>
            <ns3:hr>132</ns3:hr>
            <ns3:cad>0</ns3:cad>
          </ns3:TrackPointExtension>
        </extensions>
      </trkpt>
      <trkpt lat="45.31269536353647708892822265625" lon="-71.032097451388835906982421875">
        <ele>800.20001220703125</ele>
        <time>2026-08-21T21:36:39.000Z</time>
        <extensions>
          <ns3:TrackPointExtension>
            <ns3:hr>133</ns3:hr>
            <ns3:cad>0</ns3:cad>
          </ns3:TrackPointExtension>
        </extensions>
      </trkpt>
      <trkpt lat="45.3126867301762104034423828125" lon="-71.0321006365120410919189453125">
        <ele>800.20001220703125</ele>
        <time>2026-08-21T21:36:40.000Z</time>
        <extensions>
          <ns3:TrackPointExtension>
            <ns3:hr>133</ns3:hr>
            <ns3:cad>0</ns3:cad>
          </ns3:TrackPointExtension>
        </extensions>
      </trkpt>
      <trkpt lat="45.3126798570156097412109375" lon="-71.032102815806865692138671875">
        <ele>800.4000244140625</ele>
        <time>2026-08-21T21:36:41.000Z</time>
        <extensions>
          <ns3:TrackPointExtension>
            <ns3:hr>133</ns3:hr>
            <ns3:cad>0</ns3:cad>
          </ns3:TrackPointExtension>
        </extensions>
      </trkpt>
      <trkpt lat="45.31267005018889904022216796875" lon="-71.03210474364459514617919921875">
        <ele>800.5999755859375</ele>
        <time>2026-08-21T21:36:42.000Z</time>
        <extensions>
          <ns3:TrackPointExtension>
            <ns3:hr>133</ns3:hr>
            <ns3:cad>0</ns3:cad>
          </ns3:TrackPointExtension>
        </extensions>
      </trkpt>
      <trkpt lat="45.3126589022576808929443359375" lon="-71.03210725821554660797119140625">
        <ele>800.79998779296875</ele>
        <time>2026-08-21T21:36:43.000Z</time>
        <extensions>
          <ns3:TrackPointExtension>
            <ns3:hr>134</ns3:hr>
            <ns3:cad>45</ns3:cad>
          </ns3:TrackPointExtension>
        </extensions>
      </trkpt>
      <trkpt lat="45.312648005783557891845703125" lon="-71.03211044333875179290771484375">
        <ele>800.79998779296875</ele>
        <time>2026-08-21T21:36:44.000Z</time>
        <extensions>
          <ns3:TrackPointExtension>
            <ns3:hr>134</ns3:hr>
            <ns3:cad>45</ns3:cad>
          </ns3:TrackPointExtension>
        </extensions>
      </trkpt>
      <trkpt lat="45.31262847594916820526123046875" lon="-71.032108850777149200439453125">
        <ele>801</ele>
        <time>2026-08-21T21:36:45.000Z</time>
        <extensions>
          <ns3:TrackPointExtension>
            <ns3:hr>134</ns3:hr>
            <ns3:cad>45</ns3:cad>
          </ns3:TrackPointExtension>
        </extensions>
      </trkpt>
      <trkpt lat="45.31261623837053775787353515625" lon="-71.03211144916713237762451171875">
        <ele>801.20001220703125</ele>
        <time>2026-08-21T21:36:46.000Z</time>
        <extensions>
          <ns3:TrackPointExtension>
            <ns3:hr>134</ns3:hr>
            <ns3:cad>47</ns3:cad>
          </ns3:TrackPointExtension>
        </extensions>
      </trkpt>
      <trkpt lat="45.31260383315384387969970703125" lon="-71.03211111389100551605224609375">
        <ele>801.20001220703125</ele>
        <time>2026-08-21T21:36:47.000Z</time>
        <extensions>
          <ns3:TrackPointExtension>
            <ns3:hr>132</ns3:hr>
            <ns3:cad>47</ns3:cad>
          </ns3:TrackPointExtension>
        </extensions>
      </trkpt>
      <trkpt lat="45.3125941939651966094970703125" lon="-71.03211111389100551605224609375">
        <ele>801.4000244140625</ele>
        <time>2026-08-21T21:36:48.000Z</time>
        <extensions>
          <ns3:TrackPointExtension>
            <ns3:hr>131</ns3:hr>
            <ns3:cad>47</ns3:cad>
          </ns3:TrackPointExtension>
        </extensions>
      </trkpt>
      <trkpt lat="45.3125832974910736083984375" lon="-71.032112874090671539306640625">
        <ele>801.4000244140625</ele>
        <time>2026-08-21T21:36:49.000Z</time>
        <extensions>
          <ns3:TrackPointExtension>
            <ns3:hr>131</ns3:hr>
            <ns3:cad>47</ns3:cad>
          </ns3:TrackPointExtension>
        </extensions>
      </trkpt>
      <trkpt lat="45.31256854534149169921875" lon="-71.032120920717716217041015625">
        <ele>801.5999755859375</ele>
        <time>2026-08-21T21:36:50.000Z</time>
        <extensions>
          <ns3:TrackPointExtension>
            <ns3:hr>131</ns3:hr>
            <ns3:cad>47</ns3:cad>
          </ns3:TrackPointExtension>
        </extensions>
      </trkpt>
      <trkpt lat="45.3125583194196224212646484375" lon="-71.0321271233260631561279296875">
        <ele>801.79998779296875</ele>
        <time>2026-08-21T21:36:51.000Z</time>
        <extensions>
          <ns3:TrackPointExtension>
            <ns3:hr>131</ns3:hr>
            <ns3:cad>47</ns3:cad>
          </ns3:TrackPointExtension>
        </extensions>
      </trkpt>
      <trkpt lat="45.312549769878387451171875" lon="-71.03213332593441009521484375">
        <ele>801.79998779296875</ele>
        <time>2026-08-21T21:36:52.000Z</time>
        <extensions>
          <ns3:TrackPointExtension>
            <ns3:hr>132</ns3:hr>
            <ns3:cad>47</ns3:cad>
          </ns3:TrackPointExtension>
        </extensions>
      </trkpt>
      <trkpt lat="45.31254096888005733489990234375" lon="-71.03214078582823276519775390625">
        <ele>802</ele>
        <time>2026-08-21T21:36:53.000Z</time>
        <extensions>
          <ns3:TrackPointExtension>
            <ns3:hr>131</ns3:hr>
            <ns3:cad>0</ns3:cad>
          </ns3:TrackPointExtension>
        </extensions>
      </trkpt>
      <trkpt lat="45.31253476627171039581298828125" lon="-71.0321499221026897430419921875">
        <ele>802.20001220703125</ele>
        <time>2026-08-21T21:36:54.000Z</time>
        <extensions>
          <ns3:TrackPointExtension>
            <ns3:hr>131</ns3:hr>
            <ns3:cad>0</ns3:cad>
          </ns3:TrackPointExtension>
        </extensions>
      </trkpt>
      <trkpt lat="45.3125288151204586029052734375" lon="-71.03216157294809818267822265625">
        <ele>802.4000244140625</ele>
        <time>2026-08-21T21:36:55.000Z</time>
        <extensions>
          <ns3:TrackPointExtension>
            <ns3:hr>132</ns3:hr>
            <ns3:cad>0</ns3:cad>
          </ns3:TrackPointExtension>
        </extensions>
      </trkpt>
      <trkpt lat="45.31252093613147735595703125" lon="-71.03216878138482570648193359375">
        <ele>802.4000244140625</ele>
        <time>2026-08-21T21:36:56.000Z</time>
        <extensions>
          <ns3:TrackPointExtension>
            <ns3:hr>131</ns3:hr>
            <ns3:cad>0</ns3:cad>
          </ns3:TrackPointExtension>
        </extensions>
      </trkpt>
      <trkpt lat="45.3125120513141155242919921875" lon="-71.03217892348766326904296875">
        <ele>802.5999755859375</ele>
        <time>2026-08-21T21:36:57.000Z</time>
        <extensions>
          <ns3:TrackPointExtension>
            <ns3:hr>130</ns3:hr>
            <ns3:cad>0</ns3:cad>
          </ns3:TrackPointExtension>
        </extensions>
      </trkpt>
      <trkpt lat="45.31250375322997570037841796875" lon="-71.0321889817714691162109375">
        <ele>802.5999755859375</ele>
        <time>2026-08-21T21:36:58.000Z</time>
        <extensions>
          <ns3:TrackPointExtension>
            <ns3:hr>130</ns3:hr>
            <ns3:cad>47</ns3:cad>
          </ns3:TrackPointExtension>
        </extensions>
      </trkpt>
      <trkpt lat="45.31249679625034332275390625" lon="-71.032197363674640655517578125">
        <ele>802.79998779296875</ele>
        <time>2026-08-21T21:36:59.000Z</time>
        <extensions>
          <ns3:TrackPointExtension>
            <ns3:hr>130</ns3:hr>
            <ns3:cad>47</ns3:cad>
          </ns3:TrackPointExtension>
        </extensions>
      </trkpt>
      <trkpt lat="45.312487743794918060302734375" lon="-71.032200045883655548095703125">
        <ele>802.79998779296875</ele>
        <time>2026-08-21T21:37:00.000Z</time>
        <extensions>
          <ns3:TrackPointExtension>
            <ns3:hr>130</ns3:hr>
            <ns3:cad>0</ns3:cad>
          </ns3:TrackPointExtension>
        </extensions>
      </trkpt>
      <trkpt lat="45.31248204410076141357421875" lon="-71.032209433615207672119140625">
        <ele>803</ele>
        <time>2026-08-21T21:37:01.000Z</time>
        <extensions>
          <ns3:TrackPointExtension>
            <ns3:hr>130</ns3:hr>
            <ns3:cad>0</ns3:cad>
          </ns3:TrackPointExtension>
        </extensions>
      </trkpt>
      <trkpt lat="45.3124734945595264434814453125" lon="-71.03221622295677661895751953125">
        <ele>803</ele>
        <time>2026-08-21T21:37:02.000Z</time>
        <extensions>
          <ns3:TrackPointExtension>
            <ns3:hr>130</ns3:hr>
            <ns3:cad>0</ns3:cad>
          </ns3:TrackPointExtension>
        </extensions>
      </trkpt>
      <trkpt lat="45.31247106380760669708251953125" lon="-71.03221454657614231109619140625">
        <ele>803.20001220703125</ele>
        <time>2026-08-21T21:37:03.000Z</time>
        <extensions>
          <ns3:TrackPointExtension>
            <ns3:hr>130</ns3:hr>
            <ns3:cad>41</ns3:cad>
          </ns3:TrackPointExtension>
        </extensions>
      </trkpt>
      <trkpt lat="45.312464945018291473388671875" lon="-71.03222192265093326568603515625">
        <ele>803.4000244140625</ele>
        <time>2026-08-21T21:37:04.000Z</time>
        <extensions>
          <ns3:TrackPointExtension>
            <ns3:hr>130</ns3:hr>
            <ns3:cad>41</ns3:cad>
          </ns3:TrackPointExtension>
        </extensions>
      </trkpt>
      <trkpt lat="45.312458910048007965087890625" lon="-71.03223323822021484375">
        <ele>803.5999755859375</ele>
        <time>2026-08-21T21:37:05.000Z</time>
        <extensions>
          <ns3:TrackPointExtension>
            <ns3:hr>130</ns3:hr>
            <ns3:cad>72</ns3:cad>
          </ns3:TrackPointExtension>
        </extensions>
      </trkpt>
      <trkpt lat="45.3124493546783924102783203125" lon="-71.0322461463510990142822265625">
        <ele>803.79998779296875</ele>
        <time>2026-08-21T21:37:06.000Z</time>
        <extensions>
          <ns3:TrackPointExtension>
            <ns3:hr>130</ns3:hr>
            <ns3:cad>72</ns3:cad>
          </ns3:TrackPointExtension>
        </extensions>
      </trkpt>
      <trkpt lat="45.31243954785168170928955078125" lon="-71.03225645609200000762939453125">
        <ele>804</ele>
        <time>2026-08-21T21:37:07.000Z</time>
        <extensions>
          <ns3:TrackPointExtension>
            <ns3:hr>130</ns3:hr>
            <ns3:cad>72</ns3:cad>
          </ns3:TrackPointExtension>
        </extensions>
      </trkpt>
      <trkpt lat="45.312432758510112762451171875" lon="-71.0322676040232181549072265625">
        <ele>804.20001220703125</ele>
        <time>2026-08-21T21:37:08.000Z</time>
        <extensions>
          <ns3:TrackPointExtension>
            <ns3:hr>130</ns3:hr>
            <ns3:cad>72</ns3:cad>
          </ns3:TrackPointExtension>
        </extensions>
      </trkpt>
      <trkpt lat="45.312425382435321807861328125" lon="-71.03227439336478710174560546875">
        <ele>804.20001220703125</ele>
        <time>2026-08-21T21:37:09.000Z</time>
        <extensions>
          <ns3:TrackPointExtension>
            <ns3:hr>130</ns3:hr>
            <ns3:cad>72</ns3:cad>
          </ns3:TrackPointExtension>
        </extensions>
      </trkpt>
      <trkpt lat="45.3124171681702136993408203125" lon="-71.03228897787630558013916015625">
        <ele>804.4000244140625</ele>
        <time>2026-08-21T21:37:10.000Z</time>
        <extensions>
          <ns3:TrackPointExtension>
            <ns3:hr>131</ns3:hr>
            <ns3:cad>0</ns3:cad>
          </ns3:TrackPointExtension>
        </extensions>
      </trkpt>
      <trkpt lat="45.31241054646670818328857421875" lon="-71.03230088017880916595458984375">
        <ele>804.5999755859375</ele>
        <time>2026-08-21T21:37:11.000Z</time>
        <extensions>
          <ns3:TrackPointExtension>
            <ns3:hr>131</ns3:hr>
            <ns3:cad>0</ns3:cad>
          </ns3:TrackPointExtension>
        </extensions>
      </trkpt>
      <trkpt lat="45.31240954063832759857177734375" lon="-71.03230792097747325897216796875">
        <ele>804.5999755859375</ele>
        <time>2026-08-21T21:37:12.000Z</time>
        <extensions>
          <ns3:TrackPointExtension>
            <ns3:hr>131</ns3:hr>
            <ns3:cad>0</ns3:cad>
          </ns3:TrackPointExtension>
        </extensions>
      </trkpt>
      <trkpt lat="45.31240400858223438262939453125" lon="-71.03231881745159626007080078125">
        <ele>804.79998779296875</ele>
        <time>2026-08-21T21:37:13.000Z</time>
        <extensions>
          <ns3:TrackPointExtension>
            <ns3:hr>131</ns3:hr>
            <ns3:cad>0</ns3:cad>
          </ns3:TrackPointExtension>
        </extensions>
      </trkpt>
      <trkpt lat="45.31239881180226802825927734375" lon="-71.032331474125385284423828125">
        <ele>805</ele>
        <time>2026-08-21T21:37:14.000Z</time>
        <extensions>
          <ns3:TrackPointExtension>
            <ns3:hr>132</ns3:hr>
            <ns3:cad>0</ns3:cad>
          </ns3:TrackPointExtension>
        </extensions>
      </trkpt>
      <trkpt lat="45.31239495612680912017822265625" lon="-71.03234094567596912384033203125">
        <ele>805.20001220703125</ele>
        <time>2026-08-21T21:37:15.000Z</time>
        <extensions>
          <ns3:TrackPointExtension>
            <ns3:hr>132</ns3:hr>
            <ns3:cad>0</ns3:cad>
          </ns3:TrackPointExtension>
        </extensions>
      </trkpt>
      <trkpt lat="45.31238791532814502716064453125" lon="-71.0323494113981723785400390625">
        <ele>805.20001220703125</ele>
        <time>2026-08-21T21:37:16.000Z</time>
        <extensions>
          <ns3:TrackPointExtension>
            <ns3:hr>133</ns3:hr>
            <ns3:cad>0</ns3:cad>
          </ns3:TrackPointExtension>
        </extensions>
      </trkpt>
      <trkpt lat="45.31238221563398838043212890625" lon="-71.03235385380685329437255859375">
        <ele>805.4000244140625</ele>
        <time>2026-08-21T21:37:17.000Z</time>
        <extensions>
          <ns3:TrackPointExtension>
            <ns3:hr>133</ns3:hr>
            <ns3:cad>45</ns3:cad>
          </ns3:TrackPointExtension>
        </extensions>
      </trkpt>
      <trkpt lat="45.31237609684467315673828125" lon="-71.03235661983489990234375">
        <ele>805.5999755859375</ele>
        <time>2026-08-21T21:37:18.000Z</time>
        <extensions>
          <ns3:TrackPointExtension>
            <ns3:hr>132</ns3:hr>
            <ns3:cad>45</ns3:cad>
          </ns3:TrackPointExtension>
        </extensions>
      </trkpt>
      <trkpt lat="45.31237198971211910247802734375" lon="-71.0323571227490901947021484375">
        <ele>805.5999755859375</ele>
        <time>2026-08-21T21:37:19.000Z</time>
        <extensions>
          <ns3:TrackPointExtension>
            <ns3:hr>132</ns3:hr>
            <ns3:cad>0</ns3:cad>
          </ns3:TrackPointExtension>
        </extensions>
      </trkpt>
      <trkpt lat="45.31236528418958187103271484375" lon="-71.032358296215534210205078125">
        <ele>805.79998779296875</ele>
        <time>2026-08-21T21:37:20.000Z</time>
        <extensions>
          <ns3:TrackPointExtension>
            <ns3:hr>132</ns3:hr>
            <ns3:cad>0</ns3:cad>
          </ns3:TrackPointExtension>
        </extensions>
      </trkpt>
      <trkpt lat="45.3123608417809009552001953125" lon="-71.03235469199717044830322265625">
        <ele>806</ele>
        <time>2026-08-21T21:37:21.000Z</time>
        <extensions>
          <ns3:TrackPointExtension>
            <ns3:hr>132</ns3:hr>
            <ns3:cad>0</ns3:cad>
          </ns3:TrackPointExtension>
        </extensions>
      </trkpt>
      <trkpt lat="45.31235329806804656982421875" lon="-71.03235066868364810943603515625">
        <ele>806.20001220703125</ele>
        <time>2026-08-21T21:37:22.000Z</time>
        <extensions>
          <ns3:TrackPointExtension>
            <ns3:hr>131</ns3:hr>
            <ns3:cad>0</ns3:cad>
          </ns3:TrackPointExtension>
        </extensions>
      </trkpt>
      <trkpt lat="45.3123430721461772918701171875" lon="-71.03234731592237949371337890625">
        <ele>806.20001220703125</ele>
        <time>2026-08-21T21:37:23.000Z</time>
        <extensions>
          <ns3:TrackPointExtension>
            <ns3:hr>132</ns3:hr>
            <ns3:cad>0</ns3:cad>
          </ns3:TrackPointExtension>
        </extensions>
      </trkpt>
      <trkpt lat="45.31233645044267177581787109375" lon="-71.0323494113981723785400390625">
        <ele>806.4000244140625</ele>
        <time>2026-08-21T21:37:24.000Z</time>
        <extensions>
          <ns3:TrackPointExtension>
            <ns3:hr>132</ns3:hr>
            <ns3:cad>46</ns3:cad>
          </ns3:TrackPointExtension>
        </extensions>
      </trkpt>
      <trkpt lat="45.31233108602464199066162109375" lon="-71.03235083632171154022216796875">
        <ele>806.5999755859375</ele>
        <time>2026-08-21T21:37:25.000Z</time>
        <extensions>
          <ns3:TrackPointExtension>
            <ns3:hr>132</ns3:hr>
            <ns3:cad>46</ns3:cad>
          </ns3:TrackPointExtension>
        </extensions>
      </trkpt>
      <trkpt lat="45.31232303939759731292724609375" lon="-71.032354272902011871337890625">
        <ele>806.5999755859375</ele>
        <time>2026-08-21T21:37:26.000Z</time>
        <extensions>
          <ns3:TrackPointExtension>
            <ns3:hr>132</ns3:hr>
            <ns3:cad>46</ns3:cad>
          </ns3:TrackPointExtension>
        </extensions>
      </trkpt>
      <trkpt lat="45.31231448985636234283447265625" lon="-71.03235888294875621795654296875">
        <ele>806.79998779296875</ele>
        <time>2026-08-21T21:37:27.000Z</time>
        <extensions>
          <ns3:TrackPointExtension>
            <ns3:hr>132</ns3:hr>
            <ns3:cad>46</ns3:cad>
          </ns3:TrackPointExtension>
        </extensions>
      </trkpt>
      <trkpt lat="45.31231105327606201171875" lon="-71.03235301561653614044189453125">
        <ele>807</ele>
        <time>2026-08-21T21:37:28.000Z</time>
        <extensions>
          <ns3:TrackPointExtension>
            <ns3:hr>132</ns3:hr>
            <ns3:cad>46</ns3:cad>
          </ns3:TrackPointExtension>
        </extensions>
      </trkpt>
      <trkpt lat="45.31230225227773189544677734375" lon="-71.0323510877788066864013671875">
        <ele>807.20001220703125</ele>
        <time>2026-08-21T21:37:29.000Z</time>
        <extensions>
          <ns3:TrackPointExtension>
            <ns3:hr>132</ns3:hr>
            <ns3:cad>47</ns3:cad>
          </ns3:TrackPointExtension>
        </extensions>
      </trkpt>
      <trkpt lat="45.3122823871672153472900390625" lon="-71.03235251270234584808349609375">
        <ele>807.4000244140625</ele>
        <time>2026-08-21T21:37:30.000Z</time>
        <extensions>
          <ns3:TrackPointExtension>
            <ns3:hr>132</ns3:hr>
            <ns3:cad>47</ns3:cad>
          </ns3:TrackPointExtension>
        </extensions>
      </trkpt>
      <trkpt lat="45.31227274797856807708740234375" lon="-71.03235083632171154022216796875">
        <ele>807.5999755859375</ele>
        <time>2026-08-21T21:37:31.000Z</time>
        <extensions>
          <ns3:TrackPointExtension>
            <ns3:hr>132</ns3:hr>
            <ns3:cad>47</ns3:cad>
          </ns3:TrackPointExtension>
        </extensions>
      </trkpt>
      <trkpt lat="45.31226537190377712249755859375" lon="-71.0323497466742992401123046875">
        <ele>807.79998779296875</ele>
        <time>2026-08-21T21:37:32.000Z</time>
        <extensions>
          <ns3:TrackPointExtension>
            <ns3:hr>132</ns3:hr>
            <ns3:cad>47</ns3:cad>
          </ns3:TrackPointExtension>
        </extensions>
      </trkpt>
      <trkpt lat="45.3122560679912567138671875" lon="-71.03234798647463321685791015625">
        <ele>808</ele>
        <time>2026-08-21T21:37:33.000Z</time>
        <extensions>
          <ns3:TrackPointExtension>
            <ns3:hr>132</ns3:hr>
            <ns3:cad>47</ns3:cad>
          </ns3:TrackPointExtension>
        </extensions>
      </trkpt>
      <trkpt lat="45.3122448362410068511962890625" lon="-71.03234480135142803192138671875">
        <ele>808.20001220703125</ele>
        <time>2026-08-21T21:37:34.000Z</time>
        <extensions>
          <ns3:TrackPointExtension>
            <ns3:hr>133</ns3:hr>
            <ns3:cad>0</ns3:cad>
          </ns3:TrackPointExtension>
        </extensions>
      </trkpt>
      <trkpt lat="45.31223720870912075042724609375" lon="-71.032346896827220916748046875">
        <ele>808.20001220703125</ele>
        <time>2026-08-21T21:37:35.000Z</time>
        <extensions>
          <ns3:TrackPointExtension>
            <ns3:hr>133</ns3:hr>
            <ns3:cad>0</ns3:cad>
          </ns3:TrackPointExtension>
        </extensions>
      </trkpt>
      <trkpt lat="45.31222731806337833404541015625" lon="-71.032347567379474639892578125">
        <ele>808.4000244140625</ele>
        <time>2026-08-21T21:37:36.000Z</time>
        <extensions>
          <ns3:TrackPointExtension>
            <ns3:hr>134</ns3:hr>
            <ns3:cad>0</ns3:cad>
          </ns3:TrackPointExtension>
        </extensions>
      </trkpt>
      <trkpt lat="45.3122193552553653717041015625" lon="-71.0323507525026798248291015625">
        <ele>808.5999755859375</ele>
        <time>2026-08-21T21:37:37.000Z</time>
        <extensions>
          <ns3:TrackPointExtension>
            <ns3:hr>133</ns3:hr>
            <ns3:cad>0</ns3:cad>
          </ns3:TrackPointExtension>
        </extensions>
      </trkpt>
      <trkpt lat="45.31220979988574981689453125" lon="-71.03235368616878986358642578125">
        <ele>808.79998779296875</ele>
        <time>2026-08-21T21:37:38.000Z</time>
        <extensions>
          <ns3:TrackPointExtension>
            <ns3:hr>134</ns3:hr>
            <ns3:cad>0</ns3:cad>
          </ns3:TrackPointExtension>
        </extensions>
      </trkpt>
      <trkpt lat="45.31220233999192714691162109375" lon="-71.03235569782555103302001953125">
        <ele>809</ele>
        <time>2026-08-21T21:37:39.000Z</time>
        <extensions>
          <ns3:TrackPointExtension>
            <ns3:hr>134</ns3:hr>
            <ns3:cad>0</ns3:cad>
          </ns3:TrackPointExtension>
        </extensions>
      </trkpt>
      <trkpt lat="45.3121901862323284149169921875" lon="-71.03236240334808826446533203125">
        <ele>809.20001220703125</ele>
        <time>2026-08-21T21:37:40.000Z</time>
        <extensions>
          <ns3:TrackPointExtension>
            <ns3:hr>134</ns3:hr>
            <ns3:cad>0</ns3:cad>
          </ns3:TrackPointExtension>
        </extensions>
      </trkpt>
      <trkpt lat="45.31218339689075946807861328125" lon="-71.0323598049581050872802734375">
        <ele>809.4000244140625</ele>
        <time>2026-08-21T21:37:41.000Z</time>
        <extensions>
          <ns3:TrackPointExtension>
            <ns3:hr>134</ns3:hr>
            <ns3:cad>0</ns3:cad>
          </ns3:TrackPointExtension>
        </extensions>
      </trkpt>
      <trkpt lat="45.3121734224259853363037109375" lon="-71.03235553018748760223388671875">
        <ele>809.5999755859375</ele>
        <time>2026-08-21T21:37:42.000Z</time>
        <extensions>
          <ns3:TrackPointExtension>
            <ns3:hr>134</ns3:hr>
            <ns3:cad>0</ns3:cad>
          </ns3:TrackPointExtension>
        </extensions>
      </trkpt>
      <trkpt lat="45.3121667169034481048583984375" lon="-71.03235670365393161773681640625">
        <ele>809.79998779296875</ele>
        <time>2026-08-21T21:37:43.000Z</time>
        <extensions>
          <ns3:TrackPointExtension>
            <ns3:hr>134</ns3:hr>
            <ns3:cad>0</ns3:cad>
          </ns3:TrackPointExtension>
        </extensions>
      </trkpt>
      <trkpt lat="45.31215623952448368072509765625" lon="-71.03235821239650249481201171875">
        <ele>810</ele>
        <time>2026-08-21T21:37:44.000Z</time>
        <extensions>
          <ns3:TrackPointExtension>
            <ns3:hr>135</ns3:hr>
            <ns3:cad>0</ns3:cad>
          </ns3:TrackPointExtension>
        </extensions>
      </trkpt>
      <trkpt lat="45.31215079128742218017578125" lon="-71.03235871531069278717041015625">
        <ele>810.20001220703125</ele>
        <time>2026-08-21T21:37:45.000Z</time>
        <extensions>
          <ns3:TrackPointExtension>
            <ns3:hr>135</ns3:hr>
            <ns3:cad>0</ns3:cad>
          </ns3:TrackPointExtension>
        </extensions>
      </trkpt>
      <trkpt lat="45.312130339443683624267578125" lon="-71.03236257098615169525146484375">
        <ele>810.4000244140625</ele>
        <time>2026-08-21T21:37:46.000Z</time>
        <extensions>
          <ns3:TrackPointExtension>
            <ns3:hr>136</ns3:hr>
            <ns3:cad>0</ns3:cad>
          </ns3:TrackPointExtension>
        </extensions>
      </trkpt>
      <trkpt lat="45.3121164254844188690185546875" lon="-71.03235326707363128662109375">
        <ele>810.5999755859375</ele>
        <time>2026-08-21T21:37:47.000Z</time>
        <extensions>
          <ns3:TrackPointExtension>
            <ns3:hr>136</ns3:hr>
            <ns3:cad>0</ns3:cad>
          </ns3:TrackPointExtension>
        </extensions>
      </trkpt>
      <trkpt lat="45.31210075132548809051513671875" lon="-71.03235200978815555572509765625">
        <ele>810.79998779296875</ele>
        <time>2026-08-21T21:37:48.000Z</time>
        <extensions>
          <ns3:TrackPointExtension>
            <ns3:hr>136</ns3:hr>
            <ns3:cad>0</ns3:cad>
          </ns3:TrackPointExtension>
        </extensions>
      </trkpt>
      <trkpt lat="45.3120870888233184814453125" lon="-71.0323520936071872711181640625">
        <ele>810.79998779296875</ele>
        <time>2026-08-21T21:37:49.000Z</time>
        <extensions>
          <ns3:TrackPointExtension>
            <ns3:hr>137</ns3:hr>
            <ns3:cad>0</ns3:cad>
          </ns3:TrackPointExtension>
        </extensions>
      </trkpt>
      <trkpt lat="45.3120768629014492034912109375" lon="-71.03235770948231220245361328125">
        <ele>811</ele>
        <time>2026-08-21T21:37:50.000Z</time>
        <extensions>
          <ns3:TrackPointExtension>
            <ns3:hr>137</ns3:hr>
            <ns3:cad>0</ns3:cad>
          </ns3:TrackPointExtension>
        </extensions>
      </trkpt>
      <trkpt lat="45.31206185929477214813232421875" lon="-71.03236139751970767974853515625">
        <ele>811.20001220703125</ele>
        <time>2026-08-21T21:37:51.000Z</time>
        <extensions>
          <ns3:TrackPointExtension>
            <ns3:hr>137</ns3:hr>
            <ns3:cad>0</ns3:cad>
          </ns3:TrackPointExtension>
        </extensions>
      </trkpt>
      <trkpt lat="45.3120476938784122467041015625" lon="-71.032367683947086334228515625">
        <ele>811.4000244140625</ele>
        <time>2026-08-21T21:37:52.000Z</time>
        <extensions>
          <ns3:TrackPointExtension>
            <ns3:hr>136</ns3:hr>
            <ns3:cad>0</ns3:cad>
          </ns3:TrackPointExtension>
        </extensions>
      </trkpt>
      <trkpt lat="45.31203369610011577606201171875" lon="-71.03238117881119251251220703125">
        <ele>811.5999755859375</ele>
        <time>2026-08-21T21:37:53.000Z</time>
        <extensions>
          <ns3:TrackPointExtension>
            <ns3:hr>136</ns3:hr>
            <ns3:cad>0</ns3:cad>
          </ns3:TrackPointExtension>
        </extensions>
      </trkpt>
      <trkpt lat="45.31202162615954875946044921875" lon="-71.032398529350757598876953125">
        <ele>811.79998779296875</ele>
        <time>2026-08-21T21:37:54.000Z</time>
        <extensions>
          <ns3:TrackPointExtension>
            <ns3:hr>136</ns3:hr>
            <ns3:cad>0</ns3:cad>
          </ns3:TrackPointExtension>
        </extensions>
      </trkpt>
      <trkpt lat="45.31201458536088466644287109375" lon="-71.03241303004324436187744140625">
        <ele>812</ele>
        <time>2026-08-21T21:37:55.000Z</time>
        <extensions>
          <ns3:TrackPointExtension>
            <ns3:hr>135</ns3:hr>
            <ns3:cad>0</ns3:cad>
          </ns3:TrackPointExtension>
        </extensions>
      </trkpt>
      <trkpt lat="45.3120077960193157196044921875" lon="-71.03242476470768451690673828125">
        <ele>812.20001220703125</ele>
        <time>2026-08-21T21:37:56.000Z</time>
        <extensions>
          <ns3:TrackPointExtension>
            <ns3:hr>136</ns3:hr>
            <ns3:cad>50</ns3:cad>
          </ns3:TrackPointExtension>
        </extensions>
      </trkpt>
      <trkpt lat="45.31200603581964969635009765625" lon="-71.03244404308497905731201171875">
        <ele>812.20001220703125</ele>
        <time>2026-08-21T21:37:57.000Z</time>
        <extensions>
          <ns3:TrackPointExtension>
            <ns3:hr>136</ns3:hr>
            <ns3:cad>50</ns3:cad>
          </ns3:TrackPointExtension>
        </extensions>
      </trkpt>
      <trkpt lat="45.31200595200061798095703125" lon="-71.0324670933187007904052734375">
        <ele>812.4000244140625</ele>
        <time>2026-08-21T21:37:58.000Z</time>
        <extensions>
          <ns3:TrackPointExtension>
            <ns3:hr>136</ns3:hr>
            <ns3:cad>50</ns3:cad>
          </ns3:TrackPointExtension>
        </extensions>
      </trkpt>
      <trkpt lat="45.312006957828998565673828125" lon="-71.03248645551502704620361328125">
        <ele>812.5999755859375</ele>
        <time>2026-08-21T21:37:59.000Z</time>
        <extensions>
          <ns3:TrackPointExtension>
            <ns3:hr>136</ns3:hr>
            <ns3:cad>50</ns3:cad>
          </ns3:TrackPointExtension>
        </extensions>
      </trkpt>
      <trkpt lat="45.31201290898025035858154296875" lon="-71.03250204585492610931396484375">
        <ele>812.5999755859375</ele>
        <time>2026-08-21T21:38:00.000Z</time>
        <extensions>
          <ns3:TrackPointExtension>
            <ns3:hr>136</ns3:hr>
            <ns3:cad>0</ns3:cad>
          </ns3:TrackPointExtension>
        </extensions>
      </trkpt>
      <trkpt lat="45.31201609410345554351806640625" lon="-71.032520234584808349609375">
        <ele>812.5999755859375</ele>
        <time>2026-08-21T21:38:01.000Z</time>
        <extensions>
          <ns3:TrackPointExtension>
            <ns3:hr>136</ns3:hr>
            <ns3:cad>0</ns3:cad>
          </ns3:TrackPointExtension>
        </extensions>
      </trkpt>
      <trkpt lat="45.3120191954076290130615234375" lon="-71.0325348190963268280029296875">
        <ele>812.79998779296875</ele>
        <time>2026-08-21T21:38:02.000Z</time>
        <extensions>
          <ns3:TrackPointExtension>
            <ns3:hr>136</ns3:hr>
            <ns3:cad>0</ns3:cad>
          </ns3:TrackPointExtension>
        </extensions>
      </trkpt>
      <trkpt lat="45.3120242245495319366455078125" lon="-71.03255049325525760650634765625">
        <ele>812.79998779296875</ele>
        <time>2026-08-21T21:38:03.000Z</time>
        <extensions>
          <ns3:TrackPointExtension>
            <ns3:hr>136</ns3:hr>
            <ns3:cad>53</ns3:cad>
          </ns3:TrackPointExtension>
        </extensions>
      </trkpt>
      <trkpt lat="45.312027074396610260009765625" lon="-71.03256809525191783905029296875">
        <ele>813</ele>
        <time>2026-08-21T21:38:04.000Z</time>
        <extensions>
          <ns3:TrackPointExtension>
            <ns3:hr>136</ns3:hr>
            <ns3:cad>53</ns3:cad>
          </ns3:TrackPointExtension>
        </extensions>
      </trkpt>
      <trkpt lat="45.31203034333884716033935546875" lon="-71.03257454931735992431640625">
        <ele>813</ele>
        <time>2026-08-21T21:38:05.000Z</time>
        <extensions>
          <ns3:TrackPointExtension>
            <ns3:hr>136</ns3:hr>
            <ns3:cad>53</ns3:cad>
          </ns3:TrackPointExtension>
        </extensions>
      </trkpt>
      <trkpt lat="45.31203470192849636077880859375" lon="-71.0325901396572589874267578125">
        <ele>813.20001220703125</ele>
        <time>2026-08-21T21:38:06.000Z</time>
        <extensions>
          <ns3:TrackPointExtension>
            <ns3:hr>137</ns3:hr>
            <ns3:cad>53</ns3:cad>
          </ns3:TrackPointExtension>
        </extensions>
      </trkpt>
      <trkpt lat="45.31203947961330413818359375" lon="-71.03261369280517101287841796875">
        <ele>813.4000244140625</ele>
        <time>2026-08-21T21:38:07.000Z</time>
        <extensions>
          <ns3:TrackPointExtension>
            <ns3:hr>136</ns3:hr>
            <ns3:cad>53</ns3:cad>
          </ns3:TrackPointExtension>
        </extensions>
      </trkpt>
      <trkpt lat="45.3120289184153079986572265625" lon="-71.0326340608298778533935546875">
        <ele>813.4000244140625</ele>
        <time>2026-08-21T21:38:08.000Z</time>
        <extensions>
          <ns3:TrackPointExtension>
            <ns3:hr>136</ns3:hr>
            <ns3:cad>0</ns3:cad>
          </ns3:TrackPointExtension>
        </extensions>
      </trkpt>
      <trkpt lat="45.31202246434986591339111328125" lon="-71.03264034725725650787353515625">
        <ele>813.5999755859375</ele>
        <time>2026-08-21T21:38:09.000Z</time>
        <extensions>
          <ns3:TrackPointExtension>
            <ns3:hr>136</ns3:hr>
            <ns3:cad>0</ns3:cad>
          </ns3:TrackPointExtension>
        </extensions>
      </trkpt>
      <trkpt lat="45.31201911158859729766845703125" lon="-71.0326491482555866241455078125">
        <ele>813.5999755859375</ele>
        <time>2026-08-21T21:38:10.000Z</time>
        <extensions>
          <ns3:TrackPointExtension>
            <ns3:hr>137</ns3:hr>
            <ns3:cad>0</ns3:cad>
          </ns3:TrackPointExtension>
        </extensions>
      </trkpt>
      <trkpt lat="45.31201777048408985137939453125" lon="-71.03266716934740543365478515625">
        <ele>813.79998779296875</ele>
        <time>2026-08-21T21:38:11.000Z</time>
        <extensions>
          <ns3:TrackPointExtension>
            <ns3:hr>136</ns3:hr>
            <ns3:cad>0</ns3:cad>
          </ns3:TrackPointExtension>
        </extensions>
      </trkpt>
      <trkpt lat="45.3120141662657260894775390625" lon="-71.03268326260149478912353515625">
        <ele>814</ele>
        <time>2026-08-21T21:38:12.000Z</time>
        <extensions>
          <ns3:TrackPointExtension>
            <ns3:hr>136</ns3:hr>
            <ns3:cad>0</ns3:cad>
          </ns3:TrackPointExtension>
        </extensions>
      </trkpt>
      <trkpt lat="45.3120052814483642578125" lon="-71.03269566781818866729736328125">
        <ele>814.20001220703125</ele>
        <time>2026-08-21T21:38:13.000Z</time>
        <extensions>
          <ns3:TrackPointExtension>
            <ns3:hr>136</ns3:hr>
            <ns3:cad>48</ns3:cad>
          </ns3:TrackPointExtension>
        </extensions>
      </trkpt>
      <trkpt lat="45.3120012581348419189453125" lon="-71.0327051393687725067138671875">
        <ele>814.4000244140625</ele>
        <time>2026-08-21T21:38:14.000Z</time>
        <extensions>
          <ns3:TrackPointExtension>
            <ns3:hr>136</ns3:hr>
            <ns3:cad>48</ns3:cad>
          </ns3:TrackPointExtension>
        </extensions>
      </trkpt>
      <trkpt lat="45.31199882738292217254638671875" lon="-71.032713353633880615234375">
        <ele>814.4000244140625</ele>
        <time>2026-08-21T21:38:15.000Z</time>
        <extensions>
          <ns3:TrackPointExtension>
            <ns3:hr>135</ns3:hr>
            <ns3:cad>0</ns3:cad>
          </ns3:TrackPointExtension>
        </extensions>
      </trkpt>
      <trkpt lat="45.311992205679416656494140625" lon="-71.03272098116576671600341796875">
        <ele>814.5999755859375</ele>
        <time>2026-08-21T21:38:16.000Z</time>
        <extensions>
          <ns3:TrackPointExtension>
            <ns3:hr>134</ns3:hr>
            <ns3:cad>0</ns3:cad>
          </ns3:TrackPointExtension>
        </extensions>
      </trkpt>
      <trkpt lat="45.3119860030710697174072265625" lon="-71.03273271583020687103271484375">
        <ele>815</ele>
        <time>2026-08-21T21:38:17.000Z</time>
        <extensions>
          <ns3:TrackPointExtension>
            <ns3:hr>133</ns3:hr>
            <ns3:cad>0</ns3:cad>
          </ns3:TrackPointExtension>
        </extensions>
      </trkpt>
      <trkpt lat="45.31197384931147098541259765625" lon="-71.03274361230432987213134765625">
        <ele>815.20001220703125</ele>
        <time>2026-08-21T21:38:18.000Z</time>
        <extensions>
          <ns3:TrackPointExtension>
            <ns3:hr>133</ns3:hr>
            <ns3:cad>0</ns3:cad>
          </ns3:TrackPointExtension>
        </extensions>
      </trkpt>
      <trkpt lat="45.31196580268442630767822265625" lon="-71.032751239836215972900390625">
        <ele>815.20001220703125</ele>
        <time>2026-08-21T21:38:19.000Z</time>
        <extensions>
          <ns3:TrackPointExtension>
            <ns3:hr>133</ns3:hr>
            <ns3:cad>0</ns3:cad>
          </ns3:TrackPointExtension>
        </extensions>
      </trkpt>
      <trkpt lat="45.311960689723491668701171875" lon="-71.03275316767394542694091796875">
        <ele>815.4000244140625</ele>
        <time>2026-08-21T21:38:20.000Z</time>
        <extensions>
          <ns3:TrackPointExtension>
            <ns3:hr>133</ns3:hr>
            <ns3:cad>0</ns3:cad>
          </ns3:TrackPointExtension>
        </extensions>
      </trkpt>
      <trkpt lat="45.31195163726806640625" lon="-71.03275434114038944244384765625">
        <ele>815.5999755859375</ele>
        <time>2026-08-21T21:38:21.000Z</time>
        <extensions>
          <ns3:TrackPointExtension>
            <ns3:hr>134</ns3:hr>
            <ns3:cad>0</ns3:cad>
          </ns3:TrackPointExtension>
        </extensions>
      </trkpt>
      <trkpt lat="45.31193747185170650482177734375" lon="-71.03276071138679981231689453125">
        <ele>815.79998779296875</ele>
        <time>2026-08-21T21:38:22.000Z</time>
        <extensions>
          <ns3:TrackPointExtension>
            <ns3:hr>134</ns3:hr>
            <ns3:cad>0</ns3:cad>
          </ns3:TrackPointExtension>
        </extensions>
      </trkpt>
      <trkpt lat="45.311924479901790618896484375" lon="-71.03276641108095645904541015625">
        <ele>816</ele>
        <time>2026-08-21T21:38:23.000Z</time>
        <extensions>
          <ns3:TrackPointExtension>
            <ns3:hr>134</ns3:hr>
            <ns3:cad>0</ns3:cad>
          </ns3:TrackPointExtension>
        </extensions>
      </trkpt>
      <trkpt lat="45.31192288734018802642822265625" lon="-71.03276791982352733612060546875">
        <ele>816</ele>
        <time>2026-08-21T21:38:24.000Z</time>
        <extensions>
          <ns3:TrackPointExtension>
            <ns3:hr>134</ns3:hr>
            <ns3:cad>0</ns3:cad>
          </ns3:TrackPointExtension>
        </extensions>
      </trkpt>
      <trkpt lat="45.3119152598083019256591796875" lon="-71.0327737033367156982421875">
        <ele>816.20001220703125</ele>
        <time>2026-08-21T21:38:25.000Z</time>
        <extensions>
          <ns3:TrackPointExtension>
            <ns3:hr>135</ns3:hr>
            <ns3:cad>49</ns3:cad>
          </ns3:TrackPointExtension>
        </extensions>
      </trkpt>
      <trkpt lat="45.31190645880997180938720703125" lon="-71.03278116323053836822509765625">
        <ele>816.4000244140625</ele>
        <time>2026-08-21T21:38:26.000Z</time>
        <extensions>
          <ns3:TrackPointExtension>
            <ns3:hr>135</ns3:hr>
            <ns3:cad>49</ns3:cad>
          </ns3:TrackPointExtension>
        </extensions>
      </trkpt>
      <trkpt lat="45.311895310878753662109375" lon="-71.032791472971439361572265625">
        <ele>816.5999755859375</ele>
        <time>2026-08-21T21:38:27.000Z</time>
        <extensions>
          <ns3:TrackPointExtension>
            <ns3:hr>135</ns3:hr>
            <ns3:cad>0</ns3:cad>
          </ns3:TrackPointExtension>
        </extensions>
      </trkpt>
      <trkpt lat="45.311895646154880523681640625" lon="-71.0327990166842937469482421875">
        <ele>816.79998779296875</ele>
        <time>2026-08-21T21:38:28.000Z</time>
        <extensions>
          <ns3:TrackPointExtension>
            <ns3:hr>135</ns3:hr>
            <ns3:cad>0</ns3:cad>
          </ns3:TrackPointExtension>
        </extensions>
      </trkpt>
      <trkpt lat="45.31188952736556529998779296875" lon="-71.03281284682452678680419921875">
        <ele>817</ele>
        <time>2026-08-21T21:38:29.000Z</time>
        <extensions>
          <ns3:TrackPointExtension>
            <ns3:hr>136</ns3:hr>
            <ns3:cad>0</ns3:cad>
          </ns3:TrackPointExtension>
        </extensions>
      </trkpt>
      <trkpt lat="45.3118803910911083221435546875" lon="-71.032822318375110626220703125">
        <ele>817</ele>
        <time>2026-08-21T21:38:30.000Z</time>
        <extensions>
          <ns3:TrackPointExtension>
            <ns3:hr>135</ns3:hr>
            <ns3:cad>0</ns3:cad>
          </ns3:TrackPointExtension>
        </extensions>
      </trkpt>
      <trkpt lat="45.311881564557552337646484375" lon="-71.0328275151550769805908203125">
        <ele>817.4000244140625</ele>
        <time>2026-08-21T21:38:31.000Z</time>
        <extensions>
          <ns3:TrackPointExtension>
            <ns3:hr>135</ns3:hr>
            <ns3:cad>0</ns3:cad>
          </ns3:TrackPointExtension>
        </extensions>
      </trkpt>
      <trkpt lat="45.311874188482761383056640625" lon="-71.03283279575407505035400390625">
        <ele>817.4000244140625</ele>
        <time>2026-08-21T21:38:32.000Z</time>
        <extensions>
          <ns3:TrackPointExtension>
            <ns3:hr>134</ns3:hr>
            <ns3:cad>0</ns3:cad>
          </ns3:TrackPointExtension>
        </extensions>
      </trkpt>
      <trkpt lat="45.31187024898827075958251953125" lon="-71.032829023897647857666015625">
        <ele>817.79998779296875</ele>
        <time>2026-08-21T21:38:33.000Z</time>
        <extensions>
          <ns3:TrackPointExtension>
            <ns3:hr>134</ns3:hr>
            <ns3:cad>0</ns3:cad>
          </ns3:TrackPointExtension>
        </extensions>
      </trkpt>
      <trkpt lat="45.31186379492282867431640625" lon="-71.03283028118312358856201171875">
        <ele>818</ele>
        <time>2026-08-21T21:38:34.000Z</time>
        <extensions>
          <ns3:TrackPointExtension>
            <ns3:hr>134</ns3:hr>
            <ns3:cad>0</ns3:cad>
          </ns3:TrackPointExtension>
        </extensions>
      </trkpt>
      <trkpt lat="45.3118592686951160430908203125" lon="-71.0328315384685993194580078125">
        <ele>818.20001220703125</ele>
        <time>2026-08-21T21:38:35.000Z</time>
        <extensions>
          <ns3:TrackPointExtension>
            <ns3:hr>134</ns3:hr>
            <ns3:cad>0</ns3:cad>
          </ns3:TrackPointExtension>
        </extensions>
      </trkpt>
      <trkpt lat="45.31185306608676910400390625" lon="-71.03283547796308994293212890625">
        <ele>818.4000244140625</ele>
        <time>2026-08-21T21:38:36.000Z</time>
        <extensions>
          <ns3:TrackPointExtension>
            <ns3:hr>134</ns3:hr>
            <ns3:cad>0</ns3:cad>
          </ns3:TrackPointExtension>
        </extensions>
      </trkpt>
      <trkpt lat="45.31184460036456584930419921875" lon="-71.03283816017210483551025390625">
        <ele>818.5999755859375</ele>
        <time>2026-08-21T21:38:37.000Z</time>
        <extensions>
          <ns3:TrackPointExtension>
            <ns3:hr>133</ns3:hr>
            <ns3:cad>0</ns3:cad>
          </ns3:TrackPointExtension>
        </extensions>
      </trkpt>
      <trkpt lat="45.311830602586269378662109375" lon="-71.0328439436852931976318359375">
        <ele>818.79998779296875</ele>
        <time>2026-08-21T21:38:38.000Z</time>
        <extensions>
          <ns3:TrackPointExtension>
            <ns3:hr>133</ns3:hr>
            <ns3:cad>0</ns3:cad>
          </ns3:TrackPointExtension>
        </extensions>
      </trkpt>
      <trkpt lat="45.311826579272747039794921875" lon="-71.032845787703990936279296875">
        <ele>819</ele>
        <time>2026-08-21T21:38:39.000Z</time>
        <extensions>
          <ns3:TrackPointExtension>
            <ns3:hr>133</ns3:hr>
            <ns3:cad>0</ns3:cad>
          </ns3:TrackPointExtension>
        </extensions>
      </trkpt>
      <trkpt lat="45.31181861646473407745361328125" lon="-71.0328566841781139373779296875">
        <ele>819</ele>
        <time>2026-08-21T21:38:40.000Z</time>
        <extensions>
          <ns3:TrackPointExtension>
            <ns3:hr>133</ns3:hr>
            <ns3:cad>0</ns3:cad>
          </ns3:TrackPointExtension>
        </extensions>
      </trkpt>
      <trkpt lat="45.3118069656193256378173828125" lon="-71.03286062367260456085205078125">
        <ele>819.20001220703125</ele>
        <time>2026-08-21T21:38:41.000Z</time>
        <extensions>
          <ns3:TrackPointExtension>
            <ns3:hr>133</ns3:hr>
            <ns3:cad>0</ns3:cad>
          </ns3:TrackPointExtension>
        </extensions>
      </trkpt>
      <trkpt lat="45.31179699115455150604248046875" lon="-71.03286347351968288421630859375">
        <ele>819.4000244140625</ele>
        <time>2026-08-21T21:38:42.000Z</time>
        <extensions>
          <ns3:TrackPointExtension>
            <ns3:hr>132</ns3:hr>
            <ns3:cad>0</ns3:cad>
          </ns3:TrackPointExtension>
        </extensions>
      </trkpt>
      <trkpt lat="45.31179497949779033660888671875" lon="-71.03286959230899810791015625">
        <ele>819.5999755859375</ele>
        <time>2026-08-21T21:38:43.000Z</time>
        <extensions>
          <ns3:TrackPointExtension>
            <ns3:hr>132</ns3:hr>
            <ns3:cad>0</ns3:cad>
          </ns3:TrackPointExtension>
        </extensions>
      </trkpt>
      <trkpt lat="45.311788357794284820556640625" lon="-71.03287252597510814666748046875">
        <ele>819.79998779296875</ele>
        <time>2026-08-21T21:38:44.000Z</time>
        <extensions>
          <ns3:TrackPointExtension>
            <ns3:hr>132</ns3:hr>
            <ns3:cad>45</ns3:cad>
          </ns3:TrackPointExtension>
        </extensions>
      </trkpt>
      <trkpt lat="45.3117821551859378814697265625" lon="-71.0328768007457256317138671875">
        <ele>820</ele>
        <time>2026-08-21T21:38:45.000Z</time>
        <extensions>
          <ns3:TrackPointExtension>
            <ns3:hr>132</ns3:hr>
            <ns3:cad>45</ns3:cad>
          </ns3:TrackPointExtension>
        </extensions>
      </trkpt>
      <trkpt lat="45.3117720969021320343017578125" lon="-71.03288694284856319427490234375">
        <ele>820.20001220703125</ele>
        <time>2026-08-21T21:38:46.000Z</time>
        <extensions>
          <ns3:TrackPointExtension>
            <ns3:hr>133</ns3:hr>
            <ns3:cad>41</ns3:cad>
          </ns3:TrackPointExtension>
        </extensions>
      </trkpt>
      <trkpt lat="45.311760194599628448486328125" lon="-71.0329006053507328033447265625">
        <ele>820.4000244140625</ele>
        <time>2026-08-21T21:38:47.000Z</time>
        <extensions>
          <ns3:TrackPointExtension>
            <ns3:hr>133</ns3:hr>
            <ns3:cad>0</ns3:cad>
          </ns3:TrackPointExtension>
        </extensions>
      </trkpt>
      <trkpt lat="45.31175256706774234771728515625" lon="-71.03290907107293605804443359375">
        <ele>820.5999755859375</ele>
        <time>2026-08-21T21:38:48.000Z</time>
        <extensions>
          <ns3:TrackPointExtension>
            <ns3:hr>132</ns3:hr>
            <ns3:cad>0</ns3:cad>
          </ns3:TrackPointExtension>
        </extensions>
      </trkpt>
      <trkpt lat="45.311746783554553985595703125" lon="-71.03291309438645839691162109375">
        <ele>820.5999755859375</ele>
        <time>2026-08-21T21:38:49.000Z</time>
        <extensions>
          <ns3:TrackPointExtension>
            <ns3:hr>132</ns3:hr>
            <ns3:cad>0</ns3:cad>
          </ns3:TrackPointExtension>
        </extensions>
      </trkpt>
      <trkpt lat="45.3117378987371921539306640625" lon="-71.0329190455377101898193359375">
        <ele>820.79998779296875</ele>
        <time>2026-08-21T21:38:50.000Z</time>
        <extensions>
          <ns3:TrackPointExtension>
            <ns3:hr>133</ns3:hr>
            <ns3:cad>0</ns3:cad>
          </ns3:TrackPointExtension>
        </extensions>
      </trkpt>
      <trkpt lat="45.31173236668109893798828125" lon="-71.03292751125991344451904296875">
        <ele>820.79998779296875</ele>
        <time>2026-08-21T21:38:51.000Z</time>
        <extensions>
          <ns3:TrackPointExtension>
            <ns3:hr>133</ns3:hr>
            <ns3:cad>0</ns3:cad>
          </ns3:TrackPointExtension>
        </extensions>
      </trkpt>
      <trkpt lat="45.3117275051772594451904296875" lon="-71.032930277287960052490234375">
        <ele>821</ele>
        <time>2026-08-21T21:38:52.000Z</time>
        <extensions>
          <ns3:TrackPointExtension>
            <ns3:hr>134</ns3:hr>
            <ns3:cad>0</ns3:cad>
          </ns3:TrackPointExtension>
        </extensions>
      </trkpt>
      <trkpt lat="45.31172105111181735992431640625" lon="-71.03293840773403644561767578125">
        <ele>821</ele>
        <time>2026-08-21T21:38:53.000Z</time>
        <extensions>
          <ns3:TrackPointExtension>
            <ns3:hr>134</ns3:hr>
            <ns3:cad>0</ns3:cad>
          </ns3:TrackPointExtension>
        </extensions>
      </trkpt>
      <trkpt lat="45.31171350739896297454833984375" lon="-71.03294846601784229278564453125">
        <ele>821</ele>
        <time>2026-08-21T21:38:54.000Z</time>
        <extensions>
          <ns3:TrackPointExtension>
            <ns3:hr>135</ns3:hr>
            <ns3:cad>0</ns3:cad>
          </ns3:TrackPointExtension>
        </extensions>
      </trkpt>
      <trkpt lat="45.31170696951448917388916015625" lon="-71.032951064407825469970703125">
        <ele>821.20001220703125</ele>
        <time>2026-08-21T21:38:55.000Z</time>
        <extensions>
          <ns3:TrackPointExtension>
            <ns3:hr>135</ns3:hr>
            <ns3:cad>0</ns3:cad>
          </ns3:TrackPointExtension>
        </extensions>
      </trkpt>
      <trkpt lat="45.31169976107776165008544921875" lon="-71.03294779546558856964111328125">
        <ele>821.20001220703125</ele>
        <time>2026-08-21T21:38:56.000Z</time>
        <extensions>
          <ns3:TrackPointExtension>
            <ns3:hr>135</ns3:hr>
            <ns3:cad>0</ns3:cad>
          </ns3:TrackPointExtension>
        </extensions>
      </trkpt>
      <trkpt lat="45.31168945133686065673828125" lon="-71.03294746018946170806884765625">
        <ele>821.4000244140625</ele>
        <time>2026-08-21T21:38:57.000Z</time>
        <extensions>
          <ns3:TrackPointExtension>
            <ns3:hr>135</ns3:hr>
            <ns3:cad>0</ns3:cad>
          </ns3:TrackPointExtension>
        </extensions>
      </trkpt>
      <trkpt lat="45.3116847574710845947265625" lon="-71.03294712491333484649658203125">
        <ele>821.5999755859375</ele>
        <time>2026-08-21T21:38:58.000Z</time>
        <extensions>
          <ns3:TrackPointExtension>
            <ns3:hr>135</ns3:hr>
            <ns3:cad>0</ns3:cad>
          </ns3:TrackPointExtension>
        </extensions>
      </trkpt>
      <trkpt lat="45.31167377717792987823486328125" lon="-71.03295215405523777008056640625">
        <ele>821.79998779296875</ele>
        <time>2026-08-21T21:38:59.000Z</time>
        <extensions>
          <ns3:TrackPointExtension>
            <ns3:hr>135</ns3:hr>
            <ns3:cad>0</ns3:cad>
          </ns3:TrackPointExtension>
        </extensions>
      </trkpt>
      <trkpt lat="45.3116661496460437774658203125" lon="-71.03295751847326755523681640625">
        <ele>822</ele>
        <time>2026-08-21T21:39:00.000Z</time>
        <extensions>
          <ns3:TrackPointExtension>
            <ns3:hr>135</ns3:hr>
            <ns3:cad>0</ns3:cad>
          </ns3:TrackPointExtension>
        </extensions>
      </trkpt>
      <trkpt lat="45.3116587735712528228759765625" lon="-71.03296170942485332489013671875">
        <ele>822.20001220703125</ele>
        <time>2026-08-21T21:39:01.000Z</time>
        <extensions>
          <ns3:TrackPointExtension>
            <ns3:hr>136</ns3:hr>
            <ns3:cad>50</ns3:cad>
          </ns3:TrackPointExtension>
        </extensions>
      </trkpt>
      <trkpt lat="45.31164762564003467559814453125" lon="-71.03297176770865917205810546875">
        <ele>822.20001220703125</ele>
        <time>2026-08-21T21:39:02.000Z</time>
        <extensions>
          <ns3:TrackPointExtension>
            <ns3:hr>136</ns3:hr>
            <ns3:cad>50</ns3:cad>
          </ns3:TrackPointExtension>
        </extensions>
      </trkpt>
      <trkpt lat="45.3116383217275142669677734375" lon="-71.0329840891063213348388671875">
        <ele>822.4000244140625</ele>
        <time>2026-08-21T21:39:03.000Z</time>
        <extensions>
          <ns3:TrackPointExtension>
            <ns3:hr>136</ns3:hr>
            <ns3:cad>50</ns3:cad>
          </ns3:TrackPointExtension>
        </extensions>
      </trkpt>
      <trkpt lat="45.311632789671421051025390625" lon="-71.03299431502819061279296875">
        <ele>822.5999755859375</ele>
        <time>2026-08-21T21:39:04.000Z</time>
        <extensions>
          <ns3:TrackPointExtension>
            <ns3:hr>136</ns3:hr>
            <ns3:cad>50</ns3:cad>
          </ns3:TrackPointExtension>
        </extensions>
      </trkpt>
      <trkpt lat="45.31162482686340808868408203125" lon="-71.03300211019814014434814453125">
        <ele>822.79998779296875</ele>
        <time>2026-08-21T21:39:05.000Z</time>
        <extensions>
          <ns3:TrackPointExtension>
            <ns3:hr>136</ns3:hr>
            <ns3:cad>50</ns3:cad>
          </ns3:TrackPointExtension>
        </extensions>
      </trkpt>
      <trkpt lat="45.31161292456090450286865234375" lon="-71.03301485069096088409423828125">
        <ele>823</ele>
        <time>2026-08-21T21:39:06.000Z</time>
        <extensions>
          <ns3:TrackPointExtension>
            <ns3:hr>137</ns3:hr>
            <ns3:cad>50</ns3:cad>
          </ns3:TrackPointExtension>
        </extensions>
      </trkpt>
      <trkpt lat="45.31160655431449413299560546875" lon="-71.03302516043186187744140625">
        <ele>823.20001220703125</ele>
        <time>2026-08-21T21:39:07.000Z</time>
        <extensions>
          <ns3:TrackPointExtension>
            <ns3:hr>137</ns3:hr>
            <ns3:cad>50</ns3:cad>
          </ns3:TrackPointExtension>
        </extensions>
      </trkpt>
      <trkpt lat="45.311599262058734893798828125" lon="-71.03303211741149425506591796875">
        <ele>823.20001220703125</ele>
        <time>2026-08-21T21:39:08.000Z</time>
        <extensions>
          <ns3:TrackPointExtension>
            <ns3:hr>138</ns3:hr>
            <ns3:cad>50</ns3:cad>
          </ns3:TrackPointExtension>
        </extensions>
      </trkpt>
      <trkpt lat="45.31158777885138988494873046875" lon="-71.0330357216298580169677734375">
        <ele>823.4000244140625</ele>
        <time>2026-08-21T21:39:09.000Z</time>
        <extensions>
          <ns3:TrackPointExtension>
            <ns3:hr>138</ns3:hr>
            <ns3:cad>50</ns3:cad>
          </ns3:TrackPointExtension>
        </extensions>
      </trkpt>
      <trkpt lat="45.31157252378761768341064453125" lon="-71.03304033167660236358642578125">
        <ele>823.5999755859375</ele>
        <time>2026-08-21T21:39:10.000Z</time>
        <extensions>
          <ns3:TrackPointExtension>
            <ns3:hr>138</ns3:hr>
            <ns3:cad>50</ns3:cad>
          </ns3:TrackPointExtension>
        </extensions>
      </trkpt>
      <trkpt lat="45.31156062148511409759521484375" lon="-71.03305206634104251861572265625">
        <ele>823.79998779296875</ele>
        <time>2026-08-21T21:39:11.000Z</time>
        <extensions>
          <ns3:TrackPointExtension>
            <ns3:hr>138</ns3:hr>
            <ns3:cad>47</ns3:cad>
          </ns3:TrackPointExtension>
        </extensions>
      </trkpt>
      <trkpt lat="45.311551652848720550537109375" lon="-71.0330638848245143890380859375">
        <ele>823.79998779296875</ele>
        <time>2026-08-21T21:39:12.000Z</time>
        <extensions>
          <ns3:TrackPointExtension>
            <ns3:hr>138</ns3:hr>
            <ns3:cad>47</ns3:cad>
          </ns3:TrackPointExtension>
        </extensions>
      </trkpt>
      <trkpt lat="45.31154318712651729583740234375" lon="-71.03307436220347881317138671875">
        <ele>824</ele>
        <time>2026-08-21T21:39:13.000Z</time>
        <extensions>
          <ns3:TrackPointExtension>
            <ns3:hr>138</ns3:hr>
            <ns3:cad>47</ns3:cad>
          </ns3:TrackPointExtension>
        </extensions>
      </trkpt>
      <trkpt lat="45.3115283511579036712646484375" lon="-71.03308894671499729156494140625">
        <ele>824.20001220703125</ele>
        <time>2026-08-21T21:39:14.000Z</time>
        <extensions>
          <ns3:TrackPointExtension>
            <ns3:hr>138</ns3:hr>
            <ns3:cad>47</ns3:cad>
          </ns3:TrackPointExtension>
        </extensions>
      </trkpt>
      <trkpt lat="45.31151753850281238555908203125" lon="-71.0331061296164989471435546875">
        <ele>824.4000244140625</ele>
        <time>2026-08-21T21:39:15.000Z</time>
        <extensions>
          <ns3:TrackPointExtension>
            <ns3:hr>138</ns3:hr>
            <ns3:cad>46</ns3:cad>
          </ns3:TrackPointExtension>
        </extensions>
      </trkpt>
      <trkpt lat="45.31151552684605121612548828125" lon="-71.03313110768795013427734375">
        <ele>824.4000244140625</ele>
        <time>2026-08-21T21:39:16.000Z</time>
        <extensions>
          <ns3:TrackPointExtension>
            <ns3:hr>139</ns3:hr>
            <ns3:cad>46</ns3:cad>
          </ns3:TrackPointExtension>
        </extensions>
      </trkpt>
      <trkpt lat="45.31151644885540008544921875" lon="-71.0331560857594013214111328125">
        <ele>824.5999755859375</ele>
        <time>2026-08-21T21:39:17.000Z</time>
        <extensions>
          <ns3:TrackPointExtension>
            <ns3:hr>138</ns3:hr>
            <ns3:cad>46</ns3:cad>
          </ns3:TrackPointExtension>
        </extensions>
      </trkpt>
      <trkpt lat="45.31151753850281238555908203125" lon="-71.03317201137542724609375">
        <ele>824.5999755859375</ele>
        <time>2026-08-21T21:39:18.000Z</time>
        <extensions>
          <ns3:TrackPointExtension>
            <ns3:hr>138</ns3:hr>
            <ns3:cad>46</ns3:cad>
          </ns3:TrackPointExtension>
        </extensions>
      </trkpt>
      <trkpt lat="45.31152256764471530914306640625" lon="-71.03317796252667903900146484375">
        <ele>824.79998779296875</ele>
        <time>2026-08-21T21:39:19.000Z</time>
        <extensions>
          <ns3:TrackPointExtension>
            <ns3:hr>138</ns3:hr>
            <ns3:cad>46</ns3:cad>
          </ns3:TrackPointExtension>
        </extensions>
      </trkpt>
      <trkpt lat="45.31152256764471530914306640625" lon="-71.0331933014094829559326171875">
        <ele>825</ele>
        <time>2026-08-21T21:39:20.000Z</time>
        <extensions>
          <ns3:TrackPointExtension>
            <ns3:hr>138</ns3:hr>
            <ns3:cad>46</ns3:cad>
          </ns3:TrackPointExtension>
        </extensions>
      </trkpt>
      <trkpt lat="45.3115223161876201629638671875" lon="-71.0332109034061431884765625">
        <ele>825.20001220703125</ele>
        <time>2026-08-21T21:39:21.000Z</time>
        <extensions>
          <ns3:TrackPointExtension>
            <ns3:hr>137</ns3:hr>
            <ns3:cad>46</ns3:cad>
          </ns3:TrackPointExtension>
        </extensions>
      </trkpt>
      <trkpt lat="45.31152893789112567901611328125" lon="-71.0332187823951244354248046875">
        <ele>825.4000244140625</ele>
        <time>2026-08-21T21:39:22.000Z</time>
        <extensions>
          <ns3:TrackPointExtension>
            <ns3:hr>136</ns3:hr>
            <ns3:cad>48</ns3:cad>
          </ns3:TrackPointExtension>
        </extensions>
      </trkpt>
      <trkpt lat="45.31153329648077487945556640625" lon="-71.03323428891599178314208984375">
        <ele>825.5999755859375</ele>
        <time>2026-08-21T21:39:23.000Z</time>
        <extensions>
          <ns3:TrackPointExtension>
            <ns3:hr>135</ns3:hr>
            <ns3:cad>48</ns3:cad>
          </ns3:TrackPointExtension>
        </extensions>
      </trkpt>
      <trkpt lat="45.31153430230915546417236328125" lon="-71.033248119056224822998046875">
        <ele>825.79998779296875</ele>
        <time>2026-08-21T21:39:24.000Z</time>
        <extensions>
          <ns3:TrackPointExtension>
            <ns3:hr>136</ns3:hr>
            <ns3:cad>48</ns3:cad>
          </ns3:TrackPointExtension>
        </extensions>
      </trkpt>
      <trkpt lat="45.3115374036133289337158203125" lon="-71.0332633741199970245361328125">
        <ele>826</ele>
        <time>2026-08-21T21:39:25.000Z</time>
        <extensions>
          <ns3:TrackPointExtension>
            <ns3:hr>136</ns3:hr>
            <ns3:cad>45</ns3:cad>
          </ns3:TrackPointExtension>
        </extensions>
      </trkpt>
      <trkpt lat="45.311544947326183319091796875" lon="-71.03327251039445400238037109375">
        <ele>826</ele>
        <time>2026-08-21T21:39:26.000Z</time>
        <extensions>
          <ns3:TrackPointExtension>
            <ns3:hr>136</ns3:hr>
            <ns3:cad>45</ns3:cad>
          </ns3:TrackPointExtension>
        </extensions>
      </trkpt>
      <trkpt lat="45.31155575998127460479736328125" lon="-71.0332838259637355804443359375">
        <ele>826</ele>
        <time>2026-08-21T21:39:27.000Z</time>
        <extensions>
          <ns3:TrackPointExtension>
            <ns3:hr>136</ns3:hr>
            <ns3:cad>45</ns3:cad>
          </ns3:TrackPointExtension>
        </extensions>
      </trkpt>
      <trkpt lat="45.3115679137408733367919921875" lon="-71.03329028002917766571044921875">
        <ele>826.20001220703125</ele>
        <time>2026-08-21T21:39:28.000Z</time>
        <extensions>
          <ns3:TrackPointExtension>
            <ns3:hr>136</ns3:hr>
            <ns3:cad>45</ns3:cad>
          </ns3:TrackPointExtension>
        </extensions>
      </trkpt>
      <trkpt lat="45.31157738529145717620849609375" lon="-71.03329732082784175872802734375">
        <ele>826.20001220703125</ele>
        <time>2026-08-21T21:39:29.000Z</time>
        <extensions>
          <ns3:TrackPointExtension>
            <ns3:hr>136</ns3:hr>
            <ns3:cad>45</ns3:cad>
          </ns3:TrackPointExtension>
        </extensions>
      </trkpt>
      <trkpt lat="45.31158425845205783843994140625" lon="-71.033304445445537567138671875">
        <ele>826.20001220703125</ele>
        <time>2026-08-21T21:39:30.000Z</time>
        <extensions>
          <ns3:TrackPointExtension>
            <ns3:hr>136</ns3:hr>
            <ns3:cad>47</ns3:cad>
          </ns3:TrackPointExtension>
        </extensions>
      </trkpt>
      <trkpt lat="45.3115947358310222625732421875" lon="-71.033311821520328521728515625">
        <ele>826.20001220703125</ele>
        <time>2026-08-21T21:39:31.000Z</time>
        <extensions>
          <ns3:TrackPointExtension>
            <ns3:hr>135</ns3:hr>
            <ns3:cad>47</ns3:cad>
          </ns3:TrackPointExtension>
        </extensions>
      </trkpt>
      <trkpt lat="45.311602614820003509521484375" lon="-71.0333166830241680145263671875">
        <ele>826.4000244140625</ele>
        <time>2026-08-21T21:39:32.000Z</time>
        <extensions>
          <ns3:TrackPointExtension>
            <ns3:hr>135</ns3:hr>
            <ns3:cad>46</ns3:cad>
          </ns3:TrackPointExtension>
        </extensions>
      </trkpt>
      <trkpt lat="45.3116088174283504486083984375" lon="-71.03332716040313243865966796875">
        <ele>826.4000244140625</ele>
        <time>2026-08-21T21:39:33.000Z</time>
        <extensions>
          <ns3:TrackPointExtension>
            <ns3:hr>134</ns3:hr>
            <ns3:cad>44</ns3:cad>
          </ns3:TrackPointExtension>
        </extensions>
      </trkpt>
      <trkpt lat="45.31161300837993621826171875" lon="-71.0333369672298431396484375">
        <ele>826.4000244140625</ele>
        <time>2026-08-21T21:39:34.000Z</time>
        <extensions>
          <ns3:TrackPointExtension>
            <ns3:hr>133</ns3:hr>
            <ns3:cad>44</ns3:cad>
          </ns3:TrackPointExtension>
        </extensions>
      </trkpt>
      <trkpt lat="45.31161694787442684173583984375" lon="-71.03334291838109493255615234375">
        <ele>826.4000244140625</ele>
        <time>2026-08-21T21:39:35.000Z</time>
        <extensions>
          <ns3:TrackPointExtension>
            <ns3:hr>133</ns3:hr>
            <ns3:cad>44</ns3:cad>
          </ns3:TrackPointExtension>
        </extensions>
      </trkpt>
      <trkpt lat="45.311622731387615203857421875" lon="-71.03334828279912471771240234375">
        <ele>826.4000244140625</ele>
        <time>2026-08-21T21:39:36.000Z</time>
        <extensions>
          <ns3:TrackPointExtension>
            <ns3:hr>133</ns3:hr>
            <ns3:cad>44</ns3:cad>
          </ns3:TrackPointExtension>
        </extensions>
      </trkpt>
      <trkpt lat="45.31162247993052005767822265625" lon="-71.03335817344486713409423828125">
        <ele>826.4000244140625</ele>
        <time>2026-08-21T21:39:37.000Z</time>
        <extensions>
          <ns3:TrackPointExtension>
            <ns3:hr>134</ns3:hr>
            <ns3:cad>47</ns3:cad>
          </ns3:TrackPointExtension>
        </extensions>
      </trkpt>
      <trkpt lat="45.31162566505372524261474609375" lon="-71.03336789645254611968994140625">
        <ele>826.5999755859375</ele>
        <time>2026-08-21T21:39:38.000Z</time>
        <extensions>
          <ns3:TrackPointExtension>
            <ns3:hr>134</ns3:hr>
            <ns3:cad>47</ns3:cad>
          </ns3:TrackPointExtension>
        </extensions>
      </trkpt>
      <trkpt lat="45.31163220293819904327392578125" lon="-71.0333787091076374053955078125">
        <ele>826.5999755859375</ele>
        <time>2026-08-21T21:39:39.000Z</time>
        <extensions>
          <ns3:TrackPointExtension>
            <ns3:hr>134</ns3:hr>
            <ns3:cad>48</ns3:cad>
          </ns3:TrackPointExtension>
        </extensions>
      </trkpt>
      <trkpt lat="45.31163446605205535888671875" lon="-71.03339220397174358367919921875">
        <ele>826.79998779296875</ele>
        <time>2026-08-21T21:39:40.000Z</time>
        <extensions>
          <ns3:TrackPointExtension>
            <ns3:hr>134</ns3:hr>
            <ns3:cad>49</ns3:cad>
          </ns3:TrackPointExtension>
        </extensions>
      </trkpt>
      <trkpt lat="45.3116416744887828826904296875" lon="-71.0334011726081371307373046875">
        <ele>827</ele>
        <time>2026-08-21T21:39:41.000Z</time>
        <extensions>
          <ns3:TrackPointExtension>
            <ns3:hr>134</ns3:hr>
            <ns3:cad>49</ns3:cad>
          </ns3:TrackPointExtension>
        </extensions>
      </trkpt>
      <trkpt lat="45.31164427287876605987548828125" lon="-71.03340997360646724700927734375">
        <ele>827.20001220703125</ele>
        <time>2026-08-21T21:39:42.000Z</time>
        <extensions>
          <ns3:TrackPointExtension>
            <ns3:hr>133</ns3:hr>
            <ns3:cad>49</ns3:cad>
          </ns3:TrackPointExtension>
        </extensions>
      </trkpt>
      <trkpt lat="45.311648882925510406494140625" lon="-71.033425144851207733154296875">
        <ele>827.4000244140625</ele>
        <time>2026-08-21T21:39:43.000Z</time>
        <extensions>
          <ns3:TrackPointExtension>
            <ns3:hr>133</ns3:hr>
            <ns3:cad>49</ns3:cad>
          </ns3:TrackPointExtension>
        </extensions>
      </trkpt>
      <trkpt lat="45.31164879910647869110107421875" lon="-71.03344098664820194244384765625">
        <ele>827.5999755859375</ele>
        <time>2026-08-21T21:39:44.000Z</time>
        <extensions>
          <ns3:TrackPointExtension>
            <ns3:hr>132</ns3:hr>
            <ns3:cad>47</ns3:cad>
          </ns3:TrackPointExtension>
        </extensions>
      </trkpt>
      <trkpt lat="45.31164678744971752166748046875" lon="-71.03345607407391071319580078125">
        <ele>827.79998779296875</ele>
        <time>2026-08-21T21:39:45.000Z</time>
        <extensions>
          <ns3:TrackPointExtension>
            <ns3:hr>132</ns3:hr>
            <ns3:cad>47</ns3:cad>
          </ns3:TrackPointExtension>
        </extensions>
      </trkpt>
      <trkpt lat="45.31164779327809810638427734375" lon="-71.0334685631096363067626953125">
        <ele>828</ele>
        <time>2026-08-21T21:39:46.000Z</time>
        <extensions>
          <ns3:TrackPointExtension>
            <ns3:hr>132</ns3:hr>
            <ns3:cad>46</ns3:cad>
          </ns3:TrackPointExtension>
        </extensions>
      </trkpt>
      <trkpt lat="45.31165131367743015289306640625" lon="-71.03348893113434314727783203125">
        <ele>828.20001220703125</ele>
        <time>2026-08-21T21:39:47.000Z</time>
        <extensions>
          <ns3:TrackPointExtension>
            <ns3:hr>132</ns3:hr>
            <ns3:cad>45</ns3:cad>
          </ns3:TrackPointExtension>
        </extensions>
      </trkpt>
      <trkpt lat="45.31165366061031818389892578125" lon="-71.03350267745554447174072265625">
        <ele>828.4000244140625</ele>
        <time>2026-08-21T21:39:48.000Z</time>
        <extensions>
          <ns3:TrackPointExtension>
            <ns3:hr>132</ns3:hr>
            <ns3:cad>45</ns3:cad>
          </ns3:TrackPointExtension>
        </extensions>
      </trkpt>
      <trkpt lat="45.31165047548711299896240234375" lon="-71.03352128528058528900146484375">
        <ele>828.4000244140625</ele>
        <time>2026-08-21T21:39:49.000Z</time>
        <extensions>
          <ns3:TrackPointExtension>
            <ns3:hr>132</ns3:hr>
            <ns3:cad>45</ns3:cad>
          </ns3:TrackPointExtension>
        </extensions>
      </trkpt>
      <trkpt lat="45.3116500563919544219970703125" lon="-71.03353754617273807525634765625">
        <ele>828.4000244140625</ele>
        <time>2026-08-21T21:39:50.000Z</time>
        <extensions>
          <ns3:TrackPointExtension>
            <ns3:hr>132</ns3:hr>
            <ns3:cad>45</ns3:cad>
          </ns3:TrackPointExtension>
        </extensions>
      </trkpt>
      <trkpt lat="45.311650224030017852783203125" lon="-71.0335510410368442535400390625">
        <ele>828.5999755859375</ele>
        <time>2026-08-21T21:39:51.000Z</time>
        <extensions>
          <ns3:TrackPointExtension>
            <ns3:hr>132</ns3:hr>
            <ns3:cad>48</ns3:cad>
          </ns3:TrackPointExtension>
        </extensions>
      </trkpt>
      <trkpt lat="45.31165164895355701446533203125" lon="-71.03356554172933101654052734375">
        <ele>828.5999755859375</ele>
        <time>2026-08-21T21:39:52.000Z</time>
        <extensions>
          <ns3:TrackPointExtension>
            <ns3:hr>131</ns3:hr>
            <ns3:cad>48</ns3:cad>
          </ns3:TrackPointExtension>
        </extensions>
      </trkpt>
      <trkpt lat="45.31164921820163726806640625" lon="-71.03358649648725986480712890625">
        <ele>828.79998779296875</ele>
        <time>2026-08-21T21:39:53.000Z</time>
        <extensions>
          <ns3:TrackPointExtension>
            <ns3:hr>132</ns3:hr>
            <ns3:cad>48</ns3:cad>
          </ns3:TrackPointExtension>
        </extensions>
      </trkpt>
      <trkpt lat="45.31165081076323986053466796875" lon="-71.03361256420612335205078125">
        <ele>828.79998779296875</ele>
        <time>2026-08-21T21:39:54.000Z</time>
        <extensions>
          <ns3:TrackPointExtension>
            <ns3:hr>133</ns3:hr>
            <ns3:cad>49</ns3:cad>
          </ns3:TrackPointExtension>
        </extensions>
      </trkpt>
      <trkpt lat="45.3116524033248424530029296875" lon="-71.03363159112632274627685546875">
        <ele>828.79998779296875</ele>
        <time>2026-08-21T21:39:55.000Z</time>
        <extensions>
          <ns3:TrackPointExtension>
            <ns3:hr>132</ns3:hr>
            <ns3:cad>49</ns3:cad>
          </ns3:TrackPointExtension>
        </extensions>
      </trkpt>
      <trkpt lat="45.31165785156190395355224609375" lon="-71.03365472517907619476318359375">
        <ele>828.79998779296875</ele>
        <time>2026-08-21T21:39:56.000Z</time>
        <extensions>
          <ns3:TrackPointExtension>
            <ns3:hr>132</ns3:hr>
            <ns3:cad>48</ns3:cad>
          </ns3:TrackPointExtension>
        </extensions>
      </trkpt>
      <trkpt lat="45.311662293970584869384765625" lon="-71.03366998024284839630126953125">
        <ele>828.79998779296875</ele>
        <time>2026-08-21T21:39:57.000Z</time>
        <extensions>
          <ns3:TrackPointExtension>
            <ns3:hr>132</ns3:hr>
            <ns3:cad>48</ns3:cad>
          </ns3:TrackPointExtension>
        </extensions>
      </trkpt>
      <trkpt lat="45.311666987836360931396484375" lon="-71.0336856544017791748046875">
        <ele>828.79998779296875</ele>
        <time>2026-08-21T21:39:58.000Z</time>
        <extensions>
          <ns3:TrackPointExtension>
            <ns3:hr>132</ns3:hr>
            <ns3:cad>48</ns3:cad>
          </ns3:TrackPointExtension>
        </extensions>
      </trkpt>
      <trkpt lat="45.31166933476924896240234375" lon="-71.03369914926588535308837890625">
        <ele>828.79998779296875</ele>
        <time>2026-08-21T21:39:59.000Z</time>
        <extensions>
          <ns3:TrackPointExtension>
            <ns3:hr>132</ns3:hr>
            <ns3:cad>48</ns3:cad>
          </ns3:TrackPointExtension>
        </extensions>
      </trkpt>
      <trkpt lat="45.31167277134954929351806640625" lon="-71.03371909819543361663818359375">
        <ele>829</ele>
        <time>2026-08-21T21:40:00.000Z</time>
        <extensions>
          <ns3:TrackPointExtension>
            <ns3:hr>132</ns3:hr>
            <ns3:cad>48</ns3:cad>
          </ns3:TrackPointExtension>
        </extensions>
      </trkpt>
      <trkpt lat="45.3116740286350250244140625" lon="-71.03373418562114238739013671875">
        <ele>829.20001220703125</ele>
        <time>2026-08-21T21:40:01.000Z</time>
        <extensions>
          <ns3:TrackPointExtension>
            <ns3:hr>132</ns3:hr>
            <ns3:cad>48</ns3:cad>
          </ns3:TrackPointExtension>
        </extensions>
      </trkpt>
      <trkpt lat="45.3116738609969615936279296875" lon="-71.03374642319977283477783203125">
        <ele>829.4000244140625</ele>
        <time>2026-08-21T21:40:02.000Z</time>
        <extensions>
          <ns3:TrackPointExtension>
            <ns3:hr>133</ns3:hr>
            <ns3:cad>48</ns3:cad>
          </ns3:TrackPointExtension>
        </extensions>
      </trkpt>
      <trkpt lat="45.31167562119662761688232421875" lon="-71.033757738769054412841796875">
        <ele>829.5999755859375</ele>
        <time>2026-08-21T21:40:03.000Z</time>
        <extensions>
          <ns3:TrackPointExtension>
            <ns3:hr>132</ns3:hr>
            <ns3:cad>49</ns3:cad>
          </ns3:TrackPointExtension>
        </extensions>
      </trkpt>
      <trkpt lat="45.31167897395789623260498046875" lon="-71.03377223946154117584228515625">
        <ele>829.5999755859375</ele>
        <time>2026-08-21T21:40:04.000Z</time>
        <extensions>
          <ns3:TrackPointExtension>
            <ns3:hr>132</ns3:hr>
            <ns3:cad>49</ns3:cad>
          </ns3:TrackPointExtension>
        </extensions>
      </trkpt>
      <trkpt lat="45.31168702058494091033935546875" lon="-71.03378648869693279266357421875">
        <ele>829.79998779296875</ele>
        <time>2026-08-21T21:40:05.000Z</time>
        <extensions>
          <ns3:TrackPointExtension>
            <ns3:hr>132</ns3:hr>
            <ns3:cad>49</ns3:cad>
          </ns3:TrackPointExtension>
        </extensions>
      </trkpt>
      <trkpt lat="45.31169171445071697235107421875" lon="-71.0338031686842441558837890625">
        <ele>830</ele>
        <time>2026-08-21T21:40:06.000Z</time>
        <extensions>
          <ns3:TrackPointExtension>
            <ns3:hr>133</ns3:hr>
            <ns3:cad>50</ns3:cad>
          </ns3:TrackPointExtension>
        </extensions>
      </trkpt>
      <trkpt lat="45.31169347465038299560546875" lon="-71.0338192619383335113525390625">
        <ele>830.20001220703125</ele>
        <time>2026-08-21T21:40:07.000Z</time>
        <extensions>
          <ns3:TrackPointExtension>
            <ns3:hr>133</ns3:hr>
            <ns3:cad>50</ns3:cad>
          </ns3:TrackPointExtension>
        </extensions>
      </trkpt>
      <trkpt lat="45.31169607304036617279052734375" lon="-71.0338304936885833740234375">
        <ele>830.20001220703125</ele>
        <time>2026-08-21T21:40:08.000Z</time>
        <extensions>
          <ns3:TrackPointExtension>
            <ns3:hr>133</ns3:hr>
            <ns3:cad>50</ns3:cad>
          </ns3:TrackPointExtension>
        </extensions>
      </trkpt>
      <trkpt lat="45.31169791705906391143798828125" lon="-71.03384097106754779815673828125">
        <ele>830.4000244140625</ele>
        <time>2026-08-21T21:40:09.000Z</time>
        <extensions>
          <ns3:TrackPointExtension>
            <ns3:hr>134</ns3:hr>
            <ns3:cad>49</ns3:cad>
          </ns3:TrackPointExtension>
        </extensions>
      </trkpt>
      <trkpt lat="45.31169540248811244964599609375" lon="-71.033842898905277252197265625">
        <ele>830.4000244140625</ele>
        <time>2026-08-21T21:40:10.000Z</time>
        <extensions>
          <ns3:TrackPointExtension>
            <ns3:hr>134</ns3:hr>
            <ns3:cad>49</ns3:cad>
          </ns3:TrackPointExtension>
        </extensions>
      </trkpt>
      <trkpt lat="45.3116912953555583953857421875" lon="-71.03384952060878276824951171875">
        <ele>830.5999755859375</ele>
        <time>2026-08-21T21:40:11.000Z</time>
        <extensions>
          <ns3:TrackPointExtension>
            <ns3:hr>134</ns3:hr>
            <ns3:cad>52</ns3:cad>
          </ns3:TrackPointExtension>
        </extensions>
      </trkpt>
      <trkpt lat="45.31168811023235321044921875" lon="-71.0338599979877471923828125">
        <ele>830.79998779296875</ele>
        <time>2026-08-21T21:40:12.000Z</time>
        <extensions>
          <ns3:TrackPointExtension>
            <ns3:hr>134</ns3:hr>
            <ns3:cad>52</ns3:cad>
          </ns3:TrackPointExtension>
        </extensions>
      </trkpt>
      <trkpt lat="45.311680398881435394287109375" lon="-71.0338715650141239166259765625">
        <ele>831</ele>
        <time>2026-08-21T21:40:13.000Z</time>
        <extensions>
          <ns3:TrackPointExtension>
            <ns3:hr>133</ns3:hr>
            <ns3:cad>52</ns3:cad>
          </ns3:TrackPointExtension>
        </extensions>
      </trkpt>
      <trkpt lat="45.31167377717792987823486328125" lon="-71.03388304822146892547607421875">
        <ele>831</ele>
        <time>2026-08-21T21:40:14.000Z</time>
        <extensions>
          <ns3:TrackPointExtension>
            <ns3:hr>133</ns3:hr>
            <ns3:cad>47</ns3:cad>
          </ns3:TrackPointExtension>
        </extensions>
      </trkpt>
      <trkpt lat="45.31167176552116870880126953125" lon="-71.03389930911362171173095703125">
        <ele>831.20001220703125</ele>
        <time>2026-08-21T21:40:15.000Z</time>
        <extensions>
          <ns3:TrackPointExtension>
            <ns3:hr>133</ns3:hr>
            <ns3:cad>47</ns3:cad>
          </ns3:TrackPointExtension>
        </extensions>
      </trkpt>
      <trkpt lat="45.31167226843535900115966796875" lon="-71.03391406126320362091064453125">
        <ele>831.20001220703125</ele>
        <time>2026-08-21T21:40:16.000Z</time>
        <extensions>
          <ns3:TrackPointExtension>
            <ns3:hr>133</ns3:hr>
            <ns3:cad>52</ns3:cad>
          </ns3:TrackPointExtension>
        </extensions>
      </trkpt>
      <trkpt lat="45.3116741962730884552001953125" lon="-71.03392965160310268402099609375">
        <ele>831.20001220703125</ele>
        <time>2026-08-21T21:40:17.000Z</time>
        <extensions>
          <ns3:TrackPointExtension>
            <ns3:hr>132</ns3:hr>
            <ns3:cad>52</ns3:cad>
          </ns3:TrackPointExtension>
        </extensions>
      </trkpt>
      <trkpt lat="45.31167293898761272430419921875" lon="-71.03394574485719203948974609375">
        <ele>831</ele>
        <time>2026-08-21T21:40:18.000Z</time>
        <extensions>
          <ns3:TrackPointExtension>
            <ns3:hr>132</ns3:hr>
            <ns3:cad>52</ns3:cad>
          </ns3:TrackPointExtension>
        </extensions>
      </trkpt>
      <trkpt lat="45.31167528592050075531005859375" lon="-71.03396234102547168731689453125">
        <ele>831</ele>
        <time>2026-08-21T21:40:19.000Z</time>
        <extensions>
          <ns3:TrackPointExtension>
            <ns3:hr>132</ns3:hr>
            <ns3:cad>52</ns3:cad>
          </ns3:TrackPointExtension>
        </extensions>
      </trkpt>
      <trkpt lat="45.311686098575592041015625" lon="-71.03398463688790798187255859375">
        <ele>830.79998779296875</ele>
        <time>2026-08-21T21:40:20.000Z</time>
        <extensions>
          <ns3:TrackPointExtension>
            <ns3:hr>132</ns3:hr>
            <ns3:cad>49</ns3:cad>
          </ns3:TrackPointExtension>
        </extensions>
      </trkpt>
      <trkpt lat="45.311694480478763580322265625" lon="-71.03400592692196369171142578125">
        <ele>830.5999755859375</ele>
        <time>2026-08-21T21:40:21.000Z</time>
        <extensions>
          <ns3:TrackPointExtension>
            <ns3:hr>132</ns3:hr>
            <ns3:cad>49</ns3:cad>
          </ns3:TrackPointExtension>
        </extensions>
      </trkpt>
      <trkpt lat="45.3117003478109836578369140625" lon="-71.0340308211743831634521484375">
        <ele>830.4000244140625</ele>
        <time>2026-08-21T21:40:22.000Z</time>
        <extensions>
          <ns3:TrackPointExtension>
            <ns3:hr>132</ns3:hr>
            <ns3:cad>49</ns3:cad>
          </ns3:TrackPointExtension>
        </extensions>
      </trkpt>
      <trkpt lat="45.31170596368610858917236328125" lon="-71.03405504487454891204833984375">
        <ele>830.20001220703125</ele>
        <time>2026-08-21T21:40:23.000Z</time>
        <extensions>
          <ns3:TrackPointExtension>
            <ns3:hr>132</ns3:hr>
            <ns3:cad>53</ns3:cad>
          </ns3:TrackPointExtension>
        </extensions>
      </trkpt>
      <trkpt lat="45.3117130883038043975830078125" lon="-71.03407382033765316009521484375">
        <ele>830.20001220703125</ele>
        <time>2026-08-21T21:40:24.000Z</time>
        <extensions>
          <ns3:TrackPointExtension>
            <ns3:hr>132</ns3:hr>
            <ns3:cad>53</ns3:cad>
          </ns3:TrackPointExtension>
        </extensions>
      </trkpt>
      <trkpt lat="45.3117228113114833831787109375" lon="-71.03408672846853733062744140625">
        <ele>830</ele>
        <time>2026-08-21T21:40:25.000Z</time>
        <extensions>
          <ns3:TrackPointExtension>
            <ns3:hr>132</ns3:hr>
            <ns3:cad>53</ns3:cad>
          </ns3:TrackPointExtension>
        </extensions>
      </trkpt>
      <trkpt lat="45.31172909773886203765869140625" lon="-71.03409913368523120880126953125">
        <ele>830</ele>
        <time>2026-08-21T21:40:26.000Z</time>
        <extensions>
          <ns3:TrackPointExtension>
            <ns3:hr>131</ns3:hr>
            <ns3:cad>53</ns3:cad>
          </ns3:TrackPointExtension>
        </extensions>
      </trkpt>
      <trkpt lat="45.31172725372016429901123046875" lon="-71.034115143120288848876953125">
        <ele>829.79998779296875</ele>
        <time>2026-08-21T21:40:27.000Z</time>
        <extensions>
          <ns3:TrackPointExtension>
            <ns3:hr>131</ns3:hr>
            <ns3:cad>53</ns3:cad>
          </ns3:TrackPointExtension>
        </extensions>
      </trkpt>
      <trkpt lat="45.31172624789178371429443359375" lon="-71.03412277065217494964599609375">
        <ele>829.79998779296875</ele>
        <time>2026-08-21T21:40:28.000Z</time>
        <extensions>
          <ns3:TrackPointExtension>
            <ns3:hr>131</ns3:hr>
            <ns3:cad>53</ns3:cad>
          </ns3:TrackPointExtension>
        </extensions>
      </trkpt>
      <trkpt lat="45.3117174468934535980224609375" lon="-71.03414422832429409027099609375">
        <ele>829.79998779296875</ele>
        <time>2026-08-21T21:40:29.000Z</time>
        <extensions>
          <ns3:TrackPointExtension>
            <ns3:hr>131</ns3:hr>
            <ns3:cad>53</ns3:cad>
          </ns3:TrackPointExtension>
        </extensions>
      </trkpt>
      <trkpt lat="45.3117134235799312591552734375" lon="-71.03415973484516143798828125">
        <ele>829.79998779296875</ele>
        <time>2026-08-21T21:40:30.000Z</time>
        <extensions>
          <ns3:TrackPointExtension>
            <ns3:hr>131</ns3:hr>
            <ns3:cad>53</ns3:cad>
          </ns3:TrackPointExtension>
        </extensions>
      </trkpt>
      <trkpt lat="45.3117083944380283355712890625" lon="-71.03417406789958477020263671875">
        <ele>829.79998779296875</ele>
        <time>2026-08-21T21:40:31.000Z</time>
        <extensions>
          <ns3:TrackPointExtension>
            <ns3:hr>131</ns3:hr>
            <ns3:cad>53</ns3:cad>
          </ns3:TrackPointExtension>
        </extensions>
      </trkpt>
      <trkpt lat="45.3117035329341888427734375" lon="-71.0341904126107692718505859375">
        <ele>830</ele>
        <time>2026-08-21T21:40:32.000Z</time>
        <extensions>
          <ns3:TrackPointExtension>
            <ns3:hr>130</ns3:hr>
            <ns3:cad>53</ns3:cad>
          </ns3:TrackPointExtension>
        </extensions>
      </trkpt>
      <trkpt lat="45.3116969950497150421142578125" lon="-71.03419862687587738037109375">
        <ele>830</ele>
        <time>2026-08-21T21:40:33.000Z</time>
        <extensions>
          <ns3:TrackPointExtension>
            <ns3:hr>130</ns3:hr>
            <ns3:cad>53</ns3:cad>
          </ns3:TrackPointExtension>
        </extensions>
      </trkpt>
      <trkpt lat="45.31168676912784576416015625" lon="-71.0342051647603511810302734375">
        <ele>830.20001220703125</ele>
        <time>2026-08-21T21:40:34.000Z</time>
        <extensions>
          <ns3:TrackPointExtension>
            <ns3:hr>130</ns3:hr>
            <ns3:cad>53</ns3:cad>
          </ns3:TrackPointExtension>
        </extensions>
      </trkpt>
      <trkpt lat="45.3116755373775959014892578125" lon="-71.03421631269156932830810546875">
        <ele>830.4000244140625</ele>
        <time>2026-08-21T21:40:35.000Z</time>
        <extensions>
          <ns3:TrackPointExtension>
            <ns3:hr>130</ns3:hr>
            <ns3:cad>53</ns3:cad>
          </ns3:TrackPointExtension>
        </extensions>
      </trkpt>
      <trkpt lat="45.31166757456958293914794921875" lon="-71.03422285057604312896728515625">
        <ele>830.4000244140625</ele>
        <time>2026-08-21T21:40:36.000Z</time>
        <extensions>
          <ns3:TrackPointExtension>
            <ns3:hr>130</ns3:hr>
            <ns3:cad>53</ns3:cad>
          </ns3:TrackPointExtension>
        </extensions>
      </trkpt>
      <trkpt lat="45.3116564266383647918701171875" lon="-71.034229807555675506591796875">
        <ele>830.5999755859375</ele>
        <time>2026-08-21T21:40:37.000Z</time>
        <extensions>
          <ns3:TrackPointExtension>
            <ns3:hr>130</ns3:hr>
            <ns3:cad>0</ns3:cad>
          </ns3:TrackPointExtension>
        </extensions>
      </trkpt>
      <trkpt lat="45.31164276413619518280029296875" lon="-71.03423877619206905364990234375">
        <ele>830.79998779296875</ele>
        <time>2026-08-21T21:40:38.000Z</time>
        <extensions>
          <ns3:TrackPointExtension>
            <ns3:hr>129</ns3:hr>
            <ns3:cad>0</ns3:cad>
          </ns3:TrackPointExtension>
        </extensions>
      </trkpt>
      <trkpt lat="45.311634130775928497314453125" lon="-71.0342462360858917236328125">
        <ele>830.79998779296875</ele>
        <time>2026-08-21T21:40:39.000Z</time>
        <extensions>
          <ns3:TrackPointExtension>
            <ns3:hr>129</ns3:hr>
            <ns3:cad>0</ns3:cad>
          </ns3:TrackPointExtension>
        </extensions>
      </trkpt>
      <trkpt lat="45.31162298284471035003662109375" lon="-71.03425755165517330169677734375">
        <ele>831.20001220703125</ele>
        <time>2026-08-21T21:40:40.000Z</time>
        <extensions>
          <ns3:TrackPointExtension>
            <ns3:hr>128</ns3:hr>
            <ns3:cad>51</ns3:cad>
          </ns3:TrackPointExtension>
        </extensions>
      </trkpt>
      <trkpt lat="45.31161812134087085723876953125" lon="-71.03426241315901279449462890625">
        <ele>831.4000244140625</ele>
        <time>2026-08-21T21:40:41.000Z</time>
        <extensions>
          <ns3:TrackPointExtension>
            <ns3:hr>127</ns3:hr>
            <ns3:cad>51</ns3:cad>
          </ns3:TrackPointExtension>
        </extensions>
      </trkpt>
      <trkpt lat="45.31161032617092132568359375" lon="-71.0342708788812160491943359375">
        <ele>831.5999755859375</ele>
        <time>2026-08-21T21:40:42.000Z</time>
        <extensions>
          <ns3:TrackPointExtension>
            <ns3:hr>127</ns3:hr>
            <ns3:cad>51</ns3:cad>
          </ns3:TrackPointExtension>
        </extensions>
      </trkpt>
      <trkpt lat="45.31160253100097179412841796875" lon="-71.03427984751760959625244140625">
        <ele>831.79998779296875</ele>
        <time>2026-08-21T21:40:43.000Z</time>
        <extensions>
          <ns3:TrackPointExtension>
            <ns3:hr>126</ns3:hr>
            <ns3:cad>51</ns3:cad>
          </ns3:TrackPointExtension>
        </extensions>
      </trkpt>
      <trkpt lat="45.31159766949713230133056640625" lon="-71.0342859663069248199462890625">
        <ele>832</ele>
        <time>2026-08-21T21:40:44.000Z</time>
        <extensions>
          <ns3:TrackPointExtension>
            <ns3:hr>126</ns3:hr>
            <ns3:cad>0</ns3:cad>
          </ns3:TrackPointExtension>
        </extensions>
      </trkpt>
      <trkpt lat="45.31159297563135623931884765625" lon="-71.03428973816335201263427734375">
        <ele>832.20001220703125</ele>
        <time>2026-08-21T21:40:45.000Z</time>
        <extensions>
          <ns3:TrackPointExtension>
            <ns3:hr>126</ns3:hr>
            <ns3:cad>0</ns3:cad>
          </ns3:TrackPointExtension>
        </extensions>
      </trkpt>
      <trkpt lat="45.3115813247859477996826171875" lon="-71.03430323302745819091796875">
        <ele>832.5999755859375</ele>
        <time>2026-08-21T21:40:46.000Z</time>
        <extensions>
          <ns3:TrackPointExtension>
            <ns3:hr>126</ns3:hr>
            <ns3:cad>0</ns3:cad>
          </ns3:TrackPointExtension>
        </extensions>
      </trkpt>
      <trkpt lat="45.31157554127275943756103515625" lon="-71.034312285482883453369140625">
        <ele>832.79998779296875</ele>
        <time>2026-08-21T21:40:47.000Z</time>
        <extensions>
          <ns3:TrackPointExtension>
            <ns3:hr>127</ns3:hr>
            <ns3:cad>0</ns3:cad>
          </ns3:TrackPointExtension>
        </extensions>
      </trkpt>
      <trkpt lat="45.31157000921666622161865234375" lon="-71.034318991005420684814453125">
        <ele>833</ele>
        <time>2026-08-21T21:40:48.000Z</time>
        <extensions>
          <ns3:TrackPointExtension>
            <ns3:hr>127</ns3:hr>
            <ns3:cad>0</ns3:cad>
          </ns3:TrackPointExtension>
        </extensions>
      </trkpt>
      <trkpt lat="45.31156196258962154388427734375" lon="-71.034328043460845947265625">
        <ele>833.20001220703125</ele>
        <time>2026-08-21T21:40:49.000Z</time>
        <extensions>
          <ns3:TrackPointExtension>
            <ns3:hr>127</ns3:hr>
            <ns3:cad>0</ns3:cad>
          </ns3:TrackPointExtension>
        </extensions>
      </trkpt>
      <trkpt lat="45.31155425123870372772216796875" lon="-71.03434103541076183319091796875">
        <ele>833.4000244140625</ele>
        <time>2026-08-21T21:40:50.000Z</time>
        <extensions>
          <ns3:TrackPointExtension>
            <ns3:hr>127</ns3:hr>
            <ns3:cad>41</ns3:cad>
          </ns3:TrackPointExtension>
        </extensions>
      </trkpt>
      <trkpt lat="45.31154419295489788055419921875" lon="-71.0343553684651851654052734375">
        <ele>833.4000244140625</ele>
        <time>2026-08-21T21:40:51.000Z</time>
        <extensions>
          <ns3:TrackPointExtension>
            <ns3:hr>126</ns3:hr>
            <ns3:cad>41</ns3:cad>
          </ns3:TrackPointExtension>
        </extensions>
      </trkpt>
      <trkpt lat="45.31153916381299495697021484375" lon="-71.0343682765960693359375">
        <ele>833.5999755859375</ele>
        <time>2026-08-21T21:40:52.000Z</time>
        <extensions>
          <ns3:TrackPointExtension>
            <ns3:hr>126</ns3:hr>
            <ns3:cad>47</ns3:cad>
          </ns3:TrackPointExtension>
        </extensions>
      </trkpt>
      <trkpt lat="45.31152960844337940216064453125" lon="-71.03437674231827259063720703125">
        <ele>833.5999755859375</ele>
        <time>2026-08-21T21:40:53.000Z</time>
        <extensions>
          <ns3:TrackPointExtension>
            <ns3:hr>127</ns3:hr>
            <ns3:cad>47</ns3:cad>
          </ns3:TrackPointExtension>
        </extensions>
      </trkpt>
      <trkpt lat="45.3115186281502246856689453125" lon="-71.0343830287456512451171875">
        <ele>833.79998779296875</ele>
        <time>2026-08-21T21:40:54.000Z</time>
        <extensions>
          <ns3:TrackPointExtension>
            <ns3:hr>127</ns3:hr>
            <ns3:cad>47</ns3:cad>
          </ns3:TrackPointExtension>
        </extensions>
      </trkpt>
      <trkpt lat="45.31150764785706996917724609375" lon="-71.03438596241176128387451171875">
        <ele>833.79998779296875</ele>
        <time>2026-08-21T21:40:55.000Z</time>
        <extensions>
          <ns3:TrackPointExtension>
            <ns3:hr>128</ns3:hr>
            <ns3:cad>47</ns3:cad>
          </ns3:TrackPointExtension>
        </extensions>
      </trkpt>
      <trkpt lat="45.31150043942034244537353515625" lon="-71.03438931517302989959716796875">
        <ele>834</ele>
        <time>2026-08-21T21:40:56.000Z</time>
        <extensions>
          <ns3:TrackPointExtension>
            <ns3:hr>129</ns3:hr>
            <ns3:cad>49</ns3:cad>
          </ns3:TrackPointExtension>
        </extensions>
      </trkpt>
      <trkpt lat="45.311491303145885467529296875" lon="-71.03439618833363056182861328125">
        <ele>834</ele>
        <time>2026-08-21T21:40:57.000Z</time>
        <extensions>
          <ns3:TrackPointExtension>
            <ns3:hr>129</ns3:hr>
            <ns3:cad>49</ns3:cad>
          </ns3:TrackPointExtension>
        </extensions>
      </trkpt>
      <trkpt lat="45.3114807419478893280029296875" lon="-71.0343989543616771697998046875">
        <ele>834.20001220703125</ele>
        <time>2026-08-21T21:40:58.000Z</time>
        <extensions>
          <ns3:TrackPointExtension>
            <ns3:hr>130</ns3:hr>
            <ns3:cad>49</ns3:cad>
          </ns3:TrackPointExtension>
        </extensions>
      </trkpt>
      <trkpt lat="45.311471186578273773193359375" lon="-71.03440389968454837799072265625">
        <ele>834.4000244140625</ele>
        <time>2026-08-21T21:40:59.000Z</time>
        <extensions>
          <ns3:TrackPointExtension>
            <ns3:hr>129</ns3:hr>
            <ns3:cad>49</ns3:cad>
          </ns3:TrackPointExtension>
        </extensions>
      </trkpt>
      <trkpt lat="45.3114594519138336181640625" lon="-71.03440574370324611663818359375">
        <ele>834.4000244140625</ele>
        <time>2026-08-21T21:41:00.000Z</time>
        <extensions>
          <ns3:TrackPointExtension>
            <ns3:hr>130</ns3:hr>
            <ns3:cad>49</ns3:cad>
          </ns3:TrackPointExtension>
        </extensions>
      </trkpt>
      <trkpt lat="45.31144578941166400909423828125" lon="-71.03440591134130954742431640625">
        <ele>834.5999755859375</ele>
        <time>2026-08-21T21:41:01.000Z</time>
        <extensions>
          <ns3:TrackPointExtension>
            <ns3:hr>130</ns3:hr>
            <ns3:cad>50</ns3:cad>
          </ns3:TrackPointExtension>
        </extensions>
      </trkpt>
      <trkpt lat="45.3114321269094944000244140625" lon="-71.03441052138805389404296875">
        <ele>834.5999755859375</ele>
        <time>2026-08-21T21:41:02.000Z</time>
        <extensions>
          <ns3:TrackPointExtension>
            <ns3:hr>130</ns3:hr>
            <ns3:cad>47</ns3:cad>
          </ns3:TrackPointExtension>
        </extensions>
      </trkpt>
      <trkpt lat="45.31141879968345165252685546875" lon="-71.034423597157001495361328125">
        <ele>834.5999755859375</ele>
        <time>2026-08-21T21:41:03.000Z</time>
        <extensions>
          <ns3:TrackPointExtension>
            <ns3:hr>129</ns3:hr>
            <ns3:cad>47</ns3:cad>
          </ns3:TrackPointExtension>
        </extensions>
      </trkpt>
      <trkpt lat="45.3114079870283603668212890625" lon="-71.0344366729259490966796875">
        <ele>834.79998779296875</ele>
        <time>2026-08-21T21:41:04.000Z</time>
        <extensions>
          <ns3:TrackPointExtension>
            <ns3:hr>129</ns3:hr>
            <ns3:cad>47</ns3:cad>
          </ns3:TrackPointExtension>
        </extensions>
      </trkpt>
      <trkpt lat="45.3113979287445545196533203125" lon="-71.03445167653262615203857421875">
        <ele>834.79998779296875</ele>
        <time>2026-08-21T21:41:05.000Z</time>
        <extensions>
          <ns3:TrackPointExtension>
            <ns3:hr>129</ns3:hr>
            <ns3:cad>47</ns3:cad>
          </ns3:TrackPointExtension>
        </extensions>
      </trkpt>
      <trkpt lat="45.3113905526697635650634765625" lon="-71.03447020053863525390625">
        <ele>834.79998779296875</ele>
        <time>2026-08-21T21:41:06.000Z</time>
        <extensions>
          <ns3:TrackPointExtension>
            <ns3:hr>129</ns3:hr>
            <ns3:cad>50</ns3:cad>
          </ns3:TrackPointExtension>
        </extensions>
      </trkpt>
      <trkpt lat="45.31138745136559009552001953125" lon="-71.03449123911559581756591796875">
        <ele>835</ele>
        <time>2026-08-21T21:41:07.000Z</time>
        <extensions>
          <ns3:TrackPointExtension>
            <ns3:hr>129</ns3:hr>
            <ns3:cad>50</ns3:cad>
          </ns3:TrackPointExtension>
        </extensions>
      </trkpt>
      <trkpt lat="45.31138367950916290283203125" lon="-71.034508757293224334716796875">
        <ele>835</ele>
        <time>2026-08-21T21:41:08.000Z</time>
        <extensions>
          <ns3:TrackPointExtension>
            <ns3:hr>129</ns3:hr>
            <ns3:cad>50</ns3:cad>
          </ns3:TrackPointExtension>
        </extensions>
      </trkpt>
      <trkpt lat="45.31138007529079914093017578125" lon="-71.03452661074697971343994140625">
        <ele>835</ele>
        <time>2026-08-21T21:41:09.000Z</time>
        <extensions>
          <ns3:TrackPointExtension>
            <ns3:hr>129</ns3:hr>
            <ns3:cad>50</ns3:cad>
          </ns3:TrackPointExtension>
        </extensions>
      </trkpt>
      <trkpt lat="45.3113774769008159637451171875" lon="-71.03454404510557651519775390625">
        <ele>835</ele>
        <time>2026-08-21T21:41:10.000Z</time>
        <extensions>
          <ns3:TrackPointExtension>
            <ns3:hr>129</ns3:hr>
            <ns3:cad>50</ns3:cad>
          </ns3:TrackPointExtension>
        </extensions>
      </trkpt>
      <trkpt lat="45.31137353740632534027099609375" lon="-71.0345649160444736480712890625">
        <ele>835.20001220703125</ele>
        <time>2026-08-21T21:41:11.000Z</time>
        <extensions>
          <ns3:TrackPointExtension>
            <ns3:hr>129</ns3:hr>
            <ns3:cad>50</ns3:cad>
          </ns3:TrackPointExtension>
        </extensions>
      </trkpt>
      <trkpt lat="45.31137295067310333251953125" lon="-71.03458679281175136566162109375">
        <ele>835.20001220703125</ele>
        <time>2026-08-21T21:41:12.000Z</time>
        <extensions>
          <ns3:TrackPointExtension>
            <ns3:hr>129</ns3:hr>
            <ns3:cad>50</ns3:cad>
          </ns3:TrackPointExtension>
        </extensions>
      </trkpt>
      <trkpt lat="45.311374627053737640380859375" lon="-71.0346105135977268218994140625">
        <ele>835.20001220703125</ele>
        <time>2026-08-21T21:41:13.000Z</time>
        <extensions>
          <ns3:TrackPointExtension>
            <ns3:hr>129</ns3:hr>
            <ns3:cad>51</ns3:cad>
          </ns3:TrackPointExtension>
        </extensions>
      </trkpt>
      <trkpt lat="45.3113764710724353790283203125" lon="-71.03462920524179935455322265625">
        <ele>835.20001220703125</ele>
        <time>2026-08-21T21:41:14.000Z</time>
        <extensions>
          <ns3:TrackPointExtension>
            <ns3:hr>130</ns3:hr>
            <ns3:cad>51</ns3:cad>
          </ns3:TrackPointExtension>
        </extensions>
      </trkpt>
      <trkpt lat="45.3113788180053234100341796875" lon="-71.03464789688587188720703125">
        <ele>835</ele>
        <time>2026-08-21T21:41:15.000Z</time>
        <extensions>
          <ns3:TrackPointExtension>
            <ns3:hr>130</ns3:hr>
            <ns3:cad>51</ns3:cad>
          </ns3:TrackPointExtension>
        </extensions>
      </trkpt>
      <trkpt lat="45.3113871999084949493408203125" lon="-71.0346695221960544586181640625">
        <ele>835</ele>
        <time>2026-08-21T21:41:16.000Z</time>
        <extensions>
          <ns3:TrackPointExtension>
            <ns3:hr>130</ns3:hr>
            <ns3:cad>50</ns3:cad>
          </ns3:TrackPointExtension>
        </extensions>
      </trkpt>
      <trkpt lat="45.31139650382101535797119140625" lon="-71.03468402288854122161865234375">
        <ele>834.79998779296875</ele>
        <time>2026-08-21T21:41:17.000Z</time>
        <extensions>
          <ns3:TrackPointExtension>
            <ns3:hr>130</ns3:hr>
            <ns3:cad>50</ns3:cad>
          </ns3:TrackPointExtension>
        </extensions>
      </trkpt>
      <trkpt lat="45.31140086241066455841064453125" lon="-71.0346986912190914154052734375">
        <ele>834.5999755859375</ele>
        <time>2026-08-21T21:41:18.000Z</time>
        <extensions>
          <ns3:TrackPointExtension>
            <ns3:hr>130</ns3:hr>
            <ns3:cad>51</ns3:cad>
          </ns3:TrackPointExtension>
        </extensions>
      </trkpt>
      <trkpt lat="45.31139482744038105010986328125" lon="-71.03472174145281314849853515625">
        <ele>834.4000244140625</ele>
        <time>2026-08-21T21:41:19.000Z</time>
        <extensions>
          <ns3:TrackPointExtension>
            <ns3:hr>130</ns3:hr>
            <ns3:cad>51</ns3:cad>
          </ns3:TrackPointExtension>
        </extensions>
      </trkpt>
      <trkpt lat="45.3113908879458904266357421875" lon="-71.03474018163979053497314453125">
        <ele>834.4000244140625</ele>
        <time>2026-08-21T21:41:20.000Z</time>
        <extensions>
          <ns3:TrackPointExtension>
            <ns3:hr>130</ns3:hr>
            <ns3:cad>51</ns3:cad>
          </ns3:TrackPointExtension>
        </extensions>
      </trkpt>
      <trkpt lat="45.3113898821175098419189453125" lon="-71.03475962765514850616455078125">
        <ele>834.20001220703125</ele>
        <time>2026-08-21T21:41:21.000Z</time>
        <extensions>
          <ns3:TrackPointExtension>
            <ns3:hr>129</ns3:hr>
            <ns3:cad>53</ns3:cad>
          </ns3:TrackPointExtension>
        </extensions>
      </trkpt>
      <trkpt lat="45.31139197759330272674560546875" lon="-71.034773290157318115234375">
        <ele>834.20001220703125</ele>
        <time>2026-08-21T21:41:22.000Z</time>
        <extensions>
          <ns3:TrackPointExtension>
            <ns3:hr>130</ns3:hr>
            <ns3:cad>53</ns3:cad>
          </ns3:TrackPointExtension>
        </extensions>
      </trkpt>
      <trkpt lat="45.31139365397393703460693359375" lon="-71.034791730344295501708984375">
        <ele>834.20001220703125</ele>
        <time>2026-08-21T21:41:23.000Z</time>
        <extensions>
          <ns3:TrackPointExtension>
            <ns3:hr>130</ns3:hr>
            <ns3:cad>53</ns3:cad>
          </ns3:TrackPointExtension>
        </extensions>
      </trkpt>
      <trkpt lat="45.31139583326876163482666015625" lon="-71.03480690158903598785400390625">
        <ele>834.20001220703125</ele>
        <time>2026-08-21T21:41:24.000Z</time>
        <extensions>
          <ns3:TrackPointExtension>
            <ns3:hr>130</ns3:hr>
            <ns3:cad>53</ns3:cad>
          </ns3:TrackPointExtension>
        </extensions>
      </trkpt>
      <trkpt lat="45.31140253879129886627197265625" lon="-71.03481846861541271209716796875">
        <ele>834.4000244140625</ele>
        <time>2026-08-21T21:41:25.000Z</time>
        <extensions>
          <ns3:TrackPointExtension>
            <ns3:hr>130</ns3:hr>
            <ns3:cad>0</ns3:cad>
          </ns3:TrackPointExtension>
        </extensions>
      </trkpt>
      <trkpt lat="45.31140890903770923614501953125" lon="-71.03483623825013637542724609375">
        <ele>834.4000244140625</ele>
        <time>2026-08-21T21:41:26.000Z</time>
        <extensions>
          <ns3:TrackPointExtension>
            <ns3:hr>130</ns3:hr>
            <ns3:cad>0</ns3:cad>
          </ns3:TrackPointExtension>
        </extensions>
      </trkpt>
      <trkpt lat="45.31141452491283416748046875" lon="-71.0348445363342761993408203125">
        <ele>834.4000244140625</ele>
        <time>2026-08-21T21:41:27.000Z</time>
        <extensions>
          <ns3:TrackPointExtension>
            <ns3:hr>130</ns3:hr>
            <ns3:cad>0</ns3:cad>
          </ns3:TrackPointExtension>
        </extensions>
      </trkpt>
      <trkpt lat="45.3114180453121662139892578125" lon="-71.03485576808452606201171875">
        <ele>834.4000244140625</ele>
        <time>2026-08-21T21:41:28.000Z</time>
        <extensions>
          <ns3:TrackPointExtension>
            <ns3:hr>130</ns3:hr>
            <ns3:cad>0</ns3:cad>
          </ns3:TrackPointExtension>
        </extensions>
      </trkpt>
      <trkpt lat="45.3114177100360393524169921875" lon="-71.03486624546349048614501953125">
        <ele>834.4000244140625</ele>
        <time>2026-08-21T21:41:29.000Z</time>
        <extensions>
          <ns3:TrackPointExtension>
            <ns3:hr>129</ns3:hr>
            <ns3:cad>0</ns3:cad>
          </ns3:TrackPointExtension>
        </extensions>
      </trkpt>
      <trkpt lat="45.311415530741214752197265625" lon="-71.0348737053573131561279296875">
        <ele>834.20001220703125</ele>
        <time>2026-08-21T21:41:30.000Z</time>
        <extensions>
          <ns3:TrackPointExtension>
            <ns3:hr>130</ns3:hr>
            <ns3:cad>0</ns3:cad>
          </ns3:TrackPointExtension>
        </extensions>
      </trkpt>
      <trkpt lat="45.31141309998929500579833984375" lon="-71.034890301525592803955078125">
        <ele>834.20001220703125</ele>
        <time>2026-08-21T21:41:31.000Z</time>
        <extensions>
          <ns3:TrackPointExtension>
            <ns3:hr>130</ns3:hr>
            <ns3:cad>0</ns3:cad>
          </ns3:TrackPointExtension>
        </extensions>
      </trkpt>
      <trkpt lat="45.31141410581767559051513671875" lon="-71.03490647859871387481689453125">
        <ele>834</ele>
        <time>2026-08-21T21:41:32.000Z</time>
        <extensions>
          <ns3:TrackPointExtension>
            <ns3:hr>129</ns3:hr>
            <ns3:cad>0</ns3:cad>
          </ns3:TrackPointExtension>
        </extensions>
      </trkpt>
      <trkpt lat="45.311417877674102783203125" lon="-71.034927852451801300048828125">
        <ele>833.79998779296875</ele>
        <time>2026-08-21T21:41:33.000Z</time>
        <extensions>
          <ns3:TrackPointExtension>
            <ns3:hr>131</ns3:hr>
            <ns3:cad>0</ns3:cad>
          </ns3:TrackPointExtension>
        </extensions>
      </trkpt>
      <trkpt lat="45.3114192187786102294921875" lon="-71.03495123796164989471435546875">
        <ele>833.5999755859375</ele>
        <time>2026-08-21T21:41:34.000Z</time>
        <extensions>
          <ns3:TrackPointExtension>
            <ns3:hr>131</ns3:hr>
            <ns3:cad>0</ns3:cad>
          </ns3:TrackPointExtension>
        </extensions>
      </trkpt>
      <trkpt lat="45.3114210627973079681396484375" lon="-71.0349588654935359954833984375">
        <ele>833.4000244140625</ele>
        <time>2026-08-21T21:41:35.000Z</time>
        <extensions>
          <ns3:TrackPointExtension>
            <ns3:hr>130</ns3:hr>
            <ns3:cad>0</ns3:cad>
          </ns3:TrackPointExtension>
        </extensions>
      </trkpt>
      <trkpt lat="45.311419554054737091064453125" lon="-71.034973450005054473876953125">
        <ele>833.20001220703125</ele>
        <time>2026-08-21T21:41:36.000Z</time>
        <extensions>
          <ns3:TrackPointExtension>
            <ns3:hr>130</ns3:hr>
            <ns3:cad>0</ns3:cad>
          </ns3:TrackPointExtension>
        </extensions>
      </trkpt>
      <trkpt lat="45.31141527928411960601806640625" lon="-71.034990213811397552490234375">
        <ele>833</ele>
        <time>2026-08-21T21:41:37.000Z</time>
        <extensions>
          <ns3:TrackPointExtension>
            <ns3:hr>130</ns3:hr>
            <ns3:cad>56</ns3:cad>
          </ns3:TrackPointExtension>
        </extensions>
      </trkpt>
      <trkpt lat="45.3114076517522335052490234375" lon="-71.03500865399837493896484375">
        <ele>833</ele>
        <time>2026-08-21T21:41:38.000Z</time>
        <extensions>
          <ns3:TrackPointExtension>
            <ns3:hr>128</ns3:hr>
            <ns3:cad>56</ns3:cad>
          </ns3:TrackPointExtension>
        </extensions>
      </trkpt>
      <trkpt lat="45.3114063106477260589599609375" lon="-71.0350302793085575103759765625">
        <ele>833</ele>
        <time>2026-08-21T21:41:39.000Z</time>
        <extensions>
          <ns3:TrackPointExtension>
            <ns3:hr>128</ns3:hr>
            <ns3:cad>56</ns3:cad>
          </ns3:TrackPointExtension>
        </extensions>
      </trkpt>
      <trkpt lat="45.311405472457408905029296875" lon="-71.035043187439441680908203125">
        <ele>832.79998779296875</ele>
        <time>2026-08-21T21:41:40.000Z</time>
        <extensions>
          <ns3:TrackPointExtension>
            <ns3:hr>125</ns3:hr>
            <ns3:cad>56</ns3:cad>
          </ns3:TrackPointExtension>
        </extensions>
      </trkpt>
      <trkpt lat="45.31140136532485485076904296875" lon="-71.0350550897419452667236328125">
        <ele>832.79998779296875</ele>
        <time>2026-08-21T21:41:41.000Z</time>
        <extensions>
          <ns3:TrackPointExtension>
            <ns3:hr>123</ns3:hr>
            <ns3:cad>56</ns3:cad>
          </ns3:TrackPointExtension>
        </extensions>
      </trkpt>
      <trkpt lat="45.3113942407071590423583984375" lon="-71.03506724350154399871826171875">
        <ele>833</ele>
        <time>2026-08-21T21:41:42.000Z</time>
        <extensions>
          <ns3:TrackPointExtension>
            <ns3:hr>121</ns3:hr>
            <ns3:cad>57</ns3:cad>
          </ns3:TrackPointExtension>
        </extensions>
      </trkpt>
      <trkpt lat="45.311386026442050933837890625" lon="-71.03507696650922298431396484375">
        <ele>833</ele>
        <time>2026-08-21T21:41:43.000Z</time>
        <extensions>
          <ns3:TrackPointExtension>
            <ns3:hr>121</ns3:hr>
            <ns3:cad>57</ns3:cad>
          </ns3:TrackPointExtension>
        </extensions>
      </trkpt>
      <trkpt lat="45.311377309262752532958984375" lon="-71.03508333675563335418701171875">
        <ele>833</ele>
        <time>2026-08-21T21:41:44.000Z</time>
        <extensions>
          <ns3:TrackPointExtension>
            <ns3:hr>121</ns3:hr>
            <ns3:cad>57</ns3:cad>
          </ns3:TrackPointExtension>
        </extensions>
      </trkpt>
      <trkpt lat="45.31136934645473957061767578125" lon="-71.03508786298334598541259765625">
        <ele>833</ele>
        <time>2026-08-21T21:41:45.000Z</time>
        <extensions>
          <ns3:TrackPointExtension>
            <ns3:hr>120</ns3:hr>
            <ns3:cad>55</ns3:cad>
          </ns3:TrackPointExtension>
        </extensions>
      </trkpt>
      <trkpt lat="45.31136129982769489288330078125" lon="-71.0350923053920269012451171875">
        <ele>833.20001220703125</ele>
        <time>2026-08-21T21:41:46.000Z</time>
        <extensions>
          <ns3:TrackPointExtension>
            <ns3:hr>120</ns3:hr>
            <ns3:cad>55</ns3:cad>
          </ns3:TrackPointExtension>
        </extensions>
      </trkpt>
      <trkpt lat="45.31135023571550846099853515625" lon="-71.0350966639816761016845703125">
        <ele>833.20001220703125</ele>
        <time>2026-08-21T21:41:47.000Z</time>
        <extensions>
          <ns3:TrackPointExtension>
            <ns3:hr>118</ns3:hr>
            <ns3:cad>52</ns3:cad>
          </ns3:TrackPointExtension>
        </extensions>
      </trkpt>
      <trkpt lat="45.31134135089814662933349609375" lon="-71.0350986756384372711181640625">
        <ele>833.20001220703125</ele>
        <time>2026-08-21T21:41:48.000Z</time>
        <extensions>
          <ns3:TrackPointExtension>
            <ns3:hr>117</ns3:hr>
            <ns3:cad>52</ns3:cad>
          </ns3:TrackPointExtension>
        </extensions>
      </trkpt>
      <trkpt lat="45.3113288618624210357666015625" lon="-71.03511183522641658782958984375">
        <ele>833.20001220703125</ele>
        <time>2026-08-21T21:41:49.000Z</time>
        <extensions>
          <ns3:TrackPointExtension>
            <ns3:hr>118</ns3:hr>
            <ns3:cad>51</ns3:cad>
          </ns3:TrackPointExtension>
        </extensions>
      </trkpt>
      <trkpt lat="45.311320982873439788818359375" lon="-71.035118959844112396240234375">
        <ele>833.20001220703125</ele>
        <time>2026-08-21T21:41:50.000Z</time>
        <extensions>
          <ns3:TrackPointExtension>
            <ns3:hr>117</ns3:hr>
            <ns3:cad>51</ns3:cad>
          </ns3:TrackPointExtension>
        </extensions>
      </trkpt>
      <trkpt lat="45.31131385825574398040771484375" lon="-71.0351308621466159820556640625">
        <ele>833.4000244140625</ele>
        <time>2026-08-21T21:41:51.000Z</time>
        <extensions>
          <ns3:TrackPointExtension>
            <ns3:hr>116</ns3:hr>
            <ns3:cad>51</ns3:cad>
          </ns3:TrackPointExtension>
        </extensions>
      </trkpt>
      <trkpt lat="45.31130966730415821075439453125" lon="-71.03514033369719982147216796875">
        <ele>833.4000244140625</ele>
        <time>2026-08-21T21:41:52.000Z</time>
        <extensions>
          <ns3:TrackPointExtension>
            <ns3:hr>116</ns3:hr>
            <ns3:cad>52</ns3:cad>
          </ns3:TrackPointExtension>
        </extensions>
      </trkpt>
      <trkpt lat="45.311302207410335540771484375" lon="-71.03515215218067169189453125">
        <ele>833.4000244140625</ele>
        <time>2026-08-21T21:41:53.000Z</time>
        <extensions>
          <ns3:TrackPointExtension>
            <ns3:hr>116</ns3:hr>
            <ns3:cad>52</ns3:cad>
          </ns3:TrackPointExtension>
        </extensions>
      </trkpt>
      <trkpt lat="45.31129273585975170135498046875" lon="-71.03516363538801670074462890625">
        <ele>833.4000244140625</ele>
        <time>2026-08-21T21:41:54.000Z</time>
        <extensions>
          <ns3:TrackPointExtension>
            <ns3:hr>115</ns3:hr>
            <ns3:cad>0</ns3:cad>
          </ns3:TrackPointExtension>
        </extensions>
      </trkpt>
      <trkpt lat="45.31128418631851673126220703125" lon="-71.0351835004985332489013671875">
        <ele>833.4000244140625</ele>
        <time>2026-08-21T21:41:55.000Z</time>
        <extensions>
          <ns3:TrackPointExtension>
            <ns3:hr>116</ns3:hr>
            <ns3:cad>0</ns3:cad>
          </ns3:TrackPointExtension>
        </extensions>
      </trkpt>
      <trkpt lat="45.3112772293388843536376953125" lon="-71.035203449428081512451171875">
        <ele>833.4000244140625</ele>
        <time>2026-08-21T21:41:56.000Z</time>
        <extensions>
          <ns3:TrackPointExtension>
            <ns3:hr>116</ns3:hr>
            <ns3:cad>0</ns3:cad>
          </ns3:TrackPointExtension>
        </extensions>
      </trkpt>
      <trkpt lat="45.31126641668379306793212890625" lon="-71.03521652519702911376953125">
        <ele>833.20001220703125</ele>
        <time>2026-08-21T21:41:57.000Z</time>
        <extensions>
          <ns3:TrackPointExtension>
            <ns3:hr>115</ns3:hr>
            <ns3:cad>0</ns3:cad>
          </ns3:TrackPointExtension>
        </extensions>
      </trkpt>
      <trkpt lat="45.31125334091484546661376953125" lon="-71.0352280922234058380126953125">
        <ele>833.20001220703125</ele>
        <time>2026-08-21T21:41:58.000Z</time>
        <extensions>
          <ns3:TrackPointExtension>
            <ns3:hr>116</ns3:hr>
            <ns3:cad>0</ns3:cad>
          </ns3:TrackPointExtension>
        </extensions>
      </trkpt>
      <trkpt lat="45.31124009750783443450927734375" lon="-71.0352354682981967926025390625">
        <ele>833</ele>
        <time>2026-08-21T21:41:59.000Z</time>
        <extensions>
          <ns3:TrackPointExtension>
            <ns3:hr>116</ns3:hr>
            <ns3:cad>0</ns3:cad>
          </ns3:TrackPointExtension>
        </extensions>
      </trkpt>
      <trkpt lat="45.31122945249080657958984375" lon="-71.035237647593021392822265625">
        <ele>833.20001220703125</ele>
        <time>2026-08-21T21:42:00.000Z</time>
        <extensions>
          <ns3:TrackPointExtension>
            <ns3:hr>115</ns3:hr>
            <ns3:cad>49</ns3:cad>
          </ns3:TrackPointExtension>
        </extensions>
      </trkpt>
      <trkpt lat="45.311223082244396209716796875" lon="-71.03524200618267059326171875">
        <ele>833.20001220703125</ele>
        <time>2026-08-21T21:42:01.000Z</time>
        <extensions>
          <ns3:TrackPointExtension>
            <ns3:hr>116</ns3:hr>
            <ns3:cad>49</ns3:cad>
          </ns3:TrackPointExtension>
        </extensions>
      </trkpt>
      <trkpt lat="45.3112126886844635009765625" lon="-71.0352529026567935943603515625">
        <ele>833.4000244140625</ele>
        <time>2026-08-21T21:42:02.000Z</time>
        <extensions>
          <ns3:TrackPointExtension>
            <ns3:hr>116</ns3:hr>
            <ns3:cad>49</ns3:cad>
          </ns3:TrackPointExtension>
        </extensions>
      </trkpt>
      <trkpt lat="45.3112046420574188232421875" lon="-71.03525935672223567962646484375">
        <ele>833.5999755859375</ele>
        <time>2026-08-21T21:42:03.000Z</time>
        <extensions>
          <ns3:TrackPointExtension>
            <ns3:hr>115</ns3:hr>
            <ns3:cad>49</ns3:cad>
          </ns3:TrackPointExtension>
        </extensions>
      </trkpt>
      <trkpt lat="45.3111944161355495452880859375" lon="-71.0352622903883457183837890625">
        <ele>833.79998779296875</ele>
        <time>2026-08-21T21:42:04.000Z</time>
        <extensions>
          <ns3:TrackPointExtension>
            <ns3:hr>116</ns3:hr>
            <ns3:cad>0</ns3:cad>
          </ns3:TrackPointExtension>
        </extensions>
      </trkpt>
      <trkpt lat="45.3111873753368854522705078125" lon="-71.03525835089385509490966796875">
        <ele>834</ele>
        <time>2026-08-21T21:42:05.000Z</time>
        <extensions>
          <ns3:TrackPointExtension>
            <ns3:hr>116</ns3:hr>
            <ns3:cad>0</ns3:cad>
          </ns3:TrackPointExtension>
        </extensions>
      </trkpt>
      <trkpt lat="45.31118041835725307464599609375" lon="-71.03525801561772823333740234375">
        <ele>834.20001220703125</ele>
        <time>2026-08-21T21:42:06.000Z</time>
        <extensions>
          <ns3:TrackPointExtension>
            <ns3:hr>117</ns3:hr>
            <ns3:cad>0</ns3:cad>
          </ns3:TrackPointExtension>
        </extensions>
      </trkpt>
      <trkpt lat="45.31117052771151065826416015625" lon="-71.03526270948350429534912109375">
        <ele>834.20001220703125</ele>
        <time>2026-08-21T21:42:07.000Z</time>
        <extensions>
          <ns3:TrackPointExtension>
            <ns3:hr>117</ns3:hr>
            <ns3:cad>48</ns3:cad>
          </ns3:TrackPointExtension>
        </extensions>
      </trkpt>
      <trkpt lat="45.31116466037929058074951171875" lon="-71.03527645580470561981201171875">
        <ele>834.4000244140625</ele>
        <time>2026-08-21T21:42:08.000Z</time>
        <extensions>
          <ns3:TrackPointExtension>
            <ns3:hr>117</ns3:hr>
            <ns3:cad>48</ns3:cad>
          </ns3:TrackPointExtension>
        </extensions>
      </trkpt>
      <trkpt lat="45.311157368123531341552734375" lon="-71.0352810658514499664306640625">
        <ele>834.5999755859375</ele>
        <time>2026-08-21T21:42:09.000Z</time>
        <extensions>
          <ns3:TrackPointExtension>
            <ns3:hr>118</ns3:hr>
            <ns3:cad>48</ns3:cad>
          </ns3:TrackPointExtension>
        </extensions>
      </trkpt>
      <trkpt lat="45.3111437894403934478759765625" lon="-71.0352874360978603363037109375">
        <ele>834.79998779296875</ele>
        <time>2026-08-21T21:42:10.000Z</time>
        <extensions>
          <ns3:TrackPointExtension>
            <ns3:hr>117</ns3:hr>
            <ns3:cad>48</ns3:cad>
          </ns3:TrackPointExtension>
        </extensions>
      </trkpt>
      <trkpt lat="45.311138592660427093505859375" lon="-71.03529321961104869842529296875">
        <ele>835</ele>
        <time>2026-08-21T21:42:11.000Z</time>
        <extensions>
          <ns3:TrackPointExtension>
            <ns3:hr>117</ns3:hr>
            <ns3:cad>0</ns3:cad>
          </ns3:TrackPointExtension>
        </extensions>
      </trkpt>
      <trkpt lat="45.3111283667385578155517578125" lon="-71.0352949798107147216796875">
        <ele>835.20001220703125</ele>
        <time>2026-08-21T21:42:12.000Z</time>
        <extensions>
          <ns3:TrackPointExtension>
            <ns3:hr>117</ns3:hr>
            <ns3:cad>0</ns3:cad>
          </ns3:TrackPointExtension>
        </extensions>
      </trkpt>
      <trkpt lat="45.31111889518797397613525390625" lon="-71.03530378080904483795166015625">
        <ele>835.4000244140625</ele>
        <time>2026-08-21T21:42:13.000Z</time>
        <extensions>
          <ns3:TrackPointExtension>
            <ns3:hr>117</ns3:hr>
            <ns3:cad>0</ns3:cad>
          </ns3:TrackPointExtension>
        </extensions>
      </trkpt>
      <trkpt lat="45.3111107647418975830078125" lon="-71.0353137552738189697265625">
        <ele>835.5999755859375</ele>
        <time>2026-08-21T21:42:14.000Z</time>
        <extensions>
          <ns3:TrackPointExtension>
            <ns3:hr>118</ns3:hr>
            <ns3:cad>51</ns3:cad>
          </ns3:TrackPointExtension>
        </extensions>
      </trkpt>
      <trkpt lat="45.31110481359064579010009765625" lon="-71.035321466624736785888671875">
        <ele>835.5999755859375</ele>
        <time>2026-08-21T21:42:15.000Z</time>
        <extensions>
          <ns3:TrackPointExtension>
            <ns3:hr>118</ns3:hr>
            <ns3:cad>51</ns3:cad>
          </ns3:TrackPointExtension>
        </extensions>
      </trkpt>
      <trkpt lat="45.3110988624393939971923828125" lon="-71.0353206284344196319580078125">
        <ele>835.5999755859375</ele>
        <time>2026-08-21T21:42:16.000Z</time>
        <extensions>
          <ns3:TrackPointExtension>
            <ns3:hr>119</ns3:hr>
            <ns3:cad>51</ns3:cad>
          </ns3:TrackPointExtension>
        </extensions>
      </trkpt>
      <trkpt lat="45.3110871277749538421630859375" lon="-71.03532758541405200958251953125">
        <ele>835.4000244140625</ele>
        <time>2026-08-21T21:42:17.000Z</time>
        <extensions>
          <ns3:TrackPointExtension>
            <ns3:hr>120</ns3:hr>
            <ns3:cad>51</ns3:cad>
          </ns3:TrackPointExtension>
        </extensions>
      </trkpt>
      <trkpt lat="45.3110784105956554412841796875" lon="-71.03534082882106304168701171875">
        <ele>835.4000244140625</ele>
        <time>2026-08-21T21:42:18.000Z</time>
        <extensions>
          <ns3:TrackPointExtension>
            <ns3:hr>120</ns3:hr>
            <ns3:cad>51</ns3:cad>
          </ns3:TrackPointExtension>
        </extensions>
      </trkpt>
      <trkpt lat="45.31107095070183277130126953125" lon="-71.03535600006580352783203125">
        <ele>835.20001220703125</ele>
        <time>2026-08-21T21:42:19.000Z</time>
        <extensions>
          <ns3:TrackPointExtension>
            <ns3:hr>120</ns3:hr>
            <ns3:cad>0</ns3:cad>
          </ns3:TrackPointExtension>
        </extensions>
      </trkpt>
      <trkpt lat="45.31107514165341854095458984375" lon="-71.03537620045244693756103515625">
        <ele>835</ele>
        <time>2026-08-21T21:42:20.000Z</time>
        <extensions>
          <ns3:TrackPointExtension>
            <ns3:hr>121</ns3:hr>
            <ns3:cad>0</ns3:cad>
          </ns3:TrackPointExtension>
        </extensions>
      </trkpt>
      <trkpt lat="45.311075560748577117919921875" lon="-71.03539799340069293975830078125">
        <ele>834.79998779296875</ele>
        <time>2026-08-21T21:42:21.000Z</time>
        <extensions>
          <ns3:TrackPointExtension>
            <ns3:hr>122</ns3:hr>
            <ns3:cad>0</ns3:cad>
          </ns3:TrackPointExtension>
        </extensions>
      </trkpt>
      <trkpt lat="45.31107430346310138702392578125" lon="-71.0354138351976871490478515625">
        <ele>834.79998779296875</ele>
        <time>2026-08-21T21:42:22.000Z</time>
        <extensions>
          <ns3:TrackPointExtension>
            <ns3:hr>122</ns3:hr>
            <ns3:cad>0</ns3:cad>
          </ns3:TrackPointExtension>
        </extensions>
      </trkpt>
      <trkpt lat="45.3110678493976593017578125" lon="-71.0354255698621273040771484375">
        <ele>834.5999755859375</ele>
        <time>2026-08-21T21:42:23.000Z</time>
        <extensions>
          <ns3:TrackPointExtension>
            <ns3:hr>122</ns3:hr>
            <ns3:cad>0</ns3:cad>
          </ns3:TrackPointExtension>
        </extensions>
      </trkpt>
      <trkpt lat="45.3110606409609317779541015625" lon="-71.03543772362172603607177734375">
        <ele>834.5999755859375</ele>
        <time>2026-08-21T21:42:24.000Z</time>
        <extensions>
          <ns3:TrackPointExtension>
            <ns3:hr>121</ns3:hr>
            <ns3:cad>0</ns3:cad>
          </ns3:TrackPointExtension>
        </extensions>
      </trkpt>
      <trkpt lat="45.3110512532293796539306640625" lon="-71.03545079939067363739013671875">
        <ele>834.4000244140625</ele>
        <time>2026-08-21T21:42:25.000Z</time>
        <extensions>
          <ns3:TrackPointExtension>
            <ns3:hr>121</ns3:hr>
            <ns3:cad>0</ns3:cad>
          </ns3:TrackPointExtension>
        </extensions>
      </trkpt>
      <trkpt lat="45.3110438771545886993408203125" lon="-71.035460941493511199951171875">
        <ele>834.5999755859375</ele>
        <time>2026-08-21T21:42:26.000Z</time>
        <extensions>
          <ns3:TrackPointExtension>
            <ns3:hr>121</ns3:hr>
            <ns3:cad>0</ns3:cad>
          </ns3:TrackPointExtension>
        </extensions>
      </trkpt>
      <trkpt lat="45.3110361658036708831787109375" lon="-71.0354721732437610626220703125">
        <ele>834.5999755859375</ele>
        <time>2026-08-21T21:42:27.000Z</time>
        <extensions>
          <ns3:TrackPointExtension>
            <ns3:hr>120</ns3:hr>
            <ns3:cad>0</ns3:cad>
          </ns3:TrackPointExtension>
        </extensions>
      </trkpt>
      <trkpt lat="45.31102719716727733612060546875" lon="-71.0354825668036937713623046875">
        <ele>834.5999755859375</ele>
        <time>2026-08-21T21:42:28.000Z</time>
        <extensions>
          <ns3:TrackPointExtension>
            <ns3:hr>120</ns3:hr>
            <ns3:cad>0</ns3:cad>
          </ns3:TrackPointExtension>
        </extensions>
      </trkpt>
      <trkpt lat="45.31100942753255367279052734375" lon="-71.0354932956397533416748046875">
        <ele>834.79998779296875</ele>
        <time>2026-08-21T21:42:29.000Z</time>
        <extensions>
          <ns3:TrackPointExtension>
            <ns3:hr>120</ns3:hr>
            <ns3:cad>62</ns3:cad>
          </ns3:TrackPointExtension>
        </extensions>
      </trkpt>
      <trkpt lat="45.310997106134891510009765625" lon="-71.0355003364384174346923828125">
        <ele>834.79998779296875</ele>
        <time>2026-08-21T21:42:30.000Z</time>
        <extensions>
          <ns3:TrackPointExtension>
            <ns3:hr>120</ns3:hr>
            <ns3:cad>62</ns3:cad>
          </ns3:TrackPointExtension>
        </extensions>
      </trkpt>
      <trkpt lat="45.3109847009181976318359375" lon="-71.035510562360286712646484375">
        <ele>834.79998779296875</ele>
        <time>2026-08-21T21:42:31.000Z</time>
        <extensions>
          <ns3:TrackPointExtension>
            <ns3:hr>120</ns3:hr>
            <ns3:cad>62</ns3:cad>
          </ns3:TrackPointExtension>
        </extensions>
      </trkpt>
      <trkpt lat="45.3109717927873134613037109375" lon="-71.0355224646627902984619140625">
        <ele>834.79998779296875</ele>
        <time>2026-08-21T21:42:32.000Z</time>
        <extensions>
          <ns3:TrackPointExtension>
            <ns3:hr>120</ns3:hr>
            <ns3:cad>62</ns3:cad>
          </ns3:TrackPointExtension>
        </extensions>
      </trkpt>
      <trkpt lat="45.31095779500901699066162109375" lon="-71.03553478606045246124267578125">
        <ele>834.79998779296875</ele>
        <time>2026-08-21T21:42:33.000Z</time>
        <extensions>
          <ns3:TrackPointExtension>
            <ns3:hr>120</ns3:hr>
            <ns3:cad>64</ns3:cad>
          </ns3:TrackPointExtension>
        </extensions>
      </trkpt>
      <trkpt lat="45.31094455160200595855712890625" lon="-71.03554300032556056976318359375">
        <ele>835</ele>
        <time>2026-08-21T21:42:34.000Z</time>
        <extensions>
          <ns3:TrackPointExtension>
            <ns3:hr>121</ns3:hr>
            <ns3:cad>64</ns3:cad>
          </ns3:TrackPointExtension>
        </extensions>
      </trkpt>
      <trkpt lat="45.310930050909519195556640625" lon="-71.0355486162006855010986328125">
        <ele>835</ele>
        <time>2026-08-21T21:42:35.000Z</time>
        <extensions>
          <ns3:TrackPointExtension>
            <ns3:hr>122</ns3:hr>
            <ns3:cad>64</ns3:cad>
          </ns3:TrackPointExtension>
        </extensions>
      </trkpt>
      <trkpt lat="45.3109154663980007171630859375" lon="-71.03554920293390750885009765625">
        <ele>835.20001220703125</ele>
        <time>2026-08-21T21:42:36.000Z</time>
        <extensions>
          <ns3:TrackPointExtension>
            <ns3:hr>122</ns3:hr>
            <ns3:cad>0</ns3:cad>
          </ns3:TrackPointExtension>
        </extensions>
      </trkpt>
      <trkpt lat="45.31090666539967060089111328125" lon="-71.03554668836295604705810546875">
        <ele>835.4000244140625</ele>
        <time>2026-08-21T21:42:37.000Z</time>
        <extensions>
          <ns3:TrackPointExtension>
            <ns3:hr>123</ns3:hr>
            <ns3:cad>0</ns3:cad>
          </ns3:TrackPointExtension>
        </extensions>
      </trkpt>
      <trkpt lat="45.31088906340301036834716796875" lon="-71.035543419420719146728515625">
        <ele>835.5999755859375</ele>
        <time>2026-08-21T21:42:38.000Z</time>
        <extensions>
          <ns3:TrackPointExtension>
            <ns3:hr>123</ns3:hr>
            <ns3:cad>0</ns3:cad>
          </ns3:TrackPointExtension>
        </extensions>
      </trkpt>
      <trkpt lat="45.31087682582437992095947265625" lon="-71.03554375469684600830078125">
        <ele>835.5999755859375</ele>
        <time>2026-08-21T21:42:39.000Z</time>
        <extensions>
          <ns3:TrackPointExtension>
            <ns3:hr>123</ns3:hr>
            <ns3:cad>0</ns3:cad>
          </ns3:TrackPointExtension>
        </extensions>
      </trkpt>
      <trkpt lat="45.3108640015125274658203125" lon="-71.03554551489651203155517578125">
        <ele>835.79998779296875</ele>
        <time>2026-08-21T21:42:40.000Z</time>
        <extensions>
          <ns3:TrackPointExtension>
            <ns3:hr>124</ns3:hr>
            <ns3:cad>0</ns3:cad>
          </ns3:TrackPointExtension>
        </extensions>
      </trkpt>
      <trkpt lat="45.31084933318197727203369140625" lon="-71.03555372916162014007568359375">
        <ele>835.79998779296875</ele>
        <time>2026-08-21T21:42:41.000Z</time>
        <extensions>
          <ns3:TrackPointExtension>
            <ns3:hr>124</ns3:hr>
            <ns3:cad>0</ns3:cad>
          </ns3:TrackPointExtension>
        </extensions>
      </trkpt>
      <trkpt lat="45.31083541922271251678466796875" lon="-71.035562865436077117919921875">
        <ele>835.79998779296875</ele>
        <time>2026-08-21T21:42:42.000Z</time>
        <extensions>
          <ns3:TrackPointExtension>
            <ns3:hr>124</ns3:hr>
            <ns3:cad>0</ns3:cad>
          </ns3:TrackPointExtension>
        </extensions>
      </trkpt>
      <trkpt lat="45.3108225949108600616455078125" lon="-71.03557568974792957305908203125">
        <ele>836</ele>
        <time>2026-08-21T21:42:43.000Z</time>
        <extensions>
          <ns3:TrackPointExtension>
            <ns3:hr>124</ns3:hr>
            <ns3:cad>0</ns3:cad>
          </ns3:TrackPointExtension>
        </extensions>
      </trkpt>
      <trkpt lat="45.31081697903573513031005859375" lon="-71.03558222763240337371826171875">
        <ele>836.20001220703125</ele>
        <time>2026-08-21T21:42:44.000Z</time>
        <extensions>
          <ns3:TrackPointExtension>
            <ns3:hr>124</ns3:hr>
            <ns3:cad>0</ns3:cad>
          </ns3:TrackPointExtension>
        </extensions>
      </trkpt>
      <trkpt lat="45.31080474145710468292236328125" lon="-71.03559094481170177459716796875">
        <ele>836.20001220703125</ele>
        <time>2026-08-21T21:42:45.000Z</time>
        <extensions>
          <ns3:TrackPointExtension>
            <ns3:hr>124</ns3:hr>
            <ns3:cad>0</ns3:cad>
          </ns3:TrackPointExtension>
        </extensions>
      </trkpt>
      <trkpt lat="45.31079283915460109710693359375" lon="-71.03559429757297039031982421875">
        <ele>836.4000244140625</ele>
        <time>2026-08-21T21:42:46.000Z</time>
        <extensions>
          <ns3:TrackPointExtension>
            <ns3:hr>124</ns3:hr>
            <ns3:cad>0</ns3:cad>
          </ns3:TrackPointExtension>
        </extensions>
      </trkpt>
      <trkpt lat="45.3107763268053531646728515625" lon="-71.0355913639068603515625">
        <ele>836.4000244140625</ele>
        <time>2026-08-21T21:42:47.000Z</time>
        <extensions>
          <ns3:TrackPointExtension>
            <ns3:hr>124</ns3:hr>
            <ns3:cad>0</ns3:cad>
          </ns3:TrackPointExtension>
        </extensions>
      </trkpt>
      <trkpt lat="45.3107593953609466552734375" lon="-71.03559094481170177459716796875">
        <ele>836.5999755859375</ele>
        <time>2026-08-21T21:42:48.000Z</time>
        <extensions>
          <ns3:TrackPointExtension>
            <ns3:hr>124</ns3:hr>
            <ns3:cad>0</ns3:cad>
          </ns3:TrackPointExtension>
        </extensions>
      </trkpt>
      <trkpt lat="45.310740955173969268798828125" lon="-71.0355898551642894744873046875">
        <ele>836.5999755859375</ele>
        <time>2026-08-21T21:42:49.000Z</time>
        <extensions>
          <ns3:TrackPointExtension>
            <ns3:hr>126</ns3:hr>
            <ns3:cad>0</ns3:cad>
          </ns3:TrackPointExtension>
        </extensions>
      </trkpt>
      <trkpt lat="45.31072595156729221343994140625" lon="-71.03559630922973155975341796875">
        <ele>836.5999755859375</ele>
        <time>2026-08-21T21:42:50.000Z</time>
        <extensions>
          <ns3:TrackPointExtension>
            <ns3:hr>126</ns3:hr>
            <ns3:cad>58</ns3:cad>
          </ns3:TrackPointExtension>
        </extensions>
      </trkpt>
      <trkpt lat="45.31071136705577373504638671875" lon="-71.035599410533905029296875">
        <ele>836.5999755859375</ele>
        <time>2026-08-21T21:42:51.000Z</time>
        <extensions>
          <ns3:TrackPointExtension>
            <ns3:hr>126</ns3:hr>
            <ns3:cad>58</ns3:cad>
          </ns3:TrackPointExtension>
        </extensions>
      </trkpt>
      <trkpt lat="45.3107003867626190185546875" lon="-71.03561843745410442352294921875">
        <ele>836.79998779296875</ele>
        <time>2026-08-21T21:42:52.000Z</time>
        <extensions>
          <ns3:TrackPointExtension>
            <ns3:hr>127</ns3:hr>
            <ns3:cad>58</ns3:cad>
          </ns3:TrackPointExtension>
        </extensions>
      </trkpt>
      <trkpt lat="45.31069024465978145599365234375" lon="-71.03563654236495494842529296875">
        <ele>836.79998779296875</ele>
        <time>2026-08-21T21:42:53.000Z</time>
        <extensions>
          <ns3:TrackPointExtension>
            <ns3:hr>128</ns3:hr>
            <ns3:cad>58</ns3:cad>
          </ns3:TrackPointExtension>
        </extensions>
      </trkpt>
      <trkpt lat="45.31068404205143451690673828125" lon="-71.035658083856105804443359375">
        <ele>836.79998779296875</ele>
        <time>2026-08-21T21:42:54.000Z</time>
        <extensions>
          <ns3:TrackPointExtension>
            <ns3:hr>128</ns3:hr>
            <ns3:cad>58</ns3:cad>
          </ns3:TrackPointExtension>
        </extensions>
      </trkpt>
      <trkpt lat="45.3106817789375782012939453125" lon="-71.03567493148148059844970703125">
        <ele>836.79998779296875</ele>
        <time>2026-08-21T21:42:55.000Z</time>
        <extensions>
          <ns3:TrackPointExtension>
            <ns3:hr>129</ns3:hr>
            <ns3:cad>54</ns3:cad>
          </ns3:TrackPointExtension>
        </extensions>
      </trkpt>
      <trkpt lat="45.31068286858499050140380859375" lon="-71.03570192120969295501708984375">
        <ele>836.79998779296875</ele>
        <time>2026-08-21T21:42:56.000Z</time>
        <extensions>
          <ns3:TrackPointExtension>
            <ns3:hr>129</ns3:hr>
            <ns3:cad>54</ns3:cad>
          </ns3:TrackPointExtension>
        </extensions>
      </trkpt>
      <trkpt lat="45.3106814436614513397216796875" lon="-71.035726480185985565185546875">
        <ele>836.79998779296875</ele>
        <time>2026-08-21T21:42:57.000Z</time>
        <extensions>
          <ns3:TrackPointExtension>
            <ns3:hr>129</ns3:hr>
            <ns3:cad>53</ns3:cad>
          </ns3:TrackPointExtension>
        </extensions>
      </trkpt>
      <trkpt lat="45.31067549251019954681396484375" lon="-71.035739891231060028076171875">
        <ele>836.5999755859375</ele>
        <time>2026-08-21T21:42:58.000Z</time>
        <extensions>
          <ns3:TrackPointExtension>
            <ns3:hr>129</ns3:hr>
            <ns3:cad>53</ns3:cad>
          </ns3:TrackPointExtension>
        </extensions>
      </trkpt>
      <trkpt lat="45.31067264266312122344970703125" lon="-71.0357536375522613525390625">
        <ele>836.5999755859375</ele>
        <time>2026-08-21T21:42:59.000Z</time>
        <extensions>
          <ns3:TrackPointExtension>
            <ns3:hr>129</ns3:hr>
            <ns3:cad>53</ns3:cad>
          </ns3:TrackPointExtension>
        </extensions>
      </trkpt>
      <trkpt lat="45.31066954135894775390625" lon="-71.035767383873462677001953125">
        <ele>836.4000244140625</ele>
        <time>2026-08-21T21:43:00.000Z</time>
        <extensions>
          <ns3:TrackPointExtension>
            <ns3:hr>129</ns3:hr>
            <ns3:cad>53</ns3:cad>
          </ns3:TrackPointExtension>
        </extensions>
      </trkpt>
      <trkpt lat="45.31066660769283771514892578125" lon="-71.0357885062694549560546875">
        <ele>836.4000244140625</ele>
        <time>2026-08-21T21:43:01.000Z</time>
        <extensions>
          <ns3:TrackPointExtension>
            <ns3:hr>128</ns3:hr>
            <ns3:cad>53</ns3:cad>
          </ns3:TrackPointExtension>
        </extensions>
      </trkpt>
      <trkpt lat="45.31066350638866424560546875" lon="-71.03580451570451259613037109375">
        <ele>836.20001220703125</ele>
        <time>2026-08-21T21:43:02.000Z</time>
        <extensions>
          <ns3:TrackPointExtension>
            <ns3:hr>128</ns3:hr>
            <ns3:cad>53</ns3:cad>
          </ns3:TrackPointExtension>
        </extensions>
      </trkpt>
      <trkpt lat="45.31066040508449077606201171875" lon="-71.0358181782066822052001953125">
        <ele>836</ele>
        <time>2026-08-21T21:43:03.000Z</time>
        <extensions>
          <ns3:TrackPointExtension>
            <ns3:hr>128</ns3:hr>
            <ns3:cad>53</ns3:cad>
          </ns3:TrackPointExtension>
        </extensions>
      </trkpt>
      <trkpt lat="45.31065872870385646820068359375" lon="-71.03585095144808292388916015625">
        <ele>835.79998779296875</ele>
        <time>2026-08-21T21:43:04.000Z</time>
        <extensions>
          <ns3:TrackPointExtension>
            <ns3:hr>128</ns3:hr>
            <ns3:cad>0</ns3:cad>
          </ns3:TrackPointExtension>
        </extensions>
      </trkpt>
      <trkpt lat="45.3106609918177127838134765625" lon="-71.03587358258664608001708984375">
        <ele>835.5999755859375</ele>
        <time>2026-08-21T21:43:05.000Z</time>
        <extensions>
          <ns3:TrackPointExtension>
            <ns3:hr>128</ns3:hr>
            <ns3:cad>0</ns3:cad>
          </ns3:TrackPointExtension>
        </extensions>
      </trkpt>
      <trkpt lat="45.31066124327480792999267578125" lon="-71.035905517637729644775390625">
        <ele>835.5999755859375</ele>
        <time>2026-08-21T21:43:06.000Z</time>
        <extensions>
          <ns3:TrackPointExtension>
            <ns3:hr>127</ns3:hr>
            <ns3:cad>0</ns3:cad>
          </ns3:TrackPointExtension>
        </extensions>
      </trkpt>
      <trkpt lat="45.31066359020769596099853515625" lon="-71.035939045250415802001953125">
        <ele>835.4000244140625</ele>
        <time>2026-08-21T21:43:07.000Z</time>
        <extensions>
          <ns3:TrackPointExtension>
            <ns3:hr>127</ns3:hr>
            <ns3:cad>0</ns3:cad>
          </ns3:TrackPointExtension>
        </extensions>
      </trkpt>
      <trkpt lat="45.3106723912060260772705078125" lon="-71.03596209548413753509521484375">
        <ele>835.5999755859375</ele>
        <time>2026-08-21T21:43:08.000Z</time>
        <extensions>
          <ns3:TrackPointExtension>
            <ns3:hr>127</ns3:hr>
            <ns3:cad>0</ns3:cad>
          </ns3:TrackPointExtension>
        </extensions>
      </trkpt>
      <trkpt lat="45.31067901290953159332275390625" lon="-71.03598472662270069122314453125">
        <ele>835.5999755859375</ele>
        <time>2026-08-21T21:43:09.000Z</time>
        <extensions>
          <ns3:TrackPointExtension>
            <ns3:hr>126</ns3:hr>
            <ns3:cad>0</ns3:cad>
          </ns3:TrackPointExtension>
        </extensions>
      </trkpt>
      <trkpt lat="45.310680605471134185791015625" lon="-71.03600442409515380859375">
        <ele>835.5999755859375</ele>
        <time>2026-08-21T21:43:10.000Z</time>
        <extensions>
          <ns3:TrackPointExtension>
            <ns3:hr>126</ns3:hr>
            <ns3:cad>0</ns3:cad>
          </ns3:TrackPointExtension>
        </extensions>
      </trkpt>
      <trkpt lat="45.3106851316988468170166015625" lon="-71.03603325784206390380859375">
        <ele>835.5999755859375</ele>
        <time>2026-08-21T21:43:11.000Z</time>
        <extensions>
          <ns3:TrackPointExtension>
            <ns3:hr>126</ns3:hr>
            <ns3:cad>0</ns3:cad>
          </ns3:TrackPointExtension>
        </extensions>
      </trkpt>
      <trkpt lat="45.3106878139078617095947265625" lon="-71.0360488481819629669189453125">
        <ele>835.5999755859375</ele>
        <time>2026-08-21T21:43:12.000Z</time>
        <extensions>
          <ns3:TrackPointExtension>
            <ns3:hr>126</ns3:hr>
            <ns3:cad>0</ns3:cad>
          </ns3:TrackPointExtension>
        </extensions>
      </trkpt>
      <trkpt lat="45.3106894902884960174560546875" lon="-71.03608019649982452392578125">
        <ele>835.5999755859375</ele>
        <time>2026-08-21T21:43:13.000Z</time>
        <extensions>
          <ns3:TrackPointExtension>
            <ns3:hr>126</ns3:hr>
            <ns3:cad>0</ns3:cad>
          </ns3:TrackPointExtension>
        </extensions>
      </trkpt>
      <trkpt lat="45.31069108285009860992431640625" lon="-71.03610341437160968780517578125">
        <ele>835.79998779296875</ele>
        <time>2026-08-21T21:43:14.000Z</time>
        <extensions>
          <ns3:TrackPointExtension>
            <ns3:hr>125</ns3:hr>
            <ns3:cad>0</ns3:cad>
          </ns3:TrackPointExtension>
        </extensions>
      </trkpt>
      <trkpt lat="45.31069410033524036407470703125" lon="-71.036126799881458282470703125">
        <ele>835.79998779296875</ele>
        <time>2026-08-21T21:43:15.000Z</time>
        <extensions>
          <ns3:TrackPointExtension>
            <ns3:hr>125</ns3:hr>
            <ns3:cad>0</ns3:cad>
          </ns3:TrackPointExtension>
        </extensions>
      </trkpt>
      <trkpt lat="45.31069912947714328765869140625" lon="-71.036145575344562530517578125">
        <ele>835.79998779296875</ele>
        <time>2026-08-21T21:43:16.000Z</time>
        <extensions>
          <ns3:TrackPointExtension>
            <ns3:hr>125</ns3:hr>
            <ns3:cad>0</ns3:cad>
          </ns3:TrackPointExtension>
        </extensions>
      </trkpt>
      <trkpt lat="45.310702733695507049560546875" lon="-71.03616761974990367889404296875">
        <ele>835.79998779296875</ele>
        <time>2026-08-21T21:43:17.000Z</time>
        <extensions>
          <ns3:TrackPointExtension>
            <ns3:hr>125</ns3:hr>
            <ns3:cad>0</ns3:cad>
          </ns3:TrackPointExtension>
        </extensions>
      </trkpt>
      <trkpt lat="45.3107092715799808502197265625" lon="-71.03618337772786617279052734375">
        <ele>835.79998779296875</ele>
        <time>2026-08-21T21:43:18.000Z</time>
        <extensions>
          <ns3:TrackPointExtension>
            <ns3:hr>124</ns3:hr>
            <ns3:cad>0</ns3:cad>
          </ns3:TrackPointExtension>
        </extensions>
      </trkpt>
      <trkpt lat="45.3107169829308986663818359375" lon="-71.036189161241054534912109375">
        <ele>835.5999755859375</ele>
        <time>2026-08-21T21:43:19.000Z</time>
        <extensions>
          <ns3:TrackPointExtension>
            <ns3:hr>125</ns3:hr>
            <ns3:cad>0</ns3:cad>
          </ns3:TrackPointExtension>
        </extensions>
      </trkpt>
      <trkpt lat="45.31072813086211681365966796875" lon="-71.0362047515809535980224609375">
        <ele>835.4000244140625</ele>
        <time>2026-08-21T21:43:20.000Z</time>
        <extensions>
          <ns3:TrackPointExtension>
            <ns3:hr>125</ns3:hr>
            <ns3:cad>0</ns3:cad>
          </ns3:TrackPointExtension>
        </extensions>
      </trkpt>
      <trkpt lat="45.31073056161403656005859375" lon="-71.03621321730315685272216796875">
        <ele>835.20001220703125</ele>
        <time>2026-08-21T21:43:21.000Z</time>
        <extensions>
          <ns3:TrackPointExtension>
            <ns3:hr>125</ns3:hr>
            <ns3:cad>40</ns3:cad>
          </ns3:TrackPointExtension>
        </extensions>
      </trkpt>
      <trkpt lat="45.3107370994985103607177734375" lon="-71.03621472604572772979736328125">
        <ele>834.79998779296875</ele>
        <time>2026-08-21T21:43:22.000Z</time>
        <extensions>
          <ns3:TrackPointExtension>
            <ns3:hr>125</ns3:hr>
            <ns3:cad>40</ns3:cad>
          </ns3:TrackPointExtension>
        </extensions>
      </trkpt>
      <trkpt lat="45.31074070371687412261962890625" lon="-71.0362310707569122314453125">
        <ele>834.4000244140625</ele>
        <time>2026-08-21T21:43:23.000Z</time>
        <extensions>
          <ns3:TrackPointExtension>
            <ns3:hr>125</ns3:hr>
            <ns3:cad>0</ns3:cad>
          </ns3:TrackPointExtension>
        </extensions>
      </trkpt>
      <trkpt lat="45.31074489466845989227294921875" lon="-71.0362433083355426788330078125">
        <ele>833.79998779296875</ele>
        <time>2026-08-21T21:43:24.000Z</time>
        <extensions>
          <ns3:TrackPointExtension>
            <ns3:hr>125</ns3:hr>
            <ns3:cad>0</ns3:cad>
          </ns3:TrackPointExtension>
        </extensions>
      </trkpt>
      <trkpt lat="45.31075579114258289337158203125" lon="-71.0362614132463932037353515625">
        <ele>833.4000244140625</ele>
        <time>2026-08-21T21:43:25.000Z</time>
        <extensions>
          <ns3:TrackPointExtension>
            <ns3:hr>126</ns3:hr>
            <ns3:cad>0</ns3:cad>
          </ns3:TrackPointExtension>
        </extensions>
      </trkpt>
      <trkpt lat="45.31076467595994472503662109375" lon="-71.03627339936792850494384765625">
        <ele>832.79998779296875</ele>
        <time>2026-08-21T21:43:26.000Z</time>
        <extensions>
          <ns3:TrackPointExtension>
            <ns3:hr>125</ns3:hr>
            <ns3:cad>0</ns3:cad>
          </ns3:TrackPointExtension>
        </extensions>
      </trkpt>
      <trkpt lat="45.3107756562530994415283203125" lon="-71.0362885706126689910888671875">
        <ele>832.4000244140625</ele>
        <time>2026-08-21T21:43:27.000Z</time>
        <extensions>
          <ns3:TrackPointExtension>
            <ns3:hr>125</ns3:hr>
            <ns3:cad>0</ns3:cad>
          </ns3:TrackPointExtension>
        </extensions>
      </trkpt>
      <trkpt lat="45.31078713946044445037841796875" lon="-71.036311872303485870361328125">
        <ele>831.79998779296875</ele>
        <time>2026-08-21T21:43:28.000Z</time>
        <extensions>
          <ns3:TrackPointExtension>
            <ns3:hr>125</ns3:hr>
            <ns3:cad>40</ns3:cad>
          </ns3:TrackPointExtension>
        </extensions>
      </trkpt>
      <trkpt lat="45.31080038286745548248291015625" lon="-71.03632905520498752593994140625">
        <ele>831.5999755859375</ele>
        <time>2026-08-21T21:43:29.000Z</time>
        <extensions>
          <ns3:TrackPointExtension>
            <ns3:hr>125</ns3:hr>
            <ns3:cad>40</ns3:cad>
          </ns3:TrackPointExtension>
        </extensions>
      </trkpt>
      <trkpt lat="45.310814715921878814697265625" lon="-71.03634598664939403533935546875">
        <ele>831.4000244140625</ele>
        <time>2026-08-21T21:43:30.000Z</time>
        <extensions>
          <ns3:TrackPointExtension>
            <ns3:hr>125</ns3:hr>
            <ns3:cad>40</ns3:cad>
          </ns3:TrackPointExtension>
        </extensions>
      </trkpt>
      <trkpt lat="45.3108293004333972930908203125" lon="-71.03636048734188079833984375">
        <ele>831.20001220703125</ele>
        <time>2026-08-21T21:43:31.000Z</time>
        <extensions>
          <ns3:TrackPointExtension>
            <ns3:hr>126</ns3:hr>
            <ns3:cad>40</ns3:cad>
          </ns3:TrackPointExtension>
        </extensions>
      </trkpt>
      <trkpt lat="45.31084011308848857879638671875" lon="-71.03637465275824069976806640625">
        <ele>831</ele>
        <time>2026-08-21T21:43:32.000Z</time>
        <extensions>
          <ns3:TrackPointExtension>
            <ns3:hr>125</ns3:hr>
            <ns3:cad>40</ns3:cad>
          </ns3:TrackPointExtension>
        </extensions>
      </trkpt>
      <trkpt lat="45.31085235066711902618408203125" lon="-71.036393679678440093994140625">
        <ele>831</ele>
        <time>2026-08-21T21:43:33.000Z</time>
        <extensions>
          <ns3:TrackPointExtension>
            <ns3:hr>125</ns3:hr>
            <ns3:cad>73</ns3:cad>
          </ns3:TrackPointExtension>
        </extensions>
      </trkpt>
      <trkpt lat="45.31086408533155918121337890625" lon="-71.03641203604638576507568359375">
        <ele>830.79998779296875</ele>
        <time>2026-08-21T21:43:34.000Z</time>
        <extensions>
          <ns3:TrackPointExtension>
            <ns3:hr>125</ns3:hr>
            <ns3:cad>73</ns3:cad>
          </ns3:TrackPointExtension>
        </extensions>
      </trkpt>
      <trkpt lat="45.31087280251085758209228515625" lon="-71.03642896749079227447509765625">
        <ele>830.79998779296875</ele>
        <time>2026-08-21T21:43:35.000Z</time>
        <extensions>
          <ns3:TrackPointExtension>
            <ns3:hr>125</ns3:hr>
            <ns3:cad>73</ns3:cad>
          </ns3:TrackPointExtension>
        </extensions>
      </trkpt>
      <trkpt lat="45.31088168732821941375732421875" lon="-71.0364478267729282379150390625">
        <ele>830.79998779296875</ele>
        <time>2026-08-21T21:43:36.000Z</time>
        <extensions>
          <ns3:TrackPointExtension>
            <ns3:hr>126</ns3:hr>
            <ns3:cad>73</ns3:cad>
          </ns3:TrackPointExtension>
        </extensions>
      </trkpt>
      <trkpt lat="45.31089308671653270721435546875" lon="-71.03647020645439624786376953125">
        <ele>830.79998779296875</ele>
        <time>2026-08-21T21:43:37.000Z</time>
        <extensions>
          <ns3:TrackPointExtension>
            <ns3:hr>126</ns3:hr>
            <ns3:cad>73</ns3:cad>
          </ns3:TrackPointExtension>
        </extensions>
      </trkpt>
      <trkpt lat="45.310904569923877716064453125" lon="-71.0364925861358642578125">
        <ele>830.5999755859375</ele>
        <time>2026-08-21T21:43:38.000Z</time>
        <extensions>
          <ns3:TrackPointExtension>
            <ns3:hr>126</ns3:hr>
            <ns3:cad>73</ns3:cad>
          </ns3:TrackPointExtension>
        </extensions>
      </trkpt>
      <trkpt lat="45.31091630458831787109375" lon="-71.036515720188617706298828125">
        <ele>830.5999755859375</ele>
        <time>2026-08-21T21:43:39.000Z</time>
        <extensions>
          <ns3:TrackPointExtension>
            <ns3:hr>126</ns3:hr>
            <ns3:cad>73</ns3:cad>
          </ns3:TrackPointExtension>
        </extensions>
      </trkpt>
      <trkpt lat="45.31092879362404346466064453125" lon="-71.0365329869091510772705078125">
        <ele>830.4000244140625</ele>
        <time>2026-08-21T21:43:40.000Z</time>
        <extensions>
          <ns3:TrackPointExtension>
            <ns3:hr>126</ns3:hr>
            <ns3:cad>73</ns3:cad>
          </ns3:TrackPointExtension>
        </extensions>
      </trkpt>
      <trkpt lat="45.31093901954591274261474609375" lon="-71.03655226528644561767578125">
        <ele>830.4000244140625</ele>
        <time>2026-08-21T21:43:41.000Z</time>
        <extensions>
          <ns3:TrackPointExtension>
            <ns3:hr>126</ns3:hr>
            <ns3:cad>73</ns3:cad>
          </ns3:TrackPointExtension>
        </extensions>
      </trkpt>
      <trkpt lat="45.31095259822905063629150390625" lon="-71.03657229803502559661865234375">
        <ele>830.4000244140625</ele>
        <time>2026-08-21T21:43:42.000Z</time>
        <extensions>
          <ns3:TrackPointExtension>
            <ns3:hr>125</ns3:hr>
            <ns3:cad>73</ns3:cad>
          </ns3:TrackPointExtension>
        </extensions>
      </trkpt>
      <trkpt lat="45.310961902141571044921875" lon="-71.036591492593288421630859375">
        <ele>830.4000244140625</ele>
        <time>2026-08-21T21:43:43.000Z</time>
        <extensions>
          <ns3:TrackPointExtension>
            <ns3:hr>124</ns3:hr>
            <ns3:cad>71</ns3:cad>
          </ns3:TrackPointExtension>
        </extensions>
      </trkpt>
      <trkpt lat="45.3109753131866455078125" lon="-71.03661135770380496978759765625">
        <ele>830.4000244140625</ele>
        <time>2026-08-21T21:43:44.000Z</time>
        <extensions>
          <ns3:TrackPointExtension>
            <ns3:hr>123</ns3:hr>
            <ns3:cad>71</ns3:cad>
          </ns3:TrackPointExtension>
        </extensions>
      </trkpt>
      <trkpt lat="45.3109873831272125244140625" lon="-71.03662761859595775604248046875">
        <ele>830.4000244140625</ele>
        <time>2026-08-21T21:43:45.000Z</time>
        <extensions>
          <ns3:TrackPointExtension>
            <ns3:hr>123</ns3:hr>
            <ns3:cad>70</ns3:cad>
          </ns3:TrackPointExtension>
        </extensions>
      </trkpt>
      <trkpt lat="45.31100054271519184112548828125" lon="-71.03664019145071506500244140625">
        <ele>830.20001220703125</ele>
        <time>2026-08-21T21:43:46.000Z</time>
        <extensions>
          <ns3:TrackPointExtension>
            <ns3:hr>122</ns3:hr>
            <ns3:cad>70</ns3:cad>
          </ns3:TrackPointExtension>
        </extensions>
      </trkpt>
      <trkpt lat="45.3110133670270442962646484375" lon="-71.03665762580931186676025390625">
        <ele>830.20001220703125</ele>
        <time>2026-08-21T21:43:47.000Z</time>
        <extensions>
          <ns3:TrackPointExtension>
            <ns3:hr>122</ns3:hr>
            <ns3:cad>70</ns3:cad>
          </ns3:TrackPointExtension>
        </extensions>
      </trkpt>
      <trkpt lat="45.311032645404338836669921875" lon="-71.0366763174533843994140625">
        <ele>830.20001220703125</ele>
        <time>2026-08-21T21:43:48.000Z</time>
        <extensions>
          <ns3:TrackPointExtension>
            <ns3:hr>121</ns3:hr>
            <ns3:cad>72</ns3:cad>
          </ns3:TrackPointExtension>
        </extensions>
      </trkpt>
      <trkpt lat="45.31104915775358676910400390625" lon="-71.03668746538460254669189453125">
        <ele>830.20001220703125</ele>
        <time>2026-08-21T21:43:49.000Z</time>
        <extensions>
          <ns3:TrackPointExtension>
            <ns3:hr>121</ns3:hr>
            <ns3:cad>72</ns3:cad>
          </ns3:TrackPointExtension>
        </extensions>
      </trkpt>
      <trkpt lat="45.3110656701028347015380859375" lon="-71.036698110401630401611328125">
        <ele>830.20001220703125</ele>
        <time>2026-08-21T21:43:50.000Z</time>
        <extensions>
          <ns3:TrackPointExtension>
            <ns3:hr>121</ns3:hr>
            <ns3:cad>70</ns3:cad>
          </ns3:TrackPointExtension>
        </extensions>
      </trkpt>
      <trkpt lat="45.3110800869762897491455078125" lon="-71.03670892305672168731689453125">
        <ele>830</ele>
        <time>2026-08-21T21:43:51.000Z</time>
        <extensions>
          <ns3:TrackPointExtension>
            <ns3:hr>121</ns3:hr>
            <ns3:cad>69</ns3:cad>
          </ns3:TrackPointExtension>
        </extensions>
      </trkpt>
      <trkpt lat="45.3110893070697784423828125" lon="-71.0367307998239994049072265625">
        <ele>830</ele>
        <time>2026-08-21T21:43:52.000Z</time>
        <extensions>
          <ns3:TrackPointExtension>
            <ns3:hr>121</ns3:hr>
            <ns3:cad>69</ns3:cad>
          </ns3:TrackPointExtension>
        </extensions>
      </trkpt>
      <trkpt lat="45.3110951744019985198974609375" lon="-71.03675200603902339935302734375">
        <ele>829.79998779296875</ele>
        <time>2026-08-21T21:43:53.000Z</time>
        <extensions>
          <ns3:TrackPointExtension>
            <ns3:hr>121</ns3:hr>
            <ns3:cad>69</ns3:cad>
          </ns3:TrackPointExtension>
        </extensions>
      </trkpt>
      <trkpt lat="45.31110648997128009796142578125" lon="-71.03677094914019107818603515625">
        <ele>829.79998779296875</ele>
        <time>2026-08-21T21:43:54.000Z</time>
        <extensions>
          <ns3:TrackPointExtension>
            <ns3:hr>121</ns3:hr>
            <ns3:cad>69</ns3:cad>
          </ns3:TrackPointExtension>
        </extensions>
      </trkpt>
      <trkpt lat="45.31111839227378368377685546875" lon="-71.03679575957357883453369140625">
        <ele>829.79998779296875</ele>
        <time>2026-08-21T21:43:55.000Z</time>
        <extensions>
          <ns3:TrackPointExtension>
            <ns3:hr>121</ns3:hr>
            <ns3:cad>69</ns3:cad>
          </ns3:TrackPointExtension>
        </extensions>
      </trkpt>
      <trkpt lat="45.31113096512854099273681640625" lon="-71.03681118227541446685791015625">
        <ele>829.79998779296875</ele>
        <time>2026-08-21T21:43:56.000Z</time>
        <extensions>
          <ns3:TrackPointExtension>
            <ns3:hr>122</ns3:hr>
            <ns3:cad>69</ns3:cad>
          </ns3:TrackPointExtension>
        </extensions>
      </trkpt>
      <trkpt lat="45.31114907003939151763916015625" lon="-71.0368320532143115997314453125">
        <ele>830</ele>
        <time>2026-08-21T21:43:57.000Z</time>
        <extensions>
          <ns3:TrackPointExtension>
            <ns3:hr>122</ns3:hr>
            <ns3:cad>69</ns3:cad>
          </ns3:TrackPointExtension>
        </extensions>
      </trkpt>
      <trkpt lat="45.31116717495024204254150390625" lon="-71.03683792054653167724609375">
        <ele>830</ele>
        <time>2026-08-21T21:43:58.000Z</time>
        <extensions>
          <ns3:TrackPointExtension>
            <ns3:hr>122</ns3:hr>
            <ns3:cad>69</ns3:cad>
          </ns3:TrackPointExtension>
        </extensions>
      </trkpt>
      <trkpt lat="45.3111846931278705596923828125" lon="-71.036847643554210662841796875">
        <ele>829.79998779296875</ele>
        <time>2026-08-21T21:43:59.000Z</time>
        <extensions>
          <ns3:TrackPointExtension>
            <ns3:hr>122</ns3:hr>
            <ns3:cad>69</ns3:cad>
          </ns3:TrackPointExtension>
        </extensions>
      </trkpt>
      <trkpt lat="45.31119651161134243011474609375" lon="-71.03685862384736537933349609375">
        <ele>829.79998779296875</ele>
        <time>2026-08-21T21:44:00.000Z</time>
        <extensions>
          <ns3:TrackPointExtension>
            <ns3:hr>122</ns3:hr>
            <ns3:cad>72</ns3:cad>
          </ns3:TrackPointExtension>
        </extensions>
      </trkpt>
      <trkpt lat="45.3112095035612583160400390625" lon="-71.036870442330837249755859375">
        <ele>829.79998779296875</ele>
        <time>2026-08-21T21:44:01.000Z</time>
        <extensions>
          <ns3:TrackPointExtension>
            <ns3:hr>121</ns3:hr>
            <ns3:cad>72</ns3:cad>
          </ns3:TrackPointExtension>
        </extensions>
      </trkpt>
      <trkpt lat="45.311227776110172271728515625" lon="-71.0368867032229900360107421875">
        <ele>830</ele>
        <time>2026-08-21T21:44:02.000Z</time>
        <extensions>
          <ns3:TrackPointExtension>
            <ns3:hr>122</ns3:hr>
            <ns3:cad>72</ns3:cad>
          </ns3:TrackPointExtension>
        </extensions>
      </trkpt>
      <trkpt lat="45.311237163841724395751953125" lon="-71.03689818643033504486083984375">
        <ele>830</ele>
        <time>2026-08-21T21:44:03.000Z</time>
        <extensions>
          <ns3:TrackPointExtension>
            <ns3:hr>122</ns3:hr>
            <ns3:cad>73</ns3:cad>
          </ns3:TrackPointExtension>
        </extensions>
      </trkpt>
      <trkpt lat="45.3112393431365489959716796875" lon="-71.0369239188730716705322265625">
        <ele>830.20001220703125</ele>
        <time>2026-08-21T21:44:04.000Z</time>
        <extensions>
          <ns3:TrackPointExtension>
            <ns3:hr>122</ns3:hr>
            <ns3:cad>73</ns3:cad>
          </ns3:TrackPointExtension>
        </extensions>
      </trkpt>
      <trkpt lat="45.3112510778009891510009765625" lon="-71.0369477234780788421630859375">
        <ele>830.20001220703125</ele>
        <time>2026-08-21T21:44:05.000Z</time>
        <extensions>
          <ns3:TrackPointExtension>
            <ns3:hr>122</ns3:hr>
            <ns3:cad>73</ns3:cad>
          </ns3:TrackPointExtension>
        </extensions>
      </trkpt>
      <trkpt lat="45.3112587891519069671630859375" lon="-71.0369621403515338897705078125">
        <ele>830.4000244140625</ele>
        <time>2026-08-21T21:44:06.000Z</time>
        <extensions>
          <ns3:TrackPointExtension>
            <ns3:hr>121</ns3:hr>
            <ns3:cad>73</ns3:cad>
          </ns3:TrackPointExtension>
        </extensions>
      </trkpt>
      <trkpt lat="45.31127077527344226837158203125" lon="-71.03697873651981353759765625">
        <ele>830.5999755859375</ele>
        <time>2026-08-21T21:44:07.000Z</time>
        <extensions>
          <ns3:TrackPointExtension>
            <ns3:hr>122</ns3:hr>
            <ns3:cad>73</ns3:cad>
          </ns3:TrackPointExtension>
        </extensions>
      </trkpt>
      <trkpt lat="45.3112792409956455230712890625" lon="-71.03699508123099803924560546875">
        <ele>830.79998779296875</ele>
        <time>2026-08-21T21:44:08.000Z</time>
        <extensions>
          <ns3:TrackPointExtension>
            <ns3:hr>122</ns3:hr>
            <ns3:cad>73</ns3:cad>
          </ns3:TrackPointExtension>
        </extensions>
      </trkpt>
      <trkpt lat="45.31128904782235622406005859375" lon="-71.03701301850378513336181640625">
        <ele>831</ele>
        <time>2026-08-21T21:44:09.000Z</time>
        <extensions>
          <ns3:TrackPointExtension>
            <ns3:hr>121</ns3:hr>
            <ns3:cad>73</ns3:cad>
          </ns3:TrackPointExtension>
        </extensions>
      </trkpt>
      <trkpt lat="45.31129156239330768585205078125" lon="-71.03703246451914310455322265625">
        <ele>831</ele>
        <time>2026-08-21T21:44:10.000Z</time>
        <extensions>
          <ns3:TrackPointExtension>
            <ns3:hr>121</ns3:hr>
            <ns3:cad>73</ns3:cad>
          </ns3:TrackPointExtension>
        </extensions>
      </trkpt>
      <trkpt lat="45.31129826791584491729736328125" lon="-71.03705291636288166046142578125">
        <ele>831.20001220703125</ele>
        <time>2026-08-21T21:44:11.000Z</time>
        <extensions>
          <ns3:TrackPointExtension>
            <ns3:hr>121</ns3:hr>
            <ns3:cad>73</ns3:cad>
          </ns3:TrackPointExtension>
        </extensions>
      </trkpt>
      <trkpt lat="45.31130991876125335693359375" lon="-71.0370771400630474090576171875">
        <ele>831.4000244140625</ele>
        <time>2026-08-21T21:44:12.000Z</time>
        <extensions>
          <ns3:TrackPointExtension>
            <ns3:hr>121</ns3:hr>
            <ns3:cad>73</ns3:cad>
          </ns3:TrackPointExtension>
        </extensions>
      </trkpt>
      <trkpt lat="45.3113238327205181121826171875" lon="-71.03709700517356395721435546875">
        <ele>831.4000244140625</ele>
        <time>2026-08-21T21:44:13.000Z</time>
        <extensions>
          <ns3:TrackPointExtension>
            <ns3:hr>121</ns3:hr>
            <ns3:cad>73</ns3:cad>
          </ns3:TrackPointExtension>
        </extensions>
      </trkpt>
      <trkpt lat="45.3113385848701000213623046875" lon="-71.03711410425603389739990234375">
        <ele>831.4000244140625</ele>
        <time>2026-08-21T21:44:14.000Z</time>
        <extensions>
          <ns3:TrackPointExtension>
            <ns3:hr>121</ns3:hr>
            <ns3:cad>73</ns3:cad>
          </ns3:TrackPointExtension>
        </extensions>
      </trkpt>
      <trkpt lat="45.311348140239715576171875" lon="-71.037130616605281829833984375">
        <ele>831.20001220703125</ele>
        <time>2026-08-21T21:44:15.000Z</time>
        <extensions>
          <ns3:TrackPointExtension>
            <ns3:hr>122</ns3:hr>
            <ns3:cad>73</ns3:cad>
          </ns3:TrackPointExtension>
        </extensions>
      </trkpt>
      <trkpt lat="45.31136062927544116973876953125" lon="-71.0371577739715576171875">
        <ele>831.20001220703125</ele>
        <time>2026-08-21T21:44:16.000Z</time>
        <extensions>
          <ns3:TrackPointExtension>
            <ns3:hr>122</ns3:hr>
            <ns3:cad>73</ns3:cad>
          </ns3:TrackPointExtension>
        </extensions>
      </trkpt>
      <trkpt lat="45.3113731183111667633056640625" lon="-71.037180237472057342529296875">
        <ele>831</ele>
        <time>2026-08-21T21:44:17.000Z</time>
        <extensions>
          <ns3:TrackPointExtension>
            <ns3:hr>122</ns3:hr>
            <ns3:cad>0</ns3:cad>
          </ns3:TrackPointExtension>
        </extensions>
      </trkpt>
      <trkpt lat="45.311390720307826995849609375" lon="-71.0371978394687175750732421875">
        <ele>830.79998779296875</ele>
        <time>2026-08-21T21:44:18.000Z</time>
        <extensions>
          <ns3:TrackPointExtension>
            <ns3:hr>123</ns3:hr>
            <ns3:cad>0</ns3:cad>
          </ns3:TrackPointExtension>
        </extensions>
      </trkpt>
      <trkpt lat="45.31140086241066455841064453125" lon="-71.037221811711788177490234375">
        <ele>830.79998779296875</ele>
        <time>2026-08-21T21:44:19.000Z</time>
        <extensions>
          <ns3:TrackPointExtension>
            <ns3:hr>123</ns3:hr>
            <ns3:cad>0</ns3:cad>
          </ns3:TrackPointExtension>
        </extensions>
      </trkpt>
      <trkpt lat="45.31140723265707492828369140625" lon="-71.03724519722163677215576171875">
        <ele>830.79998779296875</ele>
        <time>2026-08-21T21:44:20.000Z</time>
        <extensions>
          <ns3:TrackPointExtension>
            <ns3:hr>124</ns3:hr>
            <ns3:cad>0</ns3:cad>
          </ns3:TrackPointExtension>
        </extensions>
      </trkpt>
      <trkpt lat="45.31141963787376880645751953125" lon="-71.03726497851312160491943359375">
        <ele>830.5999755859375</ele>
        <time>2026-08-21T21:44:21.000Z</time>
        <extensions>
          <ns3:TrackPointExtension>
            <ns3:hr>125</ns3:hr>
            <ns3:cad>0</ns3:cad>
          </ns3:TrackPointExtension>
        </extensions>
      </trkpt>
      <trkpt lat="45.31142659485340118408203125" lon="-71.0372729413211345672607421875">
        <ele>830.5999755859375</ele>
        <time>2026-08-21T21:44:22.000Z</time>
        <extensions>
          <ns3:TrackPointExtension>
            <ns3:hr>125</ns3:hr>
            <ns3:cad>0</ns3:cad>
          </ns3:TrackPointExtension>
        </extensions>
      </trkpt>
      <trkpt lat="45.31144000589847564697265625" lon="-71.0372803173959255218505859375">
        <ele>830.5999755859375</ele>
        <time>2026-08-21T21:44:23.000Z</time>
        <extensions>
          <ns3:TrackPointExtension>
            <ns3:hr>126</ns3:hr>
            <ns3:cad>0</ns3:cad>
          </ns3:TrackPointExtension>
        </extensions>
      </trkpt>
      <trkpt lat="45.311449728906154632568359375" lon="-71.037283837795257568359375">
        <ele>830.5999755859375</ele>
        <time>2026-08-21T21:44:24.000Z</time>
        <extensions>
          <ns3:TrackPointExtension>
            <ns3:hr>126</ns3:hr>
            <ns3:cad>72</ns3:cad>
          </ns3:TrackPointExtension>
        </extensions>
      </trkpt>
      <trkpt lat="45.311455428600311279296875" lon="-71.03729565627872943878173828125">
        <ele>830.4000244140625</ele>
        <time>2026-08-21T21:44:25.000Z</time>
        <extensions>
          <ns3:TrackPointExtension>
            <ns3:hr>127</ns3:hr>
            <ns3:cad>72</ns3:cad>
          </ns3:TrackPointExtension>
        </extensions>
      </trkpt>
      <trkpt lat="45.31146389432251453399658203125" lon="-71.03731694631278514862060546875">
        <ele>830.4000244140625</ele>
        <time>2026-08-21T21:44:26.000Z</time>
        <extensions>
          <ns3:TrackPointExtension>
            <ns3:hr>128</ns3:hr>
            <ns3:cad>72</ns3:cad>
          </ns3:TrackPointExtension>
        </extensions>
      </trkpt>
      <trkpt lat="45.3114693425595760345458984375" lon="-71.037332117557525634765625">
        <ele>830.20001220703125</ele>
        <time>2026-08-21T21:44:27.000Z</time>
        <extensions>
          <ns3:TrackPointExtension>
            <ns3:hr>129</ns3:hr>
            <ns3:cad>72</ns3:cad>
          </ns3:TrackPointExtension>
        </extensions>
      </trkpt>
      <trkpt lat="45.3114797361195087432861328125" lon="-71.03734980337321758270263671875">
        <ele>830</ele>
        <time>2026-08-21T21:44:28.000Z</time>
        <extensions>
          <ns3:TrackPointExtension>
            <ns3:hr>129</ns3:hr>
            <ns3:cad>72</ns3:cad>
          </ns3:TrackPointExtension>
        </extensions>
      </trkpt>
      <trkpt lat="45.31149457208812236785888671875" lon="-71.03735952638089656829833984375">
        <ele>829.79998779296875</ele>
        <time>2026-08-21T21:44:29.000Z</time>
        <extensions>
          <ns3:TrackPointExtension>
            <ns3:hr>130</ns3:hr>
            <ns3:cad>0</ns3:cad>
          </ns3:TrackPointExtension>
        </extensions>
      </trkpt>
      <trkpt lat="45.31150664202868938446044921875" lon="-71.03738416917622089385986328125">
        <ele>829.5999755859375</ele>
        <time>2026-08-21T21:44:30.000Z</time>
        <extensions>
          <ns3:TrackPointExtension>
            <ns3:hr>131</ns3:hr>
            <ns3:cad>0</ns3:cad>
          </ns3:TrackPointExtension>
        </extensions>
      </trkpt>
      <trkpt lat="45.31151686795055866241455078125" lon="-71.0374053753912448883056640625">
        <ele>829.4000244140625</ele>
        <time>2026-08-21T21:44:31.000Z</time>
        <extensions>
          <ns3:TrackPointExtension>
            <ns3:hr>131</ns3:hr>
            <ns3:cad>0</ns3:cad>
          </ns3:TrackPointExtension>
        </extensions>
      </trkpt>
      <trkpt lat="45.3115303628146648406982421875" lon="-71.03742591105401515960693359375">
        <ele>829.4000244140625</ele>
        <time>2026-08-21T21:44:32.000Z</time>
        <extensions>
          <ns3:TrackPointExtension>
            <ns3:hr>131</ns3:hr>
            <ns3:cad>0</ns3:cad>
          </ns3:TrackPointExtension>
        </extensions>
      </trkpt>
      <trkpt lat="45.3115474618971347808837890625" lon="-71.0374378971755504608154296875">
        <ele>829.20001220703125</ele>
        <time>2026-08-21T21:44:33.000Z</time>
        <extensions>
          <ns3:TrackPointExtension>
            <ns3:hr>131</ns3:hr>
            <ns3:cad>0</ns3:cad>
          </ns3:TrackPointExtension>
        </extensions>
      </trkpt>
      <trkpt lat="45.3115591965615749359130859375" lon="-71.0374449379742145538330078125">
        <ele>829.20001220703125</ele>
        <time>2026-08-21T21:44:34.000Z</time>
        <extensions>
          <ns3:TrackPointExtension>
            <ns3:hr>131</ns3:hr>
            <ns3:cad>0</ns3:cad>
          </ns3:TrackPointExtension>
        </extensions>
      </trkpt>
      <trkpt lat="45.31156715936958789825439453125" lon="-71.0374670661985874176025390625">
        <ele>829</ele>
        <time>2026-08-21T21:44:35.000Z</time>
        <extensions>
          <ns3:TrackPointExtension>
            <ns3:hr>132</ns3:hr>
            <ns3:cad>0</ns3:cad>
          </ns3:TrackPointExtension>
        </extensions>
      </trkpt>
      <trkpt lat="45.3115799836814403533935546875" lon="-71.03748743422329425811767578125">
        <ele>829</ele>
        <time>2026-08-21T21:44:36.000Z</time>
        <extensions>
          <ns3:TrackPointExtension>
            <ns3:hr>132</ns3:hr>
            <ns3:cad>70</ns3:cad>
          </ns3:TrackPointExtension>
        </extensions>
      </trkpt>
      <trkpt lat="45.31158886849880218505859375" lon="-71.03750302456319332122802734375">
        <ele>828.79998779296875</ele>
        <time>2026-08-21T21:44:37.000Z</time>
        <extensions>
          <ns3:TrackPointExtension>
            <ns3:hr>131</ns3:hr>
            <ns3:cad>70</ns3:cad>
          </ns3:TrackPointExtension>
        </extensions>
      </trkpt>
      <trkpt lat="45.3116001002490520477294921875" lon="-71.03752196766436100006103515625">
        <ele>828.4000244140625</ele>
        <time>2026-08-21T21:44:38.000Z</time>
        <extensions>
          <ns3:TrackPointExtension>
            <ns3:hr>131</ns3:hr>
            <ns3:cad>70</ns3:cad>
          </ns3:TrackPointExtension>
        </extensions>
      </trkpt>
      <trkpt lat="45.3116091527044773101806640625" lon="-71.03754325769841670989990234375">
        <ele>828.20001220703125</ele>
        <time>2026-08-21T21:44:39.000Z</time>
        <extensions>
          <ns3:TrackPointExtension>
            <ns3:hr>131</ns3:hr>
            <ns3:cad>70</ns3:cad>
          </ns3:TrackPointExtension>
        </extensions>
      </trkpt>
      <trkpt lat="45.311621390283107757568359375" lon="-71.03756488300859928131103515625">
        <ele>827.5999755859375</ele>
        <time>2026-08-21T21:44:40.000Z</time>
        <extensions>
          <ns3:TrackPointExtension>
            <ns3:hr>131</ns3:hr>
            <ns3:cad>70</ns3:cad>
          </ns3:TrackPointExtension>
        </extensions>
      </trkpt>
      <trkpt lat="45.31163807027041912078857421875" lon="-71.03757762350142002105712890625">
        <ele>827.4000244140625</ele>
        <time>2026-08-21T21:44:41.000Z</time>
        <extensions>
          <ns3:TrackPointExtension>
            <ns3:hr>130</ns3:hr>
            <ns3:cad>70</ns3:cad>
          </ns3:TrackPointExtension>
        </extensions>
      </trkpt>
      <trkpt lat="45.31165215186774730682373046875" lon="-71.03759539313614368438720703125">
        <ele>827</ele>
        <time>2026-08-21T21:44:42.000Z</time>
        <extensions>
          <ns3:TrackPointExtension>
            <ns3:hr>130</ns3:hr>
            <ns3:cad>70</ns3:cad>
          </ns3:TrackPointExtension>
        </extensions>
      </trkpt>
      <trkpt lat="45.31166070140898227691650390625" lon="-71.03761634789407253265380859375">
        <ele>826.79998779296875</ele>
        <time>2026-08-21T21:44:43.000Z</time>
        <extensions>
          <ns3:TrackPointExtension>
            <ns3:hr>130</ns3:hr>
            <ns3:cad>0</ns3:cad>
          </ns3:TrackPointExtension>
        </extensions>
      </trkpt>
      <trkpt lat="45.3116701729595661163330078125" lon="-71.0376323573291301727294921875">
        <ele>826.5999755859375</ele>
        <time>2026-08-21T21:44:44.000Z</time>
        <extensions>
          <ns3:TrackPointExtension>
            <ns3:hr>130</ns3:hr>
            <ns3:cad>0</ns3:cad>
          </ns3:TrackPointExtension>
        </extensions>
      </trkpt>
      <trkpt lat="45.31168417073786258697509765625" lon="-71.037648618221282958984375">
        <ele>826.5999755859375</ele>
        <time>2026-08-21T21:44:45.000Z</time>
        <extensions>
          <ns3:TrackPointExtension>
            <ns3:hr>129</ns3:hr>
            <ns3:cad>0</ns3:cad>
          </ns3:TrackPointExtension>
        </extensions>
      </trkpt>
      <trkpt lat="45.31169590540230274200439453125" lon="-71.0376580059528350830078125">
        <ele>826.5999755859375</ele>
        <time>2026-08-21T21:44:46.000Z</time>
        <extensions>
          <ns3:TrackPointExtension>
            <ns3:hr>129</ns3:hr>
            <ns3:cad>75</ns3:cad>
          </ns3:TrackPointExtension>
        </extensions>
      </trkpt>
      <trkpt lat="45.31170956790447235107421875" lon="-71.0376786254346370697021484375">
        <ele>826.5999755859375</ele>
        <time>2026-08-21T21:44:47.000Z</time>
        <extensions>
          <ns3:TrackPointExtension>
            <ns3:hr>129</ns3:hr>
            <ns3:cad>75</ns3:cad>
          </ns3:TrackPointExtension>
        </extensions>
      </trkpt>
      <trkpt lat="45.3117191232740879058837890625" lon="-71.03769580833613872528076171875">
        <ele>826.5999755859375</ele>
        <time>2026-08-21T21:44:48.000Z</time>
        <extensions>
          <ns3:TrackPointExtension>
            <ns3:hr>128</ns3:hr>
            <ns3:cad>75</ns3:cad>
          </ns3:TrackPointExtension>
        </extensions>
      </trkpt>
      <trkpt lat="45.31172809191048145294189453125" lon="-71.037709973752498626708984375">
        <ele>826.5999755859375</ele>
        <time>2026-08-21T21:44:49.000Z</time>
        <extensions>
          <ns3:TrackPointExtension>
            <ns3:hr>128</ns3:hr>
            <ns3:cad>75</ns3:cad>
          </ns3:TrackPointExtension>
        </extensions>
      </trkpt>
      <trkpt lat="45.31173379160463809967041015625" lon="-71.037730090320110321044921875">
        <ele>826.5999755859375</ele>
        <time>2026-08-21T21:44:50.000Z</time>
        <extensions>
          <ns3:TrackPointExtension>
            <ns3:hr>128</ns3:hr>
            <ns3:cad>75</ns3:cad>
          </ns3:TrackPointExtension>
        </extensions>
      </trkpt>
      <trkpt lat="45.31174016185104846954345703125" lon="-71.03775163181126117706298828125">
        <ele>826.4000244140625</ele>
        <time>2026-08-21T21:44:51.000Z</time>
        <extensions>
          <ns3:TrackPointExtension>
            <ns3:hr>128</ns3:hr>
            <ns3:cad>75</ns3:cad>
          </ns3:TrackPointExtension>
        </extensions>
      </trkpt>
      <trkpt lat="45.31175105832517147064208984375" lon="-71.03776806034147739410400390625">
        <ele>826.20001220703125</ele>
        <time>2026-08-21T21:44:52.000Z</time>
        <extensions>
          <ns3:TrackPointExtension>
            <ns3:hr>128</ns3:hr>
            <ns3:cad>75</ns3:cad>
          </ns3:TrackPointExtension>
        </extensions>
      </trkpt>
      <trkpt lat="45.3117600269615650177001953125" lon="-71.0377845726907253265380859375">
        <ele>826.20001220703125</ele>
        <time>2026-08-21T21:44:53.000Z</time>
        <extensions>
          <ns3:TrackPointExtension>
            <ns3:hr>128</ns3:hr>
            <ns3:cad>75</ns3:cad>
          </ns3:TrackPointExtension>
        </extensions>
      </trkpt>
      <trkpt lat="45.31177151016891002655029296875" lon="-71.037795804440975189208984375">
        <ele>825.79998779296875</ele>
        <time>2026-08-21T21:44:54.000Z</time>
        <extensions>
          <ns3:TrackPointExtension>
            <ns3:hr>128</ns3:hr>
            <ns3:cad>75</ns3:cad>
          </ns3:TrackPointExtension>
        </extensions>
      </trkpt>
      <trkpt lat="45.31178408302366733551025390625" lon="-71.03781416080892086029052734375">
        <ele>825.5999755859375</ele>
        <time>2026-08-21T21:44:55.000Z</time>
        <extensions>
          <ns3:TrackPointExtension>
            <ns3:hr>128</ns3:hr>
            <ns3:cad>75</ns3:cad>
          </ns3:TrackPointExtension>
        </extensions>
      </trkpt>
      <trkpt lat="45.31178827397525310516357421875" lon="-71.037823297083377838134765625">
        <ele>825.4000244140625</ele>
        <time>2026-08-21T21:44:56.000Z</time>
        <extensions>
          <ns3:TrackPointExtension>
            <ns3:hr>128</ns3:hr>
            <ns3:cad>75</ns3:cad>
          </ns3:TrackPointExtension>
        </extensions>
      </trkpt>
      <trkpt lat="45.311797745525836944580078125" lon="-71.03783578611910343170166015625">
        <ele>825.4000244140625</ele>
        <time>2026-08-21T21:44:57.000Z</time>
        <extensions>
          <ns3:TrackPointExtension>
            <ns3:hr>127</ns3:hr>
            <ns3:cad>75</ns3:cad>
          </ns3:TrackPointExtension>
        </extensions>
      </trkpt>
      <trkpt lat="45.31180956400930881500244140625" lon="-71.0378492809832096099853515625">
        <ele>825.20001220703125</ele>
        <time>2026-08-21T21:44:58.000Z</time>
        <extensions>
          <ns3:TrackPointExtension>
            <ns3:hr>127</ns3:hr>
            <ns3:cad>0</ns3:cad>
          </ns3:TrackPointExtension>
        </extensions>
      </trkpt>
      <trkpt lat="45.3118160180747509002685546875" lon="-71.03786311112344264984130859375">
        <ele>825</ele>
        <time>2026-08-21T21:44:59.000Z</time>
        <extensions>
          <ns3:TrackPointExtension>
            <ns3:hr>127</ns3:hr>
            <ns3:cad>0</ns3:cad>
          </ns3:TrackPointExtension>
        </extensions>
      </trkpt>
      <trkpt lat="45.31182297505438327789306640625" lon="-71.03787970729172229766845703125">
        <ele>824.79998779296875</ele>
        <time>2026-08-21T21:45:00.000Z</time>
        <extensions>
          <ns3:TrackPointExtension>
            <ns3:hr>127</ns3:hr>
            <ns3:cad>0</ns3:cad>
          </ns3:TrackPointExtension>
        </extensions>
      </trkpt>
      <trkpt lat="45.3118294291198253631591796875" lon="-71.037890017032623291015625">
        <ele>824.4000244140625</ele>
        <time>2026-08-21T21:45:01.000Z</time>
        <extensions>
          <ns3:TrackPointExtension>
            <ns3:hr>127</ns3:hr>
            <ns3:cad>0</ns3:cad>
          </ns3:TrackPointExtension>
        </extensions>
      </trkpt>
      <trkpt lat="45.31183655373752117156982421875" lon="-71.0379025898873805999755859375">
        <ele>824</ele>
        <time>2026-08-21T21:45:02.000Z</time>
        <extensions>
          <ns3:TrackPointExtension>
            <ns3:hr>127</ns3:hr>
            <ns3:cad>0</ns3:cad>
          </ns3:TrackPointExtension>
        </extensions>
      </trkpt>
      <trkpt lat="45.31184527091681957244873046875" lon="-71.03791725821793079376220703125">
        <ele>823.5999755859375</ele>
        <time>2026-08-21T21:45:03.000Z</time>
        <extensions>
          <ns3:TrackPointExtension>
            <ns3:hr>127</ns3:hr>
            <ns3:cad>0</ns3:cad>
          </ns3:TrackPointExtension>
        </extensions>
      </trkpt>
      <trkpt lat="45.31185080297291278839111328125" lon="-71.0379297472536563873291015625">
        <ele>823.20001220703125</ele>
        <time>2026-08-21T21:45:04.000Z</time>
        <extensions>
          <ns3:TrackPointExtension>
            <ns3:hr>126</ns3:hr>
            <ns3:cad>0</ns3:cad>
          </ns3:TrackPointExtension>
        </extensions>
      </trkpt>
      <trkpt lat="45.31186471693217754364013671875" lon="-71.03794173337519168853759765625">
        <ele>822.79998779296875</ele>
        <time>2026-08-21T21:45:05.000Z</time>
        <extensions>
          <ns3:TrackPointExtension>
            <ns3:hr>126</ns3:hr>
            <ns3:cad>0</ns3:cad>
          </ns3:TrackPointExtension>
        </extensions>
      </trkpt>
      <trkpt lat="45.3118753619492053985595703125" lon="-71.03795430622994899749755859375">
        <ele>822.4000244140625</ele>
        <time>2026-08-21T21:45:06.000Z</time>
        <extensions>
          <ns3:TrackPointExtension>
            <ns3:hr>125</ns3:hr>
            <ns3:cad>0</ns3:cad>
          </ns3:TrackPointExtension>
        </extensions>
      </trkpt>
      <trkpt lat="45.3118894435465335845947265625" lon="-71.03796419687569141387939453125">
        <ele>822</ele>
        <time>2026-08-21T21:45:07.000Z</time>
        <extensions>
          <ns3:TrackPointExtension>
            <ns3:hr>124</ns3:hr>
            <ns3:cad>0</ns3:cad>
          </ns3:TrackPointExtension>
        </extensions>
      </trkpt>
      <trkpt lat="45.3118912875652313232421875" lon="-71.03798096068203449249267578125">
        <ele>821.5999755859375</ele>
        <time>2026-08-21T21:45:08.000Z</time>
        <extensions>
          <ns3:TrackPointExtension>
            <ns3:hr>123</ns3:hr>
            <ns3:cad>70</ns3:cad>
          </ns3:TrackPointExtension>
        </extensions>
      </trkpt>
      <trkpt lat="45.3118968196213245391845703125" lon="-71.03799923323094844818115234375">
        <ele>821.20001220703125</ele>
        <time>2026-08-21T21:45:09.000Z</time>
        <extensions>
          <ns3:TrackPointExtension>
            <ns3:hr>123</ns3:hr>
            <ns3:cad>70</ns3:cad>
          </ns3:TrackPointExtension>
        </extensions>
      </trkpt>
      <trkpt lat="45.311910398304462432861328125" lon="-71.03801130317151546478271484375">
        <ele>820.5999755859375</ele>
        <time>2026-08-21T21:45:10.000Z</time>
        <extensions>
          <ns3:TrackPointExtension>
            <ns3:hr>123</ns3:hr>
            <ns3:cad>70</ns3:cad>
          </ns3:TrackPointExtension>
        </extensions>
      </trkpt>
      <trkpt lat="45.3119209595024585723876953125" lon="-71.03803192265331745147705078125">
        <ele>820</ele>
        <time>2026-08-21T21:45:11.000Z</time>
        <extensions>
          <ns3:TrackPointExtension>
            <ns3:hr>122</ns3:hr>
            <ns3:cad>70</ns3:cad>
          </ns3:TrackPointExtension>
        </extensions>
      </trkpt>
      <trkpt lat="45.31193177215754985809326171875" lon="-71.03804717771708965301513671875">
        <ele>819.5999755859375</ele>
        <time>2026-08-21T21:45:12.000Z</time>
        <extensions>
          <ns3:TrackPointExtension>
            <ns3:hr>122</ns3:hr>
            <ns3:cad>70</ns3:cad>
          </ns3:TrackPointExtension>
        </extensions>
      </trkpt>
      <trkpt lat="45.31194920651614665985107421875" lon="-71.03806947357952594757080078125">
        <ele>819.20001220703125</ele>
        <time>2026-08-21T21:45:13.000Z</time>
        <extensions>
          <ns3:TrackPointExtension>
            <ns3:hr>122</ns3:hr>
            <ns3:cad>70</ns3:cad>
          </ns3:TrackPointExtension>
        </extensions>
      </trkpt>
      <trkpt lat="45.3119632042944431304931640625" lon="-71.03808841668069362640380859375">
        <ele>818.5999755859375</ele>
        <time>2026-08-21T21:45:14.000Z</time>
        <extensions>
          <ns3:TrackPointExtension>
            <ns3:hr>122</ns3:hr>
            <ns3:cad>0</ns3:cad>
          </ns3:TrackPointExtension>
        </extensions>
      </trkpt>
      <trkpt lat="45.31197887845337390899658203125" lon="-71.038097552955150604248046875">
        <ele>818.4000244140625</ele>
        <time>2026-08-21T21:45:15.000Z</time>
        <extensions>
          <ns3:TrackPointExtension>
            <ns3:hr>122</ns3:hr>
            <ns3:cad>0</ns3:cad>
          </ns3:TrackPointExtension>
        </extensions>
      </trkpt>
      <trkpt lat="45.3119860030710697174072265625" lon="-71.03811054490506649017333984375">
        <ele>818</ele>
        <time>2026-08-21T21:45:16.000Z</time>
        <extensions>
          <ns3:TrackPointExtension>
            <ns3:hr>122</ns3:hr>
            <ns3:cad>0</ns3:cad>
          </ns3:TrackPointExtension>
        </extensions>
      </trkpt>
      <trkpt lat="45.31199396587908267974853515625" lon="-71.03812848217785358428955078125">
        <ele>817.79998779296875</ele>
        <time>2026-08-21T21:45:17.000Z</time>
        <extensions>
          <ns3:TrackPointExtension>
            <ns3:hr>122</ns3:hr>
            <ns3:cad>0</ns3:cad>
          </ns3:TrackPointExtension>
        </extensions>
      </trkpt>
      <trkpt lat="45.31200863420963287353515625" lon="-71.03814725764095783233642578125">
        <ele>817.79998779296875</ele>
        <time>2026-08-21T21:45:18.000Z</time>
        <extensions>
          <ns3:TrackPointExtension>
            <ns3:hr>122</ns3:hr>
            <ns3:cad>0</ns3:cad>
          </ns3:TrackPointExtension>
        </extensions>
      </trkpt>
      <trkpt lat="45.3120212070643901824951171875" lon="-71.0381527058780193328857421875">
        <ele>817.5999755859375</ele>
        <time>2026-08-21T21:45:19.000Z</time>
        <extensions>
          <ns3:TrackPointExtension>
            <ns3:hr>122</ns3:hr>
            <ns3:cad>0</ns3:cad>
          </ns3:TrackPointExtension>
        </extensions>
      </trkpt>
      <trkpt lat="45.312034450471401214599609375" lon="-71.03816963732242584228515625">
        <ele>817.5999755859375</ele>
        <time>2026-08-21T21:45:20.000Z</time>
        <extensions>
          <ns3:TrackPointExtension>
            <ns3:hr>121</ns3:hr>
            <ns3:cad>74</ns3:cad>
          </ns3:TrackPointExtension>
        </extensions>
      </trkpt>
      <trkpt lat="45.3120436705648899078369140625" lon="-71.0381919331848621368408203125">
        <ele>817.5999755859375</ele>
        <time>2026-08-21T21:45:21.000Z</time>
        <extensions>
          <ns3:TrackPointExtension>
            <ns3:hr>121</ns3:hr>
            <ns3:cad>74</ns3:cad>
          </ns3:TrackPointExtension>
        </extensions>
      </trkpt>
      <trkpt lat="45.31205364502966403961181640625" lon="-71.03820760734379291534423828125">
        <ele>817.5999755859375</ele>
        <time>2026-08-21T21:45:22.000Z</time>
        <extensions>
          <ns3:TrackPointExtension>
            <ns3:hr>121</ns3:hr>
            <ns3:cad>74</ns3:cad>
          </ns3:TrackPointExtension>
        </extensions>
      </trkpt>
      <trkpt lat="45.31205398030579090118408203125" lon="-71.03824214078485965728759765625">
        <ele>817.4000244140625</ele>
        <time>2026-08-21T21:45:23.000Z</time>
        <extensions>
          <ns3:TrackPointExtension>
            <ns3:hr>122</ns3:hr>
            <ns3:cad>74</ns3:cad>
          </ns3:TrackPointExtension>
        </extensions>
      </trkpt>
      <trkpt lat="45.31205649487674236297607421875" lon="-71.03826326318085193634033203125">
        <ele>817.4000244140625</ele>
        <time>2026-08-21T21:45:24.000Z</time>
        <extensions>
          <ns3:TrackPointExtension>
            <ns3:hr>121</ns3:hr>
            <ns3:cad>70</ns3:cad>
          </ns3:TrackPointExtension>
        </extensions>
      </trkpt>
      <trkpt lat="45.31206537969410419464111328125" lon="-71.0382844693958759307861328125">
        <ele>817.20001220703125</ele>
        <time>2026-08-21T21:45:25.000Z</time>
        <extensions>
          <ns3:TrackPointExtension>
            <ns3:hr>121</ns3:hr>
            <ns3:cad>70</ns3:cad>
          </ns3:TrackPointExtension>
        </extensions>
      </trkpt>
      <trkpt lat="45.31208038330078125" lon="-71.03830316103994846343994140625">
        <ele>817.20001220703125</ele>
        <time>2026-08-21T21:45:26.000Z</time>
        <extensions>
          <ns3:TrackPointExtension>
            <ns3:hr>121</ns3:hr>
            <ns3:cad>69</ns3:cad>
          </ns3:TrackPointExtension>
        </extensions>
      </trkpt>
      <trkpt lat="45.31209421344101428985595703125" lon="-71.0383190028369426727294921875">
        <ele>817</ele>
        <time>2026-08-21T21:45:27.000Z</time>
        <extensions>
          <ns3:TrackPointExtension>
            <ns3:hr>121</ns3:hr>
            <ns3:cad>69</ns3:cad>
          </ns3:TrackPointExtension>
        </extensions>
      </trkpt>
      <trkpt lat="45.31211181543767452239990234375" lon="-71.03833333589136600494384765625">
        <ele>817</ele>
        <time>2026-08-21T21:45:28.000Z</time>
        <extensions>
          <ns3:TrackPointExtension>
            <ns3:hr>120</ns3:hr>
            <ns3:cad>69</ns3:cad>
          </ns3:TrackPointExtension>
        </extensions>
      </trkpt>
      <trkpt lat="45.3121241368353366851806640625" lon="-71.03834188543260097503662109375">
        <ele>817</ele>
        <time>2026-08-21T21:45:29.000Z</time>
        <extensions>
          <ns3:TrackPointExtension>
            <ns3:hr>119</ns3:hr>
            <ns3:cad>70</ns3:cad>
          </ns3:TrackPointExtension>
        </extensions>
      </trkpt>
      <trkpt lat="45.31213880516588687896728515625" lon="-71.03836686350405216217041015625">
        <ele>816.79998779296875</ele>
        <time>2026-08-21T21:45:30.000Z</time>
        <extensions>
          <ns3:TrackPointExtension>
            <ns3:hr>119</ns3:hr>
            <ns3:cad>70</ns3:cad>
          </ns3:TrackPointExtension>
        </extensions>
      </trkpt>
      <trkpt lat="45.31214936636388301849365234375" lon="-71.03837910108268260955810546875">
        <ele>816.79998779296875</ele>
        <time>2026-08-21T21:45:31.000Z</time>
        <extensions>
          <ns3:TrackPointExtension>
            <ns3:hr>118</ns3:hr>
            <ns3:cad>71</ns3:cad>
          </ns3:TrackPointExtension>
        </extensions>
      </trkpt>
      <trkpt lat="45.31216495670378208160400390625" lon="-71.03838982991874217987060546875">
        <ele>816.79998779296875</ele>
        <time>2026-08-21T21:45:32.000Z</time>
        <extensions>
          <ns3:TrackPointExtension>
            <ns3:hr>118</ns3:hr>
            <ns3:cad>71</ns3:cad>
          </ns3:TrackPointExtension>
        </extensions>
      </trkpt>
      <trkpt lat="45.3121734224259853363037109375" lon="-71.0384169034659862518310546875">
        <ele>816.5999755859375</ele>
        <time>2026-08-21T21:45:33.000Z</time>
        <extensions>
          <ns3:TrackPointExtension>
            <ns3:hr>118</ns3:hr>
            <ns3:cad>71</ns3:cad>
          </ns3:TrackPointExtension>
        </extensions>
      </trkpt>
      <trkpt lat="45.3121781162917613983154296875" lon="-71.03843785822391510009765625">
        <ele>816.5999755859375</ele>
        <time>2026-08-21T21:45:34.000Z</time>
        <extensions>
          <ns3:TrackPointExtension>
            <ns3:hr>118</ns3:hr>
            <ns3:cad>71</ns3:cad>
          </ns3:TrackPointExtension>
        </extensions>
      </trkpt>
      <trkpt lat="45.3121975623071193695068359375" lon="-71.0384492576122283935546875">
        <ele>816.5999755859375</ele>
        <time>2026-08-21T21:45:35.000Z</time>
        <extensions>
          <ns3:TrackPointExtension>
            <ns3:hr>118</ns3:hr>
            <ns3:cad>71</ns3:cad>
          </ns3:TrackPointExtension>
        </extensions>
      </trkpt>
      <trkpt lat="45.3122076205909252166748046875" lon="-71.03846292011439800262451171875">
        <ele>816.5999755859375</ele>
        <time>2026-08-21T21:45:36.000Z</time>
        <extensions>
          <ns3:TrackPointExtension>
            <ns3:hr>118</ns3:hr>
            <ns3:cad>71</ns3:cad>
          </ns3:TrackPointExtension>
        </extensions>
      </trkpt>
      <trkpt lat="45.31222145073115825653076171875" lon="-71.0384852997958660125732421875">
        <ele>816.5999755859375</ele>
        <time>2026-08-21T21:45:37.000Z</time>
        <extensions>
          <ns3:TrackPointExtension>
            <ns3:hr>118</ns3:hr>
            <ns3:cad>71</ns3:cad>
          </ns3:TrackPointExtension>
        </extensions>
      </trkpt>
      <trkpt lat="45.31223528087139129638671875" lon="-71.03850080631673336029052734375">
        <ele>816.79998779296875</ele>
        <time>2026-08-21T21:45:38.000Z</time>
        <extensions>
          <ns3:TrackPointExtension>
            <ns3:hr>118</ns3:hr>
            <ns3:cad>71</ns3:cad>
          </ns3:TrackPointExtension>
        </extensions>
      </trkpt>
      <trkpt lat="45.31224424950778484344482421875" lon="-71.03851438499987125396728515625">
        <ele>816.79998779296875</ele>
        <time>2026-08-21T21:45:39.000Z</time>
        <extensions>
          <ns3:TrackPointExtension>
            <ns3:hr>118</ns3:hr>
            <ns3:cad>71</ns3:cad>
          </ns3:TrackPointExtension>
        </extensions>
      </trkpt>
      <trkpt lat="45.31225933693349361419677734375" lon="-71.0385255329310894012451171875">
        <ele>816.79998779296875</ele>
        <time>2026-08-21T21:45:40.000Z</time>
        <extensions>
          <ns3:TrackPointExtension>
            <ns3:hr>118</ns3:hr>
            <ns3:cad>71</ns3:cad>
          </ns3:TrackPointExtension>
        </extensions>
      </trkpt>
      <trkpt lat="45.3122666291892528533935546875" lon="-71.0385431349277496337890625">
        <ele>816.79998779296875</ele>
        <time>2026-08-21T21:45:41.000Z</time>
        <extensions>
          <ns3:TrackPointExtension>
            <ns3:hr>119</ns3:hr>
            <ns3:cad>72</ns3:cad>
          </ns3:TrackPointExtension>
        </extensions>
      </trkpt>
      <trkpt lat="45.312276519834995269775390625" lon="-71.038560569286346435546875">
        <ele>816.79998779296875</ele>
        <time>2026-08-21T21:45:42.000Z</time>
        <extensions>
          <ns3:TrackPointExtension>
            <ns3:hr>120</ns3:hr>
            <ns3:cad>72</ns3:cad>
          </ns3:TrackPointExtension>
        </extensions>
      </trkpt>
      <trkpt lat="45.31228682957589626312255859375" lon="-71.03857540525496006011962890625">
        <ele>817</ele>
        <time>2026-08-21T21:45:43.000Z</time>
        <extensions>
          <ns3:TrackPointExtension>
            <ns3:hr>121</ns3:hr>
            <ns3:cad>72</ns3:cad>
          </ns3:TrackPointExtension>
        </extensions>
      </trkpt>
      <trkpt lat="45.31229873187839984893798828125" lon="-71.03859334252774715423583984375">
        <ele>817</ele>
        <time>2026-08-21T21:45:44.000Z</time>
        <extensions>
          <ns3:TrackPointExtension>
            <ns3:hr>122</ns3:hr>
            <ns3:cad>72</ns3:cad>
          </ns3:TrackPointExtension>
        </extensions>
      </trkpt>
      <trkpt lat="45.31230644322931766510009765625" lon="-71.03860625065863132476806640625">
        <ele>817.20001220703125</ele>
        <time>2026-08-21T21:45:45.000Z</time>
        <extensions>
          <ns3:TrackPointExtension>
            <ns3:hr>122</ns3:hr>
            <ns3:cad>72</ns3:cad>
          </ns3:TrackPointExtension>
        </extensions>
      </trkpt>
      <trkpt lat="45.3123152442276477813720703125" lon="-71.03862083517014980316162109375">
        <ele>817.4000244140625</ele>
        <time>2026-08-21T21:45:46.000Z</time>
        <extensions>
          <ns3:TrackPointExtension>
            <ns3:hr>122</ns3:hr>
            <ns3:cad>53</ns3:cad>
          </ns3:TrackPointExtension>
        </extensions>
      </trkpt>
      <trkpt lat="45.3123258054256439208984375" lon="-71.03863307274878025054931640625">
        <ele>817.4000244140625</ele>
        <time>2026-08-21T21:45:47.000Z</time>
        <extensions>
          <ns3:TrackPointExtension>
            <ns3:hr>122</ns3:hr>
            <ns3:cad>53</ns3:cad>
          </ns3:TrackPointExtension>
        </extensions>
      </trkpt>
      <trkpt lat="45.3123330138623714447021484375" lon="-71.03864296339452266693115234375">
        <ele>817.5999755859375</ele>
        <time>2026-08-21T21:45:48.000Z</time>
        <extensions>
          <ns3:TrackPointExtension>
            <ns3:hr>122</ns3:hr>
            <ns3:cad>53</ns3:cad>
          </ns3:TrackPointExtension>
        </extensions>
      </trkpt>
      <trkpt lat="45.31234793365001678466796875" lon="-71.03865972720086574554443359375">
        <ele>817.79998779296875</ele>
        <time>2026-08-21T21:45:49.000Z</time>
        <extensions>
          <ns3:TrackPointExtension>
            <ns3:hr>121</ns3:hr>
            <ns3:cad>53</ns3:cad>
          </ns3:TrackPointExtension>
        </extensions>
      </trkpt>
      <trkpt lat="45.3123579919338226318359375" lon="-71.03866190649569034576416015625">
        <ele>818.20001220703125</ele>
        <time>2026-08-21T21:45:50.000Z</time>
        <extensions>
          <ns3:TrackPointExtension>
            <ns3:hr>121</ns3:hr>
            <ns3:cad>53</ns3:cad>
          </ns3:TrackPointExtension>
        </extensions>
      </trkpt>
      <trkpt lat="45.31236913986504077911376953125" lon="-71.03866693563759326934814453125">
        <ele>818.20001220703125</ele>
        <time>2026-08-21T21:45:51.000Z</time>
        <extensions>
          <ns3:TrackPointExtension>
            <ns3:hr>121</ns3:hr>
            <ns3:cad>0</ns3:cad>
          </ns3:TrackPointExtension>
        </extensions>
      </trkpt>
      <trkpt lat="45.31238012015819549560546875" lon="-71.03867867030203342437744140625">
        <ele>818.4000244140625</ele>
        <time>2026-08-21T21:45:52.000Z</time>
        <extensions>
          <ns3:TrackPointExtension>
            <ns3:hr>122</ns3:hr>
            <ns3:cad>0</ns3:cad>
          </ns3:TrackPointExtension>
        </extensions>
      </trkpt>
      <trkpt lat="45.31239059753715991973876953125" lon="-71.03868923150002956390380859375">
        <ele>818.5999755859375</ele>
        <time>2026-08-21T21:45:53.000Z</time>
        <extensions>
          <ns3:TrackPointExtension>
            <ns3:hr>122</ns3:hr>
            <ns3:cad>51</ns3:cad>
          </ns3:TrackPointExtension>
        </extensions>
      </trkpt>
      <trkpt lat="45.312394537031650543212890625" lon="-71.0386985354125499725341796875">
        <ele>818.5999755859375</ele>
        <time>2026-08-21T21:45:54.000Z</time>
        <extensions>
          <ns3:TrackPointExtension>
            <ns3:hr>122</ns3:hr>
            <ns3:cad>51</ns3:cad>
          </ns3:TrackPointExtension>
        </extensions>
      </trkpt>
      <trkpt lat="45.31240166164934635162353515625" lon="-71.0387122817337512969970703125">
        <ele>818.79998779296875</ele>
        <time>2026-08-21T21:45:55.000Z</time>
        <extensions>
          <ns3:TrackPointExtension>
            <ns3:hr>122</ns3:hr>
            <ns3:cad>51</ns3:cad>
          </ns3:TrackPointExtension>
        </extensions>
      </trkpt>
      <trkpt lat="45.3124071098864078521728515625" lon="-71.03872544132173061370849609375">
        <ele>819</ele>
        <time>2026-08-21T21:45:56.000Z</time>
        <extensions>
          <ns3:TrackPointExtension>
            <ns3:hr>123</ns3:hr>
            <ns3:cad>51</ns3:cad>
          </ns3:TrackPointExtension>
        </extensions>
      </trkpt>
      <trkpt lat="45.3124175034463405609130859375" lon="-71.0387293808162212371826171875">
        <ele>819.20001220703125</ele>
        <time>2026-08-21T21:45:57.000Z</time>
        <extensions>
          <ns3:TrackPointExtension>
            <ns3:hr>123</ns3:hr>
            <ns3:cad>51</ns3:cad>
          </ns3:TrackPointExtension>
        </extensions>
      </trkpt>
      <trkpt lat="45.3124245442450046539306640625" lon="-71.038743294775485992431640625">
        <ele>819.4000244140625</ele>
        <time>2026-08-21T21:45:58.000Z</time>
        <extensions>
          <ns3:TrackPointExtension>
            <ns3:hr>123</ns3:hr>
            <ns3:cad>51</ns3:cad>
          </ns3:TrackPointExtension>
        </extensions>
      </trkpt>
      <trkpt lat="45.31242932192981243133544921875" lon="-71.03874991647899150848388671875">
        <ele>819.5999755859375</ele>
        <time>2026-08-21T21:45:59.000Z</time>
        <extensions>
          <ns3:TrackPointExtension>
            <ns3:hr>123</ns3:hr>
            <ns3:cad>51</ns3:cad>
          </ns3:TrackPointExtension>
        </extensions>
      </trkpt>
      <trkpt lat="45.3124590776860713958740234375" lon="-71.0388041473925113677978515625">
        <ele>821.4000244140625</ele>
        <time>2026-08-21T21:46:05.000Z</time>
        <extensions>
          <ns3:TrackPointExtension>
            <ns3:hr>126</ns3:hr>
            <ns3:cad>0</ns3:cad>
          </ns3:TrackPointExtension>
        </extensions>
      </trkpt>
      <trkpt lat="45.31246184371411800384521484375" lon="-71.0388165526092052459716796875">
        <ele>821.5999755859375</ele>
        <time>2026-08-21T21:46:06.000Z</time>
        <extensions>
          <ns3:TrackPointExtension>
            <ns3:hr>127</ns3:hr>
            <ns3:cad>0</ns3:cad>
          </ns3:TrackPointExtension>
        </extensions>
      </trkpt>
      <trkpt lat="45.3124691359698772430419921875" lon="-71.038829796016216278076171875">
        <ele>821.79998779296875</ele>
        <time>2026-08-21T21:46:07.000Z</time>
        <extensions>
          <ns3:TrackPointExtension>
            <ns3:hr>127</ns3:hr>
            <ns3:cad>0</ns3:cad>
          </ns3:TrackPointExtension>
        </extensions>
      </trkpt>
      <trkpt lat="45.31247357837855815887451171875" lon="-71.03884932585060596466064453125">
        <ele>822</ele>
        <time>2026-08-21T21:46:08.000Z</time>
        <extensions>
          <ns3:TrackPointExtension>
            <ns3:hr>128</ns3:hr>
            <ns3:cad>0</ns3:cad>
          </ns3:TrackPointExtension>
        </extensions>
      </trkpt>
      <trkpt lat="45.312478356063365936279296875" lon="-71.03886323980987071990966796875">
        <ele>822.20001220703125</ele>
        <time>2026-08-21T21:46:09.000Z</time>
        <extensions>
          <ns3:TrackPointExtension>
            <ns3:hr>129</ns3:hr>
            <ns3:cad>0</ns3:cad>
          </ns3:TrackPointExtension>
        </extensions>
      </trkpt>
      <trkpt lat="45.31248397193849086761474609375" lon="-71.03887011297047138214111328125">
        <ele>822.4000244140625</ele>
        <time>2026-08-21T21:46:10.000Z</time>
        <extensions>
          <ns3:TrackPointExtension>
            <ns3:hr>130</ns3:hr>
            <ns3:cad>0</ns3:cad>
          </ns3:TrackPointExtension>
        </extensions>
      </trkpt>
      <trkpt lat="45.31249034218490123748779296875" lon="-71.03888017125427722930908203125">
        <ele>822.5999755859375</ele>
        <time>2026-08-21T21:46:11.000Z</time>
        <extensions>
          <ns3:TrackPointExtension>
            <ns3:hr>130</ns3:hr>
            <ns3:cad>0</ns3:cad>
          </ns3:TrackPointExtension>
        </extensions>
      </trkpt>
      <trkpt lat="45.31249486841261386871337890625" lon="-71.0388883017003536224365234375">
        <ele>822.79998779296875</ele>
        <time>2026-08-21T21:46:12.000Z</time>
        <extensions>
          <ns3:TrackPointExtension>
            <ns3:hr>131</ns3:hr>
            <ns3:cad>0</ns3:cad>
          </ns3:TrackPointExtension>
        </extensions>
      </trkpt>
      <trkpt lat="45.3124972991645336151123046875" lon="-71.03890565223991870880126953125">
        <ele>823</ele>
        <time>2026-08-21T21:46:13.000Z</time>
        <extensions>
          <ns3:TrackPointExtension>
            <ns3:hr>132</ns3:hr>
            <ns3:cad>0</ns3:cad>
          </ns3:TrackPointExtension>
        </extensions>
      </trkpt>
      <trkpt lat="45.31250425614416599273681640625" lon="-71.038908921182155609130859375">
        <ele>823.20001220703125</ele>
        <time>2026-08-21T21:46:14.000Z</time>
        <extensions>
          <ns3:TrackPointExtension>
            <ns3:hr>134</ns3:hr>
            <ns3:cad>0</ns3:cad>
          </ns3:TrackPointExtension>
        </extensions>
      </trkpt>
      <trkpt lat="45.31251347623765468597412109375" lon="-71.038919985294342041015625">
        <ele>823.4000244140625</ele>
        <time>2026-08-21T21:46:15.000Z</time>
        <extensions>
          <ns3:TrackPointExtension>
            <ns3:hr>135</ns3:hr>
            <ns3:cad>0</ns3:cad>
          </ns3:TrackPointExtension>
        </extensions>
      </trkpt>
      <trkpt lat="45.31252169050276279449462890625" lon="-71.03892895393073558807373046875">
        <ele>823.5999755859375</ele>
        <time>2026-08-21T21:46:16.000Z</time>
        <extensions>
          <ns3:TrackPointExtension>
            <ns3:hr>135</ns3:hr>
            <ns3:cad>0</ns3:cad>
          </ns3:TrackPointExtension>
        </extensions>
      </trkpt>
      <trkpt lat="45.312525965273380279541015625" lon="-71.03894437663257122039794921875">
        <ele>824</ele>
        <time>2026-08-21T21:46:17.000Z</time>
        <extensions>
          <ns3:TrackPointExtension>
            <ns3:hr>135</ns3:hr>
            <ns3:cad>0</ns3:cad>
          </ns3:TrackPointExtension>
        </extensions>
      </trkpt>
      <trkpt lat="45.312530994415283203125" lon="-71.03895150125026702880859375">
        <ele>824</ele>
        <time>2026-08-21T21:46:18.000Z</time>
        <extensions>
          <ns3:TrackPointExtension>
            <ns3:hr>134</ns3:hr>
            <ns3:cad>0</ns3:cad>
          </ns3:TrackPointExtension>
        </extensions>
      </trkpt>
      <trkpt lat="45.31253761611878871917724609375" lon="-71.038953848183155059814453125">
        <ele>824.20001220703125</ele>
        <time>2026-08-21T21:46:19.000Z</time>
        <extensions>
          <ns3:TrackPointExtension>
            <ns3:hr>135</ns3:hr>
            <ns3:cad>48</ns3:cad>
          </ns3:TrackPointExtension>
        </extensions>
      </trkpt>
      <trkpt lat="45.31254348345100879669189453125" lon="-71.0389637388288974761962890625">
        <ele>824.4000244140625</ele>
        <time>2026-08-21T21:46:20.000Z</time>
        <extensions>
          <ns3:TrackPointExtension>
            <ns3:hr>135</ns3:hr>
            <ns3:cad>48</ns3:cad>
          </ns3:TrackPointExtension>
        </extensions>
      </trkpt>
      <trkpt lat="45.3125529550015926361083984375" lon="-71.03897891007363796234130859375">
        <ele>824.4000244140625</ele>
        <time>2026-08-21T21:46:21.000Z</time>
        <extensions>
          <ns3:TrackPointExtension>
            <ns3:hr>135</ns3:hr>
            <ns3:cad>48</ns3:cad>
          </ns3:TrackPointExtension>
        </extensions>
      </trkpt>
      <trkpt lat="45.31255722977221012115478515625" lon="-71.03897840715944766998291015625">
        <ele>824.5999755859375</ele>
        <time>2026-08-21T21:46:22.000Z</time>
        <extensions>
          <ns3:TrackPointExtension>
            <ns3:hr>135</ns3:hr>
            <ns3:cad>0</ns3:cad>
          </ns3:TrackPointExtension>
        </extensions>
      </trkpt>
      <trkpt lat="45.312567539513111114501953125" lon="-71.0389868728816509246826171875">
        <ele>824.79998779296875</ele>
        <time>2026-08-21T21:46:23.000Z</time>
        <extensions>
          <ns3:TrackPointExtension>
            <ns3:hr>136</ns3:hr>
            <ns3:cad>0</ns3:cad>
          </ns3:TrackPointExtension>
        </extensions>
      </trkpt>
      <trkpt lat="45.31257298775017261505126953125" lon="-71.0390022955834865570068359375">
        <ele>824.79998779296875</ele>
        <time>2026-08-21T21:46:24.000Z</time>
        <extensions>
          <ns3:TrackPointExtension>
            <ns3:hr>136</ns3:hr>
            <ns3:cad>0</ns3:cad>
          </ns3:TrackPointExtension>
        </extensions>
      </trkpt>
      <trkpt lat="45.312575586140155792236328125" lon="-71.039010174572467803955078125">
        <ele>825</ele>
        <time>2026-08-21T21:46:25.000Z</time>
        <extensions>
          <ns3:TrackPointExtension>
            <ns3:hr>137</ns3:hr>
            <ns3:cad>0</ns3:cad>
          </ns3:TrackPointExtension>
        </extensions>
      </trkpt>
      <trkpt lat="45.31257600523531436920166015625" lon="-71.0390180535614490509033203125">
        <ele>825</ele>
        <time>2026-08-21T21:46:26.000Z</time>
        <extensions>
          <ns3:TrackPointExtension>
            <ns3:hr>137</ns3:hr>
            <ns3:cad>0</ns3:cad>
          </ns3:TrackPointExtension>
        </extensions>
      </trkpt>
      <trkpt lat="45.31258153729140758514404296875" lon="-71.03903406299650669097900390625">
        <ele>825</ele>
        <time>2026-08-21T21:46:27.000Z</time>
        <extensions>
          <ns3:TrackPointExtension>
            <ns3:hr>137</ns3:hr>
            <ns3:cad>0</ns3:cad>
          </ns3:TrackPointExtension>
        </extensions>
      </trkpt>
      <trkpt lat="45.3125804476439952850341796875" lon="-71.03905384428799152374267578125">
        <ele>825</ele>
        <time>2026-08-21T21:46:28.000Z</time>
        <extensions>
          <ns3:TrackPointExtension>
            <ns3:hr>137</ns3:hr>
            <ns3:cad>0</ns3:cad>
          </ns3:TrackPointExtension>
        </extensions>
      </trkpt>
      <trkpt lat="45.31257726252079010009765625" lon="-71.0390690155327320098876953125">
        <ele>825</ele>
        <time>2026-08-21T21:46:29.000Z</time>
        <extensions>
          <ns3:TrackPointExtension>
            <ns3:hr>137</ns3:hr>
            <ns3:cad>0</ns3:cad>
          </ns3:TrackPointExtension>
        </extensions>
      </trkpt>
      <trkpt lat="45.31257667578756809234619140625" lon="-71.0390817560255527496337890625">
        <ele>825.20001220703125</ele>
        <time>2026-08-21T21:46:30.000Z</time>
        <extensions>
          <ns3:TrackPointExtension>
            <ns3:hr>137</ns3:hr>
            <ns3:cad>49</ns3:cad>
          </ns3:TrackPointExtension>
        </extensions>
      </trkpt>
      <trkpt lat="45.3125781007111072540283203125" lon="-71.0390991903841495513916015625">
        <ele>825.20001220703125</ele>
        <time>2026-08-21T21:46:31.000Z</time>
        <extensions>
          <ns3:TrackPointExtension>
            <ns3:hr>138</ns3:hr>
            <ns3:cad>49</ns3:cad>
          </ns3:TrackPointExtension>
        </extensions>
      </trkpt>
      <trkpt lat="45.312575586140155792236328125" lon="-71.03911067359149456024169921875">
        <ele>825.20001220703125</ele>
        <time>2026-08-21T21:46:32.000Z</time>
        <extensions>
          <ns3:TrackPointExtension>
            <ns3:hr>138</ns3:hr>
            <ns3:cad>49</ns3:cad>
          </ns3:TrackPointExtension>
        </extensions>
      </trkpt>
      <trkpt lat="45.3125693835318088531494140625" lon="-71.03912450373172760009765625">
        <ele>825.20001220703125</ele>
        <time>2026-08-21T21:46:33.000Z</time>
        <extensions>
          <ns3:TrackPointExtension>
            <ns3:hr>138</ns3:hr>
            <ns3:cad>49</ns3:cad>
          </ns3:TrackPointExtension>
        </extensions>
      </trkpt>
      <trkpt lat="45.3125636838376522064208984375" lon="-71.0391293652355670928955078125">
        <ele>825</ele>
        <time>2026-08-21T21:46:34.000Z</time>
        <extensions>
          <ns3:TrackPointExtension>
            <ns3:hr>139</ns3:hr>
            <ns3:cad>16</ns3:cad>
          </ns3:TrackPointExtension>
        </extensions>
      </trkpt>
      <trkpt lat="45.3125537931919097900390625" lon="-71.03914168663322925567626953125">
        <ele>824.79998779296875</ele>
        <time>2026-08-21T21:46:35.000Z</time>
        <extensions>
          <ns3:TrackPointExtension>
            <ns3:hr>138</ns3:hr>
            <ns3:cad>16</ns3:cad>
          </ns3:TrackPointExtension>
        </extensions>
      </trkpt>
      <trkpt lat="45.3125432319939136505126953125" lon="-71.03914923034608364105224609375">
        <ele>824.4000244140625</ele>
        <time>2026-08-21T21:46:36.000Z</time>
        <extensions>
          <ns3:TrackPointExtension>
            <ns3:hr>139</ns3:hr>
            <ns3:cad>16</ns3:cad>
          </ns3:TrackPointExtension>
        </extensions>
      </trkpt>
      <trkpt lat="45.31252889893949031829833984375" lon="-71.03916473686695098876953125">
        <ele>824.20001220703125</ele>
        <time>2026-08-21T21:46:37.000Z</time>
        <extensions>
          <ns3:TrackPointExtension>
            <ns3:hr>138</ns3:hr>
            <ns3:cad>0</ns3:cad>
          </ns3:TrackPointExtension>
        </extensions>
      </trkpt>
      <trkpt lat="45.31251716427505016326904296875" lon="-71.03917806409299373626708984375">
        <ele>823.79998779296875</ele>
        <time>2026-08-21T21:46:38.000Z</time>
        <extensions>
          <ns3:TrackPointExtension>
            <ns3:hr>138</ns3:hr>
            <ns3:cad>0</ns3:cad>
          </ns3:TrackPointExtension>
        </extensions>
      </trkpt>
      <trkpt lat="45.31250576488673686981201171875" lon="-71.03919398970901966094970703125">
        <ele>823.5999755859375</ele>
        <time>2026-08-21T21:46:39.000Z</time>
        <extensions>
          <ns3:TrackPointExtension>
            <ns3:hr>138</ns3:hr>
            <ns3:cad>0</ns3:cad>
          </ns3:TrackPointExtension>
        </extensions>
      </trkpt>
      <trkpt lat="45.31249688006937503814697265625" lon="-71.0392083227634429931640625">
        <ele>823.5999755859375</ele>
        <time>2026-08-21T21:46:40.000Z</time>
        <extensions>
          <ns3:TrackPointExtension>
            <ns3:hr>137</ns3:hr>
            <ns3:cad>0</ns3:cad>
          </ns3:TrackPointExtension>
        </extensions>
      </trkpt>
      <trkpt lat="45.31248481012880802154541015625" lon="-71.0392222367227077484130859375">
        <ele>823.4000244140625</ele>
        <time>2026-08-21T21:46:41.000Z</time>
        <extensions>
          <ns3:TrackPointExtension>
            <ns3:hr>137</ns3:hr>
            <ns3:cad>0</ns3:cad>
          </ns3:TrackPointExtension>
        </extensions>
      </trkpt>
      <trkpt lat="45.31247257255017757415771484375" lon="-71.03923271410167217254638671875">
        <ele>823.4000244140625</ele>
        <time>2026-08-21T21:46:42.000Z</time>
        <extensions>
          <ns3:TrackPointExtension>
            <ns3:hr>137</ns3:hr>
            <ns3:cad>0</ns3:cad>
          </ns3:TrackPointExtension>
        </extensions>
      </trkpt>
      <trkpt lat="45.31246326863765716552734375" lon="-71.03924453258514404296875">
        <ele>823.4000244140625</ele>
        <time>2026-08-21T21:46:43.000Z</time>
        <extensions>
          <ns3:TrackPointExtension>
            <ns3:hr>137</ns3:hr>
            <ns3:cad>0</ns3:cad>
          </ns3:TrackPointExtension>
        </extensions>
      </trkpt>
      <trkpt lat="45.31245295889675617218017578125" lon="-71.03924998082220554351806640625">
        <ele>823.4000244140625</ele>
        <time>2026-08-21T21:46:44.000Z</time>
        <extensions>
          <ns3:TrackPointExtension>
            <ns3:hr>136</ns3:hr>
            <ns3:cad>0</ns3:cad>
          </ns3:TrackPointExtension>
        </extensions>
      </trkpt>
      <trkpt lat="45.31243787147104740142822265625" lon="-71.03927345015108585357666015625">
        <ele>823.5999755859375</ele>
        <time>2026-08-21T21:46:45.000Z</time>
        <extensions>
          <ns3:TrackPointExtension>
            <ns3:hr>136</ns3:hr>
            <ns3:cad>0</ns3:cad>
          </ns3:TrackPointExtension>
        </extensions>
      </trkpt>
      <trkpt lat="45.31243284232914447784423828125" lon="-71.0392906330525875091552734375">
        <ele>823.5999755859375</ele>
        <time>2026-08-21T21:46:46.000Z</time>
        <extensions>
          <ns3:TrackPointExtension>
            <ns3:hr>136</ns3:hr>
            <ns3:cad>0</ns3:cad>
          </ns3:TrackPointExtension>
        </extensions>
      </trkpt>
      <trkpt lat="45.31242747791111469268798828125" lon="-71.0393124260008335113525390625">
        <ele>824</ele>
        <time>2026-08-21T21:46:47.000Z</time>
        <extensions>
          <ns3:TrackPointExtension>
            <ns3:hr>137</ns3:hr>
            <ns3:cad>0</ns3:cad>
          </ns3:TrackPointExtension>
        </extensions>
      </trkpt>
      <trkpt lat="45.3124242089688777923583984375" lon="-71.03933773934841156005859375">
        <ele>824.20001220703125</ele>
        <time>2026-08-21T21:46:48.000Z</time>
        <extensions>
          <ns3:TrackPointExtension>
            <ns3:hr>137</ns3:hr>
            <ns3:cad>0</ns3:cad>
          </ns3:TrackPointExtension>
        </extensions>
      </trkpt>
      <trkpt lat="45.31242831610143184661865234375" lon="-71.039365567266941070556640625">
        <ele>824.4000244140625</ele>
        <time>2026-08-21T21:46:49.000Z</time>
        <extensions>
          <ns3:TrackPointExtension>
            <ns3:hr>137</ns3:hr>
            <ns3:cad>0</ns3:cad>
          </ns3:TrackPointExtension>
        </extensions>
      </trkpt>
      <trkpt lat="45.3124268911778926849365234375" lon="-71.03939515538513660430908203125">
        <ele>824.5999755859375</ele>
        <time>2026-08-21T21:46:50.000Z</time>
        <extensions>
          <ns3:TrackPointExtension>
            <ns3:hr>137</ns3:hr>
            <ns3:cad>0</ns3:cad>
          </ns3:TrackPointExtension>
        </extensions>
      </trkpt>
      <trkpt lat="45.31242437660694122314453125" lon="-71.03942365385591983795166015625">
        <ele>824.79998779296875</ele>
        <time>2026-08-21T21:46:51.000Z</time>
        <extensions>
          <ns3:TrackPointExtension>
            <ns3:hr>136</ns3:hr>
            <ns3:cad>0</ns3:cad>
          </ns3:TrackPointExtension>
        </extensions>
      </trkpt>
      <trkpt lat="45.31242571771144866943359375" lon="-71.03944477625191211700439453125">
        <ele>825</ele>
        <time>2026-08-21T21:46:52.000Z</time>
        <extensions>
          <ns3:TrackPointExtension>
            <ns3:hr>135</ns3:hr>
            <ns3:cad>0</ns3:cad>
          </ns3:TrackPointExtension>
        </extensions>
      </trkpt>
      <trkpt lat="45.31242228113114833831787109375" lon="-71.03946070186793804168701171875">
        <ele>825</ele>
        <time>2026-08-21T21:46:53.000Z</time>
        <extensions>
          <ns3:TrackPointExtension>
            <ns3:hr>135</ns3:hr>
            <ns3:cad>0</ns3:cad>
          </ns3:TrackPointExtension>
        </extensions>
      </trkpt>
      <trkpt lat="45.31242580153048038482666015625" lon="-71.03948953561484813690185546875">
        <ele>825</ele>
        <time>2026-08-21T21:46:54.000Z</time>
        <extensions>
          <ns3:TrackPointExtension>
            <ns3:hr>135</ns3:hr>
            <ns3:cad>0</ns3:cad>
          </ns3:TrackPointExtension>
        </extensions>
      </trkpt>
      <trkpt lat="45.31242571771144866943359375" lon="-71.0395114123821258544921875">
        <ele>824.79998779296875</ele>
        <time>2026-08-21T21:46:55.000Z</time>
        <extensions>
          <ns3:TrackPointExtension>
            <ns3:hr>136</ns3:hr>
            <ns3:cad>0</ns3:cad>
          </ns3:TrackPointExtension>
        </extensions>
      </trkpt>
      <trkpt lat="45.31243351288139820098876953125" lon="-71.03954217396676540374755859375">
        <ele>824.5999755859375</ele>
        <time>2026-08-21T21:46:56.000Z</time>
        <extensions>
          <ns3:TrackPointExtension>
            <ns3:hr>136</ns3:hr>
            <ns3:cad>0</ns3:cad>
          </ns3:TrackPointExtension>
        </extensions>
      </trkpt>
      <trkpt lat="45.31243870966136455535888671875" lon="-71.039568744599819183349609375">
        <ele>824.5999755859375</ele>
        <time>2026-08-21T21:46:57.000Z</time>
        <extensions>
          <ns3:TrackPointExtension>
            <ns3:hr>136</ns3:hr>
            <ns3:cad>0</ns3:cad>
          </ns3:TrackPointExtension>
        </extensions>
      </trkpt>
      <trkpt lat="45.3124446608126163482666015625" lon="-71.0395945608615875244140625">
        <ele>824.4000244140625</ele>
        <time>2026-08-21T21:46:58.000Z</time>
        <extensions>
          <ns3:TrackPointExtension>
            <ns3:hr>136</ns3:hr>
            <ns3:cad>0</ns3:cad>
          </ns3:TrackPointExtension>
        </extensions>
      </trkpt>
      <trkpt lat="45.31245119869709014892578125" lon="-71.0396202094852924346923828125">
        <ele>824.4000244140625</ele>
        <time>2026-08-21T21:46:59.000Z</time>
        <extensions>
          <ns3:TrackPointExtension>
            <ns3:hr>135</ns3:hr>
            <ns3:cad>0</ns3:cad>
          </ns3:TrackPointExtension>
        </extensions>
      </trkpt>
      <trkpt lat="45.3124597482383251190185546875" lon="-71.039643846452236175537109375">
        <ele>824.4000244140625</ele>
        <time>2026-08-21T21:47:00.000Z</time>
        <extensions>
          <ns3:TrackPointExtension>
            <ns3:hr>135</ns3:hr>
            <ns3:cad>0</ns3:cad>
          </ns3:TrackPointExtension>
        </extensions>
      </trkpt>
      <trkpt lat="45.31245849095284938812255859375" lon="-71.03965633548796176910400390625">
        <ele>824.4000244140625</ele>
        <time>2026-08-21T21:47:01.000Z</time>
        <extensions>
          <ns3:TrackPointExtension>
            <ns3:hr>134</ns3:hr>
            <ns3:cad>0</ns3:cad>
          </ns3:TrackPointExtension>
        </extensions>
      </trkpt>
      <trkpt lat="45.3124637715518474578857421875" lon="-71.03968164883553981781005859375">
        <ele>824.4000244140625</ele>
        <time>2026-08-21T21:47:02.000Z</time>
        <extensions>
          <ns3:TrackPointExtension>
            <ns3:hr>133</ns3:hr>
            <ns3:cad>0</ns3:cad>
          </ns3:TrackPointExtension>
        </extensions>
      </trkpt>
      <trkpt lat="45.312473662197589874267578125" lon="-71.03969447314739227294921875">
        <ele>824.4000244140625</ele>
        <time>2026-08-21T21:47:03.000Z</time>
        <extensions>
          <ns3:TrackPointExtension>
            <ns3:hr>132</ns3:hr>
            <ns3:cad>0</ns3:cad>
          </ns3:TrackPointExtension>
        </extensions>
      </trkpt>
      <trkpt lat="45.3124818764626979827880859375" lon="-71.03971115313470363616943359375">
        <ele>824.4000244140625</ele>
        <time>2026-08-21T21:47:04.000Z</time>
        <extensions>
          <ns3:TrackPointExtension>
            <ns3:hr>132</ns3:hr>
            <ns3:cad>0</ns3:cad>
          </ns3:TrackPointExtension>
        </extensions>
      </trkpt>
      <trkpt lat="45.3124867379665374755859375" lon="-71.0397305153310298919677734375">
        <ele>824.4000244140625</ele>
        <time>2026-08-21T21:47:05.000Z</time>
        <extensions>
          <ns3:TrackPointExtension>
            <ns3:hr>133</ns3:hr>
            <ns3:cad>57</ns3:cad>
          </ns3:TrackPointExtension>
        </extensions>
      </trkpt>
      <trkpt lat="45.312492437660694122314453125" lon="-71.0397499613463878631591796875">
        <ele>824.4000244140625</ele>
        <time>2026-08-21T21:47:06.000Z</time>
        <extensions>
          <ns3:TrackPointExtension>
            <ns3:hr>133</ns3:hr>
            <ns3:cad>57</ns3:cad>
          </ns3:TrackPointExtension>
        </extensions>
      </trkpt>
      <trkpt lat="45.31249637715518474578857421875" lon="-71.0397653840482234954833984375">
        <ele>824.4000244140625</ele>
        <time>2026-08-21T21:47:07.000Z</time>
        <extensions>
          <ns3:TrackPointExtension>
            <ns3:hr>133</ns3:hr>
            <ns3:cad>57</ns3:cad>
          </ns3:TrackPointExtension>
        </extensions>
      </trkpt>
      <trkpt lat="45.312499813735485076904296875" lon="-71.0397831536829471588134765625">
        <ele>824.4000244140625</ele>
        <time>2026-08-21T21:47:08.000Z</time>
        <extensions>
          <ns3:TrackPointExtension>
            <ns3:hr>133</ns3:hr>
            <ns3:cad>57</ns3:cad>
          </ns3:TrackPointExtension>
        </extensions>
      </trkpt>
      <trkpt lat="45.3125019930303096771240234375" lon="-71.0397982411086559295654296875">
        <ele>824.4000244140625</ele>
        <time>2026-08-21T21:47:09.000Z</time>
        <extensions>
          <ns3:TrackPointExtension>
            <ns3:hr>134</ns3:hr>
            <ns3:cad>57</ns3:cad>
          </ns3:TrackPointExtension>
        </extensions>
      </trkpt>
      <trkpt lat="45.312501490116119384765625" lon="-71.0398223809897899627685546875">
        <ele>824.5999755859375</ele>
        <time>2026-08-21T21:47:10.000Z</time>
        <extensions>
          <ns3:TrackPointExtension>
            <ns3:hr>134</ns3:hr>
            <ns3:cad>0</ns3:cad>
          </ns3:TrackPointExtension>
        </extensions>
      </trkpt>
      <trkpt lat="45.31250392086803913116455078125" lon="-71.03983604349195957183837890625">
        <ele>824.5999755859375</ele>
        <time>2026-08-21T21:47:11.000Z</time>
        <extensions>
          <ns3:TrackPointExtension>
            <ns3:hr>133</ns3:hr>
            <ns3:cad>0</ns3:cad>
          </ns3:TrackPointExtension>
        </extensions>
      </trkpt>
      <trkpt lat="45.312507860362529754638671875" lon="-71.03986470960080623626708984375">
        <ele>824.5999755859375</ele>
        <time>2026-08-21T21:47:12.000Z</time>
        <extensions>
          <ns3:TrackPointExtension>
            <ns3:hr>133</ns3:hr>
            <ns3:cad>0</ns3:cad>
          </ns3:TrackPointExtension>
        </extensions>
      </trkpt>
      <trkpt lat="45.31251288950443267822265625" lon="-71.03989069350063800811767578125">
        <ele>824.4000244140625</ele>
        <time>2026-08-21T21:47:13.000Z</time>
        <extensions>
          <ns3:TrackPointExtension>
            <ns3:hr>133</ns3:hr>
            <ns3:cad>0</ns3:cad>
          </ns3:TrackPointExtension>
        </extensions>
      </trkpt>
      <trkpt lat="45.3125184215605258941650390625" lon="-71.03991650976240634918212890625">
        <ele>824.20001220703125</ele>
        <time>2026-08-21T21:47:14.000Z</time>
        <extensions>
          <ns3:TrackPointExtension>
            <ns3:hr>132</ns3:hr>
            <ns3:cad>0</ns3:cad>
          </ns3:TrackPointExtension>
        </extensions>
      </trkpt>
      <trkpt lat="45.31252504326403141021728515625" lon="-71.039931513369083404541015625">
        <ele>824.20001220703125</ele>
        <time>2026-08-21T21:47:15.000Z</time>
        <extensions>
          <ns3:TrackPointExtension>
            <ns3:hr>132</ns3:hr>
            <ns3:cad>0</ns3:cad>
          </ns3:TrackPointExtension>
        </extensions>
      </trkpt>
      <trkpt lat="45.31253141351044178009033203125" lon="-71.03995841927826404571533203125">
        <ele>824</ele>
        <time>2026-08-21T21:47:16.000Z</time>
        <extensions>
          <ns3:TrackPointExtension>
            <ns3:hr>132</ns3:hr>
            <ns3:cad>0</ns3:cad>
          </ns3:TrackPointExtension>
        </extensions>
      </trkpt>
      <trkpt lat="45.312540717422962188720703125" lon="-71.039977110922336578369140625">
        <ele>824</ele>
        <time>2026-08-21T21:47:17.000Z</time>
        <extensions>
          <ns3:TrackPointExtension>
            <ns3:hr>132</ns3:hr>
            <ns3:cad>0</ns3:cad>
          </ns3:TrackPointExtension>
        </extensions>
      </trkpt>
      <trkpt lat="45.3125455789268016815185546875" lon="-71.039989180862903594970703125">
        <ele>824</ele>
        <time>2026-08-21T21:47:18.000Z</time>
        <extensions>
          <ns3:TrackPointExtension>
            <ns3:hr>132</ns3:hr>
            <ns3:cad>0</ns3:cad>
          </ns3:TrackPointExtension>
        </extensions>
      </trkpt>
      <trkpt lat="45.3125569783151149749755859375" lon="-71.04001692496240139007568359375">
        <ele>823.79998779296875</ele>
        <time>2026-08-21T21:47:19.000Z</time>
        <extensions>
          <ns3:TrackPointExtension>
            <ns3:hr>132</ns3:hr>
            <ns3:cad>0</ns3:cad>
          </ns3:TrackPointExtension>
        </extensions>
      </trkpt>
      <trkpt lat="45.3125693835318088531494140625" lon="-71.04003645479679107666015625">
        <ele>823.5999755859375</ele>
        <time>2026-08-21T21:47:20.000Z</time>
        <extensions>
          <ns3:TrackPointExtension>
            <ns3:hr>131</ns3:hr>
            <ns3:cad>0</ns3:cad>
          </ns3:TrackPointExtension>
        </extensions>
      </trkpt>
      <trkpt lat="45.3125779330730438232421875" lon="-71.04005548171699047088623046875">
        <ele>823.4000244140625</ele>
        <time>2026-08-21T21:47:21.000Z</time>
        <extensions>
          <ns3:TrackPointExtension>
            <ns3:hr>131</ns3:hr>
            <ns3:cad>0</ns3:cad>
          </ns3:TrackPointExtension>
        </extensions>
      </trkpt>
      <trkpt lat="45.31258002854883670806884765625" lon="-71.04007107205688953399658203125">
        <ele>823</ele>
        <time>2026-08-21T21:47:22.000Z</time>
        <extensions>
          <ns3:TrackPointExtension>
            <ns3:hr>131</ns3:hr>
            <ns3:cad>0</ns3:cad>
          </ns3:TrackPointExtension>
        </extensions>
      </trkpt>
      <trkpt lat="45.31258455477654933929443359375" lon="-71.04009018279612064361572265625">
        <ele>822.79998779296875</ele>
        <time>2026-08-21T21:47:23.000Z</time>
        <extensions>
          <ns3:TrackPointExtension>
            <ns3:hr>131</ns3:hr>
            <ns3:cad>0</ns3:cad>
          </ns3:TrackPointExtension>
        </extensions>
      </trkpt>
      <trkpt lat="45.31258673407137393951416015625" lon="-71.04011381976306438446044921875">
        <ele>822.5999755859375</ele>
        <time>2026-08-21T21:47:24.000Z</time>
        <extensions>
          <ns3:TrackPointExtension>
            <ns3:hr>130</ns3:hr>
            <ns3:cad>0</ns3:cad>
          </ns3:TrackPointExtension>
        </extensions>
      </trkpt>
      <trkpt lat="45.31258975155651569366455078125" lon="-71.0401412285864353179931640625">
        <ele>822.4000244140625</ele>
        <time>2026-08-21T21:47:25.000Z</time>
        <extensions>
          <ns3:TrackPointExtension>
            <ns3:hr>130</ns3:hr>
            <ns3:cad>0</ns3:cad>
          </ns3:TrackPointExtension>
        </extensions>
      </trkpt>
      <trkpt lat="45.312594361603260040283203125" lon="-71.04016176424920558929443359375">
        <ele>822.20001220703125</ele>
        <time>2026-08-21T21:47:26.000Z</time>
        <extensions>
          <ns3:TrackPointExtension>
            <ns3:hr>130</ns3:hr>
            <ns3:cad>0</ns3:cad>
          </ns3:TrackPointExtension>
        </extensions>
      </trkpt>
      <trkpt lat="45.31259997747838497161865234375" lon="-71.0401764325797557830810546875">
        <ele>822.20001220703125</ele>
        <time>2026-08-21T21:47:27.000Z</time>
        <extensions>
          <ns3:TrackPointExtension>
            <ns3:hr>130</ns3:hr>
            <ns3:cad>0</ns3:cad>
          </ns3:TrackPointExtension>
        </extensions>
      </trkpt>
      <trkpt lat="45.3126032464206218719482421875" lon="-71.0401988960802555084228515625">
        <ele>822</ele>
        <time>2026-08-21T21:47:28.000Z</time>
        <extensions>
          <ns3:TrackPointExtension>
            <ns3:hr>130</ns3:hr>
            <ns3:cad>0</ns3:cad>
          </ns3:TrackPointExtension>
        </extensions>
      </trkpt>
      <trkpt lat="45.3126065991818904876708984375" lon="-71.0402139835059642791748046875">
        <ele>822</ele>
        <time>2026-08-21T21:47:29.000Z</time>
        <extensions>
          <ns3:TrackPointExtension>
            <ns3:hr>129</ns3:hr>
            <ns3:cad>64</ns3:cad>
          </ns3:TrackPointExtension>
        </extensions>
      </trkpt>
      <trkpt lat="45.31261213123798370361328125" lon="-71.0402320884168148040771484375">
        <ele>822</ele>
        <time>2026-08-21T21:47:30.000Z</time>
        <extensions>
          <ns3:TrackPointExtension>
            <ns3:hr>129</ns3:hr>
            <ns3:cad>64</ns3:cad>
          </ns3:TrackPointExtension>
        </extensions>
      </trkpt>
      <trkpt lat="45.31261808238923549652099609375" lon="-71.04024122469127178192138671875">
        <ele>822</ele>
        <time>2026-08-21T21:47:31.000Z</time>
        <extensions>
          <ns3:TrackPointExtension>
            <ns3:hr>128</ns3:hr>
            <ns3:cad>64</ns3:cad>
          </ns3:TrackPointExtension>
        </extensions>
      </trkpt>
      <trkpt lat="45.3126235306262969970703125" lon="-71.04025916196405887603759765625">
        <ele>822</ele>
        <time>2026-08-21T21:47:32.000Z</time>
        <extensions>
          <ns3:TrackPointExtension>
            <ns3:hr>128</ns3:hr>
            <ns3:cad>64</ns3:cad>
          </ns3:TrackPointExtension>
        </extensions>
      </trkpt>
      <trkpt lat="45.31262914650142192840576171875" lon="-71.04027693159878253936767578125">
        <ele>822</ele>
        <time>2026-08-21T21:47:33.000Z</time>
        <extensions>
          <ns3:TrackPointExtension>
            <ns3:hr>128</ns3:hr>
            <ns3:cad>64</ns3:cad>
          </ns3:TrackPointExtension>
        </extensions>
      </trkpt>
      <trkpt lat="45.3126342594623565673828125" lon="-71.04029386304318904876708984375">
        <ele>822</ele>
        <time>2026-08-21T21:47:34.000Z</time>
        <extensions>
          <ns3:TrackPointExtension>
            <ns3:hr>128</ns3:hr>
            <ns3:cad>64</ns3:cad>
          </ns3:TrackPointExtension>
        </extensions>
      </trkpt>
      <trkpt lat="45.3126411326229572296142578125" lon="-71.04031682945787906646728515625">
        <ele>822</ele>
        <time>2026-08-21T21:47:35.000Z</time>
        <extensions>
          <ns3:TrackPointExtension>
            <ns3:hr>127</ns3:hr>
            <ns3:cad>64</ns3:cad>
          </ns3:TrackPointExtension>
        </extensions>
      </trkpt>
      <trkpt lat="45.3126485086977481842041015625" lon="-71.04033946059644222259521484375">
        <ele>822</ele>
        <time>2026-08-21T21:47:36.000Z</time>
        <extensions>
          <ns3:TrackPointExtension>
            <ns3:hr>126</ns3:hr>
            <ns3:cad>64</ns3:cad>
          </ns3:TrackPointExtension>
        </extensions>
      </trkpt>
      <trkpt lat="45.31265378929674625396728515625" lon="-71.040356643497943878173828125">
        <ele>822</ele>
        <time>2026-08-21T21:47:37.000Z</time>
        <extensions>
          <ns3:TrackPointExtension>
            <ns3:hr>126</ns3:hr>
            <ns3:cad>64</ns3:cad>
          </ns3:TrackPointExtension>
        </extensions>
      </trkpt>
      <trkpt lat="45.31266032718122005462646484375" lon="-71.04038673453032970428466796875">
        <ele>822</ele>
        <time>2026-08-21T21:47:38.000Z</time>
        <extensions>
          <ns3:TrackPointExtension>
            <ns3:hr>127</ns3:hr>
            <ns3:cad>64</ns3:cad>
          </ns3:TrackPointExtension>
        </extensions>
      </trkpt>
      <trkpt lat="45.31266552396118640899658203125" lon="-71.0404138080775737762451171875">
        <ele>821.79998779296875</ele>
        <time>2026-08-21T21:47:39.000Z</time>
        <extensions>
          <ns3:TrackPointExtension>
            <ns3:hr>128</ns3:hr>
            <ns3:cad>64</ns3:cad>
          </ns3:TrackPointExtension>
        </extensions>
      </trkpt>
      <trkpt lat="45.31267239712178707122802734375" lon="-71.040438450872898101806640625">
        <ele>822</ele>
        <time>2026-08-21T21:47:40.000Z</time>
        <extensions>
          <ns3:TrackPointExtension>
            <ns3:hr>130</ns3:hr>
            <ns3:cad>64</ns3:cad>
          </ns3:TrackPointExtension>
        </extensions>
      </trkpt>
      <trkpt lat="45.31268379651010036468505859375" lon="-71.040464602410793304443359375">
        <ele>822</ele>
        <time>2026-08-21T21:47:41.000Z</time>
        <extensions>
          <ns3:TrackPointExtension>
            <ns3:hr>131</ns3:hr>
            <ns3:cad>72</ns3:cad>
          </ns3:TrackPointExtension>
        </extensions>
      </trkpt>
      <trkpt lat="45.3126914240419864654541015625" lon="-71.04048362933099269866943359375">
        <ele>822</ele>
        <time>2026-08-21T21:47:42.000Z</time>
        <extensions>
          <ns3:TrackPointExtension>
            <ns3:hr>131</ns3:hr>
            <ns3:cad>72</ns3:cad>
          </ns3:TrackPointExtension>
        </extensions>
      </trkpt>
      <trkpt lat="45.3126984648406505584716796875" lon="-71.04050693102180957794189453125">
        <ele>822</ele>
        <time>2026-08-21T21:47:43.000Z</time>
        <extensions>
          <ns3:TrackPointExtension>
            <ns3:hr>131</ns3:hr>
            <ns3:cad>72</ns3:cad>
          </ns3:TrackPointExtension>
        </extensions>
      </trkpt>
      <trkpt lat="45.312710702419281005859375" lon="-71.04052771814167499542236328125">
        <ele>822</ele>
        <time>2026-08-21T21:47:44.000Z</time>
        <extensions>
          <ns3:TrackPointExtension>
            <ns3:hr>131</ns3:hr>
            <ns3:cad>72</ns3:cad>
          </ns3:TrackPointExtension>
        </extensions>
      </trkpt>
      <trkpt lat="45.3127222694456577301025390625" lon="-71.0405459068715572357177734375">
        <ele>822</ele>
        <time>2026-08-21T21:47:45.000Z</time>
        <extensions>
          <ns3:TrackPointExtension>
            <ns3:hr>131</ns3:hr>
            <ns3:cad>72</ns3:cad>
          </ns3:TrackPointExtension>
        </extensions>
      </trkpt>
      <trkpt lat="45.312729142606258392333984375" lon="-71.040575243532657623291015625">
        <ele>822.20001220703125</ele>
        <time>2026-08-21T21:47:46.000Z</time>
        <extensions>
          <ns3:TrackPointExtension>
            <ns3:hr>131</ns3:hr>
            <ns3:cad>72</ns3:cad>
          </ns3:TrackPointExtension>
        </extensions>
      </trkpt>
      <trkpt lat="45.31273685395717620849609375" lon="-71.04059980250895023345947265625">
        <ele>822.20001220703125</ele>
        <time>2026-08-21T21:47:47.000Z</time>
        <extensions>
          <ns3:TrackPointExtension>
            <ns3:hr>130</ns3:hr>
            <ns3:cad>72</ns3:cad>
          </ns3:TrackPointExtension>
        </extensions>
      </trkpt>
      <trkpt lat="45.31274649314582347869873046875" lon="-71.04061002843081951141357421875">
        <ele>822.4000244140625</ele>
        <time>2026-08-21T21:47:48.000Z</time>
        <extensions>
          <ns3:TrackPointExtension>
            <ns3:hr>130</ns3:hr>
            <ns3:cad>72</ns3:cad>
          </ns3:TrackPointExtension>
        </extensions>
      </trkpt>
      <trkpt lat="45.3127574734389781951904296875" lon="-71.0406334139406681060791015625">
        <ele>822.5999755859375</ele>
        <time>2026-08-21T21:47:49.000Z</time>
        <extensions>
          <ns3:TrackPointExtension>
            <ns3:hr>129</ns3:hr>
            <ns3:cad>72</ns3:cad>
          </ns3:TrackPointExtension>
        </extensions>
      </trkpt>
      <trkpt lat="45.312760658562183380126953125" lon="-71.04064774699509143829345703125">
        <ele>822.5999755859375</ele>
        <time>2026-08-21T21:47:50.000Z</time>
        <extensions>
          <ns3:TrackPointExtension>
            <ns3:hr>128</ns3:hr>
            <ns3:cad>72</ns3:cad>
          </ns3:TrackPointExtension>
        </extensions>
      </trkpt>
      <trkpt lat="45.3127611614763736724853515625" lon="-71.040667109191417694091796875">
        <ele>822.79998779296875</ele>
        <time>2026-08-21T21:47:51.000Z</time>
        <extensions>
          <ns3:TrackPointExtension>
            <ns3:hr>127</ns3:hr>
            <ns3:cad>0</ns3:cad>
          </ns3:TrackPointExtension>
        </extensions>
      </trkpt>
      <trkpt lat="45.31276208348572254180908203125" lon="-71.04068865068256855010986328125">
        <ele>823</ele>
        <time>2026-08-21T21:47:52.000Z</time>
        <extensions>
          <ns3:TrackPointExtension>
            <ns3:hr>127</ns3:hr>
            <ns3:cad>0</ns3:cad>
          </ns3:TrackPointExtension>
        </extensions>
      </trkpt>
      <trkpt lat="45.31276811845600605010986328125" lon="-71.04070155881345272064208984375">
        <ele>823.20001220703125</ele>
        <time>2026-08-21T21:47:53.000Z</time>
        <extensions>
          <ns3:TrackPointExtension>
            <ns3:hr>126</ns3:hr>
            <ns3:cad>0</ns3:cad>
          </ns3:TrackPointExtension>
        </extensions>
      </trkpt>
      <trkpt lat="45.31277465634047985076904296875" lon="-71.04072033427655696868896484375">
        <ele>823.20001220703125</ele>
        <time>2026-08-21T21:47:54.000Z</time>
        <extensions>
          <ns3:TrackPointExtension>
            <ns3:hr>126</ns3:hr>
            <ns3:cad>0</ns3:cad>
          </ns3:TrackPointExtension>
        </extensions>
      </trkpt>
      <trkpt lat="45.31278085894882678985595703125" lon="-71.04074514470994472503662109375">
        <ele>823.4000244140625</ele>
        <time>2026-08-21T21:47:55.000Z</time>
        <extensions>
          <ns3:TrackPointExtension>
            <ns3:hr>126</ns3:hr>
            <ns3:cad>0</ns3:cad>
          </ns3:TrackPointExtension>
        </extensions>
      </trkpt>
      <trkpt lat="45.31278706155717372894287109375" lon="-71.04076878167688846588134765625">
        <ele>823.4000244140625</ele>
        <time>2026-08-21T21:47:56.000Z</time>
        <extensions>
          <ns3:TrackPointExtension>
            <ns3:hr>126</ns3:hr>
            <ns3:cad>0</ns3:cad>
          </ns3:TrackPointExtension>
        </extensions>
      </trkpt>
      <trkpt lat="45.3127946890890598297119140625" lon="-71.0407802648842334747314453125">
        <ele>823.4000244140625</ele>
        <time>2026-08-21T21:47:57.000Z</time>
        <extensions>
          <ns3:TrackPointExtension>
            <ns3:hr>126</ns3:hr>
            <ns3:cad>0</ns3:cad>
          </ns3:TrackPointExtension>
        </extensions>
      </trkpt>
      <trkpt lat="45.31280349008738994598388671875" lon="-71.04079493321478366851806640625">
        <ele>823.5999755859375</ele>
        <time>2026-08-21T21:47:58.000Z</time>
        <extensions>
          <ns3:TrackPointExtension>
            <ns3:hr>126</ns3:hr>
            <ns3:cad>53</ns3:cad>
          </ns3:TrackPointExtension>
        </extensions>
      </trkpt>
      <trkpt lat="45.3128124587237834930419921875" lon="-71.0408151336014270782470703125">
        <ele>823.5999755859375</ele>
        <time>2026-08-21T21:47:59.000Z</time>
        <extensions>
          <ns3:TrackPointExtension>
            <ns3:hr>126</ns3:hr>
            <ns3:cad>53</ns3:cad>
          </ns3:TrackPointExtension>
        </extensions>
      </trkpt>
      <trkpt lat="45.3128168173134326934814453125" lon="-71.04081337340176105499267578125">
        <ele>823.79998779296875</ele>
        <time>2026-08-21T21:48:00.000Z</time>
        <extensions>
          <ns3:TrackPointExtension>
            <ns3:hr>127</ns3:hr>
            <ns3:cad>0</ns3:cad>
          </ns3:TrackPointExtension>
        </extensions>
      </trkpt>
      <trkpt lat="45.31282410956919193267822265625" lon="-71.040831394493579864501953125">
        <ele>824</ele>
        <time>2026-08-21T21:48:01.000Z</time>
        <extensions>
          <ns3:TrackPointExtension>
            <ns3:hr>127</ns3:hr>
            <ns3:cad>0</ns3:cad>
          </ns3:TrackPointExtension>
        </extensions>
      </trkpt>
      <trkpt lat="45.31282939016819000244140625" lon="-71.04084991849958896636962890625">
        <ele>824.20001220703125</ele>
        <time>2026-08-21T21:48:02.000Z</time>
        <extensions>
          <ns3:TrackPointExtension>
            <ns3:hr>127</ns3:hr>
            <ns3:cad>0</ns3:cad>
          </ns3:TrackPointExtension>
        </extensions>
      </trkpt>
      <trkpt lat="45.312835089862346649169921875" lon="-71.04086383245885372161865234375">
        <ele>824.4000244140625</ele>
        <time>2026-08-21T21:48:03.000Z</time>
        <extensions>
          <ns3:TrackPointExtension>
            <ns3:hr>128</ns3:hr>
            <ns3:cad>0</ns3:cad>
          </ns3:TrackPointExtension>
        </extensions>
      </trkpt>
      <trkpt lat="45.3128379397094249725341796875" lon="-71.0408734716475009918212890625">
        <ele>824.5999755859375</ele>
        <time>2026-08-21T21:48:04.000Z</time>
        <extensions>
          <ns3:TrackPointExtension>
            <ns3:hr>128</ns3:hr>
            <ns3:cad>0</ns3:cad>
          </ns3:TrackPointExtension>
        </extensions>
      </trkpt>
      <trkpt lat="45.31284523196518421173095703125" lon="-71.04088461957871913909912109375">
        <ele>825</ele>
        <time>2026-08-21T21:48:05.000Z</time>
        <extensions>
          <ns3:TrackPointExtension>
            <ns3:hr>128</ns3:hr>
            <ns3:cad>50</ns3:cad>
          </ns3:TrackPointExtension>
        </extensions>
      </trkpt>
      <trkpt lat="45.31285461969673633575439453125" lon="-71.04089903645217418670654296875">
        <ele>825.20001220703125</ele>
        <time>2026-08-21T21:48:06.000Z</time>
        <extensions>
          <ns3:TrackPointExtension>
            <ns3:hr>128</ns3:hr>
            <ns3:cad>50</ns3:cad>
          </ns3:TrackPointExtension>
        </extensions>
      </trkpt>
      <trkpt lat="45.3128630854189395904541015625" lon="-71.04090775363147258758544921875">
        <ele>825.4000244140625</ele>
        <time>2026-08-21T21:48:07.000Z</time>
        <extensions>
          <ns3:TrackPointExtension>
            <ns3:hr>129</ns3:hr>
            <ns3:cad>50</ns3:cad>
          </ns3:TrackPointExtension>
        </extensions>
      </trkpt>
      <trkpt lat="45.3128731437027454376220703125" lon="-71.04092669673264026641845703125">
        <ele>825.5999755859375</ele>
        <time>2026-08-21T21:48:08.000Z</time>
        <extensions>
          <ns3:TrackPointExtension>
            <ns3:hr>129</ns3:hr>
            <ns3:cad>52</ns3:cad>
          </ns3:TrackPointExtension>
        </extensions>
      </trkpt>
      <trkpt lat="45.31288479454815387725830078125" lon="-71.04094035923480987548828125">
        <ele>825.79998779296875</ele>
        <time>2026-08-21T21:48:09.000Z</time>
        <extensions>
          <ns3:TrackPointExtension>
            <ns3:hr>128</ns3:hr>
            <ns3:cad>52</ns3:cad>
          </ns3:TrackPointExtension>
        </extensions>
      </trkpt>
      <trkpt lat="45.3128917515277862548828125" lon="-71.0409462265670299530029296875">
        <ele>826</ele>
        <time>2026-08-21T21:48:10.000Z</time>
        <extensions>
          <ns3:TrackPointExtension>
            <ns3:hr>128</ns3:hr>
            <ns3:cad>49</ns3:cad>
          </ns3:TrackPointExtension>
        </extensions>
      </trkpt>
      <trkpt lat="45.3128986246883869171142578125" lon="-71.04095469228923320770263671875">
        <ele>826.20001220703125</ele>
        <time>2026-08-21T21:48:11.000Z</time>
        <extensions>
          <ns3:TrackPointExtension>
            <ns3:hr>129</ns3:hr>
            <ns3:cad>49</ns3:cad>
          </ns3:TrackPointExtension>
        </extensions>
      </trkpt>
      <trkpt lat="45.312900133430957794189453125" lon="-71.0409651696681976318359375">
        <ele>826.4000244140625</ele>
        <time>2026-08-21T21:48:12.000Z</time>
        <extensions>
          <ns3:TrackPointExtension>
            <ns3:hr>129</ns3:hr>
            <ns3:cad>49</ns3:cad>
          </ns3:TrackPointExtension>
        </extensions>
      </trkpt>
      <trkpt lat="45.3129051625728607177734375" lon="-71.0409767366945743560791015625">
        <ele>826.5999755859375</ele>
        <time>2026-08-21T21:48:13.000Z</time>
        <extensions>
          <ns3:TrackPointExtension>
            <ns3:hr>131</ns3:hr>
            <ns3:cad>49</ns3:cad>
          </ns3:TrackPointExtension>
        </extensions>
      </trkpt>
      <trkpt lat="45.31291178427636623382568359375" lon="-71.040992327034473419189453125">
        <ele>826.79998779296875</ele>
        <time>2026-08-21T21:48:14.000Z</time>
        <extensions>
          <ns3:TrackPointExtension>
            <ns3:hr>133</ns3:hr>
            <ns3:cad>49</ns3:cad>
          </ns3:TrackPointExtension>
        </extensions>
      </trkpt>
      <trkpt lat="45.3129170648753643035888671875" lon="-71.04099978692829608917236328125">
        <ele>827</ele>
        <time>2026-08-21T21:48:15.000Z</time>
        <extensions>
          <ns3:TrackPointExtension>
            <ns3:hr>133</ns3:hr>
            <ns3:cad>49</ns3:cad>
          </ns3:TrackPointExtension>
        </extensions>
      </trkpt>
      <trkpt lat="45.31292184256017208099365234375" lon="-71.0410149581730365753173828125">
        <ele>827.20001220703125</ele>
        <time>2026-08-21T21:48:16.000Z</time>
        <extensions>
          <ns3:TrackPointExtension>
            <ns3:hr>134</ns3:hr>
            <ns3:cad>49</ns3:cad>
          </ns3:TrackPointExtension>
        </extensions>
      </trkpt>
      <trkpt lat="45.31292586587369441986083984375" lon="-71.04102996177971363067626953125">
        <ele>827.4000244140625</ele>
        <time>2026-08-21T21:48:17.000Z</time>
        <extensions>
          <ns3:TrackPointExtension>
            <ns3:hr>134</ns3:hr>
            <ns3:cad>48</ns3:cad>
          </ns3:TrackPointExtension>
        </extensions>
      </trkpt>
      <trkpt lat="45.31293290667235851287841796875" lon="-71.04104035533964633941650390625">
        <ele>827.5999755859375</ele>
        <time>2026-08-21T21:48:18.000Z</time>
        <extensions>
          <ns3:TrackPointExtension>
            <ns3:hr>135</ns3:hr>
            <ns3:cad>48</ns3:cad>
          </ns3:TrackPointExtension>
        </extensions>
      </trkpt>
      <trkpt lat="45.31293936073780059814453125" lon="-71.04104991070926189422607421875">
        <ele>827.79998779296875</ele>
        <time>2026-08-21T21:48:19.000Z</time>
        <extensions>
          <ns3:TrackPointExtension>
            <ns3:hr>135</ns3:hr>
            <ns3:cad>48</ns3:cad>
          </ns3:TrackPointExtension>
        </extensions>
      </trkpt>
      <trkpt lat="45.3129495866596698760986328125" lon="-71.04106516577303409576416015625">
        <ele>828</ele>
        <time>2026-08-21T21:48:20.000Z</time>
        <extensions>
          <ns3:TrackPointExtension>
            <ns3:hr>134</ns3:hr>
            <ns3:cad>48</ns3:cad>
          </ns3:TrackPointExtension>
        </extensions>
      </trkpt>
      <trkpt lat="45.31295704655349254608154296875" lon="-71.04107916355133056640625">
        <ele>828</ele>
        <time>2026-08-21T21:48:21.000Z</time>
        <extensions>
          <ns3:TrackPointExtension>
            <ns3:hr>134</ns3:hr>
            <ns3:cad>48</ns3:cad>
          </ns3:TrackPointExtension>
        </extensions>
      </trkpt>
      <trkpt lat="45.31296207569539546966552734375" lon="-71.0410924069583415985107421875">
        <ele>828.20001220703125</ele>
        <time>2026-08-21T21:48:22.000Z</time>
        <extensions>
          <ns3:TrackPointExtension>
            <ns3:hr>134</ns3:hr>
            <ns3:cad>47</ns3:cad>
          </ns3:TrackPointExtension>
        </extensions>
      </trkpt>
      <trkpt lat="45.3129660151898860931396484375" lon="-71.04110657237470149993896484375">
        <ele>828.20001220703125</ele>
        <time>2026-08-21T21:48:23.000Z</time>
        <extensions>
          <ns3:TrackPointExtension>
            <ns3:hr>133</ns3:hr>
            <ns3:cad>47</ns3:cad>
          </ns3:TrackPointExtension>
        </extensions>
      </trkpt>
      <trkpt lat="45.3129676915705204010009765625" lon="-71.04111872613430023193359375">
        <ele>828.20001220703125</ele>
        <time>2026-08-21T21:48:24.000Z</time>
        <extensions>
          <ns3:TrackPointExtension>
            <ns3:hr>133</ns3:hr>
            <ns3:cad>47</ns3:cad>
          </ns3:TrackPointExtension>
        </extensions>
      </trkpt>
      <trkpt lat="45.31296978704631328582763671875" lon="-71.04114294983446598052978515625">
        <ele>828.4000244140625</ele>
        <time>2026-08-21T21:48:25.000Z</time>
        <extensions>
          <ns3:TrackPointExtension>
            <ns3:hr>132</ns3:hr>
            <ns3:cad>50</ns3:cad>
          </ns3:TrackPointExtension>
        </extensions>
      </trkpt>
      <trkpt lat="45.31297028996050357818603515625" lon="-71.0411591269075870513916015625">
        <ele>828.4000244140625</ele>
        <time>2026-08-21T21:48:26.000Z</time>
        <extensions>
          <ns3:TrackPointExtension>
            <ns3:hr>131</ns3:hr>
            <ns3:cad>50</ns3:cad>
          </ns3:TrackPointExtension>
        </extensions>
      </trkpt>
      <trkpt lat="45.3129713796079158782958984375" lon="-71.041180081665515899658203125">
        <ele>828.4000244140625</ele>
        <time>2026-08-21T21:48:27.000Z</time>
        <extensions>
          <ns3:TrackPointExtension>
            <ns3:hr>132</ns3:hr>
            <ns3:cad>0</ns3:cad>
          </ns3:TrackPointExtension>
        </extensions>
      </trkpt>
      <trkpt lat="45.31297548674046993255615234375" lon="-71.041199527680873870849609375">
        <ele>828.5999755859375</ele>
        <time>2026-08-21T21:48:28.000Z</time>
        <extensions>
          <ns3:TrackPointExtension>
            <ns3:hr>132</ns3:hr>
            <ns3:cad>0</ns3:cad>
          </ns3:TrackPointExtension>
        </extensions>
      </trkpt>
      <trkpt lat="45.312978588044643402099609375" lon="-71.04120858013629913330078125">
        <ele>828.5999755859375</ele>
        <time>2026-08-21T21:48:29.000Z</time>
        <extensions>
          <ns3:TrackPointExtension>
            <ns3:hr>132</ns3:hr>
            <ns3:cad>0</ns3:cad>
          </ns3:TrackPointExtension>
        </extensions>
      </trkpt>
      <trkpt lat="45.31298923306167125701904296875" lon="-71.0412231646478176116943359375">
        <ele>828.79998779296875</ele>
        <time>2026-08-21T21:48:30.000Z</time>
        <extensions>
          <ns3:TrackPointExtension>
            <ns3:hr>132</ns3:hr>
            <ns3:cad>0</ns3:cad>
          </ns3:TrackPointExtension>
        </extensions>
      </trkpt>
      <trkpt lat="45.31300147064030170440673828125" lon="-71.04122827760875225067138671875">
        <ele>829</ele>
        <time>2026-08-21T21:48:31.000Z</time>
        <extensions>
          <ns3:TrackPointExtension>
            <ns3:hr>132</ns3:hr>
            <ns3:cad>0</ns3:cad>
          </ns3:TrackPointExtension>
        </extensions>
      </trkpt>
      <trkpt lat="45.31301504932343959808349609375" lon="-71.04124017991125583648681640625">
        <ele>829</ele>
        <time>2026-08-21T21:48:32.000Z</time>
        <extensions>
          <ns3:TrackPointExtension>
            <ns3:hr>132</ns3:hr>
            <ns3:cad>0</ns3:cad>
          </ns3:TrackPointExtension>
        </extensions>
      </trkpt>
      <trkpt lat="45.313027538359165191650390625" lon="-71.0412553511559963226318359375">
        <ele>829</ele>
        <time>2026-08-21T21:48:33.000Z</time>
        <extensions>
          <ns3:TrackPointExtension>
            <ns3:hr>132</ns3:hr>
            <ns3:cad>0</ns3:cad>
          </ns3:TrackPointExtension>
        </extensions>
      </trkpt>
      <trkpt lat="45.3130344115197658538818359375" lon="-71.0412731207907199859619140625">
        <ele>829</ele>
        <time>2026-08-21T21:48:34.000Z</time>
        <extensions>
          <ns3:TrackPointExtension>
            <ns3:hr>131</ns3:hr>
            <ns3:cad>0</ns3:cad>
          </ns3:TrackPointExtension>
        </extensions>
      </trkpt>
      <trkpt lat="45.31303985975682735443115234375" lon="-71.04129432700574398040771484375">
        <ele>828.79998779296875</ele>
        <time>2026-08-21T21:48:35.000Z</time>
        <extensions>
          <ns3:TrackPointExtension>
            <ns3:hr>131</ns3:hr>
            <ns3:cad>0</ns3:cad>
          </ns3:TrackPointExtension>
        </extensions>
      </trkpt>
      <trkpt lat="45.3130494989454746246337890625" lon="-71.04130019433796405792236328125">
        <ele>828.79998779296875</ele>
        <time>2026-08-21T21:48:36.000Z</time>
        <extensions>
          <ns3:TrackPointExtension>
            <ns3:hr>131</ns3:hr>
            <ns3:cad>0</ns3:cad>
          </ns3:TrackPointExtension>
        </extensions>
      </trkpt>
      <trkpt lat="45.313060395419597625732421875" lon="-71.0413153655827045440673828125">
        <ele>828.79998779296875</ele>
        <time>2026-08-21T21:48:37.000Z</time>
        <extensions>
          <ns3:TrackPointExtension>
            <ns3:hr>131</ns3:hr>
            <ns3:cad>58</ns3:cad>
          </ns3:TrackPointExtension>
        </extensions>
      </trkpt>
      <trkpt lat="45.31306986697018146514892578125" lon="-71.0413374938070774078369140625">
        <ele>828.79998779296875</ele>
        <time>2026-08-21T21:48:38.000Z</time>
        <extensions>
          <ns3:TrackPointExtension>
            <ns3:hr>131</ns3:hr>
            <ns3:cad>58</ns3:cad>
          </ns3:TrackPointExtension>
        </extensions>
      </trkpt>
      <trkpt lat="45.313081853091716766357421875" lon="-71.0413525812327861785888671875">
        <ele>828.79998779296875</ele>
        <time>2026-08-21T21:48:39.000Z</time>
        <extensions>
          <ns3:TrackPointExtension>
            <ns3:hr>132</ns3:hr>
            <ns3:cad>58</ns3:cad>
          </ns3:TrackPointExtension>
        </extensions>
      </trkpt>
      <trkpt lat="45.31309358775615692138671875" lon="-71.0413716919720172882080078125">
        <ele>828.79998779296875</ele>
        <time>2026-08-21T21:48:40.000Z</time>
        <extensions>
          <ns3:TrackPointExtension>
            <ns3:hr>132</ns3:hr>
            <ns3:cad>58</ns3:cad>
          </ns3:TrackPointExtension>
        </extensions>
      </trkpt>
      <trkpt lat="45.31310322694480419158935546875" lon="-71.04138434864580631256103515625">
        <ele>828.79998779296875</ele>
        <time>2026-08-21T21:48:41.000Z</time>
        <extensions>
          <ns3:TrackPointExtension>
            <ns3:hr>132</ns3:hr>
            <ns3:cad>55</ns3:cad>
          </ns3:TrackPointExtension>
        </extensions>
      </trkpt>
      <trkpt lat="45.31310926191508769989013671875" lon="-71.0414032079279422760009765625">
        <ele>828.79998779296875</ele>
        <time>2026-08-21T21:48:42.000Z</time>
        <extensions>
          <ns3:TrackPointExtension>
            <ns3:hr>133</ns3:hr>
            <ns3:cad>55</ns3:cad>
          </ns3:TrackPointExtension>
        </extensions>
      </trkpt>
      <trkpt lat="45.313111357390880584716796875" lon="-71.0414290241897106170654296875">
        <ele>828.5999755859375</ele>
        <time>2026-08-21T21:48:43.000Z</time>
        <extensions>
          <ns3:TrackPointExtension>
            <ns3:hr>132</ns3:hr>
            <ns3:cad>55</ns3:cad>
          </ns3:TrackPointExtension>
        </extensions>
      </trkpt>
      <trkpt lat="45.31311395578086376190185546875" lon="-71.041448302567005157470703125">
        <ele>828.5999755859375</ele>
        <time>2026-08-21T21:48:44.000Z</time>
        <extensions>
          <ns3:TrackPointExtension>
            <ns3:hr>132</ns3:hr>
            <ns3:cad>55</ns3:cad>
          </ns3:TrackPointExtension>
        </extensions>
      </trkpt>
      <trkpt lat="45.313118733465671539306640625" lon="-71.04147302918136119842529296875">
        <ele>828.4000244140625</ele>
        <time>2026-08-21T21:48:45.000Z</time>
        <extensions>
          <ns3:TrackPointExtension>
            <ns3:hr>132</ns3:hr>
            <ns3:cad>55</ns3:cad>
          </ns3:TrackPointExtension>
        </extensions>
      </trkpt>
      <trkpt lat="45.31311638653278350830078125" lon="-71.0414917208254337310791015625">
        <ele>828.20001220703125</ele>
        <time>2026-08-21T21:48:46.000Z</time>
        <extensions>
          <ns3:TrackPointExtension>
            <ns3:hr>132</ns3:hr>
            <ns3:cad>55</ns3:cad>
          </ns3:TrackPointExtension>
        </extensions>
      </trkpt>
      <trkpt lat="45.3131081722676753997802734375" lon="-71.0415047965943813323974609375">
        <ele>828.20001220703125</ele>
        <time>2026-08-21T21:48:47.000Z</time>
        <extensions>
          <ns3:TrackPointExtension>
            <ns3:hr>132</ns3:hr>
            <ns3:cad>55</ns3:cad>
          </ns3:TrackPointExtension>
        </extensions>
      </trkpt>
      <trkpt lat="45.3131036460399627685546875" lon="-71.041518710553646087646484375">
        <ele>828.20001220703125</ele>
        <time>2026-08-21T21:48:48.000Z</time>
        <extensions>
          <ns3:TrackPointExtension>
            <ns3:hr>132</ns3:hr>
            <ns3:cad>55</ns3:cad>
          </ns3:TrackPointExtension>
        </extensions>
      </trkpt>
      <trkpt lat="45.313107334077358245849609375" lon="-71.04153606109321117401123046875">
        <ele>828.20001220703125</ele>
        <time>2026-08-21T21:48:49.000Z</time>
        <extensions>
          <ns3:TrackPointExtension>
            <ns3:hr>132</ns3:hr>
            <ns3:cad>55</ns3:cad>
          </ns3:TrackPointExtension>
        </extensions>
      </trkpt>
      <trkpt lat="45.313110016286373138427734375" lon="-71.04155651293694972991943359375">
        <ele>828.20001220703125</ele>
        <time>2026-08-21T21:48:50.000Z</time>
        <extensions>
          <ns3:TrackPointExtension>
            <ns3:hr>131</ns3:hr>
            <ns3:cad>55</ns3:cad>
          </ns3:TrackPointExtension>
        </extensions>
      </trkpt>
      <trkpt lat="45.313104651868343353271484375" lon="-71.0415762104094028472900390625">
        <ele>828.4000244140625</ele>
        <time>2026-08-21T21:48:51.000Z</time>
        <extensions>
          <ns3:TrackPointExtension>
            <ns3:hr>131</ns3:hr>
            <ns3:cad>55</ns3:cad>
          </ns3:TrackPointExtension>
        </extensions>
      </trkpt>
      <trkpt lat="45.313102304935455322265625" lon="-71.041597835719585418701171875">
        <ele>828.4000244140625</ele>
        <time>2026-08-21T21:48:52.000Z</time>
        <extensions>
          <ns3:TrackPointExtension>
            <ns3:hr>131</ns3:hr>
            <ns3:cad>0</ns3:cad>
          </ns3:TrackPointExtension>
        </extensions>
      </trkpt>
      <trkpt lat="45.31309534795582294464111328125" lon="-71.04161736555397510528564453125">
        <ele>828.4000244140625</ele>
        <time>2026-08-21T21:48:53.000Z</time>
        <extensions>
          <ns3:TrackPointExtension>
            <ns3:hr>130</ns3:hr>
            <ns3:cad>0</ns3:cad>
          </ns3:TrackPointExtension>
        </extensions>
      </trkpt>
      <trkpt lat="45.31309115700423717498779296875" lon="-71.04163077659904956817626953125">
        <ele>828.4000244140625</ele>
        <time>2026-08-21T21:48:54.000Z</time>
        <extensions>
          <ns3:TrackPointExtension>
            <ns3:hr>130</ns3:hr>
            <ns3:cad>0</ns3:cad>
          </ns3:TrackPointExtension>
        </extensions>
      </trkpt>
      <trkpt lat="45.313085205852985382080078125" lon="-71.0416486300528049468994140625">
        <ele>828.5999755859375</ele>
        <time>2026-08-21T21:48:55.000Z</time>
        <extensions>
          <ns3:TrackPointExtension>
            <ns3:hr>129</ns3:hr>
            <ns3:cad>0</ns3:cad>
          </ns3:TrackPointExtension>
        </extensions>
      </trkpt>
      <trkpt lat="45.31308411620557308197021484375" lon="-71.0416667349636554718017578125">
        <ele>828.5999755859375</ele>
        <time>2026-08-21T21:48:56.000Z</time>
        <extensions>
          <ns3:TrackPointExtension>
            <ns3:hr>129</ns3:hr>
            <ns3:cad>0</ns3:cad>
          </ns3:TrackPointExtension>
        </extensions>
      </trkpt>
      <trkpt lat="45.31308126635849475860595703125" lon="-71.04168442077934741973876953125">
        <ele>828.79998779296875</ele>
        <time>2026-08-21T21:48:57.000Z</time>
        <extensions>
          <ns3:TrackPointExtension>
            <ns3:hr>129</ns3:hr>
            <ns3:cad>0</ns3:cad>
          </ns3:TrackPointExtension>
        </extensions>
      </trkpt>
      <trkpt lat="45.31307707540690898895263671875" lon="-71.0417029447853565216064453125">
        <ele>828.79998779296875</ele>
        <time>2026-08-21T21:48:58.000Z</time>
        <extensions>
          <ns3:TrackPointExtension>
            <ns3:hr>130</ns3:hr>
            <ns3:cad>54</ns3:cad>
          </ns3:TrackPointExtension>
        </extensions>
      </trkpt>
      <trkpt lat="45.313073135912418365478515625" lon="-71.04171954095363616943359375">
        <ele>828.79998779296875</ele>
        <time>2026-08-21T21:48:59.000Z</time>
        <extensions>
          <ns3:TrackPointExtension>
            <ns3:hr>130</ns3:hr>
            <ns3:cad>55</ns3:cad>
          </ns3:TrackPointExtension>
        </extensions>
      </trkpt>
      <trkpt lat="45.31306768767535686492919921875" lon="-71.04173605330288410186767578125">
        <ele>828.79998779296875</ele>
        <time>2026-08-21T21:49:00.000Z</time>
        <extensions>
          <ns3:TrackPointExtension>
            <ns3:hr>130</ns3:hr>
            <ns3:cad>55</ns3:cad>
          </ns3:TrackPointExtension>
        </extensions>
      </trkpt>
      <trkpt lat="45.31306316144764423370361328125" lon="-71.04175181128084659576416015625">
        <ele>828.79998779296875</ele>
        <time>2026-08-21T21:49:01.000Z</time>
        <extensions>
          <ns3:TrackPointExtension>
            <ns3:hr>130</ns3:hr>
            <ns3:cad>55</ns3:cad>
          </ns3:TrackPointExtension>
        </extensions>
      </trkpt>
      <trkpt lat="45.3130551986396312713623046875" lon="-71.04176807217299938201904296875">
        <ele>828.79998779296875</ele>
        <time>2026-08-21T21:49:02.000Z</time>
        <extensions>
          <ns3:TrackPointExtension>
            <ns3:hr>130</ns3:hr>
            <ns3:cad>55</ns3:cad>
          </ns3:TrackPointExtension>
        </extensions>
      </trkpt>
      <trkpt lat="45.31304623000323772430419921875" lon="-71.04178517125546932220458984375">
        <ele>828.79998779296875</ele>
        <time>2026-08-21T21:49:03.000Z</time>
        <extensions>
          <ns3:TrackPointExtension>
            <ns3:hr>129</ns3:hr>
            <ns3:cad>55</ns3:cad>
          </ns3:TrackPointExtension>
        </extensions>
      </trkpt>
      <trkpt lat="45.31304128468036651611328125" lon="-71.04180797003209590911865234375">
        <ele>828.79998779296875</ele>
        <time>2026-08-21T21:49:04.000Z</time>
        <extensions>
          <ns3:TrackPointExtension>
            <ns3:hr>129</ns3:hr>
            <ns3:cad>55</ns3:cad>
          </ns3:TrackPointExtension>
        </extensions>
      </trkpt>
      <trkpt lat="45.31303734518587589263916015625" lon="-71.0418261587619781494140625">
        <ele>828.79998779296875</ele>
        <time>2026-08-21T21:49:05.000Z</time>
        <extensions>
          <ns3:TrackPointExtension>
            <ns3:hr>129</ns3:hr>
            <ns3:cad>55</ns3:cad>
          </ns3:TrackPointExtension>
        </extensions>
      </trkpt>
      <trkpt lat="45.3130310587584972381591796875" lon="-71.04184250347316265106201171875">
        <ele>828.79998779296875</ele>
        <time>2026-08-21T21:49:06.000Z</time>
        <extensions>
          <ns3:TrackPointExtension>
            <ns3:hr>128</ns3:hr>
            <ns3:cad>55</ns3:cad>
          </ns3:TrackPointExtension>
        </extensions>
      </trkpt>
      <trkpt lat="45.3130277059972286224365234375" lon="-71.04185792617499828338623046875">
        <ele>828.79998779296875</ele>
        <time>2026-08-21T21:49:07.000Z</time>
        <extensions>
          <ns3:TrackPointExtension>
            <ns3:hr>128</ns3:hr>
            <ns3:cad>55</ns3:cad>
          </ns3:TrackPointExtension>
        </extensions>
      </trkpt>
      <trkpt lat="45.3130277059972286224365234375" lon="-71.04187737219035625457763671875">
        <ele>829</ele>
        <time>2026-08-21T21:49:08.000Z</time>
        <extensions>
          <ns3:TrackPointExtension>
            <ns3:hr>128</ns3:hr>
            <ns3:cad>0</ns3:cad>
          </ns3:TrackPointExtension>
        </extensions>
      </trkpt>
      <trkpt lat="45.31302795745432376861572265625" lon="-71.04189765639603137969970703125">
        <ele>829</ele>
        <time>2026-08-21T21:49:09.000Z</time>
        <extensions>
          <ns3:TrackPointExtension>
            <ns3:hr>128</ns3:hr>
            <ns3:cad>0</ns3:cad>
          </ns3:TrackPointExtension>
        </extensions>
      </trkpt>
      <trkpt lat="45.31302058137953281402587890625" lon="-71.04190872050821781158447265625">
        <ele>829.20001220703125</ele>
        <time>2026-08-21T21:49:10.000Z</time>
        <extensions>
          <ns3:TrackPointExtension>
            <ns3:hr>128</ns3:hr>
            <ns3:cad>56</ns3:cad>
          </ns3:TrackPointExtension>
        </extensions>
      </trkpt>
      <trkpt lat="45.3130139596760272979736328125" lon="-71.04192045517265796661376953125">
        <ele>829.20001220703125</ele>
        <time>2026-08-21T21:49:11.000Z</time>
        <extensions>
          <ns3:TrackPointExtension>
            <ns3:hr>128</ns3:hr>
            <ns3:cad>59</ns3:cad>
          </ns3:TrackPointExtension>
        </extensions>
      </trkpt>
      <trkpt lat="45.31300515867769718170166015625" lon="-71.04194090701639652252197265625">
        <ele>829.20001220703125</ele>
        <time>2026-08-21T21:49:12.000Z</time>
        <extensions>
          <ns3:TrackPointExtension>
            <ns3:hr>128</ns3:hr>
            <ns3:cad>59</ns3:cad>
          </ns3:TrackPointExtension>
        </extensions>
      </trkpt>
      <trkpt lat="45.3130012191832065582275390625" lon="-71.0419540666043758392333984375">
        <ele>829</ele>
        <time>2026-08-21T21:49:13.000Z</time>
        <extensions>
          <ns3:TrackPointExtension>
            <ns3:hr>128</ns3:hr>
            <ns3:cad>55</ns3:cad>
          </ns3:TrackPointExtension>
        </extensions>
      </trkpt>
      <trkpt lat="45.3129951842129230499267578125" lon="-71.04197837412357330322265625">
        <ele>829</ele>
        <time>2026-08-21T21:49:14.000Z</time>
        <extensions>
          <ns3:TrackPointExtension>
            <ns3:hr>128</ns3:hr>
            <ns3:cad>55</ns3:cad>
          </ns3:TrackPointExtension>
        </extensions>
      </trkpt>
      <trkpt lat="45.31298722140491008758544921875" lon="-71.04199538938701152801513671875">
        <ele>829</ele>
        <time>2026-08-21T21:49:15.000Z</time>
        <extensions>
          <ns3:TrackPointExtension>
            <ns3:hr>127</ns3:hr>
            <ns3:cad>60</ns3:cad>
          </ns3:TrackPointExtension>
        </extensions>
      </trkpt>
      <trkpt lat="45.31298638321459293365478515625" lon="-71.04202556423842906951904296875">
        <ele>828.79998779296875</ele>
        <time>2026-08-21T21:49:16.000Z</time>
        <extensions>
          <ns3:TrackPointExtension>
            <ns3:hr>128</ns3:hr>
            <ns3:cad>60</ns3:cad>
          </ns3:TrackPointExtension>
        </extensions>
      </trkpt>
      <trkpt lat="45.31298571266233921051025390625" lon="-71.04204249568283557891845703125">
        <ele>828.79998779296875</ele>
        <time>2026-08-21T21:49:17.000Z</time>
        <extensions>
          <ns3:TrackPointExtension>
            <ns3:hr>128</ns3:hr>
            <ns3:cad>60</ns3:cad>
          </ns3:TrackPointExtension>
        </extensions>
      </trkpt>
      <trkpt lat="45.31297951005399227142333984375" lon="-71.042064540088176727294921875">
        <ele>828.79998779296875</ele>
        <time>2026-08-21T21:49:18.000Z</time>
        <extensions>
          <ns3:TrackPointExtension>
            <ns3:hr>128</ns3:hr>
            <ns3:cad>50</ns3:cad>
          </ns3:TrackPointExtension>
        </extensions>
      </trkpt>
      <trkpt lat="45.3129804320633411407470703125" lon="-71.04208272881805896759033203125">
        <ele>828.79998779296875</ele>
        <time>2026-08-21T21:49:19.000Z</time>
        <extensions>
          <ns3:TrackPointExtension>
            <ns3:hr>127</ns3:hr>
            <ns3:cad>50</ns3:cad>
          </ns3:TrackPointExtension>
        </extensions>
      </trkpt>
      <trkpt lat="45.31297414563596248626708984375" lon="-71.04208960197865962982177734375">
        <ele>828.79998779296875</ele>
        <time>2026-08-21T21:49:20.000Z</time>
        <extensions>
          <ns3:TrackPointExtension>
            <ns3:hr>127</ns3:hr>
            <ns3:cad>50</ns3:cad>
          </ns3:TrackPointExtension>
        </extensions>
      </trkpt>
      <trkpt lat="45.31297020614147186279296875" lon="-71.0421049408614635467529296875">
        <ele>828.79998779296875</ele>
        <time>2026-08-21T21:49:21.000Z</time>
        <extensions>
          <ns3:TrackPointExtension>
            <ns3:hr>126</ns3:hr>
            <ns3:cad>50</ns3:cad>
          </ns3:TrackPointExtension>
        </extensions>
      </trkpt>
      <trkpt lat="45.3129641711711883544921875" lon="-71.04211843572556972503662109375">
        <ele>828.79998779296875</ele>
        <time>2026-08-21T21:49:22.000Z</time>
        <extensions>
          <ns3:TrackPointExtension>
            <ns3:hr>125</ns3:hr>
            <ns3:cad>50</ns3:cad>
          </ns3:TrackPointExtension>
        </extensions>
      </trkpt>
      <trkpt lat="45.31295704655349254608154296875" lon="-71.0421270690858364105224609375">
        <ele>828.79998779296875</ele>
        <time>2026-08-21T21:49:23.000Z</time>
        <extensions>
          <ns3:TrackPointExtension>
            <ns3:hr>124</ns3:hr>
            <ns3:cad>50</ns3:cad>
          </ns3:TrackPointExtension>
        </extensions>
      </trkpt>
      <trkpt lat="45.31294933520257472991943359375" lon="-71.04214475490152835845947265625">
        <ele>828.5999755859375</ele>
        <time>2026-08-21T21:49:24.000Z</time>
        <extensions>
          <ns3:TrackPointExtension>
            <ns3:hr>124</ns3:hr>
            <ns3:cad>50</ns3:cad>
          </ns3:TrackPointExtension>
        </extensions>
      </trkpt>
      <trkpt lat="45.31293910928070545196533203125" lon="-71.0421642847359180450439453125">
        <ele>828.4000244140625</ele>
        <time>2026-08-21T21:49:25.000Z</time>
        <extensions>
          <ns3:TrackPointExtension>
            <ns3:hr>124</ns3:hr>
            <ns3:cad>0</ns3:cad>
          </ns3:TrackPointExtension>
        </extensions>
      </trkpt>
      <trkpt lat="45.3129334934055805206298828125" lon="-71.04218222200870513916015625">
        <ele>828.20001220703125</ele>
        <time>2026-08-21T21:49:26.000Z</time>
        <extensions>
          <ns3:TrackPointExtension>
            <ns3:hr>123</ns3:hr>
            <ns3:cad>0</ns3:cad>
          </ns3:TrackPointExtension>
        </extensions>
      </trkpt>
      <trkpt lat="45.312930643558502197265625" lon="-71.04220242239534854888916015625">
        <ele>828</ele>
        <time>2026-08-21T21:49:27.000Z</time>
        <extensions>
          <ns3:TrackPointExtension>
            <ns3:hr>123</ns3:hr>
            <ns3:cad>0</ns3:cad>
          </ns3:TrackPointExtension>
        </extensions>
      </trkpt>
      <trkpt lat="45.31292754225432872772216796875" lon="-71.04221700690686702728271484375">
        <ele>827.79998779296875</ele>
        <time>2026-08-21T21:49:28.000Z</time>
        <extensions>
          <ns3:TrackPointExtension>
            <ns3:hr>122</ns3:hr>
            <ns3:cad>0</ns3:cad>
          </ns3:TrackPointExtension>
        </extensions>
      </trkpt>
      <trkpt lat="45.31292167492210865020751953125" lon="-71.0422365367412567138671875">
        <ele>827.79998779296875</ele>
        <time>2026-08-21T21:49:29.000Z</time>
        <extensions>
          <ns3:TrackPointExtension>
            <ns3:hr>121</ns3:hr>
            <ns3:cad>0</ns3:cad>
          </ns3:TrackPointExtension>
        </extensions>
      </trkpt>
      <trkpt lat="45.31291061080992221832275390625" lon="-71.04225439019501209259033203125">
        <ele>827.79998779296875</ele>
        <time>2026-08-21T21:49:30.000Z</time>
        <extensions>
          <ns3:TrackPointExtension>
            <ns3:hr>121</ns3:hr>
            <ns3:cad>0</ns3:cad>
          </ns3:TrackPointExtension>
        </extensions>
      </trkpt>
      <trkpt lat="45.31289803795516490936279296875" lon="-71.04226930998265743255615234375">
        <ele>827.5999755859375</ele>
        <time>2026-08-21T21:49:31.000Z</time>
        <extensions>
          <ns3:TrackPointExtension>
            <ns3:hr>121</ns3:hr>
            <ns3:cad>0</ns3:cad>
          </ns3:TrackPointExtension>
        </extensions>
      </trkpt>
      <trkpt lat="45.31288705766201019287109375" lon="-71.04228523559868335723876953125">
        <ele>827.5999755859375</ele>
        <time>2026-08-21T21:49:32.000Z</time>
        <extensions>
          <ns3:TrackPointExtension>
            <ns3:hr>122</ns3:hr>
            <ns3:cad>0</ns3:cad>
          </ns3:TrackPointExtension>
        </extensions>
      </trkpt>
      <trkpt lat="45.31288026832044124603271484375" lon="-71.04229864664375782012939453125">
        <ele>827.5999755859375</ele>
        <time>2026-08-21T21:49:33.000Z</time>
        <extensions>
          <ns3:TrackPointExtension>
            <ns3:hr>121</ns3:hr>
            <ns3:cad>0</ns3:cad>
          </ns3:TrackPointExtension>
        </extensions>
      </trkpt>
      <trkpt lat="45.31287691555917263031005859375" lon="-71.04231633245944976806640625">
        <ele>827.5999755859375</ele>
        <time>2026-08-21T21:49:34.000Z</time>
        <extensions>
          <ns3:TrackPointExtension>
            <ns3:hr>121</ns3:hr>
            <ns3:cad>0</ns3:cad>
          </ns3:TrackPointExtension>
        </extensions>
      </trkpt>
      <trkpt lat="45.312884040176868438720703125" lon="-71.04234407655894756317138671875">
        <ele>827.5999755859375</ele>
        <time>2026-08-21T21:49:35.000Z</time>
        <extensions>
          <ns3:TrackPointExtension>
            <ns3:hr>122</ns3:hr>
            <ns3:cad>0</ns3:cad>
          </ns3:TrackPointExtension>
        </extensions>
      </trkpt>
      <trkpt lat="45.31289015896618366241455078125" lon="-71.04236201383173465728759765625">
        <ele>827.5999755859375</ele>
        <time>2026-08-21T21:49:36.000Z</time>
        <extensions>
          <ns3:TrackPointExtension>
            <ns3:hr>121</ns3:hr>
            <ns3:cad>0</ns3:cad>
          </ns3:TrackPointExtension>
        </extensions>
      </trkpt>
      <trkpt lat="45.3128892369568347930908203125" lon="-71.0423748381435871124267578125">
        <ele>827.5999755859375</ele>
        <time>2026-08-21T21:49:37.000Z</time>
        <extensions>
          <ns3:TrackPointExtension>
            <ns3:hr>121</ns3:hr>
            <ns3:cad>0</ns3:cad>
          </ns3:TrackPointExtension>
        </extensions>
      </trkpt>
      <trkpt lat="45.31289066188037395477294921875" lon="-71.0423892550170421600341796875">
        <ele>827.79998779296875</ele>
        <time>2026-08-21T21:49:38.000Z</time>
        <extensions>
          <ns3:TrackPointExtension>
            <ns3:hr>120</ns3:hr>
            <ns3:cad>0</ns3:cad>
          </ns3:TrackPointExtension>
        </extensions>
      </trkpt>
      <trkpt lat="45.3128922544419765472412109375" lon="-71.04239168576896190643310546875">
        <ele>827.79998779296875</ele>
        <time>2026-08-21T21:49:39.000Z</time>
        <extensions>
          <ns3:TrackPointExtension>
            <ns3:hr>119</ns3:hr>
            <ns3:cad>0</ns3:cad>
          </ns3:TrackPointExtension>
        </extensions>
      </trkpt>
      <trkpt lat="45.31288613565266132354736328125" lon="-71.0424073599278926849365234375">
        <ele>828</ele>
        <time>2026-08-21T21:49:40.000Z</time>
        <extensions>
          <ns3:TrackPointExtension>
            <ns3:hr>118</ns3:hr>
            <ns3:cad>0</ns3:cad>
          </ns3:TrackPointExtension>
        </extensions>
      </trkpt>
      <trkpt lat="45.312880687415599822998046875" lon="-71.0424157418310642242431640625">
        <ele>828</ele>
        <time>2026-08-21T21:49:41.000Z</time>
        <extensions>
          <ns3:TrackPointExtension>
            <ns3:hr>117</ns3:hr>
            <ns3:cad>0</ns3:cad>
          </ns3:TrackPointExtension>
        </extensions>
      </trkpt>
      <trkpt lat="45.31287775374948978424072265625" lon="-71.042433343827724456787109375">
        <ele>828.20001220703125</ele>
        <time>2026-08-21T21:49:42.000Z</time>
        <extensions>
          <ns3:TrackPointExtension>
            <ns3:hr>117</ns3:hr>
            <ns3:cad>73</ns3:cad>
          </ns3:TrackPointExtension>
        </extensions>
      </trkpt>
      <trkpt lat="45.31287792138755321502685546875" lon="-71.0424457490444183349609375">
        <ele>828.20001220703125</ele>
        <time>2026-08-21T21:49:43.000Z</time>
        <extensions>
          <ns3:TrackPointExtension>
            <ns3:hr>117</ns3:hr>
            <ns3:cad>73</ns3:cad>
          </ns3:TrackPointExtension>
        </extensions>
      </trkpt>
      <trkpt lat="45.31287708319723606109619140625" lon="-71.0424532927572727203369140625">
        <ele>828.20001220703125</ele>
        <time>2026-08-21T21:49:44.000Z</time>
        <extensions>
          <ns3:TrackPointExtension>
            <ns3:hr>117</ns3:hr>
            <ns3:cad>0</ns3:cad>
          </ns3:TrackPointExtension>
        </extensions>
      </trkpt>
      <trkpt lat="45.3128744848072528839111328125" lon="-71.04246385395526885986328125">
        <ele>828</ele>
        <time>2026-08-21T21:49:45.000Z</time>
        <extensions>
          <ns3:TrackPointExtension>
            <ns3:hr>117</ns3:hr>
            <ns3:cad>0</ns3:cad>
          </ns3:TrackPointExtension>
        </extensions>
      </trkpt>
      <trkpt lat="45.31287574209272861480712890625" lon="-71.04247399605810642242431640625">
        <ele>827.79998779296875</ele>
        <time>2026-08-21T21:49:46.000Z</time>
        <extensions>
          <ns3:TrackPointExtension>
            <ns3:hr>118</ns3:hr>
            <ns3:cad>0</ns3:cad>
          </ns3:TrackPointExtension>
        </extensions>
      </trkpt>
      <trkpt lat="45.31287725083529949188232421875" lon="-71.04247919283807277679443359375">
        <ele>827.5999755859375</ele>
        <time>2026-08-21T21:49:47.000Z</time>
        <extensions>
          <ns3:TrackPointExtension>
            <ns3:hr>118</ns3:hr>
            <ns3:cad>0</ns3:cad>
          </ns3:TrackPointExtension>
        </extensions>
      </trkpt>
      <trkpt lat="45.3128821961581707000732421875" lon="-71.04247592389583587646484375">
        <ele>827.20001220703125</ele>
        <time>2026-08-21T21:49:48.000Z</time>
        <extensions>
          <ns3:TrackPointExtension>
            <ns3:hr>118</ns3:hr>
            <ns3:cad>0</ns3:cad>
          </ns3:TrackPointExtension>
        </extensions>
      </trkpt>
      <trkpt lat="45.31288848258554935455322265625" lon="-71.04248774237930774688720703125">
        <ele>826.79998779296875</ele>
        <time>2026-08-21T21:49:49.000Z</time>
        <extensions>
          <ns3:TrackPointExtension>
            <ns3:hr>118</ns3:hr>
            <ns3:cad>0</ns3:cad>
          </ns3:TrackPointExtension>
        </extensions>
      </trkpt>
      <trkpt lat="45.31289015896618366241455078125" lon="-71.04249394498765468597412109375">
        <ele>826.5999755859375</ele>
        <time>2026-08-21T21:49:50.000Z</time>
        <extensions>
          <ns3:TrackPointExtension>
            <ns3:hr>118</ns3:hr>
            <ns3:cad>0</ns3:cad>
          </ns3:TrackPointExtension>
        </extensions>
      </trkpt>
      <trkpt lat="45.3128962777554988861083984375" lon="-71.04250467382371425628662109375">
        <ele>826.20001220703125</ele>
        <time>2026-08-21T21:49:51.000Z</time>
        <extensions>
          <ns3:TrackPointExtension>
            <ns3:hr>118</ns3:hr>
            <ns3:cad>52</ns3:cad>
          </ns3:TrackPointExtension>
        </extensions>
      </trkpt>
      <trkpt lat="45.31289577484130859375" lon="-71.04251557029783725738525390625">
        <ele>826</ele>
        <time>2026-08-21T21:49:52.000Z</time>
        <extensions>
          <ns3:TrackPointExtension>
            <ns3:hr>117</ns3:hr>
            <ns3:cad>0</ns3:cad>
          </ns3:TrackPointExtension>
        </extensions>
      </trkpt>
      <trkpt lat="45.31289703212678432464599609375" lon="-71.0425267182290554046630859375">
        <ele>825.5999755859375</ele>
        <time>2026-08-21T21:49:53.000Z</time>
        <extensions>
          <ns3:TrackPointExtension>
            <ns3:hr>118</ns3:hr>
            <ns3:cad>0</ns3:cad>
          </ns3:TrackPointExtension>
        </extensions>
      </trkpt>
      <trkpt lat="45.3128979541361331939697265625" lon="-71.042535603046417236328125">
        <ele>825.4000244140625</ele>
        <time>2026-08-21T21:49:54.000Z</time>
        <extensions>
          <ns3:TrackPointExtension>
            <ns3:hr>118</ns3:hr>
            <ns3:cad>0</ns3:cad>
          </ns3:TrackPointExtension>
        </extensions>
      </trkpt>
      <trkpt lat="45.3129024803638458251953125" lon="-71.04254960082471370697021484375">
        <ele>825.20001220703125</ele>
        <time>2026-08-21T21:49:55.000Z</time>
        <extensions>
          <ns3:TrackPointExtension>
            <ns3:hr>119</ns3:hr>
            <ns3:cad>0</ns3:cad>
          </ns3:TrackPointExtension>
        </extensions>
      </trkpt>
      <trkpt lat="45.31290792860090732574462890625" lon="-71.04255999438464641571044921875">
        <ele>825</ele>
        <time>2026-08-21T21:49:56.000Z</time>
        <extensions>
          <ns3:TrackPointExtension>
            <ns3:hr>118</ns3:hr>
            <ns3:cad>51</ns3:cad>
          </ns3:TrackPointExtension>
        </extensions>
      </trkpt>
      <trkpt lat="45.31290675513446331024169921875" lon="-71.04257223196327686309814453125">
        <ele>824.79998779296875</ele>
        <time>2026-08-21T21:49:57.000Z</time>
        <extensions>
          <ns3:TrackPointExtension>
            <ns3:hr>118</ns3:hr>
            <ns3:cad>50</ns3:cad>
          </ns3:TrackPointExtension>
        </extensions>
      </trkpt>
      <trkpt lat="45.312906838953495025634765625" lon="-71.04259192943572998046875">
        <ele>824.5999755859375</ele>
        <time>2026-08-21T21:49:58.000Z</time>
        <extensions>
          <ns3:TrackPointExtension>
            <ns3:hr>120</ns3:hr>
            <ns3:cad>50</ns3:cad>
          </ns3:TrackPointExtension>
        </extensions>
      </trkpt>
      <trkpt lat="45.31290180981159210205078125" lon="-71.04261363856494426727294921875">
        <ele>824.5999755859375</ele>
        <time>2026-08-21T21:49:59.000Z</time>
        <extensions>
          <ns3:TrackPointExtension>
            <ns3:hr>121</ns3:hr>
            <ns3:cad>53</ns3:cad>
          </ns3:TrackPointExtension>
        </extensions>
      </trkpt>
      <trkpt lat="45.31290189363062381744384765625" lon="-71.04262746870517730712890625">
        <ele>824.4000244140625</ele>
        <time>2026-08-21T21:50:00.000Z</time>
        <extensions>
          <ns3:TrackPointExtension>
            <ns3:hr>121</ns3:hr>
            <ns3:cad>53</ns3:cad>
          </ns3:TrackPointExtension>
        </extensions>
      </trkpt>
      <trkpt lat="45.31291245482861995697021484375" lon="-71.042644567787647247314453125">
        <ele>824.4000244140625</ele>
        <time>2026-08-21T21:50:01.000Z</time>
        <extensions>
          <ns3:TrackPointExtension>
            <ns3:hr>121</ns3:hr>
            <ns3:cad>53</ns3:cad>
          </ns3:TrackPointExtension>
        </extensions>
      </trkpt>
      <trkpt lat="45.31292234547436237335205078125" lon="-71.04266342706978321075439453125">
        <ele>824.4000244140625</ele>
        <time>2026-08-21T21:50:02.000Z</time>
        <extensions>
          <ns3:TrackPointExtension>
            <ns3:hr>121</ns3:hr>
            <ns3:cad>53</ns3:cad>
          </ns3:TrackPointExtension>
        </extensions>
      </trkpt>
      <trkpt lat="45.31293340958654880523681640625" lon="-71.04267901740968227386474609375">
        <ele>824.20001220703125</ele>
        <time>2026-08-21T21:50:03.000Z</time>
        <extensions>
          <ns3:TrackPointExtension>
            <ns3:hr>120</ns3:hr>
            <ns3:cad>0</ns3:cad>
          </ns3:TrackPointExtension>
        </extensions>
      </trkpt>
      <trkpt lat="45.312947742640972137451171875" lon="-71.04270466603338718414306640625">
        <ele>824.20001220703125</ele>
        <time>2026-08-21T21:50:04.000Z</time>
        <extensions>
          <ns3:TrackPointExtension>
            <ns3:hr>120</ns3:hr>
            <ns3:cad>0</ns3:cad>
          </ns3:TrackPointExtension>
        </extensions>
      </trkpt>
      <trkpt lat="45.312955789268016815185546875" lon="-71.04271455667912960052490234375">
        <ele>824</ele>
        <time>2026-08-21T21:50:05.000Z</time>
        <extensions>
          <ns3:TrackPointExtension>
            <ns3:hr>120</ns3:hr>
            <ns3:cad>0</ns3:cad>
          </ns3:TrackPointExtension>
        </extensions>
      </trkpt>
      <trkpt lat="45.31296744011342525482177734375" lon="-71.0427178256213665008544921875">
        <ele>823.5999755859375</ele>
        <time>2026-08-21T21:50:06.000Z</time>
        <extensions>
          <ns3:TrackPointExtension>
            <ns3:hr>120</ns3:hr>
            <ns3:cad>0</ns3:cad>
          </ns3:TrackPointExtension>
        </extensions>
      </trkpt>
      <trkpt lat="45.31298085115849971771240234375" lon="-71.04272495023906230926513671875">
        <ele>823.5999755859375</ele>
        <time>2026-08-21T21:50:07.000Z</time>
        <extensions>
          <ns3:TrackPointExtension>
            <ns3:hr>121</ns3:hr>
            <ns3:cad>0</ns3:cad>
          </ns3:TrackPointExtension>
        </extensions>
      </trkpt>
      <trkpt lat="45.3129941783845424652099609375" lon="-71.0427288897335529327392578125">
        <ele>823.4000244140625</ele>
        <time>2026-08-21T21:50:08.000Z</time>
        <extensions>
          <ns3:TrackPointExtension>
            <ns3:hr>120</ns3:hr>
            <ns3:cad>0</ns3:cad>
          </ns3:TrackPointExtension>
        </extensions>
      </trkpt>
      <trkpt lat="45.3130173124372959136962890625" lon="-71.0427332483232021331787109375">
        <ele>823.20001220703125</ele>
        <time>2026-08-21T21:50:09.000Z</time>
        <extensions>
          <ns3:TrackPointExtension>
            <ns3:hr>120</ns3:hr>
            <ns3:cad>0</ns3:cad>
          </ns3:TrackPointExtension>
        </extensions>
      </trkpt>
      <trkpt lat="45.31303457915782928466796875" lon="-71.042739115655422210693359375">
        <ele>823</ele>
        <time>2026-08-21T21:50:10.000Z</time>
        <extensions>
          <ns3:TrackPointExtension>
            <ns3:hr>121</ns3:hr>
            <ns3:cad>0</ns3:cad>
          </ns3:TrackPointExtension>
        </extensions>
      </trkpt>
      <trkpt lat="45.3130538575351238250732421875" lon="-71.04273048229515552520751953125">
        <ele>822.5999755859375</ele>
        <time>2026-08-21T21:50:11.000Z</time>
        <extensions>
          <ns3:TrackPointExtension>
            <ns3:hr>121</ns3:hr>
            <ns3:cad>0</ns3:cad>
          </ns3:TrackPointExtension>
        </extensions>
      </trkpt>
      <trkpt lat="45.313064418733119964599609375" lon="-71.04272746481001377105712890625">
        <ele>822.4000244140625</ele>
        <time>2026-08-21T21:50:12.000Z</time>
        <extensions>
          <ns3:TrackPointExtension>
            <ns3:hr>121</ns3:hr>
            <ns3:cad>0</ns3:cad>
          </ns3:TrackPointExtension>
        </extensions>
      </trkpt>
      <trkpt lat="45.31307347118854522705078125" lon="-71.0427345894277095794677734375">
        <ele>822.20001220703125</ele>
        <time>2026-08-21T21:50:13.000Z</time>
        <extensions>
          <ns3:TrackPointExtension>
            <ns3:hr>121</ns3:hr>
            <ns3:cad>66</ns3:cad>
          </ns3:TrackPointExtension>
        </extensions>
      </trkpt>
      <trkpt lat="45.31308713369071483612060546875" lon="-71.04274548590183258056640625">
        <ele>822</ele>
        <time>2026-08-21T21:50:14.000Z</time>
        <extensions>
          <ns3:TrackPointExtension>
            <ns3:hr>120</ns3:hr>
            <ns3:cad>66</ns3:cad>
          </ns3:TrackPointExtension>
        </extensions>
      </trkpt>
      <trkpt lat="45.31310205347836017608642578125" lon="-71.04274992831051349639892578125">
        <ele>822</ele>
        <time>2026-08-21T21:50:15.000Z</time>
        <extensions>
          <ns3:TrackPointExtension>
            <ns3:hr>120</ns3:hr>
            <ns3:cad>66</ns3:cad>
          </ns3:TrackPointExtension>
        </extensions>
      </trkpt>
      <trkpt lat="45.31311512924730777740478515625" lon="-71.04275093413889408111572265625">
        <ele>822</ele>
        <time>2026-08-21T21:50:16.000Z</time>
        <extensions>
          <ns3:TrackPointExtension>
            <ns3:hr>120</ns3:hr>
            <ns3:cad>66</ns3:cad>
          </ns3:TrackPointExtension>
        </extensions>
      </trkpt>
      <trkpt lat="45.31312300823628902435302734375" lon="-71.04275562800467014312744140625">
        <ele>821.79998779296875</ele>
        <time>2026-08-21T21:50:17.000Z</time>
        <extensions>
          <ns3:TrackPointExtension>
            <ns3:hr>119</ns3:hr>
            <ns3:cad>66</ns3:cad>
          </ns3:TrackPointExtension>
        </extensions>
      </trkpt>
      <trkpt lat="45.31312937848269939422607421875" lon="-71.0427617467939853668212890625">
        <ele>821.5999755859375</ele>
        <time>2026-08-21T21:50:18.000Z</time>
        <extensions>
          <ns3:TrackPointExtension>
            <ns3:hr>119</ns3:hr>
            <ns3:cad>66</ns3:cad>
          </ns3:TrackPointExtension>
        </extensions>
      </trkpt>
      <trkpt lat="45.3131411969661712646484375" lon="-71.0427704639732837677001953125">
        <ele>821.4000244140625</ele>
        <time>2026-08-21T21:50:19.000Z</time>
        <extensions>
          <ns3:TrackPointExtension>
            <ns3:hr>119</ns3:hr>
            <ns3:cad>66</ns3:cad>
          </ns3:TrackPointExtension>
        </extensions>
      </trkpt>
      <trkpt lat="45.31315016560256481170654296875" lon="-71.04276820085942745208740234375">
        <ele>821.4000244140625</ele>
        <time>2026-08-21T21:50:20.000Z</time>
        <extensions>
          <ns3:TrackPointExtension>
            <ns3:hr>119</ns3:hr>
            <ns3:cad>0</ns3:cad>
          </ns3:TrackPointExtension>
        </extensions>
      </trkpt>
      <trkpt lat="45.3131571225821971893310546875" lon="-71.04275512509047985076904296875">
        <ele>821.20001220703125</ele>
        <time>2026-08-21T21:50:21.000Z</time>
        <extensions>
          <ns3:TrackPointExtension>
            <ns3:hr>119</ns3:hr>
            <ns3:cad>0</ns3:cad>
          </ns3:TrackPointExtension>
        </extensions>
      </trkpt>
      <trkpt lat="45.31316089443862438201904296875" lon="-71.0427449829876422882080078125">
        <ele>821.20001220703125</ele>
        <time>2026-08-21T21:50:22.000Z</time>
        <extensions>
          <ns3:TrackPointExtension>
            <ns3:hr>119</ns3:hr>
            <ns3:cad>0</ns3:cad>
          </ns3:TrackPointExtension>
        </extensions>
      </trkpt>
      <trkpt lat="45.3131651692092418670654296875" lon="-71.042728722095489501953125">
        <ele>821</ele>
        <time>2026-08-21T21:50:23.000Z</time>
        <extensions>
          <ns3:TrackPointExtension>
            <ns3:hr>118</ns3:hr>
            <ns3:cad>60</ns3:cad>
          </ns3:TrackPointExtension>
        </extensions>
      </trkpt>
      <trkpt lat="45.3131698630750179290771484375" lon="-71.04271690361201763153076171875">
        <ele>821</ele>
        <time>2026-08-21T21:50:24.000Z</time>
        <extensions>
          <ns3:TrackPointExtension>
            <ns3:hr>119</ns3:hr>
            <ns3:cad>60</ns3:cad>
          </ns3:TrackPointExtension>
        </extensions>
      </trkpt>
      <trkpt lat="45.31317313201725482940673828125" lon="-71.042701900005340576171875">
        <ele>821</ele>
        <time>2026-08-21T21:50:25.000Z</time>
        <extensions>
          <ns3:TrackPointExtension>
            <ns3:hr>119</ns3:hr>
            <ns3:cad>60</ns3:cad>
          </ns3:TrackPointExtension>
        </extensions>
      </trkpt>
      <trkpt lat="45.3131789155304431915283203125" lon="-71.04268186725676059722900390625">
        <ele>821</ele>
        <time>2026-08-21T21:50:26.000Z</time>
        <extensions>
          <ns3:TrackPointExtension>
            <ns3:hr>118</ns3:hr>
            <ns3:cad>60</ns3:cad>
          </ns3:TrackPointExtension>
        </extensions>
      </trkpt>
      <trkpt lat="45.31319073401391506195068359375" lon="-71.0426645167171955108642578125">
        <ele>821</ele>
        <time>2026-08-21T21:50:27.000Z</time>
        <extensions>
          <ns3:TrackPointExtension>
            <ns3:hr>118</ns3:hr>
            <ns3:cad>60</ns3:cad>
          </ns3:TrackPointExtension>
        </extensions>
      </trkpt>
      <trkpt lat="45.31319827772676944732666015625" lon="-71.04264498688280582427978515625">
        <ele>820.79998779296875</ele>
        <time>2026-08-21T21:50:28.000Z</time>
        <extensions>
          <ns3:TrackPointExtension>
            <ns3:hr>118</ns3:hr>
            <ns3:cad>60</ns3:cad>
          </ns3:TrackPointExtension>
        </extensions>
      </trkpt>
      <trkpt lat="45.3132060728967189788818359375" lon="-71.042633838951587677001953125">
        <ele>820.79998779296875</ele>
        <time>2026-08-21T21:50:29.000Z</time>
        <extensions>
          <ns3:TrackPointExtension>
            <ns3:hr>118</ns3:hr>
            <ns3:cad>60</ns3:cad>
          </ns3:TrackPointExtension>
        </extensions>
      </trkpt>
      <trkpt lat="45.31321906484663486480712890625" lon="-71.04262034408748149871826171875">
        <ele>820.5999755859375</ele>
        <time>2026-08-21T21:50:30.000Z</time>
        <extensions>
          <ns3:TrackPointExtension>
            <ns3:hr>118</ns3:hr>
            <ns3:cad>60</ns3:cad>
          </ns3:TrackPointExtension>
        </extensions>
      </trkpt>
      <trkpt lat="45.31323465518653392791748046875" lon="-71.0426162369549274444580078125">
        <ele>820.4000244140625</ele>
        <time>2026-08-21T21:50:31.000Z</time>
        <extensions>
          <ns3:TrackPointExtension>
            <ns3:hr>118</ns3:hr>
            <ns3:cad>60</ns3:cad>
          </ns3:TrackPointExtension>
        </extensions>
      </trkpt>
      <trkpt lat="45.31324471347033977508544921875" lon="-71.04262017644941806793212890625">
        <ele>820.20001220703125</ele>
        <time>2026-08-21T21:50:32.000Z</time>
        <extensions>
          <ns3:TrackPointExtension>
            <ns3:hr>118</ns3:hr>
            <ns3:cad>68</ns3:cad>
          </ns3:TrackPointExtension>
        </extensions>
      </trkpt>
      <trkpt lat="45.313258208334445953369140625" lon="-71.0426273010671138763427734375">
        <ele>820</ele>
        <time>2026-08-21T21:50:33.000Z</time>
        <extensions>
          <ns3:TrackPointExtension>
            <ns3:hr>117</ns3:hr>
            <ns3:cad>68</ns3:cad>
          </ns3:TrackPointExtension>
        </extensions>
      </trkpt>
      <trkpt lat="45.31327220611274242401123046875" lon="-71.04263593442738056182861328125">
        <ele>819.5999755859375</ele>
        <time>2026-08-21T21:50:34.000Z</time>
        <extensions>
          <ns3:TrackPointExtension>
            <ns3:hr>117</ns3:hr>
            <ns3:cad>68</ns3:cad>
          </ns3:TrackPointExtension>
        </extensions>
      </trkpt>
      <trkpt lat="45.31328394077718257904052734375" lon="-71.04264632798731327056884765625">
        <ele>819</ele>
        <time>2026-08-21T21:50:35.000Z</time>
        <extensions>
          <ns3:TrackPointExtension>
            <ns3:hr>117</ns3:hr>
            <ns3:cad>68</ns3:cad>
          </ns3:TrackPointExtension>
        </extensions>
      </trkpt>
      <trkpt lat="45.3132955916225910186767578125" lon="-71.04266091249883174896240234375">
        <ele>818.5999755859375</ele>
        <time>2026-08-21T21:50:36.000Z</time>
        <extensions>
          <ns3:TrackPointExtension>
            <ns3:hr>117</ns3:hr>
            <ns3:cad>68</ns3:cad>
          </ns3:TrackPointExtension>
        </extensions>
      </trkpt>
      <trkpt lat="45.3133086673915386199951171875" lon="-71.04267197661101818084716796875">
        <ele>818.20001220703125</ele>
        <time>2026-08-21T21:50:37.000Z</time>
        <extensions>
          <ns3:TrackPointExtension>
            <ns3:hr>118</ns3:hr>
            <ns3:cad>0</ns3:cad>
          </ns3:TrackPointExtension>
        </extensions>
      </trkpt>
      <trkpt lat="45.313322246074676513671875" lon="-71.0426836274564266204833984375">
        <ele>817.5999755859375</ele>
        <time>2026-08-21T21:50:38.000Z</time>
        <extensions>
          <ns3:TrackPointExtension>
            <ns3:hr>118</ns3:hr>
            <ns3:cad>0</ns3:cad>
          </ns3:TrackPointExtension>
        </extensions>
      </trkpt>
      <trkpt lat="45.31333557330071926116943359375" lon="-71.0426977090537548065185546875">
        <ele>817.20001220703125</ele>
        <time>2026-08-21T21:50:39.000Z</time>
        <extensions>
          <ns3:TrackPointExtension>
            <ns3:hr>118</ns3:hr>
            <ns3:cad>0</ns3:cad>
          </ns3:TrackPointExtension>
        </extensions>
      </trkpt>
      <trkpt lat="45.3133442066609859466552734375" lon="-71.04271623305976390838623046875">
        <ele>816.79998779296875</ele>
        <time>2026-08-21T21:50:40.000Z</time>
        <extensions>
          <ns3:TrackPointExtension>
            <ns3:hr>118</ns3:hr>
            <ns3:cad>0</ns3:cad>
          </ns3:TrackPointExtension>
        </extensions>
      </trkpt>
      <trkpt lat="45.31335183419287204742431640625" lon="-71.04273735545575618743896484375">
        <ele>816.4000244140625</ele>
        <time>2026-08-21T21:50:41.000Z</time>
        <extensions>
          <ns3:TrackPointExtension>
            <ns3:hr>118</ns3:hr>
            <ns3:cad>0</ns3:cad>
          </ns3:TrackPointExtension>
        </extensions>
      </trkpt>
      <trkpt lat="45.3133611381053924560546875" lon="-71.04275378398597240447998046875">
        <ele>816</ele>
        <time>2026-08-21T21:50:42.000Z</time>
        <extensions>
          <ns3:TrackPointExtension>
            <ns3:hr>118</ns3:hr>
            <ns3:cad>0</ns3:cad>
          </ns3:TrackPointExtension>
        </extensions>
      </trkpt>
      <trkpt lat="45.3133639879524707794189453125" lon="-71.0427702963352203369140625">
        <ele>815.5999755859375</ele>
        <time>2026-08-21T21:50:43.000Z</time>
        <extensions>
          <ns3:TrackPointExtension>
            <ns3:hr>119</ns3:hr>
            <ns3:cad>0</ns3:cad>
          </ns3:TrackPointExtension>
        </extensions>
      </trkpt>
      <trkpt lat="45.31336708925664424896240234375" lon="-71.042795442044734954833984375">
        <ele>815.4000244140625</ele>
        <time>2026-08-21T21:50:44.000Z</time>
        <extensions>
          <ns3:TrackPointExtension>
            <ns3:hr>120</ns3:hr>
            <ns3:cad>75</ns3:cad>
          </ns3:TrackPointExtension>
        </extensions>
      </trkpt>
      <trkpt lat="45.3133700229227542877197265625" lon="-71.0428133793175220489501953125">
        <ele>815.20001220703125</ele>
        <time>2026-08-21T21:50:45.000Z</time>
        <extensions>
          <ns3:TrackPointExtension>
            <ns3:hr>120</ns3:hr>
            <ns3:cad>75</ns3:cad>
          </ns3:TrackPointExtension>
        </extensions>
      </trkpt>
      <trkpt lat="45.3133716993033885955810546875" lon="-71.0428301431238651275634765625">
        <ele>815</ele>
        <time>2026-08-21T21:50:46.000Z</time>
        <extensions>
          <ns3:TrackPointExtension>
            <ns3:hr>121</ns3:hr>
            <ns3:cad>75</ns3:cad>
          </ns3:TrackPointExtension>
        </extensions>
      </trkpt>
      <trkpt lat="45.313371531665325164794921875" lon="-71.04283341206610202789306640625">
        <ele>814.79998779296875</ele>
        <time>2026-08-21T21:50:47.000Z</time>
        <extensions>
          <ns3:TrackPointExtension>
            <ns3:hr>121</ns3:hr>
            <ns3:cad>75</ns3:cad>
          </ns3:TrackPointExtension>
        </extensions>
      </trkpt>
      <trkpt lat="45.31336708925664424896240234375" lon="-71.04285034351050853729248046875">
        <ele>814.5999755859375</ele>
        <time>2026-08-21T21:50:48.000Z</time>
        <extensions>
          <ns3:TrackPointExtension>
            <ns3:hr>122</ns3:hr>
            <ns3:cad>75</ns3:cad>
          </ns3:TrackPointExtension>
        </extensions>
      </trkpt>
      <trkpt lat="45.3133616410195827484130859375" lon="-71.042877249419689178466796875">
        <ele>814.5999755859375</ele>
        <time>2026-08-21T21:50:49.000Z</time>
        <extensions>
          <ns3:TrackPointExtension>
            <ns3:hr>122</ns3:hr>
            <ns3:cad>0</ns3:cad>
          </ns3:TrackPointExtension>
        </extensions>
      </trkpt>
      <trkpt lat="45.31335753388702869415283203125" lon="-71.04289443232119083404541015625">
        <ele>814.4000244140625</ele>
        <time>2026-08-21T21:50:50.000Z</time>
        <extensions>
          <ns3:TrackPointExtension>
            <ns3:hr>122</ns3:hr>
            <ns3:cad>0</ns3:cad>
          </ns3:TrackPointExtension>
        </extensions>
      </trkpt>
      <trkpt lat="45.3133602999150753021240234375" lon="-71.04291169904172420501708984375">
        <ele>814</ele>
        <time>2026-08-21T21:50:51.000Z</time>
        <extensions>
          <ns3:TrackPointExtension>
            <ns3:hr>122</ns3:hr>
            <ns3:cad>0</ns3:cad>
          </ns3:TrackPointExtension>
        </extensions>
      </trkpt>
      <trkpt lat="45.3133611381053924560546875" lon="-71.04293164797127246856689453125">
        <ele>813.5999755859375</ele>
        <time>2026-08-21T21:50:52.000Z</time>
        <extensions>
          <ns3:TrackPointExtension>
            <ns3:hr>121</ns3:hr>
            <ns3:cad>0</ns3:cad>
          </ns3:TrackPointExtension>
        </extensions>
      </trkpt>
      <trkpt lat="45.3133623115718364715576171875" lon="-71.0429555363953113555908203125">
        <ele>813.20001220703125</ele>
        <time>2026-08-21T21:50:53.000Z</time>
        <extensions>
          <ns3:TrackPointExtension>
            <ns3:hr>121</ns3:hr>
            <ns3:cad>0</ns3:cad>
          </ns3:TrackPointExtension>
        </extensions>
      </trkpt>
      <trkpt lat="45.313363485038280487060546875" lon="-71.0429783351719379425048828125">
        <ele>812.5999755859375</ele>
        <time>2026-08-21T21:50:54.000Z</time>
        <extensions>
          <ns3:TrackPointExtension>
            <ns3:hr>120</ns3:hr>
            <ns3:cad>73</ns3:cad>
          </ns3:TrackPointExtension>
        </extensions>
      </trkpt>
      <trkpt lat="45.31336717307567596435546875" lon="-71.04300356470048427581787109375">
        <ele>812.20001220703125</ele>
        <time>2026-08-21T21:50:55.000Z</time>
        <extensions>
          <ns3:TrackPointExtension>
            <ns3:hr>119</ns3:hr>
            <ns3:cad>73</ns3:cad>
          </ns3:TrackPointExtension>
        </extensions>
      </trkpt>
      <trkpt lat="45.313375554978847503662109375" lon="-71.0430304706096649169921875">
        <ele>811.79998779296875</ele>
        <time>2026-08-21T21:50:56.000Z</time>
        <extensions>
          <ns3:TrackPointExtension>
            <ns3:hr>118</ns3:hr>
            <ns3:cad>73</ns3:cad>
          </ns3:TrackPointExtension>
        </extensions>
      </trkpt>
      <trkpt lat="45.3133861161768436431884765625" lon="-71.04305402375757694244384765625">
        <ele>811.4000244140625</ele>
        <time>2026-08-21T21:50:57.000Z</time>
        <extensions>
          <ns3:TrackPointExtension>
            <ns3:hr>118</ns3:hr>
            <ns3:cad>73</ns3:cad>
          </ns3:TrackPointExtension>
        </extensions>
      </trkpt>
      <trkpt lat="45.31339072622358798980712890625" lon="-71.0430846177041530609130859375">
        <ele>811</ele>
        <time>2026-08-21T21:50:58.000Z</time>
        <extensions>
          <ns3:TrackPointExtension>
            <ns3:hr>118</ns3:hr>
            <ns3:cad>73</ns3:cad>
          </ns3:TrackPointExtension>
        </extensions>
      </trkpt>
      <trkpt lat="45.313393659889698028564453125" lon="-71.0431074164807796478271484375">
        <ele>810.79998779296875</ele>
        <time>2026-08-21T21:50:59.000Z</time>
        <extensions>
          <ns3:TrackPointExtension>
            <ns3:hr>117</ns3:hr>
            <ns3:cad>73</ns3:cad>
          </ns3:TrackPointExtension>
        </extensions>
      </trkpt>
      <trkpt lat="45.3133968450129032135009765625" lon="-71.0431270301342010498046875">
        <ele>810.5999755859375</ele>
        <time>2026-08-21T21:51:00.000Z</time>
        <extensions>
          <ns3:TrackPointExtension>
            <ns3:hr>118</ns3:hr>
            <ns3:cad>73</ns3:cad>
          </ns3:TrackPointExtension>
        </extensions>
      </trkpt>
      <trkpt lat="45.31340070068836212158203125" lon="-71.0431469790637493133544921875">
        <ele>810.4000244140625</ele>
        <time>2026-08-21T21:51:01.000Z</time>
        <extensions>
          <ns3:TrackPointExtension>
            <ns3:hr>118</ns3:hr>
            <ns3:cad>73</ns3:cad>
          </ns3:TrackPointExtension>
        </extensions>
      </trkpt>
      <trkpt lat="45.31340363435447216033935546875" lon="-71.043168939650058746337890625">
        <ele>810</ele>
        <time>2026-08-21T21:51:02.000Z</time>
        <extensions>
          <ns3:TrackPointExtension>
            <ns3:hr>119</ns3:hr>
            <ns3:cad>72</ns3:cad>
          </ns3:TrackPointExtension>
        </extensions>
      </trkpt>
      <trkpt lat="45.31340472400188446044921875" lon="-71.04318939149379730224609375">
        <ele>809.79998779296875</ele>
        <time>2026-08-21T21:51:03.000Z</time>
        <extensions>
          <ns3:TrackPointExtension>
            <ns3:hr>119</ns3:hr>
            <ns3:cad>72</ns3:cad>
          </ns3:TrackPointExtension>
        </extensions>
      </trkpt>
      <trkpt lat="45.3134058974683284759521484375" lon="-71.0432088375091552734375">
        <ele>809.5999755859375</ele>
        <time>2026-08-21T21:51:04.000Z</time>
        <extensions>
          <ns3:TrackPointExtension>
            <ns3:hr>120</ns3:hr>
            <ns3:cad>70</ns3:cad>
          </ns3:TrackPointExtension>
        </extensions>
      </trkpt>
      <trkpt lat="45.31340329907834529876708984375" lon="-71.0432277806103229522705078125">
        <ele>809.5999755859375</ele>
        <time>2026-08-21T21:51:05.000Z</time>
        <extensions>
          <ns3:TrackPointExtension>
            <ns3:hr>120</ns3:hr>
            <ns3:cad>70</ns3:cad>
          </ns3:TrackPointExtension>
        </extensions>
      </trkpt>
      <trkpt lat="45.3133986890316009521484375" lon="-71.04324127547442913055419921875">
        <ele>809.4000244140625</ele>
        <time>2026-08-21T21:51:06.000Z</time>
        <extensions>
          <ns3:TrackPointExtension>
            <ns3:hr>121</ns3:hr>
            <ns3:cad>68</ns3:cad>
          </ns3:TrackPointExtension>
        </extensions>
      </trkpt>
      <trkpt lat="45.313399694859981536865234375" lon="-71.04326155968010425567626953125">
        <ele>809.4000244140625</ele>
        <time>2026-08-21T21:51:07.000Z</time>
        <extensions>
          <ns3:TrackPointExtension>
            <ns3:hr>120</ns3:hr>
            <ns3:cad>68</ns3:cad>
          </ns3:TrackPointExtension>
        </extensions>
      </trkpt>
      <trkpt lat="45.31340070068836212158203125" lon="-71.04328016750514507293701171875">
        <ele>809.20001220703125</ele>
        <time>2026-08-21T21:51:08.000Z</time>
        <extensions>
          <ns3:TrackPointExtension>
            <ns3:hr>120</ns3:hr>
            <ns3:cad>68</ns3:cad>
          </ns3:TrackPointExtension>
        </extensions>
      </trkpt>
      <trkpt lat="45.31339810229837894439697265625" lon="-71.0432981885969638824462890625">
        <ele>809</ele>
        <time>2026-08-21T21:51:09.000Z</time>
        <extensions>
          <ns3:TrackPointExtension>
            <ns3:hr>119</ns3:hr>
            <ns3:cad>68</ns3:cad>
          </ns3:TrackPointExtension>
        </extensions>
      </trkpt>
      <trkpt lat="45.313393659889698028564453125" lon="-71.0433126054704189300537109375">
        <ele>809</ele>
        <time>2026-08-21T21:51:10.000Z</time>
        <extensions>
          <ns3:TrackPointExtension>
            <ns3:hr>119</ns3:hr>
            <ns3:cad>68</ns3:cad>
          </ns3:TrackPointExtension>
        </extensions>
      </trkpt>
      <trkpt lat="45.31339466571807861328125" lon="-71.04333230294287204742431640625">
        <ele>808.79998779296875</ele>
        <time>2026-08-21T21:51:11.000Z</time>
        <extensions>
          <ns3:TrackPointExtension>
            <ns3:hr>119</ns3:hr>
            <ns3:cad>68</ns3:cad>
          </ns3:TrackPointExtension>
        </extensions>
      </trkpt>
      <trkpt lat="45.31339676119387149810791015625" lon="-71.0433511622250080108642578125">
        <ele>808.5999755859375</ele>
        <time>2026-08-21T21:51:12.000Z</time>
        <extensions>
          <ns3:TrackPointExtension>
            <ns3:hr>119</ns3:hr>
            <ns3:cad>68</ns3:cad>
          </ns3:TrackPointExtension>
        </extensions>
      </trkpt>
      <trkpt lat="45.31340070068836212158203125" lon="-71.043372116982936859130859375">
        <ele>808.20001220703125</ele>
        <time>2026-08-21T21:51:13.000Z</time>
        <extensions>
          <ns3:TrackPointExtension>
            <ns3:hr>119</ns3:hr>
            <ns3:cad>68</ns3:cad>
          </ns3:TrackPointExtension>
        </extensions>
      </trkpt>
      <trkpt lat="45.3134040534496307373046875" lon="-71.0433960892260074615478515625">
        <ele>808</ele>
        <time>2026-08-21T21:51:14.000Z</time>
        <extensions>
          <ns3:TrackPointExtension>
            <ns3:hr>119</ns3:hr>
            <ns3:cad>68</ns3:cad>
          </ns3:TrackPointExtension>
        </extensions>
      </trkpt>
      <trkpt lat="45.31340070068836212158203125" lon="-71.043426096439361572265625">
        <ele>807.5999755859375</ele>
        <time>2026-08-21T21:51:15.000Z</time>
        <extensions>
          <ns3:TrackPointExtension>
            <ns3:hr>119</ns3:hr>
            <ns3:cad>68</ns3:cad>
          </ns3:TrackPointExtension>
        </extensions>
      </trkpt>
      <trkpt lat="45.313401035964488983154296875" lon="-71.0434463806450366973876953125">
        <ele>807.20001220703125</ele>
        <time>2026-08-21T21:51:16.000Z</time>
        <extensions>
          <ns3:TrackPointExtension>
            <ns3:hr>119</ns3:hr>
            <ns3:cad>68</ns3:cad>
          </ns3:TrackPointExtension>
        </extensions>
      </trkpt>
      <trkpt lat="45.31340396963059902191162109375" lon="-71.0434601269662380218505859375">
        <ele>806.79998779296875</ele>
        <time>2026-08-21T21:51:17.000Z</time>
        <extensions>
          <ns3:TrackPointExtension>
            <ns3:hr>118</ns3:hr>
            <ns3:cad>68</ns3:cad>
          </ns3:TrackPointExtension>
        </extensions>
      </trkpt>
      <trkpt lat="45.3134045563638210296630859375" lon="-71.04347127489745616912841796875">
        <ele>806.4000244140625</ele>
        <time>2026-08-21T21:51:18.000Z</time>
        <extensions>
          <ns3:TrackPointExtension>
            <ns3:hr>118</ns3:hr>
            <ns3:cad>68</ns3:cad>
          </ns3:TrackPointExtension>
        </extensions>
      </trkpt>
      <trkpt lat="45.3134067356586456298828125" lon="-71.04348317719995975494384765625">
        <ele>806</ele>
        <time>2026-08-21T21:51:19.000Z</time>
        <extensions>
          <ns3:TrackPointExtension>
            <ns3:hr>118</ns3:hr>
            <ns3:cad>68</ns3:cad>
          </ns3:TrackPointExtension>
        </extensions>
      </trkpt>
      <trkpt lat="45.3134045563638210296630859375" lon="-71.0435020364820957183837890625">
        <ele>805.79998779296875</ele>
        <time>2026-08-21T21:51:20.000Z</time>
        <extensions>
          <ns3:TrackPointExtension>
            <ns3:hr>118</ns3:hr>
            <ns3:cad>0</ns3:cad>
          </ns3:TrackPointExtension>
        </extensions>
      </trkpt>
      <trkpt lat="45.31340279616415500640869140625" lon="-71.0435199737548828125">
        <ele>805.4000244140625</ele>
        <time>2026-08-21T21:51:21.000Z</time>
        <extensions>
          <ns3:TrackPointExtension>
            <ns3:hr>118</ns3:hr>
            <ns3:cad>0</ns3:cad>
          </ns3:TrackPointExtension>
        </extensions>
      </trkpt>
      <trkpt lat="45.31341101042926311492919921875" lon="-71.0435369051992893218994140625">
        <ele>805</ele>
        <time>2026-08-21T21:51:22.000Z</time>
        <extensions>
          <ns3:TrackPointExtension>
            <ns3:hr>119</ns3:hr>
            <ns3:cad>0</ns3:cad>
          </ns3:TrackPointExtension>
        </extensions>
      </trkpt>
      <trkpt lat="45.3134236671030521392822265625" lon="-71.0435466282069683074951171875">
        <ele>804.79998779296875</ele>
        <time>2026-08-21T21:51:23.000Z</time>
        <extensions>
          <ns3:TrackPointExtension>
            <ns3:hr>119</ns3:hr>
            <ns3:cad>0</ns3:cad>
          </ns3:TrackPointExtension>
        </extensions>
      </trkpt>
      <trkpt lat="45.313437245786190032958984375" lon="-71.04356096126139163970947265625">
        <ele>804.4000244140625</ele>
        <time>2026-08-21T21:51:24.000Z</time>
        <extensions>
          <ns3:TrackPointExtension>
            <ns3:hr>119</ns3:hr>
            <ns3:cad>0</ns3:cad>
          </ns3:TrackPointExtension>
        </extensions>
      </trkpt>
      <trkpt lat="45.3134468011558055877685546875" lon="-71.04357018135488033294677734375">
        <ele>804.20001220703125</ele>
        <time>2026-08-21T21:51:25.000Z</time>
        <extensions>
          <ns3:TrackPointExtension>
            <ns3:hr>119</ns3:hr>
            <ns3:cad>0</ns3:cad>
          </ns3:TrackPointExtension>
        </extensions>
      </trkpt>
      <trkpt lat="45.3134525008499622344970703125" lon="-71.0435771383345127105712890625">
        <ele>804</ele>
        <time>2026-08-21T21:51:26.000Z</time>
        <extensions>
          <ns3:TrackPointExtension>
            <ns3:hr>119</ns3:hr>
            <ns3:cad>0</ns3:cad>
          </ns3:TrackPointExtension>
        </extensions>
      </trkpt>
      <trkpt lat="45.31346130184829235076904296875" lon="-71.043594740331172943115234375">
        <ele>803.79998779296875</ele>
        <time>2026-08-21T21:51:27.000Z</time>
        <extensions>
          <ns3:TrackPointExtension>
            <ns3:hr>119</ns3:hr>
            <ns3:cad>0</ns3:cad>
          </ns3:TrackPointExtension>
        </extensions>
      </trkpt>
      <trkpt lat="45.313467420637607574462890625" lon="-71.04361183941364288330078125">
        <ele>803.4000244140625</ele>
        <time>2026-08-21T21:51:28.000Z</time>
        <extensions>
          <ns3:TrackPointExtension>
            <ns3:hr>119</ns3:hr>
            <ns3:cad>0</ns3:cad>
          </ns3:TrackPointExtension>
        </extensions>
      </trkpt>
      <trkpt lat="45.31347370706498622894287109375" lon="-71.04362634010612964630126953125">
        <ele>803.20001220703125</ele>
        <time>2026-08-21T21:51:29.000Z</time>
        <extensions>
          <ns3:TrackPointExtension>
            <ns3:hr>119</ns3:hr>
            <ns3:cad>0</ns3:cad>
          </ns3:TrackPointExtension>
        </extensions>
      </trkpt>
      <trkpt lat="45.313473455607891082763671875" lon="-71.04363941587507724761962890625">
        <ele>803</ele>
        <time>2026-08-21T21:51:30.000Z</time>
        <extensions>
          <ns3:TrackPointExtension>
            <ns3:hr>120</ns3:hr>
            <ns3:cad>0</ns3:cad>
          </ns3:TrackPointExtension>
        </extensions>
      </trkpt>
      <trkpt lat="45.31346976757049560546875" lon="-71.04366137646138668060302734375">
        <ele>802.79998779296875</ele>
        <time>2026-08-21T21:51:31.000Z</time>
        <extensions>
          <ns3:TrackPointExtension>
            <ns3:hr>120</ns3:hr>
            <ns3:cad>0</ns3:cad>
          </ns3:TrackPointExtension>
        </extensions>
      </trkpt>
      <trkpt lat="45.31347102485597133636474609375" lon="-71.04368551634252071380615234375">
        <ele>802.5999755859375</ele>
        <time>2026-08-21T21:51:32.000Z</time>
        <extensions>
          <ns3:TrackPointExtension>
            <ns3:hr>120</ns3:hr>
            <ns3:cad>0</ns3:cad>
          </ns3:TrackPointExtension>
        </extensions>
      </trkpt>
      <trkpt lat="45.3134773112833499908447265625" lon="-71.0437156073749065399169921875">
        <ele>802.4000244140625</ele>
        <time>2026-08-21T21:51:33.000Z</time>
        <extensions>
          <ns3:TrackPointExtension>
            <ns3:hr>120</ns3:hr>
            <ns3:cad>0</ns3:cad>
          </ns3:TrackPointExtension>
        </extensions>
      </trkpt>
      <trkpt lat="45.3134833462536334991455078125" lon="-71.043744944036006927490234375">
        <ele>802</ele>
        <time>2026-08-21T21:51:34.000Z</time>
        <extensions>
          <ns3:TrackPointExtension>
            <ns3:hr>120</ns3:hr>
            <ns3:cad>0</ns3:cad>
          </ns3:TrackPointExtension>
        </extensions>
      </trkpt>
      <trkpt lat="45.313484854996204376220703125" lon="-71.04375860653817653656005859375">
        <ele>801.79998779296875</ele>
        <time>2026-08-21T21:51:35.000Z</time>
        <extensions>
          <ns3:TrackPointExtension>
            <ns3:hr>120</ns3:hr>
            <ns3:cad>0</ns3:cad>
          </ns3:TrackPointExtension>
        </extensions>
      </trkpt>
      <trkpt lat="45.313483178615570068359375" lon="-71.04378140531480312347412109375">
        <ele>801.4000244140625</ele>
        <time>2026-08-21T21:51:36.000Z</time>
        <extensions>
          <ns3:TrackPointExtension>
            <ns3:hr>120</ns3:hr>
            <ns3:cad>0</ns3:cad>
          </ns3:TrackPointExtension>
        </extensions>
      </trkpt>
      <trkpt lat="45.31348359771072864532470703125" lon="-71.0437930561602115631103515625">
        <ele>800.79998779296875</ele>
        <time>2026-08-21T21:51:37.000Z</time>
        <extensions>
          <ns3:TrackPointExtension>
            <ns3:hr>120</ns3:hr>
            <ns3:cad>0</ns3:cad>
          </ns3:TrackPointExtension>
        </extensions>
      </trkpt>
      <trkpt lat="45.31347923912107944488525390625" lon="-71.04381744749844074249267578125">
        <ele>800.4000244140625</ele>
        <time>2026-08-21T21:51:38.000Z</time>
        <extensions>
          <ns3:TrackPointExtension>
            <ns3:hr>120</ns3:hr>
            <ns3:cad>0</ns3:cad>
          </ns3:TrackPointExtension>
        </extensions>
      </trkpt>
      <trkpt lat="45.31347353942692279815673828125" lon="-71.04384250938892364501953125">
        <ele>799.79998779296875</ele>
        <time>2026-08-21T21:51:39.000Z</time>
        <extensions>
          <ns3:TrackPointExtension>
            <ns3:hr>120</ns3:hr>
            <ns3:cad>0</ns3:cad>
          </ns3:TrackPointExtension>
        </extensions>
      </trkpt>
      <trkpt lat="45.3134719468653202056884765625" lon="-71.04385851882398128509521484375">
        <ele>799.20001220703125</ele>
        <time>2026-08-21T21:51:40.000Z</time>
        <extensions>
          <ns3:TrackPointExtension>
            <ns3:hr>119</ns3:hr>
            <ns3:cad>0</ns3:cad>
          </ns3:TrackPointExtension>
        </extensions>
      </trkpt>
      <trkpt lat="45.31347186304628849029541015625" lon="-71.04387243278324604034423828125">
        <ele>798.79998779296875</ele>
        <time>2026-08-21T21:51:41.000Z</time>
        <extensions>
          <ns3:TrackPointExtension>
            <ns3:hr>120</ns3:hr>
            <ns3:cad>0</ns3:cad>
          </ns3:TrackPointExtension>
        </extensions>
      </trkpt>
      <trkpt lat="45.31347035430371761322021484375" lon="-71.0438886098563671112060546875">
        <ele>798.4000244140625</ele>
        <time>2026-08-21T21:51:42.000Z</time>
        <extensions>
          <ns3:TrackPointExtension>
            <ns3:hr>120</ns3:hr>
            <ns3:cad>0</ns3:cad>
          </ns3:TrackPointExtension>
        </extensions>
      </trkpt>
      <trkpt lat="45.31347001902759075164794921875" lon="-71.04391233064234256744384765625">
        <ele>797.79998779296875</ele>
        <time>2026-08-21T21:51:43.000Z</time>
        <extensions>
          <ns3:TrackPointExtension>
            <ns3:hr>120</ns3:hr>
            <ns3:cad>0</ns3:cad>
          </ns3:TrackPointExtension>
        </extensions>
      </trkpt>
      <trkpt lat="45.313472449779510498046875" lon="-71.043942086398601531982421875">
        <ele>797.20001220703125</ele>
        <time>2026-08-21T21:51:44.000Z</time>
        <extensions>
          <ns3:TrackPointExtension>
            <ns3:hr>120</ns3:hr>
            <ns3:cad>0</ns3:cad>
          </ns3:TrackPointExtension>
        </extensions>
      </trkpt>
      <trkpt lat="45.31347622163593769073486328125" lon="-71.04396530427038669586181640625">
        <ele>796.5999755859375</ele>
        <time>2026-08-21T21:51:45.000Z</time>
        <extensions>
          <ns3:TrackPointExtension>
            <ns3:hr>119</ns3:hr>
            <ns3:cad>0</ns3:cad>
          </ns3:TrackPointExtension>
        </extensions>
      </trkpt>
      <trkpt lat="45.3134845197200775146484375" lon="-71.04400117881596088409423828125">
        <ele>796</ele>
        <time>2026-08-21T21:51:46.000Z</time>
        <extensions>
          <ns3:TrackPointExtension>
            <ns3:hr>120</ns3:hr>
            <ns3:cad>0</ns3:cad>
          </ns3:TrackPointExtension>
        </extensions>
      </trkpt>
      <trkpt lat="45.31349860131740570068359375" lon="-71.0440217144787311553955078125">
        <ele>795.4000244140625</ele>
        <time>2026-08-21T21:51:47.000Z</time>
        <extensions>
          <ns3:TrackPointExtension>
            <ns3:hr>120</ns3:hr>
            <ns3:cad>0</ns3:cad>
          </ns3:TrackPointExtension>
        </extensions>
      </trkpt>
      <trkpt lat="45.3135145269334316253662109375" lon="-71.044041328132152557373046875">
        <ele>795</ele>
        <time>2026-08-21T21:51:48.000Z</time>
        <extensions>
          <ns3:TrackPointExtension>
            <ns3:hr>121</ns3:hr>
            <ns3:cad>0</ns3:cad>
          </ns3:TrackPointExtension>
        </extensions>
      </trkpt>
      <trkpt lat="45.31352542340755462646484375" lon="-71.04404912330210208892822265625">
        <ele>794.79998779296875</ele>
        <time>2026-08-21T21:51:49.000Z</time>
        <extensions>
          <ns3:TrackPointExtension>
            <ns3:hr>121</ns3:hr>
            <ns3:cad>0</ns3:cad>
          </ns3:TrackPointExtension>
        </extensions>
      </trkpt>
      <trkpt lat="45.31354662962257862091064453125" lon="-71.04406136088073253631591796875">
        <ele>794.5999755859375</ele>
        <time>2026-08-21T21:51:50.000Z</time>
        <extensions>
          <ns3:TrackPointExtension>
            <ns3:hr>122</ns3:hr>
            <ns3:cad>0</ns3:cad>
          </ns3:TrackPointExtension>
        </extensions>
      </trkpt>
      <trkpt lat="45.313563309609889984130859375" lon="-71.044072173535823822021484375">
        <ele>794.20001220703125</ele>
        <time>2026-08-21T21:51:51.000Z</time>
        <extensions>
          <ns3:TrackPointExtension>
            <ns3:hr>122</ns3:hr>
            <ns3:cad>0</ns3:cad>
          </ns3:TrackPointExtension>
        </extensions>
      </trkpt>
      <trkpt lat="45.31357881613075733184814453125" lon="-71.044080555438995361328125">
        <ele>794</ele>
        <time>2026-08-21T21:51:52.000Z</time>
        <extensions>
          <ns3:TrackPointExtension>
            <ns3:hr>122</ns3:hr>
            <ns3:cad>66</ns3:cad>
          </ns3:TrackPointExtension>
        </extensions>
      </trkpt>
      <trkpt lat="45.313588790595531463623046875" lon="-71.044086255133152008056640625">
        <ele>793.79998779296875</ele>
        <time>2026-08-21T21:51:53.000Z</time>
        <extensions>
          <ns3:TrackPointExtension>
            <ns3:hr>121</ns3:hr>
            <ns3:cad>66</ns3:cad>
          </ns3:TrackPointExtension>
        </extensions>
      </trkpt>
      <trkpt lat="45.313597507774829864501953125" lon="-71.044094301760196685791015625">
        <ele>793.5999755859375</ele>
        <time>2026-08-21T21:51:54.000Z</time>
        <extensions>
          <ns3:TrackPointExtension>
            <ns3:hr>122</ns3:hr>
            <ns3:cad>66</ns3:cad>
          </ns3:TrackPointExtension>
        </extensions>
      </trkpt>
      <trkpt lat="45.31360580585896968841552734375" lon="-71.0441041924059391021728515625">
        <ele>793.4000244140625</ele>
        <time>2026-08-21T21:51:55.000Z</time>
        <extensions>
          <ns3:TrackPointExtension>
            <ns3:hr>122</ns3:hr>
            <ns3:cad>66</ns3:cad>
          </ns3:TrackPointExtension>
        </extensions>
      </trkpt>
      <trkpt lat="45.313613601028919219970703125" lon="-71.044117100536823272705078125">
        <ele>793.20001220703125</ele>
        <time>2026-08-21T21:51:56.000Z</time>
        <extensions>
          <ns3:TrackPointExtension>
            <ns3:hr>122</ns3:hr>
            <ns3:cad>66</ns3:cad>
          </ns3:TrackPointExtension>
        </extensions>
      </trkpt>
      <trkpt lat="45.3136238269507884979248046875" lon="-71.04412841610610485076904296875">
        <ele>793</ele>
        <time>2026-08-21T21:51:57.000Z</time>
        <extensions>
          <ns3:TrackPointExtension>
            <ns3:hr>122</ns3:hr>
            <ns3:cad>66</ns3:cad>
          </ns3:TrackPointExtension>
        </extensions>
      </trkpt>
      <trkpt lat="45.31363246031105518341064453125" lon="-71.0441367141902446746826171875">
        <ele>792.79998779296875</ele>
        <time>2026-08-21T21:51:58.000Z</time>
        <extensions>
          <ns3:TrackPointExtension>
            <ns3:hr>121</ns3:hr>
            <ns3:cad>66</ns3:cad>
          </ns3:TrackPointExtension>
        </extensions>
      </trkpt>
      <trkpt lat="45.31364117749035358428955078125" lon="-71.04415037669241428375244140625">
        <ele>792.4000244140625</ele>
        <time>2026-08-21T21:51:59.000Z</time>
        <extensions>
          <ns3:TrackPointExtension>
            <ns3:hr>121</ns3:hr>
            <ns3:cad>70</ns3:cad>
          </ns3:TrackPointExtension>
        </extensions>
      </trkpt>
      <trkpt lat="45.31364503316581249237060546875" lon="-71.0441658832132816314697265625">
        <ele>792</ele>
        <time>2026-08-21T21:52:00.000Z</time>
        <extensions>
          <ns3:TrackPointExtension>
            <ns3:hr>120</ns3:hr>
            <ns3:cad>81</ns3:cad>
          </ns3:TrackPointExtension>
        </extensions>
      </trkpt>
      <trkpt lat="45.313644111156463623046875" lon="-71.04418105445802211761474609375">
        <ele>791.5999755859375</ele>
        <time>2026-08-21T21:52:01.000Z</time>
        <extensions>
          <ns3:TrackPointExtension>
            <ns3:hr>119</ns3:hr>
            <ns3:cad>81</ns3:cad>
          </ns3:TrackPointExtension>
        </extensions>
      </trkpt>
      <trkpt lat="45.31364201568067073822021484375" lon="-71.044193543493747711181640625">
        <ele>791</ele>
        <time>2026-08-21T21:52:02.000Z</time>
        <extensions>
          <ns3:TrackPointExtension>
            <ns3:hr>119</ns3:hr>
            <ns3:cad>81</ns3:cad>
          </ns3:TrackPointExtension>
        </extensions>
      </trkpt>
      <trkpt lat="45.3136476315557956695556640625" lon="-71.044224388897418975830078125">
        <ele>790.5999755859375</ele>
        <time>2026-08-21T21:52:03.000Z</time>
        <extensions>
          <ns3:TrackPointExtension>
            <ns3:hr>119</ns3:hr>
            <ns3:cad>81</ns3:cad>
          </ns3:TrackPointExtension>
        </extensions>
      </trkpt>
      <trkpt lat="45.31365760602056980133056640625" lon="-71.04425280354917049407958984375">
        <ele>790.20001220703125</ele>
        <time>2026-08-21T21:52:04.000Z</time>
        <extensions>
          <ns3:TrackPointExtension>
            <ns3:hr>119</ns3:hr>
            <ns3:cad>81</ns3:cad>
          </ns3:TrackPointExtension>
        </extensions>
      </trkpt>
      <trkpt lat="45.31367554329335689544677734375" lon="-71.04428130201995372772216796875">
        <ele>789.5999755859375</ele>
        <time>2026-08-21T21:52:05.000Z</time>
        <extensions>
          <ns3:TrackPointExtension>
            <ns3:hr>119</ns3:hr>
            <ns3:cad>81</ns3:cad>
          </ns3:TrackPointExtension>
        </extensions>
      </trkpt>
      <trkpt lat="45.31369633041322231292724609375" lon="-71.04430292733013629913330078125">
        <ele>789.20001220703125</ele>
        <time>2026-08-21T21:52:06.000Z</time>
        <extensions>
          <ns3:TrackPointExtension>
            <ns3:hr>120</ns3:hr>
            <ns3:cad>0</ns3:cad>
          </ns3:TrackPointExtension>
        </extensions>
      </trkpt>
      <trkpt lat="45.31371527351438999176025390625" lon="-71.04430795647203922271728515625">
        <ele>788.79998779296875</ele>
        <time>2026-08-21T21:52:07.000Z</time>
        <extensions>
          <ns3:TrackPointExtension>
            <ns3:hr>120</ns3:hr>
            <ns3:cad>0</ns3:cad>
          </ns3:TrackPointExtension>
        </extensions>
      </trkpt>
      <trkpt lat="45.313735306262969970703125" lon="-71.0443072021007537841796875">
        <ele>788.5999755859375</ele>
        <time>2026-08-21T21:52:08.000Z</time>
        <extensions>
          <ns3:TrackPointExtension>
            <ns3:hr>120</ns3:hr>
            <ns3:cad>0</ns3:cad>
          </ns3:TrackPointExtension>
        </extensions>
      </trkpt>
      <trkpt lat="45.3137527406215667724609375" lon="-71.044306866824626922607421875">
        <ele>788.4000244140625</ele>
        <time>2026-08-21T21:52:09.000Z</time>
        <extensions>
          <ns3:TrackPointExtension>
            <ns3:hr>121</ns3:hr>
            <ns3:cad>71</ns3:cad>
          </ns3:TrackPointExtension>
        </extensions>
      </trkpt>
      <trkpt lat="45.31376690603792667388916015625" lon="-71.04430611245334148406982421875">
        <ele>788.20001220703125</ele>
        <time>2026-08-21T21:52:10.000Z</time>
        <extensions>
          <ns3:TrackPointExtension>
            <ns3:hr>121</ns3:hr>
            <ns3:cad>71</ns3:cad>
          </ns3:TrackPointExtension>
        </extensions>
      </trkpt>
      <trkpt lat="45.31378551386296749114990234375" lon="-71.04430653154850006103515625">
        <ele>788.20001220703125</ele>
        <time>2026-08-21T21:52:11.000Z</time>
        <extensions>
          <ns3:TrackPointExtension>
            <ns3:hr>120</ns3:hr>
            <ns3:cad>71</ns3:cad>
          </ns3:TrackPointExtension>
        </extensions>
      </trkpt>
      <trkpt lat="45.3138015232980251312255859375" lon="-71.044298820197582244873046875">
        <ele>788</ele>
        <time>2026-08-21T21:52:12.000Z</time>
        <extensions>
          <ns3:TrackPointExtension>
            <ns3:hr>120</ns3:hr>
            <ns3:cad>0</ns3:cad>
          </ns3:TrackPointExtension>
        </extensions>
      </trkpt>
      <trkpt lat="45.31380931846797466278076171875" lon="-71.04428733699023723602294921875">
        <ele>788</ele>
        <time>2026-08-21T21:52:13.000Z</time>
        <extensions>
          <ns3:TrackPointExtension>
            <ns3:hr>120</ns3:hr>
            <ns3:cad>0</ns3:cad>
          </ns3:TrackPointExtension>
        </extensions>
      </trkpt>
      <trkpt lat="45.31381786800920963287353515625" lon="-71.04427711106836795806884765625">
        <ele>788</ele>
        <time>2026-08-21T21:52:14.000Z</time>
        <extensions>
          <ns3:TrackPointExtension>
            <ns3:hr>120</ns3:hr>
            <ns3:cad>0</ns3:cad>
          </ns3:TrackPointExtension>
        </extensions>
      </trkpt>
      <trkpt lat="45.31382474116981029510498046875" lon="-71.04427258484065532684326171875">
        <ele>788</ele>
        <time>2026-08-21T21:52:15.000Z</time>
        <extensions>
          <ns3:TrackPointExtension>
            <ns3:hr>120</ns3:hr>
            <ns3:cad>0</ns3:cad>
          </ns3:TrackPointExtension>
        </extensions>
      </trkpt>
      <trkpt lat="45.31383655965328216552734375" lon="-71.0442634485661983489990234375">
        <ele>788</ele>
        <time>2026-08-21T21:52:16.000Z</time>
        <extensions>
          <ns3:TrackPointExtension>
            <ns3:hr>119</ns3:hr>
            <ns3:cad>0</ns3:cad>
          </ns3:TrackPointExtension>
        </extensions>
      </trkpt>
      <trkpt lat="45.31384326517581939697265625" lon="-71.0442602634429931640625">
        <ele>788</ele>
        <time>2026-08-21T21:52:17.000Z</time>
        <extensions>
          <ns3:TrackPointExtension>
            <ns3:hr>119</ns3:hr>
            <ns3:cad>0</ns3:cad>
          </ns3:TrackPointExtension>
        </extensions>
      </trkpt>
      <trkpt lat="45.31385407783091068267822265625" lon="-71.04425749741494655609130859375">
        <ele>788.20001220703125</ele>
        <time>2026-08-21T21:52:18.000Z</time>
        <extensions>
          <ns3:TrackPointExtension>
            <ns3:hr>119</ns3:hr>
            <ns3:cad>0</ns3:cad>
          </ns3:TrackPointExtension>
        </extensions>
      </trkpt>
      <trkpt lat="45.31387218274176120758056640625" lon="-71.044239811599254608154296875">
        <ele>788</ele>
        <time>2026-08-21T21:52:19.000Z</time>
        <extensions>
          <ns3:TrackPointExtension>
            <ns3:hr>119</ns3:hr>
            <ns3:cad>0</ns3:cad>
          </ns3:TrackPointExtension>
        </extensions>
      </trkpt>
      <trkpt lat="45.313885509967803955078125" lon="-71.04422665201127529144287109375">
        <ele>788</ele>
        <time>2026-08-21T21:52:20.000Z</time>
        <extensions>
          <ns3:TrackPointExtension>
            <ns3:hr>119</ns3:hr>
            <ns3:cad>0</ns3:cad>
          </ns3:TrackPointExtension>
        </extensions>
      </trkpt>
      <trkpt lat="45.31389917246997356414794921875" lon="-71.04420728981494903564453125">
        <ele>788</ele>
        <time>2026-08-21T21:52:21.000Z</time>
        <extensions>
          <ns3:TrackPointExtension>
            <ns3:hr>118</ns3:hr>
            <ns3:cad>0</ns3:cad>
          </ns3:TrackPointExtension>
        </extensions>
      </trkpt>
      <trkpt lat="45.31391166150569915771484375" lon="-71.04420133866369724273681640625">
        <ele>788</ele>
        <time>2026-08-21T21:52:22.000Z</time>
        <extensions>
          <ns3:TrackPointExtension>
            <ns3:hr>117</ns3:hr>
            <ns3:cad>0</ns3:cad>
          </ns3:TrackPointExtension>
        </extensions>
      </trkpt>
      <trkpt lat="45.31392515636980533599853515625" lon="-71.0441853292286396026611328125">
        <ele>788</ele>
        <time>2026-08-21T21:52:23.000Z</time>
        <extensions>
          <ns3:TrackPointExtension>
            <ns3:hr>117</ns3:hr>
            <ns3:cad>0</ns3:cad>
          </ns3:TrackPointExtension>
        </extensions>
      </trkpt>
      <trkpt lat="45.3139351308345794677734375" lon="-71.04417200200259685516357421875">
        <ele>788</ele>
        <time>2026-08-21T21:52:24.000Z</time>
        <extensions>
          <ns3:TrackPointExtension>
            <ns3:hr>116</ns3:hr>
            <ns3:cad>0</ns3:cad>
          </ns3:TrackPointExtension>
        </extensions>
      </trkpt>
      <trkpt lat="45.313940830528736114501953125" lon="-71.0441635362803936004638671875">
        <ele>788</ele>
        <time>2026-08-21T21:52:25.000Z</time>
        <extensions>
          <ns3:TrackPointExtension>
            <ns3:hr>116</ns3:hr>
            <ns3:cad>0</ns3:cad>
          </ns3:TrackPointExtension>
        </extensions>
      </trkpt>
      <trkpt lat="45.31395164318382740020751953125" lon="-71.0441581718623638153076171875">
        <ele>788</ele>
        <time>2026-08-21T21:52:26.000Z</time>
        <extensions>
          <ns3:TrackPointExtension>
            <ns3:hr>115</ns3:hr>
            <ns3:cad>0</ns3:cad>
          </ns3:TrackPointExtension>
        </extensions>
      </trkpt>
      <trkpt lat="45.31396555714309215545654296875" lon="-71.04415037669241428375244140625">
        <ele>787.79998779296875</ele>
        <time>2026-08-21T21:52:27.000Z</time>
        <extensions>
          <ns3:TrackPointExtension>
            <ns3:hr>116</ns3:hr>
            <ns3:cad>0</ns3:cad>
          </ns3:TrackPointExtension>
        </extensions>
      </trkpt>
      <trkpt lat="45.31397427432239055633544921875" lon="-71.04414383880794048309326171875">
        <ele>787.4000244140625</ele>
        <time>2026-08-21T21:52:28.000Z</time>
        <extensions>
          <ns3:TrackPointExtension>
            <ns3:hr>117</ns3:hr>
            <ns3:cad>0</ns3:cad>
          </ns3:TrackPointExtension>
        </extensions>
      </trkpt>
      <trkpt lat="45.3139822371304035186767578125" lon="-71.04414383880794048309326171875">
        <ele>787.20001220703125</ele>
        <time>2026-08-21T21:52:29.000Z</time>
        <extensions>
          <ns3:TrackPointExtension>
            <ns3:hr>117</ns3:hr>
            <ns3:cad>0</ns3:cad>
          </ns3:TrackPointExtension>
        </extensions>
      </trkpt>
      <trkpt lat="45.313988439738750457763671875" lon="-71.04414870031177997589111328125">
        <ele>787</ele>
        <time>2026-08-21T21:52:30.000Z</time>
        <extensions>
          <ns3:TrackPointExtension>
            <ns3:hr>118</ns3:hr>
            <ns3:cad>0</ns3:cad>
          </ns3:TrackPointExtension>
        </extensions>
      </trkpt>
      <trkpt lat="45.31399237923324108123779296875" lon="-71.0441541485488414764404296875">
        <ele>786.5999755859375</ele>
        <time>2026-08-21T21:52:31.000Z</time>
        <extensions>
          <ns3:TrackPointExtension>
            <ns3:hr>118</ns3:hr>
            <ns3:cad>0</ns3:cad>
          </ns3:TrackPointExtension>
        </extensions>
      </trkpt>
      <trkpt lat="45.3139914572238922119140625" lon="-71.0441677272319793701171875">
        <ele>786.20001220703125</ele>
        <time>2026-08-21T21:52:32.000Z</time>
        <extensions>
          <ns3:TrackPointExtension>
            <ns3:hr>119</ns3:hr>
            <ns3:cad>0</ns3:cad>
          </ns3:TrackPointExtension>
        </extensions>
      </trkpt>
      <trkpt lat="45.31399187631905078887939453125" lon="-71.04418423958122730255126953125">
        <ele>785.79998779296875</ele>
        <time>2026-08-21T21:52:33.000Z</time>
        <extensions>
          <ns3:TrackPointExtension>
            <ns3:hr>119</ns3:hr>
            <ns3:cad>0</ns3:cad>
          </ns3:TrackPointExtension>
        </extensions>
      </trkpt>
      <trkpt lat="45.31398869119584560394287109375" lon="-71.04420318268239498138427734375">
        <ele>785.20001220703125</ele>
        <time>2026-08-21T21:52:34.000Z</time>
        <extensions>
          <ns3:TrackPointExtension>
            <ns3:hr>119</ns3:hr>
            <ns3:cad>0</ns3:cad>
          </ns3:TrackPointExtension>
        </extensions>
      </trkpt>
      <trkpt lat="45.31398399733006954193115234375" lon="-71.0442185215651988983154296875">
        <ele>784.79998779296875</ele>
        <time>2026-08-21T21:52:35.000Z</time>
        <extensions>
          <ns3:TrackPointExtension>
            <ns3:hr>119</ns3:hr>
            <ns3:cad>0</ns3:cad>
          </ns3:TrackPointExtension>
        </extensions>
      </trkpt>
      <trkpt lat="45.31397678889334201812744140625" lon="-71.04423251934349536895751953125">
        <ele>784.5999755859375</ele>
        <time>2026-08-21T21:52:36.000Z</time>
        <extensions>
          <ns3:TrackPointExtension>
            <ns3:hr>119</ns3:hr>
            <ns3:cad>0</ns3:cad>
          </ns3:TrackPointExtension>
        </extensions>
      </trkpt>
      <trkpt lat="45.3139684908092021942138671875" lon="-71.0442426614463329315185546875">
        <ele>784.4000244140625</ele>
        <time>2026-08-21T21:52:37.000Z</time>
        <extensions>
          <ns3:TrackPointExtension>
            <ns3:hr>120</ns3:hr>
            <ns3:cad>0</ns3:cad>
          </ns3:TrackPointExtension>
        </extensions>
      </trkpt>
      <trkpt lat="45.313962288200855255126953125" lon="-71.0442530550062656402587890625">
        <ele>784.4000244140625</ele>
        <time>2026-08-21T21:52:38.000Z</time>
        <extensions>
          <ns3:TrackPointExtension>
            <ns3:hr>120</ns3:hr>
            <ns3:cad>0</ns3:cad>
          </ns3:TrackPointExtension>
        </extensions>
      </trkpt>
      <trkpt lat="45.31395633704960346221923828125" lon="-71.04427409358322620391845703125">
        <ele>784.20001220703125</ele>
        <time>2026-08-21T21:52:39.000Z</time>
        <extensions>
          <ns3:TrackPointExtension>
            <ns3:hr>121</ns3:hr>
            <ns3:cad>0</ns3:cad>
          </ns3:TrackPointExtension>
        </extensions>
      </trkpt>
      <trkpt lat="45.313956923782825469970703125" lon="-71.04428616352379322052001953125">
        <ele>784.20001220703125</ele>
        <time>2026-08-21T21:52:40.000Z</time>
        <extensions>
          <ns3:TrackPointExtension>
            <ns3:hr>121</ns3:hr>
            <ns3:cad>0</ns3:cad>
          </ns3:TrackPointExtension>
        </extensions>
      </trkpt>
      <trkpt lat="45.31395315192639827728271484375" lon="-71.044305860996246337890625">
        <ele>784</ele>
        <time>2026-08-21T21:52:41.000Z</time>
        <extensions>
          <ns3:TrackPointExtension>
            <ns3:hr>122</ns3:hr>
            <ns3:cad>0</ns3:cad>
          </ns3:TrackPointExtension>
        </extensions>
      </trkpt>
      <trkpt lat="45.31395164318382740020751953125" lon="-71.0443194396793842315673828125">
        <ele>783.79998779296875</ele>
        <time>2026-08-21T21:52:42.000Z</time>
        <extensions>
          <ns3:TrackPointExtension>
            <ns3:hr>122</ns3:hr>
            <ns3:cad>0</ns3:cad>
          </ns3:TrackPointExtension>
        </extensions>
      </trkpt>
      <trkpt lat="45.3139503858983516693115234375" lon="-71.0443248040974140167236328125">
        <ele>783.5999755859375</ele>
        <time>2026-08-21T21:52:43.000Z</time>
        <extensions>
          <ns3:TrackPointExtension>
            <ns3:hr>122</ns3:hr>
            <ns3:cad>0</ns3:cad>
          </ns3:TrackPointExtension>
        </extensions>
      </trkpt>
      <trkpt lat="45.31394192017614841461181640625" lon="-71.0443341918289661407470703125">
        <ele>783.4000244140625</ele>
        <time>2026-08-21T21:52:44.000Z</time>
        <extensions>
          <ns3:TrackPointExtension>
            <ns3:hr>122</ns3:hr>
            <ns3:cad>0</ns3:cad>
          </ns3:TrackPointExtension>
        </extensions>
      </trkpt>
      <trkpt lat="45.313931442797183990478515625" lon="-71.04434265755116939544677734375">
        <ele>783.20001220703125</ele>
        <time>2026-08-21T21:52:45.000Z</time>
        <extensions>
          <ns3:TrackPointExtension>
            <ns3:hr>122</ns3:hr>
            <ns3:cad>0</ns3:cad>
          </ns3:TrackPointExtension>
        </extensions>
      </trkpt>
      <trkpt lat="45.3139148466289043426513671875" lon="-71.04435036890208721160888671875">
        <ele>783</ele>
        <time>2026-08-21T21:52:46.000Z</time>
        <extensions>
          <ns3:TrackPointExtension>
            <ns3:hr>122</ns3:hr>
            <ns3:cad>0</ns3:cad>
          </ns3:TrackPointExtension>
        </extensions>
      </trkpt>
      <trkpt lat="45.313903950154781341552734375" lon="-71.04435347020626068115234375">
        <ele>783</ele>
        <time>2026-08-21T21:52:47.000Z</time>
        <extensions>
          <ns3:TrackPointExtension>
            <ns3:hr>121</ns3:hr>
            <ns3:cad>63</ns3:cad>
          </ns3:TrackPointExtension>
        </extensions>
      </trkpt>
      <trkpt lat="45.31389095820486545562744140625" lon="-71.0443610139191150665283203125">
        <ele>783</ele>
        <time>2026-08-21T21:52:48.000Z</time>
        <extensions>
          <ns3:TrackPointExtension>
            <ns3:hr>121</ns3:hr>
            <ns3:cad>63</ns3:cad>
          </ns3:TrackPointExtension>
        </extensions>
      </trkpt>
      <trkpt lat="45.31388207338750362396240234375" lon="-71.04437149129807949066162109375">
        <ele>782.79998779296875</ele>
        <time>2026-08-21T21:52:49.000Z</time>
        <extensions>
          <ns3:TrackPointExtension>
            <ns3:hr>121</ns3:hr>
            <ns3:cad>63</ns3:cad>
          </ns3:TrackPointExtension>
        </extensions>
      </trkpt>
      <trkpt lat="45.3138685785233974456787109375" lon="-71.0443891771137714385986328125">
        <ele>782.79998779296875</ele>
        <time>2026-08-21T21:52:50.000Z</time>
        <extensions>
          <ns3:TrackPointExtension>
            <ns3:hr>121</ns3:hr>
            <ns3:cad>63</ns3:cad>
          </ns3:TrackPointExtension>
        </extensions>
      </trkpt>
      <trkpt lat="45.31385810114443302154541015625" lon="-71.04440233670175075531005859375">
        <ele>782.5999755859375</ele>
        <time>2026-08-21T21:52:51.000Z</time>
        <extensions>
          <ns3:TrackPointExtension>
            <ns3:hr>121</ns3:hr>
            <ns3:cad>63</ns3:cad>
          </ns3:TrackPointExtension>
        </extensions>
      </trkpt>
      <trkpt lat="45.31384586356580257415771484375" lon="-71.044417507946491241455078125">
        <ele>782.4000244140625</ele>
        <time>2026-08-21T21:52:52.000Z</time>
        <extensions>
          <ns3:TrackPointExtension>
            <ns3:hr>121</ns3:hr>
            <ns3:cad>65</ns3:cad>
          </ns3:TrackPointExtension>
        </extensions>
      </trkpt>
      <trkpt lat="45.31383790075778961181640625" lon="-71.04443502612411975860595703125">
        <ele>782.20001220703125</ele>
        <time>2026-08-21T21:52:53.000Z</time>
        <extensions>
          <ns3:TrackPointExtension>
            <ns3:hr>121</ns3:hr>
            <ns3:cad>65</ns3:cad>
          </ns3:TrackPointExtension>
        </extensions>
      </trkpt>
      <trkpt lat="45.31383144669234752655029296875" lon="-71.0444485209882259368896484375">
        <ele>782</ele>
        <time>2026-08-21T21:52:54.000Z</time>
        <extensions>
          <ns3:TrackPointExtension>
            <ns3:hr>121</ns3:hr>
            <ns3:cad>0</ns3:cad>
          </ns3:TrackPointExtension>
        </extensions>
      </trkpt>
      <trkpt lat="45.31382222659885883331298828125" lon="-71.04446687735617160797119140625">
        <ele>781.5999755859375</ele>
        <time>2026-08-21T21:52:55.000Z</time>
        <extensions>
          <ns3:TrackPointExtension>
            <ns3:hr>121</ns3:hr>
            <ns3:cad>0</ns3:cad>
          </ns3:TrackPointExtension>
        </extensions>
      </trkpt>
      <trkpt lat="45.31381719745695590972900390625" lon="-71.0444860719144344329833984375">
        <ele>781.4000244140625</ele>
        <time>2026-08-21T21:52:56.000Z</time>
        <extensions>
          <ns3:TrackPointExtension>
            <ns3:hr>120</ns3:hr>
            <ns3:cad>0</ns3:cad>
          </ns3:TrackPointExtension>
        </extensions>
      </trkpt>
      <trkpt lat="45.31381200067698955535888671875" lon="-71.0445056855678558349609375">
        <ele>781</ele>
        <time>2026-08-21T21:52:57.000Z</time>
        <extensions>
          <ns3:TrackPointExtension>
            <ns3:hr>119</ns3:hr>
            <ns3:cad>45</ns3:cad>
          </ns3:TrackPointExtension>
        </extensions>
      </trkpt>
      <trkpt lat="45.3138122521340847015380859375" lon="-71.04453326202929019927978515625">
        <ele>780.5999755859375</ele>
        <time>2026-08-21T21:52:58.000Z</time>
        <extensions>
          <ns3:TrackPointExtension>
            <ns3:hr>119</ns3:hr>
            <ns3:cad>45</ns3:cad>
          </ns3:TrackPointExtension>
        </extensions>
      </trkpt>
      <trkpt lat="45.31381485052406787872314453125" lon="-71.044561006128787994384765625">
        <ele>780</ele>
        <time>2026-08-21T21:52:59.000Z</time>
        <extensions>
          <ns3:TrackPointExtension>
            <ns3:hr>119</ns3:hr>
            <ns3:cad>0</ns3:cad>
          </ns3:TrackPointExtension>
        </extensions>
      </trkpt>
      <trkpt lat="45.31381778419017791748046875" lon="-71.04458749294281005859375">
        <ele>779.5999755859375</ele>
        <time>2026-08-21T21:53:00.000Z</time>
        <extensions>
          <ns3:TrackPointExtension>
            <ns3:hr>120</ns3:hr>
            <ns3:cad>0</ns3:cad>
          </ns3:TrackPointExtension>
        </extensions>
      </trkpt>
      <trkpt lat="45.31382859684526920318603515625" lon="-71.0446161590516567230224609375">
        <ele>779</ele>
        <time>2026-08-21T21:53:01.000Z</time>
        <extensions>
          <ns3:TrackPointExtension>
            <ns3:hr>120</ns3:hr>
            <ns3:cad>0</ns3:cad>
          </ns3:TrackPointExtension>
        </extensions>
      </trkpt>
      <trkpt lat="45.31384284608066082000732421875" lon="-71.04462529532611370086669921875">
        <ele>778.5999755859375</ele>
        <time>2026-08-21T21:53:02.000Z</time>
        <extensions>
          <ns3:TrackPointExtension>
            <ns3:hr>120</ns3:hr>
            <ns3:cad>0</ns3:cad>
          </ns3:TrackPointExtension>
        </extensions>
      </trkpt>
      <trkpt lat="45.31385726295411586761474609375" lon="-71.04463518597185611724853515625">
        <ele>778.20001220703125</ele>
        <time>2026-08-21T21:53:03.000Z</time>
        <extensions>
          <ns3:TrackPointExtension>
            <ns3:hr>120</ns3:hr>
            <ns3:cad>0</ns3:cad>
          </ns3:TrackPointExtension>
        </extensions>
      </trkpt>
      <trkpt lat="45.31388073228299617767333984375" lon="-71.04463376104831695556640625">
        <ele>778.20001220703125</ele>
        <time>2026-08-21T21:53:04.000Z</time>
        <extensions>
          <ns3:TrackPointExtension>
            <ns3:hr>120</ns3:hr>
            <ns3:cad>0</ns3:cad>
          </ns3:TrackPointExtension>
        </extensions>
      </trkpt>
      <trkpt lat="45.3138977475464344024658203125" lon="-71.04462546296417713165283203125">
        <ele>778</ele>
        <time>2026-08-21T21:53:05.000Z</time>
        <extensions>
          <ns3:TrackPointExtension>
            <ns3:hr>120</ns3:hr>
            <ns3:cad>0</ns3:cad>
          </ns3:TrackPointExtension>
        </extensions>
      </trkpt>
      <trkpt lat="45.313914008438587188720703125" lon="-71.04461641050875186920166015625">
        <ele>778</ele>
        <time>2026-08-21T21:53:06.000Z</time>
        <extensions>
          <ns3:TrackPointExtension>
            <ns3:hr>120</ns3:hr>
            <ns3:cad>0</ns3:cad>
          </ns3:TrackPointExtension>
        </extensions>
      </trkpt>
      <trkpt lat="45.313933454453945159912109375" lon="-71.04461121372878551483154296875">
        <ele>778.20001220703125</ele>
        <time>2026-08-21T21:53:07.000Z</time>
        <extensions>
          <ns3:TrackPointExtension>
            <ns3:hr>120</ns3:hr>
            <ns3:cad>0</ns3:cad>
          </ns3:TrackPointExtension>
        </extensions>
      </trkpt>
      <trkpt lat="45.313947536051273345947265625" lon="-71.04460149072110652923583984375">
        <ele>778.20001220703125</ele>
        <time>2026-08-21T21:53:08.000Z</time>
        <extensions>
          <ns3:TrackPointExtension>
            <ns3:hr>120</ns3:hr>
            <ns3:cad>0</ns3:cad>
          </ns3:TrackPointExtension>
        </extensions>
      </trkpt>
      <trkpt lat="45.3139577619731426239013671875" lon="-71.04458858259022235870361328125">
        <ele>778.4000244140625</ele>
        <time>2026-08-21T21:53:09.000Z</time>
        <extensions>
          <ns3:TrackPointExtension>
            <ns3:hr>121</ns3:hr>
            <ns3:cad>64</ns3:cad>
          </ns3:TrackPointExtension>
        </extensions>
      </trkpt>
      <trkpt lat="45.3139688260853290557861328125" lon="-71.04458011686801910400390625">
        <ele>778.5999755859375</ele>
        <time>2026-08-21T21:53:10.000Z</time>
        <extensions>
          <ns3:TrackPointExtension>
            <ns3:hr>121</ns3:hr>
            <ns3:cad>64</ns3:cad>
          </ns3:TrackPointExtension>
        </extensions>
      </trkpt>
      <trkpt lat="45.31397980637848377227783203125" lon="-71.0445749200880527496337890625">
        <ele>778.79998779296875</ele>
        <time>2026-08-21T21:53:11.000Z</time>
        <extensions>
          <ns3:TrackPointExtension>
            <ns3:hr>121</ns3:hr>
            <ns3:cad>64</ns3:cad>
          </ns3:TrackPointExtension>
        </extensions>
      </trkpt>
      <trkpt lat="45.3139882721006870269775390625" lon="-71.04456796310842037200927734375">
        <ele>778.79998779296875</ele>
        <time>2026-08-21T21:53:12.000Z</time>
        <extensions>
          <ns3:TrackPointExtension>
            <ns3:hr>121</ns3:hr>
            <ns3:cad>64</ns3:cad>
          </ns3:TrackPointExtension>
        </extensions>
      </trkpt>
      <trkpt lat="45.31399774365127086639404296875" lon="-71.0445571504533290863037109375">
        <ele>779</ele>
        <time>2026-08-21T21:53:13.000Z</time>
        <extensions>
          <ns3:TrackPointExtension>
            <ns3:hr>121</ns3:hr>
            <ns3:cad>64</ns3:cad>
          </ns3:TrackPointExtension>
        </extensions>
      </trkpt>
      <trkpt lat="45.314005874097347259521484375" lon="-71.0445501096546649932861328125">
        <ele>779</ele>
        <time>2026-08-21T21:53:14.000Z</time>
        <extensions>
          <ns3:TrackPointExtension>
            <ns3:hr>120</ns3:hr>
            <ns3:cad>64</ns3:cad>
          </ns3:TrackPointExtension>
        </extensions>
      </trkpt>
      <trkpt lat="45.314017944037914276123046875" lon="-71.0445440746843814849853515625">
        <ele>779.20001220703125</ele>
        <time>2026-08-21T21:53:15.000Z</time>
        <extensions>
          <ns3:TrackPointExtension>
            <ns3:hr>120</ns3:hr>
            <ns3:cad>64</ns3:cad>
          </ns3:TrackPointExtension>
        </extensions>
      </trkpt>
      <trkpt lat="45.31403428874909877777099609375" lon="-71.044540219008922576904296875">
        <ele>779.20001220703125</ele>
        <time>2026-08-21T21:53:16.000Z</time>
        <extensions>
          <ns3:TrackPointExtension>
            <ns3:hr>120</ns3:hr>
            <ns3:cad>64</ns3:cad>
          </ns3:TrackPointExtension>
        </extensions>
      </trkpt>
      <trkpt lat="45.3140476159751415252685546875" lon="-71.04454667307436466217041015625">
        <ele>779</ele>
        <time>2026-08-21T21:53:17.000Z</time>
        <extensions>
          <ns3:TrackPointExtension>
            <ns3:hr>120</ns3:hr>
            <ns3:cad>64</ns3:cad>
          </ns3:TrackPointExtension>
        </extensions>
      </trkpt>
      <trkpt lat="45.3140616975724697113037109375" lon="-71.04454801417887210845947265625">
        <ele>778.79998779296875</ele>
        <time>2026-08-21T21:53:18.000Z</time>
        <extensions>
          <ns3:TrackPointExtension>
            <ns3:hr>120</ns3:hr>
            <ns3:cad>64</ns3:cad>
          </ns3:TrackPointExtension>
        </extensions>
      </trkpt>
      <trkpt lat="45.31407519243657588958740234375" lon="-71.04454969055950641632080078125">
        <ele>778.5999755859375</ele>
        <time>2026-08-21T21:53:19.000Z</time>
        <extensions>
          <ns3:TrackPointExtension>
            <ns3:hr>120</ns3:hr>
            <ns3:cad>64</ns3:cad>
          </ns3:TrackPointExtension>
        </extensions>
      </trkpt>
      <trkpt lat="45.3140875138342380523681640625" lon="-71.04455304332077503204345703125">
        <ele>778.4000244140625</ele>
        <time>2026-08-21T21:53:20.000Z</time>
        <extensions>
          <ns3:TrackPointExtension>
            <ns3:hr>120</ns3:hr>
            <ns3:cad>64</ns3:cad>
          </ns3:TrackPointExtension>
        </extensions>
      </trkpt>
      <trkpt lat="45.31409899704158306121826171875" lon="-71.04455036111176013946533203125">
        <ele>778.20001220703125</ele>
        <time>2026-08-21T21:53:21.000Z</time>
        <extensions>
          <ns3:TrackPointExtension>
            <ns3:hr>121</ns3:hr>
            <ns3:cad>64</ns3:cad>
          </ns3:TrackPointExtension>
        </extensions>
      </trkpt>
      <trkpt lat="45.31410478055477142333984375" lon="-71.04455119930207729339599609375">
        <ele>778</ele>
        <time>2026-08-21T21:53:22.000Z</time>
        <extensions>
          <ns3:TrackPointExtension>
            <ns3:hr>121</ns3:hr>
            <ns3:cad>64</ns3:cad>
          </ns3:TrackPointExtension>
        </extensions>
      </trkpt>
      <trkpt lat="45.31411743722856044769287109375" lon="-71.044546253979206085205078125">
        <ele>777.5999755859375</ele>
        <time>2026-08-21T21:53:23.000Z</time>
        <extensions>
          <ns3:TrackPointExtension>
            <ns3:hr>122</ns3:hr>
            <ns3:cad>0</ns3:cad>
          </ns3:TrackPointExtension>
        </extensions>
      </trkpt>
      <trkpt lat="45.31413218937814235687255859375" lon="-71.04453560896217823028564453125">
        <ele>777.4000244140625</ele>
        <time>2026-08-21T21:53:24.000Z</time>
        <extensions>
          <ns3:TrackPointExtension>
            <ns3:hr>124</ns3:hr>
            <ns3:cad>0</ns3:cad>
          </ns3:TrackPointExtension>
        </extensions>
      </trkpt>
      <trkpt lat="45.31414459459483623504638671875" lon="-71.04452923871576786041259765625">
        <ele>777</ele>
        <time>2026-08-21T21:53:25.000Z</time>
        <extensions>
          <ns3:TrackPointExtension>
            <ns3:hr>125</ns3:hr>
            <ns3:cad>0</ns3:cad>
          </ns3:TrackPointExtension>
        </extensions>
      </trkpt>
      <trkpt lat="45.31415431760251522064208984375" lon="-71.0445192642509937286376953125">
        <ele>776.79998779296875</ele>
        <time>2026-08-21T21:53:26.000Z</time>
        <extensions>
          <ns3:TrackPointExtension>
            <ns3:hr>126</ns3:hr>
            <ns3:cad>0</ns3:cad>
          </ns3:TrackPointExtension>
        </extensions>
      </trkpt>
      <trkpt lat="45.31416269950568675994873046875" lon="-71.04451364837586879730224609375">
        <ele>776.4000244140625</ele>
        <time>2026-08-21T21:53:27.000Z</time>
        <extensions>
          <ns3:TrackPointExtension>
            <ns3:hr>126</ns3:hr>
            <ns3:cad>0</ns3:cad>
          </ns3:TrackPointExtension>
        </extensions>
      </trkpt>
      <trkpt lat="45.31416890211403369903564453125" lon="-71.04451079852879047393798828125">
        <ele>776</ele>
        <time>2026-08-21T21:53:28.000Z</time>
        <extensions>
          <ns3:TrackPointExtension>
            <ns3:hr>126</ns3:hr>
            <ns3:cad>0</ns3:cad>
          </ns3:TrackPointExtension>
        </extensions>
      </trkpt>
      <trkpt lat="45.31417678110301494598388671875" lon="-71.0445095412433147430419921875">
        <ele>775.79998779296875</ele>
        <time>2026-08-21T21:53:29.000Z</time>
        <extensions>
          <ns3:TrackPointExtension>
            <ns3:hr>126</ns3:hr>
            <ns3:cad>0</ns3:cad>
          </ns3:TrackPointExtension>
        </extensions>
      </trkpt>
      <trkpt lat="45.3141884319484233856201171875" lon="-71.04449839331209659576416015625">
        <ele>775.5999755859375</ele>
        <time>2026-08-21T21:53:30.000Z</time>
        <extensions>
          <ns3:TrackPointExtension>
            <ns3:hr>125</ns3:hr>
            <ns3:cad>0</ns3:cad>
          </ns3:TrackPointExtension>
        </extensions>
      </trkpt>
      <trkpt lat="45.31420276500284671783447265625" lon="-71.044482551515102386474609375">
        <ele>775.20001220703125</ele>
        <time>2026-08-21T21:53:31.000Z</time>
        <extensions>
          <ns3:TrackPointExtension>
            <ns3:hr>126</ns3:hr>
            <ns3:cad>85</ns3:cad>
          </ns3:TrackPointExtension>
        </extensions>
      </trkpt>
      <trkpt lat="45.31421743333339691162109375" lon="-71.04446251876652240753173828125">
        <ele>775</ele>
        <time>2026-08-21T21:53:32.000Z</time>
        <extensions>
          <ns3:TrackPointExtension>
            <ns3:hr>126</ns3:hr>
            <ns3:cad>85</ns3:cad>
          </ns3:TrackPointExtension>
        </extensions>
      </trkpt>
      <trkpt lat="45.31422422267496585845947265625" lon="-71.04444994591176509857177734375">
        <ele>774.5999755859375</ele>
        <time>2026-08-21T21:53:33.000Z</time>
        <extensions>
          <ns3:TrackPointExtension>
            <ns3:hr>125</ns3:hr>
            <ns3:cad>0</ns3:cad>
          </ns3:TrackPointExtension>
        </extensions>
      </trkpt>
      <trkpt lat="45.31423159874975681304931640625" lon="-71.0444364510476589202880859375">
        <ele>774.4000244140625</ele>
        <time>2026-08-21T21:53:34.000Z</time>
        <extensions>
          <ns3:TrackPointExtension>
            <ns3:hr>125</ns3:hr>
            <ns3:cad>0</ns3:cad>
          </ns3:TrackPointExtension>
        </extensions>
      </trkpt>
      <trkpt lat="45.31424350105226039886474609375" lon="-71.0444305837154388427734375">
        <ele>774.20001220703125</ele>
        <time>2026-08-21T21:53:35.000Z</time>
        <extensions>
          <ns3:TrackPointExtension>
            <ns3:hr>124</ns3:hr>
            <ns3:cad>0</ns3:cad>
          </ns3:TrackPointExtension>
        </extensions>
      </trkpt>
      <trkpt lat="45.314258001744747161865234375" lon="-71.04442060925066471099853515625">
        <ele>774.20001220703125</ele>
        <time>2026-08-21T21:53:36.000Z</time>
        <extensions>
          <ns3:TrackPointExtension>
            <ns3:hr>124</ns3:hr>
            <ns3:cad>0</ns3:cad>
          </ns3:TrackPointExtension>
        </extensions>
      </trkpt>
      <trkpt lat="45.314266383647918701171875" lon="-71.04442052543163299560546875">
        <ele>774</ele>
        <time>2026-08-21T21:53:37.000Z</time>
        <extensions>
          <ns3:TrackPointExtension>
            <ns3:hr>124</ns3:hr>
            <ns3:cad>0</ns3:cad>
          </ns3:TrackPointExtension>
        </extensions>
      </trkpt>
      <trkpt lat="45.3142715804278850555419921875" lon="-71.0444305837154388427734375">
        <ele>774</ele>
        <time>2026-08-21T21:53:38.000Z</time>
        <extensions>
          <ns3:TrackPointExtension>
            <ns3:hr>124</ns3:hr>
            <ns3:cad>0</ns3:cad>
          </ns3:TrackPointExtension>
        </extensions>
      </trkpt>
      <trkpt lat="45.3142786212265491485595703125" lon="-71.04444642551243305206298828125">
        <ele>773.79998779296875</ele>
        <time>2026-08-21T21:53:39.000Z</time>
        <extensions>
          <ns3:TrackPointExtension>
            <ns3:hr>123</ns3:hr>
            <ns3:cad>0</ns3:cad>
          </ns3:TrackPointExtension>
        </extensions>
      </trkpt>
      <trkpt lat="45.314284153282642364501953125" lon="-71.0444599203765392303466796875">
        <ele>773.4000244140625</ele>
        <time>2026-08-21T21:53:40.000Z</time>
        <extensions>
          <ns3:TrackPointExtension>
            <ns3:hr>123</ns3:hr>
            <ns3:cad>0</ns3:cad>
          </ns3:TrackPointExtension>
        </extensions>
      </trkpt>
      <trkpt lat="45.3142893500626087188720703125" lon="-71.0444706492125988006591796875">
        <ele>773</ele>
        <time>2026-08-21T21:53:41.000Z</time>
        <extensions>
          <ns3:TrackPointExtension>
            <ns3:hr>122</ns3:hr>
            <ns3:cad>60</ns3:cad>
          </ns3:TrackPointExtension>
        </extensions>
      </trkpt>
      <trkpt lat="45.31429253518581390380859375" lon="-71.0444803722202777862548828125">
        <ele>772.5999755859375</ele>
        <time>2026-08-21T21:53:42.000Z</time>
        <extensions>
          <ns3:TrackPointExtension>
            <ns3:hr>122</ns3:hr>
            <ns3:cad>60</ns3:cad>
          </ns3:TrackPointExtension>
        </extensions>
      </trkpt>
      <trkpt lat="45.3142910264432430267333984375" lon="-71.044492609798908233642578125">
        <ele>772.20001220703125</ele>
        <time>2026-08-21T21:53:43.000Z</time>
        <extensions>
          <ns3:TrackPointExtension>
            <ns3:hr>121</ns3:hr>
            <ns3:cad>72</ns3:cad>
          </ns3:TrackPointExtension>
        </extensions>
      </trkpt>
      <trkpt lat="45.3142843209207057952880859375" lon="-71.04450174607336521148681640625">
        <ele>771.5999755859375</ele>
        <time>2026-08-21T21:53:44.000Z</time>
        <extensions>
          <ns3:TrackPointExtension>
            <ns3:hr>121</ns3:hr>
            <ns3:cad>72</ns3:cad>
          </ns3:TrackPointExtension>
        </extensions>
      </trkpt>
      <trkpt lat="45.3142853267490863800048828125" lon="-71.044519431889057159423828125">
        <ele>771.20001220703125</ele>
        <time>2026-08-21T21:53:45.000Z</time>
        <extensions>
          <ns3:TrackPointExtension>
            <ns3:hr>121</ns3:hr>
            <ns3:cad>75</ns3:cad>
          </ns3:TrackPointExtension>
        </extensions>
      </trkpt>
      <trkpt lat="45.3142797946929931640625" lon="-71.04453879408538341522216796875">
        <ele>770.79998779296875</ele>
        <time>2026-08-21T21:53:46.000Z</time>
        <extensions>
          <ns3:TrackPointExtension>
            <ns3:hr>122</ns3:hr>
            <ns3:cad>75</ns3:cad>
          </ns3:TrackPointExtension>
        </extensions>
      </trkpt>
      <trkpt lat="45.3142712451517581939697265625" lon="-71.0445591621100902557373046875">
        <ele>770.4000244140625</ele>
        <time>2026-08-21T21:53:47.000Z</time>
        <extensions>
          <ns3:TrackPointExtension>
            <ns3:hr>122</ns3:hr>
            <ns3:cad>75</ns3:cad>
          </ns3:TrackPointExtension>
        </extensions>
      </trkpt>
      <trkpt lat="45.31426881439983844757080078125" lon="-71.044579111039638519287109375">
        <ele>770.20001220703125</ele>
        <time>2026-08-21T21:53:48.000Z</time>
        <extensions>
          <ns3:TrackPointExtension>
            <ns3:hr>122</ns3:hr>
            <ns3:cad>72</ns3:cad>
          </ns3:TrackPointExtension>
        </extensions>
      </trkpt>
      <trkpt lat="45.31427132897078990936279296875" lon="-71.04459528811275959014892578125">
        <ele>769.79998779296875</ele>
        <time>2026-08-21T21:53:49.000Z</time>
        <extensions>
          <ns3:TrackPointExtension>
            <ns3:hr>122</ns3:hr>
            <ns3:cad>72</ns3:cad>
          </ns3:TrackPointExtension>
        </extensions>
      </trkpt>
      <trkpt lat="45.31427753157913684844970703125" lon="-71.04461272247135639190673828125">
        <ele>769.4000244140625</ele>
        <time>2026-08-21T21:53:50.000Z</time>
        <extensions>
          <ns3:TrackPointExtension>
            <ns3:hr>123</ns3:hr>
            <ns3:cad>72</ns3:cad>
          </ns3:TrackPointExtension>
        </extensions>
      </trkpt>
      <trkpt lat="45.31428356654942035675048828125" lon="-71.044630073010921478271484375">
        <ele>769.20001220703125</ele>
        <time>2026-08-21T21:53:51.000Z</time>
        <extensions>
          <ns3:TrackPointExtension>
            <ns3:hr>124</ns3:hr>
            <ns3:cad>72</ns3:cad>
          </ns3:TrackPointExtension>
        </extensions>
      </trkpt>
      <trkpt lat="45.3142927028238773345947265625" lon="-71.04463987983763217926025390625">
        <ele>768.79998779296875</ele>
        <time>2026-08-21T21:53:52.000Z</time>
        <extensions>
          <ns3:TrackPointExtension>
            <ns3:hr>124</ns3:hr>
            <ns3:cad>73</ns3:cad>
          </ns3:TrackPointExtension>
        </extensions>
      </trkpt>
      <trkpt lat="45.31430485658347606658935546875" lon="-71.0446449927985668182373046875">
        <ele>768.4000244140625</ele>
        <time>2026-08-21T21:53:53.000Z</time>
        <extensions>
          <ns3:TrackPointExtension>
            <ns3:hr>124</ns3:hr>
            <ns3:cad>0</ns3:cad>
          </ns3:TrackPointExtension>
        </extensions>
      </trkpt>
      <trkpt lat="45.314325056970119476318359375" lon="-71.0446594096720218658447265625">
        <ele>768.20001220703125</ele>
        <time>2026-08-21T21:53:54.000Z</time>
        <extensions>
          <ns3:TrackPointExtension>
            <ns3:hr>124</ns3:hr>
            <ns3:cad>0</ns3:cad>
          </ns3:TrackPointExtension>
        </extensions>
      </trkpt>
      <trkpt lat="45.31434140168130397796630859375" lon="-71.04466636665165424346923828125">
        <ele>767.79998779296875</ele>
        <time>2026-08-21T21:53:55.000Z</time>
        <extensions>
          <ns3:TrackPointExtension>
            <ns3:hr>124</ns3:hr>
            <ns3:cad>70</ns3:cad>
          </ns3:TrackPointExtension>
        </extensions>
      </trkpt>
      <trkpt lat="45.314351879060268402099609375" lon="-71.04466217570006847381591796875">
        <ele>767.4000244140625</ele>
        <time>2026-08-21T21:53:56.000Z</time>
        <extensions>
          <ns3:TrackPointExtension>
            <ns3:hr>124</ns3:hr>
            <ns3:cad>70</ns3:cad>
          </ns3:TrackPointExtension>
        </extensions>
      </trkpt>
      <trkpt lat="45.31436302699148654937744140625" lon="-71.044661588966846466064453125">
        <ele>767.20001220703125</ele>
        <time>2026-08-21T21:53:57.000Z</time>
        <extensions>
          <ns3:TrackPointExtension>
            <ns3:hr>123</ns3:hr>
            <ns3:cad>70</ns3:cad>
          </ns3:TrackPointExtension>
        </extensions>
      </trkpt>
      <trkpt lat="45.31438733451068401336669921875" lon="-71.044666953384876251220703125">
        <ele>767</ele>
        <time>2026-08-21T21:53:58.000Z</time>
        <extensions>
          <ns3:TrackPointExtension>
            <ns3:hr>123</ns3:hr>
            <ns3:cad>70</ns3:cad>
          </ns3:TrackPointExtension>
        </extensions>
      </trkpt>
      <trkpt lat="45.31440694816410541534423828125" lon="-71.04466401971876621246337890625">
        <ele>766.79998779296875</ele>
        <time>2026-08-21T21:53:59.000Z</time>
        <extensions>
          <ns3:TrackPointExtension>
            <ns3:hr>123</ns3:hr>
            <ns3:cad>70</ns3:cad>
          </ns3:TrackPointExtension>
        </extensions>
      </trkpt>
      <trkpt lat="45.31441683880984783172607421875" lon="-71.0446503572165966033935546875">
        <ele>766.79998779296875</ele>
        <time>2026-08-21T21:54:00.000Z</time>
        <extensions>
          <ns3:TrackPointExtension>
            <ns3:hr>122</ns3:hr>
            <ns3:cad>79</ns3:cad>
          </ns3:TrackPointExtension>
        </extensions>
      </trkpt>
      <trkpt lat="45.3144254721701145172119140625" lon="-71.04463418014347553253173828125">
        <ele>766.79998779296875</ele>
        <time>2026-08-21T21:54:01.000Z</time>
        <extensions>
          <ns3:TrackPointExtension>
            <ns3:hr>123</ns3:hr>
            <ns3:cad>79</ns3:cad>
          </ns3:TrackPointExtension>
        </extensions>
      </trkpt>
      <trkpt lat="45.314433686435222625732421875" lon="-71.04462428949773311614990234375">
        <ele>766.79998779296875</ele>
        <time>2026-08-21T21:54:02.000Z</time>
        <extensions>
          <ns3:TrackPointExtension>
            <ns3:hr>122</ns3:hr>
            <ns3:cad>79</ns3:cad>
          </ns3:TrackPointExtension>
        </extensions>
      </trkpt>
      <trkpt lat="45.31444810330867767333984375" lon="-71.0446148179471492767333984375">
        <ele>766.79998779296875</ele>
        <time>2026-08-21T21:54:03.000Z</time>
        <extensions>
          <ns3:TrackPointExtension>
            <ns3:hr>121</ns3:hr>
            <ns3:cad>79</ns3:cad>
          </ns3:TrackPointExtension>
        </extensions>
      </trkpt>
      <trkpt lat="45.31446226872503757476806640625" lon="-71.04460350237786769866943359375">
        <ele>766.79998779296875</ele>
        <time>2026-08-21T21:54:04.000Z</time>
        <extensions>
          <ns3:TrackPointExtension>
            <ns3:hr>120</ns3:hr>
            <ns3:cad>0</ns3:cad>
          </ns3:TrackPointExtension>
        </extensions>
      </trkpt>
      <trkpt lat="45.31447517685592174530029296875" lon="-71.04458682239055633544921875">
        <ele>766.79998779296875</ele>
        <time>2026-08-21T21:54:05.000Z</time>
        <extensions>
          <ns3:TrackPointExtension>
            <ns3:hr>120</ns3:hr>
            <ns3:cad>0</ns3:cad>
          </ns3:TrackPointExtension>
        </extensions>
      </trkpt>
      <trkpt lat="45.3144876658916473388671875" lon="-71.04457533918321132659912109375">
        <ele>766.5999755859375</ele>
        <time>2026-08-21T21:54:06.000Z</time>
        <extensions>
          <ns3:TrackPointExtension>
            <ns3:hr>120</ns3:hr>
            <ns3:cad>0</ns3:cad>
          </ns3:TrackPointExtension>
        </extensions>
      </trkpt>
      <trkpt lat="45.314500741660594940185546875" lon="-71.04456343688070774078369140625">
        <ele>766.4000244140625</ele>
        <time>2026-08-21T21:54:07.000Z</time>
        <extensions>
          <ns3:TrackPointExtension>
            <ns3:hr>121</ns3:hr>
            <ns3:cad>0</ns3:cad>
          </ns3:TrackPointExtension>
        </extensions>
      </trkpt>
      <trkpt lat="45.31451306305825710296630859375" lon="-71.04455186985433101654052734375">
        <ele>766.20001220703125</ele>
        <time>2026-08-21T21:54:08.000Z</time>
        <extensions>
          <ns3:TrackPointExtension>
            <ns3:hr>121</ns3:hr>
            <ns3:cad>0</ns3:cad>
          </ns3:TrackPointExtension>
        </extensions>
      </trkpt>
      <trkpt lat="45.314520858228206634521484375" lon="-71.04453929699957370758056640625">
        <ele>766</ele>
        <time>2026-08-21T21:54:09.000Z</time>
        <extensions>
          <ns3:TrackPointExtension>
            <ns3:hr>122</ns3:hr>
            <ns3:cad>0</ns3:cad>
          </ns3:TrackPointExtension>
        </extensions>
      </trkpt>
      <trkpt lat="45.31452999450266361236572265625" lon="-71.04453242383897304534912109375">
        <ele>765.79998779296875</ele>
        <time>2026-08-21T21:54:10.000Z</time>
        <extensions>
          <ns3:TrackPointExtension>
            <ns3:hr>122</ns3:hr>
            <ns3:cad>0</ns3:cad>
          </ns3:TrackPointExtension>
        </extensions>
      </trkpt>
      <trkpt lat="45.314539968967437744140625" lon="-71.04452555067837238311767578125">
        <ele>765.5999755859375</ele>
        <time>2026-08-21T21:54:11.000Z</time>
        <extensions>
          <ns3:TrackPointExtension>
            <ns3:hr>122</ns3:hr>
            <ns3:cad>0</ns3:cad>
          </ns3:TrackPointExtension>
        </extensions>
      </trkpt>
      <trkpt lat="45.31454273499548435211181640625" lon="-71.04452890343964099884033203125">
        <ele>765.4000244140625</ele>
        <time>2026-08-21T21:54:12.000Z</time>
        <extensions>
          <ns3:TrackPointExtension>
            <ns3:hr>122</ns3:hr>
            <ns3:cad>0</ns3:cad>
          </ns3:TrackPointExtension>
        </extensions>
      </trkpt>
      <trkpt lat="45.31454340554773807525634765625" lon="-71.04453762061893939971923828125">
        <ele>765</ele>
        <time>2026-08-21T21:54:13.000Z</time>
        <extensions>
          <ns3:TrackPointExtension>
            <ns3:hr>122</ns3:hr>
            <ns3:cad>0</ns3:cad>
          </ns3:TrackPointExtension>
        </extensions>
      </trkpt>
      <trkpt lat="45.3145465068519115447998046875" lon="-71.0445566475391387939453125">
        <ele>764.5999755859375</ele>
        <time>2026-08-21T21:54:14.000Z</time>
        <extensions>
          <ns3:TrackPointExtension>
            <ns3:hr>122</ns3:hr>
            <ns3:cad>0</ns3:cad>
          </ns3:TrackPointExtension>
        </extensions>
      </trkpt>
      <trkpt lat="45.3145491890609264373779296875" lon="-71.04456670582294464111328125">
        <ele>764.4000244140625</ele>
        <time>2026-08-21T21:54:15.000Z</time>
        <extensions>
          <ns3:TrackPointExtension>
            <ns3:hr>122</ns3:hr>
            <ns3:cad>0</ns3:cad>
          </ns3:TrackPointExtension>
        </extensions>
      </trkpt>
      <trkpt lat="45.314550697803497314453125" lon="-71.04456930421292781829833984375">
        <ele>764.20001220703125</ele>
        <time>2026-08-21T21:54:16.000Z</time>
        <extensions>
          <ns3:TrackPointExtension>
            <ns3:hr>122</ns3:hr>
            <ns3:cad>0</ns3:cad>
          </ns3:TrackPointExtension>
        </extensions>
      </trkpt>
      <trkpt lat="45.31455262564122676849365234375" lon="-71.04457433335483074188232421875">
        <ele>763.79998779296875</ele>
        <time>2026-08-21T21:54:17.000Z</time>
        <extensions>
          <ns3:TrackPointExtension>
            <ns3:hr>122</ns3:hr>
            <ns3:cad>0</ns3:cad>
          </ns3:TrackPointExtension>
        </extensions>
      </trkpt>
      <trkpt lat="45.3145532123744487762451171875" lon="-71.0445812903344631195068359375">
        <ele>763.5999755859375</ele>
        <time>2026-08-21T21:54:18.000Z</time>
        <extensions>
          <ns3:TrackPointExtension>
            <ns3:hr>121</ns3:hr>
            <ns3:cad>0</ns3:cad>
          </ns3:TrackPointExtension>
        </extensions>
      </trkpt>
      <trkpt lat="45.31455530785024166107177734375" lon="-71.04459579102694988250732421875">
        <ele>763.4000244140625</ele>
        <time>2026-08-21T21:54:19.000Z</time>
        <extensions>
          <ns3:TrackPointExtension>
            <ns3:hr>121</ns3:hr>
            <ns3:cad>0</ns3:cad>
          </ns3:TrackPointExtension>
        </extensions>
      </trkpt>
      <trkpt lat="45.31455547548830509185791015625" lon="-71.0446158237755298614501953125">
        <ele>763.20001220703125</ele>
        <time>2026-08-21T21:54:20.000Z</time>
        <extensions>
          <ns3:TrackPointExtension>
            <ns3:hr>121</ns3:hr>
            <ns3:cad>0</ns3:cad>
          </ns3:TrackPointExtension>
        </extensions>
      </trkpt>
      <trkpt lat="45.31455547548830509185791015625" lon="-71.044629402458667755126953125">
        <ele>762.79998779296875</ele>
        <time>2026-08-21T21:54:21.000Z</time>
        <extensions>
          <ns3:TrackPointExtension>
            <ns3:hr>120</ns3:hr>
            <ns3:cad>0</ns3:cad>
          </ns3:TrackPointExtension>
        </extensions>
      </trkpt>
      <trkpt lat="45.3145522065460681915283203125" lon="-71.04464658536016941070556640625">
        <ele>762.5999755859375</ele>
        <time>2026-08-21T21:54:22.000Z</time>
        <extensions>
          <ns3:TrackPointExtension>
            <ns3:hr>119</ns3:hr>
            <ns3:cad>0</ns3:cad>
          </ns3:TrackPointExtension>
        </extensions>
      </trkpt>
      <trkpt lat="45.314548350870609283447265625" lon="-71.04465379379689693450927734375">
        <ele>762.20001220703125</ele>
        <time>2026-08-21T21:54:23.000Z</time>
        <extensions>
          <ns3:TrackPointExtension>
            <ns3:hr>118</ns3:hr>
            <ns3:cad>0</ns3:cad>
          </ns3:TrackPointExtension>
        </extensions>
      </trkpt>
      <trkpt lat="45.31454055570065975189208984375" lon="-71.0446714796125888824462890625">
        <ele>762</ele>
        <time>2026-08-21T21:54:24.000Z</time>
        <extensions>
          <ns3:TrackPointExtension>
            <ns3:hr>118</ns3:hr>
            <ns3:cad>0</ns3:cad>
          </ns3:TrackPointExtension>
        </extensions>
      </trkpt>
      <trkpt lat="45.31453385017812252044677734375" lon="-71.04468178935348987579345703125">
        <ele>761.79998779296875</ele>
        <time>2026-08-21T21:54:25.000Z</time>
        <extensions>
          <ns3:TrackPointExtension>
            <ns3:hr>118</ns3:hr>
            <ns3:cad>0</ns3:cad>
          </ns3:TrackPointExtension>
        </extensions>
      </trkpt>
      <trkpt lat="45.31452982686460018157958984375" lon="-71.044691763818264007568359375">
        <ele>761.79998779296875</ele>
        <time>2026-08-21T21:54:26.000Z</time>
        <extensions>
          <ns3:TrackPointExtension>
            <ns3:hr>118</ns3:hr>
            <ns3:cad>68</ns3:cad>
          </ns3:TrackPointExtension>
        </extensions>
      </trkpt>
      <trkpt lat="45.3145252168178558349609375" lon="-71.04470039717853069305419921875">
        <ele>761.79998779296875</ele>
        <time>2026-08-21T21:54:27.000Z</time>
        <extensions>
          <ns3:TrackPointExtension>
            <ns3:hr>118</ns3:hr>
            <ns3:cad>68</ns3:cad>
          </ns3:TrackPointExtension>
        </extensions>
      </trkpt>
      <trkpt lat="45.3145225346088409423828125" lon="-71.0447113774716854095458984375">
        <ele>761.5999755859375</ele>
        <time>2026-08-21T21:54:28.000Z</time>
        <extensions>
          <ns3:TrackPointExtension>
            <ns3:hr>117</ns3:hr>
            <ns3:cad>70</ns3:cad>
          </ns3:TrackPointExtension>
        </extensions>
      </trkpt>
      <trkpt lat="45.3145225346088409423828125" lon="-71.044725961983203887939453125">
        <ele>761.4000244140625</ele>
        <time>2026-08-21T21:54:29.000Z</time>
        <extensions>
          <ns3:TrackPointExtension>
            <ns3:hr>118</ns3:hr>
            <ns3:cad>70</ns3:cad>
          </ns3:TrackPointExtension>
        </extensions>
      </trkpt>
      <trkpt lat="45.314520187675952911376953125" lon="-71.04473643936216831207275390625">
        <ele>761.20001220703125</ele>
        <time>2026-08-21T21:54:30.000Z</time>
        <extensions>
          <ns3:TrackPointExtension>
            <ns3:hr>117</ns3:hr>
            <ns3:cad>70</ns3:cad>
          </ns3:TrackPointExtension>
        </extensions>
      </trkpt>
      <trkpt lat="45.31452144496142864227294921875" lon="-71.04475638829171657562255859375">
        <ele>760.79998779296875</ele>
        <time>2026-08-21T21:54:31.000Z</time>
        <extensions>
          <ns3:TrackPointExtension>
            <ns3:hr>117</ns3:hr>
            <ns3:cad>70</ns3:cad>
          </ns3:TrackPointExtension>
        </extensions>
      </trkpt>
      <trkpt lat="45.314524210989475250244140625" lon="-71.0447653569281101226806640625">
        <ele>760.4000244140625</ele>
        <time>2026-08-21T21:54:32.000Z</time>
        <extensions>
          <ns3:TrackPointExtension>
            <ns3:hr>117</ns3:hr>
            <ns3:cad>70</ns3:cad>
          </ns3:TrackPointExtension>
        </extensions>
      </trkpt>
      <trkpt lat="45.31452429480850696563720703125" lon="-71.04477994143962860107421875">
        <ele>760</ele>
        <time>2026-08-21T21:54:33.000Z</time>
        <extensions>
          <ns3:TrackPointExtension>
            <ns3:hr>117</ns3:hr>
            <ns3:cad>0</ns3:cad>
          </ns3:TrackPointExtension>
        </extensions>
      </trkpt>
      <trkpt lat="45.31452454626560211181640625" lon="-71.04479678906500339508056640625">
        <ele>759.5999755859375</ele>
        <time>2026-08-21T21:54:34.000Z</time>
        <extensions>
          <ns3:TrackPointExtension>
            <ns3:hr>117</ns3:hr>
            <ns3:cad>0</ns3:cad>
          </ns3:TrackPointExtension>
        </extensions>
      </trkpt>
      <trkpt lat="45.3145250491797924041748046875" lon="-71.04480919428169727325439453125">
        <ele>759.20001220703125</ele>
        <time>2026-08-21T21:54:35.000Z</time>
        <extensions>
          <ns3:TrackPointExtension>
            <ns3:hr>117</ns3:hr>
            <ns3:cad>0</ns3:cad>
          </ns3:TrackPointExtension>
        </extensions>
      </trkpt>
      <trkpt lat="45.31452043913304805755615234375" lon="-71.04482679627835750579833984375">
        <ele>759</ele>
        <time>2026-08-21T21:54:36.000Z</time>
        <extensions>
          <ns3:TrackPointExtension>
            <ns3:hr>116</ns3:hr>
            <ns3:cad>65</ns3:cad>
          </ns3:TrackPointExtension>
        </extensions>
      </trkpt>
      <trkpt lat="45.3145180083811283111572265625" lon="-71.044846661388874053955078125">
        <ele>758.79998779296875</ele>
        <time>2026-08-21T21:54:37.000Z</time>
        <extensions>
          <ns3:TrackPointExtension>
            <ns3:hr>116</ns3:hr>
            <ns3:cad>65</ns3:cad>
          </ns3:TrackPointExtension>
        </extensions>
      </trkpt>
      <trkpt lat="45.31451792456209659576416015625" lon="-71.044859401881694793701171875">
        <ele>758.4000244140625</ele>
        <time>2026-08-21T21:54:38.000Z</time>
        <extensions>
          <ns3:TrackPointExtension>
            <ns3:hr>116</ns3:hr>
            <ns3:cad>0</ns3:cad>
          </ns3:TrackPointExtension>
        </extensions>
      </trkpt>
      <trkpt lat="45.31451809220016002655029296875" lon="-71.04487918317317962646484375">
        <ele>758.20001220703125</ele>
        <time>2026-08-21T21:54:39.000Z</time>
        <extensions>
          <ns3:TrackPointExtension>
            <ns3:hr>116</ns3:hr>
            <ns3:cad>0</ns3:cad>
          </ns3:TrackPointExtension>
        </extensions>
      </trkpt>
      <trkpt lat="45.314518176019191741943359375" lon="-71.04490089230239391326904296875">
        <ele>757.79998779296875</ele>
        <time>2026-08-21T21:54:40.000Z</time>
        <extensions>
          <ns3:TrackPointExtension>
            <ns3:hr>115</ns3:hr>
            <ns3:cad>0</ns3:cad>
          </ns3:TrackPointExtension>
        </extensions>
      </trkpt>
      <trkpt lat="45.3145200200378894805908203125" lon="-71.0449135489761829376220703125">
        <ele>757.5999755859375</ele>
        <time>2026-08-21T21:54:41.000Z</time>
        <extensions>
          <ns3:TrackPointExtension>
            <ns3:hr>115</ns3:hr>
            <ns3:cad>0</ns3:cad>
          </ns3:TrackPointExtension>
        </extensions>
      </trkpt>
      <trkpt lat="45.31451876275241374969482421875" lon="-71.04492872022092342376708984375">
        <ele>757</ele>
        <time>2026-08-21T21:54:42.000Z</time>
        <extensions>
          <ns3:TrackPointExtension>
            <ns3:hr>115</ns3:hr>
            <ns3:cad>0</ns3:cad>
          </ns3:TrackPointExtension>
        </extensions>
      </trkpt>
      <trkpt lat="45.31451909802854061126708984375" lon="-71.0449524410068988800048828125">
        <ele>756.5999755859375</ele>
        <time>2026-08-21T21:54:43.000Z</time>
        <extensions>
          <ns3:TrackPointExtension>
            <ns3:hr>116</ns3:hr>
            <ns3:cad>0</ns3:cad>
          </ns3:TrackPointExtension>
        </extensions>
      </trkpt>
      <trkpt lat="45.31452496536076068878173828125" lon="-71.04497264139354228973388671875">
        <ele>756.20001220703125</ele>
        <time>2026-08-21T21:54:44.000Z</time>
        <extensions>
          <ns3:TrackPointExtension>
            <ns3:hr>116</ns3:hr>
            <ns3:cad>0</ns3:cad>
          </ns3:TrackPointExtension>
        </extensions>
      </trkpt>
      <trkpt lat="45.31452999450266361236572265625" lon="-71.04498722590506076812744140625">
        <ele>755.79998779296875</ele>
        <time>2026-08-21T21:54:45.000Z</time>
        <extensions>
          <ns3:TrackPointExtension>
            <ns3:hr>116</ns3:hr>
            <ns3:cad>0</ns3:cad>
          </ns3:TrackPointExtension>
        </extensions>
      </trkpt>
      <trkpt lat="45.31453586183488368988037109375" lon="-71.045005582273006439208984375">
        <ele>755.4000244140625</ele>
        <time>2026-08-21T21:54:46.000Z</time>
        <extensions>
          <ns3:TrackPointExtension>
            <ns3:hr>116</ns3:hr>
            <ns3:cad>0</ns3:cad>
          </ns3:TrackPointExtension>
        </extensions>
      </trkpt>
      <trkpt lat="45.3145468421280384063720703125" lon="-71.0450184904038906097412109375">
        <ele>754.79998779296875</ele>
        <time>2026-08-21T21:54:47.000Z</time>
        <extensions>
          <ns3:TrackPointExtension>
            <ns3:hr>116</ns3:hr>
            <ns3:cad>0</ns3:cad>
          </ns3:TrackPointExtension>
        </extensions>
      </trkpt>
      <trkpt lat="45.31455312855541706085205078125" lon="-71.04503584094345569610595703125">
        <ele>754.4000244140625</ele>
        <time>2026-08-21T21:54:48.000Z</time>
        <extensions>
          <ns3:TrackPointExtension>
            <ns3:hr>116</ns3:hr>
            <ns3:cad>0</ns3:cad>
          </ns3:TrackPointExtension>
        </extensions>
      </trkpt>
      <trkpt lat="45.31455933116376399993896484375" lon="-71.04504824616014957427978515625">
        <ele>753.79998779296875</ele>
        <time>2026-08-21T21:54:49.000Z</time>
        <extensions>
          <ns3:TrackPointExtension>
            <ns3:hr>116</ns3:hr>
            <ns3:cad>0</ns3:cad>
          </ns3:TrackPointExtension>
        </extensions>
      </trkpt>
      <trkpt lat="45.314563103020191192626953125" lon="-71.04505880735814571380615234375">
        <ele>753.4000244140625</ele>
        <time>2026-08-21T21:54:50.000Z</time>
        <extensions>
          <ns3:TrackPointExtension>
            <ns3:hr>116</ns3:hr>
            <ns3:cad>0</ns3:cad>
          </ns3:TrackPointExtension>
        </extensions>
      </trkpt>
      <trkpt lat="45.31456804834306240081787109375" lon="-71.0450728051364421844482421875">
        <ele>753</ele>
        <time>2026-08-21T21:54:51.000Z</time>
        <extensions>
          <ns3:TrackPointExtension>
            <ns3:hr>115</ns3:hr>
            <ns3:cad>0</ns3:cad>
          </ns3:TrackPointExtension>
        </extensions>
      </trkpt>
      <trkpt lat="45.3145793639123439788818359375" lon="-71.04508965276181697845458984375">
        <ele>752.5999755859375</ele>
        <time>2026-08-21T21:54:52.000Z</time>
        <extensions>
          <ns3:TrackPointExtension>
            <ns3:hr>115</ns3:hr>
            <ns3:cad>0</ns3:cad>
          </ns3:TrackPointExtension>
        </extensions>
      </trkpt>
      <trkpt lat="45.314589925110340118408203125" lon="-71.04510608129203319549560546875">
        <ele>752.20001220703125</ele>
        <time>2026-08-21T21:54:53.000Z</time>
        <extensions>
          <ns3:TrackPointExtension>
            <ns3:hr>116</ns3:hr>
            <ns3:cad>0</ns3:cad>
          </ns3:TrackPointExtension>
        </extensions>
      </trkpt>
      <trkpt lat="45.31459805555641651153564453125" lon="-71.04512033052742481231689453125">
        <ele>751.79998779296875</ele>
        <time>2026-08-21T21:54:54.000Z</time>
        <extensions>
          <ns3:TrackPointExtension>
            <ns3:hr>117</ns3:hr>
            <ns3:cad>0</ns3:cad>
          </ns3:TrackPointExtension>
        </extensions>
      </trkpt>
      <trkpt lat="45.31460710801184177398681640625" lon="-71.04513131082057952880859375">
        <ele>751.4000244140625</ele>
        <time>2026-08-21T21:54:55.000Z</time>
        <extensions>
          <ns3:TrackPointExtension>
            <ns3:hr>118</ns3:hr>
            <ns3:cad>0</ns3:cad>
          </ns3:TrackPointExtension>
        </extensions>
      </trkpt>
      <trkpt lat="45.31462135724723339080810546875" lon="-71.0451440513134002685546875">
        <ele>751</ele>
        <time>2026-08-21T21:54:56.000Z</time>
        <extensions>
          <ns3:TrackPointExtension>
            <ns3:hr>118</ns3:hr>
            <ns3:cad>0</ns3:cad>
          </ns3:TrackPointExtension>
        </extensions>
      </trkpt>
      <trkpt lat="45.314640216529369354248046875" lon="-71.04515586979687213897705078125">
        <ele>750.4000244140625</ele>
        <time>2026-08-21T21:54:57.000Z</time>
        <extensions>
          <ns3:TrackPointExtension>
            <ns3:hr>117</ns3:hr>
            <ns3:cad>71</ns3:cad>
          </ns3:TrackPointExtension>
        </extensions>
      </trkpt>
      <trkpt lat="45.31464817933738231658935546875" lon="-71.04516693390905857086181640625">
        <ele>750</ele>
        <time>2026-08-21T21:54:58.000Z</time>
        <extensions>
          <ns3:TrackPointExtension>
            <ns3:hr>117</ns3:hr>
            <ns3:cad>77</ns3:cad>
          </ns3:TrackPointExtension>
        </extensions>
      </trkpt>
      <trkpt lat="45.3146561421453952789306640625" lon="-71.04517648927867412567138671875">
        <ele>749.5999755859375</ele>
        <time>2026-08-21T21:54:59.000Z</time>
        <extensions>
          <ns3:TrackPointExtension>
            <ns3:hr>117</ns3:hr>
            <ns3:cad>77</ns3:cad>
          </ns3:TrackPointExtension>
        </extensions>
      </trkpt>
      <trkpt lat="45.31466695480048656463623046875" lon="-71.04518755339086055755615234375">
        <ele>749</ele>
        <time>2026-08-21T21:55:00.000Z</time>
        <extensions>
          <ns3:TrackPointExtension>
            <ns3:hr>118</ns3:hr>
            <ns3:cad>78</ns3:cad>
          </ns3:TrackPointExtension>
        </extensions>
      </trkpt>
      <trkpt lat="45.31467567197978496551513671875" lon="-71.04520465247333049774169921875">
        <ele>748.5999755859375</ele>
        <time>2026-08-21T21:55:01.000Z</time>
        <extensions>
          <ns3:TrackPointExtension>
            <ns3:hr>118</ns3:hr>
            <ns3:cad>78</ns3:cad>
          </ns3:TrackPointExtension>
        </extensions>
      </trkpt>
      <trkpt lat="45.31468212604522705078125" lon="-71.0452186502516269683837890625">
        <ele>748.4000244140625</ele>
        <time>2026-08-21T21:55:02.000Z</time>
        <extensions>
          <ns3:TrackPointExtension>
            <ns3:hr>118</ns3:hr>
            <ns3:cad>78</ns3:cad>
          </ns3:TrackPointExtension>
        </extensions>
      </trkpt>
      <trkpt lat="45.31468640081584453582763671875" lon="-71.04523725807666778564453125">
        <ele>748</ele>
        <time>2026-08-21T21:55:03.000Z</time>
        <extensions>
          <ns3:TrackPointExtension>
            <ns3:hr>120</ns3:hr>
            <ns3:cad>40</ns3:cad>
          </ns3:TrackPointExtension>
        </extensions>
      </trkpt>
      <trkpt lat="45.3146846406161785125732421875" lon="-71.0452501662075519561767578125">
        <ele>747.5999755859375</ele>
        <time>2026-08-21T21:55:04.000Z</time>
        <extensions>
          <ns3:TrackPointExtension>
            <ns3:hr>122</ns3:hr>
            <ns3:cad>40</ns3:cad>
          </ns3:TrackPointExtension>
        </extensions>
      </trkpt>
      <trkpt lat="45.3146859817206859588623046875" lon="-71.04526332579553127288818359375">
        <ele>747.20001220703125</ele>
        <time>2026-08-21T21:55:05.000Z</time>
        <extensions>
          <ns3:TrackPointExtension>
            <ns3:hr>122</ns3:hr>
            <ns3:cad>40</ns3:cad>
          </ns3:TrackPointExtension>
        </extensions>
      </trkpt>
      <trkpt lat="45.31468556262552738189697265625" lon="-71.045271120965480804443359375">
        <ele>746.79998779296875</ele>
        <time>2026-08-21T21:55:06.000Z</time>
        <extensions>
          <ns3:TrackPointExtension>
            <ns3:hr>123</ns3:hr>
            <ns3:cad>40</ns3:cad>
          </ns3:TrackPointExtension>
        </extensions>
      </trkpt>
      <trkpt lat="45.31468681991100311279296875" lon="-71.045287884771823883056640625">
        <ele>746.4000244140625</ele>
        <time>2026-08-21T21:55:07.000Z</time>
        <extensions>
          <ns3:TrackPointExtension>
            <ns3:hr>123</ns3:hr>
            <ns3:cad>0</ns3:cad>
          </ns3:TrackPointExtension>
        </extensions>
      </trkpt>
      <trkpt lat="45.31468841247260570526123046875" lon="-71.045307330787181854248046875">
        <ele>746</ele>
        <time>2026-08-21T21:55:08.000Z</time>
        <extensions>
          <ns3:TrackPointExtension>
            <ns3:hr>123</ns3:hr>
            <ns3:cad>0</ns3:cad>
          </ns3:TrackPointExtension>
        </extensions>
      </trkpt>
      <trkpt lat="45.31468925066292285919189453125" lon="-71.0453235916793346405029296875">
        <ele>745.5999755859375</ele>
        <time>2026-08-21T21:55:09.000Z</time>
        <extensions>
          <ns3:TrackPointExtension>
            <ns3:hr>122</ns3:hr>
            <ns3:cad>0</ns3:cad>
          </ns3:TrackPointExtension>
        </extensions>
      </trkpt>
      <trkpt lat="45.314694531261920928955078125" lon="-71.04533976875245571136474609375">
        <ele>745.20001220703125</ele>
        <time>2026-08-21T21:55:10.000Z</time>
        <extensions>
          <ns3:TrackPointExtension>
            <ns3:hr>121</ns3:hr>
            <ns3:cad>0</ns3:cad>
          </ns3:TrackPointExtension>
        </extensions>
      </trkpt>
      <trkpt lat="45.3147014044225215911865234375" lon="-71.04535116814076900482177734375">
        <ele>745</ele>
        <time>2026-08-21T21:55:11.000Z</time>
        <extensions>
          <ns3:TrackPointExtension>
            <ns3:hr>120</ns3:hr>
            <ns3:cad>0</ns3:cad>
          </ns3:TrackPointExtension>
        </extensions>
      </trkpt>
      <trkpt lat="45.31470970250666141510009765625" lon="-71.04537262581288814544677734375">
        <ele>744.5999755859375</ele>
        <time>2026-08-21T21:55:12.000Z</time>
        <extensions>
          <ns3:TrackPointExtension>
            <ns3:hr>119</ns3:hr>
            <ns3:cad>0</ns3:cad>
          </ns3:TrackPointExtension>
        </extensions>
      </trkpt>
      <trkpt lat="45.31471389345824718475341796875" lon="-71.04538771323859691619873046875">
        <ele>744.20001220703125</ele>
        <time>2026-08-21T21:55:13.000Z</time>
        <extensions>
          <ns3:TrackPointExtension>
            <ns3:hr>119</ns3:hr>
            <ns3:cad>0</ns3:cad>
          </ns3:TrackPointExtension>
        </extensions>
      </trkpt>
      <trkpt lat="45.31471959315240383148193359375" lon="-71.0454074107110500335693359375">
        <ele>743.79998779296875</ele>
        <time>2026-08-21T21:55:14.000Z</time>
        <extensions>
          <ns3:TrackPointExtension>
            <ns3:hr>119</ns3:hr>
            <ns3:cad>0</ns3:cad>
          </ns3:TrackPointExtension>
        </extensions>
      </trkpt>
      <trkpt lat="45.31472646631300449371337890625" lon="-71.0454281978309154510498046875">
        <ele>743.4000244140625</ele>
        <time>2026-08-21T21:55:15.000Z</time>
        <extensions>
          <ns3:TrackPointExtension>
            <ns3:hr>119</ns3:hr>
            <ns3:cad>0</ns3:cad>
          </ns3:TrackPointExtension>
        </extensions>
      </trkpt>
      <trkpt lat="45.3147335909307003021240234375" lon="-71.04544303379952907562255859375">
        <ele>743</ele>
        <time>2026-08-21T21:55:16.000Z</time>
        <extensions>
          <ns3:TrackPointExtension>
            <ns3:hr>120</ns3:hr>
            <ns3:cad>0</ns3:cad>
          </ns3:TrackPointExtension>
        </extensions>
      </trkpt>
      <trkpt lat="45.3147392906248569488525390625" lon="-71.04545845650136470794677734375">
        <ele>742.5999755859375</ele>
        <time>2026-08-21T21:55:17.000Z</time>
        <extensions>
          <ns3:TrackPointExtension>
            <ns3:hr>119</ns3:hr>
            <ns3:cad>0</ns3:cad>
          </ns3:TrackPointExtension>
        </extensions>
      </trkpt>
      <trkpt lat="45.314748175442218780517578125" lon="-71.04548812843859195709228515625">
        <ele>742.20001220703125</ele>
        <time>2026-08-21T21:55:18.000Z</time>
        <extensions>
          <ns3:TrackPointExtension>
            <ns3:hr>119</ns3:hr>
            <ns3:cad>0</ns3:cad>
          </ns3:TrackPointExtension>
        </extensions>
      </trkpt>
      <trkpt lat="45.3147547133266925811767578125" lon="-71.04550355114042758941650390625">
        <ele>741.5999755859375</ele>
        <time>2026-08-21T21:55:19.000Z</time>
        <extensions>
          <ns3:TrackPointExtension>
            <ns3:hr>119</ns3:hr>
            <ns3:cad>0</ns3:cad>
          </ns3:TrackPointExtension>
        </extensions>
      </trkpt>
      <trkpt lat="45.3147647716104984283447265625" lon="-71.0455193929374217987060546875">
        <ele>741.20001220703125</ele>
        <time>2026-08-21T21:55:20.000Z</time>
        <extensions>
          <ns3:TrackPointExtension>
            <ns3:hr>119</ns3:hr>
            <ns3:cad>0</ns3:cad>
          </ns3:TrackPointExtension>
        </extensions>
      </trkpt>
      <trkpt lat="45.314772985875606536865234375" lon="-71.04553255252540111541748046875">
        <ele>740.79998779296875</ele>
        <time>2026-08-21T21:55:21.000Z</time>
        <extensions>
          <ns3:TrackPointExtension>
            <ns3:hr>119</ns3:hr>
            <ns3:cad>0</ns3:cad>
          </ns3:TrackPointExtension>
        </extensions>
      </trkpt>
      <trkpt lat="45.314786396920680999755859375" lon="-71.04554411955177783966064453125">
        <ele>740.4000244140625</ele>
        <time>2026-08-21T21:55:22.000Z</time>
        <extensions>
          <ns3:TrackPointExtension>
            <ns3:hr>119</ns3:hr>
            <ns3:cad>0</ns3:cad>
          </ns3:TrackPointExtension>
        </extensions>
      </trkpt>
      <trkpt lat="45.31479167751967906951904296875" lon="-71.04555887170135974884033203125">
        <ele>739.79998779296875</ele>
        <time>2026-08-21T21:55:23.000Z</time>
        <extensions>
          <ns3:TrackPointExtension>
            <ns3:hr>118</ns3:hr>
            <ns3:cad>0</ns3:cad>
          </ns3:TrackPointExtension>
        </extensions>
      </trkpt>
      <trkpt lat="45.31479888595640659332275390625" lon="-71.0455784015357494354248046875">
        <ele>739.20001220703125</ele>
        <time>2026-08-21T21:55:24.000Z</time>
        <extensions>
          <ns3:TrackPointExtension>
            <ns3:hr>119</ns3:hr>
            <ns3:cad>41</ns3:cad>
          </ns3:TrackPointExtension>
        </extensions>
      </trkpt>
      <trkpt lat="45.31480357982218265533447265625" lon="-71.04559390805661678314208984375">
        <ele>738.5999755859375</ele>
        <time>2026-08-21T21:55:25.000Z</time>
        <extensions>
          <ns3:TrackPointExtension>
            <ns3:hr>119</ns3:hr>
            <ns3:cad>41</ns3:cad>
          </ns3:TrackPointExtension>
        </extensions>
      </trkpt>
      <trkpt lat="45.31481179408729076385498046875" lon="-71.045612432062625885009765625">
        <ele>738</ele>
        <time>2026-08-21T21:55:26.000Z</time>
        <extensions>
          <ns3:TrackPointExtension>
            <ns3:hr>120</ns3:hr>
            <ns3:cad>41</ns3:cad>
          </ns3:TrackPointExtension>
        </extensions>
      </trkpt>
      <trkpt lat="45.314820595085620880126953125" lon="-71.045630536973476409912109375">
        <ele>737.5999755859375</ele>
        <time>2026-08-21T21:55:27.000Z</time>
        <extensions>
          <ns3:TrackPointExtension>
            <ns3:hr>120</ns3:hr>
            <ns3:cad>41</ns3:cad>
          </ns3:TrackPointExtension>
        </extensions>
      </trkpt>
      <trkpt lat="45.314835347235202789306640625" lon="-71.04565031826496124267578125">
        <ele>737</ele>
        <time>2026-08-21T21:55:28.000Z</time>
        <extensions>
          <ns3:TrackPointExtension>
            <ns3:hr>120</ns3:hr>
            <ns3:cad>41</ns3:cad>
          </ns3:TrackPointExtension>
        </extensions>
      </trkpt>
      <trkpt lat="45.31485118903219699859619140625" lon="-71.045676134526729583740234375">
        <ele>736.5999755859375</ele>
        <time>2026-08-21T21:55:29.000Z</time>
        <extensions>
          <ns3:TrackPointExtension>
            <ns3:hr>120</ns3:hr>
            <ns3:cad>42</ns3:cad>
          </ns3:TrackPointExtension>
        </extensions>
      </trkpt>
      <trkpt lat="45.31486828811466693878173828125" lon="-71.04570622555911540985107421875">
        <ele>736</ele>
        <time>2026-08-21T21:55:30.000Z</time>
        <extensions>
          <ns3:TrackPointExtension>
            <ns3:hr>120</ns3:hr>
            <ns3:cad>42</ns3:cad>
          </ns3:TrackPointExtension>
        </extensions>
      </trkpt>
      <trkpt lat="45.314882285892963409423828125" lon="-71.04572407901287078857421875">
        <ele>735.5999755859375</ele>
        <time>2026-08-21T21:55:31.000Z</time>
        <extensions>
          <ns3:TrackPointExtension>
            <ns3:hr>120</ns3:hr>
            <ns3:cad>42</ns3:cad>
          </ns3:TrackPointExtension>
        </extensions>
      </trkpt>
      <trkpt lat="45.31490550376474857330322265625" lon="-71.04573749005794525146484375">
        <ele>735.20001220703125</ele>
        <time>2026-08-21T21:55:32.000Z</time>
        <extensions>
          <ns3:TrackPointExtension>
            <ns3:hr>120</ns3:hr>
            <ns3:cad>42</ns3:cad>
          </ns3:TrackPointExtension>
        </extensions>
      </trkpt>
      <trkpt lat="45.31492277048528194427490234375" lon="-71.04575182311236858367919921875">
        <ele>735</ele>
        <time>2026-08-21T21:55:33.000Z</time>
        <extensions>
          <ns3:TrackPointExtension>
            <ns3:hr>121</ns3:hr>
            <ns3:cad>42</ns3:cad>
          </ns3:TrackPointExtension>
        </extensions>
      </trkpt>
      <trkpt lat="45.3149387799203395843505859375" lon="-71.04576271958649158477783203125">
        <ele>734.5999755859375</ele>
        <time>2026-08-21T21:55:34.000Z</time>
        <extensions>
          <ns3:TrackPointExtension>
            <ns3:hr>121</ns3:hr>
            <ns3:cad>40</ns3:cad>
          </ns3:TrackPointExtension>
        </extensions>
      </trkpt>
      <trkpt lat="45.31494925729930400848388671875" lon="-71.0457775555551052093505859375">
        <ele>734.20001220703125</ele>
        <time>2026-08-21T21:55:35.000Z</time>
        <extensions>
          <ns3:TrackPointExtension>
            <ns3:hr>122</ns3:hr>
            <ns3:cad>40</ns3:cad>
          </ns3:TrackPointExtension>
        </extensions>
      </trkpt>
      <trkpt lat="45.31496568582952022552490234375" lon="-71.045792810618877410888671875">
        <ele>733.79998779296875</ele>
        <time>2026-08-21T21:55:36.000Z</time>
        <extensions>
          <ns3:TrackPointExtension>
            <ns3:hr>122</ns3:hr>
            <ns3:cad>40</ns3:cad>
          </ns3:TrackPointExtension>
        </extensions>
      </trkpt>
      <trkpt lat="45.31497674994170665740966796875" lon="-71.04580077342689037322998046875">
        <ele>733.4000244140625</ele>
        <time>2026-08-21T21:55:37.000Z</time>
        <extensions>
          <ns3:TrackPointExtension>
            <ns3:hr>123</ns3:hr>
            <ns3:cad>40</ns3:cad>
          </ns3:TrackPointExtension>
        </extensions>
      </trkpt>
      <trkpt lat="45.314990915358066558837890625" lon="-71.045807898044586181640625">
        <ele>733</ele>
        <time>2026-08-21T21:55:38.000Z</time>
        <extensions>
          <ns3:TrackPointExtension>
            <ns3:hr>123</ns3:hr>
            <ns3:cad>79</ns3:cad>
          </ns3:TrackPointExtension>
        </extensions>
      </trkpt>
      <trkpt lat="45.3150106966495513916015625" lon="-71.04582223109900951385498046875">
        <ele>732.5999755859375</ele>
        <time>2026-08-21T21:55:39.000Z</time>
        <extensions>
          <ns3:TrackPointExtension>
            <ns3:hr>123</ns3:hr>
            <ns3:cad>79</ns3:cad>
          </ns3:TrackPointExtension>
        </extensions>
      </trkpt>
      <trkpt lat="45.31502787955105304718017578125" lon="-71.04583228938281536102294921875">
        <ele>732.20001220703125</ele>
        <time>2026-08-21T21:55:40.000Z</time>
        <extensions>
          <ns3:TrackPointExtension>
            <ns3:hr>123</ns3:hr>
            <ns3:cad>79</ns3:cad>
          </ns3:TrackPointExtension>
        </extensions>
      </trkpt>
      <trkpt lat="45.31504221260547637939453125" lon="-71.04584477841854095458984375">
        <ele>732</ele>
        <time>2026-08-21T21:55:41.000Z</time>
        <extensions>
          <ns3:TrackPointExtension>
            <ns3:hr>123</ns3:hr>
            <ns3:cad>79</ns3:cad>
          </ns3:TrackPointExtension>
        </extensions>
      </trkpt>
      <trkpt lat="45.31505436636507511138916015625" lon="-71.0458526574075222015380859375">
        <ele>731.79998779296875</ele>
        <time>2026-08-21T21:55:42.000Z</time>
        <extensions>
          <ns3:TrackPointExtension>
            <ns3:hr>124</ns3:hr>
            <ns3:cad>79</ns3:cad>
          </ns3:TrackPointExtension>
        </extensions>
      </trkpt>
      <trkpt lat="45.31506844796240329742431640625" lon="-71.04585777036845684051513671875">
        <ele>731.4000244140625</ele>
        <time>2026-08-21T21:55:43.000Z</time>
        <extensions>
          <ns3:TrackPointExtension>
            <ns3:hr>124</ns3:hr>
            <ns3:cad>75</ns3:cad>
          </ns3:TrackPointExtension>
        </extensions>
      </trkpt>
      <trkpt lat="45.31508646905422210693359375" lon="-71.04586028493940830230712890625">
        <ele>731.20001220703125</ele>
        <time>2026-08-21T21:55:44.000Z</time>
        <extensions>
          <ns3:TrackPointExtension>
            <ns3:hr>124</ns3:hr>
            <ns3:cad>75</ns3:cad>
          </ns3:TrackPointExtension>
        </extensions>
      </trkpt>
      <trkpt lat="45.31510465778410434722900390625" lon="-71.04585927911102771759033203125">
        <ele>730.79998779296875</ele>
        <time>2026-08-21T21:55:45.000Z</time>
        <extensions>
          <ns3:TrackPointExtension>
            <ns3:hr>124</ns3:hr>
            <ns3:cad>75</ns3:cad>
          </ns3:TrackPointExtension>
        </extensions>
      </trkpt>
      <trkpt lat="45.31512142159044742584228515625" lon="-71.04585844092071056365966796875">
        <ele>730.4000244140625</ele>
        <time>2026-08-21T21:55:46.000Z</time>
        <extensions>
          <ns3:TrackPointExtension>
            <ns3:hr>124</ns3:hr>
            <ns3:cad>75</ns3:cad>
          </ns3:TrackPointExtension>
        </extensions>
      </trkpt>
      <trkpt lat="45.31513399444520473480224609375" lon="-71.04586263187229633331298828125">
        <ele>730.20001220703125</ele>
        <time>2026-08-21T21:55:47.000Z</time>
        <extensions>
          <ns3:TrackPointExtension>
            <ns3:hr>124</ns3:hr>
            <ns3:cad>75</ns3:cad>
          </ns3:TrackPointExtension>
        </extensions>
      </trkpt>
      <trkpt lat="45.3151446394622325897216796875" lon="-71.04586732573807239532470703125">
        <ele>729.79998779296875</ele>
        <time>2026-08-21T21:55:48.000Z</time>
        <extensions>
          <ns3:TrackPointExtension>
            <ns3:hr>123</ns3:hr>
            <ns3:cad>75</ns3:cad>
          </ns3:TrackPointExtension>
        </extensions>
      </trkpt>
      <trkpt lat="45.3151557035744190216064453125" lon="-71.04586489498615264892578125">
        <ele>729.4000244140625</ele>
        <time>2026-08-21T21:55:49.000Z</time>
        <extensions>
          <ns3:TrackPointExtension>
            <ns3:hr>123</ns3:hr>
            <ns3:cad>75</ns3:cad>
          </ns3:TrackPointExtension>
        </extensions>
      </trkpt>
      <trkpt lat="45.31517607159912586212158203125" lon="-71.04586430825293064117431640625">
        <ele>729.20001220703125</ele>
        <time>2026-08-21T21:55:50.000Z</time>
        <extensions>
          <ns3:TrackPointExtension>
            <ns3:hr>122</ns3:hr>
            <ns3:cad>75</ns3:cad>
          </ns3:TrackPointExtension>
        </extensions>
      </trkpt>
      <trkpt lat="45.31518981792032718658447265625" lon="-71.04586313478648662567138671875">
        <ele>728.79998779296875</ele>
        <time>2026-08-21T21:55:51.000Z</time>
        <extensions>
          <ns3:TrackPointExtension>
            <ns3:hr>122</ns3:hr>
            <ns3:cad>75</ns3:cad>
          </ns3:TrackPointExtension>
        </extensions>
      </trkpt>
      <trkpt lat="45.3152023069560527801513671875" lon="-71.04586162604391574859619140625">
        <ele>728.5999755859375</ele>
        <time>2026-08-21T21:55:52.000Z</time>
        <extensions>
          <ns3:TrackPointExtension>
            <ns3:hr>121</ns3:hr>
            <ns3:cad>75</ns3:cad>
          </ns3:TrackPointExtension>
        </extensions>
      </trkpt>
      <trkpt lat="45.3152199089527130126953125" lon="-71.04585844092071056365966796875">
        <ele>728.4000244140625</ele>
        <time>2026-08-21T21:55:53.000Z</time>
        <extensions>
          <ns3:TrackPointExtension>
            <ns3:hr>120</ns3:hr>
            <ns3:cad>75</ns3:cad>
          </ns3:TrackPointExtension>
        </extensions>
      </trkpt>
      <trkpt lat="45.3152334876358509063720703125" lon="-71.04585341177880764007568359375">
        <ele>728</ele>
        <time>2026-08-21T21:55:54.000Z</time>
        <extensions>
          <ns3:TrackPointExtension>
            <ns3:hr>120</ns3:hr>
            <ns3:cad>75</ns3:cad>
          </ns3:TrackPointExtension>
        </extensions>
      </trkpt>
      <trkpt lat="45.31524647958576679229736328125" lon="-71.0458379052579402923583984375">
        <ele>727.79998779296875</ele>
        <time>2026-08-21T21:55:55.000Z</time>
        <extensions>
          <ns3:TrackPointExtension>
            <ns3:hr>119</ns3:hr>
            <ns3:cad>75</ns3:cad>
          </ns3:TrackPointExtension>
        </extensions>
      </trkpt>
      <trkpt lat="45.315259136259555816650390625" lon="-71.0458251647651195526123046875">
        <ele>727.4000244140625</ele>
        <time>2026-08-21T21:55:56.000Z</time>
        <extensions>
          <ns3:TrackPointExtension>
            <ns3:hr>119</ns3:hr>
            <ns3:cad>0</ns3:cad>
          </ns3:TrackPointExtension>
        </extensions>
      </trkpt>
      <trkpt lat="45.31526626087725162506103515625" lon="-71.04581653140485286712646484375">
        <ele>727</ele>
        <time>2026-08-21T21:55:57.000Z</time>
        <extensions>
          <ns3:TrackPointExtension>
            <ns3:hr>119</ns3:hr>
            <ns3:cad>0</ns3:cad>
          </ns3:TrackPointExtension>
        </extensions>
      </trkpt>
      <trkpt lat="45.315270535647869110107421875" lon="-71.0458097420632839202880859375">
        <ele>726.79998779296875</ele>
        <time>2026-08-21T21:55:58.000Z</time>
        <extensions>
          <ns3:TrackPointExtension>
            <ns3:hr>119</ns3:hr>
            <ns3:cad>0</ns3:cad>
          </ns3:TrackPointExtension>
        </extensions>
      </trkpt>
      <trkpt lat="45.31527824699878692626953125" lon="-71.0457929782569408416748046875">
        <ele>726.4000244140625</ele>
        <time>2026-08-21T21:55:59.000Z</time>
        <extensions>
          <ns3:TrackPointExtension>
            <ns3:hr>119</ns3:hr>
            <ns3:cad>0</ns3:cad>
          </ns3:TrackPointExtension>
        </extensions>
      </trkpt>
      <trkpt lat="45.3152817673981189727783203125" lon="-71.045782752335071563720703125">
        <ele>726.20001220703125</ele>
        <time>2026-08-21T21:56:00.000Z</time>
        <extensions>
          <ns3:TrackPointExtension>
            <ns3:hr>120</ns3:hr>
            <ns3:cad>0</ns3:cad>
          </ns3:TrackPointExtension>
        </extensions>
      </trkpt>
      <trkpt lat="45.31528537161648273468017578125" lon="-71.04577177204191684722900390625">
        <ele>725.79998779296875</ele>
        <time>2026-08-21T21:56:01.000Z</time>
        <extensions>
          <ns3:TrackPointExtension>
            <ns3:hr>119</ns3:hr>
            <ns3:cad>0</ns3:cad>
          </ns3:TrackPointExtension>
        </extensions>
      </trkpt>
      <trkpt lat="45.315296351909637451171875" lon="-71.0457567684352397918701171875">
        <ele>725.5999755859375</ele>
        <time>2026-08-21T21:56:02.000Z</time>
        <extensions>
          <ns3:TrackPointExtension>
            <ns3:hr>118</ns3:hr>
            <ns3:cad>0</ns3:cad>
          </ns3:TrackPointExtension>
        </extensions>
      </trkpt>
      <trkpt lat="45.31530666165053844451904296875" lon="-71.04574142955243587493896484375">
        <ele>725.4000244140625</ele>
        <time>2026-08-21T21:56:03.000Z</time>
        <extensions>
          <ns3:TrackPointExtension>
            <ns3:hr>118</ns3:hr>
            <ns3:cad>0</ns3:cad>
          </ns3:TrackPointExtension>
        </extensions>
      </trkpt>
      <trkpt lat="45.315313450992107391357421875" lon="-71.04573120363056659698486328125">
        <ele>725.20001220703125</ele>
        <time>2026-08-21T21:56:04.000Z</time>
        <extensions>
          <ns3:TrackPointExtension>
            <ns3:hr>118</ns3:hr>
            <ns3:cad>0</ns3:cad>
          </ns3:TrackPointExtension>
        </extensions>
      </trkpt>
      <trkpt lat="45.3153179772198200225830078125" lon="-71.04572215117514133453369140625">
        <ele>724.79998779296875</ele>
        <time>2026-08-21T21:56:05.000Z</time>
        <extensions>
          <ns3:TrackPointExtension>
            <ns3:hr>117</ns3:hr>
            <ns3:cad>62</ns3:cad>
          </ns3:TrackPointExtension>
        </extensions>
      </trkpt>
      <trkpt lat="45.31531822867691516876220703125" lon="-71.04571997188031673431396484375">
        <ele>724.5999755859375</ele>
        <time>2026-08-21T21:56:06.000Z</time>
        <extensions>
          <ns3:TrackPointExtension>
            <ns3:hr>116</ns3:hr>
            <ns3:cad>62</ns3:cad>
          </ns3:TrackPointExtension>
        </extensions>
      </trkpt>
      <trkpt lat="45.31532191671431064605712890625" lon="-71.045722402632236480712890625">
        <ele>724.20001220703125</ele>
        <time>2026-08-21T21:56:07.000Z</time>
        <extensions>
          <ns3:TrackPointExtension>
            <ns3:hr>116</ns3:hr>
            <ns3:cad>62</ns3:cad>
          </ns3:TrackPointExtension>
        </extensions>
      </trkpt>
      <trkpt lat="45.315322168171405792236328125" lon="-71.0457322932779788970947265625">
        <ele>724</ele>
        <time>2026-08-21T21:56:08.000Z</time>
        <extensions>
          <ns3:TrackPointExtension>
            <ns3:hr>116</ns3:hr>
            <ns3:cad>62</ns3:cad>
          </ns3:TrackPointExtension>
        </extensions>
      </trkpt>
      <trkpt lat="45.31532191671431064605712890625" lon="-71.04574478231370449066162109375">
        <ele>723.5999755859375</ele>
        <time>2026-08-21T21:56:09.000Z</time>
        <extensions>
          <ns3:TrackPointExtension>
            <ns3:hr>117</ns3:hr>
            <ns3:cad>62</ns3:cad>
          </ns3:TrackPointExtension>
        </extensions>
      </trkpt>
      <trkpt lat="45.3153213299810886383056640625" lon="-71.0457507334649562835693359375">
        <ele>723.4000244140625</ele>
        <time>2026-08-21T21:56:10.000Z</time>
        <extensions>
          <ns3:TrackPointExtension>
            <ns3:hr>117</ns3:hr>
            <ns3:cad>62</ns3:cad>
          </ns3:TrackPointExtension>
        </extensions>
      </trkpt>
      <trkpt lat="45.31532342545688152313232421875" lon="-71.0457661561667919158935546875">
        <ele>723.20001220703125</ele>
        <time>2026-08-21T21:56:11.000Z</time>
        <extensions>
          <ns3:TrackPointExtension>
            <ns3:hr>117</ns3:hr>
            <ns3:cad>62</ns3:cad>
          </ns3:TrackPointExtension>
        </extensions>
      </trkpt>
      <trkpt lat="45.315327532589435577392578125" lon="-71.045781075954437255859375">
        <ele>723.20001220703125</ele>
        <time>2026-08-21T21:56:12.000Z</time>
        <extensions>
          <ns3:TrackPointExtension>
            <ns3:hr>117</ns3:hr>
            <ns3:cad>62</ns3:cad>
          </ns3:TrackPointExtension>
        </extensions>
      </trkpt>
      <trkpt lat="45.31532711349427700042724609375" lon="-71.04580580256879329681396484375">
        <ele>723</ele>
        <time>2026-08-21T21:56:13.000Z</time>
        <extensions>
          <ns3:TrackPointExtension>
            <ns3:hr>117</ns3:hr>
            <ns3:cad>62</ns3:cad>
          </ns3:TrackPointExtension>
        </extensions>
      </trkpt>
      <trkpt lat="45.31532116234302520751953125" lon="-71.04582172818481922149658203125">
        <ele>723</ele>
        <time>2026-08-21T21:56:14.000Z</time>
        <extensions>
          <ns3:TrackPointExtension>
            <ns3:hr>117</ns3:hr>
            <ns3:cad>62</ns3:cad>
          </ns3:TrackPointExtension>
        </extensions>
      </trkpt>
      <trkpt lat="45.31531579792499542236328125" lon="-71.04584150947630405426025390625">
        <ele>722.79998779296875</ele>
        <time>2026-08-21T21:56:15.000Z</time>
        <extensions>
          <ns3:TrackPointExtension>
            <ns3:hr>118</ns3:hr>
            <ns3:cad>62</ns3:cad>
          </ns3:TrackPointExtension>
        </extensions>
      </trkpt>
      <trkpt lat="45.31531001441180706024169921875" lon="-71.04586648754775524139404296875">
        <ele>722.79998779296875</ele>
        <time>2026-08-21T21:56:16.000Z</time>
        <extensions>
          <ns3:TrackPointExtension>
            <ns3:hr>117</ns3:hr>
            <ns3:cad>62</ns3:cad>
          </ns3:TrackPointExtension>
        </extensions>
      </trkpt>
      <trkpt lat="45.3153059072792530059814453125" lon="-71.04589129798114299774169921875">
        <ele>722.79998779296875</ele>
        <time>2026-08-21T21:56:17.000Z</time>
        <extensions>
          <ns3:TrackPointExtension>
            <ns3:hr>117</ns3:hr>
            <ns3:cad>68</ns3:cad>
          </ns3:TrackPointExtension>
        </extensions>
      </trkpt>
      <trkpt lat="45.3153022192418575286865234375" lon="-71.04592147283256053924560546875">
        <ele>722.79998779296875</ele>
        <time>2026-08-21T21:56:18.000Z</time>
        <extensions>
          <ns3:TrackPointExtension>
            <ns3:hr>117</ns3:hr>
            <ns3:cad>68</ns3:cad>
          </ns3:TrackPointExtension>
        </extensions>
      </trkpt>
      <trkpt lat="45.315300710499286651611328125" lon="-71.0459487140178680419921875">
        <ele>722.79998779296875</ele>
        <time>2026-08-21T21:56:19.000Z</time>
        <extensions>
          <ns3:TrackPointExtension>
            <ns3:hr>117</ns3:hr>
            <ns3:cad>68</ns3:cad>
          </ns3:TrackPointExtension>
        </extensions>
      </trkpt>
      <trkpt lat="45.31530381180346012115478515625" lon="-71.04597696103155612945556640625">
        <ele>722.79998779296875</ele>
        <time>2026-08-21T21:56:20.000Z</time>
        <extensions>
          <ns3:TrackPointExtension>
            <ns3:hr>117</ns3:hr>
            <ns3:cad>68</ns3:cad>
          </ns3:TrackPointExtension>
        </extensions>
      </trkpt>
      <trkpt lat="45.31531177461147308349609375" lon="-71.0459998436272144317626953125">
        <ele>722.79998779296875</ele>
        <time>2026-08-21T21:56:21.000Z</time>
        <extensions>
          <ns3:TrackPointExtension>
            <ns3:hr>117</ns3:hr>
            <ns3:cad>68</ns3:cad>
          </ns3:TrackPointExtension>
        </extensions>
      </trkpt>
      <trkpt lat="45.31531755812466144561767578125" lon="-71.046018786728382110595703125">
        <ele>722.5999755859375</ele>
        <time>2026-08-21T21:56:22.000Z</time>
        <extensions>
          <ns3:TrackPointExtension>
            <ns3:hr>118</ns3:hr>
            <ns3:cad>0</ns3:cad>
          </ns3:TrackPointExtension>
        </extensions>
      </trkpt>
      <trkpt lat="45.31532116234302520751953125" lon="-71.04603781364858150482177734375">
        <ele>722.4000244140625</ele>
        <time>2026-08-21T21:56:23.000Z</time>
        <extensions>
          <ns3:TrackPointExtension>
            <ns3:hr>118</ns3:hr>
            <ns3:cad>0</ns3:cad>
          </ns3:TrackPointExtension>
        </extensions>
      </trkpt>
      <trkpt lat="45.31532426364719867706298828125" lon="-71.0460560023784637451171875">
        <ele>722</ele>
        <time>2026-08-21T21:56:24.000Z</time>
        <extensions>
          <ns3:TrackPointExtension>
            <ns3:hr>118</ns3:hr>
            <ns3:cad>0</ns3:cad>
          </ns3:TrackPointExtension>
        </extensions>
      </trkpt>
      <trkpt lat="45.315325520932674407958984375" lon="-71.04608458466827869415283203125">
        <ele>721.79998779296875</ele>
        <time>2026-08-21T21:56:25.000Z</time>
        <extensions>
          <ns3:TrackPointExtension>
            <ns3:hr>118</ns3:hr>
            <ns3:cad>0</ns3:cad>
          </ns3:TrackPointExtension>
        </extensions>
      </trkpt>
      <trkpt lat="45.3153312206268310546875" lon="-71.0461037792265415191650390625">
        <ele>721.5999755859375</ele>
        <time>2026-08-21T21:56:26.000Z</time>
        <extensions>
          <ns3:TrackPointExtension>
            <ns3:hr>118</ns3:hr>
            <ns3:cad>0</ns3:cad>
          </ns3:TrackPointExtension>
        </extensions>
      </trkpt>
      <trkpt lat="45.31534119509160518646240234375" lon="-71.04611559771001338958740234375">
        <ele>721.4000244140625</ele>
        <time>2026-08-21T21:56:27.000Z</time>
        <extensions>
          <ns3:TrackPointExtension>
            <ns3:hr>117</ns3:hr>
            <ns3:cad>65</ns3:cad>
          </ns3:TrackPointExtension>
        </extensions>
      </trkpt>
      <trkpt lat="45.31535829417407512664794921875" lon="-71.04612984694540500640869140625">
        <ele>721</ele>
        <time>2026-08-21T21:56:28.000Z</time>
        <extensions>
          <ns3:TrackPointExtension>
            <ns3:hr>118</ns3:hr>
            <ns3:cad>65</ns3:cad>
          </ns3:TrackPointExtension>
        </extensions>
      </trkpt>
      <trkpt lat="45.31537480652332305908203125" lon="-71.04613571427762508392333984375">
        <ele>720.5999755859375</ele>
        <time>2026-08-21T21:56:29.000Z</time>
        <extensions>
          <ns3:TrackPointExtension>
            <ns3:hr>118</ns3:hr>
            <ns3:cad>0</ns3:cad>
          </ns3:TrackPointExtension>
        </extensions>
      </trkpt>
      <trkpt lat="45.31538830138742923736572265625" lon="-71.04613387025892734527587890625">
        <ele>720.20001220703125</ele>
        <time>2026-08-21T21:56:30.000Z</time>
        <extensions>
          <ns3:TrackPointExtension>
            <ns3:hr>117</ns3:hr>
            <ns3:cad>0</ns3:cad>
          </ns3:TrackPointExtension>
        </extensions>
      </trkpt>
      <trkpt lat="45.31540104188024997711181640625" lon="-71.04612800292670726776123046875">
        <ele>719.79998779296875</ele>
        <time>2026-08-21T21:56:31.000Z</time>
        <extensions>
          <ns3:TrackPointExtension>
            <ns3:hr>117</ns3:hr>
            <ns3:cad>0</ns3:cad>
          </ns3:TrackPointExtension>
        </extensions>
      </trkpt>
      <trkpt lat="45.3154095076024532318115234375" lon="-71.04612431488931179046630859375">
        <ele>719.5999755859375</ele>
        <time>2026-08-21T21:56:32.000Z</time>
        <extensions>
          <ns3:TrackPointExtension>
            <ns3:hr>117</ns3:hr>
            <ns3:cad>0</ns3:cad>
          </ns3:TrackPointExtension>
        </extensions>
      </trkpt>
      <trkpt lat="45.315414704382419586181640625" lon="-71.04611568152904510498046875">
        <ele>719.20001220703125</ele>
        <time>2026-08-21T21:56:33.000Z</time>
        <extensions>
          <ns3:TrackPointExtension>
            <ns3:hr>117</ns3:hr>
            <ns3:cad>0</ns3:cad>
          </ns3:TrackPointExtension>
        </extensions>
      </trkpt>
      <trkpt lat="45.31542845070362091064453125" lon="-71.0461067967116832733154296875">
        <ele>719.20001220703125</ele>
        <time>2026-08-21T21:56:34.000Z</time>
        <extensions>
          <ns3:TrackPointExtension>
            <ns3:hr>116</ns3:hr>
            <ns3:cad>53</ns3:cad>
          </ns3:TrackPointExtension>
        </extensions>
      </trkpt>
      <trkpt lat="45.3154406882822513580322265625" lon="-71.04609900154173374176025390625">
        <ele>719</ele>
        <time>2026-08-21T21:56:35.000Z</time>
        <extensions>
          <ns3:TrackPointExtension>
            <ns3:hr>116</ns3:hr>
            <ns3:cad>53</ns3:cad>
          </ns3:TrackPointExtension>
        </extensions>
      </trkpt>
      <trkpt lat="45.315451584756374359130859375" lon="-71.0460880212485790252685546875">
        <ele>718.79998779296875</ele>
        <time>2026-08-21T21:56:36.000Z</time>
        <extensions>
          <ns3:TrackPointExtension>
            <ns3:hr>116</ns3:hr>
            <ns3:cad>53</ns3:cad>
          </ns3:TrackPointExtension>
        </extensions>
      </trkpt>
      <trkpt lat="45.31546558253467082977294921875" lon="-71.04607989080250263214111328125">
        <ele>718.5999755859375</ele>
        <time>2026-08-21T21:56:37.000Z</time>
        <extensions>
          <ns3:TrackPointExtension>
            <ns3:hr>116</ns3:hr>
            <ns3:cad>53</ns3:cad>
          </ns3:TrackPointExtension>
        </extensions>
      </trkpt>
      <trkpt lat="45.3154779039323329925537109375" lon="-71.0460715927183628082275390625">
        <ele>718.20001220703125</ele>
        <time>2026-08-21T21:56:38.000Z</time>
        <extensions>
          <ns3:TrackPointExtension>
            <ns3:hr>116</ns3:hr>
            <ns3:cad>53</ns3:cad>
          </ns3:TrackPointExtension>
        </extensions>
      </trkpt>
      <trkpt lat="45.3154846094548702239990234375" lon="-71.0460581816732883453369140625">
        <ele>717.79998779296875</ele>
        <time>2026-08-21T21:56:39.000Z</time>
        <extensions>
          <ns3:TrackPointExtension>
            <ns3:hr>115</ns3:hr>
            <ns3:cad>54</ns3:cad>
          </ns3:TrackPointExtension>
        </extensions>
      </trkpt>
      <trkpt lat="45.315490476787090301513671875" lon="-71.046046949923038482666015625">
        <ele>717.4000244140625</ele>
        <time>2026-08-21T21:56:40.000Z</time>
        <extensions>
          <ns3:TrackPointExtension>
            <ns3:hr>115</ns3:hr>
            <ns3:cad>54</ns3:cad>
          </ns3:TrackPointExtension>
        </extensions>
      </trkpt>
      <trkpt lat="45.31550011597573757171630859375" lon="-71.04602607898414134979248046875">
        <ele>717.20001220703125</ele>
        <time>2026-08-21T21:56:41.000Z</time>
        <extensions>
          <ns3:TrackPointExtension>
            <ns3:hr>115</ns3:hr>
            <ns3:cad>54</ns3:cad>
          </ns3:TrackPointExtension>
        </extensions>
      </trkpt>
      <trkpt lat="45.31550883315503597259521484375" lon="-71.04600495658814907073974609375">
        <ele>717</ele>
        <time>2026-08-21T21:56:42.000Z</time>
        <extensions>
          <ns3:TrackPointExtension>
            <ns3:hr>114</ns3:hr>
            <ns3:cad>54</ns3:cad>
          </ns3:TrackPointExtension>
        </extensions>
      </trkpt>
      <trkpt lat="45.315509252250194549560546875" lon="-71.04598919861018657684326171875">
        <ele>716.79998779296875</ele>
        <time>2026-08-21T21:56:43.000Z</time>
        <extensions>
          <ns3:TrackPointExtension>
            <ns3:hr>114</ns3:hr>
            <ns3:cad>54</ns3:cad>
          </ns3:TrackPointExtension>
        </extensions>
      </trkpt>
      <trkpt lat="45.31551034189760684967041015625" lon="-71.0459736920893192291259765625">
        <ele>716.79998779296875</ele>
        <time>2026-08-21T21:56:44.000Z</time>
        <extensions>
          <ns3:TrackPointExtension>
            <ns3:hr>114</ns3:hr>
            <ns3:cad>66</ns3:cad>
          </ns3:TrackPointExtension>
        </extensions>
      </trkpt>
      <trkpt lat="45.315510928630828857421875" lon="-71.04595743119716644287109375">
        <ele>716.79998779296875</ele>
        <time>2026-08-21T21:56:45.000Z</time>
        <extensions>
          <ns3:TrackPointExtension>
            <ns3:hr>114</ns3:hr>
            <ns3:cad>66</ns3:cad>
          </ns3:TrackPointExtension>
        </extensions>
      </trkpt>
      <trkpt lat="45.3155114315450191497802734375" lon="-71.04593723081052303314208984375">
        <ele>717</ele>
        <time>2026-08-21T21:56:46.000Z</time>
        <extensions>
          <ns3:TrackPointExtension>
            <ns3:hr>114</ns3:hr>
            <ns3:cad>66</ns3:cad>
          </ns3:TrackPointExtension>
        </extensions>
      </trkpt>
      <trkpt lat="45.3155176341533660888671875" lon="-71.04591292329132556915283203125">
        <ele>717</ele>
        <time>2026-08-21T21:56:47.000Z</time>
        <extensions>
          <ns3:TrackPointExtension>
            <ns3:hr>115</ns3:hr>
            <ns3:cad>66</ns3:cad>
          </ns3:TrackPointExtension>
        </extensions>
      </trkpt>
      <trkpt lat="45.3155191428959369659423828125" lon="-71.0458925552666187286376953125">
        <ele>717</ele>
        <time>2026-08-21T21:56:48.000Z</time>
        <extensions>
          <ns3:TrackPointExtension>
            <ns3:hr>115</ns3:hr>
            <ns3:cad>66</ns3:cad>
          </ns3:TrackPointExtension>
        </extensions>
      </trkpt>
      <trkpt lat="45.3155221603810787200927734375" lon="-71.04587470181286334991455078125">
        <ele>717</ele>
        <time>2026-08-21T21:56:49.000Z</time>
        <extensions>
          <ns3:TrackPointExtension>
            <ns3:hr>115</ns3:hr>
            <ns3:cad>55</ns3:cad>
          </ns3:TrackPointExtension>
        </extensions>
      </trkpt>
      <trkpt lat="45.31552643515169620513916015625" lon="-71.04585693217813968658447265625">
        <ele>717</ele>
        <time>2026-08-21T21:56:50.000Z</time>
        <extensions>
          <ns3:TrackPointExtension>
            <ns3:hr>115</ns3:hr>
            <ns3:cad>55</ns3:cad>
          </ns3:TrackPointExtension>
        </extensions>
      </trkpt>
      <trkpt lat="45.3155281953513622283935546875" lon="-71.045845784246921539306640625">
        <ele>717</ele>
        <time>2026-08-21T21:56:51.000Z</time>
        <extensions>
          <ns3:TrackPointExtension>
            <ns3:hr>115</ns3:hr>
            <ns3:cad>55</ns3:cad>
          </ns3:TrackPointExtension>
        </extensions>
      </trkpt>
      <trkpt lat="45.3155325539410114288330078125" lon="-71.04583396576344966888427734375">
        <ele>717</ele>
        <time>2026-08-21T21:56:52.000Z</time>
        <extensions>
          <ns3:TrackPointExtension>
            <ns3:hr>114</ns3:hr>
            <ns3:cad>55</ns3:cad>
          </ns3:TrackPointExtension>
        </extensions>
      </trkpt>
      <trkpt lat="45.31554386951029300689697265625" lon="-71.0458288528025150299072265625">
        <ele>717</ele>
        <time>2026-08-21T21:56:53.000Z</time>
        <extensions>
          <ns3:TrackPointExtension>
            <ns3:hr>114</ns3:hr>
            <ns3:cad>53</ns3:cad>
          </ns3:TrackPointExtension>
        </extensions>
      </trkpt>
      <trkpt lat="45.31555174849927425384521484375" lon="-71.04583136737346649169921875">
        <ele>717</ele>
        <time>2026-08-21T21:56:54.000Z</time>
        <extensions>
          <ns3:TrackPointExtension>
            <ns3:hr>114</ns3:hr>
            <ns3:cad>53</ns3:cad>
          </ns3:TrackPointExtension>
        </extensions>
      </trkpt>
      <trkpt lat="45.3155573643743991851806640625" lon="-71.0458342172205448150634765625">
        <ele>716.79998779296875</ele>
        <time>2026-08-21T21:56:55.000Z</time>
        <extensions>
          <ns3:TrackPointExtension>
            <ns3:hr>114</ns3:hr>
            <ns3:cad>49</ns3:cad>
          </ns3:TrackPointExtension>
        </extensions>
      </trkpt>
      <trkpt lat="45.3155620582401752471923828125" lon="-71.0458375699818134307861328125">
        <ele>716.5999755859375</ele>
        <time>2026-08-21T21:56:56.000Z</time>
        <extensions>
          <ns3:TrackPointExtension>
            <ns3:hr>114</ns3:hr>
            <ns3:cad>49</ns3:cad>
          </ns3:TrackPointExtension>
        </extensions>
      </trkpt>
      <trkpt lat="45.3155690990388393402099609375" lon="-71.0458425991237163543701171875">
        <ele>716.4000244140625</ele>
        <time>2026-08-21T21:56:57.000Z</time>
        <extensions>
          <ns3:TrackPointExtension>
            <ns3:hr>113</ns3:hr>
            <ns3:cad>49</ns3:cad>
          </ns3:TrackPointExtension>
        </extensions>
      </trkpt>
      <trkpt lat="45.315575301647186279296875" lon="-71.04584435932338237762451171875">
        <ele>716.20001220703125</ele>
        <time>2026-08-21T21:56:58.000Z</time>
        <extensions>
          <ns3:TrackPointExtension>
            <ns3:hr>115</ns3:hr>
            <ns3:cad>53</ns3:cad>
          </ns3:TrackPointExtension>
        </extensions>
      </trkpt>
      <trkpt lat="45.31558611430227756500244140625" lon="-71.0458466224372386932373046875">
        <ele>715.79998779296875</ele>
        <time>2026-08-21T21:56:59.000Z</time>
        <extensions>
          <ns3:TrackPointExtension>
            <ns3:hr>116</ns3:hr>
            <ns3:cad>53</ns3:cad>
          </ns3:TrackPointExtension>
        </extensions>
      </trkpt>
      <trkpt lat="45.31559382565319538116455078125" lon="-71.04584880173206329345703125">
        <ele>715.5999755859375</ele>
        <time>2026-08-21T21:57:00.000Z</time>
        <extensions>
          <ns3:TrackPointExtension>
            <ns3:hr>116</ns3:hr>
            <ns3:cad>53</ns3:cad>
          </ns3:TrackPointExtension>
        </extensions>
      </trkpt>
      <trkpt lat="45.3156043030321598052978515625" lon="-71.0458509810268878936767578125">
        <ele>715.20001220703125</ele>
        <time>2026-08-21T21:57:01.000Z</time>
        <extensions>
          <ns3:TrackPointExtension>
            <ns3:hr>117</ns3:hr>
            <ns3:cad>55</ns3:cad>
          </ns3:TrackPointExtension>
        </extensions>
      </trkpt>
      <trkpt lat="45.31561427749693393707275390625" lon="-71.045851819217205047607421875">
        <ele>715</ele>
        <time>2026-08-21T21:57:02.000Z</time>
        <extensions>
          <ns3:TrackPointExtension>
            <ns3:hr>116</ns3:hr>
            <ns3:cad>55</ns3:cad>
          </ns3:TrackPointExtension>
        </extensions>
      </trkpt>
      <trkpt lat="45.315622575581073760986328125" lon="-71.04585693217813968658447265625">
        <ele>714.5999755859375</ele>
        <time>2026-08-21T21:57:03.000Z</time>
        <extensions>
          <ns3:TrackPointExtension>
            <ns3:hr>116</ns3:hr>
            <ns3:cad>59</ns3:cad>
          </ns3:TrackPointExtension>
        </extensions>
      </trkpt>
      <trkpt lat="45.31562617979943752288818359375" lon="-71.04586866684257984161376953125">
        <ele>714.4000244140625</ele>
        <time>2026-08-21T21:57:04.000Z</time>
        <extensions>
          <ns3:TrackPointExtension>
            <ns3:hr>116</ns3:hr>
            <ns3:cad>59</ns3:cad>
          </ns3:TrackPointExtension>
        </extensions>
      </trkpt>
      <trkpt lat="45.31562961637973785400390625" lon="-71.04587755165994167327880859375">
        <ele>714</ele>
        <time>2026-08-21T21:57:05.000Z</time>
        <extensions>
          <ns3:TrackPointExtension>
            <ns3:hr>116</ns3:hr>
            <ns3:cad>57</ns3:cad>
          </ns3:TrackPointExtension>
        </extensions>
      </trkpt>
      <trkpt lat="45.31563070602715015411376953125" lon="-71.04588610120117664337158203125">
        <ele>713.79998779296875</ele>
        <time>2026-08-21T21:57:06.000Z</time>
        <extensions>
          <ns3:TrackPointExtension>
            <ns3:hr>116</ns3:hr>
            <ns3:cad>57</ns3:cad>
          </ns3:TrackPointExtension>
        </extensions>
      </trkpt>
      <trkpt lat="45.315631963312625885009765625" lon="-71.0458969138562679290771484375">
        <ele>713.4000244140625</ele>
        <time>2026-08-21T21:57:07.000Z</time>
        <extensions>
          <ns3:TrackPointExtension>
            <ns3:hr>117</ns3:hr>
            <ns3:cad>57</ns3:cad>
          </ns3:TrackPointExtension>
        </extensions>
      </trkpt>
      <trkpt lat="45.31563037075102329254150390625" lon="-71.04591459967195987701416015625">
        <ele>713.20001220703125</ele>
        <time>2026-08-21T21:57:08.000Z</time>
        <extensions>
          <ns3:TrackPointExtension>
            <ns3:hr>117</ns3:hr>
            <ns3:cad>57</ns3:cad>
          </ns3:TrackPointExtension>
        </extensions>
      </trkpt>
      <trkpt lat="45.31562852673232555389404296875" lon="-71.0459304414689540863037109375">
        <ele>712.79998779296875</ele>
        <time>2026-08-21T21:57:09.000Z</time>
        <extensions>
          <ns3:TrackPointExtension>
            <ns3:hr>117</ns3:hr>
            <ns3:cad>57</ns3:cad>
          </ns3:TrackPointExtension>
        </extensions>
      </trkpt>
      <trkpt lat="45.3156230784952640533447265625" lon="-71.0459505580365657806396484375">
        <ele>712.5999755859375</ele>
        <time>2026-08-21T21:57:10.000Z</time>
        <extensions>
          <ns3:TrackPointExtension>
            <ns3:hr>117</ns3:hr>
            <ns3:cad>0</ns3:cad>
          </ns3:TrackPointExtension>
        </extensions>
      </trkpt>
      <trkpt lat="45.31561964191496372222900390625" lon="-71.04596103541553020477294921875">
        <ele>712.4000244140625</ele>
        <time>2026-08-21T21:57:11.000Z</time>
        <extensions>
          <ns3:TrackPointExtension>
            <ns3:hr>118</ns3:hr>
            <ns3:cad>0</ns3:cad>
          </ns3:TrackPointExtension>
        </extensions>
      </trkpt>
      <trkpt lat="45.31561620533466339111328125" lon="-71.04597629047930240631103515625">
        <ele>712</ele>
        <time>2026-08-21T21:57:12.000Z</time>
        <extensions>
          <ns3:TrackPointExtension>
            <ns3:hr>117</ns3:hr>
            <ns3:cad>0</ns3:cad>
          </ns3:TrackPointExtension>
        </extensions>
      </trkpt>
      <trkpt lat="45.31561796553432941436767578125" lon="-71.04599288664758205413818359375">
        <ele>711.79998779296875</ele>
        <time>2026-08-21T21:57:13.000Z</time>
        <extensions>
          <ns3:TrackPointExtension>
            <ns3:hr>117</ns3:hr>
            <ns3:cad>0</ns3:cad>
          </ns3:TrackPointExtension>
        </extensions>
      </trkpt>
      <trkpt lat="45.31561796553432941436767578125" lon="-71.04601887054741382598876953125">
        <ele>711.5999755859375</ele>
        <time>2026-08-21T21:57:14.000Z</time>
        <extensions>
          <ns3:TrackPointExtension>
            <ns3:hr>118</ns3:hr>
            <ns3:cad>0</ns3:cad>
          </ns3:TrackPointExtension>
        </extensions>
      </trkpt>
      <trkpt lat="45.31561511568725109100341796875" lon="-71.046048961579799652099609375">
        <ele>711.20001220703125</ele>
        <time>2026-08-21T21:57:15.000Z</time>
        <extensions>
          <ns3:TrackPointExtension>
            <ns3:hr>118</ns3:hr>
            <ns3:cad>0</ns3:cad>
          </ns3:TrackPointExtension>
        </extensions>
      </trkpt>
      <trkpt lat="45.31561109237372875213623046875" lon="-71.0460715927183628082275390625">
        <ele>710.79998779296875</ele>
        <time>2026-08-21T21:57:16.000Z</time>
        <extensions>
          <ns3:TrackPointExtension>
            <ns3:hr>118</ns3:hr>
            <ns3:cad>0</ns3:cad>
          </ns3:TrackPointExtension>
        </extensions>
      </trkpt>
      <trkpt lat="45.31560656614601612091064453125" lon="-71.04608911089599132537841796875">
        <ele>710.4000244140625</ele>
        <time>2026-08-21T21:57:17.000Z</time>
        <extensions>
          <ns3:TrackPointExtension>
            <ns3:hr>118</ns3:hr>
            <ns3:cad>0</ns3:cad>
          </ns3:TrackPointExtension>
        </extensions>
      </trkpt>
      <trkpt lat="45.31559969298541545867919921875" lon="-71.0461165197193622589111328125">
        <ele>710</ele>
        <time>2026-08-21T21:57:18.000Z</time>
        <extensions>
          <ns3:TrackPointExtension>
            <ns3:hr>119</ns3:hr>
            <ns3:cad>0</ns3:cad>
          </ns3:TrackPointExtension>
        </extensions>
      </trkpt>
      <trkpt lat="45.3155981004238128662109375" lon="-71.04613772593438625335693359375">
        <ele>709.79998779296875</ele>
        <time>2026-08-21T21:57:19.000Z</time>
        <extensions>
          <ns3:TrackPointExtension>
            <ns3:hr>119</ns3:hr>
            <ns3:cad>0</ns3:cad>
          </ns3:TrackPointExtension>
        </extensions>
      </trkpt>
      <trkpt lat="45.315598435699939727783203125" lon="-71.04615801014006137847900390625">
        <ele>709.4000244140625</ele>
        <time>2026-08-21T21:57:20.000Z</time>
        <extensions>
          <ns3:TrackPointExtension>
            <ns3:hr>120</ns3:hr>
            <ns3:cad>0</ns3:cad>
          </ns3:TrackPointExtension>
        </extensions>
      </trkpt>
      <trkpt lat="45.31560405157506465911865234375" lon="-71.0461651347577571868896484375">
        <ele>709.20001220703125</ele>
        <time>2026-08-21T21:57:21.000Z</time>
        <extensions>
          <ns3:TrackPointExtension>
            <ns3:hr>120</ns3:hr>
            <ns3:cad>0</ns3:cad>
          </ns3:TrackPointExtension>
        </extensions>
      </trkpt>
      <trkpt lat="45.31561553478240966796875" lon="-71.046183742582798004150390625">
        <ele>708.79998779296875</ele>
        <time>2026-08-21T21:57:22.000Z</time>
        <extensions>
          <ns3:TrackPointExtension>
            <ns3:hr>121</ns3:hr>
            <ns3:cad>0</ns3:cad>
          </ns3:TrackPointExtension>
        </extensions>
      </trkpt>
      <trkpt lat="45.3156328015029430389404296875" lon="-71.04620075784623622894287109375">
        <ele>708.5999755859375</ele>
        <time>2026-08-21T21:57:23.000Z</time>
        <extensions>
          <ns3:TrackPointExtension>
            <ns3:hr>121</ns3:hr>
            <ns3:cad>0</ns3:cad>
          </ns3:TrackPointExtension>
        </extensions>
      </trkpt>
      <trkpt lat="45.3156468831002712249755859375" lon="-71.04620729573071002960205078125">
        <ele>708</ele>
        <time>2026-08-21T21:57:24.000Z</time>
        <extensions>
          <ns3:TrackPointExtension>
            <ns3:hr>121</ns3:hr>
            <ns3:cad>0</ns3:cad>
          </ns3:TrackPointExtension>
        </extensions>
      </trkpt>
      <trkpt lat="45.31566691584885120391845703125" lon="-71.0462207905948162078857421875">
        <ele>707.4000244140625</ele>
        <time>2026-08-21T21:57:25.000Z</time>
        <extensions>
          <ns3:TrackPointExtension>
            <ns3:hr>121</ns3:hr>
            <ns3:cad>0</ns3:cad>
          </ns3:TrackPointExtension>
        </extensions>
      </trkpt>
      <trkpt lat="45.31568619422614574432373046875" lon="-71.04622431099414825439453125">
        <ele>706.5999755859375</ele>
        <time>2026-08-21T21:57:26.000Z</time>
        <extensions>
          <ns3:TrackPointExtension>
            <ns3:hr>121</ns3:hr>
            <ns3:cad>0</ns3:cad>
          </ns3:TrackPointExtension>
        </extensions>
      </trkpt>
      <trkpt lat="45.3157068975269794464111328125" lon="-71.04622975923120975494384765625">
        <ele>705.79998779296875</ele>
        <time>2026-08-21T21:57:27.000Z</time>
        <extensions>
          <ns3:TrackPointExtension>
            <ns3:hr>120</ns3:hr>
            <ns3:cad>0</ns3:cad>
          </ns3:TrackPointExtension>
        </extensions>
      </trkpt>
      <trkpt lat="45.31572458334267139434814453125" lon="-71.046236045658588409423828125">
        <ele>705.20001220703125</ele>
        <time>2026-08-21T21:57:28.000Z</time>
        <extensions>
          <ns3:TrackPointExtension>
            <ns3:hr>119</ns3:hr>
            <ns3:cad>0</ns3:cad>
          </ns3:TrackPointExtension>
        </extensions>
      </trkpt>
      <trkpt lat="45.31574788503348827362060546875" lon="-71.0462402366101741790771484375">
        <ele>704.5999755859375</ele>
        <time>2026-08-21T21:57:29.000Z</time>
        <extensions>
          <ns3:TrackPointExtension>
            <ns3:hr>118</ns3:hr>
            <ns3:cad>0</ns3:cad>
          </ns3:TrackPointExtension>
        </extensions>
      </trkpt>
      <trkpt lat="45.3157605417072772979736328125" lon="-71.0462395660579204559326171875">
        <ele>704</ele>
        <time>2026-08-21T21:57:30.000Z</time>
        <extensions>
          <ns3:TrackPointExtension>
            <ns3:hr>118</ns3:hr>
            <ns3:cad>0</ns3:cad>
          </ns3:TrackPointExtension>
        </extensions>
      </trkpt>
      <trkpt lat="45.3157858550548553466796875" lon="-71.0462432540953159332275390625">
        <ele>703.5999755859375</ele>
        <time>2026-08-21T21:57:31.000Z</time>
        <extensions>
          <ns3:TrackPointExtension>
            <ns3:hr>119</ns3:hr>
            <ns3:cad>0</ns3:cad>
          </ns3:TrackPointExtension>
        </extensions>
      </trkpt>
      <trkpt lat="45.31580387614667415618896484375" lon="-71.0462509654462337493896484375">
        <ele>703.20001220703125</ele>
        <time>2026-08-21T21:57:32.000Z</time>
        <extensions>
          <ns3:TrackPointExtension>
            <ns3:hr>119</ns3:hr>
            <ns3:cad>87</ns3:cad>
          </ns3:TrackPointExtension>
        </extensions>
      </trkpt>
      <trkpt lat="45.3158195503056049346923828125" lon="-71.04625783860683441162109375">
        <ele>702.79998779296875</ele>
        <time>2026-08-21T21:57:33.000Z</time>
        <extensions>
          <ns3:TrackPointExtension>
            <ns3:hr>119</ns3:hr>
            <ns3:cad>87</ns3:cad>
          </ns3:TrackPointExtension>
        </extensions>
      </trkpt>
      <trkpt lat="45.31583388336002826690673828125" lon="-71.04626990854740142822265625">
        <ele>702.4000244140625</ele>
        <time>2026-08-21T21:57:34.000Z</time>
        <extensions>
          <ns3:TrackPointExtension>
            <ns3:hr>120</ns3:hr>
            <ns3:cad>87</ns3:cad>
          </ns3:TrackPointExtension>
        </extensions>
      </trkpt>
      <trkpt lat="45.3158440254628658294677734375" lon="-71.0462761111557483673095703125">
        <ele>702.20001220703125</ele>
        <time>2026-08-21T21:57:35.000Z</time>
        <extensions>
          <ns3:TrackPointExtension>
            <ns3:hr>120</ns3:hr>
            <ns3:cad>87</ns3:cad>
          </ns3:TrackPointExtension>
        </extensions>
      </trkpt>
      <trkpt lat="45.31584695912897586822509765625" lon="-71.0462818108499050140380859375">
        <ele>702</ele>
        <time>2026-08-21T21:57:36.000Z</time>
        <extensions>
          <ns3:TrackPointExtension>
            <ns3:hr>120</ns3:hr>
            <ns3:cad>0</ns3:cad>
          </ns3:TrackPointExtension>
        </extensions>
      </trkpt>
      <trkpt lat="45.3158463723957538604736328125" lon="-71.0462844930589199066162109375">
        <ele>702</ele>
        <time>2026-08-21T21:57:37.000Z</time>
        <extensions>
          <ns3:TrackPointExtension>
            <ns3:hr>119</ns3:hr>
            <ns3:cad>0</ns3:cad>
          </ns3:TrackPointExtension>
        </extensions>
      </trkpt>
      <trkpt lat="45.3158473782241344451904296875" lon="-71.046291701495647430419921875">
        <ele>701.79998779296875</ele>
        <time>2026-08-21T21:57:38.000Z</time>
        <extensions>
          <ns3:TrackPointExtension>
            <ns3:hr>120</ns3:hr>
            <ns3:cad>0</ns3:cad>
          </ns3:TrackPointExtension>
        </extensions>
      </trkpt>
      <trkpt lat="45.31584645621478557586669921875" lon="-71.04630905203521251678466796875">
        <ele>701.79998779296875</ele>
        <time>2026-08-21T21:57:39.000Z</time>
        <extensions>
          <ns3:TrackPointExtension>
            <ns3:hr>120</ns3:hr>
            <ns3:cad>0</ns3:cad>
          </ns3:TrackPointExtension>
        </extensions>
      </trkpt>
      <trkpt lat="45.3158403374254703521728515625" lon="-71.04632363654673099517822265625">
        <ele>701.5999755859375</ele>
        <time>2026-08-21T21:57:40.000Z</time>
        <extensions>
          <ns3:TrackPointExtension>
            <ns3:hr>119</ns3:hr>
            <ns3:cad>0</ns3:cad>
          </ns3:TrackPointExtension>
        </extensions>
      </trkpt>
      <trkpt lat="45.31584360636770725250244140625" lon="-71.04634626768529415130615234375">
        <ele>701.4000244140625</ele>
        <time>2026-08-21T21:57:41.000Z</time>
        <extensions>
          <ns3:TrackPointExtension>
            <ns3:hr>119</ns3:hr>
            <ns3:cad>0</ns3:cad>
          </ns3:TrackPointExtension>
        </extensions>
      </trkpt>
      <trkpt lat="45.315849222242832183837890625" lon="-71.04636655189096927642822265625">
        <ele>701.20001220703125</ele>
        <time>2026-08-21T21:57:42.000Z</time>
        <extensions>
          <ns3:TrackPointExtension>
            <ns3:hr>118</ns3:hr>
            <ns3:cad>0</ns3:cad>
          </ns3:TrackPointExtension>
        </extensions>
      </trkpt>
      <trkpt lat="45.31585467047989368438720703125" lon="-71.0463870875537395477294921875">
        <ele>701</ele>
        <time>2026-08-21T21:57:43.000Z</time>
        <extensions>
          <ns3:TrackPointExtension>
            <ns3:hr>118</ns3:hr>
            <ns3:cad>0</ns3:cad>
          </ns3:TrackPointExtension>
        </extensions>
      </trkpt>
      <trkpt lat="45.31585869379341602325439453125" lon="-71.04640561155974864959716796875">
        <ele>700.5999755859375</ele>
        <time>2026-08-21T21:57:44.000Z</time>
        <extensions>
          <ns3:TrackPointExtension>
            <ns3:hr>117</ns3:hr>
            <ns3:cad>0</ns3:cad>
          </ns3:TrackPointExtension>
        </extensions>
      </trkpt>
      <trkpt lat="45.31586238183081150054931640625" lon="-71.04642539285123348236083984375">
        <ele>700.4000244140625</ele>
        <time>2026-08-21T21:57:45.000Z</time>
        <extensions>
          <ns3:TrackPointExtension>
            <ns3:hr>116</ns3:hr>
            <ns3:cad>0</ns3:cad>
          </ns3:TrackPointExtension>
        </extensions>
      </trkpt>
      <trkpt lat="45.31586556695401668548583984375" lon="-71.0464422404766082763671875">
        <ele>700.20001220703125</ele>
        <time>2026-08-21T21:57:46.000Z</time>
        <extensions>
          <ns3:TrackPointExtension>
            <ns3:hr>115</ns3:hr>
            <ns3:cad>0</ns3:cad>
          </ns3:TrackPointExtension>
        </extensions>
      </trkpt>
      <trkpt lat="45.31586908735334873199462890625" lon="-71.04646302759647369384765625">
        <ele>699.79998779296875</ele>
        <time>2026-08-21T21:57:47.000Z</time>
        <extensions>
          <ns3:TrackPointExtension>
            <ns3:hr>115</ns3:hr>
            <ns3:cad>0</ns3:cad>
          </ns3:TrackPointExtension>
        </extensions>
      </trkpt>
      <trkpt lat="45.31587746925652027130126953125" lon="-71.04647912085056304931640625">
        <ele>699.5999755859375</ele>
        <time>2026-08-21T21:57:48.000Z</time>
        <extensions>
          <ns3:TrackPointExtension>
            <ns3:hr>115</ns3:hr>
            <ns3:cad>0</ns3:cad>
          </ns3:TrackPointExtension>
        </extensions>
      </trkpt>
      <trkpt lat="45.31588568352162837982177734375" lon="-71.0464973933994770050048828125">
        <ele>699.4000244140625</ele>
        <time>2026-08-21T21:57:49.000Z</time>
        <extensions>
          <ns3:TrackPointExtension>
            <ns3:hr>116</ns3:hr>
            <ns3:cad>0</ns3:cad>
          </ns3:TrackPointExtension>
        </extensions>
      </trkpt>
      <trkpt lat="45.31589406542479991912841796875" lon="-71.04651474393904209136962890625">
        <ele>699.20001220703125</ele>
        <time>2026-08-21T21:57:50.000Z</time>
        <extensions>
          <ns3:TrackPointExtension>
            <ns3:hr>115</ns3:hr>
            <ns3:cad>0</ns3:cad>
          </ns3:TrackPointExtension>
        </extensions>
      </trkpt>
      <trkpt lat="45.3159000165760517120361328125" lon="-71.04653066955506801605224609375">
        <ele>698.79998779296875</ele>
        <time>2026-08-21T21:57:51.000Z</time>
        <extensions>
          <ns3:TrackPointExtension>
            <ns3:hr>116</ns3:hr>
            <ns3:cad>0</ns3:cad>
          </ns3:TrackPointExtension>
        </extensions>
      </trkpt>
      <trkpt lat="45.315908901393413543701171875" lon="-71.04654793627560138702392578125">
        <ele>698.5999755859375</ele>
        <time>2026-08-21T21:57:52.000Z</time>
        <extensions>
          <ns3:TrackPointExtension>
            <ns3:hr>116</ns3:hr>
            <ns3:cad>0</ns3:cad>
          </ns3:TrackPointExtension>
        </extensions>
      </trkpt>
      <trkpt lat="45.3159197978675365447998046875" lon="-71.04657023213803768157958984375">
        <ele>698.4000244140625</ele>
        <time>2026-08-21T21:57:53.000Z</time>
        <extensions>
          <ns3:TrackPointExtension>
            <ns3:hr>116</ns3:hr>
            <ns3:cad>70</ns3:cad>
          </ns3:TrackPointExtension>
        </extensions>
      </trkpt>
      <trkpt lat="45.31592759303748607635498046875" lon="-71.0465899296104907989501953125">
        <ele>698</ele>
        <time>2026-08-21T21:57:54.000Z</time>
        <extensions>
          <ns3:TrackPointExtension>
            <ns3:hr>116</ns3:hr>
            <ns3:cad>70</ns3:cad>
          </ns3:TrackPointExtension>
        </extensions>
      </trkpt>
      <trkpt lat="45.31593178398907184600830078125" lon="-71.04660979472100734710693359375">
        <ele>697.79998779296875</ele>
        <time>2026-08-21T21:57:55.000Z</time>
        <extensions>
          <ns3:TrackPointExtension>
            <ns3:hr>116</ns3:hr>
            <ns3:cad>70</ns3:cad>
          </ns3:TrackPointExtension>
        </extensions>
      </trkpt>
      <trkpt lat="45.315936394035816192626953125" lon="-71.046629659831523895263671875">
        <ele>697.5999755859375</ele>
        <time>2026-08-21T21:57:56.000Z</time>
        <extensions>
          <ns3:TrackPointExtension>
            <ns3:hr>116</ns3:hr>
            <ns3:cad>70</ns3:cad>
          </ns3:TrackPointExtension>
        </extensions>
      </trkpt>
      <trkpt lat="45.31594117172062397003173828125" lon="-71.04664742946624755859375">
        <ele>697.20001220703125</ele>
        <time>2026-08-21T21:57:57.000Z</time>
        <extensions>
          <ns3:TrackPointExtension>
            <ns3:hr>116</ns3:hr>
            <ns3:cad>70</ns3:cad>
          </ns3:TrackPointExtension>
        </extensions>
      </trkpt>
      <trkpt lat="45.3159449435770511627197265625" lon="-71.04666595347225666046142578125">
        <ele>697</ele>
        <time>2026-08-21T21:57:58.000Z</time>
        <extensions>
          <ns3:TrackPointExtension>
            <ns3:hr>115</ns3:hr>
            <ns3:cad>70</ns3:cad>
          </ns3:TrackPointExtension>
        </extensions>
      </trkpt>
      <trkpt lat="45.31595089472830295562744140625" lon="-71.04668623767793178558349609375">
        <ele>696.79998779296875</ele>
        <time>2026-08-21T21:57:59.000Z</time>
        <extensions>
          <ns3:TrackPointExtension>
            <ns3:hr>116</ns3:hr>
            <ns3:cad>70</ns3:cad>
          </ns3:TrackPointExtension>
        </extensions>
      </trkpt>
      <trkpt lat="45.31595709733664989471435546875" lon="-71.04670040309429168701171875">
        <ele>696.5999755859375</ele>
        <time>2026-08-21T21:58:00.000Z</time>
        <extensions>
          <ns3:TrackPointExtension>
            <ns3:hr>115</ns3:hr>
            <ns3:cad>67</ns3:cad>
          </ns3:TrackPointExtension>
        </extensions>
      </trkpt>
      <trkpt lat="45.31595273874700069427490234375" lon="-71.0467059351503849029541015625">
        <ele>696.5999755859375</ele>
        <time>2026-08-21T21:58:01.000Z</time>
        <extensions>
          <ns3:TrackPointExtension>
            <ns3:hr>115</ns3:hr>
            <ns3:cad>57</ns3:cad>
          </ns3:TrackPointExtension>
        </extensions>
      </trkpt>
      <trkpt lat="45.31594972126185894012451171875" lon="-71.04671155102550983428955078125">
        <ele>696.5999755859375</ele>
        <time>2026-08-21T21:58:02.000Z</time>
        <extensions>
          <ns3:TrackPointExtension>
            <ns3:hr>115</ns3:hr>
            <ns3:cad>57</ns3:cad>
          </ns3:TrackPointExtension>
        </extensions>
      </trkpt>
      <trkpt lat="45.3159472905099391937255859375" lon="-71.04671423323452472686767578125">
        <ele>696.5999755859375</ele>
        <time>2026-08-21T21:58:03.000Z</time>
        <extensions>
          <ns3:TrackPointExtension>
            <ns3:hr>115</ns3:hr>
            <ns3:cad>57</ns3:cad>
          </ns3:TrackPointExtension>
        </extensions>
      </trkpt>
      <trkpt lat="45.31594745814800262451171875" lon="-71.04672412388026714324951171875">
        <ele>696.4000244140625</ele>
        <time>2026-08-21T21:58:04.000Z</time>
        <extensions>
          <ns3:TrackPointExtension>
            <ns3:hr>114</ns3:hr>
            <ns3:cad>57</ns3:cad>
          </ns3:TrackPointExtension>
        </extensions>
      </trkpt>
      <trkpt lat="45.315949134528636932373046875" lon="-71.04673862457275390625">
        <ele>696.4000244140625</ele>
        <time>2026-08-21T21:58:05.000Z</time>
        <extensions>
          <ns3:TrackPointExtension>
            <ns3:hr>114</ns3:hr>
            <ns3:cad>0</ns3:cad>
          </ns3:TrackPointExtension>
        </extensions>
      </trkpt>
      <trkpt lat="45.31595072709023952484130859375" lon="-71.046753041446208953857421875">
        <ele>696.4000244140625</ele>
        <time>2026-08-21T21:58:06.000Z</time>
        <extensions>
          <ns3:TrackPointExtension>
            <ns3:hr>114</ns3:hr>
            <ns3:cad>50</ns3:cad>
          </ns3:TrackPointExtension>
        </extensions>
      </trkpt>
      <trkpt lat="45.31595424748957157135009765625" lon="-71.04676544666290283203125">
        <ele>696.20001220703125</ele>
        <time>2026-08-21T21:58:07.000Z</time>
        <extensions>
          <ns3:TrackPointExtension>
            <ns3:hr>113</ns3:hr>
            <ns3:cad>50</ns3:cad>
          </ns3:TrackPointExtension>
        </extensions>
      </trkpt>
      <trkpt lat="45.315955169498920440673828125" lon="-71.04677391238510608673095703125">
        <ele>696.20001220703125</ele>
        <time>2026-08-21T21:58:08.000Z</time>
        <extensions>
          <ns3:TrackPointExtension>
            <ns3:hr>113</ns3:hr>
            <ns3:cad>0</ns3:cad>
          </ns3:TrackPointExtension>
        </extensions>
      </trkpt>
      <trkpt lat="45.31595592387020587921142578125" lon="-71.0467855632305145263671875">
        <ele>696.20001220703125</ele>
        <time>2026-08-21T21:58:09.000Z</time>
        <extensions>
          <ns3:TrackPointExtension>
            <ns3:hr>112</ns3:hr>
            <ns3:cad>0</ns3:cad>
          </ns3:TrackPointExtension>
        </extensions>
      </trkpt>
      <trkpt lat="45.31595952808856964111328125" lon="-71.04679436422884464263916015625">
        <ele>696</ele>
        <time>2026-08-21T21:58:10.000Z</time>
        <extensions>
          <ns3:TrackPointExtension>
            <ns3:hr>111</ns3:hr>
            <ns3:cad>0</ns3:cad>
          </ns3:TrackPointExtension>
        </extensions>
      </trkpt>
      <trkpt lat="45.315963216125965118408203125" lon="-71.04679268784821033477783203125">
        <ele>696</ele>
        <time>2026-08-21T21:58:11.000Z</time>
        <extensions>
          <ns3:TrackPointExtension>
            <ns3:hr>112</ns3:hr>
            <ns3:cad>0</ns3:cad>
          </ns3:TrackPointExtension>
        </extensions>
      </trkpt>
      <trkpt lat="45.31596799381077289581298828125" lon="-71.04678212665021419525146484375">
        <ele>696</ele>
        <time>2026-08-21T21:58:12.000Z</time>
        <extensions>
          <ns3:TrackPointExtension>
            <ns3:hr>112</ns3:hr>
            <ns3:cad>0</ns3:cad>
          </ns3:TrackPointExtension>
        </extensions>
      </trkpt>
      <trkpt lat="45.31596782617270946502685546875" lon="-71.0467679612338542938232421875">
        <ele>696</ele>
        <time>2026-08-21T21:58:13.000Z</time>
        <extensions>
          <ns3:TrackPointExtension>
            <ns3:hr>113</ns3:hr>
            <ns3:cad>0</ns3:cad>
          </ns3:TrackPointExtension>
        </extensions>
      </trkpt>
      <trkpt lat="45.3159674070775508880615234375" lon="-71.04675379581749439239501953125">
        <ele>696.20001220703125</ele>
        <time>2026-08-21T21:58:14.000Z</time>
        <extensions>
          <ns3:TrackPointExtension>
            <ns3:hr>113</ns3:hr>
            <ns3:cad>0</ns3:cad>
          </ns3:TrackPointExtension>
        </extensions>
      </trkpt>
      <trkpt lat="45.3159660659730434417724609375" lon="-71.046732924878597259521484375">
        <ele>696.20001220703125</ele>
        <time>2026-08-21T21:58:15.000Z</time>
        <extensions>
          <ns3:TrackPointExtension>
            <ns3:hr>112</ns3:hr>
            <ns3:cad>58</ns3:cad>
          </ns3:TrackPointExtension>
        </extensions>
      </trkpt>
      <trkpt lat="45.315964221954345703125" lon="-71.0467109642922878265380859375">
        <ele>696.4000244140625</ele>
        <time>2026-08-21T21:58:16.000Z</time>
        <extensions>
          <ns3:TrackPointExtension>
            <ns3:hr>112</ns3:hr>
            <ns3:cad>58</ns3:cad>
          </ns3:TrackPointExtension>
        </extensions>
      </trkpt>
      <trkpt lat="45.31596112065017223358154296875" lon="-71.04669042862951755523681640625">
        <ele>696.5999755859375</ele>
        <time>2026-08-21T21:58:17.000Z</time>
        <extensions>
          <ns3:TrackPointExtension>
            <ns3:hr>112</ns3:hr>
            <ns3:cad>53</ns3:cad>
          </ns3:TrackPointExtension>
        </extensions>
      </trkpt>
      <trkpt lat="45.31595458276569843292236328125" lon="-71.046667881309986114501953125">
        <ele>696.79998779296875</ele>
        <time>2026-08-21T21:58:18.000Z</time>
        <extensions>
          <ns3:TrackPointExtension>
            <ns3:hr>112</ns3:hr>
            <ns3:cad>53</ns3:cad>
          </ns3:TrackPointExtension>
        </extensions>
      </trkpt>
      <trkpt lat="45.31595240347087383270263671875" lon="-71.04664633981883525848388671875">
        <ele>696.79998779296875</ele>
        <time>2026-08-21T21:58:19.000Z</time>
        <extensions>
          <ns3:TrackPointExtension>
            <ns3:hr>111</ns3:hr>
            <ns3:cad>53</ns3:cad>
          </ns3:TrackPointExtension>
        </extensions>
      </trkpt>
      <trkpt lat="45.31594787724316120147705078125" lon="-71.04661700315773487091064453125">
        <ele>696.79998779296875</ele>
        <time>2026-08-21T21:58:20.000Z</time>
        <extensions>
          <ns3:TrackPointExtension>
            <ns3:hr>110</ns3:hr>
            <ns3:cad>53</ns3:cad>
          </ns3:TrackPointExtension>
        </extensions>
      </trkpt>
      <trkpt lat="45.31594167463481426239013671875" lon="-71.0465946234762668609619140625">
        <ele>697</ele>
        <time>2026-08-21T21:58:21.000Z</time>
        <extensions>
          <ns3:TrackPointExtension>
            <ns3:hr>110</ns3:hr>
            <ns3:cad>53</ns3:cad>
          </ns3:TrackPointExtension>
        </extensions>
      </trkpt>
      <trkpt lat="45.315935723483562469482421875" lon="-71.04658045805990695953369140625">
        <ele>697.20001220703125</ele>
        <time>2026-08-21T21:58:22.000Z</time>
        <extensions>
          <ns3:TrackPointExtension>
            <ns3:hr>111</ns3:hr>
            <ns3:cad>53</ns3:cad>
          </ns3:TrackPointExtension>
        </extensions>
      </trkpt>
      <trkpt lat="45.3159332089126110076904296875" lon="-71.04656436480581760406494140625">
        <ele>697.5999755859375</ele>
        <time>2026-08-21T21:58:23.000Z</time>
        <extensions>
          <ns3:TrackPointExtension>
            <ns3:hr>111</ns3:hr>
            <ns3:cad>53</ns3:cad>
          </ns3:TrackPointExtension>
        </extensions>
      </trkpt>
      <trkpt lat="45.3159308619797229766845703125" lon="-71.0465490259230136871337890625">
        <ele>697.79998779296875</ele>
        <time>2026-08-21T21:58:24.000Z</time>
        <extensions>
          <ns3:TrackPointExtension>
            <ns3:hr>112</ns3:hr>
            <ns3:cad>53</ns3:cad>
          </ns3:TrackPointExtension>
        </extensions>
      </trkpt>
      <trkpt lat="45.31592734158039093017578125" lon="-71.046537794172763824462890625">
        <ele>698.20001220703125</ele>
        <time>2026-08-21T21:58:25.000Z</time>
        <extensions>
          <ns3:TrackPointExtension>
            <ns3:hr>112</ns3:hr>
            <ns3:cad>53</ns3:cad>
          </ns3:TrackPointExtension>
        </extensions>
      </trkpt>
      <trkpt lat="45.31592189334332942962646484375" lon="-71.04652547277510166168212890625">
        <ele>698.4000244140625</ele>
        <time>2026-08-21T21:58:26.000Z</time>
        <extensions>
          <ns3:TrackPointExtension>
            <ns3:hr>112</ns3:hr>
            <ns3:cad>53</ns3:cad>
          </ns3:TrackPointExtension>
        </extensions>
      </trkpt>
      <trkpt lat="45.3159164451062679290771484375" lon="-71.04650728404521942138671875">
        <ele>698.4000244140625</ele>
        <time>2026-08-21T21:58:27.000Z</time>
        <extensions>
          <ns3:TrackPointExtension>
            <ns3:hr>111</ns3:hr>
            <ns3:cad>53</ns3:cad>
          </ns3:TrackPointExtension>
        </extensions>
      </trkpt>
      <trkpt lat="45.31591401435434818267822265625" lon="-71.04649378918111324310302734375">
        <ele>698.5999755859375</ele>
        <time>2026-08-21T21:58:28.000Z</time>
        <extensions>
          <ns3:TrackPointExtension>
            <ns3:hr>110</ns3:hr>
            <ns3:cad>53</ns3:cad>
          </ns3:TrackPointExtension>
        </extensions>
      </trkpt>
      <trkpt lat="45.3159127570688724517822265625" lon="-71.04648138396441936492919921875">
        <ele>698.79998779296875</ele>
        <time>2026-08-21T21:58:29.000Z</time>
        <extensions>
          <ns3:TrackPointExtension>
            <ns3:hr>110</ns3:hr>
            <ns3:cad>52</ns3:cad>
          </ns3:TrackPointExtension>
        </extensions>
      </trkpt>
      <trkpt lat="45.3159110806882381439208984375" lon="-71.04646705090999603271484375">
        <ele>699</ele>
        <time>2026-08-21T21:58:30.000Z</time>
        <extensions>
          <ns3:TrackPointExtension>
            <ns3:hr>109</ns3:hr>
            <ns3:cad>52</ns3:cad>
          </ns3:TrackPointExtension>
        </extensions>
      </trkpt>
      <trkpt lat="45.315908901393413543701171875" lon="-71.04645925574004650115966796875">
        <ele>699.20001220703125</ele>
        <time>2026-08-21T21:58:31.000Z</time>
        <extensions>
          <ns3:TrackPointExtension>
            <ns3:hr>109</ns3:hr>
            <ns3:cad>52</ns3:cad>
          </ns3:TrackPointExtension>
        </extensions>
      </trkpt>
      <trkpt lat="45.31590512953698635101318359375" lon="-71.0464476048946380615234375">
        <ele>699.5999755859375</ele>
        <time>2026-08-21T21:58:32.000Z</time>
        <extensions>
          <ns3:TrackPointExtension>
            <ns3:hr>109</ns3:hr>
            <ns3:cad>50</ns3:cad>
          </ns3:TrackPointExtension>
        </extensions>
      </trkpt>
      <trkpt lat="45.3159033693373203277587890625" lon="-71.0464343614876270294189453125">
        <ele>699.79998779296875</ele>
        <time>2026-08-21T21:58:33.000Z</time>
        <extensions>
          <ns3:TrackPointExtension>
            <ns3:hr>109</ns3:hr>
            <ns3:cad>50</ns3:cad>
          </ns3:TrackPointExtension>
        </extensions>
      </trkpt>
      <trkpt lat="45.3159010224044322967529296875" lon="-71.04641751386225223541259765625">
        <ele>700</ele>
        <time>2026-08-21T21:58:34.000Z</time>
        <extensions>
          <ns3:TrackPointExtension>
            <ns3:hr>109</ns3:hr>
            <ns3:cad>45</ns3:cad>
          </ns3:TrackPointExtension>
        </extensions>
      </trkpt>
      <trkpt lat="45.31589641235768795013427734375" lon="-71.0464045219123363494873046875">
        <ele>700</ele>
        <time>2026-08-21T21:58:35.000Z</time>
        <extensions>
          <ns3:TrackPointExtension>
            <ns3:hr>109</ns3:hr>
            <ns3:cad>45</ns3:cad>
          </ns3:TrackPointExtension>
        </extensions>
      </trkpt>
      <trkpt lat="45.31589305959641933441162109375" lon="-71.0463897697627544403076171875">
        <ele>700.20001220703125</ele>
        <time>2026-08-21T21:58:36.000Z</time>
        <extensions>
          <ns3:TrackPointExtension>
            <ns3:hr>110</ns3:hr>
            <ns3:cad>45</ns3:cad>
          </ns3:TrackPointExtension>
        </extensions>
      </trkpt>
      <trkpt lat="45.3158889524638652801513671875" lon="-71.04637308977544307708740234375">
        <ele>700.4000244140625</ele>
        <time>2026-08-21T21:58:37.000Z</time>
        <extensions>
          <ns3:TrackPointExtension>
            <ns3:hr>110</ns3:hr>
            <ns3:cad>50</ns3:cad>
          </ns3:TrackPointExtension>
        </extensions>
      </trkpt>
      <trkpt lat="45.31588685698807239532470703125" lon="-71.04636370204389095306396484375">
        <ele>700.5999755859375</ele>
        <time>2026-08-21T21:58:38.000Z</time>
        <extensions>
          <ns3:TrackPointExtension>
            <ns3:hr>110</ns3:hr>
            <ns3:cad>50</ns3:cad>
          </ns3:TrackPointExtension>
        </extensions>
      </trkpt>
      <trkpt lat="45.315886437892913818359375" lon="-71.04634660296142101287841796875">
        <ele>700.79998779296875</ele>
        <time>2026-08-21T21:58:39.000Z</time>
        <extensions>
          <ns3:TrackPointExtension>
            <ns3:hr>111</ns3:hr>
            <ns3:cad>50</ns3:cad>
          </ns3:TrackPointExtension>
        </extensions>
      </trkpt>
      <trkpt lat="45.3158892877399921417236328125" lon="-71.04632866568863391876220703125">
        <ele>701</ele>
        <time>2026-08-21T21:58:40.000Z</time>
        <extensions>
          <ns3:TrackPointExtension>
            <ns3:hr>111</ns3:hr>
            <ns3:cad>50</ns3:cad>
          </ns3:TrackPointExtension>
        </extensions>
      </trkpt>
      <trkpt lat="45.315894149243831634521484375" lon="-71.04630888439714908599853515625">
        <ele>701</ele>
        <time>2026-08-21T21:58:41.000Z</time>
        <extensions>
          <ns3:TrackPointExtension>
            <ns3:hr>111</ns3:hr>
            <ns3:cad>50</ns3:cad>
          </ns3:TrackPointExtension>
        </extensions>
      </trkpt>
      <trkpt lat="45.315897166728973388671875" lon="-71.0462942160665988922119140625">
        <ele>701.20001220703125</ele>
        <time>2026-08-21T21:58:42.000Z</time>
        <extensions>
          <ns3:TrackPointExtension>
            <ns3:hr>112</ns3:hr>
            <ns3:cad>50</ns3:cad>
          </ns3:TrackPointExtension>
        </extensions>
      </trkpt>
      <trkpt lat="45.3159047104418277740478515625" lon="-71.0462813079357147216796875">
        <ele>701.20001220703125</ele>
        <time>2026-08-21T21:58:43.000Z</time>
        <extensions>
          <ns3:TrackPointExtension>
            <ns3:hr>113</ns3:hr>
            <ns3:cad>50</ns3:cad>
          </ns3:TrackPointExtension>
        </extensions>
      </trkpt>
      <trkpt lat="45.3159107454121112823486328125" lon="-71.0462633706629276275634765625">
        <ele>701.20001220703125</ele>
        <time>2026-08-21T21:58:44.000Z</time>
        <extensions>
          <ns3:TrackPointExtension>
            <ns3:hr>113</ns3:hr>
            <ns3:cad>47</ns3:cad>
          </ns3:TrackPointExtension>
        </extensions>
      </trkpt>
      <trkpt lat="45.31591703183948993682861328125" lon="-71.04625121690332889556884765625">
        <ele>701</ele>
        <time>2026-08-21T21:58:45.000Z</time>
        <extensions>
          <ns3:TrackPointExtension>
            <ns3:hr>114</ns3:hr>
            <ns3:cad>47</ns3:cad>
          </ns3:TrackPointExtension>
        </extensions>
      </trkpt>
      <trkpt lat="45.31592734158039093017578125" lon="-71.0462456010282039642333984375">
        <ele>700.79998779296875</ele>
        <time>2026-08-21T21:58:46.000Z</time>
        <extensions>
          <ns3:TrackPointExtension>
            <ns3:hr>115</ns3:hr>
            <ns3:cad>47</ns3:cad>
          </ns3:TrackPointExtension>
        </extensions>
      </trkpt>
      <trkpt lat="45.3159422613680362701416015625" lon="-71.0462325252592563629150390625">
        <ele>700.5999755859375</ele>
        <time>2026-08-21T21:58:47.000Z</time>
        <extensions>
          <ns3:TrackPointExtension>
            <ns3:hr>115</ns3:hr>
            <ns3:cad>47</ns3:cad>
          </ns3:TrackPointExtension>
        </extensions>
      </trkpt>
      <trkpt lat="45.31595290638506412506103515625" lon="-71.04621081613004207611083984375">
        <ele>700.4000244140625</ele>
        <time>2026-08-21T21:58:48.000Z</time>
        <extensions>
          <ns3:TrackPointExtension>
            <ns3:hr>116</ns3:hr>
            <ns3:cad>47</ns3:cad>
          </ns3:TrackPointExtension>
        </extensions>
      </trkpt>
      <trkpt lat="45.3159546665847301483154296875" lon="-71.04619078338146209716796875">
        <ele>700.20001220703125</ele>
        <time>2026-08-21T21:58:49.000Z</time>
        <extensions>
          <ns3:TrackPointExtension>
            <ns3:hr>117</ns3:hr>
            <ns3:cad>47</ns3:cad>
          </ns3:TrackPointExtension>
        </extensions>
      </trkpt>
      <trkpt lat="45.315957181155681610107421875" lon="-71.0461664758622646331787109375">
        <ele>700.20001220703125</ele>
        <time>2026-08-21T21:58:50.000Z</time>
        <extensions>
          <ns3:TrackPointExtension>
            <ns3:hr>117</ns3:hr>
            <ns3:cad>47</ns3:cad>
          </ns3:TrackPointExtension>
        </extensions>
      </trkpt>
      <trkpt lat="45.3159586898982524871826171875" lon="-71.04614543728530406951904296875">
        <ele>700.20001220703125</ele>
        <time>2026-08-21T21:58:51.000Z</time>
        <extensions>
          <ns3:TrackPointExtension>
            <ns3:hr>118</ns3:hr>
            <ns3:cad>59</ns3:cad>
          </ns3:TrackPointExtension>
        </extensions>
      </trkpt>
      <trkpt lat="45.31596363522112369537353515625" lon="-71.04612833820283412933349609375">
        <ele>700.20001220703125</ele>
        <time>2026-08-21T21:58:52.000Z</time>
        <extensions>
          <ns3:TrackPointExtension>
            <ns3:hr>119</ns3:hr>
            <ns3:cad>59</ns3:cad>
          </ns3:TrackPointExtension>
        </extensions>
      </trkpt>
      <trkpt lat="45.315971262753009796142578125" lon="-71.0461138375103473663330078125">
        <ele>700.20001220703125</ele>
        <time>2026-08-21T21:58:53.000Z</time>
        <extensions>
          <ns3:TrackPointExtension>
            <ns3:hr>122</ns3:hr>
            <ns3:cad>59</ns3:cad>
          </ns3:TrackPointExtension>
        </extensions>
      </trkpt>
      <trkpt lat="45.315981321036815643310546875" lon="-71.04609958827495574951171875">
        <ele>700.20001220703125</ele>
        <time>2026-08-21T21:58:54.000Z</time>
        <extensions>
          <ns3:TrackPointExtension>
            <ns3:hr>126</ns3:hr>
            <ns3:cad>57</ns3:cad>
          </ns3:TrackPointExtension>
        </extensions>
      </trkpt>
      <trkpt lat="45.31598475761711597442626953125" lon="-71.0460779629647731781005859375">
        <ele>700.4000244140625</ele>
        <time>2026-08-21T21:58:55.000Z</time>
        <extensions>
          <ns3:TrackPointExtension>
            <ns3:hr>128</ns3:hr>
            <ns3:cad>57</ns3:cad>
          </ns3:TrackPointExtension>
        </extensions>
      </trkpt>
      <trkpt lat="45.3159871883690357208251953125" lon="-71.04605658911168575286865234375">
        <ele>700.4000244140625</ele>
        <time>2026-08-21T21:58:56.000Z</time>
        <extensions>
          <ns3:TrackPointExtension>
            <ns3:hr>131</ns3:hr>
            <ns3:cad>54</ns3:cad>
          </ns3:TrackPointExtension>
        </extensions>
      </trkpt>
      <trkpt lat="45.31599062494933605194091796875" lon="-71.04603513143956661224365234375">
        <ele>700.4000244140625</ele>
        <time>2026-08-21T21:58:57.000Z</time>
        <extensions>
          <ns3:TrackPointExtension>
            <ns3:hr>133</ns3:hr>
            <ns3:cad>54</ns3:cad>
          </ns3:TrackPointExtension>
        </extensions>
      </trkpt>
      <trkpt lat="45.31599649228155612945556640625" lon="-71.04601618833839893341064453125">
        <ele>700.4000244140625</ele>
        <time>2026-08-21T21:58:58.000Z</time>
        <extensions>
          <ns3:TrackPointExtension>
            <ns3:hr>134</ns3:hr>
            <ns3:cad>54</ns3:cad>
          </ns3:TrackPointExtension>
        </extensions>
      </trkpt>
      <trkpt lat="45.31600319780409336090087890625" lon="-71.04599540121853351593017578125">
        <ele>700.4000244140625</ele>
        <time>2026-08-21T21:58:59.000Z</time>
        <extensions>
          <ns3:TrackPointExtension>
            <ns3:hr>134</ns3:hr>
            <ns3:cad>57</ns3:cad>
          </ns3:TrackPointExtension>
        </extensions>
      </trkpt>
      <trkpt lat="45.3160079754889011383056640625" lon="-71.0459736920893192291259765625">
        <ele>700.4000244140625</ele>
        <time>2026-08-21T21:59:00.000Z</time>
        <extensions>
          <ns3:TrackPointExtension>
            <ns3:hr>135</ns3:hr>
            <ns3:cad>57</ns3:cad>
          </ns3:TrackPointExtension>
        </extensions>
      </trkpt>
      <trkpt lat="45.3160130046308040618896484375" lon="-71.04595734737813472747802734375">
        <ele>700.4000244140625</ele>
        <time>2026-08-21T21:59:01.000Z</time>
        <extensions>
          <ns3:TrackPointExtension>
            <ns3:hr>135</ns3:hr>
            <ns3:cad>57</ns3:cad>
          </ns3:TrackPointExtension>
        </extensions>
      </trkpt>
      <trkpt lat="45.3160160221159458160400390625" lon="-71.04593865573406219482421875">
        <ele>700.4000244140625</ele>
        <time>2026-08-21T21:59:02.000Z</time>
        <extensions>
          <ns3:TrackPointExtension>
            <ns3:hr>135</ns3:hr>
            <ns3:cad>57</ns3:cad>
          </ns3:TrackPointExtension>
        </extensions>
      </trkpt>
      <trkpt lat="45.3160173632204532623291015625" lon="-71.04591594077646732330322265625">
        <ele>700.4000244140625</ele>
        <time>2026-08-21T21:59:03.000Z</time>
        <extensions>
          <ns3:TrackPointExtension>
            <ns3:hr>135</ns3:hr>
            <ns3:cad>58</ns3:cad>
          </ns3:TrackPointExtension>
        </extensions>
      </trkpt>
      <trkpt lat="45.3160223923623561859130859375" lon="-71.0458975844085216522216796875">
        <ele>700.4000244140625</ele>
        <time>2026-08-21T21:59:04.000Z</time>
        <extensions>
          <ns3:TrackPointExtension>
            <ns3:hr>135</ns3:hr>
            <ns3:cad>58</ns3:cad>
          </ns3:TrackPointExtension>
        </extensions>
      </trkpt>
      <trkpt lat="45.31602901406586170196533203125" lon="-71.04587537236511707305908203125">
        <ele>700.4000244140625</ele>
        <time>2026-08-21T21:59:05.000Z</time>
        <extensions>
          <ns3:TrackPointExtension>
            <ns3:hr>134</ns3:hr>
            <ns3:cad>58</ns3:cad>
          </ns3:TrackPointExtension>
        </extensions>
      </trkpt>
      <trkpt lat="45.3160337917506694793701171875" lon="-71.04585525579750537872314453125">
        <ele>700.4000244140625</ele>
        <time>2026-08-21T21:59:06.000Z</time>
        <extensions>
          <ns3:TrackPointExtension>
            <ns3:hr>134</ns3:hr>
            <ns3:cad>58</ns3:cad>
          </ns3:TrackPointExtension>
        </extensions>
      </trkpt>
      <trkpt lat="45.3160401619970798492431640625" lon="-71.04583530686795711517333984375">
        <ele>700.4000244140625</ele>
        <time>2026-08-21T21:59:07.000Z</time>
        <extensions>
          <ns3:TrackPointExtension>
            <ns3:hr>134</ns3:hr>
            <ns3:cad>58</ns3:cad>
          </ns3:TrackPointExtension>
        </extensions>
      </trkpt>
      <trkpt lat="45.3160455264151096343994140625" lon="-71.0458104126155376434326171875">
        <ele>700.20001220703125</ele>
        <time>2026-08-21T21:59:08.000Z</time>
        <extensions>
          <ns3:TrackPointExtension>
            <ns3:hr>134</ns3:hr>
            <ns3:cad>58</ns3:cad>
          </ns3:TrackPointExtension>
        </extensions>
      </trkpt>
      <trkpt lat="45.31605516560375690460205078125" lon="-71.04579892940819263458251953125">
        <ele>700</ele>
        <time>2026-08-21T21:59:09.000Z</time>
        <extensions>
          <ns3:TrackPointExtension>
            <ns3:hr>134</ns3:hr>
            <ns3:cad>58</ns3:cad>
          </ns3:TrackPointExtension>
        </extensions>
      </trkpt>
      <trkpt lat="45.31606304459273815155029296875" lon="-71.04578400962054729461669921875">
        <ele>699.79998779296875</ele>
        <time>2026-08-21T21:59:10.000Z</time>
        <extensions>
          <ns3:TrackPointExtension>
            <ns3:hr>134</ns3:hr>
            <ns3:cad>58</ns3:cad>
          </ns3:TrackPointExtension>
        </extensions>
      </trkpt>
      <trkpt lat="45.3160713426768779754638671875" lon="-71.04576422832906246185302734375">
        <ele>699.5999755859375</ele>
        <time>2026-08-21T21:59:11.000Z</time>
        <extensions>
          <ns3:TrackPointExtension>
            <ns3:hr>134</ns3:hr>
            <ns3:cad>58</ns3:cad>
          </ns3:TrackPointExtension>
        </extensions>
      </trkpt>
      <trkpt lat="45.31607662327587604522705078125" lon="-71.04573572985827922821044921875">
        <ele>699.20001220703125</ele>
        <time>2026-08-21T21:59:12.000Z</time>
        <extensions>
          <ns3:TrackPointExtension>
            <ns3:hr>134</ns3:hr>
            <ns3:cad>58</ns3:cad>
          </ns3:TrackPointExtension>
        </extensions>
      </trkpt>
      <trkpt lat="45.31608651392161846160888671875" lon="-71.0457151941955089569091796875">
        <ele>698.5999755859375</ele>
        <time>2026-08-21T21:59:13.000Z</time>
        <extensions>
          <ns3:TrackPointExtension>
            <ns3:hr>134</ns3:hr>
            <ns3:cad>58</ns3:cad>
          </ns3:TrackPointExtension>
        </extensions>
      </trkpt>
      <trkpt lat="45.316092967987060546875" lon="-71.0456977598369121551513671875">
        <ele>698.20001220703125</ele>
        <time>2026-08-21T21:59:14.000Z</time>
        <extensions>
          <ns3:TrackPointExtension>
            <ns3:hr>134</ns3:hr>
            <ns3:cad>58</ns3:cad>
          </ns3:TrackPointExtension>
        </extensions>
      </trkpt>
      <trkpt lat="45.316095650196075439453125" lon="-71.0456823371350765228271484375">
        <ele>698</ele>
        <time>2026-08-21T21:59:15.000Z</time>
        <extensions>
          <ns3:TrackPointExtension>
            <ns3:hr>134</ns3:hr>
            <ns3:cad>0</ns3:cad>
          </ns3:TrackPointExtension>
        </extensions>
      </trkpt>
      <trkpt lat="45.3161055408418178558349609375" lon="-71.0456764698028564453125">
        <ele>697.5999755859375</ele>
        <time>2026-08-21T21:59:16.000Z</time>
        <extensions>
          <ns3:TrackPointExtension>
            <ns3:hr>134</ns3:hr>
            <ns3:cad>0</ns3:cad>
          </ns3:TrackPointExtension>
        </extensions>
      </trkpt>
      <trkpt lat="45.3161238133907318115234375" lon="-71.04565568268299102783203125">
        <ele>697.4000244140625</ele>
        <time>2026-08-21T21:59:17.000Z</time>
        <extensions>
          <ns3:TrackPointExtension>
            <ns3:hr>133</ns3:hr>
            <ns3:cad>0</ns3:cad>
          </ns3:TrackPointExtension>
        </extensions>
      </trkpt>
      <trkpt lat="45.316136218607425689697265625" lon="-71.0456377454102039337158203125">
        <ele>697.20001220703125</ele>
        <time>2026-08-21T21:59:18.000Z</time>
        <extensions>
          <ns3:TrackPointExtension>
            <ns3:hr>133</ns3:hr>
            <ns3:cad>0</ns3:cad>
          </ns3:TrackPointExtension>
        </extensions>
      </trkpt>
      <trkpt lat="45.316143594682216644287109375" lon="-71.04561385698616504669189453125">
        <ele>697</ele>
        <time>2026-08-21T21:59:19.000Z</time>
        <extensions>
          <ns3:TrackPointExtension>
            <ns3:hr>133</ns3:hr>
            <ns3:cad>0</ns3:cad>
          </ns3:TrackPointExtension>
        </extensions>
      </trkpt>
      <trkpt lat="45.3161501325666904449462890625" lon="-71.04559055529534816741943359375">
        <ele>697</ele>
        <time>2026-08-21T21:59:20.000Z</time>
        <extensions>
          <ns3:TrackPointExtension>
            <ns3:hr>131</ns3:hr>
            <ns3:cad>0</ns3:cad>
          </ns3:TrackPointExtension>
        </extensions>
      </trkpt>
      <trkpt lat="45.31616203486919403076171875" lon="-71.045564152300357818603515625">
        <ele>697</ele>
        <time>2026-08-21T21:59:21.000Z</time>
        <extensions>
          <ns3:TrackPointExtension>
            <ns3:hr>130</ns3:hr>
            <ns3:cad>0</ns3:cad>
          </ns3:TrackPointExtension>
        </extensions>
      </trkpt>
      <trkpt lat="45.31617435626685619354248046875" lon="-71.04553339071571826934814453125">
        <ele>697</ele>
        <time>2026-08-21T21:59:22.000Z</time>
        <extensions>
          <ns3:TrackPointExtension>
            <ns3:hr>130</ns3:hr>
            <ns3:cad>0</ns3:cad>
          </ns3:TrackPointExtension>
        </extensions>
      </trkpt>
      <trkpt lat="45.3161762841045856475830078125" lon="-71.045507490634918212890625">
        <ele>697.20001220703125</ele>
        <time>2026-08-21T21:59:23.000Z</time>
        <extensions>
          <ns3:TrackPointExtension>
            <ns3:hr>130</ns3:hr>
            <ns3:cad>0</ns3:cad>
          </ns3:TrackPointExtension>
        </extensions>
      </trkpt>
      <trkpt lat="45.31617678701877593994140625" lon="-71.04548024944961071014404296875">
        <ele>697.4000244140625</ele>
        <time>2026-08-21T21:59:24.000Z</time>
        <extensions>
          <ns3:TrackPointExtension>
            <ns3:hr>130</ns3:hr>
            <ns3:cad>0</ns3:cad>
          </ns3:TrackPointExtension>
        </extensions>
      </trkpt>
      <trkpt lat="45.31617435626685619354248046875" lon="-71.04545208625495433807373046875">
        <ele>697.4000244140625</ele>
        <time>2026-08-21T21:59:25.000Z</time>
        <extensions>
          <ns3:TrackPointExtension>
            <ns3:hr>130</ns3:hr>
            <ns3:cad>0</ns3:cad>
          </ns3:TrackPointExtension>
        </extensions>
      </trkpt>
      <trkpt lat="45.31617569737136363983154296875" lon="-71.04543113149702548980712890625">
        <ele>697.5999755859375</ele>
        <time>2026-08-21T21:59:26.000Z</time>
        <extensions>
          <ns3:TrackPointExtension>
            <ns3:hr>130</ns3:hr>
            <ns3:cad>0</ns3:cad>
          </ns3:TrackPointExtension>
        </extensions>
      </trkpt>
      <trkpt lat="45.31618139706552028656005859375" lon="-71.04542006738483905792236328125">
        <ele>697.5999755859375</ele>
        <time>2026-08-21T21:59:27.000Z</time>
        <extensions>
          <ns3:TrackPointExtension>
            <ns3:hr>130</ns3:hr>
            <ns3:cad>0</ns3:cad>
          </ns3:TrackPointExtension>
        </extensions>
      </trkpt>
      <trkpt lat="45.3161903657019138336181640625" lon="-71.0454074107110500335693359375">
        <ele>697.5999755859375</ele>
        <time>2026-08-21T21:59:28.000Z</time>
        <extensions>
          <ns3:TrackPointExtension>
            <ns3:hr>130</ns3:hr>
            <ns3:cad>0</ns3:cad>
          </ns3:TrackPointExtension>
        </extensions>
      </trkpt>
      <trkpt lat="45.31620025634765625" lon="-71.04540900327265262603759765625">
        <ele>697.4000244140625</ele>
        <time>2026-08-21T21:59:29.000Z</time>
        <extensions>
          <ns3:TrackPointExtension>
            <ns3:hr>130</ns3:hr>
            <ns3:cad>0</ns3:cad>
          </ns3:TrackPointExtension>
        </extensions>
      </trkpt>
      <trkpt lat="45.31621324829757213592529296875" lon="-71.0454114340245723724365234375">
        <ele>697.20001220703125</ele>
        <time>2026-08-21T21:59:30.000Z</time>
        <extensions>
          <ns3:TrackPointExtension>
            <ns3:hr>129</ns3:hr>
            <ns3:cad>70</ns3:cad>
          </ns3:TrackPointExtension>
        </extensions>
      </trkpt>
      <trkpt lat="45.31622397713363170623779296875" lon="-71.0454060696065425872802734375">
        <ele>696.79998779296875</ele>
        <time>2026-08-21T21:59:31.000Z</time>
        <extensions>
          <ns3:TrackPointExtension>
            <ns3:hr>129</ns3:hr>
            <ns3:cad>70</ns3:cad>
          </ns3:TrackPointExtension>
        </extensions>
      </trkpt>
      <trkpt lat="45.31623856164515018463134765625" lon="-71.04540313594043254852294921875">
        <ele>696.5999755859375</ele>
        <time>2026-08-21T21:59:32.000Z</time>
        <extensions>
          <ns3:TrackPointExtension>
            <ns3:hr>128</ns3:hr>
            <ns3:cad>70</ns3:cad>
          </ns3:TrackPointExtension>
        </extensions>
      </trkpt>
      <trkpt lat="45.31625029630959033966064453125" lon="-71.0454047285020351409912109375">
        <ele>696.20001220703125</ele>
        <time>2026-08-21T21:59:33.000Z</time>
        <extensions>
          <ns3:TrackPointExtension>
            <ns3:hr>128</ns3:hr>
            <ns3:cad>70</ns3:cad>
          </ns3:TrackPointExtension>
        </extensions>
      </trkpt>
      <trkpt lat="45.31626018695533275604248046875" lon="-71.04540623724460601806640625">
        <ele>695.79998779296875</ele>
        <time>2026-08-21T21:59:34.000Z</time>
        <extensions>
          <ns3:TrackPointExtension>
            <ns3:hr>128</ns3:hr>
            <ns3:cad>70</ns3:cad>
          </ns3:TrackPointExtension>
        </extensions>
      </trkpt>
      <trkpt lat="45.31627644784748554229736328125" lon="-71.04541772045195102691650390625">
        <ele>695.5999755859375</ele>
        <time>2026-08-21T21:59:35.000Z</time>
        <extensions>
          <ns3:TrackPointExtension>
            <ns3:hr>128</ns3:hr>
            <ns3:cad>70</ns3:cad>
          </ns3:TrackPointExtension>
        </extensions>
      </trkpt>
      <trkpt lat="45.3162927925586700439453125" lon="-71.0454224981367588043212890625">
        <ele>695.20001220703125</ele>
        <time>2026-08-21T21:59:36.000Z</time>
        <extensions>
          <ns3:TrackPointExtension>
            <ns3:hr>127</ns3:hr>
            <ns3:cad>70</ns3:cad>
          </ns3:TrackPointExtension>
        </extensions>
      </trkpt>
      <trkpt lat="45.3163077123463153839111328125" lon="-71.0454275272786617279052734375">
        <ele>695</ele>
        <time>2026-08-21T21:59:37.000Z</time>
        <extensions>
          <ns3:TrackPointExtension>
            <ns3:hr>127</ns3:hr>
            <ns3:cad>70</ns3:cad>
          </ns3:TrackPointExtension>
        </extensions>
      </trkpt>
      <trkpt lat="45.31632087193429470062255859375" lon="-71.0454295389354228973388671875">
        <ele>694.79998779296875</ele>
        <time>2026-08-21T21:59:38.000Z</time>
        <extensions>
          <ns3:TrackPointExtension>
            <ns3:hr>127</ns3:hr>
            <ns3:cad>70</ns3:cad>
          </ns3:TrackPointExtension>
        </extensions>
      </trkpt>
      <trkpt lat="45.31633646227419376373291015625" lon="-71.04543708264827728271484375">
        <ele>694.5999755859375</ele>
        <time>2026-08-21T21:59:39.000Z</time>
        <extensions>
          <ns3:TrackPointExtension>
            <ns3:hr>126</ns3:hr>
            <ns3:cad>70</ns3:cad>
          </ns3:TrackPointExtension>
        </extensions>
      </trkpt>
      <trkpt lat="45.31634769402444362640380859375" lon="-71.04544512927532196044921875">
        <ele>694.4000244140625</ele>
        <time>2026-08-21T21:59:40.000Z</time>
        <extensions>
          <ns3:TrackPointExtension>
            <ns3:hr>126</ns3:hr>
            <ns3:cad>70</ns3:cad>
          </ns3:TrackPointExtension>
        </extensions>
      </trkpt>
      <trkpt lat="45.31636345200240612030029296875" lon="-71.045448817312717437744140625">
        <ele>694.4000244140625</ele>
        <time>2026-08-21T21:59:41.000Z</time>
        <extensions>
          <ns3:TrackPointExtension>
            <ns3:hr>126</ns3:hr>
            <ns3:cad>70</ns3:cad>
          </ns3:TrackPointExtension>
        </extensions>
      </trkpt>
      <trkpt lat="45.31637527048587799072265625" lon="-71.0454471409320831298828125">
        <ele>694.20001220703125</ele>
        <time>2026-08-21T21:59:42.000Z</time>
        <extensions>
          <ns3:TrackPointExtension>
            <ns3:hr>126</ns3:hr>
            <ns3:cad>70</ns3:cad>
          </ns3:TrackPointExtension>
        </extensions>
      </trkpt>
      <trkpt lat="45.31638775952160358428955078125" lon="-71.045446805655956268310546875">
        <ele>694</ele>
        <time>2026-08-21T21:59:43.000Z</time>
        <extensions>
          <ns3:TrackPointExtension>
            <ns3:hr>125</ns3:hr>
            <ns3:cad>70</ns3:cad>
          </ns3:TrackPointExtension>
        </extensions>
      </trkpt>
      <trkpt lat="45.31640234403312206268310546875" lon="-71.04544781148433685302734375">
        <ele>694</ele>
        <time>2026-08-21T21:59:44.000Z</time>
        <extensions>
          <ns3:TrackPointExtension>
            <ns3:hr>125</ns3:hr>
            <ns3:cad>70</ns3:cad>
          </ns3:TrackPointExtension>
        </extensions>
      </trkpt>
      <trkpt lat="45.31641541980206966400146484375" lon="-71.04544336907565593719482421875">
        <ele>693.79998779296875</ele>
        <time>2026-08-21T21:59:45.000Z</time>
        <extensions>
          <ns3:TrackPointExtension>
            <ns3:hr>125</ns3:hr>
            <ns3:cad>70</ns3:cad>
          </ns3:TrackPointExtension>
        </extensions>
      </trkpt>
      <trkpt lat="45.31642665155231952667236328125" lon="-71.0454446263611316680908203125">
        <ele>693.5999755859375</ele>
        <time>2026-08-21T21:59:46.000Z</time>
        <extensions>
          <ns3:TrackPointExtension>
            <ns3:hr>125</ns3:hr>
            <ns3:cad>70</ns3:cad>
          </ns3:TrackPointExtension>
        </extensions>
      </trkpt>
      <trkpt lat="45.316440649330615997314453125" lon="-71.0454546846449375152587890625">
        <ele>693.5999755859375</ele>
        <time>2026-08-21T21:59:47.000Z</time>
        <extensions>
          <ns3:TrackPointExtension>
            <ns3:hr>124</ns3:hr>
            <ns3:cad>70</ns3:cad>
          </ns3:TrackPointExtension>
        </extensions>
      </trkpt>
      <trkpt lat="45.31645447947084903717041015625" lon="-71.0454583726823329925537109375">
        <ele>693.4000244140625</ele>
        <time>2026-08-21T21:59:48.000Z</time>
        <extensions>
          <ns3:TrackPointExtension>
            <ns3:hr>125</ns3:hr>
            <ns3:cad>70</ns3:cad>
          </ns3:TrackPointExtension>
        </extensions>
      </trkpt>
      <trkpt lat="45.31646973453462123870849609375" lon="-71.045463569462299346923828125">
        <ele>693.20001220703125</ele>
        <time>2026-08-21T21:59:49.000Z</time>
        <extensions>
          <ns3:TrackPointExtension>
            <ns3:hr>125</ns3:hr>
            <ns3:cad>71</ns3:cad>
          </ns3:TrackPointExtension>
        </extensions>
      </trkpt>
      <trkpt lat="45.316483564674854278564453125" lon="-71.04546432383358478546142578125">
        <ele>693</ele>
        <time>2026-08-21T21:59:50.000Z</time>
        <extensions>
          <ns3:TrackPointExtension>
            <ns3:hr>125</ns3:hr>
            <ns3:cad>71</ns3:cad>
          </ns3:TrackPointExtension>
        </extensions>
      </trkpt>
      <trkpt lat="45.316492952406406402587890625" lon="-71.0454674251377582550048828125">
        <ele>692.5999755859375</ele>
        <time>2026-08-21T21:59:51.000Z</time>
        <extensions>
          <ns3:TrackPointExtension>
            <ns3:hr>125</ns3:hr>
            <ns3:cad>71</ns3:cad>
          </ns3:TrackPointExtension>
        </extensions>
      </trkpt>
      <trkpt lat="45.3165035136044025421142578125" lon="-71.0454805009067058563232421875">
        <ele>692.4000244140625</ele>
        <time>2026-08-21T21:59:52.000Z</time>
        <extensions>
          <ns3:TrackPointExtension>
            <ns3:hr>125</ns3:hr>
            <ns3:cad>74</ns3:cad>
          </ns3:TrackPointExtension>
        </extensions>
      </trkpt>
      <trkpt lat="45.3165142424404621124267578125" lon="-71.04549734853208065032958984375">
        <ele>692</ele>
        <time>2026-08-21T21:59:53.000Z</time>
        <extensions>
          <ns3:TrackPointExtension>
            <ns3:hr>125</ns3:hr>
            <ns3:cad>74</ns3:cad>
          </ns3:TrackPointExtension>
        </extensions>
      </trkpt>
      <trkpt lat="45.31652756966650485992431640625" lon="-71.0455115139484405517578125">
        <ele>691.79998779296875</ele>
        <time>2026-08-21T21:59:54.000Z</time>
        <extensions>
          <ns3:TrackPointExtension>
            <ns3:hr>125</ns3:hr>
            <ns3:cad>74</ns3:cad>
          </ns3:TrackPointExtension>
        </extensions>
      </trkpt>
      <trkpt lat="45.31654517166316509246826171875" lon="-71.04552090167999267578125">
        <ele>691.5999755859375</ele>
        <time>2026-08-21T21:59:55.000Z</time>
        <extensions>
          <ns3:TrackPointExtension>
            <ns3:hr>125</ns3:hr>
            <ns3:cad>74</ns3:cad>
          </ns3:TrackPointExtension>
        </extensions>
      </trkpt>
      <trkpt lat="45.31656034290790557861328125" lon="-71.0455301217734813690185546875">
        <ele>691.4000244140625</ele>
        <time>2026-08-21T21:59:56.000Z</time>
        <extensions>
          <ns3:TrackPointExtension>
            <ns3:hr>125</ns3:hr>
            <ns3:cad>74</ns3:cad>
          </ns3:TrackPointExtension>
        </extensions>
      </trkpt>
      <trkpt lat="45.316572077572345733642578125" lon="-71.04553892277181148529052734375">
        <ele>691.20001220703125</ele>
        <time>2026-08-21T21:59:57.000Z</time>
        <extensions>
          <ns3:TrackPointExtension>
            <ns3:hr>124</ns3:hr>
            <ns3:cad>0</ns3:cad>
          </ns3:TrackPointExtension>
        </extensions>
      </trkpt>
      <trkpt lat="45.31658054329454898834228515625" lon="-71.04555451311171054840087890625">
        <ele>691</ele>
        <time>2026-08-21T21:59:58.000Z</time>
        <extensions>
          <ns3:TrackPointExtension>
            <ns3:hr>124</ns3:hr>
            <ns3:cad>0</ns3:cad>
          </ns3:TrackPointExtension>
        </extensions>
      </trkpt>
      <trkpt lat="45.3165943734347820281982421875" lon="-71.0455706901848316192626953125">
        <ele>690.79998779296875</ele>
        <time>2026-08-21T21:59:59.000Z</time>
        <extensions>
          <ns3:TrackPointExtension>
            <ns3:hr>123</ns3:hr>
            <ns3:cad>62</ns3:cad>
          </ns3:TrackPointExtension>
        </extensions>
      </trkpt>
      <trkpt lat="45.316607952117919921875" lon="-71.04558192193508148193359375">
        <ele>690.5999755859375</ele>
        <time>2026-08-21T22:00:00.000Z</time>
        <extensions>
          <ns3:TrackPointExtension>
            <ns3:hr>123</ns3:hr>
            <ns3:cad>62</ns3:cad>
          </ns3:TrackPointExtension>
        </extensions>
      </trkpt>
      <trkpt lat="45.316623710095882415771484375" lon="-71.04559239931404590606689453125">
        <ele>690.4000244140625</ele>
        <time>2026-08-21T22:00:01.000Z</time>
        <extensions>
          <ns3:TrackPointExtension>
            <ns3:hr>123</ns3:hr>
            <ns3:cad>63</ns3:cad>
          </ns3:TrackPointExtension>
        </extensions>
      </trkpt>
      <trkpt lat="45.31663636676967144012451171875" lon="-71.04561050422489643096923828125">
        <ele>690</ele>
        <time>2026-08-21T22:00:02.000Z</time>
        <extensions>
          <ns3:TrackPointExtension>
            <ns3:hr>123</ns3:hr>
            <ns3:cad>63</ns3:cad>
          </ns3:TrackPointExtension>
        </extensions>
      </trkpt>
      <trkpt lat="45.31664391048252582550048828125" lon="-71.0456223227083683013916015625">
        <ele>689.79998779296875</ele>
        <time>2026-08-21T22:00:03.000Z</time>
        <extensions>
          <ns3:TrackPointExtension>
            <ns3:hr>123</ns3:hr>
            <ns3:cad>63</ns3:cad>
          </ns3:TrackPointExtension>
        </extensions>
      </trkpt>
      <trkpt lat="45.31665313057601451873779296875" lon="-71.04563950560986995697021484375">
        <ele>689.4000244140625</ele>
        <time>2026-08-21T22:00:04.000Z</time>
        <extensions>
          <ns3:TrackPointExtension>
            <ns3:hr>123</ns3:hr>
            <ns3:cad>63</ns3:cad>
          </ns3:TrackPointExtension>
        </extensions>
      </trkpt>
      <trkpt lat="45.31666084192693233489990234375" lon="-71.04565073736011981964111328125">
        <ele>689.20001220703125</ele>
        <time>2026-08-21T22:00:05.000Z</time>
        <extensions>
          <ns3:TrackPointExtension>
            <ns3:hr>123</ns3:hr>
            <ns3:cad>63</ns3:cad>
          </ns3:TrackPointExtension>
        </extensions>
      </trkpt>
      <trkpt lat="45.316669642925262451171875" lon="-71.0456675849854946136474609375">
        <ele>689</ele>
        <time>2026-08-21T22:00:06.000Z</time>
        <extensions>
          <ns3:TrackPointExtension>
            <ns3:hr>122</ns3:hr>
            <ns3:cad>63</ns3:cad>
          </ns3:TrackPointExtension>
        </extensions>
      </trkpt>
      <trkpt lat="45.3166768513619899749755859375" lon="-71.04568384587764739990234375">
        <ele>688.79998779296875</ele>
        <time>2026-08-21T22:00:07.000Z</time>
        <extensions>
          <ns3:TrackPointExtension>
            <ns3:hr>122</ns3:hr>
            <ns3:cad>63</ns3:cad>
          </ns3:TrackPointExtension>
        </extensions>
      </trkpt>
      <trkpt lat="45.31668548472225666046142578125" lon="-71.0456991009414196014404296875">
        <ele>688.5999755859375</ele>
        <time>2026-08-21T22:00:08.000Z</time>
        <extensions>
          <ns3:TrackPointExtension>
            <ns3:hr>121</ns3:hr>
            <ns3:cad>63</ns3:cad>
          </ns3:TrackPointExtension>
        </extensions>
      </trkpt>
      <trkpt lat="45.31669436953961849212646484375" lon="-71.04571712203323841094970703125">
        <ele>688.20001220703125</ele>
        <time>2026-08-21T22:00:09.000Z</time>
        <extensions>
          <ns3:TrackPointExtension>
            <ns3:hr>121</ns3:hr>
            <ns3:cad>63</ns3:cad>
          </ns3:TrackPointExtension>
        </extensions>
      </trkpt>
      <trkpt lat="45.31670115888118743896484375" lon="-71.0457299463450908660888671875">
        <ele>688</ele>
        <time>2026-08-21T22:00:10.000Z</time>
        <extensions>
          <ns3:TrackPointExtension>
            <ns3:hr>120</ns3:hr>
            <ns3:cad>63</ns3:cad>
          </ns3:TrackPointExtension>
        </extensions>
      </trkpt>
      <trkpt lat="45.31671599484980106353759765625" lon="-71.04574696160852909088134765625">
        <ele>687.79998779296875</ele>
        <time>2026-08-21T22:00:11.000Z</time>
        <extensions>
          <ns3:TrackPointExtension>
            <ns3:hr>120</ns3:hr>
            <ns3:cad>63</ns3:cad>
          </ns3:TrackPointExtension>
        </extensions>
      </trkpt>
      <trkpt lat="45.31672521494328975677490234375" lon="-71.0457584448158740997314453125">
        <ele>687.5999755859375</ele>
        <time>2026-08-21T22:00:12.000Z</time>
        <extensions>
          <ns3:TrackPointExtension>
            <ns3:hr>120</ns3:hr>
            <ns3:cad>63</ns3:cad>
          </ns3:TrackPointExtension>
        </extensions>
      </trkpt>
      <trkpt lat="45.31673862598836421966552734375" lon="-71.045773029327392578125">
        <ele>687.4000244140625</ele>
        <time>2026-08-21T22:00:13.000Z</time>
        <extensions>
          <ns3:TrackPointExtension>
            <ns3:hr>119</ns3:hr>
            <ns3:cad>63</ns3:cad>
          </ns3:TrackPointExtension>
        </extensions>
      </trkpt>
      <trkpt lat="45.316754467785358428955078125" lon="-71.04579457081854343414306640625">
        <ele>687.20001220703125</ele>
        <time>2026-08-21T22:00:14.000Z</time>
        <extensions>
          <ns3:TrackPointExtension>
            <ns3:hr>118</ns3:hr>
            <ns3:cad>66</ns3:cad>
          </ns3:TrackPointExtension>
        </extensions>
      </trkpt>
      <trkpt lat="45.3167648613452911376953125" lon="-71.04580882005393505096435546875">
        <ele>687</ele>
        <time>2026-08-21T22:00:15.000Z</time>
        <extensions>
          <ns3:TrackPointExtension>
            <ns3:hr>118</ns3:hr>
            <ns3:cad>66</ns3:cad>
          </ns3:TrackPointExtension>
        </extensions>
      </trkpt>
      <trkpt lat="45.31677835620939731597900390625" lon="-71.04582474566996097564697265625">
        <ele>686.79998779296875</ele>
        <time>2026-08-21T22:00:16.000Z</time>
        <extensions>
          <ns3:TrackPointExtension>
            <ns3:hr>118</ns3:hr>
            <ns3:cad>0</ns3:cad>
          </ns3:TrackPointExtension>
        </extensions>
      </trkpt>
      <trkpt lat="45.31678908504545688629150390625" lon="-71.04583849199116230010986328125">
        <ele>686.5999755859375</ele>
        <time>2026-08-21T22:00:17.000Z</time>
        <extensions>
          <ns3:TrackPointExtension>
            <ns3:hr>118</ns3:hr>
            <ns3:cad>0</ns3:cad>
          </ns3:TrackPointExtension>
        </extensions>
      </trkpt>
      <trkpt lat="45.31679646112024784088134765625" lon="-71.04584838263690471649169921875">
        <ele>686.20001220703125</ele>
        <time>2026-08-21T22:00:18.000Z</time>
        <extensions>
          <ns3:TrackPointExtension>
            <ns3:hr>118</ns3:hr>
            <ns3:cad>0</ns3:cad>
          </ns3:TrackPointExtension>
        </extensions>
      </trkpt>
      <trkpt lat="45.3168009035289287567138671875" lon="-71.045865900814533233642578125">
        <ele>686</ele>
        <time>2026-08-21T22:00:19.000Z</time>
        <extensions>
          <ns3:TrackPointExtension>
            <ns3:hr>118</ns3:hr>
            <ns3:cad>0</ns3:cad>
          </ns3:TrackPointExtension>
        </extensions>
      </trkpt>
      <trkpt lat="45.3168069384992122650146484375" lon="-71.0458818264305591583251953125">
        <ele>685.79998779296875</ele>
        <time>2026-08-21T22:00:20.000Z</time>
        <extensions>
          <ns3:TrackPointExtension>
            <ns3:hr>117</ns3:hr>
            <ns3:cad>0</ns3:cad>
          </ns3:TrackPointExtension>
        </extensions>
      </trkpt>
      <trkpt lat="45.3168131411075592041015625" lon="-71.04589574038982391357421875">
        <ele>685.5999755859375</ele>
        <time>2026-08-21T22:00:21.000Z</time>
        <extensions>
          <ns3:TrackPointExtension>
            <ns3:hr>116</ns3:hr>
            <ns3:cad>55</ns3:cad>
          </ns3:TrackPointExtension>
        </extensions>
      </trkpt>
      <trkpt lat="45.31682428903877735137939453125" lon="-71.045908816158771514892578125">
        <ele>685.4000244140625</ele>
        <time>2026-08-21T22:00:22.000Z</time>
        <extensions>
          <ns3:TrackPointExtension>
            <ns3:hr>116</ns3:hr>
            <ns3:cad>55</ns3:cad>
          </ns3:TrackPointExtension>
        </extensions>
      </trkpt>
      <trkpt lat="45.31683635897934436798095703125" lon="-71.04592113755643367767333984375">
        <ele>685.4000244140625</ele>
        <time>2026-08-21T22:00:23.000Z</time>
        <extensions>
          <ns3:TrackPointExtension>
            <ns3:hr>116</ns3:hr>
            <ns3:cad>55</ns3:cad>
          </ns3:TrackPointExtension>
        </extensions>
      </trkpt>
      <trkpt lat="45.31685027293860912322998046875" lon="-71.0459247417747974395751953125">
        <ele>685.20001220703125</ele>
        <time>2026-08-21T22:00:24.000Z</time>
        <extensions>
          <ns3:TrackPointExtension>
            <ns3:hr>115</ns3:hr>
            <ns3:cad>55</ns3:cad>
          </ns3:TrackPointExtension>
        </extensions>
      </trkpt>
      <trkpt lat="45.316867120563983917236328125" lon="-71.04593035764992237091064453125">
        <ele>685</ele>
        <time>2026-08-21T22:00:25.000Z</time>
        <extensions>
          <ns3:TrackPointExtension>
            <ns3:hr>115</ns3:hr>
            <ns3:cad>57</ns3:cad>
          </ns3:TrackPointExtension>
        </extensions>
      </trkpt>
      <trkpt lat="45.3168847225606441497802734375" lon="-71.04593195021152496337890625">
        <ele>684.79998779296875</ele>
        <time>2026-08-21T22:00:26.000Z</time>
        <extensions>
          <ns3:TrackPointExtension>
            <ns3:hr>115</ns3:hr>
            <ns3:cad>57</ns3:cad>
          </ns3:TrackPointExtension>
        </extensions>
      </trkpt>
      <trkpt lat="45.3169041685760021209716796875" lon="-71.0459272563457489013671875">
        <ele>684.5999755859375</ele>
        <time>2026-08-21T22:00:27.000Z</time>
        <extensions>
          <ns3:TrackPointExtension>
            <ns3:hr>116</ns3:hr>
            <ns3:cad>57</ns3:cad>
          </ns3:TrackPointExtension>
        </extensions>
      </trkpt>
      <trkpt lat="45.31691699288785457611083984375" lon="-71.0459260828793048858642578125">
        <ele>684.4000244140625</ele>
        <time>2026-08-21T22:00:28.000Z</time>
        <extensions>
          <ns3:TrackPointExtension>
            <ns3:hr>116</ns3:hr>
            <ns3:cad>56</ns3:cad>
          </ns3:TrackPointExtension>
        </extensions>
      </trkpt>
      <trkpt lat="45.31693182885646820068359375" lon="-71.04591929353773593902587890625">
        <ele>684.20001220703125</ele>
        <time>2026-08-21T22:00:29.000Z</time>
        <extensions>
          <ns3:TrackPointExtension>
            <ns3:hr>117</ns3:hr>
            <ns3:cad>56</ns3:cad>
          </ns3:TrackPointExtension>
        </extensions>
      </trkpt>
      <trkpt lat="45.31694750301539897918701171875" lon="-71.045915521681308746337890625">
        <ele>684</ele>
        <time>2026-08-21T22:00:30.000Z</time>
        <extensions>
          <ns3:TrackPointExtension>
            <ns3:hr>118</ns3:hr>
            <ns3:cad>60</ns3:cad>
          </ns3:TrackPointExtension>
        </extensions>
      </trkpt>
      <trkpt lat="45.31696267426013946533203125" lon="-71.045911498367786407470703125">
        <ele>683.79998779296875</ele>
        <time>2026-08-21T22:00:31.000Z</time>
        <extensions>
          <ns3:TrackPointExtension>
            <ns3:hr>118</ns3:hr>
            <ns3:cad>60</ns3:cad>
          </ns3:TrackPointExtension>
        </extensions>
      </trkpt>
      <trkpt lat="45.3169769234955310821533203125" lon="-71.0458975844085216522216796875">
        <ele>683.5999755859375</ele>
        <time>2026-08-21T22:00:32.000Z</time>
        <extensions>
          <ns3:TrackPointExtension>
            <ns3:hr>117</ns3:hr>
            <ns3:cad>60</ns3:cad>
          </ns3:TrackPointExtension>
        </extensions>
      </trkpt>
      <trkpt lat="45.3169901669025421142578125" lon="-71.04589305818080902099609375">
        <ele>683.4000244140625</ele>
        <time>2026-08-21T22:00:33.000Z</time>
        <extensions>
          <ns3:TrackPointExtension>
            <ns3:hr>117</ns3:hr>
            <ns3:cad>60</ns3:cad>
          </ns3:TrackPointExtension>
        </extensions>
      </trkpt>
      <trkpt lat="45.31700550578534603118896484375" lon="-71.045901775360107421875">
        <ele>683.20001220703125</ele>
        <time>2026-08-21T22:00:34.000Z</time>
        <extensions>
          <ns3:TrackPointExtension>
            <ns3:hr>117</ns3:hr>
            <ns3:cad>60</ns3:cad>
          </ns3:TrackPointExtension>
        </extensions>
      </trkpt>
      <trkpt lat="45.3170201741158962249755859375" lon="-71.04590487666428089141845703125">
        <ele>683</ele>
        <time>2026-08-21T22:00:35.000Z</time>
        <extensions>
          <ns3:TrackPointExtension>
            <ns3:hr>117</ns3:hr>
            <ns3:cad>60</ns3:cad>
          </ns3:TrackPointExtension>
        </extensions>
      </trkpt>
      <trkpt lat="45.31703417189419269561767578125" lon="-71.04590504430234432220458984375">
        <ele>682.5999755859375</ele>
        <time>2026-08-21T22:00:36.000Z</time>
        <extensions>
          <ns3:TrackPointExtension>
            <ns3:hr>116</ns3:hr>
            <ns3:cad>60</ns3:cad>
          </ns3:TrackPointExtension>
        </extensions>
      </trkpt>
      <trkpt lat="45.31704808585345745086669921875" lon="-71.0459059663116931915283203125">
        <ele>682.4000244140625</ele>
        <time>2026-08-21T22:00:37.000Z</time>
        <extensions>
          <ns3:TrackPointExtension>
            <ns3:hr>117</ns3:hr>
            <ns3:cad>60</ns3:cad>
          </ns3:TrackPointExtension>
        </extensions>
      </trkpt>
      <trkpt lat="45.31706367619335651397705078125" lon="-71.04590605013072490692138671875">
        <ele>682.20001220703125</ele>
        <time>2026-08-21T22:00:38.000Z</time>
        <extensions>
          <ns3:TrackPointExtension>
            <ns3:hr>117</ns3:hr>
            <ns3:cad>60</ns3:cad>
          </ns3:TrackPointExtension>
        </extensions>
      </trkpt>
      <trkpt lat="45.31707859598100185394287109375" lon="-71.045907475054264068603515625">
        <ele>682</ele>
        <time>2026-08-21T22:00:39.000Z</time>
        <extensions>
          <ns3:TrackPointExtension>
            <ns3:hr>120</ns3:hr>
            <ns3:cad>60</ns3:cad>
          </ns3:TrackPointExtension>
        </extensions>
      </trkpt>
      <trkpt lat="45.31709619797766208648681640625" lon="-71.045903451740741729736328125">
        <ele>681.5999755859375</ele>
        <time>2026-08-21T22:00:40.000Z</time>
        <extensions>
          <ns3:TrackPointExtension>
            <ns3:hr>121</ns3:hr>
            <ns3:cad>0</ns3:cad>
          </ns3:TrackPointExtension>
        </extensions>
      </trkpt>
      <trkpt lat="45.31710910610854625701904296875" lon="-71.0458908788859844207763671875">
        <ele>681.4000244140625</ele>
        <time>2026-08-21T22:00:41.000Z</time>
        <extensions>
          <ns3:TrackPointExtension>
            <ns3:hr>121</ns3:hr>
            <ns3:cad>0</ns3:cad>
          </ns3:TrackPointExtension>
        </extensions>
      </trkpt>
      <trkpt lat="45.31712285242974758148193359375" lon="-71.04587956331670284271240234375">
        <ele>681</ele>
        <time>2026-08-21T22:00:42.000Z</time>
        <extensions>
          <ns3:TrackPointExtension>
            <ns3:hr>121</ns3:hr>
            <ns3:cad>70</ns3:cad>
          </ns3:TrackPointExtension>
        </extensions>
      </trkpt>
      <trkpt lat="45.31713542528450489044189453125" lon="-71.04587696492671966552734375">
        <ele>680.79998779296875</ele>
        <time>2026-08-21T22:00:43.000Z</time>
        <extensions>
          <ns3:TrackPointExtension>
            <ns3:hr>120</ns3:hr>
            <ns3:cad>70</ns3:cad>
          </ns3:TrackPointExtension>
        </extensions>
      </trkpt>
      <trkpt lat="45.31715034507215023040771484375" lon="-71.04588492773473262786865234375">
        <ele>680.5999755859375</ele>
        <time>2026-08-21T22:00:44.000Z</time>
        <extensions>
          <ns3:TrackPointExtension>
            <ns3:hr>119</ns3:hr>
            <ns3:cad>70</ns3:cad>
          </ns3:TrackPointExtension>
        </extensions>
      </trkpt>
      <trkpt lat="45.3171673603355884552001953125" lon="-71.04588710702955722808837890625">
        <ele>680.20001220703125</ele>
        <time>2026-08-21T22:00:45.000Z</time>
        <extensions>
          <ns3:TrackPointExtension>
            <ns3:hr>118</ns3:hr>
            <ns3:cad>79</ns3:cad>
          </ns3:TrackPointExtension>
        </extensions>
      </trkpt>
      <trkpt lat="45.317184627056121826171875" lon="-71.04588509537279605865478515625">
        <ele>680</ele>
        <time>2026-08-21T22:00:46.000Z</time>
        <extensions>
          <ns3:TrackPointExtension>
            <ns3:hr>117</ns3:hr>
            <ns3:cad>79</ns3:cad>
          </ns3:TrackPointExtension>
        </extensions>
      </trkpt>
      <trkpt lat="45.317208431661128997802734375" lon="-71.0458878614008426666259765625">
        <ele>679.79998779296875</ele>
        <time>2026-08-21T22:00:47.000Z</time>
        <extensions>
          <ns3:TrackPointExtension>
            <ns3:hr>117</ns3:hr>
            <ns3:cad>75</ns3:cad>
          </ns3:TrackPointExtension>
        </extensions>
      </trkpt>
      <trkpt lat="45.3172267042100429534912109375" lon="-71.045878641307353973388671875">
        <ele>679.4000244140625</ele>
        <time>2026-08-21T22:00:48.000Z</time>
        <extensions>
          <ns3:TrackPointExtension>
            <ns3:hr>118</ns3:hr>
            <ns3:cad>72</ns3:cad>
          </ns3:TrackPointExtension>
        </extensions>
      </trkpt>
      <trkpt lat="45.31723785214126110076904296875" lon="-71.04587201960384845733642578125">
        <ele>679.20001220703125</ele>
        <time>2026-08-21T22:00:49.000Z</time>
        <extensions>
          <ns3:TrackPointExtension>
            <ns3:hr>118</ns3:hr>
            <ns3:cad>72</ns3:cad>
          </ns3:TrackPointExtension>
        </extensions>
      </trkpt>
      <trkpt lat="45.31724925152957439422607421875" lon="-71.045872606337070465087890625">
        <ele>679</ele>
        <time>2026-08-21T22:00:50.000Z</time>
        <extensions>
          <ns3:TrackPointExtension>
            <ns3:hr>118</ns3:hr>
            <ns3:cad>72</ns3:cad>
          </ns3:TrackPointExtension>
        </extensions>
      </trkpt>
      <trkpt lat="45.317259393632411956787109375" lon="-71.045874617993831634521484375">
        <ele>678.79998779296875</ele>
        <time>2026-08-21T22:00:51.000Z</time>
        <extensions>
          <ns3:TrackPointExtension>
            <ns3:hr>118</ns3:hr>
            <ns3:cad>72</ns3:cad>
          </ns3:TrackPointExtension>
        </extensions>
      </trkpt>
      <trkpt lat="45.31727054156363010406494140625" lon="-71.045877635478973388671875">
        <ele>678.5999755859375</ele>
        <time>2026-08-21T22:00:52.000Z</time>
        <extensions>
          <ns3:TrackPointExtension>
            <ns3:hr>119</ns3:hr>
            <ns3:cad>72</ns3:cad>
          </ns3:TrackPointExtension>
        </extensions>
      </trkpt>
      <trkpt lat="45.31727808527648448944091796875" lon="-71.04588157497346401214599609375">
        <ele>678.4000244140625</ele>
        <time>2026-08-21T22:00:53.000Z</time>
        <extensions>
          <ns3:TrackPointExtension>
            <ns3:hr>119</ns3:hr>
            <ns3:cad>72</ns3:cad>
          </ns3:TrackPointExtension>
        </extensions>
      </trkpt>
      <trkpt lat="45.31728613190352916717529296875" lon="-71.04587855748832225799560546875">
        <ele>678</ele>
        <time>2026-08-21T22:00:54.000Z</time>
        <extensions>
          <ns3:TrackPointExtension>
            <ns3:hr>119</ns3:hr>
            <ns3:cad>72</ns3:cad>
          </ns3:TrackPointExtension>
        </extensions>
      </trkpt>
      <trkpt lat="45.31730121932923793792724609375" lon="-71.0458804853260517120361328125">
        <ele>677.79998779296875</ele>
        <time>2026-08-21T22:00:55.000Z</time>
        <extensions>
          <ns3:TrackPointExtension>
            <ns3:hr>119</ns3:hr>
            <ns3:cad>0</ns3:cad>
          </ns3:TrackPointExtension>
        </extensions>
      </trkpt>
      <trkpt lat="45.3173152171075344085693359375" lon="-71.04588878341019153594970703125">
        <ele>677.4000244140625</ele>
        <time>2026-08-21T22:00:56.000Z</time>
        <extensions>
          <ns3:TrackPointExtension>
            <ns3:hr>118</ns3:hr>
            <ns3:cad>0</ns3:cad>
          </ns3:TrackPointExtension>
        </extensions>
      </trkpt>
      <trkpt lat="45.3173219226300716400146484375" lon="-71.04590152390301227569580078125">
        <ele>676.79998779296875</ele>
        <time>2026-08-21T22:00:57.000Z</time>
        <extensions>
          <ns3:TrackPointExtension>
            <ns3:hr>118</ns3:hr>
            <ns3:cad>0</ns3:cad>
          </ns3:TrackPointExtension>
        </extensions>
      </trkpt>
      <trkpt lat="45.31732343137264251708984375" lon="-71.0459140129387378692626953125">
        <ele>676.4000244140625</ele>
        <time>2026-08-21T22:00:58.000Z</time>
        <extensions>
          <ns3:TrackPointExtension>
            <ns3:hr>118</ns3:hr>
            <ns3:cad>0</ns3:cad>
          </ns3:TrackPointExtension>
        </extensions>
      </trkpt>
      <trkpt lat="45.31732074916362762451171875" lon="-71.04593320749700069427490234375">
        <ele>676</ele>
        <time>2026-08-21T22:00:59.000Z</time>
        <extensions>
          <ns3:TrackPointExtension>
            <ns3:hr>117</ns3:hr>
            <ns3:cad>0</ns3:cad>
          </ns3:TrackPointExtension>
        </extensions>
      </trkpt>
      <trkpt lat="45.3173158876597881317138671875" lon="-71.0459555871784687042236328125">
        <ele>675.5999755859375</ele>
        <time>2026-08-21T22:01:00.000Z</time>
        <extensions>
          <ns3:TrackPointExtension>
            <ns3:hr>117</ns3:hr>
            <ns3:cad>0</ns3:cad>
          </ns3:TrackPointExtension>
        </extensions>
      </trkpt>
      <trkpt lat="45.3173205815255641937255859375" lon="-71.0459696687757968902587890625">
        <ele>675.4000244140625</ele>
        <time>2026-08-21T22:01:01.000Z</time>
        <extensions>
          <ns3:TrackPointExtension>
            <ns3:hr>117</ns3:hr>
            <ns3:cad>0</ns3:cad>
          </ns3:TrackPointExtension>
        </extensions>
      </trkpt>
      <trkpt lat="45.3173266164958477020263671875" lon="-71.04598551057279109954833984375">
        <ele>675.4000244140625</ele>
        <time>2026-08-21T22:01:02.000Z</time>
        <extensions>
          <ns3:TrackPointExtension>
            <ns3:hr>117</ns3:hr>
            <ns3:cad>74</ns3:cad>
          </ns3:TrackPointExtension>
        </extensions>
      </trkpt>
      <trkpt lat="45.31733508221805095672607421875" lon="-71.04600512422621250152587890625">
        <ele>675.4000244140625</ele>
        <time>2026-08-21T22:01:03.000Z</time>
        <extensions>
          <ns3:TrackPointExtension>
            <ns3:hr>117</ns3:hr>
            <ns3:cad>74</ns3:cad>
          </ns3:TrackPointExtension>
        </extensions>
      </trkpt>
      <trkpt lat="45.31734111718833446502685546875" lon="-71.0460259951651096343994140625">
        <ele>675</ele>
        <time>2026-08-21T22:01:04.000Z</time>
        <extensions>
          <ns3:TrackPointExtension>
            <ns3:hr>118</ns3:hr>
            <ns3:cad>74</ns3:cad>
          </ns3:TrackPointExtension>
        </extensions>
      </trkpt>
      <trkpt lat="45.317348577082157135009765625" lon="-71.0460484586656093597412109375">
        <ele>674.79998779296875</ele>
        <time>2026-08-21T22:01:05.000Z</time>
        <extensions>
          <ns3:TrackPointExtension>
            <ns3:hr>119</ns3:hr>
            <ns3:cad>74</ns3:cad>
          </ns3:TrackPointExtension>
        </extensions>
      </trkpt>
      <trkpt lat="45.31735821627080440521240234375" lon="-71.046069078147411346435546875">
        <ele>674.5999755859375</ele>
        <time>2026-08-21T22:01:06.000Z</time>
        <extensions>
          <ns3:TrackPointExtension>
            <ns3:hr>120</ns3:hr>
            <ns3:cad>74</ns3:cad>
          </ns3:TrackPointExtension>
        </extensions>
      </trkpt>
      <trkpt lat="45.317368693649768829345703125" lon="-71.04609916917979717254638671875">
        <ele>674.20001220703125</ele>
        <time>2026-08-21T22:01:07.000Z</time>
        <extensions>
          <ns3:TrackPointExtension>
            <ns3:hr>120</ns3:hr>
            <ns3:cad>74</ns3:cad>
          </ns3:TrackPointExtension>
        </extensions>
      </trkpt>
      <trkpt lat="45.31737766228616237640380859375" lon="-71.046126075088977813720703125">
        <ele>673.79998779296875</ele>
        <time>2026-08-21T22:01:08.000Z</time>
        <extensions>
          <ns3:TrackPointExtension>
            <ns3:hr>121</ns3:hr>
            <ns3:cad>74</ns3:cad>
          </ns3:TrackPointExtension>
        </extensions>
      </trkpt>
      <trkpt lat="45.3173862956464290618896484375" lon="-71.04615113697946071624755859375">
        <ele>673.5999755859375</ele>
        <time>2026-08-21T22:01:09.000Z</time>
        <extensions>
          <ns3:TrackPointExtension>
            <ns3:hr>121</ns3:hr>
            <ns3:cad>74</ns3:cad>
          </ns3:TrackPointExtension>
        </extensions>
      </trkpt>
      <trkpt lat="45.31739258207380771636962890625" lon="-71.04617862962186336517333984375">
        <ele>673.4000244140625</ele>
        <time>2026-08-21T22:01:10.000Z</time>
        <extensions>
          <ns3:TrackPointExtension>
            <ns3:hr>121</ns3:hr>
            <ns3:cad>74</ns3:cad>
          </ns3:TrackPointExtension>
        </extensions>
      </trkpt>
      <trkpt lat="45.31740331090986728668212890625" lon="-71.0462050326168537139892578125">
        <ele>673</ele>
        <time>2026-08-21T22:01:11.000Z</time>
        <extensions>
          <ns3:TrackPointExtension>
            <ns3:hr>121</ns3:hr>
            <ns3:cad>74</ns3:cad>
          </ns3:TrackPointExtension>
        </extensions>
      </trkpt>
      <trkpt lat="45.31741890124976634979248046875" lon="-71.04623076505959033966064453125">
        <ele>672.79998779296875</ele>
        <time>2026-08-21T22:01:12.000Z</time>
        <extensions>
          <ns3:TrackPointExtension>
            <ns3:hr>122</ns3:hr>
            <ns3:cad>74</ns3:cad>
          </ns3:TrackPointExtension>
        </extensions>
      </trkpt>
      <trkpt lat="45.3174396045506000518798828125" lon="-71.04625171981751918792724609375">
        <ele>672.5999755859375</ele>
        <time>2026-08-21T22:01:13.000Z</time>
        <extensions>
          <ns3:TrackPointExtension>
            <ns3:hr>121</ns3:hr>
            <ns3:cad>74</ns3:cad>
          </ns3:TrackPointExtension>
        </extensions>
      </trkpt>
      <trkpt lat="45.31745879910886287689208984375" lon="-71.04626680724322795867919921875">
        <ele>672.20001220703125</ele>
        <time>2026-08-21T22:01:14.000Z</time>
        <extensions>
          <ns3:TrackPointExtension>
            <ns3:hr>121</ns3:hr>
            <ns3:cad>74</ns3:cad>
          </ns3:TrackPointExtension>
        </extensions>
      </trkpt>
      <trkpt lat="45.3174741379916667938232421875" lon="-71.04627770371735095977783203125">
        <ele>672</ele>
        <time>2026-08-21T22:01:15.000Z</time>
        <extensions>
          <ns3:TrackPointExtension>
            <ns3:hr>121</ns3:hr>
            <ns3:cad>74</ns3:cad>
          </ns3:TrackPointExtension>
        </extensions>
      </trkpt>
      <trkpt lat="45.3174939192831516265869140625" lon="-71.04628860019147396087646484375">
        <ele>671.5999755859375</ele>
        <time>2026-08-21T22:01:16.000Z</time>
        <extensions>
          <ns3:TrackPointExtension>
            <ns3:hr>122</ns3:hr>
            <ns3:cad>74</ns3:cad>
          </ns3:TrackPointExtension>
        </extensions>
      </trkpt>
      <trkpt lat="45.31751546077430248260498046875" lon="-71.04629413224756717681884765625">
        <ele>671.20001220703125</ele>
        <time>2026-08-21T22:01:17.000Z</time>
        <extensions>
          <ns3:TrackPointExtension>
            <ns3:hr>121</ns3:hr>
            <ns3:cad>74</ns3:cad>
          </ns3:TrackPointExtension>
        </extensions>
      </trkpt>
      <trkpt lat="45.31753557734191417694091796875" lon="-71.046298407018184661865234375">
        <ele>670.79998779296875</ele>
        <time>2026-08-21T22:01:18.000Z</time>
        <extensions>
          <ns3:TrackPointExtension>
            <ns3:hr>120</ns3:hr>
            <ns3:cad>74</ns3:cad>
          </ns3:TrackPointExtension>
        </extensions>
      </trkpt>
      <trkpt lat="45.31755016185343265533447265625" lon="-71.0463062860071659088134765625">
        <ele>670.4000244140625</ele>
        <time>2026-08-21T22:01:19.000Z</time>
        <extensions>
          <ns3:TrackPointExtension>
            <ns3:hr>120</ns3:hr>
            <ns3:cad>74</ns3:cad>
          </ns3:TrackPointExtension>
        </extensions>
      </trkpt>
      <trkpt lat="45.31756441108882427215576171875" lon="-71.04631525464355945587158203125">
        <ele>670</ele>
        <time>2026-08-21T22:01:20.000Z</time>
        <extensions>
          <ns3:TrackPointExtension>
            <ns3:hr>120</ns3:hr>
            <ns3:cad>74</ns3:cad>
          </ns3:TrackPointExtension>
        </extensions>
      </trkpt>
      <trkpt lat="45.3175851143896579742431640625" lon="-71.0463176853954792022705078125">
        <ele>669.5999755859375</ele>
        <time>2026-08-21T22:01:21.000Z</time>
        <extensions>
          <ns3:TrackPointExtension>
            <ns3:hr>120</ns3:hr>
            <ns3:cad>79</ns3:cad>
          </ns3:TrackPointExtension>
        </extensions>
      </trkpt>
      <trkpt lat="45.317604728043079376220703125" lon="-71.04631626047194004058837890625">
        <ele>669.20001220703125</ele>
        <time>2026-08-21T22:01:22.000Z</time>
        <extensions>
          <ns3:TrackPointExtension>
            <ns3:hr>120</ns3:hr>
            <ns3:cad>79</ns3:cad>
          </ns3:TrackPointExtension>
        </extensions>
      </trkpt>
      <trkpt lat="45.31762073747813701629638671875" lon="-71.0463230498135089874267578125">
        <ele>668.79998779296875</ele>
        <time>2026-08-21T22:01:23.000Z</time>
        <extensions>
          <ns3:TrackPointExtension>
            <ns3:hr>120</ns3:hr>
            <ns3:cad>79</ns3:cad>
          </ns3:TrackPointExtension>
        </extensions>
      </trkpt>
      <trkpt lat="45.3176364116370677947998046875" lon="-71.04633000679314136505126953125">
        <ele>668.4000244140625</ele>
        <time>2026-08-21T22:01:24.000Z</time>
        <extensions>
          <ns3:TrackPointExtension>
            <ns3:hr>119</ns3:hr>
            <ns3:cad>79</ns3:cad>
          </ns3:TrackPointExtension>
        </extensions>
      </trkpt>
      <trkpt lat="45.31765443272888660430908203125" lon="-71.04634207673370838165283203125">
        <ele>668</ele>
        <time>2026-08-21T22:01:25.000Z</time>
        <extensions>
          <ns3:TrackPointExtension>
            <ns3:hr>119</ns3:hr>
            <ns3:cad>79</ns3:cad>
          </ns3:TrackPointExtension>
        </extensions>
      </trkpt>
      <trkpt lat="45.31767253763973712921142578125" lon="-71.04634844698011875152587890625">
        <ele>667.5999755859375</ele>
        <time>2026-08-21T22:01:26.000Z</time>
        <extensions>
          <ns3:TrackPointExtension>
            <ns3:hr>119</ns3:hr>
            <ns3:cad>79</ns3:cad>
          </ns3:TrackPointExtension>
        </extensions>
      </trkpt>
      <trkpt lat="45.31768561340868473052978515625" lon="-71.0463537275791168212890625">
        <ele>667.20001220703125</ele>
        <time>2026-08-21T22:01:27.000Z</time>
        <extensions>
          <ns3:TrackPointExtension>
            <ns3:hr>119</ns3:hr>
            <ns3:cad>79</ns3:cad>
          </ns3:TrackPointExtension>
        </extensions>
      </trkpt>
      <trkpt lat="45.31769684515893459320068359375" lon="-71.0463639535009860992431640625">
        <ele>666.79998779296875</ele>
        <time>2026-08-21T22:01:28.000Z</time>
        <extensions>
          <ns3:TrackPointExtension>
            <ns3:hr>119</ns3:hr>
            <ns3:cad>79</ns3:cad>
          </ns3:TrackPointExtension>
        </extensions>
      </trkpt>
      <trkpt lat="45.31771327368915081024169921875" lon="-71.04637476615607738494873046875">
        <ele>666.4000244140625</ele>
        <time>2026-08-21T22:01:29.000Z</time>
        <extensions>
          <ns3:TrackPointExtension>
            <ns3:hr>119</ns3:hr>
            <ns3:cad>79</ns3:cad>
          </ns3:TrackPointExtension>
        </extensions>
      </trkpt>
      <trkpt lat="45.3177286125719547271728515625" lon="-71.04638901539146900177001953125">
        <ele>666</ele>
        <time>2026-08-21T22:01:30.000Z</time>
        <extensions>
          <ns3:TrackPointExtension>
            <ns3:hr>120</ns3:hr>
            <ns3:cad>79</ns3:cad>
          </ns3:TrackPointExtension>
        </extensions>
      </trkpt>
      <trkpt lat="45.3177440352737903594970703125" lon="-71.04640494100749492645263671875">
        <ele>665.5999755859375</ele>
        <time>2026-08-21T22:01:31.000Z</time>
        <extensions>
          <ns3:TrackPointExtension>
            <ns3:hr>120</ns3:hr>
            <ns3:cad>79</ns3:cad>
          </ns3:TrackPointExtension>
        </extensions>
      </trkpt>
      <trkpt lat="45.31776507385075092315673828125" lon="-71.0464149154722690582275390625">
        <ele>665.20001220703125</ele>
        <time>2026-08-21T22:01:32.000Z</time>
        <extensions>
          <ns3:TrackPointExtension>
            <ns3:hr>120</ns3:hr>
            <ns3:cad>79</ns3:cad>
          </ns3:TrackPointExtension>
        </extensions>
      </trkpt>
      <trkpt lat="45.31778200529515743255615234375" lon="-71.046423129737377166748046875">
        <ele>665</ele>
        <time>2026-08-21T22:01:33.000Z</time>
        <extensions>
          <ns3:TrackPointExtension>
            <ns3:hr>120</ns3:hr>
            <ns3:cad>79</ns3:cad>
          </ns3:TrackPointExtension>
        </extensions>
      </trkpt>
      <trkpt lat="45.3177986852824687957763671875" lon="-71.0464395582675933837890625">
        <ele>664.5999755859375</ele>
        <time>2026-08-21T22:01:34.000Z</time>
        <extensions>
          <ns3:TrackPointExtension>
            <ns3:hr>120</ns3:hr>
            <ns3:cad>79</ns3:cad>
          </ns3:TrackPointExtension>
        </extensions>
      </trkpt>
      <trkpt lat="45.3178151138126850128173828125" lon="-71.0464564897119998931884765625">
        <ele>664.4000244140625</ele>
        <time>2026-08-21T22:01:35.000Z</time>
        <extensions>
          <ns3:TrackPointExtension>
            <ns3:hr>121</ns3:hr>
            <ns3:cad>79</ns3:cad>
          </ns3:TrackPointExtension>
        </extensions>
      </trkpt>
      <trkpt lat="45.31783263199031352996826171875" lon="-71.046467386186122894287109375">
        <ele>664.20001220703125</ele>
        <time>2026-08-21T22:01:36.000Z</time>
        <extensions>
          <ns3:TrackPointExtension>
            <ns3:hr>120</ns3:hr>
            <ns3:cad>0</ns3:cad>
          </ns3:TrackPointExtension>
        </extensions>
      </trkpt>
      <trkpt lat="45.31785241328179836273193359375" lon="-71.04646897874772548675537109375">
        <ele>664</ele>
        <time>2026-08-21T22:01:37.000Z</time>
        <extensions>
          <ns3:TrackPointExtension>
            <ns3:hr>120</ns3:hr>
            <ns3:cad>0</ns3:cad>
          </ns3:TrackPointExtension>
        </extensions>
      </trkpt>
      <trkpt lat="45.31787554733455181121826171875" lon="-71.04647635482251644134521484375">
        <ele>663.5999755859375</ele>
        <time>2026-08-21T22:01:38.000Z</time>
        <extensions>
          <ns3:TrackPointExtension>
            <ns3:hr>120</ns3:hr>
            <ns3:cad>0</ns3:cad>
          </ns3:TrackPointExtension>
        </extensions>
      </trkpt>
      <trkpt lat="45.31789650209248065948486328125" lon="-71.046480126678943634033203125">
        <ele>663.20001220703125</ele>
        <time>2026-08-21T22:01:39.000Z</time>
        <extensions>
          <ns3:TrackPointExtension>
            <ns3:hr>120</ns3:hr>
            <ns3:cad>0</ns3:cad>
          </ns3:TrackPointExtension>
        </extensions>
      </trkpt>
      <trkpt lat="45.31791083514690399169921875" lon="-71.04647669009864330291748046875">
        <ele>662.5999755859375</ele>
        <time>2026-08-21T22:01:40.000Z</time>
        <extensions>
          <ns3:TrackPointExtension>
            <ns3:hr>120</ns3:hr>
            <ns3:cad>0</ns3:cad>
          </ns3:TrackPointExtension>
        </extensions>
      </trkpt>
      <trkpt lat="45.31792131252586841583251953125" lon="-71.04647576808929443359375">
        <ele>662.20001220703125</ele>
        <time>2026-08-21T22:01:41.000Z</time>
        <extensions>
          <ns3:TrackPointExtension>
            <ns3:hr>120</ns3:hr>
            <ns3:cad>0</ns3:cad>
          </ns3:TrackPointExtension>
        </extensions>
      </trkpt>
      <trkpt lat="45.31793271191418170928955078125" lon="-71.04648054577410221099853515625">
        <ele>661.79998779296875</ele>
        <time>2026-08-21T22:01:42.000Z</time>
        <extensions>
          <ns3:TrackPointExtension>
            <ns3:hr>121</ns3:hr>
            <ns3:cad>0</ns3:cad>
          </ns3:TrackPointExtension>
        </extensions>
      </trkpt>
      <trkpt lat="45.317948050796985626220703125" lon="-71.0464824736118316650390625">
        <ele>661.4000244140625</ele>
        <time>2026-08-21T22:01:43.000Z</time>
        <extensions>
          <ns3:TrackPointExtension>
            <ns3:hr>120</ns3:hr>
            <ns3:cad>0</ns3:cad>
          </ns3:TrackPointExtension>
        </extensions>
      </trkpt>
      <trkpt lat="45.3179586119949817657470703125" lon="-71.04648591019213199615478515625">
        <ele>661.20001220703125</ele>
        <time>2026-08-21T22:01:44.000Z</time>
        <extensions>
          <ns3:TrackPointExtension>
            <ns3:hr>120</ns3:hr>
            <ns3:cad>0</ns3:cad>
          </ns3:TrackPointExtension>
        </extensions>
      </trkpt>
      <trkpt lat="45.31796456314623355865478515625" lon="-71.0464926995337009429931640625">
        <ele>660.79998779296875</ele>
        <time>2026-08-21T22:01:45.000Z</time>
        <extensions>
          <ns3:TrackPointExtension>
            <ns3:hr>120</ns3:hr>
            <ns3:cad>0</ns3:cad>
          </ns3:TrackPointExtension>
        </extensions>
      </trkpt>
      <trkpt lat="45.31797613017261028289794921875" lon="-71.04649789631366729736328125">
        <ele>660.5999755859375</ele>
        <time>2026-08-21T22:01:46.000Z</time>
        <extensions>
          <ns3:TrackPointExtension>
            <ns3:hr>120</ns3:hr>
            <ns3:cad>0</ns3:cad>
          </ns3:TrackPointExtension>
        </extensions>
      </trkpt>
      <trkpt lat="45.31799524091184139251708984375" lon="-71.04650652967393398284912109375">
        <ele>660.20001220703125</ele>
        <time>2026-08-21T22:01:47.000Z</time>
        <extensions>
          <ns3:TrackPointExtension>
            <ns3:hr>119</ns3:hr>
            <ns3:cad>0</ns3:cad>
          </ns3:TrackPointExtension>
        </extensions>
      </trkpt>
      <trkpt lat="45.31801099888980388641357421875" lon="-71.04650460183620452880859375">
        <ele>659.79998779296875</ele>
        <time>2026-08-21T22:01:48.000Z</time>
        <extensions>
          <ns3:TrackPointExtension>
            <ns3:hr>119</ns3:hr>
            <ns3:cad>0</ns3:cad>
          </ns3:TrackPointExtension>
        </extensions>
      </trkpt>
      <trkpt lat="45.3180216439068317413330078125" lon="-71.0464958846569061279296875">
        <ele>659.5999755859375</ele>
        <time>2026-08-21T22:01:49.000Z</time>
        <extensions>
          <ns3:TrackPointExtension>
            <ns3:hr>118</ns3:hr>
            <ns3:cad>0</ns3:cad>
          </ns3:TrackPointExtension>
        </extensions>
      </trkpt>
      <trkpt lat="45.31803044490516185760498046875" lon="-71.04649093933403491973876953125">
        <ele>659.4000244140625</ele>
        <time>2026-08-21T22:01:50.000Z</time>
        <extensions>
          <ns3:TrackPointExtension>
            <ns3:hr>118</ns3:hr>
            <ns3:cad>0</ns3:cad>
          </ns3:TrackPointExtension>
        </extensions>
      </trkpt>
      <trkpt lat="45.3180477954447269439697265625" lon="-71.04648255743086338043212890625">
        <ele>659</ele>
        <time>2026-08-21T22:01:51.000Z</time>
        <extensions>
          <ns3:TrackPointExtension>
            <ns3:hr>118</ns3:hr>
            <ns3:cad>0</ns3:cad>
          </ns3:TrackPointExtension>
        </extensions>
      </trkpt>
      <trkpt lat="45.31806045211851596832275390625" lon="-71.046486161649227142333984375">
        <ele>658.79998779296875</ele>
        <time>2026-08-21T22:01:52.000Z</time>
        <extensions>
          <ns3:TrackPointExtension>
            <ns3:hr>119</ns3:hr>
            <ns3:cad>0</ns3:cad>
          </ns3:TrackPointExtension>
        </extensions>
      </trkpt>
      <trkpt lat="45.3180729411542415618896484375" lon="-71.0464863292872905731201171875">
        <ele>658.5999755859375</ele>
        <time>2026-08-21T22:01:53.000Z</time>
        <extensions>
          <ns3:TrackPointExtension>
            <ns3:hr>120</ns3:hr>
            <ns3:cad>69</ns3:cad>
          </ns3:TrackPointExtension>
        </extensions>
      </trkpt>
      <trkpt lat="45.3180856816470623016357421875" lon="-71.0464797914028167724609375">
        <ele>658.4000244140625</ele>
        <time>2026-08-21T22:01:54.000Z</time>
        <extensions>
          <ns3:TrackPointExtension>
            <ns3:hr>119</ns3:hr>
            <ns3:cad>69</ns3:cad>
          </ns3:TrackPointExtension>
        </extensions>
      </trkpt>
      <trkpt lat="45.31809481792151927947998046875" lon="-71.0464717447757720947265625">
        <ele>658.20001220703125</ele>
        <time>2026-08-21T22:01:55.000Z</time>
        <extensions>
          <ns3:TrackPointExtension>
            <ns3:hr>119</ns3:hr>
            <ns3:cad>69</ns3:cad>
          </ns3:TrackPointExtension>
        </extensions>
      </trkpt>
      <trkpt lat="45.31810504384338855743408203125" lon="-71.04646495543420314788818359375">
        <ele>658</ele>
        <time>2026-08-21T22:01:56.000Z</time>
        <extensions>
          <ns3:TrackPointExtension>
            <ns3:hr>118</ns3:hr>
            <ns3:cad>69</ns3:cad>
          </ns3:TrackPointExtension>
        </extensions>
      </trkpt>
      <trkpt lat="45.31811392866075038909912109375" lon="-71.04645942337810993194580078125">
        <ele>657.79998779296875</ele>
        <time>2026-08-21T22:01:57.000Z</time>
        <extensions>
          <ns3:TrackPointExtension>
            <ns3:hr>118</ns3:hr>
            <ns3:cad>69</ns3:cad>
          </ns3:TrackPointExtension>
        </extensions>
      </trkpt>
      <trkpt lat="45.31812683679163455963134765625" lon="-71.0464471019804477691650390625">
        <ele>657.5999755859375</ele>
        <time>2026-08-21T22:01:58.000Z</time>
        <extensions>
          <ns3:TrackPointExtension>
            <ns3:hr>117</ns3:hr>
            <ns3:cad>69</ns3:cad>
          </ns3:TrackPointExtension>
        </extensions>
      </trkpt>
      <trkpt lat="45.3181406669318675994873046875" lon="-71.04643628932535648345947265625">
        <ele>657.20001220703125</ele>
        <time>2026-08-21T22:01:59.000Z</time>
        <extensions>
          <ns3:TrackPointExtension>
            <ns3:hr>117</ns3:hr>
            <ns3:cad>69</ns3:cad>
          </ns3:TrackPointExtension>
        </extensions>
      </trkpt>
      <trkpt lat="45.3181517310440540313720703125" lon="-71.04642371647059917449951171875">
        <ele>656.79998779296875</ele>
        <time>2026-08-21T22:02:00.000Z</time>
        <extensions>
          <ns3:TrackPointExtension>
            <ns3:hr>117</ns3:hr>
            <ns3:cad>69</ns3:cad>
          </ns3:TrackPointExtension>
        </extensions>
      </trkpt>
      <trkpt lat="45.3181617893278598785400390625" lon="-71.0464068688452243804931640625">
        <ele>656.5999755859375</ele>
        <time>2026-08-21T22:02:01.000Z</time>
        <extensions>
          <ns3:TrackPointExtension>
            <ns3:hr>116</ns3:hr>
            <ns3:cad>69</ns3:cad>
          </ns3:TrackPointExtension>
        </extensions>
      </trkpt>
      <trkpt lat="45.3181674890220165252685546875" lon="-71.046382226049900054931640625">
        <ele>656.4000244140625</ele>
        <time>2026-08-21T22:02:02.000Z</time>
        <extensions>
          <ns3:TrackPointExtension>
            <ns3:hr>116</ns3:hr>
            <ns3:cad>69</ns3:cad>
          </ns3:TrackPointExtension>
        </extensions>
      </trkpt>
      <trkpt lat="45.31817478127777576446533203125" lon="-71.04635917581617832183837890625">
        <ele>656</ele>
        <time>2026-08-21T22:02:03.000Z</time>
        <extensions>
          <ns3:TrackPointExtension>
            <ns3:hr>116</ns3:hr>
            <ns3:cad>69</ns3:cad>
          </ns3:TrackPointExtension>
        </extensions>
      </trkpt>
      <trkpt lat="45.31817796640098094940185546875" lon="-71.04633620940148830413818359375">
        <ele>655.79998779296875</ele>
        <time>2026-08-21T22:02:04.000Z</time>
        <extensions>
          <ns3:TrackPointExtension>
            <ns3:hr>116</ns3:hr>
            <ns3:cad>69</ns3:cad>
          </ns3:TrackPointExtension>
        </extensions>
      </trkpt>
      <trkpt lat="45.3181810677051544189453125" lon="-71.046314500272274017333984375">
        <ele>655.4000244140625</ele>
        <time>2026-08-21T22:02:05.000Z</time>
        <extensions>
          <ns3:TrackPointExtension>
            <ns3:hr>116</ns3:hr>
            <ns3:cad>69</ns3:cad>
          </ns3:TrackPointExtension>
        </extensions>
      </trkpt>
      <trkpt lat="45.31818517483770847320556640625" lon="-71.04630234651267528533935546875">
        <ele>655.20001220703125</ele>
        <time>2026-08-21T22:02:06.000Z</time>
        <extensions>
          <ns3:TrackPointExtension>
            <ns3:hr>116</ns3:hr>
            <ns3:cad>69</ns3:cad>
          </ns3:TrackPointExtension>
        </extensions>
      </trkpt>
      <trkpt lat="45.31819338910281658172607421875" lon="-71.04629027657210826873779296875">
        <ele>655</ele>
        <time>2026-08-21T22:02:07.000Z</time>
        <extensions>
          <ns3:TrackPointExtension>
            <ns3:hr>116</ns3:hr>
            <ns3:cad>69</ns3:cad>
          </ns3:TrackPointExtension>
        </extensions>
      </trkpt>
      <trkpt lat="45.318197496235370635986328125" lon="-71.04627703316509723663330078125">
        <ele>654.79998779296875</ele>
        <time>2026-08-21T22:02:08.000Z</time>
        <extensions>
          <ns3:TrackPointExtension>
            <ns3:hr>116</ns3:hr>
            <ns3:cad>69</ns3:cad>
          </ns3:TrackPointExtension>
        </extensions>
      </trkpt>
      <trkpt lat="45.31820177100598812103271484375" lon="-71.04626311920583248138427734375">
        <ele>654.5999755859375</ele>
        <time>2026-08-21T22:02:09.000Z</time>
        <extensions>
          <ns3:TrackPointExtension>
            <ns3:hr>116</ns3:hr>
            <ns3:cad>69</ns3:cad>
          </ns3:TrackPointExtension>
        </extensions>
      </trkpt>
      <trkpt lat="45.3182077221572399139404296875" lon="-71.046243421733379364013671875">
        <ele>654.5999755859375</ele>
        <time>2026-08-21T22:02:10.000Z</time>
        <extensions>
          <ns3:TrackPointExtension>
            <ns3:hr>116</ns3:hr>
            <ns3:cad>69</ns3:cad>
          </ns3:TrackPointExtension>
        </extensions>
      </trkpt>
      <trkpt lat="45.31821132637560367584228515625" lon="-71.04622305370867252349853515625">
        <ele>654.4000244140625</ele>
        <time>2026-08-21T22:02:11.000Z</time>
        <extensions>
          <ns3:TrackPointExtension>
            <ns3:hr>115</ns3:hr>
            <ns3:cad>69</ns3:cad>
          </ns3:TrackPointExtension>
        </extensions>
      </trkpt>
      <trkpt lat="45.3182191215455532073974609375" lon="-71.04620327241718769073486328125">
        <ele>654.4000244140625</ele>
        <time>2026-08-21T22:02:12.000Z</time>
        <extensions>
          <ns3:TrackPointExtension>
            <ns3:hr>116</ns3:hr>
            <ns3:cad>69</ns3:cad>
          </ns3:TrackPointExtension>
        </extensions>
      </trkpt>
      <trkpt lat="45.31822574324905872344970703125" lon="-71.04618080891668796539306640625">
        <ele>654.4000244140625</ele>
        <time>2026-08-21T22:02:13.000Z</time>
        <extensions>
          <ns3:TrackPointExtension>
            <ns3:hr>115</ns3:hr>
            <ns3:cad>69</ns3:cad>
          </ns3:TrackPointExtension>
        </extensions>
      </trkpt>
      <trkpt lat="45.31823328696191310882568359375" lon="-71.04616203345358371734619140625">
        <ele>654.4000244140625</ele>
        <time>2026-08-21T22:02:14.000Z</time>
        <extensions>
          <ns3:TrackPointExtension>
            <ns3:hr>115</ns3:hr>
            <ns3:cad>69</ns3:cad>
          </ns3:TrackPointExtension>
        </extensions>
      </trkpt>
      <trkpt lat="45.31824300996959209442138671875" lon="-71.04614107869565486907958984375">
        <ele>654.4000244140625</ele>
        <time>2026-08-21T22:02:15.000Z</time>
        <extensions>
          <ns3:TrackPointExtension>
            <ns3:hr>115</ns3:hr>
            <ns3:cad>0</ns3:cad>
          </ns3:TrackPointExtension>
        </extensions>
      </trkpt>
      <trkpt lat="45.318250469863414764404296875" lon="-71.04612582363188266754150390625">
        <ele>654.4000244140625</ele>
        <time>2026-08-21T22:02:16.000Z</time>
        <extensions>
          <ns3:TrackPointExtension>
            <ns3:hr>115</ns3:hr>
            <ns3:cad>0</ns3:cad>
          </ns3:TrackPointExtension>
        </extensions>
      </trkpt>
      <trkpt lat="45.3182586841285228729248046875" lon="-71.04611492715775966644287109375">
        <ele>654.20001220703125</ele>
        <time>2026-08-21T22:02:17.000Z</time>
        <extensions>
          <ns3:TrackPointExtension>
            <ns3:hr>115</ns3:hr>
            <ns3:cad>0</ns3:cad>
          </ns3:TrackPointExtension>
        </extensions>
      </trkpt>
      <trkpt lat="45.3182677365839481353759765625" lon="-71.0461081378161907196044921875">
        <ele>654.20001220703125</ele>
        <time>2026-08-21T22:02:18.000Z</time>
        <extensions>
          <ns3:TrackPointExtension>
            <ns3:hr>115</ns3:hr>
            <ns3:cad>0</ns3:cad>
          </ns3:TrackPointExtension>
        </extensions>
      </trkpt>
      <trkpt lat="45.31827720813453197479248046875" lon="-71.0461044497787952423095703125">
        <ele>654</ele>
        <time>2026-08-21T22:02:19.000Z</time>
        <extensions>
          <ns3:TrackPointExtension>
            <ns3:hr>115</ns3:hr>
            <ns3:cad>0</ns3:cad>
          </ns3:TrackPointExtension>
        </extensions>
      </trkpt>
      <trkpt lat="45.31828726641833782196044921875" lon="-71.04610889218747615814208984375">
        <ele>654</ele>
        <time>2026-08-21T22:02:20.000Z</time>
        <extensions>
          <ns3:TrackPointExtension>
            <ns3:hr>115</ns3:hr>
            <ns3:cad>0</ns3:cad>
          </ns3:TrackPointExtension>
        </extensions>
      </trkpt>
      <trkpt lat="45.3182932175695896148681640625" lon="-71.04611174203455448150634765625">
        <ele>653.79998779296875</ele>
        <time>2026-08-21T22:02:21.000Z</time>
        <extensions>
          <ns3:TrackPointExtension>
            <ns3:hr>115</ns3:hr>
            <ns3:cad>0</ns3:cad>
          </ns3:TrackPointExtension>
        </extensions>
      </trkpt>
      <trkpt lat="45.3182964026927947998046875" lon="-71.0461123287677764892578125">
        <ele>653.5999755859375</ele>
        <time>2026-08-21T22:02:22.000Z</time>
        <extensions>
          <ns3:TrackPointExtension>
            <ns3:hr>115</ns3:hr>
            <ns3:cad>0</ns3:cad>
          </ns3:TrackPointExtension>
        </extensions>
      </trkpt>
      <trkpt lat="45.31829782761633396148681640625" lon="-71.04611593298614025115966796875">
        <ele>653.4000244140625</ele>
        <time>2026-08-21T22:02:23.000Z</time>
        <extensions>
          <ns3:TrackPointExtension>
            <ns3:hr>115</ns3:hr>
            <ns3:cad>0</ns3:cad>
          </ns3:TrackPointExtension>
        </extensions>
      </trkpt>
      <trkpt lat="45.31830377876758575439453125" lon="-71.04612247087061405181884765625">
        <ele>653.20001220703125</ele>
        <time>2026-08-21T22:02:24.000Z</time>
        <extensions>
          <ns3:TrackPointExtension>
            <ns3:hr>115</ns3:hr>
            <ns3:cad>0</ns3:cad>
          </ns3:TrackPointExtension>
        </extensions>
      </trkpt>
      <trkpt lat="45.318312160670757293701171875" lon="-71.046134121716022491455078125">
        <ele>653</ele>
        <time>2026-08-21T22:02:25.000Z</time>
        <extensions>
          <ns3:TrackPointExtension>
            <ns3:hr>115</ns3:hr>
            <ns3:cad>0</ns3:cad>
          </ns3:TrackPointExtension>
        </extensions>
      </trkpt>
      <trkpt lat="45.31831811182200908660888671875" lon="-71.0461391508579254150390625">
        <ele>652.79998779296875</ele>
        <time>2026-08-21T22:02:26.000Z</time>
        <extensions>
          <ns3:TrackPointExtension>
            <ns3:hr>113</ns3:hr>
            <ns3:cad>0</ns3:cad>
          </ns3:TrackPointExtension>
        </extensions>
      </trkpt>
      <trkpt lat="45.31832984648644924163818359375" lon="-71.04614309035241603851318359375">
        <ele>652.5999755859375</ele>
        <time>2026-08-21T22:02:27.000Z</time>
        <extensions>
          <ns3:TrackPointExtension>
            <ns3:hr>114</ns3:hr>
            <ns3:cad>0</ns3:cad>
          </ns3:TrackPointExtension>
        </extensions>
      </trkpt>
      <trkpt lat="45.31834174878895282745361328125" lon="-71.04614979587495326995849609375">
        <ele>652.4000244140625</ele>
        <time>2026-08-21T22:02:28.000Z</time>
        <extensions>
          <ns3:TrackPointExtension>
            <ns3:hr>114</ns3:hr>
            <ns3:cad>0</ns3:cad>
          </ns3:TrackPointExtension>
        </extensions>
      </trkpt>
      <trkpt lat="45.3183535672724246978759765625" lon="-71.04615465737879276275634765625">
        <ele>652.20001220703125</ele>
        <time>2026-08-21T22:02:29.000Z</time>
        <extensions>
          <ns3:TrackPointExtension>
            <ns3:hr>114</ns3:hr>
            <ns3:cad>0</ns3:cad>
          </ns3:TrackPointExtension>
        </extensions>
      </trkpt>
      <trkpt lat="45.31836370937526226043701171875" lon="-71.0461550764739513397216796875">
        <ele>652</ele>
        <time>2026-08-21T22:02:30.000Z</time>
        <extensions>
          <ns3:TrackPointExtension>
            <ns3:hr>114</ns3:hr>
            <ns3:cad>0</ns3:cad>
          </ns3:TrackPointExtension>
        </extensions>
      </trkpt>
      <trkpt lat="45.3183723427355289459228515625" lon="-71.04616169817745685577392578125">
        <ele>651.5999755859375</ele>
        <time>2026-08-21T22:02:31.000Z</time>
        <extensions>
          <ns3:TrackPointExtension>
            <ns3:hr>114</ns3:hr>
            <ns3:cad>0</ns3:cad>
          </ns3:TrackPointExtension>
        </extensions>
      </trkpt>
      <trkpt lat="45.3183911181986331939697265625" lon="-71.04617192409932613372802734375">
        <ele>651.4000244140625</ele>
        <time>2026-08-21T22:02:32.000Z</time>
        <extensions>
          <ns3:TrackPointExtension>
            <ns3:hr>114</ns3:hr>
            <ns3:cad>0</ns3:cad>
          </ns3:TrackPointExtension>
        </extensions>
      </trkpt>
      <trkpt lat="45.31840494833886623382568359375" lon="-71.0461842454969882965087890625">
        <ele>651</ele>
        <time>2026-08-21T22:02:33.000Z</time>
        <extensions>
          <ns3:TrackPointExtension>
            <ns3:hr>114</ns3:hr>
            <ns3:cad>0</ns3:cad>
          </ns3:TrackPointExtension>
        </extensions>
      </trkpt>
      <trkpt lat="45.3184142522513866424560546875" lon="-71.04619388468563556671142578125">
        <ele>650.5999755859375</ele>
        <time>2026-08-21T22:02:34.000Z</time>
        <extensions>
          <ns3:TrackPointExtension>
            <ns3:hr>115</ns3:hr>
            <ns3:cad>0</ns3:cad>
          </ns3:TrackPointExtension>
        </extensions>
      </trkpt>
      <trkpt lat="45.31843177042901515960693359375" lon="-71.0462107323110103607177734375">
        <ele>650.20001220703125</ele>
        <time>2026-08-21T22:02:35.000Z</time>
        <extensions>
          <ns3:TrackPointExtension>
            <ns3:hr>116</ns3:hr>
            <ns3:cad>0</ns3:cad>
          </ns3:TrackPointExtension>
        </extensions>
      </trkpt>
      <trkpt lat="45.3184400685131549835205078125" lon="-71.0462144203484058380126953125">
        <ele>650</ele>
        <time>2026-08-21T22:02:36.000Z</time>
        <extensions>
          <ns3:TrackPointExtension>
            <ns3:hr>116</ns3:hr>
            <ns3:cad>0</ns3:cad>
          </ns3:TrackPointExtension>
        </extensions>
      </trkpt>
      <trkpt lat="45.31844803132116794586181640625" lon="-71.0462238080799579620361328125">
        <ele>649.79998779296875</ele>
        <time>2026-08-21T22:02:37.000Z</time>
        <extensions>
          <ns3:TrackPointExtension>
            <ns3:hr>117</ns3:hr>
            <ns3:cad>0</ns3:cad>
          </ns3:TrackPointExtension>
        </extensions>
      </trkpt>
      <trkpt lat="45.3184628672897815704345703125" lon="-71.04623763822019100189208984375">
        <ele>649.5999755859375</ele>
        <time>2026-08-21T22:02:38.000Z</time>
        <extensions>
          <ns3:TrackPointExtension>
            <ns3:hr>117</ns3:hr>
            <ns3:cad>0</ns3:cad>
          </ns3:TrackPointExtension>
        </extensions>
      </trkpt>
      <trkpt lat="45.31847250647842884063720703125" lon="-71.0462462715804576873779296875">
        <ele>649.5999755859375</ele>
        <time>2026-08-21T22:02:39.000Z</time>
        <extensions>
          <ns3:TrackPointExtension>
            <ns3:hr>117</ns3:hr>
            <ns3:cad>0</ns3:cad>
          </ns3:TrackPointExtension>
        </extensions>
      </trkpt>
      <trkpt lat="45.31847820617258548736572265625" lon="-71.04625658132135868072509765625">
        <ele>649.4000244140625</ele>
        <time>2026-08-21T22:02:40.000Z</time>
        <extensions>
          <ns3:TrackPointExtension>
            <ns3:hr>116</ns3:hr>
            <ns3:cad>0</ns3:cad>
          </ns3:TrackPointExtension>
        </extensions>
      </trkpt>
      <trkpt lat="45.318491198122501373291015625" lon="-71.04626722633838653564453125">
        <ele>649.20001220703125</ele>
        <time>2026-08-21T22:02:41.000Z</time>
        <extensions>
          <ns3:TrackPointExtension>
            <ns3:hr>116</ns3:hr>
            <ns3:cad>0</ns3:cad>
          </ns3:TrackPointExtension>
        </extensions>
      </trkpt>
      <trkpt lat="45.3185029327869415283203125" lon="-71.04627686552703380584716796875">
        <ele>649</ele>
        <time>2026-08-21T22:02:42.000Z</time>
        <extensions>
          <ns3:TrackPointExtension>
            <ns3:hr>116</ns3:hr>
            <ns3:cad>0</ns3:cad>
          </ns3:TrackPointExtension>
        </extensions>
      </trkpt>
      <trkpt lat="45.318513996899127960205078125" lon="-71.04629212059080600738525390625">
        <ele>648.79998779296875</ele>
        <time>2026-08-21T22:02:43.000Z</time>
        <extensions>
          <ns3:TrackPointExtension>
            <ns3:hr>116</ns3:hr>
            <ns3:cad>0</ns3:cad>
          </ns3:TrackPointExtension>
        </extensions>
      </trkpt>
      <trkpt lat="45.3185262344777584075927734375" lon="-71.0463069565594196319580078125">
        <ele>648.5999755859375</ele>
        <time>2026-08-21T22:02:44.000Z</time>
        <extensions>
          <ns3:TrackPointExtension>
            <ns3:hr>115</ns3:hr>
            <ns3:cad>0</ns3:cad>
          </ns3:TrackPointExtension>
        </extensions>
      </trkpt>
      <trkpt lat="45.31854090280830860137939453125" lon="-71.046313159167766571044921875">
        <ele>648.4000244140625</ele>
        <time>2026-08-21T22:02:45.000Z</time>
        <extensions>
          <ns3:TrackPointExtension>
            <ns3:hr>115</ns3:hr>
            <ns3:cad>0</ns3:cad>
          </ns3:TrackPointExtension>
        </extensions>
      </trkpt>
      <trkpt lat="45.31855783425271511077880859375" lon="-71.04631994850933551788330078125">
        <ele>648.20001220703125</ele>
        <time>2026-08-21T22:02:46.000Z</time>
        <extensions>
          <ns3:TrackPointExtension>
            <ns3:hr>114</ns3:hr>
            <ns3:cad>0</ns3:cad>
          </ns3:TrackPointExtension>
        </extensions>
      </trkpt>
      <trkpt lat="45.3185818903148174285888671875" lon="-71.046329922974109649658203125">
        <ele>647.79998779296875</ele>
        <time>2026-08-21T22:02:47.000Z</time>
        <extensions>
          <ns3:TrackPointExtension>
            <ns3:hr>113</ns3:hr>
            <ns3:cad>0</ns3:cad>
          </ns3:TrackPointExtension>
        </extensions>
      </trkpt>
      <trkpt lat="45.31860577873885631561279296875" lon="-71.04632682166993618011474609375">
        <ele>647.4000244140625</ele>
        <time>2026-08-21T22:02:48.000Z</time>
        <extensions>
          <ns3:TrackPointExtension>
            <ns3:hr>113</ns3:hr>
            <ns3:cad>0</ns3:cad>
          </ns3:TrackPointExtension>
        </extensions>
      </trkpt>
      <trkpt lat="45.31862832605838775634765625" lon="-71.0463200323283672332763671875">
        <ele>647</ele>
        <time>2026-08-21T22:02:49.000Z</time>
        <extensions>
          <ns3:TrackPointExtension>
            <ns3:hr>113</ns3:hr>
            <ns3:cad>0</ns3:cad>
          </ns3:TrackPointExtension>
        </extensions>
      </trkpt>
      <trkpt lat="45.3186476044356822967529296875" lon="-71.046312153339385986328125">
        <ele>646.5999755859375</ele>
        <time>2026-08-21T22:02:50.000Z</time>
        <extensions>
          <ns3:TrackPointExtension>
            <ns3:hr>114</ns3:hr>
            <ns3:cad>0</ns3:cad>
          </ns3:TrackPointExtension>
        </extensions>
      </trkpt>
      <trkpt lat="45.3186630271375179290771484375" lon="-71.04630804620683193206787109375">
        <ele>646</ele>
        <time>2026-08-21T22:02:51.000Z</time>
        <extensions>
          <ns3:TrackPointExtension>
            <ns3:hr>114</ns3:hr>
            <ns3:cad>0</ns3:cad>
          </ns3:TrackPointExtension>
        </extensions>
      </trkpt>
      <trkpt lat="45.31868088059127330780029296875" lon="-71.04630955494940280914306640625">
        <ele>645.79998779296875</ele>
        <time>2026-08-21T22:02:52.000Z</time>
        <extensions>
          <ns3:TrackPointExtension>
            <ns3:hr>115</ns3:hr>
            <ns3:cad>0</ns3:cad>
          </ns3:TrackPointExtension>
        </extensions>
      </trkpt>
      <trkpt lat="45.31869932077825069427490234375" lon="-71.0463072918355464935302734375">
        <ele>645.4000244140625</ele>
        <time>2026-08-21T22:02:53.000Z</time>
        <extensions>
          <ns3:TrackPointExtension>
            <ns3:hr>115</ns3:hr>
            <ns3:cad>0</ns3:cad>
          </ns3:TrackPointExtension>
        </extensions>
      </trkpt>
      <trkpt lat="45.31871273182332515716552734375" lon="-71.046304441988468170166015625">
        <ele>645</ele>
        <time>2026-08-21T22:02:54.000Z</time>
        <extensions>
          <ns3:TrackPointExtension>
            <ns3:hr>115</ns3:hr>
            <ns3:cad>0</ns3:cad>
          </ns3:TrackPointExtension>
        </extensions>
      </trkpt>
      <trkpt lat="45.31872329302132129669189453125" lon="-71.0463046096265316009521484375">
        <ele>644.79998779296875</ele>
        <time>2026-08-21T22:02:55.000Z</time>
        <extensions>
          <ns3:TrackPointExtension>
            <ns3:hr>116</ns3:hr>
            <ns3:cad>0</ns3:cad>
          </ns3:TrackPointExtension>
        </extensions>
      </trkpt>
      <trkpt lat="45.31873293220996856689453125" lon="-71.04630787856876850128173828125">
        <ele>644.4000244140625</ele>
        <time>2026-08-21T22:02:56.000Z</time>
        <extensions>
          <ns3:TrackPointExtension>
            <ns3:hr>117</ns3:hr>
            <ns3:cad>0</ns3:cad>
          </ns3:TrackPointExtension>
        </extensions>
      </trkpt>
      <trkpt lat="45.31874156557023525238037109375" lon="-71.04631894268095493316650390625">
        <ele>644.20001220703125</ele>
        <time>2026-08-21T22:02:57.000Z</time>
        <extensions>
          <ns3:TrackPointExtension>
            <ns3:hr>118</ns3:hr>
            <ns3:cad>0</ns3:cad>
          </ns3:TrackPointExtension>
        </extensions>
      </trkpt>
      <trkpt lat="45.3187470138072967529296875" lon="-71.04632732458412647247314453125">
        <ele>644</ele>
        <time>2026-08-21T22:02:58.000Z</time>
        <extensions>
          <ns3:TrackPointExtension>
            <ns3:hr>118</ns3:hr>
            <ns3:cad>71</ns3:cad>
          </ns3:TrackPointExtension>
        </extensions>
      </trkpt>
      <trkpt lat="45.31875195913016796112060546875" lon="-71.04633620940148830413818359375">
        <ele>643.79998779296875</ele>
        <time>2026-08-21T22:02:59.000Z</time>
        <extensions>
          <ns3:TrackPointExtension>
            <ns3:hr>119</ns3:hr>
            <ns3:cad>71</ns3:cad>
          </ns3:TrackPointExtension>
        </extensions>
      </trkpt>
      <trkpt lat="45.31875841319561004638671875" lon="-71.04635037481784820556640625">
        <ele>643.5999755859375</ele>
        <time>2026-08-21T22:03:00.000Z</time>
        <extensions>
          <ns3:TrackPointExtension>
            <ns3:hr>119</ns3:hr>
            <ns3:cad>72</ns3:cad>
          </ns3:TrackPointExtension>
        </extensions>
      </trkpt>
      <trkpt lat="45.3187669627368450164794921875" lon="-71.0463639535009860992431640625">
        <ele>643.20001220703125</ele>
        <time>2026-08-21T22:03:01.000Z</time>
        <extensions>
          <ns3:TrackPointExtension>
            <ns3:hr>118</ns3:hr>
            <ns3:cad>72</ns3:cad>
          </ns3:TrackPointExtension>
        </extensions>
      </trkpt>
      <trkpt lat="45.318774841725826263427734375" lon="-71.046368144452571868896484375">
        <ele>643</ele>
        <time>2026-08-21T22:03:02.000Z</time>
        <extensions>
          <ns3:TrackPointExtension>
            <ns3:hr>118</ns3:hr>
            <ns3:cad>72</ns3:cad>
          </ns3:TrackPointExtension>
        </extensions>
      </trkpt>
      <trkpt lat="45.318784900009632110595703125" lon="-71.04637451469898223876953125">
        <ele>642.79998779296875</ele>
        <time>2026-08-21T22:03:03.000Z</time>
        <extensions>
          <ns3:TrackPointExtension>
            <ns3:hr>118</ns3:hr>
            <ns3:cad>71</ns3:cad>
          </ns3:TrackPointExtension>
        </extensions>
      </trkpt>
      <trkpt lat="45.318798311054706573486328125" lon="-71.04637962765991687774658203125">
        <ele>642.5999755859375</ele>
        <time>2026-08-21T22:03:04.000Z</time>
        <extensions>
          <ns3:TrackPointExtension>
            <ns3:hr>118</ns3:hr>
            <ns3:cad>71</ns3:cad>
          </ns3:TrackPointExtension>
        </extensions>
      </trkpt>
      <trkpt lat="45.31880526803433895111083984375" lon="-71.04638583026826381683349609375">
        <ele>642.4000244140625</ele>
        <time>2026-08-21T22:03:05.000Z</time>
        <extensions>
          <ns3:TrackPointExtension>
            <ns3:hr>118</ns3:hr>
            <ns3:cad>71</ns3:cad>
          </ns3:TrackPointExtension>
        </extensions>
      </trkpt>
      <trkpt lat="45.31881205737590789794921875" lon="-71.04639857076108455657958984375">
        <ele>642.20001220703125</ele>
        <time>2026-08-21T22:03:06.000Z</time>
        <extensions>
          <ns3:TrackPointExtension>
            <ns3:hr>118</ns3:hr>
            <ns3:cad>61</ns3:cad>
          </ns3:TrackPointExtension>
        </extensions>
      </trkpt>
      <trkpt lat="45.31882345676422119140625" lon="-71.046403348445892333984375">
        <ele>641.79998779296875</ele>
        <time>2026-08-21T22:03:07.000Z</time>
        <extensions>
          <ns3:TrackPointExtension>
            <ns3:hr>118</ns3:hr>
            <ns3:cad>61</ns3:cad>
          </ns3:TrackPointExtension>
        </extensions>
      </trkpt>
      <trkpt lat="45.31883276067674160003662109375" lon="-71.04640762321650981903076171875">
        <ele>641.5999755859375</ele>
        <time>2026-08-21T22:03:08.000Z</time>
        <extensions>
          <ns3:TrackPointExtension>
            <ns3:hr>118</ns3:hr>
            <ns3:cad>61</ns3:cad>
          </ns3:TrackPointExtension>
        </extensions>
      </trkpt>
      <trkpt lat="45.31884198077023029327392578125" lon="-71.0464127361774444580078125">
        <ele>641.20001220703125</ele>
        <time>2026-08-21T22:03:09.000Z</time>
        <extensions>
          <ns3:TrackPointExtension>
            <ns3:hr>117</ns3:hr>
            <ns3:cad>61</ns3:cad>
          </ns3:TrackPointExtension>
        </extensions>
      </trkpt>
      <trkpt lat="45.31886461190879344940185546875" lon="-71.046427153050899505615234375">
        <ele>640.79998779296875</ele>
        <time>2026-08-21T22:03:10.000Z</time>
        <extensions>
          <ns3:TrackPointExtension>
            <ns3:hr>118</ns3:hr>
            <ns3:cad>61</ns3:cad>
          </ns3:TrackPointExtension>
        </extensions>
      </trkpt>
      <trkpt lat="45.318878106772899627685546875" lon="-71.04643142782151699066162109375">
        <ele>640.4000244140625</ele>
        <time>2026-08-21T22:03:11.000Z</time>
        <extensions>
          <ns3:TrackPointExtension>
            <ns3:hr>118</ns3:hr>
            <ns3:cad>61</ns3:cad>
          </ns3:TrackPointExtension>
        </extensions>
      </trkpt>
      <trkpt lat="45.3188945353031158447265625" lon="-71.04643209837377071380615234375">
        <ele>640.20001220703125</ele>
        <time>2026-08-21T22:03:12.000Z</time>
        <extensions>
          <ns3:TrackPointExtension>
            <ns3:hr>118</ns3:hr>
            <ns3:cad>61</ns3:cad>
          </ns3:TrackPointExtension>
        </extensions>
      </trkpt>
      <trkpt lat="45.3189121372997760772705078125" lon="-71.04643528349697589874267578125">
        <ele>640</ele>
        <time>2026-08-21T22:03:13.000Z</time>
        <extensions>
          <ns3:TrackPointExtension>
            <ns3:hr>117</ns3:hr>
            <ns3:cad>0</ns3:cad>
          </ns3:TrackPointExtension>
        </extensions>
      </trkpt>
      <trkpt lat="45.3189248777925968170166015625" lon="-71.046431176364421844482421875">
        <ele>639.79998779296875</ele>
        <time>2026-08-21T22:03:14.000Z</time>
        <extensions>
          <ns3:TrackPointExtension>
            <ns3:hr>117</ns3:hr>
            <ns3:cad>0</ns3:cad>
          </ns3:TrackPointExtension>
        </extensions>
      </trkpt>
      <trkpt lat="45.31893501989543437957763671875" lon="-71.04642790742218494415283203125">
        <ele>639.79998779296875</ele>
        <time>2026-08-21T22:03:15.000Z</time>
        <extensions>
          <ns3:TrackPointExtension>
            <ns3:hr>117</ns3:hr>
            <ns3:cad>0</ns3:cad>
          </ns3:TrackPointExtension>
        </extensions>
      </trkpt>
      <trkpt lat="45.31894289888441562652587890625" lon="-71.0464315116405487060546875">
        <ele>639.4000244140625</ele>
        <time>2026-08-21T22:03:16.000Z</time>
        <extensions>
          <ns3:TrackPointExtension>
            <ns3:hr>117</ns3:hr>
            <ns3:cad>0</ns3:cad>
          </ns3:TrackPointExtension>
        </extensions>
      </trkpt>
      <trkpt lat="45.3189580701291561126708984375" lon="-71.04642991907894611358642578125">
        <ele>639.20001220703125</ele>
        <time>2026-08-21T22:03:17.000Z</time>
        <extensions>
          <ns3:TrackPointExtension>
            <ns3:hr>118</ns3:hr>
            <ns3:cad>0</ns3:cad>
          </ns3:TrackPointExtension>
        </extensions>
      </trkpt>
      <trkpt lat="45.31897391192615032196044921875" lon="-71.046433188021183013916015625">
        <ele>638.79998779296875</ele>
        <time>2026-08-21T22:03:18.000Z</time>
        <extensions>
          <ns3:TrackPointExtension>
            <ns3:hr>118</ns3:hr>
            <ns3:cad>0</ns3:cad>
          </ns3:TrackPointExtension>
        </extensions>
      </trkpt>
      <trkpt lat="45.31898908317089080810546875" lon="-71.04643276892602443695068359375">
        <ele>638.4000244140625</ele>
        <time>2026-08-21T22:03:19.000Z</time>
        <extensions>
          <ns3:TrackPointExtension>
            <ns3:hr>117</ns3:hr>
            <ns3:cad>0</ns3:cad>
          </ns3:TrackPointExtension>
        </extensions>
      </trkpt>
      <trkpt lat="45.31900341622531414031982421875" lon="-71.0464273206889629364013671875">
        <ele>638</ele>
        <time>2026-08-21T22:03:20.000Z</time>
        <extensions>
          <ns3:TrackPointExtension>
            <ns3:hr>117</ns3:hr>
            <ns3:cad>0</ns3:cad>
          </ns3:TrackPointExtension>
        </extensions>
      </trkpt>
      <trkpt lat="45.319012217223644256591796875" lon="-71.04641634039580821990966796875">
        <ele>637.5999755859375</ele>
        <time>2026-08-21T22:03:21.000Z</time>
        <extensions>
          <ns3:TrackPointExtension>
            <ns3:hr>117</ns3:hr>
            <ns3:cad>0</ns3:cad>
          </ns3:TrackPointExtension>
        </extensions>
      </trkpt>
      <trkpt lat="45.3190257959067821502685546875" lon="-71.0463964752852916717529296875">
        <ele>637.4000244140625</ele>
        <time>2026-08-21T22:03:22.000Z</time>
        <extensions>
          <ns3:TrackPointExtension>
            <ns3:hr>117</ns3:hr>
            <ns3:cad>0</ns3:cad>
          </ns3:TrackPointExtension>
        </extensions>
      </trkpt>
      <trkpt lat="45.31903610564768314361572265625" lon="-71.0463800467550754547119140625">
        <ele>637.20001220703125</ele>
        <time>2026-08-21T22:03:23.000Z</time>
        <extensions>
          <ns3:TrackPointExtension>
            <ns3:hr>117</ns3:hr>
            <ns3:cad>0</ns3:cad>
          </ns3:TrackPointExtension>
        </extensions>
      </trkpt>
      <trkpt lat="45.31904683448374271392822265625" lon="-71.04637451469898223876953125">
        <ele>637</ele>
        <time>2026-08-21T22:03:24.000Z</time>
        <extensions>
          <ns3:TrackPointExtension>
            <ns3:hr>117</ns3:hr>
            <ns3:cad>0</ns3:cad>
          </ns3:TrackPointExtension>
        </extensions>
      </trkpt>
      <trkpt lat="45.31905940733850002288818359375" lon="-71.04636990465223789215087890625">
        <ele>636.79998779296875</ele>
        <time>2026-08-21T22:03:25.000Z</time>
        <extensions>
          <ns3:TrackPointExtension>
            <ns3:hr>117</ns3:hr>
            <ns3:cad>0</ns3:cad>
          </ns3:TrackPointExtension>
        </extensions>
      </trkpt>
      <trkpt lat="45.319078266620635986328125" lon="-71.0463508777320384979248046875">
        <ele>636.5999755859375</ele>
        <time>2026-08-21T22:03:26.000Z</time>
        <extensions>
          <ns3:TrackPointExtension>
            <ns3:hr>117</ns3:hr>
            <ns3:cad>0</ns3:cad>
          </ns3:TrackPointExtension>
        </extensions>
      </trkpt>
      <trkpt lat="45.319094359874725341796875" lon="-71.046333275735378265380859375">
        <ele>636.4000244140625</ele>
        <time>2026-08-21T22:03:27.000Z</time>
        <extensions>
          <ns3:TrackPointExtension>
            <ns3:hr>117</ns3:hr>
            <ns3:cad>68</ns3:cad>
          </ns3:TrackPointExtension>
        </extensions>
      </trkpt>
      <trkpt lat="45.31911254860460758209228515625" lon="-71.04631961323320865631103515625">
        <ele>636.20001220703125</ele>
        <time>2026-08-21T22:03:28.000Z</time>
        <extensions>
          <ns3:TrackPointExtension>
            <ns3:hr>117</ns3:hr>
            <ns3:cad>68</ns3:cad>
          </ns3:TrackPointExtension>
        </extensions>
      </trkpt>
      <trkpt lat="45.31912763603031635284423828125" lon="-71.0463066212832927703857421875">
        <ele>635.79998779296875</ele>
        <time>2026-08-21T22:03:29.000Z</time>
        <extensions>
          <ns3:TrackPointExtension>
            <ns3:hr>116</ns3:hr>
            <ns3:cad>68</ns3:cad>
          </ns3:TrackPointExtension>
        </extensions>
      </trkpt>
      <trkpt lat="45.319141633808612823486328125" lon="-71.04629782028496265411376953125">
        <ele>635.4000244140625</ele>
        <time>2026-08-21T22:03:30.000Z</time>
        <extensions>
          <ns3:TrackPointExtension>
            <ns3:hr>116</ns3:hr>
            <ns3:cad>68</ns3:cad>
          </ns3:TrackPointExtension>
        </extensions>
      </trkpt>
      <trkpt lat="45.3191552124917507171630859375" lon="-71.04629413224756717681884765625">
        <ele>635.20001220703125</ele>
        <time>2026-08-21T22:03:31.000Z</time>
        <extensions>
          <ns3:TrackPointExtension>
            <ns3:hr>116</ns3:hr>
            <ns3:cad>68</ns3:cad>
          </ns3:TrackPointExtension>
        </extensions>
      </trkpt>
      <trkpt lat="45.31917055137455463409423828125" lon="-71.046292372047901153564453125">
        <ele>635</ele>
        <time>2026-08-21T22:03:32.000Z</time>
        <extensions>
          <ns3:TrackPointExtension>
            <ns3:hr>116</ns3:hr>
            <ns3:cad>68</ns3:cad>
          </ns3:TrackPointExtension>
        </extensions>
      </trkpt>
      <trkpt lat="45.319181866943836212158203125" lon="-71.04628843255341053009033203125">
        <ele>634.79998779296875</ele>
        <time>2026-08-21T22:03:33.000Z</time>
        <extensions>
          <ns3:TrackPointExtension>
            <ns3:hr>116</ns3:hr>
            <ns3:cad>68</ns3:cad>
          </ns3:TrackPointExtension>
        </extensions>
      </trkpt>
      <trkpt lat="45.319191254675388336181640625" lon="-71.0462868399918079376220703125">
        <ele>634.5999755859375</ele>
        <time>2026-08-21T22:03:34.000Z</time>
        <extensions>
          <ns3:TrackPointExtension>
            <ns3:hr>117</ns3:hr>
            <ns3:cad>75</ns3:cad>
          </ns3:TrackPointExtension>
        </extensions>
      </trkpt>
      <trkpt lat="45.31919972039759159088134765625" lon="-71.046290360391139984130859375">
        <ele>634.20001220703125</ele>
        <time>2026-08-21T22:03:35.000Z</time>
        <extensions>
          <ns3:TrackPointExtension>
            <ns3:hr>117</ns3:hr>
            <ns3:cad>75</ns3:cad>
          </ns3:TrackPointExtension>
        </extensions>
      </trkpt>
      <trkpt lat="45.31921346671879291534423828125" lon="-71.04629362933337688446044921875">
        <ele>634</ele>
        <time>2026-08-21T22:03:36.000Z</time>
        <extensions>
          <ns3:TrackPointExtension>
            <ns3:hr>118</ns3:hr>
            <ns3:cad>75</ns3:cad>
          </ns3:TrackPointExtension>
        </extensions>
      </trkpt>
      <trkpt lat="45.3192256204783916473388671875" lon="-71.04629044421017169952392578125">
        <ele>633.5999755859375</ele>
        <time>2026-08-21T22:03:37.000Z</time>
        <extensions>
          <ns3:TrackPointExtension>
            <ns3:hr>118</ns3:hr>
            <ns3:cad>75</ns3:cad>
          </ns3:TrackPointExtension>
        </extensions>
      </trkpt>
      <trkpt lat="45.319236181676387786865234375" lon="-71.04628658853471279144287109375">
        <ele>633</ele>
        <time>2026-08-21T22:03:38.000Z</time>
        <extensions>
          <ns3:TrackPointExtension>
            <ns3:hr>119</ns3:hr>
            <ns3:cad>75</ns3:cad>
          </ns3:TrackPointExtension>
        </extensions>
      </trkpt>
      <trkpt lat="45.31924481503665447235107421875" lon="-71.04628893546760082244873046875">
        <ele>632.5999755859375</ele>
        <time>2026-08-21T22:03:39.000Z</time>
        <extensions>
          <ns3:TrackPointExtension>
            <ns3:hr>118</ns3:hr>
            <ns3:cad>75</ns3:cad>
          </ns3:TrackPointExtension>
        </extensions>
      </trkpt>
      <trkpt lat="45.319252945482730865478515625" lon="-71.0462992452085018157958984375">
        <ele>632.20001220703125</ele>
        <time>2026-08-21T22:03:40.000Z</time>
        <extensions>
          <ns3:TrackPointExtension>
            <ns3:hr>118</ns3:hr>
            <ns3:cad>75</ns3:cad>
          </ns3:TrackPointExtension>
        </extensions>
      </trkpt>
      <trkpt lat="45.3192611597478389739990234375" lon="-71.0463139973580837249755859375">
        <ele>632</ele>
        <time>2026-08-21T22:03:41.000Z</time>
        <extensions>
          <ns3:TrackPointExtension>
            <ns3:hr>118</ns3:hr>
            <ns3:cad>40</ns3:cad>
          </ns3:TrackPointExtension>
        </extensions>
      </trkpt>
      <trkpt lat="45.31927649863064289093017578125" lon="-71.046317517757415771484375">
        <ele>631.5999755859375</ele>
        <time>2026-08-21T22:03:42.000Z</time>
        <extensions>
          <ns3:TrackPointExtension>
            <ns3:hr>117</ns3:hr>
            <ns3:cad>40</ns3:cad>
          </ns3:TrackPointExtension>
        </extensions>
      </trkpt>
      <trkpt lat="45.31929410062730312347412109375" lon="-71.0463200323283672332763671875">
        <ele>631</ele>
        <time>2026-08-21T22:03:43.000Z</time>
        <extensions>
          <ns3:TrackPointExtension>
            <ns3:hr>116</ns3:hr>
            <ns3:cad>40</ns3:cad>
          </ns3:TrackPointExtension>
        </extensions>
      </trkpt>
      <trkpt lat="45.31931488774716854095458984375" lon="-71.046317853033542633056640625">
        <ele>630.4000244140625</ele>
        <time>2026-08-21T22:03:44.000Z</time>
        <extensions>
          <ns3:TrackPointExtension>
            <ns3:hr>115</ns3:hr>
            <ns3:cad>40</ns3:cad>
          </ns3:TrackPointExtension>
        </extensions>
      </trkpt>
      <trkpt lat="45.3193282149732112884521484375" lon="-71.0463161766529083251953125">
        <ele>629.79998779296875</ele>
        <time>2026-08-21T22:03:45.000Z</time>
        <extensions>
          <ns3:TrackPointExtension>
            <ns3:hr>114</ns3:hr>
            <ns3:cad>40</ns3:cad>
          </ns3:TrackPointExtension>
        </extensions>
      </trkpt>
      <trkpt lat="45.31934053637087345123291015625" lon="-71.04631542228162288665771484375">
        <ele>629.20001220703125</ele>
        <time>2026-08-21T22:03:46.000Z</time>
        <extensions>
          <ns3:TrackPointExtension>
            <ns3:hr>114</ns3:hr>
            <ns3:cad>0</ns3:cad>
          </ns3:TrackPointExtension>
        </extensions>
      </trkpt>
      <trkpt lat="45.31935344450175762176513671875" lon="-71.04631206952035427093505859375">
        <ele>628.5999755859375</ele>
        <time>2026-08-21T22:03:47.000Z</time>
        <extensions>
          <ns3:TrackPointExtension>
            <ns3:hr>115</ns3:hr>
            <ns3:cad>0</ns3:cad>
          </ns3:TrackPointExtension>
        </extensions>
      </trkpt>
      <trkpt lat="45.319365598261356353759765625" lon="-71.046310476958751678466796875">
        <ele>628.20001220703125</ele>
        <time>2026-08-21T22:03:48.000Z</time>
        <extensions>
          <ns3:TrackPointExtension>
            <ns3:hr>115</ns3:hr>
            <ns3:cad>0</ns3:cad>
          </ns3:TrackPointExtension>
        </extensions>
      </trkpt>
      <trkpt lat="45.31938462518155574798583984375" lon="-71.0463072918355464935302734375">
        <ele>627.79998779296875</ele>
        <time>2026-08-21T22:03:49.000Z</time>
        <extensions>
          <ns3:TrackPointExtension>
            <ns3:hr>116</ns3:hr>
            <ns3:cad>0</ns3:cad>
          </ns3:TrackPointExtension>
        </extensions>
      </trkpt>
      <trkpt lat="45.31940348446369171142578125" lon="-71.0462979041039943695068359375">
        <ele>627.4000244140625</ele>
        <time>2026-08-21T22:03:50.000Z</time>
        <extensions>
          <ns3:TrackPointExtension>
            <ns3:hr>116</ns3:hr>
            <ns3:cad>0</ns3:cad>
          </ns3:TrackPointExtension>
        </extensions>
      </trkpt>
      <trkpt lat="45.31941144727170467376708984375" lon="-71.04629480279982089996337890625">
        <ele>627</ele>
        <time>2026-08-21T22:03:51.000Z</time>
        <extensions>
          <ns3:TrackPointExtension>
            <ns3:hr>116</ns3:hr>
            <ns3:cad>0</ns3:cad>
          </ns3:TrackPointExtension>
        </extensions>
      </trkpt>
      <trkpt lat="45.3194237686693668365478515625" lon="-71.0462965629994869232177734375">
        <ele>626.5999755859375</ele>
        <time>2026-08-21T22:03:52.000Z</time>
        <extensions>
          <ns3:TrackPointExtension>
            <ns3:hr>116</ns3:hr>
            <ns3:cad>0</ns3:cad>
          </ns3:TrackPointExtension>
        </extensions>
      </trkpt>
      <trkpt lat="45.31943374313414096832275390625" lon="-71.0462968982756137847900390625">
        <ele>626</ele>
        <time>2026-08-21T22:03:53.000Z</time>
        <extensions>
          <ns3:TrackPointExtension>
            <ns3:hr>116</ns3:hr>
            <ns3:cad>0</ns3:cad>
          </ns3:TrackPointExtension>
        </extensions>
      </trkpt>
      <trkpt lat="45.3194452263414859771728515625" lon="-71.04629698209464550018310546875">
        <ele>625.5999755859375</ele>
        <time>2026-08-21T22:03:54.000Z</time>
        <extensions>
          <ns3:TrackPointExtension>
            <ns3:hr>116</ns3:hr>
            <ns3:cad>0</ns3:cad>
          </ns3:TrackPointExtension>
        </extensions>
      </trkpt>
      <trkpt lat="45.3194606490433216094970703125" lon="-71.0462999157607555389404296875">
        <ele>625.20001220703125</ele>
        <time>2026-08-21T22:03:55.000Z</time>
        <extensions>
          <ns3:TrackPointExtension>
            <ns3:hr>117</ns3:hr>
            <ns3:cad>0</ns3:cad>
          </ns3:TrackPointExtension>
        </extensions>
      </trkpt>
      <trkpt lat="45.31947481445968151092529296875" lon="-71.0463054478168487548828125">
        <ele>624.5999755859375</ele>
        <time>2026-08-21T22:03:56.000Z</time>
        <extensions>
          <ns3:TrackPointExtension>
            <ns3:hr>117</ns3:hr>
            <ns3:cad>0</ns3:cad>
          </ns3:TrackPointExtension>
        </extensions>
      </trkpt>
      <trkpt lat="45.31948336400091648101806640625" lon="-71.04630854912102222442626953125">
        <ele>624</ele>
        <time>2026-08-21T22:03:57.000Z</time>
        <extensions>
          <ns3:TrackPointExtension>
            <ns3:hr>118</ns3:hr>
            <ns3:cad>0</ns3:cad>
          </ns3:TrackPointExtension>
        </extensions>
      </trkpt>
      <trkpt lat="45.3194968588650226593017578125" lon="-71.04631726630032062530517578125">
        <ele>623.4000244140625</ele>
        <time>2026-08-21T22:03:58.000Z</time>
        <extensions>
          <ns3:TrackPointExtension>
            <ns3:hr>118</ns3:hr>
            <ns3:cad>0</ns3:cad>
          </ns3:TrackPointExtension>
        </extensions>
      </trkpt>
      <trkpt lat="45.31951286830008029937744140625" lon="-71.046331934630870819091796875">
        <ele>623</ele>
        <time>2026-08-21T22:03:59.000Z</time>
        <extensions>
          <ns3:TrackPointExtension>
            <ns3:hr>119</ns3:hr>
            <ns3:cad>0</ns3:cad>
          </ns3:TrackPointExtension>
        </extensions>
      </trkpt>
      <trkpt lat="45.319526530802249908447265625" lon="-71.04634107090532779693603515625">
        <ele>622.5999755859375</ele>
        <time>2026-08-21T22:04:00.000Z</time>
        <extensions>
          <ns3:TrackPointExtension>
            <ns3:hr>119</ns3:hr>
            <ns3:cad>0</ns3:cad>
          </ns3:TrackPointExtension>
        </extensions>
      </trkpt>
      <trkpt lat="45.319538600742816925048828125" lon="-71.0463461838662624359130859375">
        <ele>622.4000244140625</ele>
        <time>2026-08-21T22:04:01.000Z</time>
        <extensions>
          <ns3:TrackPointExtension>
            <ns3:hr>119</ns3:hr>
            <ns3:cad>0</ns3:cad>
          </ns3:TrackPointExtension>
        </extensions>
      </trkpt>
      <trkpt lat="45.319550670683383941650390625" lon="-71.046349704265594482421875">
        <ele>622.20001220703125</ele>
        <time>2026-08-21T22:04:02.000Z</time>
        <extensions>
          <ns3:TrackPointExtension>
            <ns3:hr>119</ns3:hr>
            <ns3:cad>0</ns3:cad>
          </ns3:TrackPointExtension>
        </extensions>
      </trkpt>
      <trkpt lat="45.31955930404365062713623046875" lon="-71.04635515250265598297119140625">
        <ele>622</ele>
        <time>2026-08-21T22:04:03.000Z</time>
        <extensions>
          <ns3:TrackPointExtension>
            <ns3:hr>120</ns3:hr>
            <ns3:cad>0</ns3:cad>
          </ns3:TrackPointExtension>
        </extensions>
      </trkpt>
      <trkpt lat="45.31956701539456844329833984375" lon="-71.04636621661484241485595703125">
        <ele>621.79998779296875</ele>
        <time>2026-08-21T22:04:04.000Z</time>
        <extensions>
          <ns3:TrackPointExtension>
            <ns3:hr>120</ns3:hr>
            <ns3:cad>0</ns3:cad>
          </ns3:TrackPointExtension>
        </extensions>
      </trkpt>
      <trkpt lat="45.31956701539456844329833984375" lon="-71.0463709942996501922607421875">
        <ele>621.5999755859375</ele>
        <time>2026-08-21T22:04:05.000Z</time>
        <extensions>
          <ns3:TrackPointExtension>
            <ns3:hr>120</ns3:hr>
            <ns3:cad>0</ns3:cad>
          </ns3:TrackPointExtension>
        </extensions>
      </trkpt>
      <trkpt lat="45.31956684775650501251220703125" lon="-71.04637183248996734619140625">
        <ele>621.20001220703125</ele>
        <time>2026-08-21T22:04:06.000Z</time>
        <extensions>
          <ns3:TrackPointExtension>
            <ns3:hr>120</ns3:hr>
            <ns3:cad>0</ns3:cad>
          </ns3:TrackPointExtension>
        </extensions>
      </trkpt>
      <trkpt lat="45.3195702843368053436279296875" lon="-71.046374849975109100341796875">
        <ele>621</ele>
        <time>2026-08-21T22:04:07.000Z</time>
        <extensions>
          <ns3:TrackPointExtension>
            <ns3:hr>120</ns3:hr>
            <ns3:cad>0</ns3:cad>
          </ns3:TrackPointExtension>
        </extensions>
      </trkpt>
      <trkpt lat="45.319573469460010528564453125" lon="-71.0463783703744411468505859375">
        <ele>620.5999755859375</ele>
        <time>2026-08-21T22:04:08.000Z</time>
        <extensions>
          <ns3:TrackPointExtension>
            <ns3:hr>120</ns3:hr>
            <ns3:cad>48</ns3:cad>
          </ns3:TrackPointExtension>
        </extensions>
      </trkpt>
      <trkpt lat="45.319573469460010528564453125" lon="-71.046383567154407501220703125">
        <ele>620.4000244140625</ele>
        <time>2026-08-21T22:04:09.000Z</time>
        <extensions>
          <ns3:TrackPointExtension>
            <ns3:hr>120</ns3:hr>
            <ns3:cad>48</ns3:cad>
          </ns3:TrackPointExtension>
        </extensions>
      </trkpt>
      <trkpt lat="45.3195729665458202362060546875" lon="-71.04638985358178615570068359375">
        <ele>620.4000244140625</ele>
        <time>2026-08-21T22:04:10.000Z</time>
        <extensions>
          <ns3:TrackPointExtension>
            <ns3:hr>119</ns3:hr>
            <ns3:cad>48</ns3:cad>
          </ns3:TrackPointExtension>
        </extensions>
      </trkpt>
      <trkpt lat="45.31957380473613739013671875" lon="-71.046402342617511749267578125">
        <ele>620.20001220703125</ele>
        <time>2026-08-21T22:04:11.000Z</time>
        <extensions>
          <ns3:TrackPointExtension>
            <ns3:hr>118</ns3:hr>
            <ns3:cad>48</ns3:cad>
          </ns3:TrackPointExtension>
        </extensions>
      </trkpt>
      <trkpt lat="45.3195796720683574676513671875" lon="-71.0464132390916347503662109375">
        <ele>620.4000244140625</ele>
        <time>2026-08-21T22:04:12.000Z</time>
        <extensions>
          <ns3:TrackPointExtension>
            <ns3:hr>118</ns3:hr>
            <ns3:cad>48</ns3:cad>
          </ns3:TrackPointExtension>
        </extensions>
      </trkpt>
      <trkpt lat="45.31957992352545261383056640625" lon="-71.04642857797443866729736328125">
        <ele>620.5999755859375</ele>
        <time>2026-08-21T22:04:13.000Z</time>
        <extensions>
          <ns3:TrackPointExtension>
            <ns3:hr>118</ns3:hr>
            <ns3:cad>48</ns3:cad>
          </ns3:TrackPointExtension>
        </extensions>
      </trkpt>
      <trkpt lat="45.319582521915435791015625" lon="-71.0464360378682613372802734375">
        <ele>620.79998779296875</ele>
        <time>2026-08-21T22:04:14.000Z</time>
        <extensions>
          <ns3:TrackPointExtension>
            <ns3:hr>119</ns3:hr>
            <ns3:cad>48</ns3:cad>
          </ns3:TrackPointExtension>
        </extensions>
      </trkpt>
      <trkpt lat="45.31958428211510181427001953125" lon="-71.0464377142488956451416015625">
        <ele>621</ele>
        <time>2026-08-21T22:04:15.000Z</time>
        <extensions>
          <ns3:TrackPointExtension>
            <ns3:hr>118</ns3:hr>
            <ns3:cad>48</ns3:cad>
          </ns3:TrackPointExtension>
        </extensions>
      </trkpt>
      <trkpt lat="45.31958813779056072235107421875" lon="-71.04643880389630794525146484375">
        <ele>621.20001220703125</ele>
        <time>2026-08-21T22:04:16.000Z</time>
        <extensions>
          <ns3:TrackPointExtension>
            <ns3:hr>118</ns3:hr>
            <ns3:cad>48</ns3:cad>
          </ns3:TrackPointExtension>
        </extensions>
      </trkpt>
      <trkpt lat="45.3195910714566707611083984375" lon="-71.04644559323787689208984375">
        <ele>621.4000244140625</ele>
        <time>2026-08-21T22:04:17.000Z</time>
        <extensions>
          <ns3:TrackPointExtension>
            <ns3:hr>118</ns3:hr>
            <ns3:cad>48</ns3:cad>
          </ns3:TrackPointExtension>
        </extensions>
      </trkpt>
      <trkpt lat="45.3195907361805438995361328125" lon="-71.04644693434238433837890625">
        <ele>621.4000244140625</ele>
        <time>2026-08-21T22:04:18.000Z</time>
        <extensions>
          <ns3:TrackPointExtension>
            <ns3:hr>118</ns3:hr>
            <ns3:cad>0</ns3:cad>
          </ns3:TrackPointExtension>
        </extensions>
      </trkpt>
      <trkpt lat="45.319592244923114776611328125" lon="-71.04645095765590667724609375">
        <ele>621.4000244140625</ele>
        <time>2026-08-21T22:04:19.000Z</time>
        <extensions>
          <ns3:TrackPointExtension>
            <ns3:hr>119</ns3:hr>
            <ns3:cad>0</ns3:cad>
          </ns3:TrackPointExtension>
        </extensions>
      </trkpt>
      <trkpt lat="45.3195924125611782073974609375" lon="-71.04646302759647369384765625">
        <ele>621.4000244140625</ele>
        <time>2026-08-21T22:04:20.000Z</time>
        <extensions>
          <ns3:TrackPointExtension>
            <ns3:hr>119</ns3:hr>
            <ns3:cad>0</ns3:cad>
          </ns3:TrackPointExtension>
        </extensions>
      </trkpt>
      <trkpt lat="45.31959316693246364593505859375" lon="-71.04647987522184848785400390625">
        <ele>621.20001220703125</ele>
        <time>2026-08-21T22:04:21.000Z</time>
        <extensions>
          <ns3:TrackPointExtension>
            <ns3:hr>119</ns3:hr>
            <ns3:cad>0</ns3:cad>
          </ns3:TrackPointExtension>
        </extensions>
      </trkpt>
      <trkpt lat="45.31959232874214649200439453125" lon="-71.0465024225413799285888671875">
        <ele>621.20001220703125</ele>
        <time>2026-08-21T22:04:22.000Z</time>
        <extensions>
          <ns3:TrackPointExtension>
            <ns3:hr>119</ns3:hr>
            <ns3:cad>0</ns3:cad>
          </ns3:TrackPointExtension>
        </extensions>
      </trkpt>
      <trkpt lat="45.31959232874214649200439453125" lon="-71.04651407338678836822509765625">
        <ele>621.4000244140625</ele>
        <time>2026-08-21T22:04:23.000Z</time>
        <extensions>
          <ns3:TrackPointExtension>
            <ns3:hr>119</ns3:hr>
            <ns3:cad>0</ns3:cad>
          </ns3:TrackPointExtension>
        </extensions>
      </trkpt>
      <trkpt lat="45.31958721578121185302734375" lon="-71.04652740061283111572265625">
        <ele>621.4000244140625</ele>
        <time>2026-08-21T22:04:24.000Z</time>
        <extensions>
          <ns3:TrackPointExtension>
            <ns3:hr>119</ns3:hr>
            <ns3:cad>0</ns3:cad>
          </ns3:TrackPointExtension>
        </extensions>
      </trkpt>
      <trkpt lat="45.31958679668605327606201171875" lon="-71.0465470142662525177001953125">
        <ele>621.5999755859375</ele>
        <time>2026-08-21T22:04:25.000Z</time>
        <extensions>
          <ns3:TrackPointExtension>
            <ns3:hr>119</ns3:hr>
            <ns3:cad>0</ns3:cad>
          </ns3:TrackPointExtension>
        </extensions>
      </trkpt>
      <trkpt lat="45.31958662904798984527587890625" lon="-71.04656503535807132720947265625">
        <ele>621.5999755859375</ele>
        <time>2026-08-21T22:04:26.000Z</time>
        <extensions>
          <ns3:TrackPointExtension>
            <ns3:hr>119</ns3:hr>
            <ns3:cad>0</ns3:cad>
          </ns3:TrackPointExtension>
        </extensions>
      </trkpt>
      <trkpt lat="45.319586880505084991455078125" lon="-71.046580038964748382568359375">
        <ele>621.79998779296875</ele>
        <time>2026-08-21T22:04:27.000Z</time>
        <extensions>
          <ns3:TrackPointExtension>
            <ns3:hr>119</ns3:hr>
            <ns3:cad>45</ns3:cad>
          </ns3:TrackPointExtension>
        </extensions>
      </trkpt>
      <trkpt lat="45.319590903818607330322265625" lon="-71.04659420438110828399658203125">
        <ele>622</ele>
        <time>2026-08-21T22:04:28.000Z</time>
        <extensions>
          <ns3:TrackPointExtension>
            <ns3:hr>120</ns3:hr>
            <ns3:cad>45</ns3:cad>
          </ns3:TrackPointExtension>
        </extensions>
      </trkpt>
      <trkpt lat="45.3195937536656856536865234375" lon="-71.0466112196445465087890625">
        <ele>622.20001220703125</ele>
        <time>2026-08-21T22:04:29.000Z</time>
        <extensions>
          <ns3:TrackPointExtension>
            <ns3:hr>120</ns3:hr>
            <ns3:cad>45</ns3:cad>
          </ns3:TrackPointExtension>
        </extensions>
      </trkpt>
      <trkpt lat="45.31959258019924163818359375" lon="-71.046638377010822296142578125">
        <ele>622.20001220703125</ele>
        <time>2026-08-21T22:04:30.000Z</time>
        <extensions>
          <ns3:TrackPointExtension>
            <ns3:hr>120</ns3:hr>
            <ns3:cad>45</ns3:cad>
          </ns3:TrackPointExtension>
        </extensions>
      </trkpt>
      <trkpt lat="45.31959299929440021514892578125" lon="-71.04665120132267475128173828125">
        <ele>622.20001220703125</ele>
        <time>2026-08-21T22:04:31.000Z</time>
        <extensions>
          <ns3:TrackPointExtension>
            <ns3:hr>120</ns3:hr>
            <ns3:cad>45</ns3:cad>
          </ns3:TrackPointExtension>
        </extensions>
      </trkpt>
      <trkpt lat="45.31959434039890766143798828125" lon="-71.0466643609106540679931640625">
        <ele>622.20001220703125</ele>
        <time>2026-08-21T22:04:32.000Z</time>
        <extensions>
          <ns3:TrackPointExtension>
            <ns3:hr>119</ns3:hr>
            <ns3:cad>0</ns3:cad>
          </ns3:TrackPointExtension>
        </extensions>
      </trkpt>
      <trkpt lat="45.31959534622728824615478515625" lon="-71.04667416773736476898193359375">
        <ele>622.20001220703125</ele>
        <time>2026-08-21T22:04:33.000Z</time>
        <extensions>
          <ns3:TrackPointExtension>
            <ns3:hr>119</ns3:hr>
            <ns3:cad>0</ns3:cad>
          </ns3:TrackPointExtension>
        </extensions>
      </trkpt>
      <trkpt lat="45.3195947594940662384033203125" lon="-71.0466868244111537933349609375">
        <ele>622.20001220703125</ele>
        <time>2026-08-21T22:04:34.000Z</time>
        <extensions>
          <ns3:TrackPointExtension>
            <ns3:hr>119</ns3:hr>
            <ns3:cad>0</ns3:cad>
          </ns3:TrackPointExtension>
        </extensions>
      </trkpt>
      <trkpt lat="45.3195927478373050689697265625" lon="-71.04670434258878231048583984375">
        <ele>622.4000244140625</ele>
        <time>2026-08-21T22:04:35.000Z</time>
        <extensions>
          <ns3:TrackPointExtension>
            <ns3:hr>119</ns3:hr>
            <ns3:cad>0</ns3:cad>
          </ns3:TrackPointExtension>
        </extensions>
      </trkpt>
      <trkpt lat="45.3195904009044170379638671875" lon="-71.04671515524387359619140625">
        <ele>622.4000244140625</ele>
        <time>2026-08-21T22:04:36.000Z</time>
        <extensions>
          <ns3:TrackPointExtension>
            <ns3:hr>119</ns3:hr>
            <ns3:cad>0</ns3:cad>
          </ns3:TrackPointExtension>
        </extensions>
      </trkpt>
      <trkpt lat="45.31959081999957561492919921875" lon="-71.04672831483185291290283203125">
        <ele>622.4000244140625</ele>
        <time>2026-08-21T22:04:37.000Z</time>
        <extensions>
          <ns3:TrackPointExtension>
            <ns3:hr>119</ns3:hr>
            <ns3:cad>0</ns3:cad>
          </ns3:TrackPointExtension>
        </extensions>
      </trkpt>
      <trkpt lat="45.31959434039890766143798828125" lon="-71.04674398899078369140625">
        <ele>622.4000244140625</ele>
        <time>2026-08-21T22:04:38.000Z</time>
        <extensions>
          <ns3:TrackPointExtension>
            <ns3:hr>120</ns3:hr>
            <ns3:cad>0</ns3:cad>
          </ns3:TrackPointExtension>
        </extensions>
      </trkpt>
      <trkpt lat="45.31959434039890766143798828125" lon="-71.0467602498829364776611328125">
        <ele>622.4000244140625</ele>
        <time>2026-08-21T22:04:39.000Z</time>
        <extensions>
          <ns3:TrackPointExtension>
            <ns3:hr>121</ns3:hr>
            <ns3:cad>0</ns3:cad>
          </ns3:TrackPointExtension>
        </extensions>
      </trkpt>
      <trkpt lat="45.31959383748471736907958984375" lon="-71.04676955379545688629150390625">
        <ele>622.4000244140625</ele>
        <time>2026-08-21T22:04:40.000Z</time>
        <extensions>
          <ns3:TrackPointExtension>
            <ns3:hr>123</ns3:hr>
            <ns3:cad>0</ns3:cad>
          </ns3:TrackPointExtension>
        </extensions>
      </trkpt>
      <trkpt lat="45.31959551386535167694091796875" lon="-71.04677374474704265594482421875">
        <ele>622.20001220703125</ele>
        <time>2026-08-21T22:04:41.000Z</time>
        <extensions>
          <ns3:TrackPointExtension>
            <ns3:hr>124</ns3:hr>
            <ns3:cad>0</ns3:cad>
          </ns3:TrackPointExtension>
        </extensions>
      </trkpt>
      <trkpt lat="45.31959752552211284637451171875" lon="-71.046796627342700958251953125">
        <ele>622.20001220703125</ele>
        <time>2026-08-21T22:04:42.000Z</time>
        <extensions>
          <ns3:TrackPointExtension>
            <ns3:hr>125</ns3:hr>
            <ns3:cad>0</ns3:cad>
          </ns3:TrackPointExtension>
        </extensions>
      </trkpt>
      <trkpt lat="45.31960020773112773895263671875" lon="-71.04682554490864276885986328125">
        <ele>622.20001220703125</ele>
        <time>2026-08-21T22:04:43.000Z</time>
        <extensions>
          <ns3:TrackPointExtension>
            <ns3:hr>126</ns3:hr>
            <ns3:cad>0</ns3:cad>
          </ns3:TrackPointExtension>
        </extensions>
      </trkpt>
      <trkpt lat="45.31960121355950832366943359375" lon="-71.04684432037174701690673828125">
        <ele>622.4000244140625</ele>
        <time>2026-08-21T22:04:44.000Z</time>
        <extensions>
          <ns3:TrackPointExtension>
            <ns3:hr>126</ns3:hr>
            <ns3:cad>64</ns3:cad>
          </ns3:TrackPointExtension>
        </extensions>
      </trkpt>
      <trkpt lat="45.3195981122553348541259765625" lon="-71.04685597121715545654296875">
        <ele>622.4000244140625</ele>
        <time>2026-08-21T22:04:45.000Z</time>
        <extensions>
          <ns3:TrackPointExtension>
            <ns3:hr>126</ns3:hr>
            <ns3:cad>64</ns3:cad>
          </ns3:TrackPointExtension>
        </extensions>
      </trkpt>
      <trkpt lat="45.31959165818989276885986328125" lon="-71.04687885381281375885009765625">
        <ele>622.4000244140625</ele>
        <time>2026-08-21T22:04:46.000Z</time>
        <extensions>
          <ns3:TrackPointExtension>
            <ns3:hr>126</ns3:hr>
            <ns3:cad>64</ns3:cad>
          </ns3:TrackPointExtension>
        </extensions>
      </trkpt>
      <trkpt lat="45.319586209952831268310546875" lon="-71.0469094477593898773193359375">
        <ele>622.4000244140625</ele>
        <time>2026-08-21T22:04:47.000Z</time>
        <extensions>
          <ns3:TrackPointExtension>
            <ns3:hr>126</ns3:hr>
            <ns3:cad>64</ns3:cad>
          </ns3:TrackPointExtension>
        </extensions>
      </trkpt>
      <trkpt lat="45.319592915475368499755859375" lon="-71.0469335876405239105224609375">
        <ele>622.5999755859375</ele>
        <time>2026-08-21T22:04:48.000Z</time>
        <extensions>
          <ns3:TrackPointExtension>
            <ns3:hr>126</ns3:hr>
            <ns3:cad>64</ns3:cad>
          </ns3:TrackPointExtension>
        </extensions>
      </trkpt>
      <trkpt lat="45.31959769316017627716064453125" lon="-71.0469513572752475738525390625">
        <ele>622.79998779296875</ele>
        <time>2026-08-21T22:04:49.000Z</time>
        <extensions>
          <ns3:TrackPointExtension>
            <ns3:hr>127</ns3:hr>
            <ns3:cad>64</ns3:cad>
          </ns3:TrackPointExtension>
        </extensions>
      </trkpt>
      <trkpt lat="45.31960196793079376220703125" lon="-71.04697289876639842987060546875">
        <ele>622.5999755859375</ele>
        <time>2026-08-21T22:04:50.000Z</time>
        <extensions>
          <ns3:TrackPointExtension>
            <ns3:hr>127</ns3:hr>
            <ns3:cad>64</ns3:cad>
          </ns3:TrackPointExtension>
        </extensions>
      </trkpt>
      <trkpt lat="45.31960389576852321624755859375" lon="-71.0470050014555454254150390625">
        <ele>622.5999755859375</ele>
        <time>2026-08-21T22:04:51.000Z</time>
        <extensions>
          <ns3:TrackPointExtension>
            <ns3:hr>127</ns3:hr>
            <ns3:cad>64</ns3:cad>
          </ns3:TrackPointExtension>
        </extensions>
      </trkpt>
      <trkpt lat="45.319609008729457855224609375" lon="-71.04702897369861602783203125">
        <ele>622.5999755859375</ele>
        <time>2026-08-21T22:04:52.000Z</time>
        <extensions>
          <ns3:TrackPointExtension>
            <ns3:hr>128</ns3:hr>
            <ns3:cad>64</ns3:cad>
          </ns3:TrackPointExtension>
        </extensions>
      </trkpt>
      <trkpt lat="45.31961646862328052520751953125" lon="-71.0470482520759105682373046875">
        <ele>622.4000244140625</ele>
        <time>2026-08-21T22:04:53.000Z</time>
        <extensions>
          <ns3:TrackPointExtension>
            <ns3:hr>128</ns3:hr>
            <ns3:cad>64</ns3:cad>
          </ns3:TrackPointExtension>
        </extensions>
      </trkpt>
      <trkpt lat="45.3196267783641815185546875" lon="-71.0470650158822536468505859375">
        <ele>622.4000244140625</ele>
        <time>2026-08-21T22:04:54.000Z</time>
        <extensions>
          <ns3:TrackPointExtension>
            <ns3:hr>129</ns3:hr>
            <ns3:cad>64</ns3:cad>
          </ns3:TrackPointExtension>
        </extensions>
      </trkpt>
      <trkpt lat="45.3196333162486553192138671875" lon="-71.04708488099277019500732421875">
        <ele>622.4000244140625</ele>
        <time>2026-08-21T22:04:55.000Z</time>
        <extensions>
          <ns3:TrackPointExtension>
            <ns3:hr>129</ns3:hr>
            <ns3:cad>64</ns3:cad>
          </ns3:TrackPointExtension>
        </extensions>
      </trkpt>
      <trkpt lat="45.31964077614247798919677734375" lon="-71.04710541665554046630859375">
        <ele>622.5999755859375</ele>
        <time>2026-08-21T22:04:56.000Z</time>
        <extensions>
          <ns3:TrackPointExtension>
            <ns3:hr>130</ns3:hr>
            <ns3:cad>0</ns3:cad>
          </ns3:TrackPointExtension>
        </extensions>
      </trkpt>
      <trkpt lat="45.31965167261660099029541015625" lon="-71.0471240244805812835693359375">
        <ele>622.4000244140625</ele>
        <time>2026-08-21T22:04:57.000Z</time>
        <extensions>
          <ns3:TrackPointExtension>
            <ns3:hr>131</ns3:hr>
            <ns3:cad>0</ns3:cad>
          </ns3:TrackPointExtension>
        </extensions>
      </trkpt>
      <trkpt lat="45.3196624852716922760009765625" lon="-71.047135256230831146240234375">
        <ele>622.4000244140625</ele>
        <time>2026-08-21T22:04:58.000Z</time>
        <extensions>
          <ns3:TrackPointExtension>
            <ns3:hr>132</ns3:hr>
            <ns3:cad>0</ns3:cad>
          </ns3:TrackPointExtension>
        </extensions>
      </trkpt>
      <trkpt lat="45.3196718730032444000244140625" lon="-71.04715369641780853271484375">
        <ele>622.20001220703125</ele>
        <time>2026-08-21T22:04:59.000Z</time>
        <extensions>
          <ns3:TrackPointExtension>
            <ns3:hr>132</ns3:hr>
            <ns3:cad>0</ns3:cad>
          </ns3:TrackPointExtension>
        </extensions>
      </trkpt>
      <trkpt lat="45.31967899762094020843505859375" lon="-71.04717071168124675750732421875">
        <ele>622</ele>
        <time>2026-08-21T22:05:00.000Z</time>
        <extensions>
          <ns3:TrackPointExtension>
            <ns3:hr>132</ns3:hr>
            <ns3:cad>0</ns3:cad>
          </ns3:TrackPointExtension>
        </extensions>
      </trkpt>
      <trkpt lat="45.31968503259122371673583984375" lon="-71.04718395508825778961181640625">
        <ele>621.79998779296875</ele>
        <time>2026-08-21T22:05:01.000Z</time>
        <extensions>
          <ns3:TrackPointExtension>
            <ns3:hr>133</ns3:hr>
            <ns3:cad>0</ns3:cad>
          </ns3:TrackPointExtension>
        </extensions>
      </trkpt>
      <trkpt lat="45.31969542615115642547607421875" lon="-71.0471961088478565216064453125">
        <ele>621.79998779296875</ele>
        <time>2026-08-21T22:05:02.000Z</time>
        <extensions>
          <ns3:TrackPointExtension>
            <ns3:hr>133</ns3:hr>
            <ns3:cad>0</ns3:cad>
          </ns3:TrackPointExtension>
        </extensions>
      </trkpt>
      <trkpt lat="45.31969727016985416412353515625" lon="-71.0472158901393413543701171875">
        <ele>621.79998779296875</ele>
        <time>2026-08-21T22:05:03.000Z</time>
        <extensions>
          <ns3:TrackPointExtension>
            <ns3:hr>133</ns3:hr>
            <ns3:cad>0</ns3:cad>
          </ns3:TrackPointExtension>
        </extensions>
      </trkpt>
      <trkpt lat="45.319700874388217926025390625" lon="-71.0472370125353336334228515625">
        <ele>621.79998779296875</ele>
        <time>2026-08-21T22:05:04.000Z</time>
        <extensions>
          <ns3:TrackPointExtension>
            <ns3:hr>133</ns3:hr>
            <ns3:cad>0</ns3:cad>
          </ns3:TrackPointExtension>
        </extensions>
      </trkpt>
      <trkpt lat="45.31970431096851825714111328125" lon="-71.0472480766475200653076171875">
        <ele>621.79998779296875</ele>
        <time>2026-08-21T22:05:05.000Z</time>
        <extensions>
          <ns3:TrackPointExtension>
            <ns3:hr>133</ns3:hr>
            <ns3:cad>0</ns3:cad>
          </ns3:TrackPointExtension>
        </extensions>
      </trkpt>
      <trkpt lat="45.31970481388270854949951171875" lon="-71.047254614531993865966796875">
        <ele>621.79998779296875</ele>
        <time>2026-08-21T22:05:06.000Z</time>
        <extensions>
          <ns3:TrackPointExtension>
            <ns3:hr>132</ns3:hr>
            <ns3:cad>0</ns3:cad>
          </ns3:TrackPointExtension>
        </extensions>
      </trkpt>
      <trkpt lat="45.31969928182661533355712890625" lon="-71.0472608171403408050537109375">
        <ele>622</ele>
        <time>2026-08-21T22:05:07.000Z</time>
        <extensions>
          <ns3:TrackPointExtension>
            <ns3:hr>132</ns3:hr>
            <ns3:cad>0</ns3:cad>
          </ns3:TrackPointExtension>
        </extensions>
      </trkpt>
      <trkpt lat="45.3196933306753635406494140625" lon="-71.047274060547351837158203125">
        <ele>622.20001220703125</ele>
        <time>2026-08-21T22:05:08.000Z</time>
        <extensions>
          <ns3:TrackPointExtension>
            <ns3:hr>132</ns3:hr>
            <ns3:cad>0</ns3:cad>
          </ns3:TrackPointExtension>
        </extensions>
      </trkpt>
      <trkpt lat="45.31968805007636547088623046875" lon="-71.04728789068758487701416015625">
        <ele>622.4000244140625</ele>
        <time>2026-08-21T22:05:09.000Z</time>
        <extensions>
          <ns3:TrackPointExtension>
            <ns3:hr>132</ns3:hr>
            <ns3:cad>0</ns3:cad>
          </ns3:TrackPointExtension>
        </extensions>
      </trkpt>
      <trkpt lat="45.31968603841960430145263671875" lon="-71.04730121791362762451171875">
        <ele>622.5999755859375</ele>
        <time>2026-08-21T22:05:10.000Z</time>
        <extensions>
          <ns3:TrackPointExtension>
            <ns3:hr>131</ns3:hr>
            <ns3:cad>0</ns3:cad>
          </ns3:TrackPointExtension>
        </extensions>
      </trkpt>
      <trkpt lat="45.31968268565833568572998046875" lon="-71.04731957428157329559326171875">
        <ele>622.79998779296875</ele>
        <time>2026-08-21T22:05:11.000Z</time>
        <extensions>
          <ns3:TrackPointExtension>
            <ns3:hr>130</ns3:hr>
            <ns3:cad>0</ns3:cad>
          </ns3:TrackPointExtension>
        </extensions>
      </trkpt>
      <trkpt lat="45.31968084163963794708251953125" lon="-71.047332398593425750732421875">
        <ele>623</ele>
        <time>2026-08-21T22:05:12.000Z</time>
        <extensions>
          <ns3:TrackPointExtension>
            <ns3:hr>130</ns3:hr>
            <ns3:cad>0</ns3:cad>
          </ns3:TrackPointExtension>
        </extensions>
      </trkpt>
      <trkpt lat="45.31967975199222564697265625" lon="-71.04734974913299083709716796875">
        <ele>623.4000244140625</ele>
        <time>2026-08-21T22:05:13.000Z</time>
        <extensions>
          <ns3:TrackPointExtension>
            <ns3:hr>130</ns3:hr>
            <ns3:cad>0</ns3:cad>
          </ns3:TrackPointExtension>
        </extensions>
      </trkpt>
      <trkpt lat="45.319682769477367401123046875" lon="-71.0473664291203022003173828125">
        <ele>623.5999755859375</ele>
        <time>2026-08-21T22:05:14.000Z</time>
        <extensions>
          <ns3:TrackPointExtension>
            <ns3:hr>131</ns3:hr>
            <ns3:cad>0</ns3:cad>
          </ns3:TrackPointExtension>
        </extensions>
      </trkpt>
      <trkpt lat="45.3196884691715240478515625" lon="-71.047386713325977325439453125">
        <ele>623.79998779296875</ele>
        <time>2026-08-21T22:05:15.000Z</time>
        <extensions>
          <ns3:TrackPointExtension>
            <ns3:hr>131</ns3:hr>
            <ns3:cad>0</ns3:cad>
          </ns3:TrackPointExtension>
        </extensions>
      </trkpt>
      <trkpt lat="45.31969224102795124053955078125" lon="-71.0474043153226375579833984375">
        <ele>623.79998779296875</ele>
        <time>2026-08-21T22:05:16.000Z</time>
        <extensions>
          <ns3:TrackPointExtension>
            <ns3:hr>131</ns3:hr>
            <ns3:cad>0</ns3:cad>
          </ns3:TrackPointExtension>
        </extensions>
      </trkpt>
      <trkpt lat="45.31969777308404445648193359375" lon="-71.04741345159709453582763671875">
        <ele>623.79998779296875</ele>
        <time>2026-08-21T22:05:17.000Z</time>
        <extensions>
          <ns3:TrackPointExtension>
            <ns3:hr>131</ns3:hr>
            <ns3:cad>0</ns3:cad>
          </ns3:TrackPointExtension>
        </extensions>
      </trkpt>
      <trkpt lat="45.31970657408237457275390625" lon="-71.047428958117961883544921875">
        <ele>623.79998779296875</ele>
        <time>2026-08-21T22:05:18.000Z</time>
        <extensions>
          <ns3:TrackPointExtension>
            <ns3:hr>131</ns3:hr>
            <ns3:cad>0</ns3:cad>
          </ns3:TrackPointExtension>
        </extensions>
      </trkpt>
      <trkpt lat="45.319714285433292388916015625" lon="-71.04744999669492244720458984375">
        <ele>623.79998779296875</ele>
        <time>2026-08-21T22:05:19.000Z</time>
        <extensions>
          <ns3:TrackPointExtension>
            <ns3:hr>130</ns3:hr>
            <ns3:cad>0</ns3:cad>
          </ns3:TrackPointExtension>
        </extensions>
      </trkpt>
      <trkpt lat="45.3197184763848781585693359375" lon="-71.047471202909946441650390625">
        <ele>623.79998779296875</ele>
        <time>2026-08-21T22:05:20.000Z</time>
        <extensions>
          <ns3:TrackPointExtension>
            <ns3:hr>132</ns3:hr>
            <ns3:cad>0</ns3:cad>
          </ns3:TrackPointExtension>
        </extensions>
      </trkpt>
      <trkpt lat="45.3197241760790348052978515625" lon="-71.04749324731528759002685546875">
        <ele>623.5999755859375</ele>
        <time>2026-08-21T22:05:21.000Z</time>
        <extensions>
          <ns3:TrackPointExtension>
            <ns3:hr>132</ns3:hr>
            <ns3:cad>0</ns3:cad>
          </ns3:TrackPointExtension>
        </extensions>
      </trkpt>
      <trkpt lat="45.3197312168776988983154296875" lon="-71.04751839302480220794677734375">
        <ele>623.5999755859375</ele>
        <time>2026-08-21T22:05:22.000Z</time>
        <extensions>
          <ns3:TrackPointExtension>
            <ns3:hr>133</ns3:hr>
            <ns3:cad>0</ns3:cad>
          </ns3:TrackPointExtension>
        </extensions>
      </trkpt>
      <trkpt lat="45.31974135898053646087646484375" lon="-71.047529540956020355224609375">
        <ele>623.4000244140625</ele>
        <time>2026-08-21T22:05:23.000Z</time>
        <extensions>
          <ns3:TrackPointExtension>
            <ns3:hr>134</ns3:hr>
            <ns3:cad>0</ns3:cad>
          </ns3:TrackPointExtension>
        </extensions>
      </trkpt>
      <trkpt lat="45.3197520039975643157958984375" lon="-71.0475441254675388336181640625">
        <ele>623.4000244140625</ele>
        <time>2026-08-21T22:05:24.000Z</time>
        <extensions>
          <ns3:TrackPointExtension>
            <ns3:hr>134</ns3:hr>
            <ns3:cad>0</ns3:cad>
          </ns3:TrackPointExtension>
        </extensions>
      </trkpt>
      <trkpt lat="45.3197687678039073944091796875" lon="-71.0475682653486728668212890625">
        <ele>623.20001220703125</ele>
        <time>2026-08-21T22:05:25.000Z</time>
        <extensions>
          <ns3:TrackPointExtension>
            <ns3:hr>134</ns3:hr>
            <ns3:cad>0</ns3:cad>
          </ns3:TrackPointExtension>
        </extensions>
      </trkpt>
      <trkpt lat="45.31977991573512554168701171875" lon="-71.0475875437259674072265625">
        <ele>623.20001220703125</ele>
        <time>2026-08-21T22:05:26.000Z</time>
        <extensions>
          <ns3:TrackPointExtension>
            <ns3:hr>133</ns3:hr>
            <ns3:cad>0</ns3:cad>
          </ns3:TrackPointExtension>
        </extensions>
      </trkpt>
      <trkpt lat="45.31978712417185306549072265625" lon="-71.0476115159690380096435546875">
        <ele>623.20001220703125</ele>
        <time>2026-08-21T22:05:27.000Z</time>
        <extensions>
          <ns3:TrackPointExtension>
            <ns3:hr>132</ns3:hr>
            <ns3:cad>0</ns3:cad>
          </ns3:TrackPointExtension>
        </extensions>
      </trkpt>
      <trkpt lat="45.3197957575321197509765625" lon="-71.047627441585063934326171875">
        <ele>623.20001220703125</ele>
        <time>2026-08-21T22:05:28.000Z</time>
        <extensions>
          <ns3:TrackPointExtension>
            <ns3:hr>131</ns3:hr>
            <ns3:cad>0</ns3:cad>
          </ns3:TrackPointExtension>
        </extensions>
      </trkpt>
      <trkpt lat="45.31980623491108417510986328125" lon="-71.0476390086114406585693359375">
        <ele>623.20001220703125</ele>
        <time>2026-08-21T22:05:29.000Z</time>
        <extensions>
          <ns3:TrackPointExtension>
            <ns3:hr>131</ns3:hr>
            <ns3:cad>0</ns3:cad>
          </ns3:TrackPointExtension>
        </extensions>
      </trkpt>
      <trkpt lat="45.31981964595615863800048828125" lon="-71.0476537607610225677490234375">
        <ele>623.20001220703125</ele>
        <time>2026-08-21T22:05:30.000Z</time>
        <extensions>
          <ns3:TrackPointExtension>
            <ns3:hr>131</ns3:hr>
            <ns3:cad>64</ns3:cad>
          </ns3:TrackPointExtension>
        </extensions>
      </trkpt>
      <trkpt lat="45.31983263790607452392578125" lon="-71.04766926728188991546630859375">
        <ele>623</ele>
        <time>2026-08-21T22:05:31.000Z</time>
        <extensions>
          <ns3:TrackPointExtension>
            <ns3:hr>131</ns3:hr>
            <ns3:cad>64</ns3:cad>
          </ns3:TrackPointExtension>
        </extensions>
      </trkpt>
      <trkpt lat="45.31985015608370304107666015625" lon="-71.04768703691661357879638671875">
        <ele>623</ele>
        <time>2026-08-21T22:05:32.000Z</time>
        <extensions>
          <ns3:TrackPointExtension>
            <ns3:hr>132</ns3:hr>
            <ns3:cad>64</ns3:cad>
          </ns3:TrackPointExtension>
        </extensions>
      </trkpt>
      <trkpt lat="45.31986239366233348846435546875" lon="-71.04769692756235599517822265625">
        <ele>622.79998779296875</ele>
        <time>2026-08-21T22:05:33.000Z</time>
        <extensions>
          <ns3:TrackPointExtension>
            <ns3:hr>132</ns3:hr>
            <ns3:cad>58</ns3:cad>
          </ns3:TrackPointExtension>
        </extensions>
      </trkpt>
      <trkpt lat="45.319872200489044189453125" lon="-71.04770950041711330413818359375">
        <ele>622.5999755859375</ele>
        <time>2026-08-21T22:05:34.000Z</time>
        <extensions>
          <ns3:TrackPointExtension>
            <ns3:hr>132</ns3:hr>
            <ns3:cad>58</ns3:cad>
          </ns3:TrackPointExtension>
        </extensions>
      </trkpt>
      <trkpt lat="45.3198802471160888671875" lon="-71.04771821759641170501708984375">
        <ele>622.5999755859375</ele>
        <time>2026-08-21T22:05:35.000Z</time>
        <extensions>
          <ns3:TrackPointExtension>
            <ns3:hr>132</ns3:hr>
            <ns3:cad>0</ns3:cad>
          </ns3:TrackPointExtension>
        </extensions>
      </trkpt>
      <trkpt lat="45.3198898024857044219970703125" lon="-71.04774110019207000732421875">
        <ele>622.4000244140625</ele>
        <time>2026-08-21T22:05:36.000Z</time>
        <extensions>
          <ns3:TrackPointExtension>
            <ns3:hr>132</ns3:hr>
            <ns3:cad>0</ns3:cad>
          </ns3:TrackPointExtension>
        </extensions>
      </trkpt>
      <trkpt lat="45.31990363262593746185302734375" lon="-71.04776524007320404052734375">
        <ele>622.4000244140625</ele>
        <time>2026-08-21T22:05:37.000Z</time>
        <extensions>
          <ns3:TrackPointExtension>
            <ns3:hr>132</ns3:hr>
            <ns3:cad>0</ns3:cad>
          </ns3:TrackPointExtension>
        </extensions>
      </trkpt>
      <trkpt lat="45.31991117633879184722900390625" lon="-71.047779656946659088134765625">
        <ele>622.4000244140625</ele>
        <time>2026-08-21T22:05:38.000Z</time>
        <extensions>
          <ns3:TrackPointExtension>
            <ns3:hr>132</ns3:hr>
            <ns3:cad>0</ns3:cad>
          </ns3:TrackPointExtension>
        </extensions>
      </trkpt>
      <trkpt lat="45.31991872005164623260498046875" lon="-71.04779583401978015899658203125">
        <ele>622.4000244140625</ele>
        <time>2026-08-21T22:05:39.000Z</time>
        <extensions>
          <ns3:TrackPointExtension>
            <ns3:hr>132</ns3:hr>
            <ns3:cad>0</ns3:cad>
          </ns3:TrackPointExtension>
        </extensions>
      </trkpt>
      <trkpt lat="45.31993179582059383392333984375" lon="-71.04780924506485462188720703125">
        <ele>622.5999755859375</ele>
        <time>2026-08-21T22:05:40.000Z</time>
        <extensions>
          <ns3:TrackPointExtension>
            <ns3:hr>131</ns3:hr>
            <ns3:cad>0</ns3:cad>
          </ns3:TrackPointExtension>
        </extensions>
      </trkpt>
      <trkpt lat="45.31994855962693691253662109375" lon="-71.04782986454665660858154296875">
        <ele>622.79998779296875</ele>
        <time>2026-08-21T22:05:41.000Z</time>
        <extensions>
          <ns3:TrackPointExtension>
            <ns3:hr>131</ns3:hr>
            <ns3:cad>0</ns3:cad>
          </ns3:TrackPointExtension>
        </extensions>
      </trkpt>
      <trkpt lat="45.31996406614780426025390625" lon="-71.0478492267429828643798828125">
        <ele>622.79998779296875</ele>
        <time>2026-08-21T22:05:42.000Z</time>
        <extensions>
          <ns3:TrackPointExtension>
            <ns3:hr>131</ns3:hr>
            <ns3:cad>0</ns3:cad>
          </ns3:TrackPointExtension>
        </extensions>
      </trkpt>
      <trkpt lat="45.3199789859354496002197265625" lon="-71.04786154814064502716064453125">
        <ele>622.79998779296875</ele>
        <time>2026-08-21T22:05:43.000Z</time>
        <extensions>
          <ns3:TrackPointExtension>
            <ns3:hr>131</ns3:hr>
            <ns3:cad>0</ns3:cad>
          </ns3:TrackPointExtension>
        </extensions>
      </trkpt>
      <trkpt lat="45.31998996622860431671142578125" lon="-71.047874875366687774658203125">
        <ele>622.79998779296875</ele>
        <time>2026-08-21T22:05:44.000Z</time>
        <extensions>
          <ns3:TrackPointExtension>
            <ns3:hr>131</ns3:hr>
            <ns3:cad>0</ns3:cad>
          </ns3:TrackPointExtension>
        </extensions>
      </trkpt>
      <trkpt lat="45.3199977613985538482666015625" lon="-71.0478844307363033294677734375">
        <ele>622.5999755859375</ele>
        <time>2026-08-21T22:05:45.000Z</time>
        <extensions>
          <ns3:TrackPointExtension>
            <ns3:hr>131</ns3:hr>
            <ns3:cad>0</ns3:cad>
          </ns3:TrackPointExtension>
        </extensions>
      </trkpt>
      <trkpt lat="45.32001234591007232666015625" lon="-71.0478887893259525299072265625">
        <ele>622.5999755859375</ele>
        <time>2026-08-21T22:05:46.000Z</time>
        <extensions>
          <ns3:TrackPointExtension>
            <ns3:hr>131</ns3:hr>
            <ns3:cad>0</ns3:cad>
          </ns3:TrackPointExtension>
        </extensions>
      </trkpt>
      <trkpt lat="45.3200239129364490509033203125" lon="-71.04789474047720432281494140625">
        <ele>622.4000244140625</ele>
        <time>2026-08-21T22:05:47.000Z</time>
        <extensions>
          <ns3:TrackPointExtension>
            <ns3:hr>131</ns3:hr>
            <ns3:cad>0</ns3:cad>
          </ns3:TrackPointExtension>
        </extensions>
      </trkpt>
      <trkpt lat="45.32003757543861865997314453125" lon="-71.047901697456836700439453125">
        <ele>622.4000244140625</ele>
        <time>2026-08-21T22:05:48.000Z</time>
        <extensions>
          <ns3:TrackPointExtension>
            <ns3:hr>131</ns3:hr>
            <ns3:cad>0</ns3:cad>
          </ns3:TrackPointExtension>
        </extensions>
      </trkpt>
      <trkpt lat="45.3200534172356128692626953125" lon="-71.04791150428354740142822265625">
        <ele>622.20001220703125</ele>
        <time>2026-08-21T22:05:49.000Z</time>
        <extensions>
          <ns3:TrackPointExtension>
            <ns3:hr>131</ns3:hr>
            <ns3:cad>0</ns3:cad>
          </ns3:TrackPointExtension>
        </extensions>
      </trkpt>
      <trkpt lat="45.320066325366497039794921875" lon="-71.04791837744414806365966796875">
        <ele>622</ele>
        <time>2026-08-21T22:05:50.000Z</time>
        <extensions>
          <ns3:TrackPointExtension>
            <ns3:hr>131</ns3:hr>
            <ns3:cad>0</ns3:cad>
          </ns3:TrackPointExtension>
        </extensions>
      </trkpt>
      <trkpt lat="45.32008099369704723358154296875" lon="-71.0479333810508251190185546875">
        <ele>622</ele>
        <time>2026-08-21T22:05:51.000Z</time>
        <extensions>
          <ns3:TrackPointExtension>
            <ns3:hr>131</ns3:hr>
            <ns3:cad>0</ns3:cad>
          </ns3:TrackPointExtension>
        </extensions>
      </trkpt>
      <trkpt lat="45.32010144554078578948974609375" lon="-71.04795039631426334381103515625">
        <ele>621.79998779296875</ele>
        <time>2026-08-21T22:05:52.000Z</time>
        <extensions>
          <ns3:TrackPointExtension>
            <ns3:hr>131</ns3:hr>
            <ns3:cad>0</ns3:cad>
          </ns3:TrackPointExtension>
        </extensions>
      </trkpt>
      <trkpt lat="45.32012097537517547607421875" lon="-71.04795425198972225189208984375">
        <ele>621.5999755859375</ele>
        <time>2026-08-21T22:05:53.000Z</time>
        <extensions>
          <ns3:TrackPointExtension>
            <ns3:hr>131</ns3:hr>
            <ns3:cad>0</ns3:cad>
          </ns3:TrackPointExtension>
        </extensions>
      </trkpt>
      <trkpt lat="45.32013463787734508514404296875" lon="-71.047962047159671783447265625">
        <ele>621.4000244140625</ele>
        <time>2026-08-21T22:05:54.000Z</time>
        <extensions>
          <ns3:TrackPointExtension>
            <ns3:hr>131</ns3:hr>
            <ns3:cad>0</ns3:cad>
          </ns3:TrackPointExtension>
        </extensions>
      </trkpt>
      <trkpt lat="45.32014167867600917816162109375" lon="-71.04797436855733394622802734375">
        <ele>621.20001220703125</ele>
        <time>2026-08-21T22:05:55.000Z</time>
        <extensions>
          <ns3:TrackPointExtension>
            <ns3:hr>131</ns3:hr>
            <ns3:cad>67</ns3:cad>
          </ns3:TrackPointExtension>
        </extensions>
      </trkpt>
      <trkpt lat="45.32015073113143444061279296875" lon="-71.0479737818241119384765625">
        <ele>621</ele>
        <time>2026-08-21T22:05:56.000Z</time>
        <extensions>
          <ns3:TrackPointExtension>
            <ns3:hr>131</ns3:hr>
            <ns3:cad>67</ns3:cad>
          </ns3:TrackPointExtension>
        </extensions>
      </trkpt>
      <trkpt lat="45.32015777193009853363037109375" lon="-71.047976799309253692626953125">
        <ele>620.79998779296875</ele>
        <time>2026-08-21T22:05:57.000Z</time>
        <extensions>
          <ns3:TrackPointExtension>
            <ns3:hr>131</ns3:hr>
            <ns3:cad>0</ns3:cad>
          </ns3:TrackPointExtension>
        </extensions>
      </trkpt>
      <trkpt lat="45.32017839141190052032470703125" lon="-71.0479813255369663238525390625">
        <ele>620.5999755859375</ele>
        <time>2026-08-21T22:05:58.000Z</time>
        <extensions>
          <ns3:TrackPointExtension>
            <ns3:hr>131</ns3:hr>
            <ns3:cad>0</ns3:cad>
          </ns3:TrackPointExtension>
        </extensions>
      </trkpt>
      <trkpt lat="45.320197083055973052978515625" lon="-71.0479920543730258941650390625">
        <ele>620.4000244140625</ele>
        <time>2026-08-21T22:05:59.000Z</time>
        <extensions>
          <ns3:TrackPointExtension>
            <ns3:hr>130</ns3:hr>
            <ns3:cad>0</ns3:cad>
          </ns3:TrackPointExtension>
        </extensions>
      </trkpt>
      <trkpt lat="45.32021577470004558563232421875" lon="-71.04800035245716571807861328125">
        <ele>620.20001220703125</ele>
        <time>2026-08-21T22:06:00.000Z</time>
        <extensions>
          <ns3:TrackPointExtension>
            <ns3:hr>130</ns3:hr>
            <ns3:cad>64</ns3:cad>
          </ns3:TrackPointExtension>
        </extensions>
      </trkpt>
      <trkpt lat="45.32022893428802490234375" lon="-71.04799834080040454864501953125">
        <ele>620.20001220703125</ele>
        <time>2026-08-21T22:06:01.000Z</time>
        <extensions>
          <ns3:TrackPointExtension>
            <ns3:hr>130</ns3:hr>
            <ns3:cad>64</ns3:cad>
          </ns3:TrackPointExtension>
        </extensions>
      </trkpt>
      <trkpt lat="45.32024041749536991119384765625" lon="-71.0479843430221080780029296875">
        <ele>620</ele>
        <time>2026-08-21T22:06:02.000Z</time>
        <extensions>
          <ns3:TrackPointExtension>
            <ns3:hr>131</ns3:hr>
            <ns3:cad>64</ns3:cad>
          </ns3:TrackPointExtension>
        </extensions>
      </trkpt>
      <trkpt lat="45.3202549181878566741943359375" lon="-71.04797587729990482330322265625">
        <ele>620</ele>
        <time>2026-08-21T22:06:03.000Z</time>
        <extensions>
          <ns3:TrackPointExtension>
            <ns3:hr>131</ns3:hr>
            <ns3:cad>64</ns3:cad>
          </ns3:TrackPointExtension>
        </extensions>
      </trkpt>
      <trkpt lat="45.32027109526097774505615234375" lon="-71.04796917177736759185791015625">
        <ele>619.79998779296875</ele>
        <time>2026-08-21T22:06:04.000Z</time>
        <extensions>
          <ns3:TrackPointExtension>
            <ns3:hr>131</ns3:hr>
            <ns3:cad>73</ns3:cad>
          </ns3:TrackPointExtension>
        </extensions>
      </trkpt>
      <trkpt lat="45.32028551213443279266357421875" lon="-71.047962047159671783447265625">
        <ele>619.79998779296875</ele>
        <time>2026-08-21T22:06:05.000Z</time>
        <extensions>
          <ns3:TrackPointExtension>
            <ns3:hr>132</ns3:hr>
            <ns3:cad>73</ns3:cad>
          </ns3:TrackPointExtension>
        </extensions>
      </trkpt>
      <trkpt lat="45.3202985040843486785888671875" lon="-71.04795207269489765167236328125">
        <ele>619.5999755859375</ele>
        <time>2026-08-21T22:06:06.000Z</time>
        <extensions>
          <ns3:TrackPointExtension>
            <ns3:hr>132</ns3:hr>
            <ns3:cad>73</ns3:cad>
          </ns3:TrackPointExtension>
        </extensions>
      </trkpt>
      <trkpt lat="45.3203162737190723419189453125" lon="-71.04794561862945556640625">
        <ele>619.20001220703125</ele>
        <time>2026-08-21T22:06:07.000Z</time>
        <extensions>
          <ns3:TrackPointExtension>
            <ns3:hr>132</ns3:hr>
            <ns3:cad>73</ns3:cad>
          </ns3:TrackPointExtension>
        </extensions>
      </trkpt>
      <trkpt lat="45.32033630646765232086181640625" lon="-71.04793715290725231170654296875">
        <ele>619</ele>
        <time>2026-08-21T22:06:08.000Z</time>
        <extensions>
          <ns3:TrackPointExtension>
            <ns3:hr>131</ns3:hr>
            <ns3:cad>73</ns3:cad>
          </ns3:TrackPointExtension>
        </extensions>
      </trkpt>
      <trkpt lat="45.3203541599214076995849609375" lon="-71.0479176230728626251220703125">
        <ele>618.5999755859375</ele>
        <time>2026-08-21T22:06:09.000Z</time>
        <extensions>
          <ns3:TrackPointExtension>
            <ns3:hr>129</ns3:hr>
            <ns3:cad>73</ns3:cad>
          </ns3:TrackPointExtension>
        </extensions>
      </trkpt>
      <trkpt lat="45.3203697502613067626953125" lon="-71.047904379665851593017578125">
        <ele>618.4000244140625</ele>
        <time>2026-08-21T22:06:10.000Z</time>
        <extensions>
          <ns3:TrackPointExtension>
            <ns3:hr>128</ns3:hr>
            <ns3:cad>73</ns3:cad>
          </ns3:TrackPointExtension>
        </extensions>
      </trkpt>
      <trkpt lat="45.32038383185863494873046875" lon="-71.04789423756301403045654296875">
        <ele>618</ele>
        <time>2026-08-21T22:06:11.000Z</time>
        <extensions>
          <ns3:TrackPointExtension>
            <ns3:hr>128</ns3:hr>
            <ns3:cad>72</ns3:cad>
          </ns3:TrackPointExtension>
        </extensions>
      </trkpt>
      <trkpt lat="45.32039715908467769622802734375" lon="-71.047890298068523406982421875">
        <ele>617.79998779296875</ele>
        <time>2026-08-21T22:06:12.000Z</time>
        <extensions>
          <ns3:TrackPointExtension>
            <ns3:hr>129</ns3:hr>
            <ns3:cad>72</ns3:cad>
          </ns3:TrackPointExtension>
        </extensions>
      </trkpt>
      <trkpt lat="45.3204099833965301513671875" lon="-71.04788870550692081451416015625">
        <ele>617.5999755859375</ele>
        <time>2026-08-21T22:06:13.000Z</time>
        <extensions>
          <ns3:TrackPointExtension>
            <ns3:hr>129</ns3:hr>
            <ns3:cad>72</ns3:cad>
          </ns3:TrackPointExtension>
        </extensions>
      </trkpt>
      <trkpt lat="45.32042448408901691436767578125" lon="-71.04788719676434993743896484375">
        <ele>617.4000244140625</ele>
        <time>2026-08-21T22:06:14.000Z</time>
        <extensions>
          <ns3:TrackPointExtension>
            <ns3:hr>129</ns3:hr>
            <ns3:cad>72</ns3:cad>
          </ns3:TrackPointExtension>
        </extensions>
      </trkpt>
      <trkpt lat="45.3204399906098842620849609375" lon="-71.04788501746952533721923828125">
        <ele>617.4000244140625</ele>
        <time>2026-08-21T22:06:15.000Z</time>
        <extensions>
          <ns3:TrackPointExtension>
            <ns3:hr>128</ns3:hr>
            <ns3:cad>72</ns3:cad>
          </ns3:TrackPointExtension>
        </extensions>
      </trkpt>
      <trkpt lat="45.3204557485878467559814453125" lon="-71.0478931479156017303466796875">
        <ele>617.4000244140625</ele>
        <time>2026-08-21T22:06:16.000Z</time>
        <extensions>
          <ns3:TrackPointExtension>
            <ns3:hr>128</ns3:hr>
            <ns3:cad>73</ns3:cad>
          </ns3:TrackPointExtension>
        </extensions>
      </trkpt>
      <trkpt lat="45.32047041691839694976806640625" lon="-71.04790496639907360076904296875">
        <ele>617.5999755859375</ele>
        <time>2026-08-21T22:06:17.000Z</time>
        <extensions>
          <ns3:TrackPointExtension>
            <ns3:hr>128</ns3:hr>
            <ns3:cad>73</ns3:cad>
          </ns3:TrackPointExtension>
        </extensions>
      </trkpt>
      <trkpt lat="45.32048081047832965850830078125" lon="-71.047911755740642547607421875">
        <ele>617.5999755859375</ele>
        <time>2026-08-21T22:06:18.000Z</time>
        <extensions>
          <ns3:TrackPointExtension>
            <ns3:hr>128</ns3:hr>
            <ns3:cad>73</ns3:cad>
          </ns3:TrackPointExtension>
        </extensions>
      </trkpt>
      <trkpt lat="45.320494808256626129150390625" lon="-71.04792206548154354095458984375">
        <ele>617.5999755859375</ele>
        <time>2026-08-21T22:06:19.000Z</time>
        <extensions>
          <ns3:TrackPointExtension>
            <ns3:hr>128</ns3:hr>
            <ns3:cad>73</ns3:cad>
          </ns3:TrackPointExtension>
        </extensions>
      </trkpt>
      <trkpt lat="45.32050863839685916900634765625" lon="-71.04793715290725231170654296875">
        <ele>617.79998779296875</ele>
        <time>2026-08-21T22:06:20.000Z</time>
        <extensions>
          <ns3:TrackPointExtension>
            <ns3:hr>127</ns3:hr>
            <ns3:cad>73</ns3:cad>
          </ns3:TrackPointExtension>
        </extensions>
      </trkpt>
      <trkpt lat="45.32052171416580677032470703125" lon="-71.04795567691326141357421875">
        <ele>618</ele>
        <time>2026-08-21T22:06:21.000Z</time>
        <extensions>
          <ns3:TrackPointExtension>
            <ns3:hr>127</ns3:hr>
            <ns3:cad>73</ns3:cad>
          </ns3:TrackPointExtension>
        </extensions>
      </trkpt>
      <trkpt lat="45.32053671777248382568359375" lon="-71.04796531610190868377685546875">
        <ele>618</ele>
        <time>2026-08-21T22:06:22.000Z</time>
        <extensions>
          <ns3:TrackPointExtension>
            <ns3:hr>127</ns3:hr>
            <ns3:cad>73</ns3:cad>
          </ns3:TrackPointExtension>
        </extensions>
      </trkpt>
      <trkpt lat="45.32055088318884372711181640625" lon="-71.04797101579606533050537109375">
        <ele>618</ele>
        <time>2026-08-21T22:06:23.000Z</time>
        <extensions>
          <ns3:TrackPointExtension>
            <ns3:hr>127</ns3:hr>
            <ns3:cad>68</ns3:cad>
          </ns3:TrackPointExtension>
        </extensions>
      </trkpt>
      <trkpt lat="45.3205628693103790283203125" lon="-71.047975458204746246337890625">
        <ele>618.20001220703125</ele>
        <time>2026-08-21T22:06:24.000Z</time>
        <extensions>
          <ns3:TrackPointExtension>
            <ns3:hr>127</ns3:hr>
            <ns3:cad>68</ns3:cad>
          </ns3:TrackPointExtension>
        </extensions>
      </trkpt>
      <trkpt lat="45.320571251213550567626953125" lon="-71.04798023588955402374267578125">
        <ele>618.20001220703125</ele>
        <time>2026-08-21T22:06:25.000Z</time>
        <extensions>
          <ns3:TrackPointExtension>
            <ns3:hr>127</ns3:hr>
            <ns3:cad>68</ns3:cad>
          </ns3:TrackPointExtension>
        </extensions>
      </trkpt>
      <trkpt lat="45.32058097422122955322265625" lon="-71.04799482040107250213623046875">
        <ele>618.20001220703125</ele>
        <time>2026-08-21T22:06:26.000Z</time>
        <extensions>
          <ns3:TrackPointExtension>
            <ns3:hr>127</ns3:hr>
            <ns3:cad>68</ns3:cad>
          </ns3:TrackPointExtension>
        </extensions>
      </trkpt>
      <trkpt lat="45.32059262506663799285888671875" lon="-71.04801242239773273468017578125">
        <ele>618.20001220703125</ele>
        <time>2026-08-21T22:06:27.000Z</time>
        <extensions>
          <ns3:TrackPointExtension>
            <ns3:hr>128</ns3:hr>
            <ns3:cad>68</ns3:cad>
          </ns3:TrackPointExtension>
        </extensions>
      </trkpt>
      <trkpt lat="45.32060016877949237823486328125" lon="-71.04802583344280719757080078125">
        <ele>618.4000244140625</ele>
        <time>2026-08-21T22:06:28.000Z</time>
        <extensions>
          <ns3:TrackPointExtension>
            <ns3:hr>128</ns3:hr>
            <ns3:cad>68</ns3:cad>
          </ns3:TrackPointExtension>
        </extensions>
      </trkpt>
      <trkpt lat="45.32060452736914157867431640625" lon="-71.0480399988591670989990234375">
        <ele>618.5999755859375</ele>
        <time>2026-08-21T22:06:29.000Z</time>
        <extensions>
          <ns3:TrackPointExtension>
            <ns3:hr>127</ns3:hr>
            <ns3:cad>68</ns3:cad>
          </ns3:TrackPointExtension>
        </extensions>
      </trkpt>
      <trkpt lat="45.32061207108199596405029296875" lon="-71.04804913513362407684326171875">
        <ele>618.79998779296875</ele>
        <time>2026-08-21T22:06:30.000Z</time>
        <extensions>
          <ns3:TrackPointExtension>
            <ns3:hr>127</ns3:hr>
            <ns3:cad>68</ns3:cad>
          </ns3:TrackPointExtension>
        </extensions>
      </trkpt>
      <trkpt lat="45.32062497921288013458251953125" lon="-71.048070006072521209716796875">
        <ele>618.79998779296875</ele>
        <time>2026-08-21T22:06:31.000Z</time>
        <extensions>
          <ns3:TrackPointExtension>
            <ns3:hr>128</ns3:hr>
            <ns3:cad>0</ns3:cad>
          </ns3:TrackPointExtension>
        </extensions>
      </trkpt>
      <trkpt lat="45.32063939608633518218994140625" lon="-71.04809389449656009674072265625">
        <ele>619</ele>
        <time>2026-08-21T22:06:32.000Z</time>
        <extensions>
          <ns3:TrackPointExtension>
            <ns3:hr>128</ns3:hr>
            <ns3:cad>0</ns3:cad>
          </ns3:TrackPointExtension>
        </extensions>
      </trkpt>
      <trkpt lat="45.3206565789878368377685546875" lon="-71.04810990393161773681640625">
        <ele>619.20001220703125</ele>
        <time>2026-08-21T22:06:33.000Z</time>
        <extensions>
          <ns3:TrackPointExtension>
            <ns3:hr>128</ns3:hr>
            <ns3:cad>0</ns3:cad>
          </ns3:TrackPointExtension>
        </extensions>
      </trkpt>
      <trkpt lat="45.3206716664135456085205078125" lon="-71.048127673566341400146484375">
        <ele>619.4000244140625</ele>
        <time>2026-08-21T22:06:34.000Z</time>
        <extensions>
          <ns3:TrackPointExtension>
            <ns3:hr>128</ns3:hr>
            <ns3:cad>0</ns3:cad>
          </ns3:TrackPointExtension>
        </extensions>
      </trkpt>
      <trkpt lat="45.32068717293441295623779296875" lon="-71.0481425933539867401123046875">
        <ele>619.5999755859375</ele>
        <time>2026-08-21T22:06:35.000Z</time>
        <extensions>
          <ns3:TrackPointExtension>
            <ns3:hr>129</ns3:hr>
            <ns3:cad>0</ns3:cad>
          </ns3:TrackPointExtension>
        </extensions>
      </trkpt>
      <trkpt lat="45.320703685283660888671875" lon="-71.04815374128520488739013671875">
        <ele>619.5999755859375</ele>
        <time>2026-08-21T22:06:36.000Z</time>
        <extensions>
          <ns3:TrackPointExtension>
            <ns3:hr>129</ns3:hr>
            <ns3:cad>0</ns3:cad>
          </ns3:TrackPointExtension>
        </extensions>
      </trkpt>
      <trkpt lat="45.32071751542389392852783203125" lon="-71.0481606982648372650146484375">
        <ele>619.5999755859375</ele>
        <time>2026-08-21T22:06:37.000Z</time>
        <extensions>
          <ns3:TrackPointExtension>
            <ns3:hr>129</ns3:hr>
            <ns3:cad>0</ns3:cad>
          </ns3:TrackPointExtension>
        </extensions>
      </trkpt>
      <trkpt lat="45.3207380510866641998291015625" lon="-71.0481684096157550811767578125">
        <ele>619.79998779296875</ele>
        <time>2026-08-21T22:06:38.000Z</time>
        <extensions>
          <ns3:TrackPointExtension>
            <ns3:hr>130</ns3:hr>
            <ns3:cad>0</ns3:cad>
          </ns3:TrackPointExtension>
        </extensions>
      </trkpt>
      <trkpt lat="45.320756994187831878662109375" lon="-71.04817687533795833587646484375">
        <ele>619.79998779296875</ele>
        <time>2026-08-21T22:06:39.000Z</time>
        <extensions>
          <ns3:TrackPointExtension>
            <ns3:hr>130</ns3:hr>
            <ns3:cad>0</ns3:cad>
          </ns3:TrackPointExtension>
        </extensions>
      </trkpt>
      <trkpt lat="45.3207756020128726959228515625" lon="-71.0481771267950534820556640625">
        <ele>619.5999755859375</ele>
        <time>2026-08-21T22:06:40.000Z</time>
        <extensions>
          <ns3:TrackPointExtension>
            <ns3:hr>130</ns3:hr>
            <ns3:cad>0</ns3:cad>
          </ns3:TrackPointExtension>
        </extensions>
      </trkpt>
      <trkpt lat="45.32079395838081836700439453125" lon="-71.04817687533795833587646484375">
        <ele>619.5999755859375</ele>
        <time>2026-08-21T22:06:41.000Z</time>
        <extensions>
          <ns3:TrackPointExtension>
            <ns3:hr>131</ns3:hr>
            <ns3:cad>0</ns3:cad>
          </ns3:TrackPointExtension>
        </extensions>
      </trkpt>
      <trkpt lat="45.32080234028398990631103515625" lon="-71.0481883585453033447265625">
        <ele>619.5999755859375</ele>
        <time>2026-08-21T22:06:42.000Z</time>
        <extensions>
          <ns3:TrackPointExtension>
            <ns3:hr>131</ns3:hr>
            <ns3:cad>0</ns3:cad>
          </ns3:TrackPointExtension>
        </extensions>
      </trkpt>
      <trkpt lat="45.32081558369100093841552734375" lon="-71.0481964051723480224609375">
        <ele>619.5999755859375</ele>
        <time>2026-08-21T22:06:43.000Z</time>
        <extensions>
          <ns3:TrackPointExtension>
            <ns3:hr>132</ns3:hr>
            <ns3:cad>0</ns3:cad>
          </ns3:TrackPointExtension>
        </extensions>
      </trkpt>
      <trkpt lat="45.32083000056445598602294921875" lon="-71.0481964051723480224609375">
        <ele>619.5999755859375</ele>
        <time>2026-08-21T22:06:44.000Z</time>
        <extensions>
          <ns3:TrackPointExtension>
            <ns3:hr>133</ns3:hr>
            <ns3:cad>0</ns3:cad>
          </ns3:TrackPointExtension>
        </extensions>
      </trkpt>
      <trkpt lat="45.32084609381854534149169921875" lon="-71.04819573462009429931640625">
        <ele>619.5999755859375</ele>
        <time>2026-08-21T22:06:45.000Z</time>
        <extensions>
          <ns3:TrackPointExtension>
            <ns3:hr>134</ns3:hr>
            <ns3:cad>0</ns3:cad>
          </ns3:TrackPointExtension>
        </extensions>
      </trkpt>
      <trkpt lat="45.32085732556879520416259765625" lon="-71.04820453561842441558837890625">
        <ele>619.5999755859375</ele>
        <time>2026-08-21T22:06:46.000Z</time>
        <extensions>
          <ns3:TrackPointExtension>
            <ns3:hr>134</ns3:hr>
            <ns3:cad>0</ns3:cad>
          </ns3:TrackPointExtension>
        </extensions>
      </trkpt>
      <trkpt lat="45.3208691440522670745849609375" lon="-71.04821224696934223175048828125">
        <ele>619.4000244140625</ele>
        <time>2026-08-21T22:06:47.000Z</time>
        <extensions>
          <ns3:TrackPointExtension>
            <ns3:hr>134</ns3:hr>
            <ns3:cad>0</ns3:cad>
          </ns3:TrackPointExtension>
        </extensions>
      </trkpt>
      <trkpt lat="45.32088582403957843780517578125" lon="-71.0482130013406276702880859375">
        <ele>619.4000244140625</ele>
        <time>2026-08-21T22:06:48.000Z</time>
        <extensions>
          <ns3:TrackPointExtension>
            <ns3:hr>134</ns3:hr>
            <ns3:cad>60</ns3:cad>
          </ns3:TrackPointExtension>
        </extensions>
      </trkpt>
      <trkpt lat="45.32090007327497005462646484375" lon="-71.04821476154029369354248046875">
        <ele>619.4000244140625</ele>
        <time>2026-08-21T22:06:49.000Z</time>
        <extensions>
          <ns3:TrackPointExtension>
            <ns3:hr>135</ns3:hr>
            <ns3:cad>60</ns3:cad>
          </ns3:TrackPointExtension>
        </extensions>
      </trkpt>
      <trkpt lat="45.320912562310695648193359375" lon="-71.0482163541018962860107421875">
        <ele>619.4000244140625</ele>
        <time>2026-08-21T22:06:50.000Z</time>
        <extensions>
          <ns3:TrackPointExtension>
            <ns3:hr>135</ns3:hr>
            <ns3:cad>60</ns3:cad>
          </ns3:TrackPointExtension>
        </extensions>
      </trkpt>
      <trkpt lat="45.320927985012531280517578125" lon="-71.0482220537960529327392578125">
        <ele>619.4000244140625</ele>
        <time>2026-08-21T22:06:51.000Z</time>
        <extensions>
          <ns3:TrackPointExtension>
            <ns3:hr>135</ns3:hr>
            <ns3:cad>60</ns3:cad>
          </ns3:TrackPointExtension>
        </extensions>
      </trkpt>
      <trkpt lat="45.3209412284195423126220703125" lon="-71.04822364635765552520751953125">
        <ele>619.4000244140625</ele>
        <time>2026-08-21T22:06:52.000Z</time>
        <extensions>
          <ns3:TrackPointExtension>
            <ns3:hr>135</ns3:hr>
            <ns3:cad>56</ns3:cad>
          </ns3:TrackPointExtension>
        </extensions>
      </trkpt>
      <trkpt lat="45.3209519572556018829345703125" lon="-71.048219539225101470947265625">
        <ele>619.4000244140625</ele>
        <time>2026-08-21T22:06:53.000Z</time>
        <extensions>
          <ns3:TrackPointExtension>
            <ns3:hr>135</ns3:hr>
            <ns3:cad>56</ns3:cad>
          </ns3:TrackPointExtension>
        </extensions>
      </trkpt>
      <trkpt lat="45.32096042297780513763427734375" lon="-71.04821207933127880096435546875">
        <ele>619.4000244140625</ele>
        <time>2026-08-21T22:06:54.000Z</time>
        <extensions>
          <ns3:TrackPointExtension>
            <ns3:hr>134</ns3:hr>
            <ns3:cad>56</ns3:cad>
          </ns3:TrackPointExtension>
        </extensions>
      </trkpt>
      <trkpt lat="45.32096763141453266143798828125" lon="-71.04820403270423412322998046875">
        <ele>619.20001220703125</ele>
        <time>2026-08-21T22:06:55.000Z</time>
        <extensions>
          <ns3:TrackPointExtension>
            <ns3:hr>134</ns3:hr>
            <ns3:cad>56</ns3:cad>
          </ns3:TrackPointExtension>
        </extensions>
      </trkpt>
      <trkpt lat="45.32097701914608478546142578125" lon="-71.04818961583077907562255859375">
        <ele>619</ele>
        <time>2026-08-21T22:06:56.000Z</time>
        <extensions>
          <ns3:TrackPointExtension>
            <ns3:hr>134</ns3:hr>
            <ns3:cad>56</ns3:cad>
          </ns3:TrackPointExtension>
        </extensions>
      </trkpt>
      <trkpt lat="45.320993028581142425537109375" lon="-71.04817871935665607452392578125">
        <ele>618.79998779296875</ele>
        <time>2026-08-21T22:06:57.000Z</time>
        <extensions>
          <ns3:TrackPointExtension>
            <ns3:hr>134</ns3:hr>
            <ns3:cad>57</ns3:cad>
          </ns3:TrackPointExtension>
        </extensions>
      </trkpt>
      <trkpt lat="45.32100141048431396484375" lon="-71.04816681705415248870849609375">
        <ele>618.5999755859375</ele>
        <time>2026-08-21T22:06:58.000Z</time>
        <extensions>
          <ns3:TrackPointExtension>
            <ns3:hr>134</ns3:hr>
            <ns3:cad>56</ns3:cad>
          </ns3:TrackPointExtension>
        </extensions>
      </trkpt>
      <trkpt lat="45.3210066072642803192138671875" lon="-71.04814770631492137908935546875">
        <ele>618.4000244140625</ele>
        <time>2026-08-21T22:06:59.000Z</time>
        <extensions>
          <ns3:TrackPointExtension>
            <ns3:hr>133</ns3:hr>
            <ns3:cad>56</ns3:cad>
          </ns3:TrackPointExtension>
        </extensions>
      </trkpt>
      <trkpt lat="45.321011133491992950439453125" lon="-71.04813530109822750091552734375">
        <ele>618.20001220703125</ele>
        <time>2026-08-21T22:07:00.000Z</time>
        <extensions>
          <ns3:TrackPointExtension>
            <ns3:hr>133</ns3:hr>
            <ns3:cad>58</ns3:cad>
          </ns3:TrackPointExtension>
        </extensions>
      </trkpt>
      <trkpt lat="45.3210159949958324432373046875" lon="-71.04812172241508960723876953125">
        <ele>618</ele>
        <time>2026-08-21T22:07:01.000Z</time>
        <extensions>
          <ns3:TrackPointExtension>
            <ns3:hr>133</ns3:hr>
            <ns3:cad>58</ns3:cad>
          </ns3:TrackPointExtension>
        </extensions>
      </trkpt>
      <trkpt lat="45.32102462835609912872314453125" lon="-71.04810428805649280548095703125">
        <ele>617.79998779296875</ele>
        <time>2026-08-21T22:07:02.000Z</time>
        <extensions>
          <ns3:TrackPointExtension>
            <ns3:hr>132</ns3:hr>
            <ns3:cad>59</ns3:cad>
          </ns3:TrackPointExtension>
        </extensions>
      </trkpt>
      <trkpt lat="45.32103292644023895263671875" lon="-71.04809515178203582763671875">
        <ele>617.5999755859375</ele>
        <time>2026-08-21T22:07:03.000Z</time>
        <extensions>
          <ns3:TrackPointExtension>
            <ns3:hr>132</ns3:hr>
            <ns3:cad>59</ns3:cad>
          </ns3:TrackPointExtension>
        </extensions>
      </trkpt>
      <trkpt lat="45.32104122452437877655029296875" lon="-71.04808702133595943450927734375">
        <ele>617.4000244140625</ele>
        <time>2026-08-21T22:07:04.000Z</time>
        <extensions>
          <ns3:TrackPointExtension>
            <ns3:hr>131</ns3:hr>
            <ns3:cad>59</ns3:cad>
          </ns3:TrackPointExtension>
        </extensions>
      </trkpt>
      <trkpt lat="45.3210505284368991851806640625" lon="-71.0480708442628383636474609375">
        <ele>617</ele>
        <time>2026-08-21T22:07:05.000Z</time>
        <extensions>
          <ns3:TrackPointExtension>
            <ns3:hr>131</ns3:hr>
            <ns3:cad>59</ns3:cad>
          </ns3:TrackPointExtension>
        </extensions>
      </trkpt>
      <trkpt lat="45.3210642747581005096435546875" lon="-71.048063300549983978271484375">
        <ele>616.79998779296875</ele>
        <time>2026-08-21T22:07:06.000Z</time>
        <extensions>
          <ns3:TrackPointExtension>
            <ns3:hr>130</ns3:hr>
            <ns3:cad>59</ns3:cad>
          </ns3:TrackPointExtension>
        </extensions>
      </trkpt>
      <trkpt lat="45.32107743434607982635498046875" lon="-71.04806296527385711669921875">
        <ele>616.5999755859375</ele>
        <time>2026-08-21T22:07:07.000Z</time>
        <extensions>
          <ns3:TrackPointExtension>
            <ns3:hr>130</ns3:hr>
            <ns3:cad>75</ns3:cad>
          </ns3:TrackPointExtension>
        </extensions>
      </trkpt>
      <trkpt lat="45.32108330167829990386962890625" lon="-71.048065312206745147705078125">
        <ele>616.4000244140625</ele>
        <time>2026-08-21T22:07:08.000Z</time>
        <extensions>
          <ns3:TrackPointExtension>
            <ns3:hr>130</ns3:hr>
            <ns3:cad>75</ns3:cad>
          </ns3:TrackPointExtension>
        </extensions>
      </trkpt>
      <trkpt lat="45.32109922729432582855224609375" lon="-71.048067994415760040283203125">
        <ele>616.4000244140625</ele>
        <time>2026-08-21T22:07:09.000Z</time>
        <extensions>
          <ns3:TrackPointExtension>
            <ns3:hr>131</ns3:hr>
            <ns3:cad>75</ns3:cad>
          </ns3:TrackPointExtension>
        </extensions>
      </trkpt>
      <trkpt lat="45.321113727986812591552734375" lon="-71.04807243682444095611572265625">
        <ele>616.4000244140625</ele>
        <time>2026-08-21T22:07:10.000Z</time>
        <extensions>
          <ns3:TrackPointExtension>
            <ns3:hr>131</ns3:hr>
            <ns3:cad>75</ns3:cad>
          </ns3:TrackPointExtension>
        </extensions>
      </trkpt>
      <trkpt lat="45.32112437300384044647216796875" lon="-71.04807796888053417205810546875">
        <ele>616.4000244140625</ele>
        <time>2026-08-21T22:07:11.000Z</time>
        <extensions>
          <ns3:TrackPointExtension>
            <ns3:hr>131</ns3:hr>
            <ns3:cad>75</ns3:cad>
          </ns3:TrackPointExtension>
        </extensions>
      </trkpt>
      <trkpt lat="45.3211333416402339935302734375" lon="-71.0480810701847076416015625">
        <ele>616.4000244140625</ele>
        <time>2026-08-21T22:07:12.000Z</time>
        <extensions>
          <ns3:TrackPointExtension>
            <ns3:hr>130</ns3:hr>
            <ns3:cad>0</ns3:cad>
          </ns3:TrackPointExtension>
        </extensions>
      </trkpt>
      <trkpt lat="45.3211427293717861175537109375" lon="-71.04808308184146881103515625">
        <ele>616.4000244140625</ele>
        <time>2026-08-21T22:07:13.000Z</time>
        <extensions>
          <ns3:TrackPointExtension>
            <ns3:hr>130</ns3:hr>
            <ns3:cad>0</ns3:cad>
          </ns3:TrackPointExtension>
        </extensions>
      </trkpt>
      <trkpt lat="45.32115136273205280303955078125" lon="-71.04808031581342220306396484375">
        <ele>616.5999755859375</ele>
        <time>2026-08-21T22:07:14.000Z</time>
        <extensions>
          <ns3:TrackPointExtension>
            <ns3:hr>130</ns3:hr>
            <ns3:cad>0</ns3:cad>
          </ns3:TrackPointExtension>
        </extensions>
      </trkpt>
      <trkpt lat="45.32115521840751171112060546875" lon="-71.04807729832828044891357421875">
        <ele>616.5999755859375</ele>
        <time>2026-08-21T22:07:15.000Z</time>
        <extensions>
          <ns3:TrackPointExtension>
            <ns3:hr>130</ns3:hr>
            <ns3:cad>0</ns3:cad>
          </ns3:TrackPointExtension>
        </extensions>
      </trkpt>
      <trkpt lat="45.32115991227328777313232421875" lon="-71.04807679541409015655517578125">
        <ele>616.5999755859375</ele>
        <time>2026-08-21T22:07:16.000Z</time>
        <extensions>
          <ns3:TrackPointExtension>
            <ns3:hr>130</ns3:hr>
            <ns3:cad>0</ns3:cad>
          </ns3:TrackPointExtension>
        </extensions>
      </trkpt>
      <trkpt lat="45.32116142101585865020751953125" lon="-71.048074699938297271728515625">
        <ele>616.5999755859375</ele>
        <time>2026-08-21T22:07:17.000Z</time>
        <extensions>
          <ns3:TrackPointExtension>
            <ns3:hr>130</ns3:hr>
            <ns3:cad>0</ns3:cad>
          </ns3:TrackPointExtension>
        </extensions>
      </trkpt>
      <trkpt lat="45.321159325540065765380859375" lon="-71.04807327501475811004638671875">
        <ele>616.4000244140625</ele>
        <time>2026-08-21T22:07:18.000Z</time>
        <extensions>
          <ns3:TrackPointExtension>
            <ns3:hr>129</ns3:hr>
            <ns3:cad>0</ns3:cad>
          </ns3:TrackPointExtension>
        </extensions>
      </trkpt>
      <trkpt lat="45.32115857116878032684326171875" lon="-71.04807226918637752532958984375">
        <ele>616.4000244140625</ele>
        <time>2026-08-21T22:07:19.000Z</time>
        <extensions>
          <ns3:TrackPointExtension>
            <ns3:hr>127</ns3:hr>
            <ns3:cad>0</ns3:cad>
          </ns3:TrackPointExtension>
        </extensions>
      </trkpt>
      <trkpt lat="45.3211578167974948883056640625" lon="-71.04807277210056781768798828125">
        <ele>616.4000244140625</ele>
        <time>2026-08-21T22:07:20.000Z</time>
        <extensions>
          <ns3:TrackPointExtension>
            <ns3:hr>127</ns3:hr>
            <ns3:cad>0</ns3:cad>
          </ns3:TrackPointExtension>
        </extensions>
      </trkpt>
      <trkpt lat="45.3211578167974948883056640625" lon="-71.0480728559195995330810546875">
        <ele>616.4000244140625</ele>
        <time>2026-08-21T22:07:21.000Z</time>
        <extensions>
          <ns3:TrackPointExtension>
            <ns3:hr>126</ns3:hr>
            <ns3:cad>0</ns3:cad>
          </ns3:TrackPointExtension>
        </extensions>
      </trkpt>
      <trkpt lat="45.3211578167974948883056640625" lon="-71.0480728559195995330810546875">
        <ele>616.4000244140625</ele>
        <time>2026-08-21T22:07:22.000Z</time>
        <extensions>
          <ns3:TrackPointExtension>
            <ns3:hr>124</ns3:hr>
            <ns3:cad>0</ns3:cad>
          </ns3:TrackPointExtension>
        </extensions>
      </trkpt>
      <trkpt lat="45.3211578167974948883056640625" lon="-71.0480728559195995330810546875">
        <ele>616.4000244140625</ele>
        <time>2026-08-21T22:07:23.000Z</time>
        <extensions>
          <ns3:TrackPointExtension>
            <ns3:hr>123</ns3:hr>
            <ns3:cad>0</ns3:cad>
          </ns3:TrackPointExtension>
        </extensions>
      </trkpt>
      <trkpt lat="45.3211578167974948883056640625" lon="-71.0480728559195995330810546875">
        <ele>616.4000244140625</ele>
        <time>2026-08-21T22:07:24.000Z</time>
        <extensions>
          <ns3:TrackPointExtension>
            <ns3:hr>123</ns3:hr>
            <ns3:cad>0</ns3:cad>
          </ns3:TrackPointExtension>
        </extensions>
      </trkpt>
      <trkpt lat="45.3211578167974948883056640625" lon="-71.0480728559195995330810546875">
        <ele>616.4000244140625</ele>
        <time>2026-08-21T22:07:25.000Z</time>
        <extensions>
          <ns3:TrackPointExtension>
            <ns3:hr>123</ns3:hr>
            <ns3:cad>0</ns3:cad>
          </ns3:TrackPointExtension>
        </extensions>
      </trkpt>
      <trkpt lat="45.3211578167974948883056640625" lon="-71.0480728559195995330810546875">
        <ele>616.20001220703125</ele>
        <time>2026-08-21T22:07:26.000Z</time>
        <extensions>
          <ns3:TrackPointExtension>
            <ns3:hr>122</ns3:hr>
            <ns3:cad>0</ns3:cad>
          </ns3:TrackPointExtension>
        </extensions>
      </trkpt>
      <trkpt lat="45.3211578167974948883056640625" lon="-71.0480728559195995330810546875">
        <ele>616.20001220703125</ele>
        <time>2026-08-21T22:07:27.000Z</time>
        <extensions>
          <ns3:TrackPointExtension>
            <ns3:hr>122</ns3:hr>
            <ns3:cad>0</ns3:cad>
          </ns3:TrackPointExtension>
        </extensions>
      </trkpt>
      <trkpt lat="45.3211578167974948883056640625" lon="-71.0480728559195995330810546875">
        <ele>616.20001220703125</ele>
        <time>2026-08-21T22:07:28.000Z</time>
        <extensions>
          <ns3:TrackPointExtension>
            <ns3:hr>122</ns3:hr>
            <ns3:cad>0</ns3:cad>
          </ns3:TrackPointExtension>
        </extensions>
      </trkpt>
      <trkpt lat="45.3211578167974948883056640625" lon="-71.0480728559195995330810546875">
        <ele>616.20001220703125</ele>
        <time>2026-08-21T22:07:29.000Z</time>
        <extensions>
          <ns3:TrackPointExtension>
            <ns3:hr>122</ns3:hr>
            <ns3:cad>0</ns3:cad>
          </ns3:TrackPointExtension>
        </extensions>
      </trkpt>
      <trkpt lat="45.3211578167974948883056640625" lon="-71.0480728559195995330810546875">
        <ele>616.20001220703125</ele>
        <time>2026-08-21T22:07:30.000Z</time>
        <extensions>
          <ns3:TrackPointExtension>
            <ns3:hr>122</ns3:hr>
            <ns3:cad>0</ns3:cad>
          </ns3:TrackPointExtension>
        </extensions>
      </trkpt>
      <trkpt lat="45.3211578167974948883056640625" lon="-71.0480728559195995330810546875">
        <ele>616.4000244140625</ele>
        <time>2026-08-21T22:07:31.000Z</time>
        <extensions>
          <ns3:TrackPointExtension>
            <ns3:hr>122</ns3:hr>
            <ns3:cad>0</ns3:cad>
          </ns3:TrackPointExtension>
        </extensions>
      </trkpt>
      <trkpt lat="45.3211578167974948883056640625" lon="-71.0480728559195995330810546875">
        <ele>616.4000244140625</ele>
        <time>2026-08-21T22:07:32.000Z</time>
        <extensions>
          <ns3:TrackPointExtension>
            <ns3:hr>122</ns3:hr>
            <ns3:cad>0</ns3:cad>
          </ns3:TrackPointExtension>
        </extensions>
      </trkpt>
      <trkpt lat="45.32117106020450592041015625" lon="-71.04806908406317234039306640625">
        <ele>616.20001220703125</ele>
        <time>2026-08-21T22:07:33.000Z</time>
        <extensions>
          <ns3:TrackPointExtension>
            <ns3:hr>122</ns3:hr>
            <ns3:cad>0</ns3:cad>
          </ns3:TrackPointExtension>
        </extensions>
      </trkpt>
      <trkpt lat="45.32117164693772792816162109375" lon="-71.04806908406317234039306640625">
        <ele>616.20001220703125</ele>
        <time>2026-08-21T22:07:34.000Z</time>
        <extensions>
          <ns3:TrackPointExtension>
            <ns3:hr>122</ns3:hr>
            <ns3:cad>0</ns3:cad>
          </ns3:TrackPointExtension>
        </extensions>
      </trkpt>
      <trkpt lat="45.32117164693772792816162109375" lon="-71.04806908406317234039306640625">
        <ele>616.20001220703125</ele>
        <time>2026-08-21T22:07:35.000Z</time>
        <extensions>
          <ns3:TrackPointExtension>
            <ns3:hr>122</ns3:hr>
            <ns3:cad>0</ns3:cad>
          </ns3:TrackPointExtension>
        </extensions>
      </trkpt>
      <trkpt lat="45.32117164693772792816162109375" lon="-71.04806908406317234039306640625">
        <ele>616.20001220703125</ele>
        <time>2026-08-21T22:07:36.000Z</time>
        <extensions>
          <ns3:TrackPointExtension>
            <ns3:hr>122</ns3:hr>
            <ns3:cad>0</ns3:cad>
          </ns3:TrackPointExtension>
        </extensions>
      </trkpt>
      <trkpt lat="45.32117164693772792816162109375" lon="-71.04806908406317234039306640625">
        <ele>616.20001220703125</ele>
        <time>2026-08-21T22:07:37.000Z</time>
        <extensions>
          <ns3:TrackPointExtension>
            <ns3:hr>122</ns3:hr>
            <ns3:cad>0</ns3:cad>
          </ns3:TrackPointExtension>
        </extensions>
      </trkpt>
      <trkpt lat="45.32117315568029880523681640625" lon="-71.0480681620538234710693359375">
        <ele>616.20001220703125</ele>
        <time>2026-08-21T22:07:38.000Z</time>
        <extensions>
          <ns3:TrackPointExtension>
            <ns3:hr>122</ns3:hr>
            <ns3:cad>52</ns3:cad>
          </ns3:TrackPointExtension>
        </extensions>
      </trkpt>
      <trkpt lat="45.32118790782988071441650390625" lon="-71.0480570979416370391845703125">
        <ele>616</ele>
        <time>2026-08-21T22:07:39.000Z</time>
        <extensions>
          <ns3:TrackPointExtension>
            <ns3:hr>122</ns3:hr>
            <ns3:cad>52</ns3:cad>
          </ns3:TrackPointExtension>
        </extensions>
      </trkpt>
      <trkpt lat="45.3212030790746212005615234375" lon="-71.04805248789489269256591796875">
        <ele>616</ele>
        <time>2026-08-21T22:07:40.000Z</time>
        <extensions>
          <ns3:TrackPointExtension>
            <ns3:hr>122</ns3:hr>
            <ns3:cad>52</ns3:cad>
          </ns3:TrackPointExtension>
        </extensions>
      </trkpt>
      <trkpt lat="45.32121791504323482513427734375" lon="-71.0480500571429729461669921875">
        <ele>615.79998779296875</ele>
        <time>2026-08-21T22:07:41.000Z</time>
        <extensions>
          <ns3:TrackPointExtension>
            <ns3:hr>123</ns3:hr>
            <ns3:cad>47</ns3:cad>
          </ns3:TrackPointExtension>
        </extensions>
      </trkpt>
      <trkpt lat="45.32123317010700702667236328125" lon="-71.04804662056267261505126953125">
        <ele>615.5999755859375</ele>
        <time>2026-08-21T22:07:42.000Z</time>
        <extensions>
          <ns3:TrackPointExtension>
            <ns3:hr>123</ns3:hr>
            <ns3:cad>47</ns3:cad>
          </ns3:TrackPointExtension>
        </extensions>
      </trkpt>
      <trkpt lat="45.3212480060756206512451171875" lon="-71.0480329580605030059814453125">
        <ele>615.4000244140625</ele>
        <time>2026-08-21T22:07:43.000Z</time>
        <extensions>
          <ns3:TrackPointExtension>
            <ns3:hr>124</ns3:hr>
            <ns3:cad>53</ns3:cad>
          </ns3:TrackPointExtension>
        </extensions>
      </trkpt>
      <trkpt lat="45.321259908378124237060546875" lon="-71.04802113957703113555908203125">
        <ele>615.4000244140625</ele>
        <time>2026-08-21T22:07:44.000Z</time>
        <extensions>
          <ns3:TrackPointExtension>
            <ns3:hr>124</ns3:hr>
            <ns3:cad>53</ns3:cad>
          </ns3:TrackPointExtension>
        </extensions>
      </trkpt>
      <trkpt lat="45.3212749958038330078125" lon="-71.04801493696868419647216796875">
        <ele>615.20001220703125</ele>
        <time>2026-08-21T22:07:45.000Z</time>
        <extensions>
          <ns3:TrackPointExtension>
            <ns3:hr>126</ns3:hr>
            <ns3:cad>53</ns3:cad>
          </ns3:TrackPointExtension>
        </extensions>
      </trkpt>
      <trkpt lat="45.32129201106727123260498046875" lon="-71.048013679683208465576171875">
        <ele>615</ele>
        <time>2026-08-21T22:07:46.000Z</time>
        <extensions>
          <ns3:TrackPointExtension>
            <ns3:hr>127</ns3:hr>
            <ns3:cad>53</ns3:cad>
          </ns3:TrackPointExtension>
        </extensions>
      </trkpt>
      <trkpt lat="45.32131229527294635772705078125" lon="-71.04801091365516185760498046875">
        <ele>614.79998779296875</ele>
        <time>2026-08-21T22:07:47.000Z</time>
        <extensions>
          <ns3:TrackPointExtension>
            <ns3:hr>128</ns3:hr>
            <ns3:cad>53</ns3:cad>
          </ns3:TrackPointExtension>
        </extensions>
      </trkpt>
      <trkpt lat="45.3213231079280376434326171875" lon="-71.04800797998905181884765625">
        <ele>614.5999755859375</ele>
        <time>2026-08-21T22:07:48.000Z</time>
        <extensions>
          <ns3:TrackPointExtension>
            <ns3:hr>127</ns3:hr>
            <ns3:cad>53</ns3:cad>
          </ns3:TrackPointExtension>
        </extensions>
      </trkpt>
      <trkpt lat="45.32133509404957294464111328125" lon="-71.0480027832090854644775390625">
        <ele>614.4000244140625</ele>
        <time>2026-08-21T22:07:49.000Z</time>
        <extensions>
          <ns3:TrackPointExtension>
            <ns3:hr>127</ns3:hr>
            <ns3:cad>53</ns3:cad>
          </ns3:TrackPointExtension>
        </extensions>
      </trkpt>
      <trkpt lat="45.321351103484630584716796875" lon="-71.04800018481910228729248046875">
        <ele>614.20001220703125</ele>
        <time>2026-08-21T22:07:50.000Z</time>
        <extensions>
          <ns3:TrackPointExtension>
            <ns3:hr>128</ns3:hr>
            <ns3:cad>77</ns3:cad>
          </ns3:TrackPointExtension>
        </extensions>
      </trkpt>
      <trkpt lat="45.32137381844222545623779296875" lon="-71.04799599386751651763916015625">
        <ele>613.79998779296875</ele>
        <time>2026-08-21T22:07:51.000Z</time>
        <extensions>
          <ns3:TrackPointExtension>
            <ns3:hr>129</ns3:hr>
            <ns3:cad>77</ns3:cad>
          </ns3:TrackPointExtension>
        </extensions>
      </trkpt>
      <trkpt lat="45.32139225862920284271240234375" lon="-71.048004627227783203125">
        <ele>613.5999755859375</ele>
        <time>2026-08-21T22:07:52.000Z</time>
        <extensions>
          <ns3:TrackPointExtension>
            <ns3:hr>129</ns3:hr>
            <ns3:cad>77</ns3:cad>
          </ns3:TrackPointExtension>
        </extensions>
      </trkpt>
      <trkpt lat="45.32141455449163913726806640625" lon="-71.0480113327503204345703125">
        <ele>613.5999755859375</ele>
        <time>2026-08-21T22:07:53.000Z</time>
        <extensions>
          <ns3:TrackPointExtension>
            <ns3:hr>128</ns3:hr>
            <ns3:cad>77</ns3:cad>
          </ns3:TrackPointExtension>
        </extensions>
      </trkpt>
      <trkpt lat="45.321436263620853424072265625" lon="-71.04800739325582981109619140625">
        <ele>613.4000244140625</ele>
        <time>2026-08-21T22:07:54.000Z</time>
        <extensions>
          <ns3:TrackPointExtension>
            <ns3:hr>128</ns3:hr>
            <ns3:cad>77</ns3:cad>
          </ns3:TrackPointExtension>
        </extensions>
      </trkpt>
      <trkpt lat="45.32144372351467609405517578125" lon="-71.04800672270357608795166015625">
        <ele>613.20001220703125</ele>
        <time>2026-08-21T22:07:55.000Z</time>
        <extensions>
          <ns3:TrackPointExtension>
            <ns3:hr>129</ns3:hr>
            <ns3:cad>76</ns3:cad>
          </ns3:TrackPointExtension>
        </extensions>
      </trkpt>
      <trkpt lat="45.32145327888429164886474609375" lon="-71.04800705797970294952392578125">
        <ele>613.20001220703125</ele>
        <time>2026-08-21T22:07:56.000Z</time>
        <extensions>
          <ns3:TrackPointExtension>
            <ns3:hr>129</ns3:hr>
            <ns3:cad>76</ns3:cad>
          </ns3:TrackPointExtension>
        </extensions>
      </trkpt>
      <trkpt lat="45.32146316953003406524658203125" lon="-71.0480108298361301422119140625">
        <ele>613.20001220703125</ele>
        <time>2026-08-21T22:07:57.000Z</time>
        <extensions>
          <ns3:TrackPointExtension>
            <ns3:hr>125</ns3:hr>
            <ns3:cad>76</ns3:cad>
          </ns3:TrackPointExtension>
        </extensions>
      </trkpt>
      <trkpt lat="45.32147456891834735870361328125" lon="-71.0480108298361301422119140625">
        <ele>613.20001220703125</ele>
        <time>2026-08-21T22:07:58.000Z</time>
        <extensions>
          <ns3:TrackPointExtension>
            <ns3:hr>122</ns3:hr>
            <ns3:cad>0</ns3:cad>
          </ns3:TrackPointExtension>
        </extensions>
      </trkpt>
      <trkpt lat="45.3214870579540729522705078125" lon="-71.04801426641643047332763671875">
        <ele>613.20001220703125</ele>
        <time>2026-08-21T22:07:59.000Z</time>
        <extensions>
          <ns3:TrackPointExtension>
            <ns3:hr>121</ns3:hr>
            <ns3:cad>0</ns3:cad>
          </ns3:TrackPointExtension>
        </extensions>
      </trkpt>
      <trkpt lat="45.3215004689991474151611328125" lon="-71.04801376350224018096923828125">
        <ele>613</ele>
        <time>2026-08-21T22:08:00.000Z</time>
        <extensions>
          <ns3:TrackPointExtension>
            <ns3:hr>119</ns3:hr>
            <ns3:cad>0</ns3:cad>
          </ns3:TrackPointExtension>
        </extensions>
      </trkpt>
      <trkpt lat="45.32151061110198497772216796875" lon="-71.048017702996730804443359375">
        <ele>612.79998779296875</ele>
        <time>2026-08-21T22:08:01.000Z</time>
        <extensions>
          <ns3:TrackPointExtension>
            <ns3:hr>118</ns3:hr>
            <ns3:cad>0</ns3:cad>
          </ns3:TrackPointExtension>
        </extensions>
      </trkpt>
      <trkpt lat="45.32153315842151641845703125" lon="-71.0480275936424732208251953125">
        <ele>612.79998779296875</ele>
        <time>2026-08-21T22:08:02.000Z</time>
        <extensions>
          <ns3:TrackPointExtension>
            <ns3:hr>117</ns3:hr>
            <ns3:cad>0</ns3:cad>
          </ns3:TrackPointExtension>
        </extensions>
      </trkpt>
      <trkpt lat="45.321550257503986358642578125" lon="-71.048035137355327606201171875">
        <ele>612.5999755859375</ele>
        <time>2026-08-21T22:08:03.000Z</time>
        <extensions>
          <ns3:TrackPointExtension>
            <ns3:hr>117</ns3:hr>
            <ns3:cad>0</ns3:cad>
          </ns3:TrackPointExtension>
        </extensions>
      </trkpt>
      <trkpt lat="45.32156894914805889129638671875" lon="-71.048047207295894622802734375">
        <ele>612.4000244140625</ele>
        <time>2026-08-21T22:08:04.000Z</time>
        <extensions>
          <ns3:TrackPointExtension>
            <ns3:hr>117</ns3:hr>
            <ns3:cad>0</ns3:cad>
          </ns3:TrackPointExtension>
        </extensions>
      </trkpt>
      <trkpt lat="45.32158412039279937744140625" lon="-71.0480582714080810546875">
        <ele>612.4000244140625</ele>
        <time>2026-08-21T22:08:05.000Z</time>
        <extensions>
          <ns3:TrackPointExtension>
            <ns3:hr>119</ns3:hr>
            <ns3:cad>76</ns3:cad>
          </ns3:TrackPointExtension>
        </extensions>
      </trkpt>
      <trkpt lat="45.32159577123820781707763671875" lon="-71.04806774295866489410400390625">
        <ele>612.5999755859375</ele>
        <time>2026-08-21T22:08:06.000Z</time>
        <extensions>
          <ns3:TrackPointExtension>
            <ns3:hr>120</ns3:hr>
            <ns3:cad>76</ns3:cad>
          </ns3:TrackPointExtension>
        </extensions>
      </trkpt>
      <trkpt lat="45.321610271930694580078125" lon="-71.04807076044380664825439453125">
        <ele>612.5999755859375</ele>
        <time>2026-08-21T22:08:07.000Z</time>
        <extensions>
          <ns3:TrackPointExtension>
            <ns3:hr>118</ns3:hr>
            <ns3:cad>76</ns3:cad>
          </ns3:TrackPointExtension>
        </extensions>
      </trkpt>
      <trkpt lat="45.32162368297576904296875" lon="-71.04806925170123577117919921875">
        <ele>612.5999755859375</ele>
        <time>2026-08-21T22:08:08.000Z</time>
        <extensions>
          <ns3:TrackPointExtension>
            <ns3:hr>117</ns3:hr>
            <ns3:cad>73</ns3:cad>
          </ns3:TrackPointExtension>
        </extensions>
      </trkpt>
      <trkpt lat="45.32163784839212894439697265625" lon="-71.048070676624774932861328125">
        <ele>612.4000244140625</ele>
        <time>2026-08-21T22:08:09.000Z</time>
        <extensions>
          <ns3:TrackPointExtension>
            <ns3:hr>116</ns3:hr>
            <ns3:cad>73</ns3:cad>
          </ns3:TrackPointExtension>
        </extensions>
      </trkpt>
      <trkpt lat="45.32165343873202800750732421875" lon="-71.04808132164180278778076171875">
        <ele>612.20001220703125</ele>
        <time>2026-08-21T22:08:10.000Z</time>
        <extensions>
          <ns3:TrackPointExtension>
            <ns3:hr>115</ns3:hr>
            <ns3:cad>73</ns3:cad>
          </ns3:TrackPointExtension>
        </extensions>
      </trkpt>
      <trkpt lat="45.3216660954058170318603515625" lon="-71.04809381067752838134765625">
        <ele>612</ele>
        <time>2026-08-21T22:08:11.000Z</time>
        <extensions>
          <ns3:TrackPointExtension>
            <ns3:hr>115</ns3:hr>
            <ns3:cad>73</ns3:cad>
          </ns3:TrackPointExtension>
        </extensions>
      </trkpt>
      <trkpt lat="45.3216801770031452178955078125" lon="-71.04809976182878017425537109375">
        <ele>611.5999755859375</ele>
        <time>2026-08-21T22:08:12.000Z</time>
        <extensions>
          <ns3:TrackPointExtension>
            <ns3:hr>115</ns3:hr>
            <ns3:cad>73</ns3:cad>
          </ns3:TrackPointExtension>
        </extensions>
      </trkpt>
      <trkpt lat="45.32169735990464687347412109375" lon="-71.0481037013232707977294921875">
        <ele>611.4000244140625</ele>
        <time>2026-08-21T22:08:13.000Z</time>
        <extensions>
          <ns3:TrackPointExtension>
            <ns3:hr>115</ns3:hr>
            <ns3:cad>73</ns3:cad>
          </ns3:TrackPointExtension>
        </extensions>
      </trkpt>
      <trkpt lat="45.32171060331165790557861328125" lon="-71.04811233468353748321533203125">
        <ele>611.20001220703125</ele>
        <time>2026-08-21T22:08:14.000Z</time>
        <extensions>
          <ns3:TrackPointExtension>
            <ns3:hr>116</ns3:hr>
            <ns3:cad>73</ns3:cad>
          </ns3:TrackPointExtension>
        </extensions>
      </trkpt>
      <trkpt lat="45.32172552309930324554443359375" lon="-71.04812658391892910003662109375">
        <ele>611</ele>
        <time>2026-08-21T22:08:15.000Z</time>
        <extensions>
          <ns3:TrackPointExtension>
            <ns3:hr>116</ns3:hr>
            <ns3:cad>73</ns3:cad>
          </ns3:TrackPointExtension>
        </extensions>
      </trkpt>
      <trkpt lat="45.32173843123018741607666015625" lon="-71.048133708536624908447265625">
        <ele>610.5999755859375</ele>
        <time>2026-08-21T22:08:16.000Z</time>
        <extensions>
          <ns3:TrackPointExtension>
            <ns3:hr>116</ns3:hr>
            <ns3:cad>73</ns3:cad>
          </ns3:TrackPointExtension>
        </extensions>
      </trkpt>
      <trkpt lat="45.32175754196941852569580078125" lon="-71.04813580401241779327392578125">
        <ele>610.4000244140625</ele>
        <time>2026-08-21T22:08:17.000Z</time>
        <extensions>
          <ns3:TrackPointExtension>
            <ns3:hr>116</ns3:hr>
            <ns3:cad>73</ns3:cad>
          </ns3:TrackPointExtension>
        </extensions>
      </trkpt>
      <trkpt lat="45.321773551404476165771484375" lon="-71.04813672602176666259765625">
        <ele>610.20001220703125</ele>
        <time>2026-08-21T22:08:18.000Z</time>
        <extensions>
          <ns3:TrackPointExtension>
            <ns3:hr>115</ns3:hr>
            <ns3:cad>73</ns3:cad>
          </ns3:TrackPointExtension>
        </extensions>
      </trkpt>
      <trkpt lat="45.32179643400013446807861328125" lon="-71.04813580401241779327392578125">
        <ele>610</ele>
        <time>2026-08-21T22:08:19.000Z</time>
        <extensions>
          <ns3:TrackPointExtension>
            <ns3:hr>116</ns3:hr>
            <ns3:cad>73</ns3:cad>
          </ns3:TrackPointExtension>
        </extensions>
      </trkpt>
      <trkpt lat="45.32181420363485813140869140625" lon="-71.04813530109822750091552734375">
        <ele>609.79998779296875</ele>
        <time>2026-08-21T22:08:20.000Z</time>
        <extensions>
          <ns3:TrackPointExtension>
            <ns3:hr>115</ns3:hr>
            <ns3:cad>73</ns3:cad>
          </ns3:TrackPointExtension>
        </extensions>
      </trkpt>
      <trkpt lat="45.3218300454318523406982421875" lon="-71.0481486283242702484130859375">
        <ele>609.4000244140625</ele>
        <time>2026-08-21T22:08:21.000Z</time>
        <extensions>
          <ns3:TrackPointExtension>
            <ns3:hr>116</ns3:hr>
            <ns3:cad>73</ns3:cad>
          </ns3:TrackPointExtension>
        </extensions>
      </trkpt>
      <trkpt lat="45.32184655778110027313232421875" lon="-71.04816899634897708892822265625">
        <ele>609.4000244140625</ele>
        <time>2026-08-21T22:08:22.000Z</time>
        <extensions>
          <ns3:TrackPointExtension>
            <ns3:hr>118</ns3:hr>
            <ns3:cad>73</ns3:cad>
          </ns3:TrackPointExtension>
        </extensions>
      </trkpt>
      <trkpt lat="45.32185728661715984344482421875" lon="-71.048178635537624359130859375">
        <ele>609.20001220703125</ele>
        <time>2026-08-21T22:08:23.000Z</time>
        <extensions>
          <ns3:TrackPointExtension>
            <ns3:hr>119</ns3:hr>
            <ns3:cad>73</ns3:cad>
          </ns3:TrackPointExtension>
        </extensions>
      </trkpt>
      <trkpt lat="45.32187254168093204498291015625" lon="-71.04819179512560367584228515625">
        <ele>609.20001220703125</ele>
        <time>2026-08-21T22:08:24.000Z</time>
        <extensions>
          <ns3:TrackPointExtension>
            <ns3:hr>119</ns3:hr>
            <ns3:cad>0</ns3:cad>
          </ns3:TrackPointExtension>
        </extensions>
      </trkpt>
      <trkpt lat="45.32188880257308483123779296875" lon="-71.04820168577134609222412109375">
        <ele>609.20001220703125</ele>
        <time>2026-08-21T22:08:25.000Z</time>
        <extensions>
          <ns3:TrackPointExtension>
            <ns3:hr>120</ns3:hr>
            <ns3:cad>0</ns3:cad>
          </ns3:TrackPointExtension>
        </extensions>
      </trkpt>
      <trkpt lat="45.32190062105655670166015625" lon="-71.04821291752159595489501953125">
        <ele>609</ele>
        <time>2026-08-21T22:08:26.000Z</time>
        <extensions>
          <ns3:TrackPointExtension>
            <ns3:hr>120</ns3:hr>
            <ns3:cad>0</ns3:cad>
          </ns3:TrackPointExtension>
        </extensions>
      </trkpt>
      <trkpt lat="45.321915037930011749267578125" lon="-71.04822465218603610992431640625">
        <ele>609</ele>
        <time>2026-08-21T22:08:27.000Z</time>
        <extensions>
          <ns3:TrackPointExtension>
            <ns3:hr>120</ns3:hr>
            <ns3:cad>0</ns3:cad>
          </ns3:TrackPointExtension>
        </extensions>
      </trkpt>
      <trkpt lat="45.3219312988221645355224609375" lon="-71.04823864996433258056640625">
        <ele>608.79998779296875</ele>
        <time>2026-08-21T22:08:28.000Z</time>
        <extensions>
          <ns3:TrackPointExtension>
            <ns3:hr>121</ns3:hr>
            <ns3:cad>0</ns3:cad>
          </ns3:TrackPointExtension>
        </extensions>
      </trkpt>
      <trkpt lat="45.32195560634136199951171875" lon="-71.04825633578002452850341796875">
        <ele>608.5999755859375</ele>
        <time>2026-08-21T22:08:29.000Z</time>
        <extensions>
          <ns3:TrackPointExtension>
            <ns3:hr>120</ns3:hr>
            <ns3:cad>0</ns3:cad>
          </ns3:TrackPointExtension>
        </extensions>
      </trkpt>
      <trkpt lat="45.32197035849094390869140625" lon="-71.04826253838837146759033203125">
        <ele>608.5999755859375</ele>
        <time>2026-08-21T22:08:30.000Z</time>
        <extensions>
          <ns3:TrackPointExtension>
            <ns3:hr>120</ns3:hr>
            <ns3:cad>0</ns3:cad>
          </ns3:TrackPointExtension>
        </extensions>
      </trkpt>
      <trkpt lat="45.32198586501181125640869140625" lon="-71.04827041737735271453857421875">
        <ele>608.5999755859375</ele>
        <time>2026-08-21T22:08:31.000Z</time>
        <extensions>
          <ns3:TrackPointExtension>
            <ns3:hr>120</ns3:hr>
            <ns3:cad>0</ns3:cad>
          </ns3:TrackPointExtension>
        </extensions>
      </trkpt>
      <trkpt lat="45.32200112007558345794677734375" lon="-71.0482760332524776458740234375">
        <ele>608.4000244140625</ele>
        <time>2026-08-21T22:08:32.000Z</time>
        <extensions>
          <ns3:TrackPointExtension>
            <ns3:hr>120</ns3:hr>
            <ns3:cad>0</ns3:cad>
          </ns3:TrackPointExtension>
        </extensions>
      </trkpt>
      <trkpt lat="45.3220166265964508056640625" lon="-71.0482797212898731231689453125">
        <ele>608.4000244140625</ele>
        <time>2026-08-21T22:08:33.000Z</time>
        <extensions>
          <ns3:TrackPointExtension>
            <ns3:hr>120</ns3:hr>
            <ns3:cad>0</ns3:cad>
          </ns3:TrackPointExtension>
        </extensions>
      </trkpt>
      <trkpt lat="45.3220322169363498687744140625" lon="-71.0482800565659999847412109375">
        <ele>608.4000244140625</ele>
        <time>2026-08-21T22:08:34.000Z</time>
        <extensions>
          <ns3:TrackPointExtension>
            <ns3:hr>120</ns3:hr>
            <ns3:cad>0</ns3:cad>
          </ns3:TrackPointExtension>
        </extensions>
      </trkpt>
      <trkpt lat="45.322046466171741485595703125" lon="-71.04828734882175922393798828125">
        <ele>608.20001220703125</ele>
        <time>2026-08-21T22:08:35.000Z</time>
        <extensions>
          <ns3:TrackPointExtension>
            <ns3:hr>120</ns3:hr>
            <ns3:cad>0</ns3:cad>
          </ns3:TrackPointExtension>
        </extensions>
      </trkpt>
      <trkpt lat="45.3220597095787525177001953125" lon="-71.0482934676110744476318359375">
        <ele>608.20001220703125</ele>
        <time>2026-08-21T22:08:36.000Z</time>
        <extensions>
          <ns3:TrackPointExtension>
            <ns3:hr>120</ns3:hr>
            <ns3:cad>66</ns3:cad>
          </ns3:TrackPointExtension>
        </extensions>
      </trkpt>
      <trkpt lat="45.32207421027123928070068359375" lon="-71.04829539544880390167236328125">
        <ele>608</ele>
        <time>2026-08-21T22:08:37.000Z</time>
        <extensions>
          <ns3:TrackPointExtension>
            <ns3:hr>120</ns3:hr>
            <ns3:cad>66</ns3:cad>
          </ns3:TrackPointExtension>
        </extensions>
      </trkpt>
      <trkpt lat="45.32208963297307491302490234375" lon="-71.04829338379204273223876953125">
        <ele>607.79998779296875</ele>
        <time>2026-08-21T22:08:38.000Z</time>
        <extensions>
          <ns3:TrackPointExtension>
            <ns3:hr>120</ns3:hr>
            <ns3:cad>66</ns3:cad>
          </ns3:TrackPointExtension>
        </extensions>
      </trkpt>
      <trkpt lat="45.32210170291364192962646484375" lon="-71.048278547823429107666015625">
        <ele>607.5999755859375</ele>
        <time>2026-08-21T22:08:39.000Z</time>
        <extensions>
          <ns3:TrackPointExtension>
            <ns3:hr>119</ns3:hr>
            <ns3:cad>0</ns3:cad>
          </ns3:TrackPointExtension>
        </extensions>
      </trkpt>
      <trkpt lat="45.32211243174970149993896484375" lon="-71.0482656396925449371337890625">
        <ele>607.5999755859375</ele>
        <time>2026-08-21T22:08:40.000Z</time>
        <extensions>
          <ns3:TrackPointExtension>
            <ns3:hr>119</ns3:hr>
            <ns3:cad>0</ns3:cad>
          </ns3:TrackPointExtension>
        </extensions>
      </trkpt>
      <trkpt lat="45.32211896963417530059814453125" lon="-71.04825013317167758941650390625">
        <ele>607.4000244140625</ele>
        <time>2026-08-21T22:08:41.000Z</time>
        <extensions>
          <ns3:TrackPointExtension>
            <ns3:hr>119</ns3:hr>
            <ns3:cad>57</ns3:cad>
          </ns3:TrackPointExtension>
        </extensions>
      </trkpt>
      <trkpt lat="45.3221292793750762939453125" lon="-71.04823420755565166473388671875">
        <ele>607.20001220703125</ele>
        <time>2026-08-21T22:08:42.000Z</time>
        <extensions>
          <ns3:TrackPointExtension>
            <ns3:hr>119</ns3:hr>
            <ns3:cad>57</ns3:cad>
          </ns3:TrackPointExtension>
        </extensions>
      </trkpt>
      <trkpt lat="45.32214126549661159515380859375" lon="-71.04822901077568531036376953125">
        <ele>607.20001220703125</ele>
        <time>2026-08-21T22:08:43.000Z</time>
        <extensions>
          <ns3:TrackPointExtension>
            <ns3:hr>119</ns3:hr>
            <ns3:cad>57</ns3:cad>
          </ns3:TrackPointExtension>
        </extensions>
      </trkpt>
      <trkpt lat="45.3221532516181468963623046875" lon="-71.0482237301766872406005859375">
        <ele>607</ele>
        <time>2026-08-21T22:08:44.000Z</time>
        <extensions>
          <ns3:TrackPointExtension>
            <ns3:hr>119</ns3:hr>
            <ns3:cad>57</ns3:cad>
          </ns3:TrackPointExtension>
        </extensions>
      </trkpt>
      <trkpt lat="45.3221653215587139129638671875" lon="-71.04822549037635326385498046875">
        <ele>607</ele>
        <time>2026-08-21T22:08:45.000Z</time>
        <extensions>
          <ns3:TrackPointExtension>
            <ns3:hr>119</ns3:hr>
            <ns3:cad>57</ns3:cad>
          </ns3:TrackPointExtension>
        </extensions>
      </trkpt>
      <trkpt lat="45.32217160798609256744384765625" lon="-71.04822716675698757171630859375">
        <ele>607</ele>
        <time>2026-08-21T22:08:46.000Z</time>
        <extensions>
          <ns3:TrackPointExtension>
            <ns3:hr>120</ns3:hr>
            <ns3:cad>59</ns3:cad>
          </ns3:TrackPointExtension>
        </extensions>
      </trkpt>
      <trkpt lat="45.3221804089844226837158203125" lon="-71.0482311062514781951904296875">
        <ele>606.79998779296875</ele>
        <time>2026-08-21T22:08:47.000Z</time>
        <extensions>
          <ns3:TrackPointExtension>
            <ns3:hr>119</ns3:hr>
            <ns3:cad>59</ns3:cad>
          </ns3:TrackPointExtension>
        </extensions>
      </trkpt>
      <trkpt lat="45.32219055108726024627685546875" lon="-71.0482364706695079803466796875">
        <ele>606.5999755859375</ele>
        <time>2026-08-21T22:08:48.000Z</time>
        <extensions>
          <ns3:TrackPointExtension>
            <ns3:hr>119</ns3:hr>
            <ns3:cad>59</ns3:cad>
          </ns3:TrackPointExtension>
        </extensions>
      </trkpt>
      <trkpt lat="45.32220362685620784759521484375" lon="-71.0482420027256011962890625">
        <ele>606.4000244140625</ele>
        <time>2026-08-21T22:08:49.000Z</time>
        <extensions>
          <ns3:TrackPointExtension>
            <ns3:hr>119</ns3:hr>
            <ns3:cad>56</ns3:cad>
          </ns3:TrackPointExtension>
        </extensions>
      </trkpt>
      <trkpt lat="45.32221376895904541015625" lon="-71.0482401587069034576416015625">
        <ele>606.20001220703125</ele>
        <time>2026-08-21T22:08:50.000Z</time>
        <extensions>
          <ns3:TrackPointExtension>
            <ns3:hr>119</ns3:hr>
            <ns3:cad>56</ns3:cad>
          </ns3:TrackPointExtension>
        </extensions>
      </trkpt>
      <trkpt lat="45.32221846282482147216796875" lon="-71.04823756031692028045654296875">
        <ele>606.20001220703125</ele>
        <time>2026-08-21T22:08:51.000Z</time>
        <extensions>
          <ns3:TrackPointExtension>
            <ns3:hr>119</ns3:hr>
            <ns3:cad>0</ns3:cad>
          </ns3:TrackPointExtension>
        </extensions>
      </trkpt>
      <trkpt lat="45.3222206421196460723876953125" lon="-71.0482388176023960113525390625">
        <ele>606</ele>
        <time>2026-08-21T22:08:52.000Z</time>
        <extensions>
          <ns3:TrackPointExtension>
            <ns3:hr>119</ns3:hr>
            <ns3:cad>0</ns3:cad>
          </ns3:TrackPointExtension>
        </extensions>
      </trkpt>
      <trkpt lat="45.3222203068435192108154296875" lon="-71.04823923669755458831787109375">
        <ele>606</ele>
        <time>2026-08-21T22:08:53.000Z</time>
        <extensions>
          <ns3:TrackPointExtension>
            <ns3:hr>119</ns3:hr>
            <ns3:cad>0</ns3:cad>
          </ns3:TrackPointExtension>
        </extensions>
      </trkpt>
      <trkpt lat="45.3222203068435192108154296875" lon="-71.04823923669755458831787109375">
        <ele>606</ele>
        <time>2026-08-21T22:08:54.000Z</time>
        <extensions>
          <ns3:TrackPointExtension>
            <ns3:hr>119</ns3:hr>
            <ns3:cad>0</ns3:cad>
          </ns3:TrackPointExtension>
        </extensions>
      </trkpt>
      <trkpt lat="45.32222055830061435699462890625" lon="-71.04823940433561801910400390625">
        <ele>606</ele>
        <time>2026-08-21T22:08:55.000Z</time>
        <extensions>
          <ns3:TrackPointExtension>
            <ns3:hr>119</ns3:hr>
            <ns3:cad>0</ns3:cad>
          </ns3:TrackPointExtension>
        </extensions>
      </trkpt>
      <trkpt lat="45.32222525216639041900634765625" lon="-71.04825164191424846649169921875">
        <ele>605.79998779296875</ele>
        <time>2026-08-21T22:08:56.000Z</time>
        <extensions>
          <ns3:TrackPointExtension>
            <ns3:hr>119</ns3:hr>
            <ns3:cad>0</ns3:cad>
          </ns3:TrackPointExtension>
        </extensions>
      </trkpt>
      <trkpt lat="45.32223095186054706573486328125" lon="-71.048263795673847198486328125">
        <ele>605.5999755859375</ele>
        <time>2026-08-21T22:08:57.000Z</time>
        <extensions>
          <ns3:TrackPointExtension>
            <ns3:hr>119</ns3:hr>
            <ns3:cad>0</ns3:cad>
          </ns3:TrackPointExtension>
        </extensions>
      </trkpt>
      <trkpt lat="45.3222365677356719970703125" lon="-71.04827460832893848419189453125">
        <ele>605.4000244140625</ele>
        <time>2026-08-21T22:08:58.000Z</time>
        <extensions>
          <ns3:TrackPointExtension>
            <ns3:hr>119</ns3:hr>
            <ns3:cad>0</ns3:cad>
          </ns3:TrackPointExtension>
        </extensions>
      </trkpt>
      <trkpt lat="45.322244949638843536376953125" lon="-71.0482864268124103546142578125">
        <ele>605</ele>
        <time>2026-08-21T22:08:59.000Z</time>
        <extensions>
          <ns3:TrackPointExtension>
            <ns3:hr>118</ns3:hr>
            <ns3:cad>56</ns3:cad>
          </ns3:TrackPointExtension>
        </extensions>
      </trkpt>
      <trkpt lat="45.32224888913333415985107421875" lon="-71.0482964850962162017822265625">
        <ele>604.79998779296875</ele>
        <time>2026-08-21T22:09:00.000Z</time>
        <extensions>
          <ns3:TrackPointExtension>
            <ns3:hr>119</ns3:hr>
            <ns3:cad>56</ns3:cad>
          </ns3:TrackPointExtension>
        </extensions>
      </trkpt>
      <trkpt lat="45.32225006259977817535400390625" lon="-71.048301346600055694580078125">
        <ele>604.5999755859375</ele>
        <time>2026-08-21T22:09:01.000Z</time>
        <extensions>
          <ns3:TrackPointExtension>
            <ns3:hr>119</ns3:hr>
            <ns3:cad>56</ns3:cad>
          </ns3:TrackPointExtension>
        </extensions>
      </trkpt>
      <trkpt lat="45.32225760631263256072998046875" lon="-71.04831081815063953399658203125">
        <ele>604.4000244140625</ele>
        <time>2026-08-21T22:09:02.000Z</time>
        <extensions>
          <ns3:TrackPointExtension>
            <ns3:hr>119</ns3:hr>
            <ns3:cad>56</ns3:cad>
          </ns3:TrackPointExtension>
        </extensions>
      </trkpt>
      <trkpt lat="45.32226313836872577667236328125" lon="-71.04832171462476253509521484375">
        <ele>604.4000244140625</ele>
        <time>2026-08-21T22:09:03.000Z</time>
        <extensions>
          <ns3:TrackPointExtension>
            <ns3:hr>119</ns3:hr>
            <ns3:cad>56</ns3:cad>
          </ns3:TrackPointExtension>
        </extensions>
      </trkpt>
      <trkpt lat="45.3222672455012798309326171875" lon="-71.0483278334140777587890625">
        <ele>604.20001220703125</ele>
        <time>2026-08-21T22:09:04.000Z</time>
        <extensions>
          <ns3:TrackPointExtension>
            <ns3:hr>119</ns3:hr>
            <ns3:cad>56</ns3:cad>
          </ns3:TrackPointExtension>
        </extensions>
      </trkpt>
      <trkpt lat="45.322269760072231292724609375" lon="-71.0483300127089023590087890625">
        <ele>604</ele>
        <time>2026-08-21T22:09:05.000Z</time>
        <extensions>
          <ns3:TrackPointExtension>
            <ns3:hr>119</ns3:hr>
            <ns3:cad>0</ns3:cad>
          </ns3:TrackPointExtension>
        </extensions>
      </trkpt>
      <trkpt lat="45.322270430624485015869140625" lon="-71.04833244346082210540771484375">
        <ele>604</ele>
        <time>2026-08-21T22:09:06.000Z</time>
        <extensions>
          <ns3:TrackPointExtension>
            <ns3:hr>119</ns3:hr>
            <ns3:cad>0</ns3:cad>
          </ns3:TrackPointExtension>
        </extensions>
      </trkpt>
      <trkpt lat="45.32227487303316593170166015625" lon="-71.048336885869503021240234375">
        <ele>603.79998779296875</ele>
        <time>2026-08-21T22:09:07.000Z</time>
        <extensions>
          <ns3:TrackPointExtension>
            <ns3:hr>118</ns3:hr>
            <ns3:cad>0</ns3:cad>
          </ns3:TrackPointExtension>
        </extensions>
      </trkpt>
      <trkpt lat="45.3222796507179737091064453125" lon="-71.04833898134529590606689453125">
        <ele>603.79998779296875</ele>
        <time>2026-08-21T22:09:08.000Z</time>
        <extensions>
          <ns3:TrackPointExtension>
            <ns3:hr>118</ns3:hr>
            <ns3:cad>60</ns3:cad>
          </ns3:TrackPointExtension>
        </extensions>
      </trkpt>
      <trkpt lat="45.3222853504121303558349609375" lon="-71.048340909183025360107421875">
        <ele>603.5999755859375</ele>
        <time>2026-08-21T22:09:09.000Z</time>
        <extensions>
          <ns3:TrackPointExtension>
            <ns3:hr>118</ns3:hr>
            <ns3:cad>60</ns3:cad>
          </ns3:TrackPointExtension>
        </extensions>
      </trkpt>
      <trkpt lat="45.32229465432465076446533203125" lon="-71.04834568686783313751220703125">
        <ele>603.5999755859375</ele>
        <time>2026-08-21T22:09:10.000Z</time>
        <extensions>
          <ns3:TrackPointExtension>
            <ns3:hr>118</ns3:hr>
            <ns3:cad>0</ns3:cad>
          </ns3:TrackPointExtension>
        </extensions>
      </trkpt>
      <trkpt lat="45.32230471260845661163330078125" lon="-71.0483541525900363922119140625">
        <ele>603.20001220703125</ele>
        <time>2026-08-21T22:09:11.000Z</time>
        <extensions>
          <ns3:TrackPointExtension>
            <ns3:hr>118</ns3:hr>
            <ns3:cad>0</ns3:cad>
          </ns3:TrackPointExtension>
        </extensions>
      </trkpt>
      <trkpt lat="45.3223135136067867279052734375" lon="-71.048360355198383331298828125">
        <ele>603</ele>
        <time>2026-08-21T22:09:12.000Z</time>
        <extensions>
          <ns3:TrackPointExtension>
            <ns3:hr>117</ns3:hr>
            <ns3:cad>0</ns3:cad>
          </ns3:TrackPointExtension>
        </extensions>
      </trkpt>
      <trkpt lat="45.32232047058641910552978515625" lon="-71.0483648814260959625244140625">
        <ele>602.79998779296875</ele>
        <time>2026-08-21T22:09:13.000Z</time>
        <extensions>
          <ns3:TrackPointExtension>
            <ns3:hr>118</ns3:hr>
            <ns3:cad>0</ns3:cad>
          </ns3:TrackPointExtension>
        </extensions>
      </trkpt>
      <trkpt lat="45.32232767902314662933349609375" lon="-71.04836982674896717071533203125">
        <ele>602.4000244140625</ele>
        <time>2026-08-21T22:09:14.000Z</time>
        <extensions>
          <ns3:TrackPointExtension>
            <ns3:hr>118</ns3:hr>
            <ns3:cad>0</ns3:cad>
          </ns3:TrackPointExtension>
        </extensions>
      </trkpt>
      <trkpt lat="45.3223343007266521453857421875" lon="-71.04837586171925067901611328125">
        <ele>602.20001220703125</ele>
        <time>2026-08-21T22:09:15.000Z</time>
        <extensions>
          <ns3:TrackPointExtension>
            <ns3:hr>118</ns3:hr>
            <ns3:cad>62</ns3:cad>
          </ns3:TrackPointExtension>
        </extensions>
      </trkpt>
      <trkpt lat="45.3223396651446819305419921875" lon="-71.0483853332698345184326171875">
        <ele>602</ele>
        <time>2026-08-21T22:09:16.000Z</time>
        <extensions>
          <ns3:TrackPointExtension>
            <ns3:hr>117</ns3:hr>
            <ns3:cad>62</ns3:cad>
          </ns3:TrackPointExtension>
        </extensions>
      </trkpt>
      <trkpt lat="45.32234343700110912322998046875" lon="-71.04839145205914974212646484375">
        <ele>601.79998779296875</ele>
        <time>2026-08-21T22:09:17.000Z</time>
        <extensions>
          <ns3:TrackPointExtension>
            <ns3:hr>117</ns3:hr>
            <ns3:cad>62</ns3:cad>
          </ns3:TrackPointExtension>
        </extensions>
      </trkpt>
      <trkpt lat="45.3223467059433460235595703125" lon="-71.04840419255197048187255859375">
        <ele>601.4000244140625</ele>
        <time>2026-08-21T22:09:18.000Z</time>
        <extensions>
          <ns3:TrackPointExtension>
            <ns3:hr>117</ns3:hr>
            <ns3:cad>59</ns3:cad>
          </ns3:TrackPointExtension>
        </extensions>
      </trkpt>
      <trkpt lat="45.3223507292568683624267578125" lon="-71.04842045344412326812744140625">
        <ele>601.20001220703125</ele>
        <time>2026-08-21T22:09:19.000Z</time>
        <extensions>
          <ns3:TrackPointExtension>
            <ns3:hr>117</ns3:hr>
            <ns3:cad>59</ns3:cad>
          </ns3:TrackPointExtension>
        </extensions>
      </trkpt>
      <trkpt lat="45.32235751859843730926513671875" lon="-71.0484322719275951385498046875">
        <ele>601</ele>
        <time>2026-08-21T22:09:20.000Z</time>
        <extensions>
          <ns3:TrackPointExtension>
            <ns3:hr>116</ns3:hr>
            <ns3:cad>59</ns3:cad>
          </ns3:TrackPointExtension>
        </extensions>
      </trkpt>
      <trkpt lat="45.322366319596767425537109375" lon="-71.04844442568719387054443359375">
        <ele>600.5999755859375</ele>
        <time>2026-08-21T22:09:21.000Z</time>
        <extensions>
          <ns3:TrackPointExtension>
            <ns3:hr>116</ns3:hr>
            <ns3:cad>59</ns3:cad>
          </ns3:TrackPointExtension>
        </extensions>
      </trkpt>
      <trkpt lat="45.3223758749663829803466796875" lon="-71.0484557412564754486083984375">
        <ele>600.20001220703125</ele>
        <time>2026-08-21T22:09:22.000Z</time>
        <extensions>
          <ns3:TrackPointExtension>
            <ns3:hr>115</ns3:hr>
            <ns3:cad>0</ns3:cad>
          </ns3:TrackPointExtension>
        </extensions>
      </trkpt>
      <trkpt lat="45.32238400541245937347412109375" lon="-71.04846487753093242645263671875">
        <ele>599.79998779296875</ele>
        <time>2026-08-21T22:09:23.000Z</time>
        <extensions>
          <ns3:TrackPointExtension>
            <ns3:hr>115</ns3:hr>
            <ns3:cad>0</ns3:cad>
          </ns3:TrackPointExtension>
        </extensions>
      </trkpt>
      <trkpt lat="45.32239339314401149749755859375" lon="-71.04847040958702564239501953125">
        <ele>599.4000244140625</ele>
        <time>2026-08-21T22:09:24.000Z</time>
        <extensions>
          <ns3:TrackPointExtension>
            <ns3:hr>114</ns3:hr>
            <ns3:cad>0</ns3:cad>
          </ns3:TrackPointExtension>
        </extensions>
      </trkpt>
      <trkpt lat="45.32240294851362705230712890625" lon="-71.04847468435764312744140625">
        <ele>599.20001220703125</ele>
        <time>2026-08-21T22:09:25.000Z</time>
        <extensions>
          <ns3:TrackPointExtension>
            <ns3:hr>114</ns3:hr>
            <ns3:cad>0</ns3:cad>
          </ns3:TrackPointExtension>
        </extensions>
      </trkpt>
      <trkpt lat="45.32240831293165683746337890625" lon="-71.04848113842308521270751953125">
        <ele>598.79998779296875</ele>
        <time>2026-08-21T22:09:26.000Z</time>
        <extensions>
          <ns3:TrackPointExtension>
            <ns3:hr>114</ns3:hr>
            <ns3:cad>0</ns3:cad>
          </ns3:TrackPointExtension>
        </extensions>
      </trkpt>
      <trkpt lat="45.3224177844822406768798828125" lon="-71.04848750866949558258056640625">
        <ele>598.5999755859375</ele>
        <time>2026-08-21T22:09:27.000Z</time>
        <extensions>
          <ns3:TrackPointExtension>
            <ns3:hr>114</ns3:hr>
            <ns3:cad>68</ns3:cad>
          </ns3:TrackPointExtension>
        </extensions>
      </trkpt>
      <trkpt lat="45.32243027351796627044677734375" lon="-71.04848667047917842864990234375">
        <ele>598.4000244140625</ele>
        <time>2026-08-21T22:09:28.000Z</time>
        <extensions>
          <ns3:TrackPointExtension>
            <ns3:hr>114</ns3:hr>
            <ns3:cad>68</ns3:cad>
          </ns3:TrackPointExtension>
        </extensions>
      </trkpt>
      <trkpt lat="45.32244267873466014862060546875" lon="-71.04848331771790981292724609375">
        <ele>598.20001220703125</ele>
        <time>2026-08-21T22:09:29.000Z</time>
        <extensions>
          <ns3:TrackPointExtension>
            <ns3:hr>115</ns3:hr>
            <ns3:cad>68</ns3:cad>
          </ns3:TrackPointExtension>
        </extensions>
      </trkpt>
      <trkpt lat="45.32245776616036891937255859375" lon="-71.0484788753092288970947265625">
        <ele>597.79998779296875</ele>
        <time>2026-08-21T22:09:30.000Z</time>
        <extensions>
          <ns3:TrackPointExtension>
            <ns3:hr>114</ns3:hr>
            <ns3:cad>62</ns3:cad>
          </ns3:TrackPointExtension>
        </extensions>
      </trkpt>
      <trkpt lat="45.3224699199199676513671875" lon="-71.048474013805389404296875">
        <ele>597.5999755859375</ele>
        <time>2026-08-21T22:09:31.000Z</time>
        <extensions>
          <ns3:TrackPointExtension>
            <ns3:hr>114</ns3:hr>
            <ns3:cad>62</ns3:cad>
          </ns3:TrackPointExtension>
        </extensions>
      </trkpt>
      <trkpt lat="45.32248173840343952178955078125" lon="-71.04847124777734279632568359375">
        <ele>597.20001220703125</ele>
        <time>2026-08-21T22:09:32.000Z</time>
        <extensions>
          <ns3:TrackPointExtension>
            <ns3:hr>115</ns3:hr>
            <ns3:cad>63</ns3:cad>
          </ns3:TrackPointExtension>
        </extensions>
      </trkpt>
      <trkpt lat="45.32249481417238712310791015625" lon="-71.0484701581299304962158203125">
        <ele>596.79998779296875</ele>
        <time>2026-08-21T22:09:33.000Z</time>
        <extensions>
          <ns3:TrackPointExtension>
            <ns3:hr>115</ns3:hr>
            <ns3:cad>63</ns3:cad>
          </ns3:TrackPointExtension>
        </extensions>
      </trkpt>
      <trkpt lat="45.32251241616904735565185546875" lon="-71.0484644584357738494873046875">
        <ele>596.20001220703125</ele>
        <time>2026-08-21T22:09:34.000Z</time>
        <extensions>
          <ns3:TrackPointExtension>
            <ns3:hr>115</ns3:hr>
            <ns3:cad>63</ns3:cad>
          </ns3:TrackPointExtension>
        </extensions>
      </trkpt>
      <trkpt lat="45.32252557575702667236328125" lon="-71.0484500415623188018798828125">
        <ele>595.79998779296875</ele>
        <time>2026-08-21T22:09:35.000Z</time>
        <extensions>
          <ns3:TrackPointExtension>
            <ns3:hr>115</ns3:hr>
            <ns3:cad>63</ns3:cad>
          </ns3:TrackPointExtension>
        </extensions>
      </trkpt>
      <trkpt lat="45.32254032790660858154296875" lon="-71.04842615313827991485595703125">
        <ele>595.20001220703125</ele>
        <time>2026-08-21T22:09:36.000Z</time>
        <extensions>
          <ns3:TrackPointExtension>
            <ns3:hr>115</ns3:hr>
            <ns3:cad>63</ns3:cad>
          </ns3:TrackPointExtension>
        </extensions>
      </trkpt>
      <trkpt lat="45.3225505538284778594970703125" lon="-71.0484128259122371673583984375">
        <ele>594.79998779296875</ele>
        <time>2026-08-21T22:09:37.000Z</time>
        <extensions>
          <ns3:TrackPointExtension>
            <ns3:hr>115</ns3:hr>
            <ns3:cad>63</ns3:cad>
          </ns3:TrackPointExtension>
        </extensions>
      </trkpt>
      <trkpt lat="45.3225686587393283843994140625" lon="-71.04840821586549282073974609375">
        <ele>594.20001220703125</ele>
        <time>2026-08-21T22:09:38.000Z</time>
        <extensions>
          <ns3:TrackPointExtension>
            <ns3:hr>115</ns3:hr>
            <ns3:cad>63</ns3:cad>
          </ns3:TrackPointExtension>
        </extensions>
      </trkpt>
      <trkpt lat="45.3225852549076080322265625" lon="-71.048411987721920013427734375">
        <ele>593.79998779296875</ele>
        <time>2026-08-21T22:09:39.000Z</time>
        <extensions>
          <ns3:TrackPointExtension>
            <ns3:hr>115</ns3:hr>
            <ns3:cad>75</ns3:cad>
          </ns3:TrackPointExtension>
        </extensions>
      </trkpt>
      <trkpt lat="45.32260512001812458038330078125" lon="-71.0484114848077297210693359375">
        <ele>593.5999755859375</ele>
        <time>2026-08-21T22:09:40.000Z</time>
        <extensions>
          <ns3:TrackPointExtension>
            <ns3:hr>115</ns3:hr>
            <ns3:cad>75</ns3:cad>
          </ns3:TrackPointExtension>
        </extensions>
      </trkpt>
      <trkpt lat="45.32262146472930908203125" lon="-71.04840360581874847412109375">
        <ele>593.20001220703125</ele>
        <time>2026-08-21T22:09:41.000Z</time>
        <extensions>
          <ns3:TrackPointExtension>
            <ns3:hr>116</ns3:hr>
            <ns3:cad>75</ns3:cad>
          </ns3:TrackPointExtension>
        </extensions>
      </trkpt>
      <trkpt lat="45.32263713888823986053466796875" lon="-71.04839128442108631134033203125">
        <ele>593</ele>
        <time>2026-08-21T22:09:42.000Z</time>
        <extensions>
          <ns3:TrackPointExtension>
            <ns3:hr>117</ns3:hr>
            <ns3:cad>75</ns3:cad>
          </ns3:TrackPointExtension>
        </extensions>
      </trkpt>
      <trkpt lat="45.322651974856853485107421875" lon="-71.0483826510608196258544921875">
        <ele>592.79998779296875</ele>
        <time>2026-08-21T22:09:43.000Z</time>
        <extensions>
          <ns3:TrackPointExtension>
            <ns3:hr>118</ns3:hr>
            <ns3:cad>75</ns3:cad>
          </ns3:TrackPointExtension>
        </extensions>
      </trkpt>
      <trkpt lat="45.32266597263514995574951171875" lon="-71.04837904684245586395263671875">
        <ele>592.5999755859375</ele>
        <time>2026-08-21T22:09:44.000Z</time>
        <extensions>
          <ns3:TrackPointExtension>
            <ns3:hr>119</ns3:hr>
            <ns3:cad>74</ns3:cad>
          </ns3:TrackPointExtension>
        </extensions>
      </trkpt>
      <trkpt lat="45.3226764500141143798828125" lon="-71.048379130661487579345703125">
        <ele>592.4000244140625</ele>
        <time>2026-08-21T22:09:45.000Z</time>
        <extensions>
          <ns3:TrackPointExtension>
            <ns3:hr>119</ns3:hr>
            <ns3:cad>74</ns3:cad>
          </ns3:TrackPointExtension>
        </extensions>
      </trkpt>
      <trkpt lat="45.32268089242279529571533203125" lon="-71.04837083257734775543212890625">
        <ele>592.4000244140625</ele>
        <time>2026-08-21T22:09:46.000Z</time>
        <extensions>
          <ns3:TrackPointExtension>
            <ns3:hr>120</ns3:hr>
            <ns3:cad>74</ns3:cad>
          </ns3:TrackPointExtension>
        </extensions>
      </trkpt>
      <trkpt lat="45.32268893904983997344970703125" lon="-71.0483625344932079315185546875">
        <ele>592.20001220703125</ele>
        <time>2026-08-21T22:09:47.000Z</time>
        <extensions>
          <ns3:TrackPointExtension>
            <ns3:hr>120</ns3:hr>
            <ns3:cad>74</ns3:cad>
          </ns3:TrackPointExtension>
        </extensions>
      </trkpt>
      <trkpt lat="45.32269933260977268218994140625" lon="-71.04835306294262409210205078125">
        <ele>592.20001220703125</ele>
        <time>2026-08-21T22:09:48.000Z</time>
        <extensions>
          <ns3:TrackPointExtension>
            <ns3:hr>120</ns3:hr>
            <ns3:cad>74</ns3:cad>
          </ns3:TrackPointExtension>
        </extensions>
      </trkpt>
      <trkpt lat="45.32271056436002254486083984375" lon="-71.0483404062688350677490234375">
        <ele>592</ele>
        <time>2026-08-21T22:09:49.000Z</time>
        <extensions>
          <ns3:TrackPointExtension>
            <ns3:hr>120</ns3:hr>
            <ns3:cad>74</ns3:cad>
          </ns3:TrackPointExtension>
        </extensions>
      </trkpt>
      <trkpt lat="45.32271861098706722259521484375" lon="-71.0483246482908725738525390625">
        <ele>592</ele>
        <time>2026-08-21T22:09:50.000Z</time>
        <extensions>
          <ns3:TrackPointExtension>
            <ns3:hr>120</ns3:hr>
            <ns3:cad>74</ns3:cad>
          </ns3:TrackPointExtension>
        </extensions>
      </trkpt>
      <trkpt lat="45.322731435298919677734375" lon="-71.0483078844845294952392578125">
        <ele>591.79998779296875</ele>
        <time>2026-08-21T22:09:51.000Z</time>
        <extensions>
          <ns3:TrackPointExtension>
            <ns3:hr>120</ns3:hr>
            <ns3:cad>74</ns3:cad>
          </ns3:TrackPointExtension>
        </extensions>
      </trkpt>
      <trkpt lat="45.32273386605083942413330078125" lon="-71.04829975403845310211181640625">
        <ele>591.5999755859375</ele>
        <time>2026-08-21T22:09:52.000Z</time>
        <extensions>
          <ns3:TrackPointExtension>
            <ns3:hr>121</ns3:hr>
            <ns3:cad>74</ns3:cad>
          </ns3:TrackPointExtension>
        </extensions>
      </trkpt>
      <trkpt lat="45.322735123336315155029296875" lon="-71.04829891584813594818115234375">
        <ele>591.5999755859375</ele>
        <time>2026-08-21T22:09:53.000Z</time>
        <extensions>
          <ns3:TrackPointExtension>
            <ns3:hr>121</ns3:hr>
            <ns3:cad>74</ns3:cad>
          </ns3:TrackPointExtension>
        </extensions>
      </trkpt>
      <trkpt lat="45.32274526543915271759033203125" lon="-71.0482981614768505096435546875">
        <ele>591.4000244140625</ele>
        <time>2026-08-21T22:09:54.000Z</time>
        <extensions>
          <ns3:TrackPointExtension>
            <ns3:hr>120</ns3:hr>
            <ns3:cad>0</ns3:cad>
          </ns3:TrackPointExtension>
        </extensions>
      </trkpt>
      <trkpt lat="45.3227537311613559722900390625" lon="-71.0482951439917087554931640625">
        <ele>591.4000244140625</ele>
        <time>2026-08-21T22:09:55.000Z</time>
        <extensions>
          <ns3:TrackPointExtension>
            <ns3:hr>119</ns3:hr>
            <ns3:cad>0</ns3:cad>
          </ns3:TrackPointExtension>
        </extensions>
      </trkpt>
      <trkpt lat="45.32276923768222332000732421875" lon="-71.0482827387750148773193359375">
        <ele>591.4000244140625</ele>
        <time>2026-08-21T22:09:56.000Z</time>
        <extensions>
          <ns3:TrackPointExtension>
            <ns3:hr>118</ns3:hr>
            <ns3:cad>0</ns3:cad>
          </ns3:TrackPointExtension>
        </extensions>
      </trkpt>
      <trkpt lat="45.32278482802212238311767578125" lon="-71.0482607781887054443359375">
        <ele>591.20001220703125</ele>
        <time>2026-08-21T22:09:57.000Z</time>
        <extensions>
          <ns3:TrackPointExtension>
            <ns3:hr>117</ns3:hr>
            <ns3:cad>0</ns3:cad>
          </ns3:TrackPointExtension>
        </extensions>
      </trkpt>
      <trkpt lat="45.322793461382389068603515625" lon="-71.0482394881546497344970703125">
        <ele>590.79998779296875</ele>
        <time>2026-08-21T22:09:58.000Z</time>
        <extensions>
          <ns3:TrackPointExtension>
            <ns3:hr>117</ns3:hr>
            <ns3:cad>0</ns3:cad>
          </ns3:TrackPointExtension>
        </extensions>
      </trkpt>
      <trkpt lat="45.32280092127621173858642578125" lon="-71.04823202826082706451416015625">
        <ele>590.5999755859375</ele>
        <time>2026-08-21T22:09:59.000Z</time>
        <extensions>
          <ns3:TrackPointExtension>
            <ns3:hr>116</ns3:hr>
            <ns3:cad>0</ns3:cad>
          </ns3:TrackPointExtension>
        </extensions>
      </trkpt>
      <trkpt lat="45.3228110633790493011474609375" lon="-71.048222891986370086669921875">
        <ele>590.4000244140625</ele>
        <time>2026-08-21T22:10:00.000Z</time>
        <extensions>
          <ns3:TrackPointExtension>
            <ns3:hr>114</ns3:hr>
            <ns3:cad>0</ns3:cad>
          </ns3:TrackPointExtension>
        </extensions>
      </trkpt>
      <trkpt lat="45.322822965681552886962890625" lon="-71.04822414927184581756591796875">
        <ele>590.20001220703125</ele>
        <time>2026-08-21T22:10:01.000Z</time>
        <extensions>
          <ns3:TrackPointExtension>
            <ns3:hr>113</ns3:hr>
            <ns3:cad>75</ns3:cad>
          </ns3:TrackPointExtension>
        </extensions>
      </trkpt>
      <trkpt lat="45.32283796928822994232177734375" lon="-71.0482227243483066558837890625">
        <ele>590.20001220703125</ele>
        <time>2026-08-21T22:10:02.000Z</time>
        <extensions>
          <ns3:TrackPointExtension>
            <ns3:hr>110</ns3:hr>
            <ns3:cad>75</ns3:cad>
          </ns3:TrackPointExtension>
        </extensions>
      </trkpt>
      <trkpt lat="45.3228534758090972900390625" lon="-71.0482260771095752716064453125">
        <ele>589.79998779296875</ele>
        <time>2026-08-21T22:10:03.000Z</time>
        <extensions>
          <ns3:TrackPointExtension>
            <ns3:hr>110</ns3:hr>
            <ns3:cad>0</ns3:cad>
          </ns3:TrackPointExtension>
        </extensions>
      </trkpt>
      <trkpt lat="45.32286395318806171417236328125" lon="-71.04823051951825618743896484375">
        <ele>589.5999755859375</ele>
        <time>2026-08-21T22:10:04.000Z</time>
        <extensions>
          <ns3:TrackPointExtension>
            <ns3:hr>110</ns3:hr>
            <ns3:cad>0</ns3:cad>
          </ns3:TrackPointExtension>
        </extensions>
      </trkpt>
      <trkpt lat="45.32287518493831157684326171875" lon="-71.04824175126850605010986328125">
        <ele>589.4000244140625</ele>
        <time>2026-08-21T22:10:05.000Z</time>
        <extensions>
          <ns3:TrackPointExtension>
            <ns3:hr>111</ns3:hr>
            <ns3:cad>0</ns3:cad>
          </ns3:TrackPointExtension>
        </extensions>
      </trkpt>
      <trkpt lat="45.32288901507854461669921875" lon="-71.04825331829488277435302734375">
        <ele>589.20001220703125</ele>
        <time>2026-08-21T22:10:06.000Z</time>
        <extensions>
          <ns3:TrackPointExtension>
            <ns3:hr>111</ns3:hr>
            <ns3:cad>0</ns3:cad>
          </ns3:TrackPointExtension>
        </extensions>
      </trkpt>
      <trkpt lat="45.32290603034198284149169921875" lon="-71.048254072666168212890625">
        <ele>589</ele>
        <time>2026-08-21T22:10:07.000Z</time>
        <extensions>
          <ns3:TrackPointExtension>
            <ns3:hr>111</ns3:hr>
            <ns3:cad>0</ns3:cad>
          </ns3:TrackPointExtension>
        </extensions>
      </trkpt>
      <trkpt lat="45.32292396761476993560791015625" lon="-71.04825918562710285186767578125">
        <ele>588.79998779296875</ele>
        <time>2026-08-21T22:10:08.000Z</time>
        <extensions>
          <ns3:TrackPointExtension>
            <ns3:hr>112</ns3:hr>
            <ns3:cad>0</ns3:cad>
          </ns3:TrackPointExtension>
        </extensions>
      </trkpt>
      <trkpt lat="45.32294291071593761444091796875" lon="-71.04826337657868862152099609375">
        <ele>588.5999755859375</ele>
        <time>2026-08-21T22:10:09.000Z</time>
        <extensions>
          <ns3:TrackPointExtension>
            <ns3:hr>113</ns3:hr>
            <ns3:cad>0</ns3:cad>
          </ns3:TrackPointExtension>
        </extensions>
      </trkpt>
      <trkpt lat="45.32296051271259784698486328125" lon="-71.04826874099671840667724609375">
        <ele>588.4000244140625</ele>
        <time>2026-08-21T22:10:10.000Z</time>
        <extensions>
          <ns3:TrackPointExtension>
            <ns3:hr>114</ns3:hr>
            <ns3:cad>0</ns3:cad>
          </ns3:TrackPointExtension>
        </extensions>
      </trkpt>
      <trkpt lat="45.3229776956140995025634765625" lon="-71.04827326722443103790283203125">
        <ele>588.20001220703125</ele>
        <time>2026-08-21T22:10:11.000Z</time>
        <extensions>
          <ns3:TrackPointExtension>
            <ns3:hr>115</ns3:hr>
            <ns3:cad>0</ns3:cad>
          </ns3:TrackPointExtension>
        </extensions>
      </trkpt>
      <trkpt lat="45.32299521379172801971435546875" lon="-71.0482693277299404144287109375">
        <ele>587.79998779296875</ele>
        <time>2026-08-21T22:10:12.000Z</time>
        <extensions>
          <ns3:TrackPointExtension>
            <ns3:hr>115</ns3:hr>
            <ns3:cad>0</ns3:cad>
          </ns3:TrackPointExtension>
        </extensions>
      </trkpt>
      <trkpt lat="45.32301784493029117584228515625" lon="-71.04827058501541614532470703125">
        <ele>587.5999755859375</ele>
        <time>2026-08-21T22:10:13.000Z</time>
        <extensions>
          <ns3:TrackPointExtension>
            <ns3:hr>116</ns3:hr>
            <ns3:cad>0</ns3:cad>
          </ns3:TrackPointExtension>
        </extensions>
      </trkpt>
      <trkpt lat="45.32303980551660060882568359375" lon="-71.0482716746628284454345703125">
        <ele>587.20001220703125</ele>
        <time>2026-08-21T22:10:14.000Z</time>
        <extensions>
          <ns3:TrackPointExtension>
            <ns3:hr>116</ns3:hr>
            <ns3:cad>0</ns3:cad>
          </ns3:TrackPointExtension>
        </extensions>
      </trkpt>
      <trkpt lat="45.32305941917002201080322265625" lon="-71.048275865614414215087890625">
        <ele>586.79998779296875</ele>
        <time>2026-08-21T22:10:15.000Z</time>
        <extensions>
          <ns3:TrackPointExtension>
            <ns3:hr>117</ns3:hr>
            <ns3:cad>75</ns3:cad>
          </ns3:TrackPointExtension>
        </extensions>
      </trkpt>
      <trkpt lat="45.32307266257703304290771484375" lon="-71.04827729053795337677001953125">
        <ele>586.4000244140625</ele>
        <time>2026-08-21T22:10:16.000Z</time>
        <extensions>
          <ns3:TrackPointExtension>
            <ns3:hr>117</ns3:hr>
            <ns3:cad>75</ns3:cad>
          </ns3:TrackPointExtension>
        </extensions>
      </trkpt>
      <trkpt lat="45.323088169097900390625" lon="-71.04827863164246082305908203125">
        <ele>586.20001220703125</ele>
        <time>2026-08-21T22:10:17.000Z</time>
        <extensions>
          <ns3:TrackPointExtension>
            <ns3:hr>118</ns3:hr>
            <ns3:cad>75</ns3:cad>
          </ns3:TrackPointExtension>
        </extensions>
      </trkpt>
      <trkpt lat="45.32310501672327518463134765625" lon="-71.04828156530857086181640625">
        <ele>586</ele>
        <time>2026-08-21T22:10:18.000Z</time>
        <extensions>
          <ns3:TrackPointExtension>
            <ns3:hr>118</ns3:hr>
            <ns3:cad>75</ns3:cad>
          </ns3:TrackPointExtension>
        </extensions>
      </trkpt>
      <trkpt lat="45.3231225349009037017822265625" lon="-71.04828919284045696258544921875">
        <ele>585.79998779296875</ele>
        <time>2026-08-21T22:10:19.000Z</time>
        <extensions>
          <ns3:TrackPointExtension>
            <ns3:hr>119</ns3:hr>
            <ns3:cad>75</ns3:cad>
          </ns3:TrackPointExtension>
        </extensions>
      </trkpt>
      <trkpt lat="45.32314005307853221893310546875" lon="-71.0482924617826938629150390625">
        <ele>585.79998779296875</ele>
        <time>2026-08-21T22:10:20.000Z</time>
        <extensions>
          <ns3:TrackPointExtension>
            <ns3:hr>119</ns3:hr>
            <ns3:cad>75</ns3:cad>
          </ns3:TrackPointExtension>
        </extensions>
      </trkpt>
      <trkpt lat="45.32315564341843128204345703125" lon="-71.048291623592376708984375">
        <ele>585.5999755859375</ele>
        <time>2026-08-21T22:10:21.000Z</time>
        <extensions>
          <ns3:TrackPointExtension>
            <ns3:hr>119</ns3:hr>
            <ns3:cad>75</ns3:cad>
          </ns3:TrackPointExtension>
        </extensions>
      </trkpt>
      <trkpt lat="45.323173999786376953125" lon="-71.0482822358608245849609375">
        <ele>585.5999755859375</ele>
        <time>2026-08-21T22:10:22.000Z</time>
        <extensions>
          <ns3:TrackPointExtension>
            <ns3:hr>119</ns3:hr>
            <ns3:cad>75</ns3:cad>
          </ns3:TrackPointExtension>
        </extensions>
      </trkpt>
      <trkpt lat="45.3231922723352909088134765625" lon="-71.048281230032444000244140625">
        <ele>585.4000244140625</ele>
        <time>2026-08-21T22:10:23.000Z</time>
        <extensions>
          <ns3:TrackPointExtension>
            <ns3:hr>119</ns3:hr>
            <ns3:cad>75</ns3:cad>
          </ns3:TrackPointExtension>
        </extensions>
      </trkpt>
      <trkpt lat="45.3232100419700145721435546875" lon="-71.048286594450473785400390625">
        <ele>585.4000244140625</ele>
        <time>2026-08-21T22:10:24.000Z</time>
        <extensions>
          <ns3:TrackPointExtension>
            <ns3:hr>119</ns3:hr>
            <ns3:cad>75</ns3:cad>
          </ns3:TrackPointExtension>
        </extensions>
      </trkpt>
      <trkpt lat="45.3232244588434696197509765625" lon="-71.04828801937401294708251953125">
        <ele>585.4000244140625</ele>
        <time>2026-08-21T22:10:25.000Z</time>
        <extensions>
          <ns3:TrackPointExtension>
            <ns3:hr>120</ns3:hr>
            <ns3:cad>0</ns3:cad>
          </ns3:TrackPointExtension>
        </extensions>
      </trkpt>
      <trkpt lat="45.32324063591659069061279296875" lon="-71.0482924617826938629150390625">
        <ele>585.4000244140625</ele>
        <time>2026-08-21T22:10:26.000Z</time>
        <extensions>
          <ns3:TrackPointExtension>
            <ns3:hr>120</ns3:hr>
            <ns3:cad>0</ns3:cad>
          </ns3:TrackPointExtension>
        </extensions>
      </trkpt>
      <trkpt lat="45.323256142437458038330078125" lon="-71.048291958868503570556640625">
        <ele>585.20001220703125</ele>
        <time>2026-08-21T22:10:27.000Z</time>
        <extensions>
          <ns3:TrackPointExtension>
            <ns3:hr>120</ns3:hr>
            <ns3:cad>0</ns3:cad>
          </ns3:TrackPointExtension>
        </extensions>
      </trkpt>
      <trkpt lat="45.3232633508741855621337890625" lon="-71.0482860915362834930419921875">
        <ele>585.20001220703125</ele>
        <time>2026-08-21T22:10:28.000Z</time>
        <extensions>
          <ns3:TrackPointExtension>
            <ns3:hr>120</ns3:hr>
            <ns3:cad>0</ns3:cad>
          </ns3:TrackPointExtension>
        </extensions>
      </trkpt>
      <trkpt lat="45.32327835448086261749267578125" lon="-71.04828558862209320068359375">
        <ele>585</ele>
        <time>2026-08-21T22:10:29.000Z</time>
        <extensions>
          <ns3:TrackPointExtension>
            <ns3:hr>119</ns3:hr>
            <ns3:cad>0</ns3:cad>
          </ns3:TrackPointExtension>
        </extensions>
      </trkpt>
      <trkpt lat="45.32328506000339984893798828125" lon="-71.04829153977334499359130859375">
        <ele>585</ele>
        <time>2026-08-21T22:10:30.000Z</time>
        <extensions>
          <ns3:TrackPointExtension>
            <ns3:hr>120</ns3:hr>
            <ns3:cad>0</ns3:cad>
          </ns3:TrackPointExtension>
        </extensions>
      </trkpt>
      <trkpt lat="45.323287658393383026123046875" lon="-71.0483105666935443878173828125">
        <ele>584.79998779296875</ele>
        <time>2026-08-21T22:10:31.000Z</time>
        <extensions>
          <ns3:TrackPointExtension>
            <ns3:hr>120</ns3:hr>
            <ns3:cad>0</ns3:cad>
          </ns3:TrackPointExtension>
        </extensions>
      </trkpt>
      <trkpt lat="45.323283970355987548828125" lon="-71.04831987060606479644775390625">
        <ele>584.79998779296875</ele>
        <time>2026-08-21T22:10:32.000Z</time>
        <extensions>
          <ns3:TrackPointExtension>
            <ns3:hr>120</ns3:hr>
            <ns3:cad>0</ns3:cad>
          </ns3:TrackPointExtension>
        </extensions>
      </trkpt>
      <trkpt lat="45.32328464090824127197265625" lon="-71.04832640849053859710693359375">
        <ele>585</ele>
        <time>2026-08-21T22:10:33.000Z</time>
        <extensions>
          <ns3:TrackPointExtension>
            <ns3:hr>120</ns3:hr>
            <ns3:cad>0</ns3:cad>
          </ns3:TrackPointExtension>
        </extensions>
      </trkpt>
      <trkpt lat="45.32329134643077850341796875" lon="-71.0483370535075664520263671875">
        <ele>585</ele>
        <time>2026-08-21T22:10:34.000Z</time>
        <extensions>
          <ns3:TrackPointExtension>
            <ns3:hr>120</ns3:hr>
            <ns3:cad>0</ns3:cad>
          </ns3:TrackPointExtension>
        </extensions>
      </trkpt>
      <trkpt lat="45.32329780049622058868408203125" lon="-71.04834987781941890716552734375">
        <ele>585.20001220703125</ele>
        <time>2026-08-21T22:10:35.000Z</time>
        <extensions>
          <ns3:TrackPointExtension>
            <ns3:hr>121</ns3:hr>
            <ns3:cad>0</ns3:cad>
          </ns3:TrackPointExtension>
        </extensions>
      </trkpt>
      <trkpt lat="45.32330433838069438934326171875" lon="-71.04836949147284030914306640625">
        <ele>585.20001220703125</ele>
        <time>2026-08-21T22:10:36.000Z</time>
        <extensions>
          <ns3:TrackPointExtension>
            <ns3:hr>121</ns3:hr>
            <ns3:cad>0</ns3:cad>
          </ns3:TrackPointExtension>
        </extensions>
      </trkpt>
      <trkpt lat="45.32331012189388275146484375" lon="-71.04837988503277301788330078125">
        <ele>585.4000244140625</ele>
        <time>2026-08-21T22:10:37.000Z</time>
        <extensions>
          <ns3:TrackPointExtension>
            <ns3:hr>121</ns3:hr>
            <ns3:cad>0</ns3:cad>
          </ns3:TrackPointExtension>
        </extensions>
      </trkpt>
      <trkpt lat="45.3233223594725131988525390625" lon="-71.048403270542621612548828125">
        <ele>585.4000244140625</ele>
        <time>2026-08-21T22:10:38.000Z</time>
        <extensions>
          <ns3:TrackPointExtension>
            <ns3:hr>122</ns3:hr>
            <ns3:cad>0</ns3:cad>
          </ns3:TrackPointExtension>
        </extensions>
      </trkpt>
      <trkpt lat="45.32333065755665302276611328125" lon="-71.04841927997767925262451171875">
        <ele>585.4000244140625</ele>
        <time>2026-08-21T22:10:39.000Z</time>
        <extensions>
          <ns3:TrackPointExtension>
            <ns3:hr>122</ns3:hr>
            <ns3:cad>0</ns3:cad>
          </ns3:TrackPointExtension>
        </extensions>
      </trkpt>
      <trkpt lat="45.323337279260158538818359375" lon="-71.048436462879180908203125">
        <ele>585.5999755859375</ele>
        <time>2026-08-21T22:10:40.000Z</time>
        <extensions>
          <ns3:TrackPointExtension>
            <ns3:hr>123</ns3:hr>
            <ns3:cad>0</ns3:cad>
          </ns3:TrackPointExtension>
        </extensions>
      </trkpt>
      <trkpt lat="45.3233481757342815399169921875" lon="-71.048443503677845001220703125">
        <ele>585.79998779296875</ele>
        <time>2026-08-21T22:10:41.000Z</time>
        <extensions>
          <ns3:TrackPointExtension>
            <ns3:hr>124</ns3:hr>
            <ns3:cad>0</ns3:cad>
          </ns3:TrackPointExtension>
        </extensions>
      </trkpt>
      <trkpt lat="45.32335882075130939483642578125" lon="-71.04845766909420490264892578125">
        <ele>585.79998779296875</ele>
        <time>2026-08-21T22:10:42.000Z</time>
        <extensions>
          <ns3:TrackPointExtension>
            <ns3:hr>124</ns3:hr>
            <ns3:cad>0</ns3:cad>
          </ns3:TrackPointExtension>
        </extensions>
      </trkpt>
      <trkpt lat="45.32336787320673465728759765625" lon="-71.04846755973994731903076171875">
        <ele>586</ele>
        <time>2026-08-21T22:10:43.000Z</time>
        <extensions>
          <ns3:TrackPointExtension>
            <ns3:hr>125</ns3:hr>
            <ns3:cad>0</ns3:cad>
          </ns3:TrackPointExtension>
        </extensions>
      </trkpt>
      <trkpt lat="45.32337407581508159637451171875" lon="-71.04848097078502178192138671875">
        <ele>586.20001220703125</ele>
        <time>2026-08-21T22:10:44.000Z</time>
        <extensions>
          <ns3:TrackPointExtension>
            <ns3:hr>125</ns3:hr>
            <ns3:cad>0</ns3:cad>
          </ns3:TrackPointExtension>
        </extensions>
      </trkpt>
      <trkpt lat="45.32337985932826995849609375" lon="-71.04850150644779205322265625">
        <ele>586.20001220703125</ele>
        <time>2026-08-21T22:10:45.000Z</time>
        <extensions>
          <ns3:TrackPointExtension>
            <ns3:hr>126</ns3:hr>
            <ns3:cad>0</ns3:cad>
          </ns3:TrackPointExtension>
        </extensions>
      </trkpt>
      <trkpt lat="45.32338924705982208251953125" lon="-71.04851282201707363128662109375">
        <ele>586.20001220703125</ele>
        <time>2026-08-21T22:10:46.000Z</time>
        <extensions>
          <ns3:TrackPointExtension>
            <ns3:hr>127</ns3:hr>
            <ns3:cad>0</ns3:cad>
          </ns3:TrackPointExtension>
        </extensions>
      </trkpt>
      <trkpt lat="45.32339821569621562957763671875" lon="-71.0485209524631500244140625">
        <ele>586.4000244140625</ele>
        <time>2026-08-21T22:10:47.000Z</time>
        <extensions>
          <ns3:TrackPointExtension>
            <ns3:hr>127</ns3:hr>
            <ns3:cad>60</ns3:cad>
          </ns3:TrackPointExtension>
        </extensions>
      </trkpt>
      <trkpt lat="45.32340676523745059967041015625" lon="-71.048538051545619964599609375">
        <ele>586.4000244140625</ele>
        <time>2026-08-21T22:10:48.000Z</time>
        <extensions>
          <ns3:TrackPointExtension>
            <ns3:hr>127</ns3:hr>
            <ns3:cad>60</ns3:cad>
          </ns3:TrackPointExtension>
        </extensions>
      </trkpt>
      <trkpt lat="45.3234142251312732696533203125" lon="-71.04856093414127826690673828125">
        <ele>586.4000244140625</ele>
        <time>2026-08-21T22:10:49.000Z</time>
        <extensions>
          <ns3:TrackPointExtension>
            <ns3:hr>128</ns3:hr>
            <ns3:cad>56</ns3:cad>
          </ns3:TrackPointExtension>
        </extensions>
      </trkpt>
      <trkpt lat="45.32342118211090564727783203125" lon="-71.04857551865279674530029296875">
        <ele>586.5999755859375</ele>
        <time>2026-08-21T22:10:50.000Z</time>
        <extensions>
          <ns3:TrackPointExtension>
            <ns3:hr>128</ns3:hr>
            <ns3:cad>56</ns3:cad>
          </ns3:TrackPointExtension>
        </extensions>
      </trkpt>
      <trkpt lat="45.3234249539673328399658203125" lon="-71.04858088307082653045654296875">
        <ele>586.79998779296875</ele>
        <time>2026-08-21T22:10:51.000Z</time>
        <extensions>
          <ns3:TrackPointExtension>
            <ns3:hr>128</ns3:hr>
            <ns3:cad>56</ns3:cad>
          </ns3:TrackPointExtension>
        </extensions>
      </trkpt>
      <trkpt lat="45.323431156575679779052734375" lon="-71.04859211482107639312744140625">
        <ele>586.79998779296875</ele>
        <time>2026-08-21T22:10:52.000Z</time>
        <extensions>
          <ns3:TrackPointExtension>
            <ns3:hr>129</ns3:hr>
            <ns3:cad>56</ns3:cad>
          </ns3:TrackPointExtension>
        </extensions>
      </trkpt>
      <trkpt lat="45.32344129867851734161376953125" lon="-71.0486170090734958648681640625">
        <ele>587</ele>
        <time>2026-08-21T22:10:53.000Z</time>
        <extensions>
          <ns3:TrackPointExtension>
            <ns3:hr>130</ns3:hr>
            <ns3:cad>56</ns3:cad>
          </ns3:TrackPointExtension>
        </extensions>
      </trkpt>
      <trkpt lat="45.32344984821975231170654296875" lon="-71.048634611070156097412109375">
        <ele>587</ele>
        <time>2026-08-21T22:10:54.000Z</time>
        <extensions>
          <ns3:TrackPointExtension>
            <ns3:hr>130</ns3:hr>
            <ns3:cad>51</ns3:cad>
          </ns3:TrackPointExtension>
        </extensions>
      </trkpt>
      <trkpt lat="45.32345990650355815887451171875" lon="-71.04864961467683315277099609375">
        <ele>587.20001220703125</ele>
        <time>2026-08-21T22:10:55.000Z</time>
        <extensions>
          <ns3:TrackPointExtension>
            <ns3:hr>130</ns3:hr>
            <ns3:cad>51</ns3:cad>
          </ns3:TrackPointExtension>
        </extensions>
      </trkpt>
      <trkpt lat="45.32347164116799831390380859375" lon="-71.04866738431155681610107421875">
        <ele>587.20001220703125</ele>
        <time>2026-08-21T22:10:56.000Z</time>
        <extensions>
          <ns3:TrackPointExtension>
            <ns3:hr>131</ns3:hr>
            <ns3:cad>51</ns3:cad>
          </ns3:TrackPointExtension>
        </extensions>
      </trkpt>
      <trkpt lat="45.32348454929888248443603515625" lon="-71.04870510287582874298095703125">
        <ele>587.4000244140625</ele>
        <time>2026-08-21T22:10:57.000Z</time>
        <extensions>
          <ns3:TrackPointExtension>
            <ns3:hr>131</ns3:hr>
            <ns3:cad>0</ns3:cad>
          </ns3:TrackPointExtension>
        </extensions>
      </trkpt>
      <trkpt lat="45.32349393703043460845947265625" lon="-71.04872706346213817596435546875">
        <ele>587.5999755859375</ele>
        <time>2026-08-21T22:10:58.000Z</time>
        <extensions>
          <ns3:TrackPointExtension>
            <ns3:hr>131</ns3:hr>
            <ns3:cad>0</ns3:cad>
          </ns3:TrackPointExtension>
        </extensions>
      </trkpt>
      <trkpt lat="45.32350500114262104034423828125" lon="-71.04874801822006702423095703125">
        <ele>587.79998779296875</ele>
        <time>2026-08-21T22:10:59.000Z</time>
        <extensions>
          <ns3:TrackPointExtension>
            <ns3:hr>131</ns3:hr>
            <ns3:cad>0</ns3:cad>
          </ns3:TrackPointExtension>
        </extensions>
      </trkpt>
      <trkpt lat="45.323518998920917510986328125" lon="-71.04877416975796222686767578125">
        <ele>587.79998779296875</ele>
        <time>2026-08-21T22:11:00.000Z</time>
        <extensions>
          <ns3:TrackPointExtension>
            <ns3:hr>132</ns3:hr>
            <ns3:cad>0</ns3:cad>
          </ns3:TrackPointExtension>
        </extensions>
      </trkpt>
      <trkpt lat="45.3235282190144062042236328125" lon="-71.048800908029079437255859375">
        <ele>588</ele>
        <time>2026-08-21T22:11:01.000Z</time>
        <extensions>
          <ns3:TrackPointExtension>
            <ns3:hr>133</ns3:hr>
            <ns3:cad>75</ns3:cad>
          </ns3:TrackPointExtension>
        </extensions>
      </trkpt>
      <trkpt lat="45.32353852875530719757080078125" lon="-71.048821024596691131591796875">
        <ele>587.79998779296875</ele>
        <time>2026-08-21T22:11:02.000Z</time>
        <extensions>
          <ns3:TrackPointExtension>
            <ns3:hr>133</ns3:hr>
            <ns3:cad>75</ns3:cad>
          </ns3:TrackPointExtension>
        </extensions>
      </trkpt>
      <trkpt lat="45.3235481679439544677734375" lon="-71.04883619584143161773681640625">
        <ele>587.79998779296875</ele>
        <time>2026-08-21T22:11:03.000Z</time>
        <extensions>
          <ns3:TrackPointExtension>
            <ns3:hr>133</ns3:hr>
            <ns3:cad>75</ns3:cad>
          </ns3:TrackPointExtension>
        </extensions>
      </trkpt>
      <trkpt lat="45.323562584817409515380859375" lon="-71.048847176134586334228515625">
        <ele>587.5999755859375</ele>
        <time>2026-08-21T22:11:04.000Z</time>
        <extensions>
          <ns3:TrackPointExtension>
            <ns3:hr>133</ns3:hr>
            <ns3:cad>0</ns3:cad>
          </ns3:TrackPointExtension>
        </extensions>
      </trkpt>
      <trkpt lat="45.3235731460154056549072265625" lon="-71.0488669574260711669921875">
        <ele>587.4000244140625</ele>
        <time>2026-08-21T22:11:05.000Z</time>
        <extensions>
          <ns3:TrackPointExtension>
            <ns3:hr>134</ns3:hr>
            <ns3:cad>0</ns3:cad>
          </ns3:TrackPointExtension>
        </extensions>
      </trkpt>
      <trkpt lat="45.3235925920307636260986328125" lon="-71.0488936118781566619873046875">
        <ele>587.4000244140625</ele>
        <time>2026-08-21T22:11:06.000Z</time>
        <extensions>
          <ns3:TrackPointExtension>
            <ns3:hr>134</ns3:hr>
            <ns3:cad>0</ns3:cad>
          </ns3:TrackPointExtension>
        </extensions>
      </trkpt>
      <trkpt lat="45.32360642217099666595458984375" lon="-71.04891414754092693328857421875">
        <ele>587.20001220703125</ele>
        <time>2026-08-21T22:11:07.000Z</time>
        <extensions>
          <ns3:TrackPointExtension>
            <ns3:hr>135</ns3:hr>
            <ns3:cad>0</ns3:cad>
          </ns3:TrackPointExtension>
        </extensions>
      </trkpt>
      <trkpt lat="45.3236197493970394134521484375" lon="-71.0489321686327457427978515625">
        <ele>587</ele>
        <time>2026-08-21T22:11:08.000Z</time>
        <extensions>
          <ns3:TrackPointExtension>
            <ns3:hr>135</ns3:hr>
            <ns3:cad>0</ns3:cad>
          </ns3:TrackPointExtension>
        </extensions>
      </trkpt>
      <trkpt lat="45.32363559119403362274169921875" lon="-71.0489527881145477294921875">
        <ele>587</ele>
        <time>2026-08-21T22:11:09.000Z</time>
        <extensions>
          <ns3:TrackPointExtension>
            <ns3:hr>135</ns3:hr>
            <ns3:cad>0</ns3:cad>
          </ns3:TrackPointExtension>
        </extensions>
      </trkpt>
      <trkpt lat="45.323653779923915863037109375" lon="-71.04897365905344486236572265625">
        <ele>586.79998779296875</ele>
        <time>2026-08-21T22:11:10.000Z</time>
        <extensions>
          <ns3:TrackPointExtension>
            <ns3:hr>134</ns3:hr>
            <ns3:cad>0</ns3:cad>
          </ns3:TrackPointExtension>
        </extensions>
      </trkpt>
      <trkpt lat="45.32366911880671977996826171875" lon="-71.04899310506880283355712890625">
        <ele>586.5999755859375</ele>
        <time>2026-08-21T22:11:11.000Z</time>
        <extensions>
          <ns3:TrackPointExtension>
            <ns3:hr>134</ns3:hr>
            <ns3:cad>0</ns3:cad>
          </ns3:TrackPointExtension>
        </extensions>
      </trkpt>
      <trkpt lat="45.32368152402341365814208984375" lon="-71.04900919832289218902587890625">
        <ele>586.4000244140625</ele>
        <time>2026-08-21T22:11:12.000Z</time>
        <extensions>
          <ns3:TrackPointExtension>
            <ns3:hr>134</ns3:hr>
            <ns3:cad>74</ns3:cad>
          </ns3:TrackPointExtension>
        </extensions>
      </trkpt>
      <trkpt lat="45.32369728200137615203857421875" lon="-71.04902797378599643707275390625">
        <ele>586.4000244140625</ele>
        <time>2026-08-21T22:11:13.000Z</time>
        <extensions>
          <ns3:TrackPointExtension>
            <ns3:hr>134</ns3:hr>
            <ns3:cad>74</ns3:cad>
          </ns3:TrackPointExtension>
        </extensions>
      </trkpt>
      <trkpt lat="45.323706753551959991455078125" lon="-71.0490424744784832000732421875">
        <ele>586.20001220703125</ele>
        <time>2026-08-21T22:11:14.000Z</time>
        <extensions>
          <ns3:TrackPointExtension>
            <ns3:hr>134</ns3:hr>
            <ns3:cad>74</ns3:cad>
          </ns3:TrackPointExtension>
        </extensions>
      </trkpt>
      <trkpt lat="45.32371823675930500030517578125" lon="-71.04906099848449230194091796875">
        <ele>586</ele>
        <time>2026-08-21T22:11:15.000Z</time>
        <extensions>
          <ns3:TrackPointExtension>
            <ns3:hr>134</ns3:hr>
            <ns3:cad>74</ns3:cad>
          </ns3:TrackPointExtension>
        </extensions>
      </trkpt>
      <trkpt lat="45.323738940060138702392578125" lon="-71.04908128269016742706298828125">
        <ele>585.79998779296875</ele>
        <time>2026-08-21T22:11:16.000Z</time>
        <extensions>
          <ns3:TrackPointExtension>
            <ns3:hr>134</ns3:hr>
            <ns3:cad>74</ns3:cad>
          </ns3:TrackPointExtension>
        </extensions>
      </trkpt>
      <trkpt lat="45.32375260256230831146240234375" lon="-71.0490961186587810516357421875">
        <ele>585.4000244140625</ele>
        <time>2026-08-21T22:11:17.000Z</time>
        <extensions>
          <ns3:TrackPointExtension>
            <ns3:hr>135</ns3:hr>
            <ns3:cad>74</ns3:cad>
          </ns3:TrackPointExtension>
        </extensions>
      </trkpt>
      <trkpt lat="45.3237699531018733978271484375" lon="-71.04911145754158496856689453125">
        <ele>585.20001220703125</ele>
        <time>2026-08-21T22:11:18.000Z</time>
        <extensions>
          <ns3:TrackPointExtension>
            <ns3:hr>135</ns3:hr>
            <ns3:cad>74</ns3:cad>
          </ns3:TrackPointExtension>
        </extensions>
      </trkpt>
      <trkpt lat="45.323781855404376983642578125" lon="-71.049115397036075592041015625">
        <ele>585</ele>
        <time>2026-08-21T22:11:19.000Z</time>
        <extensions>
          <ns3:TrackPointExtension>
            <ns3:hr>135</ns3:hr>
            <ns3:cad>74</ns3:cad>
          </ns3:TrackPointExtension>
        </extensions>
      </trkpt>
      <trkpt lat="45.3237957693636417388916015625" lon="-71.04912771843373775482177734375">
        <ele>584.79998779296875</ele>
        <time>2026-08-21T22:11:20.000Z</time>
        <extensions>
          <ns3:TrackPointExtension>
            <ns3:hr>134</ns3:hr>
            <ns3:cad>74</ns3:cad>
          </ns3:TrackPointExtension>
        </extensions>
      </trkpt>
      <trkpt lat="45.323811359703540802001953125" lon="-71.049139201641082763671875">
        <ele>584.5999755859375</ele>
        <time>2026-08-21T22:11:21.000Z</time>
        <extensions>
          <ns3:TrackPointExtension>
            <ns3:hr>134</ns3:hr>
            <ns3:cad>74</ns3:cad>
          </ns3:TrackPointExtension>
        </extensions>
      </trkpt>
      <trkpt lat="45.32383315265178680419921875" lon="-71.049156971275806427001953125">
        <ele>584.4000244140625</ele>
        <time>2026-08-21T22:11:22.000Z</time>
        <extensions>
          <ns3:TrackPointExtension>
            <ns3:hr>134</ns3:hr>
            <ns3:cad>74</ns3:cad>
          </ns3:TrackPointExtension>
        </extensions>
      </trkpt>
      <trkpt lat="45.32385033555328845977783203125" lon="-71.04916744865477085113525390625">
        <ele>584.20001220703125</ele>
        <time>2026-08-21T22:11:23.000Z</time>
        <extensions>
          <ns3:TrackPointExtension>
            <ns3:hr>134</ns3:hr>
            <ns3:cad>71</ns3:cad>
          </ns3:TrackPointExtension>
        </extensions>
      </trkpt>
      <trkpt lat="45.32386307604610919952392578125" lon="-71.04917884804308414459228515625">
        <ele>584</ele>
        <time>2026-08-21T22:11:24.000Z</time>
        <extensions>
          <ns3:TrackPointExtension>
            <ns3:hr>135</ns3:hr>
            <ns3:cad>68</ns3:cad>
          </ns3:TrackPointExtension>
        </extensions>
      </trkpt>
      <trkpt lat="45.3238816000521183013916015625" lon="-71.04918957687914371490478515625">
        <ele>583.79998779296875</ele>
        <time>2026-08-21T22:11:25.000Z</time>
        <extensions>
          <ns3:TrackPointExtension>
            <ns3:hr>134</ns3:hr>
            <ns3:cad>68</ns3:cad>
          </ns3:TrackPointExtension>
        </extensions>
      </trkpt>
      <trkpt lat="45.32389794476330280303955078125" lon="-71.04919510893523693084716796875">
        <ele>583.4000244140625</ele>
        <time>2026-08-21T22:11:26.000Z</time>
        <extensions>
          <ns3:TrackPointExtension>
            <ns3:hr>134</ns3:hr>
            <ns3:cad>68</ns3:cad>
          </ns3:TrackPointExtension>
        </extensions>
      </trkpt>
      <trkpt lat="45.3239131160080432891845703125" lon="-71.04919946752488613128662109375">
        <ele>583.20001220703125</ele>
        <time>2026-08-21T22:11:27.000Z</time>
        <extensions>
          <ns3:TrackPointExtension>
            <ns3:hr>134</ns3:hr>
            <ns3:cad>68</ns3:cad>
          </ns3:TrackPointExtension>
        </extensions>
      </trkpt>
      <trkpt lat="45.32392124645411968231201171875" lon="-71.049209274351596832275390625">
        <ele>583</ele>
        <time>2026-08-21T22:11:28.000Z</time>
        <extensions>
          <ns3:TrackPointExtension>
            <ns3:hr>134</ns3:hr>
            <ns3:cad>68</ns3:cad>
          </ns3:TrackPointExtension>
        </extensions>
      </trkpt>
      <trkpt lat="45.323934741318225860595703125" lon="-71.0492191649973392486572265625">
        <ele>582.79998779296875</ele>
        <time>2026-08-21T22:11:29.000Z</time>
        <extensions>
          <ns3:TrackPointExtension>
            <ns3:hr>132</ns3:hr>
            <ns3:cad>60</ns3:cad>
          </ns3:TrackPointExtension>
        </extensions>
      </trkpt>
      <trkpt lat="45.323950834572315216064453125" lon="-71.049226708710193634033203125">
        <ele>582.5999755859375</ele>
        <time>2026-08-21T22:11:30.000Z</time>
        <extensions>
          <ns3:TrackPointExtension>
            <ns3:hr>130</ns3:hr>
            <ns3:cad>60</ns3:cad>
          </ns3:TrackPointExtension>
        </extensions>
      </trkpt>
      <trkpt lat="45.3239612281322479248046875" lon="-71.04923316277563571929931640625">
        <ele>582.5999755859375</ele>
        <time>2026-08-21T22:11:31.000Z</time>
        <extensions>
          <ns3:TrackPointExtension>
            <ns3:hr>128</ns3:hr>
            <ns3:cad>0</ns3:cad>
          </ns3:TrackPointExtension>
        </extensions>
      </trkpt>
      <trkpt lat="45.32397455535829067230224609375" lon="-71.049242131412029266357421875">
        <ele>582.4000244140625</ele>
        <time>2026-08-21T22:11:32.000Z</time>
        <extensions>
          <ns3:TrackPointExtension>
            <ns3:hr>127</ns3:hr>
            <ns3:cad>0</ns3:cad>
          </ns3:TrackPointExtension>
        </extensions>
      </trkpt>
      <trkpt lat="45.32397824339568614959716796875" lon="-71.049251519143581390380859375">
        <ele>582.4000244140625</ele>
        <time>2026-08-21T22:11:33.000Z</time>
        <extensions>
          <ns3:TrackPointExtension>
            <ns3:hr>128</ns3:hr>
            <ns3:cad>0</ns3:cad>
          </ns3:TrackPointExtension>
        </extensions>
      </trkpt>
      <trkpt lat="45.323989056050777435302734375" lon="-71.0492681153118610382080078125">
        <ele>582.4000244140625</ele>
        <time>2026-08-21T22:11:34.000Z</time>
        <extensions>
          <ns3:TrackPointExtension>
            <ns3:hr>128</ns3:hr>
            <ns3:cad>0</ns3:cad>
          </ns3:TrackPointExtension>
        </extensions>
      </trkpt>
      <trkpt lat="45.3240039758384227752685546875" lon="-71.049283035099506378173828125">
        <ele>582.4000244140625</ele>
        <time>2026-08-21T22:11:35.000Z</time>
        <extensions>
          <ns3:TrackPointExtension>
            <ns3:hr>128</ns3:hr>
            <ns3:cad>0</ns3:cad>
          </ns3:TrackPointExtension>
        </extensions>
      </trkpt>
      <trkpt lat="45.324019230902194976806640625" lon="-71.04929166845977306365966796875">
        <ele>582.4000244140625</ele>
        <time>2026-08-21T22:11:36.000Z</time>
        <extensions>
          <ns3:TrackPointExtension>
            <ns3:hr>127</ns3:hr>
            <ns3:cad>0</ns3:cad>
          </ns3:TrackPointExtension>
        </extensions>
      </trkpt>
      <trkpt lat="45.32403775490820407867431640625" lon="-71.049305163323879241943359375">
        <ele>582.5999755859375</ele>
        <time>2026-08-21T22:11:37.000Z</time>
        <extensions>
          <ns3:TrackPointExtension>
            <ns3:hr>128</ns3:hr>
            <ns3:cad>0</ns3:cad>
          </ns3:TrackPointExtension>
        </extensions>
      </trkpt>
      <trkpt lat="45.32404596917331218719482421875" lon="-71.04930994100868701934814453125">
        <ele>582.5999755859375</ele>
        <time>2026-08-21T22:11:38.000Z</time>
        <extensions>
          <ns3:TrackPointExtension>
            <ns3:hr>128</ns3:hr>
            <ns3:cad>0</ns3:cad>
          </ns3:TrackPointExtension>
        </extensions>
      </trkpt>
      <trkpt lat="45.32406172715127468109130859375" lon="-71.04931061156094074249267578125">
        <ele>582.5999755859375</ele>
        <time>2026-08-21T22:11:39.000Z</time>
        <extensions>
          <ns3:TrackPointExtension>
            <ns3:hr>128</ns3:hr>
            <ns3:cad>0</ns3:cad>
          </ns3:TrackPointExtension>
        </extensions>
      </trkpt>
      <trkpt lat="45.32408469356596469879150390625" lon="-71.04930290021002292633056640625">
        <ele>582.4000244140625</ele>
        <time>2026-08-21T22:11:40.000Z</time>
        <extensions>
          <ns3:TrackPointExtension>
            <ns3:hr>127</ns3:hr>
            <ns3:cad>0</ns3:cad>
          </ns3:TrackPointExtension>
        </extensions>
      </trkpt>
      <trkpt lat="45.32409693114459514617919921875" lon="-71.049303151667118072509765625">
        <ele>582.4000244140625</ele>
        <time>2026-08-21T22:11:41.000Z</time>
        <extensions>
          <ns3:TrackPointExtension>
            <ns3:hr>128</ns3:hr>
            <ns3:cad>0</ns3:cad>
          </ns3:TrackPointExtension>
        </extensions>
      </trkpt>
      <trkpt lat="45.32411302439868450164794921875" lon="-71.0493006370961666107177734375">
        <ele>582.4000244140625</ele>
        <time>2026-08-21T22:11:42.000Z</time>
        <extensions>
          <ns3:TrackPointExtension>
            <ns3:hr>128</ns3:hr>
            <ns3:cad>0</ns3:cad>
          </ns3:TrackPointExtension>
        </extensions>
      </trkpt>
      <trkpt lat="45.32412878237664699554443359375" lon="-71.0492942668497562408447265625">
        <ele>582.4000244140625</ele>
        <time>2026-08-21T22:11:43.000Z</time>
        <extensions>
          <ns3:TrackPointExtension>
            <ns3:hr>128</ns3:hr>
            <ns3:cad>0</ns3:cad>
          </ns3:TrackPointExtension>
        </extensions>
      </trkpt>
      <trkpt lat="45.3241514973342418670654296875" lon="-71.0492895729839801788330078125">
        <ele>582.20001220703125</ele>
        <time>2026-08-21T22:11:44.000Z</time>
        <extensions>
          <ns3:TrackPointExtension>
            <ns3:hr>128</ns3:hr>
            <ns3:cad>0</ns3:cad>
          </ns3:TrackPointExtension>
        </extensions>
      </trkpt>
      <trkpt lat="45.32416968606412410736083984375" lon="-71.04929066263139247894287109375">
        <ele>582.20001220703125</ele>
        <time>2026-08-21T22:11:45.000Z</time>
        <extensions>
          <ns3:TrackPointExtension>
            <ns3:hr>128</ns3:hr>
            <ns3:cad>0</ns3:cad>
          </ns3:TrackPointExtension>
        </extensions>
      </trkpt>
      <trkpt lat="45.3241823427379131317138671875" lon="-71.04928513057529926300048828125">
        <ele>582</ele>
        <time>2026-08-21T22:11:46.000Z</time>
        <extensions>
          <ns3:TrackPointExtension>
            <ns3:hr>128</ns3:hr>
            <ns3:cad>0</ns3:cad>
          </ns3:TrackPointExtension>
        </extensions>
      </trkpt>
      <trkpt lat="45.32419248484075069427490234375" lon="-71.04927456937730312347412109375">
        <ele>582</ele>
        <time>2026-08-21T22:11:47.000Z</time>
        <extensions>
          <ns3:TrackPointExtension>
            <ns3:hr>128</ns3:hr>
            <ns3:cad>0</ns3:cad>
          </ns3:TrackPointExtension>
        </extensions>
      </trkpt>
      <trkpt lat="45.3242044709622859954833984375" lon="-71.04926618747413158416748046875">
        <ele>582</ele>
        <time>2026-08-21T22:11:48.000Z</time>
        <extensions>
          <ns3:TrackPointExtension>
            <ns3:hr>128</ns3:hr>
            <ns3:cad>0</ns3:cad>
          </ns3:TrackPointExtension>
        </extensions>
      </trkpt>
      <trkpt lat="45.3242168761789798736572265625" lon="-71.049261577427387237548828125">
        <ele>581.79998779296875</ele>
        <time>2026-08-21T22:11:49.000Z</time>
        <extensions>
          <ns3:TrackPointExtension>
            <ns3:hr>128</ns3:hr>
            <ns3:cad>0</ns3:cad>
          </ns3:TrackPointExtension>
        </extensions>
      </trkpt>
      <trkpt lat="45.32423322089016437530517578125" lon="-71.04925998486578464508056640625">
        <ele>581.5999755859375</ele>
        <time>2026-08-21T22:11:50.000Z</time>
        <extensions>
          <ns3:TrackPointExtension>
            <ns3:hr>128</ns3:hr>
            <ns3:cad>0</ns3:cad>
          </ns3:TrackPointExtension>
        </extensions>
      </trkpt>
      <trkpt lat="45.32424487173557281494140625" lon="-71.049259565770626068115234375">
        <ele>581.5999755859375</ele>
        <time>2026-08-21T22:11:51.000Z</time>
        <extensions>
          <ns3:TrackPointExtension>
            <ns3:hr>128</ns3:hr>
            <ns3:cad>0</ns3:cad>
          </ns3:TrackPointExtension>
        </extensions>
      </trkpt>
      <trkpt lat="45.32425467856228351593017578125" lon="-71.0492590628564357757568359375">
        <ele>581.4000244140625</ele>
        <time>2026-08-21T22:11:52.000Z</time>
        <extensions>
          <ns3:TrackPointExtension>
            <ns3:hr>128</ns3:hr>
            <ns3:cad>0</ns3:cad>
          </ns3:TrackPointExtension>
        </extensions>
      </trkpt>
      <trkpt lat="45.324270687997341156005859375" lon="-71.04925596155226230621337890625">
        <ele>581.20001220703125</ele>
        <time>2026-08-21T22:11:53.000Z</time>
        <extensions>
          <ns3:TrackPointExtension>
            <ns3:hr>128</ns3:hr>
            <ns3:cad>0</ns3:cad>
          </ns3:TrackPointExtension>
        </extensions>
      </trkpt>
      <trkpt lat="45.32428937964141368865966796875" lon="-71.04925931431353092193603515625">
        <ele>581.20001220703125</ele>
        <time>2026-08-21T22:11:54.000Z</time>
        <extensions>
          <ns3:TrackPointExtension>
            <ns3:hr>128</ns3:hr>
            <ns3:cad>0</ns3:cad>
          </ns3:TrackPointExtension>
        </extensions>
      </trkpt>
      <trkpt lat="45.32430212013423442840576171875" lon="-71.04926199652254581451416015625">
        <ele>581.20001220703125</ele>
        <time>2026-08-21T22:11:55.000Z</time>
        <extensions>
          <ns3:TrackPointExtension>
            <ns3:hr>128</ns3:hr>
            <ns3:cad>55</ns3:cad>
          </ns3:TrackPointExtension>
        </extensions>
      </trkpt>
      <trkpt lat="45.3243147768080234527587890625" lon="-71.0492624156177043914794921875">
        <ele>581</ele>
        <time>2026-08-21T22:11:56.000Z</time>
        <extensions>
          <ns3:TrackPointExtension>
            <ns3:hr>127</ns3:hr>
            <ns3:cad>55</ns3:cad>
          </ns3:TrackPointExtension>
        </extensions>
      </trkpt>
      <trkpt lat="45.324328355491161346435546875" lon="-71.0492624156177043914794921875">
        <ele>580.79998779296875</ele>
        <time>2026-08-21T22:11:57.000Z</time>
        <extensions>
          <ns3:TrackPointExtension>
            <ns3:hr>126</ns3:hr>
            <ns3:cad>55</ns3:cad>
          </ns3:TrackPointExtension>
        </extensions>
      </trkpt>
      <trkpt lat="45.32434000633656978607177734375" lon="-71.04926585219800472259521484375">
        <ele>580.5999755859375</ele>
        <time>2026-08-21T22:11:58.000Z</time>
        <extensions>
          <ns3:TrackPointExtension>
            <ns3:hr>125</ns3:hr>
            <ns3:cad>55</ns3:cad>
          </ns3:TrackPointExtension>
        </extensions>
      </trkpt>
      <trkpt lat="45.32435174100100994110107421875" lon="-71.0492557100951671600341796875">
        <ele>580.4000244140625</ele>
        <time>2026-08-21T22:11:59.000Z</time>
        <extensions>
          <ns3:TrackPointExtension>
            <ns3:hr>125</ns3:hr>
            <ns3:cad>55</ns3:cad>
          </ns3:TrackPointExtension>
        </extensions>
      </trkpt>
      <trkpt lat="45.3243687562644481658935546875" lon="-71.0492523573338985443115234375">
        <ele>580.20001220703125</ele>
        <time>2026-08-21T22:12:00.000Z</time>
        <extensions>
          <ns3:TrackPointExtension>
            <ns3:hr>125</ns3:hr>
            <ns3:cad>55</ns3:cad>
          </ns3:TrackPointExtension>
        </extensions>
      </trkpt>
      <trkpt lat="45.32438107766211032867431640625" lon="-71.04925495572388172149658203125">
        <ele>580</ele>
        <time>2026-08-21T22:12:01.000Z</time>
        <extensions>
          <ns3:TrackPointExtension>
            <ns3:hr>124</ns3:hr>
            <ns3:cad>55</ns3:cad>
          </ns3:TrackPointExtension>
        </extensions>
      </trkpt>
      <trkpt lat="45.3244006074965000152587890625" lon="-71.0492590628564357757568359375">
        <ele>579.79998779296875</ele>
        <time>2026-08-21T22:12:02.000Z</time>
        <extensions>
          <ns3:TrackPointExtension>
            <ns3:hr>124</ns3:hr>
            <ns3:cad>55</ns3:cad>
          </ns3:TrackPointExtension>
        </extensions>
      </trkpt>
      <trkpt lat="45.32441494055092334747314453125" lon="-71.0492558777332305908203125">
        <ele>579.5999755859375</ele>
        <time>2026-08-21T22:12:03.000Z</time>
        <extensions>
          <ns3:TrackPointExtension>
            <ns3:hr>124</ns3:hr>
            <ns3:cad>55</ns3:cad>
          </ns3:TrackPointExtension>
        </extensions>
      </trkpt>
      <trkpt lat="45.324425585567951202392578125" lon="-71.0492530278861522674560546875">
        <ele>579.5999755859375</ele>
        <time>2026-08-21T22:12:04.000Z</time>
        <extensions>
          <ns3:TrackPointExtension>
            <ns3:hr>124</ns3:hr>
            <ns3:cad>64</ns3:cad>
          </ns3:TrackPointExtension>
        </extensions>
      </trkpt>
      <trkpt lat="45.32444042153656482696533203125" lon="-71.04924841783940792083740234375">
        <ele>579.4000244140625</ele>
        <time>2026-08-21T22:12:05.000Z</time>
        <extensions>
          <ns3:TrackPointExtension>
            <ns3:hr>124</ns3:hr>
            <ns3:cad>0</ns3:cad>
          </ns3:TrackPointExtension>
        </extensions>
      </trkpt>
      <trkpt lat="45.32445349730551242828369140625" lon="-71.04925311170518398284912109375">
        <ele>579.20001220703125</ele>
        <time>2026-08-21T22:12:06.000Z</time>
        <extensions>
          <ns3:TrackPointExtension>
            <ns3:hr>123</ns3:hr>
            <ns3:cad>0</ns3:cad>
          </ns3:TrackPointExtension>
        </extensions>
      </trkpt>
      <trkpt lat="45.32445986755192279815673828125" lon="-71.0492590628564357757568359375">
        <ele>579.20001220703125</ele>
        <time>2026-08-21T22:12:07.000Z</time>
        <extensions>
          <ns3:TrackPointExtension>
            <ns3:hr>123</ns3:hr>
            <ns3:cad>0</ns3:cad>
          </ns3:TrackPointExtension>
        </extensions>
      </trkpt>
      <trkpt lat="45.3244721889495849609375" lon="-71.04927054606378078460693359375">
        <ele>579</ele>
        <time>2026-08-21T22:12:08.000Z</time>
        <extensions>
          <ns3:TrackPointExtension>
            <ns3:hr>123</ns3:hr>
            <ns3:cad>0</ns3:cad>
          </ns3:TrackPointExtension>
        </extensions>
      </trkpt>
      <trkpt lat="45.32448685728013515472412109375" lon="-71.04927406646311283111572265625">
        <ele>578.79998779296875</ele>
        <time>2026-08-21T22:12:09.000Z</time>
        <extensions>
          <ns3:TrackPointExtension>
            <ns3:hr>122</ns3:hr>
            <ns3:cad>65</ns3:cad>
          </ns3:TrackPointExtension>
        </extensions>
      </trkpt>
      <trkpt lat="45.32449993304908275604248046875" lon="-71.049277670681476593017578125">
        <ele>578.79998779296875</ele>
        <time>2026-08-21T22:12:10.000Z</time>
        <extensions>
          <ns3:TrackPointExtension>
            <ns3:hr>122</ns3:hr>
            <ns3:cad>65</ns3:cad>
          </ns3:TrackPointExtension>
        </extensions>
      </trkpt>
      <trkpt lat="45.3245137631893157958984375" lon="-71.04927540756762027740478515625">
        <ele>578.5999755859375</ele>
        <time>2026-08-21T22:12:11.000Z</time>
        <extensions>
          <ns3:TrackPointExtension>
            <ns3:hr>122</ns3:hr>
            <ns3:cad>65</ns3:cad>
          </ns3:TrackPointExtension>
        </extensions>
      </trkpt>
      <trkpt lat="45.32453161664307117462158203125" lon="-71.049274317920207977294921875">
        <ele>578.5999755859375</ele>
        <time>2026-08-21T22:12:12.000Z</time>
        <extensions>
          <ns3:TrackPointExtension>
            <ns3:hr>122</ns3:hr>
            <ns3:cad>65</ns3:cad>
          </ns3:TrackPointExtension>
        </extensions>
      </trkpt>
      <trkpt lat="45.32454569824039936065673828125" lon="-71.04927523992955684661865234375">
        <ele>578.5999755859375</ele>
        <time>2026-08-21T22:12:13.000Z</time>
        <extensions>
          <ns3:TrackPointExtension>
            <ns3:hr>122</ns3:hr>
            <ns3:cad>65</ns3:cad>
          </ns3:TrackPointExtension>
        </extensions>
      </trkpt>
      <trkpt lat="45.32455466687679290771484375" lon="-71.04928261600434780120849609375">
        <ele>578.4000244140625</ele>
        <time>2026-08-21T22:12:14.000Z</time>
        <extensions>
          <ns3:TrackPointExtension>
            <ns3:hr>122</ns3:hr>
            <ns3:cad>62</ns3:cad>
          </ns3:TrackPointExtension>
        </extensions>
      </trkpt>
      <trkpt lat="45.3245679102838039398193359375" lon="-71.0492899082601070404052734375">
        <ele>578.20001220703125</ele>
        <time>2026-08-21T22:12:15.000Z</time>
        <extensions>
          <ns3:TrackPointExtension>
            <ns3:hr>122</ns3:hr>
            <ns3:cad>0</ns3:cad>
          </ns3:TrackPointExtension>
        </extensions>
      </trkpt>
      <trkpt lat="45.32458014786243438720703125" lon="-71.04928244836628437042236328125">
        <ele>578.20001220703125</ele>
        <time>2026-08-21T22:12:16.000Z</time>
        <extensions>
          <ns3:TrackPointExtension>
            <ns3:hr>121</ns3:hr>
            <ns3:cad>0</ns3:cad>
          </ns3:TrackPointExtension>
        </extensions>
      </trkpt>
      <trkpt lat="45.3245833329856395721435546875" lon="-71.04926669038832187652587890625">
        <ele>578.20001220703125</ele>
        <time>2026-08-21T22:12:17.000Z</time>
        <extensions>
          <ns3:TrackPointExtension>
            <ns3:hr>122</ns3:hr>
            <ns3:cad>0</ns3:cad>
          </ns3:TrackPointExtension>
        </extensions>
      </trkpt>
      <trkpt lat="45.3245903737843036651611328125" lon="-71.0492531955242156982421875">
        <ele>578.20001220703125</ele>
        <time>2026-08-21T22:12:18.000Z</time>
        <extensions>
          <ns3:TrackPointExtension>
            <ns3:hr>121</ns3:hr>
            <ns3:cad>0</ns3:cad>
          </ns3:TrackPointExtension>
        </extensions>
      </trkpt>
      <trkpt lat="45.3246047906577587127685546875" lon="-71.04924338869750499725341796875">
        <ele>578.20001220703125</ele>
        <time>2026-08-21T22:12:19.000Z</time>
        <extensions>
          <ns3:TrackPointExtension>
            <ns3:hr>121</ns3:hr>
            <ns3:cad>0</ns3:cad>
          </ns3:TrackPointExtension>
        </extensions>
      </trkpt>
      <trkpt lat="45.32461677677929401397705078125" lon="-71.04924120940268039703369140625">
        <ele>578</ele>
        <time>2026-08-21T22:12:20.000Z</time>
        <extensions>
          <ns3:TrackPointExtension>
            <ns3:hr>120</ns3:hr>
            <ns3:cad>0</ns3:cad>
          </ns3:TrackPointExtension>
        </extensions>
      </trkpt>
      <trkpt lat="45.3246289305388927459716796875" lon="-71.04924120940268039703369140625">
        <ele>578.20001220703125</ele>
        <time>2026-08-21T22:12:21.000Z</time>
        <extensions>
          <ns3:TrackPointExtension>
            <ns3:hr>119</ns3:hr>
            <ns3:cad>0</ns3:cad>
          </ns3:TrackPointExtension>
        </extensions>
      </trkpt>
      <trkpt lat="45.32464628107845783233642578125" lon="-71.04924288578331470489501953125">
        <ele>578.20001220703125</ele>
        <time>2026-08-21T22:12:22.000Z</time>
        <extensions>
          <ns3:TrackPointExtension>
            <ns3:hr>119</ns3:hr>
            <ns3:cad>0</ns3:cad>
          </ns3:TrackPointExtension>
        </extensions>
      </trkpt>
      <trkpt lat="45.3246612846851348876953125" lon="-71.04924573563039302825927734375">
        <ele>578.20001220703125</ele>
        <time>2026-08-21T22:12:23.000Z</time>
        <extensions>
          <ns3:TrackPointExtension>
            <ns3:hr>119</ns3:hr>
            <ns3:cad>0</ns3:cad>
          </ns3:TrackPointExtension>
        </extensions>
      </trkpt>
      <trkpt lat="45.32467109151184558868408203125" lon="-71.04925227351486682891845703125">
        <ele>578.20001220703125</ele>
        <time>2026-08-21T22:12:24.000Z</time>
        <extensions>
          <ns3:TrackPointExtension>
            <ns3:hr>119</ns3:hr>
            <ns3:cad>0</ns3:cad>
          </ns3:TrackPointExtension>
        </extensions>
      </trkpt>
      <trkpt lat="45.32468567602336406707763671875" lon="-71.0492637567222118377685546875">
        <ele>578.20001220703125</ele>
        <time>2026-08-21T22:12:25.000Z</time>
        <extensions>
          <ns3:TrackPointExtension>
            <ns3:hr>119</ns3:hr>
            <ns3:cad>0</ns3:cad>
          </ns3:TrackPointExtension>
        </extensions>
      </trkpt>
      <trkpt lat="45.32469422556459903717041015625" lon="-71.04927507229149341583251953125">
        <ele>578.20001220703125</ele>
        <time>2026-08-21T22:12:26.000Z</time>
        <extensions>
          <ns3:TrackPointExtension>
            <ns3:hr>120</ns3:hr>
            <ns3:cad>0</ns3:cad>
          </ns3:TrackPointExtension>
        </extensions>
      </trkpt>
      <trkpt lat="45.32471149228513240814208984375" lon="-71.04928328655660152435302734375">
        <ele>578</ele>
        <time>2026-08-21T22:12:27.000Z</time>
        <extensions>
          <ns3:TrackPointExtension>
            <ns3:hr>120</ns3:hr>
            <ns3:cad>0</ns3:cad>
          </ns3:TrackPointExtension>
        </extensions>
      </trkpt>
      <trkpt lat="45.32473060302436351776123046875" lon="-71.04929284192621707916259765625">
        <ele>578</ele>
        <time>2026-08-21T22:12:28.000Z</time>
        <extensions>
          <ns3:TrackPointExtension>
            <ns3:hr>120</ns3:hr>
            <ns3:cad>0</ns3:cad>
          </ns3:TrackPointExtension>
        </extensions>
      </trkpt>
      <trkpt lat="45.32475574873387813568115234375" lon="-71.0493013076484203338623046875">
        <ele>577.79998779296875</ele>
        <time>2026-08-21T22:12:29.000Z</time>
        <extensions>
          <ns3:TrackPointExtension>
            <ns3:hr>120</ns3:hr>
            <ns3:cad>0</ns3:cad>
          </ns3:TrackPointExtension>
        </extensions>
      </trkpt>
      <trkpt lat="45.324769578874111175537109375" lon="-71.04930776171386241912841796875">
        <ele>577.79998779296875</ele>
        <time>2026-08-21T22:12:30.000Z</time>
        <extensions>
          <ns3:TrackPointExtension>
            <ns3:hr>120</ns3:hr>
            <ns3:cad>0</ns3:cad>
          </ns3:TrackPointExtension>
        </extensions>
      </trkpt>
      <trkpt lat="45.3247811459004878997802734375" lon="-71.049318574368953704833984375">
        <ele>577.5999755859375</ele>
        <time>2026-08-21T22:12:31.000Z</time>
        <extensions>
          <ns3:TrackPointExtension>
            <ns3:hr>119</ns3:hr>
            <ns3:cad>0</ns3:cad>
          </ns3:TrackPointExtension>
        </extensions>
      </trkpt>
      <trkpt lat="45.32479933463037014007568359375" lon="-71.049332320690155029296875">
        <ele>577.5999755859375</ele>
        <time>2026-08-21T22:12:32.000Z</time>
        <extensions>
          <ns3:TrackPointExtension>
            <ns3:hr>120</ns3:hr>
            <ns3:cad>0</ns3:cad>
          </ns3:TrackPointExtension>
        </extensions>
      </trkpt>
      <trkpt lat="45.32481710426509380340576171875" lon="-71.04934237897396087646484375">
        <ele>577.5999755859375</ele>
        <time>2026-08-21T22:12:33.000Z</time>
        <extensions>
          <ns3:TrackPointExtension>
            <ns3:hr>120</ns3:hr>
            <ns3:cad>0</ns3:cad>
          </ns3:TrackPointExtension>
        </extensions>
      </trkpt>
      <trkpt lat="45.32482867129147052764892578125" lon="-71.0493457317352294921875">
        <ele>577.4000244140625</ele>
        <time>2026-08-21T22:12:34.000Z</time>
        <extensions>
          <ns3:TrackPointExtension>
            <ns3:hr>120</ns3:hr>
            <ns3:cad>0</ns3:cad>
          </ns3:TrackPointExtension>
        </extensions>
      </trkpt>
      <trkpt lat="45.32484208233654499053955078125" lon="-71.04935109615325927734375">
        <ele>577.4000244140625</ele>
        <time>2026-08-21T22:12:35.000Z</time>
        <extensions>
          <ns3:TrackPointExtension>
            <ns3:hr>120</ns3:hr>
            <ns3:cad>0</ns3:cad>
          </ns3:TrackPointExtension>
        </extensions>
      </trkpt>
      <trkpt lat="45.3248575888574123382568359375" lon="-71.04936383664608001708984375">
        <ele>577.20001220703125</ele>
        <time>2026-08-21T22:12:36.000Z</time>
        <extensions>
          <ns3:TrackPointExtension>
            <ns3:hr>119</ns3:hr>
            <ns3:cad>0</ns3:cad>
          </ns3:TrackPointExtension>
        </extensions>
      </trkpt>
      <trkpt lat="45.3248790465295314788818359375" lon="-71.049366183578968048095703125">
        <ele>577</ele>
        <time>2026-08-21T22:12:37.000Z</time>
        <extensions>
          <ns3:TrackPointExtension>
            <ns3:hr>120</ns3:hr>
            <ns3:cad>0</ns3:cad>
          </ns3:TrackPointExtension>
        </extensions>
      </trkpt>
      <trkpt lat="45.32489388249814510345458984375" lon="-71.04935687966644763946533203125">
        <ele>576.79998779296875</ele>
        <time>2026-08-21T22:12:38.000Z</time>
        <extensions>
          <ns3:TrackPointExtension>
            <ns3:hr>120</ns3:hr>
            <ns3:cad>0</ns3:cad>
          </ns3:TrackPointExtension>
        </extensions>
      </trkpt>
      <trkpt lat="45.3249021805822849273681640625" lon="-71.04935017414391040802001953125">
        <ele>576.5999755859375</ele>
        <time>2026-08-21T22:12:39.000Z</time>
        <extensions>
          <ns3:TrackPointExtension>
            <ns3:hr>120</ns3:hr>
            <ns3:cad>0</ns3:cad>
          </ns3:TrackPointExtension>
        </extensions>
      </trkpt>
      <trkpt lat="45.32491668127477169036865234375" lon="-71.04934372007846832275390625">
        <ele>576.4000244140625</ele>
        <time>2026-08-21T22:12:40.000Z</time>
        <extensions>
          <ns3:TrackPointExtension>
            <ns3:hr>120</ns3:hr>
            <ns3:cad>0</ns3:cad>
          </ns3:TrackPointExtension>
        </extensions>
      </trkpt>
      <trkpt lat="45.3249455988407135009765625" lon="-71.04934447444975376129150390625">
        <ele>576</ele>
        <time>2026-08-21T22:12:41.000Z</time>
        <extensions>
          <ns3:TrackPointExtension>
            <ns3:hr>120</ns3:hr>
            <ns3:cad>80</ns3:cad>
          </ns3:TrackPointExtension>
        </extensions>
      </trkpt>
      <trkpt lat="45.324969403445720672607421875" lon="-71.04934514500200748443603515625">
        <ele>575.79998779296875</ele>
        <time>2026-08-21T22:12:42.000Z</time>
        <extensions>
          <ns3:TrackPointExtension>
            <ns3:hr>119</ns3:hr>
            <ns3:cad>80</ns3:cad>
          </ns3:TrackPointExtension>
        </extensions>
      </trkpt>
      <trkpt lat="45.32498725689947605133056640625" lon="-71.049343049526214599609375">
        <ele>575.4000244140625</ele>
        <time>2026-08-21T22:12:43.000Z</time>
        <extensions>
          <ns3:TrackPointExtension>
            <ns3:hr>119</ns3:hr>
            <ns3:cad>75</ns3:cad>
          </ns3:TrackPointExtension>
        </extensions>
      </trkpt>
      <trkpt lat="45.32500527799129486083984375" lon="-71.0493358410894870758056640625">
        <ele>575.20001220703125</ele>
        <time>2026-08-21T22:12:44.000Z</time>
        <extensions>
          <ns3:TrackPointExtension>
            <ns3:hr>119</ns3:hr>
            <ns3:cad>75</ns3:cad>
          </ns3:TrackPointExtension>
        </extensions>
      </trkpt>
      <trkpt lat="45.3250225447118282318115234375" lon="-71.04932083748281002044677734375">
        <ele>575.20001220703125</ele>
        <time>2026-08-21T22:12:45.000Z</time>
        <extensions>
          <ns3:TrackPointExtension>
            <ns3:hr>118</ns3:hr>
            <ns3:cad>75</ns3:cad>
          </ns3:TrackPointExtension>
        </extensions>
      </trkpt>
      <trkpt lat="45.3250339441001415252685546875" lon="-71.0493029840290546417236328125">
        <ele>575.20001220703125</ele>
        <time>2026-08-21T22:12:46.000Z</time>
        <extensions>
          <ns3:TrackPointExtension>
            <ns3:hr>118</ns3:hr>
            <ns3:cad>75</ns3:cad>
          </ns3:TrackPointExtension>
        </extensions>
      </trkpt>
      <trkpt lat="45.3250408172607421875" lon="-71.04928881861269474029541015625">
        <ele>575.20001220703125</ele>
        <time>2026-08-21T22:12:47.000Z</time>
        <extensions>
          <ns3:TrackPointExtension>
            <ns3:hr>118</ns3:hr>
            <ns3:cad>75</ns3:cad>
          </ns3:TrackPointExtension>
        </extensions>
      </trkpt>
      <trkpt lat="45.3250460140407085418701171875" lon="-71.04928177781403064727783203125">
        <ele>575</ele>
        <time>2026-08-21T22:12:48.000Z</time>
        <extensions>
          <ns3:TrackPointExtension>
            <ns3:hr>118</ns3:hr>
            <ns3:cad>71</ns3:cad>
          </ns3:TrackPointExtension>
        </extensions>
      </trkpt>
      <trkpt lat="45.325053893029689788818359375" lon="-71.04927054606378078460693359375">
        <ele>575</ele>
        <time>2026-08-21T22:12:49.000Z</time>
        <extensions>
          <ns3:TrackPointExtension>
            <ns3:hr>119</ns3:hr>
            <ns3:cad>71</ns3:cad>
          </ns3:TrackPointExtension>
        </extensions>
      </trkpt>
      <trkpt lat="45.325065962970256805419921875" lon="-71.04926082305610179901123046875">
        <ele>574.79998779296875</ele>
        <time>2026-08-21T22:12:50.000Z</time>
        <extensions>
          <ns3:TrackPointExtension>
            <ns3:hr>119</ns3:hr>
            <ns3:cad>71</ns3:cad>
          </ns3:TrackPointExtension>
        </extensions>
      </trkpt>
      <trkpt lat="45.32507367432117462158203125" lon="-71.0492476634681224822998046875">
        <ele>574.5999755859375</ele>
        <time>2026-08-21T22:12:51.000Z</time>
        <extensions>
          <ns3:TrackPointExtension>
            <ns3:hr>120</ns3:hr>
            <ns3:cad>71</ns3:cad>
          </ns3:TrackPointExtension>
        </extensions>
      </trkpt>
      <trkpt lat="45.32508633099496364593505859375" lon="-71.04924104176461696624755859375">
        <ele>574.5999755859375</ele>
        <time>2026-08-21T22:12:52.000Z</time>
        <extensions>
          <ns3:TrackPointExtension>
            <ns3:hr>120</ns3:hr>
            <ns3:cad>71</ns3:cad>
          </ns3:TrackPointExtension>
        </extensions>
      </trkpt>
      <trkpt lat="45.32509571872651576995849609375" lon="-71.04923081584274768829345703125">
        <ele>574.4000244140625</ele>
        <time>2026-08-21T22:12:53.000Z</time>
        <extensions>
          <ns3:TrackPointExtension>
            <ns3:hr>119</ns3:hr>
            <ns3:cad>71</ns3:cad>
          </ns3:TrackPointExtension>
        </extensions>
      </trkpt>
      <trkpt lat="45.325105190277099609375" lon="-71.04922461323440074920654296875">
        <ele>574</ele>
        <time>2026-08-21T22:12:54.000Z</time>
        <extensions>
          <ns3:TrackPointExtension>
            <ns3:hr>119</ns3:hr>
            <ns3:cad>71</ns3:cad>
          </ns3:TrackPointExtension>
        </extensions>
      </trkpt>
      <trkpt lat="45.325112231075763702392578125" lon="-71.04921924881637096405029296875">
        <ele>573.79998779296875</ele>
        <time>2026-08-21T22:12:55.000Z</time>
        <extensions>
          <ns3:TrackPointExtension>
            <ns3:hr>119</ns3:hr>
            <ns3:cad>0</ns3:cad>
          </ns3:TrackPointExtension>
        </extensions>
      </trkpt>
      <trkpt lat="45.325123630464076995849609375" lon="-71.04921740479767322540283203125">
        <ele>573.5999755859375</ele>
        <time>2026-08-21T22:12:56.000Z</time>
        <extensions>
          <ns3:TrackPointExtension>
            <ns3:hr>118</ns3:hr>
            <ns3:cad>0</ns3:cad>
          </ns3:TrackPointExtension>
        </extensions>
      </trkpt>
      <trkpt lat="45.3251345269381999969482421875" lon="-71.049211956560611724853515625">
        <ele>573.4000244140625</ele>
        <time>2026-08-21T22:12:57.000Z</time>
        <extensions>
          <ns3:TrackPointExtension>
            <ns3:hr>117</ns3:hr>
            <ns3:cad>0</ns3:cad>
          </ns3:TrackPointExtension>
        </extensions>
      </trkpt>
      <trkpt lat="45.3251469321548938751220703125" lon="-71.04920499958097934722900390625">
        <ele>573</ele>
        <time>2026-08-21T22:12:58.000Z</time>
        <extensions>
          <ns3:TrackPointExtension>
            <ns3:hr>116</ns3:hr>
            <ns3:cad>55</ns3:cad>
          </ns3:TrackPointExtension>
        </extensions>
      </trkpt>
      <trkpt lat="45.325156152248382568359375" lon="-71.04920315556228160858154296875">
        <ele>572.5999755859375</ele>
        <time>2026-08-21T22:12:59.000Z</time>
        <extensions>
          <ns3:TrackPointExtension>
            <ns3:hr>115</ns3:hr>
            <ns3:cad>55</ns3:cad>
          </ns3:TrackPointExtension>
        </extensions>
      </trkpt>
      <trkpt lat="45.32517534680664539337158203125" lon="-71.0491963662207126617431640625">
        <ele>572.20001220703125</ele>
        <time>2026-08-21T22:13:00.000Z</time>
        <extensions>
          <ns3:TrackPointExtension>
            <ns3:hr>115</ns3:hr>
            <ns3:cad>55</ns3:cad>
          </ns3:TrackPointExtension>
        </extensions>
      </trkpt>
      <trkpt lat="45.3251891769468784332275390625" lon="-71.0491765849292278289794921875">
        <ele>571.5999755859375</ele>
        <time>2026-08-21T22:13:01.000Z</time>
        <extensions>
          <ns3:TrackPointExtension>
            <ns3:hr>115</ns3:hr>
            <ns3:cad>0</ns3:cad>
          </ns3:TrackPointExtension>
        </extensions>
      </trkpt>
      <trkpt lat="45.32519781030714511871337890625" lon="-71.04914967902004718780517578125">
        <ele>571.20001220703125</ele>
        <time>2026-08-21T22:13:02.000Z</time>
        <extensions>
          <ns3:TrackPointExtension>
            <ns3:hr>116</ns3:hr>
            <ns3:cad>0</ns3:cad>
          </ns3:TrackPointExtension>
        </extensions>
      </trkpt>
      <trkpt lat="45.32520703040063381195068359375" lon="-71.0491269640624523162841796875">
        <ele>570.5999755859375</ele>
        <time>2026-08-21T22:13:03.000Z</time>
        <extensions>
          <ns3:TrackPointExtension>
            <ns3:hr>116</ns3:hr>
            <ns3:cad>0</ns3:cad>
          </ns3:TrackPointExtension>
        </extensions>
      </trkpt>
      <trkpt lat="45.3252165019512176513671875" lon="-71.04910005815327167510986328125">
        <ele>570.20001220703125</ele>
        <time>2026-08-21T22:13:04.000Z</time>
        <extensions>
          <ns3:TrackPointExtension>
            <ns3:hr>116</ns3:hr>
            <ns3:cad>0</ns3:cad>
          </ns3:TrackPointExtension>
        </extensions>
      </trkpt>
      <trkpt lat="45.325224883854389190673828125" lon="-71.04908086359500885009765625">
        <ele>569.79998779296875</ele>
        <time>2026-08-21T22:13:05.000Z</time>
        <extensions>
          <ns3:TrackPointExtension>
            <ns3:hr>116</ns3:hr>
            <ns3:cad>0</ns3:cad>
          </ns3:TrackPointExtension>
        </extensions>
      </trkpt>
      <trkpt lat="45.3252280689775943756103515625" lon="-71.04905068874359130859375">
        <ele>569.20001220703125</ele>
        <time>2026-08-21T22:13:06.000Z</time>
        <extensions>
          <ns3:TrackPointExtension>
            <ns3:hr>116</ns3:hr>
            <ns3:cad>0</ns3:cad>
          </ns3:TrackPointExtension>
        </extensions>
      </trkpt>
      <trkpt lat="45.32522396184504032135009765625" lon="-71.049020178616046905517578125">
        <ele>569</ele>
        <time>2026-08-21T22:13:07.000Z</time>
        <extensions>
          <ns3:TrackPointExtension>
            <ns3:hr>116</ns3:hr>
            <ns3:cad>0</ns3:cad>
          </ns3:TrackPointExtension>
        </extensions>
      </trkpt>
      <trkpt lat="45.3252190165221691131591796875" lon="-71.048988662660121917724609375">
        <ele>568.79998779296875</ele>
        <time>2026-08-21T22:13:08.000Z</time>
        <extensions>
          <ns3:TrackPointExtension>
            <ns3:hr>116</ns3:hr>
            <ns3:cad>0</ns3:cad>
          </ns3:TrackPointExtension>
        </extensions>
      </trkpt>
      <trkpt lat="45.32521658577024936676025390625" lon="-71.04896829463541507720947265625">
        <ele>568.5999755859375</ele>
        <time>2026-08-21T22:13:09.000Z</time>
        <extensions>
          <ns3:TrackPointExtension>
            <ns3:hr>117</ns3:hr>
            <ns3:cad>0</ns3:cad>
          </ns3:TrackPointExtension>
        </extensions>
      </trkpt>
      <trkpt lat="45.325215496122837066650390625" lon="-71.048955135047435760498046875">
        <ele>568.5999755859375</ele>
        <time>2026-08-21T22:13:10.000Z</time>
        <extensions>
          <ns3:TrackPointExtension>
            <ns3:hr>117</ns3:hr>
            <ns3:cad>0</ns3:cad>
          </ns3:TrackPointExtension>
        </extensions>
      </trkpt>
      <trkpt lat="45.32521222718060016632080078125" lon="-71.048941053450107574462890625">
        <ele>568.4000244140625</ele>
        <time>2026-08-21T22:13:11.000Z</time>
        <extensions>
          <ns3:TrackPointExtension>
            <ns3:hr>118</ns3:hr>
            <ns3:cad>0</ns3:cad>
          </ns3:TrackPointExtension>
        </extensions>
      </trkpt>
      <trkpt lat="45.32521155662834644317626953125" lon="-71.0489257983863353729248046875">
        <ele>568.4000244140625</ele>
        <time>2026-08-21T22:13:12.000Z</time>
        <extensions>
          <ns3:TrackPointExtension>
            <ns3:hr>118</ns3:hr>
            <ns3:cad>0</ns3:cad>
          </ns3:TrackPointExtension>
        </extensions>
      </trkpt>
      <trkpt lat="45.32521658577024936676025390625" lon="-71.04891615919768810272216796875">
        <ele>568.20001220703125</ele>
        <time>2026-08-21T22:13:13.000Z</time>
        <extensions>
          <ns3:TrackPointExtension>
            <ns3:hr>118</ns3:hr>
            <ns3:cad>0</ns3:cad>
          </ns3:TrackPointExtension>
        </extensions>
      </trkpt>
      <trkpt lat="45.3252233751118183135986328125" lon="-71.04890844784677028656005859375">
        <ele>568</ele>
        <time>2026-08-21T22:13:14.000Z</time>
        <extensions>
          <ns3:TrackPointExtension>
            <ns3:hr>118</ns3:hr>
            <ns3:cad>0</ns3:cad>
          </ns3:TrackPointExtension>
        </extensions>
      </trkpt>
      <trkpt lat="45.32523133791983127593994140625" lon="-71.04891230352222919464111328125">
        <ele>567.79998779296875</ele>
        <time>2026-08-21T22:13:15.000Z</time>
        <extensions>
          <ns3:TrackPointExtension>
            <ns3:hr>118</ns3:hr>
            <ns3:cad>0</ns3:cad>
          </ns3:TrackPointExtension>
        </extensions>
      </trkpt>
      <trkpt lat="45.325241982936859130859375" lon="-71.04891414754092693328857421875">
        <ele>567.4000244140625</ele>
        <time>2026-08-21T22:13:16.000Z</time>
        <extensions>
          <ns3:TrackPointExtension>
            <ns3:hr>118</ns3:hr>
            <ns3:cad>0</ns3:cad>
          </ns3:TrackPointExtension>
        </extensions>
      </trkpt>
      <trkpt lat="45.32525246031582355499267578125" lon="-71.04891196824610233306884765625">
        <ele>567.20001220703125</ele>
        <time>2026-08-21T22:13:17.000Z</time>
        <extensions>
          <ns3:TrackPointExtension>
            <ns3:hr>118</ns3:hr>
            <ns3:cad>0</ns3:cad>
          </ns3:TrackPointExtension>
        </extensions>
      </trkpt>
      <trkpt lat="45.32526201568543910980224609375" lon="-71.04890459217131137847900390625">
        <ele>566.79998779296875</ele>
        <time>2026-08-21T22:13:18.000Z</time>
        <extensions>
          <ns3:TrackPointExtension>
            <ns3:hr>117</ns3:hr>
            <ns3:cad>71</ns3:cad>
          </ns3:TrackPointExtension>
        </extensions>
      </trkpt>
      <trkpt lat="45.3252672962844371795654296875" lon="-71.04889704845845699310302734375">
        <ele>566.5999755859375</ele>
        <time>2026-08-21T22:13:19.000Z</time>
        <extensions>
          <ns3:TrackPointExtension>
            <ns3:hr>118</ns3:hr>
            <ns3:cad>71</ns3:cad>
          </ns3:TrackPointExtension>
        </extensions>
      </trkpt>
      <trkpt lat="45.325274504721164703369140625" lon="-71.048892103135585784912109375">
        <ele>566.4000244140625</ele>
        <time>2026-08-21T22:13:20.000Z</time>
        <extensions>
          <ns3:TrackPointExtension>
            <ns3:hr>118</ns3:hr>
            <ns3:cad>71</ns3:cad>
          </ns3:TrackPointExtension>
        </extensions>
      </trkpt>
      <trkpt lat="45.32528749667108058929443359375" lon="-71.04888548143208026885986328125">
        <ele>566.4000244140625</ele>
        <time>2026-08-21T22:13:21.000Z</time>
        <extensions>
          <ns3:TrackPointExtension>
            <ns3:hr>117</ns3:hr>
            <ns3:cad>71</ns3:cad>
          </ns3:TrackPointExtension>
        </extensions>
      </trkpt>
      <trkpt lat="45.325300656259059906005859375" lon="-71.04887559078633785247802734375">
        <ele>566.20001220703125</ele>
        <time>2026-08-21T22:13:22.000Z</time>
        <extensions>
          <ns3:TrackPointExtension>
            <ns3:hr>116</ns3:hr>
            <ns3:cad>71</ns3:cad>
          </ns3:TrackPointExtension>
        </extensions>
      </trkpt>
      <trkpt lat="45.325316078960895538330078125" lon="-71.0488641075789928436279296875">
        <ele>566.20001220703125</ele>
        <time>2026-08-21T22:13:23.000Z</time>
        <extensions>
          <ns3:TrackPointExtension>
            <ns3:hr>116</ns3:hr>
            <ns3:cad>71</ns3:cad>
          </ns3:TrackPointExtension>
        </extensions>
      </trkpt>
      <trkpt lat="45.32533410005271434783935546875" lon="-71.048859246075153350830078125">
        <ele>566.20001220703125</ele>
        <time>2026-08-21T22:13:24.000Z</time>
        <extensions>
          <ns3:TrackPointExtension>
            <ns3:hr>116</ns3:hr>
            <ns3:cad>71</ns3:cad>
          </ns3:TrackPointExtension>
        </extensions>
      </trkpt>
      <trkpt lat="45.32534901984035968780517578125" lon="-71.04884994216263294219970703125">
        <ele>566</ele>
        <time>2026-08-21T22:13:25.000Z</time>
        <extensions>
          <ns3:TrackPointExtension>
            <ns3:hr>116</ns3:hr>
            <ns3:cad>71</ns3:cad>
          </ns3:TrackPointExtension>
        </extensions>
      </trkpt>
      <trkpt lat="45.3253668732941150665283203125" lon="-71.04883854277431964874267578125">
        <ele>565.79998779296875</ele>
        <time>2026-08-21T22:13:26.000Z</time>
        <extensions>
          <ns3:TrackPointExtension>
            <ns3:hr>117</ns3:hr>
            <ns3:cad>71</ns3:cad>
          </ns3:TrackPointExtension>
        </extensions>
      </trkpt>
      <trkpt lat="45.32538154162466526031494140625" lon="-71.048837117850780487060546875">
        <ele>565.79998779296875</ele>
        <time>2026-08-21T22:13:27.000Z</time>
        <extensions>
          <ns3:TrackPointExtension>
            <ns3:hr>117</ns3:hr>
            <ns3:cad>71</ns3:cad>
          </ns3:TrackPointExtension>
        </extensions>
      </trkpt>
      <trkpt lat="45.32540224492549896240234375" lon="-71.0488376207649707794189453125">
        <ele>565.5999755859375</ele>
        <time>2026-08-21T22:13:28.000Z</time>
        <extensions>
          <ns3:TrackPointExtension>
            <ns3:hr>117</ns3:hr>
            <ns3:cad>71</ns3:cad>
          </ns3:TrackPointExtension>
        </extensions>
      </trkpt>
      <trkpt lat="45.325417332351207733154296875" lon="-71.0488396324217319488525390625">
        <ele>565.5999755859375</ele>
        <time>2026-08-21T22:13:29.000Z</time>
        <extensions>
          <ns3:TrackPointExtension>
            <ns3:hr>117</ns3:hr>
            <ns3:cad>71</ns3:cad>
          </ns3:TrackPointExtension>
        </extensions>
      </trkpt>
      <trkpt lat="45.32543635927140712738037109375" lon="-71.0488453321158885955810546875">
        <ele>565.4000244140625</ele>
        <time>2026-08-21T22:13:30.000Z</time>
        <extensions>
          <ns3:TrackPointExtension>
            <ns3:hr>117</ns3:hr>
            <ns3:cad>71</ns3:cad>
          </ns3:TrackPointExtension>
        </extensions>
      </trkpt>
      <trkpt lat="45.32545714639127254486083984375" lon="-71.0488483496010303497314453125">
        <ele>565.4000244140625</ele>
        <time>2026-08-21T22:13:31.000Z</time>
        <extensions>
          <ns3:TrackPointExtension>
            <ns3:hr>117</ns3:hr>
            <ns3:cad>71</ns3:cad>
          </ns3:TrackPointExtension>
        </extensions>
      </trkpt>
      <trkpt lat="45.32547407783567905426025390625" lon="-71.048847846686840057373046875">
        <ele>565.20001220703125</ele>
        <time>2026-08-21T22:13:32.000Z</time>
        <extensions>
          <ns3:TrackPointExtension>
            <ns3:hr>117</ns3:hr>
            <ns3:cad>71</ns3:cad>
          </ns3:TrackPointExtension>
        </extensions>
      </trkpt>
      <trkpt lat="45.3254912607371807098388671875" lon="-71.048847846686840057373046875">
        <ele>564.79998779296875</ele>
        <time>2026-08-21T22:13:33.000Z</time>
        <extensions>
          <ns3:TrackPointExtension>
            <ns3:hr>118</ns3:hr>
            <ns3:cad>71</ns3:cad>
          </ns3:TrackPointExtension>
        </extensions>
      </trkpt>
      <trkpt lat="45.32550609670579433441162109375" lon="-71.04884323664009571075439453125">
        <ele>564.4000244140625</ele>
        <time>2026-08-21T22:13:34.000Z</time>
        <extensions>
          <ns3:TrackPointExtension>
            <ns3:hr>118</ns3:hr>
            <ns3:cad>71</ns3:cad>
          </ns3:TrackPointExtension>
        </extensions>
      </trkpt>
      <trkpt lat="45.32552235759794712066650390625" lon="-71.048837788403034210205078125">
        <ele>564</ele>
        <time>2026-08-21T22:13:35.000Z</time>
        <extensions>
          <ns3:TrackPointExtension>
            <ns3:hr>119</ns3:hr>
            <ns3:cad>71</ns3:cad>
          </ns3:TrackPointExtension>
        </extensions>
      </trkpt>
      <trkpt lat="45.3255385346710681915283203125" lon="-71.0488399676978588104248046875">
        <ele>563.5999755859375</ele>
        <time>2026-08-21T22:13:36.000Z</time>
        <extensions>
          <ns3:TrackPointExtension>
            <ns3:hr>119</ns3:hr>
            <ns3:cad>0</ns3:cad>
          </ns3:TrackPointExtension>
        </extensions>
      </trkpt>
      <trkpt lat="45.3255482576787471771240234375" lon="-71.0488449968397617340087890625">
        <ele>563.4000244140625</ele>
        <time>2026-08-21T22:13:37.000Z</time>
        <extensions>
          <ns3:TrackPointExtension>
            <ns3:hr>120</ns3:hr>
            <ns3:cad>0</ns3:cad>
          </ns3:TrackPointExtension>
        </extensions>
      </trkpt>
      <trkpt lat="45.3255683742463588714599609375" lon="-71.04884625412523746490478515625">
        <ele>562.79998779296875</ele>
        <time>2026-08-21T22:13:38.000Z</time>
        <extensions>
          <ns3:TrackPointExtension>
            <ns3:hr>120</ns3:hr>
            <ns3:cad>0</ns3:cad>
          </ns3:TrackPointExtension>
        </extensions>
      </trkpt>
      <trkpt lat="45.3255827911198139190673828125" lon="-71.04885078035295009613037109375">
        <ele>562.4000244140625</ele>
        <time>2026-08-21T22:13:39.000Z</time>
        <extensions>
          <ns3:TrackPointExtension>
            <ns3:hr>119</ns3:hr>
            <ns3:cad>0</ns3:cad>
          </ns3:TrackPointExtension>
        </extensions>
      </trkpt>
      <trkpt lat="45.3255941905081272125244140625" lon="-71.04885681532323360443115234375">
        <ele>562</ele>
        <time>2026-08-21T22:13:40.000Z</time>
        <extensions>
          <ns3:TrackPointExtension>
            <ns3:hr>119</ns3:hr>
            <ns3:cad>0</ns3:cad>
          </ns3:TrackPointExtension>
        </extensions>
      </trkpt>
      <trkpt lat="45.32560399733483791351318359375" lon="-71.04886301793158054351806640625">
        <ele>561.4000244140625</ele>
        <time>2026-08-21T22:13:41.000Z</time>
        <extensions>
          <ns3:TrackPointExtension>
            <ns3:hr>119</ns3:hr>
            <ns3:cad>0</ns3:cad>
          </ns3:TrackPointExtension>
        </extensions>
      </trkpt>
      <trkpt lat="45.3256112895905971527099609375" lon="-71.04886452667415142059326171875">
        <ele>561</ele>
        <time>2026-08-21T22:13:42.000Z</time>
        <extensions>
          <ns3:TrackPointExtension>
            <ns3:hr>119</ns3:hr>
            <ns3:cad>0</ns3:cad>
          </ns3:TrackPointExtension>
        </extensions>
      </trkpt>
      <trkpt lat="45.3256297297775745391845703125" lon="-71.04886201210319995880126953125">
        <ele>560.79998779296875</ele>
        <time>2026-08-21T22:13:43.000Z</time>
        <extensions>
          <ns3:TrackPointExtension>
            <ns3:hr>120</ns3:hr>
            <ns3:cad>0</ns3:cad>
          </ns3:TrackPointExtension>
        </extensions>
      </trkpt>
      <trkpt lat="45.3256441466510295867919921875" lon="-71.04886385612189769744873046875">
        <ele>560.5999755859375</ele>
        <time>2026-08-21T22:13:44.000Z</time>
        <extensions>
          <ns3:TrackPointExtension>
            <ns3:hr>121</ns3:hr>
            <ns3:cad>0</ns3:cad>
          </ns3:TrackPointExtension>
        </extensions>
      </trkpt>
      <trkpt lat="45.325662083923816680908203125" lon="-71.04886570014059543609619140625">
        <ele>560.5999755859375</ele>
        <time>2026-08-21T22:13:45.000Z</time>
        <extensions>
          <ns3:TrackPointExtension>
            <ns3:hr>122</ns3:hr>
            <ns3:cad>0</ns3:cad>
          </ns3:TrackPointExtension>
        </extensions>
      </trkpt>
      <trkpt lat="45.32568882219493389129638671875" lon="-71.04887207038700580596923828125">
        <ele>560.4000244140625</ele>
        <time>2026-08-21T22:13:46.000Z</time>
        <extensions>
          <ns3:TrackPointExtension>
            <ns3:hr>122</ns3:hr>
            <ns3:cad>0</ns3:cad>
          </ns3:TrackPointExtension>
        </extensions>
      </trkpt>
      <trkpt lat="45.32570541836321353912353515625" lon="-71.04886720888316631317138671875">
        <ele>560.4000244140625</ele>
        <time>2026-08-21T22:13:47.000Z</time>
        <extensions>
          <ns3:TrackPointExtension>
            <ns3:hr>122</ns3:hr>
            <ns3:cad>0</ns3:cad>
          </ns3:TrackPointExtension>
        </extensions>
      </trkpt>
      <trkpt lat="45.32572067342698574066162109375" lon="-71.0488647781312465667724609375">
        <ele>560.20001220703125</ele>
        <time>2026-08-21T22:13:48.000Z</time>
        <extensions>
          <ns3:TrackPointExtension>
            <ns3:hr>122</ns3:hr>
            <ns3:cad>0</ns3:cad>
          </ns3:TrackPointExtension>
        </extensions>
      </trkpt>
      <trkpt lat="45.32573324628174304962158203125" lon="-71.04886360466480255126953125">
        <ele>560</ele>
        <time>2026-08-21T22:13:49.000Z</time>
        <extensions>
          <ns3:TrackPointExtension>
            <ns3:hr>123</ns3:hr>
            <ns3:cad>0</ns3:cad>
          </ns3:TrackPointExtension>
        </extensions>
      </trkpt>
      <trkpt lat="45.32574263401329517364501953125" lon="-71.048865281045436859130859375">
        <ele>559.5999755859375</ele>
        <time>2026-08-21T22:13:50.000Z</time>
        <extensions>
          <ns3:TrackPointExtension>
            <ns3:hr>122</ns3:hr>
            <ns3:cad>0</ns3:cad>
          </ns3:TrackPointExtension>
        </extensions>
      </trkpt>
      <trkpt lat="45.325744561851024627685546875" lon="-71.04886989109218120574951171875">
        <ele>559.20001220703125</ele>
        <time>2026-08-21T22:13:51.000Z</time>
        <extensions>
          <ns3:TrackPointExtension>
            <ns3:hr>122</ns3:hr>
            <ns3:cad>77</ns3:cad>
          </ns3:TrackPointExtension>
        </extensions>
      </trkpt>
      <trkpt lat="45.32574154436588287353515625" lon="-71.04888849891722202301025390625">
        <ele>559</ele>
        <time>2026-08-21T22:13:52.000Z</time>
        <extensions>
          <ns3:TrackPointExtension>
            <ns3:hr>122</ns3:hr>
            <ns3:cad>77</ns3:cad>
          </ns3:TrackPointExtension>
        </extensions>
      </trkpt>
      <trkpt lat="45.3257397003471851348876953125" lon="-71.04890727438032627105712890625">
        <ele>558.79998779296875</ele>
        <time>2026-08-21T22:13:53.000Z</time>
        <extensions>
          <ns3:TrackPointExtension>
            <ns3:hr>122</ns3:hr>
            <ns3:cad>77</ns3:cad>
          </ns3:TrackPointExtension>
        </extensions>
      </trkpt>
      <trkpt lat="45.325740873813629150390625" lon="-71.04892353527247905731201171875">
        <ele>558.5999755859375</ele>
        <time>2026-08-21T22:13:54.000Z</time>
        <extensions>
          <ns3:TrackPointExtension>
            <ns3:hr>122</ns3:hr>
            <ns3:cad>77</ns3:cad>
          </ns3:TrackPointExtension>
        </extensions>
      </trkpt>
      <trkpt lat="45.32575017772614955902099609375" lon="-71.0489445738494396209716796875">
        <ele>558.4000244140625</ele>
        <time>2026-08-21T22:13:55.000Z</time>
        <extensions>
          <ns3:TrackPointExtension>
            <ns3:hr>122</ns3:hr>
            <ns3:cad>77</ns3:cad>
          </ns3:TrackPointExtension>
        </extensions>
      </trkpt>
      <trkpt lat="45.32576258294284343719482421875" lon="-71.0489630140364170074462890625">
        <ele>558.20001220703125</ele>
        <time>2026-08-21T22:13:56.000Z</time>
        <extensions>
          <ns3:TrackPointExtension>
            <ns3:hr>122</ns3:hr>
            <ns3:cad>77</ns3:cad>
          </ns3:TrackPointExtension>
        </extensions>
      </trkpt>
      <trkpt lat="45.32576895318925380706787109375" lon="-71.04896879754960536956787109375">
        <ele>558</ele>
        <time>2026-08-21T22:13:57.000Z</time>
        <extensions>
          <ns3:TrackPointExtension>
            <ns3:hr>122</ns3:hr>
            <ns3:cad>77</ns3:cad>
          </ns3:TrackPointExtension>
        </extensions>
      </trkpt>
      <trkpt lat="45.32578177750110626220703125" lon="-71.04897634126245975494384765625">
        <ele>557.79998779296875</ele>
        <time>2026-08-21T22:13:58.000Z</time>
        <extensions>
          <ns3:TrackPointExtension>
            <ns3:hr>121</ns3:hr>
            <ns3:cad>77</ns3:cad>
          </ns3:TrackPointExtension>
        </extensions>
      </trkpt>
      <trkpt lat="45.32580189406871795654296875" lon="-71.04899109341204166412353515625">
        <ele>557.20001220703125</ele>
        <time>2026-08-21T22:13:59.000Z</time>
        <extensions>
          <ns3:TrackPointExtension>
            <ns3:hr>120</ns3:hr>
            <ns3:cad>0</ns3:cad>
          </ns3:TrackPointExtension>
        </extensions>
      </trkpt>
      <trkpt lat="45.32581723295152187347412109375" lon="-71.04900014586746692657470703125">
        <ele>556.79998779296875</ele>
        <time>2026-08-21T22:14:00.000Z</time>
        <extensions>
          <ns3:TrackPointExtension>
            <ns3:hr>120</ns3:hr>
            <ns3:cad>0</ns3:cad>
          </ns3:TrackPointExtension>
        </extensions>
      </trkpt>
      <trkpt lat="45.3258298896253108978271484375" lon="-71.0490102879703044891357421875">
        <ele>556.5999755859375</ele>
        <time>2026-08-21T22:14:01.000Z</time>
        <extensions>
          <ns3:TrackPointExtension>
            <ns3:hr>120</ns3:hr>
            <ns3:cad>0</ns3:cad>
          </ns3:TrackPointExtension>
        </extensions>
      </trkpt>
      <trkpt lat="45.32583517022430896759033203125" lon="-71.0490252077579498291015625">
        <ele>556.20001220703125</ele>
        <time>2026-08-21T22:14:02.000Z</time>
        <extensions>
          <ns3:TrackPointExtension>
            <ns3:hr>121</ns3:hr>
            <ns3:cad>0</ns3:cad>
          </ns3:TrackPointExtension>
        </extensions>
      </trkpt>
      <trkpt lat="45.32584237866103649139404296875" lon="-71.04904021136462688446044921875">
        <ele>555.79998779296875</ele>
        <time>2026-08-21T22:14:03.000Z</time>
        <extensions>
          <ns3:TrackPointExtension>
            <ns3:hr>120</ns3:hr>
            <ns3:cad>0</ns3:cad>
          </ns3:TrackPointExtension>
        </extensions>
      </trkpt>
      <trkpt lat="45.32585394568741321563720703125" lon="-71.04904809035360813140869140625">
        <ele>555.5999755859375</ele>
        <time>2026-08-21T22:14:04.000Z</time>
        <extensions>
          <ns3:TrackPointExtension>
            <ns3:hr>120</ns3:hr>
            <ns3:cad>0</ns3:cad>
          </ns3:TrackPointExtension>
        </extensions>
      </trkpt>
      <trkpt lat="45.3258614055812358856201171875" lon="-71.0490548796951770782470703125">
        <ele>555.4000244140625</ele>
        <time>2026-08-21T22:14:05.000Z</time>
        <extensions>
          <ns3:TrackPointExtension>
            <ns3:hr>120</ns3:hr>
            <ns3:cad>0</ns3:cad>
          </ns3:TrackPointExtension>
        </extensions>
      </trkpt>
      <trkpt lat="45.32587833702564239501953125" lon="-71.04906870983541011810302734375">
        <ele>555</ele>
        <time>2026-08-21T22:14:06.000Z</time>
        <extensions>
          <ns3:TrackPointExtension>
            <ns3:hr>120</ns3:hr>
            <ns3:cad>0</ns3:cad>
          </ns3:TrackPointExtension>
        </extensions>
      </trkpt>
      <trkpt lat="45.3259013034403324127197265625" lon="-71.04908748529851436614990234375">
        <ele>554.79998779296875</ele>
        <time>2026-08-21T22:14:07.000Z</time>
        <extensions>
          <ns3:TrackPointExtension>
            <ns3:hr>120</ns3:hr>
            <ns3:cad>0</ns3:cad>
          </ns3:TrackPointExtension>
        </extensions>
      </trkpt>
      <trkpt lat="45.32592100091278553009033203125" lon="-71.0490944422781467437744140625">
        <ele>554.4000244140625</ele>
        <time>2026-08-21T22:14:08.000Z</time>
        <extensions>
          <ns3:TrackPointExtension>
            <ns3:hr>120</ns3:hr>
            <ns3:cad>0</ns3:cad>
          </ns3:TrackPointExtension>
        </extensions>
      </trkpt>
      <trkpt lat="45.32593860290944576263427734375" lon="-71.04909553192555904388427734375">
        <ele>554</ele>
        <time>2026-08-21T22:14:09.000Z</time>
        <extensions>
          <ns3:TrackPointExtension>
            <ns3:hr>121</ns3:hr>
            <ns3:cad>0</ns3:cad>
          </ns3:TrackPointExtension>
        </extensions>
      </trkpt>
      <trkpt lat="45.3259552828967571258544921875" lon="-71.04909921996295452117919921875">
        <ele>553.79998779296875</ele>
        <time>2026-08-21T22:14:10.000Z</time>
        <extensions>
          <ns3:TrackPointExtension>
            <ns3:hr>122</ns3:hr>
            <ns3:cad>0</ns3:cad>
          </ns3:TrackPointExtension>
        </extensions>
      </trkpt>
      <trkpt lat="45.325970537960529327392578125" lon="-71.0491098649799823760986328125">
        <ele>553.5999755859375</ele>
        <time>2026-08-21T22:14:11.000Z</time>
        <extensions>
          <ns3:TrackPointExtension>
            <ns3:hr>123</ns3:hr>
            <ns3:cad>0</ns3:cad>
          </ns3:TrackPointExtension>
        </extensions>
      </trkpt>
      <trkpt lat="45.3259844519197940826416015625" lon="-71.0491128824651241302490234375">
        <ele>553.4000244140625</ele>
        <time>2026-08-21T22:14:12.000Z</time>
        <extensions>
          <ns3:TrackPointExtension>
            <ns3:hr>123</ns3:hr>
            <ns3:cad>0</ns3:cad>
          </ns3:TrackPointExtension>
        </extensions>
      </trkpt>
      <trkpt lat="45.326001383364200592041015625" lon="-71.0491132177412509918212890625">
        <ele>553.20001220703125</ele>
        <time>2026-08-21T22:14:13.000Z</time>
        <extensions>
          <ns3:TrackPointExtension>
            <ns3:hr>124</ns3:hr>
            <ns3:cad>0</ns3:cad>
          </ns3:TrackPointExtension>
        </extensions>
      </trkpt>
      <trkpt lat="45.32601085491478443145751953125" lon="-71.0491169057786464691162109375">
        <ele>553</ele>
        <time>2026-08-21T22:14:14.000Z</time>
        <extensions>
          <ns3:TrackPointExtension>
            <ns3:hr>124</ns3:hr>
            <ns3:cad>0</ns3:cad>
          </ns3:TrackPointExtension>
        </extensions>
      </trkpt>
      <trkpt lat="45.32602862454950809478759765625" lon="-71.04912855662405490875244140625">
        <ele>552.79998779296875</ele>
        <time>2026-08-21T22:14:15.000Z</time>
        <extensions>
          <ns3:TrackPointExtension>
            <ns3:hr>124</ns3:hr>
            <ns3:cad>0</ns3:cad>
          </ns3:TrackPointExtension>
        </extensions>
      </trkpt>
      <trkpt lat="45.32604555599391460418701171875" lon="-71.04912620969116687774658203125">
        <ele>552.4000244140625</ele>
        <time>2026-08-21T22:14:16.000Z</time>
        <extensions>
          <ns3:TrackPointExtension>
            <ns3:hr>124</ns3:hr>
            <ns3:cad>77</ns3:cad>
          </ns3:TrackPointExtension>
        </extensions>
      </trkpt>
      <trkpt lat="45.32605712302029132843017578125" lon="-71.04911766014993190765380859375">
        <ele>552.20001220703125</ele>
        <time>2026-08-21T22:14:17.000Z</time>
        <extensions>
          <ns3:TrackPointExtension>
            <ns3:hr>125</ns3:hr>
            <ns3:cad>77</ns3:cad>
          </ns3:TrackPointExtension>
        </extensions>
      </trkpt>
      <trkpt lat="45.32607656903564929962158203125" lon="-71.04911766014993190765380859375">
        <ele>551.5999755859375</ele>
        <time>2026-08-21T22:14:18.000Z</time>
        <extensions>
          <ns3:TrackPointExtension>
            <ns3:hr>125</ns3:hr>
            <ns3:cad>77</ns3:cad>
          </ns3:TrackPointExtension>
        </extensions>
      </trkpt>
      <trkpt lat="45.32607656903564929962158203125" lon="-71.04911766014993190765380859375">
        <ele>551.4000244140625</ele>
        <time>2026-08-21T22:14:19.000Z</time>
        <extensions>
          <ns3:TrackPointExtension>
            <ns3:hr>126</ns3:hr>
            <ns3:cad>77</ns3:cad>
          </ns3:TrackPointExtension>
        </extensions>
      </trkpt>
      <trkpt lat="45.326083190739154815673828125" lon="-71.04911967180669307708740234375">
        <ele>551</ele>
        <time>2026-08-21T22:14:20.000Z</time>
        <extensions>
          <ns3:TrackPointExtension>
            <ns3:hr>126</ns3:hr>
            <ns3:cad>0</ns3:cad>
          </ns3:TrackPointExtension>
        </extensions>
      </trkpt>
      <trkpt lat="45.32609836198389530181884765625" lon="-71.0491222701966762542724609375">
        <ele>550.79998779296875</ele>
        <time>2026-08-21T22:14:21.000Z</time>
        <extensions>
          <ns3:TrackPointExtension>
            <ns3:hr>125</ns3:hr>
            <ns3:cad>0</ns3:cad>
          </ns3:TrackPointExtension>
        </extensions>
      </trkpt>
      <trkpt lat="45.32611378468573093414306640625" lon="-71.0491249524056911468505859375">
        <ele>550.4000244140625</ele>
        <time>2026-08-21T22:14:22.000Z</time>
        <extensions>
          <ns3:TrackPointExtension>
            <ns3:hr>125</ns3:hr>
            <ns3:cad>0</ns3:cad>
          </ns3:TrackPointExtension>
        </extensions>
      </trkpt>
      <trkpt lat="45.32612937502562999725341796875" lon="-71.04913509450852870941162109375">
        <ele>550</ele>
        <time>2026-08-21T22:14:23.000Z</time>
        <extensions>
          <ns3:TrackPointExtension>
            <ns3:hr>124</ns3:hr>
            <ns3:cad>76</ns3:cad>
          </ns3:TrackPointExtension>
        </extensions>
      </trkpt>
      <trkpt lat="45.326154939830303192138671875" lon="-71.04914565570652484893798828125">
        <ele>549.79998779296875</ele>
        <time>2026-08-21T22:14:24.000Z</time>
        <extensions>
          <ns3:TrackPointExtension>
            <ns3:hr>124</ns3:hr>
            <ns3:cad>76</ns3:cad>
          </ns3:TrackPointExtension>
        </extensions>
      </trkpt>
      <trkpt lat="45.3261752240359783172607421875" lon="-71.0491413809359073638916015625">
        <ele>549.5999755859375</ele>
        <time>2026-08-21T22:14:25.000Z</time>
        <extensions>
          <ns3:TrackPointExtension>
            <ns3:hr>125</ns3:hr>
            <ns3:cad>76</ns3:cad>
          </ns3:TrackPointExtension>
        </extensions>
      </trkpt>
      <trkpt lat="45.32619575969874858856201171875" lon="-71.04914314113557338714599609375">
        <ele>549.4000244140625</ele>
        <time>2026-08-21T22:14:26.000Z</time>
        <extensions>
          <ns3:TrackPointExtension>
            <ns3:hr>125</ns3:hr>
            <ns3:cad>76</ns3:cad>
          </ns3:TrackPointExtension>
        </extensions>
      </trkpt>
      <trkpt lat="45.32621361315250396728515625" lon="-71.04914481751620769500732421875">
        <ele>549.4000244140625</ele>
        <time>2026-08-21T22:14:27.000Z</time>
        <extensions>
          <ns3:TrackPointExtension>
            <ns3:hr>125</ns3:hr>
            <ns3:cad>76</ns3:cad>
          </ns3:TrackPointExtension>
        </extensions>
      </trkpt>
      <trkpt lat="45.32622878439724445343017578125" lon="-71.04915437288582324981689453125">
        <ele>549.4000244140625</ele>
        <time>2026-08-21T22:14:28.000Z</time>
        <extensions>
          <ns3:TrackPointExtension>
            <ns3:hr>126</ns3:hr>
            <ns3:cad>75</ns3:cad>
          </ns3:TrackPointExtension>
        </extensions>
      </trkpt>
      <trkpt lat="45.32624353654682636260986328125" lon="-71.04916669428348541259765625">
        <ele>549.20001220703125</ele>
        <time>2026-08-21T22:14:29.000Z</time>
        <extensions>
          <ns3:TrackPointExtension>
            <ns3:hr>125</ns3:hr>
            <ns3:cad>75</ns3:cad>
          </ns3:TrackPointExtension>
        </extensions>
      </trkpt>
      <trkpt lat="45.32626180909574031829833984375" lon="-71.0491742379963397979736328125">
        <ele>549.20001220703125</ele>
        <time>2026-08-21T22:14:30.000Z</time>
        <extensions>
          <ns3:TrackPointExtension>
            <ns3:hr>125</ns3:hr>
            <ns3:cad>75</ns3:cad>
          </ns3:TrackPointExtension>
        </extensions>
      </trkpt>
      <trkpt lat="45.32628259621560573577880859375" lon="-71.04918278753757476806640625">
        <ele>549</ele>
        <time>2026-08-21T22:14:31.000Z</time>
        <extensions>
          <ns3:TrackPointExtension>
            <ns3:hr>125</ns3:hr>
            <ns3:cad>75</ns3:cad>
          </ns3:TrackPointExtension>
        </extensions>
      </trkpt>
      <trkpt lat="45.32630036585032939910888671875" lon="-71.049192845821380615234375">
        <ele>548.79998779296875</ele>
        <time>2026-08-21T22:14:32.000Z</time>
        <extensions>
          <ns3:TrackPointExtension>
            <ns3:hr>125</ns3:hr>
            <ns3:cad>71</ns3:cad>
          </ns3:TrackPointExtension>
        </extensions>
      </trkpt>
      <trkpt lat="45.3263135254383087158203125" lon="-71.04920080862939357757568359375">
        <ele>548.79998779296875</ele>
        <time>2026-08-21T22:14:33.000Z</time>
        <extensions>
          <ns3:TrackPointExtension>
            <ns3:hr>124</ns3:hr>
            <ns3:cad>71</ns3:cad>
          </ns3:TrackPointExtension>
        </extensions>
      </trkpt>
      <trkpt lat="45.32632852904498577117919921875" lon="-71.0492070950567722320556640625">
        <ele>548.5999755859375</ele>
        <time>2026-08-21T22:14:34.000Z</time>
        <extensions>
          <ns3:TrackPointExtension>
            <ns3:hr>124</ns3:hr>
            <ns3:cad>71</ns3:cad>
          </ns3:TrackPointExtension>
        </extensions>
      </trkpt>
      <trkpt lat="45.32634294591844081878662109375" lon="-71.04921631515026092529296875">
        <ele>548.5999755859375</ele>
        <time>2026-08-21T22:14:35.000Z</time>
        <extensions>
          <ns3:TrackPointExtension>
            <ns3:hr>124</ns3:hr>
            <ns3:cad>72</ns3:cad>
          </ns3:TrackPointExtension>
        </extensions>
      </trkpt>
      <trkpt lat="45.32636390067636966705322265625" lon="-71.04922176338732242584228515625">
        <ele>548.4000244140625</ele>
        <time>2026-08-21T22:14:36.000Z</time>
        <extensions>
          <ns3:TrackPointExtension>
            <ns3:hr>124</ns3:hr>
            <ns3:cad>72</ns3:cad>
          </ns3:TrackPointExtension>
        </extensions>
      </trkpt>
      <trkpt lat="45.32637915574014186859130859375" lon="-71.0492258705198764801025390625">
        <ele>548.20001220703125</ele>
        <time>2026-08-21T22:14:37.000Z</time>
        <extensions>
          <ns3:TrackPointExtension>
            <ns3:hr>124</ns3:hr>
            <ns3:cad>72</ns3:cad>
          </ns3:TrackPointExtension>
        </extensions>
      </trkpt>
      <trkpt lat="45.32639927230775356292724609375" lon="-71.049236766993999481201171875">
        <ele>547.79998779296875</ele>
        <time>2026-08-21T22:14:38.000Z</time>
        <extensions>
          <ns3:TrackPointExtension>
            <ns3:hr>123</ns3:hr>
            <ns3:cad>72</ns3:cad>
          </ns3:TrackPointExtension>
        </extensions>
      </trkpt>
      <trkpt lat="45.3264196403324604034423828125" lon="-71.049249172210693359375">
        <ele>547.5999755859375</ele>
        <time>2026-08-21T22:14:39.000Z</time>
        <extensions>
          <ns3:TrackPointExtension>
            <ns3:hr>124</ns3:hr>
            <ns3:cad>72</ns3:cad>
          </ns3:TrackPointExtension>
        </extensions>
      </trkpt>
      <trkpt lat="45.32643632031977176666259765625" lon="-71.0492604039609432220458984375">
        <ele>547.20001220703125</ele>
        <time>2026-08-21T22:14:40.000Z</time>
        <extensions>
          <ns3:TrackPointExtension>
            <ns3:hr>124</ns3:hr>
            <ns3:cad>40</ns3:cad>
          </ns3:TrackPointExtension>
        </extensions>
      </trkpt>
      <trkpt lat="45.3264583647251129150390625" lon="-71.049268953502178192138671875">
        <ele>546.79998779296875</ele>
        <time>2026-08-21T22:14:41.000Z</time>
        <extensions>
          <ns3:TrackPointExtension>
            <ns3:hr>123</ns3:hr>
            <ns3:cad>40</ns3:cad>
          </ns3:TrackPointExtension>
        </extensions>
      </trkpt>
      <trkpt lat="45.32648024149239063262939453125" lon="-71.0492681153118610382080078125">
        <ele>546.5999755859375</ele>
        <time>2026-08-21T22:14:42.000Z</time>
        <extensions>
          <ns3:TrackPointExtension>
            <ns3:hr>124</ns3:hr>
            <ns3:cad>40</ns3:cad>
          </ns3:TrackPointExtension>
        </extensions>
      </trkpt>
      <trkpt lat="45.32650119625031948089599609375" lon="-71.04926861822605133056640625">
        <ele>546.4000244140625</ele>
        <time>2026-08-21T22:14:43.000Z</time>
        <extensions>
          <ns3:TrackPointExtension>
            <ns3:hr>124</ns3:hr>
            <ns3:cad>40</ns3:cad>
          </ns3:TrackPointExtension>
        </extensions>
      </trkpt>
      <trkpt lat="45.3265202231705188751220703125" lon="-71.04927021078765392303466796875">
        <ele>546.20001220703125</ele>
        <time>2026-08-21T22:14:44.000Z</time>
        <extensions>
          <ns3:TrackPointExtension>
            <ns3:hr>124</ns3:hr>
            <ns3:cad>79</ns3:cad>
          </ns3:TrackPointExtension>
        </extensions>
      </trkpt>
      <trkpt lat="45.3265413455665111541748046875" lon="-71.049274317920207977294921875">
        <ele>545.79998779296875</ele>
        <time>2026-08-21T22:14:45.000Z</time>
        <extensions>
          <ns3:TrackPointExtension>
            <ns3:hr>124</ns3:hr>
            <ns3:cad>79</ns3:cad>
          </ns3:TrackPointExtension>
        </extensions>
      </trkpt>
      <trkpt lat="45.32655819319188594818115234375" lon="-71.049278676509857177734375">
        <ele>545.5999755859375</ele>
        <time>2026-08-21T22:14:46.000Z</time>
        <extensions>
          <ns3:TrackPointExtension>
            <ns3:hr>124</ns3:hr>
            <ns3:cad>79</ns3:cad>
          </ns3:TrackPointExtension>
        </extensions>
      </trkpt>
      <trkpt lat="45.32657395116984844207763671875" lon="-71.0492855496704578399658203125">
        <ele>545.4000244140625</ele>
        <time>2026-08-21T22:14:47.000Z</time>
        <extensions>
          <ns3:TrackPointExtension>
            <ns3:hr>124</ns3:hr>
            <ns3:cad>78</ns3:cad>
          </ns3:TrackPointExtension>
        </extensions>
      </trkpt>
      <trkpt lat="45.32659322954714298248291015625" lon="-71.04929141700267791748046875">
        <ele>544.79998779296875</ele>
        <time>2026-08-21T22:14:48.000Z</time>
        <extensions>
          <ns3:TrackPointExtension>
            <ns3:hr>124</ns3:hr>
            <ns3:cad>78</ns3:cad>
          </ns3:TrackPointExtension>
        </extensions>
      </trkpt>
      <trkpt lat="45.32660965807735919952392578125" lon="-71.0492969490587711334228515625">
        <ele>544.4000244140625</ele>
        <time>2026-08-21T22:14:49.000Z</time>
        <extensions>
          <ns3:TrackPointExtension>
            <ns3:hr>125</ns3:hr>
            <ns3:cad>0</ns3:cad>
          </ns3:TrackPointExtension>
        </extensions>
      </trkpt>
      <trkpt lat="45.32663069665431976318359375" lon="-71.04930440895259380340576171875">
        <ele>543.79998779296875</ele>
        <time>2026-08-21T22:14:50.000Z</time>
        <extensions>
          <ns3:TrackPointExtension>
            <ns3:hr>125</ns3:hr>
            <ns3:cad>0</ns3:cad>
          </ns3:TrackPointExtension>
        </extensions>
      </trkpt>
      <trkpt lat="45.3266514837741851806640625" lon="-71.04931153357028961181640625">
        <ele>543.4000244140625</ele>
        <time>2026-08-21T22:14:51.000Z</time>
        <extensions>
          <ns3:TrackPointExtension>
            <ns3:hr>125</ns3:hr>
            <ns3:cad>83</ns3:cad>
          </ns3:TrackPointExtension>
        </extensions>
      </trkpt>
      <trkpt lat="45.32667361199855804443359375" lon="-71.04931781999766826629638671875">
        <ele>542.79998779296875</ele>
        <time>2026-08-21T22:14:52.000Z</time>
        <extensions>
          <ns3:TrackPointExtension>
            <ns3:hr>124</ns3:hr>
            <ns3:cad>83</ns3:cad>
          </ns3:TrackPointExtension>
        </extensions>
      </trkpt>
      <trkpt lat="45.326695404946804046630859375" lon="-71.04931899346411228179931640625">
        <ele>542.4000244140625</ele>
        <time>2026-08-21T22:14:53.000Z</time>
        <extensions>
          <ns3:TrackPointExtension>
            <ns3:hr>124</ns3:hr>
            <ns3:cad>83</ns3:cad>
          </ns3:TrackPointExtension>
        </extensions>
      </trkpt>
      <trkpt lat="45.32671610824763774871826171875" lon="-71.04931681416928768157958984375">
        <ele>541.79998779296875</ele>
        <time>2026-08-21T22:14:54.000Z</time>
        <extensions>
          <ns3:TrackPointExtension>
            <ns3:hr>124</ns3:hr>
            <ns3:cad>83</ns3:cad>
          </ns3:TrackPointExtension>
        </extensions>
      </trkpt>
      <trkpt lat="45.32673488371074199676513671875" lon="-71.04930709116160869598388671875">
        <ele>541.4000244140625</ele>
        <time>2026-08-21T22:14:55.000Z</time>
        <extensions>
          <ns3:TrackPointExtension>
            <ns3:hr>124</ns3:hr>
            <ns3:cad>83</ns3:cad>
          </ns3:TrackPointExtension>
        </extensions>
      </trkpt>
      <trkpt lat="45.32675206661224365234375" lon="-71.04929066263139247894287109375">
        <ele>541.20001220703125</ele>
        <time>2026-08-21T22:14:56.000Z</time>
        <extensions>
          <ns3:TrackPointExtension>
            <ns3:hr>124</ns3:hr>
            <ns3:cad>83</ns3:cad>
          </ns3:TrackPointExtension>
        </extensions>
      </trkpt>
      <trkpt lat="45.32676346600055694580078125" lon="-71.0492754913866519927978515625">
        <ele>540.79998779296875</ele>
        <time>2026-08-21T22:14:57.000Z</time>
        <extensions>
          <ns3:TrackPointExtension>
            <ns3:hr>125</ns3:hr>
            <ns3:cad>83</ns3:cad>
          </ns3:TrackPointExtension>
        </extensions>
      </trkpt>
      <trkpt lat="45.3267748653888702392578125" lon="-71.04926191270351409912109375">
        <ele>540.5999755859375</ele>
        <time>2026-08-21T22:14:58.000Z</time>
        <extensions>
          <ns3:TrackPointExtension>
            <ns3:hr>124</ns3:hr>
            <ns3:cad>83</ns3:cad>
          </ns3:TrackPointExtension>
        </extensions>
      </trkpt>
      <trkpt lat="45.3267857618629932403564453125" lon="-71.04924179613590240478515625">
        <ele>540.20001220703125</ele>
        <time>2026-08-21T22:14:59.000Z</time>
        <extensions>
          <ns3:TrackPointExtension>
            <ns3:hr>124</ns3:hr>
            <ns3:cad>83</ns3:cad>
          </ns3:TrackPointExtension>
        </extensions>
      </trkpt>
      <trkpt lat="45.326793976128101348876953125" lon="-71.04922159574925899505615234375">
        <ele>540</ele>
        <time>2026-08-21T22:15:00.000Z</time>
        <extensions>
          <ns3:TrackPointExtension>
            <ns3:hr>125</ns3:hr>
            <ns3:cad>83</ns3:cad>
          </ns3:TrackPointExtension>
        </extensions>
      </trkpt>
      <trkpt lat="45.3268052078783512115478515625" lon="-71.0492087714374065399169921875">
        <ele>539.79998779296875</ele>
        <time>2026-08-21T22:15:01.000Z</time>
        <extensions>
          <ns3:TrackPointExtension>
            <ns3:hr>125</ns3:hr>
            <ns3:cad>83</ns3:cad>
          </ns3:TrackPointExtension>
        </extensions>
      </trkpt>
      <trkpt lat="45.32681602053344249725341796875" lon="-71.04919628240168094635009765625">
        <ele>539.5999755859375</ele>
        <time>2026-08-21T22:15:02.000Z</time>
        <extensions>
          <ns3:TrackPointExtension>
            <ns3:hr>126</ns3:hr>
            <ns3:cad>83</ns3:cad>
          </ns3:TrackPointExtension>
        </extensions>
      </trkpt>
      <trkpt lat="45.32683010213077068328857421875" lon="-71.04918815195560455322265625">
        <ele>539.4000244140625</ele>
        <time>2026-08-21T22:15:03.000Z</time>
        <extensions>
          <ns3:TrackPointExtension>
            <ns3:hr>126</ns3:hr>
            <ns3:cad>83</ns3:cad>
          </ns3:TrackPointExtension>
        </extensions>
      </trkpt>
      <trkpt lat="45.32684502191841602325439453125" lon="-71.049179770052433013916015625">
        <ele>539.20001220703125</ele>
        <time>2026-08-21T22:15:04.000Z</time>
        <extensions>
          <ns3:TrackPointExtension>
            <ns3:hr>126</ns3:hr>
            <ns3:cad>64</ns3:cad>
          </ns3:TrackPointExtension>
        </extensions>
      </trkpt>
      <trkpt lat="45.326864384114742279052734375" lon="-71.0491608269512653350830078125">
        <ele>539</ele>
        <time>2026-08-21T22:15:05.000Z</time>
        <extensions>
          <ns3:TrackPointExtension>
            <ns3:hr>126</ns3:hr>
            <ns3:cad>64</ns3:cad>
          </ns3:TrackPointExtension>
        </extensions>
      </trkpt>
      <trkpt lat="45.3268786333501338958740234375" lon="-71.04914247058331966400146484375">
        <ele>539</ele>
        <time>2026-08-21T22:15:06.000Z</time>
        <extensions>
          <ns3:TrackPointExtension>
            <ns3:hr>126</ns3:hr>
            <ns3:cad>64</ns3:cad>
          </ns3:TrackPointExtension>
        </extensions>
      </trkpt>
      <trkpt lat="45.32689061947166919708251953125" lon="-71.04912185110151767730712890625">
        <ele>538.79998779296875</ele>
        <time>2026-08-21T22:15:07.000Z</time>
        <extensions>
          <ns3:TrackPointExtension>
            <ns3:hr>126</ns3:hr>
            <ns3:cad>0</ns3:cad>
          </ns3:TrackPointExtension>
        </extensions>
      </trkpt>
      <trkpt lat="45.32689950428903102874755859375" lon="-71.0491028241813182830810546875">
        <ele>538.79998779296875</ele>
        <time>2026-08-21T22:15:08.000Z</time>
        <extensions>
          <ns3:TrackPointExtension>
            <ns3:hr>127</ns3:hr>
            <ns3:cad>0</ns3:cad>
          </ns3:TrackPointExtension>
        </extensions>
      </trkpt>
      <trkpt lat="45.32690201885998249053955078125" lon="-71.049093268811702728271484375">
        <ele>538.79998779296875</ele>
        <time>2026-08-21T22:15:09.000Z</time>
        <extensions>
          <ns3:TrackPointExtension>
            <ns3:hr>127</ns3:hr>
            <ns3:cad>0</ns3:cad>
          </ns3:TrackPointExtension>
        </extensions>
      </trkpt>
      <trkpt lat="45.32691258005797863006591796875" lon="-71.049078516662120819091796875">
        <ele>538.79998779296875</ele>
        <time>2026-08-21T22:15:10.000Z</time>
        <extensions>
          <ns3:TrackPointExtension>
            <ns3:hr>127</ns3:hr>
            <ns3:cad>0</ns3:cad>
          </ns3:TrackPointExtension>
        </extensions>
      </trkpt>
      <trkpt lat="45.32692934386432170867919921875" lon="-71.0490703023970127105712890625">
        <ele>538.79998779296875</ele>
        <time>2026-08-21T22:15:11.000Z</time>
        <extensions>
          <ns3:TrackPointExtension>
            <ns3:hr>128</ns3:hr>
            <ns3:cad>0</ns3:cad>
          </ns3:TrackPointExtension>
        </extensions>
      </trkpt>
      <trkpt lat="45.32694258727133274078369140625" lon="-71.0490622557699680328369140625">
        <ele>538.5999755859375</ele>
        <time>2026-08-21T22:15:12.000Z</time>
        <extensions>
          <ns3:TrackPointExtension>
            <ns3:hr>129</ns3:hr>
            <ns3:cad>0</ns3:cad>
          </ns3:TrackPointExtension>
        </extensions>
      </trkpt>
      <trkpt lat="45.32694895751774311065673828125" lon="-71.04904155246913433074951171875">
        <ele>538.4000244140625</ele>
        <time>2026-08-21T22:15:13.000Z</time>
        <extensions>
          <ns3:TrackPointExtension>
            <ns3:hr>130</ns3:hr>
            <ns3:cad>0</ns3:cad>
          </ns3:TrackPointExtension>
        </extensions>
      </trkpt>
      <trkpt lat="45.32695390284061431884765625" lon="-71.0490270517766475677490234375">
        <ele>538.20001220703125</ele>
        <time>2026-08-21T22:15:14.000Z</time>
        <extensions>
          <ns3:TrackPointExtension>
            <ns3:hr>130</ns3:hr>
            <ns3:cad>0</ns3:cad>
          </ns3:TrackPointExtension>
        </extensions>
      </trkpt>
      <trkpt lat="45.32696287147700786590576171875" lon="-71.04902981780469417572021484375">
        <ele>538</ele>
        <time>2026-08-21T22:15:15.000Z</time>
        <extensions>
          <ns3:TrackPointExtension>
            <ns3:hr>130</ns3:hr>
            <ns3:cad>0</ns3:cad>
          </ns3:TrackPointExtension>
        </extensions>
      </trkpt>
      <trkpt lat="45.3269825689494609832763671875" lon="-71.04901908896863460540771484375">
        <ele>538</ele>
        <time>2026-08-21T22:15:16.000Z</time>
        <extensions>
          <ns3:TrackPointExtension>
            <ns3:hr>129</ns3:hr>
            <ns3:cad>0</ns3:cad>
          </ns3:TrackPointExtension>
        </extensions>
      </trkpt>
      <trkpt lat="45.3269869275391101837158203125" lon="-71.04900718666613101959228515625">
        <ele>537.79998779296875</ele>
        <time>2026-08-21T22:15:17.000Z</time>
        <extensions>
          <ns3:TrackPointExtension>
            <ns3:hr>129</ns3:hr>
            <ns3:cad>0</ns3:cad>
          </ns3:TrackPointExtension>
        </extensions>
      </trkpt>
      <trkpt lat="45.32699036411941051483154296875" lon="-71.04900048114359378814697265625">
        <ele>537.79998779296875</ele>
        <time>2026-08-21T22:15:18.000Z</time>
        <extensions>
          <ns3:TrackPointExtension>
            <ns3:hr>129</ns3:hr>
            <ns3:cad>0</ns3:cad>
          </ns3:TrackPointExtension>
        </extensions>
      </trkpt>
      <trkpt lat="45.32699841074645519256591796875" lon="-71.04899545200169086456298828125">
        <ele>537.79998779296875</ele>
        <time>2026-08-21T22:15:19.000Z</time>
        <extensions>
          <ns3:TrackPointExtension>
            <ns3:hr>129</ns3:hr>
            <ns3:cad>0</ns3:cad>
          </ns3:TrackPointExtension>
        </extensions>
      </trkpt>
      <trkpt lat="45.327015258371829986572265625" lon="-71.04899092577397823333740234375">
        <ele>537.5999755859375</ele>
        <time>2026-08-21T22:15:20.000Z</time>
        <extensions>
          <ns3:TrackPointExtension>
            <ns3:hr>128</ns3:hr>
            <ns3:cad>0</ns3:cad>
          </ns3:TrackPointExtension>
        </extensions>
      </trkpt>
      <trkpt lat="45.3270271606743335723876953125" lon="-71.0489898361265659332275390625">
        <ele>537.4000244140625</ele>
        <time>2026-08-21T22:15:21.000Z</time>
        <extensions>
          <ns3:TrackPointExtension>
            <ns3:hr>129</ns3:hr>
            <ns3:cad>0</ns3:cad>
          </ns3:TrackPointExtension>
        </extensions>
      </trkpt>
      <trkpt lat="45.32703931443393230438232421875" lon="-71.0489871539175510406494140625">
        <ele>537.20001220703125</ele>
        <time>2026-08-21T22:15:22.000Z</time>
        <extensions>
          <ns3:TrackPointExtension>
            <ns3:hr>129</ns3:hr>
            <ns3:cad>0</ns3:cad>
          </ns3:TrackPointExtension>
        </extensions>
      </trkpt>
      <trkpt lat="45.32704870216548442840576171875" lon="-71.0489884950220584869384765625">
        <ele>537</ele>
        <time>2026-08-21T22:15:23.000Z</time>
        <extensions>
          <ns3:TrackPointExtension>
            <ns3:hr>129</ns3:hr>
            <ns3:cad>0</ns3:cad>
          </ns3:TrackPointExtension>
        </extensions>
      </trkpt>
      <trkpt lat="45.3270566649734973907470703125" lon="-71.04899645783007144927978515625">
        <ele>536.79998779296875</ele>
        <time>2026-08-21T22:15:24.000Z</time>
        <extensions>
          <ns3:TrackPointExtension>
            <ns3:hr>129</ns3:hr>
            <ns3:cad>0</ns3:cad>
          </ns3:TrackPointExtension>
        </extensions>
      </trkpt>
      <trkpt lat="45.3270616941154003143310546875" lon="-71.04900131933391094207763671875">
        <ele>536.5999755859375</ele>
        <time>2026-08-21T22:15:25.000Z</time>
        <extensions>
          <ns3:TrackPointExtension>
            <ns3:hr>129</ns3:hr>
            <ns3:cad>0</ns3:cad>
          </ns3:TrackPointExtension>
        </extensions>
      </trkpt>
      <trkpt lat="45.32706965692341327667236328125" lon="-71.0490045882761478424072265625">
        <ele>536.4000244140625</ele>
        <time>2026-08-21T22:15:26.000Z</time>
        <extensions>
          <ns3:TrackPointExtension>
            <ns3:hr>128</ns3:hr>
            <ns3:cad>0</ns3:cad>
          </ns3:TrackPointExtension>
        </extensions>
      </trkpt>
      <trkpt lat="45.32708398997783660888671875" lon="-71.0490069352090358734130859375">
        <ele>536.4000244140625</ele>
        <time>2026-08-21T22:15:27.000Z</time>
        <extensions>
          <ns3:TrackPointExtension>
            <ns3:hr>128</ns3:hr>
            <ns3:cad>0</ns3:cad>
          </ns3:TrackPointExtension>
        </extensions>
      </trkpt>
      <trkpt lat="45.32710033468902111053466796875" lon="-71.04900986887514591217041015625">
        <ele>536.20001220703125</ele>
        <time>2026-08-21T22:15:28.000Z</time>
        <extensions>
          <ns3:TrackPointExtension>
            <ns3:hr>128</ns3:hr>
            <ns3:cad>0</ns3:cad>
          </ns3:TrackPointExtension>
        </extensions>
      </trkpt>
      <trkpt lat="45.32711173407733440399169921875" lon="-71.0490169934928417205810546875">
        <ele>536</ele>
        <time>2026-08-21T22:15:29.000Z</time>
        <extensions>
          <ns3:TrackPointExtension>
            <ns3:hr>128</ns3:hr>
            <ns3:cad>0</ns3:cad>
          </ns3:TrackPointExtension>
        </extensions>
      </trkpt>
      <trkpt lat="45.32712279818952083587646484375" lon="-71.049020849168300628662109375">
        <ele>535.79998779296875</ele>
        <time>2026-08-21T22:15:30.000Z</time>
        <extensions>
          <ns3:TrackPointExtension>
            <ns3:hr>127</ns3:hr>
            <ns3:cad>0</ns3:cad>
          </ns3:TrackPointExtension>
        </extensions>
      </trkpt>
      <trkpt lat="45.32713386230170726776123046875" lon="-71.049026884138584136962890625">
        <ele>535.79998779296875</ele>
        <time>2026-08-21T22:15:31.000Z</time>
        <extensions>
          <ns3:TrackPointExtension>
            <ns3:hr>127</ns3:hr>
            <ns3:cad>0</ns3:cad>
          </ns3:TrackPointExtension>
        </extensions>
      </trkpt>
      <trkpt lat="45.32714291475713253021240234375" lon="-71.04903367348015308380126953125">
        <ele>535.5999755859375</ele>
        <time>2026-08-21T22:15:32.000Z</time>
        <extensions>
          <ns3:TrackPointExtension>
            <ns3:hr>127</ns3:hr>
            <ns3:cad>0</ns3:cad>
          </ns3:TrackPointExtension>
        </extensions>
      </trkpt>
      <trkpt lat="45.32715372741222381591796875" lon="-71.049037612974643707275390625">
        <ele>535.4000244140625</ele>
        <time>2026-08-21T22:15:33.000Z</time>
        <extensions>
          <ns3:TrackPointExtension>
            <ns3:hr>127</ns3:hr>
            <ns3:cad>61</ns3:cad>
          </ns3:TrackPointExtension>
        </extensions>
      </trkpt>
      <trkpt lat="45.32717141322791576385498046875" lon="-71.0490350984036922454833984375">
        <ele>535.20001220703125</ele>
        <time>2026-08-21T22:15:34.000Z</time>
        <extensions>
          <ns3:TrackPointExtension>
            <ns3:hr>126</ns3:hr>
            <ns3:cad>61</ns3:cad>
          </ns3:TrackPointExtension>
        </extensions>
      </trkpt>
      <trkpt lat="45.32718650065362453460693359375" lon="-71.04903392493724822998046875">
        <ele>535</ele>
        <time>2026-08-21T22:15:35.000Z</time>
        <extensions>
          <ns3:TrackPointExtension>
            <ns3:hr>126</ns3:hr>
            <ns3:cad>61</ns3:cad>
          </ns3:TrackPointExtension>
        </extensions>
      </trkpt>
      <trkpt lat="45.327197648584842681884765625" lon="-71.04903635568916797637939453125">
        <ele>534.79998779296875</ele>
        <time>2026-08-21T22:15:36.000Z</time>
        <extensions>
          <ns3:TrackPointExtension>
            <ns3:hr>126</ns3:hr>
            <ns3:cad>61</ns3:cad>
          </ns3:TrackPointExtension>
        </extensions>
      </trkpt>
      <trkpt lat="45.327206365764141082763671875" lon="-71.04903887026011943817138671875">
        <ele>534.79998779296875</ele>
        <time>2026-08-21T22:15:37.000Z</time>
        <extensions>
          <ns3:TrackPointExtension>
            <ns3:hr>126</ns3:hr>
            <ns3:cad>61</ns3:cad>
          </ns3:TrackPointExtension>
        </extensions>
      </trkpt>
      <trkpt lat="45.32720913179218769073486328125" lon="-71.04905026964843273162841796875">
        <ele>534.5999755859375</ele>
        <time>2026-08-21T22:15:38.000Z</time>
        <extensions>
          <ns3:TrackPointExtension>
            <ns3:hr>126</ns3:hr>
            <ns3:cad>0</ns3:cad>
          </ns3:TrackPointExtension>
        </extensions>
      </trkpt>
      <trkpt lat="45.3272226266562938690185546875" lon="-71.049062423408031463623046875">
        <ele>534.4000244140625</ele>
        <time>2026-08-21T22:15:39.000Z</time>
        <extensions>
          <ns3:TrackPointExtension>
            <ns3:hr>126</ns3:hr>
            <ns3:cad>0</ns3:cad>
          </ns3:TrackPointExtension>
        </extensions>
      </trkpt>
      <trkpt lat="45.32723763026297092437744140625" lon="-71.0490733198821544647216796875">
        <ele>534.4000244140625</ele>
        <time>2026-08-21T22:15:40.000Z</time>
        <extensions>
          <ns3:TrackPointExtension>
            <ns3:hr>126</ns3:hr>
            <ns3:cad>0</ns3:cad>
          </ns3:TrackPointExtension>
        </extensions>
      </trkpt>
      <trkpt lat="45.3272491134703159332275390625" lon="-71.0490842163562774658203125">
        <ele>534.20001220703125</ele>
        <time>2026-08-21T22:15:41.000Z</time>
        <extensions>
          <ns3:TrackPointExtension>
            <ns3:hr>126</ns3:hr>
            <ns3:cad>0</ns3:cad>
          </ns3:TrackPointExtension>
        </extensions>
      </trkpt>
      <trkpt lat="45.32726411707699298858642578125" lon="-71.04909402318298816680908203125">
        <ele>534</ele>
        <time>2026-08-21T22:15:42.000Z</time>
        <extensions>
          <ns3:TrackPointExtension>
            <ns3:hr>126</ns3:hr>
            <ns3:cad>0</ns3:cad>
          </ns3:TrackPointExtension>
        </extensions>
      </trkpt>
      <trkpt lat="45.32728658057749271392822265625" lon="-71.0490988008677959442138671875">
        <ele>533.79998779296875</ele>
        <time>2026-08-21T22:15:43.000Z</time>
        <extensions>
          <ns3:TrackPointExtension>
            <ns3:hr>125</ns3:hr>
            <ns3:cad>0</ns3:cad>
          </ns3:TrackPointExtension>
        </extensions>
      </trkpt>
      <trkpt lat="45.3273139894008636474609375" lon="-71.04910441674292087554931640625">
        <ele>533.79998779296875</ele>
        <time>2026-08-21T22:15:44.000Z</time>
        <extensions>
          <ns3:TrackPointExtension>
            <ns3:hr>125</ns3:hr>
            <ns3:cad>0</ns3:cad>
          </ns3:TrackPointExtension>
        </extensions>
      </trkpt>
      <trkpt lat="45.32734072767198085784912109375" lon="-71.0491041652858257293701171875">
        <ele>533.5999755859375</ele>
        <time>2026-08-21T22:15:45.000Z</time>
        <extensions>
          <ns3:TrackPointExtension>
            <ns3:hr>125</ns3:hr>
            <ns3:cad>0</ns3:cad>
          </ns3:TrackPointExtension>
        </extensions>
      </trkpt>
      <trkpt lat="45.32736050896346569061279296875" lon="-71.049099303781986236572265625">
        <ele>533.4000244140625</ele>
        <time>2026-08-21T22:15:46.000Z</time>
        <extensions>
          <ns3:TrackPointExtension>
            <ns3:hr>125</ns3:hr>
            <ns3:cad>0</ns3:cad>
          </ns3:TrackPointExtension>
        </extensions>
      </trkpt>
      <trkpt lat="45.32737760804593563079833984375" lon="-71.04910274036228656768798828125">
        <ele>533.4000244140625</ele>
        <time>2026-08-21T22:15:47.000Z</time>
        <extensions>
          <ns3:TrackPointExtension>
            <ns3:hr>124</ns3:hr>
            <ns3:cad>0</ns3:cad>
          </ns3:TrackPointExtension>
        </extensions>
      </trkpt>
      <trkpt lat="45.327397473156452178955078125" lon="-71.04910433292388916015625">
        <ele>533.20001220703125</ele>
        <time>2026-08-21T22:15:48.000Z</time>
        <extensions>
          <ns3:TrackPointExtension>
            <ns3:hr>122</ns3:hr>
            <ns3:cad>0</ns3:cad>
          </ns3:TrackPointExtension>
        </extensions>
      </trkpt>
      <trkpt lat="45.327413566410541534423828125" lon="-71.04910408146679401397705078125">
        <ele>533.20001220703125</ele>
        <time>2026-08-21T22:15:49.000Z</time>
        <extensions>
          <ns3:TrackPointExtension>
            <ns3:hr>120</ns3:hr>
            <ns3:cad>0</ns3:cad>
          </ns3:TrackPointExtension>
        </extensions>
      </trkpt>
      <trkpt lat="45.32742756418883800506591796875" lon="-71.0491135530173778533935546875">
        <ele>533.20001220703125</ele>
        <time>2026-08-21T22:15:50.000Z</time>
        <extensions>
          <ns3:TrackPointExtension>
            <ns3:hr>119</ns3:hr>
            <ns3:cad>79</ns3:cad>
          </ns3:TrackPointExtension>
        </extensions>
      </trkpt>
      <trkpt lat="45.3274452500045299530029296875" lon="-71.04911849834024906158447265625">
        <ele>533.20001220703125</ele>
        <time>2026-08-21T22:15:51.000Z</time>
        <extensions>
          <ns3:TrackPointExtension>
            <ns3:hr>119</ns3:hr>
            <ns3:cad>79</ns3:cad>
          </ns3:TrackPointExtension>
        </extensions>
      </trkpt>
      <trkpt lat="45.32746226526796817779541015625" lon="-71.04912168346345424652099609375">
        <ele>533</ele>
        <time>2026-08-21T22:15:52.000Z</time>
        <extensions>
          <ns3:TrackPointExtension>
            <ns3:hr>118</ns3:hr>
            <ns3:cad>79</ns3:cad>
          </ns3:TrackPointExtension>
        </extensions>
      </trkpt>
      <trkpt lat="45.32748389057815074920654296875" lon="-71.049123443663120269775390625">
        <ele>533</ele>
        <time>2026-08-21T22:15:53.000Z</time>
        <extensions>
          <ns3:TrackPointExtension>
            <ns3:hr>118</ns3:hr>
            <ns3:cad>79</ns3:cad>
          </ns3:TrackPointExtension>
        </extensions>
      </trkpt>
      <trkpt lat="45.3274982236325740814208984375" lon="-71.04912771843373775482177734375">
        <ele>532.5999755859375</ele>
        <time>2026-08-21T22:15:54.000Z</time>
        <extensions>
          <ns3:TrackPointExtension>
            <ns3:hr>119</ns3:hr>
            <ns3:cad>0</ns3:cad>
          </ns3:TrackPointExtension>
        </extensions>
      </trkpt>
      <trkpt lat="45.3275106288492679595947265625" lon="-71.0491353459656238555908203125">
        <ele>532.4000244140625</ele>
        <time>2026-08-21T22:15:55.000Z</time>
        <extensions>
          <ns3:TrackPointExtension>
            <ns3:hr>119</ns3:hr>
            <ns3:cad>0</ns3:cad>
          </ns3:TrackPointExtension>
        </extensions>
      </trkpt>
      <trkpt lat="45.32752647064626216888427734375" lon="-71.04914397932589054107666015625">
        <ele>532.20001220703125</ele>
        <time>2026-08-21T22:15:56.000Z</time>
        <extensions>
          <ns3:TrackPointExtension>
            <ns3:hr>119</ns3:hr>
            <ns3:cad>0</ns3:cad>
          </ns3:TrackPointExtension>
        </extensions>
      </trkpt>
      <trkpt lat="45.32753594219684600830078125" lon="-71.04914934374392032623291015625">
        <ele>531.79998779296875</ele>
        <time>2026-08-21T22:15:57.000Z</time>
        <extensions>
          <ns3:TrackPointExtension>
            <ns3:hr>119</ns3:hr>
            <ns3:cad>76</ns3:cad>
          </ns3:TrackPointExtension>
        </extensions>
      </trkpt>
      <trkpt lat="45.327542312443256378173828125" lon="-71.0491477511823177337646484375">
        <ele>531.5999755859375</ele>
        <time>2026-08-21T22:15:58.000Z</time>
        <extensions>
          <ns3:TrackPointExtension>
            <ns3:hr>119</ns3:hr>
            <ns3:cad>76</ns3:cad>
          </ns3:TrackPointExtension>
        </extensions>
      </trkpt>
      <trkpt lat="45.32755429856479167938232421875" lon="-71.0491490922868251800537109375">
        <ele>531.4000244140625</ele>
        <time>2026-08-21T22:15:59.000Z</time>
        <extensions>
          <ns3:TrackPointExtension>
            <ns3:hr>119</ns3:hr>
            <ns3:cad>76</ns3:cad>
          </ns3:TrackPointExtension>
        </extensions>
      </trkpt>
      <trkpt lat="45.327567122876644134521484375" lon="-71.04914984665811061859130859375">
        <ele>531.20001220703125</ele>
        <time>2026-08-21T22:16:00.000Z</time>
        <extensions>
          <ns3:TrackPointExtension>
            <ns3:hr>120</ns3:hr>
            <ns3:cad>76</ns3:cad>
          </ns3:TrackPointExtension>
        </extensions>
      </trkpt>
      <trkpt lat="45.327578522264957427978515625" lon="-71.04915152303874492645263671875">
        <ele>531</ele>
        <time>2026-08-21T22:16:01.000Z</time>
        <extensions>
          <ns3:TrackPointExtension>
            <ns3:hr>120</ns3:hr>
            <ns3:cad>76</ns3:cad>
          </ns3:TrackPointExtension>
        </extensions>
      </trkpt>
      <trkpt lat="45.3275902569293975830078125" lon="-71.04915554635226726531982421875">
        <ele>530.79998779296875</ele>
        <time>2026-08-21T22:16:02.000Z</time>
        <extensions>
          <ns3:TrackPointExtension>
            <ns3:hr>121</ns3:hr>
            <ns3:cad>76</ns3:cad>
          </ns3:TrackPointExtension>
        </extensions>
      </trkpt>
      <trkpt lat="45.327600650489330291748046875" lon="-71.04916040785610675811767578125">
        <ele>530.79998779296875</ele>
        <time>2026-08-21T22:16:03.000Z</time>
        <extensions>
          <ns3:TrackPointExtension>
            <ns3:hr>121</ns3:hr>
            <ns3:cad>76</ns3:cad>
          </ns3:TrackPointExtension>
        </extensions>
      </trkpt>
      <trkpt lat="45.32761062495410442352294921875" lon="-71.0491671971976757049560546875">
        <ele>530.5999755859375</ele>
        <time>2026-08-21T22:16:04.000Z</time>
        <extensions>
          <ns3:TrackPointExtension>
            <ns3:hr>121</ns3:hr>
            <ns3:cad>54</ns3:cad>
          </ns3:TrackPointExtension>
        </extensions>
      </trkpt>
      <trkpt lat="45.32761800102889537811279296875" lon="-71.0491782613098621368408203125">
        <ele>530.4000244140625</ele>
        <time>2026-08-21T22:16:05.000Z</time>
        <extensions>
          <ns3:TrackPointExtension>
            <ns3:hr>121</ns3:hr>
            <ns3:cad>54</ns3:cad>
          </ns3:TrackPointExtension>
        </extensions>
      </trkpt>
      <trkpt lat="45.3276330046355724334716796875" lon="-71.049190498888492584228515625">
        <ele>530.20001220703125</ele>
        <time>2026-08-21T22:16:06.000Z</time>
        <extensions>
          <ns3:TrackPointExtension>
            <ns3:hr>122</ns3:hr>
            <ns3:cad>54</ns3:cad>
          </ns3:TrackPointExtension>
        </extensions>
      </trkpt>
      <trkpt lat="45.32764717005193233489990234375" lon="-71.04920156300067901611328125">
        <ele>530</ele>
        <time>2026-08-21T22:16:07.000Z</time>
        <extensions>
          <ns3:TrackPointExtension>
            <ns3:hr>123</ns3:hr>
            <ns3:cad>75</ns3:cad>
          </ns3:TrackPointExtension>
        </extensions>
      </trkpt>
      <trkpt lat="45.32766309566795825958251953125" lon="-71.04921706952154636383056640625">
        <ele>530</ele>
        <time>2026-08-21T22:16:08.000Z</time>
        <extensions>
          <ns3:TrackPointExtension>
            <ns3:hr>123</ns3:hr>
            <ns3:cad>75</ns3:cad>
          </ns3:TrackPointExtension>
        </extensions>
      </trkpt>
      <trkpt lat="45.3276745788753032684326171875" lon="-71.049238108098506927490234375">
        <ele>529.79998779296875</ele>
        <time>2026-08-21T22:16:09.000Z</time>
        <extensions>
          <ns3:TrackPointExtension>
            <ns3:hr>124</ns3:hr>
            <ns3:cad>0</ns3:cad>
          </ns3:TrackPointExtension>
        </extensions>
      </trkpt>
      <trkpt lat="45.3276920132339000701904296875" lon="-71.0492597334086894989013671875">
        <ele>529.5999755859375</ele>
        <time>2026-08-21T22:16:10.000Z</time>
        <extensions>
          <ns3:TrackPointExtension>
            <ns3:hr>124</ns3:hr>
            <ns3:cad>72</ns3:cad>
          </ns3:TrackPointExtension>
        </extensions>
      </trkpt>
      <trkpt lat="45.32770701684057712554931640625" lon="-71.0492771677672863006591796875">
        <ele>529.5999755859375</ele>
        <time>2026-08-21T22:16:11.000Z</time>
        <extensions>
          <ns3:TrackPointExtension>
            <ns3:hr>123</ns3:hr>
            <ns3:cad>72</ns3:cad>
          </ns3:TrackPointExtension>
        </extensions>
      </trkpt>
      <trkpt lat="45.3277188353240489959716796875" lon="-71.049291752278804779052734375">
        <ele>529.4000244140625</ele>
        <time>2026-08-21T22:16:12.000Z</time>
        <extensions>
          <ns3:TrackPointExtension>
            <ns3:hr>121</ns3:hr>
            <ns3:cad>72</ns3:cad>
          </ns3:TrackPointExtension>
        </extensions>
      </trkpt>
      <trkpt lat="45.32773015089333057403564453125" lon="-71.04929837398231029510498046875">
        <ele>529.20001220703125</ele>
        <time>2026-08-21T22:16:13.000Z</time>
        <extensions>
          <ns3:TrackPointExtension>
            <ns3:hr>120</ns3:hr>
            <ns3:cad>72</ns3:cad>
          </ns3:TrackPointExtension>
        </extensions>
      </trkpt>
      <trkpt lat="45.32774741761386394500732421875" lon="-71.0493095219135284423828125">
        <ele>529</ele>
        <time>2026-08-21T22:16:14.000Z</time>
        <extensions>
          <ns3:TrackPointExtension>
            <ns3:hr>120</ns3:hr>
            <ns3:cad>72</ns3:cad>
          </ns3:TrackPointExtension>
        </extensions>
      </trkpt>
      <trkpt lat="45.32776636071503162384033203125" lon="-71.04932201094925403594970703125">
        <ele>528.79998779296875</ele>
        <time>2026-08-21T22:16:15.000Z</time>
        <extensions>
          <ns3:TrackPointExtension>
            <ns3:hr>119</ns3:hr>
            <ns3:cad>72</ns3:cad>
          </ns3:TrackPointExtension>
        </extensions>
      </trkpt>
      <trkpt lat="45.327780358493328094482421875" lon="-71.0493351705372333526611328125">
        <ele>528.5999755859375</ele>
        <time>2026-08-21T22:16:16.000Z</time>
        <extensions>
          <ns3:TrackPointExtension>
            <ns3:hr>118</ns3:hr>
            <ns3:cad>72</ns3:cad>
          </ns3:TrackPointExtension>
        </extensions>
      </trkpt>
      <trkpt lat="45.3278039954602718353271484375" lon="-71.049347408115863800048828125">
        <ele>528.5999755859375</ele>
        <time>2026-08-21T22:16:17.000Z</time>
        <extensions>
          <ns3:TrackPointExtension>
            <ns3:hr>118</ns3:hr>
            <ns3:cad>72</ns3:cad>
          </ns3:TrackPointExtension>
        </extensions>
      </trkpt>
      <trkpt lat="45.32782696187496185302734375" lon="-71.04935402981936931610107421875">
        <ele>528.4000244140625</ele>
        <time>2026-08-21T22:16:18.000Z</time>
        <extensions>
          <ns3:TrackPointExtension>
            <ns3:hr>118</ns3:hr>
            <ns3:cad>72</ns3:cad>
          </ns3:TrackPointExtension>
        </extensions>
      </trkpt>
      <trkpt lat="45.32784347422420978546142578125" lon="-71.0493623279035091400146484375">
        <ele>528.20001220703125</ele>
        <time>2026-08-21T22:16:19.000Z</time>
        <extensions>
          <ns3:TrackPointExtension>
            <ns3:hr>117</ns3:hr>
            <ns3:cad>72</ns3:cad>
          </ns3:TrackPointExtension>
        </extensions>
      </trkpt>
      <trkpt lat="45.3278566338121891021728515625" lon="-71.049370877444744110107421875">
        <ele>528</ele>
        <time>2026-08-21T22:16:20.000Z</time>
        <extensions>
          <ns3:TrackPointExtension>
            <ns3:hr>117</ns3:hr>
            <ns3:cad>72</ns3:cad>
          </ns3:TrackPointExtension>
        </extensions>
      </trkpt>
      <trkpt lat="45.32787079922854900360107421875" lon="-71.04937599040567874908447265625">
        <ele>527.79998779296875</ele>
        <time>2026-08-21T22:16:21.000Z</time>
        <extensions>
          <ns3:TrackPointExtension>
            <ns3:hr>117</ns3:hr>
            <ns3:cad>72</ns3:cad>
          </ns3:TrackPointExtension>
        </extensions>
      </trkpt>
      <trkpt lat="45.32789007760584354400634765625" lon="-71.0493784211575984954833984375">
        <ele>527.5999755859375</ele>
        <time>2026-08-21T22:16:22.000Z</time>
        <extensions>
          <ns3:TrackPointExtension>
            <ns3:hr>118</ns3:hr>
            <ns3:cad>72</ns3:cad>
          </ns3:TrackPointExtension>
        </extensions>
      </trkpt>
      <trkpt lat="45.32790818251669406890869140625" lon="-71.04936710558831691741943359375">
        <ele>527.4000244140625</ele>
        <time>2026-08-21T22:16:23.000Z</time>
        <extensions>
          <ns3:TrackPointExtension>
            <ns3:hr>117</ns3:hr>
            <ns3:cad>72</ns3:cad>
          </ns3:TrackPointExtension>
        </extensions>
      </trkpt>
      <trkpt lat="45.3279273770749568939208984375" lon="-71.0493658483028411865234375">
        <ele>527.20001220703125</ele>
        <time>2026-08-21T22:16:24.000Z</time>
        <extensions>
          <ns3:TrackPointExtension>
            <ns3:hr>117</ns3:hr>
            <ns3:cad>71</ns3:cad>
          </ns3:TrackPointExtension>
        </extensions>
      </trkpt>
      <trkpt lat="45.32794942148029804229736328125" lon="-71.04937012307345867156982421875">
        <ele>526.79998779296875</ele>
        <time>2026-08-21T22:16:25.000Z</time>
        <extensions>
          <ns3:TrackPointExtension>
            <ns3:hr>117</ns3:hr>
            <ns3:cad>71</ns3:cad>
          </ns3:TrackPointExtension>
        </extensions>
      </trkpt>
      <trkpt lat="45.3279684484004974365234375" lon="-71.04937179945409297943115234375">
        <ele>526.4000244140625</ele>
        <time>2026-08-21T22:16:26.000Z</time>
        <extensions>
          <ns3:TrackPointExtension>
            <ns3:hr>117</ns3:hr>
            <ns3:cad>0</ns3:cad>
          </ns3:TrackPointExtension>
        </extensions>
      </trkpt>
      <trkpt lat="45.32798998989164829254150390625" lon="-71.04937146417796611785888671875">
        <ele>526.20001220703125</ele>
        <time>2026-08-21T22:16:27.000Z</time>
        <extensions>
          <ns3:TrackPointExtension>
            <ns3:hr>118</ns3:hr>
            <ns3:cad>0</ns3:cad>
          </ns3:TrackPointExtension>
        </extensions>
      </trkpt>
      <trkpt lat="45.32800775952637195587158203125" lon="-71.0493703745305538177490234375">
        <ele>526</ele>
        <time>2026-08-21T22:16:28.000Z</time>
        <extensions>
          <ns3:TrackPointExtension>
            <ns3:hr>118</ns3:hr>
            <ns3:cad>0</ns3:cad>
          </ns3:TrackPointExtension>
        </extensions>
      </trkpt>
      <trkpt lat="45.32802787609398365020751953125" lon="-71.0493603162467479705810546875">
        <ele>525.79998779296875</ele>
        <time>2026-08-21T22:16:29.000Z</time>
        <extensions>
          <ns3:TrackPointExtension>
            <ns3:hr>118</ns3:hr>
            <ns3:cad>0</ns3:cad>
          </ns3:TrackPointExtension>
        </extensions>
      </trkpt>
      <trkpt lat="45.32804111950099468231201171875" lon="-71.04935352690517902374267578125">
        <ele>525.4000244140625</ele>
        <time>2026-08-21T22:16:30.000Z</time>
        <extensions>
          <ns3:TrackPointExtension>
            <ns3:hr>119</ns3:hr>
            <ns3:cad>0</ns3:cad>
          </ns3:TrackPointExtension>
        </extensions>
      </trkpt>
      <trkpt lat="45.32805788330733776092529296875" lon="-71.049344055354595184326171875">
        <ele>525</ele>
        <time>2026-08-21T22:16:31.000Z</time>
        <extensions>
          <ns3:TrackPointExtension>
            <ns3:hr>118</ns3:hr>
            <ns3:cad>0</ns3:cad>
          </ns3:TrackPointExtension>
        </extensions>
      </trkpt>
      <trkpt lat="45.328071378171443939208984375" lon="-71.04933173395693302154541015625">
        <ele>524.79998779296875</ele>
        <time>2026-08-21T22:16:32.000Z</time>
        <extensions>
          <ns3:TrackPointExtension>
            <ns3:hr>118</ns3:hr>
            <ns3:cad>0</ns3:cad>
          </ns3:TrackPointExtension>
        </extensions>
      </trkpt>
      <trkpt lat="45.3280811011791229248046875" lon="-71.04931899346411228179931640625">
        <ele>524.4000244140625</ele>
        <time>2026-08-21T22:16:33.000Z</time>
        <extensions>
          <ns3:TrackPointExtension>
            <ns3:hr>118</ns3:hr>
            <ns3:cad>0</ns3:cad>
          </ns3:TrackPointExtension>
        </extensions>
      </trkpt>
      <trkpt lat="45.32808939926326274871826171875" lon="-71.04930818080902099609375">
        <ele>524.20001220703125</ele>
        <time>2026-08-21T22:16:34.000Z</time>
        <extensions>
          <ns3:TrackPointExtension>
            <ns3:hr>118</ns3:hr>
            <ns3:cad>0</ns3:cad>
          </ns3:TrackPointExtension>
        </extensions>
      </trkpt>
      <trkpt lat="45.32810532487928867340087890625" lon="-71.0493013076484203338623046875">
        <ele>524.20001220703125</ele>
        <time>2026-08-21T22:16:35.000Z</time>
        <extensions>
          <ns3:TrackPointExtension>
            <ns3:hr>118</ns3:hr>
            <ns3:cad>0</ns3:cad>
          </ns3:TrackPointExtension>
        </extensions>
      </trkpt>
      <trkpt lat="45.32811840064823627471923828125" lon="-71.0492992959916591644287109375">
        <ele>524.20001220703125</ele>
        <time>2026-08-21T22:16:36.000Z</time>
        <extensions>
          <ns3:TrackPointExtension>
            <ns3:hr>119</ns3:hr>
            <ns3:cad>72</ns3:cad>
          </ns3:TrackPointExtension>
        </extensions>
      </trkpt>
      <trkpt lat="45.3281258605420589447021484375" lon="-71.0493013076484203338623046875">
        <ele>524</ele>
        <time>2026-08-21T22:16:37.000Z</time>
        <extensions>
          <ns3:TrackPointExtension>
            <ns3:hr>120</ns3:hr>
            <ns3:cad>72</ns3:cad>
          </ns3:TrackPointExtension>
        </extensions>
      </trkpt>
      <trkpt lat="45.32812829129397869110107421875" lon="-71.0493053309619426727294921875">
        <ele>524</ele>
        <time>2026-08-21T22:16:38.000Z</time>
        <extensions>
          <ns3:TrackPointExtension>
            <ns3:hr>120</ns3:hr>
            <ns3:cad>72</ns3:cad>
          </ns3:TrackPointExtension>
        </extensions>
      </trkpt>
      <trkpt lat="45.328131727874279022216796875" lon="-71.04930122382938861846923828125">
        <ele>524</ele>
        <time>2026-08-21T22:16:39.000Z</time>
        <extensions>
          <ns3:TrackPointExtension>
            <ns3:hr>120</ns3:hr>
            <ns3:cad>0</ns3:cad>
          </ns3:TrackPointExtension>
        </extensions>
      </trkpt>
      <trkpt lat="45.32813315279781818389892578125" lon="-71.04929678142070770263671875">
        <ele>524.20001220703125</ele>
        <time>2026-08-21T22:16:40.000Z</time>
        <extensions>
          <ns3:TrackPointExtension>
            <ns3:hr>120</ns3:hr>
            <ns3:cad>0</ns3:cad>
          </ns3:TrackPointExtension>
        </extensions>
      </trkpt>
      <trkpt lat="45.328135751187801361083984375" lon="-71.049294769763946533203125">
        <ele>524.20001220703125</ele>
        <time>2026-08-21T22:16:41.000Z</time>
        <extensions>
          <ns3:TrackPointExtension>
            <ns3:hr>120</ns3:hr>
            <ns3:cad>76</ns3:cad>
          </ns3:TrackPointExtension>
        </extensions>
      </trkpt>
      <trkpt lat="45.32814941368997097015380859375" lon="-71.04929250665009021759033203125">
        <ele>524.20001220703125</ele>
        <time>2026-08-21T22:16:42.000Z</time>
        <extensions>
          <ns3:TrackPointExtension>
            <ns3:hr>120</ns3:hr>
            <ns3:cad>76</ns3:cad>
          </ns3:TrackPointExtension>
        </extensions>
      </trkpt>
      <trkpt lat="45.32816223800182342529296875" lon="-71.0493003018200397491455078125">
        <ele>524.20001220703125</ele>
        <time>2026-08-21T22:16:43.000Z</time>
        <extensions>
          <ns3:TrackPointExtension>
            <ns3:hr>119</ns3:hr>
            <ns3:cad>76</ns3:cad>
          </ns3:TrackPointExtension>
        </extensions>
      </trkpt>
      <trkpt lat="45.32817757688462734222412109375" lon="-71.049297116696834564208984375">
        <ele>524</ele>
        <time>2026-08-21T22:16:44.000Z</time>
        <extensions>
          <ns3:TrackPointExtension>
            <ns3:hr>119</ns3:hr>
            <ns3:cad>76</ns3:cad>
          </ns3:TrackPointExtension>
        </extensions>
      </trkpt>
      <trkpt lat="45.32819383777678012847900390625" lon="-71.0492989607155323028564453125">
        <ele>523.79998779296875</ele>
        <time>2026-08-21T22:16:45.000Z</time>
        <extensions>
          <ns3:TrackPointExtension>
            <ns3:hr>118</ns3:hr>
            <ns3:cad>62</ns3:cad>
          </ns3:TrackPointExtension>
        </extensions>
      </trkpt>
      <trkpt lat="45.32820624299347400665283203125" lon="-71.04930390603840351104736328125">
        <ele>523.4000244140625</ele>
        <time>2026-08-21T22:16:46.000Z</time>
        <extensions>
          <ns3:TrackPointExtension>
            <ns3:hr>118</ns3:hr>
            <ns3:cad>62</ns3:cad>
          </ns3:TrackPointExtension>
        </extensions>
      </trkpt>
      <trkpt lat="45.328216217458248138427734375" lon="-71.049309857189655303955078125">
        <ele>523</ele>
        <time>2026-08-21T22:16:47.000Z</time>
        <extensions>
          <ns3:TrackPointExtension>
            <ns3:hr>118</ns3:hr>
            <ns3:cad>62</ns3:cad>
          </ns3:TrackPointExtension>
        </extensions>
      </trkpt>
      <trkpt lat="45.32823340035974979400634765625" lon="-71.04931480251252651214599609375">
        <ele>522.5999755859375</ele>
        <time>2026-08-21T22:16:48.000Z</time>
        <extensions>
          <ns3:TrackPointExtension>
            <ns3:hr>118</ns3:hr>
            <ns3:cad>62</ns3:cad>
          </ns3:TrackPointExtension>
        </extensions>
      </trkpt>
      <trkpt lat="45.3282527625560760498046875" lon="-71.04930709116160869598388671875">
        <ele>522.4000244140625</ele>
        <time>2026-08-21T22:16:49.000Z</time>
        <extensions>
          <ns3:TrackPointExtension>
            <ns3:hr>118</ns3:hr>
            <ns3:cad>62</ns3:cad>
          </ns3:TrackPointExtension>
        </extensions>
      </trkpt>
      <trkpt lat="45.32827095128595829010009765625" lon="-71.0493013076484203338623046875">
        <ele>522.20001220703125</ele>
        <time>2026-08-21T22:16:50.000Z</time>
        <extensions>
          <ns3:TrackPointExtension>
            <ns3:hr>118</ns3:hr>
            <ns3:cad>68</ns3:cad>
          </ns3:TrackPointExtension>
        </extensions>
      </trkpt>
      <trkpt lat="45.3282901458442211151123046875" lon="-71.04930407367646694183349609375">
        <ele>522</ele>
        <time>2026-08-21T22:16:51.000Z</time>
        <extensions>
          <ns3:TrackPointExtension>
            <ns3:hr>118</ns3:hr>
            <ns3:cad>68</ns3:cad>
          </ns3:TrackPointExtension>
        </extensions>
      </trkpt>
      <trkpt lat="45.32831244170665740966796875" lon="-71.0493056662380695343017578125">
        <ele>521.79998779296875</ele>
        <time>2026-08-21T22:16:52.000Z</time>
        <extensions>
          <ns3:TrackPointExtension>
            <ns3:hr>118</ns3:hr>
            <ns3:cad>68</ns3:cad>
          </ns3:TrackPointExtension>
        </extensions>
      </trkpt>
      <trkpt lat="45.3283278644084930419921875" lon="-71.0493120364844799041748046875">
        <ele>521.5999755859375</ele>
        <time>2026-08-21T22:16:53.000Z</time>
        <extensions>
          <ns3:TrackPointExtension>
            <ns3:hr>118</ns3:hr>
            <ns3:cad>68</ns3:cad>
          </ns3:TrackPointExtension>
        </extensions>
      </trkpt>
      <trkpt lat="45.3283441253006458282470703125" lon="-71.04930792935192584991455078125">
        <ele>521.4000244140625</ele>
        <time>2026-08-21T22:16:54.000Z</time>
        <extensions>
          <ns3:TrackPointExtension>
            <ns3:hr>118</ns3:hr>
            <ns3:cad>68</ns3:cad>
          </ns3:TrackPointExtension>
        </extensions>
      </trkpt>
      <trkpt lat="45.32836114056408405303955078125" lon="-71.0492979548871517181396484375">
        <ele>521.20001220703125</ele>
        <time>2026-08-21T22:16:55.000Z</time>
        <extensions>
          <ns3:TrackPointExtension>
            <ns3:hr>119</ns3:hr>
            <ns3:cad>68</ns3:cad>
          </ns3:TrackPointExtension>
        </extensions>
      </trkpt>
      <trkpt lat="45.32838444225490093231201171875" lon="-71.0492882318794727325439453125">
        <ele>521</ele>
        <time>2026-08-21T22:16:56.000Z</time>
        <extensions>
          <ns3:TrackPointExtension>
            <ns3:hr>119</ns3:hr>
            <ns3:cad>68</ns3:cad>
          </ns3:TrackPointExtension>
        </extensions>
      </trkpt>
      <trkpt lat="45.32840036787092685699462890625" lon="-71.0492826998233795166015625">
        <ele>521</ele>
        <time>2026-08-21T22:16:57.000Z</time>
        <extensions>
          <ns3:TrackPointExtension>
            <ns3:hr>119</ns3:hr>
            <ns3:cad>68</ns3:cad>
          </ns3:TrackPointExtension>
        </extensions>
      </trkpt>
      <trkpt lat="45.328416042029857635498046875" lon="-71.04927800595760345458984375">
        <ele>520.79998779296875</ele>
        <time>2026-08-21T22:16:58.000Z</time>
        <extensions>
          <ns3:TrackPointExtension>
            <ns3:hr>120</ns3:hr>
            <ns3:cad>68</ns3:cad>
          </ns3:TrackPointExtension>
        </extensions>
      </trkpt>
      <trkpt lat="45.32843104563653469085693359375" lon="-71.04926970787346363067626953125">
        <ele>520.79998779296875</ele>
        <time>2026-08-21T22:16:59.000Z</time>
        <extensions>
          <ns3:TrackPointExtension>
            <ns3:hr>120</ns3:hr>
            <ns3:cad>68</ns3:cad>
          </ns3:TrackPointExtension>
        </extensions>
      </trkpt>
      <trkpt lat="45.3284433670341968536376953125" lon="-71.04926082305610179901123046875">
        <ele>520.5999755859375</ele>
        <time>2026-08-21T22:17:00.000Z</time>
        <extensions>
          <ns3:TrackPointExtension>
            <ns3:hr>119</ns3:hr>
            <ns3:cad>68</ns3:cad>
          </ns3:TrackPointExtension>
        </extensions>
      </trkpt>
      <trkpt lat="45.32845518551766872406005859375" lon="-71.04925579391419887542724609375">
        <ele>520.5999755859375</ele>
        <time>2026-08-21T22:17:01.000Z</time>
        <extensions>
          <ns3:TrackPointExtension>
            <ns3:hr>119</ns3:hr>
            <ns3:cad>68</ns3:cad>
          </ns3:TrackPointExtension>
        </extensions>
      </trkpt>
      <trkpt lat="45.328469015657901763916015625" lon="-71.049251854419708251953125">
        <ele>520.5999755859375</ele>
        <time>2026-08-21T22:17:02.000Z</time>
        <extensions>
          <ns3:TrackPointExtension>
            <ns3:hr>119</ns3:hr>
            <ns3:cad>68</ns3:cad>
          </ns3:TrackPointExtension>
        </extensions>
      </trkpt>
      <trkpt lat="45.3284834325313568115234375" lon="-71.0492570511996746063232421875">
        <ele>520.4000244140625</ele>
        <time>2026-08-21T22:17:03.000Z</time>
        <extensions>
          <ns3:TrackPointExtension>
            <ns3:hr>118</ns3:hr>
            <ns3:cad>68</ns3:cad>
          </ns3:TrackPointExtension>
        </extensions>
      </trkpt>
      <trkpt lat="45.3284896351397037506103515625" lon="-71.04926182888448238372802734375">
        <ele>520.4000244140625</ele>
        <time>2026-08-21T22:17:04.000Z</time>
        <extensions>
          <ns3:TrackPointExtension>
            <ns3:hr>118</ns3:hr>
            <ns3:cad>68</ns3:cad>
          </ns3:TrackPointExtension>
        </extensions>
      </trkpt>
      <trkpt lat="45.32849659211933612823486328125" lon="-71.04926467873156070709228515625">
        <ele>520.4000244140625</ele>
        <time>2026-08-21T22:17:05.000Z</time>
        <extensions>
          <ns3:TrackPointExtension>
            <ns3:hr>117</ns3:hr>
            <ns3:cad>68</ns3:cad>
          </ns3:TrackPointExtension>
        </extensions>
      </trkpt>
      <trkpt lat="45.32849751412868499755859375" lon="-71.04926585219800472259521484375">
        <ele>520.20001220703125</ele>
        <time>2026-08-21T22:17:06.000Z</time>
        <extensions>
          <ns3:TrackPointExtension>
            <ns3:hr>117</ns3:hr>
            <ns3:cad>68</ns3:cad>
          </ns3:TrackPointExtension>
        </extensions>
      </trkpt>
      <trkpt lat="45.32850631512701511383056640625" lon="-71.04927104897797107696533203125">
        <ele>520</ele>
        <time>2026-08-21T22:17:07.000Z</time>
        <extensions>
          <ns3:TrackPointExtension>
            <ns3:hr>117</ns3:hr>
            <ns3:cad>0</ns3:cad>
          </ns3:TrackPointExtension>
        </extensions>
      </trkpt>
      <trkpt lat="45.32851360738277435302734375" lon="-71.049275659024715423583984375">
        <ele>520</ele>
        <time>2026-08-21T22:17:08.000Z</time>
        <extensions>
          <ns3:TrackPointExtension>
            <ns3:hr>117</ns3:hr>
            <ns3:cad>0</ns3:cad>
          </ns3:TrackPointExtension>
        </extensions>
      </trkpt>
      <trkpt lat="45.3285201452672481536865234375" lon="-71.04928446002304553985595703125">
        <ele>519.79998779296875</ele>
        <time>2026-08-21T22:17:09.000Z</time>
        <extensions>
          <ns3:TrackPointExtension>
            <ns3:hr>116</ns3:hr>
            <ns3:cad>0</ns3:cad>
          </ns3:TrackPointExtension>
        </extensions>
      </trkpt>
      <trkpt lat="45.3285365737974643707275390625" lon="-71.049290411174297332763671875">
        <ele>519.5999755859375</ele>
        <time>2026-08-21T22:17:10.000Z</time>
        <extensions>
          <ns3:TrackPointExtension>
            <ns3:hr>117</ns3:hr>
            <ns3:cad>0</ns3:cad>
          </ns3:TrackPointExtension>
        </extensions>
      </trkpt>
      <trkpt lat="45.32855828292667865753173828125" lon="-71.0492909140884876251220703125">
        <ele>519.4000244140625</ele>
        <time>2026-08-21T22:17:11.000Z</time>
        <extensions>
          <ns3:TrackPointExtension>
            <ns3:hr>118</ns3:hr>
            <ns3:cad>0</ns3:cad>
          </ns3:TrackPointExtension>
        </extensions>
      </trkpt>
      <trkpt lat="45.3285711072385311126708984375" lon="-71.0492889024317264556884765625">
        <ele>519.4000244140625</ele>
        <time>2026-08-21T22:17:12.000Z</time>
        <extensions>
          <ns3:TrackPointExtension>
            <ns3:hr>118</ns3:hr>
            <ns3:cad>0</ns3:cad>
          </ns3:TrackPointExtension>
        </extensions>
      </trkpt>
      <trkpt lat="45.3285788185894489288330078125" lon="-71.049289405345916748046875">
        <ele>519.20001220703125</ele>
        <time>2026-08-21T22:17:13.000Z</time>
        <extensions>
          <ns3:TrackPointExtension>
            <ns3:hr>118</ns3:hr>
            <ns3:cad>0</ns3:cad>
          </ns3:TrackPointExtension>
        </extensions>
      </trkpt>
      <trkpt lat="45.32859097234904766082763671875" lon="-71.04928831569850444793701171875">
        <ele>519.20001220703125</ele>
        <time>2026-08-21T22:17:14.000Z</time>
        <extensions>
          <ns3:TrackPointExtension>
            <ns3:hr>118</ns3:hr>
            <ns3:cad>0</ns3:cad>
          </ns3:TrackPointExtension>
        </extensions>
      </trkpt>
      <trkpt lat="45.3286006115376949310302734375" lon="-71.04928043670952320098876953125">
        <ele>519</ele>
        <time>2026-08-21T22:17:15.000Z</time>
        <extensions>
          <ns3:TrackPointExtension>
            <ns3:hr>118</ns3:hr>
            <ns3:cad>0</ns3:cad>
          </ns3:TrackPointExtension>
        </extensions>
      </trkpt>
      <trkpt lat="45.328607149422168731689453125" lon="-71.04928077198565006256103515625">
        <ele>519</ele>
        <time>2026-08-21T22:17:16.000Z</time>
        <extensions>
          <ns3:TrackPointExtension>
            <ns3:hr>119</ns3:hr>
            <ns3:cad>0</ns3:cad>
          </ns3:TrackPointExtension>
        </extensions>
      </trkpt>
      <trkpt lat="45.328608490526676177978515625" lon="-71.04927691631019115447998046875">
        <ele>518.79998779296875</ele>
        <time>2026-08-21T22:17:17.000Z</time>
        <extensions>
          <ns3:TrackPointExtension>
            <ns3:hr>120</ns3:hr>
            <ns3:cad>0</ns3:cad>
          </ns3:TrackPointExtension>
        </extensions>
      </trkpt>
      <trkpt lat="45.32860958017408847808837890625" lon="-71.04927523992955684661865234375">
        <ele>518.5999755859375</ele>
        <time>2026-08-21T22:17:18.000Z</time>
        <extensions>
          <ns3:TrackPointExtension>
            <ns3:hr>121</ns3:hr>
            <ns3:cad>0</ns3:cad>
          </ns3:TrackPointExtension>
        </extensions>
      </trkpt>
      <trkpt lat="45.32860857434570789337158203125" lon="-71.04927373118698596954345703125">
        <ele>518.5999755859375</ele>
        <time>2026-08-21T22:17:19.000Z</time>
        <extensions>
          <ns3:TrackPointExtension>
            <ns3:hr>121</ns3:hr>
            <ns3:cad>0</ns3:cad>
          </ns3:TrackPointExtension>
        </extensions>
      </trkpt>
      <trkpt lat="45.32860941253602504730224609375" lon="-71.04926970787346363067626953125">
        <ele>518.4000244140625</ele>
        <time>2026-08-21T22:17:20.000Z</time>
        <extensions>
          <ns3:TrackPointExtension>
            <ns3:hr>121</ns3:hr>
            <ns3:cad>0</ns3:cad>
          </ns3:TrackPointExtension>
        </extensions>
      </trkpt>
      <trkpt lat="45.3286121785640716552734375" lon="-71.04926652275025844573974609375">
        <ele>518.4000244140625</ele>
        <time>2026-08-21T22:17:21.000Z</time>
        <extensions>
          <ns3:TrackPointExtension>
            <ns3:hr>121</ns3:hr>
            <ns3:cad>0</ns3:cad>
          </ns3:TrackPointExtension>
        </extensions>
      </trkpt>
      <trkpt lat="45.32861209474503993988037109375" lon="-71.0492650978267192840576171875">
        <ele>518.4000244140625</ele>
        <time>2026-08-21T22:17:22.000Z</time>
        <extensions>
          <ns3:TrackPointExtension>
            <ns3:hr>121</ns3:hr>
            <ns3:cad>0</ns3:cad>
          </ns3:TrackPointExtension>
        </extensions>
      </trkpt>
      <trkpt lat="45.32861209474503993988037109375" lon="-71.0492650978267192840576171875">
        <ele>518.4000244140625</ele>
        <time>2026-08-21T22:17:23.000Z</time>
        <extensions>
          <ns3:TrackPointExtension>
            <ns3:hr>120</ns3:hr>
            <ns3:cad>0</ns3:cad>
          </ns3:TrackPointExtension>
        </extensions>
      </trkpt>
      <trkpt lat="45.32861209474503993988037109375" lon="-71.0492650978267192840576171875">
        <ele>518.4000244140625</ele>
        <time>2026-08-21T22:17:24.000Z</time>
        <extensions>
          <ns3:TrackPointExtension>
            <ns3:hr>120</ns3:hr>
            <ns3:cad>0</ns3:cad>
          </ns3:TrackPointExtension>
        </extensions>
      </trkpt>
      <trkpt lat="45.32861209474503993988037109375" lon="-71.0492650978267192840576171875">
        <ele>518.4000244140625</ele>
        <time>2026-08-21T22:17:25.000Z</time>
        <extensions>
          <ns3:TrackPointExtension>
            <ns3:hr>118</ns3:hr>
            <ns3:cad>0</ns3:cad>
          </ns3:TrackPointExtension>
        </extensions>
      </trkpt>
      <trkpt lat="45.3286121785640716552734375" lon="-71.049264259636402130126953125">
        <ele>518.4000244140625</ele>
        <time>2026-08-21T22:17:26.000Z</time>
        <extensions>
          <ns3:TrackPointExtension>
            <ns3:hr>120</ns3:hr>
            <ns3:cad>0</ns3:cad>
          </ns3:TrackPointExtension>
        </extensions>
      </trkpt>
      <trkpt lat="45.32862366177141666412353515625" lon="-71.0492647625505924224853515625">
        <ele>518.4000244140625</ele>
        <time>2026-08-21T22:17:27.000Z</time>
        <extensions>
          <ns3:TrackPointExtension>
            <ns3:hr>121</ns3:hr>
            <ns3:cad>0</ns3:cad>
          </ns3:TrackPointExtension>
        </extensions>
      </trkpt>
      <trkpt lat="45.32863824628293514251708984375" lon="-71.049262583255767822265625">
        <ele>518.4000244140625</ele>
        <time>2026-08-21T22:17:28.000Z</time>
        <extensions>
          <ns3:TrackPointExtension>
            <ns3:hr>121</ns3:hr>
            <ns3:cad>0</ns3:cad>
          </ns3:TrackPointExtension>
        </extensions>
      </trkpt>
      <trkpt lat="45.32865568064153194427490234375" lon="-71.049258895218372344970703125">
        <ele>518.20001220703125</ele>
        <time>2026-08-21T22:17:29.000Z</time>
        <extensions>
          <ns3:TrackPointExtension>
            <ns3:hr>121</ns3:hr>
            <ns3:cad>0</ns3:cad>
          </ns3:TrackPointExtension>
        </extensions>
      </trkpt>
      <trkpt lat="45.3286649845540523529052734375" lon="-71.04925847612321376800537109375">
        <ele>518.20001220703125</ele>
        <time>2026-08-21T22:17:30.000Z</time>
        <extensions>
          <ns3:TrackPointExtension>
            <ns3:hr>120</ns3:hr>
            <ns3:cad>0</ns3:cad>
          </ns3:TrackPointExtension>
        </extensions>
      </trkpt>
      <trkpt lat="45.32867730595171451568603515625" lon="-71.04925160296261310577392578125">
        <ele>518.20001220703125</ele>
        <time>2026-08-21T22:17:31.000Z</time>
        <extensions>
          <ns3:TrackPointExtension>
            <ns3:hr>121</ns3:hr>
            <ns3:cad>0</ns3:cad>
          </ns3:TrackPointExtension>
        </extensions>
      </trkpt>
      <trkpt lat="45.3286877833306789398193359375" lon="-71.04924623854458332061767578125">
        <ele>518</ele>
        <time>2026-08-21T22:17:32.000Z</time>
        <extensions>
          <ns3:TrackPointExtension>
            <ns3:hr>119</ns3:hr>
            <ns3:cad>68</ns3:cad>
          </ns3:TrackPointExtension>
        </extensions>
      </trkpt>
      <trkpt lat="45.32869474031031131744384765625" lon="-71.0492409579455852508544921875">
        <ele>518.20001220703125</ele>
        <time>2026-08-21T22:17:33.000Z</time>
        <extensions>
          <ns3:TrackPointExtension>
            <ns3:hr>117</ns3:hr>
            <ns3:cad>68</ns3:cad>
          </ns3:TrackPointExtension>
        </extensions>
      </trkpt>
      <trkpt lat="45.32869373448193073272705078125" lon="-71.04923911392688751220703125">
        <ele>518.20001220703125</ele>
        <time>2026-08-21T22:17:34.000Z</time>
        <extensions>
          <ns3:TrackPointExtension>
            <ns3:hr>116</ns3:hr>
            <ns3:cad>68</ns3:cad>
          </ns3:TrackPointExtension>
        </extensions>
      </trkpt>
      <trkpt lat="45.3286924771964550018310546875" lon="-71.0492473281919956207275390625">
        <ele>518</ele>
        <time>2026-08-21T22:17:35.000Z</time>
        <extensions>
          <ns3:TrackPointExtension>
            <ns3:hr>118</ns3:hr>
            <ns3:cad>68</ns3:cad>
          </ns3:TrackPointExtension>
        </extensions>
      </trkpt>
      <trkpt lat="45.328690297901630401611328125" lon="-71.04925009422004222869873046875">
        <ele>518</ele>
        <time>2026-08-21T22:17:36.000Z</time>
        <extensions>
          <ns3:TrackPointExtension>
            <ns3:hr>118</ns3:hr>
            <ns3:cad>68</ns3:cad>
          </ns3:TrackPointExtension>
        </extensions>
      </trkpt>
      <trkpt lat="45.32869172282516956329345703125" lon="-71.04924959130585193634033203125">
        <ele>517.79998779296875</ele>
        <time>2026-08-21T22:17:37.000Z</time>
        <extensions>
          <ns3:TrackPointExtension>
            <ns3:hr>119</ns3:hr>
            <ns3:cad>0</ns3:cad>
          </ns3:TrackPointExtension>
        </extensions>
      </trkpt>
      <trkpt lat="45.3286938183009624481201171875" lon="-71.04924942366778850555419921875">
        <ele>517.5999755859375</ele>
        <time>2026-08-21T22:17:38.000Z</time>
        <extensions>
          <ns3:TrackPointExtension>
            <ns3:hr>119</ns3:hr>
            <ns3:cad>0</ns3:cad>
          </ns3:TrackPointExtension>
        </extensions>
      </trkpt>
      <trkpt lat="45.3286951594054698944091796875" lon="-71.0492547042667865753173828125">
        <ele>517.20001220703125</ele>
        <time>2026-08-21T22:17:39.000Z</time>
        <extensions>
          <ns3:TrackPointExtension>
            <ns3:hr>119</ns3:hr>
            <ns3:cad>0</ns3:cad>
          </ns3:TrackPointExtension>
        </extensions>
      </trkpt>
      <trkpt lat="45.328705720603466033935546875" lon="-71.04925529100000858306884765625">
        <ele>516.79998779296875</ele>
        <time>2026-08-21T22:17:40.000Z</time>
        <extensions>
          <ns3:TrackPointExtension>
            <ns3:hr>119</ns3:hr>
            <ns3:cad>0</ns3:cad>
          </ns3:TrackPointExtension>
        </extensions>
      </trkpt>
      <trkpt lat="45.32871477305889129638671875" lon="-71.04925780557096004486083984375">
        <ele>516.5999755859375</ele>
        <time>2026-08-21T22:17:41.000Z</time>
        <extensions>
          <ns3:TrackPointExtension>
            <ns3:hr>119</ns3:hr>
            <ns3:cad>0</ns3:cad>
          </ns3:TrackPointExtension>
        </extensions>
      </trkpt>
      <trkpt lat="45.3287216462194919586181640625" lon="-71.04926727712154388427734375">
        <ele>516.4000244140625</ele>
        <time>2026-08-21T22:17:42.000Z</time>
        <extensions>
          <ns3:TrackPointExtension>
            <ns3:hr>119</ns3:hr>
            <ns3:cad>0</ns3:cad>
          </ns3:TrackPointExtension>
        </extensions>
      </trkpt>
      <trkpt lat="45.32873128540813922882080078125" lon="-71.04927289299666881561279296875">
        <ele>516.20001220703125</ele>
        <time>2026-08-21T22:17:43.000Z</time>
        <extensions>
          <ns3:TrackPointExtension>
            <ns3:hr>118</ns3:hr>
            <ns3:cad>0</ns3:cad>
          </ns3:TrackPointExtension>
        </extensions>
      </trkpt>
      <trkpt lat="45.328736566007137298583984375" lon="-71.04927808977663516998291015625">
        <ele>516</ele>
        <time>2026-08-21T22:17:44.000Z</time>
        <extensions>
          <ns3:TrackPointExtension>
            <ns3:hr>118</ns3:hr>
            <ns3:cad>0</ns3:cad>
          </ns3:TrackPointExtension>
        </extensions>
      </trkpt>
      <trkpt lat="45.32874318771064281463623046875" lon="-71.04927658103406429290771484375">
        <ele>516</ele>
        <time>2026-08-21T22:17:45.000Z</time>
        <extensions>
          <ns3:TrackPointExtension>
            <ns3:hr>118</ns3:hr>
            <ns3:cad>0</ns3:cad>
          </ns3:TrackPointExtension>
        </extensions>
      </trkpt>
      <trkpt lat="45.3287538327276706695556640625" lon="-71.04927959851920604705810546875">
        <ele>515.79998779296875</ele>
        <time>2026-08-21T22:17:46.000Z</time>
        <extensions>
          <ns3:TrackPointExtension>
            <ns3:hr>118</ns3:hr>
            <ns3:cad>0</ns3:cad>
          </ns3:TrackPointExtension>
        </extensions>
      </trkpt>
      <trkpt lat="45.32876431010663509368896484375" lon="-71.04928948916494846343994140625">
        <ele>515.79998779296875</ele>
        <time>2026-08-21T22:17:47.000Z</time>
        <extensions>
          <ns3:TrackPointExtension>
            <ns3:hr>117</ns3:hr>
            <ns3:cad>0</ns3:cad>
          </ns3:TrackPointExtension>
        </extensions>
      </trkpt>
      <trkpt lat="45.3287726081907749176025390625" lon="-71.04930675588548183441162109375">
        <ele>515.5999755859375</ele>
        <time>2026-08-21T22:17:48.000Z</time>
        <extensions>
          <ns3:TrackPointExtension>
            <ns3:hr>116</ns3:hr>
            <ns3:cad>0</ns3:cad>
          </ns3:TrackPointExtension>
        </extensions>
      </trkpt>
      <trkpt lat="45.328782498836517333984375" lon="-71.04931421577930450439453125">
        <ele>515.5999755859375</ele>
        <time>2026-08-21T22:17:49.000Z</time>
        <extensions>
          <ns3:TrackPointExtension>
            <ns3:hr>116</ns3:hr>
            <ns3:cad>0</ns3:cad>
          </ns3:TrackPointExtension>
        </extensions>
      </trkpt>
      <trkpt lat="45.3287890367209911346435546875" lon="-71.049321256577968597412109375">
        <ele>515.4000244140625</ele>
        <time>2026-08-21T22:17:50.000Z</time>
        <extensions>
          <ns3:TrackPointExtension>
            <ns3:hr>116</ns3:hr>
            <ns3:cad>0</ns3:cad>
          </ns3:TrackPointExtension>
        </extensions>
      </trkpt>
      <trkpt lat="45.32879515551030635833740234375" lon="-71.04933441616594791412353515625">
        <ele>515.4000244140625</ele>
        <time>2026-08-21T22:17:51.000Z</time>
        <extensions>
          <ns3:TrackPointExtension>
            <ns3:hr>116</ns3:hr>
            <ns3:cad>0</ns3:cad>
          </ns3:TrackPointExtension>
        </extensions>
      </trkpt>
      <trkpt lat="45.32880823127925395965576171875" lon="-71.049343384802341461181640625">
        <ele>515.4000244140625</ele>
        <time>2026-08-21T22:17:52.000Z</time>
        <extensions>
          <ns3:TrackPointExtension>
            <ns3:hr>116</ns3:hr>
            <ns3:cad>0</ns3:cad>
          </ns3:TrackPointExtension>
        </extensions>
      </trkpt>
      <trkpt lat="45.3288275934755802154541015625" lon="-71.04934933595359325408935546875">
        <ele>515.20001220703125</ele>
        <time>2026-08-21T22:17:53.000Z</time>
        <extensions>
          <ns3:TrackPointExtension>
            <ns3:hr>116</ns3:hr>
            <ns3:cad>0</ns3:cad>
          </ns3:TrackPointExtension>
        </extensions>
      </trkpt>
      <trkpt lat="45.32884217798709869384765625" lon="-71.049353778362274169921875">
        <ele>515</ele>
        <time>2026-08-21T22:17:54.000Z</time>
        <extensions>
          <ns3:TrackPointExtension>
            <ns3:hr>116</ns3:hr>
            <ns3:cad>0</ns3:cad>
          </ns3:TrackPointExtension>
        </extensions>
      </trkpt>
      <trkpt lat="45.3288567624986171722412109375" lon="-71.04935989715158939361572265625">
        <ele>515</ele>
        <time>2026-08-21T22:17:55.000Z</time>
        <extensions>
          <ns3:TrackPointExtension>
            <ns3:hr>117</ns3:hr>
            <ns3:cad>0</ns3:cad>
          </ns3:TrackPointExtension>
        </extensions>
      </trkpt>
      <trkpt lat="45.32887662760913372039794921875" lon="-71.04936643503606319427490234375">
        <ele>514.79998779296875</ele>
        <time>2026-08-21T22:17:56.000Z</time>
        <extensions>
          <ns3:TrackPointExtension>
            <ns3:hr>116</ns3:hr>
            <ns3:cad>55</ns3:cad>
          </ns3:TrackPointExtension>
        </extensions>
      </trkpt>
      <trkpt lat="45.32888651825487613677978515625" lon="-71.04936920106410980224609375">
        <ele>514.5999755859375</ele>
        <time>2026-08-21T22:17:57.000Z</time>
        <extensions>
          <ns3:TrackPointExtension>
            <ns3:hr>116</ns3:hr>
            <ns3:cad>55</ns3:cad>
          </ns3:TrackPointExtension>
        </extensions>
      </trkpt>
      <trkpt lat="45.32888777554035186767578125" lon="-71.04935771785676479339599609375">
        <ele>514.4000244140625</ele>
        <time>2026-08-21T22:17:58.000Z</time>
        <extensions>
          <ns3:TrackPointExtension>
            <ns3:hr>117</ns3:hr>
            <ns3:cad>55</ns3:cad>
          </ns3:TrackPointExtension>
        </extensions>
      </trkpt>
      <trkpt lat="45.328884087502956390380859375" lon="-71.049357466399669647216796875">
        <ele>514.20001220703125</ele>
        <time>2026-08-21T22:17:59.000Z</time>
        <extensions>
          <ns3:TrackPointExtension>
            <ns3:hr>117</ns3:hr>
            <ns3:cad>55</ns3:cad>
          </ns3:TrackPointExtension>
        </extensions>
      </trkpt>
      <trkpt lat="45.32888517715036869049072265625" lon="-71.04934908449649810791015625">
        <ele>514.20001220703125</ele>
        <time>2026-08-21T22:18:00.000Z</time>
        <extensions>
          <ns3:TrackPointExtension>
            <ns3:hr>116</ns3:hr>
            <ns3:cad>55</ns3:cad>
          </ns3:TrackPointExtension>
        </extensions>
      </trkpt>
      <trkpt lat="45.32888886518776416778564453125" lon="-71.0493495874106884002685546875">
        <ele>514.20001220703125</ele>
        <time>2026-08-21T22:18:01.000Z</time>
        <extensions>
          <ns3:TrackPointExtension>
            <ns3:hr>115</ns3:hr>
            <ns3:cad>55</ns3:cad>
          </ns3:TrackPointExtension>
        </extensions>
      </trkpt>
      <trkpt lat="45.3288919664919376373291015625" lon="-71.04934833012521266937255859375">
        <ele>514.20001220703125</ele>
        <time>2026-08-21T22:18:02.000Z</time>
        <extensions>
          <ns3:TrackPointExtension>
            <ns3:hr>114</ns3:hr>
            <ns3:cad>55</ns3:cad>
          </ns3:TrackPointExtension>
        </extensions>
      </trkpt>
      <trkpt lat="45.32889221794903278350830078125" lon="-71.04934179224073886871337890625">
        <ele>514.20001220703125</ele>
        <time>2026-08-21T22:18:03.000Z</time>
        <extensions>
          <ns3:TrackPointExtension>
            <ns3:hr>114</ns3:hr>
            <ns3:cad>0</ns3:cad>
          </ns3:TrackPointExtension>
        </extensions>
      </trkpt>
      <trkpt lat="45.32889339141547679901123046875" lon="-71.049331314861774444580078125">
        <ele>514.4000244140625</ele>
        <time>2026-08-21T22:18:04.000Z</time>
        <extensions>
          <ns3:TrackPointExtension>
            <ns3:hr>113</ns3:hr>
            <ns3:cad>0</ns3:cad>
          </ns3:TrackPointExtension>
        </extensions>
      </trkpt>
      <trkpt lat="45.3288884460926055908203125" lon="-71.04932201094925403594970703125">
        <ele>514.4000244140625</ele>
        <time>2026-08-21T22:18:05.000Z</time>
        <extensions>
          <ns3:TrackPointExtension>
            <ns3:hr>113</ns3:hr>
            <ns3:cad>0</ns3:cad>
          </ns3:TrackPointExtension>
        </extensions>
      </trkpt>
      <trkpt lat="45.328881740570068359375" lon="-71.04931354522705078125">
        <ele>514.5999755859375</ele>
        <time>2026-08-21T22:18:06.000Z</time>
        <extensions>
          <ns3:TrackPointExtension>
            <ns3:hr>112</ns3:hr>
            <ns3:cad>0</ns3:cad>
          </ns3:TrackPointExtension>
        </extensions>
      </trkpt>
      <trkpt lat="45.3288718499243259429931640625" lon="-71.04930977337062358856201171875">
        <ele>514.5999755859375</ele>
        <time>2026-08-21T22:18:07.000Z</time>
        <extensions>
          <ns3:TrackPointExtension>
            <ns3:hr>112</ns3:hr>
            <ns3:cad>0</ns3:cad>
          </ns3:TrackPointExtension>
        </extensions>
      </trkpt>
      <trkpt lat="45.32886522822082042694091796875" lon="-71.04931312613189220428466796875">
        <ele>514.79998779296875</ele>
        <time>2026-08-21T22:18:08.000Z</time>
        <extensions>
          <ns3:TrackPointExtension>
            <ns3:hr>112</ns3:hr>
            <ns3:cad>0</ns3:cad>
          </ns3:TrackPointExtension>
        </extensions>
      </trkpt>
      <trkpt lat="45.3288562595844268798828125" lon="-71.04931731708347797393798828125">
        <ele>514.79998779296875</ele>
        <time>2026-08-21T22:18:09.000Z</time>
        <extensions>
          <ns3:TrackPointExtension>
            <ns3:hr>111</ns3:hr>
            <ns3:cad>0</ns3:cad>
          </ns3:TrackPointExtension>
        </extensions>
      </trkpt>
      <trkpt lat="45.32884427346289157867431640625" lon="-71.04931949637830257415771484375">
        <ele>514.79998779296875</ele>
        <time>2026-08-21T22:18:10.000Z</time>
        <extensions>
          <ns3:TrackPointExtension>
            <ns3:hr>111</ns3:hr>
            <ns3:cad>45</ns3:cad>
          </ns3:TrackPointExtension>
        </extensions>
      </trkpt>
      <trkpt lat="45.32884477637708187103271484375" lon="-71.049329973757266998291015625">
        <ele>515</ele>
        <time>2026-08-21T22:18:11.000Z</time>
        <extensions>
          <ns3:TrackPointExtension>
            <ns3:hr>111</ns3:hr>
            <ns3:cad>46</ns3:cad>
          </ns3:TrackPointExtension>
        </extensions>
      </trkpt>
      <trkpt lat="45.32883974723517894744873046875" lon="-71.0493405349552631378173828125">
        <ele>515</ele>
        <time>2026-08-21T22:18:12.000Z</time>
        <extensions>
          <ns3:TrackPointExtension>
            <ns3:hr>111</ns3:hr>
            <ns3:cad>46</ns3:cad>
          </ns3:TrackPointExtension>
        </extensions>
      </trkpt>
      <trkpt lat="45.3288383223116397857666015625" lon="-71.04934330098330974578857421875">
        <ele>515</ele>
        <time>2026-08-21T22:18:13.000Z</time>
        <extensions>
          <ns3:TrackPointExtension>
            <ns3:hr>111</ns3:hr>
            <ns3:cad>46</ns3:cad>
          </ns3:TrackPointExtension>
        </extensions>
      </trkpt>
      <trkpt lat="45.32883555628359317779541015625" lon="-71.0493469052016735076904296875">
        <ele>515.20001220703125</ele>
        <time>2026-08-21T22:18:14.000Z</time>
        <extensions>
          <ns3:TrackPointExtension>
            <ns3:hr>112</ns3:hr>
            <ns3:cad>46</ns3:cad>
          </ns3:TrackPointExtension>
        </extensions>
      </trkpt>
      <trkpt lat="45.32883052714169025421142578125" lon="-71.049350090324878692626953125">
        <ele>515.20001220703125</ele>
        <time>2026-08-21T22:18:15.000Z</time>
        <extensions>
          <ns3:TrackPointExtension>
            <ns3:hr>112</ns3:hr>
            <ns3:cad>0</ns3:cad>
          </ns3:TrackPointExtension>
        </extensions>
      </trkpt>
      <trkpt lat="45.32882801257073879241943359375" lon="-71.04935704730451107025146484375">
        <ele>515.20001220703125</ele>
        <time>2026-08-21T22:18:16.000Z</time>
        <extensions>
          <ns3:TrackPointExtension>
            <ns3:hr>112</ns3:hr>
            <ns3:cad>0</ns3:cad>
          </ns3:TrackPointExtension>
        </extensions>
      </trkpt>
      <trkpt lat="45.3288275934755802154541015625" lon="-71.04935872368514537811279296875">
        <ele>515.4000244140625</ele>
        <time>2026-08-21T22:18:17.000Z</time>
        <extensions>
          <ns3:TrackPointExtension>
            <ns3:hr>112</ns3:hr>
            <ns3:cad>0</ns3:cad>
          </ns3:TrackPointExtension>
        </extensions>
      </trkpt>
      <trkpt lat="45.3288240730762481689453125" lon="-71.049359478056430816650390625">
        <ele>515.4000244140625</ele>
        <time>2026-08-21T22:18:18.000Z</time>
        <extensions>
          <ns3:TrackPointExtension>
            <ns3:hr>111</ns3:hr>
            <ns3:cad>0</ns3:cad>
          </ns3:TrackPointExtension>
        </extensions>
      </trkpt>
      <trkpt lat="45.32881778664886951446533203125" lon="-71.04936241172254085540771484375">
        <ele>515.4000244140625</ele>
        <time>2026-08-21T22:18:19.000Z</time>
        <extensions>
          <ns3:TrackPointExtension>
            <ns3:hr>112</ns3:hr>
            <ns3:cad>0</ns3:cad>
          </ns3:TrackPointExtension>
        </extensions>
      </trkpt>
      <trkpt lat="45.3288111649453639984130859375" lon="-71.04935972951352596282958984375">
        <ele>515.4000244140625</ele>
        <time>2026-08-21T22:18:20.000Z</time>
        <extensions>
          <ns3:TrackPointExtension>
            <ns3:hr>112</ns3:hr>
            <ns3:cad>0</ns3:cad>
          </ns3:TrackPointExtension>
        </extensions>
      </trkpt>
      <trkpt lat="45.32880940474569797515869140625" lon="-71.04935201816260814666748046875">
        <ele>515.4000244140625</ele>
        <time>2026-08-21T22:18:21.000Z</time>
        <extensions>
          <ns3:TrackPointExtension>
            <ns3:hr>112</ns3:hr>
            <ns3:cad>0</ns3:cad>
          </ns3:TrackPointExtension>
        </extensions>
      </trkpt>
      <trkpt lat="45.328804291784763336181640625" lon="-71.04934480972588062286376953125">
        <ele>515.5999755859375</ele>
        <time>2026-08-21T22:18:22.000Z</time>
        <extensions>
          <ns3:TrackPointExtension>
            <ns3:hr>112</ns3:hr>
            <ns3:cad>0</ns3:cad>
          </ns3:TrackPointExtension>
        </extensions>
      </trkpt>
      <trkpt lat="45.32879984937608242034912109375" lon="-71.04934598319232463836669921875">
        <ele>515.5999755859375</ele>
        <time>2026-08-21T22:18:23.000Z</time>
        <extensions>
          <ns3:TrackPointExtension>
            <ns3:hr>112</ns3:hr>
            <ns3:cad>0</ns3:cad>
          </ns3:TrackPointExtension>
        </extensions>
      </trkpt>
      <trkpt lat="45.3287972509860992431640625" lon="-71.04934816248714923858642578125">
        <ele>515.79998779296875</ele>
        <time>2026-08-21T22:18:24.000Z</time>
        <extensions>
          <ns3:TrackPointExtension>
            <ns3:hr>113</ns3:hr>
            <ns3:cad>0</ns3:cad>
          </ns3:TrackPointExtension>
        </extensions>
      </trkpt>
      <trkpt lat="45.32878744415938854217529296875" lon="-71.04935285635292530059814453125">
        <ele>515.79998779296875</ele>
        <time>2026-08-21T22:18:25.000Z</time>
        <extensions>
          <ns3:TrackPointExtension>
            <ns3:hr>115</ns3:hr>
            <ns3:cad>0</ns3:cad>
          </ns3:TrackPointExtension>
        </extensions>
      </trkpt>
      <trkpt lat="45.328782163560390472412109375" lon="-71.0493495874106884002685546875">
        <ele>515.79998779296875</ele>
        <time>2026-08-21T22:18:26.000Z</time>
        <extensions>
          <ns3:TrackPointExtension>
            <ns3:hr>116</ns3:hr>
            <ns3:cad>0</ns3:cad>
          </ns3:TrackPointExtension>
        </extensions>
      </trkpt>
      <trkpt lat="45.32877512276172637939453125" lon="-71.0493470728397369384765625">
        <ele>515.79998779296875</ele>
        <time>2026-08-21T22:18:27.000Z</time>
        <extensions>
          <ns3:TrackPointExtension>
            <ns3:hr>117</ns3:hr>
            <ns3:cad>0</ns3:cad>
          </ns3:TrackPointExtension>
        </extensions>
      </trkpt>
      <trkpt lat="45.3287689201533794403076171875" lon="-71.0493519343435764312744140625">
        <ele>515.79998779296875</ele>
        <time>2026-08-21T22:18:28.000Z</time>
        <extensions>
          <ns3:TrackPointExtension>
            <ns3:hr>118</ns3:hr>
            <ns3:cad>0</ns3:cad>
          </ns3:TrackPointExtension>
        </extensions>
      </trkpt>
      <trkpt lat="45.3287695907056331634521484375" lon="-71.04935151524841785430908203125">
        <ele>515.79998779296875</ele>
        <time>2026-08-21T22:18:29.000Z</time>
        <extensions>
          <ns3:TrackPointExtension>
            <ns3:hr>118</ns3:hr>
            <ns3:cad>0</ns3:cad>
          </ns3:TrackPointExtension>
        </extensions>
      </trkpt>
      <trkpt lat="45.3287682496011257171630859375" lon="-71.04935319162905216217041015625">
        <ele>515.79998779296875</ele>
        <time>2026-08-21T22:18:30.000Z</time>
        <extensions>
          <ns3:TrackPointExtension>
            <ns3:hr>118</ns3:hr>
            <ns3:cad>0</ns3:cad>
          </ns3:TrackPointExtension>
        </extensions>
      </trkpt>
      <trkpt lat="45.32876305282115936279296875" lon="-71.049356795847415924072265625">
        <ele>515.79998779296875</ele>
        <time>2026-08-21T22:18:31.000Z</time>
        <extensions>
          <ns3:TrackPointExtension>
            <ns3:hr>118</ns3:hr>
            <ns3:cad>0</ns3:cad>
          </ns3:TrackPointExtension>
        </extensions>
      </trkpt>
      <trkpt lat="45.32875894568860530853271484375" lon="-71.04935855604708194732666015625">
        <ele>515.79998779296875</ele>
        <time>2026-08-21T22:18:32.000Z</time>
        <extensions>
          <ns3:TrackPointExtension>
            <ns3:hr>119</ns3:hr>
            <ns3:cad>0</ns3:cad>
          </ns3:TrackPointExtension>
        </extensions>
      </trkpt>
      <trkpt lat="45.32875643111765384674072265625" lon="-71.04935402981936931610107421875">
        <ele>515.79998779296875</ele>
        <time>2026-08-21T22:18:33.000Z</time>
        <extensions>
          <ns3:TrackPointExtension>
            <ns3:hr>119</ns3:hr>
            <ns3:cad>0</ns3:cad>
          </ns3:TrackPointExtension>
        </extensions>
      </trkpt>
      <trkpt lat="45.32874888740479946136474609375" lon="-71.049355454742908477783203125">
        <ele>515.5999755859375</ele>
        <time>2026-08-21T22:18:34.000Z</time>
        <extensions>
          <ns3:TrackPointExtension>
            <ns3:hr>119</ns3:hr>
            <ns3:cad>0</ns3:cad>
          </ns3:TrackPointExtension>
        </extensions>
      </trkpt>
      <trkpt lat="45.32874771393835544586181640625" lon="-71.04935587383806705474853515625">
        <ele>515.79998779296875</ele>
        <time>2026-08-21T22:18:35.000Z</time>
        <extensions>
          <ns3:TrackPointExtension>
            <ns3:hr>119</ns3:hr>
            <ns3:cad>0</ns3:cad>
          </ns3:TrackPointExtension>
        </extensions>
      </trkpt>
      <trkpt lat="45.3287464566528797149658203125" lon="-71.0493562929332256317138671875">
        <ele>515.79998779296875</ele>
        <time>2026-08-21T22:18:36.000Z</time>
        <extensions>
          <ns3:TrackPointExtension>
            <ns3:hr>120</ns3:hr>
            <ns3:cad>0</ns3:cad>
          </ns3:TrackPointExtension>
        </extensions>
      </trkpt>
      <trkpt lat="45.32874553464353084564208984375" lon="-71.049356795847415924072265625">
        <ele>515.79998779296875</ele>
        <time>2026-08-21T22:18:37.000Z</time>
        <extensions>
          <ns3:TrackPointExtension>
            <ns3:hr>119</ns3:hr>
            <ns3:cad>0</ns3:cad>
          </ns3:TrackPointExtension>
        </extensions>
      </trkpt>
      <trkpt lat="45.3287454508244991302490234375" lon="-71.04935671202838420867919921875">
        <ele>515.79998779296875</ele>
        <time>2026-08-21T22:18:38.000Z</time>
        <extensions>
          <ns3:TrackPointExtension>
            <ns3:hr>119</ns3:hr>
            <ns3:cad>0</ns3:cad>
          </ns3:TrackPointExtension>
        </extensions>
      </trkpt>
      <trkpt lat="45.3287454508244991302490234375" lon="-71.04935671202838420867919921875">
        <ele>516</ele>
        <time>2026-08-21T22:18:39.000Z</time>
        <extensions>
          <ns3:TrackPointExtension>
            <ns3:hr>120</ns3:hr>
            <ns3:cad>0</ns3:cad>
          </ns3:TrackPointExtension>
        </extensions>
      </trkpt>
      <trkpt lat="45.3287454508244991302490234375" lon="-71.04935671202838420867919921875">
        <ele>516</ele>
        <time>2026-08-21T22:18:40.000Z</time>
        <extensions>
          <ns3:TrackPointExtension>
            <ns3:hr>120</ns3:hr>
            <ns3:cad>0</ns3:cad>
          </ns3:TrackPointExtension>
        </extensions>
      </trkpt>
      <trkpt lat="45.3287454508244991302490234375" lon="-71.04935671202838420867919921875">
        <ele>515.79998779296875</ele>
        <time>2026-08-21T22:18:41.000Z</time>
        <extensions>
          <ns3:TrackPointExtension>
            <ns3:hr>120</ns3:hr>
            <ns3:cad>0</ns3:cad>
          </ns3:TrackPointExtension>
        </extensions>
      </trkpt>
      <trkpt lat="45.3287454508244991302490234375" lon="-71.04935671202838420867919921875">
        <ele>515.79998779296875</ele>
        <time>2026-08-21T22:18:42.000Z</time>
        <extensions>
          <ns3:TrackPointExtension>
            <ns3:hr>121</ns3:hr>
            <ns3:cad>0</ns3:cad>
          </ns3:TrackPointExtension>
        </extensions>
      </trkpt>
      <trkpt lat="45.3287454508244991302490234375" lon="-71.04935671202838420867919921875">
        <ele>515.79998779296875</ele>
        <time>2026-08-21T22:18:43.000Z</time>
        <extensions>
          <ns3:TrackPointExtension>
            <ns3:hr>122</ns3:hr>
            <ns3:cad>0</ns3:cad>
          </ns3:TrackPointExtension>
        </extensions>
      </trkpt>
      <trkpt lat="45.3287454508244991302490234375" lon="-71.04935671202838420867919921875">
        <ele>515.79998779296875</ele>
        <time>2026-08-21T22:18:44.000Z</time>
        <extensions>
          <ns3:TrackPointExtension>
            <ns3:hr>122</ns3:hr>
            <ns3:cad>0</ns3:cad>
          </ns3:TrackPointExtension>
        </extensions>
      </trkpt>
      <trkpt lat="45.3287454508244991302490234375" lon="-71.04935671202838420867919921875">
        <ele>515.79998779296875</ele>
        <time>2026-08-21T22:18:45.000Z</time>
        <extensions>
          <ns3:TrackPointExtension>
            <ns3:hr>122</ns3:hr>
            <ns3:cad>0</ns3:cad>
          </ns3:TrackPointExtension>
        </extensions>
      </trkpt>
      <trkpt lat="45.3287454508244991302490234375" lon="-71.04935671202838420867919921875">
        <ele>515.79998779296875</ele>
        <time>2026-08-21T22:18:46.000Z</time>
        <extensions>
          <ns3:TrackPointExtension>
            <ns3:hr>123</ns3:hr>
            <ns3:cad>0</ns3:cad>
          </ns3:TrackPointExtension>
        </extensions>
      </trkpt>
      <trkpt lat="45.3287454508244991302490234375" lon="-71.04935671202838420867919921875">
        <ele>515.79998779296875</ele>
        <time>2026-08-21T22:18:47.000Z</time>
        <extensions>
          <ns3:TrackPointExtension>
            <ns3:hr>124</ns3:hr>
            <ns3:cad>0</ns3:cad>
          </ns3:TrackPointExtension>
        </extensions>
      </trkpt>
      <trkpt lat="45.3287454508244991302490234375" lon="-71.04935671202838420867919921875">
        <ele>515.79998779296875</ele>
        <time>2026-08-21T22:18:48.000Z</time>
        <extensions>
          <ns3:TrackPointExtension>
            <ns3:hr>124</ns3:hr>
            <ns3:cad>0</ns3:cad>
          </ns3:TrackPointExtension>
        </extensions>
      </trkpt>
      <trkpt lat="45.3287454508244991302490234375" lon="-71.04935671202838420867919921875">
        <ele>515.79998779296875</ele>
        <time>2026-08-21T22:18:49.000Z</time>
        <extensions>
          <ns3:TrackPointExtension>
            <ns3:hr>124</ns3:hr>
            <ns3:cad>0</ns3:cad>
          </ns3:TrackPointExtension>
        </extensions>
      </trkpt>
      <trkpt lat="45.3287454508244991302490234375" lon="-71.04935671202838420867919921875">
        <ele>515.79998779296875</ele>
        <time>2026-08-21T22:18:50.000Z</time>
        <extensions>
          <ns3:TrackPointExtension>
            <ns3:hr>125</ns3:hr>
            <ns3:cad>0</ns3:cad>
          </ns3:TrackPointExtension>
        </extensions>
      </trkpt>
      <trkpt lat="45.3287454508244991302490234375" lon="-71.04935671202838420867919921875">
        <ele>515.79998779296875</ele>
        <time>2026-08-21T22:18:51.000Z</time>
        <extensions>
          <ns3:TrackPointExtension>
            <ns3:hr>125</ns3:hr>
            <ns3:cad>0</ns3:cad>
          </ns3:TrackPointExtension>
        </extensions>
      </trkpt>
      <trkpt lat="45.3287454508244991302490234375" lon="-71.04935671202838420867919921875">
        <ele>515.79998779296875</ele>
        <time>2026-08-21T22:18:52.000Z</time>
        <extensions>
          <ns3:TrackPointExtension>
            <ns3:hr>126</ns3:hr>
            <ns3:cad>0</ns3:cad>
          </ns3:TrackPointExtension>
        </extensions>
      </trkpt>
      <trkpt lat="45.3287454508244991302490234375" lon="-71.04935671202838420867919921875">
        <ele>515.79998779296875</ele>
        <time>2026-08-21T22:18:53.000Z</time>
        <extensions>
          <ns3:TrackPointExtension>
            <ns3:hr>126</ns3:hr>
            <ns3:cad>0</ns3:cad>
          </ns3:TrackPointExtension>
        </extensions>
      </trkpt>
      <trkpt lat="45.3287454508244991302490234375" lon="-71.04935671202838420867919921875">
        <ele>515.79998779296875</ele>
        <time>2026-08-21T22:18:54.000Z</time>
        <extensions>
          <ns3:TrackPointExtension>
            <ns3:hr>126</ns3:hr>
            <ns3:cad>0</ns3:cad>
          </ns3:TrackPointExtension>
        </extensions>
      </trkpt>
      <trkpt lat="45.3287454508244991302490234375" lon="-71.04935671202838420867919921875">
        <ele>515.5999755859375</ele>
        <time>2026-08-21T22:18:55.000Z</time>
        <extensions>
          <ns3:TrackPointExtension>
            <ns3:hr>126</ns3:hr>
            <ns3:cad>0</ns3:cad>
          </ns3:TrackPointExtension>
        </extensions>
      </trkpt>
      <trkpt lat="45.3287454508244991302490234375" lon="-71.04935671202838420867919921875">
        <ele>515.5999755859375</ele>
        <time>2026-08-21T22:18:56.000Z</time>
        <extensions>
          <ns3:TrackPointExtension>
            <ns3:hr>126</ns3:hr>
            <ns3:cad>0</ns3:cad>
          </ns3:TrackPointExtension>
        </extensions>
      </trkpt>
      <trkpt lat="45.3287454508244991302490234375" lon="-71.04935671202838420867919921875">
        <ele>515.5999755859375</ele>
        <time>2026-08-21T22:18:57.000Z</time>
        <extensions>
          <ns3:TrackPointExtension>
            <ns3:hr>126</ns3:hr>
            <ns3:cad>0</ns3:cad>
          </ns3:TrackPointExtension>
        </extensions>
      </trkpt>
      <trkpt lat="45.3287454508244991302490234375" lon="-71.04935671202838420867919921875">
        <ele>515.5999755859375</ele>
        <time>2026-08-21T22:18:58.000Z</time>
        <extensions>
          <ns3:TrackPointExtension>
            <ns3:hr>126</ns3:hr>
            <ns3:cad>0</ns3:cad>
          </ns3:TrackPointExtension>
        </extensions>
      </trkpt>
      <trkpt lat="45.3287454508244991302490234375" lon="-71.04935671202838420867919921875">
        <ele>515.5999755859375</ele>
        <time>2026-08-21T22:18:59.000Z</time>
        <extensions>
          <ns3:TrackPointExtension>
            <ns3:hr>126</ns3:hr>
            <ns3:cad>0</ns3:cad>
          </ns3:TrackPointExtension>
        </extensions>
      </trkpt>
      <trkpt lat="45.3287454508244991302490234375" lon="-71.04935671202838420867919921875">
        <ele>515.5999755859375</ele>
        <time>2026-08-21T22:19:00.000Z</time>
        <extensions>
          <ns3:TrackPointExtension>
            <ns3:hr>126</ns3:hr>
            <ns3:cad>0</ns3:cad>
          </ns3:TrackPointExtension>
        </extensions>
      </trkpt>
      <trkpt lat="45.3287454508244991302490234375" lon="-71.04935671202838420867919921875">
        <ele>515.4000244140625</ele>
        <time>2026-08-21T22:19:01.000Z</time>
        <extensions>
          <ns3:TrackPointExtension>
            <ns3:hr>126</ns3:hr>
            <ns3:cad>0</ns3:cad>
          </ns3:TrackPointExtension>
        </extensions>
      </trkpt>
      <trkpt lat="45.3287454508244991302490234375" lon="-71.04935671202838420867919921875">
        <ele>515.4000244140625</ele>
        <time>2026-08-21T22:19:02.000Z</time>
        <extensions>
          <ns3:TrackPointExtension>
            <ns3:hr>125</ns3:hr>
            <ns3:cad>0</ns3:cad>
          </ns3:TrackPointExtension>
        </extensions>
      </trkpt>
      <trkpt lat="45.3287454508244991302490234375" lon="-71.04935671202838420867919921875">
        <ele>515.4000244140625</ele>
        <time>2026-08-21T22:19:03.000Z</time>
        <extensions>
          <ns3:TrackPointExtension>
            <ns3:hr>125</ns3:hr>
            <ns3:cad>0</ns3:cad>
          </ns3:TrackPointExtension>
        </extensions>
      </trkpt>
      <trkpt lat="45.3287454508244991302490234375" lon="-71.04935671202838420867919921875">
        <ele>515.4000244140625</ele>
        <time>2026-08-21T22:19:04.000Z</time>
        <extensions>
          <ns3:TrackPointExtension>
            <ns3:hr>124</ns3:hr>
            <ns3:cad>0</ns3:cad>
          </ns3:TrackPointExtension>
        </extensions>
      </trkpt>
      <trkpt lat="45.3287454508244991302490234375" lon="-71.04935671202838420867919921875">
        <ele>515.4000244140625</ele>
        <time>2026-08-21T22:19:05.000Z</time>
        <extensions>
          <ns3:TrackPointExtension>
            <ns3:hr>124</ns3:hr>
            <ns3:cad>0</ns3:cad>
          </ns3:TrackPointExtension>
        </extensions>
      </trkpt>
      <trkpt lat="45.3287454508244991302490234375" lon="-71.04935671202838420867919921875">
        <ele>515.4000244140625</ele>
        <time>2026-08-21T22:19:06.000Z</time>
        <extensions>
          <ns3:TrackPointExtension>
            <ns3:hr>124</ns3:hr>
            <ns3:cad>0</ns3:cad>
          </ns3:TrackPointExtension>
        </extensions>
      </trkpt>
      <trkpt lat="45.3287454508244991302490234375" lon="-71.04935671202838420867919921875">
        <ele>515.4000244140625</ele>
        <time>2026-08-21T22:19:07.000Z</time>
        <extensions>
          <ns3:TrackPointExtension>
            <ns3:hr>124</ns3:hr>
            <ns3:cad>0</ns3:cad>
          </ns3:TrackPointExtension>
        </extensions>
      </trkpt>
      <trkpt lat="45.3287454508244991302490234375" lon="-71.04935671202838420867919921875">
        <ele>515.4000244140625</ele>
        <time>2026-08-21T22:19:08.000Z</time>
        <extensions>
          <ns3:TrackPointExtension>
            <ns3:hr>123</ns3:hr>
            <ns3:cad>0</ns3:cad>
          </ns3:TrackPointExtension>
        </extensions>
      </trkpt>
      <trkpt lat="45.3287454508244991302490234375" lon="-71.04935671202838420867919921875">
        <ele>515.4000244140625</ele>
        <time>2026-08-21T22:19:09.000Z</time>
        <extensions>
          <ns3:TrackPointExtension>
            <ns3:hr>123</ns3:hr>
            <ns3:cad>0</ns3:cad>
          </ns3:TrackPointExtension>
        </extensions>
      </trkpt>
      <trkpt lat="45.3287454508244991302490234375" lon="-71.04935671202838420867919921875">
        <ele>515.4000244140625</ele>
        <time>2026-08-21T22:19:10.000Z</time>
        <extensions>
          <ns3:TrackPointExtension>
            <ns3:hr>120</ns3:hr>
            <ns3:cad>0</ns3:cad>
          </ns3:TrackPointExtension>
        </extensions>
      </trkpt>
      <trkpt lat="45.3287454508244991302490234375" lon="-71.04935671202838420867919921875">
        <ele>515.4000244140625</ele>
        <time>2026-08-21T22:19:11.000Z</time>
        <extensions>
          <ns3:TrackPointExtension>
            <ns3:hr>118</ns3:hr>
            <ns3:cad>0</ns3:cad>
          </ns3:TrackPointExtension>
        </extensions>
      </trkpt>
      <trkpt lat="45.3287454508244991302490234375" lon="-71.04935671202838420867919921875">
        <ele>515.4000244140625</ele>
        <time>2026-08-21T22:19:12.000Z</time>
        <extensions>
          <ns3:TrackPointExtension>
            <ns3:hr>117</ns3:hr>
            <ns3:cad>0</ns3:cad>
          </ns3:TrackPointExtension>
        </extensions>
      </trkpt>
      <trkpt lat="45.3287454508244991302490234375" lon="-71.04935671202838420867919921875">
        <ele>515.20001220703125</ele>
        <time>2026-08-21T22:19:13.000Z</time>
        <extensions>
          <ns3:TrackPointExtension>
            <ns3:hr>116</ns3:hr>
            <ns3:cad>0</ns3:cad>
          </ns3:TrackPointExtension>
        </extensions>
      </trkpt>
      <trkpt lat="45.3287454508244991302490234375" lon="-71.04935671202838420867919921875">
        <ele>515.20001220703125</ele>
        <time>2026-08-21T22:19:14.000Z</time>
        <extensions>
          <ns3:TrackPointExtension>
            <ns3:hr>114</ns3:hr>
            <ns3:cad>0</ns3:cad>
          </ns3:TrackPointExtension>
        </extensions>
      </trkpt>
      <trkpt lat="45.3287454508244991302490234375" lon="-71.04935671202838420867919921875">
        <ele>515.20001220703125</ele>
        <time>2026-08-21T22:19:15.000Z</time>
        <extensions>
          <ns3:TrackPointExtension>
            <ns3:hr>114</ns3:hr>
            <ns3:cad>0</ns3:cad>
          </ns3:TrackPointExtension>
        </extensions>
      </trkpt>
      <trkpt lat="45.3287454508244991302490234375" lon="-71.04935671202838420867919921875">
        <ele>515.20001220703125</ele>
        <time>2026-08-21T22:19:16.000Z</time>
        <extensions>
          <ns3:TrackPointExtension>
            <ns3:hr>114</ns3:hr>
            <ns3:cad>0</ns3:cad>
          </ns3:TrackPointExtension>
        </extensions>
      </trkpt>
      <trkpt lat="45.3287454508244991302490234375" lon="-71.04935671202838420867919921875">
        <ele>515.20001220703125</ele>
        <time>2026-08-21T22:19:17.000Z</time>
        <extensions>
          <ns3:TrackPointExtension>
            <ns3:hr>113</ns3:hr>
            <ns3:cad>0</ns3:cad>
          </ns3:TrackPointExtension>
        </extensions>
      </trkpt>
      <trkpt lat="45.3287454508244991302490234375" lon="-71.04935671202838420867919921875">
        <ele>515.20001220703125</ele>
        <time>2026-08-21T22:19:18.000Z</time>
        <extensions>
          <ns3:TrackPointExtension>
            <ns3:hr>112</ns3:hr>
            <ns3:cad>0</ns3:cad>
          </ns3:TrackPointExtension>
        </extensions>
      </trkpt>
      <trkpt lat="45.3287454508244991302490234375" lon="-71.04935671202838420867919921875">
        <ele>515.20001220703125</ele>
        <time>2026-08-21T22:19:19.000Z</time>
        <extensions>
          <ns3:TrackPointExtension>
            <ns3:hr>111</ns3:hr>
            <ns3:cad>0</ns3:cad>
          </ns3:TrackPointExtension>
        </extensions>
      </trkpt>
      <trkpt lat="45.3287454508244991302490234375" lon="-71.04935671202838420867919921875">
        <ele>515.20001220703125</ele>
        <time>2026-08-21T22:19:20.000Z</time>
        <extensions>
          <ns3:TrackPointExtension>
            <ns3:hr>111</ns3:hr>
            <ns3:cad>0</ns3:cad>
          </ns3:TrackPointExtension>
        </extensions>
      </trkpt>
      <trkpt lat="45.3287454508244991302490234375" lon="-71.04935671202838420867919921875">
        <ele>515.20001220703125</ele>
        <time>2026-08-21T22:19:21.000Z</time>
        <extensions>
          <ns3:TrackPointExtension>
            <ns3:hr>110</ns3:hr>
            <ns3:cad>0</ns3:cad>
          </ns3:TrackPointExtension>
        </extensions>
      </trkpt>
      <trkpt lat="45.3287454508244991302490234375" lon="-71.04935671202838420867919921875">
        <ele>515.20001220703125</ele>
        <time>2026-08-21T22:19:22.000Z</time>
        <extensions>
          <ns3:TrackPointExtension>
            <ns3:hr>109</ns3:hr>
            <ns3:cad>0</ns3:cad>
          </ns3:TrackPointExtension>
        </extensions>
      </trkpt>
      <trkpt lat="45.3287454508244991302490234375" lon="-71.04935671202838420867919921875">
        <ele>515.20001220703125</ele>
        <time>2026-08-21T22:19:23.000Z</time>
        <extensions>
          <ns3:TrackPointExtension>
            <ns3:hr>107</ns3:hr>
            <ns3:cad>0</ns3:cad>
          </ns3:TrackPointExtension>
        </extensions>
      </trkpt>
      <trkpt lat="45.3287454508244991302490234375" lon="-71.04935671202838420867919921875">
        <ele>515.20001220703125</ele>
        <time>2026-08-21T22:19:24.000Z</time>
        <extensions>
          <ns3:TrackPointExtension>
            <ns3:hr>105</ns3:hr>
            <ns3:cad>0</ns3:cad>
          </ns3:TrackPointExtension>
        </extensions>
      </trkpt>
      <trkpt lat="45.3287454508244991302490234375" lon="-71.04935671202838420867919921875">
        <ele>515.20001220703125</ele>
        <time>2026-08-21T22:19:25.000Z</time>
        <extensions>
          <ns3:TrackPointExtension>
            <ns3:hr>105</ns3:hr>
            <ns3:cad>0</ns3:cad>
          </ns3:TrackPointExtension>
        </extensions>
      </trkpt>
      <trkpt lat="45.3287454508244991302490234375" lon="-71.04935671202838420867919921875">
        <ele>515.20001220703125</ele>
        <time>2026-08-21T22:19:26.000Z</time>
        <extensions>
          <ns3:TrackPointExtension>
            <ns3:hr>105</ns3:hr>
            <ns3:cad>0</ns3:cad>
          </ns3:TrackPointExtension>
        </extensions>
      </trkpt>
      <trkpt lat="45.3287454508244991302490234375" lon="-71.04935671202838420867919921875">
        <ele>515.20001220703125</ele>
        <time>2026-08-21T22:19:27.000Z</time>
        <extensions>
          <ns3:TrackPointExtension>
            <ns3:hr>105</ns3:hr>
            <ns3:cad>0</ns3:cad>
          </ns3:TrackPointExtension>
        </extensions>
      </trkpt>
      <trkpt lat="45.3287454508244991302490234375" lon="-71.04935671202838420867919921875">
        <ele>515.20001220703125</ele>
        <time>2026-08-21T22:19:28.000Z</time>
        <extensions>
          <ns3:TrackPointExtension>
            <ns3:hr>106</ns3:hr>
            <ns3:cad>0</ns3:cad>
          </ns3:TrackPointExtension>
        </extensions>
      </trkpt>
      <trkpt lat="45.3287454508244991302490234375" lon="-71.04935671202838420867919921875">
        <ele>515.20001220703125</ele>
        <time>2026-08-21T22:19:29.000Z</time>
        <extensions>
          <ns3:TrackPointExtension>
            <ns3:hr>106</ns3:hr>
            <ns3:cad>0</ns3:cad>
          </ns3:TrackPointExtension>
        </extensions>
      </trkpt>
      <trkpt lat="45.3287454508244991302490234375" lon="-71.04935671202838420867919921875">
        <ele>515.20001220703125</ele>
        <time>2026-08-21T22:19:30.000Z</time>
        <extensions>
          <ns3:TrackPointExtension>
            <ns3:hr>106</ns3:hr>
            <ns3:cad>0</ns3:cad>
          </ns3:TrackPointExtension>
        </extensions>
      </trkpt>
      <trkpt lat="45.3287454508244991302490234375" lon="-71.04935671202838420867919921875">
        <ele>515.20001220703125</ele>
        <time>2026-08-21T22:19:31.000Z</time>
        <extensions>
          <ns3:TrackPointExtension>
            <ns3:hr>106</ns3:hr>
            <ns3:cad>0</ns3:cad>
          </ns3:TrackPointExtension>
        </extensions>
      </trkpt>
      <trkpt lat="45.3287454508244991302490234375" lon="-71.04935671202838420867919921875">
        <ele>515.20001220703125</ele>
        <time>2026-08-21T22:19:32.000Z</time>
        <extensions>
          <ns3:TrackPointExtension>
            <ns3:hr>107</ns3:hr>
            <ns3:cad>0</ns3:cad>
          </ns3:TrackPointExtension>
        </extensions>
      </trkpt>
      <trkpt lat="45.3287454508244991302490234375" lon="-71.04935671202838420867919921875">
        <ele>515.20001220703125</ele>
        <time>2026-08-21T22:19:33.000Z</time>
        <extensions>
          <ns3:TrackPointExtension>
            <ns3:hr>106</ns3:hr>
            <ns3:cad>0</ns3:cad>
          </ns3:TrackPointExtension>
        </extensions>
      </trkpt>
      <trkpt lat="45.3287454508244991302490234375" lon="-71.04935671202838420867919921875">
        <ele>515.20001220703125</ele>
        <time>2026-08-21T22:19:34.000Z</time>
        <extensions>
          <ns3:TrackPointExtension>
            <ns3:hr>106</ns3:hr>
            <ns3:cad>0</ns3:cad>
          </ns3:TrackPointExtension>
        </extensions>
      </trkpt>
      <trkpt lat="45.3287454508244991302490234375" lon="-71.04935671202838420867919921875">
        <ele>515.20001220703125</ele>
        <time>2026-08-21T22:19:35.000Z</time>
        <extensions>
          <ns3:TrackPointExtension>
            <ns3:hr>106</ns3:hr>
            <ns3:cad>0</ns3:cad>
          </ns3:TrackPointExtension>
        </extensions>
      </trkpt>
      <trkpt lat="45.3287454508244991302490234375" lon="-71.04935671202838420867919921875">
        <ele>515.20001220703125</ele>
        <time>2026-08-21T22:19:36.000Z</time>
        <extensions>
          <ns3:TrackPointExtension>
            <ns3:hr>105</ns3:hr>
            <ns3:cad>0</ns3:cad>
          </ns3:TrackPointExtension>
        </extensions>
      </trkpt>
      <trkpt lat="45.3287454508244991302490234375" lon="-71.04935671202838420867919921875">
        <ele>515.20001220703125</ele>
        <time>2026-08-21T22:19:37.000Z</time>
        <extensions>
          <ns3:TrackPointExtension>
            <ns3:hr>106</ns3:hr>
            <ns3:cad>0</ns3:cad>
          </ns3:TrackPointExtension>
        </extensions>
      </trkpt>
      <trkpt lat="45.3287454508244991302490234375" lon="-71.04935671202838420867919921875">
        <ele>515.20001220703125</ele>
        <time>2026-08-21T22:19:38.000Z</time>
        <extensions>
          <ns3:TrackPointExtension>
            <ns3:hr>106</ns3:hr>
            <ns3:cad>0</ns3:cad>
          </ns3:TrackPointExtension>
        </extensions>
      </trkpt>
      <trkpt lat="45.3287454508244991302490234375" lon="-71.04935671202838420867919921875">
        <ele>515.20001220703125</ele>
        <time>2026-08-21T22:19:39.000Z</time>
        <extensions>
          <ns3:TrackPointExtension>
            <ns3:hr>106</ns3:hr>
            <ns3:cad>0</ns3:cad>
          </ns3:TrackPointExtension>
        </extensions>
      </trkpt>
      <trkpt lat="45.3287454508244991302490234375" lon="-71.04935671202838420867919921875">
        <ele>515.20001220703125</ele>
        <time>2026-08-21T22:19:40.000Z</time>
        <extensions>
          <ns3:TrackPointExtension>
            <ns3:hr>106</ns3:hr>
            <ns3:cad>0</ns3:cad>
          </ns3:TrackPointExtension>
        </extensions>
      </trkpt>
      <trkpt lat="45.32875190488994121551513671875" lon="-71.049358136951923370361328125">
        <ele>515.20001220703125</ele>
        <time>2026-08-21T22:19:41.000Z</time>
        <extensions>
          <ns3:TrackPointExtension>
            <ns3:hr>106</ns3:hr>
            <ns3:cad>0</ns3:cad>
          </ns3:TrackPointExtension>
        </extensions>
      </trkpt>
      <trkpt lat="45.32875525765120983123779296875" lon="-71.049360148608684539794921875">
        <ele>515.20001220703125</ele>
        <time>2026-08-21T22:19:42.000Z</time>
        <extensions>
          <ns3:TrackPointExtension>
            <ns3:hr>106</ns3:hr>
            <ns3:cad>0</ns3:cad>
          </ns3:TrackPointExtension>
        </extensions>
      </trkpt>
      <trkpt lat="45.32875810749828815460205078125" lon="-71.04936006478965282440185546875">
        <ele>515.20001220703125</ele>
        <time>2026-08-21T22:19:43.000Z</time>
        <extensions>
          <ns3:TrackPointExtension>
            <ns3:hr>106</ns3:hr>
            <ns3:cad>0</ns3:cad>
          </ns3:TrackPointExtension>
        </extensions>
      </trkpt>
      <trkpt lat="45.3287588618695735931396484375" lon="-71.0493629984557628631591796875">
        <ele>515</ele>
        <time>2026-08-21T22:19:44.000Z</time>
        <extensions>
          <ns3:TrackPointExtension>
            <ns3:hr>107</ns3:hr>
            <ns3:cad>0</ns3:cad>
          </ns3:TrackPointExtension>
        </extensions>
      </trkpt>
      <trkpt lat="45.3287595324218273162841796875" lon="-71.049361489713191986083984375">
        <ele>515</ele>
        <time>2026-08-21T22:19:45.000Z</time>
        <extensions>
          <ns3:TrackPointExtension>
            <ns3:hr>107</ns3:hr>
            <ns3:cad>0</ns3:cad>
          </ns3:TrackPointExtension>
        </extensions>
      </trkpt>
      <trkpt lat="45.32876229844987392425537109375" lon="-71.04935872368514537811279296875">
        <ele>514.79998779296875</ele>
        <time>2026-08-21T22:19:46.000Z</time>
        <extensions>
          <ns3:TrackPointExtension>
            <ns3:hr>110</ns3:hr>
            <ns3:cad>0</ns3:cad>
          </ns3:TrackPointExtension>
        </extensions>
      </trkpt>
      <trkpt lat="45.328766740858554840087890625" lon="-71.04935310781002044677734375">
        <ele>514.5999755859375</ele>
        <time>2026-08-21T22:19:47.000Z</time>
        <extensions>
          <ns3:TrackPointExtension>
            <ns3:hr>111</ns3:hr>
            <ns3:cad>0</ns3:cad>
          </ns3:TrackPointExtension>
        </extensions>
      </trkpt>
      <trkpt lat="45.3287689201533794403076171875" lon="-71.0493489168584346771240234375">
        <ele>514.4000244140625</ele>
        <time>2026-08-21T22:19:48.000Z</time>
        <extensions>
          <ns3:TrackPointExtension>
            <ns3:hr>111</ns3:hr>
            <ns3:cad>0</ns3:cad>
          </ns3:TrackPointExtension>
        </extensions>
      </trkpt>
      <trkpt lat="45.32876900397241115570068359375" lon="-71.0493489168584346771240234375">
        <ele>514.20001220703125</ele>
        <time>2026-08-21T22:19:49.000Z</time>
        <extensions>
          <ns3:TrackPointExtension>
            <ns3:hr>112</ns3:hr>
            <ns3:cad>0</ns3:cad>
          </ns3:TrackPointExtension>
        </extensions>
      </trkpt>
      <trkpt lat="45.32876900397241115570068359375" lon="-71.0493489168584346771240234375">
        <ele>514.20001220703125</ele>
        <time>2026-08-21T22:19:50.000Z</time>
        <extensions>
          <ns3:TrackPointExtension>
            <ns3:hr>111</ns3:hr>
            <ns3:cad>0</ns3:cad>
          </ns3:TrackPointExtension>
        </extensions>
      </trkpt>
      <trkpt lat="45.32876900397241115570068359375" lon="-71.0493489168584346771240234375">
        <ele>514.20001220703125</ele>
        <time>2026-08-21T22:19:51.000Z</time>
        <extensions>
          <ns3:TrackPointExtension>
            <ns3:hr>111</ns3:hr>
            <ns3:cad>0</ns3:cad>
          </ns3:TrackPointExtension>
        </extensions>
      </trkpt>
      <trkpt lat="45.32876900397241115570068359375" lon="-71.0493489168584346771240234375">
        <ele>514.20001220703125</ele>
        <time>2026-08-21T22:19:52.000Z</time>
        <extensions>
          <ns3:TrackPointExtension>
            <ns3:hr>111</ns3:hr>
            <ns3:cad>0</ns3:cad>
          </ns3:TrackPointExtension>
        </extensions>
      </trkpt>
      <trkpt lat="45.32876900397241115570068359375" lon="-71.0493489168584346771240234375">
        <ele>514.20001220703125</ele>
        <time>2026-08-21T22:19:53.000Z</time>
        <extensions>
          <ns3:TrackPointExtension>
            <ns3:hr>111</ns3:hr>
            <ns3:cad>0</ns3:cad>
          </ns3:TrackPointExtension>
        </extensions>
      </trkpt>
      <trkpt lat="45.32876900397241115570068359375" lon="-71.0493489168584346771240234375">
        <ele>514.20001220703125</ele>
        <time>2026-08-21T22:19:54.000Z</time>
        <extensions>
          <ns3:TrackPointExtension>
            <ns3:hr>110</ns3:hr>
            <ns3:cad>0</ns3:cad>
          </ns3:TrackPointExtension>
        </extensions>
      </trkpt>
      <trkpt lat="45.32876900397241115570068359375" lon="-71.0493489168584346771240234375">
        <ele>514.20001220703125</ele>
        <time>2026-08-21T22:19:55.000Z</time>
        <extensions>
          <ns3:TrackPointExtension>
            <ns3:hr>110</ns3:hr>
            <ns3:cad>0</ns3:cad>
          </ns3:TrackPointExtension>
        </extensions>
      </trkpt>
      <trkpt lat="45.32876900397241115570068359375" lon="-71.0493489168584346771240234375">
        <ele>514.20001220703125</ele>
        <time>2026-08-21T22:19:56.000Z</time>
        <extensions>
          <ns3:TrackPointExtension>
            <ns3:hr>110</ns3:hr>
            <ns3:cad>0</ns3:cad>
          </ns3:TrackPointExtension>
        </extensions>
      </trkpt>
      <trkpt lat="45.32876900397241115570068359375" lon="-71.0493489168584346771240234375">
        <ele>514.20001220703125</ele>
        <time>2026-08-21T22:19:57.000Z</time>
        <extensions>
          <ns3:TrackPointExtension>
            <ns3:hr>110</ns3:hr>
            <ns3:cad>0</ns3:cad>
          </ns3:TrackPointExtension>
        </extensions>
      </trkpt>
      <trkpt lat="45.32876900397241115570068359375" lon="-71.0493489168584346771240234375">
        <ele>514.20001220703125</ele>
        <time>2026-08-21T22:19:58.000Z</time>
        <extensions>
          <ns3:TrackPointExtension>
            <ns3:hr>110</ns3:hr>
            <ns3:cad>0</ns3:cad>
          </ns3:TrackPointExtension>
        </extensions>
      </trkpt>
      <trkpt lat="45.32876900397241115570068359375" lon="-71.0493489168584346771240234375">
        <ele>514.20001220703125</ele>
        <time>2026-08-21T22:19:59.000Z</time>
        <extensions>
          <ns3:TrackPointExtension>
            <ns3:hr>109</ns3:hr>
            <ns3:cad>0</ns3:cad>
          </ns3:TrackPointExtension>
        </extensions>
      </trkpt>
      <trkpt lat="45.32876900397241115570068359375" lon="-71.0493489168584346771240234375">
        <ele>514.20001220703125</ele>
        <time>2026-08-21T22:20:00.000Z</time>
        <extensions>
          <ns3:TrackPointExtension>
            <ns3:hr>109</ns3:hr>
            <ns3:cad>0</ns3:cad>
          </ns3:TrackPointExtension>
        </extensions>
      </trkpt>
      <trkpt lat="45.32876900397241115570068359375" lon="-71.0493489168584346771240234375">
        <ele>514.20001220703125</ele>
        <time>2026-08-21T22:20:01.000Z</time>
        <extensions>
          <ns3:TrackPointExtension>
            <ns3:hr>109</ns3:hr>
            <ns3:cad>0</ns3:cad>
          </ns3:TrackPointExtension>
        </extensions>
      </trkpt>
      <trkpt lat="45.32876900397241115570068359375" lon="-71.0493489168584346771240234375">
        <ele>514.20001220703125</ele>
        <time>2026-08-21T22:20:02.000Z</time>
        <extensions>
          <ns3:TrackPointExtension>
            <ns3:hr>109</ns3:hr>
            <ns3:cad>0</ns3:cad>
          </ns3:TrackPointExtension>
        </extensions>
      </trkpt>
      <trkpt lat="45.32876900397241115570068359375" lon="-71.0493489168584346771240234375">
        <ele>514.20001220703125</ele>
        <time>2026-08-21T22:20:03.000Z</time>
        <extensions>
          <ns3:TrackPointExtension>
            <ns3:hr>109</ns3:hr>
            <ns3:cad>0</ns3:cad>
          </ns3:TrackPointExtension>
        </extensions>
      </trkpt>
      <trkpt lat="45.32876900397241115570068359375" lon="-71.0493489168584346771240234375">
        <ele>514.20001220703125</ele>
        <time>2026-08-21T22:20:04.000Z</time>
        <extensions>
          <ns3:TrackPointExtension>
            <ns3:hr>109</ns3:hr>
            <ns3:cad>0</ns3:cad>
          </ns3:TrackPointExtension>
        </extensions>
      </trkpt>
      <trkpt lat="45.32876900397241115570068359375" lon="-71.0493489168584346771240234375">
        <ele>514.20001220703125</ele>
        <time>2026-08-21T22:20:05.000Z</time>
        <extensions>
          <ns3:TrackPointExtension>
            <ns3:hr>108</ns3:hr>
            <ns3:cad>0</ns3:cad>
          </ns3:TrackPointExtension>
        </extensions>
      </trkpt>
      <trkpt lat="45.328781493008136749267578125" lon="-71.049356795847415924072265625">
        <ele>514.20001220703125</ele>
        <time>2026-08-21T22:20:06.000Z</time>
        <extensions>
          <ns3:TrackPointExtension>
            <ns3:hr>108</ns3:hr>
            <ns3:cad>0</ns3:cad>
          </ns3:TrackPointExtension>
        </extensions>
      </trkpt>
      <trkpt lat="45.32878174446523189544677734375" lon="-71.04935738258063793182373046875">
        <ele>514.20001220703125</ele>
        <time>2026-08-21T22:20:07.000Z</time>
        <extensions>
          <ns3:TrackPointExtension>
            <ns3:hr>107</ns3:hr>
            <ns3:cad>0</ns3:cad>
          </ns3:TrackPointExtension>
        </extensions>
      </trkpt>
      <trkpt lat="45.32878174446523189544677734375" lon="-71.04935738258063793182373046875">
        <ele>514.20001220703125</ele>
        <time>2026-08-21T22:20:08.000Z</time>
        <extensions>
          <ns3:TrackPointExtension>
            <ns3:hr>105</ns3:hr>
            <ns3:cad>0</ns3:cad>
          </ns3:TrackPointExtension>
        </extensions>
      </trkpt>
      <trkpt lat="45.32878174446523189544677734375" lon="-71.04935738258063793182373046875">
        <ele>514.20001220703125</ele>
        <time>2026-08-21T22:20:09.000Z</time>
        <extensions>
          <ns3:TrackPointExtension>
            <ns3:hr>102</ns3:hr>
            <ns3:cad>0</ns3:cad>
          </ns3:TrackPointExtension>
        </extensions>
      </trkpt>
      <trkpt lat="45.32878174446523189544677734375" lon="-71.04935738258063793182373046875">
        <ele>514.20001220703125</ele>
        <time>2026-08-21T22:20:10.000Z</time>
        <extensions>
          <ns3:TrackPointExtension>
            <ns3:hr>98</ns3:hr>
            <ns3:cad>0</ns3:cad>
          </ns3:TrackPointExtension>
        </extensions>
      </trkpt>
      <trkpt lat="45.32878174446523189544677734375" lon="-71.04935738258063793182373046875">
        <ele>514.20001220703125</ele>
        <time>2026-08-21T22:20:11.000Z</time>
        <extensions>
          <ns3:TrackPointExtension>
            <ns3:hr>93</ns3:hr>
            <ns3:cad>0</ns3:cad>
          </ns3:TrackPointExtension>
        </extensions>
      </trkpt>
      <trkpt lat="45.32878174446523189544677734375" lon="-71.04935738258063793182373046875">
        <ele>514.20001220703125</ele>
        <time>2026-08-21T22:20:12.000Z</time>
        <extensions>
          <ns3:TrackPointExtension>
            <ns3:hr>89</ns3:hr>
            <ns3:cad>0</ns3:cad>
          </ns3:TrackPointExtension>
        </extensions>
      </trkpt>
      <trkpt lat="45.3287833370268344879150390625" lon="-71.049358807504177093505859375">
        <ele>514.4000244140625</ele>
        <time>2026-08-21T22:20:13.000Z</time>
        <extensions>
          <ns3:TrackPointExtension>
            <ns3:hr>86</ns3:hr>
            <ns3:cad>0</ns3:cad>
          </ns3:TrackPointExtension>
        </extensions>
      </trkpt>
      <trkpt lat="45.32878677360713481903076171875" lon="-71.049359478056430816650390625">
        <ele>514.5999755859375</ele>
        <time>2026-08-21T22:20:14.000Z</time>
        <extensions>
          <ns3:TrackPointExtension>
            <ns3:hr>85</ns3:hr>
            <ns3:cad>0</ns3:cad>
          </ns3:TrackPointExtension>
        </extensions>
      </trkpt>
      <trkpt lat="45.3287883661687374114990234375" lon="-71.04936308227479457855224609375">
        <ele>514.79998779296875</ele>
        <time>2026-08-21T22:20:15.000Z</time>
        <extensions>
          <ns3:TrackPointExtension>
            <ns3:hr>84</ns3:hr>
            <ns3:cad>0</ns3:cad>
          </ns3:TrackPointExtension>
        </extensions>
      </trkpt>
      <trkpt lat="45.32878794707357883453369140625" lon="-71.04936727322638034820556640625">
        <ele>514.79998779296875</ele>
        <time>2026-08-21T22:20:16.000Z</time>
        <extensions>
          <ns3:TrackPointExtension>
            <ns3:hr>84</ns3:hr>
            <ns3:cad>0</ns3:cad>
          </ns3:TrackPointExtension>
        </extensions>
      </trkpt>
      <trkpt lat="45.3287865221500396728515625" lon="-71.04936392046511173248291015625">
        <ele>515</ele>
        <time>2026-08-21T22:20:17.000Z</time>
        <extensions>
          <ns3:TrackPointExtension>
            <ns3:hr>84</ns3:hr>
            <ns3:cad>0</ns3:cad>
          </ns3:TrackPointExtension>
        </extensions>
      </trkpt>
      <trkpt lat="45.32878358848392963409423828125" lon="-71.0493703745305538177490234375">
        <ele>515</ele>
        <time>2026-08-21T22:20:18.000Z</time>
        <extensions>
          <ns3:TrackPointExtension>
            <ns3:hr>85</ns3:hr>
            <ns3:cad>0</ns3:cad>
          </ns3:TrackPointExtension>
        </extensions>
      </trkpt>
      <trkpt lat="45.3287826664745807647705078125" lon="-71.04938336648046970367431640625">
        <ele>515</ele>
        <time>2026-08-21T22:20:19.000Z</time>
        <extensions>
          <ns3:TrackPointExtension>
            <ns3:hr>85</ns3:hr>
            <ns3:cad>0</ns3:cad>
          </ns3:TrackPointExtension>
        </extensions>
      </trkpt>
      <trkpt lat="45.32878526486456394195556640625" lon="-71.0493914969265460968017578125">
        <ele>514.79998779296875</ele>
        <time>2026-08-21T22:20:20.000Z</time>
        <extensions>
          <ns3:TrackPointExtension>
            <ns3:hr>85</ns3:hr>
            <ns3:cad>0</ns3:cad>
          </ns3:TrackPointExtension>
        </extensions>
      </trkpt>
      <trkpt lat="45.3287887014448642730712890625" lon="-71.04939795099198818206787109375">
        <ele>515</ele>
        <time>2026-08-21T22:20:21.000Z</time>
        <extensions>
          <ns3:TrackPointExtension>
            <ns3:hr>85</ns3:hr>
            <ns3:cad>0</ns3:cad>
          </ns3:TrackPointExtension>
        </extensions>
      </trkpt>
      <trkpt lat="45.328793562948703765869140625" lon="-71.04939937591552734375">
        <ele>515</ele>
        <time>2026-08-21T22:20:22.000Z</time>
        <extensions>
          <ns3:TrackPointExtension>
            <ns3:hr>86</ns3:hr>
            <ns3:cad>0</ns3:cad>
          </ns3:TrackPointExtension>
        </extensions>
      </trkpt>
      <trkpt lat="45.32879716716706752777099609375" lon="-71.0494012199342250823974609375">
        <ele>515</ele>
        <time>2026-08-21T22:20:23.000Z</time>
        <extensions>
          <ns3:TrackPointExtension>
            <ns3:hr>86</ns3:hr>
            <ns3:cad>0</ns3:cad>
          </ns3:TrackPointExtension>
        </extensions>
      </trkpt>
      <trkpt lat="45.32880186103284358978271484375" lon="-71.0493925027549266815185546875">
        <ele>515</ele>
        <time>2026-08-21T22:20:24.000Z</time>
        <extensions>
          <ns3:TrackPointExtension>
            <ns3:hr>86</ns3:hr>
            <ns3:cad>0</ns3:cad>
          </ns3:TrackPointExtension>
        </extensions>
      </trkpt>
      <trkpt lat="45.3288071416318416595458984375" lon="-71.04938537813723087310791015625">
        <ele>515</ele>
        <time>2026-08-21T22:20:25.000Z</time>
        <extensions>
          <ns3:TrackPointExtension>
            <ns3:hr>86</ns3:hr>
            <ns3:cad>0</ns3:cad>
          </ns3:TrackPointExtension>
        </extensions>
      </trkpt>
      <trkpt lat="45.3288125060498714447021484375" lon="-71.0493797622621059417724609375">
        <ele>514.79998779296875</ele>
        <time>2026-08-21T22:20:26.000Z</time>
        <extensions>
          <ns3:TrackPointExtension>
            <ns3:hr>84</ns3:hr>
            <ns3:cad>0</ns3:cad>
          </ns3:TrackPointExtension>
        </extensions>
      </trkpt>
      <trkpt lat="45.3288165293633937835693359375" lon="-71.049375571310520172119140625">
        <ele>514.79998779296875</ele>
        <time>2026-08-21T22:20:27.000Z</time>
        <extensions>
          <ns3:TrackPointExtension>
            <ns3:hr>83</ns3:hr>
            <ns3:cad>0</ns3:cad>
          </ns3:TrackPointExtension>
        </extensions>
      </trkpt>
      <trkpt lat="45.32882952131330966949462890625" lon="-71.04937456548213958740234375">
        <ele>514.5999755859375</ele>
        <time>2026-08-21T22:20:28.000Z</time>
        <extensions>
          <ns3:TrackPointExtension>
            <ns3:hr>82</ns3:hr>
            <ns3:cad>0</ns3:cad>
          </ns3:TrackPointExtension>
        </extensions>
      </trkpt>
      <trkpt lat="45.32883438281714916229248046875" lon="-71.04938437230885028839111328125">
        <ele>514.5999755859375</ele>
        <time>2026-08-21T22:20:29.000Z</time>
        <extensions>
          <ns3:TrackPointExtension>
            <ns3:hr>83</ns3:hr>
            <ns3:cad>0</ns3:cad>
          </ns3:TrackPointExtension>
        </extensions>
      </trkpt>
      <trkpt lat="45.3288460336625576019287109375" lon="-71.0493874736130237579345703125">
        <ele>514.4000244140625</ele>
        <time>2026-08-21T22:20:30.000Z</time>
        <extensions>
          <ns3:TrackPointExtension>
            <ns3:hr>84</ns3:hr>
            <ns3:cad>0</ns3:cad>
          </ns3:TrackPointExtension>
        </extensions>
      </trkpt>
      <trkpt lat="45.32885718159377574920654296875" lon="-71.04939141310751438140869140625">
        <ele>514.20001220703125</ele>
        <time>2026-08-21T22:20:31.000Z</time>
        <extensions>
          <ns3:TrackPointExtension>
            <ns3:hr>85</ns3:hr>
            <ns3:cad>0</ns3:cad>
          </ns3:TrackPointExtension>
        </extensions>
      </trkpt>
      <trkpt lat="45.3288669884204864501953125" lon="-71.04939577169716358184814453125">
        <ele>514.20001220703125</ele>
        <time>2026-08-21T22:20:32.000Z</time>
        <extensions>
          <ns3:TrackPointExtension>
            <ns3:hr>85</ns3:hr>
            <ns3:cad>0</ns3:cad>
          </ns3:TrackPointExtension>
        </extensions>
      </trkpt>
      <trkpt lat="45.328879393637180328369140625" lon="-71.04939996264874935150146484375">
        <ele>514.20001220703125</ele>
        <time>2026-08-21T22:20:33.000Z</time>
        <extensions>
          <ns3:TrackPointExtension>
            <ns3:hr>86</ns3:hr>
            <ns3:cad>0</ns3:cad>
          </ns3:TrackPointExtension>
        </extensions>
      </trkpt>
      <trkpt lat="45.3288943134248256683349609375" lon="-71.04940331541001796722412109375">
        <ele>514</ele>
        <time>2026-08-21T22:20:34.000Z</time>
        <extensions>
          <ns3:TrackPointExtension>
            <ns3:hr>86</ns3:hr>
            <ns3:cad>0</ns3:cad>
          </ns3:TrackPointExtension>
        </extensions>
      </trkpt>
      <trkpt lat="45.32890856266021728515625" lon="-71.04940331541001796722412109375">
        <ele>513.79998779296875</ele>
        <time>2026-08-21T22:20:35.000Z</time>
        <extensions>
          <ns3:TrackPointExtension>
            <ns3:hr>86</ns3:hr>
            <ns3:cad>0</ns3:cad>
          </ns3:TrackPointExtension>
        </extensions>
      </trkpt>
      <trkpt lat="45.3289224766194820404052734375" lon="-71.04939996264874935150146484375">
        <ele>513.5999755859375</ele>
        <time>2026-08-21T22:20:36.000Z</time>
        <extensions>
          <ns3:TrackPointExtension>
            <ns3:hr>86</ns3:hr>
            <ns3:cad>0</ns3:cad>
          </ns3:TrackPointExtension>
        </extensions>
      </trkpt>
      <trkpt lat="45.32893513329327106475830078125" lon="-71.049396358430385589599609375">
        <ele>513.4000244140625</ele>
        <time>2026-08-21T22:20:37.000Z</time>
        <extensions>
          <ns3:TrackPointExtension>
            <ns3:hr>85</ns3:hr>
            <ns3:cad>0</ns3:cad>
          </ns3:TrackPointExtension>
        </extensions>
      </trkpt>
      <trkpt lat="45.32894611358642578125" lon="-71.04939275421202182769775390625">
        <ele>513.20001220703125</ele>
        <time>2026-08-21T22:20:38.000Z</time>
        <extensions>
          <ns3:TrackPointExtension>
            <ns3:hr>86</ns3:hr>
            <ns3:cad>64</ns3:cad>
          </ns3:TrackPointExtension>
        </extensions>
      </trkpt>
      <trkpt lat="45.3289529867470264434814453125" lon="-71.049386970698833465576171875">
        <ele>513.20001220703125</ele>
        <time>2026-08-21T22:20:39.000Z</time>
        <extensions>
          <ns3:TrackPointExtension>
            <ns3:hr>86</ns3:hr>
            <ns3:cad>64</ns3:cad>
          </ns3:TrackPointExtension>
        </extensions>
      </trkpt>
      <trkpt lat="45.32896555960178375244140625" lon="-71.0493757389485836029052734375">
        <ele>513.20001220703125</ele>
        <time>2026-08-21T22:20:40.000Z</time>
        <extensions>
          <ns3:TrackPointExtension>
            <ns3:hr>86</ns3:hr>
            <ns3:cad>64</ns3:cad>
          </ns3:TrackPointExtension>
        </extensions>
      </trkpt>
      <trkpt lat="45.32897251658141613006591796875" lon="-71.0493727214634418487548828125">
        <ele>513.20001220703125</ele>
        <time>2026-08-21T22:20:41.000Z</time>
        <extensions>
          <ns3:TrackPointExtension>
            <ns3:hr>87</ns3:hr>
            <ns3:cad>64</ns3:cad>
          </ns3:TrackPointExtension>
        </extensions>
      </trkpt>
      <trkpt lat="45.3289801441133022308349609375" lon="-71.04936978779733180999755859375">
        <ele>513.20001220703125</ele>
        <time>2026-08-21T22:20:42.000Z</time>
        <extensions>
          <ns3:TrackPointExtension>
            <ns3:hr>88</ns3:hr>
            <ns3:cad>64</ns3:cad>
          </ns3:TrackPointExtension>
        </extensions>
      </trkpt>
      <trkpt lat="45.32898643054068088531494140625" lon="-71.0493703745305538177490234375">
        <ele>513.20001220703125</ele>
        <time>2026-08-21T22:20:43.000Z</time>
        <extensions>
          <ns3:TrackPointExtension>
            <ns3:hr>87</ns3:hr>
            <ns3:cad>0</ns3:cad>
          </ns3:TrackPointExtension>
        </extensions>
      </trkpt>
      <trkpt lat="45.3289935551583766937255859375" lon="-71.049374230206012725830078125">
        <ele>513.20001220703125</ele>
        <time>2026-08-21T22:20:44.000Z</time>
        <extensions>
          <ns3:TrackPointExtension>
            <ns3:hr>87</ns3:hr>
            <ns3:cad>0</ns3:cad>
          </ns3:TrackPointExtension>
        </extensions>
      </trkpt>
      <trkpt lat="45.3289997577667236328125" lon="-71.0493787564337253570556640625">
        <ele>513.20001220703125</ele>
        <time>2026-08-21T22:20:45.000Z</time>
        <extensions>
          <ns3:TrackPointExtension>
            <ns3:hr>87</ns3:hr>
            <ns3:cad>0</ns3:cad>
          </ns3:TrackPointExtension>
        </extensions>
      </trkpt>
      <trkpt lat="45.32900705002248287200927734375" lon="-71.0493834502995014190673828125">
        <ele>513.20001220703125</ele>
        <time>2026-08-21T22:20:46.000Z</time>
        <extensions>
          <ns3:TrackPointExtension>
            <ns3:hr>86</ns3:hr>
            <ns3:cad>0</ns3:cad>
          </ns3:TrackPointExtension>
        </extensions>
      </trkpt>
      <trkpt lat="45.32901610247790813446044921875" lon="-71.049385964870452880859375">
        <ele>513.20001220703125</ele>
        <time>2026-08-21T22:20:47.000Z</time>
        <extensions>
          <ns3:TrackPointExtension>
            <ns3:hr>85</ns3:hr>
            <ns3:cad>0</ns3:cad>
          </ns3:TrackPointExtension>
        </extensions>
      </trkpt>
      <trkpt lat="45.3290230594575405120849609375" lon="-71.04938906617462635040283203125">
        <ele>513</ele>
        <time>2026-08-21T22:20:48.000Z</time>
        <extensions>
          <ns3:TrackPointExtension>
            <ns3:hr>85</ns3:hr>
            <ns3:cad>0</ns3:cad>
          </ns3:TrackPointExtension>
        </extensions>
      </trkpt>
      <trkpt lat="45.3290311060845851898193359375" lon="-71.04939409531652927398681640625">
        <ele>513</ele>
        <time>2026-08-21T22:20:49.000Z</time>
        <extensions>
          <ns3:TrackPointExtension>
            <ns3:hr>85</ns3:hr>
            <ns3:cad>0</ns3:cad>
          </ns3:TrackPointExtension>
        </extensions>
      </trkpt>
      <trkpt lat="45.32903739251196384429931640625" lon="-71.049402058124542236328125">
        <ele>512.79998779296875</ele>
        <time>2026-08-21T22:20:50.000Z</time>
        <extensions>
          <ns3:TrackPointExtension>
            <ns3:hr>85</ns3:hr>
            <ns3:cad>0</ns3:cad>
          </ns3:TrackPointExtension>
        </extensions>
      </trkpt>
      <trkpt lat="45.3290445171296596527099609375" lon="-71.04940951801836490631103515625">
        <ele>512.5999755859375</ele>
        <time>2026-08-21T22:20:51.000Z</time>
        <extensions>
          <ns3:TrackPointExtension>
            <ns3:hr>84</ns3:hr>
            <ns3:cad>52</ns3:cad>
          </ns3:TrackPointExtension>
        </extensions>
      </trkpt>
      <trkpt lat="45.32905164174735546112060546875" lon="-71.049415133893489837646484375">
        <ele>512.4000244140625</ele>
        <time>2026-08-21T22:20:52.000Z</time>
        <extensions>
          <ns3:TrackPointExtension>
            <ns3:hr>84</ns3:hr>
            <ns3:cad>52</ns3:cad>
          </ns3:TrackPointExtension>
        </extensions>
      </trkpt>
      <trkpt lat="45.32906002365052700042724609375" lon="-71.0494230128824710845947265625">
        <ele>512.20001220703125</ele>
        <time>2026-08-21T22:20:53.000Z</time>
        <extensions>
          <ns3:TrackPointExtension>
            <ns3:hr>84</ns3:hr>
            <ns3:cad>52</ns3:cad>
          </ns3:TrackPointExtension>
        </extensions>
      </trkpt>
      <trkpt lat="45.3290679864585399627685546875" lon="-71.0494330711662769317626953125">
        <ele>511.79998779296875</ele>
        <time>2026-08-21T22:20:54.000Z</time>
        <extensions>
          <ns3:TrackPointExtension>
            <ns3:hr>84</ns3:hr>
            <ns3:cad>52</ns3:cad>
          </ns3:TrackPointExtension>
        </extensions>
      </trkpt>
      <trkpt lat="45.329077541828155517578125" lon="-71.04944606311619281768798828125">
        <ele>511.600006103515625</ele>
        <time>2026-08-21T22:20:55.000Z</time>
        <extensions>
          <ns3:TrackPointExtension>
            <ns3:hr>84</ns3:hr>
            <ns3:cad>60</ns3:cad>
          </ns3:TrackPointExtension>
        </extensions>
      </trkpt>
      <trkpt lat="45.32909086905419826507568359375" lon="-71.04944908060133457183837890625">
        <ele>511.20001220703125</ele>
        <time>2026-08-21T22:20:56.000Z</time>
        <extensions>
          <ns3:TrackPointExtension>
            <ns3:hr>84</ns3:hr>
            <ns3:cad>60</ns3:cad>
          </ns3:TrackPointExtension>
        </extensions>
      </trkpt>
      <trkpt lat="45.32910293899476528167724609375" lon="-71.0494531877338886260986328125">
        <ele>511.20001220703125</ele>
        <time>2026-08-21T22:20:57.000Z</time>
        <extensions>
          <ns3:TrackPointExtension>
            <ns3:hr>84</ns3:hr>
            <ns3:cad>60</ns3:cad>
          </ns3:TrackPointExtension>
        </extensions>
      </trkpt>
      <trkpt lat="45.32911199145019054412841796875" lon="-71.04946081526577472686767578125">
        <ele>511</ele>
        <time>2026-08-21T22:20:58.000Z</time>
        <extensions>
          <ns3:TrackPointExtension>
            <ns3:hr>84</ns3:hr>
            <ns3:cad>68</ns3:cad>
          </ns3:TrackPointExtension>
        </extensions>
      </trkpt>
      <trkpt lat="45.32911987043917179107666015625" lon="-71.049466766417026519775390625">
        <ele>511</ele>
        <time>2026-08-21T22:20:59.000Z</time>
        <extensions>
          <ns3:TrackPointExtension>
            <ns3:hr>85</ns3:hr>
            <ns3:cad>68</ns3:cad>
          </ns3:TrackPointExtension>
        </extensions>
      </trkpt>
      <trkpt lat="45.32913059927523136138916015625" lon="-71.049474813044071197509765625">
        <ele>510.79998779296875</ele>
        <time>2026-08-21T22:21:00.000Z</time>
        <extensions>
          <ns3:TrackPointExtension>
            <ns3:hr>85</ns3:hr>
            <ns3:cad>68</ns3:cad>
          </ns3:TrackPointExtension>
        </extensions>
      </trkpt>
      <trkpt lat="45.329140909016132354736328125" lon="-71.04947925545275211334228515625">
        <ele>510.79998779296875</ele>
        <time>2026-08-21T22:21:01.000Z</time>
        <extensions>
          <ns3:TrackPointExtension>
            <ns3:hr>88</ns3:hr>
            <ns3:cad>68</ns3:cad>
          </ns3:TrackPointExtension>
        </extensions>
      </trkpt>
      <trkpt lat="45.329141579568386077880859375" lon="-71.04947506450116634368896484375">
        <ele>510.79998779296875</ele>
        <time>2026-08-21T22:21:02.000Z</time>
        <extensions>
          <ns3:TrackPointExtension>
            <ns3:hr>95</ns3:hr>
            <ns3:cad>68</ns3:cad>
          </ns3:TrackPointExtension>
        </extensions>
      </trkpt>
      <trkpt lat="45.329141579568386077880859375" lon="-71.04947783052921295166015625">
        <ele>510.600006103515625</ele>
        <time>2026-08-21T22:21:03.000Z</time>
        <extensions>
          <ns3:TrackPointExtension>
            <ns3:hr>102</ns3:hr>
            <ns3:cad>0</ns3:cad>
          </ns3:TrackPointExtension>
        </extensions>
      </trkpt>
      <trkpt lat="45.32914526760578155517578125" lon="-71.049482189118862152099609375">
        <ele>510.600006103515625</ele>
        <time>2026-08-21T22:21:04.000Z</time>
        <extensions>
          <ns3:TrackPointExtension>
            <ns3:hr>105</ns3:hr>
            <ns3:cad>0</ns3:cad>
          </ns3:TrackPointExtension>
        </extensions>
      </trkpt>
      <trkpt lat="45.32914820127189159393310546875" lon="-71.049484200775623321533203125">
        <ele>510.600006103515625</ele>
        <time>2026-08-21T22:21:05.000Z</time>
        <extensions>
          <ns3:TrackPointExtension>
            <ns3:hr>108</ns3:hr>
            <ns3:cad>0</ns3:cad>
          </ns3:TrackPointExtension>
        </extensions>
      </trkpt>
      <trkpt lat="45.329152308404445648193359375" lon="-71.04948461987078189849853515625">
        <ele>510.600006103515625</ele>
        <time>2026-08-21T22:21:06.000Z</time>
        <extensions>
          <ns3:TrackPointExtension>
            <ns3:hr>109</ns3:hr>
            <ns3:cad>0</ns3:cad>
          </ns3:TrackPointExtension>
        </extensions>
      </trkpt>
      <trkpt lat="45.329156331717967987060546875" lon="-71.04948545806109905242919921875">
        <ele>510.600006103515625</ele>
        <time>2026-08-21T22:21:07.000Z</time>
        <extensions>
          <ns3:TrackPointExtension>
            <ns3:hr>109</ns3:hr>
            <ns3:cad>0</ns3:cad>
          </ns3:TrackPointExtension>
        </extensions>
      </trkpt>
      <trkpt lat="45.32915893010795116424560546875" lon="-71.04948663152754306793212890625">
        <ele>510.600006103515625</ele>
        <time>2026-08-21T22:21:08.000Z</time>
        <extensions>
          <ns3:TrackPointExtension>
            <ns3:hr>108</ns3:hr>
            <ns3:cad>0</ns3:cad>
          </ns3:TrackPointExtension>
        </extensions>
      </trkpt>
      <trkpt lat="45.32916815020143985748291015625" lon="-71.04948981665074825286865234375">
        <ele>510.399993896484375</ele>
        <time>2026-08-21T22:21:09.000Z</time>
        <extensions>
          <ns3:TrackPointExtension>
            <ns3:hr>108</ns3:hr>
            <ns3:cad>0</ns3:cad>
          </ns3:TrackPointExtension>
        </extensions>
      </trkpt>
      <trkpt lat="45.329174101352691650390625" lon="-71.049498952925205230712890625">
        <ele>510.399993896484375</ele>
        <time>2026-08-21T22:21:10.000Z</time>
        <extensions>
          <ns3:TrackPointExtension>
            <ns3:hr>107</ns3:hr>
            <ns3:cad>0</ns3:cad>
          </ns3:TrackPointExtension>
        </extensions>
      </trkpt>
      <trkpt lat="45.32917887903749942779541015625" lon="-71.04951135814189910888671875">
        <ele>510.20001220703125</ele>
        <time>2026-08-21T22:21:11.000Z</time>
        <extensions>
          <ns3:TrackPointExtension>
            <ns3:hr>107</ns3:hr>
            <ns3:cad>0</ns3:cad>
          </ns3:TrackPointExtension>
        </extensions>
      </trkpt>
      <trkpt lat="45.32918441109359264373779296875" lon="-71.0495225898921489715576171875">
        <ele>510.20001220703125</ele>
        <time>2026-08-21T22:21:12.000Z</time>
        <extensions>
          <ns3:TrackPointExtension>
            <ns3:hr>106</ns3:hr>
            <ns3:cad>62</ns3:cad>
          </ns3:TrackPointExtension>
        </extensions>
      </trkpt>
      <trkpt lat="45.329189188778400421142578125" lon="-71.04954077862203121185302734375">
        <ele>510</ele>
        <time>2026-08-21T22:21:13.000Z</time>
        <extensions>
          <ns3:TrackPointExtension>
            <ns3:hr>106</ns3:hr>
            <ns3:cad>65</ns3:cad>
          </ns3:TrackPointExtension>
        </extensions>
      </trkpt>
      <trkpt lat="45.32919463701546192169189453125" lon="-71.0495463944971561431884765625">
        <ele>510</ele>
        <time>2026-08-21T22:21:14.000Z</time>
        <extensions>
          <ns3:TrackPointExtension>
            <ns3:hr>106</ns3:hr>
            <ns3:cad>65</ns3:cad>
          </ns3:TrackPointExtension>
        </extensions>
      </trkpt>
      <trkpt lat="45.32919564284384250640869140625" lon="-71.049549579620361328125">
        <ele>510</ele>
        <time>2026-08-21T22:21:15.000Z</time>
        <extensions>
          <ns3:TrackPointExtension>
            <ns3:hr>106</ns3:hr>
            <ns3:cad>57</ns3:cad>
          </ns3:TrackPointExtension>
        </extensions>
      </trkpt>
      <trkpt lat="45.3291984088718891143798828125" lon="-71.04955687187612056732177734375">
        <ele>509.79998779296875</ele>
        <time>2026-08-21T22:21:16.000Z</time>
        <extensions>
          <ns3:TrackPointExtension>
            <ns3:hr>107</ns3:hr>
            <ns3:cad>57</ns3:cad>
          </ns3:TrackPointExtension>
        </extensions>
      </trkpt>
      <trkpt lat="45.32919748686254024505615234375" lon="-71.04956491850316524505615234375">
        <ele>509.79998779296875</ele>
        <time>2026-08-21T22:21:17.000Z</time>
        <extensions>
          <ns3:TrackPointExtension>
            <ns3:hr>107</ns3:hr>
            <ns3:cad>0</ns3:cad>
          </ns3:TrackPointExtension>
        </extensions>
      </trkpt>
      <trkpt lat="45.3292000852525234222412109375" lon="-71.04957648552954196929931640625">
        <ele>509.600006103515625</ele>
        <time>2026-08-21T22:21:18.000Z</time>
        <extensions>
          <ns3:TrackPointExtension>
            <ns3:hr>108</ns3:hr>
            <ns3:cad>0</ns3:cad>
          </ns3:TrackPointExtension>
        </extensions>
      </trkpt>
      <trkpt lat="45.32920385710895061492919921875" lon="-71.04958771727979183197021484375">
        <ele>509.600006103515625</ele>
        <time>2026-08-21T22:21:19.000Z</time>
        <extensions>
          <ns3:TrackPointExtension>
            <ns3:hr>108</ns3:hr>
            <ns3:cad>0</ns3:cad>
          </ns3:TrackPointExtension>
        </extensions>
      </trkpt>
      <trkpt lat="45.32920519821345806121826171875" lon="-71.04960523545742034912109375">
        <ele>509.399993896484375</ele>
        <time>2026-08-21T22:21:20.000Z</time>
        <extensions>
          <ns3:TrackPointExtension>
            <ns3:hr>108</ns3:hr>
            <ns3:cad>0</ns3:cad>
          </ns3:TrackPointExtension>
        </extensions>
      </trkpt>
      <trkpt lat="45.32920821569859981536865234375" lon="-71.049616970121860504150390625">
        <ele>509.399993896484375</ele>
        <time>2026-08-21T22:21:21.000Z</time>
        <extensions>
          <ns3:TrackPointExtension>
            <ns3:hr>108</ns3:hr>
            <ns3:cad>0</ns3:cad>
          </ns3:TrackPointExtension>
        </extensions>
      </trkpt>
      <trkpt lat="45.32921525649726390838623046875" lon="-71.04963934980332851409912109375">
        <ele>509.20001220703125</ele>
        <time>2026-08-21T22:21:22.000Z</time>
        <extensions>
          <ns3:TrackPointExtension>
            <ns3:hr>109</ns3:hr>
            <ns3:cad>0</ns3:cad>
          </ns3:TrackPointExtension>
        </extensions>
      </trkpt>
      <trkpt lat="45.329218693077564239501953125" lon="-71.04966022074222564697265625">
        <ele>509</ele>
        <time>2026-08-21T22:21:23.000Z</time>
        <extensions>
          <ns3:TrackPointExtension>
            <ns3:hr>108</ns3:hr>
            <ns3:cad>0</ns3:cad>
          </ns3:TrackPointExtension>
        </extensions>
      </trkpt>
      <trkpt lat="45.3292225487530231475830078125" lon="-71.049675978720188140869140625">
        <ele>508.79998779296875</ele>
        <time>2026-08-21T22:21:24.000Z</time>
        <extensions>
          <ns3:TrackPointExtension>
            <ns3:hr>109</ns3:hr>
            <ns3:cad>0</ns3:cad>
          </ns3:TrackPointExtension>
        </extensions>
      </trkpt>
      <trkpt lat="45.32922565005719661712646484375" lon="-71.049694754183292388916015625">
        <ele>508.79998779296875</ele>
        <time>2026-08-21T22:21:25.000Z</time>
        <extensions>
          <ns3:TrackPointExtension>
            <ns3:hr>109</ns3:hr>
            <ns3:cad>0</ns3:cad>
          </ns3:TrackPointExtension>
        </extensions>
      </trkpt>
      <trkpt lat="45.3292264044284820556640625" lon="-71.04970506392419338226318359375">
        <ele>508.79998779296875</ele>
        <time>2026-08-21T22:21:26.000Z</time>
        <extensions>
          <ns3:TrackPointExtension>
            <ns3:hr>109</ns3:hr>
            <ns3:cad>0</ns3:cad>
          </ns3:TrackPointExtension>
        </extensions>
      </trkpt>
      <trkpt lat="45.3292285837233066558837890625" lon="-71.04971562512218952178955078125">
        <ele>508.79998779296875</ele>
        <time>2026-08-21T22:21:27.000Z</time>
        <extensions>
          <ns3:TrackPointExtension>
            <ns3:hr>109</ns3:hr>
            <ns3:cad>0</ns3:cad>
          </ns3:TrackPointExtension>
        </extensions>
      </trkpt>
      <trkpt lat="45.32923034392297267913818359375" lon="-71.04972601868212223052978515625">
        <ele>508.79998779296875</ele>
        <time>2026-08-21T22:21:28.000Z</time>
        <extensions>
          <ns3:TrackPointExtension>
            <ns3:hr>110</ns3:hr>
            <ns3:cad>0</ns3:cad>
          </ns3:TrackPointExtension>
        </extensions>
      </trkpt>
      <trkpt lat="45.32923235557973384857177734375" lon="-71.04973557405173778533935546875">
        <ele>508.79998779296875</ele>
        <time>2026-08-21T22:21:29.000Z</time>
        <extensions>
          <ns3:TrackPointExtension>
            <ns3:hr>109</ns3:hr>
            <ns3:cad>59</ns3:cad>
          </ns3:TrackPointExtension>
        </extensions>
      </trkpt>
      <trkpt lat="45.329235456883907318115234375" lon="-71.0497534275054931640625">
        <ele>508.79998779296875</ele>
        <time>2026-08-21T22:21:30.000Z</time>
        <extensions>
          <ns3:TrackPointExtension>
            <ns3:hr>108</ns3:hr>
            <ns3:cad>59</ns3:cad>
          </ns3:TrackPointExtension>
        </extensions>
      </trkpt>
      <trkpt lat="45.3292386420071125030517578125" lon="-71.0497649945318698883056640625">
        <ele>508.79998779296875</ele>
        <time>2026-08-21T22:21:31.000Z</time>
        <extensions>
          <ns3:TrackPointExtension>
            <ns3:hr>107</ns3:hr>
            <ns3:cad>59</ns3:cad>
          </ns3:TrackPointExtension>
        </extensions>
      </trkpt>
      <trkpt lat="45.32924375496804714202880859375" lon="-71.04977815411984920501708984375">
        <ele>508.79998779296875</ele>
        <time>2026-08-21T22:21:32.000Z</time>
        <extensions>
          <ns3:TrackPointExtension>
            <ns3:hr>106</ns3:hr>
            <ns3:cad>59</ns3:cad>
          </ns3:TrackPointExtension>
        </extensions>
      </trkpt>
      <trkpt lat="45.32925230450928211212158203125" lon="-71.04979407973587512969970703125">
        <ele>508.79998779296875</ele>
        <time>2026-08-21T22:21:33.000Z</time>
        <extensions>
          <ns3:TrackPointExtension>
            <ns3:hr>105</ns3:hr>
            <ns3:cad>59</ns3:cad>
          </ns3:TrackPointExtension>
        </extensions>
      </trkpt>
      <trkpt lat="45.32925817184150218963623046875" lon="-71.049806736409664154052734375">
        <ele>508.79998779296875</ele>
        <time>2026-08-21T22:21:34.000Z</time>
        <extensions>
          <ns3:TrackPointExtension>
            <ns3:hr>106</ns3:hr>
            <ns3:cad>59</ns3:cad>
          </ns3:TrackPointExtension>
        </extensions>
      </trkpt>
      <trkpt lat="45.329264961183071136474609375" lon="-71.04981847107410430908203125">
        <ele>508.79998779296875</ele>
        <time>2026-08-21T22:21:35.000Z</time>
        <extensions>
          <ns3:TrackPointExtension>
            <ns3:hr>106</ns3:hr>
            <ns3:cad>44</ns3:cad>
          </ns3:TrackPointExtension>
        </extensions>
      </trkpt>
      <trkpt lat="45.329268313944339752197265625" lon="-71.04983246885240077972412109375">
        <ele>508.79998779296875</ele>
        <time>2026-08-21T22:21:36.000Z</time>
        <extensions>
          <ns3:TrackPointExtension>
            <ns3:hr>106</ns3:hr>
            <ns3:cad>0</ns3:cad>
          </ns3:TrackPointExtension>
        </extensions>
      </trkpt>
      <trkpt lat="45.3292725048959255218505859375" lon="-71.0498390905559062957763671875">
        <ele>508.79998779296875</ele>
        <time>2026-08-21T22:21:37.000Z</time>
        <extensions>
          <ns3:TrackPointExtension>
            <ns3:hr>107</ns3:hr>
            <ns3:cad>0</ns3:cad>
          </ns3:TrackPointExtension>
        </extensions>
      </trkpt>
      <trkpt lat="45.32927292399108409881591796875" lon="-71.0498387552797794342041015625">
        <ele>508.600006103515625</ele>
        <time>2026-08-21T22:21:38.000Z</time>
        <extensions>
          <ns3:TrackPointExtension>
            <ns3:hr>107</ns3:hr>
            <ns3:cad>0</ns3:cad>
          </ns3:TrackPointExtension>
        </extensions>
      </trkpt>
      <trkpt lat="45.32927292399108409881591796875" lon="-71.0498387552797794342041015625">
        <ele>508.600006103515625</ele>
        <time>2026-08-21T22:21:39.000Z</time>
        <extensions>
          <ns3:TrackPointExtension>
            <ns3:hr>107</ns3:hr>
            <ns3:cad>0</ns3:cad>
          </ns3:TrackPointExtension>
        </extensions>
      </trkpt>
      <trkpt lat="45.32927292399108409881591796875" lon="-71.0498387552797794342041015625">
        <ele>508.79998779296875</ele>
        <time>2026-08-21T22:21:40.000Z</time>
        <extensions>
          <ns3:TrackPointExtension>
            <ns3:hr>107</ns3:hr>
            <ns3:cad>0</ns3:cad>
          </ns3:TrackPointExtension>
        </extensions>
      </trkpt>
      <trkpt lat="45.32927292399108409881591796875" lon="-71.0498387552797794342041015625">
        <ele>508.79998779296875</ele>
        <time>2026-08-21T22:21:41.000Z</time>
        <extensions>
          <ns3:TrackPointExtension>
            <ns3:hr>107</ns3:hr>
            <ns3:cad>0</ns3:cad>
          </ns3:TrackPointExtension>
        </extensions>
      </trkpt>
      <trkpt lat="45.32927292399108409881591796875" lon="-71.0498387552797794342041015625">
        <ele>508.79998779296875</ele>
        <time>2026-08-21T22:21:42.000Z</time>
        <extensions>
          <ns3:TrackPointExtension>
            <ns3:hr>106</ns3:hr>
            <ns3:cad>0</ns3:cad>
          </ns3:TrackPointExtension>
        </extensions>
      </trkpt>
      <trkpt lat="45.32927325926721096038818359375" lon="-71.04983967728912830352783203125">
        <ele>508.79998779296875</ele>
        <time>2026-08-21T22:21:43.000Z</time>
        <extensions>
          <ns3:TrackPointExtension>
            <ns3:hr>107</ns3:hr>
            <ns3:cad>0</ns3:cad>
          </ns3:TrackPointExtension>
        </extensions>
      </trkpt>
      <trkpt lat="45.32927979715168476104736328125" lon="-71.04985543526709079742431640625">
        <ele>508.79998779296875</ele>
        <time>2026-08-21T22:21:44.000Z</time>
        <extensions>
          <ns3:TrackPointExtension>
            <ns3:hr>107</ns3:hr>
            <ns3:cad>0</ns3:cad>
          </ns3:TrackPointExtension>
        </extensions>
      </trkpt>
      <trkpt lat="45.32928449101746082305908203125" lon="-71.04986582882702350616455078125">
        <ele>508.79998779296875</ele>
        <time>2026-08-21T22:21:45.000Z</time>
        <extensions>
          <ns3:TrackPointExtension>
            <ns3:hr>108</ns3:hr>
            <ns3:cad>0</ns3:cad>
          </ns3:TrackPointExtension>
        </extensions>
      </trkpt>
      <trkpt lat="45.3292892687022686004638671875" lon="-71.04987320490181446075439453125">
        <ele>508.79998779296875</ele>
        <time>2026-08-21T22:21:46.000Z</time>
        <extensions>
          <ns3:TrackPointExtension>
            <ns3:hr>108</ns3:hr>
            <ns3:cad>0</ns3:cad>
          </ns3:TrackPointExtension>
        </extensions>
      </trkpt>
      <trkpt lat="45.3292976506054401397705078125" lon="-71.04988359846174716949462890625">
        <ele>508.600006103515625</ele>
        <time>2026-08-21T22:21:47.000Z</time>
        <extensions>
          <ns3:TrackPointExtension>
            <ns3:hr>108</ns3:hr>
            <ns3:cad>0</ns3:cad>
          </ns3:TrackPointExtension>
        </extensions>
      </trkpt>
      <trkpt lat="45.32930460758507251739501953125" lon="-71.04989432729780673980712890625">
        <ele>508.600006103515625</ele>
        <time>2026-08-21T22:21:48.000Z</time>
        <extensions>
          <ns3:TrackPointExtension>
            <ns3:hr>108</ns3:hr>
            <ns3:cad>0</ns3:cad>
          </ns3:TrackPointExtension>
        </extensions>
      </trkpt>
      <trkpt lat="45.329309217631816864013671875" lon="-71.0499061457812786102294921875">
        <ele>508.600006103515625</ele>
        <time>2026-08-21T22:21:49.000Z</time>
        <extensions>
          <ns3:TrackPointExtension>
            <ns3:hr>108</ns3:hr>
            <ns3:cad>0</ns3:cad>
          </ns3:TrackPointExtension>
        </extensions>
      </trkpt>
      <trkpt lat="45.32930913381278514862060546875" lon="-71.04991293512284755706787109375">
        <ele>508.600006103515625</ele>
        <time>2026-08-21T22:21:50.000Z</time>
        <extensions>
          <ns3:TrackPointExtension>
            <ns3:hr>108</ns3:hr>
            <ns3:cad>0</ns3:cad>
          </ns3:TrackPointExtension>
        </extensions>
      </trkpt>
      <trkpt lat="45.32930762507021427154541015625" lon="-71.0499250888824462890625">
        <ele>508.600006103515625</ele>
        <time>2026-08-21T22:21:51.000Z</time>
        <extensions>
          <ns3:TrackPointExtension>
            <ns3:hr>108</ns3:hr>
            <ns3:cad>48</ns3:cad>
          </ns3:TrackPointExtension>
        </extensions>
      </trkpt>
      <trkpt lat="45.3293043561279773712158203125" lon="-71.04993523098528385162353515625">
        <ele>508.600006103515625</ele>
        <time>2026-08-21T22:21:52.000Z</time>
        <extensions>
          <ns3:TrackPointExtension>
            <ns3:hr>109</ns3:hr>
            <ns3:cad>50</ns3:cad>
          </ns3:TrackPointExtension>
        </extensions>
      </trkpt>
      <trkpt lat="45.32930108718574047088623046875" lon="-71.0499452054500579833984375">
        <ele>508.600006103515625</ele>
        <time>2026-08-21T22:21:53.000Z</time>
        <extensions>
          <ns3:TrackPointExtension>
            <ns3:hr>110</ns3:hr>
            <ns3:cad>50</ns3:cad>
          </ns3:TrackPointExtension>
        </extensions>
      </trkpt>
      <trkpt lat="45.32929840497672557830810546875" lon="-71.0499504022300243377685546875">
        <ele>508.600006103515625</ele>
        <time>2026-08-21T22:21:54.000Z</time>
        <extensions>
          <ns3:TrackPointExtension>
            <ns3:hr>111</ns3:hr>
            <ns3:cad>50</ns3:cad>
          </ns3:TrackPointExtension>
        </extensions>
      </trkpt>
      <trkpt lat="45.32929622568190097808837890625" lon="-71.04996322654187679290771484375">
        <ele>508.399993896484375</ele>
        <time>2026-08-21T22:21:55.000Z</time>
        <extensions>
          <ns3:TrackPointExtension>
            <ns3:hr>112</ns3:hr>
            <ns3:cad>50</ns3:cad>
          </ns3:TrackPointExtension>
        </extensions>
      </trkpt>
      <trkpt lat="45.3292936272919178009033203125" lon="-71.049973703920841217041015625">
        <ele>508.399993896484375</ele>
        <time>2026-08-21T22:21:56.000Z</time>
        <extensions>
          <ns3:TrackPointExtension>
            <ns3:hr>112</ns3:hr>
            <ns3:cad>49</ns3:cad>
          </ns3:TrackPointExtension>
        </extensions>
      </trkpt>
      <trkpt lat="45.32929153181612491607666015625" lon="-71.0499835945665836334228515625">
        <ele>508.600006103515625</ele>
        <time>2026-08-21T22:21:57.000Z</time>
        <extensions>
          <ns3:TrackPointExtension>
            <ns3:hr>112</ns3:hr>
            <ns3:cad>49</ns3:cad>
          </ns3:TrackPointExtension>
        </extensions>
      </trkpt>
      <trkpt lat="45.32928415574133396148681640625" lon="-71.049997173249721527099609375">
        <ele>508.600006103515625</ele>
        <time>2026-08-21T22:21:58.000Z</time>
        <extensions>
          <ns3:TrackPointExtension>
            <ns3:hr>113</ns3:hr>
            <ns3:cad>46</ns3:cad>
          </ns3:TrackPointExtension>
        </extensions>
      </trkpt>
      <trkpt lat="45.3292771987617015838623046875" lon="-71.05000681243836879730224609375">
        <ele>508.600006103515625</ele>
        <time>2026-08-21T22:21:59.000Z</time>
        <extensions>
          <ns3:TrackPointExtension>
            <ns3:hr>114</ns3:hr>
            <ns3:cad>46</ns3:cad>
          </ns3:TrackPointExtension>
        </extensions>
      </trkpt>
      <trkpt lat="45.329272337257862091064453125" lon="-71.05001829564571380615234375">
        <ele>508.600006103515625</ele>
        <time>2026-08-21T22:22:00.000Z</time>
        <extensions>
          <ns3:TrackPointExtension>
            <ns3:hr>114</ns3:hr>
            <ns3:cad>46</ns3:cad>
          </ns3:TrackPointExtension>
        </extensions>
      </trkpt>
      <trkpt lat="45.32926923595368862152099609375" lon="-71.0500278510153293609619140625">
        <ele>508.600006103515625</ele>
        <time>2026-08-21T22:22:01.000Z</time>
        <extensions>
          <ns3:TrackPointExtension>
            <ns3:hr>115</ns3:hr>
            <ns3:cad>47</ns3:cad>
          </ns3:TrackPointExtension>
        </extensions>
      </trkpt>
      <trkpt lat="45.3292694874107837677001953125" lon="-71.05004386045038700103759765625">
        <ele>508.79998779296875</ele>
        <time>2026-08-21T22:22:02.000Z</time>
        <extensions>
          <ns3:TrackPointExtension>
            <ns3:hr>115</ns3:hr>
            <ns3:cad>47</ns3:cad>
          </ns3:TrackPointExtension>
        </extensions>
      </trkpt>
      <trkpt lat="45.32927342690527439117431640625" lon="-71.05006079189479351043701171875">
        <ele>509</ele>
        <time>2026-08-21T22:22:03.000Z</time>
        <extensions>
          <ns3:TrackPointExtension>
            <ns3:hr>115</ns3:hr>
            <ns3:cad>47</ns3:cad>
          </ns3:TrackPointExtension>
        </extensions>
      </trkpt>
      <trkpt lat="45.3292746841907501220703125" lon="-71.05007336474955081939697265625">
        <ele>509.20001220703125</ele>
        <time>2026-08-21T22:22:04.000Z</time>
        <extensions>
          <ns3:TrackPointExtension>
            <ns3:hr>115</ns3:hr>
            <ns3:cad>50</ns3:cad>
          </ns3:TrackPointExtension>
        </extensions>
      </trkpt>
      <trkpt lat="45.32928080298006534576416015625" lon="-71.05008208192884922027587890625">
        <ele>509.20001220703125</ele>
        <time>2026-08-21T22:22:05.000Z</time>
        <extensions>
          <ns3:TrackPointExtension>
            <ns3:hr>114</ns3:hr>
            <ns3:cad>50</ns3:cad>
          </ns3:TrackPointExtension>
        </extensions>
      </trkpt>
      <trkpt lat="45.3292869217693805694580078125" lon="-71.05009339749813079833984375">
        <ele>509.20001220703125</ele>
        <time>2026-08-21T22:22:06.000Z</time>
        <extensions>
          <ns3:TrackPointExtension>
            <ns3:hr>114</ns3:hr>
            <ns3:cad>50</ns3:cad>
          </ns3:TrackPointExtension>
        </extensions>
      </trkpt>
      <trkpt lat="45.3292983211576938629150390625" lon="-71.050107479095458984375">
        <ele>509.20001220703125</ele>
        <time>2026-08-21T22:22:07.000Z</time>
        <extensions>
          <ns3:TrackPointExtension>
            <ns3:hr>113</ns3:hr>
            <ns3:cad>50</ns3:cad>
          </ns3:TrackPointExtension>
        </extensions>
      </trkpt>
      <trkpt lat="45.3293095529079437255859375" lon="-71.0501294396817684173583984375">
        <ele>509.20001220703125</ele>
        <time>2026-08-21T22:22:08.000Z</time>
        <extensions>
          <ns3:TrackPointExtension>
            <ns3:hr>112</ns3:hr>
            <ns3:cad>50</ns3:cad>
          </ns3:TrackPointExtension>
        </extensions>
      </trkpt>
      <trkpt lat="45.32931902445852756500244140625" lon="-71.0501505620777606964111328125">
        <ele>509.20001220703125</ele>
        <time>2026-08-21T22:22:09.000Z</time>
        <extensions>
          <ns3:TrackPointExtension>
            <ns3:hr>112</ns3:hr>
            <ns3:cad>50</ns3:cad>
          </ns3:TrackPointExtension>
        </extensions>
      </trkpt>
      <trkpt lat="45.32933008857071399688720703125" lon="-71.05017377994954586029052734375">
        <ele>509.20001220703125</ele>
        <time>2026-08-21T22:22:10.000Z</time>
        <extensions>
          <ns3:TrackPointExtension>
            <ns3:hr>112</ns3:hr>
            <ns3:cad>50</ns3:cad>
          </ns3:TrackPointExtension>
        </extensions>
      </trkpt>
      <trkpt lat="45.32934098504483699798583984375" lon="-71.050193309783935546875">
        <ele>509.20001220703125</ele>
        <time>2026-08-21T22:22:11.000Z</time>
        <extensions>
          <ns3:TrackPointExtension>
            <ns3:hr>112</ns3:hr>
            <ns3:cad>50</ns3:cad>
          </ns3:TrackPointExtension>
        </extensions>
      </trkpt>
      <trkpt lat="45.3293509595096111297607421875" lon="-71.050207726657390594482421875">
        <ele>509.20001220703125</ele>
        <time>2026-08-21T22:22:12.000Z</time>
        <extensions>
          <ns3:TrackPointExtension>
            <ns3:hr>112</ns3:hr>
            <ns3:cad>50</ns3:cad>
          </ns3:TrackPointExtension>
        </extensions>
      </trkpt>
      <trkpt lat="45.32936361618340015411376953125" lon="-71.05022155679762363433837890625">
        <ele>509.20001220703125</ele>
        <time>2026-08-21T22:22:13.000Z</time>
        <extensions>
          <ns3:TrackPointExtension>
            <ns3:hr>112</ns3:hr>
            <ns3:cad>72</ns3:cad>
          </ns3:TrackPointExtension>
        </extensions>
      </trkpt>
      <trkpt lat="45.3293754346668720245361328125" lon="-71.05022675357758998870849609375">
        <ele>509.20001220703125</ele>
        <time>2026-08-21T22:22:14.000Z</time>
        <extensions>
          <ns3:TrackPointExtension>
            <ns3:hr>113</ns3:hr>
            <ns3:cad>72</ns3:cad>
          </ns3:TrackPointExtension>
        </extensions>
      </trkpt>
      <trkpt lat="45.3293858282268047332763671875" lon="-71.0502300225198268890380859375">
        <ele>509</ele>
        <time>2026-08-21T22:22:15.000Z</time>
        <extensions>
          <ns3:TrackPointExtension>
            <ns3:hr>113</ns3:hr>
            <ns3:cad>72</ns3:cad>
          </ns3:TrackPointExtension>
        </extensions>
      </trkpt>
      <trkpt lat="45.3293995745480060577392578125" lon="-71.0502407513558864593505859375">
        <ele>508.600006103515625</ele>
        <time>2026-08-21T22:22:16.000Z</time>
        <extensions>
          <ns3:TrackPointExtension>
            <ns3:hr>114</ns3:hr>
            <ns3:cad>72</ns3:cad>
          </ns3:TrackPointExtension>
        </extensions>
      </trkpt>
      <trkpt lat="45.3294106386601924896240234375" lon="-71.050253994762897491455078125">
        <ele>508.399993896484375</ele>
        <time>2026-08-21T22:22:17.000Z</time>
        <extensions>
          <ns3:TrackPointExtension>
            <ns3:hr>114</ns3:hr>
            <ns3:cad>72</ns3:cad>
          </ns3:TrackPointExtension>
        </extensions>
      </trkpt>
      <trkpt lat="45.329414494335651397705078125" lon="-71.050266735255718231201171875">
        <ele>508.20001220703125</ele>
        <time>2026-08-21T22:22:18.000Z</time>
        <extensions>
          <ns3:TrackPointExtension>
            <ns3:hr>114</ns3:hr>
            <ns3:cad>74</ns3:cad>
          </ns3:TrackPointExtension>
        </extensions>
      </trkpt>
      <trkpt lat="45.3294210322201251983642578125" lon="-71.05028115212917327880859375">
        <ele>508.20001220703125</ele>
        <time>2026-08-21T22:22:19.000Z</time>
        <extensions>
          <ns3:TrackPointExtension>
            <ns3:hr>115</ns3:hr>
            <ns3:cad>74</ns3:cad>
          </ns3:TrackPointExtension>
        </extensions>
      </trkpt>
      <trkpt lat="45.329424552619457244873046875" lon="-71.050292551517486572265625">
        <ele>508.399993896484375</ele>
        <time>2026-08-21T22:22:20.000Z</time>
        <extensions>
          <ns3:TrackPointExtension>
            <ns3:hr>115</ns3:hr>
            <ns3:cad>74</ns3:cad>
          </ns3:TrackPointExtension>
        </extensions>
      </trkpt>
      <trkpt lat="45.32942363061010837554931640625" lon="-71.05029850266873836517333984375">
        <ele>508.600006103515625</ele>
        <time>2026-08-21T22:22:21.000Z</time>
        <extensions>
          <ns3:TrackPointExtension>
            <ns3:hr>115</ns3:hr>
            <ns3:cad>74</ns3:cad>
          </ns3:TrackPointExtension>
        </extensions>
      </trkpt>
      <trkpt lat="45.32942379824817180633544921875" lon="-71.05030453763902187347412109375">
        <ele>508.79998779296875</ele>
        <time>2026-08-21T22:22:22.000Z</time>
        <extensions>
          <ns3:TrackPointExtension>
            <ns3:hr>116</ns3:hr>
            <ns3:cad>74</ns3:cad>
          </ns3:TrackPointExtension>
        </extensions>
      </trkpt>
      <trkpt lat="45.32942748628556728363037109375" lon="-71.05031560175120830535888671875">
        <ele>509.20001220703125</ele>
        <time>2026-08-21T22:22:23.000Z</time>
        <extensions>
          <ns3:TrackPointExtension>
            <ns3:hr>117</ns3:hr>
            <ns3:cad>74</ns3:cad>
          </ns3:TrackPointExtension>
        </extensions>
      </trkpt>
      <trkpt lat="45.32943234778940677642822265625" lon="-71.05032264254987239837646484375">
        <ele>509.399993896484375</ele>
        <time>2026-08-21T22:22:24.000Z</time>
        <extensions>
          <ns3:TrackPointExtension>
            <ns3:hr>117</ns3:hr>
            <ns3:cad>74</ns3:cad>
          </ns3:TrackPointExtension>
        </extensions>
      </trkpt>
      <trkpt lat="45.329433940351009368896484375" lon="-71.0503295995295047760009765625">
        <ele>509.79998779296875</ele>
        <time>2026-08-21T22:22:25.000Z</time>
        <extensions>
          <ns3:TrackPointExtension>
            <ns3:hr>117</ns3:hr>
            <ns3:cad>74</ns3:cad>
          </ns3:TrackPointExtension>
        </extensions>
      </trkpt>
      <trkpt lat="45.32943251542747020721435546875" lon="-71.0503443516790866851806640625">
        <ele>510</ele>
        <time>2026-08-21T22:22:26.000Z</time>
        <extensions>
          <ns3:TrackPointExtension>
            <ns3:hr>117</ns3:hr>
            <ns3:cad>74</ns3:cad>
          </ns3:TrackPointExtension>
        </extensions>
      </trkpt>
      <trkpt lat="45.32943419180810451507568359375" lon="-71.050357930362224578857421875">
        <ele>510.20001220703125</ele>
        <time>2026-08-21T22:22:27.000Z</time>
        <extensions>
          <ns3:TrackPointExtension>
            <ns3:hr>118</ns3:hr>
            <ns3:cad>74</ns3:cad>
          </ns3:TrackPointExtension>
        </extensions>
      </trkpt>
      <trkpt lat="45.3294404782354831695556640625" lon="-71.05037494562566280364990234375">
        <ele>510.600006103515625</ele>
        <time>2026-08-21T22:22:28.000Z</time>
        <extensions>
          <ns3:TrackPointExtension>
            <ns3:hr>118</ns3:hr>
            <ns3:cad>0</ns3:cad>
          </ns3:TrackPointExtension>
        </extensions>
      </trkpt>
      <trkpt lat="45.3294465132057666778564453125" lon="-71.05039355345070362091064453125">
        <ele>510.79998779296875</ele>
        <time>2026-08-21T22:22:29.000Z</time>
        <extensions>
          <ns3:TrackPointExtension>
            <ns3:hr>119</ns3:hr>
            <ns3:cad>0</ns3:cad>
          </ns3:TrackPointExtension>
        </extensions>
      </trkpt>
      <trkpt lat="45.3294502012431621551513671875" lon="-71.0504161007702350616455078125">
        <ele>511</ele>
        <time>2026-08-21T22:22:30.000Z</time>
        <extensions>
          <ns3:TrackPointExtension>
            <ns3:hr>120</ns3:hr>
            <ns3:cad>0</ns3:cad>
          </ns3:TrackPointExtension>
        </extensions>
      </trkpt>
      <trkpt lat="45.32944978214800357818603515625" lon="-71.0504419170320034027099609375">
        <ele>511.20001220703125</ele>
        <time>2026-08-21T22:22:31.000Z</time>
        <extensions>
          <ns3:TrackPointExtension>
            <ns3:hr>120</ns3:hr>
            <ns3:cad>0</ns3:cad>
          </ns3:TrackPointExtension>
        </extensions>
      </trkpt>
      <trkpt lat="45.3294522128999233245849609375" lon="-71.05045683681964874267578125">
        <ele>511.399993896484375</ele>
        <time>2026-08-21T22:22:32.000Z</time>
        <extensions>
          <ns3:TrackPointExtension>
            <ns3:hr>121</ns3:hr>
            <ns3:cad>0</ns3:cad>
          </ns3:TrackPointExtension>
        </extensions>
      </trkpt>
      <trkpt lat="45.32946017570793628692626953125" lon="-71.0504781268537044525146484375">
        <ele>511.399993896484375</ele>
        <time>2026-08-21T22:22:33.000Z</time>
        <extensions>
          <ns3:TrackPointExtension>
            <ns3:hr>121</ns3:hr>
            <ns3:cad>0</ns3:cad>
          </ns3:TrackPointExtension>
        </extensions>
      </trkpt>
      <trkpt lat="45.32946604304015636444091796875" lon="-71.05050151236355304718017578125">
        <ele>511.399993896484375</ele>
        <time>2026-08-21T22:22:34.000Z</time>
        <extensions>
          <ns3:TrackPointExtension>
            <ns3:hr>121</ns3:hr>
            <ns3:cad>0</ns3:cad>
          </ns3:TrackPointExtension>
        </extensions>
      </trkpt>
      <trkpt lat="45.3294639475643634796142578125" lon="-71.050518862903118133544921875">
        <ele>511.399993896484375</ele>
        <time>2026-08-21T22:22:35.000Z</time>
        <extensions>
          <ns3:TrackPointExtension>
            <ns3:hr>121</ns3:hr>
            <ns3:cad>0</ns3:cad>
          </ns3:TrackPointExtension>
        </extensions>
      </trkpt>
      <trkpt lat="45.32946470193564891815185546875" lon="-71.05052984319627285003662109375">
        <ele>511.399993896484375</ele>
        <time>2026-08-21T22:22:36.000Z</time>
        <extensions>
          <ns3:TrackPointExtension>
            <ns3:hr>121</ns3:hr>
            <ns3:cad>0</ns3:cad>
          </ns3:TrackPointExtension>
        </extensions>
      </trkpt>
      <trkpt lat="45.3294636122882366180419921875" lon="-71.05054057203233242034912109375">
        <ele>511.399993896484375</ele>
        <time>2026-08-21T22:22:37.000Z</time>
        <extensions>
          <ns3:TrackPointExtension>
            <ns3:hr>122</ns3:hr>
            <ns3:cad>0</ns3:cad>
          </ns3:TrackPointExtension>
        </extensions>
      </trkpt>
      <trkpt lat="45.3294599242508411407470703125" lon="-71.05055063031613826751708984375">
        <ele>511.399993896484375</ele>
        <time>2026-08-21T22:22:38.000Z</time>
        <extensions>
          <ns3:TrackPointExtension>
            <ns3:hr>123</ns3:hr>
            <ns3:cad>0</ns3:cad>
          </ns3:TrackPointExtension>
        </extensions>
      </trkpt>
      <trkpt lat="45.32945447601377964019775390625" lon="-71.05056504718959331512451171875">
        <ele>511.600006103515625</ele>
        <time>2026-08-21T22:22:39.000Z</time>
        <extensions>
          <ns3:TrackPointExtension>
            <ns3:hr>124</ns3:hr>
            <ns3:cad>0</ns3:cad>
          </ns3:TrackPointExtension>
        </extensions>
      </trkpt>
      <trkpt lat="45.32944726757705211639404296875" lon="-71.05056990869343280792236328125">
        <ele>511.600006103515625</ele>
        <time>2026-08-21T22:22:40.000Z</time>
        <extensions>
          <ns3:TrackPointExtension>
            <ns3:hr>124</ns3:hr>
            <ns3:cad>0</ns3:cad>
          </ns3:TrackPointExtension>
        </extensions>
      </trkpt>
      <trkpt lat="45.32944022677838802337646484375" lon="-71.05057443492114543914794921875">
        <ele>511.600006103515625</ele>
        <time>2026-08-21T22:22:41.000Z</time>
        <extensions>
          <ns3:TrackPointExtension>
            <ns3:hr>125</ns3:hr>
            <ns3:cad>0</ns3:cad>
          </ns3:TrackPointExtension>
        </extensions>
      </trkpt>
      <trkpt lat="45.3294290788471698760986328125" lon="-71.05058549903333187103271484375">
        <ele>511.79998779296875</ele>
        <time>2026-08-21T22:22:42.000Z</time>
        <extensions>
          <ns3:TrackPointExtension>
            <ns3:hr>125</ns3:hr>
            <ns3:cad>50</ns3:cad>
          </ns3:TrackPointExtension>
        </extensions>
      </trkpt>
      <trkpt lat="45.32942111603915691375732421875" lon="-71.05059421621263027191162109375">
        <ele>511.79998779296875</ele>
        <time>2026-08-21T22:22:43.000Z</time>
        <extensions>
          <ns3:TrackPointExtension>
            <ns3:hr>126</ns3:hr>
            <ns3:cad>50</ns3:cad>
          </ns3:TrackPointExtension>
        </extensions>
      </trkpt>
      <trkpt lat="45.32941239885985851287841796875" lon="-71.05060259811580181121826171875">
        <ele>512</ele>
        <time>2026-08-21T22:22:44.000Z</time>
        <extensions>
          <ns3:TrackPointExtension>
            <ns3:hr>126</ns3:hr>
            <ns3:cad>50</ns3:cad>
          </ns3:TrackPointExtension>
        </extensions>
      </trkpt>
      <trkpt lat="45.32940334640443325042724609375" lon="-71.050609052181243896484375">
        <ele>512</ele>
        <time>2026-08-21T22:22:45.000Z</time>
        <extensions>
          <ns3:TrackPointExtension>
            <ns3:hr>127</ns3:hr>
            <ns3:cad>50</ns3:cad>
          </ns3:TrackPointExtension>
        </extensions>
      </trkpt>
      <trkpt lat="45.32939379103481769561767578125" lon="-71.05061667971312999725341796875">
        <ele>512.20001220703125</ele>
        <time>2026-08-21T22:22:46.000Z</time>
        <extensions>
          <ns3:TrackPointExtension>
            <ns3:hr>128</ns3:hr>
            <ns3:cad>50</ns3:cad>
          </ns3:TrackPointExtension>
        </extensions>
      </trkpt>
      <trkpt lat="45.32938398420810699462890625" lon="-71.05062782764434814453125">
        <ele>512.4000244140625</ele>
        <time>2026-08-21T22:22:47.000Z</time>
        <extensions>
          <ns3:TrackPointExtension>
            <ns3:hr>129</ns3:hr>
            <ns3:cad>54</ns3:cad>
          </ns3:TrackPointExtension>
        </extensions>
      </trkpt>
      <trkpt lat="45.3293734230101108551025390625" lon="-71.05063478462398052215576171875">
        <ele>512.5999755859375</ele>
        <time>2026-08-21T22:22:48.000Z</time>
        <extensions>
          <ns3:TrackPointExtension>
            <ns3:hr>129</ns3:hr>
            <ns3:cad>54</ns3:cad>
          </ns3:TrackPointExtension>
        </extensions>
      </trkpt>
      <trkpt lat="45.3293630294501781463623046875" lon="-71.05063897557556629180908203125">
        <ele>512.5999755859375</ele>
        <time>2026-08-21T22:22:49.000Z</time>
        <extensions>
          <ns3:TrackPointExtension>
            <ns3:hr>130</ns3:hr>
            <ns3:cad>54</ns3:cad>
          </ns3:TrackPointExtension>
        </extensions>
      </trkpt>
      <trkpt lat="45.3293524682521820068359375" lon="-71.0506464354693889617919921875">
        <ele>512.79998779296875</ele>
        <time>2026-08-21T22:22:50.000Z</time>
        <extensions>
          <ns3:TrackPointExtension>
            <ns3:hr>130</ns3:hr>
            <ns3:cad>51</ns3:cad>
          </ns3:TrackPointExtension>
        </extensions>
      </trkpt>
      <trkpt lat="45.32934165559709072113037109375" lon="-71.0506564937531948089599609375">
        <ele>512.79998779296875</ele>
        <time>2026-08-21T22:22:51.000Z</time>
        <extensions>
          <ns3:TrackPointExtension>
            <ns3:hr>130</ns3:hr>
            <ns3:cad>51</ns3:cad>
          </ns3:TrackPointExtension>
        </extensions>
      </trkpt>
      <trkpt lat="45.329334028065204620361328125" lon="-71.05067082680761814117431640625">
        <ele>512.79998779296875</ele>
        <time>2026-08-21T22:22:52.000Z</time>
        <extensions>
          <ns3:TrackPointExtension>
            <ns3:hr>130</ns3:hr>
            <ns3:cad>48</ns3:cad>
          </ns3:TrackPointExtension>
        </extensions>
      </trkpt>
      <trkpt lat="45.329325981438159942626953125" lon="-71.05067937634885311126708984375">
        <ele>512.79998779296875</ele>
        <time>2026-08-21T22:22:53.000Z</time>
        <extensions>
          <ns3:TrackPointExtension>
            <ns3:hr>127</ns3:hr>
            <ns3:cad>48</ns3:cad>
          </ns3:TrackPointExtension>
        </extensions>
      </trkpt>
      <trkpt lat="45.3293137438595294952392578125" lon="-71.05068339966237545013427734375">
        <ele>512.79998779296875</ele>
        <time>2026-08-21T22:22:54.000Z</time>
        <extensions>
          <ns3:TrackPointExtension>
            <ns3:hr>127</ns3:hr>
            <ns3:cad>51</ns3:cad>
          </ns3:TrackPointExtension>
        </extensions>
      </trkpt>
      <trkpt lat="45.329304523766040802001953125" lon="-71.050691194832324981689453125">
        <ele>512.79998779296875</ele>
        <time>2026-08-21T22:22:55.000Z</time>
        <extensions>
          <ns3:TrackPointExtension>
            <ns3:hr>128</ns3:hr>
            <ns3:cad>51</ns3:cad>
          </ns3:TrackPointExtension>
        </extensions>
      </trkpt>
      <trkpt lat="45.3292946331202983856201171875" lon="-71.050701923668384552001953125">
        <ele>512.79998779296875</ele>
        <time>2026-08-21T22:22:56.000Z</time>
        <extensions>
          <ns3:TrackPointExtension>
            <ns3:hr>129</ns3:hr>
            <ns3:cad>51</ns3:cad>
          </ns3:TrackPointExtension>
        </extensions>
      </trkpt>
      <trkpt lat="45.32928348518908023834228515625" lon="-71.05071810074150562286376953125">
        <ele>512.79998779296875</ele>
        <time>2026-08-21T22:22:57.000Z</time>
        <extensions>
          <ns3:TrackPointExtension>
            <ns3:hr>129</ns3:hr>
            <ns3:cad>0</ns3:cad>
          </ns3:TrackPointExtension>
        </extensions>
      </trkpt>
      <trkpt lat="45.329273007810115814208984375" lon="-71.050737798213958740234375">
        <ele>512.79998779296875</ele>
        <time>2026-08-21T22:22:58.000Z</time>
        <extensions>
          <ns3:TrackPointExtension>
            <ns3:hr>130</ns3:hr>
            <ns3:cad>0</ns3:cad>
          </ns3:TrackPointExtension>
        </extensions>
      </trkpt>
      <trkpt lat="45.32926454208791255950927734375" lon="-71.05075481347739696502685546875">
        <ele>513</ele>
        <time>2026-08-21T22:22:59.000Z</time>
        <extensions>
          <ns3:TrackPointExtension>
            <ns3:hr>131</ns3:hr>
            <ns3:cad>47</ns3:cad>
          </ns3:TrackPointExtension>
        </extensions>
      </trkpt>
      <trkpt lat="45.32926253043115139007568359375" lon="-71.0507691465318202972412109375">
        <ele>513</ele>
        <time>2026-08-21T22:23:00.000Z</time>
        <extensions>
          <ns3:TrackPointExtension>
            <ns3:hr>131</ns3:hr>
            <ns3:cad>51</ns3:cad>
          </ns3:TrackPointExtension>
        </extensions>
      </trkpt>
      <trkpt lat="45.32925230450928211212158203125" lon="-71.05079119093716144561767578125">
        <ele>513</ele>
        <time>2026-08-21T22:23:01.000Z</time>
        <extensions>
          <ns3:TrackPointExtension>
            <ns3:hr>131</ns3:hr>
            <ns3:cad>51</ns3:cad>
          </ns3:TrackPointExtension>
        </extensions>
      </trkpt>
      <trkpt lat="45.3292460180819034576416015625" lon="-71.05081113986670970916748046875">
        <ele>513.20001220703125</ele>
        <time>2026-08-21T22:23:02.000Z</time>
        <extensions>
          <ns3:TrackPointExtension>
            <ns3:hr>131</ns3:hr>
            <ns3:cad>56</ns3:cad>
          </ns3:TrackPointExtension>
        </extensions>
      </trkpt>
      <trkpt lat="45.32924308441579341888427734375" lon="-71.0508258081972599029541015625">
        <ele>513.20001220703125</ele>
        <time>2026-08-21T22:23:03.000Z</time>
        <extensions>
          <ns3:TrackPointExtension>
            <ns3:hr>132</ns3:hr>
            <ns3:cad>56</ns3:cad>
          </ns3:TrackPointExtension>
        </extensions>
      </trkpt>
      <trkpt lat="45.3292436711490154266357421875" lon="-71.05083494447171688079833984375">
        <ele>513.4000244140625</ele>
        <time>2026-08-21T22:23:04.000Z</time>
        <extensions>
          <ns3:TrackPointExtension>
            <ns3:hr>132</ns3:hr>
            <ns3:cad>56</ns3:cad>
          </ns3:TrackPointExtension>
        </extensions>
      </trkpt>
      <trkpt lat="45.32924492843449115753173828125" lon="-71.05085891671478748321533203125">
        <ele>513.4000244140625</ele>
        <time>2026-08-21T22:23:05.000Z</time>
        <extensions>
          <ns3:TrackPointExtension>
            <ns3:hr>133</ns3:hr>
            <ns3:cad>56</ns3:cad>
          </ns3:TrackPointExtension>
        </extensions>
      </trkpt>
      <trkpt lat="45.32924425788223743438720703125" lon="-71.05087702162563800811767578125">
        <ele>513.4000244140625</ele>
        <time>2026-08-21T22:23:06.000Z</time>
        <extensions>
          <ns3:TrackPointExtension>
            <ns3:hr>133</ns3:hr>
            <ns3:cad>56</ns3:cad>
          </ns3:TrackPointExtension>
        </extensions>
      </trkpt>
      <trkpt lat="45.3292436711490154266357421875" lon="-71.05089210905134677886962890625">
        <ele>513.5999755859375</ele>
        <time>2026-08-21T22:23:07.000Z</time>
        <extensions>
          <ns3:TrackPointExtension>
            <ns3:hr>133</ns3:hr>
            <ns3:cad>55</ns3:cad>
          </ns3:TrackPointExtension>
        </extensions>
      </trkpt>
      <trkpt lat="45.329241491854190826416015625" lon="-71.0509027540683746337890625">
        <ele>513.5999755859375</ele>
        <time>2026-08-21T22:23:08.000Z</time>
        <extensions>
          <ns3:TrackPointExtension>
            <ns3:hr>133</ns3:hr>
            <ns3:cad>55</ns3:cad>
          </ns3:TrackPointExtension>
        </extensions>
      </trkpt>
      <trkpt lat="45.3292406536638736724853515625" lon="-71.05091951787471771240234375">
        <ele>513.79998779296875</ele>
        <time>2026-08-21T22:23:09.000Z</time>
        <extensions>
          <ns3:TrackPointExtension>
            <ns3:hr>134</ns3:hr>
            <ns3:cad>55</ns3:cad>
          </ns3:TrackPointExtension>
        </extensions>
      </trkpt>
      <trkpt lat="45.3292456828057765960693359375" lon="-71.050941981375217437744140625">
        <ele>513.79998779296875</ele>
        <time>2026-08-21T22:23:10.000Z</time>
        <extensions>
          <ns3:TrackPointExtension>
            <ns3:hr>134</ns3:hr>
            <ns3:cad>55</ns3:cad>
          </ns3:TrackPointExtension>
        </extensions>
      </trkpt>
      <trkpt lat="45.329247526824474334716796875" lon="-71.0509605892002582550048828125">
        <ele>513.79998779296875</ele>
        <time>2026-08-21T22:23:11.000Z</time>
        <extensions>
          <ns3:TrackPointExtension>
            <ns3:hr>134</ns3:hr>
            <ns3:cad>0</ns3:cad>
          </ns3:TrackPointExtension>
        </extensions>
      </trkpt>
      <trkpt lat="45.32924727536737918853759765625" lon="-71.05098028667271137237548828125">
        <ele>513.79998779296875</ele>
        <time>2026-08-21T22:23:12.000Z</time>
        <extensions>
          <ns3:TrackPointExtension>
            <ns3:hr>135</ns3:hr>
            <ns3:cad>0</ns3:cad>
          </ns3:TrackPointExtension>
        </extensions>
      </trkpt>
      <trkpt lat="45.32924476079642772674560546875" lon="-71.05099864304065704345703125">
        <ele>513.79998779296875</ele>
        <time>2026-08-21T22:23:13.000Z</time>
        <extensions>
          <ns3:TrackPointExtension>
            <ns3:hr>135</ns3:hr>
            <ns3:cad>0</ns3:cad>
          </ns3:TrackPointExtension>
        </extensions>
      </trkpt>
      <trkpt lat="45.32924450933933258056640625" lon="-71.05101247318089008331298828125">
        <ele>513.79998779296875</ele>
        <time>2026-08-21T22:23:14.000Z</time>
        <extensions>
          <ns3:TrackPointExtension>
            <ns3:hr>135</ns3:hr>
            <ns3:cad>0</ns3:cad>
          </ns3:TrackPointExtension>
        </extensions>
      </trkpt>
      <trkpt lat="45.3292433358728885650634765625" lon="-71.0510165803134441375732421875">
        <ele>514</ele>
        <time>2026-08-21T22:23:15.000Z</time>
        <extensions>
          <ns3:TrackPointExtension>
            <ns3:hr>135</ns3:hr>
            <ns3:cad>0</ns3:cad>
          </ns3:TrackPointExtension>
        </extensions>
      </trkpt>
      <trkpt lat="45.32924140803515911102294921875" lon="-71.05103627778589725494384765625">
        <ele>514.20001220703125</ele>
        <time>2026-08-21T22:23:16.000Z</time>
        <extensions>
          <ns3:TrackPointExtension>
            <ns3:hr>134</ns3:hr>
            <ns3:cad>0</ns3:cad>
          </ns3:TrackPointExtension>
        </extensions>
      </trkpt>
      <trkpt lat="45.3292352892458438873291015625" lon="-71.05105237103998661041259765625">
        <ele>514.4000244140625</ele>
        <time>2026-08-21T22:23:17.000Z</time>
        <extensions>
          <ns3:TrackPointExtension>
            <ns3:hr>134</ns3:hr>
            <ns3:cad>0</ns3:cad>
          </ns3:TrackPointExtension>
        </extensions>
      </trkpt>
      <trkpt lat="45.32923034392297267913818359375" lon="-71.05105572380125522613525390625">
        <ele>514.5999755859375</ele>
        <time>2026-08-21T22:23:18.000Z</time>
        <extensions>
          <ns3:TrackPointExtension>
            <ns3:hr>134</ns3:hr>
            <ns3:cad>0</ns3:cad>
          </ns3:TrackPointExtension>
        </extensions>
      </trkpt>
      <trkpt lat="45.329224057495594024658203125" lon="-71.05106695555150508880615234375">
        <ele>514.79998779296875</ele>
        <time>2026-08-21T22:23:19.000Z</time>
        <extensions>
          <ns3:TrackPointExtension>
            <ns3:hr>134</ns3:hr>
            <ns3:cad>0</ns3:cad>
          </ns3:TrackPointExtension>
        </extensions>
      </trkpt>
      <trkpt lat="45.32922129146754741668701171875" lon="-71.051075756549835205078125">
        <ele>515</ele>
        <time>2026-08-21T22:23:20.000Z</time>
        <extensions>
          <ns3:TrackPointExtension>
            <ns3:hr>134</ns3:hr>
            <ns3:cad>0</ns3:cad>
          </ns3:TrackPointExtension>
        </extensions>
      </trkpt>
      <trkpt lat="45.3292155079543590545654296875" lon="-71.051092855632305145263671875">
        <ele>515.20001220703125</ele>
        <time>2026-08-21T22:23:21.000Z</time>
        <extensions>
          <ns3:TrackPointExtension>
            <ns3:hr>135</ns3:hr>
            <ns3:cad>0</ns3:cad>
          </ns3:TrackPointExtension>
        </extensions>
      </trkpt>
      <trkpt lat="45.329211987555027008056640625" lon="-71.0511037521064281463623046875">
        <ele>515.4000244140625</ele>
        <time>2026-08-21T22:23:22.000Z</time>
        <extensions>
          <ns3:TrackPointExtension>
            <ns3:hr>134</ns3:hr>
            <ns3:cad>0</ns3:cad>
          </ns3:TrackPointExtension>
        </extensions>
      </trkpt>
      <trkpt lat="45.3292108140885829925537109375" lon="-71.05111774988472461700439453125">
        <ele>515.5999755859375</ele>
        <time>2026-08-21T22:23:23.000Z</time>
        <extensions>
          <ns3:TrackPointExtension>
            <ns3:hr>134</ns3:hr>
            <ns3:cad>0</ns3:cad>
          </ns3:TrackPointExtension>
        </extensions>
      </trkpt>
      <trkpt lat="45.32920519821345806121826171875" lon="-71.0511429794132709503173828125">
        <ele>515.5999755859375</ele>
        <time>2026-08-21T22:23:24.000Z</time>
        <extensions>
          <ns3:TrackPointExtension>
            <ns3:hr>134</ns3:hr>
            <ns3:cad>49</ns3:cad>
          </ns3:TrackPointExtension>
        </extensions>
      </trkpt>
      <trkpt lat="45.3292051143944263458251953125" lon="-71.0511629283428192138671875">
        <ele>515.79998779296875</ele>
        <time>2026-08-21T22:23:25.000Z</time>
        <extensions>
          <ns3:TrackPointExtension>
            <ns3:hr>135</ns3:hr>
            <ns3:cad>49</ns3:cad>
          </ns3:TrackPointExtension>
        </extensions>
      </trkpt>
      <trkpt lat="45.32921140082180500030517578125" lon="-71.051183044910430908203125">
        <ele>515.79998779296875</ele>
        <time>2026-08-21T22:23:26.000Z</time>
        <extensions>
          <ns3:TrackPointExtension>
            <ns3:hr>134</ns3:hr>
            <ns3:cad>0</ns3:cad>
          </ns3:TrackPointExtension>
        </extensions>
      </trkpt>
      <trkpt lat="45.3292155079543590545654296875" lon="-71.05120592750608921051025390625">
        <ele>515.79998779296875</ele>
        <time>2026-08-21T22:23:27.000Z</time>
        <extensions>
          <ns3:TrackPointExtension>
            <ns3:hr>135</ns3:hr>
            <ns3:cad>0</ns3:cad>
          </ns3:TrackPointExtension>
        </extensions>
      </trkpt>
      <trkpt lat="45.3292158432304859161376953125" lon="-71.05122931301593780517578125">
        <ele>515.79998779296875</ele>
        <time>2026-08-21T22:23:28.000Z</time>
        <extensions>
          <ns3:TrackPointExtension>
            <ns3:hr>135</ns3:hr>
            <ns3:cad>0</ns3:cad>
          </ns3:TrackPointExtension>
        </extensions>
      </trkpt>
      <trkpt lat="45.32921542413532733917236328125" lon="-71.0512536205351352691650390625">
        <ele>515.79998779296875</ele>
        <time>2026-08-21T22:23:29.000Z</time>
        <extensions>
          <ns3:TrackPointExtension>
            <ns3:hr>135</ns3:hr>
            <ns3:cad>0</ns3:cad>
          </ns3:TrackPointExtension>
        </extensions>
      </trkpt>
      <trkpt lat="45.329218693077564239501953125" lon="-71.0512673668563365936279296875">
        <ele>516</ele>
        <time>2026-08-21T22:23:30.000Z</time>
        <extensions>
          <ns3:TrackPointExtension>
            <ns3:hr>134</ns3:hr>
            <ns3:cad>0</ns3:cad>
          </ns3:TrackPointExtension>
        </extensions>
      </trkpt>
      <trkpt lat="45.32922615297138690948486328125" lon="-71.05128035880625247955322265625">
        <ele>516.20001220703125</ele>
        <time>2026-08-21T22:23:31.000Z</time>
        <extensions>
          <ns3:TrackPointExtension>
            <ns3:hr>135</ns3:hr>
            <ns3:cad>0</ns3:cad>
          </ns3:TrackPointExtension>
        </extensions>
      </trkpt>
      <trkpt lat="45.32923218794167041778564453125" lon="-71.0512997210025787353515625">
        <ele>516.4000244140625</ele>
        <time>2026-08-21T22:23:32.000Z</time>
        <extensions>
          <ns3:TrackPointExtension>
            <ns3:hr>135</ns3:hr>
            <ns3:cad>0</ns3:cad>
          </ns3:TrackPointExtension>
        </extensions>
      </trkpt>
      <trkpt lat="45.32923755235970020294189453125" lon="-71.0513149760663509368896484375">
        <ele>516.5999755859375</ele>
        <time>2026-08-21T22:23:33.000Z</time>
        <extensions>
          <ns3:TrackPointExtension>
            <ns3:hr>134</ns3:hr>
            <ns3:cad>48</ns3:cad>
          </ns3:TrackPointExtension>
        </extensions>
      </trkpt>
      <trkpt lat="45.32924442552030086517333984375" lon="-71.05133391916751861572265625">
        <ele>516.79998779296875</ele>
        <time>2026-08-21T22:23:34.000Z</time>
        <extensions>
          <ns3:TrackPointExtension>
            <ns3:hr>135</ns3:hr>
            <ns3:cad>48</ns3:cad>
          </ns3:TrackPointExtension>
        </extensions>
      </trkpt>
      <trkpt lat="45.32925062812864780426025390625" lon="-71.051346324384212493896484375">
        <ele>516.79998779296875</ele>
        <time>2026-08-21T22:23:35.000Z</time>
        <extensions>
          <ns3:TrackPointExtension>
            <ns3:hr>135</ns3:hr>
            <ns3:cad>48</ns3:cad>
          </ns3:TrackPointExtension>
        </extensions>
      </trkpt>
      <trkpt lat="45.3292567469179630279541015625" lon="-71.051359735429286956787109375">
        <ele>517</ele>
        <time>2026-08-21T22:23:36.000Z</time>
        <extensions>
          <ns3:TrackPointExtension>
            <ns3:hr>134</ns3:hr>
            <ns3:cad>0</ns3:cad>
          </ns3:TrackPointExtension>
        </extensions>
      </trkpt>
      <trkpt lat="45.32926487736403942108154296875" lon="-71.0513780079782009124755859375">
        <ele>517</ele>
        <time>2026-08-21T22:23:37.000Z</time>
        <extensions>
          <ns3:TrackPointExtension>
            <ns3:hr>135</ns3:hr>
            <ns3:cad>0</ns3:cad>
          </ns3:TrackPointExtension>
        </extensions>
      </trkpt>
      <trkpt lat="45.3292664699256420135498046875" lon="-71.05139770545065402984619140625">
        <ele>516.79998779296875</ele>
        <time>2026-08-21T22:23:38.000Z</time>
        <extensions>
          <ns3:TrackPointExtension>
            <ns3:hr>135</ns3:hr>
            <ns3:cad>0</ns3:cad>
          </ns3:TrackPointExtension>
        </extensions>
      </trkpt>
      <trkpt lat="45.32926152460277080535888671875" lon="-71.05141379870474338531494140625">
        <ele>517</ele>
        <time>2026-08-21T22:23:39.000Z</time>
        <extensions>
          <ns3:TrackPointExtension>
            <ns3:hr>134</ns3:hr>
            <ns3:cad>0</ns3:cad>
          </ns3:TrackPointExtension>
        </extensions>
      </trkpt>
      <trkpt lat="45.329257585108280181884765625" lon="-71.05143584311008453369140625">
        <ele>517</ele>
        <time>2026-08-21T22:23:40.000Z</time>
        <extensions>
          <ns3:TrackPointExtension>
            <ns3:hr>134</ns3:hr>
            <ns3:cad>0</ns3:cad>
          </ns3:TrackPointExtension>
        </extensions>
      </trkpt>
      <trkpt lat="45.3292532265186309814453125" lon="-71.05145235545933246612548828125">
        <ele>517</ele>
        <time>2026-08-21T22:23:41.000Z</time>
        <extensions>
          <ns3:TrackPointExtension>
            <ns3:hr>134</ns3:hr>
            <ns3:cad>57</ns3:cad>
          </ns3:TrackPointExtension>
        </extensions>
      </trkpt>
      <trkpt lat="45.32924895174801349639892578125" lon="-71.05147046037018299102783203125">
        <ele>517.20001220703125</ele>
        <time>2026-08-21T22:23:42.000Z</time>
        <extensions>
          <ns3:TrackPointExtension>
            <ns3:hr>134</ns3:hr>
            <ns3:cad>57</ns3:cad>
          </ns3:TrackPointExtension>
        </extensions>
      </trkpt>
      <trkpt lat="45.3292460180819034576416015625" lon="-71.05148973874747753143310546875">
        <ele>517.20001220703125</ele>
        <time>2026-08-21T22:23:43.000Z</time>
        <extensions>
          <ns3:TrackPointExtension>
            <ns3:hr>135</ns3:hr>
            <ns3:cad>57</ns3:cad>
          </ns3:TrackPointExtension>
        </extensions>
      </trkpt>
      <trkpt lat="45.32924207858741283416748046875" lon="-71.05150231160223484039306640625">
        <ele>517.4000244140625</ele>
        <time>2026-08-21T22:23:44.000Z</time>
        <extensions>
          <ns3:TrackPointExtension>
            <ns3:hr>134</ns3:hr>
            <ns3:cad>57</ns3:cad>
          </ns3:TrackPointExtension>
        </extensions>
      </trkpt>
      <trkpt lat="45.32923587597906589508056640625" lon="-71.05151622556149959564208984375">
        <ele>517.4000244140625</ele>
        <time>2026-08-21T22:23:45.000Z</time>
        <extensions>
          <ns3:TrackPointExtension>
            <ns3:hr>134</ns3:hr>
            <ns3:cad>0</ns3:cad>
          </ns3:TrackPointExtension>
        </extensions>
      </trkpt>
      <trkpt lat="45.32922615297138690948486328125" lon="-71.05153399519622325897216796875">
        <ele>517.4000244140625</ele>
        <time>2026-08-21T22:23:46.000Z</time>
        <extensions>
          <ns3:TrackPointExtension>
            <ns3:hr>135</ns3:hr>
            <ns3:cad>0</ns3:cad>
          </ns3:TrackPointExtension>
        </extensions>
      </trkpt>
      <trkpt lat="45.32921969890594482421875" lon="-71.05154740624129772186279296875">
        <ele>517.4000244140625</ele>
        <time>2026-08-21T22:23:47.000Z</time>
        <extensions>
          <ns3:TrackPointExtension>
            <ns3:hr>134</ns3:hr>
            <ns3:cad>0</ns3:cad>
          </ns3:TrackPointExtension>
        </extensions>
      </trkpt>
      <trkpt lat="45.32921475358307361602783203125" lon="-71.05155427940189838409423828125">
        <ele>517.5999755859375</ele>
        <time>2026-08-21T22:23:48.000Z</time>
        <extensions>
          <ns3:TrackPointExtension>
            <ns3:hr>134</ns3:hr>
            <ns3:cad>54</ns3:cad>
          </ns3:TrackPointExtension>
        </extensions>
      </trkpt>
      <trkpt lat="45.32920100726187229156494140625" lon="-71.05156701989471912384033203125">
        <ele>517.5999755859375</ele>
        <time>2026-08-21T22:23:49.000Z</time>
        <extensions>
          <ns3:TrackPointExtension>
            <ns3:hr>133</ns3:hr>
            <ns3:cad>54</ns3:cad>
          </ns3:TrackPointExtension>
        </extensions>
      </trkpt>
      <trkpt lat="45.32919220626354217529296875" lon="-71.05157934129238128662109375">
        <ele>517.79998779296875</ele>
        <time>2026-08-21T22:23:50.000Z</time>
        <extensions>
          <ns3:TrackPointExtension>
            <ns3:hr>133</ns3:hr>
            <ns3:cad>54</ns3:cad>
          </ns3:TrackPointExtension>
        </extensions>
      </trkpt>
      <trkpt lat="45.32918206416070461273193359375" lon="-71.05159082449972629547119140625">
        <ele>518</ele>
        <time>2026-08-21T22:23:51.000Z</time>
        <extensions>
          <ns3:TrackPointExtension>
            <ns3:hr>132</ns3:hr>
            <ns3:cad>54</ns3:cad>
          </ns3:TrackPointExtension>
        </extensions>
      </trkpt>
      <trkpt lat="45.3291712515056133270263671875" lon="-71.05160214006900787353515625">
        <ele>518</ele>
        <time>2026-08-21T22:23:52.000Z</time>
        <extensions>
          <ns3:TrackPointExtension>
            <ns3:hr>132</ns3:hr>
            <ns3:cad>54</ns3:cad>
          </ns3:TrackPointExtension>
        </extensions>
      </trkpt>
      <trkpt lat="45.3291608579456806182861328125" lon="-71.051616556942462921142578125">
        <ele>518.20001220703125</ele>
        <time>2026-08-21T22:23:53.000Z</time>
        <extensions>
          <ns3:TrackPointExtension>
            <ns3:hr>132</ns3:hr>
            <ns3:cad>54</ns3:cad>
          </ns3:TrackPointExtension>
        </extensions>
      </trkpt>
      <trkpt lat="45.32915809191763401031494140625" lon="-71.051639020442962646484375">
        <ele>518.20001220703125</ele>
        <time>2026-08-21T22:23:54.000Z</time>
        <extensions>
          <ns3:TrackPointExtension>
            <ns3:hr>132</ns3:hr>
            <ns3:cad>54</ns3:cad>
          </ns3:TrackPointExtension>
        </extensions>
      </trkpt>
      <trkpt lat="45.32915792427957057952880859375" lon="-71.0516698658466339111328125">
        <ele>518.20001220703125</ele>
        <time>2026-08-21T22:23:55.000Z</time>
        <extensions>
          <ns3:TrackPointExtension>
            <ns3:hr>132</ns3:hr>
            <ns3:cad>55</ns3:cad>
          </ns3:TrackPointExtension>
        </extensions>
      </trkpt>
      <trkpt lat="45.32915524207055568695068359375" lon="-71.0516918264329433441162109375">
        <ele>518.20001220703125</ele>
        <time>2026-08-21T22:23:56.000Z</time>
        <extensions>
          <ns3:TrackPointExtension>
            <ns3:hr>132</ns3:hr>
            <ns3:cad>54</ns3:cad>
          </ns3:TrackPointExtension>
        </extensions>
      </trkpt>
      <trkpt lat="45.32915004529058933258056640625" lon="-71.05171345174312591552734375">
        <ele>518.20001220703125</ele>
        <time>2026-08-21T22:23:57.000Z</time>
        <extensions>
          <ns3:TrackPointExtension>
            <ns3:hr>132</ns3:hr>
            <ns3:cad>54</ns3:cad>
          </ns3:TrackPointExtension>
        </extensions>
      </trkpt>
      <trkpt lat="45.32914283685386180877685546875" lon="-71.051737926900386810302734375">
        <ele>518</ele>
        <time>2026-08-21T22:23:58.000Z</time>
        <extensions>
          <ns3:TrackPointExtension>
            <ns3:hr>132</ns3:hr>
            <ns3:cad>0</ns3:cad>
          </ns3:TrackPointExtension>
        </extensions>
      </trkpt>
      <trkpt lat="45.329136215150356292724609375" lon="-71.0517582111060619354248046875">
        <ele>518.20001220703125</ele>
        <time>2026-08-21T22:23:59.000Z</time>
        <extensions>
          <ns3:TrackPointExtension>
            <ns3:hr>132</ns3:hr>
            <ns3:cad>0</ns3:cad>
          </ns3:TrackPointExtension>
        </extensions>
      </trkpt>
      <trkpt lat="45.32913713715970516204833984375" lon="-71.05177707038819789886474609375">
        <ele>518.20001220703125</ele>
        <time>2026-08-21T22:24:00.000Z</time>
        <extensions>
          <ns3:TrackPointExtension>
            <ns3:hr>131</ns3:hr>
            <ns3:cad>0</ns3:cad>
          </ns3:TrackPointExtension>
        </extensions>
      </trkpt>
      <trkpt lat="45.329141579568386077880859375" lon="-71.0518024675548076629638671875">
        <ele>518.4000244140625</ele>
        <time>2026-08-21T22:24:01.000Z</time>
        <extensions>
          <ns3:TrackPointExtension>
            <ns3:hr>131</ns3:hr>
            <ns3:cad>0</ns3:cad>
          </ns3:TrackPointExtension>
        </extensions>
      </trkpt>
      <trkpt lat="45.32914551906287670135498046875" lon="-71.051827780902385711669921875">
        <ele>518.4000244140625</ele>
        <time>2026-08-21T22:24:02.000Z</time>
        <extensions>
          <ns3:TrackPointExtension>
            <ns3:hr>131</ns3:hr>
            <ns3:cad>0</ns3:cad>
          </ns3:TrackPointExtension>
        </extensions>
      </trkpt>
      <trkpt lat="45.329147279262542724609375" lon="-71.05185099877417087554931640625">
        <ele>518.4000244140625</ele>
        <time>2026-08-21T22:24:03.000Z</time>
        <extensions>
          <ns3:TrackPointExtension>
            <ns3:hr>130</ns3:hr>
            <ns3:cad>0</ns3:cad>
          </ns3:TrackPointExtension>
        </extensions>
      </trkpt>
      <trkpt lat="45.329147614538669586181640625" lon="-71.051872707903385162353515625">
        <ele>518.4000244140625</ele>
        <time>2026-08-21T22:24:04.000Z</time>
        <extensions>
          <ns3:TrackPointExtension>
            <ns3:hr>130</ns3:hr>
            <ns3:cad>0</ns3:cad>
          </ns3:TrackPointExtension>
        </extensions>
      </trkpt>
      <trkpt lat="45.3291504643857479095458984375" lon="-71.05189391411840915679931640625">
        <ele>518.20001220703125</ele>
        <time>2026-08-21T22:24:05.000Z</time>
        <extensions>
          <ns3:TrackPointExtension>
            <ns3:hr>130</ns3:hr>
            <ns3:cad>0</ns3:cad>
          </ns3:TrackPointExtension>
        </extensions>
      </trkpt>
      <trkpt lat="45.3291534818708896636962890625" lon="-71.05191252194344997406005859375">
        <ele>518.20001220703125</ele>
        <time>2026-08-21T22:24:06.000Z</time>
        <extensions>
          <ns3:TrackPointExtension>
            <ns3:hr>129</ns3:hr>
            <ns3:cad>0</ns3:cad>
          </ns3:TrackPointExtension>
        </extensions>
      </trkpt>
      <trkpt lat="45.32915390096604824066162109375" lon="-71.0519292019307613372802734375">
        <ele>518.20001220703125</ele>
        <time>2026-08-21T22:24:07.000Z</time>
        <extensions>
          <ns3:TrackPointExtension>
            <ns3:hr>128</ns3:hr>
            <ns3:cad>0</ns3:cad>
          </ns3:TrackPointExtension>
        </extensions>
      </trkpt>
      <trkpt lat="45.32915574498474597930908203125" lon="-71.05194672010838985443115234375">
        <ele>518.20001220703125</ele>
        <time>2026-08-21T22:24:08.000Z</time>
        <extensions>
          <ns3:TrackPointExtension>
            <ns3:hr>128</ns3:hr>
            <ns3:cad>0</ns3:cad>
          </ns3:TrackPointExtension>
        </extensions>
      </trkpt>
      <trkpt lat="45.32915775664150714874267578125" lon="-71.05195728130638599395751953125">
        <ele>518.20001220703125</ele>
        <time>2026-08-21T22:24:09.000Z</time>
        <extensions>
          <ns3:TrackPointExtension>
            <ns3:hr>128</ns3:hr>
            <ns3:cad>0</ns3:cad>
          </ns3:TrackPointExtension>
        </extensions>
      </trkpt>
      <trkpt lat="45.3291635401546955108642578125" lon="-71.05197538621723651885986328125">
        <ele>518.4000244140625</ele>
        <time>2026-08-21T22:24:10.000Z</time>
        <extensions>
          <ns3:TrackPointExtension>
            <ns3:hr>127</ns3:hr>
            <ns3:cad>0</ns3:cad>
          </ns3:TrackPointExtension>
        </extensions>
      </trkpt>
      <trkpt lat="45.3291700780391693115234375" lon="-71.05198896490037441253662109375">
        <ele>518.4000244140625</ele>
        <time>2026-08-21T22:24:11.000Z</time>
        <extensions>
          <ns3:TrackPointExtension>
            <ns3:hr>127</ns3:hr>
            <ns3:cad>0</ns3:cad>
          </ns3:TrackPointExtension>
        </extensions>
      </trkpt>
      <trkpt lat="45.329173766076564788818359375" lon="-71.0520046390593051910400390625">
        <ele>518.4000244140625</ele>
        <time>2026-08-21T22:24:12.000Z</time>
        <extensions>
          <ns3:TrackPointExtension>
            <ns3:hr>127</ns3:hr>
            <ns3:cad>0</ns3:cad>
          </ns3:TrackPointExtension>
        </extensions>
      </trkpt>
      <trkpt lat="45.329177118837833404541015625" lon="-71.05201981030404567718505859375">
        <ele>518.20001220703125</ele>
        <time>2026-08-21T22:24:13.000Z</time>
        <extensions>
          <ns3:TrackPointExtension>
            <ns3:hr>126</ns3:hr>
            <ns3:cad>0</ns3:cad>
          </ns3:TrackPointExtension>
        </extensions>
      </trkpt>
      <trkpt lat="45.32918550074100494384765625" lon="-71.052025593817234039306640625">
        <ele>518.20001220703125</ele>
        <time>2026-08-21T22:24:14.000Z</time>
        <extensions>
          <ns3:TrackPointExtension>
            <ns3:hr>126</ns3:hr>
            <ns3:cad>0</ns3:cad>
          </ns3:TrackPointExtension>
        </extensions>
      </trkpt>
      <trkpt lat="45.32919145189225673675537109375" lon="-71.05203590355813503265380859375">
        <ele>518.20001220703125</ele>
        <time>2026-08-21T22:24:15.000Z</time>
        <extensions>
          <ns3:TrackPointExtension>
            <ns3:hr>125</ns3:hr>
            <ns3:cad>53</ns3:cad>
          </ns3:TrackPointExtension>
        </extensions>
      </trkpt>
      <trkpt lat="45.32919832505285739898681640625" lon="-71.0520532540977001190185546875">
        <ele>518.20001220703125</ele>
        <time>2026-08-21T22:24:16.000Z</time>
        <extensions>
          <ns3:TrackPointExtension>
            <ns3:hr>125</ns3:hr>
            <ns3:cad>53</ns3:cad>
          </ns3:TrackPointExtension>
        </extensions>
      </trkpt>
      <trkpt lat="45.32920821569859981536865234375" lon="-71.052073873579502105712890625">
        <ele>518.20001220703125</ele>
        <time>2026-08-21T22:24:17.000Z</time>
        <extensions>
          <ns3:TrackPointExtension>
            <ns3:hr>125</ns3:hr>
            <ns3:cad>54</ns3:cad>
          </ns3:TrackPointExtension>
        </extensions>
      </trkpt>
      <trkpt lat="45.32922036945819854736328125" lon="-71.0520944930613040924072265625">
        <ele>518.20001220703125</ele>
        <time>2026-08-21T22:24:18.000Z</time>
        <extensions>
          <ns3:TrackPointExtension>
            <ns3:hr>125</ns3:hr>
            <ns3:cad>54</ns3:cad>
          </ns3:TrackPointExtension>
        </extensions>
      </trkpt>
      <trkpt lat="45.32922615297138690948486328125" lon="-71.05211150832474231719970703125">
        <ele>518.20001220703125</ele>
        <time>2026-08-21T22:24:19.000Z</time>
        <extensions>
          <ns3:TrackPointExtension>
            <ns3:hr>124</ns3:hr>
            <ns3:cad>54</ns3:cad>
          </ns3:TrackPointExtension>
        </extensions>
      </trkpt>
      <trkpt lat="45.32923252321779727935791015625" lon="-71.05213145725429058074951171875">
        <ele>518.20001220703125</ele>
        <time>2026-08-21T22:24:20.000Z</time>
        <extensions>
          <ns3:TrackPointExtension>
            <ns3:hr>124</ns3:hr>
            <ns3:cad>55</ns3:cad>
          </ns3:TrackPointExtension>
        </extensions>
      </trkpt>
      <trkpt lat="45.3292357921600341796875" lon="-71.05214662849903106689453125">
        <ele>518.4000244140625</ele>
        <time>2026-08-21T22:24:21.000Z</time>
        <extensions>
          <ns3:TrackPointExtension>
            <ns3:hr>124</ns3:hr>
            <ns3:cad>55</ns3:cad>
          </ns3:TrackPointExtension>
        </extensions>
      </trkpt>
      <trkpt lat="45.3292430005967617034912109375" lon="-71.05215542949736118316650390625">
        <ele>518.4000244140625</ele>
        <time>2026-08-21T22:24:22.000Z</time>
        <extensions>
          <ns3:TrackPointExtension>
            <ns3:hr>124</ns3:hr>
            <ns3:cad>56</ns3:cad>
          </ns3:TrackPointExtension>
        </extensions>
      </trkpt>
      <trkpt lat="45.3292478621006011962890625" lon="-71.05217772535979747772216796875">
        <ele>518.4000244140625</ele>
        <time>2026-08-21T22:24:23.000Z</time>
        <extensions>
          <ns3:TrackPointExtension>
            <ns3:hr>125</ns3:hr>
            <ns3:cad>56</ns3:cad>
          </ns3:TrackPointExtension>
        </extensions>
      </trkpt>
      <trkpt lat="45.3292547352612018585205078125" lon="-71.0522037930786609649658203125">
        <ele>518.5999755859375</ele>
        <time>2026-08-21T22:24:24.000Z</time>
        <extensions>
          <ns3:TrackPointExtension>
            <ns3:hr>126</ns3:hr>
            <ns3:cad>55</ns3:cad>
          </ns3:TrackPointExtension>
        </extensions>
      </trkpt>
      <trkpt lat="45.329256914556026458740234375" lon="-71.05222600512206554412841796875">
        <ele>518.5999755859375</ele>
        <time>2026-08-21T22:24:25.000Z</time>
        <extensions>
          <ns3:TrackPointExtension>
            <ns3:hr>126</ns3:hr>
            <ns3:cad>55</ns3:cad>
          </ns3:TrackPointExtension>
        </extensions>
      </trkpt>
      <trkpt lat="45.32926370389759540557861328125" lon="-71.05224293656647205352783203125">
        <ele>518.5999755859375</ele>
        <time>2026-08-21T22:24:26.000Z</time>
        <extensions>
          <ns3:TrackPointExtension>
            <ns3:hr>126</ns3:hr>
            <ns3:cad>55</ns3:cad>
          </ns3:TrackPointExtension>
        </extensions>
      </trkpt>
      <trkpt lat="45.3292714990675449371337890625" lon="-71.05226590298116207122802734375">
        <ele>518.4000244140625</ele>
        <time>2026-08-21T22:24:27.000Z</time>
        <extensions>
          <ns3:TrackPointExtension>
            <ns3:hr>125</ns3:hr>
            <ns3:cad>55</ns3:cad>
          </ns3:TrackPointExtension>
        </extensions>
      </trkpt>
      <trkpt lat="45.32927694730460643768310546875" lon="-71.05228417553007602691650390625">
        <ele>518.4000244140625</ele>
        <time>2026-08-21T22:24:28.000Z</time>
        <extensions>
          <ns3:TrackPointExtension>
            <ns3:hr>124</ns3:hr>
            <ns3:cad>55</ns3:cad>
          </ns3:TrackPointExtension>
        </extensions>
      </trkpt>
      <trkpt lat="45.32928097061812877655029296875" lon="-71.0522990114986896514892578125">
        <ele>518.4000244140625</ele>
        <time>2026-08-21T22:24:29.000Z</time>
        <extensions>
          <ns3:TrackPointExtension>
            <ns3:hr>124</ns3:hr>
            <ns3:cad>55</ns3:cad>
          </ns3:TrackPointExtension>
        </extensions>
      </trkpt>
      <trkpt lat="45.329281724989414215087890625" lon="-71.052307896316051483154296875">
        <ele>518.4000244140625</ele>
        <time>2026-08-21T22:24:30.000Z</time>
        <extensions>
          <ns3:TrackPointExtension>
            <ns3:hr>124</ns3:hr>
            <ns3:cad>55</ns3:cad>
          </ns3:TrackPointExtension>
        </extensions>
      </trkpt>
      <trkpt lat="45.3292758576571941375732421875" lon="-71.05231292545795440673828125">
        <ele>518.4000244140625</ele>
        <time>2026-08-21T22:24:31.000Z</time>
        <extensions>
          <ns3:TrackPointExtension>
            <ns3:hr>124</ns3:hr>
            <ns3:cad>55</ns3:cad>
          </ns3:TrackPointExtension>
        </extensions>
      </trkpt>
      <trkpt lat="45.32926730811595916748046875" lon="-71.05232859961688518524169921875">
        <ele>518.4000244140625</ele>
        <time>2026-08-21T22:24:32.000Z</time>
        <extensions>
          <ns3:TrackPointExtension>
            <ns3:hr>124</ns3:hr>
            <ns3:cad>55</ns3:cad>
          </ns3:TrackPointExtension>
        </extensions>
      </trkpt>
      <trkpt lat="45.32926454208791255950927734375" lon="-71.052343435585498809814453125">
        <ele>518.5999755859375</ele>
        <time>2026-08-21T22:24:33.000Z</time>
        <extensions>
          <ns3:TrackPointExtension>
            <ns3:hr>124</ns3:hr>
            <ns3:cad>55</ns3:cad>
          </ns3:TrackPointExtension>
        </extensions>
      </trkpt>
      <trkpt lat="45.329263620078563690185546875" lon="-71.0523617081344127655029296875">
        <ele>518.5999755859375</ele>
        <time>2026-08-21T22:24:34.000Z</time>
        <extensions>
          <ns3:TrackPointExtension>
            <ns3:hr>124</ns3:hr>
            <ns3:cad>55</ns3:cad>
          </ns3:TrackPointExtension>
        </extensions>
      </trkpt>
      <trkpt lat="45.3292621113359928131103515625" lon="-71.05238392017781734466552734375">
        <ele>518.79998779296875</ele>
        <time>2026-08-21T22:24:35.000Z</time>
        <extensions>
          <ns3:TrackPointExtension>
            <ns3:hr>125</ns3:hr>
            <ns3:cad>0</ns3:cad>
          </ns3:TrackPointExtension>
        </extensions>
      </trkpt>
      <trkpt lat="45.3292631171643733978271484375" lon="-71.05239875614643096923828125">
        <ele>518.79998779296875</ele>
        <time>2026-08-21T22:24:36.000Z</time>
        <extensions>
          <ns3:TrackPointExtension>
            <ns3:hr>125</ns3:hr>
            <ns3:cad>0</ns3:cad>
          </ns3:TrackPointExtension>
        </extensions>
      </trkpt>
      <trkpt lat="45.32925968058407306671142578125" lon="-71.05241342447698116302490234375">
        <ele>519</ele>
        <time>2026-08-21T22:24:37.000Z</time>
        <extensions>
          <ns3:TrackPointExtension>
            <ns3:hr>125</ns3:hr>
            <ns3:cad>0</ns3:cad>
          </ns3:TrackPointExtension>
        </extensions>
      </trkpt>
      <trkpt lat="45.3292537294328212738037109375" lon="-71.05242867954075336456298828125">
        <ele>519</ele>
        <time>2026-08-21T22:24:38.000Z</time>
        <extensions>
          <ns3:TrackPointExtension>
            <ns3:hr>124</ns3:hr>
            <ns3:cad>0</ns3:cad>
          </ns3:TrackPointExtension>
        </extensions>
      </trkpt>
      <trkpt lat="45.32925012521445751190185546875" lon="-71.05244561098515987396240234375">
        <ele>519</ele>
        <time>2026-08-21T22:24:39.000Z</time>
        <extensions>
          <ns3:TrackPointExtension>
            <ns3:hr>124</ns3:hr>
            <ns3:cad>0</ns3:cad>
          </ns3:TrackPointExtension>
        </extensions>
      </trkpt>
      <trkpt lat="45.3292487002909183502197265625" lon="-71.05246891267597675323486328125">
        <ele>519</ele>
        <time>2026-08-21T22:24:40.000Z</time>
        <extensions>
          <ns3:TrackPointExtension>
            <ns3:hr>124</ns3:hr>
            <ns3:cad>0</ns3:cad>
          </ns3:TrackPointExtension>
        </extensions>
      </trkpt>
      <trkpt lat="45.32924476079642772674560546875" lon="-71.0524852573871612548828125">
        <ele>519.20001220703125</ele>
        <time>2026-08-21T22:24:41.000Z</time>
        <extensions>
          <ns3:TrackPointExtension>
            <ns3:hr>124</ns3:hr>
            <ns3:cad>0</ns3:cad>
          </ns3:TrackPointExtension>
        </extensions>
      </trkpt>
      <trkpt lat="45.3292371332645416259765625" lon="-71.05250830762088298797607421875">
        <ele>519.20001220703125</ele>
        <time>2026-08-21T22:24:42.000Z</time>
        <extensions>
          <ns3:TrackPointExtension>
            <ns3:hr>124</ns3:hr>
            <ns3:cad>0</ns3:cad>
          </ns3:TrackPointExtension>
        </extensions>
      </trkpt>
      <trkpt lat="45.329233109951019287109375" lon="-71.05252557434141635894775390625">
        <ele>519.4000244140625</ele>
        <time>2026-08-21T22:24:43.000Z</time>
        <extensions>
          <ns3:TrackPointExtension>
            <ns3:hr>124</ns3:hr>
            <ns3:cad>0</ns3:cad>
          </ns3:TrackPointExtension>
        </extensions>
      </trkpt>
      <trkpt lat="45.32923168502748012542724609375" lon="-71.05254384689033031463623046875">
        <ele>519.4000244140625</ele>
        <time>2026-08-21T22:24:44.000Z</time>
        <extensions>
          <ns3:TrackPointExtension>
            <ns3:hr>126</ns3:hr>
            <ns3:cad>0</ns3:cad>
          </ns3:TrackPointExtension>
        </extensions>
      </trkpt>
      <trkpt lat="45.32923034392297267913818359375" lon="-71.05255608446896076202392578125">
        <ele>519.5999755859375</ele>
        <time>2026-08-21T22:24:45.000Z</time>
        <extensions>
          <ns3:TrackPointExtension>
            <ns3:hr>127</ns3:hr>
            <ns3:cad>0</ns3:cad>
          </ns3:TrackPointExtension>
        </extensions>
      </trkpt>
      <trkpt lat="45.329227410256862640380859375" lon="-71.05256413109600543975830078125">
        <ele>519.79998779296875</ele>
        <time>2026-08-21T22:24:46.000Z</time>
        <extensions>
          <ns3:TrackPointExtension>
            <ns3:hr>127</ns3:hr>
            <ns3:cad>0</ns3:cad>
          </ns3:TrackPointExtension>
        </extensions>
      </trkpt>
      <trkpt lat="45.329222716391086578369140625" lon="-71.0525737702846527099609375">
        <ele>519.79998779296875</ele>
        <time>2026-08-21T22:24:47.000Z</time>
        <extensions>
          <ns3:TrackPointExtension>
            <ns3:hr>127</ns3:hr>
            <ns3:cad>0</ns3:cad>
          </ns3:TrackPointExtension>
        </extensions>
      </trkpt>
      <trkpt lat="45.3292195312678813934326171875" lon="-71.05258525349199771881103515625">
        <ele>519.79998779296875</ele>
        <time>2026-08-21T22:24:48.000Z</time>
        <extensions>
          <ns3:TrackPointExtension>
            <ns3:hr>127</ns3:hr>
            <ns3:cad>0</ns3:cad>
          </ns3:TrackPointExtension>
        </extensions>
      </trkpt>
      <trkpt lat="45.32921911217272281646728515625" lon="-71.052599586546421051025390625">
        <ele>519.79998779296875</ele>
        <time>2026-08-21T22:24:49.000Z</time>
        <extensions>
          <ns3:TrackPointExtension>
            <ns3:hr>128</ns3:hr>
            <ns3:cad>0</ns3:cad>
          </ns3:TrackPointExtension>
        </extensions>
      </trkpt>
      <trkpt lat="45.32921492122113704681396484375" lon="-71.05261928401887416839599609375">
        <ele>519.79998779296875</ele>
        <time>2026-08-21T22:24:50.000Z</time>
        <extensions>
          <ns3:TrackPointExtension>
            <ns3:hr>128</ns3:hr>
            <ns3:cad>0</ns3:cad>
          </ns3:TrackPointExtension>
        </extensions>
      </trkpt>
      <trkpt lat="45.329211317002773284912109375" lon="-71.05263722129166126251220703125">
        <ele>519.79998779296875</ele>
        <time>2026-08-21T22:24:51.000Z</time>
        <extensions>
          <ns3:TrackPointExtension>
            <ns3:hr>127</ns3:hr>
            <ns3:cad>0</ns3:cad>
          </ns3:TrackPointExtension>
        </extensions>
      </trkpt>
      <trkpt lat="45.32921391539275646209716796875" lon="-71.05265499092638492584228515625">
        <ele>519.79998779296875</ele>
        <time>2026-08-21T22:24:52.000Z</time>
        <extensions>
          <ns3:TrackPointExtension>
            <ns3:hr>127</ns3:hr>
            <ns3:cad>0</ns3:cad>
          </ns3:TrackPointExtension>
        </extensions>
      </trkpt>
      <trkpt lat="45.3292208723723888397216796875" lon="-71.05267175473272800445556640625">
        <ele>520</ele>
        <time>2026-08-21T22:24:53.000Z</time>
        <extensions>
          <ns3:TrackPointExtension>
            <ns3:hr>128</ns3:hr>
            <ns3:cad>47</ns3:cad>
          </ns3:TrackPointExtension>
        </extensions>
      </trkpt>
      <trkpt lat="45.32922330312430858612060546875" lon="-71.05269505642354488372802734375">
        <ele>520</ele>
        <time>2026-08-21T22:24:54.000Z</time>
        <extensions>
          <ns3:TrackPointExtension>
            <ns3:hr>128</ns3:hr>
            <ns3:cad>47</ns3:cad>
          </ns3:TrackPointExtension>
        </extensions>
      </trkpt>
      <trkpt lat="45.329225063323974609375" lon="-71.05271391570568084716796875">
        <ele>520</ele>
        <time>2026-08-21T22:24:55.000Z</time>
        <extensions>
          <ns3:TrackPointExtension>
            <ns3:hr>128</ns3:hr>
            <ns3:cad>47</ns3:cad>
          </ns3:TrackPointExtension>
        </extensions>
      </trkpt>
      <trkpt lat="45.32922799699008464813232421875" lon="-71.0527271591126918792724609375">
        <ele>520.20001220703125</ele>
        <time>2026-08-21T22:24:56.000Z</time>
        <extensions>
          <ns3:TrackPointExtension>
            <ns3:hr>127</ns3:hr>
            <ns3:cad>46</ns3:cad>
          </ns3:TrackPointExtension>
        </extensions>
      </trkpt>
      <trkpt lat="45.3292242251336574554443359375" lon="-71.0527439229190349578857421875">
        <ele>520.20001220703125</ele>
        <time>2026-08-21T22:24:57.000Z</time>
        <extensions>
          <ns3:TrackPointExtension>
            <ns3:hr>127</ns3:hr>
            <ns3:cad>46</ns3:cad>
          </ns3:TrackPointExtension>
        </extensions>
      </trkpt>
      <trkpt lat="45.32921969890594482421875" lon="-71.0527590103447437286376953125">
        <ele>520.20001220703125</ele>
        <time>2026-08-21T22:24:58.000Z</time>
        <extensions>
          <ns3:TrackPointExtension>
            <ns3:hr>127</ns3:hr>
            <ns3:cad>0</ns3:cad>
          </ns3:TrackPointExtension>
        </extensions>
      </trkpt>
      <trkpt lat="45.32921542413532733917236328125" lon="-71.0527677275240421295166015625">
        <ele>520.4000244140625</ele>
        <time>2026-08-21T22:24:59.000Z</time>
        <extensions>
          <ns3:TrackPointExtension>
            <ns3:hr>126</ns3:hr>
            <ns3:cad>0</ns3:cad>
          </ns3:TrackPointExtension>
        </extensions>
      </trkpt>
      <trkpt lat="45.32920838333666324615478515625" lon="-71.0527861677110195159912109375">
        <ele>520.5999755859375</ele>
        <time>2026-08-21T22:25:00.000Z</time>
        <extensions>
          <ns3:TrackPointExtension>
            <ns3:hr>126</ns3:hr>
            <ns3:cad>0</ns3:cad>
          </ns3:TrackPointExtension>
        </extensions>
      </trkpt>
      <trkpt lat="45.32920301891863346099853515625" lon="-71.05280703864991664886474609375">
        <ele>520.79998779296875</ele>
        <time>2026-08-21T22:25:01.000Z</time>
        <extensions>
          <ns3:TrackPointExtension>
            <ns3:hr>126</ns3:hr>
            <ns3:cad>102</ns3:cad>
          </ns3:TrackPointExtension>
        </extensions>
      </trkpt>
      <trkpt lat="45.32919648103415966033935546875" lon="-71.0528347827494144439697265625">
        <ele>521</ele>
        <time>2026-08-21T22:25:02.000Z</time>
        <extensions>
          <ns3:TrackPointExtension>
            <ns3:hr>126</ns3:hr>
            <ns3:cad>102</ns3:cad>
          </ns3:TrackPointExtension>
        </extensions>
      </trkpt>
      <trkpt lat="45.32919446937739849090576171875" lon="-71.0528515465557575225830078125">
        <ele>521.20001220703125</ele>
        <time>2026-08-21T22:25:03.000Z</time>
        <extensions>
          <ns3:TrackPointExtension>
            <ns3:hr>126</ns3:hr>
            <ns3:cad>102</ns3:cad>
          </ns3:TrackPointExtension>
        </extensions>
      </trkpt>
      <trkpt lat="45.32919212244451045989990234375" lon="-71.05287241749465465545654296875">
        <ele>521.4000244140625</ele>
        <time>2026-08-21T22:25:04.000Z</time>
        <extensions>
          <ns3:TrackPointExtension>
            <ns3:hr>126</ns3:hr>
            <ns3:cad>56</ns3:cad>
          </ns3:TrackPointExtension>
        </extensions>
      </trkpt>
      <trkpt lat="45.32918692566454410552978515625" lon="-71.0528874211013317108154296875">
        <ele>521.5999755859375</ele>
        <time>2026-08-21T22:25:05.000Z</time>
        <extensions>
          <ns3:TrackPointExtension>
            <ns3:hr>126</ns3:hr>
            <ns3:cad>56</ns3:cad>
          </ns3:TrackPointExtension>
        </extensions>
      </trkpt>
      <trkpt lat="45.32918189652264118194580078125" lon="-71.0529025085270404815673828125">
        <ele>521.5999755859375</ele>
        <time>2026-08-21T22:25:06.000Z</time>
        <extensions>
          <ns3:TrackPointExtension>
            <ns3:hr>127</ns3:hr>
            <ns3:cad>0</ns3:cad>
          </ns3:TrackPointExtension>
        </extensions>
      </trkpt>
      <trkpt lat="45.32917871139943599700927734375" lon="-71.052918098866939544677734375">
        <ele>521.79998779296875</ele>
        <time>2026-08-21T22:25:07.000Z</time>
        <extensions>
          <ns3:TrackPointExtension>
            <ns3:hr>127</ns3:hr>
            <ns3:cad>0</ns3:cad>
          </ns3:TrackPointExtension>
        </extensions>
      </trkpt>
      <trkpt lat="45.32917879521846771240234375" lon="-71.05292857624590396881103515625">
        <ele>522</ele>
        <time>2026-08-21T22:25:08.000Z</time>
        <extensions>
          <ns3:TrackPointExtension>
            <ns3:hr>127</ns3:hr>
            <ns3:cad>53</ns3:cad>
          </ns3:TrackPointExtension>
        </extensions>
      </trkpt>
      <trkpt lat="45.32917636446654796600341796875" lon="-71.0529504530131816864013671875">
        <ele>522.20001220703125</ele>
        <time>2026-08-21T22:25:09.000Z</time>
        <extensions>
          <ns3:TrackPointExtension>
            <ns3:hr>127</ns3:hr>
            <ns3:cad>53</ns3:cad>
          </ns3:TrackPointExtension>
        </extensions>
      </trkpt>
      <trkpt lat="45.329173766076564788818359375" lon="-71.05297149159014225006103515625">
        <ele>522.4000244140625</ele>
        <time>2026-08-21T22:25:10.000Z</time>
        <extensions>
          <ns3:TrackPointExtension>
            <ns3:hr>126</ns3:hr>
            <ns3:cad>53</ns3:cad>
          </ns3:TrackPointExtension>
        </extensions>
      </trkpt>
      <trkpt lat="45.32917485572397708892822265625" lon="-71.05299152433872222900390625">
        <ele>522.4000244140625</ele>
        <time>2026-08-21T22:25:11.000Z</time>
        <extensions>
          <ns3:TrackPointExtension>
            <ns3:hr>127</ns3:hr>
            <ns3:cad>52</ns3:cad>
          </ns3:TrackPointExtension>
        </extensions>
      </trkpt>
      <trkpt lat="45.3291746042668819427490234375" lon="-71.05300937779247760772705078125">
        <ele>522.5999755859375</ele>
        <time>2026-08-21T22:25:12.000Z</time>
        <extensions>
          <ns3:TrackPointExtension>
            <ns3:hr>127</ns3:hr>
            <ns3:cad>52</ns3:cad>
          </ns3:TrackPointExtension>
        </extensions>
      </trkpt>
      <trkpt lat="45.3291746042668819427490234375" lon="-71.0530342720448970794677734375">
        <ele>522.5999755859375</ele>
        <time>2026-08-21T22:25:13.000Z</time>
        <extensions>
          <ns3:TrackPointExtension>
            <ns3:hr>127</ns3:hr>
            <ns3:cad>52</ns3:cad>
          </ns3:TrackPointExtension>
        </extensions>
      </trkpt>
      <trkpt lat="45.32917301170527935028076171875" lon="-71.05305531062185764312744140625">
        <ele>522.5999755859375</ele>
        <time>2026-08-21T22:25:14.000Z</time>
        <extensions>
          <ns3:TrackPointExtension>
            <ns3:hr>128</ns3:hr>
            <ns3:cad>52</ns3:cad>
          </ns3:TrackPointExtension>
        </extensions>
      </trkpt>
      <trkpt lat="45.329172424972057342529296875" lon="-71.05307894758880138397216796875">
        <ele>522.79998779296875</ele>
        <time>2026-08-21T22:25:15.000Z</time>
        <extensions>
          <ns3:TrackPointExtension>
            <ns3:hr>128</ns3:hr>
            <ns3:cad>52</ns3:cad>
          </ns3:TrackPointExtension>
        </extensions>
      </trkpt>
      <trkpt lat="45.3291776217520236968994140625" lon="-71.0531048476696014404296875">
        <ele>522.79998779296875</ele>
        <time>2026-08-21T22:25:16.000Z</time>
        <extensions>
          <ns3:TrackPointExtension>
            <ns3:hr>128</ns3:hr>
            <ns3:cad>52</ns3:cad>
          </ns3:TrackPointExtension>
        </extensions>
      </trkpt>
      <trkpt lat="45.3291769511997699737548828125" lon="-71.05312169529497623443603515625">
        <ele>522.79998779296875</ele>
        <time>2026-08-21T22:25:17.000Z</time>
        <extensions>
          <ns3:TrackPointExtension>
            <ns3:hr>128</ns3:hr>
            <ns3:cad>52</ns3:cad>
          </ns3:TrackPointExtension>
        </extensions>
      </trkpt>
      <trkpt lat="45.329176448285579681396484375" lon="-71.05313695035874843597412109375">
        <ele>522.79998779296875</ele>
        <time>2026-08-21T22:25:18.000Z</time>
        <extensions>
          <ns3:TrackPointExtension>
            <ns3:hr>128</ns3:hr>
            <ns3:cad>52</ns3:cad>
          </ns3:TrackPointExtension>
        </extensions>
      </trkpt>
      <trkpt lat="45.32917753793299198150634765625" lon="-71.053155474364757537841796875">
        <ele>522.79998779296875</ele>
        <time>2026-08-21T22:25:19.000Z</time>
        <extensions>
          <ns3:TrackPointExtension>
            <ns3:hr>129</ns3:hr>
            <ns3:cad>52</ns3:cad>
          </ns3:TrackPointExtension>
        </extensions>
      </trkpt>
      <trkpt lat="45.32918005250394344329833984375" lon="-71.05317433364689350128173828125">
        <ele>522.5999755859375</ele>
        <time>2026-08-21T22:25:20.000Z</time>
        <extensions>
          <ns3:TrackPointExtension>
            <ns3:hr>128</ns3:hr>
            <ns3:cad>52</ns3:cad>
          </ns3:TrackPointExtension>
        </extensions>
      </trkpt>
      <trkpt lat="45.32918089069426059722900390625" lon="-71.0531868226826190948486328125">
        <ele>522.5999755859375</ele>
        <time>2026-08-21T22:25:21.000Z</time>
        <extensions>
          <ns3:TrackPointExtension>
            <ns3:hr>128</ns3:hr>
            <ns3:cad>52</ns3:cad>
          </ns3:TrackPointExtension>
        </extensions>
      </trkpt>
      <trkpt lat="45.3291796334087848663330078125" lon="-71.05320635251700878143310546875">
        <ele>522.4000244140625</ele>
        <time>2026-08-21T22:25:22.000Z</time>
        <extensions>
          <ns3:TrackPointExtension>
            <ns3:hr>128</ns3:hr>
            <ns3:cad>52</ns3:cad>
          </ns3:TrackPointExtension>
        </extensions>
      </trkpt>
      <trkpt lat="45.32917837612330913543701171875" lon="-71.0532267205417156219482421875">
        <ele>522.4000244140625</ele>
        <time>2026-08-21T22:25:23.000Z</time>
        <extensions>
          <ns3:TrackPointExtension>
            <ns3:hr>129</ns3:hr>
            <ns3:cad>52</ns3:cad>
          </ns3:TrackPointExtension>
        </extensions>
      </trkpt>
      <trkpt lat="45.32917737029492855072021484375" lon="-71.05325329117476940155029296875">
        <ele>522.4000244140625</ele>
        <time>2026-08-21T22:25:24.000Z</time>
        <extensions>
          <ns3:TrackPointExtension>
            <ns3:hr>128</ns3:hr>
            <ns3:cad>52</ns3:cad>
          </ns3:TrackPointExtension>
        </extensions>
      </trkpt>
      <trkpt lat="45.3291759453713893890380859375" lon="-71.0532723180949687957763671875">
        <ele>522.20001220703125</ele>
        <time>2026-08-21T22:25:25.000Z</time>
        <extensions>
          <ns3:TrackPointExtension>
            <ns3:hr>128</ns3:hr>
            <ns3:cad>52</ns3:cad>
          </ns3:TrackPointExtension>
        </extensions>
      </trkpt>
      <trkpt lat="45.32917535863816738128662109375" lon="-71.05329000391066074371337890625">
        <ele>522.20001220703125</ele>
        <time>2026-08-21T22:25:26.000Z</time>
        <extensions>
          <ns3:TrackPointExtension>
            <ns3:hr>128</ns3:hr>
            <ns3:cad>52</ns3:cad>
          </ns3:TrackPointExtension>
        </extensions>
      </trkpt>
      <trkpt lat="45.32917804084718227386474609375" lon="-71.0533162392675876617431640625">
        <ele>522.20001220703125</ele>
        <time>2026-08-21T22:25:27.000Z</time>
        <extensions>
          <ns3:TrackPointExtension>
            <ns3:hr>128</ns3:hr>
            <ns3:cad>61</ns3:cad>
          </ns3:TrackPointExtension>
        </extensions>
      </trkpt>
      <trkpt lat="45.3291766159236431121826171875" lon="-71.05333358980715274810791015625">
        <ele>522</ele>
        <time>2026-08-21T22:25:28.000Z</time>
        <extensions>
          <ns3:TrackPointExtension>
            <ns3:hr>128</ns3:hr>
            <ns3:cad>61</ns3:cad>
          </ns3:TrackPointExtension>
        </extensions>
      </trkpt>
      <trkpt lat="45.3291729278862476348876953125" lon="-71.05335169471800327301025390625">
        <ele>522</ele>
        <time>2026-08-21T22:25:29.000Z</time>
        <extensions>
          <ns3:TrackPointExtension>
            <ns3:hr>128</ns3:hr>
            <ns3:cad>61</ns3:cad>
          </ns3:TrackPointExtension>
        </extensions>
      </trkpt>
      <trkpt lat="45.3291709162294864654541015625" lon="-71.0533725656569004058837890625">
        <ele>522.20001220703125</ele>
        <time>2026-08-21T22:25:30.000Z</time>
        <extensions>
          <ns3:TrackPointExtension>
            <ns3:hr>128</ns3:hr>
            <ns3:cad>61</ns3:cad>
          </ns3:TrackPointExtension>
        </extensions>
      </trkpt>
      <trkpt lat="45.32917452044785022735595703125" lon="-71.053389497101306915283203125">
        <ele>522.20001220703125</ele>
        <time>2026-08-21T22:25:31.000Z</time>
        <extensions>
          <ns3:TrackPointExtension>
            <ns3:hr>128</ns3:hr>
            <ns3:cad>61</ns3:cad>
          </ns3:TrackPointExtension>
        </extensions>
      </trkpt>
      <trkpt lat="45.32916932366788387298583984375" lon="-71.05340684764087200164794921875">
        <ele>522.20001220703125</ele>
        <time>2026-08-21T22:25:32.000Z</time>
        <extensions>
          <ns3:TrackPointExtension>
            <ns3:hr>129</ns3:hr>
            <ns3:cad>61</ns3:cad>
          </ns3:TrackPointExtension>
        </extensions>
      </trkpt>
      <trkpt lat="45.3291595168411731719970703125" lon="-71.05342201888561248779296875">
        <ele>522.20001220703125</ele>
        <time>2026-08-21T22:25:33.000Z</time>
        <extensions>
          <ns3:TrackPointExtension>
            <ns3:hr>129</ns3:hr>
            <ns3:cad>61</ns3:cad>
          </ns3:TrackPointExtension>
        </extensions>
      </trkpt>
      <trkpt lat="45.329151637852191925048828125" lon="-71.05343006551265716552734375">
        <ele>522.20001220703125</ele>
        <time>2026-08-21T22:25:34.000Z</time>
        <extensions>
          <ns3:TrackPointExtension>
            <ns3:hr>129</ns3:hr>
            <ns3:cad>61</ns3:cad>
          </ns3:TrackPointExtension>
        </extensions>
      </trkpt>
      <trkpt lat="45.32914166338741779327392578125" lon="-71.0534379445016384124755859375">
        <ele>522.4000244140625</ele>
        <time>2026-08-21T22:25:35.000Z</time>
        <extensions>
          <ns3:TrackPointExtension>
            <ns3:hr>129</ns3:hr>
            <ns3:cad>65</ns3:cad>
          </ns3:TrackPointExtension>
        </extensions>
      </trkpt>
      <trkpt lat="45.3291347064077854156494140625" lon="-71.05345076881349086761474609375">
        <ele>522.4000244140625</ele>
        <time>2026-08-21T22:25:36.000Z</time>
        <extensions>
          <ns3:TrackPointExtension>
            <ns3:hr>129</ns3:hr>
            <ns3:cad>65</ns3:cad>
          </ns3:TrackPointExtension>
        </extensions>
      </trkpt>
      <trkpt lat="45.3291293419897556304931640625" lon="-71.05346267111599445343017578125">
        <ele>522.5999755859375</ele>
        <time>2026-08-21T22:25:37.000Z</time>
        <extensions>
          <ns3:TrackPointExtension>
            <ns3:hr>128</ns3:hr>
            <ns3:cad>65</ns3:cad>
          </ns3:TrackPointExtension>
        </extensions>
      </trkpt>
      <trkpt lat="45.32912154681980609893798828125" lon="-71.05347096920013427734375">
        <ele>522.79998779296875</ele>
        <time>2026-08-21T22:25:38.000Z</time>
        <extensions>
          <ns3:TrackPointExtension>
            <ns3:hr>128</ns3:hr>
            <ns3:cad>65</ns3:cad>
          </ns3:TrackPointExtension>
        </extensions>
      </trkpt>
      <trkpt lat="45.32911433838307857513427734375" lon="-71.05347339995205402374267578125">
        <ele>522.79998779296875</ele>
        <time>2026-08-21T22:25:39.000Z</time>
        <extensions>
          <ns3:TrackPointExtension>
            <ns3:hr>128</ns3:hr>
            <ns3:cad>65</ns3:cad>
          </ns3:TrackPointExtension>
        </extensions>
      </trkpt>
      <trkpt lat="45.32910226844251155853271484375" lon="-71.05348295532166957855224609375">
        <ele>523</ele>
        <time>2026-08-21T22:25:40.000Z</time>
        <extensions>
          <ns3:TrackPointExtension>
            <ns3:hr>127</ns3:hr>
            <ns3:cad>65</ns3:cad>
          </ns3:TrackPointExtension>
        </extensions>
      </trkpt>
      <trkpt lat="45.32909137196838855743408203125" lon="-71.0535043291747570037841796875">
        <ele>523.20001220703125</ele>
        <time>2026-08-21T22:25:41.000Z</time>
        <extensions>
          <ns3:TrackPointExtension>
            <ns3:hr>127</ns3:hr>
            <ns3:cad>65</ns3:cad>
          </ns3:TrackPointExtension>
        </extensions>
      </trkpt>
      <trkpt lat="45.32909036614000797271728515625" lon="-71.05352821759879589080810546875">
        <ele>523.4000244140625</ele>
        <time>2026-08-21T22:25:42.000Z</time>
        <extensions>
          <ns3:TrackPointExtension>
            <ns3:hr>127</ns3:hr>
            <ns3:cad>65</ns3:cad>
          </ns3:TrackPointExtension>
        </extensions>
      </trkpt>
      <trkpt lat="45.32908801920711994171142578125" lon="-71.05354984290897846221923828125">
        <ele>523.5999755859375</ele>
        <time>2026-08-21T22:25:43.000Z</time>
        <extensions>
          <ns3:TrackPointExtension>
            <ns3:hr>128</ns3:hr>
            <ns3:cad>65</ns3:cad>
          </ns3:TrackPointExtension>
        </extensions>
      </trkpt>
      <trkpt lat="45.32908516936004161834716796875" lon="-71.053570210933685302734375">
        <ele>523.79998779296875</ele>
        <time>2026-08-21T22:25:44.000Z</time>
        <extensions>
          <ns3:TrackPointExtension>
            <ns3:hr>128</ns3:hr>
            <ns3:cad>0</ns3:cad>
          </ns3:TrackPointExtension>
        </extensions>
      </trkpt>
      <trkpt lat="45.32908625900745391845703125" lon="-71.053586304187774658203125">
        <ele>523.79998779296875</ele>
        <time>2026-08-21T22:25:45.000Z</time>
        <extensions>
          <ns3:TrackPointExtension>
            <ns3:hr>128</ns3:hr>
            <ns3:cad>0</ns3:cad>
          </ns3:TrackPointExtension>
        </extensions>
      </trkpt>
      <trkpt lat="45.32908751629292964935302734375" lon="-71.053606085479259490966796875">
        <ele>523.79998779296875</ele>
        <time>2026-08-21T22:25:46.000Z</time>
        <extensions>
          <ns3:TrackPointExtension>
            <ns3:hr>127</ns3:hr>
            <ns3:cad>0</ns3:cad>
          </ns3:TrackPointExtension>
        </extensions>
      </trkpt>
      <trkpt lat="45.32908433116972446441650390625" lon="-71.05364120565354824066162109375">
        <ele>524</ele>
        <time>2026-08-21T22:25:47.000Z</time>
        <extensions>
          <ns3:TrackPointExtension>
            <ns3:hr>127</ns3:hr>
            <ns3:cad>0</ns3:cad>
          </ns3:TrackPointExtension>
        </extensions>
      </trkpt>
      <trkpt lat="45.32908349297940731048583984375" lon="-71.0536639206111431121826171875">
        <ele>524</ele>
        <time>2026-08-21T22:25:48.000Z</time>
        <extensions>
          <ns3:TrackPointExtension>
            <ns3:hr>127</ns3:hr>
            <ns3:cad>0</ns3:cad>
          </ns3:TrackPointExtension>
        </extensions>
      </trkpt>
      <trkpt lat="45.32907829619944095611572265625" lon="-71.05368428863584995269775390625">
        <ele>524</ele>
        <time>2026-08-21T22:25:49.000Z</time>
        <extensions>
          <ns3:TrackPointExtension>
            <ns3:hr>127</ns3:hr>
            <ns3:cad>0</ns3:cad>
          </ns3:TrackPointExtension>
        </extensions>
      </trkpt>
      <trkpt lat="45.3290750272572040557861328125" lon="-71.0536997951567173004150390625">
        <ele>524</ele>
        <time>2026-08-21T22:25:50.000Z</time>
        <extensions>
          <ns3:TrackPointExtension>
            <ns3:hr>127</ns3:hr>
            <ns3:cad>0</ns3:cad>
          </ns3:TrackPointExtension>
        </extensions>
      </trkpt>
      <trkpt lat="45.3290706686675548553466796875" lon="-71.05372401885688304901123046875">
        <ele>524</ele>
        <time>2026-08-21T22:25:51.000Z</time>
        <extensions>
          <ns3:TrackPointExtension>
            <ns3:hr>127</ns3:hr>
            <ns3:cad>0</ns3:cad>
          </ns3:TrackPointExtension>
        </extensions>
      </trkpt>
      <trkpt lat="45.32906605862081050872802734375" lon="-71.05374966748058795928955078125">
        <ele>524.20001220703125</ele>
        <time>2026-08-21T22:25:52.000Z</time>
        <extensions>
          <ns3:TrackPointExtension>
            <ns3:hr>127</ns3:hr>
            <ns3:cad>0</ns3:cad>
          </ns3:TrackPointExtension>
        </extensions>
      </trkpt>
      <trkpt lat="45.32906522043049335479736328125" lon="-71.05377062223851680755615234375">
        <ele>524.20001220703125</ele>
        <time>2026-08-21T22:25:53.000Z</time>
        <extensions>
          <ns3:TrackPointExtension>
            <ns3:hr>128</ns3:hr>
            <ns3:cad>0</ns3:cad>
          </ns3:TrackPointExtension>
        </extensions>
      </trkpt>
      <trkpt lat="45.3290681540966033935546875" lon="-71.05379325337707996368408203125">
        <ele>524.4000244140625</ele>
        <time>2026-08-21T22:25:54.000Z</time>
        <extensions>
          <ns3:TrackPointExtension>
            <ns3:hr>128</ns3:hr>
            <ns3:cad>0</ns3:cad>
          </ns3:TrackPointExtension>
        </extensions>
      </trkpt>
      <trkpt lat="45.3290713392198085784912109375" lon="-71.05381068773567676544189453125">
        <ele>524.4000244140625</ele>
        <time>2026-08-21T22:25:55.000Z</time>
        <extensions>
          <ns3:TrackPointExtension>
            <ns3:hr>128</ns3:hr>
            <ns3:cad>0</ns3:cad>
          </ns3:TrackPointExtension>
        </extensions>
      </trkpt>
      <trkpt lat="45.32907494343817234039306640625" lon="-71.05382971465587615966796875">
        <ele>524.4000244140625</ele>
        <time>2026-08-21T22:25:56.000Z</time>
        <extensions>
          <ns3:TrackPointExtension>
            <ns3:hr>128</ns3:hr>
            <ns3:cad>0</ns3:cad>
          </ns3:TrackPointExtension>
        </extensions>
      </trkpt>
      <trkpt lat="45.329083241522312164306640625" lon="-71.05384119786322116851806640625">
        <ele>524.4000244140625</ele>
        <time>2026-08-21T22:25:57.000Z</time>
        <extensions>
          <ns3:TrackPointExtension>
            <ns3:hr>128</ns3:hr>
            <ns3:cad>0</ns3:cad>
          </ns3:TrackPointExtension>
        </extensions>
      </trkpt>
      <trkpt lat="45.3290914557874202728271484375" lon="-71.05385896749794483184814453125">
        <ele>524.4000244140625</ele>
        <time>2026-08-21T22:25:58.000Z</time>
        <extensions>
          <ns3:TrackPointExtension>
            <ns3:hr>128</ns3:hr>
            <ns3:cad>0</ns3:cad>
          </ns3:TrackPointExtension>
        </extensions>
      </trkpt>
      <trkpt lat="45.32910260371863842010498046875" lon="-71.05388327501714229583740234375">
        <ele>524.4000244140625</ele>
        <time>2026-08-21T22:25:59.000Z</time>
        <extensions>
          <ns3:TrackPointExtension>
            <ns3:hr>128</ns3:hr>
            <ns3:cad>68</ns3:cad>
          </ns3:TrackPointExtension>
        </extensions>
      </trkpt>
      <trkpt lat="45.3291125781834125518798828125" lon="-71.0539014637470245361328125">
        <ele>524.4000244140625</ele>
        <time>2026-08-21T22:26:00.000Z</time>
        <extensions>
          <ns3:TrackPointExtension>
            <ns3:hr>128</ns3:hr>
            <ns3:cad>68</ns3:cad>
          </ns3:TrackPointExtension>
        </extensions>
      </trkpt>
      <trkpt lat="45.32912121154367923736572265625" lon="-71.0539163835346698760986328125">
        <ele>524.5999755859375</ele>
        <time>2026-08-21T22:26:01.000Z</time>
        <extensions>
          <ns3:TrackPointExtension>
            <ns3:hr>128</ns3:hr>
            <ns3:cad>68</ns3:cad>
          </ns3:TrackPointExtension>
        </extensions>
      </trkpt>
      <trkpt lat="45.32913453876972198486328125" lon="-71.0539401881396770477294921875">
        <ele>524.5999755859375</ele>
        <time>2026-08-21T22:26:02.000Z</time>
        <extensions>
          <ns3:TrackPointExtension>
            <ns3:hr>129</ns3:hr>
            <ns3:cad>68</ns3:cad>
          </ns3:TrackPointExtension>
        </extensions>
      </trkpt>
      <trkpt lat="45.3291394002735614776611328125" lon="-71.05395401827991008758544921875">
        <ele>524.79998779296875</ele>
        <time>2026-08-21T22:26:03.000Z</time>
        <extensions>
          <ns3:TrackPointExtension>
            <ns3:hr>128</ns3:hr>
            <ns3:cad>68</ns3:cad>
          </ns3:TrackPointExtension>
        </extensions>
      </trkpt>
      <trkpt lat="45.329141914844512939453125" lon="-71.0539763979613780975341796875">
        <ele>525.20001220703125</ele>
        <time>2026-08-21T22:26:04.000Z</time>
        <extensions>
          <ns3:TrackPointExtension>
            <ns3:hr>128</ns3:hr>
            <ns3:cad>68</ns3:cad>
          </ns3:TrackPointExtension>
        </extensions>
      </trkpt>
      <trkpt lat="45.32914501614868640899658203125" lon="-71.05399592779576778411865234375">
        <ele>525.4000244140625</ele>
        <time>2026-08-21T22:26:05.000Z</time>
        <extensions>
          <ns3:TrackPointExtension>
            <ns3:hr>128</ns3:hr>
            <ns3:cad>68</ns3:cad>
          </ns3:TrackPointExtension>
        </extensions>
      </trkpt>
      <trkpt lat="45.3291497938334941864013671875" lon="-71.054011099040508270263671875">
        <ele>525.4000244140625</ele>
        <time>2026-08-21T22:26:06.000Z</time>
        <extensions>
          <ns3:TrackPointExtension>
            <ns3:hr>128</ns3:hr>
            <ns3:cad>68</ns3:cad>
          </ns3:TrackPointExtension>
        </extensions>
      </trkpt>
      <trkpt lat="45.32915406860411167144775390625" lon="-71.05402442626655101776123046875">
        <ele>525.4000244140625</ele>
        <time>2026-08-21T22:26:07.000Z</time>
        <extensions>
          <ns3:TrackPointExtension>
            <ns3:hr>128</ns3:hr>
            <ns3:cad>68</ns3:cad>
          </ns3:TrackPointExtension>
        </extensions>
      </trkpt>
      <trkpt lat="45.32915733754634857177734375" lon="-71.05404336936771869659423828125">
        <ele>525.4000244140625</ele>
        <time>2026-08-21T22:26:08.000Z</time>
        <extensions>
          <ns3:TrackPointExtension>
            <ns3:hr>128</ns3:hr>
            <ns3:cad>68</ns3:cad>
          </ns3:TrackPointExtension>
        </extensions>
      </trkpt>
      <trkpt lat="45.3291601873934268951416015625" lon="-71.05406709015369415283203125">
        <ele>525.4000244140625</ele>
        <time>2026-08-21T22:26:09.000Z</time>
        <extensions>
          <ns3:TrackPointExtension>
            <ns3:hr>128</ns3:hr>
            <ns3:cad>68</ns3:cad>
          </ns3:TrackPointExtension>
        </extensions>
      </trkpt>
      <trkpt lat="45.32916245050728321075439453125" lon="-71.05408745817840099334716796875">
        <ele>525.5999755859375</ele>
        <time>2026-08-21T22:26:10.000Z</time>
        <extensions>
          <ns3:TrackPointExtension>
            <ns3:hr>128</ns3:hr>
            <ns3:cad>68</ns3:cad>
          </ns3:TrackPointExtension>
        </extensions>
      </trkpt>
      <trkpt lat="45.32916328869760036468505859375" lon="-71.05410036630928516387939453125">
        <ele>525.5999755859375</ele>
        <time>2026-08-21T22:26:11.000Z</time>
        <extensions>
          <ns3:TrackPointExtension>
            <ns3:hr>127</ns3:hr>
            <ns3:cad>0</ns3:cad>
          </ns3:TrackPointExtension>
        </extensions>
      </trkpt>
      <trkpt lat="45.32916630618274211883544921875" lon="-71.0541071556508541107177734375">
        <ele>525.5999755859375</ele>
        <time>2026-08-21T22:26:12.000Z</time>
        <extensions>
          <ns3:TrackPointExtension>
            <ns3:hr>127</ns3:hr>
            <ns3:cad>0</ns3:cad>
          </ns3:TrackPointExtension>
        </extensions>
      </trkpt>
      <trkpt lat="45.3291642107069492340087890625" lon="-71.0541390068829059600830078125">
        <ele>525.79998779296875</ele>
        <time>2026-08-21T22:26:13.000Z</time>
        <extensions>
          <ns3:TrackPointExtension>
            <ns3:hr>127</ns3:hr>
            <ns3:cad>0</ns3:cad>
          </ns3:TrackPointExtension>
        </extensions>
      </trkpt>
      <trkpt lat="45.3291601873934268951416015625" lon="-71.05416825972497463226318359375">
        <ele>525.79998779296875</ele>
        <time>2026-08-21T22:26:14.000Z</time>
        <extensions>
          <ns3:TrackPointExtension>
            <ns3:hr>127</ns3:hr>
            <ns3:cad>0</ns3:cad>
          </ns3:TrackPointExtension>
        </extensions>
      </trkpt>
      <trkpt lat="45.3291615284979343414306640625" lon="-71.0541936568915843963623046875">
        <ele>525.79998779296875</ele>
        <time>2026-08-21T22:26:15.000Z</time>
        <extensions>
          <ns3:TrackPointExtension>
            <ns3:hr>128</ns3:hr>
            <ns3:cad>0</ns3:cad>
          </ns3:TrackPointExtension>
        </extensions>
      </trkpt>
      <trkpt lat="45.32916001975536346435546875" lon="-71.05421670712530612945556640625">
        <ele>525.79998779296875</ele>
        <time>2026-08-21T22:26:16.000Z</time>
        <extensions>
          <ns3:TrackPointExtension>
            <ns3:hr>128</ns3:hr>
            <ns3:cad>75</ns3:cad>
          </ns3:TrackPointExtension>
        </extensions>
      </trkpt>
      <trkpt lat="45.3291605226695537567138671875" lon="-71.05423313565552234649658203125">
        <ele>525.79998779296875</ele>
        <time>2026-08-21T22:26:17.000Z</time>
        <extensions>
          <ns3:TrackPointExtension>
            <ns3:hr>128</ns3:hr>
            <ns3:cad>75</ns3:cad>
          </ns3:TrackPointExtension>
        </extensions>
      </trkpt>
      <trkpt lat="45.32915909774601459503173828125" lon="-71.0542573593556880950927734375">
        <ele>525.79998779296875</ele>
        <time>2026-08-21T22:26:18.000Z</time>
        <extensions>
          <ns3:TrackPointExtension>
            <ns3:hr>128</ns3:hr>
            <ns3:cad>46</ns3:cad>
          </ns3:TrackPointExtension>
        </extensions>
      </trkpt>
      <trkpt lat="45.32916144467890262603759765625" lon="-71.05428141541779041290283203125">
        <ele>525.79998779296875</ele>
        <time>2026-08-21T22:26:19.000Z</time>
        <extensions>
          <ns3:TrackPointExtension>
            <ns3:hr>128</ns3:hr>
            <ns3:cad>46</ns3:cad>
          </ns3:TrackPointExtension>
        </extensions>
      </trkpt>
      <trkpt lat="45.329163037240505218505859375" lon="-71.05430538766086101531982421875">
        <ele>525.79998779296875</ele>
        <time>2026-08-21T22:26:20.000Z</time>
        <extensions>
          <ns3:TrackPointExtension>
            <ns3:hr>128</ns3:hr>
            <ns3:cad>46</ns3:cad>
          </ns3:TrackPointExtension>
        </extensions>
      </trkpt>
      <trkpt lat="45.32916077412664890289306640625" lon="-71.054321229457855224609375">
        <ele>526</ele>
        <time>2026-08-21T22:26:21.000Z</time>
        <extensions>
          <ns3:TrackPointExtension>
            <ns3:hr>129</ns3:hr>
            <ns3:cad>71</ns3:cad>
          </ns3:TrackPointExtension>
        </extensions>
      </trkpt>
      <trkpt lat="45.32915088348090648651123046875" lon="-71.05433640070259571075439453125">
        <ele>526</ele>
        <time>2026-08-21T22:26:22.000Z</time>
        <extensions>
          <ns3:TrackPointExtension>
            <ns3:hr>129</ns3:hr>
            <ns3:cad>71</ns3:cad>
          </ns3:TrackPointExtension>
        </extensions>
      </trkpt>
      <trkpt lat="45.32914459705352783203125" lon="-71.05435400269925594329833984375">
        <ele>526</ele>
        <time>2026-08-21T22:26:23.000Z</time>
        <extensions>
          <ns3:TrackPointExtension>
            <ns3:hr>129</ns3:hr>
            <ns3:cad>71</ns3:cad>
          </ns3:TrackPointExtension>
        </extensions>
      </trkpt>
      <trkpt lat="45.32914015464484691619873046875" lon="-71.0543693415820598602294921875">
        <ele>526.20001220703125</ele>
        <time>2026-08-21T22:26:24.000Z</time>
        <extensions>
          <ns3:TrackPointExtension>
            <ns3:hr>130</ns3:hr>
            <ns3:cad>71</ns3:cad>
          </ns3:TrackPointExtension>
        </extensions>
      </trkpt>
      <trkpt lat="45.3291373886168003082275390625" lon="-71.05438300408422946929931640625">
        <ele>526.4000244140625</ele>
        <time>2026-08-21T22:26:25.000Z</time>
        <extensions>
          <ns3:TrackPointExtension>
            <ns3:hr>130</ns3:hr>
            <ns3:cad>71</ns3:cad>
          </ns3:TrackPointExtension>
        </extensions>
      </trkpt>
      <trkpt lat="45.3291313536465167999267578125" lon="-71.054401360452175140380859375">
        <ele>526.5999755859375</ele>
        <time>2026-08-21T22:26:26.000Z</time>
        <extensions>
          <ns3:TrackPointExtension>
            <ns3:hr>130</ns3:hr>
            <ns3:cad>71</ns3:cad>
          </ns3:TrackPointExtension>
        </extensions>
      </trkpt>
      <trkpt lat="45.32912557013332843780517578125" lon="-71.05441988445818424224853515625">
        <ele>526.79998779296875</ele>
        <time>2026-08-21T22:26:27.000Z</time>
        <extensions>
          <ns3:TrackPointExtension>
            <ns3:hr>131</ns3:hr>
            <ns3:cad>71</ns3:cad>
          </ns3:TrackPointExtension>
        </extensions>
      </trkpt>
      <trkpt lat="45.32912691123783588409423828125" lon="-71.0544417612254619598388671875">
        <ele>527</ele>
        <time>2026-08-21T22:26:28.000Z</time>
        <extensions>
          <ns3:TrackPointExtension>
            <ns3:hr>131</ns3:hr>
            <ns3:cad>55</ns3:cad>
          </ns3:TrackPointExtension>
        </extensions>
      </trkpt>
      <trkpt lat="45.32912523485720157623291015625" lon="-71.05444905348122119903564453125">
        <ele>527.20001220703125</ele>
        <time>2026-08-21T22:26:29.000Z</time>
        <extensions>
          <ns3:TrackPointExtension>
            <ns3:hr>131</ns3:hr>
            <ns3:cad>55</ns3:cad>
          </ns3:TrackPointExtension>
        </extensions>
      </trkpt>
      <trkpt lat="45.329119451344013214111328125" lon="-71.05446062050759792327880859375">
        <ele>527.5999755859375</ele>
        <time>2026-08-21T22:26:30.000Z</time>
        <extensions>
          <ns3:TrackPointExtension>
            <ns3:hr>132</ns3:hr>
            <ns3:cad>55</ns3:cad>
          </ns3:TrackPointExtension>
        </extensions>
      </trkpt>
      <trkpt lat="45.3291137516498565673828125" lon="-71.054477132856845855712890625">
        <ele>527.79998779296875</ele>
        <time>2026-08-21T22:26:31.000Z</time>
        <extensions>
          <ns3:TrackPointExtension>
            <ns3:hr>132</ns3:hr>
            <ns3:cad>0</ns3:cad>
          </ns3:TrackPointExtension>
        </extensions>
      </trkpt>
      <trkpt lat="45.32910662703216075897216796875" lon="-71.0544920526444911956787109375">
        <ele>528.20001220703125</ele>
        <time>2026-08-21T22:26:32.000Z</time>
        <extensions>
          <ns3:TrackPointExtension>
            <ns3:hr>132</ns3:hr>
            <ns3:cad>0</ns3:cad>
          </ns3:TrackPointExtension>
        </extensions>
      </trkpt>
      <trkpt lat="45.329097993671894073486328125" lon="-71.0545031167566776275634765625">
        <ele>528.4000244140625</ele>
        <time>2026-08-21T22:26:33.000Z</time>
        <extensions>
          <ns3:TrackPointExtension>
            <ns3:hr>132</ns3:hr>
            <ns3:cad>0</ns3:cad>
          </ns3:TrackPointExtension>
        </extensions>
      </trkpt>
      <trkpt lat="45.32909028232097625732421875" lon="-71.05452180840075016021728515625">
        <ele>528.4000244140625</ele>
        <time>2026-08-21T22:26:34.000Z</time>
        <extensions>
          <ns3:TrackPointExtension>
            <ns3:hr>132</ns3:hr>
            <ns3:cad>0</ns3:cad>
          </ns3:TrackPointExtension>
        </extensions>
      </trkpt>
      <trkpt lat="45.32908684574067592620849609375" lon="-71.0545451939105987548828125">
        <ele>528.4000244140625</ele>
        <time>2026-08-21T22:26:35.000Z</time>
        <extensions>
          <ns3:TrackPointExtension>
            <ns3:hr>133</ns3:hr>
            <ns3:cad>0</ns3:cad>
          </ns3:TrackPointExtension>
        </extensions>
      </trkpt>
      <trkpt lat="45.3290810622274875640869140625" lon="-71.0545584373176097869873046875">
        <ele>528.5999755859375</ele>
        <time>2026-08-21T22:26:36.000Z</time>
        <extensions>
          <ns3:TrackPointExtension>
            <ns3:hr>133</ns3:hr>
            <ns3:cad>0</ns3:cad>
          </ns3:TrackPointExtension>
        </extensions>
      </trkpt>
      <trkpt lat="45.329075194895267486572265625" lon="-71.05456941761076450347900390625">
        <ele>528.5999755859375</ele>
        <time>2026-08-21T22:26:37.000Z</time>
        <extensions>
          <ns3:TrackPointExtension>
            <ns3:hr>133</ns3:hr>
            <ns3:cad>0</ns3:cad>
          </ns3:TrackPointExtension>
        </extensions>
      </trkpt>
      <trkpt lat="45.32906522043049335479736328125" lon="-71.05458475649356842041015625">
        <ele>528.5999755859375</ele>
        <time>2026-08-21T22:26:38.000Z</time>
        <extensions>
          <ns3:TrackPointExtension>
            <ns3:hr>134</ns3:hr>
            <ns3:cad>0</ns3:cad>
          </ns3:TrackPointExtension>
        </extensions>
      </trkpt>
      <trkpt lat="45.32905918546020984649658203125" lon="-71.0545966587960720062255859375">
        <ele>528.79998779296875</ele>
        <time>2026-08-21T22:26:39.000Z</time>
        <extensions>
          <ns3:TrackPointExtension>
            <ns3:hr>134</ns3:hr>
            <ns3:cad>0</ns3:cad>
          </ns3:TrackPointExtension>
        </extensions>
      </trkpt>
      <trkpt lat="45.32905348576605319976806640625" lon="-71.054601185023784637451171875">
        <ele>528.79998779296875</ele>
        <time>2026-08-21T22:26:40.000Z</time>
        <extensions>
          <ns3:TrackPointExtension>
            <ns3:hr>134</ns3:hr>
            <ns3:cad>0</ns3:cad>
          </ns3:TrackPointExtension>
        </extensions>
      </trkpt>
      <trkpt lat="45.3290488757193088531494140625" lon="-71.05460143648087978363037109375">
        <ele>529</ele>
        <time>2026-08-21T22:26:41.000Z</time>
        <extensions>
          <ns3:TrackPointExtension>
            <ns3:hr>135</ns3:hr>
            <ns3:cad>0</ns3:cad>
          </ns3:TrackPointExtension>
        </extensions>
      </trkpt>
      <trkpt lat="45.329042337834835052490234375" lon="-71.05461032129824161529541015625">
        <ele>529.20001220703125</ele>
        <time>2026-08-21T22:26:42.000Z</time>
        <extensions>
          <ns3:TrackPointExtension>
            <ns3:hr>135</ns3:hr>
            <ns3:cad>0</ns3:cad>
          </ns3:TrackPointExtension>
        </extensions>
      </trkpt>
      <trkpt lat="45.3290314413607120513916015625" lon="-71.054619960486888885498046875">
        <ele>529.20001220703125</ele>
        <time>2026-08-21T22:26:43.000Z</time>
        <extensions>
          <ns3:TrackPointExtension>
            <ns3:hr>135</ns3:hr>
            <ns3:cad>0</ns3:cad>
          </ns3:TrackPointExtension>
        </extensions>
      </trkpt>
      <trkpt lat="45.32902565784752368927001953125" lon="-71.0546291805803775787353515625">
        <ele>529.20001220703125</ele>
        <time>2026-08-21T22:26:44.000Z</time>
        <extensions>
          <ns3:TrackPointExtension>
            <ns3:hr>134</ns3:hr>
            <ns3:cad>0</ns3:cad>
          </ns3:TrackPointExtension>
        </extensions>
      </trkpt>
      <trkpt lat="45.329018868505954742431640625" lon="-71.0546338744461536407470703125">
        <ele>529.4000244140625</ele>
        <time>2026-08-21T22:26:45.000Z</time>
        <extensions>
          <ns3:TrackPointExtension>
            <ns3:hr>135</ns3:hr>
            <ns3:cad>0</ns3:cad>
          </ns3:TrackPointExtension>
        </extensions>
      </trkpt>
      <trkpt lat="45.32900973223149776458740234375" lon="-71.05464200489223003387451171875">
        <ele>529.4000244140625</ele>
        <time>2026-08-21T22:26:46.000Z</time>
        <extensions>
          <ns3:TrackPointExtension>
            <ns3:hr>135</ns3:hr>
            <ns3:cad>0</ns3:cad>
          </ns3:TrackPointExtension>
        </extensions>
      </trkpt>
      <trkpt lat="45.3289957344532012939453125" lon="-71.0546566732227802276611328125">
        <ele>529.4000244140625</ele>
        <time>2026-08-21T22:26:47.000Z</time>
        <extensions>
          <ns3:TrackPointExtension>
            <ns3:hr>135</ns3:hr>
            <ns3:cad>0</ns3:cad>
          </ns3:TrackPointExtension>
        </extensions>
      </trkpt>
      <trkpt lat="45.32897804863750934600830078125" lon="-71.05466790497303009033203125">
        <ele>529.5999755859375</ele>
        <time>2026-08-21T22:26:48.000Z</time>
        <extensions>
          <ns3:TrackPointExtension>
            <ns3:hr>135</ns3:hr>
            <ns3:cad>0</ns3:cad>
          </ns3:TrackPointExtension>
        </extensions>
      </trkpt>
      <trkpt lat="45.3289680741727352142333984375" lon="-71.0546677373349666595458984375">
        <ele>529.5999755859375</ele>
        <time>2026-08-21T22:26:49.000Z</time>
        <extensions>
          <ns3:TrackPointExtension>
            <ns3:hr>136</ns3:hr>
            <ns3:cad>0</ns3:cad>
          </ns3:TrackPointExtension>
        </extensions>
      </trkpt>
      <trkpt lat="45.3289590217173099517822265625" lon="-71.0546684078872203826904296875">
        <ele>529.79998779296875</ele>
        <time>2026-08-21T22:26:50.000Z</time>
        <extensions>
          <ns3:TrackPointExtension>
            <ns3:hr>136</ns3:hr>
            <ns3:cad>0</ns3:cad>
          </ns3:TrackPointExtension>
        </extensions>
      </trkpt>
      <trkpt lat="45.32894871197640895843505859375" lon="-71.05467402376234531402587890625">
        <ele>530</ele>
        <time>2026-08-21T22:26:51.000Z</time>
        <extensions>
          <ns3:TrackPointExtension>
            <ns3:hr>136</ns3:hr>
            <ns3:cad>0</ns3:cad>
          </ns3:TrackPointExtension>
        </extensions>
      </trkpt>
      <trkpt lat="45.32894167117774486541748046875" lon="-71.054678969085216522216796875">
        <ele>530.20001220703125</ele>
        <time>2026-08-21T22:26:52.000Z</time>
        <extensions>
          <ns3:TrackPointExtension>
            <ns3:hr>136</ns3:hr>
            <ns3:cad>0</ns3:cad>
          </ns3:TrackPointExtension>
        </extensions>
      </trkpt>
      <trkpt lat="45.32893513329327106475830078125" lon="-71.05467938818037509918212890625">
        <ele>530.4000244140625</ele>
        <time>2026-08-21T22:26:53.000Z</time>
        <extensions>
          <ns3:TrackPointExtension>
            <ns3:hr>136</ns3:hr>
            <ns3:cad>0</ns3:cad>
          </ns3:TrackPointExtension>
        </extensions>
      </trkpt>
      <trkpt lat="45.3289238177239894866943359375" lon="-71.05467804707586765289306640625">
        <ele>530.5999755859375</ele>
        <time>2026-08-21T22:26:54.000Z</time>
        <extensions>
          <ns3:TrackPointExtension>
            <ns3:hr>136</ns3:hr>
            <ns3:cad>0</ns3:cad>
          </ns3:TrackPointExtension>
        </extensions>
      </trkpt>
      <trkpt lat="45.3289124183356761932373046875" lon="-71.05467821471393108367919921875">
        <ele>531</ele>
        <time>2026-08-21T22:26:55.000Z</time>
        <extensions>
          <ns3:TrackPointExtension>
            <ns3:hr>136</ns3:hr>
            <ns3:cad>0</ns3:cad>
          </ns3:TrackPointExtension>
        </extensions>
      </trkpt>
      <trkpt lat="45.32890210859477519989013671875" lon="-71.05468324385583400726318359375">
        <ele>531.20001220703125</ele>
        <time>2026-08-21T22:26:56.000Z</time>
        <extensions>
          <ns3:TrackPointExtension>
            <ns3:hr>136</ns3:hr>
            <ns3:cad>0</ns3:cad>
          </ns3:TrackPointExtension>
        </extensions>
      </trkpt>
      <trkpt lat="45.32889448106288909912109375" lon="-71.05467972345650196075439453125">
        <ele>531.5999755859375</ele>
        <time>2026-08-21T22:26:57.000Z</time>
        <extensions>
          <ns3:TrackPointExtension>
            <ns3:hr>137</ns3:hr>
            <ns3:cad>45</ns3:cad>
          </ns3:TrackPointExtension>
        </extensions>
      </trkpt>
      <trkpt lat="45.32889322377741336822509765625" lon="-71.05467435903847217559814453125">
        <ele>532</ele>
        <time>2026-08-21T22:26:58.000Z</time>
        <extensions>
          <ns3:TrackPointExtension>
            <ns3:hr>136</ns3:hr>
            <ns3:cad>45</ns3:cad>
          </ns3:TrackPointExtension>
        </extensions>
      </trkpt>
      <trkpt lat="45.3288785554468631744384765625" lon="-71.0546739399433135986328125">
        <ele>532</ele>
        <time>2026-08-21T22:26:59.000Z</time>
        <extensions>
          <ns3:TrackPointExtension>
            <ns3:hr>136</ns3:hr>
            <ns3:cad>45</ns3:cad>
          </ns3:TrackPointExtension>
        </extensions>
      </trkpt>
      <trkpt lat="45.32886405475437641143798828125" lon="-71.0546727664768695831298828125">
        <ele>532.20001220703125</ele>
        <time>2026-08-21T22:27:00.000Z</time>
        <extensions>
          <ns3:TrackPointExtension>
            <ns3:hr>136</ns3:hr>
            <ns3:cad>0</ns3:cad>
          </ns3:TrackPointExtension>
        </extensions>
      </trkpt>
      <trkpt lat="45.32884963788092136383056640625" lon="-71.05467016808688640594482421875">
        <ele>532.4000244140625</ele>
        <time>2026-08-21T22:27:01.000Z</time>
        <extensions>
          <ns3:TrackPointExtension>
            <ns3:hr>137</ns3:hr>
            <ns3:cad>0</ns3:cad>
          </ns3:TrackPointExtension>
        </extensions>
      </trkpt>
      <trkpt lat="45.32883941195905208587646484375" lon="-71.054668910801410675048828125">
        <ele>532.4000244140625</ele>
        <time>2026-08-21T22:27:02.000Z</time>
        <extensions>
          <ns3:TrackPointExtension>
            <ns3:hr>136</ns3:hr>
            <ns3:cad>0</ns3:cad>
          </ns3:TrackPointExtension>
        </extensions>
      </trkpt>
      <trkpt lat="45.32882734201848506927490234375" lon="-71.0546697489917278289794921875">
        <ele>532.5999755859375</ele>
        <time>2026-08-21T22:27:03.000Z</time>
        <extensions>
          <ns3:TrackPointExtension>
            <ns3:hr>136</ns3:hr>
            <ns3:cad>49</ns3:cad>
          </ns3:TrackPointExtension>
        </extensions>
      </trkpt>
      <trkpt lat="45.328812338411808013916015625" lon="-71.05466924607753753662109375">
        <ele>533</ele>
        <time>2026-08-21T22:27:04.000Z</time>
        <extensions>
          <ns3:TrackPointExtension>
            <ns3:hr>136</ns3:hr>
            <ns3:cad>50</ns3:cad>
          </ns3:TrackPointExtension>
        </extensions>
      </trkpt>
      <trkpt lat="45.3287974186241626739501953125" lon="-71.0546734370291233062744140625">
        <ele>533.20001220703125</ele>
        <time>2026-08-21T22:27:05.000Z</time>
        <extensions>
          <ns3:TrackPointExtension>
            <ns3:hr>137</ns3:hr>
            <ns3:cad>50</ns3:cad>
          </ns3:TrackPointExtension>
        </extensions>
      </trkpt>
      <trkpt lat="45.32877889461815357208251953125" lon="-71.05468039400875568389892578125">
        <ele>533.20001220703125</ele>
        <time>2026-08-21T22:27:06.000Z</time>
        <extensions>
          <ns3:TrackPointExtension>
            <ns3:hr>137</ns3:hr>
            <ns3:cad>50</ns3:cad>
          </ns3:TrackPointExtension>
        </extensions>
      </trkpt>
      <trkpt lat="45.32876179553568363189697265625" lon="-71.054685004055500030517578125">
        <ele>533.4000244140625</ele>
        <time>2026-08-21T22:27:07.000Z</time>
        <extensions>
          <ns3:TrackPointExtension>
            <ns3:hr>137</ns3:hr>
            <ns3:cad>50</ns3:cad>
          </ns3:TrackPointExtension>
        </extensions>
      </trkpt>
      <trkpt lat="45.32874804921448230743408203125" lon="-71.05469380505383014678955078125">
        <ele>533.5999755859375</ele>
        <time>2026-08-21T22:27:08.000Z</time>
        <extensions>
          <ns3:TrackPointExtension>
            <ns3:hr>137</ns3:hr>
            <ns3:cad>50</ns3:cad>
          </ns3:TrackPointExtension>
        </extensions>
      </trkpt>
      <trkpt lat="45.3287374041974544525146484375" lon="-71.054699085652828216552734375">
        <ele>533.79998779296875</ele>
        <time>2026-08-21T22:27:09.000Z</time>
        <extensions>
          <ns3:TrackPointExtension>
            <ns3:hr>137</ns3:hr>
            <ns3:cad>50</ns3:cad>
          </ns3:TrackPointExtension>
        </extensions>
      </trkpt>
      <trkpt lat="45.32872893847525119781494140625" lon="-71.05469447560608386993408203125">
        <ele>534.20001220703125</ele>
        <time>2026-08-21T22:27:10.000Z</time>
        <extensions>
          <ns3:TrackPointExtension>
            <ns3:hr>138</ns3:hr>
            <ns3:cad>50</ns3:cad>
          </ns3:TrackPointExtension>
        </extensions>
      </trkpt>
      <trkpt lat="45.3287152759730815887451171875" lon="-71.05470570735633373260498046875">
        <ele>534.4000244140625</ele>
        <time>2026-08-21T22:27:11.000Z</time>
        <extensions>
          <ns3:TrackPointExtension>
            <ns3:hr>138</ns3:hr>
            <ns3:cad>50</ns3:cad>
          </ns3:TrackPointExtension>
        </extensions>
      </trkpt>
      <trkpt lat="45.32870479859411716461181640625" lon="-71.05472515337169170379638671875">
        <ele>534.5999755859375</ele>
        <time>2026-08-21T22:27:12.000Z</time>
        <extensions>
          <ns3:TrackPointExtension>
            <ns3:hr>138</ns3:hr>
            <ns3:cad>0</ns3:cad>
          </ns3:TrackPointExtension>
        </extensions>
      </trkpt>
      <trkpt lat="45.32869893126189708709716796875" lon="-71.05474074371159076690673828125">
        <ele>534.79998779296875</ele>
        <time>2026-08-21T22:27:13.000Z</time>
        <extensions>
          <ns3:TrackPointExtension>
            <ns3:hr>139</ns3:hr>
            <ns3:cad>0</ns3:cad>
          </ns3:TrackPointExtension>
        </extensions>
      </trkpt>
      <trkpt lat="45.3286948241293430328369140625" lon="-71.05476488359272480010986328125">
        <ele>534.79998779296875</ele>
        <time>2026-08-21T22:27:14.000Z</time>
        <extensions>
          <ns3:TrackPointExtension>
            <ns3:hr>140</ns3:hr>
            <ns3:cad>0</ns3:cad>
          </ns3:TrackPointExtension>
        </extensions>
      </trkpt>
      <trkpt lat="45.328691303730010986328125" lon="-71.05478726327419281005859375">
        <ele>534.79998779296875</ele>
        <time>2026-08-21T22:27:15.000Z</time>
        <extensions>
          <ns3:TrackPointExtension>
            <ns3:hr>140</ns3:hr>
            <ns3:cad>0</ns3:cad>
          </ns3:TrackPointExtension>
        </extensions>
      </trkpt>
      <trkpt lat="45.32868568785488605499267578125" lon="-71.05481274425983428955078125">
        <ele>534.79998779296875</ele>
        <time>2026-08-21T22:27:16.000Z</time>
        <extensions>
          <ns3:TrackPointExtension>
            <ns3:hr>141</ns3:hr>
            <ns3:cad>0</ns3:cad>
          </ns3:TrackPointExtension>
        </extensions>
      </trkpt>
      <trkpt lat="45.32868233509361743927001953125" lon="-71.05483512394130229949951171875">
        <ele>534.79998779296875</ele>
        <time>2026-08-21T22:27:17.000Z</time>
        <extensions>
          <ns3:TrackPointExtension>
            <ns3:hr>141</ns3:hr>
            <ns3:cad>49</ns3:cad>
          </ns3:TrackPointExtension>
        </extensions>
      </trkpt>
      <trkpt lat="45.32867814414203166961669921875" lon="-71.05485356412827968597412109375">
        <ele>535</ele>
        <time>2026-08-21T22:27:18.000Z</time>
        <extensions>
          <ns3:TrackPointExtension>
            <ns3:hr>141</ns3:hr>
            <ns3:cad>49</ns3:cad>
          </ns3:TrackPointExtension>
        </extensions>
      </trkpt>
      <trkpt lat="45.328674204647541046142578125" lon="-71.05487309396266937255859375">
        <ele>535</ele>
        <time>2026-08-21T22:27:19.000Z</time>
        <extensions>
          <ns3:TrackPointExtension>
            <ns3:hr>140</ns3:hr>
            <ns3:cad>49</ns3:cad>
          </ns3:TrackPointExtension>
        </extensions>
      </trkpt>
      <trkpt lat="45.32867210917174816131591796875" lon="-71.05489010922610759735107421875">
        <ele>535</ele>
        <time>2026-08-21T22:27:20.000Z</time>
        <extensions>
          <ns3:TrackPointExtension>
            <ns3:hr>140</ns3:hr>
            <ns3:cad>49</ns3:cad>
          </ns3:TrackPointExtension>
        </extensions>
      </trkpt>
      <trkpt lat="45.32866691239178180694580078125" lon="-71.0549074597656726837158203125">
        <ele>535.20001220703125</ele>
        <time>2026-08-21T22:27:21.000Z</time>
        <extensions>
          <ns3:TrackPointExtension>
            <ns3:hr>140</ns3:hr>
            <ns3:cad>51</ns3:cad>
          </ns3:TrackPointExtension>
        </extensions>
      </trkpt>
      <trkpt lat="45.32866020686924457550048828125" lon="-71.05492816306650638580322265625">
        <ele>535.20001220703125</ele>
        <time>2026-08-21T22:27:22.000Z</time>
        <extensions>
          <ns3:TrackPointExtension>
            <ns3:hr>140</ns3:hr>
            <ns3:cad>52</ns3:cad>
          </ns3:TrackPointExtension>
        </extensions>
      </trkpt>
      <trkpt lat="45.32865853048861026763916015625" lon="-71.05494844727218151092529296875">
        <ele>535.20001220703125</ele>
        <time>2026-08-21T22:27:23.000Z</time>
        <extensions>
          <ns3:TrackPointExtension>
            <ns3:hr>140</ns3:hr>
            <ns3:cad>52</ns3:cad>
          </ns3:TrackPointExtension>
        </extensions>
      </trkpt>
      <trkpt lat="45.3286562673747539520263671875" lon="-71.05496697127819061279296875">
        <ele>535.4000244140625</ele>
        <time>2026-08-21T22:27:24.000Z</time>
        <extensions>
          <ns3:TrackPointExtension>
            <ns3:hr>140</ns3:hr>
            <ns3:cad>52</ns3:cad>
          </ns3:TrackPointExtension>
        </extensions>
      </trkpt>
      <trkpt lat="45.32865400426089763641357421875" lon="-71.05498884804546833038330078125">
        <ele>535.4000244140625</ele>
        <time>2026-08-21T22:27:25.000Z</time>
        <extensions>
          <ns3:TrackPointExtension>
            <ns3:hr>140</ns3:hr>
            <ns3:cad>52</ns3:cad>
          </ns3:TrackPointExtension>
        </extensions>
      </trkpt>
      <trkpt lat="45.328649394214153289794921875" lon="-71.05501030571758747100830078125">
        <ele>535.4000244140625</ele>
        <time>2026-08-21T22:27:26.000Z</time>
        <extensions>
          <ns3:TrackPointExtension>
            <ns3:hr>139</ns3:hr>
            <ns3:cad>52</ns3:cad>
          </ns3:TrackPointExtension>
        </extensions>
      </trkpt>
      <trkpt lat="45.3286488912999629974365234375" lon="-71.05503276921808719635009765625">
        <ele>535.4000244140625</ele>
        <time>2026-08-21T22:27:27.000Z</time>
        <extensions>
          <ns3:TrackPointExtension>
            <ns3:hr>139</ns3:hr>
            <ns3:cad>52</ns3:cad>
          </ns3:TrackPointExtension>
        </extensions>
      </trkpt>
      <trkpt lat="45.32864729873836040496826171875" lon="-71.05505137704312801361083984375">
        <ele>535.4000244140625</ele>
        <time>2026-08-21T22:27:28.000Z</time>
        <extensions>
          <ns3:TrackPointExtension>
            <ns3:hr>139</ns3:hr>
            <ns3:cad>52</ns3:cad>
          </ns3:TrackPointExtension>
        </extensions>
      </trkpt>
      <trkpt lat="45.32864562235772609710693359375" lon="-71.05507425963878631591796875">
        <ele>535.4000244140625</ele>
        <time>2026-08-21T22:27:29.000Z</time>
        <extensions>
          <ns3:TrackPointExtension>
            <ns3:hr>139</ns3:hr>
            <ns3:cad>52</ns3:cad>
          </ns3:TrackPointExtension>
        </extensions>
      </trkpt>
      <trkpt lat="45.3286425210535526275634765625" lon="-71.05509110726416110992431640625">
        <ele>535.4000244140625</ele>
        <time>2026-08-21T22:27:30.000Z</time>
        <extensions>
          <ns3:TrackPointExtension>
            <ns3:hr>139</ns3:hr>
            <ns3:cad>52</ns3:cad>
          </ns3:TrackPointExtension>
        </extensions>
      </trkpt>
      <trkpt lat="45.32863908447325229644775390625" lon="-71.05511390604078769683837890625">
        <ele>535.4000244140625</ele>
        <time>2026-08-21T22:27:31.000Z</time>
        <extensions>
          <ns3:TrackPointExtension>
            <ns3:hr>139</ns3:hr>
            <ns3:cad>52</ns3:cad>
          </ns3:TrackPointExtension>
        </extensions>
      </trkpt>
      <trkpt lat="45.328637659549713134765625" lon="-71.05513754300773143768310546875">
        <ele>535.4000244140625</ele>
        <time>2026-08-21T22:27:32.000Z</time>
        <extensions>
          <ns3:TrackPointExtension>
            <ns3:hr>139</ns3:hr>
            <ns3:cad>52</ns3:cad>
          </ns3:TrackPointExtension>
        </extensions>
      </trkpt>
      <trkpt lat="45.32864076085388660430908203125" lon="-71.05515648610889911651611328125">
        <ele>535.4000244140625</ele>
        <time>2026-08-21T22:27:33.000Z</time>
        <extensions>
          <ns3:TrackPointExtension>
            <ns3:hr>139</ns3:hr>
            <ns3:cad>52</ns3:cad>
          </ns3:TrackPointExtension>
        </extensions>
      </trkpt>
      <trkpt lat="45.32863740809261798858642578125" lon="-71.05518020689487457275390625">
        <ele>535.5999755859375</ele>
        <time>2026-08-21T22:27:34.000Z</time>
        <extensions>
          <ns3:TrackPointExtension>
            <ns3:hr>138</ns3:hr>
            <ns3:cad>56</ns3:cad>
          </ns3:TrackPointExtension>
        </extensions>
      </trkpt>
      <trkpt lat="45.32863740809261798858642578125" lon="-71.0552038438618183135986328125">
        <ele>535.5999755859375</ele>
        <time>2026-08-21T22:27:35.000Z</time>
        <extensions>
          <ns3:TrackPointExtension>
            <ns3:hr>138</ns3:hr>
            <ns3:cad>56</ns3:cad>
          </ns3:TrackPointExtension>
        </extensions>
      </trkpt>
      <trkpt lat="45.32863707281649112701416015625" lon="-71.05522823520004749298095703125">
        <ele>535.4000244140625</ele>
        <time>2026-08-21T22:27:36.000Z</time>
        <extensions>
          <ns3:TrackPointExtension>
            <ns3:hr>138</ns3:hr>
            <ns3:cad>56</ns3:cad>
          </ns3:TrackPointExtension>
        </extensions>
      </trkpt>
      <trkpt lat="45.32863656990230083465576171875" lon="-71.055252961814403533935546875">
        <ele>535.4000244140625</ele>
        <time>2026-08-21T22:27:37.000Z</time>
        <extensions>
          <ns3:TrackPointExtension>
            <ns3:hr>138</ns3:hr>
            <ns3:cad>56</ns3:cad>
          </ns3:TrackPointExtension>
        </extensions>
      </trkpt>
      <trkpt lat="45.32863623462617397308349609375" lon="-71.05527567677199840545654296875">
        <ele>535.4000244140625</ele>
        <time>2026-08-21T22:27:38.000Z</time>
        <extensions>
          <ns3:TrackPointExtension>
            <ns3:hr>137</ns3:hr>
            <ns3:cad>57</ns3:cad>
          </ns3:TrackPointExtension>
        </extensions>
      </trkpt>
      <trkpt lat="45.328637659549713134765625" lon="-71.05529956519603729248046875">
        <ele>535.20001220703125</ele>
        <time>2026-08-21T22:27:39.000Z</time>
        <extensions>
          <ns3:TrackPointExtension>
            <ns3:hr>136</ns3:hr>
            <ns3:cad>57</ns3:cad>
          </ns3:TrackPointExtension>
        </extensions>
      </trkpt>
      <trkpt lat="45.3286390006542205810546875" lon="-71.055322028696537017822265625">
        <ele>535.20001220703125</ele>
        <time>2026-08-21T22:27:40.000Z</time>
        <extensions>
          <ns3:TrackPointExtension>
            <ns3:hr>136</ns3:hr>
            <ns3:cad>57</ns3:cad>
          </ns3:TrackPointExtension>
        </extensions>
      </trkpt>
      <trkpt lat="45.328642688691616058349609375" lon="-71.05534139089286327362060546875">
        <ele>535.20001220703125</ele>
        <time>2026-08-21T22:27:41.000Z</time>
        <extensions>
          <ns3:TrackPointExtension>
            <ns3:hr>136</ns3:hr>
            <ns3:cad>56</ns3:cad>
          </ns3:TrackPointExtension>
        </extensions>
      </trkpt>
      <trkpt lat="45.32864478416740894317626953125" lon="-71.05536301620304584503173828125">
        <ele>535.20001220703125</ele>
        <time>2026-08-21T22:27:42.000Z</time>
        <extensions>
          <ns3:TrackPointExtension>
            <ns3:hr>136</ns3:hr>
            <ns3:cad>56</ns3:cad>
          </ns3:TrackPointExtension>
        </extensions>
      </trkpt>
      <trkpt lat="45.32864679582417011260986328125" lon="-71.055386066436767578125">
        <ele>535.20001220703125</ele>
        <time>2026-08-21T22:27:43.000Z</time>
        <extensions>
          <ns3:TrackPointExtension>
            <ns3:hr>135</ns3:hr>
            <ns3:cad>55</ns3:cad>
          </ns3:TrackPointExtension>
        </extensions>
      </trkpt>
      <trkpt lat="45.32865174114704132080078125" lon="-71.055407188832759857177734375">
        <ele>535.20001220703125</ele>
        <time>2026-08-21T22:27:44.000Z</time>
        <extensions>
          <ns3:TrackPointExtension>
            <ns3:hr>135</ns3:hr>
            <ns3:cad>55</ns3:cad>
          </ns3:TrackPointExtension>
        </extensions>
      </trkpt>
      <trkpt lat="45.32865283079445362091064453125" lon="-71.05542671866714954376220703125">
        <ele>535.4000244140625</ele>
        <time>2026-08-21T22:27:45.000Z</time>
        <extensions>
          <ns3:TrackPointExtension>
            <ns3:hr>134</ns3:hr>
            <ns3:cad>55</ns3:cad>
          </ns3:TrackPointExtension>
        </extensions>
      </trkpt>
      <trkpt lat="45.3286545909941196441650390625" lon="-71.05545337311923503875732421875">
        <ele>535.4000244140625</ele>
        <time>2026-08-21T22:27:46.000Z</time>
        <extensions>
          <ns3:TrackPointExtension>
            <ns3:hr>133</ns3:hr>
            <ns3:cad>54</ns3:cad>
          </ns3:TrackPointExtension>
        </extensions>
      </trkpt>
      <trkpt lat="45.3286586143076419830322265625" lon="-71.0554811172187328338623046875">
        <ele>535.4000244140625</ele>
        <time>2026-08-21T22:27:47.000Z</time>
        <extensions>
          <ns3:TrackPointExtension>
            <ns3:hr>132</ns3:hr>
            <ns3:cad>54</ns3:cad>
          </ns3:TrackPointExtension>
        </extensions>
      </trkpt>
      <trkpt lat="45.3286623023450374603271484375" lon="-71.055501736700534820556640625">
        <ele>535.4000244140625</ele>
        <time>2026-08-21T22:27:48.000Z</time>
        <extensions>
          <ns3:TrackPointExtension>
            <ns3:hr>131</ns3:hr>
            <ns3:cad>54</ns3:cad>
          </ns3:TrackPointExtension>
        </extensions>
      </trkpt>
      <trkpt lat="45.3286649845540523529052734375" lon="-71.0555213503539562225341796875">
        <ele>535.4000244140625</ele>
        <time>2026-08-21T22:27:49.000Z</time>
        <extensions>
          <ns3:TrackPointExtension>
            <ns3:hr>130</ns3:hr>
            <ns3:cad>54</ns3:cad>
          </ns3:TrackPointExtension>
        </extensions>
      </trkpt>
      <trkpt lat="45.32866557128727436065673828125" lon="-71.0555451549589633941650390625">
        <ele>535.20001220703125</ele>
        <time>2026-08-21T22:27:50.000Z</time>
        <extensions>
          <ns3:TrackPointExtension>
            <ns3:hr>130</ns3:hr>
            <ns3:cad>77</ns3:cad>
          </ns3:TrackPointExtension>
        </extensions>
      </trkpt>
      <trkpt lat="45.32867227680981159210205078125" lon="-71.05557491071522235870361328125">
        <ele>535.20001220703125</ele>
        <time>2026-08-21T22:27:51.000Z</time>
        <extensions>
          <ns3:TrackPointExtension>
            <ns3:hr>131</ns3:hr>
            <ns3:cad>77</ns3:cad>
          </ns3:TrackPointExtension>
        </extensions>
      </trkpt>
      <trkpt lat="45.32867579720914363861083984375" lon="-71.05560340918600559234619140625">
        <ele>535.20001220703125</ele>
        <time>2026-08-21T22:27:52.000Z</time>
        <extensions>
          <ns3:TrackPointExtension>
            <ns3:hr>131</ns3:hr>
            <ns3:cad>77</ns3:cad>
          </ns3:TrackPointExtension>
        </extensions>
      </trkpt>
      <trkpt lat="45.32867588102817535400390625" lon="-71.05563442222774028778076171875">
        <ele>535.4000244140625</ele>
        <time>2026-08-21T22:27:53.000Z</time>
        <extensions>
          <ns3:TrackPointExtension>
            <ns3:hr>131</ns3:hr>
            <ns3:cad>76</ns3:cad>
          </ns3:TrackPointExtension>
        </extensions>
      </trkpt>
      <trkpt lat="45.32867697067558765411376953125" lon="-71.05566568672657012939453125">
        <ele>535.4000244140625</ele>
        <time>2026-08-21T22:27:54.000Z</time>
        <extensions>
          <ns3:TrackPointExtension>
            <ns3:hr>131</ns3:hr>
            <ns3:cad>76</ns3:cad>
          </ns3:TrackPointExtension>
        </extensions>
      </trkpt>
      <trkpt lat="45.32867990434169769287109375" lon="-71.05569007806479930877685546875">
        <ele>535.4000244140625</ele>
        <time>2026-08-21T22:27:55.000Z</time>
        <extensions>
          <ns3:TrackPointExtension>
            <ns3:hr>130</ns3:hr>
            <ns3:cad>79</ns3:cad>
          </ns3:TrackPointExtension>
        </extensions>
      </trkpt>
      <trkpt lat="45.328684262931346893310546875" lon="-71.05572469532489776611328125">
        <ele>535.5999755859375</ele>
        <time>2026-08-21T22:27:56.000Z</time>
        <extensions>
          <ns3:TrackPointExtension>
            <ns3:hr>131</ns3:hr>
            <ns3:cad>79</ns3:cad>
          </ns3:TrackPointExtension>
        </extensions>
      </trkpt>
      <trkpt lat="45.32868870534002780914306640625" lon="-71.05575763620436191558837890625">
        <ele>535.5999755859375</ele>
        <time>2026-08-21T22:27:57.000Z</time>
        <extensions>
          <ns3:TrackPointExtension>
            <ns3:hr>132</ns3:hr>
            <ns3:cad>79</ns3:cad>
          </ns3:TrackPointExtension>
        </extensions>
      </trkpt>
      <trkpt lat="45.328694991767406463623046875" lon="-71.05578144080936908721923828125">
        <ele>535.5999755859375</ele>
        <time>2026-08-21T22:27:58.000Z</time>
        <extensions>
          <ns3:TrackPointExtension>
            <ns3:hr>133</ns3:hr>
            <ns3:cad>79</ns3:cad>
          </ns3:TrackPointExtension>
        </extensions>
      </trkpt>
      <trkpt lat="45.3287005238234996795654296875" lon="-71.0558143816888332366943359375">
        <ele>535.5999755859375</ele>
        <time>2026-08-21T22:27:59.000Z</time>
        <extensions>
          <ns3:TrackPointExtension>
            <ns3:hr>132</ns3:hr>
            <ns3:cad>79</ns3:cad>
          </ns3:TrackPointExtension>
        </extensions>
      </trkpt>
      <trkpt lat="45.32870697788894176483154296875" lon="-71.055844724178314208984375">
        <ele>535.5999755859375</ele>
        <time>2026-08-21T22:28:00.000Z</time>
        <extensions>
          <ns3:TrackPointExtension>
            <ns3:hr>131</ns3:hr>
            <ns3:cad>79</ns3:cad>
          </ns3:TrackPointExtension>
        </extensions>
      </trkpt>
      <trkpt lat="45.3287122584879398345947265625" lon="-71.05587422847747802734375">
        <ele>535.79998779296875</ele>
        <time>2026-08-21T22:28:01.000Z</time>
        <extensions>
          <ns3:TrackPointExtension>
            <ns3:hr>130</ns3:hr>
            <ns3:cad>78</ns3:cad>
          </ns3:TrackPointExtension>
        </extensions>
      </trkpt>
      <trkpt lat="45.3287192992866039276123046875" lon="-71.05590398423373699188232421875">
        <ele>536</ele>
        <time>2026-08-21T22:28:02.000Z</time>
        <extensions>
          <ns3:TrackPointExtension>
            <ns3:hr>129</ns3:hr>
            <ns3:cad>78</ns3:cad>
          </ns3:TrackPointExtension>
        </extensions>
      </trkpt>
      <trkpt lat="45.32872441224753856658935546875" lon="-71.05593332089483737945556640625">
        <ele>536.20001220703125</ele>
        <time>2026-08-21T22:28:03.000Z</time>
        <extensions>
          <ns3:TrackPointExtension>
            <ns3:hr>129</ns3:hr>
            <ns3:cad>79</ns3:cad>
          </ns3:TrackPointExtension>
        </extensions>
      </trkpt>
      <trkpt lat="45.32872893847525119781494140625" lon="-71.05596148408949375152587890625">
        <ele>536.20001220703125</ele>
        <time>2026-08-21T22:28:04.000Z</time>
        <extensions>
          <ns3:TrackPointExtension>
            <ns3:hr>128</ns3:hr>
            <ns3:cad>79</ns3:cad>
          </ns3:TrackPointExtension>
        </extensions>
      </trkpt>
      <trkpt lat="45.3287353925406932830810546875" lon="-71.05599769391119480133056640625">
        <ele>536.4000244140625</ele>
        <time>2026-08-21T22:28:05.000Z</time>
        <extensions>
          <ns3:TrackPointExtension>
            <ns3:hr>128</ns3:hr>
            <ns3:cad>79</ns3:cad>
          </ns3:TrackPointExtension>
        </extensions>
      </trkpt>
      <trkpt lat="45.3287424333393573760986328125" lon="-71.05602971278131008148193359375">
        <ele>536.5999755859375</ele>
        <time>2026-08-21T22:28:06.000Z</time>
        <extensions>
          <ns3:TrackPointExtension>
            <ns3:hr>128</ns3:hr>
            <ns3:cad>79</ns3:cad>
          </ns3:TrackPointExtension>
        </extensions>
      </trkpt>
      <trkpt lat="45.32874955795705318450927734375" lon="-71.0560594685375690460205078125">
        <ele>536.79998779296875</ele>
        <time>2026-08-21T22:28:07.000Z</time>
        <extensions>
          <ns3:TrackPointExtension>
            <ns3:hr>128</ns3:hr>
            <ns3:cad>80</ns3:cad>
          </ns3:TrackPointExtension>
        </extensions>
      </trkpt>
      <trkpt lat="45.328755341470241546630859375" lon="-71.0560956783592700958251953125">
        <ele>537</ele>
        <time>2026-08-21T22:28:08.000Z</time>
        <extensions>
          <ns3:TrackPointExtension>
            <ns3:hr>128</ns3:hr>
            <ns3:cad>80</ns3:cad>
          </ns3:TrackPointExtension>
        </extensions>
      </trkpt>
      <trkpt lat="45.32876062206923961639404296875" lon="-71.0561235062777996063232421875">
        <ele>537.20001220703125</ele>
        <time>2026-08-21T22:28:09.000Z</time>
        <extensions>
          <ns3:TrackPointExtension>
            <ns3:hr>128</ns3:hr>
            <ns3:cad>80</ns3:cad>
          </ns3:TrackPointExtension>
        </extensions>
      </trkpt>
      <trkpt lat="45.32876296900212764739990234375" lon="-71.056151501834392547607421875">
        <ele>537.4000244140625</ele>
        <time>2026-08-21T22:28:10.000Z</time>
        <extensions>
          <ns3:TrackPointExtension>
            <ns3:hr>128</ns3:hr>
            <ns3:cad>80</ns3:cad>
          </ns3:TrackPointExtension>
        </extensions>
      </trkpt>
      <trkpt lat="45.3287677466869354248046875" lon="-71.05618712492287158966064453125">
        <ele>537.4000244140625</ele>
        <time>2026-08-21T22:28:11.000Z</time>
        <extensions>
          <ns3:TrackPointExtension>
            <ns3:hr>128</ns3:hr>
            <ns3:cad>80</ns3:cad>
          </ns3:TrackPointExtension>
        </extensions>
      </trkpt>
      <trkpt lat="45.32877939753234386444091796875" lon="-71.0562143661081790924072265625">
        <ele>537.5999755859375</ele>
        <time>2026-08-21T22:28:12.000Z</time>
        <extensions>
          <ns3:TrackPointExtension>
            <ns3:hr>129</ns3:hr>
            <ns3:cad>80</ns3:cad>
          </ns3:TrackPointExtension>
        </extensions>
      </trkpt>
      <trkpt lat="45.32878811471164226531982421875" lon="-71.0562421940267086029052734375">
        <ele>537.5999755859375</ele>
        <time>2026-08-21T22:28:13.000Z</time>
        <extensions>
          <ns3:TrackPointExtension>
            <ns3:hr>129</ns3:hr>
            <ns3:cad>79</ns3:cad>
          </ns3:TrackPointExtension>
        </extensions>
      </trkpt>
      <trkpt lat="45.32879683189094066619873046875" lon="-71.0562723688781261444091796875">
        <ele>537.79998779296875</ele>
        <time>2026-08-21T22:28:14.000Z</time>
        <extensions>
          <ns3:TrackPointExtension>
            <ns3:hr>130</ns3:hr>
            <ns3:cad>79</ns3:cad>
          </ns3:TrackPointExtension>
        </extensions>
      </trkpt>
      <trkpt lat="45.32880756072700023651123046875" lon="-71.05630648322403430938720703125">
        <ele>537.79998779296875</ele>
        <time>2026-08-21T22:28:15.000Z</time>
        <extensions>
          <ns3:TrackPointExtension>
            <ns3:hr>131</ns3:hr>
            <ns3:cad>79</ns3:cad>
          </ns3:TrackPointExtension>
        </extensions>
      </trkpt>
      <trkpt lat="45.32881912775337696075439453125" lon="-71.056331209838390350341796875">
        <ele>538</ele>
        <time>2026-08-21T22:28:16.000Z</time>
        <extensions>
          <ns3:TrackPointExtension>
            <ns3:hr>132</ns3:hr>
            <ns3:cad>79</ns3:cad>
          </ns3:TrackPointExtension>
        </extensions>
      </trkpt>
      <trkpt lat="45.32883186824619770050048828125" lon="-71.05636163614690303802490234375">
        <ele>538</ele>
        <time>2026-08-21T22:28:17.000Z</time>
        <extensions>
          <ns3:TrackPointExtension>
            <ns3:hr>133</ns3:hr>
            <ns3:cad>79</ns3:cad>
          </ns3:TrackPointExtension>
        </extensions>
      </trkpt>
      <trkpt lat="45.32884377054870128631591796875" lon="-71.0563890449702739715576171875">
        <ele>538</ele>
        <time>2026-08-21T22:28:18.000Z</time>
        <extensions>
          <ns3:TrackPointExtension>
            <ns3:hr>133</ns3:hr>
            <ns3:cad>79</ns3:cad>
          </ns3:TrackPointExtension>
        </extensions>
      </trkpt>
      <trkpt lat="45.32885399647057056427001953125" lon="-71.05641729198396205902099609375">
        <ele>538.20001220703125</ele>
        <time>2026-08-21T22:28:19.000Z</time>
        <extensions>
          <ns3:TrackPointExtension>
            <ns3:hr>133</ns3:hr>
            <ns3:cad>79</ns3:cad>
          </ns3:TrackPointExtension>
        </extensions>
      </trkpt>
      <trkpt lat="45.3288641385734081268310546875" lon="-71.0564493946731090545654296875">
        <ele>538.20001220703125</ele>
        <time>2026-08-21T22:28:20.000Z</time>
        <extensions>
          <ns3:TrackPointExtension>
            <ns3:hr>133</ns3:hr>
            <ns3:cad>80</ns3:cad>
          </ns3:TrackPointExtension>
        </extensions>
      </trkpt>
      <trkpt lat="45.32887713052332401275634765625" lon="-71.0564758814871311187744140625">
        <ele>538.4000244140625</ele>
        <time>2026-08-21T22:28:21.000Z</time>
        <extensions>
          <ns3:TrackPointExtension>
            <ns3:hr>133</ns3:hr>
            <ns3:cad>80</ns3:cad>
          </ns3:TrackPointExtension>
        </extensions>
      </trkpt>
      <trkpt lat="45.32888920046389102935791015625" lon="-71.05649926699697971343994140625">
        <ele>538.4000244140625</ele>
        <time>2026-08-21T22:28:22.000Z</time>
        <extensions>
          <ns3:TrackPointExtension>
            <ns3:hr>133</ns3:hr>
            <ns3:cad>80</ns3:cad>
          </ns3:TrackPointExtension>
        </extensions>
      </trkpt>
      <trkpt lat="45.32889808528125286102294921875" lon="-71.05652801692485809326171875">
        <ele>538.5999755859375</ele>
        <time>2026-08-21T22:28:23.000Z</time>
        <extensions>
          <ns3:TrackPointExtension>
            <ns3:hr>133</ns3:hr>
            <ns3:cad>80</ns3:cad>
          </ns3:TrackPointExtension>
        </extensions>
      </trkpt>
      <trkpt lat="45.32890680246055126190185546875" lon="-71.056558191776275634765625">
        <ele>538.5999755859375</ele>
        <time>2026-08-21T22:28:24.000Z</time>
        <extensions>
          <ns3:TrackPointExtension>
            <ns3:hr>132</ns3:hr>
            <ns3:cad>80</ns3:cad>
          </ns3:TrackPointExtension>
        </extensions>
      </trkpt>
      <trkpt lat="45.32891535200178623199462890625" lon="-71.0565836727619171142578125">
        <ele>538.79998779296875</ele>
        <time>2026-08-21T22:28:25.000Z</time>
        <extensions>
          <ns3:TrackPointExtension>
            <ns3:hr>132</ns3:hr>
            <ns3:cad>79</ns3:cad>
          </ns3:TrackPointExtension>
        </extensions>
      </trkpt>
      <trkpt lat="45.3289268352091312408447265625" lon="-71.0566130094230175018310546875">
        <ele>538.79998779296875</ele>
        <time>2026-08-21T22:28:26.000Z</time>
        <extensions>
          <ns3:TrackPointExtension>
            <ns3:hr>132</ns3:hr>
            <ns3:cad>79</ns3:cad>
          </ns3:TrackPointExtension>
        </extensions>
      </trkpt>
      <trkpt lat="45.32893597148358821868896484375" lon="-71.0566413402557373046875">
        <ele>539</ele>
        <time>2026-08-21T22:28:27.000Z</time>
        <extensions>
          <ns3:TrackPointExtension>
            <ns3:hr>132</ns3:hr>
            <ns3:cad>79</ns3:cad>
          </ns3:TrackPointExtension>
        </extensions>
      </trkpt>
      <trkpt lat="45.328943096101284027099609375" lon="-71.05667059309780597686767578125">
        <ele>539</ele>
        <time>2026-08-21T22:28:28.000Z</time>
        <extensions>
          <ns3:TrackPointExtension>
            <ns3:hr>132</ns3:hr>
            <ns3:cad>79</ns3:cad>
          </ns3:TrackPointExtension>
        </extensions>
      </trkpt>
      <trkpt lat="45.3289486281573772430419921875" lon="-71.0567008517682552337646484375">
        <ele>539.20001220703125</ele>
        <time>2026-08-21T22:28:29.000Z</time>
        <extensions>
          <ns3:TrackPointExtension>
            <ns3:hr>133</ns3:hr>
            <ns3:cad>79</ns3:cad>
          </ns3:TrackPointExtension>
        </extensions>
      </trkpt>
      <trkpt lat="45.32895323820412158966064453125" lon="-71.05673027224838733673095703125">
        <ele>539.4000244140625</ele>
        <time>2026-08-21T22:28:30.000Z</time>
        <extensions>
          <ns3:TrackPointExtension>
            <ns3:hr>133</ns3:hr>
            <ns3:cad>79</ns3:cad>
          </ns3:TrackPointExtension>
        </extensions>
      </trkpt>
      <trkpt lat="45.32895910553634166717529296875" lon="-71.056757010519504547119140625">
        <ele>539.5999755859375</ele>
        <time>2026-08-21T22:28:31.000Z</time>
        <extensions>
          <ns3:TrackPointExtension>
            <ns3:hr>134</ns3:hr>
            <ns3:cad>79</ns3:cad>
          </ns3:TrackPointExtension>
        </extensions>
      </trkpt>
      <trkpt lat="45.3289603628218173980712890625" lon="-71.05678894557058811187744140625">
        <ele>539.5999755859375</ele>
        <time>2026-08-21T22:28:32.000Z</time>
        <extensions>
          <ns3:TrackPointExtension>
            <ns3:hr>134</ns3:hr>
            <ns3:cad>79</ns3:cad>
          </ns3:TrackPointExtension>
        </extensions>
      </trkpt>
      <trkpt lat="45.3289613686501979827880859375" lon="-71.0568202100694179534912109375">
        <ele>539.79998779296875</ele>
        <time>2026-08-21T22:28:33.000Z</time>
        <extensions>
          <ns3:TrackPointExtension>
            <ns3:hr>134</ns3:hr>
            <ns3:cad>79</ns3:cad>
          </ns3:TrackPointExtension>
        </extensions>
      </trkpt>
      <trkpt lat="45.328962542116641998291015625" lon="-71.0568500496447086334228515625">
        <ele>540</ele>
        <time>2026-08-21T22:28:34.000Z</time>
        <extensions>
          <ns3:TrackPointExtension>
            <ns3:hr>135</ns3:hr>
            <ns3:cad>80</ns3:cad>
          </ns3:TrackPointExtension>
        </extensions>
      </trkpt>
      <trkpt lat="45.32896094955503940582275390625" lon="-71.0568859241902828216552734375">
        <ele>540</ele>
        <time>2026-08-21T22:28:35.000Z</time>
        <extensions>
          <ns3:TrackPointExtension>
            <ns3:hr>135</ns3:hr>
            <ns3:cad>80</ns3:cad>
          </ns3:TrackPointExtension>
        </extensions>
      </trkpt>
      <trkpt lat="45.32896019518375396728515625" lon="-71.05691827833652496337890625">
        <ele>540.20001220703125</ele>
        <time>2026-08-21T22:28:36.000Z</time>
        <extensions>
          <ns3:TrackPointExtension>
            <ns3:hr>136</ns3:hr>
            <ns3:cad>81</ns3:cad>
          </ns3:TrackPointExtension>
        </extensions>
      </trkpt>
      <trkpt lat="45.32895994372665882110595703125" lon="-71.05694233439862728118896484375">
        <ele>540.20001220703125</ele>
        <time>2026-08-21T22:28:37.000Z</time>
        <extensions>
          <ns3:TrackPointExtension>
            <ns3:hr>136</ns3:hr>
            <ns3:cad>81</ns3:cad>
          </ns3:TrackPointExtension>
        </extensions>
      </trkpt>
      <trkpt lat="45.32895726151764392852783203125" lon="-71.05697485618293285369873046875">
        <ele>540.4000244140625</ele>
        <time>2026-08-21T22:28:38.000Z</time>
        <extensions>
          <ns3:TrackPointExtension>
            <ns3:hr>136</ns3:hr>
            <ns3:cad>81</ns3:cad>
          </ns3:TrackPointExtension>
        </extensions>
      </trkpt>
      <trkpt lat="45.32895491458475589752197265625" lon="-71.05700276792049407958984375">
        <ele>540.4000244140625</ele>
        <time>2026-08-21T22:28:39.000Z</time>
        <extensions>
          <ns3:TrackPointExtension>
            <ns3:hr>136</ns3:hr>
            <ns3:cad>80</ns3:cad>
          </ns3:TrackPointExtension>
        </extensions>
      </trkpt>
      <trkpt lat="45.32894887961447238922119140625" lon="-71.0570361278951168060302734375">
        <ele>540.4000244140625</ele>
        <time>2026-08-21T22:28:40.000Z</time>
        <extensions>
          <ns3:TrackPointExtension>
            <ns3:hr>136</ns3:hr>
            <ns3:cad>80</ns3:cad>
          </ns3:TrackPointExtension>
        </extensions>
      </trkpt>
      <trkpt lat="45.32894468866288661956787109375" lon="-71.05706873349845409393310546875">
        <ele>540.5999755859375</ele>
        <time>2026-08-21T22:28:41.000Z</time>
        <extensions>
          <ns3:TrackPointExtension>
            <ns3:hr>137</ns3:hr>
            <ns3:cad>79</ns3:cad>
          </ns3:TrackPointExtension>
        </extensions>
      </trkpt>
      <trkpt lat="45.32894267700612545013427734375" lon="-71.0570988245308399200439453125">
        <ele>540.79998779296875</ele>
        <time>2026-08-21T22:28:42.000Z</time>
        <extensions>
          <ns3:TrackPointExtension>
            <ns3:hr>137</ns3:hr>
            <ns3:cad>79</ns3:cad>
          </ns3:TrackPointExtension>
        </extensions>
      </trkpt>
      <trkpt lat="45.3289405815303325653076171875" lon="-71.05712371878325939178466796875">
        <ele>541</ele>
        <time>2026-08-21T22:28:43.000Z</time>
        <extensions>
          <ns3:TrackPointExtension>
            <ns3:hr>137</ns3:hr>
            <ns3:cad>79</ns3:cad>
          </ns3:TrackPointExtension>
        </extensions>
      </trkpt>
      <trkpt lat="45.3289358876645565032958984375" lon="-71.05715557001531124114990234375">
        <ele>541</ele>
        <time>2026-08-21T22:28:44.000Z</time>
        <extensions>
          <ns3:TrackPointExtension>
            <ns3:hr>138</ns3:hr>
            <ns3:cad>79</ns3:cad>
          </ns3:TrackPointExtension>
        </extensions>
      </trkpt>
      <trkpt lat="45.3289313614368438720703125" lon="-71.057186834514141082763671875">
        <ele>541.20001220703125</ele>
        <time>2026-08-21T22:28:45.000Z</time>
        <extensions>
          <ns3:TrackPointExtension>
            <ns3:hr>138</ns3:hr>
            <ns3:cad>79</ns3:cad>
          </ns3:TrackPointExtension>
        </extensions>
      </trkpt>
      <trkpt lat="45.32892842777073383331298828125" lon="-71.057212650775909423828125">
        <ele>541.20001220703125</ele>
        <time>2026-08-21T22:28:46.000Z</time>
        <extensions>
          <ns3:TrackPointExtension>
            <ns3:hr>138</ns3:hr>
            <ns3:cad>79</ns3:cad>
          </ns3:TrackPointExtension>
        </extensions>
      </trkpt>
      <trkpt lat="45.328922308981418609619140625" lon="-71.0572476871311664581298828125">
        <ele>541.20001220703125</ele>
        <time>2026-08-21T22:28:47.000Z</time>
        <extensions>
          <ns3:TrackPointExtension>
            <ns3:hr>138</ns3:hr>
            <ns3:cad>79</ns3:cad>
          </ns3:TrackPointExtension>
        </extensions>
      </trkpt>
      <trkpt lat="45.32892272807657718658447265625" lon="-71.05727828107774257659912109375">
        <ele>541.20001220703125</ele>
        <time>2026-08-21T22:28:48.000Z</time>
        <extensions>
          <ns3:TrackPointExtension>
            <ns3:hr>138</ns3:hr>
            <ns3:cad>79</ns3:cad>
          </ns3:TrackPointExtension>
        </extensions>
      </trkpt>
      <trkpt lat="45.32892105169594287872314453125" lon="-71.05730795301496982574462890625">
        <ele>541.4000244140625</ele>
        <time>2026-08-21T22:28:49.000Z</time>
        <extensions>
          <ns3:TrackPointExtension>
            <ns3:hr>138</ns3:hr>
            <ns3:cad>80</ns3:cad>
          </ns3:TrackPointExtension>
        </extensions>
      </trkpt>
      <trkpt lat="45.3289140947163105010986328125" lon="-71.0573465935885906219482421875">
        <ele>541.4000244140625</ele>
        <time>2026-08-21T22:28:50.000Z</time>
        <extensions>
          <ns3:TrackPointExtension>
            <ns3:hr>138</ns3:hr>
            <ns3:cad>80</ns3:cad>
          </ns3:TrackPointExtension>
        </extensions>
      </trkpt>
      <trkpt lat="45.32891116105020046234130859375" lon="-71.0573801212012767791748046875">
        <ele>541.5999755859375</ele>
        <time>2026-08-21T22:28:51.000Z</time>
        <extensions>
          <ns3:TrackPointExtension>
            <ns3:hr>138</ns3:hr>
            <ns3:cad>80</ns3:cad>
          </ns3:TrackPointExtension>
        </extensions>
      </trkpt>
      <trkpt lat="45.32890948466956615447998046875" lon="-71.057412140071392059326171875">
        <ele>541.5999755859375</ele>
        <time>2026-08-21T22:28:52.000Z</time>
        <extensions>
          <ns3:TrackPointExtension>
            <ns3:hr>138</ns3:hr>
            <ns3:cad>80</ns3:cad>
          </ns3:TrackPointExtension>
        </extensions>
      </trkpt>
      <trkpt lat="45.32890764065086841583251953125" lon="-71.0574461705982685089111328125">
        <ele>541.5999755859375</ele>
        <time>2026-08-21T22:28:53.000Z</time>
        <extensions>
          <ns3:TrackPointExtension>
            <ns3:hr>139</ns3:hr>
            <ns3:cad>79</ns3:cad>
          </ns3:TrackPointExtension>
        </extensions>
      </trkpt>
      <trkpt lat="45.32890697009861469268798828125" lon="-71.0574833862483501434326171875">
        <ele>541.5999755859375</ele>
        <time>2026-08-21T22:28:54.000Z</time>
        <extensions>
          <ns3:TrackPointExtension>
            <ns3:hr>139</ns3:hr>
            <ns3:cad>79</ns3:cad>
          </ns3:TrackPointExtension>
        </extensions>
      </trkpt>
      <trkpt lat="45.328908227384090423583984375" lon="-71.05751481838524341583251953125">
        <ele>541.5999755859375</ele>
        <time>2026-08-21T22:28:55.000Z</time>
        <extensions>
          <ns3:TrackPointExtension>
            <ns3:hr>140</ns3:hr>
            <ns3:cad>79</ns3:cad>
          </ns3:TrackPointExtension>
        </extensions>
      </trkpt>
      <trkpt lat="45.3289040364325046539306640625" lon="-71.05754985474050045013427734375">
        <ele>541.5999755859375</ele>
        <time>2026-08-21T22:28:56.000Z</time>
        <extensions>
          <ns3:TrackPointExtension>
            <ns3:hr>140</ns3:hr>
            <ns3:cad>79</ns3:cad>
          </ns3:TrackPointExtension>
        </extensions>
      </trkpt>
      <trkpt lat="45.32890093512833118438720703125" lon="-71.057582795619964599609375">
        <ele>541.5999755859375</ele>
        <time>2026-08-21T22:28:57.000Z</time>
        <extensions>
          <ns3:TrackPointExtension>
            <ns3:hr>140</ns3:hr>
            <ns3:cad>79</ns3:cad>
          </ns3:TrackPointExtension>
        </extensions>
      </trkpt>
      <trkpt lat="45.3289000131189823150634765625" lon="-71.05761104263365268707275390625">
        <ele>541.79998779296875</ele>
        <time>2026-08-21T22:28:58.000Z</time>
        <extensions>
          <ns3:TrackPointExtension>
            <ns3:hr>140</ns3:hr>
            <ns3:cad>81</ns3:cad>
          </ns3:TrackPointExtension>
        </extensions>
      </trkpt>
      <trkpt lat="45.32890177331864833831787109375" lon="-71.05763937346637248992919921875">
        <ele>541.5999755859375</ele>
        <time>2026-08-21T22:28:59.000Z</time>
        <extensions>
          <ns3:TrackPointExtension>
            <ns3:hr>140</ns3:hr>
            <ns3:cad>81</ns3:cad>
          </ns3:TrackPointExtension>
        </extensions>
      </trkpt>
      <trkpt lat="45.3289020247757434844970703125" lon="-71.057660914957523345947265625">
        <ele>541.5999755859375</ele>
        <time>2026-08-21T22:29:00.000Z</time>
        <extensions>
          <ns3:TrackPointExtension>
            <ns3:hr>140</ns3:hr>
            <ns3:cad>81</ns3:cad>
          </ns3:TrackPointExtension>
        </extensions>
      </trkpt>
      <trkpt lat="45.3289006836712360382080078125" lon="-71.0576838813722133636474609375">
        <ele>541.5999755859375</ele>
        <time>2026-08-21T22:29:01.000Z</time>
        <extensions>
          <ns3:TrackPointExtension>
            <ns3:hr>140</ns3:hr>
            <ns3:cad>80</ns3:cad>
          </ns3:TrackPointExtension>
        </extensions>
      </trkpt>
      <trkpt lat="45.3288956545293331146240234375" lon="-71.05770726688206195831298828125">
        <ele>541.5999755859375</ele>
        <time>2026-08-21T22:29:02.000Z</time>
        <extensions>
          <ns3:TrackPointExtension>
            <ns3:hr>140</ns3:hr>
            <ns3:cad>80</ns3:cad>
          </ns3:TrackPointExtension>
        </extensions>
      </trkpt>
      <trkpt lat="45.32889490015804767608642578125" lon="-71.0577301494777202606201171875">
        <ele>541.5999755859375</ele>
        <time>2026-08-21T22:29:03.000Z</time>
        <extensions>
          <ns3:TrackPointExtension>
            <ns3:hr>140</ns3:hr>
            <ns3:cad>80</ns3:cad>
          </ns3:TrackPointExtension>
        </extensions>
      </trkpt>
      <trkpt lat="45.32889640890061855316162109375" lon="-71.05775202624499797821044921875">
        <ele>541.5999755859375</ele>
        <time>2026-08-21T22:29:04.000Z</time>
        <extensions>
          <ns3:TrackPointExtension>
            <ns3:hr>140</ns3:hr>
            <ns3:cad>80</ns3:cad>
          </ns3:TrackPointExtension>
        </extensions>
      </trkpt>
      <trkpt lat="45.32889607362449169158935546875" lon="-71.05777331627905368804931640625">
        <ele>541.5999755859375</ele>
        <time>2026-08-21T22:29:05.000Z</time>
        <extensions>
          <ns3:TrackPointExtension>
            <ns3:hr>140</ns3:hr>
            <ns3:cad>61</ns3:cad>
          </ns3:TrackPointExtension>
        </extensions>
      </trkpt>
      <trkpt lat="45.32889657653868198394775390625" lon="-71.0577933490276336669921875">
        <ele>541.5999755859375</ele>
        <time>2026-08-21T22:29:06.000Z</time>
        <extensions>
          <ns3:TrackPointExtension>
            <ns3:hr>140</ns3:hr>
            <ns3:cad>60</ns3:cad>
          </ns3:TrackPointExtension>
        </extensions>
      </trkpt>
      <trkpt lat="45.32889490015804767608642578125" lon="-71.05781354941427707672119140625">
        <ele>541.5999755859375</ele>
        <time>2026-08-21T22:29:07.000Z</time>
        <extensions>
          <ns3:TrackPointExtension>
            <ns3:hr>139</ns3:hr>
            <ns3:cad>60</ns3:cad>
          </ns3:TrackPointExtension>
        </extensions>
      </trkpt>
      <trkpt lat="45.32889557071030139923095703125" lon="-71.05783584527671337127685546875">
        <ele>541.5999755859375</ele>
        <time>2026-08-21T22:29:08.000Z</time>
        <extensions>
          <ns3:TrackPointExtension>
            <ns3:hr>140</ns3:hr>
            <ns3:cad>59</ns3:cad>
          </ns3:TrackPointExtension>
        </extensions>
      </trkpt>
      <trkpt lat="45.32889171503484249114990234375" lon="-71.05785478837788105010986328125">
        <ele>541.79998779296875</ele>
        <time>2026-08-21T22:29:09.000Z</time>
        <extensions>
          <ns3:TrackPointExtension>
            <ns3:hr>140</ns3:hr>
            <ns3:cad>59</ns3:cad>
          </ns3:TrackPointExtension>
        </extensions>
      </trkpt>
      <trkpt lat="45.32889389432966709136962890625" lon="-71.057874150574207305908203125">
        <ele>541.79998779296875</ele>
        <time>2026-08-21T22:29:10.000Z</time>
        <extensions>
          <ns3:TrackPointExtension>
            <ns3:hr>139</ns3:hr>
            <ns3:cad>57</ns3:cad>
          </ns3:TrackPointExtension>
        </extensions>
      </trkpt>
      <trkpt lat="45.3288938105106353759765625" lon="-71.0578924231231212615966796875">
        <ele>541.79998779296875</ele>
        <time>2026-08-21T22:29:11.000Z</time>
        <extensions>
          <ns3:TrackPointExtension>
            <ns3:hr>139</ns3:hr>
            <ns3:cad>57</ns3:cad>
          </ns3:TrackPointExtension>
        </extensions>
      </trkpt>
      <trkpt lat="45.3288939781486988067626953125" lon="-71.0579111985862255096435546875">
        <ele>541.79998779296875</ele>
        <time>2026-08-21T22:29:12.000Z</time>
        <extensions>
          <ns3:TrackPointExtension>
            <ns3:hr>138</ns3:hr>
            <ns3:cad>57</ns3:cad>
          </ns3:TrackPointExtension>
        </extensions>
      </trkpt>
      <trkpt lat="45.3288943134248256683349609375" lon="-71.057927794754505157470703125">
        <ele>542</ele>
        <time>2026-08-21T22:29:13.000Z</time>
        <extensions>
          <ns3:TrackPointExtension>
            <ns3:hr>138</ns3:hr>
            <ns3:cad>57</ns3:cad>
          </ns3:TrackPointExtension>
        </extensions>
      </trkpt>
      <trkpt lat="45.3288953192532062530517578125" lon="-71.0579453967511653900146484375">
        <ele>542</ele>
        <time>2026-08-21T22:29:14.000Z</time>
        <extensions>
          <ns3:TrackPointExtension>
            <ns3:hr>138</ns3:hr>
            <ns3:cad>57</ns3:cad>
          </ns3:TrackPointExtension>
        </extensions>
      </trkpt>
      <trkpt lat="45.32889590598642826080322265625" lon="-71.0579650104045867919921875">
        <ele>542</ele>
        <time>2026-08-21T22:29:15.000Z</time>
        <extensions>
          <ns3:TrackPointExtension>
            <ns3:hr>137</ns3:hr>
            <ns3:cad>56</ns3:cad>
          </ns3:TrackPointExtension>
        </extensions>
      </trkpt>
      <trkpt lat="45.32889640890061855316162109375" lon="-71.05798437260091304779052734375">
        <ele>542</ele>
        <time>2026-08-21T22:29:16.000Z</time>
        <extensions>
          <ns3:TrackPointExtension>
            <ns3:hr>137</ns3:hr>
            <ns3:cad>56</ns3:cad>
          </ns3:TrackPointExtension>
        </extensions>
      </trkpt>
      <trkpt lat="45.32889758236706256866455078125" lon="-71.0580027289688587188720703125">
        <ele>542</ele>
        <time>2026-08-21T22:29:17.000Z</time>
        <extensions>
          <ns3:TrackPointExtension>
            <ns3:hr>137</ns3:hr>
            <ns3:cad>56</ns3:cad>
          </ns3:TrackPointExtension>
        </extensions>
      </trkpt>
      <trkpt lat="45.3288916312158107757568359375" lon="-71.0580285452306270599365234375">
        <ele>542.20001220703125</ele>
        <time>2026-08-21T22:29:18.000Z</time>
        <extensions>
          <ns3:TrackPointExtension>
            <ns3:hr>138</ns3:hr>
            <ns3:cad>56</ns3:cad>
          </ns3:TrackPointExtension>
        </extensions>
      </trkpt>
      <trkpt lat="45.3288876079022884368896484375" lon="-71.0580526851117610931396484375">
        <ele>542.20001220703125</ele>
        <time>2026-08-21T22:29:19.000Z</time>
        <extensions>
          <ns3:TrackPointExtension>
            <ns3:hr>137</ns3:hr>
            <ns3:cad>56</ns3:cad>
          </ns3:TrackPointExtension>
        </extensions>
      </trkpt>
      <trkpt lat="45.3288866020739078521728515625" lon="-71.0580749809741973876953125">
        <ele>542.4000244140625</ele>
        <time>2026-08-21T22:29:20.000Z</time>
        <extensions>
          <ns3:TrackPointExtension>
            <ns3:hr>137</ns3:hr>
            <ns3:cad>56</ns3:cad>
          </ns3:TrackPointExtension>
        </extensions>
      </trkpt>
      <trkpt lat="45.3288855962455272674560546875" lon="-71.05809953995048999786376953125">
        <ele>542.4000244140625</ele>
        <time>2026-08-21T22:29:21.000Z</time>
        <extensions>
          <ns3:TrackPointExtension>
            <ns3:hr>137</ns3:hr>
            <ns3:cad>57</ns3:cad>
          </ns3:TrackPointExtension>
        </extensions>
      </trkpt>
      <trkpt lat="45.32887847162783145904541015625" lon="-71.05812250636518001556396484375">
        <ele>542.5999755859375</ele>
        <time>2026-08-21T22:29:22.000Z</time>
        <extensions>
          <ns3:TrackPointExtension>
            <ns3:hr>136</ns3:hr>
            <ns3:cad>57</ns3:cad>
          </ns3:TrackPointExtension>
        </extensions>
      </trkpt>
      <trkpt lat="45.3288748674094676971435546875" lon="-71.0581452213227748870849609375">
        <ele>542.79998779296875</ele>
        <time>2026-08-21T22:29:23.000Z</time>
        <extensions>
          <ns3:TrackPointExtension>
            <ns3:hr>136</ns3:hr>
            <ns3:cad>57</ns3:cad>
          </ns3:TrackPointExtension>
        </extensions>
      </trkpt>
      <trkpt lat="45.328874699771404266357421875" lon="-71.0581663437187671661376953125">
        <ele>542.79998779296875</ele>
        <time>2026-08-21T22:29:24.000Z</time>
        <extensions>
          <ns3:TrackPointExtension>
            <ns3:hr>136</ns3:hr>
            <ns3:cad>57</ns3:cad>
          </ns3:TrackPointExtension>
        </extensions>
      </trkpt>
      <trkpt lat="45.328870005905628204345703125" lon="-71.05818939395248889923095703125">
        <ele>542.79998779296875</ele>
        <time>2026-08-21T22:29:25.000Z</time>
        <extensions>
          <ns3:TrackPointExtension>
            <ns3:hr>136</ns3:hr>
            <ns3:cad>56</ns3:cad>
          </ns3:TrackPointExtension>
        </extensions>
      </trkpt>
      <trkpt lat="45.328870676457881927490234375" lon="-71.05821118690073490142822265625">
        <ele>543</ele>
        <time>2026-08-21T22:29:26.000Z</time>
        <extensions>
          <ns3:TrackPointExtension>
            <ns3:hr>135</ns3:hr>
            <ns3:cad>56</ns3:cad>
          </ns3:TrackPointExtension>
        </extensions>
      </trkpt>
      <trkpt lat="45.32886975444853305816650390625" lon="-71.05823297984898090362548828125">
        <ele>543</ele>
        <time>2026-08-21T22:29:27.000Z</time>
        <extensions>
          <ns3:TrackPointExtension>
            <ns3:hr>135</ns3:hr>
            <ns3:cad>57</ns3:cad>
          </ns3:TrackPointExtension>
        </extensions>
      </trkpt>
      <trkpt lat="45.32886631786823272705078125" lon="-71.0582578741014003753662109375">
        <ele>543</ele>
        <time>2026-08-21T22:29:28.000Z</time>
        <extensions>
          <ns3:TrackPointExtension>
            <ns3:hr>134</ns3:hr>
            <ns3:cad>57</ns3:cad>
          </ns3:TrackPointExtension>
        </extensions>
      </trkpt>
      <trkpt lat="45.32886606641113758087158203125" lon="-71.0582800023257732391357421875">
        <ele>543</ele>
        <time>2026-08-21T22:29:29.000Z</time>
        <extensions>
          <ns3:TrackPointExtension>
            <ns3:hr>134</ns3:hr>
            <ns3:cad>57</ns3:cad>
          </ns3:TrackPointExtension>
        </extensions>
      </trkpt>
      <trkpt lat="45.32886154018342494964599609375" lon="-71.05830363929271697998046875">
        <ele>543</ele>
        <time>2026-08-21T22:29:30.000Z</time>
        <extensions>
          <ns3:TrackPointExtension>
            <ns3:hr>134</ns3:hr>
            <ns3:cad>57</ns3:cad>
          </ns3:TrackPointExtension>
        </extensions>
      </trkpt>
      <trkpt lat="45.32885852269828319549560546875" lon="-71.0583252646028995513916015625">
        <ele>543.20001220703125</ele>
        <time>2026-08-21T22:29:31.000Z</time>
        <extensions>
          <ns3:TrackPointExtension>
            <ns3:hr>133</ns3:hr>
            <ns3:cad>57</ns3:cad>
          </ns3:TrackPointExtension>
        </extensions>
      </trkpt>
      <trkpt lat="45.32885801978409290313720703125" lon="-71.058346889913082122802734375">
        <ele>543.20001220703125</ele>
        <time>2026-08-21T22:29:32.000Z</time>
        <extensions>
          <ns3:TrackPointExtension>
            <ns3:hr>133</ns3:hr>
            <ns3:cad>57</ns3:cad>
          </ns3:TrackPointExtension>
        </extensions>
      </trkpt>
      <trkpt lat="45.3288587741553783416748046875" lon="-71.058369018137454986572265625">
        <ele>543.20001220703125</ele>
        <time>2026-08-21T22:29:33.000Z</time>
        <extensions>
          <ns3:TrackPointExtension>
            <ns3:hr>134</ns3:hr>
            <ns3:cad>58</ns3:cad>
          </ns3:TrackPointExtension>
        </extensions>
      </trkpt>
      <trkpt lat="45.3288574330508708953857421875" lon="-71.05838905088603496551513671875">
        <ele>543.20001220703125</ele>
        <time>2026-08-21T22:29:34.000Z</time>
        <extensions>
          <ns3:TrackPointExtension>
            <ns3:hr>134</ns3:hr>
            <ns3:cad>58</ns3:cad>
          </ns3:TrackPointExtension>
        </extensions>
      </trkpt>
      <trkpt lat="45.32885785214602947235107421875" lon="-71.05841084383428096771240234375">
        <ele>543.4000244140625</ele>
        <time>2026-08-21T22:29:35.000Z</time>
        <extensions>
          <ns3:TrackPointExtension>
            <ns3:hr>134</ns3:hr>
            <ns3:cad>58</ns3:cad>
          </ns3:TrackPointExtension>
        </extensions>
      </trkpt>
      <trkpt lat="45.32885600812733173370361328125" lon="-71.05843096040189266204833984375">
        <ele>543.5999755859375</ele>
        <time>2026-08-21T22:29:36.000Z</time>
        <extensions>
          <ns3:TrackPointExtension>
            <ns3:hr>134</ns3:hr>
            <ns3:cad>58</ns3:cad>
          </ns3:TrackPointExtension>
        </extensions>
      </trkpt>
      <trkpt lat="45.3288557566702365875244140625" lon="-71.05845250189304351806640625">
        <ele>543.79998779296875</ele>
        <time>2026-08-21T22:29:37.000Z</time>
        <extensions>
          <ns3:TrackPointExtension>
            <ns3:hr>134</ns3:hr>
            <ns3:cad>59</ns3:cad>
          </ns3:TrackPointExtension>
        </extensions>
      </trkpt>
      <trkpt lat="45.32885567285120487213134765625" lon="-71.05847303755581378936767578125">
        <ele>543.79998779296875</ele>
        <time>2026-08-21T22:29:38.000Z</time>
        <extensions>
          <ns3:TrackPointExtension>
            <ns3:hr>134</ns3:hr>
            <ns3:cad>59</ns3:cad>
          </ns3:TrackPointExtension>
        </extensions>
      </trkpt>
      <trkpt lat="45.32885366119444370269775390625" lon="-71.05849617160856723785400390625">
        <ele>544</ele>
        <time>2026-08-21T22:29:39.000Z</time>
        <extensions>
          <ns3:TrackPointExtension>
            <ns3:hr>134</ns3:hr>
            <ns3:cad>59</ns3:cad>
          </ns3:TrackPointExtension>
        </extensions>
      </trkpt>
      <trkpt lat="45.3288507275283336639404296875" lon="-71.0585187189280986785888671875">
        <ele>544</ele>
        <time>2026-08-21T22:29:40.000Z</time>
        <extensions>
          <ns3:TrackPointExtension>
            <ns3:hr>133</ns3:hr>
            <ns3:cad>59</ns3:cad>
          </ns3:TrackPointExtension>
        </extensions>
      </trkpt>
      <trkpt lat="45.32885014079511165618896484375" lon="-71.0585388354957103729248046875">
        <ele>544</ele>
        <time>2026-08-21T22:29:41.000Z</time>
        <extensions>
          <ns3:TrackPointExtension>
            <ns3:hr>134</ns3:hr>
            <ns3:cad>59</ns3:cad>
          </ns3:TrackPointExtension>
        </extensions>
      </trkpt>
      <trkpt lat="45.3288487158715724945068359375" lon="-71.05855836533010005950927734375">
        <ele>544.20001220703125</ele>
        <time>2026-08-21T22:29:42.000Z</time>
        <extensions>
          <ns3:TrackPointExtension>
            <ns3:hr>134</ns3:hr>
            <ns3:cad>57</ns3:cad>
          </ns3:TrackPointExtension>
        </extensions>
      </trkpt>
      <trkpt lat="45.32884695567190647125244140625" lon="-71.0585810802876949310302734375">
        <ele>544.20001220703125</ele>
        <time>2026-08-21T22:29:43.000Z</time>
        <extensions>
          <ns3:TrackPointExtension>
            <ns3:hr>133</ns3:hr>
            <ns3:cad>57</ns3:cad>
          </ns3:TrackPointExtension>
        </extensions>
      </trkpt>
      <trkpt lat="45.328842513263225555419921875" lon="-71.05860647745430469512939453125">
        <ele>544.20001220703125</ele>
        <time>2026-08-21T22:29:44.000Z</time>
        <extensions>
          <ns3:TrackPointExtension>
            <ns3:hr>133</ns3:hr>
            <ns3:cad>58</ns3:cad>
          </ns3:TrackPointExtension>
        </extensions>
      </trkpt>
      <trkpt lat="45.3288386575877666473388671875" lon="-71.05863153934478759765625">
        <ele>544.20001220703125</ele>
        <time>2026-08-21T22:29:45.000Z</time>
        <extensions>
          <ns3:TrackPointExtension>
            <ns3:hr>132</ns3:hr>
            <ns3:cad>59</ns3:cad>
          </ns3:TrackPointExtension>
        </extensions>
      </trkpt>
      <trkpt lat="45.3288353048264980316162109375" lon="-71.05866313911974430084228515625">
        <ele>544.4000244140625</ele>
        <time>2026-08-21T22:29:46.000Z</time>
        <extensions>
          <ns3:TrackPointExtension>
            <ns3:hr>132</ns3:hr>
            <ns3:cad>59</ns3:cad>
          </ns3:TrackPointExtension>
        </extensions>
      </trkpt>
      <trkpt lat="45.328831784427165985107421875" lon="-71.0586927272379398345947265625">
        <ele>544.5999755859375</ele>
        <time>2026-08-21T22:29:47.000Z</time>
        <extensions>
          <ns3:TrackPointExtension>
            <ns3:hr>132</ns3:hr>
            <ns3:cad>59</ns3:cad>
          </ns3:TrackPointExtension>
        </extensions>
      </trkpt>
      <trkpt lat="45.328826420009136199951171875" lon="-71.05871913023293018341064453125">
        <ele>544.5999755859375</ele>
        <time>2026-08-21T22:29:48.000Z</time>
        <extensions>
          <ns3:TrackPointExtension>
            <ns3:hr>131</ns3:hr>
            <ns3:cad>59</ns3:cad>
          </ns3:TrackPointExtension>
        </extensions>
      </trkpt>
      <trkpt lat="45.328819043934345245361328125" lon="-71.05874888598918914794921875">
        <ele>544.5999755859375</ele>
        <time>2026-08-21T22:29:49.000Z</time>
        <extensions>
          <ns3:TrackPointExtension>
            <ns3:hr>131</ns3:hr>
            <ns3:cad>59</ns3:cad>
          </ns3:TrackPointExtension>
        </extensions>
      </trkpt>
      <trkpt lat="45.32881208695471286773681640625" lon="-71.05877797119319438934326171875">
        <ele>544.79998779296875</ele>
        <time>2026-08-21T22:29:50.000Z</time>
        <extensions>
          <ns3:TrackPointExtension>
            <ns3:hr>130</ns3:hr>
            <ns3:cad>0</ns3:cad>
          </ns3:TrackPointExtension>
        </extensions>
      </trkpt>
      <trkpt lat="45.32880487851798534393310546875" lon="-71.0588047094643115997314453125">
        <ele>544.79998779296875</ele>
        <time>2026-08-21T22:29:51.000Z</time>
        <extensions>
          <ns3:TrackPointExtension>
            <ns3:hr>130</ns3:hr>
            <ns3:cad>0</ns3:cad>
          </ns3:TrackPointExtension>
        </extensions>
      </trkpt>
      <trkpt lat="45.328794233500957489013671875" lon="-71.05883731506764888763427734375">
        <ele>544.79998779296875</ele>
        <time>2026-08-21T22:29:52.000Z</time>
        <extensions>
          <ns3:TrackPointExtension>
            <ns3:hr>130</ns3:hr>
            <ns3:cad>40</ns3:cad>
          </ns3:TrackPointExtension>
        </extensions>
      </trkpt>
      <trkpt lat="45.32878761179745197296142578125" lon="-71.05886128731071949005126953125">
        <ele>544.79998779296875</ele>
        <time>2026-08-21T22:29:53.000Z</time>
        <extensions>
          <ns3:TrackPointExtension>
            <ns3:hr>131</ns3:hr>
            <ns3:cad>40</ns3:cad>
          </ns3:TrackPointExtension>
        </extensions>
      </trkpt>
      <trkpt lat="45.32877922989428043365478515625" lon="-71.05888877995312213897705078125">
        <ele>544.79998779296875</ele>
        <time>2026-08-21T22:29:54.000Z</time>
        <extensions>
          <ns3:TrackPointExtension>
            <ns3:hr>131</ns3:hr>
            <ns3:cad>41</ns3:cad>
          </ns3:TrackPointExtension>
        </extensions>
      </trkpt>
      <trkpt lat="45.3287672437727451324462890625" lon="-71.05891929008066654205322265625">
        <ele>545</ele>
        <time>2026-08-21T22:29:55.000Z</time>
        <extensions>
          <ns3:TrackPointExtension>
            <ns3:hr>130</ns3:hr>
            <ns3:cad>41</ns3:cad>
          </ns3:TrackPointExtension>
        </extensions>
      </trkpt>
      <trkpt lat="45.3287565149366855621337890625" lon="-71.0589458607137203216552734375">
        <ele>545.20001220703125</ele>
        <time>2026-08-21T22:29:56.000Z</time>
        <extensions>
          <ns3:TrackPointExtension>
            <ns3:hr>130</ns3:hr>
            <ns3:cad>41</ns3:cad>
          </ns3:TrackPointExtension>
        </extensions>
      </trkpt>
      <trkpt lat="45.32874670810997486114501953125" lon="-71.05897285044193267822265625">
        <ele>545.20001220703125</ele>
        <time>2026-08-21T22:29:57.000Z</time>
        <extensions>
          <ns3:TrackPointExtension>
            <ns3:hr>130</ns3:hr>
            <ns3:cad>81</ns3:cad>
          </ns3:TrackPointExtension>
        </extensions>
      </trkpt>
      <trkpt lat="45.3287355601787567138671875" lon="-71.05899724178016185760498046875">
        <ele>545.20001220703125</ele>
        <time>2026-08-21T22:29:58.000Z</time>
        <extensions>
          <ns3:TrackPointExtension>
            <ns3:hr>131</ns3:hr>
            <ns3:cad>81</ns3:cad>
          </ns3:TrackPointExtension>
        </extensions>
      </trkpt>
      <trkpt lat="45.32872223295271396636962890625" lon="-71.05902356095612049102783203125">
        <ele>545.20001220703125</ele>
        <time>2026-08-21T22:29:59.000Z</time>
        <extensions>
          <ns3:TrackPointExtension>
            <ns3:hr>131</ns3:hr>
            <ns3:cad>80</ns3:cad>
          </ns3:TrackPointExtension>
        </extensions>
      </trkpt>
      <trkpt lat="45.3287058882415294647216796875" lon="-71.05904954485595226287841796875">
        <ele>545.4000244140625</ele>
        <time>2026-08-21T22:30:00.000Z</time>
        <extensions>
          <ns3:TrackPointExtension>
            <ns3:hr>132</ns3:hr>
            <ns3:cad>80</ns3:cad>
          </ns3:TrackPointExtension>
        </extensions>
      </trkpt>
      <trkpt lat="45.32868887297809123992919921875" lon="-71.05907737277448177337646484375">
        <ele>545.5999755859375</ele>
        <time>2026-08-21T22:30:01.000Z</time>
        <extensions>
          <ns3:TrackPointExtension>
            <ns3:hr>132</ns3:hr>
            <ns3:cad>80</ns3:cad>
          </ns3:TrackPointExtension>
        </extensions>
      </trkpt>
      <trkpt lat="45.328676216304302215576171875" lon="-71.05910360813140869140625">
        <ele>545.79998779296875</ele>
        <time>2026-08-21T22:30:02.000Z</time>
        <extensions>
          <ns3:TrackPointExtension>
            <ns3:hr>132</ns3:hr>
            <ns3:cad>81</ns3:cad>
          </ns3:TrackPointExtension>
        </extensions>
      </trkpt>
      <trkpt lat="45.32866288907825946807861328125" lon="-71.0591312684118747711181640625">
        <ele>545.79998779296875</ele>
        <time>2026-08-21T22:30:03.000Z</time>
        <extensions>
          <ns3:TrackPointExtension>
            <ns3:hr>132</ns3:hr>
            <ns3:cad>81</ns3:cad>
          </ns3:TrackPointExtension>
        </extensions>
      </trkpt>
      <trkpt lat="45.328652746975421905517578125" lon="-71.0591607727110385894775390625">
        <ele>546</ele>
        <time>2026-08-21T22:30:04.000Z</time>
        <extensions>
          <ns3:TrackPointExtension>
            <ns3:hr>133</ns3:hr>
            <ns3:cad>81</ns3:cad>
          </ns3:TrackPointExtension>
        </extensions>
      </trkpt>
      <trkpt lat="45.32864327542483806610107421875" lon="-71.05919287540018558502197265625">
        <ele>546</ele>
        <time>2026-08-21T22:30:05.000Z</time>
        <extensions>
          <ns3:TrackPointExtension>
            <ns3:hr>132</ns3:hr>
            <ns3:cad>81</ns3:cad>
          </ns3:TrackPointExtension>
        </extensions>
      </trkpt>
      <trkpt lat="45.3286338038742542266845703125" lon="-71.0592217929661273956298828125">
        <ele>546</ele>
        <time>2026-08-21T22:30:06.000Z</time>
        <extensions>
          <ns3:TrackPointExtension>
            <ns3:hr>132</ns3:hr>
            <ns3:cad>81</ns3:cad>
          </ns3:TrackPointExtension>
        </extensions>
      </trkpt>
      <trkpt lat="45.3286255896091461181640625" lon="-71.05925221927464008331298828125">
        <ele>546</ele>
        <time>2026-08-21T22:30:07.000Z</time>
        <extensions>
          <ns3:TrackPointExtension>
            <ns3:hr>132</ns3:hr>
            <ns3:cad>81</ns3:cad>
          </ns3:TrackPointExtension>
        </extensions>
      </trkpt>
      <trkpt lat="45.32862818799912929534912109375" lon="-71.0592915304005146026611328125">
        <ele>546</ele>
        <time>2026-08-21T22:30:08.000Z</time>
        <extensions>
          <ns3:TrackPointExtension>
            <ns3:hr>132</ns3:hr>
            <ns3:cad>80</ns3:cad>
          </ns3:TrackPointExtension>
        </extensions>
      </trkpt>
      <trkpt lat="45.32862433232367038726806640625" lon="-71.0593206994235515594482421875">
        <ele>546</ele>
        <time>2026-08-21T22:30:09.000Z</time>
        <extensions>
          <ns3:TrackPointExtension>
            <ns3:hr>132</ns3:hr>
            <ns3:cad>80</ns3:cad>
          </ns3:TrackPointExtension>
        </extensions>
      </trkpt>
      <trkpt lat="45.32862097956240177154541015625" lon="-71.05935414321720600128173828125">
        <ele>546</ele>
        <time>2026-08-21T22:30:10.000Z</time>
        <extensions>
          <ns3:TrackPointExtension>
            <ns3:hr>132</ns3:hr>
            <ns3:cad>80</ns3:cad>
          </ns3:TrackPointExtension>
        </extensions>
      </trkpt>
      <trkpt lat="45.32861888408660888671875" lon="-71.05938834138214588165283203125">
        <ele>546</ele>
        <time>2026-08-21T22:30:11.000Z</time>
        <extensions>
          <ns3:TrackPointExtension>
            <ns3:hr>133</ns3:hr>
            <ns3:cad>80</ns3:cad>
          </ns3:TrackPointExtension>
        </extensions>
      </trkpt>
      <trkpt lat="45.3286170400679111480712890625" lon="-71.05941566638648509979248046875">
        <ele>546</ele>
        <time>2026-08-21T22:30:12.000Z</time>
        <extensions>
          <ns3:TrackPointExtension>
            <ns3:hr>133</ns3:hr>
            <ns3:cad>80</ns3:cad>
          </ns3:TrackPointExtension>
        </extensions>
      </trkpt>
      <trkpt lat="45.32861662097275257110595703125" lon="-71.0594455897808074951171875">
        <ele>546</ele>
        <time>2026-08-21T22:30:13.000Z</time>
        <extensions>
          <ns3:TrackPointExtension>
            <ns3:hr>133</ns3:hr>
            <ns3:cad>81</ns3:cad>
          </ns3:TrackPointExtension>
        </extensions>
      </trkpt>
      <trkpt lat="45.32861293293535709381103515625" lon="-71.05947366915643215179443359375">
        <ele>546</ele>
        <time>2026-08-21T22:30:14.000Z</time>
        <extensions>
          <ns3:TrackPointExtension>
            <ns3:hr>133</ns3:hr>
            <ns3:cad>80</ns3:cad>
          </ns3:TrackPointExtension>
        </extensions>
      </trkpt>
      <trkpt lat="45.32861343584954738616943359375" lon="-71.05948858894407749176025390625">
        <ele>545.79998779296875</ele>
        <time>2026-08-21T22:30:15.000Z</time>
        <extensions>
          <ns3:TrackPointExtension>
            <ns3:hr>133</ns3:hr>
            <ns3:cad>80</ns3:cad>
          </ns3:TrackPointExtension>
        </extensions>
      </trkpt>
      <trkpt lat="45.3286170400679111480712890625" lon="-71.05948188342154026031494140625">
        <ele>545.79998779296875</ele>
        <time>2026-08-21T22:30:16.000Z</time>
        <extensions>
          <ns3:TrackPointExtension>
            <ns3:hr>132</ns3:hr>
            <ns3:cad>0</ns3:cad>
          </ns3:TrackPointExtension>
        </extensions>
      </trkpt>
      <trkpt lat="45.32861829735338687896728515625" lon="-71.05947081930935382843017578125">
        <ele>545.79998779296875</ele>
        <time>2026-08-21T22:30:17.000Z</time>
        <extensions>
          <ns3:TrackPointExtension>
            <ns3:hr>132</ns3:hr>
            <ns3:cad>0</ns3:cad>
          </ns3:TrackPointExtension>
        </extensions>
      </trkpt>
      <trkpt lat="45.3286173753440380096435546875" lon="-71.05946411378681659698486328125">
        <ele>545.79998779296875</ele>
        <time>2026-08-21T22:30:18.000Z</time>
        <extensions>
          <ns3:TrackPointExtension>
            <ns3:hr>132</ns3:hr>
            <ns3:cad>0</ns3:cad>
          </ns3:TrackPointExtension>
        </extensions>
      </trkpt>
      <trkpt lat="45.328615196049213409423828125" lon="-71.059454642236232757568359375">
        <ele>545.79998779296875</ele>
        <time>2026-08-21T22:30:19.000Z</time>
        <extensions>
          <ns3:TrackPointExtension>
            <ns3:hr>132</ns3:hr>
            <ns3:cad>0</ns3:cad>
          </ns3:TrackPointExtension>
        </extensions>
      </trkpt>
      <trkpt lat="45.32861662097275257110595703125" lon="-71.0594482719898223876953125">
        <ele>545.79998779296875</ele>
        <time>2026-08-21T22:30:20.000Z</time>
        <extensions>
          <ns3:TrackPointExtension>
            <ns3:hr>132</ns3:hr>
            <ns3:cad>0</ns3:cad>
          </ns3:TrackPointExtension>
        </extensions>
      </trkpt>
      <trkpt lat="45.3286183811724185943603515625" lon="-71.0594400577247142791748046875">
        <ele>545.79998779296875</ele>
        <time>2026-08-21T22:30:21.000Z</time>
        <extensions>
          <ns3:TrackPointExtension>
            <ns3:hr>132</ns3:hr>
            <ns3:cad>47</ns3:cad>
          </ns3:TrackPointExtension>
        </extensions>
      </trkpt>
      <trkpt lat="45.328620560467243194580078125" lon="-71.05942974798381328582763671875">
        <ele>545.79998779296875</ele>
        <time>2026-08-21T22:30:22.000Z</time>
        <extensions>
          <ns3:TrackPointExtension>
            <ns3:hr>131</ns3:hr>
            <ns3:cad>47</ns3:cad>
          </ns3:TrackPointExtension>
        </extensions>
      </trkpt>
      <trkpt lat="45.32862315885722637176513671875" lon="-71.0594202764332294464111328125">
        <ele>546</ele>
        <time>2026-08-21T22:30:23.000Z</time>
        <extensions>
          <ns3:TrackPointExtension>
            <ns3:hr>130</ns3:hr>
            <ns3:cad>47</ns3:cad>
          </ns3:TrackPointExtension>
        </extensions>
      </trkpt>
      <trkpt lat="45.32862232066690921783447265625" lon="-71.05942505411803722381591796875">
        <ele>546</ele>
        <time>2026-08-21T22:30:24.000Z</time>
        <extensions>
          <ns3:TrackPointExtension>
            <ns3:hr>130</ns3:hr>
            <ns3:cad>47</ns3:cad>
          </ns3:TrackPointExtension>
        </extensions>
      </trkpt>
      <trkpt lat="45.3286193870007991790771484375" lon="-71.05943410657346248626708984375">
        <ele>546</ele>
        <time>2026-08-21T22:30:25.000Z</time>
        <extensions>
          <ns3:TrackPointExtension>
            <ns3:hr>129</ns3:hr>
            <ns3:cad>0</ns3:cad>
          </ns3:TrackPointExtension>
        </extensions>
      </trkpt>
      <trkpt lat="45.3286180458962917327880859375" lon="-71.05943561531603336334228515625">
        <ele>546</ele>
        <time>2026-08-21T22:30:26.000Z</time>
        <extensions>
          <ns3:TrackPointExtension>
            <ns3:hr>129</ns3:hr>
            <ns3:cad>0</ns3:cad>
          </ns3:TrackPointExtension>
        </extensions>
      </trkpt>
      <trkpt lat="45.32861796207726001739501953125" lon="-71.0594356991350650787353515625">
        <ele>546</ele>
        <time>2026-08-21T22:30:27.000Z</time>
        <extensions>
          <ns3:TrackPointExtension>
            <ns3:hr>129</ns3:hr>
            <ns3:cad>0</ns3:cad>
          </ns3:TrackPointExtension>
        </extensions>
      </trkpt>
      <trkpt lat="45.32861477695405483245849609375" lon="-71.05944667942821979522705078125">
        <ele>546</ele>
        <time>2026-08-21T22:30:28.000Z</time>
        <extensions>
          <ns3:TrackPointExtension>
            <ns3:hr>129</ns3:hr>
            <ns3:cad>45</ns3:cad>
          </ns3:TrackPointExtension>
        </extensions>
      </trkpt>
      <trkpt lat="45.32861075364053249359130859375" lon="-71.05946444906294345855712890625">
        <ele>546</ele>
        <time>2026-08-21T22:30:29.000Z</time>
        <extensions>
          <ns3:TrackPointExtension>
            <ns3:hr>129</ns3:hr>
            <ns3:cad>45</ns3:cad>
          </ns3:TrackPointExtension>
        </extensions>
      </trkpt>
      <trkpt lat="45.32860622741281986236572265625" lon="-71.0594829730689525604248046875">
        <ele>546</ele>
        <time>2026-08-21T22:30:30.000Z</time>
        <extensions>
          <ns3:TrackPointExtension>
            <ns3:hr>128</ns3:hr>
            <ns3:cad>0</ns3:cad>
          </ns3:TrackPointExtension>
        </extensions>
      </trkpt>
      <trkpt lat="45.32860388047993183135986328125" lon="-71.05951507575809955596923828125">
        <ele>546</ele>
        <time>2026-08-21T22:30:31.000Z</time>
        <extensions>
          <ns3:TrackPointExtension>
            <ns3:hr>128</ns3:hr>
            <ns3:cad>0</ns3:cad>
          </ns3:TrackPointExtension>
        </extensions>
      </trkpt>
      <trkpt lat="45.32860748469829559326171875" lon="-71.0595501959323883056640625">
        <ele>546</ele>
        <time>2026-08-21T22:30:32.000Z</time>
        <extensions>
          <ns3:TrackPointExtension>
            <ns3:hr>128</ns3:hr>
            <ns3:cad>0</ns3:cad>
          </ns3:TrackPointExtension>
        </extensions>
      </trkpt>
      <trkpt lat="45.32861259765923023223876953125" lon="-71.059578694403171539306640625">
        <ele>545.79998779296875</ele>
        <time>2026-08-21T22:30:33.000Z</time>
        <extensions>
          <ns3:TrackPointExtension>
            <ns3:hr>128</ns3:hr>
            <ns3:cad>77</ns3:cad>
          </ns3:TrackPointExtension>
        </extensions>
      </trkpt>
      <trkpt lat="45.32861025072634220123291015625" lon="-71.05960710905492305755615234375">
        <ele>545.79998779296875</ele>
        <time>2026-08-21T22:30:34.000Z</time>
        <extensions>
          <ns3:TrackPointExtension>
            <ns3:hr>128</ns3:hr>
            <ns3:cad>77</ns3:cad>
          </ns3:TrackPointExtension>
        </extensions>
      </trkpt>
      <trkpt lat="45.32861041836440563201904296875" lon="-71.0596387088298797607421875">
        <ele>545.5999755859375</ele>
        <time>2026-08-21T22:30:35.000Z</time>
        <extensions>
          <ns3:TrackPointExtension>
            <ns3:hr>128</ns3:hr>
            <ns3:cad>77</ns3:cad>
          </ns3:TrackPointExtension>
        </extensions>
      </trkpt>
      <trkpt lat="45.32861075364053249359130859375" lon="-71.059663183987140655517578125">
        <ele>545.4000244140625</ele>
        <time>2026-08-21T22:30:36.000Z</time>
        <extensions>
          <ns3:TrackPointExtension>
            <ns3:hr>129</ns3:hr>
            <ns3:cad>77</ns3:cad>
          </ns3:TrackPointExtension>
        </extensions>
      </trkpt>
      <trkpt lat="45.328608490526676177978515625" lon="-71.059691347181797027587890625">
        <ele>545.4000244140625</ele>
        <time>2026-08-21T22:30:37.000Z</time>
        <extensions>
          <ns3:TrackPointExtension>
            <ns3:hr>128</ns3:hr>
            <ns3:cad>78</ns3:cad>
          </ns3:TrackPointExtension>
        </extensions>
      </trkpt>
      <trkpt lat="45.32860505394637584686279296875" lon="-71.05971875600516796112060546875">
        <ele>545.4000244140625</ele>
        <time>2026-08-21T22:30:38.000Z</time>
        <extensions>
          <ns3:TrackPointExtension>
            <ns3:hr>128</ns3:hr>
            <ns3:cad>78</ns3:cad>
          </ns3:TrackPointExtension>
        </extensions>
      </trkpt>
      <trkpt lat="45.3286068141460418701171875" lon="-71.0597454942762851715087890625">
        <ele>545.20001220703125</ele>
        <time>2026-08-21T22:30:39.000Z</time>
        <extensions>
          <ns3:TrackPointExtension>
            <ns3:hr>128</ns3:hr>
            <ns3:cad>78</ns3:cad>
          </ns3:TrackPointExtension>
        </extensions>
      </trkpt>
      <trkpt lat="45.32860807143151760101318359375" lon="-71.0597783513367176055908203125">
        <ele>545.20001220703125</ele>
        <time>2026-08-21T22:30:40.000Z</time>
        <extensions>
          <ns3:TrackPointExtension>
            <ns3:hr>128</ns3:hr>
            <ns3:cad>79</ns3:cad>
          </ns3:TrackPointExtension>
        </extensions>
      </trkpt>
      <trkpt lat="45.32860790379345417022705078125" lon="-71.059810705482959747314453125">
        <ele>545.20001220703125</ele>
        <time>2026-08-21T22:30:41.000Z</time>
        <extensions>
          <ns3:TrackPointExtension>
            <ns3:hr>128</ns3:hr>
            <ns3:cad>79</ns3:cad>
          </ns3:TrackPointExtension>
        </extensions>
      </trkpt>
      <trkpt lat="45.3286073170602321624755859375" lon="-71.0598373599350452423095703125">
        <ele>545.20001220703125</ele>
        <time>2026-08-21T22:30:42.000Z</time>
        <extensions>
          <ns3:TrackPointExtension>
            <ns3:hr>128</ns3:hr>
            <ns3:cad>79</ns3:cad>
          </ns3:TrackPointExtension>
        </extensions>
      </trkpt>
      <trkpt lat="45.32860857434570789337158203125" lon="-71.059866361320018768310546875">
        <ele>545</ele>
        <time>2026-08-21T22:30:43.000Z</time>
        <extensions>
          <ns3:TrackPointExtension>
            <ns3:hr>128</ns3:hr>
            <ns3:cad>80</ns3:cad>
          </ns3:TrackPointExtension>
        </extensions>
      </trkpt>
      <trkpt lat="45.328608490526676177978515625" lon="-71.05989477597177028656005859375">
        <ele>545</ele>
        <time>2026-08-21T22:30:44.000Z</time>
        <extensions>
          <ns3:TrackPointExtension>
            <ns3:hr>128</ns3:hr>
            <ns3:cad>80</ns3:cad>
          </ns3:TrackPointExtension>
        </extensions>
      </trkpt>
      <trkpt lat="45.3286009468138217926025390625" lon="-71.059925369918346405029296875">
        <ele>545</ele>
        <time>2026-08-21T22:30:45.000Z</time>
        <extensions>
          <ns3:TrackPointExtension>
            <ns3:hr>128</ns3:hr>
            <ns3:cad>80</ns3:cad>
          </ns3:TrackPointExtension>
        </extensions>
      </trkpt>
      <trkpt lat="45.328598432242870330810546875" lon="-71.0599523596465587615966796875">
        <ele>545</ele>
        <time>2026-08-21T22:30:46.000Z</time>
        <extensions>
          <ns3:TrackPointExtension>
            <ns3:hr>128</ns3:hr>
            <ns3:cad>80</ns3:cad>
          </ns3:TrackPointExtension>
        </extensions>
      </trkpt>
      <trkpt lat="45.32859516330063343048095703125" lon="-71.05998027138411998748779296875">
        <ele>545</ele>
        <time>2026-08-21T22:30:47.000Z</time>
        <extensions>
          <ns3:TrackPointExtension>
            <ns3:hr>127</ns3:hr>
            <ns3:cad>80</ns3:cad>
          </ns3:TrackPointExtension>
        </extensions>
      </trkpt>
      <trkpt lat="45.32859214581549167633056640625" lon="-71.06001161970198154449462890625">
        <ele>544.79998779296875</ele>
        <time>2026-08-21T22:30:48.000Z</time>
        <extensions>
          <ns3:TrackPointExtension>
            <ns3:hr>125</ns3:hr>
            <ns3:cad>80</ns3:cad>
          </ns3:TrackPointExtension>
        </extensions>
      </trkpt>
      <trkpt lat="45.32859231345355510711669921875" lon="-71.0600422136485576629638671875">
        <ele>544.79998779296875</ele>
        <time>2026-08-21T22:30:49.000Z</time>
        <extensions>
          <ns3:TrackPointExtension>
            <ns3:hr>124</ns3:hr>
            <ns3:cad>80</ns3:cad>
          </ns3:TrackPointExtension>
        </extensions>
      </trkpt>
      <trkpt lat="45.3285898827016353607177734375" lon="-71.06007297523319721221923828125">
        <ele>544.5999755859375</ele>
        <time>2026-08-21T22:30:50.000Z</time>
        <extensions>
          <ns3:TrackPointExtension>
            <ns3:hr>124</ns3:hr>
            <ns3:cad>80</ns3:cad>
          </ns3:TrackPointExtension>
        </extensions>
      </trkpt>
      <trkpt lat="45.32858678139746189117431640625" lon="-71.06010985560715198516845703125">
        <ele>544.5999755859375</ele>
        <time>2026-08-21T22:30:51.000Z</time>
        <extensions>
          <ns3:TrackPointExtension>
            <ns3:hr>124</ns3:hr>
            <ns3:cad>80</ns3:cad>
          </ns3:TrackPointExtension>
        </extensions>
      </trkpt>
      <trkpt lat="45.3285918943583965301513671875" lon="-71.060147322714328765869140625">
        <ele>544.5999755859375</ele>
        <time>2026-08-21T22:30:52.000Z</time>
        <extensions>
          <ns3:TrackPointExtension>
            <ns3:hr>125</ns3:hr>
            <ns3:cad>80</ns3:cad>
          </ns3:TrackPointExtension>
        </extensions>
      </trkpt>
      <trkpt lat="45.32859407365322113037109375" lon="-71.060182191431522369384765625">
        <ele>544.4000244140625</ele>
        <time>2026-08-21T22:30:53.000Z</time>
        <extensions>
          <ns3:TrackPointExtension>
            <ns3:hr>125</ns3:hr>
            <ns3:cad>80</ns3:cad>
          </ns3:TrackPointExtension>
        </extensions>
      </trkpt>
      <trkpt lat="45.32859650440514087677001953125" lon="-71.06021513231098651885986328125">
        <ele>544.4000244140625</ele>
        <time>2026-08-21T22:30:54.000Z</time>
        <extensions>
          <ns3:TrackPointExtension>
            <ns3:hr>125</ns3:hr>
            <ns3:cad>80</ns3:cad>
          </ns3:TrackPointExtension>
        </extensions>
      </trkpt>
      <trkpt lat="45.3285949118435382843017578125" lon="-71.0602531023323535919189453125">
        <ele>544.20001220703125</ele>
        <time>2026-08-21T22:30:55.000Z</time>
        <extensions>
          <ns3:TrackPointExtension>
            <ns3:hr>125</ns3:hr>
            <ns3:cad>82</ns3:cad>
          </ns3:TrackPointExtension>
        </extensions>
      </trkpt>
      <trkpt lat="45.3285969235002994537353515625" lon="-71.06028906069695949554443359375">
        <ele>544.20001220703125</ele>
        <time>2026-08-21T22:30:56.000Z</time>
        <extensions>
          <ns3:TrackPointExtension>
            <ns3:hr>125</ns3:hr>
            <ns3:cad>82</ns3:cad>
          </ns3:TrackPointExtension>
        </extensions>
      </trkpt>
      <trkpt lat="45.3285975940525531768798828125" lon="-71.06032309122383594512939453125">
        <ele>544.20001220703125</ele>
        <time>2026-08-21T22:30:57.000Z</time>
        <extensions>
          <ns3:TrackPointExtension>
            <ns3:hr>124</ns3:hr>
            <ns3:cad>82</ns3:cad>
          </ns3:TrackPointExtension>
        </extensions>
      </trkpt>
      <trkpt lat="45.32859566621482372283935546875" lon="-71.0603587143123149871826171875">
        <ele>544.20001220703125</ele>
        <time>2026-08-21T22:30:58.000Z</time>
        <extensions>
          <ns3:TrackPointExtension>
            <ns3:hr>124</ns3:hr>
            <ns3:cad>82</ns3:cad>
          </ns3:TrackPointExtension>
        </extensions>
      </trkpt>
      <trkpt lat="45.32859667204320430755615234375" lon="-71.0603912360966205596923828125">
        <ele>544</ele>
        <time>2026-08-21T22:30:59.000Z</time>
        <extensions>
          <ns3:TrackPointExtension>
            <ns3:hr>124</ns3:hr>
            <ns3:cad>41</ns3:cad>
          </ns3:TrackPointExtension>
        </extensions>
      </trkpt>
      <trkpt lat="45.328593738377094268798828125" lon="-71.06042367406189441680908203125">
        <ele>543.79998779296875</ele>
        <time>2026-08-21T22:31:00.000Z</time>
        <extensions>
          <ns3:TrackPointExtension>
            <ns3:hr>124</ns3:hr>
            <ns3:cad>41</ns3:cad>
          </ns3:TrackPointExtension>
        </extensions>
      </trkpt>
      <trkpt lat="45.32859315164387226104736328125" lon="-71.06045569293200969696044921875">
        <ele>543.79998779296875</ele>
        <time>2026-08-21T22:31:01.000Z</time>
        <extensions>
          <ns3:TrackPointExtension>
            <ns3:hr>125</ns3:hr>
            <ns3:cad>41</ns3:cad>
          </ns3:TrackPointExtension>
        </extensions>
      </trkpt>
      <trkpt lat="45.32859331928193569183349609375" lon="-71.06048167683184146881103515625">
        <ele>543.5999755859375</ele>
        <time>2026-08-21T22:31:02.000Z</time>
        <extensions>
          <ns3:TrackPointExtension>
            <ns3:hr>124</ns3:hr>
            <ns3:cad>40</ns3:cad>
          </ns3:TrackPointExtension>
        </extensions>
      </trkpt>
      <trkpt lat="45.3285922296345233917236328125" lon="-71.0605122707784175872802734375">
        <ele>543.4000244140625</ele>
        <time>2026-08-21T22:31:03.000Z</time>
        <extensions>
          <ns3:TrackPointExtension>
            <ns3:hr>124</ns3:hr>
            <ns3:cad>40</ns3:cad>
          </ns3:TrackPointExtension>
        </extensions>
      </trkpt>
      <trkpt lat="45.3285915590822696685791015625" lon="-71.0605478100478649139404296875">
        <ele>543.4000244140625</ele>
        <time>2026-08-21T22:31:04.000Z</time>
        <extensions>
          <ns3:TrackPointExtension>
            <ns3:hr>124</ns3:hr>
            <ns3:cad>40</ns3:cad>
          </ns3:TrackPointExtension>
        </extensions>
      </trkpt>
      <trkpt lat="45.32858979888260364532470703125" lon="-71.060581170022487640380859375">
        <ele>543.20001220703125</ele>
        <time>2026-08-21T22:31:05.000Z</time>
        <extensions>
          <ns3:TrackPointExtension>
            <ns3:hr>124</ns3:hr>
            <ns3:cad>40</ns3:cad>
          </ns3:TrackPointExtension>
        </extensions>
      </trkpt>
      <trkpt lat="45.3285858593881130218505859375" lon="-71.06061310507357120513916015625">
        <ele>543</ele>
        <time>2026-08-21T22:31:06.000Z</time>
        <extensions>
          <ns3:TrackPointExtension>
            <ns3:hr>123</ns3:hr>
            <ns3:cad>40</ns3:cad>
          </ns3:TrackPointExtension>
        </extensions>
      </trkpt>
      <trkpt lat="45.32858259044587612152099609375" lon="-71.06064747087657451629638671875">
        <ele>543</ele>
        <time>2026-08-21T22:31:07.000Z</time>
        <extensions>
          <ns3:TrackPointExtension>
            <ns3:hr>123</ns3:hr>
            <ns3:cad>40</ns3:cad>
          </ns3:TrackPointExtension>
        </extensions>
      </trkpt>
      <trkpt lat="45.32858108170330524444580078125" lon="-71.06067932210862636566162109375">
        <ele>542.79998779296875</ele>
        <time>2026-08-21T22:31:08.000Z</time>
        <extensions>
          <ns3:TrackPointExtension>
            <ns3:hr>123</ns3:hr>
            <ns3:cad>40</ns3:cad>
          </ns3:TrackPointExtension>
        </extensions>
      </trkpt>
      <trkpt lat="45.3285808302462100982666015625" lon="-71.06071335263550281524658203125">
        <ele>542.5999755859375</ele>
        <time>2026-08-21T22:31:09.000Z</time>
        <extensions>
          <ns3:TrackPointExtension>
            <ns3:hr>122</ns3:hr>
            <ns3:cad>82</ns3:cad>
          </ns3:TrackPointExtension>
        </extensions>
      </trkpt>
      <trkpt lat="45.32857923768460750579833984375" lon="-71.06075392104685306549072265625">
        <ele>542.5999755859375</ele>
        <time>2026-08-21T22:31:10.000Z</time>
        <extensions>
          <ns3:TrackPointExtension>
            <ns3:hr>122</ns3:hr>
            <ns3:cad>82</ns3:cad>
          </ns3:TrackPointExtension>
        </extensions>
      </trkpt>
      <trkpt lat="45.32857663929462432861328125" lon="-71.06078476645052433013916015625">
        <ele>542.4000244140625</ele>
        <time>2026-08-21T22:31:11.000Z</time>
        <extensions>
          <ns3:TrackPointExtension>
            <ns3:hr>122</ns3:hr>
            <ns3:cad>41</ns3:cad>
          </ns3:TrackPointExtension>
        </extensions>
      </trkpt>
      <trkpt lat="45.32857672311365604400634765625" lon="-71.06081142090260982513427734375">
        <ele>542.4000244140625</ele>
        <time>2026-08-21T22:31:12.000Z</time>
        <extensions>
          <ns3:TrackPointExtension>
            <ns3:hr>122</ns3:hr>
            <ns3:cad>80</ns3:cad>
          </ns3:TrackPointExtension>
        </extensions>
      </trkpt>
      <trkpt lat="45.328574962913990020751953125" lon="-71.060850061476230621337890625">
        <ele>542.20001220703125</ele>
        <time>2026-08-21T22:31:13.000Z</time>
        <extensions>
          <ns3:TrackPointExtension>
            <ns3:hr>122</ns3:hr>
            <ns3:cad>80</ns3:cad>
          </ns3:TrackPointExtension>
        </extensions>
      </trkpt>
      <trkpt lat="45.32857529819011688232421875" lon="-71.0608834214508533477783203125">
        <ele>542</ele>
        <time>2026-08-21T22:31:14.000Z</time>
        <extensions>
          <ns3:TrackPointExtension>
            <ns3:hr>122</ns3:hr>
            <ns3:cad>80</ns3:cad>
          </ns3:TrackPointExtension>
        </extensions>
      </trkpt>
      <trkpt lat="45.32857052050530910491943359375" lon="-71.0609172843396663665771484375">
        <ele>541.79998779296875</ele>
        <time>2026-08-21T22:31:15.000Z</time>
        <extensions>
          <ns3:TrackPointExtension>
            <ns3:hr>122</ns3:hr>
            <ns3:cad>80</ns3:cad>
          </ns3:TrackPointExtension>
        </extensions>
      </trkpt>
      <trkpt lat="45.3285697661340236663818359375" lon="-71.0609518177807331085205078125">
        <ele>541.79998779296875</ele>
        <time>2026-08-21T22:31:16.000Z</time>
        <extensions>
          <ns3:TrackPointExtension>
            <ns3:hr>122</ns3:hr>
            <ns3:cad>80</ns3:cad>
          </ns3:TrackPointExtension>
        </extensions>
      </trkpt>
      <trkpt lat="45.3285719454288482666015625" lon="-71.0609883628785610198974609375">
        <ele>541.5999755859375</ele>
        <time>2026-08-21T22:31:17.000Z</time>
        <extensions>
          <ns3:TrackPointExtension>
            <ns3:hr>122</ns3:hr>
            <ns3:cad>80</ns3:cad>
          </ns3:TrackPointExtension>
        </extensions>
      </trkpt>
      <trkpt lat="45.328573286533355712890625" lon="-71.0610225610435009002685546875">
        <ele>541.5999755859375</ele>
        <time>2026-08-21T22:31:18.000Z</time>
        <extensions>
          <ns3:TrackPointExtension>
            <ns3:hr>123</ns3:hr>
            <ns3:cad>80</ns3:cad>
          </ns3:TrackPointExtension>
        </extensions>
      </trkpt>
      <trkpt lat="45.328572280704975128173828125" lon="-71.0610567592084407806396484375">
        <ele>541.5999755859375</ele>
        <time>2026-08-21T22:31:19.000Z</time>
        <extensions>
          <ns3:TrackPointExtension>
            <ns3:hr>122</ns3:hr>
            <ns3:cad>81</ns3:cad>
          </ns3:TrackPointExtension>
        </extensions>
      </trkpt>
      <trkpt lat="45.32857655547559261322021484375" lon="-71.06109137646853923797607421875">
        <ele>541.5999755859375</ele>
        <time>2026-08-21T22:31:20.000Z</time>
        <extensions>
          <ns3:TrackPointExtension>
            <ns3:hr>122</ns3:hr>
            <ns3:cad>81</ns3:cad>
          </ns3:TrackPointExtension>
        </extensions>
      </trkpt>
      <trkpt lat="45.3285768069326877593994140625" lon="-71.061128675937652587890625">
        <ele>541.4000244140625</ele>
        <time>2026-08-21T22:31:21.000Z</time>
        <extensions>
          <ns3:TrackPointExtension>
            <ns3:hr>122</ns3:hr>
            <ns3:cad>82</ns3:cad>
          </ns3:TrackPointExtension>
        </extensions>
      </trkpt>
      <trkpt lat="45.32857823185622692108154296875" lon="-71.0611660592257976531982421875">
        <ele>541.4000244140625</ele>
        <time>2026-08-21T22:31:22.000Z</time>
        <extensions>
          <ns3:TrackPointExtension>
            <ns3:hr>123</ns3:hr>
            <ns3:cad>82</ns3:cad>
          </ns3:TrackPointExtension>
        </extensions>
      </trkpt>
      <trkpt lat="45.32857923768460750579833984375" lon="-71.06120285578072071075439453125">
        <ele>541.4000244140625</ele>
        <time>2026-08-21T22:31:23.000Z</time>
        <extensions>
          <ns3:TrackPointExtension>
            <ns3:hr>123</ns3:hr>
            <ns3:cad>82</ns3:cad>
          </ns3:TrackPointExtension>
        </extensions>
      </trkpt>
      <trkpt lat="45.3285804949700832366943359375" lon="-71.0612354613840579986572265625">
        <ele>541.20001220703125</ele>
        <time>2026-08-21T22:31:24.000Z</time>
        <extensions>
          <ns3:TrackPointExtension>
            <ns3:hr>122</ns3:hr>
            <ns3:cad>82</ns3:cad>
          </ns3:TrackPointExtension>
        </extensions>
      </trkpt>
      <trkpt lat="45.3285821713507175445556640625" lon="-71.06126672588288784027099609375">
        <ele>541.20001220703125</ele>
        <time>2026-08-21T22:31:25.000Z</time>
        <extensions>
          <ns3:TrackPointExtension>
            <ns3:hr>122</ns3:hr>
            <ns3:cad>82</ns3:cad>
          </ns3:TrackPointExtension>
        </extensions>
      </trkpt>
      <trkpt lat="45.32858342863619327545166015625" lon="-71.06130410917103290557861328125">
        <ele>541</ele>
        <time>2026-08-21T22:31:26.000Z</time>
        <extensions>
          <ns3:TrackPointExtension>
            <ns3:hr>123</ns3:hr>
            <ns3:cad>82</ns3:cad>
          </ns3:TrackPointExtension>
        </extensions>
      </trkpt>
      <trkpt lat="45.32858711667358875274658203125" lon="-71.06133646331727504730224609375">
        <ele>541</ele>
        <time>2026-08-21T22:31:27.000Z</time>
        <extensions>
          <ns3:TrackPointExtension>
            <ns3:hr>123</ns3:hr>
            <ns3:cad>82</ns3:cad>
          </ns3:TrackPointExtension>
        </extensions>
      </trkpt>
      <trkpt lat="45.32858896069228649139404296875" lon="-71.0613655485212802886962890625">
        <ele>540.79998779296875</ele>
        <time>2026-08-21T22:31:28.000Z</time>
        <extensions>
          <ns3:TrackPointExtension>
            <ns3:hr>123</ns3:hr>
            <ns3:cad>80</ns3:cad>
          </ns3:TrackPointExtension>
        </extensions>
      </trkpt>
      <trkpt lat="45.3285882063210010528564453125" lon="-71.06140167452394962310791015625">
        <ele>540.79998779296875</ele>
        <time>2026-08-21T22:31:29.000Z</time>
        <extensions>
          <ns3:TrackPointExtension>
            <ns3:hr>123</ns3:hr>
            <ns3:cad>80</ns3:cad>
          </ns3:TrackPointExtension>
        </extensions>
      </trkpt>
      <trkpt lat="45.32858879305422306060791015625" lon="-71.0614403150975704193115234375">
        <ele>540.79998779296875</ele>
        <time>2026-08-21T22:31:30.000Z</time>
        <extensions>
          <ns3:TrackPointExtension>
            <ns3:hr>124</ns3:hr>
            <ns3:cad>80</ns3:cad>
          </ns3:TrackPointExtension>
        </extensions>
      </trkpt>
      <trkpt lat="45.32858795486390590667724609375" lon="-71.061473004519939422607421875">
        <ele>540.5999755859375</ele>
        <time>2026-08-21T22:31:31.000Z</time>
        <extensions>
          <ns3:TrackPointExtension>
            <ns3:hr>124</ns3:hr>
            <ns3:cad>80</ns3:cad>
          </ns3:TrackPointExtension>
        </extensions>
      </trkpt>
      <trkpt lat="45.32858929596841335296630859375" lon="-71.0615093819797039031982421875">
        <ele>540.5999755859375</ele>
        <time>2026-08-21T22:31:32.000Z</time>
        <extensions>
          <ns3:TrackPointExtension>
            <ns3:hr>125</ns3:hr>
            <ns3:cad>80</ns3:cad>
          </ns3:TrackPointExtension>
        </extensions>
      </trkpt>
      <trkpt lat="45.32858862541615962982177734375" lon="-71.06154869310557842254638671875">
        <ele>540.4000244140625</ele>
        <time>2026-08-21T22:31:33.000Z</time>
        <extensions>
          <ns3:TrackPointExtension>
            <ns3:hr>125</ns3:hr>
            <ns3:cad>82</ns3:cad>
          </ns3:TrackPointExtension>
        </extensions>
      </trkpt>
      <trkpt lat="45.32858896069228649139404296875" lon="-71.06158037669956684112548828125">
        <ele>540.4000244140625</ele>
        <time>2026-08-21T22:31:34.000Z</time>
        <extensions>
          <ns3:TrackPointExtension>
            <ns3:hr>125</ns3:hr>
            <ns3:cad>82</ns3:cad>
          </ns3:TrackPointExtension>
        </extensions>
      </trkpt>
      <trkpt lat="45.32858963124454021453857421875" lon="-71.0616166703402996063232421875">
        <ele>540.20001220703125</ele>
        <time>2026-08-21T22:31:35.000Z</time>
        <extensions>
          <ns3:TrackPointExtension>
            <ns3:hr>126</ns3:hr>
            <ns3:cad>82</ns3:cad>
          </ns3:TrackPointExtension>
        </extensions>
      </trkpt>
      <trkpt lat="45.328588373959064483642578125" lon="-71.061651706695556640625">
        <ele>540.20001220703125</ele>
        <time>2026-08-21T22:31:36.000Z</time>
        <extensions>
          <ns3:TrackPointExtension>
            <ns3:hr>126</ns3:hr>
            <ns3:cad>82</ns3:cad>
          </ns3:TrackPointExtension>
        </extensions>
      </trkpt>
      <trkpt lat="45.32858577556908130645751953125" lon="-71.06168783269822597503662109375">
        <ele>540.20001220703125</ele>
        <time>2026-08-21T22:31:37.000Z</time>
        <extensions>
          <ns3:TrackPointExtension>
            <ns3:hr>126</ns3:hr>
            <ns3:cad>82</ns3:cad>
          </ns3:TrackPointExtension>
        </extensions>
      </trkpt>
      <trkpt lat="45.32858577556908130645751953125" lon="-71.06172320432960987091064453125">
        <ele>540.20001220703125</ele>
        <time>2026-08-21T22:31:38.000Z</time>
        <extensions>
          <ns3:TrackPointExtension>
            <ns3:hr>126</ns3:hr>
            <ns3:cad>82</ns3:cad>
          </ns3:TrackPointExtension>
        </extensions>
      </trkpt>
      <trkpt lat="45.328588373959064483642578125" lon="-71.06176008470356464385986328125">
        <ele>540</ele>
        <time>2026-08-21T22:31:39.000Z</time>
        <extensions>
          <ns3:TrackPointExtension>
            <ns3:hr>126</ns3:hr>
            <ns3:cad>82</ns3:cad>
          </ns3:TrackPointExtension>
        </extensions>
      </trkpt>
      <trkpt lat="45.328587703406810760498046875" lon="-71.06179696507751941680908203125">
        <ele>540</ele>
        <time>2026-08-21T22:31:40.000Z</time>
        <extensions>
          <ns3:TrackPointExtension>
            <ns3:hr>127</ns3:hr>
            <ns3:cad>82</ns3:cad>
          </ns3:TrackPointExtension>
        </extensions>
      </trkpt>
      <trkpt lat="45.32859046943485736846923828125" lon="-71.0618349350988864898681640625">
        <ele>540</ele>
        <time>2026-08-21T22:31:41.000Z</time>
        <extensions>
          <ns3:TrackPointExtension>
            <ns3:hr>126</ns3:hr>
            <ns3:cad>82</ns3:cad>
          </ns3:TrackPointExtension>
        </extensions>
      </trkpt>
      <trkpt lat="45.32859398983418941497802734375" lon="-71.061867959797382354736328125">
        <ele>540</ele>
        <time>2026-08-21T22:31:42.000Z</time>
        <extensions>
          <ns3:TrackPointExtension>
            <ns3:hr>127</ns3:hr>
            <ns3:cad>82</ns3:cad>
          </ns3:TrackPointExtension>
        </extensions>
      </trkpt>
      <trkpt lat="45.328596420586109161376953125" lon="-71.061899475753307342529296875">
        <ele>539.79998779296875</ele>
        <time>2026-08-21T22:31:43.000Z</time>
        <extensions>
          <ns3:TrackPointExtension>
            <ns3:hr>127</ns3:hr>
            <ns3:cad>82</ns3:cad>
          </ns3:TrackPointExtension>
        </extensions>
      </trkpt>
      <trkpt lat="45.32859801314771175384521484375" lon="-71.06193409301340579986572265625">
        <ele>539.79998779296875</ele>
        <time>2026-08-21T22:31:44.000Z</time>
        <extensions>
          <ns3:TrackPointExtension>
            <ns3:hr>128</ns3:hr>
            <ns3:cad>82</ns3:cad>
          </ns3:TrackPointExtension>
        </extensions>
      </trkpt>
      <trkpt lat="45.328600443899631500244140625" lon="-71.0619722306728363037109375">
        <ele>539.5999755859375</ele>
        <time>2026-08-21T22:31:45.000Z</time>
        <extensions>
          <ns3:TrackPointExtension>
            <ns3:hr>128</ns3:hr>
            <ns3:cad>83</ns3:cad>
          </ns3:TrackPointExtension>
        </extensions>
      </trkpt>
      <trkpt lat="45.32860354520380496978759765625" lon="-71.06200718320906162261962890625">
        <ele>539.5999755859375</ele>
        <time>2026-08-21T22:31:46.000Z</time>
        <extensions>
          <ns3:TrackPointExtension>
            <ns3:hr>128</ns3:hr>
            <ns3:cad>83</ns3:cad>
          </ns3:TrackPointExtension>
        </extensions>
      </trkpt>
      <trkpt lat="45.3286039642989635467529296875" lon="-71.06203635223209857940673828125">
        <ele>539.5999755859375</ele>
        <time>2026-08-21T22:31:47.000Z</time>
        <extensions>
          <ns3:TrackPointExtension>
            <ns3:hr>128</ns3:hr>
            <ns3:cad>82</ns3:cad>
          </ns3:TrackPointExtension>
        </extensions>
      </trkpt>
      <trkpt lat="45.328599773347377777099609375" lon="-71.0620716400444507598876953125">
        <ele>539.5999755859375</ele>
        <time>2026-08-21T22:31:48.000Z</time>
        <extensions>
          <ns3:TrackPointExtension>
            <ns3:hr>128</ns3:hr>
            <ns3:cad>82</ns3:cad>
          </ns3:TrackPointExtension>
        </extensions>
      </trkpt>
      <trkpt lat="45.32859943807125091552734375" lon="-71.06210307218134403228759765625">
        <ele>539.5999755859375</ele>
        <time>2026-08-21T22:31:49.000Z</time>
        <extensions>
          <ns3:TrackPointExtension>
            <ns3:hr>128</ns3:hr>
            <ns3:cad>82</ns3:cad>
          </ns3:TrackPointExtension>
        </extensions>
      </trkpt>
      <trkpt lat="45.32859901897609233856201171875" lon="-71.0621366836130619049072265625">
        <ele>539.4000244140625</ele>
        <time>2026-08-21T22:31:50.000Z</time>
        <extensions>
          <ns3:TrackPointExtension>
            <ns3:hr>128</ns3:hr>
            <ns3:cad>82</ns3:cad>
          </ns3:TrackPointExtension>
        </extensions>
      </trkpt>
      <trkpt lat="45.328600443899631500244140625" lon="-71.06216912157833576202392578125">
        <ele>539.4000244140625</ele>
        <time>2026-08-21T22:31:51.000Z</time>
        <extensions>
          <ns3:TrackPointExtension>
            <ns3:hr>129</ns3:hr>
            <ns3:cad>82</ns3:cad>
          </ns3:TrackPointExtension>
        </extensions>
      </trkpt>
      <trkpt lat="45.32860119827091693878173828125" lon="-71.062201894819736480712890625">
        <ele>539.20001220703125</ele>
        <time>2026-08-21T22:31:52.000Z</time>
        <extensions>
          <ns3:TrackPointExtension>
            <ns3:hr>129</ns3:hr>
            <ns3:cad>82</ns3:cad>
          </ns3:TrackPointExtension>
        </extensions>
      </trkpt>
      <trkpt lat="45.32860337756574153900146484375" lon="-71.06223165057599544525146484375">
        <ele>539.20001220703125</ele>
        <time>2026-08-21T22:31:53.000Z</time>
        <extensions>
          <ns3:TrackPointExtension>
            <ns3:hr>130</ns3:hr>
            <ns3:cad>82</ns3:cad>
          </ns3:TrackPointExtension>
        </extensions>
      </trkpt>
      <trkpt lat="45.32860346138477325439453125" lon="-71.0622640885412693023681640625">
        <ele>539.20001220703125</ele>
        <time>2026-08-21T22:31:54.000Z</time>
        <extensions>
          <ns3:TrackPointExtension>
            <ns3:hr>130</ns3:hr>
            <ns3:cad>82</ns3:cad>
          </ns3:TrackPointExtension>
        </extensions>
      </trkpt>
      <trkpt lat="45.328600108623504638671875" lon="-71.06230172328650951385498046875">
        <ele>539.20001220703125</ele>
        <time>2026-08-21T22:31:55.000Z</time>
        <extensions>
          <ns3:TrackPointExtension>
            <ns3:hr>130</ns3:hr>
            <ns3:cad>82</ns3:cad>
          </ns3:TrackPointExtension>
        </extensions>
      </trkpt>
      <trkpt lat="45.328599102795124053955078125" lon="-71.062338016927242279052734375">
        <ele>539.20001220703125</ele>
        <time>2026-08-21T22:31:56.000Z</time>
        <extensions>
          <ns3:TrackPointExtension>
            <ns3:hr>130</ns3:hr>
            <ns3:cad>82</ns3:cad>
          </ns3:TrackPointExtension>
        </extensions>
      </trkpt>
      <trkpt lat="45.328600108623504638671875" lon="-71.0623700357973575592041015625">
        <ele>539.20001220703125</ele>
        <time>2026-08-21T22:31:57.000Z</time>
        <extensions>
          <ns3:TrackPointExtension>
            <ns3:hr>130</ns3:hr>
            <ns3:cad>82</ns3:cad>
          </ns3:TrackPointExtension>
        </extensions>
      </trkpt>
      <trkpt lat="45.328597091138362884521484375" lon="-71.06240850873291492462158203125">
        <ele>539</ele>
        <time>2026-08-21T22:31:58.000Z</time>
        <extensions>
          <ns3:TrackPointExtension>
            <ns3:hr>129</ns3:hr>
            <ns3:cad>82</ns3:cad>
          </ns3:TrackPointExtension>
        </extensions>
      </trkpt>
      <trkpt lat="45.32859650440514087677001953125" lon="-71.0624434612691402435302734375">
        <ele>539</ele>
        <time>2026-08-21T22:31:59.000Z</time>
        <extensions>
          <ns3:TrackPointExtension>
            <ns3:hr>129</ns3:hr>
            <ns3:cad>82</ns3:cad>
          </ns3:TrackPointExtension>
        </extensions>
      </trkpt>
      <trkpt lat="45.32859818078577518463134765625" lon="-71.062475480139255523681640625">
        <ele>538.79998779296875</ele>
        <time>2026-08-21T22:32:00.000Z</time>
        <extensions>
          <ns3:TrackPointExtension>
            <ns3:hr>130</ns3:hr>
            <ns3:cad>82</ns3:cad>
          </ns3:TrackPointExtension>
        </extensions>
      </trkpt>
      <trkpt lat="45.32859809696674346923828125" lon="-71.0625111870467662811279296875">
        <ele>538.79998779296875</ele>
        <time>2026-08-21T22:32:01.000Z</time>
        <extensions>
          <ns3:TrackPointExtension>
            <ns3:hr>130</ns3:hr>
            <ns3:cad>82</ns3:cad>
          </ns3:TrackPointExtension>
        </extensions>
      </trkpt>
      <trkpt lat="45.32859751023352146148681640625" lon="-71.06254831887781620025634765625">
        <ele>538.79998779296875</ele>
        <time>2026-08-21T22:32:02.000Z</time>
        <extensions>
          <ns3:TrackPointExtension>
            <ns3:hr>130</ns3:hr>
            <ns3:cad>82</ns3:cad>
          </ns3:TrackPointExtension>
        </extensions>
      </trkpt>
      <trkpt lat="45.32860002480447292327880859375" lon="-71.0625789128243923187255859375">
        <ele>538.79998779296875</ele>
        <time>2026-08-21T22:32:03.000Z</time>
        <extensions>
          <ns3:TrackPointExtension>
            <ns3:hr>130</ns3:hr>
            <ns3:cad>82</ns3:cad>
          </ns3:TrackPointExtension>
        </extensions>
      </trkpt>
      <trkpt lat="45.32860153354704380035400390625" lon="-71.062610261142253875732421875">
        <ele>538.79998779296875</ele>
        <time>2026-08-21T22:32:04.000Z</time>
        <extensions>
          <ns3:TrackPointExtension>
            <ns3:hr>130</ns3:hr>
            <ns3:cad>82</ns3:cad>
          </ns3:TrackPointExtension>
        </extensions>
      </trkpt>
      <trkpt lat="45.3285996057093143463134765625" lon="-71.0626452974975109100341796875">
        <ele>538.5999755859375</ele>
        <time>2026-08-21T22:32:05.000Z</time>
        <extensions>
          <ns3:TrackPointExtension>
            <ns3:hr>130</ns3:hr>
            <ns3:cad>82</ns3:cad>
          </ns3:TrackPointExtension>
        </extensions>
      </trkpt>
      <trkpt lat="45.3285960853099822998046875" lon="-71.062678657472133636474609375">
        <ele>538.5999755859375</ele>
        <time>2026-08-21T22:32:06.000Z</time>
        <extensions>
          <ns3:TrackPointExtension>
            <ns3:hr>130</ns3:hr>
            <ns3:cad>82</ns3:cad>
          </ns3:TrackPointExtension>
        </extensions>
      </trkpt>
      <trkpt lat="45.328591056168079376220703125" lon="-71.06271059252321720123291015625">
        <ele>538.5999755859375</ele>
        <time>2026-08-21T22:32:07.000Z</time>
        <extensions>
          <ns3:TrackPointExtension>
            <ns3:hr>131</ns3:hr>
            <ns3:cad>82</ns3:cad>
          </ns3:TrackPointExtension>
        </extensions>
      </trkpt>
      <trkpt lat="45.3285895474255084991455078125" lon="-71.06274646706879138946533203125">
        <ele>538.5999755859375</ele>
        <time>2026-08-21T22:32:08.000Z</time>
        <extensions>
          <ns3:TrackPointExtension>
            <ns3:hr>130</ns3:hr>
            <ns3:cad>82</ns3:cad>
          </ns3:TrackPointExtension>
        </extensions>
      </trkpt>
      <trkpt lat="45.3285915590822696685791015625" lon="-71.06278317980468273162841796875">
        <ele>538.4000244140625</ele>
        <time>2026-08-21T22:32:09.000Z</time>
        <extensions>
          <ns3:TrackPointExtension>
            <ns3:hr>130</ns3:hr>
            <ns3:cad>82</ns3:cad>
          </ns3:TrackPointExtension>
        </extensions>
      </trkpt>
      <trkpt lat="45.3285902179777622222900390625" lon="-71.062814779579639434814453125">
        <ele>538.4000244140625</ele>
        <time>2026-08-21T22:32:10.000Z</time>
        <extensions>
          <ns3:TrackPointExtension>
            <ns3:hr>130</ns3:hr>
            <ns3:cad>82</ns3:cad>
          </ns3:TrackPointExtension>
        </extensions>
      </trkpt>
      <trkpt lat="45.3285861946642398834228515625" lon="-71.06285274960100650787353515625">
        <ele>538.4000244140625</ele>
        <time>2026-08-21T22:32:11.000Z</time>
        <extensions>
          <ns3:TrackPointExtension>
            <ns3:hr>129</ns3:hr>
            <ns3:cad>82</ns3:cad>
          </ns3:TrackPointExtension>
        </extensions>
      </trkpt>
      <trkpt lat="45.3285853564739227294921875" lon="-71.062882505357265472412109375">
        <ele>538.4000244140625</ele>
        <time>2026-08-21T22:32:12.000Z</time>
        <extensions>
          <ns3:TrackPointExtension>
            <ns3:hr>129</ns3:hr>
            <ns3:cad>82</ns3:cad>
          </ns3:TrackPointExtension>
        </extensions>
      </trkpt>
      <trkpt lat="45.32858493737876415252685546875" lon="-71.06291075237095355987548828125">
        <ele>538.4000244140625</ele>
        <time>2026-08-21T22:32:13.000Z</time>
        <extensions>
          <ns3:TrackPointExtension>
            <ns3:hr>129</ns3:hr>
            <ns3:cad>82</ns3:cad>
          </ns3:TrackPointExtension>
        </extensions>
      </trkpt>
      <trkpt lat="45.32858602702617645263671875" lon="-71.06293556280434131622314453125">
        <ele>538.4000244140625</ele>
        <time>2026-08-21T22:32:14.000Z</time>
        <extensions>
          <ns3:TrackPointExtension>
            <ns3:hr>129</ns3:hr>
            <ns3:cad>83</ns3:cad>
          </ns3:TrackPointExtension>
        </extensions>
      </trkpt>
      <trkpt lat="45.328583680093288421630859375" lon="-71.06296506710350513458251953125">
        <ele>538.5999755859375</ele>
        <time>2026-08-21T22:32:15.000Z</time>
        <extensions>
          <ns3:TrackPointExtension>
            <ns3:hr>129</ns3:hr>
            <ns3:cad>82</ns3:cad>
          </ns3:TrackPointExtension>
        </extensions>
      </trkpt>
      <trkpt lat="45.32858041115105152130126953125" lon="-71.06298920698463916778564453125">
        <ele>538.5999755859375</ele>
        <time>2026-08-21T22:32:16.000Z</time>
        <extensions>
          <ns3:TrackPointExtension>
            <ns3:hr>129</ns3:hr>
            <ns3:cad>81</ns3:cad>
          </ns3:TrackPointExtension>
        </extensions>
      </trkpt>
      <trkpt lat="45.32857689075171947479248046875" lon="-71.0630129277706146240234375">
        <ele>538.5999755859375</ele>
        <time>2026-08-21T22:32:17.000Z</time>
        <extensions>
          <ns3:TrackPointExtension>
            <ns3:hr>129</ns3:hr>
            <ns3:cad>81</ns3:cad>
          </ns3:TrackPointExtension>
        </extensions>
      </trkpt>
      <trkpt lat="45.3285731188952922821044921875" lon="-71.0630424320697784423828125">
        <ele>538.5999755859375</ele>
        <time>2026-08-21T22:32:18.000Z</time>
        <extensions>
          <ns3:TrackPointExtension>
            <ns3:hr>129</ns3:hr>
            <ns3:cad>81</ns3:cad>
          </ns3:TrackPointExtension>
        </extensions>
      </trkpt>
      <trkpt lat="45.32857320271432399749755859375" lon="-71.06307134963572025299072265625">
        <ele>538.5999755859375</ele>
        <time>2026-08-21T22:32:19.000Z</time>
        <extensions>
          <ns3:TrackPointExtension>
            <ns3:hr>129</ns3:hr>
            <ns3:cad>81</ns3:cad>
          </ns3:TrackPointExtension>
        </extensions>
      </trkpt>
      <trkpt lat="45.328574962913990020751953125" lon="-71.06309666298329830169677734375">
        <ele>538.5999755859375</ele>
        <time>2026-08-21T22:32:20.000Z</time>
        <extensions>
          <ns3:TrackPointExtension>
            <ns3:hr>130</ns3:hr>
            <ns3:cad>81</ns3:cad>
          </ns3:TrackPointExtension>
        </extensions>
      </trkpt>
      <trkpt lat="45.3285788185894489288330078125" lon="-71.0631076432764530181884765625">
        <ele>538.5999755859375</ele>
        <time>2026-08-21T22:32:21.000Z</time>
        <extensions>
          <ns3:TrackPointExtension>
            <ns3:hr>130</ns3:hr>
            <ns3:cad>80</ns3:cad>
          </ns3:TrackPointExtension>
        </extensions>
      </trkpt>
      <trkpt lat="45.32857420854270458221435546875" lon="-71.06312197633087635040283203125">
        <ele>538.5999755859375</ele>
        <time>2026-08-21T22:32:22.000Z</time>
        <extensions>
          <ns3:TrackPointExtension>
            <ns3:hr>129</ns3:hr>
            <ns3:cad>80</ns3:cad>
          </ns3:TrackPointExtension>
        </extensions>
      </trkpt>
      <trkpt lat="45.3285674192011356353759765625" lon="-71.06313052587211132049560546875">
        <ele>538.5999755859375</ele>
        <time>2026-08-21T22:32:23.000Z</time>
        <extensions>
          <ns3:TrackPointExtension>
            <ns3:hr>129</ns3:hr>
            <ns3:cad>80</ns3:cad>
          </ns3:TrackPointExtension>
        </extensions>
      </trkpt>
      <trkpt lat="45.3285654075443744659423828125" lon="-71.06315039098262786865234375">
        <ele>538.4000244140625</ele>
        <time>2026-08-21T22:32:24.000Z</time>
        <extensions>
          <ns3:TrackPointExtension>
            <ns3:hr>128</ns3:hr>
            <ns3:cad>80</ns3:cad>
          </ns3:TrackPointExtension>
        </extensions>
      </trkpt>
      <trkpt lat="45.32856783829629421234130859375" lon="-71.0631750337779521942138671875">
        <ele>538.4000244140625</ele>
        <time>2026-08-21T22:32:25.000Z</time>
        <extensions>
          <ns3:TrackPointExtension>
            <ns3:hr>128</ns3:hr>
            <ns3:cad>80</ns3:cad>
          </ns3:TrackPointExtension>
        </extensions>
      </trkpt>
      <trkpt lat="45.32857554964721202850341796875" lon="-71.0632045380771160125732421875">
        <ele>538.4000244140625</ele>
        <time>2026-08-21T22:32:26.000Z</time>
        <extensions>
          <ns3:TrackPointExtension>
            <ns3:hr>128</ns3:hr>
            <ns3:cad>0</ns3:cad>
          </ns3:TrackPointExtension>
        </extensions>
      </trkpt>
      <trkpt lat="45.328581333160400390625" lon="-71.0632276721298694610595703125">
        <ele>538.5999755859375</ele>
        <time>2026-08-21T22:32:27.000Z</time>
        <extensions>
          <ns3:TrackPointExtension>
            <ns3:hr>128</ns3:hr>
            <ns3:cad>0</ns3:cad>
          </ns3:TrackPointExtension>
        </extensions>
      </trkpt>
      <trkpt lat="45.3285882063210010528564453125" lon="-71.0632558353245258331298828125">
        <ele>538.5999755859375</ele>
        <time>2026-08-21T22:32:28.000Z</time>
        <extensions>
          <ns3:TrackPointExtension>
            <ns3:hr>127</ns3:hr>
            <ns3:cad>0</ns3:cad>
          </ns3:TrackPointExtension>
        </extensions>
      </trkpt>
      <trkpt lat="45.3285918943583965301513671875" lon="-71.0632811486721038818359375">
        <ele>538.5999755859375</ele>
        <time>2026-08-21T22:32:29.000Z</time>
        <extensions>
          <ns3:TrackPointExtension>
            <ns3:hr>128</ns3:hr>
            <ns3:cad>0</ns3:cad>
          </ns3:TrackPointExtension>
        </extensions>
      </trkpt>
      <trkpt lat="45.32859315164387226104736328125" lon="-71.06330621056258678436279296875">
        <ele>538.5999755859375</ele>
        <time>2026-08-21T22:32:30.000Z</time>
        <extensions>
          <ns3:TrackPointExtension>
            <ns3:hr>128</ns3:hr>
            <ns3:cad>0</ns3:cad>
          </ns3:TrackPointExtension>
        </extensions>
      </trkpt>
      <trkpt lat="45.32859264872968196868896484375" lon="-71.063328422605991363525390625">
        <ele>538.79998779296875</ele>
        <time>2026-08-21T22:32:31.000Z</time>
        <extensions>
          <ns3:TrackPointExtension>
            <ns3:hr>128</ns3:hr>
            <ns3:cad>58</ns3:cad>
          </ns3:TrackPointExtension>
        </extensions>
      </trkpt>
      <trkpt lat="45.328588373959064483642578125" lon="-71.06335029937326908111572265625">
        <ele>538.79998779296875</ele>
        <time>2026-08-21T22:32:32.000Z</time>
        <extensions>
          <ns3:TrackPointExtension>
            <ns3:hr>128</ns3:hr>
            <ns3:cad>58</ns3:cad>
          </ns3:TrackPointExtension>
        </extensions>
      </trkpt>
      <trkpt lat="45.32858225516974925994873046875" lon="-71.06337309814989566802978515625">
        <ele>538.79998779296875</ele>
        <time>2026-08-21T22:32:33.000Z</time>
        <extensions>
          <ns3:TrackPointExtension>
            <ns3:hr>128</ns3:hr>
            <ns3:cad>59</ns3:cad>
          </ns3:TrackPointExtension>
        </extensions>
      </trkpt>
      <trkpt lat="45.328577645123004913330078125" lon="-71.06338977813720703125">
        <ele>538.79998779296875</ele>
        <time>2026-08-21T22:32:34.000Z</time>
        <extensions>
          <ns3:TrackPointExtension>
            <ns3:hr>127</ns3:hr>
            <ns3:cad>59</ns3:cad>
          </ns3:TrackPointExtension>
        </extensions>
      </trkpt>
      <trkpt lat="45.32857169397175312042236328125" lon="-71.06340394355356693267822265625">
        <ele>538.79998779296875</ele>
        <time>2026-08-21T22:32:35.000Z</time>
        <extensions>
          <ns3:TrackPointExtension>
            <ns3:hr>127</ns3:hr>
            <ns3:cad>59</ns3:cad>
          </ns3:TrackPointExtension>
        </extensions>
      </trkpt>
      <trkpt lat="45.32857035286724567413330078125" lon="-71.06341056525707244873046875">
        <ele>538.5999755859375</ele>
        <time>2026-08-21T22:32:36.000Z</time>
        <extensions>
          <ns3:TrackPointExtension>
            <ns3:hr>126</ns3:hr>
            <ns3:cad>59</ns3:cad>
          </ns3:TrackPointExtension>
        </extensions>
      </trkpt>
      <trkpt lat="45.32856431789696216583251953125" lon="-71.063412241637706756591796875">
        <ele>538.5999755859375</ele>
        <time>2026-08-21T22:32:37.000Z</time>
        <extensions>
          <ns3:TrackPointExtension>
            <ns3:hr>126</ns3:hr>
            <ns3:cad>59</ns3:cad>
          </ns3:TrackPointExtension>
        </extensions>
      </trkpt>
      <trkpt lat="45.3285583667457103729248046875" lon="-71.0634063743054866790771484375">
        <ele>538.5999755859375</ele>
        <time>2026-08-21T22:32:38.000Z</time>
        <extensions>
          <ns3:TrackPointExtension>
            <ns3:hr>126</ns3:hr>
            <ns3:cad>58</ns3:cad>
          </ns3:TrackPointExtension>
        </extensions>
      </trkpt>
      <trkpt lat="45.32855090685188770294189453125" lon="-71.0634023509919643402099609375">
        <ele>538.5999755859375</ele>
        <time>2026-08-21T22:32:39.000Z</time>
        <extensions>
          <ns3:TrackPointExtension>
            <ns3:hr>126</ns3:hr>
            <ns3:cad>58</ns3:cad>
          </ns3:TrackPointExtension>
        </extensions>
      </trkpt>
      <trkpt lat="45.32854721881449222564697265625" lon="-71.06339388526976108551025390625">
        <ele>538.4000244140625</ele>
        <time>2026-08-21T22:32:40.000Z</time>
        <extensions>
          <ns3:TrackPointExtension>
            <ns3:hr>126</ns3:hr>
            <ns3:cad>58</ns3:cad>
          </ns3:TrackPointExtension>
        </extensions>
      </trkpt>
      <trkpt lat="45.32853900454938411712646484375" lon="-71.0633802227675914764404296875">
        <ele>538.4000244140625</ele>
        <time>2026-08-21T22:32:41.000Z</time>
        <extensions>
          <ns3:TrackPointExtension>
            <ns3:hr>126</ns3:hr>
            <ns3:cad>0</ns3:cad>
          </ns3:TrackPointExtension>
        </extensions>
      </trkpt>
      <trkpt lat="45.32852701842784881591796875" lon="-71.063365302979946136474609375">
        <ele>538.5999755859375</ele>
        <time>2026-08-21T22:32:42.000Z</time>
        <extensions>
          <ns3:TrackPointExtension>
            <ns3:hr>125</ns3:hr>
            <ns3:cad>0</ns3:cad>
          </ns3:TrackPointExtension>
        </extensions>
      </trkpt>
      <trkpt lat="45.3285188041627407073974609375" lon="-71.06335331685841083526611328125">
        <ele>538.5999755859375</ele>
        <time>2026-08-21T22:32:43.000Z</time>
        <extensions>
          <ns3:TrackPointExtension>
            <ns3:hr>126</ns3:hr>
            <ns3:cad>57</ns3:cad>
          </ns3:TrackPointExtension>
        </extensions>
      </trkpt>
      <trkpt lat="45.3285037167370319366455078125" lon="-71.06334091164171695709228515625">
        <ele>538.5999755859375</ele>
        <time>2026-08-21T22:32:44.000Z</time>
        <extensions>
          <ns3:TrackPointExtension>
            <ns3:hr>126</ns3:hr>
            <ns3:cad>57</ns3:cad>
          </ns3:TrackPointExtension>
        </extensions>
      </trkpt>
      <trkpt lat="45.3284862823784351348876953125" lon="-71.06332683004438877105712890625">
        <ele>538.5999755859375</ele>
        <time>2026-08-21T22:32:45.000Z</time>
        <extensions>
          <ns3:TrackPointExtension>
            <ns3:hr>128</ns3:hr>
            <ns3:cad>0</ns3:cad>
          </ns3:TrackPointExtension>
        </extensions>
      </trkpt>
      <trkpt lat="45.32846641726791858673095703125" lon="-71.06331207789480686187744140625">
        <ele>538.79998779296875</ele>
        <time>2026-08-21T22:32:46.000Z</time>
        <extensions>
          <ns3:TrackPointExtension>
            <ns3:hr>128</ns3:hr>
            <ns3:cad>0</ns3:cad>
          </ns3:TrackPointExtension>
        </extensions>
      </trkpt>
      <trkpt lat="45.3284437023103237152099609375" lon="-71.06329615227878093719482421875">
        <ele>538.79998779296875</ele>
        <time>2026-08-21T22:32:47.000Z</time>
        <extensions>
          <ns3:TrackPointExtension>
            <ns3:hr>127</ns3:hr>
            <ns3:cad>0</ns3:cad>
          </ns3:TrackPointExtension>
        </extensions>
      </trkpt>
      <trkpt lat="45.32842752523720264434814453125" lon="-71.06328274123370647430419921875">
        <ele>538.79998779296875</ele>
        <time>2026-08-21T22:32:48.000Z</time>
        <extensions>
          <ns3:TrackPointExtension>
            <ns3:hr>127</ns3:hr>
            <ns3:cad>0</ns3:cad>
          </ns3:TrackPointExtension>
        </extensions>
      </trkpt>
      <trkpt lat="45.3284054808318614959716796875" lon="-71.06326782144606113433837890625">
        <ele>539</ele>
        <time>2026-08-21T22:32:49.000Z</time>
        <extensions>
          <ns3:TrackPointExtension>
            <ns3:hr>126</ns3:hr>
            <ns3:cad>0</ns3:cad>
          </ns3:TrackPointExtension>
        </extensions>
      </trkpt>
      <trkpt lat="45.328383855521678924560546875" lon="-71.06325373984873294830322265625">
        <ele>538.79998779296875</ele>
        <time>2026-08-21T22:32:50.000Z</time>
        <extensions>
          <ns3:TrackPointExtension>
            <ns3:hr>126</ns3:hr>
            <ns3:cad>0</ns3:cad>
          </ns3:TrackPointExtension>
        </extensions>
      </trkpt>
      <trkpt lat="45.328365080058574676513671875" lon="-71.0632417537271976470947265625">
        <ele>539</ele>
        <time>2026-08-21T22:32:51.000Z</time>
        <extensions>
          <ns3:TrackPointExtension>
            <ns3:hr>126</ns3:hr>
            <ns3:cad>78</ns3:cad>
          </ns3:TrackPointExtension>
        </extensions>
      </trkpt>
      <trkpt lat="45.3283471427857875823974609375" lon="-71.0632266663014888763427734375">
        <ele>538.79998779296875</ele>
        <time>2026-08-21T22:32:52.000Z</time>
        <extensions>
          <ns3:TrackPointExtension>
            <ns3:hr>125</ns3:hr>
            <ns3:cad>78</ns3:cad>
          </ns3:TrackPointExtension>
        </extensions>
      </trkpt>
      <trkpt lat="45.328328199684619903564453125" lon="-71.06320830993354320526123046875">
        <ele>538.79998779296875</ele>
        <time>2026-08-21T22:32:53.000Z</time>
        <extensions>
          <ns3:TrackPointExtension>
            <ns3:hr>125</ns3:hr>
            <ns3:cad>79</ns3:cad>
          </ns3:TrackPointExtension>
        </extensions>
      </trkpt>
      <trkpt lat="45.32830917276442050933837890625" lon="-71.06319456361234188079833984375">
        <ele>539</ele>
        <time>2026-08-21T22:32:54.000Z</time>
        <extensions>
          <ns3:TrackPointExtension>
            <ns3:hr>126</ns3:hr>
            <ns3:cad>79</ns3:cad>
          </ns3:TrackPointExtension>
        </extensions>
      </trkpt>
      <trkpt lat="45.32828888855874538421630859375" lon="-71.06317562051117420196533203125">
        <ele>539</ele>
        <time>2026-08-21T22:32:55.000Z</time>
        <extensions>
          <ns3:TrackPointExtension>
            <ns3:hr>126</ns3:hr>
            <ns3:cad>79</ns3:cad>
          </ns3:TrackPointExtension>
        </extensions>
      </trkpt>
      <trkpt lat="45.32827061600983142852783203125" lon="-71.06315935961902141571044921875">
        <ele>539</ele>
        <time>2026-08-21T22:32:56.000Z</time>
        <extensions>
          <ns3:TrackPointExtension>
            <ns3:hr>126</ns3:hr>
            <ns3:cad>79</ns3:cad>
          </ns3:TrackPointExtension>
        </extensions>
      </trkpt>
      <trkpt lat="45.32825351692736148834228515625" lon="-71.06314360164105892181396484375">
        <ele>539.20001220703125</ele>
        <time>2026-08-21T22:32:57.000Z</time>
        <extensions>
          <ns3:TrackPointExtension>
            <ns3:hr>128</ns3:hr>
            <ns3:cad>79</ns3:cad>
          </ns3:TrackPointExtension>
        </extensions>
      </trkpt>
      <trkpt lat="45.3282344900071620941162109375" lon="-71.06313169933855533599853515625">
        <ele>539.4000244140625</ele>
        <time>2026-08-21T22:32:58.000Z</time>
        <extensions>
          <ns3:TrackPointExtension>
            <ns3:hr>128</ns3:hr>
            <ns3:cad>78</ns3:cad>
          </ns3:TrackPointExtension>
        </extensions>
      </trkpt>
      <trkpt lat="45.32821588218212127685546875" lon="-71.06311946175992488861083984375">
        <ele>539.4000244140625</ele>
        <time>2026-08-21T22:32:59.000Z</time>
        <extensions>
          <ns3:TrackPointExtension>
            <ns3:hr>128</ns3:hr>
            <ns3:cad>78</ns3:cad>
          </ns3:TrackPointExtension>
        </extensions>
      </trkpt>
      <trkpt lat="45.328196771442890167236328125" lon="-71.063103787600994110107421875">
        <ele>539.4000244140625</ele>
        <time>2026-08-21T22:33:00.000Z</time>
        <extensions>
          <ns3:TrackPointExtension>
            <ns3:hr>128</ns3:hr>
            <ns3:cad>78</ns3:cad>
          </ns3:TrackPointExtension>
        </extensions>
      </trkpt>
      <trkpt lat="45.3281761519610881805419921875" lon="-71.06308928690850734710693359375">
        <ele>539.5999755859375</ele>
        <time>2026-08-21T22:33:01.000Z</time>
        <extensions>
          <ns3:TrackPointExtension>
            <ns3:hr>128</ns3:hr>
            <ns3:cad>78</ns3:cad>
          </ns3:TrackPointExtension>
        </extensions>
      </trkpt>
      <trkpt lat="45.3281603939831256866455078125" lon="-71.063075624406337738037109375">
        <ele>539.5999755859375</ele>
        <time>2026-08-21T22:33:02.000Z</time>
        <extensions>
          <ns3:TrackPointExtension>
            <ns3:hr>128</ns3:hr>
            <ns3:cad>78</ns3:cad>
          </ns3:TrackPointExtension>
        </extensions>
      </trkpt>
      <trkpt lat="45.32814052887260913848876953125" lon="-71.06305911205708980560302734375">
        <ele>539.5999755859375</ele>
        <time>2026-08-21T22:33:03.000Z</time>
        <extensions>
          <ns3:TrackPointExtension>
            <ns3:hr>128</ns3:hr>
            <ns3:cad>78</ns3:cad>
          </ns3:TrackPointExtension>
        </extensions>
      </trkpt>
      <trkpt lat="45.32811932265758514404296875" lon="-71.06304435990750789642333984375">
        <ele>539.5999755859375</ele>
        <time>2026-08-21T22:33:04.000Z</time>
        <extensions>
          <ns3:TrackPointExtension>
            <ns3:hr>128</ns3:hr>
            <ns3:cad>78</ns3:cad>
          </ns3:TrackPointExtension>
        </extensions>
      </trkpt>
      <trkpt lat="45.32810046337544918060302734375" lon="-71.06302776373922824859619140625">
        <ele>539.5999755859375</ele>
        <time>2026-08-21T22:33:05.000Z</time>
        <extensions>
          <ns3:TrackPointExtension>
            <ns3:hr>129</ns3:hr>
            <ns3:cad>78</ns3:cad>
          </ns3:TrackPointExtension>
        </extensions>
      </trkpt>
      <trkpt lat="45.3280795924365520477294921875" lon="-71.06301301158964633941650390625">
        <ele>539.5999755859375</ele>
        <time>2026-08-21T22:33:06.000Z</time>
        <extensions>
          <ns3:TrackPointExtension>
            <ns3:hr>129</ns3:hr>
            <ns3:cad>78</ns3:cad>
          </ns3:TrackPointExtension>
        </extensions>
      </trkpt>
      <trkpt lat="45.3280608169734477996826171875" lon="-71.06299775652587413787841796875">
        <ele>539.79998779296875</ele>
        <time>2026-08-21T22:33:07.000Z</time>
        <extensions>
          <ns3:TrackPointExtension>
            <ns3:hr>129</ns3:hr>
            <ns3:cad>78</ns3:cad>
          </ns3:TrackPointExtension>
        </extensions>
      </trkpt>
      <trkpt lat="45.32803826965391635894775390625" lon="-71.06298535130918025970458984375">
        <ele>539.79998779296875</ele>
        <time>2026-08-21T22:33:08.000Z</time>
        <extensions>
          <ns3:TrackPointExtension>
            <ns3:hr>129</ns3:hr>
            <ns3:cad>78</ns3:cad>
          </ns3:TrackPointExtension>
        </extensions>
      </trkpt>
      <trkpt lat="45.32801714725792407989501953125" lon="-71.06297529302537441253662109375">
        <ele>539.79998779296875</ele>
        <time>2026-08-21T22:33:09.000Z</time>
        <extensions>
          <ns3:TrackPointExtension>
            <ns3:hr>129</ns3:hr>
            <ns3:cad>78</ns3:cad>
          </ns3:TrackPointExtension>
        </extensions>
      </trkpt>
      <trkpt lat="45.32799753360450267791748046875" lon="-71.062963642179965972900390625">
        <ele>539.79998779296875</ele>
        <time>2026-08-21T22:33:10.000Z</time>
        <extensions>
          <ns3:TrackPointExtension>
            <ns3:hr>129</ns3:hr>
            <ns3:cad>77</ns3:cad>
          </ns3:TrackPointExtension>
        </extensions>
      </trkpt>
      <trkpt lat="45.3279776684939861297607421875" lon="-71.06295190751552581787109375">
        <ele>539.79998779296875</ele>
        <time>2026-08-21T22:33:11.000Z</time>
        <extensions>
          <ns3:TrackPointExtension>
            <ns3:hr>129</ns3:hr>
            <ns3:cad>77</ns3:cad>
          </ns3:TrackPointExtension>
        </extensions>
      </trkpt>
      <trkpt lat="45.32795931212604045867919921875" lon="-71.0629416815936565399169921875">
        <ele>539.79998779296875</ele>
        <time>2026-08-21T22:33:12.000Z</time>
        <extensions>
          <ns3:TrackPointExtension>
            <ns3:hr>128</ns3:hr>
            <ns3:cad>77</ns3:cad>
          </ns3:TrackPointExtension>
        </extensions>
      </trkpt>
      <trkpt lat="45.32793969847261905670166015625" lon="-71.06293489225208759307861328125">
        <ele>539.79998779296875</ele>
        <time>2026-08-21T22:33:13.000Z</time>
        <extensions>
          <ns3:TrackPointExtension>
            <ns3:hr>129</ns3:hr>
            <ns3:cad>77</ns3:cad>
          </ns3:TrackPointExtension>
        </extensions>
      </trkpt>
      <trkpt lat="45.32792042009532451629638671875" lon="-71.06292684562504291534423828125">
        <ele>540</ele>
        <time>2026-08-21T22:33:14.000Z</time>
        <extensions>
          <ns3:TrackPointExtension>
            <ns3:hr>129</ns3:hr>
            <ns3:cad>78</ns3:cad>
          </ns3:TrackPointExtension>
        </extensions>
      </trkpt>
      <trkpt lat="45.32790164463222026824951171875" lon="-71.06291343457996845245361328125">
        <ele>540</ele>
        <time>2026-08-21T22:33:15.000Z</time>
        <extensions>
          <ns3:TrackPointExtension>
            <ns3:hr>128</ns3:hr>
            <ns3:cad>78</ns3:cad>
          </ns3:TrackPointExtension>
        </extensions>
      </trkpt>
      <trkpt lat="45.32788219861686229705810546875" lon="-71.0629037953913211822509765625">
        <ele>540.20001220703125</ele>
        <time>2026-08-21T22:33:16.000Z</time>
        <extensions>
          <ns3:TrackPointExtension>
            <ns3:hr>129</ns3:hr>
            <ns3:cad>78</ns3:cad>
          </ns3:TrackPointExtension>
        </extensions>
      </trkpt>
      <trkpt lat="45.327862165868282318115234375" lon="-71.0628974251449108123779296875">
        <ele>540.4000244140625</ele>
        <time>2026-08-21T22:33:17.000Z</time>
        <extensions>
          <ns3:TrackPointExtension>
            <ns3:hr>129</ns3:hr>
            <ns3:cad>78</ns3:cad>
          </ns3:TrackPointExtension>
        </extensions>
      </trkpt>
      <trkpt lat="45.3278412111103534698486328125" lon="-71.062890551984310150146484375">
        <ele>540.4000244140625</ele>
        <time>2026-08-21T22:33:18.000Z</time>
        <extensions>
          <ns3:TrackPointExtension>
            <ns3:hr>128</ns3:hr>
            <ns3:cad>78</ns3:cad>
          </ns3:TrackPointExtension>
        </extensions>
      </trkpt>
      <trkpt lat="45.327822268009185791015625" lon="-71.062879152595996856689453125">
        <ele>540.5999755859375</ele>
        <time>2026-08-21T22:33:19.000Z</time>
        <extensions>
          <ns3:TrackPointExtension>
            <ns3:hr>129</ns3:hr>
            <ns3:cad>79</ns3:cad>
          </ns3:TrackPointExtension>
        </extensions>
      </trkpt>
      <trkpt lat="45.3277993015944957733154296875" lon="-71.06286666356027126312255859375">
        <ele>540.5999755859375</ele>
        <time>2026-08-21T22:33:20.000Z</time>
        <extensions>
          <ns3:TrackPointExtension>
            <ns3:hr>129</ns3:hr>
            <ns3:cad>79</ns3:cad>
          </ns3:TrackPointExtension>
        </extensions>
      </trkpt>
      <trkpt lat="45.327777005732059478759765625" lon="-71.062861047685146331787109375">
        <ele>540.79998779296875</ele>
        <time>2026-08-21T22:33:21.000Z</time>
        <extensions>
          <ns3:TrackPointExtension>
            <ns3:hr>129</ns3:hr>
            <ns3:cad>79</ns3:cad>
          </ns3:TrackPointExtension>
        </extensions>
      </trkpt>
      <trkpt lat="45.32775278203189373016357421875" lon="-71.062853671610355377197265625">
        <ele>540.79998779296875</ele>
        <time>2026-08-21T22:33:22.000Z</time>
        <extensions>
          <ns3:TrackPointExtension>
            <ns3:hr>130</ns3:hr>
            <ns3:cad>79</ns3:cad>
          </ns3:TrackPointExtension>
        </extensions>
      </trkpt>
      <trkpt lat="45.327734760940074920654296875" lon="-71.062839590013027191162109375">
        <ele>541</ele>
        <time>2026-08-21T22:33:23.000Z</time>
        <extensions>
          <ns3:TrackPointExtension>
            <ns3:hr>130</ns3:hr>
            <ns3:cad>79</ns3:cad>
          </ns3:TrackPointExtension>
        </extensions>
      </trkpt>
      <trkpt lat="45.32771657221019268035888671875" lon="-71.06282944791018962860107421875">
        <ele>541</ele>
        <time>2026-08-21T22:33:24.000Z</time>
        <extensions>
          <ns3:TrackPointExtension>
            <ns3:hr>131</ns3:hr>
            <ns3:cad>79</ns3:cad>
          </ns3:TrackPointExtension>
        </extensions>
      </trkpt>
      <trkpt lat="45.32769712619483470916748046875" lon="-71.06282156892120838165283203125">
        <ele>541.20001220703125</ele>
        <time>2026-08-21T22:33:25.000Z</time>
        <extensions>
          <ns3:TrackPointExtension>
            <ns3:hr>132</ns3:hr>
            <ns3:cad>79</ns3:cad>
          </ns3:TrackPointExtension>
        </extensions>
      </trkpt>
      <trkpt lat="45.32767784781754016876220703125" lon="-71.0628139413893222808837890625">
        <ele>541.20001220703125</ele>
        <time>2026-08-21T22:33:26.000Z</time>
        <extensions>
          <ns3:TrackPointExtension>
            <ns3:hr>132</ns3:hr>
            <ns3:cad>79</ns3:cad>
          </ns3:TrackPointExtension>
        </extensions>
      </trkpt>
      <trkpt lat="45.32765932381153106689453125" lon="-71.06280765496194362640380859375">
        <ele>541.4000244140625</ele>
        <time>2026-08-21T22:33:27.000Z</time>
        <extensions>
          <ns3:TrackPointExtension>
            <ns3:hr>132</ns3:hr>
            <ns3:cad>79</ns3:cad>
          </ns3:TrackPointExtension>
        </extensions>
      </trkpt>
      <trkpt lat="45.3276427276432514190673828125" lon="-71.06280430220067501068115234375">
        <ele>541.4000244140625</ele>
        <time>2026-08-21T22:33:28.000Z</time>
        <extensions>
          <ns3:TrackPointExtension>
            <ns3:hr>133</ns3:hr>
            <ns3:cad>79</ns3:cad>
          </ns3:TrackPointExtension>
        </extensions>
      </trkpt>
      <trkpt lat="45.32762135379016399383544921875" lon="-71.0627996921539306640625">
        <ele>541.4000244140625</ele>
        <time>2026-08-21T22:33:29.000Z</time>
        <extensions>
          <ns3:TrackPointExtension>
            <ns3:hr>133</ns3:hr>
            <ns3:cad>79</ns3:cad>
          </ns3:TrackPointExtension>
        </extensions>
      </trkpt>
      <trkpt lat="45.32760358415544033050537109375" lon="-71.06279374100267887115478515625">
        <ele>541.5999755859375</ele>
        <time>2026-08-21T22:33:30.000Z</time>
        <extensions>
          <ns3:TrackPointExtension>
            <ns3:hr>133</ns3:hr>
            <ns3:cad>79</ns3:cad>
          </ns3:TrackPointExtension>
        </extensions>
      </trkpt>
      <trkpt lat="45.3275847248733043670654296875" lon="-71.0627851076424121856689453125">
        <ele>541.5999755859375</ele>
        <time>2026-08-21T22:33:31.000Z</time>
        <extensions>
          <ns3:TrackPointExtension>
            <ns3:hr>133</ns3:hr>
            <ns3:cad>79</ns3:cad>
          </ns3:TrackPointExtension>
        </extensions>
      </trkpt>
      <trkpt lat="45.327565781772136688232421875" lon="-71.0627794079482555389404296875">
        <ele>541.79998779296875</ele>
        <time>2026-08-21T22:33:32.000Z</time>
        <extensions>
          <ns3:TrackPointExtension>
            <ns3:hr>134</ns3:hr>
            <ns3:cad>78</ns3:cad>
          </ns3:TrackPointExtension>
        </extensions>
      </trkpt>
      <trkpt lat="45.3275454975664615631103515625" lon="-71.06277630664408206939697265625">
        <ele>542</ele>
        <time>2026-08-21T22:33:33.000Z</time>
        <extensions>
          <ns3:TrackPointExtension>
            <ns3:hr>134</ns3:hr>
            <ns3:cad>78</ns3:cad>
          </ns3:TrackPointExtension>
        </extensions>
      </trkpt>
      <trkpt lat="45.32752479426562786102294921875" lon="-71.0627720318734645843505859375">
        <ele>542</ele>
        <time>2026-08-21T22:33:34.000Z</time>
        <extensions>
          <ns3:TrackPointExtension>
            <ns3:hr>135</ns3:hr>
            <ns3:cad>77</ns3:cad>
          </ns3:TrackPointExtension>
        </extensions>
      </trkpt>
      <trkpt lat="45.32750685699284076690673828125" lon="-71.062767505645751953125">
        <ele>542</ele>
        <time>2026-08-21T22:33:35.000Z</time>
        <extensions>
          <ns3:TrackPointExtension>
            <ns3:hr>136</ns3:hr>
            <ns3:cad>77</ns3:cad>
          </ns3:TrackPointExtension>
        </extensions>
      </trkpt>
      <trkpt lat="45.3274891711771488189697265625" lon="-71.06276406906545162200927734375">
        <ele>542.20001220703125</ele>
        <time>2026-08-21T22:33:36.000Z</time>
        <extensions>
          <ns3:TrackPointExtension>
            <ns3:hr>136</ns3:hr>
            <ns3:cad>77</ns3:cad>
          </ns3:TrackPointExtension>
        </extensions>
      </trkpt>
      <trkpt lat="45.3274744190275669097900390625" lon="-71.06275535188615322113037109375">
        <ele>542.20001220703125</ele>
        <time>2026-08-21T22:33:37.000Z</time>
        <extensions>
          <ns3:TrackPointExtension>
            <ns3:hr>137</ns3:hr>
            <ns3:cad>77</ns3:cad>
          </ns3:TrackPointExtension>
        </extensions>
      </trkpt>
      <trkpt lat="45.3274563141167163848876953125" lon="-71.0627448745071887969970703125">
        <ele>542.20001220703125</ele>
        <time>2026-08-21T22:33:38.000Z</time>
        <extensions>
          <ns3:TrackPointExtension>
            <ns3:hr>137</ns3:hr>
            <ns3:cad>77</ns3:cad>
          </ns3:TrackPointExtension>
        </extensions>
      </trkpt>
      <trkpt lat="45.32743795774877071380615234375" lon="-71.0627331398427486419677734375">
        <ele>542.20001220703125</ele>
        <time>2026-08-21T22:33:39.000Z</time>
        <extensions>
          <ns3:TrackPointExtension>
            <ns3:hr>137</ns3:hr>
            <ns3:cad>77</ns3:cad>
          </ns3:TrackPointExtension>
        </extensions>
      </trkpt>
      <trkpt lat="45.32742018811404705047607421875" lon="-71.06271847151219844818115234375">
        <ele>542.20001220703125</ele>
        <time>2026-08-21T22:33:40.000Z</time>
        <extensions>
          <ns3:TrackPointExtension>
            <ns3:hr>137</ns3:hr>
            <ns3:cad>77</ns3:cad>
          </ns3:TrackPointExtension>
        </extensions>
      </trkpt>
      <trkpt lat="45.327403508126735687255859375" lon="-71.06270656920969486236572265625">
        <ele>542.4000244140625</ele>
        <time>2026-08-21T22:33:41.000Z</time>
        <extensions>
          <ns3:TrackPointExtension>
            <ns3:hr>137</ns3:hr>
            <ns3:cad>77</ns3:cad>
          </ns3:TrackPointExtension>
        </extensions>
      </trkpt>
      <trkpt lat="45.32738531939685344696044921875" lon="-71.06269634328782558441162109375">
        <ele>542.4000244140625</ele>
        <time>2026-08-21T22:33:42.000Z</time>
        <extensions>
          <ns3:TrackPointExtension>
            <ns3:hr>137</ns3:hr>
            <ns3:cad>77</ns3:cad>
          </ns3:TrackPointExtension>
        </extensions>
      </trkpt>
      <trkpt lat="45.327371656894683837890625" lon="-71.06268527917563915252685546875">
        <ele>542.4000244140625</ele>
        <time>2026-08-21T22:33:43.000Z</time>
        <extensions>
          <ns3:TrackPointExtension>
            <ns3:hr>137</ns3:hr>
            <ns3:cad>77</ns3:cad>
          </ns3:TrackPointExtension>
        </extensions>
      </trkpt>
      <trkpt lat="45.32735933549702167510986328125" lon="-71.06267270632088184356689453125">
        <ele>542.5999755859375</ele>
        <time>2026-08-21T22:33:44.000Z</time>
        <extensions>
          <ns3:TrackPointExtension>
            <ns3:hr>136</ns3:hr>
            <ns3:cad>77</ns3:cad>
          </ns3:TrackPointExtension>
        </extensions>
      </trkpt>
      <trkpt lat="45.327347181737422943115234375" lon="-71.06265485286712646484375">
        <ele>542.5999755859375</ele>
        <time>2026-08-21T22:33:45.000Z</time>
        <extensions>
          <ns3:TrackPointExtension>
            <ns3:hr>137</ns3:hr>
            <ns3:cad>77</ns3:cad>
          </ns3:TrackPointExtension>
        </extensions>
      </trkpt>
      <trkpt lat="45.32733469270169734954833984375" lon="-71.062638424336910247802734375">
        <ele>542.5999755859375</ele>
        <time>2026-08-21T22:33:46.000Z</time>
        <extensions>
          <ns3:TrackPointExtension>
            <ns3:hr>137</ns3:hr>
            <ns3:cad>77</ns3:cad>
          </ns3:TrackPointExtension>
        </extensions>
      </trkpt>
      <trkpt lat="45.32732027582824230194091796875" lon="-71.06262459419667720794677734375">
        <ele>542.79998779296875</ele>
        <time>2026-08-21T22:33:47.000Z</time>
        <extensions>
          <ns3:TrackPointExtension>
            <ns3:hr>137</ns3:hr>
            <ns3:cad>77</ns3:cad>
          </ns3:TrackPointExtension>
        </extensions>
      </trkpt>
      <trkpt lat="45.32730585895478725433349609375" lon="-71.06261151842772960662841796875">
        <ele>542.79998779296875</ele>
        <time>2026-08-21T22:33:48.000Z</time>
        <extensions>
          <ns3:TrackPointExtension>
            <ns3:hr>137</ns3:hr>
            <ns3:cad>77</ns3:cad>
          </ns3:TrackPointExtension>
        </extensions>
      </trkpt>
      <trkpt lat="45.32729177735745906829833984375" lon="-71.06259517371654510498046875">
        <ele>543</ele>
        <time>2026-08-21T22:33:49.000Z</time>
        <extensions>
          <ns3:TrackPointExtension>
            <ns3:hr>137</ns3:hr>
            <ns3:cad>77</ns3:cad>
          </ns3:TrackPointExtension>
        </extensions>
      </trkpt>
      <trkpt lat="45.32727903686463832855224609375" lon="-71.06257933191955089569091796875">
        <ele>543</ele>
        <time>2026-08-21T22:33:50.000Z</time>
        <extensions>
          <ns3:TrackPointExtension>
            <ns3:hr>137</ns3:hr>
            <ns3:cad>77</ns3:cad>
          </ns3:TrackPointExtension>
        </extensions>
      </trkpt>
      <trkpt lat="45.32726411707699298858642578125" lon="-71.06256139464676380157470703125">
        <ele>543.20001220703125</ele>
        <time>2026-08-21T22:33:51.000Z</time>
        <extensions>
          <ns3:TrackPointExtension>
            <ns3:hr>137</ns3:hr>
            <ns3:cad>77</ns3:cad>
          </ns3:TrackPointExtension>
        </extensions>
      </trkpt>
      <trkpt lat="45.3272447548806667327880859375" lon="-71.06254823505878448486328125">
        <ele>543.20001220703125</ele>
        <time>2026-08-21T22:33:52.000Z</time>
        <extensions>
          <ns3:TrackPointExtension>
            <ns3:hr>138</ns3:hr>
            <ns3:cad>77</ns3:cad>
          </ns3:TrackPointExtension>
        </extensions>
      </trkpt>
      <trkpt lat="45.32722748816013336181640625" lon="-71.06253541074693202972412109375">
        <ele>543.20001220703125</ele>
        <time>2026-08-21T22:33:53.000Z</time>
        <extensions>
          <ns3:TrackPointExtension>
            <ns3:hr>138</ns3:hr>
            <ns3:cad>77</ns3:cad>
          </ns3:TrackPointExtension>
        </extensions>
      </trkpt>
      <trkpt lat="45.3272095508873462677001953125" lon="-71.06251948513090610504150390625">
        <ele>543.4000244140625</ele>
        <time>2026-08-21T22:33:54.000Z</time>
        <extensions>
          <ns3:TrackPointExtension>
            <ns3:hr>138</ns3:hr>
            <ns3:cad>77</ns3:cad>
          </ns3:TrackPointExtension>
        </extensions>
      </trkpt>
      <trkpt lat="45.3271879255771636962890625" lon="-71.0625034756958484649658203125">
        <ele>543.5999755859375</ele>
        <time>2026-08-21T22:33:55.000Z</time>
        <extensions>
          <ns3:TrackPointExtension>
            <ns3:hr>138</ns3:hr>
            <ns3:cad>77</ns3:cad>
          </ns3:TrackPointExtension>
        </extensions>
      </trkpt>
      <trkpt lat="45.32717007212340831756591796875" lon="-71.062488555908203125">
        <ele>543.5999755859375</ele>
        <time>2026-08-21T22:33:56.000Z</time>
        <extensions>
          <ns3:TrackPointExtension>
            <ns3:hr>138</ns3:hr>
            <ns3:cad>77</ns3:cad>
          </ns3:TrackPointExtension>
        </extensions>
      </trkpt>
      <trkpt lat="45.3271542303264141082763671875" lon="-71.0624682717025279998779296875">
        <ele>543.5999755859375</ele>
        <time>2026-08-21T22:33:57.000Z</time>
        <extensions>
          <ns3:TrackPointExtension>
            <ns3:hr>138</ns3:hr>
            <ns3:cad>77</ns3:cad>
          </ns3:TrackPointExtension>
        </extensions>
      </trkpt>
      <trkpt lat="45.3271391429007053375244140625" lon="-71.06245175935328006744384765625">
        <ele>543.79998779296875</ele>
        <time>2026-08-21T22:33:58.000Z</time>
        <extensions>
          <ns3:TrackPointExtension>
            <ns3:hr>138</ns3:hr>
            <ns3:cad>77</ns3:cad>
          </ns3:TrackPointExtension>
        </extensions>
      </trkpt>
      <trkpt lat="45.3271213732659816741943359375" lon="-71.0624320618808269500732421875">
        <ele>544</ele>
        <time>2026-08-21T22:33:59.000Z</time>
        <extensions>
          <ns3:TrackPointExtension>
            <ns3:hr>138</ns3:hr>
            <ns3:cad>77</ns3:cad>
          </ns3:TrackPointExtension>
        </extensions>
      </trkpt>
      <trkpt lat="45.3270989097654819488525390625" lon="-71.06241655535995960235595703125">
        <ele>544</ele>
        <time>2026-08-21T22:34:00.000Z</time>
        <extensions>
          <ns3:TrackPointExtension>
            <ns3:hr>138</ns3:hr>
            <ns3:cad>40</ns3:cad>
          </ns3:TrackPointExtension>
        </extensions>
      </trkpt>
      <trkpt lat="45.32708273269236087799072265625" lon="-71.06240599416196346282958984375">
        <ele>544</ele>
        <time>2026-08-21T22:34:01.000Z</time>
        <extensions>
          <ns3:TrackPointExtension>
            <ns3:hr>138</ns3:hr>
            <ns3:cad>40</ns3:cad>
          </ns3:TrackPointExtension>
        </extensions>
      </trkpt>
      <trkpt lat="45.32706261612474918365478515625" lon="-71.06239442713558673858642578125">
        <ele>544.20001220703125</ele>
        <time>2026-08-21T22:34:02.000Z</time>
        <extensions>
          <ns3:TrackPointExtension>
            <ns3:hr>137</ns3:hr>
            <ns3:cad>40</ns3:cad>
          </ns3:TrackPointExtension>
        </extensions>
      </trkpt>
      <trkpt lat="45.3270439244806766510009765625" lon="-71.06238436885178089141845703125">
        <ele>544.20001220703125</ele>
        <time>2026-08-21T22:34:03.000Z</time>
        <extensions>
          <ns3:TrackPointExtension>
            <ns3:hr>138</ns3:hr>
            <ns3:cad>40</ns3:cad>
          </ns3:TrackPointExtension>
        </extensions>
      </trkpt>
      <trkpt lat="45.3270248137414455413818359375" lon="-71.0623747296631336212158203125">
        <ele>544.20001220703125</ele>
        <time>2026-08-21T22:34:04.000Z</time>
        <extensions>
          <ns3:TrackPointExtension>
            <ns3:hr>138</ns3:hr>
            <ns3:cad>40</ns3:cad>
          </ns3:TrackPointExtension>
        </extensions>
      </trkpt>
      <trkpt lat="45.32700511626899242401123046875" lon="-71.0623660124838352203369140625">
        <ele>544.4000244140625</ele>
        <time>2026-08-21T22:34:05.000Z</time>
        <extensions>
          <ns3:TrackPointExtension>
            <ns3:hr>139</ns3:hr>
            <ns3:cad>78</ns3:cad>
          </ns3:TrackPointExtension>
        </extensions>
      </trkpt>
      <trkpt lat="45.32698449678719043731689453125" lon="-71.0623606480658054351806640625">
        <ele>544.4000244140625</ele>
        <time>2026-08-21T22:34:06.000Z</time>
        <extensions>
          <ns3:TrackPointExtension>
            <ns3:hr>139</ns3:hr>
            <ns3:cad>78</ns3:cad>
          </ns3:TrackPointExtension>
        </extensions>
      </trkpt>
      <trkpt lat="45.32696907408535480499267578125" lon="-71.0623549483716487884521484375">
        <ele>544.5999755859375</ele>
        <time>2026-08-21T22:34:07.000Z</time>
        <extensions>
          <ns3:TrackPointExtension>
            <ns3:hr>139</ns3:hr>
            <ns3:cad>78</ns3:cad>
          </ns3:TrackPointExtension>
        </extensions>
      </trkpt>
      <trkpt lat="45.32695381902158260345458984375" lon="-71.06234815903007984161376953125">
        <ele>544.5999755859375</ele>
        <time>2026-08-21T22:34:08.000Z</time>
        <extensions>
          <ns3:TrackPointExtension>
            <ns3:hr>138</ns3:hr>
            <ns3:cad>78</ns3:cad>
          </ns3:TrackPointExtension>
        </extensions>
      </trkpt>
      <trkpt lat="45.3269339539110660552978515625" lon="-71.062342710793018341064453125">
        <ele>544.79998779296875</ele>
        <time>2026-08-21T22:34:09.000Z</time>
        <extensions>
          <ns3:TrackPointExtension>
            <ns3:hr>138</ns3:hr>
            <ns3:cad>78</ns3:cad>
          </ns3:TrackPointExtension>
        </extensions>
      </trkpt>
      <trkpt lat="45.32691769301891326904296875" lon="-71.06233608908951282501220703125">
        <ele>544.79998779296875</ele>
        <time>2026-08-21T22:34:10.000Z</time>
        <extensions>
          <ns3:TrackPointExtension>
            <ns3:hr>139</ns3:hr>
            <ns3:cad>77</ns3:cad>
          </ns3:TrackPointExtension>
        </extensions>
      </trkpt>
      <trkpt lat="45.32689916901290416717529296875" lon="-71.0623301379382610321044921875">
        <ele>545</ele>
        <time>2026-08-21T22:34:11.000Z</time>
        <extensions>
          <ns3:TrackPointExtension>
            <ns3:hr>139</ns3:hr>
            <ns3:cad>77</ns3:cad>
          </ns3:TrackPointExtension>
        </extensions>
      </trkpt>
      <trkpt lat="45.3268829919397830963134765625" lon="-71.06232561171054840087890625">
        <ele>545</ele>
        <time>2026-08-21T22:34:12.000Z</time>
        <extensions>
          <ns3:TrackPointExtension>
            <ns3:hr>139</ns3:hr>
            <ns3:cad>77</ns3:cad>
          </ns3:TrackPointExtension>
        </extensions>
      </trkpt>
      <trkpt lat="45.326856337487697601318359375" lon="-71.06232083402574062347412109375">
        <ele>545.20001220703125</ele>
        <time>2026-08-21T22:34:13.000Z</time>
        <extensions>
          <ns3:TrackPointExtension>
            <ns3:hr>139</ns3:hr>
            <ns3:cad>77</ns3:cad>
          </ns3:TrackPointExtension>
        </extensions>
      </trkpt>
      <trkpt lat="45.3268360532820224761962890625" lon="-71.06231261976063251495361328125">
        <ele>545.4000244140625</ele>
        <time>2026-08-21T22:34:14.000Z</time>
        <extensions>
          <ns3:TrackPointExtension>
            <ns3:hr>139</ns3:hr>
            <ns3:cad>77</ns3:cad>
          </ns3:TrackPointExtension>
        </extensions>
      </trkpt>
      <trkpt lat="45.32681585289537906646728515625" lon="-71.06230574660003185272216796875">
        <ele>545.5999755859375</ele>
        <time>2026-08-21T22:34:15.000Z</time>
        <extensions>
          <ns3:TrackPointExtension>
            <ns3:hr>140</ns3:hr>
            <ns3:cad>76</ns3:cad>
          </ns3:TrackPointExtension>
        </extensions>
      </trkpt>
      <trkpt lat="45.32679355703294277191162109375" lon="-71.06231085956096649169921875">
        <ele>545.5999755859375</ele>
        <time>2026-08-21T22:34:16.000Z</time>
        <extensions>
          <ns3:TrackPointExtension>
            <ns3:hr>140</ns3:hr>
            <ns3:cad>76</ns3:cad>
          </ns3:TrackPointExtension>
        </extensions>
      </trkpt>
      <trkpt lat="45.32677419483661651611328125" lon="-71.06231354176998138427734375">
        <ele>545.5999755859375</ele>
        <time>2026-08-21T22:34:17.000Z</time>
        <extensions>
          <ns3:TrackPointExtension>
            <ns3:hr>140</ns3:hr>
            <ns3:cad>75</ns3:cad>
          </ns3:TrackPointExtension>
        </extensions>
      </trkpt>
      <trkpt lat="45.326755084097385406494140625" lon="-71.06231153011322021484375">
        <ele>545.79998779296875</ele>
        <time>2026-08-21T22:34:18.000Z</time>
        <extensions>
          <ns3:TrackPointExtension>
            <ns3:hr>139</ns3:hr>
            <ns3:cad>75</ns3:cad>
          </ns3:TrackPointExtension>
        </extensions>
      </trkpt>
      <trkpt lat="45.32673505134880542755126953125" lon="-71.0623073391616344451904296875">
        <ele>545.79998779296875</ele>
        <time>2026-08-21T22:34:19.000Z</time>
        <extensions>
          <ns3:TrackPointExtension>
            <ns3:hr>139</ns3:hr>
            <ns3:cad>75</ns3:cad>
          </ns3:TrackPointExtension>
        </extensions>
      </trkpt>
      <trkpt lat="45.32671476714313030242919921875" lon="-71.0623021423816680908203125">
        <ele>545.79998779296875</ele>
        <time>2026-08-21T22:34:20.000Z</time>
        <extensions>
          <ns3:TrackPointExtension>
            <ns3:hr>139</ns3:hr>
            <ns3:cad>76</ns3:cad>
          </ns3:TrackPointExtension>
        </extensions>
      </trkpt>
      <trkpt lat="45.32669565640389919281005859375" lon="-71.06229619123041629791259765625">
        <ele>546</ele>
        <time>2026-08-21T22:34:21.000Z</time>
        <extensions>
          <ns3:TrackPointExtension>
            <ns3:hr>139</ns3:hr>
            <ns3:cad>76</ns3:cad>
          </ns3:TrackPointExtension>
        </extensions>
      </trkpt>
      <trkpt lat="45.32668031752109527587890625" lon="-71.06228814460337162017822265625">
        <ele>546</ele>
        <time>2026-08-21T22:34:22.000Z</time>
        <extensions>
          <ns3:TrackPointExtension>
            <ns3:hr>139</ns3:hr>
            <ns3:cad>0</ns3:cad>
          </ns3:TrackPointExtension>
        </extensions>
      </trkpt>
      <trkpt lat="45.32666648738086223602294921875" lon="-71.06228546239435672760009765625">
        <ele>546.20001220703125</ele>
        <time>2026-08-21T22:34:23.000Z</time>
        <extensions>
          <ns3:TrackPointExtension>
            <ns3:hr>140</ns3:hr>
            <ns3:cad>0</ns3:cad>
          </ns3:TrackPointExtension>
        </extensions>
      </trkpt>
      <trkpt lat="45.32664888538420200347900390625" lon="-71.06228764168918132781982421875">
        <ele>546.20001220703125</ele>
        <time>2026-08-21T22:34:24.000Z</time>
        <extensions>
          <ns3:TrackPointExtension>
            <ns3:hr>139</ns3:hr>
            <ns3:cad>0</ns3:cad>
          </ns3:TrackPointExtension>
        </extensions>
      </trkpt>
      <trkpt lat="45.32663614489138126373291015625" lon="-71.06228412128984928131103515625">
        <ele>546.4000244140625</ele>
        <time>2026-08-21T22:34:25.000Z</time>
        <extensions>
          <ns3:TrackPointExtension>
            <ns3:hr>139</ns3:hr>
            <ns3:cad>57</ns3:cad>
          </ns3:TrackPointExtension>
        </extensions>
      </trkpt>
      <trkpt lat="45.32662290148437023162841796875" lon="-71.06228328309953212738037109375">
        <ele>546.4000244140625</ele>
        <time>2026-08-21T22:34:26.000Z</time>
        <extensions>
          <ns3:TrackPointExtension>
            <ns3:hr>140</ns3:hr>
            <ns3:cad>57</ns3:cad>
          </ns3:TrackPointExtension>
        </extensions>
      </trkpt>
      <trkpt lat="45.326607562601566314697265625" lon="-71.0622835345566272735595703125">
        <ele>546.5999755859375</ele>
        <time>2026-08-21T22:34:27.000Z</time>
        <extensions>
          <ns3:TrackPointExtension>
            <ns3:hr>140</ns3:hr>
            <ns3:cad>57</ns3:cad>
          </ns3:TrackPointExtension>
        </extensions>
      </trkpt>
      <trkpt lat="45.32659540884196758270263671875" lon="-71.0622831992805004119873046875">
        <ele>546.5999755859375</ele>
        <time>2026-08-21T22:34:28.000Z</time>
        <extensions>
          <ns3:TrackPointExtension>
            <ns3:hr>140</ns3:hr>
            <ns3:cad>57</ns3:cad>
          </ns3:TrackPointExtension>
        </extensions>
      </trkpt>
      <trkpt lat="45.326580740511417388916015625" lon="-71.062283031642436981201171875">
        <ele>546.5999755859375</ele>
        <time>2026-08-21T22:34:29.000Z</time>
        <extensions>
          <ns3:TrackPointExtension>
            <ns3:hr>140</ns3:hr>
            <ns3:cad>57</ns3:cad>
          </ns3:TrackPointExtension>
        </extensions>
      </trkpt>
      <trkpt lat="45.32656607218086719512939453125" lon="-71.0622801817953586578369140625">
        <ele>546.79998779296875</ele>
        <time>2026-08-21T22:34:30.000Z</time>
        <extensions>
          <ns3:TrackPointExtension>
            <ns3:hr>140</ns3:hr>
            <ns3:cad>56</ns3:cad>
          </ns3:TrackPointExtension>
        </extensions>
      </trkpt>
      <trkpt lat="45.32654612325131893157958984375" lon="-71.0622741468250751495361328125">
        <ele>546.79998779296875</ele>
        <time>2026-08-21T22:34:31.000Z</time>
        <extensions>
          <ns3:TrackPointExtension>
            <ns3:hr>140</ns3:hr>
            <ns3:cad>56</ns3:cad>
          </ns3:TrackPointExtension>
        </extensions>
      </trkpt>
      <trkpt lat="45.32652550376951694488525390625" lon="-71.062268950045108795166015625">
        <ele>546.79998779296875</ele>
        <time>2026-08-21T22:34:32.000Z</time>
        <extensions>
          <ns3:TrackPointExtension>
            <ns3:hr>139</ns3:hr>
            <ns3:cad>56</ns3:cad>
          </ns3:TrackPointExtension>
        </extensions>
      </trkpt>
      <trkpt lat="45.32650756649672985076904296875" lon="-71.0622654296457767486572265625">
        <ele>547</ele>
        <time>2026-08-21T22:34:33.000Z</time>
        <extensions>
          <ns3:TrackPointExtension>
            <ns3:hr>139</ns3:hr>
            <ns3:cad>56</ns3:cad>
          </ns3:TrackPointExtension>
        </extensions>
      </trkpt>
      <trkpt lat="45.32649432308971881866455078125" lon="-71.06226165778934955596923828125">
        <ele>547.20001220703125</ele>
        <time>2026-08-21T22:34:34.000Z</time>
        <extensions>
          <ns3:TrackPointExtension>
            <ns3:hr>139</ns3:hr>
            <ns3:cad>57</ns3:cad>
          </ns3:TrackPointExtension>
        </extensions>
      </trkpt>
      <trkpt lat="45.3264806605875492095947265625" lon="-71.06225662864744663238525390625">
        <ele>547.20001220703125</ele>
        <time>2026-08-21T22:34:35.000Z</time>
        <extensions>
          <ns3:TrackPointExtension>
            <ns3:hr>138</ns3:hr>
            <ns3:cad>57</ns3:cad>
          </ns3:TrackPointExtension>
        </extensions>
      </trkpt>
      <trkpt lat="45.3264675848186016082763671875" lon="-71.0622547008097171783447265625">
        <ele>547.4000244140625</ele>
        <time>2026-08-21T22:34:36.000Z</time>
        <extensions>
          <ns3:TrackPointExtension>
            <ns3:hr>138</ns3:hr>
            <ns3:cad>57</ns3:cad>
          </ns3:TrackPointExtension>
        </extensions>
      </trkpt>
      <trkpt lat="45.3264524973928928375244140625" lon="-71.06225411407649517059326171875">
        <ele>547.4000244140625</ele>
        <time>2026-08-21T22:34:37.000Z</time>
        <extensions>
          <ns3:TrackPointExtension>
            <ns3:hr>138</ns3:hr>
            <ns3:cad>57</ns3:cad>
          </ns3:TrackPointExtension>
        </extensions>
      </trkpt>
      <trkpt lat="45.32643581740558147430419921875" lon="-71.0622493363916873931884765625">
        <ele>547.4000244140625</ele>
        <time>2026-08-21T22:34:38.000Z</time>
        <extensions>
          <ns3:TrackPointExtension>
            <ns3:hr>138</ns3:hr>
            <ns3:cad>57</ns3:cad>
          </ns3:TrackPointExtension>
        </extensions>
      </trkpt>
      <trkpt lat="45.32641955651342868804931640625" lon="-71.06224422343075275421142578125">
        <ele>547.5999755859375</ele>
        <time>2026-08-21T22:34:39.000Z</time>
        <extensions>
          <ns3:TrackPointExtension>
            <ns3:hr>138</ns3:hr>
            <ns3:cad>58</ns3:cad>
          </ns3:TrackPointExtension>
        </extensions>
      </trkpt>
      <trkpt lat="45.32640296034514904022216796875" lon="-71.0622376017272472381591796875">
        <ele>547.5999755859375</ele>
        <time>2026-08-21T22:34:40.000Z</time>
        <extensions>
          <ns3:TrackPointExtension>
            <ns3:hr>138</ns3:hr>
            <ns3:cad>58</ns3:cad>
          </ns3:TrackPointExtension>
        </extensions>
      </trkpt>
      <trkpt lat="45.3263874538242816925048828125" lon="-71.06223315931856632232666015625">
        <ele>547.79998779296875</ele>
        <time>2026-08-21T22:34:41.000Z</time>
        <extensions>
          <ns3:TrackPointExtension>
            <ns3:hr>138</ns3:hr>
            <ns3:cad>58</ns3:cad>
          </ns3:TrackPointExtension>
        </extensions>
      </trkpt>
      <trkpt lat="45.3263683430850505828857421875" lon="-71.06222913600504398345947265625">
        <ele>547.79998779296875</ele>
        <time>2026-08-21T22:34:42.000Z</time>
        <extensions>
          <ns3:TrackPointExtension>
            <ns3:hr>138</ns3:hr>
            <ns3:cad>58</ns3:cad>
          </ns3:TrackPointExtension>
        </extensions>
      </trkpt>
      <trkpt lat="45.32635132782161235809326171875" lon="-71.06222494505345821380615234375">
        <ele>548</ele>
        <time>2026-08-21T22:34:43.000Z</time>
        <extensions>
          <ns3:TrackPointExtension>
            <ns3:hr>139</ns3:hr>
            <ns3:cad>58</ns3:cad>
          </ns3:TrackPointExtension>
        </extensions>
      </trkpt>
      <trkpt lat="45.32633573748171329498291015625" lon="-71.06221924535930156707763671875">
        <ele>548</ele>
        <time>2026-08-21T22:34:44.000Z</time>
        <extensions>
          <ns3:TrackPointExtension>
            <ns3:hr>139</ns3:hr>
            <ns3:cad>58</ns3:cad>
          </ns3:TrackPointExtension>
        </extensions>
      </trkpt>
      <trkpt lat="45.32631712965667247772216796875" lon="-71.062217317521572113037109375">
        <ele>548</ele>
        <time>2026-08-21T22:34:45.000Z</time>
        <extensions>
          <ns3:TrackPointExtension>
            <ns3:hr>139</ns3:hr>
            <ns3:cad>58</ns3:cad>
          </ns3:TrackPointExtension>
        </extensions>
      </trkpt>
      <trkpt lat="45.32630103640258312225341796875" lon="-71.06221430003643035888671875">
        <ele>548.20001220703125</ele>
        <time>2026-08-21T22:34:46.000Z</time>
        <extensions>
          <ns3:TrackPointExtension>
            <ns3:hr>140</ns3:hr>
            <ns3:cad>57</ns3:cad>
          </ns3:TrackPointExtension>
        </extensions>
      </trkpt>
      <trkpt lat="45.326283685863018035888671875" lon="-71.06221161782741546630859375">
        <ele>548.20001220703125</ele>
        <time>2026-08-21T22:34:47.000Z</time>
        <extensions>
          <ns3:TrackPointExtension>
            <ns3:hr>139</ns3:hr>
            <ns3:cad>57</ns3:cad>
          </ns3:TrackPointExtension>
        </extensions>
      </trkpt>
      <trkpt lat="45.3262687660753726959228515625" lon="-71.0622064210474491119384765625">
        <ele>548.4000244140625</ele>
        <time>2026-08-21T22:34:48.000Z</time>
        <extensions>
          <ns3:TrackPointExtension>
            <ns3:hr>139</ns3:hr>
            <ns3:cad>57</ns3:cad>
          </ns3:TrackPointExtension>
        </extensions>
      </trkpt>
      <trkpt lat="45.32625074498355388641357421875" lon="-71.06220382265746593475341796875">
        <ele>548.4000244140625</ele>
        <time>2026-08-21T22:34:49.000Z</time>
        <extensions>
          <ns3:TrackPointExtension>
            <ns3:hr>138</ns3:hr>
            <ns3:cad>57</ns3:cad>
          </ns3:TrackPointExtension>
        </extensions>
      </trkpt>
      <trkpt lat="45.32623565755784511566162109375" lon="-71.062195859849452972412109375">
        <ele>548.5999755859375</ele>
        <time>2026-08-21T22:34:50.000Z</time>
        <extensions>
          <ns3:TrackPointExtension>
            <ns3:hr>138</ns3:hr>
            <ns3:cad>57</ns3:cad>
          </ns3:TrackPointExtension>
        </extensions>
      </trkpt>
      <trkpt lat="45.32622241415083408355712890625" lon="-71.0621873103082180023193359375">
        <ele>548.5999755859375</ele>
        <time>2026-08-21T22:34:51.000Z</time>
        <extensions>
          <ns3:TrackPointExtension>
            <ns3:hr>138</ns3:hr>
            <ns3:cad>56</ns3:cad>
          </ns3:TrackPointExtension>
        </extensions>
      </trkpt>
      <trkpt lat="45.3262089192867279052734375" lon="-71.06218337081372737884521484375">
        <ele>548.5999755859375</ele>
        <time>2026-08-21T22:34:52.000Z</time>
        <extensions>
          <ns3:TrackPointExtension>
            <ns3:hr>138</ns3:hr>
            <ns3:cad>56</ns3:cad>
          </ns3:TrackPointExtension>
        </extensions>
      </trkpt>
      <trkpt lat="45.32619760371744632720947265625" lon="-71.06218068860471248626708984375">
        <ele>548.79998779296875</ele>
        <time>2026-08-21T22:34:53.000Z</time>
        <extensions>
          <ns3:TrackPointExtension>
            <ns3:hr>138</ns3:hr>
            <ns3:cad>56</ns3:cad>
          </ns3:TrackPointExtension>
        </extensions>
      </trkpt>
      <trkpt lat="45.3261836059391498565673828125" lon="-71.06218119151890277862548828125">
        <ele>548.79998779296875</ele>
        <time>2026-08-21T22:34:54.000Z</time>
        <extensions>
          <ns3:TrackPointExtension>
            <ns3:hr>138</ns3:hr>
            <ns3:cad>57</ns3:cad>
          </ns3:TrackPointExtension>
        </extensions>
      </trkpt>
      <trkpt lat="45.326164327561855316162109375" lon="-71.06217633001506328582763671875">
        <ele>549</ele>
        <time>2026-08-21T22:34:55.000Z</time>
        <extensions>
          <ns3:TrackPointExtension>
            <ns3:hr>138</ns3:hr>
            <ns3:cad>57</ns3:cad>
          </ns3:TrackPointExtension>
        </extensions>
      </trkpt>
      <trkpt lat="45.3261541016399860382080078125" lon="-71.06217113323509693145751953125">
        <ele>549</ele>
        <time>2026-08-21T22:34:56.000Z</time>
        <extensions>
          <ns3:TrackPointExtension>
            <ns3:hr>138</ns3:hr>
            <ns3:cad>57</ns3:cad>
          </ns3:TrackPointExtension>
        </extensions>
      </trkpt>
      <trkpt lat="45.3261437080800533294677734375" lon="-71.06216509826481342315673828125">
        <ele>549.20001220703125</ele>
        <time>2026-08-21T22:34:57.000Z</time>
        <extensions>
          <ns3:TrackPointExtension>
            <ns3:hr>138</ns3:hr>
            <ns3:cad>57</ns3:cad>
          </ns3:TrackPointExtension>
        </extensions>
      </trkpt>
      <trkpt lat="45.32613046467304229736328125" lon="-71.06216124258935451507568359375">
        <ele>549.20001220703125</ele>
        <time>2026-08-21T22:34:58.000Z</time>
        <extensions>
          <ns3:TrackPointExtension>
            <ns3:hr>138</ns3:hr>
            <ns3:cad>56</ns3:cad>
          </ns3:TrackPointExtension>
        </extensions>
      </trkpt>
      <trkpt lat="45.3261152096092700958251953125" lon="-71.0621588118374347686767578125">
        <ele>549.4000244140625</ele>
        <time>2026-08-21T22:34:59.000Z</time>
        <extensions>
          <ns3:TrackPointExtension>
            <ns3:hr>138</ns3:hr>
            <ns3:cad>56</ns3:cad>
          </ns3:TrackPointExtension>
        </extensions>
      </trkpt>
      <trkpt lat="45.3260974399745464324951171875" lon="-71.06215520761907100677490234375">
        <ele>549.4000244140625</ele>
        <time>2026-08-21T22:35:00.000Z</time>
        <extensions>
          <ns3:TrackPointExtension>
            <ns3:hr>138</ns3:hr>
            <ns3:cad>56</ns3:cad>
          </ns3:TrackPointExtension>
        </extensions>
      </trkpt>
      <trkpt lat="45.32608293928205966949462890625" lon="-71.0621490888297557830810546875">
        <ele>549.5999755859375</ele>
        <time>2026-08-21T22:35:01.000Z</time>
        <extensions>
          <ns3:TrackPointExtension>
            <ns3:hr>138</ns3:hr>
            <ns3:cad>55</ns3:cad>
          </ns3:TrackPointExtension>
        </extensions>
      </trkpt>
      <trkpt lat="45.32607053406536579132080078125" lon="-71.062145568430423736572265625">
        <ele>549.5999755859375</ele>
        <time>2026-08-21T22:35:02.000Z</time>
        <extensions>
          <ns3:TrackPointExtension>
            <ns3:hr>138</ns3:hr>
            <ns3:cad>55</ns3:cad>
          </ns3:TrackPointExtension>
        </extensions>
      </trkpt>
      <trkpt lat="45.32605695538222789764404296875" lon="-71.0621454007923603057861328125">
        <ele>549.5999755859375</ele>
        <time>2026-08-21T22:35:03.000Z</time>
        <extensions>
          <ns3:TrackPointExtension>
            <ns3:hr>138</ns3:hr>
            <ns3:cad>56</ns3:cad>
          </ns3:TrackPointExtension>
        </extensions>
      </trkpt>
      <trkpt lat="45.3260399401187896728515625" lon="-71.0621477477252483367919921875">
        <ele>549.79998779296875</ele>
        <time>2026-08-21T22:35:04.000Z</time>
        <extensions>
          <ns3:TrackPointExtension>
            <ns3:hr>138</ns3:hr>
            <ns3:cad>57</ns3:cad>
          </ns3:TrackPointExtension>
        </extensions>
      </trkpt>
      <trkpt lat="45.326026864349842071533203125" lon="-71.06214649043977260589599609375">
        <ele>549.79998779296875</ele>
        <time>2026-08-21T22:35:05.000Z</time>
        <extensions>
          <ns3:TrackPointExtension>
            <ns3:hr>138</ns3:hr>
            <ns3:cad>57</ns3:cad>
          </ns3:TrackPointExtension>
        </extensions>
      </trkpt>
      <trkpt lat="45.32601504586637020111083984375" lon="-71.06214456260204315185546875">
        <ele>549.79998779296875</ele>
        <time>2026-08-21T22:35:06.000Z</time>
        <extensions>
          <ns3:TrackPointExtension>
            <ns3:hr>138</ns3:hr>
            <ns3:cad>57</ns3:cad>
          </ns3:TrackPointExtension>
        </extensions>
      </trkpt>
      <trkpt lat="45.32599811442196369171142578125" lon="-71.0621438920497894287109375">
        <ele>550</ele>
        <time>2026-08-21T22:35:07.000Z</time>
        <extensions>
          <ns3:TrackPointExtension>
            <ns3:hr>137</ns3:hr>
            <ns3:cad>57</ns3:cad>
          </ns3:TrackPointExtension>
        </extensions>
      </trkpt>
      <trkpt lat="45.32598160207271575927734375" lon="-71.06213827617466449737548828125">
        <ele>550</ele>
        <time>2026-08-21T22:35:08.000Z</time>
        <extensions>
          <ns3:TrackPointExtension>
            <ns3:hr>137</ns3:hr>
            <ns3:cad>57</ns3:cad>
          </ns3:TrackPointExtension>
        </extensions>
      </trkpt>
      <trkpt lat="45.3259648382663726806640625" lon="-71.0621353425085544586181640625">
        <ele>550.20001220703125</ele>
        <time>2026-08-21T22:35:09.000Z</time>
        <extensions>
          <ns3:TrackPointExtension>
            <ns3:hr>136</ns3:hr>
            <ns3:cad>57</ns3:cad>
          </ns3:TrackPointExtension>
        </extensions>
      </trkpt>
      <trkpt lat="45.3259482420980930328369140625" lon="-71.0621340014040470123291015625">
        <ele>550.20001220703125</ele>
        <time>2026-08-21T22:35:10.000Z</time>
        <extensions>
          <ns3:TrackPointExtension>
            <ns3:hr>136</ns3:hr>
            <ns3:cad>56</ns3:cad>
          </ns3:TrackPointExtension>
        </extensions>
      </trkpt>
      <trkpt lat="45.32593390904366970062255859375" lon="-71.06213207356631755828857421875">
        <ele>550.4000244140625</ele>
        <time>2026-08-21T22:35:11.000Z</time>
        <extensions>
          <ns3:TrackPointExtension>
            <ns3:hr>136</ns3:hr>
            <ns3:cad>56</ns3:cad>
          </ns3:TrackPointExtension>
        </extensions>
      </trkpt>
      <trkpt lat="45.325917564332485198974609375" lon="-71.06213307939469814300537109375">
        <ele>550.4000244140625</ele>
        <time>2026-08-21T22:35:12.000Z</time>
        <extensions>
          <ns3:TrackPointExtension>
            <ns3:hr>136</ns3:hr>
            <ns3:cad>56</ns3:cad>
          </ns3:TrackPointExtension>
        </extensions>
      </trkpt>
      <trkpt lat="45.32590591348707675933837890625" lon="-71.06213324703276157379150390625">
        <ele>550.4000244140625</ele>
        <time>2026-08-21T22:35:13.000Z</time>
        <extensions>
          <ns3:TrackPointExtension>
            <ns3:hr>135</ns3:hr>
            <ns3:cad>56</ns3:cad>
          </ns3:TrackPointExtension>
        </extensions>
      </trkpt>
      <trkpt lat="45.32589233480393886566162109375" lon="-71.0621329955756664276123046875">
        <ele>550.5999755859375</ele>
        <time>2026-08-21T22:35:14.000Z</time>
        <extensions>
          <ns3:TrackPointExtension>
            <ns3:hr>135</ns3:hr>
            <ns3:cad>56</ns3:cad>
          </ns3:TrackPointExtension>
        </extensions>
      </trkpt>
      <trkpt lat="45.32587573863565921783447265625" lon="-71.0621353425085544586181640625">
        <ele>550.5999755859375</ele>
        <time>2026-08-21T22:35:15.000Z</time>
        <extensions>
          <ns3:TrackPointExtension>
            <ns3:hr>134</ns3:hr>
            <ns3:cad>55</ns3:cad>
          </ns3:TrackPointExtension>
        </extensions>
      </trkpt>
      <trkpt lat="45.32585956156253814697265625" lon="-71.06213727034628391265869140625">
        <ele>550.5999755859375</ele>
        <time>2026-08-21T22:35:16.000Z</time>
        <extensions>
          <ns3:TrackPointExtension>
            <ns3:hr>134</ns3:hr>
            <ns3:cad>55</ns3:cad>
          </ns3:TrackPointExtension>
        </extensions>
      </trkpt>
      <trkpt lat="45.32584455795586109161376953125" lon="-71.06213651597499847412109375">
        <ele>550.79998779296875</ele>
        <time>2026-08-21T22:35:17.000Z</time>
        <extensions>
          <ns3:TrackPointExtension>
            <ns3:hr>133</ns3:hr>
            <ns3:cad>55</ns3:cad>
          </ns3:TrackPointExtension>
        </extensions>
      </trkpt>
      <trkpt lat="45.3258312307298183441162109375" lon="-71.06213358230888843536376953125">
        <ele>550.79998779296875</ele>
        <time>2026-08-21T22:35:18.000Z</time>
        <extensions>
          <ns3:TrackPointExtension>
            <ns3:hr>133</ns3:hr>
            <ns3:cad>57</ns3:cad>
          </ns3:TrackPointExtension>
        </extensions>
      </trkpt>
      <trkpt lat="45.32581807114183902740478515625" lon="-71.0621329955756664276123046875">
        <ele>550.79998779296875</ele>
        <time>2026-08-21T22:35:19.000Z</time>
        <extensions>
          <ns3:TrackPointExtension>
            <ns3:hr>133</ns3:hr>
            <ns3:cad>57</ns3:cad>
          </ns3:TrackPointExtension>
        </extensions>
      </trkpt>
      <trkpt lat="45.32580382190644741058349609375" lon="-71.06212670914828777313232421875">
        <ele>551</ele>
        <time>2026-08-21T22:35:20.000Z</time>
        <extensions>
          <ns3:TrackPointExtension>
            <ns3:hr>133</ns3:hr>
            <ns3:cad>56</ns3:cad>
          </ns3:TrackPointExtension>
        </extensions>
      </trkpt>
      <trkpt lat="45.32579443417489528656005859375" lon="-71.06212084181606769561767578125">
        <ele>551</ele>
        <time>2026-08-21T22:35:21.000Z</time>
        <extensions>
          <ns3:TrackPointExtension>
            <ns3:hr>134</ns3:hr>
            <ns3:cad>56</ns3:cad>
          </ns3:TrackPointExtension>
        </extensions>
      </trkpt>
      <trkpt lat="45.3257765807211399078369140625" lon="-71.0621158964931964874267578125">
        <ele>551</ele>
        <time>2026-08-21T22:35:22.000Z</time>
        <extensions>
          <ns3:TrackPointExtension>
            <ns3:hr>134</ns3:hr>
            <ns3:cad>56</ns3:cad>
          </ns3:TrackPointExtension>
        </extensions>
      </trkpt>
      <trkpt lat="45.32576727680861949920654296875" lon="-71.06210961006581783294677734375">
        <ele>551.20001220703125</ele>
        <time>2026-08-21T22:35:23.000Z</time>
        <extensions>
          <ns3:TrackPointExtension>
            <ns3:hr>134</ns3:hr>
            <ns3:cad>57</ns3:cad>
          </ns3:TrackPointExtension>
        </extensions>
      </trkpt>
      <trkpt lat="45.32576031982898712158203125" lon="-71.0620984621345996856689453125">
        <ele>551.20001220703125</ele>
        <time>2026-08-21T22:35:24.000Z</time>
        <extensions>
          <ns3:TrackPointExtension>
            <ns3:hr>134</ns3:hr>
            <ns3:cad>57</ns3:cad>
          </ns3:TrackPointExtension>
        </extensions>
      </trkpt>
      <trkpt lat="45.32574363984167575836181640625" lon="-71.06209033168852329254150390625">
        <ele>551.20001220703125</ele>
        <time>2026-08-21T22:35:25.000Z</time>
        <extensions>
          <ns3:TrackPointExtension>
            <ns3:hr>134</ns3:hr>
            <ns3:cad>57</ns3:cad>
          </ns3:TrackPointExtension>
        </extensions>
      </trkpt>
      <trkpt lat="45.3257313184440135955810546875" lon="-71.0620830394327640533447265625">
        <ele>551.4000244140625</ele>
        <time>2026-08-21T22:35:26.000Z</time>
        <extensions>
          <ns3:TrackPointExtension>
            <ns3:hr>134</ns3:hr>
            <ns3:cad>57</ns3:cad>
          </ns3:TrackPointExtension>
        </extensions>
      </trkpt>
      <trkpt lat="45.32571949996054172515869140625" lon="-71.06207507662475109100341796875">
        <ele>551.4000244140625</ele>
        <time>2026-08-21T22:35:27.000Z</time>
        <extensions>
          <ns3:TrackPointExtension>
            <ns3:hr>134</ns3:hr>
            <ns3:cad>57</ns3:cad>
          </ns3:TrackPointExtension>
        </extensions>
      </trkpt>
      <trkpt lat="45.325705669820308685302734375" lon="-71.06206954456865787506103515625">
        <ele>551.5999755859375</ele>
        <time>2026-08-21T22:35:28.000Z</time>
        <extensions>
          <ns3:TrackPointExtension>
            <ns3:hr>134</ns3:hr>
            <ns3:cad>57</ns3:cad>
          </ns3:TrackPointExtension>
        </extensions>
      </trkpt>
      <trkpt lat="45.3256941027939319610595703125" lon="-71.06206401251256465911865234375">
        <ele>551.5999755859375</ele>
        <time>2026-08-21T22:35:29.000Z</time>
        <extensions>
          <ns3:TrackPointExtension>
            <ns3:hr>134</ns3:hr>
            <ns3:cad>57</ns3:cad>
          </ns3:TrackPointExtension>
        </extensions>
      </trkpt>
      <trkpt lat="45.32568546943366527557373046875" lon="-71.06205873191356658935546875">
        <ele>551.79998779296875</ele>
        <time>2026-08-21T22:35:30.000Z</time>
        <extensions>
          <ns3:TrackPointExtension>
            <ns3:hr>134</ns3:hr>
            <ns3:cad>57</ns3:cad>
          </ns3:TrackPointExtension>
        </extensions>
      </trkpt>
      <trkpt lat="45.32567541114985942840576171875" lon="-71.06204993091523647308349609375">
        <ele>552</ele>
        <time>2026-08-21T22:35:31.000Z</time>
        <extensions>
          <ns3:TrackPointExtension>
            <ns3:hr>134</ns3:hr>
            <ns3:cad>57</ns3:cad>
          </ns3:TrackPointExtension>
        </extensions>
      </trkpt>
      <trkpt lat="45.32566552050411701202392578125" lon="-71.062043644487857818603515625">
        <ele>552.20001220703125</ele>
        <time>2026-08-21T22:35:32.000Z</time>
        <extensions>
          <ns3:TrackPointExtension>
            <ns3:hr>134</ns3:hr>
            <ns3:cad>57</ns3:cad>
          </ns3:TrackPointExtension>
        </extensions>
      </trkpt>
      <trkpt lat="45.3256481699645519256591796875" lon="-71.0620337538421154022216796875">
        <ele>552.20001220703125</ele>
        <time>2026-08-21T22:35:33.000Z</time>
        <extensions>
          <ns3:TrackPointExtension>
            <ns3:hr>133</ns3:hr>
            <ns3:cad>57</ns3:cad>
          </ns3:TrackPointExtension>
        </extensions>
      </trkpt>
      <trkpt lat="45.32563626766204833984375" lon="-71.062023527920246124267578125">
        <ele>552.4000244140625</ele>
        <time>2026-08-21T22:35:34.000Z</time>
        <extensions>
          <ns3:TrackPointExtension>
            <ns3:hr>134</ns3:hr>
            <ns3:cad>57</ns3:cad>
          </ns3:TrackPointExtension>
        </extensions>
      </trkpt>
      <trkpt lat="45.32562377862632274627685546875" lon="-71.0620129667222499847412109375">
        <ele>552.20001220703125</ele>
        <time>2026-08-21T22:35:35.000Z</time>
        <extensions>
          <ns3:TrackPointExtension>
            <ns3:hr>134</ns3:hr>
            <ns3:cad>57</ns3:cad>
          </ns3:TrackPointExtension>
        </extensions>
      </trkpt>
      <trkpt lat="45.3256159834563732147216796875" lon="-71.0620049200952053070068359375">
        <ele>552.20001220703125</ele>
        <time>2026-08-21T22:35:36.000Z</time>
        <extensions>
          <ns3:TrackPointExtension>
            <ns3:hr>134</ns3:hr>
            <ns3:cad>57</ns3:cad>
          </ns3:TrackPointExtension>
        </extensions>
      </trkpt>
      <trkpt lat="45.32560382969677448272705078125" lon="-71.0619955323636531829833984375">
        <ele>552.20001220703125</ele>
        <time>2026-08-21T22:35:37.000Z</time>
        <extensions>
          <ns3:TrackPointExtension>
            <ns3:hr>134</ns3:hr>
            <ns3:cad>56</ns3:cad>
          </ns3:TrackPointExtension>
        </extensions>
      </trkpt>
      <trkpt lat="45.32558890990912914276123046875" lon="-71.06199108995497226715087890625">
        <ele>552.20001220703125</ele>
        <time>2026-08-21T22:35:38.000Z</time>
        <extensions>
          <ns3:TrackPointExtension>
            <ns3:hr>134</ns3:hr>
            <ns3:cad>56</ns3:cad>
          </ns3:TrackPointExtension>
        </extensions>
      </trkpt>
      <trkpt lat="45.3255764208734035491943359375" lon="-71.06198438443243503570556640625">
        <ele>552.20001220703125</ele>
        <time>2026-08-21T22:35:39.000Z</time>
        <extensions>
          <ns3:TrackPointExtension>
            <ns3:hr>134</ns3:hr>
            <ns3:cad>56</ns3:cad>
          </ns3:TrackPointExtension>
        </extensions>
      </trkpt>
      <trkpt lat="45.32556426711380481719970703125" lon="-71.0619747452437877655029296875">
        <ele>552.20001220703125</ele>
        <time>2026-08-21T22:35:40.000Z</time>
        <extensions>
          <ns3:TrackPointExtension>
            <ns3:hr>133</ns3:hr>
            <ns3:cad>56</ns3:cad>
          </ns3:TrackPointExtension>
        </extensions>
      </trkpt>
      <trkpt lat="45.3255509398877620697021484375" lon="-71.06196820735931396484375">
        <ele>552.4000244140625</ele>
        <time>2026-08-21T22:35:41.000Z</time>
        <extensions>
          <ns3:TrackPointExtension>
            <ns3:hr>134</ns3:hr>
            <ns3:cad>56</ns3:cad>
          </ns3:TrackPointExtension>
        </extensions>
      </trkpt>
      <trkpt lat="45.32553811557590961456298828125" lon="-71.061963848769664764404296875">
        <ele>552.4000244140625</ele>
        <time>2026-08-21T22:35:42.000Z</time>
        <extensions>
          <ns3:TrackPointExtension>
            <ns3:hr>134</ns3:hr>
            <ns3:cad>55</ns3:cad>
          </ns3:TrackPointExtension>
        </extensions>
      </trkpt>
      <trkpt lat="45.32552286051213741302490234375" lon="-71.06195270083844661712646484375">
        <ele>552.4000244140625</ele>
        <time>2026-08-21T22:35:43.000Z</time>
        <extensions>
          <ns3:TrackPointExtension>
            <ns3:hr>133</ns3:hr>
            <ns3:cad>55</ns3:cad>
          </ns3:TrackPointExtension>
        </extensions>
      </trkpt>
      <trkpt lat="45.3255088627338409423828125" lon="-71.06194281019270420074462890625">
        <ele>552.5999755859375</ele>
        <time>2026-08-21T22:35:44.000Z</time>
        <extensions>
          <ns3:TrackPointExtension>
            <ns3:hr>133</ns3:hr>
            <ns3:cad>56</ns3:cad>
          </ns3:TrackPointExtension>
        </extensions>
      </trkpt>
      <trkpt lat="45.3254926018416881561279296875" lon="-71.06192772276699542999267578125">
        <ele>552.5999755859375</ele>
        <time>2026-08-21T22:35:45.000Z</time>
        <extensions>
          <ns3:TrackPointExtension>
            <ns3:hr>133</ns3:hr>
            <ns3:cad>56</ns3:cad>
          </ns3:TrackPointExtension>
        </extensions>
      </trkpt>
      <trkpt lat="45.325481705367565155029296875" lon="-71.06191657483577728271484375">
        <ele>552.79998779296875</ele>
        <time>2026-08-21T22:35:46.000Z</time>
        <extensions>
          <ns3:TrackPointExtension>
            <ns3:hr>132</ns3:hr>
            <ns3:cad>56</ns3:cad>
          </ns3:TrackPointExtension>
        </extensions>
      </trkpt>
      <trkpt lat="45.3254657797515392303466796875" lon="-71.06190861202776432037353515625">
        <ele>553</ele>
        <time>2026-08-21T22:35:47.000Z</time>
        <extensions>
          <ns3:TrackPointExtension>
            <ns3:hr>132</ns3:hr>
            <ns3:cad>56</ns3:cad>
          </ns3:TrackPointExtension>
        </extensions>
      </trkpt>
      <trkpt lat="45.325441472232341766357421875" lon="-71.06190316379070281982421875">
        <ele>553.20001220703125</ele>
        <time>2026-08-21T22:35:48.000Z</time>
        <extensions>
          <ns3:TrackPointExtension>
            <ns3:hr>132</ns3:hr>
            <ns3:cad>56</ns3:cad>
          </ns3:TrackPointExtension>
        </extensions>
      </trkpt>
      <trkpt lat="45.32542261295020580291748046875" lon="-71.0619040019810199737548828125">
        <ele>553.20001220703125</ele>
        <time>2026-08-21T22:35:49.000Z</time>
        <extensions>
          <ns3:TrackPointExtension>
            <ns3:hr>132</ns3:hr>
            <ns3:cad>57</ns3:cad>
          </ns3:TrackPointExtension>
        </extensions>
      </trkpt>
      <trkpt lat="45.32540501095354557037353515625" lon="-71.06190375052392482757568359375">
        <ele>553.4000244140625</ele>
        <time>2026-08-21T22:35:50.000Z</time>
        <extensions>
          <ns3:TrackPointExtension>
            <ns3:hr>131</ns3:hr>
            <ns3:cad>58</ns3:cad>
          </ns3:TrackPointExtension>
        </extensions>
      </trkpt>
      <trkpt lat="45.32538003288209438323974609375" lon="-71.0619036667048931121826171875">
        <ele>553.4000244140625</ele>
        <time>2026-08-21T22:35:51.000Z</time>
        <extensions>
          <ns3:TrackPointExtension>
            <ns3:hr>132</ns3:hr>
            <ns3:cad>58</ns3:cad>
          </ns3:TrackPointExtension>
        </extensions>
      </trkpt>
      <trkpt lat="45.32536008395254611968994140625" lon="-71.0619040019810199737548828125">
        <ele>553.20001220703125</ele>
        <time>2026-08-21T22:35:52.000Z</time>
        <extensions>
          <ns3:TrackPointExtension>
            <ns3:hr>132</ns3:hr>
            <ns3:cad>57</ns3:cad>
          </ns3:TrackPointExtension>
        </extensions>
      </trkpt>
      <trkpt lat="45.32534122467041015625" lon="-71.06190039776265621185302734375">
        <ele>553.20001220703125</ele>
        <time>2026-08-21T22:35:53.000Z</time>
        <extensions>
          <ns3:TrackPointExtension>
            <ns3:hr>131</ns3:hr>
            <ns3:cad>57</ns3:cad>
          </ns3:TrackPointExtension>
        </extensions>
      </trkpt>
      <trkpt lat="45.3253249637782573699951171875" lon="-71.061901152133941650390625">
        <ele>553.20001220703125</ele>
        <time>2026-08-21T22:35:54.000Z</time>
        <extensions>
          <ns3:TrackPointExtension>
            <ns3:hr>132</ns3:hr>
            <ns3:cad>57</ns3:cad>
          </ns3:TrackPointExtension>
        </extensions>
      </trkpt>
      <trkpt lat="45.32530811615288257598876953125" lon="-71.06190341524779796600341796875">
        <ele>553.20001220703125</ele>
        <time>2026-08-21T22:35:55.000Z</time>
        <extensions>
          <ns3:TrackPointExtension>
            <ns3:hr>132</ns3:hr>
            <ns3:cad>57</ns3:cad>
          </ns3:TrackPointExtension>
        </extensions>
      </trkpt>
      <trkpt lat="45.3252875804901123046875" lon="-71.0619080252945423126220703125">
        <ele>553.4000244140625</ele>
        <time>2026-08-21T22:35:56.000Z</time>
        <extensions>
          <ns3:TrackPointExtension>
            <ns3:hr>132</ns3:hr>
            <ns3:cad>57</ns3:cad>
          </ns3:TrackPointExtension>
        </extensions>
      </trkpt>
      <trkpt lat="45.32526402734220027923583984375" lon="-71.061908192932605743408203125">
        <ele>553.5999755859375</ele>
        <time>2026-08-21T22:35:57.000Z</time>
        <extensions>
          <ns3:TrackPointExtension>
            <ns3:hr>131</ns3:hr>
            <ns3:cad>57</ns3:cad>
          </ns3:TrackPointExtension>
        </extensions>
      </trkpt>
      <trkpt lat="45.325239636003971099853515625" lon="-71.06190961785614490509033203125">
        <ele>553.79998779296875</ele>
        <time>2026-08-21T22:35:58.000Z</time>
        <extensions>
          <ns3:TrackPointExtension>
            <ns3:hr>132</ns3:hr>
            <ns3:cad>57</ns3:cad>
          </ns3:TrackPointExtension>
        </extensions>
      </trkpt>
      <trkpt lat="45.3252166695892810821533203125" lon="-71.061916239559650421142578125">
        <ele>553.79998779296875</ele>
        <time>2026-08-21T22:35:59.000Z</time>
        <extensions>
          <ns3:TrackPointExtension>
            <ns3:hr>132</ns3:hr>
            <ns3:cad>75</ns3:cad>
          </ns3:TrackPointExtension>
        </extensions>
      </trkpt>
      <trkpt lat="45.32519378699362277984619140625" lon="-71.06192202307283878326416015625">
        <ele>554</ele>
        <time>2026-08-21T22:36:00.000Z</time>
        <extensions>
          <ns3:TrackPointExtension>
            <ns3:hr>131</ns3:hr>
            <ns3:cad>75</ns3:cad>
          </ns3:TrackPointExtension>
        </extensions>
      </trkpt>
      <trkpt lat="45.325171910226345062255859375" lon="-71.0619301535189151763916015625">
        <ele>554</ele>
        <time>2026-08-21T22:36:01.000Z</time>
        <extensions>
          <ns3:TrackPointExtension>
            <ns3:hr>132</ns3:hr>
            <ns3:cad>75</ns3:cad>
          </ns3:TrackPointExtension>
        </extensions>
      </trkpt>
      <trkpt lat="45.3251476027071475982666015625" lon="-71.0619452409446239471435546875">
        <ele>554.20001220703125</ele>
        <time>2026-08-21T22:36:02.000Z</time>
        <extensions>
          <ns3:TrackPointExtension>
            <ns3:hr>132</ns3:hr>
            <ns3:cad>75</ns3:cad>
          </ns3:TrackPointExtension>
        </extensions>
      </trkpt>
      <trkpt lat="45.32512731850147247314453125" lon="-71.06195538304746150970458984375">
        <ele>554.20001220703125</ele>
        <time>2026-08-21T22:36:03.000Z</time>
        <extensions>
          <ns3:TrackPointExtension>
            <ns3:hr>132</ns3:hr>
            <ns3:cad>75</ns3:cad>
          </ns3:TrackPointExtension>
        </extensions>
      </trkpt>
      <trkpt lat="45.32510158605873584747314453125" lon="-71.0619636811316013336181640625">
        <ele>554.4000244140625</ele>
        <time>2026-08-21T22:36:04.000Z</time>
        <extensions>
          <ns3:TrackPointExtension>
            <ns3:hr>132</ns3:hr>
            <ns3:cad>79</ns3:cad>
          </ns3:TrackPointExtension>
        </extensions>
      </trkpt>
      <trkpt lat="45.32508012838661670684814453125" lon="-71.0619730688631534576416015625">
        <ele>554.4000244140625</ele>
        <time>2026-08-21T22:36:05.000Z</time>
        <extensions>
          <ns3:TrackPointExtension>
            <ns3:hr>133</ns3:hr>
            <ns3:cad>79</ns3:cad>
          </ns3:TrackPointExtension>
        </extensions>
      </trkpt>
      <trkpt lat="45.3250627778470516204833984375" lon="-71.06198304332792758941650390625">
        <ele>554.5999755859375</ele>
        <time>2026-08-21T22:36:06.000Z</time>
        <extensions>
          <ns3:TrackPointExtension>
            <ns3:hr>132</ns3:hr>
            <ns3:cad>79</ns3:cad>
          </ns3:TrackPointExtension>
        </extensions>
      </trkpt>
      <trkpt lat="45.32504106871783733367919921875" lon="-71.06200198642909526824951171875">
        <ele>554.79998779296875</ele>
        <time>2026-08-21T22:36:07.000Z</time>
        <extensions>
          <ns3:TrackPointExtension>
            <ns3:hr>132</ns3:hr>
            <ns3:cad>79</ns3:cad>
          </ns3:TrackPointExtension>
        </extensions>
      </trkpt>
      <trkpt lat="45.3250233829021453857421875" lon="-71.0620203427970409393310546875">
        <ele>555</ele>
        <time>2026-08-21T22:36:08.000Z</time>
        <extensions>
          <ns3:TrackPointExtension>
            <ns3:hr>132</ns3:hr>
            <ns3:cad>79</ns3:cad>
          </ns3:TrackPointExtension>
        </extensions>
      </trkpt>
      <trkpt lat="45.3250064514577388763427734375" lon="-71.062040962278842926025390625">
        <ele>555.20001220703125</ele>
        <time>2026-08-21T22:36:09.000Z</time>
        <extensions>
          <ns3:TrackPointExtension>
            <ns3:hr>132</ns3:hr>
            <ns3:cad>79</ns3:cad>
          </ns3:TrackPointExtension>
        </extensions>
      </trkpt>
      <trkpt lat="45.3249843232333660125732421875" lon="-71.0620562173426151275634765625">
        <ele>555.20001220703125</ele>
        <time>2026-08-21T22:36:10.000Z</time>
        <extensions>
          <ns3:TrackPointExtension>
            <ns3:hr>132</ns3:hr>
            <ns3:cad>79</ns3:cad>
          </ns3:TrackPointExtension>
        </extensions>
      </trkpt>
      <trkpt lat="45.32496881671249866485595703125" lon="-71.0620723105967044830322265625">
        <ele>555.20001220703125</ele>
        <time>2026-08-21T22:36:11.000Z</time>
        <extensions>
          <ns3:TrackPointExtension>
            <ns3:hr>133</ns3:hr>
            <ns3:cad>79</ns3:cad>
          </ns3:TrackPointExtension>
        </extensions>
      </trkpt>
      <trkpt lat="45.32495255582034587860107421875" lon="-71.0620929300785064697265625">
        <ele>555.4000244140625</ele>
        <time>2026-08-21T22:36:12.000Z</time>
        <extensions>
          <ns3:TrackPointExtension>
            <ns3:hr>132</ns3:hr>
            <ns3:cad>79</ns3:cad>
          </ns3:TrackPointExtension>
        </extensions>
      </trkpt>
      <trkpt lat="45.32493512146174907684326171875" lon="-71.062110029160976409912109375">
        <ele>555.5999755859375</ele>
        <time>2026-08-21T22:36:13.000Z</time>
        <extensions>
          <ns3:TrackPointExtension>
            <ns3:hr>133</ns3:hr>
            <ns3:cad>79</ns3:cad>
          </ns3:TrackPointExtension>
        </extensions>
      </trkpt>
      <trkpt lat="45.3249206207692623138427734375" lon="-71.06212310492992401123046875">
        <ele>555.5999755859375</ele>
        <time>2026-08-21T22:36:14.000Z</time>
        <extensions>
          <ns3:TrackPointExtension>
            <ns3:hr>133</ns3:hr>
            <ns3:cad>79</ns3:cad>
          </ns3:TrackPointExtension>
        </extensions>
      </trkpt>
      <trkpt lat="45.32489958219230175018310546875" lon="-71.06213986873626708984375">
        <ele>555.79998779296875</ele>
        <time>2026-08-21T22:36:15.000Z</time>
        <extensions>
          <ns3:TrackPointExtension>
            <ns3:hr>134</ns3:hr>
            <ns3:cad>79</ns3:cad>
          </ns3:TrackPointExtension>
        </extensions>
      </trkpt>
      <trkpt lat="45.3248766995966434478759765625" lon="-71.06215252541005611419677734375">
        <ele>556</ele>
        <time>2026-08-21T22:36:16.000Z</time>
        <extensions>
          <ns3:TrackPointExtension>
            <ns3:hr>134</ns3:hr>
            <ns3:cad>79</ns3:cad>
          </ns3:TrackPointExtension>
        </extensions>
      </trkpt>
      <trkpt lat="45.32485834322869777679443359375" lon="-71.062163673341274261474609375">
        <ele>556</ele>
        <time>2026-08-21T22:36:17.000Z</time>
        <extensions>
          <ns3:TrackPointExtension>
            <ns3:hr>134</ns3:hr>
            <ns3:cad>79</ns3:cad>
          </ns3:TrackPointExtension>
        </extensions>
      </trkpt>
      <trkpt lat="45.32484057359397411346435546875" lon="-71.06216945685446262359619140625">
        <ele>556.20001220703125</ele>
        <time>2026-08-21T22:36:18.000Z</time>
        <extensions>
          <ns3:TrackPointExtension>
            <ns3:hr>135</ns3:hr>
            <ns3:cad>80</ns3:cad>
          </ns3:TrackPointExtension>
        </extensions>
      </trkpt>
      <trkpt lat="45.32482112757861614227294921875" lon="-71.06217599473893642425537109375">
        <ele>556.4000244140625</ele>
        <time>2026-08-21T22:36:19.000Z</time>
        <extensions>
          <ns3:TrackPointExtension>
            <ns3:hr>134</ns3:hr>
            <ns3:cad>80</ns3:cad>
          </ns3:TrackPointExtension>
        </extensions>
      </trkpt>
      <trkpt lat="45.324802435934543609619140625" lon="-71.06217985041439533233642578125">
        <ele>556.5999755859375</ele>
        <time>2026-08-21T22:36:20.000Z</time>
        <extensions>
          <ns3:TrackPointExtension>
            <ns3:hr>134</ns3:hr>
            <ns3:cad>80</ns3:cad>
          </ns3:TrackPointExtension>
        </extensions>
      </trkpt>
      <trkpt lat="45.324785001575946807861328125" lon="-71.0621785931289196014404296875">
        <ele>556.79998779296875</ele>
        <time>2026-08-21T22:36:21.000Z</time>
        <extensions>
          <ns3:TrackPointExtension>
            <ns3:hr>135</ns3:hr>
            <ns3:cad>80</ns3:cad>
          </ns3:TrackPointExtension>
        </extensions>
      </trkpt>
      <trkpt lat="45.324767567217350006103515625" lon="-71.0621782578527927398681640625">
        <ele>557</ele>
        <time>2026-08-21T22:36:22.000Z</time>
        <extensions>
          <ns3:TrackPointExtension>
            <ns3:hr>135</ns3:hr>
            <ns3:cad>80</ns3:cad>
          </ns3:TrackPointExtension>
        </extensions>
      </trkpt>
      <trkpt lat="45.3247492946684360504150390625" lon="-71.0621769167482852935791015625">
        <ele>557</ele>
        <time>2026-08-21T22:36:23.000Z</time>
        <extensions>
          <ns3:TrackPointExtension>
            <ns3:hr>135</ns3:hr>
            <ns3:cad>79</ns3:cad>
          </ns3:TrackPointExtension>
        </extensions>
      </trkpt>
      <trkpt lat="45.32473077066242694854736328125" lon="-71.0621725581586360931396484375">
        <ele>557.20001220703125</ele>
        <time>2026-08-21T22:36:24.000Z</time>
        <extensions>
          <ns3:TrackPointExtension>
            <ns3:hr>135</ns3:hr>
            <ns3:cad>79</ns3:cad>
          </ns3:TrackPointExtension>
        </extensions>
      </trkpt>
      <trkpt lat="45.32471903599798679351806640625" lon="-71.06216912157833576202392578125">
        <ele>557.20001220703125</ele>
        <time>2026-08-21T22:36:25.000Z</time>
        <extensions>
          <ns3:TrackPointExtension>
            <ns3:hr>135</ns3:hr>
            <ns3:cad>79</ns3:cad>
          </ns3:TrackPointExtension>
        </extensions>
      </trkpt>
      <trkpt lat="45.32470663078129291534423828125" lon="-71.06216275133192539215087890625">
        <ele>557.4000244140625</ele>
        <time>2026-08-21T22:36:26.000Z</time>
        <extensions>
          <ns3:TrackPointExtension>
            <ns3:hr>136</ns3:hr>
            <ns3:cad>79</ns3:cad>
          </ns3:TrackPointExtension>
        </extensions>
      </trkpt>
      <trkpt lat="45.32469355501234531402587890625" lon="-71.0621568001806735992431640625">
        <ele>557.5999755859375</ele>
        <time>2026-08-21T22:36:27.000Z</time>
        <extensions>
          <ns3:TrackPointExtension>
            <ns3:hr>136</ns3:hr>
            <ns3:cad>79</ns3:cad>
          </ns3:TrackPointExtension>
        </extensions>
      </trkpt>
      <trkpt lat="45.3246812336146831512451171875" lon="-71.062151603400707244873046875">
        <ele>557.5999755859375</ele>
        <time>2026-08-21T22:36:28.000Z</time>
        <extensions>
          <ns3:TrackPointExtension>
            <ns3:hr>137</ns3:hr>
            <ns3:cad>79</ns3:cad>
          </ns3:TrackPointExtension>
        </extensions>
      </trkpt>
      <trkpt lat="45.32466539181768894195556640625" lon="-71.06214858591556549072265625">
        <ele>557.79998779296875</ele>
        <time>2026-08-21T22:36:29.000Z</time>
        <extensions>
          <ns3:TrackPointExtension>
            <ns3:hr>138</ns3:hr>
            <ns3:cad>79</ns3:cad>
          </ns3:TrackPointExtension>
        </extensions>
      </trkpt>
      <trkpt lat="45.3246513940393924713134765625" lon="-71.06214724481105804443359375">
        <ele>558</ele>
        <time>2026-08-21T22:36:30.000Z</time>
        <extensions>
          <ns3:TrackPointExtension>
            <ns3:hr>138</ns3:hr>
            <ns3:cad>57</ns3:cad>
          </ns3:TrackPointExtension>
        </extensions>
      </trkpt>
      <trkpt lat="45.32463840208947658538818359375" lon="-71.0621447302401065826416015625">
        <ele>558.20001220703125</ele>
        <time>2026-08-21T22:36:31.000Z</time>
        <extensions>
          <ns3:TrackPointExtension>
            <ns3:hr>139</ns3:hr>
            <ns3:cad>57</ns3:cad>
          </ns3:TrackPointExtension>
        </extensions>
      </trkpt>
      <trkpt lat="45.32462214119732379913330078125" lon="-71.06214313767850399017333984375">
        <ele>558.4000244140625</ele>
        <time>2026-08-21T22:36:32.000Z</time>
        <extensions>
          <ns3:TrackPointExtension>
            <ns3:hr>139</ns3:hr>
            <ns3:cad>57</ns3:cad>
          </ns3:TrackPointExtension>
        </extensions>
      </trkpt>
      <trkpt lat="45.32460755668580532073974609375" lon="-71.06214330531656742095947265625">
        <ele>558.5999755859375</ele>
        <time>2026-08-21T22:36:33.000Z</time>
        <extensions>
          <ns3:TrackPointExtension>
            <ns3:hr>139</ns3:hr>
            <ns3:cad>57</ns3:cad>
          </ns3:TrackPointExtension>
        </extensions>
      </trkpt>
      <trkpt lat="45.32459431327879428863525390625" lon="-71.0621427185833454132080078125">
        <ele>558.79998779296875</ele>
        <time>2026-08-21T22:36:34.000Z</time>
        <extensions>
          <ns3:TrackPointExtension>
            <ns3:hr>138</ns3:hr>
            <ns3:cad>57</ns3:cad>
          </ns3:TrackPointExtension>
        </extensions>
      </trkpt>
      <trkpt lat="45.3245803155004978179931640625" lon="-71.062140204012393951416015625">
        <ele>559</ele>
        <time>2026-08-21T22:36:35.000Z</time>
        <extensions>
          <ns3:TrackPointExtension>
            <ns3:hr>138</ns3:hr>
            <ns3:cad>56</ns3:cad>
          </ns3:TrackPointExtension>
        </extensions>
      </trkpt>
      <trkpt lat="45.32456899993121623992919921875" lon="-71.06213894672691822052001953125">
        <ele>559.20001220703125</ele>
        <time>2026-08-21T22:36:36.000Z</time>
        <extensions>
          <ns3:TrackPointExtension>
            <ns3:hr>138</ns3:hr>
            <ns3:cad>56</ns3:cad>
          </ns3:TrackPointExtension>
        </extensions>
      </trkpt>
      <trkpt lat="45.32455592416226863861083984375" lon="-71.062139533460140228271484375">
        <ele>559.4000244140625</ele>
        <time>2026-08-21T22:36:37.000Z</time>
        <extensions>
          <ns3:TrackPointExtension>
            <ns3:hr>138</ns3:hr>
            <ns3:cad>55</ns3:cad>
          </ns3:TrackPointExtension>
        </extensions>
      </trkpt>
      <trkpt lat="45.32454486005008220672607421875" lon="-71.0621376894414424896240234375">
        <ele>559.4000244140625</ele>
        <time>2026-08-21T22:36:38.000Z</time>
        <extensions>
          <ns3:TrackPointExtension>
            <ns3:hr>139</ns3:hr>
            <ns3:cad>55</ns3:cad>
          </ns3:TrackPointExtension>
        </extensions>
      </trkpt>
      <trkpt lat="45.3245298564434051513671875" lon="-71.06213643215596675872802734375">
        <ele>559.5999755859375</ele>
        <time>2026-08-21T22:36:39.000Z</time>
        <extensions>
          <ns3:TrackPointExtension>
            <ns3:hr>138</ns3:hr>
            <ns3:cad>55</ns3:cad>
          </ns3:TrackPointExtension>
        </extensions>
      </trkpt>
      <trkpt lat="45.32451443374156951904296875" lon="-71.062137521803379058837890625">
        <ele>559.79998779296875</ele>
        <time>2026-08-21T22:36:40.000Z</time>
        <extensions>
          <ns3:TrackPointExtension>
            <ns3:hr>138</ns3:hr>
            <ns3:cad>54</ns3:cad>
          </ns3:TrackPointExtension>
        </extensions>
      </trkpt>
      <trkpt lat="45.3245018608868122100830078125" lon="-71.06213710270822048187255859375">
        <ele>560</ele>
        <time>2026-08-21T22:36:41.000Z</time>
        <extensions>
          <ns3:TrackPointExtension>
            <ns3:hr>139</ns3:hr>
            <ns3:cad>54</ns3:cad>
          </ns3:TrackPointExtension>
        </extensions>
      </trkpt>
      <trkpt lat="45.32448736019432544708251953125" lon="-71.0621350072324275970458984375">
        <ele>560.20001220703125</ele>
        <time>2026-08-21T22:36:42.000Z</time>
        <extensions>
          <ns3:TrackPointExtension>
            <ns3:hr>138</ns3:hr>
            <ns3:cad>54</ns3:cad>
          </ns3:TrackPointExtension>
        </extensions>
      </trkpt>
      <trkpt lat="45.32446942292153835296630859375" lon="-71.06213358230888843536376953125">
        <ele>560.20001220703125</ele>
        <time>2026-08-21T22:36:43.000Z</time>
        <extensions>
          <ns3:TrackPointExtension>
            <ns3:hr>139</ns3:hr>
            <ns3:cad>55</ns3:cad>
          </ns3:TrackPointExtension>
        </extensions>
      </trkpt>
      <trkpt lat="45.32445299439132213592529296875" lon="-71.06213341467082500457763671875">
        <ele>560.4000244140625</ele>
        <time>2026-08-21T22:36:44.000Z</time>
        <extensions>
          <ns3:TrackPointExtension>
            <ns3:hr>139</ns3:hr>
            <ns3:cad>55</ns3:cad>
          </ns3:TrackPointExtension>
        </extensions>
      </trkpt>
      <trkpt lat="45.32443807460367679595947265625" lon="-71.0621336661279201507568359375">
        <ele>560.5999755859375</ele>
        <time>2026-08-21T22:36:45.000Z</time>
        <extensions>
          <ns3:TrackPointExtension>
            <ns3:hr>140</ns3:hr>
            <ns3:cad>55</ns3:cad>
          </ns3:TrackPointExtension>
        </extensions>
      </trkpt>
      <trkpt lat="45.32442332245409488677978515625" lon="-71.06213827617466449737548828125">
        <ele>560.79998779296875</ele>
        <time>2026-08-21T22:36:46.000Z</time>
        <extensions>
          <ns3:TrackPointExtension>
            <ns3:hr>140</ns3:hr>
            <ns3:cad>55</ns3:cad>
          </ns3:TrackPointExtension>
        </extensions>
      </trkpt>
      <trkpt lat="45.32440848648548126220703125" lon="-71.06213609687983989715576171875">
        <ele>560.79998779296875</ele>
        <time>2026-08-21T22:36:47.000Z</time>
        <extensions>
          <ns3:TrackPointExtension>
            <ns3:hr>140</ns3:hr>
            <ns3:cad>55</ns3:cad>
          </ns3:TrackPointExtension>
        </extensions>
      </trkpt>
      <trkpt lat="45.3243918903172016143798828125" lon="-71.06213391758501529693603515625">
        <ele>561</ele>
        <time>2026-08-21T22:36:48.000Z</time>
        <extensions>
          <ns3:TrackPointExtension>
            <ns3:hr>140</ns3:hr>
            <ns3:cad>55</ns3:cad>
          </ns3:TrackPointExtension>
        </extensions>
      </trkpt>
      <trkpt lat="45.32437336631119251251220703125" lon="-71.0621304810047149658203125">
        <ele>561.20001220703125</ele>
        <time>2026-08-21T22:36:49.000Z</time>
        <extensions>
          <ns3:TrackPointExtension>
            <ns3:hr>140</ns3:hr>
            <ns3:cad>55</ns3:cad>
          </ns3:TrackPointExtension>
        </extensions>
      </trkpt>
      <trkpt lat="45.32436012290418148040771484375" lon="-71.062126792967319488525390625">
        <ele>561.20001220703125</ele>
        <time>2026-08-21T22:36:50.000Z</time>
        <extensions>
          <ns3:TrackPointExtension>
            <ns3:hr>141</ns3:hr>
            <ns3:cad>55</ns3:cad>
          </ns3:TrackPointExtension>
        </extensions>
      </trkpt>
      <trkpt lat="45.32434805296361446380615234375" lon="-71.0621251165866851806640625">
        <ele>561.4000244140625</ele>
        <time>2026-08-21T22:36:51.000Z</time>
        <extensions>
          <ns3:TrackPointExtension>
            <ns3:hr>141</ns3:hr>
            <ns3:cad>55</ns3:cad>
          </ns3:TrackPointExtension>
        </extensions>
      </trkpt>
      <trkpt lat="45.32433606684207916259765625" lon="-71.0621229372918605804443359375">
        <ele>561.4000244140625</ele>
        <time>2026-08-21T22:36:52.000Z</time>
        <extensions>
          <ns3:TrackPointExtension>
            <ns3:hr>142</ns3:hr>
            <ns3:cad>55</ns3:cad>
          </ns3:TrackPointExtension>
        </extensions>
      </trkpt>
      <trkpt lat="45.324324332177639007568359375" lon="-71.06212134473025798797607421875">
        <ele>561.5999755859375</ele>
        <time>2026-08-21T22:36:53.000Z</time>
        <extensions>
          <ns3:TrackPointExtension>
            <ns3:hr>142</ns3:hr>
            <ns3:cad>55</ns3:cad>
          </ns3:TrackPointExtension>
        </extensions>
      </trkpt>
      <trkpt lat="45.32431167550384998321533203125" lon="-71.06212000362575054168701171875">
        <ele>561.5999755859375</ele>
        <time>2026-08-21T22:36:54.000Z</time>
        <extensions>
          <ns3:TrackPointExtension>
            <ns3:hr>143</ns3:hr>
            <ns3:cad>55</ns3:cad>
          </ns3:TrackPointExtension>
        </extensions>
      </trkpt>
      <trkpt lat="45.32429910264909267425537109375" lon="-71.062119416892528533935546875">
        <ele>561.79998779296875</ele>
        <time>2026-08-21T22:36:55.000Z</time>
        <extensions>
          <ns3:TrackPointExtension>
            <ns3:hr>143</ns3:hr>
            <ns3:cad>55</ns3:cad>
          </ns3:TrackPointExtension>
        </extensions>
      </trkpt>
      <trkpt lat="45.3242852725088596343994140625" lon="-71.0621170699596405029296875">
        <ele>562</ele>
        <time>2026-08-21T22:36:56.000Z</time>
        <extensions>
          <ns3:TrackPointExtension>
            <ns3:hr>143</ns3:hr>
            <ns3:cad>55</ns3:cad>
          </ns3:TrackPointExtension>
        </extensions>
      </trkpt>
      <trkpt lat="45.32427177764475345611572265625" lon="-71.06211564503610134124755859375">
        <ele>562.20001220703125</ele>
        <time>2026-08-21T22:36:57.000Z</time>
        <extensions>
          <ns3:TrackPointExtension>
            <ns3:hr>144</ns3:hr>
            <ns3:cad>53</ns3:cad>
          </ns3:TrackPointExtension>
        </extensions>
      </trkpt>
      <trkpt lat="45.32425836659967899322509765625" lon="-71.0621148906648159027099609375">
        <ele>562.4000244140625</ele>
        <time>2026-08-21T22:36:58.000Z</time>
        <extensions>
          <ns3:TrackPointExtension>
            <ns3:hr>144</ns3:hr>
            <ns3:cad>53</ns3:cad>
          </ns3:TrackPointExtension>
        </extensions>
      </trkpt>
      <trkpt lat="45.32424495555460453033447265625" lon="-71.06211178936064243316650390625">
        <ele>562.4000244140625</ele>
        <time>2026-08-21T22:36:59.000Z</time>
        <extensions>
          <ns3:TrackPointExtension>
            <ns3:hr>144</ns3:hr>
            <ns3:cad>54</ns3:cad>
          </ns3:TrackPointExtension>
        </extensions>
      </trkpt>
      <trkpt lat="45.32423556782305240631103515625" lon="-71.06210893951356410980224609375">
        <ele>562.5999755859375</ele>
        <time>2026-08-21T22:37:00.000Z</time>
        <extensions>
          <ns3:TrackPointExtension>
            <ns3:hr>143</ns3:hr>
            <ns3:cad>54</ns3:cad>
          </ns3:TrackPointExtension>
        </extensions>
      </trkpt>
      <trkpt lat="45.324222743511199951171875" lon="-71.06210743077099323272705078125">
        <ele>562.79998779296875</ele>
        <time>2026-08-21T22:37:01.000Z</time>
        <extensions>
          <ns3:TrackPointExtension>
            <ns3:hr>143</ns3:hr>
            <ns3:cad>54</ns3:cad>
          </ns3:TrackPointExtension>
        </extensions>
      </trkpt>
      <trkpt lat="45.32421126030385494232177734375" lon="-71.062108688056468963623046875">
        <ele>562.79998779296875</ele>
        <time>2026-08-21T22:37:02.000Z</time>
        <extensions>
          <ns3:TrackPointExtension>
            <ns3:hr>142</ns3:hr>
            <ns3:cad>54</ns3:cad>
          </ns3:TrackPointExtension>
        </extensions>
      </trkpt>
      <trkpt lat="45.32419701106846332550048828125" lon="-71.06210977770388126373291015625">
        <ele>562.79998779296875</ele>
        <time>2026-08-21T22:37:03.000Z</time>
        <extensions>
          <ns3:TrackPointExtension>
            <ns3:hr>142</ns3:hr>
            <ns3:cad>54</ns3:cad>
          </ns3:TrackPointExtension>
        </extensions>
      </trkpt>
      <trkpt lat="45.32417706213891506195068359375" lon="-71.06210424564778804779052734375">
        <ele>563</ele>
        <time>2026-08-21T22:37:04.000Z</time>
        <extensions>
          <ns3:TrackPointExtension>
            <ns3:hr>142</ns3:hr>
            <ns3:cad>55</ns3:cad>
          </ns3:TrackPointExtension>
        </extensions>
      </trkpt>
      <trkpt lat="45.32416264526546001434326171875" lon="-71.0620991326868534088134765625">
        <ele>563.20001220703125</ele>
        <time>2026-08-21T22:37:05.000Z</time>
        <extensions>
          <ns3:TrackPointExtension>
            <ns3:hr>141</ns3:hr>
            <ns3:cad>55</ns3:cad>
          </ns3:TrackPointExtension>
        </extensions>
      </trkpt>
      <trkpt lat="45.3241481445729732513427734375" lon="-71.062095947563648223876953125">
        <ele>563.20001220703125</ele>
        <time>2026-08-21T22:37:06.000Z</time>
        <extensions>
          <ns3:TrackPointExtension>
            <ns3:hr>140</ns3:hr>
            <ns3:cad>54</ns3:cad>
          </ns3:TrackPointExtension>
        </extensions>
      </trkpt>
      <trkpt lat="45.32413196749985218048095703125" lon="-71.0620977915823459625244140625">
        <ele>563.4000244140625</ele>
        <time>2026-08-21T22:37:07.000Z</time>
        <extensions>
          <ns3:TrackPointExtension>
            <ns3:hr>140</ns3:hr>
            <ns3:cad>54</ns3:cad>
          </ns3:TrackPointExtension>
        </extensions>
      </trkpt>
      <trkpt lat="45.32411972992122173309326171875" lon="-71.062099635601043701171875">
        <ele>563.4000244140625</ele>
        <time>2026-08-21T22:37:08.000Z</time>
        <extensions>
          <ns3:TrackPointExtension>
            <ns3:hr>140</ns3:hr>
            <ns3:cad>54</ns3:cad>
          </ns3:TrackPointExtension>
        </extensions>
      </trkpt>
      <trkpt lat="45.32411151565611362457275390625" lon="-71.06209871359169483184814453125">
        <ele>563.5999755859375</ele>
        <time>2026-08-21T22:37:09.000Z</time>
        <extensions>
          <ns3:TrackPointExtension>
            <ns3:hr>140</ns3:hr>
            <ns3:cad>54</ns3:cad>
          </ns3:TrackPointExtension>
        </extensions>
      </trkpt>
      <trkpt lat="45.32410061918199062347412109375" lon="-71.0620967857539653778076171875">
        <ele>563.5999755859375</ele>
        <time>2026-08-21T22:37:10.000Z</time>
        <extensions>
          <ns3:TrackPointExtension>
            <ns3:hr>140</ns3:hr>
            <ns3:cad>54</ns3:cad>
          </ns3:TrackPointExtension>
        </extensions>
      </trkpt>
      <trkpt lat="45.3240861184895038604736328125" lon="-71.06209385208785533905029296875">
        <ele>563.79998779296875</ele>
        <time>2026-08-21T22:37:11.000Z</time>
        <extensions>
          <ns3:TrackPointExtension>
            <ns3:hr>139</ns3:hr>
            <ns3:cad>55</ns3:cad>
          </ns3:TrackPointExtension>
        </extensions>
      </trkpt>
      <trkpt lat="45.32407513819634914398193359375" lon="-71.062094606459140777587890625">
        <ele>564</ele>
        <time>2026-08-21T22:37:12.000Z</time>
        <extensions>
          <ns3:TrackPointExtension>
            <ns3:hr>140</ns3:hr>
            <ns3:cad>55</ns3:cad>
          </ns3:TrackPointExtension>
        </extensions>
      </trkpt>
      <trkpt lat="45.32406340353190898895263671875" lon="-71.0620934329926967620849609375">
        <ele>564</ele>
        <time>2026-08-21T22:37:13.000Z</time>
        <extensions>
          <ns3:TrackPointExtension>
            <ns3:hr>140</ns3:hr>
            <ns3:cad>55</ns3:cad>
          </ns3:TrackPointExtension>
        </extensions>
      </trkpt>
      <trkpt lat="45.32404932193458080291748046875" lon="-71.0620907507836818695068359375">
        <ele>564.20001220703125</ele>
        <time>2026-08-21T22:37:14.000Z</time>
        <extensions>
          <ns3:TrackPointExtension>
            <ns3:hr>139</ns3:hr>
            <ns3:cad>53</ns3:cad>
          </ns3:TrackPointExtension>
        </extensions>
      </trkpt>
      <trkpt lat="45.32403121702373027801513671875" lon="-71.06208982877433300018310546875">
        <ele>564.4000244140625</ele>
        <time>2026-08-21T22:37:15.000Z</time>
        <extensions>
          <ns3:TrackPointExtension>
            <ns3:hr>140</ns3:hr>
            <ns3:cad>53</ns3:cad>
          </ns3:TrackPointExtension>
        </extensions>
      </trkpt>
      <trkpt lat="45.32401244156062602996826171875" lon="-71.06208949349820613861083984375">
        <ele>564.4000244140625</ele>
        <time>2026-08-21T22:37:16.000Z</time>
        <extensions>
          <ns3:TrackPointExtension>
            <ns3:hr>139</ns3:hr>
            <ns3:cad>53</ns3:cad>
          </ns3:TrackPointExtension>
        </extensions>
      </trkpt>
      <trkpt lat="45.32399919815361499786376953125" lon="-71.0620880685746669769287109375">
        <ele>564.5999755859375</ele>
        <time>2026-08-21T22:37:17.000Z</time>
        <extensions>
          <ns3:TrackPointExtension>
            <ns3:hr>139</ns3:hr>
            <ns3:cad>53</ns3:cad>
          </ns3:TrackPointExtension>
        </extensions>
      </trkpt>
      <trkpt lat="45.3239845298230648040771484375" lon="-71.06208630837500095367431640625">
        <ele>564.5999755859375</ele>
        <time>2026-08-21T22:37:18.000Z</time>
        <extensions>
          <ns3:TrackPointExtension>
            <ns3:hr>138</ns3:hr>
            <ns3:cad>53</ns3:cad>
          </ns3:TrackPointExtension>
        </extensions>
      </trkpt>
      <trkpt lat="45.32396986149251461029052734375" lon="-71.06208496727049350738525390625">
        <ele>564.5999755859375</ele>
        <time>2026-08-21T22:37:19.000Z</time>
        <extensions>
          <ns3:TrackPointExtension>
            <ns3:hr>138</ns3:hr>
            <ns3:cad>53</ns3:cad>
          </ns3:TrackPointExtension>
        </extensions>
      </trkpt>
      <trkpt lat="45.32395293004810810089111328125" lon="-71.06208664365112781524658203125">
        <ele>564.79998779296875</ele>
        <time>2026-08-21T22:37:20.000Z</time>
        <extensions>
          <ns3:TrackPointExtension>
            <ns3:hr>138</ns3:hr>
            <ns3:cad>53</ns3:cad>
          </ns3:TrackPointExtension>
        </extensions>
      </trkpt>
      <trkpt lat="45.3239382617175579071044921875" lon="-71.06208379380404949188232421875">
        <ele>564.79998779296875</ele>
        <time>2026-08-21T22:37:21.000Z</time>
        <extensions>
          <ns3:TrackPointExtension>
            <ns3:hr>138</ns3:hr>
            <ns3:cad>51</ns3:cad>
          </ns3:TrackPointExtension>
        </extensions>
      </trkpt>
      <trkpt lat="45.3239268623292446136474609375" lon="-71.0620833747088909149169921875">
        <ele>565</ele>
        <time>2026-08-21T22:37:22.000Z</time>
        <extensions>
          <ns3:TrackPointExtension>
            <ns3:hr>138</ns3:hr>
            <ns3:cad>51</ns3:cad>
          </ns3:TrackPointExtension>
        </extensions>
      </trkpt>
      <trkpt lat="45.32391286455094814300537109375" lon="-71.0620827041566371917724609375">
        <ele>565.20001220703125</ele>
        <time>2026-08-21T22:37:23.000Z</time>
        <extensions>
          <ns3:TrackPointExtension>
            <ns3:hr>138</ns3:hr>
            <ns3:cad>51</ns3:cad>
          </ns3:TrackPointExtension>
        </extensions>
      </trkpt>
      <trkpt lat="45.32390196807682514190673828125" lon="-71.06208882294595241546630859375">
        <ele>565.20001220703125</ele>
        <time>2026-08-21T22:37:24.000Z</time>
        <extensions>
          <ns3:TrackPointExtension>
            <ns3:hr>138</ns3:hr>
            <ns3:cad>53</ns3:cad>
          </ns3:TrackPointExtension>
        </extensions>
      </trkpt>
      <trkpt lat="45.32388621009886264801025390625" lon="-71.06209116987884044647216796875">
        <ele>565.4000244140625</ele>
        <time>2026-08-21T22:37:25.000Z</time>
        <extensions>
          <ns3:TrackPointExtension>
            <ns3:hr>138</ns3:hr>
            <ns3:cad>53</ns3:cad>
          </ns3:TrackPointExtension>
        </extensions>
      </trkpt>
      <trkpt lat="45.32386936247348785400390625" lon="-71.06209686957299709320068359375">
        <ele>565.5999755859375</ele>
        <time>2026-08-21T22:37:26.000Z</time>
        <extensions>
          <ns3:TrackPointExtension>
            <ns3:hr>138</ns3:hr>
            <ns3:cad>53</ns3:cad>
          </ns3:TrackPointExtension>
        </extensions>
      </trkpt>
      <trkpt lat="45.3238584659993648529052734375" lon="-71.0621041618287563323974609375">
        <ele>565.79998779296875</ele>
        <time>2026-08-21T22:37:27.000Z</time>
        <extensions>
          <ns3:TrackPointExtension>
            <ns3:hr>138</ns3:hr>
            <ns3:cad>53</ns3:cad>
          </ns3:TrackPointExtension>
        </extensions>
      </trkpt>
      <trkpt lat="45.3238458931446075439453125" lon="-71.06210676021873950958251953125">
        <ele>565.79998779296875</ele>
        <time>2026-08-21T22:37:28.000Z</time>
        <extensions>
          <ns3:TrackPointExtension>
            <ns3:hr>138</ns3:hr>
            <ns3:cad>53</ns3:cad>
          </ns3:TrackPointExtension>
        </extensions>
      </trkpt>
      <trkpt lat="45.32383139245212078094482421875" lon="-71.0621085204184055328369140625">
        <ele>566</ele>
        <time>2026-08-21T22:37:29.000Z</time>
        <extensions>
          <ns3:TrackPointExtension>
            <ns3:hr>138</ns3:hr>
            <ns3:cad>53</ns3:cad>
          </ns3:TrackPointExtension>
        </extensions>
      </trkpt>
      <trkpt lat="45.3238190710544586181640625" lon="-71.06210860423743724822998046875">
        <ele>566.20001220703125</ele>
        <time>2026-08-21T22:37:30.000Z</time>
        <extensions>
          <ns3:TrackPointExtension>
            <ns3:hr>138</ns3:hr>
            <ns3:cad>53</ns3:cad>
          </ns3:TrackPointExtension>
        </extensions>
      </trkpt>
      <trkpt lat="45.323807336390018463134765625" lon="-71.062108017504215240478515625">
        <ele>566.20001220703125</ele>
        <time>2026-08-21T22:37:31.000Z</time>
        <extensions>
          <ns3:TrackPointExtension>
            <ns3:hr>138</ns3:hr>
            <ns3:cad>53</ns3:cad>
          </ns3:TrackPointExtension>
        </extensions>
      </trkpt>
      <trkpt lat="45.32379426062107086181640625" lon="-71.06210541911423206329345703125">
        <ele>566.4000244140625</ele>
        <time>2026-08-21T22:37:32.000Z</time>
        <extensions>
          <ns3:TrackPointExtension>
            <ns3:hr>138</ns3:hr>
            <ns3:cad>53</ns3:cad>
          </ns3:TrackPointExtension>
        </extensions>
      </trkpt>
      <trkpt lat="45.32378294505178928375244140625" lon="-71.06210893951356410980224609375">
        <ele>566.5999755859375</ele>
        <time>2026-08-21T22:37:33.000Z</time>
        <extensions>
          <ns3:TrackPointExtension>
            <ns3:hr>137</ns3:hr>
            <ns3:cad>50</ns3:cad>
          </ns3:TrackPointExtension>
        </extensions>
      </trkpt>
      <trkpt lat="45.3237681090831756591796875" lon="-71.0621081851422786712646484375">
        <ele>566.79998779296875</ele>
        <time>2026-08-21T22:37:34.000Z</time>
        <extensions>
          <ns3:TrackPointExtension>
            <ns3:hr>137</ns3:hr>
            <ns3:cad>50</ns3:cad>
          </ns3:TrackPointExtension>
        </extensions>
      </trkpt>
      <trkpt lat="45.3237545304000377655029296875" lon="-71.06210860423743724822998046875">
        <ele>566.79998779296875</ele>
        <time>2026-08-21T22:37:35.000Z</time>
        <extensions>
          <ns3:TrackPointExtension>
            <ns3:hr>137</ns3:hr>
            <ns3:cad>50</ns3:cad>
          </ns3:TrackPointExtension>
        </extensions>
      </trkpt>
      <trkpt lat="45.32373986206948757171630859375" lon="-71.06210994534194469451904296875">
        <ele>567</ele>
        <time>2026-08-21T22:37:36.000Z</time>
        <extensions>
          <ns3:TrackPointExtension>
            <ns3:hr>136</ns3:hr>
            <ns3:cad>51</ns3:cad>
          </ns3:TrackPointExtension>
        </extensions>
      </trkpt>
      <trkpt lat="45.3237243555486202239990234375" lon="-71.0621098615229129791259765625">
        <ele>567.20001220703125</ele>
        <time>2026-08-21T22:37:37.000Z</time>
        <extensions>
          <ns3:TrackPointExtension>
            <ns3:hr>136</ns3:hr>
            <ns3:cad>51</ns3:cad>
          </ns3:TrackPointExtension>
        </extensions>
      </trkpt>
      <trkpt lat="45.3237099386751651763916015625" lon="-71.06210575439035892486572265625">
        <ele>567.20001220703125</ele>
        <time>2026-08-21T22:37:38.000Z</time>
        <extensions>
          <ns3:TrackPointExtension>
            <ns3:hr>136</ns3:hr>
            <ns3:cad>50</ns3:cad>
          </ns3:TrackPointExtension>
        </extensions>
      </trkpt>
      <trkpt lat="45.3236955218017101287841796875" lon="-71.0621021501719951629638671875">
        <ele>567.4000244140625</ele>
        <time>2026-08-21T22:37:39.000Z</time>
        <extensions>
          <ns3:TrackPointExtension>
            <ns3:hr>136</ns3:hr>
            <ns3:cad>50</ns3:cad>
          </ns3:TrackPointExtension>
        </extensions>
      </trkpt>
      <trkpt lat="45.32368160784244537353515625" lon="-71.06210290454328060150146484375">
        <ele>567.5999755859375</ele>
        <time>2026-08-21T22:37:40.000Z</time>
        <extensions>
          <ns3:TrackPointExtension>
            <ns3:hr>136</ns3:hr>
            <ns3:cad>50</ns3:cad>
          </ns3:TrackPointExtension>
        </extensions>
      </trkpt>
      <trkpt lat="45.323664508759975433349609375" lon="-71.06210323981940746307373046875">
        <ele>567.5999755859375</ele>
        <time>2026-08-21T22:37:41.000Z</time>
        <extensions>
          <ns3:TrackPointExtension>
            <ns3:hr>136</ns3:hr>
            <ns3:cad>51</ns3:cad>
          </ns3:TrackPointExtension>
        </extensions>
      </trkpt>
      <trkpt lat="45.3236542828381061553955078125" lon="-71.0621071793138980865478515625">
        <ele>567.5999755859375</ele>
        <time>2026-08-21T22:37:42.000Z</time>
        <extensions>
          <ns3:TrackPointExtension>
            <ns3:hr>136</ns3:hr>
            <ns3:cad>51</ns3:cad>
          </ns3:TrackPointExtension>
        </extensions>
      </trkpt>
      <trkpt lat="45.32364070415496826171875" lon="-71.06211262755095958709716796875">
        <ele>567.79998779296875</ele>
        <time>2026-08-21T22:37:43.000Z</time>
        <extensions>
          <ns3:TrackPointExtension>
            <ns3:hr>136</ns3:hr>
            <ns3:cad>51</ns3:cad>
          </ns3:TrackPointExtension>
        </extensions>
      </trkpt>
      <trkpt lat="45.323628969490528106689453125" lon="-71.062113381922245025634765625">
        <ele>567.79998779296875</ele>
        <time>2026-08-21T22:37:44.000Z</time>
        <extensions>
          <ns3:TrackPointExtension>
            <ns3:hr>136</ns3:hr>
            <ns3:cad>51</ns3:cad>
          </ns3:TrackPointExtension>
        </extensions>
      </trkpt>
      <trkpt lat="45.32361849211156368255615234375" lon="-71.0621112026274204254150390625">
        <ele>568</ele>
        <time>2026-08-21T22:37:45.000Z</time>
        <extensions>
          <ns3:TrackPointExtension>
            <ns3:hr>136</ns3:hr>
            <ns3:cad>51</ns3:cad>
          </ns3:TrackPointExtension>
        </extensions>
      </trkpt>
      <trkpt lat="45.32360591925680637359619140625" lon="-71.0621118731796741485595703125">
        <ele>568.20001220703125</ele>
        <time>2026-08-21T22:37:46.000Z</time>
        <extensions>
          <ns3:TrackPointExtension>
            <ns3:hr>136</ns3:hr>
            <ns3:cad>51</ns3:cad>
          </ns3:TrackPointExtension>
        </extensions>
      </trkpt>
      <trkpt lat="45.32359443604946136474609375" lon="-71.06211212463676929473876953125">
        <ele>568.20001220703125</ele>
        <time>2026-08-21T22:37:47.000Z</time>
        <extensions>
          <ns3:TrackPointExtension>
            <ns3:hr>136</ns3:hr>
            <ns3:cad>52</ns3:cad>
          </ns3:TrackPointExtension>
        </extensions>
      </trkpt>
      <trkpt lat="45.3235821984708309173583984375" lon="-71.06211262755095958709716796875">
        <ele>568.4000244140625</ele>
        <time>2026-08-21T22:37:48.000Z</time>
        <extensions>
          <ns3:TrackPointExtension>
            <ns3:hr>136</ns3:hr>
            <ns3:cad>52</ns3:cad>
          </ns3:TrackPointExtension>
        </extensions>
      </trkpt>
      <trkpt lat="45.32356903888285160064697265625" lon="-71.06211229227483272552490234375">
        <ele>568.5999755859375</ele>
        <time>2026-08-21T22:37:49.000Z</time>
        <extensions>
          <ns3:TrackPointExtension>
            <ns3:hr>136</ns3:hr>
            <ns3:cad>52</ns3:cad>
          </ns3:TrackPointExtension>
        </extensions>
      </trkpt>
      <trkpt lat="45.32355311326682567596435546875" lon="-71.06211178936064243316650390625">
        <ele>568.5999755859375</ele>
        <time>2026-08-21T22:37:50.000Z</time>
        <extensions>
          <ns3:TrackPointExtension>
            <ns3:hr>136</ns3:hr>
            <ns3:cad>52</ns3:cad>
          </ns3:TrackPointExtension>
        </extensions>
      </trkpt>
      <trkpt lat="45.3235401213169097900390625" lon="-71.06211329810321331024169921875">
        <ele>568.79998779296875</ele>
        <time>2026-08-21T22:37:51.000Z</time>
        <extensions>
          <ns3:TrackPointExtension>
            <ns3:hr>136</ns3:hr>
            <ns3:cad>52</ns3:cad>
          </ns3:TrackPointExtension>
        </extensions>
      </trkpt>
      <trkpt lat="45.32352495007216930389404296875" lon="-71.06211371719837188720703125">
        <ele>568.79998779296875</ele>
        <time>2026-08-21T22:37:52.000Z</time>
        <extensions>
          <ns3:TrackPointExtension>
            <ns3:hr>136</ns3:hr>
            <ns3:cad>53</ns3:cad>
          </ns3:TrackPointExtension>
        </extensions>
      </trkpt>
      <trkpt lat="45.32351170666515827178955078125" lon="-71.0621098615229129791259765625">
        <ele>569</ele>
        <time>2026-08-21T22:37:53.000Z</time>
        <extensions>
          <ns3:TrackPointExtension>
            <ns3:hr>136</ns3:hr>
            <ns3:cad>53</ns3:cad>
          </ns3:TrackPointExtension>
        </extensions>
      </trkpt>
      <trkpt lat="45.323494859039783477783203125" lon="-71.0621128790080547332763671875">
        <ele>569.20001220703125</ele>
        <time>2026-08-21T22:37:54.000Z</time>
        <extensions>
          <ns3:TrackPointExtension>
            <ns3:hr>136</ns3:hr>
            <ns3:cad>53</ns3:cad>
          </ns3:TrackPointExtension>
        </extensions>
      </trkpt>
      <trkpt lat="45.3234837949275970458984375" lon="-71.06211849488317966461181640625">
        <ele>569.4000244140625</ele>
        <time>2026-08-21T22:37:55.000Z</time>
        <extensions>
          <ns3:TrackPointExtension>
            <ns3:hr>136</ns3:hr>
            <ns3:cad>0</ns3:cad>
          </ns3:TrackPointExtension>
        </extensions>
      </trkpt>
      <trkpt lat="45.323471724987030029296875" lon="-71.062106005847454071044921875">
        <ele>569.4000244140625</ele>
        <time>2026-08-21T22:37:56.000Z</time>
        <extensions>
          <ns3:TrackPointExtension>
            <ns3:hr>136</ns3:hr>
            <ns3:cad>0</ns3:cad>
          </ns3:TrackPointExtension>
        </extensions>
      </trkpt>
      <trkpt lat="45.32345973886549472808837890625" lon="-71.06210307218134403228759765625">
        <ele>569.5999755859375</ele>
        <time>2026-08-21T22:37:57.000Z</time>
        <extensions>
          <ns3:TrackPointExtension>
            <ns3:hr>136</ns3:hr>
            <ns3:cad>0</ns3:cad>
          </ns3:TrackPointExtension>
        </extensions>
      </trkpt>
      <trkpt lat="45.32344481907784938812255859375" lon="-71.062101982533931732177734375">
        <ele>569.5999755859375</ele>
        <time>2026-08-21T22:37:58.000Z</time>
        <extensions>
          <ns3:TrackPointExtension>
            <ns3:hr>135</ns3:hr>
            <ns3:cad>0</ns3:cad>
          </ns3:TrackPointExtension>
        </extensions>
      </trkpt>
      <trkpt lat="45.32343258149921894073486328125" lon="-71.0621065087616443634033203125">
        <ele>569.79998779296875</ele>
        <time>2026-08-21T22:37:59.000Z</time>
        <extensions>
          <ns3:TrackPointExtension>
            <ns3:hr>135</ns3:hr>
            <ns3:cad>0</ns3:cad>
          </ns3:TrackPointExtension>
        </extensions>
      </trkpt>
      <trkpt lat="45.32341967336833477020263671875" lon="-71.06210189871490001678466796875">
        <ele>570</ele>
        <time>2026-08-21T22:38:00.000Z</time>
        <extensions>
          <ns3:TrackPointExtension>
            <ns3:hr>134</ns3:hr>
            <ns3:cad>0</ns3:cad>
          </ns3:TrackPointExtension>
        </extensions>
      </trkpt>
      <trkpt lat="45.32340810634195804595947265625" lon="-71.06209770776331424713134765625">
        <ele>570</ele>
        <time>2026-08-21T22:38:01.000Z</time>
        <extensions>
          <ns3:TrackPointExtension>
            <ns3:hr>134</ns3:hr>
            <ns3:cad>0</ns3:cad>
          </ns3:TrackPointExtension>
        </extensions>
      </trkpt>
      <trkpt lat="45.32339234836399555206298828125" lon="-71.062099635601043701171875">
        <ele>570.20001220703125</ele>
        <time>2026-08-21T22:38:02.000Z</time>
        <extensions>
          <ns3:TrackPointExtension>
            <ns3:hr>135</ns3:hr>
            <ns3:cad>0</ns3:cad>
          </ns3:TrackPointExtension>
        </extensions>
      </trkpt>
      <trkpt lat="45.323375500738620758056640625" lon="-71.06209821067750453948974609375">
        <ele>570.20001220703125</ele>
        <time>2026-08-21T22:38:03.000Z</time>
        <extensions>
          <ns3:TrackPointExtension>
            <ns3:hr>134</ns3:hr>
            <ns3:cad>0</ns3:cad>
          </ns3:TrackPointExtension>
        </extensions>
      </trkpt>
      <trkpt lat="45.3233595751225948333740234375" lon="-71.0621004737913608551025390625">
        <ele>570.4000244140625</ele>
        <time>2026-08-21T22:38:04.000Z</time>
        <extensions>
          <ns3:TrackPointExtension>
            <ns3:hr>134</ns3:hr>
            <ns3:cad>0</ns3:cad>
          </ns3:TrackPointExtension>
        </extensions>
      </trkpt>
      <trkpt lat="45.32334499061107635498046875" lon="-71.06210223399102687835693359375">
        <ele>570.4000244140625</ele>
        <time>2026-08-21T22:38:05.000Z</time>
        <extensions>
          <ns3:TrackPointExtension>
            <ns3:hr>134</ns3:hr>
            <ns3:cad>52</ns3:cad>
          </ns3:TrackPointExtension>
        </extensions>
      </trkpt>
      <trkpt lat="45.3233334235846996307373046875" lon="-71.06210173107683658599853515625">
        <ele>570.5999755859375</ele>
        <time>2026-08-21T22:38:06.000Z</time>
        <extensions>
          <ns3:TrackPointExtension>
            <ns3:hr>134</ns3:hr>
            <ns3:cad>52</ns3:cad>
          </ns3:TrackPointExtension>
        </extensions>
      </trkpt>
      <trkpt lat="45.3233230300247669219970703125" lon="-71.06210525147616863250732421875">
        <ele>570.79998779296875</ele>
        <time>2026-08-21T22:38:07.000Z</time>
        <extensions>
          <ns3:TrackPointExtension>
            <ns3:hr>134</ns3:hr>
            <ns3:cad>53</ns3:cad>
          </ns3:TrackPointExtension>
        </extensions>
      </trkpt>
      <trkpt lat="45.32331255264580249786376953125" lon="-71.0621098615229129791259765625">
        <ele>571</ele>
        <time>2026-08-21T22:38:08.000Z</time>
        <extensions>
          <ns3:TrackPointExtension>
            <ns3:hr>134</ns3:hr>
            <ns3:cad>53</ns3:cad>
          </ns3:TrackPointExtension>
        </extensions>
      </trkpt>
      <trkpt lat="45.3232998959720134735107421875" lon="-71.062110029160976409912109375">
        <ele>571.20001220703125</ele>
        <time>2026-08-21T22:38:09.000Z</time>
        <extensions>
          <ns3:TrackPointExtension>
            <ns3:hr>134</ns3:hr>
            <ns3:cad>53</ns3:cad>
          </ns3:TrackPointExtension>
        </extensions>
      </trkpt>
      <trkpt lat="45.323288999497890472412109375" lon="-71.0621078498661518096923828125">
        <ele>571.4000244140625</ele>
        <time>2026-08-21T22:38:10.000Z</time>
        <extensions>
          <ns3:TrackPointExtension>
            <ns3:hr>134</ns3:hr>
            <ns3:cad>52</ns3:cad>
          </ns3:TrackPointExtension>
        </extensions>
      </trkpt>
      <trkpt lat="45.32327525317668914794921875" lon="-71.06211430393159389495849609375">
        <ele>571.4000244140625</ele>
        <time>2026-08-21T22:38:11.000Z</time>
        <extensions>
          <ns3:TrackPointExtension>
            <ns3:hr>134</ns3:hr>
            <ns3:cad>52</ns3:cad>
          </ns3:TrackPointExtension>
        </extensions>
      </trkpt>
      <trkpt lat="45.32326393760740756988525390625" lon="-71.06212235055863857269287109375">
        <ele>571.5999755859375</ele>
        <time>2026-08-21T22:38:12.000Z</time>
        <extensions>
          <ns3:TrackPointExtension>
            <ns3:hr>133</ns3:hr>
            <ns3:cad>52</ns3:cad>
          </ns3:TrackPointExtension>
        </extensions>
      </trkpt>
      <trkpt lat="45.32325438223779201507568359375" lon="-71.06212176382541656494140625">
        <ele>571.79998779296875</ele>
        <time>2026-08-21T22:38:13.000Z</time>
        <extensions>
          <ns3:TrackPointExtension>
            <ns3:hr>133</ns3:hr>
            <ns3:cad>52</ns3:cad>
          </ns3:TrackPointExtension>
        </extensions>
      </trkpt>
      <trkpt lat="45.32324398867785930633544921875" lon="-71.06212302111089229583740234375">
        <ele>572</ele>
        <time>2026-08-21T22:38:14.000Z</time>
        <extensions>
          <ns3:TrackPointExtension>
            <ns3:hr>133</ns3:hr>
            <ns3:cad>51</ns3:cad>
          </ns3:TrackPointExtension>
        </extensions>
      </trkpt>
      <trkpt lat="45.323233343660831451416015625" lon="-71.0621251165866851806640625">
        <ele>572.20001220703125</ele>
        <time>2026-08-21T22:38:15.000Z</time>
        <extensions>
          <ns3:TrackPointExtension>
            <ns3:hr>133</ns3:hr>
            <ns3:cad>51</ns3:cad>
          </ns3:TrackPointExtension>
        </extensions>
      </trkpt>
      <trkpt lat="45.32322521321475505828857421875" lon="-71.06212578713893890380859375">
        <ele>572.20001220703125</ele>
        <time>2026-08-21T22:38:16.000Z</time>
        <extensions>
          <ns3:TrackPointExtension>
            <ns3:hr>132</ns3:hr>
            <ns3:cad>51</ns3:cad>
          </ns3:TrackPointExtension>
        </extensions>
      </trkpt>
      <trkpt lat="45.32321155071258544921875" lon="-71.062123440206050872802734375">
        <ele>572.4000244140625</ele>
        <time>2026-08-21T22:38:17.000Z</time>
        <extensions>
          <ns3:TrackPointExtension>
            <ns3:hr>132</ns3:hr>
            <ns3:cad>52</ns3:cad>
          </ns3:TrackPointExtension>
        </extensions>
      </trkpt>
      <trkpt lat="45.3231979720294475555419921875" lon="-71.062124781310558319091796875">
        <ele>572.5999755859375</ele>
        <time>2026-08-21T22:38:18.000Z</time>
        <extensions>
          <ns3:TrackPointExtension>
            <ns3:hr>132</ns3:hr>
            <ns3:cad>52</ns3:cad>
          </ns3:TrackPointExtension>
        </extensions>
      </trkpt>
      <trkpt lat="45.32318430952727794647216796875" lon="-71.0621249489486217498779296875">
        <ele>572.5999755859375</ele>
        <time>2026-08-21T22:38:19.000Z</time>
        <extensions>
          <ns3:TrackPointExtension>
            <ns3:hr>132</ns3:hr>
            <ns3:cad>51</ns3:cad>
          </ns3:TrackPointExtension>
        </extensions>
      </trkpt>
      <trkpt lat="45.32317492179572582244873046875" lon="-71.06212033890187740325927734375">
        <ele>572.79998779296875</ele>
        <time>2026-08-21T22:38:20.000Z</time>
        <extensions>
          <ns3:TrackPointExtension>
            <ns3:hr>132</ns3:hr>
            <ns3:cad>51</ns3:cad>
          </ns3:TrackPointExtension>
        </extensions>
      </trkpt>
      <trkpt lat="45.32315991818904876708984375" lon="-71.06212268583476543426513671875">
        <ele>573</ele>
        <time>2026-08-21T22:38:21.000Z</time>
        <extensions>
          <ns3:TrackPointExtension>
            <ns3:hr>132</ns3:hr>
            <ns3:cad>50</ns3:cad>
          </ns3:TrackPointExtension>
        </extensions>
      </trkpt>
      <trkpt lat="45.3231460042297840118408203125" lon="-71.06212553568184375762939453125">
        <ele>573</ele>
        <time>2026-08-21T22:38:22.000Z</time>
        <extensions>
          <ns3:TrackPointExtension>
            <ns3:hr>132</ns3:hr>
            <ns3:cad>50</ns3:cad>
          </ns3:TrackPointExtension>
        </extensions>
      </trkpt>
      <trkpt lat="45.32313385047018527984619140625" lon="-71.06212838552892208099365234375">
        <ele>573.20001220703125</ele>
        <time>2026-08-21T22:38:23.000Z</time>
        <extensions>
          <ns3:TrackPointExtension>
            <ns3:hr>132</ns3:hr>
            <ns3:cad>50</ns3:cad>
          </ns3:TrackPointExtension>
        </extensions>
      </trkpt>
      <trkpt lat="45.3231190145015716552734375" lon="-71.0621289722621440887451171875">
        <ele>573.4000244140625</ele>
        <time>2026-08-21T22:38:24.000Z</time>
        <extensions>
          <ns3:TrackPointExtension>
            <ns3:hr>132</ns3:hr>
            <ns3:cad>49</ns3:cad>
          </ns3:TrackPointExtension>
        </extensions>
      </trkpt>
      <trkpt lat="45.3231054358184337615966796875" lon="-71.062128804624080657958984375">
        <ele>573.5999755859375</ele>
        <time>2026-08-21T22:38:25.000Z</time>
        <extensions>
          <ns3:TrackPointExtension>
            <ns3:hr>132</ns3:hr>
            <ns3:cad>49</ns3:cad>
          </ns3:TrackPointExtension>
        </extensions>
      </trkpt>
      <trkpt lat="45.32309143804013729095458984375" lon="-71.06213022954761981964111328125">
        <ele>573.79998779296875</ele>
        <time>2026-08-21T22:38:26.000Z</time>
        <extensions>
          <ns3:TrackPointExtension>
            <ns3:hr>132</ns3:hr>
            <ns3:cad>48</ns3:cad>
          </ns3:TrackPointExtension>
        </extensions>
      </trkpt>
      <trkpt lat="45.3230802901089191436767578125" lon="-71.06213140301406383514404296875">
        <ele>574</ele>
        <time>2026-08-21T22:38:27.000Z</time>
        <extensions>
          <ns3:TrackPointExtension>
            <ns3:hr>132</ns3:hr>
            <ns3:cad>48</ns3:cad>
          </ns3:TrackPointExtension>
        </extensions>
      </trkpt>
      <trkpt lat="45.3230675496160984039306640625" lon="-71.062131486833095550537109375">
        <ele>574</ele>
        <time>2026-08-21T22:38:28.000Z</time>
        <extensions>
          <ns3:TrackPointExtension>
            <ns3:hr>132</ns3:hr>
            <ns3:cad>51</ns3:cad>
          </ns3:TrackPointExtension>
        </extensions>
      </trkpt>
      <trkpt lat="45.323056317865848541259765625" lon="-71.0621304810047149658203125">
        <ele>574.20001220703125</ele>
        <time>2026-08-21T22:38:29.000Z</time>
        <extensions>
          <ns3:TrackPointExtension>
            <ns3:hr>132</ns3:hr>
            <ns3:cad>52</ns3:cad>
          </ns3:TrackPointExtension>
        </extensions>
      </trkpt>
      <trkpt lat="45.323036871850490570068359375" lon="-71.06213307939469814300537109375">
        <ele>574.4000244140625</ele>
        <time>2026-08-21T22:38:30.000Z</time>
        <extensions>
          <ns3:TrackPointExtension>
            <ns3:hr>132</ns3:hr>
            <ns3:cad>52</ns3:cad>
          </ns3:TrackPointExtension>
        </extensions>
      </trkpt>
      <trkpt lat="45.3230209462344646453857421875" lon="-71.06213827617466449737548828125">
        <ele>574.5999755859375</ele>
        <time>2026-08-21T22:38:31.000Z</time>
        <extensions>
          <ns3:TrackPointExtension>
            <ns3:hr>132</ns3:hr>
            <ns3:cad>52</ns3:cad>
          </ns3:TrackPointExtension>
        </extensions>
      </trkpt>
      <trkpt lat="45.3230115585029125213623046875" lon="-71.06213743798434734344482421875">
        <ele>574.79998779296875</ele>
        <time>2026-08-21T22:38:32.000Z</time>
        <extensions>
          <ns3:TrackPointExtension>
            <ns3:hr>132</ns3:hr>
            <ns3:cad>52</ns3:cad>
          </ns3:TrackPointExtension>
        </extensions>
      </trkpt>
      <trkpt lat="45.32299990765750408172607421875" lon="-71.06213877908885478973388671875">
        <ele>575</ele>
        <time>2026-08-21T22:38:33.000Z</time>
        <extensions>
          <ns3:TrackPointExtension>
            <ns3:hr>132</ns3:hr>
            <ns3:cad>51</ns3:cad>
          </ns3:TrackPointExtension>
        </extensions>
      </trkpt>
      <trkpt lat="45.32299135811626911163330078125" lon="-71.06214330531656742095947265625">
        <ele>575.20001220703125</ele>
        <time>2026-08-21T22:38:34.000Z</time>
        <extensions>
          <ns3:TrackPointExtension>
            <ns3:hr>132</ns3:hr>
            <ns3:cad>51</ns3:cad>
          </ns3:TrackPointExtension>
        </extensions>
      </trkpt>
      <trkpt lat="45.32297979108989238739013671875" lon="-71.06214598752558231353759765625">
        <ele>575.4000244140625</ele>
        <time>2026-08-21T22:38:35.000Z</time>
        <extensions>
          <ns3:TrackPointExtension>
            <ns3:hr>132</ns3:hr>
            <ns3:cad>51</ns3:cad>
          </ns3:TrackPointExtension>
        </extensions>
      </trkpt>
      <trkpt lat="45.32297291792929172515869140625" lon="-71.06214548461139202117919921875">
        <ele>575.5999755859375</ele>
        <time>2026-08-21T22:38:36.000Z</time>
        <extensions>
          <ns3:TrackPointExtension>
            <ns3:hr>132</ns3:hr>
            <ns3:cad>49</ns3:cad>
          </ns3:TrackPointExtension>
        </extensions>
      </trkpt>
      <trkpt lat="45.32296285964548587799072265625" lon="-71.06214297004044055938720703125">
        <ele>575.79998779296875</ele>
        <time>2026-08-21T22:38:37.000Z</time>
        <extensions>
          <ns3:TrackPointExtension>
            <ns3:hr>132</ns3:hr>
            <ns3:cad>49</ns3:cad>
          </ns3:TrackPointExtension>
        </extensions>
      </trkpt>
      <trkpt lat="45.32295531593263149261474609375" lon="-71.0621470771729946136474609375">
        <ele>575.79998779296875</ele>
        <time>2026-08-21T22:38:38.000Z</time>
        <extensions>
          <ns3:TrackPointExtension>
            <ns3:hr>132</ns3:hr>
            <ns3:cad>49</ns3:cad>
          </ns3:TrackPointExtension>
        </extensions>
      </trkpt>
      <trkpt lat="45.32294257543981075286865234375" lon="-71.06214883737266063690185546875">
        <ele>576</ele>
        <time>2026-08-21T22:38:39.000Z</time>
        <extensions>
          <ns3:TrackPointExtension>
            <ns3:hr>132</ns3:hr>
            <ns3:cad>48</ns3:cad>
          </ns3:TrackPointExtension>
        </extensions>
      </trkpt>
      <trkpt lat="45.3229331038892269134521484375" lon="-71.0621504299342632293701171875">
        <ele>576.20001220703125</ele>
        <time>2026-08-21T22:38:40.000Z</time>
        <extensions>
          <ns3:TrackPointExtension>
            <ns3:hr>132</ns3:hr>
            <ns3:cad>48</ns3:cad>
          </ns3:TrackPointExtension>
        </extensions>
      </trkpt>
      <trkpt lat="45.32292430289089679718017578125" lon="-71.06215353123843669891357421875">
        <ele>576.4000244140625</ele>
        <time>2026-08-21T22:38:41.000Z</time>
        <extensions>
          <ns3:TrackPointExtension>
            <ns3:hr>132</ns3:hr>
            <ns3:cad>48</ns3:cad>
          </ns3:TrackPointExtension>
        </extensions>
      </trkpt>
      <trkpt lat="45.32291491515934467315673828125" lon="-71.06215654872357845306396484375">
        <ele>576.5999755859375</ele>
        <time>2026-08-21T22:38:42.000Z</time>
        <extensions>
          <ns3:TrackPointExtension>
            <ns3:hr>132</ns3:hr>
            <ns3:cad>48</ns3:cad>
          </ns3:TrackPointExtension>
        </extensions>
      </trkpt>
      <trkpt lat="45.322910137474536895751953125" lon="-71.06215906329452991485595703125">
        <ele>576.79998779296875</ele>
        <time>2026-08-21T22:38:43.000Z</time>
        <extensions>
          <ns3:TrackPointExtension>
            <ns3:hr>133</ns3:hr>
            <ns3:cad>50</ns3:cad>
          </ns3:TrackPointExtension>
        </extensions>
      </trkpt>
      <trkpt lat="45.32290066592395305633544921875" lon="-71.062158308923244476318359375">
        <ele>577</ele>
        <time>2026-08-21T22:38:44.000Z</time>
        <extensions>
          <ns3:TrackPointExtension>
            <ns3:hr>133</ns3:hr>
            <ns3:cad>50</ns3:cad>
          </ns3:TrackPointExtension>
        </extensions>
      </trkpt>
      <trkpt lat="45.32288943417370319366455078125" lon="-71.062157638370990753173828125">
        <ele>577.20001220703125</ele>
        <time>2026-08-21T22:38:45.000Z</time>
        <extensions>
          <ns3:TrackPointExtension>
            <ns3:hr>133</ns3:hr>
            <ns3:cad>48</ns3:cad>
          </ns3:TrackPointExtension>
        </extensions>
      </trkpt>
      <trkpt lat="45.32287719659507274627685546875" lon="-71.06215923093259334564208984375">
        <ele>577.4000244140625</ele>
        <time>2026-08-21T22:38:46.000Z</time>
        <extensions>
          <ns3:TrackPointExtension>
            <ns3:hr>133</ns3:hr>
            <ns3:cad>48</ns3:cad>
          </ns3:TrackPointExtension>
        </extensions>
      </trkpt>
      <trkpt lat="45.32287166453897953033447265625" lon="-71.06216124258935451507568359375">
        <ele>577.5999755859375</ele>
        <time>2026-08-21T22:38:47.000Z</time>
        <extensions>
          <ns3:TrackPointExtension>
            <ns3:hr>134</ns3:hr>
            <ns3:cad>48</ns3:cad>
          </ns3:TrackPointExtension>
        </extensions>
      </trkpt>
      <trkpt lat="45.32286227680742740631103515625" lon="-71.06216291896998882293701171875">
        <ele>577.79998779296875</ele>
        <time>2026-08-21T22:38:48.000Z</time>
        <extensions>
          <ns3:TrackPointExtension>
            <ns3:hr>134</ns3:hr>
            <ns3:cad>48</ns3:cad>
          </ns3:TrackPointExtension>
        </extensions>
      </trkpt>
      <trkpt lat="45.32285506837069988250732421875" lon="-71.06216375716030597686767578125">
        <ele>578</ele>
        <time>2026-08-21T22:38:49.000Z</time>
        <extensions>
          <ns3:TrackPointExtension>
            <ns3:hr>134</ns3:hr>
            <ns3:cad>48</ns3:cad>
          </ns3:TrackPointExtension>
        </extensions>
      </trkpt>
      <trkpt lat="45.3228429146111011505126953125" lon="-71.06216627173125743865966796875">
        <ele>578.20001220703125</ele>
        <time>2026-08-21T22:38:50.000Z</time>
        <extensions>
          <ns3:TrackPointExtension>
            <ns3:hr>135</ns3:hr>
            <ns3:cad>49</ns3:cad>
          </ns3:TrackPointExtension>
        </extensions>
      </trkpt>
      <trkpt lat="45.32282606698572635650634765625" lon="-71.06216878630220890045166015625">
        <ele>578.4000244140625</ele>
        <time>2026-08-21T22:38:51.000Z</time>
        <extensions>
          <ns3:TrackPointExtension>
            <ns3:hr>135</ns3:hr>
            <ns3:cad>49</ns3:cad>
          </ns3:TrackPointExtension>
        </extensions>
      </trkpt>
      <trkpt lat="45.3228144161403179168701171875" lon="-71.06217272579669952392578125">
        <ele>578.4000244140625</ele>
        <time>2026-08-21T22:38:52.000Z</time>
        <extensions>
          <ns3:TrackPointExtension>
            <ns3:hr>135</ns3:hr>
            <ns3:cad>48</ns3:cad>
          </ns3:TrackPointExtension>
        </extensions>
      </trkpt>
      <trkpt lat="45.32280343584716320037841796875" lon="-71.06217649765312671661376953125">
        <ele>578.5999755859375</ele>
        <time>2026-08-21T22:38:53.000Z</time>
        <extensions>
          <ns3:TrackPointExtension>
            <ns3:hr>136</ns3:hr>
            <ns3:cad>48</ns3:cad>
          </ns3:TrackPointExtension>
        </extensions>
      </trkpt>
      <trkpt lat="45.32279253937304019927978515625" lon="-71.06218018569052219390869140625">
        <ele>578.79998779296875</ele>
        <time>2026-08-21T22:38:54.000Z</time>
        <extensions>
          <ns3:TrackPointExtension>
            <ns3:hr>136</ns3:hr>
            <ns3:cad>48</ns3:cad>
          </ns3:TrackPointExtension>
        </extensions>
      </trkpt>
      <trkpt lat="45.3227785415947437286376953125" lon="-71.06218278408050537109375">
        <ele>579.20001220703125</ele>
        <time>2026-08-21T22:38:55.000Z</time>
        <extensions>
          <ns3:TrackPointExtension>
            <ns3:hr>136</ns3:hr>
            <ns3:cad>49</ns3:cad>
          </ns3:TrackPointExtension>
        </extensions>
      </trkpt>
      <trkpt lat="45.32276655547320842742919921875" lon="-71.06218823231756687164306640625">
        <ele>579.4000244140625</ele>
        <time>2026-08-21T22:38:56.000Z</time>
        <extensions>
          <ns3:TrackPointExtension>
            <ns3:hr>136</ns3:hr>
            <ns3:cad>49</ns3:cad>
          </ns3:TrackPointExtension>
        </extensions>
      </trkpt>
      <trkpt lat="45.32275021076202392578125" lon="-71.062192507088184356689453125">
        <ele>579.5999755859375</ele>
        <time>2026-08-21T22:38:57.000Z</time>
        <extensions>
          <ns3:TrackPointExtension>
            <ns3:hr>136</ns3:hr>
            <ns3:cad>48</ns3:cad>
          </ns3:TrackPointExtension>
        </extensions>
      </trkpt>
      <trkpt lat="45.3227379731833934783935546875" lon="-71.06219644658267498016357421875">
        <ele>579.79998779296875</ele>
        <time>2026-08-21T22:38:58.000Z</time>
        <extensions>
          <ns3:TrackPointExtension>
            <ns3:hr>136</ns3:hr>
            <ns3:cad>49</ns3:cad>
          </ns3:TrackPointExtension>
        </extensions>
      </trkpt>
      <trkpt lat="45.322729758918285369873046875" lon="-71.06219896115362644195556640625">
        <ele>580</ele>
        <time>2026-08-21T22:38:59.000Z</time>
        <extensions>
          <ns3:TrackPointExtension>
            <ns3:hr>137</ns3:hr>
            <ns3:cad>49</ns3:cad>
          </ns3:TrackPointExtension>
        </extensions>
      </trkpt>
      <trkpt lat="45.32271911390125751495361328125" lon="-71.06220248155295848846435546875">
        <ele>580</ele>
        <time>2026-08-21T22:39:00.000Z</time>
        <extensions>
          <ns3:TrackPointExtension>
            <ns3:hr>137</ns3:hr>
            <ns3:cad>51</ns3:cad>
          </ns3:TrackPointExtension>
        </extensions>
      </trkpt>
      <trkpt lat="45.32271039672195911407470703125" lon="-71.06220717541873455047607421875">
        <ele>580.20001220703125</ele>
        <time>2026-08-21T22:39:01.000Z</time>
        <extensions>
          <ns3:TrackPointExtension>
            <ns3:hr>137</ns3:hr>
            <ns3:cad>51</ns3:cad>
          </ns3:TrackPointExtension>
        </extensions>
      </trkpt>
      <trkpt lat="45.322700925171375274658203125" lon="-71.06220952235162258148193359375">
        <ele>580.4000244140625</ele>
        <time>2026-08-21T22:39:02.000Z</time>
        <extensions>
          <ns3:TrackPointExtension>
            <ns3:hr>137</ns3:hr>
            <ns3:cad>48</ns3:cad>
          </ns3:TrackPointExtension>
        </extensions>
      </trkpt>
      <trkpt lat="45.32268919050693511962890625" lon="-71.0622109472751617431640625">
        <ele>580.5999755859375</ele>
        <time>2026-08-21T22:39:03.000Z</time>
        <extensions>
          <ns3:TrackPointExtension>
            <ns3:hr>138</ns3:hr>
            <ns3:cad>50</ns3:cad>
          </ns3:TrackPointExtension>
        </extensions>
      </trkpt>
      <trkpt lat="45.3226764500141143798828125" lon="-71.06221069581806659698486328125">
        <ele>580.79998779296875</ele>
        <time>2026-08-21T22:39:04.000Z</time>
        <extensions>
          <ns3:TrackPointExtension>
            <ns3:hr>138</ns3:hr>
            <ns3:cad>50</ns3:cad>
          </ns3:TrackPointExtension>
        </extensions>
      </trkpt>
      <trkpt lat="45.32266731373965740203857421875" lon="-71.0622137971222400665283203125">
        <ele>581</ele>
        <time>2026-08-21T22:39:05.000Z</time>
        <extensions>
          <ns3:TrackPointExtension>
            <ns3:hr>138</ns3:hr>
            <ns3:cad>51</ns3:cad>
          </ns3:TrackPointExtension>
        </extensions>
      </trkpt>
      <trkpt lat="45.32265725545585155487060546875" lon="-71.06221773661673069000244140625">
        <ele>581.20001220703125</ele>
        <time>2026-08-21T22:39:06.000Z</time>
        <extensions>
          <ns3:TrackPointExtension>
            <ns3:hr>138</ns3:hr>
            <ns3:cad>51</ns3:cad>
          </ns3:TrackPointExtension>
        </extensions>
      </trkpt>
      <trkpt lat="45.32264015637338161468505859375" lon="-71.06222058646380901336669921875">
        <ele>581.4000244140625</ele>
        <time>2026-08-21T22:39:07.000Z</time>
        <extensions>
          <ns3:TrackPointExtension>
            <ns3:hr>138</ns3:hr>
            <ns3:cad>51</ns3:cad>
          </ns3:TrackPointExtension>
        </extensions>
      </trkpt>
      <trkpt lat="45.322623141109943389892578125" lon="-71.06222108937799930572509765625">
        <ele>581.5999755859375</ele>
        <time>2026-08-21T22:39:08.000Z</time>
        <extensions>
          <ns3:TrackPointExtension>
            <ns3:hr>139</ns3:hr>
            <ns3:cad>51</ns3:cad>
          </ns3:TrackPointExtension>
        </extensions>
      </trkpt>
      <trkpt lat="45.32261149026453495025634765625" lon="-71.062222011387348175048828125">
        <ele>581.79998779296875</ele>
        <time>2026-08-21T22:39:09.000Z</time>
        <extensions>
          <ns3:TrackPointExtension>
            <ns3:hr>139</ns3:hr>
            <ns3:cad>50</ns3:cad>
          </ns3:TrackPointExtension>
        </extensions>
      </trkpt>
      <trkpt lat="45.32259958796203136444091796875" lon="-71.0622228495776653289794921875">
        <ele>582</ele>
        <time>2026-08-21T22:39:10.000Z</time>
        <extensions>
          <ns3:TrackPointExtension>
            <ns3:hr>140</ns3:hr>
            <ns3:cad>50</ns3:cad>
          </ns3:TrackPointExtension>
        </extensions>
      </trkpt>
      <trkpt lat="45.3225854225456714630126953125" lon="-71.06222569942474365234375">
        <ele>582</ele>
        <time>2026-08-21T22:39:11.000Z</time>
        <extensions>
          <ns3:TrackPointExtension>
            <ns3:hr>141</ns3:hr>
            <ns3:cad>50</ns3:cad>
          </ns3:TrackPointExtension>
        </extensions>
      </trkpt>
      <trkpt lat="45.32257326878607273101806640625" lon="-71.06222813017666339874267578125">
        <ele>582.20001220703125</ele>
        <time>2026-08-21T22:39:12.000Z</time>
        <extensions>
          <ns3:TrackPointExtension>
            <ns3:hr>141</ns3:hr>
            <ns3:cad>50</ns3:cad>
          </ns3:TrackPointExtension>
        </extensions>
      </trkpt>
      <trkpt lat="45.32256203703582286834716796875" lon="-71.0622305609285831451416015625">
        <ele>582.4000244140625</ele>
        <time>2026-08-21T22:39:13.000Z</time>
        <extensions>
          <ns3:TrackPointExtension>
            <ns3:hr>140</ns3:hr>
            <ns3:cad>50</ns3:cad>
          </ns3:TrackPointExtension>
        </extensions>
      </trkpt>
      <trkpt lat="45.3225505538284778594970703125" lon="-71.062232740223407745361328125">
        <ele>582.5999755859375</ele>
        <time>2026-08-21T22:39:14.000Z</time>
        <extensions>
          <ns3:TrackPointExtension>
            <ns3:hr>140</ns3:hr>
            <ns3:cad>50</ns3:cad>
          </ns3:TrackPointExtension>
        </extensions>
      </trkpt>
      <trkpt lat="45.32253873534500598907470703125" lon="-71.06223667971789836883544921875">
        <ele>582.79998779296875</ele>
        <time>2026-08-21T22:39:15.000Z</time>
        <extensions>
          <ns3:TrackPointExtension>
            <ns3:hr>141</ns3:hr>
            <ns3:cad>50</ns3:cad>
          </ns3:TrackPointExtension>
        </extensions>
      </trkpt>
      <trkpt lat="45.322523228824138641357421875" lon="-71.06223584152758121490478515625">
        <ele>582.79998779296875</ele>
        <time>2026-08-21T22:39:16.000Z</time>
        <extensions>
          <ns3:TrackPointExtension>
            <ns3:hr>141</ns3:hr>
            <ns3:cad>50</ns3:cad>
          </ns3:TrackPointExtension>
        </extensions>
      </trkpt>
      <trkpt lat="45.322505794465541839599609375" lon="-71.06223952956497669219970703125">
        <ele>583</ele>
        <time>2026-08-21T22:39:17.000Z</time>
        <extensions>
          <ns3:TrackPointExtension>
            <ns3:hr>142</ns3:hr>
            <ns3:cad>51</ns3:cad>
          </ns3:TrackPointExtension>
        </extensions>
      </trkpt>
      <trkpt lat="45.32248810864984989166259765625" lon="-71.0622458159923553466796875">
        <ele>583</ele>
        <time>2026-08-21T22:39:18.000Z</time>
        <extensions>
          <ns3:TrackPointExtension>
            <ns3:hr>142</ns3:hr>
            <ns3:cad>51</ns3:cad>
          </ns3:TrackPointExtension>
        </extensions>
      </trkpt>
      <trkpt lat="45.32247218303382396697998046875" lon="-71.0622449778020381927490234375">
        <ele>583.20001220703125</ele>
        <time>2026-08-21T22:39:19.000Z</time>
        <extensions>
          <ns3:TrackPointExtension>
            <ns3:hr>142</ns3:hr>
            <ns3:cad>52</ns3:cad>
          </ns3:TrackPointExtension>
        </extensions>
      </trkpt>
      <trkpt lat="45.32245692797005176544189453125" lon="-71.0622449778020381927490234375">
        <ele>583.4000244140625</ele>
        <time>2026-08-21T22:39:20.000Z</time>
        <extensions>
          <ns3:TrackPointExtension>
            <ns3:hr>142</ns3:hr>
            <ns3:cad>52</ns3:cad>
          </ns3:TrackPointExtension>
        </extensions>
      </trkpt>
      <trkpt lat="45.322444438934326171875" lon="-71.06224925257265567779541015625">
        <ele>583.5999755859375</ele>
        <time>2026-08-21T22:39:21.000Z</time>
        <extensions>
          <ns3:TrackPointExtension>
            <ns3:hr>142</ns3:hr>
            <ns3:cad>52</ns3:cad>
          </ns3:TrackPointExtension>
        </extensions>
      </trkpt>
      <trkpt lat="45.3224337100982666015625" lon="-71.0622580535709857940673828125">
        <ele>583.5999755859375</ele>
        <time>2026-08-21T22:39:22.000Z</time>
        <extensions>
          <ns3:TrackPointExtension>
            <ns3:hr>142</ns3:hr>
            <ns3:cad>52</ns3:cad>
          </ns3:TrackPointExtension>
        </extensions>
      </trkpt>
      <trkpt lat="45.3224191255867481231689453125" lon="-71.06226601637899875640869140625">
        <ele>583.79998779296875</ele>
        <time>2026-08-21T22:39:23.000Z</time>
        <extensions>
          <ns3:TrackPointExtension>
            <ns3:hr>142</ns3:hr>
            <ns3:cad>52</ns3:cad>
          </ns3:TrackPointExtension>
        </extensions>
      </trkpt>
      <trkpt lat="45.32240663655102252960205078125" lon="-71.06227372772991657257080078125">
        <ele>584</ele>
        <time>2026-08-21T22:39:24.000Z</time>
        <extensions>
          <ns3:TrackPointExtension>
            <ns3:hr>142</ns3:hr>
            <ns3:cad>52</ns3:cad>
          </ns3:TrackPointExtension>
        </extensions>
      </trkpt>
      <trkpt lat="45.32239322550594806671142578125" lon="-71.0622835345566272735595703125">
        <ele>584</ele>
        <time>2026-08-21T22:39:25.000Z</time>
        <extensions>
          <ns3:TrackPointExtension>
            <ns3:hr>142</ns3:hr>
            <ns3:cad>52</ns3:cad>
          </ns3:TrackPointExtension>
        </extensions>
      </trkpt>
      <trkpt lat="45.32237880863249301910400390625" lon="-71.0622976161539554595947265625">
        <ele>584.20001220703125</ele>
        <time>2026-08-21T22:39:26.000Z</time>
        <extensions>
          <ns3:TrackPointExtension>
            <ns3:hr>141</ns3:hr>
            <ns3:cad>53</ns3:cad>
          </ns3:TrackPointExtension>
        </extensions>
      </trkpt>
      <trkpt lat="45.322366654872894287109375" lon="-71.0623033158481121063232421875">
        <ele>584.20001220703125</ele>
        <time>2026-08-21T22:39:27.000Z</time>
        <extensions>
          <ns3:TrackPointExtension>
            <ns3:hr>141</ns3:hr>
            <ns3:cad>54</ns3:cad>
          </ns3:TrackPointExtension>
        </extensions>
      </trkpt>
      <trkpt lat="45.32235123217105865478515625" lon="-71.0623106919229030609130859375">
        <ele>584.4000244140625</ele>
        <time>2026-08-21T22:39:28.000Z</time>
        <extensions>
          <ns3:TrackPointExtension>
            <ns3:hr>141</ns3:hr>
            <ns3:cad>54</ns3:cad>
          </ns3:TrackPointExtension>
        </extensions>
      </trkpt>
      <trkpt lat="45.3223384916782379150390625" lon="-71.0623210854828357696533203125">
        <ele>584.5999755859375</ele>
        <time>2026-08-21T22:39:29.000Z</time>
        <extensions>
          <ns3:TrackPointExtension>
            <ns3:hr>141</ns3:hr>
            <ns3:cad>54</ns3:cad>
          </ns3:TrackPointExtension>
        </extensions>
      </trkpt>
      <trkpt lat="45.3223289363086223602294921875" lon="-71.062333993613719940185546875">
        <ele>584.79998779296875</ele>
        <time>2026-08-21T22:39:30.000Z</time>
        <extensions>
          <ns3:TrackPointExtension>
            <ns3:hr>140</ns3:hr>
            <ns3:cad>54</ns3:cad>
          </ns3:TrackPointExtension>
        </extensions>
      </trkpt>
      <trkpt lat="45.32231879420578479766845703125" lon="-71.06234371662139892578125">
        <ele>585</ele>
        <time>2026-08-21T22:39:31.000Z</time>
        <extensions>
          <ns3:TrackPointExtension>
            <ns3:hr>140</ns3:hr>
            <ns3:cad>55</ns3:cad>
          </ns3:TrackPointExtension>
        </extensions>
      </trkpt>
      <trkpt lat="45.3223074786365032196044921875" lon="-71.06235352344810962677001953125">
        <ele>585.20001220703125</ele>
        <time>2026-08-21T22:39:32.000Z</time>
        <extensions>
          <ns3:TrackPointExtension>
            <ns3:hr>140</ns3:hr>
            <ns3:cad>55</ns3:cad>
          </ns3:TrackPointExtension>
        </extensions>
      </trkpt>
      <trkpt lat="45.32229230739176273345947265625" lon="-71.06236718595027923583984375">
        <ele>585.20001220703125</ele>
        <time>2026-08-21T22:39:33.000Z</time>
        <extensions>
          <ns3:TrackPointExtension>
            <ns3:hr>140</ns3:hr>
            <ns3:cad>52</ns3:cad>
          </ns3:TrackPointExtension>
        </extensions>
      </trkpt>
      <trkpt lat="45.32228275202214717864990234375" lon="-71.06237950734794139862060546875">
        <ele>585.4000244140625</ele>
        <time>2026-08-21T22:39:34.000Z</time>
        <extensions>
          <ns3:TrackPointExtension>
            <ns3:hr>140</ns3:hr>
            <ns3:cad>52</ns3:cad>
          </ns3:TrackPointExtension>
        </extensions>
      </trkpt>
      <trkpt lat="45.32227001152932643890380859375" lon="-71.06239308603107929229736328125">
        <ele>585.5999755859375</ele>
        <time>2026-08-21T22:39:35.000Z</time>
        <extensions>
          <ns3:TrackPointExtension>
            <ns3:hr>140</ns3:hr>
            <ns3:cad>52</ns3:cad>
          </ns3:TrackPointExtension>
        </extensions>
      </trkpt>
      <trkpt lat="45.32225869596004486083984375" lon="-71.0624035634100437164306640625">
        <ele>585.79998779296875</ele>
        <time>2026-08-21T22:39:36.000Z</time>
        <extensions>
          <ns3:TrackPointExtension>
            <ns3:hr>140</ns3:hr>
            <ns3:cad>53</ns3:cad>
          </ns3:TrackPointExtension>
        </extensions>
      </trkpt>
      <trkpt lat="45.32224738039076328277587890625" lon="-71.06241622008383274078369140625">
        <ele>585.79998779296875</ele>
        <time>2026-08-21T22:39:37.000Z</time>
        <extensions>
          <ns3:TrackPointExtension>
            <ns3:hr>140</ns3:hr>
            <ns3:cad>53</ns3:cad>
          </ns3:TrackPointExtension>
        </extensions>
      </trkpt>
      <trkpt lat="45.32223589718341827392578125" lon="-71.06242594309151172637939453125">
        <ele>586</ele>
        <time>2026-08-21T22:39:38.000Z</time>
        <extensions>
          <ns3:TrackPointExtension>
            <ns3:hr>140</ns3:hr>
            <ns3:cad>53</ns3:cad>
          </ns3:TrackPointExtension>
        </extensions>
      </trkpt>
      <trkpt lat="45.32222642563283443450927734375" lon="-71.062435247004032135009765625">
        <ele>586.20001220703125</ele>
        <time>2026-08-21T22:39:39.000Z</time>
        <extensions>
          <ns3:TrackPointExtension>
            <ns3:hr>140</ns3:hr>
            <ns3:cad>53</ns3:cad>
          </ns3:TrackPointExtension>
        </extensions>
      </trkpt>
      <trkpt lat="45.3222182951867580413818359375" lon="-71.0624458082020282745361328125">
        <ele>586.4000244140625</ele>
        <time>2026-08-21T22:39:40.000Z</time>
        <extensions>
          <ns3:TrackPointExtension>
            <ns3:hr>140</ns3:hr>
            <ns3:cad>53</ns3:cad>
          </ns3:TrackPointExtension>
        </extensions>
      </trkpt>
      <trkpt lat="45.32220848836004734039306640625" lon="-71.06245896779000759124755859375">
        <ele>586.5999755859375</ele>
        <time>2026-08-21T22:39:41.000Z</time>
        <extensions>
          <ns3:TrackPointExtension>
            <ns3:hr>140</ns3:hr>
            <ns3:cad>53</ns3:cad>
          </ns3:TrackPointExtension>
        </extensions>
      </trkpt>
      <trkpt lat="45.3221971727907657623291015625" lon="-71.06247170828282833099365234375">
        <ele>586.79998779296875</ele>
        <time>2026-08-21T22:39:42.000Z</time>
        <extensions>
          <ns3:TrackPointExtension>
            <ns3:hr>140</ns3:hr>
            <ns3:cad>53</ns3:cad>
          </ns3:TrackPointExtension>
        </extensions>
      </trkpt>
      <trkpt lat="45.32218434847891330718994140625" lon="-71.06247874908149242401123046875">
        <ele>587</ele>
        <time>2026-08-21T22:39:43.000Z</time>
        <extensions>
          <ns3:TrackPointExtension>
            <ns3:hr>140</ns3:hr>
            <ns3:cad>53</ns3:cad>
          </ns3:TrackPointExtension>
        </extensions>
      </trkpt>
      <trkpt lat="45.32217345200479030609130859375" lon="-71.06248847208917140960693359375">
        <ele>587.20001220703125</ele>
        <time>2026-08-21T22:39:44.000Z</time>
        <extensions>
          <ns3:TrackPointExtension>
            <ns3:hr>140</ns3:hr>
            <ns3:cad>53</ns3:cad>
          </ns3:TrackPointExtension>
        </extensions>
      </trkpt>
      <trkpt lat="45.3221612982451915740966796875" lon="-71.06249920092523097991943359375">
        <ele>587.20001220703125</ele>
        <time>2026-08-21T22:39:45.000Z</time>
        <extensions>
          <ns3:TrackPointExtension>
            <ns3:hr>140</ns3:hr>
            <ns3:cad>53</ns3:cad>
          </ns3:TrackPointExtension>
        </extensions>
      </trkpt>
      <trkpt lat="45.3221488930284976959228515625" lon="-71.06251202523708343505859375">
        <ele>587.4000244140625</ele>
        <time>2026-08-21T22:39:46.000Z</time>
        <extensions>
          <ns3:TrackPointExtension>
            <ns3:hr>140</ns3:hr>
            <ns3:cad>53</ns3:cad>
          </ns3:TrackPointExtension>
        </extensions>
      </trkpt>
      <trkpt lat="45.3221395052969455718994140625" lon="-71.06252199970185756683349609375">
        <ele>587.5999755859375</ele>
        <time>2026-08-21T22:39:47.000Z</time>
        <extensions>
          <ns3:TrackPointExtension>
            <ns3:hr>140</ns3:hr>
            <ns3:cad>53</ns3:cad>
          </ns3:TrackPointExtension>
        </extensions>
      </trkpt>
      <trkpt lat="45.322130285203456878662109375" lon="-71.06252945959568023681640625">
        <ele>587.79998779296875</ele>
        <time>2026-08-21T22:39:48.000Z</time>
        <extensions>
          <ns3:TrackPointExtension>
            <ns3:hr>140</ns3:hr>
            <ns3:cad>53</ns3:cad>
          </ns3:TrackPointExtension>
        </extensions>
      </trkpt>
      <trkpt lat="45.3221173770725727081298828125" lon="-71.06254111044108867645263671875">
        <ele>588</ele>
        <time>2026-08-21T22:39:49.000Z</time>
        <extensions>
          <ns3:TrackPointExtension>
            <ns3:hr>140</ns3:hr>
            <ns3:cad>53</ns3:cad>
          </ns3:TrackPointExtension>
        </extensions>
      </trkpt>
      <trkpt lat="45.32210455276072025299072265625" lon="-71.0625524260103702545166015625">
        <ele>588.20001220703125</ele>
        <time>2026-08-21T22:39:50.000Z</time>
        <extensions>
          <ns3:TrackPointExtension>
            <ns3:hr>140</ns3:hr>
            <ns3:cad>52</ns3:cad>
          </ns3:TrackPointExtension>
        </extensions>
      </trkpt>
      <trkpt lat="45.3220915608108043670654296875" lon="-71.0625634901225566864013671875">
        <ele>588.4000244140625</ele>
        <time>2026-08-21T22:39:51.000Z</time>
        <extensions>
          <ns3:TrackPointExtension>
            <ns3:hr>140</ns3:hr>
            <ns3:cad>52</ns3:cad>
          </ns3:TrackPointExtension>
        </extensions>
      </trkpt>
      <trkpt lat="45.32208158634603023529052734375" lon="-71.0625799186527729034423828125">
        <ele>588.5999755859375</ele>
        <time>2026-08-21T22:39:52.000Z</time>
        <extensions>
          <ns3:TrackPointExtension>
            <ns3:hr>141</ns3:hr>
            <ns3:cad>52</ns3:cad>
          </ns3:TrackPointExtension>
        </extensions>
      </trkpt>
      <trkpt lat="45.32207102514803409576416015625" lon="-71.06259240768849849700927734375">
        <ele>588.79998779296875</ele>
        <time>2026-08-21T22:39:53.000Z</time>
        <extensions>
          <ns3:TrackPointExtension>
            <ns3:hr>140</ns3:hr>
            <ns3:cad>51</ns3:cad>
          </ns3:TrackPointExtension>
        </extensions>
      </trkpt>
      <trkpt lat="45.32206113450229167938232421875" lon="-71.06260112486779689788818359375">
        <ele>588.79998779296875</ele>
        <time>2026-08-21T22:39:54.000Z</time>
        <extensions>
          <ns3:TrackPointExtension>
            <ns3:hr>140</ns3:hr>
            <ns3:cad>51</ns3:cad>
          </ns3:TrackPointExtension>
        </extensions>
      </trkpt>
      <trkpt lat="45.32205174677073955535888671875" lon="-71.06260783039033412933349609375">
        <ele>589</ele>
        <time>2026-08-21T22:39:55.000Z</time>
        <extensions>
          <ns3:TrackPointExtension>
            <ns3:hr>140</ns3:hr>
            <ns3:cad>51</ns3:cad>
          </ns3:TrackPointExtension>
        </extensions>
      </trkpt>
      <trkpt lat="45.32204152084887027740478515625" lon="-71.0626208223402500152587890625">
        <ele>589</ele>
        <time>2026-08-21T22:39:56.000Z</time>
        <extensions>
          <ns3:TrackPointExtension>
            <ns3:hr>140</ns3:hr>
            <ns3:cad>51</ns3:cad>
          </ns3:TrackPointExtension>
        </extensions>
      </trkpt>
      <trkpt lat="45.32203146256506443023681640625" lon="-71.06263683177530765533447265625">
        <ele>589.20001220703125</ele>
        <time>2026-08-21T22:39:57.000Z</time>
        <extensions>
          <ns3:TrackPointExtension>
            <ns3:hr>140</ns3:hr>
            <ns3:cad>51</ns3:cad>
          </ns3:TrackPointExtension>
        </extensions>
      </trkpt>
      <trkpt lat="45.3220214881002902984619140625" lon="-71.0626479797065258026123046875">
        <ele>589.4000244140625</ele>
        <time>2026-08-21T22:39:58.000Z</time>
        <extensions>
          <ns3:TrackPointExtension>
            <ns3:hr>139</ns3:hr>
            <ns3:cad>51</ns3:cad>
          </ns3:TrackPointExtension>
        </extensions>
      </trkpt>
      <trkpt lat="45.32201084308326244354248046875" lon="-71.0626617260277271270751953125">
        <ele>589.5999755859375</ele>
        <time>2026-08-21T22:39:59.000Z</time>
        <extensions>
          <ns3:TrackPointExtension>
            <ns3:hr>139</ns3:hr>
            <ns3:cad>51</ns3:cad>
          </ns3:TrackPointExtension>
        </extensions>
      </trkpt>
      <trkpt lat="45.32199810259044170379638671875" lon="-71.06267295777797698974609375">
        <ele>589.79998779296875</ele>
        <time>2026-08-21T22:40:00.000Z</time>
        <extensions>
          <ns3:TrackPointExtension>
            <ns3:hr>140</ns3:hr>
            <ns3:cad>51</ns3:cad>
          </ns3:TrackPointExtension>
        </extensions>
      </trkpt>
      <trkpt lat="45.3219879604876041412353515625" lon="-71.062682010233402252197265625">
        <ele>590</ele>
        <time>2026-08-21T22:40:01.000Z</time>
        <extensions>
          <ns3:TrackPointExtension>
            <ns3:hr>140</ns3:hr>
            <ns3:cad>52</ns3:cad>
          </ns3:TrackPointExtension>
        </extensions>
      </trkpt>
      <trkpt lat="45.3219748847186565399169921875" lon="-71.06268879957497119903564453125">
        <ele>590</ele>
        <time>2026-08-21T22:40:02.000Z</time>
        <extensions>
          <ns3:TrackPointExtension>
            <ns3:hr>140</ns3:hr>
            <ns3:cad>52</ns3:cad>
          </ns3:TrackPointExtension>
        </extensions>
      </trkpt>
      <trkpt lat="45.321961976587772369384765625" lon="-71.06269751675426959991455078125">
        <ele>590.20001220703125</ele>
        <time>2026-08-21T22:40:03.000Z</time>
        <extensions>
          <ns3:TrackPointExtension>
            <ns3:hr>139</ns3:hr>
            <ns3:cad>52</ns3:cad>
          </ns3:TrackPointExtension>
        </extensions>
      </trkpt>
      <trkpt lat="45.32194848172366619110107421875" lon="-71.06270321644842624664306640625">
        <ele>590.20001220703125</ele>
        <time>2026-08-21T22:40:04.000Z</time>
        <extensions>
          <ns3:TrackPointExtension>
            <ns3:hr>139</ns3:hr>
            <ns3:cad>52</ns3:cad>
          </ns3:TrackPointExtension>
        </extensions>
      </trkpt>
      <trkpt lat="45.32193481922149658203125" lon="-71.062712855637073516845703125">
        <ele>590.4000244140625</ele>
        <time>2026-08-21T22:40:05.000Z</time>
        <extensions>
          <ns3:TrackPointExtension>
            <ns3:hr>139</ns3:hr>
            <ns3:cad>53</ns3:cad>
          </ns3:TrackPointExtension>
        </extensions>
      </trkpt>
      <trkpt lat="45.32192115671932697296142578125" lon="-71.06271930970251560211181640625">
        <ele>590.5999755859375</ele>
        <time>2026-08-21T22:40:06.000Z</time>
        <extensions>
          <ns3:TrackPointExtension>
            <ns3:hr>140</ns3:hr>
            <ns3:cad>53</ns3:cad>
          </ns3:TrackPointExtension>
        </extensions>
      </trkpt>
      <trkpt lat="45.32191193662583827972412109375" lon="-71.0627254284918308258056640625">
        <ele>590.79998779296875</ele>
        <time>2026-08-21T22:40:07.000Z</time>
        <extensions>
          <ns3:TrackPointExtension>
            <ns3:hr>140</ns3:hr>
            <ns3:cad>53</ns3:cad>
          </ns3:TrackPointExtension>
        </extensions>
      </trkpt>
      <trkpt lat="45.32189927995204925537109375" lon="-71.06273272074759006500244140625">
        <ele>590.79998779296875</ele>
        <time>2026-08-21T22:40:08.000Z</time>
        <extensions>
          <ns3:TrackPointExtension>
            <ns3:hr>140</ns3:hr>
            <ns3:cad>53</ns3:cad>
          </ns3:TrackPointExtension>
        </extensions>
      </trkpt>
      <trkpt lat="45.32188712619245052337646484375" lon="-71.06273691169917583465576171875">
        <ele>591</ele>
        <time>2026-08-21T22:40:09.000Z</time>
        <extensions>
          <ns3:TrackPointExtension>
            <ns3:hr>140</ns3:hr>
            <ns3:cad>53</ns3:cad>
          </ns3:TrackPointExtension>
        </extensions>
      </trkpt>
      <trkpt lat="45.32187740318477153778076171875" lon="-71.06274026446044445037841796875">
        <ele>591.20001220703125</ele>
        <time>2026-08-21T22:40:10.000Z</time>
        <extensions>
          <ns3:TrackPointExtension>
            <ns3:hr>140</ns3:hr>
            <ns3:cad>53</ns3:cad>
          </ns3:TrackPointExtension>
        </extensions>
      </trkpt>
      <trkpt lat="45.3218669258058071136474609375" lon="-71.06274076737463474273681640625">
        <ele>591.20001220703125</ele>
        <time>2026-08-21T22:40:11.000Z</time>
        <extensions>
          <ns3:TrackPointExtension>
            <ns3:hr>140</ns3:hr>
            <ns3:cad>53</ns3:cad>
          </ns3:TrackPointExtension>
        </extensions>
      </trkpt>
      <trkpt lat="45.32185276038944721221923828125" lon="-71.0627482272684574127197265625">
        <ele>591.4000244140625</ele>
        <time>2026-08-21T22:40:12.000Z</time>
        <extensions>
          <ns3:TrackPointExtension>
            <ns3:hr>140</ns3:hr>
            <ns3:cad>53</ns3:cad>
          </ns3:TrackPointExtension>
        </extensions>
      </trkpt>
      <trkpt lat="45.3218390978872776031494140625" lon="-71.062755770981311798095703125">
        <ele>591.5999755859375</ele>
        <time>2026-08-21T22:40:13.000Z</time>
        <extensions>
          <ns3:TrackPointExtension>
            <ns3:hr>139</ns3:hr>
            <ns3:cad>53</ns3:cad>
          </ns3:TrackPointExtension>
        </extensions>
      </trkpt>
      <trkpt lat="45.32182593829929828643798828125" lon="-71.06276289559900760650634765625">
        <ele>591.79998779296875</ele>
        <time>2026-08-21T22:40:14.000Z</time>
        <extensions>
          <ns3:TrackPointExtension>
            <ns3:hr>139</ns3:hr>
            <ns3:cad>53</ns3:cad>
          </ns3:TrackPointExtension>
        </extensions>
      </trkpt>
      <trkpt lat="45.32181286253035068511962890625" lon="-71.0627663321793079376220703125">
        <ele>592</ele>
        <time>2026-08-21T22:40:15.000Z</time>
        <extensions>
          <ns3:TrackPointExtension>
            <ns3:hr>139</ns3:hr>
            <ns3:cad>53</ns3:cad>
          </ns3:TrackPointExtension>
        </extensions>
      </trkpt>
      <trkpt lat="45.32179777510464191436767578125" lon="-71.062771193683147430419921875">
        <ele>592.20001220703125</ele>
        <time>2026-08-21T22:40:16.000Z</time>
        <extensions>
          <ns3:TrackPointExtension>
            <ns3:hr>138</ns3:hr>
            <ns3:cad>53</ns3:cad>
          </ns3:TrackPointExtension>
        </extensions>
      </trkpt>
      <trkpt lat="45.3217847831547260284423828125" lon="-71.0627787373960018157958984375">
        <ele>592.4000244140625</ele>
        <time>2026-08-21T22:40:17.000Z</time>
        <extensions>
          <ns3:TrackPointExtension>
            <ns3:hr>138</ns3:hr>
            <ns3:cad>53</ns3:cad>
          </ns3:TrackPointExtension>
        </extensions>
      </trkpt>
      <trkpt lat="45.32177413813769817352294921875" lon="-71.06278485618531703948974609375">
        <ele>592.5999755859375</ele>
        <time>2026-08-21T22:40:18.000Z</time>
        <extensions>
          <ns3:TrackPointExtension>
            <ns3:hr>138</ns3:hr>
            <ns3:cad>53</ns3:cad>
          </ns3:TrackPointExtension>
        </extensions>
      </trkpt>
      <trkpt lat="45.3217636607587337493896484375" lon="-71.06278963387012481689453125">
        <ele>592.79998779296875</ele>
        <time>2026-08-21T22:40:19.000Z</time>
        <extensions>
          <ns3:TrackPointExtension>
            <ns3:hr>138</ns3:hr>
            <ns3:cad>53</ns3:cad>
          </ns3:TrackPointExtension>
        </extensions>
      </trkpt>
      <trkpt lat="45.32175242900848388671875" lon="-71.0627991892397403717041015625">
        <ele>593</ele>
        <time>2026-08-21T22:40:20.000Z</time>
        <extensions>
          <ns3:TrackPointExtension>
            <ns3:hr>138</ns3:hr>
            <ns3:cad>53</ns3:cad>
          </ns3:TrackPointExtension>
        </extensions>
      </trkpt>
      <trkpt lat="45.32174178399145603179931640625" lon="-71.06280396692454814910888671875">
        <ele>593.20001220703125</ele>
        <time>2026-08-21T22:40:21.000Z</time>
        <extensions>
          <ns3:TrackPointExtension>
            <ns3:hr>138</ns3:hr>
            <ns3:cad>53</ns3:cad>
          </ns3:TrackPointExtension>
        </extensions>
      </trkpt>
      <trkpt lat="45.32173172570765018463134765625" lon="-71.0628099180757999420166015625">
        <ele>593.4000244140625</ele>
        <time>2026-08-21T22:40:22.000Z</time>
        <extensions>
          <ns3:TrackPointExtension>
            <ns3:hr>138</ns3:hr>
            <ns3:cad>52</ns3:cad>
          </ns3:TrackPointExtension>
        </extensions>
      </trkpt>
      <trkpt lat="45.321721248328685760498046875" lon="-71.06281754560768604278564453125">
        <ele>593.4000244140625</ele>
        <time>2026-08-21T22:40:23.000Z</time>
        <extensions>
          <ns3:TrackPointExtension>
            <ns3:hr>138</ns3:hr>
            <ns3:cad>52</ns3:cad>
          </ns3:TrackPointExtension>
        </extensions>
      </trkpt>
      <trkpt lat="45.3217096813023090362548828125" lon="-71.06282291002571582794189453125">
        <ele>593.5999755859375</ele>
        <time>2026-08-21T22:40:24.000Z</time>
        <extensions>
          <ns3:TrackPointExtension>
            <ns3:hr>138</ns3:hr>
            <ns3:cad>51</ns3:cad>
          </ns3:TrackPointExtension>
        </extensions>
      </trkpt>
      <trkpt lat="45.3216986171901226043701171875" lon="-71.06282961554825305938720703125">
        <ele>593.79998779296875</ele>
        <time>2026-08-21T22:40:25.000Z</time>
        <extensions>
          <ns3:TrackPointExtension>
            <ns3:hr>138</ns3:hr>
            <ns3:cad>51</ns3:cad>
          </ns3:TrackPointExtension>
        </extensions>
      </trkpt>
      <trkpt lat="45.3216852061450481414794921875" lon="-71.0628380812704563140869140625">
        <ele>593.79998779296875</ele>
        <time>2026-08-21T22:40:26.000Z</time>
        <extensions>
          <ns3:TrackPointExtension>
            <ns3:hr>138</ns3:hr>
            <ns3:cad>51</ns3:cad>
          </ns3:TrackPointExtension>
        </extensions>
      </trkpt>
      <trkpt lat="45.32167405821382999420166015625" lon="-71.0628421045839786529541015625">
        <ele>594</ele>
        <time>2026-08-21T22:40:27.000Z</time>
        <extensions>
          <ns3:TrackPointExtension>
            <ns3:hr>139</ns3:hr>
            <ns3:cad>52</ns3:cad>
          </ns3:TrackPointExtension>
        </extensions>
      </trkpt>
      <trkpt lat="45.3216640837490558624267578125" lon="-71.06284805573523044586181640625">
        <ele>594.20001220703125</ele>
        <time>2026-08-21T22:40:28.000Z</time>
        <extensions>
          <ns3:TrackPointExtension>
            <ns3:hr>139</ns3:hr>
            <ns3:cad>52</ns3:cad>
          </ns3:TrackPointExtension>
        </extensions>
      </trkpt>
      <trkpt lat="45.3216506727039813995361328125" lon="-71.06285870075225830078125">
        <ele>594.4000244140625</ele>
        <time>2026-08-21T22:40:29.000Z</time>
        <extensions>
          <ns3:TrackPointExtension>
            <ns3:hr>140</ns3:hr>
            <ns3:cad>53</ns3:cad>
          </ns3:TrackPointExtension>
        </extensions>
      </trkpt>
      <trkpt lat="45.32163835130631923675537109375" lon="-71.06286565773189067840576171875">
        <ele>594.5999755859375</ele>
        <time>2026-08-21T22:40:30.000Z</time>
        <extensions>
          <ns3:TrackPointExtension>
            <ns3:hr>140</ns3:hr>
            <ns3:cad>53</ns3:cad>
          </ns3:TrackPointExtension>
        </extensions>
      </trkpt>
      <trkpt lat="45.32162292860448360443115234375" lon="-71.0628709383308887481689453125">
        <ele>594.79998779296875</ele>
        <time>2026-08-21T22:40:31.000Z</time>
        <extensions>
          <ns3:TrackPointExtension>
            <ns3:hr>140</ns3:hr>
            <ns3:cad>53</ns3:cad>
          </ns3:TrackPointExtension>
        </extensions>
      </trkpt>
      <trkpt lat="45.32161136157810688018798828125" lon="-71.0628786496818065643310546875">
        <ele>594.79998779296875</ele>
        <time>2026-08-21T22:40:32.000Z</time>
        <extensions>
          <ns3:TrackPointExtension>
            <ns3:hr>140</ns3:hr>
            <ns3:cad>53</ns3:cad>
          </ns3:TrackPointExtension>
        </extensions>
      </trkpt>
      <trkpt lat="45.32159761525690555572509765625" lon="-71.06288812123239040374755859375">
        <ele>594.79998779296875</ele>
        <time>2026-08-21T22:40:33.000Z</time>
        <extensions>
          <ns3:TrackPointExtension>
            <ns3:hr>140</ns3:hr>
            <ns3:cad>53</ns3:cad>
          </ns3:TrackPointExtension>
        </extensions>
      </trkpt>
      <trkpt lat="45.32158546149730682373046875" lon="-71.0629001073539257049560546875">
        <ele>595</ele>
        <time>2026-08-21T22:40:34.000Z</time>
        <extensions>
          <ns3:TrackPointExtension>
            <ns3:hr>140</ns3:hr>
            <ns3:cad>53</ns3:cad>
          </ns3:TrackPointExtension>
        </extensions>
      </trkpt>
      <trkpt lat="45.3215772472321987152099609375" lon="-71.062911339104175567626953125">
        <ele>595</ele>
        <time>2026-08-21T22:40:35.000Z</time>
        <extensions>
          <ns3:TrackPointExtension>
            <ns3:hr>140</ns3:hr>
            <ns3:cad>53</ns3:cad>
          </ns3:TrackPointExtension>
        </extensions>
      </trkpt>
      <trkpt lat="45.32156559638679027557373046875" lon="-71.062917374074459075927734375">
        <ele>595.20001220703125</ele>
        <time>2026-08-21T22:40:36.000Z</time>
        <extensions>
          <ns3:TrackPointExtension>
            <ns3:hr>140</ns3:hr>
            <ns3:cad>55</ns3:cad>
          </ns3:TrackPointExtension>
        </extensions>
      </trkpt>
      <trkpt lat="45.3215552866458892822265625" lon="-71.06292349286377429962158203125">
        <ele>595.4000244140625</ele>
        <time>2026-08-21T22:40:37.000Z</time>
        <extensions>
          <ns3:TrackPointExtension>
            <ns3:hr>140</ns3:hr>
            <ns3:cad>55</ns3:cad>
          </ns3:TrackPointExtension>
        </extensions>
      </trkpt>
      <trkpt lat="45.32154388725757598876953125" lon="-71.0629332996904850006103515625">
        <ele>595.4000244140625</ele>
        <time>2026-08-21T22:40:38.000Z</time>
        <extensions>
          <ns3:TrackPointExtension>
            <ns3:hr>140</ns3:hr>
            <ns3:cad>55</ns3:cad>
          </ns3:TrackPointExtension>
        </extensions>
      </trkpt>
      <trkpt lat="45.32153047621250152587890625" lon="-71.06293891556560993194580078125">
        <ele>595.5999755859375</ele>
        <time>2026-08-21T22:40:39.000Z</time>
        <extensions>
          <ns3:TrackPointExtension>
            <ns3:hr>140</ns3:hr>
            <ns3:cad>55</ns3:cad>
          </ns3:TrackPointExtension>
        </extensions>
      </trkpt>
      <trkpt lat="45.321517400443553924560546875" lon="-71.0629507340490818023681640625">
        <ele>595.5999755859375</ele>
        <time>2026-08-21T22:40:40.000Z</time>
        <extensions>
          <ns3:TrackPointExtension>
            <ns3:hr>140</ns3:hr>
            <ns3:cad>55</ns3:cad>
          </ns3:TrackPointExtension>
        </extensions>
      </trkpt>
      <trkpt lat="45.32150088809430599212646484375" lon="-71.06296037323772907257080078125">
        <ele>595.79998779296875</ele>
        <time>2026-08-21T22:40:41.000Z</time>
        <extensions>
          <ns3:TrackPointExtension>
            <ns3:hr>140</ns3:hr>
            <ns3:cad>53</ns3:cad>
          </ns3:TrackPointExtension>
        </extensions>
      </trkpt>
      <trkpt lat="45.3214860521256923675537109375" lon="-71.0629738681018352508544921875">
        <ele>595.79998779296875</ele>
        <time>2026-08-21T22:40:42.000Z</time>
        <extensions>
          <ns3:TrackPointExtension>
            <ns3:hr>140</ns3:hr>
            <ns3:cad>53</ns3:cad>
          </ns3:TrackPointExtension>
        </extensions>
      </trkpt>
      <trkpt lat="45.32147004269063472747802734375" lon="-71.06298518367111682891845703125">
        <ele>596</ele>
        <time>2026-08-21T22:40:43.000Z</time>
        <extensions>
          <ns3:TrackPointExtension>
            <ns3:hr>140</ns3:hr>
            <ns3:cad>53</ns3:cad>
          </ns3:TrackPointExtension>
        </extensions>
      </trkpt>
      <trkpt lat="45.32145445235073566436767578125" lon="-71.06299356557428836822509765625">
        <ele>596</ele>
        <time>2026-08-21T22:40:44.000Z</time>
        <extensions>
          <ns3:TrackPointExtension>
            <ns3:hr>140</ns3:hr>
            <ns3:cad>53</ns3:cad>
          </ns3:TrackPointExtension>
        </extensions>
      </trkpt>
      <trkpt lat="45.3214401192963123321533203125" lon="-71.0629995167255401611328125">
        <ele>596.20001220703125</ele>
        <time>2026-08-21T22:40:45.000Z</time>
        <extensions>
          <ns3:TrackPointExtension>
            <ns3:hr>139</ns3:hr>
            <ns3:cad>53</ns3:cad>
          </ns3:TrackPointExtension>
        </extensions>
      </trkpt>
      <trkpt lat="45.32142721116542816162109375" lon="-71.06301183812320232391357421875">
        <ele>596.4000244140625</ele>
        <time>2026-08-21T22:40:46.000Z</time>
        <extensions>
          <ns3:TrackPointExtension>
            <ns3:hr>138</ns3:hr>
            <ns3:cad>53</ns3:cad>
          </ns3:TrackPointExtension>
        </extensions>
      </trkpt>
      <trkpt lat="45.32141623087227344512939453125" lon="-71.063020639121532440185546875">
        <ele>596.5999755859375</ele>
        <time>2026-08-21T22:40:47.000Z</time>
        <extensions>
          <ns3:TrackPointExtension>
            <ns3:hr>137</ns3:hr>
            <ns3:cad>53</ns3:cad>
          </ns3:TrackPointExtension>
        </extensions>
      </trkpt>
      <trkpt lat="45.32140416093170642852783203125" lon="-71.063022650778293609619140625">
        <ele>596.79998779296875</ele>
        <time>2026-08-21T22:40:48.000Z</time>
        <extensions>
          <ns3:TrackPointExtension>
            <ns3:hr>137</ns3:hr>
            <ns3:cad>54</ns3:cad>
          </ns3:TrackPointExtension>
        </extensions>
      </trkpt>
      <trkpt lat="45.3213925100862979888916015625" lon="-71.06302591972053050994873046875">
        <ele>597</ele>
        <time>2026-08-21T22:40:49.000Z</time>
        <extensions>
          <ns3:TrackPointExtension>
            <ns3:hr>136</ns3:hr>
            <ns3:cad>55</ns3:cad>
          </ns3:TrackPointExtension>
        </extensions>
      </trkpt>
      <trkpt lat="45.32137650065124034881591796875" lon="-71.0630317032337188720703125">
        <ele>597</ele>
        <time>2026-08-21T22:40:50.000Z</time>
        <extensions>
          <ns3:TrackPointExtension>
            <ns3:hr>136</ns3:hr>
            <ns3:cad>55</ns3:cad>
          </ns3:TrackPointExtension>
        </extensions>
      </trkpt>
      <trkpt lat="45.3213621675968170166015625" lon="-71.06304042041301727294921875">
        <ele>597.20001220703125</ele>
        <time>2026-08-21T22:40:51.000Z</time>
        <extensions>
          <ns3:TrackPointExtension>
            <ns3:hr>136</ns3:hr>
            <ns3:cad>54</ns3:cad>
          </ns3:TrackPointExtension>
        </extensions>
      </trkpt>
      <trkpt lat="45.321345739066600799560546875" lon="-71.06305089779198169708251953125">
        <ele>597.4000244140625</ele>
        <time>2026-08-21T22:40:52.000Z</time>
        <extensions>
          <ns3:TrackPointExtension>
            <ns3:hr>136</ns3:hr>
            <ns3:cad>54</ns3:cad>
          </ns3:TrackPointExtension>
        </extensions>
      </trkpt>
      <trkpt lat="45.32133174128830432891845703125" lon="-71.06306078843772411346435546875">
        <ele>597.4000244140625</ele>
        <time>2026-08-21T22:40:53.000Z</time>
        <extensions>
          <ns3:TrackPointExtension>
            <ns3:hr>136</ns3:hr>
            <ns3:cad>53</ns3:cad>
          </ns3:TrackPointExtension>
        </extensions>
      </trkpt>
      <trkpt lat="45.32131833024322986602783203125" lon="-71.063062883913516998291015625">
        <ele>597.79998779296875</ele>
        <time>2026-08-21T22:40:54.000Z</time>
        <extensions>
          <ns3:TrackPointExtension>
            <ns3:hr>136</ns3:hr>
            <ns3:cad>53</ns3:cad>
          </ns3:TrackPointExtension>
        </extensions>
      </trkpt>
      <trkpt lat="45.32130709849298000335693359375" lon="-71.0630670748651027679443359375">
        <ele>598</ele>
        <time>2026-08-21T22:40:55.000Z</time>
        <extensions>
          <ns3:TrackPointExtension>
            <ns3:hr>136</ns3:hr>
            <ns3:cad>53</ns3:cad>
          </ns3:TrackPointExtension>
        </extensions>
      </trkpt>
      <trkpt lat="45.32128639519214630126953125" lon="-71.0630771331489086151123046875">
        <ele>598.20001220703125</ele>
        <time>2026-08-21T22:40:56.000Z</time>
        <extensions>
          <ns3:TrackPointExtension>
            <ns3:hr>136</ns3:hr>
            <ns3:cad>53</ns3:cad>
          </ns3:TrackPointExtension>
        </extensions>
      </trkpt>
      <trkpt lat="45.32127256505191326141357421875" lon="-71.0630858503282070159912109375">
        <ele>598.4000244140625</ele>
        <time>2026-08-21T22:40:57.000Z</time>
        <extensions>
          <ns3:TrackPointExtension>
            <ns3:hr>136</ns3:hr>
            <ns3:cad>53</ns3:cad>
          </ns3:TrackPointExtension>
        </extensions>
      </trkpt>
      <trkpt lat="45.32126300968229770660400390625" lon="-71.063097082078456878662109375">
        <ele>598.4000244140625</ele>
        <time>2026-08-21T22:40:58.000Z</time>
        <extensions>
          <ns3:TrackPointExtension>
            <ns3:hr>136</ns3:hr>
            <ns3:cad>51</ns3:cad>
          </ns3:TrackPointExtension>
        </extensions>
      </trkpt>
      <trkpt lat="45.321248508989810943603515625" lon="-71.063109152019023895263671875">
        <ele>598.5999755859375</ele>
        <time>2026-08-21T22:40:59.000Z</time>
        <extensions>
          <ns3:TrackPointExtension>
            <ns3:hr>136</ns3:hr>
            <ns3:cad>51</ns3:cad>
          </ns3:TrackPointExtension>
        </extensions>
      </trkpt>
      <trkpt lat="45.32123350538313388824462890625" lon="-71.06311761774122714996337890625">
        <ele>598.5999755859375</ele>
        <time>2026-08-21T22:41:00.000Z</time>
        <extensions>
          <ns3:TrackPointExtension>
            <ns3:hr>136</ns3:hr>
            <ns3:cad>51</ns3:cad>
          </ns3:TrackPointExtension>
        </extensions>
      </trkpt>
      <trkpt lat="45.32122143544256687164306640625" lon="-71.06313069351017475128173828125">
        <ele>598.79998779296875</ele>
        <time>2026-08-21T22:41:01.000Z</time>
        <extensions>
          <ns3:TrackPointExtension>
            <ns3:hr>136</ns3:hr>
            <ns3:cad>52</ns3:cad>
          </ns3:TrackPointExtension>
        </extensions>
      </trkpt>
      <trkpt lat="45.32121154479682445526123046875" lon="-71.06313773430883884429931640625">
        <ele>599</ele>
        <time>2026-08-21T22:41:02.000Z</time>
        <extensions>
          <ns3:TrackPointExtension>
            <ns3:hr>136</ns3:hr>
            <ns3:cad>52</ns3:cad>
          </ns3:TrackPointExtension>
        </extensions>
      </trkpt>
      <trkpt lat="45.32119779847562313079833984375" lon="-71.0631485469639301300048828125">
        <ele>599</ele>
        <time>2026-08-21T22:41:03.000Z</time>
        <extensions>
          <ns3:TrackPointExtension>
            <ns3:hr>136</ns3:hr>
            <ns3:cad>51</ns3:cad>
          </ns3:TrackPointExtension>
        </extensions>
      </trkpt>
      <trkpt lat="45.32118623144924640655517578125" lon="-71.06315500102937221527099609375">
        <ele>599.20001220703125</ele>
        <time>2026-08-21T22:41:04.000Z</time>
        <extensions>
          <ns3:TrackPointExtension>
            <ns3:hr>136</ns3:hr>
            <ns3:cad>51</ns3:cad>
          </ns3:TrackPointExtension>
        </extensions>
      </trkpt>
      <trkpt lat="45.3211782686412334442138671875" lon="-71.06315935961902141571044921875">
        <ele>599.4000244140625</ele>
        <time>2026-08-21T22:41:05.000Z</time>
        <extensions>
          <ns3:TrackPointExtension>
            <ns3:hr>136</ns3:hr>
            <ns3:cad>51</ns3:cad>
          </ns3:TrackPointExtension>
        </extensions>
      </trkpt>
      <trkpt lat="45.3211668692529201507568359375" lon="-71.06316925026476383209228515625">
        <ele>599.5999755859375</ele>
        <time>2026-08-21T22:41:06.000Z</time>
        <extensions>
          <ns3:TrackPointExtension>
            <ns3:hr>136</ns3:hr>
            <ns3:cad>51</ns3:cad>
          </ns3:TrackPointExtension>
        </extensions>
      </trkpt>
      <trkpt lat="45.3211531229317188262939453125" lon="-71.063178889453411102294921875">
        <ele>599.79998779296875</ele>
        <time>2026-08-21T22:41:07.000Z</time>
        <extensions>
          <ns3:TrackPointExtension>
            <ns3:hr>136</ns3:hr>
            <ns3:cad>51</ns3:cad>
          </ns3:TrackPointExtension>
        </extensions>
      </trkpt>
      <trkpt lat="45.32114365138113498687744140625" lon="-71.06318551115691661834716796875">
        <ele>600</ele>
        <time>2026-08-21T22:41:08.000Z</time>
        <extensions>
          <ns3:TrackPointExtension>
            <ns3:hr>136</ns3:hr>
            <ns3:cad>51</ns3:cad>
          </ns3:TrackPointExtension>
        </extensions>
      </trkpt>
      <trkpt lat="45.32113342545926570892333984375" lon="-71.06319070793688297271728515625">
        <ele>600.20001220703125</ele>
        <time>2026-08-21T22:41:09.000Z</time>
        <extensions>
          <ns3:TrackPointExtension>
            <ns3:hr>136</ns3:hr>
            <ns3:cad>51</ns3:cad>
          </ns3:TrackPointExtension>
        </extensions>
      </trkpt>
      <trkpt lat="45.32112336717545986175537109375" lon="-71.0631944797933101654052734375">
        <ele>600.4000244140625</ele>
        <time>2026-08-21T22:41:10.000Z</time>
        <extensions>
          <ns3:TrackPointExtension>
            <ns3:hr>136</ns3:hr>
            <ns3:cad>51</ns3:cad>
          </ns3:TrackPointExtension>
        </extensions>
      </trkpt>
      <trkpt lat="45.3211092017590999603271484375" lon="-71.0632065497338771820068359375">
        <ele>600.5999755859375</ele>
        <time>2026-08-21T22:41:11.000Z</time>
        <extensions>
          <ns3:TrackPointExtension>
            <ns3:hr>136</ns3:hr>
            <ns3:cad>51</ns3:cad>
          </ns3:TrackPointExtension>
        </extensions>
      </trkpt>
      <trkpt lat="45.3211018256843090057373046875" lon="-71.063210405409336090087890625">
        <ele>600.5999755859375</ele>
        <time>2026-08-21T22:41:12.000Z</time>
        <extensions>
          <ns3:TrackPointExtension>
            <ns3:hr>136</ns3:hr>
            <ns3:cad>52</ns3:cad>
          </ns3:TrackPointExtension>
        </extensions>
      </trkpt>
      <trkpt lat="45.32109327614307403564453125" lon="-71.0632192902266979217529296875">
        <ele>600.79998779296875</ele>
        <time>2026-08-21T22:41:13.000Z</time>
        <extensions>
          <ns3:TrackPointExtension>
            <ns3:hr>136</ns3:hr>
            <ns3:cad>54</ns3:cad>
          </ns3:TrackPointExtension>
        </extensions>
      </trkpt>
      <trkpt lat="45.3210805356502532958984375" lon="-71.06323597021400928497314453125">
        <ele>600.79998779296875</ele>
        <time>2026-08-21T22:41:14.000Z</time>
        <extensions>
          <ns3:TrackPointExtension>
            <ns3:hr>136</ns3:hr>
            <ns3:cad>54</ns3:cad>
          </ns3:TrackPointExtension>
        </extensions>
      </trkpt>
      <trkpt lat="45.32106888480484485626220703125" lon="-71.0632437653839588165283203125">
        <ele>601</ele>
        <time>2026-08-21T22:41:15.000Z</time>
        <extensions>
          <ns3:TrackPointExtension>
            <ns3:hr>136</ns3:hr>
            <ns3:cad>55</ns3:cad>
          </ns3:TrackPointExtension>
        </extensions>
      </trkpt>
      <trkpt lat="45.3210592456161975860595703125" lon="-71.0632498003542423248291015625">
        <ele>601.20001220703125</ele>
        <time>2026-08-21T22:41:16.000Z</time>
        <extensions>
          <ns3:TrackPointExtension>
            <ns3:hr>136</ns3:hr>
            <ns3:cad>55</ns3:cad>
          </ns3:TrackPointExtension>
        </extensions>
      </trkpt>
      <trkpt lat="45.32105044461786746978759765625" lon="-71.06325323693454265594482421875">
        <ele>601.20001220703125</ele>
        <time>2026-08-21T22:41:17.000Z</time>
        <extensions>
          <ns3:TrackPointExtension>
            <ns3:hr>136</ns3:hr>
            <ns3:cad>55</ns3:cad>
          </ns3:TrackPointExtension>
        </extensions>
      </trkpt>
      <trkpt lat="45.3210364468395709991455078125" lon="-71.0632625408470630645751953125">
        <ele>601.4000244140625</ele>
        <time>2026-08-21T22:41:18.000Z</time>
        <extensions>
          <ns3:TrackPointExtension>
            <ns3:hr>137</ns3:hr>
            <ns3:cad>55</ns3:cad>
          </ns3:TrackPointExtension>
        </extensions>
      </trkpt>
      <trkpt lat="45.32102161087095737457275390625" lon="-71.06326882727444171905517578125">
        <ele>601.5999755859375</ele>
        <time>2026-08-21T22:41:19.000Z</time>
        <extensions>
          <ns3:TrackPointExtension>
            <ns3:hr>137</ns3:hr>
            <ns3:cad>55</ns3:cad>
          </ns3:TrackPointExtension>
        </extensions>
      </trkpt>
      <trkpt lat="45.32101205550134181976318359375" lon="-71.0632731020450592041015625">
        <ele>601.79998779296875</ele>
        <time>2026-08-21T22:41:20.000Z</time>
        <extensions>
          <ns3:TrackPointExtension>
            <ns3:hr>137</ns3:hr>
            <ns3:cad>54</ns3:cad>
          </ns3:TrackPointExtension>
        </extensions>
      </trkpt>
      <trkpt lat="45.32100208103656768798828125" lon="-71.06327385641634464263916015625">
        <ele>601.79998779296875</ele>
        <time>2026-08-21T22:41:21.000Z</time>
        <extensions>
          <ns3:TrackPointExtension>
            <ns3:hr>137</ns3:hr>
            <ns3:cad>54</ns3:cad>
          </ns3:TrackPointExtension>
        </extensions>
      </trkpt>
      <trkpt lat="45.3209918551146984100341796875" lon="-71.06327779591083526611328125">
        <ele>602</ele>
        <time>2026-08-21T22:41:22.000Z</time>
        <extensions>
          <ns3:TrackPointExtension>
            <ns3:hr>138</ns3:hr>
            <ns3:cad>54</ns3:cad>
          </ns3:TrackPointExtension>
        </extensions>
      </trkpt>
      <trkpt lat="45.32098070718348026275634765625" lon="-71.06328257359564304351806640625">
        <ele>602</ele>
        <time>2026-08-21T22:41:23.000Z</time>
        <extensions>
          <ns3:TrackPointExtension>
            <ns3:hr>138</ns3:hr>
            <ns3:cad>54</ns3:cad>
          </ns3:TrackPointExtension>
        </extensions>
      </trkpt>
      <trkpt lat="45.32096645794808864593505859375" lon="-71.0632907040417194366455078125">
        <ele>602.20001220703125</ele>
        <time>2026-08-21T22:41:24.000Z</time>
        <extensions>
          <ns3:TrackPointExtension>
            <ns3:hr>138</ns3:hr>
            <ns3:cad>54</ns3:cad>
          </ns3:TrackPointExtension>
        </extensions>
      </trkpt>
      <trkpt lat="45.3209516219794750213623046875" lon="-71.06329657137393951416015625">
        <ele>602.20001220703125</ele>
        <time>2026-08-21T22:41:25.000Z</time>
        <extensions>
          <ns3:TrackPointExtension>
            <ns3:hr>138</ns3:hr>
            <ns3:cad>55</ns3:cad>
          </ns3:TrackPointExtension>
        </extensions>
      </trkpt>
      <trkpt lat="45.32093376852571964263916015625" lon="-71.06330252252519130706787109375">
        <ele>602.20001220703125</ele>
        <time>2026-08-21T22:41:26.000Z</time>
        <extensions>
          <ns3:TrackPointExtension>
            <ns3:hr>138</ns3:hr>
            <ns3:cad>55</ns3:cad>
          </ns3:TrackPointExtension>
        </extensions>
      </trkpt>
      <trkpt lat="45.32091499306261539459228515625" lon="-71.0633098147809505462646484375">
        <ele>602.4000244140625</ele>
        <time>2026-08-21T22:41:27.000Z</time>
        <extensions>
          <ns3:TrackPointExtension>
            <ns3:hr>138</ns3:hr>
            <ns3:cad>55</ns3:cad>
          </ns3:TrackPointExtension>
        </extensions>
      </trkpt>
      <trkpt lat="45.320899821817874908447265625" lon="-71.063318364322185516357421875">
        <ele>602.5999755859375</ele>
        <time>2026-08-21T22:41:28.000Z</time>
        <extensions>
          <ns3:TrackPointExtension>
            <ns3:hr>138</ns3:hr>
            <ns3:cad>55</ns3:cad>
          </ns3:TrackPointExtension>
        </extensions>
      </trkpt>
      <trkpt lat="45.3208847343921661376953125" lon="-71.06332833878695964813232421875">
        <ele>602.5999755859375</ele>
        <time>2026-08-21T22:41:29.000Z</time>
        <extensions>
          <ns3:TrackPointExtension>
            <ns3:hr>138</ns3:hr>
            <ns3:cad>56</ns3:cad>
          </ns3:TrackPointExtension>
        </extensions>
      </trkpt>
      <trkpt lat="45.3208673000335693359375" lon="-71.06333621777594089508056640625">
        <ele>602.79998779296875</ele>
        <time>2026-08-21T22:41:30.000Z</time>
        <extensions>
          <ns3:TrackPointExtension>
            <ns3:hr>138</ns3:hr>
            <ns3:cad>56</ns3:cad>
          </ns3:TrackPointExtension>
        </extensions>
      </trkpt>
      <trkpt lat="45.32085196115076541900634765625" lon="-71.06334744952619075775146484375">
        <ele>602.79998779296875</ele>
        <time>2026-08-21T22:41:31.000Z</time>
        <extensions>
          <ns3:TrackPointExtension>
            <ns3:hr>139</ns3:hr>
            <ns3:cad>56</ns3:cad>
          </ns3:TrackPointExtension>
        </extensions>
      </trkpt>
      <trkpt lat="45.32083670608699321746826171875" lon="-71.0633594356477260589599609375">
        <ele>603</ele>
        <time>2026-08-21T22:41:32.000Z</time>
        <extensions>
          <ns3:TrackPointExtension>
            <ns3:hr>139</ns3:hr>
            <ns3:cad>55</ns3:cad>
          </ns3:TrackPointExtension>
        </extensions>
      </trkpt>
      <trkpt lat="45.3208228759467601776123046875" lon="-71.0633684881031513214111328125">
        <ele>603</ele>
        <time>2026-08-21T22:41:33.000Z</time>
        <extensions>
          <ns3:TrackPointExtension>
            <ns3:hr>139</ns3:hr>
            <ns3:cad>55</ns3:cad>
          </ns3:TrackPointExtension>
        </extensions>
      </trkpt>
      <trkpt lat="45.32080988399684429168701171875" lon="-71.06337745673954486846923828125">
        <ele>603.20001220703125</ele>
        <time>2026-08-21T22:41:34.000Z</time>
        <extensions>
          <ns3:TrackPointExtension>
            <ns3:hr>139</ns3:hr>
            <ns3:cad>56</ns3:cad>
          </ns3:TrackPointExtension>
        </extensions>
      </trkpt>
      <trkpt lat="45.32079747878015041351318359375" lon="-71.063386760652065277099609375">
        <ele>603.20001220703125</ele>
        <time>2026-08-21T22:41:35.000Z</time>
        <extensions>
          <ns3:TrackPointExtension>
            <ns3:hr>139</ns3:hr>
            <ns3:cad>56</ns3:cad>
          </ns3:TrackPointExtension>
        </extensions>
      </trkpt>
      <trkpt lat="45.32078457064926624298095703125" lon="-71.063392460346221923828125">
        <ele>603.4000244140625</ele>
        <time>2026-08-21T22:41:36.000Z</time>
        <extensions>
          <ns3:TrackPointExtension>
            <ns3:hr>139</ns3:hr>
            <ns3:cad>56</ns3:cad>
          </ns3:TrackPointExtension>
        </extensions>
      </trkpt>
      <trkpt lat="45.320773757994174957275390625" lon="-71.06339841149747371673583984375">
        <ele>603.5999755859375</ele>
        <time>2026-08-21T22:41:37.000Z</time>
        <extensions>
          <ns3:TrackPointExtension>
            <ns3:hr>139</ns3:hr>
            <ns3:cad>56</ns3:cad>
          </ns3:TrackPointExtension>
        </extensions>
      </trkpt>
      <trkpt lat="45.3207615204155445098876953125" lon="-71.0634023509919643402099609375">
        <ele>603.79998779296875</ele>
        <time>2026-08-21T22:41:38.000Z</time>
        <extensions>
          <ns3:TrackPointExtension>
            <ns3:hr>138</ns3:hr>
            <ns3:cad>56</ns3:cad>
          </ns3:TrackPointExtension>
        </extensions>
      </trkpt>
      <trkpt lat="45.32074769027531147003173828125" lon="-71.063408218324184417724609375">
        <ele>603.79998779296875</ele>
        <time>2026-08-21T22:41:39.000Z</time>
        <extensions>
          <ns3:TrackPointExtension>
            <ns3:hr>138</ns3:hr>
            <ns3:cad>56</ns3:cad>
          </ns3:TrackPointExtension>
        </extensions>
      </trkpt>
      <trkpt lat="45.32073209993541240692138671875" lon="-71.06341316364705562591552734375">
        <ele>604</ele>
        <time>2026-08-21T22:41:40.000Z</time>
        <extensions>
          <ns3:TrackPointExtension>
            <ns3:hr>138</ns3:hr>
            <ns3:cad>56</ns3:cad>
          </ns3:TrackPointExtension>
        </extensions>
      </trkpt>
      <trkpt lat="45.32071642577648162841796875" lon="-71.06341903097927570343017578125">
        <ele>604</ele>
        <time>2026-08-21T22:41:41.000Z</time>
        <extensions>
          <ns3:TrackPointExtension>
            <ns3:hr>138</ns3:hr>
            <ns3:cad>55</ns3:cad>
          </ns3:TrackPointExtension>
        </extensions>
      </trkpt>
      <trkpt lat="45.32069362699985504150390625" lon="-71.06342808343470096588134765625">
        <ele>604.20001220703125</ele>
        <time>2026-08-21T22:41:42.000Z</time>
        <extensions>
          <ns3:TrackPointExtension>
            <ns3:hr>138</ns3:hr>
            <ns3:cad>55</ns3:cad>
          </ns3:TrackPointExtension>
        </extensions>
      </trkpt>
      <trkpt lat="45.32066973857581615447998046875" lon="-71.0634315200150012969970703125">
        <ele>604.4000244140625</ele>
        <time>2026-08-21T22:41:43.000Z</time>
        <extensions>
          <ns3:TrackPointExtension>
            <ns3:hr>138</ns3:hr>
            <ns3:cad>55</ns3:cad>
          </ns3:TrackPointExtension>
        </extensions>
      </trkpt>
      <trkpt lat="45.32064945437014102935791015625" lon="-71.06343478895723819732666015625">
        <ele>604.5999755859375</ele>
        <time>2026-08-21T22:41:44.000Z</time>
        <extensions>
          <ns3:TrackPointExtension>
            <ns3:hr>137</ns3:hr>
            <ns3:cad>55</ns3:cad>
          </ns3:TrackPointExtension>
        </extensions>
      </trkpt>
      <trkpt lat="45.32062514685094356536865234375" lon="-71.0634382255375385284423828125">
        <ele>605</ele>
        <time>2026-08-21T22:41:45.000Z</time>
        <extensions>
          <ns3:TrackPointExtension>
            <ns3:hr>137</ns3:hr>
            <ns3:cad>55</ns3:cad>
          </ns3:TrackPointExtension>
        </extensions>
      </trkpt>
      <trkpt lat="45.32060243189334869384765625" lon="-71.0634419135749340057373046875">
        <ele>605</ele>
        <time>2026-08-21T22:41:46.000Z</time>
        <extensions>
          <ns3:TrackPointExtension>
            <ns3:hr>138</ns3:hr>
            <ns3:cad>79</ns3:cad>
          </ns3:TrackPointExtension>
        </extensions>
      </trkpt>
      <trkpt lat="45.32057887874543666839599609375" lon="-71.06344417668879032135009765625">
        <ele>605.20001220703125</ele>
        <time>2026-08-21T22:41:47.000Z</time>
        <extensions>
          <ns3:TrackPointExtension>
            <ns3:hr>138</ns3:hr>
            <ns3:cad>79</ns3:cad>
          </ns3:TrackPointExtension>
        </extensions>
      </trkpt>
      <trkpt lat="45.320555828511714935302734375" lon="-71.0634476132690906524658203125">
        <ele>605.20001220703125</ele>
        <time>2026-08-21T22:41:48.000Z</time>
        <extensions>
          <ns3:TrackPointExtension>
            <ns3:hr>138</ns3:hr>
            <ns3:cad>79</ns3:cad>
          </ns3:TrackPointExtension>
        </extensions>
      </trkpt>
      <trkpt lat="45.32053378410637378692626953125" lon="-71.063448451459407806396484375">
        <ele>605.20001220703125</ele>
        <time>2026-08-21T22:41:49.000Z</time>
        <extensions>
          <ns3:TrackPointExtension>
            <ns3:hr>138</ns3:hr>
            <ns3:cad>79</ns3:cad>
          </ns3:TrackPointExtension>
        </extensions>
      </trkpt>
      <trkpt lat="45.32050712965428829193115234375" lon="-71.06345348060131072998046875">
        <ele>605.4000244140625</ele>
        <time>2026-08-21T22:41:50.000Z</time>
        <extensions>
          <ns3:TrackPointExtension>
            <ns3:hr>138</ns3:hr>
            <ns3:cad>79</ns3:cad>
          </ns3:TrackPointExtension>
        </extensions>
      </trkpt>
      <trkpt lat="45.3204835765063762664794921875" lon="-71.06345641426742076873779296875">
        <ele>605.4000244140625</ele>
        <time>2026-08-21T22:41:51.000Z</time>
        <extensions>
          <ns3:TrackPointExtension>
            <ns3:hr>138</ns3:hr>
            <ns3:cad>79</ns3:cad>
          </ns3:TrackPointExtension>
        </extensions>
      </trkpt>
      <trkpt lat="45.3204596042633056640625" lon="-71.063459180295467376708984375">
        <ele>605.5999755859375</ele>
        <time>2026-08-21T22:41:52.000Z</time>
        <extensions>
          <ns3:TrackPointExtension>
            <ns3:hr>138</ns3:hr>
            <ns3:cad>79</ns3:cad>
          </ns3:TrackPointExtension>
        </extensions>
      </trkpt>
      <trkpt lat="45.32043588347733020782470703125" lon="-71.06345993466675281524658203125">
        <ele>605.5999755859375</ele>
        <time>2026-08-21T22:41:53.000Z</time>
        <extensions>
          <ns3:TrackPointExtension>
            <ns3:hr>138</ns3:hr>
            <ns3:cad>81</ns3:cad>
          </ns3:TrackPointExtension>
        </extensions>
      </trkpt>
      <trkpt lat="45.32041425816714763641357421875" lon="-71.063462197780609130859375">
        <ele>605.5999755859375</ele>
        <time>2026-08-21T22:41:54.000Z</time>
        <extensions>
          <ns3:TrackPointExtension>
            <ns3:hr>138</ns3:hr>
            <ns3:cad>81</ns3:cad>
          </ns3:TrackPointExtension>
        </extensions>
      </trkpt>
      <trkpt lat="45.32038760371506214141845703125" lon="-71.06346529908478260040283203125">
        <ele>605.79998779296875</ele>
        <time>2026-08-21T22:41:55.000Z</time>
        <extensions>
          <ns3:TrackPointExtension>
            <ns3:hr>138</ns3:hr>
            <ns3:cad>81</ns3:cad>
          </ns3:TrackPointExtension>
        </extensions>
      </trkpt>
      <trkpt lat="45.320362709462642669677734375" lon="-71.06346513144671916961669921875">
        <ele>605.79998779296875</ele>
        <time>2026-08-21T22:41:56.000Z</time>
        <extensions>
          <ns3:TrackPointExtension>
            <ns3:hr>138</ns3:hr>
            <ns3:cad>81</ns3:cad>
          </ns3:TrackPointExtension>
        </extensions>
      </trkpt>
      <trkpt lat="45.32034066505730152130126953125" lon="-71.06346999295055866241455078125">
        <ele>606</ele>
        <time>2026-08-21T22:41:57.000Z</time>
        <extensions>
          <ns3:TrackPointExtension>
            <ns3:hr>139</ns3:hr>
            <ns3:cad>81</ns3:cad>
          </ns3:TrackPointExtension>
        </extensions>
      </trkpt>
      <trkpt lat="45.32031484879553318023681640625" lon="-71.06347703374922275543212890625">
        <ele>606.20001220703125</ele>
        <time>2026-08-21T22:41:58.000Z</time>
        <extensions>
          <ns3:TrackPointExtension>
            <ns3:hr>139</ns3:hr>
            <ns3:cad>81</ns3:cad>
          </ns3:TrackPointExtension>
        </extensions>
      </trkpt>
      <trkpt lat="45.320289619266986846923828125" lon="-71.06348206289112567901611328125">
        <ele>606.4000244140625</ele>
        <time>2026-08-21T22:41:59.000Z</time>
        <extensions>
          <ns3:TrackPointExtension>
            <ns3:hr>139</ns3:hr>
            <ns3:cad>80</ns3:cad>
          </ns3:TrackPointExtension>
        </extensions>
      </trkpt>
      <trkpt lat="45.3202664852142333984375" lon="-71.06348793022334575653076171875">
        <ele>606.4000244140625</ele>
        <time>2026-08-21T22:42:00.000Z</time>
        <extensions>
          <ns3:TrackPointExtension>
            <ns3:hr>139</ns3:hr>
            <ns3:cad>80</ns3:cad>
          </ns3:TrackPointExtension>
        </extensions>
      </trkpt>
      <trkpt lat="45.320242345333099365234375" lon="-71.06349212117493152618408203125">
        <ele>606.5999755859375</ele>
        <time>2026-08-21T22:42:01.000Z</time>
        <extensions>
          <ns3:TrackPointExtension>
            <ns3:hr>140</ns3:hr>
            <ns3:cad>81</ns3:cad>
          </ns3:TrackPointExtension>
        </extensions>
      </trkpt>
      <trkpt lat="45.32021887600421905517578125" lon="-71.06349631212651729583740234375">
        <ele>606.79998779296875</ele>
        <time>2026-08-21T22:42:02.000Z</time>
        <extensions>
          <ns3:TrackPointExtension>
            <ns3:hr>140</ns3:hr>
            <ns3:cad>81</ns3:cad>
          </ns3:TrackPointExtension>
        </extensions>
      </trkpt>
      <trkpt lat="45.3201979212462902069091796875" lon="-71.0635015927255153656005859375">
        <ele>607</ele>
        <time>2026-08-21T22:42:03.000Z</time>
        <extensions>
          <ns3:TrackPointExtension>
            <ns3:hr>140</ns3:hr>
            <ns3:cad>81</ns3:cad>
          </ns3:TrackPointExtension>
        </extensions>
      </trkpt>
      <trkpt lat="45.32017269171774387359619140625" lon="-71.06350989080965518951416015625">
        <ele>607.20001220703125</ele>
        <time>2026-08-21T22:42:04.000Z</time>
        <extensions>
          <ns3:TrackPointExtension>
            <ns3:hr>140</ns3:hr>
            <ns3:cad>81</ns3:cad>
          </ns3:TrackPointExtension>
        </extensions>
      </trkpt>
      <trkpt lat="45.32014972530305385589599609375" lon="-71.06351659633219242095947265625">
        <ele>607.4000244140625</ele>
        <time>2026-08-21T22:42:05.000Z</time>
        <extensions>
          <ns3:TrackPointExtension>
            <ns3:hr>141</ns3:hr>
            <ns3:cad>81</ns3:cad>
          </ns3:TrackPointExtension>
        </extensions>
      </trkpt>
      <trkpt lat="45.32012860290706157684326171875" lon="-71.06352430768311023712158203125">
        <ele>607.4000244140625</ele>
        <time>2026-08-21T22:42:06.000Z</time>
        <extensions>
          <ns3:TrackPointExtension>
            <ns3:hr>140</ns3:hr>
            <ns3:cad>81</ns3:cad>
          </ns3:TrackPointExtension>
        </extensions>
      </trkpt>
      <trkpt lat="45.32010479830205440521240234375" lon="-71.06353553943336009979248046875">
        <ele>607.5999755859375</ele>
        <time>2026-08-21T22:42:07.000Z</time>
        <extensions>
          <ns3:TrackPointExtension>
            <ns3:hr>140</ns3:hr>
            <ns3:cad>81</ns3:cad>
          </ns3:TrackPointExtension>
        </extensions>
      </trkpt>
      <trkpt lat="45.32008610665798187255859375" lon="-71.063542328774929046630859375">
        <ele>607.5999755859375</ele>
        <time>2026-08-21T22:42:08.000Z</time>
        <extensions>
          <ns3:TrackPointExtension>
            <ns3:hr>140</ns3:hr>
            <ns3:cad>79</ns3:cad>
          </ns3:TrackPointExtension>
        </extensions>
      </trkpt>
      <trkpt lat="45.3200644813477993011474609375" lon="-71.0635502077639102935791015625">
        <ele>607.79998779296875</ele>
        <time>2026-08-21T22:42:09.000Z</time>
        <extensions>
          <ns3:TrackPointExtension>
            <ns3:hr>140</ns3:hr>
            <ns3:cad>79</ns3:cad>
          </ns3:TrackPointExtension>
        </extensions>
      </trkpt>
      <trkpt lat="45.320046879351139068603515625" lon="-71.063559763133525848388671875">
        <ele>607.79998779296875</ele>
        <time>2026-08-21T22:42:10.000Z</time>
        <extensions>
          <ns3:TrackPointExtension>
            <ns3:hr>140</ns3:hr>
            <ns3:cad>40</ns3:cad>
          </ns3:TrackPointExtension>
        </extensions>
      </trkpt>
      <trkpt lat="45.32002869062125682830810546875" lon="-71.06356956996023654937744140625">
        <ele>608</ele>
        <time>2026-08-21T22:42:11.000Z</time>
        <extensions>
          <ns3:TrackPointExtension>
            <ns3:hr>140</ns3:hr>
            <ns3:cad>40</ns3:cad>
          </ns3:TrackPointExtension>
        </extensions>
      </trkpt>
      <trkpt lat="45.32000589184463024139404296875" lon="-71.063580214977264404296875">
        <ele>608.20001220703125</ele>
        <time>2026-08-21T22:42:12.000Z</time>
        <extensions>
          <ns3:TrackPointExtension>
            <ns3:hr>139</ns3:hr>
            <ns3:cad>40</ns3:cad>
          </ns3:TrackPointExtension>
        </extensions>
      </trkpt>
      <trkpt lat="45.31998678110539913177490234375" lon="-71.0635884292423725128173828125">
        <ele>608.4000244140625</ele>
        <time>2026-08-21T22:42:13.000Z</time>
        <extensions>
          <ns3:TrackPointExtension>
            <ns3:hr>140</ns3:hr>
            <ns3:cad>40</ns3:cad>
          </ns3:TrackPointExtension>
        </extensions>
      </trkpt>
      <trkpt lat="45.31996817328035831451416015625" lon="-71.06359438039362430572509765625">
        <ele>608.4000244140625</ele>
        <time>2026-08-21T22:42:14.000Z</time>
        <extensions>
          <ns3:TrackPointExtension>
            <ns3:hr>140</ns3:hr>
            <ns3:cad>40</ns3:cad>
          </ns3:TrackPointExtension>
        </extensions>
      </trkpt>
      <trkpt lat="45.31994353048503398895263671875" lon="-71.063601337373256683349609375">
        <ele>608.5999755859375</ele>
        <time>2026-08-21T22:42:15.000Z</time>
        <extensions>
          <ns3:TrackPointExtension>
            <ns3:hr>140</ns3:hr>
            <ns3:cad>79</ns3:cad>
          </ns3:TrackPointExtension>
        </extensions>
      </trkpt>
      <trkpt lat="45.3199246712028980255126953125" lon="-71.06360661797225475311279296875">
        <ele>608.79998779296875</ele>
        <time>2026-08-21T22:42:16.000Z</time>
        <extensions>
          <ns3:TrackPointExtension>
            <ns3:hr>140</ns3:hr>
            <ns3:cad>79</ns3:cad>
          </ns3:TrackPointExtension>
        </extensions>
      </trkpt>
      <trkpt lat="45.31990497373044490814208984375" lon="-71.0636155866086483001708984375">
        <ele>609</ele>
        <time>2026-08-21T22:42:17.000Z</time>
        <extensions>
          <ns3:TrackPointExtension>
            <ns3:hr>141</ns3:hr>
            <ns3:cad>41</ns3:cad>
          </ns3:TrackPointExtension>
        </extensions>
      </trkpt>
      <trkpt lat="45.31989055685698986053466796875" lon="-71.063624136149883270263671875">
        <ele>609.20001220703125</ele>
        <time>2026-08-21T22:42:18.000Z</time>
        <extensions>
          <ns3:TrackPointExtension>
            <ns3:hr>141</ns3:hr>
            <ns3:cad>0</ns3:cad>
          </ns3:TrackPointExtension>
        </extensions>
      </trkpt>
      <trkpt lat="45.31987278722226619720458984375" lon="-71.06362891383469104766845703125">
        <ele>609.20001220703125</ele>
        <time>2026-08-21T22:42:19.000Z</time>
        <extensions>
          <ns3:TrackPointExtension>
            <ns3:hr>142</ns3:hr>
            <ns3:cad>0</ns3:cad>
          </ns3:TrackPointExtension>
        </extensions>
      </trkpt>
      <trkpt lat="45.31985870562493801116943359375" lon="-71.06363075785338878631591796875">
        <ele>609.4000244140625</ele>
        <time>2026-08-21T22:42:20.000Z</time>
        <extensions>
          <ns3:TrackPointExtension>
            <ns3:hr>142</ns3:hr>
            <ns3:cad>0</ns3:cad>
          </ns3:TrackPointExtension>
        </extensions>
      </trkpt>
      <trkpt lat="45.31983674503862857818603515625" lon="-71.0636353679001331329345703125">
        <ele>609.5999755859375</ele>
        <time>2026-08-21T22:42:21.000Z</time>
        <extensions>
          <ns3:TrackPointExtension>
            <ns3:hr>142</ns3:hr>
            <ns3:cad>0</ns3:cad>
          </ns3:TrackPointExtension>
        </extensions>
      </trkpt>
      <trkpt lat="45.31981922686100006103515625" lon="-71.06364659965038299560546875">
        <ele>609.79998779296875</ele>
        <time>2026-08-21T22:42:22.000Z</time>
        <extensions>
          <ns3:TrackPointExtension>
            <ns3:hr>142</ns3:hr>
            <ns3:cad>0</ns3:cad>
          </ns3:TrackPointExtension>
        </extensions>
      </trkpt>
      <trkpt lat="45.3198086656630039215087890625" lon="-71.06365263462066650390625">
        <ele>609.79998779296875</ele>
        <time>2026-08-21T22:42:23.000Z</time>
        <extensions>
          <ns3:TrackPointExtension>
            <ns3:hr>142</ns3:hr>
            <ns3:cad>0</ns3:cad>
          </ns3:TrackPointExtension>
        </extensions>
      </trkpt>
      <trkpt lat="45.31979869119822978973388671875" lon="-71.0636551491916179656982421875">
        <ele>610</ele>
        <time>2026-08-21T22:42:24.000Z</time>
        <extensions>
          <ns3:TrackPointExtension>
            <ns3:hr>143</ns3:hr>
            <ns3:cad>0</ns3:cad>
          </ns3:TrackPointExtension>
        </extensions>
      </trkpt>
      <trkpt lat="45.3197925724089145660400390625" lon="-71.0636541433632373809814453125">
        <ele>610</ele>
        <time>2026-08-21T22:42:25.000Z</time>
        <extensions>
          <ns3:TrackPointExtension>
            <ns3:hr>143</ns3:hr>
            <ns3:cad>55</ns3:cad>
          </ns3:TrackPointExtension>
        </extensions>
      </trkpt>
      <trkpt lat="45.31978310085833072662353515625" lon="-71.0636551491916179656982421875">
        <ele>610.20001220703125</ele>
        <time>2026-08-21T22:42:26.000Z</time>
        <extensions>
          <ns3:TrackPointExtension>
            <ns3:hr>144</ns3:hr>
            <ns3:cad>55</ns3:cad>
          </ns3:TrackPointExtension>
        </extensions>
      </trkpt>
      <trkpt lat="45.31977019272744655609130859375" lon="-71.06365640647709369659423828125">
        <ele>610.4000244140625</ele>
        <time>2026-08-21T22:42:27.000Z</time>
        <extensions>
          <ns3:TrackPointExtension>
            <ns3:hr>144</ns3:hr>
            <ns3:cad>55</ns3:cad>
          </ns3:TrackPointExtension>
        </extensions>
      </trkpt>
      <trkpt lat="45.31976021826267242431640625" lon="-71.06365959160029888153076171875">
        <ele>610.5999755859375</ele>
        <time>2026-08-21T22:42:28.000Z</time>
        <extensions>
          <ns3:TrackPointExtension>
            <ns3:hr>145</ns3:hr>
            <ns3:cad>54</ns3:cad>
          </ns3:TrackPointExtension>
        </extensions>
      </trkpt>
      <trkpt lat="45.31974806450307369232177734375" lon="-71.06366395018994808197021484375">
        <ele>610.5999755859375</ele>
        <time>2026-08-21T22:42:29.000Z</time>
        <extensions>
          <ns3:TrackPointExtension>
            <ns3:hr>145</ns3:hr>
            <ns3:cad>54</ns3:cad>
          </ns3:TrackPointExtension>
        </extensions>
      </trkpt>
      <trkpt lat="45.3197367489337921142578125" lon="-71.06366612948477268218994140625">
        <ele>610.79998779296875</ele>
        <time>2026-08-21T22:42:30.000Z</time>
        <extensions>
          <ns3:TrackPointExtension>
            <ns3:hr>145</ns3:hr>
            <ns3:cad>53</ns3:cad>
          </ns3:TrackPointExtension>
        </extensions>
      </trkpt>
      <trkpt lat="45.3197228349745273590087890625" lon="-71.0636662133038043975830078125">
        <ele>611</ele>
        <time>2026-08-21T22:42:31.000Z</time>
        <extensions>
          <ns3:TrackPointExtension>
            <ns3:hr>145</ns3:hr>
            <ns3:cad>53</ns3:cad>
          </ns3:TrackPointExtension>
        </extensions>
      </trkpt>
      <trkpt lat="45.31971353106200695037841796875" lon="-71.063669063150882720947265625">
        <ele>611.20001220703125</ele>
        <time>2026-08-21T22:42:32.000Z</time>
        <extensions>
          <ns3:TrackPointExtension>
            <ns3:hr>145</ns3:hr>
            <ns3:cad>53</ns3:cad>
          </ns3:TrackPointExtension>
        </extensions>
      </trkpt>
      <trkpt lat="45.31970280222594738006591796875" lon="-71.06367199681699275970458984375">
        <ele>611.4000244140625</ele>
        <time>2026-08-21T22:42:33.000Z</time>
        <extensions>
          <ns3:TrackPointExtension>
            <ns3:hr>145</ns3:hr>
            <ns3:cad>53</ns3:cad>
          </ns3:TrackPointExtension>
        </extensions>
      </trkpt>
      <trkpt lat="45.31969157047569751739501953125" lon="-71.06367602013051509857177734375">
        <ele>611.79998779296875</ele>
        <time>2026-08-21T22:42:34.000Z</time>
        <extensions>
          <ns3:TrackPointExtension>
            <ns3:hr>145</ns3:hr>
            <ns3:cad>51</ns3:cad>
          </ns3:TrackPointExtension>
        </extensions>
      </trkpt>
      <trkpt lat="45.3196789138019084930419921875" lon="-71.06367635540664196014404296875">
        <ele>612</ele>
        <time>2026-08-21T22:42:35.000Z</time>
        <extensions>
          <ns3:TrackPointExtension>
            <ns3:hr>146</ns3:hr>
            <ns3:cad>52</ns3:cad>
          </ns3:TrackPointExtension>
        </extensions>
      </trkpt>
      <trkpt lat="45.3196668438613414764404296875" lon="-71.06367216445505619049072265625">
        <ele>612</ele>
        <time>2026-08-21T22:42:36.000Z</time>
        <extensions>
          <ns3:TrackPointExtension>
            <ns3:hr>146</ns3:hr>
            <ns3:cad>52</ns3:cad>
          </ns3:TrackPointExtension>
        </extensions>
      </trkpt>
      <trkpt lat="45.31965485773980617523193359375" lon="-71.0636688955128192901611328125">
        <ele>612.20001220703125</ele>
        <time>2026-08-21T22:42:37.000Z</time>
        <extensions>
          <ns3:TrackPointExtension>
            <ns3:hr>146</ns3:hr>
            <ns3:cad>51</ns3:cad>
          </ns3:TrackPointExtension>
        </extensions>
      </trkpt>
      <trkpt lat="45.31964547000825405120849609375" lon="-71.0636682249605655670166015625">
        <ele>612.4000244140625</ele>
        <time>2026-08-21T22:42:38.000Z</time>
        <extensions>
          <ns3:TrackPointExtension>
            <ns3:hr>145</ns3:hr>
            <ns3:cad>51</ns3:cad>
          </ns3:TrackPointExtension>
        </extensions>
      </trkpt>
      <trkpt lat="45.31963658519089221954345703125" lon="-71.0636658780276775360107421875">
        <ele>612.5999755859375</ele>
        <time>2026-08-21T22:42:39.000Z</time>
        <extensions>
          <ns3:TrackPointExtension>
            <ns3:hr>145</ns3:hr>
            <ns3:cad>52</ns3:cad>
          </ns3:TrackPointExtension>
        </extensions>
      </trkpt>
      <trkpt lat="45.319627113640308380126953125" lon="-71.06366042979061603546142578125">
        <ele>612.79998779296875</ele>
        <time>2026-08-21T22:42:40.000Z</time>
        <extensions>
          <ns3:TrackPointExtension>
            <ns3:hr>144</ns3:hr>
            <ns3:cad>52</ns3:cad>
          </ns3:TrackPointExtension>
        </extensions>
      </trkpt>
      <trkpt lat="45.319621078670024871826171875" lon="-71.0636579990386962890625">
        <ele>613</ele>
        <time>2026-08-21T22:42:41.000Z</time>
        <extensions>
          <ns3:TrackPointExtension>
            <ns3:hr>144</ns3:hr>
            <ns3:cad>52</ns3:cad>
          </ns3:TrackPointExtension>
        </extensions>
      </trkpt>
      <trkpt lat="45.31961278058588504791259765625" lon="-71.063657663762569427490234375">
        <ele>613.20001220703125</ele>
        <time>2026-08-21T22:42:42.000Z</time>
        <extensions>
          <ns3:TrackPointExtension>
            <ns3:hr>145</ns3:hr>
            <ns3:cad>52</ns3:cad>
          </ns3:TrackPointExtension>
        </extensions>
      </trkpt>
      <trkpt lat="45.319608338177204132080078125" lon="-71.06364634819328784942626953125">
        <ele>613.4000244140625</ele>
        <time>2026-08-21T22:42:43.000Z</time>
        <extensions>
          <ns3:TrackPointExtension>
            <ns3:hr>145</ns3:hr>
            <ns3:cad>52</ns3:cad>
          </ns3:TrackPointExtension>
        </extensions>
      </trkpt>
      <trkpt lat="45.31959920190274715423583984375" lon="-71.06363981030881404876708984375">
        <ele>613.5999755859375</ele>
        <time>2026-08-21T22:42:44.000Z</time>
        <extensions>
          <ns3:TrackPointExtension>
            <ns3:hr>145</ns3:hr>
            <ns3:cad>52</ns3:cad>
          </ns3:TrackPointExtension>
        </extensions>
      </trkpt>
      <trkpt lat="45.31959232874214649200439453125" lon="-71.06363997794687747955322265625">
        <ele>613.79998779296875</ele>
        <time>2026-08-21T22:42:45.000Z</time>
        <extensions>
          <ns3:TrackPointExtension>
            <ns3:hr>145</ns3:hr>
            <ns3:cad>52</ns3:cad>
          </ns3:TrackPointExtension>
        </extensions>
      </trkpt>
      <trkpt lat="45.31958587467670440673828125" lon="-71.06363712809979915618896484375">
        <ele>614</ele>
        <time>2026-08-21T22:42:46.000Z</time>
        <extensions>
          <ns3:TrackPointExtension>
            <ns3:hr>145</ns3:hr>
            <ns3:cad>51</ns3:cad>
          </ns3:TrackPointExtension>
        </extensions>
      </trkpt>
      <trkpt lat="45.31957958824932575225830078125" lon="-71.0636333562433719635009765625">
        <ele>614</ele>
        <time>2026-08-21T22:42:47.000Z</time>
        <extensions>
          <ns3:TrackPointExtension>
            <ns3:hr>145</ns3:hr>
            <ns3:cad>51</ns3:cad>
          </ns3:TrackPointExtension>
        </extensions>
      </trkpt>
      <trkpt lat="45.31957422383129596710205078125" lon="-71.0636266507208347320556640625">
        <ele>614.20001220703125</ele>
        <time>2026-08-21T22:42:48.000Z</time>
        <extensions>
          <ns3:TrackPointExtension>
            <ns3:hr>145</ns3:hr>
            <ns3:cad>51</ns3:cad>
          </ns3:TrackPointExtension>
        </extensions>
      </trkpt>
      <trkpt lat="45.31956131570041179656982421875" lon="-71.06361575424671173095703125">
        <ele>614.4000244140625</ele>
        <time>2026-08-21T22:42:49.000Z</time>
        <extensions>
          <ns3:TrackPointExtension>
            <ns3:hr>145</ns3:hr>
            <ns3:cad>51</ns3:cad>
          </ns3:TrackPointExtension>
        </extensions>
      </trkpt>
      <trkpt lat="45.31955100595951080322265625" lon="-71.063603349030017852783203125">
        <ele>614.5999755859375</ele>
        <time>2026-08-21T22:42:50.000Z</time>
        <extensions>
          <ns3:TrackPointExtension>
            <ns3:hr>145</ns3:hr>
            <ns3:cad>51</ns3:cad>
          </ns3:TrackPointExtension>
        </extensions>
      </trkpt>
      <trkpt lat="45.319541953504085540771484375" lon="-71.06359236873686313629150390625">
        <ele>614.79998779296875</ele>
        <time>2026-08-21T22:42:51.000Z</time>
        <extensions>
          <ns3:TrackPointExtension>
            <ns3:hr>146</ns3:hr>
            <ns3:cad>50</ns3:cad>
          </ns3:TrackPointExtension>
        </extensions>
      </trkpt>
      <trkpt lat="45.31953625380992889404296875" lon="-71.06358013115823268890380859375">
        <ele>615</ele>
        <time>2026-08-21T22:42:52.000Z</time>
        <extensions>
          <ns3:TrackPointExtension>
            <ns3:hr>145</ns3:hr>
            <ns3:cad>50</ns3:cad>
          </ns3:TrackPointExtension>
        </extensions>
      </trkpt>
      <trkpt lat="45.31952912919223308563232421875" lon="-71.06356680393218994140625">
        <ele>615</ele>
        <time>2026-08-21T22:42:53.000Z</time>
        <extensions>
          <ns3:TrackPointExtension>
            <ns3:hr>146</ns3:hr>
            <ns3:cad>50</ns3:cad>
          </ns3:TrackPointExtension>
        </extensions>
      </trkpt>
      <trkpt lat="45.3195142932236194610595703125" lon="-71.06355699710547924041748046875">
        <ele>615</ele>
        <time>2026-08-21T22:42:54.000Z</time>
        <extensions>
          <ns3:TrackPointExtension>
            <ns3:hr>146</ns3:hr>
            <ns3:cad>53</ns3:cad>
          </ns3:TrackPointExtension>
        </extensions>
      </trkpt>
      <trkpt lat="45.3195065818727016448974609375" lon="-71.0635507106781005859375">
        <ele>615.20001220703125</ele>
        <time>2026-08-21T22:42:55.000Z</time>
        <extensions>
          <ns3:TrackPointExtension>
            <ns3:hr>146</ns3:hr>
            <ns3:cad>53</ns3:cad>
          </ns3:TrackPointExtension>
        </extensions>
      </trkpt>
      <trkpt lat="45.3194971941411495208740234375" lon="-71.0635413229465484619140625">
        <ele>615.4000244140625</ele>
        <time>2026-08-21T22:42:56.000Z</time>
        <extensions>
          <ns3:TrackPointExtension>
            <ns3:hr>146</ns3:hr>
            <ns3:cad>54</ns3:cad>
          </ns3:TrackPointExtension>
        </extensions>
      </trkpt>
      <trkpt lat="45.31948638148605823516845703125" lon="-71.06353453360497951507568359375">
        <ele>615.5999755859375</ele>
        <time>2026-08-21T22:42:57.000Z</time>
        <extensions>
          <ns3:TrackPointExtension>
            <ns3:hr>146</ns3:hr>
            <ns3:cad>54</ns3:cad>
          </ns3:TrackPointExtension>
        </extensions>
      </trkpt>
      <trkpt lat="45.3194737248122692108154296875" lon="-71.06352816335856914520263671875">
        <ele>615.79998779296875</ele>
        <time>2026-08-21T22:42:58.000Z</time>
        <extensions>
          <ns3:TrackPointExtension>
            <ns3:hr>146</ns3:hr>
            <ns3:cad>54</ns3:cad>
          </ns3:TrackPointExtension>
        </extensions>
      </trkpt>
      <trkpt lat="45.319461822509765625" lon="-71.0635196976363658905029296875">
        <ele>616</ele>
        <time>2026-08-21T22:42:59.000Z</time>
        <extensions>
          <ns3:TrackPointExtension>
            <ns3:hr>146</ns3:hr>
            <ns3:cad>54</ns3:cad>
          </ns3:TrackPointExtension>
        </extensions>
      </trkpt>
      <trkpt lat="45.31944715417921543121337890625" lon="-71.063510477542877197265625">
        <ele>616</ele>
        <time>2026-08-21T22:43:00.000Z</time>
        <extensions>
          <ns3:TrackPointExtension>
            <ns3:hr>145</ns3:hr>
            <ns3:cad>54</ns3:cad>
          </ns3:TrackPointExtension>
        </extensions>
      </trkpt>
      <trkpt lat="45.31942904926836490631103515625" lon="-71.06350100599229335784912109375">
        <ele>616.20001220703125</ele>
        <time>2026-08-21T22:43:01.000Z</time>
        <extensions>
          <ns3:TrackPointExtension>
            <ns3:hr>145</ns3:hr>
            <ns3:cad>53</ns3:cad>
          </ns3:TrackPointExtension>
        </extensions>
      </trkpt>
      <trkpt lat="45.3194160573184490203857421875" lon="-71.06349430046975612640380859375">
        <ele>616.20001220703125</ele>
        <time>2026-08-21T22:43:02.000Z</time>
        <extensions>
          <ns3:TrackPointExtension>
            <ns3:hr>144</ns3:hr>
            <ns3:cad>53</ns3:cad>
          </ns3:TrackPointExtension>
        </extensions>
      </trkpt>
      <trkpt lat="45.31940138898789882659912109375" lon="-71.0634868405759334564208984375">
        <ele>616.4000244140625</ele>
        <time>2026-08-21T22:43:03.000Z</time>
        <extensions>
          <ns3:TrackPointExtension>
            <ns3:hr>144</ns3:hr>
            <ns3:cad>53</ns3:cad>
          </ns3:TrackPointExtension>
        </extensions>
      </trkpt>
      <trkpt lat="45.31938730739057064056396484375" lon="-71.06348306871950626373291015625">
        <ele>616.5999755859375</ele>
        <time>2026-08-21T22:43:04.000Z</time>
        <extensions>
          <ns3:TrackPointExtension>
            <ns3:hr>144</ns3:hr>
            <ns3:cad>53</ns3:cad>
          </ns3:TrackPointExtension>
        </extensions>
      </trkpt>
      <trkpt lat="45.319373644888401031494140625" lon="-71.06347653083503246307373046875">
        <ele>616.5999755859375</ele>
        <time>2026-08-21T22:43:05.000Z</time>
        <extensions>
          <ns3:TrackPointExtension>
            <ns3:hr>144</ns3:hr>
            <ns3:cad>53</ns3:cad>
          </ns3:TrackPointExtension>
        </extensions>
      </trkpt>
      <trkpt lat="45.31936115585267543792724609375" lon="-71.0634684003889560699462890625">
        <ele>616.79998779296875</ele>
        <time>2026-08-21T22:43:06.000Z</time>
        <extensions>
          <ns3:TrackPointExtension>
            <ns3:hr>144</ns3:hr>
            <ns3:cad>55</ns3:cad>
          </ns3:TrackPointExtension>
        </extensions>
      </trkpt>
      <trkpt lat="45.31934984028339385986328125" lon="-71.0634576715528964996337890625">
        <ele>616.79998779296875</ele>
        <time>2026-08-21T22:43:07.000Z</time>
        <extensions>
          <ns3:TrackPointExtension>
            <ns3:hr>143</ns3:hr>
            <ns3:cad>55</ns3:cad>
          </ns3:TrackPointExtension>
        </extensions>
      </trkpt>
      <trkpt lat="45.31933885999023914337158203125" lon="-71.06344937346875667572021484375">
        <ele>617</ele>
        <time>2026-08-21T22:43:08.000Z</time>
        <extensions>
          <ns3:TrackPointExtension>
            <ns3:hr>143</ns3:hr>
            <ns3:cad>53</ns3:cad>
          </ns3:TrackPointExtension>
        </extensions>
      </trkpt>
      <trkpt lat="45.3193255327641963958740234375" lon="-71.06344266794621944427490234375">
        <ele>617.20001220703125</ele>
        <time>2026-08-21T22:43:09.000Z</time>
        <extensions>
          <ns3:TrackPointExtension>
            <ns3:hr>143</ns3:hr>
            <ns3:cad>53</ns3:cad>
          </ns3:TrackPointExtension>
        </extensions>
      </trkpt>
      <trkpt lat="45.3193117864429950714111328125" lon="-71.06343277730047702789306640625">
        <ele>617.20001220703125</ele>
        <time>2026-08-21T22:43:10.000Z</time>
        <extensions>
          <ns3:TrackPointExtension>
            <ns3:hr>143</ns3:hr>
            <ns3:cad>53</ns3:cad>
          </ns3:TrackPointExtension>
        </extensions>
      </trkpt>
      <trkpt lat="45.31930181197822093963623046875" lon="-71.0634217970073223114013671875">
        <ele>617.4000244140625</ele>
        <time>2026-08-21T22:43:11.000Z</time>
        <extensions>
          <ns3:TrackPointExtension>
            <ns3:hr>143</ns3:hr>
            <ns3:cad>54</ns3:cad>
          </ns3:TrackPointExtension>
        </extensions>
      </trkpt>
      <trkpt lat="45.3192926757037639617919921875" lon="-71.06341115199029445648193359375">
        <ele>617.5999755859375</ele>
        <time>2026-08-21T22:43:12.000Z</time>
        <extensions>
          <ns3:TrackPointExtension>
            <ns3:hr>142</ns3:hr>
            <ns3:cad>54</ns3:cad>
          </ns3:TrackPointExtension>
        </extensions>
      </trkpt>
      <trkpt lat="45.319281779229640960693359375" lon="-71.06339891441166400909423828125">
        <ele>617.79998779296875</ele>
        <time>2026-08-21T22:43:13.000Z</time>
        <extensions>
          <ns3:TrackPointExtension>
            <ns3:hr>142</ns3:hr>
            <ns3:cad>55</ns3:cad>
          </ns3:TrackPointExtension>
        </extensions>
      </trkpt>
      <trkpt lat="45.319271720945835113525390625" lon="-71.0633852519094944000244140625">
        <ele>617.79998779296875</ele>
        <time>2026-08-21T22:43:14.000Z</time>
        <extensions>
          <ns3:TrackPointExtension>
            <ns3:hr>142</ns3:hr>
            <ns3:cad>55</ns3:cad>
          </ns3:TrackPointExtension>
        </extensions>
      </trkpt>
      <trkpt lat="45.31926359049975872039794921875" lon="-71.063373349606990814208984375">
        <ele>618</ele>
        <time>2026-08-21T22:43:15.000Z</time>
        <extensions>
          <ns3:TrackPointExtension>
            <ns3:hr>142</ns3:hr>
            <ns3:cad>55</ns3:cad>
          </ns3:TrackPointExtension>
        </extensions>
      </trkpt>
      <trkpt lat="45.31925789080560207366943359375" lon="-71.0633570887148380279541015625">
        <ele>618.20001220703125</ele>
        <time>2026-08-21T22:43:16.000Z</time>
        <extensions>
          <ns3:TrackPointExtension>
            <ns3:hr>142</ns3:hr>
            <ns3:cad>53</ns3:cad>
          </ns3:TrackPointExtension>
        </extensions>
      </trkpt>
      <trkpt lat="45.319250263273715972900390625" lon="-71.0633423365652561187744140625">
        <ele>618.20001220703125</ele>
        <time>2026-08-21T22:43:17.000Z</time>
        <extensions>
          <ns3:TrackPointExtension>
            <ns3:hr>142</ns3:hr>
            <ns3:cad>53</ns3:cad>
          </ns3:TrackPointExtension>
        </extensions>
      </trkpt>
      <trkpt lat="45.31924188137054443359375" lon="-71.063330434262752532958984375">
        <ele>618.4000244140625</ele>
        <time>2026-08-21T22:43:18.000Z</time>
        <extensions>
          <ns3:TrackPointExtension>
            <ns3:hr>142</ns3:hr>
            <ns3:cad>53</ns3:cad>
          </ns3:TrackPointExtension>
        </extensions>
      </trkpt>
      <trkpt lat="45.3192324936389923095703125" lon="-71.06331258080899715423583984375">
        <ele>618.5999755859375</ele>
        <time>2026-08-21T22:43:19.000Z</time>
        <extensions>
          <ns3:TrackPointExtension>
            <ns3:hr>142</ns3:hr>
            <ns3:cad>53</ns3:cad>
          </ns3:TrackPointExtension>
        </extensions>
      </trkpt>
      <trkpt lat="45.31922654248774051666259765625" lon="-71.06329782865941524505615234375">
        <ele>618.79998779296875</ele>
        <time>2026-08-21T22:43:20.000Z</time>
        <extensions>
          <ns3:TrackPointExtension>
            <ns3:hr>142</ns3:hr>
            <ns3:cad>53</ns3:cad>
          </ns3:TrackPointExtension>
        </extensions>
      </trkpt>
      <trkpt lat="45.31921749003231525421142578125" lon="-71.0632829926908016204833984375">
        <ele>618.79998779296875</ele>
        <time>2026-08-21T22:43:21.000Z</time>
        <extensions>
          <ns3:TrackPointExtension>
            <ns3:hr>142</ns3:hr>
            <ns3:cad>53</ns3:cad>
          </ns3:TrackPointExtension>
        </extensions>
      </trkpt>
      <trkpt lat="45.31920910812914371490478515625" lon="-71.06327268294990062713623046875">
        <ele>619</ele>
        <time>2026-08-21T22:43:22.000Z</time>
        <extensions>
          <ns3:TrackPointExtension>
            <ns3:hr>142</ns3:hr>
            <ns3:cad>53</ns3:cad>
          </ns3:TrackPointExtension>
        </extensions>
      </trkpt>
      <trkpt lat="45.3191994689404964447021484375" lon="-71.0632622055709362030029296875">
        <ele>619.20001220703125</ele>
        <time>2026-08-21T22:43:23.000Z</time>
        <extensions>
          <ns3:TrackPointExtension>
            <ns3:hr>142</ns3:hr>
            <ns3:cad>53</ns3:cad>
          </ns3:TrackPointExtension>
        </extensions>
      </trkpt>
      <trkpt lat="45.3191927634179592132568359375" lon="-71.0632410831749439239501953125">
        <ele>619.20001220703125</ele>
        <time>2026-08-21T22:43:24.000Z</time>
        <extensions>
          <ns3:TrackPointExtension>
            <ns3:hr>141</ns3:hr>
            <ns3:cad>53</ns3:cad>
          </ns3:TrackPointExtension>
        </extensions>
      </trkpt>
      <trkpt lat="45.31918312422931194305419921875" lon="-71.0632273368537425994873046875">
        <ele>619.4000244140625</ele>
        <time>2026-08-21T22:43:25.000Z</time>
        <extensions>
          <ns3:TrackPointExtension>
            <ns3:hr>142</ns3:hr>
            <ns3:cad>53</ns3:cad>
          </ns3:TrackPointExtension>
        </extensions>
      </trkpt>
      <trkpt lat="45.31917189247906208038330078125" lon="-71.063212417066097259521484375">
        <ele>619.5999755859375</ele>
        <time>2026-08-21T22:43:26.000Z</time>
        <extensions>
          <ns3:TrackPointExtension>
            <ns3:hr>142</ns3:hr>
            <ns3:cad>53</ns3:cad>
          </ns3:TrackPointExtension>
        </extensions>
      </trkpt>
      <trkpt lat="45.3191669471561908721923828125" lon="-71.0631968267261981964111328125">
        <ele>619.79998779296875</ele>
        <time>2026-08-21T22:43:27.000Z</time>
        <extensions>
          <ns3:TrackPointExtension>
            <ns3:hr>141</ns3:hr>
            <ns3:cad>51</ns3:cad>
          </ns3:TrackPointExtension>
        </extensions>
      </trkpt>
      <trkpt lat="45.31915931962430477142333984375" lon="-71.06318928301334381103515625">
        <ele>619.79998779296875</ele>
        <time>2026-08-21T22:43:28.000Z</time>
        <extensions>
          <ns3:TrackPointExtension>
            <ns3:hr>142</ns3:hr>
            <ns3:cad>51</ns3:cad>
          </ns3:TrackPointExtension>
        </extensions>
      </trkpt>
      <trkpt lat="45.319150350987911224365234375" lon="-71.06318299658596515655517578125">
        <ele>620</ele>
        <time>2026-08-21T22:43:29.000Z</time>
        <extensions>
          <ns3:TrackPointExtension>
            <ns3:hr>141</ns3:hr>
            <ns3:cad>51</ns3:cad>
          </ns3:TrackPointExtension>
        </extensions>
      </trkpt>
      <trkpt lat="45.319141633808612823486328125" lon="-71.0631711781024932861328125">
        <ele>620.20001220703125</ele>
        <time>2026-08-21T22:43:30.000Z</time>
        <extensions>
          <ns3:TrackPointExtension>
            <ns3:hr>141</ns3:hr>
            <ns3:cad>52</ns3:cad>
          </ns3:TrackPointExtension>
        </extensions>
      </trkpt>
      <trkpt lat="45.31913685612380504608154296875" lon="-71.06316003017127513885498046875">
        <ele>620.4000244140625</ele>
        <time>2026-08-21T22:43:31.000Z</time>
        <extensions>
          <ns3:TrackPointExtension>
            <ns3:hr>140</ns3:hr>
            <ns3:cad>52</ns3:cad>
          </ns3:TrackPointExtension>
        </extensions>
      </trkpt>
      <trkpt lat="45.31912679783999919891357421875" lon="-71.0631435178220272064208984375">
        <ele>620.5999755859375</ele>
        <time>2026-08-21T22:43:32.000Z</time>
        <extensions>
          <ns3:TrackPointExtension>
            <ns3:hr>140</ns3:hr>
            <ns3:cad>50</ns3:cad>
          </ns3:TrackPointExtension>
        </extensions>
      </trkpt>
      <trkpt lat="45.319116152822971343994140625" lon="-71.0631311126053333282470703125">
        <ele>620.79998779296875</ele>
        <time>2026-08-21T22:43:33.000Z</time>
        <extensions>
          <ns3:TrackPointExtension>
            <ns3:hr>140</ns3:hr>
            <ns3:cad>50</ns3:cad>
          </ns3:TrackPointExtension>
        </extensions>
      </trkpt>
      <trkpt lat="45.3191032446920871734619140625" lon="-71.06311820447444915771484375">
        <ele>621</ele>
        <time>2026-08-21T22:43:34.000Z</time>
        <extensions>
          <ns3:TrackPointExtension>
            <ns3:hr>140</ns3:hr>
            <ns3:cad>50</ns3:cad>
          </ns3:TrackPointExtension>
        </extensions>
      </trkpt>
      <trkpt lat="45.31909234821796417236328125" lon="-71.06310789473354816436767578125">
        <ele>621.20001220703125</ele>
        <time>2026-08-21T22:43:35.000Z</time>
        <extensions>
          <ns3:TrackPointExtension>
            <ns3:hr>140</ns3:hr>
            <ns3:cad>50</ns3:cad>
          </ns3:TrackPointExtension>
        </extensions>
      </trkpt>
      <trkpt lat="45.31908220611512660980224609375" lon="-71.063097752630710601806640625">
        <ele>621.20001220703125</ele>
        <time>2026-08-21T22:43:36.000Z</time>
        <extensions>
          <ns3:TrackPointExtension>
            <ns3:hr>139</ns3:hr>
            <ns3:cad>50</ns3:cad>
          </ns3:TrackPointExtension>
        </extensions>
      </trkpt>
      <trkpt lat="45.31906862743198871612548828125" lon="-71.0630881972610950469970703125">
        <ele>621.4000244140625</ele>
        <time>2026-08-21T22:43:37.000Z</time>
        <extensions>
          <ns3:TrackPointExtension>
            <ns3:hr>139</ns3:hr>
            <ns3:cad>50</ns3:cad>
          </ns3:TrackPointExtension>
        </extensions>
      </trkpt>
      <trkpt lat="45.3190526179969310760498046875" lon="-71.06307663023471832275390625">
        <ele>621.5999755859375</ele>
        <time>2026-08-21T22:43:38.000Z</time>
        <extensions>
          <ns3:TrackPointExtension>
            <ns3:hr>139</ns3:hr>
            <ns3:cad>50</ns3:cad>
          </ns3:TrackPointExtension>
        </extensions>
      </trkpt>
      <trkpt lat="45.3190418891608715057373046875" lon="-71.06306347064673900604248046875">
        <ele>621.5999755859375</ele>
        <time>2026-08-21T22:43:39.000Z</time>
        <extensions>
          <ns3:TrackPointExtension>
            <ns3:hr>138</ns3:hr>
            <ns3:cad>50</ns3:cad>
          </ns3:TrackPointExtension>
        </extensions>
      </trkpt>
      <trkpt lat="45.31903208233416080474853515625" lon="-71.0630533285439014434814453125">
        <ele>621.79998779296875</ele>
        <time>2026-08-21T22:43:40.000Z</time>
        <extensions>
          <ns3:TrackPointExtension>
            <ns3:hr>138</ns3:hr>
            <ns3:cad>50</ns3:cad>
          </ns3:TrackPointExtension>
        </extensions>
      </trkpt>
      <trkpt lat="45.31902302987873554229736328125" lon="-71.063046120107173919677734375">
        <ele>622</ele>
        <time>2026-08-21T22:43:41.000Z</time>
        <extensions>
          <ns3:TrackPointExtension>
            <ns3:hr>138</ns3:hr>
            <ns3:cad>50</ns3:cad>
          </ns3:TrackPointExtension>
        </extensions>
      </trkpt>
      <trkpt lat="45.31901456415653228759765625" lon="-71.063038073480129241943359375">
        <ele>622.20001220703125</ele>
        <time>2026-08-21T22:43:42.000Z</time>
        <extensions>
          <ns3:TrackPointExtension>
            <ns3:hr>138</ns3:hr>
            <ns3:cad>51</ns3:cad>
          </ns3:TrackPointExtension>
        </extensions>
      </trkpt>
      <trkpt lat="45.31900919973850250244140625" lon="-71.06302432715892791748046875">
        <ele>622.20001220703125</ele>
        <time>2026-08-21T22:43:43.000Z</time>
        <extensions>
          <ns3:TrackPointExtension>
            <ns3:hr>138</ns3:hr>
            <ns3:cad>51</ns3:cad>
          </ns3:TrackPointExtension>
        </extensions>
      </trkpt>
      <trkpt lat="45.31900308094918727874755859375" lon="-71.0630124248564243316650390625">
        <ele>622.5999755859375</ele>
        <time>2026-08-21T22:43:44.000Z</time>
        <extensions>
          <ns3:TrackPointExtension>
            <ns3:hr>138</ns3:hr>
            <ns3:cad>51</ns3:cad>
          </ns3:TrackPointExtension>
        </extensions>
      </trkpt>
      <trkpt lat="45.318992435932159423828125" lon="-71.06300027109682559967041015625">
        <ele>622.5999755859375</ele>
        <time>2026-08-21T22:43:45.000Z</time>
        <extensions>
          <ns3:TrackPointExtension>
            <ns3:hr>138</ns3:hr>
            <ns3:cad>51</ns3:cad>
          </ns3:TrackPointExtension>
        </extensions>
      </trkpt>
      <trkpt lat="45.3189815394580364227294921875" lon="-71.0629882849752902984619140625">
        <ele>623</ele>
        <time>2026-08-21T22:43:46.000Z</time>
        <extensions>
          <ns3:TrackPointExtension>
            <ns3:hr>138</ns3:hr>
            <ns3:cad>51</ns3:cad>
          </ns3:TrackPointExtension>
        </extensions>
      </trkpt>
      <trkpt lat="45.3189731575548648834228515625" lon="-71.062979064881801605224609375">
        <ele>623.20001220703125</ele>
        <time>2026-08-21T22:43:47.000Z</time>
        <extensions>
          <ns3:TrackPointExtension>
            <ns3:hr>138</ns3:hr>
            <ns3:cad>51</ns3:cad>
          </ns3:TrackPointExtension>
        </extensions>
      </trkpt>
      <trkpt lat="45.31896703876554965972900390625" lon="-71.06297336518764495849609375">
        <ele>623.20001220703125</ele>
        <time>2026-08-21T22:43:48.000Z</time>
        <extensions>
          <ns3:TrackPointExtension>
            <ns3:hr>137</ns3:hr>
            <ns3:cad>51</ns3:cad>
          </ns3:TrackPointExtension>
        </extensions>
      </trkpt>
      <trkpt lat="45.3189594112336635589599609375" lon="-71.06296741403639316558837890625">
        <ele>623.4000244140625</ele>
        <time>2026-08-21T22:43:49.000Z</time>
        <extensions>
          <ns3:TrackPointExtension>
            <ns3:hr>137</ns3:hr>
            <ns3:cad>50</ns3:cad>
          </ns3:TrackPointExtension>
        </extensions>
      </trkpt>
      <trkpt lat="45.3189503587782382965087890625" lon="-71.0629557631909847259521484375">
        <ele>623.5999755859375</ele>
        <time>2026-08-21T22:43:50.000Z</time>
        <extensions>
          <ns3:TrackPointExtension>
            <ns3:hr>137</ns3:hr>
            <ns3:cad>49</ns3:cad>
          </ns3:TrackPointExtension>
        </extensions>
      </trkpt>
      <trkpt lat="45.31893946230411529541015625" lon="-71.06294176541268825531005859375">
        <ele>623.79998779296875</ele>
        <time>2026-08-21T22:43:51.000Z</time>
        <extensions>
          <ns3:TrackPointExtension>
            <ns3:hr>137</ns3:hr>
            <ns3:cad>48</ns3:cad>
          </ns3:TrackPointExtension>
        </extensions>
      </trkpt>
      <trkpt lat="45.31893200241029262542724609375" lon="-71.06293053366243839263916015625">
        <ele>623.79998779296875</ele>
        <time>2026-08-21T22:43:52.000Z</time>
        <extensions>
          <ns3:TrackPointExtension>
            <ns3:hr>137</ns3:hr>
            <ns3:cad>48</ns3:cad>
          </ns3:TrackPointExtension>
        </extensions>
      </trkpt>
      <trkpt lat="45.318928398191928863525390625" lon="-71.062924750149250030517578125">
        <ele>624</ele>
        <time>2026-08-21T22:43:53.000Z</time>
        <extensions>
          <ns3:TrackPointExtension>
            <ns3:hr>137</ns3:hr>
            <ns3:cad>48</ns3:cad>
          </ns3:TrackPointExtension>
        </extensions>
      </trkpt>
      <trkpt lat="45.3189267218112945556640625" lon="-71.06291645206511020660400390625">
        <ele>624.20001220703125</ele>
        <time>2026-08-21T22:43:54.000Z</time>
        <extensions>
          <ns3:TrackPointExtension>
            <ns3:hr>136</ns3:hr>
            <ns3:cad>48</ns3:cad>
          </ns3:TrackPointExtension>
        </extensions>
      </trkpt>
      <trkpt lat="45.318917334079742431640625" lon="-71.06290639378130435943603515625">
        <ele>624.4000244140625</ele>
        <time>2026-08-21T22:43:55.000Z</time>
        <extensions>
          <ns3:TrackPointExtension>
            <ns3:hr>136</ns3:hr>
            <ns3:cad>48</ns3:cad>
          </ns3:TrackPointExtension>
        </extensions>
      </trkpt>
      <trkpt lat="45.3189077787101268768310546875" lon="-71.06289499439299106597900390625">
        <ele>624.5999755859375</ele>
        <time>2026-08-21T22:43:56.000Z</time>
        <extensions>
          <ns3:TrackPointExtension>
            <ns3:hr>136</ns3:hr>
            <ns3:cad>48</ns3:cad>
          </ns3:TrackPointExtension>
        </extensions>
      </trkpt>
      <trkpt lat="45.3189004026353359222412109375" lon="-71.06288510374724864959716796875">
        <ele>624.79998779296875</ele>
        <time>2026-08-21T22:43:57.000Z</time>
        <extensions>
          <ns3:TrackPointExtension>
            <ns3:hr>136</ns3:hr>
            <ns3:cad>49</ns3:cad>
          </ns3:TrackPointExtension>
        </extensions>
      </trkpt>
      <trkpt lat="45.3188923560082912445068359375" lon="-71.0628739558160305023193359375">
        <ele>625</ele>
        <time>2026-08-21T22:43:58.000Z</time>
        <extensions>
          <ns3:TrackPointExtension>
            <ns3:hr>136</ns3:hr>
            <ns3:cad>49</ns3:cad>
          </ns3:TrackPointExtension>
        </extensions>
      </trkpt>
      <trkpt lat="45.31888154335319995880126953125" lon="-71.0628585331141948699951171875">
        <ele>625.20001220703125</ele>
        <time>2026-08-21T22:43:59.000Z</time>
        <extensions>
          <ns3:TrackPointExtension>
            <ns3:hr>136</ns3:hr>
            <ns3:cad>48</ns3:cad>
          </ns3:TrackPointExtension>
        </extensions>
      </trkpt>
      <trkpt lat="45.3188685514032840728759765625" lon="-71.06284671463072299957275390625">
        <ele>625.20001220703125</ele>
        <time>2026-08-21T22:44:00.000Z</time>
        <extensions>
          <ns3:TrackPointExtension>
            <ns3:hr>136</ns3:hr>
            <ns3:cad>48</ns3:cad>
          </ns3:TrackPointExtension>
        </extensions>
      </trkpt>
      <trkpt lat="45.31885589472949504852294921875" lon="-71.0628323815762996673583984375">
        <ele>625.4000244140625</ele>
        <time>2026-08-21T22:44:01.000Z</time>
        <extensions>
          <ns3:TrackPointExtension>
            <ns3:hr>136</ns3:hr>
            <ns3:cad>48</ns3:cad>
          </ns3:TrackPointExtension>
        </extensions>
      </trkpt>
      <trkpt lat="45.31884784810245037078857421875" lon="-71.0628196410834789276123046875">
        <ele>625.5999755859375</ele>
        <time>2026-08-21T22:44:02.000Z</time>
        <extensions>
          <ns3:TrackPointExtension>
            <ns3:hr>135</ns3:hr>
            <ns3:cad>48</ns3:cad>
          </ns3:TrackPointExtension>
        </extensions>
      </trkpt>
      <trkpt lat="45.318841896951198577880859375" lon="-71.0628085769712924957275390625">
        <ele>625.79998779296875</ele>
        <time>2026-08-21T22:44:03.000Z</time>
        <extensions>
          <ns3:TrackPointExtension>
            <ns3:hr>136</ns3:hr>
            <ns3:cad>48</ns3:cad>
          </ns3:TrackPointExtension>
        </extensions>
      </trkpt>
      <trkpt lat="45.31883343122899532318115234375" lon="-71.06279893778264522552490234375">
        <ele>626</ele>
        <time>2026-08-21T22:44:04.000Z</time>
        <extensions>
          <ns3:TrackPointExtension>
            <ns3:hr>136</ns3:hr>
            <ns3:cad>48</ns3:cad>
          </ns3:TrackPointExtension>
        </extensions>
      </trkpt>
      <trkpt lat="45.3188266418874263763427734375" lon="-71.0627887956798076629638671875">
        <ele>626.20001220703125</ele>
        <time>2026-08-21T22:44:05.000Z</time>
        <extensions>
          <ns3:TrackPointExtension>
            <ns3:hr>136</ns3:hr>
            <ns3:cad>48</ns3:cad>
          </ns3:TrackPointExtension>
        </extensions>
      </trkpt>
      <trkpt lat="45.3188199363648891448974609375" lon="-71.06277815066277980804443359375">
        <ele>626.4000244140625</ele>
        <time>2026-08-21T22:44:06.000Z</time>
        <extensions>
          <ns3:TrackPointExtension>
            <ns3:hr>136</ns3:hr>
            <ns3:cad>47</ns3:cad>
          </ns3:TrackPointExtension>
        </extensions>
      </trkpt>
      <trkpt lat="45.31881012953817844390869140625" lon="-71.0627656616270542144775390625">
        <ele>626.5999755859375</ele>
        <time>2026-08-21T22:44:07.000Z</time>
        <extensions>
          <ns3:TrackPointExtension>
            <ns3:hr>136</ns3:hr>
            <ns3:cad>47</ns3:cad>
          </ns3:TrackPointExtension>
        </extensions>
      </trkpt>
      <trkpt lat="45.318800322711467742919921875" lon="-71.06275199912488460540771484375">
        <ele>626.79998779296875</ele>
        <time>2026-08-21T22:44:08.000Z</time>
        <extensions>
          <ns3:TrackPointExtension>
            <ns3:hr>136</ns3:hr>
            <ns3:cad>47</ns3:cad>
          </ns3:TrackPointExtension>
        </extensions>
      </trkpt>
      <trkpt lat="45.31879353336989879608154296875" lon="-71.06274068355560302734375">
        <ele>627</ele>
        <time>2026-08-21T22:44:09.000Z</time>
        <extensions>
          <ns3:TrackPointExtension>
            <ns3:hr>136</ns3:hr>
            <ns3:cad>47</ns3:cad>
          </ns3:TrackPointExtension>
        </extensions>
      </trkpt>
      <trkpt lat="45.31878548674285411834716796875" lon="-71.0627264343202114105224609375">
        <ele>627</ele>
        <time>2026-08-21T22:44:10.000Z</time>
        <extensions>
          <ns3:TrackPointExtension>
            <ns3:hr>136</ns3:hr>
            <ns3:cad>47</ns3:cad>
          </ns3:TrackPointExtension>
        </extensions>
      </trkpt>
      <trkpt lat="45.31877542845904827117919921875" lon="-71.062714196741580963134765625">
        <ele>627.20001220703125</ele>
        <time>2026-08-21T22:44:11.000Z</time>
        <extensions>
          <ns3:TrackPointExtension>
            <ns3:hr>136</ns3:hr>
            <ns3:cad>50</ns3:cad>
          </ns3:TrackPointExtension>
        </extensions>
      </trkpt>
      <trkpt lat="45.3187644481658935546875" lon="-71.06269936077296733856201171875">
        <ele>627.4000244140625</ele>
        <time>2026-08-21T22:44:12.000Z</time>
        <extensions>
          <ns3:TrackPointExtension>
            <ns3:hr>136</ns3:hr>
            <ns3:cad>50</ns3:cad>
          </ns3:TrackPointExtension>
        </extensions>
      </trkpt>
      <trkpt lat="45.318758748471736907958984375" lon="-71.0626922361552715301513671875">
        <ele>627.5999755859375</ele>
        <time>2026-08-21T22:44:13.000Z</time>
        <extensions>
          <ns3:TrackPointExtension>
            <ns3:hr>136</ns3:hr>
            <ns3:cad>49</ns3:cad>
          </ns3:TrackPointExtension>
        </extensions>
      </trkpt>
      <trkpt lat="45.31874944455921649932861328125" lon="-71.06267790310084819793701171875">
        <ele>627.5999755859375</ele>
        <time>2026-08-21T22:44:14.000Z</time>
        <extensions>
          <ns3:TrackPointExtension>
            <ns3:hr>137</ns3:hr>
            <ns3:cad>49</ns3:cad>
          </ns3:TrackPointExtension>
        </extensions>
      </trkpt>
      <trkpt lat="45.3187434934079647064208984375" lon="-71.06266499496996402740478515625">
        <ele>627.79998779296875</ele>
        <time>2026-08-21T22:44:15.000Z</time>
        <extensions>
          <ns3:TrackPointExtension>
            <ns3:hr>137</ns3:hr>
            <ns3:cad>49</ns3:cad>
          </ns3:TrackPointExtension>
        </extensions>
      </trkpt>
      <trkpt lat="45.3187377937138080596923828125" lon="-71.06265326030552387237548828125">
        <ele>628</ele>
        <time>2026-08-21T22:44:16.000Z</time>
        <extensions>
          <ns3:TrackPointExtension>
            <ns3:hr>138</ns3:hr>
            <ns3:cad>49</ns3:cad>
          </ns3:TrackPointExtension>
        </extensions>
      </trkpt>
      <trkpt lat="45.31872899271547794342041015625" lon="-71.06263850815594196319580078125">
        <ele>628.20001220703125</ele>
        <time>2026-08-21T22:44:17.000Z</time>
        <extensions>
          <ns3:TrackPointExtension>
            <ns3:hr>138</ns3:hr>
            <ns3:cad>49</ns3:cad>
          </ns3:TrackPointExtension>
        </extensions>
      </trkpt>
      <trkpt lat="45.3187233768403530120849609375" lon="-71.06262224726378917694091796875">
        <ele>628.4000244140625</ele>
        <time>2026-08-21T22:44:18.000Z</time>
        <extensions>
          <ns3:TrackPointExtension>
            <ns3:hr>138</ns3:hr>
            <ns3:cad>49</ns3:cad>
          </ns3:TrackPointExtension>
        </extensions>
      </trkpt>
      <trkpt lat="45.31871876679360866546630859375" lon="-71.062606908380985260009765625">
        <ele>628.5999755859375</ele>
        <time>2026-08-21T22:44:19.000Z</time>
        <extensions>
          <ns3:TrackPointExtension>
            <ns3:hr>138</ns3:hr>
            <ns3:cad>49</ns3:cad>
          </ns3:TrackPointExtension>
        </extensions>
      </trkpt>
      <trkpt lat="45.3187119774520397186279296875" lon="-71.06259374879300594329833984375">
        <ele>628.5999755859375</ele>
        <time>2026-08-21T22:44:20.000Z</time>
        <extensions>
          <ns3:TrackPointExtension>
            <ns3:hr>138</ns3:hr>
            <ns3:cad>50</ns3:cad>
          </ns3:TrackPointExtension>
        </extensions>
      </trkpt>
      <trkpt lat="45.3187072835862636566162109375" lon="-71.06258067302405834197998046875">
        <ele>628.79998779296875</ele>
        <time>2026-08-21T22:44:21.000Z</time>
        <extensions>
          <ns3:TrackPointExtension>
            <ns3:hr>138</ns3:hr>
            <ns3:cad>50</ns3:cad>
          </ns3:TrackPointExtension>
        </extensions>
      </trkpt>
      <trkpt lat="45.3187025897204875946044921875" lon="-71.0625618137419223785400390625">
        <ele>629</ele>
        <time>2026-08-21T22:44:22.000Z</time>
        <extensions>
          <ns3:TrackPointExtension>
            <ns3:hr>138</ns3:hr>
            <ns3:cad>50</ns3:cad>
          </ns3:TrackPointExtension>
        </extensions>
      </trkpt>
      <trkpt lat="45.31869445927441120147705078125" lon="-71.06253943406045436859130859375">
        <ele>629</ele>
        <time>2026-08-21T22:44:23.000Z</time>
        <extensions>
          <ns3:TrackPointExtension>
            <ns3:hr>138</ns3:hr>
            <ns3:cad>50</ns3:cad>
          </ns3:TrackPointExtension>
        </extensions>
      </trkpt>
      <trkpt lat="45.31868909485638141632080078125" lon="-71.06252166442573070526123046875">
        <ele>629.20001220703125</ele>
        <time>2026-08-21T22:44:24.000Z</time>
        <extensions>
          <ns3:TrackPointExtension>
            <ns3:hr>139</ns3:hr>
            <ns3:cad>50</ns3:cad>
          </ns3:TrackPointExtension>
        </extensions>
      </trkpt>
      <trkpt lat="45.31868674792349338531494140625" lon="-71.06250573880970478057861328125">
        <ele>629.4000244140625</ele>
        <time>2026-08-21T22:44:25.000Z</time>
        <extensions>
          <ns3:TrackPointExtension>
            <ns3:hr>139</ns3:hr>
            <ns3:cad>51</ns3:cad>
          </ns3:TrackPointExtension>
        </extensions>
      </trkpt>
      <trkpt lat="45.3186821378767490386962890625" lon="-71.0624863766133785247802734375">
        <ele>629.4000244140625</ele>
        <time>2026-08-21T22:44:26.000Z</time>
        <extensions>
          <ns3:TrackPointExtension>
            <ns3:hr>140</ns3:hr>
            <ns3:cad>51</ns3:cad>
          </ns3:TrackPointExtension>
        </extensions>
      </trkpt>
      <trkpt lat="45.31867786310613155364990234375" lon="-71.062474139034748077392578125">
        <ele>629.5999755859375</ele>
        <time>2026-08-21T22:44:27.000Z</time>
        <extensions>
          <ns3:TrackPointExtension>
            <ns3:hr>140</ns3:hr>
            <ns3:cad>51</ns3:cad>
          </ns3:TrackPointExtension>
        </extensions>
      </trkpt>
      <trkpt lat="45.31867300160229206085205078125" lon="-71.06246047653257846832275390625">
        <ele>629.79998779296875</ele>
        <time>2026-08-21T22:44:28.000Z</time>
        <extensions>
          <ns3:TrackPointExtension>
            <ns3:hr>140</ns3:hr>
            <ns3:cad>51</ns3:cad>
          </ns3:TrackPointExtension>
        </extensions>
      </trkpt>
      <trkpt lat="45.31866830773651599884033203125" lon="-71.06244354508817195892333984375">
        <ele>630</ele>
        <time>2026-08-21T22:44:29.000Z</time>
        <extensions>
          <ns3:TrackPointExtension>
            <ns3:hr>140</ns3:hr>
            <ns3:cad>51</ns3:cad>
          </ns3:TrackPointExtension>
        </extensions>
      </trkpt>
      <trkpt lat="45.3186630271375179290771484375" lon="-71.06243113987147808074951171875">
        <ele>630</ele>
        <time>2026-08-21T22:44:30.000Z</time>
        <extensions>
          <ns3:TrackPointExtension>
            <ns3:hr>140</ns3:hr>
            <ns3:cad>52</ns3:cad>
          </ns3:TrackPointExtension>
        </extensions>
      </trkpt>
      <trkpt lat="45.318656824529170989990234375" lon="-71.06241236440837383270263671875">
        <ele>630.20001220703125</ele>
        <time>2026-08-21T22:44:31.000Z</time>
        <extensions>
          <ns3:TrackPointExtension>
            <ns3:hr>140</ns3:hr>
            <ns3:cad>52</ns3:cad>
          </ns3:TrackPointExtension>
        </extensions>
      </trkpt>
      <trkpt lat="45.31865246593952178955078125" lon="-71.0623928345739841461181640625">
        <ele>630.20001220703125</ele>
        <time>2026-08-21T22:44:32.000Z</time>
        <extensions>
          <ns3:TrackPointExtension>
            <ns3:hr>141</ns3:hr>
            <ns3:cad>52</ns3:cad>
          </ns3:TrackPointExtension>
        </extensions>
      </trkpt>
      <trkpt lat="45.31864718534052371978759765625" lon="-71.062374897301197052001953125">
        <ele>630.4000244140625</ele>
        <time>2026-08-21T22:44:33.000Z</time>
        <extensions>
          <ns3:TrackPointExtension>
            <ns3:hr>140</ns3:hr>
            <ns3:cad>52</ns3:cad>
          </ns3:TrackPointExtension>
        </extensions>
      </trkpt>
      <trkpt lat="45.31864265911281108856201171875" lon="-71.06235980987548828125">
        <ele>630.5999755859375</ele>
        <time>2026-08-21T22:44:34.000Z</time>
        <extensions>
          <ns3:TrackPointExtension>
            <ns3:hr>140</ns3:hr>
            <ns3:cad>52</ns3:cad>
          </ns3:TrackPointExtension>
        </extensions>
      </trkpt>
      <trkpt lat="45.31863578595221042633056640625" lon="-71.06234380044043064117431640625">
        <ele>630.5999755859375</ele>
        <time>2026-08-21T22:44:35.000Z</time>
        <extensions>
          <ns3:TrackPointExtension>
            <ns3:hr>140</ns3:hr>
            <ns3:cad>52</ns3:cad>
          </ns3:TrackPointExtension>
        </extensions>
      </trkpt>
      <trkpt lat="45.31863042153418064117431640625" lon="-71.0623276233673095703125">
        <ele>630.79998779296875</ele>
        <time>2026-08-21T22:44:36.000Z</time>
        <extensions>
          <ns3:TrackPointExtension>
            <ns3:hr>140</ns3:hr>
            <ns3:cad>52</ns3:cad>
          </ns3:TrackPointExtension>
        </extensions>
      </trkpt>
      <trkpt lat="45.31862623058259487152099609375" lon="-71.06230474077165126800537109375">
        <ele>631</ele>
        <time>2026-08-21T22:44:37.000Z</time>
        <extensions>
          <ns3:TrackPointExtension>
            <ns3:hr>140</ns3:hr>
            <ns3:cad>52</ns3:cad>
          </ns3:TrackPointExtension>
        </extensions>
      </trkpt>
      <trkpt lat="45.318621955811977386474609375" lon="-71.0622838698327541351318359375">
        <ele>631.20001220703125</ele>
        <time>2026-08-21T22:44:38.000Z</time>
        <extensions>
          <ns3:TrackPointExtension>
            <ns3:hr>139</ns3:hr>
            <ns3:cad>51</ns3:cad>
          </ns3:TrackPointExtension>
        </extensions>
      </trkpt>
      <trkpt lat="45.3186142444610595703125" lon="-71.06226635165512561798095703125">
        <ele>631.4000244140625</ele>
        <time>2026-08-21T22:44:39.000Z</time>
        <extensions>
          <ns3:TrackPointExtension>
            <ns3:hr>140</ns3:hr>
            <ns3:cad>51</ns3:cad>
          </ns3:TrackPointExtension>
        </extensions>
      </trkpt>
      <trkpt lat="45.31860795803368091583251953125" lon="-71.0622520186007022857666015625">
        <ele>631.5999755859375</ele>
        <time>2026-08-21T22:44:40.000Z</time>
        <extensions>
          <ns3:TrackPointExtension>
            <ns3:hr>139</ns3:hr>
            <ns3:cad>51</ns3:cad>
          </ns3:TrackPointExtension>
        </extensions>
      </trkpt>
      <trkpt lat="45.318600498139858245849609375" lon="-71.0622349195182323455810546875">
        <ele>631.79998779296875</ele>
        <time>2026-08-21T22:44:41.000Z</time>
        <extensions>
          <ns3:TrackPointExtension>
            <ns3:hr>139</ns3:hr>
            <ns3:cad>51</ns3:cad>
          </ns3:TrackPointExtension>
        </extensions>
      </trkpt>
      <trkpt lat="45.3185946308076381683349609375" lon="-71.0622194968163967132568359375">
        <ele>632</ele>
        <time>2026-08-21T22:44:42.000Z</time>
        <extensions>
          <ns3:TrackPointExtension>
            <ns3:hr>139</ns3:hr>
            <ns3:cad>51</ns3:cad>
          </ns3:TrackPointExtension>
        </extensions>
      </trkpt>
      <trkpt lat="45.31859136186540126800537109375" lon="-71.0622047446668148040771484375">
        <ele>632</ele>
        <time>2026-08-21T22:44:43.000Z</time>
        <extensions>
          <ns3:TrackPointExtension>
            <ns3:hr>139</ns3:hr>
            <ns3:cad>51</ns3:cad>
          </ns3:TrackPointExtension>
        </extensions>
      </trkpt>
      <trkpt lat="45.31858867965638637542724609375" lon="-71.06219259090721607208251953125">
        <ele>632.20001220703125</ele>
        <time>2026-08-21T22:44:44.000Z</time>
        <extensions>
          <ns3:TrackPointExtension>
            <ns3:hr>139</ns3:hr>
            <ns3:cad>51</ns3:cad>
          </ns3:TrackPointExtension>
        </extensions>
      </trkpt>
      <trkpt lat="45.3185872547328472137451171875" lon="-71.06218169443309307098388671875">
        <ele>632.4000244140625</ele>
        <time>2026-08-21T22:44:45.000Z</time>
        <extensions>
          <ns3:TrackPointExtension>
            <ns3:hr>140</ns3:hr>
            <ns3:cad>51</ns3:cad>
          </ns3:TrackPointExtension>
        </extensions>
      </trkpt>
      <trkpt lat="45.3185798786580562591552734375" lon="-71.0621665231883525848388671875">
        <ele>632.5999755859375</ele>
        <time>2026-08-21T22:44:46.000Z</time>
        <extensions>
          <ns3:TrackPointExtension>
            <ns3:hr>140</ns3:hr>
            <ns3:cad>51</ns3:cad>
          </ns3:TrackPointExtension>
        </extensions>
      </trkpt>
      <trkpt lat="45.318574011325836181640625" lon="-71.06215068139135837554931640625">
        <ele>632.79998779296875</ele>
        <time>2026-08-21T22:44:47.000Z</time>
        <extensions>
          <ns3:TrackPointExtension>
            <ns3:hr>140</ns3:hr>
            <ns3:cad>51</ns3:cad>
          </ns3:TrackPointExtension>
        </extensions>
      </trkpt>
      <trkpt lat="45.31856789253652095794677734375" lon="-71.06213760562241077423095703125">
        <ele>632.79998779296875</ele>
        <time>2026-08-21T22:44:48.000Z</time>
        <extensions>
          <ns3:TrackPointExtension>
            <ns3:hr>140</ns3:hr>
            <ns3:cad>51</ns3:cad>
          </ns3:TrackPointExtension>
        </extensions>
      </trkpt>
      <trkpt lat="45.31856487505137920379638671875" lon="-71.06212846934795379638671875">
        <ele>633</ele>
        <time>2026-08-21T22:44:49.000Z</time>
        <extensions>
          <ns3:TrackPointExtension>
            <ns3:hr>139</ns3:hr>
            <ns3:cad>49</ns3:cad>
          </ns3:TrackPointExtension>
        </extensions>
      </trkpt>
      <trkpt lat="45.31855515204370021820068359375" lon="-71.06211480684578418731689453125">
        <ele>633.20001220703125</ele>
        <time>2026-08-21T22:44:50.000Z</time>
        <extensions>
          <ns3:TrackPointExtension>
            <ns3:hr>139</ns3:hr>
            <ns3:cad>49</ns3:cad>
          </ns3:TrackPointExtension>
        </extensions>
      </trkpt>
      <trkpt lat="45.3185458481311798095703125" lon="-71.06210474856197834014892578125">
        <ele>633.4000244140625</ele>
        <time>2026-08-21T22:44:51.000Z</time>
        <extensions>
          <ns3:TrackPointExtension>
            <ns3:hr>139</ns3:hr>
            <ns3:cad>49</ns3:cad>
          </ns3:TrackPointExtension>
        </extensions>
      </trkpt>
      <trkpt lat="45.31853989697992801666259765625" lon="-71.06209703721106052398681640625">
        <ele>633.4000244140625</ele>
        <time>2026-08-21T22:44:52.000Z</time>
        <extensions>
          <ns3:TrackPointExtension>
            <ns3:hr>138</ns3:hr>
            <ns3:cad>49</ns3:cad>
          </ns3:TrackPointExtension>
        </extensions>
      </trkpt>
      <trkpt lat="45.3185372985899448394775390625" lon="-71.06208748184144496917724609375">
        <ele>633.5999755859375</ele>
        <time>2026-08-21T22:44:53.000Z</time>
        <extensions>
          <ns3:TrackPointExtension>
            <ns3:hr>138</ns3:hr>
            <ns3:cad>49</ns3:cad>
          </ns3:TrackPointExtension>
        </extensions>
      </trkpt>
      <trkpt lat="45.31853201799094676971435546875" lon="-71.06207608245313167572021484375">
        <ele>633.79998779296875</ele>
        <time>2026-08-21T22:44:54.000Z</time>
        <extensions>
          <ns3:TrackPointExtension>
            <ns3:hr>138</ns3:hr>
            <ns3:cad>49</ns3:cad>
          </ns3:TrackPointExtension>
        </extensions>
      </trkpt>
      <trkpt lat="45.318524725735187530517578125" lon="-71.06206149794161319732666015625">
        <ele>634</ele>
        <time>2026-08-21T22:44:55.000Z</time>
        <extensions>
          <ns3:TrackPointExtension>
            <ns3:hr>138</ns3:hr>
            <ns3:cad>48</ns3:cad>
          </ns3:TrackPointExtension>
        </extensions>
      </trkpt>
      <trkpt lat="45.31851927749812602996826171875" lon="-71.06204641051590442657470703125">
        <ele>634.20001220703125</ele>
        <time>2026-08-21T22:44:56.000Z</time>
        <extensions>
          <ns3:TrackPointExtension>
            <ns3:hr>138</ns3:hr>
            <ns3:cad>48</ns3:cad>
          </ns3:TrackPointExtension>
        </extensions>
      </trkpt>
      <trkpt lat="45.3185109794139862060546875" lon="-71.06202998198568820953369140625">
        <ele>634.4000244140625</ele>
        <time>2026-08-21T22:44:57.000Z</time>
        <extensions>
          <ns3:TrackPointExtension>
            <ns3:hr>138</ns3:hr>
            <ns3:cad>48</ns3:cad>
          </ns3:TrackPointExtension>
        </extensions>
      </trkpt>
      <trkpt lat="45.3185041062533855438232421875" lon="-71.06201875023543834686279296875">
        <ele>634.79998779296875</ele>
        <time>2026-08-21T22:44:58.000Z</time>
        <extensions>
          <ns3:TrackPointExtension>
            <ns3:hr>138</ns3:hr>
            <ns3:cad>48</ns3:cad>
          </ns3:TrackPointExtension>
        </extensions>
      </trkpt>
      <trkpt lat="45.318496227264404296875" lon="-71.062008775770664215087890625">
        <ele>634.79998779296875</ele>
        <time>2026-08-21T22:44:59.000Z</time>
        <extensions>
          <ns3:TrackPointExtension>
            <ns3:hr>138</ns3:hr>
            <ns3:cad>48</ns3:cad>
          </ns3:TrackPointExtension>
        </extensions>
      </trkpt>
      <trkpt lat="45.31848751008510589599609375" lon="-71.0619925148785114288330078125">
        <ele>635.20001220703125</ele>
        <time>2026-08-21T22:45:00.000Z</time>
        <extensions>
          <ns3:TrackPointExtension>
            <ns3:hr>138</ns3:hr>
            <ns3:cad>48</ns3:cad>
          </ns3:TrackPointExtension>
        </extensions>
      </trkpt>
      <trkpt lat="45.31848306767642498016357421875" lon="-71.06198094785213470458984375">
        <ele>635.20001220703125</ele>
        <time>2026-08-21T22:45:01.000Z</time>
        <extensions>
          <ns3:TrackPointExtension>
            <ns3:hr>138</ns3:hr>
            <ns3:cad>48</ns3:cad>
          </ns3:TrackPointExtension>
        </extensions>
      </trkpt>
      <trkpt lat="45.3184779547154903411865234375" lon="-71.06196351349353790283203125">
        <ele>635.4000244140625</ele>
        <time>2026-08-21T22:45:02.000Z</time>
        <extensions>
          <ns3:TrackPointExtension>
            <ns3:hr>138</ns3:hr>
            <ns3:cad>48</ns3:cad>
          </ns3:TrackPointExtension>
        </extensions>
      </trkpt>
      <trkpt lat="45.31847250647842884063720703125" lon="-71.06195119209587574005126953125">
        <ele>635.5999755859375</ele>
        <time>2026-08-21T22:45:03.000Z</time>
        <extensions>
          <ns3:TrackPointExtension>
            <ns3:hr>138</ns3:hr>
            <ns3:cad>48</ns3:cad>
          </ns3:TrackPointExtension>
        </extensions>
      </trkpt>
      <trkpt lat="45.31846697442233562469482421875" lon="-71.06193727813661098480224609375">
        <ele>635.79998779296875</ele>
        <time>2026-08-21T22:45:04.000Z</time>
        <extensions>
          <ns3:TrackPointExtension>
            <ns3:hr>138</ns3:hr>
            <ns3:cad>48</ns3:cad>
          </ns3:TrackPointExtension>
        </extensions>
      </trkpt>
      <trkpt lat="45.31846278347074985504150390625" lon="-71.0619247891008853912353515625">
        <ele>636</ele>
        <time>2026-08-21T22:45:05.000Z</time>
        <extensions>
          <ns3:TrackPointExtension>
            <ns3:hr>138</ns3:hr>
            <ns3:cad>48</ns3:cad>
          </ns3:TrackPointExtension>
        </extensions>
      </trkpt>
      <trkpt lat="45.3184564970433712005615234375" lon="-71.06191657483577728271484375">
        <ele>636.20001220703125</ele>
        <time>2026-08-21T22:45:06.000Z</time>
        <extensions>
          <ns3:TrackPointExtension>
            <ns3:hr>138</ns3:hr>
            <ns3:cad>48</ns3:cad>
          </ns3:TrackPointExtension>
        </extensions>
      </trkpt>
      <trkpt lat="45.31845054589211940765380859375" lon="-71.06190710328519344329833984375">
        <ele>636.4000244140625</ele>
        <time>2026-08-21T22:45:07.000Z</time>
        <extensions>
          <ns3:TrackPointExtension>
            <ns3:hr>138</ns3:hr>
            <ns3:cad>48</ns3:cad>
          </ns3:TrackPointExtension>
        </extensions>
      </trkpt>
      <trkpt lat="45.3184477798640727996826171875" lon="-71.0618946142494678497314453125">
        <ele>636.5999755859375</ele>
        <time>2026-08-21T22:45:08.000Z</time>
        <extensions>
          <ns3:TrackPointExtension>
            <ns3:hr>138</ns3:hr>
            <ns3:cad>48</ns3:cad>
          </ns3:TrackPointExtension>
        </extensions>
      </trkpt>
      <trkpt lat="45.31844099052250385284423828125" lon="-71.06188564561307430267333984375">
        <ele>636.79998779296875</ele>
        <time>2026-08-21T22:45:09.000Z</time>
        <extensions>
          <ns3:TrackPointExtension>
            <ns3:hr>138</ns3:hr>
            <ns3:cad>47</ns3:cad>
          </ns3:TrackPointExtension>
        </extensions>
      </trkpt>
      <trkpt lat="45.31843788921833038330078125" lon="-71.06187374331057071685791015625">
        <ele>637</ele>
        <time>2026-08-21T22:45:10.000Z</time>
        <extensions>
          <ns3:TrackPointExtension>
            <ns3:hr>139</ns3:hr>
            <ns3:cad>47</ns3:cad>
          </ns3:TrackPointExtension>
        </extensions>
      </trkpt>
      <trkpt lat="45.31843327917158603668212890625" lon="-71.0618661157786846160888671875">
        <ele>637.20001220703125</ele>
        <time>2026-08-21T22:45:11.000Z</time>
        <extensions>
          <ns3:TrackPointExtension>
            <ns3:hr>139</ns3:hr>
            <ns3:cad>46</ns3:cad>
          </ns3:TrackPointExtension>
        </extensions>
      </trkpt>
      <trkpt lat="45.3184256516396999359130859375" lon="-71.06185178272426128387451171875">
        <ele>637.4000244140625</ele>
        <time>2026-08-21T22:45:12.000Z</time>
        <extensions>
          <ns3:TrackPointExtension>
            <ns3:hr>140</ns3:hr>
            <ns3:cad>46</ns3:cad>
          </ns3:TrackPointExtension>
        </extensions>
      </trkpt>
      <trkpt lat="45.31841902993619441986083984375" lon="-71.061837114393711090087890625">
        <ele>637.5999755859375</ele>
        <time>2026-08-21T22:45:13.000Z</time>
        <extensions>
          <ns3:TrackPointExtension>
            <ns3:hr>140</ns3:hr>
            <ns3:cad>46</ns3:cad>
          </ns3:TrackPointExtension>
        </extensions>
      </trkpt>
      <trkpt lat="45.31841316260397434234619140625" lon="-71.06182730756700038909912109375">
        <ele>637.79998779296875</ele>
        <time>2026-08-21T22:45:14.000Z</time>
        <extensions>
          <ns3:TrackPointExtension>
            <ns3:hr>141</ns3:hr>
            <ns3:cad>46</ns3:cad>
          </ns3:TrackPointExtension>
        </extensions>
      </trkpt>
      <trkpt lat="45.31840578652918338775634765625" lon="-71.0618141479790210723876953125">
        <ele>638.20001220703125</ele>
        <time>2026-08-21T22:45:15.000Z</time>
        <extensions>
          <ns3:TrackPointExtension>
            <ns3:hr>141</ns3:hr>
            <ns3:cad>46</ns3:cad>
          </ns3:TrackPointExtension>
        </extensions>
      </trkpt>
      <trkpt lat="45.31840176321566104888916015625" lon="-71.06180735863745212554931640625">
        <ele>638.4000244140625</ele>
        <time>2026-08-21T22:45:16.000Z</time>
        <extensions>
          <ns3:TrackPointExtension>
            <ns3:hr>142</ns3:hr>
            <ns3:cad>46</ns3:cad>
          </ns3:TrackPointExtension>
        </extensions>
      </trkpt>
      <trkpt lat="45.31839371658861637115478515625" lon="-71.06179377995431423187255859375">
        <ele>638.4000244140625</ele>
        <time>2026-08-21T22:45:17.000Z</time>
        <extensions>
          <ns3:TrackPointExtension>
            <ns3:hr>142</ns3:hr>
            <ns3:cad>46</ns3:cad>
          </ns3:TrackPointExtension>
        </extensions>
      </trkpt>
      <trkpt lat="45.3183867596089839935302734375" lon="-71.06178321875631809234619140625">
        <ele>638.5999755859375</ele>
        <time>2026-08-21T22:45:18.000Z</time>
        <extensions>
          <ns3:TrackPointExtension>
            <ns3:hr>143</ns3:hr>
            <ns3:cad>47</ns3:cad>
          </ns3:TrackPointExtension>
        </extensions>
      </trkpt>
      <trkpt lat="45.31838047318160533905029296875" lon="-71.06177064590156078338623046875">
        <ele>638.79998779296875</ele>
        <time>2026-08-21T22:45:19.000Z</time>
        <extensions>
          <ns3:TrackPointExtension>
            <ns3:hr>143</ns3:hr>
            <ns3:cad>47</ns3:cad>
          </ns3:TrackPointExtension>
        </extensions>
      </trkpt>
      <trkpt lat="45.31837661750614643096923828125" lon="-71.0617581568658351898193359375">
        <ele>639</ele>
        <time>2026-08-21T22:45:20.000Z</time>
        <extensions>
          <ns3:TrackPointExtension>
            <ns3:hr>142</ns3:hr>
            <ns3:cad>47</ns3:cad>
          </ns3:TrackPointExtension>
        </extensions>
      </trkpt>
      <trkpt lat="45.31836974434554576873779296875" lon="-71.06174449436366558074951171875">
        <ele>639.20001220703125</ele>
        <time>2026-08-21T22:45:21.000Z</time>
        <extensions>
          <ns3:TrackPointExtension>
            <ns3:hr>142</ns3:hr>
            <ns3:cad>44</ns3:cad>
          </ns3:TrackPointExtension>
        </extensions>
      </trkpt>
      <trkpt lat="45.31836203299462795257568359375" lon="-71.0617323406040668487548828125">
        <ele>639.4000244140625</ele>
        <time>2026-08-21T22:45:22.000Z</time>
        <extensions>
          <ns3:TrackPointExtension>
            <ns3:hr>141</ns3:hr>
            <ns3:cad>44</ns3:cad>
          </ns3:TrackPointExtension>
        </extensions>
      </trkpt>
      <trkpt lat="45.31835834495723247528076171875" lon="-71.06171985156834125518798828125">
        <ele>639.5999755859375</ele>
        <time>2026-08-21T22:45:23.000Z</time>
        <extensions>
          <ns3:TrackPointExtension>
            <ns3:hr>141</ns3:hr>
            <ns3:cad>44</ns3:cad>
          </ns3:TrackPointExtension>
        </extensions>
      </trkpt>
      <trkpt lat="45.318348705768585205078125" lon="-71.06170057319104671478271484375">
        <ele>639.79998779296875</ele>
        <time>2026-08-21T22:45:24.000Z</time>
        <extensions>
          <ns3:TrackPointExtension>
            <ns3:hr>141</ns3:hr>
            <ns3:cad>44</ns3:cad>
          </ns3:TrackPointExtension>
        </extensions>
      </trkpt>
      <trkpt lat="45.31834669411182403564453125" lon="-71.06168783269822597503662109375">
        <ele>640</ele>
        <time>2026-08-21T22:45:25.000Z</time>
        <extensions>
          <ns3:TrackPointExtension>
            <ns3:hr>142</ns3:hr>
            <ns3:cad>47</ns3:cad>
          </ns3:TrackPointExtension>
        </extensions>
      </trkpt>
      <trkpt lat="45.31834275461733341217041015625" lon="-71.06167383491992950439453125">
        <ele>640.20001220703125</ele>
        <time>2026-08-21T22:45:26.000Z</time>
        <extensions>
          <ns3:TrackPointExtension>
            <ns3:hr>142</ns3:hr>
            <ns3:cad>46</ns3:cad>
          </ns3:TrackPointExtension>
        </extensions>
      </trkpt>
      <trkpt lat="45.3183321096003055572509765625" lon="-71.06166620738804340362548828125">
        <ele>640.4000244140625</ele>
        <time>2026-08-21T22:45:27.000Z</time>
        <extensions>
          <ns3:TrackPointExtension>
            <ns3:hr>141</ns3:hr>
            <ns3:cad>46</ns3:cad>
          </ns3:TrackPointExtension>
        </extensions>
      </trkpt>
      <trkpt lat="45.3183267451822757720947265625" lon="-71.06165849603712558746337890625">
        <ele>640.5999755859375</ele>
        <time>2026-08-21T22:45:28.000Z</time>
        <extensions>
          <ns3:TrackPointExtension>
            <ns3:hr>141</ns3:hr>
            <ns3:cad>45</ns3:cad>
          </ns3:TrackPointExtension>
        </extensions>
      </trkpt>
      <trkpt lat="45.31832397915422916412353515625" lon="-71.06165212579071521759033203125">
        <ele>640.79998779296875</ele>
        <time>2026-08-21T22:45:29.000Z</time>
        <extensions>
          <ns3:TrackPointExtension>
            <ns3:hr>140</ns3:hr>
            <ns3:cad>45</ns3:cad>
          </ns3:TrackPointExtension>
        </extensions>
      </trkpt>
      <trkpt lat="45.3183193691074848175048828125" lon="-71.06163972057402133941650390625">
        <ele>641</ele>
        <time>2026-08-21T22:45:30.000Z</time>
        <extensions>
          <ns3:TrackPointExtension>
            <ns3:hr>140</ns3:hr>
            <ns3:cad>45</ns3:cad>
          </ns3:TrackPointExtension>
        </extensions>
      </trkpt>
      <trkpt lat="45.31831048429012298583984375" lon="-71.0616213642060756683349609375">
        <ele>641.20001220703125</ele>
        <time>2026-08-21T22:45:31.000Z</time>
        <extensions>
          <ns3:TrackPointExtension>
            <ns3:hr>139</ns3:hr>
            <ns3:cad>45</ns3:cad>
          </ns3:TrackPointExtension>
        </extensions>
      </trkpt>
      <trkpt lat="45.31830243766307830810546875" lon="-71.06160937808454036712646484375">
        <ele>641.4000244140625</ele>
        <time>2026-08-21T22:45:32.000Z</time>
        <extensions>
          <ns3:TrackPointExtension>
            <ns3:hr>140</ns3:hr>
            <ns3:cad>45</ns3:cad>
          </ns3:TrackPointExtension>
        </extensions>
      </trkpt>
      <trkpt lat="45.3182952292263507843017578125" lon="-71.06160317547619342803955078125">
        <ele>641.5999755859375</ele>
        <time>2026-08-21T22:45:33.000Z</time>
        <extensions>
          <ns3:TrackPointExtension>
            <ns3:hr>140</ns3:hr>
            <ns3:cad>46</ns3:cad>
          </ns3:TrackPointExtension>
        </extensions>
      </trkpt>
      <trkpt lat="45.3182888589799404144287109375" lon="-71.061595045030117034912109375">
        <ele>641.79998779296875</ele>
        <time>2026-08-21T22:45:34.000Z</time>
        <extensions>
          <ns3:TrackPointExtension>
            <ns3:hr>141</ns3:hr>
            <ns3:cad>46</ns3:cad>
          </ns3:TrackPointExtension>
        </extensions>
      </trkpt>
      <trkpt lat="45.318279974162578582763671875" lon="-71.0615821368992328643798828125">
        <ele>642</ele>
        <time>2026-08-21T22:45:35.000Z</time>
        <extensions>
          <ns3:TrackPointExtension>
            <ns3:hr>141</ns3:hr>
            <ns3:cad>48</ns3:cad>
          </ns3:TrackPointExtension>
        </extensions>
      </trkpt>
      <trkpt lat="45.31827469356358051300048828125" lon="-71.06156813912093639373779296875">
        <ele>642.20001220703125</ele>
        <time>2026-08-21T22:45:36.000Z</time>
        <extensions>
          <ns3:TrackPointExtension>
            <ns3:hr>141</ns3:hr>
            <ns3:cad>48</ns3:cad>
          </ns3:TrackPointExtension>
        </extensions>
      </trkpt>
      <trkpt lat="45.3182663954794406890869140625" lon="-71.061552800238132476806640625">
        <ele>642.4000244140625</ele>
        <time>2026-08-21T22:45:37.000Z</time>
        <extensions>
          <ns3:TrackPointExtension>
            <ns3:hr>141</ns3:hr>
            <ns3:cad>48</ns3:cad>
          </ns3:TrackPointExtension>
        </extensions>
      </trkpt>
      <trkpt lat="45.31825776211917400360107421875" lon="-71.0615430772304534912109375">
        <ele>642.5999755859375</ele>
        <time>2026-08-21T22:45:38.000Z</time>
        <extensions>
          <ns3:TrackPointExtension>
            <ns3:hr>141</ns3:hr>
            <ns3:cad>48</ns3:cad>
          </ns3:TrackPointExtension>
        </extensions>
      </trkpt>
      <trkpt lat="45.31824820674955844879150390625" lon="-71.0615301690995693206787109375">
        <ele>642.79998779296875</ele>
        <time>2026-08-21T22:45:39.000Z</time>
        <extensions>
          <ns3:TrackPointExtension>
            <ns3:hr>141</ns3:hr>
            <ns3:cad>48</ns3:cad>
          </ns3:TrackPointExtension>
        </extensions>
      </trkpt>
      <trkpt lat="45.318237058818340301513671875" lon="-71.06152170337736606597900390625">
        <ele>643</ele>
        <time>2026-08-21T22:45:40.000Z</time>
        <extensions>
          <ns3:TrackPointExtension>
            <ns3:hr>142</ns3:hr>
            <ns3:cad>47</ns3:cad>
          </ns3:TrackPointExtension>
        </extensions>
      </trkpt>
      <trkpt lat="45.31823337078094482421875" lon="-71.06151130981743335723876953125">
        <ele>643.20001220703125</ele>
        <time>2026-08-21T22:45:41.000Z</time>
        <extensions>
          <ns3:TrackPointExtension>
            <ns3:hr>142</ns3:hr>
            <ns3:cad>47</ns3:cad>
          </ns3:TrackPointExtension>
        </extensions>
      </trkpt>
      <trkpt lat="45.318227671086788177490234375" lon="-71.06150686740875244140625">
        <ele>643.4000244140625</ele>
        <time>2026-08-21T22:45:42.000Z</time>
        <extensions>
          <ns3:TrackPointExtension>
            <ns3:hr>143</ns3:hr>
            <ns3:cad>47</ns3:cad>
          </ns3:TrackPointExtension>
        </extensions>
      </trkpt>
      <trkpt lat="45.31821769662201404571533203125" lon="-71.06149940751492977142333984375">
        <ele>643.5999755859375</ele>
        <time>2026-08-21T22:45:43.000Z</time>
        <extensions>
          <ns3:TrackPointExtension>
            <ns3:hr>143</ns3:hr>
            <ns3:cad>45</ns3:cad>
          </ns3:TrackPointExtension>
        </extensions>
      </trkpt>
      <trkpt lat="45.31820562668144702911376953125" lon="-71.06148742139339447021484375">
        <ele>643.79998779296875</ele>
        <time>2026-08-21T22:45:44.000Z</time>
        <extensions>
          <ns3:TrackPointExtension>
            <ns3:hr>144</ns3:hr>
            <ns3:cad>45</ns3:cad>
          </ns3:TrackPointExtension>
        </extensions>
      </trkpt>
      <trkpt lat="45.31819523312151432037353515625" lon="-71.061482392251491546630859375">
        <ele>644</ele>
        <time>2026-08-21T22:45:45.000Z</time>
        <extensions>
          <ns3:TrackPointExtension>
            <ns3:hr>144</ns3:hr>
            <ns3:cad>47</ns3:cad>
          </ns3:TrackPointExtension>
        </extensions>
      </trkpt>
      <trkpt lat="45.31818835996091365814208984375" lon="-71.0614768601953983306884765625">
        <ele>644.20001220703125</ele>
        <time>2026-08-21T22:45:46.000Z</time>
        <extensions>
          <ns3:TrackPointExtension>
            <ns3:hr>143</ns3:hr>
            <ns3:cad>47</ns3:cad>
          </ns3:TrackPointExtension>
        </extensions>
      </trkpt>
      <trkpt lat="45.3181783854961395263671875" lon="-71.0614684782922267913818359375">
        <ele>644.4000244140625</ele>
        <time>2026-08-21T22:45:47.000Z</time>
        <extensions>
          <ns3:TrackPointExtension>
            <ns3:hr>143</ns3:hr>
            <ns3:cad>47</ns3:cad>
          </ns3:TrackPointExtension>
        </extensions>
      </trkpt>
      <trkpt lat="45.31816639937460422515869140625" lon="-71.061461605131626129150390625">
        <ele>644.5999755859375</ele>
        <time>2026-08-21T22:45:48.000Z</time>
        <extensions>
          <ns3:TrackPointExtension>
            <ns3:hr>143</ns3:hr>
            <ns3:cad>47</ns3:cad>
          </ns3:TrackPointExtension>
        </extensions>
      </trkpt>
      <trkpt lat="45.3181530721485614776611328125" lon="-71.06145414523780345916748046875">
        <ele>644.79998779296875</ele>
        <time>2026-08-21T22:45:49.000Z</time>
        <extensions>
          <ns3:TrackPointExtension>
            <ns3:hr>143</ns3:hr>
            <ns3:cad>47</ns3:cad>
          </ns3:TrackPointExtension>
        </extensions>
      </trkpt>
      <trkpt lat="45.31814242713153362274169921875" lon="-71.06145213358104228973388671875">
        <ele>645</ele>
        <time>2026-08-21T22:45:50.000Z</time>
        <extensions>
          <ns3:TrackPointExtension>
            <ns3:hr>143</ns3:hr>
            <ns3:cad>47</ns3:cad>
          </ns3:TrackPointExtension>
        </extensions>
      </trkpt>
      <trkpt lat="45.31813521869480609893798828125" lon="-71.0614490322768688201904296875">
        <ele>645.20001220703125</ele>
        <time>2026-08-21T22:45:51.000Z</time>
        <extensions>
          <ns3:TrackPointExtension>
            <ns3:hr>142</ns3:hr>
            <ns3:cad>47</ns3:cad>
          </ns3:TrackPointExtension>
        </extensions>
      </trkpt>
      <trkpt lat="45.31812398694455623626708984375" lon="-71.0614440031349658966064453125">
        <ele>645.4000244140625</ele>
        <time>2026-08-21T22:45:52.000Z</time>
        <extensions>
          <ns3:TrackPointExtension>
            <ns3:hr>142</ns3:hr>
            <ns3:cad>47</ns3:cad>
          </ns3:TrackPointExtension>
        </extensions>
      </trkpt>
      <trkpt lat="45.3181094862520694732666015625" lon="-71.0614384710788726806640625">
        <ele>645.5999755859375</ele>
        <time>2026-08-21T22:45:53.000Z</time>
        <extensions>
          <ns3:TrackPointExtension>
            <ns3:hr>142</ns3:hr>
            <ns3:cad>47</ns3:cad>
          </ns3:TrackPointExtension>
        </extensions>
      </trkpt>
      <trkpt lat="45.3180979192256927490234375" lon="-71.0614326037466526031494140625">
        <ele>645.79998779296875</ele>
        <time>2026-08-21T22:45:54.000Z</time>
        <extensions>
          <ns3:TrackPointExtension>
            <ns3:hr>142</ns3:hr>
            <ns3:cad>45</ns3:cad>
          </ns3:TrackPointExtension>
        </extensions>
      </trkpt>
      <trkpt lat="45.3180886991322040557861328125" lon="-71.0614299215376377105712890625">
        <ele>646.20001220703125</ele>
        <time>2026-08-21T22:45:55.000Z</time>
        <extensions>
          <ns3:TrackPointExtension>
            <ns3:hr>143</ns3:hr>
            <ns3:cad>45</ns3:cad>
          </ns3:TrackPointExtension>
        </extensions>
      </trkpt>
      <trkpt lat="45.3180786408483982086181640625" lon="-71.0614250600337982177734375">
        <ele>646.4000244140625</ele>
        <time>2026-08-21T22:45:56.000Z</time>
        <extensions>
          <ns3:TrackPointExtension>
            <ns3:hr>143</ns3:hr>
            <ns3:cad>45</ns3:cad>
          </ns3:TrackPointExtension>
        </extensions>
      </trkpt>
      <trkpt lat="45.3180665709078311920166015625" lon="-71.061418019235134124755859375">
        <ele>646.5999755859375</ele>
        <time>2026-08-21T22:45:57.000Z</time>
        <extensions>
          <ns3:TrackPointExtension>
            <ns3:hr>143</ns3:hr>
            <ns3:cad>45</ns3:cad>
          </ns3:TrackPointExtension>
        </extensions>
      </trkpt>
      <trkpt lat="45.3180575184524059295654296875" lon="-71.06141475029289722442626953125">
        <ele>646.79998779296875</ele>
        <time>2026-08-21T22:45:58.000Z</time>
        <extensions>
          <ns3:TrackPointExtension>
            <ns3:hr>143</ns3:hr>
            <ns3:cad>45</ns3:cad>
          </ns3:TrackPointExtension>
        </extensions>
      </trkpt>
      <trkpt lat="45.31804938800632953643798828125" lon="-71.06141156516969203948974609375">
        <ele>647</ele>
        <time>2026-08-21T22:45:59.000Z</time>
        <extensions>
          <ns3:TrackPointExtension>
            <ns3:hr>143</ns3:hr>
            <ns3:cad>46</ns3:cad>
          </ns3:TrackPointExtension>
        </extensions>
      </trkpt>
      <trkpt lat="45.318039245903491973876953125" lon="-71.0614089667797088623046875">
        <ele>647.20001220703125</ele>
        <time>2026-08-21T22:46:00.000Z</time>
        <extensions>
          <ns3:TrackPointExtension>
            <ns3:hr>143</ns3:hr>
            <ns3:cad>46</ns3:cad>
          </ns3:TrackPointExtension>
        </extensions>
      </trkpt>
      <trkpt lat="45.318028517067432403564453125" lon="-71.06140586547553539276123046875">
        <ele>647.4000244140625</ele>
        <time>2026-08-21T22:46:01.000Z</time>
        <extensions>
          <ns3:TrackPointExtension>
            <ns3:hr>143</ns3:hr>
            <ns3:cad>45</ns3:cad>
          </ns3:TrackPointExtension>
        </extensions>
      </trkpt>
      <trkpt lat="45.3180229850113391876220703125" lon="-71.06140293180942535400390625">
        <ele>647.5999755859375</ele>
        <time>2026-08-21T22:46:02.000Z</time>
        <extensions>
          <ns3:TrackPointExtension>
            <ns3:hr>144</ns3:hr>
            <ns3:cad>45</ns3:cad>
          </ns3:TrackPointExtension>
        </extensions>
      </trkpt>
      <trkpt lat="45.31801946461200714111328125" lon="-71.06139899231493473052978515625">
        <ele>647.79998779296875</ele>
        <time>2026-08-21T22:46:03.000Z</time>
        <extensions>
          <ns3:TrackPointExtension>
            <ns3:hr>144</ns3:hr>
            <ns3:cad>45</ns3:cad>
          </ns3:TrackPointExtension>
        </extensions>
      </trkpt>
      <trkpt lat="45.31801016069948673248291015625" lon="-71.06139622628688812255859375">
        <ele>648</ele>
        <time>2026-08-21T22:46:04.000Z</time>
        <extensions>
          <ns3:TrackPointExtension>
            <ns3:hr>144</ns3:hr>
            <ns3:cad>43</ns3:cad>
          </ns3:TrackPointExtension>
        </extensions>
      </trkpt>
      <trkpt lat="45.31800865195691585540771484375" lon="-71.0613890178501605987548828125">
        <ele>648.20001220703125</ele>
        <time>2026-08-21T22:46:05.000Z</time>
        <extensions>
          <ns3:TrackPointExtension>
            <ns3:hr>144</ns3:hr>
            <ns3:cad>43</ns3:cad>
          </ns3:TrackPointExtension>
        </extensions>
      </trkpt>
      <trkpt lat="45.3180001862347126007080078125" lon="-71.0613816417753696441650390625">
        <ele>648.4000244140625</ele>
        <time>2026-08-21T22:46:06.000Z</time>
        <extensions>
          <ns3:TrackPointExtension>
            <ns3:hr>144</ns3:hr>
            <ns3:cad>43</ns3:cad>
          </ns3:TrackPointExtension>
        </extensions>
      </trkpt>
      <trkpt lat="45.31798853538930416107177734375" lon="-71.0613756068050861358642578125">
        <ele>648.5999755859375</ele>
        <time>2026-08-21T22:46:07.000Z</time>
        <extensions>
          <ns3:TrackPointExtension>
            <ns3:hr>143</ns3:hr>
            <ns3:cad>43</ns3:cad>
          </ns3:TrackPointExtension>
        </extensions>
      </trkpt>
      <trkpt lat="45.3179773874580860137939453125" lon="-71.06137401424348354339599609375">
        <ele>648.79998779296875</ele>
        <time>2026-08-21T22:46:08.000Z</time>
        <extensions>
          <ns3:TrackPointExtension>
            <ns3:hr>143</ns3:hr>
            <ns3:cad>43</ns3:cad>
          </ns3:TrackPointExtension>
        </extensions>
      </trkpt>
      <trkpt lat="45.31796741299331188201904296875" lon="-71.0613742657005786895751953125">
        <ele>649</ele>
        <time>2026-08-21T22:46:09.000Z</time>
        <extensions>
          <ns3:TrackPointExtension>
            <ns3:hr>144</ns3:hr>
            <ns3:cad>0</ns3:cad>
          </ns3:TrackPointExtension>
        </extensions>
      </trkpt>
      <trkpt lat="45.3179555945098400115966796875" lon="-71.0613709129393100738525390625">
        <ele>649.20001220703125</ele>
        <time>2026-08-21T22:46:10.000Z</time>
        <extensions>
          <ns3:TrackPointExtension>
            <ns3:hr>143</ns3:hr>
            <ns3:cad>0</ns3:cad>
          </ns3:TrackPointExtension>
        </extensions>
      </trkpt>
      <trkpt lat="45.3179371543228626251220703125" lon="-71.06136546470224857330322265625">
        <ele>649.4000244140625</ele>
        <time>2026-08-21T22:46:11.000Z</time>
        <extensions>
          <ns3:TrackPointExtension>
            <ns3:hr>143</ns3:hr>
            <ns3:cad>0</ns3:cad>
          </ns3:TrackPointExtension>
        </extensions>
      </trkpt>
      <trkpt lat="45.31792868860065937042236328125" lon="-71.06136546470224857330322265625">
        <ele>649.5999755859375</ele>
        <time>2026-08-21T22:46:12.000Z</time>
        <extensions>
          <ns3:TrackPointExtension>
            <ns3:hr>143</ns3:hr>
            <ns3:cad>0</ns3:cad>
          </ns3:TrackPointExtension>
        </extensions>
      </trkpt>
      <trkpt lat="45.3179203905165195465087890625" lon="-71.0613608546555042266845703125">
        <ele>649.79998779296875</ele>
        <time>2026-08-21T22:46:13.000Z</time>
        <extensions>
          <ns3:TrackPointExtension>
            <ns3:hr>143</ns3:hr>
            <ns3:cad>0</ns3:cad>
          </ns3:TrackPointExtension>
        </extensions>
      </trkpt>
      <trkpt lat="45.31791192479431629180908203125" lon="-71.06135322712361812591552734375">
        <ele>650</ele>
        <time>2026-08-21T22:46:14.000Z</time>
        <extensions>
          <ns3:TrackPointExtension>
            <ns3:hr>143</ns3:hr>
            <ns3:cad>0</ns3:cad>
          </ns3:TrackPointExtension>
        </extensions>
      </trkpt>
      <trkpt lat="45.3178999386727809906005859375" lon="-71.0613553225994110107421875">
        <ele>650.20001220703125</ele>
        <time>2026-08-21T22:46:15.000Z</time>
        <extensions>
          <ns3:TrackPointExtension>
            <ns3:hr>144</ns3:hr>
            <ns3:cad>0</ns3:cad>
          </ns3:TrackPointExtension>
        </extensions>
      </trkpt>
      <trkpt lat="45.3178908862173557281494140625" lon="-71.0613564960658550262451171875">
        <ele>650.4000244140625</ele>
        <time>2026-08-21T22:46:16.000Z</time>
        <extensions>
          <ns3:TrackPointExtension>
            <ns3:hr>144</ns3:hr>
            <ns3:cad>0</ns3:cad>
          </ns3:TrackPointExtension>
        </extensions>
      </trkpt>
      <trkpt lat="45.317885689437389373779296875" lon="-71.06135590933263301849365234375">
        <ele>650.5999755859375</ele>
        <time>2026-08-21T22:46:17.000Z</time>
        <extensions>
          <ns3:TrackPointExtension>
            <ns3:hr>144</ns3:hr>
            <ns3:cad>0</ns3:cad>
          </ns3:TrackPointExtension>
        </extensions>
      </trkpt>
      <trkpt lat="45.317880325019359588623046875" lon="-71.0613504610955715179443359375">
        <ele>650.79998779296875</ele>
        <time>2026-08-21T22:46:18.000Z</time>
        <extensions>
          <ns3:TrackPointExtension>
            <ns3:hr>144</ns3:hr>
            <ns3:cad>0</ns3:cad>
          </ns3:TrackPointExtension>
        </extensions>
      </trkpt>
      <trkpt lat="45.31787521205842494964599609375" lon="-71.0613497905433177947998046875">
        <ele>651</ele>
        <time>2026-08-21T22:46:19.000Z</time>
        <extensions>
          <ns3:TrackPointExtension>
            <ns3:hr>144</ns3:hr>
            <ns3:cad>0</ns3:cad>
          </ns3:TrackPointExtension>
        </extensions>
      </trkpt>
      <trkpt lat="45.31786666251718997955322265625" lon="-71.0613511316478252410888671875">
        <ele>651.20001220703125</ele>
        <time>2026-08-21T22:46:20.000Z</time>
        <extensions>
          <ns3:TrackPointExtension>
            <ns3:hr>144</ns3:hr>
            <ns3:cad>0</ns3:cad>
          </ns3:TrackPointExtension>
        </extensions>
      </trkpt>
      <trkpt lat="45.317857526242733001708984375" lon="-71.06134870089590549468994140625">
        <ele>651.4000244140625</ele>
        <time>2026-08-21T22:46:21.000Z</time>
        <extensions>
          <ns3:TrackPointExtension>
            <ns3:hr>144</ns3:hr>
            <ns3:cad>41</ns3:cad>
          </ns3:TrackPointExtension>
        </extensions>
      </trkpt>
      <trkpt lat="45.31784805469214916229248046875" lon="-71.06134886853396892547607421875">
        <ele>651.5999755859375</ele>
        <time>2026-08-21T22:46:22.000Z</time>
        <extensions>
          <ns3:TrackPointExtension>
            <ns3:hr>144</ns3:hr>
            <ns3:cad>41</ns3:cad>
          </ns3:TrackPointExtension>
        </extensions>
      </trkpt>
      <trkpt lat="45.31784403137862682342529296875" lon="-71.0613494552671909332275390625">
        <ele>651.79998779296875</ele>
        <time>2026-08-21T22:46:23.000Z</time>
        <extensions>
          <ns3:TrackPointExtension>
            <ns3:hr>144</ns3:hr>
            <ns3:cad>43</ns3:cad>
          </ns3:TrackPointExtension>
        </extensions>
      </trkpt>
      <trkpt lat="45.31783732585608959197998046875" lon="-71.06135205365717411041259765625">
        <ele>652</ele>
        <time>2026-08-21T22:46:24.000Z</time>
        <extensions>
          <ns3:TrackPointExtension>
            <ns3:hr>144</ns3:hr>
            <ns3:cad>44</ns3:cad>
          </ns3:TrackPointExtension>
        </extensions>
      </trkpt>
      <trkpt lat="45.31782575882971286773681640625" lon="-71.0613521374762058258056640625">
        <ele>652.20001220703125</ele>
        <time>2026-08-21T22:46:25.000Z</time>
        <extensions>
          <ns3:TrackPointExtension>
            <ns3:hr>144</ns3:hr>
            <ns3:cad>44</ns3:cad>
          </ns3:TrackPointExtension>
        </extensions>
      </trkpt>
      <trkpt lat="45.31781637109816074371337890625" lon="-71.06134702451527118682861328125">
        <ele>652.4000244140625</ele>
        <time>2026-08-21T22:46:26.000Z</time>
        <extensions>
          <ns3:TrackPointExtension>
            <ns3:hr>144</ns3:hr>
            <ns3:cad>45</ns3:cad>
          </ns3:TrackPointExtension>
        </extensions>
      </trkpt>
      <trkpt lat="45.317810587584972381591796875" lon="-71.06134719215333461761474609375">
        <ele>652.5999755859375</ele>
        <time>2026-08-21T22:46:27.000Z</time>
        <extensions>
          <ns3:TrackPointExtension>
            <ns3:hr>144</ns3:hr>
            <ns3:cad>45</ns3:cad>
          </ns3:TrackPointExtension>
        </extensions>
      </trkpt>
      <trkpt lat="45.31780279241502285003662109375" lon="-71.061348617076873779296875">
        <ele>652.79998779296875</ele>
        <time>2026-08-21T22:46:28.000Z</time>
        <extensions>
          <ns3:TrackPointExtension>
            <ns3:hr>143</ns3:hr>
            <ns3:cad>45</ns3:cad>
          </ns3:TrackPointExtension>
        </extensions>
      </trkpt>
      <trkpt lat="45.317792482674121856689453125" lon="-71.06134350411593914031982421875">
        <ele>653</ele>
        <time>2026-08-21T22:46:29.000Z</time>
        <extensions>
          <ns3:TrackPointExtension>
            <ns3:hr>143</ns3:hr>
            <ns3:cad>45</ns3:cad>
          </ns3:TrackPointExtension>
        </extensions>
      </trkpt>
      <trkpt lat="45.31778435222804546356201171875" lon="-71.06134149245917797088623046875">
        <ele>653</ele>
        <time>2026-08-21T22:46:30.000Z</time>
        <extensions>
          <ns3:TrackPointExtension>
            <ns3:hr>144</ns3:hr>
            <ns3:cad>43</ns3:cad>
          </ns3:TrackPointExtension>
        </extensions>
      </trkpt>
      <trkpt lat="45.3177745454013347625732421875" lon="-71.06133931316435337066650390625">
        <ele>653.20001220703125</ele>
        <time>2026-08-21T22:46:31.000Z</time>
        <extensions>
          <ns3:TrackPointExtension>
            <ns3:hr>144</ns3:hr>
            <ns3:cad>43</ns3:cad>
          </ns3:TrackPointExtension>
        </extensions>
      </trkpt>
      <trkpt lat="45.31776105053722858428955078125" lon="-71.06133931316435337066650390625">
        <ele>653.4000244140625</ele>
        <time>2026-08-21T22:46:32.000Z</time>
        <extensions>
          <ns3:TrackPointExtension>
            <ns3:hr>143</ns3:hr>
            <ns3:cad>43</ns3:cad>
          </ns3:TrackPointExtension>
        </extensions>
      </trkpt>
      <trkpt lat="45.31775484792888164520263671875" lon="-71.0613373853266239166259765625">
        <ele>653.5999755859375</ele>
        <time>2026-08-21T22:46:33.000Z</time>
        <extensions>
          <ns3:TrackPointExtension>
            <ns3:hr>143</ns3:hr>
            <ns3:cad>44</ns3:cad>
          </ns3:TrackPointExtension>
        </extensions>
      </trkpt>
      <trkpt lat="45.31774914823472499847412109375" lon="-71.0613330267369747161865234375">
        <ele>653.79998779296875</ele>
        <time>2026-08-21T22:46:34.000Z</time>
        <extensions>
          <ns3:TrackPointExtension>
            <ns3:hr>144</ns3:hr>
            <ns3:cad>44</ns3:cad>
          </ns3:TrackPointExtension>
        </extensions>
      </trkpt>
      <trkpt lat="45.3177369944751262664794921875" lon="-71.06133176945149898529052734375">
        <ele>654</ele>
        <time>2026-08-21T22:46:35.000Z</time>
        <extensions>
          <ns3:TrackPointExtension>
            <ns3:hr>144</ns3:hr>
            <ns3:cad>41</ns3:cad>
          </ns3:TrackPointExtension>
        </extensions>
      </trkpt>
      <trkpt lat="45.31772266142070293426513671875" lon="-71.0613323561847209930419921875">
        <ele>654.20001220703125</ele>
        <time>2026-08-21T22:46:36.000Z</time>
        <extensions>
          <ns3:TrackPointExtension>
            <ns3:hr>144</ns3:hr>
            <ns3:cad>43</ns3:cad>
          </ns3:TrackPointExtension>
        </extensions>
      </trkpt>
      <trkpt lat="45.31771746464073657989501953125" lon="-71.06132908724248409271240234375">
        <ele>654.4000244140625</ele>
        <time>2026-08-21T22:46:37.000Z</time>
        <extensions>
          <ns3:TrackPointExtension>
            <ns3:hr>144</ns3:hr>
            <ns3:cad>43</ns3:cad>
          </ns3:TrackPointExtension>
        </extensions>
      </trkpt>
      <trkpt lat="45.31770966947078704833984375" lon="-71.061328835785388946533203125">
        <ele>654.5999755859375</ele>
        <time>2026-08-21T22:46:38.000Z</time>
        <extensions>
          <ns3:TrackPointExtension>
            <ns3:hr>143</ns3:hr>
            <ns3:cad>44</ns3:cad>
          </ns3:TrackPointExtension>
        </extensions>
      </trkpt>
      <trkpt lat="45.317701287567615509033203125" lon="-71.061328835785388946533203125">
        <ele>654.5999755859375</ele>
        <time>2026-08-21T22:46:39.000Z</time>
        <extensions>
          <ns3:TrackPointExtension>
            <ns3:hr>143</ns3:hr>
            <ns3:cad>44</ns3:cad>
          </ns3:TrackPointExtension>
        </extensions>
      </trkpt>
      <trkpt lat="45.3176944144070148468017578125" lon="-71.0613246448338031768798828125">
        <ele>654.79998779296875</ele>
        <time>2026-08-21T22:46:40.000Z</time>
        <extensions>
          <ns3:TrackPointExtension>
            <ns3:hr>143</ns3:hr>
            <ns3:cad>44</ns3:cad>
          </ns3:TrackPointExtension>
        </extensions>
      </trkpt>
      <trkpt lat="45.3176850266754627227783203125" lon="-71.0613179393112659454345703125">
        <ele>655</ele>
        <time>2026-08-21T22:46:41.000Z</time>
        <extensions>
          <ns3:TrackPointExtension>
            <ns3:hr>143</ns3:hr>
            <ns3:cad>0</ns3:cad>
          </ns3:TrackPointExtension>
        </extensions>
      </trkpt>
      <trkpt lat="45.31767186708748340606689453125" lon="-71.0613072104752063751220703125">
        <ele>655.20001220703125</ele>
        <time>2026-08-21T22:46:42.000Z</time>
        <extensions>
          <ns3:TrackPointExtension>
            <ns3:hr>142</ns3:hr>
            <ns3:cad>0</ns3:cad>
          </ns3:TrackPointExtension>
        </extensions>
      </trkpt>
      <trkpt lat="45.31766499392688274383544921875" lon="-71.061306037008762359619140625">
        <ele>655.4000244140625</ele>
        <time>2026-08-21T22:46:43.000Z</time>
        <extensions>
          <ns3:TrackPointExtension>
            <ns3:hr>142</ns3:hr>
            <ns3:cad>0</ns3:cad>
          </ns3:TrackPointExtension>
        </extensions>
      </trkpt>
      <trkpt lat="45.31765510328114032745361328125" lon="-71.0613035224378108978271484375">
        <ele>655.5999755859375</ele>
        <time>2026-08-21T22:46:44.000Z</time>
        <extensions>
          <ns3:TrackPointExtension>
            <ns3:hr>142</ns3:hr>
            <ns3:cad>0</ns3:cad>
          </ns3:TrackPointExtension>
        </extensions>
      </trkpt>
      <trkpt lat="45.3176484815776348114013671875" lon="-71.0612994991242885589599609375">
        <ele>655.79998779296875</ele>
        <time>2026-08-21T22:46:45.000Z</time>
        <extensions>
          <ns3:TrackPointExtension>
            <ns3:hr>142</ns3:hr>
            <ns3:cad>40</ns3:cad>
          </ns3:TrackPointExtension>
        </extensions>
      </trkpt>
      <trkpt lat="45.31764152459800243377685546875" lon="-71.06129757128655910491943359375">
        <ele>656</ele>
        <time>2026-08-21T22:46:46.000Z</time>
        <extensions>
          <ns3:TrackPointExtension>
            <ns3:hr>143</ns3:hr>
            <ns3:cad>40</ns3:cad>
          </ns3:TrackPointExtension>
        </extensions>
      </trkpt>
      <trkpt lat="45.31763532198965549468994140625" lon="-71.061293967068195343017578125">
        <ele>656.20001220703125</ele>
        <time>2026-08-21T22:46:47.000Z</time>
        <extensions>
          <ns3:TrackPointExtension>
            <ns3:hr>142</ns3:hr>
            <ns3:cad>40</ns3:cad>
          </ns3:TrackPointExtension>
        </extensions>
      </trkpt>
      <trkpt lat="45.31762157566845417022705078125" lon="-71.061294972896575927734375">
        <ele>656.4000244140625</ele>
        <time>2026-08-21T22:46:48.000Z</time>
        <extensions>
          <ns3:TrackPointExtension>
            <ns3:hr>142</ns3:hr>
            <ns3:cad>41</ns3:cad>
          </ns3:TrackPointExtension>
        </extensions>
      </trkpt>
      <trkpt lat="45.31761369667947292327880859375" lon="-71.061294972896575927734375">
        <ele>656.5999755859375</ele>
        <time>2026-08-21T22:46:49.000Z</time>
        <extensions>
          <ns3:TrackPointExtension>
            <ns3:hr>142</ns3:hr>
            <ns3:cad>41</ns3:cad>
          </ns3:TrackPointExtension>
        </extensions>
      </trkpt>
      <trkpt lat="45.31760497950017452239990234375" lon="-71.06129832565784454345703125">
        <ele>656.79998779296875</ele>
        <time>2026-08-21T22:46:50.000Z</time>
        <extensions>
          <ns3:TrackPointExtension>
            <ns3:hr>142</ns3:hr>
            <ns3:cad>42</ns3:cad>
          </ns3:TrackPointExtension>
        </extensions>
      </trkpt>
      <trkpt lat="45.31759542413055896759033203125" lon="-71.0613005049526691436767578125">
        <ele>657</ele>
        <time>2026-08-21T22:46:51.000Z</time>
        <extensions>
          <ns3:TrackPointExtension>
            <ns3:hr>142</ns3:hr>
            <ns3:cad>42</ns3:cad>
          </ns3:TrackPointExtension>
        </extensions>
      </trkpt>
      <trkpt lat="45.31758888624608516693115234375" lon="-71.061298660933971405029296875">
        <ele>657.20001220703125</ele>
        <time>2026-08-21T22:46:52.000Z</time>
        <extensions>
          <ns3:TrackPointExtension>
            <ns3:hr>143</ns3:hr>
            <ns3:cad>41</ns3:cad>
          </ns3:TrackPointExtension>
        </extensions>
      </trkpt>
      <trkpt lat="45.31757681630551815032958984375" lon="-71.061300002038478851318359375">
        <ele>657.4000244140625</ele>
        <time>2026-08-21T22:46:53.000Z</time>
        <extensions>
          <ns3:TrackPointExtension>
            <ns3:hr>142</ns3:hr>
            <ns3:cad>41</ns3:cad>
          </ns3:TrackPointExtension>
        </extensions>
      </trkpt>
      <trkpt lat="45.3175668418407440185546875" lon="-71.06129924766719341278076171875">
        <ele>657.5999755859375</ele>
        <time>2026-08-21T22:46:54.000Z</time>
        <extensions>
          <ns3:TrackPointExtension>
            <ns3:hr>142</ns3:hr>
            <ns3:cad>40</ns3:cad>
          </ns3:TrackPointExtension>
        </extensions>
      </trkpt>
      <trkpt lat="45.317559801042079925537109375" lon="-71.06129522435367107391357421875">
        <ele>657.79998779296875</ele>
        <time>2026-08-21T22:46:55.000Z</time>
        <extensions>
          <ns3:TrackPointExtension>
            <ns3:hr>142</ns3:hr>
            <ns3:cad>40</ns3:cad>
          </ns3:TrackPointExtension>
        </extensions>
      </trkpt>
      <trkpt lat="45.31755602918565273284912109375" lon="-71.06129606254398822784423828125">
        <ele>658</ele>
        <time>2026-08-21T22:46:56.000Z</time>
        <extensions>
          <ns3:TrackPointExtension>
            <ns3:hr>142</ns3:hr>
            <ns3:cad>40</ns3:cad>
          </ns3:TrackPointExtension>
        </extensions>
      </trkpt>
      <trkpt lat="45.31754613853991031646728515625" lon="-71.0612936317920684814453125">
        <ele>658.20001220703125</ele>
        <time>2026-08-21T22:46:57.000Z</time>
        <extensions>
          <ns3:TrackPointExtension>
            <ns3:hr>142</ns3:hr>
            <ns3:cad>41</ns3:cad>
          </ns3:TrackPointExtension>
        </extensions>
      </trkpt>
      <trkpt lat="45.3175364993512630462646484375" lon="-71.06129270978271961212158203125">
        <ele>658.4000244140625</ele>
        <time>2026-08-21T22:46:58.000Z</time>
        <extensions>
          <ns3:TrackPointExtension>
            <ns3:hr>143</ns3:hr>
            <ns3:cad>41</ns3:cad>
          </ns3:TrackPointExtension>
        </extensions>
      </trkpt>
      <trkpt lat="45.317524932324886322021484375" lon="-71.061296649277210235595703125">
        <ele>658.5999755859375</ele>
        <time>2026-08-21T22:46:59.000Z</time>
        <extensions>
          <ns3:TrackPointExtension>
            <ns3:hr>143</ns3:hr>
            <ns3:cad>42</ns3:cad>
          </ns3:TrackPointExtension>
        </extensions>
      </trkpt>
      <trkpt lat="45.317518226802349090576171875" lon="-71.06129874475300312042236328125">
        <ele>658.79998779296875</ele>
        <time>2026-08-21T22:47:00.000Z</time>
        <extensions>
          <ns3:TrackPointExtension>
            <ns3:hr>143</ns3:hr>
            <ns3:cad>42</ns3:cad>
          </ns3:TrackPointExtension>
        </extensions>
      </trkpt>
      <trkpt lat="45.31750456430017948150634765625" lon="-71.06130025349557399749755859375">
        <ele>659</ele>
        <time>2026-08-21T22:47:01.000Z</time>
        <extensions>
          <ns3:TrackPointExtension>
            <ns3:hr>143</ns3:hr>
            <ns3:cad>42</ns3:cad>
          </ns3:TrackPointExtension>
        </extensions>
      </trkpt>
      <trkpt lat="45.31749769113957881927490234375" lon="-71.0613051988184452056884765625">
        <ele>659.20001220703125</ele>
        <time>2026-08-21T22:47:02.000Z</time>
        <extensions>
          <ns3:TrackPointExtension>
            <ns3:hr>143</ns3:hr>
            <ns3:cad>42</ns3:cad>
          </ns3:TrackPointExtension>
        </extensions>
      </trkpt>
      <trkpt lat="45.31748981215059757232666015625" lon="-71.06130595318973064422607421875">
        <ele>659.4000244140625</ele>
        <time>2026-08-21T22:47:03.000Z</time>
        <extensions>
          <ns3:TrackPointExtension>
            <ns3:hr>143</ns3:hr>
            <ns3:cad>42</ns3:cad>
          </ns3:TrackPointExtension>
        </extensions>
      </trkpt>
      <trkpt lat="45.3174805082380771636962890625" lon="-71.06130947358906269073486328125">
        <ele>659.5999755859375</ele>
        <time>2026-08-21T22:47:04.000Z</time>
        <extensions>
          <ns3:TrackPointExtension>
            <ns3:hr>142</ns3:hr>
            <ns3:cad>44</ns3:cad>
          </ns3:TrackPointExtension>
        </extensions>
      </trkpt>
      <trkpt lat="45.31746885739266872406005859375" lon="-71.06130779720842838287353515625">
        <ele>659.79998779296875</ele>
        <time>2026-08-21T22:47:05.000Z</time>
        <extensions>
          <ns3:TrackPointExtension>
            <ns3:hr>143</ns3:hr>
            <ns3:cad>44</ns3:cad>
          </ns3:TrackPointExtension>
        </extensions>
      </trkpt>
      <trkpt lat="45.31745930202305316925048828125" lon="-71.0613098926842212677001953125">
        <ele>660</ele>
        <time>2026-08-21T22:47:06.000Z</time>
        <extensions>
          <ns3:TrackPointExtension>
            <ns3:hr>143</ns3:hr>
            <ns3:cad>44</ns3:cad>
          </ns3:TrackPointExtension>
        </extensions>
      </trkpt>
      <trkpt lat="45.31745410524308681488037109375" lon="-71.0613139159977436065673828125">
        <ele>660.20001220703125</ele>
        <time>2026-08-21T22:47:07.000Z</time>
        <extensions>
          <ns3:TrackPointExtension>
            <ns3:hr>143</ns3:hr>
            <ns3:cad>44</ns3:cad>
          </ns3:TrackPointExtension>
        </extensions>
      </trkpt>
      <trkpt lat="45.31744555570185184478759765625" lon="-71.06131500564515590667724609375">
        <ele>660.4000244140625</ele>
        <time>2026-08-21T22:47:08.000Z</time>
        <extensions>
          <ns3:TrackPointExtension>
            <ns3:hr>143</ns3:hr>
            <ns3:cad>44</ns3:cad>
          </ns3:TrackPointExtension>
        </extensions>
      </trkpt>
      <trkpt lat="45.31743750907480716705322265625" lon="-71.06132171116769313812255859375">
        <ele>660.5999755859375</ele>
        <time>2026-08-21T22:47:09.000Z</time>
        <extensions>
          <ns3:TrackPointExtension>
            <ns3:hr>143</ns3:hr>
            <ns3:cad>41</ns3:cad>
          </ns3:TrackPointExtension>
        </extensions>
      </trkpt>
      <trkpt lat="45.31742828898131847381591796875" lon="-71.061321459710597991943359375">
        <ele>660.79998779296875</ele>
        <time>2026-08-21T22:47:10.000Z</time>
        <extensions>
          <ns3:TrackPointExtension>
            <ns3:hr>143</ns3:hr>
            <ns3:cad>41</ns3:cad>
          </ns3:TrackPointExtension>
        </extensions>
      </trkpt>
      <trkpt lat="45.31742040999233722686767578125" lon="-71.061324141919612884521484375">
        <ele>661</ele>
        <time>2026-08-21T22:47:11.000Z</time>
        <extensions>
          <ns3:TrackPointExtension>
            <ns3:hr>143</ns3:hr>
            <ns3:cad>43</ns3:cad>
          </ns3:TrackPointExtension>
        </extensions>
      </trkpt>
      <trkpt lat="45.31740984879434108734130859375" lon="-71.0613253153860569000244140625">
        <ele>661.20001220703125</ele>
        <time>2026-08-21T22:47:12.000Z</time>
        <extensions>
          <ns3:TrackPointExtension>
            <ns3:hr>143</ns3:hr>
            <ns3:cad>43</ns3:cad>
          </ns3:TrackPointExtension>
        </extensions>
      </trkpt>
      <trkpt lat="45.31740029342472553253173828125" lon="-71.06133185327053070068359375">
        <ele>661.4000244140625</ele>
        <time>2026-08-21T22:47:13.000Z</time>
        <extensions>
          <ns3:TrackPointExtension>
            <ns3:hr>142</ns3:hr>
            <ns3:cad>43</ns3:cad>
          </ns3:TrackPointExtension>
        </extensions>
      </trkpt>
      <trkpt lat="45.317393504083156585693359375" lon="-71.06133612804114818572998046875">
        <ele>661.4000244140625</ele>
        <time>2026-08-21T22:47:14.000Z</time>
        <extensions>
          <ns3:TrackPointExtension>
            <ns3:hr>142</ns3:hr>
            <ns3:cad>0</ns3:cad>
          </ns3:TrackPointExtension>
        </extensions>
      </trkpt>
      <trkpt lat="45.3173805959522724151611328125" lon="-71.06134258210659027099609375">
        <ele>661.5999755859375</ele>
        <time>2026-08-21T22:47:15.000Z</time>
        <extensions>
          <ns3:TrackPointExtension>
            <ns3:hr>142</ns3:hr>
            <ns3:cad>0</ns3:cad>
          </ns3:TrackPointExtension>
        </extensions>
      </trkpt>
      <trkpt lat="45.3173710405826568603515625" lon="-71.06134501285851001739501953125">
        <ele>661.79998779296875</ele>
        <time>2026-08-21T22:47:16.000Z</time>
        <extensions>
          <ns3:TrackPointExtension>
            <ns3:hr>142</ns3:hr>
            <ns3:cad>41</ns3:cad>
          </ns3:TrackPointExtension>
        </extensions>
      </trkpt>
      <trkpt lat="45.31736257486045360565185546875" lon="-71.06134769506752490997314453125">
        <ele>662</ele>
        <time>2026-08-21T22:47:17.000Z</time>
        <extensions>
          <ns3:TrackPointExtension>
            <ns3:hr>142</ns3:hr>
            <ns3:cad>41</ns3:cad>
          </ns3:TrackPointExtension>
        </extensions>
      </trkpt>
      <trkpt lat="45.31735285185277462005615234375" lon="-71.06135121546685695648193359375">
        <ele>662.20001220703125</ele>
        <time>2026-08-21T22:47:18.000Z</time>
        <extensions>
          <ns3:TrackPointExtension>
            <ns3:hr>142</ns3:hr>
            <ns3:cad>41</ns3:cad>
          </ns3:TrackPointExtension>
        </extensions>
      </trkpt>
      <trkpt lat="45.31734497286379337310791015625" lon="-71.06135331094264984130859375">
        <ele>662.4000244140625</ele>
        <time>2026-08-21T22:47:19.000Z</time>
        <extensions>
          <ns3:TrackPointExtension>
            <ns3:hr>142</ns3:hr>
            <ns3:cad>41</ns3:cad>
          </ns3:TrackPointExtension>
        </extensions>
      </trkpt>
      <trkpt lat="45.3173370100557804107666015625" lon="-71.06135607697069644927978515625">
        <ele>662.5999755859375</ele>
        <time>2026-08-21T22:47:20.000Z</time>
        <extensions>
          <ns3:TrackPointExtension>
            <ns3:hr>142</ns3:hr>
            <ns3:cad>41</ns3:cad>
          </ns3:TrackPointExtension>
        </extensions>
      </trkpt>
      <trkpt lat="45.317325778305530548095703125" lon="-71.06136110611259937286376953125">
        <ele>662.79998779296875</ele>
        <time>2026-08-21T22:47:21.000Z</time>
        <extensions>
          <ns3:TrackPointExtension>
            <ns3:hr>142</ns3:hr>
            <ns3:cad>41</ns3:cad>
          </ns3:TrackPointExtension>
        </extensions>
      </trkpt>
      <trkpt lat="45.317314378917217254638671875" lon="-71.06136378832161426544189453125">
        <ele>663</ele>
        <time>2026-08-21T22:47:22.000Z</time>
        <extensions>
          <ns3:TrackPointExtension>
            <ns3:hr>141</ns3:hr>
            <ns3:cad>41</ns3:cad>
          </ns3:TrackPointExtension>
        </extensions>
      </trkpt>
      <trkpt lat="45.3172957710921764373779296875" lon="-71.06137049384415149688720703125">
        <ele>663.20001220703125</ele>
        <time>2026-08-21T22:47:23.000Z</time>
        <extensions>
          <ns3:TrackPointExtension>
            <ns3:hr>141</ns3:hr>
            <ns3:cad>43</ns3:cad>
          </ns3:TrackPointExtension>
        </extensions>
      </trkpt>
      <trkpt lat="45.3172853775322437286376953125" lon="-71.06137468479573726654052734375">
        <ele>663.4000244140625</ele>
        <time>2026-08-21T22:47:24.000Z</time>
        <extensions>
          <ns3:TrackPointExtension>
            <ns3:hr>141</ns3:hr>
            <ns3:cad>43</ns3:cad>
          </ns3:TrackPointExtension>
        </extensions>
      </trkpt>
      <trkpt lat="45.31727112829685211181640625" lon="-71.06137837283313274383544921875">
        <ele>663.5999755859375</ele>
        <time>2026-08-21T22:47:25.000Z</time>
        <extensions>
          <ns3:TrackPointExtension>
            <ns3:hr>142</ns3:hr>
            <ns3:cad>43</ns3:cad>
          </ns3:TrackPointExtension>
        </extensions>
      </trkpt>
      <trkpt lat="45.31725998036563396453857421875" lon="-71.06138457544147968292236328125">
        <ele>663.79998779296875</ele>
        <time>2026-08-21T22:47:26.000Z</time>
        <extensions>
          <ns3:TrackPointExtension>
            <ns3:hr>141</ns3:hr>
            <ns3:cad>43</ns3:cad>
          </ns3:TrackPointExtension>
        </extensions>
      </trkpt>
      <trkpt lat="45.31725361011922359466552734375" lon="-71.06139195151627063751220703125">
        <ele>664</ele>
        <time>2026-08-21T22:47:27.000Z</time>
        <extensions>
          <ns3:TrackPointExtension>
            <ns3:hr>141</ns3:hr>
            <ns3:cad>43</ns3:cad>
          </ns3:TrackPointExtension>
        </extensions>
      </trkpt>
      <trkpt lat="45.317243300378322601318359375" lon="-71.06139631010591983795166015625">
        <ele>664.20001220703125</ele>
        <time>2026-08-21T22:47:28.000Z</time>
        <extensions>
          <ns3:TrackPointExtension>
            <ns3:hr>141</ns3:hr>
            <ns3:cad>40</ns3:cad>
          </ns3:TrackPointExtension>
        </extensions>
      </trkpt>
      <trkpt lat="45.31723491847515106201171875" lon="-71.06140024960041046142578125">
        <ele>664.4000244140625</ele>
        <time>2026-08-21T22:47:29.000Z</time>
        <extensions>
          <ns3:TrackPointExtension>
            <ns3:hr>141</ns3:hr>
            <ns3:cad>40</ns3:cad>
          </ns3:TrackPointExtension>
        </extensions>
      </trkpt>
      <trkpt lat="45.31722553074359893798828125" lon="-71.0614094696938991546630859375">
        <ele>664.5999755859375</ele>
        <time>2026-08-21T22:47:30.000Z</time>
        <extensions>
          <ns3:TrackPointExtension>
            <ns3:hr>141</ns3:hr>
            <ns3:cad>40</ns3:cad>
          </ns3:TrackPointExtension>
        </extensions>
      </trkpt>
      <trkpt lat="45.31721756793558597564697265625" lon="-71.061416678130626678466796875">
        <ele>664.79998779296875</ele>
        <time>2026-08-21T22:47:31.000Z</time>
        <extensions>
          <ns3:TrackPointExtension>
            <ns3:hr>141</ns3:hr>
            <ns3:cad>40</ns3:cad>
          </ns3:TrackPointExtension>
        </extensions>
      </trkpt>
      <trkpt lat="45.31720600090920925140380859375" lon="-71.061426736414432525634765625">
        <ele>665</ele>
        <time>2026-08-21T22:47:32.000Z</time>
        <extensions>
          <ns3:TrackPointExtension>
            <ns3:hr>141</ns3:hr>
            <ns3:cad>40</ns3:cad>
          </ns3:TrackPointExtension>
        </extensions>
      </trkpt>
      <trkpt lat="45.3171958588063716888427734375" lon="-71.06143436394631862640380859375">
        <ele>665.20001220703125</ele>
        <time>2026-08-21T22:47:33.000Z</time>
        <extensions>
          <ns3:TrackPointExtension>
            <ns3:hr>142</ns3:hr>
            <ns3:cad>43</ns3:cad>
          </ns3:TrackPointExtension>
        </extensions>
      </trkpt>
      <trkpt lat="45.3171824477612972259521484375" lon="-71.0614419914782047271728515625">
        <ele>665.20001220703125</ele>
        <time>2026-08-21T22:47:34.000Z</time>
        <extensions>
          <ns3:TrackPointExtension>
            <ns3:hr>141</ns3:hr>
            <ns3:cad>45</ns3:cad>
          </ns3:TrackPointExtension>
        </extensions>
      </trkpt>
      <trkpt lat="45.31717113219201564788818359375" lon="-71.0614465177059173583984375">
        <ele>665.4000244140625</ele>
        <time>2026-08-21T22:47:35.000Z</time>
        <extensions>
          <ns3:TrackPointExtension>
            <ns3:hr>141</ns3:hr>
            <ns3:cad>45</ns3:cad>
          </ns3:TrackPointExtension>
        </extensions>
      </trkpt>
      <trkpt lat="45.31715822406113147735595703125" lon="-71.06145313940942287445068359375">
        <ele>665.5999755859375</ele>
        <time>2026-08-21T22:47:36.000Z</time>
        <extensions>
          <ns3:TrackPointExtension>
            <ns3:hr>141</ns3:hr>
            <ns3:cad>45</ns3:cad>
          </ns3:TrackPointExtension>
        </extensions>
      </trkpt>
      <trkpt lat="45.31714833341538906097412109375" lon="-71.06146437115967273712158203125">
        <ele>665.79998779296875</ele>
        <time>2026-08-21T22:47:37.000Z</time>
        <extensions>
          <ns3:TrackPointExtension>
            <ns3:hr>142</ns3:hr>
            <ns3:cad>45</ns3:cad>
          </ns3:TrackPointExtension>
        </extensions>
      </trkpt>
      <trkpt lat="45.317139364778995513916015625" lon="-71.06147124432027339935302734375">
        <ele>666</ele>
        <time>2026-08-21T22:47:38.000Z</time>
        <extensions>
          <ns3:TrackPointExtension>
            <ns3:hr>142</ns3:hr>
            <ns3:cad>0</ns3:cad>
          </ns3:TrackPointExtension>
        </extensions>
      </trkpt>
      <trkpt lat="45.31712754629552364349365234375" lon="-71.0614852420985698699951171875">
        <ele>666.20001220703125</ele>
        <time>2026-08-21T22:47:39.000Z</time>
        <extensions>
          <ns3:TrackPointExtension>
            <ns3:hr>142</ns3:hr>
            <ns3:cad>0</ns3:cad>
          </ns3:TrackPointExtension>
        </extensions>
      </trkpt>
      <trkpt lat="45.31711564399302005767822265625" lon="-71.061491779983043670654296875">
        <ele>666.4000244140625</ele>
        <time>2026-08-21T22:47:40.000Z</time>
        <extensions>
          <ns3:TrackPointExtension>
            <ns3:hr>142</ns3:hr>
            <ns3:cad>0</ns3:cad>
          </ns3:TrackPointExtension>
        </extensions>
      </trkpt>
      <trkpt lat="45.3171066753566265106201171875" lon="-71.06149387545883655548095703125">
        <ele>666.5999755859375</ele>
        <time>2026-08-21T22:47:41.000Z</time>
        <extensions>
          <ns3:TrackPointExtension>
            <ns3:hr>142</ns3:hr>
            <ns3:cad>0</ns3:cad>
          </ns3:TrackPointExtension>
        </extensions>
      </trkpt>
      <trkpt lat="45.3170969523489475250244140625" lon="-71.0615001618862152099609375">
        <ele>666.79998779296875</ele>
        <time>2026-08-21T22:47:42.000Z</time>
        <extensions>
          <ns3:TrackPointExtension>
            <ns3:hr>142</ns3:hr>
            <ns3:cad>0</ns3:cad>
          </ns3:TrackPointExtension>
        </extensions>
      </trkpt>
      <trkpt lat="45.317088402807712554931640625" lon="-71.0615123994648456573486328125">
        <ele>667</ele>
        <time>2026-08-21T22:47:43.000Z</time>
        <extensions>
          <ns3:TrackPointExtension>
            <ns3:hr>142</ns3:hr>
            <ns3:cad>47</ns3:cad>
          </ns3:TrackPointExtension>
        </extensions>
      </trkpt>
      <trkpt lat="45.31707155518233776092529296875" lon="-71.06151550076901912689208984375">
        <ele>667.20001220703125</ele>
        <time>2026-08-21T22:47:44.000Z</time>
        <extensions>
          <ns3:TrackPointExtension>
            <ns3:hr>142</ns3:hr>
            <ns3:cad>47</ns3:cad>
          </ns3:TrackPointExtension>
        </extensions>
      </trkpt>
      <trkpt lat="45.31706099398434162139892578125" lon="-71.0615189373493194580078125">
        <ele>667.20001220703125</ele>
        <time>2026-08-21T22:47:45.000Z</time>
        <extensions>
          <ns3:TrackPointExtension>
            <ns3:hr>142</ns3:hr>
            <ns3:cad>47</ns3:cad>
          </ns3:TrackPointExtension>
        </extensions>
      </trkpt>
      <trkpt lat="45.3170540370047092437744140625" lon="-71.061523295938968658447265625">
        <ele>667.4000244140625</ele>
        <time>2026-08-21T22:47:46.000Z</time>
        <extensions>
          <ns3:TrackPointExtension>
            <ns3:hr>142</ns3:hr>
            <ns3:cad>47</ns3:cad>
          </ns3:TrackPointExtension>
        </extensions>
      </trkpt>
      <trkpt lat="45.317046828567981719970703125" lon="-71.06153444387018680572509765625">
        <ele>667.5999755859375</ele>
        <time>2026-08-21T22:47:47.000Z</time>
        <extensions>
          <ns3:TrackPointExtension>
            <ns3:hr>143</ns3:hr>
            <ns3:cad>47</ns3:cad>
          </ns3:TrackPointExtension>
        </extensions>
      </trkpt>
      <trkpt lat="45.3170416317880153656005859375" lon="-71.061544753611087799072265625">
        <ele>667.5999755859375</ele>
        <time>2026-08-21T22:47:48.000Z</time>
        <extensions>
          <ns3:TrackPointExtension>
            <ns3:hr>142</ns3:hr>
            <ns3:cad>47</ns3:cad>
          </ns3:TrackPointExtension>
        </extensions>
      </trkpt>
      <trkpt lat="45.3170315735042095184326171875" lon="-71.06155673973262310028076171875">
        <ele>667.5999755859375</ele>
        <time>2026-08-21T22:47:49.000Z</time>
        <extensions>
          <ns3:TrackPointExtension>
            <ns3:hr>142</ns3:hr>
            <ns3:cad>47</ns3:cad>
          </ns3:TrackPointExtension>
        </extensions>
      </trkpt>
      <trkpt lat="45.31702595762908458709716796875" lon="-71.0615693964064121246337890625">
        <ele>667.79998779296875</ele>
        <time>2026-08-21T22:47:50.000Z</time>
        <extensions>
          <ns3:TrackPointExtension>
            <ns3:hr>143</ns3:hr>
            <ns3:cad>49</ns3:cad>
          </ns3:TrackPointExtension>
        </extensions>
      </trkpt>
      <trkpt lat="45.31702176667749881744384765625" lon="-71.06157316826283931732177734375">
        <ele>667.79998779296875</ele>
        <time>2026-08-21T22:47:51.000Z</time>
        <extensions>
          <ns3:TrackPointExtension>
            <ns3:hr>142</ns3:hr>
            <ns3:cad>49</ns3:cad>
          </ns3:TrackPointExtension>
        </extensions>
      </trkpt>
      <trkpt lat="45.3170121274888515472412109375" lon="-71.0615834780037403106689453125">
        <ele>668</ele>
        <time>2026-08-21T22:47:52.000Z</time>
        <extensions>
          <ns3:TrackPointExtension>
            <ns3:hr>142</ns3:hr>
            <ns3:cad>46</ns3:cad>
          </ns3:TrackPointExtension>
        </extensions>
      </trkpt>
      <trkpt lat="45.317000560462474822998046875" lon="-71.0615968890488147735595703125">
        <ele>668.20001220703125</ele>
        <time>2026-08-21T22:47:53.000Z</time>
        <extensions>
          <ns3:TrackPointExtension>
            <ns3:hr>142</ns3:hr>
            <ns3:cad>46</ns3:cad>
          </ns3:TrackPointExtension>
        </extensions>
      </trkpt>
      <trkpt lat="45.31699058599770069122314453125" lon="-71.06161122210323810577392578125">
        <ele>668.20001220703125</ele>
        <time>2026-08-21T22:47:54.000Z</time>
        <extensions>
          <ns3:TrackPointExtension>
            <ns3:hr>142</ns3:hr>
            <ns3:cad>46</ns3:cad>
          </ns3:TrackPointExtension>
        </extensions>
      </trkpt>
      <trkpt lat="45.31698438338935375213623046875" lon="-71.0616230405867099761962890625">
        <ele>668.4000244140625</ele>
        <time>2026-08-21T22:47:55.000Z</time>
        <extensions>
          <ns3:TrackPointExtension>
            <ns3:hr>141</ns3:hr>
            <ns3:cad>48</ns3:cad>
          </ns3:TrackPointExtension>
        </extensions>
      </trkpt>
      <trkpt lat="45.3169794380664825439453125" lon="-71.06163988821208477020263671875">
        <ele>668.4000244140625</ele>
        <time>2026-08-21T22:47:56.000Z</time>
        <extensions>
          <ns3:TrackPointExtension>
            <ns3:hr>141</ns3:hr>
            <ns3:cad>48</ns3:cad>
          </ns3:TrackPointExtension>
        </extensions>
      </trkpt>
      <trkpt lat="45.31697113998234272003173828125" lon="-71.06165044941008090972900390625">
        <ele>668.5999755859375</ele>
        <time>2026-08-21T22:47:57.000Z</time>
        <extensions>
          <ns3:TrackPointExtension>
            <ns3:hr>141</ns3:hr>
            <ns3:cad>47</ns3:cad>
          </ns3:TrackPointExtension>
        </extensions>
      </trkpt>
      <trkpt lat="45.31695990823209285736083984375" lon="-71.06166520155966281890869140625">
        <ele>668.5999755859375</ele>
        <time>2026-08-21T22:47:58.000Z</time>
        <extensions>
          <ns3:TrackPointExtension>
            <ns3:hr>140</ns3:hr>
            <ns3:cad>50</ns3:cad>
          </ns3:TrackPointExtension>
        </extensions>
      </trkpt>
      <trkpt lat="45.31695152632892131805419921875" lon="-71.06168028898537158966064453125">
        <ele>668.79998779296875</ele>
        <time>2026-08-21T22:47:59.000Z</time>
        <extensions>
          <ns3:TrackPointExtension>
            <ns3:hr>140</ns3:hr>
            <ns3:cad>50</ns3:cad>
          </ns3:TrackPointExtension>
        </extensions>
      </trkpt>
      <trkpt lat="45.31693995930254459381103515625" lon="-71.06169587932527065277099609375">
        <ele>669</ele>
        <time>2026-08-21T22:48:00.000Z</time>
        <extensions>
          <ns3:TrackPointExtension>
            <ns3:hr>140</ns3:hr>
            <ns3:cad>50</ns3:cad>
          </ns3:TrackPointExtension>
        </extensions>
      </trkpt>
      <trkpt lat="45.31693342141807079315185546875" lon="-71.0617066919803619384765625">
        <ele>669.20001220703125</ele>
        <time>2026-08-21T22:48:01.000Z</time>
        <extensions>
          <ns3:TrackPointExtension>
            <ns3:hr>139</ns3:hr>
            <ns3:cad>50</ns3:cad>
          </ns3:TrackPointExtension>
        </extensions>
      </trkpt>
      <trkpt lat="45.316926129162311553955078125" lon="-71.06172203086316585540771484375">
        <ele>669.4000244140625</ele>
        <time>2026-08-21T22:48:02.000Z</time>
        <extensions>
          <ns3:TrackPointExtension>
            <ns3:hr>139</ns3:hr>
            <ns3:cad>49</ns3:cad>
          </ns3:TrackPointExtension>
        </extensions>
      </trkpt>
      <trkpt lat="45.31691816635429859161376953125" lon="-71.0617340169847011566162109375">
        <ele>669.4000244140625</ele>
        <time>2026-08-21T22:48:03.000Z</time>
        <extensions>
          <ns3:TrackPointExtension>
            <ns3:hr>138</ns3:hr>
            <ns3:cad>49</ns3:cad>
          </ns3:TrackPointExtension>
        </extensions>
      </trkpt>
      <trkpt lat="45.31690978445112705230712890625" lon="-71.06174298562109470367431640625">
        <ele>669.5999755859375</ele>
        <time>2026-08-21T22:48:04.000Z</time>
        <extensions>
          <ns3:TrackPointExtension>
            <ns3:hr>138</ns3:hr>
            <ns3:cad>50</ns3:cad>
          </ns3:TrackPointExtension>
        </extensions>
      </trkpt>
      <trkpt lat="45.31689721159636974334716796875" lon="-71.06175974942743778228759765625">
        <ele>669.79998779296875</ele>
        <time>2026-08-21T22:48:05.000Z</time>
        <extensions>
          <ns3:TrackPointExtension>
            <ns3:hr>138</ns3:hr>
            <ns3:cad>51</ns3:cad>
          </ns3:TrackPointExtension>
        </extensions>
      </trkpt>
      <trkpt lat="45.31688312999904155731201171875" lon="-71.0617779381573200225830078125">
        <ele>670</ele>
        <time>2026-08-21T22:48:06.000Z</time>
        <extensions>
          <ns3:TrackPointExtension>
            <ns3:hr>137</ns3:hr>
            <ns3:cad>51</ns3:cad>
          </ns3:TrackPointExtension>
        </extensions>
      </trkpt>
      <trkpt lat="45.31687223352491855621337890625" lon="-71.06179160065948963165283203125">
        <ele>670.20001220703125</ele>
        <time>2026-08-21T22:48:07.000Z</time>
        <extensions>
          <ns3:TrackPointExtension>
            <ns3:hr>137</ns3:hr>
            <ns3:cad>52</ns3:cad>
          </ns3:TrackPointExtension>
        </extensions>
      </trkpt>
      <trkpt lat="45.31686033122241497039794921875" lon="-71.06180383823812007904052734375">
        <ele>670.20001220703125</ele>
        <time>2026-08-21T22:48:08.000Z</time>
        <extensions>
          <ns3:TrackPointExtension>
            <ns3:hr>137</ns3:hr>
            <ns3:cad>52</ns3:cad>
          </ns3:TrackPointExtension>
        </extensions>
      </trkpt>
      <trkpt lat="45.3168535418808460235595703125" lon="-71.0618191771209239959716796875">
        <ele>670.4000244140625</ele>
        <time>2026-08-21T22:48:09.000Z</time>
        <extensions>
          <ns3:TrackPointExtension>
            <ns3:hr>137</ns3:hr>
            <ns3:cad>51</ns3:cad>
          </ns3:TrackPointExtension>
        </extensions>
      </trkpt>
      <trkpt lat="45.316843651235103607177734375" lon="-71.06183032505214214324951171875">
        <ele>670.4000244140625</ele>
        <time>2026-08-21T22:48:10.000Z</time>
        <extensions>
          <ns3:TrackPointExtension>
            <ns3:hr>137</ns3:hr>
            <ns3:cad>51</ns3:cad>
          </ns3:TrackPointExtension>
        </extensions>
      </trkpt>
      <trkpt lat="45.31683267094194889068603515625" lon="-71.06184356845915317535400390625">
        <ele>670.5999755859375</ele>
        <time>2026-08-21T22:48:11.000Z</time>
        <extensions>
          <ns3:TrackPointExtension>
            <ns3:hr>137</ns3:hr>
            <ns3:cad>51</ns3:cad>
          </ns3:TrackPointExtension>
        </extensions>
      </trkpt>
      <trkpt lat="45.3168185055255889892578125" lon="-71.0618587397038936614990234375">
        <ele>670.5999755859375</ele>
        <time>2026-08-21T22:48:12.000Z</time>
        <extensions>
          <ns3:TrackPointExtension>
            <ns3:hr>137</ns3:hr>
            <ns3:cad>50</ns3:cad>
          </ns3:TrackPointExtension>
        </extensions>
      </trkpt>
      <trkpt lat="45.316809117794036865234375" lon="-71.06186963617801666259765625">
        <ele>670.79998779296875</ele>
        <time>2026-08-21T22:48:13.000Z</time>
        <extensions>
          <ns3:TrackPointExtension>
            <ns3:hr>137</ns3:hr>
            <ns3:cad>50</ns3:cad>
          </ns3:TrackPointExtension>
        </extensions>
      </trkpt>
      <trkpt lat="45.31680174171924591064453125" lon="-71.061878688633441925048828125">
        <ele>670.79998779296875</ele>
        <time>2026-08-21T22:48:14.000Z</time>
        <extensions>
          <ns3:TrackPointExtension>
            <ns3:hr>137</ns3:hr>
            <ns3:cad>51</ns3:cad>
          </ns3:TrackPointExtension>
        </extensions>
      </trkpt>
      <trkpt lat="45.3167905099689960479736328125" lon="-71.0618942789733409881591796875">
        <ele>671</ele>
        <time>2026-08-21T22:48:15.000Z</time>
        <extensions>
          <ns3:TrackPointExtension>
            <ns3:hr>137</ns3:hr>
            <ns3:cad>51</ns3:cad>
          </ns3:TrackPointExtension>
        </extensions>
      </trkpt>
      <trkpt lat="45.31678087078034877777099609375" lon="-71.0619090311229228973388671875">
        <ele>671.20001220703125</ele>
        <time>2026-08-21T22:48:16.000Z</time>
        <extensions>
          <ns3:TrackPointExtension>
            <ns3:hr>138</ns3:hr>
            <ns3:cad>52</ns3:cad>
          </ns3:TrackPointExtension>
        </extensions>
      </trkpt>
      <trkpt lat="45.316776596009731292724609375" lon="-71.0619194246828556060791015625">
        <ele>671.20001220703125</ele>
        <time>2026-08-21T22:48:17.000Z</time>
        <extensions>
          <ns3:TrackPointExtension>
            <ns3:hr>138</ns3:hr>
            <ns3:cad>52</ns3:cad>
          </ns3:TrackPointExtension>
        </extensions>
      </trkpt>
      <trkpt lat="45.3167690522968769073486328125" lon="-71.0619351826608180999755859375">
        <ele>671.20001220703125</ele>
        <time>2026-08-21T22:48:18.000Z</time>
        <extensions>
          <ns3:TrackPointExtension>
            <ns3:hr>138</ns3:hr>
            <ns3:cad>52</ns3:cad>
          </ns3:TrackPointExtension>
        </extensions>
      </trkpt>
      <trkpt lat="45.3167594969272613525390625" lon="-71.06195303611457347869873046875">
        <ele>671.20001220703125</ele>
        <time>2026-08-21T22:48:19.000Z</time>
        <extensions>
          <ns3:TrackPointExtension>
            <ns3:hr>138</ns3:hr>
            <ns3:cad>52</ns3:cad>
          </ns3:TrackPointExtension>
        </extensions>
      </trkpt>
      <trkpt lat="45.3167536295950412750244140625" lon="-71.0619720630347728729248046875">
        <ele>671.4000244140625</ele>
        <time>2026-08-21T22:48:20.000Z</time>
        <extensions>
          <ns3:TrackPointExtension>
            <ns3:hr>138</ns3:hr>
            <ns3:cad>52</ns3:cad>
          </ns3:TrackPointExtension>
        </extensions>
      </trkpt>
      <trkpt lat="45.31674734316766262054443359375" lon="-71.061991341412067413330078125">
        <ele>671.4000244140625</ele>
        <time>2026-08-21T22:48:21.000Z</time>
        <extensions>
          <ns3:TrackPointExtension>
            <ns3:hr>137</ns3:hr>
            <ns3:cad>52</ns3:cad>
          </ns3:TrackPointExtension>
        </extensions>
      </trkpt>
      <trkpt lat="45.31674164347350597381591796875" lon="-71.0620059259235858917236328125">
        <ele>671.4000244140625</ele>
        <time>2026-08-21T22:48:22.000Z</time>
        <extensions>
          <ns3:TrackPointExtension>
            <ns3:hr>138</ns3:hr>
            <ns3:cad>52</ns3:cad>
          </ns3:TrackPointExtension>
        </extensions>
      </trkpt>
      <trkpt lat="45.31673334538936614990234375" lon="-71.06202662922441959381103515625">
        <ele>671.4000244140625</ele>
        <time>2026-08-21T22:48:23.000Z</time>
        <extensions>
          <ns3:TrackPointExtension>
            <ns3:hr>138</ns3:hr>
            <ns3:cad>52</ns3:cad>
          </ns3:TrackPointExtension>
        </extensions>
      </trkpt>
      <trkpt lat="45.3167231194674968719482421875" lon="-71.062060408294200897216796875">
        <ele>671.4000244140625</ele>
        <time>2026-08-21T22:48:24.000Z</time>
        <extensions>
          <ns3:TrackPointExtension>
            <ns3:hr>138</ns3:hr>
            <ns3:cad>52</ns3:cad>
          </ns3:TrackPointExtension>
        </extensions>
      </trkpt>
      <trkpt lat="45.3167137317359447479248046875" lon="-71.06208018958568572998046875">
        <ele>671.5999755859375</ele>
        <time>2026-08-21T22:48:25.000Z</time>
        <extensions>
          <ns3:TrackPointExtension>
            <ns3:hr>138</ns3:hr>
            <ns3:cad>52</ns3:cad>
          </ns3:TrackPointExtension>
        </extensions>
      </trkpt>
      <trkpt lat="45.31670459546148777008056640625" lon="-71.062106676399707794189453125">
        <ele>671.5999755859375</ele>
        <time>2026-08-21T22:48:26.000Z</time>
        <extensions>
          <ns3:TrackPointExtension>
            <ns3:hr>138</ns3:hr>
            <ns3:cad>0</ns3:cad>
          </ns3:TrackPointExtension>
        </extensions>
      </trkpt>
      <trkpt lat="45.3166951239109039306640625" lon="-71.062128804624080657958984375">
        <ele>671.5999755859375</ele>
        <time>2026-08-21T22:48:27.000Z</time>
        <extensions>
          <ns3:TrackPointExtension>
            <ns3:hr>139</ns3:hr>
            <ns3:cad>0</ns3:cad>
          </ns3:TrackPointExtension>
        </extensions>
      </trkpt>
      <trkpt lat="45.31668934039771556854248046875" lon="-71.06214724481105804443359375">
        <ele>671.79998779296875</ele>
        <time>2026-08-21T22:48:28.000Z</time>
        <extensions>
          <ns3:TrackPointExtension>
            <ns3:hr>139</ns3:hr>
            <ns3:cad>0</ns3:cad>
          </ns3:TrackPointExtension>
        </extensions>
      </trkpt>
      <trkpt lat="45.3166817128658294677734375" lon="-71.06217063032090663909912109375">
        <ele>671.79998779296875</ele>
        <time>2026-08-21T22:48:29.000Z</time>
        <extensions>
          <ns3:TrackPointExtension>
            <ns3:hr>140</ns3:hr>
            <ns3:cad>0</ns3:cad>
          </ns3:TrackPointExtension>
        </extensions>
      </trkpt>
      <trkpt lat="45.31667106784880161285400390625" lon="-71.062191165983676910400390625">
        <ele>671.79998779296875</ele>
        <time>2026-08-21T22:48:30.000Z</time>
        <extensions>
          <ns3:TrackPointExtension>
            <ns3:hr>141</ns3:hr>
            <ns3:cad>0</ns3:cad>
          </ns3:TrackPointExtension>
        </extensions>
      </trkpt>
      <trkpt lat="45.31666017137467861175537109375" lon="-71.0622127912938594818115234375">
        <ele>671.79998779296875</ele>
        <time>2026-08-21T22:48:31.000Z</time>
        <extensions>
          <ns3:TrackPointExtension>
            <ns3:hr>141</ns3:hr>
            <ns3:cad>74</ns3:cad>
          </ns3:TrackPointExtension>
        </extensions>
      </trkpt>
      <trkpt lat="45.31665028072893619537353515625" lon="-71.062233746051788330078125">
        <ele>671.79998779296875</ele>
        <time>2026-08-21T22:48:32.000Z</time>
        <extensions>
          <ns3:TrackPointExtension>
            <ns3:hr>141</ns3:hr>
            <ns3:cad>74</ns3:cad>
          </ns3:TrackPointExtension>
        </extensions>
      </trkpt>
      <trkpt lat="45.31664080917835235595703125" lon="-71.06225864030420780181884765625">
        <ele>671.5999755859375</ele>
        <time>2026-08-21T22:48:33.000Z</time>
        <extensions>
          <ns3:TrackPointExtension>
            <ns3:hr>142</ns3:hr>
            <ns3:cad>74</ns3:cad>
          </ns3:TrackPointExtension>
        </extensions>
      </trkpt>
      <trkpt lat="45.31663008034229278564453125" lon="-71.0622774995863437652587890625">
        <ele>671.5999755859375</ele>
        <time>2026-08-21T22:48:34.000Z</time>
        <extensions>
          <ns3:TrackPointExtension>
            <ns3:hr>141</ns3:hr>
            <ns3:cad>74</ns3:cad>
          </ns3:TrackPointExtension>
        </extensions>
      </trkpt>
      <trkpt lat="45.3166158311069011688232421875" lon="-71.06230817735195159912109375">
        <ele>671.5999755859375</ele>
        <time>2026-08-21T22:48:35.000Z</time>
        <extensions>
          <ns3:TrackPointExtension>
            <ns3:hr>141</ns3:hr>
            <ns3:cad>74</ns3:cad>
          </ns3:TrackPointExtension>
        </extensions>
      </trkpt>
      <trkpt lat="45.316604934632778167724609375" lon="-71.06234028004109859466552734375">
        <ele>671.4000244140625</ele>
        <time>2026-08-21T22:48:36.000Z</time>
        <extensions>
          <ns3:TrackPointExtension>
            <ns3:hr>140</ns3:hr>
            <ns3:cad>75</ns3:cad>
          </ns3:TrackPointExtension>
        </extensions>
      </trkpt>
      <trkpt lat="45.31659713946282863616943359375" lon="-71.062370873987674713134765625">
        <ele>671.4000244140625</ele>
        <time>2026-08-21T22:48:37.000Z</time>
        <extensions>
          <ns3:TrackPointExtension>
            <ns3:hr>140</ns3:hr>
            <ns3:cad>75</ns3:cad>
          </ns3:TrackPointExtension>
        </extensions>
      </trkpt>
      <trkpt lat="45.31659026630222797393798828125" lon="-71.062395684421062469482421875">
        <ele>671.20001220703125</ele>
        <time>2026-08-21T22:48:38.000Z</time>
        <extensions>
          <ns3:TrackPointExtension>
            <ns3:hr>139</ns3:hr>
            <ns3:cad>74</ns3:cad>
          </ns3:TrackPointExtension>
        </extensions>
      </trkpt>
      <trkpt lat="45.31658448278903961181640625" lon="-71.06242041103541851043701171875">
        <ele>671.20001220703125</ele>
        <time>2026-08-21T22:48:39.000Z</time>
        <extensions>
          <ns3:TrackPointExtension>
            <ns3:hr>137</ns3:hr>
            <ns3:cad>74</ns3:cad>
          </ns3:TrackPointExtension>
        </extensions>
      </trkpt>
      <trkpt lat="45.31657786108553409576416015625" lon="-71.062438599765300750732421875">
        <ele>671</ele>
        <time>2026-08-21T22:48:40.000Z</time>
        <extensions>
          <ns3:TrackPointExtension>
            <ns3:hr>136</ns3:hr>
            <ns3:cad>74</ns3:cad>
          </ns3:TrackPointExtension>
        </extensions>
      </trkpt>
      <trkpt lat="45.3165735863149166107177734375" lon="-71.062456034123897552490234375">
        <ele>671</ele>
        <time>2026-08-21T22:48:41.000Z</time>
        <extensions>
          <ns3:TrackPointExtension>
            <ns3:hr>135</ns3:hr>
            <ns3:cad>73</ns3:cad>
          </ns3:TrackPointExtension>
        </extensions>
      </trkpt>
      <trkpt lat="45.31656864099204540252685546875" lon="-71.06247539632022380828857421875">
        <ele>671.20001220703125</ele>
        <time>2026-08-21T22:48:42.000Z</time>
        <extensions>
          <ns3:TrackPointExtension>
            <ns3:hr>133</ns3:hr>
            <ns3:cad>73</ns3:cad>
          </ns3:TrackPointExtension>
        </extensions>
      </trkpt>
      <trkpt lat="45.31656445004045963287353515625" lon="-71.0624960996210575103759765625">
        <ele>671.20001220703125</ele>
        <time>2026-08-21T22:48:43.000Z</time>
        <extensions>
          <ns3:TrackPointExtension>
            <ns3:hr>132</ns3:hr>
            <ns3:cad>59</ns3:cad>
          </ns3:TrackPointExtension>
        </extensions>
      </trkpt>
      <trkpt lat="45.316558666527271270751953125" lon="-71.0625202395021915435791015625">
        <ele>671.20001220703125</ele>
        <time>2026-08-21T22:48:44.000Z</time>
        <extensions>
          <ns3:TrackPointExtension>
            <ns3:hr>132</ns3:hr>
            <ns3:cad>59</ns3:cad>
          </ns3:TrackPointExtension>
        </extensions>
      </trkpt>
      <trkpt lat="45.3165554814040660858154296875" lon="-71.06254261918365955352783203125">
        <ele>671</ele>
        <time>2026-08-21T22:48:45.000Z</time>
        <extensions>
          <ns3:TrackPointExtension>
            <ns3:hr>131</ns3:hr>
            <ns3:cad>56</ns3:cad>
          </ns3:TrackPointExtension>
        </extensions>
      </trkpt>
      <trkpt lat="45.31654961407184600830078125" lon="-71.06256357394158840179443359375">
        <ele>671</ele>
        <time>2026-08-21T22:48:46.000Z</time>
        <extensions>
          <ns3:TrackPointExtension>
            <ns3:hr>131</ns3:hr>
            <ns3:cad>56</ns3:cad>
          </ns3:TrackPointExtension>
        </extensions>
      </trkpt>
      <trkpt lat="45.316545255482196807861328125" lon="-71.0625809244811534881591796875">
        <ele>671</ele>
        <time>2026-08-21T22:48:47.000Z</time>
        <extensions>
          <ns3:TrackPointExtension>
            <ns3:hr>131</ns3:hr>
            <ns3:cad>56</ns3:cad>
          </ns3:TrackPointExtension>
        </extensions>
      </trkpt>
      <trkpt lat="45.31654248945415019989013671875" lon="-71.0626003704965114593505859375">
        <ele>671</ele>
        <time>2026-08-21T22:48:48.000Z</time>
        <extensions>
          <ns3:TrackPointExtension>
            <ns3:hr>130</ns3:hr>
            <ns3:cad>56</ns3:cad>
          </ns3:TrackPointExtension>
        </extensions>
      </trkpt>
      <trkpt lat="45.31653963960707187652587890625" lon="-71.06261386536061763763427734375">
        <ele>670.79998779296875</ele>
        <time>2026-08-21T22:48:49.000Z</time>
        <extensions>
          <ns3:TrackPointExtension>
            <ns3:hr>130</ns3:hr>
            <ns3:cad>56</ns3:cad>
          </ns3:TrackPointExtension>
        </extensions>
      </trkpt>
      <trkpt lat="45.31653326936066150665283203125" lon="-71.0626315511763095855712890625">
        <ele>670.79998779296875</ele>
        <time>2026-08-21T22:48:50.000Z</time>
        <extensions>
          <ns3:TrackPointExtension>
            <ns3:hr>129</ns3:hr>
            <ns3:cad>57</ns3:cad>
          </ns3:TrackPointExtension>
        </extensions>
      </trkpt>
      <trkpt lat="45.31652974896132946014404296875" lon="-71.06264621950685977935791015625">
        <ele>670.79998779296875</ele>
        <time>2026-08-21T22:48:51.000Z</time>
        <extensions>
          <ns3:TrackPointExtension>
            <ns3:hr>129</ns3:hr>
            <ns3:cad>57</ns3:cad>
          </ns3:TrackPointExtension>
        </extensions>
      </trkpt>
      <trkpt lat="45.316524468362331390380859375" lon="-71.06265795417129993438720703125">
        <ele>670.79998779296875</ele>
        <time>2026-08-21T22:48:52.000Z</time>
        <extensions>
          <ns3:TrackPointExtension>
            <ns3:hr>128</ns3:hr>
            <ns3:cad>57</ns3:cad>
          </ns3:TrackPointExtension>
        </extensions>
      </trkpt>
      <trkpt lat="45.3165196068584918975830078125" lon="-71.06266331858932971954345703125">
        <ele>670.79998779296875</ele>
        <time>2026-08-21T22:48:53.000Z</time>
        <extensions>
          <ns3:TrackPointExtension>
            <ns3:hr>127</ns3:hr>
            <ns3:cad>56</ns3:cad>
          </ns3:TrackPointExtension>
        </extensions>
      </trkpt>
      <trkpt lat="45.3165172599256038665771484375" lon="-71.06267002411186695098876953125">
        <ele>670.79998779296875</ele>
        <time>2026-08-21T22:48:54.000Z</time>
        <extensions>
          <ns3:TrackPointExtension>
            <ns3:hr>126</ns3:hr>
            <ns3:cad>56</ns3:cad>
          </ns3:TrackPointExtension>
        </extensions>
      </trkpt>
      <trkpt lat="45.3165108896791934967041015625" lon="-71.062675304710865020751953125">
        <ele>670.79998779296875</ele>
        <time>2026-08-21T22:48:55.000Z</time>
        <extensions>
          <ns3:TrackPointExtension>
            <ns3:hr>126</ns3:hr>
            <ns3:cad>58</ns3:cad>
          </ns3:TrackPointExtension>
        </extensions>
      </trkpt>
      <trkpt lat="45.3165085427463054656982421875" lon="-71.0626711137592792510986328125">
        <ele>670.79998779296875</ele>
        <time>2026-08-21T22:48:56.000Z</time>
        <extensions>
          <ns3:TrackPointExtension>
            <ns3:hr>126</ns3:hr>
            <ns3:cad>58</ns3:cad>
          </ns3:TrackPointExtension>
        </extensions>
      </trkpt>
      <trkpt lat="45.31650192104279994964599609375" lon="-71.0626660846173763275146484375">
        <ele>671</ele>
        <time>2026-08-21T22:48:57.000Z</time>
        <extensions>
          <ns3:TrackPointExtension>
            <ns3:hr>126</ns3:hr>
            <ns3:cad>58</ns3:cad>
          </ns3:TrackPointExtension>
        </extensions>
      </trkpt>
      <trkpt lat="45.31649722717702388763427734375" lon="-71.062664575874805450439453125">
        <ele>671.20001220703125</ele>
        <time>2026-08-21T22:48:58.000Z</time>
        <extensions>
          <ns3:TrackPointExtension>
            <ns3:hr>126</ns3:hr>
            <ns3:cad>53</ns3:cad>
          </ns3:TrackPointExtension>
        </extensions>
      </trkpt>
      <trkpt lat="45.31649219803512096405029296875" lon="-71.06266432441771030426025390625">
        <ele>671.4000244140625</ele>
        <time>2026-08-21T22:48:59.000Z</time>
        <extensions>
          <ns3:TrackPointExtension>
            <ns3:hr>127</ns3:hr>
            <ns3:cad>53</ns3:cad>
          </ns3:TrackPointExtension>
        </extensions>
      </trkpt>
      <trkpt lat="45.316488929092884063720703125" lon="-71.06266365386545658111572265625">
        <ele>671.5999755859375</ele>
        <time>2026-08-21T22:49:00.000Z</time>
        <extensions>
          <ns3:TrackPointExtension>
            <ns3:hr>126</ns3:hr>
            <ns3:cad>51</ns3:cad>
          </ns3:TrackPointExtension>
        </extensions>
      </trkpt>
      <trkpt lat="45.316486917436122894287109375" lon="-71.06266214512288570404052734375">
        <ele>671.79998779296875</ele>
        <time>2026-08-21T22:49:01.000Z</time>
        <extensions>
          <ns3:TrackPointExtension>
            <ns3:hr>126</ns3:hr>
            <ns3:cad>51</ns3:cad>
          </ns3:TrackPointExtension>
        </extensions>
      </trkpt>
      <trkpt lat="45.316479206085205078125" lon="-71.0626613907516002655029296875">
        <ele>672</ele>
        <time>2026-08-21T22:49:02.000Z</time>
        <extensions>
          <ns3:TrackPointExtension>
            <ns3:hr>126</ns3:hr>
            <ns3:cad>49</ns3:cad>
          </ns3:TrackPointExtension>
        </extensions>
      </trkpt>
      <trkpt lat="45.3164750151336193084716796875" lon="-71.062657535076141357421875">
        <ele>672.4000244140625</ele>
        <time>2026-08-21T22:49:03.000Z</time>
        <extensions>
          <ns3:TrackPointExtension>
            <ns3:hr>127</ns3:hr>
            <ns3:cad>49</ns3:cad>
          </ns3:TrackPointExtension>
        </extensions>
      </trkpt>
      <trkpt lat="45.31646504066884517669677734375" lon="-71.062651164829730987548828125">
        <ele>672.5999755859375</ele>
        <time>2026-08-21T22:49:04.000Z</time>
        <extensions>
          <ns3:TrackPointExtension>
            <ns3:hr>127</ns3:hr>
            <ns3:cad>49</ns3:cad>
          </ns3:TrackPointExtension>
        </extensions>
      </trkpt>
      <trkpt lat="45.3164552338421344757080078125" lon="-71.0626449622213840484619140625">
        <ele>672.79998779296875</ele>
        <time>2026-08-21T22:49:05.000Z</time>
        <extensions>
          <ns3:TrackPointExtension>
            <ns3:hr>127</ns3:hr>
            <ns3:cad>50</ns3:cad>
          </ns3:TrackPointExtension>
        </extensions>
      </trkpt>
      <trkpt lat="45.3164483606815338134765625" lon="-71.062643788754940032958984375">
        <ele>673</ele>
        <time>2026-08-21T22:49:06.000Z</time>
        <extensions>
          <ns3:TrackPointExtension>
            <ns3:hr>126</ns3:hr>
            <ns3:cad>50</ns3:cad>
          </ns3:TrackPointExtension>
        </extensions>
      </trkpt>
      <trkpt lat="45.31644207425415515899658203125" lon="-71.06263750232756137847900390625">
        <ele>673.20001220703125</ele>
        <time>2026-08-21T22:49:07.000Z</time>
        <extensions>
          <ns3:TrackPointExtension>
            <ns3:hr>126</ns3:hr>
            <ns3:cad>0</ns3:cad>
          </ns3:TrackPointExtension>
        </extensions>
      </trkpt>
      <trkpt lat="45.31643335707485675811767578125" lon="-71.06263146735727787017822265625">
        <ele>673.4000244140625</ele>
        <time>2026-08-21T22:49:08.000Z</time>
        <extensions>
          <ns3:TrackPointExtension>
            <ns3:hr>126</ns3:hr>
            <ns3:cad>0</ns3:cad>
          </ns3:TrackPointExtension>
        </extensions>
      </trkpt>
      <trkpt lat="45.31642799265682697296142578125" lon="-71.0626318864524364471435546875">
        <ele>673.5999755859375</ele>
        <time>2026-08-21T22:49:09.000Z</time>
        <extensions>
          <ns3:TrackPointExtension>
            <ns3:hr>126</ns3:hr>
            <ns3:cad>0</ns3:cad>
          </ns3:TrackPointExtension>
        </extensions>
      </trkpt>
      <trkpt lat="45.316415838897228240966796875" lon="-71.0626305453479290008544921875">
        <ele>673.79998779296875</ele>
        <time>2026-08-21T22:49:10.000Z</time>
        <extensions>
          <ns3:TrackPointExtension>
            <ns3:hr>126</ns3:hr>
            <ns3:cad>0</ns3:cad>
          </ns3:TrackPointExtension>
        </extensions>
      </trkpt>
      <trkpt lat="45.31641550362110137939453125" lon="-71.062625683844089508056640625">
        <ele>674.20001220703125</ele>
        <time>2026-08-21T22:49:11.000Z</time>
        <extensions>
          <ns3:TrackPointExtension>
            <ns3:hr>126</ns3:hr>
            <ns3:cad>0</ns3:cad>
          </ns3:TrackPointExtension>
        </extensions>
      </trkpt>
      <trkpt lat="45.31640804372727870941162109375" lon="-71.06262040324509143829345703125">
        <ele>674.4000244140625</ele>
        <time>2026-08-21T22:49:12.000Z</time>
        <extensions>
          <ns3:TrackPointExtension>
            <ns3:hr>126</ns3:hr>
            <ns3:cad>0</ns3:cad>
          </ns3:TrackPointExtension>
        </extensions>
      </trkpt>
      <trkpt lat="45.31640050001442432403564453125" lon="-71.06261772103607654571533203125">
        <ele>674.4000244140625</ele>
        <time>2026-08-21T22:49:13.000Z</time>
        <extensions>
          <ns3:TrackPointExtension>
            <ns3:hr>126</ns3:hr>
            <ns3:cad>0</ns3:cad>
          </ns3:TrackPointExtension>
        </extensions>
      </trkpt>
      <trkpt lat="45.31639295630156993865966796875" lon="-71.0626171343028545379638671875">
        <ele>674.5999755859375</ele>
        <time>2026-08-21T22:49:14.000Z</time>
        <extensions>
          <ns3:TrackPointExtension>
            <ns3:hr>126</ns3:hr>
            <ns3:cad>0</ns3:cad>
          </ns3:TrackPointExtension>
        </extensions>
      </trkpt>
      <trkpt lat="45.31638407148420810699462890625" lon="-71.0626114346086978912353515625">
        <ele>675</ele>
        <time>2026-08-21T22:49:15.000Z</time>
        <extensions>
          <ns3:TrackPointExtension>
            <ns3:hr>126</ns3:hr>
            <ns3:cad>0</ns3:cad>
          </ns3:TrackPointExtension>
        </extensions>
      </trkpt>
      <trkpt lat="45.3163761086761951446533203125" lon="-71.062606237828731536865234375">
        <ele>675</ele>
        <time>2026-08-21T22:49:16.000Z</time>
        <extensions>
          <ns3:TrackPointExtension>
            <ns3:hr>126</ns3:hr>
            <ns3:cad>0</ns3:cad>
          </ns3:TrackPointExtension>
        </extensions>
      </trkpt>
      <trkpt lat="45.3163680620491504669189453125" lon="-71.062603890895843505859375">
        <ele>675.20001220703125</ele>
        <time>2026-08-21T22:49:17.000Z</time>
        <extensions>
          <ns3:TrackPointExtension>
            <ns3:hr>126</ns3:hr>
            <ns3:cad>47</ns3:cad>
          </ns3:TrackPointExtension>
        </extensions>
      </trkpt>
      <trkpt lat="45.31635976396501064300537109375" lon="-71.062603890895843505859375">
        <ele>675.4000244140625</ele>
        <time>2026-08-21T22:49:18.000Z</time>
        <extensions>
          <ns3:TrackPointExtension>
            <ns3:hr>128</ns3:hr>
            <ns3:cad>47</ns3:cad>
          </ns3:TrackPointExtension>
        </extensions>
      </trkpt>
      <trkpt lat="45.3163563273847103118896484375" lon="-71.06260095722973346710205078125">
        <ele>675.5999755859375</ele>
        <time>2026-08-21T22:49:19.000Z</time>
        <extensions>
          <ns3:TrackPointExtension>
            <ns3:hr>129</ns3:hr>
            <ns3:cad>47</ns3:cad>
          </ns3:TrackPointExtension>
        </extensions>
      </trkpt>
      <trkpt lat="45.3163486160337924957275390625" lon="-71.06260011903941631317138671875">
        <ele>675.5999755859375</ele>
        <time>2026-08-21T22:49:20.000Z</time>
        <extensions>
          <ns3:TrackPointExtension>
            <ns3:hr>131</ns3:hr>
            <ns3:cad>47</ns3:cad>
          </ns3:TrackPointExtension>
        </extensions>
      </trkpt>
      <trkpt lat="45.31634266488254070281982421875" lon="-71.06260028667747974395751953125">
        <ele>675.79998779296875</ele>
        <time>2026-08-21T22:49:21.000Z</time>
        <extensions>
          <ns3:TrackPointExtension>
            <ns3:hr>131</ns3:hr>
            <ns3:cad>47</ns3:cad>
          </ns3:TrackPointExtension>
        </extensions>
      </trkpt>
      <trkpt lat="45.3163383901119232177734375" lon="-71.06259508989751338958740234375">
        <ele>676</ele>
        <time>2026-08-21T22:49:22.000Z</time>
        <extensions>
          <ns3:TrackPointExtension>
            <ns3:hr>132</ns3:hr>
            <ns3:cad>47</ns3:cad>
          </ns3:TrackPointExtension>
        </extensions>
      </trkpt>
      <trkpt lat="45.31633277423679828643798828125" lon="-71.06258771382272243499755859375">
        <ele>676.20001220703125</ele>
        <time>2026-08-21T22:49:23.000Z</time>
        <extensions>
          <ns3:TrackPointExtension>
            <ns3:hr>132</ns3:hr>
            <ns3:cad>47</ns3:cad>
          </ns3:TrackPointExtension>
        </extensions>
      </trkpt>
      <trkpt lat="45.3163278289139270782470703125" lon="-71.06258201412856578826904296875">
        <ele>676.4000244140625</ele>
        <time>2026-08-21T22:49:24.000Z</time>
        <extensions>
          <ns3:TrackPointExtension>
            <ns3:hr>132</ns3:hr>
            <ns3:cad>45</ns3:cad>
          </ns3:TrackPointExtension>
        </extensions>
      </trkpt>
      <trkpt lat="45.31632036902010440826416015625" lon="-71.06257413513958454132080078125">
        <ele>676.5999755859375</ele>
        <time>2026-08-21T22:49:25.000Z</time>
        <extensions>
          <ns3:TrackPointExtension>
            <ns3:hr>133</ns3:hr>
            <ns3:cad>45</ns3:cad>
          </ns3:TrackPointExtension>
        </extensions>
      </trkpt>
      <trkpt lat="45.3163181059062480926513671875" lon="-71.0625748895108699798583984375">
        <ele>677</ele>
        <time>2026-08-21T22:49:26.000Z</time>
        <extensions>
          <ns3:TrackPointExtension>
            <ns3:hr>133</ns3:hr>
            <ns3:cad>0</ns3:cad>
          </ns3:TrackPointExtension>
        </extensions>
      </trkpt>
      <trkpt lat="45.31630821526050567626953125" lon="-71.06257178820669651031494140625">
        <ele>677.20001220703125</ele>
        <time>2026-08-21T22:49:27.000Z</time>
        <extensions>
          <ns3:TrackPointExtension>
            <ns3:hr>133</ns3:hr>
            <ns3:cad>0</ns3:cad>
          </ns3:TrackPointExtension>
        </extensions>
      </trkpt>
      <trkpt lat="45.31630528159439563751220703125" lon="-71.06256969273090362548828125">
        <ele>677.4000244140625</ele>
        <time>2026-08-21T22:49:28.000Z</time>
        <extensions>
          <ns3:TrackPointExtension>
            <ns3:hr>133</ns3:hr>
            <ns3:cad>0</ns3:cad>
          </ns3:TrackPointExtension>
        </extensions>
      </trkpt>
      <trkpt lat="45.316304862499237060546875" lon="-71.06256709434092044830322265625">
        <ele>677.5999755859375</ele>
        <time>2026-08-21T22:49:29.000Z</time>
        <extensions>
          <ns3:TrackPointExtension>
            <ns3:hr>133</ns3:hr>
            <ns3:cad>0</ns3:cad>
          </ns3:TrackPointExtension>
        </extensions>
      </trkpt>
      <trkpt lat="45.31630125828087329864501953125" lon="-71.06256675906479358673095703125">
        <ele>678</ele>
        <time>2026-08-21T22:49:30.000Z</time>
        <extensions>
          <ns3:TrackPointExtension>
            <ns3:hr>133</ns3:hr>
            <ns3:cad>0</ns3:cad>
          </ns3:TrackPointExtension>
        </extensions>
      </trkpt>
      <trkpt lat="45.31629572622478008270263671875" lon="-71.0625644959509372711181640625">
        <ele>678.20001220703125</ele>
        <time>2026-08-21T22:49:31.000Z</time>
        <extensions>
          <ns3:TrackPointExtension>
            <ns3:hr>133</ns3:hr>
            <ns3:cad>0</ns3:cad>
          </ns3:TrackPointExtension>
        </extensions>
      </trkpt>
      <trkpt lat="45.31629304401576519012451171875" lon="-71.06255955062806606292724609375">
        <ele>678.4000244140625</ele>
        <time>2026-08-21T22:49:32.000Z</time>
        <extensions>
          <ns3:TrackPointExtension>
            <ns3:hr>132</ns3:hr>
            <ns3:cad>0</ns3:cad>
          </ns3:TrackPointExtension>
        </extensions>
      </trkpt>
      <trkpt lat="45.316287763416767120361328125" lon="-71.062557287514209747314453125">
        <ele>678.5999755859375</ele>
        <time>2026-08-21T22:49:33.000Z</time>
        <extensions>
          <ns3:TrackPointExtension>
            <ns3:hr>132</ns3:hr>
            <ns3:cad>0</ns3:cad>
          </ns3:TrackPointExtension>
        </extensions>
      </trkpt>
      <trkpt lat="45.3162805549800395965576171875" lon="-71.06255284510552883148193359375">
        <ele>678.79998779296875</ele>
        <time>2026-08-21T22:49:34.000Z</time>
        <extensions>
          <ns3:TrackPointExtension>
            <ns3:hr>132</ns3:hr>
            <ns3:cad>0</ns3:cad>
          </ns3:TrackPointExtension>
        </extensions>
      </trkpt>
      <trkpt lat="45.31627443619072437286376953125" lon="-71.06254915706813335418701171875">
        <ele>679</ele>
        <time>2026-08-21T22:49:35.000Z</time>
        <extensions>
          <ns3:TrackPointExtension>
            <ns3:hr>132</ns3:hr>
            <ns3:cad>0</ns3:cad>
          </ns3:TrackPointExtension>
        </extensions>
      </trkpt>
      <trkpt lat="45.3162661381065845489501953125" lon="-71.0625410266220569610595703125">
        <ele>679.20001220703125</ele>
        <time>2026-08-21T22:49:36.000Z</time>
        <extensions>
          <ns3:TrackPointExtension>
            <ns3:hr>133</ns3:hr>
            <ns3:cad>20</ns3:cad>
          </ns3:TrackPointExtension>
        </extensions>
      </trkpt>
      <trkpt lat="45.316256918013095855712890625" lon="-71.06253792531788349151611328125">
        <ele>679.4000244140625</ele>
        <time>2026-08-21T22:49:37.000Z</time>
        <extensions>
          <ns3:TrackPointExtension>
            <ns3:hr>133</ns3:hr>
            <ns3:cad>20</ns3:cad>
          </ns3:TrackPointExtension>
        </extensions>
      </trkpt>
      <trkpt lat="45.31624828465282917022705078125" lon="-71.062533147633075714111328125">
        <ele>679.5999755859375</ele>
        <time>2026-08-21T22:49:38.000Z</time>
        <extensions>
          <ns3:TrackPointExtension>
            <ns3:hr>134</ns3:hr>
            <ns3:cad>79</ns3:cad>
          </ns3:TrackPointExtension>
        </extensions>
      </trkpt>
      <trkpt lat="45.316244177520275115966796875" lon="-71.06252920813858509063720703125">
        <ele>679.79998779296875</ele>
        <time>2026-08-21T22:49:39.000Z</time>
        <extensions>
          <ns3:TrackPointExtension>
            <ns3:hr>134</ns3:hr>
            <ns3:cad>0</ns3:cad>
          </ns3:TrackPointExtension>
        </extensions>
      </trkpt>
      <trkpt lat="45.316244177520275115966796875" lon="-71.0625302977859973907470703125">
        <ele>680</ele>
        <time>2026-08-21T22:49:40.000Z</time>
        <extensions>
          <ns3:TrackPointExtension>
            <ns3:hr>134</ns3:hr>
            <ns3:cad>0</ns3:cad>
          </ns3:TrackPointExtension>
        </extensions>
      </trkpt>
      <trkpt lat="45.3162369690835475921630859375" lon="-71.0625222511589527130126953125">
        <ele>680.20001220703125</ele>
        <time>2026-08-21T22:49:41.000Z</time>
        <extensions>
          <ns3:TrackPointExtension>
            <ns3:hr>134</ns3:hr>
            <ns3:cad>0</ns3:cad>
          </ns3:TrackPointExtension>
        </extensions>
      </trkpt>
      <trkpt lat="45.31623101793229579925537109375" lon="-71.06251881457865238189697265625">
        <ele>680.4000244140625</ele>
        <time>2026-08-21T22:49:42.000Z</time>
        <extensions>
          <ns3:TrackPointExtension>
            <ns3:hr>134</ns3:hr>
            <ns3:cad>0</ns3:cad>
          </ns3:TrackPointExtension>
        </extensions>
      </trkpt>
      <trkpt lat="45.31622230075299739837646484375" lon="-71.06251630000770092010498046875">
        <ele>680.5999755859375</ele>
        <time>2026-08-21T22:49:43.000Z</time>
        <extensions>
          <ns3:TrackPointExtension>
            <ns3:hr>135</ns3:hr>
            <ns3:cad>0</ns3:cad>
          </ns3:TrackPointExtension>
        </extensions>
      </trkpt>
      <trkpt lat="45.3162178583443164825439453125" lon="-71.0625138692557811737060546875">
        <ele>680.79998779296875</ele>
        <time>2026-08-21T22:49:44.000Z</time>
        <extensions>
          <ns3:TrackPointExtension>
            <ns3:hr>135</ns3:hr>
            <ns3:cad>0</ns3:cad>
          </ns3:TrackPointExtension>
        </extensions>
      </trkpt>
      <trkpt lat="45.31621475704014301300048828125" lon="-71.06250992976129055023193359375">
        <ele>681</ele>
        <time>2026-08-21T22:49:45.000Z</time>
        <extensions>
          <ns3:TrackPointExtension>
            <ns3:hr>135</ns3:hr>
            <ns3:cad>0</ns3:cad>
          </ns3:TrackPointExtension>
        </extensions>
      </trkpt>
      <trkpt lat="45.316205956041812896728515625" lon="-71.06250573880970478057861328125">
        <ele>681.20001220703125</ele>
        <time>2026-08-21T22:49:46.000Z</time>
        <extensions>
          <ns3:TrackPointExtension>
            <ns3:hr>135</ns3:hr>
            <ns3:cad>0</ns3:cad>
          </ns3:TrackPointExtension>
        </extensions>
      </trkpt>
      <trkpt lat="45.3161933831870555877685546875" lon="-71.06249014846980571746826171875">
        <ele>681.20001220703125</ele>
        <time>2026-08-21T22:49:47.000Z</time>
        <extensions>
          <ns3:TrackPointExtension>
            <ns3:hr>135</ns3:hr>
            <ns3:cad>0</ns3:cad>
          </ns3:TrackPointExtension>
        </extensions>
      </trkpt>
      <trkpt lat="45.316185168921947479248046875" lon="-71.0624840296804904937744140625">
        <ele>681.4000244140625</ele>
        <time>2026-08-21T22:49:48.000Z</time>
        <extensions>
          <ns3:TrackPointExtension>
            <ns3:hr>136</ns3:hr>
            <ns3:cad>19</ns3:cad>
          </ns3:TrackPointExtension>
        </extensions>
      </trkpt>
      <trkpt lat="45.31617502681910991668701171875" lon="-71.06247556395828723907470703125">
        <ele>681.5999755859375</ele>
        <time>2026-08-21T22:49:49.000Z</time>
        <extensions>
          <ns3:TrackPointExtension>
            <ns3:hr>136</ns3:hr>
            <ns3:cad>19</ns3:cad>
          </ns3:TrackPointExtension>
        </extensions>
      </trkpt>
      <trkpt lat="45.31615893356502056121826171875" lon="-71.06247036717832088470458984375">
        <ele>681.79998779296875</ele>
        <time>2026-08-21T22:49:50.000Z</time>
        <extensions>
          <ns3:TrackPointExtension>
            <ns3:hr>136</ns3:hr>
            <ns3:cad>19</ns3:cad>
          </ns3:TrackPointExtension>
        </extensions>
      </trkpt>
      <trkpt lat="45.31615532934665679931640625" lon="-71.06246818788349628448486328125">
        <ele>682</ele>
        <time>2026-08-21T22:49:51.000Z</time>
        <extensions>
          <ns3:TrackPointExtension>
            <ns3:hr>137</ns3:hr>
            <ns3:cad>19</ns3:cad>
          </ns3:TrackPointExtension>
        </extensions>
      </trkpt>
      <trkpt lat="45.31614887528121471405029296875" lon="-71.06246282346546649932861328125">
        <ele>682.20001220703125</ele>
        <time>2026-08-21T22:49:52.000Z</time>
        <extensions>
          <ns3:TrackPointExtension>
            <ns3:hr>137</ns3:hr>
            <ns3:cad>19</ns3:cad>
          </ns3:TrackPointExtension>
        </extensions>
      </trkpt>
      <trkpt lat="45.31613982282578945159912109375" lon="-71.0624525137245655059814453125">
        <ele>682.4000244140625</ele>
        <time>2026-08-21T22:49:53.000Z</time>
        <extensions>
          <ns3:TrackPointExtension>
            <ns3:hr>138</ns3:hr>
            <ns3:cad>0</ns3:cad>
          </ns3:TrackPointExtension>
        </extensions>
      </trkpt>
      <trkpt lat="45.31613077037036418914794921875" lon="-71.062446646392345428466796875">
        <ele>682.5999755859375</ele>
        <time>2026-08-21T22:49:54.000Z</time>
        <extensions>
          <ns3:TrackPointExtension>
            <ns3:hr>138</ns3:hr>
            <ns3:cad>0</ns3:cad>
          </ns3:TrackPointExtension>
        </extensions>
      </trkpt>
      <trkpt lat="45.3161212988197803497314453125" lon="-71.06243968941271305084228515625">
        <ele>682.79998779296875</ele>
        <time>2026-08-21T22:49:55.000Z</time>
        <extensions>
          <ns3:TrackPointExtension>
            <ns3:hr>137</ns3:hr>
            <ns3:cad>0</ns3:cad>
          </ns3:TrackPointExtension>
        </extensions>
      </trkpt>
      <trkpt lat="45.31610897742211818695068359375" lon="-71.06243365444242954254150390625">
        <ele>682.79998779296875</ele>
        <time>2026-08-21T22:49:56.000Z</time>
        <extensions>
          <ns3:TrackPointExtension>
            <ns3:hr>137</ns3:hr>
            <ns3:cad>79</ns3:cad>
          </ns3:TrackPointExtension>
        </extensions>
      </trkpt>
      <trkpt lat="45.316099338233470916748046875" lon="-71.06242963112890720367431640625">
        <ele>683</ele>
        <time>2026-08-21T22:49:57.000Z</time>
        <extensions>
          <ns3:TrackPointExtension>
            <ns3:hr>137</ns3:hr>
            <ns3:cad>79</ns3:cad>
          </ns3:TrackPointExtension>
        </extensions>
      </trkpt>
      <trkpt lat="45.3160881064832210540771484375" lon="-71.0624220035970211029052734375">
        <ele>683.20001220703125</ele>
        <time>2026-08-21T22:49:58.000Z</time>
        <extensions>
          <ns3:TrackPointExtension>
            <ns3:hr>137</ns3:hr>
            <ns3:cad>79</ns3:cad>
          </ns3:TrackPointExtension>
        </extensions>
      </trkpt>
      <trkpt lat="45.31607679091393947601318359375" lon="-71.06241546571254730224609375">
        <ele>683.20001220703125</ele>
        <time>2026-08-21T22:49:59.000Z</time>
        <extensions>
          <ns3:TrackPointExtension>
            <ns3:hr>137</ns3:hr>
            <ns3:cad>79</ns3:cad>
          </ns3:TrackPointExtension>
        </extensions>
      </trkpt>
      <trkpt lat="45.3160639666020870208740234375" lon="-71.0624065808951854705810546875">
        <ele>683.4000244140625</ele>
        <time>2026-08-21T22:50:00.000Z</time>
        <extensions>
          <ns3:TrackPointExtension>
            <ns3:hr>138</ns3:hr>
            <ns3:cad>0</ns3:cad>
          </ns3:TrackPointExtension>
        </extensions>
      </trkpt>
      <trkpt lat="45.31605348922312259674072265625" lon="-71.06240264140069484710693359375">
        <ele>683.4000244140625</ele>
        <time>2026-08-21T22:50:01.000Z</time>
        <extensions>
          <ns3:TrackPointExtension>
            <ns3:hr>138</ns3:hr>
            <ns3:cad>0</ns3:cad>
          </ns3:TrackPointExtension>
        </extensions>
      </trkpt>
      <trkpt lat="45.316040329635143280029296875" lon="-71.0624013841152191162109375">
        <ele>683.5999755859375</ele>
        <time>2026-08-21T22:50:02.000Z</time>
        <extensions>
          <ns3:TrackPointExtension>
            <ns3:hr>138</ns3:hr>
            <ns3:cad>0</ns3:cad>
          </ns3:TrackPointExtension>
        </extensions>
      </trkpt>
      <trkpt lat="45.3160272538661956787109375" lon="-71.06240431778132915496826171875">
        <ele>683.79998779296875</ele>
        <time>2026-08-21T22:50:03.000Z</time>
        <extensions>
          <ns3:TrackPointExtension>
            <ns3:hr>138</ns3:hr>
            <ns3:cad>0</ns3:cad>
          </ns3:TrackPointExtension>
        </extensions>
      </trkpt>
      <trkpt lat="45.31602180562913417816162109375" lon="-71.0624042339622974395751953125">
        <ele>684</ele>
        <time>2026-08-21T22:50:04.000Z</time>
        <extensions>
          <ns3:TrackPointExtension>
            <ns3:hr>139</ns3:hr>
            <ns3:cad>0</ns3:cad>
          </ns3:TrackPointExtension>
        </extensions>
      </trkpt>
      <trkpt lat="45.316013507544994354248046875" lon="-71.06240314431488513946533203125">
        <ele>684</ele>
        <time>2026-08-21T22:50:05.000Z</time>
        <extensions>
          <ns3:TrackPointExtension>
            <ns3:hr>139</ns3:hr>
            <ns3:cad>0</ns3:cad>
          </ns3:TrackPointExtension>
        </extensions>
      </trkpt>
      <trkpt lat="45.31600722111761569976806640625" lon="-71.06240364722907543182373046875">
        <ele>684.20001220703125</ele>
        <time>2026-08-21T22:50:06.000Z</time>
        <extensions>
          <ns3:TrackPointExtension>
            <ns3:hr>140</ns3:hr>
            <ns3:cad>0</ns3:cad>
          </ns3:TrackPointExtension>
        </extensions>
      </trkpt>
      <trkpt lat="45.31598878093063831329345703125" lon="-71.06240934692323207855224609375">
        <ele>684.4000244140625</ele>
        <time>2026-08-21T22:50:07.000Z</time>
        <extensions>
          <ns3:TrackPointExtension>
            <ns3:hr>140</ns3:hr>
            <ns3:cad>0</ns3:cad>
          </ns3:TrackPointExtension>
        </extensions>
      </trkpt>
      <trkpt lat="45.3159764595329761505126953125" lon="-71.06241001747548580169677734375">
        <ele>684.79998779296875</ele>
        <time>2026-08-21T22:50:08.000Z</time>
        <extensions>
          <ns3:TrackPointExtension>
            <ns3:hr>140</ns3:hr>
            <ns3:cad>0</ns3:cad>
          </ns3:TrackPointExtension>
        </extensions>
      </trkpt>
      <trkpt lat="45.315964221954345703125" lon="-71.062407754361629486083984375">
        <ele>685</ele>
        <time>2026-08-21T22:50:09.000Z</time>
        <extensions>
          <ns3:TrackPointExtension>
            <ns3:hr>140</ns3:hr>
            <ns3:cad>0</ns3:cad>
          </ns3:TrackPointExtension>
        </extensions>
      </trkpt>
      <trkpt lat="45.3159503079950809478759765625" lon="-71.06240482069551944732666015625">
        <ele>685.20001220703125</ele>
        <time>2026-08-21T22:50:10.000Z</time>
        <extensions>
          <ns3:TrackPointExtension>
            <ns3:hr>140</ns3:hr>
            <ns3:cad>0</ns3:cad>
          </ns3:TrackPointExtension>
        </extensions>
      </trkpt>
      <trkpt lat="45.315939076244831085205078125" lon="-71.0624002106487751007080078125">
        <ele>685.4000244140625</ele>
        <time>2026-08-21T22:50:11.000Z</time>
        <extensions>
          <ns3:TrackPointExtension>
            <ns3:hr>140</ns3:hr>
            <ns3:cad>0</ns3:cad>
          </ns3:TrackPointExtension>
        </extensions>
      </trkpt>
      <trkpt lat="45.31593077816069126129150390625" lon="-71.0624002106487751007080078125">
        <ele>685.5999755859375</ele>
        <time>2026-08-21T22:50:12.000Z</time>
        <extensions>
          <ns3:TrackPointExtension>
            <ns3:hr>140</ns3:hr>
            <ns3:cad>0</ns3:cad>
          </ns3:TrackPointExtension>
        </extensions>
      </trkpt>
      <trkpt lat="45.3159226477146148681640625" lon="-71.06240079738199710845947265625">
        <ele>685.79998779296875</ele>
        <time>2026-08-21T22:50:13.000Z</time>
        <extensions>
          <ns3:TrackPointExtension>
            <ns3:hr>140</ns3:hr>
            <ns3:cad>0</ns3:cad>
          </ns3:TrackPointExtension>
        </extensions>
      </trkpt>
      <trkpt lat="45.31591518782079219818115234375" lon="-71.062403731048107147216796875">
        <ele>685.79998779296875</ele>
        <time>2026-08-21T22:50:14.000Z</time>
        <extensions>
          <ns3:TrackPointExtension>
            <ns3:hr>140</ns3:hr>
            <ns3:cad>0</ns3:cad>
          </ns3:TrackPointExtension>
        </extensions>
      </trkpt>
      <trkpt lat="45.3159110806882381439208984375" lon="-71.0624040663242340087890625">
        <ele>686</ele>
        <time>2026-08-21T22:50:15.000Z</time>
        <extensions>
          <ns3:TrackPointExtension>
            <ns3:hr>140</ns3:hr>
            <ns3:cad>0</ns3:cad>
          </ns3:TrackPointExtension>
        </extensions>
      </trkpt>
      <trkpt lat="45.3159006871283054351806640625" lon="-71.0624072514474391937255859375">
        <ele>686.20001220703125</ele>
        <time>2026-08-21T22:50:16.000Z</time>
        <extensions>
          <ns3:TrackPointExtension>
            <ns3:hr>139</ns3:hr>
            <ns3:cad>0</ns3:cad>
          </ns3:TrackPointExtension>
        </extensions>
      </trkpt>
      <trkpt lat="45.315894819796085357666015625" lon="-71.062412448227405548095703125">
        <ele>686.4000244140625</ele>
        <time>2026-08-21T22:50:17.000Z</time>
        <extensions>
          <ns3:TrackPointExtension>
            <ns3:hr>139</ns3:hr>
            <ns3:cad>0</ns3:cad>
          </ns3:TrackPointExtension>
        </extensions>
      </trkpt>
      <trkpt lat="45.315889455378055572509765625" lon="-71.06241487897932529449462890625">
        <ele>686.5999755859375</ele>
        <time>2026-08-21T22:50:18.000Z</time>
        <extensions>
          <ns3:TrackPointExtension>
            <ns3:hr>139</ns3:hr>
            <ns3:cad>0</ns3:cad>
          </ns3:TrackPointExtension>
        </extensions>
      </trkpt>
      <trkpt lat="45.3158824145793914794921875" lon="-71.06242091394960880279541015625">
        <ele>686.79998779296875</ele>
        <time>2026-08-21T22:50:19.000Z</time>
        <extensions>
          <ns3:TrackPointExtension>
            <ns3:hr>140</ns3:hr>
            <ns3:cad>0</ns3:cad>
          </ns3:TrackPointExtension>
        </extensions>
      </trkpt>
      <trkpt lat="45.3158748708665370941162109375" lon="-71.06242443434894084930419921875">
        <ele>687</ele>
        <time>2026-08-21T22:50:20.000Z</time>
        <extensions>
          <ns3:TrackPointExtension>
            <ns3:hr>140</ns3:hr>
            <ns3:cad>0</ns3:cad>
          </ns3:TrackPointExtension>
        </extensions>
      </trkpt>
      <trkpt lat="45.31586699187755584716796875" lon="-71.0624297149479389190673828125">
        <ele>687.4000244140625</ele>
        <time>2026-08-21T22:50:21.000Z</time>
        <extensions>
          <ns3:TrackPointExtension>
            <ns3:hr>140</ns3:hr>
            <ns3:cad>0</ns3:cad>
          </ns3:TrackPointExtension>
        </extensions>
      </trkpt>
      <trkpt lat="45.3158624656498432159423828125" lon="-71.062437593936920166015625">
        <ele>687.5999755859375</ele>
        <time>2026-08-21T22:50:22.000Z</time>
        <extensions>
          <ns3:TrackPointExtension>
            <ns3:hr>140</ns3:hr>
            <ns3:cad>0</ns3:cad>
          </ns3:TrackPointExtension>
        </extensions>
      </trkpt>
      <trkpt lat="45.315859951078891754150390625" lon="-71.06244505383074283599853515625">
        <ele>687.79998779296875</ele>
        <time>2026-08-21T22:50:23.000Z</time>
        <extensions>
          <ns3:TrackPointExtension>
            <ns3:hr>140</ns3:hr>
            <ns3:cad>0</ns3:cad>
          </ns3:TrackPointExtension>
        </extensions>
      </trkpt>
      <trkpt lat="45.3158537484705448150634765625" lon="-71.0624535195529460906982421875">
        <ele>688</ele>
        <time>2026-08-21T22:50:24.000Z</time>
        <extensions>
          <ns3:TrackPointExtension>
            <ns3:hr>140</ns3:hr>
            <ns3:cad>0</ns3:cad>
          </ns3:TrackPointExtension>
        </extensions>
      </trkpt>
      <trkpt lat="45.31584595330059528350830078125" lon="-71.06246148236095905303955078125">
        <ele>688.20001220703125</ele>
        <time>2026-08-21T22:50:25.000Z</time>
        <extensions>
          <ns3:TrackPointExtension>
            <ns3:hr>139</ns3:hr>
            <ns3:cad>43</ns3:cad>
          </ns3:TrackPointExtension>
        </extensions>
      </trkpt>
      <trkpt lat="45.3158436901867389678955078125" lon="-71.06246517039835453033447265625">
        <ele>688.4000244140625</ele>
        <time>2026-08-21T22:50:26.000Z</time>
        <extensions>
          <ns3:TrackPointExtension>
            <ns3:hr>140</ns3:hr>
            <ns3:cad>43</ns3:cad>
          </ns3:TrackPointExtension>
        </extensions>
      </trkpt>
      <trkpt lat="45.3158400021493434906005859375" lon="-71.06246952898800373077392578125">
        <ele>688.5999755859375</ele>
        <time>2026-08-21T22:50:27.000Z</time>
        <extensions>
          <ns3:TrackPointExtension>
            <ns3:hr>140</ns3:hr>
            <ns3:cad>0</ns3:cad>
          </ns3:TrackPointExtension>
        </extensions>
      </trkpt>
      <trkpt lat="45.31583673320710659027099609375" lon="-71.0624803416430950164794921875">
        <ele>688.79998779296875</ele>
        <time>2026-08-21T22:50:28.000Z</time>
        <extensions>
          <ns3:TrackPointExtension>
            <ns3:hr>140</ns3:hr>
            <ns3:cad>0</ns3:cad>
          </ns3:TrackPointExtension>
        </extensions>
      </trkpt>
      <trkpt lat="45.3158341348171234130859375" lon="-71.0624877177178859710693359375">
        <ele>689</ele>
        <time>2026-08-21T22:50:29.000Z</time>
        <extensions>
          <ns3:TrackPointExtension>
            <ns3:hr>139</ns3:hr>
            <ns3:cad>0</ns3:cad>
          </ns3:TrackPointExtension>
        </extensions>
      </trkpt>
      <trkpt lat="45.3158299438655376434326171875" lon="-71.062496267259120941162109375">
        <ele>689.20001220703125</ele>
        <time>2026-08-21T22:50:30.000Z</time>
        <extensions>
          <ns3:TrackPointExtension>
            <ns3:hr>138</ns3:hr>
            <ns3:cad>0</ns3:cad>
          </ns3:TrackPointExtension>
        </extensions>
      </trkpt>
      <trkpt lat="45.3158222325146198272705078125" lon="-71.0625006258487701416015625">
        <ele>689.4000244140625</ele>
        <time>2026-08-21T22:50:31.000Z</time>
        <extensions>
          <ns3:TrackPointExtension>
            <ns3:hr>138</ns3:hr>
            <ns3:cad>0</ns3:cad>
          </ns3:TrackPointExtension>
        </extensions>
      </trkpt>
      <trkpt lat="45.31581879593431949615478515625" lon="-71.0625071637332439422607421875">
        <ele>689.5999755859375</ele>
        <time>2026-08-21T22:50:32.000Z</time>
        <extensions>
          <ns3:TrackPointExtension>
            <ns3:hr>138</ns3:hr>
            <ns3:cad>0</ns3:cad>
          </ns3:TrackPointExtension>
        </extensions>
      </trkpt>
      <trkpt lat="45.3158131800591945648193359375" lon="-71.0625152103602886199951171875">
        <ele>689.79998779296875</ele>
        <time>2026-08-21T22:50:33.000Z</time>
        <extensions>
          <ns3:TrackPointExtension>
            <ns3:hr>137</ns3:hr>
            <ns3:cad>0</ns3:cad>
          </ns3:TrackPointExtension>
        </extensions>
      </trkpt>
      <trkpt lat="45.31580924056470394134521484375" lon="-71.06253004632890224456787109375">
        <ele>690</ele>
        <time>2026-08-21T22:50:34.000Z</time>
        <extensions>
          <ns3:TrackPointExtension>
            <ns3:hr>137</ns3:hr>
            <ns3:cad>0</ns3:cad>
          </ns3:TrackPointExtension>
        </extensions>
      </trkpt>
      <trkpt lat="45.3158041276037693023681640625" lon="-71.06254362501204013824462890625">
        <ele>690</ele>
        <time>2026-08-21T22:50:35.000Z</time>
        <extensions>
          <ns3:TrackPointExtension>
            <ns3:hr>138</ns3:hr>
            <ns3:cad>0</ns3:cad>
          </ns3:TrackPointExtension>
        </extensions>
      </trkpt>
      <trkpt lat="45.31579859554767608642578125" lon="-71.06255820952355861663818359375">
        <ele>690.20001220703125</ele>
        <time>2026-08-21T22:50:36.000Z</time>
        <extensions>
          <ns3:TrackPointExtension>
            <ns3:hr>138</ns3:hr>
            <ns3:cad>43</ns3:cad>
          </ns3:TrackPointExtension>
        </extensions>
      </trkpt>
      <trkpt lat="45.31579147092998027801513671875" lon="-71.06257178820669651031494140625">
        <ele>690.4000244140625</ele>
        <time>2026-08-21T22:50:37.000Z</time>
        <extensions>
          <ns3:TrackPointExtension>
            <ns3:hr>138</ns3:hr>
            <ns3:cad>43</ns3:cad>
          </ns3:TrackPointExtension>
        </extensions>
      </trkpt>
      <trkpt lat="45.3157826699316501617431640625" lon="-71.0625869594514369964599609375">
        <ele>690.5999755859375</ele>
        <time>2026-08-21T22:50:38.000Z</time>
        <extensions>
          <ns3:TrackPointExtension>
            <ns3:hr>138</ns3:hr>
            <ns3:cad>43</ns3:cad>
          </ns3:TrackPointExtension>
        </extensions>
      </trkpt>
      <trkpt lat="45.31577940098941326141357421875" lon="-71.06260045431554317474365234375">
        <ele>690.5999755859375</ele>
        <time>2026-08-21T22:50:39.000Z</time>
        <extensions>
          <ns3:TrackPointExtension>
            <ns3:hr>139</ns3:hr>
            <ns3:cad>43</ns3:cad>
          </ns3:TrackPointExtension>
        </extensions>
      </trkpt>
      <trkpt lat="45.31577772460877895355224609375" lon="-71.06260833330452442169189453125">
        <ele>690.79998779296875</ele>
        <time>2026-08-21T22:50:40.000Z</time>
        <extensions>
          <ns3:TrackPointExtension>
            <ns3:hr>138</ns3:hr>
            <ns3:cad>43</ns3:cad>
          </ns3:TrackPointExtension>
        </extensions>
      </trkpt>
      <trkpt lat="45.31577177345752716064453125" lon="-71.06262459419667720794677734375">
        <ele>691</ele>
        <time>2026-08-21T22:50:41.000Z</time>
        <extensions>
          <ns3:TrackPointExtension>
            <ns3:hr>138</ns3:hr>
            <ns3:cad>43</ns3:cad>
          </ns3:TrackPointExtension>
        </extensions>
      </trkpt>
      <trkpt lat="45.31576297245919704437255859375" lon="-71.06263280846178531646728515625">
        <ele>691.20001220703125</ele>
        <time>2026-08-21T22:50:42.000Z</time>
        <extensions>
          <ns3:TrackPointExtension>
            <ns3:hr>138</ns3:hr>
            <ns3:cad>43</ns3:cad>
          </ns3:TrackPointExtension>
        </extensions>
      </trkpt>
      <trkpt lat="45.3157555125653743743896484375" lon="-71.0626496560871601104736328125">
        <ele>691.4000244140625</ele>
        <time>2026-08-21T22:50:43.000Z</time>
        <extensions>
          <ns3:TrackPointExtension>
            <ns3:hr>138</ns3:hr>
            <ns3:cad>43</ns3:cad>
          </ns3:TrackPointExtension>
        </extensions>
      </trkpt>
      <trkpt lat="45.3157531656324863433837890625" lon="-71.06265954673290252685546875">
        <ele>691.5999755859375</ele>
        <time>2026-08-21T22:50:44.000Z</time>
        <extensions>
          <ns3:TrackPointExtension>
            <ns3:hr>138</ns3:hr>
            <ns3:cad>45</ns3:cad>
          </ns3:TrackPointExtension>
        </extensions>
      </trkpt>
      <trkpt lat="45.3157437779009342193603515625" lon="-71.0626754723489284515380859375">
        <ele>691.79998779296875</ele>
        <time>2026-08-21T22:50:45.000Z</time>
        <extensions>
          <ns3:TrackPointExtension>
            <ns3:hr>138</ns3:hr>
            <ns3:cad>45</ns3:cad>
          </ns3:TrackPointExtension>
        </extensions>
      </trkpt>
      <trkpt lat="45.3157323785126209259033203125" lon="-71.0626919008791446685791015625">
        <ele>691.79998779296875</ele>
        <time>2026-08-21T22:50:46.000Z</time>
        <extensions>
          <ns3:TrackPointExtension>
            <ns3:hr>138</ns3:hr>
            <ns3:cad>44</ns3:cad>
          </ns3:TrackPointExtension>
        </extensions>
      </trkpt>
      <trkpt lat="45.31572625972330570220947265625" lon="-71.06269751675426959991455078125">
        <ele>692</ele>
        <time>2026-08-21T22:50:47.000Z</time>
        <extensions>
          <ns3:TrackPointExtension>
            <ns3:hr>138</ns3:hr>
            <ns3:cad>44</ns3:cad>
          </ns3:TrackPointExtension>
        </extensions>
      </trkpt>
      <trkpt lat="45.3157193027436733245849609375" lon="-71.06271059252321720123291015625">
        <ele>692.20001220703125</ele>
        <time>2026-08-21T22:50:48.000Z</time>
        <extensions>
          <ns3:TrackPointExtension>
            <ns3:hr>139</ns3:hr>
            <ns3:cad>44</ns3:cad>
          </ns3:TrackPointExtension>
        </extensions>
      </trkpt>
      <trkpt lat="45.3157079033553600311279296875" lon="-71.06272433884441852569580078125">
        <ele>692.4000244140625</ele>
        <time>2026-08-21T22:50:49.000Z</time>
        <extensions>
          <ns3:TrackPointExtension>
            <ns3:hr>139</ns3:hr>
            <ns3:cad>47</ns3:cad>
          </ns3:TrackPointExtension>
        </extensions>
      </trkpt>
      <trkpt lat="45.31569826416671276092529296875" lon="-71.06273255310952663421630859375">
        <ele>692.5999755859375</ele>
        <time>2026-08-21T22:50:50.000Z</time>
        <extensions>
          <ns3:TrackPointExtension>
            <ns3:hr>139</ns3:hr>
            <ns3:cad>47</ns3:cad>
          </ns3:TrackPointExtension>
        </extensions>
      </trkpt>
      <trkpt lat="45.3156901337206363677978515625" lon="-71.062745042145252227783203125">
        <ele>692.79998779296875</ele>
        <time>2026-08-21T22:50:51.000Z</time>
        <extensions>
          <ns3:TrackPointExtension>
            <ns3:hr>138</ns3:hr>
            <ns3:cad>48</ns3:cad>
          </ns3:TrackPointExtension>
        </extensions>
      </trkpt>
      <trkpt lat="45.3156797401607036590576171875" lon="-71.0627582855522632598876953125">
        <ele>693</ele>
        <time>2026-08-21T22:50:52.000Z</time>
        <extensions>
          <ns3:TrackPointExtension>
            <ns3:hr>138</ns3:hr>
            <ns3:cad>48</ns3:cad>
          </ns3:TrackPointExtension>
        </extensions>
      </trkpt>
      <trkpt lat="45.31567177735269069671630859375" lon="-71.06276826001703739166259765625">
        <ele>693.20001220703125</ele>
        <time>2026-08-21T22:50:53.000Z</time>
        <extensions>
          <ns3:TrackPointExtension>
            <ns3:hr>138</ns3:hr>
            <ns3:cad>48</ns3:cad>
          </ns3:TrackPointExtension>
        </extensions>
      </trkpt>
      <trkpt lat="45.31566725112497806549072265625" lon="-71.06277496553957462310791015625">
        <ele>693.4000244140625</ele>
        <time>2026-08-21T22:50:54.000Z</time>
        <extensions>
          <ns3:TrackPointExtension>
            <ns3:hr>138</ns3:hr>
            <ns3:cad>48</ns3:cad>
          </ns3:TrackPointExtension>
        </extensions>
      </trkpt>
      <trkpt lat="45.3156582824885845184326171875" lon="-71.06278535909950733184814453125">
        <ele>693.5999755859375</ele>
        <time>2026-08-21T22:50:55.000Z</time>
        <extensions>
          <ns3:TrackPointExtension>
            <ns3:hr>139</ns3:hr>
            <ns3:cad>48</ns3:cad>
          </ns3:TrackPointExtension>
        </extensions>
      </trkpt>
      <trkpt lat="45.31564772129058837890625" lon="-71.06279491446912288665771484375">
        <ele>693.79998779296875</ele>
        <time>2026-08-21T22:50:56.000Z</time>
        <extensions>
          <ns3:TrackPointExtension>
            <ns3:hr>139</ns3:hr>
            <ns3:cad>48</ns3:cad>
          </ns3:TrackPointExtension>
        </extensions>
      </trkpt>
      <trkpt lat="45.31563858501613140106201171875" lon="-71.06280648149549961090087890625">
        <ele>693.79998779296875</ele>
        <time>2026-08-21T22:50:57.000Z</time>
        <extensions>
          <ns3:TrackPointExtension>
            <ns3:hr>139</ns3:hr>
            <ns3:cad>48</ns3:cad>
          </ns3:TrackPointExtension>
        </extensions>
      </trkpt>
      <trkpt lat="45.315634310245513916015625" lon="-71.06281251646578311920166015625">
        <ele>694</ele>
        <time>2026-08-21T22:50:58.000Z</time>
        <extensions>
          <ns3:TrackPointExtension>
            <ns3:hr>139</ns3:hr>
            <ns3:cad>48</ns3:cad>
          </ns3:TrackPointExtension>
        </extensions>
      </trkpt>
      <trkpt lat="45.31562567688524723052978515625" lon="-71.06282190419733524322509765625">
        <ele>694.20001220703125</ele>
        <time>2026-08-21T22:50:59.000Z</time>
        <extensions>
          <ns3:TrackPointExtension>
            <ns3:hr>140</ns3:hr>
            <ns3:cad>48</ns3:cad>
          </ns3:TrackPointExtension>
        </extensions>
      </trkpt>
      <trkpt lat="45.315618552267551422119140625" lon="-71.06283598579466342926025390625">
        <ele>694.4000244140625</ele>
        <time>2026-08-21T22:51:00.000Z</time>
        <extensions>
          <ns3:TrackPointExtension>
            <ns3:hr>140</ns3:hr>
            <ns3:cad>48</ns3:cad>
          </ns3:TrackPointExtension>
        </extensions>
      </trkpt>
      <trkpt lat="45.3156116791069507598876953125" lon="-71.06284671463072299957275390625">
        <ele>694.5999755859375</ele>
        <time>2026-08-21T22:51:01.000Z</time>
        <extensions>
          <ns3:TrackPointExtension>
            <ns3:hr>140</ns3:hr>
            <ns3:cad>47</ns3:cad>
          </ns3:TrackPointExtension>
        </extensions>
      </trkpt>
      <trkpt lat="45.3156034648418426513671875" lon="-71.06285643763840198516845703125">
        <ele>694.79998779296875</ele>
        <time>2026-08-21T22:51:02.000Z</time>
        <extensions>
          <ns3:TrackPointExtension>
            <ns3:hr>140</ns3:hr>
            <ns3:cad>47</ns3:cad>
          </ns3:TrackPointExtension>
        </extensions>
      </trkpt>
      <trkpt lat="45.31559684313833713531494140625" lon="-71.06286347843706607818603515625">
        <ele>695</ele>
        <time>2026-08-21T22:51:03.000Z</time>
        <extensions>
          <ns3:TrackPointExtension>
            <ns3:hr>140</ns3:hr>
            <ns3:cad>47</ns3:cad>
          </ns3:TrackPointExtension>
        </extensions>
      </trkpt>
      <trkpt lat="45.3155858628451824188232421875" lon="-71.06287772767245769500732421875">
        <ele>695</ele>
        <time>2026-08-21T22:51:04.000Z</time>
        <extensions>
          <ns3:TrackPointExtension>
            <ns3:hr>140</ns3:hr>
            <ns3:cad>47</ns3:cad>
          </ns3:TrackPointExtension>
        </extensions>
      </trkpt>
      <trkpt lat="45.31557404436171054840087890625" lon="-71.06288393028080463409423828125">
        <ele>695.20001220703125</ele>
        <time>2026-08-21T22:51:05.000Z</time>
        <extensions>
          <ns3:TrackPointExtension>
            <ns3:hr>140</ns3:hr>
            <ns3:cad>47</ns3:cad>
          </ns3:TrackPointExtension>
        </extensions>
      </trkpt>
      <trkpt lat="45.3155690990388393402099609375" lon="-71.06289080344140529632568359375">
        <ele>695.4000244140625</ele>
        <time>2026-08-21T22:51:06.000Z</time>
        <extensions>
          <ns3:TrackPointExtension>
            <ns3:hr>140</ns3:hr>
            <ns3:cad>47</ns3:cad>
          </ns3:TrackPointExtension>
        </extensions>
      </trkpt>
      <trkpt lat="45.3155674226582050323486328125" lon="-71.0628922283649444580078125">
        <ele>695.5999755859375</ele>
        <time>2026-08-21T22:51:07.000Z</time>
        <extensions>
          <ns3:TrackPointExtension>
            <ns3:hr>140</ns3:hr>
            <ns3:cad>47</ns3:cad>
          </ns3:TrackPointExtension>
        </extensions>
      </trkpt>
      <trkpt lat="45.31556298024952411651611328125" lon="-71.0628980956971645355224609375">
        <ele>695.79998779296875</ele>
        <time>2026-08-21T22:51:08.000Z</time>
        <extensions>
          <ns3:TrackPointExtension>
            <ns3:hr>139</ns3:hr>
            <ns3:cad>46</ns3:cad>
          </ns3:TrackPointExtension>
        </extensions>
      </trkpt>
      <trkpt lat="45.31555744819343090057373046875" lon="-71.06290102936327457427978515625">
        <ele>696</ele>
        <time>2026-08-21T22:51:09.000Z</time>
        <extensions>
          <ns3:TrackPointExtension>
            <ns3:hr>139</ns3:hr>
            <ns3:cad>46</ns3:cad>
          </ns3:TrackPointExtension>
        </extensions>
      </trkpt>
      <trkpt lat="45.31555208377540111541748046875" lon="-71.0629021190106868743896484375">
        <ele>696.4000244140625</ele>
        <time>2026-08-21T22:51:10.000Z</time>
        <extensions>
          <ns3:TrackPointExtension>
            <ns3:hr>139</ns3:hr>
            <ns3:cad>0</ns3:cad>
          </ns3:TrackPointExtension>
        </extensions>
      </trkpt>
      <trkpt lat="45.31554671935737133026123046875" lon="-71.06290354393422603607177734375">
        <ele>696.5999755859375</ele>
        <time>2026-08-21T22:51:11.000Z</time>
        <extensions>
          <ns3:TrackPointExtension>
            <ns3:hr>139</ns3:hr>
            <ns3:cad>0</ns3:cad>
          </ns3:TrackPointExtension>
        </extensions>
      </trkpt>
      <trkpt lat="45.3155426122248172760009765625" lon="-71.06289868243038654327392578125">
        <ele>696.79998779296875</ele>
        <time>2026-08-21T22:51:12.000Z</time>
        <extensions>
          <ns3:TrackPointExtension>
            <ns3:hr>139</ns3:hr>
            <ns3:cad>0</ns3:cad>
          </ns3:TrackPointExtension>
        </extensions>
      </trkpt>
      <trkpt lat="45.31554034911096096038818359375" lon="-71.06289449147880077362060546875">
        <ele>697</ele>
        <time>2026-08-21T22:51:13.000Z</time>
        <extensions>
          <ns3:TrackPointExtension>
            <ns3:hr>140</ns3:hr>
            <ns3:cad>0</ns3:cad>
          </ns3:TrackPointExtension>
        </extensions>
      </trkpt>
      <trkpt lat="45.31553347595036029815673828125" lon="-71.062888540327548980712890625">
        <ele>697.20001220703125</ele>
        <time>2026-08-21T22:51:14.000Z</time>
        <extensions>
          <ns3:TrackPointExtension>
            <ns3:hr>140</ns3:hr>
            <ns3:cad>0</ns3:cad>
          </ns3:TrackPointExtension>
        </extensions>
      </trkpt>
      <trkpt lat="45.31552643515169620513916015625" lon="-71.06288091279566287994384765625">
        <ele>697.4000244140625</ele>
        <time>2026-08-21T22:51:15.000Z</time>
        <extensions>
          <ns3:TrackPointExtension>
            <ns3:hr>140</ns3:hr>
            <ns3:cad>0</ns3:cad>
          </ns3:TrackPointExtension>
        </extensions>
      </trkpt>
      <trkpt lat="45.31552006490528583526611328125" lon="-71.06288342736661434173583984375">
        <ele>697.5999755859375</ele>
        <time>2026-08-21T22:51:16.000Z</time>
        <extensions>
          <ns3:TrackPointExtension>
            <ns3:hr>139</ns3:hr>
            <ns3:cad>0</ns3:cad>
          </ns3:TrackPointExtension>
        </extensions>
      </trkpt>
      <trkpt lat="45.31551369465887546539306640625" lon="-71.06288208626210689544677734375">
        <ele>697.79998779296875</ele>
        <time>2026-08-21T22:51:17.000Z</time>
        <extensions>
          <ns3:TrackPointExtension>
            <ns3:hr>139</ns3:hr>
            <ns3:cad>0</ns3:cad>
          </ns3:TrackPointExtension>
        </extensions>
      </trkpt>
      <trkpt lat="45.31550380401313304901123046875" lon="-71.06287923641502857208251953125">
        <ele>698</ele>
        <time>2026-08-21T22:51:18.000Z</time>
        <extensions>
          <ns3:TrackPointExtension>
            <ns3:hr>139</ns3:hr>
            <ns3:cad>0</ns3:cad>
          </ns3:TrackPointExtension>
        </extensions>
      </trkpt>
      <trkpt lat="45.315497852861881256103515625" lon="-71.06288510374724864959716796875">
        <ele>698.20001220703125</ele>
        <time>2026-08-21T22:51:19.000Z</time>
        <extensions>
          <ns3:TrackPointExtension>
            <ns3:hr>139</ns3:hr>
            <ns3:cad>0</ns3:cad>
          </ns3:TrackPointExtension>
        </extensions>
      </trkpt>
      <trkpt lat="45.31548821367323398590087890625" lon="-71.0628890432417392730712890625">
        <ele>698.20001220703125</ele>
        <time>2026-08-21T22:51:20.000Z</time>
        <extensions>
          <ns3:TrackPointExtension>
            <ns3:hr>140</ns3:hr>
            <ns3:cad>0</ns3:cad>
          </ns3:TrackPointExtension>
        </extensions>
      </trkpt>
      <trkpt lat="45.3154815919697284698486328125" lon="-71.062887869775295257568359375">
        <ele>698.5999755859375</ele>
        <time>2026-08-21T22:51:21.000Z</time>
        <extensions>
          <ns3:TrackPointExtension>
            <ns3:hr>140</ns3:hr>
            <ns3:cad>0</ns3:cad>
          </ns3:TrackPointExtension>
        </extensions>
      </trkpt>
      <trkpt lat="45.3154711984097957611083984375" lon="-71.0628927312791347503662109375">
        <ele>698.79998779296875</ele>
        <time>2026-08-21T22:51:22.000Z</time>
        <extensions>
          <ns3:TrackPointExtension>
            <ns3:hr>140</ns3:hr>
            <ns3:cad>0</ns3:cad>
          </ns3:TrackPointExtension>
        </extensions>
      </trkpt>
      <trkpt lat="45.315460301935672760009765625" lon="-71.06290002353489398956298828125">
        <ele>699</ele>
        <time>2026-08-21T22:51:23.000Z</time>
        <extensions>
          <ns3:TrackPointExtension>
            <ns3:hr>140</ns3:hr>
            <ns3:cad>0</ns3:cad>
          </ns3:TrackPointExtension>
        </extensions>
      </trkpt>
      <trkpt lat="45.3154532611370086669921875" lon="-71.06290630996227264404296875">
        <ele>699.20001220703125</ele>
        <time>2026-08-21T22:51:24.000Z</time>
        <extensions>
          <ns3:TrackPointExtension>
            <ns3:hr>139</ns3:hr>
            <ns3:cad>0</ns3:cad>
          </ns3:TrackPointExtension>
        </extensions>
      </trkpt>
      <trkpt lat="45.31544781289994716644287109375" lon="-71.06291293166577816009521484375">
        <ele>699.4000244140625</ele>
        <time>2026-08-21T22:51:25.000Z</time>
        <extensions>
          <ns3:TrackPointExtension>
            <ns3:hr>139</ns3:hr>
            <ns3:cad>0</ns3:cad>
          </ns3:TrackPointExtension>
        </extensions>
      </trkpt>
      <trkpt lat="45.31544479541480541229248046875" lon="-71.06291837990283966064453125">
        <ele>699.5999755859375</ele>
        <time>2026-08-21T22:51:26.000Z</time>
        <extensions>
          <ns3:TrackPointExtension>
            <ns3:hr>140</ns3:hr>
            <ns3:cad>0</ns3:cad>
          </ns3:TrackPointExtension>
        </extensions>
      </trkpt>
      <trkpt lat="45.315427444875240325927734375" lon="-71.0629225708544254302978515625">
        <ele>699.79998779296875</ele>
        <time>2026-08-21T22:51:27.000Z</time>
        <extensions>
          <ns3:TrackPointExtension>
            <ns3:hr>140</ns3:hr>
            <ns3:cad>0</ns3:cad>
          </ns3:TrackPointExtension>
        </extensions>
      </trkpt>
      <trkpt lat="45.3154210746288299560546875" lon="-71.0629297792911529541015625">
        <ele>700</ele>
        <time>2026-08-21T22:51:28.000Z</time>
        <extensions>
          <ns3:TrackPointExtension>
            <ns3:hr>140</ns3:hr>
            <ns3:cad>0</ns3:cad>
          </ns3:TrackPointExtension>
        </extensions>
      </trkpt>
      <trkpt lat="45.3154199011623859405517578125" lon="-71.0629332996904850006103515625">
        <ele>700.20001220703125</ele>
        <time>2026-08-21T22:51:29.000Z</time>
        <extensions>
          <ns3:TrackPointExtension>
            <ns3:hr>140</ns3:hr>
            <ns3:cad>0</ns3:cad>
          </ns3:TrackPointExtension>
        </extensions>
      </trkpt>
      <trkpt lat="45.3154182247817516326904296875" lon="-71.062936484813690185546875">
        <ele>700.4000244140625</ele>
        <time>2026-08-21T22:51:30.000Z</time>
        <extensions>
          <ns3:TrackPointExtension>
            <ns3:hr>140</ns3:hr>
            <ns3:cad>0</ns3:cad>
          </ns3:TrackPointExtension>
        </extensions>
      </trkpt>
      <trkpt lat="45.3154135309159755706787109375" lon="-71.06294251978397369384765625">
        <ele>700.5999755859375</ele>
        <time>2026-08-21T22:51:31.000Z</time>
        <extensions>
          <ns3:TrackPointExtension>
            <ns3:hr>140</ns3:hr>
            <ns3:cad>0</ns3:cad>
          </ns3:TrackPointExtension>
        </extensions>
      </trkpt>
      <trkpt lat="45.31541235744953155517578125" lon="-71.0629512369632720947265625">
        <ele>700.79998779296875</ele>
        <time>2026-08-21T22:51:32.000Z</time>
        <extensions>
          <ns3:TrackPointExtension>
            <ns3:hr>140</ns3:hr>
            <ns3:cad>0</ns3:cad>
          </ns3:TrackPointExtension>
        </extensions>
      </trkpt>
      <trkpt lat="45.3154078312218189239501953125" lon="-71.06295718811452388763427734375">
        <ele>701</ele>
        <time>2026-08-21T22:51:33.000Z</time>
        <extensions>
          <ns3:TrackPointExtension>
            <ns3:hr>140</ns3:hr>
            <ns3:cad>0</ns3:cad>
          </ns3:TrackPointExtension>
        </extensions>
      </trkpt>
      <trkpt lat="45.315403304994106292724609375" lon="-71.06296288780868053436279296875">
        <ele>701.20001220703125</ele>
        <time>2026-08-21T22:51:34.000Z</time>
        <extensions>
          <ns3:TrackPointExtension>
            <ns3:hr>140</ns3:hr>
            <ns3:cad>0</ns3:cad>
          </ns3:TrackPointExtension>
        </extensions>
      </trkpt>
      <trkpt lat="45.31539886258542537689208984375" lon="-71.0629705153405666351318359375">
        <ele>701.4000244140625</ele>
        <time>2026-08-21T22:51:35.000Z</time>
        <extensions>
          <ns3:TrackPointExtension>
            <ns3:hr>140</ns3:hr>
            <ns3:cad>0</ns3:cad>
          </ns3:TrackPointExtension>
        </extensions>
      </trkpt>
      <trkpt lat="45.315392576158046722412109375" lon="-71.06298216618597507476806640625">
        <ele>701.5999755859375</ele>
        <time>2026-08-21T22:51:36.000Z</time>
        <extensions>
          <ns3:TrackPointExtension>
            <ns3:hr>140</ns3:hr>
            <ns3:cad>0</ns3:cad>
          </ns3:TrackPointExtension>
        </extensions>
      </trkpt>
      <trkpt lat="45.315388552844524383544921875" lon="-71.06299323029816150665283203125">
        <ele>702</ele>
        <time>2026-08-21T22:51:37.000Z</time>
        <extensions>
          <ns3:TrackPointExtension>
            <ns3:hr>139</ns3:hr>
            <ns3:cad>0</ns3:cad>
          </ns3:TrackPointExtension>
        </extensions>
      </trkpt>
      <trkpt lat="45.3153944201767444610595703125" lon="-71.0629973374307155609130859375">
        <ele>702.20001220703125</ele>
        <time>2026-08-21T22:51:38.000Z</time>
        <extensions>
          <ns3:TrackPointExtension>
            <ns3:hr>139</ns3:hr>
            <ns3:cad>0</ns3:cad>
          </ns3:TrackPointExtension>
        </extensions>
      </trkpt>
      <trkpt lat="45.31539517454802989959716796875" lon="-71.06301234103739261627197265625">
        <ele>702.4000244140625</ele>
        <time>2026-08-21T22:51:39.000Z</time>
        <extensions>
          <ns3:TrackPointExtension>
            <ns3:hr>139</ns3:hr>
            <ns3:cad>42</ns3:cad>
          </ns3:TrackPointExtension>
        </extensions>
      </trkpt>
      <trkpt lat="45.3153937496244907379150390625" lon="-71.06302441097795963287353515625">
        <ele>702.5999755859375</ele>
        <time>2026-08-21T22:51:40.000Z</time>
        <extensions>
          <ns3:TrackPointExtension>
            <ns3:hr>139</ns3:hr>
            <ns3:cad>42</ns3:cad>
          </ns3:TrackPointExtension>
        </extensions>
      </trkpt>
      <trkpt lat="45.3153890557587146759033203125" lon="-71.06303463689982891082763671875">
        <ele>702.79998779296875</ele>
        <time>2026-08-21T22:51:41.000Z</time>
        <extensions>
          <ns3:TrackPointExtension>
            <ns3:hr>139</ns3:hr>
            <ns3:cad>42</ns3:cad>
          </ns3:TrackPointExtension>
        </extensions>
      </trkpt>
      <trkpt lat="45.3153846971690654754638671875" lon="-71.0630482994019985198974609375">
        <ele>703</ele>
        <time>2026-08-21T22:51:42.000Z</time>
        <extensions>
          <ns3:TrackPointExtension>
            <ns3:hr>139</ns3:hr>
            <ns3:cad>42</ns3:cad>
          </ns3:TrackPointExtension>
        </extensions>
      </trkpt>
      <trkpt lat="45.31537723727524280548095703125" lon="-71.0630585253238677978515625">
        <ele>703.20001220703125</ele>
        <time>2026-08-21T22:51:43.000Z</time>
        <extensions>
          <ns3:TrackPointExtension>
            <ns3:hr>139</ns3:hr>
            <ns3:cad>42</ns3:cad>
          </ns3:TrackPointExtension>
        </extensions>
      </trkpt>
      <trkpt lat="45.31536617316305637359619140625" lon="-71.06307051144540309906005859375">
        <ele>703.4000244140625</ele>
        <time>2026-08-21T22:51:44.000Z</time>
        <extensions>
          <ns3:TrackPointExtension>
            <ns3:hr>139</ns3:hr>
            <ns3:cad>44</ns3:cad>
          </ns3:TrackPointExtension>
        </extensions>
      </trkpt>
      <trkpt lat="45.31536198221147060394287109375" lon="-71.06307537294924259185791015625">
        <ele>703.5999755859375</ele>
        <time>2026-08-21T22:51:45.000Z</time>
        <extensions>
          <ns3:TrackPointExtension>
            <ns3:hr>140</ns3:hr>
            <ns3:cad>44</ns3:cad>
          </ns3:TrackPointExtension>
        </extensions>
      </trkpt>
      <trkpt lat="45.3153608925640583038330078125" lon="-71.0630798153579235076904296875">
        <ele>703.79998779296875</ele>
        <time>2026-08-21T22:51:46.000Z</time>
        <extensions>
          <ns3:TrackPointExtension>
            <ns3:hr>142</ns3:hr>
            <ns3:cad>44</ns3:cad>
          </ns3:TrackPointExtension>
        </extensions>
      </trkpt>
      <trkpt lat="45.31535443849861621856689453125" lon="-71.06309079565107822418212890625">
        <ele>704</ele>
        <time>2026-08-21T22:51:47.000Z</time>
        <extensions>
          <ns3:TrackPointExtension>
            <ns3:hr>142</ns3:hr>
            <ns3:cad>44</ns3:cad>
          </ns3:TrackPointExtension>
        </extensions>
      </trkpt>
      <trkpt lat="45.3153441287577152252197265625" lon="-71.0631063021719455718994140625">
        <ele>704.20001220703125</ele>
        <time>2026-08-21T22:51:48.000Z</time>
        <extensions>
          <ns3:TrackPointExtension>
            <ns3:hr>142</ns3:hr>
            <ns3:cad>44</ns3:cad>
          </ns3:TrackPointExtension>
        </extensions>
      </trkpt>
      <trkpt lat="45.315340943634510040283203125" lon="-71.0631121695041656494140625">
        <ele>704.20001220703125</ele>
        <time>2026-08-21T22:51:49.000Z</time>
        <extensions>
          <ns3:TrackPointExtension>
            <ns3:hr>142</ns3:hr>
            <ns3:cad>44</ns3:cad>
          </ns3:TrackPointExtension>
        </extensions>
      </trkpt>
      <trkpt lat="45.31533532775938510894775390625" lon="-71.0631247423589229583740234375">
        <ele>704.4000244140625</ele>
        <time>2026-08-21T22:51:50.000Z</time>
        <extensions>
          <ns3:TrackPointExtension>
            <ns3:hr>141</ns3:hr>
            <ns3:cad>44</ns3:cad>
          </ns3:TrackPointExtension>
        </extensions>
      </trkpt>
      <trkpt lat="45.315326862037181854248046875" lon="-71.06314511038362979888916015625">
        <ele>704.5999755859375</ele>
        <time>2026-08-21T22:51:51.000Z</time>
        <extensions>
          <ns3:TrackPointExtension>
            <ns3:hr>141</ns3:hr>
            <ns3:cad>44</ns3:cad>
          </ns3:TrackPointExtension>
        </extensions>
      </trkpt>
      <trkpt lat="45.31532191671431064605712890625" lon="-71.063154749572277069091796875">
        <ele>704.79998779296875</ele>
        <time>2026-08-21T22:51:52.000Z</time>
        <extensions>
          <ns3:TrackPointExtension>
            <ns3:hr>140</ns3:hr>
            <ns3:cad>44</ns3:cad>
          </ns3:TrackPointExtension>
        </extensions>
      </trkpt>
      <trkpt lat="45.31531286425888538360595703125" lon="-71.0631632991135120391845703125">
        <ele>705</ele>
        <time>2026-08-21T22:51:53.000Z</time>
        <extensions>
          <ns3:TrackPointExtension>
            <ns3:hr>141</ns3:hr>
            <ns3:cad>44</ns3:cad>
          </ns3:TrackPointExtension>
        </extensions>
      </trkpt>
      <trkpt lat="45.31530045904219150543212890625" lon="-71.063177883625030517578125">
        <ele>705.20001220703125</ele>
        <time>2026-08-21T22:51:54.000Z</time>
        <extensions>
          <ns3:TrackPointExtension>
            <ns3:hr>141</ns3:hr>
            <ns3:cad>44</ns3:cad>
          </ns3:TrackPointExtension>
        </extensions>
      </trkpt>
      <trkpt lat="45.31529366970062255859375" lon="-71.0631884448230266571044921875">
        <ele>705.4000244140625</ele>
        <time>2026-08-21T22:51:55.000Z</time>
        <extensions>
          <ns3:TrackPointExtension>
            <ns3:hr>141</ns3:hr>
            <ns3:cad>44</ns3:cad>
          </ns3:TrackPointExtension>
        </extensions>
      </trkpt>
      <trkpt lat="45.31528905965387821197509765625" lon="-71.0631974972784519195556640625">
        <ele>705.4000244140625</ele>
        <time>2026-08-21T22:51:56.000Z</time>
        <extensions>
          <ns3:TrackPointExtension>
            <ns3:hr>142</ns3:hr>
            <ns3:cad>42</ns3:cad>
          </ns3:TrackPointExtension>
        </extensions>
      </trkpt>
      <trkpt lat="45.31528419815003871917724609375" lon="-71.063207723200321197509765625">
        <ele>705.5999755859375</ele>
        <time>2026-08-21T22:51:57.000Z</time>
        <extensions>
          <ns3:TrackPointExtension>
            <ns3:hr>142</ns3:hr>
            <ns3:cad>42</ns3:cad>
          </ns3:TrackPointExtension>
        </extensions>
      </trkpt>
      <trkpt lat="45.31527900137007236480712890625" lon="-71.06321384198963642120361328125">
        <ele>705.79998779296875</ele>
        <time>2026-08-21T22:51:58.000Z</time>
        <extensions>
          <ns3:TrackPointExtension>
            <ns3:hr>141</ns3:hr>
            <ns3:cad>43</ns3:cad>
          </ns3:TrackPointExtension>
        </extensions>
      </trkpt>
      <trkpt lat="45.315271206200122833251953125" lon="-71.063221804797649383544921875">
        <ele>706</ele>
        <time>2026-08-21T22:51:59.000Z</time>
        <extensions>
          <ns3:TrackPointExtension>
            <ns3:hr>141</ns3:hr>
            <ns3:cad>43</ns3:cad>
          </ns3:TrackPointExtension>
        </extensions>
      </trkpt>
      <trkpt lat="45.31526349484920501708984375" lon="-71.0632353834807872772216796875">
        <ele>706.20001220703125</ele>
        <time>2026-08-21T22:52:00.000Z</time>
        <extensions>
          <ns3:TrackPointExtension>
            <ns3:hr>141</ns3:hr>
            <ns3:cad>44</ns3:cad>
          </ns3:TrackPointExtension>
        </extensions>
      </trkpt>
      <trkpt lat="45.3152596391737461090087890625" lon="-71.06324301101267337799072265625">
        <ele>706.4000244140625</ele>
        <time>2026-08-21T22:52:01.000Z</time>
        <extensions>
          <ns3:TrackPointExtension>
            <ns3:hr>141</ns3:hr>
            <ns3:cad>44</ns3:cad>
          </ns3:TrackPointExtension>
        </extensions>
      </trkpt>
      <trkpt lat="45.3152593038976192474365234375" lon="-71.06323848478496074676513671875">
        <ele>706.5999755859375</ele>
        <time>2026-08-21T22:52:02.000Z</time>
        <extensions>
          <ns3:TrackPointExtension>
            <ns3:hr>141</ns3:hr>
            <ns3:cad>44</ns3:cad>
          </ns3:TrackPointExtension>
        </extensions>
      </trkpt>
      <trkpt lat="45.31525544822216033935546875" lon="-71.06324250809848308563232421875">
        <ele>706.79998779296875</ele>
        <time>2026-08-21T22:52:03.000Z</time>
        <extensions>
          <ns3:TrackPointExtension>
            <ns3:hr>141</ns3:hr>
            <ns3:cad>44</ns3:cad>
          </ns3:TrackPointExtension>
        </extensions>
      </trkpt>
      <trkpt lat="45.3152509219944477081298828125" lon="-71.0632451064884662628173828125">
        <ele>707</ele>
        <time>2026-08-21T22:52:04.000Z</time>
        <extensions>
          <ns3:TrackPointExtension>
            <ns3:hr>140</ns3:hr>
            <ns3:cad>44</ns3:cad>
          </ns3:TrackPointExtension>
        </extensions>
      </trkpt>
      <trkpt lat="45.31524564139544963836669921875" lon="-71.06325441040098667144775390625">
        <ele>707.20001220703125</ele>
        <time>2026-08-21T22:52:05.000Z</time>
        <extensions>
          <ns3:TrackPointExtension>
            <ns3:hr>139</ns3:hr>
            <ns3:cad>44</ns3:cad>
          </ns3:TrackPointExtension>
        </extensions>
      </trkpt>
      <trkpt lat="45.3152401931583881378173828125" lon="-71.06325902044773101806640625">
        <ele>707.4000244140625</ele>
        <time>2026-08-21T22:52:06.000Z</time>
        <extensions>
          <ns3:TrackPointExtension>
            <ns3:hr>139</ns3:hr>
            <ns3:cad>41</ns3:cad>
          </ns3:TrackPointExtension>
        </extensions>
      </trkpt>
      <trkpt lat="45.3152386844158172607421875" lon="-71.06326731853187084197998046875">
        <ele>707.5999755859375</ele>
        <time>2026-08-21T22:52:07.000Z</time>
        <extensions>
          <ns3:TrackPointExtension>
            <ns3:hr>139</ns3:hr>
            <ns3:cad>41</ns3:cad>
          </ns3:TrackPointExtension>
        </extensions>
      </trkpt>
      <trkpt lat="45.31523801386356353759765625" lon="-71.063278131186962127685546875">
        <ele>707.79998779296875</ele>
        <time>2026-08-21T22:52:08.000Z</time>
        <extensions>
          <ns3:TrackPointExtension>
            <ns3:hr>138</ns3:hr>
            <ns3:cad>0</ns3:cad>
          </ns3:TrackPointExtension>
        </extensions>
      </trkpt>
      <trkpt lat="45.3152318112552165985107421875" lon="-71.06328642927110195159912109375">
        <ele>708</ele>
        <time>2026-08-21T22:52:09.000Z</time>
        <extensions>
          <ns3:TrackPointExtension>
            <ns3:hr>138</ns3:hr>
            <ns3:cad>0</ns3:cad>
          </ns3:TrackPointExtension>
        </extensions>
      </trkpt>
      <trkpt lat="45.31522728502750396728515625" lon="-71.06329481117427349090576171875">
        <ele>708.20001220703125</ele>
        <time>2026-08-21T22:52:10.000Z</time>
        <extensions>
          <ns3:TrackPointExtension>
            <ns3:hr>138</ns3:hr>
            <ns3:cad>43</ns3:cad>
          </ns3:TrackPointExtension>
        </extensions>
      </trkpt>
      <trkpt lat="45.31521831639111042022705078125" lon="-71.063307635486125946044921875">
        <ele>708.4000244140625</ele>
        <time>2026-08-21T22:52:11.000Z</time>
        <extensions>
          <ns3:TrackPointExtension>
            <ns3:hr>138</ns3:hr>
            <ns3:cad>43</ns3:cad>
          </ns3:TrackPointExtension>
        </extensions>
      </trkpt>
      <trkpt lat="45.3152137063443660736083984375" lon="-71.0633151791989803314208984375">
        <ele>708.79998779296875</ele>
        <time>2026-08-21T22:52:12.000Z</time>
        <extensions>
          <ns3:TrackPointExtension>
            <ns3:hr>139</ns3:hr>
            <ns3:cad>43</ns3:cad>
          </ns3:TrackPointExtension>
        </extensions>
      </trkpt>
      <trkpt lat="45.31520792283117771148681640625" lon="-71.06332850642502307891845703125">
        <ele>709</ele>
        <time>2026-08-21T22:52:13.000Z</time>
        <extensions>
          <ns3:TrackPointExtension>
            <ns3:hr>138</ns3:hr>
            <ns3:cad>0</ns3:cad>
          </ns3:TrackPointExtension>
        </extensions>
      </trkpt>
      <trkpt lat="45.31520289368927478790283203125" lon="-71.06334024108946323394775390625">
        <ele>709.20001220703125</ele>
        <time>2026-08-21T22:52:14.000Z</time>
        <extensions>
          <ns3:TrackPointExtension>
            <ns3:hr>138</ns3:hr>
            <ns3:cad>0</ns3:cad>
          </ns3:TrackPointExtension>
        </extensions>
      </trkpt>
      <trkpt lat="45.315198786556720733642578125" lon="-71.06335583142936229705810546875">
        <ele>709.4000244140625</ele>
        <time>2026-08-21T22:52:15.000Z</time>
        <extensions>
          <ns3:TrackPointExtension>
            <ns3:hr>138</ns3:hr>
            <ns3:cad>41</ns3:cad>
          </ns3:TrackPointExtension>
        </extensions>
      </trkpt>
      <trkpt lat="45.3151939250528812408447265625" lon="-71.063367314636707305908203125">
        <ele>709.4000244140625</ele>
        <time>2026-08-21T22:52:16.000Z</time>
        <extensions>
          <ns3:TrackPointExtension>
            <ns3:hr>138</ns3:hr>
            <ns3:cad>41</ns3:cad>
          </ns3:TrackPointExtension>
        </extensions>
      </trkpt>
      <trkpt lat="45.3151882253587245941162109375" lon="-71.063376702368259429931640625">
        <ele>709.5999755859375</ele>
        <time>2026-08-21T22:52:17.000Z</time>
        <extensions>
          <ns3:TrackPointExtension>
            <ns3:hr>138</ns3:hr>
            <ns3:cad>41</ns3:cad>
          </ns3:TrackPointExtension>
        </extensions>
      </trkpt>
      <trkpt lat="45.31518428586423397064208984375" lon="-71.063382066786289215087890625">
        <ele>709.79998779296875</ele>
        <time>2026-08-21T22:52:18.000Z</time>
        <extensions>
          <ns3:TrackPointExtension>
            <ns3:hr>138</ns3:hr>
            <ns3:cad>41</ns3:cad>
          </ns3:TrackPointExtension>
        </extensions>
      </trkpt>
      <trkpt lat="45.3151811845600605010986328125" lon="-71.06338768266141414642333984375">
        <ele>710</ele>
        <time>2026-08-21T22:52:19.000Z</time>
        <extensions>
          <ns3:TrackPointExtension>
            <ns3:hr>138</ns3:hr>
            <ns3:cad>41</ns3:cad>
          </ns3:TrackPointExtension>
        </extensions>
      </trkpt>
      <trkpt lat="45.31517322175204753875732421875" lon="-71.063397824764251708984375">
        <ele>710.20001220703125</ele>
        <time>2026-08-21T22:52:20.000Z</time>
        <extensions>
          <ns3:TrackPointExtension>
            <ns3:hr>139</ns3:hr>
            <ns3:cad>43</ns3:cad>
          </ns3:TrackPointExtension>
        </extensions>
      </trkpt>
      <trkpt lat="45.315167605876922607421875" lon="-71.06340813450515270233154296875">
        <ele>710.4000244140625</ele>
        <time>2026-08-21T22:52:21.000Z</time>
        <extensions>
          <ns3:TrackPointExtension>
            <ns3:hr>138</ns3:hr>
            <ns3:cad>43</ns3:cad>
          </ns3:TrackPointExtension>
        </extensions>
      </trkpt>
      <trkpt lat="45.31516148708760738372802734375" lon="-71.0634174384176731109619140625">
        <ele>710.5999755859375</ele>
        <time>2026-08-21T22:52:22.000Z</time>
        <extensions>
          <ns3:TrackPointExtension>
            <ns3:hr>138</ns3:hr>
            <ns3:cad>45</ns3:cad>
          </ns3:TrackPointExtension>
        </extensions>
      </trkpt>
      <trkpt lat="45.31515578739345073699951171875" lon="-71.0634238086640834808349609375">
        <ele>710.79998779296875</ele>
        <time>2026-08-21T22:52:23.000Z</time>
        <extensions>
          <ns3:TrackPointExtension>
            <ns3:hr>138</ns3:hr>
            <ns3:cad>45</ns3:cad>
          </ns3:TrackPointExtension>
        </extensions>
      </trkpt>
      <trkpt lat="45.315145142376422882080078125" lon="-71.06343613006174564361572265625">
        <ele>711</ele>
        <time>2026-08-21T22:52:24.000Z</time>
        <extensions>
          <ns3:TrackPointExtension>
            <ns3:hr>138</ns3:hr>
            <ns3:cad>45</ns3:cad>
          </ns3:TrackPointExtension>
        </extensions>
      </trkpt>
      <trkpt lat="45.31513717956840991973876953125" lon="-71.0634489543735980987548828125">
        <ele>711.20001220703125</ele>
        <time>2026-08-21T22:52:25.000Z</time>
        <extensions>
          <ns3:TrackPointExtension>
            <ns3:hr>137</ns3:hr>
            <ns3:cad>47</ns3:cad>
          </ns3:TrackPointExtension>
        </extensions>
      </trkpt>
      <trkpt lat="45.3151260316371917724609375" lon="-71.06346110813319683074951171875">
        <ele>711.4000244140625</ele>
        <time>2026-08-21T22:52:26.000Z</time>
        <extensions>
          <ns3:TrackPointExtension>
            <ns3:hr>137</ns3:hr>
            <ns3:cad>47</ns3:cad>
          </ns3:TrackPointExtension>
        </extensions>
      </trkpt>
      <trkpt lat="45.31511538662016391754150390625" lon="-71.06346731074154376983642578125">
        <ele>711.5999755859375</ele>
        <time>2026-08-21T22:52:27.000Z</time>
        <extensions>
          <ns3:TrackPointExtension>
            <ns3:hr>137</ns3:hr>
            <ns3:cad>46</ns3:cad>
          </ns3:TrackPointExtension>
        </extensions>
      </trkpt>
      <trkpt lat="45.315105915069580078125" lon="-71.0634761117398738861083984375">
        <ele>711.79998779296875</ele>
        <time>2026-08-21T22:52:28.000Z</time>
        <extensions>
          <ns3:TrackPointExtension>
            <ns3:hr>137</ns3:hr>
            <ns3:cad>46</ns3:cad>
          </ns3:TrackPointExtension>
        </extensions>
      </trkpt>
      <trkpt lat="45.3150943480432033538818359375" lon="-71.06348164379596710205078125">
        <ele>711.79998779296875</ele>
        <time>2026-08-21T22:52:29.000Z</time>
        <extensions>
          <ns3:TrackPointExtension>
            <ns3:hr>137</ns3:hr>
            <ns3:cad>46</ns3:cad>
          </ns3:TrackPointExtension>
        </extensions>
      </trkpt>
      <trkpt lat="45.31508973799645900726318359375" lon="-71.06348206289112567901611328125">
        <ele>712</ele>
        <time>2026-08-21T22:52:30.000Z</time>
        <extensions>
          <ns3:TrackPointExtension>
            <ns3:hr>138</ns3:hr>
            <ns3:cad>45</ns3:cad>
          </ns3:TrackPointExtension>
        </extensions>
      </trkpt>
      <trkpt lat="45.31508646905422210693359375" lon="-71.06348474510014057159423828125">
        <ele>712.20001220703125</ele>
        <time>2026-08-21T22:52:31.000Z</time>
        <extensions>
          <ns3:TrackPointExtension>
            <ns3:hr>138</ns3:hr>
            <ns3:cad>45</ns3:cad>
          </ns3:TrackPointExtension>
        </extensions>
      </trkpt>
      <trkpt lat="45.31508118845522403717041015625" lon="-71.063492037355899810791015625">
        <ele>712.20001220703125</ele>
        <time>2026-08-21T22:52:32.000Z</time>
        <extensions>
          <ns3:TrackPointExtension>
            <ns3:hr>138</ns3:hr>
            <ns3:cad>45</ns3:cad>
          </ns3:TrackPointExtension>
        </extensions>
      </trkpt>
      <trkpt lat="45.31508102081716060638427734375" lon="-71.0634930431842803955078125">
        <ele>712.4000244140625</ele>
        <time>2026-08-21T22:52:33.000Z</time>
        <extensions>
          <ns3:TrackPointExtension>
            <ns3:hr>138</ns3:hr>
            <ns3:cad>45</ns3:cad>
          </ns3:TrackPointExtension>
        </extensions>
      </trkpt>
      <trkpt lat="45.3150779195129871368408203125" lon="-71.06349597685039043426513671875">
        <ele>712.5999755859375</ele>
        <time>2026-08-21T22:52:34.000Z</time>
        <extensions>
          <ns3:TrackPointExtension>
            <ns3:hr>138</ns3:hr>
            <ns3:cad>45</ns3:cad>
          </ns3:TrackPointExtension>
        </extensions>
      </trkpt>
      <trkpt lat="45.31507305800914764404296875" lon="-71.06350310146808624267578125">
        <ele>712.79998779296875</ele>
        <time>2026-08-21T22:52:35.000Z</time>
        <extensions>
          <ns3:TrackPointExtension>
            <ns3:hr>138</ns3:hr>
            <ns3:cad>45</ns3:cad>
          </ns3:TrackPointExtension>
        </extensions>
      </trkpt>
      <trkpt lat="45.31507180072367191314697265625" lon="-71.0635093040764331817626953125">
        <ele>712.79998779296875</ele>
        <time>2026-08-21T22:52:36.000Z</time>
        <extensions>
          <ns3:TrackPointExtension>
            <ns3:hr>139</ns3:hr>
            <ns3:cad>45</ns3:cad>
          </ns3:TrackPointExtension>
        </extensions>
      </trkpt>
      <trkpt lat="45.31506895087659358978271484375" lon="-71.06351307593286037445068359375">
        <ele>713</ele>
        <time>2026-08-21T22:52:37.000Z</time>
        <extensions>
          <ns3:TrackPointExtension>
            <ns3:hr>138</ns3:hr>
            <ns3:cad>40</ns3:cad>
          </ns3:TrackPointExtension>
        </extensions>
      </trkpt>
      <trkpt lat="45.31506098806858062744140625" lon="-71.06351793743669986724853515625">
        <ele>713.20001220703125</ele>
        <time>2026-08-21T22:52:38.000Z</time>
        <extensions>
          <ns3:TrackPointExtension>
            <ns3:hr>138</ns3:hr>
            <ns3:cad>40</ns3:cad>
          </ns3:TrackPointExtension>
        </extensions>
      </trkpt>
      <trkpt lat="45.3150557912886142730712890625" lon="-71.06351827271282672882080078125">
        <ele>713.4000244140625</ele>
        <time>2026-08-21T22:52:39.000Z</time>
        <extensions>
          <ns3:TrackPointExtension>
            <ns3:hr>138</ns3:hr>
            <ns3:cad>0</ns3:cad>
          </ns3:TrackPointExtension>
        </extensions>
      </trkpt>
      <trkpt lat="45.3150541149079799652099609375" lon="-71.06352313421666622161865234375">
        <ele>713.5999755859375</ele>
        <time>2026-08-21T22:52:40.000Z</time>
        <extensions>
          <ns3:TrackPointExtension>
            <ns3:hr>139</ns3:hr>
            <ns3:cad>0</ns3:cad>
          </ns3:TrackPointExtension>
        </extensions>
      </trkpt>
      <trkpt lat="45.31505168415606021881103515625" lon="-71.0635280795395374298095703125">
        <ele>713.79998779296875</ele>
        <time>2026-08-21T22:52:41.000Z</time>
        <extensions>
          <ns3:TrackPointExtension>
            <ns3:hr>139</ns3:hr>
            <ns3:cad>0</ns3:cad>
          </ns3:TrackPointExtension>
        </extensions>
      </trkpt>
      <trkpt lat="45.31504749320447444915771484375" lon="-71.0635305941104888916015625">
        <ele>714</ele>
        <time>2026-08-21T22:52:42.000Z</time>
        <extensions>
          <ns3:TrackPointExtension>
            <ns3:hr>139</ns3:hr>
            <ns3:cad>0</ns3:cad>
          </ns3:TrackPointExtension>
        </extensions>
      </trkpt>
      <trkpt lat="45.3150464035570621490478515625" lon="-71.06352992355823516845703125">
        <ele>714.20001220703125</ele>
        <time>2026-08-21T22:52:43.000Z</time>
        <extensions>
          <ns3:TrackPointExtension>
            <ns3:hr>140</ns3:hr>
            <ns3:cad>0</ns3:cad>
          </ns3:TrackPointExtension>
        </extensions>
      </trkpt>
      <trkpt lat="45.3150420449674129486083984375" lon="-71.06353168375790119171142578125">
        <ele>714.4000244140625</ele>
        <time>2026-08-21T22:52:44.000Z</time>
        <extensions>
          <ns3:TrackPointExtension>
            <ns3:hr>139</ns3:hr>
            <ns3:cad>0</ns3:cad>
          </ns3:TrackPointExtension>
        </extensions>
      </trkpt>
      <trkpt lat="45.3150313161313533782958984375" lon="-71.06353486888110637664794921875">
        <ele>714.5999755859375</ele>
        <time>2026-08-21T22:52:45.000Z</time>
        <extensions>
          <ns3:TrackPointExtension>
            <ns3:hr>139</ns3:hr>
            <ns3:cad>0</ns3:cad>
          </ns3:TrackPointExtension>
        </extensions>
      </trkpt>
      <trkpt lat="45.31503005884587764739990234375" lon="-71.0635357908904552459716796875">
        <ele>714.79998779296875</ele>
        <time>2026-08-21T22:52:46.000Z</time>
        <extensions>
          <ns3:TrackPointExtension>
            <ns3:hr>139</ns3:hr>
            <ns3:cad>41</ns3:cad>
          </ns3:TrackPointExtension>
        </extensions>
      </trkpt>
      <trkpt lat="45.315028466284275054931640625" lon="-71.06353771872818470001220703125">
        <ele>715</ele>
        <time>2026-08-21T22:52:47.000Z</time>
        <extensions>
          <ns3:TrackPointExtension>
            <ns3:hr>139</ns3:hr>
            <ns3:cad>41</ns3:cad>
          </ns3:TrackPointExtension>
        </extensions>
      </trkpt>
      <trkpt lat="45.3150179050862789154052734375" lon="-71.063538976013660430908203125">
        <ele>715.20001220703125</ele>
        <time>2026-08-21T22:52:48.000Z</time>
        <extensions>
          <ns3:TrackPointExtension>
            <ns3:hr>139</ns3:hr>
            <ns3:cad>41</ns3:cad>
          </ns3:TrackPointExtension>
        </extensions>
      </trkpt>
      <trkpt lat="45.3150125406682491302490234375" lon="-71.06353805400431156158447265625">
        <ele>715.4000244140625</ele>
        <time>2026-08-21T22:52:49.000Z</time>
        <extensions>
          <ns3:TrackPointExtension>
            <ns3:hr>139</ns3:hr>
            <ns3:cad>0</ns3:cad>
          </ns3:TrackPointExtension>
        </extensions>
      </trkpt>
      <trkpt lat="45.3150106966495513916015625" lon="-71.06353537179529666900634765625">
        <ele>715.5999755859375</ele>
        <time>2026-08-21T22:52:50.000Z</time>
        <extensions>
          <ns3:TrackPointExtension>
            <ns3:hr>138</ns3:hr>
            <ns3:cad>0</ns3:cad>
          </ns3:TrackPointExtension>
        </extensions>
      </trkpt>
      <trkpt lat="45.315007679164409637451171875" lon="-71.06353671289980411529541015625">
        <ele>715.79998779296875</ele>
        <time>2026-08-21T22:52:51.000Z</time>
        <extensions>
          <ns3:TrackPointExtension>
            <ns3:hr>139</ns3:hr>
            <ns3:cad>0</ns3:cad>
          </ns3:TrackPointExtension>
        </extensions>
      </trkpt>
      <trkpt lat="45.31500399112701416015625" lon="-71.063535623252391815185546875">
        <ele>716</ele>
        <time>2026-08-21T22:52:52.000Z</time>
        <extensions>
          <ns3:TrackPointExtension>
            <ns3:hr>139</ns3:hr>
            <ns3:cad>0</ns3:cad>
          </ns3:TrackPointExtension>
        </extensions>
      </trkpt>
      <trkpt lat="45.31499954871833324432373046875" lon="-71.06353570707142353057861328125">
        <ele>716</ele>
        <time>2026-08-21T22:52:53.000Z</time>
        <extensions>
          <ns3:TrackPointExtension>
            <ns3:hr>140</ns3:hr>
            <ns3:cad>0</ns3:cad>
          </ns3:TrackPointExtension>
        </extensions>
      </trkpt>
      <trkpt lat="45.31499259173870086669921875" lon="-71.06354023329913616180419921875">
        <ele>716.20001220703125</ele>
        <time>2026-08-21T22:52:54.000Z</time>
        <extensions>
          <ns3:TrackPointExtension>
            <ns3:hr>140</ns3:hr>
            <ns3:cad>0</ns3:cad>
          </ns3:TrackPointExtension>
        </extensions>
      </trkpt>
      <trkpt lat="45.3149917535483837127685546875" lon="-71.06354333460330963134765625">
        <ele>716.4000244140625</ele>
        <time>2026-08-21T22:52:55.000Z</time>
        <extensions>
          <ns3:TrackPointExtension>
            <ns3:hr>140</ns3:hr>
            <ns3:cad>0</ns3:cad>
          </ns3:TrackPointExtension>
        </extensions>
      </trkpt>
      <trkpt lat="45.3149917535483837127685546875" lon="-71.06354333460330963134765625">
        <ele>716.4000244140625</ele>
        <time>2026-08-21T22:52:56.000Z</time>
        <extensions>
          <ns3:TrackPointExtension>
            <ns3:hr>140</ns3:hr>
            <ns3:cad>0</ns3:cad>
          </ns3:TrackPointExtension>
        </extensions>
      </trkpt>
      <trkpt lat="45.3149900771677494049072265625" lon="-71.0635451786220073699951171875">
        <ele>716.5999755859375</ele>
        <time>2026-08-21T22:52:57.000Z</time>
        <extensions>
          <ns3:TrackPointExtension>
            <ns3:hr>140</ns3:hr>
            <ns3:cad>0</ns3:cad>
          </ns3:TrackPointExtension>
        </extensions>
      </trkpt>
      <trkpt lat="45.31498429365456104278564453125" lon="-71.063548028469085693359375">
        <ele>716.79998779296875</ele>
        <time>2026-08-21T22:52:58.000Z</time>
        <extensions>
          <ns3:TrackPointExtension>
            <ns3:hr>140</ns3:hr>
            <ns3:cad>0</ns3:cad>
          </ns3:TrackPointExtension>
        </extensions>
      </trkpt>
      <trkpt lat="45.31498127616941928863525390625" lon="-71.06354945339262485504150390625">
        <ele>717</ele>
        <time>2026-08-21T22:52:59.000Z</time>
        <extensions>
          <ns3:TrackPointExtension>
            <ns3:hr>140</ns3:hr>
            <ns3:cad>0</ns3:cad>
          </ns3:TrackPointExtension>
        </extensions>
      </trkpt>
      <trkpt lat="45.31497607938945293426513671875" lon="-71.063553728163242340087890625">
        <ele>717.20001220703125</ele>
        <time>2026-08-21T22:53:00.000Z</time>
        <extensions>
          <ns3:TrackPointExtension>
            <ns3:hr>140</ns3:hr>
            <ns3:cad>0</ns3:cad>
          </ns3:TrackPointExtension>
        </extensions>
      </trkpt>
      <trkpt lat="45.31496367417275905609130859375" lon="-71.06355900876224040985107421875">
        <ele>717.4000244140625</ele>
        <time>2026-08-21T22:53:01.000Z</time>
        <extensions>
          <ns3:TrackPointExtension>
            <ns3:hr>139</ns3:hr>
            <ns3:cad>0</ns3:cad>
          </ns3:TrackPointExtension>
        </extensions>
      </trkpt>
      <trkpt lat="45.314966775476932525634765625" lon="-71.0635552369058132171630859375">
        <ele>717.5999755859375</ele>
        <time>2026-08-21T22:53:02.000Z</time>
        <extensions>
          <ns3:TrackPointExtension>
            <ns3:hr>139</ns3:hr>
            <ns3:cad>0</ns3:cad>
          </ns3:TrackPointExtension>
        </extensions>
      </trkpt>
      <trkpt lat="45.3149568848311901092529296875" lon="-71.06356143951416015625">
        <ele>717.79998779296875</ele>
        <time>2026-08-21T22:53:03.000Z</time>
        <extensions>
          <ns3:TrackPointExtension>
            <ns3:hr>138</ns3:hr>
            <ns3:cad>0</ns3:cad>
          </ns3:TrackPointExtension>
        </extensions>
      </trkpt>
      <trkpt lat="45.31495411880314350128173828125" lon="-71.0635669715702533721923828125">
        <ele>718</ele>
        <time>2026-08-21T22:53:04.000Z</time>
        <extensions>
          <ns3:TrackPointExtension>
            <ns3:hr>138</ns3:hr>
            <ns3:cad>0</ns3:cad>
          </ns3:TrackPointExtension>
        </extensions>
      </trkpt>
      <trkpt lat="45.314946658909320831298828125" lon="-71.0635676421225070953369140625">
        <ele>718.20001220703125</ele>
        <time>2026-08-21T22:53:05.000Z</time>
        <extensions>
          <ns3:TrackPointExtension>
            <ns3:hr>137</ns3:hr>
            <ns3:cad>0</ns3:cad>
          </ns3:TrackPointExtension>
        </extensions>
      </trkpt>
      <trkpt lat="45.314945317804813385009765625" lon="-71.06356923468410968780517578125">
        <ele>718.4000244140625</ele>
        <time>2026-08-21T22:53:06.000Z</time>
        <extensions>
          <ns3:TrackPointExtension>
            <ns3:hr>137</ns3:hr>
            <ns3:cad>0</ns3:cad>
          </ns3:TrackPointExtension>
        </extensions>
      </trkpt>
      <trkpt lat="45.31494288705289363861083984375" lon="-71.0635709948837757110595703125">
        <ele>718.5999755859375</ele>
        <time>2026-08-21T22:53:07.000Z</time>
        <extensions>
          <ns3:TrackPointExtension>
            <ns3:hr>136</ns3:hr>
            <ns3:cad>0</ns3:cad>
          </ns3:TrackPointExtension>
        </extensions>
      </trkpt>
      <trkpt lat="45.314939282834529876708984375" lon="-71.06357208453118801116943359375">
        <ele>718.5999755859375</ele>
        <time>2026-08-21T22:53:08.000Z</time>
        <extensions>
          <ns3:TrackPointExtension>
            <ns3:hr>136</ns3:hr>
            <ns3:cad>0</ns3:cad>
          </ns3:TrackPointExtension>
        </extensions>
      </trkpt>
      <trkpt lat="45.31493349932134151458740234375" lon="-71.0635713301599025726318359375">
        <ele>718.79998779296875</ele>
        <time>2026-08-21T22:53:09.000Z</time>
        <extensions>
          <ns3:TrackPointExtension>
            <ns3:hr>135</ns3:hr>
            <ns3:cad>0</ns3:cad>
          </ns3:TrackPointExtension>
        </extensions>
      </trkpt>
      <trkpt lat="45.3149270452558994293212890625" lon="-71.0635736770927906036376953125">
        <ele>719</ele>
        <time>2026-08-21T22:53:10.000Z</time>
        <extensions>
          <ns3:TrackPointExtension>
            <ns3:hr>134</ns3:hr>
            <ns3:cad>0</ns3:cad>
          </ns3:TrackPointExtension>
        </extensions>
      </trkpt>
      <trkpt lat="45.3149233572185039520263671875" lon="-71.0635773651301860809326171875">
        <ele>719.20001220703125</ele>
        <time>2026-08-21T22:53:11.000Z</time>
        <extensions>
          <ns3:TrackPointExtension>
            <ns3:hr>134</ns3:hr>
            <ns3:cad>0</ns3:cad>
          </ns3:TrackPointExtension>
        </extensions>
      </trkpt>
      <trkpt lat="45.3149223513901233673095703125" lon="-71.0635827295482158660888671875">
        <ele>719.20001220703125</ele>
        <time>2026-08-21T22:53:12.000Z</time>
        <extensions>
          <ns3:TrackPointExtension>
            <ns3:hr>134</ns3:hr>
            <ns3:cad>0</ns3:cad>
          </ns3:TrackPointExtension>
        </extensions>
      </trkpt>
      <trkpt lat="45.3149141371250152587890625" lon="-71.06359404511749744415283203125">
        <ele>719.4000244140625</ele>
        <time>2026-08-21T22:53:13.000Z</time>
        <extensions>
          <ns3:TrackPointExtension>
            <ns3:hr>134</ns3:hr>
            <ns3:cad>0</ns3:cad>
          </ns3:TrackPointExtension>
        </extensions>
      </trkpt>
      <trkpt lat="45.31491002999246120452880859375" lon="-71.0635968111455440521240234375">
        <ele>719.4000244140625</ele>
        <time>2026-08-21T22:53:14.000Z</time>
        <extensions>
          <ns3:TrackPointExtension>
            <ns3:hr>134</ns3:hr>
            <ns3:cad>0</ns3:cad>
          </ns3:TrackPointExtension>
        </extensions>
      </trkpt>
      <trkpt lat="45.31490734778344631195068359375" lon="-71.06360075064003467559814453125">
        <ele>719.4000244140625</ele>
        <time>2026-08-21T22:53:15.000Z</time>
        <extensions>
          <ns3:TrackPointExtension>
            <ns3:hr>134</ns3:hr>
            <ns3:cad>0</ns3:cad>
          </ns3:TrackPointExtension>
        </extensions>
      </trkpt>
      <trkpt lat="45.3149029053747653961181640625" lon="-71.06361131183803081512451171875">
        <ele>719.4000244140625</ele>
        <time>2026-08-21T22:53:16.000Z</time>
        <extensions>
          <ns3:TrackPointExtension>
            <ns3:hr>135</ns3:hr>
            <ns3:cad>0</ns3:cad>
          </ns3:TrackPointExtension>
        </extensions>
      </trkpt>
      <trkpt lat="45.314908437430858612060546875" lon="-71.06361047364771366119384765625">
        <ele>719.5999755859375</ele>
        <time>2026-08-21T22:53:17.000Z</time>
        <extensions>
          <ns3:TrackPointExtension>
            <ns3:hr>135</ns3:hr>
            <ns3:cad>0</ns3:cad>
          </ns3:TrackPointExtension>
        </extensions>
      </trkpt>
      <trkpt lat="45.31490902416408061981201171875" lon="-71.06361198239028453826904296875">
        <ele>720</ele>
        <time>2026-08-21T22:53:18.000Z</time>
        <extensions>
          <ns3:TrackPointExtension>
            <ns3:hr>134</ns3:hr>
            <ns3:cad>0</ns3:cad>
          </ns3:TrackPointExtension>
        </extensions>
      </trkpt>
      <trkpt lat="45.31490650959312915802001953125" lon="-71.0636159218847751617431640625">
        <ele>720.20001220703125</ele>
        <time>2026-08-21T22:53:19.000Z</time>
        <extensions>
          <ns3:TrackPointExtension>
            <ns3:hr>134</ns3:hr>
            <ns3:cad>0</ns3:cad>
          </ns3:TrackPointExtension>
        </extensions>
      </trkpt>
      <trkpt lat="45.31490483321249485015869140625" lon="-71.06361684389412403106689453125">
        <ele>720.4000244140625</ele>
        <time>2026-08-21T22:53:20.000Z</time>
        <extensions>
          <ns3:TrackPointExtension>
            <ns3:hr>133</ns3:hr>
            <ns3:cad>0</ns3:cad>
          </ns3:TrackPointExtension>
        </extensions>
      </trkpt>
      <trkpt lat="45.314908437430858612060546875" lon="-71.06361282058060169219970703125">
        <ele>720.5999755859375</ele>
        <time>2026-08-21T22:53:21.000Z</time>
        <extensions>
          <ns3:TrackPointExtension>
            <ns3:hr>133</ns3:hr>
            <ns3:cad>0</ns3:cad>
          </ns3:TrackPointExtension>
        </extensions>
      </trkpt>
      <trkpt lat="45.314911119639873504638671875" lon="-71.0636132396757602691650390625">
        <ele>720.79998779296875</ele>
        <time>2026-08-21T22:53:22.000Z</time>
        <extensions>
          <ns3:TrackPointExtension>
            <ns3:hr>132</ns3:hr>
            <ns3:cad>0</ns3:cad>
          </ns3:TrackPointExtension>
        </extensions>
      </trkpt>
      <trkpt lat="45.3149096108973026275634765625" lon="-71.0636145807802677154541015625">
        <ele>721</ele>
        <time>2026-08-21T22:53:23.000Z</time>
        <extensions>
          <ns3:TrackPointExtension>
            <ns3:hr>131</ns3:hr>
            <ns3:cad>0</ns3:cad>
          </ns3:TrackPointExtension>
        </extensions>
      </trkpt>
      <trkpt lat="45.31491472385823726654052734375" lon="-71.06360812671482563018798828125">
        <ele>721.20001220703125</ele>
        <time>2026-08-21T22:53:24.000Z</time>
        <extensions>
          <ns3:TrackPointExtension>
            <ns3:hr>131</ns3:hr>
            <ns3:cad>0</ns3:cad>
          </ns3:TrackPointExtension>
        </extensions>
      </trkpt>
      <trkpt lat="45.31490986235439777374267578125" lon="-71.06360477395355701446533203125">
        <ele>721.4000244140625</ele>
        <time>2026-08-21T22:53:25.000Z</time>
        <extensions>
          <ns3:TrackPointExtension>
            <ns3:hr>130</ns3:hr>
            <ns3:cad>0</ns3:cad>
          </ns3:TrackPointExtension>
        </extensions>
      </trkpt>
      <trkpt lat="45.31490516848862171173095703125" lon="-71.06359924189746379852294921875">
        <ele>721.5999755859375</ele>
        <time>2026-08-21T22:53:26.000Z</time>
        <extensions>
          <ns3:TrackPointExtension>
            <ns3:hr>130</ns3:hr>
            <ns3:cad>0</ns3:cad>
          </ns3:TrackPointExtension>
        </extensions>
      </trkpt>
      <trkpt lat="45.31490005552768707275390625" lon="-71.06359890662133693695068359375">
        <ele>721.79998779296875</ele>
        <time>2026-08-21T22:53:27.000Z</time>
        <extensions>
          <ns3:TrackPointExtension>
            <ns3:hr>130</ns3:hr>
            <ns3:cad>0</ns3:cad>
          </ns3:TrackPointExtension>
        </extensions>
      </trkpt>
      <trkpt lat="45.31489242799580097198486328125" lon="-71.06360645033419132232666015625">
        <ele>722</ele>
        <time>2026-08-21T22:53:28.000Z</time>
        <extensions>
          <ns3:TrackPointExtension>
            <ns3:hr>130</ns3:hr>
            <ns3:cad>0</ns3:cad>
          </ns3:TrackPointExtension>
        </extensions>
      </trkpt>
      <trkpt lat="45.31489192508161067962646484375" lon="-71.0636129043996334075927734375">
        <ele>722.20001220703125</ele>
        <time>2026-08-21T22:53:29.000Z</time>
        <extensions>
          <ns3:TrackPointExtension>
            <ns3:hr>129</ns3:hr>
            <ns3:cad>0</ns3:cad>
          </ns3:TrackPointExtension>
        </extensions>
      </trkpt>
      <trkpt lat="45.31489175744354724884033203125" lon="-71.06361533515155315399169921875">
        <ele>722.20001220703125</ele>
        <time>2026-08-21T22:53:30.000Z</time>
        <extensions>
          <ns3:TrackPointExtension>
            <ns3:hr>131</ns3:hr>
            <ns3:cad>0</ns3:cad>
          </ns3:TrackPointExtension>
        </extensions>
      </trkpt>
      <trkpt lat="45.3148827888071537017822265625" lon="-71.06362053193151950836181640625">
        <ele>722.4000244140625</ele>
        <time>2026-08-21T22:53:31.000Z</time>
        <extensions>
          <ns3:TrackPointExtension>
            <ns3:hr>132</ns3:hr>
            <ns3:cad>0</ns3:cad>
          </ns3:TrackPointExtension>
        </extensions>
      </trkpt>
      <trkpt lat="45.31487801112234592437744140625" lon="-71.0636243037879467010498046875">
        <ele>722.5999755859375</ele>
        <time>2026-08-21T22:53:32.000Z</time>
        <extensions>
          <ns3:TrackPointExtension>
            <ns3:hr>133</ns3:hr>
            <ns3:cad>0</ns3:cad>
          </ns3:TrackPointExtension>
        </extensions>
      </trkpt>
      <trkpt lat="45.31487650237977504730224609375" lon="-71.06362522579729557037353515625">
        <ele>722.79998779296875</ele>
        <time>2026-08-21T22:53:33.000Z</time>
        <extensions>
          <ns3:TrackPointExtension>
            <ns3:hr>133</ns3:hr>
            <ns3:cad>0</ns3:cad>
          </ns3:TrackPointExtension>
        </extensions>
      </trkpt>
      <trkpt lat="45.3148710541427135467529296875" lon="-71.06362891383469104766845703125">
        <ele>723</ele>
        <time>2026-08-21T22:53:34.000Z</time>
        <extensions>
          <ns3:TrackPointExtension>
            <ns3:hr>133</ns3:hr>
            <ns3:cad>0</ns3:cad>
          </ns3:TrackPointExtension>
        </extensions>
      </trkpt>
      <trkpt lat="45.31486451625823974609375" lon="-71.06363276951014995574951171875">
        <ele>723.20001220703125</ele>
        <time>2026-08-21T22:53:35.000Z</time>
        <extensions>
          <ns3:TrackPointExtension>
            <ns3:hr>134</ns3:hr>
            <ns3:cad>0</ns3:cad>
          </ns3:TrackPointExtension>
        </extensions>
      </trkpt>
      <trkpt lat="45.3148586489260196685791015625" lon="-71.0636346973478794097900390625">
        <ele>723.4000244140625</ele>
        <time>2026-08-21T22:53:36.000Z</time>
        <extensions>
          <ns3:TrackPointExtension>
            <ns3:hr>134</ns3:hr>
            <ns3:cad>0</ns3:cad>
          </ns3:TrackPointExtension>
        </extensions>
      </trkpt>
      <trkpt lat="45.31484968028962612152099609375" lon="-71.06364098377525806427001953125">
        <ele>723.5999755859375</ele>
        <time>2026-08-21T22:53:37.000Z</time>
        <extensions>
          <ns3:TrackPointExtension>
            <ns3:hr>134</ns3:hr>
            <ns3:cad>0</ns3:cad>
          </ns3:TrackPointExtension>
        </extensions>
      </trkpt>
      <trkpt lat="45.31484431587159633636474609375" lon="-71.063646264374256134033203125">
        <ele>723.79998779296875</ele>
        <time>2026-08-21T22:53:38.000Z</time>
        <extensions>
          <ns3:TrackPointExtension>
            <ns3:hr>134</ns3:hr>
            <ns3:cad>0</ns3:cad>
          </ns3:TrackPointExtension>
        </extensions>
      </trkpt>
      <trkpt lat="45.31484398059546947479248046875" lon="-71.0636511258780956268310546875">
        <ele>724</ele>
        <time>2026-08-21T22:53:39.000Z</time>
        <extensions>
          <ns3:TrackPointExtension>
            <ns3:hr>135</ns3:hr>
            <ns3:cad>0</ns3:cad>
          </ns3:TrackPointExtension>
        </extensions>
      </trkpt>
      <trkpt lat="45.3148385323584079742431640625" lon="-71.0636568255722522735595703125">
        <ele>724.20001220703125</ele>
        <time>2026-08-21T22:53:40.000Z</time>
        <extensions>
          <ns3:TrackPointExtension>
            <ns3:hr>135</ns3:hr>
            <ns3:cad>0</ns3:cad>
          </ns3:TrackPointExtension>
        </extensions>
      </trkpt>
      <trkpt lat="45.3148298151791095733642578125" lon="-71.063665039837360382080078125">
        <ele>724.4000244140625</ele>
        <time>2026-08-21T22:53:41.000Z</time>
        <extensions>
          <ns3:TrackPointExtension>
            <ns3:hr>135</ns3:hr>
            <ns3:cad>0</ns3:cad>
          </ns3:TrackPointExtension>
        </extensions>
      </trkpt>
      <trkpt lat="45.3148288093507289886474609375" lon="-71.063671074807643890380859375">
        <ele>724.5999755859375</ele>
        <time>2026-08-21T22:53:42.000Z</time>
        <extensions>
          <ns3:TrackPointExtension>
            <ns3:hr>136</ns3:hr>
            <ns3:cad>0</ns3:cad>
          </ns3:TrackPointExtension>
        </extensions>
      </trkpt>
      <trkpt lat="45.31482839025557041168212890625" lon="-71.06366814114153385162353515625">
        <ele>724.79998779296875</ele>
        <time>2026-08-21T22:53:43.000Z</time>
        <extensions>
          <ns3:TrackPointExtension>
            <ns3:hr>135</ns3:hr>
            <ns3:cad>0</ns3:cad>
          </ns3:TrackPointExtension>
        </extensions>
      </trkpt>
      <trkpt lat="45.31482319347560405731201171875" lon="-71.063677780330181121826171875">
        <ele>725</ele>
        <time>2026-08-21T22:53:44.000Z</time>
        <extensions>
          <ns3:TrackPointExtension>
            <ns3:hr>135</ns3:hr>
            <ns3:cad>0</ns3:cad>
          </ns3:TrackPointExtension>
        </extensions>
      </trkpt>
      <trkpt lat="45.3148170746862888336181640625" lon="-71.06368607841432094573974609375">
        <ele>725.20001220703125</ele>
        <time>2026-08-21T22:53:45.000Z</time>
        <extensions>
          <ns3:TrackPointExtension>
            <ns3:hr>135</ns3:hr>
            <ns3:cad>0</ns3:cad>
          </ns3:TrackPointExtension>
        </extensions>
      </trkpt>
      <trkpt lat="45.31480710022151470184326171875" lon="-71.063699908554553985595703125">
        <ele>725.4000244140625</ele>
        <time>2026-08-21T22:53:46.000Z</time>
        <extensions>
          <ns3:TrackPointExtension>
            <ns3:hr>135</ns3:hr>
            <ns3:cad>0</ns3:cad>
          </ns3:TrackPointExtension>
        </extensions>
      </trkpt>
      <trkpt lat="45.3147996403276920318603515625" lon="-71.06371021829545497894287109375">
        <ele>725.5999755859375</ele>
        <time>2026-08-21T22:53:47.000Z</time>
        <extensions>
          <ns3:TrackPointExtension>
            <ns3:hr>135</ns3:hr>
            <ns3:cad>0</ns3:cad>
          </ns3:TrackPointExtension>
        </extensions>
      </trkpt>
      <trkpt lat="45.31479368917644023895263671875" lon="-71.0637191869318485260009765625">
        <ele>725.79998779296875</ele>
        <time>2026-08-21T22:53:48.000Z</time>
        <extensions>
          <ns3:TrackPointExtension>
            <ns3:hr>135</ns3:hr>
            <ns3:cad>0</ns3:cad>
          </ns3:TrackPointExtension>
        </extensions>
      </trkpt>
      <trkpt lat="45.3147932700812816619873046875" lon="-71.063722036778926849365234375">
        <ele>726</ele>
        <time>2026-08-21T22:53:49.000Z</time>
        <extensions>
          <ns3:TrackPointExtension>
            <ns3:hr>136</ns3:hr>
            <ns3:cad>0</ns3:cad>
          </ns3:TrackPointExtension>
        </extensions>
      </trkpt>
      <trkpt lat="45.3147868998348712921142578125" lon="-71.06373217888176441192626953125">
        <ele>726.20001220703125</ele>
        <time>2026-08-21T22:53:50.000Z</time>
        <extensions>
          <ns3:TrackPointExtension>
            <ns3:hr>136</ns3:hr>
            <ns3:cad>0</ns3:cad>
          </ns3:TrackPointExtension>
        </extensions>
      </trkpt>
      <trkpt lat="45.314776338636875152587890625" lon="-71.06374575756490230560302734375">
        <ele>726.4000244140625</ele>
        <time>2026-08-21T22:53:51.000Z</time>
        <extensions>
          <ns3:TrackPointExtension>
            <ns3:hr>136</ns3:hr>
            <ns3:cad>0</ns3:cad>
          </ns3:TrackPointExtension>
        </extensions>
      </trkpt>
      <trkpt lat="45.31477021984755992889404296875" lon="-71.063750199973583221435546875">
        <ele>726.79998779296875</ele>
        <time>2026-08-21T22:53:52.000Z</time>
        <extensions>
          <ns3:TrackPointExtension>
            <ns3:hr>136</ns3:hr>
            <ns3:cad>0</ns3:cad>
          </ns3:TrackPointExtension>
        </extensions>
      </trkpt>
      <trkpt lat="45.31476401723921298980712890625" lon="-71.06375749222934246063232421875">
        <ele>727</ele>
        <time>2026-08-21T22:53:53.000Z</time>
        <extensions>
          <ns3:TrackPointExtension>
            <ns3:hr>136</ns3:hr>
            <ns3:cad>0</ns3:cad>
          </ns3:TrackPointExtension>
        </extensions>
      </trkpt>
      <trkpt lat="45.314763598144054412841796875" lon="-71.06375791132450103759765625">
        <ele>727</ele>
        <time>2026-08-21T22:53:54.000Z</time>
        <extensions>
          <ns3:TrackPointExtension>
            <ns3:hr>135</ns3:hr>
            <ns3:cad>0</ns3:cad>
          </ns3:TrackPointExtension>
        </extensions>
      </trkpt>
      <trkpt lat="45.31475395895540714263916015625" lon="-71.06376889161765575408935546875">
        <ele>727.20001220703125</ele>
        <time>2026-08-21T22:53:55.000Z</time>
        <extensions>
          <ns3:TrackPointExtension>
            <ns3:hr>136</ns3:hr>
            <ns3:cad>0</ns3:cad>
          </ns3:TrackPointExtension>
        </extensions>
      </trkpt>
      <trkpt lat="45.3147500194609165191650390625" lon="-71.0637748427689075469970703125">
        <ele>727.4000244140625</ele>
        <time>2026-08-21T22:53:56.000Z</time>
        <extensions>
          <ns3:TrackPointExtension>
            <ns3:hr>136</ns3:hr>
            <ns3:cad>0</ns3:cad>
          </ns3:TrackPointExtension>
        </extensions>
      </trkpt>
      <trkpt lat="45.31474180519580841064453125" lon="-71.06378339231014251708984375">
        <ele>727.4000244140625</ele>
        <time>2026-08-21T22:53:57.000Z</time>
        <extensions>
          <ns3:TrackPointExtension>
            <ns3:hr>136</ns3:hr>
            <ns3:cad>0</ns3:cad>
          </ns3:TrackPointExtension>
        </extensions>
      </trkpt>
      <trkpt lat="45.31473685987293720245361328125" lon="-71.06378632597625255584716796875">
        <ele>727.5999755859375</ele>
        <time>2026-08-21T22:53:58.000Z</time>
        <extensions>
          <ns3:TrackPointExtension>
            <ns3:hr>137</ns3:hr>
            <ns3:cad>0</ns3:cad>
          </ns3:TrackPointExtension>
        </extensions>
      </trkpt>
      <trkpt lat="45.3147302381694316864013671875" lon="-71.0637895949184894561767578125">
        <ele>727.79998779296875</ele>
        <time>2026-08-21T22:53:59.000Z</time>
        <extensions>
          <ns3:TrackPointExtension>
            <ns3:hr>138</ns3:hr>
            <ns3:cad>0</ns3:cad>
          </ns3:TrackPointExtension>
        </extensions>
      </trkpt>
      <trkpt lat="45.31471758149564266204833984375" lon="-71.06380082666873931884765625">
        <ele>728</ele>
        <time>2026-08-21T22:54:00.000Z</time>
        <extensions>
          <ns3:TrackPointExtension>
            <ns3:hr>139</ns3:hr>
            <ns3:cad>0</ns3:cad>
          </ns3:TrackPointExtension>
        </extensions>
      </trkpt>
      <trkpt lat="45.31471389345824718475341796875" lon="-71.06380543671548366546630859375">
        <ele>728</ele>
        <time>2026-08-21T22:54:01.000Z</time>
        <extensions>
          <ns3:TrackPointExtension>
            <ns3:hr>140</ns3:hr>
            <ns3:cad>0</ns3:cad>
          </ns3:TrackPointExtension>
        </extensions>
      </trkpt>
      <trkpt lat="45.314707942306995391845703125" lon="-71.06380845420062541961669921875">
        <ele>728.20001220703125</ele>
        <time>2026-08-21T22:54:02.000Z</time>
        <extensions>
          <ns3:TrackPointExtension>
            <ns3:hr>139</ns3:hr>
            <ns3:cad>77</ns3:cad>
          </ns3:TrackPointExtension>
        </extensions>
      </trkpt>
      <trkpt lat="45.3147003985941410064697265625" lon="-71.063813231885433197021484375">
        <ele>728.20001220703125</ele>
        <time>2026-08-21T22:54:03.000Z</time>
        <extensions>
          <ns3:TrackPointExtension>
            <ns3:hr>139</ns3:hr>
            <ns3:cad>77</ns3:cad>
          </ns3:TrackPointExtension>
        </extensions>
      </trkpt>
      <trkpt lat="45.31469461508095264434814453125" lon="-71.06381817720830440521240234375">
        <ele>728.4000244140625</ele>
        <time>2026-08-21T22:54:04.000Z</time>
        <extensions>
          <ns3:TrackPointExtension>
            <ns3:hr>139</ns3:hr>
            <ns3:cad>77</ns3:cad>
          </ns3:TrackPointExtension>
        </extensions>
      </trkpt>
      <trkpt lat="45.31468925066292285919189453125" lon="-71.06382320635020732879638671875">
        <ele>728.5999755859375</ele>
        <time>2026-08-21T22:54:05.000Z</time>
        <extensions>
          <ns3:TrackPointExtension>
            <ns3:hr>139</ns3:hr>
            <ns3:cad>77</ns3:cad>
          </ns3:TrackPointExtension>
        </extensions>
      </trkpt>
      <trkpt lat="45.3146863169968128204345703125" lon="-71.06382655911147594451904296875">
        <ele>728.79998779296875</ele>
        <time>2026-08-21T22:54:06.000Z</time>
        <extensions>
          <ns3:TrackPointExtension>
            <ns3:hr>139</ns3:hr>
            <ns3:cad>76</ns3:cad>
          </ns3:TrackPointExtension>
        </extensions>
      </trkpt>
      <trkpt lat="45.3146826289594173431396484375" lon="-71.06382706202566623687744140625">
        <ele>728.79998779296875</ele>
        <time>2026-08-21T22:54:07.000Z</time>
        <extensions>
          <ns3:TrackPointExtension>
            <ns3:hr>139</ns3:hr>
            <ns3:cad>76</ns3:cad>
          </ns3:TrackPointExtension>
        </extensions>
      </trkpt>
      <trkpt lat="45.314676426351070404052734375" lon="-71.0638318397104740142822265625">
        <ele>729</ele>
        <time>2026-08-21T22:54:08.000Z</time>
        <extensions>
          <ns3:TrackPointExtension>
            <ns3:hr>138</ns3:hr>
            <ns3:cad>75</ns3:cad>
          </ns3:TrackPointExtension>
        </extensions>
      </trkpt>
      <trkpt lat="45.3146729059517383575439453125" lon="-71.06383460573852062225341796875">
        <ele>729.20001220703125</ele>
        <time>2026-08-21T22:54:09.000Z</time>
        <extensions>
          <ns3:TrackPointExtension>
            <ns3:hr>139</ns3:hr>
            <ns3:cad>71</ns3:cad>
          </ns3:TrackPointExtension>
        </extensions>
      </trkpt>
      <trkpt lat="45.31466863118112087249755859375" lon="-71.06383779086172580718994140625">
        <ele>729.4000244140625</ele>
        <time>2026-08-21T22:54:10.000Z</time>
        <extensions>
          <ns3:TrackPointExtension>
            <ns3:hr>139</ns3:hr>
            <ns3:cad>71</ns3:cad>
          </ns3:TrackPointExtension>
        </extensions>
      </trkpt>
      <trkpt lat="45.31466544605791568756103515625" lon="-71.0638398863375186920166015625">
        <ele>729.5999755859375</ele>
        <time>2026-08-21T22:54:11.000Z</time>
        <extensions>
          <ns3:TrackPointExtension>
            <ns3:hr>138</ns3:hr>
            <ns3:cad>70</ns3:cad>
          </ns3:TrackPointExtension>
        </extensions>
      </trkpt>
      <trkpt lat="45.31466142274439334869384765625" lon="-71.0638408921658992767333984375">
        <ele>729.5999755859375</ele>
        <time>2026-08-21T22:54:12.000Z</time>
        <extensions>
          <ns3:TrackPointExtension>
            <ns3:hr>139</ns3:hr>
            <ns3:cad>70</ns3:cad>
          </ns3:TrackPointExtension>
        </extensions>
      </trkpt>
      <trkpt lat="45.31465672887861728668212890625" lon="-71.06384282000362873077392578125">
        <ele>729.79998779296875</ele>
        <time>2026-08-21T22:54:13.000Z</time>
        <extensions>
          <ns3:TrackPointExtension>
            <ns3:hr>139</ns3:hr>
            <ns3:cad>72</ns3:cad>
          </ns3:TrackPointExtension>
        </extensions>
      </trkpt>
      <trkpt lat="45.3146514482796192169189453125" lon="-71.06384717859327793121337890625">
        <ele>729.79998779296875</ele>
        <time>2026-08-21T22:54:14.000Z</time>
        <extensions>
          <ns3:TrackPointExtension>
            <ns3:hr>138</ns3:hr>
            <ns3:cad>72</ns3:cad>
          </ns3:TrackPointExtension>
        </extensions>
      </trkpt>
      <trkpt lat="45.3146480955183506011962890625" lon="-71.06384600512683391571044921875">
        <ele>730</ele>
        <time>2026-08-21T22:54:15.000Z</time>
        <extensions>
          <ns3:TrackPointExtension>
            <ns3:hr>139</ns3:hr>
            <ns3:cad>72</ns3:cad>
          </ns3:TrackPointExtension>
        </extensions>
      </trkpt>
      <trkpt lat="45.3146477602422237396240234375" lon="-71.06384801678359508514404296875">
        <ele>730.20001220703125</ele>
        <time>2026-08-21T22:54:16.000Z</time>
        <extensions>
          <ns3:TrackPointExtension>
            <ns3:hr>138</ns3:hr>
            <ns3:cad>74</ns3:cad>
          </ns3:TrackPointExtension>
        </extensions>
      </trkpt>
      <trkpt lat="45.3146467544138431549072265625" lon="-71.0638497769832611083984375">
        <ele>730.4000244140625</ele>
        <time>2026-08-21T22:54:17.000Z</time>
        <extensions>
          <ns3:TrackPointExtension>
            <ns3:hr>138</ns3:hr>
            <ns3:cad>74</ns3:cad>
          </ns3:TrackPointExtension>
        </extensions>
      </trkpt>
      <trkpt lat="45.31464281491935253143310546875" lon="-71.06385321356356143951416015625">
        <ele>730.5999755859375</ele>
        <time>2026-08-21T22:54:18.000Z</time>
        <extensions>
          <ns3:TrackPointExtension>
            <ns3:hr>138</ns3:hr>
            <ns3:cad>74</ns3:cad>
          </ns3:TrackPointExtension>
        </extensions>
      </trkpt>
      <trkpt lat="45.31463728286325931549072265625" lon="-71.0638559795916080474853515625">
        <ele>730.79998779296875</ele>
        <time>2026-08-21T22:54:19.000Z</time>
        <extensions>
          <ns3:TrackPointExtension>
            <ns3:hr>139</ns3:hr>
            <ns3:cad>78</ns3:cad>
          </ns3:TrackPointExtension>
        </extensions>
      </trkpt>
      <trkpt lat="45.3146373666822910308837890625" lon="-71.06385807506740093231201171875">
        <ele>730.79998779296875</ele>
        <time>2026-08-21T22:54:20.000Z</time>
        <extensions>
          <ns3:TrackPointExtension>
            <ns3:hr>138</ns3:hr>
            <ns3:cad>80</ns3:cad>
          </ns3:TrackPointExtension>
        </extensions>
      </trkpt>
      <trkpt lat="45.31463208608329296112060546875" lon="-71.06386276893317699432373046875">
        <ele>731</ele>
        <time>2026-08-21T22:54:21.000Z</time>
        <extensions>
          <ns3:TrackPointExtension>
            <ns3:hr>137</ns3:hr>
            <ns3:cad>80</ns3:cad>
          </ns3:TrackPointExtension>
        </extensions>
      </trkpt>
      <trkpt lat="45.31462571583688259124755859375" lon="-71.063866876065731048583984375">
        <ele>731.20001220703125</ele>
        <time>2026-08-21T22:54:22.000Z</time>
        <extensions>
          <ns3:TrackPointExtension>
            <ns3:hr>137</ns3:hr>
            <ns3:cad>80</ns3:cad>
          </ns3:TrackPointExtension>
        </extensions>
      </trkpt>
      <trkpt lat="45.314622111618518829345703125" lon="-71.063868217170238494873046875">
        <ele>731.4000244140625</ele>
        <time>2026-08-21T22:54:23.000Z</time>
        <extensions>
          <ns3:TrackPointExtension>
            <ns3:hr>137</ns3:hr>
            <ns3:cad>77</ns3:cad>
          </ns3:TrackPointExtension>
        </extensions>
      </trkpt>
      <trkpt lat="45.31461381353437900543212890625" lon="-71.06387081556022167205810546875">
        <ele>731.5999755859375</ele>
        <time>2026-08-21T22:54:24.000Z</time>
        <extensions>
          <ns3:TrackPointExtension>
            <ns3:hr>137</ns3:hr>
            <ns3:cad>77</ns3:cad>
          </ns3:TrackPointExtension>
        </extensions>
      </trkpt>
      <trkpt lat="45.314608030021190643310546875" lon="-71.06387550942599773406982421875">
        <ele>731.79998779296875</ele>
        <time>2026-08-21T22:54:25.000Z</time>
        <extensions>
          <ns3:TrackPointExtension>
            <ns3:hr>137</ns3:hr>
            <ns3:cad>0</ns3:cad>
          </ns3:TrackPointExtension>
        </extensions>
      </trkpt>
      <trkpt lat="45.3145994804799556732177734375" lon="-71.0638764314353466033935546875">
        <ele>732</ele>
        <time>2026-08-21T22:54:26.000Z</time>
        <extensions>
          <ns3:TrackPointExtension>
            <ns3:hr>136</ns3:hr>
            <ns3:cad>0</ns3:cad>
          </ns3:TrackPointExtension>
        </extensions>
      </trkpt>
      <trkpt lat="45.31459269113838672637939453125" lon="-71.06387735344469547271728515625">
        <ele>732</ele>
        <time>2026-08-21T22:54:27.000Z</time>
        <extensions>
          <ns3:TrackPointExtension>
            <ns3:hr>136</ns3:hr>
            <ns3:cad>0</ns3:cad>
          </ns3:TrackPointExtension>
        </extensions>
      </trkpt>
      <trkpt lat="45.31458598561584949493408203125" lon="-71.0638754256069660186767578125">
        <ele>732.20001220703125</ele>
        <time>2026-08-21T22:54:28.000Z</time>
        <extensions>
          <ns3:TrackPointExtension>
            <ns3:hr>136</ns3:hr>
            <ns3:cad>0</ns3:cad>
          </ns3:TrackPointExtension>
        </extensions>
      </trkpt>
      <trkpt lat="45.31457978300750255584716796875" lon="-71.06387726962566375732421875">
        <ele>732.4000244140625</ele>
        <time>2026-08-21T22:54:29.000Z</time>
        <extensions>
          <ns3:TrackPointExtension>
            <ns3:hr>136</ns3:hr>
            <ns3:cad>0</ns3:cad>
          </ns3:TrackPointExtension>
        </extensions>
      </trkpt>
      <trkpt lat="45.31457358039915561676025390625" lon="-71.0638784430921077728271484375">
        <ele>732.4000244140625</ele>
        <time>2026-08-21T22:54:30.000Z</time>
        <extensions>
          <ns3:TrackPointExtension>
            <ns3:hr>136</ns3:hr>
            <ns3:cad>0</ns3:cad>
          </ns3:TrackPointExtension>
        </extensions>
      </trkpt>
      <trkpt lat="45.3145694732666015625" lon="-71.0638811253011226654052734375">
        <ele>732.5999755859375</ele>
        <time>2026-08-21T22:54:31.000Z</time>
        <extensions>
          <ns3:TrackPointExtension>
            <ns3:hr>136</ns3:hr>
            <ns3:cad>0</ns3:cad>
          </ns3:TrackPointExtension>
        </extensions>
      </trkpt>
      <trkpt lat="45.31456419266760349273681640625" lon="-71.06388238258659839630126953125">
        <ele>732.79998779296875</ele>
        <time>2026-08-21T22:54:32.000Z</time>
        <extensions>
          <ns3:TrackPointExtension>
            <ns3:hr>136</ns3:hr>
            <ns3:cad>0</ns3:cad>
          </ns3:TrackPointExtension>
        </extensions>
      </trkpt>
      <trkpt lat="45.31456067226827144622802734375" lon="-71.0638846457004547119140625">
        <ele>733</ele>
        <time>2026-08-21T22:54:33.000Z</time>
        <extensions>
          <ns3:TrackPointExtension>
            <ns3:hr>136</ns3:hr>
            <ns3:cad>62</ns3:cad>
          </ns3:TrackPointExtension>
        </extensions>
      </trkpt>
      <trkpt lat="45.31455530785024166107177734375" lon="-71.063886322081089019775390625">
        <ele>733.20001220703125</ele>
        <time>2026-08-21T22:54:34.000Z</time>
        <extensions>
          <ns3:TrackPointExtension>
            <ns3:hr>136</ns3:hr>
            <ns3:cad>62</ns3:cad>
          </ns3:TrackPointExtension>
        </extensions>
      </trkpt>
      <trkpt lat="45.314551703631877899169921875" lon="-71.06388590298593044281005859375">
        <ele>733.4000244140625</ele>
        <time>2026-08-21T22:54:35.000Z</time>
        <extensions>
          <ns3:TrackPointExtension>
            <ns3:hr>136</ns3:hr>
            <ns3:cad>62</ns3:cad>
          </ns3:TrackPointExtension>
        </extensions>
      </trkpt>
      <trkpt lat="45.31454541720449924468994140625" lon="-71.06388590298593044281005859375">
        <ele>733.5999755859375</ele>
        <time>2026-08-21T22:54:36.000Z</time>
        <extensions>
          <ns3:TrackPointExtension>
            <ns3:hr>136</ns3:hr>
            <ns3:cad>62</ns3:cad>
          </ns3:TrackPointExtension>
        </extensions>
      </trkpt>
      <trkpt lat="45.314541645348072052001953125" lon="-71.0638868249952793121337890625">
        <ele>733.5999755859375</ele>
        <time>2026-08-21T22:54:37.000Z</time>
        <extensions>
          <ns3:TrackPointExtension>
            <ns3:hr>136</ns3:hr>
            <ns3:cad>62</ns3:cad>
          </ns3:TrackPointExtension>
        </extensions>
      </trkpt>
      <trkpt lat="45.3145371191203594207763671875" lon="-71.0638895072042942047119140625">
        <ele>733.79998779296875</ele>
        <time>2026-08-21T22:54:38.000Z</time>
        <extensions>
          <ns3:TrackPointExtension>
            <ns3:hr>136</ns3:hr>
            <ns3:cad>0</ns3:cad>
          </ns3:TrackPointExtension>
        </extensions>
      </trkpt>
      <trkpt lat="45.31453066505491733551025390625" lon="-71.06389260850846767425537109375">
        <ele>734</ele>
        <time>2026-08-21T22:54:39.000Z</time>
        <extensions>
          <ns3:TrackPointExtension>
            <ns3:hr>136</ns3:hr>
            <ns3:cad>0</ns3:cad>
          </ns3:TrackPointExtension>
        </extensions>
      </trkpt>
      <trkpt lat="45.31452714465558528900146484375" lon="-71.0638915188610553741455078125">
        <ele>734</ele>
        <time>2026-08-21T22:54:40.000Z</time>
        <extensions>
          <ns3:TrackPointExtension>
            <ns3:hr>136</ns3:hr>
            <ns3:cad>67</ns3:cad>
          </ns3:TrackPointExtension>
        </extensions>
      </trkpt>
      <trkpt lat="45.31452454626560211181640625" lon="-71.06389126740396022796630859375">
        <ele>734.20001220703125</ele>
        <time>2026-08-21T22:54:41.000Z</time>
        <extensions>
          <ns3:TrackPointExtension>
            <ns3:hr>136</ns3:hr>
            <ns3:cad>67</ns3:cad>
          </ns3:TrackPointExtension>
        </extensions>
      </trkpt>
      <trkpt lat="45.31452178023755550384521484375" lon="-71.0638905130326747894287109375">
        <ele>734.4000244140625</ele>
        <time>2026-08-21T22:54:42.000Z</time>
        <extensions>
          <ns3:TrackPointExtension>
            <ns3:hr>135</ns3:hr>
            <ns3:cad>70</ns3:cad>
          </ns3:TrackPointExtension>
        </extensions>
      </trkpt>
      <trkpt lat="45.314521528780460357666015625" lon="-71.06388774700462818145751953125">
        <ele>734.5999755859375</ele>
        <time>2026-08-21T22:54:43.000Z</time>
        <extensions>
          <ns3:TrackPointExtension>
            <ns3:hr>135</ns3:hr>
            <ns3:cad>70</ns3:cad>
          </ns3:TrackPointExtension>
        </extensions>
      </trkpt>
      <trkpt lat="45.314518176019191741943359375" lon="-71.06388808228075504302978515625">
        <ele>734.79998779296875</ele>
        <time>2026-08-21T22:54:44.000Z</time>
        <extensions>
          <ns3:TrackPointExtension>
            <ns3:hr>135</ns3:hr>
            <ns3:cad>70</ns3:cad>
          </ns3:TrackPointExtension>
        </extensions>
      </trkpt>
      <trkpt lat="45.31451046466827392578125" lon="-71.06388892047107219696044921875">
        <ele>735</ele>
        <time>2026-08-21T22:54:45.000Z</time>
        <extensions>
          <ns3:TrackPointExtension>
            <ns3:hr>135</ns3:hr>
            <ns3:cad>70</ns3:cad>
          </ns3:TrackPointExtension>
        </extensions>
      </trkpt>
      <trkpt lat="45.31450065784156322479248046875" lon="-71.06389445252716541290283203125">
        <ele>735.20001220703125</ele>
        <time>2026-08-21T22:54:46.000Z</time>
        <extensions>
          <ns3:TrackPointExtension>
            <ns3:hr>136</ns3:hr>
            <ns3:cad>70</ns3:cad>
          </ns3:TrackPointExtension>
        </extensions>
      </trkpt>
      <trkpt lat="45.31449294649064540863037109375" lon="-71.063895039260387420654296875">
        <ele>735.4000244140625</ele>
        <time>2026-08-21T22:54:47.000Z</time>
        <extensions>
          <ns3:TrackPointExtension>
            <ns3:hr>136</ns3:hr>
            <ns3:cad>70</ns3:cad>
          </ns3:TrackPointExtension>
        </extensions>
      </trkpt>
      <trkpt lat="45.314489342272281646728515625" lon="-71.06389663182199001312255859375">
        <ele>735.5999755859375</ele>
        <time>2026-08-21T22:54:48.000Z</time>
        <extensions>
          <ns3:TrackPointExtension>
            <ns3:hr>136</ns3:hr>
            <ns3:cad>70</ns3:cad>
          </ns3:TrackPointExtension>
        </extensions>
      </trkpt>
      <trkpt lat="45.3144911862909793853759765625" lon="-71.06389780528843402862548828125">
        <ele>735.79998779296875</ele>
        <time>2026-08-21T22:54:49.000Z</time>
        <extensions>
          <ns3:TrackPointExtension>
            <ns3:hr>136</ns3:hr>
            <ns3:cad>70</ns3:cad>
          </ns3:TrackPointExtension>
        </extensions>
      </trkpt>
      <trkpt lat="45.31449177302420139312744140625" lon="-71.06390006840229034423828125">
        <ele>736</ele>
        <time>2026-08-21T22:54:50.000Z</time>
        <extensions>
          <ns3:TrackPointExtension>
            <ns3:hr>136</ns3:hr>
            <ns3:cad>0</ns3:cad>
          </ns3:TrackPointExtension>
        </extensions>
      </trkpt>
      <trkpt lat="45.3144861571490764617919921875" lon="-71.0639052651822566986083984375">
        <ele>736.20001220703125</ele>
        <time>2026-08-21T22:54:51.000Z</time>
        <extensions>
          <ns3:TrackPointExtension>
            <ns3:hr>136</ns3:hr>
            <ns3:cad>0</ns3:cad>
          </ns3:TrackPointExtension>
        </extensions>
      </trkpt>
      <trkpt lat="45.31448406167328357696533203125" lon="-71.06390953995287418365478515625">
        <ele>736.4000244140625</ele>
        <time>2026-08-21T22:54:52.000Z</time>
        <extensions>
          <ns3:TrackPointExtension>
            <ns3:hr>135</ns3:hr>
            <ns3:cad>0</ns3:cad>
          </ns3:TrackPointExtension>
        </extensions>
      </trkpt>
      <trkpt lat="45.3144849836826324462890625" lon="-71.0639099590480327606201171875">
        <ele>736.5999755859375</ele>
        <time>2026-08-21T22:54:53.000Z</time>
        <extensions>
          <ns3:TrackPointExtension>
            <ns3:hr>136</ns3:hr>
            <ns3:cad>0</ns3:cad>
          </ns3:TrackPointExtension>
        </extensions>
      </trkpt>
      <trkpt lat="45.31447668559849262237548828125" lon="-71.063915155827999114990234375">
        <ele>736.79998779296875</ele>
        <time>2026-08-21T22:54:54.000Z</time>
        <extensions>
          <ns3:TrackPointExtension>
            <ns3:hr>136</ns3:hr>
            <ns3:cad>0</ns3:cad>
          </ns3:TrackPointExtension>
        </extensions>
      </trkpt>
      <trkpt lat="45.31447417102754116058349609375" lon="-71.06391574256122112274169921875">
        <ele>737</ele>
        <time>2026-08-21T22:54:55.000Z</time>
        <extensions>
          <ns3:TrackPointExtension>
            <ns3:hr>136</ns3:hr>
            <ns3:cad>0</ns3:cad>
          </ns3:TrackPointExtension>
        </extensions>
      </trkpt>
      <trkpt lat="45.3144767694175243377685546875" lon="-71.0639113001525402069091796875">
        <ele>737.20001220703125</ele>
        <time>2026-08-21T22:54:56.000Z</time>
        <extensions>
          <ns3:TrackPointExtension>
            <ns3:hr>136</ns3:hr>
            <ns3:cad>0</ns3:cad>
          </ns3:TrackPointExtension>
        </extensions>
      </trkpt>
      <trkpt lat="45.31446696259081363677978515625" lon="-71.06391406618058681488037109375">
        <ele>737.4000244140625</ele>
        <time>2026-08-21T22:54:57.000Z</time>
        <extensions>
          <ns3:TrackPointExtension>
            <ns3:hr>136</ns3:hr>
            <ns3:cad>0</ns3:cad>
          </ns3:TrackPointExtension>
        </extensions>
      </trkpt>
      <trkpt lat="45.31446143053472042083740234375" lon="-71.0639186762273311614990234375">
        <ele>737.5999755859375</ele>
        <time>2026-08-21T22:54:58.000Z</time>
        <extensions>
          <ns3:TrackPointExtension>
            <ns3:hr>136</ns3:hr>
            <ns3:cad>0</ns3:cad>
          </ns3:TrackPointExtension>
        </extensions>
      </trkpt>
      <trkpt lat="45.3144549764692783355712890625" lon="-71.063923537731170654296875">
        <ele>737.79998779296875</ele>
        <time>2026-08-21T22:54:59.000Z</time>
        <extensions>
          <ns3:TrackPointExtension>
            <ns3:hr>137</ns3:hr>
            <ns3:cad>0</ns3:cad>
          </ns3:TrackPointExtension>
        </extensions>
      </trkpt>
      <trkpt lat="45.31445070169866085052490234375" lon="-71.06392429210245609283447265625">
        <ele>738</ele>
        <time>2026-08-21T22:55:00.000Z</time>
        <extensions>
          <ns3:TrackPointExtension>
            <ns3:hr>137</ns3:hr>
            <ns3:cad>0</ns3:cad>
          </ns3:TrackPointExtension>
        </extensions>
      </trkpt>
      <trkpt lat="45.3144408948719501495361328125" lon="-71.06392898596823215484619140625">
        <ele>738.20001220703125</ele>
        <time>2026-08-21T22:55:01.000Z</time>
        <extensions>
          <ns3:TrackPointExtension>
            <ns3:hr>137</ns3:hr>
            <ns3:cad>0</ns3:cad>
          </ns3:TrackPointExtension>
        </extensions>
      </trkpt>
      <trkpt lat="45.31443603336811065673828125" lon="-71.06393770314753055572509765625">
        <ele>738.4000244140625</ele>
        <time>2026-08-21T22:55:02.000Z</time>
        <extensions>
          <ns3:TrackPointExtension>
            <ns3:hr>138</ns3:hr>
            <ns3:cad>0</ns3:cad>
          </ns3:TrackPointExtension>
        </extensions>
      </trkpt>
      <trkpt lat="45.31443066895008087158203125" lon="-71.0639434866607189178466796875">
        <ele>738.5999755859375</ele>
        <time>2026-08-21T22:55:03.000Z</time>
        <extensions>
          <ns3:TrackPointExtension>
            <ns3:hr>137</ns3:hr>
            <ns3:cad>0</ns3:cad>
          </ns3:TrackPointExtension>
        </extensions>
      </trkpt>
      <trkpt lat="45.31442589126527309417724609375" lon="-71.06394759379327297210693359375">
        <ele>738.79998779296875</ele>
        <time>2026-08-21T22:55:04.000Z</time>
        <extensions>
          <ns3:TrackPointExtension>
            <ns3:hr>137</ns3:hr>
            <ns3:cad>0</ns3:cad>
          </ns3:TrackPointExtension>
        </extensions>
      </trkpt>
      <trkpt lat="45.3144201077520847320556640625" lon="-71.06395304203033447265625">
        <ele>739</ele>
        <time>2026-08-21T22:55:05.000Z</time>
        <extensions>
          <ns3:TrackPointExtension>
            <ns3:hr>137</ns3:hr>
            <ns3:cad>0</ns3:cad>
          </ns3:TrackPointExtension>
        </extensions>
      </trkpt>
      <trkpt lat="45.31441600061953067779541015625" lon="-71.06395748443901538848876953125">
        <ele>739.4000244140625</ele>
        <time>2026-08-21T22:55:06.000Z</time>
        <extensions>
          <ns3:TrackPointExtension>
            <ns3:hr>138</ns3:hr>
            <ns3:cad>0</ns3:cad>
          </ns3:TrackPointExtension>
        </extensions>
      </trkpt>
      <trkpt lat="45.31441164202988147735595703125" lon="-71.06396041810512542724609375">
        <ele>739.5999755859375</ele>
        <time>2026-08-21T22:55:07.000Z</time>
        <extensions>
          <ns3:TrackPointExtension>
            <ns3:hr>138</ns3:hr>
            <ns3:cad>0</ns3:cad>
          </ns3:TrackPointExtension>
        </extensions>
      </trkpt>
      <trkpt lat="45.31440761871635913848876953125" lon="-71.06396502815186977386474609375">
        <ele>739.79998779296875</ele>
        <time>2026-08-21T22:55:08.000Z</time>
        <extensions>
          <ns3:TrackPointExtension>
            <ns3:hr>138</ns3:hr>
            <ns3:cad>0</ns3:cad>
          </ns3:TrackPointExtension>
        </extensions>
      </trkpt>
      <trkpt lat="45.31440594233572483062744140625" lon="-71.0639693029224872589111328125">
        <ele>740</ele>
        <time>2026-08-21T22:55:09.000Z</time>
        <extensions>
          <ns3:TrackPointExtension>
            <ns3:hr>138</ns3:hr>
            <ns3:cad>0</ns3:cad>
          </ns3:TrackPointExtension>
        </extensions>
      </trkpt>
      <trkpt lat="45.31439823098480701446533203125" lon="-71.063976176083087921142578125">
        <ele>740.20001220703125</ele>
        <time>2026-08-21T22:55:10.000Z</time>
        <extensions>
          <ns3:TrackPointExtension>
            <ns3:hr>138</ns3:hr>
            <ns3:cad>0</ns3:cad>
          </ns3:TrackPointExtension>
        </extensions>
      </trkpt>
      <trkpt lat="45.3143937885761260986328125" lon="-71.06397843919694423675537109375">
        <ele>740.4000244140625</ele>
        <time>2026-08-21T22:55:11.000Z</time>
        <extensions>
          <ns3:TrackPointExtension>
            <ns3:hr>138</ns3:hr>
            <ns3:cad>0</ns3:cad>
          </ns3:TrackPointExtension>
        </extensions>
      </trkpt>
      <trkpt lat="45.31438934616744518280029296875" lon="-71.0639843903481960296630859375">
        <ele>740.5999755859375</ele>
        <time>2026-08-21T22:55:12.000Z</time>
        <extensions>
          <ns3:TrackPointExtension>
            <ns3:hr>138</ns3:hr>
            <ns3:cad>0</ns3:cad>
          </ns3:TrackPointExtension>
        </extensions>
      </trkpt>
      <trkpt lat="45.3143818862736225128173828125" lon="-71.06399185024201869964599609375">
        <ele>740.79998779296875</ele>
        <time>2026-08-21T22:55:13.000Z</time>
        <extensions>
          <ns3:TrackPointExtension>
            <ns3:hr>137</ns3:hr>
            <ns3:cad>0</ns3:cad>
          </ns3:TrackPointExtension>
        </extensions>
      </trkpt>
      <trkpt lat="45.31437979079782962799072265625" lon="-71.0639974661171436309814453125">
        <ele>741</ele>
        <time>2026-08-21T22:55:14.000Z</time>
        <extensions>
          <ns3:TrackPointExtension>
            <ns3:hr>137</ns3:hr>
            <ns3:cad>0</ns3:cad>
          </ns3:TrackPointExtension>
        </extensions>
      </trkpt>
      <trkpt lat="45.31437492929399013519287109375" lon="-71.06400224380195140838623046875">
        <ele>741.20001220703125</ele>
        <time>2026-08-21T22:55:15.000Z</time>
        <extensions>
          <ns3:TrackPointExtension>
            <ns3:hr>138</ns3:hr>
            <ns3:cad>0</ns3:cad>
          </ns3:TrackPointExtension>
        </extensions>
      </trkpt>
      <trkpt lat="45.31436361372470855712890625" lon="-71.064009703695774078369140625">
        <ele>741.4000244140625</ele>
        <time>2026-08-21T22:55:16.000Z</time>
        <extensions>
          <ns3:TrackPointExtension>
            <ns3:hr>138</ns3:hr>
            <ns3:cad>0</ns3:cad>
          </ns3:TrackPointExtension>
        </extensions>
      </trkpt>
      <trkpt lat="45.314359255135059356689453125" lon="-71.0640152357518672943115234375">
        <ele>741.5999755859375</ele>
        <time>2026-08-21T22:55:17.000Z</time>
        <extensions>
          <ns3:TrackPointExtension>
            <ns3:hr>139</ns3:hr>
            <ns3:cad>0</ns3:cad>
          </ns3:TrackPointExtension>
        </extensions>
      </trkpt>
      <trkpt lat="45.314353890717029571533203125" lon="-71.06401917524635791778564453125">
        <ele>742</ele>
        <time>2026-08-21T22:55:18.000Z</time>
        <extensions>
          <ns3:TrackPointExtension>
            <ns3:hr>140</ns3:hr>
            <ns3:cad>0</ns3:cad>
          </ns3:TrackPointExtension>
        </extensions>
      </trkpt>
      <trkpt lat="45.314355231821537017822265625" lon="-71.06402085162699222564697265625">
        <ele>742.20001220703125</ele>
        <time>2026-08-21T22:55:19.000Z</time>
        <extensions>
          <ns3:TrackPointExtension>
            <ns3:hr>140</ns3:hr>
            <ns3:cad>0</ns3:cad>
          </ns3:TrackPointExtension>
        </extensions>
      </trkpt>
      <trkpt lat="45.31434877775609493255615234375" lon="-71.064023114740848541259765625">
        <ele>742.4000244140625</ele>
        <time>2026-08-21T22:55:20.000Z</time>
        <extensions>
          <ns3:TrackPointExtension>
            <ns3:hr>140</ns3:hr>
            <ns3:cad>0</ns3:cad>
          </ns3:TrackPointExtension>
        </extensions>
      </trkpt>
      <trkpt lat="45.314347185194492340087890625" lon="-71.06402621604502201080322265625">
        <ele>742.5999755859375</ele>
        <time>2026-08-21T22:55:21.000Z</time>
        <extensions>
          <ns3:TrackPointExtension>
            <ns3:hr>140</ns3:hr>
            <ns3:cad>20</ns3:cad>
          </ns3:TrackPointExtension>
        </extensions>
      </trkpt>
      <trkpt lat="45.3143396414816379547119140625" lon="-71.06403040699660778045654296875">
        <ele>742.79998779296875</ele>
        <time>2026-08-21T22:55:22.000Z</time>
        <extensions>
          <ns3:TrackPointExtension>
            <ns3:hr>140</ns3:hr>
            <ns3:cad>20</ns3:cad>
          </ns3:TrackPointExtension>
        </extensions>
      </trkpt>
      <trkpt lat="45.314337797462940216064453125" lon="-71.0640323348343372344970703125">
        <ele>743</ele>
        <time>2026-08-21T22:55:23.000Z</time>
        <extensions>
          <ns3:TrackPointExtension>
            <ns3:hr>141</ns3:hr>
            <ns3:cad>0</ns3:cad>
          </ns3:TrackPointExtension>
        </extensions>
      </trkpt>
      <trkpt lat="45.31433452852070331573486328125" lon="-71.06403694488108158111572265625">
        <ele>743.20001220703125</ele>
        <time>2026-08-21T22:55:24.000Z</time>
        <extensions>
          <ns3:TrackPointExtension>
            <ns3:hr>141</ns3:hr>
            <ns3:cad>0</ns3:cad>
          </ns3:TrackPointExtension>
        </extensions>
      </trkpt>
      <trkpt lat="45.314333103597164154052734375" lon="-71.064040549099445343017578125">
        <ele>743.4000244140625</ele>
        <time>2026-08-21T22:55:25.000Z</time>
        <extensions>
          <ns3:TrackPointExtension>
            <ns3:hr>141</ns3:hr>
            <ns3:cad>0</ns3:cad>
          </ns3:TrackPointExtension>
        </extensions>
      </trkpt>
      <trkpt lat="45.3143252246081829071044921875" lon="-71.0640450753271579742431640625">
        <ele>743.5999755859375</ele>
        <time>2026-08-21T22:55:26.000Z</time>
        <extensions>
          <ns3:TrackPointExtension>
            <ns3:hr>141</ns3:hr>
            <ns3:cad>0</ns3:cad>
          </ns3:TrackPointExtension>
        </extensions>
      </trkpt>
      <trkpt lat="45.31432312913239002227783203125" lon="-71.06404767371714115142822265625">
        <ele>743.79998779296875</ele>
        <time>2026-08-21T22:55:27.000Z</time>
        <extensions>
          <ns3:TrackPointExtension>
            <ns3:hr>141</ns3:hr>
            <ns3:cad>0</ns3:cad>
          </ns3:TrackPointExtension>
        </extensions>
      </trkpt>
      <trkpt lat="45.31431742943823337554931640625" lon="-71.06405253522098064422607421875">
        <ele>744</ele>
        <time>2026-08-21T22:55:28.000Z</time>
        <extensions>
          <ns3:TrackPointExtension>
            <ns3:hr>141</ns3:hr>
            <ns3:cad>0</ns3:cad>
          </ns3:TrackPointExtension>
        </extensions>
      </trkpt>
      <trkpt lat="45.31431156210601329803466796875" lon="-71.06405605562031269073486328125">
        <ele>744.20001220703125</ele>
        <time>2026-08-21T22:55:29.000Z</time>
        <extensions>
          <ns3:TrackPointExtension>
            <ns3:hr>141</ns3:hr>
            <ns3:cad>0</ns3:cad>
          </ns3:TrackPointExtension>
        </extensions>
      </trkpt>
      <trkpt lat="45.3143067844212055206298828125" lon="-71.06405890546739101409912109375">
        <ele>744.4000244140625</ele>
        <time>2026-08-21T22:55:30.000Z</time>
        <extensions>
          <ns3:TrackPointExtension>
            <ns3:hr>141</ns3:hr>
            <ns3:cad>0</ns3:cad>
          </ns3:TrackPointExtension>
        </extensions>
      </trkpt>
      <trkpt lat="45.31430267728865146636962890625" lon="-71.064061336219310760498046875">
        <ele>744.79998779296875</ele>
        <time>2026-08-21T22:55:31.000Z</time>
        <extensions>
          <ns3:TrackPointExtension>
            <ns3:hr>141</ns3:hr>
            <ns3:cad>0</ns3:cad>
          </ns3:TrackPointExtension>
        </extensions>
      </trkpt>
      <trkpt lat="45.31429655849933624267578125" lon="-71.06406477279961109161376953125">
        <ele>745</ele>
        <time>2026-08-21T22:55:32.000Z</time>
        <extensions>
          <ns3:TrackPointExtension>
            <ns3:hr>140</ns3:hr>
            <ns3:cad>0</ns3:cad>
          </ns3:TrackPointExtension>
        </extensions>
      </trkpt>
      <trkpt lat="45.3142839856445789337158203125" lon="-71.06406636536121368408203125">
        <ele>745.20001220703125</ele>
        <time>2026-08-21T22:55:33.000Z</time>
        <extensions>
          <ns3:TrackPointExtension>
            <ns3:hr>140</ns3:hr>
            <ns3:cad>0</ns3:cad>
          </ns3:TrackPointExtension>
        </extensions>
      </trkpt>
      <trkpt lat="45.3142823092639446258544921875" lon="-71.06406762264668941497802734375">
        <ele>745.4000244140625</ele>
        <time>2026-08-21T22:55:34.000Z</time>
        <extensions>
          <ns3:TrackPointExtension>
            <ns3:hr>140</ns3:hr>
            <ns3:cad>0</ns3:cad>
          </ns3:TrackPointExtension>
        </extensions>
      </trkpt>
      <trkpt lat="45.3142730891704559326171875" lon="-71.06406913138926029205322265625">
        <ele>745.4000244140625</ele>
        <time>2026-08-21T22:55:35.000Z</time>
        <extensions>
          <ns3:TrackPointExtension>
            <ns3:hr>139</ns3:hr>
            <ns3:cad>0</ns3:cad>
          </ns3:TrackPointExtension>
        </extensions>
      </trkpt>
      <trkpt lat="45.31426898203790187835693359375" lon="-71.0640718974173069000244140625">
        <ele>745.5999755859375</ele>
        <time>2026-08-21T22:55:36.000Z</time>
        <extensions>
          <ns3:TrackPointExtension>
            <ns3:hr>139</ns3:hr>
            <ns3:cad>0</ns3:cad>
          </ns3:TrackPointExtension>
        </extensions>
      </trkpt>
      <trkpt lat="45.3142631985247135162353515625" lon="-71.06407365761697292327880859375">
        <ele>745.79998779296875</ele>
        <time>2026-08-21T22:55:37.000Z</time>
        <extensions>
          <ns3:TrackPointExtension>
            <ns3:hr>139</ns3:hr>
            <ns3:cad>0</ns3:cad>
          </ns3:TrackPointExtension>
        </extensions>
      </trkpt>
      <trkpt lat="45.31426361761987209320068359375" lon="-71.06407315470278263092041015625">
        <ele>746.20001220703125</ele>
        <time>2026-08-21T22:55:38.000Z</time>
        <extensions>
          <ns3:TrackPointExtension>
            <ns3:hr>139</ns3:hr>
            <ns3:cad>0</ns3:cad>
          </ns3:TrackPointExtension>
        </extensions>
      </trkpt>
      <trkpt lat="45.31426412053406238555908203125" lon="-71.0640739090740680694580078125">
        <ele>746.4000244140625</ele>
        <time>2026-08-21T22:55:39.000Z</time>
        <extensions>
          <ns3:TrackPointExtension>
            <ns3:hr>139</ns3:hr>
            <ns3:cad>0</ns3:cad>
          </ns3:TrackPointExtension>
        </extensions>
      </trkpt>
      <trkpt lat="45.31425808556377887725830078125" lon="-71.06407751329243183135986328125">
        <ele>746.5999755859375</ele>
        <time>2026-08-21T22:55:40.000Z</time>
        <extensions>
          <ns3:TrackPointExtension>
            <ns3:hr>139</ns3:hr>
            <ns3:cad>0</ns3:cad>
          </ns3:TrackPointExtension>
        </extensions>
      </trkpt>
      <trkpt lat="45.31424961984157562255859375" lon="-71.06407986022531986236572265625">
        <ele>746.79998779296875</ele>
        <time>2026-08-21T22:55:41.000Z</time>
        <extensions>
          <ns3:TrackPointExtension>
            <ns3:hr>139</ns3:hr>
            <ns3:cad>0</ns3:cad>
          </ns3:TrackPointExtension>
        </extensions>
      </trkpt>
      <trkpt lat="45.31424735672771930694580078125" lon="-71.06408111751079559326171875">
        <ele>747</ele>
        <time>2026-08-21T22:55:42.000Z</time>
        <extensions>
          <ns3:TrackPointExtension>
            <ns3:hr>139</ns3:hr>
            <ns3:cad>0</ns3:cad>
          </ns3:TrackPointExtension>
        </extensions>
      </trkpt>
      <trkpt lat="45.31424333341419696807861328125" lon="-71.0640819557011127471923828125">
        <ele>747.20001220703125</ele>
        <time>2026-08-21T22:55:43.000Z</time>
        <extensions>
          <ns3:TrackPointExtension>
            <ns3:hr>140</ns3:hr>
            <ns3:cad>0</ns3:cad>
          </ns3:TrackPointExtension>
        </extensions>
      </trkpt>
      <trkpt lat="45.314234532415866851806640625" lon="-71.06408455409109592437744140625">
        <ele>747.5999755859375</ele>
        <time>2026-08-21T22:55:44.000Z</time>
        <extensions>
          <ns3:TrackPointExtension>
            <ns3:hr>140</ns3:hr>
            <ns3:cad>0</ns3:cad>
          </ns3:TrackPointExtension>
        </extensions>
      </trkpt>
      <trkpt lat="45.31422908417880535125732421875" lon="-71.064084134995937347412109375">
        <ele>747.79998779296875</ele>
        <time>2026-08-21T22:55:45.000Z</time>
        <extensions>
          <ns3:TrackPointExtension>
            <ns3:hr>140</ns3:hr>
            <ns3:cad>0</ns3:cad>
          </ns3:TrackPointExtension>
        </extensions>
      </trkpt>
      <trkpt lat="45.31422690488398075103759765625" lon="-71.06408455409109592437744140625">
        <ele>748</ele>
        <time>2026-08-21T22:55:46.000Z</time>
        <extensions>
          <ns3:TrackPointExtension>
            <ns3:hr>140</ns3:hr>
            <ns3:cad>0</ns3:cad>
          </ns3:TrackPointExtension>
        </extensions>
      </trkpt>
      <trkpt lat="45.3142196126282215118408203125" lon="-71.06408438645303249359130859375">
        <ele>748.20001220703125</ele>
        <time>2026-08-21T22:55:47.000Z</time>
        <extensions>
          <ns3:TrackPointExtension>
            <ns3:hr>139</ns3:hr>
            <ns3:cad>0</ns3:cad>
          </ns3:TrackPointExtension>
        </extensions>
      </trkpt>
      <trkpt lat="45.3142172656953334808349609375" lon="-71.06408589519560337066650390625">
        <ele>748.4000244140625</ele>
        <time>2026-08-21T22:55:48.000Z</time>
        <extensions>
          <ns3:TrackPointExtension>
            <ns3:hr>140</ns3:hr>
            <ns3:cad>0</ns3:cad>
          </ns3:TrackPointExtension>
        </extensions>
      </trkpt>
      <trkpt lat="45.31421206891536712646484375" lon="-71.0640896670520305633544921875">
        <ele>748.5999755859375</ele>
        <time>2026-08-21T22:55:49.000Z</time>
        <extensions>
          <ns3:TrackPointExtension>
            <ns3:hr>140</ns3:hr>
            <ns3:cad>0</ns3:cad>
          </ns3:TrackPointExtension>
        </extensions>
      </trkpt>
      <trkpt lat="45.31420536339282989501953125" lon="-71.0640884935855865478515625">
        <ele>748.79998779296875</ele>
        <time>2026-08-21T22:55:50.000Z</time>
        <extensions>
          <ns3:TrackPointExtension>
            <ns3:hr>141</ns3:hr>
            <ns3:cad>0</ns3:cad>
          </ns3:TrackPointExtension>
        </extensions>
      </trkpt>
      <trkpt lat="45.3142015077173709869384765625" lon="-71.0640883259475231170654296875">
        <ele>749</ele>
        <time>2026-08-21T22:55:51.000Z</time>
        <extensions>
          <ns3:TrackPointExtension>
            <ns3:hr>142</ns3:hr>
            <ns3:cad>0</ns3:cad>
          </ns3:TrackPointExtension>
        </extensions>
      </trkpt>
      <trkpt lat="45.31419220380485057830810546875" lon="-71.064089834690093994140625">
        <ele>749.20001220703125</ele>
        <time>2026-08-21T22:55:52.000Z</time>
        <extensions>
          <ns3:TrackPointExtension>
            <ns3:hr>143</ns3:hr>
            <ns3:cad>0</ns3:cad>
          </ns3:TrackPointExtension>
        </extensions>
      </trkpt>
      <trkpt lat="45.31418633647263050079345703125" lon="-71.0640884935855865478515625">
        <ele>749.4000244140625</ele>
        <time>2026-08-21T22:55:53.000Z</time>
        <extensions>
          <ns3:TrackPointExtension>
            <ns3:hr>143</ns3:hr>
            <ns3:cad>0</ns3:cad>
          </ns3:TrackPointExtension>
        </extensions>
      </trkpt>
      <trkpt lat="45.314179547131061553955078125" lon="-71.06408740393817424774169921875">
        <ele>749.5999755859375</ele>
        <time>2026-08-21T22:55:54.000Z</time>
        <extensions>
          <ns3:TrackPointExtension>
            <ns3:hr>143</ns3:hr>
            <ns3:cad>0</ns3:cad>
          </ns3:TrackPointExtension>
        </extensions>
      </trkpt>
      <trkpt lat="45.314174182713031768798828125" lon="-71.0640839673578739166259765625">
        <ele>749.79998779296875</ele>
        <time>2026-08-21T22:55:55.000Z</time>
        <extensions>
          <ns3:TrackPointExtension>
            <ns3:hr>143</ns3:hr>
            <ns3:cad>73</ns3:cad>
          </ns3:TrackPointExtension>
        </extensions>
      </trkpt>
      <trkpt lat="45.31416705809533596038818359375" lon="-71.0640816204249858856201171875">
        <ele>750</ele>
        <time>2026-08-21T22:55:56.000Z</time>
        <extensions>
          <ns3:TrackPointExtension>
            <ns3:hr>144</ns3:hr>
            <ns3:cad>73</ns3:cad>
          </ns3:TrackPointExtension>
        </extensions>
      </trkpt>
      <trkpt lat="45.31416202895343303680419921875" lon="-71.064080782234668731689453125">
        <ele>750.20001220703125</ele>
        <time>2026-08-21T22:55:57.000Z</time>
        <extensions>
          <ns3:TrackPointExtension>
            <ns3:hr>144</ns3:hr>
            <ns3:cad>73</ns3:cad>
          </ns3:TrackPointExtension>
        </extensions>
      </trkpt>
      <trkpt lat="45.3141589276492595672607421875" lon="-71.06408120132982730865478515625">
        <ele>750.4000244140625</ele>
        <time>2026-08-21T22:55:58.000Z</time>
        <extensions>
          <ns3:TrackPointExtension>
            <ns3:hr>144</ns3:hr>
            <ns3:cad>73</ns3:cad>
          </ns3:TrackPointExtension>
        </extensions>
      </trkpt>
      <trkpt lat="45.3141522221267223358154296875" lon="-71.064078100025653839111328125">
        <ele>750.79998779296875</ele>
        <time>2026-08-21T22:55:59.000Z</time>
        <extensions>
          <ns3:TrackPointExtension>
            <ns3:hr>144</ns3:hr>
            <ns3:cad>73</ns3:cad>
          </ns3:TrackPointExtension>
        </extensions>
      </trkpt>
      <trkpt lat="45.314144007861614227294921875" lon="-71.0640789382159709930419921875">
        <ele>750.79998779296875</ele>
        <time>2026-08-21T22:56:00.000Z</time>
        <extensions>
          <ns3:TrackPointExtension>
            <ns3:hr>143</ns3:hr>
            <ns3:cad>76</ns3:cad>
          </ns3:TrackPointExtension>
        </extensions>
      </trkpt>
      <trkpt lat="45.31413319520652294158935546875" lon="-71.0640831291675567626953125">
        <ele>751</ele>
        <time>2026-08-21T22:56:01.000Z</time>
        <extensions>
          <ns3:TrackPointExtension>
            <ns3:hr>143</ns3:hr>
            <ns3:cad>76</ns3:cad>
          </ns3:TrackPointExtension>
        </extensions>
      </trkpt>
      <trkpt lat="45.31412481330335140228271484375" lon="-71.06408807449042797088623046875">
        <ele>751.20001220703125</ele>
        <time>2026-08-21T22:56:02.000Z</time>
        <extensions>
          <ns3:TrackPointExtension>
            <ns3:hr>142</ns3:hr>
            <ns3:cad>42</ns3:cad>
          </ns3:TrackPointExtension>
        </extensions>
      </trkpt>
      <trkpt lat="45.31411894597113132476806640625" lon="-71.0640936903655529022216796875">
        <ele>751.20001220703125</ele>
        <time>2026-08-21T22:56:03.000Z</time>
        <extensions>
          <ns3:TrackPointExtension>
            <ns3:hr>142</ns3:hr>
            <ns3:cad>42</ns3:cad>
          </ns3:TrackPointExtension>
        </extensions>
      </trkpt>
      <trkpt lat="45.314115174114704132080078125" lon="-71.0641077719628810882568359375">
        <ele>751.4000244140625</ele>
        <time>2026-08-21T22:56:04.000Z</time>
        <extensions>
          <ns3:TrackPointExtension>
            <ns3:hr>142</ns3:hr>
            <ns3:cad>66</ns3:cad>
          </ns3:TrackPointExtension>
        </extensions>
      </trkpt>
      <trkpt lat="45.31411685049533843994140625" lon="-71.06412244029343128204345703125">
        <ele>751.4000244140625</ele>
        <time>2026-08-21T22:56:05.000Z</time>
        <extensions>
          <ns3:TrackPointExtension>
            <ns3:hr>143</ns3:hr>
            <ns3:cad>66</ns3:cad>
          </ns3:TrackPointExtension>
        </extensions>
      </trkpt>
      <trkpt lat="45.3141121566295623779296875" lon="-71.06413668952882289886474609375">
        <ele>751.5999755859375</ele>
        <time>2026-08-21T22:56:06.000Z</time>
        <extensions>
          <ns3:TrackPointExtension>
            <ns3:hr>143</ns3:hr>
            <ns3:cad>66</ns3:cad>
          </ns3:TrackPointExtension>
        </extensions>
      </trkpt>
      <trkpt lat="45.31410503201186656951904296875" lon="-71.06415378861129283905029296875">
        <ele>751.79998779296875</ele>
        <time>2026-08-21T22:56:07.000Z</time>
        <extensions>
          <ns3:TrackPointExtension>
            <ns3:hr>143</ns3:hr>
            <ns3:cad>76</ns3:cad>
          </ns3:TrackPointExtension>
        </extensions>
      </trkpt>
      <trkpt lat="45.3140987455844879150390625" lon="-71.06416518799960613250732421875">
        <ele>751.79998779296875</ele>
        <time>2026-08-21T22:56:08.000Z</time>
        <extensions>
          <ns3:TrackPointExtension>
            <ns3:hr>143</ns3:hr>
            <ns3:cad>76</ns3:cad>
          </ns3:TrackPointExtension>
        </extensions>
      </trkpt>
      <trkpt lat="45.31409346498548984527587890625" lon="-71.0641748271882534027099609375">
        <ele>752</ele>
        <time>2026-08-21T22:56:09.000Z</time>
        <extensions>
          <ns3:TrackPointExtension>
            <ns3:hr>142</ns3:hr>
            <ns3:cad>41</ns3:cad>
          </ns3:TrackPointExtension>
        </extensions>
      </trkpt>
      <trkpt lat="45.31408659182488918304443359375" lon="-71.064186729490756988525390625">
        <ele>752.20001220703125</ele>
        <time>2026-08-21T22:56:10.000Z</time>
        <extensions>
          <ns3:TrackPointExtension>
            <ns3:hr>142</ns3:hr>
            <ns3:cad>41</ns3:cad>
          </ns3:TrackPointExtension>
        </extensions>
      </trkpt>
      <trkpt lat="45.31407820992171764373779296875" lon="-71.064196117222309112548828125">
        <ele>752.20001220703125</ele>
        <time>2026-08-21T22:56:11.000Z</time>
        <extensions>
          <ns3:TrackPointExtension>
            <ns3:hr>142</ns3:hr>
            <ns3:cad>41</ns3:cad>
          </ns3:TrackPointExtension>
        </extensions>
      </trkpt>
      <trkpt lat="45.31407284550368785858154296875" lon="-71.06420089490711688995361328125">
        <ele>752.4000244140625</ele>
        <time>2026-08-21T22:56:12.000Z</time>
        <extensions>
          <ns3:TrackPointExtension>
            <ns3:hr>142</ns3:hr>
            <ns3:cad>43</ns3:cad>
          </ns3:TrackPointExtension>
        </extensions>
      </trkpt>
      <trkpt lat="45.3140673972666263580322265625" lon="-71.0642103664577007293701171875">
        <ele>752.5999755859375</ele>
        <time>2026-08-21T22:56:13.000Z</time>
        <extensions>
          <ns3:TrackPointExtension>
            <ns3:hr>142</ns3:hr>
            <ns3:cad>43</ns3:cad>
          </ns3:TrackPointExtension>
        </extensions>
      </trkpt>
      <trkpt lat="45.31406320631504058837890625" lon="-71.06422126293182373046875">
        <ele>752.79998779296875</ele>
        <time>2026-08-21T22:56:14.000Z</time>
        <extensions>
          <ns3:TrackPointExtension>
            <ns3:hr>141</ns3:hr>
            <ns3:cad>43</ns3:cad>
          </ns3:TrackPointExtension>
        </extensions>
      </trkpt>
      <trkpt lat="45.31406379304826259613037109375" lon="-71.064222268760204315185546875">
        <ele>752.79998779296875</ele>
        <time>2026-08-21T22:56:15.000Z</time>
        <extensions>
          <ns3:TrackPointExtension>
            <ns3:hr>141</ns3:hr>
            <ns3:cad>43</ns3:cad>
          </ns3:TrackPointExtension>
        </extensions>
      </trkpt>
      <trkpt lat="45.314065553247928619384765625" lon="-71.0642214305698871612548828125">
        <ele>753</ele>
        <time>2026-08-21T22:56:16.000Z</time>
        <extensions>
          <ns3:TrackPointExtension>
            <ns3:hr>141</ns3:hr>
            <ns3:cad>0</ns3:cad>
          </ns3:TrackPointExtension>
        </extensions>
      </trkpt>
      <trkpt lat="45.31406630761921405792236328125" lon="-71.06422050856053829193115234375">
        <ele>753</ele>
        <time>2026-08-21T22:56:17.000Z</time>
        <extensions>
          <ns3:TrackPointExtension>
            <ns3:hr>141</ns3:hr>
            <ns3:cad>0</ns3:cad>
          </ns3:TrackPointExtension>
        </extensions>
      </trkpt>
      <trkpt lat="45.31406630761921405792236328125" lon="-71.06422050856053829193115234375">
        <ele>753.20001220703125</ele>
        <time>2026-08-21T22:56:18.000Z</time>
        <extensions>
          <ns3:TrackPointExtension>
            <ns3:hr>140</ns3:hr>
            <ns3:cad>0</ns3:cad>
          </ns3:TrackPointExtension>
        </extensions>
      </trkpt>
      <trkpt lat="45.31406630761921405792236328125" lon="-71.06422050856053829193115234375">
        <ele>753.20001220703125</ele>
        <time>2026-08-21T22:56:19.000Z</time>
        <extensions>
          <ns3:TrackPointExtension>
            <ns3:hr>141</ns3:hr>
            <ns3:cad>0</ns3:cad>
          </ns3:TrackPointExtension>
        </extensions>
      </trkpt>
      <trkpt lat="45.31406630761921405792236328125" lon="-71.06422050856053829193115234375">
        <ele>753.20001220703125</ele>
        <time>2026-08-21T22:56:20.000Z</time>
        <extensions>
          <ns3:TrackPointExtension>
            <ns3:hr>140</ns3:hr>
            <ns3:cad>0</ns3:cad>
          </ns3:TrackPointExtension>
        </extensions>
      </trkpt>
      <trkpt lat="45.31406630761921405792236328125" lon="-71.06422050856053829193115234375">
        <ele>753.20001220703125</ele>
        <time>2026-08-21T22:56:21.000Z</time>
        <extensions>
          <ns3:TrackPointExtension>
            <ns3:hr>140</ns3:hr>
            <ns3:cad>0</ns3:cad>
          </ns3:TrackPointExtension>
        </extensions>
      </trkpt>
      <trkpt lat="45.31406630761921405792236328125" lon="-71.06422050856053829193115234375">
        <ele>753.20001220703125</ele>
        <time>2026-08-21T22:56:22.000Z</time>
        <extensions>
          <ns3:TrackPointExtension>
            <ns3:hr>140</ns3:hr>
            <ns3:cad>0</ns3:cad>
          </ns3:TrackPointExtension>
        </extensions>
      </trkpt>
      <trkpt lat="45.31406630761921405792236328125" lon="-71.06422050856053829193115234375">
        <ele>753.20001220703125</ele>
        <time>2026-08-21T22:56:23.000Z</time>
        <extensions>
          <ns3:TrackPointExtension>
            <ns3:hr>140</ns3:hr>
            <ns3:cad>0</ns3:cad>
          </ns3:TrackPointExtension>
        </extensions>
      </trkpt>
      <trkpt lat="45.31406630761921405792236328125" lon="-71.06422050856053829193115234375">
        <ele>753.20001220703125</ele>
        <time>2026-08-21T22:56:24.000Z</time>
        <extensions>
          <ns3:TrackPointExtension>
            <ns3:hr>139</ns3:hr>
            <ns3:cad>0</ns3:cad>
          </ns3:TrackPointExtension>
        </extensions>
      </trkpt>
      <trkpt lat="45.31406630761921405792236328125" lon="-71.06422050856053829193115234375">
        <ele>753.20001220703125</ele>
        <time>2026-08-21T22:56:25.000Z</time>
        <extensions>
          <ns3:TrackPointExtension>
            <ns3:hr>138</ns3:hr>
            <ns3:cad>0</ns3:cad>
          </ns3:TrackPointExtension>
        </extensions>
      </trkpt>
      <trkpt lat="45.31406630761921405792236328125" lon="-71.06422050856053829193115234375">
        <ele>753.20001220703125</ele>
        <time>2026-08-21T22:56:26.000Z</time>
        <extensions>
          <ns3:TrackPointExtension>
            <ns3:hr>137</ns3:hr>
            <ns3:cad>0</ns3:cad>
          </ns3:TrackPointExtension>
        </extensions>
      </trkpt>
      <trkpt lat="45.31406630761921405792236328125" lon="-71.06422050856053829193115234375">
        <ele>753.20001220703125</ele>
        <time>2026-08-21T22:56:27.000Z</time>
        <extensions>
          <ns3:TrackPointExtension>
            <ns3:hr>137</ns3:hr>
            <ns3:cad>0</ns3:cad>
          </ns3:TrackPointExtension>
        </extensions>
      </trkpt>
      <trkpt lat="45.31406630761921405792236328125" lon="-71.06422050856053829193115234375">
        <ele>753.20001220703125</ele>
        <time>2026-08-21T22:56:28.000Z</time>
        <extensions>
          <ns3:TrackPointExtension>
            <ns3:hr>136</ns3:hr>
            <ns3:cad>0</ns3:cad>
          </ns3:TrackPointExtension>
        </extensions>
      </trkpt>
      <trkpt lat="45.31406630761921405792236328125" lon="-71.06422050856053829193115234375">
        <ele>753.20001220703125</ele>
        <time>2026-08-21T22:56:29.000Z</time>
        <extensions>
          <ns3:TrackPointExtension>
            <ns3:hr>136</ns3:hr>
            <ns3:cad>0</ns3:cad>
          </ns3:TrackPointExtension>
        </extensions>
      </trkpt>
      <trkpt lat="45.31406630761921405792236328125" lon="-71.06422050856053829193115234375">
        <ele>753.20001220703125</ele>
        <time>2026-08-21T22:56:30.000Z</time>
        <extensions>
          <ns3:TrackPointExtension>
            <ns3:hr>136</ns3:hr>
            <ns3:cad>0</ns3:cad>
          </ns3:TrackPointExtension>
        </extensions>
      </trkpt>
      <trkpt lat="45.31406630761921405792236328125" lon="-71.06422050856053829193115234375">
        <ele>753.20001220703125</ele>
        <time>2026-08-21T22:56:31.000Z</time>
        <extensions>
          <ns3:TrackPointExtension>
            <ns3:hr>135</ns3:hr>
            <ns3:cad>0</ns3:cad>
          </ns3:TrackPointExtension>
        </extensions>
      </trkpt>
      <trkpt lat="45.31406479887664318084716796875" lon="-71.064224280416965484619140625">
        <ele>753.20001220703125</ele>
        <time>2026-08-21T22:56:32.000Z</time>
        <extensions>
          <ns3:TrackPointExtension>
            <ns3:hr>135</ns3:hr>
            <ns3:cad>0</ns3:cad>
          </ns3:TrackPointExtension>
        </extensions>
      </trkpt>
      <trkpt lat="45.31405826099216938018798828125" lon="-71.0642331652343273162841796875">
        <ele>753.20001220703125</ele>
        <time>2026-08-21T22:56:33.000Z</time>
        <extensions>
          <ns3:TrackPointExtension>
            <ns3:hr>135</ns3:hr>
            <ns3:cad>0</ns3:cad>
          </ns3:TrackPointExtension>
        </extensions>
      </trkpt>
      <trkpt lat="45.314052812755107879638671875" lon="-71.06424079276621341705322265625">
        <ele>753.20001220703125</ele>
        <time>2026-08-21T22:56:34.000Z</time>
        <extensions>
          <ns3:TrackPointExtension>
            <ns3:hr>135</ns3:hr>
            <ns3:cad>0</ns3:cad>
          </ns3:TrackPointExtension>
        </extensions>
      </trkpt>
      <trkpt lat="45.31404686160385608673095703125" lon="-71.06424883939325809478759765625">
        <ele>753.4000244140625</ele>
        <time>2026-08-21T22:56:35.000Z</time>
        <extensions>
          <ns3:TrackPointExtension>
            <ns3:hr>135</ns3:hr>
            <ns3:cad>0</ns3:cad>
          </ns3:TrackPointExtension>
        </extensions>
      </trkpt>
      <trkpt lat="45.31403982080519199371337890625" lon="-71.06425973586738109588623046875">
        <ele>753.4000244140625</ele>
        <time>2026-08-21T22:56:36.000Z</time>
        <extensions>
          <ns3:TrackPointExtension>
            <ns3:hr>136</ns3:hr>
            <ns3:cad>0</ns3:cad>
          </ns3:TrackPointExtension>
        </extensions>
      </trkpt>
      <trkpt lat="45.3140365518629550933837890625" lon="-71.06426694430410861968994140625">
        <ele>753.5999755859375</ele>
        <time>2026-08-21T22:56:37.000Z</time>
        <extensions>
          <ns3:TrackPointExtension>
            <ns3:hr>136</ns3:hr>
            <ns3:cad>0</ns3:cad>
          </ns3:TrackPointExtension>
        </extensions>
      </trkpt>
      <trkpt lat="45.31403546221554279327392578125" lon="-71.06427147053182125091552734375">
        <ele>753.79998779296875</ele>
        <time>2026-08-21T22:56:38.000Z</time>
        <extensions>
          <ns3:TrackPointExtension>
            <ns3:hr>136</ns3:hr>
            <ns3:cad>0</ns3:cad>
          </ns3:TrackPointExtension>
        </extensions>
      </trkpt>
      <trkpt lat="45.31403495930135250091552734375" lon="-71.064271219074726104736328125">
        <ele>753.79998779296875</ele>
        <time>2026-08-21T22:56:39.000Z</time>
        <extensions>
          <ns3:TrackPointExtension>
            <ns3:hr>135</ns3:hr>
            <ns3:cad>0</ns3:cad>
          </ns3:TrackPointExtension>
        </extensions>
      </trkpt>
      <trkpt lat="45.31403495930135250091552734375" lon="-71.064271219074726104736328125">
        <ele>753.79998779296875</ele>
        <time>2026-08-21T22:56:40.000Z</time>
        <extensions>
          <ns3:TrackPointExtension>
            <ns3:hr>136</ns3:hr>
            <ns3:cad>0</ns3:cad>
          </ns3:TrackPointExtension>
        </extensions>
      </trkpt>
      <trkpt lat="45.31403495930135250091552734375" lon="-71.064271219074726104736328125">
        <ele>753.79998779296875</ele>
        <time>2026-08-21T22:56:41.000Z</time>
        <extensions>
          <ns3:TrackPointExtension>
            <ns3:hr>136</ns3:hr>
            <ns3:cad>0</ns3:cad>
          </ns3:TrackPointExtension>
        </extensions>
      </trkpt>
      <trkpt lat="45.31403495930135250091552734375" lon="-71.064271219074726104736328125">
        <ele>753.79998779296875</ele>
        <time>2026-08-21T22:56:42.000Z</time>
        <extensions>
          <ns3:TrackPointExtension>
            <ns3:hr>135</ns3:hr>
            <ns3:cad>0</ns3:cad>
          </ns3:TrackPointExtension>
        </extensions>
      </trkpt>
      <trkpt lat="45.31403495930135250091552734375" lon="-71.064271219074726104736328125">
        <ele>753.79998779296875</ele>
        <time>2026-08-21T22:56:43.000Z</time>
        <extensions>
          <ns3:TrackPointExtension>
            <ns3:hr>136</ns3:hr>
            <ns3:cad>0</ns3:cad>
          </ns3:TrackPointExtension>
        </extensions>
      </trkpt>
      <trkpt lat="45.31403495930135250091552734375" lon="-71.064271219074726104736328125">
        <ele>753.79998779296875</ele>
        <time>2026-08-21T22:56:44.000Z</time>
        <extensions>
          <ns3:TrackPointExtension>
            <ns3:hr>136</ns3:hr>
            <ns3:cad>0</ns3:cad>
          </ns3:TrackPointExtension>
        </extensions>
      </trkpt>
      <trkpt lat="45.314033031463623046875" lon="-71.06427113525569438934326171875">
        <ele>753.79998779296875</ele>
        <time>2026-08-21T22:56:45.000Z</time>
        <extensions>
          <ns3:TrackPointExtension>
            <ns3:hr>135</ns3:hr>
            <ns3:cad>0</ns3:cad>
          </ns3:TrackPointExtension>
        </extensions>
      </trkpt>
      <trkpt lat="45.3140241466462612152099609375" lon="-71.064283289015293121337890625">
        <ele>753.79998779296875</ele>
        <time>2026-08-21T22:56:46.000Z</time>
        <extensions>
          <ns3:TrackPointExtension>
            <ns3:hr>135</ns3:hr>
            <ns3:cad>0</ns3:cad>
          </ns3:TrackPointExtension>
        </extensions>
      </trkpt>
      <trkpt lat="45.3140174411237239837646484375" lon="-71.0642965324223041534423828125">
        <ele>753.79998779296875</ele>
        <time>2026-08-21T22:56:47.000Z</time>
        <extensions>
          <ns3:TrackPointExtension>
            <ns3:hr>134</ns3:hr>
            <ns3:cad>0</ns3:cad>
          </ns3:TrackPointExtension>
        </extensions>
      </trkpt>
      <trkpt lat="45.31401081942021846771240234375" lon="-71.06431187130510807037353515625">
        <ele>754</ele>
        <time>2026-08-21T22:56:48.000Z</time>
        <extensions>
          <ns3:TrackPointExtension>
            <ns3:hr>133</ns3:hr>
            <ns3:cad>43</ns3:cad>
          </ns3:TrackPointExtension>
        </extensions>
      </trkpt>
      <trkpt lat="45.3140026889741420745849609375" lon="-71.06432922184467315673828125">
        <ele>754</ele>
        <time>2026-08-21T22:56:49.000Z</time>
        <extensions>
          <ns3:TrackPointExtension>
            <ns3:hr>131</ns3:hr>
            <ns3:cad>43</ns3:cad>
          </ns3:TrackPointExtension>
        </extensions>
      </trkpt>
      <trkpt lat="45.313997156918048858642578125" lon="-71.0643433034420013427734375">
        <ele>754</ele>
        <time>2026-08-21T22:56:50.000Z</time>
        <extensions>
          <ns3:TrackPointExtension>
            <ns3:hr>130</ns3:hr>
            <ns3:cad>43</ns3:cad>
          </ns3:TrackPointExtension>
        </extensions>
      </trkpt>
      <trkpt lat="45.31399187631905078887939453125" lon="-71.064354367554187774658203125">
        <ele>754</ele>
        <time>2026-08-21T22:56:51.000Z</time>
        <extensions>
          <ns3:TrackPointExtension>
            <ns3:hr>130</ns3:hr>
            <ns3:cad>42</ns3:cad>
          </ns3:TrackPointExtension>
        </extensions>
      </trkpt>
      <trkpt lat="45.3139835782349109649658203125" lon="-71.06436551548540592193603515625">
        <ele>754.20001220703125</ele>
        <time>2026-08-21T22:56:52.000Z</time>
        <extensions>
          <ns3:TrackPointExtension>
            <ns3:hr>129</ns3:hr>
            <ns3:cad>42</ns3:cad>
          </ns3:TrackPointExtension>
        </extensions>
      </trkpt>
      <trkpt lat="45.3139782138168811798095703125" lon="-71.06437624432146549224853515625">
        <ele>754.20001220703125</ele>
        <time>2026-08-21T22:56:53.000Z</time>
        <extensions>
          <ns3:TrackPointExtension>
            <ns3:hr>129</ns3:hr>
            <ns3:cad>42</ns3:cad>
          </ns3:TrackPointExtension>
        </extensions>
      </trkpt>
      <trkpt lat="45.31397402286529541015625" lon="-71.06438948772847652435302734375">
        <ele>754.4000244140625</ele>
        <time>2026-08-21T22:56:54.000Z</time>
        <extensions>
          <ns3:TrackPointExtension>
            <ns3:hr>129</ns3:hr>
            <ns3:cad>42</ns3:cad>
          </ns3:TrackPointExtension>
        </extensions>
      </trkpt>
      <trkpt lat="45.31397108919918537139892578125" lon="-71.06440273113548755645751953125">
        <ele>754.4000244140625</ele>
        <time>2026-08-21T22:56:55.000Z</time>
        <extensions>
          <ns3:TrackPointExtension>
            <ns3:hr>128</ns3:hr>
            <ns3:cad>48</ns3:cad>
          </ns3:TrackPointExtension>
        </extensions>
      </trkpt>
      <trkpt lat="45.31396756879985332489013671875" lon="-71.06441664509475231170654296875">
        <ele>754.5999755859375</ele>
        <time>2026-08-21T22:56:56.000Z</time>
        <extensions>
          <ns3:TrackPointExtension>
            <ns3:hr>128</ns3:hr>
            <ns3:cad>48</ns3:cad>
          </ns3:TrackPointExtension>
        </extensions>
      </trkpt>
      <trkpt lat="45.31396237201988697052001953125" lon="-71.06442871503531932830810546875">
        <ele>754.5999755859375</ele>
        <time>2026-08-21T22:56:57.000Z</time>
        <extensions>
          <ns3:TrackPointExtension>
            <ns3:hr>128</ns3:hr>
            <ns3:cad>46</ns3:cad>
          </ns3:TrackPointExtension>
        </extensions>
      </trkpt>
      <trkpt lat="45.31395751051604747772216796875" lon="-71.0644427128136157989501953125">
        <ele>754.79998779296875</ele>
        <time>2026-08-21T22:56:58.000Z</time>
        <extensions>
          <ns3:TrackPointExtension>
            <ns3:hr>127</ns3:hr>
            <ns3:cad>46</ns3:cad>
          </ns3:TrackPointExtension>
        </extensions>
      </trkpt>
      <trkpt lat="45.313952229917049407958984375" lon="-71.06445888988673686981201171875">
        <ele>754.79998779296875</ele>
        <time>2026-08-21T22:56:59.000Z</time>
        <extensions>
          <ns3:TrackPointExtension>
            <ns3:hr>127</ns3:hr>
            <ns3:cad>46</ns3:cad>
          </ns3:TrackPointExtension>
        </extensions>
      </trkpt>
      <trkpt lat="45.31394577585160732269287109375" lon="-71.0644747316837310791015625">
        <ele>755</ele>
        <time>2026-08-21T22:57:00.000Z</time>
        <extensions>
          <ns3:TrackPointExtension>
            <ns3:hr>126</ns3:hr>
            <ns3:cad>48</ns3:cad>
          </ns3:TrackPointExtension>
        </extensions>
      </trkpt>
      <trkpt lat="45.3139404952526092529296875" lon="-71.0644889809191226959228515625">
        <ele>755</ele>
        <time>2026-08-21T22:57:01.000Z</time>
        <extensions>
          <ns3:TrackPointExtension>
            <ns3:hr>127</ns3:hr>
            <ns3:cad>48</ns3:cad>
          </ns3:TrackPointExtension>
        </extensions>
      </trkpt>
      <trkpt lat="45.31393303535878658294677734375" lon="-71.06450096704065799713134765625">
        <ele>755</ele>
        <time>2026-08-21T22:57:02.000Z</time>
        <extensions>
          <ns3:TrackPointExtension>
            <ns3:hr>127</ns3:hr>
            <ns3:cad>48</ns3:cad>
          </ns3:TrackPointExtension>
        </extensions>
      </trkpt>
      <trkpt lat="45.3139275871217250823974609375" lon="-71.06451102532446384429931640625">
        <ele>755.20001220703125</ele>
        <time>2026-08-21T22:57:03.000Z</time>
        <extensions>
          <ns3:TrackPointExtension>
            <ns3:hr>128</ns3:hr>
            <ns3:cad>48</ns3:cad>
          </ns3:TrackPointExtension>
        </extensions>
      </trkpt>
      <trkpt lat="45.313922725617885589599609375" lon="-71.06451739557087421417236328125">
        <ele>755.20001220703125</ele>
        <time>2026-08-21T22:57:04.000Z</time>
        <extensions>
          <ns3:TrackPointExtension>
            <ns3:hr>127</ns3:hr>
            <ns3:cad>48</ns3:cad>
          </ns3:TrackPointExtension>
        </extensions>
      </trkpt>
      <trkpt lat="45.31391979195177555084228515625" lon="-71.06452745385468006134033203125">
        <ele>755.4000244140625</ele>
        <time>2026-08-21T22:57:05.000Z</time>
        <extensions>
          <ns3:TrackPointExtension>
            <ns3:hr>125</ns3:hr>
            <ns3:cad>50</ns3:cad>
          </ns3:TrackPointExtension>
        </extensions>
      </trkpt>
      <trkpt lat="45.3139141760766506195068359375" lon="-71.06453650631010532379150390625">
        <ele>755.4000244140625</ele>
        <time>2026-08-21T22:57:06.000Z</time>
        <extensions>
          <ns3:TrackPointExtension>
            <ns3:hr>124</ns3:hr>
            <ns3:cad>50</ns3:cad>
          </ns3:TrackPointExtension>
        </extensions>
      </trkpt>
      <trkpt lat="45.3139074705541133880615234375" lon="-71.0645471513271331787109375">
        <ele>755.5999755859375</ele>
        <time>2026-08-21T22:57:07.000Z</time>
        <extensions>
          <ns3:TrackPointExtension>
            <ns3:hr>123</ns3:hr>
            <ns3:cad>50</ns3:cad>
          </ns3:TrackPointExtension>
        </extensions>
      </trkpt>
      <trkpt lat="45.31389900483191013336181640625" lon="-71.06455452740192413330078125">
        <ele>755.79998779296875</ele>
        <time>2026-08-21T22:57:08.000Z</time>
        <extensions>
          <ns3:TrackPointExtension>
            <ns3:hr>122</ns3:hr>
            <ns3:cad>49</ns3:cad>
          </ns3:TrackPointExtension>
        </extensions>
      </trkpt>
      <trkpt lat="45.313891209661960601806640625" lon="-71.0645674355328083038330078125">
        <ele>755.79998779296875</ele>
        <time>2026-08-21T22:57:09.000Z</time>
        <extensions>
          <ns3:TrackPointExtension>
            <ns3:hr>120</ns3:hr>
            <ns3:cad>49</ns3:cad>
          </ns3:TrackPointExtension>
        </extensions>
      </trkpt>
      <trkpt lat="45.31388106755912303924560546875" lon="-71.0645766556262969970703125">
        <ele>756</ele>
        <time>2026-08-21T22:57:10.000Z</time>
        <extensions>
          <ns3:TrackPointExtension>
            <ns3:hr>120</ns3:hr>
            <ns3:cad>48</ns3:cad>
          </ns3:TrackPointExtension>
        </extensions>
      </trkpt>
      <trkpt lat="45.313877798616886138916015625" lon="-71.06458663009107112884521484375">
        <ele>756</ele>
        <time>2026-08-21T22:57:11.000Z</time>
        <extensions>
          <ns3:TrackPointExtension>
            <ns3:hr>119</ns3:hr>
            <ns3:cad>48</ns3:cad>
          </ns3:TrackPointExtension>
        </extensions>
      </trkpt>
      <trkpt lat="45.31387184746563434600830078125" lon="-71.06459517963230609893798828125">
        <ele>756.20001220703125</ele>
        <time>2026-08-21T22:57:12.000Z</time>
        <extensions>
          <ns3:TrackPointExtension>
            <ns3:hr>119</ns3:hr>
            <ns3:cad>50</ns3:cad>
          </ns3:TrackPointExtension>
        </extensions>
      </trkpt>
      <trkpt lat="45.3138665668666362762451171875" lon="-71.0646019689738750457763671875">
        <ele>756.4000244140625</ele>
        <time>2026-08-21T22:57:13.000Z</time>
        <extensions>
          <ns3:TrackPointExtension>
            <ns3:hr>119</ns3:hr>
            <ns3:cad>50</ns3:cad>
          </ns3:TrackPointExtension>
        </extensions>
      </trkpt>
      <trkpt lat="45.3138608671724796295166015625" lon="-71.06460892595350742340087890625">
        <ele>756.4000244140625</ele>
        <time>2026-08-21T22:57:14.000Z</time>
        <extensions>
          <ns3:TrackPointExtension>
            <ns3:hr>119</ns3:hr>
            <ns3:cad>50</ns3:cad>
          </ns3:TrackPointExtension>
        </extensions>
      </trkpt>
      <trkpt lat="45.31385323964059352874755859375" lon="-71.06460859067738056182861328125">
        <ele>756.5999755859375</ele>
        <time>2026-08-21T22:57:15.000Z</time>
        <extensions>
          <ns3:TrackPointExtension>
            <ns3:hr>119</ns3:hr>
            <ns3:cad>43</ns3:cad>
          </ns3:TrackPointExtension>
        </extensions>
      </trkpt>
      <trkpt lat="45.31384804286062717437744140625" lon="-71.0646115243434906005859375">
        <ele>756.79998779296875</ele>
        <time>2026-08-21T22:57:16.000Z</time>
        <extensions>
          <ns3:TrackPointExtension>
            <ns3:hr>119</ns3:hr>
            <ns3:cad>43</ns3:cad>
          </ns3:TrackPointExtension>
        </extensions>
      </trkpt>
      <trkpt lat="45.3138417564332485198974609375" lon="-71.064612530171871185302734375">
        <ele>757</ele>
        <time>2026-08-21T22:57:17.000Z</time>
        <extensions>
          <ns3:TrackPointExtension>
            <ns3:hr>120</ns3:hr>
            <ns3:cad>41</ns3:cad>
          </ns3:TrackPointExtension>
        </extensions>
      </trkpt>
      <trkpt lat="45.31383697874844074249267578125" lon="-71.0646163858473300933837890625">
        <ele>757.20001220703125</ele>
        <time>2026-08-21T22:57:18.000Z</time>
        <extensions>
          <ns3:TrackPointExtension>
            <ns3:hr>119</ns3:hr>
            <ns3:cad>41</ns3:cad>
          </ns3:TrackPointExtension>
        </extensions>
      </trkpt>
      <trkpt lat="45.313831530511379241943359375" lon="-71.06462200172245502471923828125">
        <ele>757.4000244140625</ele>
        <time>2026-08-21T22:57:19.000Z</time>
        <extensions>
          <ns3:TrackPointExtension>
            <ns3:hr>120</ns3:hr>
            <ns3:cad>0</ns3:cad>
          </ns3:TrackPointExtension>
        </extensions>
      </trkpt>
      <trkpt lat="45.313828177750110626220703125" lon="-71.0646261088550090789794921875">
        <ele>757.5999755859375</ele>
        <time>2026-08-21T22:57:20.000Z</time>
        <extensions>
          <ns3:TrackPointExtension>
            <ns3:hr>119</ns3:hr>
            <ns3:cad>0</ns3:cad>
          </ns3:TrackPointExtension>
        </extensions>
      </trkpt>
      <trkpt lat="45.3138253279030323028564453125" lon="-71.06462585739791393280029296875">
        <ele>757.5999755859375</ele>
        <time>2026-08-21T22:57:21.000Z</time>
        <extensions>
          <ns3:TrackPointExtension>
            <ns3:hr>119</ns3:hr>
            <ns3:cad>0</ns3:cad>
          </ns3:TrackPointExtension>
        </extensions>
      </trkpt>
      <trkpt lat="45.31382340006530284881591796875" lon="-71.06462535448372364044189453125">
        <ele>757.79998779296875</ele>
        <time>2026-08-21T22:57:22.000Z</time>
        <extensions>
          <ns3:TrackPointExtension>
            <ns3:hr>120</ns3:hr>
            <ns3:cad>0</ns3:cad>
          </ns3:TrackPointExtension>
        </extensions>
      </trkpt>
      <trkpt lat="45.313821136951446533203125" lon="-71.06462753377854824066162109375">
        <ele>757.79998779296875</ele>
        <time>2026-08-21T22:57:23.000Z</time>
        <extensions>
          <ns3:TrackPointExtension>
            <ns3:hr>120</ns3:hr>
            <ns3:cad>0</ns3:cad>
          </ns3:TrackPointExtension>
        </extensions>
      </trkpt>
      <trkpt lat="45.3138213045895099639892578125" lon="-71.06462803669273853302001953125">
        <ele>757.79998779296875</ele>
        <time>2026-08-21T22:57:24.000Z</time>
        <extensions>
          <ns3:TrackPointExtension>
            <ns3:hr>120</ns3:hr>
            <ns3:cad>40</ns3:cad>
          </ns3:TrackPointExtension>
        </extensions>
      </trkpt>
      <trkpt lat="45.3138149343430995941162109375" lon="-71.0646348260343074798583984375">
        <ele>758</ele>
        <time>2026-08-21T22:57:25.000Z</time>
        <extensions>
          <ns3:TrackPointExtension>
            <ns3:hr>120</ns3:hr>
            <ns3:cad>0</ns3:cad>
          </ns3:TrackPointExtension>
        </extensions>
      </trkpt>
      <trkpt lat="45.3138129226863384246826171875" lon="-71.06464706361293792724609375">
        <ele>758</ele>
        <time>2026-08-21T22:57:26.000Z</time>
        <extensions>
          <ns3:TrackPointExtension>
            <ns3:hr>121</ns3:hr>
            <ns3:cad>0</ns3:cad>
          </ns3:TrackPointExtension>
        </extensions>
      </trkpt>
      <trkpt lat="45.31380529515445232391357421875" lon="-71.064662151038646697998046875">
        <ele>758</ele>
        <time>2026-08-21T22:57:27.000Z</time>
        <extensions>
          <ns3:TrackPointExtension>
            <ns3:hr>124</ns3:hr>
            <ns3:cad>0</ns3:cad>
          </ns3:TrackPointExtension>
        </extensions>
      </trkpt>
      <trkpt lat="45.3137971647083759307861328125" lon="-71.06468603946268558502197265625">
        <ele>758.20001220703125</ele>
        <time>2026-08-21T22:57:28.000Z</time>
        <extensions>
          <ns3:TrackPointExtension>
            <ns3:hr>124</ns3:hr>
            <ns3:cad>0</ns3:cad>
          </ns3:TrackPointExtension>
        </extensions>
      </trkpt>
      <trkpt lat="45.31379406340420246124267578125" lon="-71.0647042281925678253173828125">
        <ele>758.20001220703125</ele>
        <time>2026-08-21T22:57:29.000Z</time>
        <extensions>
          <ns3:TrackPointExtension>
            <ns3:hr>124</ns3:hr>
            <ns3:cad>0</ns3:cad>
          </ns3:TrackPointExtension>
        </extensions>
      </trkpt>
      <trkpt lat="45.3137907944619655609130859375" lon="-71.06472015380859375">
        <ele>758.20001220703125</ele>
        <time>2026-08-21T22:57:30.000Z</time>
        <extensions>
          <ns3:TrackPointExtension>
            <ns3:hr>123</ns3:hr>
            <ns3:cad>0</ns3:cad>
          </ns3:TrackPointExtension>
        </extensions>
      </trkpt>
      <trkpt lat="45.3137874417006969451904296875" lon="-71.06473331339657306671142578125">
        <ele>758.20001220703125</ele>
        <time>2026-08-21T22:57:31.000Z</time>
        <extensions>
          <ns3:TrackPointExtension>
            <ns3:hr>124</ns3:hr>
            <ns3:cad>50</ns3:cad>
          </ns3:TrackPointExtension>
        </extensions>
      </trkpt>
      <trkpt lat="45.31378149054944515228271484375" lon="-71.06474169529974460601806640625">
        <ele>758.20001220703125</ele>
        <time>2026-08-21T22:57:32.000Z</time>
        <extensions>
          <ns3:TrackPointExtension>
            <ns3:hr>124</ns3:hr>
            <ns3:cad>50</ns3:cad>
          </ns3:TrackPointExtension>
        </extensions>
      </trkpt>
      <trkpt lat="45.313781239092350006103515625" lon="-71.06474219821393489837646484375">
        <ele>758.20001220703125</ele>
        <time>2026-08-21T22:57:33.000Z</time>
        <extensions>
          <ns3:TrackPointExtension>
            <ns3:hr>124</ns3:hr>
            <ns3:cad>50</ns3:cad>
          </ns3:TrackPointExtension>
        </extensions>
      </trkpt>
      <trkpt lat="45.313781239092350006103515625" lon="-71.06474228203296661376953125">
        <ele>758.20001220703125</ele>
        <time>2026-08-21T22:57:34.000Z</time>
        <extensions>
          <ns3:TrackPointExtension>
            <ns3:hr>123</ns3:hr>
            <ns3:cad>0</ns3:cad>
          </ns3:TrackPointExtension>
        </extensions>
      </trkpt>
      <trkpt lat="45.3137773834168910980224609375" lon="-71.06475108303129673004150390625">
        <ele>758.20001220703125</ele>
        <time>2026-08-21T22:57:35.000Z</time>
        <extensions>
          <ns3:TrackPointExtension>
            <ns3:hr>124</ns3:hr>
            <ns3:cad>0</ns3:cad>
          </ns3:TrackPointExtension>
        </extensions>
      </trkpt>
      <trkpt lat="45.31377126462757587432861328125" lon="-71.064761392772197723388671875">
        <ele>758.20001220703125</ele>
        <time>2026-08-21T22:57:36.000Z</time>
        <extensions>
          <ns3:TrackPointExtension>
            <ns3:hr>124</ns3:hr>
            <ns3:cad>56</ns3:cad>
          </ns3:TrackPointExtension>
        </extensions>
      </trkpt>
      <trkpt lat="45.31376271508634090423583984375" lon="-71.06477019377052783966064453125">
        <ele>758.20001220703125</ele>
        <time>2026-08-21T22:57:37.000Z</time>
        <extensions>
          <ns3:TrackPointExtension>
            <ns3:hr>124</ns3:hr>
            <ns3:cad>56</ns3:cad>
          </ns3:TrackPointExtension>
        </extensions>
      </trkpt>
      <trkpt lat="45.31375416554510593414306640625" lon="-71.064772121608257293701171875">
        <ele>758.4000244140625</ele>
        <time>2026-08-21T22:57:38.000Z</time>
        <extensions>
          <ns3:TrackPointExtension>
            <ns3:hr>123</ns3:hr>
            <ns3:cad>56</ns3:cad>
          </ns3:TrackPointExtension>
        </extensions>
      </trkpt>
      <trkpt lat="45.31374276615679264068603515625" lon="-71.06477539055049419403076171875">
        <ele>758.5999755859375</ele>
        <time>2026-08-21T22:57:39.000Z</time>
        <extensions>
          <ns3:TrackPointExtension>
            <ns3:hr>124</ns3:hr>
            <ns3:cad>55</ns3:cad>
          </ns3:TrackPointExtension>
        </extensions>
      </trkpt>
      <trkpt lat="45.3137341327965259552001953125" lon="-71.064779497683048248291015625">
        <ele>758.79998779296875</ele>
        <time>2026-08-21T22:57:40.000Z</time>
        <extensions>
          <ns3:TrackPointExtension>
            <ns3:hr>124</ns3:hr>
            <ns3:cad>55</ns3:cad>
          </ns3:TrackPointExtension>
        </extensions>
      </trkpt>
      <trkpt lat="45.3137274272739887237548828125" lon="-71.0647823475301265716552734375">
        <ele>759</ele>
        <time>2026-08-21T22:57:41.000Z</time>
        <extensions>
          <ns3:TrackPointExtension>
            <ns3:hr>124</ns3:hr>
            <ns3:cad>55</ns3:cad>
          </ns3:TrackPointExtension>
        </extensions>
      </trkpt>
      <trkpt lat="45.31371711753308773040771484375" lon="-71.06478528119623661041259765625">
        <ele>759.20001220703125</ele>
        <time>2026-08-21T22:57:42.000Z</time>
        <extensions>
          <ns3:TrackPointExtension>
            <ns3:hr>124</ns3:hr>
            <ns3:cad>53</ns3:cad>
          </ns3:TrackPointExtension>
        </extensions>
      </trkpt>
      <trkpt lat="45.31370647251605987548828125" lon="-71.06479215435683727264404296875">
        <ele>759.4000244140625</ele>
        <time>2026-08-21T22:57:43.000Z</time>
        <extensions>
          <ns3:TrackPointExtension>
            <ns3:hr>124</ns3:hr>
            <ns3:cad>51</ns3:cad>
          </ns3:TrackPointExtension>
        </extensions>
      </trkpt>
      <trkpt lat="45.31369708478450775146484375" lon="-71.064795590937137603759765625">
        <ele>759.5999755859375</ele>
        <time>2026-08-21T22:57:44.000Z</time>
        <extensions>
          <ns3:TrackPointExtension>
            <ns3:hr>125</ns3:hr>
            <ns3:cad>49</ns3:cad>
          </ns3:TrackPointExtension>
        </extensions>
      </trkpt>
      <trkpt lat="45.3136895410716533660888671875" lon="-71.0647937469184398651123046875">
        <ele>759.79998779296875</ele>
        <time>2026-08-21T22:57:45.000Z</time>
        <extensions>
          <ns3:TrackPointExtension>
            <ns3:hr>125</ns3:hr>
            <ns3:cad>49</ns3:cad>
          </ns3:TrackPointExtension>
        </extensions>
      </trkpt>
      <trkpt lat="45.31368308700621128082275390625" lon="-71.06479165144264698028564453125">
        <ele>759.79998779296875</ele>
        <time>2026-08-21T22:57:46.000Z</time>
        <extensions>
          <ns3:TrackPointExtension>
            <ns3:hr>125</ns3:hr>
            <ns3:cad>49</ns3:cad>
          </ns3:TrackPointExtension>
        </extensions>
      </trkpt>
      <trkpt lat="45.31367520801723003387451171875" lon="-71.06479181908071041107177734375">
        <ele>760</ele>
        <time>2026-08-21T22:57:47.000Z</time>
        <extensions>
          <ns3:TrackPointExtension>
            <ns3:hr>126</ns3:hr>
            <ns3:cad>49</ns3:cad>
          </ns3:TrackPointExtension>
        </extensions>
      </trkpt>
      <trkpt lat="45.31366749666631221771240234375" lon="-71.0647880472242832183837890625">
        <ele>760.20001220703125</ele>
        <time>2026-08-21T22:57:48.000Z</time>
        <extensions>
          <ns3:TrackPointExtension>
            <ns3:hr>126</ns3:hr>
            <ns3:cad>49</ns3:cad>
          </ns3:TrackPointExtension>
        </extensions>
      </trkpt>
      <trkpt lat="45.31365911476314067840576171875" lon="-71.06478729285299777984619140625">
        <ele>760.4000244140625</ele>
        <time>2026-08-21T22:57:49.000Z</time>
        <extensions>
          <ns3:TrackPointExtension>
            <ns3:hr>126</ns3:hr>
            <ns3:cad>48</ns3:cad>
          </ns3:TrackPointExtension>
        </extensions>
      </trkpt>
      <trkpt lat="45.313653834164142608642578125" lon="-71.06478989124298095703125">
        <ele>760.79998779296875</ele>
        <time>2026-08-21T22:57:50.000Z</time>
        <extensions>
          <ns3:TrackPointExtension>
            <ns3:hr>126</ns3:hr>
            <ns3:cad>48</ns3:cad>
          </ns3:TrackPointExtension>
        </extensions>
      </trkpt>
      <trkpt lat="45.31364838592708110809326171875" lon="-71.0647897236049175262451171875">
        <ele>761</ele>
        <time>2026-08-21T22:57:51.000Z</time>
        <extensions>
          <ns3:TrackPointExtension>
            <ns3:hr>127</ns3:hr>
            <ns3:cad>47</ns3:cad>
          </ns3:TrackPointExtension>
        </extensions>
      </trkpt>
      <trkpt lat="45.31364335678517818450927734375" lon="-71.0647885501384735107421875">
        <ele>761.20001220703125</ele>
        <time>2026-08-21T22:57:52.000Z</time>
        <extensions>
          <ns3:TrackPointExtension>
            <ns3:hr>127</ns3:hr>
            <ns3:cad>47</ns3:cad>
          </ns3:TrackPointExtension>
        </extensions>
      </trkpt>
      <trkpt lat="45.3136374056339263916015625" lon="-71.0647830180823802947998046875">
        <ele>761.4000244140625</ele>
        <time>2026-08-21T22:57:53.000Z</time>
        <extensions>
          <ns3:TrackPointExtension>
            <ns3:hr>128</ns3:hr>
            <ns3:cad>46</ns3:cad>
          </ns3:TrackPointExtension>
        </extensions>
      </trkpt>
      <trkpt lat="45.31363095156848430633544921875" lon="-71.0647810064256191253662109375">
        <ele>761.5999755859375</ele>
        <time>2026-08-21T22:57:54.000Z</time>
        <extensions>
          <ns3:TrackPointExtension>
            <ns3:hr>128</ns3:hr>
            <ns3:cad>46</ns3:cad>
          </ns3:TrackPointExtension>
        </extensions>
      </trkpt>
      <trkpt lat="45.3136239945888519287109375" lon="-71.0647796653211116790771484375">
        <ele>761.79998779296875</ele>
        <time>2026-08-21T22:57:55.000Z</time>
        <extensions>
          <ns3:TrackPointExtension>
            <ns3:hr>128</ns3:hr>
            <ns3:cad>46</ns3:cad>
          </ns3:TrackPointExtension>
        </extensions>
      </trkpt>
      <trkpt lat="45.3136159479618072509765625" lon="-71.06477488763630390167236328125">
        <ele>762</ele>
        <time>2026-08-21T22:57:56.000Z</time>
        <extensions>
          <ns3:TrackPointExtension>
            <ns3:hr>128</ns3:hr>
            <ns3:cad>46</ns3:cad>
          </ns3:TrackPointExtension>
        </extensions>
      </trkpt>
      <trkpt lat="45.3136079013347625732421875" lon="-71.06476969085633754730224609375">
        <ele>762.20001220703125</ele>
        <time>2026-08-21T22:57:57.000Z</time>
        <extensions>
          <ns3:TrackPointExtension>
            <ns3:hr>128</ns3:hr>
            <ns3:cad>46</ns3:cad>
          </ns3:TrackPointExtension>
        </extensions>
      </trkpt>
      <trkpt lat="45.3136030398309230804443359375" lon="-71.06476868502795696258544921875">
        <ele>762.4000244140625</ele>
        <time>2026-08-21T22:57:58.000Z</time>
        <extensions>
          <ns3:TrackPointExtension>
            <ns3:hr>128</ns3:hr>
            <ns3:cad>44</ns3:cad>
          </ns3:TrackPointExtension>
        </extensions>
      </trkpt>
      <trkpt lat="45.31359641812741756439208984375" lon="-71.0647665895521640777587890625">
        <ele>762.5999755859375</ele>
        <time>2026-08-21T22:57:59.000Z</time>
        <extensions>
          <ns3:TrackPointExtension>
            <ns3:hr>128</ns3:hr>
            <ns3:cad>44</ns3:cad>
          </ns3:TrackPointExtension>
        </extensions>
      </trkpt>
      <trkpt lat="45.31358954496681690216064453125" lon="-71.06476281769573688507080078125">
        <ele>762.79998779296875</ele>
        <time>2026-08-21T22:58:00.000Z</time>
        <extensions>
          <ns3:TrackPointExtension>
            <ns3:hr>128</ns3:hr>
            <ns3:cad>44</ns3:cad>
          </ns3:TrackPointExtension>
        </extensions>
      </trkpt>
      <trkpt lat="45.31358317472040653228759765625" lon="-71.0647582076489925384521484375">
        <ele>763</ele>
        <time>2026-08-21T22:58:01.000Z</time>
        <extensions>
          <ns3:TrackPointExtension>
            <ns3:hr>129</ns3:hr>
            <ns3:cad>44</ns3:cad>
          </ns3:TrackPointExtension>
        </extensions>
      </trkpt>
      <trkpt lat="45.31357663683593273162841796875" lon="-71.0647555254399776458740234375">
        <ele>763.20001220703125</ele>
        <time>2026-08-21T22:58:02.000Z</time>
        <extensions>
          <ns3:TrackPointExtension>
            <ns3:hr>130</ns3:hr>
            <ns3:cad>44</ns3:cad>
          </ns3:TrackPointExtension>
        </extensions>
      </trkpt>
      <trkpt lat="45.3135725297033786773681640625" lon="-71.06475829146802425384521484375">
        <ele>763.4000244140625</ele>
        <time>2026-08-21T22:58:03.000Z</time>
        <extensions>
          <ns3:TrackPointExtension>
            <ns3:hr>130</ns3:hr>
            <ns3:cad>46</ns3:cad>
          </ns3:TrackPointExtension>
        </extensions>
      </trkpt>
      <trkpt lat="45.31356808729469776153564453125" lon="-71.06475778855383396148681640625">
        <ele>763.5999755859375</ele>
        <time>2026-08-21T22:58:04.000Z</time>
        <extensions>
          <ns3:TrackPointExtension>
            <ns3:hr>130</ns3:hr>
            <ns3:cad>46</ns3:cad>
          </ns3:TrackPointExtension>
        </extensions>
      </trkpt>
      <trkpt lat="45.3135638125240802764892578125" lon="-71.06475778855383396148681640625">
        <ele>763.79998779296875</ele>
        <time>2026-08-21T22:58:05.000Z</time>
        <extensions>
          <ns3:TrackPointExtension>
            <ns3:hr>131</ns3:hr>
            <ns3:cad>46</ns3:cad>
          </ns3:TrackPointExtension>
        </extensions>
      </trkpt>
      <trkpt lat="45.31355601735413074493408203125" lon="-71.064758040010929107666015625">
        <ele>763.79998779296875</ele>
        <time>2026-08-21T22:58:06.000Z</time>
        <extensions>
          <ns3:TrackPointExtension>
            <ns3:hr>131</ns3:hr>
            <ns3:cad>46</ns3:cad>
          </ns3:TrackPointExtension>
        </extensions>
      </trkpt>
      <trkpt lat="45.313552580773830413818359375" lon="-71.064756028354167938232421875">
        <ele>764</ele>
        <time>2026-08-21T22:58:07.000Z</time>
        <extensions>
          <ns3:TrackPointExtension>
            <ns3:hr>131</ns3:hr>
            <ns3:cad>46</ns3:cad>
          </ns3:TrackPointExtension>
        </extensions>
      </trkpt>
      <trkpt lat="45.31354445032775402069091796875" lon="-71.06475024484097957611083984375">
        <ele>764.20001220703125</ele>
        <time>2026-08-21T22:58:08.000Z</time>
        <extensions>
          <ns3:TrackPointExtension>
            <ns3:hr>131</ns3:hr>
            <ns3:cad>45</ns3:cad>
          </ns3:TrackPointExtension>
        </extensions>
      </trkpt>
      <trkpt lat="45.313543193042278289794921875" lon="-71.0647429525852203369140625">
        <ele>764.5999755859375</ele>
        <time>2026-08-21T22:58:09.000Z</time>
        <extensions>
          <ns3:TrackPointExtension>
            <ns3:hr>132</ns3:hr>
            <ns3:cad>45</ns3:cad>
          </ns3:TrackPointExtension>
        </extensions>
      </trkpt>
      <trkpt lat="45.31354126520454883575439453125" lon="-71.0647364147007465362548828125">
        <ele>764.79998779296875</ele>
        <time>2026-08-21T22:58:10.000Z</time>
        <extensions>
          <ns3:TrackPointExtension>
            <ns3:hr>132</ns3:hr>
            <ns3:cad>41</ns3:cad>
          </ns3:TrackPointExtension>
        </extensions>
      </trkpt>
      <trkpt lat="45.31354025937616825103759765625" lon="-71.06473289430141448974609375">
        <ele>765</ele>
        <time>2026-08-21T22:58:11.000Z</time>
        <extensions>
          <ns3:TrackPointExtension>
            <ns3:hr>132</ns3:hr>
            <ns3:cad>0</ns3:cad>
          </ns3:TrackPointExtension>
        </extensions>
      </trkpt>
      <trkpt lat="45.31354025937616825103759765625" lon="-71.06472359038889408111572265625">
        <ele>765</ele>
        <time>2026-08-21T22:58:12.000Z</time>
        <extensions>
          <ns3:TrackPointExtension>
            <ns3:hr>132</ns3:hr>
            <ns3:cad>0</ns3:cad>
          </ns3:TrackPointExtension>
        </extensions>
      </trkpt>
      <trkpt lat="45.31353673897683620452880859375" lon="-71.06472082436084747314453125">
        <ele>765.20001220703125</ele>
        <time>2026-08-21T22:58:13.000Z</time>
        <extensions>
          <ns3:TrackPointExtension>
            <ns3:hr>133</ns3:hr>
            <ns3:cad>0</ns3:cad>
          </ns3:TrackPointExtension>
        </extensions>
      </trkpt>
      <trkpt lat="45.31352944672107696533203125" lon="-71.06471939943730831146240234375">
        <ele>765.4000244140625</ele>
        <time>2026-08-21T22:58:14.000Z</time>
        <extensions>
          <ns3:TrackPointExtension>
            <ns3:hr>132</ns3:hr>
            <ns3:cad>0</ns3:cad>
          </ns3:TrackPointExtension>
        </extensions>
      </trkpt>
      <trkpt lat="45.31353170983493328094482421875" lon="-71.06472484767436981201171875">
        <ele>765.5999755859375</ele>
        <time>2026-08-21T22:58:15.000Z</time>
        <extensions>
          <ns3:TrackPointExtension>
            <ns3:hr>132</ns3:hr>
            <ns3:cad>0</ns3:cad>
          </ns3:TrackPointExtension>
        </extensions>
      </trkpt>
      <trkpt lat="45.31352341175079345703125" lon="-71.06472727842628955841064453125">
        <ele>765.79998779296875</ele>
        <time>2026-08-21T22:58:16.000Z</time>
        <extensions>
          <ns3:TrackPointExtension>
            <ns3:hr>132</ns3:hr>
            <ns3:cad>0</ns3:cad>
          </ns3:TrackPointExtension>
        </extensions>
      </trkpt>
      <trkpt lat="45.31352014280855655670166015625" lon="-71.06472593732178211212158203125">
        <ele>766</ele>
        <time>2026-08-21T22:58:17.000Z</time>
        <extensions>
          <ns3:TrackPointExtension>
            <ns3:hr>133</ns3:hr>
            <ns3:cad>58</ns3:cad>
          </ns3:TrackPointExtension>
        </extensions>
      </trkpt>
      <trkpt lat="45.3135175444185733795166015625" lon="-71.0647230036556720733642578125">
        <ele>766.20001220703125</ele>
        <time>2026-08-21T22:58:18.000Z</time>
        <extensions>
          <ns3:TrackPointExtension>
            <ns3:hr>132</ns3:hr>
            <ns3:cad>58</ns3:cad>
          </ns3:TrackPointExtension>
        </extensions>
      </trkpt>
      <trkpt lat="45.31351603567600250244140625" lon="-71.06471990235149860382080078125">
        <ele>766.5999755859375</ele>
        <time>2026-08-21T22:58:19.000Z</time>
        <extensions>
          <ns3:TrackPointExtension>
            <ns3:hr>132</ns3:hr>
            <ns3:cad>58</ns3:cad>
          </ns3:TrackPointExtension>
        </extensions>
      </trkpt>
      <trkpt lat="45.31351201236248016357421875" lon="-71.0647216625511646270751953125">
        <ele>766.79998779296875</ele>
        <time>2026-08-21T22:58:20.000Z</time>
        <extensions>
          <ns3:TrackPointExtension>
            <ns3:hr>133</ns3:hr>
            <ns3:cad>58</ns3:cad>
          </ns3:TrackPointExtension>
        </extensions>
      </trkpt>
      <trkpt lat="45.3135118447244167327880859375" lon="-71.06472040526568889617919921875">
        <ele>767</ele>
        <time>2026-08-21T22:58:21.000Z</time>
        <extensions>
          <ns3:TrackPointExtension>
            <ns3:hr>133</ns3:hr>
            <ns3:cad>58</ns3:cad>
          </ns3:TrackPointExtension>
        </extensions>
      </trkpt>
      <trkpt lat="45.3135155327618122100830078125" lon="-71.06471889652311801910400390625">
        <ele>767.20001220703125</ele>
        <time>2026-08-21T22:58:22.000Z</time>
        <extensions>
          <ns3:TrackPointExtension>
            <ns3:hr>133</ns3:hr>
            <ns3:cad>65</ns3:cad>
          </ns3:TrackPointExtension>
        </extensions>
      </trkpt>
      <trkpt lat="45.3135175444185733795166015625" lon="-71.06471839360892772674560546875">
        <ele>767.20001220703125</ele>
        <time>2026-08-21T22:58:23.000Z</time>
        <extensions>
          <ns3:TrackPointExtension>
            <ns3:hr>133</ns3:hr>
            <ns3:cad>65</ns3:cad>
          </ns3:TrackPointExtension>
        </extensions>
      </trkpt>
      <trkpt lat="45.31351662240922451019287109375" lon="-71.06471403501927852630615234375">
        <ele>767.4000244140625</ele>
        <time>2026-08-21T22:58:24.000Z</time>
        <extensions>
          <ns3:TrackPointExtension>
            <ns3:hr>134</ns3:hr>
            <ns3:cad>65</ns3:cad>
          </ns3:TrackPointExtension>
        </extensions>
      </trkpt>
      <trkpt lat="45.313513688743114471435546875" lon="-71.06470967642962932586669921875">
        <ele>767.5999755859375</ele>
        <time>2026-08-21T22:58:25.000Z</time>
        <extensions>
          <ns3:TrackPointExtension>
            <ns3:hr>135</ns3:hr>
            <ns3:cad>70</ns3:cad>
          </ns3:TrackPointExtension>
        </extensions>
      </trkpt>
      <trkpt lat="45.31351259909570217132568359375" lon="-71.06471084989607334136962890625">
        <ele>767.79998779296875</ele>
        <time>2026-08-21T22:58:26.000Z</time>
        <extensions>
          <ns3:TrackPointExtension>
            <ns3:hr>136</ns3:hr>
            <ns3:cad>70</ns3:cad>
          </ns3:TrackPointExtension>
        </extensions>
      </trkpt>
      <trkpt lat="45.313505642116069793701171875" lon="-71.06470607221126556396484375">
        <ele>768</ele>
        <time>2026-08-21T22:58:27.000Z</time>
        <extensions>
          <ns3:TrackPointExtension>
            <ns3:hr>136</ns3:hr>
            <ns3:cad>0</ns3:cad>
          </ns3:TrackPointExtension>
        </extensions>
      </trkpt>
      <trkpt lat="45.313502289354801177978515625" lon="-71.06470406055450439453125">
        <ele>768.20001220703125</ele>
        <time>2026-08-21T22:58:28.000Z</time>
        <extensions>
          <ns3:TrackPointExtension>
            <ns3:hr>136</ns3:hr>
            <ns3:cad>0</ns3:cad>
          </ns3:TrackPointExtension>
        </extensions>
      </trkpt>
      <trkpt lat="45.31349466182291507720947265625" lon="-71.06469777412712574005126953125">
        <ele>768.5999755859375</ele>
        <time>2026-08-21T22:58:29.000Z</time>
        <extensions>
          <ns3:TrackPointExtension>
            <ns3:hr>136</ns3:hr>
            <ns3:cad>0</ns3:cad>
          </ns3:TrackPointExtension>
        </extensions>
      </trkpt>
      <trkpt lat="45.31348946504294872283935546875" lon="-71.06469559483230113983154296875">
        <ele>768.5999755859375</ele>
        <time>2026-08-21T22:58:30.000Z</time>
        <extensions>
          <ns3:TrackPointExtension>
            <ns3:hr>136</ns3:hr>
            <ns3:cad>0</ns3:cad>
          </ns3:TrackPointExtension>
        </extensions>
      </trkpt>
      <trkpt lat="45.3134766407310962677001953125" lon="-71.064686290919780731201171875">
        <ele>768.79998779296875</ele>
        <time>2026-08-21T22:58:31.000Z</time>
        <extensions>
          <ns3:TrackPointExtension>
            <ns3:hr>136</ns3:hr>
            <ns3:cad>0</ns3:cad>
          </ns3:TrackPointExtension>
        </extensions>
      </trkpt>
      <trkpt lat="45.3134716115891933441162109375" lon="-71.064682938158512115478515625">
        <ele>769</ele>
        <time>2026-08-21T22:58:32.000Z</time>
        <extensions>
          <ns3:TrackPointExtension>
            <ns3:hr>137</ns3:hr>
            <ns3:cad>0</ns3:cad>
          </ns3:TrackPointExtension>
        </extensions>
      </trkpt>
      <trkpt lat="45.31346415169537067413330078125" lon="-71.0646770708262920379638671875">
        <ele>769.20001220703125</ele>
        <time>2026-08-21T22:58:33.000Z</time>
        <extensions>
          <ns3:TrackPointExtension>
            <ns3:hr>137</ns3:hr>
            <ns3:cad>0</ns3:cad>
          </ns3:TrackPointExtension>
        </extensions>
      </trkpt>
      <trkpt lat="45.3134578652679920196533203125" lon="-71.06467547826468944549560546875">
        <ele>769.4000244140625</ele>
        <time>2026-08-21T22:58:34.000Z</time>
        <extensions>
          <ns3:TrackPointExtension>
            <ns3:hr>138</ns3:hr>
            <ns3:cad>0</ns3:cad>
          </ns3:TrackPointExtension>
        </extensions>
      </trkpt>
      <trkpt lat="45.31345157884061336517333984375" lon="-71.06467413716018199920654296875">
        <ele>769.5999755859375</ele>
        <time>2026-08-21T22:58:35.000Z</time>
        <extensions>
          <ns3:TrackPointExtension>
            <ns3:hr>140</ns3:hr>
            <ns3:cad>0</ns3:cad>
          </ns3:TrackPointExtension>
        </extensions>
      </trkpt>
      <trkpt lat="45.31344604678452014923095703125" lon="-71.064673550426959991455078125">
        <ele>769.79998779296875</ele>
        <time>2026-08-21T22:58:36.000Z</time>
        <extensions>
          <ns3:TrackPointExtension>
            <ns3:hr>140</ns3:hr>
            <ns3:cad>0</ns3:cad>
          </ns3:TrackPointExtension>
        </extensions>
      </trkpt>
      <trkpt lat="45.31343934126198291778564453125" lon="-71.064671538770198822021484375">
        <ele>770.20001220703125</ele>
        <time>2026-08-21T22:58:37.000Z</time>
        <extensions>
          <ns3:TrackPointExtension>
            <ns3:hr>140</ns3:hr>
            <ns3:cad>0</ns3:cad>
          </ns3:TrackPointExtension>
        </extensions>
      </trkpt>
      <trkpt lat="45.31343414448201656341552734375" lon="-71.0646703653037548065185546875">
        <ele>770.4000244140625</ele>
        <time>2026-08-21T22:58:38.000Z</time>
        <extensions>
          <ns3:TrackPointExtension>
            <ns3:hr>141</ns3:hr>
            <ns3:cad>0</ns3:cad>
          </ns3:TrackPointExtension>
        </extensions>
      </trkpt>
      <trkpt lat="45.313429534435272216796875" lon="-71.06467329896986484527587890625">
        <ele>770.5999755859375</ele>
        <time>2026-08-21T22:58:39.000Z</time>
        <extensions>
          <ns3:TrackPointExtension>
            <ns3:hr>140</ns3:hr>
            <ns3:cad>0</ns3:cad>
          </ns3:TrackPointExtension>
        </extensions>
      </trkpt>
      <trkpt lat="45.313423834741115570068359375" lon="-71.06467254459857940673828125">
        <ele>771</ele>
        <time>2026-08-21T22:58:40.000Z</time>
        <extensions>
          <ns3:TrackPointExtension>
            <ns3:hr>140</ns3:hr>
            <ns3:cad>0</ns3:cad>
          </ns3:TrackPointExtension>
        </extensions>
      </trkpt>
      <trkpt lat="45.3134162910282611846923828125" lon="-71.06467145495116710662841796875">
        <ele>771.20001220703125</ele>
        <time>2026-08-21T22:58:41.000Z</time>
        <extensions>
          <ns3:TrackPointExtension>
            <ns3:hr>140</ns3:hr>
            <ns3:cad>0</ns3:cad>
          </ns3:TrackPointExtension>
        </extensions>
      </trkpt>
      <trkpt lat="45.31341134570538997650146484375" lon="-71.06466986238956451416015625">
        <ele>771.4000244140625</ele>
        <time>2026-08-21T22:58:42.000Z</time>
        <extensions>
          <ns3:TrackPointExtension>
            <ns3:hr>140</ns3:hr>
            <ns3:cad>0</ns3:cad>
          </ns3:TrackPointExtension>
        </extensions>
      </trkpt>
      <trkpt lat="45.31340849585831165313720703125" lon="-71.06467028148472309112548828125">
        <ele>771.5999755859375</ele>
        <time>2026-08-21T22:58:43.000Z</time>
        <extensions>
          <ns3:TrackPointExtension>
            <ns3:hr>140</ns3:hr>
            <ns3:cad>0</ns3:cad>
          </ns3:TrackPointExtension>
        </extensions>
      </trkpt>
      <trkpt lat="45.313401035964488983154296875" lon="-71.06466910801827907562255859375">
        <ele>771.79998779296875</ele>
        <time>2026-08-21T22:58:44.000Z</time>
        <extensions>
          <ns3:TrackPointExtension>
            <ns3:hr>139</ns3:hr>
            <ns3:cad>0</ns3:cad>
          </ns3:TrackPointExtension>
        </extensions>
      </trkpt>
      <trkpt lat="45.31339692883193492889404296875" lon="-71.0646680183708667755126953125">
        <ele>772</ele>
        <time>2026-08-21T22:58:45.000Z</time>
        <extensions>
          <ns3:TrackPointExtension>
            <ns3:hr>140</ns3:hr>
            <ns3:cad>0</ns3:cad>
          </ns3:TrackPointExtension>
        </extensions>
      </trkpt>
      <trkpt lat="45.3133901394903659820556640625" lon="-71.06466826982796192169189453125">
        <ele>772.20001220703125</ele>
        <time>2026-08-21T22:58:46.000Z</time>
        <extensions>
          <ns3:TrackPointExtension>
            <ns3:hr>140</ns3:hr>
            <ns3:cad>0</ns3:cad>
          </ns3:TrackPointExtension>
        </extensions>
      </trkpt>
      <trkpt lat="45.313376225531101226806640625" lon="-71.06467120349407196044921875">
        <ele>772.4000244140625</ele>
        <time>2026-08-21T22:58:47.000Z</time>
        <extensions>
          <ns3:TrackPointExtension>
            <ns3:hr>140</ns3:hr>
            <ns3:cad>0</ns3:cad>
          </ns3:TrackPointExtension>
        </extensions>
      </trkpt>
      <trkpt lat="45.31337748281657695770263671875" lon="-71.06467187404632568359375">
        <ele>772.5999755859375</ele>
        <time>2026-08-21T22:58:48.000Z</time>
        <extensions>
          <ns3:TrackPointExtension>
            <ns3:hr>139</ns3:hr>
            <ns3:cad>0</ns3:cad>
          </ns3:TrackPointExtension>
        </extensions>
      </trkpt>
      <trkpt lat="45.31336926855146884918212890625" lon="-71.0646732151508331298828125">
        <ele>772.79998779296875</ele>
        <time>2026-08-21T22:58:49.000Z</time>
        <extensions>
          <ns3:TrackPointExtension>
            <ns3:hr>140</ns3:hr>
            <ns3:cad>50</ns3:cad>
          </ns3:TrackPointExtension>
        </extensions>
      </trkpt>
      <trkpt lat="45.31336155720055103302001953125" lon="-71.06467380188405513763427734375">
        <ele>773.20001220703125</ele>
        <time>2026-08-21T22:58:50.000Z</time>
        <extensions>
          <ns3:TrackPointExtension>
            <ns3:hr>140</ns3:hr>
            <ns3:cad>50</ns3:cad>
          </ns3:TrackPointExtension>
        </extensions>
      </trkpt>
      <trkpt lat="45.31335786916315555572509765625" lon="-71.06467480771243572235107421875">
        <ele>773.4000244140625</ele>
        <time>2026-08-21T22:58:51.000Z</time>
        <extensions>
          <ns3:TrackPointExtension>
            <ns3:hr>140</ns3:hr>
            <ns3:cad>0</ns3:cad>
          </ns3:TrackPointExtension>
        </extensions>
      </trkpt>
      <trkpt lat="45.31334973871707916259765625" lon="-71.06467723846435546875">
        <ele>773.5999755859375</ele>
        <time>2026-08-21T22:58:52.000Z</time>
        <extensions>
          <ns3:TrackPointExtension>
            <ns3:hr>139</ns3:hr>
            <ns3:cad>0</ns3:cad>
          </ns3:TrackPointExtension>
        </extensions>
      </trkpt>
      <trkpt lat="45.31334697268903255462646484375" lon="-71.0646787472069263458251953125">
        <ele>773.79998779296875</ele>
        <time>2026-08-21T22:58:53.000Z</time>
        <extensions>
          <ns3:TrackPointExtension>
            <ns3:hr>139</ns3:hr>
            <ns3:cad>0</ns3:cad>
          </ns3:TrackPointExtension>
        </extensions>
      </trkpt>
      <trkpt lat="45.31334194354712963104248046875" lon="-71.06467681936919689178466796875">
        <ele>774</ele>
        <time>2026-08-21T22:58:54.000Z</time>
        <extensions>
          <ns3:TrackPointExtension>
            <ns3:hr>139</ns3:hr>
            <ns3:cad>0</ns3:cad>
          </ns3:TrackPointExtension>
        </extensions>
      </trkpt>
      <trkpt lat="45.3133388422429561614990234375" lon="-71.0646777413785457611083984375">
        <ele>774.20001220703125</ele>
        <time>2026-08-21T22:58:55.000Z</time>
        <extensions>
          <ns3:TrackPointExtension>
            <ns3:hr>138</ns3:hr>
            <ns3:cad>0</ns3:cad>
          </ns3:TrackPointExtension>
        </extensions>
      </trkpt>
      <trkpt lat="45.31333641149103641510009765625" lon="-71.0646807588636875152587890625">
        <ele>774.4000244140625</ele>
        <time>2026-08-21T22:58:56.000Z</time>
        <extensions>
          <ns3:TrackPointExtension>
            <ns3:hr>138</ns3:hr>
            <ns3:cad>0</ns3:cad>
          </ns3:TrackPointExtension>
        </extensions>
      </trkpt>
      <trkpt lat="45.31333154998719692230224609375" lon="-71.064684279263019561767578125">
        <ele>774.5999755859375</ele>
        <time>2026-08-21T22:58:57.000Z</time>
        <extensions>
          <ns3:TrackPointExtension>
            <ns3:hr>138</ns3:hr>
            <ns3:cad>0</ns3:cad>
          </ns3:TrackPointExtension>
        </extensions>
      </trkpt>
      <trkpt lat="45.31332752667367458343505859375" lon="-71.0646894760429859161376953125">
        <ele>774.79998779296875</ele>
        <time>2026-08-21T22:58:58.000Z</time>
        <extensions>
          <ns3:TrackPointExtension>
            <ns3:hr>138</ns3:hr>
            <ns3:cad>0</ns3:cad>
          </ns3:TrackPointExtension>
        </extensions>
      </trkpt>
      <trkpt lat="45.31332467682659626007080078125" lon="-71.06469375081360340118408203125">
        <ele>775</ele>
        <time>2026-08-21T22:58:59.000Z</time>
        <extensions>
          <ns3:TrackPointExtension>
            <ns3:hr>138</ns3:hr>
            <ns3:cad>0</ns3:cad>
          </ns3:TrackPointExtension>
        </extensions>
      </trkpt>
      <trkpt lat="45.3133183903992176055908203125" lon="-71.0647025518119335174560546875">
        <ele>775.20001220703125</ele>
        <time>2026-08-21T22:59:00.000Z</time>
        <extensions>
          <ns3:TrackPointExtension>
            <ns3:hr>138</ns3:hr>
            <ns3:cad>0</ns3:cad>
          </ns3:TrackPointExtension>
        </extensions>
      </trkpt>
      <trkpt lat="45.3133123554289340972900390625" lon="-71.064706742763519287109375">
        <ele>775.4000244140625</ele>
        <time>2026-08-21T22:59:01.000Z</time>
        <extensions>
          <ns3:TrackPointExtension>
            <ns3:hr>138</ns3:hr>
            <ns3:cad>0</ns3:cad>
          </ns3:TrackPointExtension>
        </extensions>
      </trkpt>
      <trkpt lat="45.31331126578152179718017578125" lon="-71.06470498256385326385498046875">
        <ele>775.5999755859375</ele>
        <time>2026-08-21T22:59:02.000Z</time>
        <extensions>
          <ns3:TrackPointExtension>
            <ns3:hr>137</ns3:hr>
            <ns3:cad>0</ns3:cad>
          </ns3:TrackPointExtension>
        </extensions>
      </trkpt>
      <trkpt lat="45.3133113496005535125732421875" lon="-71.064706407487392425537109375">
        <ele>776</ele>
        <time>2026-08-21T22:59:03.000Z</time>
        <extensions>
          <ns3:TrackPointExtension>
            <ns3:hr>138</ns3:hr>
            <ns3:cad>0</ns3:cad>
          </ns3:TrackPointExtension>
        </extensions>
      </trkpt>
      <trkpt lat="45.3133019618690013885498046875" lon="-71.06471504084765911102294921875">
        <ele>776.20001220703125</ele>
        <time>2026-08-21T22:59:04.000Z</time>
        <extensions>
          <ns3:TrackPointExtension>
            <ns3:hr>138</ns3:hr>
            <ns3:cad>0</ns3:cad>
          </ns3:TrackPointExtension>
        </extensions>
      </trkpt>
      <trkpt lat="45.3132989443838596343994140625" lon="-71.06471923179924488067626953125">
        <ele>776.4000244140625</ele>
        <time>2026-08-21T22:59:05.000Z</time>
        <extensions>
          <ns3:TrackPointExtension>
            <ns3:hr>138</ns3:hr>
            <ns3:cad>0</ns3:cad>
          </ns3:TrackPointExtension>
        </extensions>
      </trkpt>
      <trkpt lat="45.31329651363193988800048828125" lon="-71.06472342275083065032958984375">
        <ele>776.5999755859375</ele>
        <time>2026-08-21T22:59:06.000Z</time>
        <extensions>
          <ns3:TrackPointExtension>
            <ns3:hr>137</ns3:hr>
            <ns3:cad>0</ns3:cad>
          </ns3:TrackPointExtension>
        </extensions>
      </trkpt>
      <trkpt lat="45.31329617835581302642822265625" lon="-71.0647223331034183502197265625">
        <ele>776.79998779296875</ele>
        <time>2026-08-21T22:59:07.000Z</time>
        <extensions>
          <ns3:TrackPointExtension>
            <ns3:hr>138</ns3:hr>
            <ns3:cad>0</ns3:cad>
          </ns3:TrackPointExtension>
        </extensions>
      </trkpt>
      <trkpt lat="45.31329249031841754913330078125" lon="-71.06472484767436981201171875">
        <ele>777</ele>
        <time>2026-08-21T22:59:08.000Z</time>
        <extensions>
          <ns3:TrackPointExtension>
            <ns3:hr>138</ns3:hr>
            <ns3:cad>0</ns3:cad>
          </ns3:TrackPointExtension>
        </extensions>
      </trkpt>
      <trkpt lat="45.3132868744432926177978515625" lon="-71.0647266916930675506591796875">
        <ele>777.20001220703125</ele>
        <time>2026-08-21T22:59:09.000Z</time>
        <extensions>
          <ns3:TrackPointExtension>
            <ns3:hr>138</ns3:hr>
            <ns3:cad>0</ns3:cad>
          </ns3:TrackPointExtension>
        </extensions>
      </trkpt>
      <trkpt lat="45.3132801689207553863525390625" lon="-71.06472945772111415863037109375">
        <ele>777.4000244140625</ele>
        <time>2026-08-21T22:59:10.000Z</time>
        <extensions>
          <ns3:TrackPointExtension>
            <ns3:hr>137</ns3:hr>
            <ns3:cad>0</ns3:cad>
          </ns3:TrackPointExtension>
        </extensions>
      </trkpt>
      <trkpt lat="45.313270948827266693115234375" lon="-71.06473834253847599029541015625">
        <ele>777.4000244140625</ele>
        <time>2026-08-21T22:59:11.000Z</time>
        <extensions>
          <ns3:TrackPointExtension>
            <ns3:hr>138</ns3:hr>
            <ns3:cad>0</ns3:cad>
          </ns3:TrackPointExtension>
        </extensions>
      </trkpt>
      <trkpt lat="45.31326591968536376953125" lon="-71.064744628965854644775390625">
        <ele>777.4000244140625</ele>
        <time>2026-08-21T22:59:12.000Z</time>
        <extensions>
          <ns3:TrackPointExtension>
            <ns3:hr>138</ns3:hr>
            <ns3:cad>0</ns3:cad>
          </ns3:TrackPointExtension>
        </extensions>
      </trkpt>
      <trkpt lat="45.3132587112486362457275390625" lon="-71.06475032866001129150390625">
        <ele>777.4000244140625</ele>
        <time>2026-08-21T22:59:13.000Z</time>
        <extensions>
          <ns3:TrackPointExtension>
            <ns3:hr>138</ns3:hr>
            <ns3:cad>0</ns3:cad>
          </ns3:TrackPointExtension>
        </extensions>
      </trkpt>
      <trkpt lat="45.31325678341090679168701171875" lon="-71.0647521726787090301513671875">
        <ele>777.4000244140625</ele>
        <time>2026-08-21T22:59:14.000Z</time>
        <extensions>
          <ns3:TrackPointExtension>
            <ns3:hr>139</ns3:hr>
            <ns3:cad>0</ns3:cad>
          </ns3:TrackPointExtension>
        </extensions>
      </trkpt>
      <trkpt lat="45.3132484853267669677734375" lon="-71.06475778855383396148681640625">
        <ele>777.4000244140625</ele>
        <time>2026-08-21T22:59:15.000Z</time>
        <extensions>
          <ns3:TrackPointExtension>
            <ns3:hr>139</ns3:hr>
            <ns3:cad>0</ns3:cad>
          </ns3:TrackPointExtension>
        </extensions>
      </trkpt>
      <trkpt lat="45.31324940733611583709716796875" lon="-71.0647575370967388153076171875">
        <ele>777.4000244140625</ele>
        <time>2026-08-21T22:59:16.000Z</time>
        <extensions>
          <ns3:TrackPointExtension>
            <ns3:hr>140</ns3:hr>
            <ns3:cad>0</ns3:cad>
          </ns3:TrackPointExtension>
        </extensions>
      </trkpt>
      <trkpt lat="45.3132493235170841217041015625" lon="-71.06475544162094593048095703125">
        <ele>777.5999755859375</ele>
        <time>2026-08-21T22:59:17.000Z</time>
        <extensions>
          <ns3:TrackPointExtension>
            <ns3:hr>140</ns3:hr>
            <ns3:cad>0</ns3:cad>
          </ns3:TrackPointExtension>
        </extensions>
      </trkpt>
      <trkpt lat="45.313242115080356597900390625" lon="-71.06476181186735630035400390625">
        <ele>777.79998779296875</ele>
        <time>2026-08-21T22:59:18.000Z</time>
        <extensions>
          <ns3:TrackPointExtension>
            <ns3:hr>140</ns3:hr>
            <ns3:cad>0</ns3:cad>
          </ns3:TrackPointExtension>
        </extensions>
      </trkpt>
      <trkpt lat="45.313244797289371490478515625" lon="-71.06476365588605403900146484375">
        <ele>778</ele>
        <time>2026-08-21T22:59:19.000Z</time>
        <extensions>
          <ns3:TrackPointExtension>
            <ns3:hr>140</ns3:hr>
            <ns3:cad>0</ns3:cad>
          </ns3:TrackPointExtension>
        </extensions>
      </trkpt>
      <trkpt lat="45.31323976814746856689453125" lon="-71.06476466171443462371826171875">
        <ele>778.4000244140625</ele>
        <time>2026-08-21T22:59:20.000Z</time>
        <extensions>
          <ns3:TrackPointExtension>
            <ns3:hr>140</ns3:hr>
            <ns3:cad>0</ns3:cad>
          </ns3:TrackPointExtension>
        </extensions>
      </trkpt>
      <trkpt lat="45.31323214061558246612548828125" lon="-71.06476499699056148529052734375">
        <ele>778.79998779296875</ele>
        <time>2026-08-21T22:59:21.000Z</time>
        <extensions>
          <ns3:TrackPointExtension>
            <ns3:hr>140</ns3:hr>
            <ns3:cad>0</ns3:cad>
          </ns3:TrackPointExtension>
        </extensions>
      </trkpt>
      <trkpt lat="45.313219986855983734130859375" lon="-71.06476315297186374664306640625">
        <ele>779.20001220703125</ele>
        <time>2026-08-21T22:59:22.000Z</time>
        <extensions>
          <ns3:TrackPointExtension>
            <ns3:hr>141</ns3:hr>
            <ns3:cad>0</ns3:cad>
          </ns3:TrackPointExtension>
        </extensions>
      </trkpt>
      <trkpt lat="45.31321101821959018707275390625" lon="-71.06476013548672199249267578125">
        <ele>779.4000244140625</ele>
        <time>2026-08-21T22:59:23.000Z</time>
        <extensions>
          <ns3:TrackPointExtension>
            <ns3:hr>142</ns3:hr>
            <ns3:cad>46</ns3:cad>
          </ns3:TrackPointExtension>
        </extensions>
      </trkpt>
      <trkpt lat="45.31321370042860507965087890625" lon="-71.06476047076284885406494140625">
        <ele>779.5999755859375</ele>
        <time>2026-08-21T22:59:24.000Z</time>
        <extensions>
          <ns3:TrackPointExtension>
            <ns3:hr>143</ns3:hr>
            <ns3:cad>46</ns3:cad>
          </ns3:TrackPointExtension>
        </extensions>
      </trkpt>
      <trkpt lat="45.31320749782025814056396484375" lon="-71.0647682659327983856201171875">
        <ele>779.79998779296875</ele>
        <time>2026-08-21T22:59:25.000Z</time>
        <extensions>
          <ns3:TrackPointExtension>
            <ns3:hr>142</ns3:hr>
            <ns3:cad>47</ns3:cad>
          </ns3:TrackPointExtension>
        </extensions>
      </trkpt>
      <trkpt lat="45.3131963498890399932861328125" lon="-71.0647769831120967864990234375">
        <ele>779.79998779296875</ele>
        <time>2026-08-21T22:59:26.000Z</time>
        <extensions>
          <ns3:TrackPointExtension>
            <ns3:hr>142</ns3:hr>
            <ns3:cad>47</ns3:cad>
          </ns3:TrackPointExtension>
        </extensions>
      </trkpt>
      <trkpt lat="45.31318520195782184600830078125" lon="-71.06478192843496799468994140625">
        <ele>780</ele>
        <time>2026-08-21T22:59:27.000Z</time>
        <extensions>
          <ns3:TrackPointExtension>
            <ns3:hr>139</ns3:hr>
            <ns3:cad>48</ns3:cad>
          </ns3:TrackPointExtension>
        </extensions>
      </trkpt>
      <trkpt lat="45.3131738863885402679443359375" lon="-71.06479047797620296478271484375">
        <ele>780.20001220703125</ele>
        <time>2026-08-21T22:59:28.000Z</time>
        <extensions>
          <ns3:TrackPointExtension>
            <ns3:hr>138</ns3:hr>
            <ns3:cad>48</ns3:cad>
          </ns3:TrackPointExtension>
        </extensions>
      </trkpt>
      <trkpt lat="45.31316542066633701324462890625" lon="-71.06479751877486705780029296875">
        <ele>780.20001220703125</ele>
        <time>2026-08-21T22:59:29.000Z</time>
        <extensions>
          <ns3:TrackPointExtension>
            <ns3:hr>138</ns3:hr>
            <ns3:cad>48</ns3:cad>
          </ns3:TrackPointExtension>
        </extensions>
      </trkpt>
      <trkpt lat="45.31315117143094539642333984375" lon="-71.064806990325450897216796875">
        <ele>780.4000244140625</ele>
        <time>2026-08-21T22:59:30.000Z</time>
        <extensions>
          <ns3:TrackPointExtension>
            <ns3:hr>138</ns3:hr>
            <ns3:cad>45</ns3:cad>
          </ns3:TrackPointExtension>
        </extensions>
      </trkpt>
      <trkpt lat="45.31314195133745670318603515625" lon="-71.06481294147670269012451171875">
        <ele>780.4000244140625</ele>
        <time>2026-08-21T22:59:31.000Z</time>
        <extensions>
          <ns3:TrackPointExtension>
            <ns3:hr>139</ns3:hr>
            <ns3:cad>45</ns3:cad>
          </ns3:TrackPointExtension>
        </extensions>
      </trkpt>
      <trkpt lat="45.31313139013946056365966796875" lon="-71.06481830589473247528076171875">
        <ele>780.5999755859375</ele>
        <time>2026-08-21T22:59:32.000Z</time>
        <extensions>
          <ns3:TrackPointExtension>
            <ns3:hr>139</ns3:hr>
            <ns3:cad>45</ns3:cad>
          </ns3:TrackPointExtension>
        </extensions>
      </trkpt>
      <trkpt lat="45.31312309205532073974609375" lon="-71.0648242570459842681884765625">
        <ele>780.79998779296875</ele>
        <time>2026-08-21T22:59:33.000Z</time>
        <extensions>
          <ns3:TrackPointExtension>
            <ns3:hr>139</ns3:hr>
            <ns3:cad>45</ns3:cad>
          </ns3:TrackPointExtension>
        </extensions>
      </trkpt>
      <trkpt lat="45.3131162188947200775146484375" lon="-71.06482467614114284515380859375">
        <ele>781</ele>
        <time>2026-08-21T22:59:34.000Z</time>
        <extensions>
          <ns3:TrackPointExtension>
            <ns3:hr>139</ns3:hr>
            <ns3:cad>45</ns3:cad>
          </ns3:TrackPointExtension>
        </extensions>
      </trkpt>
      <trkpt lat="45.31310590915381908416748046875" lon="-71.06482635252177715301513671875">
        <ele>781.20001220703125</ele>
        <time>2026-08-21T22:59:35.000Z</time>
        <extensions>
          <ns3:TrackPointExtension>
            <ns3:hr>140</ns3:hr>
            <ns3:cad>51</ns3:cad>
          </ns3:TrackPointExtension>
        </extensions>
      </trkpt>
      <trkpt lat="45.313095934689044952392578125" lon="-71.064829118549823760986328125">
        <ele>781.4000244140625</ele>
        <time>2026-08-21T22:59:36.000Z</time>
        <extensions>
          <ns3:TrackPointExtension>
            <ns3:hr>140</ns3:hr>
            <ns3:cad>51</ns3:cad>
          </ns3:TrackPointExtension>
        </extensions>
      </trkpt>
      <trkpt lat="45.31309249810874462127685546875" lon="-71.0648249275982379913330078125">
        <ele>781.5999755859375</ele>
        <time>2026-08-21T22:59:37.000Z</time>
        <extensions>
          <ns3:TrackPointExtension>
            <ns3:hr>141</ns3:hr>
            <ns3:cad>50</ns3:cad>
          </ns3:TrackPointExtension>
        </extensions>
      </trkpt>
      <trkpt lat="45.31308528967201709747314453125" lon="-71.06482165865600109100341796875">
        <ele>781.79998779296875</ele>
        <time>2026-08-21T22:59:38.000Z</time>
        <extensions>
          <ns3:TrackPointExtension>
            <ns3:hr>141</ns3:hr>
            <ns3:cad>49</ns3:cad>
          </ns3:TrackPointExtension>
        </extensions>
      </trkpt>
      <trkpt lat="45.3130781650543212890625" lon="-71.06481813825666904449462890625">
        <ele>782</ele>
        <time>2026-08-21T22:59:39.000Z</time>
        <extensions>
          <ns3:TrackPointExtension>
            <ns3:hr>141</ns3:hr>
            <ns3:cad>49</ns3:cad>
          </ns3:TrackPointExtension>
        </extensions>
      </trkpt>
      <trkpt lat="45.31307338736951351165771484375" lon="-71.06480506248772144317626953125">
        <ele>782.20001220703125</ele>
        <time>2026-08-21T22:59:40.000Z</time>
        <extensions>
          <ns3:TrackPointExtension>
            <ns3:hr>141</ns3:hr>
            <ns3:cad>48</ns3:cad>
          </ns3:TrackPointExtension>
        </extensions>
      </trkpt>
      <trkpt lat="45.31306232325732707977294921875" lon="-71.06481201946735382080078125">
        <ele>782.4000244140625</ele>
        <time>2026-08-21T22:59:41.000Z</time>
        <extensions>
          <ns3:TrackPointExtension>
            <ns3:hr>141</ns3:hr>
            <ns3:cad>48</ns3:cad>
          </ns3:TrackPointExtension>
        </extensions>
      </trkpt>
      <trkpt lat="45.3130538575351238250732421875" lon="-71.06481210328638553619384765625">
        <ele>782.5999755859375</ele>
        <time>2026-08-21T22:59:42.000Z</time>
        <extensions>
          <ns3:TrackPointExtension>
            <ns3:hr>141</ns3:hr>
            <ns3:cad>48</ns3:cad>
          </ns3:TrackPointExtension>
        </extensions>
      </trkpt>
      <trkpt lat="45.31304530799388885498046875" lon="-71.06480933725833892822265625">
        <ele>782.5999755859375</ele>
        <time>2026-08-21T22:59:43.000Z</time>
        <extensions>
          <ns3:TrackPointExtension>
            <ns3:hr>141</ns3:hr>
            <ns3:cad>48</ns3:cad>
          </ns3:TrackPointExtension>
        </extensions>
      </trkpt>
      <trkpt lat="45.313034243881702423095703125" lon="-71.06480925343930721282958984375">
        <ele>782.79998779296875</ele>
        <time>2026-08-21T22:59:44.000Z</time>
        <extensions>
          <ns3:TrackPointExtension>
            <ns3:hr>142</ns3:hr>
            <ns3:cad>48</ns3:cad>
          </ns3:TrackPointExtension>
        </extensions>
      </trkpt>
      <trkpt lat="45.31302460469305515289306640625" lon="-71.0648100078105926513671875">
        <ele>782.79998779296875</ele>
        <time>2026-08-21T22:59:45.000Z</time>
        <extensions>
          <ns3:TrackPointExtension>
            <ns3:hr>142</ns3:hr>
            <ns3:cad>48</ns3:cad>
          </ns3:TrackPointExtension>
        </extensions>
      </trkpt>
      <trkpt lat="45.31301035545766353607177734375" lon="-71.064805649220943450927734375">
        <ele>782.79998779296875</ele>
        <time>2026-08-21T22:59:46.000Z</time>
        <extensions>
          <ns3:TrackPointExtension>
            <ns3:hr>143</ns3:hr>
            <ns3:cad>48</ns3:cad>
          </ns3:TrackPointExtension>
        </extensions>
      </trkpt>
      <trkpt lat="45.3129961900413036346435546875" lon="-71.0648071579635143280029296875">
        <ele>783</ele>
        <time>2026-08-21T22:59:47.000Z</time>
        <extensions>
          <ns3:TrackPointExtension>
            <ns3:hr>143</ns3:hr>
            <ns3:cad>47</ns3:cad>
          </ns3:TrackPointExtension>
        </extensions>
      </trkpt>
      <trkpt lat="45.3129864670336246490478515625" lon="-71.06480858288705348968505859375">
        <ele>783</ele>
        <time>2026-08-21T22:59:48.000Z</time>
        <extensions>
          <ns3:TrackPointExtension>
            <ns3:hr>143</ns3:hr>
            <ns3:cad>47</ns3:cad>
          </ns3:TrackPointExtension>
        </extensions>
      </trkpt>
      <trkpt lat="45.31297682784497737884521484375" lon="-71.06481361202895641326904296875">
        <ele>783.20001220703125</ele>
        <time>2026-08-21T22:59:49.000Z</time>
        <extensions>
          <ns3:TrackPointExtension>
            <ns3:hr>143</ns3:hr>
            <ns3:cad>48</ns3:cad>
          </ns3:TrackPointExtension>
        </extensions>
      </trkpt>
      <trkpt lat="45.31296744011342525482177734375" lon="-71.06481604278087615966796875">
        <ele>783.20001220703125</ele>
        <time>2026-08-21T22:59:50.000Z</time>
        <extensions>
          <ns3:TrackPointExtension>
            <ns3:hr>143</ns3:hr>
            <ns3:cad>50</ns3:cad>
          </ns3:TrackPointExtension>
        </extensions>
      </trkpt>
      <trkpt lat="45.31295905821025371551513671875" lon="-71.06481461785733699798583984375">
        <ele>783.20001220703125</ele>
        <time>2026-08-21T22:59:51.000Z</time>
        <extensions>
          <ns3:TrackPointExtension>
            <ns3:hr>143</ns3:hr>
            <ns3:cad>50</ns3:cad>
          </ns3:TrackPointExtension>
        </extensions>
      </trkpt>
      <trkpt lat="45.31295168213546276092529296875" lon="-71.06480858288705348968505859375">
        <ele>783.4000244140625</ele>
        <time>2026-08-21T22:59:52.000Z</time>
        <extensions>
          <ns3:TrackPointExtension>
            <ns3:hr>142</ns3:hr>
            <ns3:cad>51</ns3:cad>
          </ns3:TrackPointExtension>
        </extensions>
      </trkpt>
      <trkpt lat="45.31294128857553005218505859375" lon="-71.06479751877486705780029296875">
        <ele>783.4000244140625</ele>
        <time>2026-08-21T22:59:53.000Z</time>
        <extensions>
          <ns3:TrackPointExtension>
            <ns3:hr>143</ns3:hr>
            <ns3:cad>51</ns3:cad>
          </ns3:TrackPointExtension>
        </extensions>
      </trkpt>
      <trkpt lat="45.31293424777686595916748046875" lon="-71.0647970996797084808349609375">
        <ele>783.5999755859375</ele>
        <time>2026-08-21T22:59:54.000Z</time>
        <extensions>
          <ns3:TrackPointExtension>
            <ns3:hr>142</ns3:hr>
            <ns3:cad>48</ns3:cad>
          </ns3:TrackPointExtension>
        </extensions>
      </trkpt>
      <trkpt lat="45.31292804516851902008056640625" lon="-71.0647952556610107421875">
        <ele>783.5999755859375</ele>
        <time>2026-08-21T22:59:55.000Z</time>
        <extensions>
          <ns3:TrackPointExtension>
            <ns3:hr>142</ns3:hr>
            <ns3:cad>48</ns3:cad>
          </ns3:TrackPointExtension>
        </extensions>
      </trkpt>
      <trkpt lat="45.31291790306568145751953125" lon="-71.064786873757839202880859375">
        <ele>783.79998779296875</ele>
        <time>2026-08-21T22:59:56.000Z</time>
        <extensions>
          <ns3:TrackPointExtension>
            <ns3:hr>142</ns3:hr>
            <ns3:cad>48</ns3:cad>
          </ns3:TrackPointExtension>
        </extensions>
      </trkpt>
      <trkpt lat="45.31291211955249309539794921875" lon="-71.06478008441627025604248046875">
        <ele>784</ele>
        <time>2026-08-21T22:59:57.000Z</time>
        <extensions>
          <ns3:TrackPointExtension>
            <ns3:hr>142</ns3:hr>
            <ns3:cad>48</ns3:cad>
          </ns3:TrackPointExtension>
        </extensions>
      </trkpt>
      <trkpt lat="45.3129093535244464874267578125" lon="-71.06477187015116214752197265625">
        <ele>784.20001220703125</ele>
        <time>2026-08-21T22:59:58.000Z</time>
        <extensions>
          <ns3:TrackPointExtension>
            <ns3:hr>142</ns3:hr>
            <ns3:cad>48</ns3:cad>
          </ns3:TrackPointExtension>
        </extensions>
      </trkpt>
      <trkpt lat="45.3129073418676853179931640625" lon="-71.06476105749607086181640625">
        <ele>784.4000244140625</ele>
        <time>2026-08-21T22:59:59.000Z</time>
        <extensions>
          <ns3:TrackPointExtension>
            <ns3:hr>142</ns3:hr>
            <ns3:cad>47</ns3:cad>
          </ns3:TrackPointExtension>
        </extensions>
      </trkpt>
      <trkpt lat="45.31290558166801929473876953125" lon="-71.0647535137832164764404296875">
        <ele>784.4000244140625</ele>
        <time>2026-08-21T23:00:00.000Z</time>
        <extensions>
          <ns3:TrackPointExtension>
            <ns3:hr>142</ns3:hr>
            <ns3:cad>46</ns3:cad>
          </ns3:TrackPointExtension>
        </extensions>
      </trkpt>
      <trkpt lat="45.31290449202060699462890625" lon="-71.064739264547824859619140625">
        <ele>784.5999755859375</ele>
        <time>2026-08-21T23:00:01.000Z</time>
        <extensions>
          <ns3:TrackPointExtension>
            <ns3:hr>141</ns3:hr>
            <ns3:cad>46</ns3:cad>
          </ns3:TrackPointExtension>
        </extensions>
      </trkpt>
      <trkpt lat="45.31290105544030666351318359375" lon="-71.0647266916930675506591796875">
        <ele>784.79998779296875</ele>
        <time>2026-08-21T23:00:02.000Z</time>
        <extensions>
          <ns3:TrackPointExtension>
            <ns3:hr>141</ns3:hr>
            <ns3:cad>46</ns3:cad>
          </ns3:TrackPointExtension>
        </extensions>
      </trkpt>
      <trkpt lat="45.31289954669773578643798828125" lon="-71.06471638195216655731201171875">
        <ele>784.79998779296875</ele>
        <time>2026-08-21T23:00:03.000Z</time>
        <extensions>
          <ns3:TrackPointExtension>
            <ns3:hr>141</ns3:hr>
            <ns3:cad>46</ns3:cad>
          </ns3:TrackPointExtension>
        </extensions>
      </trkpt>
      <trkpt lat="45.31289870850741863250732421875" lon="-71.06469936668872833251953125">
        <ele>785</ele>
        <time>2026-08-21T23:00:04.000Z</time>
        <extensions>
          <ns3:TrackPointExtension>
            <ns3:hr>141</ns3:hr>
            <ns3:cad>0</ns3:cad>
          </ns3:TrackPointExtension>
        </extensions>
      </trkpt>
      <trkpt lat="45.312896110117435455322265625" lon="-71.0646812617778778076171875">
        <ele>785.20001220703125</ele>
        <time>2026-08-21T23:00:05.000Z</time>
        <extensions>
          <ns3:TrackPointExtension>
            <ns3:hr>141</ns3:hr>
            <ns3:cad>0</ns3:cad>
          </ns3:TrackPointExtension>
        </extensions>
      </trkpt>
      <trkpt lat="45.31289502047002315521240234375" lon="-71.06466709636151790618896484375">
        <ele>785.4000244140625</ele>
        <time>2026-08-21T23:00:06.000Z</time>
        <extensions>
          <ns3:TrackPointExtension>
            <ns3:hr>140</ns3:hr>
            <ns3:cad>50</ns3:cad>
          </ns3:TrackPointExtension>
        </extensions>
      </trkpt>
      <trkpt lat="45.312891416251659393310546875" lon="-71.06465318240225315093994140625">
        <ele>785.5999755859375</ele>
        <time>2026-08-21T23:00:07.000Z</time>
        <extensions>
          <ns3:TrackPointExtension>
            <ns3:hr>140</ns3:hr>
            <ns3:cad>50</ns3:cad>
          </ns3:TrackPointExtension>
        </extensions>
      </trkpt>
      <trkpt lat="45.31288932077586650848388671875" lon="-71.0646383464336395263671875">
        <ele>785.79998779296875</ele>
        <time>2026-08-21T23:00:08.000Z</time>
        <extensions>
          <ns3:TrackPointExtension>
            <ns3:hr>140</ns3:hr>
            <ns3:cad>50</ns3:cad>
          </ns3:TrackPointExtension>
        </extensions>
      </trkpt>
      <trkpt lat="45.31288445927202701568603515625" lon="-71.064627952873706817626953125">
        <ele>785.79998779296875</ele>
        <time>2026-08-21T23:00:09.000Z</time>
        <extensions>
          <ns3:TrackPointExtension>
            <ns3:hr>140</ns3:hr>
            <ns3:cad>46</ns3:cad>
          </ns3:TrackPointExtension>
        </extensions>
      </trkpt>
      <trkpt lat="45.31288093887269496917724609375" lon="-71.064610518515110015869140625">
        <ele>786.20001220703125</ele>
        <time>2026-08-21T23:00:10.000Z</time>
        <extensions>
          <ns3:TrackPointExtension>
            <ns3:hr>140</ns3:hr>
            <ns3:cad>46</ns3:cad>
          </ns3:TrackPointExtension>
        </extensions>
      </trkpt>
      <trkpt lat="45.31287523917853832244873046875" lon="-71.0646012984216213226318359375">
        <ele>786.4000244140625</ele>
        <time>2026-08-21T23:00:11.000Z</time>
        <extensions>
          <ns3:TrackPointExtension>
            <ns3:hr>140</ns3:hr>
            <ns3:cad>46</ns3:cad>
          </ns3:TrackPointExtension>
        </extensions>
      </trkpt>
      <trkpt lat="45.3128718025982379913330078125" lon="-71.064591072499752044677734375">
        <ele>786.5999755859375</ele>
        <time>2026-08-21T23:00:12.000Z</time>
        <extensions>
          <ns3:TrackPointExtension>
            <ns3:hr>140</ns3:hr>
            <ns3:cad>44</ns3:cad>
          </ns3:TrackPointExtension>
        </extensions>
      </trkpt>
      <trkpt lat="45.31286283396184444427490234375" lon="-71.06457187794148921966552734375">
        <ele>786.5999755859375</ele>
        <time>2026-08-21T23:00:13.000Z</time>
        <extensions>
          <ns3:TrackPointExtension>
            <ns3:hr>141</ns3:hr>
            <ns3:cad>44</ns3:cad>
          </ns3:TrackPointExtension>
        </extensions>
      </trkpt>
      <trkpt lat="45.31286157667636871337890625" lon="-71.06456668116152286529541015625">
        <ele>787</ele>
        <time>2026-08-21T23:00:14.000Z</time>
        <extensions>
          <ns3:TrackPointExtension>
            <ns3:hr>141</ns3:hr>
            <ns3:cad>41</ns3:cad>
          </ns3:TrackPointExtension>
        </extensions>
      </trkpt>
      <trkpt lat="45.31285847537219524383544921875" lon="-71.06454539112746715545654296875">
        <ele>787</ele>
        <time>2026-08-21T23:00:15.000Z</time>
        <extensions>
          <ns3:TrackPointExtension>
            <ns3:hr>141</ns3:hr>
            <ns3:cad>41</ns3:cad>
          </ns3:TrackPointExtension>
        </extensions>
      </trkpt>
      <trkpt lat="45.3128540329635143280029296875" lon="-71.06452711857855319976806640625">
        <ele>787.20001220703125</ele>
        <time>2026-08-21T23:00:16.000Z</time>
        <extensions>
          <ns3:TrackPointExtension>
            <ns3:hr>141</ns3:hr>
            <ns3:cad>41</ns3:cad>
          </ns3:TrackPointExtension>
        </extensions>
      </trkpt>
      <trkpt lat="45.3128515183925628662109375" lon="-71.06451370753347873687744140625">
        <ele>787.4000244140625</ele>
        <time>2026-08-21T23:00:17.000Z</time>
        <extensions>
          <ns3:TrackPointExtension>
            <ns3:hr>142</ns3:hr>
            <ns3:cad>41</ns3:cad>
          </ns3:TrackPointExtension>
        </extensions>
      </trkpt>
      <trkpt lat="45.31284791417419910430908203125" lon="-71.064503900706768035888671875">
        <ele>787.5999755859375</ele>
        <time>2026-08-21T23:00:18.000Z</time>
        <extensions>
          <ns3:TrackPointExtension>
            <ns3:hr>142</ns3:hr>
            <ns3:cad>41</ns3:cad>
          </ns3:TrackPointExtension>
        </extensions>
      </trkpt>
      <trkpt lat="45.312839448451995849609375" lon="-71.06449610553681850433349609375">
        <ele>787.5999755859375</ele>
        <time>2026-08-21T23:00:19.000Z</time>
        <extensions>
          <ns3:TrackPointExtension>
            <ns3:hr>142</ns3:hr>
            <ns3:cad>41</ns3:cad>
          </ns3:TrackPointExtension>
        </extensions>
      </trkpt>
      <trkpt lat="45.312832407653331756591796875" lon="-71.0644832812249660491943359375">
        <ele>787.5999755859375</ele>
        <time>2026-08-21T23:00:20.000Z</time>
        <extensions>
          <ns3:TrackPointExtension>
            <ns3:hr>140</ns3:hr>
            <ns3:cad>41</ns3:cad>
          </ns3:TrackPointExtension>
        </extensions>
      </trkpt>
      <trkpt lat="45.31282695941627025604248046875" lon="-71.06445838697254657745361328125">
        <ele>787.79998779296875</ele>
        <time>2026-08-21T23:00:21.000Z</time>
        <extensions>
          <ns3:TrackPointExtension>
            <ns3:hr>138</ns3:hr>
            <ns3:cad>41</ns3:cad>
          </ns3:TrackPointExtension>
        </extensions>
      </trkpt>
      <trkpt lat="45.31282293610274791717529296875" lon="-71.064443886280059814453125">
        <ele>788</ele>
        <time>2026-08-21T23:00:22.000Z</time>
        <extensions>
          <ns3:TrackPointExtension>
            <ns3:hr>137</ns3:hr>
            <ns3:cad>41</ns3:cad>
          </ns3:TrackPointExtension>
        </extensions>
      </trkpt>
      <trkpt lat="45.3128193318843841552734375" lon="-71.06443257071077823638916015625">
        <ele>788</ele>
        <time>2026-08-21T23:00:23.000Z</time>
        <extensions>
          <ns3:TrackPointExtension>
            <ns3:hr>136</ns3:hr>
            <ns3:cad>47</ns3:cad>
          </ns3:TrackPointExtension>
        </extensions>
      </trkpt>
      <trkpt lat="45.31281254254281520843505859375" lon="-71.06442309916019439697265625">
        <ele>788.20001220703125</ele>
        <time>2026-08-21T23:00:24.000Z</time>
        <extensions>
          <ns3:TrackPointExtension>
            <ns3:hr>136</ns3:hr>
            <ns3:cad>47</ns3:cad>
          </ns3:TrackPointExtension>
        </extensions>
      </trkpt>
      <trkpt lat="45.3128024004399776458740234375" lon="-71.0644068382680416107177734375">
        <ele>788.5999755859375</ele>
        <time>2026-08-21T23:00:25.000Z</time>
        <extensions>
          <ns3:TrackPointExtension>
            <ns3:hr>137</ns3:hr>
            <ns3:cad>47</ns3:cad>
          </ns3:TrackPointExtension>
        </extensions>
      </trkpt>
      <trkpt lat="45.31279494054615497589111328125" lon="-71.064394600689411163330078125">
        <ele>788.79998779296875</ele>
        <time>2026-08-21T23:00:26.000Z</time>
        <extensions>
          <ns3:TrackPointExtension>
            <ns3:hr>136</ns3:hr>
            <ns3:cad>48</ns3:cad>
          </ns3:TrackPointExtension>
        </extensions>
      </trkpt>
      <trkpt lat="45.31278873793780803680419921875" lon="-71.06438613496720790863037109375">
        <ele>789</ele>
        <time>2026-08-21T23:00:27.000Z</time>
        <extensions>
          <ns3:TrackPointExtension>
            <ns3:hr>136</ns3:hr>
            <ns3:cad>48</ns3:cad>
          </ns3:TrackPointExtension>
        </extensions>
      </trkpt>
      <trkpt lat="45.31278119422495365142822265625" lon="-71.06437842361629009246826171875">
        <ele>789.20001220703125</ele>
        <time>2026-08-21T23:00:28.000Z</time>
        <extensions>
          <ns3:TrackPointExtension>
            <ns3:hr>136</ns3:hr>
            <ns3:cad>48</ns3:cad>
          </ns3:TrackPointExtension>
        </extensions>
      </trkpt>
      <trkpt lat="45.3127722255885601043701171875" lon="-71.06437255628407001495361328125">
        <ele>789.20001220703125</ele>
        <time>2026-08-21T23:00:29.000Z</time>
        <extensions>
          <ns3:TrackPointExtension>
            <ns3:hr>136</ns3:hr>
            <ns3:cad>49</ns3:cad>
          </ns3:TrackPointExtension>
        </extensions>
      </trkpt>
      <trkpt lat="45.312764346599578857421875" lon="-71.06435897760093212127685546875">
        <ele>789.4000244140625</ele>
        <time>2026-08-21T23:00:30.000Z</time>
        <extensions>
          <ns3:TrackPointExtension>
            <ns3:hr>137</ns3:hr>
            <ns3:cad>49</ns3:cad>
          </ns3:TrackPointExtension>
        </extensions>
      </trkpt>
      <trkpt lat="45.31275470741093158721923828125" lon="-71.0643528588116168975830078125">
        <ele>789.5999755859375</ele>
        <time>2026-08-21T23:00:31.000Z</time>
        <extensions>
          <ns3:TrackPointExtension>
            <ns3:hr>136</ns3:hr>
            <ns3:cad>48</ns3:cad>
          </ns3:TrackPointExtension>
        </extensions>
      </trkpt>
      <trkpt lat="45.3127447329461574554443359375" lon="-71.06434036977589130401611328125">
        <ele>789.79998779296875</ele>
        <time>2026-08-21T23:00:32.000Z</time>
        <extensions>
          <ns3:TrackPointExtension>
            <ns3:hr>137</ns3:hr>
            <ns3:cad>48</ns3:cad>
          </ns3:TrackPointExtension>
        </extensions>
      </trkpt>
      <trkpt lat="45.31273417174816131591796875" lon="-71.06432829983532428741455078125">
        <ele>789.79998779296875</ele>
        <time>2026-08-21T23:00:33.000Z</time>
        <extensions>
          <ns3:TrackPointExtension>
            <ns3:hr>137</ns3:hr>
            <ns3:cad>50</ns3:cad>
          </ns3:TrackPointExtension>
        </extensions>
      </trkpt>
      <trkpt lat="45.3127219341695308685302734375" lon="-71.06431505642831325531005859375">
        <ele>790</ele>
        <time>2026-08-21T23:00:34.000Z</time>
        <extensions>
          <ns3:TrackPointExtension>
            <ns3:hr>138</ns3:hr>
            <ns3:cad>50</ns3:cad>
          </ns3:TrackPointExtension>
        </extensions>
      </trkpt>
      <trkpt lat="45.31271128915250301361083984375" lon="-71.064302735030651092529296875">
        <ele>790</ele>
        <time>2026-08-21T23:00:35.000Z</time>
        <extensions>
          <ns3:TrackPointExtension>
            <ns3:hr>138</ns3:hr>
            <ns3:cad>48</ns3:cad>
          </ns3:TrackPointExtension>
        </extensions>
      </trkpt>
      <trkpt lat="45.31269393861293792724609375" lon="-71.0642884857952594757080078125">
        <ele>790.20001220703125</ele>
        <time>2026-08-21T23:00:36.000Z</time>
        <extensions>
          <ns3:TrackPointExtension>
            <ns3:hr>138</ns3:hr>
            <ns3:cad>47</ns3:cad>
          </ns3:TrackPointExtension>
        </extensions>
      </trkpt>
      <trkpt lat="45.31267524696886539459228515625" lon="-71.064276583492755889892578125">
        <ele>790.20001220703125</ele>
        <time>2026-08-21T23:00:37.000Z</time>
        <extensions>
          <ns3:TrackPointExtension>
            <ns3:hr>138</ns3:hr>
            <ns3:cad>47</ns3:cad>
          </ns3:TrackPointExtension>
        </extensions>
      </trkpt>
      <trkpt lat="45.31265546567738056182861328125" lon="-71.06428052298724651336669921875">
        <ele>790.20001220703125</ele>
        <time>2026-08-21T23:00:38.000Z</time>
        <extensions>
          <ns3:TrackPointExtension>
            <ns3:hr>138</ns3:hr>
            <ns3:cad>47</ns3:cad>
          </ns3:TrackPointExtension>
        </extensions>
      </trkpt>
      <trkpt lat="45.3126391209661960601806640625" lon="-71.06428035534918308258056640625">
        <ele>790.20001220703125</ele>
        <time>2026-08-21T23:00:39.000Z</time>
        <extensions>
          <ns3:TrackPointExtension>
            <ns3:hr>138</ns3:hr>
            <ns3:cad>47</ns3:cad>
          </ns3:TrackPointExtension>
        </extensions>
      </trkpt>
      <trkpt lat="45.3126262128353118896484375" lon="-71.06428856961429119110107421875">
        <ele>790.20001220703125</ele>
        <time>2026-08-21T23:00:40.000Z</time>
        <extensions>
          <ns3:TrackPointExtension>
            <ns3:hr>138</ns3:hr>
            <ns3:cad>44</ns3:cad>
          </ns3:TrackPointExtension>
        </extensions>
      </trkpt>
      <trkpt lat="45.31261690892279148101806640625" lon="-71.06430047191679477691650390625">
        <ele>790</ele>
        <time>2026-08-21T23:00:41.000Z</time>
        <extensions>
          <ns3:TrackPointExtension>
            <ns3:hr>138</ns3:hr>
            <ns3:cad>47</ns3:cad>
          </ns3:TrackPointExtension>
        </extensions>
      </trkpt>
      <trkpt lat="45.31260618008673191070556640625" lon="-71.06430382467806339263916015625">
        <ele>790</ele>
        <time>2026-08-21T23:00:42.000Z</time>
        <extensions>
          <ns3:TrackPointExtension>
            <ns3:hr>138</ns3:hr>
            <ns3:cad>47</ns3:cad>
          </ns3:TrackPointExtension>
        </extensions>
      </trkpt>
      <trkpt lat="45.31259067356586456298828125" lon="-71.06431773863732814788818359375">
        <ele>790</ele>
        <time>2026-08-21T23:00:43.000Z</time>
        <extensions>
          <ns3:TrackPointExtension>
            <ns3:hr>138</ns3:hr>
            <ns3:cad>47</ns3:cad>
          </ns3:TrackPointExtension>
        </extensions>
      </trkpt>
      <trkpt lat="45.312578938901424407958984375" lon="-71.0643293894827365875244140625">
        <ele>790</ele>
        <time>2026-08-21T23:00:44.000Z</time>
        <extensions>
          <ns3:TrackPointExtension>
            <ns3:hr>138</ns3:hr>
            <ns3:cad>47</ns3:cad>
          </ns3:TrackPointExtension>
        </extensions>
      </trkpt>
      <trkpt lat="45.31256427057087421417236328125" lon="-71.06433835811913013458251953125">
        <ele>790</ele>
        <time>2026-08-21T23:00:45.000Z</time>
        <extensions>
          <ns3:TrackPointExtension>
            <ns3:hr>138</ns3:hr>
            <ns3:cad>52</ns3:cad>
          </ns3:TrackPointExtension>
        </extensions>
      </trkpt>
      <trkpt lat="45.31254717148840427398681640625" lon="-71.064358055591583251953125">
        <ele>790</ele>
        <time>2026-08-21T23:00:46.000Z</time>
        <extensions>
          <ns3:TrackPointExtension>
            <ns3:hr>138</ns3:hr>
            <ns3:cad>57</ns3:cad>
          </ns3:TrackPointExtension>
        </extensions>
      </trkpt>
      <trkpt lat="45.31253434717655181884765625" lon="-71.06437171809375286102294921875">
        <ele>790</ele>
        <time>2026-08-21T23:00:47.000Z</time>
        <extensions>
          <ns3:TrackPointExtension>
            <ns3:hr>138</ns3:hr>
            <ns3:cad>57</ns3:cad>
          </ns3:TrackPointExtension>
        </extensions>
      </trkpt>
      <trkpt lat="45.3125207684934139251708984375" lon="-71.064387224614620208740234375">
        <ele>790.20001220703125</ele>
        <time>2026-08-21T23:00:48.000Z</time>
        <extensions>
          <ns3:TrackPointExtension>
            <ns3:hr>137</ns3:hr>
            <ns3:cad>57</ns3:cad>
          </ns3:TrackPointExtension>
        </extensions>
      </trkpt>
      <trkpt lat="45.3125097043812274932861328125" lon="-71.064400635659694671630859375">
        <ele>790.4000244140625</ele>
        <time>2026-08-21T23:00:49.000Z</time>
        <extensions>
          <ns3:TrackPointExtension>
            <ns3:hr>137</ns3:hr>
            <ns3:cad>57</ns3:cad>
          </ns3:TrackPointExtension>
        </extensions>
      </trkpt>
      <trkpt lat="45.31249453313648700714111328125" lon="-71.064412035048007965087890625">
        <ele>790.79998779296875</ele>
        <time>2026-08-21T23:00:50.000Z</time>
        <extensions>
          <ns3:TrackPointExtension>
            <ns3:hr>136</ns3:hr>
            <ns3:cad>57</ns3:cad>
          </ns3:TrackPointExtension>
        </extensions>
      </trkpt>
      <trkpt lat="45.3124808706343173980712890625" lon="-71.064432151615619659423828125">
        <ele>791</ele>
        <time>2026-08-21T23:00:51.000Z</time>
        <extensions>
          <ns3:TrackPointExtension>
            <ns3:hr>136</ns3:hr>
            <ns3:cad>57</ns3:cad>
          </ns3:TrackPointExtension>
        </extensions>
      </trkpt>
      <trkpt lat="45.31247173435986042022705078125" lon="-71.064447574317455291748046875">
        <ele>791</ele>
        <time>2026-08-21T23:00:52.000Z</time>
        <extensions>
          <ns3:TrackPointExtension>
            <ns3:hr>136</ns3:hr>
            <ns3:cad>57</ns3:cad>
          </ns3:TrackPointExtension>
        </extensions>
      </trkpt>
      <trkpt lat="45.31246670521795749664306640625" lon="-71.06446408666670322418212890625">
        <ele>791.20001220703125</ele>
        <time>2026-08-21T23:00:53.000Z</time>
        <extensions>
          <ns3:TrackPointExtension>
            <ns3:hr>136</ns3:hr>
            <ns3:cad>57</ns3:cad>
          </ns3:TrackPointExtension>
        </extensions>
      </trkpt>
      <trkpt lat="45.3124584071338176727294921875" lon="-71.064493842422962188720703125">
        <ele>791.20001220703125</ele>
        <time>2026-08-21T23:00:54.000Z</time>
        <extensions>
          <ns3:TrackPointExtension>
            <ns3:hr>136</ns3:hr>
            <ns3:cad>57</ns3:cad>
          </ns3:TrackPointExtension>
        </extensions>
      </trkpt>
      <trkpt lat="45.31245446763932704925537109375" lon="-71.06451722793281078338623046875">
        <ele>791</ele>
        <time>2026-08-21T23:00:55.000Z</time>
        <extensions>
          <ns3:TrackPointExtension>
            <ns3:hr>137</ns3:hr>
            <ns3:cad>57</ns3:cad>
          </ns3:TrackPointExtension>
        </extensions>
      </trkpt>
      <trkpt lat="45.3124560602009296417236328125" lon="-71.0645364224910736083984375">
        <ele>790.79998779296875</ele>
        <time>2026-08-21T23:00:56.000Z</time>
        <extensions>
          <ns3:TrackPointExtension>
            <ns3:hr>137</ns3:hr>
            <ns3:cad>57</ns3:cad>
          </ns3:TrackPointExtension>
        </extensions>
      </trkpt>
      <trkpt lat="45.3124510310590267181396484375" lon="-71.06455913744866847991943359375">
        <ele>790.5999755859375</ele>
        <time>2026-08-21T23:00:57.000Z</time>
        <extensions>
          <ns3:TrackPointExtension>
            <ns3:hr>138</ns3:hr>
            <ns3:cad>57</ns3:cad>
          </ns3:TrackPointExtension>
        </extensions>
      </trkpt>
      <trkpt lat="45.312444828450679779052734375" lon="-71.06457724235951900482177734375">
        <ele>790.4000244140625</ele>
        <time>2026-08-21T23:00:58.000Z</time>
        <extensions>
          <ns3:TrackPointExtension>
            <ns3:hr>137</ns3:hr>
            <ns3:cad>0</ns3:cad>
          </ns3:TrackPointExtension>
        </extensions>
      </trkpt>
      <trkpt lat="45.31244223006069660186767578125" lon="-71.06459434144198894500732421875">
        <ele>790.20001220703125</ele>
        <time>2026-08-21T23:00:59.000Z</time>
        <extensions>
          <ns3:TrackPointExtension>
            <ns3:hr>136</ns3:hr>
            <ns3:cad>0</ns3:cad>
          </ns3:TrackPointExtension>
        </extensions>
      </trkpt>
      <trkpt lat="45.312437452375888824462890625" lon="-71.06461294926702976226806640625">
        <ele>789.79998779296875</ele>
        <time>2026-08-21T23:01:00.000Z</time>
        <extensions>
          <ns3:TrackPointExtension>
            <ns3:hr>136</ns3:hr>
            <ns3:cad>0</ns3:cad>
          </ns3:TrackPointExtension>
        </extensions>
      </trkpt>
      <trkpt lat="45.3124262206256389617919921875" lon="-71.06462921015918254852294921875">
        <ele>789.5999755859375</ele>
        <time>2026-08-21T23:01:01.000Z</time>
        <extensions>
          <ns3:TrackPointExtension>
            <ns3:hr>136</ns3:hr>
            <ns3:cad>0</ns3:cad>
          </ns3:TrackPointExtension>
        </extensions>
      </trkpt>
      <trkpt lat="45.31242705881595611572265625" lon="-71.06464664451777935028076171875">
        <ele>789.4000244140625</ele>
        <time>2026-08-21T23:01:02.000Z</time>
        <extensions>
          <ns3:TrackPointExtension>
            <ns3:hr>136</ns3:hr>
            <ns3:cad>0</ns3:cad>
          </ns3:TrackPointExtension>
        </extensions>
      </trkpt>
      <trkpt lat="45.31242462806403636932373046875" lon="-71.06467028148472309112548828125">
        <ele>789.20001220703125</ele>
        <time>2026-08-21T23:01:03.000Z</time>
        <extensions>
          <ns3:TrackPointExtension>
            <ns3:hr>136</ns3:hr>
            <ns3:cad>0</ns3:cad>
          </ns3:TrackPointExtension>
        </extensions>
      </trkpt>
      <trkpt lat="45.31242169439792633056640625" lon="-71.064686961472034454345703125">
        <ele>789.20001220703125</ele>
        <time>2026-08-21T23:01:04.000Z</time>
        <extensions>
          <ns3:TrackPointExtension>
            <ns3:hr>136</ns3:hr>
            <ns3:cad>0</ns3:cad>
          </ns3:TrackPointExtension>
        </extensions>
      </trkpt>
      <trkpt lat="45.3124196827411651611328125" lon="-71.064706742763519287109375">
        <ele>789</ele>
        <time>2026-08-21T23:01:05.000Z</time>
        <extensions>
          <ns3:TrackPointExtension>
            <ns3:hr>136</ns3:hr>
            <ns3:cad>0</ns3:cad>
          </ns3:TrackPointExtension>
        </extensions>
      </trkpt>
      <trkpt lat="45.31242094002664089202880859375" lon="-71.0647223331034183502197265625">
        <ele>789</ele>
        <time>2026-08-21T23:01:06.000Z</time>
        <extensions>
          <ns3:TrackPointExtension>
            <ns3:hr>136</ns3:hr>
            <ns3:cad>0</ns3:cad>
          </ns3:TrackPointExtension>
        </extensions>
      </trkpt>
      <trkpt lat="45.31242278404533863067626953125" lon="-71.06473951600492000579833984375">
        <ele>788.79998779296875</ele>
        <time>2026-08-21T23:01:07.000Z</time>
        <extensions>
          <ns3:TrackPointExtension>
            <ns3:hr>135</ns3:hr>
            <ns3:cad>0</ns3:cad>
          </ns3:TrackPointExtension>
        </extensions>
      </trkpt>
      <trkpt lat="45.31242194585502147674560546875" lon="-71.0647498257458209991455078125">
        <ele>788.4000244140625</ele>
        <time>2026-08-21T23:01:08.000Z</time>
        <extensions>
          <ns3:TrackPointExtension>
            <ns3:hr>135</ns3:hr>
            <ns3:cad>0</ns3:cad>
          </ns3:TrackPointExtension>
        </extensions>
      </trkpt>
      <trkpt lat="45.312422029674053192138671875" lon="-71.064768098294734954833984375">
        <ele>788</ele>
        <time>2026-08-21T23:01:09.000Z</time>
        <extensions>
          <ns3:TrackPointExtension>
            <ns3:hr>135</ns3:hr>
            <ns3:cad>60</ns3:cad>
          </ns3:TrackPointExtension>
        </extensions>
      </trkpt>
      <trkpt lat="45.31242127530276775360107421875" lon="-71.0647850297391414642333984375">
        <ele>787.5999755859375</ele>
        <time>2026-08-21T23:01:10.000Z</time>
        <extensions>
          <ns3:TrackPointExtension>
            <ns3:hr>135</ns3:hr>
            <ns3:cad>60</ns3:cad>
          </ns3:TrackPointExtension>
        </extensions>
      </trkpt>
      <trkpt lat="45.31242094002664089202880859375" lon="-71.06480724178254604339599609375">
        <ele>787.20001220703125</ele>
        <time>2026-08-21T23:01:11.000Z</time>
        <extensions>
          <ns3:TrackPointExtension>
            <ns3:hr>134</ns3:hr>
            <ns3:cad>60</ns3:cad>
          </ns3:TrackPointExtension>
        </extensions>
      </trkpt>
      <trkpt lat="45.31242228113114833831787109375" lon="-71.06483641080558300018310546875">
        <ele>787</ele>
        <time>2026-08-21T23:01:12.000Z</time>
        <extensions>
          <ns3:TrackPointExtension>
            <ns3:hr>133</ns3:hr>
            <ns3:cad>0</ns3:cad>
          </ns3:TrackPointExtension>
        </extensions>
      </trkpt>
      <trkpt lat="45.31242479570209980010986328125" lon="-71.064861305058002471923828125">
        <ele>786.5999755859375</ele>
        <time>2026-08-21T23:01:13.000Z</time>
        <extensions>
          <ns3:TrackPointExtension>
            <ns3:hr>132</ns3:hr>
            <ns3:cad>0</ns3:cad>
          </ns3:TrackPointExtension>
        </extensions>
      </trkpt>
      <trkpt lat="45.31242680735886096954345703125" lon="-71.06489642523229122161865234375">
        <ele>786.4000244140625</ele>
        <time>2026-08-21T23:01:14.000Z</time>
        <extensions>
          <ns3:TrackPointExtension>
            <ns3:hr>131</ns3:hr>
            <ns3:cad>0</ns3:cad>
          </ns3:TrackPointExtension>
        </extensions>
      </trkpt>
      <trkpt lat="45.312431417405605316162109375" lon="-71.0649221576750278472900390625">
        <ele>786.20001220703125</ele>
        <time>2026-08-21T23:01:15.000Z</time>
        <extensions>
          <ns3:TrackPointExtension>
            <ns3:hr>130</ns3:hr>
            <ns3:cad>0</ns3:cad>
          </ns3:TrackPointExtension>
        </extensions>
      </trkpt>
      <trkpt lat="45.31243787147104740142822265625" lon="-71.06495392508804798126220703125">
        <ele>785.79998779296875</ele>
        <time>2026-08-21T23:01:16.000Z</time>
        <extensions>
          <ns3:TrackPointExtension>
            <ns3:hr>129</ns3:hr>
            <ns3:cad>0</ns3:cad>
          </ns3:TrackPointExtension>
        </extensions>
      </trkpt>
      <trkpt lat="45.31244507990777492523193359375" lon="-71.06498192064464092254638671875">
        <ele>785.4000244140625</ele>
        <time>2026-08-21T23:01:17.000Z</time>
        <extensions>
          <ns3:TrackPointExtension>
            <ns3:hr>129</ns3:hr>
            <ns3:cad>0</ns3:cad>
          </ns3:TrackPointExtension>
        </extensions>
      </trkpt>
      <trkpt lat="45.3124527074396610260009765625" lon="-71.06501561589539051055908203125">
        <ele>785</ele>
        <time>2026-08-21T23:01:18.000Z</time>
        <extensions>
          <ns3:TrackPointExtension>
            <ns3:hr>128</ns3:hr>
            <ns3:cad>0</ns3:cad>
          </ns3:TrackPointExtension>
        </extensions>
      </trkpt>
      <trkpt lat="45.312460251152515411376953125" lon="-71.0650408454239368438720703125">
        <ele>784.5999755859375</ele>
        <time>2026-08-21T23:01:19.000Z</time>
        <extensions>
          <ns3:TrackPointExtension>
            <ns3:hr>128</ns3:hr>
            <ns3:cad>0</ns3:cad>
          </ns3:TrackPointExtension>
        </extensions>
      </trkpt>
      <trkpt lat="45.31246603466570377349853515625" lon="-71.06506322510540485382080078125">
        <ele>784.4000244140625</ele>
        <time>2026-08-21T23:01:20.000Z</time>
        <extensions>
          <ns3:TrackPointExtension>
            <ns3:hr>129</ns3:hr>
            <ns3:cad>0</ns3:cad>
          </ns3:TrackPointExtension>
        </extensions>
      </trkpt>
      <trkpt lat="45.31246737577021121978759765625" lon="-71.06508401222527027130126953125">
        <ele>784.4000244140625</ele>
        <time>2026-08-21T23:01:21.000Z</time>
        <extensions>
          <ns3:TrackPointExtension>
            <ns3:hr>128</ns3:hr>
            <ns3:cad>78</ns3:cad>
          </ns3:TrackPointExtension>
        </extensions>
      </trkpt>
      <trkpt lat="45.31247240491211414337158203125" lon="-71.06511301361024379730224609375">
        <ele>784.20001220703125</ele>
        <time>2026-08-21T23:01:22.000Z</time>
        <extensions>
          <ns3:TrackPointExtension>
            <ns3:hr>128</ns3:hr>
            <ns3:cad>78</ns3:cad>
          </ns3:TrackPointExtension>
        </extensions>
      </trkpt>
      <trkpt lat="45.31247927807271480560302734375" lon="-71.06513497419655323028564453125">
        <ele>784.20001220703125</ele>
        <time>2026-08-21T23:01:23.000Z</time>
        <extensions>
          <ns3:TrackPointExtension>
            <ns3:hr>128</ns3:hr>
            <ns3:cad>78</ns3:cad>
          </ns3:TrackPointExtension>
        </extensions>
      </trkpt>
      <trkpt lat="45.312480367720127105712890625" lon="-71.06515458784997463226318359375">
        <ele>784.20001220703125</ele>
        <time>2026-08-21T23:01:24.000Z</time>
        <extensions>
          <ns3:TrackPointExtension>
            <ns3:hr>129</ns3:hr>
            <ns3:cad>78</ns3:cad>
          </ns3:TrackPointExtension>
        </extensions>
      </trkpt>
      <trkpt lat="45.31248380430042743682861328125" lon="-71.06517068110406398773193359375">
        <ele>784.20001220703125</ele>
        <time>2026-08-21T23:01:25.000Z</time>
        <extensions>
          <ns3:TrackPointExtension>
            <ns3:hr>129</ns3:hr>
            <ns3:cad>78</ns3:cad>
          </ns3:TrackPointExtension>
        </extensions>
      </trkpt>
      <trkpt lat="45.312487743794918060302734375" lon="-71.065184175968170166015625">
        <ele>784.20001220703125</ele>
        <time>2026-08-21T23:01:26.000Z</time>
        <extensions>
          <ns3:TrackPointExtension>
            <ns3:hr>129</ns3:hr>
            <ns3:cad>78</ns3:cad>
          </ns3:TrackPointExtension>
        </extensions>
      </trkpt>
      <trkpt lat="45.31249067746102809906005859375" lon="-71.06520789675414562225341796875">
        <ele>784.20001220703125</ele>
        <time>2026-08-21T23:01:27.000Z</time>
        <extensions>
          <ns3:TrackPointExtension>
            <ns3:hr>128</ns3:hr>
            <ns3:cad>60</ns3:cad>
          </ns3:TrackPointExtension>
        </extensions>
      </trkpt>
      <trkpt lat="45.3124915994703769683837890625" lon="-71.06522801332175731658935546875">
        <ele>784.4000244140625</ele>
        <time>2026-08-21T23:01:28.000Z</time>
        <extensions>
          <ns3:TrackPointExtension>
            <ns3:hr>128</ns3:hr>
            <ns3:cad>60</ns3:cad>
          </ns3:TrackPointExtension>
        </extensions>
      </trkpt>
      <trkpt lat="45.31248874962329864501953125" lon="-71.06525282375514507293701171875">
        <ele>784.4000244140625</ele>
        <time>2026-08-21T23:01:29.000Z</time>
        <extensions>
          <ns3:TrackPointExtension>
            <ns3:hr>128</ns3:hr>
            <ns3:cad>0</ns3:cad>
          </ns3:TrackPointExtension>
        </extensions>
      </trkpt>
      <trkpt lat="45.31248866580426692962646484375" lon="-71.06526958756148815155029296875">
        <ele>784.4000244140625</ele>
        <time>2026-08-21T23:01:30.000Z</time>
        <extensions>
          <ns3:TrackPointExtension>
            <ns3:hr>128</ns3:hr>
            <ns3:cad>0</ns3:cad>
          </ns3:TrackPointExtension>
        </extensions>
      </trkpt>
      <trkpt lat="45.312489755451679229736328125" lon="-71.06529389508068561553955078125">
        <ele>784.4000244140625</ele>
        <time>2026-08-21T23:01:31.000Z</time>
        <extensions>
          <ns3:TrackPointExtension>
            <ns3:hr>127</ns3:hr>
            <ns3:cad>0</ns3:cad>
          </ns3:TrackPointExtension>
        </extensions>
      </trkpt>
      <trkpt lat="45.3124875761568546295166015625" lon="-71.065321303904056549072265625">
        <ele>784.4000244140625</ele>
        <time>2026-08-21T23:01:32.000Z</time>
        <extensions>
          <ns3:TrackPointExtension>
            <ns3:hr>127</ns3:hr>
            <ns3:cad>0</ns3:cad>
          </ns3:TrackPointExtension>
        </extensions>
      </trkpt>
      <trkpt lat="45.31248833052814006805419921875" lon="-71.0653409175574779510498046875">
        <ele>784.5999755859375</ele>
        <time>2026-08-21T23:01:33.000Z</time>
        <extensions>
          <ns3:TrackPointExtension>
            <ns3:hr>127</ns3:hr>
            <ns3:cad>0</ns3:cad>
          </ns3:TrackPointExtension>
        </extensions>
      </trkpt>
      <trkpt lat="45.31249168328940868377685546875" lon="-71.06537503190338611602783203125">
        <ele>784.4000244140625</ele>
        <time>2026-08-21T23:01:34.000Z</time>
        <extensions>
          <ns3:TrackPointExtension>
            <ns3:hr>126</ns3:hr>
            <ns3:cad>0</ns3:cad>
          </ns3:TrackPointExtension>
        </extensions>
      </trkpt>
      <trkpt lat="45.31249436549842357635498046875" lon="-71.06540436856448650360107421875">
        <ele>784.5999755859375</ele>
        <time>2026-08-21T23:01:35.000Z</time>
        <extensions>
          <ns3:TrackPointExtension>
            <ns3:hr>126</ns3:hr>
            <ns3:cad>0</ns3:cad>
          </ns3:TrackPointExtension>
        </extensions>
      </trkpt>
      <trkpt lat="45.31249872408807277679443359375" lon="-71.06542222201824188232421875">
        <ele>784.79998779296875</ele>
        <time>2026-08-21T23:01:36.000Z</time>
        <extensions>
          <ns3:TrackPointExtension>
            <ns3:hr>126</ns3:hr>
            <ns3:cad>71</ns3:cad>
          </ns3:TrackPointExtension>
        </extensions>
      </trkpt>
      <trkpt lat="45.3124989755451679229736328125" lon="-71.0654508881270885467529296875">
        <ele>784.79998779296875</ele>
        <time>2026-08-21T23:01:37.000Z</time>
        <extensions>
          <ns3:TrackPointExtension>
            <ns3:hr>126</ns3:hr>
            <ns3:cad>71</ns3:cad>
          </ns3:TrackPointExtension>
        </extensions>
      </trkpt>
      <trkpt lat="45.31250509433448314666748046875" lon="-71.0654698312282562255859375">
        <ele>785</ele>
        <time>2026-08-21T23:01:38.000Z</time>
        <extensions>
          <ns3:TrackPointExtension>
            <ns3:hr>126</ns3:hr>
            <ns3:cad>71</ns3:cad>
          </ns3:TrackPointExtension>
        </extensions>
      </trkpt>
      <trkpt lat="45.312507860362529754638671875" lon="-71.06548734940588474273681640625">
        <ele>785.20001220703125</ele>
        <time>2026-08-21T23:01:39.000Z</time>
        <extensions>
          <ns3:TrackPointExtension>
            <ns3:hr>126</ns3:hr>
            <ns3:cad>71</ns3:cad>
          </ns3:TrackPointExtension>
        </extensions>
      </trkpt>
      <trkpt lat="45.31251288950443267822265625" lon="-71.0655020177364349365234375">
        <ele>785.4000244140625</ele>
        <time>2026-08-21T23:01:40.000Z</time>
        <extensions>
          <ns3:TrackPointExtension>
            <ns3:hr>126</ns3:hr>
            <ns3:cad>71</ns3:cad>
          </ns3:TrackPointExtension>
        </extensions>
      </trkpt>
      <trkpt lat="45.3125187568366527557373046875" lon="-71.06551551260054111480712890625">
        <ele>785.79998779296875</ele>
        <time>2026-08-21T23:01:41.000Z</time>
        <extensions>
          <ns3:TrackPointExtension>
            <ns3:hr>126</ns3:hr>
            <ns3:cad>0</ns3:cad>
          </ns3:TrackPointExtension>
        </extensions>
      </trkpt>
      <trkpt lat="45.31251959502696990966796875" lon="-71.0655333660542964935302734375">
        <ele>785.79998779296875</ele>
        <time>2026-08-21T23:01:42.000Z</time>
        <extensions>
          <ns3:TrackPointExtension>
            <ns3:hr>127</ns3:hr>
            <ns3:cad>0</ns3:cad>
          </ns3:TrackPointExtension>
        </extensions>
      </trkpt>
      <trkpt lat="45.31251423060894012451171875" lon="-71.06554920785129070281982421875">
        <ele>786</ele>
        <time>2026-08-21T23:01:43.000Z</time>
        <extensions>
          <ns3:TrackPointExtension>
            <ns3:hr>127</ns3:hr>
            <ns3:cad>0</ns3:cad>
          </ns3:TrackPointExtension>
        </extensions>
      </trkpt>
      <trkpt lat="45.31250962056219577789306640625" lon="-71.06556613929569721221923828125">
        <ele>786.20001220703125</ele>
        <time>2026-08-21T23:01:44.000Z</time>
        <extensions>
          <ns3:TrackPointExtension>
            <ns3:hr>127</ns3:hr>
            <ns3:cad>0</ns3:cad>
          </ns3:TrackPointExtension>
        </extensions>
      </trkpt>
      <trkpt lat="45.31250526197254657745361328125" lon="-71.065570414066314697265625">
        <ele>786.20001220703125</ele>
        <time>2026-08-21T23:01:45.000Z</time>
        <extensions>
          <ns3:TrackPointExtension>
            <ns3:hr>126</ns3:hr>
            <ns3:cad>0</ns3:cad>
          </ns3:TrackPointExtension>
        </extensions>
      </trkpt>
      <trkpt lat="45.3124983049929141998291015625" lon="-71.06558022089302539825439453125">
        <ele>786.20001220703125</ele>
        <time>2026-08-21T23:01:46.000Z</time>
        <extensions>
          <ns3:TrackPointExtension>
            <ns3:hr>126</ns3:hr>
            <ns3:cad>0</ns3:cad>
          </ns3:TrackPointExtension>
        </extensions>
      </trkpt>
      <trkpt lat="45.31248598359525203704833984375" lon="-71.06558692641556262969970703125">
        <ele>786.20001220703125</ele>
        <time>2026-08-21T23:01:47.000Z</time>
        <extensions>
          <ns3:TrackPointExtension>
            <ns3:hr>126</ns3:hr>
            <ns3:cad>0</ns3:cad>
          </ns3:TrackPointExtension>
        </extensions>
      </trkpt>
      <trkpt lat="45.31246955506503582000732421875" lon="-71.06559782288968563079833984375">
        <ele>785.79998779296875</ele>
        <time>2026-08-21T23:01:48.000Z</time>
        <extensions>
          <ns3:TrackPointExtension>
            <ns3:hr>125</ns3:hr>
            <ns3:cad>0</ns3:cad>
          </ns3:TrackPointExtension>
        </extensions>
      </trkpt>
      <trkpt lat="45.31245513819158077239990234375" lon="-71.06561073102056980133056640625">
        <ele>785.5999755859375</ele>
        <time>2026-08-21T23:01:49.000Z</time>
        <extensions>
          <ns3:TrackPointExtension>
            <ns3:hr>125</ns3:hr>
            <ns3:cad>0</ns3:cad>
          </ns3:TrackPointExtension>
        </extensions>
      </trkpt>
      <trkpt lat="45.3124443255364894866943359375" lon="-71.06561324559152126312255859375">
        <ele>785.4000244140625</ele>
        <time>2026-08-21T23:01:50.000Z</time>
        <extensions>
          <ns3:TrackPointExtension>
            <ns3:hr>125</ns3:hr>
            <ns3:cad>0</ns3:cad>
          </ns3:TrackPointExtension>
        </extensions>
      </trkpt>
      <trkpt lat="45.3124277293682098388671875" lon="-71.06562632136046886444091796875">
        <ele>785.20001220703125</ele>
        <time>2026-08-21T23:01:51.000Z</time>
        <extensions>
          <ns3:TrackPointExtension>
            <ns3:hr>125</ns3:hr>
            <ns3:cad>0</ns3:cad>
          </ns3:TrackPointExtension>
        </extensions>
      </trkpt>
      <trkpt lat="45.312413312494754791259765625" lon="-71.06563738547265529632568359375">
        <ele>785</ele>
        <time>2026-08-21T23:01:52.000Z</time>
        <extensions>
          <ns3:TrackPointExtension>
            <ns3:hr>126</ns3:hr>
            <ns3:cad>0</ns3:cad>
          </ns3:TrackPointExtension>
        </extensions>
      </trkpt>
      <trkpt lat="45.31239680014550685882568359375" lon="-71.0656436719000339508056640625">
        <ele>785</ele>
        <time>2026-08-21T23:01:53.000Z</time>
        <extensions>
          <ns3:TrackPointExtension>
            <ns3:hr>127</ns3:hr>
            <ns3:cad>69</ns3:cad>
          </ns3:TrackPointExtension>
        </extensions>
      </trkpt>
      <trkpt lat="45.312380455434322357177734375" lon="-71.06565465219318866729736328125">
        <ele>785</ele>
        <time>2026-08-21T23:01:54.000Z</time>
        <extensions>
          <ns3:TrackPointExtension>
            <ns3:hr>127</ns3:hr>
            <ns3:cad>69</ns3:cad>
          </ns3:TrackPointExtension>
        </extensions>
      </trkpt>
      <trkpt lat="45.31236545182764530181884765625" lon="-71.06566320173442363739013671875">
        <ele>784.79998779296875</ele>
        <time>2026-08-21T23:01:55.000Z</time>
        <extensions>
          <ns3:TrackPointExtension>
            <ns3:hr>128</ns3:hr>
            <ns3:cad>70</ns3:cad>
          </ns3:TrackPointExtension>
        </extensions>
      </trkpt>
      <trkpt lat="45.3123474307358264923095703125" lon="-71.0656688176095485687255859375">
        <ele>784.4000244140625</ele>
        <time>2026-08-21T23:01:56.000Z</time>
        <extensions>
          <ns3:TrackPointExtension>
            <ns3:hr>129</ns3:hr>
            <ns3:cad>70</ns3:cad>
          </ns3:TrackPointExtension>
        </extensions>
      </trkpt>
      <trkpt lat="45.3123296611011028289794921875" lon="-71.06567828916013240814208984375">
        <ele>784.20001220703125</ele>
        <time>2026-08-21T23:01:57.000Z</time>
        <extensions>
          <ns3:TrackPointExtension>
            <ns3:hr>130</ns3:hr>
            <ns3:cad>70</ns3:cad>
          </ns3:TrackPointExtension>
        </extensions>
      </trkpt>
      <trkpt lat="45.31231029890477657318115234375" lon="-71.06569086201488971710205078125">
        <ele>784</ele>
        <time>2026-08-21T23:01:58.000Z</time>
        <extensions>
          <ns3:TrackPointExtension>
            <ns3:hr>130</ns3:hr>
            <ns3:cad>69</ns3:cad>
          </ns3:TrackPointExtension>
        </extensions>
      </trkpt>
      <trkpt lat="45.312294624745845794677734375" lon="-71.0656986571848392486572265625">
        <ele>783.79998779296875</ele>
        <time>2026-08-21T23:01:59.000Z</time>
        <extensions>
          <ns3:TrackPointExtension>
            <ns3:hr>130</ns3:hr>
            <ns3:cad>69</ns3:cad>
          </ns3:TrackPointExtension>
        </extensions>
      </trkpt>
      <trkpt lat="45.31227794475853443145751953125" lon="-71.06570544652640819549560546875">
        <ele>783.79998779296875</ele>
        <time>2026-08-21T23:02:00.000Z</time>
        <extensions>
          <ns3:TrackPointExtension>
            <ns3:hr>131</ns3:hr>
            <ns3:cad>69</ns3:cad>
          </ns3:TrackPointExtension>
        </extensions>
      </trkpt>
      <trkpt lat="45.31226252205669879913330078125" lon="-71.0657112300395965576171875">
        <ele>783.5999755859375</ele>
        <time>2026-08-21T23:02:01.000Z</time>
        <extensions>
          <ns3:TrackPointExtension>
            <ns3:hr>130</ns3:hr>
            <ns3:cad>69</ns3:cad>
          </ns3:TrackPointExtension>
        </extensions>
      </trkpt>
      <trkpt lat="45.31224508769810199737548828125" lon="-71.0657234676182270050048828125">
        <ele>783.5999755859375</ele>
        <time>2026-08-21T23:02:02.000Z</time>
        <extensions>
          <ns3:TrackPointExtension>
            <ns3:hr>130</ns3:hr>
            <ns3:cad>72</ns3:cad>
          </ns3:TrackPointExtension>
        </extensions>
      </trkpt>
      <trkpt lat="45.31222765333950519561767578125" lon="-71.0657352022826671600341796875">
        <ele>783.4000244140625</ele>
        <time>2026-08-21T23:02:03.000Z</time>
        <extensions>
          <ns3:TrackPointExtension>
            <ns3:hr>130</ns3:hr>
            <ns3:cad>72</ns3:cad>
          </ns3:TrackPointExtension>
        </extensions>
      </trkpt>
      <trkpt lat="45.31220988370478153228759765625" lon="-71.06575171463191509246826171875">
        <ele>783.4000244140625</ele>
        <time>2026-08-21T23:02:04.000Z</time>
        <extensions>
          <ns3:TrackPointExtension>
            <ns3:hr>130</ns3:hr>
            <ns3:cad>72</ns3:cad>
          </ns3:TrackPointExtension>
        </extensions>
      </trkpt>
      <trkpt lat="45.31219814904034137725830078125" lon="-71.0657710768282413482666015625">
        <ele>783.4000244140625</ele>
        <time>2026-08-21T23:02:05.000Z</time>
        <extensions>
          <ns3:TrackPointExtension>
            <ns3:hr>130</ns3:hr>
            <ns3:cad>72</ns3:cad>
          </ns3:TrackPointExtension>
        </extensions>
      </trkpt>
      <trkpt lat="45.31218222342431545257568359375" lon="-71.06579102575778961181640625">
        <ele>783.4000244140625</ele>
        <time>2026-08-21T23:02:06.000Z</time>
        <extensions>
          <ns3:TrackPointExtension>
            <ns3:hr>130</ns3:hr>
            <ns3:cad>72</ns3:cad>
          </ns3:TrackPointExtension>
        </extensions>
      </trkpt>
      <trkpt lat="45.31217032112181186676025390625" lon="-71.06580301187932491302490234375">
        <ele>783.4000244140625</ele>
        <time>2026-08-21T23:02:07.000Z</time>
        <extensions>
          <ns3:TrackPointExtension>
            <ns3:hr>130</ns3:hr>
            <ns3:cad>73</ns3:cad>
          </ns3:TrackPointExtension>
        </extensions>
      </trkpt>
      <trkpt lat="45.312159173190593719482421875" lon="-71.065817177295684814453125">
        <ele>783.5999755859375</ele>
        <time>2026-08-21T23:02:08.000Z</time>
        <extensions>
          <ns3:TrackPointExtension>
            <ns3:hr>130</ns3:hr>
            <ns3:cad>73</ns3:cad>
          </ns3:TrackPointExtension>
        </extensions>
      </trkpt>
      <trkpt lat="45.3121466003358364105224609375" lon="-71.06583536602556705474853515625">
        <ele>783.79998779296875</ele>
        <time>2026-08-21T23:02:09.000Z</time>
        <extensions>
          <ns3:TrackPointExtension>
            <ns3:hr>130</ns3:hr>
            <ns3:cad>73</ns3:cad>
          </ns3:TrackPointExtension>
        </extensions>
      </trkpt>
      <trkpt lat="45.31213612295687198638916015625" lon="-71.0658507049083709716796875">
        <ele>784</ele>
        <time>2026-08-21T23:02:10.000Z</time>
        <extensions>
          <ns3:TrackPointExtension>
            <ns3:hr>130</ns3:hr>
            <ns3:cad>73</ns3:cad>
          </ns3:TrackPointExtension>
        </extensions>
      </trkpt>
      <trkpt lat="45.31212975271046161651611328125" lon="-71.06586252339184284210205078125">
        <ele>784.20001220703125</ele>
        <time>2026-08-21T23:02:11.000Z</time>
        <extensions>
          <ns3:TrackPointExtension>
            <ns3:hr>130</ns3:hr>
            <ns3:cad>73</ns3:cad>
          </ns3:TrackPointExtension>
        </extensions>
      </trkpt>
      <trkpt lat="45.31212036497890949249267578125" lon="-71.06587727554142475128173828125">
        <ele>784.4000244140625</ele>
        <time>2026-08-21T23:02:12.000Z</time>
        <extensions>
          <ns3:TrackPointExtension>
            <ns3:hr>130</ns3:hr>
            <ns3:cad>73</ns3:cad>
          </ns3:TrackPointExtension>
        </extensions>
      </trkpt>
      <trkpt lat="45.31210980378091335296630859375" lon="-71.0658860765397548675537109375">
        <ele>784.5999755859375</ele>
        <time>2026-08-21T23:02:13.000Z</time>
        <extensions>
          <ns3:TrackPointExtension>
            <ns3:hr>131</ns3:hr>
            <ns3:cad>73</ns3:cad>
          </ns3:TrackPointExtension>
        </extensions>
      </trkpt>
      <trkpt lat="45.312099494040012359619140625" lon="-71.06588901020586490631103515625">
        <ele>784.5999755859375</ele>
        <time>2026-08-21T23:02:14.000Z</time>
        <extensions>
          <ns3:TrackPointExtension>
            <ns3:hr>131</ns3:hr>
            <ns3:cad>83</ns3:cad>
          </ns3:TrackPointExtension>
        </extensions>
      </trkpt>
      <trkpt lat="45.31208449043333530426025390625" lon="-71.06589839793741703033447265625">
        <ele>784.5999755859375</ele>
        <time>2026-08-21T23:02:15.000Z</time>
        <extensions>
          <ns3:TrackPointExtension>
            <ns3:hr>131</ns3:hr>
            <ns3:cad>83</ns3:cad>
          </ns3:TrackPointExtension>
        </extensions>
      </trkpt>
      <trkpt lat="45.31206722371280193328857421875" lon="-71.06590292416512966156005859375">
        <ele>784.4000244140625</ele>
        <time>2026-08-21T23:02:16.000Z</time>
        <extensions>
          <ns3:TrackPointExtension>
            <ns3:hr>130</ns3:hr>
            <ns3:cad>83</ns3:cad>
          </ns3:TrackPointExtension>
        </extensions>
      </trkpt>
      <trkpt lat="45.31205825507640838623046875" lon="-71.065899319946765899658203125">
        <ele>784.4000244140625</ele>
        <time>2026-08-21T23:02:17.000Z</time>
        <extensions>
          <ns3:TrackPointExtension>
            <ns3:hr>130</ns3:hr>
            <ns3:cad>60</ns3:cad>
          </ns3:TrackPointExtension>
        </extensions>
      </trkpt>
      <trkpt lat="45.31204995699226856231689453125" lon="-71.06589253060519695281982421875">
        <ele>784.4000244140625</ele>
        <time>2026-08-21T23:02:18.000Z</time>
        <extensions>
          <ns3:TrackPointExtension>
            <ns3:hr>129</ns3:hr>
            <ns3:cad>60</ns3:cad>
          </ns3:TrackPointExtension>
        </extensions>
      </trkpt>
      <trkpt lat="45.3120369650423526763916015625" lon="-71.0658827237784862518310546875">
        <ele>784.20001220703125</ele>
        <time>2026-08-21T23:02:19.000Z</time>
        <extensions>
          <ns3:TrackPointExtension>
            <ns3:hr>128</ns3:hr>
            <ns3:cad>60</ns3:cad>
          </ns3:TrackPointExtension>
        </extensions>
      </trkpt>
      <trkpt lat="45.31202766112983226776123046875" lon="-71.0658760182559490203857421875">
        <ele>784</ele>
        <time>2026-08-21T23:02:20.000Z</time>
        <extensions>
          <ns3:TrackPointExtension>
            <ns3:hr>127</ns3:hr>
            <ns3:cad>60</ns3:cad>
          </ns3:TrackPointExtension>
        </extensions>
      </trkpt>
      <trkpt lat="45.31202414073050022125244140625" lon="-71.0658686421811580657958984375">
        <ele>783.79998779296875</ele>
        <time>2026-08-21T23:02:21.000Z</time>
        <extensions>
          <ns3:TrackPointExtension>
            <ns3:hr>126</ns3:hr>
            <ns3:cad>60</ns3:cad>
          </ns3:TrackPointExtension>
        </extensions>
      </trkpt>
      <trkpt lat="45.3120131604373455047607421875" lon="-71.0658592544496059417724609375">
        <ele>783.79998779296875</ele>
        <time>2026-08-21T23:02:22.000Z</time>
        <extensions>
          <ns3:TrackPointExtension>
            <ns3:hr>126</ns3:hr>
            <ns3:cad>60</ns3:cad>
          </ns3:TrackPointExtension>
        </extensions>
      </trkpt>
      <trkpt lat="45.31200536526739597320556640625" lon="-71.06584592722356319427490234375">
        <ele>783.5999755859375</ele>
        <time>2026-08-21T23:02:23.000Z</time>
        <extensions>
          <ns3:TrackPointExtension>
            <ns3:hr>126</ns3:hr>
            <ns3:cad>60</ns3:cad>
          </ns3:TrackPointExtension>
        </extensions>
      </trkpt>
      <trkpt lat="45.31199849210679531097412109375" lon="-71.0658307559788227081298828125">
        <ele>783.5999755859375</ele>
        <time>2026-08-21T23:02:24.000Z</time>
        <extensions>
          <ns3:TrackPointExtension>
            <ns3:hr>126</ns3:hr>
            <ns3:cad>60</ns3:cad>
          </ns3:TrackPointExtension>
        </extensions>
      </trkpt>
      <trkpt lat="45.311991535127162933349609375" lon="-71.06581072323024272918701171875">
        <ele>783.5999755859375</ele>
        <time>2026-08-21T23:02:25.000Z</time>
        <extensions>
          <ns3:TrackPointExtension>
            <ns3:hr>126</ns3:hr>
            <ns3:cad>70</ns3:cad>
          </ns3:TrackPointExtension>
        </extensions>
      </trkpt>
      <trkpt lat="45.31198390759527683258056640625" lon="-71.06579261831939220428466796875">
        <ele>783.5999755859375</ele>
        <time>2026-08-21T23:02:26.000Z</time>
        <extensions>
          <ns3:TrackPointExtension>
            <ns3:hr>125</ns3:hr>
            <ns3:cad>70</ns3:cad>
          </ns3:TrackPointExtension>
        </extensions>
      </trkpt>
      <trkpt lat="45.31197267584502696990966796875" lon="-71.06577065773308277130126953125">
        <ele>783.4000244140625</ele>
        <time>2026-08-21T23:02:27.000Z</time>
        <extensions>
          <ns3:TrackPointExtension>
            <ns3:hr>125</ns3:hr>
            <ns3:cad>70</ns3:cad>
          </ns3:TrackPointExtension>
        </extensions>
      </trkpt>
      <trkpt lat="45.31196278519928455352783203125" lon="-71.06574920006096363067626953125">
        <ele>783.4000244140625</ele>
        <time>2026-08-21T23:02:28.000Z</time>
        <extensions>
          <ns3:TrackPointExtension>
            <ns3:hr>125</ns3:hr>
            <ns3:cad>70</ns3:cad>
          </ns3:TrackPointExtension>
        </extensions>
      </trkpt>
      <trkpt lat="45.3119581751525402069091796875" lon="-71.065733022987842559814453125">
        <ele>783.5999755859375</ele>
        <time>2026-08-21T23:02:29.000Z</time>
        <extensions>
          <ns3:TrackPointExtension>
            <ns3:hr>124</ns3:hr>
            <ns3:cad>70</ns3:cad>
          </ns3:TrackPointExtension>
        </extensions>
      </trkpt>
      <trkpt lat="45.3119529783725738525390625" lon="-71.0657030157744884490966796875">
        <ele>783.5999755859375</ele>
        <time>2026-08-21T23:02:30.000Z</time>
        <extensions>
          <ns3:TrackPointExtension>
            <ns3:hr>124</ns3:hr>
            <ns3:cad>70</ns3:cad>
          </ns3:TrackPointExtension>
        </extensions>
      </trkpt>
      <trkpt lat="45.31194786541163921356201171875" lon="-71.06568365357816219329833984375">
        <ele>783.5999755859375</ele>
        <time>2026-08-21T23:02:31.000Z</time>
        <extensions>
          <ns3:TrackPointExtension>
            <ns3:hr>123</ns3:hr>
            <ns3:cad>70</ns3:cad>
          </ns3:TrackPointExtension>
        </extensions>
      </trkpt>
      <trkpt lat="45.3119407407939434051513671875" lon="-71.06566387228667736053466796875">
        <ele>783.79998779296875</ele>
        <time>2026-08-21T23:02:32.000Z</time>
        <extensions>
          <ns3:TrackPointExtension>
            <ns3:hr>122</ns3:hr>
            <ns3:cad>70</ns3:cad>
          </ns3:TrackPointExtension>
        </extensions>
      </trkpt>
      <trkpt lat="45.3119434230029582977294921875" lon="-71.06564752757549285888671875">
        <ele>783.5999755859375</ele>
        <time>2026-08-21T23:02:33.000Z</time>
        <extensions>
          <ns3:TrackPointExtension>
            <ns3:hr>122</ns3:hr>
            <ns3:cad>70</ns3:cad>
          </ns3:TrackPointExtension>
        </extensions>
      </trkpt>
      <trkpt lat="45.3119430877268314361572265625" lon="-71.0656307637691497802734375">
        <ele>783.5999755859375</ele>
        <time>2026-08-21T23:02:34.000Z</time>
        <extensions>
          <ns3:TrackPointExtension>
            <ns3:hr>122</ns3:hr>
            <ns3:cad>70</ns3:cad>
          </ns3:TrackPointExtension>
        </extensions>
      </trkpt>
      <trkpt lat="45.31193780712783336639404296875" lon="-71.065609641373157501220703125">
        <ele>783.4000244140625</ele>
        <time>2026-08-21T23:02:35.000Z</time>
        <extensions>
          <ns3:TrackPointExtension>
            <ns3:hr>123</ns3:hr>
            <ns3:cad>70</ns3:cad>
          </ns3:TrackPointExtension>
        </extensions>
      </trkpt>
      <trkpt lat="45.311932861804962158203125" lon="-71.06558826752007007598876953125">
        <ele>783.4000244140625</ele>
        <time>2026-08-21T23:02:36.000Z</time>
        <extensions>
          <ns3:TrackPointExtension>
            <ns3:hr>123</ns3:hr>
            <ns3:cad>70</ns3:cad>
          </ns3:TrackPointExtension>
        </extensions>
      </trkpt>
      <trkpt lat="45.31192288734018802642822265625" lon="-71.06556798331439495086669921875">
        <ele>783.20001220703125</ele>
        <time>2026-08-21T23:02:37.000Z</time>
        <extensions>
          <ns3:TrackPointExtension>
            <ns3:hr>123</ns3:hr>
            <ns3:cad>70</ns3:cad>
          </ns3:TrackPointExtension>
        </extensions>
      </trkpt>
      <trkpt lat="45.31191207468509674072265625" lon="-71.0655518062412738800048828125">
        <ele>783</ele>
        <time>2026-08-21T23:02:38.000Z</time>
        <extensions>
          <ns3:TrackPointExtension>
            <ns3:hr>122</ns3:hr>
            <ns3:cad>70</ns3:cad>
          </ns3:TrackPointExtension>
        </extensions>
      </trkpt>
      <trkpt lat="45.31190427951514720916748046875" lon="-71.0655383951961994171142578125">
        <ele>782.79998779296875</ele>
        <time>2026-08-21T23:02:39.000Z</time>
        <extensions>
          <ns3:TrackPointExtension>
            <ns3:hr>122</ns3:hr>
            <ns3:cad>70</ns3:cad>
          </ns3:TrackPointExtension>
        </extensions>
      </trkpt>
      <trkpt lat="45.3118978254497051239013671875" lon="-71.06553076766431331634521484375">
        <ele>782.5999755859375</ele>
        <time>2026-08-21T23:02:40.000Z</time>
        <extensions>
          <ns3:TrackPointExtension>
            <ns3:hr>122</ns3:hr>
            <ns3:cad>70</ns3:cad>
          </ns3:TrackPointExtension>
        </extensions>
      </trkpt>
      <trkpt lat="45.311885587871074676513671875" lon="-71.06551475822925567626953125">
        <ele>782.4000244140625</ele>
        <time>2026-08-21T23:02:41.000Z</time>
        <extensions>
          <ns3:TrackPointExtension>
            <ns3:hr>122</ns3:hr>
            <ns3:cad>68</ns3:cad>
          </ns3:TrackPointExtension>
        </extensions>
      </trkpt>
      <trkpt lat="45.31187477521598339080810546875" lon="-71.06550134718418121337890625">
        <ele>782.20001220703125</ele>
        <time>2026-08-21T23:02:42.000Z</time>
        <extensions>
          <ns3:TrackPointExtension>
            <ns3:hr>121</ns3:hr>
            <ns3:cad>68</ns3:cad>
          </ns3:TrackPointExtension>
        </extensions>
      </trkpt>
      <trkpt lat="45.31186723150312900543212890625" lon="-71.06548366136848926544189453125">
        <ele>782</ele>
        <time>2026-08-21T23:02:43.000Z</time>
        <extensions>
          <ns3:TrackPointExtension>
            <ns3:hr>121</ns3:hr>
            <ns3:cad>64</ns3:cad>
          </ns3:TrackPointExtension>
        </extensions>
      </trkpt>
      <trkpt lat="45.311858765780925750732421875" lon="-71.06546035967767238616943359375">
        <ele>781.5999755859375</ele>
        <time>2026-08-21T23:02:44.000Z</time>
        <extensions>
          <ns3:TrackPointExtension>
            <ns3:hr>121</ns3:hr>
            <ns3:cad>64</ns3:cad>
          </ns3:TrackPointExtension>
        </extensions>
      </trkpt>
      <trkpt lat="45.311849378049373626708984375" lon="-71.065442003309726715087890625">
        <ele>781.4000244140625</ele>
        <time>2026-08-21T23:02:45.000Z</time>
        <extensions>
          <ns3:TrackPointExtension>
            <ns3:hr>120</ns3:hr>
            <ns3:cad>64</ns3:cad>
          </ns3:TrackPointExtension>
        </extensions>
      </trkpt>
      <trkpt lat="45.31183973886072635650634765625" lon="-71.06542834080755710601806640625">
        <ele>781.20001220703125</ele>
        <time>2026-08-21T23:02:46.000Z</time>
        <extensions>
          <ns3:TrackPointExtension>
            <ns3:hr>120</ns3:hr>
            <ns3:cad>68</ns3:cad>
          </ns3:TrackPointExtension>
        </extensions>
      </trkpt>
      <trkpt lat="45.31182984821498394012451171875" lon="-71.0654042847454547882080078125">
        <ele>781</ele>
        <time>2026-08-21T23:02:47.000Z</time>
        <extensions>
          <ns3:TrackPointExtension>
            <ns3:hr>120</ns3:hr>
            <ns3:cad>68</ns3:cad>
          </ns3:TrackPointExtension>
        </extensions>
      </trkpt>
      <trkpt lat="45.31182163394987583160400390625" lon="-71.065388023853302001953125">
        <ele>780.79998779296875</ele>
        <time>2026-08-21T23:02:48.000Z</time>
        <extensions>
          <ns3:TrackPointExtension>
            <ns3:hr>120</ns3:hr>
            <ns3:cad>68</ns3:cad>
          </ns3:TrackPointExtension>
        </extensions>
      </trkpt>
      <trkpt lat="45.31180880963802337646484375" lon="-71.065376289188861846923828125">
        <ele>780.5999755859375</ele>
        <time>2026-08-21T23:02:49.000Z</time>
        <extensions>
          <ns3:TrackPointExtension>
            <ns3:hr>121</ns3:hr>
            <ns3:cad>68</ns3:cad>
          </ns3:TrackPointExtension>
        </extensions>
      </trkpt>
      <trkpt lat="45.31179732643067836761474609375" lon="-71.06536665000021457672119140625">
        <ele>780.4000244140625</ele>
        <time>2026-08-21T23:02:50.000Z</time>
        <extensions>
          <ns3:TrackPointExtension>
            <ns3:hr>122</ns3:hr>
            <ns3:cad>68</ns3:cad>
          </ns3:TrackPointExtension>
        </extensions>
      </trkpt>
      <trkpt lat="45.31178324483335018157958984375" lon="-71.06535742990672588348388671875">
        <ele>780</ele>
        <time>2026-08-21T23:02:51.000Z</time>
        <extensions>
          <ns3:TrackPointExtension>
            <ns3:hr>124</ns3:hr>
            <ns3:cad>71</ns3:cad>
          </ns3:TrackPointExtension>
        </extensions>
      </trkpt>
      <trkpt lat="45.31177151016891002655029296875" lon="-71.06535189785063266754150390625">
        <ele>779.79998779296875</ele>
        <time>2026-08-21T23:02:52.000Z</time>
        <extensions>
          <ns3:TrackPointExtension>
            <ns3:hr>126</ns3:hr>
            <ns3:cad>71</ns3:cad>
          </ns3:TrackPointExtension>
        </extensions>
      </trkpt>
      <trkpt lat="45.311760865151882171630859375" lon="-71.06534519232809543609619140625">
        <ele>779.20001220703125</ele>
        <time>2026-08-21T23:02:53.000Z</time>
        <extensions>
          <ns3:TrackPointExtension>
            <ns3:hr>128</ns3:hr>
            <ns3:cad>71</ns3:cad>
          </ns3:TrackPointExtension>
        </extensions>
      </trkpt>
      <trkpt lat="45.31175357289612293243408203125" lon="-71.06531820259988307952880859375">
        <ele>778.79998779296875</ele>
        <time>2026-08-21T23:02:54.000Z</time>
        <extensions>
          <ns3:TrackPointExtension>
            <ns3:hr>128</ns3:hr>
            <ns3:cad>71</ns3:cad>
          </ns3:TrackPointExtension>
        </extensions>
      </trkpt>
      <trkpt lat="45.31173965893685817718505859375" lon="-71.0652939788997173309326171875">
        <ele>778.5999755859375</ele>
        <time>2026-08-21T23:02:55.000Z</time>
        <extensions>
          <ns3:TrackPointExtension>
            <ns3:hr>128</ns3:hr>
            <ns3:cad>71</ns3:cad>
          </ns3:TrackPointExtension>
        </extensions>
      </trkpt>
      <trkpt lat="45.31172893010079860687255859375" lon="-71.06527796946465969085693359375">
        <ele>778.4000244140625</ele>
        <time>2026-08-21T23:02:56.000Z</time>
        <extensions>
          <ns3:TrackPointExtension>
            <ns3:hr>129</ns3:hr>
            <ns3:cad>71</ns3:cad>
          </ns3:TrackPointExtension>
        </extensions>
      </trkpt>
      <trkpt lat="45.31171535141766071319580078125" lon="-71.06526388786733150482177734375">
        <ele>778.5999755859375</ele>
        <time>2026-08-21T23:02:57.000Z</time>
        <extensions>
          <ns3:TrackPointExtension>
            <ns3:hr>129</ns3:hr>
            <ns3:cad>71</ns3:cad>
          </ns3:TrackPointExtension>
        </extensions>
      </trkpt>
      <trkpt lat="45.31169942580163478851318359375" lon="-71.06525030918419361114501953125">
        <ele>778.79998779296875</ele>
        <time>2026-08-21T23:02:58.000Z</time>
        <extensions>
          <ns3:TrackPointExtension>
            <ns3:hr>128</ns3:hr>
            <ns3:cad>71</ns3:cad>
          </ns3:TrackPointExtension>
        </extensions>
      </trkpt>
      <trkpt lat="45.31168408691883087158203125" lon="-71.0652467049658298492431640625">
        <ele>779.20001220703125</ele>
        <time>2026-08-21T23:02:59.000Z</time>
        <extensions>
          <ns3:TrackPointExtension>
            <ns3:hr>128</ns3:hr>
            <ns3:cad>71</ns3:cad>
          </ns3:TrackPointExtension>
        </extensions>
      </trkpt>
      <trkpt lat="45.311673022806644439697265625" lon="-71.0652418434619903564453125">
        <ele>779.5999755859375</ele>
        <time>2026-08-21T23:03:00.000Z</time>
        <extensions>
          <ns3:TrackPointExtension>
            <ns3:hr>127</ns3:hr>
            <ns3:cad>71</ns3:cad>
          </ns3:TrackPointExtension>
        </extensions>
      </trkpt>
      <trkpt lat="45.311658941209316253662109375" lon="-71.06524427421391010284423828125">
        <ele>779.79998779296875</ele>
        <time>2026-08-21T23:03:01.000Z</time>
        <extensions>
          <ns3:TrackPointExtension>
            <ns3:hr>127</ns3:hr>
            <ns3:cad>71</ns3:cad>
          </ns3:TrackPointExtension>
        </extensions>
      </trkpt>
      <trkpt lat="45.31164494343101978302001953125" lon="-71.06525123119354248046875">
        <ele>780</ele>
        <time>2026-08-21T23:03:02.000Z</time>
        <extensions>
          <ns3:TrackPointExtension>
            <ns3:hr>127</ns3:hr>
            <ns3:cad>71</ns3:cad>
          </ns3:TrackPointExtension>
        </extensions>
      </trkpt>
      <trkpt lat="45.3116356395184993743896484375" lon="-71.0652601160109043121337890625">
        <ele>780.20001220703125</ele>
        <time>2026-08-21T23:03:03.000Z</time>
        <extensions>
          <ns3:TrackPointExtension>
            <ns3:hr>126</ns3:hr>
            <ns3:cad>71</ns3:cad>
          </ns3:TrackPointExtension>
        </extensions>
      </trkpt>
      <trkpt lat="45.31162650324404239654541015625" lon="-71.06527511961758136749267578125">
        <ele>780.4000244140625</ele>
        <time>2026-08-21T23:03:04.000Z</time>
        <extensions>
          <ns3:TrackPointExtension>
            <ns3:hr>125</ns3:hr>
            <ns3:cad>71</ns3:cad>
          </ns3:TrackPointExtension>
        </extensions>
      </trkpt>
      <trkpt lat="45.31161543913185596466064453125" lon="-71.06528635136783123016357421875">
        <ele>780.5999755859375</ele>
        <time>2026-08-21T23:03:05.000Z</time>
        <extensions>
          <ns3:TrackPointExtension>
            <ns3:hr>125</ns3:hr>
            <ns3:cad>0</ns3:cad>
          </ns3:TrackPointExtension>
        </extensions>
      </trkpt>
      <trkpt lat="45.3116044588387012481689453125" lon="-71.06529288925230503082275390625">
        <ele>780.5999755859375</ele>
        <time>2026-08-21T23:03:06.000Z</time>
        <extensions>
          <ns3:TrackPointExtension>
            <ns3:hr>125</ns3:hr>
            <ns3:cad>0</ns3:cad>
          </ns3:TrackPointExtension>
        </extensions>
      </trkpt>
      <trkpt lat="45.3115920536220073699951171875" lon="-71.06530881486833095550537109375">
        <ele>780.5999755859375</ele>
        <time>2026-08-21T23:03:07.000Z</time>
        <extensions>
          <ns3:TrackPointExtension>
            <ns3:hr>125</ns3:hr>
            <ns3:cad>0</ns3:cad>
          </ns3:TrackPointExtension>
        </extensions>
      </trkpt>
      <trkpt lat="45.3115796484053134918212890625" lon="-71.06532591395080089569091796875">
        <ele>780.5999755859375</ele>
        <time>2026-08-21T23:03:08.000Z</time>
        <extensions>
          <ns3:TrackPointExtension>
            <ns3:hr>125</ns3:hr>
            <ns3:cad>0</ns3:cad>
          </ns3:TrackPointExtension>
        </extensions>
      </trkpt>
      <trkpt lat="45.31156715936958789825439453125" lon="-71.0653472878038883209228515625">
        <ele>780.5999755859375</ele>
        <time>2026-08-21T23:03:09.000Z</time>
        <extensions>
          <ns3:TrackPointExtension>
            <ns3:hr>124</ns3:hr>
            <ns3:cad>0</ns3:cad>
          </ns3:TrackPointExtension>
        </extensions>
      </trkpt>
      <trkpt lat="45.31155659817159175872802734375" lon="-71.06536111794412136077880859375">
        <ele>780.79998779296875</ele>
        <time>2026-08-21T23:03:10.000Z</time>
        <extensions>
          <ns3:TrackPointExtension>
            <ns3:hr>124</ns3:hr>
            <ns3:cad>71</ns3:cad>
          </ns3:TrackPointExtension>
        </extensions>
      </trkpt>
      <trkpt lat="45.31154788099229335784912109375" lon="-71.06537888757884502410888671875">
        <ele>780.79998779296875</ele>
        <time>2026-08-21T23:03:11.000Z</time>
        <extensions>
          <ns3:TrackPointExtension>
            <ns3:hr>124</ns3:hr>
            <ns3:cad>71</ns3:cad>
          </ns3:TrackPointExtension>
        </extensions>
      </trkpt>
      <trkpt lat="45.31154117546975612640380859375" lon="-71.06540269218385219573974609375">
        <ele>780.79998779296875</ele>
        <time>2026-08-21T23:03:12.000Z</time>
        <extensions>
          <ns3:TrackPointExtension>
            <ns3:hr>124</ns3:hr>
            <ns3:cad>71</ns3:cad>
          </ns3:TrackPointExtension>
        </extensions>
      </trkpt>
      <trkpt lat="45.3115350566804409027099609375" lon="-71.06542197056114673614501953125">
        <ele>780.79998779296875</ele>
        <time>2026-08-21T23:03:13.000Z</time>
        <extensions>
          <ns3:TrackPointExtension>
            <ns3:hr>125</ns3:hr>
            <ns3:cad>71</ns3:cad>
          </ns3:TrackPointExtension>
        </extensions>
      </trkpt>
      <trkpt lat="45.3115296922624111175537109375" lon="-71.06544326059520244598388671875">
        <ele>780.5999755859375</ele>
        <time>2026-08-21T23:03:14.000Z</time>
        <extensions>
          <ns3:TrackPointExtension>
            <ns3:hr>125</ns3:hr>
            <ns3:cad>71</ns3:cad>
          </ns3:TrackPointExtension>
        </extensions>
      </trkpt>
      <trkpt lat="45.31151602976024150848388671875" lon="-71.0654622875154018402099609375">
        <ele>780.5999755859375</ele>
        <time>2026-08-21T23:03:15.000Z</time>
        <extensions>
          <ns3:TrackPointExtension>
            <ns3:hr>126</ns3:hr>
            <ns3:cad>71</ns3:cad>
          </ns3:TrackPointExtension>
        </extensions>
      </trkpt>
      <trkpt lat="45.31150848604738712310791015625" lon="-71.06547226198017597198486328125">
        <ele>780.5999755859375</ele>
        <time>2026-08-21T23:03:16.000Z</time>
        <extensions>
          <ns3:TrackPointExtension>
            <ns3:hr>126</ns3:hr>
            <ns3:cad>71</ns3:cad>
          </ns3:TrackPointExtension>
        </extensions>
      </trkpt>
      <trkpt lat="45.3114916384220123291015625" lon="-71.065489612519741058349609375">
        <ele>780.5999755859375</ele>
        <time>2026-08-21T23:03:17.000Z</time>
        <extensions>
          <ns3:TrackPointExtension>
            <ns3:hr>126</ns3:hr>
            <ns3:cad>0</ns3:cad>
          </ns3:TrackPointExtension>
        </extensions>
      </trkpt>
      <trkpt lat="45.3114817477762699127197265625" lon="-71.0654991678893566131591796875">
        <ele>780.5999755859375</ele>
        <time>2026-08-21T23:03:18.000Z</time>
        <extensions>
          <ns3:TrackPointExtension>
            <ns3:hr>126</ns3:hr>
            <ns3:cad>0</ns3:cad>
          </ns3:TrackPointExtension>
        </extensions>
      </trkpt>
      <trkpt lat="45.31147219240665435791015625" lon="-71.06551148928701877593994140625">
        <ele>780.4000244140625</ele>
        <time>2026-08-21T23:03:19.000Z</time>
        <extensions>
          <ns3:TrackPointExtension>
            <ns3:hr>126</ns3:hr>
            <ns3:cad>0</ns3:cad>
          </ns3:TrackPointExtension>
        </extensions>
      </trkpt>
      <trkpt lat="45.31146205030381679534912109375" lon="-71.065523810684680938720703125">
        <ele>780.20001220703125</ele>
        <time>2026-08-21T23:03:20.000Z</time>
        <extensions>
          <ns3:TrackPointExtension>
            <ns3:hr>125</ns3:hr>
            <ns3:cad>0</ns3:cad>
          </ns3:TrackPointExtension>
        </extensions>
      </trkpt>
      <trkpt lat="45.31145517714321613311767578125" lon="-71.065539233386516571044921875">
        <ele>779.79998779296875</ele>
        <time>2026-08-21T23:03:21.000Z</time>
        <extensions>
          <ns3:TrackPointExtension>
            <ns3:hr>126</ns3:hr>
            <ns3:cad>0</ns3:cad>
          </ns3:TrackPointExtension>
        </extensions>
      </trkpt>
      <trkpt lat="45.31145199202001094818115234375" lon="-71.0655531473457813262939453125">
        <ele>779.4000244140625</ele>
        <time>2026-08-21T23:03:22.000Z</time>
        <extensions>
          <ns3:TrackPointExtension>
            <ns3:hr>126</ns3:hr>
            <ns3:cad>0</ns3:cad>
          </ns3:TrackPointExtension>
        </extensions>
      </trkpt>
      <trkpt lat="45.31144947744905948638916015625" lon="-71.065572760999202728271484375">
        <ele>779</ele>
        <time>2026-08-21T23:03:23.000Z</time>
        <extensions>
          <ns3:TrackPointExtension>
            <ns3:hr>126</ns3:hr>
            <ns3:cad>0</ns3:cad>
          </ns3:TrackPointExtension>
        </extensions>
      </trkpt>
      <trkpt lat="45.31144964508712291717529296875" lon="-71.065591871738433837890625">
        <ele>778.79998779296875</ele>
        <time>2026-08-21T23:03:24.000Z</time>
        <extensions>
          <ns3:TrackPointExtension>
            <ns3:hr>126</ns3:hr>
            <ns3:cad>0</ns3:cad>
          </ns3:TrackPointExtension>
        </extensions>
      </trkpt>
      <trkpt lat="45.3114421851933002471923828125" lon="-71.0656074620783329010009765625">
        <ele>778.5999755859375</ele>
        <time>2026-08-21T23:03:25.000Z</time>
        <extensions>
          <ns3:TrackPointExtension>
            <ns3:hr>126</ns3:hr>
            <ns3:cad>0</ns3:cad>
          </ns3:TrackPointExtension>
        </extensions>
      </trkpt>
      <trkpt lat="45.31142801977694034576416015625" lon="-71.0656171850860118865966796875">
        <ele>778.4000244140625</ele>
        <time>2026-08-21T23:03:26.000Z</time>
        <extensions>
          <ns3:TrackPointExtension>
            <ns3:hr>126</ns3:hr>
            <ns3:cad>0</ns3:cad>
          </ns3:TrackPointExtension>
        </extensions>
      </trkpt>
      <trkpt lat="45.311416201293468475341796875" lon="-71.06563738547265529632568359375">
        <ele>778.20001220703125</ele>
        <time>2026-08-21T23:03:27.000Z</time>
        <extensions>
          <ns3:TrackPointExtension>
            <ns3:hr>126</ns3:hr>
            <ns3:cad>0</ns3:cad>
          </ns3:TrackPointExtension>
        </extensions>
      </trkpt>
      <trkpt lat="45.311408825218677520751953125" lon="-71.0656584240496158599853515625">
        <ele>778</ele>
        <time>2026-08-21T23:03:28.000Z</time>
        <extensions>
          <ns3:TrackPointExtension>
            <ns3:hr>127</ns3:hr>
            <ns3:cad>0</ns3:cad>
          </ns3:TrackPointExtension>
        </extensions>
      </trkpt>
      <trkpt lat="45.3114073164761066436767578125" lon="-71.06569304130971431732177734375">
        <ele>778</ele>
        <time>2026-08-21T23:03:29.000Z</time>
        <extensions>
          <ns3:TrackPointExtension>
            <ns3:hr>127</ns3:hr>
            <ns3:cad>0</ns3:cad>
          </ns3:TrackPointExtension>
        </extensions>
      </trkpt>
      <trkpt lat="45.3114069811999797821044921875" lon="-71.0657224617898464202880859375">
        <ele>778</ele>
        <time>2026-08-21T23:03:30.000Z</time>
        <extensions>
          <ns3:TrackPointExtension>
            <ns3:hr>127</ns3:hr>
            <ns3:cad>0</ns3:cad>
          </ns3:TrackPointExtension>
        </extensions>
      </trkpt>
      <trkpt lat="45.3114086575806140899658203125" lon="-71.0657516308128833770751953125">
        <ele>778</ele>
        <time>2026-08-21T23:03:31.000Z</time>
        <extensions>
          <ns3:TrackPointExtension>
            <ns3:hr>126</ns3:hr>
            <ns3:cad>0</ns3:cad>
          </ns3:TrackPointExtension>
        </extensions>
      </trkpt>
      <trkpt lat="45.31141184270381927490234375" lon="-71.06576713733375072479248046875">
        <ele>778.20001220703125</ele>
        <time>2026-08-21T23:03:32.000Z</time>
        <extensions>
          <ns3:TrackPointExtension>
            <ns3:hr>126</ns3:hr>
            <ns3:cad>0</ns3:cad>
          </ns3:TrackPointExtension>
        </extensions>
      </trkpt>
      <trkpt lat="45.311411507427692413330078125" lon="-71.06578440405428409576416015625">
        <ele>778.4000244140625</ele>
        <time>2026-08-21T23:03:33.000Z</time>
        <extensions>
          <ns3:TrackPointExtension>
            <ns3:hr>126</ns3:hr>
            <ns3:cad>0</ns3:cad>
          </ns3:TrackPointExtension>
        </extensions>
      </trkpt>
      <trkpt lat="45.3114113397896289825439453125" lon="-71.06580703519284725189208984375">
        <ele>778.4000244140625</ele>
        <time>2026-08-21T23:03:34.000Z</time>
        <extensions>
          <ns3:TrackPointExtension>
            <ns3:hr>126</ns3:hr>
            <ns3:cad>0</ns3:cad>
          </ns3:TrackPointExtension>
        </extensions>
      </trkpt>
      <trkpt lat="45.3114123456180095672607421875" lon="-71.065818853676319122314453125">
        <ele>778.5999755859375</ele>
        <time>2026-08-21T23:03:35.000Z</time>
        <extensions>
          <ns3:TrackPointExtension>
            <ns3:hr>126</ns3:hr>
            <ns3:cad>0</ns3:cad>
          </ns3:TrackPointExtension>
        </extensions>
      </trkpt>
      <trkpt lat="45.311417542397975921630859375" lon="-71.06584475375711917877197265625">
        <ele>778.79998779296875</ele>
        <time>2026-08-21T23:03:36.000Z</time>
        <extensions>
          <ns3:TrackPointExtension>
            <ns3:hr>126</ns3:hr>
            <ns3:cad>0</ns3:cad>
          </ns3:TrackPointExtension>
        </extensions>
      </trkpt>
      <trkpt lat="45.31141377054154872894287109375" lon="-71.06585950590670108795166015625">
        <ele>778.79998779296875</ele>
        <time>2026-08-21T23:03:37.000Z</time>
        <extensions>
          <ns3:TrackPointExtension>
            <ns3:hr>126</ns3:hr>
            <ns3:cad>0</ns3:cad>
          </ns3:TrackPointExtension>
        </extensions>
      </trkpt>
      <trkpt lat="45.311412177979946136474609375" lon="-71.065886914730072021484375">
        <ele>778.79998779296875</ele>
        <time>2026-08-21T23:03:38.000Z</time>
        <extensions>
          <ns3:TrackPointExtension>
            <ns3:hr>126</ns3:hr>
            <ns3:cad>0</ns3:cad>
          </ns3:TrackPointExtension>
        </extensions>
      </trkpt>
      <trkpt lat="45.31140840612351894378662109375" lon="-71.0659070312976837158203125">
        <ele>778.79998779296875</ele>
        <time>2026-08-21T23:03:39.000Z</time>
        <extensions>
          <ns3:TrackPointExtension>
            <ns3:hr>126</ns3:hr>
            <ns3:cad>68</ns3:cad>
          </ns3:TrackPointExtension>
        </extensions>
      </trkpt>
      <trkpt lat="45.3114093281328678131103515625" lon="-71.06592773459851741790771484375">
        <ele>778.5999755859375</ele>
        <time>2026-08-21T23:03:40.000Z</time>
        <extensions>
          <ns3:TrackPointExtension>
            <ns3:hr>126</ns3:hr>
            <ns3:cad>68</ns3:cad>
          </ns3:TrackPointExtension>
        </extensions>
      </trkpt>
      <trkpt lat="45.31141159124672412872314453125" lon="-71.06595338322222232818603515625">
        <ele>778.4000244140625</ele>
        <time>2026-08-21T23:03:41.000Z</time>
        <extensions>
          <ns3:TrackPointExtension>
            <ns3:hr>125</ns3:hr>
            <ns3:cad>68</ns3:cad>
          </ns3:TrackPointExtension>
        </extensions>
      </trkpt>
      <trkpt lat="45.3114160336554050445556640625" lon="-71.06597266159951686859130859375">
        <ele>778.4000244140625</ele>
        <time>2026-08-21T23:03:42.000Z</time>
        <extensions>
          <ns3:TrackPointExtension>
            <ns3:hr>126</ns3:hr>
            <ns3:cad>68</ns3:cad>
          </ns3:TrackPointExtension>
        </extensions>
      </trkpt>
      <trkpt lat="45.31141594983637332916259765625" lon="-71.06599344871938228607177734375">
        <ele>778.4000244140625</ele>
        <time>2026-08-21T23:03:43.000Z</time>
        <extensions>
          <ns3:TrackPointExtension>
            <ns3:hr>126</ns3:hr>
            <ns3:cad>68</ns3:cad>
          </ns3:TrackPointExtension>
        </extensions>
      </trkpt>
      <trkpt lat="45.31141729094088077545166015625" lon="-71.06601172126829624176025390625">
        <ele>778.4000244140625</ele>
        <time>2026-08-21T23:03:44.000Z</time>
        <extensions>
          <ns3:TrackPointExtension>
            <ns3:hr>126</ns3:hr>
            <ns3:cad>0</ns3:cad>
          </ns3:TrackPointExtension>
        </extensions>
      </trkpt>
      <trkpt lat="45.31141662038862705230712890625" lon="-71.06601976789534091949462890625">
        <ele>778.4000244140625</ele>
        <time>2026-08-21T23:03:45.000Z</time>
        <extensions>
          <ns3:TrackPointExtension>
            <ns3:hr>126</ns3:hr>
            <ns3:cad>0</ns3:cad>
          </ns3:TrackPointExtension>
        </extensions>
      </trkpt>
      <trkpt lat="45.311414860188961029052734375" lon="-71.0660302452743053436279296875">
        <ele>778.4000244140625</ele>
        <time>2026-08-21T23:03:46.000Z</time>
        <extensions>
          <ns3:TrackPointExtension>
            <ns3:hr>127</ns3:hr>
            <ns3:cad>0</ns3:cad>
          </ns3:TrackPointExtension>
        </extensions>
      </trkpt>
      <trkpt lat="45.31141259707510471343994140625" lon="-71.06603686697781085968017578125">
        <ele>778.4000244140625</ele>
        <time>2026-08-21T23:03:47.000Z</time>
        <extensions>
          <ns3:TrackPointExtension>
            <ns3:hr>128</ns3:hr>
            <ns3:cad>0</ns3:cad>
          </ns3:TrackPointExtension>
        </extensions>
      </trkpt>
      <trkpt lat="45.311406813561916351318359375" lon="-71.0660460032522678375244140625">
        <ele>778.4000244140625</ele>
        <time>2026-08-21T23:03:48.000Z</time>
        <extensions>
          <ns3:TrackPointExtension>
            <ns3:hr>128</ns3:hr>
            <ns3:cad>0</ns3:cad>
          </ns3:TrackPointExtension>
        </extensions>
      </trkpt>
      <trkpt lat="45.31140203587710857391357421875" lon="-71.06605631299316883087158203125">
        <ele>778.20001220703125</ele>
        <time>2026-08-21T23:03:49.000Z</time>
        <extensions>
          <ns3:TrackPointExtension>
            <ns3:hr>128</ns3:hr>
            <ns3:cad>19</ns3:cad>
          </ns3:TrackPointExtension>
        </extensions>
      </trkpt>
      <trkpt lat="45.311400108039379119873046875" lon="-71.06606586836278438568115234375">
        <ele>778</ele>
        <time>2026-08-21T23:03:50.000Z</time>
        <extensions>
          <ns3:TrackPointExtension>
            <ns3:hr>128</ns3:hr>
            <ns3:cad>19</ns3:cad>
          </ns3:TrackPointExtension>
        </extensions>
      </trkpt>
      <trkpt lat="45.31139440834522247314453125" lon="-71.06607140041887760162353515625">
        <ele>777.5999755859375</ele>
        <time>2026-08-21T23:03:51.000Z</time>
        <extensions>
          <ns3:TrackPointExtension>
            <ns3:hr>128</ns3:hr>
            <ns3:cad>19</ns3:cad>
          </ns3:TrackPointExtension>
        </extensions>
      </trkpt>
      <trkpt lat="45.3113858588039875030517578125" lon="-71.06607542373239994049072265625">
        <ele>777.20001220703125</ele>
        <time>2026-08-21T23:03:52.000Z</time>
        <extensions>
          <ns3:TrackPointExtension>
            <ns3:hr>128</ns3:hr>
            <ns3:cad>19</ns3:cad>
          </ns3:TrackPointExtension>
        </extensions>
      </trkpt>
      <trkpt lat="45.31136381439864635467529296875" lon="-71.066090762615203857421875">
        <ele>776.79998779296875</ele>
        <time>2026-08-21T23:03:53.000Z</time>
        <extensions>
          <ns3:TrackPointExtension>
            <ns3:hr>128</ns3:hr>
            <ns3:cad>19</ns3:cad>
          </ns3:TrackPointExtension>
        </extensions>
      </trkpt>
      <trkpt lat="45.3113617189228534698486328125" lon="-71.0661060176789760589599609375">
        <ele>776.4000244140625</ele>
        <time>2026-08-21T23:03:54.000Z</time>
        <extensions>
          <ns3:TrackPointExtension>
            <ns3:hr>127</ns3:hr>
            <ns3:cad>19</ns3:cad>
          </ns3:TrackPointExtension>
        </extensions>
      </trkpt>
      <trkpt lat="45.311353504657745361328125" lon="-71.06611800380051136016845703125">
        <ele>776.20001220703125</ele>
        <time>2026-08-21T23:03:55.000Z</time>
        <extensions>
          <ns3:TrackPointExtension>
            <ns3:hr>127</ns3:hr>
            <ns3:cad>19</ns3:cad>
          </ns3:TrackPointExtension>
        </extensions>
      </trkpt>
      <trkpt lat="45.31134353019297122955322265625" lon="-71.06613166630268096923828125">
        <ele>776.20001220703125</ele>
        <time>2026-08-21T23:03:56.000Z</time>
        <extensions>
          <ns3:TrackPointExtension>
            <ns3:hr>127</ns3:hr>
            <ns3:cad>19</ns3:cad>
          </ns3:TrackPointExtension>
        </extensions>
      </trkpt>
      <trkpt lat="45.311337411403656005859375" lon="-71.06614147312939167022705078125">
        <ele>776.20001220703125</ele>
        <time>2026-08-21T23:03:57.000Z</time>
        <extensions>
          <ns3:TrackPointExtension>
            <ns3:hr>128</ns3:hr>
            <ns3:cad>19</ns3:cad>
          </ns3:TrackPointExtension>
        </extensions>
      </trkpt>
      <trkpt lat="45.311330370604991912841796875" lon="-71.06614817865192890167236328125">
        <ele>776.20001220703125</ele>
        <time>2026-08-21T23:03:58.000Z</time>
        <extensions>
          <ns3:TrackPointExtension>
            <ns3:hr>127</ns3:hr>
            <ns3:cad>51</ns3:cad>
          </ns3:TrackPointExtension>
        </extensions>
      </trkpt>
      <trkpt lat="45.31132408417761325836181640625" lon="-71.066150106489658355712890625">
        <ele>776.20001220703125</ele>
        <time>2026-08-21T23:03:59.000Z</time>
        <extensions>
          <ns3:TrackPointExtension>
            <ns3:hr>127</ns3:hr>
            <ns3:cad>51</ns3:cad>
          </ns3:TrackPointExtension>
        </extensions>
      </trkpt>
      <trkpt lat="45.31131327152252197265625" lon="-71.06615454889833927154541015625">
        <ele>776</ele>
        <time>2026-08-21T23:04:00.000Z</time>
        <extensions>
          <ns3:TrackPointExtension>
            <ns3:hr>127</ns3:hr>
            <ns3:cad>0</ns3:cad>
          </ns3:TrackPointExtension>
        </extensions>
      </trkpt>
      <trkpt lat="45.3112990222871303558349609375" lon="-71.06616209261119365692138671875">
        <ele>775.5999755859375</ele>
        <time>2026-08-21T23:04:01.000Z</time>
        <extensions>
          <ns3:TrackPointExtension>
            <ns3:hr>127</ns3:hr>
            <ns3:cad>0</ns3:cad>
          </ns3:TrackPointExtension>
        </extensions>
      </trkpt>
      <trkpt lat="45.31128703616559505462646484375" lon="-71.06616276316344738006591796875">
        <ele>775</ele>
        <time>2026-08-21T23:04:02.000Z</time>
        <extensions>
          <ns3:TrackPointExtension>
            <ns3:hr>128</ns3:hr>
            <ns3:cad>0</ns3:cad>
          </ns3:TrackPointExtension>
        </extensions>
      </trkpt>
      <trkpt lat="45.311266668140888214111328125" lon="-71.0661653615534305572509765625">
        <ele>774.5999755859375</ele>
        <time>2026-08-21T23:04:03.000Z</time>
        <extensions>
          <ns3:TrackPointExtension>
            <ns3:hr>129</ns3:hr>
            <ns3:cad>63</ns3:cad>
          </ns3:TrackPointExtension>
        </extensions>
      </trkpt>
      <trkpt lat="45.31125015579164028167724609375" lon="-71.0661754198372364044189453125">
        <ele>774.20001220703125</ele>
        <time>2026-08-21T23:04:04.000Z</time>
        <extensions>
          <ns3:TrackPointExtension>
            <ns3:hr>129</ns3:hr>
            <ns3:cad>63</ns3:cad>
          </ns3:TrackPointExtension>
        </extensions>
      </trkpt>
      <trkpt lat="45.31123506836593151092529296875" lon="-71.0661781020462512969970703125">
        <ele>774</ele>
        <time>2026-08-21T23:04:05.000Z</time>
        <extensions>
          <ns3:TrackPointExtension>
            <ns3:hr>129</ns3:hr>
            <ns3:cad>63</ns3:cad>
          </ns3:TrackPointExtension>
        </extensions>
      </trkpt>
      <trkpt lat="45.3112182207405567169189453125" lon="-71.06618455611169338226318359375">
        <ele>773.79998779296875</ele>
        <time>2026-08-21T23:04:06.000Z</time>
        <extensions>
          <ns3:TrackPointExtension>
            <ns3:hr>130</ns3:hr>
            <ns3:cad>64</ns3:cad>
          </ns3:TrackPointExtension>
        </extensions>
      </trkpt>
      <trkpt lat="45.311204977333545684814453125" lon="-71.066192351281642913818359375">
        <ele>773.79998779296875</ele>
        <time>2026-08-21T23:04:07.000Z</time>
        <extensions>
          <ns3:TrackPointExtension>
            <ns3:hr>130</ns3:hr>
            <ns3:cad>64</ns3:cad>
          </ns3:TrackPointExtension>
        </extensions>
      </trkpt>
      <trkpt lat="45.311187542974948883056640625" lon="-71.0662039183080196380615234375">
        <ele>773.79998779296875</ele>
        <time>2026-08-21T23:04:08.000Z</time>
        <extensions>
          <ns3:TrackPointExtension>
            <ns3:hr>130</ns3:hr>
            <ns3:cad>65</ns3:cad>
          </ns3:TrackPointExtension>
        </extensions>
      </trkpt>
      <trkpt lat="45.311180837452411651611328125" lon="-71.06622328050434589385986328125">
        <ele>773.5999755859375</ele>
        <time>2026-08-21T23:04:09.000Z</time>
        <extensions>
          <ns3:TrackPointExtension>
            <ns3:hr>130</ns3:hr>
            <ns3:cad>65</ns3:cad>
          </ns3:TrackPointExtension>
        </extensions>
      </trkpt>
      <trkpt lat="45.31117002479732036590576171875" lon="-71.0662476718425750732421875">
        <ele>773.4000244140625</ele>
        <time>2026-08-21T23:04:10.000Z</time>
        <extensions>
          <ns3:TrackPointExtension>
            <ns3:hr>130</ns3:hr>
            <ns3:cad>65</ns3:cad>
          </ns3:TrackPointExtension>
        </extensions>
      </trkpt>
      <trkpt lat="45.31116516329348087310791015625" lon="-71.06625949032604694366455078125">
        <ele>773.20001220703125</ele>
        <time>2026-08-21T23:04:11.000Z</time>
        <extensions>
          <ns3:TrackPointExtension>
            <ns3:hr>130</ns3:hr>
            <ns3:cad>65</ns3:cad>
          </ns3:TrackPointExtension>
        </extensions>
      </trkpt>
      <trkpt lat="45.31115426681935787200927734375" lon="-71.06626980006694793701171875">
        <ele>773</ele>
        <time>2026-08-21T23:04:12.000Z</time>
        <extensions>
          <ns3:TrackPointExtension>
            <ns3:hr>130</ns3:hr>
            <ns3:cad>65</ns3:cad>
          </ns3:TrackPointExtension>
        </extensions>
      </trkpt>
      <trkpt lat="45.31114119105041027069091796875" lon="-71.066278852522373199462890625">
        <ele>772.79998779296875</ele>
        <time>2026-08-21T23:04:13.000Z</time>
        <extensions>
          <ns3:TrackPointExtension>
            <ns3:hr>130</ns3:hr>
            <ns3:cad>65</ns3:cad>
          </ns3:TrackPointExtension>
        </extensions>
      </trkpt>
      <trkpt lat="45.311126522719860076904296875" lon="-71.06628187000751495361328125">
        <ele>772.5999755859375</ele>
        <time>2026-08-21T23:04:14.000Z</time>
        <extensions>
          <ns3:TrackPointExtension>
            <ns3:hr>130</ns3:hr>
            <ns3:cad>65</ns3:cad>
          </ns3:TrackPointExtension>
        </extensions>
      </trkpt>
      <trkpt lat="45.31111084856092929840087890625" lon="-71.06629016809165477752685546875">
        <ele>772.4000244140625</ele>
        <time>2026-08-21T23:04:15.000Z</time>
        <extensions>
          <ns3:TrackPointExtension>
            <ns3:hr>129</ns3:hr>
            <ns3:cad>65</ns3:cad>
          </ns3:TrackPointExtension>
        </extensions>
      </trkpt>
      <trkpt lat="45.31109324656426906585693359375" lon="-71.06629368849098682403564453125">
        <ele>772.4000244140625</ele>
        <time>2026-08-21T23:04:16.000Z</time>
        <extensions>
          <ns3:TrackPointExtension>
            <ns3:hr>130</ns3:hr>
            <ns3:cad>65</ns3:cad>
          </ns3:TrackPointExtension>
        </extensions>
      </trkpt>
      <trkpt lat="45.3110784105956554412841796875" lon="-71.0663018189370632171630859375">
        <ele>772.20001220703125</ele>
        <time>2026-08-21T23:04:17.000Z</time>
        <extensions>
          <ns3:TrackPointExtension>
            <ns3:hr>130</ns3:hr>
            <ns3:cad>65</ns3:cad>
          </ns3:TrackPointExtension>
        </extensions>
      </trkpt>
      <trkpt lat="45.31106491573154926300048828125" lon="-71.066317074000835418701171875">
        <ele>772</ele>
        <time>2026-08-21T23:04:18.000Z</time>
        <extensions>
          <ns3:TrackPointExtension>
            <ns3:hr>130</ns3:hr>
            <ns3:cad>0</ns3:cad>
          </ns3:TrackPointExtension>
        </extensions>
      </trkpt>
      <trkpt lat="45.3110571205615997314453125" lon="-71.06632637791335582733154296875">
        <ele>771.79998779296875</ele>
        <time>2026-08-21T23:04:19.000Z</time>
        <extensions>
          <ns3:TrackPointExtension>
            <ns3:hr>130</ns3:hr>
            <ns3:cad>0</ns3:cad>
          </ns3:TrackPointExtension>
        </extensions>
      </trkpt>
      <trkpt lat="45.31104563735425472259521484375" lon="-71.06634146533906459808349609375">
        <ele>771.5999755859375</ele>
        <time>2026-08-21T23:04:20.000Z</time>
        <extensions>
          <ns3:TrackPointExtension>
            <ns3:hr>129</ns3:hr>
            <ns3:cad>0</ns3:cad>
          </ns3:TrackPointExtension>
        </extensions>
      </trkpt>
      <trkpt lat="45.3110271133482456207275390625" lon="-71.0663574747741222381591796875">
        <ele>771.4000244140625</ele>
        <time>2026-08-21T23:04:21.000Z</time>
        <extensions>
          <ns3:TrackPointExtension>
            <ns3:hr>129</ns3:hr>
            <ns3:cad>0</ns3:cad>
          </ns3:TrackPointExtension>
        </extensions>
      </trkpt>
      <trkpt lat="45.31100775115191936492919921875" lon="-71.0663742385804653167724609375">
        <ele>771.20001220703125</ele>
        <time>2026-08-21T23:04:22.000Z</time>
        <extensions>
          <ns3:TrackPointExtension>
            <ns3:hr>129</ns3:hr>
            <ns3:cad>0</ns3:cad>
          </ns3:TrackPointExtension>
        </extensions>
      </trkpt>
      <trkpt lat="45.31099140644073486328125" lon="-71.06639661826193332672119140625">
        <ele>770.79998779296875</ele>
        <time>2026-08-21T23:04:23.000Z</time>
        <extensions>
          <ns3:TrackPointExtension>
            <ns3:hr>128</ns3:hr>
            <ns3:cad>0</ns3:cad>
          </ns3:TrackPointExtension>
        </extensions>
      </trkpt>
      <trkpt lat="45.31097942031919956207275390625" lon="-71.0664077661931514739990234375">
        <ele>770.5999755859375</ele>
        <time>2026-08-21T23:04:24.000Z</time>
        <extensions>
          <ns3:TrackPointExtension>
            <ns3:hr>128</ns3:hr>
            <ns3:cad>0</ns3:cad>
          </ns3:TrackPointExtension>
        </extensions>
      </trkpt>
      <trkpt lat="45.31096793711185455322265625" lon="-71.0664215125143527984619140625">
        <ele>770.5999755859375</ele>
        <time>2026-08-21T23:04:25.000Z</time>
        <extensions>
          <ns3:TrackPointExtension>
            <ns3:hr>127</ns3:hr>
            <ns3:cad>0</ns3:cad>
          </ns3:TrackPointExtension>
        </extensions>
      </trkpt>
      <trkpt lat="45.31095921993255615234375" lon="-71.06644288636744022369384765625">
        <ele>770.4000244140625</ele>
        <time>2026-08-21T23:04:26.000Z</time>
        <extensions>
          <ns3:TrackPointExtension>
            <ns3:hr>127</ns3:hr>
            <ns3:cad>0</ns3:cad>
          </ns3:TrackPointExtension>
        </extensions>
      </trkpt>
      <trkpt lat="45.31095452606678009033203125" lon="-71.06647633016109466552734375">
        <ele>770.4000244140625</ele>
        <time>2026-08-21T23:04:27.000Z</time>
        <extensions>
          <ns3:TrackPointExtension>
            <ns3:hr>128</ns3:hr>
            <ns3:cad>0</ns3:cad>
          </ns3:TrackPointExtension>
        </extensions>
      </trkpt>
      <trkpt lat="45.310957543551921844482421875" lon="-71.0665174014866352081298828125">
        <ele>770.4000244140625</ele>
        <time>2026-08-21T23:04:28.000Z</time>
        <extensions>
          <ns3:TrackPointExtension>
            <ns3:hr>128</ns3:hr>
            <ns3:cad>0</ns3:cad>
          </ns3:TrackPointExtension>
        </extensions>
      </trkpt>
      <trkpt lat="45.31095989048480987548828125" lon="-71.0665445588529109954833984375">
        <ele>770.4000244140625</ele>
        <time>2026-08-21T23:04:29.000Z</time>
        <extensions>
          <ns3:TrackPointExtension>
            <ns3:hr>128</ns3:hr>
            <ns3:cad>40</ns3:cad>
          </ns3:TrackPointExtension>
        </extensions>
      </trkpt>
      <trkpt lat="45.31097405590116977691650390625" lon="-71.06658051721751689910888671875">
        <ele>770.4000244140625</ele>
        <time>2026-08-21T23:04:30.000Z</time>
        <extensions>
          <ns3:TrackPointExtension>
            <ns3:hr>128</ns3:hr>
            <ns3:cad>40</ns3:cad>
          </ns3:TrackPointExtension>
        </extensions>
      </trkpt>
      <trkpt lat="45.310985706746578216552734375" lon="-71.06659661047160625457763671875">
        <ele>770.4000244140625</ele>
        <time>2026-08-21T23:04:31.000Z</time>
        <extensions>
          <ns3:TrackPointExtension>
            <ns3:hr>127</ns3:hr>
            <ns3:cad>40</ns3:cad>
          </ns3:TrackPointExtension>
        </extensions>
      </trkpt>
      <trkpt lat="45.3109952621161937713623046875" lon="-71.06661085970699787139892578125">
        <ele>770.20001220703125</ele>
        <time>2026-08-21T23:04:32.000Z</time>
        <extensions>
          <ns3:TrackPointExtension>
            <ns3:hr>126</ns3:hr>
            <ns3:cad>40</ns3:cad>
          </ns3:TrackPointExtension>
        </extensions>
      </trkpt>
      <trkpt lat="45.3110059909522533416748046875" lon="-71.06662929989397525787353515625">
        <ele>770.20001220703125</ele>
        <time>2026-08-21T23:04:33.000Z</time>
        <extensions>
          <ns3:TrackPointExtension>
            <ns3:hr>125</ns3:hr>
            <ns3:cad>40</ns3:cad>
          </ns3:TrackPointExtension>
        </extensions>
      </trkpt>
      <trkpt lat="45.3110183961689472198486328125" lon="-71.0666551999747753143310546875">
        <ele>770.20001220703125</ele>
        <time>2026-08-21T23:04:34.000Z</time>
        <extensions>
          <ns3:TrackPointExtension>
            <ns3:hr>124</ns3:hr>
            <ns3:cad>65</ns3:cad>
          </ns3:TrackPointExtension>
        </extensions>
      </trkpt>
      <trkpt lat="45.3110321424901485443115234375" lon="-71.06667481362819671630859375">
        <ele>770</ele>
        <time>2026-08-21T23:04:35.000Z</time>
        <extensions>
          <ns3:TrackPointExtension>
            <ns3:hr>124</ns3:hr>
            <ns3:cad>65</ns3:cad>
          </ns3:TrackPointExtension>
        </extensions>
      </trkpt>
      <trkpt lat="45.3110485710203647613525390625" lon="-71.06669836677610874176025390625">
        <ele>770</ele>
        <time>2026-08-21T23:04:36.000Z</time>
        <extensions>
          <ns3:TrackPointExtension>
            <ns3:hr>123</ns3:hr>
            <ns3:cad>65</ns3:cad>
          </ns3:TrackPointExtension>
        </extensions>
      </trkpt>
      <trkpt lat="45.31105385161936283111572265625" lon="-71.06672066263854503631591796875">
        <ele>769.79998779296875</ele>
        <time>2026-08-21T23:04:37.000Z</time>
        <extensions>
          <ns3:TrackPointExtension>
            <ns3:hr>124</ns3:hr>
            <ns3:cad>0</ns3:cad>
          </ns3:TrackPointExtension>
        </extensions>
      </trkpt>
      <trkpt lat="45.311062820255756378173828125" lon="-71.06674782000482082366943359375">
        <ele>769.79998779296875</ele>
        <time>2026-08-21T23:04:38.000Z</time>
        <extensions>
          <ns3:TrackPointExtension>
            <ns3:hr>124</ns3:hr>
            <ns3:cad>0</ns3:cad>
          </ns3:TrackPointExtension>
        </extensions>
      </trkpt>
      <trkpt lat="45.311074219644069671630859375" lon="-71.0667742229998111724853515625">
        <ele>769.5999755859375</ele>
        <time>2026-08-21T23:04:39.000Z</time>
        <extensions>
          <ns3:TrackPointExtension>
            <ns3:hr>125</ns3:hr>
            <ns3:cad>0</ns3:cad>
          </ns3:TrackPointExtension>
        </extensions>
      </trkpt>
      <trkpt lat="45.31108318828046321868896484375" lon="-71.06679962016642093658447265625">
        <ele>769.5999755859375</ele>
        <time>2026-08-21T23:04:40.000Z</time>
        <extensions>
          <ns3:TrackPointExtension>
            <ns3:hr>126</ns3:hr>
            <ns3:cad>0</ns3:cad>
          </ns3:TrackPointExtension>
        </extensions>
      </trkpt>
      <trkpt lat="45.3110901452600955963134765625" lon="-71.06682627461850643157958984375">
        <ele>769.5999755859375</ele>
        <time>2026-08-21T23:04:41.000Z</time>
        <extensions>
          <ns3:TrackPointExtension>
            <ns3:hr>126</ns3:hr>
            <ns3:cad>0</ns3:cad>
          </ns3:TrackPointExtension>
        </extensions>
      </trkpt>
      <trkpt lat="45.31109475530683994293212890625" lon="-71.06685058213770389556884765625">
        <ele>769.79998779296875</ele>
        <time>2026-08-21T23:04:42.000Z</time>
        <extensions>
          <ns3:TrackPointExtension>
            <ns3:hr>126</ns3:hr>
            <ns3:cad>0</ns3:cad>
          </ns3:TrackPointExtension>
        </extensions>
      </trkpt>
      <trkpt lat="45.3111027181148529052734375" lon="-71.0668734647333621978759765625">
        <ele>770</ele>
        <time>2026-08-21T23:04:43.000Z</time>
        <extensions>
          <ns3:TrackPointExtension>
            <ns3:hr>126</ns3:hr>
            <ns3:cad>0</ns3:cad>
          </ns3:TrackPointExtension>
        </extensions>
      </trkpt>
      <trkpt lat="45.3111038915812969207763671875" lon="-71.06688897125422954559326171875">
        <ele>770.20001220703125</ele>
        <time>2026-08-21T23:04:44.000Z</time>
        <extensions>
          <ns3:TrackPointExtension>
            <ns3:hr>126</ns3:hr>
            <ns3:cad>75</ns3:cad>
          </ns3:TrackPointExtension>
        </extensions>
      </trkpt>
      <trkpt lat="45.31109802424907684326171875" lon="-71.06690757907927036285400390625">
        <ele>770.5999755859375</ele>
        <time>2026-08-21T23:04:45.000Z</time>
        <extensions>
          <ns3:TrackPointExtension>
            <ns3:hr>125</ns3:hr>
            <ns3:cad>75</ns3:cad>
          </ns3:TrackPointExtension>
        </extensions>
      </trkpt>
      <trkpt lat="45.3110948391258716583251953125" lon="-71.0669224150478839874267578125">
        <ele>771</ele>
        <time>2026-08-21T23:04:46.000Z</time>
        <extensions>
          <ns3:TrackPointExtension>
            <ns3:hr>125</ns3:hr>
            <ns3:cad>40</ns3:cad>
          </ns3:TrackPointExtension>
        </extensions>
      </trkpt>
      <trkpt lat="45.31109391711652278900146484375" lon="-71.06693926267325878143310546875">
        <ele>771.20001220703125</ele>
        <time>2026-08-21T23:04:47.000Z</time>
        <extensions>
          <ns3:TrackPointExtension>
            <ns3:hr>125</ns3:hr>
            <ns3:cad>40</ns3:cad>
          </ns3:TrackPointExtension>
        </extensions>
      </trkpt>
      <trkpt lat="45.3110951744019985198974609375" lon="-71.06695418246090412139892578125">
        <ele>771.20001220703125</ele>
        <time>2026-08-21T23:04:48.000Z</time>
        <extensions>
          <ns3:TrackPointExtension>
            <ns3:hr>125</ns3:hr>
            <ns3:cad>40</ns3:cad>
          </ns3:TrackPointExtension>
        </extensions>
      </trkpt>
      <trkpt lat="45.31109442003071308135986328125" lon="-71.0669747181236743927001953125">
        <ele>771.20001220703125</ele>
        <time>2026-08-21T23:04:49.000Z</time>
        <extensions>
          <ns3:TrackPointExtension>
            <ns3:hr>126</ns3:hr>
            <ns3:cad>40</ns3:cad>
          </ns3:TrackPointExtension>
        </extensions>
      </trkpt>
      <trkpt lat="45.311092324554920196533203125" lon="-71.06698703952133655548095703125">
        <ele>771</ele>
        <time>2026-08-21T23:04:50.000Z</time>
        <extensions>
          <ns3:TrackPointExtension>
            <ns3:hr>125</ns3:hr>
            <ns3:cad>40</ns3:cad>
          </ns3:TrackPointExtension>
        </extensions>
      </trkpt>
      <trkpt lat="45.3110884688794612884521484375" lon="-71.0670028813183307647705078125">
        <ele>770.79998779296875</ele>
        <time>2026-08-21T23:04:51.000Z</time>
        <extensions>
          <ns3:TrackPointExtension>
            <ns3:hr>126</ns3:hr>
            <ns3:cad>51</ns3:cad>
          </ns3:TrackPointExtension>
        </extensions>
      </trkpt>
      <trkpt lat="45.311083607375621795654296875" lon="-71.067019142210483551025390625">
        <ele>770.79998779296875</ele>
        <time>2026-08-21T23:04:52.000Z</time>
        <extensions>
          <ns3:TrackPointExtension>
            <ns3:hr>127</ns3:hr>
            <ns3:cad>51</ns3:cad>
          </ns3:TrackPointExtension>
        </extensions>
      </trkpt>
      <trkpt lat="45.3110785782337188720703125" lon="-71.06702811084687709808349609375">
        <ele>770.5999755859375</ele>
        <time>2026-08-21T23:04:53.000Z</time>
        <extensions>
          <ns3:TrackPointExtension>
            <ns3:hr>127</ns3:hr>
            <ns3:cad>0</ns3:cad>
          </ns3:TrackPointExtension>
        </extensions>
      </trkpt>
      <trkpt lat="45.31107849441468715667724609375" lon="-71.0670404322445392608642578125">
        <ele>770.5999755859375</ele>
        <time>2026-08-21T23:04:54.000Z</time>
        <extensions>
          <ns3:TrackPointExtension>
            <ns3:hr>127</ns3:hr>
            <ns3:cad>0</ns3:cad>
          </ns3:TrackPointExtension>
        </extensions>
      </trkpt>
      <trkpt lat="45.31108184717595577239990234375" lon="-71.06704495847225189208984375">
        <ele>770.4000244140625</ele>
        <time>2026-08-21T23:04:55.000Z</time>
        <extensions>
          <ns3:TrackPointExtension>
            <ns3:hr>126</ns3:hr>
            <ns3:cad>0</ns3:cad>
          </ns3:TrackPointExtension>
        </extensions>
      </trkpt>
      <trkpt lat="45.31108117662370204925537109375" lon="-71.067051328718662261962890625">
        <ele>770.4000244140625</ele>
        <time>2026-08-21T23:04:56.000Z</time>
        <extensions>
          <ns3:TrackPointExtension>
            <ns3:hr>126</ns3:hr>
            <ns3:cad>54</ns3:cad>
          </ns3:TrackPointExtension>
        </extensions>
      </trkpt>
      <trkpt lat="45.31107799150049686431884765625" lon="-71.0670622251927852630615234375">
        <ele>770.20001220703125</ele>
        <time>2026-08-21T23:04:57.000Z</time>
        <extensions>
          <ns3:TrackPointExtension>
            <ns3:hr>126</ns3:hr>
            <ns3:cad>54</ns3:cad>
          </ns3:TrackPointExtension>
        </extensions>
      </trkpt>
      <trkpt lat="45.31107044778764247894287109375" lon="-71.06707186438143253326416015625">
        <ele>770</ele>
        <time>2026-08-21T23:04:58.000Z</time>
        <extensions>
          <ns3:TrackPointExtension>
            <ns3:hr>126</ns3:hr>
            <ns3:cad>54</ns3:cad>
          </ns3:TrackPointExtension>
        </extensions>
      </trkpt>
      <trkpt lat="45.31106323935091495513916015625" lon="-71.06708359904587268829345703125">
        <ele>769.5999755859375</ele>
        <time>2026-08-21T23:04:59.000Z</time>
        <extensions>
          <ns3:TrackPointExtension>
            <ns3:hr>126</ns3:hr>
            <ns3:cad>54</ns3:cad>
          </ns3:TrackPointExtension>
        </extensions>
      </trkpt>
      <trkpt lat="45.3110517561435699462890625" lon="-71.06709265150129795074462890625">
        <ele>769.4000244140625</ele>
        <time>2026-08-21T23:05:00.000Z</time>
        <extensions>
          <ns3:TrackPointExtension>
            <ns3:hr>126</ns3:hr>
            <ns3:cad>54</ns3:cad>
          </ns3:TrackPointExtension>
        </extensions>
      </trkpt>
      <trkpt lat="45.31104245223104953765869140625" lon="-71.06709348969161510467529296875">
        <ele>769</ele>
        <time>2026-08-21T23:05:01.000Z</time>
        <extensions>
          <ns3:TrackPointExtension>
            <ns3:hr>126</ns3:hr>
            <ns3:cad>0</ns3:cad>
          </ns3:TrackPointExtension>
        </extensions>
      </trkpt>
      <trkpt lat="45.3110271133482456207275390625" lon="-71.0670913942158222198486328125">
        <ele>768.79998779296875</ele>
        <time>2026-08-21T23:05:02.000Z</time>
        <extensions>
          <ns3:TrackPointExtension>
            <ns3:hr>126</ns3:hr>
            <ns3:cad>0</ns3:cad>
          </ns3:TrackPointExtension>
        </extensions>
      </trkpt>
      <trkpt lat="45.31100674532353878021240234375" lon="-71.0670934058725833892822265625">
        <ele>768.4000244140625</ele>
        <time>2026-08-21T23:05:03.000Z</time>
        <extensions>
          <ns3:TrackPointExtension>
            <ns3:hr>125</ns3:hr>
            <ns3:cad>71</ns3:cad>
          </ns3:TrackPointExtension>
        </extensions>
      </trkpt>
      <trkpt lat="45.3109900653362274169921875" lon="-71.06708913110196590423583984375">
        <ele>768.4000244140625</ele>
        <time>2026-08-21T23:05:04.000Z</time>
        <extensions>
          <ns3:TrackPointExtension>
            <ns3:hr>126</ns3:hr>
            <ns3:cad>71</ns3:cad>
          </ns3:TrackPointExtension>
        </extensions>
      </trkpt>
      <trkpt lat="45.3109739720821380615234375" lon="-71.0670950822532176971435546875">
        <ele>768.4000244140625</ele>
        <time>2026-08-21T23:05:05.000Z</time>
        <extensions>
          <ns3:TrackPointExtension>
            <ns3:hr>126</ns3:hr>
            <ns3:cad>71</ns3:cad>
          </ns3:TrackPointExtension>
        </extensions>
      </trkpt>
      <trkpt lat="45.31095796264708042144775390625" lon="-71.0671006143093109130859375">
        <ele>768.20001220703125</ele>
        <time>2026-08-21T23:05:06.000Z</time>
        <extensions>
          <ns3:TrackPointExtension>
            <ns3:hr>126</ns3:hr>
            <ns3:cad>71</ns3:cad>
          </ns3:TrackPointExtension>
        </extensions>
      </trkpt>
      <trkpt lat="45.31094421632587909698486328125" lon="-71.0671061463654041290283203125">
        <ele>768.20001220703125</ele>
        <time>2026-08-21T23:05:07.000Z</time>
        <extensions>
          <ns3:TrackPointExtension>
            <ns3:hr>126</ns3:hr>
            <ns3:cad>71</ns3:cad>
          </ns3:TrackPointExtension>
        </extensions>
      </trkpt>
      <trkpt lat="45.31092678196728229522705078125" lon="-71.06711662374436855316162109375">
        <ele>768.20001220703125</ele>
        <time>2026-08-21T23:05:08.000Z</time>
        <extensions>
          <ns3:TrackPointExtension>
            <ns3:hr>127</ns3:hr>
            <ns3:cad>71</ns3:cad>
          </ns3:TrackPointExtension>
        </extensions>
      </trkpt>
      <trkpt lat="45.310911275446414947509765625" lon="-71.06712634675204753875732421875">
        <ele>768.20001220703125</ele>
        <time>2026-08-21T23:05:09.000Z</time>
        <extensions>
          <ns3:TrackPointExtension>
            <ns3:hr>127</ns3:hr>
            <ns3:cad>71</ns3:cad>
          </ns3:TrackPointExtension>
        </extensions>
      </trkpt>
      <trkpt lat="45.3108896501362323760986328125" lon="-71.0671369917690753936767578125">
        <ele>768</ele>
        <time>2026-08-21T23:05:10.000Z</time>
        <extensions>
          <ns3:TrackPointExtension>
            <ns3:hr>127</ns3:hr>
            <ns3:cad>0</ns3:cad>
          </ns3:TrackPointExtension>
        </extensions>
      </trkpt>
      <trkpt lat="45.3108735568821430206298828125" lon="-71.0671487264335155487060546875">
        <ele>767.79998779296875</ele>
        <time>2026-08-21T23:05:11.000Z</time>
        <extensions>
          <ns3:TrackPointExtension>
            <ns3:hr>127</ns3:hr>
            <ns3:cad>0</ns3:cad>
          </ns3:TrackPointExtension>
        </extensions>
      </trkpt>
      <trkpt lat="45.31085318885743618011474609375" lon="-71.06716339476406574249267578125">
        <ele>767.5999755859375</ele>
        <time>2026-08-21T23:05:12.000Z</time>
        <extensions>
          <ns3:TrackPointExtension>
            <ns3:hr>127</ns3:hr>
            <ns3:cad>0</ns3:cad>
          </ns3:TrackPointExtension>
        </extensions>
      </trkpt>
      <trkpt lat="45.3108370117843151092529296875" lon="-71.06717227958142757415771484375">
        <ele>767.4000244140625</ele>
        <time>2026-08-21T23:05:13.000Z</time>
        <extensions>
          <ns3:TrackPointExtension>
            <ns3:hr>128</ns3:hr>
            <ns3:cad>0</ns3:cad>
          </ns3:TrackPointExtension>
        </extensions>
      </trkpt>
      <trkpt lat="45.3108252771198749542236328125" lon="-71.06717613525688648223876953125">
        <ele>767</ele>
        <time>2026-08-21T23:05:14.000Z</time>
        <extensions>
          <ns3:TrackPointExtension>
            <ns3:hr>128</ns3:hr>
            <ns3:cad>0</ns3:cad>
          </ns3:TrackPointExtension>
        </extensions>
      </trkpt>
      <trkpt lat="45.31081094406545162200927734375" lon="-71.067179739475250244140625">
        <ele>767</ele>
        <time>2026-08-21T23:05:15.000Z</time>
        <extensions>
          <ns3:TrackPointExtension>
            <ns3:hr>128</ns3:hr>
            <ns3:cad>69</ns3:cad>
          </ns3:TrackPointExtension>
        </extensions>
      </trkpt>
      <trkpt lat="45.31080189161002635955810546875" lon="-71.06718041002750396728515625">
        <ele>766.79998779296875</ele>
        <time>2026-08-21T23:05:16.000Z</time>
        <extensions>
          <ns3:TrackPointExtension>
            <ns3:hr>129</ns3:hr>
            <ns3:cad>69</ns3:cad>
          </ns3:TrackPointExtension>
        </extensions>
      </trkpt>
      <trkpt lat="45.31078931875526905059814453125" lon="-71.06717236340045928955078125">
        <ele>766.79998779296875</ele>
        <time>2026-08-21T23:05:17.000Z</time>
        <extensions>
          <ns3:TrackPointExtension>
            <ns3:hr>129</ns3:hr>
            <ns3:cad>69</ns3:cad>
          </ns3:TrackPointExtension>
        </extensions>
      </trkpt>
      <trkpt lat="45.31077858991920948028564453125" lon="-71.06717395596206188201904296875">
        <ele>766.5999755859375</ele>
        <time>2026-08-21T23:05:18.000Z</time>
        <extensions>
          <ns3:TrackPointExtension>
            <ns3:hr>128</ns3:hr>
            <ns3:cad>69</ns3:cad>
          </ns3:TrackPointExtension>
        </extensions>
      </trkpt>
      <trkpt lat="45.31076786108314990997314453125" lon="-71.06717496179044246673583984375">
        <ele>766.4000244140625</ele>
        <time>2026-08-21T23:05:19.000Z</time>
        <extensions>
          <ns3:TrackPointExtension>
            <ns3:hr>128</ns3:hr>
            <ns3:cad>69</ns3:cad>
          </ns3:TrackPointExtension>
        </extensions>
      </trkpt>
      <trkpt lat="45.31075780279934406280517578125" lon="-71.06717982329428195953369140625">
        <ele>766</ele>
        <time>2026-08-21T23:05:20.000Z</time>
        <extensions>
          <ns3:TrackPointExtension>
            <ns3:hr>128</ns3:hr>
            <ns3:cad>68</ns3:cad>
          </ns3:TrackPointExtension>
        </extensions>
      </trkpt>
      <trkpt lat="45.31074875034391880035400390625" lon="-71.067184768617153167724609375">
        <ele>765.5999755859375</ele>
        <time>2026-08-21T23:05:21.000Z</time>
        <extensions>
          <ns3:TrackPointExtension>
            <ns3:hr>128</ns3:hr>
            <ns3:cad>68</ns3:cad>
          </ns3:TrackPointExtension>
        </extensions>
      </trkpt>
      <trkpt lat="45.31073953025043010711669921875" lon="-71.06718803755939006805419921875">
        <ele>765.20001220703125</ele>
        <time>2026-08-21T23:05:22.000Z</time>
        <extensions>
          <ns3:TrackPointExtension>
            <ns3:hr>128</ns3:hr>
            <ns3:cad>68</ns3:cad>
          </ns3:TrackPointExtension>
        </extensions>
      </trkpt>
      <trkpt lat="45.31073031015694141387939453125" lon="-71.06719139032065868377685546875">
        <ele>764.79998779296875</ele>
        <time>2026-08-21T23:05:23.000Z</time>
        <extensions>
          <ns3:TrackPointExtension>
            <ns3:hr>128</ns3:hr>
            <ns3:cad>68</ns3:cad>
          </ns3:TrackPointExtension>
        </extensions>
      </trkpt>
      <trkpt lat="45.3107206709682941436767578125" lon="-71.067195832729339599609375">
        <ele>764.20001220703125</ele>
        <time>2026-08-21T23:05:24.000Z</time>
        <extensions>
          <ns3:TrackPointExtension>
            <ns3:hr>128</ns3:hr>
            <ns3:cad>68</ns3:cad>
          </ns3:TrackPointExtension>
        </extensions>
      </trkpt>
      <trkpt lat="45.31071488745510578155517578125" lon="-71.06720186769962310791015625">
        <ele>763.79998779296875</ele>
        <time>2026-08-21T23:05:25.000Z</time>
        <extensions>
          <ns3:TrackPointExtension>
            <ns3:hr>127</ns3:hr>
            <ns3:cad>43</ns3:cad>
          </ns3:TrackPointExtension>
        </extensions>
      </trkpt>
      <trkpt lat="45.310710109770298004150390625" lon="-71.06720480136573314666748046875">
        <ele>763.20001220703125</ele>
        <time>2026-08-21T23:05:26.000Z</time>
        <extensions>
          <ns3:TrackPointExtension>
            <ns3:hr>127</ns3:hr>
            <ns3:cad>43</ns3:cad>
          </ns3:TrackPointExtension>
        </extensions>
      </trkpt>
      <trkpt lat="45.31069971621036529541015625" lon="-71.0672063939273357391357421875">
        <ele>762.5999755859375</ele>
        <time>2026-08-21T23:05:27.000Z</time>
        <extensions>
          <ns3:TrackPointExtension>
            <ns3:hr>127</ns3:hr>
            <ns3:cad>43</ns3:cad>
          </ns3:TrackPointExtension>
        </extensions>
      </trkpt>
      <trkpt lat="45.31069301068782806396484375" lon="-71.0672159492969512939453125">
        <ele>762.20001220703125</ele>
        <time>2026-08-21T23:05:28.000Z</time>
        <extensions>
          <ns3:TrackPointExtension>
            <ns3:hr>128</ns3:hr>
            <ns3:cad>43</ns3:cad>
          </ns3:TrackPointExtension>
        </extensions>
      </trkpt>
      <trkpt lat="45.31068504787981510162353515625" lon="-71.0672281868755817413330078125">
        <ele>761.79998779296875</ele>
        <time>2026-08-21T23:05:29.000Z</time>
        <extensions>
          <ns3:TrackPointExtension>
            <ns3:hr>128</ns3:hr>
            <ns3:cad>43</ns3:cad>
          </ns3:TrackPointExtension>
        </extensions>
      </trkpt>
      <trkpt lat="45.3106754086911678314208984375" lon="-71.0672369040548801422119140625">
        <ele>761.4000244140625</ele>
        <time>2026-08-21T23:05:30.000Z</time>
        <extensions>
          <ns3:TrackPointExtension>
            <ns3:hr>127</ns3:hr>
            <ns3:cad>43</ns3:cad>
          </ns3:TrackPointExtension>
        </extensions>
      </trkpt>
      <trkpt lat="45.310663841664791107177734375" lon="-71.067243106663227081298828125">
        <ele>760.79998779296875</ele>
        <time>2026-08-21T23:05:31.000Z</time>
        <extensions>
          <ns3:TrackPointExtension>
            <ns3:hr>127</ns3:hr>
            <ns3:cad>43</ns3:cad>
          </ns3:TrackPointExtension>
        </extensions>
      </trkpt>
      <trkpt lat="45.3106462396681308746337890625" lon="-71.06725090183317661285400390625">
        <ele>760.20001220703125</ele>
        <time>2026-08-21T23:05:32.000Z</time>
        <extensions>
          <ns3:TrackPointExtension>
            <ns3:hr>127</ns3:hr>
            <ns3:cad>0</ns3:cad>
          </ns3:TrackPointExtension>
        </extensions>
      </trkpt>
      <trkpt lat="45.31063408590853214263916015625" lon="-71.06726028956472873687744140625">
        <ele>759.79998779296875</ele>
        <time>2026-08-21T23:05:33.000Z</time>
        <extensions>
          <ns3:TrackPointExtension>
            <ns3:hr>126</ns3:hr>
            <ns3:cad>0</ns3:cad>
          </ns3:TrackPointExtension>
        </extensions>
      </trkpt>
      <trkpt lat="45.31062033958733081817626953125" lon="-71.067270599305629730224609375">
        <ele>759.20001220703125</ele>
        <time>2026-08-21T23:05:34.000Z</time>
        <extensions>
          <ns3:TrackPointExtension>
            <ns3:hr>126</ns3:hr>
            <ns3:cad>77</ns3:cad>
          </ns3:TrackPointExtension>
        </extensions>
      </trkpt>
      <trkpt lat="45.3106066770851612091064453125" lon="-71.0672851838171482086181640625">
        <ele>758.79998779296875</ele>
        <time>2026-08-21T23:05:35.000Z</time>
        <extensions>
          <ns3:TrackPointExtension>
            <ns3:hr>126</ns3:hr>
            <ns3:cad>77</ns3:cad>
          </ns3:TrackPointExtension>
        </extensions>
      </trkpt>
      <trkpt lat="45.3105915896594524383544921875" lon="-71.06730219908058643341064453125">
        <ele>758.20001220703125</ele>
        <time>2026-08-21T23:05:36.000Z</time>
        <extensions>
          <ns3:TrackPointExtension>
            <ns3:hr>125</ns3:hr>
            <ns3:cad>77</ns3:cad>
          </ns3:TrackPointExtension>
        </extensions>
      </trkpt>
      <trkpt lat="45.310573317110538482666015625" lon="-71.06731493957340717315673828125">
        <ele>757.5999755859375</ele>
        <time>2026-08-21T23:05:37.000Z</time>
        <extensions>
          <ns3:TrackPointExtension>
            <ns3:hr>125</ns3:hr>
            <ns3:cad>68</ns3:cad>
          </ns3:TrackPointExtension>
        </extensions>
      </trkpt>
      <trkpt lat="45.31055948697030544281005859375" lon="-71.06733639724552631378173828125">
        <ele>757.20001220703125</ele>
        <time>2026-08-21T23:05:38.000Z</time>
        <extensions>
          <ns3:TrackPointExtension>
            <ns3:hr>123</ns3:hr>
            <ns3:cad>68</ns3:cad>
          </ns3:TrackPointExtension>
        </extensions>
      </trkpt>
      <trkpt lat="45.31054875813424587249755859375" lon="-71.067353747785091400146484375">
        <ele>756.5999755859375</ele>
        <time>2026-08-21T23:05:39.000Z</time>
        <extensions>
          <ns3:TrackPointExtension>
            <ns3:hr>123</ns3:hr>
            <ns3:cad>0</ns3:cad>
          </ns3:TrackPointExtension>
        </extensions>
      </trkpt>
      <trkpt lat="45.31053744256496429443359375" lon="-71.06737218797206878662109375">
        <ele>756</ele>
        <time>2026-08-21T23:05:40.000Z</time>
        <extensions>
          <ns3:TrackPointExtension>
            <ns3:hr>122</ns3:hr>
            <ns3:cad>0</ns3:cad>
          </ns3:TrackPointExtension>
        </extensions>
      </trkpt>
      <trkpt lat="45.31053383834660053253173828125" lon="-71.06740613467991352081298828125">
        <ele>755.79998779296875</ele>
        <time>2026-08-21T23:05:41.000Z</time>
        <extensions>
          <ns3:TrackPointExtension>
            <ns3:hr>122</ns3:hr>
            <ns3:cad>0</ns3:cad>
          </ns3:TrackPointExtension>
        </extensions>
      </trkpt>
      <trkpt lat="45.31053006649017333984375" lon="-71.0674313642084598541259765625">
        <ele>755.5999755859375</ele>
        <time>2026-08-21T23:05:42.000Z</time>
        <extensions>
          <ns3:TrackPointExtension>
            <ns3:hr>122</ns3:hr>
            <ns3:cad>0</ns3:cad>
          </ns3:TrackPointExtension>
        </extensions>
      </trkpt>
      <trkpt lat="45.31052612699568271636962890625" lon="-71.0674534924328327178955078125">
        <ele>755.4000244140625</ele>
        <time>2026-08-21T23:05:43.000Z</time>
        <extensions>
          <ns3:TrackPointExtension>
            <ns3:hr>122</ns3:hr>
            <ns3:cad>0</ns3:cad>
          </ns3:TrackPointExtension>
        </extensions>
      </trkpt>
      <trkpt lat="45.31052361242473125457763671875" lon="-71.067483834922313690185546875">
        <ele>755.4000244140625</ele>
        <time>2026-08-21T23:05:44.000Z</time>
        <extensions>
          <ns3:TrackPointExtension>
            <ns3:hr>121</ns3:hr>
            <ns3:cad>0</ns3:cad>
          </ns3:TrackPointExtension>
        </extensions>
      </trkpt>
      <trkpt lat="45.31052009202539920806884765625" lon="-71.06750789098441600799560546875">
        <ele>755.4000244140625</ele>
        <time>2026-08-21T23:05:45.000Z</time>
        <extensions>
          <ns3:TrackPointExtension>
            <ns3:hr>122</ns3:hr>
            <ns3:cad>0</ns3:cad>
          </ns3:TrackPointExtension>
        </extensions>
      </trkpt>
      <trkpt lat="45.31051841564476490020751953125" lon="-71.0675285942852497100830078125">
        <ele>755.4000244140625</ele>
        <time>2026-08-21T23:05:46.000Z</time>
        <extensions>
          <ns3:TrackPointExtension>
            <ns3:hr>122</ns3:hr>
            <ns3:cad>0</ns3:cad>
          </ns3:TrackPointExtension>
        </extensions>
      </trkpt>
      <trkpt lat="45.31051523052155971527099609375" lon="-71.06754711829125881195068359375">
        <ele>755.4000244140625</ele>
        <time>2026-08-21T23:05:47.000Z</time>
        <extensions>
          <ns3:TrackPointExtension>
            <ns3:hr>122</ns3:hr>
            <ns3:cad>0</ns3:cad>
          </ns3:TrackPointExtension>
        </extensions>
      </trkpt>
      <trkpt lat="45.31051254831254482269287109375" lon="-71.0675627924501895904541015625">
        <ele>755.4000244140625</ele>
        <time>2026-08-21T23:05:48.000Z</time>
        <extensions>
          <ns3:TrackPointExtension>
            <ns3:hr>122</ns3:hr>
            <ns3:cad>0</ns3:cad>
          </ns3:TrackPointExtension>
        </extensions>
      </trkpt>
      <trkpt lat="45.3105097822844982147216796875" lon="-71.06758944690227508544921875">
        <ele>755.4000244140625</ele>
        <time>2026-08-21T23:05:49.000Z</time>
        <extensions>
          <ns3:TrackPointExtension>
            <ns3:hr>122</ns3:hr>
            <ns3:cad>0</ns3:cad>
          </ns3:TrackPointExtension>
        </extensions>
      </trkpt>
      <trkpt lat="45.310503579676151275634765625" lon="-71.0676140896975994110107421875">
        <ele>755.4000244140625</ele>
        <time>2026-08-21T23:05:50.000Z</time>
        <extensions>
          <ns3:TrackPointExtension>
            <ns3:hr>122</ns3:hr>
            <ns3:cad>0</ns3:cad>
          </ns3:TrackPointExtension>
        </extensions>
      </trkpt>
      <trkpt lat="45.3104926832020282745361328125" lon="-71.0676263272762298583984375">
        <ele>755.4000244140625</ele>
        <time>2026-08-21T23:05:51.000Z</time>
        <extensions>
          <ns3:TrackPointExtension>
            <ns3:hr>123</ns3:hr>
            <ns3:cad>68</ns3:cad>
          </ns3:TrackPointExtension>
        </extensions>
      </trkpt>
      <trkpt lat="45.310490168631076812744140625" lon="-71.06764904223382472991943359375">
        <ele>755.4000244140625</ele>
        <time>2026-08-21T23:05:52.000Z</time>
        <extensions>
          <ns3:TrackPointExtension>
            <ns3:hr>123</ns3:hr>
            <ns3:cad>68</ns3:cad>
          </ns3:TrackPointExtension>
        </extensions>
      </trkpt>
      <trkpt lat="45.31048321165144443511962890625" lon="-71.06767150573432445526123046875">
        <ele>755.4000244140625</ele>
        <time>2026-08-21T23:05:53.000Z</time>
        <extensions>
          <ns3:TrackPointExtension>
            <ns3:hr>123</ns3:hr>
            <ns3:cad>68</ns3:cad>
          </ns3:TrackPointExtension>
        </extensions>
      </trkpt>
      <trkpt lat="45.31047600321471691131591796875" lon="-71.0677009262144565582275390625">
        <ele>755.4000244140625</ele>
        <time>2026-08-21T23:05:54.000Z</time>
        <extensions>
          <ns3:TrackPointExtension>
            <ns3:hr>122</ns3:hr>
            <ns3:cad>66</ns3:cad>
          </ns3:TrackPointExtension>
        </extensions>
      </trkpt>
      <trkpt lat="45.310476757586002349853515625" lon="-71.067718528211116790771484375">
        <ele>755.4000244140625</ele>
        <time>2026-08-21T23:05:55.000Z</time>
        <extensions>
          <ns3:TrackPointExtension>
            <ns3:hr>122</ns3:hr>
            <ns3:cad>66</ns3:cad>
          </ns3:TrackPointExtension>
        </extensions>
      </trkpt>
      <trkpt lat="45.3104739077389240264892578125" lon="-71.06774090789258480072021484375">
        <ele>755.20001220703125</ele>
        <time>2026-08-21T23:05:56.000Z</time>
        <extensions>
          <ns3:TrackPointExtension>
            <ns3:hr>121</ns3:hr>
            <ns3:cad>67</ns3:cad>
          </ns3:TrackPointExtension>
        </extensions>
      </trkpt>
      <trkpt lat="45.3104692138731479644775390625" lon="-71.06776135973632335662841796875">
        <ele>755.20001220703125</ele>
        <time>2026-08-21T23:05:57.000Z</time>
        <extensions>
          <ns3:TrackPointExtension>
            <ns3:hr>121</ns3:hr>
            <ns3:cad>67</ns3:cad>
          </ns3:TrackPointExtension>
        </extensions>
      </trkpt>
      <trkpt lat="45.31046644784510135650634765625" lon="-71.067780219018459320068359375">
        <ele>755.20001220703125</ele>
        <time>2026-08-21T23:05:58.000Z</time>
        <extensions>
          <ns3:TrackPointExtension>
            <ns3:hr>121</ns3:hr>
            <ns3:cad>69</ns3:cad>
          </ns3:TrackPointExtension>
        </extensions>
      </trkpt>
      <trkpt lat="45.31046292744576930999755859375" lon="-71.06779404915869235992431640625">
        <ele>755</ele>
        <time>2026-08-21T23:05:59.000Z</time>
        <extensions>
          <ns3:TrackPointExtension>
            <ns3:hr>121</ns3:hr>
            <ns3:cad>68</ns3:cad>
          </ns3:TrackPointExtension>
        </extensions>
      </trkpt>
      <trkpt lat="45.31045957468450069427490234375" lon="-71.0678105615079402923583984375">
        <ele>755</ele>
        <time>2026-08-21T23:06:00.000Z</time>
        <extensions>
          <ns3:TrackPointExtension>
            <ns3:hr>121</ns3:hr>
            <ns3:cad>68</ns3:cad>
          </ns3:TrackPointExtension>
        </extensions>
      </trkpt>
      <trkpt lat="45.31045538373291492462158203125" lon="-71.0678253136575222015380859375">
        <ele>754.79998779296875</ele>
        <time>2026-08-21T23:06:01.000Z</time>
        <extensions>
          <ns3:TrackPointExtension>
            <ns3:hr>121</ns3:hr>
            <ns3:cad>63</ns3:cad>
          </ns3:TrackPointExtension>
        </extensions>
      </trkpt>
      <trkpt lat="45.31045169569551944732666015625" lon="-71.06784165836870670318603515625">
        <ele>754.79998779296875</ele>
        <time>2026-08-21T23:06:02.000Z</time>
        <extensions>
          <ns3:TrackPointExtension>
            <ns3:hr>122</ns3:hr>
            <ns3:cad>63</ns3:cad>
          </ns3:TrackPointExtension>
        </extensions>
      </trkpt>
      <trkpt lat="45.31044499017298221588134765625" lon="-71.0678591765463352203369140625">
        <ele>754.5999755859375</ele>
        <time>2026-08-21T23:06:03.000Z</time>
        <extensions>
          <ns3:TrackPointExtension>
            <ns3:hr>122</ns3:hr>
            <ns3:cad>63</ns3:cad>
          </ns3:TrackPointExtension>
        </extensions>
      </trkpt>
      <trkpt lat="45.310437195003032684326171875" lon="-71.06787635944783687591552734375">
        <ele>754.4000244140625</ele>
        <time>2026-08-21T23:06:04.000Z</time>
        <extensions>
          <ns3:TrackPointExtension>
            <ns3:hr>122</ns3:hr>
            <ns3:cad>63</ns3:cad>
          </ns3:TrackPointExtension>
        </extensions>
      </trkpt>
      <trkpt lat="45.31043124385178089141845703125" lon="-71.06789664365351200103759765625">
        <ele>754.4000244140625</ele>
        <time>2026-08-21T23:06:05.000Z</time>
        <extensions>
          <ns3:TrackPointExtension>
            <ns3:hr>123</ns3:hr>
            <ns3:cad>0</ns3:cad>
          </ns3:TrackPointExtension>
        </extensions>
      </trkpt>
      <trkpt lat="45.310423783957958221435546875" lon="-71.06792472302913665771484375">
        <ele>754.4000244140625</ele>
        <time>2026-08-21T23:06:06.000Z</time>
        <extensions>
          <ns3:TrackPointExtension>
            <ns3:hr>123</ns3:hr>
            <ns3:cad>0</ns3:cad>
          </ns3:TrackPointExtension>
        </extensions>
      </trkpt>
      <trkpt lat="45.31041867099702358245849609375" lon="-71.067956574261188507080078125">
        <ele>754.4000244140625</ele>
        <time>2026-08-21T23:06:07.000Z</time>
        <extensions>
          <ns3:TrackPointExtension>
            <ns3:hr>123</ns3:hr>
            <ns3:cad>0</ns3:cad>
          </ns3:TrackPointExtension>
        </extensions>
      </trkpt>
      <trkpt lat="45.31041540205478668212890625" lon="-71.067978031933307647705078125">
        <ele>754.4000244140625</ele>
        <time>2026-08-21T23:06:08.000Z</time>
        <extensions>
          <ns3:TrackPointExtension>
            <ns3:hr>123</ns3:hr>
            <ns3:cad>0</ns3:cad>
          </ns3:TrackPointExtension>
        </extensions>
      </trkpt>
      <trkpt lat="45.31040861271321773529052734375" lon="-71.06800443492829799652099609375">
        <ele>754.4000244140625</ele>
        <time>2026-08-21T23:06:09.000Z</time>
        <extensions>
          <ns3:TrackPointExtension>
            <ns3:hr>123</ns3:hr>
            <ns3:cad>0</ns3:cad>
          </ns3:TrackPointExtension>
        </extensions>
      </trkpt>
      <trkpt lat="45.3104011528193950653076171875" lon="-71.06803025119006633758544921875">
        <ele>754.4000244140625</ele>
        <time>2026-08-21T23:06:10.000Z</time>
        <extensions>
          <ns3:TrackPointExtension>
            <ns3:hr>123</ns3:hr>
            <ns3:cad>73</ns3:cad>
          </ns3:TrackPointExtension>
        </extensions>
      </trkpt>
      <trkpt lat="45.310396291315555572509765625" lon="-71.06805237941443920135498046875">
        <ele>754.4000244140625</ele>
        <time>2026-08-21T23:06:11.000Z</time>
        <extensions>
          <ns3:TrackPointExtension>
            <ns3:hr>123</ns3:hr>
            <ns3:cad>73</ns3:cad>
          </ns3:TrackPointExtension>
        </extensions>
      </trkpt>
      <trkpt lat="45.3103904239833354949951171875" lon="-71.068077273666858673095703125">
        <ele>754.4000244140625</ele>
        <time>2026-08-21T23:06:12.000Z</time>
        <extensions>
          <ns3:TrackPointExtension>
            <ns3:hr>124</ns3:hr>
            <ns3:cad>73</ns3:cad>
          </ns3:TrackPointExtension>
        </extensions>
      </trkpt>
      <trkpt lat="45.31038992106914520263671875" lon="-71.06809713877737522125244140625">
        <ele>754.4000244140625</ele>
        <time>2026-08-21T23:06:13.000Z</time>
        <extensions>
          <ns3:TrackPointExtension>
            <ns3:hr>124</ns3:hr>
            <ns3:cad>73</ns3:cad>
          </ns3:TrackPointExtension>
        </extensions>
      </trkpt>
      <trkpt lat="45.31038547866046428680419921875" lon="-71.06811725534498691558837890625">
        <ele>754.4000244140625</ele>
        <time>2026-08-21T23:06:14.000Z</time>
        <extensions>
          <ns3:TrackPointExtension>
            <ns3:hr>124</ns3:hr>
            <ns3:cad>73</ns3:cad>
          </ns3:TrackPointExtension>
        </extensions>
      </trkpt>
      <trkpt lat="45.31038363464176654815673828125" lon="-71.0681257210671901702880859375">
        <ele>754.5999755859375</ele>
        <time>2026-08-21T23:06:15.000Z</time>
        <extensions>
          <ns3:TrackPointExtension>
            <ns3:hr>125</ns3:hr>
            <ns3:cad>0</ns3:cad>
          </ns3:TrackPointExtension>
        </extensions>
      </trkpt>
      <trkpt lat="45.310385227203369140625" lon="-71.0681357793509960174560546875">
        <ele>754.5999755859375</ele>
        <time>2026-08-21T23:06:16.000Z</time>
        <extensions>
          <ns3:TrackPointExtension>
            <ns3:hr>125</ns3:hr>
            <ns3:cad>0</ns3:cad>
          </ns3:TrackPointExtension>
        </extensions>
      </trkpt>
      <trkpt lat="45.31038497574627399444580078125" lon="-71.0681387968361377716064453125">
        <ele>754.79998779296875</ele>
        <time>2026-08-21T23:06:17.000Z</time>
        <extensions>
          <ns3:TrackPointExtension>
            <ns3:hr>125</ns3:hr>
            <ns3:cad>0</ns3:cad>
          </ns3:TrackPointExtension>
        </extensions>
      </trkpt>
      <trkpt lat="45.310379527509212493896484375" lon="-71.068147681653499603271484375">
        <ele>754.79998779296875</ele>
        <time>2026-08-21T23:06:18.000Z</time>
        <extensions>
          <ns3:TrackPointExtension>
            <ns3:hr>125</ns3:hr>
            <ns3:cad>0</ns3:cad>
          </ns3:TrackPointExtension>
        </extensions>
      </trkpt>
      <trkpt lat="45.3103709779679775238037109375" lon="-71.06815832667052745819091796875">
        <ele>754.5999755859375</ele>
        <time>2026-08-21T23:06:19.000Z</time>
        <extensions>
          <ns3:TrackPointExtension>
            <ns3:hr>124</ns3:hr>
            <ns3:cad>0</ns3:cad>
          </ns3:TrackPointExtension>
        </extensions>
      </trkpt>
      <trkpt lat="45.3103625960648059844970703125" lon="-71.0681723244488239288330078125">
        <ele>754.4000244140625</ele>
        <time>2026-08-21T23:06:20.000Z</time>
        <extensions>
          <ns3:TrackPointExtension>
            <ns3:hr>124</ns3:hr>
            <ns3:cad>0</ns3:cad>
          </ns3:TrackPointExtension>
        </extensions>
      </trkpt>
      <trkpt lat="45.31035446561872959136962890625" lon="-71.06819336302578449249267578125">
        <ele>754</ele>
        <time>2026-08-21T23:06:21.000Z</time>
        <extensions>
          <ns3:TrackPointExtension>
            <ns3:hr>124</ns3:hr>
            <ns3:cad>0</ns3:cad>
          </ns3:TrackPointExtension>
        </extensions>
      </trkpt>
      <trkpt lat="45.31034834682941436767578125" lon="-71.0682216100394725799560546875">
        <ele>753.79998779296875</ele>
        <time>2026-08-21T23:06:22.000Z</time>
        <extensions>
          <ns3:TrackPointExtension>
            <ns3:hr>124</ns3:hr>
            <ns3:cad>0</ns3:cad>
          </ns3:TrackPointExtension>
        </extensions>
      </trkpt>
      <trkpt lat="45.310344994068145751953125" lon="-71.06823510490357875823974609375">
        <ele>753.5999755859375</ele>
        <time>2026-08-21T23:06:23.000Z</time>
        <extensions>
          <ns3:TrackPointExtension>
            <ns3:hr>124</ns3:hr>
            <ns3:cad>0</ns3:cad>
          </ns3:TrackPointExtension>
        </extensions>
      </trkpt>
      <trkpt lat="45.31034172512590885162353515625" lon="-71.06826226226985454559326171875">
        <ele>753.5999755859375</ele>
        <time>2026-08-21T23:06:24.000Z</time>
        <extensions>
          <ns3:TrackPointExtension>
            <ns3:hr>123</ns3:hr>
            <ns3:cad>0</ns3:cad>
          </ns3:TrackPointExtension>
        </extensions>
      </trkpt>
      <trkpt lat="45.3103397972881793975830078125" lon="-71.06827475130558013916015625">
        <ele>753.4000244140625</ele>
        <time>2026-08-21T23:06:25.000Z</time>
        <extensions>
          <ns3:TrackPointExtension>
            <ns3:hr>123</ns3:hr>
            <ns3:cad>0</ns3:cad>
          </ns3:TrackPointExtension>
        </extensions>
      </trkpt>
      <trkpt lat="45.31033183448016643524169921875" lon="-71.0682849772274494171142578125">
        <ele>753.20001220703125</ele>
        <time>2026-08-21T23:06:26.000Z</time>
        <extensions>
          <ns3:TrackPointExtension>
            <ns3:hr>124</ns3:hr>
            <ns3:cad>0</ns3:cad>
          </ns3:TrackPointExtension>
        </extensions>
      </trkpt>
      <trkpt lat="45.310321860015392303466796875" lon="-71.0683027468621730804443359375">
        <ele>753</ele>
        <time>2026-08-21T23:06:27.000Z</time>
        <extensions>
          <ns3:TrackPointExtension>
            <ns3:hr>124</ns3:hr>
            <ns3:cad>0</ns3:cad>
          </ns3:TrackPointExtension>
        </extensions>
      </trkpt>
      <trkpt lat="45.3103159926831722259521484375" lon="-71.06832194142043590545654296875">
        <ele>752.79998779296875</ele>
        <time>2026-08-21T23:06:28.000Z</time>
        <extensions>
          <ns3:TrackPointExtension>
            <ns3:hr>124</ns3:hr>
            <ns3:cad>0</ns3:cad>
          </ns3:TrackPointExtension>
        </extensions>
      </trkpt>
      <trkpt lat="45.310310460627079010009765625" lon="-71.06833870522677898406982421875">
        <ele>752.4000244140625</ele>
        <time>2026-08-21T23:06:29.000Z</time>
        <extensions>
          <ns3:TrackPointExtension>
            <ns3:hr>124</ns3:hr>
            <ns3:cad>0</ns3:cad>
          </ns3:TrackPointExtension>
        </extensions>
      </trkpt>
      <trkpt lat="45.3103034198284149169921875" lon="-71.06835446320474147796630859375">
        <ele>752.20001220703125</ele>
        <time>2026-08-21T23:06:30.000Z</time>
        <extensions>
          <ns3:TrackPointExtension>
            <ns3:hr>124</ns3:hr>
            <ns3:cad>0</ns3:cad>
          </ns3:TrackPointExtension>
        </extensions>
      </trkpt>
      <trkpt lat="45.310295708477497100830078125" lon="-71.068368963897228240966796875">
        <ele>752</ele>
        <time>2026-08-21T23:06:31.000Z</time>
        <extensions>
          <ns3:TrackPointExtension>
            <ns3:hr>124</ns3:hr>
            <ns3:cad>0</ns3:cad>
          </ns3:TrackPointExtension>
        </extensions>
      </trkpt>
      <trkpt lat="45.31029528938233852386474609375" lon="-71.0683912597596645355224609375">
        <ele>751.5999755859375</ele>
        <time>2026-08-21T23:06:32.000Z</time>
        <extensions>
          <ns3:TrackPointExtension>
            <ns3:hr>124</ns3:hr>
            <ns3:cad>0</ns3:cad>
          </ns3:TrackPointExtension>
        </extensions>
      </trkpt>
      <trkpt lat="45.3102885000407695770263671875" lon="-71.06840886175632476806640625">
        <ele>751.20001220703125</ele>
        <time>2026-08-21T23:06:33.000Z</time>
        <extensions>
          <ns3:TrackPointExtension>
            <ns3:hr>123</ns3:hr>
            <ns3:cad>0</ns3:cad>
          </ns3:TrackPointExtension>
        </extensions>
      </trkpt>
      <trkpt lat="45.31028003431856632232666015625" lon="-71.06842403300106525421142578125">
        <ele>751</ele>
        <time>2026-08-21T23:06:34.000Z</time>
        <extensions>
          <ns3:TrackPointExtension>
            <ns3:hr>124</ns3:hr>
            <ns3:cad>0</ns3:cad>
          </ns3:TrackPointExtension>
        </extensions>
      </trkpt>
      <trkpt lat="45.31027416698634624481201171875" lon="-71.0684485919773578643798828125">
        <ele>750.5999755859375</ele>
        <time>2026-08-21T23:06:35.000Z</time>
        <extensions>
          <ns3:TrackPointExtension>
            <ns3:hr>124</ns3:hr>
            <ns3:cad>0</ns3:cad>
          </ns3:TrackPointExtension>
        </extensions>
      </trkpt>
      <trkpt lat="45.3102730773389339447021484375" lon="-71.06846879236400127410888671875">
        <ele>750.20001220703125</ele>
        <time>2026-08-21T23:06:36.000Z</time>
        <extensions>
          <ns3:TrackPointExtension>
            <ns3:hr>124</ns3:hr>
            <ns3:cad>0</ns3:cad>
          </ns3:TrackPointExtension>
        </extensions>
      </trkpt>
      <trkpt lat="45.31026746146380901336669921875" lon="-71.06849108822643756866455078125">
        <ele>750</ele>
        <time>2026-08-21T23:06:37.000Z</time>
        <extensions>
          <ns3:TrackPointExtension>
            <ns3:hr>124</ns3:hr>
            <ns3:cad>0</ns3:cad>
          </ns3:TrackPointExtension>
        </extensions>
      </trkpt>
      <trkpt lat="45.31026109121739864349365234375" lon="-71.06851204298436641693115234375">
        <ele>750</ele>
        <time>2026-08-21T23:06:38.000Z</time>
        <extensions>
          <ns3:TrackPointExtension>
            <ns3:hr>125</ns3:hr>
            <ns3:cad>0</ns3:cad>
          </ns3:TrackPointExtension>
        </extensions>
      </trkpt>
      <trkpt lat="45.3102546371519565582275390625" lon="-71.0685243643820285797119140625">
        <ele>749.79998779296875</ele>
        <time>2026-08-21T23:06:39.000Z</time>
        <extensions>
          <ns3:TrackPointExtension>
            <ns3:hr>125</ns3:hr>
            <ns3:cad>0</ns3:cad>
          </ns3:TrackPointExtension>
        </extensions>
      </trkpt>
      <trkpt lat="45.3102509491145610809326171875" lon="-71.06854272074997425079345703125">
        <ele>749.79998779296875</ele>
        <time>2026-08-21T23:06:40.000Z</time>
        <extensions>
          <ns3:TrackPointExtension>
            <ns3:hr>125</ns3:hr>
            <ns3:cad>0</ns3:cad>
          </ns3:TrackPointExtension>
        </extensions>
      </trkpt>
      <trkpt lat="45.310245417058467864990234375" lon="-71.06856132857501506805419921875">
        <ele>749.79998779296875</ele>
        <time>2026-08-21T23:06:41.000Z</time>
        <extensions>
          <ns3:TrackPointExtension>
            <ns3:hr>125</ns3:hr>
            <ns3:cad>0</ns3:cad>
          </ns3:TrackPointExtension>
        </extensions>
      </trkpt>
      <trkpt lat="45.31024365685880184173583984375" lon="-71.06857541017234325408935546875">
        <ele>749.79998779296875</ele>
        <time>2026-08-21T23:06:42.000Z</time>
        <extensions>
          <ns3:TrackPointExtension>
            <ns3:hr>125</ns3:hr>
            <ns3:cad>0</ns3:cad>
          </ns3:TrackPointExtension>
        </extensions>
      </trkpt>
      <trkpt lat="45.3102395497262477874755859375" lon="-71.06859250925481319427490234375">
        <ele>749.79998779296875</ele>
        <time>2026-08-21T23:06:43.000Z</time>
        <extensions>
          <ns3:TrackPointExtension>
            <ns3:hr>125</ns3:hr>
            <ns3:cad>0</ns3:cad>
          </ns3:TrackPointExtension>
        </extensions>
      </trkpt>
      <trkpt lat="45.31023141928017139434814453125" lon="-71.0686105303466320037841796875">
        <ele>749.79998779296875</ele>
        <time>2026-08-21T23:06:44.000Z</time>
        <extensions>
          <ns3:TrackPointExtension>
            <ns3:hr>124</ns3:hr>
            <ns3:cad>57</ns3:cad>
          </ns3:TrackPointExtension>
        </extensions>
      </trkpt>
      <trkpt lat="45.31022722832858562469482421875" lon="-71.06862352229654788970947265625">
        <ele>749.79998779296875</ele>
        <time>2026-08-21T23:06:45.000Z</time>
        <extensions>
          <ns3:TrackPointExtension>
            <ns3:hr>124</ns3:hr>
            <ns3:cad>57</ns3:cad>
          </ns3:TrackPointExtension>
        </extensions>
      </trkpt>
      <trkpt lat="45.31021784059703350067138671875" lon="-71.06863643042743206024169921875">
        <ele>749.79998779296875</ele>
        <time>2026-08-21T23:06:46.000Z</time>
        <extensions>
          <ns3:TrackPointExtension>
            <ns3:hr>123</ns3:hr>
            <ns3:cad>57</ns3:cad>
          </ns3:TrackPointExtension>
        </extensions>
      </trkpt>
      <trkpt lat="45.31020794995129108428955078125" lon="-71.06864196248352527618408203125">
        <ele>749.79998779296875</ele>
        <time>2026-08-21T23:06:47.000Z</time>
        <extensions>
          <ns3:TrackPointExtension>
            <ns3:hr>123</ns3:hr>
            <ns3:cad>57</ns3:cad>
          </ns3:TrackPointExtension>
        </extensions>
      </trkpt>
      <trkpt lat="45.31019680202007293701171875" lon="-71.06864917092025279998779296875">
        <ele>750</ele>
        <time>2026-08-21T23:06:48.000Z</time>
        <extensions>
          <ns3:TrackPointExtension>
            <ns3:hr>122</ns3:hr>
            <ns3:cad>57</ns3:cad>
          </ns3:TrackPointExtension>
        </extensions>
      </trkpt>
      <trkpt lat="45.3101892583072185516357421875" lon="-71.0686551220715045928955078125">
        <ele>750.20001220703125</ele>
        <time>2026-08-21T23:06:49.000Z</time>
        <extensions>
          <ns3:TrackPointExtension>
            <ns3:hr>121</ns3:hr>
            <ns3:cad>0</ns3:cad>
          </ns3:TrackPointExtension>
        </extensions>
      </trkpt>
      <trkpt lat="45.31017878092825412750244140625" lon="-71.06866769492626190185546875">
        <ele>750.4000244140625</ele>
        <time>2026-08-21T23:06:50.000Z</time>
        <extensions>
          <ns3:TrackPointExtension>
            <ns3:hr>119</ns3:hr>
            <ns3:cad>0</ns3:cad>
          </ns3:TrackPointExtension>
        </extensions>
      </trkpt>
      <trkpt lat="45.31017090193927288055419921875" lon="-71.06867331080138683319091796875">
        <ele>750.4000244140625</ele>
        <time>2026-08-21T23:06:51.000Z</time>
        <extensions>
          <ns3:TrackPointExtension>
            <ns3:hr>118</ns3:hr>
            <ns3:cad>0</ns3:cad>
          </ns3:TrackPointExtension>
        </extensions>
      </trkpt>
      <trkpt lat="45.31016017310321331024169921875" lon="-71.06867683120071887969970703125">
        <ele>750.5999755859375</ele>
        <time>2026-08-21T23:06:52.000Z</time>
        <extensions>
          <ns3:TrackPointExtension>
            <ns3:hr>117</ns3:hr>
            <ns3:cad>0</ns3:cad>
          </ns3:TrackPointExtension>
        </extensions>
      </trkpt>
      <trkpt lat="45.3101510368287563323974609375" lon="-71.068682111799716949462890625">
        <ele>750.79998779296875</ele>
        <time>2026-08-21T23:06:53.000Z</time>
        <extensions>
          <ns3:TrackPointExtension>
            <ns3:hr>116</ns3:hr>
            <ns3:cad>0</ns3:cad>
          </ns3:TrackPointExtension>
        </extensions>
      </trkpt>
      <trkpt lat="45.310142152011394500732421875" lon="-71.0686857998371124267578125">
        <ele>751</ele>
        <time>2026-08-21T23:06:54.000Z</time>
        <extensions>
          <ns3:TrackPointExtension>
            <ns3:hr>116</ns3:hr>
            <ns3:cad>0</ns3:cad>
          </ns3:TrackPointExtension>
        </extensions>
      </trkpt>
      <trkpt lat="45.31013318337500095367431640625" lon="-71.06869745068252086639404296875">
        <ele>751</ele>
        <time>2026-08-21T23:06:55.000Z</time>
        <extensions>
          <ns3:TrackPointExtension>
            <ns3:hr>115</ns3:hr>
            <ns3:cad>0</ns3:cad>
          </ns3:TrackPointExtension>
        </extensions>
      </trkpt>
      <trkpt lat="45.31012228690087795257568359375" lon="-71.068704910576343536376953125">
        <ele>750.79998779296875</ele>
        <time>2026-08-21T23:06:56.000Z</time>
        <extensions>
          <ns3:TrackPointExtension>
            <ns3:hr>115</ns3:hr>
            <ns3:cad>0</ns3:cad>
          </ns3:TrackPointExtension>
        </extensions>
      </trkpt>
      <trkpt lat="45.31011189334094524383544921875" lon="-71.0687111131846904754638671875">
        <ele>750.5999755859375</ele>
        <time>2026-08-21T23:06:57.000Z</time>
        <extensions>
          <ns3:TrackPointExtension>
            <ns3:hr>115</ns3:hr>
            <ns3:cad>0</ns3:cad>
          </ns3:TrackPointExtension>
        </extensions>
      </trkpt>
      <trkpt lat="45.3100995719432830810546875" lon="-71.06872024945914745330810546875">
        <ele>750.4000244140625</ele>
        <time>2026-08-21T23:06:58.000Z</time>
        <extensions>
          <ns3:TrackPointExtension>
            <ns3:hr>116</ns3:hr>
            <ns3:cad>0</ns3:cad>
          </ns3:TrackPointExtension>
        </extensions>
      </trkpt>
      <trkpt lat="45.3100876696407794952392578125" lon="-71.06872661970555782318115234375">
        <ele>750.20001220703125</ele>
        <time>2026-08-21T23:06:59.000Z</time>
        <extensions>
          <ns3:TrackPointExtension>
            <ns3:hr>116</ns3:hr>
            <ns3:cad>0</ns3:cad>
          </ns3:TrackPointExtension>
        </extensions>
      </trkpt>
      <trkpt lat="45.3100782819092273712158203125" lon="-71.06872410513460636138916015625">
        <ele>749.79998779296875</ele>
        <time>2026-08-21T23:07:00.000Z</time>
        <extensions>
          <ns3:TrackPointExtension>
            <ns3:hr>118</ns3:hr>
            <ns3:cad>0</ns3:cad>
          </ns3:TrackPointExtension>
        </extensions>
      </trkpt>
      <trkpt lat="45.31006797216832637786865234375" lon="-71.0687211714684963226318359375">
        <ele>749.79998779296875</ele>
        <time>2026-08-21T23:07:01.000Z</time>
        <extensions>
          <ns3:TrackPointExtension>
            <ns3:hr>121</ns3:hr>
            <ns3:cad>0</ns3:cad>
          </ns3:TrackPointExtension>
        </extensions>
      </trkpt>
      <trkpt lat="45.310052968561649322509765625" lon="-71.06871522031724452972412109375">
        <ele>749.79998779296875</ele>
        <time>2026-08-21T23:07:02.000Z</time>
        <extensions>
          <ns3:TrackPointExtension>
            <ns3:hr>122</ns3:hr>
            <ns3:cad>0</ns3:cad>
          </ns3:TrackPointExtension>
        </extensions>
      </trkpt>
      <trkpt lat="45.31004098244011402130126953125" lon="-71.06871186755597591400146484375">
        <ele>749.79998779296875</ele>
        <time>2026-08-21T23:07:03.000Z</time>
        <extensions>
          <ns3:TrackPointExtension>
            <ns3:hr>122</ns3:hr>
            <ns3:cad>0</ns3:cad>
          </ns3:TrackPointExtension>
        </extensions>
      </trkpt>
      <trkpt lat="45.31003813259303569793701171875" lon="-71.068710274994373321533203125">
        <ele>749.79998779296875</ele>
        <time>2026-08-21T23:07:04.000Z</time>
        <extensions>
          <ns3:TrackPointExtension>
            <ns3:hr>122</ns3:hr>
            <ns3:cad>0</ns3:cad>
          </ns3:TrackPointExtension>
        </extensions>
      </trkpt>
      <trkpt lat="45.31003142707049846649169921875" lon="-71.068708263337612152099609375">
        <ele>749.79998779296875</ele>
        <time>2026-08-21T23:07:05.000Z</time>
        <extensions>
          <ns3:TrackPointExtension>
            <ns3:hr>121</ns3:hr>
            <ns3:cad>0</ns3:cad>
          </ns3:TrackPointExtension>
        </extensions>
      </trkpt>
      <trkpt lat="45.3100300021469593048095703125" lon="-71.06870130635797977447509765625">
        <ele>749.79998779296875</ele>
        <time>2026-08-21T23:07:06.000Z</time>
        <extensions>
          <ns3:TrackPointExtension>
            <ns3:hr>121</ns3:hr>
            <ns3:cad>0</ns3:cad>
          </ns3:TrackPointExtension>
        </extensions>
      </trkpt>
      <trkpt lat="45.3100263141095638275146484375" lon="-71.068692840635776519775390625">
        <ele>749.79998779296875</ele>
        <time>2026-08-21T23:07:07.000Z</time>
        <extensions>
          <ns3:TrackPointExtension>
            <ns3:hr>121</ns3:hr>
            <ns3:cad>0</ns3:cad>
          </ns3:TrackPointExtension>
        </extensions>
      </trkpt>
      <trkpt lat="45.3100196085870265960693359375" lon="-71.06868118979036808013916015625">
        <ele>750</ele>
        <time>2026-08-21T23:07:08.000Z</time>
        <extensions>
          <ns3:TrackPointExtension>
            <ns3:hr>121</ns3:hr>
            <ns3:cad>0</ns3:cad>
          </ns3:TrackPointExtension>
        </extensions>
      </trkpt>
      <trkpt lat="45.310009382665157318115234375" lon="-71.06867632828652858734130859375">
        <ele>750</ele>
        <time>2026-08-21T23:07:09.000Z</time>
        <extensions>
          <ns3:TrackPointExtension>
            <ns3:hr>121</ns3:hr>
            <ns3:cad>0</ns3:cad>
          </ns3:TrackPointExtension>
        </extensions>
      </trkpt>
      <trkpt lat="45.30999756418168544769287109375" lon="-71.068665683269500732421875">
        <ele>750</ele>
        <time>2026-08-21T23:07:10.000Z</time>
        <extensions>
          <ns3:TrackPointExtension>
            <ns3:hr>121</ns3:hr>
            <ns3:cad>0</ns3:cad>
          </ns3:TrackPointExtension>
        </extensions>
      </trkpt>
      <trkpt lat="45.3099870868027210235595703125" lon="-71.06865185312926769256591796875">
        <ele>750.20001220703125</ele>
        <time>2026-08-21T23:07:11.000Z</time>
        <extensions>
          <ns3:TrackPointExtension>
            <ns3:hr>121</ns3:hr>
            <ns3:cad>0</ns3:cad>
          </ns3:TrackPointExtension>
        </extensions>
      </trkpt>
      <trkpt lat="45.309977866709232330322265625" lon="-71.06864481233060359954833984375">
        <ele>750.20001220703125</ele>
        <time>2026-08-21T23:07:12.000Z</time>
        <extensions>
          <ns3:TrackPointExtension>
            <ns3:hr>122</ns3:hr>
            <ns3:cad>0</ns3:cad>
          </ns3:TrackPointExtension>
        </extensions>
      </trkpt>
      <trkpt lat="45.309961102902889251708984375" lon="-71.06863726861774921417236328125">
        <ele>750.20001220703125</ele>
        <time>2026-08-21T23:07:13.000Z</time>
        <extensions>
          <ns3:TrackPointExtension>
            <ns3:hr>121</ns3:hr>
            <ns3:cad>0</ns3:cad>
          </ns3:TrackPointExtension>
        </extensions>
      </trkpt>
      <trkpt lat="45.3099468536674976348876953125" lon="-71.06863073073327541351318359375">
        <ele>750.20001220703125</ele>
        <time>2026-08-21T23:07:14.000Z</time>
        <extensions>
          <ns3:TrackPointExtension>
            <ns3:hr>121</ns3:hr>
            <ns3:cad>0</ns3:cad>
          </ns3:TrackPointExtension>
        </extensions>
      </trkpt>
      <trkpt lat="45.30992564745247364044189453125" lon="-71.06862754561007022857666015625">
        <ele>750.4000244140625</ele>
        <time>2026-08-21T23:07:15.000Z</time>
        <extensions>
          <ns3:TrackPointExtension>
            <ns3:hr>121</ns3:hr>
            <ns3:cad>0</ns3:cad>
          </ns3:TrackPointExtension>
        </extensions>
      </trkpt>
      <trkpt lat="45.3099079616367816925048828125" lon="-71.0686226002871990203857421875">
        <ele>750.4000244140625</ele>
        <time>2026-08-21T23:07:16.000Z</time>
        <extensions>
          <ns3:TrackPointExtension>
            <ns3:hr>121</ns3:hr>
            <ns3:cad>0</ns3:cad>
          </ns3:TrackPointExtension>
        </extensions>
      </trkpt>
      <trkpt lat="45.309890694916248321533203125" lon="-71.068621091544628143310546875">
        <ele>750.5999755859375</ele>
        <time>2026-08-21T23:07:17.000Z</time>
        <extensions>
          <ns3:TrackPointExtension>
            <ns3:hr>122</ns3:hr>
            <ns3:cad>15</ns3:cad>
          </ns3:TrackPointExtension>
        </extensions>
      </trkpt>
      <trkpt lat="45.30988306738436222076416015625" lon="-71.0686158947646617889404296875">
        <ele>750.79998779296875</ele>
        <time>2026-08-21T23:07:18.000Z</time>
        <extensions>
          <ns3:TrackPointExtension>
            <ns3:hr>122</ns3:hr>
            <ns3:cad>15</ns3:cad>
          </ns3:TrackPointExtension>
        </extensions>
      </trkpt>
      <trkpt lat="45.3098767809569835662841796875" lon="-71.06860843487083911895751953125">
        <ele>751</ele>
        <time>2026-08-21T23:07:19.000Z</time>
        <extensions>
          <ns3:TrackPointExtension>
            <ns3:hr>122</ns3:hr>
            <ns3:cad>15</ns3:cad>
          </ns3:TrackPointExtension>
        </extensions>
      </trkpt>
      <trkpt lat="45.30987116508185863494873046875" lon="-71.06860466301441192626953125">
        <ele>751.20001220703125</ele>
        <time>2026-08-21T23:07:20.000Z</time>
        <extensions>
          <ns3:TrackPointExtension>
            <ns3:hr>122</ns3:hr>
            <ns3:cad>0</ns3:cad>
          </ns3:TrackPointExtension>
        </extensions>
      </trkpt>
      <trkpt lat="45.30986060388386249542236328125" lon="-71.0686008073389530181884765625">
        <ele>751.5999755859375</ele>
        <time>2026-08-21T23:07:21.000Z</time>
        <extensions>
          <ns3:TrackPointExtension>
            <ns3:hr>122</ns3:hr>
            <ns3:cad>0</ns3:cad>
          </ns3:TrackPointExtension>
        </extensions>
      </trkpt>
      <trkpt lat="45.309851132333278656005859375" lon="-71.068599633872509002685546875">
        <ele>751.79998779296875</ele>
        <time>2026-08-21T23:07:22.000Z</time>
        <extensions>
          <ns3:TrackPointExtension>
            <ns3:hr>122</ns3:hr>
            <ns3:cad>0</ns3:cad>
          </ns3:TrackPointExtension>
        </extensions>
      </trkpt>
      <trkpt lat="45.30983763746917247772216796875" lon="-71.06859619729220867156982421875">
        <ele>752</ele>
        <time>2026-08-21T23:07:23.000Z</time>
        <extensions>
          <ns3:TrackPointExtension>
            <ns3:hr>122</ns3:hr>
            <ns3:cad>0</ns3:cad>
          </ns3:TrackPointExtension>
        </extensions>
      </trkpt>
      <trkpt lat="45.30982791446149349212646484375" lon="-71.0685894079506397247314453125">
        <ele>752.20001220703125</ele>
        <time>2026-08-21T23:07:24.000Z</time>
        <extensions>
          <ns3:TrackPointExtension>
            <ns3:hr>123</ns3:hr>
            <ns3:cad>0</ns3:cad>
          </ns3:TrackPointExtension>
        </extensions>
      </trkpt>
      <trkpt lat="45.309826321899890899658203125" lon="-71.068585552275180816650390625">
        <ele>752.20001220703125</ele>
        <time>2026-08-21T23:07:25.000Z</time>
        <extensions>
          <ns3:TrackPointExtension>
            <ns3:hr>123</ns3:hr>
            <ns3:cad>0</ns3:cad>
          </ns3:TrackPointExtension>
        </extensions>
      </trkpt>
      <trkpt lat="45.30982263386249542236328125" lon="-71.06858278624713420867919921875">
        <ele>752.5999755859375</ele>
        <time>2026-08-21T23:07:26.000Z</time>
        <extensions>
          <ns3:TrackPointExtension>
            <ns3:hr>123</ns3:hr>
            <ns3:cad>0</ns3:cad>
          </ns3:TrackPointExtension>
        </extensions>
      </trkpt>
      <trkpt lat="45.309814251959323883056640625" lon="-71.06858362443745136260986328125">
        <ele>752.79998779296875</ele>
        <time>2026-08-21T23:07:27.000Z</time>
        <extensions>
          <ns3:TrackPointExtension>
            <ns3:hr>124</ns3:hr>
            <ns3:cad>0</ns3:cad>
          </ns3:TrackPointExtension>
        </extensions>
      </trkpt>
      <trkpt lat="45.3098036907613277435302734375" lon="-71.068580858409404754638671875">
        <ele>753</ele>
        <time>2026-08-21T23:07:28.000Z</time>
        <extensions>
          <ns3:TrackPointExtension>
            <ns3:hr>124</ns3:hr>
            <ns3:cad>0</ns3:cad>
          </ns3:TrackPointExtension>
        </extensions>
      </trkpt>
      <trkpt lat="45.30979623086750507354736328125" lon="-71.068579852581024169921875">
        <ele>753.20001220703125</ele>
        <time>2026-08-21T23:07:29.000Z</time>
        <extensions>
          <ns3:TrackPointExtension>
            <ns3:hr>125</ns3:hr>
            <ns3:cad>0</ns3:cad>
          </ns3:TrackPointExtension>
        </extensions>
      </trkpt>
      <trkpt lat="45.309792794287204742431640625" lon="-71.0685806907713413238525390625">
        <ele>753.5999755859375</ele>
        <time>2026-08-21T23:07:30.000Z</time>
        <extensions>
          <ns3:TrackPointExtension>
            <ns3:hr>126</ns3:hr>
            <ns3:cad>0</ns3:cad>
          </ns3:TrackPointExtension>
        </extensions>
      </trkpt>
      <trkpt lat="45.30979447066783905029296875" lon="-71.06858513318002223968505859375">
        <ele>753.79998779296875</ele>
        <time>2026-08-21T23:07:31.000Z</time>
        <extensions>
          <ns3:TrackPointExtension>
            <ns3:hr>128</ns3:hr>
            <ns3:cad>0</ns3:cad>
          </ns3:TrackPointExtension>
        </extensions>
      </trkpt>
      <trkpt lat="45.30979203991591930389404296875" lon="-71.06858798302710056304931640625">
        <ele>754</ele>
        <time>2026-08-21T23:07:32.000Z</time>
        <extensions>
          <ns3:TrackPointExtension>
            <ns3:hr>129</ns3:hr>
            <ns3:cad>0</ns3:cad>
          </ns3:TrackPointExtension>
        </extensions>
      </trkpt>
      <trkpt lat="45.309790782630443572998046875" lon="-71.068586222827434539794921875">
        <ele>754.4000244140625</ele>
        <time>2026-08-21T23:07:33.000Z</time>
        <extensions>
          <ns3:TrackPointExtension>
            <ns3:hr>130</ns3:hr>
            <ns3:cad>0</ns3:cad>
          </ns3:TrackPointExtension>
        </extensions>
      </trkpt>
      <trkpt lat="45.30978885479271411895751953125" lon="-71.0685833729803562164306640625">
        <ele>754.5999755859375</ele>
        <time>2026-08-21T23:07:34.000Z</time>
        <extensions>
          <ns3:TrackPointExtension>
            <ns3:hr>131</ns3:hr>
            <ns3:cad>0</ns3:cad>
          </ns3:TrackPointExtension>
        </extensions>
      </trkpt>
      <trkpt lat="45.30979505740106105804443359375" lon="-71.0685838758945465087890625">
        <ele>754.79998779296875</ele>
        <time>2026-08-21T23:07:35.000Z</time>
        <extensions>
          <ns3:TrackPointExtension>
            <ns3:hr>131</ns3:hr>
            <ns3:cad>0</ns3:cad>
          </ns3:TrackPointExtension>
        </extensions>
      </trkpt>
      <trkpt lat="45.3097929619252681732177734375" lon="-71.0685790143907070159912109375">
        <ele>755</ele>
        <time>2026-08-21T23:07:36.000Z</time>
        <extensions>
          <ns3:TrackPointExtension>
            <ns3:hr>133</ns3:hr>
            <ns3:cad>0</ns3:cad>
          </ns3:TrackPointExtension>
        </extensions>
      </trkpt>
      <trkpt lat="45.30978935770690441131591796875" lon="-71.068572141230106353759765625">
        <ele>755.20001220703125</ele>
        <time>2026-08-21T23:07:37.000Z</time>
        <extensions>
          <ns3:TrackPointExtension>
            <ns3:hr>133</ns3:hr>
            <ns3:cad>0</ns3:cad>
          </ns3:TrackPointExtension>
        </extensions>
      </trkpt>
      <trkpt lat="45.309785418212413787841796875" lon="-71.0685692913830280303955078125">
        <ele>755.4000244140625</ele>
        <time>2026-08-21T23:07:38.000Z</time>
        <extensions>
          <ns3:TrackPointExtension>
            <ns3:hr>134</ns3:hr>
            <ns3:cad>0</ns3:cad>
          </ns3:TrackPointExtension>
        </extensions>
      </trkpt>
      <trkpt lat="45.3097792156040668487548828125" lon="-71.06856250204145908355712890625">
        <ele>755.5999755859375</ele>
        <time>2026-08-21T23:07:39.000Z</time>
        <extensions>
          <ns3:TrackPointExtension>
            <ns3:hr>135</ns3:hr>
            <ns3:cad>0</ns3:cad>
          </ns3:TrackPointExtension>
        </extensions>
      </trkpt>
      <trkpt lat="45.30977393500506877899169921875" lon="-71.0685605742037296295166015625">
        <ele>755.79998779296875</ele>
        <time>2026-08-21T23:07:40.000Z</time>
        <extensions>
          <ns3:TrackPointExtension>
            <ns3:hr>134</ns3:hr>
            <ns3:cad>0</ns3:cad>
          </ns3:TrackPointExtension>
        </extensions>
      </trkpt>
      <trkpt lat="45.30976630747318267822265625" lon="-71.0685602389276027679443359375">
        <ele>756</ele>
        <time>2026-08-21T23:07:41.000Z</time>
        <extensions>
          <ns3:TrackPointExtension>
            <ns3:hr>134</ns3:hr>
            <ns3:cad>0</ns3:cad>
          </ns3:TrackPointExtension>
        </extensions>
      </trkpt>
      <trkpt lat="45.30976287089288234710693359375" lon="-71.06856166385114192962646484375">
        <ele>756.20001220703125</ele>
        <time>2026-08-21T23:07:42.000Z</time>
        <extensions>
          <ns3:TrackPointExtension>
            <ns3:hr>133</ns3:hr>
            <ns3:cad>0</ns3:cad>
          </ns3:TrackPointExtension>
        </extensions>
      </trkpt>
      <trkpt lat="45.30975423753261566162109375" lon="-71.06856099329888820648193359375">
        <ele>756.5999755859375</ele>
        <time>2026-08-21T23:07:43.000Z</time>
        <extensions>
          <ns3:TrackPointExtension>
            <ns3:hr>133</ns3:hr>
            <ns3:cad>0</ns3:cad>
          </ns3:TrackPointExtension>
        </extensions>
      </trkpt>
      <trkpt lat="45.30974610708653926849365234375" lon="-71.06855696998536586761474609375">
        <ele>756.79998779296875</ele>
        <time>2026-08-21T23:07:44.000Z</time>
        <extensions>
          <ns3:TrackPointExtension>
            <ns3:hr>133</ns3:hr>
            <ns3:cad>0</ns3:cad>
          </ns3:TrackPointExtension>
        </extensions>
      </trkpt>
      <trkpt lat="45.3097352944314479827880859375" lon="-71.06855445541441440582275390625">
        <ele>757</ele>
        <time>2026-08-21T23:07:45.000Z</time>
        <extensions>
          <ns3:TrackPointExtension>
            <ns3:hr>133</ns3:hr>
            <ns3:cad>0</ns3:cad>
          </ns3:TrackPointExtension>
        </extensions>
      </trkpt>
      <trkpt lat="45.30972330830991268157958984375" lon="-71.06855562888085842132568359375">
        <ele>757.20001220703125</ele>
        <time>2026-08-21T23:07:46.000Z</time>
        <extensions>
          <ns3:TrackPointExtension>
            <ns3:hr>132</ns3:hr>
            <ns3:cad>0</ns3:cad>
          </ns3:TrackPointExtension>
        </extensions>
      </trkpt>
      <trkpt lat="45.3097145073115825653076171875" lon="-71.068556047976016998291015625">
        <ele>757.4000244140625</ele>
        <time>2026-08-21T23:07:47.000Z</time>
        <extensions>
          <ns3:TrackPointExtension>
            <ns3:hr>132</ns3:hr>
            <ns3:cad>0</ns3:cad>
          </ns3:TrackPointExtension>
        </extensions>
      </trkpt>
      <trkpt lat="45.30970067717134952545166015625" lon="-71.06855906546115875244140625">
        <ele>757.5999755859375</ele>
        <time>2026-08-21T23:07:48.000Z</time>
        <extensions>
          <ns3:TrackPointExtension>
            <ns3:hr>133</ns3:hr>
            <ns3:cad>0</ns3:cad>
          </ns3:TrackPointExtension>
        </extensions>
      </trkpt>
      <trkpt lat="45.3096920438110828399658203125" lon="-71.068562753498554229736328125">
        <ele>757.79998779296875</ele>
        <time>2026-08-21T23:07:49.000Z</time>
        <extensions>
          <ns3:TrackPointExtension>
            <ns3:hr>134</ns3:hr>
            <ns3:cad>0</ns3:cad>
          </ns3:TrackPointExtension>
        </extensions>
      </trkpt>
      <trkpt lat="45.3096839971840381622314453125" lon="-71.068572141230106353759765625">
        <ele>758</ele>
        <time>2026-08-21T23:07:50.000Z</time>
        <extensions>
          <ns3:TrackPointExtension>
            <ns3:hr>134</ns3:hr>
            <ns3:cad>0</ns3:cad>
          </ns3:TrackPointExtension>
        </extensions>
      </trkpt>
      <trkpt lat="45.3096715919673442840576171875" lon="-71.0685843788087368011474609375">
        <ele>758</ele>
        <time>2026-08-21T23:07:51.000Z</time>
        <extensions>
          <ns3:TrackPointExtension>
            <ns3:hr>134</ns3:hr>
            <ns3:cad>0</ns3:cad>
          </ns3:TrackPointExtension>
        </extensions>
      </trkpt>
      <trkpt lat="45.3096623718738555908203125" lon="-71.06858722865581512451171875">
        <ele>758.20001220703125</ele>
        <time>2026-08-21T23:07:52.000Z</time>
        <extensions>
          <ns3:TrackPointExtension>
            <ns3:hr>135</ns3:hr>
            <ns3:cad>0</ns3:cad>
          </ns3:TrackPointExtension>
        </extensions>
      </trkpt>
      <trkpt lat="45.30965256504714488983154296875" lon="-71.0686048306524753570556640625">
        <ele>758.20001220703125</ele>
        <time>2026-08-21T23:07:53.000Z</time>
        <extensions>
          <ns3:TrackPointExtension>
            <ns3:hr>135</ns3:hr>
            <ns3:cad>0</ns3:cad>
          </ns3:TrackPointExtension>
        </extensions>
      </trkpt>
      <trkpt lat="45.30964502133429050445556640625" lon="-71.068621762096881866455078125">
        <ele>758.20001220703125</ele>
        <time>2026-08-21T23:07:54.000Z</time>
        <extensions>
          <ns3:TrackPointExtension>
            <ns3:hr>136</ns3:hr>
            <ns3:cad>0</ns3:cad>
          </ns3:TrackPointExtension>
        </extensions>
      </trkpt>
      <trkpt lat="45.309639908373355865478515625" lon="-71.068633161485195159912109375">
        <ele>758.20001220703125</ele>
        <time>2026-08-21T23:07:55.000Z</time>
        <extensions>
          <ns3:TrackPointExtension>
            <ns3:hr>137</ns3:hr>
            <ns3:cad>0</ns3:cad>
          </ns3:TrackPointExtension>
        </extensions>
      </trkpt>
      <trkpt lat="45.3096337057650089263916015625" lon="-71.06864766217768192291259765625">
        <ele>758.20001220703125</ele>
        <time>2026-08-21T23:07:56.000Z</time>
        <extensions>
          <ns3:TrackPointExtension>
            <ns3:hr>139</ns3:hr>
            <ns3:cad>0</ns3:cad>
          </ns3:TrackPointExtension>
        </extensions>
      </trkpt>
      <trkpt lat="45.30962691642343997955322265625" lon="-71.06866342015564441680908203125">
        <ele>758.4000244140625</ele>
        <time>2026-08-21T23:07:57.000Z</time>
        <extensions>
          <ns3:TrackPointExtension>
            <ns3:hr>139</ns3:hr>
            <ns3:cad>0</ns3:cad>
          </ns3:TrackPointExtension>
        </extensions>
      </trkpt>
      <trkpt lat="45.30961853452026844024658203125" lon="-71.06867733411490917205810546875">
        <ele>758.4000244140625</ele>
        <time>2026-08-21T23:07:58.000Z</time>
        <extensions>
          <ns3:TrackPointExtension>
            <ns3:hr>139</ns3:hr>
            <ns3:cad>49</ns3:cad>
          </ns3:TrackPointExtension>
        </extensions>
      </trkpt>
      <trkpt lat="45.30960797332227230072021484375" lon="-71.0686893202364444732666015625">
        <ele>758.4000244140625</ele>
        <time>2026-08-21T23:07:59.000Z</time>
        <extensions>
          <ns3:TrackPointExtension>
            <ns3:hr>139</ns3:hr>
            <ns3:cad>49</ns3:cad>
          </ns3:TrackPointExtension>
        </extensions>
      </trkpt>
      <trkpt lat="45.30959892086684703826904296875" lon="-71.06870281510055065155029296875">
        <ele>758.4000244140625</ele>
        <time>2026-08-21T23:08:00.000Z</time>
        <extensions>
          <ns3:TrackPointExtension>
            <ns3:hr>139</ns3:hr>
            <ns3:cad>49</ns3:cad>
          </ns3:TrackPointExtension>
        </extensions>
      </trkpt>
      <trkpt lat="45.30958450399339199066162109375" lon="-71.06871102936565876007080078125">
        <ele>758.4000244140625</ele>
        <time>2026-08-21T23:08:01.000Z</time>
        <extensions>
          <ns3:TrackPointExtension>
            <ns3:hr>139</ns3:hr>
            <ns3:cad>54</ns3:cad>
          </ns3:TrackPointExtension>
        </extensions>
      </trkpt>
      <trkpt lat="45.3095777146518230438232421875" lon="-71.06872578151524066925048828125">
        <ele>758.4000244140625</ele>
        <time>2026-08-21T23:08:02.000Z</time>
        <extensions>
          <ns3:TrackPointExtension>
            <ns3:hr>139</ns3:hr>
            <ns3:cad>54</ns3:cad>
          </ns3:TrackPointExtension>
        </extensions>
      </trkpt>
      <trkpt lat="45.30957226641476154327392578125" lon="-71.0687399469316005706787109375">
        <ele>758.4000244140625</ele>
        <time>2026-08-21T23:08:03.000Z</time>
        <extensions>
          <ns3:TrackPointExtension>
            <ns3:hr>140</ns3:hr>
            <ns3:cad>56</ns3:cad>
          </ns3:TrackPointExtension>
        </extensions>
      </trkpt>
      <trkpt lat="45.309567488729953765869140625" lon="-71.0687553696334362030029296875">
        <ele>758.4000244140625</ele>
        <time>2026-08-21T23:08:04.000Z</time>
        <extensions>
          <ns3:TrackPointExtension>
            <ns3:hr>140</ns3:hr>
            <ns3:cad>56</ns3:cad>
          </ns3:TrackPointExtension>
        </extensions>
      </trkpt>
      <trkpt lat="45.30956053175032138824462890625" lon="-71.06877104379236698150634765625">
        <ele>758.4000244140625</ele>
        <time>2026-08-21T23:08:05.000Z</time>
        <extensions>
          <ns3:TrackPointExtension>
            <ns3:hr>141</ns3:hr>
            <ns3:cad>56</ns3:cad>
          </ns3:TrackPointExtension>
        </extensions>
      </trkpt>
      <trkpt lat="45.30955315567553043365478515625" lon="-71.0687862150371074676513671875">
        <ele>758.4000244140625</ele>
        <time>2026-08-21T23:08:06.000Z</time>
        <extensions>
          <ns3:TrackPointExtension>
            <ns3:hr>142</ns3:hr>
            <ns3:cad>56</ns3:cad>
          </ns3:TrackPointExtension>
        </extensions>
      </trkpt>
      <trkpt lat="45.30954460613429546356201171875" lon="-71.06879912316799163818359375">
        <ele>758.4000244140625</ele>
        <time>2026-08-21T23:08:07.000Z</time>
        <extensions>
          <ns3:TrackPointExtension>
            <ns3:hr>142</ns3:hr>
            <ns3:cad>56</ns3:cad>
          </ns3:TrackPointExtension>
        </extensions>
      </trkpt>
      <trkpt lat="45.30953697860240936279296875" lon="-71.0688143782317638397216796875">
        <ele>758.4000244140625</ele>
        <time>2026-08-21T23:08:08.000Z</time>
        <extensions>
          <ns3:TrackPointExtension>
            <ns3:hr>142</ns3:hr>
            <ns3:cad>56</ns3:cad>
          </ns3:TrackPointExtension>
        </extensions>
      </trkpt>
      <trkpt lat="45.3095304407179355621337890625" lon="-71.0688279569149017333984375">
        <ele>758.4000244140625</ele>
        <time>2026-08-21T23:08:09.000Z</time>
        <extensions>
          <ns3:TrackPointExtension>
            <ns3:hr>142</ns3:hr>
            <ns3:cad>56</ns3:cad>
          </ns3:TrackPointExtension>
        </extensions>
      </trkpt>
      <trkpt lat="45.30952214263379573822021484375" lon="-71.0688428767025470733642578125">
        <ele>758.4000244140625</ele>
        <time>2026-08-21T23:08:10.000Z</time>
        <extensions>
          <ns3:TrackPointExtension>
            <ns3:hr>142</ns3:hr>
            <ns3:cad>56</ns3:cad>
          </ns3:TrackPointExtension>
        </extensions>
      </trkpt>
      <trkpt lat="45.30951015651226043701171875" lon="-71.06886039488017559051513671875">
        <ele>758.4000244140625</ele>
        <time>2026-08-21T23:08:11.000Z</time>
        <extensions>
          <ns3:TrackPointExtension>
            <ns3:hr>142</ns3:hr>
            <ns3:cad>56</ns3:cad>
          </ns3:TrackPointExtension>
        </extensions>
      </trkpt>
      <trkpt lat="45.30949900858104228973388671875" lon="-71.06887481175363063812255859375">
        <ele>758.4000244140625</ele>
        <time>2026-08-21T23:08:12.000Z</time>
        <extensions>
          <ns3:TrackPointExtension>
            <ns3:hr>139</ns3:hr>
            <ns3:cad>56</ns3:cad>
          </ns3:TrackPointExtension>
        </extensions>
      </trkpt>
      <trkpt lat="45.30948945321142673492431640625" lon="-71.0688945092260837554931640625">
        <ele>758.4000244140625</ele>
        <time>2026-08-21T23:08:13.000Z</time>
        <extensions>
          <ns3:TrackPointExtension>
            <ns3:hr>138</ns3:hr>
            <ns3:cad>56</ns3:cad>
          </ns3:TrackPointExtension>
        </extensions>
      </trkpt>
      <trkpt lat="45.309477634727954864501953125" lon="-71.06891806237399578094482421875">
        <ele>758.4000244140625</ele>
        <time>2026-08-21T23:08:14.000Z</time>
        <extensions>
          <ns3:TrackPointExtension>
            <ns3:hr>138</ns3:hr>
            <ns3:cad>56</ns3:cad>
          </ns3:TrackPointExtension>
        </extensions>
      </trkpt>
      <trkpt lat="45.30946967191994190216064453125" lon="-71.0689417831599712371826171875">
        <ele>758.4000244140625</ele>
        <time>2026-08-21T23:08:15.000Z</time>
        <extensions>
          <ns3:TrackPointExtension>
            <ns3:hr>138</ns3:hr>
            <ns3:cad>55</ns3:cad>
          </ns3:TrackPointExtension>
        </extensions>
      </trkpt>
      <trkpt lat="45.30945978127419948577880859375" lon="-71.06896667741239070892333984375">
        <ele>758.5999755859375</ele>
        <time>2026-08-21T23:08:16.000Z</time>
        <extensions>
          <ns3:TrackPointExtension>
            <ns3:hr>138</ns3:hr>
            <ns3:cad>55</ns3:cad>
          </ns3:TrackPointExtension>
        </extensions>
      </trkpt>
      <trkpt lat="45.3094546683132648468017578125" lon="-71.06898847036063671112060546875">
        <ele>758.5999755859375</ele>
        <time>2026-08-21T23:08:17.000Z</time>
        <extensions>
          <ns3:TrackPointExtension>
            <ns3:hr>138</ns3:hr>
            <ns3:cad>56</ns3:cad>
          </ns3:TrackPointExtension>
        </extensions>
      </trkpt>
      <trkpt lat="45.30945022590458393096923828125" lon="-71.0690138675272464752197265625">
        <ele>758.5999755859375</ele>
        <time>2026-08-21T23:08:18.000Z</time>
        <extensions>
          <ns3:TrackPointExtension>
            <ns3:hr>138</ns3:hr>
            <ns3:cad>0</ns3:cad>
          </ns3:TrackPointExtension>
        </extensions>
      </trkpt>
      <trkpt lat="45.309448800981044769287109375" lon="-71.069031469523906707763671875">
        <ele>758.5999755859375</ele>
        <time>2026-08-21T23:08:19.000Z</time>
        <extensions>
          <ns3:TrackPointExtension>
            <ns3:hr>137</ns3:hr>
            <ns3:cad>0</ns3:cad>
          </ns3:TrackPointExtension>
        </extensions>
      </trkpt>
      <trkpt lat="45.3094451129436492919921875" lon="-71.06905686669051647186279296875">
        <ele>758.4000244140625</ele>
        <time>2026-08-21T23:08:20.000Z</time>
        <extensions>
          <ns3:TrackPointExtension>
            <ns3:hr>137</ns3:hr>
            <ns3:cad>70</ns3:cad>
          </ns3:TrackPointExtension>
        </extensions>
      </trkpt>
      <trkpt lat="45.309444777667522430419921875" lon="-71.06907941401004791259765625">
        <ele>758.20001220703125</ele>
        <time>2026-08-21T23:08:21.000Z</time>
        <extensions>
          <ns3:TrackPointExtension>
            <ns3:hr>137</ns3:hr>
            <ns3:cad>70</ns3:cad>
          </ns3:TrackPointExtension>
        </extensions>
      </trkpt>
      <trkpt lat="45.3094451129436492919921875" lon="-71.06910489499568939208984375">
        <ele>758</ele>
        <time>2026-08-21T23:08:22.000Z</time>
        <extensions>
          <ns3:TrackPointExtension>
            <ns3:hr>137</ns3:hr>
            <ns3:cad>70</ns3:cad>
          </ns3:TrackPointExtension>
        </extensions>
      </trkpt>
      <trkpt lat="45.30944502912461757659912109375" lon="-71.0691295377910137176513671875">
        <ele>757.79998779296875</ele>
        <time>2026-08-21T23:08:23.000Z</time>
        <extensions>
          <ns3:TrackPointExtension>
            <ns3:hr>137</ns3:hr>
            <ns3:cad>70</ns3:cad>
          </ns3:TrackPointExtension>
        </extensions>
      </trkpt>
      <trkpt lat="45.30945274047553539276123046875" lon="-71.069154851138591766357421875">
        <ele>757.5999755859375</ele>
        <time>2026-08-21T23:08:24.000Z</time>
        <extensions>
          <ns3:TrackPointExtension>
            <ns3:hr>137</ns3:hr>
            <ns3:cad>70</ns3:cad>
          </ns3:TrackPointExtension>
        </extensions>
      </trkpt>
      <trkpt lat="45.30946263112127780914306640625" lon="-71.06917060911655426025390625">
        <ele>757.4000244140625</ele>
        <time>2026-08-21T23:08:25.000Z</time>
        <extensions>
          <ns3:TrackPointExtension>
            <ns3:hr>136</ns3:hr>
            <ns3:cad>70</ns3:cad>
          </ns3:TrackPointExtension>
        </extensions>
      </trkpt>
      <trkpt lat="45.30947017483413219451904296875" lon="-71.0691940784454345703125">
        <ele>757.4000244140625</ele>
        <time>2026-08-21T23:08:26.000Z</time>
        <extensions>
          <ns3:TrackPointExtension>
            <ns3:hr>136</ns3:hr>
            <ns3:cad>70</ns3:cad>
          </ns3:TrackPointExtension>
        </extensions>
      </trkpt>
      <trkpt lat="45.309474952518939971923828125" lon="-71.06921444647014141082763671875">
        <ele>757.4000244140625</ele>
        <time>2026-08-21T23:08:27.000Z</time>
        <extensions>
          <ns3:TrackPointExtension>
            <ns3:hr>136</ns3:hr>
            <ns3:cad>0</ns3:cad>
          </ns3:TrackPointExtension>
        </extensions>
      </trkpt>
      <trkpt lat="45.30948123894631862640380859375" lon="-71.06924076564610004425048828125">
        <ele>757.4000244140625</ele>
        <time>2026-08-21T23:08:28.000Z</time>
        <extensions>
          <ns3:TrackPointExtension>
            <ns3:hr>135</ns3:hr>
            <ns3:cad>0</ns3:cad>
          </ns3:TrackPointExtension>
        </extensions>
      </trkpt>
      <trkpt lat="45.30948056839406490325927734375" lon="-71.06925618834793567657470703125">
        <ele>757.4000244140625</ele>
        <time>2026-08-21T23:08:29.000Z</time>
        <extensions>
          <ns3:TrackPointExtension>
            <ns3:hr>135</ns3:hr>
            <ns3:cad>0</ns3:cad>
          </ns3:TrackPointExtension>
        </extensions>
      </trkpt>
      <trkpt lat="45.30948199331760406494140625" lon="-71.06926473788917064666748046875">
        <ele>757.4000244140625</ele>
        <time>2026-08-21T23:08:30.000Z</time>
        <extensions>
          <ns3:TrackPointExtension>
            <ns3:hr>135</ns3:hr>
            <ns3:cad>0</ns3:cad>
          </ns3:TrackPointExtension>
        </extensions>
      </trkpt>
      <trkpt lat="45.3094885312020778656005859375" lon="-71.06927412562072277069091796875">
        <ele>757.4000244140625</ele>
        <time>2026-08-21T23:08:31.000Z</time>
        <extensions>
          <ns3:TrackPointExtension>
            <ns3:hr>136</ns3:hr>
            <ns3:cad>0</ns3:cad>
          </ns3:TrackPointExtension>
        </extensions>
      </trkpt>
      <trkpt lat="45.3094949014484882354736328125" lon="-71.0692975111305713653564453125">
        <ele>757.5999755859375</ele>
        <time>2026-08-21T23:08:32.000Z</time>
        <extensions>
          <ns3:TrackPointExtension>
            <ns3:hr>136</ns3:hr>
            <ns3:cad>0</ns3:cad>
          </ns3:TrackPointExtension>
        </extensions>
      </trkpt>
      <trkpt lat="45.309498421847820281982421875" lon="-71.06931787915527820587158203125">
        <ele>757.5999755859375</ele>
        <time>2026-08-21T23:08:33.000Z</time>
        <extensions>
          <ns3:TrackPointExtension>
            <ns3:hr>136</ns3:hr>
            <ns3:cad>0</ns3:cad>
          </ns3:TrackPointExtension>
        </extensions>
      </trkpt>
      <trkpt lat="45.30950219370424747467041015625" lon="-71.0693340562283992767333984375">
        <ele>757.5999755859375</ele>
        <time>2026-08-21T23:08:34.000Z</time>
        <extensions>
          <ns3:TrackPointExtension>
            <ns3:hr>135</ns3:hr>
            <ns3:cad>0</ns3:cad>
          </ns3:TrackPointExtension>
        </extensions>
      </trkpt>
      <trkpt lat="45.3095066361129283905029296875" lon="-71.06935509480535984039306640625">
        <ele>757.5999755859375</ele>
        <time>2026-08-21T23:08:35.000Z</time>
        <extensions>
          <ns3:TrackPointExtension>
            <ns3:hr>135</ns3:hr>
            <ns3:cad>0</ns3:cad>
          </ns3:TrackPointExtension>
        </extensions>
      </trkpt>
      <trkpt lat="45.30950839631259441375732421875" lon="-71.06937554664909839630126953125">
        <ele>757.5999755859375</ele>
        <time>2026-08-21T23:08:36.000Z</time>
        <extensions>
          <ns3:TrackPointExtension>
            <ns3:hr>134</ns3:hr>
            <ns3:cad>0</ns3:cad>
          </ns3:TrackPointExtension>
        </extensions>
      </trkpt>
      <trkpt lat="45.30950839631259441375732421875" lon="-71.0693954117596149444580078125">
        <ele>757.5999755859375</ele>
        <time>2026-08-21T23:08:37.000Z</time>
        <extensions>
          <ns3:TrackPointExtension>
            <ns3:hr>133</ns3:hr>
            <ns3:cad>0</ns3:cad>
          </ns3:TrackPointExtension>
        </extensions>
      </trkpt>
      <trkpt lat="45.30951107852160930633544921875" lon="-71.069411002099514007568359375">
        <ele>757.5999755859375</ele>
        <time>2026-08-21T23:08:38.000Z</time>
        <extensions>
          <ns3:TrackPointExtension>
            <ns3:hr>132</ns3:hr>
            <ns3:cad>0</ns3:cad>
          </ns3:TrackPointExtension>
        </extensions>
      </trkpt>
      <trkpt lat="45.30950806103646755218505859375" lon="-71.0694386623799800872802734375">
        <ele>757.5999755859375</ele>
        <time>2026-08-21T23:08:39.000Z</time>
        <extensions>
          <ns3:TrackPointExtension>
            <ns3:hr>131</ns3:hr>
            <ns3:cad>0</ns3:cad>
          </ns3:TrackPointExtension>
        </extensions>
      </trkpt>
      <trkpt lat="45.30950923450291156768798828125" lon="-71.06946188025176525115966796875">
        <ele>757.5999755859375</ele>
        <time>2026-08-21T23:08:40.000Z</time>
        <extensions>
          <ns3:TrackPointExtension>
            <ns3:hr>131</ns3:hr>
            <ns3:cad>0</ns3:cad>
          </ns3:TrackPointExtension>
        </extensions>
      </trkpt>
      <trkpt lat="45.30950873158872127532958984375" lon="-71.06947344727814197540283203125">
        <ele>757.5999755859375</ele>
        <time>2026-08-21T23:08:41.000Z</time>
        <extensions>
          <ns3:TrackPointExtension>
            <ns3:hr>131</ns3:hr>
            <ns3:cad>0</ns3:cad>
          </ns3:TrackPointExtension>
        </extensions>
      </trkpt>
      <trkpt lat="45.30950889922678470611572265625" lon="-71.069483421742916107177734375">
        <ele>757.5999755859375</ele>
        <time>2026-08-21T23:08:42.000Z</time>
        <extensions>
          <ns3:TrackPointExtension>
            <ns3:hr>130</ns3:hr>
            <ns3:cad>0</ns3:cad>
          </ns3:TrackPointExtension>
        </extensions>
      </trkpt>
      <trkpt lat="45.30950655229389667510986328125" lon="-71.06949825771152973175048828125">
        <ele>757.5999755859375</ele>
        <time>2026-08-21T23:08:43.000Z</time>
        <extensions>
          <ns3:TrackPointExtension>
            <ns3:hr>130</ns3:hr>
            <ns3:cad>0</ns3:cad>
          </ns3:TrackPointExtension>
        </extensions>
      </trkpt>
      <trkpt lat="45.30950210988521575927734375" lon="-71.06951527297496795654296875">
        <ele>757.5999755859375</ele>
        <time>2026-08-21T23:08:44.000Z</time>
        <extensions>
          <ns3:TrackPointExtension>
            <ns3:hr>130</ns3:hr>
            <ns3:cad>0</ns3:cad>
          </ns3:TrackPointExtension>
        </extensions>
      </trkpt>
      <trkpt lat="45.30949716456234455108642578125" lon="-71.0695306956768035888671875">
        <ele>757.4000244140625</ele>
        <time>2026-08-21T23:08:45.000Z</time>
        <extensions>
          <ns3:TrackPointExtension>
            <ns3:hr>129</ns3:hr>
            <ns3:cad>0</ns3:cad>
          </ns3:TrackPointExtension>
        </extensions>
      </trkpt>
      <trkpt lat="45.30948861502110958099365234375" lon="-71.06955190189182758331298828125">
        <ele>757.4000244140625</ele>
        <time>2026-08-21T23:08:46.000Z</time>
        <extensions>
          <ns3:TrackPointExtension>
            <ns3:hr>129</ns3:hr>
            <ns3:cad>0</ns3:cad>
          </ns3:TrackPointExtension>
        </extensions>
      </trkpt>
      <trkpt lat="45.309485010802745819091796875" lon="-71.0695744492113590240478515625">
        <ele>757.20001220703125</ele>
        <time>2026-08-21T23:08:47.000Z</time>
        <extensions>
          <ns3:TrackPointExtension>
            <ns3:hr>129</ns3:hr>
            <ns3:cad>0</ns3:cad>
          </ns3:TrackPointExtension>
        </extensions>
      </trkpt>
      <trkpt lat="45.3094791434705257415771484375" lon="-71.0695897042751312255859375">
        <ele>757.20001220703125</ele>
        <time>2026-08-21T23:08:48.000Z</time>
        <extensions>
          <ns3:TrackPointExtension>
            <ns3:hr>127</ns3:hr>
            <ns3:cad>0</ns3:cad>
          </ns3:TrackPointExtension>
        </extensions>
      </trkpt>
      <trkpt lat="45.30947386287152767181396484375" lon="-71.06961007229983806610107421875">
        <ele>757</ele>
        <time>2026-08-21T23:08:49.000Z</time>
        <extensions>
          <ns3:TrackPointExtension>
            <ns3:hr>127</ns3:hr>
            <ns3:cad>0</ns3:cad>
          </ns3:TrackPointExtension>
        </extensions>
      </trkpt>
      <trkpt lat="45.3094772994518280029296875" lon="-71.069631613790988922119140625">
        <ele>757</ele>
        <time>2026-08-21T23:08:50.000Z</time>
        <extensions>
          <ns3:TrackPointExtension>
            <ns3:hr>126</ns3:hr>
            <ns3:cad>0</ns3:cad>
          </ns3:TrackPointExtension>
        </extensions>
      </trkpt>
      <trkpt lat="45.30947394669055938720703125" lon="-71.069645024836063385009765625">
        <ele>757</ele>
        <time>2026-08-21T23:08:51.000Z</time>
        <extensions>
          <ns3:TrackPointExtension>
            <ns3:hr>126</ns3:hr>
            <ns3:cad>0</ns3:cad>
          </ns3:TrackPointExtension>
        </extensions>
      </trkpt>
      <trkpt lat="45.30946497805416584014892578125" lon="-71.06966388411819934844970703125">
        <ele>757</ele>
        <time>2026-08-21T23:08:52.000Z</time>
        <extensions>
          <ns3:TrackPointExtension>
            <ns3:hr>126</ns3:hr>
            <ns3:cad>0</ns3:cad>
          </ns3:TrackPointExtension>
        </extensions>
      </trkpt>
      <trkpt lat="45.30946212820708751678466796875" lon="-71.069676876068115234375">
        <ele>757</ele>
        <time>2026-08-21T23:08:53.000Z</time>
        <extensions>
          <ns3:TrackPointExtension>
            <ns3:hr>126</ns3:hr>
            <ns3:cad>58</ns3:cad>
          </ns3:TrackPointExtension>
        </extensions>
      </trkpt>
      <trkpt lat="45.3094593621790409088134765625" lon="-71.06968827545642852783203125">
        <ele>757</ele>
        <time>2026-08-21T23:08:54.000Z</time>
        <extensions>
          <ns3:TrackPointExtension>
            <ns3:hr>126</ns3:hr>
            <ns3:cad>58</ns3:cad>
          </ns3:TrackPointExtension>
        </extensions>
      </trkpt>
      <trkpt lat="45.30945383012294769287109375" lon="-71.0697058774530887603759765625">
        <ele>757</ele>
        <time>2026-08-21T23:08:55.000Z</time>
        <extensions>
          <ns3:TrackPointExtension>
            <ns3:hr>125</ns3:hr>
            <ns3:cad>58</ns3:cad>
          </ns3:TrackPointExtension>
        </extensions>
      </trkpt>
      <trkpt lat="45.3094513155519962310791015625" lon="-71.06972306035459041595458984375">
        <ele>757</ele>
        <time>2026-08-21T23:08:56.000Z</time>
        <extensions>
          <ns3:TrackPointExtension>
            <ns3:hr>125</ns3:hr>
            <ns3:cad>58</ns3:cad>
          </ns3:TrackPointExtension>
        </extensions>
      </trkpt>
      <trkpt lat="45.3094479627907276153564453125" lon="-71.06973311863839626312255859375">
        <ele>757</ele>
        <time>2026-08-21T23:08:57.000Z</time>
        <extensions>
          <ns3:TrackPointExtension>
            <ns3:hr>125</ns3:hr>
            <ns3:cad>58</ns3:cad>
          </ns3:TrackPointExtension>
        </extensions>
      </trkpt>
      <trkpt lat="45.3094425983726978302001953125" lon="-71.069754660129547119140625">
        <ele>757</ele>
        <time>2026-08-21T23:08:58.000Z</time>
        <extensions>
          <ns3:TrackPointExtension>
            <ns3:hr>124</ns3:hr>
            <ns3:cad>48</ns3:cad>
          </ns3:TrackPointExtension>
        </extensions>
      </trkpt>
      <trkpt lat="45.30943572521209716796875" lon="-71.06977402232587337493896484375">
        <ele>756.79998779296875</ele>
        <time>2026-08-21T23:08:59.000Z</time>
        <extensions>
          <ns3:TrackPointExtension>
            <ns3:hr>124</ns3:hr>
            <ns3:cad>48</ns3:cad>
          </ns3:TrackPointExtension>
        </extensions>
      </trkpt>
      <trkpt lat="45.3094317018985748291015625" lon="-71.069787181913852691650390625">
        <ele>756.79998779296875</ele>
        <time>2026-08-21T23:09:00.000Z</time>
        <extensions>
          <ns3:TrackPointExtension>
            <ns3:hr>124</ns3:hr>
            <ns3:cad>48</ns3:cad>
          </ns3:TrackPointExtension>
        </extensions>
      </trkpt>
      <trkpt lat="45.30942373909056186676025390625" lon="-71.06980084441602230072021484375">
        <ele>756.5999755859375</ele>
        <time>2026-08-21T23:09:01.000Z</time>
        <extensions>
          <ns3:TrackPointExtension>
            <ns3:hr>123</ns3:hr>
            <ns3:cad>0</ns3:cad>
          </ns3:TrackPointExtension>
        </extensions>
      </trkpt>
      <trkpt lat="45.30941627919673919677734375" lon="-71.06982179917395114898681640625">
        <ele>756.4000244140625</ele>
        <time>2026-08-21T23:09:02.000Z</time>
        <extensions>
          <ns3:TrackPointExtension>
            <ns3:hr>122</ns3:hr>
            <ns3:cad>0</ns3:cad>
          </ns3:TrackPointExtension>
        </extensions>
      </trkpt>
      <trkpt lat="45.3094129264354705810546875" lon="-71.0698399879038333892822265625">
        <ele>756.20001220703125</ele>
        <time>2026-08-21T23:09:03.000Z</time>
        <extensions>
          <ns3:TrackPointExtension>
            <ns3:hr>122</ns3:hr>
            <ns3:cad>0</ns3:cad>
          </ns3:TrackPointExtension>
        </extensions>
      </trkpt>
      <trkpt lat="45.309402532875537872314453125" lon="-71.06986236758530139923095703125">
        <ele>756</ele>
        <time>2026-08-21T23:09:04.000Z</time>
        <extensions>
          <ns3:TrackPointExtension>
            <ns3:hr>121</ns3:hr>
            <ns3:cad>0</ns3:cad>
          </ns3:TrackPointExtension>
        </extensions>
      </trkpt>
      <trkpt lat="45.3093968331813812255859375" lon="-71.06988633982837200164794921875">
        <ele>755.79998779296875</ele>
        <time>2026-08-21T23:09:05.000Z</time>
        <extensions>
          <ns3:TrackPointExtension>
            <ns3:hr>122</ns3:hr>
            <ns3:cad>0</ns3:cad>
          </ns3:TrackPointExtension>
        </extensions>
      </trkpt>
      <trkpt lat="45.30939792282879352569580078125" lon="-71.06991534121334552764892578125">
        <ele>755.79998779296875</ele>
        <time>2026-08-21T23:09:06.000Z</time>
        <extensions>
          <ns3:TrackPointExtension>
            <ns3:hr>122</ns3:hr>
            <ns3:cad>0</ns3:cad>
          </ns3:TrackPointExtension>
        </extensions>
      </trkpt>
      <trkpt lat="45.30939482152462005615234375" lon="-71.06993629597127437591552734375">
        <ele>755.5999755859375</ele>
        <time>2026-08-21T23:09:07.000Z</time>
        <extensions>
          <ns3:TrackPointExtension>
            <ns3:hr>122</ns3:hr>
            <ns3:cad>0</ns3:cad>
          </ns3:TrackPointExtension>
        </extensions>
      </trkpt>
      <trkpt lat="45.30938719399273395538330078125" lon="-71.06996160931885242462158203125">
        <ele>755.5999755859375</ele>
        <time>2026-08-21T23:09:08.000Z</time>
        <extensions>
          <ns3:TrackPointExtension>
            <ns3:hr>122</ns3:hr>
            <ns3:cad>0</ns3:cad>
          </ns3:TrackPointExtension>
        </extensions>
      </trkpt>
      <trkpt lat="45.3093799017369747161865234375" lon="-71.06997719965875148773193359375">
        <ele>755.4000244140625</ele>
        <time>2026-08-21T23:09:09.000Z</time>
        <extensions>
          <ns3:TrackPointExtension>
            <ns3:hr>121</ns3:hr>
            <ns3:cad>0</ns3:cad>
          </ns3:TrackPointExtension>
        </extensions>
      </trkpt>
      <trkpt lat="45.3093775548040866851806640625" lon="-71.0699958913028240203857421875">
        <ele>755.4000244140625</ele>
        <time>2026-08-21T23:09:10.000Z</time>
        <extensions>
          <ns3:TrackPointExtension>
            <ns3:hr>122</ns3:hr>
            <ns3:cad>0</ns3:cad>
          </ns3:TrackPointExtension>
        </extensions>
      </trkpt>
      <trkpt lat="45.3093735314905643463134765625" lon="-71.07001642696559429168701171875">
        <ele>755.5999755859375</ele>
        <time>2026-08-21T23:09:11.000Z</time>
        <extensions>
          <ns3:TrackPointExtension>
            <ns3:hr>122</ns3:hr>
            <ns3:cad>0</ns3:cad>
          </ns3:TrackPointExtension>
        </extensions>
      </trkpt>
      <trkpt lat="45.309369675815105438232421875" lon="-71.0700414888560771942138671875">
        <ele>755.5999755859375</ele>
        <time>2026-08-21T23:09:12.000Z</time>
        <extensions>
          <ns3:TrackPointExtension>
            <ns3:hr>122</ns3:hr>
            <ns3:cad>0</ns3:cad>
          </ns3:TrackPointExtension>
        </extensions>
      </trkpt>
      <trkpt lat="45.30937227420508861541748046875" lon="-71.07006705366075038909912109375">
        <ele>755.5999755859375</ele>
        <time>2026-08-21T23:09:13.000Z</time>
        <extensions>
          <ns3:TrackPointExtension>
            <ns3:hr>121</ns3:hr>
            <ns3:cad>0</ns3:cad>
          </ns3:TrackPointExtension>
        </extensions>
      </trkpt>
      <trkpt lat="45.309377051889896392822265625" lon="-71.07008993625640869140625">
        <ele>755.5999755859375</ele>
        <time>2026-08-21T23:09:14.000Z</time>
        <extensions>
          <ns3:TrackPointExtension>
            <ns3:hr>122</ns3:hr>
            <ns3:cad>0</ns3:cad>
          </ns3:TrackPointExtension>
        </extensions>
      </trkpt>
      <trkpt lat="45.3093866072595119476318359375" lon="-71.07010946609079837799072265625">
        <ele>755.5999755859375</ele>
        <time>2026-08-21T23:09:15.000Z</time>
        <extensions>
          <ns3:TrackPointExtension>
            <ns3:hr>120</ns3:hr>
            <ns3:cad>0</ns3:cad>
          </ns3:TrackPointExtension>
        </extensions>
      </trkpt>
      <trkpt lat="45.3093902952969074249267578125" lon="-71.070127151906490325927734375">
        <ele>755.5999755859375</ele>
        <time>2026-08-21T23:09:16.000Z</time>
        <extensions>
          <ns3:TrackPointExtension>
            <ns3:hr>119</ns3:hr>
            <ns3:cad>0</ns3:cad>
          </ns3:TrackPointExtension>
        </extensions>
      </trkpt>
      <trkpt lat="45.30939205549657344818115234375" lon="-71.070149280130863189697265625">
        <ele>755.79998779296875</ele>
        <time>2026-08-21T23:09:17.000Z</time>
        <extensions>
          <ns3:TrackPointExtension>
            <ns3:hr>118</ns3:hr>
            <ns3:cad>0</ns3:cad>
          </ns3:TrackPointExtension>
        </extensions>
      </trkpt>
      <trkpt lat="45.30939104966819286346435546875" lon="-71.07017216272652149200439453125">
        <ele>755.79998779296875</ele>
        <time>2026-08-21T23:09:18.000Z</time>
        <extensions>
          <ns3:TrackPointExtension>
            <ns3:hr>118</ns3:hr>
            <ns3:cad>57</ns3:cad>
          </ns3:TrackPointExtension>
        </extensions>
      </trkpt>
      <trkpt lat="45.30939490534365177154541015625" lon="-71.0701920278370380401611328125">
        <ele>756</ele>
        <time>2026-08-21T23:09:19.000Z</time>
        <extensions>
          <ns3:TrackPointExtension>
            <ns3:hr>117</ns3:hr>
            <ns3:cad>57</ns3:cad>
          </ns3:TrackPointExtension>
        </extensions>
      </trkpt>
      <trkpt lat="45.30939750373363494873046875" lon="-71.0702081210911273956298828125">
        <ele>756</ele>
        <time>2026-08-21T23:09:20.000Z</time>
        <extensions>
          <ns3:TrackPointExtension>
            <ns3:hr>117</ns3:hr>
            <ns3:cad>57</ns3:cad>
          </ns3:TrackPointExtension>
        </extensions>
      </trkpt>
      <trkpt lat="45.309399180114269256591796875" lon="-71.07022061012685298919677734375">
        <ele>756.20001220703125</ele>
        <time>2026-08-21T23:09:21.000Z</time>
        <extensions>
          <ns3:TrackPointExtension>
            <ns3:hr>118</ns3:hr>
            <ns3:cad>57</ns3:cad>
          </ns3:TrackPointExtension>
        </extensions>
      </trkpt>
      <trkpt lat="45.309401862323284149169921875" lon="-71.07024324126541614532470703125">
        <ele>756.4000244140625</ele>
        <time>2026-08-21T23:09:22.000Z</time>
        <extensions>
          <ns3:TrackPointExtension>
            <ns3:hr>118</ns3:hr>
            <ns3:cad>57</ns3:cad>
          </ns3:TrackPointExtension>
        </extensions>
      </trkpt>
      <trkpt lat="45.3094102442264556884765625" lon="-71.07026101090013980865478515625">
        <ele>756.5999755859375</ele>
        <time>2026-08-21T23:09:23.000Z</time>
        <extensions>
          <ns3:TrackPointExtension>
            <ns3:hr>118</ns3:hr>
            <ns3:cad>57</ns3:cad>
          </ns3:TrackPointExtension>
        </extensions>
      </trkpt>
      <trkpt lat="45.30941284261643886566162109375" lon="-71.07027165591716766357421875">
        <ele>756.79998779296875</ele>
        <time>2026-08-21T23:09:24.000Z</time>
        <extensions>
          <ns3:TrackPointExtension>
            <ns3:hr>120</ns3:hr>
            <ns3:cad>52</ns3:cad>
          </ns3:TrackPointExtension>
        </extensions>
      </trkpt>
      <trkpt lat="45.309417955577373504638671875" lon="-71.07027542777359485626220703125">
        <ele>757</ele>
        <time>2026-08-21T23:09:25.000Z</time>
        <extensions>
          <ns3:TrackPointExtension>
            <ns3:hr>120</ns3:hr>
            <ns3:cad>51</ns3:cad>
          </ns3:TrackPointExtension>
        </extensions>
      </trkpt>
      <trkpt lat="45.30942239798605442047119140625" lon="-71.0702882520854473114013671875">
        <ele>757.20001220703125</ele>
        <time>2026-08-21T23:09:26.000Z</time>
        <extensions>
          <ns3:TrackPointExtension>
            <ns3:hr>119</ns3:hr>
            <ns3:cad>51</ns3:cad>
          </ns3:TrackPointExtension>
        </extensions>
      </trkpt>
      <trkpt lat="45.3094244934618473052978515625" lon="-71.07029604725539684295654296875">
        <ele>757.5999755859375</ele>
        <time>2026-08-21T23:09:27.000Z</time>
        <extensions>
          <ns3:TrackPointExtension>
            <ns3:hr>119</ns3:hr>
            <ns3:cad>51</ns3:cad>
          </ns3:TrackPointExtension>
        </extensions>
      </trkpt>
      <trkpt lat="45.30942860059440135955810546875" lon="-71.07031582854688167572021484375">
        <ele>757.79998779296875</ele>
        <time>2026-08-21T23:09:28.000Z</time>
        <extensions>
          <ns3:TrackPointExtension>
            <ns3:hr>119</ns3:hr>
            <ns3:cad>51</ns3:cad>
          </ns3:TrackPointExtension>
        </extensions>
      </trkpt>
      <trkpt lat="45.30943161807954311370849609375" lon="-71.07033762149512767791748046875">
        <ele>758.20001220703125</ele>
        <time>2026-08-21T23:09:29.000Z</time>
        <extensions>
          <ns3:TrackPointExtension>
            <ns3:hr>119</ns3:hr>
            <ns3:cad>0</ns3:cad>
          </ns3:TrackPointExtension>
        </extensions>
      </trkpt>
      <trkpt lat="45.3094397485256195068359375" lon="-71.0703516192734241485595703125">
        <ele>758.4000244140625</ele>
        <time>2026-08-21T23:09:30.000Z</time>
        <extensions>
          <ns3:TrackPointExtension>
            <ns3:hr>119</ns3:hr>
            <ns3:cad>0</ns3:cad>
          </ns3:TrackPointExtension>
        </extensions>
      </trkpt>
      <trkpt lat="45.30944871716201305389404296875" lon="-71.07036578468978404998779296875">
        <ele>758.5999755859375</ele>
        <time>2026-08-21T23:09:31.000Z</time>
        <extensions>
          <ns3:TrackPointExtension>
            <ns3:hr>119</ns3:hr>
            <ns3:cad>0</ns3:cad>
          </ns3:TrackPointExtension>
        </extensions>
      </trkpt>
      <trkpt lat="45.309450812637805938720703125" lon="-71.07038456015288829803466796875">
        <ele>758.5999755859375</ele>
        <time>2026-08-21T23:09:32.000Z</time>
        <extensions>
          <ns3:TrackPointExtension>
            <ns3:hr>119</ns3:hr>
            <ns3:cad>50</ns3:cad>
          </ns3:TrackPointExtension>
        </extensions>
      </trkpt>
      <trkpt lat="45.30945223756134510040283203125" lon="-71.07040015049278736114501953125">
        <ele>758.79998779296875</ele>
        <time>2026-08-21T23:09:33.000Z</time>
        <extensions>
          <ns3:TrackPointExtension>
            <ns3:hr>120</ns3:hr>
            <ns3:cad>50</ns3:cad>
          </ns3:TrackPointExtension>
        </extensions>
      </trkpt>
      <trkpt lat="45.30945642851293087005615234375" lon="-71.0704136453568935394287109375">
        <ele>758.79998779296875</ele>
        <time>2026-08-21T23:09:34.000Z</time>
        <extensions>
          <ns3:TrackPointExtension>
            <ns3:hr>121</ns3:hr>
            <ns3:cad>50</ns3:cad>
          </ns3:TrackPointExtension>
        </extensions>
      </trkpt>
      <trkpt lat="45.3094640560448169708251953125" lon="-71.07043669559061527252197265625">
        <ele>758.79998779296875</ele>
        <time>2026-08-21T23:09:35.000Z</time>
        <extensions>
          <ns3:TrackPointExtension>
            <ns3:hr>121</ns3:hr>
            <ns3:cad>50</ns3:cad>
          </ns3:TrackPointExtension>
        </extensions>
      </trkpt>
      <trkpt lat="45.309469588100910186767578125" lon="-71.0704548843204975128173828125">
        <ele>758.79998779296875</ele>
        <time>2026-08-21T23:09:36.000Z</time>
        <extensions>
          <ns3:TrackPointExtension>
            <ns3:hr>122</ns3:hr>
            <ns3:cad>50</ns3:cad>
          </ns3:TrackPointExtension>
        </extensions>
      </trkpt>
      <trkpt lat="45.3094732761383056640625" lon="-71.07047541998326778411865234375">
        <ele>759</ele>
        <time>2026-08-21T23:09:37.000Z</time>
        <extensions>
          <ns3:TrackPointExtension>
            <ns3:hr>123</ns3:hr>
            <ns3:cad>51</ns3:cad>
          </ns3:TrackPointExtension>
        </extensions>
      </trkpt>
      <trkpt lat="45.30947369523346424102783203125" lon="-71.07049117796123027801513671875">
        <ele>759</ele>
        <time>2026-08-21T23:09:38.000Z</time>
        <extensions>
          <ns3:TrackPointExtension>
            <ns3:hr>123</ns3:hr>
            <ns3:cad>51</ns3:cad>
          </ns3:TrackPointExtension>
        </extensions>
      </trkpt>
      <trkpt lat="45.3094724379479885101318359375" lon="-71.07051372528076171875">
        <ele>759</ele>
        <time>2026-08-21T23:09:39.000Z</time>
        <extensions>
          <ns3:TrackPointExtension>
            <ns3:hr>124</ns3:hr>
            <ns3:cad>51</ns3:cad>
          </ns3:TrackPointExtension>
        </extensions>
      </trkpt>
      <trkpt lat="45.309470593929290771484375" lon="-71.07052990235388278961181640625">
        <ele>759</ele>
        <time>2026-08-21T23:09:40.000Z</time>
        <extensions>
          <ns3:TrackPointExtension>
            <ns3:hr>124</ns3:hr>
            <ns3:cad>51</ns3:cad>
          </ns3:TrackPointExtension>
        </extensions>
      </trkpt>
      <trkpt lat="45.30946933664381504058837890625" lon="-71.07054792344570159912109375">
        <ele>759</ele>
        <time>2026-08-21T23:09:41.000Z</time>
        <extensions>
          <ns3:TrackPointExtension>
            <ns3:hr>124</ns3:hr>
            <ns3:cad>53</ns3:cad>
          </ns3:TrackPointExtension>
        </extensions>
      </trkpt>
      <trkpt lat="45.30946724116802215576171875" lon="-71.0705661959946155548095703125">
        <ele>759</ele>
        <time>2026-08-21T23:09:42.000Z</time>
        <extensions>
          <ns3:TrackPointExtension>
            <ns3:hr>124</ns3:hr>
            <ns3:cad>53</ns3:cad>
          </ns3:TrackPointExtension>
        </extensions>
      </trkpt>
      <trkpt lat="45.30946531333029270172119140625" lon="-71.07057985849678516387939453125">
        <ele>759.20001220703125</ele>
        <time>2026-08-21T23:09:43.000Z</time>
        <extensions>
          <ns3:TrackPointExtension>
            <ns3:hr>124</ns3:hr>
            <ns3:cad>53</ns3:cad>
          </ns3:TrackPointExtension>
        </extensions>
      </trkpt>
      <trkpt lat="45.309459529817104339599609375" lon="-71.07059980742633342742919921875">
        <ele>759.20001220703125</ele>
        <time>2026-08-21T23:09:44.000Z</time>
        <extensions>
          <ns3:TrackPointExtension>
            <ns3:hr>124</ns3:hr>
            <ns3:cad>53</ns3:cad>
          </ns3:TrackPointExtension>
        </extensions>
      </trkpt>
      <trkpt lat="45.30944787897169589996337890625" lon="-71.0706208460032939910888671875">
        <ele>759.20001220703125</ele>
        <time>2026-08-21T23:09:45.000Z</time>
        <extensions>
          <ns3:TrackPointExtension>
            <ns3:hr>125</ns3:hr>
            <ns3:cad>53</ns3:cad>
          </ns3:TrackPointExtension>
        </extensions>
      </trkpt>
      <trkpt lat="45.30944402329623699188232421875" lon="-71.07063643634319305419921875">
        <ele>759.4000244140625</ele>
        <time>2026-08-21T23:09:46.000Z</time>
        <extensions>
          <ns3:TrackPointExtension>
            <ns3:hr>125</ns3:hr>
            <ns3:cad>52</ns3:cad>
          </ns3:TrackPointExtension>
        </extensions>
      </trkpt>
      <trkpt lat="45.3094362281262874603271484375" lon="-71.07065328396856784820556640625">
        <ele>759.4000244140625</ele>
        <time>2026-08-21T23:09:47.000Z</time>
        <extensions>
          <ns3:TrackPointExtension>
            <ns3:hr>125</ns3:hr>
            <ns3:cad>52</ns3:cad>
          </ns3:TrackPointExtension>
        </extensions>
      </trkpt>
      <trkpt lat="45.30943295918405055999755859375" lon="-71.07066904194653034210205078125">
        <ele>759.4000244140625</ele>
        <time>2026-08-21T23:09:48.000Z</time>
        <extensions>
          <ns3:TrackPointExtension>
            <ns3:hr>125</ns3:hr>
            <ns3:cad>52</ns3:cad>
          </ns3:TrackPointExtension>
        </extensions>
      </trkpt>
      <trkpt lat="45.3094271756708621978759765625" lon="-71.0706798546016216278076171875">
        <ele>759.5999755859375</ele>
        <time>2026-08-21T23:09:49.000Z</time>
        <extensions>
          <ns3:TrackPointExtension>
            <ns3:hr>126</ns3:hr>
            <ns3:cad>52</ns3:cad>
          </ns3:TrackPointExtension>
        </extensions>
      </trkpt>
      <trkpt lat="45.30941887758672237396240234375" lon="-71.07068982906639575958251953125">
        <ele>759.5999755859375</ele>
        <time>2026-08-21T23:09:50.000Z</time>
        <extensions>
          <ns3:TrackPointExtension>
            <ns3:hr>126</ns3:hr>
            <ns3:cad>52</ns3:cad>
          </ns3:TrackPointExtension>
        </extensions>
      </trkpt>
      <trkpt lat="45.3094117529690265655517578125" lon="-71.07070608995854854583740234375">
        <ele>759.79998779296875</ele>
        <time>2026-08-21T23:09:51.000Z</time>
        <extensions>
          <ns3:TrackPointExtension>
            <ns3:hr>126</ns3:hr>
            <ns3:cad>52</ns3:cad>
          </ns3:TrackPointExtension>
        </extensions>
      </trkpt>
      <trkpt lat="45.30940798111259937286376953125" lon="-71.070721261203289031982421875">
        <ele>759.79998779296875</ele>
        <time>2026-08-21T23:09:52.000Z</time>
        <extensions>
          <ns3:TrackPointExtension>
            <ns3:hr>126</ns3:hr>
            <ns3:cad>52</ns3:cad>
          </ns3:TrackPointExtension>
        </extensions>
      </trkpt>
      <trkpt lat="45.30940429307520389556884765625" lon="-71.070736683905124664306640625">
        <ele>760</ele>
        <time>2026-08-21T23:09:53.000Z</time>
        <extensions>
          <ns3:TrackPointExtension>
            <ns3:hr>127</ns3:hr>
            <ns3:cad>53</ns3:cad>
          </ns3:TrackPointExtension>
        </extensions>
      </trkpt>
      <trkpt lat="45.3094010241329669952392578125" lon="-71.07074900530278682708740234375">
        <ele>760</ele>
        <time>2026-08-21T23:09:54.000Z</time>
        <extensions>
          <ns3:TrackPointExtension>
            <ns3:hr>126</ns3:hr>
            <ns3:cad>53</ns3:cad>
          </ns3:TrackPointExtension>
        </extensions>
      </trkpt>
      <trkpt lat="45.30939482152462005615234375" lon="-71.0707536153495311737060546875">
        <ele>760</ele>
        <time>2026-08-21T23:09:55.000Z</time>
        <extensions>
          <ns3:TrackPointExtension>
            <ns3:hr>126</ns3:hr>
            <ns3:cad>52</ns3:cad>
          </ns3:TrackPointExtension>
        </extensions>
      </trkpt>
      <trkpt lat="45.3093887865543365478515625" lon="-71.07075420208275318145751953125">
        <ele>760</ele>
        <time>2026-08-21T23:09:56.000Z</time>
        <extensions>
          <ns3:TrackPointExtension>
            <ns3:hr>126</ns3:hr>
            <ns3:cad>52</ns3:cad>
          </ns3:TrackPointExtension>
        </extensions>
      </trkpt>
      <trkpt lat="45.30938250012695789337158203125" lon="-71.07075587846338748931884765625">
        <ele>760.20001220703125</ele>
        <time>2026-08-21T23:09:57.000Z</time>
        <extensions>
          <ns3:TrackPointExtension>
            <ns3:hr>127</ns3:hr>
            <ns3:cad>52</ns3:cad>
          </ns3:TrackPointExtension>
        </extensions>
      </trkpt>
      <trkpt lat="45.3093788959085941314697265625" lon="-71.0707613267004489898681640625">
        <ele>760.4000244140625</ele>
        <time>2026-08-21T23:09:58.000Z</time>
        <extensions>
          <ns3:TrackPointExtension>
            <ns3:hr>127</ns3:hr>
            <ns3:cad>48</ns3:cad>
          </ns3:TrackPointExtension>
        </extensions>
      </trkpt>
      <trkpt lat="45.30936892144381999969482421875" lon="-71.070768199861049652099609375">
        <ele>760.4000244140625</ele>
        <time>2026-08-21T23:09:59.000Z</time>
        <extensions>
          <ns3:TrackPointExtension>
            <ns3:hr>127</ns3:hr>
            <ns3:cad>48</ns3:cad>
          </ns3:TrackPointExtension>
        </extensions>
      </trkpt>
      <trkpt lat="45.3093574382364749908447265625" lon="-71.0707777552306652069091796875">
        <ele>760.4000244140625</ele>
        <time>2026-08-21T23:10:00.000Z</time>
        <extensions>
          <ns3:TrackPointExtension>
            <ns3:hr>128</ns3:hr>
            <ns3:cad>48</ns3:cad>
          </ns3:TrackPointExtension>
        </extensions>
      </trkpt>
      <trkpt lat="45.30934922397136688232421875" lon="-71.0707861371338367462158203125">
        <ele>760.5999755859375</ele>
        <time>2026-08-21T23:10:01.000Z</time>
        <extensions>
          <ns3:TrackPointExtension>
            <ns3:hr>128</ns3:hr>
            <ns3:cad>42</ns3:cad>
          </ns3:TrackPointExtension>
        </extensions>
      </trkpt>
      <trkpt lat="45.3093386627733707427978515625" lon="-71.0707955248653888702392578125">
        <ele>760.5999755859375</ele>
        <time>2026-08-21T23:10:02.000Z</time>
        <extensions>
          <ns3:TrackPointExtension>
            <ns3:hr>128</ns3:hr>
            <ns3:cad>42</ns3:cad>
          </ns3:TrackPointExtension>
        </extensions>
      </trkpt>
      <trkpt lat="45.309330783784389495849609375" lon="-71.0708047449588775634765625">
        <ele>760.5999755859375</ele>
        <time>2026-08-21T23:10:03.000Z</time>
        <extensions>
          <ns3:TrackPointExtension>
            <ns3:hr>127</ns3:hr>
            <ns3:cad>45</ns3:cad>
          </ns3:TrackPointExtension>
        </extensions>
      </trkpt>
      <trkpt lat="45.30931946821510791778564453125" lon="-71.070817150175571441650390625">
        <ele>760.5999755859375</ele>
        <time>2026-08-21T23:10:04.000Z</time>
        <extensions>
          <ns3:TrackPointExtension>
            <ns3:hr>127</ns3:hr>
            <ns3:cad>45</ns3:cad>
          </ns3:TrackPointExtension>
        </extensions>
      </trkpt>
      <trkpt lat="45.3093125112354755401611328125" lon="-71.0708288848400115966796875">
        <ele>760.79998779296875</ele>
        <time>2026-08-21T23:10:05.000Z</time>
        <extensions>
          <ns3:TrackPointExtension>
            <ns3:hr>128</ns3:hr>
            <ns3:cad>49</ns3:cad>
          </ns3:TrackPointExtension>
        </extensions>
      </trkpt>
      <trkpt lat="45.3093041293323040008544921875" lon="-71.07084372080862522125244140625">
        <ele>760.79998779296875</ele>
        <time>2026-08-21T23:10:06.000Z</time>
        <extensions>
          <ns3:TrackPointExtension>
            <ns3:hr>128</ns3:hr>
            <ns3:cad>49</ns3:cad>
          </ns3:TrackPointExtension>
        </extensions>
      </trkpt>
      <trkpt lat="45.3092954121530055999755859375" lon="-71.0708531923592090606689453125">
        <ele>761</ele>
        <time>2026-08-21T23:10:07.000Z</time>
        <extensions>
          <ns3:TrackPointExtension>
            <ns3:hr>128</ns3:hr>
            <ns3:cad>49</ns3:cad>
          </ns3:TrackPointExtension>
        </extensions>
      </trkpt>
      <trkpt lat="45.30928887426853179931640625" lon="-71.07087205164134502410888671875">
        <ele>761</ele>
        <time>2026-08-21T23:10:08.000Z</time>
        <extensions>
          <ns3:TrackPointExtension>
            <ns3:hr>128</ns3:hr>
            <ns3:cad>48</ns3:cad>
          </ns3:TrackPointExtension>
        </extensions>
      </trkpt>
      <trkpt lat="45.3092813305556774139404296875" lon="-71.0708833672106266021728515625">
        <ele>761.20001220703125</ele>
        <time>2026-08-21T23:10:09.000Z</time>
        <extensions>
          <ns3:TrackPointExtension>
            <ns3:hr>128</ns3:hr>
            <ns3:cad>48</ns3:cad>
          </ns3:TrackPointExtension>
        </extensions>
      </trkpt>
      <trkpt lat="45.30927169136703014373779296875" lon="-71.070898957550525665283203125">
        <ele>761.20001220703125</ele>
        <time>2026-08-21T23:10:10.000Z</time>
        <extensions>
          <ns3:TrackPointExtension>
            <ns3:hr>127</ns3:hr>
            <ns3:cad>48</ns3:cad>
          </ns3:TrackPointExtension>
        </extensions>
      </trkpt>
      <trkpt lat="45.3092638961970806121826171875" lon="-71.07091136276721954345703125">
        <ele>761.4000244140625</ele>
        <time>2026-08-21T23:10:11.000Z</time>
        <extensions>
          <ns3:TrackPointExtension>
            <ns3:hr>126</ns3:hr>
            <ns3:cad>48</ns3:cad>
          </ns3:TrackPointExtension>
        </extensions>
      </trkpt>
      <trkpt lat="45.30925710685551166534423828125" lon="-71.070920415222644805908203125">
        <ele>761.4000244140625</ele>
        <time>2026-08-21T23:10:12.000Z</time>
        <extensions>
          <ns3:TrackPointExtension>
            <ns3:hr>126</ns3:hr>
            <ns3:cad>50</ns3:cad>
          </ns3:TrackPointExtension>
        </extensions>
      </trkpt>
      <trkpt lat="45.30924989841878414154052734375" lon="-71.07092745602130889892578125">
        <ele>761.5999755859375</ele>
        <time>2026-08-21T23:10:13.000Z</time>
        <extensions>
          <ns3:TrackPointExtension>
            <ns3:hr>126</ns3:hr>
            <ns3:cad>50</ns3:cad>
          </ns3:TrackPointExtension>
        </extensions>
      </trkpt>
      <trkpt lat="45.30924260616302490234375" lon="-71.07093424536287784576416015625">
        <ele>761.5999755859375</ele>
        <time>2026-08-21T23:10:14.000Z</time>
        <extensions>
          <ns3:TrackPointExtension>
            <ns3:hr>126</ns3:hr>
            <ns3:cad>50</ns3:cad>
          </ns3:TrackPointExtension>
        </extensions>
      </trkpt>
      <trkpt lat="45.30923799611628055572509765625" lon="-71.0709400288760662078857421875">
        <ele>761.79998779296875</ele>
        <time>2026-08-21T23:10:15.000Z</time>
        <extensions>
          <ns3:TrackPointExtension>
            <ns3:hr>125</ns3:hr>
            <ns3:cad>52</ns3:cad>
          </ns3:TrackPointExtension>
        </extensions>
      </trkpt>
      <trkpt lat="45.30922911129891872406005859375" lon="-71.070951260626316070556640625">
        <ele>761.79998779296875</ele>
        <time>2026-08-21T23:10:16.000Z</time>
        <extensions>
          <ns3:TrackPointExtension>
            <ns3:hr>126</ns3:hr>
            <ns3:cad>52</ns3:cad>
          </ns3:TrackPointExtension>
        </extensions>
      </trkpt>
      <trkpt lat="45.3092229925096035003662109375" lon="-71.070961989462375640869140625">
        <ele>762</ele>
        <time>2026-08-21T23:10:17.000Z</time>
        <extensions>
          <ns3:TrackPointExtension>
            <ns3:hr>126</ns3:hr>
            <ns3:cad>52</ns3:cad>
          </ns3:TrackPointExtension>
        </extensions>
      </trkpt>
      <trkpt lat="45.30921645462512969970703125" lon="-71.07097573578357696533203125">
        <ele>762</ele>
        <time>2026-08-21T23:10:18.000Z</time>
        <extensions>
          <ns3:TrackPointExtension>
            <ns3:hr>126</ns3:hr>
            <ns3:cad>52</ns3:cad>
          </ns3:TrackPointExtension>
        </extensions>
      </trkpt>
      <trkpt lat="45.30921083875000476837158203125" lon="-71.0709862969815731048583984375">
        <ele>762.20001220703125</ele>
        <time>2026-08-21T23:10:19.000Z</time>
        <extensions>
          <ns3:TrackPointExtension>
            <ns3:hr>126</ns3:hr>
            <ns3:cad>47</ns3:cad>
          </ns3:TrackPointExtension>
        </extensions>
      </trkpt>
      <trkpt lat="45.30920614488422870635986328125" lon="-71.070996858179569244384765625">
        <ele>762.20001220703125</ele>
        <time>2026-08-21T23:10:20.000Z</time>
        <extensions>
          <ns3:TrackPointExtension>
            <ns3:hr>126</ns3:hr>
            <ns3:cad>46</ns3:cad>
          </ns3:TrackPointExtension>
        </extensions>
      </trkpt>
      <trkpt lat="45.30919994227588176727294921875" lon="-71.07101303525269031524658203125">
        <ele>762.4000244140625</ele>
        <time>2026-08-21T23:10:21.000Z</time>
        <extensions>
          <ns3:TrackPointExtension>
            <ns3:hr>126</ns3:hr>
            <ns3:cad>46</ns3:cad>
          </ns3:TrackPointExtension>
        </extensions>
      </trkpt>
      <trkpt lat="45.309192650020122528076171875" lon="-71.0710248537361621856689453125">
        <ele>762.4000244140625</ele>
        <time>2026-08-21T23:10:22.000Z</time>
        <extensions>
          <ns3:TrackPointExtension>
            <ns3:hr>126</ns3:hr>
            <ns3:cad>46</ns3:cad>
          </ns3:TrackPointExtension>
        </extensions>
      </trkpt>
      <trkpt lat="45.309188626706600189208984375" lon="-71.07103600166738033294677734375">
        <ele>762.5999755859375</ele>
        <time>2026-08-21T23:10:23.000Z</time>
        <extensions>
          <ns3:TrackPointExtension>
            <ns3:hr>126</ns3:hr>
            <ns3:cad>46</ns3:cad>
          </ns3:TrackPointExtension>
        </extensions>
      </trkpt>
      <trkpt lat="45.309184603393077850341796875" lon="-71.07104488648474216461181640625">
        <ele>762.5999755859375</ele>
        <time>2026-08-21T23:10:24.000Z</time>
        <extensions>
          <ns3:TrackPointExtension>
            <ns3:hr>126</ns3:hr>
            <ns3:cad>46</ns3:cad>
          </ns3:TrackPointExtension>
        </extensions>
      </trkpt>
      <trkpt lat="45.309179238975048065185546875" lon="-71.0710489936172962188720703125">
        <ele>762.79998779296875</ele>
        <time>2026-08-21T23:10:25.000Z</time>
        <extensions>
          <ns3:TrackPointExtension>
            <ns3:hr>126</ns3:hr>
            <ns3:cad>46</ns3:cad>
          </ns3:TrackPointExtension>
        </extensions>
      </trkpt>
      <trkpt lat="45.30917177908122539520263671875" lon="-71.07105695642530918121337890625">
        <ele>762.79998779296875</ele>
        <time>2026-08-21T23:10:26.000Z</time>
        <extensions>
          <ns3:TrackPointExtension>
            <ns3:hr>126</ns3:hr>
            <ns3:cad>46</ns3:cad>
          </ns3:TrackPointExtension>
        </extensions>
      </trkpt>
      <trkpt lat="45.309164486825466156005859375" lon="-71.07107506133615970611572265625">
        <ele>762.79998779296875</ele>
        <time>2026-08-21T23:10:27.000Z</time>
        <extensions>
          <ns3:TrackPointExtension>
            <ns3:hr>126</ns3:hr>
            <ns3:cad>43</ns3:cad>
          </ns3:TrackPointExtension>
        </extensions>
      </trkpt>
      <trkpt lat="45.30916021205484867095947265625" lon="-71.0710821859538555145263671875">
        <ele>762.79998779296875</ele>
        <time>2026-08-21T23:10:28.000Z</time>
        <extensions>
          <ns3:TrackPointExtension>
            <ns3:hr>126</ns3:hr>
            <ns3:cad>43</ns3:cad>
          </ns3:TrackPointExtension>
        </extensions>
      </trkpt>
      <trkpt lat="45.3091542609035968780517578125" lon="-71.07109232805669307708740234375">
        <ele>762.79998779296875</ele>
        <time>2026-08-21T23:10:29.000Z</time>
        <extensions>
          <ns3:TrackPointExtension>
            <ns3:hr>126</ns3:hr>
            <ns3:cad>43</ns3:cad>
          </ns3:TrackPointExtension>
        </extensions>
      </trkpt>
      <trkpt lat="45.3091488964855670928955078125" lon="-71.07110473327338695526123046875">
        <ele>762.79998779296875</ele>
        <time>2026-08-21T23:10:30.000Z</time>
        <extensions>
          <ns3:TrackPointExtension>
            <ns3:hr>126</ns3:hr>
            <ns3:cad>43</ns3:cad>
          </ns3:TrackPointExtension>
        </extensions>
      </trkpt>
      <trkpt lat="45.30914043076336383819580078125" lon="-71.07111655175685882568359375">
        <ele>763</ele>
        <time>2026-08-21T23:10:31.000Z</time>
        <extensions>
          <ns3:TrackPointExtension>
            <ns3:hr>126</ns3:hr>
            <ns3:cad>43</ns3:cad>
          </ns3:TrackPointExtension>
        </extensions>
      </trkpt>
      <trkpt lat="45.309135653078556060791015625" lon="-71.07112417928874492645263671875">
        <ele>763</ele>
        <time>2026-08-21T23:10:32.000Z</time>
        <extensions>
          <ns3:TrackPointExtension>
            <ns3:hr>126</ns3:hr>
            <ns3:cad>43</ns3:cad>
          </ns3:TrackPointExtension>
        </extensions>
      </trkpt>
      <trkpt lat="45.30913020484149456024169921875" lon="-71.07113323174417018890380859375">
        <ele>763.20001220703125</ele>
        <time>2026-08-21T23:10:33.000Z</time>
        <extensions>
          <ns3:TrackPointExtension>
            <ns3:hr>126</ns3:hr>
            <ns3:cad>43</ns3:cad>
          </ns3:TrackPointExtension>
        </extensions>
      </trkpt>
      <trkpt lat="45.30912500806152820587158203125" lon="-71.0711398534476757049560546875">
        <ele>763.4000244140625</ele>
        <time>2026-08-21T23:10:34.000Z</time>
        <extensions>
          <ns3:TrackPointExtension>
            <ns3:hr>126</ns3:hr>
            <ns3:cad>43</ns3:cad>
          </ns3:TrackPointExtension>
        </extensions>
      </trkpt>
      <trkpt lat="45.30912266112864017486572265625" lon="-71.07114613987505435943603515625">
        <ele>763.4000244140625</ele>
        <time>2026-08-21T23:10:35.000Z</time>
        <extensions>
          <ns3:TrackPointExtension>
            <ns3:hr>126</ns3:hr>
            <ns3:cad>43</ns3:cad>
          </ns3:TrackPointExtension>
        </extensions>
      </trkpt>
      <trkpt lat="45.30911494977772235870361328125" lon="-71.071160137653350830078125">
        <ele>763.5999755859375</ele>
        <time>2026-08-21T23:10:36.000Z</time>
        <extensions>
          <ns3:TrackPointExtension>
            <ns3:hr>126</ns3:hr>
            <ns3:cad>0</ns3:cad>
          </ns3:TrackPointExtension>
        </extensions>
      </trkpt>
      <trkpt lat="45.3091093339025974273681640625" lon="-71.07116625644266605377197265625">
        <ele>763.79998779296875</ele>
        <time>2026-08-21T23:10:37.000Z</time>
        <extensions>
          <ns3:TrackPointExtension>
            <ns3:hr>126</ns3:hr>
            <ns3:cad>0</ns3:cad>
          </ns3:TrackPointExtension>
        </extensions>
      </trkpt>
      <trkpt lat="45.30910053290426731109619140625" lon="-71.07117421925067901611328125">
        <ele>764</ele>
        <time>2026-08-21T23:10:38.000Z</time>
        <extensions>
          <ns3:TrackPointExtension>
            <ns3:hr>126</ns3:hr>
            <ns3:cad>0</ns3:cad>
          </ns3:TrackPointExtension>
        </extensions>
      </trkpt>
      <trkpt lat="45.3090969286859035491943359375" lon="-71.07118151150643825531005859375">
        <ele>764.20001220703125</ele>
        <time>2026-08-21T23:10:39.000Z</time>
        <extensions>
          <ns3:TrackPointExtension>
            <ns3:hr>127</ns3:hr>
            <ns3:cad>0</ns3:cad>
          </ns3:TrackPointExtension>
        </extensions>
      </trkpt>
      <trkpt lat="45.3090918995440006256103515625" lon="-71.0711921565234661102294921875">
        <ele>764.4000244140625</ele>
        <time>2026-08-21T23:10:40.000Z</time>
        <extensions>
          <ns3:TrackPointExtension>
            <ns3:hr>127</ns3:hr>
            <ns3:cad>0</ns3:cad>
          </ns3:TrackPointExtension>
        </extensions>
      </trkpt>
      <trkpt lat="45.30908611603081226348876953125" lon="-71.07120464555919170379638671875">
        <ele>764.5999755859375</ele>
        <time>2026-08-21T23:10:41.000Z</time>
        <extensions>
          <ns3:TrackPointExtension>
            <ns3:hr>127</ns3:hr>
            <ns3:cad>0</ns3:cad>
          </ns3:TrackPointExtension>
        </extensions>
      </trkpt>
      <trkpt lat="45.3090835176408290863037109375" lon="-71.07121235691010951995849609375">
        <ele>764.79998779296875</ele>
        <time>2026-08-21T23:10:42.000Z</time>
        <extensions>
          <ns3:TrackPointExtension>
            <ns3:hr>128</ns3:hr>
            <ns3:cad>0</ns3:cad>
          </ns3:TrackPointExtension>
        </extensions>
      </trkpt>
      <trkpt lat="45.3090748004615306854248046875" lon="-71.07121487148106098175048828125">
        <ele>764.79998779296875</ele>
        <time>2026-08-21T23:10:43.000Z</time>
        <extensions>
          <ns3:TrackPointExtension>
            <ns3:hr>129</ns3:hr>
            <ns3:cad>0</ns3:cad>
          </ns3:TrackPointExtension>
        </extensions>
      </trkpt>
      <trkpt lat="45.309071280062198638916015625" lon="-71.07121671549975872039794921875">
        <ele>765</ele>
        <time>2026-08-21T23:10:44.000Z</time>
        <extensions>
          <ns3:TrackPointExtension>
            <ns3:hr>129</ns3:hr>
            <ns3:cad>0</ns3:cad>
          </ns3:TrackPointExtension>
        </extensions>
      </trkpt>
      <trkpt lat="45.3090613894164562225341796875" lon="-71.071223504841327667236328125">
        <ele>765.20001220703125</ele>
        <time>2026-08-21T23:10:45.000Z</time>
        <extensions>
          <ns3:TrackPointExtension>
            <ns3:hr>129</ns3:hr>
            <ns3:cad>0</ns3:cad>
          </ns3:TrackPointExtension>
        </extensions>
      </trkpt>
      <trkpt lat="45.3090535104274749755859375" lon="-71.071229875087738037109375">
        <ele>765.4000244140625</ele>
        <time>2026-08-21T23:10:46.000Z</time>
        <extensions>
          <ns3:TrackPointExtension>
            <ns3:hr>130</ns3:hr>
            <ns3:cad>51</ns3:cad>
          </ns3:TrackPointExtension>
        </extensions>
      </trkpt>
      <trkpt lat="45.3090449608862400054931640625" lon="-71.07123649679124355316162109375">
        <ele>765.4000244140625</ele>
        <time>2026-08-21T23:10:47.000Z</time>
        <extensions>
          <ns3:TrackPointExtension>
            <ns3:hr>130</ns3:hr>
            <ns3:cad>51</ns3:cad>
          </ns3:TrackPointExtension>
        </extensions>
      </trkpt>
      <trkpt lat="45.3090382553637027740478515625" lon="-71.07123934663832187652587890625">
        <ele>765.5999755859375</ele>
        <time>2026-08-21T23:10:48.000Z</time>
        <extensions>
          <ns3:TrackPointExtension>
            <ns3:hr>130</ns3:hr>
            <ns3:cad>51</ns3:cad>
          </ns3:TrackPointExtension>
        </extensions>
      </trkpt>
      <trkpt lat="45.3090281970798969268798828125" lon="-71.07124638743698596954345703125">
        <ele>765.79998779296875</ele>
        <time>2026-08-21T23:10:49.000Z</time>
        <extensions>
          <ns3:TrackPointExtension>
            <ns3:hr>130</ns3:hr>
            <ns3:cad>51</ns3:cad>
          </ns3:TrackPointExtension>
        </extensions>
      </trkpt>
      <trkpt lat="45.309018306434154510498046875" lon="-71.0712538473308086395263671875">
        <ele>766</ele>
        <time>2026-08-21T23:10:50.000Z</time>
        <extensions>
          <ns3:TrackPointExtension>
            <ns3:hr>130</ns3:hr>
            <ns3:cad>51</ns3:cad>
          </ns3:TrackPointExtension>
        </extensions>
      </trkpt>
      <trkpt lat="45.30901570804417133331298828125" lon="-71.0712639056146144866943359375">
        <ele>766.4000244140625</ele>
        <time>2026-08-21T23:10:51.000Z</time>
        <extensions>
          <ns3:TrackPointExtension>
            <ns3:hr>130</ns3:hr>
            <ns3:cad>0</ns3:cad>
          </ns3:TrackPointExtension>
        </extensions>
      </trkpt>
      <trkpt lat="45.3090079128742218017578125" lon="-71.0712746344506740570068359375">
        <ele>766.5999755859375</ele>
        <time>2026-08-21T23:10:52.000Z</time>
        <extensions>
          <ns3:TrackPointExtension>
            <ns3:hr>130</ns3:hr>
            <ns3:cad>0</ns3:cad>
          </ns3:TrackPointExtension>
        </extensions>
      </trkpt>
      <trkpt lat="45.30900112353265285491943359375" lon="-71.0712833516299724578857421875">
        <ele>767</ele>
        <time>2026-08-21T23:10:53.000Z</time>
        <extensions>
          <ns3:TrackPointExtension>
            <ns3:hr>130</ns3:hr>
            <ns3:cad>0</ns3:cad>
          </ns3:TrackPointExtension>
        </extensions>
      </trkpt>
      <trkpt lat="45.30899475328624248504638671875" lon="-71.071286536753177642822265625">
        <ele>767.20001220703125</ele>
        <time>2026-08-21T23:10:54.000Z</time>
        <extensions>
          <ns3:TrackPointExtension>
            <ns3:hr>131</ns3:hr>
            <ns3:cad>0</ns3:cad>
          </ns3:TrackPointExtension>
        </extensions>
      </trkpt>
      <trkpt lat="45.3089923225343227386474609375" lon="-71.07129600830376148223876953125">
        <ele>767.5999755859375</ele>
        <time>2026-08-21T23:10:55.000Z</time>
        <extensions>
          <ns3:TrackPointExtension>
            <ns3:hr>133</ns3:hr>
            <ns3:cad>0</ns3:cad>
          </ns3:TrackPointExtension>
        </extensions>
      </trkpt>
      <trkpt lat="45.30898511409759521484375" lon="-71.0713074915111064910888671875">
        <ele>767.79998779296875</ele>
        <time>2026-08-21T23:10:56.000Z</time>
        <extensions>
          <ns3:TrackPointExtension>
            <ns3:hr>133</ns3:hr>
            <ns3:cad>0</ns3:cad>
          </ns3:TrackPointExtension>
        </extensions>
      </trkpt>
      <trkpt lat="45.30898184515535831451416015625" lon="-71.07131662778556346893310546875">
        <ele>768</ele>
        <time>2026-08-21T23:10:57.000Z</time>
        <extensions>
          <ns3:TrackPointExtension>
            <ns3:hr>134</ns3:hr>
            <ns3:cad>0</ns3:cad>
          </ns3:TrackPointExtension>
        </extensions>
      </trkpt>
      <trkpt lat="45.308976732194423675537109375" lon="-71.0713323019444942474365234375">
        <ele>768.4000244140625</ele>
        <time>2026-08-21T23:10:58.000Z</time>
        <extensions>
          <ns3:TrackPointExtension>
            <ns3:hr>136</ns3:hr>
            <ns3:cad>0</ns3:cad>
          </ns3:TrackPointExtension>
        </extensions>
      </trkpt>
      <trkpt lat="45.30897505581378936767578125" lon="-71.07134529389441013336181640625">
        <ele>768.5999755859375</ele>
        <time>2026-08-21T23:10:59.000Z</time>
        <extensions>
          <ns3:TrackPointExtension>
            <ns3:hr>137</ns3:hr>
            <ns3:cad>0</ns3:cad>
          </ns3:TrackPointExtension>
        </extensions>
      </trkpt>
      <trkpt lat="45.30897178687155246734619140625" lon="-71.07136490754783153533935546875">
        <ele>768.79998779296875</ele>
        <time>2026-08-21T23:11:00.000Z</time>
        <extensions>
          <ns3:TrackPointExtension>
            <ns3:hr>136</ns3:hr>
            <ns3:cad>0</ns3:cad>
          </ns3:TrackPointExtension>
        </extensions>
      </trkpt>
      <trkpt lat="45.308965332806110382080078125" lon="-71.07137278653681278228759765625">
        <ele>768.79998779296875</ele>
        <time>2026-08-21T23:11:01.000Z</time>
        <extensions>
          <ns3:TrackPointExtension>
            <ns3:hr>135</ns3:hr>
            <ns3:cad>0</ns3:cad>
          </ns3:TrackPointExtension>
        </extensions>
      </trkpt>
      <trkpt lat="45.3089611418545246124267578125" lon="-71.07138133607804775238037109375">
        <ele>769</ele>
        <time>2026-08-21T23:11:02.000Z</time>
        <extensions>
          <ns3:TrackPointExtension>
            <ns3:hr>135</ns3:hr>
            <ns3:cad>0</ns3:cad>
          </ns3:TrackPointExtension>
        </extensions>
      </trkpt>
      <trkpt lat="45.30895217321813106536865234375" lon="-71.07139558531343936920166015625">
        <ele>769.20001220703125</ele>
        <time>2026-08-21T23:11:03.000Z</time>
        <extensions>
          <ns3:TrackPointExtension>
            <ns3:hr>137</ns3:hr>
            <ns3:cad>0</ns3:cad>
          </ns3:TrackPointExtension>
        </extensions>
      </trkpt>
      <trkpt lat="45.3089587949216365814208984375" lon="-71.07139340601861476898193359375">
        <ele>769.4000244140625</ele>
        <time>2026-08-21T23:11:04.000Z</time>
        <extensions>
          <ns3:TrackPointExtension>
            <ns3:hr>138</ns3:hr>
            <ns3:cad>0</ns3:cad>
          </ns3:TrackPointExtension>
        </extensions>
      </trkpt>
      <trkpt lat="45.308951921761035919189453125" lon="-71.07140262611210346221923828125">
        <ele>769.5999755859375</ele>
        <time>2026-08-21T23:11:05.000Z</time>
        <extensions>
          <ns3:TrackPointExtension>
            <ns3:hr>138</ns3:hr>
            <ns3:cad>0</ns3:cad>
          </ns3:TrackPointExtension>
        </extensions>
      </trkpt>
      <trkpt lat="45.30894362367689609527587890625" lon="-71.0714134387671947479248046875">
        <ele>770</ele>
        <time>2026-08-21T23:11:06.000Z</time>
        <extensions>
          <ns3:TrackPointExtension>
            <ns3:hr>139</ns3:hr>
            <ns3:cad>0</ns3:cad>
          </ns3:TrackPointExtension>
        </extensions>
      </trkpt>
      <trkpt lat="45.3089381754398345947265625" lon="-71.071422994136810302734375">
        <ele>770.20001220703125</ele>
        <time>2026-08-21T23:11:07.000Z</time>
        <extensions>
          <ns3:TrackPointExtension>
            <ns3:hr>139</ns3:hr>
            <ns3:cad>45</ns3:cad>
          </ns3:TrackPointExtension>
        </extensions>
      </trkpt>
      <trkpt lat="45.308928787708282470703125" lon="-71.0714323818683624267578125">
        <ele>770.5999755859375</ele>
        <time>2026-08-21T23:11:08.000Z</time>
        <extensions>
          <ns3:TrackPointExtension>
            <ns3:hr>139</ns3:hr>
            <ns3:cad>0</ns3:cad>
          </ns3:TrackPointExtension>
        </extensions>
      </trkpt>
      <trkpt lat="45.30892920680344104766845703125" lon="-71.0714355669915676116943359375">
        <ele>770.79998779296875</ele>
        <time>2026-08-21T23:11:09.000Z</time>
        <extensions>
          <ns3:TrackPointExtension>
            <ns3:hr>138</ns3:hr>
            <ns3:cad>0</ns3:cad>
          </ns3:TrackPointExtension>
        </extensions>
      </trkpt>
      <trkpt lat="45.30891965143382549285888671875" lon="-71.071454845368862152099609375">
        <ele>771.20001220703125</ele>
        <time>2026-08-21T23:11:10.000Z</time>
        <extensions>
          <ns3:TrackPointExtension>
            <ns3:hr>138</ns3:hr>
            <ns3:cad>0</ns3:cad>
          </ns3:TrackPointExtension>
        </extensions>
      </trkpt>
      <trkpt lat="45.308918394148349761962890625" lon="-71.07146565802395343780517578125">
        <ele>771.4000244140625</ele>
        <time>2026-08-21T23:11:11.000Z</time>
        <extensions>
          <ns3:TrackPointExtension>
            <ns3:hr>137</ns3:hr>
            <ns3:cad>0</ns3:cad>
          </ns3:TrackPointExtension>
        </extensions>
      </trkpt>
      <trkpt lat="45.30891713686287403106689453125" lon="-71.07147605158388614654541015625">
        <ele>771.5999755859375</ele>
        <time>2026-08-21T23:11:12.000Z</time>
        <extensions>
          <ns3:TrackPointExtension>
            <ns3:hr>137</ns3:hr>
            <ns3:cad>0</ns3:cad>
          </ns3:TrackPointExtension>
        </extensions>
      </trkpt>
      <trkpt lat="45.30891160480678081512451171875" lon="-71.07148376293480396270751953125">
        <ele>771.79998779296875</ele>
        <time>2026-08-21T23:11:13.000Z</time>
        <extensions>
          <ns3:TrackPointExtension>
            <ns3:hr>137</ns3:hr>
            <ns3:cad>0</ns3:cad>
          </ns3:TrackPointExtension>
        </extensions>
      </trkpt>
      <trkpt lat="45.30890556983649730682373046875" lon="-71.0714912228286266326904296875">
        <ele>772</ele>
        <time>2026-08-21T23:11:14.000Z</time>
        <extensions>
          <ns3:TrackPointExtension>
            <ns3:hr>138</ns3:hr>
            <ns3:cad>0</ns3:cad>
          </ns3:TrackPointExtension>
        </extensions>
      </trkpt>
      <trkpt lat="45.30889802612364292144775390625" lon="-71.07150337658822536468505859375">
        <ele>772.20001220703125</ele>
        <time>2026-08-21T23:11:15.000Z</time>
        <extensions>
          <ns3:TrackPointExtension>
            <ns3:hr>139</ns3:hr>
            <ns3:cad>0</ns3:cad>
          </ns3:TrackPointExtension>
        </extensions>
      </trkpt>
      <trkpt lat="45.30889593064785003662109375" lon="-71.07151217758655548095703125">
        <ele>772.4000244140625</ele>
        <time>2026-08-21T23:11:16.000Z</time>
        <extensions>
          <ns3:TrackPointExtension>
            <ns3:hr>139</ns3:hr>
            <ns3:cad>0</ns3:cad>
          </ns3:TrackPointExtension>
        </extensions>
      </trkpt>
      <trkpt lat="45.3088924102485179901123046875" lon="-71.07152215205132961273193359375">
        <ele>772.5999755859375</ele>
        <time>2026-08-21T23:11:17.000Z</time>
        <extensions>
          <ns3:TrackPointExtension>
            <ns3:hr>139</ns3:hr>
            <ns3:cad>43</ns3:cad>
          </ns3:TrackPointExtension>
        </extensions>
      </trkpt>
      <trkpt lat="45.308889560401439666748046875" lon="-71.07153371907770633697509765625">
        <ele>772.79998779296875</ele>
        <time>2026-08-21T23:11:18.000Z</time>
        <extensions>
          <ns3:TrackPointExtension>
            <ns3:hr>138</ns3:hr>
            <ns3:cad>43</ns3:cad>
          </ns3:TrackPointExtension>
        </extensions>
      </trkpt>
      <trkpt lat="45.308883190155029296875" lon="-71.0715411789715290069580078125">
        <ele>772.79998779296875</ele>
        <time>2026-08-21T23:11:19.000Z</time>
        <extensions>
          <ns3:TrackPointExtension>
            <ns3:hr>139</ns3:hr>
            <ns3:cad>48</ns3:cad>
          </ns3:TrackPointExtension>
        </extensions>
      </trkpt>
      <trkpt lat="45.3088776580989360809326171875" lon="-71.07155065052211284637451171875">
        <ele>773</ele>
        <time>2026-08-21T23:11:20.000Z</time>
        <extensions>
          <ns3:TrackPointExtension>
            <ns3:hr>139</ns3:hr>
            <ns3:cad>48</ns3:cad>
          </ns3:TrackPointExtension>
        </extensions>
      </trkpt>
      <trkpt lat="45.3088696114718914031982421875" lon="-71.0715686716139316558837890625">
        <ele>773.20001220703125</ele>
        <time>2026-08-21T23:11:21.000Z</time>
        <extensions>
          <ns3:TrackPointExtension>
            <ns3:hr>140</ns3:hr>
            <ns3:cad>48</ns3:cad>
          </ns3:TrackPointExtension>
        </extensions>
      </trkpt>
      <trkpt lat="45.30887204222381114959716796875" lon="-71.07156808488070964813232421875">
        <ele>773.4000244140625</ele>
        <time>2026-08-21T23:11:22.000Z</time>
        <extensions>
          <ns3:TrackPointExtension>
            <ns3:hr>140</ns3:hr>
            <ns3:cad>48</ns3:cad>
          </ns3:TrackPointExtension>
        </extensions>
      </trkpt>
      <trkpt lat="45.3088702820241451263427734375" lon="-71.0715780593454837799072265625">
        <ele>773.5999755859375</ele>
        <time>2026-08-21T23:11:23.000Z</time>
        <extensions>
          <ns3:TrackPointExtension>
            <ns3:hr>140</ns3:hr>
            <ns3:cad>48</ns3:cad>
          </ns3:TrackPointExtension>
        </extensions>
      </trkpt>
      <trkpt lat="45.30886751599609851837158203125" lon="-71.07158266939222812652587890625">
        <ele>774</ele>
        <time>2026-08-21T23:11:24.000Z</time>
        <extensions>
          <ns3:TrackPointExtension>
            <ns3:hr>141</ns3:hr>
            <ns3:cad>42</ns3:cad>
          </ns3:TrackPointExtension>
        </extensions>
      </trkpt>
      <trkpt lat="45.30886366032063961029052734375" lon="-71.07158618979156017303466796875">
        <ele>774.4000244140625</ele>
        <time>2026-08-21T23:11:25.000Z</time>
        <extensions>
          <ns3:TrackPointExtension>
            <ns3:hr>141</ns3:hr>
            <ns3:cad>42</ns3:cad>
          </ns3:TrackPointExtension>
        </extensions>
      </trkpt>
      <trkpt lat="45.30885972082614898681640625" lon="-71.0715991817414760589599609375">
        <ele>774.5999755859375</ele>
        <time>2026-08-21T23:11:26.000Z</time>
        <extensions>
          <ns3:TrackPointExtension>
            <ns3:hr>141</ns3:hr>
            <ns3:cad>42</ns3:cad>
          </ns3:TrackPointExtension>
        </extensions>
      </trkpt>
      <trkpt lat="45.30885812826454639434814453125" lon="-71.0716062225401401519775390625">
        <ele>774.79998779296875</ele>
        <time>2026-08-21T23:11:27.000Z</time>
        <extensions>
          <ns3:TrackPointExtension>
            <ns3:hr>141</ns3:hr>
            <ns3:cad>0</ns3:cad>
          </ns3:TrackPointExtension>
        </extensions>
      </trkpt>
      <trkpt lat="45.3088498301804065704345703125" lon="-71.07161737047135829925537109375">
        <ele>775.20001220703125</ele>
        <time>2026-08-21T23:11:28.000Z</time>
        <extensions>
          <ns3:TrackPointExtension>
            <ns3:hr>141</ns3:hr>
            <ns3:cad>0</ns3:cad>
          </ns3:TrackPointExtension>
        </extensions>
      </trkpt>
      <trkpt lat="45.3088458068668842315673828125" lon="-71.0716176219284534454345703125">
        <ele>775.4000244140625</ele>
        <time>2026-08-21T23:11:29.000Z</time>
        <extensions>
          <ns3:TrackPointExtension>
            <ns3:hr>141</ns3:hr>
            <ns3:cad>0</ns3:cad>
          </ns3:TrackPointExtension>
        </extensions>
      </trkpt>
      <trkpt lat="45.30883750878274440765380859375" lon="-71.0716223157942295074462890625">
        <ele>775.5999755859375</ele>
        <time>2026-08-21T23:11:30.000Z</time>
        <extensions>
          <ns3:TrackPointExtension>
            <ns3:hr>141</ns3:hr>
            <ns3:cad>0</ns3:cad>
          </ns3:TrackPointExtension>
        </extensions>
      </trkpt>
      <trkpt lat="45.30883382074534893035888671875" lon="-71.07163229025900363922119140625">
        <ele>775.79998779296875</ele>
        <time>2026-08-21T23:11:31.000Z</time>
        <extensions>
          <ns3:TrackPointExtension>
            <ns3:hr>141</ns3:hr>
            <ns3:cad>0</ns3:cad>
          </ns3:TrackPointExtension>
        </extensions>
      </trkpt>
      <trkpt lat="45.30883315019309520721435546875" lon="-71.0716347210109233856201171875">
        <ele>776</ele>
        <time>2026-08-21T23:11:32.000Z</time>
        <extensions>
          <ns3:TrackPointExtension>
            <ns3:hr>141</ns3:hr>
            <ns3:cad>0</ns3:cad>
          </ns3:TrackPointExtension>
        </extensions>
      </trkpt>
      <trkpt lat="45.30882887542247772216796875" lon="-71.07164536602795124053955078125">
        <ele>776.4000244140625</ele>
        <time>2026-08-21T23:11:33.000Z</time>
        <extensions>
          <ns3:TrackPointExtension>
            <ns3:hr>142</ns3:hr>
            <ns3:cad>0</ns3:cad>
          </ns3:TrackPointExtension>
        </extensions>
      </trkpt>
      <trkpt lat="45.3088206611573696136474609375" lon="-71.07165542431175708770751953125">
        <ele>776.4000244140625</ele>
        <time>2026-08-21T23:11:34.000Z</time>
        <extensions>
          <ns3:TrackPointExtension>
            <ns3:hr>144</ns3:hr>
            <ns3:cad>0</ns3:cad>
          </ns3:TrackPointExtension>
        </extensions>
      </trkpt>
      <trkpt lat="45.3088193200528621673583984375" lon="-71.07166447676718235015869140625">
        <ele>776.79998779296875</ele>
        <time>2026-08-21T23:11:35.000Z</time>
        <extensions>
          <ns3:TrackPointExtension>
            <ns3:hr>145</ns3:hr>
            <ns3:cad>0</ns3:cad>
          </ns3:TrackPointExtension>
        </extensions>
      </trkpt>
      <trkpt lat="45.308817140758037567138671875" lon="-71.07167981564998626708984375">
        <ele>777</ele>
        <time>2026-08-21T23:11:36.000Z</time>
        <extensions>
          <ns3:TrackPointExtension>
            <ns3:hr>145</ns3:hr>
            <ns3:cad>0</ns3:cad>
          </ns3:TrackPointExtension>
        </extensions>
      </trkpt>
      <trkpt lat="45.30881353653967380523681640625" lon="-71.07168979011476039886474609375">
        <ele>777.20001220703125</ele>
        <time>2026-08-21T23:11:37.000Z</time>
        <extensions>
          <ns3:TrackPointExtension>
            <ns3:hr>144</ns3:hr>
            <ns3:cad>0</ns3:cad>
          </ns3:TrackPointExtension>
        </extensions>
      </trkpt>
      <trkpt lat="45.30880901031196117401123046875" lon="-71.07169146649539470672607421875">
        <ele>777.4000244140625</ele>
        <time>2026-08-21T23:11:38.000Z</time>
        <extensions>
          <ns3:TrackPointExtension>
            <ns3:hr>144</ns3:hr>
            <ns3:cad>0</ns3:cad>
          </ns3:TrackPointExtension>
        </extensions>
      </trkpt>
      <trkpt lat="45.30880364589393138885498046875" lon="-71.07170035131275653839111328125">
        <ele>777.5999755859375</ele>
        <time>2026-08-21T23:11:39.000Z</time>
        <extensions>
          <ns3:TrackPointExtension>
            <ns3:hr>143</ns3:hr>
            <ns3:cad>0</ns3:cad>
          </ns3:TrackPointExtension>
        </extensions>
      </trkpt>
      <trkpt lat="45.308793671429157257080078125" lon="-71.07170906849205493927001953125">
        <ele>777.79998779296875</ele>
        <time>2026-08-21T23:11:40.000Z</time>
        <extensions>
          <ns3:TrackPointExtension>
            <ns3:hr>143</ns3:hr>
            <ns3:cad>0</ns3:cad>
          </ns3:TrackPointExtension>
        </extensions>
      </trkpt>
      <trkpt lat="45.3087861277163028717041015625" lon="-71.0717138461768627166748046875">
        <ele>778</ele>
        <time>2026-08-21T23:11:41.000Z</time>
        <extensions>
          <ns3:TrackPointExtension>
            <ns3:hr>143</ns3:hr>
            <ns3:cad>0</ns3:cad>
          </ns3:TrackPointExtension>
        </extensions>
      </trkpt>
      <trkpt lat="45.30878352932631969451904296875" lon="-71.07171912677586078643798828125">
        <ele>778.20001220703125</ele>
        <time>2026-08-21T23:11:42.000Z</time>
        <extensions>
          <ns3:TrackPointExtension>
            <ns3:hr>142</ns3:hr>
            <ns3:cad>0</ns3:cad>
          </ns3:TrackPointExtension>
        </extensions>
      </trkpt>
      <trkpt lat="45.30877766199409961700439453125" lon="-71.071725748479366302490234375">
        <ele>778.4000244140625</ele>
        <time>2026-08-21T23:11:43.000Z</time>
        <extensions>
          <ns3:TrackPointExtension>
            <ns3:hr>143</ns3:hr>
            <ns3:cad>0</ns3:cad>
          </ns3:TrackPointExtension>
        </extensions>
      </trkpt>
      <trkpt lat="45.3087717108428478240966796875" lon="-71.07173572294414043426513671875">
        <ele>778.4000244140625</ele>
        <time>2026-08-21T23:11:44.000Z</time>
        <extensions>
          <ns3:TrackPointExtension>
            <ns3:hr>143</ns3:hr>
            <ns3:cad>0</ns3:cad>
          </ns3:TrackPointExtension>
        </extensions>
      </trkpt>
      <trkpt lat="45.3087653405964374542236328125" lon="-71.0717435181140899658203125">
        <ele>778.5999755859375</ele>
        <time>2026-08-21T23:11:45.000Z</time>
        <extensions>
          <ns3:TrackPointExtension>
            <ns3:hr>143</ns3:hr>
            <ns3:cad>0</ns3:cad>
          </ns3:TrackPointExtension>
        </extensions>
      </trkpt>
      <trkpt lat="45.30876575969159603118896484375" lon="-71.0717483796179294586181640625">
        <ele>778.79998779296875</ele>
        <time>2026-08-21T23:11:46.000Z</time>
        <extensions>
          <ns3:TrackPointExtension>
            <ns3:hr>143</ns3:hr>
            <ns3:cad>0</ns3:cad>
          </ns3:TrackPointExtension>
        </extensions>
      </trkpt>
      <trkpt lat="45.30876047909259796142578125" lon="-71.0717453621327877044677734375">
        <ele>779</ele>
        <time>2026-08-21T23:11:47.000Z</time>
        <extensions>
          <ns3:TrackPointExtension>
            <ns3:hr>143</ns3:hr>
            <ns3:cad>0</ns3:cad>
          </ns3:TrackPointExtension>
        </extensions>
      </trkpt>
      <trkpt lat="45.308751426637172698974609375" lon="-71.071756593883037567138671875">
        <ele>779.20001220703125</ele>
        <time>2026-08-21T23:11:48.000Z</time>
        <extensions>
          <ns3:TrackPointExtension>
            <ns3:hr>144</ns3:hr>
            <ns3:cad>79</ns3:cad>
          </ns3:TrackPointExtension>
        </extensions>
      </trkpt>
      <trkpt lat="45.30874572694301605224609375" lon="-71.07176564633846282958984375">
        <ele>779.4000244140625</ele>
        <time>2026-08-21T23:11:49.000Z</time>
        <extensions>
          <ns3:TrackPointExtension>
            <ns3:hr>144</ns3:hr>
            <ns3:cad>79</ns3:cad>
          </ns3:TrackPointExtension>
        </extensions>
      </trkpt>
      <trkpt lat="45.3087408654391765594482421875" lon="-71.07176975347101688385009765625">
        <ele>779.5999755859375</ele>
        <time>2026-08-21T23:11:50.000Z</time>
        <extensions>
          <ns3:TrackPointExtension>
            <ns3:hr>144</ns3:hr>
            <ns3:cad>79</ns3:cad>
          </ns3:TrackPointExtension>
        </extensions>
      </trkpt>
      <trkpt lat="45.3087343275547027587890625" lon="-71.07178031466901302337646484375">
        <ele>779.79998779296875</ele>
        <time>2026-08-21T23:11:51.000Z</time>
        <extensions>
          <ns3:TrackPointExtension>
            <ns3:hr>144</ns3:hr>
            <ns3:cad>41</ns3:cad>
          </ns3:TrackPointExtension>
        </extensions>
      </trkpt>
      <trkpt lat="45.30872804112732410430908203125" lon="-71.07179112732410430908203125">
        <ele>779.79998779296875</ele>
        <time>2026-08-21T23:11:52.000Z</time>
        <extensions>
          <ns3:TrackPointExtension>
            <ns3:hr>144</ns3:hr>
            <ns3:cad>41</ns3:cad>
          </ns3:TrackPointExtension>
        </extensions>
      </trkpt>
      <trkpt lat="45.30872234143316745758056640625" lon="-71.0718000121414661407470703125">
        <ele>780</ele>
        <time>2026-08-21T23:11:53.000Z</time>
        <extensions>
          <ns3:TrackPointExtension>
            <ns3:hr>144</ns3:hr>
            <ns3:cad>41</ns3:cad>
          </ns3:TrackPointExtension>
        </extensions>
      </trkpt>
      <trkpt lat="45.30871680937707424163818359375" lon="-71.07180210761725902557373046875">
        <ele>780</ele>
        <time>2026-08-21T23:11:54.000Z</time>
        <extensions>
          <ns3:TrackPointExtension>
            <ns3:hr>144</ns3:hr>
            <ns3:cad>41</ns3:cad>
          </ns3:TrackPointExtension>
        </extensions>
      </trkpt>
      <trkpt lat="45.30871211551129817962646484375" lon="-71.07180780731141567230224609375">
        <ele>780.20001220703125</ele>
        <time>2026-08-21T23:11:55.000Z</time>
        <extensions>
          <ns3:TrackPointExtension>
            <ns3:hr>144</ns3:hr>
            <ns3:cad>0</ns3:cad>
          </ns3:TrackPointExtension>
        </extensions>
      </trkpt>
      <trkpt lat="45.30870155431330204010009765625" lon="-71.0718167759478092193603515625">
        <ele>780.20001220703125</ele>
        <time>2026-08-21T23:11:56.000Z</time>
        <extensions>
          <ns3:TrackPointExtension>
            <ns3:hr>144</ns3:hr>
            <ns3:cad>0</ns3:cad>
          </ns3:TrackPointExtension>
        </extensions>
      </trkpt>
      <trkpt lat="45.3086966089904308319091796875" lon="-71.071820966899394989013671875">
        <ele>780.4000244140625</ele>
        <time>2026-08-21T23:11:57.000Z</time>
        <extensions>
          <ns3:TrackPointExtension>
            <ns3:hr>144</ns3:hr>
            <ns3:cad>75</ns3:cad>
          </ns3:TrackPointExtension>
        </extensions>
      </trkpt>
      <trkpt lat="45.30869065783917903900146484375" lon="-71.0718315280973911285400390625">
        <ele>780.5999755859375</ele>
        <time>2026-08-21T23:11:58.000Z</time>
        <extensions>
          <ns3:TrackPointExtension>
            <ns3:hr>144</ns3:hr>
            <ns3:cad>75</ns3:cad>
          </ns3:TrackPointExtension>
        </extensions>
      </trkpt>
      <trkpt lat="45.30868428759276866912841796875" lon="-71.0718392394483089447021484375">
        <ele>780.79998779296875</ele>
        <time>2026-08-21T23:11:59.000Z</time>
        <extensions>
          <ns3:TrackPointExtension>
            <ns3:hr>145</ns3:hr>
            <ns3:cad>75</ns3:cad>
          </ns3:TrackPointExtension>
        </extensions>
      </trkpt>
      <trkpt lat="45.308676995337009429931640625" lon="-71.07184418477118015289306640625">
        <ele>780.79998779296875</ele>
        <time>2026-08-21T23:12:00.000Z</time>
        <extensions>
          <ns3:TrackPointExtension>
            <ns3:hr>144</ns3:hr>
            <ns3:cad>75</ns3:cad>
          </ns3:TrackPointExtension>
        </extensions>
      </trkpt>
      <trkpt lat="45.30867330729961395263671875" lon="-71.07185256667435169219970703125">
        <ele>781</ele>
        <time>2026-08-21T23:12:01.000Z</time>
        <extensions>
          <ns3:TrackPointExtension>
            <ns3:hr>144</ns3:hr>
            <ns3:cad>75</ns3:cad>
          </ns3:TrackPointExtension>
        </extensions>
      </trkpt>
      <trkpt lat="45.30867422930896282196044921875" lon="-71.0718576796352863311767578125">
        <ele>781.20001220703125</ele>
        <time>2026-08-21T23:12:02.000Z</time>
        <extensions>
          <ns3:TrackPointExtension>
            <ns3:hr>144</ns3:hr>
            <ns3:cad>44</ns3:cad>
          </ns3:TrackPointExtension>
        </extensions>
      </trkpt>
      <trkpt lat="45.30866500921547412872314453125" lon="-71.07187419198453426361083984375">
        <ele>781.4000244140625</ele>
        <time>2026-08-21T23:12:03.000Z</time>
        <extensions>
          <ns3:TrackPointExtension>
            <ns3:hr>144</ns3:hr>
            <ns3:cad>44</ns3:cad>
          </ns3:TrackPointExtension>
        </extensions>
      </trkpt>
      <trkpt lat="45.30865880660712718963623046875" lon="-71.07187964022159576416015625">
        <ele>781.5999755859375</ele>
        <time>2026-08-21T23:12:04.000Z</time>
        <extensions>
          <ns3:TrackPointExtension>
            <ns3:hr>143</ns3:hr>
            <ns3:cad>44</ns3:cad>
          </ns3:TrackPointExtension>
        </extensions>
      </trkpt>
      <trkpt lat="45.3086540289223194122314453125" lon="-71.07188626192510128021240234375">
        <ele>781.79998779296875</ele>
        <time>2026-08-21T23:12:05.000Z</time>
        <extensions>
          <ns3:TrackPointExtension>
            <ns3:hr>143</ns3:hr>
            <ns3:cad>47</ns3:cad>
          </ns3:TrackPointExtension>
        </extensions>
      </trkpt>
      <trkpt lat="45.3086466528475284576416015625" lon="-71.07189531438052654266357421875">
        <ele>782</ele>
        <time>2026-08-21T23:12:06.000Z</time>
        <extensions>
          <ns3:TrackPointExtension>
            <ns3:hr>143</ns3:hr>
            <ns3:cad>47</ns3:cad>
          </ns3:TrackPointExtension>
        </extensions>
      </trkpt>
      <trkpt lat="45.30864522792398929595947265625" lon="-71.07189841568470001220703125">
        <ele>782.20001220703125</ele>
        <time>2026-08-21T23:12:07.000Z</time>
        <extensions>
          <ns3:TrackPointExtension>
            <ns3:hr>143</ns3:hr>
            <ns3:cad>0</ns3:cad>
          </ns3:TrackPointExtension>
        </extensions>
      </trkpt>
      <trkpt lat="45.30864036642014980316162109375" lon="-71.07190369628369808197021484375">
        <ele>782.4000244140625</ele>
        <time>2026-08-21T23:12:08.000Z</time>
        <extensions>
          <ns3:TrackPointExtension>
            <ns3:hr>143</ns3:hr>
            <ns3:cad>0</ns3:cad>
          </ns3:TrackPointExtension>
        </extensions>
      </trkpt>
      <trkpt lat="45.30863441526889801025390625" lon="-71.0719066299498081207275390625">
        <ele>782.5999755859375</ele>
        <time>2026-08-21T23:12:09.000Z</time>
        <extensions>
          <ns3:TrackPointExtension>
            <ns3:hr>143</ns3:hr>
            <ns3:cad>0</ns3:cad>
          </ns3:TrackPointExtension>
        </extensions>
      </trkpt>
      <trkpt lat="45.30863047577440738677978515625" lon="-71.07191727496683597564697265625">
        <ele>782.79998779296875</ele>
        <time>2026-08-21T23:12:10.000Z</time>
        <extensions>
          <ns3:TrackPointExtension>
            <ns3:hr>143</ns3:hr>
            <ns3:cad>0</ns3:cad>
          </ns3:TrackPointExtension>
        </extensions>
      </trkpt>
      <trkpt lat="45.30862812884151935577392578125" lon="-71.07192297466099262237548828125">
        <ele>783</ele>
        <time>2026-08-21T23:12:11.000Z</time>
        <extensions>
          <ns3:TrackPointExtension>
            <ns3:hr>144</ns3:hr>
            <ns3:cad>0</ns3:cad>
          </ns3:TrackPointExtension>
        </extensions>
      </trkpt>
      <trkpt lat="45.30863047577440738677978515625" lon="-71.0719274170696735382080078125">
        <ele>783.4000244140625</ele>
        <time>2026-08-21T23:12:12.000Z</time>
        <extensions>
          <ns3:TrackPointExtension>
            <ns3:hr>144</ns3:hr>
            <ns3:cad>0</ns3:cad>
          </ns3:TrackPointExtension>
        </extensions>
      </trkpt>
      <trkpt lat="45.30862544663250446319580078125" lon="-71.07193873263895511627197265625">
        <ele>783.5999755859375</ele>
        <time>2026-08-21T23:12:13.000Z</time>
        <extensions>
          <ns3:TrackPointExtension>
            <ns3:hr>144</ns3:hr>
            <ns3:cad>0</ns3:cad>
          </ns3:TrackPointExtension>
        </extensions>
      </trkpt>
      <trkpt lat="45.308623015880584716796875" lon="-71.0719515569508075714111328125">
        <ele>783.79998779296875</ele>
        <time>2026-08-21T23:12:14.000Z</time>
        <extensions>
          <ns3:TrackPointExtension>
            <ns3:hr>145</ns3:hr>
            <ns3:cad>0</ns3:cad>
          </ns3:TrackPointExtension>
        </extensions>
      </trkpt>
      <trkpt lat="45.30861874110996723175048828125" lon="-71.07196454890072345733642578125">
        <ele>784</ele>
        <time>2026-08-21T23:12:15.000Z</time>
        <extensions>
          <ns3:TrackPointExtension>
            <ns3:hr>144</ns3:hr>
            <ns3:cad>0</ns3:cad>
          </ns3:TrackPointExtension>
        </extensions>
      </trkpt>
      <trkpt lat="45.308615304529666900634765625" lon="-71.071969829499721527099609375">
        <ele>784</ele>
        <time>2026-08-21T23:12:16.000Z</time>
        <extensions>
          <ns3:TrackPointExtension>
            <ns3:hr>144</ns3:hr>
            <ns3:cad>0</ns3:cad>
          </ns3:TrackPointExtension>
        </extensions>
      </trkpt>
      <trkpt lat="45.30860960483551025390625" lon="-71.0719793848693370819091796875">
        <ele>784.20001220703125</ele>
        <time>2026-08-21T23:12:17.000Z</time>
        <extensions>
          <ns3:TrackPointExtension>
            <ns3:hr>144</ns3:hr>
            <ns3:cad>0</ns3:cad>
          </ns3:TrackPointExtension>
        </extensions>
      </trkpt>
      <trkpt lat="45.3086027316749095916748046875" lon="-71.0719924606382846832275390625">
        <ele>784.4000244140625</ele>
        <time>2026-08-21T23:12:18.000Z</time>
        <extensions>
          <ns3:TrackPointExtension>
            <ns3:hr>143</ns3:hr>
            <ns3:cad>0</ns3:cad>
          </ns3:TrackPointExtension>
        </extensions>
      </trkpt>
      <trkpt lat="45.3085956908762454986572265625" lon="-71.07199723832309246063232421875">
        <ele>784.5999755859375</ele>
        <time>2026-08-21T23:12:19.000Z</time>
        <extensions>
          <ns3:TrackPointExtension>
            <ns3:hr>142</ns3:hr>
            <ns3:cad>0</ns3:cad>
          </ns3:TrackPointExtension>
        </extensions>
      </trkpt>
      <trkpt lat="45.3085926733911037445068359375" lon="-71.07200436294078826904296875">
        <ele>784.5999755859375</ele>
        <time>2026-08-21T23:12:20.000Z</time>
        <extensions>
          <ns3:TrackPointExtension>
            <ns3:hr>142</ns3:hr>
            <ns3:cad>0</ns3:cad>
          </ns3:TrackPointExtension>
        </extensions>
      </trkpt>
      <trkpt lat="45.3085859678685665130615234375" lon="-71.07201919890940189361572265625">
        <ele>784.79998779296875</ele>
        <time>2026-08-21T23:12:21.000Z</time>
        <extensions>
          <ns3:TrackPointExtension>
            <ns3:hr>142</ns3:hr>
            <ns3:cad>0</ns3:cad>
          </ns3:TrackPointExtension>
        </extensions>
      </trkpt>
      <trkpt lat="45.308587141335010528564453125" lon="-71.0720233060419559478759765625">
        <ele>785</ele>
        <time>2026-08-21T23:12:22.000Z</time>
        <extensions>
          <ns3:TrackPointExtension>
            <ns3:hr>142</ns3:hr>
            <ns3:cad>0</ns3:cad>
          </ns3:TrackPointExtension>
        </extensions>
      </trkpt>
      <trkpt lat="45.308585129678249359130859375" lon="-71.07203545980155467987060546875">
        <ele>785</ele>
        <time>2026-08-21T23:12:23.000Z</time>
        <extensions>
          <ns3:TrackPointExtension>
            <ns3:hr>143</ns3:hr>
            <ns3:cad>0</ns3:cad>
          </ns3:TrackPointExtension>
        </extensions>
      </trkpt>
      <trkpt lat="45.3085792623460292816162109375" lon="-71.0720424167811870574951171875">
        <ele>785.20001220703125</ele>
        <time>2026-08-21T23:12:24.000Z</time>
        <extensions>
          <ns3:TrackPointExtension>
            <ns3:hr>144</ns3:hr>
            <ns3:cad>0</ns3:cad>
          </ns3:TrackPointExtension>
        </extensions>
      </trkpt>
      <trkpt lat="45.30858077108860015869140625" lon="-71.07203965075314044952392578125">
        <ele>785.4000244140625</ele>
        <time>2026-08-21T23:12:25.000Z</time>
        <extensions>
          <ns3:TrackPointExtension>
            <ns3:hr>144</ns3:hr>
            <ns3:cad>0</ns3:cad>
          </ns3:TrackPointExtension>
        </extensions>
      </trkpt>
      <trkpt lat="45.3085760772228240966796875" lon="-71.0720440931618213653564453125">
        <ele>785.5999755859375</ele>
        <time>2026-08-21T23:12:26.000Z</time>
        <extensions>
          <ns3:TrackPointExtension>
            <ns3:hr>144</ns3:hr>
            <ns3:cad>0</ns3:cad>
          </ns3:TrackPointExtension>
        </extensions>
      </trkpt>
      <trkpt lat="45.308573059737682342529296875" lon="-71.0720497928559780120849609375">
        <ele>785.79998779296875</ele>
        <time>2026-08-21T23:12:27.000Z</time>
        <extensions>
          <ns3:TrackPointExtension>
            <ns3:hr>144</ns3:hr>
            <ns3:cad>0</ns3:cad>
          </ns3:TrackPointExtension>
        </extensions>
      </trkpt>
      <trkpt lat="45.3085681982338428497314453125" lon="-71.07205473817884922027587890625">
        <ele>786.20001220703125</ele>
        <time>2026-08-21T23:12:28.000Z</time>
        <extensions>
          <ns3:TrackPointExtension>
            <ns3:hr>144</ns3:hr>
            <ns3:cad>0</ns3:cad>
          </ns3:TrackPointExtension>
        </extensions>
      </trkpt>
      <trkpt lat="45.3085638396441936492919921875" lon="-71.07206404209136962890625">
        <ele>786.20001220703125</ele>
        <time>2026-08-21T23:12:29.000Z</time>
        <extensions>
          <ns3:TrackPointExtension>
            <ns3:hr>144</ns3:hr>
            <ns3:cad>0</ns3:cad>
          </ns3:TrackPointExtension>
        </extensions>
      </trkpt>
      <trkpt lat="45.308557637035846710205078125" lon="-71.07206999324262142181396484375">
        <ele>786.4000244140625</ele>
        <time>2026-08-21T23:12:30.000Z</time>
        <extensions>
          <ns3:TrackPointExtension>
            <ns3:hr>143</ns3:hr>
            <ns3:cad>0</ns3:cad>
          </ns3:TrackPointExtension>
        </extensions>
      </trkpt>
      <trkpt lat="45.30854632146656513214111328125" lon="-71.07208323664963245391845703125">
        <ele>786.5999755859375</ele>
        <time>2026-08-21T23:12:31.000Z</time>
        <extensions>
          <ns3:TrackPointExtension>
            <ns3:hr>143</ns3:hr>
            <ns3:cad>0</ns3:cad>
          </ns3:TrackPointExtension>
        </extensions>
      </trkpt>
      <trkpt lat="45.3085427172482013702392578125" lon="-71.0720890201628208160400390625">
        <ele>786.79998779296875</ele>
        <time>2026-08-21T23:12:32.000Z</time>
        <extensions>
          <ns3:TrackPointExtension>
            <ns3:hr>143</ns3:hr>
            <ns3:cad>0</ns3:cad>
          </ns3:TrackPointExtension>
        </extensions>
      </trkpt>
      <trkpt lat="45.3085390292108058929443359375" lon="-71.07209815643727779388427734375">
        <ele>787</ele>
        <time>2026-08-21T23:12:33.000Z</time>
        <extensions>
          <ns3:TrackPointExtension>
            <ns3:hr>143</ns3:hr>
            <ns3:cad>0</ns3:cad>
          </ns3:TrackPointExtension>
        </extensions>
      </trkpt>
      <trkpt lat="45.3085329942405223846435546875" lon="-71.07211190275847911834716796875">
        <ele>787.4000244140625</ele>
        <time>2026-08-21T23:12:34.000Z</time>
        <extensions>
          <ns3:TrackPointExtension>
            <ns3:hr>142</ns3:hr>
            <ns3:cad>0</ns3:cad>
          </ns3:TrackPointExtension>
        </extensions>
      </trkpt>
      <trkpt lat="45.30852754600346088409423828125" lon="-71.07211969792842864990234375">
        <ele>787.5999755859375</ele>
        <time>2026-08-21T23:12:35.000Z</time>
        <extensions>
          <ns3:TrackPointExtension>
            <ns3:hr>142</ns3:hr>
            <ns3:cad>0</ns3:cad>
          </ns3:TrackPointExtension>
        </extensions>
      </trkpt>
      <trkpt lat="45.30851899646222591400146484375" lon="-71.072124056518077850341796875">
        <ele>787.79998779296875</ele>
        <time>2026-08-21T23:12:36.000Z</time>
        <extensions>
          <ns3:TrackPointExtension>
            <ns3:hr>142</ns3:hr>
            <ns3:cad>0</ns3:cad>
          </ns3:TrackPointExtension>
        </extensions>
      </trkpt>
      <trkpt lat="45.30851195566356182098388671875" lon="-71.07213386334478855133056640625">
        <ele>788</ele>
        <time>2026-08-21T23:12:37.000Z</time>
        <extensions>
          <ns3:TrackPointExtension>
            <ns3:hr>142</ns3:hr>
            <ns3:cad>0</ns3:cad>
          </ns3:TrackPointExtension>
        </extensions>
      </trkpt>
      <trkpt lat="45.3085048310458660125732421875" lon="-71.0721440054476261138916015625">
        <ele>788.20001220703125</ele>
        <time>2026-08-21T23:12:38.000Z</time>
        <extensions>
          <ns3:TrackPointExtension>
            <ns3:hr>142</ns3:hr>
            <ns3:cad>0</ns3:cad>
          </ns3:TrackPointExtension>
        </extensions>
      </trkpt>
      <trkpt lat="45.3085098601877689361572265625" lon="-71.0721443407237529754638671875">
        <ele>788.4000244140625</ele>
        <time>2026-08-21T23:12:39.000Z</time>
        <extensions>
          <ns3:TrackPointExtension>
            <ns3:hr>142</ns3:hr>
            <ns3:cad>0</ns3:cad>
          </ns3:TrackPointExtension>
        </extensions>
      </trkpt>
      <trkpt lat="45.30850960873067378997802734375" lon="-71.0721520520746707916259765625">
        <ele>788.5999755859375</ele>
        <time>2026-08-21T23:12:40.000Z</time>
        <extensions>
          <ns3:TrackPointExtension>
            <ns3:hr>142</ns3:hr>
            <ns3:cad>0</ns3:cad>
          </ns3:TrackPointExtension>
        </extensions>
      </trkpt>
      <trkpt lat="45.30850156210362911224365234375" lon="-71.0721661336719989776611328125">
        <ele>788.79998779296875</ele>
        <time>2026-08-21T23:12:41.000Z</time>
        <extensions>
          <ns3:TrackPointExtension>
            <ns3:hr>142</ns3:hr>
            <ns3:cad>0</ns3:cad>
          </ns3:TrackPointExtension>
        </extensions>
      </trkpt>
      <trkpt lat="45.3084981255233287811279296875" lon="-71.0721738450229167938232421875">
        <ele>789</ele>
        <time>2026-08-21T23:12:42.000Z</time>
        <extensions>
          <ns3:TrackPointExtension>
            <ns3:hr>142</ns3:hr>
            <ns3:cad>0</ns3:cad>
          </ns3:TrackPointExtension>
        </extensions>
      </trkpt>
      <trkpt lat="45.30849485658109188079833984375" lon="-71.07218147255480289459228515625">
        <ele>789.20001220703125</ele>
        <time>2026-08-21T23:12:43.000Z</time>
        <extensions>
          <ns3:TrackPointExtension>
            <ns3:hr>142</ns3:hr>
            <ns3:cad>0</ns3:cad>
          </ns3:TrackPointExtension>
        </extensions>
      </trkpt>
      <trkpt lat="45.30848689377307891845703125" lon="-71.07219387777149677276611328125">
        <ele>789.5999755859375</ele>
        <time>2026-08-21T23:12:44.000Z</time>
        <extensions>
          <ns3:TrackPointExtension>
            <ns3:hr>142</ns3:hr>
            <ns3:cad>0</ns3:cad>
          </ns3:TrackPointExtension>
        </extensions>
      </trkpt>
      <trkpt lat="45.30848194845020771026611328125" lon="-71.0722046904265880584716796875">
        <ele>789.79998779296875</ele>
        <time>2026-08-21T23:12:45.000Z</time>
        <extensions>
          <ns3:TrackPointExtension>
            <ns3:hr>142</ns3:hr>
            <ns3:cad>0</ns3:cad>
          </ns3:TrackPointExtension>
        </extensions>
      </trkpt>
      <trkpt lat="45.3084783442318439483642578125" lon="-71.07221868820488452911376953125">
        <ele>789.79998779296875</ele>
        <time>2026-08-21T23:12:46.000Z</time>
        <extensions>
          <ns3:TrackPointExtension>
            <ns3:hr>143</ns3:hr>
            <ns3:cad>0</ns3:cad>
          </ns3:TrackPointExtension>
        </extensions>
      </trkpt>
      <trkpt lat="45.30848295427858829498291015625" lon="-71.0722194425761699676513671875">
        <ele>790</ele>
        <time>2026-08-21T23:12:47.000Z</time>
        <extensions>
          <ns3:TrackPointExtension>
            <ns3:hr>142</ns3:hr>
            <ns3:cad>0</ns3:cad>
          </ns3:TrackPointExtension>
        </extensions>
      </trkpt>
      <trkpt lat="45.308481194078922271728515625" lon="-71.0722316801548004150390625">
        <ele>790.20001220703125</ele>
        <time>2026-08-21T23:12:48.000Z</time>
        <extensions>
          <ns3:TrackPointExtension>
            <ns3:hr>142</ns3:hr>
            <ns3:cad>46</ns3:cad>
          </ns3:TrackPointExtension>
        </extensions>
      </trkpt>
      <trkpt lat="45.30847608111798763275146484375" lon="-71.07224601320922374725341796875">
        <ele>790.4000244140625</ele>
        <time>2026-08-21T23:12:49.000Z</time>
        <extensions>
          <ns3:TrackPointExtension>
            <ns3:hr>142</ns3:hr>
            <ns3:cad>46</ns3:cad>
          </ns3:TrackPointExtension>
        </extensions>
      </trkpt>
      <trkpt lat="45.30847339890897274017333984375" lon="-71.0722543112933635711669921875">
        <ele>790.5999755859375</ele>
        <time>2026-08-21T23:12:50.000Z</time>
        <extensions>
          <ns3:TrackPointExtension>
            <ns3:hr>142</ns3:hr>
            <ns3:cad>46</ns3:cad>
          </ns3:TrackPointExtension>
        </extensions>
      </trkpt>
      <trkpt lat="45.30846954323351383209228515625" lon="-71.07226319611072540283203125">
        <ele>790.79998779296875</ele>
        <time>2026-08-21T23:12:51.000Z</time>
        <extensions>
          <ns3:TrackPointExtension>
            <ns3:hr>142</ns3:hr>
            <ns3:cad>46</ns3:cad>
          </ns3:TrackPointExtension>
        </extensions>
      </trkpt>
      <trkpt lat="45.30846551991999149322509765625" lon="-71.07227635569870471954345703125">
        <ele>791.20001220703125</ele>
        <time>2026-08-21T23:12:52.000Z</time>
        <extensions>
          <ns3:TrackPointExtension>
            <ns3:hr>142</ns3:hr>
            <ns3:cad>46</ns3:cad>
          </ns3:TrackPointExtension>
        </extensions>
      </trkpt>
      <trkpt lat="45.30846300534904003143310546875" lon="-71.07228825800120830535888671875">
        <ele>791.4000244140625</ele>
        <time>2026-08-21T23:12:53.000Z</time>
        <extensions>
          <ns3:TrackPointExtension>
            <ns3:hr>142</ns3:hr>
            <ns3:cad>46</ns3:cad>
          </ns3:TrackPointExtension>
        </extensions>
      </trkpt>
      <trkpt lat="45.3084609098732471466064453125" lon="-71.072295717895030975341796875">
        <ele>791.5999755859375</ele>
        <time>2026-08-21T23:12:54.000Z</time>
        <extensions>
          <ns3:TrackPointExtension>
            <ns3:hr>143</ns3:hr>
            <ns3:cad>46</ns3:cad>
          </ns3:TrackPointExtension>
        </extensions>
      </trkpt>
      <trkpt lat="45.30845738947391510009765625" lon="-71.07231072150170803070068359375">
        <ele>791.79998779296875</ele>
        <time>2026-08-21T23:12:55.000Z</time>
        <extensions>
          <ns3:TrackPointExtension>
            <ns3:hr>143</ns3:hr>
            <ns3:cad>43</ns3:cad>
          </ns3:TrackPointExtension>
        </extensions>
      </trkpt>
      <trkpt lat="45.30845378525555133819580078125" lon="-71.072317175567150115966796875">
        <ele>791.79998779296875</ele>
        <time>2026-08-21T23:12:56.000Z</time>
        <extensions>
          <ns3:TrackPointExtension>
            <ns3:hr>143</ns3:hr>
            <ns3:cad>43</ns3:cad>
          </ns3:TrackPointExtension>
        </extensions>
      </trkpt>
      <trkpt lat="45.30845068395137786865234375" lon="-71.07232530601322650909423828125">
        <ele>792</ele>
        <time>2026-08-21T23:12:57.000Z</time>
        <extensions>
          <ns3:TrackPointExtension>
            <ns3:hr>143</ns3:hr>
            <ns3:cad>40</ns3:cad>
          </ns3:TrackPointExtension>
        </extensions>
      </trkpt>
      <trkpt lat="45.3084458224475383758544921875" lon="-71.07233804650604724884033203125">
        <ele>792.20001220703125</ele>
        <time>2026-08-21T23:12:58.000Z</time>
        <extensions>
          <ns3:TrackPointExtension>
            <ns3:hr>143</ns3:hr>
            <ns3:cad>40</ns3:cad>
          </ns3:TrackPointExtension>
        </extensions>
      </trkpt>
      <trkpt lat="45.30844372697174549102783203125" lon="-71.07235045172274112701416015625">
        <ele>792.4000244140625</ele>
        <time>2026-08-21T23:12:59.000Z</time>
        <extensions>
          <ns3:TrackPointExtension>
            <ns3:hr>144</ns3:hr>
            <ns3:cad>79</ns3:cad>
          </ns3:TrackPointExtension>
        </extensions>
      </trkpt>
      <trkpt lat="45.3084407933056354522705078125" lon="-71.07236470095813274383544921875">
        <ele>792.5999755859375</ele>
        <time>2026-08-21T23:13:00.000Z</time>
        <extensions>
          <ns3:TrackPointExtension>
            <ns3:hr>144</ns3:hr>
            <ns3:cad>79</ns3:cad>
          </ns3:TrackPointExtension>
        </extensions>
      </trkpt>
      <trkpt lat="45.308438278734683990478515625" lon="-71.0723776929080486297607421875">
        <ele>792.79998779296875</ele>
        <time>2026-08-21T23:13:01.000Z</time>
        <extensions>
          <ns3:TrackPointExtension>
            <ns3:hr>144</ns3:hr>
            <ns3:cad>79</ns3:cad>
          </ns3:TrackPointExtension>
        </extensions>
      </trkpt>
      <trkpt lat="45.308435596525669097900390625" lon="-71.07239269651472568511962890625">
        <ele>793</ele>
        <time>2026-08-21T23:13:02.000Z</time>
        <extensions>
          <ns3:TrackPointExtension>
            <ns3:hr>144</ns3:hr>
            <ns3:cad>79</ns3:cad>
          </ns3:TrackPointExtension>
        </extensions>
      </trkpt>
      <trkpt lat="45.3084339201450347900390625" lon="-71.07240744866430759429931640625">
        <ele>793.20001220703125</ele>
        <time>2026-08-21T23:13:03.000Z</time>
        <extensions>
          <ns3:TrackPointExtension>
            <ns3:hr>144</ns3:hr>
            <ns3:cad>79</ns3:cad>
          </ns3:TrackPointExtension>
        </extensions>
      </trkpt>
      <trkpt lat="45.308426208794116973876953125" lon="-71.07240795157849788665771484375">
        <ele>793.4000244140625</ele>
        <time>2026-08-21T23:13:04.000Z</time>
        <extensions>
          <ns3:TrackPointExtension>
            <ns3:hr>144</ns3:hr>
            <ns3:cad>0</ns3:cad>
          </ns3:TrackPointExtension>
        </extensions>
      </trkpt>
      <trkpt lat="45.30842117965221405029296875" lon="-71.07241784222424030303955078125">
        <ele>793.5999755859375</ele>
        <time>2026-08-21T23:13:05.000Z</time>
        <extensions>
          <ns3:TrackPointExtension>
            <ns3:hr>144</ns3:hr>
            <ns3:cad>0</ns3:cad>
          </ns3:TrackPointExtension>
        </extensions>
      </trkpt>
      <trkpt lat="45.30841791070997714996337890625" lon="-71.07242823578417301177978515625">
        <ele>793.79998779296875</ele>
        <time>2026-08-21T23:13:06.000Z</time>
        <extensions>
          <ns3:TrackPointExtension>
            <ns3:hr>145</ns3:hr>
            <ns3:cad>0</ns3:cad>
          </ns3:TrackPointExtension>
        </extensions>
      </trkpt>
      <trkpt lat="45.30841288156807422637939453125" lon="-71.07243619859218597412109375">
        <ele>794</ele>
        <time>2026-08-21T23:13:07.000Z</time>
        <extensions>
          <ns3:TrackPointExtension>
            <ns3:hr>145</ns3:hr>
            <ns3:cad>43</ns3:cad>
          </ns3:TrackPointExtension>
        </extensions>
      </trkpt>
      <trkpt lat="45.3084076009690761566162109375" lon="-71.07244650833308696746826171875">
        <ele>794.20001220703125</ele>
        <time>2026-08-21T23:13:08.000Z</time>
        <extensions>
          <ns3:TrackPointExtension>
            <ns3:hr>146</ns3:hr>
            <ns3:cad>43</ns3:cad>
          </ns3:TrackPointExtension>
        </extensions>
      </trkpt>
      <trkpt lat="45.308400727808475494384765625" lon="-71.07245539315044879913330078125">
        <ele>794.4000244140625</ele>
        <time>2026-08-21T23:13:09.000Z</time>
        <extensions>
          <ns3:TrackPointExtension>
            <ns3:hr>146</ns3:hr>
            <ns3:cad>43</ns3:cad>
          </ns3:TrackPointExtension>
        </extensions>
      </trkpt>
      <trkpt lat="45.30839779414236545562744140625" lon="-71.07246595434844493865966796875">
        <ele>794.4000244140625</ele>
        <time>2026-08-21T23:13:10.000Z</time>
        <extensions>
          <ns3:TrackPointExtension>
            <ns3:hr>146</ns3:hr>
            <ns3:cad>43</ns3:cad>
          </ns3:TrackPointExtension>
        </extensions>
      </trkpt>
      <trkpt lat="45.30839092098176479339599609375" lon="-71.072469055652618408203125">
        <ele>794.5999755859375</ele>
        <time>2026-08-21T23:13:11.000Z</time>
        <extensions>
          <ns3:TrackPointExtension>
            <ns3:hr>146</ns3:hr>
            <ns3:cad>43</ns3:cad>
          </ns3:TrackPointExtension>
        </extensions>
      </trkpt>
      <trkpt lat="45.3083837963640689849853515625" lon="-71.07248137705028057098388671875">
        <ele>794.79998779296875</ele>
        <time>2026-08-21T23:13:12.000Z</time>
        <extensions>
          <ns3:TrackPointExtension>
            <ns3:hr>146</ns3:hr>
            <ns3:cad>43</ns3:cad>
          </ns3:TrackPointExtension>
        </extensions>
      </trkpt>
      <trkpt lat="45.3083827905356884002685546875" lon="-71.07249394990503787994384765625">
        <ele>795</ele>
        <time>2026-08-21T23:13:13.000Z</time>
        <extensions>
          <ns3:TrackPointExtension>
            <ns3:hr>146</ns3:hr>
            <ns3:cad>43</ns3:cad>
          </ns3:TrackPointExtension>
        </extensions>
      </trkpt>
      <trkpt lat="45.30837935395538806915283203125" lon="-71.07250593602657318115234375">
        <ele>795.20001220703125</ele>
        <time>2026-08-21T23:13:14.000Z</time>
        <extensions>
          <ns3:TrackPointExtension>
            <ns3:hr>146</ns3:hr>
            <ns3:cad>44</ns3:cad>
          </ns3:TrackPointExtension>
        </extensions>
      </trkpt>
      <trkpt lat="45.30837566591799259185791015625" lon="-71.07251289300620555877685546875">
        <ele>795.4000244140625</ele>
        <time>2026-08-21T23:13:15.000Z</time>
        <extensions>
          <ns3:TrackPointExtension>
            <ns3:hr>145</ns3:hr>
            <ns3:cad>44</ns3:cad>
          </ns3:TrackPointExtension>
        </extensions>
      </trkpt>
      <trkpt lat="45.30837030149996280670166015625" lon="-71.0725228674709796905517578125">
        <ele>795.4000244140625</ele>
        <time>2026-08-21T23:13:16.000Z</time>
        <extensions>
          <ns3:TrackPointExtension>
            <ns3:hr>145</ns3:hr>
            <ns3:cad>0</ns3:cad>
          </ns3:TrackPointExtension>
        </extensions>
      </trkpt>
      <trkpt lat="45.30836619436740875244140625" lon="-71.0725322552025318145751953125">
        <ele>795.5999755859375</ele>
        <time>2026-08-21T23:13:17.000Z</time>
        <extensions>
          <ns3:TrackPointExtension>
            <ns3:hr>145</ns3:hr>
            <ns3:cad>0</ns3:cad>
          </ns3:TrackPointExtension>
        </extensions>
      </trkpt>
      <trkpt lat="45.3083633445203304290771484375" lon="-71.072538457810878753662109375">
        <ele>795.79998779296875</ele>
        <time>2026-08-21T23:13:18.000Z</time>
        <extensions>
          <ns3:TrackPointExtension>
            <ns3:hr>146</ns3:hr>
            <ns3:cad>0</ns3:cad>
          </ns3:TrackPointExtension>
        </extensions>
      </trkpt>
      <trkpt lat="45.30835638754069805145263671875" lon="-71.07255421578884124755859375">
        <ele>796</ele>
        <time>2026-08-21T23:13:19.000Z</time>
        <extensions>
          <ns3:TrackPointExtension>
            <ns3:hr>146</ns3:hr>
            <ns3:cad>0</ns3:cad>
          </ns3:TrackPointExtension>
        </extensions>
      </trkpt>
      <trkpt lat="45.308350436389446258544921875" lon="-71.072565950453281402587890625">
        <ele>796.20001220703125</ele>
        <time>2026-08-21T23:13:20.000Z</time>
        <extensions>
          <ns3:TrackPointExtension>
            <ns3:hr>146</ns3:hr>
            <ns3:cad>0</ns3:cad>
          </ns3:TrackPointExtension>
        </extensions>
      </trkpt>
      <trkpt lat="45.3083469159901142120361328125" lon="-71.0725721530616283416748046875">
        <ele>796.4000244140625</ele>
        <time>2026-08-21T23:13:21.000Z</time>
        <extensions>
          <ns3:TrackPointExtension>
            <ns3:hr>146</ns3:hr>
            <ns3:cad>0</ns3:cad>
          </ns3:TrackPointExtension>
        </extensions>
      </trkpt>
      <trkpt lat="45.3083425574004650115966796875" lon="-71.07258145697414875030517578125">
        <ele>796.5999755859375</ele>
        <time>2026-08-21T23:13:22.000Z</time>
        <extensions>
          <ns3:TrackPointExtension>
            <ns3:hr>146</ns3:hr>
            <ns3:cad>0</ns3:cad>
          </ns3:TrackPointExtension>
        </extensions>
      </trkpt>
      <trkpt lat="45.30833811499178409576416015625" lon="-71.07259587384760379791259765625">
        <ele>796.79998779296875</ele>
        <time>2026-08-21T23:13:23.000Z</time>
        <extensions>
          <ns3:TrackPointExtension>
            <ns3:hr>146</ns3:hr>
            <ns3:cad>0</ns3:cad>
          </ns3:TrackPointExtension>
        </extensions>
      </trkpt>
      <trkpt lat="45.3083328343927860260009765625" lon="-71.07261188328266143798828125">
        <ele>796.79998779296875</ele>
        <time>2026-08-21T23:13:24.000Z</time>
        <extensions>
          <ns3:TrackPointExtension>
            <ns3:hr>146</ns3:hr>
            <ns3:cad>0</ns3:cad>
          </ns3:TrackPointExtension>
        </extensions>
      </trkpt>
      <trkpt lat="45.30833040364086627960205078125" lon="-71.07261800207197666168212890625">
        <ele>797</ele>
        <time>2026-08-21T23:13:25.000Z</time>
        <extensions>
          <ns3:TrackPointExtension>
            <ns3:hr>145</ns3:hr>
            <ns3:cad>0</ns3:cad>
          </ns3:TrackPointExtension>
        </extensions>
      </trkpt>
      <trkpt lat="45.3083266317844390869140625" lon="-71.07262554578483104705810546875">
        <ele>797.20001220703125</ele>
        <time>2026-08-21T23:13:26.000Z</time>
        <extensions>
          <ns3:TrackPointExtension>
            <ns3:hr>145</ns3:hr>
            <ns3:cad>42</ns3:cad>
          </ns3:TrackPointExtension>
        </extensions>
      </trkpt>
      <trkpt lat="45.3083254583179950714111328125" lon="-71.0726328380405902862548828125">
        <ele>797.4000244140625</ele>
        <time>2026-08-21T23:13:27.000Z</time>
        <extensions>
          <ns3:TrackPointExtension>
            <ns3:hr>145</ns3:hr>
            <ns3:cad>42</ns3:cad>
          </ns3:TrackPointExtension>
        </extensions>
      </trkpt>
      <trkpt lat="45.30831950716674327850341796875" lon="-71.07264951802790164947509765625">
        <ele>797.5999755859375</ele>
        <time>2026-08-21T23:13:28.000Z</time>
        <extensions>
          <ns3:TrackPointExtension>
            <ns3:hr>145</ns3:hr>
            <ns3:cad>42</ns3:cad>
          </ns3:TrackPointExtension>
        </extensions>
      </trkpt>
      <trkpt lat="45.30831791460514068603515625" lon="-71.072653122246265411376953125">
        <ele>797.5999755859375</ele>
        <time>2026-08-21T23:13:29.000Z</time>
        <extensions>
          <ns3:TrackPointExtension>
            <ns3:hr>145</ns3:hr>
            <ns3:cad>42</ns3:cad>
          </ns3:TrackPointExtension>
        </extensions>
      </trkpt>
      <trkpt lat="45.30831296928226947784423828125" lon="-71.07266695238649845123291015625">
        <ele>797.79998779296875</ele>
        <time>2026-08-21T23:13:30.000Z</time>
        <extensions>
          <ns3:TrackPointExtension>
            <ns3:hr>145</ns3:hr>
            <ns3:cad>0</ns3:cad>
          </ns3:TrackPointExtension>
        </extensions>
      </trkpt>
      <trkpt lat="45.30830760486423969268798828125" lon="-71.07268069870769977569580078125">
        <ele>798</ele>
        <time>2026-08-21T23:13:31.000Z</time>
        <extensions>
          <ns3:TrackPointExtension>
            <ns3:hr>145</ns3:hr>
            <ns3:cad>0</ns3:cad>
          </ns3:TrackPointExtension>
        </extensions>
      </trkpt>
      <trkpt lat="45.30830307863652706146240234375" lon="-71.07268941588699817657470703125">
        <ele>798.20001220703125</ele>
        <time>2026-08-21T23:13:32.000Z</time>
        <extensions>
          <ns3:TrackPointExtension>
            <ns3:hr>144</ns3:hr>
            <ns3:cad>0</ns3:cad>
          </ns3:TrackPointExtension>
        </extensions>
      </trkpt>
      <trkpt lat="45.3082993067800998687744140625" lon="-71.07270131818950176239013671875">
        <ele>798.20001220703125</ele>
        <time>2026-08-21T23:13:33.000Z</time>
        <extensions>
          <ns3:TrackPointExtension>
            <ns3:hr>144</ns3:hr>
            <ns3:cad>0</ns3:cad>
          </ns3:TrackPointExtension>
        </extensions>
      </trkpt>
      <trkpt lat="45.3082969598472118377685546875" lon="-71.07271137647330760955810546875">
        <ele>798.4000244140625</ele>
        <time>2026-08-21T23:13:34.000Z</time>
        <extensions>
          <ns3:TrackPointExtension>
            <ns3:hr>144</ns3:hr>
            <ns3:cad>0</ns3:cad>
          </ns3:TrackPointExtension>
        </extensions>
      </trkpt>
      <trkpt lat="45.30829067341983318328857421875" lon="-71.0727260448038578033447265625">
        <ele>798.5999755859375</ele>
        <time>2026-08-21T23:13:35.000Z</time>
        <extensions>
          <ns3:TrackPointExtension>
            <ns3:hr>144</ns3:hr>
            <ns3:cad>0</ns3:cad>
          </ns3:TrackPointExtension>
        </extensions>
      </trkpt>
      <trkpt lat="45.30828396789729595184326171875" lon="-71.0727371089160442352294921875">
        <ele>798.79998779296875</ele>
        <time>2026-08-21T23:13:36.000Z</time>
        <extensions>
          <ns3:TrackPointExtension>
            <ns3:hr>145</ns3:hr>
            <ns3:cad>45</ns3:cad>
          </ns3:TrackPointExtension>
        </extensions>
      </trkpt>
      <trkpt lat="45.30827307142317295074462890625" lon="-71.0727493464946746826171875">
        <ele>799</ele>
        <time>2026-08-21T23:13:37.000Z</time>
        <extensions>
          <ns3:TrackPointExtension>
            <ns3:hr>145</ns3:hr>
            <ns3:cad>46</ns3:cad>
          </ns3:TrackPointExtension>
        </extensions>
      </trkpt>
      <trkpt lat="45.308269970118999481201171875" lon="-71.07275814749300479888916015625">
        <ele>799</ele>
        <time>2026-08-21T23:13:38.000Z</time>
        <extensions>
          <ns3:TrackPointExtension>
            <ns3:hr>145</ns3:hr>
            <ns3:cad>46</ns3:cad>
          </ns3:TrackPointExtension>
        </extensions>
      </trkpt>
      <trkpt lat="45.3082661144435405731201171875" lon="-71.07277558185160160064697265625">
        <ele>799.20001220703125</ele>
        <time>2026-08-21T23:13:39.000Z</time>
        <extensions>
          <ns3:TrackPointExtension>
            <ns3:hr>145</ns3:hr>
            <ns3:cad>46</ns3:cad>
          </ns3:TrackPointExtension>
        </extensions>
      </trkpt>
      <trkpt lat="45.30826334841549396514892578125" lon="-71.07278094626963138580322265625">
        <ele>799.4000244140625</ele>
        <time>2026-08-21T23:13:40.000Z</time>
        <extensions>
          <ns3:TrackPointExtension>
            <ns3:hr>145</ns3:hr>
            <ns3:cad>0</ns3:cad>
          </ns3:TrackPointExtension>
        </extensions>
      </trkpt>
      <trkpt lat="45.30825966037809848785400390625" lon="-71.07279963791370391845703125">
        <ele>799.5999755859375</ele>
        <time>2026-08-21T23:13:41.000Z</time>
        <extensions>
          <ns3:TrackPointExtension>
            <ns3:hr>145</ns3:hr>
            <ns3:cad>0</ns3:cad>
          </ns3:TrackPointExtension>
        </extensions>
      </trkpt>
      <trkpt lat="45.3082563914358615875244140625" lon="-71.07281430624425411224365234375">
        <ele>799.5999755859375</ele>
        <time>2026-08-21T23:13:42.000Z</time>
        <extensions>
          <ns3:TrackPointExtension>
            <ns3:hr>145</ns3:hr>
            <ns3:cad>0</ns3:cad>
          </ns3:TrackPointExtension>
        </extensions>
      </trkpt>
      <trkpt lat="45.3082550503313541412353515625" lon="-71.0728252865374088287353515625">
        <ele>799.79998779296875</ele>
        <time>2026-08-21T23:13:43.000Z</time>
        <extensions>
          <ns3:TrackPointExtension>
            <ns3:hr>145</ns3:hr>
            <ns3:cad>0</ns3:cad>
          </ns3:TrackPointExtension>
        </extensions>
      </trkpt>
      <trkpt lat="45.3082520328462123870849609375" lon="-71.0728353448212146759033203125">
        <ele>800</ele>
        <time>2026-08-21T23:13:44.000Z</time>
        <extensions>
          <ns3:TrackPointExtension>
            <ns3:hr>145</ns3:hr>
            <ns3:cad>0</ns3:cad>
          </ns3:TrackPointExtension>
        </extensions>
      </trkpt>
      <trkpt lat="45.30824289657175540924072265625" lon="-71.072843559086322784423828125">
        <ele>800</ele>
        <time>2026-08-21T23:13:45.000Z</time>
        <extensions>
          <ns3:TrackPointExtension>
            <ns3:hr>145</ns3:hr>
            <ns3:cad>48</ns3:cad>
          </ns3:TrackPointExtension>
        </extensions>
      </trkpt>
      <trkpt lat="45.3082327544689178466796875" lon="-71.07285655103623867034912109375">
        <ele>800.4000244140625</ele>
        <time>2026-08-21T23:13:46.000Z</time>
        <extensions>
          <ns3:TrackPointExtension>
            <ns3:hr>144</ns3:hr>
            <ns3:cad>48</ns3:cad>
          </ns3:TrackPointExtension>
        </extensions>
      </trkpt>
      <trkpt lat="45.30822495929896831512451171875" lon="-71.07286870479583740234375">
        <ele>800.5999755859375</ele>
        <time>2026-08-21T23:13:47.000Z</time>
        <extensions>
          <ns3:TrackPointExtension>
            <ns3:hr>144</ns3:hr>
            <ns3:cad>48</ns3:cad>
          </ns3:TrackPointExtension>
        </extensions>
      </trkpt>
      <trkpt lat="45.3082195110619068145751953125" lon="-71.07288186438381671905517578125">
        <ele>800.79998779296875</ele>
        <time>2026-08-21T23:13:48.000Z</time>
        <extensions>
          <ns3:TrackPointExtension>
            <ns3:hr>144</ns3:hr>
            <ns3:cad>48</ns3:cad>
          </ns3:TrackPointExtension>
        </extensions>
      </trkpt>
      <trkpt lat="45.3082148171961307525634765625" lon="-71.07289326377213001251220703125">
        <ele>801</ele>
        <time>2026-08-21T23:13:49.000Z</time>
        <extensions>
          <ns3:TrackPointExtension>
            <ns3:hr>143</ns3:hr>
            <ns3:cad>49</ns3:cad>
          </ns3:TrackPointExtension>
        </extensions>
      </trkpt>
      <trkpt lat="45.30820618383586406707763671875" lon="-71.07291304506361484527587890625">
        <ele>801.20001220703125</ele>
        <time>2026-08-21T23:13:50.000Z</time>
        <extensions>
          <ns3:TrackPointExtension>
            <ns3:hr>143</ns3:hr>
            <ns3:cad>49</ns3:cad>
          </ns3:TrackPointExtension>
        </extensions>
      </trkpt>
      <trkpt lat="45.30819662846624851226806640625" lon="-71.07292477972805500030517578125">
        <ele>801.20001220703125</ele>
        <time>2026-08-21T23:13:51.000Z</time>
        <extensions>
          <ns3:TrackPointExtension>
            <ns3:hr>142</ns3:hr>
            <ns3:cad>49</ns3:cad>
          </ns3:TrackPointExtension>
        </extensions>
      </trkpt>
      <trkpt lat="45.30818791128695011138916015625" lon="-71.0729344189167022705078125">
        <ele>801.4000244140625</ele>
        <time>2026-08-21T23:13:52.000Z</time>
        <extensions>
          <ns3:TrackPointExtension>
            <ns3:hr>142</ns3:hr>
            <ns3:cad>46</ns3:cad>
          </ns3:TrackPointExtension>
        </extensions>
      </trkpt>
      <trkpt lat="45.30817969702184200286865234375" lon="-71.07294238172471523284912109375">
        <ele>801.4000244140625</ele>
        <time>2026-08-21T23:13:53.000Z</time>
        <extensions>
          <ns3:TrackPointExtension>
            <ns3:hr>142</ns3:hr>
            <ns3:cad>46</ns3:cad>
          </ns3:TrackPointExtension>
        </extensions>
      </trkpt>
      <trkpt lat="45.30817567370831966400146484375" lon="-71.07295411638915538787841796875">
        <ele>801.5999755859375</ele>
        <time>2026-08-21T23:13:54.000Z</time>
        <extensions>
          <ns3:TrackPointExtension>
            <ns3:hr>142</ns3:hr>
            <ns3:cad>48</ns3:cad>
          </ns3:TrackPointExtension>
        </extensions>
      </trkpt>
      <trkpt lat="45.30817198567092418670654296875" lon="-71.07296995818614959716796875">
        <ele>801.79998779296875</ele>
        <time>2026-08-21T23:13:55.000Z</time>
        <extensions>
          <ns3:TrackPointExtension>
            <ns3:hr>142</ns3:hr>
            <ns3:cad>49</ns3:cad>
          </ns3:TrackPointExtension>
        </extensions>
      </trkpt>
      <trkpt lat="45.3081698901951313018798828125" lon="-71.0729862190783023834228515625">
        <ele>802</ele>
        <time>2026-08-21T23:13:56.000Z</time>
        <extensions>
          <ns3:TrackPointExtension>
            <ns3:hr>142</ns3:hr>
            <ns3:cad>49</ns3:cad>
          </ns3:TrackPointExtension>
        </extensions>
      </trkpt>
      <trkpt lat="45.30816502869129180908203125" lon="-71.07299652881920337677001953125">
        <ele>802.20001220703125</ele>
        <time>2026-08-21T23:13:57.000Z</time>
        <extensions>
          <ns3:TrackPointExtension>
            <ns3:hr>142</ns3:hr>
            <ns3:cad>48</ns3:cad>
          </ns3:TrackPointExtension>
        </extensions>
      </trkpt>
      <trkpt lat="45.30816175974905490875244140625" lon="-71.07301128096878528594970703125">
        <ele>802.4000244140625</ele>
        <time>2026-08-21T23:13:58.000Z</time>
        <extensions>
          <ns3:TrackPointExtension>
            <ns3:hr>142</ns3:hr>
            <ns3:cad>48</ns3:cad>
          </ns3:TrackPointExtension>
        </extensions>
      </trkpt>
      <trkpt lat="45.308160670101642608642578125" lon="-71.0730314813554286956787109375">
        <ele>802.4000244140625</ele>
        <time>2026-08-21T23:13:59.000Z</time>
        <extensions>
          <ns3:TrackPointExtension>
            <ns3:hr>142</ns3:hr>
            <ns3:cad>47</ns3:cad>
          </ns3:TrackPointExtension>
        </extensions>
      </trkpt>
      <trkpt lat="45.30815924517810344696044921875" lon="-71.07304765842854976654052734375">
        <ele>802.5999755859375</ele>
        <time>2026-08-21T23:14:00.000Z</time>
        <extensions>
          <ns3:TrackPointExtension>
            <ns3:hr>142</ns3:hr>
            <ns3:cad>47</ns3:cad>
          </ns3:TrackPointExtension>
        </extensions>
      </trkpt>
      <trkpt lat="45.3081571497023105621337890625" lon="-71.07305872254073619842529296875">
        <ele>802.79998779296875</ele>
        <time>2026-08-21T23:14:01.000Z</time>
        <extensions>
          <ns3:TrackPointExtension>
            <ns3:hr>142</ns3:hr>
            <ns3:cad>47</ns3:cad>
          </ns3:TrackPointExtension>
        </extensions>
      </trkpt>
      <trkpt lat="45.3081588260829448699951171875" lon="-71.0730737261474132537841796875">
        <ele>803</ele>
        <time>2026-08-21T23:14:02.000Z</time>
        <extensions>
          <ns3:TrackPointExtension>
            <ns3:hr>142</ns3:hr>
            <ns3:cad>47</ns3:cad>
          </ns3:TrackPointExtension>
        </extensions>
      </trkpt>
      <trkpt lat="45.30815505422651767730712890625" lon="-71.07309258542954921722412109375">
        <ele>803</ele>
        <time>2026-08-21T23:14:03.000Z</time>
        <extensions>
          <ns3:TrackPointExtension>
            <ns3:hr>142</ns3:hr>
            <ns3:cad>47</ns3:cad>
          </ns3:TrackPointExtension>
        </extensions>
      </trkpt>
      <trkpt lat="45.30815253965556621551513671875" lon="-71.073101051151752471923828125">
        <ele>803.20001220703125</ele>
        <time>2026-08-21T23:14:04.000Z</time>
        <extensions>
          <ns3:TrackPointExtension>
            <ns3:hr>142</ns3:hr>
            <ns3:cad>45</ns3:cad>
          </ns3:TrackPointExtension>
        </extensions>
      </trkpt>
      <trkpt lat="45.30814801342785358428955078125" lon="-71.07311203144490718841552734375">
        <ele>803.4000244140625</ele>
        <time>2026-08-21T23:14:05.000Z</time>
        <extensions>
          <ns3:TrackPointExtension>
            <ns3:hr>141</ns3:hr>
            <ns3:cad>45</ns3:cad>
          </ns3:TrackPointExtension>
        </extensions>
      </trkpt>
      <trkpt lat="45.30814600177109241485595703125" lon="-71.07312410138547420501708984375">
        <ele>803.5999755859375</ele>
        <time>2026-08-21T23:14:06.000Z</time>
        <extensions>
          <ns3:TrackPointExtension>
            <ns3:hr>140</ns3:hr>
            <ns3:cad>0</ns3:cad>
          </ns3:TrackPointExtension>
        </extensions>
      </trkpt>
      <trkpt lat="45.30814088881015777587890625" lon="-71.07313415966928005218505859375">
        <ele>803.79998779296875</ele>
        <time>2026-08-21T23:14:07.000Z</time>
        <extensions>
          <ns3:TrackPointExtension>
            <ns3:hr>140</ns3:hr>
            <ns3:cad>0</ns3:cad>
          </ns3:TrackPointExtension>
        </extensions>
      </trkpt>
      <trkpt lat="45.30813443474471569061279296875" lon="-71.0731463134288787841796875">
        <ele>804</ele>
        <time>2026-08-21T23:14:08.000Z</time>
        <extensions>
          <ns3:TrackPointExtension>
            <ns3:hr>139</ns3:hr>
            <ns3:cad>0</ns3:cad>
          </ns3:TrackPointExtension>
        </extensions>
      </trkpt>
      <trkpt lat="45.30813057906925678253173828125" lon="-71.07315645553171634674072265625">
        <ele>804.20001220703125</ele>
        <time>2026-08-21T23:14:09.000Z</time>
        <extensions>
          <ns3:TrackPointExtension>
            <ns3:hr>139</ns3:hr>
            <ns3:cad>0</ns3:cad>
          </ns3:TrackPointExtension>
        </extensions>
      </trkpt>
      <trkpt lat="45.3081249631941318511962890625" lon="-71.0731635801494121551513671875">
        <ele>804.20001220703125</ele>
        <time>2026-08-21T23:14:10.000Z</time>
        <extensions>
          <ns3:TrackPointExtension>
            <ns3:hr>139</ns3:hr>
            <ns3:cad>0</ns3:cad>
          </ns3:TrackPointExtension>
        </extensions>
      </trkpt>
      <trkpt lat="45.308120436966419219970703125" lon="-71.07318009249866008758544921875">
        <ele>804.4000244140625</ele>
        <time>2026-08-21T23:14:11.000Z</time>
        <extensions>
          <ns3:TrackPointExtension>
            <ns3:hr>139</ns3:hr>
            <ns3:cad>0</ns3:cad>
          </ns3:TrackPointExtension>
        </extensions>
      </trkpt>
      <trkpt lat="45.3081189282238483428955078125" lon="-71.07318897731602191925048828125">
        <ele>804.5999755859375</ele>
        <time>2026-08-21T23:14:12.000Z</time>
        <extensions>
          <ns3:TrackPointExtension>
            <ns3:hr>139</ns3:hr>
            <ns3:cad>0</ns3:cad>
          </ns3:TrackPointExtension>
        </extensions>
      </trkpt>
      <trkpt lat="45.30811616219580173492431640625" lon="-71.073200963437557220458984375">
        <ele>804.79998779296875</ele>
        <time>2026-08-21T23:14:13.000Z</time>
        <extensions>
          <ns3:TrackPointExtension>
            <ns3:hr>139</ns3:hr>
            <ns3:cad>0</ns3:cad>
          </ns3:TrackPointExtension>
        </extensions>
      </trkpt>
      <trkpt lat="45.30811314471065998077392578125" lon="-71.07321244664490222930908203125">
        <ele>804.79998779296875</ele>
        <time>2026-08-21T23:14:14.000Z</time>
        <extensions>
          <ns3:TrackPointExtension>
            <ns3:hr>139</ns3:hr>
            <ns3:cad>0</ns3:cad>
          </ns3:TrackPointExtension>
        </extensions>
      </trkpt>
      <trkpt lat="45.3081102110445499420166015625" lon="-71.073226444423198699951171875">
        <ele>805</ele>
        <time>2026-08-21T23:14:15.000Z</time>
        <extensions>
          <ns3:TrackPointExtension>
            <ns3:hr>139</ns3:hr>
            <ns3:cad>0</ns3:cad>
          </ns3:TrackPointExtension>
        </extensions>
      </trkpt>
      <trkpt lat="45.308105014264583587646484375" lon="-71.073246560990810394287109375">
        <ele>805.20001220703125</ele>
        <time>2026-08-21T23:14:16.000Z</time>
        <extensions>
          <ns3:TrackPointExtension>
            <ns3:hr>139</ns3:hr>
            <ns3:cad>42</ns3:cad>
          </ns3:TrackPointExtension>
        </extensions>
      </trkpt>
      <trkpt lat="45.3080994822084903717041015625" lon="-71.07325502671301364898681640625">
        <ele>805.4000244140625</ele>
        <time>2026-08-21T23:14:17.000Z</time>
        <extensions>
          <ns3:TrackPointExtension>
            <ns3:hr>140</ns3:hr>
            <ns3:cad>42</ns3:cad>
          </ns3:TrackPointExtension>
        </extensions>
      </trkpt>
      <trkpt lat="45.3080951236188411712646484375" lon="-71.0732665099203586578369140625">
        <ele>805.5999755859375</ele>
        <time>2026-08-21T23:14:18.000Z</time>
        <extensions>
          <ns3:TrackPointExtension>
            <ns3:hr>140</ns3:hr>
            <ns3:cad>42</ns3:cad>
          </ns3:TrackPointExtension>
        </extensions>
      </trkpt>
      <trkpt lat="45.308092944324016571044921875" lon="-71.07328251935541629791259765625">
        <ele>805.79998779296875</ele>
        <time>2026-08-21T23:14:19.000Z</time>
        <extensions>
          <ns3:TrackPointExtension>
            <ns3:hr>140</ns3:hr>
            <ns3:cad>42</ns3:cad>
          </ns3:TrackPointExtension>
        </extensions>
      </trkpt>
      <trkpt lat="45.30808716081082820892333984375" lon="-71.0733013786375522613525390625">
        <ele>805.79998779296875</ele>
        <time>2026-08-21T23:14:20.000Z</time>
        <extensions>
          <ns3:TrackPointExtension>
            <ns3:hr>139</ns3:hr>
            <ns3:cad>0</ns3:cad>
          </ns3:TrackPointExtension>
        </extensions>
      </trkpt>
      <trkpt lat="45.30808079056441783905029296875" lon="-71.073306240141391754150390625">
        <ele>806</ele>
        <time>2026-08-21T23:14:21.000Z</time>
        <extensions>
          <ns3:TrackPointExtension>
            <ns3:hr>139</ns3:hr>
            <ns3:cad>0</ns3:cad>
          </ns3:TrackPointExtension>
        </extensions>
      </trkpt>
      <trkpt lat="45.30807844363152980804443359375" lon="-71.0733204893767833709716796875">
        <ele>806.20001220703125</ele>
        <time>2026-08-21T23:14:22.000Z</time>
        <extensions>
          <ns3:TrackPointExtension>
            <ns3:hr>138</ns3:hr>
            <ns3:cad>0</ns3:cad>
          </ns3:TrackPointExtension>
        </extensions>
      </trkpt>
      <trkpt lat="45.30807592906057834625244140625" lon="-71.07333314605057239532470703125">
        <ele>806.20001220703125</ele>
        <time>2026-08-21T23:14:23.000Z</time>
        <extensions>
          <ns3:TrackPointExtension>
            <ns3:hr>138</ns3:hr>
            <ns3:cad>0</ns3:cad>
          </ns3:TrackPointExtension>
        </extensions>
      </trkpt>
      <trkpt lat="45.30807358212769031524658203125" lon="-71.07335141859948635101318359375">
        <ele>806.4000244140625</ele>
        <time>2026-08-21T23:14:24.000Z</time>
        <extensions>
          <ns3:TrackPointExtension>
            <ns3:hr>138</ns3:hr>
            <ns3:cad>0</ns3:cad>
          </ns3:TrackPointExtension>
        </extensions>
      </trkpt>
      <trkpt lat="45.30806922353804111480712890625" lon="-71.07335778884589672088623046875">
        <ele>806.5999755859375</ele>
        <time>2026-08-21T23:14:25.000Z</time>
        <extensions>
          <ns3:TrackPointExtension>
            <ns3:hr>138</ns3:hr>
            <ns3:cad>0</ns3:cad>
          </ns3:TrackPointExtension>
        </extensions>
      </trkpt>
      <trkpt lat="45.30806201510131359100341796875" lon="-71.07337187044322490692138671875">
        <ele>806.79998779296875</ele>
        <time>2026-08-21T23:14:26.000Z</time>
        <extensions>
          <ns3:TrackPointExtension>
            <ns3:hr>138</ns3:hr>
            <ns3:cad>0</ns3:cad>
          </ns3:TrackPointExtension>
        </extensions>
      </trkpt>
      <trkpt lat="45.30805908143520355224609375" lon="-71.07338343746960163116455078125">
        <ele>807</ele>
        <time>2026-08-21T23:14:27.000Z</time>
        <extensions>
          <ns3:TrackPointExtension>
            <ns3:hr>138</ns3:hr>
            <ns3:cad>0</ns3:cad>
          </ns3:TrackPointExtension>
        </extensions>
      </trkpt>
      <trkpt lat="45.30805514194071292877197265625" lon="-71.073391400277614593505859375">
        <ele>807.4000244140625</ele>
        <time>2026-08-21T23:14:28.000Z</time>
        <extensions>
          <ns3:TrackPointExtension>
            <ns3:hr>138</ns3:hr>
            <ns3:cad>0</ns3:cad>
          </ns3:TrackPointExtension>
        </extensions>
      </trkpt>
      <trkpt lat="45.308048687875270843505859375" lon="-71.07340849936008453369140625">
        <ele>807.5999755859375</ele>
        <time>2026-08-21T23:14:29.000Z</time>
        <extensions>
          <ns3:TrackPointExtension>
            <ns3:hr>138</ns3:hr>
            <ns3:cad>0</ns3:cad>
          </ns3:TrackPointExtension>
        </extensions>
      </trkpt>
      <trkpt lat="45.30804592184722423553466796875" lon="-71.07341520488262176513671875">
        <ele>807.79998779296875</ele>
        <time>2026-08-21T23:14:30.000Z</time>
        <extensions>
          <ns3:TrackPointExtension>
            <ns3:hr>137</ns3:hr>
            <ns3:cad>49</ns3:cad>
          </ns3:TrackPointExtension>
        </extensions>
      </trkpt>
      <trkpt lat="45.30803904868662357330322265625" lon="-71.07342685572803020477294921875">
        <ele>808</ele>
        <time>2026-08-21T23:14:31.000Z</time>
        <extensions>
          <ns3:TrackPointExtension>
            <ns3:hr>137</ns3:hr>
            <ns3:cad>49</ns3:cad>
          </ns3:TrackPointExtension>
        </extensions>
      </trkpt>
      <trkpt lat="45.30803116969764232635498046875" lon="-71.0734324716031551361083984375">
        <ele>808.20001220703125</ele>
        <time>2026-08-21T23:14:32.000Z</time>
        <extensions>
          <ns3:TrackPointExtension>
            <ns3:hr>137</ns3:hr>
            <ns3:cad>49</ns3:cad>
          </ns3:TrackPointExtension>
        </extensions>
      </trkpt>
      <trkpt lat="45.30802664346992969512939453125" lon="-71.07344563119113445281982421875">
        <ele>808.4000244140625</ele>
        <time>2026-08-21T23:14:33.000Z</time>
        <extensions>
          <ns3:TrackPointExtension>
            <ns3:hr>137</ns3:hr>
            <ns3:cad>49</ns3:cad>
          </ns3:TrackPointExtension>
        </extensions>
      </trkpt>
      <trkpt lat="45.30802312307059764862060546875" lon="-71.073464490473270416259765625">
        <ele>808.5999755859375</ele>
        <time>2026-08-21T23:14:34.000Z</time>
        <extensions>
          <ns3:TrackPointExtension>
            <ns3:hr>136</ns3:hr>
            <ns3:cad>49</ns3:cad>
          </ns3:TrackPointExtension>
        </extensions>
      </trkpt>
      <trkpt lat="45.30802161432802677154541015625" lon="-71.0734790749847888946533203125">
        <ele>808.5999755859375</ele>
        <time>2026-08-21T23:14:35.000Z</time>
        <extensions>
          <ns3:TrackPointExtension>
            <ns3:hr>136</ns3:hr>
            <ns3:cad>0</ns3:cad>
          </ns3:TrackPointExtension>
        </extensions>
      </trkpt>
      <trkpt lat="45.3080193512141704559326171875" lon="-71.073491983115673065185546875">
        <ele>808.79998779296875</ele>
        <time>2026-08-21T23:14:36.000Z</time>
        <extensions>
          <ns3:TrackPointExtension>
            <ns3:hr>136</ns3:hr>
            <ns3:cad>0</ns3:cad>
          </ns3:TrackPointExtension>
        </extensions>
      </trkpt>
      <trkpt lat="45.30801641754806041717529296875" lon="-71.07350614853203296661376953125">
        <ele>809</ele>
        <time>2026-08-21T23:14:37.000Z</time>
        <extensions>
          <ns3:TrackPointExtension>
            <ns3:hr>136</ns3:hr>
            <ns3:cad>44</ns3:cad>
          </ns3:TrackPointExtension>
        </extensions>
      </trkpt>
      <trkpt lat="45.30801189132034778594970703125" lon="-71.073520146310329437255859375">
        <ele>809</ele>
        <time>2026-08-21T23:14:38.000Z</time>
        <extensions>
          <ns3:TrackPointExtension>
            <ns3:hr>136</ns3:hr>
            <ns3:cad>44</ns3:cad>
          </ns3:TrackPointExtension>
        </extensions>
      </trkpt>
      <trkpt lat="45.30800451524555683135986328125" lon="-71.0735303722321987152099609375">
        <ele>809.20001220703125</ele>
        <time>2026-08-21T23:14:39.000Z</time>
        <extensions>
          <ns3:TrackPointExtension>
            <ns3:hr>136</ns3:hr>
            <ns3:cad>45</ns3:cad>
          </ns3:TrackPointExtension>
        </extensions>
      </trkpt>
      <trkpt lat="45.30799873173236846923828125" lon="-71.073542274534702301025390625">
        <ele>809.4000244140625</ele>
        <time>2026-08-21T23:14:40.000Z</time>
        <extensions>
          <ns3:TrackPointExtension>
            <ns3:hr>136</ns3:hr>
            <ns3:cad>47</ns3:cad>
          </ns3:TrackPointExtension>
        </extensions>
      </trkpt>
      <trkpt lat="45.3079901821911334991455078125" lon="-71.0735565237700939178466796875">
        <ele>809.5999755859375</ele>
        <time>2026-08-21T23:14:41.000Z</time>
        <extensions>
          <ns3:TrackPointExtension>
            <ns3:hr>135</ns3:hr>
            <ns3:cad>47</ns3:cad>
          </ns3:TrackPointExtension>
        </extensions>
      </trkpt>
      <trkpt lat="45.307984314858913421630859375" lon="-71.07356951572000980377197265625">
        <ele>809.79998779296875</ele>
        <time>2026-08-21T23:14:42.000Z</time>
        <extensions>
          <ns3:TrackPointExtension>
            <ns3:hr>136</ns3:hr>
            <ns3:cad>48</ns3:cad>
          </ns3:TrackPointExtension>
        </extensions>
      </trkpt>
      <trkpt lat="45.30797668732702732086181640625" lon="-71.0735820047557353973388671875">
        <ele>809.79998779296875</ele>
        <time>2026-08-21T23:14:43.000Z</time>
        <extensions>
          <ns3:TrackPointExtension>
            <ns3:hr>136</ns3:hr>
            <ns3:cad>48</ns3:cad>
          </ns3:TrackPointExtension>
        </extensions>
      </trkpt>
      <trkpt lat="45.3079683892428874969482421875" lon="-71.07359566725790500640869140625">
        <ele>810</ele>
        <time>2026-08-21T23:14:44.000Z</time>
        <extensions>
          <ns3:TrackPointExtension>
            <ns3:hr>136</ns3:hr>
            <ns3:cad>49</ns3:cad>
          </ns3:TrackPointExtension>
        </extensions>
      </trkpt>
      <trkpt lat="45.30796411447227001190185546875" lon="-71.07361092232167720794677734375">
        <ele>810.20001220703125</ele>
        <time>2026-08-21T23:14:45.000Z</time>
        <extensions>
          <ns3:TrackPointExtension>
            <ns3:hr>136</ns3:hr>
            <ns3:cad>50</ns3:cad>
          </ns3:TrackPointExtension>
        </extensions>
      </trkpt>
      <trkpt lat="45.30796143226325511932373046875" lon="-71.073625423014163970947265625">
        <ele>810.20001220703125</ele>
        <time>2026-08-21T23:14:46.000Z</time>
        <extensions>
          <ns3:TrackPointExtension>
            <ns3:hr>136</ns3:hr>
            <ns3:cad>50</ns3:cad>
          </ns3:TrackPointExtension>
        </extensions>
      </trkpt>
      <trkpt lat="45.30795590020716190338134765625" lon="-71.07364009134471416473388671875">
        <ele>810.4000244140625</ele>
        <time>2026-08-21T23:14:47.000Z</time>
        <extensions>
          <ns3:TrackPointExtension>
            <ns3:hr>136</ns3:hr>
            <ns3:cad>49</ns3:cad>
          </ns3:TrackPointExtension>
        </extensions>
      </trkpt>
      <trkpt lat="45.307949446141719818115234375" lon="-71.07365266419947147369384765625">
        <ele>810.4000244140625</ele>
        <time>2026-08-21T23:14:48.000Z</time>
        <extensions>
          <ns3:TrackPointExtension>
            <ns3:hr>136</ns3:hr>
            <ns3:cad>49</ns3:cad>
          </ns3:TrackPointExtension>
        </extensions>
      </trkpt>
      <trkpt lat="45.30794332735240459442138671875" lon="-71.07366842217743396759033203125">
        <ele>810.5999755859375</ele>
        <time>2026-08-21T23:14:49.000Z</time>
        <extensions>
          <ns3:TrackPointExtension>
            <ns3:hr>136</ns3:hr>
            <ns3:cad>49</ns3:cad>
          </ns3:TrackPointExtension>
        </extensions>
      </trkpt>
      <trkpt lat="45.30793611891567707061767578125" lon="-71.07368619181215763092041015625">
        <ele>810.5999755859375</ele>
        <time>2026-08-21T23:14:50.000Z</time>
        <extensions>
          <ns3:TrackPointExtension>
            <ns3:hr>136</ns3:hr>
            <ns3:cad>49</ns3:cad>
          </ns3:TrackPointExtension>
        </extensions>
      </trkpt>
      <trkpt lat="45.3079288266599178314208984375" lon="-71.07369742356240749359130859375">
        <ele>810.79998779296875</ele>
        <time>2026-08-21T23:14:51.000Z</time>
        <extensions>
          <ns3:TrackPointExtension>
            <ns3:hr>137</ns3:hr>
            <ns3:cad>50</ns3:cad>
          </ns3:TrackPointExtension>
        </extensions>
      </trkpt>
      <trkpt lat="45.30792270787060260772705078125" lon="-71.07371334917843341827392578125">
        <ele>811</ele>
        <time>2026-08-21T23:14:52.000Z</time>
        <extensions>
          <ns3:TrackPointExtension>
            <ns3:hr>137</ns3:hr>
            <ns3:cad>50</ns3:cad>
          </ns3:TrackPointExtension>
        </extensions>
      </trkpt>
      <trkpt lat="45.3079180978238582611083984375" lon="-71.07373061589896678924560546875">
        <ele>811.20001220703125</ele>
        <time>2026-08-21T23:14:53.000Z</time>
        <extensions>
          <ns3:TrackPointExtension>
            <ns3:hr>138</ns3:hr>
            <ns3:cad>50</ns3:cad>
          </ns3:TrackPointExtension>
        </extensions>
      </trkpt>
      <trkpt lat="45.30791147612035274505615234375" lon="-71.073745451867580413818359375">
        <ele>811.20001220703125</ele>
        <time>2026-08-21T23:14:54.000Z</time>
        <extensions>
          <ns3:TrackPointExtension>
            <ns3:hr>138</ns3:hr>
            <ns3:cad>51</ns3:cad>
          </ns3:TrackPointExtension>
        </extensions>
      </trkpt>
      <trkpt lat="45.30790477059781551361083984375" lon="-71.07376146130263805389404296875">
        <ele>811.4000244140625</ele>
        <time>2026-08-21T23:14:55.000Z</time>
        <extensions>
          <ns3:TrackPointExtension>
            <ns3:hr>138</ns3:hr>
            <ns3:cad>51</ns3:cad>
          </ns3:TrackPointExtension>
        </extensions>
      </trkpt>
      <trkpt lat="45.307900495827198028564453125" lon="-71.07377193868160247802734375">
        <ele>811.4000244140625</ele>
        <time>2026-08-21T23:14:56.000Z</time>
        <extensions>
          <ns3:TrackPointExtension>
            <ns3:hr>138</ns3:hr>
            <ns3:cad>50</ns3:cad>
          </ns3:TrackPointExtension>
        </extensions>
      </trkpt>
      <trkpt lat="45.307891108095645904541015625" lon="-71.07378937304019927978515625">
        <ele>811.4000244140625</ele>
        <time>2026-08-21T23:14:57.000Z</time>
        <extensions>
          <ns3:TrackPointExtension>
            <ns3:hr>138</ns3:hr>
            <ns3:cad>50</ns3:cad>
          </ns3:TrackPointExtension>
        </extensions>
      </trkpt>
      <trkpt lat="45.30788633041083812713623046875" lon="-71.0738079808652400970458984375">
        <ele>811.20001220703125</ele>
        <time>2026-08-21T23:14:58.000Z</time>
        <extensions>
          <ns3:TrackPointExtension>
            <ns3:hr>138</ns3:hr>
            <ns3:cad>50</ns3:cad>
          </ns3:TrackPointExtension>
        </extensions>
      </trkpt>
      <trkpt lat="45.30788096599280834197998046875" lon="-71.07383086346089839935302734375">
        <ele>811.20001220703125</ele>
        <time>2026-08-21T23:14:59.000Z</time>
        <extensions>
          <ns3:TrackPointExtension>
            <ns3:hr>138</ns3:hr>
            <ns3:cad>50</ns3:cad>
          </ns3:TrackPointExtension>
        </extensions>
      </trkpt>
      <trkpt lat="45.3078768588602542877197265625" lon="-71.0738539136946201324462890625">
        <ele>811.20001220703125</ele>
        <time>2026-08-21T23:15:00.000Z</time>
        <extensions>
          <ns3:TrackPointExtension>
            <ns3:hr>138</ns3:hr>
            <ns3:cad>50</ns3:cad>
          </ns3:TrackPointExtension>
        </extensions>
      </trkpt>
      <trkpt lat="45.3078701533377170562744140625" lon="-71.07387545518577098846435546875">
        <ele>811.20001220703125</ele>
        <time>2026-08-21T23:15:01.000Z</time>
        <extensions>
          <ns3:TrackPointExtension>
            <ns3:hr>138</ns3:hr>
            <ns3:cad>50</ns3:cad>
          </ns3:TrackPointExtension>
        </extensions>
      </trkpt>
      <trkpt lat="45.3078631125390529632568359375" lon="-71.07388995587825775146484375">
        <ele>811</ele>
        <time>2026-08-21T23:15:02.000Z</time>
        <extensions>
          <ns3:TrackPointExtension>
            <ns3:hr>138</ns3:hr>
            <ns3:cad>50</ns3:cad>
          </ns3:TrackPointExtension>
        </extensions>
      </trkpt>
      <trkpt lat="45.3078590892255306243896484375" lon="-71.07389875687658786773681640625">
        <ele>811</ele>
        <time>2026-08-21T23:15:03.000Z</time>
        <extensions>
          <ns3:TrackPointExtension>
            <ns3:hr>138</ns3:hr>
            <ns3:cad>64</ns3:cad>
          </ns3:TrackPointExtension>
        </extensions>
      </trkpt>
      <trkpt lat="45.3078493662178516387939453125" lon="-71.0739149339497089385986328125">
        <ele>811</ele>
        <time>2026-08-21T23:15:04.000Z</time>
        <extensions>
          <ns3:TrackPointExtension>
            <ns3:hr>138</ns3:hr>
            <ns3:cad>64</ns3:cad>
          </ns3:TrackPointExtension>
        </extensions>
      </trkpt>
      <trkpt lat="45.3078372962772846221923828125" lon="-71.07393278740346431732177734375">
        <ele>810.79998779296875</ele>
        <time>2026-08-21T23:15:05.000Z</time>
        <extensions>
          <ns3:TrackPointExtension>
            <ns3:hr>138</ns3:hr>
            <ns3:cad>64</ns3:cad>
          </ns3:TrackPointExtension>
        </extensions>
      </trkpt>
      <trkpt lat="45.3078312613070011138916015625" lon="-71.073953323066234588623046875">
        <ele>810.5999755859375</ele>
        <time>2026-08-21T23:15:06.000Z</time>
        <extensions>
          <ns3:TrackPointExtension>
            <ns3:hr>138</ns3:hr>
            <ns3:cad>64</ns3:cad>
          </ns3:TrackPointExtension>
        </extensions>
      </trkpt>
      <trkpt lat="45.30782732181251049041748046875" lon="-71.07397721149027347564697265625">
        <ele>810.20001220703125</ele>
        <time>2026-08-21T23:15:07.000Z</time>
        <extensions>
          <ns3:TrackPointExtension>
            <ns3:hr>138</ns3:hr>
            <ns3:cad>64</ns3:cad>
          </ns3:TrackPointExtension>
        </extensions>
      </trkpt>
      <trkpt lat="45.3078195266425609588623046875" lon="-71.07399364002048969268798828125">
        <ele>810</ele>
        <time>2026-08-21T23:15:08.000Z</time>
        <extensions>
          <ns3:TrackPointExtension>
            <ns3:hr>138</ns3:hr>
            <ns3:cad>64</ns3:cad>
          </ns3:TrackPointExtension>
        </extensions>
      </trkpt>
      <trkpt lat="45.3078077919781208038330078125" lon="-71.07401979155838489532470703125">
        <ele>809.79998779296875</ele>
        <time>2026-08-21T23:15:09.000Z</time>
        <extensions>
          <ns3:TrackPointExtension>
            <ns3:hr>138</ns3:hr>
            <ns3:cad>64</ns3:cad>
          </ns3:TrackPointExtension>
        </extensions>
      </trkpt>
      <trkpt lat="45.30780234374105930328369140625" lon="-71.07404007576406002044677734375">
        <ele>809.79998779296875</ele>
        <time>2026-08-21T23:15:10.000Z</time>
        <extensions>
          <ns3:TrackPointExtension>
            <ns3:hr>138</ns3:hr>
            <ns3:cad>64</ns3:cad>
          </ns3:TrackPointExtension>
        </extensions>
      </trkpt>
      <trkpt lat="45.3077953867614269256591796875" lon="-71.0740627907216548919677734375">
        <ele>809.79998779296875</ele>
        <time>2026-08-21T23:15:11.000Z</time>
        <extensions>
          <ns3:TrackPointExtension>
            <ns3:hr>137</ns3:hr>
            <ns3:cad>64</ns3:cad>
          </ns3:TrackPointExtension>
        </extensions>
      </trkpt>
      <trkpt lat="45.30778608284890651702880859375" lon="-71.07408106327056884765625">
        <ele>809.79998779296875</ele>
        <time>2026-08-21T23:15:12.000Z</time>
        <extensions>
          <ns3:TrackPointExtension>
            <ns3:hr>137</ns3:hr>
            <ns3:cad>64</ns3:cad>
          </ns3:TrackPointExtension>
        </extensions>
      </trkpt>
      <trkpt lat="45.30777635984122753143310546875" lon="-71.0741013474762439727783203125">
        <ele>809.79998779296875</ele>
        <time>2026-08-21T23:15:13.000Z</time>
        <extensions>
          <ns3:TrackPointExtension>
            <ns3:hr>137</ns3:hr>
            <ns3:cad>64</ns3:cad>
          </ns3:TrackPointExtension>
        </extensions>
      </trkpt>
      <trkpt lat="45.3077662177383899688720703125" lon="-71.0741221345961093902587890625">
        <ele>809.79998779296875</ele>
        <time>2026-08-21T23:15:14.000Z</time>
        <extensions>
          <ns3:TrackPointExtension>
            <ns3:hr>136</ns3:hr>
            <ns3:cad>64</ns3:cad>
          </ns3:TrackPointExtension>
        </extensions>
      </trkpt>
      <trkpt lat="45.30776043422520160675048828125" lon="-71.07414468191564083099365234375">
        <ele>810</ele>
        <time>2026-08-21T23:15:15.000Z</time>
        <extensions>
          <ns3:TrackPointExtension>
            <ns3:hr>135</ns3:hr>
            <ns3:cad>71</ns3:cad>
          </ns3:TrackPointExtension>
        </extensions>
      </trkpt>
      <trkpt lat="45.30775473453104496002197265625" lon="-71.074167899787425994873046875">
        <ele>810</ele>
        <time>2026-08-21T23:15:16.000Z</time>
        <extensions>
          <ns3:TrackPointExtension>
            <ns3:hr>135</ns3:hr>
            <ns3:cad>71</ns3:cad>
          </ns3:TrackPointExtension>
        </extensions>
      </trkpt>
      <trkpt lat="45.30775054357945919036865234375" lon="-71.07419346459209918975830078125">
        <ele>810</ele>
        <time>2026-08-21T23:15:17.000Z</time>
        <extensions>
          <ns3:TrackPointExtension>
            <ns3:hr>135</ns3:hr>
            <ns3:cad>71</ns3:cad>
          </ns3:TrackPointExtension>
        </extensions>
      </trkpt>
      <trkpt lat="45.3077481128275394439697265625" lon="-71.0742096416652202606201171875">
        <ele>810</ele>
        <time>2026-08-21T23:15:18.000Z</time>
        <extensions>
          <ns3:TrackPointExtension>
            <ns3:hr>134</ns3:hr>
            <ns3:cad>71</ns3:cad>
          </ns3:TrackPointExtension>
        </extensions>
      </trkpt>
      <trkpt lat="45.30774165876209735870361328125" lon="-71.07422799803316593170166015625">
        <ele>810.20001220703125</ele>
        <time>2026-08-21T23:15:19.000Z</time>
        <extensions>
          <ns3:TrackPointExtension>
            <ns3:hr>134</ns3:hr>
            <ns3:cad>71</ns3:cad>
          </ns3:TrackPointExtension>
        </extensions>
      </trkpt>
      <trkpt lat="45.3077303431928157806396484375" lon="-71.0742458514869213104248046875">
        <ele>810.20001220703125</ele>
        <time>2026-08-21T23:15:20.000Z</time>
        <extensions>
          <ns3:TrackPointExtension>
            <ns3:hr>134</ns3:hr>
            <ns3:cad>71</ns3:cad>
          </ns3:TrackPointExtension>
        </extensions>
      </trkpt>
      <trkpt lat="45.30772187747061252593994140625" lon="-71.07426152564585208892822265625">
        <ele>810.4000244140625</ele>
        <time>2026-08-21T23:15:21.000Z</time>
        <extensions>
          <ns3:TrackPointExtension>
            <ns3:hr>133</ns3:hr>
            <ns3:cad>71</ns3:cad>
          </ns3:TrackPointExtension>
        </extensions>
      </trkpt>
      <trkpt lat="45.3077125735580921173095703125" lon="-71.07427493669092655181884765625">
        <ele>810.4000244140625</ele>
        <time>2026-08-21T23:15:22.000Z</time>
        <extensions>
          <ns3:TrackPointExtension>
            <ns3:hr>133</ns3:hr>
            <ns3:cad>0</ns3:cad>
          </ns3:TrackPointExtension>
        </extensions>
      </trkpt>
      <trkpt lat="45.30770444311201572418212890625" lon="-71.0742840729653835296630859375">
        <ele>810.5999755859375</ele>
        <time>2026-08-21T23:15:23.000Z</time>
        <extensions>
          <ns3:TrackPointExtension>
            <ns3:hr>134</ns3:hr>
            <ns3:cad>55</ns3:cad>
          </ns3:TrackPointExtension>
        </extensions>
      </trkpt>
      <trkpt lat="45.307691954076290130615234375" lon="-71.0742944665253162384033203125">
        <ele>810.5999755859375</ele>
        <time>2026-08-21T23:15:24.000Z</time>
        <extensions>
          <ns3:TrackPointExtension>
            <ns3:hr>133</ns3:hr>
            <ns3:cad>55</ns3:cad>
          </ns3:TrackPointExtension>
        </extensions>
      </trkpt>
      <trkpt lat="45.30767879448831081390380859375" lon="-71.07430745847523212432861328125">
        <ele>810.5999755859375</ele>
        <time>2026-08-21T23:15:25.000Z</time>
        <extensions>
          <ns3:TrackPointExtension>
            <ns3:hr>133</ns3:hr>
            <ns3:cad>56</ns3:cad>
          </ns3:TrackPointExtension>
        </extensions>
      </trkpt>
      <trkpt lat="45.30766286887228488922119140625" lon="-71.07432003132998943328857421875">
        <ele>810.79998779296875</ele>
        <time>2026-08-21T23:15:26.000Z</time>
        <extensions>
          <ns3:TrackPointExtension>
            <ns3:hr>132</ns3:hr>
            <ns3:cad>56</ns3:cad>
          </ns3:TrackPointExtension>
        </extensions>
      </trkpt>
      <trkpt lat="45.30765029601752758026123046875" lon="-71.07433520257472991943359375">
        <ele>810.79998779296875</ele>
        <time>2026-08-21T23:15:27.000Z</time>
        <extensions>
          <ns3:TrackPointExtension>
            <ns3:hr>132</ns3:hr>
            <ns3:cad>56</ns3:cad>
          </ns3:TrackPointExtension>
        </extensions>
      </trkpt>
      <trkpt lat="45.30764057300984859466552734375" lon="-71.07434366829693317413330078125">
        <ele>811</ele>
        <time>2026-08-21T23:15:28.000Z</time>
        <extensions>
          <ns3:TrackPointExtension>
            <ns3:hr>132</ns3:hr>
            <ns3:cad>56</ns3:cad>
          </ns3:TrackPointExtension>
        </extensions>
      </trkpt>
      <trkpt lat="45.3076230548322200775146484375" lon="-71.0743642039597034454345703125">
        <ele>811.20001220703125</ele>
        <time>2026-08-21T23:15:29.000Z</time>
        <extensions>
          <ns3:TrackPointExtension>
            <ns3:hr>131</ns3:hr>
            <ns3:cad>56</ns3:cad>
          </ns3:TrackPointExtension>
        </extensions>
      </trkpt>
      <trkpt lat="45.3076076321303844451904296875" lon="-71.074381805956363677978515625">
        <ele>811.20001220703125</ele>
        <time>2026-08-21T23:15:30.000Z</time>
        <extensions>
          <ns3:TrackPointExtension>
            <ns3:hr>130</ns3:hr>
            <ns3:cad>73</ns3:cad>
          </ns3:TrackPointExtension>
        </extensions>
      </trkpt>
      <trkpt lat="45.30759430490434169769287109375" lon="-71.074396558105945587158203125">
        <ele>811.4000244140625</ele>
        <time>2026-08-21T23:15:31.000Z</time>
        <extensions>
          <ns3:TrackPointExtension>
            <ns3:hr>129</ns3:hr>
            <ns3:cad>73</ns3:cad>
          </ns3:TrackPointExtension>
        </extensions>
      </trkpt>
      <trkpt lat="45.30758022330701351165771484375" lon="-71.07441307045519351959228515625">
        <ele>811.4000244140625</ele>
        <time>2026-08-21T23:15:32.000Z</time>
        <extensions>
          <ns3:TrackPointExtension>
            <ns3:hr>129</ns3:hr>
            <ns3:cad>72</ns3:cad>
          </ns3:TrackPointExtension>
        </extensions>
      </trkpt>
      <trkpt lat="45.30756463296711444854736328125" lon="-71.0744232125580310821533203125">
        <ele>811.4000244140625</ele>
        <time>2026-08-21T23:15:33.000Z</time>
        <extensions>
          <ns3:TrackPointExtension>
            <ns3:hr>130</ns3:hr>
            <ns3:cad>72</ns3:cad>
          </ns3:TrackPointExtension>
        </extensions>
      </trkpt>
      <trkpt lat="45.30754946172237396240234375" lon="-71.07443855144083499908447265625">
        <ele>811.4000244140625</ele>
        <time>2026-08-21T23:15:34.000Z</time>
        <extensions>
          <ns3:TrackPointExtension>
            <ns3:hr>130</ns3:hr>
            <ns3:cad>72</ns3:cad>
          </ns3:TrackPointExtension>
        </extensions>
      </trkpt>
      <trkpt lat="45.3075415827333927154541015625" lon="-71.0744466818869113922119140625">
        <ele>811.5999755859375</ele>
        <time>2026-08-21T23:15:35.000Z</time>
        <extensions>
          <ns3:TrackPointExtension>
            <ns3:hr>130</ns3:hr>
            <ns3:cad>0</ns3:cad>
          </ns3:TrackPointExtension>
        </extensions>
      </trkpt>
      <trkpt lat="45.30752934515476226806640625" lon="-71.0744604282081127166748046875">
        <ele>811.5999755859375</ele>
        <time>2026-08-21T23:15:36.000Z</time>
        <extensions>
          <ns3:TrackPointExtension>
            <ns3:hr>130</ns3:hr>
            <ns3:cad>0</ns3:cad>
          </ns3:TrackPointExtension>
        </extensions>
      </trkpt>
      <trkpt lat="45.30751719139516353607177734375" lon="-71.07446989975869655609130859375">
        <ele>811.79998779296875</ele>
        <time>2026-08-21T23:15:37.000Z</time>
        <extensions>
          <ns3:TrackPointExtension>
            <ns3:hr>130</ns3:hr>
            <ns3:cad>0</ns3:cad>
          </ns3:TrackPointExtension>
        </extensions>
      </trkpt>
      <trkpt lat="45.3075110726058483123779296875" lon="-71.0744771920144557952880859375">
        <ele>812</ele>
        <time>2026-08-21T23:15:38.000Z</time>
        <extensions>
          <ns3:TrackPointExtension>
            <ns3:hr>131</ns3:hr>
            <ns3:cad>0</ns3:cad>
          </ns3:TrackPointExtension>
        </extensions>
      </trkpt>
      <trkpt lat="45.30749942176043987274169921875" lon="-71.07448481954634189605712890625">
        <ele>812.4000244140625</ele>
        <time>2026-08-21T23:15:39.000Z</time>
        <extensions>
          <ns3:TrackPointExtension>
            <ns3:hr>130</ns3:hr>
            <ns3:cad>0</ns3:cad>
          </ns3:TrackPointExtension>
        </extensions>
      </trkpt>
      <trkpt lat="45.307486094534397125244140625" lon="-71.07449336908757686614990234375">
        <ele>812.5999755859375</ele>
        <time>2026-08-21T23:15:40.000Z</time>
        <extensions>
          <ns3:TrackPointExtension>
            <ns3:hr>130</ns3:hr>
            <ns3:cad>0</ns3:cad>
          </ns3:TrackPointExtension>
        </extensions>
      </trkpt>
      <trkpt lat="45.30747645534574985504150390625" lon="-71.07450024224817752838134765625">
        <ele>812.79998779296875</ele>
        <time>2026-08-21T23:15:41.000Z</time>
        <extensions>
          <ns3:TrackPointExtension>
            <ns3:hr>130</ns3:hr>
            <ns3:cad>59</ns3:cad>
          </ns3:TrackPointExtension>
        </extensions>
      </trkpt>
      <trkpt lat="45.30746522359549999237060546875" lon="-71.0745127312839031219482421875">
        <ele>813</ele>
        <time>2026-08-21T23:15:42.000Z</time>
        <extensions>
          <ns3:TrackPointExtension>
            <ns3:hr>131</ns3:hr>
            <ns3:cad>59</ns3:cad>
          </ns3:TrackPointExtension>
        </extensions>
      </trkpt>
      <trkpt lat="45.30745566822588443756103515625" lon="-71.07452656142413616180419921875">
        <ele>813.20001220703125</ele>
        <time>2026-08-21T23:15:43.000Z</time>
        <extensions>
          <ns3:TrackPointExtension>
            <ns3:hr>131</ns3:hr>
            <ns3:cad>59</ns3:cad>
          </ns3:TrackPointExtension>
        </extensions>
      </trkpt>
      <trkpt lat="45.30744980089366436004638671875" lon="-71.07453544624149799346923828125">
        <ele>813.4000244140625</ele>
        <time>2026-08-21T23:15:44.000Z</time>
        <extensions>
          <ns3:TrackPointExtension>
            <ns3:hr>131</ns3:hr>
            <ns3:cad>51</ns3:cad>
          </ns3:TrackPointExtension>
        </extensions>
      </trkpt>
      <trkpt lat="45.30743890441954135894775390625" lon="-71.07454667799174785614013671875">
        <ele>813.5999755859375</ele>
        <time>2026-08-21T23:15:45.000Z</time>
        <extensions>
          <ns3:TrackPointExtension>
            <ns3:hr>132</ns3:hr>
            <ns3:cad>51</ns3:cad>
          </ns3:TrackPointExtension>
        </extensions>
      </trkpt>
      <trkpt lat="45.30743018724024295806884765625" lon="-71.07455908320844173431396484375">
        <ele>813.79998779296875</ele>
        <time>2026-08-21T23:15:46.000Z</time>
        <extensions>
          <ns3:TrackPointExtension>
            <ns3:hr>132</ns3:hr>
            <ns3:cad>51</ns3:cad>
          </ns3:TrackPointExtension>
        </extensions>
      </trkpt>
      <trkpt lat="45.307421050965785980224609375" lon="-71.0745697282254695892333984375">
        <ele>813.79998779296875</ele>
        <time>2026-08-21T23:15:47.000Z</time>
        <extensions>
          <ns3:TrackPointExtension>
            <ns3:hr>131</ns3:hr>
            <ns3:cad>51</ns3:cad>
          </ns3:TrackPointExtension>
        </extensions>
      </trkpt>
      <trkpt lat="45.3074101544916629791259765625" lon="-71.07458054088056087493896484375">
        <ele>814</ele>
        <time>2026-08-21T23:15:48.000Z</time>
        <extensions>
          <ns3:TrackPointExtension>
            <ns3:hr>131</ns3:hr>
            <ns3:cad>0</ns3:cad>
          </ns3:TrackPointExtension>
        </extensions>
      </trkpt>
      <trkpt lat="45.30740152113139629364013671875" lon="-71.07459059916436672210693359375">
        <ele>814.20001220703125</ele>
        <time>2026-08-21T23:15:49.000Z</time>
        <extensions>
          <ns3:TrackPointExtension>
            <ns3:hr>131</ns3:hr>
            <ns3:cad>0</ns3:cad>
          </ns3:TrackPointExtension>
        </extensions>
      </trkpt>
      <trkpt lat="45.30739230103790760040283203125" lon="-71.07460065744817256927490234375">
        <ele>814.20001220703125</ele>
        <time>2026-08-21T23:15:50.000Z</time>
        <extensions>
          <ns3:TrackPointExtension>
            <ns3:hr>131</ns3:hr>
            <ns3:cad>0</ns3:cad>
          </ns3:TrackPointExtension>
        </extensions>
      </trkpt>
      <trkpt lat="45.30738123692572116851806640625" lon="-71.0746081173419952392578125">
        <ele>814.4000244140625</ele>
        <time>2026-08-21T23:15:51.000Z</time>
        <extensions>
          <ns3:TrackPointExtension>
            <ns3:hr>131</ns3:hr>
            <ns3:cad>54</ns3:cad>
          </ns3:TrackPointExtension>
        </extensions>
      </trkpt>
      <trkpt lat="45.3073669038712978363037109375" lon="-71.07461993582546710968017578125">
        <ele>814.5999755859375</ele>
        <time>2026-08-21T23:15:52.000Z</time>
        <extensions>
          <ns3:TrackPointExtension>
            <ns3:hr>130</ns3:hr>
            <ns3:cad>54</ns3:cad>
          </ns3:TrackPointExtension>
        </extensions>
      </trkpt>
      <trkpt lat="45.3073575161397457122802734375" lon="-71.074624545872211456298828125">
        <ele>814.5999755859375</ele>
        <time>2026-08-21T23:15:53.000Z</time>
        <extensions>
          <ns3:TrackPointExtension>
            <ns3:hr>130</ns3:hr>
            <ns3:cad>54</ns3:cad>
          </ns3:TrackPointExtension>
        </extensions>
      </trkpt>
      <trkpt lat="45.307343937456607818603515625" lon="-71.07463284395635128021240234375">
        <ele>814.5999755859375</ele>
        <time>2026-08-21T23:15:54.000Z</time>
        <extensions>
          <ns3:TrackPointExtension>
            <ns3:hr>131</ns3:hr>
            <ns3:cad>54</ns3:cad>
          </ns3:TrackPointExtension>
        </extensions>
      </trkpt>
      <trkpt lat="45.30733178369700908660888671875" lon="-71.07464474625885486602783203125">
        <ele>814.5999755859375</ele>
        <time>2026-08-21T23:15:55.000Z</time>
        <extensions>
          <ns3:TrackPointExtension>
            <ns3:hr>131</ns3:hr>
            <ns3:cad>54</ns3:cad>
          </ns3:TrackPointExtension>
        </extensions>
      </trkpt>
      <trkpt lat="45.3073208034038543701171875" lon="-71.0746579058468341827392578125">
        <ele>814.5999755859375</ele>
        <time>2026-08-21T23:15:56.000Z</time>
        <extensions>
          <ns3:TrackPointExtension>
            <ns3:hr>131</ns3:hr>
            <ns3:cad>18</ns3:cad>
          </ns3:TrackPointExtension>
        </extensions>
      </trkpt>
      <trkpt lat="45.30730965547263622283935546875" lon="-71.07466972433030605316162109375">
        <ele>814.4000244140625</ele>
        <time>2026-08-21T23:15:57.000Z</time>
        <extensions>
          <ns3:TrackPointExtension>
            <ns3:hr>132</ns3:hr>
            <ns3:cad>18</ns3:cad>
          </ns3:TrackPointExtension>
        </extensions>
      </trkpt>
      <trkpt lat="45.30729775317013263702392578125" lon="-71.074678860604763031005859375">
        <ele>814.4000244140625</ele>
        <time>2026-08-21T23:15:58.000Z</time>
        <extensions>
          <ns3:TrackPointExtension>
            <ns3:hr>132</ns3:hr>
            <ns3:cad>0</ns3:cad>
          </ns3:TrackPointExtension>
        </extensions>
      </trkpt>
      <trkpt lat="45.3072864376008510589599609375" lon="-71.07469218783080577850341796875">
        <ele>814.4000244140625</ele>
        <time>2026-08-21T23:15:59.000Z</time>
        <extensions>
          <ns3:TrackPointExtension>
            <ns3:hr>132</ns3:hr>
            <ns3:cad>0</ns3:cad>
          </ns3:TrackPointExtension>
        </extensions>
      </trkpt>
      <trkpt lat="45.3072763793170452117919921875" lon="-71.074706353247165679931640625">
        <ele>814.4000244140625</ele>
        <time>2026-08-21T23:16:00.000Z</time>
        <extensions>
          <ns3:TrackPointExtension>
            <ns3:hr>133</ns3:hr>
            <ns3:cad>0</ns3:cad>
          </ns3:TrackPointExtension>
        </extensions>
      </trkpt>
      <trkpt lat="45.3072666563093662261962890625" lon="-71.0747102089226245880126953125">
        <ele>814.5999755859375</ele>
        <time>2026-08-21T23:16:01.000Z</time>
        <extensions>
          <ns3:TrackPointExtension>
            <ns3:hr>133</ns3:hr>
            <ns3:cad>0</ns3:cad>
          </ns3:TrackPointExtension>
        </extensions>
      </trkpt>
      <trkpt lat="45.3072529099881649017333984375" lon="-71.07472068630158901214599609375">
        <ele>814.79998779296875</ele>
        <time>2026-08-21T23:16:02.000Z</time>
        <extensions>
          <ns3:TrackPointExtension>
            <ns3:hr>134</ns3:hr>
            <ns3:cad>0</ns3:cad>
          </ns3:TrackPointExtension>
        </extensions>
      </trkpt>
      <trkpt lat="45.30724511481821537017822265625" lon="-71.07472873292863368988037109375">
        <ele>815.20001220703125</ele>
        <time>2026-08-21T23:16:03.000Z</time>
        <extensions>
          <ns3:TrackPointExtension>
            <ns3:hr>134</ns3:hr>
            <ns3:cad>0</ns3:cad>
          </ns3:TrackPointExtension>
        </extensions>
      </trkpt>
      <trkpt lat="45.30723371542990207672119140625" lon="-71.07473912648856639862060546875">
        <ele>815.4000244140625</ele>
        <time>2026-08-21T23:16:04.000Z</time>
        <extensions>
          <ns3:TrackPointExtension>
            <ns3:hr>134</ns3:hr>
            <ns3:cad>0</ns3:cad>
          </ns3:TrackPointExtension>
        </extensions>
      </trkpt>
      <trkpt lat="45.3072190470993518829345703125" lon="-71.07475320808589458465576171875">
        <ele>815.5999755859375</ele>
        <time>2026-08-21T23:16:05.000Z</time>
        <extensions>
          <ns3:TrackPointExtension>
            <ns3:hr>134</ns3:hr>
            <ns3:cad>0</ns3:cad>
          </ns3:TrackPointExtension>
        </extensions>
      </trkpt>
      <trkpt lat="45.30720806680619716644287109375" lon="-71.0747601650655269622802734375">
        <ele>815.5999755859375</ele>
        <time>2026-08-21T23:16:06.000Z</time>
        <extensions>
          <ns3:TrackPointExtension>
            <ns3:hr>134</ns3:hr>
            <ns3:cad>0</ns3:cad>
          </ns3:TrackPointExtension>
        </extensions>
      </trkpt>
      <trkpt lat="45.3071979247033596038818359375" lon="-71.074771396815776824951171875">
        <ele>815.5999755859375</ele>
        <time>2026-08-21T23:16:07.000Z</time>
        <extensions>
          <ns3:TrackPointExtension>
            <ns3:hr>134</ns3:hr>
            <ns3:cad>0</ns3:cad>
          </ns3:TrackPointExtension>
        </extensions>
      </trkpt>
      <trkpt lat="45.30718577094376087188720703125" lon="-71.07478170655667781829833984375">
        <ele>815.5999755859375</ele>
        <time>2026-08-21T23:16:08.000Z</time>
        <extensions>
          <ns3:TrackPointExtension>
            <ns3:hr>134</ns3:hr>
            <ns3:cad>0</ns3:cad>
          </ns3:TrackPointExtension>
        </extensions>
      </trkpt>
      <trkpt lat="45.30717772431671619415283203125" lon="-71.07479042373597621917724609375">
        <ele>815.5999755859375</ele>
        <time>2026-08-21T23:16:09.000Z</time>
        <extensions>
          <ns3:TrackPointExtension>
            <ns3:hr>134</ns3:hr>
            <ns3:cad>0</ns3:cad>
          </ns3:TrackPointExtension>
        </extensions>
      </trkpt>
      <trkpt lat="45.3071674145758152008056640625" lon="-71.07480182312428951263427734375">
        <ele>815.5999755859375</ele>
        <time>2026-08-21T23:16:10.000Z</time>
        <extensions>
          <ns3:TrackPointExtension>
            <ns3:hr>134</ns3:hr>
            <ns3:cad>0</ns3:cad>
          </ns3:TrackPointExtension>
        </extensions>
      </trkpt>
      <trkpt lat="45.30715308152139186859130859375" lon="-71.07480970211327075958251953125">
        <ele>815.5999755859375</ele>
        <time>2026-08-21T23:16:11.000Z</time>
        <extensions>
          <ns3:TrackPointExtension>
            <ns3:hr>135</ns3:hr>
            <ns3:cad>0</ns3:cad>
          </ns3:TrackPointExtension>
        </extensions>
      </trkpt>
      <trkpt lat="45.3071415983140468597412109375" lon="-71.07481959275901317596435546875">
        <ele>815.79998779296875</ele>
        <time>2026-08-21T23:16:12.000Z</time>
        <extensions>
          <ns3:TrackPointExtension>
            <ns3:hr>134</ns3:hr>
            <ns3:cad>0</ns3:cad>
          </ns3:TrackPointExtension>
        </extensions>
      </trkpt>
      <trkpt lat="45.30712433159351348876953125" lon="-71.07483266852796077728271484375">
        <ele>815.79998779296875</ele>
        <time>2026-08-21T23:16:13.000Z</time>
        <extensions>
          <ns3:TrackPointExtension>
            <ns3:hr>134</ns3:hr>
            <ns3:cad>0</ns3:cad>
          </ns3:TrackPointExtension>
        </extensions>
      </trkpt>
      <trkpt lat="45.307109244167804718017578125" lon="-71.07484943233430385589599609375">
        <ele>816</ele>
        <time>2026-08-21T23:16:14.000Z</time>
        <extensions>
          <ns3:TrackPointExtension>
            <ns3:hr>134</ns3:hr>
            <ns3:cad>0</ns3:cad>
          </ns3:TrackPointExtension>
        </extensions>
      </trkpt>
      <trkpt lat="45.30709750950336456298828125" lon="-71.07486686669290065765380859375">
        <ele>816</ele>
        <time>2026-08-21T23:16:15.000Z</time>
        <extensions>
          <ns3:TrackPointExtension>
            <ns3:hr>134</ns3:hr>
            <ns3:cad>0</ns3:cad>
          </ns3:TrackPointExtension>
        </extensions>
      </trkpt>
      <trkpt lat="45.30708409845829010009765625" lon="-71.0748889110982418060302734375">
        <ele>816.20001220703125</ele>
        <time>2026-08-21T23:16:16.000Z</time>
        <extensions>
          <ns3:TrackPointExtension>
            <ns3:hr>134</ns3:hr>
            <ns3:cad>0</ns3:cad>
          </ns3:TrackPointExtension>
        </extensions>
      </trkpt>
      <trkpt lat="45.30707596801221370697021484375" lon="-71.07491129077970981597900390625">
        <ele>816.4000244140625</ele>
        <time>2026-08-21T23:16:17.000Z</time>
        <extensions>
          <ns3:TrackPointExtension>
            <ns3:hr>134</ns3:hr>
            <ns3:cad>0</ns3:cad>
          </ns3:TrackPointExtension>
        </extensions>
      </trkpt>
      <trkpt lat="45.30706205405294895172119140625" lon="-71.07493593357503414154052734375">
        <ele>816.4000244140625</ele>
        <time>2026-08-21T23:16:18.000Z</time>
        <extensions>
          <ns3:TrackPointExtension>
            <ns3:hr>134</ns3:hr>
            <ns3:cad>0</ns3:cad>
          </ns3:TrackPointExtension>
        </extensions>
      </trkpt>
      <trkpt lat="45.30705048702657222747802734375" lon="-71.07495722360908985137939453125">
        <ele>816.4000244140625</ele>
        <time>2026-08-21T23:16:19.000Z</time>
        <extensions>
          <ns3:TrackPointExtension>
            <ns3:hr>134</ns3:hr>
            <ns3:cad>71</ns3:cad>
          </ns3:TrackPointExtension>
        </extensions>
      </trkpt>
      <trkpt lat="45.307047553360462188720703125" lon="-71.0749908350408077239990234375">
        <ele>816.4000244140625</ele>
        <time>2026-08-21T23:16:20.000Z</time>
        <extensions>
          <ns3:TrackPointExtension>
            <ns3:hr>134</ns3:hr>
            <ns3:cad>71</ns3:cad>
          </ns3:TrackPointExtension>
        </extensions>
      </trkpt>
      <trkpt lat="45.30704277567565441131591796875" lon="-71.07502520084381103515625">
        <ele>816.4000244140625</ele>
        <time>2026-08-21T23:16:21.000Z</time>
        <extensions>
          <ns3:TrackPointExtension>
            <ns3:hr>134</ns3:hr>
            <ns3:cad>71</ns3:cad>
          </ns3:TrackPointExtension>
        </extensions>
      </trkpt>
      <trkpt lat="45.3070386685431003570556640625" lon="-71.0750542022287845611572265625">
        <ele>816.4000244140625</ele>
        <time>2026-08-21T23:16:22.000Z</time>
        <extensions>
          <ns3:TrackPointExtension>
            <ns3:hr>134</ns3:hr>
            <ns3:cad>71</ns3:cad>
          </ns3:TrackPointExtension>
        </extensions>
      </trkpt>
      <trkpt lat="45.307035148143768310546875" lon="-71.0750884003937244415283203125">
        <ele>816.4000244140625</ele>
        <time>2026-08-21T23:16:23.000Z</time>
        <extensions>
          <ns3:TrackPointExtension>
            <ns3:hr>134</ns3:hr>
            <ns3:cad>71</ns3:cad>
          </ns3:TrackPointExtension>
        </extensions>
      </trkpt>
      <trkpt lat="45.3070376627147197723388671875" lon="-71.07511731795966625213623046875">
        <ele>816.4000244140625</ele>
        <time>2026-08-21T23:16:24.000Z</time>
        <extensions>
          <ns3:TrackPointExtension>
            <ns3:hr>134</ns3:hr>
            <ns3:cad>71</ns3:cad>
          </ns3:TrackPointExtension>
        </extensions>
      </trkpt>
      <trkpt lat="45.30703892000019550323486328125" lon="-71.075148247182369232177734375">
        <ele>816.4000244140625</ele>
        <time>2026-08-21T23:16:25.000Z</time>
        <extensions>
          <ns3:TrackPointExtension>
            <ns3:hr>134</ns3:hr>
            <ns3:cad>71</ns3:cad>
          </ns3:TrackPointExtension>
        </extensions>
      </trkpt>
      <trkpt lat="45.3070376627147197723388671875" lon="-71.075174398720264434814453125">
        <ele>816.5999755859375</ele>
        <time>2026-08-21T23:16:26.000Z</time>
        <extensions>
          <ns3:TrackPointExtension>
            <ns3:hr>134</ns3:hr>
            <ns3:cad>71</ns3:cad>
          </ns3:TrackPointExtension>
        </extensions>
      </trkpt>
      <trkpt lat="45.3070390038192272186279296875" lon="-71.07519895769655704498291015625">
        <ele>816.5999755859375</ele>
        <time>2026-08-21T23:16:27.000Z</time>
        <extensions>
          <ns3:TrackPointExtension>
            <ns3:hr>133</ns3:hr>
            <ns3:cad>71</ns3:cad>
          </ns3:TrackPointExtension>
        </extensions>
      </trkpt>
      <trkpt lat="45.30703715980052947998046875" lon="-71.075229384005069732666015625">
        <ele>816.5999755859375</ele>
        <time>2026-08-21T23:16:28.000Z</time>
        <extensions>
          <ns3:TrackPointExtension>
            <ns3:hr>132</ns3:hr>
            <ns3:cad>71</ns3:cad>
          </ns3:TrackPointExtension>
        </extensions>
      </trkpt>
      <trkpt lat="45.30703841708600521087646484375" lon="-71.075252182781696319580078125">
        <ele>816.79998779296875</ele>
        <time>2026-08-21T23:16:29.000Z</time>
        <extensions>
          <ns3:TrackPointExtension>
            <ns3:hr>132</ns3:hr>
            <ns3:cad>70</ns3:cad>
          </ns3:TrackPointExtension>
        </extensions>
      </trkpt>
      <trkpt lat="45.30703984200954437255859375" lon="-71.07527389191091060638427734375">
        <ele>816.79998779296875</ele>
        <time>2026-08-21T23:16:30.000Z</time>
        <extensions>
          <ns3:TrackPointExtension>
            <ns3:hr>132</ns3:hr>
            <ns3:cad>70</ns3:cad>
          </ns3:TrackPointExtension>
        </extensions>
      </trkpt>
      <trkpt lat="45.3070420213043689727783203125" lon="-71.07529719360172748565673828125">
        <ele>816.79998779296875</ele>
        <time>2026-08-21T23:16:31.000Z</time>
        <extensions>
          <ns3:TrackPointExtension>
            <ns3:hr>132</ns3:hr>
            <ns3:cad>70</ns3:cad>
          </ns3:TrackPointExtension>
        </extensions>
      </trkpt>
      <trkpt lat="45.30704394914209842681884765625" lon="-71.07531362213194370269775390625">
        <ele>817</ele>
        <time>2026-08-21T23:16:32.000Z</time>
        <extensions>
          <ns3:TrackPointExtension>
            <ns3:hr>132</ns3:hr>
            <ns3:cad>70</ns3:cad>
          </ns3:TrackPointExtension>
        </extensions>
      </trkpt>
      <trkpt lat="45.30704746954143047332763671875" lon="-71.075338013470172882080078125">
        <ele>817.20001220703125</ele>
        <time>2026-08-21T23:16:33.000Z</time>
        <extensions>
          <ns3:TrackPointExtension>
            <ns3:hr>133</ns3:hr>
            <ns3:cad>70</ns3:cad>
          </ns3:TrackPointExtension>
        </extensions>
      </trkpt>
      <trkpt lat="45.3070418536663055419921875" lon="-71.075360812246799468994140625">
        <ele>817.4000244140625</ele>
        <time>2026-08-21T23:16:34.000Z</time>
        <extensions>
          <ns3:TrackPointExtension>
            <ns3:hr>133</ns3:hr>
            <ns3:cad>70</ns3:cad>
          </ns3:TrackPointExtension>
        </extensions>
      </trkpt>
      <trkpt lat="45.30704361386597156524658203125" lon="-71.07539040036499500274658203125">
        <ele>817.4000244140625</ele>
        <time>2026-08-21T23:16:35.000Z</time>
        <extensions>
          <ns3:TrackPointExtension>
            <ns3:hr>133</ns3:hr>
            <ns3:cad>70</ns3:cad>
          </ns3:TrackPointExtension>
        </extensions>
      </trkpt>
      <trkpt lat="45.30704428441822528839111328125" lon="-71.07541303150355815887451171875">
        <ele>817.5999755859375</ele>
        <time>2026-08-21T23:16:36.000Z</time>
        <extensions>
          <ns3:TrackPointExtension>
            <ns3:hr>133</ns3:hr>
            <ns3:cad>0</ns3:cad>
          </ns3:TrackPointExtension>
        </extensions>
      </trkpt>
      <trkpt lat="45.30704478733241558074951171875" lon="-71.07543935067951679229736328125">
        <ele>817.5999755859375</ele>
        <time>2026-08-21T23:16:37.000Z</time>
        <extensions>
          <ns3:TrackPointExtension>
            <ns3:hr>133</ns3:hr>
            <ns3:cad>0</ns3:cad>
          </ns3:TrackPointExtension>
        </extensions>
      </trkpt>
      <trkpt lat="45.3070460446178913116455078125" lon="-71.0754642449319362640380859375">
        <ele>817.79998779296875</ele>
        <time>2026-08-21T23:16:38.000Z</time>
        <extensions>
          <ns3:TrackPointExtension>
            <ns3:hr>134</ns3:hr>
            <ns3:cad>0</ns3:cad>
          </ns3:TrackPointExtension>
        </extensions>
      </trkpt>
      <trkpt lat="45.30704914592206478118896484375" lon="-71.0754823498427867889404296875">
        <ele>818</ele>
        <time>2026-08-21T23:16:39.000Z</time>
        <extensions>
          <ns3:TrackPointExtension>
            <ns3:hr>134</ns3:hr>
            <ns3:cad>0</ns3:cad>
          </ns3:TrackPointExtension>
        </extensions>
      </trkpt>
      <trkpt lat="45.30705350451171398162841796875" lon="-71.0755051486194133758544921875">
        <ele>818.20001220703125</ele>
        <time>2026-08-21T23:16:40.000Z</time>
        <extensions>
          <ns3:TrackPointExtension>
            <ns3:hr>133</ns3:hr>
            <ns3:cad>0</ns3:cad>
          </ns3:TrackPointExtension>
        </extensions>
      </trkpt>
      <trkpt lat="45.3070564381778240203857421875" lon="-71.07552031986415386199951171875">
        <ele>818.20001220703125</ele>
        <time>2026-08-21T23:16:41.000Z</time>
        <extensions>
          <ns3:TrackPointExtension>
            <ns3:hr>133</ns3:hr>
            <ns3:cad>0</ns3:cad>
          </ns3:TrackPointExtension>
        </extensions>
      </trkpt>
      <trkpt lat="45.30706188641488552093505859375" lon="-71.0755334794521331787109375">
        <ele>818.4000244140625</ele>
        <time>2026-08-21T23:16:42.000Z</time>
        <extensions>
          <ns3:TrackPointExtension>
            <ns3:hr>134</ns3:hr>
            <ns3:cad>0</ns3:cad>
          </ns3:TrackPointExtension>
        </extensions>
      </trkpt>
      <trkpt lat="45.30706674791872501373291015625" lon="-71.075550578534603118896484375">
        <ele>818.5999755859375</ele>
        <time>2026-08-21T23:16:43.000Z</time>
        <extensions>
          <ns3:TrackPointExtension>
            <ns3:hr>134</ns3:hr>
            <ns3:cad>0</ns3:cad>
          </ns3:TrackPointExtension>
        </extensions>
      </trkpt>
      <trkpt lat="45.3070686757564544677734375" lon="-71.0755670070648193359375">
        <ele>818.5999755859375</ele>
        <time>2026-08-21T23:16:44.000Z</time>
        <extensions>
          <ns3:TrackPointExtension>
            <ns3:hr>134</ns3:hr>
            <ns3:cad>0</ns3:cad>
          </ns3:TrackPointExtension>
        </extensions>
      </trkpt>
      <trkpt lat="45.30706607736647129058837890625" lon="-71.07557983137667179107666015625">
        <ele>818.5999755859375</ele>
        <time>2026-08-21T23:16:45.000Z</time>
        <extensions>
          <ns3:TrackPointExtension>
            <ns3:hr>134</ns3:hr>
            <ns3:cad>53</ns3:cad>
          </ns3:TrackPointExtension>
        </extensions>
      </trkpt>
      <trkpt lat="45.3070633113384246826171875" lon="-71.0756000317633152008056640625">
        <ele>818.79998779296875</ele>
        <time>2026-08-21T23:16:46.000Z</time>
        <extensions>
          <ns3:TrackPointExtension>
            <ns3:hr>134</ns3:hr>
            <ns3:cad>53</ns3:cad>
          </ns3:TrackPointExtension>
        </extensions>
      </trkpt>
      <trkpt lat="45.30705601908266544342041015625" lon="-71.07561402954161167144775390625">
        <ele>819</ele>
        <time>2026-08-21T23:16:47.000Z</time>
        <extensions>
          <ns3:TrackPointExtension>
            <ns3:hr>135</ns3:hr>
            <ns3:cad>53</ns3:cad>
          </ns3:TrackPointExtension>
        </extensions>
      </trkpt>
      <trkpt lat="45.3070577792823314666748046875" lon="-71.07563205063343048095703125">
        <ele>819</ele>
        <time>2026-08-21T23:16:48.000Z</time>
        <extensions>
          <ns3:TrackPointExtension>
            <ns3:hr>135</ns3:hr>
            <ns3:cad>52</ns3:cad>
          </ns3:TrackPointExtension>
        </extensions>
      </trkpt>
      <trkpt lat="45.3070574440062046051025390625" lon="-71.075639091432094573974609375">
        <ele>819.20001220703125</ele>
        <time>2026-08-21T23:16:49.000Z</time>
        <extensions>
          <ns3:TrackPointExtension>
            <ns3:hr>135</ns3:hr>
            <ns3:cad>52</ns3:cad>
          </ns3:TrackPointExtension>
        </extensions>
      </trkpt>
      <trkpt lat="45.3070581145584583282470703125" lon="-71.07565090991556644439697265625">
        <ele>819.4000244140625</ele>
        <time>2026-08-21T23:16:50.000Z</time>
        <extensions>
          <ns3:TrackPointExtension>
            <ns3:hr>135</ns3:hr>
            <ns3:cad>53</ns3:cad>
          </ns3:TrackPointExtension>
        </extensions>
      </trkpt>
      <trkpt lat="45.3070557676255702972412109375" lon="-71.0756704397499561309814453125">
        <ele>819.4000244140625</ele>
        <time>2026-08-21T23:16:51.000Z</time>
        <extensions>
          <ns3:TrackPointExtension>
            <ns3:hr>135</ns3:hr>
            <ns3:cad>53</ns3:cad>
          </ns3:TrackPointExtension>
        </extensions>
      </trkpt>
      <trkpt lat="45.307052247226238250732421875" lon="-71.07569038867950439453125">
        <ele>819.5999755859375</ele>
        <time>2026-08-21T23:16:52.000Z</time>
        <extensions>
          <ns3:TrackPointExtension>
            <ns3:hr>135</ns3:hr>
            <ns3:cad>53</ns3:cad>
          </ns3:TrackPointExtension>
        </extensions>
      </trkpt>
      <trkpt lat="45.3070514090359210968017578125" lon="-71.0757093317806720733642578125">
        <ele>819.5999755859375</ele>
        <time>2026-08-21T23:16:53.000Z</time>
        <extensions>
          <ns3:TrackPointExtension>
            <ns3:hr>135</ns3:hr>
            <ns3:cad>53</ns3:cad>
          </ns3:TrackPointExtension>
        </extensions>
      </trkpt>
      <trkpt lat="45.307051576673984527587890625" lon="-71.075724922120571136474609375">
        <ele>819.79998779296875</ele>
        <time>2026-08-21T23:16:54.000Z</time>
        <extensions>
          <ns3:TrackPointExtension>
            <ns3:hr>135</ns3:hr>
            <ns3:cad>53</ns3:cad>
          </ns3:TrackPointExtension>
        </extensions>
      </trkpt>
      <trkpt lat="45.30705266632139682769775390625" lon="-71.0757354833185672760009765625">
        <ele>820</ele>
        <time>2026-08-21T23:16:55.000Z</time>
        <extensions>
          <ns3:TrackPointExtension>
            <ns3:hr>135</ns3:hr>
            <ns3:cad>0</ns3:cad>
          </ns3:TrackPointExtension>
        </extensions>
      </trkpt>
      <trkpt lat="45.30705300159752368927001953125" lon="-71.07575115747749805450439453125">
        <ele>820.20001220703125</ele>
        <time>2026-08-21T23:16:56.000Z</time>
        <extensions>
          <ns3:TrackPointExtension>
            <ns3:hr>134</ns3:hr>
            <ns3:cad>0</ns3:cad>
          </ns3:TrackPointExtension>
        </extensions>
      </trkpt>
      <trkpt lat="45.30705459415912628173828125" lon="-71.0757663287222385406494140625">
        <ele>820.4000244140625</ele>
        <time>2026-08-21T23:16:57.000Z</time>
        <extensions>
          <ns3:TrackPointExtension>
            <ns3:hr>134</ns3:hr>
            <ns3:cad>0</ns3:cad>
          </ns3:TrackPointExtension>
        </extensions>
      </trkpt>
      <trkpt lat="45.30705836601555347442626953125" lon="-71.0757690109312534332275390625">
        <ele>820.79998779296875</ele>
        <time>2026-08-21T23:16:58.000Z</time>
        <extensions>
          <ns3:TrackPointExtension>
            <ns3:hr>134</ns3:hr>
            <ns3:cad>0</ns3:cad>
          </ns3:TrackPointExtension>
        </extensions>
      </trkpt>
      <trkpt lat="45.30706054531037807464599609375" lon="-71.075785942375659942626953125">
        <ele>821</ele>
        <time>2026-08-21T23:16:59.000Z</time>
        <extensions>
          <ns3:TrackPointExtension>
            <ns3:hr>134</ns3:hr>
            <ns3:cad>0</ns3:cad>
          </ns3:TrackPointExtension>
        </extensions>
      </trkpt>
      <trkpt lat="45.307062976062297821044921875" lon="-71.07579876668751239776611328125">
        <ele>821.20001220703125</ele>
        <time>2026-08-21T23:17:00.000Z</time>
        <extensions>
          <ns3:TrackPointExtension>
            <ns3:hr>134</ns3:hr>
            <ns3:cad>0</ns3:cad>
          </ns3:TrackPointExtension>
        </extensions>
      </trkpt>
      <trkpt lat="45.30706138350069522857666015625" lon="-71.07581301592290401458740234375">
        <ele>821.4000244140625</ele>
        <time>2026-08-21T23:17:01.000Z</time>
        <extensions>
          <ns3:TrackPointExtension>
            <ns3:hr>133</ns3:hr>
            <ns3:cad>0</ns3:cad>
          </ns3:TrackPointExtension>
        </extensions>
      </trkpt>
      <trkpt lat="45.3070547617971897125244140625" lon="-71.07581913471221923828125">
        <ele>821.79998779296875</ele>
        <time>2026-08-21T23:17:02.000Z</time>
        <extensions>
          <ns3:TrackPointExtension>
            <ns3:hr>133</ns3:hr>
            <ns3:cad>0</ns3:cad>
          </ns3:TrackPointExtension>
        </extensions>
      </trkpt>
      <trkpt lat="45.3070499002933502197265625" lon="-71.07583858072757720947265625">
        <ele>822</ele>
        <time>2026-08-21T23:17:03.000Z</time>
        <extensions>
          <ns3:TrackPointExtension>
            <ns3:hr>132</ns3:hr>
            <ns3:cad>0</ns3:cad>
          </ns3:TrackPointExtension>
        </extensions>
      </trkpt>
      <trkpt lat="45.30704730190336704254150390625" lon="-71.07585391961038112640380859375">
        <ele>822</ele>
        <time>2026-08-21T23:17:04.000Z</time>
        <extensions>
          <ns3:TrackPointExtension>
            <ns3:hr>132</ns3:hr>
            <ns3:cad>0</ns3:cad>
          </ns3:TrackPointExtension>
        </extensions>
      </trkpt>
      <trkpt lat="45.30704545788466930389404296875" lon="-71.0758687555789947509765625">
        <ele>822.20001220703125</ele>
        <time>2026-08-21T23:17:05.000Z</time>
        <extensions>
          <ns3:TrackPointExtension>
            <ns3:hr>132</ns3:hr>
            <ns3:cad>50</ns3:cad>
          </ns3:TrackPointExtension>
        </extensions>
      </trkpt>
      <trkpt lat="45.30704679898917675018310546875" lon="-71.07588560320436954498291015625">
        <ele>822.4000244140625</ele>
        <time>2026-08-21T23:17:06.000Z</time>
        <extensions>
          <ns3:TrackPointExtension>
            <ns3:hr>132</ns3:hr>
            <ns3:cad>50</ns3:cad>
          </ns3:TrackPointExtension>
        </extensions>
      </trkpt>
      <trkpt lat="45.30705115757882595062255859375" lon="-71.075893230736255645751953125">
        <ele>822.5999755859375</ele>
        <time>2026-08-21T23:17:07.000Z</time>
        <extensions>
          <ns3:TrackPointExtension>
            <ns3:hr>132</ns3:hr>
            <ns3:cad>47</ns3:cad>
          </ns3:TrackPointExtension>
        </extensions>
      </trkpt>
      <trkpt lat="45.3070579469203948974609375" lon="-71.0759111680090427398681640625">
        <ele>822.5999755859375</ele>
        <time>2026-08-21T23:17:08.000Z</time>
        <extensions>
          <ns3:TrackPointExtension>
            <ns3:hr>133</ns3:hr>
            <ns3:cad>47</ns3:cad>
          </ns3:TrackPointExtension>
        </extensions>
      </trkpt>
      <trkpt lat="45.3070614673197269439697265625" lon="-71.0759255848824977874755859375">
        <ele>823</ele>
        <time>2026-08-21T23:17:09.000Z</time>
        <extensions>
          <ns3:TrackPointExtension>
            <ns3:hr>133</ns3:hr>
            <ns3:cad>47</ns3:cad>
          </ns3:TrackPointExtension>
        </extensions>
      </trkpt>
      <trkpt lat="45.30706574209034442901611328125" lon="-71.07594125904142856597900390625">
        <ele>823.20001220703125</ele>
        <time>2026-08-21T23:17:10.000Z</time>
        <extensions>
          <ns3:TrackPointExtension>
            <ns3:hr>133</ns3:hr>
            <ns3:cad>47</ns3:cad>
          </ns3:TrackPointExtension>
        </extensions>
      </trkpt>
      <trkpt lat="45.3070688433945178985595703125" lon="-71.075954250991344451904296875">
        <ele>823.4000244140625</ele>
        <time>2026-08-21T23:17:11.000Z</time>
        <extensions>
          <ns3:TrackPointExtension>
            <ns3:hr>134</ns3:hr>
            <ns3:cad>47</ns3:cad>
          </ns3:TrackPointExtension>
        </extensions>
      </trkpt>
      <trkpt lat="45.3070678375661373138427734375" lon="-71.07596523128449916839599609375">
        <ele>823.5999755859375</ele>
        <time>2026-08-21T23:17:12.000Z</time>
        <extensions>
          <ns3:TrackPointExtension>
            <ns3:hr>135</ns3:hr>
            <ns3:cad>47</ns3:cad>
          </ns3:TrackPointExtension>
        </extensions>
      </trkpt>
      <trkpt lat="45.3070659935474395751953125" lon="-71.07597679831087589263916015625">
        <ele>824</ele>
        <time>2026-08-21T23:17:13.000Z</time>
        <extensions>
          <ns3:TrackPointExtension>
            <ns3:hr>135</ns3:hr>
            <ns3:cad>47</ns3:cad>
          </ns3:TrackPointExtension>
        </extensions>
      </trkpt>
      <trkpt lat="45.30706188641488552093505859375" lon="-71.075988449156284332275390625">
        <ele>824.20001220703125</ele>
        <time>2026-08-21T23:17:14.000Z</time>
        <extensions>
          <ns3:TrackPointExtension>
            <ns3:hr>135</ns3:hr>
            <ns3:cad>47</ns3:cad>
          </ns3:TrackPointExtension>
        </extensions>
      </trkpt>
      <trkpt lat="45.3070550970733165740966796875" lon="-71.07600445859134197235107421875">
        <ele>824.4000244140625</ele>
        <time>2026-08-21T23:17:15.000Z</time>
        <extensions>
          <ns3:TrackPointExtension>
            <ns3:hr>135</ns3:hr>
            <ns3:cad>47</ns3:cad>
          </ns3:TrackPointExtension>
        </extensions>
      </trkpt>
      <trkpt lat="45.30704998411238193511962890625" lon="-71.07601854018867015838623046875">
        <ele>824.5999755859375</ele>
        <time>2026-08-21T23:17:16.000Z</time>
        <extensions>
          <ns3:TrackPointExtension>
            <ns3:hr>135</ns3:hr>
            <ns3:cad>47</ns3:cad>
          </ns3:TrackPointExtension>
        </extensions>
      </trkpt>
      <trkpt lat="45.3070487268269062042236328125" lon="-71.07603630982339382171630859375">
        <ele>824.79998779296875</ele>
        <time>2026-08-21T23:17:17.000Z</time>
        <extensions>
          <ns3:TrackPointExtension>
            <ns3:hr>135</ns3:hr>
            <ns3:cad>47</ns3:cad>
          </ns3:TrackPointExtension>
        </extensions>
      </trkpt>
      <trkpt lat="45.30704788863658905029296875" lon="-71.0760503076016902923583984375">
        <ele>824.79998779296875</ele>
        <time>2026-08-21T23:17:18.000Z</time>
        <extensions>
          <ns3:TrackPointExtension>
            <ns3:hr>136</ns3:hr>
            <ns3:cad>47</ns3:cad>
          </ns3:TrackPointExtension>
        </extensions>
      </trkpt>
      <trkpt lat="45.3070473857223987579345703125" lon="-71.07606531120836734771728515625">
        <ele>824.79998779296875</ele>
        <time>2026-08-21T23:17:19.000Z</time>
        <extensions>
          <ns3:TrackPointExtension>
            <ns3:hr>136</ns3:hr>
            <ns3:cad>47</ns3:cad>
          </ns3:TrackPointExtension>
        </extensions>
      </trkpt>
      <trkpt lat="45.30704713426530361175537109375" lon="-71.07608224265277385711669921875">
        <ele>824.79998779296875</ele>
        <time>2026-08-21T23:17:20.000Z</time>
        <extensions>
          <ns3:TrackPointExtension>
            <ns3:hr>137</ns3:hr>
            <ns3:cad>47</ns3:cad>
          </ns3:TrackPointExtension>
        </extensions>
      </trkpt>
      <trkpt lat="45.307042859494686126708984375" lon="-71.07609800063073635101318359375">
        <ele>824.79998779296875</ele>
        <time>2026-08-21T23:17:21.000Z</time>
        <extensions>
          <ns3:TrackPointExtension>
            <ns3:hr>138</ns3:hr>
            <ns3:cad>47</ns3:cad>
          </ns3:TrackPointExtension>
        </extensions>
      </trkpt>
      <trkpt lat="45.307036824524402618408203125" lon="-71.07611141167581081390380859375">
        <ele>825</ele>
        <time>2026-08-21T23:17:22.000Z</time>
        <extensions>
          <ns3:TrackPointExtension>
            <ns3:hr>138</ns3:hr>
            <ns3:cad>47</ns3:cad>
          </ns3:TrackPointExtension>
        </extensions>
      </trkpt>
      <trkpt lat="45.30703313648700714111328125" lon="-71.07613555155694484710693359375">
        <ele>825</ele>
        <time>2026-08-21T23:17:23.000Z</time>
        <extensions>
          <ns3:TrackPointExtension>
            <ns3:hr>138</ns3:hr>
            <ns3:cad>0</ns3:cad>
          </ns3:TrackPointExtension>
        </extensions>
      </trkpt>
      <trkpt lat="45.3070364892482757568359375" lon="-71.07614896260201930999755859375">
        <ele>825.20001220703125</ele>
        <time>2026-08-21T23:17:24.000Z</time>
        <extensions>
          <ns3:TrackPointExtension>
            <ns3:hr>138</ns3:hr>
            <ns3:cad>0</ns3:cad>
          </ns3:TrackPointExtension>
        </extensions>
      </trkpt>
      <trkpt lat="45.3070379979908466339111328125" lon="-71.0761622898280620574951171875">
        <ele>825.4000244140625</ele>
        <time>2026-08-21T23:17:25.000Z</time>
        <extensions>
          <ns3:TrackPointExtension>
            <ns3:hr>138</ns3:hr>
            <ns3:cad>0</ns3:cad>
          </ns3:TrackPointExtension>
        </extensions>
      </trkpt>
      <trkpt lat="45.30704495497047901153564453125" lon="-71.0761892795562744140625">
        <ele>825.4000244140625</ele>
        <time>2026-08-21T23:17:26.000Z</time>
        <extensions>
          <ns3:TrackPointExtension>
            <ns3:hr>138</ns3:hr>
            <ns3:cad>0</ns3:cad>
          </ns3:TrackPointExtension>
        </extensions>
      </trkpt>
      <trkpt lat="45.30704830773174762725830078125" lon="-71.07620931230485439300537109375">
        <ele>825.5999755859375</ele>
        <time>2026-08-21T23:17:27.000Z</time>
        <extensions>
          <ns3:TrackPointExtension>
            <ns3:hr>138</ns3:hr>
            <ns3:cad>0</ns3:cad>
          </ns3:TrackPointExtension>
        </extensions>
      </trkpt>
      <trkpt lat="45.30705199576914310455322265625" lon="-71.076225824654102325439453125">
        <ele>825.5999755859375</ele>
        <time>2026-08-21T23:17:28.000Z</time>
        <extensions>
          <ns3:TrackPointExtension>
            <ns3:hr>138</ns3:hr>
            <ns3:cad>50</ns3:cad>
          </ns3:TrackPointExtension>
        </extensions>
      </trkpt>
      <trkpt lat="45.30705333687365055084228515625" lon="-71.07624334283173084259033203125">
        <ele>825.5999755859375</ele>
        <time>2026-08-21T23:17:29.000Z</time>
        <extensions>
          <ns3:TrackPointExtension>
            <ns3:hr>139</ns3:hr>
            <ns3:cad>50</ns3:cad>
          </ns3:TrackPointExtension>
        </extensions>
      </trkpt>
      <trkpt lat="45.30705316923558712005615234375" lon="-71.0762635432183742523193359375">
        <ele>825.5999755859375</ele>
        <time>2026-08-21T23:17:30.000Z</time>
        <extensions>
          <ns3:TrackPointExtension>
            <ns3:hr>138</ns3:hr>
            <ns3:cad>50</ns3:cad>
          </ns3:TrackPointExtension>
        </extensions>
      </trkpt>
      <trkpt lat="45.30705685727298259735107421875" lon="-71.07628055848181247711181640625">
        <ele>825.5999755859375</ele>
        <time>2026-08-21T23:17:31.000Z</time>
        <extensions>
          <ns3:TrackPointExtension>
            <ns3:hr>138</ns3:hr>
            <ns3:cad>48</ns3:cad>
          </ns3:TrackPointExtension>
        </extensions>
      </trkpt>
      <trkpt lat="45.3070621378719806671142578125" lon="-71.07629078440368175506591796875">
        <ele>825.79998779296875</ele>
        <time>2026-08-21T23:17:32.000Z</time>
        <extensions>
          <ns3:TrackPointExtension>
            <ns3:hr>138</ns3:hr>
            <ns3:cad>48</ns3:cad>
          </ns3:TrackPointExtension>
        </extensions>
      </trkpt>
      <trkpt lat="45.3070721961557865142822265625" lon="-71.076304614543914794921875">
        <ele>825.79998779296875</ele>
        <time>2026-08-21T23:17:33.000Z</time>
        <extensions>
          <ns3:TrackPointExtension>
            <ns3:hr>138</ns3:hr>
            <ns3:cad>53</ns3:cad>
          </ns3:TrackPointExtension>
        </extensions>
      </trkpt>
      <trkpt lat="45.30707948841154575347900390625" lon="-71.076316349208354949951171875">
        <ele>826</ele>
        <time>2026-08-21T23:17:34.000Z</time>
        <extensions>
          <ns3:TrackPointExtension>
            <ns3:hr>138</ns3:hr>
            <ns3:cad>53</ns3:cad>
          </ns3:TrackPointExtension>
        </extensions>
      </trkpt>
      <trkpt lat="45.30708275735378265380859375" lon="-71.076326072216033935546875">
        <ele>826.20001220703125</ele>
        <time>2026-08-21T23:17:35.000Z</time>
        <extensions>
          <ns3:TrackPointExtension>
            <ns3:hr>137</ns3:hr>
            <ns3:cad>0</ns3:cad>
          </ns3:TrackPointExtension>
        </extensions>
      </trkpt>
      <trkpt lat="45.307085774838924407958984375" lon="-71.0763419978320598602294921875">
        <ele>826.20001220703125</ele>
        <time>2026-08-21T23:17:36.000Z</time>
        <extensions>
          <ns3:TrackPointExtension>
            <ns3:hr>137</ns3:hr>
            <ns3:cad>0</ns3:cad>
          </ns3:TrackPointExtension>
        </extensions>
      </trkpt>
      <trkpt lat="45.30708669684827327728271484375" lon="-71.0763584263622760772705078125">
        <ele>826.4000244140625</ele>
        <time>2026-08-21T23:17:37.000Z</time>
        <extensions>
          <ns3:TrackPointExtension>
            <ns3:hr>138</ns3:hr>
            <ns3:cad>0</ns3:cad>
          </ns3:TrackPointExtension>
        </extensions>
      </trkpt>
      <trkpt lat="45.3070866130292415618896484375" lon="-71.07636622153222560882568359375">
        <ele>826.5999755859375</ele>
        <time>2026-08-21T23:17:38.000Z</time>
        <extensions>
          <ns3:TrackPointExtension>
            <ns3:hr>138</ns3:hr>
            <ns3:cad>0</ns3:cad>
          </ns3:TrackPointExtension>
        </extensions>
      </trkpt>
      <trkpt lat="45.307088457047939300537109375" lon="-71.07637845911085605621337890625">
        <ele>826.5999755859375</ele>
        <time>2026-08-21T23:17:39.000Z</time>
        <extensions>
          <ns3:TrackPointExtension>
            <ns3:hr>137</ns3:hr>
            <ns3:cad>0</ns3:cad>
          </ns3:TrackPointExtension>
        </extensions>
      </trkpt>
      <trkpt lat="45.30708837322890758514404296875" lon="-71.076392121613025665283203125">
        <ele>826.79998779296875</ele>
        <time>2026-08-21T23:17:40.000Z</time>
        <extensions>
          <ns3:TrackPointExtension>
            <ns3:hr>137</ns3:hr>
            <ns3:cad>0</ns3:cad>
          </ns3:TrackPointExtension>
        </extensions>
      </trkpt>
      <trkpt lat="45.30708300881087779998779296875" lon="-71.0764030180871486663818359375">
        <ele>827</ele>
        <time>2026-08-21T23:17:41.000Z</time>
        <extensions>
          <ns3:TrackPointExtension>
            <ns3:hr>137</ns3:hr>
            <ns3:cad>0</ns3:cad>
          </ns3:TrackPointExtension>
        </extensions>
      </trkpt>
      <trkpt lat="45.30707764439284801483154296875" lon="-71.07641927897930145263671875">
        <ele>827.20001220703125</ele>
        <time>2026-08-21T23:17:42.000Z</time>
        <extensions>
          <ns3:TrackPointExtension>
            <ns3:hr>136</ns3:hr>
            <ns3:cad>0</ns3:cad>
          </ns3:TrackPointExtension>
        </extensions>
      </trkpt>
      <trkpt lat="45.30707278288900852203369140625" lon="-71.076441742479801177978515625">
        <ele>827.4000244140625</ele>
        <time>2026-08-21T23:17:43.000Z</time>
        <extensions>
          <ns3:TrackPointExtension>
            <ns3:hr>136</ns3:hr>
            <ns3:cad>0</ns3:cad>
          </ns3:TrackPointExtension>
        </extensions>
      </trkpt>
      <trkpt lat="45.3070740401744842529296875" lon="-71.076461859047412872314453125">
        <ele>827.5999755859375</ele>
        <time>2026-08-21T23:17:44.000Z</time>
        <extensions>
          <ns3:TrackPointExtension>
            <ns3:hr>136</ns3:hr>
            <ns3:cad>0</ns3:cad>
          </ns3:TrackPointExtension>
        </extensions>
      </trkpt>
      <trkpt lat="45.3070735372602939605712890625" lon="-71.076478622853755950927734375">
        <ele>827.5999755859375</ele>
        <time>2026-08-21T23:17:45.000Z</time>
        <extensions>
          <ns3:TrackPointExtension>
            <ns3:hr>136</ns3:hr>
            <ns3:cad>49</ns3:cad>
          </ns3:TrackPointExtension>
        </extensions>
      </trkpt>
      <trkpt lat="45.30706959776580333709716796875" lon="-71.0764965601265430450439453125">
        <ele>827.79998779296875</ele>
        <time>2026-08-21T23:17:46.000Z</time>
        <extensions>
          <ns3:TrackPointExtension>
            <ns3:hr>136</ns3:hr>
            <ns3:cad>49</ns3:cad>
          </ns3:TrackPointExtension>
        </extensions>
      </trkpt>
      <trkpt lat="45.30706532299518585205078125" lon="-71.07651474885642528533935546875">
        <ele>827.79998779296875</ele>
        <time>2026-08-21T23:17:47.000Z</time>
        <extensions>
          <ns3:TrackPointExtension>
            <ns3:hr>136</ns3:hr>
            <ns3:cad>48</ns3:cad>
          </ns3:TrackPointExtension>
        </extensions>
      </trkpt>
      <trkpt lat="45.30706264078617095947265625" lon="-71.07652145437896251678466796875">
        <ele>828</ele>
        <time>2026-08-21T23:17:48.000Z</time>
        <extensions>
          <ns3:TrackPointExtension>
            <ns3:hr>136</ns3:hr>
            <ns3:cad>0</ns3:cad>
          </ns3:TrackPointExtension>
        </extensions>
      </trkpt>
      <trkpt lat="45.30705987475812435150146484375" lon="-71.07653436250984668731689453125">
        <ele>828.20001220703125</ele>
        <time>2026-08-21T23:17:49.000Z</time>
        <extensions>
          <ns3:TrackPointExtension>
            <ns3:hr>136</ns3:hr>
            <ns3:cad>0</ns3:cad>
          </ns3:TrackPointExtension>
        </extensions>
      </trkpt>
      <trkpt lat="45.30705635435879230499267578125" lon="-71.0765473544597625732421875">
        <ele>828.4000244140625</ele>
        <time>2026-08-21T23:17:50.000Z</time>
        <extensions>
          <ns3:TrackPointExtension>
            <ns3:hr>135</ns3:hr>
            <ns3:cad>0</ns3:cad>
          </ns3:TrackPointExtension>
        </extensions>
      </trkpt>
      <trkpt lat="45.30705048702657222747802734375" lon="-71.0765616036951541900634765625">
        <ele>828.4000244140625</ele>
        <time>2026-08-21T23:17:51.000Z</time>
        <extensions>
          <ns3:TrackPointExtension>
            <ns3:hr>136</ns3:hr>
            <ns3:cad>0</ns3:cad>
          </ns3:TrackPointExtension>
        </extensions>
      </trkpt>
      <trkpt lat="45.3070472180843353271484375" lon="-71.07657493092119693756103515625">
        <ele>828.4000244140625</ele>
        <time>2026-08-21T23:17:52.000Z</time>
        <extensions>
          <ns3:TrackPointExtension>
            <ns3:hr>136</ns3:hr>
            <ns3:cad>0</ns3:cad>
          </ns3:TrackPointExtension>
        </extensions>
      </trkpt>
      <trkpt lat="45.3070445358753204345703125" lon="-71.0765813849866390228271484375">
        <ele>828.5999755859375</ele>
        <time>2026-08-21T23:17:53.000Z</time>
        <extensions>
          <ns3:TrackPointExtension>
            <ns3:hr>135</ns3:hr>
            <ns3:cad>0</ns3:cad>
          </ns3:TrackPointExtension>
        </extensions>
      </trkpt>
      <trkpt lat="45.3070420213043689727783203125" lon="-71.07659588567912578582763671875">
        <ele>828.5999755859375</ele>
        <time>2026-08-21T23:17:54.000Z</time>
        <extensions>
          <ns3:TrackPointExtension>
            <ns3:hr>134</ns3:hr>
            <ns3:cad>0</ns3:cad>
          </ns3:TrackPointExtension>
        </extensions>
      </trkpt>
      <trkpt lat="45.30704176984727382659912109375" lon="-71.07660326175391674041748046875">
        <ele>828.79998779296875</ele>
        <time>2026-08-21T23:17:55.000Z</time>
        <extensions>
          <ns3:TrackPointExtension>
            <ns3:hr>134</ns3:hr>
            <ns3:cad>0</ns3:cad>
          </ns3:TrackPointExtension>
        </extensions>
      </trkpt>
      <trkpt lat="45.307040177285671234130859375" lon="-71.07661910355091094970703125">
        <ele>829</ele>
        <time>2026-08-21T23:17:56.000Z</time>
        <extensions>
          <ns3:TrackPointExtension>
            <ns3:hr>134</ns3:hr>
            <ns3:cad>0</ns3:cad>
          </ns3:TrackPointExtension>
        </extensions>
      </trkpt>
      <trkpt lat="45.30704076401889324188232421875" lon="-71.076626814901828765869140625">
        <ele>829.20001220703125</ele>
        <time>2026-08-21T23:17:57.000Z</time>
        <extensions>
          <ns3:TrackPointExtension>
            <ns3:hr>133</ns3:hr>
            <ns3:cad>0</ns3:cad>
          </ns3:TrackPointExtension>
        </extensions>
      </trkpt>
      <trkpt lat="45.3070420213043689727783203125" lon="-71.0766330175101757049560546875">
        <ele>829.4000244140625</ele>
        <time>2026-08-21T23:17:58.000Z</time>
        <extensions>
          <ns3:TrackPointExtension>
            <ns3:hr>133</ns3:hr>
            <ns3:cad>0</ns3:cad>
          </ns3:TrackPointExtension>
        </extensions>
      </trkpt>
      <trkpt lat="45.3070418536663055419921875" lon="-71.07664726674556732177734375">
        <ele>829.5999755859375</ele>
        <time>2026-08-21T23:17:59.000Z</time>
        <extensions>
          <ns3:TrackPointExtension>
            <ns3:hr>133</ns3:hr>
            <ns3:cad>0</ns3:cad>
          </ns3:TrackPointExtension>
        </extensions>
      </trkpt>
      <trkpt lat="45.3070416860282421112060546875" lon="-71.0766621865332126617431640625">
        <ele>829.79998779296875</ele>
        <time>2026-08-21T23:18:00.000Z</time>
        <extensions>
          <ns3:TrackPointExtension>
            <ns3:hr>132</ns3:hr>
            <ns3:cad>0</ns3:cad>
          </ns3:TrackPointExtension>
        </extensions>
      </trkpt>
      <trkpt lat="45.3070410154759883880615234375" lon="-71.07666981406509876251220703125">
        <ele>829.79998779296875</ele>
        <time>2026-08-21T23:18:01.000Z</time>
        <extensions>
          <ns3:TrackPointExtension>
            <ns3:hr>132</ns3:hr>
            <ns3:cad>0</ns3:cad>
          </ns3:TrackPointExtension>
        </extensions>
      </trkpt>
      <trkpt lat="45.307045876979827880859375" lon="-71.0766829736530780792236328125">
        <ele>829.79998779296875</ele>
        <time>2026-08-21T23:18:02.000Z</time>
        <extensions>
          <ns3:TrackPointExtension>
            <ns3:hr>132</ns3:hr>
            <ns3:cad>0</ns3:cad>
          </ns3:TrackPointExtension>
        </extensions>
      </trkpt>
      <trkpt lat="45.30704520642757415771484375" lon="-71.076696552336215972900390625">
        <ele>829.79998779296875</ele>
        <time>2026-08-21T23:18:03.000Z</time>
        <extensions>
          <ns3:TrackPointExtension>
            <ns3:hr>132</ns3:hr>
            <ns3:cad>0</ns3:cad>
          </ns3:TrackPointExtension>
        </extensions>
      </trkpt>
      <trkpt lat="45.3070403449237346649169921875" lon="-71.07670585624873638153076171875">
        <ele>829.79998779296875</ele>
        <time>2026-08-21T23:18:04.000Z</time>
        <extensions>
          <ns3:TrackPointExtension>
            <ns3:hr>132</ns3:hr>
            <ns3:cad>0</ns3:cad>
          </ns3:TrackPointExtension>
        </extensions>
      </trkpt>
      <trkpt lat="45.30703657306730747222900390625" lon="-71.0767228715121746063232421875">
        <ele>830</ele>
        <time>2026-08-21T23:18:05.000Z</time>
        <extensions>
          <ns3:TrackPointExtension>
            <ns3:hr>132</ns3:hr>
            <ns3:cad>0</ns3:cad>
          </ns3:TrackPointExtension>
        </extensions>
      </trkpt>
      <trkpt lat="45.30703690834343433380126953125" lon="-71.07672966085374355316162109375">
        <ele>830.20001220703125</ele>
        <time>2026-08-21T23:18:06.000Z</time>
        <extensions>
          <ns3:TrackPointExtension>
            <ns3:hr>132</ns3:hr>
            <ns3:cad>0</ns3:cad>
          </ns3:TrackPointExtension>
        </extensions>
      </trkpt>
      <trkpt lat="45.30703322030603885650634765625" lon="-71.0767456702888011932373046875">
        <ele>830.4000244140625</ele>
        <time>2026-08-21T23:18:07.000Z</time>
        <extensions>
          <ns3:TrackPointExtension>
            <ns3:hr>132</ns3:hr>
            <ns3:cad>0</ns3:cad>
          </ns3:TrackPointExtension>
        </extensions>
      </trkpt>
      <trkpt lat="45.30702416785061359405517578125" lon="-71.0767471790313720703125">
        <ele>830.5999755859375</ele>
        <time>2026-08-21T23:18:08.000Z</time>
        <extensions>
          <ns3:TrackPointExtension>
            <ns3:hr>132</ns3:hr>
            <ns3:cad>0</ns3:cad>
          </ns3:TrackPointExtension>
        </extensions>
      </trkpt>
      <trkpt lat="45.3070148639380931854248046875" lon="-71.07676486484706401824951171875">
        <ele>830.79998779296875</ele>
        <time>2026-08-21T23:18:09.000Z</time>
        <extensions>
          <ns3:TrackPointExtension>
            <ns3:hr>132</ns3:hr>
            <ns3:cad>0</ns3:cad>
          </ns3:TrackPointExtension>
        </extensions>
      </trkpt>
      <trkpt lat="45.30700824223458766937255859375" lon="-71.0767795331776142120361328125">
        <ele>830.79998779296875</ele>
        <time>2026-08-21T23:18:10.000Z</time>
        <extensions>
          <ns3:TrackPointExtension>
            <ns3:hr>132</ns3:hr>
            <ns3:cad>0</ns3:cad>
          </ns3:TrackPointExtension>
        </extensions>
      </trkpt>
      <trkpt lat="45.30700556002557277679443359375" lon="-71.0767926089465618133544921875">
        <ele>830.79998779296875</ele>
        <time>2026-08-21T23:18:11.000Z</time>
        <extensions>
          <ns3:TrackPointExtension>
            <ns3:hr>132</ns3:hr>
            <ns3:cad>0</ns3:cad>
          </ns3:TrackPointExtension>
        </extensions>
      </trkpt>
      <trkpt lat="45.30700136907398700714111328125" lon="-71.07680375687777996063232421875">
        <ele>831</ele>
        <time>2026-08-21T23:18:12.000Z</time>
        <extensions>
          <ns3:TrackPointExtension>
            <ns3:hr>132</ns3:hr>
            <ns3:cad>0</ns3:cad>
          </ns3:TrackPointExtension>
        </extensions>
      </trkpt>
      <trkpt lat="45.30699617229402065277099609375" lon="-71.07681063003838062286376953125">
        <ele>831</ele>
        <time>2026-08-21T23:18:13.000Z</time>
        <extensions>
          <ns3:TrackPointExtension>
            <ns3:hr>132</ns3:hr>
            <ns3:cad>0</ns3:cad>
          </ns3:TrackPointExtension>
        </extensions>
      </trkpt>
      <trkpt lat="45.30698460526764392852783203125" lon="-71.076819598674774169921875">
        <ele>831</ele>
        <time>2026-08-21T23:18:14.000Z</time>
        <extensions>
          <ns3:TrackPointExtension>
            <ns3:hr>132</ns3:hr>
            <ns3:cad>0</ns3:cad>
          </ns3:TrackPointExtension>
        </extensions>
      </trkpt>
      <trkpt lat="45.30697270296514034271240234375" lon="-71.07682890258729457855224609375">
        <ele>831.20001220703125</ele>
        <time>2026-08-21T23:18:15.000Z</time>
        <extensions>
          <ns3:TrackPointExtension>
            <ns3:hr>133</ns3:hr>
            <ns3:cad>0</ns3:cad>
          </ns3:TrackPointExtension>
        </extensions>
      </trkpt>
      <trkpt lat="45.30696683563292026519775390625" lon="-71.07683904469013214111328125">
        <ele>831.4000244140625</ele>
        <time>2026-08-21T23:18:16.000Z</time>
        <extensions>
          <ns3:TrackPointExtension>
            <ns3:hr>133</ns3:hr>
            <ns3:cad>0</ns3:cad>
          </ns3:TrackPointExtension>
        </extensions>
      </trkpt>
      <trkpt lat="45.30695895664393901824951171875" lon="-71.07685505412518978118896484375">
        <ele>831.4000244140625</ele>
        <time>2026-08-21T23:18:17.000Z</time>
        <extensions>
          <ns3:TrackPointExtension>
            <ns3:hr>134</ns3:hr>
            <ns3:cad>0</ns3:cad>
          </ns3:TrackPointExtension>
        </extensions>
      </trkpt>
      <trkpt lat="45.30694705434143543243408203125" lon="-71.0768703930079936981201171875">
        <ele>831.4000244140625</ele>
        <time>2026-08-21T23:18:18.000Z</time>
        <extensions>
          <ns3:TrackPointExtension>
            <ns3:hr>134</ns3:hr>
            <ns3:cad>0</ns3:cad>
          </ns3:TrackPointExtension>
        </extensions>
      </trkpt>
      <trkpt lat="45.30693733133375644683837890625" lon="-71.07688757590949535369873046875">
        <ele>831.5999755859375</ele>
        <time>2026-08-21T23:18:19.000Z</time>
        <extensions>
          <ns3:TrackPointExtension>
            <ns3:hr>134</ns3:hr>
            <ns3:cad>0</ns3:cad>
          </ns3:TrackPointExtension>
        </extensions>
      </trkpt>
      <trkpt lat="45.3069266863167285919189453125" lon="-71.07689897529780864715576171875">
        <ele>831.5999755859375</ele>
        <time>2026-08-21T23:18:20.000Z</time>
        <extensions>
          <ns3:TrackPointExtension>
            <ns3:hr>134</ns3:hr>
            <ns3:cad>0</ns3:cad>
          </ns3:TrackPointExtension>
        </extensions>
      </trkpt>
      <trkpt lat="45.306915454566478729248046875" lon="-71.0769136436283588409423828125">
        <ele>831.5999755859375</ele>
        <time>2026-08-21T23:18:21.000Z</time>
        <extensions>
          <ns3:TrackPointExtension>
            <ns3:hr>134</ns3:hr>
            <ns3:cad>0</ns3:cad>
          </ns3:TrackPointExtension>
        </extensions>
      </trkpt>
      <trkpt lat="45.30690497718751430511474609375" lon="-71.076923869550228118896484375">
        <ele>831.5999755859375</ele>
        <time>2026-08-21T23:18:22.000Z</time>
        <extensions>
          <ns3:TrackPointExtension>
            <ns3:hr>135</ns3:hr>
            <ns3:cad>0</ns3:cad>
          </ns3:TrackPointExtension>
        </extensions>
      </trkpt>
      <trkpt lat="45.30689634382724761962890625" lon="-71.0769317485392093658447265625">
        <ele>831.79998779296875</ele>
        <time>2026-08-21T23:18:23.000Z</time>
        <extensions>
          <ns3:TrackPointExtension>
            <ns3:hr>135</ns3:hr>
            <ns3:cad>52</ns3:cad>
          </ns3:TrackPointExtension>
        </extensions>
      </trkpt>
      <trkpt lat="45.3068861179053783416748046875" lon="-71.0769381187856197357177734375">
        <ele>831.79998779296875</ele>
        <time>2026-08-21T23:18:24.000Z</time>
        <extensions>
          <ns3:TrackPointExtension>
            <ns3:hr>135</ns3:hr>
            <ns3:cad>52</ns3:cad>
          </ns3:TrackPointExtension>
        </extensions>
      </trkpt>
      <trkpt lat="45.30687597580254077911376953125" lon="-71.07695303857326507568359375">
        <ele>831.79998779296875</ele>
        <time>2026-08-21T23:18:25.000Z</time>
        <extensions>
          <ns3:TrackPointExtension>
            <ns3:hr>135</ns3:hr>
            <ns3:cad>57</ns3:cad>
          </ns3:TrackPointExtension>
        </extensions>
      </trkpt>
      <trkpt lat="45.3068653307855129241943359375" lon="-71.07696284539997577667236328125">
        <ele>831.79998779296875</ele>
        <time>2026-08-21T23:18:26.000Z</time>
        <extensions>
          <ns3:TrackPointExtension>
            <ns3:hr>135</ns3:hr>
            <ns3:cad>57</ns3:cad>
          </ns3:TrackPointExtension>
        </extensions>
      </trkpt>
      <trkpt lat="45.30685334466397762298583984375" lon="-71.0769753344357013702392578125">
        <ele>832</ele>
        <time>2026-08-21T23:18:27.000Z</time>
        <extensions>
          <ns3:TrackPointExtension>
            <ns3:hr>134</ns3:hr>
            <ns3:cad>57</ns3:cad>
          </ns3:TrackPointExtension>
        </extensions>
      </trkpt>
      <trkpt lat="45.30684806406497955322265625" lon="-71.07699452899396419525146484375">
        <ele>832</ele>
        <time>2026-08-21T23:18:28.000Z</time>
        <extensions>
          <ns3:TrackPointExtension>
            <ns3:hr>134</ns3:hr>
            <ns3:cad>0</ns3:cad>
          </ns3:TrackPointExtension>
        </extensions>
      </trkpt>
      <trkpt lat="45.30684077180922031402587890625" lon="-71.07700307853519916534423828125">
        <ele>832</ele>
        <time>2026-08-21T23:18:29.000Z</time>
        <extensions>
          <ns3:TrackPointExtension>
            <ns3:hr>134</ns3:hr>
            <ns3:cad>0</ns3:cad>
          </ns3:TrackPointExtension>
        </extensions>
      </trkpt>
      <trkpt lat="45.306834988296031951904296875" lon="-71.0770179145038127899169921875">
        <ele>832</ele>
        <time>2026-08-21T23:18:30.000Z</time>
        <extensions>
          <ns3:TrackPointExtension>
            <ns3:hr>133</ns3:hr>
            <ns3:cad>0</ns3:cad>
          </ns3:TrackPointExtension>
        </extensions>
      </trkpt>
      <trkpt lat="45.30682082287967205047607421875" lon="-71.077035181224346160888671875">
        <ele>832</ele>
        <time>2026-08-21T23:18:31.000Z</time>
        <extensions>
          <ns3:TrackPointExtension>
            <ns3:hr>133</ns3:hr>
            <ns3:cad>0</ns3:cad>
          </ns3:TrackPointExtension>
        </extensions>
      </trkpt>
      <trkpt lat="45.306812860071659088134765625" lon="-71.07704264111816883087158203125">
        <ele>832</ele>
        <time>2026-08-21T23:18:32.000Z</time>
        <extensions>
          <ns3:TrackPointExtension>
            <ns3:hr>132</ns3:hr>
            <ns3:cad>0</ns3:cad>
          </ns3:TrackPointExtension>
        </extensions>
      </trkpt>
      <trkpt lat="45.3067972697317600250244140625" lon="-71.0770551301538944244384765625">
        <ele>832.20001220703125</ele>
        <time>2026-08-21T23:18:33.000Z</time>
        <extensions>
          <ns3:TrackPointExtension>
            <ns3:hr>132</ns3:hr>
            <ns3:cad>0</ns3:cad>
          </ns3:TrackPointExtension>
        </extensions>
      </trkpt>
      <trkpt lat="45.30678880400955677032470703125" lon="-71.0770705528557300567626953125">
        <ele>832.20001220703125</ele>
        <time>2026-08-21T23:18:34.000Z</time>
        <extensions>
          <ns3:TrackPointExtension>
            <ns3:hr>132</ns3:hr>
            <ns3:cad>0</ns3:cad>
          </ns3:TrackPointExtension>
        </extensions>
      </trkpt>
      <trkpt lat="45.30678058974444866180419921875" lon="-71.07708874158561229705810546875">
        <ele>832.20001220703125</ele>
        <time>2026-08-21T23:18:35.000Z</time>
        <extensions>
          <ns3:TrackPointExtension>
            <ns3:hr>132</ns3:hr>
            <ns3:cad>0</ns3:cad>
          </ns3:TrackPointExtension>
        </extensions>
      </trkpt>
      <trkpt lat="45.3067768178880214691162109375" lon="-71.07709511183202266693115234375">
        <ele>832.4000244140625</ele>
        <time>2026-08-21T23:18:36.000Z</time>
        <extensions>
          <ns3:TrackPointExtension>
            <ns3:hr>131</ns3:hr>
            <ns3:cad>0</ns3:cad>
          </ns3:TrackPointExtension>
        </extensions>
      </trkpt>
      <trkpt lat="45.30676634050905704498291015625" lon="-71.07711371965706348419189453125">
        <ele>832.5999755859375</ele>
        <time>2026-08-21T23:18:37.000Z</time>
        <extensions>
          <ns3:TrackPointExtension>
            <ns3:hr>131</ns3:hr>
            <ns3:cad>0</ns3:cad>
          </ns3:TrackPointExtension>
        </extensions>
      </trkpt>
      <trkpt lat="45.30676030553877353668212890625" lon="-71.0771240293979644775390625">
        <ele>832.79998779296875</ele>
        <time>2026-08-21T23:18:38.000Z</time>
        <extensions>
          <ns3:TrackPointExtension>
            <ns3:hr>131</ns3:hr>
            <ns3:cad>0</ns3:cad>
          </ns3:TrackPointExtension>
        </extensions>
      </trkpt>
      <trkpt lat="45.306751169264316558837890625" lon="-71.07713551260530948638916015625">
        <ele>833.20001220703125</ele>
        <time>2026-08-21T23:18:39.000Z</time>
        <extensions>
          <ns3:TrackPointExtension>
            <ns3:hr>130</ns3:hr>
            <ns3:cad>0</ns3:cad>
          </ns3:TrackPointExtension>
        </extensions>
      </trkpt>
      <trkpt lat="45.3067449666559696197509765625" lon="-71.07714540325105190277099609375">
        <ele>833.20001220703125</ele>
        <time>2026-08-21T23:18:40.000Z</time>
        <extensions>
          <ns3:TrackPointExtension>
            <ns3:hr>130</ns3:hr>
            <ns3:cad>0</ns3:cad>
          </ns3:TrackPointExtension>
        </extensions>
      </trkpt>
      <trkpt lat="45.30673717148602008819580078125" lon="-71.077160574495792388916015625">
        <ele>833.4000244140625</ele>
        <time>2026-08-21T23:18:41.000Z</time>
        <extensions>
          <ns3:TrackPointExtension>
            <ns3:hr>130</ns3:hr>
            <ns3:cad>0</ns3:cad>
          </ns3:TrackPointExtension>
        </extensions>
      </trkpt>
      <trkpt lat="45.3067235089838504791259765625" lon="-71.07717876322567462921142578125">
        <ele>833.4000244140625</ele>
        <time>2026-08-21T23:18:42.000Z</time>
        <extensions>
          <ns3:TrackPointExtension>
            <ns3:hr>130</ns3:hr>
            <ns3:cad>0</ns3:cad>
          </ns3:TrackPointExtension>
        </extensions>
      </trkpt>
      <trkpt lat="45.30671772547066211700439453125" lon="-71.07719267718493938446044921875">
        <ele>833.4000244140625</ele>
        <time>2026-08-21T23:18:43.000Z</time>
        <extensions>
          <ns3:TrackPointExtension>
            <ns3:hr>130</ns3:hr>
            <ns3:cad>0</ns3:cad>
          </ns3:TrackPointExtension>
        </extensions>
      </trkpt>
      <trkpt lat="45.30671487562358379364013671875" lon="-71.07720307074487209320068359375">
        <ele>833.20001220703125</ele>
        <time>2026-08-21T23:18:44.000Z</time>
        <extensions>
          <ns3:TrackPointExtension>
            <ns3:hr>130</ns3:hr>
            <ns3:cad>68</ns3:cad>
          </ns3:TrackPointExtension>
        </extensions>
      </trkpt>
      <trkpt lat="45.30670724809169769287109375" lon="-71.07722268439829349517822265625">
        <ele>833.20001220703125</ele>
        <time>2026-08-21T23:18:45.000Z</time>
        <extensions>
          <ns3:TrackPointExtension>
            <ns3:hr>130</ns3:hr>
            <ns3:cad>0</ns3:cad>
          </ns3:TrackPointExtension>
        </extensions>
      </trkpt>
      <trkpt lat="45.30669811181724071502685546875" lon="-71.07723869383335113525390625">
        <ele>833.20001220703125</ele>
        <time>2026-08-21T23:18:46.000Z</time>
        <extensions>
          <ns3:TrackPointExtension>
            <ns3:hr>130</ns3:hr>
            <ns3:cad>0</ns3:cad>
          </ns3:TrackPointExtension>
        </extensions>
      </trkpt>
      <trkpt lat="45.3066893108189105987548828125" lon="-71.07724447734653949737548828125">
        <ele>833</ele>
        <time>2026-08-21T23:18:47.000Z</time>
        <extensions>
          <ns3:TrackPointExtension>
            <ns3:hr>130</ns3:hr>
            <ns3:cad>0</ns3:cad>
          </ns3:TrackPointExtension>
        </extensions>
      </trkpt>
      <trkpt lat="45.306678749620914459228515625" lon="-71.077252440154552459716796875">
        <ele>832.79998779296875</ele>
        <time>2026-08-21T23:18:48.000Z</time>
        <extensions>
          <ns3:TrackPointExtension>
            <ns3:hr>129</ns3:hr>
            <ns3:cad>0</ns3:cad>
          </ns3:TrackPointExtension>
        </extensions>
      </trkpt>
      <trkpt lat="45.3066712059080600738525390625" lon="-71.07726392336189746856689453125">
        <ele>832.79998779296875</ele>
        <time>2026-08-21T23:18:49.000Z</time>
        <extensions>
          <ns3:TrackPointExtension>
            <ns3:hr>129</ns3:hr>
            <ns3:cad>0</ns3:cad>
          </ns3:TrackPointExtension>
        </extensions>
      </trkpt>
      <trkpt lat="45.3066634945571422576904296875" lon="-71.0772713832557201385498046875">
        <ele>832.79998779296875</ele>
        <time>2026-08-21T23:18:50.000Z</time>
        <extensions>
          <ns3:TrackPointExtension>
            <ns3:hr>129</ns3:hr>
            <ns3:cad>0</ns3:cad>
          </ns3:TrackPointExtension>
        </extensions>
      </trkpt>
      <trkpt lat="45.30665167607367038726806640625" lon="-71.07728001661598682403564453125">
        <ele>832.5999755859375</ele>
        <time>2026-08-21T23:18:51.000Z</time>
        <extensions>
          <ns3:TrackPointExtension>
            <ns3:hr>128</ns3:hr>
            <ns3:cad>57</ns3:cad>
          </ns3:TrackPointExtension>
        </extensions>
      </trkpt>
      <trkpt lat="45.30664346180856227874755859375" lon="-71.07729124836623668670654296875">
        <ele>832.4000244140625</ele>
        <time>2026-08-21T23:18:52.000Z</time>
        <extensions>
          <ns3:TrackPointExtension>
            <ns3:hr>128</ns3:hr>
            <ns3:cad>57</ns3:cad>
          </ns3:TrackPointExtension>
        </extensions>
      </trkpt>
      <trkpt lat="45.30663155950605869293212890625" lon="-71.07731111347675323486328125">
        <ele>832.4000244140625</ele>
        <time>2026-08-21T23:18:53.000Z</time>
        <extensions>
          <ns3:TrackPointExtension>
            <ns3:hr>128</ns3:hr>
            <ns3:cad>57</ns3:cad>
          </ns3:TrackPointExtension>
        </extensions>
      </trkpt>
      <trkpt lat="45.3066219203174114227294921875" lon="-71.0773223452270030975341796875">
        <ele>832.20001220703125</ele>
        <time>2026-08-21T23:18:54.000Z</time>
        <extensions>
          <ns3:TrackPointExtension>
            <ns3:hr>128</ns3:hr>
            <ns3:cad>57</ns3:cad>
          </ns3:TrackPointExtension>
        </extensions>
      </trkpt>
      <trkpt lat="45.3066127002239227294921875" lon="-71.07734262943267822265625">
        <ele>832</ele>
        <time>2026-08-21T23:18:55.000Z</time>
        <extensions>
          <ns3:TrackPointExtension>
            <ns3:hr>128</ns3:hr>
            <ns3:cad>57</ns3:cad>
          </ns3:TrackPointExtension>
        </extensions>
      </trkpt>
      <trkpt lat="45.30660456977784633636474609375" lon="-71.077365763485431671142578125">
        <ele>831.79998779296875</ele>
        <time>2026-08-21T23:18:56.000Z</time>
        <extensions>
          <ns3:TrackPointExtension>
            <ns3:hr>127</ns3:hr>
            <ns3:cad>57</ns3:cad>
          </ns3:TrackPointExtension>
        </extensions>
      </trkpt>
      <trkpt lat="45.30659954063594341278076171875" lon="-71.0773830302059650421142578125">
        <ele>831.4000244140625</ele>
        <time>2026-08-21T23:18:57.000Z</time>
        <extensions>
          <ns3:TrackPointExtension>
            <ns3:hr>127</ns3:hr>
            <ns3:cad>57</ns3:cad>
          </ns3:TrackPointExtension>
        </extensions>
      </trkpt>
      <trkpt lat="45.30659467913210391998291015625" lon="-71.07740825973451137542724609375">
        <ele>831.20001220703125</ele>
        <time>2026-08-21T23:18:58.000Z</time>
        <extensions>
          <ns3:TrackPointExtension>
            <ns3:hr>127</ns3:hr>
            <ns3:cad>57</ns3:cad>
          </ns3:TrackPointExtension>
        </extensions>
      </trkpt>
      <trkpt lat="45.3065885603427886962890625" lon="-71.07743508182466030120849609375">
        <ele>830.5999755859375</ele>
        <time>2026-08-21T23:18:59.000Z</time>
        <extensions>
          <ns3:TrackPointExtension>
            <ns3:hr>127</ns3:hr>
            <ns3:cad>0</ns3:cad>
          </ns3:TrackPointExtension>
        </extensions>
      </trkpt>
      <trkpt lat="45.306589901447296142578125" lon="-71.0774678550660610198974609375">
        <ele>830.20001220703125</ele>
        <time>2026-08-21T23:19:00.000Z</time>
        <extensions>
          <ns3:TrackPointExtension>
            <ns3:hr>128</ns3:hr>
            <ns3:cad>0</ns3:cad>
          </ns3:TrackPointExtension>
        </extensions>
      </trkpt>
      <trkpt lat="45.3065883927047252655029296875" lon="-71.07749375514686107635498046875">
        <ele>829.79998779296875</ele>
        <time>2026-08-21T23:19:01.000Z</time>
        <extensions>
          <ns3:TrackPointExtension>
            <ns3:hr>128</ns3:hr>
            <ns3:cad>0</ns3:cad>
          </ns3:TrackPointExtension>
        </extensions>
      </trkpt>
      <trkpt lat="45.30659317038953304290771484375" lon="-71.07753105461597442626953125">
        <ele>829.4000244140625</ele>
        <time>2026-08-21T23:19:02.000Z</time>
        <extensions>
          <ns3:TrackPointExtension>
            <ns3:hr>129</ns3:hr>
            <ns3:cad>0</ns3:cad>
          </ns3:TrackPointExtension>
        </extensions>
      </trkpt>
      <trkpt lat="45.30660121701657772064208984375" lon="-71.07755561359226703643798828125">
        <ele>829.20001220703125</ele>
        <time>2026-08-21T23:19:03.000Z</time>
        <extensions>
          <ns3:TrackPointExtension>
            <ns3:hr>130</ns3:hr>
            <ns3:cad>0</ns3:cad>
          </ns3:TrackPointExtension>
        </extensions>
      </trkpt>
      <trkpt lat="45.3066061623394489288330078125" lon="-71.0775731317698955535888671875">
        <ele>829</ele>
        <time>2026-08-21T23:19:04.000Z</time>
        <extensions>
          <ns3:TrackPointExtension>
            <ns3:hr>130</ns3:hr>
            <ns3:cad>0</ns3:cad>
          </ns3:TrackPointExtension>
        </extensions>
      </trkpt>
      <trkpt lat="45.30660993419587612152099609375" lon="-71.077602468430995941162109375">
        <ele>829</ele>
        <time>2026-08-21T23:19:05.000Z</time>
        <extensions>
          <ns3:TrackPointExtension>
            <ns3:hr>130</ns3:hr>
            <ns3:cad>0</ns3:cad>
          </ns3:TrackPointExtension>
        </extensions>
      </trkpt>
      <trkpt lat="45.30661194585263729095458984375" lon="-71.0776224173605442047119140625">
        <ele>828.79998779296875</ele>
        <time>2026-08-21T23:19:06.000Z</time>
        <extensions>
          <ns3:TrackPointExtension>
            <ns3:hr>130</ns3:hr>
            <ns3:cad>0</ns3:cad>
          </ns3:TrackPointExtension>
        </extensions>
      </trkpt>
      <trkpt lat="45.3066115267574787139892578125" lon="-71.07764647342264652252197265625">
        <ele>828.5999755859375</ele>
        <time>2026-08-21T23:19:07.000Z</time>
        <extensions>
          <ns3:TrackPointExtension>
            <ns3:hr>130</ns3:hr>
            <ns3:cad>0</ns3:cad>
          </ns3:TrackPointExtension>
        </extensions>
      </trkpt>
      <trkpt lat="45.30661110766232013702392578125" lon="-71.07766776345670223236083984375">
        <ele>828.20001220703125</ele>
        <time>2026-08-21T23:19:08.000Z</time>
        <extensions>
          <ns3:TrackPointExtension>
            <ns3:hr>130</ns3:hr>
            <ns3:cad>0</ns3:cad>
          </ns3:TrackPointExtension>
        </extensions>
      </trkpt>
      <trkpt lat="45.30661202967166900634765625" lon="-71.0776914842426776885986328125">
        <ele>827.79998779296875</ele>
        <time>2026-08-21T23:19:09.000Z</time>
        <extensions>
          <ns3:TrackPointExtension>
            <ns3:hr>129</ns3:hr>
            <ns3:cad>0</ns3:cad>
          </ns3:TrackPointExtension>
        </extensions>
      </trkpt>
      <trkpt lat="45.30660926364362239837646484375" lon="-71.0777112655341625213623046875">
        <ele>827.4000244140625</ele>
        <time>2026-08-21T23:19:10.000Z</time>
        <extensions>
          <ns3:TrackPointExtension>
            <ns3:hr>129</ns3:hr>
            <ns3:cad>0</ns3:cad>
          </ns3:TrackPointExtension>
        </extensions>
      </trkpt>
      <trkpt lat="45.30660691671073436737060546875" lon="-71.07773163355886936187744140625">
        <ele>826.79998779296875</ele>
        <time>2026-08-21T23:19:11.000Z</time>
        <extensions>
          <ns3:TrackPointExtension>
            <ns3:hr>129</ns3:hr>
            <ns3:cad>0</ns3:cad>
          </ns3:TrackPointExtension>
        </extensions>
      </trkpt>
      <trkpt lat="45.3066061623394489288330078125" lon="-71.07775543816387653350830078125">
        <ele>826.4000244140625</ele>
        <time>2026-08-21T23:19:12.000Z</time>
        <extensions>
          <ns3:TrackPointExtension>
            <ns3:hr>129</ns3:hr>
            <ns3:cad>0</ns3:cad>
          </ns3:TrackPointExtension>
        </extensions>
      </trkpt>
      <trkpt lat="45.30660490505397319793701171875" lon="-71.07777086086571216583251953125">
        <ele>826</ele>
        <time>2026-08-21T23:19:13.000Z</time>
        <extensions>
          <ns3:TrackPointExtension>
            <ns3:hr>129</ns3:hr>
            <ns3:cad>0</ns3:cad>
          </ns3:TrackPointExtension>
        </extensions>
      </trkpt>
      <trkpt lat="45.30659769661724567413330078125" lon="-71.07780002988874912261962890625">
        <ele>825.5999755859375</ele>
        <time>2026-08-21T23:19:14.000Z</time>
        <extensions>
          <ns3:TrackPointExtension>
            <ns3:hr>128</ns3:hr>
            <ns3:cad>0</ns3:cad>
          </ns3:TrackPointExtension>
        </extensions>
      </trkpt>
      <trkpt lat="45.30659669078886508941650390625" lon="-71.0778214037418365478515625">
        <ele>825.4000244140625</ele>
        <time>2026-08-21T23:19:15.000Z</time>
        <extensions>
          <ns3:TrackPointExtension>
            <ns3:hr>128</ns3:hr>
            <ns3:cad>0</ns3:cad>
          </ns3:TrackPointExtension>
        </extensions>
      </trkpt>
      <trkpt lat="45.30659769661724567413330078125" lon="-71.0778453759849071502685546875">
        <ele>825.4000244140625</ele>
        <time>2026-08-21T23:19:16.000Z</time>
        <extensions>
          <ns3:TrackPointExtension>
            <ns3:hr>128</ns3:hr>
            <ns3:cad>0</ns3:cad>
          </ns3:TrackPointExtension>
        </extensions>
      </trkpt>
      <trkpt lat="45.30659803189337253570556640625" lon="-71.07786306180059909820556640625">
        <ele>825.20001220703125</ele>
        <time>2026-08-21T23:19:17.000Z</time>
        <extensions>
          <ns3:TrackPointExtension>
            <ns3:hr>127</ns3:hr>
            <ns3:cad>0</ns3:cad>
          </ns3:TrackPointExtension>
        </extensions>
      </trkpt>
      <trkpt lat="45.30659853480756282806396484375" lon="-71.0778830945491790771484375">
        <ele>825.20001220703125</ele>
        <time>2026-08-21T23:19:18.000Z</time>
        <extensions>
          <ns3:TrackPointExtension>
            <ns3:hr>126</ns3:hr>
            <ns3:cad>0</ns3:cad>
          </ns3:TrackPointExtension>
        </extensions>
      </trkpt>
      <trkpt lat="45.30659786425530910491943359375" lon="-71.0779050551354885101318359375">
        <ele>825</ele>
        <time>2026-08-21T23:19:19.000Z</time>
        <extensions>
          <ns3:TrackPointExtension>
            <ns3:hr>126</ns3:hr>
            <ns3:cad>0</ns3:cad>
          </ns3:TrackPointExtension>
        </extensions>
      </trkpt>
      <trkpt lat="45.30660138465464115142822265625" lon="-71.077924668788909912109375">
        <ele>824.79998779296875</ele>
        <time>2026-08-21T23:19:20.000Z</time>
        <extensions>
          <ns3:TrackPointExtension>
            <ns3:hr>126</ns3:hr>
            <ns3:cad>0</ns3:cad>
          </ns3:TrackPointExtension>
        </extensions>
      </trkpt>
      <trkpt lat="45.30660607852041721343994140625" lon="-71.07795174233615398406982421875">
        <ele>824.4000244140625</ele>
        <time>2026-08-21T23:19:21.000Z</time>
        <extensions>
          <ns3:TrackPointExtension>
            <ns3:hr>125</ns3:hr>
            <ns3:cad>0</ns3:cad>
          </ns3:TrackPointExtension>
        </extensions>
      </trkpt>
      <trkpt lat="45.30661094002425670623779296875" lon="-71.0779788158833980560302734375">
        <ele>824.20001220703125</ele>
        <time>2026-08-21T23:19:22.000Z</time>
        <extensions>
          <ns3:TrackPointExtension>
            <ns3:hr>124</ns3:hr>
            <ns3:cad>65</ns3:cad>
          </ns3:TrackPointExtension>
        </extensions>
      </trkpt>
      <trkpt lat="45.30661546625196933746337890625" lon="-71.078002788126468658447265625">
        <ele>824</ele>
        <time>2026-08-21T23:19:23.000Z</time>
        <extensions>
          <ns3:TrackPointExtension>
            <ns3:hr>124</ns3:hr>
            <ns3:cad>65</ns3:cad>
          </ns3:TrackPointExtension>
        </extensions>
      </trkpt>
      <trkpt lat="45.3066207468509674072265625" lon="-71.0780203901231288909912109375">
        <ele>823.79998779296875</ele>
        <time>2026-08-21T23:19:24.000Z</time>
        <extensions>
          <ns3:TrackPointExtension>
            <ns3:hr>122</ns3:hr>
            <ns3:cad>65</ns3:cad>
          </ns3:TrackPointExtension>
        </extensions>
      </trkpt>
      <trkpt lat="45.30662669800221920013427734375" lon="-71.0780413448810577392578125">
        <ele>823.79998779296875</ele>
        <time>2026-08-21T23:19:25.000Z</time>
        <extensions>
          <ns3:TrackPointExtension>
            <ns3:hr>122</ns3:hr>
            <ns3:cad>74</ns3:cad>
          </ns3:TrackPointExtension>
        </extensions>
      </trkpt>
      <trkpt lat="45.30663206242024898529052734375" lon="-71.07806858606636524200439453125">
        <ele>823.79998779296875</ele>
        <time>2026-08-21T23:19:26.000Z</time>
        <extensions>
          <ns3:TrackPointExtension>
            <ns3:hr>120</ns3:hr>
            <ns3:cad>74</ns3:cad>
          </ns3:TrackPointExtension>
        </extensions>
      </trkpt>
      <trkpt lat="45.30663524754345417022705078125" lon="-71.07809322886168956756591796875">
        <ele>823.5999755859375</ele>
        <time>2026-08-21T23:19:27.000Z</time>
        <extensions>
          <ns3:TrackPointExtension>
            <ns3:hr>120</ns3:hr>
            <ns3:cad>69</ns3:cad>
          </ns3:TrackPointExtension>
        </extensions>
      </trkpt>
      <trkpt lat="45.3066403605043888092041015625" lon="-71.0781169496476650238037109375">
        <ele>823.4000244140625</ele>
        <time>2026-08-21T23:19:28.000Z</time>
        <extensions>
          <ns3:TrackPointExtension>
            <ns3:hr>120</ns3:hr>
            <ns3:cad>69</ns3:cad>
          </ns3:TrackPointExtension>
        </extensions>
      </trkpt>
      <trkpt lat="45.3066470660269260406494140625" lon="-71.07814067043364048004150390625">
        <ele>823.20001220703125</ele>
        <time>2026-08-21T23:19:29.000Z</time>
        <extensions>
          <ns3:TrackPointExtension>
            <ns3:hr>120</ns3:hr>
            <ns3:cad>69</ns3:cad>
          </ns3:TrackPointExtension>
        </extensions>
      </trkpt>
      <trkpt lat="45.30664899386465549468994140625" lon="-71.0781593620777130126953125">
        <ele>823</ele>
        <time>2026-08-21T23:19:30.000Z</time>
        <extensions>
          <ns3:TrackPointExtension>
            <ns3:hr>121</ns3:hr>
            <ns3:cad>69</ns3:cad>
          </ns3:TrackPointExtension>
        </extensions>
      </trkpt>
      <trkpt lat="45.30665435828268527984619140625" lon="-71.0781813226640224456787109375">
        <ele>822.79998779296875</ele>
        <time>2026-08-21T23:19:31.000Z</time>
        <extensions>
          <ns3:TrackPointExtension>
            <ns3:hr>120</ns3:hr>
            <ns3:cad>69</ns3:cad>
          </ns3:TrackPointExtension>
        </extensions>
      </trkpt>
      <trkpt lat="45.30665117315948009490966796875" lon="-71.0782031156122684478759765625">
        <ele>822.5999755859375</ele>
        <time>2026-08-21T23:19:32.000Z</time>
        <extensions>
          <ns3:TrackPointExtension>
            <ns3:hr>120</ns3:hr>
            <ns3:cad>71</ns3:cad>
          </ns3:TrackPointExtension>
        </extensions>
      </trkpt>
      <trkpt lat="45.3066448867321014404296875" lon="-71.07822113670408725738525390625">
        <ele>822.5999755859375</ele>
        <time>2026-08-21T23:19:33.000Z</time>
        <extensions>
          <ns3:TrackPointExtension>
            <ns3:hr>121</ns3:hr>
            <ns3:cad>71</ns3:cad>
          </ns3:TrackPointExtension>
        </extensions>
      </trkpt>
      <trkpt lat="45.30663541518151760101318359375" lon="-71.07824452221393585205078125">
        <ele>822.5999755859375</ele>
        <time>2026-08-21T23:19:34.000Z</time>
        <extensions>
          <ns3:TrackPointExtension>
            <ns3:hr>121</ns3:hr>
            <ns3:cad>71</ns3:cad>
          </ns3:TrackPointExtension>
        </extensions>
      </trkpt>
      <trkpt lat="45.30662904493510723114013671875" lon="-71.0782681591808795928955078125">
        <ele>822.5999755859375</ele>
        <time>2026-08-21T23:19:35.000Z</time>
        <extensions>
          <ns3:TrackPointExtension>
            <ns3:hr>121</ns3:hr>
            <ns3:cad>71</ns3:cad>
          </ns3:TrackPointExtension>
        </extensions>
      </trkpt>
      <trkpt lat="45.30662150122225284576416015625" lon="-71.07828869484364986419677734375">
        <ele>822.4000244140625</ele>
        <time>2026-08-21T23:19:36.000Z</time>
        <extensions>
          <ns3:TrackPointExtension>
            <ns3:hr>120</ns3:hr>
            <ns3:cad>71</ns3:cad>
          </ns3:TrackPointExtension>
        </extensions>
      </trkpt>
      <trkpt lat="45.30661127530038356781005859375" lon="-71.0783100686967372894287109375">
        <ele>822.4000244140625</ele>
        <time>2026-08-21T23:19:37.000Z</time>
        <extensions>
          <ns3:TrackPointExtension>
            <ns3:hr>120</ns3:hr>
            <ns3:cad>71</ns3:cad>
          </ns3:TrackPointExtension>
        </extensions>
      </trkpt>
      <trkpt lat="45.30660054646432399749755859375" lon="-71.07832322828471660614013671875">
        <ele>822.20001220703125</ele>
        <time>2026-08-21T23:19:38.000Z</time>
        <extensions>
          <ns3:TrackPointExtension>
            <ns3:hr>121</ns3:hr>
            <ns3:cad>71</ns3:cad>
          </ns3:TrackPointExtension>
        </extensions>
      </trkpt>
      <trkpt lat="45.3065880574285984039306640625" lon="-71.0783466137945652008056640625">
        <ele>822.20001220703125</ele>
        <time>2026-08-21T23:19:39.000Z</time>
        <extensions>
          <ns3:TrackPointExtension>
            <ns3:hr>121</ns3:hr>
            <ns3:cad>71</ns3:cad>
          </ns3:TrackPointExtension>
        </extensions>
      </trkpt>
      <trkpt lat="45.3065733052790164947509765625" lon="-71.07836681418120861053466796875">
        <ele>822.20001220703125</ele>
        <time>2026-08-21T23:19:40.000Z</time>
        <extensions>
          <ns3:TrackPointExtension>
            <ns3:hr>121</ns3:hr>
            <ns3:cad>71</ns3:cad>
          </ns3:TrackPointExtension>
        </extensions>
      </trkpt>
      <trkpt lat="45.30656232498586177825927734375" lon="-71.07838273979723453521728515625">
        <ele>822</ele>
        <time>2026-08-21T23:19:41.000Z</time>
        <extensions>
          <ns3:TrackPointExtension>
            <ns3:hr>121</ns3:hr>
            <ns3:cad>71</ns3:cad>
          </ns3:TrackPointExtension>
        </extensions>
      </trkpt>
      <trkpt lat="45.30654958449304103851318359375" lon="-71.07840419746935367584228515625">
        <ele>822</ele>
        <time>2026-08-21T23:19:42.000Z</time>
        <extensions>
          <ns3:TrackPointExtension>
            <ns3:hr>122</ns3:hr>
            <ns3:cad>71</ns3:cad>
          </ns3:TrackPointExtension>
        </extensions>
      </trkpt>
      <trkpt lat="45.30654204078018665313720703125" lon="-71.07842129655182361602783203125">
        <ele>822</ele>
        <time>2026-08-21T23:19:43.000Z</time>
        <extensions>
          <ns3:TrackPointExtension>
            <ns3:hr>122</ns3:hr>
            <ns3:cad>71</ns3:cad>
          </ns3:TrackPointExtension>
        </extensions>
      </trkpt>
      <trkpt lat="45.306530557572841644287109375" lon="-71.0784368030726909637451171875">
        <ele>822</ele>
        <time>2026-08-21T23:19:44.000Z</time>
        <extensions>
          <ns3:TrackPointExtension>
            <ns3:hr>122</ns3:hr>
            <ns3:cad>70</ns3:cad>
          </ns3:TrackPointExtension>
        </extensions>
      </trkpt>
      <trkpt lat="45.306517817080020904541015625" lon="-71.078455746173858642578125">
        <ele>822</ele>
        <time>2026-08-21T23:19:45.000Z</time>
        <extensions>
          <ns3:TrackPointExtension>
            <ns3:hr>122</ns3:hr>
            <ns3:cad>70</ns3:cad>
          </ns3:TrackPointExtension>
        </extensions>
      </trkpt>
      <trkpt lat="45.3065126203000545501708984375" lon="-71.07847359962761402130126953125">
        <ele>822</ele>
        <time>2026-08-21T23:19:46.000Z</time>
        <extensions>
          <ns3:TrackPointExtension>
            <ns3:hr>122</ns3:hr>
            <ns3:cad>70</ns3:cad>
          </ns3:TrackPointExtension>
        </extensions>
      </trkpt>
      <trkpt lat="45.306501053273677825927734375" lon="-71.07849405147135257720947265625">
        <ele>822</ele>
        <time>2026-08-21T23:19:47.000Z</time>
        <extensions>
          <ns3:TrackPointExtension>
            <ns3:hr>123</ns3:hr>
            <ns3:cad>70</ns3:cad>
          </ns3:TrackPointExtension>
        </extensions>
      </trkpt>
      <trkpt lat="45.30648730695247650146484375" lon="-71.0785139165818691253662109375">
        <ele>822</ele>
        <time>2026-08-21T23:19:48.000Z</time>
        <extensions>
          <ns3:TrackPointExtension>
            <ns3:hr>123</ns3:hr>
            <ns3:cad>70</ns3:cad>
          </ns3:TrackPointExtension>
        </extensions>
      </trkpt>
      <trkpt lat="45.30647766776382923126220703125" lon="-71.0785336978733539581298828125">
        <ele>822</ele>
        <time>2026-08-21T23:19:49.000Z</time>
        <extensions>
          <ns3:TrackPointExtension>
            <ns3:hr>123</ns3:hr>
            <ns3:cad>0</ns3:cad>
          </ns3:TrackPointExtension>
        </extensions>
      </trkpt>
      <trkpt lat="45.30646828003227710723876953125" lon="-71.07856328599154949188232421875">
        <ele>822</ele>
        <time>2026-08-21T23:19:50.000Z</time>
        <extensions>
          <ns3:TrackPointExtension>
            <ns3:hr>124</ns3:hr>
            <ns3:cad>0</ns3:cad>
          </ns3:TrackPointExtension>
        </extensions>
      </trkpt>
      <trkpt lat="45.3064650110900402069091796875" lon="-71.0785849951207637786865234375">
        <ele>822</ele>
        <time>2026-08-21T23:19:51.000Z</time>
        <extensions>
          <ns3:TrackPointExtension>
            <ns3:hr>124</ns3:hr>
            <ns3:cad>70</ns3:cad>
          </ns3:TrackPointExtension>
        </extensions>
      </trkpt>
      <trkpt lat="45.30646107159554958343505859375" lon="-71.07860972173511981964111328125">
        <ele>822</ele>
        <time>2026-08-21T23:19:52.000Z</time>
        <extensions>
          <ns3:TrackPointExtension>
            <ns3:hr>124</ns3:hr>
            <ns3:cad>70</ns3:cad>
          </ns3:TrackPointExtension>
        </extensions>
      </trkpt>
      <trkpt lat="45.30646274797618389129638671875" lon="-71.078634448349475860595703125">
        <ele>822.20001220703125</ele>
        <time>2026-08-21T23:19:53.000Z</time>
        <extensions>
          <ns3:TrackPointExtension>
            <ns3:hr>123</ns3:hr>
            <ns3:cad>70</ns3:cad>
          </ns3:TrackPointExtension>
        </extensions>
      </trkpt>
      <trkpt lat="45.306465514004230499267578125" lon="-71.0786611028015613555908203125">
        <ele>822.20001220703125</ele>
        <time>2026-08-21T23:19:54.000Z</time>
        <extensions>
          <ns3:TrackPointExtension>
            <ns3:hr>124</ns3:hr>
            <ns3:cad>70</ns3:cad>
          </ns3:TrackPointExtension>
        </extensions>
      </trkpt>
      <trkpt lat="45.30646828003227710723876953125" lon="-71.07868708670139312744140625">
        <ele>822.20001220703125</ele>
        <time>2026-08-21T23:19:55.000Z</time>
        <extensions>
          <ns3:TrackPointExtension>
            <ns3:hr>124</ns3:hr>
            <ns3:cad>70</ns3:cad>
          </ns3:TrackPointExtension>
        </extensions>
      </trkpt>
      <trkpt lat="45.30647146515548229217529296875" lon="-71.07870141975581645965576171875">
        <ele>822.20001220703125</ele>
        <time>2026-08-21T23:19:56.000Z</time>
        <extensions>
          <ns3:TrackPointExtension>
            <ns3:hr>123</ns3:hr>
            <ns3:cad>70</ns3:cad>
          </ns3:TrackPointExtension>
        </extensions>
      </trkpt>
      <trkpt lat="45.3064747340977191925048828125" lon="-71.07872053049504756927490234375">
        <ele>822.20001220703125</ele>
        <time>2026-08-21T23:19:57.000Z</time>
        <extensions>
          <ns3:TrackPointExtension>
            <ns3:hr>124</ns3:hr>
            <ns3:cad>70</ns3:cad>
          </ns3:TrackPointExtension>
        </extensions>
      </trkpt>
      <trkpt lat="45.3064800985157489776611328125" lon="-71.07874886132776737213134765625">
        <ele>822.4000244140625</ele>
        <time>2026-08-21T23:19:58.000Z</time>
        <extensions>
          <ns3:TrackPointExtension>
            <ns3:hr>124</ns3:hr>
            <ns3:cad>70</ns3:cad>
          </ns3:TrackPointExtension>
        </extensions>
      </trkpt>
      <trkpt lat="45.3064893186092376708984375" lon="-71.078765206038951873779296875">
        <ele>822.4000244140625</ele>
        <time>2026-08-21T23:19:59.000Z</time>
        <extensions>
          <ns3:TrackPointExtension>
            <ns3:hr>123</ns3:hr>
            <ns3:cad>70</ns3:cad>
          </ns3:TrackPointExtension>
        </extensions>
      </trkpt>
      <trkpt lat="45.3065000474452972412109375" lon="-71.07877920381724834442138671875">
        <ele>822.4000244140625</ele>
        <time>2026-08-21T23:20:00.000Z</time>
        <extensions>
          <ns3:TrackPointExtension>
            <ns3:hr>123</ns3:hr>
            <ns3:cad>0</ns3:cad>
          </ns3:TrackPointExtension>
        </extensions>
      </trkpt>
      <trkpt lat="45.3065126203000545501708984375" lon="-71.07879127375781536102294921875">
        <ele>822.4000244140625</ele>
        <time>2026-08-21T23:20:01.000Z</time>
        <extensions>
          <ns3:TrackPointExtension>
            <ns3:hr>123</ns3:hr>
            <ns3:cad>0</ns3:cad>
          </ns3:TrackPointExtension>
        </extensions>
      </trkpt>
      <trkpt lat="45.30652410350739955902099609375" lon="-71.07879999093711376190185546875">
        <ele>822.4000244140625</ele>
        <time>2026-08-21T23:20:02.000Z</time>
        <extensions>
          <ns3:TrackPointExtension>
            <ns3:hr>123</ns3:hr>
            <ns3:cad>0</ns3:cad>
          </ns3:TrackPointExtension>
        </extensions>
      </trkpt>
      <trkpt lat="45.3065335750579833984375" lon="-71.0788072831928730010986328125">
        <ele>822.20001220703125</ele>
        <time>2026-08-21T23:20:03.000Z</time>
        <extensions>
          <ns3:TrackPointExtension>
            <ns3:hr>123</ns3:hr>
            <ns3:cad>0</ns3:cad>
          </ns3:TrackPointExtension>
        </extensions>
      </trkpt>
      <trkpt lat="45.3065350838005542755126953125" lon="-71.078809462487697601318359375">
        <ele>822.20001220703125</ele>
        <time>2026-08-21T23:20:04.000Z</time>
        <extensions>
          <ns3:TrackPointExtension>
            <ns3:hr>123</ns3:hr>
            <ns3:cad>0</ns3:cad>
          </ns3:TrackPointExtension>
        </extensions>
      </trkpt>
      <trkpt lat="45.30654254369437694549560546875" lon="-71.07882496900856494903564453125">
        <ele>821.79998779296875</ele>
        <time>2026-08-21T23:20:05.000Z</time>
        <extensions>
          <ns3:TrackPointExtension>
            <ns3:hr>122</ns3:hr>
            <ns3:cad>0</ns3:cad>
          </ns3:TrackPointExtension>
        </extensions>
      </trkpt>
      <trkpt lat="45.30655042268335819244384765625" lon="-71.07883871532976627349853515625">
        <ele>821.5999755859375</ele>
        <time>2026-08-21T23:20:06.000Z</time>
        <extensions>
          <ns3:TrackPointExtension>
            <ns3:hr>122</ns3:hr>
            <ns3:cad>0</ns3:cad>
          </ns3:TrackPointExtension>
        </extensions>
      </trkpt>
      <trkpt lat="45.30655696056783199310302734375" lon="-71.07885933481156826019287109375">
        <ele>821</ele>
        <time>2026-08-21T23:20:07.000Z</time>
        <extensions>
          <ns3:TrackPointExtension>
            <ns3:hr>121</ns3:hr>
            <ns3:cad>0</ns3:cad>
          </ns3:TrackPointExtension>
        </extensions>
      </trkpt>
      <trkpt lat="45.30656718648970127105712890625" lon="-71.078890599310398101806640625">
        <ele>820.5999755859375</ele>
        <time>2026-08-21T23:20:08.000Z</time>
        <extensions>
          <ns3:TrackPointExtension>
            <ns3:hr>121</ns3:hr>
            <ns3:cad>0</ns3:cad>
          </ns3:TrackPointExtension>
        </extensions>
      </trkpt>
      <trkpt lat="45.30657104216516017913818359375" lon="-71.07890945859253406524658203125">
        <ele>820.20001220703125</ele>
        <time>2026-08-21T23:20:09.000Z</time>
        <extensions>
          <ns3:TrackPointExtension>
            <ns3:hr>122</ns3:hr>
            <ns3:cad>0</ns3:cad>
          </ns3:TrackPointExtension>
        </extensions>
      </trkpt>
      <trkpt lat="45.3065778315067291259765625" lon="-71.0789283178746700286865234375">
        <ele>819.79998779296875</ele>
        <time>2026-08-21T23:20:10.000Z</time>
        <extensions>
          <ns3:TrackPointExtension>
            <ns3:hr>122</ns3:hr>
            <ns3:cad>0</ns3:cad>
          </ns3:TrackPointExtension>
        </extensions>
      </trkpt>
      <trkpt lat="45.306584201753139495849609375" lon="-71.07894751243293285369873046875">
        <ele>819.5999755859375</ele>
        <time>2026-08-21T23:20:11.000Z</time>
        <extensions>
          <ns3:TrackPointExtension>
            <ns3:hr>123</ns3:hr>
            <ns3:cad>0</ns3:cad>
          </ns3:TrackPointExtension>
        </extensions>
      </trkpt>
      <trkpt lat="45.30659191310405731201171875" lon="-71.078962348401546478271484375">
        <ele>819.5999755859375</ele>
        <time>2026-08-21T23:20:12.000Z</time>
        <extensions>
          <ns3:TrackPointExtension>
            <ns3:hr>124</ns3:hr>
            <ns3:cad>0</ns3:cad>
          </ns3:TrackPointExtension>
        </extensions>
      </trkpt>
      <trkpt lat="45.30659652315080165863037109375" lon="-71.07897785492241382598876953125">
        <ele>819.5999755859375</ele>
        <time>2026-08-21T23:20:13.000Z</time>
        <extensions>
          <ns3:TrackPointExtension>
            <ns3:hr>124</ns3:hr>
            <ns3:cad>0</ns3:cad>
          </ns3:TrackPointExtension>
        </extensions>
      </trkpt>
      <trkpt lat="45.306604988873004913330078125" lon="-71.07900199480354785919189453125">
        <ele>819.4000244140625</ele>
        <time>2026-08-21T23:20:14.000Z</time>
        <extensions>
          <ns3:TrackPointExtension>
            <ns3:hr>125</ns3:hr>
            <ns3:cad>0</ns3:cad>
          </ns3:TrackPointExtension>
        </extensions>
      </trkpt>
      <trkpt lat="45.3066162206232547760009765625" lon="-71.07901590876281261444091796875">
        <ele>819.20001220703125</ele>
        <time>2026-08-21T23:20:15.000Z</time>
        <extensions>
          <ns3:TrackPointExtension>
            <ns3:hr>125</ns3:hr>
            <ns3:cad>0</ns3:cad>
          </ns3:TrackPointExtension>
        </extensions>
      </trkpt>
      <trkpt lat="45.3066269494593143463134765625" lon="-71.0790335945785045623779296875">
        <ele>819</ele>
        <time>2026-08-21T23:20:16.000Z</time>
        <extensions>
          <ns3:TrackPointExtension>
            <ns3:hr>125</ns3:hr>
            <ns3:cad>0</ns3:cad>
          </ns3:TrackPointExtension>
        </extensions>
      </trkpt>
      <trkpt lat="45.30662485398352146148681640625" lon="-71.07905513606965541839599609375">
        <ele>818.79998779296875</ele>
        <time>2026-08-21T23:20:17.000Z</time>
        <extensions>
          <ns3:TrackPointExtension>
            <ns3:hr>125</ns3:hr>
            <ns3:cad>0</ns3:cad>
          </ns3:TrackPointExtension>
        </extensions>
      </trkpt>
      <trkpt lat="45.3066306374967098236083984375" lon="-71.07906821183860301971435546875">
        <ele>818.5999755859375</ele>
        <time>2026-08-21T23:20:18.000Z</time>
        <extensions>
          <ns3:TrackPointExtension>
            <ns3:hr>125</ns3:hr>
            <ns3:cad>0</ns3:cad>
          </ns3:TrackPointExtension>
        </extensions>
      </trkpt>
      <trkpt lat="45.306639187037944793701171875" lon="-71.0790798626840114593505859375">
        <ele>818.4000244140625</ele>
        <time>2026-08-21T23:20:19.000Z</time>
        <extensions>
          <ns3:TrackPointExtension>
            <ns3:hr>125</ns3:hr>
            <ns3:cad>0</ns3:cad>
          </ns3:TrackPointExtension>
        </extensions>
      </trkpt>
      <trkpt lat="45.3066480718553066253662109375" lon="-71.07908614911139011383056640625">
        <ele>818.4000244140625</ele>
        <time>2026-08-21T23:20:20.000Z</time>
        <extensions>
          <ns3:TrackPointExtension>
            <ns3:hr>125</ns3:hr>
            <ns3:cad>0</ns3:cad>
          </ns3:TrackPointExtension>
        </extensions>
      </trkpt>
      <trkpt lat="45.306658633053302764892578125" lon="-71.07910090126097202301025390625">
        <ele>818</ele>
        <time>2026-08-21T23:20:21.000Z</time>
        <extensions>
          <ns3:TrackPointExtension>
            <ns3:hr>124</ns3:hr>
            <ns3:cad>0</ns3:cad>
          </ns3:TrackPointExtension>
        </extensions>
      </trkpt>
      <trkpt lat="45.30667095445096492767333984375" lon="-71.079113222658634185791015625">
        <ele>817.79998779296875</ele>
        <time>2026-08-21T23:20:22.000Z</time>
        <extensions>
          <ns3:TrackPointExtension>
            <ns3:hr>124</ns3:hr>
            <ns3:cad>0</ns3:cad>
          </ns3:TrackPointExtension>
        </extensions>
      </trkpt>
      <trkpt lat="45.30667246319353580474853515625" lon="-71.07912453822791576385498046875">
        <ele>817.4000244140625</ele>
        <time>2026-08-21T23:20:23.000Z</time>
        <extensions>
          <ns3:TrackPointExtension>
            <ns3:hr>124</ns3:hr>
            <ns3:cad>0</ns3:cad>
          </ns3:TrackPointExtension>
        </extensions>
      </trkpt>
      <trkpt lat="45.30667330138385295867919921875" lon="-71.0791490972042083740234375">
        <ele>817.20001220703125</ele>
        <time>2026-08-21T23:20:24.000Z</time>
        <extensions>
          <ns3:TrackPointExtension>
            <ns3:hr>124</ns3:hr>
            <ns3:cad>0</ns3:cad>
          </ns3:TrackPointExtension>
        </extensions>
      </trkpt>
      <trkpt lat="45.3066792525351047515869140625" lon="-71.07916393317282199859619140625">
        <ele>816.79998779296875</ele>
        <time>2026-08-21T23:20:25.000Z</time>
        <extensions>
          <ns3:TrackPointExtension>
            <ns3:hr>124</ns3:hr>
            <ns3:cad>0</ns3:cad>
          </ns3:TrackPointExtension>
        </extensions>
      </trkpt>
      <trkpt lat="45.306690149009227752685546875" lon="-71.079176925122737884521484375">
        <ele>816.5999755859375</ele>
        <time>2026-08-21T23:20:26.000Z</time>
        <extensions>
          <ns3:TrackPointExtension>
            <ns3:hr>124</ns3:hr>
            <ns3:cad>0</ns3:cad>
          </ns3:TrackPointExtension>
        </extensions>
      </trkpt>
      <trkpt lat="45.30669626779854297637939453125" lon="-71.07919075526297092437744140625">
        <ele>816.20001220703125</ele>
        <time>2026-08-21T23:20:27.000Z</time>
        <extensions>
          <ns3:TrackPointExtension>
            <ns3:hr>123</ns3:hr>
            <ns3:cad>0</ns3:cad>
          </ns3:TrackPointExtension>
        </extensions>
      </trkpt>
      <trkpt lat="45.30670464970171451568603515625" lon="-71.07920533977448940277099609375">
        <ele>815.79998779296875</ele>
        <time>2026-08-21T23:20:28.000Z</time>
        <extensions>
          <ns3:TrackPointExtension>
            <ns3:hr>123</ns3:hr>
            <ns3:cad>0</ns3:cad>
          </ns3:TrackPointExtension>
        </extensions>
      </trkpt>
      <trkpt lat="45.30671236105263233184814453125" lon="-71.07922562398016452789306640625">
        <ele>815.20001220703125</ele>
        <time>2026-08-21T23:20:29.000Z</time>
        <extensions>
          <ns3:TrackPointExtension>
            <ns3:hr>123</ns3:hr>
            <ns3:cad>0</ns3:cad>
          </ns3:TrackPointExtension>
        </extensions>
      </trkpt>
      <trkpt lat="45.30672132968902587890625" lon="-71.07925093732774257659912109375">
        <ele>814.5999755859375</ele>
        <time>2026-08-21T23:20:30.000Z</time>
        <extensions>
          <ns3:TrackPointExtension>
            <ns3:hr>122</ns3:hr>
            <ns3:cad>0</ns3:cad>
          </ns3:TrackPointExtension>
        </extensions>
      </trkpt>
      <trkpt lat="45.3067278675734996795654296875" lon="-71.07926216907799243927001953125">
        <ele>814.20001220703125</ele>
        <time>2026-08-21T23:20:31.000Z</time>
        <extensions>
          <ns3:TrackPointExtension>
            <ns3:hr>122</ns3:hr>
            <ns3:cad>0</ns3:cad>
          </ns3:TrackPointExtension>
        </extensions>
      </trkpt>
      <trkpt lat="45.30674153007566928863525390625" lon="-71.07927859760820865631103515625">
        <ele>813.79998779296875</ele>
        <time>2026-08-21T23:20:32.000Z</time>
        <extensions>
          <ns3:TrackPointExtension>
            <ns3:hr>122</ns3:hr>
            <ns3:cad>0</ns3:cad>
          </ns3:TrackPointExtension>
        </extensions>
      </trkpt>
      <trkpt lat="45.3067503310739994049072265625" lon="-71.07928387820720672607421875">
        <ele>813.5999755859375</ele>
        <time>2026-08-21T23:20:33.000Z</time>
        <extensions>
          <ns3:TrackPointExtension>
            <ns3:hr>122</ns3:hr>
            <ns3:cad>0</ns3:cad>
          </ns3:TrackPointExtension>
        </extensions>
      </trkpt>
      <trkpt lat="45.30675661750137805938720703125" lon="-71.07929133810102939605712890625">
        <ele>813.20001220703125</ele>
        <time>2026-08-21T23:20:34.000Z</time>
        <extensions>
          <ns3:TrackPointExtension>
            <ns3:hr>122</ns3:hr>
            <ns3:cad>0</ns3:cad>
          </ns3:TrackPointExtension>
        </extensions>
      </trkpt>
      <trkpt lat="45.306759215891361236572265625" lon="-71.079298965632915496826171875">
        <ele>812.79998779296875</ele>
        <time>2026-08-21T23:20:35.000Z</time>
        <extensions>
          <ns3:TrackPointExtension>
            <ns3:hr>122</ns3:hr>
            <ns3:cad>0</ns3:cad>
          </ns3:TrackPointExtension>
        </extensions>
      </trkpt>
      <trkpt lat="45.306763909757137298583984375" lon="-71.0793172381818294525146484375">
        <ele>812.4000244140625</ele>
        <time>2026-08-21T23:20:36.000Z</time>
        <extensions>
          <ns3:TrackPointExtension>
            <ns3:hr>122</ns3:hr>
            <ns3:cad>79</ns3:cad>
          </ns3:TrackPointExtension>
        </extensions>
      </trkpt>
      <trkpt lat="45.306766591966152191162109375" lon="-71.079331822693347930908203125">
        <ele>811.79998779296875</ele>
        <time>2026-08-21T23:20:37.000Z</time>
        <extensions>
          <ns3:TrackPointExtension>
            <ns3:hr>122</ns3:hr>
            <ns3:cad>79</ns3:cad>
          </ns3:TrackPointExtension>
        </extensions>
      </trkpt>
      <trkpt lat="45.30676868744194507598876953125" lon="-71.079349927604198455810546875">
        <ele>811.20001220703125</ele>
        <time>2026-08-21T23:20:38.000Z</time>
        <extensions>
          <ns3:TrackPointExtension>
            <ns3:hr>123</ns3:hr>
            <ns3:cad>79</ns3:cad>
          </ns3:TrackPointExtension>
        </extensions>
      </trkpt>
      <trkpt lat="45.3067707829177379608154296875" lon="-71.07936677522957324981689453125">
        <ele>810.5999755859375</ele>
        <time>2026-08-21T23:20:39.000Z</time>
        <extensions>
          <ns3:TrackPointExtension>
            <ns3:hr>123</ns3:hr>
            <ns3:cad>79</ns3:cad>
          </ns3:TrackPointExtension>
        </extensions>
      </trkpt>
      <trkpt lat="45.30677489005029201507568359375" lon="-71.0793852992355823516845703125">
        <ele>810</ele>
        <time>2026-08-21T23:20:40.000Z</time>
        <extensions>
          <ns3:TrackPointExtension>
            <ns3:hr>123</ns3:hr>
            <ns3:cad>79</ns3:cad>
          </ns3:TrackPointExtension>
        </extensions>
      </trkpt>
      <trkpt lat="45.3067816793918609619140625" lon="-71.07940189540386199951171875">
        <ele>809.20001220703125</ele>
        <time>2026-08-21T23:20:41.000Z</time>
        <extensions>
          <ns3:TrackPointExtension>
            <ns3:hr>123</ns3:hr>
            <ns3:cad>41</ns3:cad>
          </ns3:TrackPointExtension>
        </extensions>
      </trkpt>
      <trkpt lat="45.30678830109536647796630859375" lon="-71.07942209579050540924072265625">
        <ele>808.5999755859375</ele>
        <time>2026-08-21T23:20:42.000Z</time>
        <extensions>
          <ns3:TrackPointExtension>
            <ns3:hr>124</ns3:hr>
            <ns3:cad>41</ns3:cad>
          </ns3:TrackPointExtension>
        </extensions>
      </trkpt>
      <trkpt lat="45.30679265968501567840576171875" lon="-71.07944011688232421875">
        <ele>808</ele>
        <time>2026-08-21T23:20:43.000Z</time>
        <extensions>
          <ns3:TrackPointExtension>
            <ns3:hr>123</ns3:hr>
            <ns3:cad>43</ns3:cad>
          </ns3:TrackPointExtension>
        </extensions>
      </trkpt>
      <trkpt lat="45.306804142892360687255859375" lon="-71.07946953736245632171630859375">
        <ele>807.5999755859375</ele>
        <time>2026-08-21T23:20:44.000Z</time>
        <extensions>
          <ns3:TrackPointExtension>
            <ns3:hr>124</ns3:hr>
            <ns3:cad>43</ns3:cad>
          </ns3:TrackPointExtension>
        </extensions>
      </trkpt>
      <trkpt lat="45.30681294389069080352783203125" lon="-71.07948236167430877685546875">
        <ele>807</ele>
        <time>2026-08-21T23:20:45.000Z</time>
        <extensions>
          <ns3:TrackPointExtension>
            <ns3:hr>123</ns3:hr>
            <ns3:cad>43</ns3:cad>
          </ns3:TrackPointExtension>
        </extensions>
      </trkpt>
      <trkpt lat="45.306823588907718658447265625" lon="-71.07949837110936641693115234375">
        <ele>806.5999755859375</ele>
        <time>2026-08-21T23:20:46.000Z</time>
        <extensions>
          <ns3:TrackPointExtension>
            <ns3:hr>123</ns3:hr>
            <ns3:cad>43</ns3:cad>
          </ns3:TrackPointExtension>
        </extensions>
      </trkpt>
      <trkpt lat="45.30683356337249279022216796875" lon="-71.07951186597347259521484375">
        <ele>806.4000244140625</ele>
        <time>2026-08-21T23:20:47.000Z</time>
        <extensions>
          <ns3:TrackPointExtension>
            <ns3:hr>124</ns3:hr>
            <ns3:cad>43</ns3:cad>
          </ns3:TrackPointExtension>
        </extensions>
      </trkpt>
      <trkpt lat="45.30684680677950382232666015625" lon="-71.0795217566192150115966796875">
        <ele>806.20001220703125</ele>
        <time>2026-08-21T23:20:48.000Z</time>
        <extensions>
          <ns3:TrackPointExtension>
            <ns3:hr>124</ns3:hr>
            <ns3:cad>43</ns3:cad>
          </ns3:TrackPointExtension>
        </extensions>
      </trkpt>
      <trkpt lat="45.3068514168262481689453125" lon="-71.07953525148332118988037109375">
        <ele>806</ele>
        <time>2026-08-21T23:20:49.000Z</time>
        <extensions>
          <ns3:TrackPointExtension>
            <ns3:hr>124</ns3:hr>
            <ns3:cad>43</ns3:cad>
          </ns3:TrackPointExtension>
        </extensions>
      </trkpt>
      <trkpt lat="45.30685837380588054656982421875" lon="-71.079552434384822845458984375">
        <ele>805.79998779296875</ele>
        <time>2026-08-21T23:20:50.000Z</time>
        <extensions>
          <ns3:TrackPointExtension>
            <ns3:hr>123</ns3:hr>
            <ns3:cad>43</ns3:cad>
          </ns3:TrackPointExtension>
        </extensions>
      </trkpt>
      <trkpt lat="45.30686457641422748565673828125" lon="-71.0795683600008487701416015625">
        <ele>805.5999755859375</ele>
        <time>2026-08-21T23:20:51.000Z</time>
        <extensions>
          <ns3:TrackPointExtension>
            <ns3:hr>124</ns3:hr>
            <ns3:cad>72</ns3:cad>
          </ns3:TrackPointExtension>
        </extensions>
      </trkpt>
      <trkpt lat="45.306873209774494171142578125" lon="-71.07958604581654071807861328125">
        <ele>805.4000244140625</ele>
        <time>2026-08-21T23:20:52.000Z</time>
        <extensions>
          <ns3:TrackPointExtension>
            <ns3:hr>123</ns3:hr>
            <ns3:cad>72</ns3:cad>
          </ns3:TrackPointExtension>
        </extensions>
      </trkpt>
      <trkpt lat="45.30688486061990261077880859375" lon="-71.079611442983150482177734375">
        <ele>805.20001220703125</ele>
        <time>2026-08-21T23:20:53.000Z</time>
        <extensions>
          <ns3:TrackPointExtension>
            <ns3:hr>123</ns3:hr>
            <ns3:cad>72</ns3:cad>
          </ns3:TrackPointExtension>
        </extensions>
      </trkpt>
      <trkpt lat="45.30689743347465991973876953125" lon="-71.0796300508081912994384765625">
        <ele>805</ele>
        <time>2026-08-21T23:20:54.000Z</time>
        <extensions>
          <ns3:TrackPointExtension>
            <ns3:hr>123</ns3:hr>
            <ns3:cad>72</ns3:cad>
          </ns3:TrackPointExtension>
        </extensions>
      </trkpt>
      <trkpt lat="45.30691285617649555206298828125" lon="-71.07965393923223018646240234375">
        <ele>804.79998779296875</ele>
        <time>2026-08-21T23:20:55.000Z</time>
        <extensions>
          <ns3:TrackPointExtension>
            <ns3:hr>123</ns3:hr>
            <ns3:cad>0</ns3:cad>
          </ns3:TrackPointExtension>
        </extensions>
      </trkpt>
      <trkpt lat="45.30691956169903278350830078125" lon="-71.0796801745891571044921875">
        <ele>804.79998779296875</ele>
        <time>2026-08-21T23:20:56.000Z</time>
        <extensions>
          <ns3:TrackPointExtension>
            <ns3:hr>124</ns3:hr>
            <ns3:cad>0</ns3:cad>
          </ns3:TrackPointExtension>
        </extensions>
      </trkpt>
      <trkpt lat="45.3069250099360942840576171875" lon="-71.0797024704515933990478515625">
        <ele>804.5999755859375</ele>
        <time>2026-08-21T23:20:57.000Z</time>
        <extensions>
          <ns3:TrackPointExtension>
            <ns3:hr>123</ns3:hr>
            <ns3:cad>0</ns3:cad>
          </ns3:TrackPointExtension>
        </extensions>
      </trkpt>
      <trkpt lat="45.306937582790851593017578125" lon="-71.0797296278178691864013671875">
        <ele>804.5999755859375</ele>
        <time>2026-08-21T23:20:58.000Z</time>
        <extensions>
          <ns3:TrackPointExtension>
            <ns3:hr>123</ns3:hr>
            <ns3:cad>75</ns3:cad>
          </ns3:TrackPointExtension>
        </extensions>
      </trkpt>
      <trkpt lat="45.3069528378546237945556640625" lon="-71.07975301332771778106689453125">
        <ele>804.5999755859375</ele>
        <time>2026-08-21T23:20:59.000Z</time>
        <extensions>
          <ns3:TrackPointExtension>
            <ns3:hr>123</ns3:hr>
            <ns3:cad>75</ns3:cad>
          </ns3:TrackPointExtension>
        </extensions>
      </trkpt>
      <trkpt lat="45.30697278678417205810546875" lon="-71.07976935803890228271484375">
        <ele>804.5999755859375</ele>
        <time>2026-08-21T23:21:00.000Z</time>
        <extensions>
          <ns3:TrackPointExtension>
            <ns3:hr>123</ns3:hr>
            <ns3:cad>76</ns3:cad>
          </ns3:TrackPointExtension>
        </extensions>
      </trkpt>
      <trkpt lat="45.3069855272769927978515625" lon="-71.079780422151088714599609375">
        <ele>804.5999755859375</ele>
        <time>2026-08-21T23:21:01.000Z</time>
        <extensions>
          <ns3:TrackPointExtension>
            <ns3:hr>123</ns3:hr>
            <ns3:cad>76</ns3:cad>
          </ns3:TrackPointExtension>
        </extensions>
      </trkpt>
      <trkpt lat="45.30699851922690868377685546875" lon="-71.079798527061939239501953125">
        <ele>804.5999755859375</ele>
        <time>2026-08-21T23:21:02.000Z</time>
        <extensions>
          <ns3:TrackPointExtension>
            <ns3:hr>122</ns3:hr>
            <ns3:cad>73</ns3:cad>
          </ns3:TrackPointExtension>
        </extensions>
      </trkpt>
      <trkpt lat="45.3070048056542873382568359375" lon="-71.07981755398213863372802734375">
        <ele>804.5999755859375</ele>
        <time>2026-08-21T23:21:03.000Z</time>
        <extensions>
          <ns3:TrackPointExtension>
            <ns3:hr>122</ns3:hr>
            <ns3:cad>73</ns3:cad>
          </ns3:TrackPointExtension>
        </extensions>
      </trkpt>
      <trkpt lat="45.30701109208166599273681640625" lon="-71.07984387315809726715087890625">
        <ele>804.5999755859375</ele>
        <time>2026-08-21T23:21:04.000Z</time>
        <extensions>
          <ns3:TrackPointExtension>
            <ns3:hr>122</ns3:hr>
            <ns3:cad>73</ns3:cad>
          </ns3:TrackPointExtension>
        </extensions>
      </trkpt>
      <trkpt lat="45.30702064745128154754638671875" lon="-71.079866923391819000244140625">
        <ele>804.5999755859375</ele>
        <time>2026-08-21T23:21:05.000Z</time>
        <extensions>
          <ns3:TrackPointExtension>
            <ns3:hr>122</ns3:hr>
            <ns3:cad>73</ns3:cad>
          </ns3:TrackPointExtension>
        </extensions>
      </trkpt>
      <trkpt lat="45.30702986754477024078369140625" lon="-71.07988226227462291717529296875">
        <ele>804.5999755859375</ele>
        <time>2026-08-21T23:21:06.000Z</time>
        <extensions>
          <ns3:TrackPointExtension>
            <ns3:hr>122</ns3:hr>
            <ns3:cad>73</ns3:cad>
          </ns3:TrackPointExtension>
        </extensions>
      </trkpt>
      <trkpt lat="45.30704059638082981109619140625" lon="-71.07990120537579059600830078125">
        <ele>804.5999755859375</ele>
        <time>2026-08-21T23:21:07.000Z</time>
        <extensions>
          <ns3:TrackPointExtension>
            <ns3:hr>122</ns3:hr>
            <ns3:cad>73</ns3:cad>
          </ns3:TrackPointExtension>
        </extensions>
      </trkpt>
      <trkpt lat="45.30704386532306671142578125" lon="-71.07990908436477184295654296875">
        <ele>804.79998779296875</ele>
        <time>2026-08-21T23:21:08.000Z</time>
        <extensions>
          <ns3:TrackPointExtension>
            <ns3:hr>122</ns3:hr>
            <ns3:cad>73</ns3:cad>
          </ns3:TrackPointExtension>
        </extensions>
      </trkpt>
      <trkpt lat="45.3070467151701450347900390625" lon="-71.07992283068597316741943359375">
        <ele>805</ele>
        <time>2026-08-21T23:21:09.000Z</time>
        <extensions>
          <ns3:TrackPointExtension>
            <ns3:hr>122</ns3:hr>
            <ns3:cad>73</ns3:cad>
          </ns3:TrackPointExtension>
        </extensions>
      </trkpt>
      <trkpt lat="45.30704830773174762725830078125" lon="-71.07993808574974536895751953125">
        <ele>805.4000244140625</ele>
        <time>2026-08-21T23:21:10.000Z</time>
        <extensions>
          <ns3:TrackPointExtension>
            <ns3:hr>121</ns3:hr>
            <ns3:cad>73</ns3:cad>
          </ns3:TrackPointExtension>
        </extensions>
      </trkpt>
      <trkpt lat="45.307051241397857666015625" lon="-71.0799465514719486236572265625">
        <ele>805.4000244140625</ele>
        <time>2026-08-21T23:21:11.000Z</time>
        <extensions>
          <ns3:TrackPointExtension>
            <ns3:hr>121</ns3:hr>
            <ns3:cad>73</ns3:cad>
          </ns3:TrackPointExtension>
        </extensions>
      </trkpt>
      <trkpt lat="45.3070540912449359893798828125" lon="-71.07995987869799137115478515625">
        <ele>805.5999755859375</ele>
        <time>2026-08-21T23:21:12.000Z</time>
        <extensions>
          <ns3:TrackPointExtension>
            <ns3:hr>121</ns3:hr>
            <ns3:cad>73</ns3:cad>
          </ns3:TrackPointExtension>
        </extensions>
      </trkpt>
      <trkpt lat="45.3070530854165554046630859375" lon="-71.0799794085323810577392578125">
        <ele>805.4000244140625</ele>
        <time>2026-08-21T23:21:13.000Z</time>
        <extensions>
          <ns3:TrackPointExtension>
            <ns3:hr>120</ns3:hr>
            <ns3:cad>73</ns3:cad>
          </ns3:TrackPointExtension>
        </extensions>
      </trkpt>
      <trkpt lat="45.3070540912449359893798828125" lon="-71.08000271022319793701171875">
        <ele>805.20001220703125</ele>
        <time>2026-08-21T23:21:14.000Z</time>
        <extensions>
          <ns3:TrackPointExtension>
            <ns3:hr>120</ns3:hr>
            <ns3:cad>0</ns3:cad>
          </ns3:TrackPointExtension>
        </extensions>
      </trkpt>
      <trkpt lat="45.307052917778491973876953125" lon="-71.08002659864723682403564453125">
        <ele>805</ele>
        <time>2026-08-21T23:21:15.000Z</time>
        <extensions>
          <ns3:TrackPointExtension>
            <ns3:hr>120</ns3:hr>
            <ns3:cad>0</ns3:cad>
          </ns3:TrackPointExtension>
        </extensions>
      </trkpt>
      <trkpt lat="45.30705199576914310455322265625" lon="-71.08004520647227764129638671875">
        <ele>804.79998779296875</ele>
        <time>2026-08-21T23:21:16.000Z</time>
        <extensions>
          <ns3:TrackPointExtension>
            <ns3:hr>120</ns3:hr>
            <ns3:cad>0</ns3:cad>
          </ns3:TrackPointExtension>
        </extensions>
      </trkpt>
      <trkpt lat="45.3070485591888427734375" lon="-71.08005777932703495025634765625">
        <ele>804.5999755859375</ele>
        <time>2026-08-21T23:21:17.000Z</time>
        <extensions>
          <ns3:TrackPointExtension>
            <ns3:hr>120</ns3:hr>
            <ns3:cad>0</ns3:cad>
          </ns3:TrackPointExtension>
        </extensions>
      </trkpt>
      <trkpt lat="45.307039506733417510986328125" lon="-71.080069430172443389892578125">
        <ele>804.20001220703125</ele>
        <time>2026-08-21T23:21:18.000Z</time>
        <extensions>
          <ns3:TrackPointExtension>
            <ns3:hr>121</ns3:hr>
            <ns3:cad>0</ns3:cad>
          </ns3:TrackPointExtension>
        </extensions>
      </trkpt>
      <trkpt lat="45.307036153972148895263671875" lon="-71.08008678071200847625732421875">
        <ele>804</ele>
        <time>2026-08-21T23:21:19.000Z</time>
        <extensions>
          <ns3:TrackPointExtension>
            <ns3:hr>121</ns3:hr>
            <ns3:cad>71</ns3:cad>
          </ns3:TrackPointExtension>
        </extensions>
      </trkpt>
      <trkpt lat="45.3070299513638019561767578125" lon="-71.08010639436542987823486328125">
        <ele>803.79998779296875</ele>
        <time>2026-08-21T23:21:20.000Z</time>
        <extensions>
          <ns3:TrackPointExtension>
            <ns3:hr>121</ns3:hr>
            <ns3:cad>71</ns3:cad>
          </ns3:TrackPointExtension>
        </extensions>
      </trkpt>
      <trkpt lat="45.30703573487699031829833984375" lon="-71.0801173746585845947265625">
        <ele>803.4000244140625</ele>
        <time>2026-08-21T23:21:21.000Z</time>
        <extensions>
          <ns3:TrackPointExtension>
            <ns3:hr>121</ns3:hr>
            <ns3:cad>0</ns3:cad>
          </ns3:TrackPointExtension>
        </extensions>
      </trkpt>
      <trkpt lat="45.30703992582857608795166015625" lon="-71.08013321645557880401611328125">
        <ele>803</ele>
        <time>2026-08-21T23:21:22.000Z</time>
        <extensions>
          <ns3:TrackPointExtension>
            <ns3:hr>121</ns3:hr>
            <ns3:cad>0</ns3:cad>
          </ns3:TrackPointExtension>
        </extensions>
      </trkpt>
      <trkpt lat="45.3070420213043689727783203125" lon="-71.080147214233875274658203125">
        <ele>802.5999755859375</ele>
        <time>2026-08-21T23:21:23.000Z</time>
        <extensions>
          <ns3:TrackPointExtension>
            <ns3:hr>121</ns3:hr>
            <ns3:cad>0</ns3:cad>
          </ns3:TrackPointExtension>
        </extensions>
      </trkpt>
      <trkpt lat="45.30703992582857608795166015625" lon="-71.08015551231801509857177734375">
        <ele>802.20001220703125</ele>
        <time>2026-08-21T23:21:24.000Z</time>
        <extensions>
          <ns3:TrackPointExtension>
            <ns3:hr>121</ns3:hr>
            <ns3:cad>76</ns3:cad>
          </ns3:TrackPointExtension>
        </extensions>
      </trkpt>
      <trkpt lat="45.307036153972148895263671875" lon="-71.0801581107079982757568359375">
        <ele>802</ele>
        <time>2026-08-21T23:21:25.000Z</time>
        <extensions>
          <ns3:TrackPointExtension>
            <ns3:hr>123</ns3:hr>
            <ns3:cad>76</ns3:cad>
          </ns3:TrackPointExtension>
        </extensions>
      </trkpt>
      <trkpt lat="45.307030789554119110107421875" lon="-71.0801641456782817840576171875">
        <ele>801.5999755859375</ele>
        <time>2026-08-21T23:21:26.000Z</time>
        <extensions>
          <ns3:TrackPointExtension>
            <ns3:hr>123</ns3:hr>
            <ns3:cad>0</ns3:cad>
          </ns3:TrackPointExtension>
        </extensions>
      </trkpt>
      <trkpt lat="45.307026095688343048095703125" lon="-71.080170013010501861572265625">
        <ele>801.4000244140625</ele>
        <time>2026-08-21T23:21:27.000Z</time>
        <extensions>
          <ns3:TrackPointExtension>
            <ns3:hr>123</ns3:hr>
            <ns3:cad>0</ns3:cad>
          </ns3:TrackPointExtension>
        </extensions>
      </trkpt>
      <trkpt lat="45.30702106654644012451171875" lon="-71.080172695219516754150390625">
        <ele>801</ele>
        <time>2026-08-21T23:21:28.000Z</time>
        <extensions>
          <ns3:TrackPointExtension>
            <ns3:hr>124</ns3:hr>
            <ns3:cad>0</ns3:cad>
          </ns3:TrackPointExtension>
        </extensions>
      </trkpt>
      <trkpt lat="45.3070131875574588775634765625" lon="-71.08017965219914913177490234375">
        <ele>800.5999755859375</ele>
        <time>2026-08-21T23:21:29.000Z</time>
        <extensions>
          <ns3:TrackPointExtension>
            <ns3:hr>124</ns3:hr>
            <ns3:cad>0</ns3:cad>
          </ns3:TrackPointExtension>
        </extensions>
      </trkpt>
      <trkpt lat="45.307005979120731353759765625" lon="-71.080184765160083770751953125">
        <ele>800.4000244140625</ele>
        <time>2026-08-21T23:21:30.000Z</time>
        <extensions>
          <ns3:TrackPointExtension>
            <ns3:hr>124</ns3:hr>
            <ns3:cad>0</ns3:cad>
          </ns3:TrackPointExtension>
        </extensions>
      </trkpt>
      <trkpt lat="45.3069991059601306915283203125" lon="-71.08019138686358928680419921875">
        <ele>800</ele>
        <time>2026-08-21T23:21:31.000Z</time>
        <extensions>
          <ns3:TrackPointExtension>
            <ns3:hr>124</ns3:hr>
            <ns3:cad>0</ns3:cad>
          </ns3:TrackPointExtension>
        </extensions>
      </trkpt>
      <trkpt lat="45.30698829330503940582275390625" lon="-71.08020253479480743408203125">
        <ele>799.5999755859375</ele>
        <time>2026-08-21T23:21:32.000Z</time>
        <extensions>
          <ns3:TrackPointExtension>
            <ns3:hr>124</ns3:hr>
            <ns3:cad>0</ns3:cad>
          </ns3:TrackPointExtension>
        </extensions>
      </trkpt>
      <trkpt lat="45.3069803304970264434814453125" lon="-71.08021535910665988922119140625">
        <ele>799.4000244140625</ele>
        <time>2026-08-21T23:21:33.000Z</time>
        <extensions>
          <ns3:TrackPointExtension>
            <ns3:hr>124</ns3:hr>
            <ns3:cad>0</ns3:cad>
          </ns3:TrackPointExtension>
        </extensions>
      </trkpt>
      <trkpt lat="45.3069759719073772430419921875" lon="-71.08023346401751041412353515625">
        <ele>799</ele>
        <time>2026-08-21T23:21:34.000Z</time>
        <extensions>
          <ns3:TrackPointExtension>
            <ns3:hr>123</ns3:hr>
            <ns3:cad>0</ns3:cad>
          </ns3:TrackPointExtension>
        </extensions>
      </trkpt>
      <trkpt lat="45.3069672547280788421630859375" lon="-71.0802553407847881317138671875">
        <ele>798.79998779296875</ele>
        <time>2026-08-21T23:21:35.000Z</time>
        <extensions>
          <ns3:TrackPointExtension>
            <ns3:hr>124</ns3:hr>
            <ns3:cad>0</ns3:cad>
          </ns3:TrackPointExtension>
        </extensions>
      </trkpt>
      <trkpt lat="45.30695811845362186431884765625" lon="-71.08027772046625614166259765625">
        <ele>798.5999755859375</ele>
        <time>2026-08-21T23:21:36.000Z</time>
        <extensions>
          <ns3:TrackPointExtension>
            <ns3:hr>124</ns3:hr>
            <ns3:cad>0</ns3:cad>
          </ns3:TrackPointExtension>
        </extensions>
      </trkpt>
      <trkpt lat="45.30694940127432346343994140625" lon="-71.080294735729694366455078125">
        <ele>798.4000244140625</ele>
        <time>2026-08-21T23:21:37.000Z</time>
        <extensions>
          <ns3:TrackPointExtension>
            <ns3:hr>125</ns3:hr>
            <ns3:cad>0</ns3:cad>
          </ns3:TrackPointExtension>
        </extensions>
      </trkpt>
      <trkpt lat="45.3069390915334224700927734375" lon="-71.0803091526031494140625">
        <ele>798.4000244140625</ele>
        <time>2026-08-21T23:21:38.000Z</time>
        <extensions>
          <ns3:TrackPointExtension>
            <ns3:hr>124</ns3:hr>
            <ns3:cad>72</ns3:cad>
          </ns3:TrackPointExtension>
        </extensions>
      </trkpt>
      <trkpt lat="45.306933559477329254150390625" lon="-71.08030990697443485260009765625">
        <ele>798.5999755859375</ele>
        <time>2026-08-21T23:21:39.000Z</time>
        <extensions>
          <ns3:TrackPointExtension>
            <ns3:hr>124</ns3:hr>
            <ns3:cad>72</ns3:cad>
          </ns3:TrackPointExtension>
        </extensions>
      </trkpt>
      <trkpt lat="45.30692526139318943023681640625" lon="-71.08032063581049442291259765625">
        <ele>798.79998779296875</ele>
        <time>2026-08-21T23:21:40.000Z</time>
        <extensions>
          <ns3:TrackPointExtension>
            <ns3:hr>124</ns3:hr>
            <ns3:cad>72</ns3:cad>
          </ns3:TrackPointExtension>
        </extensions>
      </trkpt>
      <trkpt lat="45.30691788531839847564697265625" lon="-71.0803346335887908935546875">
        <ele>799</ele>
        <time>2026-08-21T23:21:41.000Z</time>
        <extensions>
          <ns3:TrackPointExtension>
            <ns3:hr>124</ns3:hr>
            <ns3:cad>72</ns3:cad>
          </ns3:TrackPointExtension>
        </extensions>
      </trkpt>
      <trkpt lat="45.30691101215779781341552734375" lon="-71.080347038805484771728515625">
        <ele>799.20001220703125</ele>
        <time>2026-08-21T23:21:42.000Z</time>
        <extensions>
          <ns3:TrackPointExtension>
            <ns3:hr>124</ns3:hr>
            <ns3:cad>72</ns3:cad>
          </ns3:TrackPointExtension>
        </extensions>
      </trkpt>
      <trkpt lat="45.3069092519581317901611328125" lon="-71.0803612880408763885498046875">
        <ele>799.4000244140625</ele>
        <time>2026-08-21T23:21:43.000Z</time>
        <extensions>
          <ns3:TrackPointExtension>
            <ns3:hr>125</ns3:hr>
            <ns3:cad>72</ns3:cad>
          </ns3:TrackPointExtension>
        </extensions>
      </trkpt>
      <trkpt lat="45.30690246261656284332275390625" lon="-71.08037553727626800537109375">
        <ele>799.5999755859375</ele>
        <time>2026-08-21T23:21:44.000Z</time>
        <extensions>
          <ns3:TrackPointExtension>
            <ns3:hr>124</ns3:hr>
            <ns3:cad>72</ns3:cad>
          </ns3:TrackPointExtension>
        </extensions>
      </trkpt>
      <trkpt lat="45.30689374543726444244384765625" lon="-71.080395318567752838134765625">
        <ele>799.79998779296875</ele>
        <time>2026-08-21T23:21:45.000Z</time>
        <extensions>
          <ns3:TrackPointExtension>
            <ns3:hr>124</ns3:hr>
            <ns3:cad>0</ns3:cad>
          </ns3:TrackPointExtension>
        </extensions>
      </trkpt>
      <trkpt lat="45.30689173378050327301025390625" lon="-71.08041283674538135528564453125">
        <ele>800.20001220703125</ele>
        <time>2026-08-21T23:21:46.000Z</time>
        <extensions>
          <ns3:TrackPointExtension>
            <ns3:hr>125</ns3:hr>
            <ns3:cad>0</ns3:cad>
          </ns3:TrackPointExtension>
        </extensions>
      </trkpt>
      <trkpt lat="45.3068894706666469573974609375" lon="-71.08042557723820209503173828125">
        <ele>800.4000244140625</ele>
        <time>2026-08-21T23:21:47.000Z</time>
        <extensions>
          <ns3:TrackPointExtension>
            <ns3:hr>124</ns3:hr>
            <ns3:cad>0</ns3:cad>
          </ns3:TrackPointExtension>
        </extensions>
      </trkpt>
      <trkpt lat="45.30688871629536151885986328125" lon="-71.08044334687292575836181640625">
        <ele>800.5999755859375</ele>
        <time>2026-08-21T23:21:48.000Z</time>
        <extensions>
          <ns3:TrackPointExtension>
            <ns3:hr>124</ns3:hr>
            <ns3:cad>0</ns3:cad>
          </ns3:TrackPointExtension>
        </extensions>
      </trkpt>
      <trkpt lat="45.30688636936247348785400390625" lon="-71.08045508153736591339111328125">
        <ele>801</ele>
        <time>2026-08-21T23:21:49.000Z</time>
        <extensions>
          <ns3:TrackPointExtension>
            <ns3:hr>123</ns3:hr>
            <ns3:cad>0</ns3:cad>
          </ns3:TrackPointExtension>
        </extensions>
      </trkpt>
      <trkpt lat="45.3068770654499530792236328125" lon="-71.0804679058492183685302734375">
        <ele>801.20001220703125</ele>
        <time>2026-08-21T23:21:50.000Z</time>
        <extensions>
          <ns3:TrackPointExtension>
            <ns3:hr>124</ns3:hr>
            <ns3:cad>0</ns3:cad>
          </ns3:TrackPointExtension>
        </extensions>
      </trkpt>
      <trkpt lat="45.30687295831739902496337890625" lon="-71.0804741084575653076171875">
        <ele>801.5999755859375</ele>
        <time>2026-08-21T23:21:51.000Z</time>
        <extensions>
          <ns3:TrackPointExtension>
            <ns3:hr>124</ns3:hr>
            <ns3:cad>0</ns3:cad>
          </ns3:TrackPointExtension>
        </extensions>
      </trkpt>
      <trkpt lat="45.306867174804210662841796875" lon="-71.08048358000814914703369140625">
        <ele>802</ele>
        <time>2026-08-21T23:21:52.000Z</time>
        <extensions>
          <ns3:TrackPointExtension>
            <ns3:hr>125</ns3:hr>
            <ns3:cad>0</ns3:cad>
          </ns3:TrackPointExtension>
        </extensions>
      </trkpt>
      <trkpt lat="45.30686172656714916229248046875" lon="-71.080494225025177001953125">
        <ele>802.20001220703125</ele>
        <time>2026-08-21T23:21:53.000Z</time>
        <extensions>
          <ns3:TrackPointExtension>
            <ns3:hr>125</ns3:hr>
            <ns3:cad>0</ns3:cad>
          </ns3:TrackPointExtension>
        </extensions>
      </trkpt>
      <trkpt lat="45.30684965662658214569091796875" lon="-71.08050805516541004180908203125">
        <ele>802.4000244140625</ele>
        <time>2026-08-21T23:21:54.000Z</time>
        <extensions>
          <ns3:TrackPointExtension>
            <ns3:hr>125</ns3:hr>
            <ns3:cad>0</ns3:cad>
          </ns3:TrackPointExtension>
        </extensions>
      </trkpt>
      <trkpt lat="45.30684110708534717559814453125" lon="-71.08052381314337253570556640625">
        <ele>802.5999755859375</ele>
        <time>2026-08-21T23:21:55.000Z</time>
        <extensions>
          <ns3:TrackPointExtension>
            <ns3:hr>125</ns3:hr>
            <ns3:cad>0</ns3:cad>
          </ns3:TrackPointExtension>
        </extensions>
      </trkpt>
      <trkpt lat="45.3068304620683193206787109375" lon="-71.080536805093288421630859375">
        <ele>802.79998779296875</ele>
        <time>2026-08-21T23:21:56.000Z</time>
        <extensions>
          <ns3:TrackPointExtension>
            <ns3:hr>125</ns3:hr>
            <ns3:cad>0</ns3:cad>
          </ns3:TrackPointExtension>
        </extensions>
      </trkpt>
      <trkpt lat="45.306826271116733551025390625" lon="-71.08055180869996547698974609375">
        <ele>803</ele>
        <time>2026-08-21T23:21:57.000Z</time>
        <extensions>
          <ns3:TrackPointExtension>
            <ns3:hr>125</ns3:hr>
            <ns3:cad>0</ns3:cad>
          </ns3:TrackPointExtension>
        </extensions>
      </trkpt>
      <trkpt lat="45.30682149343192577362060546875" lon="-71.08055524528026580810546875">
        <ele>803</ele>
        <time>2026-08-21T23:21:58.000Z</time>
        <extensions>
          <ns3:TrackPointExtension>
            <ns3:hr>126</ns3:hr>
            <ns3:cad>48</ns3:cad>
          </ns3:TrackPointExtension>
        </extensions>
      </trkpt>
      <trkpt lat="45.30681260861456394195556640625" lon="-71.0805611126124858856201171875">
        <ele>803</ele>
        <time>2026-08-21T23:21:59.000Z</time>
        <extensions>
          <ns3:TrackPointExtension>
            <ns3:hr>127</ns3:hr>
            <ns3:cad>48</ns3:cad>
          </ns3:TrackPointExtension>
        </extensions>
      </trkpt>
      <trkpt lat="45.306802801787853240966796875" lon="-71.080570332705974578857421875">
        <ele>803</ele>
        <time>2026-08-21T23:22:00.000Z</time>
        <extensions>
          <ns3:TrackPointExtension>
            <ns3:hr>128</ns3:hr>
            <ns3:cad>0</ns3:cad>
          </ns3:TrackPointExtension>
        </extensions>
      </trkpt>
      <trkpt lat="45.30679835937917232513427734375" lon="-71.08058567158877849578857421875">
        <ele>803</ele>
        <time>2026-08-21T23:22:01.000Z</time>
        <extensions>
          <ns3:TrackPointExtension>
            <ns3:hr>129</ns3:hr>
            <ns3:cad>0</ns3:cad>
          </ns3:TrackPointExtension>
        </extensions>
      </trkpt>
      <trkpt lat="45.30679416842758655548095703125" lon="-71.08059254474937915802001953125">
        <ele>803</ele>
        <time>2026-08-21T23:22:02.000Z</time>
        <extensions>
          <ns3:TrackPointExtension>
            <ns3:hr>130</ns3:hr>
            <ns3:cad>0</ns3:cad>
          </ns3:TrackPointExtension>
        </extensions>
      </trkpt>
      <trkpt lat="45.306788384914398193359375" lon="-71.08060159720480442047119140625">
        <ele>803</ele>
        <time>2026-08-21T23:22:03.000Z</time>
        <extensions>
          <ns3:TrackPointExtension>
            <ns3:hr>131</ns3:hr>
            <ns3:cad>0</ns3:cad>
          </ns3:TrackPointExtension>
        </extensions>
      </trkpt>
      <trkpt lat="45.30678260140120983123779296875" lon="-71.08061584644019603729248046875">
        <ele>803</ele>
        <time>2026-08-21T23:22:04.000Z</time>
        <extensions>
          <ns3:TrackPointExtension>
            <ns3:hr>132</ns3:hr>
            <ns3:cad>48</ns3:cad>
          </ns3:TrackPointExtension>
        </extensions>
      </trkpt>
      <trkpt lat="45.30677606351673603057861328125" lon="-71.0806395672261714935302734375">
        <ele>803</ele>
        <time>2026-08-21T23:22:05.000Z</time>
        <extensions>
          <ns3:TrackPointExtension>
            <ns3:hr>132</ns3:hr>
            <ns3:cad>48</ns3:cad>
          </ns3:TrackPointExtension>
        </extensions>
      </trkpt>
      <trkpt lat="45.306767262518405914306640625" lon="-71.08065976761281490325927734375">
        <ele>803</ele>
        <time>2026-08-21T23:22:06.000Z</time>
        <extensions>
          <ns3:TrackPointExtension>
            <ns3:hr>133</ns3:hr>
            <ns3:cad>48</ns3:cad>
          </ns3:TrackPointExtension>
        </extensions>
      </trkpt>
      <trkpt lat="45.30676298774778842926025390625" lon="-71.08067326247692108154296875">
        <ele>803</ele>
        <time>2026-08-21T23:22:07.000Z</time>
        <extensions>
          <ns3:TrackPointExtension>
            <ns3:hr>134</ns3:hr>
            <ns3:cad>0</ns3:cad>
          </ns3:TrackPointExtension>
        </extensions>
      </trkpt>
      <trkpt lat="45.306760556995868682861328125" lon="-71.0806932114064693450927734375">
        <ele>802.79998779296875</ele>
        <time>2026-08-21T23:22:08.000Z</time>
        <extensions>
          <ns3:TrackPointExtension>
            <ns3:hr>134</ns3:hr>
            <ns3:cad>0</ns3:cad>
          </ns3:TrackPointExtension>
        </extensions>
      </trkpt>
      <trkpt lat="45.30675829388201236724853515625" lon="-71.08070067130029201507568359375">
        <ele>802.79998779296875</ele>
        <time>2026-08-21T23:22:09.000Z</time>
        <extensions>
          <ns3:TrackPointExtension>
            <ns3:hr>135</ns3:hr>
            <ns3:cad>0</ns3:cad>
          </ns3:TrackPointExtension>
        </extensions>
      </trkpt>
      <trkpt lat="45.3067533485591411590576171875" lon="-71.0807168483734130859375">
        <ele>802.79998779296875</ele>
        <time>2026-08-21T23:22:10.000Z</time>
        <extensions>
          <ns3:TrackPointExtension>
            <ns3:hr>136</ns3:hr>
            <ns3:cad>0</ns3:cad>
          </ns3:TrackPointExtension>
        </extensions>
      </trkpt>
      <trkpt lat="45.30674773268401622772216796875" lon="-71.08073805458843708038330078125">
        <ele>802.5999755859375</ele>
        <time>2026-08-21T23:22:11.000Z</time>
        <extensions>
          <ns3:TrackPointExtension>
            <ns3:hr>136</ns3:hr>
            <ns3:cad>0</ns3:cad>
          </ns3:TrackPointExtension>
        </extensions>
      </trkpt>
      <trkpt lat="45.3067412786185741424560546875" lon="-71.08074878342449665069580078125">
        <ele>802.5999755859375</ele>
        <time>2026-08-21T23:22:12.000Z</time>
        <extensions>
          <ns3:TrackPointExtension>
            <ns3:hr>135</ns3:hr>
            <ns3:cad>0</ns3:cad>
          </ns3:TrackPointExtension>
        </extensions>
      </trkpt>
      <trkpt lat="45.30673465691506862640380859375" lon="-71.08076713979244232177734375">
        <ele>802.5999755859375</ele>
        <time>2026-08-21T23:22:13.000Z</time>
        <extensions>
          <ns3:TrackPointExtension>
            <ns3:hr>135</ns3:hr>
            <ns3:cad>0</ns3:cad>
          </ns3:TrackPointExtension>
        </extensions>
      </trkpt>
      <trkpt lat="45.30672828666865825653076171875" lon="-71.08078633435070514678955078125">
        <ele>802.4000244140625</ele>
        <time>2026-08-21T23:22:14.000Z</time>
        <extensions>
          <ns3:TrackPointExtension>
            <ns3:hr>135</ns3:hr>
            <ns3:cad>0</ns3:cad>
          </ns3:TrackPointExtension>
        </extensions>
      </trkpt>
      <trkpt lat="45.30672007240355014801025390625" lon="-71.0808021761476993560791015625">
        <ele>802.4000244140625</ele>
        <time>2026-08-21T23:22:15.000Z</time>
        <extensions>
          <ns3:TrackPointExtension>
            <ns3:hr>135</ns3:hr>
            <ns3:cad>0</ns3:cad>
          </ns3:TrackPointExtension>
        </extensions>
      </trkpt>
      <trkpt lat="45.306713618338108062744140625" lon="-71.08081332407891750335693359375">
        <ele>802.20001220703125</ele>
        <time>2026-08-21T23:22:16.000Z</time>
        <extensions>
          <ns3:TrackPointExtension>
            <ns3:hr>134</ns3:hr>
            <ns3:cad>79</ns3:cad>
          </ns3:TrackPointExtension>
        </extensions>
      </trkpt>
      <trkpt lat="45.3067094273865222930908203125" lon="-71.08082774095237255096435546875">
        <ele>802</ele>
        <time>2026-08-21T23:22:17.000Z</time>
        <extensions>
          <ns3:TrackPointExtension>
            <ns3:hr>134</ns3:hr>
            <ns3:cad>79</ns3:cad>
          </ns3:TrackPointExtension>
        </extensions>
      </trkpt>
      <trkpt lat="45.30670322477817535400390625" lon="-71.08084064908325672149658203125">
        <ele>801.79998779296875</ele>
        <time>2026-08-21T23:22:18.000Z</time>
        <extensions>
          <ns3:TrackPointExtension>
            <ns3:hr>134</ns3:hr>
            <ns3:cad>79</ns3:cad>
          </ns3:TrackPointExtension>
        </extensions>
      </trkpt>
      <trkpt lat="45.30669190920889377593994140625" lon="-71.080853976309299468994140625">
        <ele>801.5999755859375</ele>
        <time>2026-08-21T23:22:19.000Z</time>
        <extensions>
          <ns3:TrackPointExtension>
            <ns3:hr>133</ns3:hr>
            <ns3:cad>79</ns3:cad>
          </ns3:TrackPointExtension>
        </extensions>
      </trkpt>
      <trkpt lat="45.306678749620914459228515625" lon="-71.0808683931827545166015625">
        <ele>801.5999755859375</ele>
        <time>2026-08-21T23:22:20.000Z</time>
        <extensions>
          <ns3:TrackPointExtension>
            <ns3:hr>133</ns3:hr>
            <ns3:cad>79</ns3:cad>
          </ns3:TrackPointExtension>
        </extensions>
      </trkpt>
      <trkpt lat="45.30666609294712543487548828125" lon="-71.080882810056209564208984375">
        <ele>801.4000244140625</ele>
        <time>2026-08-21T23:22:21.000Z</time>
        <extensions>
          <ns3:TrackPointExtension>
            <ns3:hr>133</ns3:hr>
            <ns3:cad>79</ns3:cad>
          </ns3:TrackPointExtension>
        </extensions>
      </trkpt>
      <trkpt lat="45.30665653757750988006591796875" lon="-71.08089228160679340362548828125">
        <ele>801.20001220703125</ele>
        <time>2026-08-21T23:22:22.000Z</time>
        <extensions>
          <ns3:TrackPointExtension>
            <ns3:hr>133</ns3:hr>
            <ns3:cad>79</ns3:cad>
          </ns3:TrackPointExtension>
        </extensions>
      </trkpt>
      <trkpt lat="45.30664798803627490997314453125" lon="-71.0809037648141384124755859375">
        <ele>801.20001220703125</ele>
        <time>2026-08-21T23:22:23.000Z</time>
        <extensions>
          <ns3:TrackPointExtension>
            <ns3:hr>132</ns3:hr>
            <ns3:cad>0</ns3:cad>
          </ns3:TrackPointExtension>
        </extensions>
      </trkpt>
      <trkpt lat="45.30663927085697650909423828125" lon="-71.08091960661113262176513671875">
        <ele>801.20001220703125</ele>
        <time>2026-08-21T23:22:24.000Z</time>
        <extensions>
          <ns3:TrackPointExtension>
            <ns3:hr>132</ns3:hr>
            <ns3:cad>0</ns3:cad>
          </ns3:TrackPointExtension>
        </extensions>
      </trkpt>
      <trkpt lat="45.30663172714412212371826171875" lon="-71.08093402348458766937255859375">
        <ele>801.20001220703125</ele>
        <time>2026-08-21T23:22:25.000Z</time>
        <extensions>
          <ns3:TrackPointExtension>
            <ns3:hr>132</ns3:hr>
            <ns3:cad>0</ns3:cad>
          </ns3:TrackPointExtension>
        </extensions>
      </trkpt>
      <trkpt lat="45.30661999247968196868896484375" lon="-71.08094726689159870147705078125">
        <ele>801.4000244140625</ele>
        <time>2026-08-21T23:22:26.000Z</time>
        <extensions>
          <ns3:TrackPointExtension>
            <ns3:hr>132</ns3:hr>
            <ns3:cad>0</ns3:cad>
          </ns3:TrackPointExtension>
        </extensions>
      </trkpt>
      <trkpt lat="45.30660825781524181365966796875" lon="-71.080963276326656341552734375">
        <ele>801.4000244140625</ele>
        <time>2026-08-21T23:22:27.000Z</time>
        <extensions>
          <ns3:TrackPointExtension>
            <ns3:hr>131</ns3:hr>
            <ns3:cad>0</ns3:cad>
          </ns3:TrackPointExtension>
        </extensions>
      </trkpt>
      <trkpt lat="45.3065994568169116973876953125" lon="-71.080984063446521759033203125">
        <ele>801.4000244140625</ele>
        <time>2026-08-21T23:22:28.000Z</time>
        <extensions>
          <ns3:TrackPointExtension>
            <ns3:hr>132</ns3:hr>
            <ns3:cad>0</ns3:cad>
          </ns3:TrackPointExtension>
        </extensions>
      </trkpt>
      <trkpt lat="45.30659115873277187347412109375" lon="-71.08100057579576969146728515625">
        <ele>801.4000244140625</ele>
        <time>2026-08-21T23:22:29.000Z</time>
        <extensions>
          <ns3:TrackPointExtension>
            <ns3:hr>132</ns3:hr>
            <ns3:cad>0</ns3:cad>
          </ns3:TrackPointExtension>
        </extensions>
      </trkpt>
      <trkpt lat="45.3065820224583148956298828125" lon="-71.08101566322147846221923828125">
        <ele>801.20001220703125</ele>
        <time>2026-08-21T23:22:30.000Z</time>
        <extensions>
          <ns3:TrackPointExtension>
            <ns3:hr>132</ns3:hr>
            <ns3:cad>59</ns3:cad>
          </ns3:TrackPointExtension>
        </extensions>
      </trkpt>
      <trkpt lat="45.3065779991447925567626953125" lon="-71.0810247994959354400634765625">
        <ele>801.20001220703125</ele>
        <time>2026-08-21T23:22:31.000Z</time>
        <extensions>
          <ns3:TrackPointExtension>
            <ns3:hr>131</ns3:hr>
            <ns3:cad>59</ns3:cad>
          </ns3:TrackPointExtension>
        </extensions>
      </trkpt>
      <trkpt lat="45.3065665997564792633056640625" lon="-71.0810427367687225341796875">
        <ele>801</ele>
        <time>2026-08-21T23:22:32.000Z</time>
        <extensions>
          <ns3:TrackPointExtension>
            <ns3:hr>131</ns3:hr>
            <ns3:cad>59</ns3:cad>
          </ns3:TrackPointExtension>
        </extensions>
      </trkpt>
      <trkpt lat="45.30656182207167148590087890625" lon="-71.0810586623847484588623046875">
        <ele>801</ele>
        <time>2026-08-21T23:22:33.000Z</time>
        <extensions>
          <ns3:TrackPointExtension>
            <ns3:hr>131</ns3:hr>
            <ns3:cad>0</ns3:cad>
          </ns3:TrackPointExtension>
        </extensions>
      </trkpt>
      <trkpt lat="45.30655796639621257781982421875" lon="-71.08108037151396274566650390625">
        <ele>800.79998779296875</ele>
        <time>2026-08-21T23:22:34.000Z</time>
        <extensions>
          <ns3:TrackPointExtension>
            <ns3:hr>131</ns3:hr>
            <ns3:cad>0</ns3:cad>
          </ns3:TrackPointExtension>
        </extensions>
      </trkpt>
      <trkpt lat="45.30655109323561191558837890625" lon="-71.0810995660722255706787109375">
        <ele>800.5999755859375</ele>
        <time>2026-08-21T23:22:35.000Z</time>
        <extensions>
          <ns3:TrackPointExtension>
            <ns3:hr>130</ns3:hr>
            <ns3:cad>0</ns3:cad>
          </ns3:TrackPointExtension>
        </extensions>
      </trkpt>
      <trkpt lat="45.3065448068082332611083984375" lon="-71.0811072774231433868408203125">
        <ele>800.4000244140625</ele>
        <time>2026-08-21T23:22:36.000Z</time>
        <extensions>
          <ns3:TrackPointExtension>
            <ns3:hr>130</ns3:hr>
            <ns3:cad>0</ns3:cad>
          </ns3:TrackPointExtension>
        </extensions>
      </trkpt>
      <trkpt lat="45.3065354190766811370849609375" lon="-71.08112546615302562713623046875">
        <ele>800.20001220703125</ele>
        <time>2026-08-21T23:22:37.000Z</time>
        <extensions>
          <ns3:TrackPointExtension>
            <ns3:hr>129</ns3:hr>
            <ns3:cad>0</ns3:cad>
          </ns3:TrackPointExtension>
        </extensions>
      </trkpt>
      <trkpt lat="45.30653013847768306732177734375" lon="-71.08113954775035381317138671875">
        <ele>800</ele>
        <time>2026-08-21T23:22:38.000Z</time>
        <extensions>
          <ns3:TrackPointExtension>
            <ns3:hr>129</ns3:hr>
            <ns3:cad>0</ns3:cad>
          </ns3:TrackPointExtension>
        </extensions>
      </trkpt>
      <trkpt lat="45.30652376823127269744873046875" lon="-71.08115580864250659942626953125">
        <ele>799.79998779296875</ele>
        <time>2026-08-21T23:22:39.000Z</time>
        <extensions>
          <ns3:TrackPointExtension>
            <ns3:hr>129</ns3:hr>
            <ns3:cad>0</ns3:cad>
          </ns3:TrackPointExtension>
        </extensions>
      </trkpt>
      <trkpt lat="45.306515805423259735107421875" lon="-71.08117349445819854736328125">
        <ele>799.5999755859375</ele>
        <time>2026-08-21T23:22:40.000Z</time>
        <extensions>
          <ns3:TrackPointExtension>
            <ns3:hr>129</ns3:hr>
            <ns3:cad>0</ns3:cad>
          </ns3:TrackPointExtension>
        </extensions>
      </trkpt>
      <trkpt lat="45.30651354230940341949462890625" lon="-71.08118732459843158721923828125">
        <ele>799.5999755859375</ele>
        <time>2026-08-21T23:22:41.000Z</time>
        <extensions>
          <ns3:TrackPointExtension>
            <ns3:hr>128</ns3:hr>
            <ns3:cad>0</ns3:cad>
          </ns3:TrackPointExtension>
        </extensions>
      </trkpt>
      <trkpt lat="45.30650834552943706512451171875" lon="-71.0812092013657093048095703125">
        <ele>799.4000244140625</ele>
        <time>2026-08-21T23:22:42.000Z</time>
        <extensions>
          <ns3:TrackPointExtension>
            <ns3:hr>128</ns3:hr>
            <ns3:cad>0</ns3:cad>
          </ns3:TrackPointExtension>
        </extensions>
      </trkpt>
      <trkpt lat="45.3064985387027263641357421875" lon="-71.08122269622981548309326171875">
        <ele>799.4000244140625</ele>
        <time>2026-08-21T23:22:43.000Z</time>
        <extensions>
          <ns3:TrackPointExtension>
            <ns3:hr>128</ns3:hr>
            <ns3:cad>0</ns3:cad>
          </ns3:TrackPointExtension>
        </extensions>
      </trkpt>
      <trkpt lat="45.3064878098666667938232421875" lon="-71.08123577199876308441162109375">
        <ele>799.4000244140625</ele>
        <time>2026-08-21T23:22:44.000Z</time>
        <extensions>
          <ns3:TrackPointExtension>
            <ns3:hr>128</ns3:hr>
            <ns3:cad>0</ns3:cad>
          </ns3:TrackPointExtension>
        </extensions>
      </trkpt>
      <trkpt lat="45.30647381208837032318115234375" lon="-71.08125354163348674774169921875">
        <ele>799.5999755859375</ele>
        <time>2026-08-21T23:22:45.000Z</time>
        <extensions>
          <ns3:TrackPointExtension>
            <ns3:hr>128</ns3:hr>
            <ns3:cad>0</ns3:cad>
          </ns3:TrackPointExtension>
        </extensions>
      </trkpt>
      <trkpt lat="45.3064616583287715911865234375" lon="-71.081273742020130157470703125">
        <ele>799.4000244140625</ele>
        <time>2026-08-21T23:22:46.000Z</time>
        <extensions>
          <ns3:TrackPointExtension>
            <ns3:hr>127</ns3:hr>
            <ns3:cad>0</ns3:cad>
          </ns3:TrackPointExtension>
        </extensions>
      </trkpt>
      <trkpt lat="45.3064532764256000518798828125" lon="-71.0812957026064395904541015625">
        <ele>799.4000244140625</ele>
        <time>2026-08-21T23:22:47.000Z</time>
        <extensions>
          <ns3:TrackPointExtension>
            <ns3:hr>126</ns3:hr>
            <ns3:cad>55</ns3:cad>
          </ns3:TrackPointExtension>
        </extensions>
      </trkpt>
      <trkpt lat="45.30644464306533336639404296875" lon="-71.0813141427934169769287109375">
        <ele>799.20001220703125</ele>
        <time>2026-08-21T23:22:48.000Z</time>
        <extensions>
          <ns3:TrackPointExtension>
            <ns3:hr>126</ns3:hr>
            <ns3:cad>57</ns3:cad>
          </ns3:TrackPointExtension>
        </extensions>
      </trkpt>
      <trkpt lat="45.3064378537237644195556640625" lon="-71.08132713474333286285400390625">
        <ele>799.20001220703125</ele>
        <time>2026-08-21T23:22:49.000Z</time>
        <extensions>
          <ns3:TrackPointExtension>
            <ns3:hr>124</ns3:hr>
            <ns3:cad>57</ns3:cad>
          </ns3:TrackPointExtension>
        </extensions>
      </trkpt>
      <trkpt lat="45.306430645287036895751953125" lon="-71.081340126693248748779296875">
        <ele>799</ele>
        <time>2026-08-21T23:22:50.000Z</time>
        <extensions>
          <ns3:TrackPointExtension>
            <ns3:hr>122</ns3:hr>
            <ns3:cad>57</ns3:cad>
          </ns3:TrackPointExtension>
        </extensions>
      </trkpt>
      <trkpt lat="45.3064197488129138946533203125" lon="-71.08135580085217952728271484375">
        <ele>799</ele>
        <time>2026-08-21T23:22:51.000Z</time>
        <extensions>
          <ns3:TrackPointExtension>
            <ns3:hr>122</ns3:hr>
            <ns3:cad>57</ns3:cad>
          </ns3:TrackPointExtension>
        </extensions>
      </trkpt>
      <trkpt lat="45.3064113669097423553466796875" lon="-71.08136669732630252838134765625">
        <ele>799</ele>
        <time>2026-08-21T23:22:52.000Z</time>
        <extensions>
          <ns3:TrackPointExtension>
            <ns3:hr>123</ns3:hr>
            <ns3:cad>61</ns3:cad>
          </ns3:TrackPointExtension>
        </extensions>
      </trkpt>
      <trkpt lat="45.30640440993010997772216796875" lon="-71.0813781805336475372314453125">
        <ele>799</ele>
        <time>2026-08-21T23:22:53.000Z</time>
        <extensions>
          <ns3:TrackPointExtension>
            <ns3:hr>123</ns3:hr>
            <ns3:cad>61</ns3:cad>
          </ns3:TrackPointExtension>
        </extensions>
      </trkpt>
      <trkpt lat="45.30639669857919216156005859375" lon="-71.081391088664531707763671875">
        <ele>798.79998779296875</ele>
        <time>2026-08-21T23:22:54.000Z</time>
        <extensions>
          <ns3:TrackPointExtension>
            <ns3:hr>124</ns3:hr>
            <ns3:cad>60</ns3:cad>
          </ns3:TrackPointExtension>
        </extensions>
      </trkpt>
      <trkpt lat="45.30638613738119602203369140625" lon="-71.08140659518539905548095703125">
        <ele>798.5999755859375</ele>
        <time>2026-08-21T23:22:55.000Z</time>
        <extensions>
          <ns3:TrackPointExtension>
            <ns3:hr>124</ns3:hr>
            <ns3:cad>60</ns3:cad>
          </ns3:TrackPointExtension>
        </extensions>
      </trkpt>
      <trkpt lat="45.30637993477284908294677734375" lon="-71.08142185024917125701904296875">
        <ele>798.5999755859375</ele>
        <time>2026-08-21T23:22:56.000Z</time>
        <extensions>
          <ns3:TrackPointExtension>
            <ns3:hr>124</ns3:hr>
            <ns3:cad>60</ns3:cad>
          </ns3:TrackPointExtension>
        </extensions>
      </trkpt>
      <trkpt lat="45.3063764981925487518310546875" lon="-71.0814385302364826202392578125">
        <ele>798.5999755859375</ele>
        <time>2026-08-21T23:22:57.000Z</time>
        <extensions>
          <ns3:TrackPointExtension>
            <ns3:hr>124</ns3:hr>
            <ns3:cad>60</ns3:cad>
          </ns3:TrackPointExtension>
        </extensions>
      </trkpt>
      <trkpt lat="45.30636367388069629669189453125" lon="-71.08146275393664836883544921875">
        <ele>798.4000244140625</ele>
        <time>2026-08-21T23:22:58.000Z</time>
        <extensions>
          <ns3:TrackPointExtension>
            <ns3:hr>124</ns3:hr>
            <ns3:cad>60</ns3:cad>
          </ns3:TrackPointExtension>
        </extensions>
      </trkpt>
      <trkpt lat="45.3063560463488101959228515625" lon="-71.0814861394464969635009765625">
        <ele>798.4000244140625</ele>
        <time>2026-08-21T23:22:59.000Z</time>
        <extensions>
          <ns3:TrackPointExtension>
            <ns3:hr>123</ns3:hr>
            <ns3:cad>60</ns3:cad>
          </ns3:TrackPointExtension>
        </extensions>
      </trkpt>
      <trkpt lat="45.30635260976850986480712890625" lon="-71.08150742948055267333984375">
        <ele>798.4000244140625</ele>
        <time>2026-08-21T23:23:00.000Z</time>
        <extensions>
          <ns3:TrackPointExtension>
            <ns3:hr>124</ns3:hr>
            <ns3:cad>60</ns3:cad>
          </ns3:TrackPointExtension>
        </extensions>
      </trkpt>
      <trkpt lat="45.3063412941992282867431640625" lon="-71.081536598503589630126953125">
        <ele>798.20001220703125</ele>
        <time>2026-08-21T23:23:01.000Z</time>
        <extensions>
          <ns3:TrackPointExtension>
            <ns3:hr>124</ns3:hr>
            <ns3:cad>71</ns3:cad>
          </ns3:TrackPointExtension>
        </extensions>
      </trkpt>
      <trkpt lat="45.30633785761892795562744140625" lon="-71.0815542005002498626708984375">
        <ele>798.20001220703125</ele>
        <time>2026-08-21T23:23:02.000Z</time>
        <extensions>
          <ns3:TrackPointExtension>
            <ns3:hr>124</ns3:hr>
            <ns3:cad>71</ns3:cad>
          </ns3:TrackPointExtension>
        </extensions>
      </trkpt>
      <trkpt lat="45.30632779933512210845947265625" lon="-71.08157523907721042633056640625">
        <ele>798.20001220703125</ele>
        <time>2026-08-21T23:23:03.000Z</time>
        <extensions>
          <ns3:TrackPointExtension>
            <ns3:hr>124</ns3:hr>
            <ns3:cad>71</ns3:cad>
          </ns3:TrackPointExtension>
        </extensions>
      </trkpt>
      <trkpt lat="45.30631489120423793792724609375" lon="-71.08158948831260204315185546875">
        <ele>798.20001220703125</ele>
        <time>2026-08-21T23:23:04.000Z</time>
        <extensions>
          <ns3:TrackPointExtension>
            <ns3:hr>125</ns3:hr>
            <ns3:cad>16</ns3:cad>
          </ns3:TrackPointExtension>
        </extensions>
      </trkpt>
      <trkpt lat="45.3063081018626689910888671875" lon="-71.08160541392862796783447265625">
        <ele>798.20001220703125</ele>
        <time>2026-08-21T23:23:05.000Z</time>
        <extensions>
          <ns3:TrackPointExtension>
            <ns3:hr>125</ns3:hr>
            <ns3:cad>16</ns3:cad>
          </ns3:TrackPointExtension>
        </extensions>
      </trkpt>
      <trkpt lat="45.3063024021685123443603515625" lon="-71.08162770979106426239013671875">
        <ele>798.20001220703125</ele>
        <time>2026-08-21T23:23:06.000Z</time>
        <extensions>
          <ns3:TrackPointExtension>
            <ns3:hr>126</ns3:hr>
            <ns3:cad>16</ns3:cad>
          </ns3:TrackPointExtension>
        </extensions>
      </trkpt>
      <trkpt lat="45.30630131252110004425048828125" lon="-71.08164631761610507965087890625">
        <ele>798.20001220703125</ele>
        <time>2026-08-21T23:23:07.000Z</time>
        <extensions>
          <ns3:TrackPointExtension>
            <ns3:hr>126</ns3:hr>
            <ns3:cad>16</ns3:cad>
          </ns3:TrackPointExtension>
        </extensions>
      </trkpt>
      <trkpt lat="45.306304581463336944580078125" lon="-71.08166039921343326568603515625">
        <ele>798.4000244140625</ele>
        <time>2026-08-21T23:23:08.000Z</time>
        <extensions>
          <ns3:TrackPointExtension>
            <ns3:hr>126</ns3:hr>
            <ns3:cad>16</ns3:cad>
          </ns3:TrackPointExtension>
        </extensions>
      </trkpt>
      <trkpt lat="45.30630491673946380615234375" lon="-71.0816839523613452911376953125">
        <ele>798.5999755859375</ele>
        <time>2026-08-21T23:23:09.000Z</time>
        <extensions>
          <ns3:TrackPointExtension>
            <ns3:hr>126</ns3:hr>
            <ns3:cad>16</ns3:cad>
          </ns3:TrackPointExtension>
        </extensions>
      </trkpt>
      <trkpt lat="45.3063042461872100830078125" lon="-71.081706248223781585693359375">
        <ele>798.79998779296875</ele>
        <time>2026-08-21T23:23:10.000Z</time>
        <extensions>
          <ns3:TrackPointExtension>
            <ns3:hr>126</ns3:hr>
            <ns3:cad>16</ns3:cad>
          </ns3:TrackPointExtension>
        </extensions>
      </trkpt>
      <trkpt lat="45.30630516819655895233154296875" lon="-71.0817240178585052490234375">
        <ele>799</ele>
        <time>2026-08-21T23:23:11.000Z</time>
        <extensions>
          <ns3:TrackPointExtension>
            <ns3:hr>125</ns3:hr>
            <ns3:cad>51</ns3:cad>
          </ns3:TrackPointExtension>
        </extensions>
      </trkpt>
      <trkpt lat="45.306303240358829498291015625" lon="-71.081744134426116943359375">
        <ele>799</ele>
        <time>2026-08-21T23:23:12.000Z</time>
        <extensions>
          <ns3:TrackPointExtension>
            <ns3:hr>125</ns3:hr>
            <ns3:cad>51</ns3:cad>
          </ns3:TrackPointExtension>
        </extensions>
      </trkpt>
      <trkpt lat="45.30629946850240230560302734375" lon="-71.08175218105316162109375">
        <ele>799.20001220703125</ele>
        <time>2026-08-21T23:23:13.000Z</time>
        <extensions>
          <ns3:TrackPointExtension>
            <ns3:hr>125</ns3:hr>
            <ns3:cad>51</ns3:cad>
          </ns3:TrackPointExtension>
        </extensions>
      </trkpt>
      <trkpt lat="45.30629678629338741302490234375" lon="-71.081768609583377838134765625">
        <ele>799.4000244140625</ele>
        <time>2026-08-21T23:23:14.000Z</time>
        <extensions>
          <ns3:TrackPointExtension>
            <ns3:hr>124</ns3:hr>
            <ns3:cad>51</ns3:cad>
          </ns3:TrackPointExtension>
        </extensions>
      </trkpt>
      <trkpt lat="45.3062953613698482513427734375" lon="-71.08179350383579730987548828125">
        <ele>799.5999755859375</ele>
        <time>2026-08-21T23:23:15.000Z</time>
        <extensions>
          <ns3:TrackPointExtension>
            <ns3:hr>124</ns3:hr>
            <ns3:cad>51</ns3:cad>
          </ns3:TrackPointExtension>
        </extensions>
      </trkpt>
      <trkpt lat="45.30629594810307025909423828125" lon="-71.0818049870431423187255859375">
        <ele>799.79998779296875</ele>
        <time>2026-08-21T23:23:16.000Z</time>
        <extensions>
          <ns3:TrackPointExtension>
            <ns3:hr>124</ns3:hr>
            <ns3:cad>0</ns3:cad>
          </ns3:TrackPointExtension>
        </extensions>
      </trkpt>
      <trkpt lat="45.30629477463662624359130859375" lon="-71.08182753436267375946044921875">
        <ele>800</ele>
        <time>2026-08-21T23:23:17.000Z</time>
        <extensions>
          <ns3:TrackPointExtension>
            <ns3:hr>124</ns3:hr>
            <ns3:cad>0</ns3:cad>
          </ns3:TrackPointExtension>
        </extensions>
      </trkpt>
      <trkpt lat="45.3062935173511505126953125" lon="-71.08184345997869968414306640625">
        <ele>800.20001220703125</ele>
        <time>2026-08-21T23:23:18.000Z</time>
        <extensions>
          <ns3:TrackPointExtension>
            <ns3:hr>124</ns3:hr>
            <ns3:cad>0</ns3:cad>
          </ns3:TrackPointExtension>
        </extensions>
      </trkpt>
      <trkpt lat="45.30628773383796215057373046875" lon="-71.08186022378504276275634765625">
        <ele>800.20001220703125</ele>
        <time>2026-08-21T23:23:19.000Z</time>
        <extensions>
          <ns3:TrackPointExtension>
            <ns3:hr>124</ns3:hr>
            <ns3:cad>0</ns3:cad>
          </ns3:TrackPointExtension>
        </extensions>
      </trkpt>
      <trkpt lat="45.306287147104740142822265625" lon="-71.0818854533135890960693359375">
        <ele>800.4000244140625</ele>
        <time>2026-08-21T23:23:20.000Z</time>
        <extensions>
          <ns3:TrackPointExtension>
            <ns3:hr>124</ns3:hr>
            <ns3:cad>0</ns3:cad>
          </ns3:TrackPointExtension>
        </extensions>
      </trkpt>
      <trkpt lat="45.3062866441905498504638671875" lon="-71.08189458958804607391357421875">
        <ele>800.4000244140625</ele>
        <time>2026-08-21T23:23:21.000Z</time>
        <extensions>
          <ns3:TrackPointExtension>
            <ns3:hr>124</ns3:hr>
            <ns3:cad>0</ns3:cad>
          </ns3:TrackPointExtension>
        </extensions>
      </trkpt>
      <trkpt lat="45.30628706328570842742919921875" lon="-71.08190984465181827545166015625">
        <ele>800.4000244140625</ele>
        <time>2026-08-21T23:23:22.000Z</time>
        <extensions>
          <ns3:TrackPointExtension>
            <ns3:hr>125</ns3:hr>
            <ns3:cad>0</ns3:cad>
          </ns3:TrackPointExtension>
        </extensions>
      </trkpt>
      <trkpt lat="45.3062829561531543731689453125" lon="-71.0819374211132526397705078125">
        <ele>800.4000244140625</ele>
        <time>2026-08-21T23:23:23.000Z</time>
        <extensions>
          <ns3:TrackPointExtension>
            <ns3:hr>125</ns3:hr>
            <ns3:cad>0</ns3:cad>
          </ns3:TrackPointExtension>
        </extensions>
      </trkpt>
      <trkpt lat="45.3062816150486469268798828125" lon="-71.0819592140614986419677734375">
        <ele>800.4000244140625</ele>
        <time>2026-08-21T23:23:24.000Z</time>
        <extensions>
          <ns3:TrackPointExtension>
            <ns3:hr>126</ns3:hr>
            <ns3:cad>0</ns3:cad>
          </ns3:TrackPointExtension>
        </extensions>
      </trkpt>
      <trkpt lat="45.30628102831542491912841796875" lon="-71.081971786916255950927734375">
        <ele>800.4000244140625</ele>
        <time>2026-08-21T23:23:25.000Z</time>
        <extensions>
          <ns3:TrackPointExtension>
            <ns3:hr>126</ns3:hr>
            <ns3:cad>0</ns3:cad>
          </ns3:TrackPointExtension>
        </extensions>
      </trkpt>
      <trkpt lat="45.30627734027802944183349609375" lon="-71.0819910652935504913330078125">
        <ele>800.4000244140625</ele>
        <time>2026-08-21T23:23:26.000Z</time>
        <extensions>
          <ns3:TrackPointExtension>
            <ns3:hr>126</ns3:hr>
            <ns3:cad>0</ns3:cad>
          </ns3:TrackPointExtension>
        </extensions>
      </trkpt>
      <trkpt lat="45.30627415515482425689697265625" lon="-71.0820158757269382476806640625">
        <ele>800.4000244140625</ele>
        <time>2026-08-21T23:23:27.000Z</time>
        <extensions>
          <ns3:TrackPointExtension>
            <ns3:hr>127</ns3:hr>
            <ns3:cad>0</ns3:cad>
          </ns3:TrackPointExtension>
        </extensions>
      </trkpt>
      <trkpt lat="45.30627499334514141082763671875" lon="-71.08203322626650333404541015625">
        <ele>800.4000244140625</ele>
        <time>2026-08-21T23:23:28.000Z</time>
        <extensions>
          <ns3:TrackPointExtension>
            <ns3:hr>128</ns3:hr>
            <ns3:cad>0</ns3:cad>
          </ns3:TrackPointExtension>
        </extensions>
      </trkpt>
      <trkpt lat="45.3062772564589977264404296875" lon="-71.08205418102443218231201171875">
        <ele>800.5999755859375</ele>
        <time>2026-08-21T23:23:29.000Z</time>
        <extensions>
          <ns3:TrackPointExtension>
            <ns3:hr>129</ns3:hr>
            <ns3:cad>0</ns3:cad>
          </ns3:TrackPointExtension>
        </extensions>
      </trkpt>
      <trkpt lat="45.306278765201568603515625" lon="-71.08207211829721927642822265625">
        <ele>800.5999755859375</ele>
        <time>2026-08-21T23:23:30.000Z</time>
        <extensions>
          <ns3:TrackPointExtension>
            <ns3:hr>129</ns3:hr>
            <ns3:cad>0</ns3:cad>
          </ns3:TrackPointExtension>
        </extensions>
      </trkpt>
      <trkpt lat="45.30627666972577571868896484375" lon="-71.082094497978687286376953125">
        <ele>800.5999755859375</ele>
        <time>2026-08-21T23:23:31.000Z</time>
        <extensions>
          <ns3:TrackPointExtension>
            <ns3:hr>128</ns3:hr>
            <ns3:cad>0</ns3:cad>
          </ns3:TrackPointExtension>
        </extensions>
      </trkpt>
      <trkpt lat="45.306273400783538818359375" lon="-71.08211587183177471160888671875">
        <ele>800.79998779296875</ele>
        <time>2026-08-21T23:23:32.000Z</time>
        <extensions>
          <ns3:TrackPointExtension>
            <ns3:hr>128</ns3:hr>
            <ns3:cad>0</ns3:cad>
          </ns3:TrackPointExtension>
        </extensions>
      </trkpt>
      <trkpt lat="45.30627264641225337982177734375" lon="-71.0821389220654964447021484375">
        <ele>800.79998779296875</ele>
        <time>2026-08-21T23:23:33.000Z</time>
        <extensions>
          <ns3:TrackPointExtension>
            <ns3:hr>129</ns3:hr>
            <ns3:cad>0</ns3:cad>
          </ns3:TrackPointExtension>
        </extensions>
      </trkpt>
      <trkpt lat="45.3062692098319530487060546875" lon="-71.08215711079537868499755859375">
        <ele>801</ele>
        <time>2026-08-21T23:23:34.000Z</time>
        <extensions>
          <ns3:TrackPointExtension>
            <ns3:hr>129</ns3:hr>
            <ns3:cad>0</ns3:cad>
          </ns3:TrackPointExtension>
        </extensions>
      </trkpt>
      <trkpt lat="45.3062675334513187408447265625" lon="-71.0821759700775146484375">
        <ele>801.20001220703125</ele>
        <time>2026-08-21T23:23:35.000Z</time>
        <extensions>
          <ns3:TrackPointExtension>
            <ns3:hr>129</ns3:hr>
            <ns3:cad>0</ns3:cad>
          </ns3:TrackPointExtension>
        </extensions>
      </trkpt>
      <trkpt lat="45.30627029947936534881591796875" lon="-71.0821821726858615875244140625">
        <ele>801.4000244140625</ele>
        <time>2026-08-21T23:23:36.000Z</time>
        <extensions>
          <ns3:TrackPointExtension>
            <ns3:hr>128</ns3:hr>
            <ns3:cad>0</ns3:cad>
          </ns3:TrackPointExtension>
        </extensions>
      </trkpt>
      <trkpt lat="45.30627583153545856475830078125" lon="-71.08219382353127002716064453125">
        <ele>801.5999755859375</ele>
        <time>2026-08-21T23:23:37.000Z</time>
        <extensions>
          <ns3:TrackPointExtension>
            <ns3:hr>128</ns3:hr>
            <ns3:cad>0</ns3:cad>
          </ns3:TrackPointExtension>
        </extensions>
      </trkpt>
      <trkpt lat="45.30628144741058349609375" lon="-71.082207150757312774658203125">
        <ele>801.79998779296875</ele>
        <time>2026-08-21T23:23:38.000Z</time>
        <extensions>
          <ns3:TrackPointExtension>
            <ns3:hr>128</ns3:hr>
            <ns3:cad>0</ns3:cad>
          </ns3:TrackPointExtension>
        </extensions>
      </trkpt>
      <trkpt lat="45.3062876500189304351806640625" lon="-71.08222031034529209136962890625">
        <ele>802.20001220703125</ele>
        <time>2026-08-21T23:23:39.000Z</time>
        <extensions>
          <ns3:TrackPointExtension>
            <ns3:hr>129</ns3:hr>
            <ns3:cad>0</ns3:cad>
          </ns3:TrackPointExtension>
        </extensions>
      </trkpt>
      <trkpt lat="45.30629259534180164337158203125" lon="-71.082243025302886962890625">
        <ele>802.4000244140625</ele>
        <time>2026-08-21T23:23:40.000Z</time>
        <extensions>
          <ns3:TrackPointExtension>
            <ns3:hr>129</ns3:hr>
            <ns3:cad>0</ns3:cad>
          </ns3:TrackPointExtension>
        </extensions>
      </trkpt>
      <trkpt lat="45.3062920086085796356201171875" lon="-71.08226205222308635711669921875">
        <ele>802.4000244140625</ele>
        <time>2026-08-21T23:23:41.000Z</time>
        <extensions>
          <ns3:TrackPointExtension>
            <ns3:hr>129</ns3:hr>
            <ns3:cad>0</ns3:cad>
          </ns3:TrackPointExtension>
        </extensions>
      </trkpt>
      <trkpt lat="45.3062933497130870819091796875" lon="-71.0822832584381103515625">
        <ele>802.5999755859375</ele>
        <time>2026-08-21T23:23:42.000Z</time>
        <extensions>
          <ns3:TrackPointExtension>
            <ns3:hr>129</ns3:hr>
            <ns3:cad>0</ns3:cad>
          </ns3:TrackPointExtension>
        </extensions>
      </trkpt>
      <trkpt lat="45.30629125423729419708251953125" lon="-71.0822948254644870758056640625">
        <ele>802.79998779296875</ele>
        <time>2026-08-21T23:23:43.000Z</time>
        <extensions>
          <ns3:TrackPointExtension>
            <ns3:hr>130</ns3:hr>
            <ns3:cad>0</ns3:cad>
          </ns3:TrackPointExtension>
        </extensions>
      </trkpt>
      <trkpt lat="45.30628656037151813507080078125" lon="-71.082321815192699432373046875">
        <ele>802.79998779296875</ele>
        <time>2026-08-21T23:23:44.000Z</time>
        <extensions>
          <ns3:TrackPointExtension>
            <ns3:hr>130</ns3:hr>
            <ns3:cad>0</ns3:cad>
          </ns3:TrackPointExtension>
        </extensions>
      </trkpt>
      <trkpt lat="45.30628438107669353485107421875" lon="-71.0823454521596431732177734375">
        <ele>802.79998779296875</ele>
        <time>2026-08-21T23:23:45.000Z</time>
        <extensions>
          <ns3:TrackPointExtension>
            <ns3:hr>130</ns3:hr>
            <ns3:cad>0</ns3:cad>
          </ns3:TrackPointExtension>
        </extensions>
      </trkpt>
      <trkpt lat="45.3062849678099155426025390625" lon="-71.0823675803840160369873046875">
        <ele>803</ele>
        <time>2026-08-21T23:23:46.000Z</time>
        <extensions>
          <ns3:TrackPointExtension>
            <ns3:hr>131</ns3:hr>
            <ns3:cad>0</ns3:cad>
          </ns3:TrackPointExtension>
        </extensions>
      </trkpt>
      <trkpt lat="45.30628521926701068878173828125" lon="-71.08238878659904003143310546875">
        <ele>803.20001220703125</ele>
        <time>2026-08-21T23:23:47.000Z</time>
        <extensions>
          <ns3:TrackPointExtension>
            <ns3:hr>132</ns3:hr>
            <ns3:cad>0</ns3:cad>
          </ns3:TrackPointExtension>
        </extensions>
      </trkpt>
      <trkpt lat="45.306289829313755035400390625" lon="-71.082414351403713226318359375">
        <ele>803.5999755859375</ele>
        <time>2026-08-21T23:23:48.000Z</time>
        <extensions>
          <ns3:TrackPointExtension>
            <ns3:hr>133</ns3:hr>
            <ns3:cad>0</ns3:cad>
          </ns3:TrackPointExtension>
        </extensions>
      </trkpt>
      <trkpt lat="45.3062933497130870819091796875" lon="-71.08243404887616634368896484375">
        <ele>803.79998779296875</ele>
        <time>2026-08-21T23:23:49.000Z</time>
        <extensions>
          <ns3:TrackPointExtension>
            <ns3:hr>134</ns3:hr>
            <ns3:cad>0</ns3:cad>
          </ns3:TrackPointExtension>
        </extensions>
      </trkpt>
      <trkpt lat="45.306298546493053436279296875" lon="-71.0824527405202388763427734375">
        <ele>804</ele>
        <time>2026-08-21T23:23:50.000Z</time>
        <extensions>
          <ns3:TrackPointExtension>
            <ns3:hr>135</ns3:hr>
            <ns3:cad>0</ns3:cad>
          </ns3:TrackPointExtension>
        </extensions>
      </trkpt>
      <trkpt lat="45.3063037432730197906494140625" lon="-71.08246028423309326171875">
        <ele>804.20001220703125</ele>
        <time>2026-08-21T23:23:51.000Z</time>
        <extensions>
          <ns3:TrackPointExtension>
            <ns3:hr>135</ns3:hr>
            <ns3:cad>0</ns3:cad>
          </ns3:TrackPointExtension>
        </extensions>
      </trkpt>
      <trkpt lat="45.30630483292043209075927734375" lon="-71.08247973024845123291015625">
        <ele>804.5999755859375</ele>
        <time>2026-08-21T23:23:52.000Z</time>
        <extensions>
          <ns3:TrackPointExtension>
            <ns3:hr>136</ns3:hr>
            <ns3:cad>0</ns3:cad>
          </ns3:TrackPointExtension>
        </extensions>
      </trkpt>
      <trkpt lat="45.30629913322627544403076171875" lon="-71.08250143937766551971435546875">
        <ele>804.5999755859375</ele>
        <time>2026-08-21T23:23:53.000Z</time>
        <extensions>
          <ns3:TrackPointExtension>
            <ns3:hr>136</ns3:hr>
            <ns3:cad>0</ns3:cad>
          </ns3:TrackPointExtension>
        </extensions>
      </trkpt>
      <trkpt lat="45.30629779212176799774169921875" lon="-71.082521975040435791015625">
        <ele>804.79998779296875</ele>
        <time>2026-08-21T23:23:54.000Z</time>
        <extensions>
          <ns3:TrackPointExtension>
            <ns3:hr>136</ns3:hr>
            <ns3:cad>52</ns3:cad>
          </ns3:TrackPointExtension>
        </extensions>
      </trkpt>
      <trkpt lat="45.3063017316162586212158203125" lon="-71.08253873884677886962890625">
        <ele>805</ele>
        <time>2026-08-21T23:23:55.000Z</time>
        <extensions>
          <ns3:TrackPointExtension>
            <ns3:hr>136</ns3:hr>
            <ns3:cad>52</ns3:cad>
          </ns3:TrackPointExtension>
        </extensions>
      </trkpt>
      <trkpt lat="45.3063040785491466522216796875" lon="-71.082555167376995086669921875">
        <ele>805.20001220703125</ele>
        <time>2026-08-21T23:23:56.000Z</time>
        <extensions>
          <ns3:TrackPointExtension>
            <ns3:hr>136</ns3:hr>
            <ns3:cad>51</ns3:cad>
          </ns3:TrackPointExtension>
        </extensions>
      </trkpt>
      <trkpt lat="45.3063040785491466522216796875" lon="-71.08256866224110126495361328125">
        <ele>805.20001220703125</ele>
        <time>2026-08-21T23:23:57.000Z</time>
        <extensions>
          <ns3:TrackPointExtension>
            <ns3:hr>137</ns3:hr>
            <ns3:cad>51</ns3:cad>
          </ns3:TrackPointExtension>
        </extensions>
      </trkpt>
      <trkpt lat="45.30630433000624179840087890625" lon="-71.0825881920754909515380859375">
        <ele>805.20001220703125</ele>
        <time>2026-08-21T23:23:58.000Z</time>
        <extensions>
          <ns3:TrackPointExtension>
            <ns3:hr>136</ns3:hr>
            <ns3:cad>50</ns3:cad>
          </ns3:TrackPointExtension>
        </extensions>
      </trkpt>
      <trkpt lat="45.30630215071141719818115234375" lon="-71.08260579407215118408203125">
        <ele>805.4000244140625</ele>
        <time>2026-08-21T23:23:59.000Z</time>
        <extensions>
          <ns3:TrackPointExtension>
            <ns3:hr>136</ns3:hr>
            <ns3:cad>50</ns3:cad>
          </ns3:TrackPointExtension>
        </extensions>
      </trkpt>
      <trkpt lat="45.30630114488303661346435546875" lon="-71.08262130059301853179931640625">
        <ele>805.5999755859375</ele>
        <time>2026-08-21T23:24:00.000Z</time>
        <extensions>
          <ns3:TrackPointExtension>
            <ns3:hr>135</ns3:hr>
            <ns3:cad>50</ns3:cad>
          </ns3:TrackPointExtension>
        </extensions>
      </trkpt>
      <trkpt lat="45.30629863031208515167236328125" lon="-71.08264108188450336456298828125">
        <ele>805.79998779296875</ele>
        <time>2026-08-21T23:24:01.000Z</time>
        <extensions>
          <ns3:TrackPointExtension>
            <ns3:hr>134</ns3:hr>
            <ns3:cad>0</ns3:cad>
          </ns3:TrackPointExtension>
        </extensions>
      </trkpt>
      <trkpt lat="45.30629661865532398223876953125" lon="-71.082659102976322174072265625">
        <ele>806</ele>
        <time>2026-08-21T23:24:02.000Z</time>
        <extensions>
          <ns3:TrackPointExtension>
            <ns3:hr>135</ns3:hr>
            <ns3:cad>0</ns3:cad>
          </ns3:TrackPointExtension>
        </extensions>
      </trkpt>
      <trkpt lat="45.30629477463662624359130859375" lon="-71.08267695643007755279541015625">
        <ele>806.20001220703125</ele>
        <time>2026-08-21T23:24:03.000Z</time>
        <extensions>
          <ns3:TrackPointExtension>
            <ns3:hr>135</ns3:hr>
            <ns3:cad>54</ns3:cad>
          </ns3:TrackPointExtension>
        </extensions>
      </trkpt>
      <trkpt lat="45.3062908351421356201171875" lon="-71.08269019983708858489990234375">
        <ele>806.4000244140625</ele>
        <time>2026-08-21T23:24:04.000Z</time>
        <extensions>
          <ns3:TrackPointExtension>
            <ns3:hr>135</ns3:hr>
            <ns3:cad>54</ns3:cad>
          </ns3:TrackPointExtension>
        </extensions>
      </trkpt>
      <trkpt lat="45.3062816150486469268798828125" lon="-71.08270101249217987060546875">
        <ele>806.4000244140625</ele>
        <time>2026-08-21T23:24:05.000Z</time>
        <extensions>
          <ns3:TrackPointExtension>
            <ns3:hr>135</ns3:hr>
            <ns3:cad>54</ns3:cad>
          </ns3:TrackPointExtension>
        </extensions>
      </trkpt>
      <trkpt lat="45.30627884902060031890869140625" lon="-71.08271065168082714080810546875">
        <ele>806.4000244140625</ele>
        <time>2026-08-21T23:24:06.000Z</time>
        <extensions>
          <ns3:TrackPointExtension>
            <ns3:hr>136</ns3:hr>
            <ns3:cad>0</ns3:cad>
          </ns3:TrackPointExtension>
        </extensions>
      </trkpt>
      <trkpt lat="45.3062749095261096954345703125" lon="-71.08272473327815532684326171875">
        <ele>806.4000244140625</ele>
        <time>2026-08-21T23:24:07.000Z</time>
        <extensions>
          <ns3:TrackPointExtension>
            <ns3:hr>136</ns3:hr>
            <ns3:cad>0</ns3:cad>
          </ns3:TrackPointExtension>
        </extensions>
      </trkpt>
      <trkpt lat="45.306270383298397064208984375" lon="-71.0827367193996906280517578125">
        <ele>806.4000244140625</ele>
        <time>2026-08-21T23:24:08.000Z</time>
        <extensions>
          <ns3:TrackPointExtension>
            <ns3:hr>136</ns3:hr>
            <ns3:cad>0</ns3:cad>
          </ns3:TrackPointExtension>
        </extensions>
      </trkpt>
      <trkpt lat="45.30626208521425724029541015625" lon="-71.082753650844097137451171875">
        <ele>806.4000244140625</ele>
        <time>2026-08-21T23:24:09.000Z</time>
        <extensions>
          <ns3:TrackPointExtension>
            <ns3:hr>136</ns3:hr>
            <ns3:cad>0</ns3:cad>
          </ns3:TrackPointExtension>
        </extensions>
      </trkpt>
      <trkpt lat="45.30624934472143650054931640625" lon="-71.0827605240046977996826171875">
        <ele>806.20001220703125</ele>
        <time>2026-08-21T23:24:10.000Z</time>
        <extensions>
          <ns3:TrackPointExtension>
            <ns3:hr>136</ns3:hr>
            <ns3:cad>48</ns3:cad>
          </ns3:TrackPointExtension>
        </extensions>
      </trkpt>
      <trkpt lat="45.306241549551486968994140625" lon="-71.082771085202693939208984375">
        <ele>806</ele>
        <time>2026-08-21T23:24:11.000Z</time>
        <extensions>
          <ns3:TrackPointExtension>
            <ns3:hr>136</ns3:hr>
            <ns3:cad>48</ns3:cad>
          </ns3:TrackPointExtension>
        </extensions>
      </trkpt>
      <trkpt lat="45.30623174272477626800537109375" lon="-71.08278005383908748626708984375">
        <ele>806</ele>
        <time>2026-08-21T23:24:12.000Z</time>
        <extensions>
          <ns3:TrackPointExtension>
            <ns3:hr>137</ns3:hr>
            <ns3:cad>48</ns3:cad>
          </ns3:TrackPointExtension>
        </extensions>
      </trkpt>
      <trkpt lat="45.3062212653458118438720703125" lon="-71.0827870108187198638916015625">
        <ele>805.79998779296875</ele>
        <time>2026-08-21T23:24:13.000Z</time>
        <extensions>
          <ns3:TrackPointExtension>
            <ns3:hr>136</ns3:hr>
            <ns3:cad>48</ns3:cad>
          </ns3:TrackPointExtension>
        </extensions>
      </trkpt>
      <trkpt lat="45.30621078796684741973876953125" lon="-71.0827982425689697265625">
        <ele>805.4000244140625</ele>
        <time>2026-08-21T23:24:14.000Z</time>
        <extensions>
          <ns3:TrackPointExtension>
            <ns3:hr>137</ns3:hr>
            <ns3:cad>48</ns3:cad>
          </ns3:TrackPointExtension>
        </extensions>
      </trkpt>
      <trkpt lat="45.30619787983596324920654296875" lon="-71.0828064568340778350830078125">
        <ele>805.20001220703125</ele>
        <time>2026-08-21T23:24:15.000Z</time>
        <extensions>
          <ns3:TrackPointExtension>
            <ns3:hr>138</ns3:hr>
            <ns3:cad>58</ns3:cad>
          </ns3:TrackPointExtension>
        </extensions>
      </trkpt>
      <trkpt lat="45.306186564266681671142578125" lon="-71.0828094743192195892333984375">
        <ele>804.79998779296875</ele>
        <time>2026-08-21T23:24:16.000Z</time>
        <extensions>
          <ns3:TrackPointExtension>
            <ns3:hr>138</ns3:hr>
            <ns3:cad>58</ns3:cad>
          </ns3:TrackPointExtension>
        </extensions>
      </trkpt>
      <trkpt lat="45.30617709271609783172607421875" lon="-71.0828101448714733123779296875">
        <ele>804.5999755859375</ele>
        <time>2026-08-21T23:24:17.000Z</time>
        <extensions>
          <ns3:TrackPointExtension>
            <ns3:hr>138</ns3:hr>
            <ns3:cad>58</ns3:cad>
          </ns3:TrackPointExtension>
        </extensions>
      </trkpt>
      <trkpt lat="45.3061669506132602691650390625" lon="-71.08281592838466167449951171875">
        <ele>804.4000244140625</ele>
        <time>2026-08-21T23:24:18.000Z</time>
        <extensions>
          <ns3:TrackPointExtension>
            <ns3:hr>137</ns3:hr>
            <ns3:cad>0</ns3:cad>
          </ns3:TrackPointExtension>
        </extensions>
      </trkpt>
      <trkpt lat="45.30615496449172496795654296875" lon="-71.0828185267746448516845703125">
        <ele>804.20001220703125</ele>
        <time>2026-08-21T23:24:19.000Z</time>
        <extensions>
          <ns3:TrackPointExtension>
            <ns3:hr>137</ns3:hr>
            <ns3:cad>0</ns3:cad>
          </ns3:TrackPointExtension>
        </extensions>
      </trkpt>
      <trkpt lat="45.30614054761826992034912109375" lon="-71.08281810767948627471923828125">
        <ele>804</ele>
        <time>2026-08-21T23:24:20.000Z</time>
        <extensions>
          <ns3:TrackPointExtension>
            <ns3:hr>136</ns3:hr>
            <ns3:cad>0</ns3:cad>
          </ns3:TrackPointExtension>
        </extensions>
      </trkpt>
      <trkpt lat="45.30612680129706859588623046875" lon="-71.0828205384314060211181640625">
        <ele>803.79998779296875</ele>
        <time>2026-08-21T23:24:21.000Z</time>
        <extensions>
          <ns3:TrackPointExtension>
            <ns3:hr>136</ns3:hr>
            <ns3:cad>0</ns3:cad>
          </ns3:TrackPointExtension>
        </extensions>
      </trkpt>
      <trkpt lat="45.30611313879489898681640625" lon="-71.0828245617449283599853515625">
        <ele>803.79998779296875</ele>
        <time>2026-08-21T23:24:22.000Z</time>
        <extensions>
          <ns3:TrackPointExtension>
            <ns3:hr>136</ns3:hr>
            <ns3:cad>62</ns3:cad>
          </ns3:TrackPointExtension>
        </extensions>
      </trkpt>
      <trkpt lat="45.30609930865466594696044921875" lon="-71.08281902968883514404296875">
        <ele>803.5999755859375</ele>
        <time>2026-08-21T23:24:23.000Z</time>
        <extensions>
          <ns3:TrackPointExtension>
            <ns3:hr>136</ns3:hr>
            <ns3:cad>62</ns3:cad>
          </ns3:TrackPointExtension>
        </extensions>
      </trkpt>
      <trkpt lat="45.30608640052378177642822265625" lon="-71.08282397501170635223388671875">
        <ele>803.20001220703125</ele>
        <time>2026-08-21T23:24:24.000Z</time>
        <extensions>
          <ns3:TrackPointExtension>
            <ns3:hr>135</ns3:hr>
            <ns3:cad>62</ns3:cad>
          </ns3:TrackPointExtension>
        </extensions>
      </trkpt>
      <trkpt lat="45.30607114546000957489013671875" lon="-71.08282883651554584503173828125">
        <ele>803</ele>
        <time>2026-08-21T23:24:25.000Z</time>
        <extensions>
          <ns3:TrackPointExtension>
            <ns3:hr>135</ns3:hr>
            <ns3:cad>62</ns3:cad>
          </ns3:TrackPointExtension>
        </extensions>
      </trkpt>
      <trkpt lat="45.306055136024951934814453125" lon="-71.08283772133290767669677734375">
        <ele>802.5999755859375</ele>
        <time>2026-08-21T23:24:26.000Z</time>
        <extensions>
          <ns3:TrackPointExtension>
            <ns3:hr>134</ns3:hr>
            <ns3:cad>62</ns3:cad>
          </ns3:TrackPointExtension>
        </extensions>
      </trkpt>
      <trkpt lat="45.30603711493313312530517578125" lon="-71.082849539816379547119140625">
        <ele>802.4000244140625</ele>
        <time>2026-08-21T23:24:27.000Z</time>
        <extensions>
          <ns3:TrackPointExtension>
            <ns3:hr>134</ns3:hr>
            <ns3:cad>62</ns3:cad>
          </ns3:TrackPointExtension>
        </extensions>
      </trkpt>
      <trkpt lat="45.3060224466025829315185546875" lon="-71.08285951428115367889404296875">
        <ele>802</ele>
        <time>2026-08-21T23:24:28.000Z</time>
        <extensions>
          <ns3:TrackPointExtension>
            <ns3:hr>133</ns3:hr>
            <ns3:cad>62</ns3:cad>
          </ns3:TrackPointExtension>
        </extensions>
      </trkpt>
      <trkpt lat="45.3060093708336353302001953125" lon="-71.08286521397531032562255859375">
        <ele>801.79998779296875</ele>
        <time>2026-08-21T23:24:29.000Z</time>
        <extensions>
          <ns3:TrackPointExtension>
            <ns3:hr>133</ns3:hr>
            <ns3:cad>0</ns3:cad>
          </ns3:TrackPointExtension>
        </extensions>
      </trkpt>
      <trkpt lat="45.30599688179790973663330078125" lon="-71.0828678123652935028076171875">
        <ele>801.4000244140625</ele>
        <time>2026-08-21T23:24:30.000Z</time>
        <extensions>
          <ns3:TrackPointExtension>
            <ns3:hr>133</ns3:hr>
            <ns3:cad>0</ns3:cad>
          </ns3:TrackPointExtension>
        </extensions>
      </trkpt>
      <trkpt lat="45.3059778548777103424072265625" lon="-71.082880385220050811767578125">
        <ele>801</ele>
        <time>2026-08-21T23:24:31.000Z</time>
        <extensions>
          <ns3:TrackPointExtension>
            <ns3:hr>133</ns3:hr>
            <ns3:cad>0</ns3:cad>
          </ns3:TrackPointExtension>
        </extensions>
      </trkpt>
      <trkpt lat="45.3059620968997478485107421875" lon="-71.08289119787514209747314453125">
        <ele>800.79998779296875</ele>
        <time>2026-08-21T23:24:32.000Z</time>
        <extensions>
          <ns3:TrackPointExtension>
            <ns3:hr>133</ns3:hr>
            <ns3:cad>0</ns3:cad>
          </ns3:TrackPointExtension>
        </extensions>
      </trkpt>
      <trkpt lat="45.30594843439757823944091796875" lon="-71.0828989930450916290283203125">
        <ele>800.5999755859375</ele>
        <time>2026-08-21T23:24:33.000Z</time>
        <extensions>
          <ns3:TrackPointExtension>
            <ns3:hr>133</ns3:hr>
            <ns3:cad>0</ns3:cad>
          </ns3:TrackPointExtension>
        </extensions>
      </trkpt>
      <trkpt lat="45.30593351460993289947509765625" lon="-71.082906536757946014404296875">
        <ele>800.5999755859375</ele>
        <time>2026-08-21T23:24:34.000Z</time>
        <extensions>
          <ns3:TrackPointExtension>
            <ns3:hr>133</ns3:hr>
            <ns3:cad>0</ns3:cad>
          </ns3:TrackPointExtension>
        </extensions>
      </trkpt>
      <trkpt lat="45.3059180080890655517578125" lon="-71.08291684649884700775146484375">
        <ele>800.5999755859375</ele>
        <time>2026-08-21T23:24:35.000Z</time>
        <extensions>
          <ns3:TrackPointExtension>
            <ns3:hr>132</ns3:hr>
            <ns3:cad>0</ns3:cad>
          </ns3:TrackPointExtension>
        </extensions>
      </trkpt>
      <trkpt lat="45.305900238454341888427734375" lon="-71.08293034136295318603515625">
        <ele>800.5999755859375</ele>
        <time>2026-08-21T23:24:36.000Z</time>
        <extensions>
          <ns3:TrackPointExtension>
            <ns3:hr>132</ns3:hr>
            <ns3:cad>69</ns3:cad>
          </ns3:TrackPointExtension>
        </extensions>
      </trkpt>
      <trkpt lat="45.305883474647998809814453125" lon="-71.08294308185577392578125">
        <ele>800.79998779296875</ele>
        <time>2026-08-21T23:24:37.000Z</time>
        <extensions>
          <ns3:TrackPointExtension>
            <ns3:hr>132</ns3:hr>
            <ns3:cad>71</ns3:cad>
          </ns3:TrackPointExtension>
        </extensions>
      </trkpt>
      <trkpt lat="45.30587098561227321624755859375" lon="-71.08295288868248462677001953125">
        <ele>800.79998779296875</ele>
        <time>2026-08-21T23:24:38.000Z</time>
        <extensions>
          <ns3:TrackPointExtension>
            <ns3:hr>132</ns3:hr>
            <ns3:cad>71</ns3:cad>
          </ns3:TrackPointExtension>
        </extensions>
      </trkpt>
      <trkpt lat="45.3058618493378162384033203125" lon="-71.08296160586178302764892578125">
        <ele>801</ele>
        <time>2026-08-21T23:24:39.000Z</time>
        <extensions>
          <ns3:TrackPointExtension>
            <ns3:hr>132</ns3:hr>
            <ns3:cad>71</ns3:cad>
          </ns3:TrackPointExtension>
        </extensions>
      </trkpt>
      <trkpt lat="45.30585304833948612213134765625" lon="-71.08297132886946201324462890625">
        <ele>801.20001220703125</ele>
        <time>2026-08-21T23:24:40.000Z</time>
        <extensions>
          <ns3:TrackPointExtension>
            <ns3:hr>132</ns3:hr>
            <ns3:cad>71</ns3:cad>
          </ns3:TrackPointExtension>
        </extensions>
      </trkpt>
      <trkpt lat="45.30584516935050487518310546875" lon="-71.0829821415245532989501953125">
        <ele>801.4000244140625</ele>
        <time>2026-08-21T23:24:41.000Z</time>
        <extensions>
          <ns3:TrackPointExtension>
            <ns3:hr>131</ns3:hr>
            <ns3:cad>0</ns3:cad>
          </ns3:TrackPointExtension>
        </extensions>
      </trkpt>
      <trkpt lat="45.30583661980926990509033203125" lon="-71.08298792503774166107177734375">
        <ele>801.5999755859375</ele>
        <time>2026-08-21T23:24:42.000Z</time>
        <extensions>
          <ns3:TrackPointExtension>
            <ns3:hr>131</ns3:hr>
            <ns3:cad>0</ns3:cad>
          </ns3:TrackPointExtension>
        </extensions>
      </trkpt>
      <trkpt lat="45.30582823790609836578369140625" lon="-71.08298859558999538421630859375">
        <ele>801.5999755859375</ele>
        <time>2026-08-21T23:24:43.000Z</time>
        <extensions>
          <ns3:TrackPointExtension>
            <ns3:hr>131</ns3:hr>
            <ns3:cad>0</ns3:cad>
          </ns3:TrackPointExtension>
        </extensions>
      </trkpt>
      <trkpt lat="45.3058187663555145263671875" lon="-71.08299043960869312286376953125">
        <ele>801.79998779296875</ele>
        <time>2026-08-21T23:24:44.000Z</time>
        <extensions>
          <ns3:TrackPointExtension>
            <ns3:hr>131</ns3:hr>
            <ns3:cad>48</ns3:cad>
          </ns3:TrackPointExtension>
        </extensions>
      </trkpt>
      <trkpt lat="45.30580493621528148651123046875" lon="-71.08299463056027889251708984375">
        <ele>801.79998779296875</ele>
        <time>2026-08-21T23:24:45.000Z</time>
        <extensions>
          <ns3:TrackPointExtension>
            <ns3:hr>131</ns3:hr>
            <ns3:cad>48</ns3:cad>
          </ns3:TrackPointExtension>
        </extensions>
      </trkpt>
      <trkpt lat="45.305794291198253631591796875" lon="-71.08299203217029571533203125">
        <ele>801.79998779296875</ele>
        <time>2026-08-21T23:24:46.000Z</time>
        <extensions>
          <ns3:TrackPointExtension>
            <ns3:hr>131</ns3:hr>
            <ns3:cad>48</ns3:cad>
          </ns3:TrackPointExtension>
        </extensions>
      </trkpt>
      <trkpt lat="45.30578666366636753082275390625" lon="-71.082987673580646514892578125">
        <ele>801.79998779296875</ele>
        <time>2026-08-21T23:24:47.000Z</time>
        <extensions>
          <ns3:TrackPointExtension>
            <ns3:hr>132</ns3:hr>
            <ns3:cad>48</ns3:cad>
          </ns3:TrackPointExtension>
        </extensions>
      </trkpt>
      <trkpt lat="45.30577576719224452972412109375" lon="-71.08299295417964458465576171875">
        <ele>801.79998779296875</ele>
        <time>2026-08-21T23:24:48.000Z</time>
        <extensions>
          <ns3:TrackPointExtension>
            <ns3:hr>131</ns3:hr>
            <ns3:cad>48</ns3:cad>
          </ns3:TrackPointExtension>
        </extensions>
      </trkpt>
      <trkpt lat="45.30576520599424839019775390625" lon="-71.08300200663506984710693359375">
        <ele>801.79998779296875</ele>
        <time>2026-08-21T23:24:49.000Z</time>
        <extensions>
          <ns3:TrackPointExtension>
            <ns3:hr>130</ns3:hr>
            <ns3:cad>48</ns3:cad>
          </ns3:TrackPointExtension>
        </extensions>
      </trkpt>
      <trkpt lat="45.30576017685234546661376953125" lon="-71.08300552703440189361572265625">
        <ele>801.5999755859375</ele>
        <time>2026-08-21T23:24:50.000Z</time>
        <extensions>
          <ns3:TrackPointExtension>
            <ns3:hr>129</ns3:hr>
            <ns3:cad>48</ns3:cad>
          </ns3:TrackPointExtension>
        </extensions>
      </trkpt>
      <trkpt lat="45.305752716958522796630859375" lon="-71.08301541768014430999755859375">
        <ele>801.4000244140625</ele>
        <time>2026-08-21T23:24:51.000Z</time>
        <extensions>
          <ns3:TrackPointExtension>
            <ns3:hr>127</ns3:hr>
            <ns3:cad>0</ns3:cad>
          </ns3:TrackPointExtension>
        </extensions>
      </trkpt>
      <trkpt lat="45.30574374832212924957275390625" lon="-71.08303369022905826568603515625">
        <ele>801.20001220703125</ele>
        <time>2026-08-21T23:24:52.000Z</time>
        <extensions>
          <ns3:TrackPointExtension>
            <ns3:hr>127</ns3:hr>
            <ns3:cad>0</ns3:cad>
          </ns3:TrackPointExtension>
        </extensions>
      </trkpt>
      <trkpt lat="45.30573503114283084869384765625" lon="-71.0830451734364032745361328125">
        <ele>801</ele>
        <time>2026-08-21T23:24:53.000Z</time>
        <extensions>
          <ns3:TrackPointExtension>
            <ns3:hr>126</ns3:hr>
            <ns3:cad>0</ns3:cad>
          </ns3:TrackPointExtension>
        </extensions>
      </trkpt>
      <trkpt lat="45.30572690069675445556640625" lon="-71.08306453563272953033447265625">
        <ele>800.79998779296875</ele>
        <time>2026-08-21T23:24:54.000Z</time>
        <extensions>
          <ns3:TrackPointExtension>
            <ns3:hr>125</ns3:hr>
            <ns3:cad>0</ns3:cad>
          </ns3:TrackPointExtension>
        </extensions>
      </trkpt>
      <trkpt lat="45.3057223744690418243408203125" lon="-71.08308264054358005523681640625">
        <ele>800.79998779296875</ele>
        <time>2026-08-21T23:24:55.000Z</time>
        <extensions>
          <ns3:TrackPointExtension>
            <ns3:hr>126</ns3:hr>
            <ns3:cad>0</ns3:cad>
          </ns3:TrackPointExtension>
        </extensions>
      </trkpt>
      <trkpt lat="45.30571709387004375457763671875" lon="-71.08310091309249401092529296875">
        <ele>800.79998779296875</ele>
        <time>2026-08-21T23:24:56.000Z</time>
        <extensions>
          <ns3:TrackPointExtension>
            <ns3:hr>126</ns3:hr>
            <ns3:cad>0</ns3:cad>
          </ns3:TrackPointExtension>
        </extensions>
      </trkpt>
      <trkpt lat="45.3057049401104450225830078125" lon="-71.083122454583644866943359375">
        <ele>800.79998779296875</ele>
        <time>2026-08-21T23:24:57.000Z</time>
        <extensions>
          <ns3:TrackPointExtension>
            <ns3:hr>126</ns3:hr>
            <ns3:cad>0</ns3:cad>
          </ns3:TrackPointExtension>
        </extensions>
      </trkpt>
      <trkpt lat="45.305701084434986114501953125" lon="-71.08313980512320995330810546875">
        <ele>800.79998779296875</ele>
        <time>2026-08-21T23:24:58.000Z</time>
        <extensions>
          <ns3:TrackPointExtension>
            <ns3:hr>125</ns3:hr>
            <ns3:cad>59</ns3:cad>
          </ns3:TrackPointExtension>
        </extensions>
      </trkpt>
      <trkpt lat="45.30570007860660552978515625" lon="-71.0831491090357303619384765625">
        <ele>800.79998779296875</ele>
        <time>2026-08-21T23:24:59.000Z</time>
        <extensions>
          <ns3:TrackPointExtension>
            <ns3:hr>125</ns3:hr>
            <ns3:cad>59</ns3:cad>
          </ns3:TrackPointExtension>
        </extensions>
      </trkpt>
      <trkpt lat="45.3056948818266391754150390625" lon="-71.083164699375629425048828125">
        <ele>800.5999755859375</ele>
        <time>2026-08-21T23:25:00.000Z</time>
        <extensions>
          <ns3:TrackPointExtension>
            <ns3:hr>124</ns3:hr>
            <ns3:cad>0</ns3:cad>
          </ns3:TrackPointExtension>
        </extensions>
      </trkpt>
      <trkpt lat="45.3056898526847362518310546875" lon="-71.08318087644875049591064453125">
        <ele>800.4000244140625</ele>
        <time>2026-08-21T23:25:01.000Z</time>
        <extensions>
          <ns3:TrackPointExtension>
            <ns3:hr>124</ns3:hr>
            <ns3:cad>0</ns3:cad>
          </ns3:TrackPointExtension>
        </extensions>
      </trkpt>
      <trkpt lat="45.305688343942165374755859375" lon="-71.08319588005542755126953125">
        <ele>800</ele>
        <time>2026-08-21T23:25:02.000Z</time>
        <extensions>
          <ns3:TrackPointExtension>
            <ns3:hr>124</ns3:hr>
            <ns3:cad>0</ns3:cad>
          </ns3:TrackPointExtension>
        </extensions>
      </trkpt>
      <trkpt lat="45.30568054877221584320068359375" lon="-71.083217673003673553466796875">
        <ele>799.79998779296875</ele>
        <time>2026-08-21T23:25:03.000Z</time>
        <extensions>
          <ns3:TrackPointExtension>
            <ns3:hr>124</ns3:hr>
            <ns3:cad>0</ns3:cad>
          </ns3:TrackPointExtension>
        </extensions>
      </trkpt>
      <trkpt lat="45.30567518435418605804443359375" lon="-71.08323167078197002410888671875">
        <ele>799.5999755859375</ele>
        <time>2026-08-21T23:25:04.000Z</time>
        <extensions>
          <ns3:TrackPointExtension>
            <ns3:hr>124</ns3:hr>
            <ns3:cad>0</ns3:cad>
          </ns3:TrackPointExtension>
        </extensions>
      </trkpt>
      <trkpt lat="45.30567585490643978118896484375" lon="-71.083249188959598541259765625">
        <ele>799.4000244140625</ele>
        <time>2026-08-21T23:25:05.000Z</time>
        <extensions>
          <ns3:TrackPointExtension>
            <ns3:hr>124</ns3:hr>
            <ns3:cad>0</ns3:cad>
          </ns3:TrackPointExtension>
        </extensions>
      </trkpt>
      <trkpt lat="45.3056685626506805419921875" lon="-71.0832664556801319122314453125">
        <ele>799.4000244140625</ele>
        <time>2026-08-21T23:25:06.000Z</time>
        <extensions>
          <ns3:TrackPointExtension>
            <ns3:hr>123</ns3:hr>
            <ns3:cad>0</ns3:cad>
          </ns3:TrackPointExtension>
        </extensions>
      </trkpt>
      <trkpt lat="45.30566076748073101043701171875" lon="-71.08327659778296947479248046875">
        <ele>799.20001220703125</ele>
        <time>2026-08-21T23:25:07.000Z</time>
        <extensions>
          <ns3:TrackPointExtension>
            <ns3:hr>123</ns3:hr>
            <ns3:cad>0</ns3:cad>
          </ns3:TrackPointExtension>
        </extensions>
      </trkpt>
      <trkpt lat="45.30565590597689151763916015625" lon="-71.0832905955612659454345703125">
        <ele>799</ele>
        <time>2026-08-21T23:25:08.000Z</time>
        <extensions>
          <ns3:TrackPointExtension>
            <ns3:hr>122</ns3:hr>
            <ns3:cad>0</ns3:cad>
          </ns3:TrackPointExtension>
        </extensions>
      </trkpt>
      <trkpt lat="45.3056536428630352020263671875" lon="-71.08330626972019672393798828125">
        <ele>798.79998779296875</ele>
        <time>2026-08-21T23:25:09.000Z</time>
        <extensions>
          <ns3:TrackPointExtension>
            <ns3:hr>122</ns3:hr>
            <ns3:cad>0</ns3:cad>
          </ns3:TrackPointExtension>
        </extensions>
      </trkpt>
      <trkpt lat="45.305656157433986663818359375" lon="-71.08332001604139804840087890625">
        <ele>798.5999755859375</ele>
        <time>2026-08-21T23:25:10.000Z</time>
        <extensions>
          <ns3:TrackPointExtension>
            <ns3:hr>122</ns3:hr>
            <ns3:cad>0</ns3:cad>
          </ns3:TrackPointExtension>
        </extensions>
      </trkpt>
      <trkpt lat="45.30564735643565654754638671875" lon="-71.08333929441869258880615234375">
        <ele>798.4000244140625</ele>
        <time>2026-08-21T23:25:11.000Z</time>
        <extensions>
          <ns3:TrackPointExtension>
            <ns3:hr>122</ns3:hr>
            <ns3:cad>0</ns3:cad>
          </ns3:TrackPointExtension>
        </extensions>
      </trkpt>
      <trkpt lat="45.30564115382730960845947265625" lon="-71.08335924334824085235595703125">
        <ele>798</ele>
        <time>2026-08-21T23:25:12.000Z</time>
        <extensions>
          <ns3:TrackPointExtension>
            <ns3:hr>122</ns3:hr>
            <ns3:cad>0</ns3:cad>
          </ns3:TrackPointExtension>
        </extensions>
      </trkpt>
      <trkpt lat="45.3056352026760578155517578125" lon="-71.083364523947238922119140625">
        <ele>797.79998779296875</ele>
        <time>2026-08-21T23:25:13.000Z</time>
        <extensions>
          <ns3:TrackPointExtension>
            <ns3:hr>121</ns3:hr>
            <ns3:cad>0</ns3:cad>
          </ns3:TrackPointExtension>
        </extensions>
      </trkpt>
      <trkpt lat="45.30562422238290309906005859375" lon="-71.08338455669581890106201171875">
        <ele>797.5999755859375</ele>
        <time>2026-08-21T23:25:14.000Z</time>
        <extensions>
          <ns3:TrackPointExtension>
            <ns3:hr>122</ns3:hr>
            <ns3:cad>0</ns3:cad>
          </ns3:TrackPointExtension>
        </extensions>
      </trkpt>
      <trkpt lat="45.30561382882297039031982421875" lon="-71.08341045677661895751953125">
        <ele>797.5999755859375</ele>
        <time>2026-08-21T23:25:15.000Z</time>
        <extensions>
          <ns3:TrackPointExtension>
            <ns3:hr>122</ns3:hr>
            <ns3:cad>0</ns3:cad>
          </ns3:TrackPointExtension>
        </extensions>
      </trkpt>
      <trkpt lat="45.30561148189008235931396484375" lon="-71.0834377817809581756591796875">
        <ele>797.4000244140625</ele>
        <time>2026-08-21T23:25:16.000Z</time>
        <extensions>
          <ns3:TrackPointExtension>
            <ns3:hr>122</ns3:hr>
            <ns3:cad>0</ns3:cad>
          </ns3:TrackPointExtension>
        </extensions>
      </trkpt>
      <trkpt lat="45.30561382882297039031982421875" lon="-71.08346133492887020111083984375">
        <ele>797.4000244140625</ele>
        <time>2026-08-21T23:25:17.000Z</time>
        <extensions>
          <ns3:TrackPointExtension>
            <ns3:hr>121</ns3:hr>
            <ns3:cad>0</ns3:cad>
          </ns3:TrackPointExtension>
        </extensions>
      </trkpt>
      <trkpt lat="45.3056113980710506439208984375" lon="-71.083488576114177703857421875">
        <ele>797.4000244140625</ele>
        <time>2026-08-21T23:25:18.000Z</time>
        <extensions>
          <ns3:TrackPointExtension>
            <ns3:hr>122</ns3:hr>
            <ns3:cad>0</ns3:cad>
          </ns3:TrackPointExtension>
        </extensions>
      </trkpt>
      <trkpt lat="45.3056036867201328277587890625" lon="-71.08350290916860103607177734375">
        <ele>797.4000244140625</ele>
        <time>2026-08-21T23:25:19.000Z</time>
        <extensions>
          <ns3:TrackPointExtension>
            <ns3:hr>122</ns3:hr>
            <ns3:cad>0</ns3:cad>
          </ns3:TrackPointExtension>
        </extensions>
      </trkpt>
      <trkpt lat="45.30559505335986614227294921875" lon="-71.08352805487811565399169921875">
        <ele>797.20001220703125</ele>
        <time>2026-08-21T23:25:20.000Z</time>
        <extensions>
          <ns3:TrackPointExtension>
            <ns3:hr>123</ns3:hr>
            <ns3:cad>0</ns3:cad>
          </ns3:TrackPointExtension>
        </extensions>
      </trkpt>
      <trkpt lat="45.30559052713215351104736328125" lon="-71.08354481868445873260498046875">
        <ele>797.20001220703125</ele>
        <time>2026-08-21T23:25:21.000Z</time>
        <extensions>
          <ns3:TrackPointExtension>
            <ns3:hr>123</ns3:hr>
            <ns3:cad>0</ns3:cad>
          </ns3:TrackPointExtension>
        </extensions>
      </trkpt>
      <trkpt lat="45.30558298341929912567138671875" lon="-71.083554290235042572021484375">
        <ele>797.20001220703125</ele>
        <time>2026-08-21T23:25:22.000Z</time>
        <extensions>
          <ns3:TrackPointExtension>
            <ns3:hr>123</ns3:hr>
            <ns3:cad>0</ns3:cad>
          </ns3:TrackPointExtension>
        </extensions>
      </trkpt>
      <trkpt lat="45.30557409860193729400634765625" lon="-71.08356409706175327301025390625">
        <ele>797</ele>
        <time>2026-08-21T23:25:23.000Z</time>
        <extensions>
          <ns3:TrackPointExtension>
            <ns3:hr>123</ns3:hr>
            <ns3:cad>0</ns3:cad>
          </ns3:TrackPointExtension>
        </extensions>
      </trkpt>
      <trkpt lat="45.3055698238313198089599609375" lon="-71.08357868157327175140380859375">
        <ele>797</ele>
        <time>2026-08-21T23:25:24.000Z</time>
        <extensions>
          <ns3:TrackPointExtension>
            <ns3:hr>123</ns3:hr>
            <ns3:cad>0</ns3:cad>
          </ns3:TrackPointExtension>
        </extensions>
      </trkpt>
      <trkpt lat="45.3055634535849094390869140625" lon="-71.0835963673889636993408203125">
        <ele>797</ele>
        <time>2026-08-21T23:25:25.000Z</time>
        <extensions>
          <ns3:TrackPointExtension>
            <ns3:hr>124</ns3:hr>
            <ns3:cad>0</ns3:cad>
          </ns3:TrackPointExtension>
        </extensions>
      </trkpt>
      <trkpt lat="45.30556085519492626190185546875" lon="-71.08361623249948024749755859375">
        <ele>797</ele>
        <time>2026-08-21T23:25:26.000Z</time>
        <extensions>
          <ns3:TrackPointExtension>
            <ns3:hr>124</ns3:hr>
            <ns3:cad>0</ns3:cad>
          </ns3:TrackPointExtension>
        </extensions>
      </trkpt>
      <trkpt lat="45.30556253157556056976318359375" lon="-71.08363551087677478790283203125">
        <ele>797</ele>
        <time>2026-08-21T23:25:27.000Z</time>
        <extensions>
          <ns3:TrackPointExtension>
            <ns3:hr>124</ns3:hr>
            <ns3:cad>0</ns3:cad>
          </ns3:TrackPointExtension>
        </extensions>
      </trkpt>
      <trkpt lat="45.30555750243365764617919921875" lon="-71.08365395106375217437744140625">
        <ele>797</ele>
        <time>2026-08-21T23:25:28.000Z</time>
        <extensions>
          <ns3:TrackPointExtension>
            <ns3:hr>124</ns3:hr>
            <ns3:cad>0</ns3:cad>
          </ns3:TrackPointExtension>
        </extensions>
      </trkpt>
      <trkpt lat="45.30555381439626216888427734375" lon="-71.08367063105106353759765625">
        <ele>796.79998779296875</ele>
        <time>2026-08-21T23:25:29.000Z</time>
        <extensions>
          <ns3:TrackPointExtension>
            <ns3:hr>123</ns3:hr>
            <ns3:cad>61</ns3:cad>
          </ns3:TrackPointExtension>
        </extensions>
      </trkpt>
      <trkpt lat="45.3055460192263126373291015625" lon="-71.08368328772485256195068359375">
        <ele>796.5999755859375</ele>
        <time>2026-08-21T23:25:30.000Z</time>
        <extensions>
          <ns3:TrackPointExtension>
            <ns3:hr>124</ns3:hr>
            <ns3:cad>61</ns3:cad>
          </ns3:TrackPointExtension>
        </extensions>
      </trkpt>
      <trkpt lat="45.305535793304443359375" lon="-71.08369871042668819427490234375">
        <ele>796.20001220703125</ele>
        <time>2026-08-21T23:25:31.000Z</time>
        <extensions>
          <ns3:TrackPointExtension>
            <ns3:hr>123</ns3:hr>
            <ns3:cad>61</ns3:cad>
          </ns3:TrackPointExtension>
        </extensions>
      </trkpt>
      <trkpt lat="45.30553109943866729736328125" lon="-71.08372033573687076568603515625">
        <ele>796</ele>
        <time>2026-08-21T23:25:32.000Z</time>
        <extensions>
          <ns3:TrackPointExtension>
            <ns3:hr>123</ns3:hr>
            <ns3:cad>0</ns3:cad>
          </ns3:TrackPointExtension>
        </extensions>
      </trkpt>
      <trkpt lat="45.30553118325769901275634765625" lon="-71.08374279923737049102783203125">
        <ele>795.79998779296875</ele>
        <time>2026-08-21T23:25:33.000Z</time>
        <extensions>
          <ns3:TrackPointExtension>
            <ns3:hr>123</ns3:hr>
            <ns3:cad>0</ns3:cad>
          </ns3:TrackPointExtension>
        </extensions>
      </trkpt>
      <trkpt lat="45.30552581883966922760009765625" lon="-71.08376693911850452423095703125">
        <ele>795.5999755859375</ele>
        <time>2026-08-21T23:25:34.000Z</time>
        <extensions>
          <ns3:TrackPointExtension>
            <ns3:hr>122</ns3:hr>
            <ns3:cad>0</ns3:cad>
          </ns3:TrackPointExtension>
        </extensions>
      </trkpt>
      <trkpt lat="45.30552213080227375030517578125" lon="-71.08378906734287738800048828125">
        <ele>795.20001220703125</ele>
        <time>2026-08-21T23:25:35.000Z</time>
        <extensions>
          <ns3:TrackPointExtension>
            <ns3:hr>121</ns3:hr>
            <ns3:cad>0</ns3:cad>
          </ns3:TrackPointExtension>
        </extensions>
      </trkpt>
      <trkpt lat="45.3055151738226413726806640625" lon="-71.0838018916547298431396484375">
        <ele>795</ele>
        <time>2026-08-21T23:25:36.000Z</time>
        <extensions>
          <ns3:TrackPointExtension>
            <ns3:hr>121</ns3:hr>
            <ns3:cad>0</ns3:cad>
          </ns3:TrackPointExtension>
        </extensions>
      </trkpt>
      <trkpt lat="45.3055051155388355255126953125" lon="-71.08381211757659912109375">
        <ele>794.79998779296875</ele>
        <time>2026-08-21T23:25:37.000Z</time>
        <extensions>
          <ns3:TrackPointExtension>
            <ns3:hr>121</ns3:hr>
            <ns3:cad>0</ns3:cad>
          </ns3:TrackPointExtension>
        </extensions>
      </trkpt>
      <trkpt lat="45.305493883788585662841796875" lon="-71.0838303901255130767822265625">
        <ele>794.4000244140625</ele>
        <time>2026-08-21T23:25:38.000Z</time>
        <extensions>
          <ns3:TrackPointExtension>
            <ns3:hr>120</ns3:hr>
            <ns3:cad>0</ns3:cad>
          </ns3:TrackPointExtension>
        </extensions>
      </trkpt>
      <trkpt lat="45.3054870106279850006103515625" lon="-71.0838531889021396636962890625">
        <ele>794</ele>
        <time>2026-08-21T23:25:39.000Z</time>
        <extensions>
          <ns3:TrackPointExtension>
            <ns3:hr>120</ns3:hr>
            <ns3:cad>0</ns3:cad>
          </ns3:TrackPointExtension>
        </extensions>
      </trkpt>
      <trkpt lat="45.3054829873144626617431640625" lon="-71.0838692821562290191650390625">
        <ele>793.5999755859375</ele>
        <time>2026-08-21T23:25:40.000Z</time>
        <extensions>
          <ns3:TrackPointExtension>
            <ns3:hr>120</ns3:hr>
            <ns3:cad>0</ns3:cad>
          </ns3:TrackPointExtension>
        </extensions>
      </trkpt>
      <trkpt lat="45.3054746054112911224365234375" lon="-71.08388814143836498260498046875">
        <ele>793</ele>
        <time>2026-08-21T23:25:41.000Z</time>
        <extensions>
          <ns3:TrackPointExtension>
            <ns3:hr>120</ns3:hr>
            <ns3:cad>0</ns3:cad>
          </ns3:TrackPointExtension>
        </extensions>
      </trkpt>
      <trkpt lat="45.30546949245035648345947265625" lon="-71.08390741981565952301025390625">
        <ele>792.5999755859375</ele>
        <time>2026-08-21T23:25:42.000Z</time>
        <extensions>
          <ns3:TrackPointExtension>
            <ns3:hr>120</ns3:hr>
            <ns3:cad>0</ns3:cad>
          </ns3:TrackPointExtension>
        </extensions>
      </trkpt>
      <trkpt lat="45.30546127818524837493896484375" lon="-71.08393792994320392608642578125">
        <ele>792</ele>
        <time>2026-08-21T23:25:43.000Z</time>
        <extensions>
          <ns3:TrackPointExtension>
            <ns3:hr>120</ns3:hr>
            <ns3:cad>0</ns3:cad>
          </ns3:TrackPointExtension>
        </extensions>
      </trkpt>
      <trkpt lat="45.30545759014785289764404296875" lon="-71.0839651711285114288330078125">
        <ele>791.5999755859375</ele>
        <time>2026-08-21T23:25:44.000Z</time>
        <extensions>
          <ns3:TrackPointExtension>
            <ns3:hr>120</ns3:hr>
            <ns3:cad>0</ns3:cad>
          </ns3:TrackPointExtension>
        </extensions>
      </trkpt>
      <trkpt lat="45.30545541085302829742431640625" lon="-71.08399392105638980865478515625">
        <ele>791.20001220703125</ele>
        <time>2026-08-21T23:25:45.000Z</time>
        <extensions>
          <ns3:TrackPointExtension>
            <ns3:hr>119</ns3:hr>
            <ns3:cad>42</ns3:cad>
          </ns3:TrackPointExtension>
        </extensions>
      </trkpt>
      <trkpt lat="45.30545155517756938934326171875" lon="-71.0840218327939510345458984375">
        <ele>791</ele>
        <time>2026-08-21T23:25:46.000Z</time>
        <extensions>
          <ns3:TrackPointExtension>
            <ns3:hr>119</ns3:hr>
            <ns3:cad>42</ns3:cad>
          </ns3:TrackPointExtension>
        </extensions>
      </trkpt>
      <trkpt lat="45.3054539859294891357421875" lon="-71.08404614031314849853515625">
        <ele>790.5999755859375</ele>
        <time>2026-08-21T23:25:47.000Z</time>
        <extensions>
          <ns3:TrackPointExtension>
            <ns3:hr>120</ns3:hr>
            <ns3:cad>42</ns3:cad>
          </ns3:TrackPointExtension>
        </extensions>
      </trkpt>
      <trkpt lat="45.30545792542397975921630859375" lon="-71.08406868763267993927001953125">
        <ele>790.4000244140625</ele>
        <time>2026-08-21T23:25:48.000Z</time>
        <extensions>
          <ns3:TrackPointExtension>
            <ns3:hr>121</ns3:hr>
            <ns3:cad>42</ns3:cad>
          </ns3:TrackPointExtension>
        </extensions>
      </trkpt>
      <trkpt lat="45.3054620325565338134765625" lon="-71.0840858705341815948486328125">
        <ele>790.4000244140625</ele>
        <time>2026-08-21T23:25:49.000Z</time>
        <extensions>
          <ns3:TrackPointExtension>
            <ns3:hr>121</ns3:hr>
            <ns3:cad>42</ns3:cad>
          </ns3:TrackPointExtension>
        </extensions>
      </trkpt>
      <trkpt lat="45.3054648824036121368408203125" lon="-71.08411378227174282073974609375">
        <ele>790.4000244140625</ele>
        <time>2026-08-21T23:25:50.000Z</time>
        <extensions>
          <ns3:TrackPointExtension>
            <ns3:hr>122</ns3:hr>
            <ns3:cad>42</ns3:cad>
          </ns3:TrackPointExtension>
        </extensions>
      </trkpt>
      <trkpt lat="45.30547016300261020660400390625" lon="-71.0841328091919422149658203125">
        <ele>790.20001220703125</ele>
        <time>2026-08-21T23:25:51.000Z</time>
        <extensions>
          <ns3:TrackPointExtension>
            <ns3:hr>122</ns3:hr>
            <ns3:cad>42</ns3:cad>
          </ns3:TrackPointExtension>
        </extensions>
      </trkpt>
      <trkpt lat="45.3054746054112911224365234375" lon="-71.0841514170169830322265625">
        <ele>790.20001220703125</ele>
        <time>2026-08-21T23:25:52.000Z</time>
        <extensions>
          <ns3:TrackPointExtension>
            <ns3:hr>122</ns3:hr>
            <ns3:cad>42</ns3:cad>
          </ns3:TrackPointExtension>
        </extensions>
      </trkpt>
      <trkpt lat="45.30547100119292736053466796875" lon="-71.08416541479527950286865234375">
        <ele>790.20001220703125</ele>
        <time>2026-08-21T23:25:53.000Z</time>
        <extensions>
          <ns3:TrackPointExtension>
            <ns3:hr>122</ns3:hr>
            <ns3:cad>42</ns3:cad>
          </ns3:TrackPointExtension>
        </extensions>
      </trkpt>
      <trkpt lat="45.30547183938324451446533203125" lon="-71.08418804593384265899658203125">
        <ele>790</ele>
        <time>2026-08-21T23:25:54.000Z</time>
        <extensions>
          <ns3:TrackPointExtension>
            <ns3:hr>121</ns3:hr>
            <ns3:cad>42</ns3:cad>
          </ns3:TrackPointExtension>
        </extensions>
      </trkpt>
      <trkpt lat="45.30546798370778560638427734375" lon="-71.08421185053884983062744140625">
        <ele>789.79998779296875</ele>
        <time>2026-08-21T23:25:55.000Z</time>
        <extensions>
          <ns3:TrackPointExtension>
            <ns3:hr>122</ns3:hr>
            <ns3:cad>42</ns3:cad>
          </ns3:TrackPointExtension>
        </extensions>
      </trkpt>
      <trkpt lat="45.30546580441296100616455078125" lon="-71.084233559668064117431640625">
        <ele>789.4000244140625</ele>
        <time>2026-08-21T23:25:56.000Z</time>
        <extensions>
          <ns3:TrackPointExtension>
            <ns3:hr>122</ns3:hr>
            <ns3:cad>42</ns3:cad>
          </ns3:TrackPointExtension>
        </extensions>
      </trkpt>
      <trkpt lat="45.305463708937168121337890625" lon="-71.0842595435678958892822265625">
        <ele>789.4000244140625</ele>
        <time>2026-08-21T23:25:57.000Z</time>
        <extensions>
          <ns3:TrackPointExtension>
            <ns3:hr>122</ns3:hr>
            <ns3:cad>42</ns3:cad>
          </ns3:TrackPointExtension>
        </extensions>
      </trkpt>
      <trkpt lat="45.30546312220394611358642578125" lon="-71.0842840187251567840576171875">
        <ele>789.20001220703125</ele>
        <time>2026-08-21T23:25:58.000Z</time>
        <extensions>
          <ns3:TrackPointExtension>
            <ns3:hr>121</ns3:hr>
            <ns3:cad>42</ns3:cad>
          </ns3:TrackPointExtension>
        </extensions>
      </trkpt>
      <trkpt lat="45.30546605587005615234375" lon="-71.0843081586062908172607421875">
        <ele>789.20001220703125</ele>
        <time>2026-08-21T23:25:59.000Z</time>
        <extensions>
          <ns3:TrackPointExtension>
            <ns3:hr>122</ns3:hr>
            <ns3:cad>42</ns3:cad>
          </ns3:TrackPointExtension>
        </extensions>
      </trkpt>
      <trkpt lat="45.3054705820977687835693359375" lon="-71.0843286104500293731689453125">
        <ele>789.20001220703125</ele>
        <time>2026-08-21T23:26:00.000Z</time>
        <extensions>
          <ns3:TrackPointExtension>
            <ns3:hr>122</ns3:hr>
            <ns3:cad>42</ns3:cad>
          </ns3:TrackPointExtension>
        </extensions>
      </trkpt>
      <trkpt lat="45.30547938309609889984130859375" lon="-71.08435266651213169097900390625">
        <ele>789.20001220703125</ele>
        <time>2026-08-21T23:26:01.000Z</time>
        <extensions>
          <ns3:TrackPointExtension>
            <ns3:hr>121</ns3:hr>
            <ns3:cad>42</ns3:cad>
          </ns3:TrackPointExtension>
        </extensions>
      </trkpt>
      <trkpt lat="45.30548206530511379241943359375" lon="-71.08437395654618740081787109375">
        <ele>789.20001220703125</ele>
        <time>2026-08-21T23:26:02.000Z</time>
        <extensions>
          <ns3:TrackPointExtension>
            <ns3:hr>121</ns3:hr>
            <ns3:cad>42</ns3:cad>
          </ns3:TrackPointExtension>
        </extensions>
      </trkpt>
      <trkpt lat="45.3054856695234775543212890625" lon="-71.08440287411212921142578125">
        <ele>789.20001220703125</ele>
        <time>2026-08-21T23:26:03.000Z</time>
        <extensions>
          <ns3:TrackPointExtension>
            <ns3:hr>121</ns3:hr>
            <ns3:cad>42</ns3:cad>
          </ns3:TrackPointExtension>
        </extensions>
      </trkpt>
      <trkpt lat="45.30549145303666591644287109375" lon="-71.08443279750645160675048828125">
        <ele>789</ele>
        <time>2026-08-21T23:26:04.000Z</time>
        <extensions>
          <ns3:TrackPointExtension>
            <ns3:hr>120</ns3:hr>
            <ns3:cad>42</ns3:cad>
          </ns3:TrackPointExtension>
        </extensions>
      </trkpt>
      <trkpt lat="45.30549363233149051666259765625" lon="-71.08445651829242706298828125">
        <ele>789</ele>
        <time>2026-08-21T23:26:05.000Z</time>
        <extensions>
          <ns3:TrackPointExtension>
            <ns3:hr>119</ns3:hr>
            <ns3:cad>67</ns3:cad>
          </ns3:TrackPointExtension>
        </extensions>
      </trkpt>
      <trkpt lat="45.30550201423466205596923828125" lon="-71.0844828374683856964111328125">
        <ele>789</ele>
        <time>2026-08-21T23:26:06.000Z</time>
        <extensions>
          <ns3:TrackPointExtension>
            <ns3:hr>119</ns3:hr>
            <ns3:cad>67</ns3:cad>
          </ns3:TrackPointExtension>
        </extensions>
      </trkpt>
      <trkpt lat="45.305506289005279541015625" lon="-71.0845076479017734527587890625">
        <ele>789</ele>
        <time>2026-08-21T23:26:07.000Z</time>
        <extensions>
          <ns3:TrackPointExtension>
            <ns3:hr>118</ns3:hr>
            <ns3:cad>70</ns3:cad>
          </ns3:TrackPointExtension>
        </extensions>
      </trkpt>
      <trkpt lat="45.3055121563374996185302734375" lon="-71.0845280997455120086669921875">
        <ele>789</ele>
        <time>2026-08-21T23:26:08.000Z</time>
        <extensions>
          <ns3:TrackPointExtension>
            <ns3:hr>117</ns3:hr>
            <ns3:cad>70</ns3:cad>
          </ns3:TrackPointExtension>
        </extensions>
      </trkpt>
      <trkpt lat="45.3055188618600368499755859375" lon="-71.08454561792314052581787109375">
        <ele>789</ele>
        <time>2026-08-21T23:26:09.000Z</time>
        <extensions>
          <ns3:TrackPointExtension>
            <ns3:hr>117</ns3:hr>
            <ns3:cad>70</ns3:cad>
          </ns3:TrackPointExtension>
        </extensions>
      </trkpt>
      <trkpt lat="45.30552984215319156646728515625" lon="-71.08456238172948360443115234375">
        <ele>788.79998779296875</ele>
        <time>2026-08-21T23:26:10.000Z</time>
        <extensions>
          <ns3:TrackPointExtension>
            <ns3:hr>117</ns3:hr>
            <ns3:cad>70</ns3:cad>
          </ns3:TrackPointExtension>
        </extensions>
      </trkpt>
      <trkpt lat="45.3055393137037754058837890625" lon="-71.084579564630985260009765625">
        <ele>788.79998779296875</ele>
        <time>2026-08-21T23:26:11.000Z</time>
        <extensions>
          <ns3:TrackPointExtension>
            <ns3:hr>117</ns3:hr>
            <ns3:cad>70</ns3:cad>
          </ns3:TrackPointExtension>
        </extensions>
      </trkpt>
      <trkpt lat="45.30554761178791522979736328125" lon="-71.08459238894283771514892578125">
        <ele>788.5999755859375</ele>
        <time>2026-08-21T23:26:12.000Z</time>
        <extensions>
          <ns3:TrackPointExtension>
            <ns3:hr>117</ns3:hr>
            <ns3:cad>0</ns3:cad>
          </ns3:TrackPointExtension>
        </extensions>
      </trkpt>
      <trkpt lat="45.30555926263332366943359375" lon="-71.08460135757923126220703125">
        <ele>788.4000244140625</ele>
        <time>2026-08-21T23:26:13.000Z</time>
        <extensions>
          <ns3:TrackPointExtension>
            <ns3:hr>117</ns3:hr>
            <ns3:cad>0</ns3:cad>
          </ns3:TrackPointExtension>
        </extensions>
      </trkpt>
      <trkpt lat="45.305563621222972869873046875" lon="-71.08460965566337108612060546875">
        <ele>788</ele>
        <time>2026-08-21T23:26:14.000Z</time>
        <extensions>
          <ns3:TrackPointExtension>
            <ns3:hr>117</ns3:hr>
            <ns3:cad>0</ns3:cad>
          </ns3:TrackPointExtension>
        </extensions>
      </trkpt>
      <trkpt lat="45.30556504614651203155517578125" lon="-71.0846290178596973419189453125">
        <ele>787.5999755859375</ele>
        <time>2026-08-21T23:26:15.000Z</time>
        <extensions>
          <ns3:TrackPointExtension>
            <ns3:hr>118</ns3:hr>
            <ns3:cad>0</ns3:cad>
          </ns3:TrackPointExtension>
        </extensions>
      </trkpt>
      <trkpt lat="45.3055693209171295166015625" lon="-71.08464519493281841278076171875">
        <ele>787.4000244140625</ele>
        <time>2026-08-21T23:26:16.000Z</time>
        <extensions>
          <ns3:TrackPointExtension>
            <ns3:hr>117</ns3:hr>
            <ns3:cad>62</ns3:cad>
          </ns3:TrackPointExtension>
        </extensions>
      </trkpt>
      <trkpt lat="45.3055746853351593017578125" lon="-71.08465860597789287567138671875">
        <ele>787</ele>
        <time>2026-08-21T23:26:17.000Z</time>
        <extensions>
          <ns3:TrackPointExtension>
            <ns3:hr>117</ns3:hr>
            <ns3:cad>62</ns3:cad>
          </ns3:TrackPointExtension>
        </extensions>
      </trkpt>
      <trkpt lat="45.3055815584957599639892578125" lon="-71.08467042446136474609375">
        <ele>786.4000244140625</ele>
        <time>2026-08-21T23:26:18.000Z</time>
        <extensions>
          <ns3:TrackPointExtension>
            <ns3:hr>117</ns3:hr>
            <ns3:cad>62</ns3:cad>
          </ns3:TrackPointExtension>
        </extensions>
      </trkpt>
      <trkpt lat="45.30558901838958263397216796875" lon="-71.08467972837388515472412109375">
        <ele>786</ele>
        <time>2026-08-21T23:26:19.000Z</time>
        <extensions>
          <ns3:TrackPointExtension>
            <ns3:hr>117</ns3:hr>
            <ns3:cad>0</ns3:cad>
          </ns3:TrackPointExtension>
        </extensions>
      </trkpt>
      <trkpt lat="45.30559069477021694183349609375" lon="-71.08469255268573760986328125">
        <ele>785.79998779296875</ele>
        <time>2026-08-21T23:26:20.000Z</time>
        <extensions>
          <ns3:TrackPointExtension>
            <ns3:hr>116</ns3:hr>
            <ns3:cad>0</ns3:cad>
          </ns3:TrackPointExtension>
        </extensions>
      </trkpt>
      <trkpt lat="45.30560309998691082000732421875" lon="-71.08471107669174671173095703125">
        <ele>785.20001220703125</ele>
        <time>2026-08-21T23:26:21.000Z</time>
        <extensions>
          <ns3:TrackPointExtension>
            <ns3:hr>116</ns3:hr>
            <ns3:cad>0</ns3:cad>
          </ns3:TrackPointExtension>
        </extensions>
      </trkpt>
      <trkpt lat="45.30561584047973155975341796875" lon="-71.08473001979291439056396484375">
        <ele>784.79998779296875</ele>
        <time>2026-08-21T23:26:22.000Z</time>
        <extensions>
          <ns3:TrackPointExtension>
            <ns3:hr>116</ns3:hr>
            <ns3:cad>0</ns3:cad>
          </ns3:TrackPointExtension>
        </extensions>
      </trkpt>
      <trkpt lat="45.30562824569642543792724609375" lon="-71.0847490467131137847900390625">
        <ele>784.4000244140625</ele>
        <time>2026-08-21T23:26:23.000Z</time>
        <extensions>
          <ns3:TrackPointExtension>
            <ns3:hr>116</ns3:hr>
            <ns3:cad>0</ns3:cad>
          </ns3:TrackPointExtension>
        </extensions>
      </trkpt>
      <trkpt lat="45.30564165674149990081787109375" lon="-71.08476857654750347137451171875">
        <ele>783.79998779296875</ele>
        <time>2026-08-21T23:26:24.000Z</time>
        <extensions>
          <ns3:TrackPointExtension>
            <ns3:hr>115</ns3:hr>
            <ns3:cad>0</ns3:cad>
          </ns3:TrackPointExtension>
        </extensions>
      </trkpt>
      <trkpt lat="45.30565272085368633270263671875" lon="-71.08478584326803684234619140625">
        <ele>783.4000244140625</ele>
        <time>2026-08-21T23:26:25.000Z</time>
        <extensions>
          <ns3:TrackPointExtension>
            <ns3:hr>115</ns3:hr>
            <ns3:cad>0</ns3:cad>
          </ns3:TrackPointExtension>
        </extensions>
      </trkpt>
      <trkpt lat="45.30566520988941192626953125" lon="-71.0848033614456653594970703125">
        <ele>782.79998779296875</ele>
        <time>2026-08-21T23:26:26.000Z</time>
        <extensions>
          <ns3:TrackPointExtension>
            <ns3:hr>114</ns3:hr>
            <ns3:cad>0</ns3:cad>
          </ns3:TrackPointExtension>
        </extensions>
      </trkpt>
      <trkpt lat="45.30567836947739124298095703125" lon="-71.08482590876519680023193359375">
        <ele>782.5999755859375</ele>
        <time>2026-08-21T23:26:27.000Z</time>
        <extensions>
          <ns3:TrackPointExtension>
            <ns3:hr>115</ns3:hr>
            <ns3:cad>0</ns3:cad>
          </ns3:TrackPointExtension>
        </extensions>
      </trkpt>
      <trkpt lat="45.3056928701698780059814453125" lon="-71.08485222794115543365478515625">
        <ele>782.20001220703125</ele>
        <time>2026-08-21T23:26:28.000Z</time>
        <extensions>
          <ns3:TrackPointExtension>
            <ns3:hr>116</ns3:hr>
            <ns3:cad>0</ns3:cad>
          </ns3:TrackPointExtension>
        </extensions>
      </trkpt>
      <trkpt lat="45.305705107748508453369140625" lon="-71.08487284742295742034912109375">
        <ele>782</ele>
        <time>2026-08-21T23:26:29.000Z</time>
        <extensions>
          <ns3:TrackPointExtension>
            <ns3:hr>116</ns3:hr>
            <ns3:cad>0</ns3:cad>
          </ns3:TrackPointExtension>
        </extensions>
      </trkpt>
      <trkpt lat="45.3057096339762210845947265625" lon="-71.08488055877387523651123046875">
        <ele>781.79998779296875</ele>
        <time>2026-08-21T23:26:30.000Z</time>
        <extensions>
          <ns3:TrackPointExtension>
            <ns3:hr>117</ns3:hr>
            <ns3:cad>0</ns3:cad>
          </ns3:TrackPointExtension>
        </extensions>
      </trkpt>
      <trkpt lat="45.305719189345836639404296875" lon="-71.08489279635250568389892578125">
        <ele>781.79998779296875</ele>
        <time>2026-08-21T23:26:31.000Z</time>
        <extensions>
          <ns3:TrackPointExtension>
            <ns3:hr>118</ns3:hr>
            <ns3:cad>0</ns3:cad>
          </ns3:TrackPointExtension>
        </extensions>
      </trkpt>
      <trkpt lat="45.3057277388870716094970703125" lon="-71.08490369282662868499755859375">
        <ele>781.79998779296875</ele>
        <time>2026-08-21T23:26:32.000Z</time>
        <extensions>
          <ns3:TrackPointExtension>
            <ns3:hr>119</ns3:hr>
            <ns3:cad>0</ns3:cad>
          </ns3:TrackPointExtension>
        </extensions>
      </trkpt>
      <trkpt lat="45.30573301948606967926025390625" lon="-71.08491039834916591644287109375">
        <ele>782</ele>
        <time>2026-08-21T23:26:33.000Z</time>
        <extensions>
          <ns3:TrackPointExtension>
            <ns3:hr>119</ns3:hr>
            <ns3:cad>0</ns3:cad>
          </ns3:TrackPointExtension>
        </extensions>
      </trkpt>
      <trkpt lat="45.30574039556086063385009765625" lon="-71.0849233902990818023681640625">
        <ele>782</ele>
        <time>2026-08-21T23:26:34.000Z</time>
        <extensions>
          <ns3:TrackPointExtension>
            <ns3:hr>120</ns3:hr>
            <ns3:cad>0</ns3:cad>
          </ns3:TrackPointExtension>
        </extensions>
      </trkpt>
      <trkpt lat="45.305746681988239288330078125" lon="-71.084940321743488311767578125">
        <ele>782.20001220703125</ele>
        <time>2026-08-21T23:26:35.000Z</time>
        <extensions>
          <ns3:TrackPointExtension>
            <ns3:hr>119</ns3:hr>
            <ns3:cad>0</ns3:cad>
          </ns3:TrackPointExtension>
        </extensions>
      </trkpt>
      <trkpt lat="45.30574877746403217315673828125" lon="-71.0849562473595142364501953125">
        <ele>782.20001220703125</ele>
        <time>2026-08-21T23:26:36.000Z</time>
        <extensions>
          <ns3:TrackPointExtension>
            <ns3:hr>119</ns3:hr>
            <ns3:cad>0</ns3:cad>
          </ns3:TrackPointExtension>
        </extensions>
      </trkpt>
      <trkpt lat="45.3057475201785564422607421875" lon="-71.08497393317520618438720703125">
        <ele>782.20001220703125</ele>
        <time>2026-08-21T23:26:37.000Z</time>
        <extensions>
          <ns3:TrackPointExtension>
            <ns3:hr>118</ns3:hr>
            <ns3:cad>0</ns3:cad>
          </ns3:TrackPointExtension>
        </extensions>
      </trkpt>
      <trkpt lat="45.30574500560760498046875" lon="-71.0849803872406482696533203125">
        <ele>782.20001220703125</ele>
        <time>2026-08-21T23:26:38.000Z</time>
        <extensions>
          <ns3:TrackPointExtension>
            <ns3:hr>118</ns3:hr>
            <ns3:cad>0</ns3:cad>
          </ns3:TrackPointExtension>
        </extensions>
      </trkpt>
      <trkpt lat="45.3057404793798923492431640625" lon="-71.08498399145901203155517578125">
        <ele>782.20001220703125</ele>
        <time>2026-08-21T23:26:39.000Z</time>
        <extensions>
          <ns3:TrackPointExtension>
            <ns3:hr>117</ns3:hr>
            <ns3:cad>0</ns3:cad>
          </ns3:TrackPointExtension>
        </extensions>
      </trkpt>
      <trkpt lat="45.3057354502379894256591796875" lon="-71.0849891044199466705322265625">
        <ele>782.4000244140625</ele>
        <time>2026-08-21T23:26:40.000Z</time>
        <extensions>
          <ns3:TrackPointExtension>
            <ns3:hr>116</ns3:hr>
            <ns3:cad>0</ns3:cad>
          </ns3:TrackPointExtension>
        </extensions>
      </trkpt>
      <trkpt lat="45.30573184601962566375732421875" lon="-71.0850085504353046417236328125">
        <ele>782.4000244140625</ele>
        <time>2026-08-21T23:26:41.000Z</time>
        <extensions>
          <ns3:TrackPointExtension>
            <ns3:hr>116</ns3:hr>
            <ns3:cad>0</ns3:cad>
          </ns3:TrackPointExtension>
        </extensions>
      </trkpt>
      <trkpt lat="45.30573167838156223297119140625" lon="-71.0850202850997447967529296875">
        <ele>782.4000244140625</ele>
        <time>2026-08-21T23:26:42.000Z</time>
        <extensions>
          <ns3:TrackPointExtension>
            <ns3:hr>116</ns3:hr>
            <ns3:cad>0</ns3:cad>
          </ns3:TrackPointExtension>
        </extensions>
      </trkpt>
      <trkpt lat="45.3057324327528476715087890625" lon="-71.08503411523997783660888671875">
        <ele>782.5999755859375</ele>
        <time>2026-08-21T23:26:43.000Z</time>
        <extensions>
          <ns3:TrackPointExtension>
            <ns3:hr>116</ns3:hr>
            <ns3:cad>0</ns3:cad>
          </ns3:TrackPointExtension>
        </extensions>
      </trkpt>
      <trkpt lat="45.3057331033051013946533203125" lon="-71.08505196869373321533203125">
        <ele>782.79998779296875</ele>
        <time>2026-08-21T23:26:44.000Z</time>
        <extensions>
          <ns3:TrackPointExtension>
            <ns3:hr>115</ns3:hr>
            <ns3:cad>0</ns3:cad>
          </ns3:TrackPointExtension>
        </extensions>
      </trkpt>
      <trkpt lat="45.30573100782930850982666015625" lon="-71.0850727558135986328125">
        <ele>783</ele>
        <time>2026-08-21T23:26:45.000Z</time>
        <extensions>
          <ns3:TrackPointExtension>
            <ns3:hr>115</ns3:hr>
            <ns3:cad>0</ns3:cad>
          </ns3:TrackPointExtension>
        </extensions>
      </trkpt>
      <trkpt lat="45.30572782270610332489013671875" lon="-71.08507250435650348663330078125">
        <ele>783.20001220703125</ele>
        <time>2026-08-21T23:26:46.000Z</time>
        <extensions>
          <ns3:TrackPointExtension>
            <ns3:hr>115</ns3:hr>
            <ns3:cad>0</ns3:cad>
          </ns3:TrackPointExtension>
        </extensions>
      </trkpt>
      <trkpt lat="45.3057277388870716094970703125" lon="-71.08507334254682064056396484375">
        <ele>783.4000244140625</ele>
        <time>2026-08-21T23:26:47.000Z</time>
        <extensions>
          <ns3:TrackPointExtension>
            <ns3:hr>115</ns3:hr>
            <ns3:cad>0</ns3:cad>
          </ns3:TrackPointExtension>
        </extensions>
      </trkpt>
      <trkpt lat="45.30572363175451755523681640625" lon="-71.08509865589439868927001953125">
        <ele>783.5999755859375</ele>
        <time>2026-08-21T23:26:48.000Z</time>
        <extensions>
          <ns3:TrackPointExtension>
            <ns3:hr>115</ns3:hr>
            <ns3:cad>0</ns3:cad>
          </ns3:TrackPointExtension>
        </extensions>
      </trkpt>
      <trkpt lat="45.30572430230677127838134765625" lon="-71.0851034335792064666748046875">
        <ele>784</ele>
        <time>2026-08-21T23:26:49.000Z</time>
        <extensions>
          <ns3:TrackPointExtension>
            <ns3:hr>116</ns3:hr>
            <ns3:cad>0</ns3:cad>
          </ns3:TrackPointExtension>
        </extensions>
      </trkpt>
      <trkpt lat="45.3057217039167881011962890625" lon="-71.08511902391910552978515625">
        <ele>784.20001220703125</ele>
        <time>2026-08-21T23:26:50.000Z</time>
        <extensions>
          <ns3:TrackPointExtension>
            <ns3:hr>115</ns3:hr>
            <ns3:cad>0</ns3:cad>
          </ns3:TrackPointExtension>
        </extensions>
      </trkpt>
      <trkpt lat="45.30571692623198032379150390625" lon="-71.08514023013412952423095703125">
        <ele>784.4000244140625</ele>
        <time>2026-08-21T23:26:51.000Z</time>
        <extensions>
          <ns3:TrackPointExtension>
            <ns3:hr>115</ns3:hr>
            <ns3:cad>0</ns3:cad>
          </ns3:TrackPointExtension>
        </extensions>
      </trkpt>
      <trkpt lat="45.30571860261261463165283203125" lon="-71.0851336084306240081787109375">
        <ele>784.5999755859375</ele>
        <time>2026-08-21T23:26:52.000Z</time>
        <extensions>
          <ns3:TrackPointExtension>
            <ns3:hr>114</ns3:hr>
            <ns3:cad>0</ns3:cad>
          </ns3:TrackPointExtension>
        </extensions>
      </trkpt>
      <trkpt lat="45.30571608804166316986083984375" lon="-71.08514877967536449432373046875">
        <ele>784.79998779296875</ele>
        <time>2026-08-21T23:26:53.000Z</time>
        <extensions>
          <ns3:TrackPointExtension>
            <ns3:hr>114</ns3:hr>
            <ns3:cad>0</ns3:cad>
          </ns3:TrackPointExtension>
        </extensions>
      </trkpt>
      <trkpt lat="45.30571307055652141571044921875" lon="-71.0851624421775341033935546875">
        <ele>785</ele>
        <time>2026-08-21T23:26:54.000Z</time>
        <extensions>
          <ns3:TrackPointExtension>
            <ns3:hr>113</ns3:hr>
            <ns3:cad>0</ns3:cad>
          </ns3:TrackPointExtension>
        </extensions>
      </trkpt>
      <trkpt lat="45.30571793206036090850830078125" lon="-71.085166633129119873046875">
        <ele>785.4000244140625</ele>
        <time>2026-08-21T23:26:55.000Z</time>
        <extensions>
          <ns3:TrackPointExtension>
            <ns3:hr>113</ns3:hr>
            <ns3:cad>0</ns3:cad>
          </ns3:TrackPointExtension>
        </extensions>
      </trkpt>
      <trkpt lat="45.30571751296520233154296875" lon="-71.08519638888537883758544921875">
        <ele>785.5999755859375</ele>
        <time>2026-08-21T23:26:56.000Z</time>
        <extensions>
          <ns3:TrackPointExtension>
            <ns3:hr>113</ns3:hr>
            <ns3:cad>0</ns3:cad>
          </ns3:TrackPointExtension>
        </extensions>
      </trkpt>
      <trkpt lat="45.30571927316486835479736328125" lon="-71.08520426787436008453369140625">
        <ele>786</ele>
        <time>2026-08-21T23:26:57.000Z</time>
        <extensions>
          <ns3:TrackPointExtension>
            <ns3:hr>114</ns3:hr>
            <ns3:cad>0</ns3:cad>
          </ns3:TrackPointExtension>
        </extensions>
      </trkpt>
      <trkpt lat="45.30571944080293178558349609375" lon="-71.0852211154997348785400390625">
        <ele>786.20001220703125</ele>
        <time>2026-08-21T23:26:58.000Z</time>
        <extensions>
          <ns3:TrackPointExtension>
            <ns3:hr>115</ns3:hr>
            <ns3:cad>0</ns3:cad>
          </ns3:TrackPointExtension>
        </extensions>
      </trkpt>
      <trkpt lat="45.30571893788874149322509765625" lon="-71.0852362029254436492919921875">
        <ele>786.4000244140625</ele>
        <time>2026-08-21T23:26:59.000Z</time>
        <extensions>
          <ns3:TrackPointExtension>
            <ns3:hr>116</ns3:hr>
            <ns3:cad>0</ns3:cad>
          </ns3:TrackPointExtension>
        </extensions>
      </trkpt>
      <trkpt lat="45.30572212301194667816162109375" lon="-71.08525623567402362823486328125">
        <ele>786.5999755859375</ele>
        <time>2026-08-21T23:27:00.000Z</time>
        <extensions>
          <ns3:TrackPointExtension>
            <ns3:hr>118</ns3:hr>
            <ns3:cad>0</ns3:cad>
          </ns3:TrackPointExtension>
        </extensions>
      </trkpt>
      <trkpt lat="45.30572748742997646331787109375" lon="-71.08526797033846378326416015625">
        <ele>786.5999755859375</ele>
        <time>2026-08-21T23:27:01.000Z</time>
        <extensions>
          <ns3:TrackPointExtension>
            <ns3:hr>121</ns3:hr>
            <ns3:cad>0</ns3:cad>
          </ns3:TrackPointExtension>
        </extensions>
      </trkpt>
      <trkpt lat="45.3057337738573551177978515625" lon="-71.08528339304029941558837890625">
        <ele>786.79998779296875</ele>
        <time>2026-08-21T23:27:02.000Z</time>
        <extensions>
          <ns3:TrackPointExtension>
            <ns3:hr>122</ns3:hr>
            <ns3:cad>0</ns3:cad>
          </ns3:TrackPointExtension>
        </extensions>
      </trkpt>
      <trkpt lat="45.305737294256687164306640625" lon="-71.08529982157051563262939453125">
        <ele>787</ele>
        <time>2026-08-21T23:27:03.000Z</time>
        <extensions>
          <ns3:TrackPointExtension>
            <ns3:hr>124</ns3:hr>
            <ns3:cad>0</ns3:cad>
          </ns3:TrackPointExtension>
        </extensions>
      </trkpt>
      <trkpt lat="45.30574425123631954193115234375" lon="-71.0853213630616664886474609375">
        <ele>787</ele>
        <time>2026-08-21T23:27:04.000Z</time>
        <extensions>
          <ns3:TrackPointExtension>
            <ns3:hr>124</ns3:hr>
            <ns3:cad>0</ns3:cad>
          </ns3:TrackPointExtension>
        </extensions>
      </trkpt>
      <trkpt lat="45.30574777163565158843994140625" lon="-71.0853324271738529205322265625">
        <ele>787.20001220703125</ele>
        <time>2026-08-21T23:27:05.000Z</time>
        <extensions>
          <ns3:TrackPointExtension>
            <ns3:hr>125</ns3:hr>
            <ns3:cad>0</ns3:cad>
          </ns3:TrackPointExtension>
        </extensions>
      </trkpt>
      <trkpt lat="45.3057545609772205352783203125" lon="-71.08534826897084712982177734375">
        <ele>787.4000244140625</ele>
        <time>2026-08-21T23:27:06.000Z</time>
        <extensions>
          <ns3:TrackPointExtension>
            <ns3:hr>126</ns3:hr>
            <ns3:cad>0</ns3:cad>
          </ns3:TrackPointExtension>
        </extensions>
      </trkpt>
      <trkpt lat="45.30575900338590145111083984375" lon="-71.085364110767841339111328125">
        <ele>787.4000244140625</ele>
        <time>2026-08-21T23:27:07.000Z</time>
        <extensions>
          <ns3:TrackPointExtension>
            <ns3:hr>127</ns3:hr>
            <ns3:cad>0</ns3:cad>
          </ns3:TrackPointExtension>
        </extensions>
      </trkpt>
      <trkpt lat="45.3057599253952503204345703125" lon="-71.08538280241191387176513671875">
        <ele>787.5999755859375</ele>
        <time>2026-08-21T23:27:08.000Z</time>
        <extensions>
          <ns3:TrackPointExtension>
            <ns3:hr>127</ns3:hr>
            <ns3:cad>0</ns3:cad>
          </ns3:TrackPointExtension>
        </extensions>
      </trkpt>
      <trkpt lat="45.305760093033313751220703125" lon="-71.0853897593915462493896484375">
        <ele>787.79998779296875</ele>
        <time>2026-08-21T23:27:09.000Z</time>
        <extensions>
          <ns3:TrackPointExtension>
            <ns3:hr>128</ns3:hr>
            <ns3:cad>49</ns3:cad>
          </ns3:TrackPointExtension>
        </extensions>
      </trkpt>
      <trkpt lat="45.3057626076042652130126953125" lon="-71.0854118876159191131591796875">
        <ele>787.79998779296875</ele>
        <time>2026-08-21T23:27:10.000Z</time>
        <extensions>
          <ns3:TrackPointExtension>
            <ns3:hr>128</ns3:hr>
            <ns3:cad>49</ns3:cad>
          </ns3:TrackPointExtension>
        </extensions>
      </trkpt>
      <trkpt lat="45.30576537363231182098388671875" lon="-71.08542638830840587615966796875">
        <ele>788</ele>
        <time>2026-08-21T23:27:11.000Z</time>
        <extensions>
          <ns3:TrackPointExtension>
            <ns3:hr>129</ns3:hr>
            <ns3:cad>49</ns3:cad>
          </ns3:TrackPointExtension>
        </extensions>
      </trkpt>
      <trkpt lat="45.3057689778506755828857421875" lon="-71.08544331975281238555908203125">
        <ele>788.20001220703125</ele>
        <time>2026-08-21T23:27:12.000Z</time>
        <extensions>
          <ns3:TrackPointExtension>
            <ns3:hr>129</ns3:hr>
            <ns3:cad>49</ns3:cad>
          </ns3:TrackPointExtension>
        </extensions>
      </trkpt>
      <trkpt lat="45.30577274970710277557373046875" lon="-71.08546175993978977203369140625">
        <ele>788.20001220703125</ele>
        <time>2026-08-21T23:27:13.000Z</time>
        <extensions>
          <ns3:TrackPointExtension>
            <ns3:hr>129</ns3:hr>
            <ns3:cad>0</ns3:cad>
          </ns3:TrackPointExtension>
        </extensions>
      </trkpt>
      <trkpt lat="45.30577744357287883758544921875" lon="-71.08547818847000598907470703125">
        <ele>788.4000244140625</ele>
        <time>2026-08-21T23:27:14.000Z</time>
        <extensions>
          <ns3:TrackPointExtension>
            <ns3:hr>129</ns3:hr>
            <ns3:cad>0</ns3:cad>
          </ns3:TrackPointExtension>
        </extensions>
      </trkpt>
      <trkpt lat="45.3057750128209590911865234375" lon="-71.0854930244386196136474609375">
        <ele>788.4000244140625</ele>
        <time>2026-08-21T23:27:15.000Z</time>
        <extensions>
          <ns3:TrackPointExtension>
            <ns3:hr>130</ns3:hr>
            <ns3:cad>0</ns3:cad>
          </ns3:TrackPointExtension>
        </extensions>
      </trkpt>
      <trkpt lat="45.305772833526134490966796875" lon="-71.08551573939621448516845703125">
        <ele>788.5999755859375</ele>
        <time>2026-08-21T23:27:16.000Z</time>
        <extensions>
          <ns3:TrackPointExtension>
            <ns3:hr>130</ns3:hr>
            <ns3:cad>0</ns3:cad>
          </ns3:TrackPointExtension>
        </extensions>
      </trkpt>
      <trkpt lat="45.30576973222196102142333984375" lon="-71.085531413555145263671875">
        <ele>788.79998779296875</ele>
        <time>2026-08-21T23:27:17.000Z</time>
        <extensions>
          <ns3:TrackPointExtension>
            <ns3:hr>130</ns3:hr>
            <ns3:cad>0</ns3:cad>
          </ns3:TrackPointExtension>
        </extensions>
      </trkpt>
      <trkpt lat="45.3057703189551830291748046875" lon="-71.08554608188569545745849609375">
        <ele>788.79998779296875</ele>
        <time>2026-08-21T23:27:18.000Z</time>
        <extensions>
          <ns3:TrackPointExtension>
            <ns3:hr>131</ns3:hr>
            <ns3:cad>53</ns3:cad>
          </ns3:TrackPointExtension>
        </extensions>
      </trkpt>
      <trkpt lat="45.3057704865932464599609375" lon="-71.085563600063323974609375">
        <ele>788.79998779296875</ele>
        <time>2026-08-21T23:27:19.000Z</time>
        <extensions>
          <ns3:TrackPointExtension>
            <ns3:hr>131</ns3:hr>
            <ns3:cad>52</ns3:cad>
          </ns3:TrackPointExtension>
        </extensions>
      </trkpt>
      <trkpt lat="45.3057740069925785064697265625" lon="-71.0855842195451259613037109375">
        <ele>789</ele>
        <time>2026-08-21T23:27:20.000Z</time>
        <extensions>
          <ns3:TrackPointExtension>
            <ns3:hr>131</ns3:hr>
            <ns3:cad>52</ns3:cad>
          </ns3:TrackPointExtension>
        </extensions>
      </trkpt>
      <trkpt lat="45.30577409081161022186279296875" lon="-71.0855983011424541473388671875">
        <ele>789</ele>
        <time>2026-08-21T23:27:21.000Z</time>
        <extensions>
          <ns3:TrackPointExtension>
            <ns3:hr>132</ns3:hr>
            <ns3:cad>52</ns3:cad>
          </ns3:TrackPointExtension>
        </extensions>
      </trkpt>
      <trkpt lat="45.305772162973880767822265625" lon="-71.08561313711106777191162109375">
        <ele>789.20001220703125</ele>
        <time>2026-08-21T23:27:22.000Z</time>
        <extensions>
          <ns3:TrackPointExtension>
            <ns3:hr>132</ns3:hr>
            <ns3:cad>52</ns3:cad>
          </ns3:TrackPointExtension>
        </extensions>
      </trkpt>
      <trkpt lat="45.30576889403164386749267578125" lon="-71.085622943937778472900390625">
        <ele>789.4000244140625</ele>
        <time>2026-08-21T23:27:23.000Z</time>
        <extensions>
          <ns3:TrackPointExtension>
            <ns3:hr>133</ns3:hr>
            <ns3:cad>50</ns3:cad>
          </ns3:TrackPointExtension>
        </extensions>
      </trkpt>
      <trkpt lat="45.3057659603655338287353515625" lon="-71.08563425950706005096435546875">
        <ele>789.5999755859375</ele>
        <time>2026-08-21T23:27:24.000Z</time>
        <extensions>
          <ns3:TrackPointExtension>
            <ns3:hr>133</ns3:hr>
            <ns3:cad>50</ns3:cad>
          </ns3:TrackPointExtension>
        </extensions>
      </trkpt>
      <trkpt lat="45.305763445794582366943359375" lon="-71.08564800582826137542724609375">
        <ele>789.79998779296875</ele>
        <time>2026-08-21T23:27:25.000Z</time>
        <extensions>
          <ns3:TrackPointExtension>
            <ns3:hr>133</ns3:hr>
            <ns3:cad>0</ns3:cad>
          </ns3:TrackPointExtension>
        </extensions>
      </trkpt>
      <trkpt lat="45.3057616017758846282958984375" lon="-71.0856615006923675537109375">
        <ele>789.79998779296875</ele>
        <time>2026-08-21T23:27:26.000Z</time>
        <extensions>
          <ns3:TrackPointExtension>
            <ns3:hr>133</ns3:hr>
            <ns3:cad>0</ns3:cad>
          </ns3:TrackPointExtension>
        </extensions>
      </trkpt>
      <trkpt lat="45.30576034449040889739990234375" lon="-71.0856737382709980010986328125">
        <ele>790</ele>
        <time>2026-08-21T23:27:27.000Z</time>
        <extensions>
          <ns3:TrackPointExtension>
            <ns3:hr>132</ns3:hr>
            <ns3:cad>0</ns3:cad>
          </ns3:TrackPointExtension>
        </extensions>
      </trkpt>
      <trkpt lat="45.3057575784623622894287109375" lon="-71.08568572439253330230712890625">
        <ele>790.20001220703125</ele>
        <time>2026-08-21T23:27:28.000Z</time>
        <extensions>
          <ns3:TrackPointExtension>
            <ns3:hr>132</ns3:hr>
            <ns3:cad>0</ns3:cad>
          </ns3:TrackPointExtension>
        </extensions>
      </trkpt>
      <trkpt lat="45.30575615353882312774658203125" lon="-71.08569460920989513397216796875">
        <ele>790.20001220703125</ele>
        <time>2026-08-21T23:27:29.000Z</time>
        <extensions>
          <ns3:TrackPointExtension>
            <ns3:hr>132</ns3:hr>
            <ns3:cad>0</ns3:cad>
          </ns3:TrackPointExtension>
        </extensions>
      </trkpt>
      <trkpt lat="45.3057463467121124267578125" lon="-71.08570181764662265777587890625">
        <ele>790.20001220703125</ele>
        <time>2026-08-21T23:27:30.000Z</time>
        <extensions>
          <ns3:TrackPointExtension>
            <ns3:hr>133</ns3:hr>
            <ns3:cad>0</ns3:cad>
          </ns3:TrackPointExtension>
        </extensions>
      </trkpt>
      <trkpt lat="45.30573922209441661834716796875" lon="-71.08570936135947704315185546875">
        <ele>790.4000244140625</ele>
        <time>2026-08-21T23:27:31.000Z</time>
        <extensions>
          <ns3:TrackPointExtension>
            <ns3:hr>133</ns3:hr>
            <ns3:cad>0</ns3:cad>
          </ns3:TrackPointExtension>
        </extensions>
      </trkpt>
      <trkpt lat="45.3057344444096088409423828125" lon="-71.08571388758718967437744140625">
        <ele>790.20001220703125</ele>
        <time>2026-08-21T23:27:32.000Z</time>
        <extensions>
          <ns3:TrackPointExtension>
            <ns3:hr>133</ns3:hr>
            <ns3:cad>0</ns3:cad>
          </ns3:TrackPointExtension>
        </extensions>
      </trkpt>
      <trkpt lat="45.3057280741631984710693359375" lon="-71.08571992255747318267822265625">
        <ele>790.20001220703125</ele>
        <time>2026-08-21T23:27:33.000Z</time>
        <extensions>
          <ns3:TrackPointExtension>
            <ns3:hr>132</ns3:hr>
            <ns3:cad>0</ns3:cad>
          </ns3:TrackPointExtension>
        </extensions>
      </trkpt>
      <trkpt lat="45.30571742914617061614990234375" lon="-71.0857203416526317596435546875">
        <ele>790.20001220703125</ele>
        <time>2026-08-21T23:27:34.000Z</time>
        <extensions>
          <ns3:TrackPointExtension>
            <ns3:hr>133</ns3:hr>
            <ns3:cad>0</ns3:cad>
          </ns3:TrackPointExtension>
        </extensions>
      </trkpt>
      <trkpt lat="45.30570703558623790740966796875" lon="-71.0857290588319301605224609375">
        <ele>790.20001220703125</ele>
        <time>2026-08-21T23:27:35.000Z</time>
        <extensions>
          <ns3:TrackPointExtension>
            <ns3:hr>133</ns3:hr>
            <ns3:cad>0</ns3:cad>
          </ns3:TrackPointExtension>
        </extensions>
      </trkpt>
      <trkpt lat="45.305698402225971221923828125" lon="-71.08574070967733860015869140625">
        <ele>790</ele>
        <time>2026-08-21T23:27:36.000Z</time>
        <extensions>
          <ns3:TrackPointExtension>
            <ns3:hr>132</ns3:hr>
            <ns3:cad>0</ns3:cad>
          </ns3:TrackPointExtension>
        </extensions>
      </trkpt>
      <trkpt lat="45.30569069087505340576171875" lon="-71.08575311489403247833251953125">
        <ele>789.79998779296875</ele>
        <time>2026-08-21T23:27:37.000Z</time>
        <extensions>
          <ns3:TrackPointExtension>
            <ns3:hr>132</ns3:hr>
            <ns3:cad>50</ns3:cad>
          </ns3:TrackPointExtension>
        </extensions>
      </trkpt>
      <trkpt lat="45.30567870475351810455322265625" lon="-71.085769124329090118408203125">
        <ele>789.79998779296875</ele>
        <time>2026-08-21T23:27:38.000Z</time>
        <extensions>
          <ns3:TrackPointExtension>
            <ns3:hr>132</ns3:hr>
            <ns3:cad>50</ns3:cad>
          </ns3:TrackPointExtension>
        </extensions>
      </trkpt>
      <trkpt lat="45.30567132867872714996337890625" lon="-71.08578043989837169647216796875">
        <ele>789.5999755859375</ele>
        <time>2026-08-21T23:27:39.000Z</time>
        <extensions>
          <ns3:TrackPointExtension>
            <ns3:hr>132</ns3:hr>
            <ns3:cad>50</ns3:cad>
          </ns3:TrackPointExtension>
        </extensions>
      </trkpt>
      <trkpt lat="45.3056539781391620635986328125" lon="-71.0857877321541309356689453125">
        <ele>789.5999755859375</ele>
        <time>2026-08-21T23:27:40.000Z</time>
        <extensions>
          <ns3:TrackPointExtension>
            <ns3:hr>132</ns3:hr>
            <ns3:cad>50</ns3:cad>
          </ns3:TrackPointExtension>
        </extensions>
      </trkpt>
      <trkpt lat="45.305636711418628692626953125" lon="-71.0857875645160675048828125">
        <ele>789.5999755859375</ele>
        <time>2026-08-21T23:27:41.000Z</time>
        <extensions>
          <ns3:TrackPointExtension>
            <ns3:hr>132</ns3:hr>
            <ns3:cad>50</ns3:cad>
          </ns3:TrackPointExtension>
        </extensions>
      </trkpt>
      <trkpt lat="45.305624306201934814453125" lon="-71.0857930965721607208251953125">
        <ele>789.4000244140625</ele>
        <time>2026-08-21T23:27:42.000Z</time>
        <extensions>
          <ns3:TrackPointExtension>
            <ns3:hr>131</ns3:hr>
            <ns3:cad>50</ns3:cad>
          </ns3:TrackPointExtension>
        </extensions>
      </trkpt>
      <trkpt lat="45.3056127391755580902099609375" lon="-71.08579854480922222137451171875">
        <ele>789.4000244140625</ele>
        <time>2026-08-21T23:27:43.000Z</time>
        <extensions>
          <ns3:TrackPointExtension>
            <ns3:hr>131</ns3:hr>
            <ns3:cad>50</ns3:cad>
          </ns3:TrackPointExtension>
        </extensions>
      </trkpt>
      <trkpt lat="45.30560016632080078125" lon="-71.08580290339887142181396484375">
        <ele>789.4000244140625</ele>
        <time>2026-08-21T23:27:44.000Z</time>
        <extensions>
          <ns3:TrackPointExtension>
            <ns3:hr>131</ns3:hr>
            <ns3:cad>0</ns3:cad>
          </ns3:TrackPointExtension>
        </extensions>
      </trkpt>
      <trkpt lat="45.305588431656360626220703125" lon="-71.08581061474978923797607421875">
        <ele>789.20001220703125</ele>
        <time>2026-08-21T23:27:45.000Z</time>
        <extensions>
          <ns3:TrackPointExtension>
            <ns3:hr>131</ns3:hr>
            <ns3:cad>0</ns3:cad>
          </ns3:TrackPointExtension>
        </extensions>
      </trkpt>
      <trkpt lat="45.305577032268047332763671875" lon="-71.08581162057816982269287109375">
        <ele>789.20001220703125</ele>
        <time>2026-08-21T23:27:46.000Z</time>
        <extensions>
          <ns3:TrackPointExtension>
            <ns3:hr>130</ns3:hr>
            <ns3:cad>0</ns3:cad>
          </ns3:TrackPointExtension>
        </extensions>
      </trkpt>
      <trkpt lat="45.3055679798126220703125" lon="-71.0858101956546306610107421875">
        <ele>789.4000244140625</ele>
        <time>2026-08-21T23:27:47.000Z</time>
        <extensions>
          <ns3:TrackPointExtension>
            <ns3:hr>130</ns3:hr>
            <ns3:cad>0</ns3:cad>
          </ns3:TrackPointExtension>
        </extensions>
      </trkpt>
      <trkpt lat="45.30555582605302333831787109375" lon="-71.08581178821623325347900390625">
        <ele>789.4000244140625</ele>
        <time>2026-08-21T23:27:48.000Z</time>
        <extensions>
          <ns3:TrackPointExtension>
            <ns3:hr>130</ns3:hr>
            <ns3:cad>0</ns3:cad>
          </ns3:TrackPointExtension>
        </extensions>
      </trkpt>
      <trkpt lat="45.30553990043699741363525390625" lon="-71.085810028016567230224609375">
        <ele>789.4000244140625</ele>
        <time>2026-08-21T23:27:49.000Z</time>
        <extensions>
          <ns3:TrackPointExtension>
            <ns3:hr>129</ns3:hr>
            <ns3:cad>0</ns3:cad>
          </ns3:TrackPointExtension>
        </extensions>
      </trkpt>
      <trkpt lat="45.30552883632481098175048828125" lon="-71.0858112014830112457275390625">
        <ele>789.5999755859375</ele>
        <time>2026-08-21T23:27:50.000Z</time>
        <extensions>
          <ns3:TrackPointExtension>
            <ns3:hr>128</ns3:hr>
            <ns3:cad>0</ns3:cad>
          </ns3:TrackPointExtension>
        </extensions>
      </trkpt>
      <trkpt lat="45.30551643110811710357666015625" lon="-71.0858135484158992767333984375">
        <ele>789.5999755859375</ele>
        <time>2026-08-21T23:27:51.000Z</time>
        <extensions>
          <ns3:TrackPointExtension>
            <ns3:hr>127</ns3:hr>
            <ns3:cad>0</ns3:cad>
          </ns3:TrackPointExtension>
        </extensions>
      </trkpt>
      <trkpt lat="45.30550721101462841033935546875" lon="-71.08581195585429668426513671875">
        <ele>789.5999755859375</ele>
        <time>2026-08-21T23:27:52.000Z</time>
        <extensions>
          <ns3:TrackPointExtension>
            <ns3:hr>127</ns3:hr>
            <ns3:cad>0</ns3:cad>
          </ns3:TrackPointExtension>
        </extensions>
      </trkpt>
      <trkpt lat="45.30549614690244197845458984375" lon="-71.0858135484158992767333984375">
        <ele>789.4000244140625</ele>
        <time>2026-08-21T23:27:53.000Z</time>
        <extensions>
          <ns3:TrackPointExtension>
            <ns3:hr>125</ns3:hr>
            <ns3:cad>0</ns3:cad>
          </ns3:TrackPointExtension>
        </extensions>
      </trkpt>
      <trkpt lat="45.3054813109338283538818359375" lon="-71.085822768509387969970703125">
        <ele>789.4000244140625</ele>
        <time>2026-08-21T23:27:54.000Z</time>
        <extensions>
          <ns3:TrackPointExtension>
            <ns3:hr>125</ns3:hr>
            <ns3:cad>51</ns3:cad>
          </ns3:TrackPointExtension>
        </extensions>
      </trkpt>
      <trkpt lat="45.30546764843165874481201171875" lon="-71.085840202867984771728515625">
        <ele>789.20001220703125</ele>
        <time>2026-08-21T23:27:55.000Z</time>
        <extensions>
          <ns3:TrackPointExtension>
            <ns3:hr>125</ns3:hr>
            <ns3:cad>51</ns3:cad>
          </ns3:TrackPointExtension>
        </extensions>
      </trkpt>
      <trkpt lat="45.30545691959559917449951171875" lon="-71.08585202135145664215087890625">
        <ele>789</ele>
        <time>2026-08-21T23:27:56.000Z</time>
        <extensions>
          <ns3:TrackPointExtension>
            <ns3:hr>125</ns3:hr>
            <ns3:cad>51</ns3:cad>
          </ns3:TrackPointExtension>
        </extensions>
      </trkpt>
      <trkpt lat="45.30544384382665157318115234375" lon="-71.08586425893008708953857421875">
        <ele>788.79998779296875</ele>
        <time>2026-08-21T23:27:57.000Z</time>
        <extensions>
          <ns3:TrackPointExtension>
            <ns3:hr>125</ns3:hr>
            <ns3:cad>51</ns3:cad>
          </ns3:TrackPointExtension>
        </extensions>
      </trkpt>
      <trkpt lat="45.30543244443833827972412109375" lon="-71.0858799330890178680419921875">
        <ele>788.5999755859375</ele>
        <time>2026-08-21T23:27:58.000Z</time>
        <extensions>
          <ns3:TrackPointExtension>
            <ns3:hr>124</ns3:hr>
            <ns3:cad>51</ns3:cad>
          </ns3:TrackPointExtension>
        </extensions>
      </trkpt>
      <trkpt lat="45.3054137527942657470703125" lon="-71.08588873408734798431396484375">
        <ele>788.5999755859375</ele>
        <time>2026-08-21T23:27:59.000Z</time>
        <extensions>
          <ns3:TrackPointExtension>
            <ns3:hr>124</ns3:hr>
            <ns3:cad>51</ns3:cad>
          </ns3:TrackPointExtension>
        </extensions>
      </trkpt>
      <trkpt lat="45.3054011799395084381103515625" lon="-71.08590625226497650146484375">
        <ele>788.4000244140625</ele>
        <time>2026-08-21T23:28:00.000Z</time>
        <extensions>
          <ns3:TrackPointExtension>
            <ns3:hr>124</ns3:hr>
            <ns3:cad>51</ns3:cad>
          </ns3:TrackPointExtension>
        </extensions>
      </trkpt>
      <trkpt lat="45.305390618741512298583984375" lon="-71.085923016071319580078125">
        <ele>788.4000244140625</ele>
        <time>2026-08-21T23:28:01.000Z</time>
        <extensions>
          <ns3:TrackPointExtension>
            <ns3:hr>124</ns3:hr>
            <ns3:cad>51</ns3:cad>
          </ns3:TrackPointExtension>
        </extensions>
      </trkpt>
      <trkpt lat="45.30538366176187992095947265625" lon="-71.08593869023025035858154296875">
        <ele>788.4000244140625</ele>
        <time>2026-08-21T23:28:02.000Z</time>
        <extensions>
          <ns3:TrackPointExtension>
            <ns3:hr>123</ns3:hr>
            <ns3:cad>57</ns3:cad>
          </ns3:TrackPointExtension>
        </extensions>
      </trkpt>
      <trkpt lat="45.3053767047822475433349609375" lon="-71.085959561169147491455078125">
        <ele>788.4000244140625</ele>
        <time>2026-08-21T23:28:03.000Z</time>
        <extensions>
          <ns3:TrackPointExtension>
            <ns3:hr>123</ns3:hr>
            <ns3:cad>57</ns3:cad>
          </ns3:TrackPointExtension>
        </extensions>
      </trkpt>
      <trkpt lat="45.3053699992597103118896484375" lon="-71.0859768278896808624267578125">
        <ele>788.20001220703125</ele>
        <time>2026-08-21T23:28:04.000Z</time>
        <extensions>
          <ns3:TrackPointExtension>
            <ns3:hr>123</ns3:hr>
            <ns3:cad>57</ns3:cad>
          </ns3:TrackPointExtension>
        </extensions>
      </trkpt>
      <trkpt lat="45.30536438338458538055419921875" lon="-71.0859935916960239410400390625">
        <ele>788.20001220703125</ele>
        <time>2026-08-21T23:28:05.000Z</time>
        <extensions>
          <ns3:TrackPointExtension>
            <ns3:hr>123</ns3:hr>
            <ns3:cad>57</ns3:cad>
          </ns3:TrackPointExtension>
        </extensions>
      </trkpt>
      <trkpt lat="45.305359773337841033935546875" lon="-71.0860066674649715423583984375">
        <ele>788</ele>
        <time>2026-08-21T23:28:06.000Z</time>
        <extensions>
          <ns3:TrackPointExtension>
            <ns3:hr>122</ns3:hr>
            <ns3:cad>54</ns3:cad>
          </ns3:TrackPointExtension>
        </extensions>
      </trkpt>
      <trkpt lat="45.305356085300445556640625" lon="-71.08601697720587253570556640625">
        <ele>787.79998779296875</ele>
        <time>2026-08-21T23:28:07.000Z</time>
        <extensions>
          <ns3:TrackPointExtension>
            <ns3:hr>122</ns3:hr>
            <ns3:cad>54</ns3:cad>
          </ns3:TrackPointExtension>
        </extensions>
      </trkpt>
      <trkpt lat="45.3053549118340015411376953125" lon="-71.08602619729936122894287109375">
        <ele>787.5999755859375</ele>
        <time>2026-08-21T23:28:08.000Z</time>
        <extensions>
          <ns3:TrackPointExtension>
            <ns3:hr>122</ns3:hr>
            <ns3:cad>0</ns3:cad>
          </ns3:TrackPointExtension>
        </extensions>
      </trkpt>
      <trkpt lat="45.3053542412817478179931640625" lon="-71.08603097498416900634765625">
        <ele>787.5999755859375</ele>
        <time>2026-08-21T23:28:09.000Z</time>
        <extensions>
          <ns3:TrackPointExtension>
            <ns3:hr>122</ns3:hr>
            <ns3:cad>0</ns3:cad>
          </ns3:TrackPointExtension>
        </extensions>
      </trkpt>
      <trkpt lat="45.30535398982465267181396484375" lon="-71.08603365719318389892578125">
        <ele>787.4000244140625</ele>
        <time>2026-08-21T23:28:10.000Z</time>
        <extensions>
          <ns3:TrackPointExtension>
            <ns3:hr>122</ns3:hr>
            <ns3:cad>0</ns3:cad>
          </ns3:TrackPointExtension>
        </extensions>
      </trkpt>
      <trkpt lat="45.30535281635820865631103515625" lon="-71.08603960834443569183349609375">
        <ele>787.4000244140625</ele>
        <time>2026-08-21T23:28:11.000Z</time>
        <extensions>
          <ns3:TrackPointExtension>
            <ns3:hr>120</ns3:hr>
            <ns3:cad>0</ns3:cad>
          </ns3:TrackPointExtension>
        </extensions>
      </trkpt>
      <trkpt lat="45.30535139143466949462890625" lon="-71.0860505886375904083251953125">
        <ele>787.4000244140625</ele>
        <time>2026-08-21T23:28:12.000Z</time>
        <extensions>
          <ns3:TrackPointExtension>
            <ns3:hr>120</ns3:hr>
            <ns3:cad>0</ns3:cad>
          </ns3:TrackPointExtension>
        </extensions>
      </trkpt>
      <trkpt lat="45.305348373949527740478515625" lon="-71.0860646702349185943603515625">
        <ele>787.4000244140625</ele>
        <time>2026-08-21T23:28:13.000Z</time>
        <extensions>
          <ns3:TrackPointExtension>
            <ns3:hr>119</ns3:hr>
            <ns3:cad>0</ns3:cad>
          </ns3:TrackPointExtension>
        </extensions>
      </trkpt>
      <trkpt lat="45.30534493736922740936279296875" lon="-71.08608202077448368072509765625">
        <ele>787.20001220703125</ele>
        <time>2026-08-21T23:28:14.000Z</time>
        <extensions>
          <ns3:TrackPointExtension>
            <ns3:hr>118</ns3:hr>
            <ns3:cad>0</ns3:cad>
          </ns3:TrackPointExtension>
        </extensions>
      </trkpt>
      <trkpt lat="45.305340327322483062744140625" lon="-71.08610297553241252899169921875">
        <ele>787.20001220703125</ele>
        <time>2026-08-21T23:28:15.000Z</time>
        <extensions>
          <ns3:TrackPointExtension>
            <ns3:hr>118</ns3:hr>
            <ns3:cad>0</ns3:cad>
          </ns3:TrackPointExtension>
        </extensions>
      </trkpt>
      <trkpt lat="45.3053358010947704315185546875" lon="-71.0861253552138805389404296875">
        <ele>787</ele>
        <time>2026-08-21T23:28:16.000Z</time>
        <extensions>
          <ns3:TrackPointExtension>
            <ns3:hr>117</ns3:hr>
            <ns3:cad>0</ns3:cad>
          </ns3:TrackPointExtension>
        </extensions>
      </trkpt>
      <trkpt lat="45.30533186160027980804443359375" lon="-71.08614228665828704833984375">
        <ele>787</ele>
        <time>2026-08-21T23:28:17.000Z</time>
        <extensions>
          <ns3:TrackPointExtension>
            <ns3:hr>116</ns3:hr>
            <ns3:cad>0</ns3:cad>
          </ns3:TrackPointExtension>
        </extensions>
      </trkpt>
      <trkpt lat="45.30533152632415294647216796875" lon="-71.08615678735077381134033203125">
        <ele>786.79998779296875</ele>
        <time>2026-08-21T23:28:18.000Z</time>
        <extensions>
          <ns3:TrackPointExtension>
            <ns3:hr>116</ns3:hr>
            <ns3:cad>0</ns3:cad>
          </ns3:TrackPointExtension>
        </extensions>
      </trkpt>
      <trkpt lat="45.30532767064869403839111328125" lon="-71.08617304824292659759521484375">
        <ele>786.79998779296875</ele>
        <time>2026-08-21T23:28:19.000Z</time>
        <extensions>
          <ns3:TrackPointExtension>
            <ns3:hr>116</ns3:hr>
            <ns3:cad>0</ns3:cad>
          </ns3:TrackPointExtension>
        </extensions>
      </trkpt>
      <trkpt lat="45.3053252398967742919921875" lon="-71.0861954279243946075439453125">
        <ele>786.79998779296875</ele>
        <time>2026-08-21T23:28:20.000Z</time>
        <extensions>
          <ns3:TrackPointExtension>
            <ns3:hr>116</ns3:hr>
            <ns3:cad>0</ns3:cad>
          </ns3:TrackPointExtension>
        </extensions>
      </trkpt>
      <trkpt lat="45.30532532371580600738525390625" lon="-71.0862202383577823638916015625">
        <ele>786.5999755859375</ele>
        <time>2026-08-21T23:28:21.000Z</time>
        <extensions>
          <ns3:TrackPointExtension>
            <ns3:hr>115</ns3:hr>
            <ns3:cad>64</ns3:cad>
          </ns3:TrackPointExtension>
        </extensions>
      </trkpt>
      <trkpt lat="45.30532347969710826873779296875" lon="-71.086243875324726104736328125">
        <ele>786.5999755859375</ele>
        <time>2026-08-21T23:28:22.000Z</time>
        <extensions>
          <ns3:TrackPointExtension>
            <ns3:hr>116</ns3:hr>
            <ns3:cad>64</ns3:cad>
          </ns3:TrackPointExtension>
        </extensions>
      </trkpt>
      <trkpt lat="45.305318869650363922119140625" lon="-71.08626164495944976806640625">
        <ele>786.5999755859375</ele>
        <time>2026-08-21T23:28:23.000Z</time>
        <extensions>
          <ns3:TrackPointExtension>
            <ns3:hr>116</ns3:hr>
            <ns3:cad>64</ns3:cad>
          </ns3:TrackPointExtension>
        </extensions>
      </trkpt>
      <trkpt lat="45.3053145110607147216796875" lon="-71.086282432079315185546875">
        <ele>786.4000244140625</ele>
        <time>2026-08-21T23:28:24.000Z</time>
        <extensions>
          <ns3:TrackPointExtension>
            <ns3:hr>117</ns3:hr>
            <ns3:cad>64</ns3:cad>
          </ns3:TrackPointExtension>
        </extensions>
      </trkpt>
      <trkpt lat="45.3053130023181438446044921875" lon="-71.08629693277180194854736328125">
        <ele>786.4000244140625</ele>
        <time>2026-08-21T23:28:25.000Z</time>
        <extensions>
          <ns3:TrackPointExtension>
            <ns3:hr>118</ns3:hr>
            <ns3:cad>62</ns3:cad>
          </ns3:TrackPointExtension>
        </extensions>
      </trkpt>
      <trkpt lat="45.30530713498592376708984375" lon="-71.08631386421620845794677734375">
        <ele>786.4000244140625</ele>
        <time>2026-08-21T23:28:26.000Z</time>
        <extensions>
          <ns3:TrackPointExtension>
            <ns3:hr>118</ns3:hr>
            <ns3:cad>62</ns3:cad>
          </ns3:TrackPointExtension>
        </extensions>
      </trkpt>
      <trkpt lat="45.3052985854446887969970703125" lon="-71.086343117058277130126953125">
        <ele>786.20001220703125</ele>
        <time>2026-08-21T23:28:27.000Z</time>
        <extensions>
          <ns3:TrackPointExtension>
            <ns3:hr>118</ns3:hr>
            <ns3:cad>62</ns3:cad>
          </ns3:TrackPointExtension>
        </extensions>
      </trkpt>
      <trkpt lat="45.30529640614986419677734375" lon="-71.08636063523590564727783203125">
        <ele>786.20001220703125</ele>
        <time>2026-08-21T23:28:28.000Z</time>
        <extensions>
          <ns3:TrackPointExtension>
            <ns3:hr>118</ns3:hr>
            <ns3:cad>62</ns3:cad>
          </ns3:TrackPointExtension>
        </extensions>
      </trkpt>
      <trkpt lat="45.30529112555086612701416015625" lon="-71.08637974597513675689697265625">
        <ele>785.79998779296875</ele>
        <time>2026-08-21T23:28:29.000Z</time>
        <extensions>
          <ns3:TrackPointExtension>
            <ns3:hr>118</ns3:hr>
            <ns3:cad>62</ns3:cad>
          </ns3:TrackPointExtension>
        </extensions>
      </trkpt>
      <trkpt lat="45.3052858449518680572509765625" lon="-71.08638980425894260406494140625">
        <ele>785.5999755859375</ele>
        <time>2026-08-21T23:28:30.000Z</time>
        <extensions>
          <ns3:TrackPointExtension>
            <ns3:hr>118</ns3:hr>
            <ns3:cad>62</ns3:cad>
          </ns3:TrackPointExtension>
        </extensions>
      </trkpt>
      <trkpt lat="45.30527268536388874053955078125" lon="-71.086410172283649444580078125">
        <ele>785.20001220703125</ele>
        <time>2026-08-21T23:28:31.000Z</time>
        <extensions>
          <ns3:TrackPointExtension>
            <ns3:hr>118</ns3:hr>
            <ns3:cad>62</ns3:cad>
          </ns3:TrackPointExtension>
        </extensions>
      </trkpt>
      <trkpt lat="45.3052653931081295013427734375" lon="-71.08643020503222942352294921875">
        <ele>785</ele>
        <time>2026-08-21T23:28:32.000Z</time>
        <extensions>
          <ns3:TrackPointExtension>
            <ns3:hr>118</ns3:hr>
            <ns3:cad>62</ns3:cad>
          </ns3:TrackPointExtension>
        </extensions>
      </trkpt>
      <trkpt lat="45.3052581846714019775390625" lon="-71.08646088279783725738525390625">
        <ele>784.5999755859375</ele>
        <time>2026-08-21T23:28:33.000Z</time>
        <extensions>
          <ns3:TrackPointExtension>
            <ns3:hr>118</ns3:hr>
            <ns3:cad>62</ns3:cad>
          </ns3:TrackPointExtension>
        </extensions>
      </trkpt>
      <trkpt lat="45.30525357462465763092041015625" lon="-71.0864938236773014068603515625">
        <ele>784.4000244140625</ele>
        <time>2026-08-21T23:28:34.000Z</time>
        <extensions>
          <ns3:TrackPointExtension>
            <ns3:hr>118</ns3:hr>
            <ns3:cad>75</ns3:cad>
          </ns3:TrackPointExtension>
        </extensions>
      </trkpt>
      <trkpt lat="45.30524921603500843048095703125" lon="-71.086520142853260040283203125">
        <ele>784.20001220703125</ele>
        <time>2026-08-21T23:28:35.000Z</time>
        <extensions>
          <ns3:TrackPointExtension>
            <ns3:hr>118</ns3:hr>
            <ns3:cad>75</ns3:cad>
          </ns3:TrackPointExtension>
        </extensions>
      </trkpt>
      <trkpt lat="45.30524888075888156890869140625" lon="-71.08654269017279148101806640625">
        <ele>784</ele>
        <time>2026-08-21T23:28:36.000Z</time>
        <extensions>
          <ns3:TrackPointExtension>
            <ns3:hr>118</ns3:hr>
            <ns3:cad>75</ns3:cad>
          </ns3:TrackPointExtension>
        </extensions>
      </trkpt>
      <trkpt lat="45.3052446059882640838623046875" lon="-71.08656817115843296051025390625">
        <ele>784</ele>
        <time>2026-08-21T23:28:37.000Z</time>
        <extensions>
          <ns3:TrackPointExtension>
            <ns3:hr>117</ns3:hr>
            <ns3:cad>75</ns3:cad>
          </ns3:TrackPointExtension>
        </extensions>
      </trkpt>
      <trkpt lat="45.3052415885031223297119140625" lon="-71.08658753335475921630859375">
        <ele>783.79998779296875</ele>
        <time>2026-08-21T23:28:38.000Z</time>
        <extensions>
          <ns3:TrackPointExtension>
            <ns3:hr>118</ns3:hr>
            <ns3:cad>75</ns3:cad>
          </ns3:TrackPointExtension>
        </extensions>
      </trkpt>
      <trkpt lat="45.30523798428475856781005859375" lon="-71.08661611564457416534423828125">
        <ele>783.79998779296875</ele>
        <time>2026-08-21T23:28:39.000Z</time>
        <extensions>
          <ns3:TrackPointExtension>
            <ns3:hr>118</ns3:hr>
            <ns3:cad>0</ns3:cad>
          </ns3:TrackPointExtension>
        </extensions>
      </trkpt>
      <trkpt lat="45.30523261986672878265380859375" lon="-71.086647212505340576171875">
        <ele>784</ele>
        <time>2026-08-21T23:28:40.000Z</time>
        <extensions>
          <ns3:TrackPointExtension>
            <ns3:hr>118</ns3:hr>
            <ns3:cad>0</ns3:cad>
          </ns3:TrackPointExtension>
        </extensions>
      </trkpt>
      <trkpt lat="45.305229015648365020751953125" lon="-71.0866654850542545318603515625">
        <ele>784</ele>
        <time>2026-08-21T23:28:41.000Z</time>
        <extensions>
          <ns3:TrackPointExtension>
            <ns3:hr>117</ns3:hr>
            <ns3:cad>0</ns3:cad>
          </ns3:TrackPointExtension>
        </extensions>
      </trkpt>
      <trkpt lat="45.30522138811647891998291015625" lon="-71.0866909660398960113525390625">
        <ele>784</ele>
        <time>2026-08-21T23:28:42.000Z</time>
        <extensions>
          <ns3:TrackPointExtension>
            <ns3:hr>117</ns3:hr>
            <ns3:cad>0</ns3:cad>
          </ns3:TrackPointExtension>
        </extensions>
      </trkpt>
      <trkpt lat="45.30521459877490997314453125" lon="-71.08671217225492000579833984375">
        <ele>784.20001220703125</ele>
        <time>2026-08-21T23:28:43.000Z</time>
        <extensions>
          <ns3:TrackPointExtension>
            <ns3:hr>117</ns3:hr>
            <ns3:cad>0</ns3:cad>
          </ns3:TrackPointExtension>
        </extensions>
      </trkpt>
      <trkpt lat="45.3052100725471973419189453125" lon="-71.0867382399737834930419921875">
        <ele>784.20001220703125</ele>
        <time>2026-08-21T23:28:44.000Z</time>
        <extensions>
          <ns3:TrackPointExtension>
            <ns3:hr>118</ns3:hr>
            <ns3:cad>0</ns3:cad>
          </ns3:TrackPointExtension>
        </extensions>
      </trkpt>
      <trkpt lat="45.3052070550620555877685546875" lon="-71.086767576634883880615234375">
        <ele>784.20001220703125</ele>
        <time>2026-08-21T23:28:45.000Z</time>
        <extensions>
          <ns3:TrackPointExtension>
            <ns3:hr>118</ns3:hr>
            <ns3:cad>0</ns3:cad>
          </ns3:TrackPointExtension>
        </extensions>
      </trkpt>
      <trkpt lat="45.30520512722432613372802734375" lon="-71.0867828316986560821533203125">
        <ele>784.20001220703125</ele>
        <time>2026-08-21T23:28:46.000Z</time>
        <extensions>
          <ns3:TrackPointExtension>
            <ns3:hr>118</ns3:hr>
            <ns3:cad>0</ns3:cad>
          </ns3:TrackPointExtension>
        </extensions>
      </trkpt>
      <trkpt lat="45.305200517177581787109375" lon="-71.086810491979122161865234375">
        <ele>784.20001220703125</ele>
        <time>2026-08-21T23:28:47.000Z</time>
        <extensions>
          <ns3:TrackPointExtension>
            <ns3:hr>118</ns3:hr>
            <ns3:cad>0</ns3:cad>
          </ns3:TrackPointExtension>
        </extensions>
      </trkpt>
      <trkpt lat="45.30520043335855007171630859375" lon="-71.08682264573872089385986328125">
        <ele>784.20001220703125</ele>
        <time>2026-08-21T23:28:48.000Z</time>
        <extensions>
          <ns3:TrackPointExtension>
            <ns3:hr>118</ns3:hr>
            <ns3:cad>0</ns3:cad>
          </ns3:TrackPointExtension>
        </extensions>
      </trkpt>
      <trkpt lat="45.3051956556737422943115234375" lon="-71.086840331554412841796875">
        <ele>784</ele>
        <time>2026-08-21T23:28:49.000Z</time>
        <extensions>
          <ns3:TrackPointExtension>
            <ns3:hr>118</ns3:hr>
            <ns3:cad>0</ns3:cad>
          </ns3:TrackPointExtension>
        </extensions>
      </trkpt>
      <trkpt lat="45.30518987216055393218994140625" lon="-71.08684846200048923492431640625">
        <ele>784</ele>
        <time>2026-08-21T23:28:50.000Z</time>
        <extensions>
          <ns3:TrackPointExtension>
            <ns3:hr>118</ns3:hr>
            <ns3:cad>0</ns3:cad>
          </ns3:TrackPointExtension>
        </extensions>
      </trkpt>
      <trkpt lat="45.30518266372382640838623046875" lon="-71.0868497192859649658203125">
        <ele>784</ele>
        <time>2026-08-21T23:28:51.000Z</time>
        <extensions>
          <ns3:TrackPointExtension>
            <ns3:hr>118</ns3:hr>
            <ns3:cad>0</ns3:cad>
          </ns3:TrackPointExtension>
        </extensions>
      </trkpt>
      <trkpt lat="45.30517193488776683807373046875" lon="-71.086858771741390228271484375">
        <ele>784</ele>
        <time>2026-08-21T23:28:52.000Z</time>
        <extensions>
          <ns3:TrackPointExtension>
            <ns3:hr>119</ns3:hr>
            <ns3:cad>0</ns3:cad>
          </ns3:TrackPointExtension>
        </extensions>
      </trkpt>
      <trkpt lat="45.30516372062265872955322265625" lon="-71.086872182786464691162109375">
        <ele>783.79998779296875</ele>
        <time>2026-08-21T23:28:53.000Z</time>
        <extensions>
          <ns3:TrackPointExtension>
            <ns3:hr>119</ns3:hr>
            <ns3:cad>0</ns3:cad>
          </ns3:TrackPointExtension>
        </extensions>
      </trkpt>
      <trkpt lat="45.30515433289110660552978515625" lon="-71.0868867672979831695556640625">
        <ele>783.79998779296875</ele>
        <time>2026-08-21T23:28:54.000Z</time>
        <extensions>
          <ns3:TrackPointExtension>
            <ns3:hr>120</ns3:hr>
            <ns3:cad>0</ns3:cad>
          </ns3:TrackPointExtension>
        </extensions>
      </trkpt>
      <trkpt lat="45.3051493875682353973388671875" lon="-71.08689271844923496246337890625">
        <ele>783.79998779296875</ele>
        <time>2026-08-21T23:28:55.000Z</time>
        <extensions>
          <ns3:TrackPointExtension>
            <ns3:hr>120</ns3:hr>
            <ns3:cad>0</ns3:cad>
          </ns3:TrackPointExtension>
        </extensions>
      </trkpt>
      <trkpt lat="45.30513840727508068084716796875" lon="-71.08689322136342525482177734375">
        <ele>783.5999755859375</ele>
        <time>2026-08-21T23:28:56.000Z</time>
        <extensions>
          <ns3:TrackPointExtension>
            <ns3:hr>119</ns3:hr>
            <ns3:cad>0</ns3:cad>
          </ns3:TrackPointExtension>
        </extensions>
      </trkpt>
      <trkpt lat="45.3051249124109745025634765625" lon="-71.086892969906330108642578125">
        <ele>783.5999755859375</ele>
        <time>2026-08-21T23:28:57.000Z</time>
        <extensions>
          <ns3:TrackPointExtension>
            <ns3:hr>119</ns3:hr>
            <ns3:cad>0</ns3:cad>
          </ns3:TrackPointExtension>
        </extensions>
      </trkpt>
      <trkpt lat="45.30511267483234405517578125" lon="-71.08689330518245697021484375">
        <ele>783.5999755859375</ele>
        <time>2026-08-21T23:28:58.000Z</time>
        <extensions>
          <ns3:TrackPointExtension>
            <ns3:hr>118</ns3:hr>
            <ns3:cad>0</ns3:cad>
          </ns3:TrackPointExtension>
        </extensions>
      </trkpt>
      <trkpt lat="45.3051017783582210540771484375" lon="-71.086884923279285430908203125">
        <ele>783.4000244140625</ele>
        <time>2026-08-21T23:28:59.000Z</time>
        <extensions>
          <ns3:TrackPointExtension>
            <ns3:hr>118</ns3:hr>
            <ns3:cad>0</ns3:cad>
          </ns3:TrackPointExtension>
        </extensions>
      </trkpt>
      <trkpt lat="45.30509079806506633758544921875" lon="-71.08687612228095531463623046875">
        <ele>783.4000244140625</ele>
        <time>2026-08-21T23:29:00.000Z</time>
        <extensions>
          <ns3:TrackPointExtension>
            <ns3:hr>117</ns3:hr>
            <ns3:cad>0</ns3:cad>
          </ns3:TrackPointExtension>
        </extensions>
      </trkpt>
      <trkpt lat="45.3050799854099750518798828125" lon="-71.0868716798722743988037109375">
        <ele>783.4000244140625</ele>
        <time>2026-08-21T23:29:01.000Z</time>
        <extensions>
          <ns3:TrackPointExtension>
            <ns3:hr>117</ns3:hr>
            <ns3:cad>0</ns3:cad>
          </ns3:TrackPointExtension>
        </extensions>
      </trkpt>
      <trkpt lat="45.30507151968777179718017578125" lon="-71.08687377534806728363037109375">
        <ele>783.4000244140625</ele>
        <time>2026-08-21T23:29:02.000Z</time>
        <extensions>
          <ns3:TrackPointExtension>
            <ns3:hr>116</ns3:hr>
            <ns3:cad>0</ns3:cad>
          </ns3:TrackPointExtension>
        </extensions>
      </trkpt>
      <trkpt lat="45.30506012029945850372314453125" lon="-71.08687318861484527587890625">
        <ele>783.4000244140625</ele>
        <time>2026-08-21T23:29:03.000Z</time>
        <extensions>
          <ns3:TrackPointExtension>
            <ns3:hr>115</ns3:hr>
            <ns3:cad>0</ns3:cad>
          </ns3:TrackPointExtension>
        </extensions>
      </trkpt>
      <trkpt lat="45.3050548397004604339599609375" lon="-71.08687327243387699127197265625">
        <ele>783.4000244140625</ele>
        <time>2026-08-21T23:29:04.000Z</time>
        <extensions>
          <ns3:TrackPointExtension>
            <ns3:hr>115</ns3:hr>
            <ns3:cad>0</ns3:cad>
          </ns3:TrackPointExtension>
        </extensions>
      </trkpt>
      <trkpt lat="45.30503933317959308624267578125" lon="-71.0868683271110057830810546875">
        <ele>783.20001220703125</ele>
        <time>2026-08-21T23:29:05.000Z</time>
        <extensions>
          <ns3:TrackPointExtension>
            <ns3:hr>115</ns3:hr>
            <ns3:cad>59</ns3:cad>
          </ns3:TrackPointExtension>
        </extensions>
      </trkpt>
      <trkpt lat="45.305030532181262969970703125" lon="-71.0868631303310394287109375">
        <ele>783.20001220703125</ele>
        <time>2026-08-21T23:29:06.000Z</time>
        <extensions>
          <ns3:TrackPointExtension>
            <ns3:hr>116</ns3:hr>
            <ns3:cad>59</ns3:cad>
          </ns3:TrackPointExtension>
        </extensions>
      </trkpt>
      <trkpt lat="45.30501938425004482269287109375" lon="-71.08685986138880252838134765625">
        <ele>783</ele>
        <time>2026-08-21T23:29:07.000Z</time>
        <extensions>
          <ns3:TrackPointExtension>
            <ns3:hr>116</ns3:hr>
            <ns3:cad>59</ns3:cad>
          </ns3:TrackPointExtension>
        </extensions>
      </trkpt>
      <trkpt lat="45.3050100803375244140625" lon="-71.0868498869240283966064453125">
        <ele>782.79998779296875</ele>
        <time>2026-08-21T23:29:08.000Z</time>
        <extensions>
          <ns3:TrackPointExtension>
            <ns3:hr>116</ns3:hr>
            <ns3:cad>59</ns3:cad>
          </ns3:TrackPointExtension>
        </extensions>
      </trkpt>
      <trkpt lat="45.30500429682433605194091796875" lon="-71.0868415050208568572998046875">
        <ele>782.79998779296875</ele>
        <time>2026-08-21T23:29:09.000Z</time>
        <extensions>
          <ns3:TrackPointExtension>
            <ns3:hr>117</ns3:hr>
            <ns3:cad>59</ns3:cad>
          </ns3:TrackPointExtension>
        </extensions>
      </trkpt>
      <trkpt lat="45.3049968369305133819580078125" lon="-71.086834967136383056640625">
        <ele>782.79998779296875</ele>
        <time>2026-08-21T23:29:10.000Z</time>
        <extensions>
          <ns3:TrackPointExtension>
            <ns3:hr>117</ns3:hr>
            <ns3:cad>61</ns3:cad>
          </ns3:TrackPointExtension>
        </extensions>
      </trkpt>
      <trkpt lat="45.30498149804770946502685546875" lon="-71.08682088553905487060546875">
        <ele>782.5999755859375</ele>
        <time>2026-08-21T23:29:11.000Z</time>
        <extensions>
          <ns3:TrackPointExtension>
            <ns3:hr>116</ns3:hr>
            <ns3:cad>61</ns3:cad>
          </ns3:TrackPointExtension>
        </extensions>
      </trkpt>
      <trkpt lat="45.3049592860043048858642578125" lon="-71.08681677840650081634521484375">
        <ele>782.20001220703125</ele>
        <time>2026-08-21T23:29:12.000Z</time>
        <extensions>
          <ns3:TrackPointExtension>
            <ns3:hr>116</ns3:hr>
            <ns3:cad>0</ns3:cad>
          </ns3:TrackPointExtension>
        </extensions>
      </trkpt>
      <trkpt lat="45.304933972656726837158203125" lon="-71.08681309036910533905029296875">
        <ele>782</ele>
        <time>2026-08-21T23:29:13.000Z</time>
        <extensions>
          <ns3:TrackPointExtension>
            <ns3:hr>116</ns3:hr>
            <ns3:cad>0</ns3:cad>
          </ns3:TrackPointExtension>
        </extensions>
      </trkpt>
      <trkpt lat="45.30491226352751255035400390625" lon="-71.0868130065500736236572265625">
        <ele>781.5999755859375</ele>
        <time>2026-08-21T23:29:14.000Z</time>
        <extensions>
          <ns3:TrackPointExtension>
            <ns3:hr>115</ns3:hr>
            <ns3:cad>0</ns3:cad>
          </ns3:TrackPointExtension>
        </extensions>
      </trkpt>
      <trkpt lat="45.30488996766507625579833984375" lon="-71.08681241981685161590576171875">
        <ele>781.4000244140625</ele>
        <time>2026-08-21T23:29:15.000Z</time>
        <extensions>
          <ns3:TrackPointExtension>
            <ns3:hr>115</ns3:hr>
            <ns3:cad>0</ns3:cad>
          </ns3:TrackPointExtension>
        </extensions>
      </trkpt>
      <trkpt lat="45.30486381612718105316162109375" lon="-71.08680504374206066131591796875">
        <ele>781.4000244140625</ele>
        <time>2026-08-21T23:29:16.000Z</time>
        <extensions>
          <ns3:TrackPointExtension>
            <ns3:hr>115</ns3:hr>
            <ns3:cad>0</ns3:cad>
          </ns3:TrackPointExtension>
        </extensions>
      </trkpt>
      <trkpt lat="45.3048405982553958892822265625" lon="-71.0868041217327117919921875">
        <ele>781.5999755859375</ele>
        <time>2026-08-21T23:29:17.000Z</time>
        <extensions>
          <ns3:TrackPointExtension>
            <ns3:hr>116</ns3:hr>
            <ns3:cad>0</ns3:cad>
          </ns3:TrackPointExtension>
        </extensions>
      </trkpt>
      <trkpt lat="45.3048251755535602569580078125" lon="-71.0868041217327117919921875">
        <ele>781.5999755859375</ele>
        <time>2026-08-21T23:29:18.000Z</time>
        <extensions>
          <ns3:TrackPointExtension>
            <ns3:hr>117</ns3:hr>
            <ns3:cad>0</ns3:cad>
          </ns3:TrackPointExtension>
        </extensions>
      </trkpt>
      <trkpt lat="45.30480480752885341644287109375" lon="-71.086802780628204345703125">
        <ele>781.79998779296875</ele>
        <time>2026-08-21T23:29:19.000Z</time>
        <extensions>
          <ns3:TrackPointExtension>
            <ns3:hr>120</ns3:hr>
            <ns3:cad>0</ns3:cad>
          </ns3:TrackPointExtension>
        </extensions>
      </trkpt>
      <trkpt lat="45.3047876246273517608642578125" lon="-71.08680479228496551513671875">
        <ele>782</ele>
        <time>2026-08-21T23:29:20.000Z</time>
        <extensions>
          <ns3:TrackPointExtension>
            <ns3:hr>122</ns3:hr>
            <ns3:cad>0</ns3:cad>
          </ns3:TrackPointExtension>
        </extensions>
      </trkpt>
      <trkpt lat="45.30477060936391353607177734375" lon="-71.0868096537888050079345703125">
        <ele>782</ele>
        <time>2026-08-21T23:29:21.000Z</time>
        <extensions>
          <ns3:TrackPointExtension>
            <ns3:hr>123</ns3:hr>
            <ns3:cad>0</ns3:cad>
          </ns3:TrackPointExtension>
        </extensions>
      </trkpt>
      <trkpt lat="45.304756276309490203857421875" lon="-71.086818538606166839599609375">
        <ele>782.20001220703125</ele>
        <time>2026-08-21T23:29:22.000Z</time>
        <extensions>
          <ns3:TrackPointExtension>
            <ns3:hr>123</ns3:hr>
            <ns3:cad>0</ns3:cad>
          </ns3:TrackPointExtension>
        </extensions>
      </trkpt>
      <trkpt lat="45.30474395491182804107666015625" lon="-71.0868250764906406402587890625">
        <ele>782.4000244140625</ele>
        <time>2026-08-21T23:29:23.000Z</time>
        <extensions>
          <ns3:TrackPointExtension>
            <ns3:hr>124</ns3:hr>
            <ns3:cad>0</ns3:cad>
          </ns3:TrackPointExtension>
        </extensions>
      </trkpt>
      <trkpt lat="45.3047299571335315704345703125" lon="-71.08683572150766849517822265625">
        <ele>782.4000244140625</ele>
        <time>2026-08-21T23:29:24.000Z</time>
        <extensions>
          <ns3:TrackPointExtension>
            <ns3:hr>124</ns3:hr>
            <ns3:cad>0</ns3:cad>
          </ns3:TrackPointExtension>
        </extensions>
      </trkpt>
      <trkpt lat="45.30472350306808948516845703125" lon="-71.0868539102375507354736328125">
        <ele>782.4000244140625</ele>
        <time>2026-08-21T23:29:25.000Z</time>
        <extensions>
          <ns3:TrackPointExtension>
            <ns3:hr>124</ns3:hr>
            <ns3:cad>0</ns3:cad>
          </ns3:TrackPointExtension>
        </extensions>
      </trkpt>
      <trkpt lat="45.30471461825072765350341796875" lon="-71.08687679283320903778076171875">
        <ele>782.4000244140625</ele>
        <time>2026-08-21T23:29:26.000Z</time>
        <extensions>
          <ns3:TrackPointExtension>
            <ns3:hr>124</ns3:hr>
            <ns3:cad>0</ns3:cad>
          </ns3:TrackPointExtension>
        </extensions>
      </trkpt>
      <trkpt lat="45.3047115169465541839599609375" lon="-71.086892969906330108642578125">
        <ele>782.4000244140625</ele>
        <time>2026-08-21T23:29:27.000Z</time>
        <extensions>
          <ns3:TrackPointExtension>
            <ns3:hr>124</ns3:hr>
            <ns3:cad>0</ns3:cad>
          </ns3:TrackPointExtension>
        </extensions>
      </trkpt>
      <trkpt lat="45.30470573343336582183837890625" lon="-71.08692188747227191925048828125">
        <ele>782.4000244140625</ele>
        <time>2026-08-21T23:29:28.000Z</time>
        <extensions>
          <ns3:TrackPointExtension>
            <ns3:hr>125</ns3:hr>
            <ns3:cad>0</ns3:cad>
          </ns3:TrackPointExtension>
        </extensions>
      </trkpt>
      <trkpt lat="45.304703973233699798583984375" lon="-71.0869518108665943145751953125">
        <ele>782.4000244140625</ele>
        <time>2026-08-21T23:29:29.000Z</time>
        <extensions>
          <ns3:TrackPointExtension>
            <ns3:hr>125</ns3:hr>
            <ns3:cad>0</ns3:cad>
          </ns3:TrackPointExtension>
        </extensions>
      </trkpt>
      <trkpt lat="45.3047044761478900909423828125" lon="-71.08697335235774517059326171875">
        <ele>782.4000244140625</ele>
        <time>2026-08-21T23:29:30.000Z</time>
        <extensions>
          <ns3:TrackPointExtension>
            <ns3:hr>124</ns3:hr>
            <ns3:cad>0</ns3:cad>
          </ns3:TrackPointExtension>
        </extensions>
      </trkpt>
      <trkpt lat="45.304699949920177459716796875" lon="-71.08700118027627468109130859375">
        <ele>782.20001220703125</ele>
        <time>2026-08-21T23:29:31.000Z</time>
        <extensions>
          <ns3:TrackPointExtension>
            <ns3:hr>124</ns3:hr>
            <ns3:cad>0</ns3:cad>
          </ns3:TrackPointExtension>
        </extensions>
      </trkpt>
      <trkpt lat="45.30469869263470172882080078125" lon="-71.0870238952338695526123046875">
        <ele>782.20001220703125</ele>
        <time>2026-08-21T23:29:32.000Z</time>
        <extensions>
          <ns3:TrackPointExtension>
            <ns3:hr>124</ns3:hr>
            <ns3:cad>0</ns3:cad>
          </ns3:TrackPointExtension>
        </extensions>
      </trkpt>
      <trkpt lat="45.30469249002635478973388671875" lon="-71.08704459853470325469970703125">
        <ele>782.20001220703125</ele>
        <time>2026-08-21T23:29:33.000Z</time>
        <extensions>
          <ns3:TrackPointExtension>
            <ns3:hr>123</ns3:hr>
            <ns3:cad>0</ns3:cad>
          </ns3:TrackPointExtension>
        </extensions>
      </trkpt>
      <trkpt lat="45.3046868741512298583984375" lon="-71.087065637111663818359375">
        <ele>782.20001220703125</ele>
        <time>2026-08-21T23:29:34.000Z</time>
        <extensions>
          <ns3:TrackPointExtension>
            <ns3:hr>123</ns3:hr>
            <ns3:cad>70</ns3:cad>
          </ns3:TrackPointExtension>
        </extensions>
      </trkpt>
      <trkpt lat="45.3046870417892932891845703125" lon="-71.08708734624087810516357421875">
        <ele>782</ele>
        <time>2026-08-21T23:29:35.000Z</time>
        <extensions>
          <ns3:TrackPointExtension>
            <ns3:hr>122</ns3:hr>
            <ns3:cad>70</ns3:cad>
          </ns3:TrackPointExtension>
        </extensions>
      </trkpt>
      <trkpt lat="45.3046868741512298583984375" lon="-71.087108217179775238037109375">
        <ele>781.79998779296875</ele>
        <time>2026-08-21T23:29:36.000Z</time>
        <extensions>
          <ns3:TrackPointExtension>
            <ns3:hr>122</ns3:hr>
            <ns3:cad>70</ns3:cad>
          </ns3:TrackPointExtension>
        </extensions>
      </trkpt>
      <trkpt lat="45.3046853654086589813232421875" lon="-71.08712799847126007080078125">
        <ele>781.5999755859375</ele>
        <time>2026-08-21T23:29:37.000Z</time>
        <extensions>
          <ns3:TrackPointExtension>
            <ns3:hr>123</ns3:hr>
            <ns3:cad>70</ns3:cad>
          </ns3:TrackPointExtension>
        </extensions>
      </trkpt>
      <trkpt lat="45.30468377284705638885498046875" lon="-71.08714635483920574188232421875">
        <ele>781.5999755859375</ele>
        <time>2026-08-21T23:29:38.000Z</time>
        <extensions>
          <ns3:TrackPointExtension>
            <ns3:hr>123</ns3:hr>
            <ns3:cad>70</ns3:cad>
          </ns3:TrackPointExtension>
        </extensions>
      </trkpt>
      <trkpt lat="45.3046806715428829193115234375" lon="-71.0871616937220096588134765625">
        <ele>781.4000244140625</ele>
        <time>2026-08-21T23:29:39.000Z</time>
        <extensions>
          <ns3:TrackPointExtension>
            <ns3:hr>123</ns3:hr>
            <ns3:cad>65</ns3:cad>
          </ns3:TrackPointExtension>
        </extensions>
      </trkpt>
      <trkpt lat="45.3046726249158382415771484375" lon="-71.0871796309947967529296875">
        <ele>781.20001220703125</ele>
        <time>2026-08-21T23:29:40.000Z</time>
        <extensions>
          <ns3:TrackPointExtension>
            <ns3:hr>123</ns3:hr>
            <ns3:cad>65</ns3:cad>
          </ns3:TrackPointExtension>
        </extensions>
      </trkpt>
      <trkpt lat="45.30466600321233272552490234375" lon="-71.0872002504765987396240234375">
        <ele>781.20001220703125</ele>
        <time>2026-08-21T23:29:41.000Z</time>
        <extensions>
          <ns3:TrackPointExtension>
            <ns3:hr>124</ns3:hr>
            <ns3:cad>65</ns3:cad>
          </ns3:TrackPointExtension>
        </extensions>
      </trkpt>
      <trkpt lat="45.30466784723103046417236328125" lon="-71.08721307478845119476318359375">
        <ele>781.20001220703125</ele>
        <time>2026-08-21T23:29:42.000Z</time>
        <extensions>
          <ns3:TrackPointExtension>
            <ns3:hr>123</ns3:hr>
            <ns3:cad>65</ns3:cad>
          </ns3:TrackPointExtension>
        </extensions>
      </trkpt>
      <trkpt lat="45.3046645782887935638427734375" lon="-71.0872321017086505889892578125">
        <ele>781.20001220703125</ele>
        <time>2026-08-21T23:29:43.000Z</time>
        <extensions>
          <ns3:TrackPointExtension>
            <ns3:hr>124</ns3:hr>
            <ns3:cad>71</ns3:cad>
          </ns3:TrackPointExtension>
        </extensions>
      </trkpt>
      <trkpt lat="45.30466248281300067901611328125" lon="-71.0872538946568965911865234375">
        <ele>781.20001220703125</ele>
        <time>2026-08-21T23:29:44.000Z</time>
        <extensions>
          <ns3:TrackPointExtension>
            <ns3:hr>124</ns3:hr>
            <ns3:cad>71</ns3:cad>
          </ns3:TrackPointExtension>
        </extensions>
      </trkpt>
      <trkpt lat="45.30466047115623950958251953125" lon="-71.08726990409195423126220703125">
        <ele>781.20001220703125</ele>
        <time>2026-08-21T23:29:45.000Z</time>
        <extensions>
          <ns3:TrackPointExtension>
            <ns3:hr>124</ns3:hr>
            <ns3:cad>71</ns3:cad>
          </ns3:TrackPointExtension>
        </extensions>
      </trkpt>
      <trkpt lat="45.3046582080423831939697265625" lon="-71.08729706145823001861572265625">
        <ele>781.4000244140625</ele>
        <time>2026-08-21T23:29:46.000Z</time>
        <extensions>
          <ns3:TrackPointExtension>
            <ns3:hr>124</ns3:hr>
            <ns3:cad>71</ns3:cad>
          </ns3:TrackPointExtension>
        </extensions>
      </trkpt>
      <trkpt lat="45.30465762130916118621826171875" lon="-71.08731885440647602081298828125">
        <ele>781.4000244140625</ele>
        <time>2026-08-21T23:29:47.000Z</time>
        <extensions>
          <ns3:TrackPointExtension>
            <ns3:hr>124</ns3:hr>
            <ns3:cad>71</ns3:cad>
          </ns3:TrackPointExtension>
        </extensions>
      </trkpt>
      <trkpt lat="45.30465594492852687835693359375" lon="-71.08734550885856151580810546875">
        <ele>781.20001220703125</ele>
        <time>2026-08-21T23:29:48.000Z</time>
        <extensions>
          <ns3:TrackPointExtension>
            <ns3:hr>123</ns3:hr>
            <ns3:cad>71</ns3:cad>
          </ns3:TrackPointExtension>
        </extensions>
      </trkpt>
      <trkpt lat="45.304655022919178009033203125" lon="-71.0873628593981266021728515625">
        <ele>781</ele>
        <time>2026-08-21T23:29:49.000Z</time>
        <extensions>
          <ns3:TrackPointExtension>
            <ns3:hr>122</ns3:hr>
            <ns3:cad>71</ns3:cad>
          </ns3:TrackPointExtension>
        </extensions>
      </trkpt>
      <trkpt lat="45.3046528436243534088134765625" lon="-71.08738088048994541168212890625">
        <ele>781</ele>
        <time>2026-08-21T23:29:50.000Z</time>
        <extensions>
          <ns3:TrackPointExtension>
            <ns3:hr>122</ns3:hr>
            <ns3:cad>61</ns3:cad>
          </ns3:TrackPointExtension>
        </extensions>
      </trkpt>
      <trkpt lat="45.3046518377959728240966796875" lon="-71.0873983986675739288330078125">
        <ele>781</ele>
        <time>2026-08-21T23:29:51.000Z</time>
        <extensions>
          <ns3:TrackPointExtension>
            <ns3:hr>122</ns3:hr>
            <ns3:cad>61</ns3:cad>
          </ns3:TrackPointExtension>
        </extensions>
      </trkpt>
      <trkpt lat="45.30465745367109775543212890625" lon="-71.08741574920713901519775390625">
        <ele>780.79998779296875</ele>
        <time>2026-08-21T23:29:52.000Z</time>
        <extensions>
          <ns3:TrackPointExtension>
            <ns3:hr>122</ns3:hr>
            <ns3:cad>61</ns3:cad>
          </ns3:TrackPointExtension>
        </extensions>
      </trkpt>
      <trkpt lat="45.30466047115623950958251953125" lon="-71.08743150718510150909423828125">
        <ele>780.79998779296875</ele>
        <time>2026-08-21T23:29:53.000Z</time>
        <extensions>
          <ns3:TrackPointExtension>
            <ns3:hr>122</ns3:hr>
            <ns3:cad>61</ns3:cad>
          </ns3:TrackPointExtension>
        </extensions>
      </trkpt>
      <trkpt lat="45.30466231517493724822998046875" lon="-71.08745522797107696533203125">
        <ele>780.79998779296875</ele>
        <time>2026-08-21T23:29:54.000Z</time>
        <extensions>
          <ns3:TrackPointExtension>
            <ns3:hr>122</ns3:hr>
            <ns3:cad>61</ns3:cad>
          </ns3:TrackPointExtension>
        </extensions>
      </trkpt>
      <trkpt lat="45.30465980060398578643798828125" lon="-71.08747643418610095977783203125">
        <ele>780.5999755859375</ele>
        <time>2026-08-21T23:29:55.000Z</time>
        <extensions>
          <ns3:TrackPointExtension>
            <ns3:hr>122</ns3:hr>
            <ns3:cad>61</ns3:cad>
          </ns3:TrackPointExtension>
        </extensions>
      </trkpt>
      <trkpt lat="45.3046595491468906402587890625" lon="-71.08749571256339550018310546875">
        <ele>780.5999755859375</ele>
        <time>2026-08-21T23:29:56.000Z</time>
        <extensions>
          <ns3:TrackPointExtension>
            <ns3:hr>122</ns3:hr>
            <ns3:cad>61</ns3:cad>
          </ns3:TrackPointExtension>
        </extensions>
      </trkpt>
      <trkpt lat="45.30465778894722461700439453125" lon="-71.08751532621681690216064453125">
        <ele>780.4000244140625</ele>
        <time>2026-08-21T23:29:57.000Z</time>
        <extensions>
          <ns3:TrackPointExtension>
            <ns3:hr>122</ns3:hr>
            <ns3:cad>61</ns3:cad>
          </ns3:TrackPointExtension>
        </extensions>
      </trkpt>
      <trkpt lat="45.304655693471431732177734375" lon="-71.087539382278919219970703125">
        <ele>780.20001220703125</ele>
        <time>2026-08-21T23:29:58.000Z</time>
        <extensions>
          <ns3:TrackPointExtension>
            <ns3:hr>122</ns3:hr>
            <ns3:cad>61</ns3:cad>
          </ns3:TrackPointExtension>
        </extensions>
      </trkpt>
      <trkpt lat="45.30465292744338512420654296875" lon="-71.08756226487457752227783203125">
        <ele>780</ele>
        <time>2026-08-21T23:29:59.000Z</time>
        <extensions>
          <ns3:TrackPointExtension>
            <ns3:hr>122</ns3:hr>
            <ns3:cad>61</ns3:cad>
          </ns3:TrackPointExtension>
        </extensions>
      </trkpt>
      <trkpt lat="45.304647646844387054443359375" lon="-71.08758238144218921661376953125">
        <ele>779.79998779296875</ele>
        <time>2026-08-21T23:30:00.000Z</time>
        <extensions>
          <ns3:TrackPointExtension>
            <ns3:hr>122</ns3:hr>
            <ns3:cad>62</ns3:cad>
          </ns3:TrackPointExtension>
        </extensions>
      </trkpt>
      <trkpt lat="45.3046387620270252227783203125" lon="-71.08760300092399120330810546875">
        <ele>779.79998779296875</ele>
        <time>2026-08-21T23:30:01.000Z</time>
        <extensions>
          <ns3:TrackPointExtension>
            <ns3:hr>122</ns3:hr>
            <ns3:cad>62</ns3:cad>
          </ns3:TrackPointExtension>
        </extensions>
      </trkpt>
      <trkpt lat="45.3046333976089954376220703125" lon="-71.08762730844318866729736328125">
        <ele>779.5999755859375</ele>
        <time>2026-08-21T23:30:02.000Z</time>
        <extensions>
          <ns3:TrackPointExtension>
            <ns3:hr>122</ns3:hr>
            <ns3:cad>62</ns3:cad>
          </ns3:TrackPointExtension>
        </extensions>
      </trkpt>
      <trkpt lat="45.304631553590297698974609375" lon="-71.08764055185019969940185546875">
        <ele>779.5999755859375</ele>
        <time>2026-08-21T23:30:03.000Z</time>
        <extensions>
          <ns3:TrackPointExtension>
            <ns3:hr>121</ns3:hr>
            <ns3:cad>61</ns3:cad>
          </ns3:TrackPointExtension>
        </extensions>
      </trkpt>
      <trkpt lat="45.304629541933536529541015625" lon="-71.087658740580081939697265625">
        <ele>779.4000244140625</ele>
        <time>2026-08-21T23:30:04.000Z</time>
        <extensions>
          <ns3:TrackPointExtension>
            <ns3:hr>121</ns3:hr>
            <ns3:cad>61</ns3:cad>
          </ns3:TrackPointExtension>
        </extensions>
      </trkpt>
      <trkpt lat="45.3046276979148387908935546875" lon="-71.08767860569059848785400390625">
        <ele>779.4000244140625</ele>
        <time>2026-08-21T23:30:05.000Z</time>
        <extensions>
          <ns3:TrackPointExtension>
            <ns3:hr>121</ns3:hr>
            <ns3:cad>61</ns3:cad>
          </ns3:TrackPointExtension>
        </extensions>
      </trkpt>
      <trkpt lat="45.30462476424872875213623046875" lon="-71.0877028293907642364501953125">
        <ele>779.20001220703125</ele>
        <time>2026-08-21T23:30:06.000Z</time>
        <extensions>
          <ns3:TrackPointExtension>
            <ns3:hr>121</ns3:hr>
            <ns3:cad>61</ns3:cad>
          </ns3:TrackPointExtension>
        </extensions>
      </trkpt>
      <trkpt lat="45.30462241731584072113037109375" lon="-71.087731830775737762451171875">
        <ele>779.20001220703125</ele>
        <time>2026-08-21T23:30:07.000Z</time>
        <extensions>
          <ns3:TrackPointExtension>
            <ns3:hr>121</ns3:hr>
            <ns3:cad>0</ns3:cad>
          </ns3:TrackPointExtension>
        </extensions>
      </trkpt>
      <trkpt lat="45.30462258495390415191650390625" lon="-71.0877568088471889495849609375">
        <ele>779</ele>
        <time>2026-08-21T23:30:08.000Z</time>
        <extensions>
          <ns3:TrackPointExtension>
            <ns3:hr>121</ns3:hr>
            <ns3:cad>0</ns3:cad>
          </ns3:TrackPointExtension>
        </extensions>
      </trkpt>
      <trkpt lat="45.304621495306491851806640625" lon="-71.0877789370715618133544921875">
        <ele>778.79998779296875</ele>
        <time>2026-08-21T23:30:09.000Z</time>
        <extensions>
          <ns3:TrackPointExtension>
            <ns3:hr>121</ns3:hr>
            <ns3:cad>0</ns3:cad>
          </ns3:TrackPointExtension>
        </extensions>
      </trkpt>
      <trkpt lat="45.30462275259196758270263671875" lon="-71.0878084413707256317138671875">
        <ele>778.5999755859375</ele>
        <time>2026-08-21T23:30:10.000Z</time>
        <extensions>
          <ns3:TrackPointExtension>
            <ns3:hr>121</ns3:hr>
            <ns3:cad>0</ns3:cad>
          </ns3:TrackPointExtension>
        </extensions>
      </trkpt>
      <trkpt lat="45.30462442897260189056396484375" lon="-71.08783232979476451873779296875">
        <ele>778.4000244140625</ele>
        <time>2026-08-21T23:30:11.000Z</time>
        <extensions>
          <ns3:TrackPointExtension>
            <ns3:hr>121</ns3:hr>
            <ns3:cad>0</ns3:cad>
          </ns3:TrackPointExtension>
        </extensions>
      </trkpt>
      <trkpt lat="45.304624177515506744384765625" lon="-71.08785487711429595947265625">
        <ele>778.20001220703125</ele>
        <time>2026-08-21T23:30:12.000Z</time>
        <extensions>
          <ns3:TrackPointExtension>
            <ns3:hr>120</ns3:hr>
            <ns3:cad>0</ns3:cad>
          </ns3:TrackPointExtension>
        </extensions>
      </trkpt>
      <trkpt lat="45.3046238422393798828125" lon="-71.08787901699542999267578125">
        <ele>778</ele>
        <time>2026-08-21T23:30:13.000Z</time>
        <extensions>
          <ns3:TrackPointExtension>
            <ns3:hr>120</ns3:hr>
            <ns3:cad>0</ns3:cad>
          </ns3:TrackPointExtension>
        </extensions>
      </trkpt>
      <trkpt lat="45.3046223334968090057373046875" lon="-71.08790189959108829498291015625">
        <ele>777.5999755859375</ele>
        <time>2026-08-21T23:30:14.000Z</time>
        <extensions>
          <ns3:TrackPointExtension>
            <ns3:hr>120</ns3:hr>
            <ns3:cad>0</ns3:cad>
          </ns3:TrackPointExtension>
        </extensions>
      </trkpt>
      <trkpt lat="45.3046260215342044830322265625" lon="-71.08792402781546115875244140625">
        <ele>777.4000244140625</ele>
        <time>2026-08-21T23:30:15.000Z</time>
        <extensions>
          <ns3:TrackPointExtension>
            <ns3:hr>120</ns3:hr>
            <ns3:cad>0</ns3:cad>
          </ns3:TrackPointExtension>
        </extensions>
      </trkpt>
      <trkpt lat="45.30462845228612422943115234375" lon="-71.08794917352497577667236328125">
        <ele>777</ele>
        <time>2026-08-21T23:30:16.000Z</time>
        <extensions>
          <ns3:TrackPointExtension>
            <ns3:hr>120</ns3:hr>
            <ns3:cad>0</ns3:cad>
          </ns3:TrackPointExtension>
        </extensions>
      </trkpt>
      <trkpt lat="45.30462962575256824493408203125" lon="-71.08796861954033374786376953125">
        <ele>776.5999755859375</ele>
        <time>2026-08-21T23:30:17.000Z</time>
        <extensions>
          <ns3:TrackPointExtension>
            <ns3:hr>120</ns3:hr>
            <ns3:cad>76</ns3:cad>
          </ns3:TrackPointExtension>
        </extensions>
      </trkpt>
      <trkpt lat="45.30463230796158313751220703125" lon="-71.08799208886921405792236328125">
        <ele>776.20001220703125</ele>
        <time>2026-08-21T23:30:18.000Z</time>
        <extensions>
          <ns3:TrackPointExtension>
            <ns3:hr>120</ns3:hr>
            <ns3:cad>76</ns3:cad>
          </ns3:TrackPointExtension>
        </extensions>
      </trkpt>
      <trkpt lat="45.30463499017059803009033203125" lon="-71.0880169831216335296630859375">
        <ele>775.79998779296875</ele>
        <time>2026-08-21T23:30:19.000Z</time>
        <extensions>
          <ns3:TrackPointExtension>
            <ns3:hr>120</ns3:hr>
            <ns3:cad>76</ns3:cad>
          </ns3:TrackPointExtension>
        </extensions>
      </trkpt>
      <trkpt lat="45.3046401031315326690673828125" lon="-71.0880511812865734100341796875">
        <ele>775.4000244140625</ele>
        <time>2026-08-21T23:30:20.000Z</time>
        <extensions>
          <ns3:TrackPointExtension>
            <ns3:hr>120</ns3:hr>
            <ns3:cad>76</ns3:cad>
          </ns3:TrackPointExtension>
        </extensions>
      </trkpt>
      <trkpt lat="45.304640270769596099853515625" lon="-71.08807104639708995819091796875">
        <ele>775</ele>
        <time>2026-08-21T23:30:21.000Z</time>
        <extensions>
          <ns3:TrackPointExtension>
            <ns3:hr>119</ns3:hr>
            <ns3:cad>40</ns3:cad>
          </ns3:TrackPointExtension>
        </extensions>
      </trkpt>
      <trkpt lat="45.3046427853405475616455078125" lon="-71.0881011374294757843017578125">
        <ele>774.79998779296875</ele>
        <time>2026-08-21T23:30:22.000Z</time>
        <extensions>
          <ns3:TrackPointExtension>
            <ns3:hr>119</ns3:hr>
            <ns3:cad>40</ns3:cad>
          </ns3:TrackPointExtension>
        </extensions>
      </trkpt>
      <trkpt lat="45.30464655719697475433349609375" lon="-71.08812846243381500244140625">
        <ele>774.4000244140625</ele>
        <time>2026-08-21T23:30:23.000Z</time>
        <extensions>
          <ns3:TrackPointExtension>
            <ns3:hr>119</ns3:hr>
            <ns3:cad>40</ns3:cad>
          </ns3:TrackPointExtension>
        </extensions>
      </trkpt>
      <trkpt lat="45.3046481497585773468017578125" lon="-71.08815260231494903564453125">
        <ele>774.20001220703125</ele>
        <time>2026-08-21T23:30:24.000Z</time>
        <extensions>
          <ns3:TrackPointExtension>
            <ns3:hr>119</ns3:hr>
            <ns3:cad>75</ns3:cad>
          </ns3:TrackPointExtension>
        </extensions>
      </trkpt>
      <trkpt lat="45.30465066432952880859375" lon="-71.08818219043314456939697265625">
        <ele>773.79998779296875</ele>
        <time>2026-08-21T23:30:25.000Z</time>
        <extensions>
          <ns3:TrackPointExtension>
            <ns3:hr>120</ns3:hr>
            <ns3:cad>75</ns3:cad>
          </ns3:TrackPointExtension>
        </extensions>
      </trkpt>
      <trkpt lat="45.3046578727662563323974609375" lon="-71.08820213936269283294677734375">
        <ele>773.5999755859375</ele>
        <time>2026-08-21T23:30:26.000Z</time>
        <extensions>
          <ns3:TrackPointExtension>
            <ns3:hr>120</ns3:hr>
            <ns3:cad>75</ns3:cad>
          </ns3:TrackPointExtension>
        </extensions>
      </trkpt>
      <trkpt lat="45.304663740098476409912109375" lon="-71.0882235132157802581787109375">
        <ele>773.4000244140625</ele>
        <time>2026-08-21T23:30:27.000Z</time>
        <extensions>
          <ns3:TrackPointExtension>
            <ns3:hr>120</ns3:hr>
            <ns3:cad>75</ns3:cad>
          </ns3:TrackPointExtension>
        </extensions>
      </trkpt>
      <trkpt lat="45.3046800009906291961669921875" lon="-71.0882500000298023223876953125">
        <ele>773</ele>
        <time>2026-08-21T23:30:28.000Z</time>
        <extensions>
          <ns3:TrackPointExtension>
            <ns3:hr>120</ns3:hr>
            <ns3:cad>74</ns3:cad>
          </ns3:TrackPointExtension>
        </extensions>
      </trkpt>
      <trkpt lat="45.30469450168311595916748046875" lon="-71.08826383017003536224365234375">
        <ele>772.79998779296875</ele>
        <time>2026-08-21T23:30:29.000Z</time>
        <extensions>
          <ns3:TrackPointExtension>
            <ns3:hr>120</ns3:hr>
            <ns3:cad>74</ns3:cad>
          </ns3:TrackPointExtension>
        </extensions>
      </trkpt>
      <trkpt lat="45.30471076257526874542236328125" lon="-71.08826751820743083953857421875">
        <ele>772.5999755859375</ele>
        <time>2026-08-21T23:30:30.000Z</time>
        <extensions>
          <ns3:TrackPointExtension>
            <ns3:hr>120</ns3:hr>
            <ns3:cad>74</ns3:cad>
          </ns3:TrackPointExtension>
        </extensions>
      </trkpt>
      <trkpt lat="45.30472383834421634674072265625" lon="-71.0882717929780483245849609375">
        <ele>772.4000244140625</ele>
        <time>2026-08-21T23:30:31.000Z</time>
        <extensions>
          <ns3:TrackPointExtension>
            <ns3:hr>121</ns3:hr>
            <ns3:cad>0</ns3:cad>
          </ns3:TrackPointExtension>
        </extensions>
      </trkpt>
      <trkpt lat="45.30473875813186168670654296875" lon="-71.08828059397637844085693359375">
        <ele>772.20001220703125</ele>
        <time>2026-08-21T23:30:32.000Z</time>
        <extensions>
          <ns3:TrackPointExtension>
            <ns3:hr>121</ns3:hr>
            <ns3:cad>0</ns3:cad>
          </ns3:TrackPointExtension>
        </extensions>
      </trkpt>
      <trkpt lat="45.304752923548221588134765625" lon="-71.08829065226018428802490234375">
        <ele>772.4000244140625</ele>
        <time>2026-08-21T23:30:33.000Z</time>
        <extensions>
          <ns3:TrackPointExtension>
            <ns3:hr>121</ns3:hr>
            <ns3:cad>0</ns3:cad>
          </ns3:TrackPointExtension>
        </extensions>
      </trkpt>
      <trkpt lat="45.30476742424070835113525390625" lon="-71.08829568140208721160888671875">
        <ele>772.4000244140625</ele>
        <time>2026-08-21T23:30:34.000Z</time>
        <extensions>
          <ns3:TrackPointExtension>
            <ns3:hr>121</ns3:hr>
            <ns3:cad>69</ns3:cad>
          </ns3:TrackPointExtension>
        </extensions>
      </trkpt>
      <trkpt lat="45.30477966181933879852294921875" lon="-71.0882954299449920654296875">
        <ele>772.5999755859375</ele>
        <time>2026-08-21T23:30:35.000Z</time>
        <extensions>
          <ns3:TrackPointExtension>
            <ns3:hr>120</ns3:hr>
            <ns3:cad>69</ns3:cad>
          </ns3:TrackPointExtension>
        </extensions>
      </trkpt>
      <trkpt lat="45.3047953359782695770263671875" lon="-71.0882952623069286346435546875">
        <ele>772.79998779296875</ele>
        <time>2026-08-21T23:30:36.000Z</time>
        <extensions>
          <ns3:TrackPointExtension>
            <ns3:hr>120</ns3:hr>
            <ns3:cad>0</ns3:cad>
          </ns3:TrackPointExtension>
        </extensions>
      </trkpt>
      <trkpt lat="45.30480514280498027801513671875" lon="-71.088295765221118927001953125">
        <ele>772.79998779296875</ele>
        <time>2026-08-21T23:30:37.000Z</time>
        <extensions>
          <ns3:TrackPointExtension>
            <ns3:hr>120</ns3:hr>
            <ns3:cad>0</ns3:cad>
          </ns3:TrackPointExtension>
        </extensions>
      </trkpt>
      <trkpt lat="45.30482123605906963348388671875" lon="-71.08829987235367298126220703125">
        <ele>772.79998779296875</ele>
        <time>2026-08-21T23:30:38.000Z</time>
        <extensions>
          <ns3:TrackPointExtension>
            <ns3:hr>120</ns3:hr>
            <ns3:cad>0</ns3:cad>
          </ns3:TrackPointExtension>
        </extensions>
      </trkpt>
      <trkpt lat="45.304830707609653472900390625" lon="-71.08829987235367298126220703125">
        <ele>772.5999755859375</ele>
        <time>2026-08-21T23:30:39.000Z</time>
        <extensions>
          <ns3:TrackPointExtension>
            <ns3:hr>120</ns3:hr>
            <ns3:cad>0</ns3:cad>
          </ns3:TrackPointExtension>
        </extensions>
      </trkpt>
      <trkpt lat="45.3048476390540599822998046875" lon="-71.088302470743656158447265625">
        <ele>772.4000244140625</ele>
        <time>2026-08-21T23:30:40.000Z</time>
        <extensions>
          <ns3:TrackPointExtension>
            <ns3:hr>120</ns3:hr>
            <ns3:cad>0</ns3:cad>
          </ns3:TrackPointExtension>
        </extensions>
      </trkpt>
      <trkpt lat="45.30485928989946842193603515625" lon="-71.08830926008522510528564453125">
        <ele>772.20001220703125</ele>
        <time>2026-08-21T23:30:41.000Z</time>
        <extensions>
          <ns3:TrackPointExtension>
            <ns3:hr>119</ns3:hr>
            <ns3:cad>0</ns3:cad>
          </ns3:TrackPointExtension>
        </extensions>
      </trkpt>
      <trkpt lat="45.30486524105072021484375" lon="-71.08831915073096752166748046875">
        <ele>772</ele>
        <time>2026-08-21T23:30:42.000Z</time>
        <extensions>
          <ns3:TrackPointExtension>
            <ns3:hr>119</ns3:hr>
            <ns3:cad>0</ns3:cad>
          </ns3:TrackPointExtension>
        </extensions>
      </trkpt>
      <trkpt lat="45.3048704378306865692138671875" lon="-71.0883304663002490997314453125">
        <ele>771.79998779296875</ele>
        <time>2026-08-21T23:30:43.000Z</time>
        <extensions>
          <ns3:TrackPointExtension>
            <ns3:hr>118</ns3:hr>
            <ns3:cad>0</ns3:cad>
          </ns3:TrackPointExtension>
        </extensions>
      </trkpt>
      <trkpt lat="45.3048637323081493377685546875" lon="-71.08835200779139995574951171875">
        <ele>771.79998779296875</ele>
        <time>2026-08-21T23:30:44.000Z</time>
        <extensions>
          <ns3:TrackPointExtension>
            <ns3:hr>118</ns3:hr>
            <ns3:cad>0</ns3:cad>
          </ns3:TrackPointExtension>
        </extensions>
      </trkpt>
      <trkpt lat="45.30486314557492733001708984375" lon="-71.08837187290191650390625">
        <ele>771.5999755859375</ele>
        <time>2026-08-21T23:30:45.000Z</time>
        <extensions>
          <ns3:TrackPointExtension>
            <ns3:hr>118</ns3:hr>
            <ns3:cad>0</ns3:cad>
          </ns3:TrackPointExtension>
        </extensions>
      </trkpt>
      <trkpt lat="45.30487001873552799224853515625" lon="-71.08838905580341815948486328125">
        <ele>771.5999755859375</ele>
        <time>2026-08-21T23:30:46.000Z</time>
        <extensions>
          <ns3:TrackPointExtension>
            <ns3:hr>118</ns3:hr>
            <ns3:cad>0</ns3:cad>
          </ns3:TrackPointExtension>
        </extensions>
      </trkpt>
      <trkpt lat="45.30488041229546070098876953125" lon="-71.0884018801152706146240234375">
        <ele>771.4000244140625</ele>
        <time>2026-08-21T23:30:47.000Z</time>
        <extensions>
          <ns3:TrackPointExtension>
            <ns3:hr>118</ns3:hr>
            <ns3:cad>0</ns3:cad>
          </ns3:TrackPointExtension>
        </extensions>
      </trkpt>
      <trkpt lat="45.3048882074654102325439453125" lon="-71.0884146206080913543701171875">
        <ele>771.4000244140625</ele>
        <time>2026-08-21T23:30:48.000Z</time>
        <extensions>
          <ns3:TrackPointExtension>
            <ns3:hr>118</ns3:hr>
            <ns3:cad>73</ns3:cad>
          </ns3:TrackPointExtension>
        </extensions>
      </trkpt>
      <trkpt lat="45.30489382334053516387939453125" lon="-71.08842710964381694793701171875">
        <ele>771.4000244140625</ele>
        <time>2026-08-21T23:30:49.000Z</time>
        <extensions>
          <ns3:TrackPointExtension>
            <ns3:hr>119</ns3:hr>
            <ns3:cad>73</ns3:cad>
          </ns3:TrackPointExtension>
        </extensions>
      </trkpt>
      <trkpt lat="45.30490170232951641082763671875" lon="-71.08843959867954254150390625">
        <ele>771.5999755859375</ele>
        <time>2026-08-21T23:30:50.000Z</time>
        <extensions>
          <ns3:TrackPointExtension>
            <ns3:hr>119</ns3:hr>
            <ns3:cad>73</ns3:cad>
          </ns3:TrackPointExtension>
        </extensions>
      </trkpt>
      <trkpt lat="45.3049113415181636810302734375" lon="-71.088466756045818328857421875">
        <ele>771.5999755859375</ele>
        <time>2026-08-21T23:30:51.000Z</time>
        <extensions>
          <ns3:TrackPointExtension>
            <ns3:hr>119</ns3:hr>
            <ns3:cad>73</ns3:cad>
          </ns3:TrackPointExtension>
        </extensions>
      </trkpt>
      <trkpt lat="45.30492282472550868988037109375" lon="-71.08848729170858860015869140625">
        <ele>771.79998779296875</ele>
        <time>2026-08-21T23:30:52.000Z</time>
        <extensions>
          <ns3:TrackPointExtension>
            <ns3:hr>120</ns3:hr>
            <ns3:cad>73</ns3:cad>
          </ns3:TrackPointExtension>
        </extensions>
      </trkpt>
      <trkpt lat="45.304935313761234283447265625" lon="-71.0884967632591724395751953125">
        <ele>771.79998779296875</ele>
        <time>2026-08-21T23:30:53.000Z</time>
        <extensions>
          <ns3:TrackPointExtension>
            <ns3:hr>120</ns3:hr>
            <ns3:cad>73</ns3:cad>
          </ns3:TrackPointExtension>
        </extensions>
      </trkpt>
      <trkpt lat="45.30494780279695987701416015625" lon="-71.0885081626474857330322265625">
        <ele>771.5999755859375</ele>
        <time>2026-08-21T23:30:54.000Z</time>
        <extensions>
          <ns3:TrackPointExtension>
            <ns3:hr>120</ns3:hr>
            <ns3:cad>73</ns3:cad>
          </ns3:TrackPointExtension>
        </extensions>
      </trkpt>
      <trkpt lat="45.3049616329371929168701171875" lon="-71.0885209031403064727783203125">
        <ele>771.5999755859375</ele>
        <time>2026-08-21T23:30:55.000Z</time>
        <extensions>
          <ns3:TrackPointExtension>
            <ns3:hr>120</ns3:hr>
            <ns3:cad>0</ns3:cad>
          </ns3:TrackPointExtension>
        </extensions>
      </trkpt>
      <trkpt lat="45.30497361905872821807861328125" lon="-71.08853439800441265106201171875">
        <ele>771.4000244140625</ele>
        <time>2026-08-21T23:30:56.000Z</time>
        <extensions>
          <ns3:TrackPointExtension>
            <ns3:hr>120</ns3:hr>
            <ns3:cad>0</ns3:cad>
          </ns3:TrackPointExtension>
        </extensions>
      </trkpt>
      <trkpt lat="45.30498795211315155029296875" lon="-71.08854965306818485260009765625">
        <ele>771.20001220703125</ele>
        <time>2026-08-21T23:30:57.000Z</time>
        <extensions>
          <ns3:TrackPointExtension>
            <ns3:hr>121</ns3:hr>
            <ns3:cad>0</ns3:cad>
          </ns3:TrackPointExtension>
        </extensions>
      </trkpt>
      <trkpt lat="45.3050018660724163055419921875" lon="-71.0885609686374664306640625">
        <ele>771.20001220703125</ele>
        <time>2026-08-21T23:30:58.000Z</time>
        <extensions>
          <ns3:TrackPointExtension>
            <ns3:hr>121</ns3:hr>
            <ns3:cad>0</ns3:cad>
          </ns3:TrackPointExtension>
        </extensions>
      </trkpt>
      <trkpt lat="45.30500999651849269866943359375" lon="-71.08857194893062114715576171875">
        <ele>771</ele>
        <time>2026-08-21T23:30:59.000Z</time>
        <extensions>
          <ns3:TrackPointExtension>
            <ns3:hr>122</ns3:hr>
            <ns3:cad>0</ns3:cad>
          </ns3:TrackPointExtension>
        </extensions>
      </trkpt>
      <trkpt lat="45.30501871369779109954833984375" lon="-71.08858787454664707183837890625">
        <ele>771</ele>
        <time>2026-08-21T23:31:00.000Z</time>
        <extensions>
          <ns3:TrackPointExtension>
            <ns3:hr>122</ns3:hr>
            <ns3:cad>0</ns3:cad>
          </ns3:TrackPointExtension>
        </extensions>
      </trkpt>
      <trkpt lat="45.30502977780997753143310546875" lon="-71.08860698528587818145751953125">
        <ele>770.79998779296875</ele>
        <time>2026-08-21T23:31:01.000Z</time>
        <extensions>
          <ns3:TrackPointExtension>
            <ns3:hr>122</ns3:hr>
            <ns3:cad>0</ns3:cad>
          </ns3:TrackPointExtension>
        </extensions>
      </trkpt>
      <trkpt lat="45.3050377406179904937744140625" lon="-71.08862324617803096771240234375">
        <ele>770.79998779296875</ele>
        <time>2026-08-21T23:31:02.000Z</time>
        <extensions>
          <ns3:TrackPointExtension>
            <ns3:hr>123</ns3:hr>
            <ns3:cad>65</ns3:cad>
          </ns3:TrackPointExtension>
        </extensions>
      </trkpt>
      <trkpt lat="45.3050420992076396942138671875" lon="-71.088637746870517730712890625">
        <ele>770.5999755859375</ele>
        <time>2026-08-21T23:31:03.000Z</time>
        <extensions>
          <ns3:TrackPointExtension>
            <ns3:hr>123</ns3:hr>
            <ns3:cad>65</ns3:cad>
          </ns3:TrackPointExtension>
        </extensions>
      </trkpt>
      <trkpt lat="45.30503447167575359344482421875" lon="-71.08866733498871326446533203125">
        <ele>770.4000244140625</ele>
        <time>2026-08-21T23:31:04.000Z</time>
        <extensions>
          <ns3:TrackPointExtension>
            <ns3:hr>123</ns3:hr>
            <ns3:cad>65</ns3:cad>
          </ns3:TrackPointExtension>
        </extensions>
      </trkpt>
      <trkpt lat="45.30503849498927593231201171875" lon="-71.0886935703456401824951171875">
        <ele>770.4000244140625</ele>
        <time>2026-08-21T23:31:05.000Z</time>
        <extensions>
          <ns3:TrackPointExtension>
            <ns3:hr>123</ns3:hr>
            <ns3:cad>65</ns3:cad>
          </ns3:TrackPointExtension>
        </extensions>
      </trkpt>
      <trkpt lat="45.305049307644367218017578125" lon="-71.0887220688164234161376953125">
        <ele>770.4000244140625</ele>
        <time>2026-08-21T23:31:06.000Z</time>
        <extensions>
          <ns3:TrackPointExtension>
            <ns3:hr>123</ns3:hr>
            <ns3:cad>65</ns3:cad>
          </ns3:TrackPointExtension>
        </extensions>
      </trkpt>
      <trkpt lat="45.3050598688423633575439453125" lon="-71.0887478850781917572021484375">
        <ele>770.20001220703125</ele>
        <time>2026-08-21T23:31:07.000Z</time>
        <extensions>
          <ns3:TrackPointExtension>
            <ns3:hr>122</ns3:hr>
            <ns3:cad>65</ns3:cad>
          </ns3:TrackPointExtension>
        </extensions>
      </trkpt>
      <trkpt lat="45.30506783165037631988525390625" lon="-71.0887703485786914825439453125">
        <ele>770.20001220703125</ele>
        <time>2026-08-21T23:31:08.000Z</time>
        <extensions>
          <ns3:TrackPointExtension>
            <ns3:hr>121</ns3:hr>
            <ns3:cad>65</ns3:cad>
          </ns3:TrackPointExtension>
        </extensions>
      </trkpt>
      <trkpt lat="45.3050803206861019134521484375" lon="-71.088787280023097991943359375">
        <ele>770.20001220703125</ele>
        <time>2026-08-21T23:31:09.000Z</time>
        <extensions>
          <ns3:TrackPointExtension>
            <ns3:hr>120</ns3:hr>
            <ns3:cad>65</ns3:cad>
          </ns3:TrackPointExtension>
        </extensions>
      </trkpt>
      <trkpt lat="45.30509658157825469970703125" lon="-71.08880261890590190887451171875">
        <ele>770.20001220703125</ele>
        <time>2026-08-21T23:31:10.000Z</time>
        <extensions>
          <ns3:TrackPointExtension>
            <ns3:hr>119</ns3:hr>
            <ns3:cad>65</ns3:cad>
          </ns3:TrackPointExtension>
        </extensions>
      </trkpt>
      <trkpt lat="45.30511074699461460113525390625" lon="-71.0888189636170864105224609375">
        <ele>770.20001220703125</ele>
        <time>2026-08-21T23:31:11.000Z</time>
        <extensions>
          <ns3:TrackPointExtension>
            <ns3:hr>119</ns3:hr>
            <ns3:cad>69</ns3:cad>
          </ns3:TrackPointExtension>
        </extensions>
      </trkpt>
      <trkpt lat="45.3051222302019596099853515625" lon="-71.088832207024097442626953125">
        <ele>770.20001220703125</ele>
        <time>2026-08-21T23:31:12.000Z</time>
        <extensions>
          <ns3:TrackPointExtension>
            <ns3:hr>119</ns3:hr>
            <ns3:cad>69</ns3:cad>
          </ns3:TrackPointExtension>
        </extensions>
      </trkpt>
      <trkpt lat="45.30513547360897064208984375" lon="-71.08883866108953952789306640625">
        <ele>770.20001220703125</ele>
        <time>2026-08-21T23:31:13.000Z</time>
        <extensions>
          <ns3:TrackPointExtension>
            <ns3:hr>119</ns3:hr>
            <ns3:cad>69</ns3:cad>
          </ns3:TrackPointExtension>
        </extensions>
      </trkpt>
      <trkpt lat="45.305147208273410797119140625" lon="-71.0888491384685039520263671875">
        <ele>770.20001220703125</ele>
        <time>2026-08-21T23:31:14.000Z</time>
        <extensions>
          <ns3:TrackPointExtension>
            <ns3:hr>119</ns3:hr>
            <ns3:cad>69</ns3:cad>
          </ns3:TrackPointExtension>
        </extensions>
      </trkpt>
      <trkpt lat="45.3051597811281681060791015625" lon="-71.08885978348553180694580078125">
        <ele>770.4000244140625</ele>
        <time>2026-08-21T23:31:15.000Z</time>
        <extensions>
          <ns3:TrackPointExtension>
            <ns3:hr>118</ns3:hr>
            <ns3:cad>69</ns3:cad>
          </ns3:TrackPointExtension>
        </extensions>
      </trkpt>
      <trkpt lat="45.30517059378325939178466796875" lon="-71.088869087398052215576171875">
        <ele>770.4000244140625</ele>
        <time>2026-08-21T23:31:16.000Z</time>
        <extensions>
          <ns3:TrackPointExtension>
            <ns3:hr>119</ns3:hr>
            <ns3:cad>69</ns3:cad>
          </ns3:TrackPointExtension>
        </extensions>
      </trkpt>
      <trkpt lat="45.3051842562854290008544921875" lon="-71.0888721048831939697265625">
        <ele>770.20001220703125</ele>
        <time>2026-08-21T23:31:17.000Z</time>
        <extensions>
          <ns3:TrackPointExtension>
            <ns3:hr>118</ns3:hr>
            <ns3:cad>69</ns3:cad>
          </ns3:TrackPointExtension>
        </extensions>
      </trkpt>
      <trkpt lat="45.30520143918693065643310546875" lon="-71.0888776369392871856689453125">
        <ele>770.20001220703125</ele>
        <time>2026-08-21T23:31:18.000Z</time>
        <extensions>
          <ns3:TrackPointExtension>
            <ns3:hr>118</ns3:hr>
            <ns3:cad>50</ns3:cad>
          </ns3:TrackPointExtension>
        </extensions>
      </trkpt>
      <trkpt lat="45.30521686188876628875732421875" lon="-71.08887906186282634735107421875">
        <ele>770</ele>
        <time>2026-08-21T23:31:19.000Z</time>
        <extensions>
          <ns3:TrackPointExtension>
            <ns3:hr>118</ns3:hr>
            <ns3:cad>0</ns3:cad>
          </ns3:TrackPointExtension>
        </extensions>
      </trkpt>
      <trkpt lat="45.305228345096111297607421875" lon="-71.088879816234111785888671875">
        <ele>769.79998779296875</ele>
        <time>2026-08-21T23:31:20.000Z</time>
        <extensions>
          <ns3:TrackPointExtension>
            <ns3:hr>118</ns3:hr>
            <ns3:cad>0</ns3:cad>
          </ns3:TrackPointExtension>
        </extensions>
      </trkpt>
      <trkpt lat="45.305243767797946929931640625" lon="-71.08887922950088977813720703125">
        <ele>769.5999755859375</ele>
        <time>2026-08-21T23:31:21.000Z</time>
        <extensions>
          <ns3:TrackPointExtension>
            <ns3:hr>118</ns3:hr>
            <ns3:cad>0</ns3:cad>
          </ns3:TrackPointExtension>
        </extensions>
      </trkpt>
      <trkpt lat="45.305253826081752777099609375" lon="-71.088883839547634124755859375">
        <ele>769.4000244140625</ele>
        <time>2026-08-21T23:31:22.000Z</time>
        <extensions>
          <ns3:TrackPointExtension>
            <ns3:hr>117</ns3:hr>
            <ns3:cad>0</ns3:cad>
          </ns3:TrackPointExtension>
        </extensions>
      </trkpt>
      <trkpt lat="45.30527268536388874053955078125" lon="-71.08889565803110599517822265625">
        <ele>769.4000244140625</ele>
        <time>2026-08-21T23:31:23.000Z</time>
        <extensions>
          <ns3:TrackPointExtension>
            <ns3:hr>117</ns3:hr>
            <ns3:cad>64</ns3:cad>
          </ns3:TrackPointExtension>
        </extensions>
      </trkpt>
      <trkpt lat="45.3052878566086292266845703125" lon="-71.08890496194362640380859375">
        <ele>769.5999755859375</ele>
        <time>2026-08-21T23:31:24.000Z</time>
        <extensions>
          <ns3:TrackPointExtension>
            <ns3:hr>117</ns3:hr>
            <ns3:cad>64</ns3:cad>
          </ns3:TrackPointExtension>
        </extensions>
      </trkpt>
      <trkpt lat="45.305302105844020843505859375" lon="-71.08891510404646396636962890625">
        <ele>769.5999755859375</ele>
        <time>2026-08-21T23:31:25.000Z</time>
        <extensions>
          <ns3:TrackPointExtension>
            <ns3:hr>118</ns3:hr>
            <ns3:cad>64</ns3:cad>
          </ns3:TrackPointExtension>
        </extensions>
      </trkpt>
      <trkpt lat="45.30531627126038074493408203125" lon="-71.088926084339618682861328125">
        <ele>769.5999755859375</ele>
        <time>2026-08-21T23:31:26.000Z</time>
        <extensions>
          <ns3:TrackPointExtension>
            <ns3:hr>118</ns3:hr>
            <ns3:cad>0</ns3:cad>
          </ns3:TrackPointExtension>
        </extensions>
      </trkpt>
      <trkpt lat="45.3053160198032855987548828125" lon="-71.088945865631103515625">
        <ele>769.5999755859375</ele>
        <time>2026-08-21T23:31:27.000Z</time>
        <extensions>
          <ns3:TrackPointExtension>
            <ns3:hr>119</ns3:hr>
            <ns3:cad>0</ns3:cad>
          </ns3:TrackPointExtension>
        </extensions>
      </trkpt>
      <trkpt lat="45.30531526543200016021728515625" lon="-71.0889631323516368865966796875">
        <ele>769.5999755859375</ele>
        <time>2026-08-21T23:31:28.000Z</time>
        <extensions>
          <ns3:TrackPointExtension>
            <ns3:hr>119</ns3:hr>
            <ns3:cad>0</ns3:cad>
          </ns3:TrackPointExtension>
        </extensions>
      </trkpt>
      <trkpt lat="45.30531392432749271392822265625" lon="-71.0889793932437896728515625">
        <ele>769.5999755859375</ele>
        <time>2026-08-21T23:31:29.000Z</time>
        <extensions>
          <ns3:TrackPointExtension>
            <ns3:hr>121</ns3:hr>
            <ns3:cad>0</ns3:cad>
          </ns3:TrackPointExtension>
        </extensions>
      </trkpt>
      <trkpt lat="45.3053136728703975677490234375" lon="-71.0889949835836887359619140625">
        <ele>769.5999755859375</ele>
        <time>2026-08-21T23:31:30.000Z</time>
        <extensions>
          <ns3:TrackPointExtension>
            <ns3:hr>123</ns3:hr>
            <ns3:cad>0</ns3:cad>
          </ns3:TrackPointExtension>
        </extensions>
      </trkpt>
      <trkpt lat="45.30531291849911212921142578125" lon="-71.08900554478168487548828125">
        <ele>769.5999755859375</ele>
        <time>2026-08-21T23:31:31.000Z</time>
        <extensions>
          <ns3:TrackPointExtension>
            <ns3:hr>124</ns3:hr>
            <ns3:cad>70</ns3:cad>
          </ns3:TrackPointExtension>
        </extensions>
      </trkpt>
      <trkpt lat="45.3053136728703975677490234375" lon="-71.0890268348157405853271484375">
        <ele>769.5999755859375</ele>
        <time>2026-08-21T23:31:32.000Z</time>
        <extensions>
          <ns3:TrackPointExtension>
            <ns3:hr>124</ns3:hr>
            <ns3:cad>70</ns3:cad>
          </ns3:TrackPointExtension>
        </extensions>
      </trkpt>
      <trkpt lat="45.30531258322298526763916015625" lon="-71.0890544950962066650390625">
        <ele>769.5999755859375</ele>
        <time>2026-08-21T23:31:33.000Z</time>
        <extensions>
          <ns3:TrackPointExtension>
            <ns3:hr>124</ns3:hr>
            <ns3:cad>70</ns3:cad>
          </ns3:TrackPointExtension>
        </extensions>
      </trkpt>
      <trkpt lat="45.3053103201091289520263671875" lon="-71.08907452784478664398193359375">
        <ele>769.4000244140625</ele>
        <time>2026-08-21T23:31:34.000Z</time>
        <extensions>
          <ns3:TrackPointExtension>
            <ns3:hr>124</ns3:hr>
            <ns3:cad>70</ns3:cad>
          </ns3:TrackPointExtension>
        </extensions>
      </trkpt>
      <trkpt lat="45.30530906282365322113037109375" lon="-71.08909749425947666168212890625">
        <ele>769.4000244140625</ele>
        <time>2026-08-21T23:31:35.000Z</time>
        <extensions>
          <ns3:TrackPointExtension>
            <ns3:hr>124</ns3:hr>
            <ns3:cad>70</ns3:cad>
          </ns3:TrackPointExtension>
        </extensions>
      </trkpt>
      <trkpt lat="45.3053049556910991668701171875" lon="-71.08912297524511814117431640625">
        <ele>769.4000244140625</ele>
        <time>2026-08-21T23:31:36.000Z</time>
        <extensions>
          <ns3:TrackPointExtension>
            <ns3:hr>125</ns3:hr>
            <ns3:cad>70</ns3:cad>
          </ns3:TrackPointExtension>
        </extensions>
      </trkpt>
      <trkpt lat="45.305296741425991058349609375" lon="-71.08914527110755443572998046875">
        <ele>769.20001220703125</ele>
        <time>2026-08-21T23:31:37.000Z</time>
        <extensions>
          <ns3:TrackPointExtension>
            <ns3:hr>124</ns3:hr>
            <ns3:cad>70</ns3:cad>
          </ns3:TrackPointExtension>
        </extensions>
      </trkpt>
      <trkpt lat="45.30528726987540721893310546875" lon="-71.08916371129453182220458984375">
        <ele>769.20001220703125</ele>
        <time>2026-08-21T23:31:38.000Z</time>
        <extensions>
          <ns3:TrackPointExtension>
            <ns3:hr>124</ns3:hr>
            <ns3:cad>70</ns3:cad>
          </ns3:TrackPointExtension>
        </extensions>
      </trkpt>
      <trkpt lat="45.3052781336009502410888671875" lon="-71.0891844145953655242919921875">
        <ele>769.20001220703125</ele>
        <time>2026-08-21T23:31:39.000Z</time>
        <extensions>
          <ns3:TrackPointExtension>
            <ns3:hr>124</ns3:hr>
            <ns3:cad>70</ns3:cad>
          </ns3:TrackPointExtension>
        </extensions>
      </trkpt>
      <trkpt lat="45.30526648275554180145263671875" lon="-71.089203022420406341552734375">
        <ele>769.20001220703125</ele>
        <time>2026-08-21T23:31:40.000Z</time>
        <extensions>
          <ns3:TrackPointExtension>
            <ns3:hr>125</ns3:hr>
            <ns3:cad>70</ns3:cad>
          </ns3:TrackPointExtension>
        </extensions>
      </trkpt>
      <trkpt lat="45.3052549995481967926025390625" lon="-71.08922221697866916656494140625">
        <ele>769.20001220703125</ele>
        <time>2026-08-21T23:31:41.000Z</time>
        <extensions>
          <ns3:TrackPointExtension>
            <ns3:hr>125</ns3:hr>
            <ns3:cad>70</ns3:cad>
          </ns3:TrackPointExtension>
        </extensions>
      </trkpt>
      <trkpt lat="45.30524603091180324554443359375" lon="-71.08924350701272487640380859375">
        <ele>769.20001220703125</ele>
        <time>2026-08-21T23:31:42.000Z</time>
        <extensions>
          <ns3:TrackPointExtension>
            <ns3:hr>125</ns3:hr>
            <ns3:cad>70</ns3:cad>
          </ns3:TrackPointExtension>
        </extensions>
      </trkpt>
      <trkpt lat="45.30523614026606082916259765625" lon="-71.0892575047910213470458984375">
        <ele>769.20001220703125</ele>
        <time>2026-08-21T23:31:43.000Z</time>
        <extensions>
          <ns3:TrackPointExtension>
            <ns3:hr>126</ns3:hr>
            <ns3:cad>70</ns3:cad>
          </ns3:TrackPointExtension>
        </extensions>
      </trkpt>
      <trkpt lat="45.3052248246967792510986328125" lon="-71.0892742685973644256591796875">
        <ele>769.4000244140625</ele>
        <time>2026-08-21T23:31:44.000Z</time>
        <extensions>
          <ns3:TrackPointExtension>
            <ns3:hr>126</ns3:hr>
            <ns3:cad>72</ns3:cad>
          </ns3:TrackPointExtension>
        </extensions>
      </trkpt>
      <trkpt lat="45.30521233566105365753173828125" lon="-71.0892863385379314422607421875">
        <ele>769.4000244140625</ele>
        <time>2026-08-21T23:31:45.000Z</time>
        <extensions>
          <ns3:TrackPointExtension>
            <ns3:hr>126</ns3:hr>
            <ns3:cad>72</ns3:cad>
          </ns3:TrackPointExtension>
        </extensions>
      </trkpt>
      <trkpt lat="45.3052013553678989410400390625" lon="-71.0893027670681476593017578125">
        <ele>769.5999755859375</ele>
        <time>2026-08-21T23:31:46.000Z</time>
        <extensions>
          <ns3:TrackPointExtension>
            <ns3:hr>126</ns3:hr>
            <ns3:cad>72</ns3:cad>
          </ns3:TrackPointExtension>
        </extensions>
      </trkpt>
      <trkpt lat="45.3051911294460296630859375" lon="-71.08932338654994964599609375">
        <ele>769.5999755859375</ele>
        <time>2026-08-21T23:31:47.000Z</time>
        <extensions>
          <ns3:TrackPointExtension>
            <ns3:hr>126</ns3:hr>
            <ns3:cad>0</ns3:cad>
          </ns3:TrackPointExtension>
        </extensions>
      </trkpt>
      <trkpt lat="45.30518911778926849365234375" lon="-71.08933872543275356292724609375">
        <ele>769.79998779296875</ele>
        <time>2026-08-21T23:31:48.000Z</time>
        <extensions>
          <ns3:TrackPointExtension>
            <ns3:hr>126</ns3:hr>
            <ns3:cad>0</ns3:cad>
          </ns3:TrackPointExtension>
        </extensions>
      </trkpt>
      <trkpt lat="45.3051852621138095855712890625" lon="-71.089354567229747772216796875">
        <ele>769.79998779296875</ele>
        <time>2026-08-21T23:31:49.000Z</time>
        <extensions>
          <ns3:TrackPointExtension>
            <ns3:hr>127</ns3:hr>
            <ns3:cad>0</ns3:cad>
          </ns3:TrackPointExtension>
        </extensions>
      </trkpt>
      <trkpt lat="45.305178053677082061767578125" lon="-71.08936504460871219635009765625">
        <ele>770</ele>
        <time>2026-08-21T23:31:50.000Z</time>
        <extensions>
          <ns3:TrackPointExtension>
            <ns3:hr>126</ns3:hr>
            <ns3:cad>0</ns3:cad>
          </ns3:TrackPointExtension>
        </extensions>
      </trkpt>
      <trkpt lat="45.30517025850713253021240234375" lon="-71.0893805511295795440673828125">
        <ele>770.20001220703125</ele>
        <time>2026-08-21T23:31:51.000Z</time>
        <extensions>
          <ns3:TrackPointExtension>
            <ns3:hr>126</ns3:hr>
            <ns3:cad>0</ns3:cad>
          </ns3:TrackPointExtension>
        </extensions>
      </trkpt>
      <trkpt lat="45.305161289870738983154296875" lon="-71.08939220197498798370361328125">
        <ele>770.4000244140625</ele>
        <time>2026-08-21T23:31:52.000Z</time>
        <extensions>
          <ns3:TrackPointExtension>
            <ns3:hr>126</ns3:hr>
            <ns3:cad>0</ns3:cad>
          </ns3:TrackPointExtension>
        </extensions>
      </trkpt>
      <trkpt lat="45.30515299178659915924072265625" lon="-71.089406870305538177490234375">
        <ele>770.79998779296875</ele>
        <time>2026-08-21T23:31:53.000Z</time>
        <extensions>
          <ns3:TrackPointExtension>
            <ns3:hr>125</ns3:hr>
            <ns3:cad>0</ns3:cad>
          </ns3:TrackPointExtension>
        </extensions>
      </trkpt>
      <trkpt lat="45.305147208273410797119140625" lon="-71.08942396938800811767578125">
        <ele>771</ele>
        <time>2026-08-21T23:31:54.000Z</time>
        <extensions>
          <ns3:TrackPointExtension>
            <ns3:hr>125</ns3:hr>
            <ns3:cad>0</ns3:cad>
          </ns3:TrackPointExtension>
        </extensions>
      </trkpt>
      <trkpt lat="45.30514259822666645050048828125" lon="-71.08944651670753955841064453125">
        <ele>771</ele>
        <time>2026-08-21T23:31:55.000Z</time>
        <extensions>
          <ns3:TrackPointExtension>
            <ns3:hr>124</ns3:hr>
            <ns3:cad>0</ns3:cad>
          </ns3:TrackPointExtension>
        </extensions>
      </trkpt>
      <trkpt lat="45.30513421632349491119384765625" lon="-71.08947359025478363037109375">
        <ele>771</ele>
        <time>2026-08-21T23:31:56.000Z</time>
        <extensions>
          <ns3:TrackPointExtension>
            <ns3:hr>124</ns3:hr>
            <ns3:cad>0</ns3:cad>
          </ns3:TrackPointExtension>
        </extensions>
      </trkpt>
      <trkpt lat="45.3051218949258327484130859375" lon="-71.0894965566694736480712890625">
        <ele>771</ele>
        <time>2026-08-21T23:31:57.000Z</time>
        <extensions>
          <ns3:TrackPointExtension>
            <ns3:hr>124</ns3:hr>
            <ns3:cad>0</ns3:cad>
          </ns3:TrackPointExtension>
        </extensions>
      </trkpt>
      <trkpt lat="45.3051239065825939178466796875" lon="-71.08952094800770282745361328125">
        <ele>770.79998779296875</ele>
        <time>2026-08-21T23:31:58.000Z</time>
        <extensions>
          <ns3:TrackPointExtension>
            <ns3:hr>125</ns3:hr>
            <ns3:cad>0</ns3:cad>
          </ns3:TrackPointExtension>
        </extensions>
      </trkpt>
      <trkpt lat="45.30513103120028972625732421875" lon="-71.089545004069805145263671875">
        <ele>770.5999755859375</ele>
        <time>2026-08-21T23:31:59.000Z</time>
        <extensions>
          <ns3:TrackPointExtension>
            <ns3:hr>125</ns3:hr>
            <ns3:cad>0</ns3:cad>
          </ns3:TrackPointExtension>
        </extensions>
      </trkpt>
      <trkpt lat="45.30513404868543148040771484375" lon="-71.0895614326000213623046875">
        <ele>770.5999755859375</ele>
        <time>2026-08-21T23:32:00.000Z</time>
        <extensions>
          <ns3:TrackPointExtension>
            <ns3:hr>125</ns3:hr>
            <ns3:cad>0</ns3:cad>
          </ns3:TrackPointExtension>
        </extensions>
      </trkpt>
      <trkpt lat="45.3051373176276683807373046875" lon="-71.0895810462534427642822265625">
        <ele>770.5999755859375</ele>
        <time>2026-08-21T23:32:01.000Z</time>
        <extensions>
          <ns3:TrackPointExtension>
            <ns3:hr>126</ns3:hr>
            <ns3:cad>0</ns3:cad>
          </ns3:TrackPointExtension>
        </extensions>
      </trkpt>
      <trkpt lat="45.30514041893184185028076171875" lon="-71.08960141427814960479736328125">
        <ele>770.5999755859375</ele>
        <time>2026-08-21T23:32:02.000Z</time>
        <extensions>
          <ns3:TrackPointExtension>
            <ns3:hr>126</ns3:hr>
            <ns3:cad>0</ns3:cad>
          </ns3:TrackPointExtension>
        </extensions>
      </trkpt>
      <trkpt lat="45.305146872997283935546875" lon="-71.08962739817798137664794921875">
        <ele>770.79998779296875</ele>
        <time>2026-08-21T23:32:03.000Z</time>
        <extensions>
          <ns3:TrackPointExtension>
            <ns3:hr>126</ns3:hr>
            <ns3:cad>0</ns3:cad>
          </ns3:TrackPointExtension>
        </extensions>
      </trkpt>
      <trkpt lat="45.3051500581204891204833984375" lon="-71.089646257460117340087890625">
        <ele>770.79998779296875</ele>
        <time>2026-08-21T23:32:04.000Z</time>
        <extensions>
          <ns3:TrackPointExtension>
            <ns3:hr>127</ns3:hr>
            <ns3:cad>0</ns3:cad>
          </ns3:TrackPointExtension>
        </extensions>
      </trkpt>
      <trkpt lat="45.30515198595821857452392578125" lon="-71.089665703475475311279296875">
        <ele>771</ele>
        <time>2026-08-21T23:32:05.000Z</time>
        <extensions>
          <ns3:TrackPointExtension>
            <ns3:hr>127</ns3:hr>
            <ns3:cad>0</ns3:cad>
          </ns3:TrackPointExtension>
        </extensions>
      </trkpt>
      <trkpt lat="45.30515165068209171295166015625" lon="-71.0896821320056915283203125">
        <ele>771.20001220703125</ele>
        <time>2026-08-21T23:32:06.000Z</time>
        <extensions>
          <ns3:TrackPointExtension>
            <ns3:hr>127</ns3:hr>
            <ns3:cad>0</ns3:cad>
          </ns3:TrackPointExtension>
        </extensions>
      </trkpt>
      <trkpt lat="45.30515014193952083587646484375" lon="-71.08970099128782749176025390625">
        <ele>771.4000244140625</ele>
        <time>2026-08-21T23:32:07.000Z</time>
        <extensions>
          <ns3:TrackPointExtension>
            <ns3:hr>127</ns3:hr>
            <ns3:cad>0</ns3:cad>
          </ns3:TrackPointExtension>
        </extensions>
      </trkpt>
      <trkpt lat="45.30515114776790142059326171875" lon="-71.08973569236695766448974609375">
        <ele>771.5999755859375</ele>
        <time>2026-08-21T23:32:08.000Z</time>
        <extensions>
          <ns3:TrackPointExtension>
            <ns3:hr>127</ns3:hr>
            <ns3:cad>0</ns3:cad>
          </ns3:TrackPointExtension>
        </extensions>
      </trkpt>
      <trkpt lat="45.30516321770846843719482421875" lon="-71.0897599160671234130859375">
        <ele>771.5999755859375</ele>
        <time>2026-08-21T23:32:09.000Z</time>
        <extensions>
          <ns3:TrackPointExtension>
            <ns3:hr>127</ns3:hr>
            <ns3:cad>0</ns3:cad>
          </ns3:TrackPointExtension>
        </extensions>
      </trkpt>
      <trkpt lat="45.30517302453517913818359375" lon="-71.089774668216705322265625">
        <ele>771.79998779296875</ele>
        <time>2026-08-21T23:32:10.000Z</time>
        <extensions>
          <ns3:TrackPointExtension>
            <ns3:hr>128</ns3:hr>
            <ns3:cad>0</ns3:cad>
          </ns3:TrackPointExtension>
        </extensions>
      </trkpt>
      <trkpt lat="45.3051775507628917694091796875" lon="-71.08978279866278171539306640625">
        <ele>771.79998779296875</ele>
        <time>2026-08-21T23:32:11.000Z</time>
        <extensions>
          <ns3:TrackPointExtension>
            <ns3:hr>128</ns3:hr>
            <ns3:cad>62</ns3:cad>
          </ns3:TrackPointExtension>
        </extensions>
      </trkpt>
      <trkpt lat="45.30517243780195713043212890625" lon="-71.0898043401539325714111328125">
        <ele>772</ele>
        <time>2026-08-21T23:32:12.000Z</time>
        <extensions>
          <ns3:TrackPointExtension>
            <ns3:hr>128</ns3:hr>
            <ns3:cad>62</ns3:cad>
          </ns3:TrackPointExtension>
        </extensions>
      </trkpt>
      <trkpt lat="45.305169336497783660888671875" lon="-71.08983258716762065887451171875">
        <ele>772</ele>
        <time>2026-08-21T23:32:13.000Z</time>
        <extensions>
          <ns3:TrackPointExtension>
            <ns3:hr>129</ns3:hr>
            <ns3:cad>62</ns3:cad>
          </ns3:TrackPointExtension>
        </extensions>
      </trkpt>
      <trkpt lat="45.30517260544002056121826171875" lon="-71.08985245227813720703125">
        <ele>771.79998779296875</ele>
        <time>2026-08-21T23:32:14.000Z</time>
        <extensions>
          <ns3:TrackPointExtension>
            <ns3:hr>130</ns3:hr>
            <ns3:cad>62</ns3:cad>
          </ns3:TrackPointExtension>
        </extensions>
      </trkpt>
      <trkpt lat="45.30517595820128917694091796875" lon="-71.0898784361779689788818359375">
        <ele>771.79998779296875</ele>
        <time>2026-08-21T23:32:15.000Z</time>
        <extensions>
          <ns3:TrackPointExtension>
            <ns3:hr>130</ns3:hr>
            <ns3:cad>0</ns3:cad>
          </ns3:TrackPointExtension>
        </extensions>
      </trkpt>
      <trkpt lat="45.3051817417144775390625" lon="-71.0898982174694538116455078125">
        <ele>771.79998779296875</ele>
        <time>2026-08-21T23:32:16.000Z</time>
        <extensions>
          <ns3:TrackPointExtension>
            <ns3:hr>131</ns3:hr>
            <ns3:cad>0</ns3:cad>
          </ns3:TrackPointExtension>
        </extensions>
      </trkpt>
      <trkpt lat="45.30518551357090473175048828125" lon="-71.089917831122875213623046875">
        <ele>771.5999755859375</ele>
        <time>2026-08-21T23:32:17.000Z</time>
        <extensions>
          <ns3:TrackPointExtension>
            <ns3:hr>131</ns3:hr>
            <ns3:cad>0</ns3:cad>
          </ns3:TrackPointExtension>
        </extensions>
      </trkpt>
      <trkpt lat="45.305190794169902801513671875" lon="-71.08993719331920146942138671875">
        <ele>771.4000244140625</ele>
        <time>2026-08-21T23:32:18.000Z</time>
        <extensions>
          <ns3:TrackPointExtension>
            <ns3:hr>130</ns3:hr>
            <ns3:cad>62</ns3:cad>
          </ns3:TrackPointExtension>
        </extensions>
      </trkpt>
      <trkpt lat="45.30519691295921802520751953125" lon="-71.08994959853589534759521484375">
        <ele>771.20001220703125</ele>
        <time>2026-08-21T23:32:19.000Z</time>
        <extensions>
          <ns3:TrackPointExtension>
            <ns3:hr>130</ns3:hr>
            <ns3:cad>62</ns3:cad>
          </ns3:TrackPointExtension>
        </extensions>
      </trkpt>
      <trkpt lat="45.30520495958626270294189453125" lon="-71.0899656079709529876708984375">
        <ele>771</ele>
        <time>2026-08-21T23:32:20.000Z</time>
        <extensions>
          <ns3:TrackPointExtension>
            <ns3:hr>131</ns3:hr>
            <ns3:cad>73</ns3:cad>
          </ns3:TrackPointExtension>
        </extensions>
      </trkpt>
      <trkpt lat="45.3052147664129734039306640625" lon="-71.0899783484637737274169921875">
        <ele>770.5999755859375</ele>
        <time>2026-08-21T23:32:21.000Z</time>
        <extensions>
          <ns3:TrackPointExtension>
            <ns3:hr>132</ns3:hr>
            <ns3:cad>73</ns3:cad>
          </ns3:TrackPointExtension>
        </extensions>
      </trkpt>
      <trkpt lat="45.3052221424877643585205078125" lon="-71.08999050222337245941162109375">
        <ele>770</ele>
        <time>2026-08-21T23:32:22.000Z</time>
        <extensions>
          <ns3:TrackPointExtension>
            <ns3:hr>133</ns3:hr>
            <ns3:cad>0</ns3:cad>
          </ns3:TrackPointExtension>
        </extensions>
      </trkpt>
      <trkpt lat="45.30522356741130352020263671875" lon="-71.09000257216393947601318359375">
        <ele>769.5999755859375</ele>
        <time>2026-08-21T23:32:23.000Z</time>
        <extensions>
          <ns3:TrackPointExtension>
            <ns3:hr>133</ns3:hr>
            <ns3:cad>0</ns3:cad>
          </ns3:TrackPointExtension>
        </extensions>
      </trkpt>
      <trkpt lat="45.30521736480295658111572265625" lon="-71.090023778378963470458984375">
        <ele>769.20001220703125</ele>
        <time>2026-08-21T23:32:24.000Z</time>
        <extensions>
          <ns3:TrackPointExtension>
            <ns3:hr>133</ns3:hr>
            <ns3:cad>0</ns3:cad>
          </ns3:TrackPointExtension>
        </extensions>
      </trkpt>
      <trkpt lat="45.3052238188683986663818359375" lon="-71.0900474153459072113037109375">
        <ele>768.79998779296875</ele>
        <time>2026-08-21T23:32:25.000Z</time>
        <extensions>
          <ns3:TrackPointExtension>
            <ns3:hr>134</ns3:hr>
            <ns3:cad>0</ns3:cad>
          </ns3:TrackPointExtension>
        </extensions>
      </trkpt>
      <trkpt lat="45.3052278421819210052490234375" lon="-71.0900641791522502899169921875">
        <ele>768.4000244140625</ele>
        <time>2026-08-21T23:32:26.000Z</time>
        <extensions>
          <ns3:TrackPointExtension>
            <ns3:hr>134</ns3:hr>
            <ns3:cad>0</ns3:cad>
          </ns3:TrackPointExtension>
        </extensions>
      </trkpt>
      <trkpt lat="45.3052315302193164825439453125" lon="-71.09007951803505420684814453125">
        <ele>768.20001220703125</ele>
        <time>2026-08-21T23:32:27.000Z</time>
        <extensions>
          <ns3:TrackPointExtension>
            <ns3:hr>134</ns3:hr>
            <ns3:cad>0</ns3:cad>
          </ns3:TrackPointExtension>
        </extensions>
      </trkpt>
      <trkpt lat="45.30523530207574367523193359375" lon="-71.09009259380400180816650390625">
        <ele>768</ele>
        <time>2026-08-21T23:32:28.000Z</time>
        <extensions>
          <ns3:TrackPointExtension>
            <ns3:hr>134</ns3:hr>
            <ns3:cad>0</ns3:cad>
          </ns3:TrackPointExtension>
        </extensions>
      </trkpt>
      <trkpt lat="45.3052476234734058380126953125" lon="-71.0901127941906452178955078125">
        <ele>768</ele>
        <time>2026-08-21T23:32:29.000Z</time>
        <extensions>
          <ns3:TrackPointExtension>
            <ns3:hr>133</ns3:hr>
            <ns3:cad>0</ns3:cad>
          </ns3:TrackPointExtension>
        </extensions>
      </trkpt>
      <trkpt lat="45.30525751411914825439453125" lon="-71.090125702321529388427734375">
        <ele>767.79998779296875</ele>
        <time>2026-08-21T23:32:30.000Z</time>
        <extensions>
          <ns3:TrackPointExtension>
            <ns3:hr>133</ns3:hr>
            <ns3:cad>0</ns3:cad>
          </ns3:TrackPointExtension>
        </extensions>
      </trkpt>
      <trkpt lat="45.3052677400410175323486328125" lon="-71.09014137648046016693115234375">
        <ele>767.5999755859375</ele>
        <time>2026-08-21T23:32:31.000Z</time>
        <extensions>
          <ns3:TrackPointExtension>
            <ns3:hr>133</ns3:hr>
            <ns3:cad>0</ns3:cad>
          </ns3:TrackPointExtension>
        </extensions>
      </trkpt>
      <trkpt lat="45.3052796423435211181640625" lon="-71.0901587270200252532958984375">
        <ele>767.5999755859375</ele>
        <time>2026-08-21T23:32:32.000Z</time>
        <extensions>
          <ns3:TrackPointExtension>
            <ns3:hr>133</ns3:hr>
            <ns3:cad>0</ns3:cad>
          </ns3:TrackPointExtension>
        </extensions>
      </trkpt>
      <trkpt lat="45.3052841685712337493896484375" lon="-71.09017708338797092437744140625">
        <ele>767.4000244140625</ele>
        <time>2026-08-21T23:32:33.000Z</time>
        <extensions>
          <ns3:TrackPointExtension>
            <ns3:hr>132</ns3:hr>
            <ns3:cad>0</ns3:cad>
          </ns3:TrackPointExtension>
        </extensions>
      </trkpt>
      <trkpt lat="45.3052855096757411956787109375" lon="-71.09019451774656772613525390625">
        <ele>767.5999755859375</ele>
        <time>2026-08-21T23:32:34.000Z</time>
        <extensions>
          <ns3:TrackPointExtension>
            <ns3:hr>132</ns3:hr>
            <ns3:cad>68</ns3:cad>
          </ns3:TrackPointExtension>
        </extensions>
      </trkpt>
      <trkpt lat="45.30528425239026546478271484375" lon="-71.09020658768713474273681640625">
        <ele>767.79998779296875</ele>
        <time>2026-08-21T23:32:35.000Z</time>
        <extensions>
          <ns3:TrackPointExtension>
            <ns3:hr>132</ns3:hr>
            <ns3:cad>68</ns3:cad>
          </ns3:TrackPointExtension>
        </extensions>
      </trkpt>
      <trkpt lat="45.3052824921905994415283203125" lon="-71.09021765179932117462158203125">
        <ele>768.20001220703125</ele>
        <time>2026-08-21T23:32:36.000Z</time>
        <extensions>
          <ns3:TrackPointExtension>
            <ns3:hr>132</ns3:hr>
            <ns3:cad>68</ns3:cad>
          </ns3:TrackPointExtension>
        </extensions>
      </trkpt>
      <trkpt lat="45.305278301239013671875" lon="-71.09023592434823513031005859375">
        <ele>768.4000244140625</ele>
        <time>2026-08-21T23:32:37.000Z</time>
        <extensions>
          <ns3:TrackPointExtension>
            <ns3:hr>131</ns3:hr>
            <ns3:cad>68</ns3:cad>
          </ns3:TrackPointExtension>
        </extensions>
      </trkpt>
      <trkpt lat="45.30527587048709392547607421875" lon="-71.09025084413588047027587890625">
        <ele>768.79998779296875</ele>
        <time>2026-08-21T23:32:38.000Z</time>
        <extensions>
          <ns3:TrackPointExtension>
            <ns3:hr>131</ns3:hr>
            <ns3:cad>68</ns3:cad>
          </ns3:TrackPointExtension>
        </extensions>
      </trkpt>
      <trkpt lat="45.30527360737323760986328125" lon="-71.09025654383003711700439453125">
        <ele>769</ele>
        <time>2026-08-21T23:32:39.000Z</time>
        <extensions>
          <ns3:TrackPointExtension>
            <ns3:hr>131</ns3:hr>
            <ns3:cad>0</ns3:cad>
          </ns3:TrackPointExtension>
        </extensions>
      </trkpt>
      <trkpt lat="45.305264890193939208984375" lon="-71.09027146361768245697021484375">
        <ele>769.20001220703125</ele>
        <time>2026-08-21T23:32:40.000Z</time>
        <extensions>
          <ns3:TrackPointExtension>
            <ns3:hr>130</ns3:hr>
            <ns3:cad>0</ns3:cad>
          </ns3:TrackPointExtension>
        </extensions>
      </trkpt>
      <trkpt lat="45.30526178888976573944091796875" lon="-71.0902894847095012664794921875">
        <ele>769.4000244140625</ele>
        <time>2026-08-21T23:32:41.000Z</time>
        <extensions>
          <ns3:TrackPointExtension>
            <ns3:hr>130</ns3:hr>
            <ns3:cad>0</ns3:cad>
          </ns3:TrackPointExtension>
        </extensions>
      </trkpt>
      <trkpt lat="45.30526111833751201629638671875" lon="-71.090305745601654052734375">
        <ele>769.5999755859375</ele>
        <time>2026-08-21T23:32:42.000Z</time>
        <extensions>
          <ns3:TrackPointExtension>
            <ns3:hr>129</ns3:hr>
            <ns3:cad>51</ns3:cad>
          </ns3:TrackPointExtension>
        </extensions>
      </trkpt>
      <trkpt lat="45.30526153743267059326171875" lon="-71.09032644890248775482177734375">
        <ele>769.5999755859375</ele>
        <time>2026-08-21T23:32:43.000Z</time>
        <extensions>
          <ns3:TrackPointExtension>
            <ns3:hr>129</ns3:hr>
            <ns3:cad>51</ns3:cad>
          </ns3:TrackPointExtension>
        </extensions>
      </trkpt>
      <trkpt lat="45.3052593581378459930419921875" lon="-71.0903446376323699951171875">
        <ele>769.79998779296875</ele>
        <time>2026-08-21T23:32:44.000Z</time>
        <extensions>
          <ns3:TrackPointExtension>
            <ns3:hr>128</ns3:hr>
            <ns3:cad>51</ns3:cad>
          </ns3:TrackPointExtension>
        </extensions>
      </trkpt>
      <trkpt lat="45.3052581846714019775390625" lon="-71.09035394154489040374755859375">
        <ele>770</ele>
        <time>2026-08-21T23:32:45.000Z</time>
        <extensions>
          <ns3:TrackPointExtension>
            <ns3:hr>128</ns3:hr>
            <ns3:cad>51</ns3:cad>
          </ns3:TrackPointExtension>
        </extensions>
      </trkpt>
      <trkpt lat="45.30525525100529193878173828125" lon="-71.09037221409380435943603515625">
        <ele>770.20001220703125</ele>
        <time>2026-08-21T23:32:46.000Z</time>
        <extensions>
          <ns3:TrackPointExtension>
            <ns3:hr>128</ns3:hr>
            <ns3:cad>51</ns3:cad>
          </ns3:TrackPointExtension>
        </extensions>
      </trkpt>
      <trkpt lat="45.3052546642720699310302734375" lon="-71.09039316885173320770263671875">
        <ele>770.20001220703125</ele>
        <time>2026-08-21T23:32:47.000Z</time>
        <extensions>
          <ns3:TrackPointExtension>
            <ns3:hr>128</ns3:hr>
            <ns3:cad>51</ns3:cad>
          </ns3:TrackPointExtension>
        </extensions>
      </trkpt>
      <trkpt lat="45.30525323934853076934814453125" lon="-71.09041211195290088653564453125">
        <ele>770.4000244140625</ele>
        <time>2026-08-21T23:32:48.000Z</time>
        <extensions>
          <ns3:TrackPointExtension>
            <ns3:hr>128</ns3:hr>
            <ns3:cad>51</ns3:cad>
          </ns3:TrackPointExtension>
        </extensions>
      </trkpt>
      <trkpt lat="45.30525441281497478485107421875" lon="-71.09043356962502002716064453125">
        <ele>770.4000244140625</ele>
        <time>2026-08-21T23:32:49.000Z</time>
        <extensions>
          <ns3:TrackPointExtension>
            <ns3:hr>127</ns3:hr>
            <ns3:cad>50</ns3:cad>
          </ns3:TrackPointExtension>
        </extensions>
      </trkpt>
      <trkpt lat="45.30525642447173595428466796875" lon="-71.0904546082019805908203125">
        <ele>770.4000244140625</ele>
        <time>2026-08-21T23:32:50.000Z</time>
        <extensions>
          <ns3:TrackPointExtension>
            <ns3:hr>127</ns3:hr>
            <ns3:cad>50</ns3:cad>
          </ns3:TrackPointExtension>
        </extensions>
      </trkpt>
      <trkpt lat="45.3052586875855922698974609375" lon="-71.090472377836704254150390625">
        <ele>770.5999755859375</ele>
        <time>2026-08-21T23:32:51.000Z</time>
        <extensions>
          <ns3:TrackPointExtension>
            <ns3:hr>128</ns3:hr>
            <ns3:cad>50</ns3:cad>
          </ns3:TrackPointExtension>
        </extensions>
      </trkpt>
      <trkpt lat="45.30525843612849712371826171875" lon="-71.09048344194889068603515625">
        <ele>770.5999755859375</ele>
        <time>2026-08-21T23:32:52.000Z</time>
        <extensions>
          <ns3:TrackPointExtension>
            <ns3:hr>128</ns3:hr>
            <ns3:cad>50</ns3:cad>
          </ns3:TrackPointExtension>
        </extensions>
      </trkpt>
      <trkpt lat="45.30526044778525829315185546875" lon="-71.090498864650726318359375">
        <ele>770.79998779296875</ele>
        <time>2026-08-21T23:32:53.000Z</time>
        <extensions>
          <ns3:TrackPointExtension>
            <ns3:hr>129</ns3:hr>
            <ns3:cad>50</ns3:cad>
          </ns3:TrackPointExtension>
        </extensions>
      </trkpt>
      <trkpt lat="45.3052593581378459930419921875" lon="-71.09051453880965709686279296875">
        <ele>771</ele>
        <time>2026-08-21T23:32:54.000Z</time>
        <extensions>
          <ns3:TrackPointExtension>
            <ns3:hr>130</ns3:hr>
            <ns3:cad>50</ns3:cad>
          </ns3:TrackPointExtension>
        </extensions>
      </trkpt>
      <trkpt lat="45.30525860376656055450439453125" lon="-71.0905302129685878753662109375">
        <ele>771</ele>
        <time>2026-08-21T23:32:55.000Z</time>
        <extensions>
          <ns3:TrackPointExtension>
            <ns3:hr>130</ns3:hr>
            <ns3:cad>50</ns3:cad>
          </ns3:TrackPointExtension>
        </extensions>
      </trkpt>
      <trkpt lat="45.3052583523094654083251953125" lon="-71.0905442945659160614013671875">
        <ele>771</ele>
        <time>2026-08-21T23:32:56.000Z</time>
        <extensions>
          <ns3:TrackPointExtension>
            <ns3:hr>130</ns3:hr>
            <ns3:cad>0</ns3:cad>
          </ns3:TrackPointExtension>
        </extensions>
      </trkpt>
      <trkpt lat="45.305256508290767669677734375" lon="-71.0905556939542293548583984375">
        <ele>771</ele>
        <time>2026-08-21T23:32:57.000Z</time>
        <extensions>
          <ns3:TrackPointExtension>
            <ns3:hr>130</ns3:hr>
            <ns3:cad>0</ns3:cad>
          </ns3:TrackPointExtension>
        </extensions>
      </trkpt>
      <trkpt lat="45.305254496634006500244140625" lon="-71.09056935645639896392822265625">
        <ele>770.79998779296875</ele>
        <time>2026-08-21T23:32:58.000Z</time>
        <extensions>
          <ns3:TrackPointExtension>
            <ns3:hr>130</ns3:hr>
            <ns3:cad>53</ns3:cad>
          </ns3:TrackPointExtension>
        </extensions>
      </trkpt>
      <trkpt lat="45.30524971894919872283935546875" lon="-71.0905828513205051422119140625">
        <ele>770.79998779296875</ele>
        <time>2026-08-21T23:32:59.000Z</time>
        <extensions>
          <ns3:TrackPointExtension>
            <ns3:hr>131</ns3:hr>
            <ns3:cad>53</ns3:cad>
          </ns3:TrackPointExtension>
        </extensions>
      </trkpt>
      <trkpt lat="45.30524737201631069183349609375" lon="-71.090589724481105804443359375">
        <ele>770.5999755859375</ele>
        <time>2026-08-21T23:33:00.000Z</time>
        <extensions>
          <ns3:TrackPointExtension>
            <ns3:hr>130</ns3:hr>
            <ns3:cad>53</ns3:cad>
          </ns3:TrackPointExtension>
        </extensions>
      </trkpt>
      <trkpt lat="45.3052409179508686065673828125" lon="-71.0905912332236766815185546875">
        <ele>770.5999755859375</ele>
        <time>2026-08-21T23:33:01.000Z</time>
        <extensions>
          <ns3:TrackPointExtension>
            <ns3:hr>130</ns3:hr>
            <ns3:cad>53</ns3:cad>
          </ns3:TrackPointExtension>
        </extensions>
      </trkpt>
      <trkpt lat="45.30523563735187053680419921875" lon="-71.09059215523302555084228515625">
        <ele>770.4000244140625</ele>
        <time>2026-08-21T23:33:02.000Z</time>
        <extensions>
          <ns3:TrackPointExtension>
            <ns3:hr>130</ns3:hr>
            <ns3:cad>53</ns3:cad>
          </ns3:TrackPointExtension>
        </extensions>
      </trkpt>
      <trkpt lat="45.30522800981998443603515625" lon="-71.09059718437492847442626953125">
        <ele>770.4000244140625</ele>
        <time>2026-08-21T23:33:03.000Z</time>
        <extensions>
          <ns3:TrackPointExtension>
            <ns3:hr>130</ns3:hr>
            <ns3:cad>53</ns3:cad>
          </ns3:TrackPointExtension>
        </extensions>
      </trkpt>
      <trkpt lat="45.30521929264068603515625" lon="-71.09060414135456085205078125">
        <ele>770.20001220703125</ele>
        <time>2026-08-21T23:33:04.000Z</time>
        <extensions>
          <ns3:TrackPointExtension>
            <ns3:hr>130</ns3:hr>
            <ns3:cad>53</ns3:cad>
          </ns3:TrackPointExtension>
        </extensions>
      </trkpt>
      <trkpt lat="45.3052077256143093109130859375" lon="-71.0906063206493854522705078125">
        <ele>770.20001220703125</ele>
        <time>2026-08-21T23:33:05.000Z</time>
        <extensions>
          <ns3:TrackPointExtension>
            <ns3:hr>130</ns3:hr>
            <ns3:cad>41</ns3:cad>
          </ns3:TrackPointExtension>
        </extensions>
      </trkpt>
      <trkpt lat="45.3051990084350109100341796875" lon="-71.090606153011322021484375">
        <ele>770.20001220703125</ele>
        <time>2026-08-21T23:33:06.000Z</time>
        <extensions>
          <ns3:TrackPointExtension>
            <ns3:hr>130</ns3:hr>
            <ns3:cad>41</ns3:cad>
          </ns3:TrackPointExtension>
        </extensions>
      </trkpt>
      <trkpt lat="45.30519322492182254791259765625" lon="-71.09060774557292461395263671875">
        <ele>770</ele>
        <time>2026-08-21T23:33:07.000Z</time>
        <extensions>
          <ns3:TrackPointExtension>
            <ns3:hr>130</ns3:hr>
            <ns3:cad>41</ns3:cad>
          </ns3:TrackPointExtension>
        </extensions>
      </trkpt>
      <trkpt lat="45.30518584884703159332275390625" lon="-71.090607158839702606201171875">
        <ele>770</ele>
        <time>2026-08-21T23:33:08.000Z</time>
        <extensions>
          <ns3:TrackPointExtension>
            <ns3:hr>129</ns3:hr>
            <ns3:cad>0</ns3:cad>
          </ns3:TrackPointExtension>
        </extensions>
      </trkpt>
      <trkpt lat="45.3051817417144775390625" lon="-71.09060548245906829833984375">
        <ele>770</ele>
        <time>2026-08-21T23:33:09.000Z</time>
        <extensions>
          <ns3:TrackPointExtension>
            <ns3:hr>129</ns3:hr>
            <ns3:cad>0</ns3:cad>
          </ns3:TrackPointExtension>
        </extensions>
      </trkpt>
      <trkpt lat="45.30517696402966976165771484375" lon="-71.0906012915074825286865234375">
        <ele>770</ele>
        <time>2026-08-21T23:33:10.000Z</time>
        <extensions>
          <ns3:TrackPointExtension>
            <ns3:hr>129</ns3:hr>
            <ns3:cad>0</ns3:cad>
          </ns3:TrackPointExtension>
        </extensions>
      </trkpt>
      <trkpt lat="45.30517176724970340728759765625" lon="-71.09060011804103851318359375">
        <ele>770</ele>
        <time>2026-08-21T23:33:11.000Z</time>
        <extensions>
          <ns3:TrackPointExtension>
            <ns3:hr>129</ns3:hr>
            <ns3:cad>0</ns3:cad>
          </ns3:TrackPointExtension>
        </extensions>
      </trkpt>
      <trkpt lat="45.3051695041358470916748046875" lon="-71.09060087241232395172119140625">
        <ele>770</ele>
        <time>2026-08-21T23:33:12.000Z</time>
        <extensions>
          <ns3:TrackPointExtension>
            <ns3:hr>129</ns3:hr>
            <ns3:cad>0</ns3:cad>
          </ns3:TrackPointExtension>
        </extensions>
      </trkpt>
      <trkpt lat="45.3051674924790859222412109375" lon="-71.0906019620597362518310546875">
        <ele>770</ele>
        <time>2026-08-21T23:33:13.000Z</time>
        <extensions>
          <ns3:TrackPointExtension>
            <ns3:hr>128</ns3:hr>
            <ns3:cad>0</ns3:cad>
          </ns3:TrackPointExtension>
        </extensions>
      </trkpt>
      <trkpt lat="45.30516724102199077606201171875" lon="-71.0906021296977996826171875">
        <ele>770</ele>
        <time>2026-08-21T23:33:14.000Z</time>
        <extensions>
          <ns3:TrackPointExtension>
            <ns3:hr>127</ns3:hr>
            <ns3:cad>0</ns3:cad>
          </ns3:TrackPointExtension>
        </extensions>
      </trkpt>
      <trkpt lat="45.30516724102199077606201171875" lon="-71.0906021296977996826171875">
        <ele>770</ele>
        <time>2026-08-21T23:33:15.000Z</time>
        <extensions>
          <ns3:TrackPointExtension>
            <ns3:hr>125</ns3:hr>
            <ns3:cad>0</ns3:cad>
          </ns3:TrackPointExtension>
        </extensions>
      </trkpt>
      <trkpt lat="45.30516724102199077606201171875" lon="-71.0906021296977996826171875">
        <ele>770</ele>
        <time>2026-08-21T23:33:16.000Z</time>
        <extensions>
          <ns3:TrackPointExtension>
            <ns3:hr>124</ns3:hr>
            <ns3:cad>0</ns3:cad>
          </ns3:TrackPointExtension>
        </extensions>
      </trkpt>
      <trkpt lat="45.30516724102199077606201171875" lon="-71.0906021296977996826171875">
        <ele>770</ele>
        <time>2026-08-21T23:33:17.000Z</time>
        <extensions>
          <ns3:TrackPointExtension>
            <ns3:hr>124</ns3:hr>
            <ns3:cad>0</ns3:cad>
          </ns3:TrackPointExtension>
        </extensions>
      </trkpt>
      <trkpt lat="45.30516657046973705291748046875" lon="-71.0906022973358631134033203125">
        <ele>770</ele>
        <time>2026-08-21T23:33:18.000Z</time>
        <extensions>
          <ns3:TrackPointExtension>
            <ns3:hr>124</ns3:hr>
            <ns3:cad>0</ns3:cad>
          </ns3:TrackPointExtension>
        </extensions>
      </trkpt>
      <trkpt lat="45.3051560930907726287841796875" lon="-71.0906026326119899749755859375">
        <ele>770</ele>
        <time>2026-08-21T23:33:19.000Z</time>
        <extensions>
          <ns3:TrackPointExtension>
            <ns3:hr>124</ns3:hr>
            <ns3:cad>0</ns3:cad>
          </ns3:TrackPointExtension>
        </extensions>
      </trkpt>
      <trkpt lat="45.30514595098793506622314453125" lon="-71.0906036384403705596923828125">
        <ele>770</ele>
        <time>2026-08-21T23:33:20.000Z</time>
        <extensions>
          <ns3:TrackPointExtension>
            <ns3:hr>124</ns3:hr>
            <ns3:cad>0</ns3:cad>
          </ns3:TrackPointExtension>
        </extensions>
      </trkpt>
      <trkpt lat="45.30513505451381206512451171875" lon="-71.0906056500971317291259765625">
        <ele>770</ele>
        <time>2026-08-21T23:33:21.000Z</time>
        <extensions>
          <ns3:TrackPointExtension>
            <ns3:hr>124</ns3:hr>
            <ns3:cad>0</ns3:cad>
          </ns3:TrackPointExtension>
        </extensions>
      </trkpt>
      <trkpt lat="45.30512667261064052581787109375" lon="-71.09060741029679775238037109375">
        <ele>770</ele>
        <time>2026-08-21T23:33:22.000Z</time>
        <extensions>
          <ns3:TrackPointExtension>
            <ns3:hr>123</ns3:hr>
            <ns3:cad>0</ns3:cad>
          </ns3:TrackPointExtension>
        </extensions>
      </trkpt>
      <trkpt lat="45.305118374526500701904296875" lon="-71.09061042778193950653076171875">
        <ele>770</ele>
        <time>2026-08-21T23:33:23.000Z</time>
        <extensions>
          <ns3:TrackPointExtension>
            <ns3:hr>122</ns3:hr>
            <ns3:cad>0</ns3:cad>
          </ns3:TrackPointExtension>
        </extensions>
      </trkpt>
      <trkpt lat="45.3051031194627285003662109375" lon="-71.09061755239963531494140625">
        <ele>770.20001220703125</ele>
        <time>2026-08-21T23:33:24.000Z</time>
        <extensions>
          <ns3:TrackPointExtension>
            <ns3:hr>122</ns3:hr>
            <ns3:cad>47</ns3:cad>
          </ns3:TrackPointExtension>
        </extensions>
      </trkpt>
      <trkpt lat="45.30509163625538349151611328125" lon="-71.09062769450247287750244140625">
        <ele>770.20001220703125</ele>
        <time>2026-08-21T23:33:25.000Z</time>
        <extensions>
          <ns3:TrackPointExtension>
            <ns3:hr>122</ns3:hr>
            <ns3:cad>0</ns3:cad>
          </ns3:TrackPointExtension>
        </extensions>
      </trkpt>
      <trkpt lat="45.3050830028951168060302734375" lon="-71.090635992586612701416015625">
        <ele>770.4000244140625</ele>
        <time>2026-08-21T23:33:26.000Z</time>
        <extensions>
          <ns3:TrackPointExtension>
            <ns3:hr>122</ns3:hr>
            <ns3:cad>0</ns3:cad>
          </ns3:TrackPointExtension>
        </extensions>
      </trkpt>
      <trkpt lat="45.3050716035068035125732421875" lon="-71.09064596705138683319091796875">
        <ele>770.79998779296875</ele>
        <time>2026-08-21T23:33:27.000Z</time>
        <extensions>
          <ns3:TrackPointExtension>
            <ns3:hr>121</ns3:hr>
            <ns3:cad>0</ns3:cad>
          </ns3:TrackPointExtension>
        </extensions>
      </trkpt>
      <trkpt lat="45.305061377584934234619140625" lon="-71.09066021628677845001220703125">
        <ele>770.79998779296875</ele>
        <time>2026-08-21T23:33:28.000Z</time>
        <extensions>
          <ns3:TrackPointExtension>
            <ns3:hr>122</ns3:hr>
            <ns3:cad>0</ns3:cad>
          </ns3:TrackPointExtension>
        </extensions>
      </trkpt>
      <trkpt lat="45.3050545044243335723876953125" lon="-71.090671531856060028076171875">
        <ele>771</ele>
        <time>2026-08-21T23:33:29.000Z</time>
        <extensions>
          <ns3:TrackPointExtension>
            <ns3:hr>122</ns3:hr>
            <ns3:cad>0</ns3:cad>
          </ns3:TrackPointExtension>
        </extensions>
      </trkpt>
      <trkpt lat="45.30504704453051090240478515625" lon="-71.09068754129111766815185546875">
        <ele>771.20001220703125</ele>
        <time>2026-08-21T23:33:30.000Z</time>
        <extensions>
          <ns3:TrackPointExtension>
            <ns3:hr>122</ns3:hr>
            <ns3:cad>0</ns3:cad>
          </ns3:TrackPointExtension>
        </extensions>
      </trkpt>
      <trkpt lat="45.3050407581031322479248046875" lon="-71.09069994650781154632568359375">
        <ele>771.20001220703125</ele>
        <time>2026-08-21T23:33:31.000Z</time>
        <extensions>
          <ns3:TrackPointExtension>
            <ns3:hr>122</ns3:hr>
            <ns3:cad>49</ns3:cad>
          </ns3:TrackPointExtension>
        </extensions>
      </trkpt>
      <trkpt lat="45.3050328791141510009765625" lon="-71.09072081744670867919921875">
        <ele>771.20001220703125</ele>
        <time>2026-08-21T23:33:32.000Z</time>
        <extensions>
          <ns3:TrackPointExtension>
            <ns3:hr>122</ns3:hr>
            <ns3:cad>49</ns3:cad>
          </ns3:TrackPointExtension>
        </extensions>
      </trkpt>
      <trkpt lat="45.30503028072416782379150390625" lon="-71.09073481522500514984130859375">
        <ele>771.20001220703125</ele>
        <time>2026-08-21T23:33:33.000Z</time>
        <extensions>
          <ns3:TrackPointExtension>
            <ns3:hr>123</ns3:hr>
            <ns3:cad>49</ns3:cad>
          </ns3:TrackPointExtension>
        </extensions>
      </trkpt>
      <trkpt lat="45.3050209768116474151611328125" lon="-71.090754009783267974853515625">
        <ele>771.20001220703125</ele>
        <time>2026-08-21T23:33:34.000Z</time>
        <extensions>
          <ns3:TrackPointExtension>
            <ns3:hr>123</ns3:hr>
            <ns3:cad>49</ns3:cad>
          </ns3:TrackPointExtension>
        </extensions>
      </trkpt>
      <trkpt lat="45.3050189651548862457275390625" lon="-71.09077773056924343109130859375">
        <ele>771</ele>
        <time>2026-08-21T23:33:35.000Z</time>
        <extensions>
          <ns3:TrackPointExtension>
            <ns3:hr>122</ns3:hr>
            <ns3:cad>49</ns3:cad>
          </ns3:TrackPointExtension>
        </extensions>
      </trkpt>
      <trkpt lat="45.30501368455588817596435546875" lon="-71.0907927341759204864501953125">
        <ele>771</ele>
        <time>2026-08-21T23:33:36.000Z</time>
        <extensions>
          <ns3:TrackPointExtension>
            <ns3:hr>123</ns3:hr>
            <ns3:cad>49</ns3:cad>
          </ns3:TrackPointExtension>
        </extensions>
      </trkpt>
      <trkpt lat="45.30500513501465320587158203125" lon="-71.09080639667809009552001953125">
        <ele>771</ele>
        <time>2026-08-21T23:33:37.000Z</time>
        <extensions>
          <ns3:TrackPointExtension>
            <ns3:hr>123</ns3:hr>
            <ns3:cad>49</ns3:cad>
          </ns3:TrackPointExtension>
        </extensions>
      </trkpt>
      <trkpt lat="45.30499759130179882049560546875" lon="-71.09081611968576908111572265625">
        <ele>770.79998779296875</ele>
        <time>2026-08-21T23:33:38.000Z</time>
        <extensions>
          <ns3:TrackPointExtension>
            <ns3:hr>123</ns3:hr>
            <ns3:cad>56</ns3:cad>
          </ns3:TrackPointExtension>
        </extensions>
      </trkpt>
      <trkpt lat="45.30498920939862728118896484375" lon="-71.09083137474954128265380859375">
        <ele>771</ele>
        <time>2026-08-21T23:33:39.000Z</time>
        <extensions>
          <ns3:TrackPointExtension>
            <ns3:hr>123</ns3:hr>
            <ns3:cad>56</ns3:cad>
          </ns3:TrackPointExtension>
        </extensions>
      </trkpt>
      <trkpt lat="45.3049814142286777496337890625" lon="-71.09085023403167724609375">
        <ele>771</ele>
        <time>2026-08-21T23:33:40.000Z</time>
        <extensions>
          <ns3:TrackPointExtension>
            <ns3:hr>123</ns3:hr>
            <ns3:cad>56</ns3:cad>
          </ns3:TrackPointExtension>
        </extensions>
      </trkpt>
      <trkpt lat="45.3049733676016330718994140625" lon="-71.090857274830341339111328125">
        <ele>771.20001220703125</ele>
        <time>2026-08-21T23:33:41.000Z</time>
        <extensions>
          <ns3:TrackPointExtension>
            <ns3:hr>123</ns3:hr>
            <ns3:cad>56</ns3:cad>
          </ns3:TrackPointExtension>
        </extensions>
      </trkpt>
      <trkpt lat="45.30495786108076572418212890625" lon="-71.0908601246774196624755859375">
        <ele>771.20001220703125</ele>
        <time>2026-08-21T23:33:42.000Z</time>
        <extensions>
          <ns3:TrackPointExtension>
            <ns3:hr>123</ns3:hr>
            <ns3:cad>56</ns3:cad>
          </ns3:TrackPointExtension>
        </extensions>
      </trkpt>
      <trkpt lat="45.304946042597293853759765625" lon="-71.09086490236222743988037109375">
        <ele>771.20001220703125</ele>
        <time>2026-08-21T23:33:43.000Z</time>
        <extensions>
          <ns3:TrackPointExtension>
            <ns3:hr>123</ns3:hr>
            <ns3:cad>52</ns3:cad>
          </ns3:TrackPointExtension>
        </extensions>
      </trkpt>
      <trkpt lat="45.3049338050186634063720703125" lon="-71.090877391397953033447265625">
        <ele>771.20001220703125</ele>
        <time>2026-08-21T23:33:44.000Z</time>
        <extensions>
          <ns3:TrackPointExtension>
            <ns3:hr>122</ns3:hr>
            <ns3:cad>0</ns3:cad>
          </ns3:TrackPointExtension>
        </extensions>
      </trkpt>
      <trkpt lat="45.30492668040096759796142578125" lon="-71.090880744159221649169921875">
        <ele>771.4000244140625</ele>
        <time>2026-08-21T23:33:45.000Z</time>
        <extensions>
          <ns3:TrackPointExtension>
            <ns3:hr>122</ns3:hr>
            <ns3:cad>0</ns3:cad>
          </ns3:TrackPointExtension>
        </extensions>
      </trkpt>
      <trkpt lat="45.30491880141198635101318359375" lon="-71.0908899642527103424072265625">
        <ele>771.4000244140625</ele>
        <time>2026-08-21T23:33:46.000Z</time>
        <extensions>
          <ns3:TrackPointExtension>
            <ns3:hr>121</ns3:hr>
            <ns3:cad>0</ns3:cad>
          </ns3:TrackPointExtension>
        </extensions>
      </trkpt>
      <trkpt lat="45.304910838603973388671875" lon="-71.090901531279087066650390625">
        <ele>771.4000244140625</ele>
        <time>2026-08-21T23:33:47.000Z</time>
        <extensions>
          <ns3:TrackPointExtension>
            <ns3:hr>121</ns3:hr>
            <ns3:cad>0</ns3:cad>
          </ns3:TrackPointExtension>
        </extensions>
      </trkpt>
      <trkpt lat="45.30490078032016754150390625" lon="-71.09091334976255893707275390625">
        <ele>771.5999755859375</ele>
        <time>2026-08-21T23:33:48.000Z</time>
        <extensions>
          <ns3:TrackPointExtension>
            <ns3:hr>121</ns3:hr>
            <ns3:cad>0</ns3:cad>
          </ns3:TrackPointExtension>
        </extensions>
      </trkpt>
      <trkpt lat="45.30489114113152027130126953125" lon="-71.09091904945671558380126953125">
        <ele>771.79998779296875</ele>
        <time>2026-08-21T23:33:49.000Z</time>
        <extensions>
          <ns3:TrackPointExtension>
            <ns3:hr>121</ns3:hr>
            <ns3:cad>0</ns3:cad>
          </ns3:TrackPointExtension>
        </extensions>
      </trkpt>
      <trkpt lat="45.30488074757158756256103515625" lon="-71.09092256985604763031005859375">
        <ele>771.79998779296875</ele>
        <time>2026-08-21T23:33:50.000Z</time>
        <extensions>
          <ns3:TrackPointExtension>
            <ns3:hr>120</ns3:hr>
            <ns3:cad>0</ns3:cad>
          </ns3:TrackPointExtension>
        </extensions>
      </trkpt>
      <trkpt lat="45.30486591160297393798828125" lon="-71.09092877246439456939697265625">
        <ele>772</ele>
        <time>2026-08-21T23:33:51.000Z</time>
        <extensions>
          <ns3:TrackPointExtension>
            <ns3:hr>120</ns3:hr>
            <ns3:cad>53</ns3:cad>
          </ns3:TrackPointExtension>
        </extensions>
      </trkpt>
      <trkpt lat="45.3048563562333583831787109375" lon="-71.09093866311013698577880859375">
        <ele>772</ele>
        <time>2026-08-21T23:33:52.000Z</time>
        <extensions>
          <ns3:TrackPointExtension>
            <ns3:hr>119</ns3:hr>
            <ns3:cad>53</ns3:cad>
          </ns3:TrackPointExtension>
        </extensions>
      </trkpt>
      <trkpt lat="45.30484847724437713623046875" lon="-71.09095224179327487945556640625">
        <ele>772.20001220703125</ele>
        <time>2026-08-21T23:33:53.000Z</time>
        <extensions>
          <ns3:TrackPointExtension>
            <ns3:hr>119</ns3:hr>
            <ns3:cad>53</ns3:cad>
          </ns3:TrackPointExtension>
        </extensions>
      </trkpt>
      <trkpt lat="45.3048426099121570587158203125" lon="-71.09096514992415904998779296875">
        <ele>772.20001220703125</ele>
        <time>2026-08-21T23:33:54.000Z</time>
        <extensions>
          <ns3:TrackPointExtension>
            <ns3:hr>119</ns3:hr>
            <ns3:cad>53</ns3:cad>
          </ns3:TrackPointExtension>
        </extensions>
      </trkpt>
      <trkpt lat="45.3048384189605712890625" lon="-71.090980656445026397705078125">
        <ele>772.20001220703125</ele>
        <time>2026-08-21T23:33:55.000Z</time>
        <extensions>
          <ns3:TrackPointExtension>
            <ns3:hr>120</ns3:hr>
            <ns3:cad>50</ns3:cad>
          </ns3:TrackPointExtension>
        </extensions>
      </trkpt>
      <trkpt lat="45.30483615584671497344970703125" lon="-71.090993396937847137451171875">
        <ele>772.4000244140625</ele>
        <time>2026-08-21T23:33:56.000Z</time>
        <extensions>
          <ns3:TrackPointExtension>
            <ns3:hr>120</ns3:hr>
            <ns3:cad>50</ns3:cad>
          </ns3:TrackPointExtension>
        </extensions>
      </trkpt>
      <trkpt lat="45.3048338927328586578369140625" lon="-71.09100135974586009979248046875">
        <ele>772.5999755859375</ele>
        <time>2026-08-21T23:33:57.000Z</time>
        <extensions>
          <ns3:TrackPointExtension>
            <ns3:hr>121</ns3:hr>
            <ns3:cad>50</ns3:cad>
          </ns3:TrackPointExtension>
        </extensions>
      </trkpt>
      <trkpt lat="45.30482861213386058807373046875" lon="-71.09101544134318828582763671875">
        <ele>772.79998779296875</ele>
        <time>2026-08-21T23:33:58.000Z</time>
        <extensions>
          <ns3:TrackPointExtension>
            <ns3:hr>121</ns3:hr>
            <ns3:cad>50</ns3:cad>
          </ns3:TrackPointExtension>
        </extensions>
      </trkpt>
      <trkpt lat="45.304824002087116241455078125" lon="-71.09102952294051647186279296875">
        <ele>773</ele>
        <time>2026-08-21T23:33:59.000Z</time>
        <extensions>
          <ns3:TrackPointExtension>
            <ns3:hr>120</ns3:hr>
            <ns3:cad>50</ns3:cad>
          </ns3:TrackPointExtension>
        </extensions>
      </trkpt>
      <trkpt lat="45.3048204816877841949462890625" lon="-71.0910364799201488494873046875">
        <ele>773.20001220703125</ele>
        <time>2026-08-21T23:34:00.000Z</time>
        <extensions>
          <ns3:TrackPointExtension>
            <ns3:hr>120</ns3:hr>
            <ns3:cad>42</ns3:cad>
          </ns3:TrackPointExtension>
        </extensions>
      </trkpt>
      <trkpt lat="45.30481570400297641754150390625" lon="-71.0910435207188129425048828125">
        <ele>773.20001220703125</ele>
        <time>2026-08-21T23:34:01.000Z</time>
        <extensions>
          <ns3:TrackPointExtension>
            <ns3:hr>120</ns3:hr>
            <ns3:cad>42</ns3:cad>
          </ns3:TrackPointExtension>
        </extensions>
      </trkpt>
      <trkpt lat="45.30481486581265926361083984375" lon="-71.09105047769844532012939453125">
        <ele>773.4000244140625</ele>
        <time>2026-08-21T23:34:02.000Z</time>
        <extensions>
          <ns3:TrackPointExtension>
            <ns3:hr>120</ns3:hr>
            <ns3:cad>0</ns3:cad>
          </ns3:TrackPointExtension>
        </extensions>
      </trkpt>
      <trkpt lat="45.3048127703368663787841796875" lon="-71.09105869196355342864990234375">
        <ele>773.4000244140625</ele>
        <time>2026-08-21T23:34:03.000Z</time>
        <extensions>
          <ns3:TrackPointExtension>
            <ns3:hr>120</ns3:hr>
            <ns3:cad>0</ns3:cad>
          </ns3:TrackPointExtension>
        </extensions>
      </trkpt>
      <trkpt lat="45.3048107586801052093505859375" lon="-71.091069169342517852783203125">
        <ele>773.4000244140625</ele>
        <time>2026-08-21T23:34:04.000Z</time>
        <extensions>
          <ns3:TrackPointExtension>
            <ns3:hr>120</ns3:hr>
            <ns3:cad>0</ns3:cad>
          </ns3:TrackPointExtension>
        </extensions>
      </trkpt>
      <trkpt lat="45.3048110939562320709228515625" lon="-71.09108048491179943084716796875">
        <ele>773.4000244140625</ele>
        <time>2026-08-21T23:34:05.000Z</time>
        <extensions>
          <ns3:TrackPointExtension>
            <ns3:hr>120</ns3:hr>
            <ns3:cad>0</ns3:cad>
          </ns3:TrackPointExtension>
        </extensions>
      </trkpt>
      <trkpt lat="45.304811261594295501708984375" lon="-71.091094650328159332275390625">
        <ele>773.4000244140625</ele>
        <time>2026-08-21T23:34:06.000Z</time>
        <extensions>
          <ns3:TrackPointExtension>
            <ns3:hr>120</ns3:hr>
            <ns3:cad>0</ns3:cad>
          </ns3:TrackPointExtension>
        </extensions>
      </trkpt>
      <trkpt lat="45.30481000430881977081298828125" lon="-71.09110462479293346405029296875">
        <ele>773.4000244140625</ele>
        <time>2026-08-21T23:34:07.000Z</time>
        <extensions>
          <ns3:TrackPointExtension>
            <ns3:hr>119</ns3:hr>
            <ns3:cad>0</ns3:cad>
          </ns3:TrackPointExtension>
        </extensions>
      </trkpt>
      <trkpt lat="45.30480614863336086273193359375" lon="-71.09112272970378398895263671875">
        <ele>773.4000244140625</ele>
        <time>2026-08-21T23:34:08.000Z</time>
        <extensions>
          <ns3:TrackPointExtension>
            <ns3:hr>120</ns3:hr>
            <ns3:cad>0</ns3:cad>
          </ns3:TrackPointExtension>
        </extensions>
      </trkpt>
      <trkpt lat="45.3048053942620754241943359375" lon="-71.091140918433666229248046875">
        <ele>773.4000244140625</ele>
        <time>2026-08-21T23:34:09.000Z</time>
        <extensions>
          <ns3:TrackPointExtension>
            <ns3:hr>120</ns3:hr>
            <ns3:cad>54</ns3:cad>
          </ns3:TrackPointExtension>
        </extensions>
      </trkpt>
      <trkpt lat="45.304803214967250823974609375" lon="-71.0911528207361698150634765625">
        <ele>773.5999755859375</ele>
        <time>2026-08-21T23:34:10.000Z</time>
        <extensions>
          <ns3:TrackPointExtension>
            <ns3:hr>121</ns3:hr>
            <ns3:cad>54</ns3:cad>
          </ns3:TrackPointExtension>
        </extensions>
      </trkpt>
      <trkpt lat="45.3048027120530605316162109375" lon="-71.091161705553531646728515625">
        <ele>773.5999755859375</ele>
        <time>2026-08-21T23:34:11.000Z</time>
        <extensions>
          <ns3:TrackPointExtension>
            <ns3:hr>121</ns3:hr>
            <ns3:cad>54</ns3:cad>
          </ns3:TrackPointExtension>
        </extensions>
      </trkpt>
      <trkpt lat="45.3048022091388702392578125" lon="-71.0911689139902591705322265625">
        <ele>773.79998779296875</ele>
        <time>2026-08-21T23:34:12.000Z</time>
        <extensions>
          <ns3:TrackPointExtension>
            <ns3:hr>121</ns3:hr>
            <ns3:cad>55</ns3:cad>
          </ns3:TrackPointExtension>
        </extensions>
      </trkpt>
      <trkpt lat="45.3048033826053142547607421875" lon="-71.09117721207439899444580078125">
        <ele>774.20001220703125</ele>
        <time>2026-08-21T23:34:13.000Z</time>
        <extensions>
          <ns3:TrackPointExtension>
            <ns3:hr>120</ns3:hr>
            <ns3:cad>55</ns3:cad>
          </ns3:TrackPointExtension>
        </extensions>
      </trkpt>
      <trkpt lat="45.30480480752885341644287109375" lon="-71.09119229950010776519775390625">
        <ele>774.4000244140625</ele>
        <time>2026-08-21T23:34:14.000Z</time>
        <extensions>
          <ns3:TrackPointExtension>
            <ns3:hr>121</ns3:hr>
            <ns3:cad>0</ns3:cad>
          </ns3:TrackPointExtension>
        </extensions>
      </trkpt>
      <trkpt lat="45.30480564571917057037353515625" lon="-71.09120470471680164337158203125">
        <ele>774.5999755859375</ele>
        <time>2026-08-21T23:34:15.000Z</time>
        <extensions>
          <ns3:TrackPointExtension>
            <ns3:hr>121</ns3:hr>
            <ns3:cad>0</ns3:cad>
          </ns3:TrackPointExtension>
        </extensions>
      </trkpt>
      <trkpt lat="45.3048064000904560089111328125" lon="-71.0912141762673854827880859375">
        <ele>774.79998779296875</ele>
        <time>2026-08-21T23:34:16.000Z</time>
        <extensions>
          <ns3:TrackPointExtension>
            <ns3:hr>121</ns3:hr>
            <ns3:cad>43</ns3:cad>
          </ns3:TrackPointExtension>
        </extensions>
      </trkpt>
      <trkpt lat="45.304803885519504547119140625" lon="-71.09122482128441333770751953125">
        <ele>775</ele>
        <time>2026-08-21T23:34:17.000Z</time>
        <extensions>
          <ns3:TrackPointExtension>
            <ns3:hr>121</ns3:hr>
            <ns3:cad>43</ns3:cad>
          </ns3:TrackPointExtension>
        </extensions>
      </trkpt>
      <trkpt lat="45.30480019748210906982421875" lon="-71.09123119153082370758056640625">
        <ele>775</ele>
        <time>2026-08-21T23:34:18.000Z</time>
        <extensions>
          <ns3:TrackPointExtension>
            <ns3:hr>122</ns3:hr>
            <ns3:cad>43</ns3:cad>
          </ns3:TrackPointExtension>
        </extensions>
      </trkpt>
      <trkpt lat="45.304793827235698699951171875" lon="-71.091240160167217254638671875">
        <ele>775.20001220703125</ele>
        <time>2026-08-21T23:34:19.000Z</time>
        <extensions>
          <ns3:TrackPointExtension>
            <ns3:hr>122</ns3:hr>
            <ns3:cad>43</ns3:cad>
          </ns3:TrackPointExtension>
        </extensions>
      </trkpt>
      <trkpt lat="45.304788462817668914794921875" lon="-71.0912512242794036865234375">
        <ele>775.20001220703125</ele>
        <time>2026-08-21T23:34:20.000Z</time>
        <extensions>
          <ns3:TrackPointExtension>
            <ns3:hr>122</ns3:hr>
            <ns3:cad>43</ns3:cad>
          </ns3:TrackPointExtension>
        </extensions>
      </trkpt>
      <trkpt lat="45.304787456989288330078125" lon="-71.091260947287082672119140625">
        <ele>775.4000244140625</ele>
        <time>2026-08-21T23:34:21.000Z</time>
        <extensions>
          <ns3:TrackPointExtension>
            <ns3:hr>123</ns3:hr>
            <ns3:cad>43</ns3:cad>
          </ns3:TrackPointExtension>
        </extensions>
      </trkpt>
      <trkpt lat="45.30478066764771938323974609375" lon="-71.09127175994217395782470703125">
        <ele>775.5999755859375</ele>
        <time>2026-08-21T23:34:22.000Z</time>
        <extensions>
          <ns3:TrackPointExtension>
            <ns3:hr>123</ns3:hr>
            <ns3:cad>47</ns3:cad>
          </ns3:TrackPointExtension>
        </extensions>
      </trkpt>
      <trkpt lat="45.3047728724777698516845703125" lon="-71.09128936193883419036865234375">
        <ele>775.79998779296875</ele>
        <time>2026-08-21T23:34:23.000Z</time>
        <extensions>
          <ns3:TrackPointExtension>
            <ns3:hr>123</ns3:hr>
            <ns3:cad>47</ns3:cad>
          </ns3:TrackPointExtension>
        </extensions>
      </trkpt>
      <trkpt lat="45.3047708608210086822509765625" lon="-71.091299839317798614501953125">
        <ele>775.79998779296875</ele>
        <time>2026-08-21T23:34:24.000Z</time>
        <extensions>
          <ns3:TrackPointExtension>
            <ns3:hr>123</ns3:hr>
            <ns3:cad>0</ns3:cad>
          </ns3:TrackPointExtension>
        </extensions>
      </trkpt>
      <trkpt lat="45.30476675368845462799072265625" lon="-71.09131886623799800872802734375">
        <ele>776</ele>
        <time>2026-08-21T23:34:25.000Z</time>
        <extensions>
          <ns3:TrackPointExtension>
            <ns3:hr>123</ns3:hr>
            <ns3:cad>0</ns3:cad>
          </ns3:TrackPointExtension>
        </extensions>
      </trkpt>
      <trkpt lat="45.30476205982267856597900390625" lon="-71.09133101999759674072265625">
        <ele>776</ele>
        <time>2026-08-21T23:34:26.000Z</time>
        <extensions>
          <ns3:TrackPointExtension>
            <ns3:hr>124</ns3:hr>
            <ns3:cad>0</ns3:cad>
          </ns3:TrackPointExtension>
        </extensions>
      </trkpt>
      <trkpt lat="45.30475904233753681182861328125" lon="-71.09134317375719547271728515625">
        <ele>776.20001220703125</ele>
        <time>2026-08-21T23:34:27.000Z</time>
        <extensions>
          <ns3:TrackPointExtension>
            <ns3:hr>125</ns3:hr>
            <ns3:cad>0</ns3:cad>
          </ns3:TrackPointExtension>
        </extensions>
      </trkpt>
      <trkpt lat="45.3047544322907924652099609375" lon="-71.09135289676487445831298828125">
        <ele>776.4000244140625</ele>
        <time>2026-08-21T23:34:28.000Z</time>
        <extensions>
          <ns3:TrackPointExtension>
            <ns3:hr>124</ns3:hr>
            <ns3:cad>0</ns3:cad>
          </ns3:TrackPointExtension>
        </extensions>
      </trkpt>
      <trkpt lat="45.30474781058728694915771484375" lon="-71.0913657210767269134521484375">
        <ele>776.5999755859375</ele>
        <time>2026-08-21T23:34:29.000Z</time>
        <extensions>
          <ns3:TrackPointExtension>
            <ns3:hr>123</ns3:hr>
            <ns3:cad>0</ns3:cad>
          </ns3:TrackPointExtension>
        </extensions>
      </trkpt>
      <trkpt lat="45.30473850667476654052734375" lon="-71.09137100167572498321533203125">
        <ele>776.79998779296875</ele>
        <time>2026-08-21T23:34:30.000Z</time>
        <extensions>
          <ns3:TrackPointExtension>
            <ns3:hr>123</ns3:hr>
            <ns3:cad>0</ns3:cad>
          </ns3:TrackPointExtension>
        </extensions>
      </trkpt>
      <trkpt lat="45.3047323040664196014404296875" lon="-71.091367565095424652099609375">
        <ele>776.79998779296875</ele>
        <time>2026-08-21T23:34:31.000Z</time>
        <extensions>
          <ns3:TrackPointExtension>
            <ns3:hr>123</ns3:hr>
            <ns3:cad>0</ns3:cad>
          </ns3:TrackPointExtension>
        </extensions>
      </trkpt>
      <trkpt lat="45.30472400598227977752685546875" lon="-71.0913620330393314361572265625">
        <ele>777</ele>
        <time>2026-08-21T23:34:32.000Z</time>
        <extensions>
          <ns3:TrackPointExtension>
            <ns3:hr>123</ns3:hr>
            <ns3:cad>0</ns3:cad>
          </ns3:TrackPointExtension>
        </extensions>
      </trkpt>
      <trkpt lat="45.30470766127109527587890625" lon="-71.09135775826871395111083984375">
        <ele>776.79998779296875</ele>
        <time>2026-08-21T23:34:33.000Z</time>
        <extensions>
          <ns3:TrackPointExtension>
            <ns3:hr>123</ns3:hr>
            <ns3:cad>49</ns3:cad>
          </ns3:TrackPointExtension>
        </extensions>
      </trkpt>
      <trkpt lat="45.30469785444438457489013671875" lon="-71.09135557897388935089111328125">
        <ele>776.79998779296875</ele>
        <time>2026-08-21T23:34:34.000Z</time>
        <extensions>
          <ns3:TrackPointExtension>
            <ns3:hr>124</ns3:hr>
            <ns3:cad>49</ns3:cad>
          </ns3:TrackPointExtension>
        </extensions>
      </trkpt>
      <trkpt lat="45.30468695797026157379150390625" lon="-71.091350801289081573486328125">
        <ele>776.5999755859375</ele>
        <time>2026-08-21T23:34:35.000Z</time>
        <extensions>
          <ns3:TrackPointExtension>
            <ns3:hr>124</ns3:hr>
            <ns3:cad>49</ns3:cad>
          </ns3:TrackPointExtension>
        </extensions>
      </trkpt>
      <trkpt lat="45.304676480591297149658203125" lon="-71.0913472808897495269775390625">
        <ele>776.4000244140625</ele>
        <time>2026-08-21T23:34:36.000Z</time>
        <extensions>
          <ns3:TrackPointExtension>
            <ns3:hr>125</ns3:hr>
            <ns3:cad>49</ns3:cad>
          </ns3:TrackPointExtension>
        </extensions>
      </trkpt>
      <trkpt lat="45.30466784723103046417236328125" lon="-71.09134040772914886474609375">
        <ele>776.20001220703125</ele>
        <time>2026-08-21T23:34:37.000Z</time>
        <extensions>
          <ns3:TrackPointExtension>
            <ns3:hr>125</ns3:hr>
            <ns3:cad>49</ns3:cad>
          </ns3:TrackPointExtension>
        </extensions>
      </trkpt>
      <trkpt lat="45.30465594492852687835693359375" lon="-71.09133076854050159454345703125">
        <ele>775.79998779296875</ele>
        <time>2026-08-21T23:34:38.000Z</time>
        <extensions>
          <ns3:TrackPointExtension>
            <ns3:hr>124</ns3:hr>
            <ns3:cad>49</ns3:cad>
          </ns3:TrackPointExtension>
        </extensions>
      </trkpt>
      <trkpt lat="45.3046451322734355926513671875" lon="-71.091323308646678924560546875">
        <ele>775.5999755859375</ele>
        <time>2026-08-21T23:34:39.000Z</time>
        <extensions>
          <ns3:TrackPointExtension>
            <ns3:hr>124</ns3:hr>
            <ns3:cad>49</ns3:cad>
          </ns3:TrackPointExtension>
        </extensions>
      </trkpt>
      <trkpt lat="45.3046307153999805450439453125" lon="-71.09132238663733005523681640625">
        <ele>775.5999755859375</ele>
        <time>2026-08-21T23:34:40.000Z</time>
        <extensions>
          <ns3:TrackPointExtension>
            <ns3:hr>124</ns3:hr>
            <ns3:cad>59</ns3:cad>
          </ns3:TrackPointExtension>
        </extensions>
      </trkpt>
      <trkpt lat="45.30461537651717662811279296875" lon="-71.0913331992924213409423828125">
        <ele>775.4000244140625</ele>
        <time>2026-08-21T23:34:41.000Z</time>
        <extensions>
          <ns3:TrackPointExtension>
            <ns3:hr>124</ns3:hr>
            <ns3:cad>59</ns3:cad>
          </ns3:TrackPointExtension>
        </extensions>
      </trkpt>
      <trkpt lat="45.30460774898529052734375" lon="-71.09135004691779613494873046875">
        <ele>775.4000244140625</ele>
        <time>2026-08-21T23:34:42.000Z</time>
        <extensions>
          <ns3:TrackPointExtension>
            <ns3:hr>124</ns3:hr>
            <ns3:cad>59</ns3:cad>
          </ns3:TrackPointExtension>
        </extensions>
      </trkpt>
      <trkpt lat="45.3046023845672607421875" lon="-71.09135708771646022796630859375">
        <ele>775.4000244140625</ele>
        <time>2026-08-21T23:34:43.000Z</time>
        <extensions>
          <ns3:TrackPointExtension>
            <ns3:hr>124</ns3:hr>
            <ns3:cad>59</ns3:cad>
          </ns3:TrackPointExtension>
        </extensions>
      </trkpt>
      <trkpt lat="45.30459232628345489501953125" lon="-71.09136597253382205963134765625">
        <ele>775.5999755859375</ele>
        <time>2026-08-21T23:34:44.000Z</time>
        <extensions>
          <ns3:TrackPointExtension>
            <ns3:hr>124</ns3:hr>
            <ns3:cad>59</ns3:cad>
          </ns3:TrackPointExtension>
        </extensions>
      </trkpt>
      <trkpt lat="45.30458603985607624053955078125" lon="-71.091368906199932098388671875">
        <ele>776</ele>
        <time>2026-08-21T23:34:45.000Z</time>
        <extensions>
          <ns3:TrackPointExtension>
            <ns3:hr>124</ns3:hr>
            <ns3:cad>0</ns3:cad>
          </ns3:TrackPointExtension>
        </extensions>
      </trkpt>
      <trkpt lat="45.304569862782955169677734375" lon="-71.09138038940727710723876953125">
        <ele>776.20001220703125</ele>
        <time>2026-08-21T23:34:46.000Z</time>
        <extensions>
          <ns3:TrackPointExtension>
            <ns3:hr>124</ns3:hr>
            <ns3:cad>0</ns3:cad>
          </ns3:TrackPointExtension>
        </extensions>
      </trkpt>
      <trkpt lat="45.30456189997494220733642578125" lon="-71.0913895256817340850830078125">
        <ele>776.5999755859375</ele>
        <time>2026-08-21T23:34:47.000Z</time>
        <extensions>
          <ns3:TrackPointExtension>
            <ns3:hr>124</ns3:hr>
            <ns3:cad>0</ns3:cad>
          </ns3:TrackPointExtension>
        </extensions>
      </trkpt>
      <trkpt lat="45.30455905012786388397216796875" lon="-71.09140201471745967864990234375">
        <ele>776.79998779296875</ele>
        <time>2026-08-21T23:34:48.000Z</time>
        <extensions>
          <ns3:TrackPointExtension>
            <ns3:hr>124</ns3:hr>
            <ns3:cad>0</ns3:cad>
          </ns3:TrackPointExtension>
        </extensions>
      </trkpt>
      <trkpt lat="45.30455368570983409881591796875" lon="-71.09142028726637363433837890625">
        <ele>777.20001220703125</ele>
        <time>2026-08-21T23:34:49.000Z</time>
        <extensions>
          <ns3:TrackPointExtension>
            <ns3:hr>124</ns3:hr>
            <ns3:cad>0</ns3:cad>
          </ns3:TrackPointExtension>
        </extensions>
      </trkpt>
      <trkpt lat="45.30455343425273895263671875" lon="-71.091431938111782073974609375">
        <ele>777.4000244140625</ele>
        <time>2026-08-21T23:34:50.000Z</time>
        <extensions>
          <ns3:TrackPointExtension>
            <ns3:hr>124</ns3:hr>
            <ns3:cad>0</ns3:cad>
          </ns3:TrackPointExtension>
        </extensions>
      </trkpt>
      <trkpt lat="45.3045505844056606292724609375" lon="-71.09145046211779117584228515625">
        <ele>777.4000244140625</ele>
        <time>2026-08-21T23:34:51.000Z</time>
        <extensions>
          <ns3:TrackPointExtension>
            <ns3:hr>124</ns3:hr>
            <ns3:cad>0</ns3:cad>
          </ns3:TrackPointExtension>
        </extensions>
      </trkpt>
      <trkpt lat="45.3045438788831233978271484375" lon="-71.0914679802954196929931640625">
        <ele>777.5999755859375</ele>
        <time>2026-08-21T23:34:52.000Z</time>
        <extensions>
          <ns3:TrackPointExtension>
            <ns3:hr>124</ns3:hr>
            <ns3:cad>0</ns3:cad>
          </ns3:TrackPointExtension>
        </extensions>
      </trkpt>
      <trkpt lat="45.3045452199876308441162109375" lon="-71.091481558978557586669921875">
        <ele>777.79998779296875</ele>
        <time>2026-08-21T23:34:53.000Z</time>
        <extensions>
          <ns3:TrackPointExtension>
            <ns3:hr>124</ns3:hr>
            <ns3:cad>0</ns3:cad>
          </ns3:TrackPointExtension>
        </extensions>
      </trkpt>
      <trkpt lat="45.30454345978796482086181640625" lon="-71.09150025062263011932373046875">
        <ele>778</ele>
        <time>2026-08-21T23:34:54.000Z</time>
        <extensions>
          <ns3:TrackPointExtension>
            <ns3:hr>124</ns3:hr>
            <ns3:cad>0</ns3:cad>
          </ns3:TrackPointExtension>
        </extensions>
      </trkpt>
      <trkpt lat="45.30454513616859912872314453125" lon="-71.09151952899992465972900390625">
        <ele>778</ele>
        <time>2026-08-21T23:34:55.000Z</time>
        <extensions>
          <ns3:TrackPointExtension>
            <ns3:hr>124</ns3:hr>
            <ns3:cad>0</ns3:cad>
          </ns3:TrackPointExtension>
        </extensions>
      </trkpt>
      <trkpt lat="45.30454597435891628265380859375" lon="-71.09154366888105869293212890625">
        <ele>778.20001220703125</ele>
        <time>2026-08-21T23:34:56.000Z</time>
        <extensions>
          <ns3:TrackPointExtension>
            <ns3:hr>125</ns3:hr>
            <ns3:cad>0</ns3:cad>
          </ns3:TrackPointExtension>
        </extensions>
      </trkpt>
      <trkpt lat="45.30454580672085285186767578125" lon="-71.09156160615384578704833984375">
        <ele>778.20001220703125</ele>
        <time>2026-08-21T23:34:57.000Z</time>
        <extensions>
          <ns3:TrackPointExtension>
            <ns3:hr>125</ns3:hr>
            <ns3:cad>0</ns3:cad>
          </ns3:TrackPointExtension>
        </extensions>
      </trkpt>
      <trkpt lat="45.30454731546342372894287109375" lon="-71.09158658422529697418212890625">
        <ele>778.4000244140625</ele>
        <time>2026-08-21T23:34:58.000Z</time>
        <extensions>
          <ns3:TrackPointExtension>
            <ns3:hr>125</ns3:hr>
            <ns3:cad>0</ns3:cad>
          </ns3:TrackPointExtension>
        </extensions>
      </trkpt>
      <trkpt lat="45.3045502491295337677001953125" lon="-71.09160066582262516021728515625">
        <ele>778.4000244140625</ele>
        <time>2026-08-21T23:34:59.000Z</time>
        <extensions>
          <ns3:TrackPointExtension>
            <ns3:hr>125</ns3:hr>
            <ns3:cad>0</ns3:cad>
          </ns3:TrackPointExtension>
        </extensions>
      </trkpt>
      <trkpt lat="45.304546393454074859619140625" lon="-71.0916205309331417083740234375">
        <ele>778.5999755859375</ele>
        <time>2026-08-21T23:35:00.000Z</time>
        <extensions>
          <ns3:TrackPointExtension>
            <ns3:hr>125</ns3:hr>
            <ns3:cad>0</ns3:cad>
          </ns3:TrackPointExtension>
        </extensions>
      </trkpt>
      <trkpt lat="45.304546393454074859619140625" lon="-71.0916436649858951568603515625">
        <ele>778.5999755859375</ele>
        <time>2026-08-21T23:35:01.000Z</time>
        <extensions>
          <ns3:TrackPointExtension>
            <ns3:hr>125</ns3:hr>
            <ns3:cad>52</ns3:cad>
          </ns3:TrackPointExtension>
        </extensions>
      </trkpt>
      <trkpt lat="45.3045465610921382904052734375" lon="-71.09166604466736316680908203125">
        <ele>778.5999755859375</ele>
        <time>2026-08-21T23:35:02.000Z</time>
        <extensions>
          <ns3:TrackPointExtension>
            <ns3:hr>125</ns3:hr>
            <ns3:cad>52</ns3:cad>
          </ns3:TrackPointExtension>
        </extensions>
      </trkpt>
      <trkpt lat="45.30454597435891628265380859375" lon="-71.09168549068272113800048828125">
        <ele>778.5999755859375</ele>
        <time>2026-08-21T23:35:03.000Z</time>
        <extensions>
          <ns3:TrackPointExtension>
            <ns3:hr>126</ns3:hr>
            <ns3:cad>52</ns3:cad>
          </ns3:TrackPointExtension>
        </extensions>
      </trkpt>
      <trkpt lat="45.3045445494353771209716796875" lon="-71.09170393086969852447509765625">
        <ele>778.5999755859375</ele>
        <time>2026-08-21T23:35:04.000Z</time>
        <extensions>
          <ns3:TrackPointExtension>
            <ns3:hr>126</ns3:hr>
            <ns3:cad>52</ns3:cad>
          </ns3:TrackPointExtension>
        </extensions>
      </trkpt>
      <trkpt lat="45.3045432083308696746826171875" lon="-71.09172186814248561859130859375">
        <ele>778.79998779296875</ele>
        <time>2026-08-21T23:35:05.000Z</time>
        <extensions>
          <ns3:TrackPointExtension>
            <ns3:hr>126</ns3:hr>
            <ns3:cad>52</ns3:cad>
          </ns3:TrackPointExtension>
        </extensions>
      </trkpt>
      <trkpt lat="45.30454002320766448974609375" lon="-71.09173871576786041259765625">
        <ele>778.79998779296875</ele>
        <time>2026-08-21T23:35:06.000Z</time>
        <extensions>
          <ns3:TrackPointExtension>
            <ns3:hr>126</ns3:hr>
            <ns3:cad>54</ns3:cad>
          </ns3:TrackPointExtension>
        </extensions>
      </trkpt>
      <trkpt lat="45.304538346827030181884765625" lon="-71.09175522811710834503173828125">
        <ele>779</ele>
        <time>2026-08-21T23:35:07.000Z</time>
        <extensions>
          <ns3:TrackPointExtension>
            <ns3:hr>126</ns3:hr>
            <ns3:cad>54</ns3:cad>
          </ns3:TrackPointExtension>
        </extensions>
      </trkpt>
      <trkpt lat="45.30454002320766448974609375" lon="-71.09177090227603912353515625">
        <ele>779</ele>
        <time>2026-08-21T23:35:08.000Z</time>
        <extensions>
          <ns3:TrackPointExtension>
            <ns3:hr>127</ns3:hr>
            <ns3:cad>54</ns3:cad>
          </ns3:TrackPointExtension>
        </extensions>
      </trkpt>
      <trkpt lat="45.3045371733605861663818359375" lon="-71.0917796194553375244140625">
        <ele>779.20001220703125</ele>
        <time>2026-08-21T23:35:09.000Z</time>
        <extensions>
          <ns3:TrackPointExtension>
            <ns3:hr>126</ns3:hr>
            <ns3:cad>51</ns3:cad>
          </ns3:TrackPointExtension>
        </extensions>
      </trkpt>
      <trkpt lat="45.3045334853231906890869140625" lon="-71.091788001358509063720703125">
        <ele>779.4000244140625</ele>
        <time>2026-08-21T23:35:10.000Z</time>
        <extensions>
          <ns3:TrackPointExtension>
            <ns3:hr>126</ns3:hr>
            <ns3:cad>51</ns3:cad>
          </ns3:TrackPointExtension>
        </extensions>
      </trkpt>
      <trkpt lat="45.30453071929514408111572265625" lon="-71.09179437160491943359375">
        <ele>779.4000244140625</ele>
        <time>2026-08-21T23:35:11.000Z</time>
        <extensions>
          <ns3:TrackPointExtension>
            <ns3:hr>127</ns3:hr>
            <ns3:cad>49</ns3:cad>
          </ns3:TrackPointExtension>
        </extensions>
      </trkpt>
      <trkpt lat="45.3045232594013214111328125" lon="-71.09180711209774017333984375">
        <ele>779.5999755859375</ele>
        <time>2026-08-21T23:35:12.000Z</time>
        <extensions>
          <ns3:TrackPointExtension>
            <ns3:hr>126</ns3:hr>
            <ns3:cad>49</ns3:cad>
          </ns3:TrackPointExtension>
        </extensions>
      </trkpt>
      <trkpt lat="45.3045178949832916259765625" lon="-71.0918144881725311279296875">
        <ele>779.79998779296875</ele>
        <time>2026-08-21T23:35:13.000Z</time>
        <extensions>
          <ns3:TrackPointExtension>
            <ns3:hr>126</ns3:hr>
            <ns3:cad>49</ns3:cad>
          </ns3:TrackPointExtension>
        </extensions>
      </trkpt>
      <trkpt lat="45.3045100159943103790283203125" lon="-71.0918210260570049285888671875">
        <ele>780</ele>
        <time>2026-08-21T23:35:14.000Z</time>
        <extensions>
          <ns3:TrackPointExtension>
            <ns3:hr>127</ns3:hr>
            <ns3:cad>47</ns3:cad>
          </ns3:TrackPointExtension>
        </extensions>
      </trkpt>
      <trkpt lat="45.30450523830950260162353515625" lon="-71.09182647429406642913818359375">
        <ele>780.20001220703125</ele>
        <time>2026-08-21T23:35:15.000Z</time>
        <extensions>
          <ns3:TrackPointExtension>
            <ns3:hr>126</ns3:hr>
            <ns3:cad>47</ns3:cad>
          </ns3:TrackPointExtension>
        </extensions>
      </trkpt>
      <trkpt lat="45.30449903570115566253662109375" lon="-71.09183418564498424530029296875">
        <ele>780.5999755859375</ele>
        <time>2026-08-21T23:35:16.000Z</time>
        <extensions>
          <ns3:TrackPointExtension>
            <ns3:hr>126</ns3:hr>
            <ns3:cad>0</ns3:cad>
          </ns3:TrackPointExtension>
        </extensions>
      </trkpt>
      <trkpt lat="45.3044888935983180999755859375" lon="-71.0918478481471538543701171875">
        <ele>780.79998779296875</ele>
        <time>2026-08-21T23:35:17.000Z</time>
        <extensions>
          <ns3:TrackPointExtension>
            <ns3:hr>126</ns3:hr>
            <ns3:cad>0</ns3:cad>
          </ns3:TrackPointExtension>
        </extensions>
      </trkpt>
      <trkpt lat="45.3044830262660980224609375" lon="-71.09185405075550079345703125">
        <ele>781</ele>
        <time>2026-08-21T23:35:18.000Z</time>
        <extensions>
          <ns3:TrackPointExtension>
            <ns3:hr>127</ns3:hr>
            <ns3:cad>0</ns3:cad>
          </ns3:TrackPointExtension>
        </extensions>
      </trkpt>
      <trkpt lat="45.30447430908679962158203125" lon="-71.09186285175383090972900390625">
        <ele>781.20001220703125</ele>
        <time>2026-08-21T23:35:19.000Z</time>
        <extensions>
          <ns3:TrackPointExtension>
            <ns3:hr>127</ns3:hr>
            <ns3:cad>0</ns3:cad>
          </ns3:TrackPointExtension>
        </extensions>
      </trkpt>
      <trkpt lat="45.30447137542068958282470703125" lon="-71.091869808733463287353515625">
        <ele>781.4000244140625</ele>
        <time>2026-08-21T23:35:20.000Z</time>
        <extensions>
          <ns3:TrackPointExtension>
            <ns3:hr>127</ns3:hr>
            <ns3:cad>0</ns3:cad>
          </ns3:TrackPointExtension>
        </extensions>
      </trkpt>
      <trkpt lat="45.304463244974613189697265625" lon="-71.0918837226927280426025390625">
        <ele>781.5999755859375</ele>
        <time>2026-08-21T23:35:21.000Z</time>
        <extensions>
          <ns3:TrackPointExtension>
            <ns3:hr>127</ns3:hr>
            <ns3:cad>0</ns3:cad>
          </ns3:TrackPointExtension>
        </extensions>
      </trkpt>
      <trkpt lat="45.30445461161434650421142578125" lon="-71.09189537353813648223876953125">
        <ele>781.5999755859375</ele>
        <time>2026-08-21T23:35:22.000Z</time>
        <extensions>
          <ns3:TrackPointExtension>
            <ns3:hr>127</ns3:hr>
            <ns3:cad>0</ns3:cad>
          </ns3:TrackPointExtension>
        </extensions>
      </trkpt>
      <trkpt lat="45.3044486604630947113037109375" lon="-71.09190425835549831390380859375">
        <ele>781.79998779296875</ele>
        <time>2026-08-21T23:35:23.000Z</time>
        <extensions>
          <ns3:TrackPointExtension>
            <ns3:hr>127</ns3:hr>
            <ns3:cad>0</ns3:cad>
          </ns3:TrackPointExtension>
        </extensions>
      </trkpt>
      <trkpt lat="45.30444346368312835693359375" lon="-71.09191574156284332275390625">
        <ele>782</ele>
        <time>2026-08-21T23:35:24.000Z</time>
        <extensions>
          <ns3:TrackPointExtension>
            <ns3:hr>127</ns3:hr>
            <ns3:cad>0</ns3:cad>
          </ns3:TrackPointExtension>
        </extensions>
      </trkpt>
      <trkpt lat="45.3044382669031620025634765625" lon="-71.09192370437085628509521484375">
        <ele>782.20001220703125</ele>
        <time>2026-08-21T23:35:25.000Z</time>
        <extensions>
          <ns3:TrackPointExtension>
            <ns3:hr>129</ns3:hr>
            <ns3:cad>0</ns3:cad>
          </ns3:TrackPointExtension>
        </extensions>
      </trkpt>
      <trkpt lat="45.30443181283771991729736328125" lon="-71.0919279791414737701416015625">
        <ele>782.4000244140625</ele>
        <time>2026-08-21T23:35:26.000Z</time>
        <extensions>
          <ns3:TrackPointExtension>
            <ns3:hr>129</ns3:hr>
            <ns3:cad>0</ns3:cad>
          </ns3:TrackPointExtension>
        </extensions>
      </trkpt>
      <trkpt lat="45.30442393384873867034912109375" lon="-71.0919346846640110015869140625">
        <ele>782.5999755859375</ele>
        <time>2026-08-21T23:35:27.000Z</time>
        <extensions>
          <ns3:TrackPointExtension>
            <ns3:hr>130</ns3:hr>
            <ns3:cad>0</ns3:cad>
          </ns3:TrackPointExtension>
        </extensions>
      </trkpt>
      <trkpt lat="45.3044204972684383392333984375" lon="-71.09194080345332622528076171875">
        <ele>782.79998779296875</ele>
        <time>2026-08-21T23:35:28.000Z</time>
        <extensions>
          <ns3:TrackPointExtension>
            <ns3:hr>131</ns3:hr>
            <ns3:cad>0</ns3:cad>
          </ns3:TrackPointExtension>
        </extensions>
      </trkpt>
      <trkpt lat="45.30441119335591793060302734375" lon="-71.091953627765178680419921875">
        <ele>783</ele>
        <time>2026-08-21T23:35:29.000Z</time>
        <extensions>
          <ns3:TrackPointExtension>
            <ns3:hr>132</ns3:hr>
            <ns3:cad>0</ns3:cad>
          </ns3:TrackPointExtension>
        </extensions>
      </trkpt>
      <trkpt lat="45.30440214090049266815185546875" lon="-71.09196745790541172027587890625">
        <ele>783.20001220703125</ele>
        <time>2026-08-21T23:35:30.000Z</time>
        <extensions>
          <ns3:TrackPointExtension>
            <ns3:hr>133</ns3:hr>
            <ns3:cad>46</ns3:cad>
          </ns3:TrackPointExtension>
        </extensions>
      </trkpt>
      <trkpt lat="45.30439543537795543670654296875" lon="-71.0919749177992343902587890625">
        <ele>783.4000244140625</ele>
        <time>2026-08-21T23:35:31.000Z</time>
        <extensions>
          <ns3:TrackPointExtension>
            <ns3:hr>133</ns3:hr>
            <ns3:cad>46</ns3:cad>
          </ns3:TrackPointExtension>
        </extensions>
      </trkpt>
      <trkpt lat="45.3043889813125133514404296875" lon="-71.09197651036083698272705078125">
        <ele>783.79998779296875</ele>
        <time>2026-08-21T23:35:32.000Z</time>
        <extensions>
          <ns3:TrackPointExtension>
            <ns3:hr>133</ns3:hr>
            <ns3:cad>46</ns3:cad>
          </ns3:TrackPointExtension>
        </extensions>
      </trkpt>
      <trkpt lat="45.304381437599658966064453125" lon="-71.091977097094058990478515625">
        <ele>784</ele>
        <time>2026-08-21T23:35:33.000Z</time>
        <extensions>
          <ns3:TrackPointExtension>
            <ns3:hr>133</ns3:hr>
            <ns3:cad>43</ns3:cad>
          </ns3:TrackPointExtension>
        </extensions>
      </trkpt>
      <trkpt lat="45.3043816052377223968505859375" lon="-71.0919752530753612518310546875">
        <ele>784.20001220703125</ele>
        <time>2026-08-21T23:35:34.000Z</time>
        <extensions>
          <ns3:TrackPointExtension>
            <ns3:hr>132</ns3:hr>
            <ns3:cad>43</ns3:cad>
          </ns3:TrackPointExtension>
        </extensions>
      </trkpt>
      <trkpt lat="45.3043738938868045806884765625" lon="-71.09197416342794895172119140625">
        <ele>784.4000244140625</ele>
        <time>2026-08-21T23:35:35.000Z</time>
        <extensions>
          <ns3:TrackPointExtension>
            <ns3:hr>132</ns3:hr>
            <ns3:cad>43</ns3:cad>
          </ns3:TrackPointExtension>
        </extensions>
      </trkpt>
      <trkpt lat="45.30437012203037738800048828125" lon="-71.0919749177992343902587890625">
        <ele>784.5999755859375</ele>
        <time>2026-08-21T23:35:36.000Z</time>
        <extensions>
          <ns3:TrackPointExtension>
            <ns3:hr>132</ns3:hr>
            <ns3:cad>43</ns3:cad>
          </ns3:TrackPointExtension>
        </extensions>
      </trkpt>
      <trkpt lat="45.30436567962169647216796875" lon="-71.091978438198566436767578125">
        <ele>785</ele>
        <time>2026-08-21T23:35:37.000Z</time>
        <extensions>
          <ns3:TrackPointExtension>
            <ns3:hr>132</ns3:hr>
            <ns3:cad>0</ns3:cad>
          </ns3:TrackPointExtension>
        </extensions>
      </trkpt>
      <trkpt lat="45.30436391942203044891357421875" lon="-71.091979779303073883056640625">
        <ele>785.20001220703125</ele>
        <time>2026-08-21T23:35:38.000Z</time>
        <extensions>
          <ns3:TrackPointExtension>
            <ns3:hr>132</ns3:hr>
            <ns3:cad>0</ns3:cad>
          </ns3:TrackPointExtension>
        </extensions>
      </trkpt>
      <trkpt lat="45.3043588064610958099365234375" lon="-71.09198422171175479888916015625">
        <ele>785.4000244140625</ele>
        <time>2026-08-21T23:35:39.000Z</time>
        <extensions>
          <ns3:TrackPointExtension>
            <ns3:hr>131</ns3:hr>
            <ns3:cad>0</ns3:cad>
          </ns3:TrackPointExtension>
        </extensions>
      </trkpt>
      <trkpt lat="45.3043500892817974090576171875" lon="-71.09198682010173797607421875">
        <ele>785.5999755859375</ele>
        <time>2026-08-21T23:35:40.000Z</time>
        <extensions>
          <ns3:TrackPointExtension>
            <ns3:hr>131</ns3:hr>
            <ns3:cad>0</ns3:cad>
          </ns3:TrackPointExtension>
        </extensions>
      </trkpt>
      <trkpt lat="45.304343886673450469970703125" lon="-71.091989167034626007080078125">
        <ele>786</ele>
        <time>2026-08-21T23:35:41.000Z</time>
        <extensions>
          <ns3:TrackPointExtension>
            <ns3:hr>131</ns3:hr>
            <ns3:cad>0</ns3:cad>
          </ns3:TrackPointExtension>
        </extensions>
      </trkpt>
      <trkpt lat="45.30433692969381809234619140625" lon="-71.09198673628270626068115234375">
        <ele>786.20001220703125</ele>
        <time>2026-08-21T23:35:42.000Z</time>
        <extensions>
          <ns3:TrackPointExtension>
            <ns3:hr>131</ns3:hr>
            <ns3:cad>0</ns3:cad>
          </ns3:TrackPointExtension>
        </extensions>
      </trkpt>
      <trkpt lat="45.304336510598659515380859375" lon="-71.0919863171875476837158203125">
        <ele>786.4000244140625</ele>
        <time>2026-08-21T23:35:43.000Z</time>
        <extensions>
          <ns3:TrackPointExtension>
            <ns3:hr>132</ns3:hr>
            <ns3:cad>0</ns3:cad>
          </ns3:TrackPointExtension>
        </extensions>
      </trkpt>
      <trkpt lat="45.30433349311351776123046875" lon="-71.0919879935681819915771484375">
        <ele>786.5999755859375</ele>
        <time>2026-08-21T23:35:44.000Z</time>
        <extensions>
          <ns3:TrackPointExtension>
            <ns3:hr>132</ns3:hr>
            <ns3:cad>0</ns3:cad>
          </ns3:TrackPointExtension>
        </extensions>
      </trkpt>
      <trkpt lat="45.30432184226810932159423828125" lon="-71.09199193306267261505126953125">
        <ele>786.79998779296875</ele>
        <time>2026-08-21T23:35:45.000Z</time>
        <extensions>
          <ns3:TrackPointExtension>
            <ns3:hr>132</ns3:hr>
            <ns3:cad>0</ns3:cad>
          </ns3:TrackPointExtension>
        </extensions>
      </trkpt>
      <trkpt lat="45.30431429855525493621826171875" lon="-71.091996543109416961669921875">
        <ele>787</ele>
        <time>2026-08-21T23:35:46.000Z</time>
        <extensions>
          <ns3:TrackPointExtension>
            <ns3:hr>132</ns3:hr>
            <ns3:cad>0</ns3:cad>
          </ns3:TrackPointExtension>
        </extensions>
      </trkpt>
      <trkpt lat="45.30430541373789310455322265625" lon="-71.09199796803295612335205078125">
        <ele>787.20001220703125</ele>
        <time>2026-08-21T23:35:47.000Z</time>
        <extensions>
          <ns3:TrackPointExtension>
            <ns3:hr>132</ns3:hr>
            <ns3:cad>0</ns3:cad>
          </ns3:TrackPointExtension>
        </extensions>
      </trkpt>
      <trkpt lat="45.30430424027144908905029296875" lon="-71.0920007340610027313232421875">
        <ele>787.5999755859375</ele>
        <time>2026-08-21T23:35:48.000Z</time>
        <extensions>
          <ns3:TrackPointExtension>
            <ns3:hr>133</ns3:hr>
            <ns3:cad>0</ns3:cad>
          </ns3:TrackPointExtension>
        </extensions>
      </trkpt>
      <trkpt lat="45.30429502017796039581298828125" lon="-71.09200836159288883209228515625">
        <ele>787.79998779296875</ele>
        <time>2026-08-21T23:35:49.000Z</time>
        <extensions>
          <ns3:TrackPointExtension>
            <ns3:hr>133</ns3:hr>
            <ns3:cad>0</ns3:cad>
          </ns3:TrackPointExtension>
        </extensions>
      </trkpt>
      <trkpt lat="45.3042873926460742950439453125" lon="-71.0920124687254428863525390625">
        <ele>788</ele>
        <time>2026-08-21T23:35:50.000Z</time>
        <extensions>
          <ns3:TrackPointExtension>
            <ns3:hr>133</ns3:hr>
            <ns3:cad>0</ns3:cad>
          </ns3:TrackPointExtension>
        </extensions>
      </trkpt>
      <trkpt lat="45.30428244732320308685302734375" lon="-71.092012636363506317138671875">
        <ele>788.20001220703125</ele>
        <time>2026-08-21T23:35:51.000Z</time>
        <extensions>
          <ns3:TrackPointExtension>
            <ns3:hr>134</ns3:hr>
            <ns3:cad>0</ns3:cad>
          </ns3:TrackPointExtension>
        </extensions>
      </trkpt>
      <trkpt lat="45.304280184209346771240234375" lon="-71.09201322309672832489013671875">
        <ele>788.5999755859375</ele>
        <time>2026-08-21T23:35:52.000Z</time>
        <extensions>
          <ns3:TrackPointExtension>
            <ns3:hr>134</ns3:hr>
            <ns3:cad>0</ns3:cad>
          </ns3:TrackPointExtension>
        </extensions>
      </trkpt>
      <trkpt lat="45.30427641235291957855224609375" lon="-71.09200970269739627838134765625">
        <ele>788.79998779296875</ele>
        <time>2026-08-21T23:35:53.000Z</time>
        <extensions>
          <ns3:TrackPointExtension>
            <ns3:hr>134</ns3:hr>
            <ns3:cad>0</ns3:cad>
          </ns3:TrackPointExtension>
        </extensions>
      </trkpt>
      <trkpt lat="45.3042749874293804168701171875" lon="-71.092006601393222808837890625">
        <ele>789</ele>
        <time>2026-08-21T23:35:54.000Z</time>
        <extensions>
          <ns3:TrackPointExtension>
            <ns3:hr>134</ns3:hr>
            <ns3:cad>0</ns3:cad>
          </ns3:TrackPointExtension>
        </extensions>
      </trkpt>
      <trkpt lat="45.30426451005041599273681640625" lon="-71.09201087616384029388427734375">
        <ele>789.20001220703125</ele>
        <time>2026-08-21T23:35:55.000Z</time>
        <extensions>
          <ns3:TrackPointExtension>
            <ns3:hr>135</ns3:hr>
            <ns3:cad>0</ns3:cad>
          </ns3:TrackPointExtension>
        </extensions>
      </trkpt>
      <trkpt lat="45.3042578883469104766845703125" lon="-71.09201137907803058624267578125">
        <ele>789.5999755859375</ele>
        <time>2026-08-21T23:35:56.000Z</time>
        <extensions>
          <ns3:TrackPointExtension>
            <ns3:hr>135</ns3:hr>
            <ns3:cad>79</ns3:cad>
          </ns3:TrackPointExtension>
        </extensions>
      </trkpt>
      <trkpt lat="45.30425277538597583770751953125" lon="-71.09200534410774707794189453125">
        <ele>789.79998779296875</ele>
        <time>2026-08-21T23:35:57.000Z</time>
        <extensions>
          <ns3:TrackPointExtension>
            <ns3:hr>135</ns3:hr>
            <ns3:cad>0</ns3:cad>
          </ns3:TrackPointExtension>
        </extensions>
      </trkpt>
      <trkpt lat="45.30425009317696094512939453125" lon="-71.0920035839080810546875">
        <ele>790</ele>
        <time>2026-08-21T23:35:58.000Z</time>
        <extensions>
          <ns3:TrackPointExtension>
            <ns3:hr>135</ns3:hr>
            <ns3:cad>0</ns3:cad>
          </ns3:TrackPointExtension>
        </extensions>
      </trkpt>
      <trkpt lat="45.304239951074123382568359375" lon="-71.0919987224042415618896484375">
        <ele>790.4000244140625</ele>
        <time>2026-08-21T23:35:59.000Z</time>
        <extensions>
          <ns3:TrackPointExtension>
            <ns3:hr>134</ns3:hr>
            <ns3:cad>18</ns3:cad>
          </ns3:TrackPointExtension>
        </extensions>
      </trkpt>
      <trkpt lat="45.3042357601225376129150390625" lon="-71.09199629165232181549072265625">
        <ele>790.5999755859375</ele>
        <time>2026-08-21T23:36:00.000Z</time>
        <extensions>
          <ns3:TrackPointExtension>
            <ns3:hr>135</ns3:hr>
            <ns3:cad>18</ns3:cad>
          </ns3:TrackPointExtension>
        </extensions>
      </trkpt>
      <trkpt lat="45.30423559248447418212890625" lon="-71.0919926874339580535888671875">
        <ele>790.79998779296875</ele>
        <time>2026-08-21T23:36:01.000Z</time>
        <extensions>
          <ns3:TrackPointExtension>
            <ns3:hr>135</ns3:hr>
            <ns3:cad>18</ns3:cad>
          </ns3:TrackPointExtension>
        </extensions>
      </trkpt>
      <trkpt lat="45.3042324073612689971923828125" lon="-71.09198547899723052978515625">
        <ele>791.20001220703125</ele>
        <time>2026-08-21T23:36:02.000Z</time>
        <extensions>
          <ns3:TrackPointExtension>
            <ns3:hr>135</ns3:hr>
            <ns3:cad>18</ns3:cad>
          </ns3:TrackPointExtension>
        </extensions>
      </trkpt>
      <trkpt lat="45.30423022806644439697265625" lon="-71.0919829644262790679931640625">
        <ele>791.4000244140625</ele>
        <time>2026-08-21T23:36:03.000Z</time>
        <extensions>
          <ns3:TrackPointExtension>
            <ns3:hr>136</ns3:hr>
            <ns3:cad>0</ns3:cad>
          </ns3:TrackPointExtension>
        </extensions>
      </trkpt>
      <trkpt lat="45.30422461219131946563720703125" lon="-71.09197600744664669036865234375">
        <ele>791.79998779296875</ele>
        <time>2026-08-21T23:36:04.000Z</time>
        <extensions>
          <ns3:TrackPointExtension>
            <ns3:hr>137</ns3:hr>
            <ns3:cad>0</ns3:cad>
          </ns3:TrackPointExtension>
        </extensions>
      </trkpt>
      <trkpt lat="45.30421824194490909576416015625" lon="-71.09197047539055347442626953125">
        <ele>792</ele>
        <time>2026-08-21T23:36:05.000Z</time>
        <extensions>
          <ns3:TrackPointExtension>
            <ns3:hr>137</ns3:hr>
            <ns3:cad>0</ns3:cad>
          </ns3:TrackPointExtension>
        </extensions>
      </trkpt>
      <trkpt lat="45.30420449562370777130126953125" lon="-71.0919615067541599273681640625">
        <ele>792.20001220703125</ele>
        <time>2026-08-21T23:36:06.000Z</time>
        <extensions>
          <ns3:TrackPointExtension>
            <ns3:hr>137</ns3:hr>
            <ns3:cad>0</ns3:cad>
          </ns3:TrackPointExtension>
        </extensions>
      </trkpt>
      <trkpt lat="45.30419041402637958526611328125" lon="-71.09196058474481105804443359375">
        <ele>792.20001220703125</ele>
        <time>2026-08-21T23:36:07.000Z</time>
        <extensions>
          <ns3:TrackPointExtension>
            <ns3:hr>136</ns3:hr>
            <ns3:cad>0</ns3:cad>
          </ns3:TrackPointExtension>
        </extensions>
      </trkpt>
      <trkpt lat="45.304181613028049468994140625" lon="-71.09195874072611331939697265625">
        <ele>792.4000244140625</ele>
        <time>2026-08-21T23:36:08.000Z</time>
        <extensions>
          <ns3:TrackPointExtension>
            <ns3:hr>137</ns3:hr>
            <ns3:cad>0</ns3:cad>
          </ns3:TrackPointExtension>
        </extensions>
      </trkpt>
      <trkpt lat="45.3041760809719562530517578125" lon="-71.09195304103195667266845703125">
        <ele>792.4000244140625</ele>
        <time>2026-08-21T23:36:09.000Z</time>
        <extensions>
          <ns3:TrackPointExtension>
            <ns3:hr>137</ns3:hr>
            <ns3:cad>0</ns3:cad>
          </ns3:TrackPointExtension>
        </extensions>
      </trkpt>
      <trkpt lat="45.30416443012654781341552734375" lon="-71.09194784425199031829833984375">
        <ele>792.5999755859375</ele>
        <time>2026-08-21T23:36:10.000Z</time>
        <extensions>
          <ns3:TrackPointExtension>
            <ns3:hr>137</ns3:hr>
            <ns3:cad>44</ns3:cad>
          </ns3:TrackPointExtension>
        </extensions>
      </trkpt>
      <trkpt lat="45.30415202490985393524169921875" lon="-71.0919437371194362640380859375">
        <ele>792.79998779296875</ele>
        <time>2026-08-21T23:36:11.000Z</time>
        <extensions>
          <ns3:TrackPointExtension>
            <ns3:hr>138</ns3:hr>
            <ns3:cad>44</ns3:cad>
          </ns3:TrackPointExtension>
        </extensions>
      </trkpt>
      <trkpt lat="45.304146073758602142333984375" lon="-71.09193929471075534820556640625">
        <ele>793</ele>
        <time>2026-08-21T23:36:12.000Z</time>
        <extensions>
          <ns3:TrackPointExtension>
            <ns3:hr>138</ns3:hr>
            <ns3:cad>44</ns3:cad>
          </ns3:TrackPointExtension>
        </extensions>
      </trkpt>
      <trkpt lat="45.30413559637963771820068359375" lon="-71.09193694777786731719970703125">
        <ele>793.20001220703125</ele>
        <time>2026-08-21T23:36:13.000Z</time>
        <extensions>
          <ns3:TrackPointExtension>
            <ns3:hr>138</ns3:hr>
            <ns3:cad>47</ns3:cad>
          </ns3:TrackPointExtension>
        </extensions>
      </trkpt>
      <trkpt lat="45.30412101186811923980712890625" lon="-71.0919350199401378631591796875">
        <ele>793.4000244140625</ele>
        <time>2026-08-21T23:36:14.000Z</time>
        <extensions>
          <ns3:TrackPointExtension>
            <ns3:hr>139</ns3:hr>
            <ns3:cad>47</ns3:cad>
          </ns3:TrackPointExtension>
        </extensions>
      </trkpt>
      <trkpt lat="45.304113887250423431396484375" lon="-71.0919293202459812164306640625">
        <ele>793.5999755859375</ele>
        <time>2026-08-21T23:36:15.000Z</time>
        <extensions>
          <ns3:TrackPointExtension>
            <ns3:hr>139</ns3:hr>
            <ns3:cad>47</ns3:cad>
          </ns3:TrackPointExtension>
        </extensions>
      </trkpt>
      <trkpt lat="45.3041026555001735687255859375" lon="-71.09192051924765110015869140625">
        <ele>793.5999755859375</ele>
        <time>2026-08-21T23:36:16.000Z</time>
        <extensions>
          <ns3:TrackPointExtension>
            <ns3:hr>140</ns3:hr>
            <ns3:cad>0</ns3:cad>
          </ns3:TrackPointExtension>
        </extensions>
      </trkpt>
      <trkpt lat="45.3040875680744647979736328125" lon="-71.09191314317286014556884765625">
        <ele>793.5999755859375</ele>
        <time>2026-08-21T23:36:17.000Z</time>
        <extensions>
          <ns3:TrackPointExtension>
            <ns3:hr>141</ns3:hr>
            <ns3:cad>0</ns3:cad>
          </ns3:TrackPointExtension>
        </extensions>
      </trkpt>
      <trkpt lat="45.3040754981338977813720703125" lon="-71.0919098742306232452392578125">
        <ele>793.5999755859375</ele>
        <time>2026-08-21T23:36:18.000Z</time>
        <extensions>
          <ns3:TrackPointExtension>
            <ns3:hr>141</ns3:hr>
            <ns3:cad>0</ns3:cad>
          </ns3:TrackPointExtension>
        </extensions>
      </trkpt>
      <trkpt lat="45.304060243070125579833984375" lon="-71.09191440045833587646484375">
        <ele>793.5999755859375</ele>
        <time>2026-08-21T23:36:19.000Z</time>
        <extensions>
          <ns3:TrackPointExtension>
            <ns3:hr>142</ns3:hr>
            <ns3:cad>0</ns3:cad>
          </ns3:TrackPointExtension>
        </extensions>
      </trkpt>
      <trkpt lat="45.3040426410734653472900390625" lon="-71.0919246263802051544189453125">
        <ele>793.5999755859375</ele>
        <time>2026-08-21T23:36:20.000Z</time>
        <extensions>
          <ns3:TrackPointExtension>
            <ns3:hr>142</ns3:hr>
            <ns3:cad>0</ns3:cad>
          </ns3:TrackPointExtension>
        </extensions>
      </trkpt>
      <trkpt lat="45.304027386009693145751953125" lon="-71.09193325974047183990478515625">
        <ele>793.5999755859375</ele>
        <time>2026-08-21T23:36:21.000Z</time>
        <extensions>
          <ns3:TrackPointExtension>
            <ns3:hr>142</ns3:hr>
            <ns3:cad>0</ns3:cad>
          </ns3:TrackPointExtension>
        </extensions>
      </trkpt>
      <trkpt lat="45.304010622203350067138671875" lon="-71.091942228376865386962890625">
        <ele>793.5999755859375</ele>
        <time>2026-08-21T23:36:22.000Z</time>
        <extensions>
          <ns3:TrackPointExtension>
            <ns3:hr>142</ns3:hr>
            <ns3:cad>0</ns3:cad>
          </ns3:TrackPointExtension>
        </extensions>
      </trkpt>
      <trkpt lat="45.30400198884308338165283203125" lon="-71.09196125529706478118896484375">
        <ele>793.5999755859375</ele>
        <time>2026-08-21T23:36:23.000Z</time>
        <extensions>
          <ns3:TrackPointExtension>
            <ns3:hr>142</ns3:hr>
            <ns3:cad>0</ns3:cad>
          </ns3:TrackPointExtension>
        </extensions>
      </trkpt>
      <trkpt lat="45.303998552262783050537109375" lon="-71.09197902493178844451904296875">
        <ele>793.4000244140625</ele>
        <time>2026-08-21T23:36:24.000Z</time>
        <extensions>
          <ns3:TrackPointExtension>
            <ns3:hr>142</ns3:hr>
            <ns3:cad>0</ns3:cad>
          </ns3:TrackPointExtension>
        </extensions>
      </trkpt>
      <trkpt lat="45.30399092473089694976806640625" lon="-71.0919953696429729461669921875">
        <ele>793.4000244140625</ele>
        <time>2026-08-21T23:36:25.000Z</time>
        <extensions>
          <ns3:TrackPointExtension>
            <ns3:hr>142</ns3:hr>
            <ns3:cad>0</ns3:cad>
          </ns3:TrackPointExtension>
        </extensions>
      </trkpt>
      <trkpt lat="45.30398673377931118011474609375" lon="-71.092016994953155517578125">
        <ele>793.5999755859375</ele>
        <time>2026-08-21T23:36:26.000Z</time>
        <extensions>
          <ns3:TrackPointExtension>
            <ns3:hr>142</ns3:hr>
            <ns3:cad>0</ns3:cad>
          </ns3:TrackPointExtension>
        </extensions>
      </trkpt>
      <trkpt lat="45.30398480594158172607421875" lon="-71.09202395193278789520263671875">
        <ele>793.5999755859375</ele>
        <time>2026-08-21T23:36:27.000Z</time>
        <extensions>
          <ns3:TrackPointExtension>
            <ns3:hr>141</ns3:hr>
            <ns3:cad>58</ns3:cad>
          </ns3:TrackPointExtension>
        </extensions>
      </trkpt>
      <trkpt lat="45.30398388393223285675048828125" lon="-71.09204021282494068145751953125">
        <ele>793.79998779296875</ele>
        <time>2026-08-21T23:36:28.000Z</time>
        <extensions>
          <ns3:TrackPointExtension>
            <ns3:hr>142</ns3:hr>
            <ns3:cad>58</ns3:cad>
          </ns3:TrackPointExtension>
        </extensions>
      </trkpt>
      <trkpt lat="45.30397944152355194091796875" lon="-71.092062257230281829833984375">
        <ele>793.79998779296875</ele>
        <time>2026-08-21T23:36:29.000Z</time>
        <extensions>
          <ns3:TrackPointExtension>
            <ns3:hr>142</ns3:hr>
            <ns3:cad>55</ns3:cad>
          </ns3:TrackPointExtension>
        </extensions>
      </trkpt>
      <trkpt lat="45.30397516675293445587158203125" lon="-71.09207524918019771575927734375">
        <ele>794</ele>
        <time>2026-08-21T23:36:30.000Z</time>
        <extensions>
          <ns3:TrackPointExtension>
            <ns3:hr>143</ns3:hr>
            <ns3:cad>54</ns3:cad>
          </ns3:TrackPointExtension>
        </extensions>
      </trkpt>
      <trkpt lat="45.30397474765777587890625" lon="-71.09208966605365276336669921875">
        <ele>794.20001220703125</ele>
        <time>2026-08-21T23:36:31.000Z</time>
        <extensions>
          <ns3:TrackPointExtension>
            <ns3:hr>144</ns3:hr>
            <ns3:cad>54</ns3:cad>
          </ns3:TrackPointExtension>
        </extensions>
      </trkpt>
      <trkpt lat="45.3039715625345706939697265625" lon="-71.09211430884897708892822265625">
        <ele>794.4000244140625</ele>
        <time>2026-08-21T23:36:32.000Z</time>
        <extensions>
          <ns3:TrackPointExtension>
            <ns3:hr>144</ns3:hr>
            <ns3:cad>53</ns3:cad>
          </ns3:TrackPointExtension>
        </extensions>
      </trkpt>
      <trkpt lat="45.303966365754604339599609375" lon="-71.0921210981905460357666015625">
        <ele>794.5999755859375</ele>
        <time>2026-08-21T23:36:33.000Z</time>
        <extensions>
          <ns3:TrackPointExtension>
            <ns3:hr>144</ns3:hr>
            <ns3:cad>53</ns3:cad>
          </ns3:TrackPointExtension>
        </extensions>
      </trkpt>
      <trkpt lat="45.30396879650652408599853515625" lon="-71.09213576652109622955322265625">
        <ele>794.79998779296875</ele>
        <time>2026-08-21T23:36:34.000Z</time>
        <extensions>
          <ns3:TrackPointExtension>
            <ns3:hr>144</ns3:hr>
            <ns3:cad>45</ns3:cad>
          </ns3:TrackPointExtension>
        </extensions>
      </trkpt>
      <trkpt lat="45.303969718515872955322265625" lon="-71.09214750118553638458251953125">
        <ele>795</ele>
        <time>2026-08-21T23:36:35.000Z</time>
        <extensions>
          <ns3:TrackPointExtension>
            <ns3:hr>144</ns3:hr>
            <ns3:cad>0</ns3:cad>
          </ns3:TrackPointExtension>
        </extensions>
      </trkpt>
      <trkpt lat="45.30397407710552215576171875" lon="-71.09215177595615386962890625">
        <ele>795.20001220703125</ele>
        <time>2026-08-21T23:36:36.000Z</time>
        <extensions>
          <ns3:TrackPointExtension>
            <ns3:hr>144</ns3:hr>
            <ns3:cad>0</ns3:cad>
          </ns3:TrackPointExtension>
        </extensions>
      </trkpt>
      <trkpt lat="45.30397717840969562530517578125" lon="-71.09216342680156230926513671875">
        <ele>795.4000244140625</ele>
        <time>2026-08-21T23:36:37.000Z</time>
        <extensions>
          <ns3:TrackPointExtension>
            <ns3:hr>144</ns3:hr>
            <ns3:cad>0</ns3:cad>
          </ns3:TrackPointExtension>
        </extensions>
      </trkpt>
      <trkpt lat="45.303978435695171356201171875" lon="-71.0921834595501422882080078125">
        <ele>795.5999755859375</ele>
        <time>2026-08-21T23:36:38.000Z</time>
        <extensions>
          <ns3:TrackPointExtension>
            <ns3:hr>144</ns3:hr>
            <ns3:cad>0</ns3:cad>
          </ns3:TrackPointExtension>
        </extensions>
      </trkpt>
      <trkpt lat="45.30397701077163219451904296875" lon="-71.0921864770352840423583984375">
        <ele>795.79998779296875</ele>
        <time>2026-08-21T23:36:39.000Z</time>
        <extensions>
          <ns3:TrackPointExtension>
            <ns3:hr>143</ns3:hr>
            <ns3:cad>0</ns3:cad>
          </ns3:TrackPointExtension>
        </extensions>
      </trkpt>
      <trkpt lat="45.30397851951420307159423828125" lon="-71.0922086052596569061279296875">
        <ele>796</ele>
        <time>2026-08-21T23:36:40.000Z</time>
        <extensions>
          <ns3:TrackPointExtension>
            <ns3:hr>143</ns3:hr>
            <ns3:cad>0</ns3:cad>
          </ns3:TrackPointExtension>
        </extensions>
      </trkpt>
      <trkpt lat="45.30397114343941211700439453125" lon="-71.0922221839427947998046875">
        <ele>796.20001220703125</ele>
        <time>2026-08-21T23:36:41.000Z</time>
        <extensions>
          <ns3:TrackPointExtension>
            <ns3:hr>141</ns3:hr>
            <ns3:cad>0</ns3:cad>
          </ns3:TrackPointExtension>
        </extensions>
      </trkpt>
      <trkpt lat="45.30397281982004642486572265625" lon="-71.09223450534045696258544921875">
        <ele>796.4000244140625</ele>
        <time>2026-08-21T23:36:42.000Z</time>
        <extensions>
          <ns3:TrackPointExtension>
            <ns3:hr>140</ns3:hr>
            <ns3:cad>0</ns3:cad>
          </ns3:TrackPointExtension>
        </extensions>
      </trkpt>
      <trkpt lat="45.3039742447435855865478515625" lon="-71.092242300510406494140625">
        <ele>796.5999755859375</ele>
        <time>2026-08-21T23:36:43.000Z</time>
        <extensions>
          <ns3:TrackPointExtension>
            <ns3:hr>139</ns3:hr>
            <ns3:cad>0</ns3:cad>
          </ns3:TrackPointExtension>
        </extensions>
      </trkpt>
      <trkpt lat="45.30397533439099788665771484375" lon="-71.09225814230740070343017578125">
        <ele>796.79998779296875</ele>
        <time>2026-08-21T23:36:44.000Z</time>
        <extensions>
          <ns3:TrackPointExtension>
            <ns3:hr>138</ns3:hr>
            <ns3:cad>0</ns3:cad>
          </ns3:TrackPointExtension>
        </extensions>
      </trkpt>
      <trkpt lat="45.303973071277141571044921875" lon="-71.09227607958018779754638671875">
        <ele>797</ele>
        <time>2026-08-21T23:36:45.000Z</time>
        <extensions>
          <ns3:TrackPointExtension>
            <ns3:hr>138</ns3:hr>
            <ns3:cad>0</ns3:cad>
          </ns3:TrackPointExtension>
        </extensions>
      </trkpt>
      <trkpt lat="45.30396929942071437835693359375" lon="-71.09229368157684803009033203125">
        <ele>797.20001220703125</ele>
        <time>2026-08-21T23:36:46.000Z</time>
        <extensions>
          <ns3:TrackPointExtension>
            <ns3:hr>137</ns3:hr>
            <ns3:cad>0</ns3:cad>
          </ns3:TrackPointExtension>
        </extensions>
      </trkpt>
      <trkpt lat="45.30396929942071437835693359375" lon="-71.092317067086696624755859375">
        <ele>797.20001220703125</ele>
        <time>2026-08-21T23:36:47.000Z</time>
        <extensions>
          <ns3:TrackPointExtension>
            <ns3:hr>137</ns3:hr>
            <ns3:cad>0</ns3:cad>
          </ns3:TrackPointExtension>
        </extensions>
      </trkpt>
      <trkpt lat="45.3039682097733020782470703125" lon="-71.092322766780853271484375">
        <ele>797.4000244140625</ele>
        <time>2026-08-21T23:36:48.000Z</time>
        <extensions>
          <ns3:TrackPointExtension>
            <ns3:hr>137</ns3:hr>
            <ns3:cad>0</ns3:cad>
          </ns3:TrackPointExtension>
        </extensions>
      </trkpt>
      <trkpt lat="45.3039658628404140472412109375" lon="-71.0923360101878643035888671875">
        <ele>797.4000244140625</ele>
        <time>2026-08-21T23:36:49.000Z</time>
        <extensions>
          <ns3:TrackPointExtension>
            <ns3:hr>137</ns3:hr>
            <ns3:cad>0</ns3:cad>
          </ns3:TrackPointExtension>
        </extensions>
      </trkpt>
      <trkpt lat="45.3039635159075260162353515625" lon="-71.09235084615647792816162109375">
        <ele>797.5999755859375</ele>
        <time>2026-08-21T23:36:50.000Z</time>
        <extensions>
          <ns3:TrackPointExtension>
            <ns3:hr>136</ns3:hr>
            <ns3:cad>0</ns3:cad>
          </ns3:TrackPointExtension>
        </extensions>
      </trkpt>
      <trkpt lat="45.3039608336985111236572265625" lon="-71.09236073680222034454345703125">
        <ele>797.5999755859375</ele>
        <time>2026-08-21T23:36:51.000Z</time>
        <extensions>
          <ns3:TrackPointExtension>
            <ns3:hr>136</ns3:hr>
            <ns3:cad>0</ns3:cad>
          </ns3:TrackPointExtension>
        </extensions>
      </trkpt>
      <trkpt lat="45.30395806767046451568603515625" lon="-71.09238571487367153167724609375">
        <ele>797.79998779296875</ele>
        <time>2026-08-21T23:36:52.000Z</time>
        <extensions>
          <ns3:TrackPointExtension>
            <ns3:hr>136</ns3:hr>
            <ns3:cad>0</ns3:cad>
          </ns3:TrackPointExtension>
        </extensions>
      </trkpt>
      <trkpt lat="45.303954295814037322998046875" lon="-71.092408932745456695556640625">
        <ele>798</ele>
        <time>2026-08-21T23:36:53.000Z</time>
        <extensions>
          <ns3:TrackPointExtension>
            <ns3:hr>136</ns3:hr>
            <ns3:cad>0</ns3:cad>
          </ns3:TrackPointExtension>
        </extensions>
      </trkpt>
      <trkpt lat="45.30395320616662502288818359375" lon="-71.09241538681089878082275390625">
        <ele>798</ele>
        <time>2026-08-21T23:36:54.000Z</time>
        <extensions>
          <ns3:TrackPointExtension>
            <ns3:hr>136</ns3:hr>
            <ns3:cad>0</ns3:cad>
          </ns3:TrackPointExtension>
        </extensions>
      </trkpt>
      <trkpt lat="45.303954966366291046142578125" lon="-71.09243516810238361358642578125">
        <ele>798.20001220703125</ele>
        <time>2026-08-21T23:36:55.000Z</time>
        <extensions>
          <ns3:TrackPointExtension>
            <ns3:hr>135</ns3:hr>
            <ns3:cad>0</ns3:cad>
          </ns3:TrackPointExtension>
        </extensions>
      </trkpt>
      <trkpt lat="45.30395186506211757659912109375" lon="-71.09244924969971179962158203125">
        <ele>798.4000244140625</ele>
        <time>2026-08-21T23:36:56.000Z</time>
        <extensions>
          <ns3:TrackPointExtension>
            <ns3:hr>136</ns3:hr>
            <ns3:cad>50</ns3:cad>
          </ns3:TrackPointExtension>
        </extensions>
      </trkpt>
      <trkpt lat="45.303947925567626953125" lon="-71.0924528539180755615234375">
        <ele>798.5999755859375</ele>
        <time>2026-08-21T23:36:57.000Z</time>
        <extensions>
          <ns3:TrackPointExtension>
            <ns3:hr>136</ns3:hr>
            <ns3:cad>50</ns3:cad>
          </ns3:TrackPointExtension>
        </extensions>
      </trkpt>
      <trkpt lat="45.30393895693123340606689453125" lon="-71.09246416948735713958740234375">
        <ele>798.79998779296875</ele>
        <time>2026-08-21T23:36:58.000Z</time>
        <extensions>
          <ns3:TrackPointExtension>
            <ns3:hr>135</ns3:hr>
            <ns3:cad>50</ns3:cad>
          </ns3:TrackPointExtension>
        </extensions>
      </trkpt>
      <trkpt lat="45.3039319999516010284423828125" lon="-71.092470623552799224853515625">
        <ele>799</ele>
        <time>2026-08-21T23:36:59.000Z</time>
        <extensions>
          <ns3:TrackPointExtension>
            <ns3:hr>135</ns3:hr>
            <ns3:cad>50</ns3:cad>
          </ns3:TrackPointExtension>
        </extensions>
      </trkpt>
      <trkpt lat="45.30392655171453952789306640625" lon="-71.09248395077884197235107421875">
        <ele>799.20001220703125</ele>
        <time>2026-08-21T23:37:00.000Z</time>
        <extensions>
          <ns3:TrackPointExtension>
            <ns3:hr>134</ns3:hr>
            <ns3:cad>48</ns3:cad>
          </ns3:TrackPointExtension>
        </extensions>
      </trkpt>
      <trkpt lat="45.30391951091587543487548828125" lon="-71.092499457299709320068359375">
        <ele>799.4000244140625</ele>
        <time>2026-08-21T23:37:01.000Z</time>
        <extensions>
          <ns3:TrackPointExtension>
            <ns3:hr>134</ns3:hr>
            <ns3:cad>49</ns3:cad>
          </ns3:TrackPointExtension>
        </extensions>
      </trkpt>
      <trkpt lat="45.303916074335575103759765625" lon="-71.09251043759286403656005859375">
        <ele>799.4000244140625</ele>
        <time>2026-08-21T23:37:02.000Z</time>
        <extensions>
          <ns3:TrackPointExtension>
            <ns3:hr>134</ns3:hr>
            <ns3:cad>49</ns3:cad>
          </ns3:TrackPointExtension>
        </extensions>
      </trkpt>
      <trkpt lat="45.3039105422794818878173828125" lon="-71.09252753667533397674560546875">
        <ele>799.5999755859375</ele>
        <time>2026-08-21T23:37:03.000Z</time>
        <extensions>
          <ns3:TrackPointExtension>
            <ns3:hr>134</ns3:hr>
            <ns3:cad>49</ns3:cad>
          </ns3:TrackPointExtension>
        </extensions>
      </trkpt>
      <trkpt lat="45.30390677042305469512939453125" lon="-71.09253927133977413177490234375">
        <ele>799.79998779296875</ele>
        <time>2026-08-21T23:37:04.000Z</time>
        <extensions>
          <ns3:TrackPointExtension>
            <ns3:hr>135</ns3:hr>
            <ns3:cad>49</ns3:cad>
          </ns3:TrackPointExtension>
        </extensions>
      </trkpt>
      <trkpt lat="45.30390568077564239501953125" lon="-71.09254606068134307861328125">
        <ele>799.79998779296875</ele>
        <time>2026-08-21T23:37:05.000Z</time>
        <extensions>
          <ns3:TrackPointExtension>
            <ns3:hr>135</ns3:hr>
            <ns3:cad>0</ns3:cad>
          </ns3:TrackPointExtension>
        </extensions>
      </trkpt>
      <trkpt lat="45.303903333842754364013671875" lon="-71.0925576277077198028564453125">
        <ele>800</ele>
        <time>2026-08-21T23:37:06.000Z</time>
        <extensions>
          <ns3:TrackPointExtension>
            <ns3:hr>135</ns3:hr>
            <ns3:cad>0</ns3:cad>
          </ns3:TrackPointExtension>
        </extensions>
      </trkpt>
      <trkpt lat="45.30389939434826374053955078125" lon="-71.0925663448870182037353515625">
        <ele>800.20001220703125</ele>
        <time>2026-08-21T23:37:07.000Z</time>
        <extensions>
          <ns3:TrackPointExtension>
            <ns3:hr>135</ns3:hr>
            <ns3:cad>0</ns3:cad>
          </ns3:TrackPointExtension>
        </extensions>
      </trkpt>
      <trkpt lat="45.30388916842639446258544921875" lon="-71.092576570808887481689453125">
        <ele>800.4000244140625</ele>
        <time>2026-08-21T23:37:08.000Z</time>
        <extensions>
          <ns3:TrackPointExtension>
            <ns3:hr>135</ns3:hr>
            <ns3:cad>0</ns3:cad>
          </ns3:TrackPointExtension>
        </extensions>
      </trkpt>
      <trkpt lat="45.30388397164642810821533203125" lon="-71.0925867967307567596435546875">
        <ele>800.4000244140625</ele>
        <time>2026-08-21T23:37:09.000Z</time>
        <extensions>
          <ns3:TrackPointExtension>
            <ns3:hr>136</ns3:hr>
            <ns3:cad>0</ns3:cad>
          </ns3:TrackPointExtension>
        </extensions>
      </trkpt>
      <trkpt lat="45.30387860722839832305908203125" lon="-71.09259677119553089141845703125">
        <ele>800.5999755859375</ele>
        <time>2026-08-21T23:37:10.000Z</time>
        <extensions>
          <ns3:TrackPointExtension>
            <ns3:hr>136</ns3:hr>
            <ns3:cad>48</ns3:cad>
          </ns3:TrackPointExtension>
        </extensions>
      </trkpt>
      <trkpt lat="45.3038741648197174072265625" lon="-71.092607416212558746337890625">
        <ele>800.5999755859375</ele>
        <time>2026-08-21T23:37:11.000Z</time>
        <extensions>
          <ns3:TrackPointExtension>
            <ns3:hr>136</ns3:hr>
            <ns3:cad>48</ns3:cad>
          </ns3:TrackPointExtension>
        </extensions>
      </trkpt>
      <trkpt lat="45.30386653728783130645751953125" lon="-71.09262828715145587921142578125">
        <ele>800.79998779296875</ele>
        <time>2026-08-21T23:37:12.000Z</time>
        <extensions>
          <ns3:TrackPointExtension>
            <ns3:hr>136</ns3:hr>
            <ns3:cad>49</ns3:cad>
          </ns3:TrackPointExtension>
        </extensions>
      </trkpt>
      <trkpt lat="45.3038572333753108978271484375" lon="-71.09263993799686431884765625">
        <ele>800.79998779296875</ele>
        <time>2026-08-21T23:37:13.000Z</time>
        <extensions>
          <ns3:TrackPointExtension>
            <ns3:hr>135</ns3:hr>
            <ns3:cad>50</ns3:cad>
          </ns3:TrackPointExtension>
        </extensions>
      </trkpt>
      <trkpt lat="45.3038501925766468048095703125" lon="-71.09264773316681385040283203125">
        <ele>801</ele>
        <time>2026-08-21T23:37:14.000Z</time>
        <extensions>
          <ns3:TrackPointExtension>
            <ns3:hr>135</ns3:hr>
            <ns3:cad>50</ns3:cad>
          </ns3:TrackPointExtension>
        </extensions>
      </trkpt>
      <trkpt lat="45.30384206213057041168212890625" lon="-71.0926629044115543365478515625">
        <ele>801</ele>
        <time>2026-08-21T23:37:15.000Z</time>
        <extensions>
          <ns3:TrackPointExtension>
            <ns3:hr>135</ns3:hr>
            <ns3:cad>51</ns3:cad>
          </ns3:TrackPointExtension>
        </extensions>
      </trkpt>
      <trkpt lat="45.3038392961025238037109375" lon="-71.09266986139118671417236328125">
        <ele>801.20001220703125</ele>
        <time>2026-08-21T23:37:16.000Z</time>
        <extensions>
          <ns3:TrackPointExtension>
            <ns3:hr>135</ns3:hr>
            <ns3:cad>51</ns3:cad>
          </ns3:TrackPointExtension>
        </extensions>
      </trkpt>
      <trkpt lat="45.30383485369384288787841796875" lon="-71.09267505817115306854248046875">
        <ele>801.4000244140625</ele>
        <time>2026-08-21T23:37:17.000Z</time>
        <extensions>
          <ns3:TrackPointExtension>
            <ns3:hr>135</ns3:hr>
            <ns3:cad>51</ns3:cad>
          </ns3:TrackPointExtension>
        </extensions>
      </trkpt>
      <trkpt lat="45.3038243763148784637451171875" lon="-71.0926840268075466156005859375">
        <ele>801.5999755859375</ele>
        <time>2026-08-21T23:37:18.000Z</time>
        <extensions>
          <ns3:TrackPointExtension>
            <ns3:hr>135</ns3:hr>
            <ns3:cad>51</ns3:cad>
          </ns3:TrackPointExtension>
        </extensions>
      </trkpt>
      <trkpt lat="45.30381591059267520904541015625" lon="-71.09268897213041782379150390625">
        <ele>801.79998779296875</ele>
        <time>2026-08-21T23:37:19.000Z</time>
        <extensions>
          <ns3:TrackPointExtension>
            <ns3:hr>135</ns3:hr>
            <ns3:cad>0</ns3:cad>
          </ns3:TrackPointExtension>
        </extensions>
      </trkpt>
      <trkpt lat="45.30380384065210819244384765625" lon="-71.0927051492035388946533203125">
        <ele>802</ele>
        <time>2026-08-21T23:37:20.000Z</time>
        <extensions>
          <ns3:TrackPointExtension>
            <ns3:hr>135</ns3:hr>
            <ns3:cad>47</ns3:cad>
          </ns3:TrackPointExtension>
        </extensions>
      </trkpt>
      <trkpt lat="45.3037963807582855224609375" lon="-71.09271227382123470306396484375">
        <ele>802.20001220703125</ele>
        <time>2026-08-21T23:37:21.000Z</time>
        <extensions>
          <ns3:TrackPointExtension>
            <ns3:hr>135</ns3:hr>
            <ns3:cad>47</ns3:cad>
          </ns3:TrackPointExtension>
        </extensions>
      </trkpt>
      <trkpt lat="45.30378707684576511383056640625" lon="-71.0927195660769939422607421875">
        <ele>802.20001220703125</ele>
        <time>2026-08-21T23:37:22.000Z</time>
        <extensions>
          <ns3:TrackPointExtension>
            <ns3:hr>135</ns3:hr>
            <ns3:cad>47</ns3:cad>
          </ns3:TrackPointExtension>
        </extensions>
      </trkpt>
      <trkpt lat="45.3037801198661327362060546875" lon="-71.0927292890846729278564453125">
        <ele>802.4000244140625</ele>
        <time>2026-08-21T23:37:23.000Z</time>
        <extensions>
          <ns3:TrackPointExtension>
            <ns3:hr>136</ns3:hr>
            <ns3:cad>47</ns3:cad>
          </ns3:TrackPointExtension>
        </extensions>
      </trkpt>
      <trkpt lat="45.30377383343875408172607421875" lon="-71.092740856111049652099609375">
        <ele>802.5999755859375</ele>
        <time>2026-08-21T23:37:24.000Z</time>
        <extensions>
          <ns3:TrackPointExtension>
            <ns3:hr>135</ns3:hr>
            <ns3:cad>47</ns3:cad>
          </ns3:TrackPointExtension>
        </extensions>
      </trkpt>
      <trkpt lat="45.30377802439033985137939453125" lon="-71.09274898655712604522705078125">
        <ele>802.79998779296875</ele>
        <time>2026-08-21T23:37:25.000Z</time>
        <extensions>
          <ns3:TrackPointExtension>
            <ns3:hr>135</ns3:hr>
            <ns3:cad>47</ns3:cad>
          </ns3:TrackPointExtension>
        </extensions>
      </trkpt>
      <trkpt lat="45.30377048067748546600341796875" lon="-71.09275921247899532318115234375">
        <ele>803</ele>
        <time>2026-08-21T23:37:26.000Z</time>
        <extensions>
          <ns3:TrackPointExtension>
            <ns3:hr>135</ns3:hr>
            <ns3:cad>0</ns3:cad>
          </ns3:TrackPointExtension>
        </extensions>
      </trkpt>
      <trkpt lat="45.3037586621940135955810546875" lon="-71.0927715338766574859619140625">
        <ele>803.20001220703125</ele>
        <time>2026-08-21T23:37:27.000Z</time>
        <extensions>
          <ns3:TrackPointExtension>
            <ns3:hr>135</ns3:hr>
            <ns3:cad>0</ns3:cad>
          </ns3:TrackPointExtension>
        </extensions>
      </trkpt>
      <trkpt lat="45.30375136993825435638427734375" lon="-71.0927805863320827484130859375">
        <ele>803.4000244140625</ele>
        <time>2026-08-21T23:37:28.000Z</time>
        <extensions>
          <ns3:TrackPointExtension>
            <ns3:hr>135</ns3:hr>
            <ns3:cad>0</ns3:cad>
          </ns3:TrackPointExtension>
        </extensions>
      </trkpt>
      <trkpt lat="45.303745754063129425048828125" lon="-71.092792488634586334228515625">
        <ele>803.5999755859375</ele>
        <time>2026-08-21T23:37:29.000Z</time>
        <extensions>
          <ns3:TrackPointExtension>
            <ns3:hr>134</ns3:hr>
            <ns3:cad>0</ns3:cad>
          </ns3:TrackPointExtension>
        </extensions>
      </trkpt>
      <trkpt lat="45.30373938381671905517578125" lon="-71.09279911033809185028076171875">
        <ele>803.79998779296875</ele>
        <time>2026-08-21T23:37:30.000Z</time>
        <extensions>
          <ns3:TrackPointExtension>
            <ns3:hr>134</ns3:hr>
            <ns3:cad>0</ns3:cad>
          </ns3:TrackPointExtension>
        </extensions>
      </trkpt>
      <trkpt lat="45.30372999608516693115234375" lon="-71.0928057320415973663330078125">
        <ele>804</ele>
        <time>2026-08-21T23:37:31.000Z</time>
        <extensions>
          <ns3:TrackPointExtension>
            <ns3:hr>134</ns3:hr>
            <ns3:cad>43</ns3:cad>
          </ns3:TrackPointExtension>
        </extensions>
      </trkpt>
      <trkpt lat="45.30372153036296367645263671875" lon="-71.0928164608776569366455078125">
        <ele>804.20001220703125</ele>
        <time>2026-08-21T23:37:32.000Z</time>
        <extensions>
          <ns3:TrackPointExtension>
            <ns3:hr>135</ns3:hr>
            <ns3:cad>43</ns3:cad>
          </ns3:TrackPointExtension>
        </extensions>
      </trkpt>
      <trkpt lat="45.3037123940885066986083984375" lon="-71.09282559715211391448974609375">
        <ele>804.20001220703125</ele>
        <time>2026-08-21T23:37:33.000Z</time>
        <extensions>
          <ns3:TrackPointExtension>
            <ns3:hr>135</ns3:hr>
            <ns3:cad>43</ns3:cad>
          </ns3:TrackPointExtension>
        </extensions>
      </trkpt>
      <trkpt lat="45.30370694585144519805908203125" lon="-71.09283129684627056121826171875">
        <ele>804.4000244140625</ele>
        <time>2026-08-21T23:37:34.000Z</time>
        <extensions>
          <ns3:TrackPointExtension>
            <ns3:hr>134</ns3:hr>
            <ns3:cad>43</ns3:cad>
          </ns3:TrackPointExtension>
        </extensions>
      </trkpt>
      <trkpt lat="45.30370174907147884368896484375" lon="-71.09283984638750553131103515625">
        <ele>804.5999755859375</ele>
        <time>2026-08-21T23:37:35.000Z</time>
        <extensions>
          <ns3:TrackPointExtension>
            <ns3:hr>134</ns3:hr>
            <ns3:cad>43</ns3:cad>
          </ns3:TrackPointExtension>
        </extensions>
      </trkpt>
      <trkpt lat="45.30369085259735584259033203125" lon="-71.09284940175712108612060546875">
        <ele>804.79998779296875</ele>
        <time>2026-08-21T23:37:36.000Z</time>
        <extensions>
          <ns3:TrackPointExtension>
            <ns3:hr>134</ns3:hr>
            <ns3:cad>47</ns3:cad>
          </ns3:TrackPointExtension>
        </extensions>
      </trkpt>
      <trkpt lat="45.303676687180995941162109375" lon="-71.09285426326096057891845703125">
        <ele>804.79998779296875</ele>
        <time>2026-08-21T23:37:37.000Z</time>
        <extensions>
          <ns3:TrackPointExtension>
            <ns3:hr>134</ns3:hr>
            <ns3:cad>47</ns3:cad>
          </ns3:TrackPointExtension>
        </extensions>
      </trkpt>
      <trkpt lat="45.30366503633558750152587890625" lon="-71.09286499209702014923095703125">
        <ele>805</ele>
        <time>2026-08-21T23:37:38.000Z</time>
        <extensions>
          <ns3:TrackPointExtension>
            <ns3:hr>133</ns3:hr>
            <ns3:cad>47</ns3:cad>
          </ns3:TrackPointExtension>
        </extensions>
      </trkpt>
      <trkpt lat="45.303660593926906585693359375" lon="-71.0928747989237308502197265625">
        <ele>805</ele>
        <time>2026-08-21T23:37:39.000Z</time>
        <extensions>
          <ns3:TrackPointExtension>
            <ns3:hr>133</ns3:hr>
            <ns3:cad>47</ns3:cad>
          </ns3:TrackPointExtension>
        </extensions>
      </trkpt>
      <trkpt lat="45.3036507032811641693115234375" lon="-71.09288695268332958221435546875">
        <ele>805.20001220703125</ele>
        <time>2026-08-21T23:37:40.000Z</time>
        <extensions>
          <ns3:TrackPointExtension>
            <ns3:hr>132</ns3:hr>
            <ns3:cad>47</ns3:cad>
          </ns3:TrackPointExtension>
        </extensions>
      </trkpt>
      <trkpt lat="45.3036436624825000762939453125" lon="-71.09289986081421375274658203125">
        <ele>805.4000244140625</ele>
        <time>2026-08-21T23:37:41.000Z</time>
        <extensions>
          <ns3:TrackPointExtension>
            <ns3:hr>132</ns3:hr>
            <ns3:cad>46</ns3:cad>
          </ns3:TrackPointExtension>
        </extensions>
      </trkpt>
      <trkpt lat="45.30363955534994602203369140625" lon="-71.0929183848202228546142578125">
        <ele>805.4000244140625</ele>
        <time>2026-08-21T23:37:42.000Z</time>
        <extensions>
          <ns3:TrackPointExtension>
            <ns3:hr>131</ns3:hr>
            <ns3:cad>46</ns3:cad>
          </ns3:TrackPointExtension>
        </extensions>
      </trkpt>
      <trkpt lat="45.303634107112884521484375" lon="-71.092929281294345855712890625">
        <ele>805.5999755859375</ele>
        <time>2026-08-21T23:37:43.000Z</time>
        <extensions>
          <ns3:TrackPointExtension>
            <ns3:hr>131</ns3:hr>
            <ns3:cad>46</ns3:cad>
          </ns3:TrackPointExtension>
        </extensions>
      </trkpt>
      <trkpt lat="45.30362538993358612060546875" lon="-71.0929388366639614105224609375">
        <ele>805.79998779296875</ele>
        <time>2026-08-21T23:37:44.000Z</time>
        <extensions>
          <ns3:TrackPointExtension>
            <ns3:hr>131</ns3:hr>
            <ns3:cad>46</ns3:cad>
          </ns3:TrackPointExtension>
        </extensions>
      </trkpt>
      <trkpt lat="45.30361725948750972747802734375" lon="-71.0929552651941776275634765625">
        <ele>806</ele>
        <time>2026-08-21T23:37:45.000Z</time>
        <extensions>
          <ns3:TrackPointExtension>
            <ns3:hr>132</ns3:hr>
            <ns3:cad>49</ns3:cad>
          </ns3:TrackPointExtension>
        </extensions>
      </trkpt>
      <trkpt lat="45.3036128170788288116455078125" lon="-71.09297119081020355224609375">
        <ele>806</ele>
        <time>2026-08-21T23:37:46.000Z</time>
        <extensions>
          <ns3:TrackPointExtension>
            <ns3:hr>132</ns3:hr>
            <ns3:cad>49</ns3:cad>
          </ns3:TrackPointExtension>
        </extensions>
      </trkpt>
      <trkpt lat="45.303608290851116180419921875" lon="-71.09298619441688060760498046875">
        <ele>806</ele>
        <time>2026-08-21T23:37:47.000Z</time>
        <extensions>
          <ns3:TrackPointExtension>
            <ns3:hr>132</ns3:hr>
            <ns3:cad>49</ns3:cad>
          </ns3:TrackPointExtension>
        </extensions>
      </trkpt>
      <trkpt lat="45.30360233969986438751220703125" lon="-71.09300203621387481689453125">
        <ele>806</ele>
        <time>2026-08-21T23:37:48.000Z</time>
        <extensions>
          <ns3:TrackPointExtension>
            <ns3:hr>132</ns3:hr>
            <ns3:cad>47</ns3:cad>
          </ns3:TrackPointExtension>
        </extensions>
      </trkpt>
      <trkpt lat="45.30359462834894657135009765625" lon="-71.09301268123090267181396484375">
        <ele>806.20001220703125</ele>
        <time>2026-08-21T23:37:49.000Z</time>
        <extensions>
          <ns3:TrackPointExtension>
            <ns3:hr>132</ns3:hr>
            <ns3:cad>47</ns3:cad>
          </ns3:TrackPointExtension>
        </extensions>
      </trkpt>
      <trkpt lat="45.3035873360931873321533203125" lon="-71.09302751719951629638671875">
        <ele>806.20001220703125</ele>
        <time>2026-08-21T23:37:50.000Z</time>
        <extensions>
          <ns3:TrackPointExtension>
            <ns3:hr>133</ns3:hr>
            <ns3:cad>48</ns3:cad>
          </ns3:TrackPointExtension>
        </extensions>
      </trkpt>
      <trkpt lat="45.30357970856130123138427734375" lon="-71.09303933568298816680908203125">
        <ele>806.4000244140625</ele>
        <time>2026-08-21T23:37:51.000Z</time>
        <extensions>
          <ns3:TrackPointExtension>
            <ns3:hr>133</ns3:hr>
            <ns3:cad>48</ns3:cad>
          </ns3:TrackPointExtension>
        </extensions>
      </trkpt>
      <trkpt lat="45.30357149429619312286376953125" lon="-71.09305123798549175262451171875">
        <ele>806.4000244140625</ele>
        <time>2026-08-21T23:37:52.000Z</time>
        <extensions>
          <ns3:TrackPointExtension>
            <ns3:hr>133</ns3:hr>
            <ns3:cad>48</ns3:cad>
          </ns3:TrackPointExtension>
        </extensions>
      </trkpt>
      <trkpt lat="45.30356378294527530670166015625" lon="-71.09306347556412220001220703125">
        <ele>806.5999755859375</ele>
        <time>2026-08-21T23:37:53.000Z</time>
        <extensions>
          <ns3:TrackPointExtension>
            <ns3:hr>133</ns3:hr>
            <ns3:cad>48</ns3:cad>
          </ns3:TrackPointExtension>
        </extensions>
      </trkpt>
      <trkpt lat="45.3035568259656429290771484375" lon="-71.09307420440018177032470703125">
        <ele>806.79998779296875</ele>
        <time>2026-08-21T23:37:54.000Z</time>
        <extensions>
          <ns3:TrackPointExtension>
            <ns3:hr>134</ns3:hr>
            <ns3:cad>48</ns3:cad>
          </ns3:TrackPointExtension>
        </extensions>
      </trkpt>
      <trkpt lat="45.303549952805042266845703125" lon="-71.0930866934359073638916015625">
        <ele>807</ele>
        <time>2026-08-21T23:37:55.000Z</time>
        <extensions>
          <ns3:TrackPointExtension>
            <ns3:hr>134</ns3:hr>
            <ns3:cad>48</ns3:cad>
          </ns3:TrackPointExtension>
        </extensions>
      </trkpt>
      <trkpt lat="45.30354433692991733551025390625" lon="-71.093098931014537811279296875">
        <ele>807</ele>
        <time>2026-08-21T23:37:56.000Z</time>
        <extensions>
          <ns3:TrackPointExtension>
            <ns3:hr>134</ns3:hr>
            <ns3:cad>48</ns3:cad>
          </ns3:TrackPointExtension>
        </extensions>
      </trkpt>
      <trkpt lat="45.303537212312221527099609375" lon="-71.09310773201286792755126953125">
        <ele>807</ele>
        <time>2026-08-21T23:37:57.000Z</time>
        <extensions>
          <ns3:TrackPointExtension>
            <ns3:hr>134</ns3:hr>
            <ns3:cad>47</ns3:cad>
          </ns3:TrackPointExtension>
        </extensions>
      </trkpt>
      <trkpt lat="45.303529165685176849365234375" lon="-71.0931195504963397979736328125">
        <ele>807.20001220703125</ele>
        <time>2026-08-21T23:37:58.000Z</time>
        <extensions>
          <ns3:TrackPointExtension>
            <ns3:hr>134</ns3:hr>
            <ns3:cad>48</ns3:cad>
          </ns3:TrackPointExtension>
        </extensions>
      </trkpt>
      <trkpt lat="45.30352304689586162567138671875" lon="-71.09313069842755794525146484375">
        <ele>807.4000244140625</ele>
        <time>2026-08-21T23:37:59.000Z</time>
        <extensions>
          <ns3:TrackPointExtension>
            <ns3:hr>134</ns3:hr>
            <ns3:cad>48</ns3:cad>
          </ns3:TrackPointExtension>
        </extensions>
      </trkpt>
      <trkpt lat="45.30351634137332439422607421875" lon="-71.09313790686428546905517578125">
        <ele>807.4000244140625</ele>
        <time>2026-08-21T23:38:00.000Z</time>
        <extensions>
          <ns3:TrackPointExtension>
            <ns3:hr>134</ns3:hr>
            <ns3:cad>50</ns3:cad>
          </ns3:TrackPointExtension>
        </extensions>
      </trkpt>
      <trkpt lat="45.3035095520317554473876953125" lon="-71.09314687550067901611328125">
        <ele>807.5999755859375</ele>
        <time>2026-08-21T23:38:01.000Z</time>
        <extensions>
          <ns3:TrackPointExtension>
            <ns3:hr>135</ns3:hr>
            <ns3:cad>50</ns3:cad>
          </ns3:TrackPointExtension>
        </extensions>
      </trkpt>
      <trkpt lat="45.303501673042774200439453125" lon="-71.09315584413707256317138671875">
        <ele>807.79998779296875</ele>
        <time>2026-08-21T23:38:02.000Z</time>
        <extensions>
          <ns3:TrackPointExtension>
            <ns3:hr>135</ns3:hr>
            <ns3:cad>47</ns3:cad>
          </ns3:TrackPointExtension>
        </extensions>
      </trkpt>
      <trkpt lat="45.30349572189152240753173828125" lon="-71.093164645135402679443359375">
        <ele>808</ele>
        <time>2026-08-21T23:38:03.000Z</time>
        <extensions>
          <ns3:TrackPointExtension>
            <ns3:hr>135</ns3:hr>
            <ns3:cad>47</ns3:cad>
          </ns3:TrackPointExtension>
        </extensions>
      </trkpt>
      <trkpt lat="45.30348591506481170654296875" lon="-71.09317445196211338043212890625">
        <ele>808</ele>
        <time>2026-08-21T23:38:04.000Z</time>
        <extensions>
          <ns3:TrackPointExtension>
            <ns3:hr>134</ns3:hr>
            <ns3:cad>47</ns3:cad>
          </ns3:TrackPointExtension>
        </extensions>
      </trkpt>
      <trkpt lat="45.303478874266147613525390625" lon="-71.09318132512271404266357421875">
        <ele>808.20001220703125</ele>
        <time>2026-08-21T23:38:05.000Z</time>
        <extensions>
          <ns3:TrackPointExtension>
            <ns3:hr>134</ns3:hr>
            <ns3:cad>43</ns3:cad>
          </ns3:TrackPointExtension>
        </extensions>
      </trkpt>
      <trkpt lat="45.30347225256264209747314453125" lon="-71.0931889526546001434326171875">
        <ele>808.20001220703125</ele>
        <time>2026-08-21T23:38:06.000Z</time>
        <extensions>
          <ns3:TrackPointExtension>
            <ns3:hr>134</ns3:hr>
            <ns3:cad>43</ns3:cad>
          </ns3:TrackPointExtension>
        </extensions>
      </trkpt>
      <trkpt lat="45.303466804325580596923828125" lon="-71.0932006873190402984619140625">
        <ele>808.20001220703125</ele>
        <time>2026-08-21T23:38:07.000Z</time>
        <extensions>
          <ns3:TrackPointExtension>
            <ns3:hr>134</ns3:hr>
            <ns3:cad>45</ns3:cad>
          </ns3:TrackPointExtension>
        </extensions>
      </trkpt>
      <trkpt lat="45.30346051789820194244384765625" lon="-71.093213260173797607421875">
        <ele>808.4000244140625</ele>
        <time>2026-08-21T23:38:08.000Z</time>
        <extensions>
          <ns3:TrackPointExtension>
            <ns3:hr>135</ns3:hr>
            <ns3:cad>45</ns3:cad>
          </ns3:TrackPointExtension>
        </extensions>
      </trkpt>
      <trkpt lat="45.3034518845379352569580078125" lon="-71.09322658739984035491943359375">
        <ele>808.4000244140625</ele>
        <time>2026-08-21T23:38:09.000Z</time>
        <extensions>
          <ns3:TrackPointExtension>
            <ns3:hr>135</ns3:hr>
            <ns3:cad>47</ns3:cad>
          </ns3:TrackPointExtension>
        </extensions>
      </trkpt>
      <trkpt lat="45.3034414909780025482177734375" lon="-71.0932348854839801788330078125">
        <ele>808.5999755859375</ele>
        <time>2026-08-21T23:38:10.000Z</time>
        <extensions>
          <ns3:TrackPointExtension>
            <ns3:hr>135</ns3:hr>
            <ns3:cad>46</ns3:cad>
          </ns3:TrackPointExtension>
        </extensions>
      </trkpt>
      <trkpt lat="45.303431935608386993408203125" lon="-71.09324787743389606475830078125">
        <ele>808.5999755859375</ele>
        <time>2026-08-21T23:38:11.000Z</time>
        <extensions>
          <ns3:TrackPointExtension>
            <ns3:hr>135</ns3:hr>
            <ns3:cad>46</ns3:cad>
          </ns3:TrackPointExtension>
        </extensions>
      </trkpt>
      <trkpt lat="45.30342464335262775421142578125" lon="-71.09325952827930450439453125">
        <ele>808.79998779296875</ele>
        <time>2026-08-21T23:38:12.000Z</time>
        <extensions>
          <ns3:TrackPointExtension>
            <ns3:hr>134</ns3:hr>
            <ns3:cad>44</ns3:cad>
          </ns3:TrackPointExtension>
        </extensions>
      </trkpt>
      <trkpt lat="45.30341676436364650726318359375" lon="-71.09327025711536407470703125">
        <ele>808.79998779296875</ele>
        <time>2026-08-21T23:38:13.000Z</time>
        <extensions>
          <ns3:TrackPointExtension>
            <ns3:hr>134</ns3:hr>
            <ns3:cad>44</ns3:cad>
          </ns3:TrackPointExtension>
        </extensions>
      </trkpt>
      <trkpt lat="45.30340704135596752166748046875" lon="-71.09328140504658222198486328125">
        <ele>809</ele>
        <time>2026-08-21T23:38:14.000Z</time>
        <extensions>
          <ns3:TrackPointExtension>
            <ns3:hr>134</ns3:hr>
            <ns3:cad>47</ns3:cad>
          </ns3:TrackPointExtension>
        </extensions>
      </trkpt>
      <trkpt lat="45.30339849181473255157470703125" lon="-71.09329263679683208465576171875">
        <ele>809</ele>
        <time>2026-08-21T23:38:15.000Z</time>
        <extensions>
          <ns3:TrackPointExtension>
            <ns3:hr>134</ns3:hr>
            <ns3:cad>47</ns3:cad>
          </ns3:TrackPointExtension>
        </extensions>
      </trkpt>
      <trkpt lat="45.30339363031089305877685546875" lon="-71.0933059640228748321533203125">
        <ele>809.20001220703125</ele>
        <time>2026-08-21T23:38:16.000Z</time>
        <extensions>
          <ns3:TrackPointExtension>
            <ns3:hr>134</ns3:hr>
            <ns3:cad>49</ns3:cad>
          </ns3:TrackPointExtension>
        </extensions>
      </trkpt>
      <trkpt lat="45.30338843353092670440673828125" lon="-71.09332390129566192626953125">
        <ele>809.4000244140625</ele>
        <time>2026-08-21T23:38:17.000Z</time>
        <extensions>
          <ns3:TrackPointExtension>
            <ns3:hr>134</ns3:hr>
            <ns3:cad>49</ns3:cad>
          </ns3:TrackPointExtension>
        </extensions>
      </trkpt>
      <trkpt lat="45.30338265001773834228515625" lon="-71.09334158711135387420654296875">
        <ele>809.4000244140625</ele>
        <time>2026-08-21T23:38:18.000Z</time>
        <extensions>
          <ns3:TrackPointExtension>
            <ns3:hr>134</ns3:hr>
            <ns3:cad>49</ns3:cad>
          </ns3:TrackPointExtension>
        </extensions>
      </trkpt>
      <trkpt lat="45.30337988398969173431396484375" lon="-71.09336011111736297607421875">
        <ele>809.5999755859375</ele>
        <time>2026-08-21T23:38:19.000Z</time>
        <extensions>
          <ns3:TrackPointExtension>
            <ns3:hr>133</ns3:hr>
            <ns3:cad>46</ns3:cad>
          </ns3:TrackPointExtension>
        </extensions>
      </trkpt>
      <trkpt lat="45.30337938107550144195556640625" lon="-71.0933676548302173614501953125">
        <ele>809.79998779296875</ele>
        <time>2026-08-21T23:38:20.000Z</time>
        <extensions>
          <ns3:TrackPointExtension>
            <ns3:hr>133</ns3:hr>
            <ns3:cad>46</ns3:cad>
          </ns3:TrackPointExtension>
        </extensions>
      </trkpt>
      <trkpt lat="45.30338189564645290374755859375" lon="-71.09337444417178630828857421875">
        <ele>810</ele>
        <time>2026-08-21T23:38:21.000Z</time>
        <extensions>
          <ns3:TrackPointExtension>
            <ns3:hr>133</ns3:hr>
            <ns3:cad>44</ns3:cad>
          </ns3:TrackPointExtension>
        </extensions>
      </trkpt>
      <trkpt lat="45.3033777885138988494873046875" lon="-71.093389280140399932861328125">
        <ele>810.20001220703125</ele>
        <time>2026-08-21T23:38:22.000Z</time>
        <extensions>
          <ns3:TrackPointExtension>
            <ns3:hr>132</ns3:hr>
            <ns3:cad>44</ns3:cad>
          </ns3:TrackPointExtension>
        </extensions>
      </trkpt>
      <trkpt lat="45.30336865223944187164306640625" lon="-71.0934018529951572418212890625">
        <ele>810.4000244140625</ele>
        <time>2026-08-21T23:38:23.000Z</time>
        <extensions>
          <ns3:TrackPointExtension>
            <ns3:hr>132</ns3:hr>
            <ns3:cad>47</ns3:cad>
          </ns3:TrackPointExtension>
        </extensions>
      </trkpt>
      <trkpt lat="45.30336278490722179412841796875" lon="-71.09341518022119998931884765625">
        <ele>810.5999755859375</ele>
        <time>2026-08-21T23:38:24.000Z</time>
        <extensions>
          <ns3:TrackPointExtension>
            <ns3:hr>132</ns3:hr>
            <ns3:cad>47</ns3:cad>
          </ns3:TrackPointExtension>
        </extensions>
      </trkpt>
      <trkpt lat="45.30335959978401660919189453125" lon="-71.0934219695627689361572265625">
        <ele>810.5999755859375</ele>
        <time>2026-08-21T23:38:25.000Z</time>
        <extensions>
          <ns3:TrackPointExtension>
            <ns3:hr>132</ns3:hr>
            <ns3:cad>47</ns3:cad>
          </ns3:TrackPointExtension>
        </extensions>
      </trkpt>
      <trkpt lat="45.3033553250133991241455078125" lon="-71.0934233106672763824462890625">
        <ele>810.79998779296875</ele>
        <time>2026-08-21T23:38:26.000Z</time>
        <extensions>
          <ns3:TrackPointExtension>
            <ns3:hr>132</ns3:hr>
            <ns3:cad>47</ns3:cad>
          </ns3:TrackPointExtension>
        </extensions>
      </trkpt>
      <trkpt lat="45.30334417708218097686767578125" lon="-71.0934372246265411376953125">
        <ele>811</ele>
        <time>2026-08-21T23:38:27.000Z</time>
        <extensions>
          <ns3:TrackPointExtension>
            <ns3:hr>131</ns3:hr>
            <ns3:cad>47</ns3:cad>
          </ns3:TrackPointExtension>
        </extensions>
      </trkpt>
      <trkpt lat="45.3033372201025485992431640625" lon="-71.09344216994941234588623046875">
        <ele>811.20001220703125</ele>
        <time>2026-08-21T23:38:28.000Z</time>
        <extensions>
          <ns3:TrackPointExtension>
            <ns3:hr>132</ns3:hr>
            <ns3:cad>47</ns3:cad>
          </ns3:TrackPointExtension>
        </extensions>
      </trkpt>
      <trkpt lat="45.3033291734755039215087890625" lon="-71.09344619326293468475341796875">
        <ele>811.20001220703125</ele>
        <time>2026-08-21T23:38:29.000Z</time>
        <extensions>
          <ns3:TrackPointExtension>
            <ns3:hr>132</ns3:hr>
            <ns3:cad>47</ns3:cad>
          </ns3:TrackPointExtension>
        </extensions>
      </trkpt>
      <trkpt lat="45.30331802554428577423095703125" lon="-71.09344736672937870025634765625">
        <ele>811.4000244140625</ele>
        <time>2026-08-21T23:38:30.000Z</time>
        <extensions>
          <ns3:TrackPointExtension>
            <ns3:hr>132</ns3:hr>
            <ns3:cad>47</ns3:cad>
          </ns3:TrackPointExtension>
        </extensions>
      </trkpt>
      <trkpt lat="45.3033103980123996734619140625" lon="-71.093451976776123046875">
        <ele>811.4000244140625</ele>
        <time>2026-08-21T23:38:31.000Z</time>
        <extensions>
          <ns3:TrackPointExtension>
            <ns3:hr>132</ns3:hr>
            <ns3:cad>47</ns3:cad>
          </ns3:TrackPointExtension>
        </extensions>
      </trkpt>
      <trkpt lat="45.3033036924898624420166015625" lon="-71.0934561677277088165283203125">
        <ele>811.4000244140625</ele>
        <time>2026-08-21T23:38:32.000Z</time>
        <extensions>
          <ns3:TrackPointExtension>
            <ns3:hr>132</ns3:hr>
            <ns3:cad>47</ns3:cad>
          </ns3:TrackPointExtension>
        </extensions>
      </trkpt>
      <trkpt lat="45.303296484053134918212890625" lon="-71.09345742501318454742431640625">
        <ele>811.4000244140625</ele>
        <time>2026-08-21T23:38:33.000Z</time>
        <extensions>
          <ns3:TrackPointExtension>
            <ns3:hr>132</ns3:hr>
            <ns3:cad>0</ns3:cad>
          </ns3:TrackPointExtension>
        </extensions>
      </trkpt>
      <trkpt lat="45.3032840788364410400390625" lon="-71.09346128068864345550537109375">
        <ele>811.5999755859375</ele>
        <time>2026-08-21T23:38:34.000Z</time>
        <extensions>
          <ns3:TrackPointExtension>
            <ns3:hr>132</ns3:hr>
            <ns3:cad>0</ns3:cad>
          </ns3:TrackPointExtension>
        </extensions>
      </trkpt>
      <trkpt lat="45.303277038037776947021484375" lon="-71.0934613645076751708984375">
        <ele>811.79998779296875</ele>
        <time>2026-08-21T23:38:35.000Z</time>
        <extensions>
          <ns3:TrackPointExtension>
            <ns3:hr>133</ns3:hr>
            <ns3:cad>0</ns3:cad>
          </ns3:TrackPointExtension>
        </extensions>
      </trkpt>
      <trkpt lat="45.30327158980071544647216796875" lon="-71.0934648849070072174072265625">
        <ele>812</ele>
        <time>2026-08-21T23:38:36.000Z</time>
        <extensions>
          <ns3:TrackPointExtension>
            <ns3:hr>133</ns3:hr>
            <ns3:cad>0</ns3:cad>
          </ns3:TrackPointExtension>
        </extensions>
      </trkpt>
      <trkpt lat="45.3032607771456241607666015625" lon="-71.09347620047628879547119140625">
        <ele>812.20001220703125</ele>
        <time>2026-08-21T23:38:37.000Z</time>
        <extensions>
          <ns3:TrackPointExtension>
            <ns3:hr>132</ns3:hr>
            <ns3:cad>0</ns3:cad>
          </ns3:TrackPointExtension>
        </extensions>
      </trkpt>
      <trkpt lat="45.303256921470165252685546875" lon="-71.09348106198012828826904296875">
        <ele>812.5999755859375</ele>
        <time>2026-08-21T23:38:38.000Z</time>
        <extensions>
          <ns3:TrackPointExtension>
            <ns3:hr>133</ns3:hr>
            <ns3:cad>0</ns3:cad>
          </ns3:TrackPointExtension>
        </extensions>
      </trkpt>
      <trkpt lat="45.30324694700539112091064453125" lon="-71.09348709695041179656982421875">
        <ele>812.5999755859375</ele>
        <time>2026-08-21T23:38:39.000Z</time>
        <extensions>
          <ns3:TrackPointExtension>
            <ns3:hr>133</ns3:hr>
            <ns3:cad>0</ns3:cad>
          </ns3:TrackPointExtension>
        </extensions>
      </trkpt>
      <trkpt lat="45.3032376430928707122802734375" lon="-71.0934880189597606658935546875">
        <ele>812.79998779296875</ele>
        <time>2026-08-21T23:38:40.000Z</time>
        <extensions>
          <ns3:TrackPointExtension>
            <ns3:hr>133</ns3:hr>
            <ns3:cad>48</ns3:cad>
          </ns3:TrackPointExtension>
        </extensions>
      </trkpt>
      <trkpt lat="45.30323110520839691162109375" lon="-71.09349019825458526611328125">
        <ele>813</ele>
        <time>2026-08-21T23:38:41.000Z</time>
        <extensions>
          <ns3:TrackPointExtension>
            <ns3:hr>133</ns3:hr>
            <ns3:cad>48</ns3:cad>
          </ns3:TrackPointExtension>
        </extensions>
      </trkpt>
      <trkpt lat="45.30322012491524219512939453125" lon="-71.09350302256643772125244140625">
        <ele>813.4000244140625</ele>
        <time>2026-08-21T23:38:42.000Z</time>
        <extensions>
          <ns3:TrackPointExtension>
            <ns3:hr>133</ns3:hr>
            <ns3:cad>0</ns3:cad>
          </ns3:TrackPointExtension>
        </extensions>
      </trkpt>
      <trkpt lat="45.30321325175464153289794921875" lon="-71.09351173974573612213134765625">
        <ele>813.5999755859375</ele>
        <time>2026-08-21T23:38:43.000Z</time>
        <extensions>
          <ns3:TrackPointExtension>
            <ns3:hr>134</ns3:hr>
            <ns3:cad>0</ns3:cad>
          </ns3:TrackPointExtension>
        </extensions>
      </trkpt>
      <trkpt lat="45.30321191065013408660888671875" lon="-71.09351542778313159942626953125">
        <ele>813.79998779296875</ele>
        <time>2026-08-21T23:38:44.000Z</time>
        <extensions>
          <ns3:TrackPointExtension>
            <ns3:hr>134</ns3:hr>
            <ns3:cad>0</ns3:cad>
          </ns3:TrackPointExtension>
        </extensions>
      </trkpt>
      <trkpt lat="45.30320453457534313201904296875" lon="-71.09352414496243000030517578125">
        <ele>814</ele>
        <time>2026-08-21T23:38:45.000Z</time>
        <extensions>
          <ns3:TrackPointExtension>
            <ns3:hr>134</ns3:hr>
            <ns3:cad>46</ns3:cad>
          </ns3:TrackPointExtension>
        </extensions>
      </trkpt>
      <trkpt lat="45.30319833196699619293212890625" lon="-71.09352934174239635467529296875">
        <ele>814.20001220703125</ele>
        <time>2026-08-21T23:38:46.000Z</time>
        <extensions>
          <ns3:TrackPointExtension>
            <ns3:hr>134</ns3:hr>
            <ns3:cad>46</ns3:cad>
          </ns3:TrackPointExtension>
        </extensions>
      </trkpt>
      <trkpt lat="45.30319011770188808441162109375" lon="-71.09353604726493358612060546875">
        <ele>814.20001220703125</ele>
        <time>2026-08-21T23:38:47.000Z</time>
        <extensions>
          <ns3:TrackPointExtension>
            <ns3:hr>134</ns3:hr>
            <ns3:cad>46</ns3:cad>
          </ns3:TrackPointExtension>
        </extensions>
      </trkpt>
      <trkpt lat="45.303182490170001983642578125" lon="-71.093544177711009979248046875">
        <ele>814.4000244140625</ele>
        <time>2026-08-21T23:38:48.000Z</time>
        <extensions>
          <ns3:TrackPointExtension>
            <ns3:hr>134</ns3:hr>
            <ns3:cad>46</ns3:cad>
          </ns3:TrackPointExtension>
        </extensions>
      </trkpt>
      <trkpt lat="45.30317653901875019073486328125" lon="-71.09355415217578411102294921875">
        <ele>814.4000244140625</ele>
        <time>2026-08-21T23:38:49.000Z</time>
        <extensions>
          <ns3:TrackPointExtension>
            <ns3:hr>134</ns3:hr>
            <ns3:cad>46</ns3:cad>
          </ns3:TrackPointExtension>
        </extensions>
      </trkpt>
      <trkpt lat="45.3031705878674983978271484375" lon="-71.09356504864990711212158203125">
        <ele>814.5999755859375</ele>
        <time>2026-08-21T23:38:50.000Z</time>
        <extensions>
          <ns3:TrackPointExtension>
            <ns3:hr>133</ns3:hr>
            <ns3:cad>46</ns3:cad>
          </ns3:TrackPointExtension>
        </extensions>
      </trkpt>
      <trkpt lat="45.30316480435431003570556640625" lon="-71.09357544220983982086181640625">
        <ele>814.5999755859375</ele>
        <time>2026-08-21T23:38:51.000Z</time>
        <extensions>
          <ns3:TrackPointExtension>
            <ns3:hr>133</ns3:hr>
            <ns3:cad>46</ns3:cad>
          </ns3:TrackPointExtension>
        </extensions>
      </trkpt>
      <trkpt lat="45.303161032497882843017578125" lon="-71.0935805551707744598388671875">
        <ele>814.79998779296875</ele>
        <time>2026-08-21T23:38:52.000Z</time>
        <extensions>
          <ns3:TrackPointExtension>
            <ns3:hr>133</ns3:hr>
            <ns3:cad>44</ns3:cad>
          </ns3:TrackPointExtension>
        </extensions>
      </trkpt>
      <trkpt lat="45.30315726064145565032958984375" lon="-71.09359136782586574554443359375">
        <ele>815</ele>
        <time>2026-08-21T23:38:53.000Z</time>
        <extensions>
          <ns3:TrackPointExtension>
            <ns3:hr>133</ns3:hr>
            <ns3:cad>44</ns3:cad>
          </ns3:TrackPointExtension>
        </extensions>
      </trkpt>
      <trkpt lat="45.303151644766330718994140625" lon="-71.09360645525157451629638671875">
        <ele>815.20001220703125</ele>
        <time>2026-08-21T23:38:54.000Z</time>
        <extensions>
          <ns3:TrackPointExtension>
            <ns3:hr>134</ns3:hr>
            <ns3:cad>44</ns3:cad>
          </ns3:TrackPointExtension>
        </extensions>
      </trkpt>
      <trkpt lat="45.30314887873828411102294921875" lon="-71.09361383132636547088623046875">
        <ele>815.20001220703125</ele>
        <time>2026-08-21T23:38:55.000Z</time>
        <extensions>
          <ns3:TrackPointExtension>
            <ns3:hr>134</ns3:hr>
            <ns3:cad>44</ns3:cad>
          </ns3:TrackPointExtension>
        </extensions>
      </trkpt>
      <trkpt lat="45.303145945072174072265625" lon="-71.093622632324695587158203125">
        <ele>815.4000244140625</ele>
        <time>2026-08-21T23:38:56.000Z</time>
        <extensions>
          <ns3:TrackPointExtension>
            <ns3:hr>134</ns3:hr>
            <ns3:cad>44</ns3:cad>
          </ns3:TrackPointExtension>
        </extensions>
      </trkpt>
      <trkpt lat="45.3031397424638271331787109375" lon="-71.09363797120749950408935546875">
        <ele>815.5999755859375</ele>
        <time>2026-08-21T23:38:57.000Z</time>
        <extensions>
          <ns3:TrackPointExtension>
            <ns3:hr>134</ns3:hr>
            <ns3:cad>44</ns3:cad>
          </ns3:TrackPointExtension>
        </extensions>
      </trkpt>
      <trkpt lat="45.30313362367451190948486328125" lon="-71.0936491191387176513671875">
        <ele>816</ele>
        <time>2026-08-21T23:38:58.000Z</time>
        <extensions>
          <ns3:TrackPointExtension>
            <ns3:hr>134</ns3:hr>
            <ns3:cad>44</ns3:cad>
          </ns3:TrackPointExtension>
        </extensions>
      </trkpt>
      <trkpt lat="45.303128175437450408935546875" lon="-71.093658171594142913818359375">
        <ele>816.20001220703125</ele>
        <time>2026-08-21T23:38:59.000Z</time>
        <extensions>
          <ns3:TrackPointExtension>
            <ns3:hr>134</ns3:hr>
            <ns3:cad>44</ns3:cad>
          </ns3:TrackPointExtension>
        </extensions>
      </trkpt>
      <trkpt lat="45.303128175437450408935546875" lon="-71.093660853803157806396484375">
        <ele>816.4000244140625</ele>
        <time>2026-08-21T23:39:00.000Z</time>
        <extensions>
          <ns3:TrackPointExtension>
            <ns3:hr>133</ns3:hr>
            <ns3:cad>44</ns3:cad>
          </ns3:TrackPointExtension>
        </extensions>
      </trkpt>
      <trkpt lat="45.3031243197619915008544921875" lon="-71.09367267228662967681884765625">
        <ele>816.5999755859375</ele>
        <time>2026-08-21T23:39:01.000Z</time>
        <extensions>
          <ns3:TrackPointExtension>
            <ns3:hr>133</ns3:hr>
            <ns3:cad>0</ns3:cad>
          </ns3:TrackPointExtension>
        </extensions>
      </trkpt>
      <trkpt lat="45.3031236492097377777099609375" lon="-71.09367904253304004669189453125">
        <ele>816.79998779296875</ele>
        <time>2026-08-21T23:39:02.000Z</time>
        <extensions>
          <ns3:TrackPointExtension>
            <ns3:hr>133</ns3:hr>
            <ns3:cad>0</ns3:cad>
          </ns3:TrackPointExtension>
        </extensions>
      </trkpt>
      <trkpt lat="45.30311753042042255401611328125" lon="-71.0936851613223552703857421875">
        <ele>817</ele>
        <time>2026-08-21T23:39:03.000Z</time>
        <extensions>
          <ns3:TrackPointExtension>
            <ns3:hr>133</ns3:hr>
            <ns3:cad>0</ns3:cad>
          </ns3:TrackPointExtension>
        </extensions>
      </trkpt>
      <trkpt lat="45.30311518348753452301025390625" lon="-71.093684993684291839599609375">
        <ele>817.20001220703125</ele>
        <time>2026-08-21T23:39:04.000Z</time>
        <extensions>
          <ns3:TrackPointExtension>
            <ns3:hr>133</ns3:hr>
            <ns3:cad>0</ns3:cad>
          </ns3:TrackPointExtension>
        </extensions>
      </trkpt>
      <trkpt lat="45.303107388317584991455078125" lon="-71.09369806945323944091796875">
        <ele>817.4000244140625</ele>
        <time>2026-08-21T23:39:05.000Z</time>
        <extensions>
          <ns3:TrackPointExtension>
            <ns3:hr>133</ns3:hr>
            <ns3:cad>0</ns3:cad>
          </ns3:TrackPointExtension>
        </extensions>
      </trkpt>
      <trkpt lat="45.30310462228953838348388671875" lon="-71.09370787627995014190673828125">
        <ele>817.5999755859375</ele>
        <time>2026-08-21T23:39:06.000Z</time>
        <extensions>
          <ns3:TrackPointExtension>
            <ns3:hr>132</ns3:hr>
            <ns3:cad>0</ns3:cad>
          </ns3:TrackPointExtension>
        </extensions>
      </trkpt>
      <trkpt lat="45.30310043133795261383056640625" lon="-71.0937126539647579193115234375">
        <ele>817.79998779296875</ele>
        <time>2026-08-21T23:39:07.000Z</time>
        <extensions>
          <ns3:TrackPointExtension>
            <ns3:hr>132</ns3:hr>
            <ns3:cad>75</ns3:cad>
          </ns3:TrackPointExtension>
        </extensions>
      </trkpt>
      <trkpt lat="45.3030948154628276824951171875" lon="-71.093718521296977996826171875">
        <ele>817.79998779296875</ele>
        <time>2026-08-21T23:39:08.000Z</time>
        <extensions>
          <ns3:TrackPointExtension>
            <ns3:hr>132</ns3:hr>
            <ns3:cad>75</ns3:cad>
          </ns3:TrackPointExtension>
        </extensions>
      </trkpt>
      <trkpt lat="45.3030894510447978973388671875" lon="-71.0937269032001495361328125">
        <ele>818</ele>
        <time>2026-08-21T23:39:09.000Z</time>
        <extensions>
          <ns3:TrackPointExtension>
            <ns3:hr>132</ns3:hr>
            <ns3:cad>75</ns3:cad>
          </ns3:TrackPointExtension>
        </extensions>
      </trkpt>
      <trkpt lat="45.3030820749700069427490234375" lon="-71.0937314294278621673583984375">
        <ele>818</ele>
        <time>2026-08-21T23:39:10.000Z</time>
        <extensions>
          <ns3:TrackPointExtension>
            <ns3:hr>133</ns3:hr>
            <ns3:cad>75</ns3:cad>
          </ns3:TrackPointExtension>
        </extensions>
      </trkpt>
      <trkpt lat="45.30307042412459850311279296875" lon="-71.0937398113310337066650390625">
        <ele>818.20001220703125</ele>
        <time>2026-08-21T23:39:11.000Z</time>
        <extensions>
          <ns3:TrackPointExtension>
            <ns3:hr>132</ns3:hr>
            <ns3:cad>40</ns3:cad>
          </ns3:TrackPointExtension>
        </extensions>
      </trkpt>
      <trkpt lat="45.30306254513561725616455078125" lon="-71.09374609775841236114501953125">
        <ele>818.4000244140625</ele>
        <time>2026-08-21T23:39:12.000Z</time>
        <extensions>
          <ns3:TrackPointExtension>
            <ns3:hr>132</ns3:hr>
            <ns3:cad>40</ns3:cad>
          </ns3:TrackPointExtension>
        </extensions>
      </trkpt>
      <trkpt lat="45.30305634252727031707763671875" lon="-71.093754731118679046630859375">
        <ele>818.4000244140625</ele>
        <time>2026-08-21T23:39:13.000Z</time>
        <extensions>
          <ns3:TrackPointExtension>
            <ns3:hr>132</ns3:hr>
            <ns3:cad>40</ns3:cad>
          </ns3:TrackPointExtension>
        </extensions>
      </trkpt>
      <trkpt lat="45.30305416323244571685791015625" lon="-71.0937616042792797088623046875">
        <ele>818.5999755859375</ele>
        <time>2026-08-21T23:39:14.000Z</time>
        <extensions>
          <ns3:TrackPointExtension>
            <ns3:hr>133</ns3:hr>
            <ns3:cad>40</ns3:cad>
          </ns3:TrackPointExtension>
        </extensions>
      </trkpt>
      <trkpt lat="45.30305248685181140899658203125" lon="-71.0937733389437198638916015625">
        <ele>818.79998779296875</ele>
        <time>2026-08-21T23:39:15.000Z</time>
        <extensions>
          <ns3:TrackPointExtension>
            <ns3:hr>132</ns3:hr>
            <ns3:cad>40</ns3:cad>
          </ns3:TrackPointExtension>
        </extensions>
      </trkpt>
      <trkpt lat="45.3030475415289402008056640625" lon="-71.0937832295894622802734375">
        <ele>819</ele>
        <time>2026-08-21T23:39:16.000Z</time>
        <extensions>
          <ns3:TrackPointExtension>
            <ns3:hr>132</ns3:hr>
            <ns3:cad>40</ns3:cad>
          </ns3:TrackPointExtension>
        </extensions>
      </trkpt>
      <trkpt lat="45.30304410494863986968994140625" lon="-71.09379102475941181182861328125">
        <ele>819</ele>
        <time>2026-08-21T23:39:17.000Z</time>
        <extensions>
          <ns3:TrackPointExtension>
            <ns3:hr>132</ns3:hr>
            <ns3:cad>40</ns3:cad>
          </ns3:TrackPointExtension>
        </extensions>
      </trkpt>
      <trkpt lat="45.30304024927318096160888671875" lon="-71.09380158595740795135498046875">
        <ele>819.20001220703125</ele>
        <time>2026-08-21T23:39:18.000Z</time>
        <extensions>
          <ns3:TrackPointExtension>
            <ns3:hr>132</ns3:hr>
            <ns3:cad>0</ns3:cad>
          </ns3:TrackPointExtension>
        </extensions>
      </trkpt>
      <trkpt lat="45.30303907580673694610595703125" lon="-71.09381482936441898345947265625">
        <ele>819.20001220703125</ele>
        <time>2026-08-21T23:39:19.000Z</time>
        <extensions>
          <ns3:TrackPointExtension>
            <ns3:hr>132</ns3:hr>
            <ns3:cad>0</ns3:cad>
          </ns3:TrackPointExtension>
        </extensions>
      </trkpt>
      <trkpt lat="45.3030381537973880767822265625" lon="-71.0938162542879581451416015625">
        <ele>819.4000244140625</ele>
        <time>2026-08-21T23:39:20.000Z</time>
        <extensions>
          <ns3:TrackPointExtension>
            <ns3:hr>133</ns3:hr>
            <ns3:cad>0</ns3:cad>
          </ns3:TrackPointExtension>
        </extensions>
      </trkpt>
      <trkpt lat="45.30303806997835636138916015625" lon="-71.09382145106792449951171875">
        <ele>819.5999755859375</ele>
        <time>2026-08-21T23:39:21.000Z</time>
        <extensions>
          <ns3:TrackPointExtension>
            <ns3:hr>133</ns3:hr>
            <ns3:cad>0</ns3:cad>
          </ns3:TrackPointExtension>
        </extensions>
      </trkpt>
      <trkpt lat="45.303033627569675445556640625" lon="-71.09382941387593746185302734375">
        <ele>819.79998779296875</ele>
        <time>2026-08-21T23:39:22.000Z</time>
        <extensions>
          <ns3:TrackPointExtension>
            <ns3:hr>134</ns3:hr>
            <ns3:cad>0</ns3:cad>
          </ns3:TrackPointExtension>
        </extensions>
      </trkpt>
      <trkpt lat="45.30303128063678741455078125" lon="-71.0938330180943012237548828125">
        <ele>820</ele>
        <time>2026-08-21T23:39:23.000Z</time>
        <extensions>
          <ns3:TrackPointExtension>
            <ns3:hr>133</ns3:hr>
            <ns3:cad>0</ns3:cad>
          </ns3:TrackPointExtension>
        </extensions>
      </trkpt>
      <trkpt lat="45.3030254133045673370361328125" lon="-71.09384567476809024810791015625">
        <ele>820.4000244140625</ele>
        <time>2026-08-21T23:39:24.000Z</time>
        <extensions>
          <ns3:TrackPointExtension>
            <ns3:hr>133</ns3:hr>
            <ns3:cad>0</ns3:cad>
          </ns3:TrackPointExtension>
        </extensions>
      </trkpt>
      <trkpt lat="45.3030227310955524444580078125" lon="-71.093856990337371826171875">
        <ele>820.5999755859375</ele>
        <time>2026-08-21T23:39:25.000Z</time>
        <extensions>
          <ns3:TrackPointExtension>
            <ns3:hr>133</ns3:hr>
            <ns3:cad>0</ns3:cad>
          </ns3:TrackPointExtension>
        </extensions>
      </trkpt>
      <trkpt lat="45.3030187077820301055908203125" lon="-71.09387098811566829681396484375">
        <ele>820.5999755859375</ele>
        <time>2026-08-21T23:39:26.000Z</time>
        <extensions>
          <ns3:TrackPointExtension>
            <ns3:hr>134</ns3:hr>
            <ns3:cad>0</ns3:cad>
          </ns3:TrackPointExtension>
        </extensions>
      </trkpt>
      <trkpt lat="45.30301359482109546661376953125" lon="-71.0938866622745990753173828125">
        <ele>820.79998779296875</ele>
        <time>2026-08-21T23:39:27.000Z</time>
        <extensions>
          <ns3:TrackPointExtension>
            <ns3:hr>134</ns3:hr>
            <ns3:cad>0</ns3:cad>
          </ns3:TrackPointExtension>
        </extensions>
      </trkpt>
      <trkpt lat="45.303006805479526519775390625" lon="-71.09390015713870525360107421875">
        <ele>821</ele>
        <time>2026-08-21T23:39:28.000Z</time>
        <extensions>
          <ns3:TrackPointExtension>
            <ns3:hr>134</ns3:hr>
            <ns3:cad>0</ns3:cad>
          </ns3:TrackPointExtension>
        </extensions>
      </trkpt>
      <trkpt lat="45.30300236307084560394287109375" lon="-71.09390803612768650054931640625">
        <ele>821</ele>
        <time>2026-08-21T23:39:29.000Z</time>
        <extensions>
          <ns3:TrackPointExtension>
            <ns3:hr>134</ns3:hr>
            <ns3:cad>0</ns3:cad>
          </ns3:TrackPointExtension>
        </extensions>
      </trkpt>
      <trkpt lat="45.3029985912144184112548828125" lon="-71.09390954487025737762451171875">
        <ele>821.20001220703125</ele>
        <time>2026-08-21T23:39:30.000Z</time>
        <extensions>
          <ns3:TrackPointExtension>
            <ns3:hr>134</ns3:hr>
            <ns3:cad>0</ns3:cad>
          </ns3:TrackPointExtension>
        </extensions>
      </trkpt>
      <trkpt lat="45.30299314297735691070556640625" lon="-71.09392161481082439422607421875">
        <ele>821.4000244140625</ele>
        <time>2026-08-21T23:39:31.000Z</time>
        <extensions>
          <ns3:TrackPointExtension>
            <ns3:hr>134</ns3:hr>
            <ns3:cad>0</ns3:cad>
          </ns3:TrackPointExtension>
        </extensions>
      </trkpt>
      <trkpt lat="45.302986018359661102294921875" lon="-71.09393142163753509521484375">
        <ele>821.5999755859375</ele>
        <time>2026-08-21T23:39:32.000Z</time>
        <extensions>
          <ns3:TrackPointExtension>
            <ns3:hr>134</ns3:hr>
            <ns3:cad>0</ns3:cad>
          </ns3:TrackPointExtension>
        </extensions>
      </trkpt>
      <trkpt lat="45.30297629535198211669921875" lon="-71.093940474092960357666015625">
        <ele>821.5999755859375</ele>
        <time>2026-08-21T23:39:33.000Z</time>
        <extensions>
          <ns3:TrackPointExtension>
            <ns3:hr>134</ns3:hr>
            <ns3:cad>0</ns3:cad>
          </ns3:TrackPointExtension>
        </extensions>
      </trkpt>
      <trkpt lat="45.3029700927436351776123046875" lon="-71.09394910745322704315185546875">
        <ele>821.79998779296875</ele>
        <time>2026-08-21T23:39:34.000Z</time>
        <extensions>
          <ns3:TrackPointExtension>
            <ns3:hr>134</ns3:hr>
            <ns3:cad>0</ns3:cad>
          </ns3:TrackPointExtension>
        </extensions>
      </trkpt>
      <trkpt lat="45.302962549030780792236328125" lon="-71.0939614288508892059326171875">
        <ele>821.79998779296875</ele>
        <time>2026-08-21T23:39:35.000Z</time>
        <extensions>
          <ns3:TrackPointExtension>
            <ns3:hr>134</ns3:hr>
            <ns3:cad>0</ns3:cad>
          </ns3:TrackPointExtension>
        </extensions>
      </trkpt>
      <trkpt lat="45.30295483767986297607421875" lon="-71.093973331153392791748046875">
        <ele>822</ele>
        <time>2026-08-21T23:39:36.000Z</time>
        <extensions>
          <ns3:TrackPointExtension>
            <ns3:hr>134</ns3:hr>
            <ns3:cad>0</ns3:cad>
          </ns3:TrackPointExtension>
        </extensions>
      </trkpt>
      <trkpt lat="45.30295223928987979888916015625" lon="-71.09397877939045429229736328125">
        <ele>822.20001220703125</ele>
        <time>2026-08-21T23:39:37.000Z</time>
        <extensions>
          <ns3:TrackPointExtension>
            <ns3:hr>134</ns3:hr>
            <ns3:cad>0</ns3:cad>
          </ns3:TrackPointExtension>
        </extensions>
      </trkpt>
      <trkpt lat="45.3029472939670085906982421875" lon="-71.09399168752133846282958984375">
        <ele>822.4000244140625</ele>
        <time>2026-08-21T23:39:38.000Z</time>
        <extensions>
          <ns3:TrackPointExtension>
            <ns3:hr>134</ns3:hr>
            <ns3:cad>0</ns3:cad>
          </ns3:TrackPointExtension>
        </extensions>
      </trkpt>
      <trkpt lat="45.302943103015422821044921875" lon="-71.09400543384253978729248046875">
        <ele>822.4000244140625</ele>
        <time>2026-08-21T23:39:39.000Z</time>
        <extensions>
          <ns3:TrackPointExtension>
            <ns3:hr>133</ns3:hr>
            <ns3:cad>44</ns3:cad>
          </ns3:TrackPointExtension>
        </extensions>
      </trkpt>
      <trkpt lat="45.30293597839772701263427734375" lon="-71.094012223184108734130859375">
        <ele>822.5999755859375</ele>
        <time>2026-08-21T23:39:40.000Z</time>
        <extensions>
          <ns3:TrackPointExtension>
            <ns3:hr>133</ns3:hr>
            <ns3:cad>44</ns3:cad>
          </ns3:TrackPointExtension>
        </extensions>
      </trkpt>
      <trkpt lat="45.30292994342744350433349609375" lon="-71.09401616267859935760498046875">
        <ele>822.79998779296875</ele>
        <time>2026-08-21T23:39:41.000Z</time>
        <extensions>
          <ns3:TrackPointExtension>
            <ns3:hr>133</ns3:hr>
            <ns3:cad>44</ns3:cad>
          </ns3:TrackPointExtension>
        </extensions>
      </trkpt>
      <trkpt lat="45.30292357318103313446044921875" lon="-71.09401934780180454254150390625">
        <ele>823</ele>
        <time>2026-08-21T23:39:42.000Z</time>
        <extensions>
          <ns3:TrackPointExtension>
            <ns3:hr>133</ns3:hr>
            <ns3:cad>0</ns3:cad>
          </ns3:TrackPointExtension>
        </extensions>
      </trkpt>
      <trkpt lat="45.30291301198303699493408203125" lon="-71.09403024427592754364013671875">
        <ele>823.20001220703125</ele>
        <time>2026-08-21T23:39:43.000Z</time>
        <extensions>
          <ns3:TrackPointExtension>
            <ns3:hr>134</ns3:hr>
            <ns3:cad>0</ns3:cad>
          </ns3:TrackPointExtension>
        </extensions>
      </trkpt>
      <trkpt lat="45.302905552089214324951171875" lon="-71.09403912909328937530517578125">
        <ele>823.20001220703125</ele>
        <time>2026-08-21T23:39:44.000Z</time>
        <extensions>
          <ns3:TrackPointExtension>
            <ns3:hr>134</ns3:hr>
            <ns3:cad>0</ns3:cad>
          </ns3:TrackPointExtension>
        </extensions>
      </trkpt>
      <trkpt lat="45.30289775691926479339599609375" lon="-71.0940462537109851837158203125">
        <ele>823.4000244140625</ele>
        <time>2026-08-21T23:39:45.000Z</time>
        <extensions>
          <ns3:TrackPointExtension>
            <ns3:hr>135</ns3:hr>
            <ns3:cad>0</ns3:cad>
          </ns3:TrackPointExtension>
        </extensions>
      </trkpt>
      <trkpt lat="45.30288451351225376129150390625" lon="-71.0940541326999664306640625">
        <ele>823.4000244140625</ele>
        <time>2026-08-21T23:39:46.000Z</time>
        <extensions>
          <ns3:TrackPointExtension>
            <ns3:hr>134</ns3:hr>
            <ns3:cad>47</ns3:cad>
          </ns3:TrackPointExtension>
        </extensions>
      </trkpt>
      <trkpt lat="45.302875041961669921875" lon="-71.09406393952667713165283203125">
        <ele>823.4000244140625</ele>
        <time>2026-08-21T23:39:47.000Z</time>
        <extensions>
          <ns3:TrackPointExtension>
            <ns3:hr>134</ns3:hr>
            <ns3:cad>47</ns3:cad>
          </ns3:TrackPointExtension>
        </extensions>
      </trkpt>
      <trkpt lat="45.302866660058498382568359375" lon="-71.09407366253435611724853515625">
        <ele>823.4000244140625</ele>
        <time>2026-08-21T23:39:48.000Z</time>
        <extensions>
          <ns3:TrackPointExtension>
            <ns3:hr>134</ns3:hr>
            <ns3:cad>47</ns3:cad>
          </ns3:TrackPointExtension>
        </extensions>
      </trkpt>
      <trkpt lat="45.3028611280024051666259765625" lon="-71.09408137388527393341064453125">
        <ele>823.4000244140625</ele>
        <time>2026-08-21T23:39:49.000Z</time>
        <extensions>
          <ns3:TrackPointExtension>
            <ns3:hr>134</ns3:hr>
            <ns3:cad>0</ns3:cad>
          </ns3:TrackPointExtension>
        </extensions>
      </trkpt>
      <trkpt lat="45.30285282991826534271240234375" lon="-71.09408858232200145721435546875">
        <ele>823.5999755859375</ele>
        <time>2026-08-21T23:39:50.000Z</time>
        <extensions>
          <ns3:TrackPointExtension>
            <ns3:hr>134</ns3:hr>
            <ns3:cad>0</ns3:cad>
          </ns3:TrackPointExtension>
        </extensions>
      </trkpt>
      <trkpt lat="45.30284729786217212677001953125" lon="-71.0940975509583950042724609375">
        <ele>823.5999755859375</ele>
        <time>2026-08-21T23:39:51.000Z</time>
        <extensions>
          <ns3:TrackPointExtension>
            <ns3:hr>134</ns3:hr>
            <ns3:cad>52</ns3:cad>
          </ns3:TrackPointExtension>
        </extensions>
      </trkpt>
      <trkpt lat="45.30283858068287372589111328125" lon="-71.09410836361348628997802734375">
        <ele>823.5999755859375</ele>
        <time>2026-08-21T23:39:52.000Z</time>
        <extensions>
          <ns3:TrackPointExtension>
            <ns3:hr>134</ns3:hr>
            <ns3:cad>52</ns3:cad>
          </ns3:TrackPointExtension>
        </extensions>
      </trkpt>
      <trkpt lat="45.30283405445516109466552734375" lon="-71.09411691315472126007080078125">
        <ele>823.79998779296875</ele>
        <time>2026-08-21T23:39:53.000Z</time>
        <extensions>
          <ns3:TrackPointExtension>
            <ns3:hr>134</ns3:hr>
            <ns3:cad>52</ns3:cad>
          </ns3:TrackPointExtension>
        </extensions>
      </trkpt>
      <trkpt lat="45.30282902531325817108154296875" lon="-71.09412881545722484588623046875">
        <ele>824</ele>
        <time>2026-08-21T23:39:54.000Z</time>
        <extensions>
          <ns3:TrackPointExtension>
            <ns3:hr>134</ns3:hr>
            <ns3:cad>52</ns3:cad>
          </ns3:TrackPointExtension>
        </extensions>
      </trkpt>
      <trkpt lat="45.30281980521976947784423828125" lon="-71.09414189122617244720458984375">
        <ele>824.20001220703125</ele>
        <time>2026-08-21T23:39:55.000Z</time>
        <extensions>
          <ns3:TrackPointExtension>
            <ns3:hr>134</ns3:hr>
            <ns3:cad>52</ns3:cad>
          </ns3:TrackPointExtension>
        </extensions>
      </trkpt>
      <trkpt lat="45.302815698087215423583984375" lon="-71.09414859674870967864990234375">
        <ele>824.4000244140625</ele>
        <time>2026-08-21T23:39:56.000Z</time>
        <extensions>
          <ns3:TrackPointExtension>
            <ns3:hr>135</ns3:hr>
            <ns3:cad>0</ns3:cad>
          </ns3:TrackPointExtension>
        </extensions>
      </trkpt>
      <trkpt lat="45.3028098307549953460693359375" lon="-71.0941528715193271636962890625">
        <ele>824.5999755859375</ele>
        <time>2026-08-21T23:39:57.000Z</time>
        <extensions>
          <ns3:TrackPointExtension>
            <ns3:hr>134</ns3:hr>
            <ns3:cad>0</ns3:cad>
          </ns3:TrackPointExtension>
        </extensions>
      </trkpt>
      <trkpt lat="45.30280195176601409912109375" lon="-71.09416033141314983367919921875">
        <ele>824.5999755859375</ele>
        <time>2026-08-21T23:39:58.000Z</time>
        <extensions>
          <ns3:TrackPointExtension>
            <ns3:hr>134</ns3:hr>
            <ns3:cad>0</ns3:cad>
          </ns3:TrackPointExtension>
        </extensions>
      </trkpt>
      <trkpt lat="45.30279147438704967498779296875" lon="-71.0941656120121479034423828125">
        <ele>824.79998779296875</ele>
        <time>2026-08-21T23:39:59.000Z</time>
        <extensions>
          <ns3:TrackPointExtension>
            <ns3:hr>134</ns3:hr>
            <ns3:cad>0</ns3:cad>
          </ns3:TrackPointExtension>
        </extensions>
      </trkpt>
      <trkpt lat="45.3027830086648464202880859375" lon="-71.09417072497308254241943359375">
        <ele>825</ele>
        <time>2026-08-21T23:40:00.000Z</time>
        <extensions>
          <ns3:TrackPointExtension>
            <ns3:hr>134</ns3:hr>
            <ns3:cad>0</ns3:cad>
          </ns3:TrackPointExtension>
        </extensions>
      </trkpt>
      <trkpt lat="45.302778817713260650634765625" lon="-71.0941800288856029510498046875">
        <ele>825.20001220703125</ele>
        <time>2026-08-21T23:40:01.000Z</time>
        <extensions>
          <ns3:TrackPointExtension>
            <ns3:hr>133</ns3:hr>
            <ns3:cad>0</ns3:cad>
          </ns3:TrackPointExtension>
        </extensions>
      </trkpt>
      <trkpt lat="45.30277404002845287322998046875" lon="-71.094184219837188720703125">
        <ele>825.4000244140625</ele>
        <time>2026-08-21T23:40:02.000Z</time>
        <extensions>
          <ns3:TrackPointExtension>
            <ns3:hr>133</ns3:hr>
            <ns3:cad>0</ns3:cad>
          </ns3:TrackPointExtension>
        </extensions>
      </trkpt>
      <trkpt lat="45.3027675859630107879638671875" lon="-71.09419804997742176055908203125">
        <ele>825.5999755859375</ele>
        <time>2026-08-21T23:40:03.000Z</time>
        <extensions>
          <ns3:TrackPointExtension>
            <ns3:hr>132</ns3:hr>
            <ns3:cad>49</ns3:cad>
          </ns3:TrackPointExtension>
        </extensions>
      </trkpt>
      <trkpt lat="45.3027602098882198333740234375" lon="-71.09420894645154476165771484375">
        <ele>825.79998779296875</ele>
        <time>2026-08-21T23:40:04.000Z</time>
        <extensions>
          <ns3:TrackPointExtension>
            <ns3:hr>132</ns3:hr>
            <ns3:cad>49</ns3:cad>
          </ns3:TrackPointExtension>
        </extensions>
      </trkpt>
      <trkpt lat="45.30274721793830394744873046875" lon="-71.0942231118679046630859375">
        <ele>825.79998779296875</ele>
        <time>2026-08-21T23:40:05.000Z</time>
        <extensions>
          <ns3:TrackPointExtension>
            <ns3:hr>132</ns3:hr>
            <ns3:cad>47</ns3:cad>
          </ns3:TrackPointExtension>
        </extensions>
      </trkpt>
      <trkpt lat="45.30273933894932270050048828125" lon="-71.0942330025136470794677734375">
        <ele>826</ele>
        <time>2026-08-21T23:40:06.000Z</time>
        <extensions>
          <ns3:TrackPointExtension>
            <ns3:hr>132</ns3:hr>
            <ns3:cad>47</ns3:cad>
          </ns3:TrackPointExtension>
        </extensions>
      </trkpt>
      <trkpt lat="45.3027317114174365997314453125" lon="-71.09424096532166004180908203125">
        <ele>826.20001220703125</ele>
        <time>2026-08-21T23:40:07.000Z</time>
        <extensions>
          <ns3:TrackPointExtension>
            <ns3:hr>132</ns3:hr>
            <ns3:cad>47</ns3:cad>
          </ns3:TrackPointExtension>
        </extensions>
      </trkpt>
      <trkpt lat="45.30272894538938999176025390625" lon="-71.09424666501581668853759765625">
        <ele>826.4000244140625</ele>
        <time>2026-08-21T23:40:08.000Z</time>
        <extensions>
          <ns3:TrackPointExtension>
            <ns3:hr>132</ns3:hr>
            <ns3:cad>48</ns3:cad>
          </ns3:TrackPointExtension>
        </extensions>
      </trkpt>
      <trkpt lat="45.302722156047821044921875" lon="-71.0942581482231616973876953125">
        <ele>826.79998779296875</ele>
        <time>2026-08-21T23:40:09.000Z</time>
        <extensions>
          <ns3:TrackPointExtension>
            <ns3:hr>133</ns3:hr>
            <ns3:cad>48</ns3:cad>
          </ns3:TrackPointExtension>
        </extensions>
      </trkpt>
      <trkpt lat="45.30271469615399837493896484375" lon="-71.0942715592682361602783203125">
        <ele>827</ele>
        <time>2026-08-21T23:40:10.000Z</time>
        <extensions>
          <ns3:TrackPointExtension>
            <ns3:hr>133</ns3:hr>
            <ns3:cad>43</ns3:cad>
          </ns3:TrackPointExtension>
        </extensions>
      </trkpt>
      <trkpt lat="45.3027089126408100128173828125" lon="-71.094282455742359161376953125">
        <ele>827.20001220703125</ele>
        <time>2026-08-21T23:40:11.000Z</time>
        <extensions>
          <ns3:TrackPointExtension>
            <ns3:hr>133</ns3:hr>
            <ns3:cad>43</ns3:cad>
          </ns3:TrackPointExtension>
        </extensions>
      </trkpt>
      <trkpt lat="45.30270002782344818115234375" lon="-71.09429243020713329315185546875">
        <ele>827.4000244140625</ele>
        <time>2026-08-21T23:40:12.000Z</time>
        <extensions>
          <ns3:TrackPointExtension>
            <ns3:hr>134</ns3:hr>
            <ns3:cad>43</ns3:cad>
          </ns3:TrackPointExtension>
        </extensions>
      </trkpt>
      <trkpt lat="45.30269466340541839599609375" lon="-71.0942983813583850860595703125">
        <ele>827.4000244140625</ele>
        <time>2026-08-21T23:40:13.000Z</time>
        <extensions>
          <ns3:TrackPointExtension>
            <ns3:hr>134</ns3:hr>
            <ns3:cad>0</ns3:cad>
          </ns3:TrackPointExtension>
        </extensions>
      </trkpt>
      <trkpt lat="45.30269240029156208038330078125" lon="-71.094303242862224578857421875">
        <ele>827.5999755859375</ele>
        <time>2026-08-21T23:40:14.000Z</time>
        <extensions>
          <ns3:TrackPointExtension>
            <ns3:hr>134</ns3:hr>
            <ns3:cad>0</ns3:cad>
          </ns3:TrackPointExtension>
        </extensions>
      </trkpt>
      <trkpt lat="45.3026800788938999176025390625" lon="-71.09431640245020389556884765625">
        <ele>827.79998779296875</ele>
        <time>2026-08-21T23:40:15.000Z</time>
        <extensions>
          <ns3:TrackPointExtension>
            <ns3:hr>134</ns3:hr>
            <ns3:cad>0</ns3:cad>
          </ns3:TrackPointExtension>
        </extensions>
      </trkpt>
      <trkpt lat="45.30267396010458469390869140625" lon="-71.0943238623440265655517578125">
        <ele>828</ele>
        <time>2026-08-21T23:40:16.000Z</time>
        <extensions>
          <ns3:TrackPointExtension>
            <ns3:hr>134</ns3:hr>
            <ns3:cad>0</ns3:cad>
          </ns3:TrackPointExtension>
        </extensions>
      </trkpt>
      <trkpt lat="45.3026676736772060394287109375" lon="-71.0943282209336757659912109375">
        <ele>828</ele>
        <time>2026-08-21T23:40:17.000Z</time>
        <extensions>
          <ns3:TrackPointExtension>
            <ns3:hr>135</ns3:hr>
            <ns3:cad>0</ns3:cad>
          </ns3:TrackPointExtension>
        </extensions>
      </trkpt>
      <trkpt lat="45.30265887267887592315673828125" lon="-71.09433643519878387451171875">
        <ele>828.20001220703125</ele>
        <time>2026-08-21T23:40:18.000Z</time>
        <extensions>
          <ns3:TrackPointExtension>
            <ns3:hr>135</ns3:hr>
            <ns3:cad>0</ns3:cad>
          </ns3:TrackPointExtension>
        </extensions>
      </trkpt>
      <trkpt lat="45.30265384353697299957275390625" lon="-71.094348169863224029541015625">
        <ele>828.20001220703125</ele>
        <time>2026-08-21T23:40:19.000Z</time>
        <extensions>
          <ns3:TrackPointExtension>
            <ns3:hr>136</ns3:hr>
            <ns3:cad>0</ns3:cad>
          </ns3:TrackPointExtension>
        </extensions>
      </trkpt>
      <trkpt lat="45.3026448749005794525146484375" lon="-71.0943640954792499542236328125">
        <ele>828.4000244140625</ele>
        <time>2026-08-21T23:40:20.000Z</time>
        <extensions>
          <ns3:TrackPointExtension>
            <ns3:hr>136</ns3:hr>
            <ns3:cad>47</ns3:cad>
          </ns3:TrackPointExtension>
        </extensions>
      </trkpt>
      <trkpt lat="45.3026378341019153594970703125" lon="-71.0943734832108020782470703125">
        <ele>828.4000244140625</ele>
        <time>2026-08-21T23:40:21.000Z</time>
        <extensions>
          <ns3:TrackPointExtension>
            <ns3:hr>136</ns3:hr>
            <ns3:cad>47</ns3:cad>
          </ns3:TrackPointExtension>
        </extensions>
      </trkpt>
      <trkpt lat="45.3026271052658557891845703125" lon="-71.09438681043684482574462890625">
        <ele>828.5999755859375</ele>
        <time>2026-08-21T23:40:22.000Z</time>
        <extensions>
          <ns3:TrackPointExtension>
            <ns3:hr>136</ns3:hr>
            <ns3:cad>0</ns3:cad>
          </ns3:TrackPointExtension>
        </extensions>
      </trkpt>
      <trkpt lat="45.302617214620113372802734375" lon="-71.09439971856772899627685546875">
        <ele>828.79998779296875</ele>
        <time>2026-08-21T23:40:23.000Z</time>
        <extensions>
          <ns3:TrackPointExtension>
            <ns3:hr>136</ns3:hr>
            <ns3:cad>0</ns3:cad>
          </ns3:TrackPointExtension>
        </extensions>
      </trkpt>
      <trkpt lat="45.3026081621646881103515625" lon="-71.094409525394439697265625">
        <ele>829</ele>
        <time>2026-08-21T23:40:24.000Z</time>
        <extensions>
          <ns3:TrackPointExtension>
            <ns3:hr>136</ns3:hr>
            <ns3:cad>0</ns3:cad>
          </ns3:TrackPointExtension>
        </extensions>
      </trkpt>
      <trkpt lat="45.3026043064892292022705078125" lon="-71.09441421926021575927734375">
        <ele>829.4000244140625</ele>
        <time>2026-08-21T23:40:25.000Z</time>
        <extensions>
          <ns3:TrackPointExtension>
            <ns3:hr>136</ns3:hr>
            <ns3:cad>0</ns3:cad>
          </ns3:TrackPointExtension>
        </extensions>
      </trkpt>
      <trkpt lat="45.3025955893099308013916015625" lon="-71.0944283008575439453125">
        <ele>829.5999755859375</ele>
        <time>2026-08-21T23:40:26.000Z</time>
        <extensions>
          <ns3:TrackPointExtension>
            <ns3:hr>136</ns3:hr>
            <ns3:cad>0</ns3:cad>
          </ns3:TrackPointExtension>
        </extensions>
      </trkpt>
      <trkpt lat="45.3025893867015838623046875" lon="-71.0944388620555400848388671875">
        <ele>829.79998779296875</ele>
        <time>2026-08-21T23:40:27.000Z</time>
        <extensions>
          <ns3:TrackPointExtension>
            <ns3:hr>135</ns3:hr>
            <ns3:cad>0</ns3:cad>
          </ns3:TrackPointExtension>
        </extensions>
      </trkpt>
      <trkpt lat="45.30258276499807834625244140625" lon="-71.0944536142051219940185546875">
        <ele>829.79998779296875</ele>
        <time>2026-08-21T23:40:28.000Z</time>
        <extensions>
          <ns3:TrackPointExtension>
            <ns3:hr>135</ns3:hr>
            <ns3:cad>0</ns3:cad>
          </ns3:TrackPointExtension>
        </extensions>
      </trkpt>
      <trkpt lat="45.3025759756565093994140625" lon="-71.0944645106792449951171875">
        <ele>830</ele>
        <time>2026-08-21T23:40:29.000Z</time>
        <extensions>
          <ns3:TrackPointExtension>
            <ns3:hr>134</ns3:hr>
            <ns3:cad>0</ns3:cad>
          </ns3:TrackPointExtension>
        </extensions>
      </trkpt>
      <trkpt lat="45.30256885103881359100341796875" lon="-71.094475574791431427001953125">
        <ele>830</ele>
        <time>2026-08-21T23:40:30.000Z</time>
        <extensions>
          <ns3:TrackPointExtension>
            <ns3:hr>135</ns3:hr>
            <ns3:cad>0</ns3:cad>
          </ns3:TrackPointExtension>
        </extensions>
      </trkpt>
      <trkpt lat="45.3025650791823863983154296875" lon="-71.09449208714067935943603515625">
        <ele>830.20001220703125</ele>
        <time>2026-08-21T23:40:31.000Z</time>
        <extensions>
          <ns3:TrackPointExtension>
            <ns3:hr>134</ns3:hr>
            <ns3:cad>0</ns3:cad>
          </ns3:TrackPointExtension>
        </extensions>
      </trkpt>
      <trkpt lat="45.3025660850107669830322265625" lon="-71.09449870884418487548828125">
        <ele>830.4000244140625</ele>
        <time>2026-08-21T23:40:32.000Z</time>
        <extensions>
          <ns3:TrackPointExtension>
            <ns3:hr>134</ns3:hr>
            <ns3:cad>0</ns3:cad>
          </ns3:TrackPointExtension>
        </extensions>
      </trkpt>
      <trkpt lat="45.3025637380778789520263671875" lon="-71.094511449337005615234375">
        <ele>830.4000244140625</ele>
        <time>2026-08-21T23:40:33.000Z</time>
        <extensions>
          <ns3:TrackPointExtension>
            <ns3:hr>134</ns3:hr>
            <ns3:cad>0</ns3:cad>
          </ns3:TrackPointExtension>
        </extensions>
      </trkpt>
      <trkpt lat="45.30255577526986598968505859375" lon="-71.09452527947723865509033203125">
        <ele>830.5999755859375</ele>
        <time>2026-08-21T23:40:34.000Z</time>
        <extensions>
          <ns3:TrackPointExtension>
            <ns3:hr>133</ns3:hr>
            <ns3:cad>47</ns3:cad>
          </ns3:TrackPointExtension>
        </extensions>
      </trkpt>
      <trkpt lat="45.30255057848989963531494140625" lon="-71.0945315659046173095703125">
        <ele>830.79998779296875</ele>
        <time>2026-08-21T23:40:35.000Z</time>
        <extensions>
          <ns3:TrackPointExtension>
            <ns3:hr>134</ns3:hr>
            <ns3:cad>47</ns3:cad>
          </ns3:TrackPointExtension>
        </extensions>
      </trkpt>
      <trkpt lat="45.30254689045250415802001953125" lon="-71.0945374332368373870849609375">
        <ele>831</ele>
        <time>2026-08-21T23:40:36.000Z</time>
        <extensions>
          <ns3:TrackPointExtension>
            <ns3:hr>134</ns3:hr>
            <ns3:cad>0</ns3:cad>
          </ns3:TrackPointExtension>
        </extensions>
      </trkpt>
      <trkpt lat="45.30254253186285495758056640625" lon="-71.09454430639743804931640625">
        <ele>831.20001220703125</ele>
        <time>2026-08-21T23:40:37.000Z</time>
        <extensions>
          <ns3:TrackPointExtension>
            <ns3:hr>134</ns3:hr>
            <ns3:cad>0</ns3:cad>
          </ns3:TrackPointExtension>
        </extensions>
      </trkpt>
      <trkpt lat="45.30253951437771320343017578125" lon="-71.09455662779510021209716796875">
        <ele>831.4000244140625</ele>
        <time>2026-08-21T23:40:38.000Z</time>
        <extensions>
          <ns3:TrackPointExtension>
            <ns3:hr>134</ns3:hr>
            <ns3:cad>0</ns3:cad>
          </ns3:TrackPointExtension>
        </extensions>
      </trkpt>
      <trkpt lat="45.30253616161644458770751953125" lon="-71.09456165693700313568115234375">
        <ele>831.5999755859375</ele>
        <time>2026-08-21T23:40:39.000Z</time>
        <extensions>
          <ns3:TrackPointExtension>
            <ns3:hr>134</ns3:hr>
            <ns3:cad>0</ns3:cad>
          </ns3:TrackPointExtension>
        </extensions>
      </trkpt>
      <trkpt lat="45.302531719207763671875" lon="-71.094563417136669158935546875">
        <ele>831.79998779296875</ele>
        <time>2026-08-21T23:40:40.000Z</time>
        <extensions>
          <ns3:TrackPointExtension>
            <ns3:hr>133</ns3:hr>
            <ns3:cad>0</ns3:cad>
          </ns3:TrackPointExtension>
        </extensions>
      </trkpt>
      <trkpt lat="45.30252006836235523223876953125" lon="-71.0945744812488555908203125">
        <ele>832</ele>
        <time>2026-08-21T23:40:41.000Z</time>
        <extensions>
          <ns3:TrackPointExtension>
            <ns3:hr>133</ns3:hr>
            <ns3:cad>0</ns3:cad>
          </ns3:TrackPointExtension>
        </extensions>
      </trkpt>
      <trkpt lat="45.30250833369791507720947265625" lon="-71.09458445571362972259521484375">
        <ele>832</ele>
        <time>2026-08-21T23:40:42.000Z</time>
        <extensions>
          <ns3:TrackPointExtension>
            <ns3:hr>133</ns3:hr>
            <ns3:cad>0</ns3:cad>
          </ns3:TrackPointExtension>
        </extensions>
      </trkpt>
      <trkpt lat="45.30250699259340763092041015625" lon="-71.09458797611296176910400390625">
        <ele>832.20001220703125</ele>
        <time>2026-08-21T23:40:43.000Z</time>
        <extensions>
          <ns3:TrackPointExtension>
            <ns3:hr>133</ns3:hr>
            <ns3:cad>0</ns3:cad>
          </ns3:TrackPointExtension>
        </extensions>
      </trkpt>
      <trkpt lat="45.3025010414421558380126953125" lon="-71.09460105188190937042236328125">
        <ele>832.20001220703125</ele>
        <time>2026-08-21T23:40:44.000Z</time>
        <extensions>
          <ns3:TrackPointExtension>
            <ns3:hr>133</ns3:hr>
            <ns3:cad>0</ns3:cad>
          </ns3:TrackPointExtension>
        </extensions>
      </trkpt>
      <trkpt lat="45.3024956770241260528564453125" lon="-71.09460691921412944793701171875">
        <ele>832.4000244140625</ele>
        <time>2026-08-21T23:40:45.000Z</time>
        <extensions>
          <ns3:TrackPointExtension>
            <ns3:hr>132</ns3:hr>
            <ns3:cad>0</ns3:cad>
          </ns3:TrackPointExtension>
        </extensions>
      </trkpt>
      <trkpt lat="45.30249240808188915252685546875" lon="-71.09461161307990550994873046875">
        <ele>832.5999755859375</ele>
        <time>2026-08-21T23:40:46.000Z</time>
        <extensions>
          <ns3:TrackPointExtension>
            <ns3:hr>132</ns3:hr>
            <ns3:cad>0</ns3:cad>
          </ns3:TrackPointExtension>
        </extensions>
      </trkpt>
      <trkpt lat="45.30248343944549560546875" lon="-71.0946266166865825653076171875">
        <ele>832.79998779296875</ele>
        <time>2026-08-21T23:40:47.000Z</time>
        <extensions>
          <ns3:TrackPointExtension>
            <ns3:hr>132</ns3:hr>
            <ns3:cad>0</ns3:cad>
          </ns3:TrackPointExtension>
        </extensions>
      </trkpt>
      <trkpt lat="45.30248553492128849029541015625" lon="-71.09463860280811786651611328125">
        <ele>833</ele>
        <time>2026-08-21T23:40:48.000Z</time>
        <extensions>
          <ns3:TrackPointExtension>
            <ns3:hr>133</ns3:hr>
            <ns3:cad>0</ns3:cad>
          </ns3:TrackPointExtension>
        </extensions>
      </trkpt>
      <trkpt lat="45.30248654074966907501220703125" lon="-71.0946507565677165985107421875">
        <ele>833.20001220703125</ele>
        <time>2026-08-21T23:40:49.000Z</time>
        <extensions>
          <ns3:TrackPointExtension>
            <ns3:hr>133</ns3:hr>
            <ns3:cad>0</ns3:cad>
          </ns3:TrackPointExtension>
        </extensions>
      </trkpt>
      <trkpt lat="45.3024849481880664825439453125" lon="-71.09466492198407649993896484375">
        <ele>833.20001220703125</ele>
        <time>2026-08-21T23:40:50.000Z</time>
        <extensions>
          <ns3:TrackPointExtension>
            <ns3:hr>132</ns3:hr>
            <ns3:cad>0</ns3:cad>
          </ns3:TrackPointExtension>
        </extensions>
      </trkpt>
      <trkpt lat="45.3024846129119396209716796875" lon="-71.09468000940978527069091796875">
        <ele>833.4000244140625</ele>
        <time>2026-08-21T23:40:51.000Z</time>
        <extensions>
          <ns3:TrackPointExtension>
            <ns3:hr>132</ns3:hr>
            <ns3:cad>0</ns3:cad>
          </ns3:TrackPointExtension>
        </extensions>
      </trkpt>
      <trkpt lat="45.3024780750274658203125" lon="-71.09469107352197170257568359375">
        <ele>833.5999755859375</ele>
        <time>2026-08-21T23:40:52.000Z</time>
        <extensions>
          <ns3:TrackPointExtension>
            <ns3:hr>132</ns3:hr>
            <ns3:cad>0</ns3:cad>
          </ns3:TrackPointExtension>
        </extensions>
      </trkpt>
      <trkpt lat="45.30247463844716548919677734375" lon="-71.094708926975727081298828125">
        <ele>833.5999755859375</ele>
        <time>2026-08-21T23:40:53.000Z</time>
        <extensions>
          <ns3:TrackPointExtension>
            <ns3:hr>133</ns3:hr>
            <ns3:cad>0</ns3:cad>
          </ns3:TrackPointExtension>
        </extensions>
      </trkpt>
      <trkpt lat="45.30247229151427745819091796875" lon="-71.09472041018307209014892578125">
        <ele>833.79998779296875</ele>
        <time>2026-08-21T23:40:54.000Z</time>
        <extensions>
          <ns3:TrackPointExtension>
            <ns3:hr>133</ns3:hr>
            <ns3:cad>0</ns3:cad>
          </ns3:TrackPointExtension>
        </extensions>
      </trkpt>
      <trkpt lat="45.30246508307754993438720703125" lon="-71.09472929500043392181396484375">
        <ele>833.79998779296875</ele>
        <time>2026-08-21T23:40:55.000Z</time>
        <extensions>
          <ns3:TrackPointExtension>
            <ns3:hr>133</ns3:hr>
            <ns3:cad>40</ns3:cad>
          </ns3:TrackPointExtension>
        </extensions>
      </trkpt>
      <trkpt lat="45.30246256850659847259521484375" lon="-71.0947429575026035308837890625">
        <ele>834</ele>
        <time>2026-08-21T23:40:56.000Z</time>
        <extensions>
          <ns3:TrackPointExtension>
            <ns3:hr>134</ns3:hr>
            <ns3:cad>40</ns3:cad>
          </ns3:TrackPointExtension>
        </extensions>
      </trkpt>
      <trkpt lat="45.3024608083069324493408203125" lon="-71.0947520099580287933349609375">
        <ele>834.20001220703125</ele>
        <time>2026-08-21T23:40:57.000Z</time>
        <extensions>
          <ns3:TrackPointExtension>
            <ns3:hr>133</ns3:hr>
            <ns3:cad>40</ns3:cad>
          </ns3:TrackPointExtension>
        </extensions>
      </trkpt>
      <trkpt lat="45.3024566173553466796875" lon="-71.0947681032121181488037109375">
        <ele>834.20001220703125</ele>
        <time>2026-08-21T23:40:58.000Z</time>
        <extensions>
          <ns3:TrackPointExtension>
            <ns3:hr>134</ns3:hr>
            <ns3:cad>40</ns3:cad>
          </ns3:TrackPointExtension>
        </extensions>
      </trkpt>
      <trkpt lat="45.30244982801377773284912109375" lon="-71.09478059224784374237060546875">
        <ele>834.4000244140625</ele>
        <time>2026-08-21T23:40:59.000Z</time>
        <extensions>
          <ns3:TrackPointExtension>
            <ns3:hr>134</ns3:hr>
            <ns3:cad>40</ns3:cad>
          </ns3:TrackPointExtension>
        </extensions>
      </trkpt>
      <trkpt lat="45.3024507500231266021728515625" lon="-71.0947801731526851654052734375">
        <ele>834.4000244140625</ele>
        <time>2026-08-21T23:41:00.000Z</time>
        <extensions>
          <ns3:TrackPointExtension>
            <ns3:hr>134</ns3:hr>
            <ns3:cad>0</ns3:cad>
          </ns3:TrackPointExtension>
        </extensions>
      </trkpt>
      <trkpt lat="45.3024473972618579864501953125" lon="-71.0947868786752223968505859375">
        <ele>834.5999755859375</ele>
        <time>2026-08-21T23:41:01.000Z</time>
        <extensions>
          <ns3:TrackPointExtension>
            <ns3:hr>134</ns3:hr>
            <ns3:cad>0</ns3:cad>
          </ns3:TrackPointExtension>
        </extensions>
      </trkpt>
      <trkpt lat="45.302441529929637908935546875" lon="-71.09479467384517192840576171875">
        <ele>834.79998779296875</ele>
        <time>2026-08-21T23:41:02.000Z</time>
        <extensions>
          <ns3:TrackPointExtension>
            <ns3:hr>134</ns3:hr>
            <ns3:cad>0</ns3:cad>
          </ns3:TrackPointExtension>
        </extensions>
      </trkpt>
      <trkpt lat="45.30243742279708385467529296875" lon="-71.09479777514934539794921875">
        <ele>835</ele>
        <time>2026-08-21T23:41:03.000Z</time>
        <extensions>
          <ns3:TrackPointExtension>
            <ns3:hr>134</ns3:hr>
            <ns3:cad>0</ns3:cad>
          </ns3:TrackPointExtension>
        </extensions>
      </trkpt>
      <trkpt lat="45.30243239365518093109130859375" lon="-71.09480942599475383758544921875">
        <ele>835</ele>
        <time>2026-08-21T23:41:04.000Z</time>
        <extensions>
          <ns3:TrackPointExtension>
            <ns3:hr>134</ns3:hr>
            <ns3:cad>0</ns3:cad>
          </ns3:TrackPointExtension>
        </extensions>
      </trkpt>
      <trkpt lat="45.302427113056182861328125" lon="-71.09482518397271633148193359375">
        <ele>835.20001220703125</ele>
        <time>2026-08-21T23:41:05.000Z</time>
        <extensions>
          <ns3:TrackPointExtension>
            <ns3:hr>135</ns3:hr>
            <ns3:cad>0</ns3:cad>
          </ns3:TrackPointExtension>
        </extensions>
      </trkpt>
      <trkpt lat="45.30242099426686763763427734375" lon="-71.0948385111987590789794921875">
        <ele>835.4000244140625</ele>
        <time>2026-08-21T23:41:06.000Z</time>
        <extensions>
          <ns3:TrackPointExtension>
            <ns3:hr>134</ns3:hr>
            <ns3:cad>0</ns3:cad>
          </ns3:TrackPointExtension>
        </extensions>
      </trkpt>
      <trkpt lat="45.302414037287235260009765625" lon="-71.094847731292247772216796875">
        <ele>835.5999755859375</ele>
        <time>2026-08-21T23:41:07.000Z</time>
        <extensions>
          <ns3:TrackPointExtension>
            <ns3:hr>134</ns3:hr>
            <ns3:cad>0</ns3:cad>
          </ns3:TrackPointExtension>
        </extensions>
      </trkpt>
      <trkpt lat="45.3024081699550151824951171875" lon="-71.0948552750051021575927734375">
        <ele>835.79998779296875</ele>
        <time>2026-08-21T23:41:08.000Z</time>
        <extensions>
          <ns3:TrackPointExtension>
            <ns3:hr>134</ns3:hr>
            <ns3:cad>0</ns3:cad>
          </ns3:TrackPointExtension>
        </extensions>
      </trkpt>
      <trkpt lat="45.3024071641266345977783203125" lon="-71.094865165650844573974609375">
        <ele>836</ele>
        <time>2026-08-21T23:41:09.000Z</time>
        <extensions>
          <ns3:TrackPointExtension>
            <ns3:hr>133</ns3:hr>
            <ns3:cad>0</ns3:cad>
          </ns3:TrackPointExtension>
        </extensions>
      </trkpt>
      <trkpt lat="45.30240171588957309722900390625" lon="-71.09487212263047695159912109375">
        <ele>836.20001220703125</ele>
        <time>2026-08-21T23:41:10.000Z</time>
        <extensions>
          <ns3:TrackPointExtension>
            <ns3:hr>132</ns3:hr>
            <ns3:cad>0</ns3:cad>
          </ns3:TrackPointExtension>
        </extensions>
      </trkpt>
      <trkpt lat="45.3024068288505077362060546875" lon="-71.09487396664917469024658203125">
        <ele>836.4000244140625</ele>
        <time>2026-08-21T23:41:11.000Z</time>
        <extensions>
          <ns3:TrackPointExtension>
            <ns3:hr>133</ns3:hr>
            <ns3:cad>0</ns3:cad>
          </ns3:TrackPointExtension>
        </extensions>
      </trkpt>
      <trkpt lat="45.30240305699408054351806640625" lon="-71.09488117508590221405029296875">
        <ele>836.5999755859375</ele>
        <time>2026-08-21T23:41:12.000Z</time>
        <extensions>
          <ns3:TrackPointExtension>
            <ns3:hr>133</ns3:hr>
            <ns3:cad>0</ns3:cad>
          </ns3:TrackPointExtension>
        </extensions>
      </trkpt>
      <trkpt lat="45.30239903368055820465087890625" lon="-71.0948911495506763458251953125">
        <ele>837</ele>
        <time>2026-08-21T23:41:13.000Z</time>
        <extensions>
          <ns3:TrackPointExtension>
            <ns3:hr>133</ns3:hr>
            <ns3:cad>0</ns3:cad>
          </ns3:TrackPointExtension>
        </extensions>
      </trkpt>
      <trkpt lat="45.30239568091928958892822265625" lon="-71.09489567577838897705078125">
        <ele>837.20001220703125</ele>
        <time>2026-08-21T23:41:14.000Z</time>
        <extensions>
          <ns3:TrackPointExtension>
            <ns3:hr>134</ns3:hr>
            <ns3:cad>0</ns3:cad>
          </ns3:TrackPointExtension>
        </extensions>
      </trkpt>
      <trkpt lat="45.302393920719623565673828125" lon="-71.0948918201029300689697265625">
        <ele>837.4000244140625</ele>
        <time>2026-08-21T23:41:15.000Z</time>
        <extensions>
          <ns3:TrackPointExtension>
            <ns3:hr>134</ns3:hr>
            <ns3:cad>0</ns3:cad>
          </ns3:TrackPointExtension>
        </extensions>
      </trkpt>
      <trkpt lat="45.30239065177738666534423828125" lon="-71.0948938317596912384033203125">
        <ele>837.5999755859375</ele>
        <time>2026-08-21T23:41:16.000Z</time>
        <extensions>
          <ns3:TrackPointExtension>
            <ns3:hr>134</ns3:hr>
            <ns3:cad>0</ns3:cad>
          </ns3:TrackPointExtension>
        </extensions>
      </trkpt>
      <trkpt lat="45.30238327570259571075439453125" lon="-71.09490699134767055511474609375">
        <ele>838</ele>
        <time>2026-08-21T23:41:17.000Z</time>
        <extensions>
          <ns3:TrackPointExtension>
            <ns3:hr>133</ns3:hr>
            <ns3:cad>0</ns3:cad>
          </ns3:TrackPointExtension>
        </extensions>
      </trkpt>
      <trkpt lat="45.30237757600843906402587890625" lon="-71.094910092651844024658203125">
        <ele>838.20001220703125</ele>
        <time>2026-08-21T23:41:18.000Z</time>
        <extensions>
          <ns3:TrackPointExtension>
            <ns3:hr>132</ns3:hr>
            <ns3:cad>0</ns3:cad>
          </ns3:TrackPointExtension>
        </extensions>
      </trkpt>
      <trkpt lat="45.30237279832363128662109375" lon="-71.094914115965366363525390625">
        <ele>838.4000244140625</ele>
        <time>2026-08-21T23:41:19.000Z</time>
        <extensions>
          <ns3:TrackPointExtension>
            <ns3:hr>132</ns3:hr>
            <ns3:cad>0</ns3:cad>
          </ns3:TrackPointExtension>
        </extensions>
      </trkpt>
      <trkpt lat="45.30237556435167789459228515625" lon="-71.09491805545985698699951171875">
        <ele>838.5999755859375</ele>
        <time>2026-08-21T23:41:20.000Z</time>
        <extensions>
          <ns3:TrackPointExtension>
            <ns3:hr>132</ns3:hr>
            <ns3:cad>0</ns3:cad>
          </ns3:TrackPointExtension>
        </extensions>
      </trkpt>
      <trkpt lat="45.3023712895810604095458984375" lon="-71.09493230469524860382080078125">
        <ele>839</ele>
        <time>2026-08-21T23:41:21.000Z</time>
        <extensions>
          <ns3:TrackPointExtension>
            <ns3:hr>133</ns3:hr>
            <ns3:cad>0</ns3:cad>
          </ns3:TrackPointExtension>
        </extensions>
      </trkpt>
      <trkpt lat="45.30236919410526752471923828125" lon="-71.09494437463581562042236328125">
        <ele>839.20001220703125</ele>
        <time>2026-08-21T23:41:22.000Z</time>
        <extensions>
          <ns3:TrackPointExtension>
            <ns3:hr>134</ns3:hr>
            <ns3:cad>0</ns3:cad>
          </ns3:TrackPointExtension>
        </extensions>
      </trkpt>
      <trkpt lat="45.30236399732530117034912109375" lon="-71.09495778568089008331298828125">
        <ele>839.4000244140625</ele>
        <time>2026-08-21T23:41:23.000Z</time>
        <extensions>
          <ns3:TrackPointExtension>
            <ns3:hr>134</ns3:hr>
            <ns3:cad>0</ns3:cad>
          </ns3:TrackPointExtension>
        </extensions>
      </trkpt>
      <trkpt lat="45.302357710897922515869140625" lon="-71.094972454011440277099609375">
        <ele>839.5999755859375</ele>
        <time>2026-08-21T23:41:24.000Z</time>
        <extensions>
          <ns3:TrackPointExtension>
            <ns3:hr>134</ns3:hr>
            <ns3:cad>0</ns3:cad>
          </ns3:TrackPointExtension>
        </extensions>
      </trkpt>
      <trkpt lat="45.3023545257747173309326171875" lon="-71.0949753038585186004638671875">
        <ele>839.79998779296875</ele>
        <time>2026-08-21T23:41:25.000Z</time>
        <extensions>
          <ns3:TrackPointExtension>
            <ns3:hr>134</ns3:hr>
            <ns3:cad>0</ns3:cad>
          </ns3:TrackPointExtension>
        </extensions>
      </trkpt>
      <trkpt lat="45.3023505024611949920654296875" lon="-71.094979830086231231689453125">
        <ele>840</ele>
        <time>2026-08-21T23:41:26.000Z</time>
        <extensions>
          <ns3:TrackPointExtension>
            <ns3:hr>134</ns3:hr>
            <ns3:cad>0</ns3:cad>
          </ns3:TrackPointExtension>
        </extensions>
      </trkpt>
      <trkpt lat="45.302347652614116668701171875" lon="-71.0949929058551788330078125">
        <ele>840.20001220703125</ele>
        <time>2026-08-21T23:41:27.000Z</time>
        <extensions>
          <ns3:TrackPointExtension>
            <ns3:hr>134</ns3:hr>
            <ns3:cad>0</ns3:cad>
          </ns3:TrackPointExtension>
        </extensions>
      </trkpt>
      <trkpt lat="45.30234723351895809173583984375" lon="-71.0950009524822235107421875">
        <ele>840.4000244140625</ele>
        <time>2026-08-21T23:41:28.000Z</time>
        <extensions>
          <ns3:TrackPointExtension>
            <ns3:hr>134</ns3:hr>
            <ns3:cad>0</ns3:cad>
          </ns3:TrackPointExtension>
        </extensions>
      </trkpt>
      <trkpt lat="45.3023488260805606842041015625" lon="-71.095004640519618988037109375">
        <ele>840.5999755859375</ele>
        <time>2026-08-21T23:41:29.000Z</time>
        <extensions>
          <ns3:TrackPointExtension>
            <ns3:hr>134</ns3:hr>
            <ns3:cad>0</ns3:cad>
          </ns3:TrackPointExtension>
        </extensions>
      </trkpt>
      <trkpt lat="45.30235402286052703857421875" lon="-71.0950111784040927886962890625">
        <ele>841</ele>
        <time>2026-08-21T23:41:30.000Z</time>
        <extensions>
          <ns3:TrackPointExtension>
            <ns3:hr>135</ns3:hr>
            <ns3:cad>0</ns3:cad>
          </ns3:TrackPointExtension>
        </extensions>
      </trkpt>
      <trkpt lat="45.302357040345668792724609375" lon="-71.0950225777924060821533203125">
        <ele>841.20001220703125</ele>
        <time>2026-08-21T23:41:31.000Z</time>
        <extensions>
          <ns3:TrackPointExtension>
            <ns3:hr>135</ns3:hr>
            <ns3:cad>0</ns3:cad>
          </ns3:TrackPointExtension>
        </extensions>
      </trkpt>
      <trkpt lat="45.30235930345952510833740234375" lon="-71.0950358211994171142578125">
        <ele>841.4000244140625</ele>
        <time>2026-08-21T23:41:32.000Z</time>
        <extensions>
          <ns3:TrackPointExtension>
            <ns3:hr>136</ns3:hr>
            <ns3:cad>0</ns3:cad>
          </ns3:TrackPointExtension>
        </extensions>
      </trkpt>
      <trkpt lat="45.302359052002429962158203125" lon="-71.09504126943647861480712890625">
        <ele>841.4000244140625</ele>
        <time>2026-08-21T23:41:33.000Z</time>
        <extensions>
          <ns3:TrackPointExtension>
            <ns3:hr>136</ns3:hr>
            <ns3:cad>0</ns3:cad>
          </ns3:TrackPointExtension>
        </extensions>
      </trkpt>
      <trkpt lat="45.3023521788418292999267578125" lon="-71.0950537584722042083740234375">
        <ele>841.5999755859375</ele>
        <time>2026-08-21T23:41:34.000Z</time>
        <extensions>
          <ns3:TrackPointExtension>
            <ns3:hr>136</ns3:hr>
            <ns3:cad>0</ns3:cad>
          </ns3:TrackPointExtension>
        </extensions>
      </trkpt>
      <trkpt lat="45.30235226266086101531982421875" lon="-71.0950581170618534088134765625">
        <ele>841.79998779296875</ele>
        <time>2026-08-21T23:41:35.000Z</time>
        <extensions>
          <ns3:TrackPointExtension>
            <ns3:hr>136</ns3:hr>
            <ns3:cad>0</ns3:cad>
          </ns3:TrackPointExtension>
        </extensions>
      </trkpt>
      <trkpt lat="45.30235209502279758453369140625" lon="-71.0950658284127712249755859375">
        <ele>842</ele>
        <time>2026-08-21T23:41:36.000Z</time>
        <extensions>
          <ns3:TrackPointExtension>
            <ns3:hr>136</ns3:hr>
            <ns3:cad>0</ns3:cad>
          </ns3:TrackPointExtension>
        </extensions>
      </trkpt>
      <trkpt lat="45.302349664270877838134765625" lon="-71.09506708569824695587158203125">
        <ele>842.20001220703125</ele>
        <time>2026-08-21T23:41:37.000Z</time>
        <extensions>
          <ns3:TrackPointExtension>
            <ns3:hr>136</ns3:hr>
            <ns3:cad>0</ns3:cad>
          </ns3:TrackPointExtension>
        </extensions>
      </trkpt>
      <trkpt lat="45.302354358136653900146484375" lon="-71.0950706899166107177734375">
        <ele>842.5999755859375</ele>
        <time>2026-08-21T23:41:38.000Z</time>
        <extensions>
          <ns3:TrackPointExtension>
            <ns3:hr>137</ns3:hr>
            <ns3:cad>0</ns3:cad>
          </ns3:TrackPointExtension>
        </extensions>
      </trkpt>
      <trkpt lat="45.3023555316030979156494140625" lon="-71.09508468769490718841552734375">
        <ele>842.79998779296875</ele>
        <time>2026-08-21T23:41:39.000Z</time>
        <extensions>
          <ns3:TrackPointExtension>
            <ns3:hr>137</ns3:hr>
            <ns3:cad>0</ns3:cad>
          </ns3:TrackPointExtension>
        </extensions>
      </trkpt>
      <trkpt lat="45.302357710897922515869140625" lon="-71.09508703462779521942138671875">
        <ele>843</ele>
        <time>2026-08-21T23:41:40.000Z</time>
        <extensions>
          <ns3:TrackPointExtension>
            <ns3:hr>138</ns3:hr>
            <ns3:cad>0</ns3:cad>
          </ns3:TrackPointExtension>
        </extensions>
      </trkpt>
      <trkpt lat="45.30235812999308109283447265625" lon="-71.09509139321744441986083984375">
        <ele>843.4000244140625</ele>
        <time>2026-08-21T23:41:41.000Z</time>
        <extensions>
          <ns3:TrackPointExtension>
            <ns3:hr>138</ns3:hr>
            <ns3:cad>0</ns3:cad>
          </ns3:TrackPointExtension>
        </extensions>
      </trkpt>
      <trkpt lat="45.30236198566854000091552734375" lon="-71.09509994275867938995361328125">
        <ele>843.5999755859375</ele>
        <time>2026-08-21T23:41:42.000Z</time>
        <extensions>
          <ns3:TrackPointExtension>
            <ns3:hr>139</ns3:hr>
            <ns3:cad>0</ns3:cad>
          </ns3:TrackPointExtension>
        </extensions>
      </trkpt>
      <trkpt lat="45.30236600898206233978271484375" lon="-71.09510983340442180633544921875">
        <ele>843.5999755859375</ele>
        <time>2026-08-21T23:41:43.000Z</time>
        <extensions>
          <ns3:TrackPointExtension>
            <ns3:hr>139</ns3:hr>
            <ns3:cad>0</ns3:cad>
          </ns3:TrackPointExtension>
        </extensions>
      </trkpt>
      <trkpt lat="45.3023679368197917938232421875" lon="-71.095125339925289154052734375">
        <ele>843.79998779296875</ele>
        <time>2026-08-21T23:41:44.000Z</time>
        <extensions>
          <ns3:TrackPointExtension>
            <ns3:hr>140</ns3:hr>
            <ns3:cad>0</ns3:cad>
          </ns3:TrackPointExtension>
        </extensions>
      </trkpt>
      <trkpt lat="45.30236735008656978607177734375" lon="-71.09513883478939533233642578125">
        <ele>843.79998779296875</ele>
        <time>2026-08-21T23:41:45.000Z</time>
        <extensions>
          <ns3:TrackPointExtension>
            <ns3:hr>140</ns3:hr>
            <ns3:cad>0</ns3:cad>
          </ns3:TrackPointExtension>
        </extensions>
      </trkpt>
      <trkpt lat="45.30236718244850635528564453125" lon="-71.09515191055834293365478515625">
        <ele>844</ele>
        <time>2026-08-21T23:41:46.000Z</time>
        <extensions>
          <ns3:TrackPointExtension>
            <ns3:hr>140</ns3:hr>
            <ns3:cad>0</ns3:cad>
          </ns3:TrackPointExtension>
        </extensions>
      </trkpt>
      <trkpt lat="45.302364416420459747314453125" lon="-71.09516657888889312744140625">
        <ele>844</ele>
        <time>2026-08-21T23:41:47.000Z</time>
        <extensions>
          <ns3:TrackPointExtension>
            <ns3:hr>140</ns3:hr>
            <ns3:cad>0</ns3:cad>
          </ns3:TrackPointExtension>
        </extensions>
      </trkpt>
      <trkpt lat="45.30236047692596912384033203125" lon="-71.0951731167733669281005859375">
        <ele>844.20001220703125</ele>
        <time>2026-08-21T23:41:48.000Z</time>
        <extensions>
          <ns3:TrackPointExtension>
            <ns3:hr>139</ns3:hr>
            <ns3:cad>0</ns3:cad>
          </ns3:TrackPointExtension>
        </extensions>
      </trkpt>
      <trkpt lat="45.30235662125051021575927734375" lon="-71.0951848514378070831298828125">
        <ele>844.4000244140625</ele>
        <time>2026-08-21T23:41:49.000Z</time>
        <extensions>
          <ns3:TrackPointExtension>
            <ns3:hr>139</ns3:hr>
            <ns3:cad>0</ns3:cad>
          </ns3:TrackPointExtension>
        </extensions>
      </trkpt>
      <trkpt lat="45.30234890989959239959716796875" lon="-71.0951908864080905914306640625">
        <ele>844.5999755859375</ele>
        <time>2026-08-21T23:41:50.000Z</time>
        <extensions>
          <ns3:TrackPointExtension>
            <ns3:hr>139</ns3:hr>
            <ns3:cad>0</ns3:cad>
          </ns3:TrackPointExtension>
        </extensions>
      </trkpt>
      <trkpt lat="45.3023458085954189300537109375" lon="-71.09519331716001033782958984375">
        <ele>844.79998779296875</ele>
        <time>2026-08-21T23:41:51.000Z</time>
        <extensions>
          <ns3:TrackPointExtension>
            <ns3:hr>138</ns3:hr>
            <ns3:cad>0</ns3:cad>
          </ns3:TrackPointExtension>
        </extensions>
      </trkpt>
      <trkpt lat="45.3023441322147846221923828125" lon="-71.095192730426788330078125">
        <ele>845</ele>
        <time>2026-08-21T23:41:52.000Z</time>
        <extensions>
          <ns3:TrackPointExtension>
            <ns3:hr>138</ns3:hr>
            <ns3:cad>0</ns3:cad>
          </ns3:TrackPointExtension>
        </extensions>
      </trkpt>
      <trkpt lat="45.30234505422413349151611328125" lon="-71.09519465826451778411865234375">
        <ele>845.20001220703125</ele>
        <time>2026-08-21T23:41:53.000Z</time>
        <extensions>
          <ns3:TrackPointExtension>
            <ns3:hr>138</ns3:hr>
            <ns3:cad>0</ns3:cad>
          </ns3:TrackPointExtension>
        </extensions>
      </trkpt>
      <trkpt lat="45.30233399011194705963134765625" lon="-71.09520404599606990814208984375">
        <ele>845.4000244140625</ele>
        <time>2026-08-21T23:41:54.000Z</time>
        <extensions>
          <ns3:TrackPointExtension>
            <ns3:hr>139</ns3:hr>
            <ns3:cad>0</ns3:cad>
          </ns3:TrackPointExtension>
        </extensions>
      </trkpt>
      <trkpt lat="45.30233122408390045166015625" lon="-71.0952007770538330078125">
        <ele>845.5999755859375</ele>
        <time>2026-08-21T23:41:55.000Z</time>
        <extensions>
          <ns3:TrackPointExtension>
            <ns3:hr>138</ns3:hr>
            <ns3:cad>0</ns3:cad>
          </ns3:TrackPointExtension>
        </extensions>
      </trkpt>
      <trkpt lat="45.30232527293264865875244140625" lon="-71.09520052559673786163330078125">
        <ele>845.79998779296875</ele>
        <time>2026-08-21T23:41:56.000Z</time>
        <extensions>
          <ns3:TrackPointExtension>
            <ns3:hr>138</ns3:hr>
            <ns3:cad>0</ns3:cad>
          </ns3:TrackPointExtension>
        </extensions>
      </trkpt>
      <trkpt lat="45.30231689102947711944580078125" lon="-71.09520639292895793914794921875">
        <ele>845.79998779296875</ele>
        <time>2026-08-21T23:41:57.000Z</time>
        <extensions>
          <ns3:TrackPointExtension>
            <ns3:hr>139</ns3:hr>
            <ns3:cad>0</ns3:cad>
          </ns3:TrackPointExtension>
        </extensions>
      </trkpt>
      <trkpt lat="45.30230834148824214935302734375" lon="-71.09521091915667057037353515625">
        <ele>846</ele>
        <time>2026-08-21T23:41:58.000Z</time>
        <extensions>
          <ns3:TrackPointExtension>
            <ns3:hr>139</ns3:hr>
            <ns3:cad>0</ns3:cad>
          </ns3:TrackPointExtension>
        </extensions>
      </trkpt>
      <trkpt lat="45.30229878611862659454345703125" lon="-71.0952208936214447021484375">
        <ele>846.20001220703125</ele>
        <time>2026-08-21T23:41:59.000Z</time>
        <extensions>
          <ns3:TrackPointExtension>
            <ns3:hr>139</ns3:hr>
            <ns3:cad>0</ns3:cad>
          </ns3:TrackPointExtension>
        </extensions>
      </trkpt>
      <trkpt lat="45.30229325406253337860107421875" lon="-71.0952341370284557342529296875">
        <ele>846.20001220703125</ele>
        <time>2026-08-21T23:42:00.000Z</time>
        <extensions>
          <ns3:TrackPointExtension>
            <ns3:hr>139</ns3:hr>
            <ns3:cad>0</ns3:cad>
          </ns3:TrackPointExtension>
        </extensions>
      </trkpt>
      <trkpt lat="45.30228696763515472412109375" lon="-71.09525106847286224365234375">
        <ele>846.4000244140625</ele>
        <time>2026-08-21T23:42:01.000Z</time>
        <extensions>
          <ns3:TrackPointExtension>
            <ns3:hr>138</ns3:hr>
            <ns3:cad>0</ns3:cad>
          </ns3:TrackPointExtension>
        </extensions>
      </trkpt>
      <trkpt lat="45.30229241587221622467041015625" lon="-71.0952512361109256744384765625">
        <ele>846.4000244140625</ele>
        <time>2026-08-21T23:42:02.000Z</time>
        <extensions>
          <ns3:TrackPointExtension>
            <ns3:hr>138</ns3:hr>
            <ns3:cad>0</ns3:cad>
          </ns3:TrackPointExtension>
        </extensions>
      </trkpt>
      <trkpt lat="45.30229032039642333984375" lon="-71.09526322223246097564697265625">
        <ele>846.5999755859375</ele>
        <time>2026-08-21T23:42:03.000Z</time>
        <extensions>
          <ns3:TrackPointExtension>
            <ns3:hr>138</ns3:hr>
            <ns3:cad>0</ns3:cad>
          </ns3:TrackPointExtension>
        </extensions>
      </trkpt>
      <trkpt lat="45.3022862970829010009765625" lon="-71.09527026303112506866455078125">
        <ele>846.79998779296875</ele>
        <time>2026-08-21T23:42:04.000Z</time>
        <extensions>
          <ns3:TrackPointExtension>
            <ns3:hr>138</ns3:hr>
            <ns3:cad>0</ns3:cad>
          </ns3:TrackPointExtension>
        </extensions>
      </trkpt>
      <trkpt lat="45.302279926836490631103515625" lon="-71.09528937377035617828369140625">
        <ele>847</ele>
        <time>2026-08-21T23:42:05.000Z</time>
        <extensions>
          <ns3:TrackPointExtension>
            <ns3:hr>137</ns3:hr>
            <ns3:cad>0</ns3:cad>
          </ns3:TrackPointExtension>
        </extensions>
      </trkpt>
      <trkpt lat="45.302275232970714569091796875" lon="-71.095305718481540679931640625">
        <ele>847.20001220703125</ele>
        <time>2026-08-21T23:42:06.000Z</time>
        <extensions>
          <ns3:TrackPointExtension>
            <ns3:hr>137</ns3:hr>
            <ns3:cad>0</ns3:cad>
          </ns3:TrackPointExtension>
        </extensions>
      </trkpt>
      <trkpt lat="45.30227079056203365325927734375" lon="-71.095321476459503173828125">
        <ele>847.4000244140625</ele>
        <time>2026-08-21T23:42:07.000Z</time>
        <extensions>
          <ns3:TrackPointExtension>
            <ns3:hr>138</ns3:hr>
            <ns3:cad>0</ns3:cad>
          </ns3:TrackPointExtension>
        </extensions>
      </trkpt>
      <trkpt lat="45.302266515791416168212890625" lon="-71.09533715061843395233154296875">
        <ele>847.5999755859375</ele>
        <time>2026-08-21T23:42:08.000Z</time>
        <extensions>
          <ns3:TrackPointExtension>
            <ns3:hr>138</ns3:hr>
            <ns3:cad>0</ns3:cad>
          </ns3:TrackPointExtension>
        </extensions>
      </trkpt>
      <trkpt lat="45.302265845239162445068359375" lon="-71.0953518189489841461181640625">
        <ele>847.5999755859375</ele>
        <time>2026-08-21T23:42:09.000Z</time>
        <extensions>
          <ns3:TrackPointExtension>
            <ns3:hr>138</ns3:hr>
            <ns3:cad>0</ns3:cad>
          </ns3:TrackPointExtension>
        </extensions>
      </trkpt>
      <trkpt lat="45.3022586368024349212646484375" lon="-71.09535357914865016937255859375">
        <ele>847.79998779296875</ele>
        <time>2026-08-21T23:42:10.000Z</time>
        <extensions>
          <ns3:TrackPointExtension>
            <ns3:hr>138</ns3:hr>
            <ns3:cad>0</ns3:cad>
          </ns3:TrackPointExtension>
        </extensions>
      </trkpt>
      <trkpt lat="45.30225754715502262115478515625" lon="-71.0953662358224391937255859375">
        <ele>848</ele>
        <time>2026-08-21T23:42:11.000Z</time>
        <extensions>
          <ns3:TrackPointExtension>
            <ns3:hr>138</ns3:hr>
            <ns3:cad>0</ns3:cad>
          </ns3:TrackPointExtension>
        </extensions>
      </trkpt>
      <trkpt lat="45.30225469730794429779052734375" lon="-71.095375455915927886962890625">
        <ele>848</ele>
        <time>2026-08-21T23:42:12.000Z</time>
        <extensions>
          <ns3:TrackPointExtension>
            <ns3:hr>139</ns3:hr>
            <ns3:cad>0</ns3:cad>
          </ns3:TrackPointExtension>
        </extensions>
      </trkpt>
      <trkpt lat="45.30225603841245174407958984375" lon="-71.0953783057630062103271484375">
        <ele>848.20001220703125</ele>
        <time>2026-08-21T23:42:13.000Z</time>
        <extensions>
          <ns3:TrackPointExtension>
            <ns3:hr>139</ns3:hr>
            <ns3:cad>0</ns3:cad>
          </ns3:TrackPointExtension>
        </extensions>
      </trkpt>
      <trkpt lat="45.30225603841245174407958984375" lon="-71.09538559801876544952392578125">
        <ele>848.4000244140625</ele>
        <time>2026-08-21T23:42:14.000Z</time>
        <extensions>
          <ns3:TrackPointExtension>
            <ns3:hr>139</ns3:hr>
            <ns3:cad>0</ns3:cad>
          </ns3:TrackPointExtension>
        </extensions>
      </trkpt>
      <trkpt lat="45.30225201509892940521240234375" lon="-71.095390208065509796142578125">
        <ele>848.4000244140625</ele>
        <time>2026-08-21T23:42:15.000Z</time>
        <extensions>
          <ns3:TrackPointExtension>
            <ns3:hr>139</ns3:hr>
            <ns3:cad>0</ns3:cad>
          </ns3:TrackPointExtension>
        </extensions>
      </trkpt>
      <trkpt lat="45.302249751985073089599609375" lon="-71.09539858996868133544921875">
        <ele>848.5999755859375</ele>
        <time>2026-08-21T23:42:16.000Z</time>
        <extensions>
          <ns3:TrackPointExtension>
            <ns3:hr>140</ns3:hr>
            <ns3:cad>0</ns3:cad>
          </ns3:TrackPointExtension>
        </extensions>
      </trkpt>
      <trkpt lat="45.30224899761378765106201171875" lon="-71.0954078100621700286865234375">
        <ele>848.79998779296875</ele>
        <time>2026-08-21T23:42:17.000Z</time>
        <extensions>
          <ns3:TrackPointExtension>
            <ns3:hr>140</ns3:hr>
            <ns3:cad>0</ns3:cad>
          </ns3:TrackPointExtension>
        </extensions>
      </trkpt>
      <trkpt lat="45.30224748887121677398681640625" lon="-71.09541661106050014495849609375">
        <ele>849</ele>
        <time>2026-08-21T23:42:18.000Z</time>
        <extensions>
          <ns3:TrackPointExtension>
            <ns3:hr>140</ns3:hr>
            <ns3:cad>0</ns3:cad>
          </ns3:TrackPointExtension>
        </extensions>
      </trkpt>
      <trkpt lat="45.3022465668618679046630859375" lon="-71.0954202152788639068603515625">
        <ele>849</ele>
        <time>2026-08-21T23:42:19.000Z</time>
        <extensions>
          <ns3:TrackPointExtension>
            <ns3:hr>140</ns3:hr>
            <ns3:cad>0</ns3:cad>
          </ns3:TrackPointExtension>
        </extensions>
      </trkpt>
      <trkpt lat="45.3022458963096141815185546875" lon="-71.09542407095432281494140625">
        <ele>849.20001220703125</ele>
        <time>2026-08-21T23:42:20.000Z</time>
        <extensions>
          <ns3:TrackPointExtension>
            <ns3:hr>139</ns3:hr>
            <ns3:cad>0</ns3:cad>
          </ns3:TrackPointExtension>
        </extensions>
      </trkpt>
      <trkpt lat="45.30224262736737728118896484375" lon="-71.0954259149730205535888671875">
        <ele>849.20001220703125</ele>
        <time>2026-08-21T23:42:21.000Z</time>
        <extensions>
          <ns3:TrackPointExtension>
            <ns3:hr>139</ns3:hr>
            <ns3:cad>0</ns3:cad>
          </ns3:TrackPointExtension>
        </extensions>
      </trkpt>
      <trkpt lat="45.3022435493767261505126953125" lon="-71.0954363085329532623291015625">
        <ele>849.4000244140625</ele>
        <time>2026-08-21T23:42:22.000Z</time>
        <extensions>
          <ns3:TrackPointExtension>
            <ns3:hr>137</ns3:hr>
            <ns3:cad>0</ns3:cad>
          </ns3:TrackPointExtension>
        </extensions>
      </trkpt>
      <trkpt lat="45.30224497430026531219482421875" lon="-71.095449887216091156005859375">
        <ele>849.4000244140625</ele>
        <time>2026-08-21T23:42:23.000Z</time>
        <extensions>
          <ns3:TrackPointExtension>
            <ns3:hr>136</ns3:hr>
            <ns3:cad>71</ns3:cad>
          </ns3:TrackPointExtension>
        </extensions>
      </trkpt>
      <trkpt lat="45.30224941670894622802734375" lon="-71.0954611189663410186767578125">
        <ele>849.5999755859375</ele>
        <time>2026-08-21T23:42:24.000Z</time>
        <extensions>
          <ns3:TrackPointExtension>
            <ns3:hr>135</ns3:hr>
            <ns3:cad>71</ns3:cad>
          </ns3:TrackPointExtension>
        </extensions>
      </trkpt>
      <trkpt lat="45.302252434194087982177734375" lon="-71.09546564519405364990234375">
        <ele>849.79998779296875</ele>
        <time>2026-08-21T23:42:25.000Z</time>
        <extensions>
          <ns3:TrackPointExtension>
            <ns3:hr>135</ns3:hr>
            <ns3:cad>0</ns3:cad>
          </ns3:TrackPointExtension>
        </extensions>
      </trkpt>
      <trkpt lat="45.30225218273699283599853515625" lon="-71.0954676568508148193359375">
        <ele>849.79998779296875</ele>
        <time>2026-08-21T23:42:26.000Z</time>
        <extensions>
          <ns3:TrackPointExtension>
            <ns3:hr>136</ns3:hr>
            <ns3:cad>0</ns3:cad>
          </ns3:TrackPointExtension>
        </extensions>
      </trkpt>
      <trkpt lat="45.30225117690861225128173828125" lon="-71.09546790830790996551513671875">
        <ele>850</ele>
        <time>2026-08-21T23:42:27.000Z</time>
        <extensions>
          <ns3:TrackPointExtension>
            <ns3:hr>136</ns3:hr>
            <ns3:cad>0</ns3:cad>
          </ns3:TrackPointExtension>
        </extensions>
      </trkpt>
      <trkpt lat="45.30225117690861225128173828125" lon="-71.09546790830790996551513671875">
        <ele>850</ele>
        <time>2026-08-21T23:42:28.000Z</time>
        <extensions>
          <ns3:TrackPointExtension>
            <ns3:hr>136</ns3:hr>
            <ns3:cad>0</ns3:cad>
          </ns3:TrackPointExtension>
        </extensions>
      </trkpt>
      <trkpt lat="45.30225100927054882049560546875" lon="-71.09546790830790996551513671875">
        <ele>850.20001220703125</ele>
        <time>2026-08-21T23:42:29.000Z</time>
        <extensions>
          <ns3:TrackPointExtension>
            <ns3:hr>136</ns3:hr>
            <ns3:cad>0</ns3:cad>
          </ns3:TrackPointExtension>
        </extensions>
      </trkpt>
      <trkpt lat="45.3022509254515171051025390625" lon="-71.09547494910657405853271484375">
        <ele>850.20001220703125</ele>
        <time>2026-08-21T23:42:30.000Z</time>
        <extensions>
          <ns3:TrackPointExtension>
            <ns3:hr>136</ns3:hr>
            <ns3:cad>0</ns3:cad>
          </ns3:TrackPointExtension>
        </extensions>
      </trkpt>
      <trkpt lat="45.3022475726902484893798828125" lon="-71.0954748652875423431396484375">
        <ele>850.4000244140625</ele>
        <time>2026-08-21T23:42:31.000Z</time>
        <extensions>
          <ns3:TrackPointExtension>
            <ns3:hr>136</ns3:hr>
            <ns3:cad>0</ns3:cad>
          </ns3:TrackPointExtension>
        </extensions>
      </trkpt>
      <trkpt lat="45.3022465668618679046630859375" lon="-71.09547595493495464324951171875">
        <ele>850.5999755859375</ele>
        <time>2026-08-21T23:42:32.000Z</time>
        <extensions>
          <ns3:TrackPointExtension>
            <ns3:hr>136</ns3:hr>
            <ns3:cad>74</ns3:cad>
          </ns3:TrackPointExtension>
        </extensions>
      </trkpt>
      <trkpt lat="45.30224598012864589691162109375" lon="-71.095477044582366943359375">
        <ele>850.79998779296875</ele>
        <time>2026-08-21T23:42:33.000Z</time>
        <extensions>
          <ns3:TrackPointExtension>
            <ns3:hr>135</ns3:hr>
            <ns3:cad>74</ns3:cad>
          </ns3:TrackPointExtension>
        </extensions>
      </trkpt>
      <trkpt lat="45.302244387567043304443359375" lon="-71.095480732619762420654296875">
        <ele>851</ele>
        <time>2026-08-21T23:42:34.000Z</time>
        <extensions>
          <ns3:TrackPointExtension>
            <ns3:hr>135</ns3:hr>
            <ns3:cad>74</ns3:cad>
          </ns3:TrackPointExtension>
        </extensions>
      </trkpt>
      <trkpt lat="45.30224128626286983489990234375" lon="-71.0954855941236019134521484375">
        <ele>851.20001220703125</ele>
        <time>2026-08-21T23:42:35.000Z</time>
        <extensions>
          <ns3:TrackPointExtension>
            <ns3:hr>134</ns3:hr>
            <ns3:cad>72</ns3:cad>
          </ns3:TrackPointExtension>
        </extensions>
      </trkpt>
      <trkpt lat="45.30223541893064975738525390625" lon="-71.095487773418426513671875">
        <ele>851.5999755859375</ele>
        <time>2026-08-21T23:42:36.000Z</time>
        <extensions>
          <ns3:TrackPointExtension>
            <ns3:hr>134</ns3:hr>
            <ns3:cad>72</ns3:cad>
          </ns3:TrackPointExtension>
        </extensions>
      </trkpt>
      <trkpt lat="45.30223156325519084930419921875" lon="-71.09549322165548801422119140625">
        <ele>851.5999755859375</ele>
        <time>2026-08-21T23:42:37.000Z</time>
        <extensions>
          <ns3:TrackPointExtension>
            <ns3:hr>135</ns3:hr>
            <ns3:cad>69</ns3:cad>
          </ns3:TrackPointExtension>
        </extensions>
      </trkpt>
      <trkpt lat="45.30223005451261997222900390625" lon="-71.0955000109970569610595703125">
        <ele>851.79998779296875</ele>
        <time>2026-08-21T23:42:38.000Z</time>
        <extensions>
          <ns3:TrackPointExtension>
            <ns3:hr>134</ns3:hr>
            <ns3:cad>69</ns3:cad>
          </ns3:TrackPointExtension>
        </extensions>
      </trkpt>
      <trkpt lat="45.30222519300878047943115234375" lon="-71.09550512395799160003662109375">
        <ele>852</ele>
        <time>2026-08-21T23:42:39.000Z</time>
        <extensions>
          <ns3:TrackPointExtension>
            <ns3:hr>134</ns3:hr>
            <ns3:cad>69</ns3:cad>
          </ns3:TrackPointExtension>
        </extensions>
      </trkpt>
      <trkpt lat="45.30222737230360507965087890625" lon="-71.0955073870718479156494140625">
        <ele>852.20001220703125</ele>
        <time>2026-08-21T23:42:40.000Z</time>
        <extensions>
          <ns3:TrackPointExtension>
            <ns3:hr>134</ns3:hr>
            <ns3:cad>69</ns3:cad>
          </ns3:TrackPointExtension>
        </extensions>
      </trkpt>
      <trkpt lat="45.30222251079976558685302734375" lon="-71.09552306123077869415283203125">
        <ele>852.4000244140625</ele>
        <time>2026-08-21T23:42:41.000Z</time>
        <extensions>
          <ns3:TrackPointExtension>
            <ns3:hr>134</ns3:hr>
            <ns3:cad>69</ns3:cad>
          </ns3:TrackPointExtension>
        </extensions>
      </trkpt>
      <trkpt lat="45.30221915803849697113037109375" lon="-71.09553462825715541839599609375">
        <ele>852.5999755859375</ele>
        <time>2026-08-21T23:42:42.000Z</time>
        <extensions>
          <ns3:TrackPointExtension>
            <ns3:hr>135</ns3:hr>
            <ns3:cad>69</ns3:cad>
          </ns3:TrackPointExtension>
        </extensions>
      </trkpt>
      <trkpt lat="45.30221731401979923248291015625" lon="-71.095547117292881011962890625">
        <ele>852.79998779296875</ele>
        <time>2026-08-21T23:42:43.000Z</time>
        <extensions>
          <ns3:TrackPointExtension>
            <ns3:hr>134</ns3:hr>
            <ns3:cad>69</ns3:cad>
          </ns3:TrackPointExtension>
        </extensions>
      </trkpt>
      <trkpt lat="45.30221630819141864776611328125" lon="-71.09556228853762149810791015625">
        <ele>852.79998779296875</ele>
        <time>2026-08-21T23:42:44.000Z</time>
        <extensions>
          <ns3:TrackPointExtension>
            <ns3:hr>134</ns3:hr>
            <ns3:cad>69</ns3:cad>
          </ns3:TrackPointExtension>
        </extensions>
      </trkpt>
      <trkpt lat="45.30221521854400634765625" lon="-71.09557586722075939178466796875">
        <ele>853</ele>
        <time>2026-08-21T23:42:45.000Z</time>
        <extensions>
          <ns3:TrackPointExtension>
            <ns3:hr>134</ns3:hr>
            <ns3:cad>69</ns3:cad>
          </ns3:TrackPointExtension>
        </extensions>
      </trkpt>
      <trkpt lat="45.30221614055335521697998046875" lon="-71.09558500349521636962890625">
        <ele>853.20001220703125</ele>
        <time>2026-08-21T23:42:46.000Z</time>
        <extensions>
          <ns3:TrackPointExtension>
            <ns3:hr>135</ns3:hr>
            <ns3:cad>40</ns3:cad>
          </ns3:TrackPointExtension>
        </extensions>
      </trkpt>
      <trkpt lat="45.3022157214581966400146484375" lon="-71.09559841454029083251953125">
        <ele>853.20001220703125</ele>
        <time>2026-08-21T23:42:47.000Z</time>
        <extensions>
          <ns3:TrackPointExtension>
            <ns3:hr>135</ns3:hr>
            <ns3:cad>40</ns3:cad>
          </ns3:TrackPointExtension>
        </extensions>
      </trkpt>
      <trkpt lat="45.3022184036672115325927734375" lon="-71.09561040066182613372802734375">
        <ele>853.4000244140625</ele>
        <time>2026-08-21T23:42:48.000Z</time>
        <extensions>
          <ns3:TrackPointExtension>
            <ns3:hr>135</ns3:hr>
            <ns3:cad>40</ns3:cad>
          </ns3:TrackPointExtension>
        </extensions>
      </trkpt>
      <trkpt lat="45.3022214211523532867431640625" lon="-71.095620878040790557861328125">
        <ele>853.4000244140625</ele>
        <time>2026-08-21T23:42:49.000Z</time>
        <extensions>
          <ns3:TrackPointExtension>
            <ns3:hr>135</ns3:hr>
            <ns3:cad>41</ns3:cad>
          </ns3:TrackPointExtension>
        </extensions>
      </trkpt>
      <trkpt lat="45.3022230975329875946044921875" lon="-71.09563194215297698974609375">
        <ele>853.5999755859375</ele>
        <time>2026-08-21T23:42:50.000Z</time>
        <extensions>
          <ns3:TrackPointExtension>
            <ns3:hr>135</ns3:hr>
            <ns3:cad>41</ns3:cad>
          </ns3:TrackPointExtension>
        </extensions>
      </trkpt>
      <trkpt lat="45.30221915803849697113037109375" lon="-71.0956418327987194061279296875">
        <ele>853.5999755859375</ele>
        <time>2026-08-21T23:42:51.000Z</time>
        <extensions>
          <ns3:TrackPointExtension>
            <ns3:hr>135</ns3:hr>
            <ns3:cad>75</ns3:cad>
          </ns3:TrackPointExtension>
        </extensions>
      </trkpt>
      <trkpt lat="45.3022180683910846710205078125" lon="-71.095653735101222991943359375">
        <ele>853.79998779296875</ele>
        <time>2026-08-21T23:42:52.000Z</time>
        <extensions>
          <ns3:TrackPointExtension>
            <ns3:hr>135</ns3:hr>
            <ns3:cad>75</ns3:cad>
          </ns3:TrackPointExtension>
        </extensions>
      </trkpt>
      <trkpt lat="45.302216894924640655517578125" lon="-71.09566588886082172393798828125">
        <ele>854</ele>
        <time>2026-08-21T23:42:53.000Z</time>
        <extensions>
          <ns3:TrackPointExtension>
            <ns3:hr>135</ns3:hr>
            <ns3:cad>75</ns3:cad>
          </ns3:TrackPointExtension>
        </extensions>
      </trkpt>
      <trkpt lat="45.30221681110560894012451171875" lon="-71.0956746898591518402099609375">
        <ele>854</ele>
        <time>2026-08-21T23:42:54.000Z</time>
        <extensions>
          <ns3:TrackPointExtension>
            <ns3:hr>134</ns3:hr>
            <ns3:cad>75</ns3:cad>
          </ns3:TrackPointExtension>
        </extensions>
      </trkpt>
      <trkpt lat="45.30221848748624324798583984375" lon="-71.09568692743778228759765625">
        <ele>854.20001220703125</ele>
        <time>2026-08-21T23:42:55.000Z</time>
        <extensions>
          <ns3:TrackPointExtension>
            <ns3:hr>134</ns3:hr>
            <ns3:cad>75</ns3:cad>
          </ns3:TrackPointExtension>
        </extensions>
      </trkpt>
      <trkpt lat="45.30221899040043354034423828125" lon="-71.09569606371223926544189453125">
        <ele>854.20001220703125</ele>
        <time>2026-08-21T23:42:56.000Z</time>
        <extensions>
          <ns3:TrackPointExtension>
            <ns3:hr>134</ns3:hr>
            <ns3:cad>44</ns3:cad>
          </ns3:TrackPointExtension>
        </extensions>
      </trkpt>
      <trkpt lat="45.3022177331149578094482421875" lon="-71.09570561908185482025146484375">
        <ele>854.4000244140625</ele>
        <time>2026-08-21T23:42:57.000Z</time>
        <extensions>
          <ns3:TrackPointExtension>
            <ns3:hr>134</ns3:hr>
            <ns3:cad>44</ns3:cad>
          </ns3:TrackPointExtension>
        </extensions>
      </trkpt>
      <trkpt lat="45.302220918238162994384765625" lon="-71.095715425908565521240234375">
        <ele>854.4000244140625</ele>
        <time>2026-08-21T23:42:58.000Z</time>
        <extensions>
          <ns3:TrackPointExtension>
            <ns3:hr>134</ns3:hr>
            <ns3:cad>44</ns3:cad>
          </ns3:TrackPointExtension>
        </extensions>
      </trkpt>
      <trkpt lat="45.30222267843782901763916015625" lon="-71.095725484192371368408203125">
        <ele>854.5999755859375</ele>
        <time>2026-08-21T23:42:59.000Z</time>
        <extensions>
          <ns3:TrackPointExtension>
            <ns3:hr>134</ns3:hr>
            <ns3:cad>44</ns3:cad>
          </ns3:TrackPointExtension>
        </extensions>
      </trkpt>
      <trkpt lat="45.3022246062755584716796875" lon="-71.09573646448552608489990234375">
        <ele>854.79998779296875</ele>
        <time>2026-08-21T23:43:00.000Z</time>
        <extensions>
          <ns3:TrackPointExtension>
            <ns3:hr>134</ns3:hr>
            <ns3:cad>44</ns3:cad>
          </ns3:TrackPointExtension>
        </extensions>
      </trkpt>
      <trkpt lat="45.3022284619510173797607421875" lon="-71.0957457683980464935302734375">
        <ele>855</ele>
        <time>2026-08-21T23:43:01.000Z</time>
        <extensions>
          <ns3:TrackPointExtension>
            <ns3:hr>134</ns3:hr>
            <ns3:cad>43</ns3:cad>
          </ns3:TrackPointExtension>
        </extensions>
      </trkpt>
      <trkpt lat="45.30223240144550800323486328125" lon="-71.0957534797489643096923828125">
        <ele>855</ele>
        <time>2026-08-21T23:43:02.000Z</time>
        <extensions>
          <ns3:TrackPointExtension>
            <ns3:hr>134</ns3:hr>
            <ns3:cad>43</ns3:cad>
          </ns3:TrackPointExtension>
        </extensions>
      </trkpt>
      <trkpt lat="45.30223256908357143402099609375" lon="-71.0957625322043895721435546875">
        <ele>855.20001220703125</ele>
        <time>2026-08-21T23:43:03.000Z</time>
        <extensions>
          <ns3:TrackPointExtension>
            <ns3:hr>134</ns3:hr>
            <ns3:cad>41</ns3:cad>
          </ns3:TrackPointExtension>
        </extensions>
      </trkpt>
      <trkpt lat="45.30223122797906398773193359375" lon="-71.09577485360205173492431640625">
        <ele>855.4000244140625</ele>
        <time>2026-08-21T23:43:04.000Z</time>
        <extensions>
          <ns3:TrackPointExtension>
            <ns3:hr>134</ns3:hr>
            <ns3:cad>41</ns3:cad>
          </ns3:TrackPointExtension>
        </extensions>
      </trkpt>
      <trkpt lat="45.30223122797906398773193359375" lon="-71.0957870073616504669189453125">
        <ele>855.4000244140625</ele>
        <time>2026-08-21T23:43:05.000Z</time>
        <extensions>
          <ns3:TrackPointExtension>
            <ns3:hr>134</ns3:hr>
            <ns3:cad>42</ns3:cad>
          </ns3:TrackPointExtension>
        </extensions>
      </trkpt>
      <trkpt lat="45.30223558656871318817138671875" lon="-71.09580100513994693756103515625">
        <ele>855.5999755859375</ele>
        <time>2026-08-21T23:43:06.000Z</time>
        <extensions>
          <ns3:TrackPointExtension>
            <ns3:hr>134</ns3:hr>
            <ns3:cad>42</ns3:cad>
          </ns3:TrackPointExtension>
        </extensions>
      </trkpt>
      <trkpt lat="45.30223709531128406524658203125" lon="-71.0958109796047210693359375">
        <ele>855.79998779296875</ele>
        <time>2026-08-21T23:43:07.000Z</time>
        <extensions>
          <ns3:TrackPointExtension>
            <ns3:hr>134</ns3:hr>
            <ns3:cad>42</ns3:cad>
          </ns3:TrackPointExtension>
        </extensions>
      </trkpt>
      <trkpt lat="45.30223793350160121917724609375" lon="-71.0958235524594783782958984375">
        <ele>856</ele>
        <time>2026-08-21T23:43:08.000Z</time>
        <extensions>
          <ns3:TrackPointExtension>
            <ns3:hr>134</ns3:hr>
            <ns3:cad>44</ns3:cad>
          </ns3:TrackPointExtension>
        </extensions>
      </trkpt>
      <trkpt lat="45.30223743058741092681884765625" lon="-71.09583520330488681793212890625">
        <ele>856.20001220703125</ele>
        <time>2026-08-21T23:43:09.000Z</time>
        <extensions>
          <ns3:TrackPointExtension>
            <ns3:hr>134</ns3:hr>
            <ns3:cad>44</ns3:cad>
          </ns3:TrackPointExtension>
        </extensions>
      </trkpt>
      <trkpt lat="45.3022388555109500885009765625" lon="-71.095843501389026641845703125">
        <ele>856.20001220703125</ele>
        <time>2026-08-21T23:43:10.000Z</time>
        <extensions>
          <ns3:TrackPointExtension>
            <ns3:hr>135</ns3:hr>
            <ns3:cad>43</ns3:cad>
          </ns3:TrackPointExtension>
        </extensions>
      </trkpt>
      <trkpt lat="45.302240364253520965576171875" lon="-71.0958570800721645355224609375">
        <ele>856.4000244140625</ele>
        <time>2026-08-21T23:43:11.000Z</time>
        <extensions>
          <ns3:TrackPointExtension>
            <ns3:hr>135</ns3:hr>
            <ns3:cad>43</ns3:cad>
          </ns3:TrackPointExtension>
        </extensions>
      </trkpt>
      <trkpt lat="45.30223877169191837310791015625" lon="-71.09586529433727264404296875">
        <ele>856.5999755859375</ele>
        <time>2026-08-21T23:43:12.000Z</time>
        <extensions>
          <ns3:TrackPointExtension>
            <ns3:hr>135</ns3:hr>
            <ns3:cad>42</ns3:cad>
          </ns3:TrackPointExtension>
        </extensions>
      </trkpt>
      <trkpt lat="45.302242375910282135009765625" lon="-71.09587409533560276031494140625">
        <ele>856.79998779296875</ele>
        <time>2026-08-21T23:43:13.000Z</time>
        <extensions>
          <ns3:TrackPointExtension>
            <ns3:hr>135</ns3:hr>
            <ns3:cad>42</ns3:cad>
          </ns3:TrackPointExtension>
        </extensions>
      </trkpt>
      <trkpt lat="45.302240364253520965576171875" lon="-71.0958839021623134613037109375">
        <ele>856.79998779296875</ele>
        <time>2026-08-21T23:43:14.000Z</time>
        <extensions>
          <ns3:TrackPointExtension>
            <ns3:hr>136</ns3:hr>
            <ns3:cad>42</ns3:cad>
          </ns3:TrackPointExtension>
        </extensions>
      </trkpt>
      <trkpt lat="45.302239358425140380859375" lon="-71.095885746181011199951171875">
        <ele>857</ele>
        <time>2026-08-21T23:43:15.000Z</time>
        <extensions>
          <ns3:TrackPointExtension>
            <ns3:hr>135</ns3:hr>
            <ns3:cad>0</ns3:cad>
          </ns3:TrackPointExtension>
        </extensions>
      </trkpt>
      <trkpt lat="45.3022375144064426422119140625" lon="-71.09588482417166233062744140625">
        <ele>857.20001220703125</ele>
        <time>2026-08-21T23:43:16.000Z</time>
        <extensions>
          <ns3:TrackPointExtension>
            <ns3:hr>135</ns3:hr>
            <ns3:cad>0</ns3:cad>
          </ns3:TrackPointExtension>
        </extensions>
      </trkpt>
      <trkpt lat="45.3022355027496814727783203125" lon="-71.09588415361940860748291015625">
        <ele>857.20001220703125</ele>
        <time>2026-08-21T23:43:17.000Z</time>
        <extensions>
          <ns3:TrackPointExtension>
            <ns3:hr>135</ns3:hr>
            <ns3:cad>41</ns3:cad>
          </ns3:TrackPointExtension>
        </extensions>
      </trkpt>
      <trkpt lat="45.30223391018807888031005859375" lon="-71.09588515944778919219970703125">
        <ele>857.20001220703125</ele>
        <time>2026-08-21T23:43:18.000Z</time>
        <extensions>
          <ns3:TrackPointExtension>
            <ns3:hr>135</ns3:hr>
            <ns3:cad>41</ns3:cad>
          </ns3:TrackPointExtension>
        </extensions>
      </trkpt>
      <trkpt lat="45.30223575420677661895751953125" lon="-71.0958874225616455078125">
        <ele>857.20001220703125</ele>
        <time>2026-08-21T23:43:19.000Z</time>
        <extensions>
          <ns3:TrackPointExtension>
            <ns3:hr>135</ns3:hr>
            <ns3:cad>41</ns3:cad>
          </ns3:TrackPointExtension>
        </extensions>
      </trkpt>
      <trkpt lat="45.302234999835491180419921875" lon="-71.09588398598134517669677734375">
        <ele>857.20001220703125</ele>
        <time>2026-08-21T23:43:20.000Z</time>
        <extensions>
          <ns3:TrackPointExtension>
            <ns3:hr>135</ns3:hr>
            <ns3:cad>0</ns3:cad>
          </ns3:TrackPointExtension>
        </extensions>
      </trkpt>
      <trkpt lat="45.30223332345485687255859375" lon="-71.0958839021623134613037109375">
        <ele>857.20001220703125</ele>
        <time>2026-08-21T23:43:21.000Z</time>
        <extensions>
          <ns3:TrackPointExtension>
            <ns3:hr>135</ns3:hr>
            <ns3:cad>0</ns3:cad>
          </ns3:TrackPointExtension>
        </extensions>
      </trkpt>
      <trkpt lat="45.30223340727388858795166015625" lon="-71.09588448889553546905517578125">
        <ele>857.20001220703125</ele>
        <time>2026-08-21T23:43:22.000Z</time>
        <extensions>
          <ns3:TrackPointExtension>
            <ns3:hr>134</ns3:hr>
            <ns3:cad>0</ns3:cad>
          </ns3:TrackPointExtension>
        </extensions>
      </trkpt>
      <trkpt lat="45.30223357491195201873779296875" lon="-71.095884740352630615234375">
        <ele>857.4000244140625</ele>
        <time>2026-08-21T23:43:23.000Z</time>
        <extensions>
          <ns3:TrackPointExtension>
            <ns3:hr>134</ns3:hr>
            <ns3:cad>0</ns3:cad>
          </ns3:TrackPointExtension>
        </extensions>
      </trkpt>
      <trkpt lat="45.3022311441600322723388671875" lon="-71.095898151397705078125">
        <ele>857.4000244140625</ele>
        <time>2026-08-21T23:43:24.000Z</time>
        <extensions>
          <ns3:TrackPointExtension>
            <ns3:hr>134</ns3:hr>
            <ns3:cad>0</ns3:cad>
          </ns3:TrackPointExtension>
        </extensions>
      </trkpt>
      <trkpt lat="45.30223173089325428009033203125" lon="-71.095911562442779541015625">
        <ele>857.4000244140625</ele>
        <time>2026-08-21T23:43:25.000Z</time>
        <extensions>
          <ns3:TrackPointExtension>
            <ns3:hr>134</ns3:hr>
            <ns3:cad>0</ns3:cad>
          </ns3:TrackPointExtension>
        </extensions>
      </trkpt>
      <trkpt lat="45.30223357491195201873779296875" lon="-71.09592430293560028076171875">
        <ele>857.4000244140625</ele>
        <time>2026-08-21T23:43:26.000Z</time>
        <extensions>
          <ns3:TrackPointExtension>
            <ns3:hr>134</ns3:hr>
            <ns3:cad>0</ns3:cad>
          </ns3:TrackPointExtension>
        </extensions>
      </trkpt>
      <trkpt lat="45.302230976521968841552734375" lon="-71.09594048000872135162353515625">
        <ele>857.5999755859375</ele>
        <time>2026-08-21T23:43:27.000Z</time>
        <extensions>
          <ns3:TrackPointExtension>
            <ns3:hr>133</ns3:hr>
            <ns3:cad>41</ns3:cad>
          </ns3:TrackPointExtension>
        </extensions>
      </trkpt>
      <trkpt lat="45.30223122797906398773193359375" lon="-71.0959563218057155609130859375">
        <ele>857.79998779296875</ele>
        <time>2026-08-21T23:43:28.000Z</time>
        <extensions>
          <ns3:TrackPointExtension>
            <ns3:hr>132</ns3:hr>
            <ns3:cad>41</ns3:cad>
          </ns3:TrackPointExtension>
        </extensions>
      </trkpt>
      <trkpt lat="45.30223089270293712615966796875" lon="-71.0959717445075511932373046875">
        <ele>858</ele>
        <time>2026-08-21T23:43:29.000Z</time>
        <extensions>
          <ns3:TrackPointExtension>
            <ns3:hr>131</ns3:hr>
            <ns3:cad>41</ns3:cad>
          </ns3:TrackPointExtension>
        </extensions>
      </trkpt>
      <trkpt lat="45.30223223380744457244873046875" lon="-71.095986664295196533203125">
        <ele>858.20001220703125</ele>
        <time>2026-08-21T23:43:30.000Z</time>
        <extensions>
          <ns3:TrackPointExtension>
            <ns3:hr>131</ns3:hr>
            <ns3:cad>41</ns3:cad>
          </ns3:TrackPointExtension>
        </extensions>
      </trkpt>
      <trkpt lat="45.302232988178730010986328125" lon="-71.09599630348384380340576171875">
        <ele>858.4000244140625</ele>
        <time>2026-08-21T23:43:31.000Z</time>
        <extensions>
          <ns3:TrackPointExtension>
            <ns3:hr>131</ns3:hr>
            <ns3:cad>41</ns3:cad>
          </ns3:TrackPointExtension>
        </extensions>
      </trkpt>
      <trkpt lat="45.3022344969213008880615234375" lon="-71.096008457243442535400390625">
        <ele>858.4000244140625</ele>
        <time>2026-08-21T23:43:32.000Z</time>
        <extensions>
          <ns3:TrackPointExtension>
            <ns3:hr>130</ns3:hr>
            <ns3:cad>41</ns3:cad>
          </ns3:TrackPointExtension>
        </extensions>
      </trkpt>
      <trkpt lat="45.30222955159842967987060546875" lon="-71.0960161685943603515625">
        <ele>858.5999755859375</ele>
        <time>2026-08-21T23:43:33.000Z</time>
        <extensions>
          <ns3:TrackPointExtension>
            <ns3:hr>131</ns3:hr>
            <ns3:cad>41</ns3:cad>
          </ns3:TrackPointExtension>
        </extensions>
      </trkpt>
      <trkpt lat="45.302228964865207672119140625" lon="-71.0960294120013713836669921875">
        <ele>858.5999755859375</ele>
        <time>2026-08-21T23:43:34.000Z</time>
        <extensions>
          <ns3:TrackPointExtension>
            <ns3:hr>131</ns3:hr>
            <ns3:cad>43</ns3:cad>
          </ns3:TrackPointExtension>
        </extensions>
      </trkpt>
      <trkpt lat="45.3022294677793979644775390625" lon="-71.09603972174227237701416015625">
        <ele>858.79998779296875</ele>
        <time>2026-08-21T23:43:35.000Z</time>
        <extensions>
          <ns3:TrackPointExtension>
            <ns3:hr>131</ns3:hr>
            <ns3:cad>43</ns3:cad>
          </ns3:TrackPointExtension>
        </extensions>
      </trkpt>
      <trkpt lat="45.30222921632230281829833984375" lon="-71.0960532166063785552978515625">
        <ele>858.79998779296875</ele>
        <time>2026-08-21T23:43:36.000Z</time>
        <extensions>
          <ns3:TrackPointExtension>
            <ns3:hr>131</ns3:hr>
            <ns3:cad>43</ns3:cad>
          </ns3:TrackPointExtension>
        </extensions>
      </trkpt>
      <trkpt lat="45.30222888104617595672607421875" lon="-71.096066124737262725830078125">
        <ele>858.79998779296875</ele>
        <time>2026-08-21T23:43:37.000Z</time>
        <extensions>
          <ns3:TrackPointExtension>
            <ns3:hr>132</ns3:hr>
            <ns3:cad>43</ns3:cad>
          </ns3:TrackPointExtension>
        </extensions>
      </trkpt>
      <trkpt lat="45.302229635417461395263671875" lon="-71.09608330763876438140869140625">
        <ele>859</ele>
        <time>2026-08-21T23:43:38.000Z</time>
        <extensions>
          <ns3:TrackPointExtension>
            <ns3:hr>132</ns3:hr>
            <ns3:cad>43</ns3:cad>
          </ns3:TrackPointExtension>
        </extensions>
      </trkpt>
      <trkpt lat="45.3022294677793979644775390625" lon="-71.09609864652156829833984375">
        <ele>859.20001220703125</ele>
        <time>2026-08-21T23:43:39.000Z</time>
        <extensions>
          <ns3:TrackPointExtension>
            <ns3:hr>132</ns3:hr>
            <ns3:cad>45</ns3:cad>
          </ns3:TrackPointExtension>
        </extensions>
      </trkpt>
      <trkpt lat="45.3022299706935882568359375" lon="-71.0961125604808330535888671875">
        <ele>859.20001220703125</ele>
        <time>2026-08-21T23:43:40.000Z</time>
        <extensions>
          <ns3:TrackPointExtension>
            <ns3:hr>132</ns3:hr>
            <ns3:cad>45</ns3:cad>
          </ns3:TrackPointExtension>
        </extensions>
      </trkpt>
      <trkpt lat="45.302228629589080810546875" lon="-71.09612840227782726287841796875">
        <ele>859.4000244140625</ele>
        <time>2026-08-21T23:43:41.000Z</time>
        <extensions>
          <ns3:TrackPointExtension>
            <ns3:hr>132</ns3:hr>
            <ns3:cad>46</ns3:cad>
          </ns3:TrackPointExtension>
        </extensions>
      </trkpt>
      <trkpt lat="45.30222930014133453369140625" lon="-71.0961449146270751953125">
        <ele>859.4000244140625</ele>
        <time>2026-08-21T23:43:42.000Z</time>
        <extensions>
          <ns3:TrackPointExtension>
            <ns3:hr>132</ns3:hr>
            <ns3:cad>46</ns3:cad>
          </ns3:TrackPointExtension>
        </extensions>
      </trkpt>
      <trkpt lat="45.30223391018807888031005859375" lon="-71.096163354814052581787109375">
        <ele>859.5999755859375</ele>
        <time>2026-08-21T23:43:43.000Z</time>
        <extensions>
          <ns3:TrackPointExtension>
            <ns3:hr>131</ns3:hr>
            <ns3:cad>49</ns3:cad>
          </ns3:TrackPointExtension>
        </extensions>
      </trkpt>
      <trkpt lat="45.30223692767322063446044921875" lon="-71.096181459724903106689453125">
        <ele>859.5999755859375</ele>
        <time>2026-08-21T23:43:44.000Z</time>
        <extensions>
          <ns3:TrackPointExtension>
            <ns3:hr>130</ns3:hr>
            <ns3:cad>50</ns3:cad>
          </ns3:TrackPointExtension>
        </extensions>
      </trkpt>
      <trkpt lat="45.30224111862480640411376953125" lon="-71.09620367176830768585205078125">
        <ele>859.5999755859375</ele>
        <time>2026-08-21T23:43:45.000Z</time>
        <extensions>
          <ns3:TrackPointExtension>
            <ns3:hr>130</ns3:hr>
            <ns3:cad>50</ns3:cad>
          </ns3:TrackPointExtension>
        </extensions>
      </trkpt>
      <trkpt lat="45.302243046462535858154296875" lon="-71.09622345305979251861572265625">
        <ele>859.79998779296875</ele>
        <time>2026-08-21T23:43:46.000Z</time>
        <extensions>
          <ns3:TrackPointExtension>
            <ns3:hr>130</ns3:hr>
            <ns3:cad>51</ns3:cad>
          </ns3:TrackPointExtension>
        </extensions>
      </trkpt>
      <trkpt lat="45.30224849469959735870361328125" lon="-71.09624080359935760498046875">
        <ele>859.79998779296875</ele>
        <time>2026-08-21T23:43:47.000Z</time>
        <extensions>
          <ns3:TrackPointExtension>
            <ns3:hr>130</ns3:hr>
            <ns3:cad>51</ns3:cad>
          </ns3:TrackPointExtension>
        </extensions>
      </trkpt>
      <trkpt lat="45.3022499196231365203857421875" lon="-71.096257232129573822021484375">
        <ele>859.79998779296875</ele>
        <time>2026-08-21T23:43:48.000Z</time>
        <extensions>
          <ns3:TrackPointExtension>
            <ns3:hr>130</ns3:hr>
            <ns3:cad>51</ns3:cad>
          </ns3:TrackPointExtension>
        </extensions>
      </trkpt>
      <trkpt lat="45.302249751985073089599609375" lon="-71.09627709724009037017822265625">
        <ele>860</ele>
        <time>2026-08-21T23:43:49.000Z</time>
        <extensions>
          <ns3:TrackPointExtension>
            <ns3:hr>130</ns3:hr>
            <ns3:cad>51</ns3:cad>
          </ns3:TrackPointExtension>
        </extensions>
      </trkpt>
      <trkpt lat="45.3022499196231365203857421875" lon="-71.09629352577030658721923828125">
        <ele>860</ele>
        <time>2026-08-21T23:43:50.000Z</time>
        <extensions>
          <ns3:TrackPointExtension>
            <ns3:hr>130</ns3:hr>
            <ns3:cad>56</ns3:cad>
          </ns3:TrackPointExtension>
        </extensions>
      </trkpt>
      <trkpt lat="45.3022502548992633819580078125" lon="-71.0963093675673007965087890625">
        <ele>860.20001220703125</ele>
        <time>2026-08-21T23:43:51.000Z</time>
        <extensions>
          <ns3:TrackPointExtension>
            <ns3:hr>130</ns3:hr>
            <ns3:cad>56</ns3:cad>
          </ns3:TrackPointExtension>
        </extensions>
      </trkpt>
      <trkpt lat="45.3022526018321514129638671875" lon="-71.09632403589785099029541015625">
        <ele>860.20001220703125</ele>
        <time>2026-08-21T23:43:52.000Z</time>
        <extensions>
          <ns3:TrackPointExtension>
            <ns3:hr>130</ns3:hr>
            <ns3:cad>56</ns3:cad>
          </ns3:TrackPointExtension>
        </extensions>
      </trkpt>
      <trkpt lat="45.3022519312798976898193359375" lon="-71.09633727930486202239990234375">
        <ele>860.4000244140625</ele>
        <time>2026-08-21T23:43:53.000Z</time>
        <extensions>
          <ns3:TrackPointExtension>
            <ns3:hr>131</ns3:hr>
            <ns3:cad>53</ns3:cad>
          </ns3:TrackPointExtension>
        </extensions>
      </trkpt>
      <trkpt lat="45.30224882997572422027587890625" lon="-71.0963581502437591552734375">
        <ele>860.5999755859375</ele>
        <time>2026-08-21T23:43:54.000Z</time>
        <extensions>
          <ns3:TrackPointExtension>
            <ns3:hr>130</ns3:hr>
            <ns3:cad>53</ns3:cad>
          </ns3:TrackPointExtension>
        </extensions>
      </trkpt>
      <trkpt lat="45.302247069776058197021484375" lon="-71.0963727347552776336669921875">
        <ele>860.79998779296875</ele>
        <time>2026-08-21T23:43:55.000Z</time>
        <extensions>
          <ns3:TrackPointExtension>
            <ns3:hr>130</ns3:hr>
            <ns3:cad>50</ns3:cad>
          </ns3:TrackPointExtension>
        </extensions>
      </trkpt>
      <trkpt lat="45.3022460639476776123046875" lon="-71.096390672028064727783203125">
        <ele>861</ele>
        <time>2026-08-21T23:43:56.000Z</time>
        <extensions>
          <ns3:TrackPointExtension>
            <ns3:hr>130</ns3:hr>
            <ns3:cad>49</ns3:cad>
          </ns3:TrackPointExtension>
        </extensions>
      </trkpt>
      <trkpt lat="45.30224463902413845062255859375" lon="-71.0964052565395832061767578125">
        <ele>861</ele>
        <time>2026-08-21T23:43:57.000Z</time>
        <extensions>
          <ns3:TrackPointExtension>
            <ns3:hr>130</ns3:hr>
            <ns3:cad>49</ns3:cad>
          </ns3:TrackPointExtension>
        </extensions>
      </trkpt>
      <trkpt lat="45.30224497430026531219482421875" lon="-71.09641925431787967681884765625">
        <ele>861.20001220703125</ele>
        <time>2026-08-21T23:43:58.000Z</time>
        <extensions>
          <ns3:TrackPointExtension>
            <ns3:hr>129</ns3:hr>
            <ns3:cad>51</ns3:cad>
          </ns3:TrackPointExtension>
        </extensions>
      </trkpt>
      <trkpt lat="45.30224614776670932769775390625" lon="-71.09643585048615932464599609375">
        <ele>861.20001220703125</ele>
        <time>2026-08-21T23:43:59.000Z</time>
        <extensions>
          <ns3:TrackPointExtension>
            <ns3:hr>129</ns3:hr>
            <ns3:cad>51</ns3:cad>
          </ns3:TrackPointExtension>
        </extensions>
      </trkpt>
      <trkpt lat="45.30224564485251903533935546875" lon="-71.09645403921604156494140625">
        <ele>861</ele>
        <time>2026-08-21T23:44:00.000Z</time>
        <extensions>
          <ns3:TrackPointExtension>
            <ns3:hr>129</ns3:hr>
            <ns3:cad>50</ns3:cad>
          </ns3:TrackPointExtension>
        </extensions>
      </trkpt>
      <trkpt lat="45.30224497430026531219482421875" lon="-71.09647457487881183624267578125">
        <ele>861</ele>
        <time>2026-08-21T23:44:01.000Z</time>
        <extensions>
          <ns3:TrackPointExtension>
            <ns3:hr>129</ns3:hr>
            <ns3:cad>50</ns3:cad>
          </ns3:TrackPointExtension>
        </extensions>
      </trkpt>
      <trkpt lat="45.3022452257573604583740234375" lon="-71.0964870639145374298095703125">
        <ele>861.20001220703125</ele>
        <time>2026-08-21T23:44:02.000Z</time>
        <extensions>
          <ns3:TrackPointExtension>
            <ns3:hr>129</ns3:hr>
            <ns3:cad>50</ns3:cad>
          </ns3:TrackPointExtension>
        </extensions>
      </trkpt>
      <trkpt lat="45.30224715359508991241455078125" lon="-71.09649921767413616180419921875">
        <ele>861.20001220703125</ele>
        <time>2026-08-21T23:44:03.000Z</time>
        <extensions>
          <ns3:TrackPointExtension>
            <ns3:hr>129</ns3:hr>
            <ns3:cad>50</ns3:cad>
          </ns3:TrackPointExtension>
        </extensions>
      </trkpt>
      <trkpt lat="45.3022492490708827972412109375" lon="-71.09651078470051288604736328125">
        <ele>861.4000244140625</ele>
        <time>2026-08-21T23:44:04.000Z</time>
        <extensions>
          <ns3:TrackPointExtension>
            <ns3:hr>128</ns3:hr>
            <ns3:cad>50</ns3:cad>
          </ns3:TrackPointExtension>
        </extensions>
      </trkpt>
      <trkpt lat="45.30224983580410480499267578125" lon="-71.0965239442884922027587890625">
        <ele>861.5999755859375</ele>
        <time>2026-08-21T23:44:05.000Z</time>
        <extensions>
          <ns3:TrackPointExtension>
            <ns3:hr>128</ns3:hr>
            <ns3:cad>49</ns3:cad>
          </ns3:TrackPointExtension>
        </extensions>
      </trkpt>
      <trkpt lat="45.3022487461566925048828125" lon="-71.09653182327747344970703125">
        <ele>861.79998779296875</ele>
        <time>2026-08-21T23:44:06.000Z</time>
        <extensions>
          <ns3:TrackPointExtension>
            <ns3:hr>128</ns3:hr>
            <ns3:cad>49</ns3:cad>
          </ns3:TrackPointExtension>
        </extensions>
      </trkpt>
      <trkpt lat="45.30225218273699283599853515625" lon="-71.0965470783412456512451171875">
        <ele>862</ele>
        <time>2026-08-21T23:44:07.000Z</time>
        <extensions>
          <ns3:TrackPointExtension>
            <ns3:hr>128</ns3:hr>
            <ns3:cad>0</ns3:cad>
          </ns3:TrackPointExtension>
        </extensions>
      </trkpt>
      <trkpt lat="45.3022576309740543365478515625" lon="-71.09655671752989292144775390625">
        <ele>862</ele>
        <time>2026-08-21T23:44:08.000Z</time>
        <extensions>
          <ns3:TrackPointExtension>
            <ns3:hr>128</ns3:hr>
            <ns3:cad>0</ns3:cad>
          </ns3:TrackPointExtension>
        </extensions>
      </trkpt>
      <trkpt lat="45.3022643364965915679931640625" lon="-71.0965772531926631927490234375">
        <ele>862.20001220703125</ele>
        <time>2026-08-21T23:44:09.000Z</time>
        <extensions>
          <ns3:TrackPointExtension>
            <ns3:hr>128</ns3:hr>
            <ns3:cad>0</ns3:cad>
          </ns3:TrackPointExtension>
        </extensions>
      </trkpt>
      <trkpt lat="45.3022676892578601837158203125" lon="-71.09658555127680301666259765625">
        <ele>862.4000244140625</ele>
        <time>2026-08-21T23:44:10.000Z</time>
        <extensions>
          <ns3:TrackPointExtension>
            <ns3:hr>128</ns3:hr>
            <ns3:cad>0</ns3:cad>
          </ns3:TrackPointExtension>
        </extensions>
      </trkpt>
      <trkpt lat="45.302269868552684783935546875" lon="-71.096593849360942840576171875">
        <ele>862.5999755859375</ele>
        <time>2026-08-21T23:44:11.000Z</time>
        <extensions>
          <ns3:TrackPointExtension>
            <ns3:hr>128</ns3:hr>
            <ns3:cad>0</ns3:cad>
          </ns3:TrackPointExtension>
        </extensions>
      </trkpt>
      <trkpt lat="45.3022713772952556610107421875" lon="-71.09660767950117588043212890625">
        <ele>862.5999755859375</ele>
        <time>2026-08-21T23:44:12.000Z</time>
        <extensions>
          <ns3:TrackPointExtension>
            <ns3:hr>128</ns3:hr>
            <ns3:cad>0</ns3:cad>
          </ns3:TrackPointExtension>
        </extensions>
      </trkpt>
      <trkpt lat="45.3022728860378265380859375" lon="-71.09662427566945552825927734375">
        <ele>862.79998779296875</ele>
        <time>2026-08-21T23:44:13.000Z</time>
        <extensions>
          <ns3:TrackPointExtension>
            <ns3:hr>128</ns3:hr>
            <ns3:cad>0</ns3:cad>
          </ns3:TrackPointExtension>
        </extensions>
      </trkpt>
      <trkpt lat="45.30227296985685825347900390625" lon="-71.09664606861770153045654296875">
        <ele>863</ele>
        <time>2026-08-21T23:44:14.000Z</time>
        <extensions>
          <ns3:TrackPointExtension>
            <ns3:hr>129</ns3:hr>
            <ns3:cad>0</ns3:cad>
          </ns3:TrackPointExtension>
        </extensions>
      </trkpt>
      <trkpt lat="45.3022713772952556610107421875" lon="-71.09665730036795139312744140625">
        <ele>863</ele>
        <time>2026-08-21T23:44:15.000Z</time>
        <extensions>
          <ns3:TrackPointExtension>
            <ns3:hr>129</ns3:hr>
            <ns3:cad>0</ns3:cad>
          </ns3:TrackPointExtension>
        </extensions>
      </trkpt>
      <trkpt lat="45.30226928181946277618408203125" lon="-71.09667263925075531005859375">
        <ele>863</ele>
        <time>2026-08-21T23:44:16.000Z</time>
        <extensions>
          <ns3:TrackPointExtension>
            <ns3:hr>130</ns3:hr>
            <ns3:cad>0</ns3:cad>
          </ns3:TrackPointExtension>
        </extensions>
      </trkpt>
      <trkpt lat="45.30226442031562328338623046875" lon="-71.09668848104774951934814453125">
        <ele>863</ele>
        <time>2026-08-21T23:44:17.000Z</time>
        <extensions>
          <ns3:TrackPointExtension>
            <ns3:hr>130</ns3:hr>
            <ns3:cad>0</ns3:cad>
          </ns3:TrackPointExtension>
        </extensions>
      </trkpt>
      <trkpt lat="45.30225872062146663665771484375" lon="-71.0967006348073482513427734375">
        <ele>863.20001220703125</ele>
        <time>2026-08-21T23:44:18.000Z</time>
        <extensions>
          <ns3:TrackPointExtension>
            <ns3:hr>130</ns3:hr>
            <ns3:cad>0</ns3:cad>
          </ns3:TrackPointExtension>
        </extensions>
      </trkpt>
      <trkpt lat="45.3022556193172931671142578125" lon="-71.0967059992253780364990234375">
        <ele>863.20001220703125</ele>
        <time>2026-08-21T23:44:19.000Z</time>
        <extensions>
          <ns3:TrackPointExtension>
            <ns3:hr>130</ns3:hr>
            <ns3:cad>0</ns3:cad>
          </ns3:TrackPointExtension>
        </extensions>
      </trkpt>
      <trkpt lat="45.30225486494600772857666015625" lon="-71.0967256128787994384765625">
        <ele>863.20001220703125</ele>
        <time>2026-08-21T23:44:20.000Z</time>
        <extensions>
          <ns3:TrackPointExtension>
            <ns3:hr>130</ns3:hr>
            <ns3:cad>0</ns3:cad>
          </ns3:TrackPointExtension>
        </extensions>
      </trkpt>
      <trkpt lat="45.302252434194087982177734375" lon="-71.096744053065776824951171875">
        <ele>863.4000244140625</ele>
        <time>2026-08-21T23:44:21.000Z</time>
        <extensions>
          <ns3:TrackPointExtension>
            <ns3:hr>130</ns3:hr>
            <ns3:cad>0</ns3:cad>
          </ns3:TrackPointExtension>
        </extensions>
      </trkpt>
      <trkpt lat="45.30225084163248538970947265625" lon="-71.0967589728534221649169921875">
        <ele>863.4000244140625</ele>
        <time>2026-08-21T23:44:22.000Z</time>
        <extensions>
          <ns3:TrackPointExtension>
            <ns3:hr>130</ns3:hr>
            <ns3:cad>0</ns3:cad>
          </ns3:TrackPointExtension>
        </extensions>
      </trkpt>
      <trkpt lat="45.30225033871829509735107421875" lon="-71.09676928259432315826416015625">
        <ele>863.4000244140625</ele>
        <time>2026-08-21T23:44:23.000Z</time>
        <extensions>
          <ns3:TrackPointExtension>
            <ns3:hr>130</ns3:hr>
            <ns3:cad>0</ns3:cad>
          </ns3:TrackPointExtension>
        </extensions>
      </trkpt>
      <trkpt lat="45.30224966816604137420654296875" lon="-71.09678705222904682159423828125">
        <ele>863.4000244140625</ele>
        <time>2026-08-21T23:44:24.000Z</time>
        <extensions>
          <ns3:TrackPointExtension>
            <ns3:hr>130</ns3:hr>
            <ns3:cad>0</ns3:cad>
          </ns3:TrackPointExtension>
        </extensions>
      </trkpt>
      <trkpt lat="45.302248410880565643310546875" lon="-71.0968072526156902313232421875">
        <ele>863.4000244140625</ele>
        <time>2026-08-21T23:44:25.000Z</time>
        <extensions>
          <ns3:TrackPointExtension>
            <ns3:hr>131</ns3:hr>
            <ns3:cad>0</ns3:cad>
          </ns3:TrackPointExtension>
        </extensions>
      </trkpt>
      <trkpt lat="45.30224195681512355804443359375" lon="-71.09682661481201648712158203125">
        <ele>863.20001220703125</ele>
        <time>2026-08-21T23:44:26.000Z</time>
        <extensions>
          <ns3:TrackPointExtension>
            <ns3:hr>131</ns3:hr>
            <ns3:cad>0</ns3:cad>
          </ns3:TrackPointExtension>
        </extensions>
      </trkpt>
      <trkpt lat="45.302237011492252349853515625" lon="-71.0968417860567569732666015625">
        <ele>863.20001220703125</ele>
        <time>2026-08-21T23:44:27.000Z</time>
        <extensions>
          <ns3:TrackPointExtension>
            <ns3:hr>131</ns3:hr>
            <ns3:cad>0</ns3:cad>
          </ns3:TrackPointExtension>
        </extensions>
      </trkpt>
      <trkpt lat="45.30223391018807888031005859375" lon="-71.096854694187641143798828125">
        <ele>863</ele>
        <time>2026-08-21T23:44:28.000Z</time>
        <extensions>
          <ns3:TrackPointExtension>
            <ns3:hr>131</ns3:hr>
            <ns3:cad>0</ns3:cad>
          </ns3:TrackPointExtension>
        </extensions>
      </trkpt>
      <trkpt lat="45.3022304736077785491943359375" lon="-71.0968744754791259765625">
        <ele>863</ele>
        <time>2026-08-21T23:44:29.000Z</time>
        <extensions>
          <ns3:TrackPointExtension>
            <ns3:hr>130</ns3:hr>
            <ns3:cad>0</ns3:cad>
          </ns3:TrackPointExtension>
        </extensions>
      </trkpt>
      <trkpt lat="45.302225612103939056396484375" lon="-71.09689618460834026336669921875">
        <ele>863</ele>
        <time>2026-08-21T23:44:30.000Z</time>
        <extensions>
          <ns3:TrackPointExtension>
            <ns3:hr>130</ns3:hr>
            <ns3:cad>0</ns3:cad>
          </ns3:TrackPointExtension>
        </extensions>
      </trkpt>
      <trkpt lat="45.3022192418575286865234375" lon="-71.0969155468046665191650390625">
        <ele>863</ele>
        <time>2026-08-21T23:44:31.000Z</time>
        <extensions>
          <ns3:TrackPointExtension>
            <ns3:hr>130</ns3:hr>
            <ns3:cad>56</ns3:cad>
          </ns3:TrackPointExtension>
        </extensions>
      </trkpt>
      <trkpt lat="45.30221329070627689361572265625" lon="-71.09692887403070926666259765625">
        <ele>863</ele>
        <time>2026-08-21T23:44:32.000Z</time>
        <extensions>
          <ns3:TrackPointExtension>
            <ns3:hr>130</ns3:hr>
            <ns3:cad>56</ns3:cad>
          </ns3:TrackPointExtension>
        </extensions>
      </trkpt>
      <trkpt lat="45.30220918357372283935546875" lon="-71.09693960286676883697509765625">
        <ele>863</ele>
        <time>2026-08-21T23:44:33.000Z</time>
        <extensions>
          <ns3:TrackPointExtension>
            <ns3:hr>130</ns3:hr>
            <ns3:cad>56</ns3:cad>
          </ns3:TrackPointExtension>
        </extensions>
      </trkpt>
      <trkpt lat="45.3022036515176296234130859375" lon="-71.096955277025699615478515625">
        <ele>863</ele>
        <time>2026-08-21T23:44:34.000Z</time>
        <extensions>
          <ns3:TrackPointExtension>
            <ns3:hr>130</ns3:hr>
            <ns3:cad>56</ns3:cad>
          </ns3:TrackPointExtension>
        </extensions>
      </trkpt>
      <trkpt lat="45.3021982870995998382568359375" lon="-71.096964664757251739501953125">
        <ele>863</ele>
        <time>2026-08-21T23:44:35.000Z</time>
        <extensions>
          <ns3:TrackPointExtension>
            <ns3:hr>130</ns3:hr>
            <ns3:cad>56</ns3:cad>
          </ns3:TrackPointExtension>
        </extensions>
      </trkpt>
      <trkpt lat="45.30219317413866519927978515625" lon="-71.0969735495746135711669921875">
        <ele>863</ele>
        <time>2026-08-21T23:44:36.000Z</time>
        <extensions>
          <ns3:TrackPointExtension>
            <ns3:hr>130</ns3:hr>
            <ns3:cad>56</ns3:cad>
          </ns3:TrackPointExtension>
        </extensions>
      </trkpt>
      <trkpt lat="45.3021838702261447906494140625" lon="-71.09699475578963756561279296875">
        <ele>863</ele>
        <time>2026-08-21T23:44:37.000Z</time>
        <extensions>
          <ns3:TrackPointExtension>
            <ns3:hr>130</ns3:hr>
            <ns3:cad>56</ns3:cad>
          </ns3:TrackPointExtension>
        </extensions>
      </trkpt>
      <trkpt lat="45.30217674560844898223876953125" lon="-71.09701537527143955230712890625">
        <ele>863</ele>
        <time>2026-08-21T23:44:38.000Z</time>
        <extensions>
          <ns3:TrackPointExtension>
            <ns3:hr>130</ns3:hr>
            <ns3:cad>48</ns3:cad>
          </ns3:TrackPointExtension>
        </extensions>
      </trkpt>
      <trkpt lat="45.30216920189559459686279296875" lon="-71.0970328934490680694580078125">
        <ele>863</ele>
        <time>2026-08-21T23:44:39.000Z</time>
        <extensions>
          <ns3:TrackPointExtension>
            <ns3:hr>130</ns3:hr>
            <ns3:cad>48</ns3:cad>
          </ns3:TrackPointExtension>
        </extensions>
      </trkpt>
      <trkpt lat="45.30216266401112079620361328125" lon="-71.0970476455986499786376953125">
        <ele>863</ele>
        <time>2026-08-21T23:44:40.000Z</time>
        <extensions>
          <ns3:TrackPointExtension>
            <ns3:hr>130</ns3:hr>
            <ns3:cad>48</ns3:cad>
          </ns3:TrackPointExtension>
        </extensions>
      </trkpt>
      <trkpt lat="45.302153863012790679931640625" lon="-71.09706415794789791107177734375">
        <ele>863.20001220703125</ele>
        <time>2026-08-21T23:44:41.000Z</time>
        <extensions>
          <ns3:TrackPointExtension>
            <ns3:hr>130</ns3:hr>
            <ns3:cad>48</ns3:cad>
          </ns3:TrackPointExtension>
        </extensions>
      </trkpt>
      <trkpt lat="45.30214724130928516387939453125" lon="-71.0970815084874629974365234375">
        <ele>863.20001220703125</ele>
        <time>2026-08-21T23:44:42.000Z</time>
        <extensions>
          <ns3:TrackPointExtension>
            <ns3:hr>129</ns3:hr>
            <ns3:cad>0</ns3:cad>
          </ns3:TrackPointExtension>
        </extensions>
      </trkpt>
      <trkpt lat="45.302139781415462493896484375" lon="-71.0970984399318695068359375">
        <ele>863.20001220703125</ele>
        <time>2026-08-21T23:44:43.000Z</time>
        <extensions>
          <ns3:TrackPointExtension>
            <ns3:hr>129</ns3:hr>
            <ns3:cad>0</ns3:cad>
          </ns3:TrackPointExtension>
        </extensions>
      </trkpt>
      <trkpt lat="45.30213014222681522369384765625" lon="-71.09711612574756145477294921875">
        <ele>863.20001220703125</ele>
        <time>2026-08-21T23:44:44.000Z</time>
        <extensions>
          <ns3:TrackPointExtension>
            <ns3:hr>129</ns3:hr>
            <ns3:cad>0</ns3:cad>
          </ns3:TrackPointExtension>
        </extensions>
      </trkpt>
      <trkpt lat="45.3021240234375" lon="-71.09713288955390453338623046875">
        <ele>863.20001220703125</ele>
        <time>2026-08-21T23:44:45.000Z</time>
        <extensions>
          <ns3:TrackPointExtension>
            <ns3:hr>128</ns3:hr>
            <ns3:cad>0</ns3:cad>
          </ns3:TrackPointExtension>
        </extensions>
      </trkpt>
      <trkpt lat="45.30211790464818477630615234375" lon="-71.09714596532285213470458984375">
        <ele>863.20001220703125</ele>
        <time>2026-08-21T23:44:46.000Z</time>
        <extensions>
          <ns3:TrackPointExtension>
            <ns3:hr>128</ns3:hr>
            <ns3:cad>0</ns3:cad>
          </ns3:TrackPointExtension>
        </extensions>
      </trkpt>
      <trkpt lat="45.30210499651730060577392578125" lon="-71.09716348350048065185546875">
        <ele>863.20001220703125</ele>
        <time>2026-08-21T23:44:47.000Z</time>
        <extensions>
          <ns3:TrackPointExtension>
            <ns3:hr>127</ns3:hr>
            <ns3:cad>0</ns3:cad>
          </ns3:TrackPointExtension>
        </extensions>
      </trkpt>
      <trkpt lat="45.30209611169993877410888671875" lon="-71.09717664308845996856689453125">
        <ele>863.20001220703125</ele>
        <time>2026-08-21T23:44:48.000Z</time>
        <extensions>
          <ns3:TrackPointExtension>
            <ns3:hr>126</ns3:hr>
            <ns3:cad>0</ns3:cad>
          </ns3:TrackPointExtension>
        </extensions>
      </trkpt>
      <trkpt lat="45.302089154720306396484375" lon="-71.0971864499151706695556640625">
        <ele>863.4000244140625</ele>
        <time>2026-08-21T23:44:49.000Z</time>
        <extensions>
          <ns3:TrackPointExtension>
            <ns3:hr>126</ns3:hr>
            <ns3:cad>0</ns3:cad>
          </ns3:TrackPointExtension>
        </extensions>
      </trkpt>
      <trkpt lat="45.3020779229700565338134765625" lon="-71.09720329754054546356201171875">
        <ele>863.4000244140625</ele>
        <time>2026-08-21T23:44:50.000Z</time>
        <extensions>
          <ns3:TrackPointExtension>
            <ns3:hr>127</ns3:hr>
            <ns3:cad>55</ns3:cad>
          </ns3:TrackPointExtension>
        </extensions>
      </trkpt>
      <trkpt lat="45.30206576921045780181884765625" lon="-71.097218133509159088134765625">
        <ele>863.4000244140625</ele>
        <time>2026-08-21T23:44:51.000Z</time>
        <extensions>
          <ns3:TrackPointExtension>
            <ns3:hr>128</ns3:hr>
            <ns3:cad>55</ns3:cad>
          </ns3:TrackPointExtension>
        </extensions>
      </trkpt>
      <trkpt lat="45.30205227434635162353515625" lon="-71.0972300358116626739501953125">
        <ele>863.4000244140625</ele>
        <time>2026-08-21T23:44:52.000Z</time>
        <extensions>
          <ns3:TrackPointExtension>
            <ns3:hr>128</ns3:hr>
            <ns3:cad>55</ns3:cad>
          </ns3:TrackPointExtension>
        </extensions>
      </trkpt>
      <trkpt lat="45.3020427189767360687255859375" lon="-71.097236573696136474609375">
        <ele>863.5999755859375</ele>
        <time>2026-08-21T23:44:53.000Z</time>
        <extensions>
          <ns3:TrackPointExtension>
            <ns3:hr>127</ns3:hr>
            <ns3:cad>55</ns3:cad>
          </ns3:TrackPointExtension>
        </extensions>
      </trkpt>
      <trkpt lat="45.30202771537005901336669921875" lon="-71.09724889509379863739013671875">
        <ele>863.5999755859375</ele>
        <time>2026-08-21T23:44:54.000Z</time>
        <extensions>
          <ns3:TrackPointExtension>
            <ns3:hr>127</ns3:hr>
            <ns3:cad>52</ns3:cad>
          </ns3:TrackPointExtension>
        </extensions>
      </trkpt>
      <trkpt lat="45.3020152263343334197998046875" lon="-71.0972612164914608001708984375">
        <ele>863.5999755859375</ele>
        <time>2026-08-21T23:44:55.000Z</time>
        <extensions>
          <ns3:TrackPointExtension>
            <ns3:hr>127</ns3:hr>
            <ns3:cad>52</ns3:cad>
          </ns3:TrackPointExtension>
        </extensions>
      </trkpt>
      <trkpt lat="45.30200064182281494140625" lon="-71.097269766032695770263671875">
        <ele>863.79998779296875</ele>
        <time>2026-08-21T23:44:56.000Z</time>
        <extensions>
          <ns3:TrackPointExtension>
            <ns3:hr>127</ns3:hr>
            <ns3:cad>52</ns3:cad>
          </ns3:TrackPointExtension>
        </extensions>
      </trkpt>
      <trkpt lat="45.30198815278708934783935546875" lon="-71.097275130450725555419921875">
        <ele>863.79998779296875</ele>
        <time>2026-08-21T23:44:57.000Z</time>
        <extensions>
          <ns3:TrackPointExtension>
            <ns3:hr>127</ns3:hr>
            <ns3:cad>52</ns3:cad>
          </ns3:TrackPointExtension>
        </extensions>
      </trkpt>
      <trkpt lat="45.30197574757039546966552734375" lon="-71.09728594310581684112548828125">
        <ele>863.79998779296875</ele>
        <time>2026-08-21T23:44:58.000Z</time>
        <extensions>
          <ns3:TrackPointExtension>
            <ns3:hr>126</ns3:hr>
            <ns3:cad>52</ns3:cad>
          </ns3:TrackPointExtension>
        </extensions>
      </trkpt>
      <trkpt lat="45.3019615821540355682373046875" lon="-71.09729683957993984222412109375">
        <ele>863.79998779296875</ele>
        <time>2026-08-21T23:44:59.000Z</time>
        <extensions>
          <ns3:TrackPointExtension>
            <ns3:hr>126</ns3:hr>
            <ns3:cad>52</ns3:cad>
          </ns3:TrackPointExtension>
        </extensions>
      </trkpt>
      <trkpt lat="45.3019491769373416900634765625" lon="-71.0973022878170013427734375">
        <ele>863.79998779296875</ele>
        <time>2026-08-21T23:45:00.000Z</time>
        <extensions>
          <ns3:TrackPointExtension>
            <ns3:hr>127</ns3:hr>
            <ns3:cad>64</ns3:cad>
          </ns3:TrackPointExtension>
        </extensions>
      </trkpt>
      <trkpt lat="45.30193568207323551177978515625" lon="-71.097308658063411712646484375">
        <ele>863.5999755859375</ele>
        <time>2026-08-21T23:45:01.000Z</time>
        <extensions>
          <ns3:TrackPointExtension>
            <ns3:hr>127</ns3:hr>
            <ns3:cad>64</ns3:cad>
          </ns3:TrackPointExtension>
        </extensions>
      </trkpt>
      <trkpt lat="45.30192411504685878753662109375" lon="-71.09731695614755153656005859375">
        <ele>863.5999755859375</ele>
        <time>2026-08-21T23:45:02.000Z</time>
        <extensions>
          <ns3:TrackPointExtension>
            <ns3:hr>128</ns3:hr>
            <ns3:cad>64</ns3:cad>
          </ns3:TrackPointExtension>
        </extensions>
      </trkpt>
      <trkpt lat="45.30190802179276943206787109375" lon="-71.09732902608811855316162109375">
        <ele>863.4000244140625</ele>
        <time>2026-08-21T23:45:03.000Z</time>
        <extensions>
          <ns3:TrackPointExtension>
            <ns3:hr>129</ns3:hr>
            <ns3:cad>64</ns3:cad>
          </ns3:TrackPointExtension>
        </extensions>
      </trkpt>
      <trkpt lat="45.30189712531864643096923828125" lon="-71.097336150705814361572265625">
        <ele>863.4000244140625</ele>
        <time>2026-08-21T23:45:04.000Z</time>
        <extensions>
          <ns3:TrackPointExtension>
            <ns3:hr>129</ns3:hr>
            <ns3:cad>64</ns3:cad>
          </ns3:TrackPointExtension>
        </extensions>
      </trkpt>
      <trkpt lat="45.30188463628292083740234375" lon="-71.09734855592250823974609375">
        <ele>863.20001220703125</ele>
        <time>2026-08-21T23:45:05.000Z</time>
        <extensions>
          <ns3:TrackPointExtension>
            <ns3:hr>130</ns3:hr>
            <ns3:cad>64</ns3:cad>
          </ns3:TrackPointExtension>
        </extensions>
      </trkpt>
      <trkpt lat="45.30186745338141918182373046875" lon="-71.09735928475856781005859375">
        <ele>863.20001220703125</ele>
        <time>2026-08-21T23:45:06.000Z</time>
        <extensions>
          <ns3:TrackPointExtension>
            <ns3:hr>130</ns3:hr>
            <ns3:cad>64</ns3:cad>
          </ns3:TrackPointExtension>
        </extensions>
      </trkpt>
      <trkpt lat="45.30185387469828128814697265625" lon="-71.09737931750714778900146484375">
        <ele>863</ele>
        <time>2026-08-21T23:45:07.000Z</time>
        <extensions>
          <ns3:TrackPointExtension>
            <ns3:hr>130</ns3:hr>
            <ns3:cad>0</ns3:cad>
          </ns3:TrackPointExtension>
        </extensions>
      </trkpt>
      <trkpt lat="45.301845073699951171875" lon="-71.09739658422768115997314453125">
        <ele>863</ele>
        <time>2026-08-21T23:45:08.000Z</time>
        <extensions>
          <ns3:TrackPointExtension>
            <ns3:hr>129</ns3:hr>
            <ns3:cad>0</ns3:cad>
          </ns3:TrackPointExtension>
        </extensions>
      </trkpt>
      <trkpt lat="45.301838703453540802001953125" lon="-71.09741200692951679229736328125">
        <ele>862.79998779296875</ele>
        <time>2026-08-21T23:45:09.000Z</time>
        <extensions>
          <ns3:TrackPointExtension>
            <ns3:hr>129</ns3:hr>
            <ns3:cad>0</ns3:cad>
          </ns3:TrackPointExtension>
        </extensions>
      </trkpt>
      <trkpt lat="45.30182185582816600799560546875" lon="-71.0974288545548915863037109375">
        <ele>862.79998779296875</ele>
        <time>2026-08-21T23:45:10.000Z</time>
        <extensions>
          <ns3:TrackPointExtension>
            <ns3:hr>129</ns3:hr>
            <ns3:cad>0</ns3:cad>
          </ns3:TrackPointExtension>
        </extensions>
      </trkpt>
      <trkpt lat="45.30180777423083782196044921875" lon="-71.09744804911315441131591796875">
        <ele>862.5999755859375</ele>
        <time>2026-08-21T23:45:11.000Z</time>
        <extensions>
          <ns3:TrackPointExtension>
            <ns3:hr>128</ns3:hr>
            <ns3:cad>0</ns3:cad>
          </ns3:TrackPointExtension>
        </extensions>
      </trkpt>
      <trkpt lat="45.30179402790963649749755859375" lon="-71.097467578947544097900390625">
        <ele>862.5999755859375</ele>
        <time>2026-08-21T23:45:12.000Z</time>
        <extensions>
          <ns3:TrackPointExtension>
            <ns3:hr>128</ns3:hr>
            <ns3:cad>0</ns3:cad>
          </ns3:TrackPointExtension>
        </extensions>
      </trkpt>
      <trkpt lat="45.3017828799784183502197265625" lon="-71.097478307783603668212890625">
        <ele>862.4000244140625</ele>
        <time>2026-08-21T23:45:13.000Z</time>
        <extensions>
          <ns3:TrackPointExtension>
            <ns3:hr>128</ns3:hr>
            <ns3:cad>0</ns3:cad>
          </ns3:TrackPointExtension>
        </extensions>
      </trkpt>
      <trkpt lat="45.3017708100378513336181640625" lon="-71.09749741852283477783203125">
        <ele>862.4000244140625</ele>
        <time>2026-08-21T23:45:14.000Z</time>
        <extensions>
          <ns3:TrackPointExtension>
            <ns3:hr>127</ns3:hr>
            <ns3:cad>0</ns3:cad>
          </ns3:TrackPointExtension>
        </extensions>
      </trkpt>
      <trkpt lat="45.30176502652466297149658203125" lon="-71.0975168645381927490234375">
        <ele>862.4000244140625</ele>
        <time>2026-08-21T23:45:15.000Z</time>
        <extensions>
          <ns3:TrackPointExtension>
            <ns3:hr>128</ns3:hr>
            <ns3:cad>0</ns3:cad>
          </ns3:TrackPointExtension>
        </extensions>
      </trkpt>
      <trkpt lat="45.301757566630840301513671875" lon="-71.09753589145839214324951171875">
        <ele>862.20001220703125</ele>
        <time>2026-08-21T23:45:16.000Z</time>
        <extensions>
          <ns3:TrackPointExtension>
            <ns3:hr>129</ns3:hr>
            <ns3:cad>0</ns3:cad>
          </ns3:TrackPointExtension>
        </extensions>
      </trkpt>
      <trkpt lat="45.30175186693668365478515625" lon="-71.0975495539605617523193359375">
        <ele>862.20001220703125</ele>
        <time>2026-08-21T23:45:17.000Z</time>
        <extensions>
          <ns3:TrackPointExtension>
            <ns3:hr>129</ns3:hr>
            <ns3:cad>0</ns3:cad>
          </ns3:TrackPointExtension>
        </extensions>
      </trkpt>
      <trkpt lat="45.30174247920513153076171875" lon="-71.09756254591047763824462890625">
        <ele>862.20001220703125</ele>
        <time>2026-08-21T23:45:18.000Z</time>
        <extensions>
          <ns3:TrackPointExtension>
            <ns3:hr>130</ns3:hr>
            <ns3:cad>0</ns3:cad>
          </ns3:TrackPointExtension>
        </extensions>
      </trkpt>
      <trkpt lat="45.30172965489327907562255859375" lon="-71.09757562167942523956298828125">
        <ele>862.20001220703125</ele>
        <time>2026-08-21T23:45:19.000Z</time>
        <extensions>
          <ns3:TrackPointExtension>
            <ns3:hr>129</ns3:hr>
            <ns3:cad>0</ns3:cad>
          </ns3:TrackPointExtension>
        </extensions>
      </trkpt>
      <trkpt lat="45.30172361992299556732177734375" lon="-71.097596995532512664794921875">
        <ele>862.20001220703125</ele>
        <time>2026-08-21T23:45:20.000Z</time>
        <extensions>
          <ns3:TrackPointExtension>
            <ns3:hr>129</ns3:hr>
            <ns3:cad>0</ns3:cad>
          </ns3:TrackPointExtension>
        </extensions>
      </trkpt>
      <trkpt lat="45.30172546394169330596923828125" lon="-71.09762188978493213653564453125">
        <ele>862.20001220703125</ele>
        <time>2026-08-21T23:45:21.000Z</time>
        <extensions>
          <ns3:TrackPointExtension>
            <ns3:hr>128</ns3:hr>
            <ns3:cad>0</ns3:cad>
          </ns3:TrackPointExtension>
        </extensions>
      </trkpt>
      <trkpt lat="45.30172177590429782867431640625" lon="-71.09764452092349529266357421875">
        <ele>862.20001220703125</ele>
        <time>2026-08-21T23:45:22.000Z</time>
        <extensions>
          <ns3:TrackPointExtension>
            <ns3:hr>128</ns3:hr>
            <ns3:cad>0</ns3:cad>
          </ns3:TrackPointExtension>
        </extensions>
      </trkpt>
      <trkpt lat="45.3017171658575534820556640625" lon="-71.09766262583434581756591796875">
        <ele>862.4000244140625</ele>
        <time>2026-08-21T23:45:23.000Z</time>
        <extensions>
          <ns3:TrackPointExtension>
            <ns3:hr>128</ns3:hr>
            <ns3:cad>0</ns3:cad>
          </ns3:TrackPointExtension>
        </extensions>
      </trkpt>
      <trkpt lat="45.301713310182094573974609375" lon="-71.09768022783100605010986328125">
        <ele>862.5999755859375</ele>
        <time>2026-08-21T23:45:24.000Z</time>
        <extensions>
          <ns3:TrackPointExtension>
            <ns3:hr>128</ns3:hr>
            <ns3:cad>0</ns3:cad>
          </ns3:TrackPointExtension>
        </extensions>
      </trkpt>
      <trkpt lat="45.3017121367156505584716796875" lon="-71.09769933857023715972900390625">
        <ele>862.79998779296875</ele>
        <time>2026-08-21T23:45:25.000Z</time>
        <extensions>
          <ns3:TrackPointExtension>
            <ns3:hr>127</ns3:hr>
            <ns3:cad>0</ns3:cad>
          </ns3:TrackPointExtension>
        </extensions>
      </trkpt>
      <trkpt lat="45.30171163380146026611328125" lon="-71.09772498719394207000732421875">
        <ele>862.79998779296875</ele>
        <time>2026-08-21T23:45:26.000Z</time>
        <extensions>
          <ns3:TrackPointExtension>
            <ns3:hr>127</ns3:hr>
            <ns3:cad>0</ns3:cad>
          </ns3:TrackPointExtension>
        </extensions>
      </trkpt>
      <trkpt lat="45.3017081134021282196044921875" lon="-71.09774543903768062591552734375">
        <ele>862.79998779296875</ele>
        <time>2026-08-21T23:45:27.000Z</time>
        <extensions>
          <ns3:TrackPointExtension>
            <ns3:hr>127</ns3:hr>
            <ns3:cad>56</ns3:cad>
          </ns3:TrackPointExtension>
        </extensions>
      </trkpt>
      <trkpt lat="45.30170065350830554962158203125" lon="-71.09776203520596027374267578125">
        <ele>863</ele>
        <time>2026-08-21T23:45:28.000Z</time>
        <extensions>
          <ns3:TrackPointExtension>
            <ns3:hr>126</ns3:hr>
            <ns3:cad>56</ns3:cad>
          </ns3:TrackPointExtension>
        </extensions>
      </trkpt>
      <trkpt lat="45.301697216928005218505859375" lon="-71.09777770936489105224609375">
        <ele>863</ele>
        <time>2026-08-21T23:45:29.000Z</time>
        <extensions>
          <ns3:TrackPointExtension>
            <ns3:hr>126</ns3:hr>
            <ns3:cad>56</ns3:cad>
          </ns3:TrackPointExtension>
        </extensions>
      </trkpt>
      <trkpt lat="45.301699899137020111083984375" lon="-71.09779304824769496917724609375">
        <ele>863.20001220703125</ele>
        <time>2026-08-21T23:45:30.000Z</time>
        <extensions>
          <ns3:TrackPointExtension>
            <ns3:hr>126</ns3:hr>
            <ns3:cad>0</ns3:cad>
          </ns3:TrackPointExtension>
        </extensions>
      </trkpt>
      <trkpt lat="45.301697216928005218505859375" lon="-71.0978172719478607177734375">
        <ele>863.4000244140625</ele>
        <time>2026-08-21T23:45:31.000Z</time>
        <extensions>
          <ns3:TrackPointExtension>
            <ns3:hr>126</ns3:hr>
            <ns3:cad>0</ns3:cad>
          </ns3:TrackPointExtension>
        </extensions>
      </trkpt>
      <trkpt lat="45.3016957081854343414306640625" lon="-71.09783805906772613525390625">
        <ele>863.4000244140625</ele>
        <time>2026-08-21T23:45:32.000Z</time>
        <extensions>
          <ns3:TrackPointExtension>
            <ns3:hr>125</ns3:hr>
            <ns3:cad>0</ns3:cad>
          </ns3:TrackPointExtension>
        </extensions>
      </trkpt>
      <trkpt lat="45.30169830657541751861572265625" lon="-71.09786446206271648406982421875">
        <ele>863.5999755859375</ele>
        <time>2026-08-21T23:45:33.000Z</time>
        <extensions>
          <ns3:TrackPointExtension>
            <ns3:hr>125</ns3:hr>
            <ns3:cad>0</ns3:cad>
          </ns3:TrackPointExtension>
        </extensions>
      </trkpt>
      <trkpt lat="45.30169948004186153411865234375" lon="-71.09788541682064533233642578125">
        <ele>863.5999755859375</ele>
        <time>2026-08-21T23:45:34.000Z</time>
        <extensions>
          <ns3:TrackPointExtension>
            <ns3:hr>126</ns3:hr>
            <ns3:cad>0</ns3:cad>
          </ns3:TrackPointExtension>
        </extensions>
      </trkpt>
      <trkpt lat="45.30169780366122722625732421875" lon="-71.09790980815887451171875">
        <ele>863.4000244140625</ele>
        <time>2026-08-21T23:45:35.000Z</time>
        <extensions>
          <ns3:TrackPointExtension>
            <ns3:hr>126</ns3:hr>
            <ns3:cad>0</ns3:cad>
          </ns3:TrackPointExtension>
        </extensions>
      </trkpt>
      <trkpt lat="45.30169822275638580322265625" lon="-71.09793000854551792144775390625">
        <ele>863.20001220703125</ele>
        <time>2026-08-21T23:45:36.000Z</time>
        <extensions>
          <ns3:TrackPointExtension>
            <ns3:hr>126</ns3:hr>
            <ns3:cad>0</ns3:cad>
          </ns3:TrackPointExtension>
        </extensions>
      </trkpt>
      <trkpt lat="45.30169956386089324951171875" lon="-71.0979492031037807464599609375">
        <ele>863</ele>
        <time>2026-08-21T23:45:37.000Z</time>
        <extensions>
          <ns3:TrackPointExtension>
            <ns3:hr>126</ns3:hr>
            <ns3:cad>0</ns3:cad>
          </ns3:TrackPointExtension>
        </extensions>
      </trkpt>
      <trkpt lat="45.3016943670809268951416015625" lon="-71.09796948730945587158203125">
        <ele>863.20001220703125</ele>
        <time>2026-08-21T23:45:38.000Z</time>
        <extensions>
          <ns3:TrackPointExtension>
            <ns3:hr>126</ns3:hr>
            <ns3:cad>0</ns3:cad>
          </ns3:TrackPointExtension>
        </extensions>
      </trkpt>
      <trkpt lat="45.3016950376331806182861328125" lon="-71.0979864187538623809814453125">
        <ele>863.20001220703125</ele>
        <time>2026-08-21T23:45:39.000Z</time>
        <extensions>
          <ns3:TrackPointExtension>
            <ns3:hr>126</ns3:hr>
            <ns3:cad>71</ns3:cad>
          </ns3:TrackPointExtension>
        </extensions>
      </trkpt>
      <trkpt lat="45.301693864166736602783203125" lon="-71.09799957834184169769287109375">
        <ele>863.4000244140625</ele>
        <time>2026-08-21T23:45:40.000Z</time>
        <extensions>
          <ns3:TrackPointExtension>
            <ns3:hr>126</ns3:hr>
            <ns3:cad>71</ns3:cad>
          </ns3:TrackPointExtension>
        </extensions>
      </trkpt>
      <trkpt lat="45.30169009231030941009521484375" lon="-71.09801709651947021484375">
        <ele>863.79998779296875</ele>
        <time>2026-08-21T23:45:41.000Z</time>
        <extensions>
          <ns3:TrackPointExtension>
            <ns3:hr>126</ns3:hr>
            <ns3:cad>71</ns3:cad>
          </ns3:TrackPointExtension>
        </extensions>
      </trkpt>
      <trkpt lat="45.30168615281581878662109375" lon="-71.0980367101728916168212890625">
        <ele>863.79998779296875</ele>
        <time>2026-08-21T23:45:42.000Z</time>
        <extensions>
          <ns3:TrackPointExtension>
            <ns3:hr>126</ns3:hr>
            <ns3:cad>71</ns3:cad>
          </ns3:TrackPointExtension>
        </extensions>
      </trkpt>
      <trkpt lat="45.30168305151164531707763671875" lon="-71.09805397689342498779296875">
        <ele>863.79998779296875</ele>
        <time>2026-08-21T23:45:43.000Z</time>
        <extensions>
          <ns3:TrackPointExtension>
            <ns3:hr>125</ns3:hr>
            <ns3:cad>71</ns3:cad>
          </ns3:TrackPointExtension>
        </extensions>
      </trkpt>
      <trkpt lat="45.301677100360393524169921875" lon="-71.09807233326137065887451171875">
        <ele>863.79998779296875</ele>
        <time>2026-08-21T23:45:44.000Z</time>
        <extensions>
          <ns3:TrackPointExtension>
            <ns3:hr>126</ns3:hr>
            <ns3:cad>0</ns3:cad>
          </ns3:TrackPointExtension>
        </extensions>
      </trkpt>
      <trkpt lat="45.3016682155430316925048828125" lon="-71.0980957187712192535400390625">
        <ele>863.4000244140625</ele>
        <time>2026-08-21T23:45:45.000Z</time>
        <extensions>
          <ns3:TrackPointExtension>
            <ns3:hr>126</ns3:hr>
            <ns3:cad>0</ns3:cad>
          </ns3:TrackPointExtension>
        </extensions>
      </trkpt>
      <trkpt lat="45.30165891163051128387451171875" lon="-71.09811591915786266326904296875">
        <ele>863.20001220703125</ele>
        <time>2026-08-21T23:45:46.000Z</time>
        <extensions>
          <ns3:TrackPointExtension>
            <ns3:hr>126</ns3:hr>
            <ns3:cad>0</ns3:cad>
          </ns3:TrackPointExtension>
        </extensions>
      </trkpt>
      <trkpt lat="45.30165539123117923736572265625" lon="-71.09813033603131771087646484375">
        <ele>863</ele>
        <time>2026-08-21T23:45:47.000Z</time>
        <extensions>
          <ns3:TrackPointExtension>
            <ns3:hr>125</ns3:hr>
            <ns3:cad>56</ns3:cad>
          </ns3:TrackPointExtension>
        </extensions>
      </trkpt>
      <trkpt lat="45.30164667405188083648681640625" lon="-71.09814492054283618927001953125">
        <ele>862.79998779296875</ele>
        <time>2026-08-21T23:45:48.000Z</time>
        <extensions>
          <ns3:TrackPointExtension>
            <ns3:hr>125</ns3:hr>
            <ns3:cad>56</ns3:cad>
          </ns3:TrackPointExtension>
        </extensions>
      </trkpt>
      <trkpt lat="45.301636196672916412353515625" lon="-71.0981600917875766754150390625">
        <ele>862.5999755859375</ele>
        <time>2026-08-21T23:45:49.000Z</time>
        <extensions>
          <ns3:TrackPointExtension>
            <ns3:hr>125</ns3:hr>
            <ns3:cad>56</ns3:cad>
          </ns3:TrackPointExtension>
        </extensions>
      </trkpt>
      <trkpt lat="45.30162689276039600372314453125" lon="-71.09817601740360260009765625">
        <ele>862.5999755859375</ele>
        <time>2026-08-21T23:45:50.000Z</time>
        <extensions>
          <ns3:TrackPointExtension>
            <ns3:hr>125</ns3:hr>
            <ns3:cad>56</ns3:cad>
          </ns3:TrackPointExtension>
        </extensions>
      </trkpt>
      <trkpt lat="45.3016149066388607025146484375" lon="-71.09819202683866024017333984375">
        <ele>862.4000244140625</ele>
        <time>2026-08-21T23:45:51.000Z</time>
        <extensions>
          <ns3:TrackPointExtension>
            <ns3:hr>125</ns3:hr>
            <ns3:cad>68</ns3:cad>
          </ns3:TrackPointExtension>
        </extensions>
      </trkpt>
      <trkpt lat="45.3016031719744205474853515625" lon="-71.09820476733148097991943359375">
        <ele>862.4000244140625</ele>
        <time>2026-08-21T23:45:52.000Z</time>
        <extensions>
          <ns3:TrackPointExtension>
            <ns3:hr>125</ns3:hr>
            <ns3:cad>68</ns3:cad>
          </ns3:TrackPointExtension>
        </extensions>
      </trkpt>
      <trkpt lat="45.30159453861415386199951171875" lon="-71.0982130654156208038330078125">
        <ele>862.4000244140625</ele>
        <time>2026-08-21T23:45:53.000Z</time>
        <extensions>
          <ns3:TrackPointExtension>
            <ns3:hr>125</ns3:hr>
            <ns3:cad>68</ns3:cad>
          </ns3:TrackPointExtension>
        </extensions>
      </trkpt>
      <trkpt lat="45.3015847317874431610107421875" lon="-71.09822161495685577392578125">
        <ele>862.20001220703125</ele>
        <time>2026-08-21T23:45:54.000Z</time>
        <extensions>
          <ns3:TrackPointExtension>
            <ns3:hr>126</ns3:hr>
            <ns3:cad>68</ns3:cad>
          </ns3:TrackPointExtension>
        </extensions>
      </trkpt>
      <trkpt lat="45.30157291330397129058837890625" lon="-71.0982358641922473907470703125">
        <ele>862.20001220703125</ele>
        <time>2026-08-21T23:45:55.000Z</time>
        <extensions>
          <ns3:TrackPointExtension>
            <ns3:hr>126</ns3:hr>
            <ns3:cad>68</ns3:cad>
          </ns3:TrackPointExtension>
        </extensions>
      </trkpt>
      <trkpt lat="45.3015662916004657745361328125" lon="-71.09824583865702152252197265625">
        <ele>862.20001220703125</ele>
        <time>2026-08-21T23:45:56.000Z</time>
        <extensions>
          <ns3:TrackPointExtension>
            <ns3:hr>126</ns3:hr>
            <ns3:cad>65</ns3:cad>
          </ns3:TrackPointExtension>
        </extensions>
      </trkpt>
      <trkpt lat="45.301559753715991973876953125" lon="-71.09826243482530117034912109375">
        <ele>862</ele>
        <time>2026-08-21T23:45:57.000Z</time>
        <extensions>
          <ns3:TrackPointExtension>
            <ns3:hr>126</ns3:hr>
            <ns3:cad>65</ns3:cad>
          </ns3:TrackPointExtension>
        </extensions>
      </trkpt>
      <trkpt lat="45.30155472457408905029296875" lon="-71.09827131964266300201416015625">
        <ele>862</ele>
        <time>2026-08-21T23:45:58.000Z</time>
        <extensions>
          <ns3:TrackPointExtension>
            <ns3:hr>126</ns3:hr>
            <ns3:cad>65</ns3:cad>
          </ns3:TrackPointExtension>
        </extensions>
      </trkpt>
      <trkpt lat="45.30154340900480747222900390625" lon="-71.09826855361461639404296875">
        <ele>861.79998779296875</ele>
        <time>2026-08-21T23:45:59.000Z</time>
        <extensions>
          <ns3:TrackPointExtension>
            <ns3:hr>127</ns3:hr>
            <ns3:cad>65</ns3:cad>
          </ns3:TrackPointExtension>
        </extensions>
      </trkpt>
      <trkpt lat="45.3015304170548915863037109375" lon="-71.0982589982450008392333984375">
        <ele>861.5999755859375</ele>
        <time>2026-08-21T23:46:00.000Z</time>
        <extensions>
          <ns3:TrackPointExtension>
            <ns3:hr>127</ns3:hr>
            <ns3:cad>65</ns3:cad>
          </ns3:TrackPointExtension>
        </extensions>
      </trkpt>
      <trkpt lat="45.30151910148561000823974609375" lon="-71.0982549749314785003662109375">
        <ele>861.4000244140625</ele>
        <time>2026-08-21T23:46:01.000Z</time>
        <extensions>
          <ns3:TrackPointExtension>
            <ns3:hr>127</ns3:hr>
            <ns3:cad>65</ns3:cad>
          </ns3:TrackPointExtension>
        </extensions>
      </trkpt>
      <trkpt lat="45.30150451697409152984619140625" lon="-71.0982610099017620086669921875">
        <ele>861.20001220703125</ele>
        <time>2026-08-21T23:46:02.000Z</time>
        <extensions>
          <ns3:TrackPointExtension>
            <ns3:hr>127</ns3:hr>
            <ns3:cad>65</ns3:cad>
          </ns3:TrackPointExtension>
        </extensions>
      </trkpt>
      <trkpt lat="45.30149144120514392852783203125" lon="-71.09827064909040927886962890625">
        <ele>861</ele>
        <time>2026-08-21T23:46:03.000Z</time>
        <extensions>
          <ns3:TrackPointExtension>
            <ns3:hr>127</ns3:hr>
            <ns3:cad>65</ns3:cad>
          </ns3:TrackPointExtension>
        </extensions>
      </trkpt>
      <trkpt lat="45.3014787845313549041748046875" lon="-71.0982771031558513641357421875">
        <ele>861</ele>
        <time>2026-08-21T23:46:04.000Z</time>
        <extensions>
          <ns3:TrackPointExtension>
            <ns3:hr>128</ns3:hr>
            <ns3:cad>65</ns3:cad>
          </ns3:TrackPointExtension>
        </extensions>
      </trkpt>
      <trkpt lat="45.30146897770464420318603515625" lon="-71.0982786118984222412109375">
        <ele>860.79998779296875</ele>
        <time>2026-08-21T23:46:05.000Z</time>
        <extensions>
          <ns3:TrackPointExtension>
            <ns3:hr>127</ns3:hr>
            <ns3:cad>65</ns3:cad>
          </ns3:TrackPointExtension>
        </extensions>
      </trkpt>
      <trkpt lat="45.301458835601806640625" lon="-71.098281629383563995361328125">
        <ele>860.79998779296875</ele>
        <time>2026-08-21T23:46:06.000Z</time>
        <extensions>
          <ns3:TrackPointExtension>
            <ns3:hr>127</ns3:hr>
            <ns3:cad>65</ns3:cad>
          </ns3:TrackPointExtension>
        </extensions>
      </trkpt>
      <trkpt lat="45.3014489449560642242431640625" lon="-71.09827634878456592559814453125">
        <ele>860.5999755859375</ele>
        <time>2026-08-21T23:46:07.000Z</time>
        <extensions>
          <ns3:TrackPointExtension>
            <ns3:hr>127</ns3:hr>
            <ns3:cad>65</ns3:cad>
          </ns3:TrackPointExtension>
        </extensions>
      </trkpt>
      <trkpt lat="45.3014408983290195465087890625" lon="-71.0982786118984222412109375">
        <ele>860.4000244140625</ele>
        <time>2026-08-21T23:46:08.000Z</time>
        <extensions>
          <ns3:TrackPointExtension>
            <ns3:hr>126</ns3:hr>
            <ns3:cad>65</ns3:cad>
          </ns3:TrackPointExtension>
        </extensions>
      </trkpt>
      <trkpt lat="45.3014333546161651611328125" lon="-71.09828104265034198760986328125">
        <ele>860.20001220703125</ele>
        <time>2026-08-21T23:46:09.000Z</time>
        <extensions>
          <ns3:TrackPointExtension>
            <ns3:hr>126</ns3:hr>
            <ns3:cad>65</ns3:cad>
          </ns3:TrackPointExtension>
        </extensions>
      </trkpt>
      <trkpt lat="45.3014248050749301910400390625" lon="-71.0982839763164520263671875">
        <ele>859.79998779296875</ele>
        <time>2026-08-21T23:46:10.000Z</time>
        <extensions>
          <ns3:TrackPointExtension>
            <ns3:hr>126</ns3:hr>
            <ns3:cad>0</ns3:cad>
          </ns3:TrackPointExtension>
        </extensions>
      </trkpt>
      <trkpt lat="45.30142120085656642913818359375" lon="-71.0982771031558513641357421875">
        <ele>859.4000244140625</ele>
        <time>2026-08-21T23:46:11.000Z</time>
        <extensions>
          <ns3:TrackPointExtension>
            <ns3:hr>125</ns3:hr>
            <ns3:cad>0</ns3:cad>
          </ns3:TrackPointExtension>
        </extensions>
      </trkpt>
      <trkpt lat="45.30141315422952175140380859375" lon="-71.09827383421361446380615234375">
        <ele>859.20001220703125</ele>
        <time>2026-08-21T23:46:12.000Z</time>
        <extensions>
          <ns3:TrackPointExtension>
            <ns3:hr>125</ns3:hr>
            <ns3:cad>0</ns3:cad>
          </ns3:TrackPointExtension>
        </extensions>
      </trkpt>
      <trkpt lat="45.30140041373670101165771484375" lon="-71.09827031381428241729736328125">
        <ele>858.79998779296875</ele>
        <time>2026-08-21T23:46:13.000Z</time>
        <extensions>
          <ns3:TrackPointExtension>
            <ns3:hr>125</ns3:hr>
            <ns3:cad>0</ns3:cad>
          </ns3:TrackPointExtension>
        </extensions>
      </trkpt>
      <trkpt lat="45.30138767324388027191162109375" lon="-71.09826461412012577056884765625">
        <ele>858.4000244140625</ele>
        <time>2026-08-21T23:46:14.000Z</time>
        <extensions>
          <ns3:TrackPointExtension>
            <ns3:hr>124</ns3:hr>
            <ns3:cad>0</ns3:cad>
          </ns3:TrackPointExtension>
        </extensions>
      </trkpt>
      <trkpt lat="45.3013785369694232940673828125" lon="-71.0982600040733814239501953125">
        <ele>858</ele>
        <time>2026-08-21T23:46:15.000Z</time>
        <extensions>
          <ns3:TrackPointExtension>
            <ns3:hr>123</ns3:hr>
            <ns3:cad>69</ns3:cad>
          </ns3:TrackPointExtension>
        </extensions>
      </trkpt>
      <trkpt lat="45.301369987428188323974609375" lon="-71.098259501159191131591796875">
        <ele>857.5999755859375</ele>
        <time>2026-08-21T23:46:16.000Z</time>
        <extensions>
          <ns3:TrackPointExtension>
            <ns3:hr>123</ns3:hr>
            <ns3:cad>69</ns3:cad>
          </ns3:TrackPointExtension>
        </extensions>
      </trkpt>
      <trkpt lat="45.301359258592128753662109375" lon="-71.09826193191111087799072265625">
        <ele>857.20001220703125</ele>
        <time>2026-08-21T23:46:17.000Z</time>
        <extensions>
          <ns3:TrackPointExtension>
            <ns3:hr>122</ns3:hr>
            <ns3:cad>69</ns3:cad>
          </ns3:TrackPointExtension>
        </extensions>
      </trkpt>
      <trkpt lat="45.3013517148792743682861328125" lon="-71.09825422056019306182861328125">
        <ele>856.79998779296875</ele>
        <time>2026-08-21T23:46:18.000Z</time>
        <extensions>
          <ns3:TrackPointExtension>
            <ns3:hr>121</ns3:hr>
            <ns3:cad>69</ns3:cad>
          </ns3:TrackPointExtension>
        </extensions>
      </trkpt>
      <trkpt lat="45.30134308151900768280029296875" lon="-71.0982536338269710540771484375">
        <ele>856.5999755859375</ele>
        <time>2026-08-21T23:46:19.000Z</time>
        <extensions>
          <ns3:TrackPointExtension>
            <ns3:hr>121</ns3:hr>
            <ns3:cad>69</ns3:cad>
          </ns3:TrackPointExtension>
        </extensions>
      </trkpt>
      <trkpt lat="45.30133218504488468170166015625" lon="-71.09825304709374904632568359375">
        <ele>856.4000244140625</ele>
        <time>2026-08-21T23:46:20.000Z</time>
        <extensions>
          <ns3:TrackPointExtension>
            <ns3:hr>121</ns3:hr>
            <ns3:cad>69</ns3:cad>
          </ns3:TrackPointExtension>
        </extensions>
      </trkpt>
      <trkpt lat="45.3013248927891254425048828125" lon="-71.0982563160359859466552734375">
        <ele>856.20001220703125</ele>
        <time>2026-08-21T23:46:21.000Z</time>
        <extensions>
          <ns3:TrackPointExtension>
            <ns3:hr>121</ns3:hr>
            <ns3:cad>69</ns3:cad>
          </ns3:TrackPointExtension>
        </extensions>
      </trkpt>
      <trkpt lat="45.30131190083920955657958984375" lon="-71.09825522638857364654541015625">
        <ele>855.79998779296875</ele>
        <time>2026-08-21T23:46:22.000Z</time>
        <extensions>
          <ns3:TrackPointExtension>
            <ns3:hr>121</ns3:hr>
            <ns3:cad>69</ns3:cad>
          </ns3:TrackPointExtension>
        </extensions>
      </trkpt>
      <trkpt lat="45.30129899270832538604736328125" lon="-71.09825522638857364654541015625">
        <ele>855.4000244140625</ele>
        <time>2026-08-21T23:46:23.000Z</time>
        <extensions>
          <ns3:TrackPointExtension>
            <ns3:hr>120</ns3:hr>
            <ns3:cad>69</ns3:cad>
          </ns3:TrackPointExtension>
        </extensions>
      </trkpt>
      <trkpt lat="45.30128675512969493865966796875" lon="-71.098258495330810546875">
        <ele>855</ele>
        <time>2026-08-21T23:46:24.000Z</time>
        <extensions>
          <ns3:TrackPointExtension>
            <ns3:hr>120</ns3:hr>
            <ns3:cad>69</ns3:cad>
          </ns3:TrackPointExtension>
        </extensions>
      </trkpt>
      <trkpt lat="45.301274769008159637451171875" lon="-71.098261512815952301025390625">
        <ele>854.5999755859375</ele>
        <time>2026-08-21T23:46:25.000Z</time>
        <extensions>
          <ns3:TrackPointExtension>
            <ns3:hr>121</ns3:hr>
            <ns3:cad>69</ns3:cad>
          </ns3:TrackPointExtension>
        </extensions>
      </trkpt>
      <trkpt lat="45.3012618608772754669189453125" lon="-71.09826226718723773956298828125">
        <ele>854.20001220703125</ele>
        <time>2026-08-21T23:46:26.000Z</time>
        <extensions>
          <ns3:TrackPointExtension>
            <ns3:hr>122</ns3:hr>
            <ns3:cad>69</ns3:cad>
          </ns3:TrackPointExtension>
        </extensions>
      </trkpt>
      <trkpt lat="45.30124383978545665740966796875" lon="-71.0982623510062694549560546875">
        <ele>853.5999755859375</ele>
        <time>2026-08-21T23:46:27.000Z</time>
        <extensions>
          <ns3:TrackPointExtension>
            <ns3:hr>123</ns3:hr>
            <ns3:cad>69</ns3:cad>
          </ns3:TrackPointExtension>
        </extensions>
      </trkpt>
      <trkpt lat="45.301229171454906463623046875" lon="-71.09826679341495037078857421875">
        <ele>853.20001220703125</ele>
        <time>2026-08-21T23:46:28.000Z</time>
        <extensions>
          <ns3:TrackPointExtension>
            <ns3:hr>123</ns3:hr>
            <ns3:cad>69</ns3:cad>
          </ns3:TrackPointExtension>
        </extensions>
      </trkpt>
      <trkpt lat="45.30121450312435626983642578125" lon="-71.098271906375885009765625">
        <ele>852.5999755859375</ele>
        <time>2026-08-21T23:46:29.000Z</time>
        <extensions>
          <ns3:TrackPointExtension>
            <ns3:hr>123</ns3:hr>
            <ns3:cad>69</ns3:cad>
          </ns3:TrackPointExtension>
        </extensions>
      </trkpt>
      <trkpt lat="45.3012008406221866607666015625" lon="-71.09827467240393161773681640625">
        <ele>852.20001220703125</ele>
        <time>2026-08-21T23:46:30.000Z</time>
        <extensions>
          <ns3:TrackPointExtension>
            <ns3:hr>123</ns3:hr>
            <ns3:cad>69</ns3:cad>
          </ns3:TrackPointExtension>
        </extensions>
      </trkpt>
      <trkpt lat="45.30118650756776332855224609375" lon="-71.09827634878456592559814453125">
        <ele>851.79998779296875</ele>
        <time>2026-08-21T23:46:31.000Z</time>
        <extensions>
          <ns3:TrackPointExtension>
            <ns3:hr>124</ns3:hr>
            <ns3:cad>69</ns3:cad>
          </ns3:TrackPointExtension>
        </extensions>
      </trkpt>
      <trkpt lat="45.30117209069430828094482421875" lon="-71.0982807911932468414306640625">
        <ele>851.4000244140625</ele>
        <time>2026-08-21T23:46:32.000Z</time>
        <extensions>
          <ns3:TrackPointExtension>
            <ns3:hr>124</ns3:hr>
            <ns3:cad>69</ns3:cad>
          </ns3:TrackPointExtension>
        </extensions>
      </trkpt>
      <trkpt lat="45.30116136185824871063232421875" lon="-71.098286323249340057373046875">
        <ele>851</ele>
        <time>2026-08-21T23:46:33.000Z</time>
        <extensions>
          <ns3:TrackPointExtension>
            <ns3:hr>124</ns3:hr>
            <ns3:cad>69</ns3:cad>
          </ns3:TrackPointExtension>
        </extensions>
      </trkpt>
      <trkpt lat="45.301150716841220855712890625" lon="-71.0982881672680377960205078125">
        <ele>850.79998779296875</ele>
        <time>2026-08-21T23:46:34.000Z</time>
        <extensions>
          <ns3:TrackPointExtension>
            <ns3:hr>123</ns3:hr>
            <ns3:cad>0</ns3:cad>
          </ns3:TrackPointExtension>
        </extensions>
      </trkpt>
      <trkpt lat="45.30113873071968555450439453125" lon="-71.09828892163932323455810546875">
        <ele>850.4000244140625</ele>
        <time>2026-08-21T23:46:35.000Z</time>
        <extensions>
          <ns3:TrackPointExtension>
            <ns3:hr>123</ns3:hr>
            <ns3:cad>0</ns3:cad>
          </ns3:TrackPointExtension>
        </extensions>
      </trkpt>
      <trkpt lat="45.301121883094310760498046875" lon="-71.09829604625701904296875">
        <ele>850.20001220703125</ele>
        <time>2026-08-21T23:46:36.000Z</time>
        <extensions>
          <ns3:TrackPointExtension>
            <ns3:hr>123</ns3:hr>
            <ns3:cad>0</ns3:cad>
          </ns3:TrackPointExtension>
        </extensions>
      </trkpt>
      <trkpt lat="45.3011076338589191436767578125" lon="-71.09830719418823719024658203125">
        <ele>850</ele>
        <time>2026-08-21T23:46:37.000Z</time>
        <extensions>
          <ns3:TrackPointExtension>
            <ns3:hr>124</ns3:hr>
            <ns3:cad>0</ns3:cad>
          </ns3:TrackPointExtension>
        </extensions>
      </trkpt>
      <trkpt lat="45.3010938875377178192138671875" lon="-71.0983139835298061370849609375">
        <ele>849.79998779296875</ele>
        <time>2026-08-21T23:46:38.000Z</time>
        <extensions>
          <ns3:TrackPointExtension>
            <ns3:hr>124</ns3:hr>
            <ns3:cad>0</ns3:cad>
          </ns3:TrackPointExtension>
        </extensions>
      </trkpt>
      <trkpt lat="45.3010873496532440185546875" lon="-71.0983129777014255523681640625">
        <ele>849.79998779296875</ele>
        <time>2026-08-21T23:46:39.000Z</time>
        <extensions>
          <ns3:TrackPointExtension>
            <ns3:hr>123</ns3:hr>
            <ns3:cad>0</ns3:cad>
          </ns3:TrackPointExtension>
        </extensions>
      </trkpt>
      <trkpt lat="45.30108156614005565643310546875" lon="-71.098306439816951751708984375">
        <ele>849.5999755859375</ele>
        <time>2026-08-21T23:46:40.000Z</time>
        <extensions>
          <ns3:TrackPointExtension>
            <ns3:hr>123</ns3:hr>
            <ns3:cad>0</ns3:cad>
          </ns3:TrackPointExtension>
        </extensions>
      </trkpt>
      <trkpt lat="45.3010687418282032012939453125" lon="-71.0983042605221271514892578125">
        <ele>849.5999755859375</ele>
        <time>2026-08-21T23:46:41.000Z</time>
        <extensions>
          <ns3:TrackPointExtension>
            <ns3:hr>123</ns3:hr>
            <ns3:cad>0</ns3:cad>
          </ns3:TrackPointExtension>
        </extensions>
      </trkpt>
      <trkpt lat="45.30106631107628345489501953125" lon="-71.09830635599792003631591796875">
        <ele>849.5999755859375</ele>
        <time>2026-08-21T23:46:42.000Z</time>
        <extensions>
          <ns3:TrackPointExtension>
            <ns3:hr>123</ns3:hr>
            <ns3:cad>0</ns3:cad>
          </ns3:TrackPointExtension>
        </extensions>
      </trkpt>
      <trkpt lat="45.301054157316684722900390625" lon="-71.09831683337688446044921875">
        <ele>849.79998779296875</ele>
        <time>2026-08-21T23:46:43.000Z</time>
        <extensions>
          <ns3:TrackPointExtension>
            <ns3:hr>122</ns3:hr>
            <ns3:cad>0</ns3:cad>
          </ns3:TrackPointExtension>
        </extensions>
      </trkpt>
      <trkpt lat="45.301052145659923553466796875" lon="-71.09831859357655048370361328125">
        <ele>849.79998779296875</ele>
        <time>2026-08-21T23:46:44.000Z</time>
        <extensions>
          <ns3:TrackPointExtension>
            <ns3:hr>121</ns3:hr>
            <ns3:cad>0</ns3:cad>
          </ns3:TrackPointExtension>
        </extensions>
      </trkpt>
      <trkpt lat="45.30105189420282840728759765625" lon="-71.0983180068433284759521484375">
        <ele>850</ele>
        <time>2026-08-21T23:46:45.000Z</time>
        <extensions>
          <ns3:TrackPointExtension>
            <ns3:hr>121</ns3:hr>
            <ns3:cad>0</ns3:cad>
          </ns3:TrackPointExtension>
        </extensions>
      </trkpt>
      <trkpt lat="45.30104870907962322235107421875" lon="-71.09832529909908771514892578125">
        <ele>850.20001220703125</ele>
        <time>2026-08-21T23:46:46.000Z</time>
        <extensions>
          <ns3:TrackPointExtension>
            <ns3:hr>120</ns3:hr>
            <ns3:cad>0</ns3:cad>
          </ns3:TrackPointExtension>
        </extensions>
      </trkpt>
      <trkpt lat="45.30104250647127628326416015625" lon="-71.09832865186035633087158203125">
        <ele>850.4000244140625</ele>
        <time>2026-08-21T23:46:47.000Z</time>
        <extensions>
          <ns3:TrackPointExtension>
            <ns3:hr>118</ns3:hr>
            <ns3:cad>0</ns3:cad>
          </ns3:TrackPointExtension>
        </extensions>
      </trkpt>
      <trkpt lat="45.30103412456810474395751953125" lon="-71.09833426773548126220703125">
        <ele>850.5999755859375</ele>
        <time>2026-08-21T23:46:48.000Z</time>
        <extensions>
          <ns3:TrackPointExtension>
            <ns3:hr>118</ns3:hr>
            <ns3:cad>0</ns3:cad>
          </ns3:TrackPointExtension>
        </extensions>
      </trkpt>
      <trkpt lat="45.30103663913905620574951171875" lon="-71.09835027717053890228271484375">
        <ele>850.79998779296875</ele>
        <time>2026-08-21T23:46:49.000Z</time>
        <extensions>
          <ns3:TrackPointExtension>
            <ns3:hr>117</ns3:hr>
            <ns3:cad>0</ns3:cad>
          </ns3:TrackPointExtension>
        </extensions>
      </trkpt>
      <trkpt lat="45.3010342083871364593505859375" lon="-71.0983709804713726043701171875">
        <ele>851</ele>
        <time>2026-08-21T23:46:50.000Z</time>
        <extensions>
          <ns3:TrackPointExtension>
            <ns3:hr>117</ns3:hr>
            <ns3:cad>0</ns3:cad>
          </ns3:TrackPointExtension>
        </extensions>
      </trkpt>
      <trkpt lat="45.3010301850736141204833984375" lon="-71.09837709926068782806396484375">
        <ele>851.20001220703125</ele>
        <time>2026-08-21T23:46:51.000Z</time>
        <extensions>
          <ns3:TrackPointExtension>
            <ns3:hr>117</ns3:hr>
            <ns3:cad>0</ns3:cad>
          </ns3:TrackPointExtension>
        </extensions>
      </trkpt>
      <trkpt lat="45.3010234795510768890380859375" lon="-71.09838481061160564422607421875">
        <ele>851.4000244140625</ele>
        <time>2026-08-21T23:46:52.000Z</time>
        <extensions>
          <ns3:TrackPointExtension>
            <ns3:hr>118</ns3:hr>
            <ns3:cad>0</ns3:cad>
          </ns3:TrackPointExtension>
        </extensions>
      </trkpt>
      <trkpt lat="45.301017947494983673095703125" lon="-71.098384223878383636474609375">
        <ele>851.5999755859375</ele>
        <time>2026-08-21T23:46:53.000Z</time>
        <extensions>
          <ns3:TrackPointExtension>
            <ns3:hr>118</ns3:hr>
            <ns3:cad>41</ns3:cad>
          </ns3:TrackPointExtension>
        </extensions>
      </trkpt>
      <trkpt lat="45.30101425945758819580078125" lon="-71.098384559154510498046875">
        <ele>851.79998779296875</ele>
        <time>2026-08-21T23:46:54.000Z</time>
        <extensions>
          <ns3:TrackPointExtension>
            <ns3:hr>118</ns3:hr>
            <ns3:cad>41</ns3:cad>
          </ns3:TrackPointExtension>
        </extensions>
      </trkpt>
      <trkpt lat="45.30101400800049304962158203125" lon="-71.09837709926068782806396484375">
        <ele>852.20001220703125</ele>
        <time>2026-08-21T23:46:55.000Z</time>
        <extensions>
          <ns3:TrackPointExtension>
            <ns3:hr>117</ns3:hr>
            <ns3:cad>41</ns3:cad>
          </ns3:TrackPointExtension>
        </extensions>
      </trkpt>
      <trkpt lat="45.3010068833827972412109375" lon="-71.09836653806269168853759765625">
        <ele>852.4000244140625</ele>
        <time>2026-08-21T23:46:56.000Z</time>
        <extensions>
          <ns3:TrackPointExtension>
            <ns3:hr>118</ns3:hr>
            <ns3:cad>41</ns3:cad>
          </ns3:TrackPointExtension>
        </extensions>
      </trkpt>
      <trkpt lat="45.301001854240894317626953125" lon="-71.09836569987237453460693359375">
        <ele>852.79998779296875</ele>
        <time>2026-08-21T23:46:57.000Z</time>
        <extensions>
          <ns3:TrackPointExtension>
            <ns3:hr>118</ns3:hr>
            <ns3:cad>79</ns3:cad>
          </ns3:TrackPointExtension>
        </extensions>
      </trkpt>
      <trkpt lat="45.30099053867161273956298828125" lon="-71.098355390131473541259765625">
        <ele>853</ele>
        <time>2026-08-21T23:46:58.000Z</time>
        <extensions>
          <ns3:TrackPointExtension>
            <ns3:hr>118</ns3:hr>
            <ns3:cad>79</ns3:cad>
          </ns3:TrackPointExtension>
        </extensions>
      </trkpt>
      <trkpt lat="45.30098064802587032318115234375" lon="-71.09834633767604827880859375">
        <ele>853.20001220703125</ele>
        <time>2026-08-21T23:46:59.000Z</time>
        <extensions>
          <ns3:TrackPointExtension>
            <ns3:hr>118</ns3:hr>
            <ns3:cad>79</ns3:cad>
          </ns3:TrackPointExtension>
        </extensions>
      </trkpt>
      <trkpt lat="45.30096991918981075286865234375" lon="-71.09834189526736736297607421875">
        <ele>853.20001220703125</ele>
        <time>2026-08-21T23:47:00.000Z</time>
        <extensions>
          <ns3:TrackPointExtension>
            <ns3:hr>119</ns3:hr>
            <ns3:cad>60</ns3:cad>
          </ns3:TrackPointExtension>
        </extensions>
      </trkpt>
      <trkpt lat="45.3009644709527492523193359375" lon="-71.09834407456219196319580078125">
        <ele>853.4000244140625</ele>
        <time>2026-08-21T23:47:01.000Z</time>
        <extensions>
          <ns3:TrackPointExtension>
            <ns3:hr>120</ns3:hr>
            <ns3:cad>60</ns3:cad>
          </ns3:TrackPointExtension>
        </extensions>
      </trkpt>
      <trkpt lat="45.3009517304599285125732421875" lon="-71.09834901988506317138671875">
        <ele>853.5999755859375</ele>
        <time>2026-08-21T23:47:02.000Z</time>
        <extensions>
          <ns3:TrackPointExtension>
            <ns3:hr>120</ns3:hr>
            <ns3:cad>0</ns3:cad>
          </ns3:TrackPointExtension>
        </extensions>
      </trkpt>
      <trkpt lat="45.30093940906226634979248046875" lon="-71.098352707922458648681640625">
        <ele>853.79998779296875</ele>
        <time>2026-08-21T23:47:03.000Z</time>
        <extensions>
          <ns3:TrackPointExtension>
            <ns3:hr>120</ns3:hr>
            <ns3:cad>0</ns3:cad>
          </ns3:TrackPointExtension>
        </extensions>
      </trkpt>
      <trkpt lat="45.3009285964071750640869140625" lon="-71.09835572540760040283203125">
        <ele>854</ele>
        <time>2026-08-21T23:47:04.000Z</time>
        <extensions>
          <ns3:TrackPointExtension>
            <ns3:hr>119</ns3:hr>
            <ns3:cad>0</ns3:cad>
          </ns3:TrackPointExtension>
        </extensions>
      </trkpt>
      <trkpt lat="45.30091811902821063995361328125" lon="-71.098359413444995880126953125">
        <ele>854.4000244140625</ele>
        <time>2026-08-21T23:47:05.000Z</time>
        <extensions>
          <ns3:TrackPointExtension>
            <ns3:hr>119</ns3:hr>
            <ns3:cad>0</ns3:cad>
          </ns3:TrackPointExtension>
        </extensions>
      </trkpt>
      <trkpt lat="45.30091459862887859344482421875" lon="-71.0983532108366489410400390625">
        <ele>854.5999755859375</ele>
        <time>2026-08-21T23:47:06.000Z</time>
        <extensions>
          <ns3:TrackPointExtension>
            <ns3:hr>120</ns3:hr>
            <ns3:cad>0</ns3:cad>
          </ns3:TrackPointExtension>
        </extensions>
      </trkpt>
      <trkpt lat="45.3009031154215335845947265625" lon="-71.098351366817951202392578125">
        <ele>854.79998779296875</ele>
        <time>2026-08-21T23:47:07.000Z</time>
        <extensions>
          <ns3:TrackPointExtension>
            <ns3:hr>121</ns3:hr>
            <ns3:cad>0</ns3:cad>
          </ns3:TrackPointExtension>
        </extensions>
      </trkpt>
      <trkpt lat="45.30089179985225200653076171875" lon="-71.09834793023765087127685546875">
        <ele>855.20001220703125</ele>
        <time>2026-08-21T23:47:08.000Z</time>
        <extensions>
          <ns3:TrackPointExtension>
            <ns3:hr>122</ns3:hr>
            <ns3:cad>0</ns3:cad>
          </ns3:TrackPointExtension>
        </extensions>
      </trkpt>
      <trkpt lat="45.30088358558714389801025390625" lon="-71.0983458347618579864501953125">
        <ele>855.4000244140625</ele>
        <time>2026-08-21T23:47:09.000Z</time>
        <extensions>
          <ns3:TrackPointExtension>
            <ns3:hr>124</ns3:hr>
            <ns3:cad>0</ns3:cad>
          </ns3:TrackPointExtension>
        </extensions>
      </trkpt>
      <trkpt lat="45.30087386257946491241455078125" lon="-71.09834290109574794769287109375">
        <ele>855.5999755859375</ele>
        <time>2026-08-21T23:47:10.000Z</time>
        <extensions>
          <ns3:TrackPointExtension>
            <ns3:hr>124</ns3:hr>
            <ns3:cad>0</ns3:cad>
          </ns3:TrackPointExtension>
        </extensions>
      </trkpt>
      <trkpt lat="45.30086137354373931884765625" lon="-71.0983408056199550628662109375">
        <ele>855.79998779296875</ele>
        <time>2026-08-21T23:47:11.000Z</time>
        <extensions>
          <ns3:TrackPointExtension>
            <ns3:hr>125</ns3:hr>
            <ns3:cad>0</ns3:cad>
          </ns3:TrackPointExtension>
        </extensions>
      </trkpt>
      <trkpt lat="45.3008565120398998260498046875" lon="-71.09834122471511363983154296875">
        <ele>856</ele>
        <time>2026-08-21T23:47:12.000Z</time>
        <extensions>
          <ns3:TrackPointExtension>
            <ns3:hr>126</ns3:hr>
            <ns3:cad>52</ns3:cad>
          </ns3:TrackPointExtension>
        </extensions>
      </trkpt>
      <trkpt lat="45.3008524887263774871826171875" lon="-71.0983374528586864471435546875">
        <ele>856.20001220703125</ele>
        <time>2026-08-21T23:47:13.000Z</time>
        <extensions>
          <ns3:TrackPointExtension>
            <ns3:hr>126</ns3:hr>
            <ns3:cad>52</ns3:cad>
          </ns3:TrackPointExtension>
        </extensions>
      </trkpt>
      <trkpt lat="45.30084989033639430999755859375" lon="-71.09833083115518093109130859375">
        <ele>856.5999755859375</ele>
        <time>2026-08-21T23:47:14.000Z</time>
        <extensions>
          <ns3:TrackPointExtension>
            <ns3:hr>126</ns3:hr>
            <ns3:cad>52</ns3:cad>
          </ns3:TrackPointExtension>
        </extensions>
      </trkpt>
      <trkpt lat="45.30084117315709590911865234375" lon="-71.09832462854683399200439453125">
        <ele>856.79998779296875</ele>
        <time>2026-08-21T23:47:15.000Z</time>
        <extensions>
          <ns3:TrackPointExtension>
            <ns3:hr>127</ns3:hr>
            <ns3:cad>52</ns3:cad>
          </ns3:TrackPointExtension>
        </extensions>
      </trkpt>
      <trkpt lat="45.3008325397968292236328125" lon="-71.0983166657388210296630859375">
        <ele>857.20001220703125</ele>
        <time>2026-08-21T23:47:16.000Z</time>
        <extensions>
          <ns3:TrackPointExtension>
            <ns3:hr>128</ns3:hr>
            <ns3:cad>48</ns3:cad>
          </ns3:TrackPointExtension>
        </extensions>
      </trkpt>
      <trkpt lat="45.30082541517913341522216796875" lon="-71.09831172041594982147216796875">
        <ele>857.4000244140625</ele>
        <time>2026-08-21T23:47:17.000Z</time>
        <extensions>
          <ns3:TrackPointExtension>
            <ns3:hr>128</ns3:hr>
            <ns3:cad>48</ns3:cad>
          </ns3:TrackPointExtension>
        </extensions>
      </trkpt>
      <trkpt lat="45.30081535689532756805419921875" lon="-71.09830342233180999755859375">
        <ele>857.5999755859375</ele>
        <time>2026-08-21T23:47:18.000Z</time>
        <extensions>
          <ns3:TrackPointExtension>
            <ns3:hr>128</ns3:hr>
            <ns3:cad>48</ns3:cad>
          </ns3:TrackPointExtension>
        </extensions>
      </trkpt>
      <trkpt lat="45.30080513097345829010009765625" lon="-71.098294369876384735107421875">
        <ele>857.5999755859375</ele>
        <time>2026-08-21T23:47:19.000Z</time>
        <extensions>
          <ns3:TrackPointExtension>
            <ns3:hr>129</ns3:hr>
            <ns3:cad>48</ns3:cad>
          </ns3:TrackPointExtension>
        </extensions>
      </trkpt>
      <trkpt lat="45.30079205520451068878173828125" lon="-71.0982871614396572113037109375">
        <ele>857.79998779296875</ele>
        <time>2026-08-21T23:47:20.000Z</time>
        <extensions>
          <ns3:TrackPointExtension>
            <ns3:hr>129</ns3:hr>
            <ns3:cad>48</ns3:cad>
          </ns3:TrackPointExtension>
        </extensions>
      </trkpt>
      <trkpt lat="45.300777889788150787353515625" lon="-71.0982814617455005645751953125">
        <ele>857.79998779296875</ele>
        <time>2026-08-21T23:47:21.000Z</time>
        <extensions>
          <ns3:TrackPointExtension>
            <ns3:hr>130</ns3:hr>
            <ns3:cad>48</ns3:cad>
          </ns3:TrackPointExtension>
        </extensions>
      </trkpt>
      <trkpt lat="45.30076456256210803985595703125" lon="-71.0982828028500080108642578125">
        <ele>858</ele>
        <time>2026-08-21T23:47:22.000Z</time>
        <extensions>
          <ns3:TrackPointExtension>
            <ns3:hr>131</ns3:hr>
            <ns3:cad>48</ns3:cad>
          </ns3:TrackPointExtension>
        </extensions>
      </trkpt>
      <trkpt lat="45.30075567774474620819091796875" lon="-71.09827970154583454132080078125">
        <ele>858.20001220703125</ele>
        <time>2026-08-21T23:47:23.000Z</time>
        <extensions>
          <ns3:TrackPointExtension>
            <ns3:hr>132</ns3:hr>
            <ns3:cad>0</ns3:cad>
          </ns3:TrackPointExtension>
        </extensions>
      </trkpt>
      <trkpt lat="45.30074863694608211517333984375" lon="-71.098269559442996978759765625">
        <ele>858.20001220703125</ele>
        <time>2026-08-21T23:47:24.000Z</time>
        <extensions>
          <ns3:TrackPointExtension>
            <ns3:hr>133</ns3:hr>
            <ns3:cad>0</ns3:cad>
          </ns3:TrackPointExtension>
        </extensions>
      </trkpt>
      <trkpt lat="45.300736986100673675537109375" lon="-71.0982677154242992401123046875">
        <ele>858.4000244140625</ele>
        <time>2026-08-21T23:47:25.000Z</time>
        <extensions>
          <ns3:TrackPointExtension>
            <ns3:hr>134</ns3:hr>
            <ns3:cad>0</ns3:cad>
          </ns3:TrackPointExtension>
        </extensions>
      </trkpt>
      <trkpt lat="45.3007254190742969512939453125" lon="-71.09826377592980861663818359375">
        <ele>858.4000244140625</ele>
        <time>2026-08-21T23:47:26.000Z</time>
        <extensions>
          <ns3:TrackPointExtension>
            <ns3:hr>135</ns3:hr>
            <ns3:cad>0</ns3:cad>
          </ns3:TrackPointExtension>
        </extensions>
      </trkpt>
      <trkpt lat="45.3007143549621105194091796875" lon="-71.09825514256954193115234375">
        <ele>858.4000244140625</ele>
        <time>2026-08-21T23:47:27.000Z</time>
        <extensions>
          <ns3:TrackPointExtension>
            <ns3:hr>136</ns3:hr>
            <ns3:cad>0</ns3:cad>
          </ns3:TrackPointExtension>
        </extensions>
      </trkpt>
      <trkpt lat="45.300700776278972625732421875" lon="-71.0982452519237995147705078125">
        <ele>858.5999755859375</ele>
        <time>2026-08-21T23:47:28.000Z</time>
        <extensions>
          <ns3:TrackPointExtension>
            <ns3:hr>137</ns3:hr>
            <ns3:cad>0</ns3:cad>
          </ns3:TrackPointExtension>
        </extensions>
      </trkpt>
      <trkpt lat="45.30068837106227874755859375" lon="-71.09823477454483509063720703125">
        <ele>858.5999755859375</ele>
        <time>2026-08-21T23:47:29.000Z</time>
        <extensions>
          <ns3:TrackPointExtension>
            <ns3:hr>137</ns3:hr>
            <ns3:cad>0</ns3:cad>
          </ns3:TrackPointExtension>
        </extensions>
      </trkpt>
      <trkpt lat="45.30067227780818939208984375" lon="-71.0982251353561878204345703125">
        <ele>858.5999755859375</ele>
        <time>2026-08-21T23:47:30.000Z</time>
        <extensions>
          <ns3:TrackPointExtension>
            <ns3:hr>137</ns3:hr>
            <ns3:cad>0</ns3:cad>
          </ns3:TrackPointExtension>
        </extensions>
      </trkpt>
      <trkpt lat="45.300652496516704559326171875" lon="-71.098219938576221466064453125">
        <ele>858.5999755859375</ele>
        <time>2026-08-21T23:47:31.000Z</time>
        <extensions>
          <ns3:TrackPointExtension>
            <ns3:hr>138</ns3:hr>
            <ns3:cad>48</ns3:cad>
          </ns3:TrackPointExtension>
        </extensions>
      </trkpt>
      <trkpt lat="45.3006338886916637420654296875" lon="-71.0982073657214641571044921875">
        <ele>858.5999755859375</ele>
        <time>2026-08-21T23:47:32.000Z</time>
        <extensions>
          <ns3:TrackPointExtension>
            <ns3:hr>138</ns3:hr>
            <ns3:cad>48</ns3:cad>
          </ns3:TrackPointExtension>
        </extensions>
      </trkpt>
      <trkpt lat="45.3006125986576080322265625" lon="-71.098200492560863494873046875">
        <ele>858.5999755859375</ele>
        <time>2026-08-21T23:47:33.000Z</time>
        <extensions>
          <ns3:TrackPointExtension>
            <ns3:hr>138</ns3:hr>
            <ns3:cad>50</ns3:cad>
          </ns3:TrackPointExtension>
        </extensions>
      </trkpt>
      <trkpt lat="45.30059206299483776092529296875" lon="-71.0981986485421657562255859375">
        <ele>858.79998779296875</ele>
        <time>2026-08-21T23:47:34.000Z</time>
        <extensions>
          <ns3:TrackPointExtension>
            <ns3:hr>138</ns3:hr>
            <ns3:cad>50</ns3:cad>
          </ns3:TrackPointExtension>
        </extensions>
      </trkpt>
      <trkpt lat="45.3005752153694629669189453125" lon="-71.0981966368854045867919921875">
        <ele>858.79998779296875</ele>
        <time>2026-08-21T23:47:35.000Z</time>
        <extensions>
          <ns3:TrackPointExtension>
            <ns3:hr>138</ns3:hr>
            <ns3:cad>64</ns3:cad>
          </ns3:TrackPointExtension>
        </extensions>
      </trkpt>
      <trkpt lat="45.30055937357246875762939453125" lon="-71.09819957055151462554931640625">
        <ele>859</ele>
        <time>2026-08-21T23:47:36.000Z</time>
        <extensions>
          <ns3:TrackPointExtension>
            <ns3:hr>138</ns3:hr>
            <ns3:cad>64</ns3:cad>
          </ns3:TrackPointExtension>
        </extensions>
      </trkpt>
      <trkpt lat="45.3005450405180454254150390625" lon="-71.098198480904102325439453125">
        <ele>859.20001220703125</ele>
        <time>2026-08-21T23:47:37.000Z</time>
        <extensions>
          <ns3:TrackPointExtension>
            <ns3:hr>138</ns3:hr>
            <ns3:cad>64</ns3:cad>
          </ns3:TrackPointExtension>
        </extensions>
      </trkpt>
      <trkpt lat="45.300535149872303009033203125" lon="-71.0981912724673748016357421875">
        <ele>859.5999755859375</ele>
        <time>2026-08-21T23:47:38.000Z</time>
        <extensions>
          <ns3:TrackPointExtension>
            <ns3:hr>137</ns3:hr>
            <ns3:cad>0</ns3:cad>
          </ns3:TrackPointExtension>
        </extensions>
      </trkpt>
      <trkpt lat="45.300522744655609130859375" lon="-71.09818565659224987030029296875">
        <ele>859.79998779296875</ele>
        <time>2026-08-21T23:47:39.000Z</time>
        <extensions>
          <ns3:TrackPointExtension>
            <ns3:hr>137</ns3:hr>
            <ns3:cad>0</ns3:cad>
          </ns3:TrackPointExtension>
        </extensions>
      </trkpt>
      <trkpt lat="45.30051536858081817626953125" lon="-71.0981768555939197540283203125">
        <ele>860</ele>
        <time>2026-08-21T23:47:40.000Z</time>
        <extensions>
          <ns3:TrackPointExtension>
            <ns3:hr>137</ns3:hr>
            <ns3:cad>0</ns3:cad>
          </ns3:TrackPointExtension>
        </extensions>
      </trkpt>
      <trkpt lat="45.30050732195377349853515625" lon="-71.0981713235378265380859375">
        <ele>860.20001220703125</ele>
        <time>2026-08-21T23:47:41.000Z</time>
        <extensions>
          <ns3:TrackPointExtension>
            <ns3:hr>137</ns3:hr>
            <ns3:cad>0</ns3:cad>
          </ns3:TrackPointExtension>
        </extensions>
      </trkpt>
      <trkpt lat="45.30049818567931652069091796875" lon="-71.0981624387204647064208984375">
        <ele>860.20001220703125</ele>
        <time>2026-08-21T23:47:42.000Z</time>
        <extensions>
          <ns3:TrackPointExtension>
            <ns3:hr>138</ns3:hr>
            <ns3:cad>51</ns3:cad>
          </ns3:TrackPointExtension>
        </extensions>
      </trkpt>
      <trkpt lat="45.300489552319049835205078125" lon="-71.098152883350849151611328125">
        <ele>860.20001220703125</ele>
        <time>2026-08-21T23:47:43.000Z</time>
        <extensions>
          <ns3:TrackPointExtension>
            <ns3:hr>138</ns3:hr>
            <ns3:cad>51</ns3:cad>
          </ns3:TrackPointExtension>
        </extensions>
      </trkpt>
      <trkpt lat="45.3004826791584491729736328125" lon="-71.098148860037326812744140625">
        <ele>860.20001220703125</ele>
        <time>2026-08-21T23:47:44.000Z</time>
        <extensions>
          <ns3:TrackPointExtension>
            <ns3:hr>138</ns3:hr>
            <ns3:cad>51</ns3:cad>
          </ns3:TrackPointExtension>
        </extensions>
      </trkpt>
      <trkpt lat="45.3004729561507701873779296875" lon="-71.09814492054283618927001953125">
        <ele>860.20001220703125</ele>
        <time>2026-08-21T23:47:45.000Z</time>
        <extensions>
          <ns3:TrackPointExtension>
            <ns3:hr>138</ns3:hr>
            <ns3:cad>0</ns3:cad>
          </ns3:TrackPointExtension>
        </extensions>
      </trkpt>
      <trkpt lat="45.30046029947698116302490234375" lon="-71.09814173541963100433349609375">
        <ele>860</ele>
        <time>2026-08-21T23:47:46.000Z</time>
        <extensions>
          <ns3:TrackPointExtension>
            <ns3:hr>137</ns3:hr>
            <ns3:cad>0</ns3:cad>
          </ns3:TrackPointExtension>
        </extensions>
      </trkpt>
      <trkpt lat="45.30044202692806720733642578125" lon="-71.09814827330410480499267578125">
        <ele>859.79998779296875</ele>
        <time>2026-08-21T23:47:47.000Z</time>
        <extensions>
          <ns3:TrackPointExtension>
            <ns3:hr>138</ns3:hr>
            <ns3:cad>0</ns3:cad>
          </ns3:TrackPointExtension>
        </extensions>
      </trkpt>
      <trkpt lat="45.300428532063961029052734375" lon="-71.09815145842730998992919921875">
        <ele>859.5999755859375</ele>
        <time>2026-08-21T23:47:48.000Z</time>
        <extensions>
          <ns3:TrackPointExtension>
            <ns3:hr>138</ns3:hr>
            <ns3:cad>0</ns3:cad>
          </ns3:TrackPointExtension>
        </extensions>
      </trkpt>
      <trkpt lat="45.30041587539017200469970703125" lon="-71.0981590859591960906982421875">
        <ele>859.4000244140625</ele>
        <time>2026-08-21T23:47:49.000Z</time>
        <extensions>
          <ns3:TrackPointExtension>
            <ns3:hr>139</ns3:hr>
            <ns3:cad>0</ns3:cad>
          </ns3:TrackPointExtension>
        </extensions>
      </trkpt>
      <trkpt lat="45.30040615238249301910400390625" lon="-71.098164618015289306640625">
        <ele>859.20001220703125</ele>
        <time>2026-08-21T23:47:50.000Z</time>
        <extensions>
          <ns3:TrackPointExtension>
            <ns3:hr>139</ns3:hr>
            <ns3:cad>0</ns3:cad>
          </ns3:TrackPointExtension>
        </extensions>
      </trkpt>
      <trkpt lat="45.30040196143090724945068359375" lon="-71.0981659591197967529296875">
        <ele>859</ele>
        <time>2026-08-21T23:47:51.000Z</time>
        <extensions>
          <ns3:TrackPointExtension>
            <ns3:hr>139</ns3:hr>
            <ns3:cad>0</ns3:cad>
          </ns3:TrackPointExtension>
        </extensions>
      </trkpt>
      <trkpt lat="45.3003847785294055938720703125" lon="-71.09816604293882846832275390625">
        <ele>859</ele>
        <time>2026-08-21T23:47:52.000Z</time>
        <extensions>
          <ns3:TrackPointExtension>
            <ns3:hr>139</ns3:hr>
            <ns3:cad>0</ns3:cad>
          </ns3:TrackPointExtension>
        </extensions>
      </trkpt>
      <trkpt lat="45.3003710322082042694091796875" lon="-71.09817065298557281494140625">
        <ele>859</ele>
        <time>2026-08-21T23:47:53.000Z</time>
        <extensions>
          <ns3:TrackPointExtension>
            <ns3:hr>138</ns3:hr>
            <ns3:cad>0</ns3:cad>
          </ns3:TrackPointExtension>
        </extensions>
      </trkpt>
      <trkpt lat="45.3003524243831634521484375" lon="-71.0981766879558563232421875">
        <ele>859.20001220703125</ele>
        <time>2026-08-21T23:47:54.000Z</time>
        <extensions>
          <ns3:TrackPointExtension>
            <ns3:hr>138</ns3:hr>
            <ns3:cad>0</ns3:cad>
          </ns3:TrackPointExtension>
        </extensions>
      </trkpt>
      <trkpt lat="45.30034228228032588958740234375" lon="-71.09818113036453723907470703125">
        <ele>859.20001220703125</ele>
        <time>2026-08-21T23:47:55.000Z</time>
        <extensions>
          <ns3:TrackPointExtension>
            <ns3:hr>138</ns3:hr>
            <ns3:cad>0</ns3:cad>
          </ns3:TrackPointExtension>
        </extensions>
      </trkpt>
      <trkpt lat="45.3003321401774883270263671875" lon="-71.09819135628640651702880859375">
        <ele>859</ele>
        <time>2026-08-21T23:47:56.000Z</time>
        <extensions>
          <ns3:TrackPointExtension>
            <ns3:hr>138</ns3:hr>
            <ns3:cad>0</ns3:cad>
          </ns3:TrackPointExtension>
        </extensions>
      </trkpt>
      <trkpt lat="45.30031965114176273345947265625" lon="-71.0982006601989269256591796875">
        <ele>859</ele>
        <time>2026-08-21T23:47:57.000Z</time>
        <extensions>
          <ns3:TrackPointExtension>
            <ns3:hr>138</ns3:hr>
            <ns3:cad>40</ns3:cad>
          </ns3:TrackPointExtension>
        </extensions>
      </trkpt>
      <trkpt lat="45.30030079185962677001953125" lon="-71.09821113757789134979248046875">
        <ele>858.79998779296875</ele>
        <time>2026-08-21T23:47:58.000Z</time>
        <extensions>
          <ns3:TrackPointExtension>
            <ns3:hr>138</ns3:hr>
            <ns3:cad>40</ns3:cad>
          </ns3:TrackPointExtension>
        </extensions>
      </trkpt>
      <trkpt lat="45.300290398299694061279296875" lon="-71.098214574158191680908203125">
        <ele>859</ele>
        <time>2026-08-21T23:47:59.000Z</time>
        <extensions>
          <ns3:TrackPointExtension>
            <ns3:hr>138</ns3:hr>
            <ns3:cad>0</ns3:cad>
          </ns3:TrackPointExtension>
        </extensions>
      </trkpt>
      <trkpt lat="45.3002768196165561676025390625" lon="-71.098221950232982635498046875">
        <ele>859</ele>
        <time>2026-08-21T23:48:00.000Z</time>
        <extensions>
          <ns3:TrackPointExtension>
            <ns3:hr>138</ns3:hr>
            <ns3:cad>0</ns3:cad>
          </ns3:TrackPointExtension>
        </extensions>
      </trkpt>
      <trkpt lat="45.3002677671611309051513671875" lon="-71.09823008067905902862548828125">
        <ele>859.20001220703125</ele>
        <time>2026-08-21T23:48:01.000Z</time>
        <extensions>
          <ns3:TrackPointExtension>
            <ns3:hr>137</ns3:hr>
            <ns3:cad>0</ns3:cad>
          </ns3:TrackPointExtension>
        </extensions>
      </trkpt>
      <trkpt lat="45.3002553619444370269775390625" lon="-71.09823376871645450592041015625">
        <ele>859.4000244140625</ele>
        <time>2026-08-21T23:48:02.000Z</time>
        <extensions>
          <ns3:TrackPointExtension>
            <ns3:hr>137</ns3:hr>
            <ns3:cad>0</ns3:cad>
          </ns3:TrackPointExtension>
        </extensions>
      </trkpt>
      <trkpt lat="45.3002436272799968719482421875" lon="-71.0982405580580234527587890625">
        <ele>859.79998779296875</ele>
        <time>2026-08-21T23:48:03.000Z</time>
        <extensions>
          <ns3:TrackPointExtension>
            <ns3:hr>137</ns3:hr>
            <ns3:cad>0</ns3:cad>
          </ns3:TrackPointExtension>
        </extensions>
      </trkpt>
      <trkpt lat="45.30023415572941303253173828125" lon="-71.098256818950176239013671875">
        <ele>859.79998779296875</ele>
        <time>2026-08-21T23:48:04.000Z</time>
        <extensions>
          <ns3:TrackPointExtension>
            <ns3:hr>136</ns3:hr>
            <ns3:cad>0</ns3:cad>
          </ns3:TrackPointExtension>
        </extensions>
      </trkpt>
      <trkpt lat="45.30022912658751010894775390625" lon="-71.09827601350843906402587890625">
        <ele>860</ele>
        <time>2026-08-21T23:48:05.000Z</time>
        <extensions>
          <ns3:TrackPointExtension>
            <ns3:hr>136</ns3:hr>
            <ns3:cad>0</ns3:cad>
          </ns3:TrackPointExtension>
        </extensions>
      </trkpt>
      <trkpt lat="45.300228036940097808837890625" lon="-71.09828556887805461883544921875">
        <ele>860</ele>
        <time>2026-08-21T23:48:06.000Z</time>
        <extensions>
          <ns3:TrackPointExtension>
            <ns3:hr>135</ns3:hr>
            <ns3:cad>0</ns3:cad>
          </ns3:TrackPointExtension>
        </extensions>
      </trkpt>
      <trkpt lat="45.300223343074321746826171875" lon="-71.09830484725534915924072265625">
        <ele>859.79998779296875</ele>
        <time>2026-08-21T23:48:07.000Z</time>
        <extensions>
          <ns3:TrackPointExtension>
            <ns3:hr>135</ns3:hr>
            <ns3:cad>0</ns3:cad>
          </ns3:TrackPointExtension>
        </extensions>
      </trkpt>
      <trkpt lat="45.30021571554243564605712890625" lon="-71.0983216948807239532470703125">
        <ele>859.79998779296875</ele>
        <time>2026-08-21T23:48:08.000Z</time>
        <extensions>
          <ns3:TrackPointExtension>
            <ns3:hr>135</ns3:hr>
            <ns3:cad>0</ns3:cad>
          </ns3:TrackPointExtension>
        </extensions>
      </trkpt>
      <trkpt lat="45.30020884238183498382568359375" lon="-71.09833703376352787017822265625">
        <ele>859.79998779296875</ele>
        <time>2026-08-21T23:48:09.000Z</time>
        <extensions>
          <ns3:TrackPointExtension>
            <ns3:hr>135</ns3:hr>
            <ns3:cad>0</ns3:cad>
          </ns3:TrackPointExtension>
        </extensions>
      </trkpt>
      <trkpt lat="45.3002023883163928985595703125" lon="-71.0983488522469997406005859375">
        <ele>859.79998779296875</ele>
        <time>2026-08-21T23:48:10.000Z</time>
        <extensions>
          <ns3:TrackPointExtension>
            <ns3:hr>136</ns3:hr>
            <ns3:cad>0</ns3:cad>
          </ns3:TrackPointExtension>
        </extensions>
      </trkpt>
      <trkpt lat="45.30019492842257022857666015625" lon="-71.09835983254015445709228515625">
        <ele>859.79998779296875</ele>
        <time>2026-08-21T23:48:11.000Z</time>
        <extensions>
          <ns3:TrackPointExtension>
            <ns3:hr>136</ns3:hr>
            <ns3:cad>0</ns3:cad>
          </ns3:TrackPointExtension>
        </extensions>
      </trkpt>
      <trkpt lat="45.3001826070249080657958984375" lon="-71.09837072901427745819091796875">
        <ele>859.79998779296875</ele>
        <time>2026-08-21T23:48:12.000Z</time>
        <extensions>
          <ns3:TrackPointExtension>
            <ns3:hr>136</ns3:hr>
            <ns3:cad>0</ns3:cad>
          </ns3:TrackPointExtension>
        </extensions>
      </trkpt>
      <trkpt lat="45.30017263256013393402099609375" lon="-71.098376847803592681884765625">
        <ele>859.79998779296875</ele>
        <time>2026-08-21T23:48:13.000Z</time>
        <extensions>
          <ns3:TrackPointExtension>
            <ns3:hr>135</ns3:hr>
            <ns3:cad>0</ns3:cad>
          </ns3:TrackPointExtension>
        </extensions>
      </trkpt>
      <trkpt lat="45.30016156844794750213623046875" lon="-71.0983897559344768524169921875">
        <ele>860</ele>
        <time>2026-08-21T23:48:14.000Z</time>
        <extensions>
          <ns3:TrackPointExtension>
            <ns3:hr>136</ns3:hr>
            <ns3:cad>0</ns3:cad>
          </ns3:TrackPointExtension>
        </extensions>
      </trkpt>
      <trkpt lat="45.30015570111572742462158203125" lon="-71.0984014905989170074462890625">
        <ele>860</ele>
        <time>2026-08-21T23:48:15.000Z</time>
        <extensions>
          <ns3:TrackPointExtension>
            <ns3:hr>136</ns3:hr>
            <ns3:cad>0</ns3:cad>
          </ns3:TrackPointExtension>
        </extensions>
      </trkpt>
      <trkpt lat="45.30014597810804843902587890625" lon="-71.09841079451143741607666015625">
        <ele>860.20001220703125</ele>
        <time>2026-08-21T23:48:16.000Z</time>
        <extensions>
          <ns3:TrackPointExtension>
            <ns3:hr>136</ns3:hr>
            <ns3:cad>0</ns3:cad>
          </ns3:TrackPointExtension>
        </extensions>
      </trkpt>
      <trkpt lat="45.30013223178684711456298828125" lon="-71.098426468670368194580078125">
        <ele>860.20001220703125</ele>
        <time>2026-08-21T23:48:17.000Z</time>
        <extensions>
          <ns3:TrackPointExtension>
            <ns3:hr>135</ns3:hr>
            <ns3:cad>0</ns3:cad>
          </ns3:TrackPointExtension>
        </extensions>
      </trkpt>
      <trkpt lat="45.3001326508820056915283203125" lon="-71.0984377004206180572509765625">
        <ele>860.4000244140625</ele>
        <time>2026-08-21T23:48:18.000Z</time>
        <extensions>
          <ns3:TrackPointExtension>
            <ns3:hr>135</ns3:hr>
            <ns3:cad>0</ns3:cad>
          </ns3:TrackPointExtension>
        </extensions>
      </trkpt>
      <trkpt lat="45.30013189651072025299072265625" lon="-71.098457984626293182373046875">
        <ele>860.5999755859375</ele>
        <time>2026-08-21T23:48:19.000Z</time>
        <extensions>
          <ns3:TrackPointExtension>
            <ns3:hr>135</ns3:hr>
            <ns3:cad>0</ns3:cad>
          </ns3:TrackPointExtension>
        </extensions>
      </trkpt>
      <trkpt lat="45.30012770555913448333740234375" lon="-71.09847374260425567626953125">
        <ele>860.5999755859375</ele>
        <time>2026-08-21T23:48:20.000Z</time>
        <extensions>
          <ns3:TrackPointExtension>
            <ns3:hr>134</ns3:hr>
            <ns3:cad>0</ns3:cad>
          </ns3:TrackPointExtension>
        </extensions>
      </trkpt>
      <trkpt lat="45.3001222573220729827880859375" lon="-71.09847835265100002288818359375">
        <ele>860.79998779296875</ele>
        <time>2026-08-21T23:48:21.000Z</time>
        <extensions>
          <ns3:TrackPointExtension>
            <ns3:hr>134</ns3:hr>
            <ns3:cad>0</ns3:cad>
          </ns3:TrackPointExtension>
        </extensions>
      </trkpt>
      <trkpt lat="45.300119407474994659423828125" lon="-71.09848849475383758544921875">
        <ele>861</ele>
        <time>2026-08-21T23:48:22.000Z</time>
        <extensions>
          <ns3:TrackPointExtension>
            <ns3:hr>133</ns3:hr>
            <ns3:cad>0</ns3:cad>
          </ns3:TrackPointExtension>
        </extensions>
      </trkpt>
      <trkpt lat="45.30011815018951892852783203125" lon="-71.09849763102829456329345703125">
        <ele>861.20001220703125</ele>
        <time>2026-08-21T23:48:23.000Z</time>
        <extensions>
          <ns3:TrackPointExtension>
            <ns3:hr>133</ns3:hr>
            <ns3:cad>0</ns3:cad>
          </ns3:TrackPointExtension>
        </extensions>
      </trkpt>
      <trkpt lat="45.30011236667633056640625" lon="-71.098516993224620819091796875">
        <ele>861.4000244140625</ele>
        <time>2026-08-21T23:48:24.000Z</time>
        <extensions>
          <ns3:TrackPointExtension>
            <ns3:hr>133</ns3:hr>
            <ns3:cad>0</ns3:cad>
          </ns3:TrackPointExtension>
        </extensions>
      </trkpt>
      <trkpt lat="45.30010792426764965057373046875" lon="-71.09852981753647327423095703125">
        <ele>861.5999755859375</ele>
        <time>2026-08-21T23:48:25.000Z</time>
        <extensions>
          <ns3:TrackPointExtension>
            <ns3:hr>133</ns3:hr>
            <ns3:cad>0</ns3:cad>
          </ns3:TrackPointExtension>
        </extensions>
      </trkpt>
      <trkpt lat="45.30010373331606388092041015625" lon="-71.09854239039123058319091796875">
        <ele>861.79998779296875</ele>
        <time>2026-08-21T23:48:26.000Z</time>
        <extensions>
          <ns3:TrackPointExtension>
            <ns3:hr>134</ns3:hr>
            <ns3:cad>0</ns3:cad>
          </ns3:TrackPointExtension>
        </extensions>
      </trkpt>
      <trkpt lat="45.3001028113067150115966796875" lon="-71.09855261631309986114501953125">
        <ele>862</ele>
        <time>2026-08-21T23:48:27.000Z</time>
        <extensions>
          <ns3:TrackPointExtension>
            <ns3:hr>134</ns3:hr>
            <ns3:cad>0</ns3:cad>
          </ns3:TrackPointExtension>
        </extensions>
      </trkpt>
      <trkpt lat="45.30009920708835124969482421875" lon="-71.0985630936920642852783203125">
        <ele>862.20001220703125</ele>
        <time>2026-08-21T23:48:28.000Z</time>
        <extensions>
          <ns3:TrackPointExtension>
            <ns3:hr>134</ns3:hr>
            <ns3:cad>0</ns3:cad>
          </ns3:TrackPointExtension>
        </extensions>
      </trkpt>
      <trkpt lat="45.3000949323177337646484375" lon="-71.0985738225281238555908203125">
        <ele>862.20001220703125</ele>
        <time>2026-08-21T23:48:29.000Z</time>
        <extensions>
          <ns3:TrackPointExtension>
            <ns3:hr>134</ns3:hr>
            <ns3:cad>0</ns3:cad>
          </ns3:TrackPointExtension>
        </extensions>
      </trkpt>
      <trkpt lat="45.30009568668901920318603515625" lon="-71.09857591800391674041748046875">
        <ele>862.5999755859375</ele>
        <time>2026-08-21T23:48:30.000Z</time>
        <extensions>
          <ns3:TrackPointExtension>
            <ns3:hr>134</ns3:hr>
            <ns3:cad>0</ns3:cad>
          </ns3:TrackPointExtension>
        </extensions>
      </trkpt>
      <trkpt lat="45.30009853653609752655029296875" lon="-71.09859402291476726531982421875">
        <ele>862.79998779296875</ele>
        <time>2026-08-21T23:48:31.000Z</time>
        <extensions>
          <ns3:TrackPointExtension>
            <ns3:hr>134</ns3:hr>
            <ns3:cad>0</ns3:cad>
          </ns3:TrackPointExtension>
        </extensions>
      </trkpt>
      <trkpt lat="45.30010071583092212677001953125" lon="-71.09860651195049285888671875">
        <ele>863</ele>
        <time>2026-08-21T23:48:32.000Z</time>
        <extensions>
          <ns3:TrackPointExtension>
            <ns3:hr>134</ns3:hr>
            <ns3:cad>0</ns3:cad>
          </ns3:TrackPointExtension>
        </extensions>
      </trkpt>
      <trkpt lat="45.30010230839252471923828125" lon="-71.0986244492232799530029296875">
        <ele>863.20001220703125</ele>
        <time>2026-08-21T23:48:33.000Z</time>
        <extensions>
          <ns3:TrackPointExtension>
            <ns3:hr>134</ns3:hr>
            <ns3:cad>0</ns3:cad>
          </ns3:TrackPointExtension>
        </extensions>
      </trkpt>
      <trkpt lat="45.30010457150638103485107421875" lon="-71.09863978810608386993408203125">
        <ele>863.4000244140625</ele>
        <time>2026-08-21T23:48:34.000Z</time>
        <extensions>
          <ns3:TrackPointExtension>
            <ns3:hr>134</ns3:hr>
            <ns3:cad>0</ns3:cad>
          </ns3:TrackPointExtension>
        </extensions>
      </trkpt>
      <trkpt lat="45.300107337534427642822265625" lon="-71.09865906648337841033935546875">
        <ele>863.4000244140625</ele>
        <time>2026-08-21T23:48:35.000Z</time>
        <extensions>
          <ns3:TrackPointExtension>
            <ns3:hr>135</ns3:hr>
            <ns3:cad>0</ns3:cad>
          </ns3:TrackPointExtension>
        </extensions>
      </trkpt>
      <trkpt lat="45.3001088462769985198974609375" lon="-71.09867465682327747344970703125">
        <ele>863.4000244140625</ele>
        <time>2026-08-21T23:48:36.000Z</time>
        <extensions>
          <ns3:TrackPointExtension>
            <ns3:hr>134</ns3:hr>
            <ns3:cad>0</ns3:cad>
          </ns3:TrackPointExtension>
        </extensions>
      </trkpt>
      <trkpt lat="45.3001061640679836273193359375" lon="-71.09869075007736682891845703125">
        <ele>863.4000244140625</ele>
        <time>2026-08-21T23:48:37.000Z</time>
        <extensions>
          <ns3:TrackPointExtension>
            <ns3:hr>135</ns3:hr>
            <ns3:cad>0</ns3:cad>
          </ns3:TrackPointExtension>
        </extensions>
      </trkpt>
      <trkpt lat="45.30010758899152278900146484375" lon="-71.09869276173412799835205078125">
        <ele>863.5999755859375</ele>
        <time>2026-08-21T23:48:38.000Z</time>
        <extensions>
          <ns3:TrackPointExtension>
            <ns3:hr>135</ns3:hr>
            <ns3:cad>0</ns3:cad>
          </ns3:TrackPointExtension>
        </extensions>
      </trkpt>
      <trkpt lat="45.30010809190571308135986328125" lon="-71.0987086035311222076416015625">
        <ele>863.79998779296875</ele>
        <time>2026-08-21T23:48:39.000Z</time>
        <extensions>
          <ns3:TrackPointExtension>
            <ns3:hr>136</ns3:hr>
            <ns3:cad>0</ns3:cad>
          </ns3:TrackPointExtension>
        </extensions>
      </trkpt>
      <trkpt lat="45.300104655325412750244140625" lon="-71.09872947447001934051513671875">
        <ele>864</ele>
        <time>2026-08-21T23:48:40.000Z</time>
        <extensions>
          <ns3:TrackPointExtension>
            <ns3:hr>136</ns3:hr>
            <ns3:cad>0</ns3:cad>
          </ns3:TrackPointExtension>
        </extensions>
      </trkpt>
      <trkpt lat="45.300095267593860626220703125" lon="-71.09874472953379154205322265625">
        <ele>864.20001220703125</ele>
        <time>2026-08-21T23:48:41.000Z</time>
        <extensions>
          <ns3:TrackPointExtension>
            <ns3:hr>136</ns3:hr>
            <ns3:cad>0</ns3:cad>
          </ns3:TrackPointExtension>
        </extensions>
      </trkpt>
      <trkpt lat="45.30008411966264247894287109375" lon="-71.098754703998565673828125">
        <ele>864.4000244140625</ele>
        <time>2026-08-21T23:48:42.000Z</time>
        <extensions>
          <ns3:TrackPointExtension>
            <ns3:hr>137</ns3:hr>
            <ns3:cad>0</ns3:cad>
          </ns3:TrackPointExtension>
        </extensions>
      </trkpt>
      <trkpt lat="45.30007146298885345458984375" lon="-71.09876987524330615997314453125">
        <ele>864.4000244140625</ele>
        <time>2026-08-21T23:48:43.000Z</time>
        <extensions>
          <ns3:TrackPointExtension>
            <ns3:hr>137</ns3:hr>
            <ns3:cad>0</ns3:cad>
          </ns3:TrackPointExtension>
        </extensions>
      </trkpt>
      <trkpt lat="45.30006065033376216888427734375" lon="-71.09878630377352237701416015625">
        <ele>864.5999755859375</ele>
        <time>2026-08-21T23:48:44.000Z</time>
        <extensions>
          <ns3:TrackPointExtension>
            <ns3:hr>138</ns3:hr>
            <ns3:cad>0</ns3:cad>
          </ns3:TrackPointExtension>
        </extensions>
      </trkpt>
      <trkpt lat="45.300047658383846282958984375" lon="-71.09879602678120136260986328125">
        <ele>864.5999755859375</ele>
        <time>2026-08-21T23:48:45.000Z</time>
        <extensions>
          <ns3:TrackPointExtension>
            <ns3:hr>138</ns3:hr>
            <ns3:cad>0</ns3:cad>
          </ns3:TrackPointExtension>
        </extensions>
      </trkpt>
      <trkpt lat="45.3000350855290889739990234375" lon="-71.098812706768512725830078125">
        <ele>864.79998779296875</ele>
        <time>2026-08-21T23:48:46.000Z</time>
        <extensions>
          <ns3:TrackPointExtension>
            <ns3:hr>139</ns3:hr>
            <ns3:cad>0</ns3:cad>
          </ns3:TrackPointExtension>
        </extensions>
      </trkpt>
      <trkpt lat="45.300022847950458526611328125" lon="-71.09882418997585773468017578125">
        <ele>864.79998779296875</ele>
        <time>2026-08-21T23:48:47.000Z</time>
        <extensions>
          <ns3:TrackPointExtension>
            <ns3:hr>139</ns3:hr>
            <ns3:cad>0</ns3:cad>
          </ns3:TrackPointExtension>
        </extensions>
      </trkpt>
      <trkpt lat="45.30001052655279636383056640625" lon="-71.09883290715515613555908203125">
        <ele>865</ele>
        <time>2026-08-21T23:48:48.000Z</time>
        <extensions>
          <ns3:TrackPointExtension>
            <ns3:hr>139</ns3:hr>
            <ns3:cad>0</ns3:cad>
          </ns3:TrackPointExtension>
        </extensions>
      </trkpt>
      <trkpt lat="45.3000005520880222320556640625" lon="-71.09883642755448818206787109375">
        <ele>865</ele>
        <time>2026-08-21T23:48:49.000Z</time>
        <extensions>
          <ns3:TrackPointExtension>
            <ns3:hr>139</ns3:hr>
            <ns3:cad>0</ns3:cad>
          </ns3:TrackPointExtension>
        </extensions>
      </trkpt>
      <trkpt lat="45.29998538084328174591064453125" lon="-71.09884279780089855194091796875">
        <ele>865</ele>
        <time>2026-08-21T23:48:50.000Z</time>
        <extensions>
          <ns3:TrackPointExtension>
            <ns3:hr>139</ns3:hr>
            <ns3:cad>0</ns3:cad>
          </ns3:TrackPointExtension>
        </extensions>
      </trkpt>
      <trkpt lat="45.29997364617884159088134765625" lon="-71.09883743338286876678466796875">
        <ele>865.20001220703125</ele>
        <time>2026-08-21T23:48:51.000Z</time>
        <extensions>
          <ns3:TrackPointExtension>
            <ns3:hr>139</ns3:hr>
            <ns3:cad>0</ns3:cad>
          </ns3:TrackPointExtension>
        </extensions>
      </trkpt>
      <trkpt lat="45.29996015131473541259765625" lon="-71.0988380201160907745361328125">
        <ele>865.4000244140625</ele>
        <time>2026-08-21T23:48:52.000Z</time>
        <extensions>
          <ns3:TrackPointExtension>
            <ns3:hr>138</ns3:hr>
            <ns3:cad>0</ns3:cad>
          </ns3:TrackPointExtension>
        </extensions>
      </trkpt>
      <trkpt lat="45.2999505959451198577880859375" lon="-71.09884296543896198272705078125">
        <ele>865.4000244140625</ele>
        <time>2026-08-21T23:48:53.000Z</time>
        <extensions>
          <ns3:TrackPointExtension>
            <ns3:hr>139</ns3:hr>
            <ns3:cad>0</ns3:cad>
          </ns3:TrackPointExtension>
        </extensions>
      </trkpt>
      <trkpt lat="45.29993928037583827972412109375" lon="-71.09884631820023059844970703125">
        <ele>865.4000244140625</ele>
        <time>2026-08-21T23:48:54.000Z</time>
        <extensions>
          <ns3:TrackPointExtension>
            <ns3:hr>139</ns3:hr>
            <ns3:cad>0</ns3:cad>
          </ns3:TrackPointExtension>
        </extensions>
      </trkpt>
      <trkpt lat="45.29992586933076381683349609375" lon="-71.09884765930473804473876953125">
        <ele>865.4000244140625</ele>
        <time>2026-08-21T23:48:55.000Z</time>
        <extensions>
          <ns3:TrackPointExtension>
            <ns3:hr>138</ns3:hr>
            <ns3:cad>0</ns3:cad>
          </ns3:TrackPointExtension>
        </extensions>
      </trkpt>
      <trkpt lat="45.299918241798877716064453125" lon="-71.0988494195044040679931640625">
        <ele>865.4000244140625</ele>
        <time>2026-08-21T23:48:56.000Z</time>
        <extensions>
          <ns3:TrackPointExtension>
            <ns3:hr>139</ns3:hr>
            <ns3:cad>0</ns3:cad>
          </ns3:TrackPointExtension>
        </extensions>
      </trkpt>
      <trkpt lat="45.2999096922576427459716796875" lon="-71.09885872341692447662353515625">
        <ele>865.20001220703125</ele>
        <time>2026-08-21T23:48:57.000Z</time>
        <extensions>
          <ns3:TrackPointExtension>
            <ns3:hr>139</ns3:hr>
            <ns3:cad>0</ns3:cad>
          </ns3:TrackPointExtension>
        </extensions>
      </trkpt>
      <trkpt lat="45.29990122653543949127197265625" lon="-71.0988681949675083160400390625">
        <ele>865.20001220703125</ele>
        <time>2026-08-21T23:48:58.000Z</time>
        <extensions>
          <ns3:TrackPointExtension>
            <ns3:hr>139</ns3:hr>
            <ns3:cad>0</ns3:cad>
          </ns3:TrackPointExtension>
        </extensions>
      </trkpt>
      <trkpt lat="45.2998932637274265289306640625" lon="-71.0988749004900455474853515625">
        <ele>865.4000244140625</ele>
        <time>2026-08-21T23:48:59.000Z</time>
        <extensions>
          <ns3:TrackPointExtension>
            <ns3:hr>139</ns3:hr>
            <ns3:cad>53</ns3:cad>
          </ns3:TrackPointExtension>
        </extensions>
      </trkpt>
      <trkpt lat="45.299878679215908050537109375" lon="-71.0988836176693439483642578125">
        <ele>865.4000244140625</ele>
        <time>2026-08-21T23:49:00.000Z</time>
        <extensions>
          <ns3:TrackPointExtension>
            <ns3:hr>139</ns3:hr>
            <ns3:cad>53</ns3:cad>
          </ns3:TrackPointExtension>
        </extensions>
      </trkpt>
      <trkpt lat="45.29986652545630931854248046875" lon="-71.0988928377628326416015625">
        <ele>865.4000244140625</ele>
        <time>2026-08-21T23:49:01.000Z</time>
        <extensions>
          <ns3:TrackPointExtension>
            <ns3:hr>138</ns3:hr>
            <ns3:cad>53</ns3:cad>
          </ns3:TrackPointExtension>
        </extensions>
      </trkpt>
      <trkpt lat="45.29985814355313777923583984375" lon="-71.09890214167535305023193359375">
        <ele>865.5999755859375</ele>
        <time>2026-08-21T23:49:02.000Z</time>
        <extensions>
          <ns3:TrackPointExtension>
            <ns3:hr>138</ns3:hr>
            <ns3:cad>53</ns3:cad>
          </ns3:TrackPointExtension>
        </extensions>
      </trkpt>
      <trkpt lat="45.29985143803060054779052734375" lon="-71.09890800900757312774658203125">
        <ele>865.5999755859375</ele>
        <time>2026-08-21T23:49:03.000Z</time>
        <extensions>
          <ns3:TrackPointExtension>
            <ns3:hr>138</ns3:hr>
            <ns3:cad>51</ns3:cad>
          </ns3:TrackPointExtension>
        </extensions>
      </trkpt>
      <trkpt lat="45.29984272085130214691162109375" lon="-71.0989134572446346282958984375">
        <ele>865.79998779296875</ele>
        <time>2026-08-21T23:49:04.000Z</time>
        <extensions>
          <ns3:TrackPointExtension>
            <ns3:hr>138</ns3:hr>
            <ns3:cad>51</ns3:cad>
          </ns3:TrackPointExtension>
        </extensions>
      </trkpt>
      <trkpt lat="45.29983182437717914581298828125" lon="-71.0989208333194255828857421875">
        <ele>865.79998779296875</ele>
        <time>2026-08-21T23:49:05.000Z</time>
        <extensions>
          <ns3:TrackPointExtension>
            <ns3:hr>138</ns3:hr>
            <ns3:cad>53</ns3:cad>
          </ns3:TrackPointExtension>
        </extensions>
      </trkpt>
      <trkpt lat="45.2998231910169124603271484375" lon="-71.09892628155648708343505859375">
        <ele>866</ele>
        <time>2026-08-21T23:49:06.000Z</time>
        <extensions>
          <ns3:TrackPointExtension>
            <ns3:hr>138</ns3:hr>
            <ns3:cad>53</ns3:cad>
          </ns3:TrackPointExtension>
        </extensions>
      </trkpt>
      <trkpt lat="45.299813635647296905517578125" lon="-71.098934747278690338134765625">
        <ele>866.20001220703125</ele>
        <time>2026-08-21T23:49:07.000Z</time>
        <extensions>
          <ns3:TrackPointExtension>
            <ns3:hr>137</ns3:hr>
            <ns3:cad>53</ns3:cad>
          </ns3:TrackPointExtension>
        </extensions>
      </trkpt>
      <trkpt lat="45.2997990511357784271240234375" lon="-71.09894354827702045440673828125">
        <ele>866.20001220703125</ele>
        <time>2026-08-21T23:49:08.000Z</time>
        <extensions>
          <ns3:TrackPointExtension>
            <ns3:hr>137</ns3:hr>
            <ns3:cad>50</ns3:cad>
          </ns3:TrackPointExtension>
        </extensions>
      </trkpt>
      <trkpt lat="45.29978706501424312591552734375" lon="-71.09894824214279651641845703125">
        <ele>866.4000244140625</ele>
        <time>2026-08-21T23:49:09.000Z</time>
        <extensions>
          <ns3:TrackPointExtension>
            <ns3:hr>136</ns3:hr>
            <ns3:cad>50</ns3:cad>
          </ns3:TrackPointExtension>
        </extensions>
      </trkpt>
      <trkpt lat="45.29977717436850070953369140625" lon="-71.09895193018019199371337890625">
        <ele>866.5999755859375</ele>
        <time>2026-08-21T23:49:10.000Z</time>
        <extensions>
          <ns3:TrackPointExtension>
            <ns3:hr>136</ns3:hr>
            <ns3:cad>50</ns3:cad>
          </ns3:TrackPointExtension>
        </extensions>
      </trkpt>
      <trkpt lat="45.29976393096148967742919921875" lon="-71.09896098263561725616455078125">
        <ele>866.5999755859375</ele>
        <time>2026-08-21T23:49:11.000Z</time>
        <extensions>
          <ns3:TrackPointExtension>
            <ns3:hr>136</ns3:hr>
            <ns3:cad>50</ns3:cad>
          </ns3:TrackPointExtension>
        </extensions>
      </trkpt>
      <trkpt lat="45.29975496232509613037109375" lon="-71.0989691130816936492919921875">
        <ele>866.79998779296875</ele>
        <time>2026-08-21T23:49:12.000Z</time>
        <extensions>
          <ns3:TrackPointExtension>
            <ns3:hr>136</ns3:hr>
            <ns3:cad>50</ns3:cad>
          </ns3:TrackPointExtension>
        </extensions>
      </trkpt>
      <trkpt lat="45.2997433952987194061279296875" lon="-71.09898361377418041229248046875">
        <ele>867</ele>
        <time>2026-08-21T23:49:13.000Z</time>
        <extensions>
          <ns3:TrackPointExtension>
            <ns3:hr>136</ns3:hr>
            <ns3:cad>50</ns3:cad>
          </ns3:TrackPointExtension>
        </extensions>
      </trkpt>
      <trkpt lat="45.29973442666232585906982421875" lon="-71.09899736009538173675537109375">
        <ele>867.20001220703125</ele>
        <time>2026-08-21T23:49:14.000Z</time>
        <extensions>
          <ns3:TrackPointExtension>
            <ns3:hr>136</ns3:hr>
            <ns3:cad>50</ns3:cad>
          </ns3:TrackPointExtension>
        </extensions>
      </trkpt>
      <trkpt lat="45.29972654767334461212158203125" lon="-71.09900976531207561492919921875">
        <ele>867.4000244140625</ele>
        <time>2026-08-21T23:49:15.000Z</time>
        <extensions>
          <ns3:TrackPointExtension>
            <ns3:hr>136</ns3:hr>
            <ns3:cad>51</ns3:cad>
          </ns3:TrackPointExtension>
        </extensions>
      </trkpt>
      <trkpt lat="45.2997155673801898956298828125" lon="-71.09902284108102321624755859375">
        <ele>867.5999755859375</ele>
        <time>2026-08-21T23:49:16.000Z</time>
        <extensions>
          <ns3:TrackPointExtension>
            <ns3:hr>137</ns3:hr>
            <ns3:cad>51</ns3:cad>
          </ns3:TrackPointExtension>
        </extensions>
      </trkpt>
      <trkpt lat="45.29970676638185977935791015625" lon="-71.0990344919264316558837890625">
        <ele>867.5999755859375</ele>
        <time>2026-08-21T23:49:17.000Z</time>
        <extensions>
          <ns3:TrackPointExtension>
            <ns3:hr>136</ns3:hr>
            <ns3:cad>51</ns3:cad>
          </ns3:TrackPointExtension>
        </extensions>
      </trkpt>
      <trkpt lat="45.29969704337418079376220703125" lon="-71.0990509204566478729248046875">
        <ele>867.79998779296875</ele>
        <time>2026-08-21T23:49:18.000Z</time>
        <extensions>
          <ns3:TrackPointExtension>
            <ns3:hr>136</ns3:hr>
            <ns3:cad>51</ns3:cad>
          </ns3:TrackPointExtension>
        </extensions>
      </trkpt>
      <trkpt lat="45.29968530870974063873291015625" lon="-71.09906592406332492828369140625">
        <ele>867.79998779296875</ele>
        <time>2026-08-21T23:49:19.000Z</time>
        <extensions>
          <ns3:TrackPointExtension>
            <ns3:hr>136</ns3:hr>
            <ns3:cad>50</ns3:cad>
          </ns3:TrackPointExtension>
        </extensions>
      </trkpt>
      <trkpt lat="45.29967407695949077606201171875" lon="-71.09907589852809906005859375">
        <ele>868</ele>
        <time>2026-08-21T23:49:20.000Z</time>
        <extensions>
          <ns3:TrackPointExtension>
            <ns3:hr>136</ns3:hr>
            <ns3:cad>48</ns3:cad>
          </ns3:TrackPointExtension>
        </extensions>
      </trkpt>
      <trkpt lat="45.2996649406850337982177734375" lon="-71.099087633192539215087890625">
        <ele>868</ele>
        <time>2026-08-21T23:49:21.000Z</time>
        <extensions>
          <ns3:TrackPointExtension>
            <ns3:hr>136</ns3:hr>
            <ns3:cad>48</ns3:cad>
          </ns3:TrackPointExtension>
        </extensions>
      </trkpt>
      <trkpt lat="45.29965697787702083587646484375" lon="-71.09909794293344020843505859375">
        <ele>868.20001220703125</ele>
        <time>2026-08-21T23:49:22.000Z</time>
        <extensions>
          <ns3:TrackPointExtension>
            <ns3:hr>136</ns3:hr>
            <ns3:cad>47</ns3:cad>
          </ns3:TrackPointExtension>
        </extensions>
      </trkpt>
      <trkpt lat="45.2996488474309444427490234375" lon="-71.09910280443727970123291015625">
        <ele>868.20001220703125</ele>
        <time>2026-08-21T23:49:23.000Z</time>
        <extensions>
          <ns3:TrackPointExtension>
            <ns3:hr>136</ns3:hr>
            <ns3:cad>47</ns3:cad>
          </ns3:TrackPointExtension>
        </extensions>
      </trkpt>
      <trkpt lat="45.2996367774903774261474609375" lon="-71.09911068342626094818115234375">
        <ele>868.4000244140625</ele>
        <time>2026-08-21T23:49:24.000Z</time>
        <extensions>
          <ns3:TrackPointExtension>
            <ns3:hr>136</ns3:hr>
            <ns3:cad>48</ns3:cad>
          </ns3:TrackPointExtension>
        </extensions>
      </trkpt>
      <trkpt lat="45.2996283955872058868408203125" lon="-71.09911453910171985626220703125">
        <ele>868.4000244140625</ele>
        <time>2026-08-21T23:49:25.000Z</time>
        <extensions>
          <ns3:TrackPointExtension>
            <ns3:hr>135</ns3:hr>
            <ns3:cad>48</ns3:cad>
          </ns3:TrackPointExtension>
        </extensions>
      </trkpt>
      <trkpt lat="45.2996166609227657318115234375" lon="-71.09912426210939884185791015625">
        <ele>868.5999755859375</ele>
        <time>2026-08-21T23:49:26.000Z</time>
        <extensions>
          <ns3:TrackPointExtension>
            <ns3:hr>135</ns3:hr>
            <ns3:cad>50</ns3:cad>
          </ns3:TrackPointExtension>
        </extensions>
      </trkpt>
      <trkpt lat="45.29960551299154758453369140625" lon="-71.09913733787834644317626953125">
        <ele>868.5999755859375</ele>
        <time>2026-08-21T23:49:27.000Z</time>
        <extensions>
          <ns3:TrackPointExtension>
            <ns3:hr>136</ns3:hr>
            <ns3:cad>50</ns3:cad>
          </ns3:TrackPointExtension>
        </extensions>
      </trkpt>
      <trkpt lat="45.2995948679745197296142578125" lon="-71.0991511680185794830322265625">
        <ele>868.5999755859375</ele>
        <time>2026-08-21T23:49:28.000Z</time>
        <extensions>
          <ns3:TrackPointExtension>
            <ns3:hr>137</ns3:hr>
            <ns3:cad>50</ns3:cad>
          </ns3:TrackPointExtension>
        </extensions>
      </trkpt>
      <trkpt lat="45.2995864860713481903076171875" lon="-71.0991610586643218994140625">
        <ele>868.4000244140625</ele>
        <time>2026-08-21T23:49:29.000Z</time>
        <extensions>
          <ns3:TrackPointExtension>
            <ns3:hr>137</ns3:hr>
            <ns3:cad>51</ns3:cad>
          </ns3:TrackPointExtension>
        </extensions>
      </trkpt>
      <trkpt lat="45.29957584105432033538818359375" lon="-71.09917170368134975433349609375">
        <ele>868.4000244140625</ele>
        <time>2026-08-21T23:49:30.000Z</time>
        <extensions>
          <ns3:TrackPointExtension>
            <ns3:hr>138</ns3:hr>
            <ns3:cad>51</ns3:cad>
          </ns3:TrackPointExtension>
        </extensions>
      </trkpt>
      <trkpt lat="45.29956561513245105743408203125" lon="-71.09918310306966304779052734375">
        <ele>868.4000244140625</ele>
        <time>2026-08-21T23:49:31.000Z</time>
        <extensions>
          <ns3:TrackPointExtension>
            <ns3:hr>138</ns3:hr>
            <ns3:cad>56</ns3:cad>
          </ns3:TrackPointExtension>
        </extensions>
      </trkpt>
      <trkpt lat="45.2995542995631694793701171875" lon="-71.0991937480866909027099609375">
        <ele>868.4000244140625</ele>
        <time>2026-08-21T23:49:32.000Z</time>
        <extensions>
          <ns3:TrackPointExtension>
            <ns3:hr>138</ns3:hr>
            <ns3:cad>56</ns3:cad>
          </ns3:TrackPointExtension>
        </extensions>
      </trkpt>
      <trkpt lat="45.299544073641300201416015625" lon="-71.09920087270438671112060546875">
        <ele>868.5999755859375</ele>
        <time>2026-08-21T23:49:33.000Z</time>
        <extensions>
          <ns3:TrackPointExtension>
            <ns3:hr>138</ns3:hr>
            <ns3:cad>56</ns3:cad>
          </ns3:TrackPointExtension>
        </extensions>
      </trkpt>
      <trkpt lat="45.299534685909748077392578125" lon="-71.0992071591317653656005859375">
        <ele>868.5999755859375</ele>
        <time>2026-08-21T23:49:34.000Z</time>
        <extensions>
          <ns3:TrackPointExtension>
            <ns3:hr>137</ns3:hr>
            <ns3:cad>54</ns3:cad>
          </ns3:TrackPointExtension>
        </extensions>
      </trkpt>
      <trkpt lat="45.29952538199722766876220703125" lon="-71.09921428374946117401123046875">
        <ele>868.5999755859375</ele>
        <time>2026-08-21T23:49:35.000Z</time>
        <extensions>
          <ns3:TrackPointExtension>
            <ns3:hr>137</ns3:hr>
            <ns3:cad>54</ns3:cad>
          </ns3:TrackPointExtension>
        </extensions>
      </trkpt>
      <trkpt lat="45.2995167486369609832763671875" lon="-71.0992195643484592437744140625">
        <ele>868.79998779296875</ele>
        <time>2026-08-21T23:49:36.000Z</time>
        <extensions>
          <ns3:TrackPointExtension>
            <ns3:hr>137</ns3:hr>
            <ns3:cad>52</ns3:cad>
          </ns3:TrackPointExtension>
        </extensions>
      </trkpt>
      <trkpt lat="45.29951130039989948272705078125" lon="-71.0992262698709964752197265625">
        <ele>868.79998779296875</ele>
        <time>2026-08-21T23:49:37.000Z</time>
        <extensions>
          <ns3:TrackPointExtension>
            <ns3:hr>137</ns3:hr>
            <ns3:cad>52</ns3:cad>
          </ns3:TrackPointExtension>
        </extensions>
      </trkpt>
      <trkpt lat="45.29950241558253765106201171875" lon="-71.09923289157450199127197265625">
        <ele>868.79998779296875</ele>
        <time>2026-08-21T23:49:38.000Z</time>
        <extensions>
          <ns3:TrackPointExtension>
            <ns3:hr>137</ns3:hr>
            <ns3:cad>0</ns3:cad>
          </ns3:TrackPointExtension>
        </extensions>
      </trkpt>
      <trkpt lat="45.29949286021292209625244140625" lon="-71.0992376692593097686767578125">
        <ele>868.79998779296875</ele>
        <time>2026-08-21T23:49:39.000Z</time>
        <extensions>
          <ns3:TrackPointExtension>
            <ns3:hr>136</ns3:hr>
            <ns3:cad>51</ns3:cad>
          </ns3:TrackPointExtension>
        </extensions>
      </trkpt>
      <trkpt lat="45.2994832210242748260498046875" lon="-71.09924647025763988494873046875">
        <ele>869</ele>
        <time>2026-08-21T23:49:40.000Z</time>
        <extensions>
          <ns3:TrackPointExtension>
            <ns3:hr>136</ns3:hr>
            <ns3:cad>51</ns3:cad>
          </ns3:TrackPointExtension>
        </extensions>
      </trkpt>
      <trkpt lat="45.2994731627404689788818359375" lon="-71.09925552271306514739990234375">
        <ele>869</ele>
        <time>2026-08-21T23:49:41.000Z</time>
        <extensions>
          <ns3:TrackPointExtension>
            <ns3:hr>136</ns3:hr>
            <ns3:cad>53</ns3:cad>
          </ns3:TrackPointExtension>
        </extensions>
      </trkpt>
      <trkpt lat="45.29946000315248966217041015625" lon="-71.09926055185496807098388671875">
        <ele>869.20001220703125</ele>
        <time>2026-08-21T23:49:42.000Z</time>
        <extensions>
          <ns3:TrackPointExtension>
            <ns3:hr>136</ns3:hr>
            <ns3:cad>53</ns3:cad>
          </ns3:TrackPointExtension>
        </extensions>
      </trkpt>
      <trkpt lat="45.29944793321192264556884765625" lon="-71.0992683470249176025390625">
        <ele>869.20001220703125</ele>
        <time>2026-08-21T23:49:43.000Z</time>
        <extensions>
          <ns3:TrackPointExtension>
            <ns3:hr>135</ns3:hr>
            <ns3:cad>52</ns3:cad>
          </ns3:TrackPointExtension>
        </extensions>
      </trkpt>
      <trkpt lat="45.2994386292994022369384765625" lon="-71.09927781857550144195556640625">
        <ele>869.20001220703125</ele>
        <time>2026-08-21T23:49:44.000Z</time>
        <extensions>
          <ns3:TrackPointExtension>
            <ns3:hr>134</ns3:hr>
            <ns3:cad>50</ns3:cad>
          </ns3:TrackPointExtension>
        </extensions>
      </trkpt>
      <trkpt lat="45.29942697845399379730224609375" lon="-71.09928645193576812744140625">
        <ele>869.20001220703125</ele>
        <time>2026-08-21T23:49:45.000Z</time>
        <extensions>
          <ns3:TrackPointExtension>
            <ns3:hr>134</ns3:hr>
            <ns3:cad>50</ns3:cad>
          </ns3:TrackPointExtension>
        </extensions>
      </trkpt>
      <trkpt lat="45.2994171716272830963134765625" lon="-71.09929307363927364349365234375">
        <ele>869.20001220703125</ele>
        <time>2026-08-21T23:49:46.000Z</time>
        <extensions>
          <ns3:TrackPointExtension>
            <ns3:hr>132</ns3:hr>
            <ns3:cad>50</ns3:cad>
          </ns3:TrackPointExtension>
        </extensions>
      </trkpt>
      <trkpt lat="45.29940761625766754150390625" lon="-71.0993017069995403289794921875">
        <ele>869.20001220703125</ele>
        <time>2026-08-21T23:49:47.000Z</time>
        <extensions>
          <ns3:TrackPointExtension>
            <ns3:hr>132</ns3:hr>
            <ns3:cad>50</ns3:cad>
          </ns3:TrackPointExtension>
        </extensions>
      </trkpt>
      <trkpt lat="45.29939613305032253265380859375" lon="-71.09931528568267822265625">
        <ele>869.20001220703125</ele>
        <time>2026-08-21T23:49:48.000Z</time>
        <extensions>
          <ns3:TrackPointExtension>
            <ns3:hr>132</ns3:hr>
            <ns3:cad>52</ns3:cad>
          </ns3:TrackPointExtension>
        </extensions>
      </trkpt>
      <trkpt lat="45.299385488033294677734375" lon="-71.09932609833776950836181640625">
        <ele>869.4000244140625</ele>
        <time>2026-08-21T23:49:49.000Z</time>
        <extensions>
          <ns3:TrackPointExtension>
            <ns3:hr>131</ns3:hr>
            <ns3:cad>52</ns3:cad>
          </ns3:TrackPointExtension>
        </extensions>
      </trkpt>
      <trkpt lat="45.29937836341559886932373046875" lon="-71.09933598898351192474365234375">
        <ele>869.4000244140625</ele>
        <time>2026-08-21T23:49:50.000Z</time>
        <extensions>
          <ns3:TrackPointExtension>
            <ns3:hr>131</ns3:hr>
            <ns3:cad>52</ns3:cad>
          </ns3:TrackPointExtension>
        </extensions>
      </trkpt>
      <trkpt lat="45.2993729151785373687744140625" lon="-71.09934319742023944854736328125">
        <ele>869.4000244140625</ele>
        <time>2026-08-21T23:49:51.000Z</time>
        <extensions>
          <ns3:TrackPointExtension>
            <ns3:hr>131</ns3:hr>
            <ns3:cad>53</ns3:cad>
          </ns3:TrackPointExtension>
        </extensions>
      </trkpt>
      <trkpt lat="45.2993653714656829833984375" lon="-71.0993466340005397796630859375">
        <ele>869.4000244140625</ele>
        <time>2026-08-21T23:49:52.000Z</time>
        <extensions>
          <ns3:TrackPointExtension>
            <ns3:hr>131</ns3:hr>
            <ns3:cad>55</ns3:cad>
          </ns3:TrackPointExtension>
        </extensions>
      </trkpt>
      <trkpt lat="45.299359001219272613525390625" lon="-71.099350489675998687744140625">
        <ele>869.4000244140625</ele>
        <time>2026-08-21T23:49:53.000Z</time>
        <extensions>
          <ns3:TrackPointExtension>
            <ns3:hr>131</ns3:hr>
            <ns3:cad>55</ns3:cad>
          </ns3:TrackPointExtension>
        </extensions>
      </trkpt>
      <trkpt lat="45.2993521280586719512939453125" lon="-71.0993583686649799346923828125">
        <ele>869.5999755859375</ele>
        <time>2026-08-21T23:49:54.000Z</time>
        <extensions>
          <ns3:TrackPointExtension>
            <ns3:hr>130</ns3:hr>
            <ns3:cad>55</ns3:cad>
          </ns3:TrackPointExtension>
        </extensions>
      </trkpt>
      <trkpt lat="45.29934349469840526580810546875" lon="-71.099360883235931396484375">
        <ele>869.5999755859375</ele>
        <time>2026-08-21T23:49:55.000Z</time>
        <extensions>
          <ns3:TrackPointExtension>
            <ns3:hr>130</ns3:hr>
            <ns3:cad>51</ns3:cad>
          </ns3:TrackPointExtension>
        </extensions>
      </trkpt>
      <trkpt lat="45.29933745972812175750732421875" lon="-71.09936398454010486602783203125">
        <ele>869.79998779296875</ele>
        <time>2026-08-21T23:49:56.000Z</time>
        <extensions>
          <ns3:TrackPointExtension>
            <ns3:hr>129</ns3:hr>
            <ns3:cad>51</ns3:cad>
          </ns3:TrackPointExtension>
        </extensions>
      </trkpt>
      <trkpt lat="45.29933041892945766448974609375" lon="-71.09936716966331005096435546875">
        <ele>869.79998779296875</ele>
        <time>2026-08-21T23:49:57.000Z</time>
        <extensions>
          <ns3:TrackPointExtension>
            <ns3:hr>129</ns3:hr>
            <ns3:cad>48</ns3:cad>
          </ns3:TrackPointExtension>
        </extensions>
      </trkpt>
      <trkpt lat="45.29931985773146152496337890625" lon="-71.09937018714845180511474609375">
        <ele>870</ele>
        <time>2026-08-21T23:49:58.000Z</time>
        <extensions>
          <ns3:TrackPointExtension>
            <ns3:hr>129</ns3:hr>
            <ns3:cad>48</ns3:cad>
          </ns3:TrackPointExtension>
        </extensions>
      </trkpt>
      <trkpt lat="45.29930971562862396240234375" lon="-71.099374294281005859375">
        <ele>870.20001220703125</ele>
        <time>2026-08-21T23:49:59.000Z</time>
        <extensions>
          <ns3:TrackPointExtension>
            <ns3:hr>130</ns3:hr>
            <ns3:cad>48</ns3:cad>
          </ns3:TrackPointExtension>
        </extensions>
      </trkpt>
      <trkpt lat="45.2993011660873889923095703125" lon="-71.09937605448067188262939453125">
        <ele>870.4000244140625</ele>
        <time>2026-08-21T23:50:00.000Z</time>
        <extensions>
          <ns3:TrackPointExtension>
            <ns3:hr>129</ns3:hr>
            <ns3:cad>48</ns3:cad>
          </ns3:TrackPointExtension>
        </extensions>
      </trkpt>
      <trkpt lat="45.2992914430797100067138671875" lon="-71.0993828438222408294677734375">
        <ele>870.4000244140625</ele>
        <time>2026-08-21T23:50:01.000Z</time>
        <extensions>
          <ns3:TrackPointExtension>
            <ns3:hr>129</ns3:hr>
            <ns3:cad>48</ns3:cad>
          </ns3:TrackPointExtension>
        </extensions>
      </trkpt>
      <trkpt lat="45.29928146861493587493896484375" lon="-71.099390722811222076416015625">
        <ele>870.5999755859375</ele>
        <time>2026-08-21T23:50:02.000Z</time>
        <extensions>
          <ns3:TrackPointExtension>
            <ns3:hr>129</ns3:hr>
            <ns3:cad>47</ns3:cad>
          </ns3:TrackPointExtension>
        </extensions>
      </trkpt>
      <trkpt lat="45.2992733381688594818115234375" lon="-71.09939415939152240753173828125">
        <ele>870.79998779296875</ele>
        <time>2026-08-21T23:50:03.000Z</time>
        <extensions>
          <ns3:TrackPointExtension>
            <ns3:hr>130</ns3:hr>
            <ns3:cad>47</ns3:cad>
          </ns3:TrackPointExtension>
        </extensions>
      </trkpt>
      <trkpt lat="45.29926738701760768890380859375" lon="-71.0993944108486175537109375">
        <ele>871</ele>
        <time>2026-08-21T23:50:04.000Z</time>
        <extensions>
          <ns3:TrackPointExtension>
            <ns3:hr>130</ns3:hr>
            <ns3:cad>50</ns3:cad>
          </ns3:TrackPointExtension>
        </extensions>
      </trkpt>
      <trkpt lat="45.2992594242095947265625" lon="-71.09940237365663051605224609375">
        <ele>871.20001220703125</ele>
        <time>2026-08-21T23:50:05.000Z</time>
        <extensions>
          <ns3:TrackPointExtension>
            <ns3:hr>130</ns3:hr>
            <ns3:cad>50</ns3:cad>
          </ns3:TrackPointExtension>
        </extensions>
      </trkpt>
      <trkpt lat="45.2992528863251209259033203125" lon="-71.0994096659123897552490234375">
        <ele>871.4000244140625</ele>
        <time>2026-08-21T23:50:06.000Z</time>
        <extensions>
          <ns3:TrackPointExtension>
            <ns3:hr>130</ns3:hr>
            <ns3:cad>50</ns3:cad>
          </ns3:TrackPointExtension>
        </extensions>
      </trkpt>
      <trkpt lat="45.299248360097408294677734375" lon="-71.09941712580621242523193359375">
        <ele>871.5999755859375</ele>
        <time>2026-08-21T23:50:07.000Z</time>
        <extensions>
          <ns3:TrackPointExtension>
            <ns3:hr>129</ns3:hr>
            <ns3:cad>50</ns3:cad>
          </ns3:TrackPointExtension>
        </extensions>
      </trkpt>
      <trkpt lat="45.29924207367002964019775390625" lon="-71.0994239151477813720703125">
        <ele>871.79998779296875</ele>
        <time>2026-08-21T23:50:08.000Z</time>
        <extensions>
          <ns3:TrackPointExtension>
            <ns3:hr>130</ns3:hr>
            <ns3:cad>50</ns3:cad>
          </ns3:TrackPointExtension>
        </extensions>
      </trkpt>
      <trkpt lat="45.29923486523330211639404296875" lon="-71.09943489544093608856201171875">
        <ele>872</ele>
        <time>2026-08-21T23:50:09.000Z</time>
        <extensions>
          <ns3:TrackPointExtension>
            <ns3:hr>130</ns3:hr>
            <ns3:cad>46</ns3:cad>
          </ns3:TrackPointExtension>
        </extensions>
      </trkpt>
      <trkpt lat="45.29922924935817718505859375" lon="-71.09944562427699565887451171875">
        <ele>872.20001220703125</ele>
        <time>2026-08-21T23:50:10.000Z</time>
        <extensions>
          <ns3:TrackPointExtension>
            <ns3:hr>130</ns3:hr>
            <ns3:cad>45</ns3:cad>
          </ns3:TrackPointExtension>
        </extensions>
      </trkpt>
      <trkpt lat="45.29922296293079853057861328125" lon="-71.09945769421756267547607421875">
        <ele>872.4000244140625</ele>
        <time>2026-08-21T23:50:11.000Z</time>
        <extensions>
          <ns3:TrackPointExtension>
            <ns3:hr>130</ns3:hr>
            <ns3:cad>45</ns3:cad>
          </ns3:TrackPointExtension>
        </extensions>
      </trkpt>
      <trkpt lat="45.2992173470556735992431640625" lon="-71.099469177424907684326171875">
        <ele>872.5999755859375</ele>
        <time>2026-08-21T23:50:12.000Z</time>
        <extensions>
          <ns3:TrackPointExtension>
            <ns3:hr>129</ns3:hr>
            <ns3:cad>44</ns3:cad>
          </ns3:TrackPointExtension>
        </extensions>
      </trkpt>
      <trkpt lat="45.29921106062829494476318359375" lon="-71.09947915188968181610107421875">
        <ele>872.79998779296875</ele>
        <time>2026-08-21T23:50:13.000Z</time>
        <extensions>
          <ns3:TrackPointExtension>
            <ns3:hr>129</ns3:hr>
            <ns3:cad>44</ns3:cad>
          </ns3:TrackPointExtension>
        </extensions>
      </trkpt>
      <trkpt lat="45.29920569621026515960693359375" lon="-71.0994851030409336090087890625">
        <ele>873</ele>
        <time>2026-08-21T23:50:14.000Z</time>
        <extensions>
          <ns3:TrackPointExtension>
            <ns3:hr>129</ns3:hr>
            <ns3:cad>42</ns3:cad>
          </ns3:TrackPointExtension>
        </extensions>
      </trkpt>
      <trkpt lat="45.29920083470642566680908203125" lon="-71.09949323348701000213623046875">
        <ele>873.20001220703125</ele>
        <time>2026-08-21T23:50:15.000Z</time>
        <extensions>
          <ns3:TrackPointExtension>
            <ns3:hr>129</ns3:hr>
            <ns3:cad>42</ns3:cad>
          </ns3:TrackPointExtension>
        </extensions>
      </trkpt>
      <trkpt lat="45.29919513501226902008056640625" lon="-71.0995018668472766876220703125">
        <ele>873.4000244140625</ele>
        <time>2026-08-21T23:50:16.000Z</time>
        <extensions>
          <ns3:TrackPointExtension>
            <ns3:hr>129</ns3:hr>
            <ns3:cad>43</ns3:cad>
          </ns3:TrackPointExtension>
        </extensions>
      </trkpt>
      <trkpt lat="45.29918901622295379638671875" lon="-71.09951100312173366546630859375">
        <ele>873.4000244140625</ele>
        <time>2026-08-21T23:50:17.000Z</time>
        <extensions>
          <ns3:TrackPointExtension>
            <ns3:hr>129</ns3:hr>
            <ns3:cad>43</ns3:cad>
          </ns3:TrackPointExtension>
        </extensions>
      </trkpt>
      <trkpt lat="45.2991824783384799957275390625" lon="-71.09952055849134922027587890625">
        <ele>873.5999755859375</ele>
        <time>2026-08-21T23:50:18.000Z</time>
        <extensions>
          <ns3:TrackPointExtension>
            <ns3:hr>128</ns3:hr>
            <ns3:cad>43</ns3:cad>
          </ns3:TrackPointExtension>
        </extensions>
      </trkpt>
      <trkpt lat="45.299176611006259918212890625" lon="-71.0995312035083770751953125">
        <ele>873.5999755859375</ele>
        <time>2026-08-21T23:50:19.000Z</time>
        <extensions>
          <ns3:TrackPointExtension>
            <ns3:hr>128</ns3:hr>
            <ns3:cad>43</ns3:cad>
          </ns3:TrackPointExtension>
        </extensions>
      </trkpt>
      <trkpt lat="45.29916898347437381744384765625" lon="-71.09954302199184894561767578125">
        <ele>873.5999755859375</ele>
        <time>2026-08-21T23:50:20.000Z</time>
        <extensions>
          <ns3:TrackPointExtension>
            <ns3:hr>128</ns3:hr>
            <ns3:cad>43</ns3:cad>
          </ns3:TrackPointExtension>
        </extensions>
      </trkpt>
      <trkpt lat="45.2991606853902339935302734375" lon="-71.09955224208533763885498046875">
        <ele>873.79998779296875</ele>
        <time>2026-08-21T23:50:21.000Z</time>
        <extensions>
          <ns3:TrackPointExtension>
            <ns3:hr>128</ns3:hr>
            <ns3:cad>51</ns3:cad>
          </ns3:TrackPointExtension>
        </extensions>
      </trkpt>
      <trkpt lat="45.299152471125125885009765625" lon="-71.099563054740428924560546875">
        <ele>873.79998779296875</ele>
        <time>2026-08-21T23:50:22.000Z</time>
        <extensions>
          <ns3:TrackPointExtension>
            <ns3:hr>129</ns3:hr>
            <ns3:cad>51</ns3:cad>
          </ns3:TrackPointExtension>
        </extensions>
      </trkpt>
      <trkpt lat="45.29914517886936664581298828125" lon="-71.09957269392907619476318359375">
        <ele>873.79998779296875</ele>
        <time>2026-08-21T23:50:23.000Z</time>
        <extensions>
          <ns3:TrackPointExtension>
            <ns3:hr>128</ns3:hr>
            <ns3:cad>53</ns3:cad>
          </ns3:TrackPointExtension>
        </extensions>
      </trkpt>
      <trkpt lat="45.29913612641394138336181640625" lon="-71.0995826683938503265380859375">
        <ele>874</ele>
        <time>2026-08-21T23:50:24.000Z</time>
        <extensions>
          <ns3:TrackPointExtension>
            <ns3:hr>128</ns3:hr>
            <ns3:cad>53</ns3:cad>
          </ns3:TrackPointExtension>
        </extensions>
      </trkpt>
      <trkpt lat="45.299129672348499298095703125" lon="-71.0995940677821636199951171875">
        <ele>874.4000244140625</ele>
        <time>2026-08-21T23:50:25.000Z</time>
        <extensions>
          <ns3:TrackPointExtension>
            <ns3:hr>128</ns3:hr>
            <ns3:cad>53</ns3:cad>
          </ns3:TrackPointExtension>
        </extensions>
      </trkpt>
      <trkpt lat="45.2991231344640254974365234375" lon="-71.0996036231517791748046875">
        <ele>874.5999755859375</ele>
        <time>2026-08-21T23:50:26.000Z</time>
        <extensions>
          <ns3:TrackPointExtension>
            <ns3:hr>129</ns3:hr>
            <ns3:cad>50</ns3:cad>
          </ns3:TrackPointExtension>
        </extensions>
      </trkpt>
      <trkpt lat="45.29911517165601253509521484375" lon="-71.09961099922657012939453125">
        <ele>874.79998779296875</ele>
        <time>2026-08-21T23:50:27.000Z</time>
        <extensions>
          <ns3:TrackPointExtension>
            <ns3:hr>128</ns3:hr>
            <ns3:cad>50</ns3:cad>
          </ns3:TrackPointExtension>
        </extensions>
      </trkpt>
      <trkpt lat="45.29910913668572902679443359375" lon="-71.0996197164058685302734375">
        <ele>875</ele>
        <time>2026-08-21T23:50:28.000Z</time>
        <extensions>
          <ns3:TrackPointExtension>
            <ns3:hr>128</ns3:hr>
            <ns3:cad>50</ns3:cad>
          </ns3:TrackPointExtension>
        </extensions>
      </trkpt>
      <trkpt lat="45.29910159297287464141845703125" lon="-71.099626086652278900146484375">
        <ele>875.4000244140625</ele>
        <time>2026-08-21T23:50:29.000Z</time>
        <extensions>
          <ns3:TrackPointExtension>
            <ns3:hr>129</ns3:hr>
            <ns3:cad>50</ns3:cad>
          </ns3:TrackPointExtension>
        </extensions>
      </trkpt>
      <trkpt lat="45.29909656383097171783447265625" lon="-71.099636144936084747314453125">
        <ele>875.4000244140625</ele>
        <time>2026-08-21T23:50:30.000Z</time>
        <extensions>
          <ns3:TrackPointExtension>
            <ns3:hr>129</ns3:hr>
            <ns3:cad>48</ns3:cad>
          </ns3:TrackPointExtension>
        </extensions>
      </trkpt>
      <trkpt lat="45.299091450870037078857421875" lon="-71.09964159317314624786376953125">
        <ele>875.5999755859375</ele>
        <time>2026-08-21T23:50:31.000Z</time>
        <extensions>
          <ns3:TrackPointExtension>
            <ns3:hr>130</ns3:hr>
            <ns3:cad>48</ns3:cad>
          </ns3:TrackPointExtension>
        </extensions>
      </trkpt>
      <trkpt lat="45.29908415861427783966064453125" lon="-71.09965098090469837188720703125">
        <ele>875.79998779296875</ele>
        <time>2026-08-21T23:50:32.000Z</time>
        <extensions>
          <ns3:TrackPointExtension>
            <ns3:hr>130</ns3:hr>
            <ns3:cad>48</ns3:cad>
          </ns3:TrackPointExtension>
        </extensions>
      </trkpt>
      <trkpt lat="45.29907636344432830810546875" lon="-71.09966187737882137298583984375">
        <ele>876</ele>
        <time>2026-08-21T23:50:33.000Z</time>
        <extensions>
          <ns3:TrackPointExtension>
            <ns3:hr>131</ns3:hr>
            <ns3:cad>47</ns3:cad>
          </ns3:TrackPointExtension>
        </extensions>
      </trkpt>
      <trkpt lat="45.299068987369537353515625" lon="-71.09967109747231006622314453125">
        <ele>876.20001220703125</ele>
        <time>2026-08-21T23:50:34.000Z</time>
        <extensions>
          <ns3:TrackPointExtension>
            <ns3:hr>131</ns3:hr>
            <ns3:cad>47</ns3:cad>
          </ns3:TrackPointExtension>
        </extensions>
      </trkpt>
      <trkpt lat="45.29906001873314380645751953125" lon="-71.0996809042990207672119140625">
        <ele>876.4000244140625</ele>
        <time>2026-08-21T23:50:35.000Z</time>
        <extensions>
          <ns3:TrackPointExtension>
            <ns3:hr>131</ns3:hr>
            <ns3:cad>47</ns3:cad>
          </ns3:TrackPointExtension>
        </extensions>
      </trkpt>
      <trkpt lat="45.2990507148206233978271484375" lon="-71.09969004057347774505615234375">
        <ele>876.4000244140625</ele>
        <time>2026-08-21T23:50:36.000Z</time>
        <extensions>
          <ns3:TrackPointExtension>
            <ns3:hr>133</ns3:hr>
            <ns3:cad>47</ns3:cad>
          </ns3:TrackPointExtension>
        </extensions>
      </trkpt>
      <trkpt lat="45.2990446798503398895263671875" lon="-71.099698841571807861328125">
        <ele>876.5999755859375</ele>
        <time>2026-08-21T23:50:37.000Z</time>
        <extensions>
          <ns3:TrackPointExtension>
            <ns3:hr>135</ns3:hr>
            <ns3:cad>48</ns3:cad>
          </ns3:TrackPointExtension>
        </extensions>
      </trkpt>
      <trkpt lat="45.29903956688940525054931640625" lon="-71.09971250407397747039794921875">
        <ele>876.5999755859375</ele>
        <time>2026-08-21T23:50:38.000Z</time>
        <extensions>
          <ns3:TrackPointExtension>
            <ns3:hr>136</ns3:hr>
            <ns3:cad>50</ns3:cad>
          </ns3:TrackPointExtension>
        </extensions>
      </trkpt>
      <trkpt lat="45.299031771719455718994140625" lon="-71.09972289763391017913818359375">
        <ele>876.79998779296875</ele>
        <time>2026-08-21T23:50:39.000Z</time>
        <extensions>
          <ns3:TrackPointExtension>
            <ns3:hr>136</ns3:hr>
            <ns3:cad>50</ns3:cad>
          </ns3:TrackPointExtension>
        </extensions>
      </trkpt>
      <trkpt lat="45.2990259043872356414794921875" lon="-71.09972641803324222564697265625">
        <ele>877</ele>
        <time>2026-08-21T23:50:40.000Z</time>
        <extensions>
          <ns3:TrackPointExtension>
            <ns3:hr>136</ns3:hr>
            <ns3:cad>50</ns3:cad>
          </ns3:TrackPointExtension>
        </extensions>
      </trkpt>
      <trkpt lat="45.29902162961661815643310546875" lon="-71.0997362248599529266357421875">
        <ele>877.20001220703125</ele>
        <time>2026-08-21T23:50:41.000Z</time>
        <extensions>
          <ns3:TrackPointExtension>
            <ns3:hr>136</ns3:hr>
            <ns3:cad>50</ns3:cad>
          </ns3:TrackPointExtension>
        </extensions>
      </trkpt>
      <trkpt lat="45.299013666808605194091796875" lon="-71.0997466184198856353759765625">
        <ele>877.20001220703125</ele>
        <time>2026-08-21T23:50:42.000Z</time>
        <extensions>
          <ns3:TrackPointExtension>
            <ns3:hr>136</ns3:hr>
            <ns3:cad>48</ns3:cad>
          </ns3:TrackPointExtension>
        </extensions>
      </trkpt>
      <trkpt lat="45.29900654219090938568115234375" lon="-71.09975449740886688232421875">
        <ele>877.5999755859375</ele>
        <time>2026-08-21T23:50:43.000Z</time>
        <extensions>
          <ns3:TrackPointExtension>
            <ns3:hr>135</ns3:hr>
            <ns3:cad>48</ns3:cad>
          </ns3:TrackPointExtension>
        </extensions>
      </trkpt>
      <trkpt lat="45.29900050722062587738037109375" lon="-71.0997645556926727294921875">
        <ele>877.79998779296875</ele>
        <time>2026-08-21T23:50:44.000Z</time>
        <extensions>
          <ns3:TrackPointExtension>
            <ns3:hr>135</ns3:hr>
            <ns3:cad>48</ns3:cad>
          </ns3:TrackPointExtension>
        </extensions>
      </trkpt>
      <trkpt lat="45.29899614863097667694091796875" lon="-71.0997761227190494537353515625">
        <ele>877.79998779296875</ele>
        <time>2026-08-21T23:50:45.000Z</time>
        <extensions>
          <ns3:TrackPointExtension>
            <ns3:hr>135</ns3:hr>
            <ns3:cad>48</ns3:cad>
          </ns3:TrackPointExtension>
        </extensions>
      </trkpt>
      <trkpt lat="45.29899028129875659942626953125" lon="-71.099790036678314208984375">
        <ele>878</ele>
        <time>2026-08-21T23:50:46.000Z</time>
        <extensions>
          <ns3:TrackPointExtension>
            <ns3:hr>135</ns3:hr>
            <ns3:cad>48</ns3:cad>
          </ns3:TrackPointExtension>
        </extensions>
      </trkpt>
      <trkpt lat="45.29898558743298053741455078125" lon="-71.09979950822889804840087890625">
        <ele>878</ele>
        <time>2026-08-21T23:50:47.000Z</time>
        <extensions>
          <ns3:TrackPointExtension>
            <ns3:hr>135</ns3:hr>
            <ns3:cad>48</ns3:cad>
          </ns3:TrackPointExtension>
        </extensions>
      </trkpt>
      <trkpt lat="45.29898039065301418304443359375" lon="-71.0998022742569446563720703125">
        <ele>878.20001220703125</ele>
        <time>2026-08-21T23:50:48.000Z</time>
        <extensions>
          <ns3:TrackPointExtension>
            <ns3:hr>135</ns3:hr>
            <ns3:cad>48</ns3:cad>
          </ns3:TrackPointExtension>
        </extensions>
      </trkpt>
      <trkpt lat="45.29897653497755527496337890625" lon="-71.0998096503317356109619140625">
        <ele>878.4000244140625</ele>
        <time>2026-08-21T23:50:49.000Z</time>
        <extensions>
          <ns3:TrackPointExtension>
            <ns3:hr>134</ns3:hr>
            <ns3:cad>47</ns3:cad>
          </ns3:TrackPointExtension>
        </extensions>
      </trkpt>
      <trkpt lat="45.29897050000727176666259765625" lon="-71.09981945715844631195068359375">
        <ele>878.5999755859375</ele>
        <time>2026-08-21T23:50:50.000Z</time>
        <extensions>
          <ns3:TrackPointExtension>
            <ns3:hr>134</ns3:hr>
            <ns3:cad>47</ns3:cad>
          </ns3:TrackPointExtension>
        </extensions>
      </trkpt>
      <trkpt lat="45.2989645488560199737548828125" lon="-71.09982800669968128204345703125">
        <ele>879</ele>
        <time>2026-08-21T23:50:51.000Z</time>
        <extensions>
          <ns3:TrackPointExtension>
            <ns3:hr>134</ns3:hr>
            <ns3:cad>47</ns3:cad>
          </ns3:TrackPointExtension>
        </extensions>
      </trkpt>
      <trkpt lat="45.29895926825702190399169921875" lon="-71.09983806498348712921142578125">
        <ele>879.20001220703125</ele>
        <time>2026-08-21T23:50:52.000Z</time>
        <extensions>
          <ns3:TrackPointExtension>
            <ns3:hr>135</ns3:hr>
            <ns3:cad>44</ns3:cad>
          </ns3:TrackPointExtension>
        </extensions>
      </trkpt>
      <trkpt lat="45.29895172454416751861572265625" lon="-71.09984594397246837615966796875">
        <ele>879.20001220703125</ele>
        <time>2026-08-21T23:50:53.000Z</time>
        <extensions>
          <ns3:TrackPointExtension>
            <ns3:hr>135</ns3:hr>
            <ns3:cad>44</ns3:cad>
          </ns3:TrackPointExtension>
        </extensions>
      </trkpt>
      <trkpt lat="45.298943929374217987060546875" lon="-71.09985751099884510040283203125">
        <ele>879.20001220703125</ele>
        <time>2026-08-21T23:50:54.000Z</time>
        <extensions>
          <ns3:TrackPointExtension>
            <ns3:hr>135</ns3:hr>
            <ns3:cad>0</ns3:cad>
          </ns3:TrackPointExtension>
        </extensions>
      </trkpt>
      <trkpt lat="45.29893730767071247100830078125" lon="-71.099870838224887847900390625">
        <ele>879</ele>
        <time>2026-08-21T23:50:55.000Z</time>
        <extensions>
          <ns3:TrackPointExtension>
            <ns3:hr>135</ns3:hr>
            <ns3:cad>0</ns3:cad>
          </ns3:TrackPointExtension>
        </extensions>
      </trkpt>
      <trkpt lat="45.29892859049141407012939453125" lon="-71.09988433308899402618408203125">
        <ele>879</ele>
        <time>2026-08-21T23:50:56.000Z</time>
        <extensions>
          <ns3:TrackPointExtension>
            <ns3:hr>134</ns3:hr>
            <ns3:cad>0</ns3:cad>
          </ns3:TrackPointExtension>
        </extensions>
      </trkpt>
      <trkpt lat="45.2989216335117816925048828125" lon="-71.099895648658275604248046875">
        <ele>878.79998779296875</ele>
        <time>2026-08-21T23:50:57.000Z</time>
        <extensions>
          <ns3:TrackPointExtension>
            <ns3:hr>134</ns3:hr>
            <ns3:cad>57</ns3:cad>
          </ns3:TrackPointExtension>
        </extensions>
      </trkpt>
      <trkpt lat="45.2989145927131175994873046875" lon="-71.0999035276472568511962890625">
        <ele>878.79998779296875</ele>
        <time>2026-08-21T23:50:58.000Z</time>
        <extensions>
          <ns3:TrackPointExtension>
            <ns3:hr>134</ns3:hr>
            <ns3:cad>57</ns3:cad>
          </ns3:TrackPointExtension>
        </extensions>
      </trkpt>
      <trkpt lat="45.2989078871905803680419921875" lon="-71.09991618432104587554931640625">
        <ele>878.79998779296875</ele>
        <time>2026-08-21T23:50:59.000Z</time>
        <extensions>
          <ns3:TrackPointExtension>
            <ns3:hr>134</ns3:hr>
            <ns3:cad>57</ns3:cad>
          </ns3:TrackPointExtension>
        </extensions>
      </trkpt>
      <trkpt lat="45.298903696238994598388671875" lon="-71.09992724843323230743408203125">
        <ele>878.79998779296875</ele>
        <time>2026-08-21T23:51:00.000Z</time>
        <extensions>
          <ns3:TrackPointExtension>
            <ns3:hr>134</ns3:hr>
            <ns3:cad>57</ns3:cad>
          </ns3:TrackPointExtension>
        </extensions>
      </trkpt>
      <trkpt lat="45.2989008463919162750244140625" lon="-71.09993546269834041595458984375">
        <ele>879</ele>
        <time>2026-08-21T23:51:01.000Z</time>
        <extensions>
          <ns3:TrackPointExtension>
            <ns3:hr>134</ns3:hr>
            <ns3:cad>53</ns3:cad>
          </ns3:TrackPointExtension>
        </extensions>
      </trkpt>
      <trkpt lat="45.29890210367739200592041015625" lon="-71.09995457343757152557373046875">
        <ele>879.20001220703125</ele>
        <time>2026-08-21T23:51:02.000Z</time>
        <extensions>
          <ns3:TrackPointExtension>
            <ns3:hr>134</ns3:hr>
            <ns3:cad>53</ns3:cad>
          </ns3:TrackPointExtension>
        </extensions>
      </trkpt>
      <trkpt lat="45.29889858327805995941162109375" lon="-71.09995792619884014129638671875">
        <ele>879.5999755859375</ele>
        <time>2026-08-21T23:51:03.000Z</time>
        <extensions>
          <ns3:TrackPointExtension>
            <ns3:hr>134</ns3:hr>
            <ns3:cad>53</ns3:cad>
          </ns3:TrackPointExtension>
        </extensions>
      </trkpt>
      <trkpt lat="45.2988946437835693359375" lon="-71.099959351122379302978515625">
        <ele>879.79998779296875</ele>
        <time>2026-08-21T23:51:04.000Z</time>
        <extensions>
          <ns3:TrackPointExtension>
            <ns3:hr>134</ns3:hr>
            <ns3:cad>53</ns3:cad>
          </ns3:TrackPointExtension>
        </extensions>
      </trkpt>
      <trkpt lat="45.29888668097555637359619140625" lon="-71.09996463172137737274169921875">
        <ele>880.20001220703125</ele>
        <time>2026-08-21T23:51:05.000Z</time>
        <extensions>
          <ns3:TrackPointExtension>
            <ns3:hr>133</ns3:hr>
            <ns3:cad>53</ns3:cad>
          </ns3:TrackPointExtension>
        </extensions>
      </trkpt>
      <trkpt lat="45.29887695796787738800048828125" lon="-71.09996974468231201171875">
        <ele>880.4000244140625</ele>
        <time>2026-08-21T23:51:06.000Z</time>
        <extensions>
          <ns3:TrackPointExtension>
            <ns3:hr>133</ns3:hr>
            <ns3:cad>0</ns3:cad>
          </ns3:TrackPointExtension>
        </extensions>
      </trkpt>
      <trkpt lat="45.29886849224567413330078125" lon="-71.0999766178429126739501953125">
        <ele>880.5999755859375</ele>
        <time>2026-08-21T23:51:07.000Z</time>
        <extensions>
          <ns3:TrackPointExtension>
            <ns3:hr>134</ns3:hr>
            <ns3:cad>0</ns3:cad>
          </ns3:TrackPointExtension>
        </extensions>
      </trkpt>
      <trkpt lat="45.29886287637054920196533203125" lon="-71.099986173212528228759765625">
        <ele>880.79998779296875</ele>
        <time>2026-08-21T23:51:08.000Z</time>
        <extensions>
          <ns3:TrackPointExtension>
            <ns3:hr>134</ns3:hr>
            <ns3:cad>0</ns3:cad>
          </ns3:TrackPointExtension>
        </extensions>
      </trkpt>
      <trkpt lat="45.29885466210544109344482421875" lon="-71.09999598003923892974853515625">
        <ele>881</ele>
        <time>2026-08-21T23:51:09.000Z</time>
        <extensions>
          <ns3:TrackPointExtension>
            <ns3:hr>134</ns3:hr>
            <ns3:cad>0</ns3:cad>
          </ns3:TrackPointExtension>
        </extensions>
      </trkpt>
      <trkpt lat="45.2988468669354915618896484375" lon="-71.100005619227886199951171875">
        <ele>881</ele>
        <time>2026-08-21T23:51:10.000Z</time>
        <extensions>
          <ns3:TrackPointExtension>
            <ns3:hr>134</ns3:hr>
            <ns3:cad>0</ns3:cad>
          </ns3:TrackPointExtension>
        </extensions>
      </trkpt>
      <trkpt lat="45.298837982118129730224609375" lon="-71.1000205390155315399169921875">
        <ele>881</ele>
        <time>2026-08-21T23:51:11.000Z</time>
        <extensions>
          <ns3:TrackPointExtension>
            <ns3:hr>133</ns3:hr>
            <ns3:cad>0</ns3:cad>
          </ns3:TrackPointExtension>
        </extensions>
      </trkpt>
      <trkpt lat="45.29883018694818019866943359375" lon="-71.100031435489654541015625">
        <ele>881.20001220703125</ele>
        <time>2026-08-21T23:51:12.000Z</time>
        <extensions>
          <ns3:TrackPointExtension>
            <ns3:hr>133</ns3:hr>
            <ns3:cad>0</ns3:cad>
          </ns3:TrackPointExtension>
        </extensions>
      </trkpt>
      <trkpt lat="45.29882431961596012115478515625" lon="-71.10004107467830181121826171875">
        <ele>881.20001220703125</ele>
        <time>2026-08-21T23:51:13.000Z</time>
        <extensions>
          <ns3:TrackPointExtension>
            <ns3:hr>132</ns3:hr>
            <ns3:cad>51</ns3:cad>
          </ns3:TrackPointExtension>
        </extensions>
      </trkpt>
      <trkpt lat="45.29881694354116916656494140625" lon="-71.10004878602921962738037109375">
        <ele>881.20001220703125</ele>
        <time>2026-08-21T23:51:14.000Z</time>
        <extensions>
          <ns3:TrackPointExtension>
            <ns3:hr>132</ns3:hr>
            <ns3:cad>51</ns3:cad>
          </ns3:TrackPointExtension>
        </extensions>
      </trkpt>
      <trkpt lat="45.29880671761929988861083984375" lon="-71.10005683265626430511474609375">
        <ele>881.4000244140625</ele>
        <time>2026-08-21T23:51:15.000Z</time>
        <extensions>
          <ns3:TrackPointExtension>
            <ns3:hr>133</ns3:hr>
            <ns3:cad>50</ns3:cad>
          </ns3:TrackPointExtension>
        </extensions>
      </trkpt>
      <trkpt lat="45.2987985871732234954833984375" lon="-71.10006538219749927520751953125">
        <ele>881.4000244140625</ele>
        <time>2026-08-21T23:51:16.000Z</time>
        <extensions>
          <ns3:TrackPointExtension>
            <ns3:hr>133</ns3:hr>
            <ns3:cad>50</ns3:cad>
          </ns3:TrackPointExtension>
        </extensions>
      </trkpt>
      <trkpt lat="45.29879230074584484100341796875" lon="-71.1000721715390682220458984375">
        <ele>881.4000244140625</ele>
        <time>2026-08-21T23:51:17.000Z</time>
        <extensions>
          <ns3:TrackPointExtension>
            <ns3:hr>133</ns3:hr>
            <ns3:cad>50</ns3:cad>
          </ns3:TrackPointExtension>
        </extensions>
      </trkpt>
      <trkpt lat="45.298786349594593048095703125" lon="-71.10007904469966888427734375">
        <ele>881.5999755859375</ele>
        <time>2026-08-21T23:51:18.000Z</time>
        <extensions>
          <ns3:TrackPointExtension>
            <ns3:hr>132</ns3:hr>
            <ns3:cad>48</ns3:cad>
          </ns3:TrackPointExtension>
        </extensions>
      </trkpt>
      <trkpt lat="45.29877821914851665496826171875" lon="-71.10008776187896728515625">
        <ele>881.5999755859375</ele>
        <time>2026-08-21T23:51:19.000Z</time>
        <extensions>
          <ns3:TrackPointExtension>
            <ns3:hr>132</ns3:hr>
            <ns3:cad>48</ns3:cad>
          </ns3:TrackPointExtension>
        </extensions>
      </trkpt>
      <trkpt lat="45.29877000488340854644775390625" lon="-71.10009723342955112457275390625">
        <ele>881.5999755859375</ele>
        <time>2026-08-21T23:51:20.000Z</time>
        <extensions>
          <ns3:TrackPointExtension>
            <ns3:hr>133</ns3:hr>
            <ns3:cad>47</ns3:cad>
          </ns3:TrackPointExtension>
        </extensions>
      </trkpt>
      <trkpt lat="45.298760198056697845458984375" lon="-71.10011030919849872589111328125">
        <ele>881.5999755859375</ele>
        <time>2026-08-21T23:51:21.000Z</time>
        <extensions>
          <ns3:TrackPointExtension>
            <ns3:hr>134</ns3:hr>
            <ns3:cad>47</ns3:cad>
          </ns3:TrackPointExtension>
        </extensions>
      </trkpt>
      <trkpt lat="45.298750139772891998291015625" lon="-71.10012196004390716552734375">
        <ele>881.5999755859375</ele>
        <time>2026-08-21T23:51:22.000Z</time>
        <extensions>
          <ns3:TrackPointExtension>
            <ns3:hr>133</ns3:hr>
            <ns3:cad>47</ns3:cad>
          </ns3:TrackPointExtension>
        </extensions>
      </trkpt>
      <trkpt lat="45.298741757869720458984375" lon="-71.1001341976225376129150390625">
        <ele>881.4000244140625</ele>
        <time>2026-08-21T23:51:23.000Z</time>
        <extensions>
          <ns3:TrackPointExtension>
            <ns3:hr>134</ns3:hr>
            <ns3:cad>47</ns3:cad>
          </ns3:TrackPointExtension>
        </extensions>
      </trkpt>
      <trkpt lat="45.298732705414295196533203125" lon="-71.10014878213405609130859375">
        <ele>881.4000244140625</ele>
        <time>2026-08-21T23:51:24.000Z</time>
        <extensions>
          <ns3:TrackPointExtension>
            <ns3:hr>134</ns3:hr>
            <ns3:cad>47</ns3:cad>
          </ns3:TrackPointExtension>
        </extensions>
      </trkpt>
      <trkpt lat="45.2987270057201385498046875" lon="-71.1001586727797985076904296875">
        <ele>881.4000244140625</ele>
        <time>2026-08-21T23:51:25.000Z</time>
        <extensions>
          <ns3:TrackPointExtension>
            <ns3:hr>134</ns3:hr>
            <ns3:cad>51</ns3:cad>
          </ns3:TrackPointExtension>
        </extensions>
      </trkpt>
      <trkpt lat="45.29871837235987186431884765625" lon="-71.10017132945358753204345703125">
        <ele>881.4000244140625</ele>
        <time>2026-08-21T23:51:26.000Z</time>
        <extensions>
          <ns3:TrackPointExtension>
            <ns3:hr>134</ns3:hr>
            <ns3:cad>51</ns3:cad>
          </ns3:TrackPointExtension>
        </extensions>
      </trkpt>
      <trkpt lat="45.298709571361541748046875" lon="-71.1001834832131862640380859375">
        <ele>881.5999755859375</ele>
        <time>2026-08-21T23:51:27.000Z</time>
        <extensions>
          <ns3:TrackPointExtension>
            <ns3:hr>134</ns3:hr>
            <ns3:cad>52</ns3:cad>
          </ns3:TrackPointExtension>
        </extensions>
      </trkpt>
      <trkpt lat="45.2987010218203067779541015625" lon="-71.100196726620197296142578125">
        <ele>881.5999755859375</ele>
        <time>2026-08-21T23:51:28.000Z</time>
        <extensions>
          <ns3:TrackPointExtension>
            <ns3:hr>134</ns3:hr>
            <ns3:cad>52</ns3:cad>
          </ns3:TrackPointExtension>
        </extensions>
      </trkpt>
      <trkpt lat="45.2986921370029449462890625" lon="-71.10020913183689117431640625">
        <ele>881.79998779296875</ele>
        <time>2026-08-21T23:51:29.000Z</time>
        <extensions>
          <ns3:TrackPointExtension>
            <ns3:hr>133</ns3:hr>
            <ns3:cad>52</ns3:cad>
          </ns3:TrackPointExtension>
        </extensions>
      </trkpt>
      <trkpt lat="45.29868316836655139923095703125" lon="-71.1002233810722827911376953125">
        <ele>881.79998779296875</ele>
        <time>2026-08-21T23:51:30.000Z</time>
        <extensions>
          <ns3:TrackPointExtension>
            <ns3:hr>133</ns3:hr>
            <ns3:cad>52</ns3:cad>
          </ns3:TrackPointExtension>
        </extensions>
      </trkpt>
      <trkpt lat="45.29867403209209442138671875" lon="-71.10023737885057926177978515625">
        <ele>882</ele>
        <time>2026-08-21T23:51:31.000Z</time>
        <extensions>
          <ns3:TrackPointExtension>
            <ns3:hr>132</ns3:hr>
            <ns3:cad>52</ns3:cad>
          </ns3:TrackPointExtension>
        </extensions>
      </trkpt>
      <trkpt lat="45.29866640456020832061767578125" lon="-71.100247018039226531982421875">
        <ele>882</ele>
        <time>2026-08-21T23:51:32.000Z</time>
        <extensions>
          <ns3:TrackPointExtension>
            <ns3:hr>132</ns3:hr>
            <ns3:cad>50</ns3:cad>
          </ns3:TrackPointExtension>
        </extensions>
      </trkpt>
      <trkpt lat="45.2986594475805759429931640625" lon="-71.1002542264759540557861328125">
        <ele>882.20001220703125</ele>
        <time>2026-08-21T23:51:33.000Z</time>
        <extensions>
          <ns3:TrackPointExtension>
            <ns3:hr>131</ns3:hr>
            <ns3:cad>50</ns3:cad>
          </ns3:TrackPointExtension>
        </extensions>
      </trkpt>
      <trkpt lat="45.2986547537147998809814453125" lon="-71.10026503913104534149169921875">
        <ele>882.4000244140625</ele>
        <time>2026-08-21T23:51:34.000Z</time>
        <extensions>
          <ns3:TrackPointExtension>
            <ns3:hr>130</ns3:hr>
            <ns3:cad>53</ns3:cad>
          </ns3:TrackPointExtension>
        </extensions>
      </trkpt>
      <trkpt lat="45.298648886382579803466796875" lon="-71.10027543269097805023193359375">
        <ele>882.5999755859375</ele>
        <time>2026-08-21T23:51:35.000Z</time>
        <extensions>
          <ns3:TrackPointExtension>
            <ns3:hr>130</ns3:hr>
            <ns3:cad>53</ns3:cad>
          </ns3:TrackPointExtension>
        </extensions>
      </trkpt>
      <trkpt lat="45.29864259995520114898681640625" lon="-71.1002849042415618896484375">
        <ele>882.79998779296875</ele>
        <time>2026-08-21T23:51:36.000Z</time>
        <extensions>
          <ns3:TrackPointExtension>
            <ns3:hr>130</ns3:hr>
            <ns3:cad>53</ns3:cad>
          </ns3:TrackPointExtension>
        </extensions>
      </trkpt>
      <trkpt lat="45.29863773845136165618896484375" lon="-71.1002947948873043060302734375">
        <ele>883</ele>
        <time>2026-08-21T23:51:37.000Z</time>
        <extensions>
          <ns3:TrackPointExtension>
            <ns3:hr>130</ns3:hr>
            <ns3:cad>49</ns3:cad>
          </ns3:TrackPointExtension>
        </extensions>
      </trkpt>
      <trkpt lat="45.298630781471729278564453125" lon="-71.10030309297144412994384765625">
        <ele>883</ele>
        <time>2026-08-21T23:51:38.000Z</time>
        <extensions>
          <ns3:TrackPointExtension>
            <ns3:hr>130</ns3:hr>
            <ns3:cad>49</ns3:cad>
          </ns3:TrackPointExtension>
        </extensions>
      </trkpt>
      <trkpt lat="45.298624075949192047119140625" lon="-71.10031231306493282318115234375">
        <ele>883.20001220703125</ele>
        <time>2026-08-21T23:51:39.000Z</time>
        <extensions>
          <ns3:TrackPointExtension>
            <ns3:hr>130</ns3:hr>
            <ns3:cad>47</ns3:cad>
          </ns3:TrackPointExtension>
        </extensions>
      </trkpt>
      <trkpt lat="45.2986170351505279541015625" lon="-71.10032044351100921630859375">
        <ele>883.20001220703125</ele>
        <time>2026-08-21T23:51:40.000Z</time>
        <extensions>
          <ns3:TrackPointExtension>
            <ns3:hr>130</ns3:hr>
            <ns3:cad>47</ns3:cad>
          </ns3:TrackPointExtension>
        </extensions>
      </trkpt>
      <trkpt lat="45.29861007817089557647705078125" lon="-71.10033226199448108673095703125">
        <ele>883.4000244140625</ele>
        <time>2026-08-21T23:51:41.000Z</time>
        <extensions>
          <ns3:TrackPointExtension>
            <ns3:hr>130</ns3:hr>
            <ns3:cad>48</ns3:cad>
          </ns3:TrackPointExtension>
        </extensions>
      </trkpt>
      <trkpt lat="45.2986036241054534912109375" lon="-71.10034416429698467254638671875">
        <ele>883.4000244140625</ele>
        <time>2026-08-21T23:51:42.000Z</time>
        <extensions>
          <ns3:TrackPointExtension>
            <ns3:hr>130</ns3:hr>
            <ns3:cad>48</ns3:cad>
          </ns3:TrackPointExtension>
        </extensions>
      </trkpt>
      <trkpt lat="45.298595242202281951904296875" lon="-71.10035439021885395050048828125">
        <ele>883.5999755859375</ele>
        <time>2026-08-21T23:51:43.000Z</time>
        <extensions>
          <ns3:TrackPointExtension>
            <ns3:hr>130</ns3:hr>
            <ns3:cad>48</ns3:cad>
          </ns3:TrackPointExtension>
        </extensions>
      </trkpt>
      <trkpt lat="45.2985880337655544281005859375" lon="-71.10036528669297695159912109375">
        <ele>883.5999755859375</ele>
        <time>2026-08-21T23:51:44.000Z</time>
        <extensions>
          <ns3:TrackPointExtension>
            <ns3:hr>130</ns3:hr>
            <ns3:cad>48</ns3:cad>
          </ns3:TrackPointExtension>
        </extensions>
      </trkpt>
      <trkpt lat="45.29858375899493694305419921875" lon="-71.100380122661590576171875">
        <ele>883.79998779296875</ele>
        <time>2026-08-21T23:51:45.000Z</time>
        <extensions>
          <ns3:TrackPointExtension>
            <ns3:hr>130</ns3:hr>
            <ns3:cad>48</ns3:cad>
          </ns3:TrackPointExtension>
        </extensions>
      </trkpt>
      <trkpt lat="45.2985783107578754425048828125" lon="-71.10039445571601390838623046875">
        <ele>884</ele>
        <time>2026-08-21T23:51:46.000Z</time>
        <extensions>
          <ns3:TrackPointExtension>
            <ns3:hr>130</ns3:hr>
            <ns3:cad>49</ns3:cad>
          </ns3:TrackPointExtension>
        </extensions>
      </trkpt>
      <trkpt lat="45.29857588000595569610595703125" lon="-71.1004029214382171630859375">
        <ele>884</ele>
        <time>2026-08-21T23:51:47.000Z</time>
        <extensions>
          <ns3:TrackPointExtension>
            <ns3:hr>131</ns3:hr>
            <ns3:cad>49</ns3:cad>
          </ns3:TrackPointExtension>
        </extensions>
      </trkpt>
      <trkpt lat="45.29857034794986248016357421875" lon="-71.1004124768078327178955078125">
        <ele>884.20001220703125</ele>
        <time>2026-08-21T23:51:48.000Z</time>
        <extensions>
          <ns3:TrackPointExtension>
            <ns3:hr>130</ns3:hr>
            <ns3:cad>49</ns3:cad>
          </ns3:TrackPointExtension>
        </extensions>
      </trkpt>
      <trkpt lat="45.298565737903118133544921875" lon="-71.10042228363454341888427734375">
        <ele>884.4000244140625</ele>
        <time>2026-08-21T23:51:49.000Z</time>
        <extensions>
          <ns3:TrackPointExtension>
            <ns3:hr>130</ns3:hr>
            <ns3:cad>48</ns3:cad>
          </ns3:TrackPointExtension>
        </extensions>
      </trkpt>
      <trkpt lat="45.2985612116754055023193359375" lon="-71.1004315875470638275146484375">
        <ele>884.79998779296875</ele>
        <time>2026-08-21T23:51:50.000Z</time>
        <extensions>
          <ns3:TrackPointExtension>
            <ns3:hr>130</ns3:hr>
            <ns3:cad>48</ns3:cad>
          </ns3:TrackPointExtension>
        </extensions>
      </trkpt>
      <trkpt lat="45.29855593107640743255615234375" lon="-71.1004404723644256591796875">
        <ele>885</ele>
        <time>2026-08-21T23:51:51.000Z</time>
        <extensions>
          <ns3:TrackPointExtension>
            <ns3:hr>131</ns3:hr>
            <ns3:cad>47</ns3:cad>
          </ns3:TrackPointExtension>
        </extensions>
      </trkpt>
      <trkpt lat="45.2985499799251556396484375" lon="-71.100446842610836029052734375">
        <ele>885.20001220703125</ele>
        <time>2026-08-21T23:51:52.000Z</time>
        <extensions>
          <ns3:TrackPointExtension>
            <ns3:hr>131</ns3:hr>
            <ns3:cad>47</ns3:cad>
          </ns3:TrackPointExtension>
        </extensions>
      </trkpt>
      <trkpt lat="45.29854503460228443145751953125" lon="-71.10045832581818103790283203125">
        <ele>885.5999755859375</ele>
        <time>2026-08-21T23:51:53.000Z</time>
        <extensions>
          <ns3:TrackPointExtension>
            <ns3:hr>131</ns3:hr>
            <ns3:cad>45</ns3:cad>
          </ns3:TrackPointExtension>
        </extensions>
      </trkpt>
      <trkpt lat="45.29854126274585723876953125" lon="-71.10046369023621082305908203125">
        <ele>885.5999755859375</ele>
        <time>2026-08-21T23:51:54.000Z</time>
        <extensions>
          <ns3:TrackPointExtension>
            <ns3:hr>131</ns3:hr>
            <ns3:cad>44</ns3:cad>
          </ns3:TrackPointExtension>
        </extensions>
      </trkpt>
      <trkpt lat="45.2985367365181446075439453125" lon="-71.100469641387462615966796875">
        <ele>885.79998779296875</ele>
        <time>2026-08-21T23:51:55.000Z</time>
        <extensions>
          <ns3:TrackPointExtension>
            <ns3:hr>130</ns3:hr>
            <ns3:cad>44</ns3:cad>
          </ns3:TrackPointExtension>
        </extensions>
      </trkpt>
      <trkpt lat="45.2985333837568759918212890625" lon="-71.10047374852001667022705078125">
        <ele>886</ele>
        <time>2026-08-21T23:51:56.000Z</time>
        <extensions>
          <ns3:TrackPointExtension>
            <ns3:hr>130</ns3:hr>
            <ns3:cad>44</ns3:cad>
          </ns3:TrackPointExtension>
        </extensions>
      </trkpt>
      <trkpt lat="45.298525504767894744873046875" lon="-71.10047601163387298583984375">
        <ele>886.20001220703125</ele>
        <time>2026-08-21T23:51:57.000Z</time>
        <extensions>
          <ns3:TrackPointExtension>
            <ns3:hr>130</ns3:hr>
            <ns3:cad>44</ns3:cad>
          </ns3:TrackPointExtension>
        </extensions>
      </trkpt>
      <trkpt lat="45.298516117036342620849609375" lon="-71.10048498027026653289794921875">
        <ele>886.20001220703125</ele>
        <time>2026-08-21T23:51:58.000Z</time>
        <extensions>
          <ns3:TrackPointExtension>
            <ns3:hr>130</ns3:hr>
            <ns3:cad>44</ns3:cad>
          </ns3:TrackPointExtension>
        </extensions>
      </trkpt>
      <trkpt lat="45.29850798659026622772216796875" lon="-71.100493781268596649169921875">
        <ele>886.4000244140625</ele>
        <time>2026-08-21T23:51:59.000Z</time>
        <extensions>
          <ns3:TrackPointExtension>
            <ns3:hr>130</ns3:hr>
            <ns3:cad>44</ns3:cad>
          </ns3:TrackPointExtension>
        </extensions>
      </trkpt>
      <trkpt lat="45.2984998561441898345947265625" lon="-71.10049939714372158050537109375">
        <ele>886.5999755859375</ele>
        <time>2026-08-21T23:52:00.000Z</time>
        <extensions>
          <ns3:TrackPointExtension>
            <ns3:hr>130</ns3:hr>
            <ns3:cad>45</ns3:cad>
          </ns3:TrackPointExtension>
        </extensions>
      </trkpt>
      <trkpt lat="45.2984909713268280029296875" lon="-71.10050844959914684295654296875">
        <ele>886.79998779296875</ele>
        <time>2026-08-21T23:52:01.000Z</time>
        <extensions>
          <ns3:TrackPointExtension>
            <ns3:hr>130</ns3:hr>
            <ns3:cad>47</ns3:cad>
          </ns3:TrackPointExtension>
        </extensions>
      </trkpt>
      <trkpt lat="45.2984857745468616485595703125" lon="-71.10051347874104976654052734375">
        <ele>887</ele>
        <time>2026-08-21T23:52:02.000Z</time>
        <extensions>
          <ns3:TrackPointExtension>
            <ns3:hr>131</ns3:hr>
            <ns3:cad>47</ns3:cad>
          </ns3:TrackPointExtension>
        </extensions>
      </trkpt>
      <trkpt lat="45.2984777279198169708251953125" lon="-71.1005236208438873291015625">
        <ele>887</ele>
        <time>2026-08-21T23:52:03.000Z</time>
        <extensions>
          <ns3:TrackPointExtension>
            <ns3:hr>131</ns3:hr>
            <ns3:cad>48</ns3:cad>
          </ns3:TrackPointExtension>
        </extensions>
      </trkpt>
      <trkpt lat="45.29846875928342342376708984375" lon="-71.10052873380482196807861328125">
        <ele>887.20001220703125</ele>
        <time>2026-08-21T23:52:04.000Z</time>
        <extensions>
          <ns3:TrackPointExtension>
            <ns3:hr>131</ns3:hr>
            <ns3:cad>48</ns3:cad>
          </ns3:TrackPointExtension>
        </extensions>
      </trkpt>
      <trkpt lat="45.29846121557056903839111328125" lon="-71.10053141601383686065673828125">
        <ele>887.4000244140625</ele>
        <time>2026-08-21T23:52:05.000Z</time>
        <extensions>
          <ns3:TrackPointExtension>
            <ns3:hr>131</ns3:hr>
            <ns3:cad>47</ns3:cad>
          </ns3:TrackPointExtension>
        </extensions>
      </trkpt>
      <trkpt lat="45.2984555996954441070556640625" lon="-71.10054633580148220062255859375">
        <ele>887.4000244140625</ele>
        <time>2026-08-21T23:52:06.000Z</time>
        <extensions>
          <ns3:TrackPointExtension>
            <ns3:hr>131</ns3:hr>
            <ns3:cad>47</ns3:cad>
          </ns3:TrackPointExtension>
        </extensions>
      </trkpt>
      <trkpt lat="45.29844646342098712921142578125" lon="-71.1005584895610809326171875">
        <ele>887.5999755859375</ele>
        <time>2026-08-21T23:52:07.000Z</time>
        <extensions>
          <ns3:TrackPointExtension>
            <ns3:hr>132</ns3:hr>
            <ns3:cad>46</ns3:cad>
          </ns3:TrackPointExtension>
        </extensions>
      </trkpt>
      <trkpt lat="45.29843757860362529754638671875" lon="-71.10056720674037933349609375">
        <ele>887.5999755859375</ele>
        <time>2026-08-21T23:52:08.000Z</time>
        <extensions>
          <ns3:TrackPointExtension>
            <ns3:hr>132</ns3:hr>
            <ns3:cad>44</ns3:cad>
          </ns3:TrackPointExtension>
        </extensions>
      </trkpt>
      <trkpt lat="45.29843439348042011260986328125" lon="-71.1005781032145023345947265625">
        <ele>887.79998779296875</ele>
        <time>2026-08-21T23:52:09.000Z</time>
        <extensions>
          <ns3:TrackPointExtension>
            <ns3:hr>132</ns3:hr>
            <ns3:cad>44</ns3:cad>
          </ns3:TrackPointExtension>
        </extensions>
      </trkpt>
      <trkpt lat="45.298428274691104888916015625" lon="-71.100589670240879058837890625">
        <ele>887.79998779296875</ele>
        <time>2026-08-21T23:52:10.000Z</time>
        <extensions>
          <ns3:TrackPointExtension>
            <ns3:hr>132</ns3:hr>
            <ns3:cad>44</ns3:cad>
          </ns3:TrackPointExtension>
        </extensions>
      </trkpt>
      <trkpt lat="45.2984214015305042266845703125" lon="-71.100599057972431182861328125">
        <ele>888</ele>
        <time>2026-08-21T23:52:11.000Z</time>
        <extensions>
          <ns3:TrackPointExtension>
            <ns3:hr>132</ns3:hr>
            <ns3:cad>44</ns3:cad>
          </ns3:TrackPointExtension>
        </extensions>
      </trkpt>
      <trkpt lat="45.29841310344636440277099609375" lon="-71.10061087645590305328369140625">
        <ele>888</ele>
        <time>2026-08-21T23:52:12.000Z</time>
        <extensions>
          <ns3:TrackPointExtension>
            <ns3:hr>132</ns3:hr>
            <ns3:cad>48</ns3:cad>
          </ns3:TrackPointExtension>
        </extensions>
      </trkpt>
      <trkpt lat="45.29840849339962005615234375" lon="-71.10062043182551860809326171875">
        <ele>888.20001220703125</ele>
        <time>2026-08-21T23:52:13.000Z</time>
        <extensions>
          <ns3:TrackPointExtension>
            <ns3:hr>132</ns3:hr>
            <ns3:cad>49</ns3:cad>
          </ns3:TrackPointExtension>
        </extensions>
      </trkpt>
      <trkpt lat="45.29840120114386081695556640625" lon="-71.1006324179470539093017578125">
        <ele>888.20001220703125</ele>
        <time>2026-08-21T23:52:14.000Z</time>
        <extensions>
          <ns3:TrackPointExtension>
            <ns3:hr>132</ns3:hr>
            <ns3:cad>49</ns3:cad>
          </ns3:TrackPointExtension>
        </extensions>
      </trkpt>
      <trkpt lat="45.29839399270713329315185546875" lon="-71.10064457170665264129638671875">
        <ele>888.20001220703125</ele>
        <time>2026-08-21T23:52:15.000Z</time>
        <extensions>
          <ns3:TrackPointExtension>
            <ns3:hr>133</ns3:hr>
            <ns3:cad>48</ns3:cad>
          </ns3:TrackPointExtension>
        </extensions>
      </trkpt>
      <trkpt lat="45.29838544316589832305908203125" lon="-71.10065437853336334228515625">
        <ele>888.4000244140625</ele>
        <time>2026-08-21T23:52:16.000Z</time>
        <extensions>
          <ns3:TrackPointExtension>
            <ns3:hr>133</ns3:hr>
            <ns3:cad>48</ns3:cad>
          </ns3:TrackPointExtension>
        </extensions>
      </trkpt>
      <trkpt lat="45.29837622307240962982177734375" lon="-71.10066183842718601226806640625">
        <ele>888.4000244140625</ele>
        <time>2026-08-21T23:52:17.000Z</time>
        <extensions>
          <ns3:TrackPointExtension>
            <ns3:hr>133</ns3:hr>
            <ns3:cad>47</ns3:cad>
          </ns3:TrackPointExtension>
        </extensions>
      </trkpt>
      <trkpt lat="45.29837136156857013702392578125" lon="-71.100669801235198974609375">
        <ele>888.4000244140625</ele>
        <time>2026-08-21T23:52:18.000Z</time>
        <extensions>
          <ns3:TrackPointExtension>
            <ns3:hr>133</ns3:hr>
            <ns3:cad>47</ns3:cad>
          </ns3:TrackPointExtension>
        </extensions>
      </trkpt>
      <trkpt lat="45.29836281202733516693115234375" lon="-71.10068245790898799896240234375">
        <ele>888.5999755859375</ele>
        <time>2026-08-21T23:52:19.000Z</time>
        <extensions>
          <ns3:TrackPointExtension>
            <ns3:hr>132</ns3:hr>
            <ns3:cad>50</ns3:cad>
          </ns3:TrackPointExtension>
        </extensions>
      </trkpt>
      <trkpt lat="45.2983550168573856353759765625" lon="-71.1006957851350307464599609375">
        <ele>888.79998779296875</ele>
        <time>2026-08-21T23:52:20.000Z</time>
        <extensions>
          <ns3:TrackPointExtension>
            <ns3:hr>133</ns3:hr>
            <ns3:cad>51</ns3:cad>
          </ns3:TrackPointExtension>
        </extensions>
      </trkpt>
      <trkpt lat="45.29834738932549953460693359375" lon="-71.100705005228519439697265625">
        <ele>889</ele>
        <time>2026-08-21T23:52:21.000Z</time>
        <extensions>
          <ns3:TrackPointExtension>
            <ns3:hr>133</ns3:hr>
            <ns3:cad>51</ns3:cad>
          </ns3:TrackPointExtension>
        </extensions>
      </trkpt>
      <trkpt lat="45.29834252782166004180908203125" lon="-71.100721098482608795166015625">
        <ele>889</ele>
        <time>2026-08-21T23:52:22.000Z</time>
        <extensions>
          <ns3:TrackPointExtension>
            <ns3:hr>134</ns3:hr>
            <ns3:cad>50</ns3:cad>
          </ns3:TrackPointExtension>
        </extensions>
      </trkpt>
      <trkpt lat="45.29833800159394741058349609375" lon="-71.1007356829941272735595703125">
        <ele>889.20001220703125</ele>
        <time>2026-08-21T23:52:23.000Z</time>
        <extensions>
          <ns3:TrackPointExtension>
            <ns3:hr>134</ns3:hr>
            <ns3:cad>50</ns3:cad>
          </ns3:TrackPointExtension>
        </extensions>
      </trkpt>
      <trkpt lat="45.29833163134753704071044921875" lon="-71.10074825584888458251953125">
        <ele>889.4000244140625</ele>
        <time>2026-08-21T23:52:24.000Z</time>
        <extensions>
          <ns3:TrackPointExtension>
            <ns3:hr>134</ns3:hr>
            <ns3:cad>49</ns3:cad>
          </ns3:TrackPointExtension>
        </extensions>
      </trkpt>
      <trkpt lat="45.29832559637725353240966796875" lon="-71.1007568053901195526123046875">
        <ele>889.5999755859375</ele>
        <time>2026-08-21T23:52:25.000Z</time>
        <extensions>
          <ns3:TrackPointExtension>
            <ns3:hr>135</ns3:hr>
            <ns3:cad>49</ns3:cad>
          </ns3:TrackPointExtension>
        </extensions>
      </trkpt>
      <trkpt lat="45.29832056723535060882568359375" lon="-71.1007658578455448150634765625">
        <ele>889.5999755859375</ele>
        <time>2026-08-21T23:52:26.000Z</time>
        <extensions>
          <ns3:TrackPointExtension>
            <ns3:hr>135</ns3:hr>
            <ns3:cad>46</ns3:cad>
          </ns3:TrackPointExtension>
        </extensions>
      </trkpt>
      <trkpt lat="45.29831461608409881591796875" lon="-71.100778765976428985595703125">
        <ele>889.79998779296875</ele>
        <time>2026-08-21T23:52:27.000Z</time>
        <extensions>
          <ns3:TrackPointExtension>
            <ns3:hr>135</ns3:hr>
            <ns3:cad>45</ns3:cad>
          </ns3:TrackPointExtension>
        </extensions>
      </trkpt>
      <trkpt lat="45.29830765910446643829345703125" lon="-71.1007933504879474639892578125">
        <ele>889.79998779296875</ele>
        <time>2026-08-21T23:52:28.000Z</time>
        <extensions>
          <ns3:TrackPointExtension>
            <ns3:hr>134</ns3:hr>
            <ns3:cad>45</ns3:cad>
          </ns3:TrackPointExtension>
        </extensions>
      </trkpt>
      <trkpt lat="45.29830296523869037628173828125" lon="-71.1008044146001338958740234375">
        <ele>889.79998779296875</ele>
        <time>2026-08-21T23:52:29.000Z</time>
        <extensions>
          <ns3:TrackPointExtension>
            <ns3:hr>134</ns3:hr>
            <ns3:cad>45</ns3:cad>
          </ns3:TrackPointExtension>
        </extensions>
      </trkpt>
      <trkpt lat="45.2982978522777557373046875" lon="-71.10081673599779605865478515625">
        <ele>890</ele>
        <time>2026-08-21T23:52:30.000Z</time>
        <extensions>
          <ns3:TrackPointExtension>
            <ns3:hr>133</ns3:hr>
            <ns3:cad>45</ns3:cad>
          </ns3:TrackPointExtension>
        </extensions>
      </trkpt>
      <trkpt lat="45.29829625971615314483642578125" lon="-71.1008245311677455902099609375">
        <ele>890</ele>
        <time>2026-08-21T23:52:31.000Z</time>
        <extensions>
          <ns3:TrackPointExtension>
            <ns3:hr>133</ns3:hr>
            <ns3:cad>48</ns3:cad>
          </ns3:TrackPointExtension>
        </extensions>
      </trkpt>
      <trkpt lat="45.29829047620296478271484375" lon="-71.1008322425186634063720703125">
        <ele>890.20001220703125</ele>
        <time>2026-08-21T23:52:32.000Z</time>
        <extensions>
          <ns3:TrackPointExtension>
            <ns3:hr>133</ns3:hr>
            <ns3:cad>49</ns3:cad>
          </ns3:TrackPointExtension>
        </extensions>
      </trkpt>
      <trkpt lat="45.298284776508808135986328125" lon="-71.10084238462150096893310546875">
        <ele>890.4000244140625</ele>
        <time>2026-08-21T23:52:33.000Z</time>
        <extensions>
          <ns3:TrackPointExtension>
            <ns3:hr>133</ns3:hr>
            <ns3:cad>49</ns3:cad>
          </ns3:TrackPointExtension>
        </extensions>
      </trkpt>
      <trkpt lat="45.2982758916914463043212890625" lon="-71.1008503474295139312744140625">
        <ele>890.5999755859375</ele>
        <time>2026-08-21T23:52:34.000Z</time>
        <extensions>
          <ns3:TrackPointExtension>
            <ns3:hr>133</ns3:hr>
            <ns3:cad>48</ns3:cad>
          </ns3:TrackPointExtension>
        </extensions>
      </trkpt>
      <trkpt lat="45.29826893471181392669677734375" lon="-71.10086090862751007080078125">
        <ele>890.79998779296875</ele>
        <time>2026-08-21T23:52:35.000Z</time>
        <extensions>
          <ns3:TrackPointExtension>
            <ns3:hr>132</ns3:hr>
            <ns3:cad>48</ns3:cad>
          </ns3:TrackPointExtension>
        </extensions>
      </trkpt>
      <trkpt lat="45.29826004989445209503173828125" lon="-71.1008714698255062103271484375">
        <ele>890.79998779296875</ele>
        <time>2026-08-21T23:52:36.000Z</time>
        <extensions>
          <ns3:TrackPointExtension>
            <ns3:hr>131</ns3:hr>
            <ns3:cad>47</ns3:cad>
          </ns3:TrackPointExtension>
        </extensions>
      </trkpt>
      <trkpt lat="45.29825250618159770965576171875" lon="-71.100882701575756072998046875">
        <ele>891</ele>
        <time>2026-08-21T23:52:37.000Z</time>
        <extensions>
          <ns3:TrackPointExtension>
            <ns3:hr>130</ns3:hr>
            <ns3:cad>47</ns3:cad>
          </ns3:TrackPointExtension>
        </extensions>
      </trkpt>
      <trkpt lat="45.298244543373584747314453125" lon="-71.10089636407792568206787109375">
        <ele>891</ele>
        <time>2026-08-21T23:52:38.000Z</time>
        <extensions>
          <ns3:TrackPointExtension>
            <ns3:hr>130</ns3:hr>
            <ns3:cad>48</ns3:cad>
          </ns3:TrackPointExtension>
        </extensions>
      </trkpt>
      <trkpt lat="45.2982369996607303619384765625" lon="-71.1009083501994609832763671875">
        <ele>891.20001220703125</ele>
        <time>2026-08-21T23:52:39.000Z</time>
        <extensions>
          <ns3:TrackPointExtension>
            <ns3:hr>130</ns3:hr>
            <ns3:cad>50</ns3:cad>
          </ns3:TrackPointExtension>
        </extensions>
      </trkpt>
      <trkpt lat="45.2982326410710811614990234375" lon="-71.100920252501964569091796875">
        <ele>891.4000244140625</ele>
        <time>2026-08-21T23:52:40.000Z</time>
        <extensions>
          <ns3:TrackPointExtension>
            <ns3:hr>130</ns3:hr>
            <ns3:cad>50</ns3:cad>
          </ns3:TrackPointExtension>
        </extensions>
      </trkpt>
      <trkpt lat="45.29822652228176593780517578125" lon="-71.10093391500413417816162109375">
        <ele>891.5999755859375</ele>
        <time>2026-08-21T23:52:41.000Z</time>
        <extensions>
          <ns3:TrackPointExtension>
            <ns3:hr>131</ns3:hr>
            <ns3:cad>51</ns3:cad>
          </ns3:TrackPointExtension>
        </extensions>
      </trkpt>
      <trkpt lat="45.29822316952049732208251953125" lon="-71.10094363801181316375732421875">
        <ele>891.79998779296875</ele>
        <time>2026-08-21T23:52:42.000Z</time>
        <extensions>
          <ns3:TrackPointExtension>
            <ns3:hr>131</ns3:hr>
            <ns3:cad>51</ns3:cad>
          </ns3:TrackPointExtension>
        </extensions>
      </trkpt>
      <trkpt lat="45.29821629635989665985107421875" lon="-71.10095621086657047271728515625">
        <ele>891.79998779296875</ele>
        <time>2026-08-21T23:52:43.000Z</time>
        <extensions>
          <ns3:TrackPointExtension>
            <ns3:hr>131</ns3:hr>
            <ns3:cad>51</ns3:cad>
          </ns3:TrackPointExtension>
        </extensions>
      </trkpt>
      <trkpt lat="45.298204980790615081787109375" lon="-71.10096752643585205078125">
        <ele>892</ele>
        <time>2026-08-21T23:52:44.000Z</time>
        <extensions>
          <ns3:TrackPointExtension>
            <ns3:hr>131</ns3:hr>
            <ns3:cad>51</ns3:cad>
          </ns3:TrackPointExtension>
        </extensions>
      </trkpt>
      <trkpt lat="45.29819634743034839630126953125" lon="-71.10097917728126049041748046875">
        <ele>892</ele>
        <time>2026-08-21T23:52:45.000Z</time>
        <extensions>
          <ns3:TrackPointExtension>
            <ns3:hr>131</ns3:hr>
            <ns3:cad>49</ns3:cad>
          </ns3:TrackPointExtension>
        </extensions>
      </trkpt>
      <trkpt lat="45.2981878817081451416015625" lon="-71.10099367797374725341796875">
        <ele>892.20001220703125</ele>
        <time>2026-08-21T23:52:46.000Z</time>
        <extensions>
          <ns3:TrackPointExtension>
            <ns3:hr>132</ns3:hr>
            <ns3:cad>49</ns3:cad>
          </ns3:TrackPointExtension>
        </extensions>
      </trkpt>
      <trkpt lat="45.298183858394622802734375" lon="-71.10100264661014080047607421875">
        <ele>892.20001220703125</ele>
        <time>2026-08-21T23:52:47.000Z</time>
        <extensions>
          <ns3:TrackPointExtension>
            <ns3:hr>131</ns3:hr>
            <ns3:cad>49</ns3:cad>
          </ns3:TrackPointExtension>
        </extensions>
      </trkpt>
      <trkpt lat="45.2981773205101490020751953125" lon="-71.1010099388659000396728515625">
        <ele>892.4000244140625</ele>
        <time>2026-08-21T23:52:48.000Z</time>
        <extensions>
          <ns3:TrackPointExtension>
            <ns3:hr>132</ns3:hr>
            <ns3:cad>49</ns3:cad>
          </ns3:TrackPointExtension>
        </extensions>
      </trkpt>
      <trkpt lat="45.29816969297826290130615234375" lon="-71.10102050006389617919921875">
        <ele>892.4000244140625</ele>
        <time>2026-08-21T23:52:49.000Z</time>
        <extensions>
          <ns3:TrackPointExtension>
            <ns3:hr>132</ns3:hr>
            <ns3:cad>49</ns3:cad>
          </ns3:TrackPointExtension>
        </extensions>
      </trkpt>
      <trkpt lat="45.29816265217959880828857421875" lon="-71.10103282146155834197998046875">
        <ele>892.4000244140625</ele>
        <time>2026-08-21T23:52:50.000Z</time>
        <extensions>
          <ns3:TrackPointExtension>
            <ns3:hr>131</ns3:hr>
            <ns3:cad>52</ns3:cad>
          </ns3:TrackPointExtension>
        </extensions>
      </trkpt>
      <trkpt lat="45.2981565333902835845947265625" lon="-71.10104220919311046600341796875">
        <ele>892.5999755859375</ele>
        <time>2026-08-21T23:52:51.000Z</time>
        <extensions>
          <ns3:TrackPointExtension>
            <ns3:hr>132</ns3:hr>
            <ns3:cad>52</ns3:cad>
          </ns3:TrackPointExtension>
        </extensions>
      </trkpt>
      <trkpt lat="45.2981484867632389068603515625" lon="-71.10105042345821857452392578125">
        <ele>892.5999755859375</ele>
        <time>2026-08-21T23:52:52.000Z</time>
        <extensions>
          <ns3:TrackPointExtension>
            <ns3:hr>132</ns3:hr>
            <ns3:cad>53</ns3:cad>
          </ns3:TrackPointExtension>
        </extensions>
      </trkpt>
      <trkpt lat="45.298139937222003936767578125" lon="-71.10106475651264190673828125">
        <ele>892.79998779296875</ele>
        <time>2026-08-21T23:52:53.000Z</time>
        <extensions>
          <ns3:TrackPointExtension>
            <ns3:hr>132</ns3:hr>
            <ns3:cad>53</ns3:cad>
          </ns3:TrackPointExtension>
        </extensions>
      </trkpt>
      <trkpt lat="45.29813448898494243621826171875" lon="-71.10107473097741603851318359375">
        <ele>892.79998779296875</ele>
        <time>2026-08-21T23:52:54.000Z</time>
        <extensions>
          <ns3:TrackPointExtension>
            <ns3:hr>132</ns3:hr>
            <ns3:cad>53</ns3:cad>
          </ns3:TrackPointExtension>
        </extensions>
      </trkpt>
      <trkpt lat="45.298127867281436920166015625" lon="-71.10108847729861736297607421875">
        <ele>893</ele>
        <time>2026-08-21T23:52:55.000Z</time>
        <extensions>
          <ns3:TrackPointExtension>
            <ns3:hr>133</ns3:hr>
            <ns3:cad>53</ns3:cad>
          </ns3:TrackPointExtension>
        </extensions>
      </trkpt>
      <trkpt lat="45.298118479549884796142578125" lon="-71.10110021196305751800537109375">
        <ele>893</ele>
        <time>2026-08-21T23:52:56.000Z</time>
        <extensions>
          <ns3:TrackPointExtension>
            <ns3:hr>132</ns3:hr>
            <ns3:cad>53</ns3:cad>
          </ns3:TrackPointExtension>
        </extensions>
      </trkpt>
      <trkpt lat="45.29811101965606212615966796875" lon="-71.101109348237514495849609375">
        <ele>893.20001220703125</ele>
        <time>2026-08-21T23:52:57.000Z</time>
        <extensions>
          <ns3:TrackPointExtension>
            <ns3:hr>132</ns3:hr>
            <ns3:cad>53</ns3:cad>
          </ns3:TrackPointExtension>
        </extensions>
      </trkpt>
      <trkpt lat="45.2981032244861125946044921875" lon="-71.10112334601581096649169921875">
        <ele>893.20001220703125</ele>
        <time>2026-08-21T23:52:58.000Z</time>
        <extensions>
          <ns3:TrackPointExtension>
            <ns3:hr>132</ns3:hr>
            <ns3:cad>53</ns3:cad>
          </ns3:TrackPointExtension>
        </extensions>
      </trkpt>
      <trkpt lat="45.2980981953442096710205078125" lon="-71.1011356674134731292724609375">
        <ele>893.4000244140625</ele>
        <time>2026-08-21T23:52:59.000Z</time>
        <extensions>
          <ns3:TrackPointExtension>
            <ns3:hr>132</ns3:hr>
            <ns3:cad>52</ns3:cad>
          </ns3:TrackPointExtension>
        </extensions>
      </trkpt>
      <trkpt lat="45.2980921603739261627197265625" lon="-71.101147569715976715087890625">
        <ele>893.4000244140625</ele>
        <time>2026-08-21T23:53:00.000Z</time>
        <extensions>
          <ns3:TrackPointExtension>
            <ns3:hr>132</ns3:hr>
            <ns3:cad>52</ns3:cad>
          </ns3:TrackPointExtension>
        </extensions>
      </trkpt>
      <trkpt lat="45.2980787493288516998291015625" lon="-71.1011594720184803009033203125">
        <ele>893.5999755859375</ele>
        <time>2026-08-21T23:53:01.000Z</time>
        <extensions>
          <ns3:TrackPointExtension>
            <ns3:hr>132</ns3:hr>
            <ns3:cad>52</ns3:cad>
          </ns3:TrackPointExtension>
        </extensions>
      </trkpt>
      <trkpt lat="45.29806961305439472198486328125" lon="-71.1011759005486965179443359375">
        <ele>893.79998779296875</ele>
        <time>2026-08-21T23:53:02.000Z</time>
        <extensions>
          <ns3:TrackPointExtension>
            <ns3:hr>132</ns3:hr>
            <ns3:cad>51</ns3:cad>
          </ns3:TrackPointExtension>
        </extensions>
      </trkpt>
      <trkpt lat="45.2980606444180011749267578125" lon="-71.10119258053600788116455078125">
        <ele>893.79998779296875</ele>
        <time>2026-08-21T23:53:03.000Z</time>
        <extensions>
          <ns3:TrackPointExtension>
            <ns3:hr>132</ns3:hr>
            <ns3:cad>51</ns3:cad>
          </ns3:TrackPointExtension>
        </extensions>
      </trkpt>
      <trkpt lat="45.2980489097535610198974609375" lon="-71.1012107692658901214599609375">
        <ele>893.79998779296875</ele>
        <time>2026-08-21T23:53:04.000Z</time>
        <extensions>
          <ns3:TrackPointExtension>
            <ns3:hr>132</ns3:hr>
            <ns3:cad>48</ns3:cad>
          </ns3:TrackPointExtension>
        </extensions>
      </trkpt>
      <trkpt lat="45.2980388514697551727294921875" lon="-71.10122845508158206939697265625">
        <ele>893.79998779296875</ele>
        <time>2026-08-21T23:53:05.000Z</time>
        <extensions>
          <ns3:TrackPointExtension>
            <ns3:hr>133</ns3:hr>
            <ns3:cad>48</ns3:cad>
          </ns3:TrackPointExtension>
        </extensions>
      </trkpt>
      <trkpt lat="45.29803030192852020263671875" lon="-71.10124270431697368621826171875">
        <ele>893.79998779296875</ele>
        <time>2026-08-21T23:53:06.000Z</time>
        <extensions>
          <ns3:TrackPointExtension>
            <ns3:hr>132</ns3:hr>
            <ns3:cad>48</ns3:cad>
          </ns3:TrackPointExtension>
        </extensions>
      </trkpt>
      <trkpt lat="45.29802250675857067108154296875" lon="-71.10125745646655559539794921875">
        <ele>893.79998779296875</ele>
        <time>2026-08-21T23:53:07.000Z</time>
        <extensions>
          <ns3:TrackPointExtension>
            <ns3:hr>132</ns3:hr>
            <ns3:cad>0</ns3:cad>
          </ns3:TrackPointExtension>
        </extensions>
      </trkpt>
      <trkpt lat="45.29801362194120883941650390625" lon="-71.101270280778408050537109375">
        <ele>894</ele>
        <time>2026-08-21T23:53:08.000Z</time>
        <extensions>
          <ns3:TrackPointExtension>
            <ns3:hr>132</ns3:hr>
            <ns3:cad>0</ns3:cad>
          </ns3:TrackPointExtension>
        </extensions>
      </trkpt>
      <trkpt lat="45.2980070002377033233642578125" lon="-71.10128067433834075927734375">
        <ele>894</ele>
        <time>2026-08-21T23:53:09.000Z</time>
        <extensions>
          <ns3:TrackPointExtension>
            <ns3:hr>132</ns3:hr>
            <ns3:cad>0</ns3:cad>
          </ns3:TrackPointExtension>
        </extensions>
      </trkpt>
      <trkpt lat="45.29799702577292919158935546875" lon="-71.1012925766408443450927734375">
        <ele>894.20001220703125</ele>
        <time>2026-08-21T23:53:10.000Z</time>
        <extensions>
          <ns3:TrackPointExtension>
            <ns3:hr>132</ns3:hr>
            <ns3:cad>0</ns3:cad>
          </ns3:TrackPointExtension>
        </extensions>
      </trkpt>
      <trkpt lat="45.29798814095556735992431640625" lon="-71.1013090051710605621337890625">
        <ele>894.20001220703125</ele>
        <time>2026-08-21T23:53:11.000Z</time>
        <extensions>
          <ns3:TrackPointExtension>
            <ns3:hr>132</ns3:hr>
            <ns3:cad>0</ns3:cad>
          </ns3:TrackPointExtension>
        </extensions>
      </trkpt>
      <trkpt lat="45.2979811839759349822998046875" lon="-71.101319231092929840087890625">
        <ele>894.20001220703125</ele>
        <time>2026-08-21T23:53:12.000Z</time>
        <extensions>
          <ns3:TrackPointExtension>
            <ns3:hr>132</ns3:hr>
            <ns3:cad>50</ns3:cad>
          </ns3:TrackPointExtension>
        </extensions>
      </trkpt>
      <trkpt lat="45.2979733049869537353515625" lon="-71.10133188776671886444091796875">
        <ele>894.20001220703125</ele>
        <time>2026-08-21T23:53:13.000Z</time>
        <extensions>
          <ns3:TrackPointExtension>
            <ns3:hr>132</ns3:hr>
            <ns3:cad>50</ns3:cad>
          </ns3:TrackPointExtension>
        </extensions>
      </trkpt>
      <trkpt lat="45.2979640848934650421142578125" lon="-71.10134429298341274261474609375">
        <ele>894.20001220703125</ele>
        <time>2026-08-21T23:53:14.000Z</time>
        <extensions>
          <ns3:TrackPointExtension>
            <ns3:hr>132</ns3:hr>
            <ns3:cad>50</ns3:cad>
          </ns3:TrackPointExtension>
        </extensions>
      </trkpt>
      <trkpt lat="45.297953523695468902587890625" lon="-71.10135451890528202056884765625">
        <ele>894</ele>
        <time>2026-08-21T23:53:15.000Z</time>
        <extensions>
          <ns3:TrackPointExtension>
            <ns3:hr>132</ns3:hr>
            <ns3:cad>50</ns3:cad>
          </ns3:TrackPointExtension>
        </extensions>
      </trkpt>
      <trkpt lat="45.29794774018228054046630859375" lon="-71.10136373899877071380615234375">
        <ele>894.20001220703125</ele>
        <time>2026-08-21T23:53:16.000Z</time>
        <extensions>
          <ns3:TrackPointExtension>
            <ns3:hr>132</ns3:hr>
            <ns3:cad>50</ns3:cad>
          </ns3:TrackPointExtension>
        </extensions>
      </trkpt>
      <trkpt lat="45.297938771545886993408203125" lon="-71.1013780720531940460205078125">
        <ele>894.20001220703125</ele>
        <time>2026-08-21T23:53:17.000Z</time>
        <extensions>
          <ns3:TrackPointExtension>
            <ns3:hr>132</ns3:hr>
            <ns3:cad>50</ns3:cad>
          </ns3:TrackPointExtension>
        </extensions>
      </trkpt>
      <trkpt lat="45.2979308925569057464599609375" lon="-71.10138687305152416229248046875">
        <ele>894.4000244140625</ele>
        <time>2026-08-21T23:53:18.000Z</time>
        <extensions>
          <ns3:TrackPointExtension>
            <ns3:hr>132</ns3:hr>
            <ns3:cad>54</ns3:cad>
          </ns3:TrackPointExtension>
        </extensions>
      </trkpt>
      <trkpt lat="45.29792360030114650726318359375" lon="-71.1013968475162982940673828125">
        <ele>894.4000244140625</ele>
        <time>2026-08-21T23:53:19.000Z</time>
        <extensions>
          <ns3:TrackPointExtension>
            <ns3:hr>131</ns3:hr>
            <ns3:cad>54</ns3:cad>
          </ns3:TrackPointExtension>
        </extensions>
      </trkpt>
      <trkpt lat="45.29791672714054584503173828125" lon="-71.101407743990421295166015625">
        <ele>894.5999755859375</ele>
        <time>2026-08-21T23:53:20.000Z</time>
        <extensions>
          <ns3:TrackPointExtension>
            <ns3:hr>130</ns3:hr>
            <ns3:cad>54</ns3:cad>
          </ns3:TrackPointExtension>
        </extensions>
      </trkpt>
      <trkpt lat="45.29790968634188175201416015625" lon="-71.10141537152230739593505859375">
        <ele>894.5999755859375</ele>
        <time>2026-08-21T23:53:21.000Z</time>
        <extensions>
          <ns3:TrackPointExtension>
            <ns3:hr>130</ns3:hr>
            <ns3:cad>49</ns3:cad>
          </ns3:TrackPointExtension>
        </extensions>
      </trkpt>
      <trkpt lat="45.2979010529816150665283203125" lon="-71.1014263518154621124267578125">
        <ele>894.79998779296875</ele>
        <time>2026-08-21T23:53:22.000Z</time>
        <extensions>
          <ns3:TrackPointExtension>
            <ns3:hr>129</ns3:hr>
            <ns3:cad>49</ns3:cad>
          </ns3:TrackPointExtension>
        </extensions>
      </trkpt>
      <trkpt lat="45.29789443127810955047607421875" lon="-71.10143196769058704376220703125">
        <ele>894.79998779296875</ele>
        <time>2026-08-21T23:53:23.000Z</time>
        <extensions>
          <ns3:TrackPointExtension>
            <ns3:hr>129</ns3:hr>
            <ns3:cad>47</ns3:cad>
          </ns3:TrackPointExtension>
        </extensions>
      </trkpt>
      <trkpt lat="45.2978896535933017730712890625" lon="-71.10143783502280712127685546875">
        <ele>894.79998779296875</ele>
        <time>2026-08-21T23:53:24.000Z</time>
        <extensions>
          <ns3:TrackPointExtension>
            <ns3:hr>128</ns3:hr>
            <ns3:cad>47</ns3:cad>
          </ns3:TrackPointExtension>
        </extensions>
      </trkpt>
      <trkpt lat="45.2978847920894622802734375" lon="-71.1014437861740589141845703125">
        <ele>895</ele>
        <time>2026-08-21T23:53:25.000Z</time>
        <extensions>
          <ns3:TrackPointExtension>
            <ns3:hr>128</ns3:hr>
            <ns3:cad>45</ns3:cad>
          </ns3:TrackPointExtension>
        </extensions>
      </trkpt>
      <trkpt lat="45.29788076877593994140625" lon="-71.10145032405853271484375">
        <ele>895</ele>
        <time>2026-08-21T23:53:26.000Z</time>
        <extensions>
          <ns3:TrackPointExtension>
            <ns3:hr>128</ns3:hr>
            <ns3:cad>0</ns3:cad>
          </ns3:TrackPointExtension>
        </extensions>
      </trkpt>
      <trkpt lat="45.29787632636725902557373046875" lon="-71.10145878978073596954345703125">
        <ele>895.20001220703125</ele>
        <time>2026-08-21T23:53:27.000Z</time>
        <extensions>
          <ns3:TrackPointExtension>
            <ns3:hr>128</ns3:hr>
            <ns3:cad>0</ns3:cad>
          </ns3:TrackPointExtension>
        </extensions>
      </trkpt>
      <trkpt lat="45.29786928556859493255615234375" lon="-71.10146717168390750885009765625">
        <ele>895.20001220703125</ele>
        <time>2026-08-21T23:53:28.000Z</time>
        <extensions>
          <ns3:TrackPointExtension>
            <ns3:hr>128</ns3:hr>
            <ns3:cad>0</ns3:cad>
          </ns3:TrackPointExtension>
        </extensions>
      </trkpt>
      <trkpt lat="45.29786308296024799346923828125" lon="-71.10147639177739620208740234375">
        <ele>895.4000244140625</ele>
        <time>2026-08-21T23:53:29.000Z</time>
        <extensions>
          <ns3:TrackPointExtension>
            <ns3:hr>128</ns3:hr>
            <ns3:cad>0</ns3:cad>
          </ns3:TrackPointExtension>
        </extensions>
      </trkpt>
      <trkpt lat="45.29785729944705963134765625" lon="-71.10148678533732891082763671875">
        <ele>895.4000244140625</ele>
        <time>2026-08-21T23:53:30.000Z</time>
        <extensions>
          <ns3:TrackPointExtension>
            <ns3:hr>127</ns3:hr>
            <ns3:cad>0</ns3:cad>
          </ns3:TrackPointExtension>
        </extensions>
      </trkpt>
      <trkpt lat="45.29785419814288616180419921875" lon="-71.10149349085986614227294921875">
        <ele>895.5999755859375</ele>
        <time>2026-08-21T23:53:31.000Z</time>
        <extensions>
          <ns3:TrackPointExtension>
            <ns3:hr>127</ns3:hr>
            <ns3:cad>0</ns3:cad>
          </ns3:TrackPointExtension>
        </extensions>
      </trkpt>
      <trkpt lat="45.2978557907044887542724609375" lon="-71.1014994420111179351806640625">
        <ele>895.5999755859375</ele>
        <time>2026-08-21T23:53:32.000Z</time>
        <extensions>
          <ns3:TrackPointExtension>
            <ns3:hr>126</ns3:hr>
            <ns3:cad>0</ns3:cad>
          </ns3:TrackPointExtension>
        </extensions>
      </trkpt>
      <trkpt lat="45.297856293618679046630859375" lon="-71.10150271095335483551025390625">
        <ele>895.5999755859375</ele>
        <time>2026-08-21T23:53:33.000Z</time>
        <extensions>
          <ns3:TrackPointExtension>
            <ns3:hr>126</ns3:hr>
            <ns3:cad>0</ns3:cad>
          </ns3:TrackPointExtension>
        </extensions>
      </trkpt>
      <trkpt lat="45.29785671271383762359619140625" lon="-71.10150237567722797393798828125">
        <ele>895.5999755859375</ele>
        <time>2026-08-21T23:53:34.000Z</time>
        <extensions>
          <ns3:TrackPointExtension>
            <ns3:hr>125</ns3:hr>
            <ns3:cad>0</ns3:cad>
          </ns3:TrackPointExtension>
        </extensions>
      </trkpt>
      <trkpt lat="45.29785671271383762359619140625" lon="-71.10150237567722797393798828125">
        <ele>895.5999755859375</ele>
        <time>2026-08-21T23:53:35.000Z</time>
        <extensions>
          <ns3:TrackPointExtension>
            <ns3:hr>124</ns3:hr>
            <ns3:cad>0</ns3:cad>
          </ns3:TrackPointExtension>
        </extensions>
      </trkpt>
      <trkpt lat="45.29785671271383762359619140625" lon="-71.10150237567722797393798828125">
        <ele>895.5999755859375</ele>
        <time>2026-08-21T23:53:36.000Z</time>
        <extensions>
          <ns3:TrackPointExtension>
            <ns3:hr>124</ns3:hr>
            <ns3:cad>0</ns3:cad>
          </ns3:TrackPointExtension>
        </extensions>
      </trkpt>
      <trkpt lat="45.29785671271383762359619140625" lon="-71.10150237567722797393798828125">
        <ele>895.5999755859375</ele>
        <time>2026-08-21T23:53:37.000Z</time>
        <extensions>
          <ns3:TrackPointExtension>
            <ns3:hr>124</ns3:hr>
            <ns3:cad>0</ns3:cad>
          </ns3:TrackPointExtension>
        </extensions>
      </trkpt>
      <trkpt lat="45.297856964170932769775390625" lon="-71.1015027947723865509033203125">
        <ele>895.5999755859375</ele>
        <time>2026-08-21T23:53:38.000Z</time>
        <extensions>
          <ns3:TrackPointExtension>
            <ns3:hr>124</ns3:hr>
            <ns3:cad>0</ns3:cad>
          </ns3:TrackPointExtension>
        </extensions>
      </trkpt>
      <trkpt lat="45.29785620979964733123779296875" lon="-71.10150857828557491302490234375">
        <ele>895.5999755859375</ele>
        <time>2026-08-21T23:53:39.000Z</time>
        <extensions>
          <ns3:TrackPointExtension>
            <ns3:hr>123</ns3:hr>
            <ns3:cad>0</ns3:cad>
          </ns3:TrackPointExtension>
        </extensions>
      </trkpt>
      <trkpt lat="45.29785520397126674652099609375" lon="-71.10151008702814579010009765625">
        <ele>895.5999755859375</ele>
        <time>2026-08-21T23:53:40.000Z</time>
        <extensions>
          <ns3:TrackPointExtension>
            <ns3:hr>123</ns3:hr>
            <ns3:cad>0</ns3:cad>
          </ns3:TrackPointExtension>
        </extensions>
      </trkpt>
      <trkpt lat="45.29785671271383762359619140625" lon="-71.10150237567722797393798828125">
        <ele>895.5999755859375</ele>
        <time>2026-08-21T23:53:41.000Z</time>
        <extensions>
          <ns3:TrackPointExtension>
            <ns3:hr>123</ns3:hr>
            <ns3:cad>0</ns3:cad>
          </ns3:TrackPointExtension>
        </extensions>
      </trkpt>
      <trkpt lat="45.29785671271383762359619140625" lon="-71.10150237567722797393798828125">
        <ele>895.5999755859375</ele>
        <time>2026-08-21T23:53:42.000Z</time>
        <extensions>
          <ns3:TrackPointExtension>
            <ns3:hr>123</ns3:hr>
            <ns3:cad>0</ns3:cad>
          </ns3:TrackPointExtension>
        </extensions>
      </trkpt>
      <trkpt lat="45.29785671271383762359619140625" lon="-71.10150237567722797393798828125">
        <ele>895.5999755859375</ele>
        <time>2026-08-21T23:53:43.000Z</time>
        <extensions>
          <ns3:TrackPointExtension>
            <ns3:hr>122</ns3:hr>
            <ns3:cad>0</ns3:cad>
          </ns3:TrackPointExtension>
        </extensions>
      </trkpt>
      <trkpt lat="45.29785671271383762359619140625" lon="-71.10150237567722797393798828125">
        <ele>895.5999755859375</ele>
        <time>2026-08-21T23:53:44.000Z</time>
        <extensions>
          <ns3:TrackPointExtension>
            <ns3:hr>122</ns3:hr>
            <ns3:cad>0</ns3:cad>
          </ns3:TrackPointExtension>
        </extensions>
      </trkpt>
      <trkpt lat="45.2978567965328693389892578125" lon="-71.10150991939008235931396484375">
        <ele>895.5999755859375</ele>
        <time>2026-08-21T23:53:45.000Z</time>
        <extensions>
          <ns3:TrackPointExtension>
            <ns3:hr>122</ns3:hr>
            <ns3:cad>0</ns3:cad>
          </ns3:TrackPointExtension>
        </extensions>
      </trkpt>
      <trkpt lat="45.2978551201522350311279296875" lon="-71.10151947475969791412353515625">
        <ele>895.4000244140625</ele>
        <time>2026-08-21T23:53:46.000Z</time>
        <extensions>
          <ns3:TrackPointExtension>
            <ns3:hr>122</ns3:hr>
            <ns3:cad>0</ns3:cad>
          </ns3:TrackPointExtension>
        </extensions>
      </trkpt>
      <trkpt lat="45.297852270305156707763671875" lon="-71.10152416862547397613525390625">
        <ele>895.4000244140625</ele>
        <time>2026-08-21T23:53:47.000Z</time>
        <extensions>
          <ns3:TrackPointExtension>
            <ns3:hr>122</ns3:hr>
            <ns3:cad>0</ns3:cad>
          </ns3:TrackPointExtension>
        </extensions>
      </trkpt>
      <trkpt lat="45.29785051010549068450927734375" lon="-71.10152986831963062286376953125">
        <ele>895.4000244140625</ele>
        <time>2026-08-21T23:53:48.000Z</time>
        <extensions>
          <ns3:TrackPointExtension>
            <ns3:hr>121</ns3:hr>
            <ns3:cad>0</ns3:cad>
          </ns3:TrackPointExtension>
        </extensions>
      </trkpt>
      <trkpt lat="45.29784682206809520721435546875" lon="-71.10153607092797756195068359375">
        <ele>895.4000244140625</ele>
        <time>2026-08-21T23:53:49.000Z</time>
        <extensions>
          <ns3:TrackPointExtension>
            <ns3:hr>120</ns3:hr>
            <ns3:cad>0</ns3:cad>
          </ns3:TrackPointExtension>
        </extensions>
      </trkpt>
      <trkpt lat="45.2978413738310337066650390625" lon="-71.10154931433498859405517578125">
        <ele>895.4000244140625</ele>
        <time>2026-08-21T23:53:50.000Z</time>
        <extensions>
          <ns3:TrackPointExtension>
            <ns3:hr>119</ns3:hr>
            <ns3:cad>0</ns3:cad>
          </ns3:TrackPointExtension>
        </extensions>
      </trkpt>
      <trkpt lat="45.2978353388607501983642578125" lon="-71.10155987553298473358154296875">
        <ele>895.5999755859375</ele>
        <time>2026-08-21T23:53:51.000Z</time>
        <extensions>
          <ns3:TrackPointExtension>
            <ns3:hr>119</ns3:hr>
            <ns3:cad>0</ns3:cad>
          </ns3:TrackPointExtension>
        </extensions>
      </trkpt>
      <trkpt lat="45.2978276275098323822021484375" lon="-71.10157647170126438140869140625">
        <ele>895.5999755859375</ele>
        <time>2026-08-21T23:53:52.000Z</time>
        <extensions>
          <ns3:TrackPointExtension>
            <ns3:hr>119</ns3:hr>
            <ns3:cad>0</ns3:cad>
          </ns3:TrackPointExtension>
        </extensions>
      </trkpt>
      <trkpt lat="45.29782100580632686614990234375" lon="-71.10158644616603851318359375">
        <ele>895.5999755859375</ele>
        <time>2026-08-21T23:53:53.000Z</time>
        <extensions>
          <ns3:TrackPointExtension>
            <ns3:hr>119</ns3:hr>
            <ns3:cad>0</ns3:cad>
          </ns3:TrackPointExtension>
        </extensions>
      </trkpt>
      <trkpt lat="45.29781798832118511199951171875" lon="-71.10159507952630519866943359375">
        <ele>895.5999755859375</ele>
        <time>2026-08-21T23:53:54.000Z</time>
        <extensions>
          <ns3:TrackPointExtension>
            <ns3:hr>119</ns3:hr>
            <ns3:cad>0</ns3:cad>
          </ns3:TrackPointExtension>
        </extensions>
      </trkpt>
      <trkpt lat="45.29781145043671131134033203125" lon="-71.101603209972381591796875">
        <ele>895.5999755859375</ele>
        <time>2026-08-21T23:53:55.000Z</time>
        <extensions>
          <ns3:TrackPointExtension>
            <ns3:hr>120</ns3:hr>
            <ns3:cad>0</ns3:cad>
          </ns3:TrackPointExtension>
        </extensions>
      </trkpt>
      <trkpt lat="45.297801308333873748779296875" lon="-71.1016074009239673614501953125">
        <ele>895.79998779296875</ele>
        <time>2026-08-21T23:53:56.000Z</time>
        <extensions>
          <ns3:TrackPointExtension>
            <ns3:hr>120</ns3:hr>
            <ns3:cad>0</ns3:cad>
          </ns3:TrackPointExtension>
        </extensions>
      </trkpt>
      <trkpt lat="45.29779803939163684844970703125" lon="-71.1016107536852359771728515625">
        <ele>895.79998779296875</ele>
        <time>2026-08-21T23:53:57.000Z</time>
        <extensions>
          <ns3:TrackPointExtension>
            <ns3:hr>120</ns3:hr>
            <ns3:cad>0</ns3:cad>
          </ns3:TrackPointExtension>
        </extensions>
      </trkpt>
      <trkpt lat="45.29779284261167049407958984375" lon="-71.10161402262747287750244140625">
        <ele>896</ele>
        <time>2026-08-21T23:53:58.000Z</time>
        <extensions>
          <ns3:TrackPointExtension>
            <ns3:hr>120</ns3:hr>
            <ns3:cad>0</ns3:cad>
          </ns3:TrackPointExtension>
        </extensions>
      </trkpt>
      <trkpt lat="45.2977904118597507476806640625" lon="-71.10162022523581981658935546875">
        <ele>896</ele>
        <time>2026-08-21T23:53:59.000Z</time>
        <extensions>
          <ns3:TrackPointExtension>
            <ns3:hr>120</ns3:hr>
            <ns3:cad>0</ns3:cad>
          </ns3:TrackPointExtension>
        </extensions>
      </trkpt>
      <trkpt lat="45.297786556184291839599609375" lon="-71.1016258411109447479248046875">
        <ele>896</ele>
        <time>2026-08-21T23:54:00.000Z</time>
        <extensions>
          <ns3:TrackPointExtension>
            <ns3:hr>121</ns3:hr>
            <ns3:cad>0</ns3:cad>
          </ns3:TrackPointExtension>
        </extensions>
      </trkpt>
      <trkpt lat="45.29778228141367435455322265625" lon="-71.1016367375850677490234375">
        <ele>895.79998779296875</ele>
        <time>2026-08-21T23:54:01.000Z</time>
        <extensions>
          <ns3:TrackPointExtension>
            <ns3:hr>121</ns3:hr>
            <ns3:cad>0</ns3:cad>
          </ns3:TrackPointExtension>
        </extensions>
      </trkpt>
      <trkpt lat="45.2977770008146762847900390625" lon="-71.10164704732596874237060546875">
        <ele>895.79998779296875</ele>
        <time>2026-08-21T23:54:02.000Z</time>
        <extensions>
          <ns3:TrackPointExtension>
            <ns3:hr>121</ns3:hr>
            <ns3:cad>0</ns3:cad>
          </ns3:TrackPointExtension>
        </extensions>
      </trkpt>
      <trkpt lat="45.29777054674923419952392578125" lon="-71.10165827907621860504150390625">
        <ele>895.79998779296875</ele>
        <time>2026-08-21T23:54:03.000Z</time>
        <extensions>
          <ns3:TrackPointExtension>
            <ns3:hr>121</ns3:hr>
            <ns3:cad>0</ns3:cad>
          </ns3:TrackPointExtension>
        </extensions>
      </trkpt>
      <trkpt lat="45.2977632544934749603271484375" lon="-71.101667918264865875244140625">
        <ele>895.79998779296875</ele>
        <time>2026-08-21T23:54:04.000Z</time>
        <extensions>
          <ns3:TrackPointExtension>
            <ns3:hr>121</ns3:hr>
            <ns3:cad>0</ns3:cad>
          </ns3:TrackPointExtension>
        </extensions>
      </trkpt>
      <trkpt lat="45.29775495640933513641357421875" lon="-71.10167671926319599151611328125">
        <ele>895.79998779296875</ele>
        <time>2026-08-21T23:54:05.000Z</time>
        <extensions>
          <ns3:TrackPointExtension>
            <ns3:hr>121</ns3:hr>
            <ns3:cad>0</ns3:cad>
          </ns3:TrackPointExtension>
        </extensions>
      </trkpt>
      <trkpt lat="45.29775026254355907440185546875" lon="-71.101681999862194061279296875">
        <ele>896</ele>
        <time>2026-08-21T23:54:06.000Z</time>
        <extensions>
          <ns3:TrackPointExtension>
            <ns3:hr>121</ns3:hr>
            <ns3:cad>0</ns3:cad>
          </ns3:TrackPointExtension>
        </extensions>
      </trkpt>
      <trkpt lat="45.2977454848587512969970703125" lon="-71.1016912199556827545166015625">
        <ele>896.20001220703125</ele>
        <time>2026-08-21T23:54:07.000Z</time>
        <extensions>
          <ns3:TrackPointExtension>
            <ns3:hr>121</ns3:hr>
            <ns3:cad>0</ns3:cad>
          </ns3:TrackPointExtension>
        </extensions>
      </trkpt>
      <trkpt lat="45.29773433692753314971923828125" lon="-71.10170521773397922515869140625">
        <ele>896.4000244140625</ele>
        <time>2026-08-21T23:54:08.000Z</time>
        <extensions>
          <ns3:TrackPointExtension>
            <ns3:hr>120</ns3:hr>
            <ns3:cad>49</ns3:cad>
          </ns3:TrackPointExtension>
        </extensions>
      </trkpt>
      <trkpt lat="45.29772461391985416412353515625" lon="-71.101718209683895111083984375">
        <ele>896.5999755859375</ele>
        <time>2026-08-21T23:54:09.000Z</time>
        <extensions>
          <ns3:TrackPointExtension>
            <ns3:hr>120</ns3:hr>
            <ns3:cad>49</ns3:cad>
          </ns3:TrackPointExtension>
        </extensions>
      </trkpt>
      <trkpt lat="45.2977153100073337554931640625" lon="-71.10173036344349384307861328125">
        <ele>896.79998779296875</ele>
        <time>2026-08-21T23:54:10.000Z</time>
        <extensions>
          <ns3:TrackPointExtension>
            <ns3:hr>120</ns3:hr>
            <ns3:cad>49</ns3:cad>
          </ns3:TrackPointExtension>
        </extensions>
      </trkpt>
      <trkpt lat="45.29770885594189167022705078125" lon="-71.1017411760985851287841796875">
        <ele>896.79998779296875</ele>
        <time>2026-08-21T23:54:11.000Z</time>
        <extensions>
          <ns3:TrackPointExtension>
            <ns3:hr>120</ns3:hr>
            <ns3:cad>49</ns3:cad>
          </ns3:TrackPointExtension>
        </extensions>
      </trkpt>
      <trkpt lat="45.29769510962069034576416015625" lon="-71.101756431162357330322265625">
        <ele>896.79998779296875</ele>
        <time>2026-08-21T23:54:12.000Z</time>
        <extensions>
          <ns3:TrackPointExtension>
            <ns3:hr>119</ns3:hr>
            <ns3:cad>49</ns3:cad>
          </ns3:TrackPointExtension>
        </extensions>
      </trkpt>
      <trkpt lat="45.29768706299364566802978515625" lon="-71.1017679981887340545654296875">
        <ele>897</ele>
        <time>2026-08-21T23:54:13.000Z</time>
        <extensions>
          <ns3:TrackPointExtension>
            <ns3:hr>119</ns3:hr>
            <ns3:cad>49</ns3:cad>
          </ns3:TrackPointExtension>
        </extensions>
      </trkpt>
      <trkpt lat="45.2976784296333789825439453125" lon="-71.10177914611995220184326171875">
        <ele>897</ele>
        <time>2026-08-21T23:54:14.000Z</time>
        <extensions>
          <ns3:TrackPointExtension>
            <ns3:hr>120</ns3:hr>
            <ns3:cad>49</ns3:cad>
          </ns3:TrackPointExtension>
        </extensions>
      </trkpt>
      <trkpt lat="45.2976666949689388275146484375" lon="-71.10178886912763118743896484375">
        <ele>897</ele>
        <time>2026-08-21T23:54:15.000Z</time>
        <extensions>
          <ns3:TrackPointExtension>
            <ns3:hr>120</ns3:hr>
            <ns3:cad>48</ns3:cad>
          </ns3:TrackPointExtension>
        </extensions>
      </trkpt>
      <trkpt lat="45.2976526133716106414794921875" lon="-71.10180144198238849639892578125">
        <ele>897</ele>
        <time>2026-08-21T23:54:16.000Z</time>
        <extensions>
          <ns3:TrackPointExtension>
            <ns3:hr>120</ns3:hr>
            <ns3:cad>48</ns3:cad>
          </ns3:TrackPointExtension>
        </extensions>
      </trkpt>
      <trkpt lat="45.29764465056359767913818359375" lon="-71.10181015916168689727783203125">
        <ele>897.20001220703125</ele>
        <time>2026-08-21T23:54:17.000Z</time>
        <extensions>
          <ns3:TrackPointExtension>
            <ns3:hr>122</ns3:hr>
            <ns3:cad>0</ns3:cad>
          </ns3:TrackPointExtension>
        </extensions>
      </trkpt>
      <trkpt lat="45.2976353466510772705078125" lon="-71.10182072035968303680419921875">
        <ele>897.20001220703125</ele>
        <time>2026-08-21T23:54:18.000Z</time>
        <extensions>
          <ns3:TrackPointExtension>
            <ns3:hr>121</ns3:hr>
            <ns3:cad>0</ns3:cad>
          </ns3:TrackPointExtension>
        </extensions>
      </trkpt>
      <trkpt lat="45.29762838967144489288330078125" lon="-71.1018298566341400146484375">
        <ele>897.4000244140625</ele>
        <time>2026-08-21T23:54:19.000Z</time>
        <extensions>
          <ns3:TrackPointExtension>
            <ns3:hr>121</ns3:hr>
            <ns3:cad>0</ns3:cad>
          </ns3:TrackPointExtension>
        </extensions>
      </trkpt>
      <trkpt lat="45.2976267971098423004150390625" lon="-71.10184469260275363922119140625">
        <ele>897.5999755859375</ele>
        <time>2026-08-21T23:54:20.000Z</time>
        <extensions>
          <ns3:TrackPointExtension>
            <ns3:hr>121</ns3:hr>
            <ns3:cad>0</ns3:cad>
          </ns3:TrackPointExtension>
        </extensions>
      </trkpt>
      <trkpt lat="45.2976165711879730224609375" lon="-71.10185944475233554840087890625">
        <ele>897.79998779296875</ele>
        <time>2026-08-21T23:54:21.000Z</time>
        <extensions>
          <ns3:TrackPointExtension>
            <ns3:hr>121</ns3:hr>
            <ns3:cad>0</ns3:cad>
          </ns3:TrackPointExtension>
        </extensions>
      </trkpt>
      <trkpt lat="45.29760357923805713653564453125" lon="-71.10187252052128314971923828125">
        <ele>897.79998779296875</ele>
        <time>2026-08-21T23:54:22.000Z</time>
        <extensions>
          <ns3:TrackPointExtension>
            <ns3:hr>120</ns3:hr>
            <ns3:cad>0</ns3:cad>
          </ns3:TrackPointExtension>
        </extensions>
      </trkpt>
      <trkpt lat="45.2975952811539173126220703125" lon="-71.101884506642818450927734375">
        <ele>897.79998779296875</ele>
        <time>2026-08-21T23:54:23.000Z</time>
        <extensions>
          <ns3:TrackPointExtension>
            <ns3:hr>120</ns3:hr>
            <ns3:cad>0</ns3:cad>
          </ns3:TrackPointExtension>
        </extensions>
      </trkpt>
      <trkpt lat="45.29758505523204803466796875" lon="-71.1018977500498294830322265625">
        <ele>897.79998779296875</ele>
        <time>2026-08-21T23:54:24.000Z</time>
        <extensions>
          <ns3:TrackPointExtension>
            <ns3:hr>120</ns3:hr>
            <ns3:cad>0</ns3:cad>
          </ns3:TrackPointExtension>
        </extensions>
      </trkpt>
      <trkpt lat="45.297580026090145111083984375" lon="-71.10191007144749164581298828125">
        <ele>897.79998779296875</ele>
        <time>2026-08-21T23:54:25.000Z</time>
        <extensions>
          <ns3:TrackPointExtension>
            <ns3:hr>121</ns3:hr>
            <ns3:cad>0</ns3:cad>
          </ns3:TrackPointExtension>
        </extensions>
      </trkpt>
      <trkpt lat="45.29757030308246612548828125" lon="-71.101924069225788116455078125">
        <ele>897.79998779296875</ele>
        <time>2026-08-21T23:54:26.000Z</time>
        <extensions>
          <ns3:TrackPointExtension>
            <ns3:hr>120</ns3:hr>
            <ns3:cad>0</ns3:cad>
          </ns3:TrackPointExtension>
        </extensions>
      </trkpt>
      <trkpt lat="45.29756150208413600921630859375" lon="-71.10193379223346710205078125">
        <ele>897.79998779296875</ele>
        <time>2026-08-21T23:54:27.000Z</time>
        <extensions>
          <ns3:TrackPointExtension>
            <ns3:hr>120</ns3:hr>
            <ns3:cad>0</ns3:cad>
          </ns3:TrackPointExtension>
        </extensions>
      </trkpt>
      <trkpt lat="45.29754909686744213104248046875" lon="-71.10194343142211437225341796875">
        <ele>897.79998779296875</ele>
        <time>2026-08-21T23:54:28.000Z</time>
        <extensions>
          <ns3:TrackPointExtension>
            <ns3:hr>120</ns3:hr>
            <ns3:cad>0</ns3:cad>
          </ns3:TrackPointExtension>
        </extensions>
      </trkpt>
      <trkpt lat="45.29753887094557285308837890625" lon="-71.10195499844849109649658203125">
        <ele>897.79998779296875</ele>
        <time>2026-08-21T23:54:29.000Z</time>
        <extensions>
          <ns3:TrackPointExtension>
            <ns3:hr>120</ns3:hr>
            <ns3:cad>0</ns3:cad>
          </ns3:TrackPointExtension>
        </extensions>
      </trkpt>
      <trkpt lat="45.29753015376627445220947265625" lon="-71.10196757130324840545654296875">
        <ele>898</ele>
        <time>2026-08-21T23:54:30.000Z</time>
        <extensions>
          <ns3:TrackPointExtension>
            <ns3:hr>120</ns3:hr>
            <ns3:cad>0</ns3:cad>
          </ns3:TrackPointExtension>
        </extensions>
      </trkpt>
      <trkpt lat="45.297523029148578643798828125" lon="-71.10198098234832286834716796875">
        <ele>898</ele>
        <time>2026-08-21T23:54:31.000Z</time>
        <extensions>
          <ns3:TrackPointExtension>
            <ns3:hr>120</ns3:hr>
            <ns3:cad>0</ns3:cad>
          </ns3:TrackPointExtension>
        </extensions>
      </trkpt>
      <trkpt lat="45.29751665890216827392578125" lon="-71.10199682414531707763671875">
        <ele>898</ele>
        <time>2026-08-21T23:54:32.000Z</time>
        <extensions>
          <ns3:TrackPointExtension>
            <ns3:hr>121</ns3:hr>
            <ns3:cad>0</ns3:cad>
          </ns3:TrackPointExtension>
        </extensions>
      </trkpt>
      <trkpt lat="45.297502912580966949462890625" lon="-71.10200847499072551727294921875">
        <ele>898.20001220703125</ele>
        <time>2026-08-21T23:54:33.000Z</time>
        <extensions>
          <ns3:TrackPointExtension>
            <ns3:hr>120</ns3:hr>
            <ns3:cad>0</ns3:cad>
          </ns3:TrackPointExtension>
        </extensions>
      </trkpt>
      <trkpt lat="45.297488160431385040283203125" lon="-71.10202373005449771881103515625">
        <ele>898.20001220703125</ele>
        <time>2026-08-21T23:54:34.000Z</time>
        <extensions>
          <ns3:TrackPointExtension>
            <ns3:hr>120</ns3:hr>
            <ns3:cad>0</ns3:cad>
          </ns3:TrackPointExtension>
        </extensions>
      </trkpt>
      <trkpt lat="45.297476090490818023681640625" lon="-71.10203311778604984283447265625">
        <ele>898.4000244140625</ele>
        <time>2026-08-21T23:54:35.000Z</time>
        <extensions>
          <ns3:TrackPointExtension>
            <ns3:hr>120</ns3:hr>
            <ns3:cad>0</ns3:cad>
          </ns3:TrackPointExtension>
        </extensions>
      </trkpt>
      <trkpt lat="45.29746712185442447662353515625" lon="-71.10204133205115795135498046875">
        <ele>898.4000244140625</ele>
        <time>2026-08-21T23:54:36.000Z</time>
        <extensions>
          <ns3:TrackPointExtension>
            <ns3:hr>121</ns3:hr>
            <ns3:cad>53</ns3:cad>
          </ns3:TrackPointExtension>
        </extensions>
      </trkpt>
      <trkpt lat="45.2974611707031726837158203125" lon="-71.1020573414862155914306640625">
        <ele>898.4000244140625</ele>
        <time>2026-08-21T23:54:37.000Z</time>
        <extensions>
          <ns3:TrackPointExtension>
            <ns3:hr>121</ns3:hr>
            <ns3:cad>53</ns3:cad>
          </ns3:TrackPointExtension>
        </extensions>
      </trkpt>
      <trkpt lat="45.29745102860033512115478515625" lon="-71.10207326710224151611328125">
        <ele>898.4000244140625</ele>
        <time>2026-08-21T23:54:38.000Z</time>
        <extensions>
          <ns3:TrackPointExtension>
            <ns3:hr>121</ns3:hr>
            <ns3:cad>53</ns3:cad>
          </ns3:TrackPointExtension>
        </extensions>
      </trkpt>
      <trkpt lat="45.29744398780167102813720703125" lon="-71.10209204256534576416015625">
        <ele>898.20001220703125</ele>
        <time>2026-08-21T23:54:39.000Z</time>
        <extensions>
          <ns3:TrackPointExtension>
            <ns3:hr>121</ns3:hr>
            <ns3:cad>53</ns3:cad>
          </ns3:TrackPointExtension>
        </extensions>
      </trkpt>
      <trkpt lat="45.29743510298430919647216796875" lon="-71.10210402868688106536865234375">
        <ele>898</ele>
        <time>2026-08-21T23:54:40.000Z</time>
        <extensions>
          <ns3:TrackPointExtension>
            <ns3:hr>122</ns3:hr>
            <ns3:cad>53</ns3:cad>
          </ns3:TrackPointExtension>
        </extensions>
      </trkpt>
      <trkpt lat="45.2974256314337253570556640625" lon="-71.10211006365716457366943359375">
        <ele>897.79998779296875</ele>
        <time>2026-08-21T23:54:41.000Z</time>
        <extensions>
          <ns3:TrackPointExtension>
            <ns3:hr>122</ns3:hr>
            <ns3:cad>56</ns3:cad>
          </ns3:TrackPointExtension>
        </extensions>
      </trkpt>
      <trkpt lat="45.297414399683475494384765625" lon="-71.10211676917970180511474609375">
        <ele>897.79998779296875</ele>
        <time>2026-08-21T23:54:42.000Z</time>
        <extensions>
          <ns3:TrackPointExtension>
            <ns3:hr>122</ns3:hr>
            <ns3:cad>56</ns3:cad>
          </ns3:TrackPointExtension>
        </extensions>
      </trkpt>
      <trkpt lat="45.2974019944667816162109375" lon="-71.10212825238704681396484375">
        <ele>897.5999755859375</ele>
        <time>2026-08-21T23:54:43.000Z</time>
        <extensions>
          <ns3:TrackPointExtension>
            <ns3:hr>122</ns3:hr>
            <ns3:cad>60</ns3:cad>
          </ns3:TrackPointExtension>
        </extensions>
      </trkpt>
      <trkpt lat="45.29739453457295894622802734375" lon="-71.10213906504213809967041015625">
        <ele>897.5999755859375</ele>
        <time>2026-08-21T23:54:44.000Z</time>
        <extensions>
          <ns3:TrackPointExtension>
            <ns3:hr>122</ns3:hr>
            <ns3:cad>60</ns3:cad>
          </ns3:TrackPointExtension>
        </extensions>
      </trkpt>
      <trkpt lat="45.29738816432654857635498046875" lon="-71.10215373337268829345703125">
        <ele>897.5999755859375</ele>
        <time>2026-08-21T23:54:45.000Z</time>
        <extensions>
          <ns3:TrackPointExtension>
            <ns3:hr>122</ns3:hr>
            <ns3:cad>60</ns3:cad>
          </ns3:TrackPointExtension>
        </extensions>
      </trkpt>
      <trkpt lat="45.29738162644207477569580078125" lon="-71.1021542362868785858154296875">
        <ele>897.79998779296875</ele>
        <time>2026-08-21T23:54:46.000Z</time>
        <extensions>
          <ns3:TrackPointExtension>
            <ns3:hr>121</ns3:hr>
            <ns3:cad>58</ns3:cad>
          </ns3:TrackPointExtension>
        </extensions>
      </trkpt>
      <trkpt lat="45.29736469499766826629638671875" lon="-71.102174185216426849365234375">
        <ele>898</ele>
        <time>2026-08-21T23:54:47.000Z</time>
        <extensions>
          <ns3:TrackPointExtension>
            <ns3:hr>121</ns3:hr>
            <ns3:cad>58</ns3:cad>
          </ns3:TrackPointExtension>
        </extensions>
      </trkpt>
      <trkpt lat="45.2973562292754650115966796875" lon="-71.10218860208988189697265625">
        <ele>898.20001220703125</ele>
        <time>2026-08-21T23:54:48.000Z</time>
        <extensions>
          <ns3:TrackPointExtension>
            <ns3:hr>121</ns3:hr>
            <ns3:cad>57</ns3:cad>
          </ns3:TrackPointExtension>
        </extensions>
      </trkpt>
      <trkpt lat="45.29734239913523197174072265625" lon="-71.10221215523779392242431640625">
        <ele>898.20001220703125</ele>
        <time>2026-08-21T23:54:49.000Z</time>
        <extensions>
          <ns3:TrackPointExtension>
            <ns3:hr>122</ns3:hr>
            <ns3:cad>55</ns3:cad>
          </ns3:TrackPointExtension>
        </extensions>
      </trkpt>
      <trkpt lat="45.29733267612755298614501953125" lon="-71.10222238115966320037841796875">
        <ele>898.4000244140625</ele>
        <time>2026-08-21T23:54:50.000Z</time>
        <extensions>
          <ns3:TrackPointExtension>
            <ns3:hr>122</ns3:hr>
            <ns3:cad>55</ns3:cad>
          </ns3:TrackPointExtension>
        </extensions>
      </trkpt>
      <trkpt lat="45.29732353985309600830078125" lon="-71.10223679803311824798583984375">
        <ele>898.5999755859375</ele>
        <time>2026-08-21T23:54:51.000Z</time>
        <extensions>
          <ns3:TrackPointExtension>
            <ns3:hr>122</ns3:hr>
            <ns3:cad>55</ns3:cad>
          </ns3:TrackPointExtension>
        </extensions>
      </trkpt>
      <trkpt lat="45.2973126433789730072021484375" lon="-71.10225272364914417266845703125">
        <ele>898.5999755859375</ele>
        <time>2026-08-21T23:54:52.000Z</time>
        <extensions>
          <ns3:TrackPointExtension>
            <ns3:hr>121</ns3:hr>
            <ns3:cad>55</ns3:cad>
          </ns3:TrackPointExtension>
        </extensions>
      </trkpt>
      <trkpt lat="45.297302417457103729248046875" lon="-71.10226077027618885040283203125">
        <ele>898.5999755859375</ele>
        <time>2026-08-21T23:54:53.000Z</time>
        <extensions>
          <ns3:TrackPointExtension>
            <ns3:hr>121</ns3:hr>
            <ns3:cad>55</ns3:cad>
          </ns3:TrackPointExtension>
        </extensions>
      </trkpt>
      <trkpt lat="45.29729395173490047454833984375" lon="-71.102278120815753936767578125">
        <ele>898.5999755859375</ele>
        <time>2026-08-21T23:54:54.000Z</time>
        <extensions>
          <ns3:TrackPointExtension>
            <ns3:hr>121</ns3:hr>
            <ns3:cad>55</ns3:cad>
          </ns3:TrackPointExtension>
        </extensions>
      </trkpt>
      <trkpt lat="45.29728640802204608917236328125" lon="-71.1022927053272724151611328125">
        <ele>898.79998779296875</ele>
        <time>2026-08-21T23:54:55.000Z</time>
        <extensions>
          <ns3:TrackPointExtension>
            <ns3:hr>121</ns3:hr>
            <ns3:cad>54</ns3:cad>
          </ns3:TrackPointExtension>
        </extensions>
      </trkpt>
      <trkpt lat="45.29727366752922534942626953125" lon="-71.1023074574768543243408203125">
        <ele>898.79998779296875</ele>
        <time>2026-08-21T23:54:56.000Z</time>
        <extensions>
          <ns3:TrackPointExtension>
            <ns3:hr>122</ns3:hr>
            <ns3:cad>0</ns3:cad>
          </ns3:TrackPointExtension>
        </extensions>
      </trkpt>
      <trkpt lat="45.29726327396929264068603515625" lon="-71.10231935977935791015625">
        <ele>899</ele>
        <time>2026-08-21T23:54:57.000Z</time>
        <extensions>
          <ns3:TrackPointExtension>
            <ns3:hr>122</ns3:hr>
            <ns3:cad>0</ns3:cad>
          </ns3:TrackPointExtension>
        </extensions>
      </trkpt>
      <trkpt lat="45.2972519584000110626220703125" lon="-71.10233302228152751922607421875">
        <ele>899</ele>
        <time>2026-08-21T23:54:58.000Z</time>
        <extensions>
          <ns3:TrackPointExtension>
            <ns3:hr>122</ns3:hr>
            <ns3:cad>0</ns3:cad>
          </ns3:TrackPointExtension>
        </extensions>
      </trkpt>
      <trkpt lat="45.29724173247814178466796875" lon="-71.10234425403177738189697265625">
        <ele>899.20001220703125</ele>
        <time>2026-08-21T23:54:59.000Z</time>
        <extensions>
          <ns3:TrackPointExtension>
            <ns3:hr>122</ns3:hr>
            <ns3:cad>0</ns3:cad>
          </ns3:TrackPointExtension>
        </extensions>
      </trkpt>
      <trkpt lat="45.29723410494625568389892578125" lon="-71.10235087573528289794921875">
        <ele>899.20001220703125</ele>
        <time>2026-08-21T23:55:00.000Z</time>
        <extensions>
          <ns3:TrackPointExtension>
            <ns3:hr>122</ns3:hr>
            <ns3:cad>0</ns3:cad>
          </ns3:TrackPointExtension>
        </extensions>
      </trkpt>
      <trkpt lat="45.2972224541008472442626953125" lon="-71.10236696898937225341796875">
        <ele>899.20001220703125</ele>
        <time>2026-08-21T23:55:01.000Z</time>
        <extensions>
          <ns3:TrackPointExtension>
            <ns3:hr>122</ns3:hr>
            <ns3:cad>0</ns3:cad>
          </ns3:TrackPointExtension>
        </extensions>
      </trkpt>
      <trkpt lat="45.29721130616962909698486328125" lon="-71.1023835651576519012451171875">
        <ele>899.4000244140625</ele>
        <time>2026-08-21T23:55:02.000Z</time>
        <extensions>
          <ns3:TrackPointExtension>
            <ns3:hr>123</ns3:hr>
            <ns3:cad>0</ns3:cad>
          </ns3:TrackPointExtension>
        </extensions>
      </trkpt>
      <trkpt lat="45.29719839803874492645263671875" lon="-71.102398149669170379638671875">
        <ele>899.4000244140625</ele>
        <time>2026-08-21T23:55:03.000Z</time>
        <extensions>
          <ns3:TrackPointExtension>
            <ns3:hr>124</ns3:hr>
            <ns3:cad>0</ns3:cad>
          </ns3:TrackPointExtension>
        </extensions>
      </trkpt>
      <trkpt lat="45.2971882559359073638916015625" lon="-71.102412901818752288818359375">
        <ele>899.5999755859375</ele>
        <time>2026-08-21T23:55:04.000Z</time>
        <extensions>
          <ns3:TrackPointExtension>
            <ns3:hr>124</ns3:hr>
            <ns3:cad>0</ns3:cad>
          </ns3:TrackPointExtension>
        </extensions>
      </trkpt>
      <trkpt lat="45.297179035842418670654296875" lon="-71.10242572613060474395751953125">
        <ele>899.5999755859375</ele>
        <time>2026-08-21T23:55:05.000Z</time>
        <extensions>
          <ns3:TrackPointExtension>
            <ns3:hr>124</ns3:hr>
            <ns3:cad>53</ns3:cad>
          </ns3:TrackPointExtension>
        </extensions>
      </trkpt>
      <trkpt lat="45.29716654680669307708740234375" lon="-71.10243863426148891448974609375">
        <ele>899.79998779296875</ele>
        <time>2026-08-21T23:55:06.000Z</time>
        <extensions>
          <ns3:TrackPointExtension>
            <ns3:hr>124</ns3:hr>
            <ns3:cad>53</ns3:cad>
          </ns3:TrackPointExtension>
        </extensions>
      </trkpt>
      <trkpt lat="45.2971564047038555145263671875" lon="-71.10244886018335819244384765625">
        <ele>899.79998779296875</ele>
        <time>2026-08-21T23:55:07.000Z</time>
        <extensions>
          <ns3:TrackPointExtension>
            <ns3:hr>125</ns3:hr>
            <ns3:cad>54</ns3:cad>
          </ns3:TrackPointExtension>
        </extensions>
      </trkpt>
      <trkpt lat="45.29714542441070079803466796875" lon="-71.102463193237781524658203125">
        <ele>900</ele>
        <time>2026-08-21T23:55:08.000Z</time>
        <extensions>
          <ns3:TrackPointExtension>
            <ns3:hr>125</ns3:hr>
            <ns3:cad>54</ns3:cad>
          </ns3:TrackPointExtension>
        </extensions>
      </trkpt>
      <trkpt lat="45.297138132154941558837890625" lon="-71.10247367061674594879150390625">
        <ele>900</ele>
        <time>2026-08-21T23:55:09.000Z</time>
        <extensions>
          <ns3:TrackPointExtension>
            <ns3:hr>125</ns3:hr>
            <ns3:cad>53</ns3:cad>
          </ns3:TrackPointExtension>
        </extensions>
      </trkpt>
      <trkpt lat="45.29712799005210399627685546875" lon="-71.10248775221407413482666015625">
        <ele>900.20001220703125</ele>
        <time>2026-08-21T23:55:10.000Z</time>
        <extensions>
          <ns3:TrackPointExtension>
            <ns3:hr>124</ns3:hr>
            <ns3:cad>53</ns3:cad>
          </ns3:TrackPointExtension>
        </extensions>
      </trkpt>
      <trkpt lat="45.29711759649217128753662109375" lon="-71.1024999059736728668212890625">
        <ele>900.20001220703125</ele>
        <time>2026-08-21T23:55:11.000Z</time>
        <extensions>
          <ns3:TrackPointExtension>
            <ns3:hr>124</ns3:hr>
            <ns3:cad>53</ns3:cad>
          </ns3:TrackPointExtension>
        </extensions>
      </trkpt>
      <trkpt lat="45.29710762202739715576171875" lon="-71.1025109700858592987060546875">
        <ele>900.4000244140625</ele>
        <time>2026-08-21T23:55:12.000Z</time>
        <extensions>
          <ns3:TrackPointExtension>
            <ns3:hr>124</ns3:hr>
            <ns3:cad>53</ns3:cad>
          </ns3:TrackPointExtension>
        </extensions>
      </trkpt>
      <trkpt lat="45.29709630645811557769775390625" lon="-71.1025253869593143463134765625">
        <ele>900.5999755859375</ele>
        <time>2026-08-21T23:55:13.000Z</time>
        <extensions>
          <ns3:TrackPointExtension>
            <ns3:hr>124</ns3:hr>
            <ns3:cad>53</ns3:cad>
          </ns3:TrackPointExtension>
        </extensions>
      </trkpt>
      <trkpt lat="45.29708323068916797637939453125" lon="-71.10254273749887943267822265625">
        <ele>900.5999755859375</ele>
        <time>2026-08-21T23:55:14.000Z</time>
        <extensions>
          <ns3:TrackPointExtension>
            <ns3:hr>125</ns3:hr>
            <ns3:cad>48</ns3:cad>
          </ns3:TrackPointExtension>
        </extensions>
      </trkpt>
      <trkpt lat="45.29706864617764949798583984375" lon="-71.1025575734674930572509765625">
        <ele>900.79998779296875</ele>
        <time>2026-08-21T23:55:15.000Z</time>
        <extensions>
          <ns3:TrackPointExtension>
            <ns3:hr>125</ns3:hr>
            <ns3:cad>48</ns3:cad>
          </ns3:TrackPointExtension>
        </extensions>
      </trkpt>
      <trkpt lat="45.29705758206546306610107421875" lon="-71.10257039777934551239013671875">
        <ele>900.79998779296875</ele>
        <time>2026-08-21T23:55:16.000Z</time>
        <extensions>
          <ns3:TrackPointExtension>
            <ns3:hr>125</ns3:hr>
            <ns3:cad>48</ns3:cad>
          </ns3:TrackPointExtension>
        </extensions>
      </trkpt>
      <trkpt lat="45.297047607600688934326171875" lon="-71.10257945023477077484130859375">
        <ele>901</ele>
        <time>2026-08-21T23:55:17.000Z</time>
        <extensions>
          <ns3:TrackPointExtension>
            <ns3:hr>126</ns3:hr>
            <ns3:cad>48</ns3:cad>
          </ns3:TrackPointExtension>
        </extensions>
      </trkpt>
      <trkpt lat="45.2970343641936779022216796875" lon="-71.10259135253727436065673828125">
        <ele>901.20001220703125</ele>
        <time>2026-08-21T23:55:18.000Z</time>
        <extensions>
          <ns3:TrackPointExtension>
            <ns3:hr>126</ns3:hr>
            <ns3:cad>48</ns3:cad>
          </ns3:TrackPointExtension>
        </extensions>
      </trkpt>
      <trkpt lat="45.29702522791922092437744140625" lon="-71.10260124318301677703857421875">
        <ele>901.4000244140625</ele>
        <time>2026-08-21T23:55:19.000Z</time>
        <extensions>
          <ns3:TrackPointExtension>
            <ns3:hr>126</ns3:hr>
            <ns3:cad>48</ns3:cad>
          </ns3:TrackPointExtension>
        </extensions>
      </trkpt>
      <trkpt lat="45.29701131395995616912841796875" lon="-71.1026149056851863861083984375">
        <ele>901.4000244140625</ele>
        <time>2026-08-21T23:55:20.000Z</time>
        <extensions>
          <ns3:TrackPointExtension>
            <ns3:hr>127</ns3:hr>
            <ns3:cad>48</ns3:cad>
          </ns3:TrackPointExtension>
        </extensions>
      </trkpt>
      <trkpt lat="45.29699924401938915252685546875" lon="-71.10262504778802394866943359375">
        <ele>901.4000244140625</ele>
        <time>2026-08-21T23:55:21.000Z</time>
        <extensions>
          <ns3:TrackPointExtension>
            <ns3:hr>127</ns3:hr>
            <ns3:cad>48</ns3:cad>
          </ns3:TrackPointExtension>
        </extensions>
      </trkpt>
      <trkpt lat="45.296985246241092681884765625" lon="-71.10263108275830745697021484375">
        <ele>901.5999755859375</ele>
        <time>2026-08-21T23:55:22.000Z</time>
        <extensions>
          <ns3:TrackPointExtension>
            <ns3:hr>128</ns3:hr>
            <ns3:cad>48</ns3:cad>
          </ns3:TrackPointExtension>
        </extensions>
      </trkpt>
      <trkpt lat="45.29697091318666934967041015625" lon="-71.10263929702341556549072265625">
        <ele>901.5999755859375</ele>
        <time>2026-08-21T23:55:23.000Z</time>
        <extensions>
          <ns3:TrackPointExtension>
            <ns3:hr>128</ns3:hr>
            <ns3:cad>48</ns3:cad>
          </ns3:TrackPointExtension>
        </extensions>
      </trkpt>
      <trkpt lat="45.29695549048483371734619140625" lon="-71.10265086404979228973388671875">
        <ele>901.5999755859375</ele>
        <time>2026-08-21T23:55:24.000Z</time>
        <extensions>
          <ns3:TrackPointExtension>
            <ns3:hr>128</ns3:hr>
            <ns3:cad>0</ns3:cad>
          </ns3:TrackPointExtension>
        </extensions>
      </trkpt>
      <trkpt lat="45.29694610275328159332275390625" lon="-71.1026564799249172210693359375">
        <ele>901.5999755859375</ele>
        <time>2026-08-21T23:55:25.000Z</time>
        <extensions>
          <ns3:TrackPointExtension>
            <ns3:hr>128</ns3:hr>
            <ns3:cad>0</ns3:cad>
          </ns3:TrackPointExtension>
        </extensions>
      </trkpt>
      <trkpt lat="45.29693285934627056121826171875" lon="-71.1026668734848499298095703125">
        <ele>901.79998779296875</ele>
        <time>2026-08-21T23:55:26.000Z</time>
        <extensions>
          <ns3:TrackPointExtension>
            <ns3:hr>128</ns3:hr>
            <ns3:cad>0</ns3:cad>
          </ns3:TrackPointExtension>
        </extensions>
      </trkpt>
      <trkpt lat="45.29692120850086212158203125" lon="-71.1026759259402751922607421875">
        <ele>901.79998779296875</ele>
        <time>2026-08-21T23:55:27.000Z</time>
        <extensions>
          <ns3:TrackPointExtension>
            <ns3:hr>128</ns3:hr>
            <ns3:cad>0</ns3:cad>
          </ns3:TrackPointExtension>
        </extensions>
      </trkpt>
      <trkpt lat="45.2969057857990264892578125" lon="-71.1026908457279205322265625">
        <ele>901.79998779296875</ele>
        <time>2026-08-21T23:55:28.000Z</time>
        <extensions>
          <ns3:TrackPointExtension>
            <ns3:hr>129</ns3:hr>
            <ns3:cad>58</ns3:cad>
          </ns3:TrackPointExtension>
        </extensions>
      </trkpt>
      <trkpt lat="45.29689379967749118804931640625" lon="-71.1027064360678195953369140625">
        <ele>901.79998779296875</ele>
        <time>2026-08-21T23:55:29.000Z</time>
        <extensions>
          <ns3:TrackPointExtension>
            <ns3:hr>129</ns3:hr>
            <ns3:cad>58</ns3:cad>
          </ns3:TrackPointExtension>
        </extensions>
      </trkpt>
      <trkpt lat="45.29688223265111446380615234375" lon="-71.10272596590220928192138671875">
        <ele>901.79998779296875</ele>
        <time>2026-08-21T23:55:30.000Z</time>
        <extensions>
          <ns3:TrackPointExtension>
            <ns3:hr>129</ns3:hr>
            <ns3:cad>58</ns3:cad>
          </ns3:TrackPointExtension>
        </extensions>
      </trkpt>
      <trkpt lat="45.29686982743442058563232421875" lon="-71.10274423845112323760986328125">
        <ele>901.79998779296875</ele>
        <time>2026-08-21T23:55:31.000Z</time>
        <extensions>
          <ns3:TrackPointExtension>
            <ns3:hr>129</ns3:hr>
            <ns3:cad>58</ns3:cad>
          </ns3:TrackPointExtension>
        </extensions>
      </trkpt>
      <trkpt lat="45.296857841312885284423828125" lon="-71.102756895124912261962890625">
        <ele>901.79998779296875</ele>
        <time>2026-08-21T23:55:32.000Z</time>
        <extensions>
          <ns3:TrackPointExtension>
            <ns3:hr>129</ns3:hr>
            <ns3:cad>58</ns3:cad>
          </ns3:TrackPointExtension>
        </extensions>
      </trkpt>
      <trkpt lat="45.2968442626297473907470703125" lon="-71.102778017520904541015625">
        <ele>901.79998779296875</ele>
        <time>2026-08-21T23:55:33.000Z</time>
        <extensions>
          <ns3:TrackPointExtension>
            <ns3:hr>130</ns3:hr>
            <ns3:cad>0</ns3:cad>
          </ns3:TrackPointExtension>
        </extensions>
      </trkpt>
      <trkpt lat="45.29682741500437259674072265625" lon="-71.10279285348951816558837890625">
        <ele>901.79998779296875</ele>
        <time>2026-08-21T23:55:34.000Z</time>
        <extensions>
          <ns3:TrackPointExtension>
            <ns3:hr>130</ns3:hr>
            <ns3:cad>0</ns3:cad>
          </ns3:TrackPointExtension>
        </extensions>
      </trkpt>
      <trkpt lat="45.2968147583305835723876953125" lon="-71.1028053425252437591552734375">
        <ele>902</ele>
        <time>2026-08-21T23:55:35.000Z</time>
        <extensions>
          <ns3:TrackPointExtension>
            <ns3:hr>130</ns3:hr>
            <ns3:cad>0</ns3:cad>
          </ns3:TrackPointExtension>
        </extensions>
      </trkpt>
      <trkpt lat="45.29680193401873111724853515625" lon="-71.10281431116163730621337890625">
        <ele>902</ele>
        <time>2026-08-21T23:55:36.000Z</time>
        <extensions>
          <ns3:TrackPointExtension>
            <ns3:hr>130</ns3:hr>
            <ns3:cad>0</ns3:cad>
          </ns3:TrackPointExtension>
        </extensions>
      </trkpt>
      <trkpt lat="45.2967916242778301239013671875" lon="-71.102826632559299468994140625">
        <ele>901.79998779296875</ele>
        <time>2026-08-21T23:55:37.000Z</time>
        <extensions>
          <ns3:TrackPointExtension>
            <ns3:hr>130</ns3:hr>
            <ns3:cad>0</ns3:cad>
          </ns3:TrackPointExtension>
        </extensions>
      </trkpt>
      <trkpt lat="45.2967798896133899688720703125" lon="-71.102842390537261962890625">
        <ele>901.79998779296875</ele>
        <time>2026-08-21T23:55:38.000Z</time>
        <extensions>
          <ns3:TrackPointExtension>
            <ns3:hr>130</ns3:hr>
            <ns3:cad>0</ns3:cad>
          </ns3:TrackPointExtension>
        </extensions>
      </trkpt>
      <trkpt lat="45.2967715077102184295654296875" lon="-71.10285286791622638702392578125">
        <ele>901.79998779296875</ele>
        <time>2026-08-21T23:55:39.000Z</time>
        <extensions>
          <ns3:TrackPointExtension>
            <ns3:hr>130</ns3:hr>
            <ns3:cad>0</ns3:cad>
          </ns3:TrackPointExtension>
        </extensions>
      </trkpt>
      <trkpt lat="45.29675985686480998992919921875" lon="-71.1028673686087131500244140625">
        <ele>901.79998779296875</ele>
        <time>2026-08-21T23:55:40.000Z</time>
        <extensions>
          <ns3:TrackPointExtension>
            <ns3:hr>130</ns3:hr>
            <ns3:cad>0</ns3:cad>
          </ns3:TrackPointExtension>
        </extensions>
      </trkpt>
      <trkpt lat="45.296740829944610595703125" lon="-71.1028866469860076904296875">
        <ele>901.79998779296875</ele>
        <time>2026-08-21T23:55:41.000Z</time>
        <extensions>
          <ns3:TrackPointExtension>
            <ns3:hr>130</ns3:hr>
            <ns3:cad>56</ns3:cad>
          </ns3:TrackPointExtension>
        </extensions>
      </trkpt>
      <trkpt lat="45.29672884382307529449462890625" lon="-71.10290684737265110015869140625">
        <ele>901.79998779296875</ele>
        <time>2026-08-21T23:55:42.000Z</time>
        <extensions>
          <ns3:TrackPointExtension>
            <ns3:hr>130</ns3:hr>
            <ns3:cad>56</ns3:cad>
          </ns3:TrackPointExtension>
        </extensions>
      </trkpt>
      <trkpt lat="45.29672264121472835540771484375" lon="-71.10292218625545501708984375">
        <ele>901.5999755859375</ele>
        <time>2026-08-21T23:55:43.000Z</time>
        <extensions>
          <ns3:TrackPointExtension>
            <ns3:hr>130</ns3:hr>
            <ns3:cad>56</ns3:cad>
          </ns3:TrackPointExtension>
        </extensions>
      </trkpt>
      <trkpt lat="45.2967098169028759002685546875" lon="-71.10293718986213207244873046875">
        <ele>901.5999755859375</ele>
        <time>2026-08-21T23:55:44.000Z</time>
        <extensions>
          <ns3:TrackPointExtension>
            <ns3:hr>130</ns3:hr>
            <ns3:cad>56</ns3:cad>
          </ns3:TrackPointExtension>
        </extensions>
      </trkpt>
      <trkpt lat="45.29670001007616519927978515625" lon="-71.1029381118714809417724609375">
        <ele>901.5999755859375</ele>
        <time>2026-08-21T23:55:45.000Z</time>
        <extensions>
          <ns3:TrackPointExtension>
            <ns3:hr>130</ns3:hr>
            <ns3:cad>56</ns3:cad>
          </ns3:TrackPointExtension>
        </extensions>
      </trkpt>
      <trkpt lat="45.296687521040439605712890625" lon="-71.10295261256396770477294921875">
        <ele>901.5999755859375</ele>
        <time>2026-08-21T23:55:46.000Z</time>
        <extensions>
          <ns3:TrackPointExtension>
            <ns3:hr>129</ns3:hr>
            <ns3:cad>56</ns3:cad>
          </ns3:TrackPointExtension>
        </extensions>
      </trkpt>
      <trkpt lat="45.296676456928253173828125" lon="-71.10296954400837421417236328125">
        <ele>901.79998779296875</ele>
        <time>2026-08-21T23:55:47.000Z</time>
        <extensions>
          <ns3:TrackPointExtension>
            <ns3:hr>130</ns3:hr>
            <ns3:cad>56</ns3:cad>
          </ns3:TrackPointExtension>
        </extensions>
      </trkpt>
      <trkpt lat="45.29666681773960590362548828125" lon="-71.10298127867281436920166015625">
        <ele>901.79998779296875</ele>
        <time>2026-08-21T23:55:48.000Z</time>
        <extensions>
          <ns3:TrackPointExtension>
            <ns3:hr>130</ns3:hr>
            <ns3:cad>56</ns3:cad>
          </ns3:TrackPointExtension>
        </extensions>
      </trkpt>
      <trkpt lat="45.29665458016097545623779296875" lon="-71.1029924266040325164794921875">
        <ele>901.79998779296875</ele>
        <time>2026-08-21T23:55:49.000Z</time>
        <extensions>
          <ns3:TrackPointExtension>
            <ns3:hr>130</ns3:hr>
            <ns3:cad>58</ns3:cad>
          </ns3:TrackPointExtension>
        </extensions>
      </trkpt>
      <trkpt lat="45.29664636589586734771728515625" lon="-71.10300810076296329498291015625">
        <ele>902</ele>
        <time>2026-08-21T23:55:50.000Z</time>
        <extensions>
          <ns3:TrackPointExtension>
            <ns3:hr>130</ns3:hr>
            <ns3:cad>58</ns3:cad>
          </ns3:TrackPointExtension>
        </extensions>
      </trkpt>
      <trkpt lat="45.29663966037333011627197265625" lon="-71.1030266247689723968505859375">
        <ele>902</ele>
        <time>2026-08-21T23:55:51.000Z</time>
        <extensions>
          <ns3:TrackPointExtension>
            <ns3:hr>130</ns3:hr>
            <ns3:cad>58</ns3:cad>
          </ns3:TrackPointExtension>
        </extensions>
      </trkpt>
      <trkpt lat="45.2966296859085559844970703125" lon="-71.10304481349885463714599609375">
        <ele>902</ele>
        <time>2026-08-21T23:55:52.000Z</time>
        <extensions>
          <ns3:TrackPointExtension>
            <ns3:hr>130</ns3:hr>
            <ns3:cad>0</ns3:cad>
          </ns3:TrackPointExtension>
        </extensions>
      </trkpt>
      <trkpt lat="45.29662122018635272979736328125" lon="-71.103054620325565338134765625">
        <ele>902</ele>
        <time>2026-08-21T23:55:53.000Z</time>
        <extensions>
          <ns3:TrackPointExtension>
            <ns3:hr>130</ns3:hr>
            <ns3:cad>0</ns3:cad>
          </ns3:TrackPointExtension>
        </extensions>
      </trkpt>
      <trkpt lat="45.29661476612091064453125" lon="-71.10307104885578155517578125">
        <ele>902.20001220703125</ele>
        <time>2026-08-21T23:55:54.000Z</time>
        <extensions>
          <ns3:TrackPointExtension>
            <ns3:hr>130</ns3:hr>
            <ns3:cad>0</ns3:cad>
          </ns3:TrackPointExtension>
        </extensions>
      </trkpt>
      <trkpt lat="45.29660747386515140533447265625" lon="-71.1030889861285686492919921875">
        <ele>902.20001220703125</ele>
        <time>2026-08-21T23:55:55.000Z</time>
        <extensions>
          <ns3:TrackPointExtension>
            <ns3:hr>130</ns3:hr>
            <ns3:cad>0</ns3:cad>
          </ns3:TrackPointExtension>
        </extensions>
      </trkpt>
      <trkpt lat="45.29659942723810672760009765625" lon="-71.10310130752623081207275390625">
        <ele>902.4000244140625</ele>
        <time>2026-08-21T23:55:56.000Z</time>
        <extensions>
          <ns3:TrackPointExtension>
            <ns3:hr>129</ns3:hr>
            <ns3:cad>0</ns3:cad>
          </ns3:TrackPointExtension>
        </extensions>
      </trkpt>
      <trkpt lat="45.2965907938778400421142578125" lon="-71.10311170108616352081298828125">
        <ele>902.4000244140625</ele>
        <time>2026-08-21T23:55:57.000Z</time>
        <extensions>
          <ns3:TrackPointExtension>
            <ns3:hr>130</ns3:hr>
            <ns3:cad>0</ns3:cad>
          </ns3:TrackPointExtension>
        </extensions>
      </trkpt>
      <trkpt lat="45.2965804003179073333740234375" lon="-71.10312611795961856842041015625">
        <ele>902.5999755859375</ele>
        <time>2026-08-21T23:55:58.000Z</time>
        <extensions>
          <ns3:TrackPointExtension>
            <ns3:hr>130</ns3:hr>
            <ns3:cad>0</ns3:cad>
          </ns3:TrackPointExtension>
        </extensions>
      </trkpt>
      <trkpt lat="45.296569168567657470703125" lon="-71.10314212739467620849609375">
        <ele>902.5999755859375</ele>
        <time>2026-08-21T23:55:59.000Z</time>
        <extensions>
          <ns3:TrackPointExtension>
            <ns3:hr>130</ns3:hr>
            <ns3:cad>0</ns3:cad>
          </ns3:TrackPointExtension>
        </extensions>
      </trkpt>
      <trkpt lat="45.296558775007724761962890625" lon="-71.10315277241170406341552734375">
        <ele>902.4000244140625</ele>
        <time>2026-08-21T23:56:00.000Z</time>
        <extensions>
          <ns3:TrackPointExtension>
            <ns3:hr>129</ns3:hr>
            <ns3:cad>0</ns3:cad>
          </ns3:TrackPointExtension>
        </extensions>
      </trkpt>
      <trkpt lat="45.2965448610484600067138671875" lon="-71.10317230224609375">
        <ele>902.4000244140625</ele>
        <time>2026-08-21T23:56:01.000Z</time>
        <extensions>
          <ns3:TrackPointExtension>
            <ns3:hr>130</ns3:hr>
            <ns3:cad>56</ns3:cad>
          </ns3:TrackPointExtension>
        </extensions>
      </trkpt>
      <trkpt lat="45.29653388075530529022216796875" lon="-71.1031862162053585052490234375">
        <ele>902.4000244140625</ele>
        <time>2026-08-21T23:56:02.000Z</time>
        <extensions>
          <ns3:TrackPointExtension>
            <ns3:hr>130</ns3:hr>
            <ns3:cad>56</ns3:cad>
          </ns3:TrackPointExtension>
        </extensions>
      </trkpt>
      <trkpt lat="45.296517871320247650146484375" lon="-71.10320373438298702239990234375">
        <ele>902.4000244140625</ele>
        <time>2026-08-21T23:56:03.000Z</time>
        <extensions>
          <ns3:TrackPointExtension>
            <ns3:hr>130</ns3:hr>
            <ns3:cad>56</ns3:cad>
          </ns3:TrackPointExtension>
        </extensions>
      </trkpt>
      <trkpt lat="45.29650186188519001007080078125" lon="-71.103222928941249847412109375">
        <ele>902.20001220703125</ele>
        <time>2026-08-21T23:56:04.000Z</time>
        <extensions>
          <ns3:TrackPointExtension>
            <ns3:hr>130</ns3:hr>
            <ns3:cad>56</ns3:cad>
          </ns3:TrackPointExtension>
        </extensions>
      </trkpt>
      <trkpt lat="45.29649297706782817840576171875" lon="-71.10323793254792690277099609375">
        <ele>902.20001220703125</ele>
        <time>2026-08-21T23:56:05.000Z</time>
        <extensions>
          <ns3:TrackPointExtension>
            <ns3:hr>130</ns3:hr>
            <ns3:cad>56</ns3:cad>
          </ns3:TrackPointExtension>
        </extensions>
      </trkpt>
      <trkpt lat="45.29647654853761196136474609375" lon="-71.10324539244174957275390625">
        <ele>902.20001220703125</ele>
        <time>2026-08-21T23:56:06.000Z</time>
        <extensions>
          <ns3:TrackPointExtension>
            <ns3:hr>129</ns3:hr>
            <ns3:cad>77</ns3:cad>
          </ns3:TrackPointExtension>
        </extensions>
      </trkpt>
      <trkpt lat="45.29646598733961582183837890625" lon="-71.103264503180980682373046875">
        <ele>902.4000244140625</ele>
        <time>2026-08-21T23:56:07.000Z</time>
        <extensions>
          <ns3:TrackPointExtension>
            <ns3:hr>130</ns3:hr>
            <ns3:cad>77</ns3:cad>
          </ns3:TrackPointExtension>
        </extensions>
      </trkpt>
      <trkpt lat="45.2964540012180805206298828125" lon="-71.10327866859734058380126953125">
        <ele>902.4000244140625</ele>
        <time>2026-08-21T23:56:08.000Z</time>
        <extensions>
          <ns3:TrackPointExtension>
            <ns3:hr>130</ns3:hr>
            <ns3:cad>77</ns3:cad>
          </ns3:TrackPointExtension>
        </extensions>
      </trkpt>
      <trkpt lat="45.296443440020084381103515625" lon="-71.10329140909016132354736328125">
        <ele>902.5999755859375</ele>
        <time>2026-08-21T23:56:09.000Z</time>
        <extensions>
          <ns3:TrackPointExtension>
            <ns3:hr>129</ns3:hr>
            <ns3:cad>77</ns3:cad>
          </ns3:TrackPointExtension>
        </extensions>
      </trkpt>
      <trkpt lat="45.2964322082698345184326171875" lon="-71.10330280847847461700439453125">
        <ele>902.79998779296875</ele>
        <time>2026-08-21T23:56:10.000Z</time>
        <extensions>
          <ns3:TrackPointExtension>
            <ns3:hr>130</ns3:hr>
            <ns3:cad>77</ns3:cad>
          </ns3:TrackPointExtension>
        </extensions>
      </trkpt>
      <trkpt lat="45.2964204736053943634033203125" lon="-71.1033213324844837188720703125">
        <ele>902.79998779296875</ele>
        <time>2026-08-21T23:56:11.000Z</time>
        <extensions>
          <ns3:TrackPointExtension>
            <ns3:hr>130</ns3:hr>
            <ns3:cad>0</ns3:cad>
          </ns3:TrackPointExtension>
        </extensions>
      </trkpt>
      <trkpt lat="45.2964057214558124542236328125" lon="-71.10334463417530059814453125">
        <ele>902.79998779296875</ele>
        <time>2026-08-21T23:56:12.000Z</time>
        <extensions>
          <ns3:TrackPointExtension>
            <ns3:hr>130</ns3:hr>
            <ns3:cad>0</ns3:cad>
          </ns3:TrackPointExtension>
        </extensions>
      </trkpt>
      <trkpt lat="45.2963990159332752227783203125" lon="-71.103357374668121337890625">
        <ele>903</ele>
        <time>2026-08-21T23:56:13.000Z</time>
        <extensions>
          <ns3:TrackPointExtension>
            <ns3:hr>130</ns3:hr>
            <ns3:cad>0</ns3:cad>
          </ns3:TrackPointExtension>
        </extensions>
      </trkpt>
      <trkpt lat="45.29638971202075481414794921875" lon="-71.1033743061125278472900390625">
        <ele>903.20001220703125</ele>
        <time>2026-08-21T23:56:14.000Z</time>
        <extensions>
          <ns3:TrackPointExtension>
            <ns3:hr>130</ns3:hr>
            <ns3:cad>0</ns3:cad>
          </ns3:TrackPointExtension>
        </extensions>
      </trkpt>
      <trkpt lat="45.2963745407760143280029296875" lon="-71.10338964499533176422119140625">
        <ele>903.4000244140625</ele>
        <time>2026-08-21T23:56:15.000Z</time>
        <extensions>
          <ns3:TrackPointExtension>
            <ns3:hr>130</ns3:hr>
            <ns3:cad>0</ns3:cad>
          </ns3:TrackPointExtension>
        </extensions>
      </trkpt>
      <trkpt lat="45.2963685058057308197021484375" lon="-71.103401295840740203857421875">
        <ele>903.79998779296875</ele>
        <time>2026-08-21T23:56:16.000Z</time>
        <extensions>
          <ns3:TrackPointExtension>
            <ns3:hr>131</ns3:hr>
            <ns3:cad>0</ns3:cad>
          </ns3:TrackPointExtension>
        </extensions>
      </trkpt>
      <trkpt lat="45.29636171646416187286376953125" lon="-71.10341043211519718170166015625">
        <ele>904</ele>
        <time>2026-08-21T23:56:17.000Z</time>
        <extensions>
          <ns3:TrackPointExtension>
            <ns3:hr>131</ns3:hr>
            <ns3:cad>0</ns3:cad>
          </ns3:TrackPointExtension>
        </extensions>
      </trkpt>
      <trkpt lat="45.296357609331607818603515625" lon="-71.10342065803706645965576171875">
        <ele>904</ele>
        <time>2026-08-21T23:56:18.000Z</time>
        <extensions>
          <ns3:TrackPointExtension>
            <ns3:hr>132</ns3:hr>
            <ns3:cad>0</ns3:cad>
          </ns3:TrackPointExtension>
        </extensions>
      </trkpt>
      <trkpt lat="45.29634646140038967132568359375" lon="-71.1034245975315570831298828125">
        <ele>904</ele>
        <time>2026-08-21T23:56:19.000Z</time>
        <extensions>
          <ns3:TrackPointExtension>
            <ns3:hr>133</ns3:hr>
            <ns3:cad>0</ns3:cad>
          </ns3:TrackPointExtension>
        </extensions>
      </trkpt>
      <trkpt lat="45.2963291108608245849609375" lon="-71.10343960113823413848876953125">
        <ele>904</ele>
        <time>2026-08-21T23:56:20.000Z</time>
        <extensions>
          <ns3:TrackPointExtension>
            <ns3:hr>133</ns3:hr>
            <ns3:cad>0</ns3:cad>
          </ns3:TrackPointExtension>
        </extensions>
      </trkpt>
      <trkpt lat="45.2963138557970523834228515625" lon="-71.10346072353422641754150390625">
        <ele>903.79998779296875</ele>
        <time>2026-08-21T23:56:21.000Z</time>
        <extensions>
          <ns3:TrackPointExtension>
            <ns3:hr>134</ns3:hr>
            <ns3:cad>0</ns3:cad>
          </ns3:TrackPointExtension>
        </extensions>
      </trkpt>
      <trkpt lat="45.29630270786583423614501953125" lon="-71.1034794151782989501953125">
        <ele>903.5999755859375</ele>
        <time>2026-08-21T23:56:22.000Z</time>
        <extensions>
          <ns3:TrackPointExtension>
            <ns3:hr>134</ns3:hr>
            <ns3:cad>0</ns3:cad>
          </ns3:TrackPointExtension>
        </extensions>
      </trkpt>
      <trkpt lat="45.2962913922965526580810546875" lon="-71.10349056310951709747314453125">
        <ele>903.4000244140625</ele>
        <time>2026-08-21T23:56:23.000Z</time>
        <extensions>
          <ns3:TrackPointExtension>
            <ns3:hr>135</ns3:hr>
            <ns3:cad>0</ns3:cad>
          </ns3:TrackPointExtension>
        </extensions>
      </trkpt>
      <trkpt lat="45.2962749637663364410400390625" lon="-71.10349877737462520599365234375">
        <ele>903.20001220703125</ele>
        <time>2026-08-21T23:56:24.000Z</time>
        <extensions>
          <ns3:TrackPointExtension>
            <ns3:hr>135</ns3:hr>
            <ns3:cad>0</ns3:cad>
          </ns3:TrackPointExtension>
        </extensions>
      </trkpt>
      <trkpt lat="45.29626482166349887847900390625" lon="-71.1035127751529216766357421875">
        <ele>903.4000244140625</ele>
        <time>2026-08-21T23:56:25.000Z</time>
        <extensions>
          <ns3:TrackPointExtension>
            <ns3:hr>136</ns3:hr>
            <ns3:cad>0</ns3:cad>
          </ns3:TrackPointExtension>
        </extensions>
      </trkpt>
      <trkpt lat="45.29624839313328266143798828125" lon="-71.1035372503101825714111328125">
        <ele>903.4000244140625</ele>
        <time>2026-08-21T23:56:26.000Z</time>
        <extensions>
          <ns3:TrackPointExtension>
            <ns3:hr>136</ns3:hr>
            <ns3:cad>0</ns3:cad>
          </ns3:TrackPointExtension>
        </extensions>
      </trkpt>
      <trkpt lat="45.2962400950491428375244140625" lon="-71.10354722477495670318603515625">
        <ele>903.4000244140625</ele>
        <time>2026-08-21T23:56:27.000Z</time>
        <extensions>
          <ns3:TrackPointExtension>
            <ns3:hr>136</ns3:hr>
            <ns3:cad>0</ns3:cad>
          </ns3:TrackPointExtension>
        </extensions>
      </trkpt>
      <trkpt lat="45.29622760601341724395751953125" lon="-71.10356901772320270538330078125">
        <ele>903.5999755859375</ele>
        <time>2026-08-21T23:56:28.000Z</time>
        <extensions>
          <ns3:TrackPointExtension>
            <ns3:hr>136</ns3:hr>
            <ns3:cad>0</ns3:cad>
          </ns3:TrackPointExtension>
        </extensions>
      </trkpt>
      <trkpt lat="45.2962164580821990966796875" lon="-71.10358561389148235321044921875">
        <ele>903.5999755859375</ele>
        <time>2026-08-21T23:56:29.000Z</time>
        <extensions>
          <ns3:TrackPointExtension>
            <ns3:hr>134</ns3:hr>
            <ns3:cad>0</ns3:cad>
          </ns3:TrackPointExtension>
        </extensions>
      </trkpt>
      <trkpt lat="45.29620505869388580322265625" lon="-71.1036073230206966400146484375">
        <ele>903.5999755859375</ele>
        <time>2026-08-21T23:56:30.000Z</time>
        <extensions>
          <ns3:TrackPointExtension>
            <ns3:hr>133</ns3:hr>
            <ns3:cad>0</ns3:cad>
          </ns3:TrackPointExtension>
        </extensions>
      </trkpt>
      <trkpt lat="45.29619391076266765594482421875" lon="-71.10363028943538665771484375">
        <ele>903.5999755859375</ele>
        <time>2026-08-21T23:56:31.000Z</time>
        <extensions>
          <ns3:TrackPointExtension>
            <ns3:hr>133</ns3:hr>
            <ns3:cad>0</ns3:cad>
          </ns3:TrackPointExtension>
        </extensions>
      </trkpt>
      <trkpt lat="45.2961834333837032318115234375" lon="-71.10364981926977634429931640625">
        <ele>903.5999755859375</ele>
        <time>2026-08-21T23:56:32.000Z</time>
        <extensions>
          <ns3:TrackPointExtension>
            <ns3:hr>132</ns3:hr>
            <ns3:cad>0</ns3:cad>
          </ns3:TrackPointExtension>
        </extensions>
      </trkpt>
      <trkpt lat="45.29617094434797763824462890625" lon="-71.1036636494100093841552734375">
        <ele>903.5999755859375</ele>
        <time>2026-08-21T23:56:33.000Z</time>
        <extensions>
          <ns3:TrackPointExtension>
            <ns3:hr>132</ns3:hr>
            <ns3:cad>0</ns3:cad>
          </ns3:TrackPointExtension>
        </extensions>
      </trkpt>
      <trkpt lat="45.296161137521266937255859375" lon="-71.10368804074823856353759765625">
        <ele>903.5999755859375</ele>
        <time>2026-08-21T23:56:34.000Z</time>
        <extensions>
          <ns3:TrackPointExtension>
            <ns3:hr>132</ns3:hr>
            <ns3:cad>0</ns3:cad>
          </ns3:TrackPointExtension>
        </extensions>
      </trkpt>
      <trkpt lat="45.29614814557135105133056640625" lon="-71.103716790676116943359375">
        <ele>903.5999755859375</ele>
        <time>2026-08-21T23:56:35.000Z</time>
        <extensions>
          <ns3:TrackPointExtension>
            <ns3:hr>132</ns3:hr>
            <ns3:cad>0</ns3:cad>
          </ns3:TrackPointExtension>
        </extensions>
      </trkpt>
      <trkpt lat="45.29613942839205265045166015625" lon="-71.10373548232018947601318359375">
        <ele>903.5999755859375</ele>
        <time>2026-08-21T23:56:36.000Z</time>
        <extensions>
          <ns3:TrackPointExtension>
            <ns3:hr>132</ns3:hr>
            <ns3:cad>0</ns3:cad>
          </ns3:TrackPointExtension>
        </extensions>
      </trkpt>
      <trkpt lat="45.29612467624247074127197265625" lon="-71.103750653564929962158203125">
        <ele>903.5999755859375</ele>
        <time>2026-08-21T23:56:37.000Z</time>
        <extensions>
          <ns3:TrackPointExtension>
            <ns3:hr>132</ns3:hr>
            <ns3:cad>0</ns3:cad>
          </ns3:TrackPointExtension>
        </extensions>
      </trkpt>
      <trkpt lat="45.296105481684207916259765625" lon="-71.10376817174255847930908203125">
        <ele>903.5999755859375</ele>
        <time>2026-08-21T23:56:38.000Z</time>
        <extensions>
          <ns3:TrackPointExtension>
            <ns3:hr>132</ns3:hr>
            <ns3:cad>0</ns3:cad>
          </ns3:TrackPointExtension>
        </extensions>
      </trkpt>
      <trkpt lat="45.296098105609416961669921875" lon="-71.10378510318696498870849609375">
        <ele>903.4000244140625</ele>
        <time>2026-08-21T23:56:39.000Z</time>
        <extensions>
          <ns3:TrackPointExtension>
            <ns3:hr>132</ns3:hr>
            <ns3:cad>73</ns3:cad>
          </ns3:TrackPointExtension>
        </extensions>
      </trkpt>
      <trkpt lat="45.2960939146578311920166015625" lon="-71.1037987656891345977783203125">
        <ele>903.4000244140625</ele>
        <time>2026-08-21T23:56:40.000Z</time>
        <extensions>
          <ns3:TrackPointExtension>
            <ns3:hr>132</ns3:hr>
            <ns3:cad>73</ns3:cad>
          </ns3:TrackPointExtension>
        </extensions>
      </trkpt>
      <trkpt lat="45.296092741191387176513671875" lon="-71.10380890779197216033935546875">
        <ele>903.4000244140625</ele>
        <time>2026-08-21T23:56:41.000Z</time>
        <extensions>
          <ns3:TrackPointExtension>
            <ns3:hr>132</ns3:hr>
            <ns3:cad>73</ns3:cad>
          </ns3:TrackPointExtension>
        </extensions>
      </trkpt>
      <trkpt lat="45.296084024012088775634765625" lon="-71.103814356029033660888671875">
        <ele>903.4000244140625</ele>
        <time>2026-08-21T23:56:42.000Z</time>
        <extensions>
          <ns3:TrackPointExtension>
            <ns3:hr>132</ns3:hr>
            <ns3:cad>73</ns3:cad>
          </ns3:TrackPointExtension>
        </extensions>
      </trkpt>
      <trkpt lat="45.29607363045215606689453125" lon="-71.103827096521854400634765625">
        <ele>903.4000244140625</ele>
        <time>2026-08-21T23:56:43.000Z</time>
        <extensions>
          <ns3:TrackPointExtension>
            <ns3:hr>132</ns3:hr>
            <ns3:cad>73</ns3:cad>
          </ns3:TrackPointExtension>
        </extensions>
      </trkpt>
      <trkpt lat="45.29606080614030361175537109375" lon="-71.103838495910167694091796875">
        <ele>903.4000244140625</ele>
        <time>2026-08-21T23:56:44.000Z</time>
        <extensions>
          <ns3:TrackPointExtension>
            <ns3:hr>132</ns3:hr>
            <ns3:cad>73</ns3:cad>
          </ns3:TrackPointExtension>
        </extensions>
      </trkpt>
      <trkpt lat="45.2960489876568317413330078125" lon="-71.10385182313621044158935546875">
        <ele>903.4000244140625</ele>
        <time>2026-08-21T23:56:45.000Z</time>
        <extensions>
          <ns3:TrackPointExtension>
            <ns3:hr>132</ns3:hr>
            <ns3:cad>73</ns3:cad>
          </ns3:TrackPointExtension>
        </extensions>
      </trkpt>
      <trkpt lat="45.2960395999252796173095703125" lon="-71.10386473126709461212158203125">
        <ele>903.4000244140625</ele>
        <time>2026-08-21T23:56:46.000Z</time>
        <extensions>
          <ns3:TrackPointExtension>
            <ns3:hr>131</ns3:hr>
            <ns3:cad>73</ns3:cad>
          </ns3:TrackPointExtension>
        </extensions>
      </trkpt>
      <trkpt lat="45.2960305474698543548583984375" lon="-71.10387730412185192108154296875">
        <ele>903.5999755859375</ele>
        <time>2026-08-21T23:56:47.000Z</time>
        <extensions>
          <ns3:TrackPointExtension>
            <ns3:hr>131</ns3:hr>
            <ns3:cad>73</ns3:cad>
          </ns3:TrackPointExtension>
        </extensions>
      </trkpt>
      <trkpt lat="45.2960204891860485076904296875" lon="-71.10388618893921375274658203125">
        <ele>903.5999755859375</ele>
        <time>2026-08-21T23:56:48.000Z</time>
        <extensions>
          <ns3:TrackPointExtension>
            <ns3:hr>131</ns3:hr>
            <ns3:cad>73</ns3:cad>
          </ns3:TrackPointExtension>
        </extensions>
      </trkpt>
      <trkpt lat="45.2960124425590038299560546875" lon="-71.103899180889129638671875">
        <ele>903.79998779296875</ele>
        <time>2026-08-21T23:56:49.000Z</time>
        <extensions>
          <ns3:TrackPointExtension>
            <ns3:hr>130</ns3:hr>
            <ns3:cad>56</ns3:cad>
          </ns3:TrackPointExtension>
        </extensions>
      </trkpt>
      <trkpt lat="45.2960057370364665985107421875" lon="-71.10391787253320217132568359375">
        <ele>904</ele>
        <time>2026-08-21T23:56:50.000Z</time>
        <extensions>
          <ns3:TrackPointExtension>
            <ns3:hr>130</ns3:hr>
            <ns3:cad>56</ns3:cad>
          </ns3:TrackPointExtension>
        </extensions>
      </trkpt>
      <trkpt lat="45.29599928297102451324462890625" lon="-71.1039285175502300262451171875">
        <ele>904</ele>
        <time>2026-08-21T23:56:51.000Z</time>
        <extensions>
          <ns3:TrackPointExtension>
            <ns3:hr>130</ns3:hr>
            <ns3:cad>56</ns3:cad>
          </ns3:TrackPointExtension>
        </extensions>
      </trkpt>
      <trkpt lat="45.2959862910211086273193359375" lon="-71.1039488017559051513671875">
        <ele>904.20001220703125</ele>
        <time>2026-08-21T23:56:52.000Z</time>
        <extensions>
          <ns3:TrackPointExtension>
            <ns3:hr>130</ns3:hr>
            <ns3:cad>56</ns3:cad>
          </ns3:TrackPointExtension>
        </extensions>
      </trkpt>
      <trkpt lat="45.29597765766084194183349609375" lon="-71.10395324416458606719970703125">
        <ele>904.20001220703125</ele>
        <time>2026-08-21T23:56:53.000Z</time>
        <extensions>
          <ns3:TrackPointExtension>
            <ns3:hr>131</ns3:hr>
            <ns3:cad>52</ns3:cad>
          </ns3:TrackPointExtension>
        </extensions>
      </trkpt>
      <trkpt lat="45.29597044922411441802978515625" lon="-71.10396464355289936065673828125">
        <ele>904.20001220703125</ele>
        <time>2026-08-21T23:56:54.000Z</time>
        <extensions>
          <ns3:TrackPointExtension>
            <ns3:hr>130</ns3:hr>
            <ns3:cad>53</ns3:cad>
          </ns3:TrackPointExtension>
        </extensions>
      </trkpt>
      <trkpt lat="45.29595921747386455535888671875" lon="-71.10397989861667156219482421875">
        <ele>904.4000244140625</ele>
        <time>2026-08-21T23:56:55.000Z</time>
        <extensions>
          <ns3:TrackPointExtension>
            <ns3:hr>130</ns3:hr>
            <ns3:cad>53</ns3:cad>
          </ns3:TrackPointExtension>
        </extensions>
      </trkpt>
      <trkpt lat="45.29595083557069301605224609375" lon="-71.10398576594889163970947265625">
        <ele>904.4000244140625</ele>
        <time>2026-08-21T23:56:56.000Z</time>
        <extensions>
          <ns3:TrackPointExtension>
            <ns3:hr>130</ns3:hr>
            <ns3:cad>55</ns3:cad>
          </ns3:TrackPointExtension>
        </extensions>
      </trkpt>
      <trkpt lat="45.29593884944915771484375" lon="-71.103998087346553802490234375">
        <ele>904.4000244140625</ele>
        <time>2026-08-21T23:56:57.000Z</time>
        <extensions>
          <ns3:TrackPointExtension>
            <ns3:hr>130</ns3:hr>
            <ns3:cad>55</ns3:cad>
          </ns3:TrackPointExtension>
        </extensions>
      </trkpt>
      <trkpt lat="45.29593474231660366058349609375" lon="-71.104011498391628265380859375">
        <ele>904.5999755859375</ele>
        <time>2026-08-21T23:56:58.000Z</time>
        <extensions>
          <ns3:TrackPointExtension>
            <ns3:hr>129</ns3:hr>
            <ns3:cad>55</ns3:cad>
          </ns3:TrackPointExtension>
        </extensions>
      </trkpt>
      <trkpt lat="45.2959302999079227447509765625" lon="-71.104027591645717620849609375">
        <ele>904.5999755859375</ele>
        <time>2026-08-21T23:56:59.000Z</time>
        <extensions>
          <ns3:TrackPointExtension>
            <ns3:hr>130</ns3:hr>
            <ns3:cad>55</ns3:cad>
          </ns3:TrackPointExtension>
        </extensions>
      </trkpt>
      <trkpt lat="45.2959272824227809906005859375" lon="-71.1040388233959674835205078125">
        <ele>904.79998779296875</ele>
        <time>2026-08-21T23:57:00.000Z</time>
        <extensions>
          <ns3:TrackPointExtension>
            <ns3:hr>130</ns3:hr>
            <ns3:cad>55</ns3:cad>
          </ns3:TrackPointExtension>
        </extensions>
      </trkpt>
      <trkpt lat="45.2959246002137660980224609375" lon="-71.10405567102134227752685546875">
        <ele>905</ele>
        <time>2026-08-21T23:57:01.000Z</time>
        <extensions>
          <ns3:TrackPointExtension>
            <ns3:hr>130</ns3:hr>
            <ns3:cad>55</ns3:cad>
          </ns3:TrackPointExtension>
        </extensions>
      </trkpt>
      <trkpt lat="45.295919738709926605224609375" lon="-71.10406790859997272491455078125">
        <ele>905</ele>
        <time>2026-08-21T23:57:02.000Z</time>
        <extensions>
          <ns3:TrackPointExtension>
            <ns3:hr>129</ns3:hr>
            <ns3:cad>55</ns3:cad>
          </ns3:TrackPointExtension>
        </extensions>
      </trkpt>
      <trkpt lat="45.2959095127880573272705078125" lon="-71.10407830215990543365478515625">
        <ele>905.20001220703125</ele>
        <time>2026-08-21T23:57:03.000Z</time>
        <extensions>
          <ns3:TrackPointExtension>
            <ns3:hr>130</ns3:hr>
            <ns3:cad>0</ns3:cad>
          </ns3:TrackPointExtension>
        </extensions>
      </trkpt>
      <trkpt lat="45.2958954311907291412353515625" lon="-71.1040921323001384735107421875">
        <ele>905.4000244140625</ele>
        <time>2026-08-21T23:57:04.000Z</time>
        <extensions>
          <ns3:TrackPointExtension>
            <ns3:hr>130</ns3:hr>
            <ns3:cad>0</ns3:cad>
          </ns3:TrackPointExtension>
        </extensions>
      </trkpt>
      <trkpt lat="45.2958905696868896484375" lon="-71.1040998436510562896728515625">
        <ele>905.4000244140625</ele>
        <time>2026-08-21T23:57:05.000Z</time>
        <extensions>
          <ns3:TrackPointExtension>
            <ns3:hr>129</ns3:hr>
            <ns3:cad>0</ns3:cad>
          </ns3:TrackPointExtension>
        </extensions>
      </trkpt>
      <trkpt lat="45.29588260687887668609619140625" lon="-71.1041124165058135986328125">
        <ele>905.5999755859375</ele>
        <time>2026-08-21T23:57:06.000Z</time>
        <extensions>
          <ns3:TrackPointExtension>
            <ns3:hr>130</ns3:hr>
            <ns3:cad>0</ns3:cad>
          </ns3:TrackPointExtension>
        </extensions>
      </trkpt>
      <trkpt lat="45.29587187804281711578369140625" lon="-71.1041253246366977691650390625">
        <ele>905.5999755859375</ele>
        <time>2026-08-21T23:57:07.000Z</time>
        <extensions>
          <ns3:TrackPointExtension>
            <ns3:hr>130</ns3:hr>
            <ns3:cad>0</ns3:cad>
          </ns3:TrackPointExtension>
        </extensions>
      </trkpt>
      <trkpt lat="45.29586047865450382232666015625" lon="-71.1041380651295185089111328125">
        <ele>905.79998779296875</ele>
        <time>2026-08-21T23:57:08.000Z</time>
        <extensions>
          <ns3:TrackPointExtension>
            <ns3:hr>129</ns3:hr>
            <ns3:cad>0</ns3:cad>
          </ns3:TrackPointExtension>
        </extensions>
      </trkpt>
      <trkpt lat="45.29585377313196659088134765625" lon="-71.1041447706520557403564453125">
        <ele>905.79998779296875</ele>
        <time>2026-08-21T23:57:09.000Z</time>
        <extensions>
          <ns3:TrackPointExtension>
            <ns3:hr>130</ns3:hr>
            <ns3:cad>0</ns3:cad>
          </ns3:TrackPointExtension>
        </extensions>
      </trkpt>
      <trkpt lat="45.29584120027720928192138671875" lon="-71.10415491275489330291748046875">
        <ele>906</ele>
        <time>2026-08-21T23:57:10.000Z</time>
        <extensions>
          <ns3:TrackPointExtension>
            <ns3:hr>130</ns3:hr>
            <ns3:cad>0</ns3:cad>
          </ns3:TrackPointExtension>
        </extensions>
      </trkpt>
      <trkpt lat="45.2958340756595134735107421875" lon="-71.10416145063936710357666015625">
        <ele>906</ele>
        <time>2026-08-21T23:57:11.000Z</time>
        <extensions>
          <ns3:TrackPointExtension>
            <ns3:hr>130</ns3:hr>
            <ns3:cad>0</ns3:cad>
          </ns3:TrackPointExtension>
        </extensions>
      </trkpt>
      <trkpt lat="45.295823849737644195556640625" lon="-71.1041729338467121124267578125">
        <ele>906.20001220703125</ele>
        <time>2026-08-21T23:57:12.000Z</time>
        <extensions>
          <ns3:TrackPointExtension>
            <ns3:hr>130</ns3:hr>
            <ns3:cad>0</ns3:cad>
          </ns3:TrackPointExtension>
        </extensions>
      </trkpt>
      <trkpt lat="45.295811779797077178955078125" lon="-71.10418408177793025970458984375">
        <ele>906.4000244140625</ele>
        <time>2026-08-21T23:57:13.000Z</time>
        <extensions>
          <ns3:TrackPointExtension>
            <ns3:hr>130</ns3:hr>
            <ns3:cad>0</ns3:cad>
          </ns3:TrackPointExtension>
        </extensions>
      </trkpt>
      <trkpt lat="45.2958002127707004547119140625" lon="-71.1041940562427043914794921875">
        <ele>906.5999755859375</ele>
        <time>2026-08-21T23:57:14.000Z</time>
        <extensions>
          <ns3:TrackPointExtension>
            <ns3:hr>129</ns3:hr>
            <ns3:cad>0</ns3:cad>
          </ns3:TrackPointExtension>
        </extensions>
      </trkpt>
      <trkpt lat="45.29579392634332180023193359375" lon="-71.10420352779328823089599609375">
        <ele>906.79998779296875</ele>
        <time>2026-08-21T23:57:15.000Z</time>
        <extensions>
          <ns3:TrackPointExtension>
            <ns3:hr>129</ns3:hr>
            <ns3:cad>0</ns3:cad>
          </ns3:TrackPointExtension>
        </extensions>
      </trkpt>
      <trkpt lat="45.2957780845463275909423828125" lon="-71.10421408899128437042236328125">
        <ele>906.79998779296875</ele>
        <time>2026-08-21T23:57:16.000Z</time>
        <extensions>
          <ns3:TrackPointExtension>
            <ns3:hr>130</ns3:hr>
            <ns3:cad>0</ns3:cad>
          </ns3:TrackPointExtension>
        </extensions>
      </trkpt>
      <trkpt lat="45.295767523348331451416015625" lon="-71.1042272485792636871337890625">
        <ele>906.79998779296875</ele>
        <time>2026-08-21T23:57:17.000Z</time>
        <extensions>
          <ns3:TrackPointExtension>
            <ns3:hr>130</ns3:hr>
            <ns3:cad>0</ns3:cad>
          </ns3:TrackPointExtension>
        </extensions>
      </trkpt>
      <trkpt lat="45.295749418437480926513671875" lon="-71.10423906706273555755615234375">
        <ele>906.79998779296875</ele>
        <time>2026-08-21T23:57:18.000Z</time>
        <extensions>
          <ns3:TrackPointExtension>
            <ns3:hr>130</ns3:hr>
            <ns3:cad>0</ns3:cad>
          </ns3:TrackPointExtension>
        </extensions>
      </trkpt>
      <trkpt lat="45.29573793523013591766357421875" lon="-71.1042500473558902740478515625">
        <ele>907</ele>
        <time>2026-08-21T23:57:19.000Z</time>
        <extensions>
          <ns3:TrackPointExtension>
            <ns3:hr>131</ns3:hr>
            <ns3:cad>53</ns3:cad>
          </ns3:TrackPointExtension>
        </extensions>
      </trkpt>
      <trkpt lat="45.29573458246886730194091796875" lon="-71.10425918363034725189208984375">
        <ele>907</ele>
        <time>2026-08-21T23:57:20.000Z</time>
        <extensions>
          <ns3:TrackPointExtension>
            <ns3:hr>131</ns3:hr>
            <ns3:cad>53</ns3:cad>
          </ns3:TrackPointExtension>
        </extensions>
      </trkpt>
      <trkpt lat="45.29573190025985240936279296875" lon="-71.10427678562700748443603515625">
        <ele>907.20001220703125</ele>
        <time>2026-08-21T23:57:21.000Z</time>
        <extensions>
          <ns3:TrackPointExtension>
            <ns3:hr>131</ns3:hr>
            <ns3:cad>53</ns3:cad>
          </ns3:TrackPointExtension>
        </extensions>
      </trkpt>
      <trkpt lat="45.2957254461944103240966796875" lon="-71.1042929627001285552978515625">
        <ele>907.4000244140625</ele>
        <time>2026-08-21T23:57:22.000Z</time>
        <extensions>
          <ns3:TrackPointExtension>
            <ns3:hr>130</ns3:hr>
            <ns3:cad>51</ns3:cad>
          </ns3:TrackPointExtension>
        </extensions>
      </trkpt>
      <trkpt lat="45.29571513645350933074951171875" lon="-71.104299835860729217529296875">
        <ele>907.4000244140625</ele>
        <time>2026-08-21T23:57:23.000Z</time>
        <extensions>
          <ns3:TrackPointExtension>
            <ns3:hr>130</ns3:hr>
            <ns3:cad>51</ns3:cad>
          </ns3:TrackPointExtension>
        </extensions>
      </trkpt>
      <trkpt lat="45.29570122249424457550048828125" lon="-71.1043077148497104644775390625">
        <ele>907.5999755859375</ele>
        <time>2026-08-21T23:57:24.000Z</time>
        <extensions>
          <ns3:TrackPointExtension>
            <ns3:hr>130</ns3:hr>
            <ns3:cad>50</ns3:cad>
          </ns3:TrackPointExtension>
        </extensions>
      </trkpt>
      <trkpt lat="45.29568999074399471282958984375" lon="-71.104315258562564849853515625">
        <ele>907.79998779296875</ele>
        <time>2026-08-21T23:57:25.000Z</time>
        <extensions>
          <ns3:TrackPointExtension>
            <ns3:hr>131</ns3:hr>
            <ns3:cad>50</ns3:cad>
          </ns3:TrackPointExtension>
        </extensions>
      </trkpt>
      <trkpt lat="45.295676998794078826904296875" lon="-71.10432523302733898162841796875">
        <ele>908</ele>
        <time>2026-08-21T23:57:26.000Z</time>
        <extensions>
          <ns3:TrackPointExtension>
            <ns3:hr>131</ns3:hr>
            <ns3:cad>49</ns3:cad>
          </ns3:TrackPointExtension>
        </extensions>
      </trkpt>
      <trkpt lat="45.29566593468189239501953125" lon="-71.1043382249772548675537109375">
        <ele>908.20001220703125</ele>
        <time>2026-08-21T23:57:27.000Z</time>
        <extensions>
          <ns3:TrackPointExtension>
            <ns3:hr>131</ns3:hr>
            <ns3:cad>49</ns3:cad>
          </ns3:TrackPointExtension>
        </extensions>
      </trkpt>
      <trkpt lat="45.29565545730292797088623046875" lon="-71.1043513007462024688720703125">
        <ele>908.4000244140625</ele>
        <time>2026-08-21T23:57:28.000Z</time>
        <extensions>
          <ns3:TrackPointExtension>
            <ns3:hr>131</ns3:hr>
            <ns3:cad>49</ns3:cad>
          </ns3:TrackPointExtension>
        </extensions>
      </trkpt>
      <trkpt lat="45.29564313590526580810546875" lon="-71.104360185563564300537109375">
        <ele>908.5999755859375</ele>
        <time>2026-08-21T23:57:29.000Z</time>
        <extensions>
          <ns3:TrackPointExtension>
            <ns3:hr>131</ns3:hr>
            <ns3:cad>49</ns3:cad>
          </ns3:TrackPointExtension>
        </extensions>
      </trkpt>
      <trkpt lat="45.2956319041550159454345703125" lon="-71.104370243847370147705078125">
        <ele>908.79998779296875</ele>
        <time>2026-08-21T23:57:30.000Z</time>
        <extensions>
          <ns3:TrackPointExtension>
            <ns3:hr>131</ns3:hr>
            <ns3:cad>49</ns3:cad>
          </ns3:TrackPointExtension>
        </extensions>
      </trkpt>
      <trkpt lat="45.29562075622379779815673828125" lon="-71.10437636263668537139892578125">
        <ele>909</ele>
        <time>2026-08-21T23:57:31.000Z</time>
        <extensions>
          <ns3:TrackPointExtension>
            <ns3:hr>132</ns3:hr>
            <ns3:cad>49</ns3:cad>
          </ns3:TrackPointExtension>
        </extensions>
      </trkpt>
      <trkpt lat="45.29561094939708709716796875" lon="-71.1043891869485378265380859375">
        <ele>909.20001220703125</ele>
        <time>2026-08-21T23:57:32.000Z</time>
        <extensions>
          <ns3:TrackPointExtension>
            <ns3:hr>132</ns3:hr>
            <ns3:cad>49</ns3:cad>
          </ns3:TrackPointExtension>
        </extensions>
      </trkpt>
      <trkpt lat="45.2955987118184566497802734375" lon="-71.1044002510607242584228515625">
        <ele>909.20001220703125</ele>
        <time>2026-08-21T23:57:33.000Z</time>
        <extensions>
          <ns3:TrackPointExtension>
            <ns3:hr>132</ns3:hr>
            <ns3:cad>49</ns3:cad>
          </ns3:TrackPointExtension>
        </extensions>
      </trkpt>
      <trkpt lat="45.2955879829823970794677734375" lon="-71.1044079624116420745849609375">
        <ele>909.20001220703125</ele>
        <time>2026-08-21T23:57:34.000Z</time>
        <extensions>
          <ns3:TrackPointExtension>
            <ns3:hr>132</ns3:hr>
            <ns3:cad>49</ns3:cad>
          </ns3:TrackPointExtension>
        </extensions>
      </trkpt>
      <trkpt lat="45.2955782599747180938720703125" lon="-71.10441961325705051422119140625">
        <ele>909.4000244140625</ele>
        <time>2026-08-21T23:57:35.000Z</time>
        <extensions>
          <ns3:TrackPointExtension>
            <ns3:hr>133</ns3:hr>
            <ns3:cad>49</ns3:cad>
          </ns3:TrackPointExtension>
        </extensions>
      </trkpt>
      <trkpt lat="45.29556711204349994659423828125" lon="-71.10442933626472949981689453125">
        <ele>909.4000244140625</ele>
        <time>2026-08-21T23:57:36.000Z</time>
        <extensions>
          <ns3:TrackPointExtension>
            <ns3:hr>133</ns3:hr>
            <ns3:cad>49</ns3:cad>
          </ns3:TrackPointExtension>
        </extensions>
      </trkpt>
      <trkpt lat="45.29555638320744037628173828125" lon="-71.10443805344402790069580078125">
        <ele>909.4000244140625</ele>
        <time>2026-08-21T23:57:37.000Z</time>
        <extensions>
          <ns3:TrackPointExtension>
            <ns3:hr>133</ns3:hr>
            <ns3:cad>49</ns3:cad>
          </ns3:TrackPointExtension>
        </extensions>
      </trkpt>
      <trkpt lat="45.295544900000095367431640625" lon="-71.10444911755621433258056640625">
        <ele>909.5999755859375</ele>
        <time>2026-08-21T23:57:38.000Z</time>
        <extensions>
          <ns3:TrackPointExtension>
            <ns3:hr>134</ns3:hr>
            <ns3:cad>56</ns3:cad>
          </ns3:TrackPointExtension>
        </extensions>
      </trkpt>
      <trkpt lat="45.29553391970694065093994140625" lon="-71.10446152277290821075439453125">
        <ele>909.5999755859375</ele>
        <time>2026-08-21T23:57:39.000Z</time>
        <extensions>
          <ns3:TrackPointExtension>
            <ns3:hr>133</ns3:hr>
            <ns3:cad>53</ns3:cad>
          </ns3:TrackPointExtension>
        </extensions>
      </trkpt>
      <trkpt lat="45.2955246157944202423095703125" lon="-71.1044718325138092041015625">
        <ele>909.79998779296875</ele>
        <time>2026-08-21T23:57:40.000Z</time>
        <extensions>
          <ns3:TrackPointExtension>
            <ns3:hr>133</ns3:hr>
            <ns3:cad>53</ns3:cad>
          </ns3:TrackPointExtension>
        </extensions>
      </trkpt>
      <trkpt lat="45.2955138869583606719970703125" lon="-71.104482226073741912841796875">
        <ele>909.79998779296875</ele>
        <time>2026-08-21T23:57:41.000Z</time>
        <extensions>
          <ns3:TrackPointExtension>
            <ns3:hr>133</ns3:hr>
            <ns3:cad>54</ns3:cad>
          </ns3:TrackPointExtension>
        </extensions>
      </trkpt>
      <trkpt lat="45.2955028228461742401123046875" lon="-71.10449169762432575225830078125">
        <ele>910</ele>
        <time>2026-08-21T23:57:42.000Z</time>
        <extensions>
          <ns3:TrackPointExtension>
            <ns3:hr>133</ns3:hr>
            <ns3:cad>54</ns3:cad>
          </ns3:TrackPointExtension>
        </extensions>
      </trkpt>
      <trkpt lat="45.29549284838140010833740234375" lon="-71.10449722968041896820068359375">
        <ele>910</ele>
        <time>2026-08-21T23:57:43.000Z</time>
        <extensions>
          <ns3:TrackPointExtension>
            <ns3:hr>133</ns3:hr>
            <ns3:cad>55</ns3:cad>
          </ns3:TrackPointExtension>
        </extensions>
      </trkpt>
      <trkpt lat="45.29548530466854572296142578125" lon="-71.10450603067874908447265625">
        <ele>910.20001220703125</ele>
        <time>2026-08-21T23:57:44.000Z</time>
        <extensions>
          <ns3:TrackPointExtension>
            <ns3:hr>132</ns3:hr>
            <ns3:cad>55</ns3:cad>
          </ns3:TrackPointExtension>
        </extensions>
      </trkpt>
      <trkpt lat="45.29547692276537418365478515625" lon="-71.1045139096677303314208984375">
        <ele>910.5999755859375</ele>
        <time>2026-08-21T23:57:45.000Z</time>
        <extensions>
          <ns3:TrackPointExtension>
            <ns3:hr>133</ns3:hr>
            <ns3:cad>50</ns3:cad>
          </ns3:TrackPointExtension>
        </extensions>
      </trkpt>
      <trkpt lat="45.29546585865318775177001953125" lon="-71.1045253090560436248779296875">
        <ele>910.79998779296875</ele>
        <time>2026-08-21T23:57:46.000Z</time>
        <extensions>
          <ns3:TrackPointExtension>
            <ns3:hr>134</ns3:hr>
            <ns3:cad>50</ns3:cad>
          </ns3:TrackPointExtension>
        </extensions>
      </trkpt>
      <trkpt lat="45.2954542078077793121337890625" lon="-71.10453494824469089508056640625">
        <ele>911</ele>
        <time>2026-08-21T23:57:47.000Z</time>
        <extensions>
          <ns3:TrackPointExtension>
            <ns3:hr>134</ns3:hr>
            <ns3:cad>53</ns3:cad>
          </ns3:TrackPointExtension>
        </extensions>
      </trkpt>
      <trkpt lat="45.29544607736170291900634765625" lon="-71.10454098321497440338134765625">
        <ele>911.4000244140625</ele>
        <time>2026-08-21T23:57:48.000Z</time>
        <extensions>
          <ns3:TrackPointExtension>
            <ns3:hr>133</ns3:hr>
            <ns3:cad>53</ns3:cad>
          </ns3:TrackPointExtension>
        </extensions>
      </trkpt>
      <trkpt lat="45.29543585143983364105224609375" lon="-71.1045450903475284576416015625">
        <ele>911.5999755859375</ele>
        <time>2026-08-21T23:57:49.000Z</time>
        <extensions>
          <ns3:TrackPointExtension>
            <ns3:hr>133</ns3:hr>
            <ns3:cad>53</ns3:cad>
          </ns3:TrackPointExtension>
        </extensions>
      </trkpt>
      <trkpt lat="45.2954200096428394317626953125" lon="-71.1045549809932708740234375">
        <ele>911.79998779296875</ele>
        <time>2026-08-21T23:57:50.000Z</time>
        <extensions>
          <ns3:TrackPointExtension>
            <ns3:hr>133</ns3:hr>
            <ns3:cad>53</ns3:cad>
          </ns3:TrackPointExtension>
        </extensions>
      </trkpt>
      <trkpt lat="45.29540802352130413055419921875" lon="-71.10456160269677639007568359375">
        <ele>911.79998779296875</ele>
        <time>2026-08-21T23:57:51.000Z</time>
        <extensions>
          <ns3:TrackPointExtension>
            <ns3:hr>132</ns3:hr>
            <ns3:cad>53</ns3:cad>
          </ns3:TrackPointExtension>
        </extensions>
      </trkpt>
      <trkpt lat="45.295398719608783721923828125" lon="-71.104567050933837890625">
        <ele>911.79998779296875</ele>
        <time>2026-08-21T23:57:52.000Z</time>
        <extensions>
          <ns3:TrackPointExtension>
            <ns3:hr>133</ns3:hr>
            <ns3:cad>48</ns3:cad>
          </ns3:TrackPointExtension>
        </extensions>
      </trkpt>
      <trkpt lat="45.295387990772724151611328125" lon="-71.1045759357511997222900390625">
        <ele>911.79998779296875</ele>
        <time>2026-08-21T23:57:53.000Z</time>
        <extensions>
          <ns3:TrackPointExtension>
            <ns3:hr>133</ns3:hr>
            <ns3:cad>48</ns3:cad>
          </ns3:TrackPointExtension>
        </extensions>
      </trkpt>
      <trkpt lat="45.2953791059553623199462890625" lon="-71.10458113253116607666015625">
        <ele>912</ele>
        <time>2026-08-21T23:57:54.000Z</time>
        <extensions>
          <ns3:TrackPointExtension>
            <ns3:hr>134</ns3:hr>
            <ns3:cad>48</ns3:cad>
          </ns3:TrackPointExtension>
        </extensions>
      </trkpt>
      <trkpt lat="45.29536711983382701873779296875" lon="-71.10458976589143276214599609375">
        <ele>912</ele>
        <time>2026-08-21T23:57:55.000Z</time>
        <extensions>
          <ns3:TrackPointExtension>
            <ns3:hr>134</ns3:hr>
            <ns3:cad>50</ns3:cad>
          </ns3:TrackPointExtension>
        </extensions>
      </trkpt>
      <trkpt lat="45.29535890556871891021728515625" lon="-71.1045977286994457244873046875">
        <ele>912.20001220703125</ele>
        <time>2026-08-21T23:57:56.000Z</time>
        <extensions>
          <ns3:TrackPointExtension>
            <ns3:hr>134</ns3:hr>
            <ns3:cad>50</ns3:cad>
          </ns3:TrackPointExtension>
        </extensions>
      </trkpt>
      <trkpt lat="45.2953489311039447784423828125" lon="-71.10460795462131500244140625">
        <ele>912.20001220703125</ele>
        <time>2026-08-21T23:57:57.000Z</time>
        <extensions>
          <ns3:TrackPointExtension>
            <ns3:hr>134</ns3:hr>
            <ns3:cad>51</ns3:cad>
          </ns3:TrackPointExtension>
        </extensions>
      </trkpt>
      <trkpt lat="45.29534063301980495452880859375" lon="-71.10461742617189884185791015625">
        <ele>912.4000244140625</ele>
        <time>2026-08-21T23:57:58.000Z</time>
        <extensions>
          <ns3:TrackPointExtension>
            <ns3:hr>134</ns3:hr>
            <ns3:cad>51</ns3:cad>
          </ns3:TrackPointExtension>
        </extensions>
      </trkpt>
      <trkpt lat="45.29533292166888713836669921875" lon="-71.104625053703784942626953125">
        <ele>912.4000244140625</ele>
        <time>2026-08-21T23:57:59.000Z</time>
        <extensions>
          <ns3:TrackPointExtension>
            <ns3:hr>134</ns3:hr>
            <ns3:cad>51</ns3:cad>
          </ns3:TrackPointExtension>
        </extensions>
      </trkpt>
      <trkpt lat="45.295324288308620452880859375" lon="-71.1046332679688930511474609375">
        <ele>912.4000244140625</ele>
        <time>2026-08-21T23:58:00.000Z</time>
        <extensions>
          <ns3:TrackPointExtension>
            <ns3:hr>134</ns3:hr>
            <ns3:cad>51</ns3:cad>
          </ns3:TrackPointExtension>
        </extensions>
      </trkpt>
      <trkpt lat="45.2953125536441802978515625" lon="-71.10464525409042835235595703125">
        <ele>912.4000244140625</ele>
        <time>2026-08-21T23:58:01.000Z</time>
        <extensions>
          <ns3:TrackPointExtension>
            <ns3:hr>134</ns3:hr>
            <ns3:cad>51</ns3:cad>
          </ns3:TrackPointExtension>
        </extensions>
      </trkpt>
      <trkpt lat="45.29530048370361328125" lon="-71.10465967096388339996337890625">
        <ele>912.5999755859375</ele>
        <time>2026-08-21T23:58:02.000Z</time>
        <extensions>
          <ns3:TrackPointExtension>
            <ns3:hr>135</ns3:hr>
            <ns3:cad>51</ns3:cad>
          </ns3:TrackPointExtension>
        </extensions>
      </trkpt>
      <trkpt lat="45.29529185034334659576416015625" lon="-71.104668639600276947021484375">
        <ele>912.5999755859375</ele>
        <time>2026-08-21T23:58:03.000Z</time>
        <extensions>
          <ns3:TrackPointExtension>
            <ns3:hr>134</ns3:hr>
            <ns3:cad>51</ns3:cad>
          </ns3:TrackPointExtension>
        </extensions>
      </trkpt>
      <trkpt lat="45.29528078623116016387939453125" lon="-71.104678027331829071044921875">
        <ele>912.5999755859375</ele>
        <time>2026-08-21T23:58:04.000Z</time>
        <extensions>
          <ns3:TrackPointExtension>
            <ns3:hr>134</ns3:hr>
            <ns3:cad>51</ns3:cad>
          </ns3:TrackPointExtension>
        </extensions>
      </trkpt>
      <trkpt lat="45.295268632471561431884765625" lon="-71.1046889238059520721435546875">
        <ele>912.79998779296875</ele>
        <time>2026-08-21T23:58:05.000Z</time>
        <extensions>
          <ns3:TrackPointExtension>
            <ns3:hr>134</ns3:hr>
            <ns3:cad>53</ns3:cad>
          </ns3:TrackPointExtension>
        </extensions>
      </trkpt>
      <trkpt lat="45.295259244740009307861328125" lon="-71.10470459796488285064697265625">
        <ele>912.79998779296875</ele>
        <time>2026-08-21T23:58:06.000Z</time>
        <extensions>
          <ns3:TrackPointExtension>
            <ns3:hr>134</ns3:hr>
            <ns3:cad>53</ns3:cad>
          </ns3:TrackPointExtension>
        </extensions>
      </trkpt>
      <trkpt lat="45.29525044374167919158935546875" lon="-71.104719936847686767578125">
        <ele>912.79998779296875</ele>
        <time>2026-08-21T23:58:07.000Z</time>
        <extensions>
          <ns3:TrackPointExtension>
            <ns3:hr>134</ns3:hr>
            <ns3:cad>53</ns3:cad>
          </ns3:TrackPointExtension>
        </extensions>
      </trkpt>
      <trkpt lat="45.295240469276905059814453125" lon="-71.1047301627695560455322265625">
        <ele>913</ele>
        <time>2026-08-21T23:58:08.000Z</time>
        <extensions>
          <ns3:TrackPointExtension>
            <ns3:hr>134</ns3:hr>
            <ns3:cad>53</ns3:cad>
          </ns3:TrackPointExtension>
        </extensions>
      </trkpt>
      <trkpt lat="45.2952342666685581207275390625" lon="-71.10474298708140850067138671875">
        <ele>913</ele>
        <time>2026-08-21T23:58:09.000Z</time>
        <extensions>
          <ns3:TrackPointExtension>
            <ns3:hr>134</ns3:hr>
            <ns3:cad>0</ns3:cad>
          </ns3:TrackPointExtension>
        </extensions>
      </trkpt>
      <trkpt lat="45.29522462747991085052490234375" lon="-71.10475723631680011749267578125">
        <ele>913</ele>
        <time>2026-08-21T23:58:10.000Z</time>
        <extensions>
          <ns3:TrackPointExtension>
            <ns3:hr>134</ns3:hr>
            <ns3:cad>0</ns3:cad>
          </ns3:TrackPointExtension>
        </extensions>
      </trkpt>
      <trkpt lat="45.2952158264815807342529296875" lon="-71.1047695577144622802734375">
        <ele>912.79998779296875</ele>
        <time>2026-08-21T23:58:11.000Z</time>
        <extensions>
          <ns3:TrackPointExtension>
            <ns3:hr>134</ns3:hr>
            <ns3:cad>52</ns3:cad>
          </ns3:TrackPointExtension>
        </extensions>
      </trkpt>
      <trkpt lat="45.295204259455204010009765625" lon="-71.1047776043415069580078125">
        <ele>912.79998779296875</ele>
        <time>2026-08-21T23:58:12.000Z</time>
        <extensions>
          <ns3:TrackPointExtension>
            <ns3:hr>134</ns3:hr>
            <ns3:cad>52</ns3:cad>
          </ns3:TrackPointExtension>
        </extensions>
      </trkpt>
      <trkpt lat="45.29519311152398586273193359375" lon="-71.10478766262531280517578125">
        <ele>912.79998779296875</ele>
        <time>2026-08-21T23:58:13.000Z</time>
        <extensions>
          <ns3:TrackPointExtension>
            <ns3:hr>134</ns3:hr>
            <ns3:cad>52</ns3:cad>
          </ns3:TrackPointExtension>
        </extensions>
      </trkpt>
      <trkpt lat="45.29518087394535541534423828125" lon="-71.10480241477489471435546875">
        <ele>912.5999755859375</ele>
        <time>2026-08-21T23:58:14.000Z</time>
        <extensions>
          <ns3:TrackPointExtension>
            <ns3:hr>134</ns3:hr>
            <ns3:cad>51</ns3:cad>
          </ns3:TrackPointExtension>
        </extensions>
      </trkpt>
      <trkpt lat="45.29517299495637416839599609375" lon="-71.10481456853449344635009765625">
        <ele>912.5999755859375</ele>
        <time>2026-08-21T23:58:15.000Z</time>
        <extensions>
          <ns3:TrackPointExtension>
            <ns3:hr>134</ns3:hr>
            <ns3:cad>51</ns3:cad>
          </ns3:TrackPointExtension>
        </extensions>
      </trkpt>
      <trkpt lat="45.2951638586819171905517578125" lon="-71.1048270575702190399169921875">
        <ele>912.4000244140625</ele>
        <time>2026-08-21T23:58:16.000Z</time>
        <extensions>
          <ns3:TrackPointExtension>
            <ns3:hr>134</ns3:hr>
            <ns3:cad>53</ns3:cad>
          </ns3:TrackPointExtension>
        </extensions>
      </trkpt>
      <trkpt lat="45.29515790753066539764404296875" lon="-71.104840300977230072021484375">
        <ele>912.20001220703125</ele>
        <time>2026-08-21T23:58:17.000Z</time>
        <extensions>
          <ns3:TrackPointExtension>
            <ns3:hr>134</ns3:hr>
            <ns3:cad>53</ns3:cad>
          </ns3:TrackPointExtension>
        </extensions>
      </trkpt>
      <trkpt lat="45.2951497770845890045166015625" lon="-71.10484843142330646514892578125">
        <ele>912</ele>
        <time>2026-08-21T23:58:18.000Z</time>
        <extensions>
          <ns3:TrackPointExtension>
            <ns3:hr>134</ns3:hr>
            <ns3:cad>53</ns3:cad>
          </ns3:TrackPointExtension>
        </extensions>
      </trkpt>
      <trkpt lat="45.29514650814235210418701171875" lon="-71.1048532091081142425537109375">
        <ele>911.79998779296875</ele>
        <time>2026-08-21T23:58:19.000Z</time>
        <extensions>
          <ns3:TrackPointExtension>
            <ns3:hr>134</ns3:hr>
            <ns3:cad>0</ns3:cad>
          </ns3:TrackPointExtension>
        </extensions>
      </trkpt>
      <trkpt lat="45.29514491558074951171875" lon="-71.10485446639358997344970703125">
        <ele>911.5999755859375</ele>
        <time>2026-08-21T23:58:20.000Z</time>
        <extensions>
          <ns3:TrackPointExtension>
            <ns3:hr>133</ns3:hr>
            <ns3:cad>0</ns3:cad>
          </ns3:TrackPointExtension>
        </extensions>
      </trkpt>
      <trkpt lat="45.2951450832188129425048828125" lon="-71.10485781915485858917236328125">
        <ele>911.4000244140625</ele>
        <time>2026-08-21T23:58:21.000Z</time>
        <extensions>
          <ns3:TrackPointExtension>
            <ns3:hr>133</ns3:hr>
            <ns3:cad>0</ns3:cad>
          </ns3:TrackPointExtension>
        </extensions>
      </trkpt>
      <trkpt lat="45.29514491558074951171875" lon="-71.10485765151679515838623046875">
        <ele>911.4000244140625</ele>
        <time>2026-08-21T23:58:22.000Z</time>
        <extensions>
          <ns3:TrackPointExtension>
            <ns3:hr>133</ns3:hr>
            <ns3:cad>0</ns3:cad>
          </ns3:TrackPointExtension>
        </extensions>
      </trkpt>
      <trkpt lat="45.29514491558074951171875" lon="-71.10485765151679515838623046875">
        <ele>911.4000244140625</ele>
        <time>2026-08-21T23:58:23.000Z</time>
        <extensions>
          <ns3:TrackPointExtension>
            <ns3:hr>133</ns3:hr>
            <ns3:cad>0</ns3:cad>
          </ns3:TrackPointExtension>
        </extensions>
      </trkpt>
      <trkpt lat="45.29514491558074951171875" lon="-71.10485765151679515838623046875">
        <ele>911.4000244140625</ele>
        <time>2026-08-21T23:58:24.000Z</time>
        <extensions>
          <ns3:TrackPointExtension>
            <ns3:hr>132</ns3:hr>
            <ns3:cad>0</ns3:cad>
          </ns3:TrackPointExtension>
        </extensions>
      </trkpt>
      <trkpt lat="45.29514491558074951171875" lon="-71.10485765151679515838623046875">
        <ele>911.4000244140625</ele>
        <time>2026-08-21T23:58:25.000Z</time>
        <extensions>
          <ns3:TrackPointExtension>
            <ns3:hr>131</ns3:hr>
            <ns3:cad>0</ns3:cad>
          </ns3:TrackPointExtension>
        </extensions>
      </trkpt>
      <trkpt lat="45.29514491558074951171875" lon="-71.10485765151679515838623046875">
        <ele>911.4000244140625</ele>
        <time>2026-08-21T23:58:26.000Z</time>
        <extensions>
          <ns3:TrackPointExtension>
            <ns3:hr>131</ns3:hr>
            <ns3:cad>0</ns3:cad>
          </ns3:TrackPointExtension>
        </extensions>
      </trkpt>
      <trkpt lat="45.2951447479426860809326171875" lon="-71.104857735335826873779296875">
        <ele>911.4000244140625</ele>
        <time>2026-08-21T23:58:27.000Z</time>
        <extensions>
          <ns3:TrackPointExtension>
            <ns3:hr>131</ns3:hr>
            <ns3:cad>0</ns3:cad>
          </ns3:TrackPointExtension>
        </extensions>
      </trkpt>
      <trkpt lat="45.29514181427657604217529296875" lon="-71.10486217774450778961181640625">
        <ele>911.4000244140625</ele>
        <time>2026-08-21T23:58:28.000Z</time>
        <extensions>
          <ns3:TrackPointExtension>
            <ns3:hr>130</ns3:hr>
            <ns3:cad>0</ns3:cad>
          </ns3:TrackPointExtension>
        </extensions>
      </trkpt>
      <trkpt lat="45.2951383776962757110595703125" lon="-71.10486603341996669769287109375">
        <ele>911.4000244140625</ele>
        <time>2026-08-21T23:58:29.000Z</time>
        <extensions>
          <ns3:TrackPointExtension>
            <ns3:hr>130</ns3:hr>
            <ns3:cad>0</ns3:cad>
          </ns3:TrackPointExtension>
        </extensions>
      </trkpt>
      <trkpt lat="45.29514491558074951171875" lon="-71.10485765151679515838623046875">
        <ele>911.20001220703125</ele>
        <time>2026-08-21T23:58:30.000Z</time>
        <extensions>
          <ns3:TrackPointExtension>
            <ns3:hr>130</ns3:hr>
            <ns3:cad>0</ns3:cad>
          </ns3:TrackPointExtension>
        </extensions>
      </trkpt>
      <trkpt lat="45.29514491558074951171875" lon="-71.10485765151679515838623046875">
        <ele>911.20001220703125</ele>
        <time>2026-08-21T23:58:31.000Z</time>
        <extensions>
          <ns3:TrackPointExtension>
            <ns3:hr>129</ns3:hr>
            <ns3:cad>0</ns3:cad>
          </ns3:TrackPointExtension>
        </extensions>
      </trkpt>
      <trkpt lat="45.29513611458241939544677734375" lon="-71.10487072728574275970458984375">
        <ele>911.20001220703125</ele>
        <time>2026-08-21T23:58:32.000Z</time>
        <extensions>
          <ns3:TrackPointExtension>
            <ns3:hr>128</ns3:hr>
            <ns3:cad>0</ns3:cad>
          </ns3:TrackPointExtension>
        </extensions>
      </trkpt>
      <trkpt lat="45.2951279841363430023193359375" lon="-71.10488330014050006866455078125">
        <ele>911.20001220703125</ele>
        <time>2026-08-21T23:58:33.000Z</time>
        <extensions>
          <ns3:TrackPointExtension>
            <ns3:hr>128</ns3:hr>
            <ns3:cad>0</ns3:cad>
          </ns3:TrackPointExtension>
        </extensions>
      </trkpt>
      <trkpt lat="45.29512153007090091705322265625" lon="-71.104895956814289093017578125">
        <ele>911</ele>
        <time>2026-08-21T23:58:34.000Z</time>
        <extensions>
          <ns3:TrackPointExtension>
            <ns3:hr>127</ns3:hr>
            <ns3:cad>0</ns3:cad>
          </ns3:TrackPointExtension>
        </extensions>
      </trkpt>
      <trkpt lat="45.29511448927223682403564453125" lon="-71.1049061827361583709716796875">
        <ele>911</ele>
        <time>2026-08-21T23:58:35.000Z</time>
        <extensions>
          <ns3:TrackPointExtension>
            <ns3:hr>127</ns3:hr>
            <ns3:cad>0</ns3:cad>
          </ns3:TrackPointExtension>
        </extensions>
      </trkpt>
      <trkpt lat="45.29510627500712871551513671875" lon="-71.10491816885769367218017578125">
        <ele>910.79998779296875</ele>
        <time>2026-08-21T23:58:36.000Z</time>
        <extensions>
          <ns3:TrackPointExtension>
            <ns3:hr>126</ns3:hr>
            <ns3:cad>0</ns3:cad>
          </ns3:TrackPointExtension>
        </extensions>
      </trkpt>
      <trkpt lat="45.295099318027496337890625" lon="-71.1049286462366580963134765625">
        <ele>910.5999755859375</ele>
        <time>2026-08-21T23:58:37.000Z</time>
        <extensions>
          <ns3:TrackPointExtension>
            <ns3:hr>126</ns3:hr>
            <ns3:cad>50</ns3:cad>
          </ns3:TrackPointExtension>
        </extensions>
      </trkpt>
      <trkpt lat="45.2950941212475299835205078125" lon="-71.104938872158527374267578125">
        <ele>910.4000244140625</ele>
        <time>2026-08-21T23:58:38.000Z</time>
        <extensions>
          <ns3:TrackPointExtension>
            <ns3:hr>125</ns3:hr>
            <ns3:cad>50</ns3:cad>
          </ns3:TrackPointExtension>
        </extensions>
      </trkpt>
      <trkpt lat="45.29509068466722965240478515625" lon="-71.10495395958423614501953125">
        <ele>910.20001220703125</ele>
        <time>2026-08-21T23:58:39.000Z</time>
        <extensions>
          <ns3:TrackPointExtension>
            <ns3:hr>125</ns3:hr>
            <ns3:cad>50</ns3:cad>
          </ns3:TrackPointExtension>
        </extensions>
      </trkpt>
      <trkpt lat="45.29508649371564388275146484375" lon="-71.104969717562198638916015625">
        <ele>910</ele>
        <time>2026-08-21T23:58:40.000Z</time>
        <extensions>
          <ns3:TrackPointExtension>
            <ns3:hr>125</ns3:hr>
            <ns3:cad>50</ns3:cad>
          </ns3:TrackPointExtension>
        </extensions>
      </trkpt>
      <trkpt lat="45.29508230276405811309814453125" lon="-71.10498480498790740966796875">
        <ele>909.79998779296875</ele>
        <time>2026-08-21T23:58:41.000Z</time>
        <extensions>
          <ns3:TrackPointExtension>
            <ns3:hr>125</ns3:hr>
            <ns3:cad>50</ns3:cad>
          </ns3:TrackPointExtension>
        </extensions>
      </trkpt>
      <trkpt lat="45.29507576487958431243896484375" lon="-71.10499695874750614166259765625">
        <ele>909.5999755859375</ele>
        <time>2026-08-21T23:58:42.000Z</time>
        <extensions>
          <ns3:TrackPointExtension>
            <ns3:hr>126</ns3:hr>
            <ns3:cad>0</ns3:cad>
          </ns3:TrackPointExtension>
        </extensions>
      </trkpt>
      <trkpt lat="45.2950683049857616424560546875" lon="-71.10500701703131198883056640625">
        <ele>909.4000244140625</ele>
        <time>2026-08-21T23:58:43.000Z</time>
        <extensions>
          <ns3:TrackPointExtension>
            <ns3:hr>126</ns3:hr>
            <ns3:cad>0</ns3:cad>
          </ns3:TrackPointExtension>
        </extensions>
      </trkpt>
      <trkpt lat="45.2950589172542095184326171875" lon="-71.1050195060670375823974609375">
        <ele>909.20001220703125</ele>
        <time>2026-08-21T23:58:44.000Z</time>
        <extensions>
          <ns3:TrackPointExtension>
            <ns3:hr>126</ns3:hr>
            <ns3:cad>0</ns3:cad>
          </ns3:TrackPointExtension>
        </extensions>
      </trkpt>
      <trkpt lat="45.29505045153200626373291015625" lon="-71.10503375530242919921875">
        <ele>909</ele>
        <time>2026-08-21T23:58:45.000Z</time>
        <extensions>
          <ns3:TrackPointExtension>
            <ns3:hr>125</ns3:hr>
            <ns3:cad>57</ns3:cad>
          </ns3:TrackPointExtension>
        </extensions>
      </trkpt>
      <trkpt lat="45.29504391364753246307373046875" lon="-71.1050459928810596466064453125">
        <ele>908.79998779296875</ele>
        <time>2026-08-21T23:58:46.000Z</time>
        <extensions>
          <ns3:TrackPointExtension>
            <ns3:hr>125</ns3:hr>
            <ns3:cad>57</ns3:cad>
          </ns3:TrackPointExtension>
        </extensions>
      </trkpt>
      <trkpt lat="45.29503452591598033905029296875" lon="-71.10506049357354640960693359375">
        <ele>908.5999755859375</ele>
        <time>2026-08-21T23:58:47.000Z</time>
        <extensions>
          <ns3:TrackPointExtension>
            <ns3:hr>125</ns3:hr>
            <ns3:cad>58</ns3:cad>
          </ns3:TrackPointExtension>
        </extensions>
      </trkpt>
      <trkpt lat="45.295025222003459930419921875" lon="-71.105069629848003387451171875">
        <ele>908.5999755859375</ele>
        <time>2026-08-21T23:58:48.000Z</time>
        <extensions>
          <ns3:TrackPointExtension>
            <ns3:hr>125</ns3:hr>
            <ns3:cad>58</ns3:cad>
          </ns3:TrackPointExtension>
        </extensions>
      </trkpt>
      <trkpt lat="45.2950133197009563446044921875" lon="-71.105084381997585296630859375">
        <ele>908.4000244140625</ele>
        <time>2026-08-21T23:58:49.000Z</time>
        <extensions>
          <ns3:TrackPointExtension>
            <ns3:hr>124</ns3:hr>
            <ns3:cad>58</ns3:cad>
          </ns3:TrackPointExtension>
        </extensions>
      </trkpt>
      <trkpt lat="45.2950042672455310821533203125" lon="-71.1050982959568500518798828125">
        <ele>908.20001220703125</ele>
        <time>2026-08-21T23:58:50.000Z</time>
        <extensions>
          <ns3:TrackPointExtension>
            <ns3:hr>124</ns3:hr>
            <ns3:cad>58</ns3:cad>
          </ns3:TrackPointExtension>
        </extensions>
      </trkpt>
      <trkpt lat="45.29499513097107410430908203125" lon="-71.1051160655915737152099609375">
        <ele>908</ele>
        <time>2026-08-21T23:58:51.000Z</time>
        <extensions>
          <ns3:TrackPointExtension>
            <ns3:hr>122</ns3:hr>
            <ns3:cad>58</ns3:cad>
          </ns3:TrackPointExtension>
        </extensions>
      </trkpt>
      <trkpt lat="45.29498289339244365692138671875" lon="-71.105138696730136871337890625">
        <ele>907.5999755859375</ele>
        <time>2026-08-21T23:58:52.000Z</time>
        <extensions>
          <ns3:TrackPointExtension>
            <ns3:hr>121</ns3:hr>
            <ns3:cad>58</ns3:cad>
          </ns3:TrackPointExtension>
        </extensions>
      </trkpt>
      <trkpt lat="45.29497300274670124053955078125" lon="-71.10515135340392589569091796875">
        <ele>907.4000244140625</ele>
        <time>2026-08-21T23:58:53.000Z</time>
        <extensions>
          <ns3:TrackPointExtension>
            <ns3:hr>121</ns3:hr>
            <ns3:cad>58</ns3:cad>
          </ns3:TrackPointExtension>
        </extensions>
      </trkpt>
      <trkpt lat="45.29496378265321254730224609375" lon="-71.10516719520092010498046875">
        <ele>907.20001220703125</ele>
        <time>2026-08-21T23:58:54.000Z</time>
        <extensions>
          <ns3:TrackPointExtension>
            <ns3:hr>121</ns3:hr>
            <ns3:cad>58</ns3:cad>
          </ns3:TrackPointExtension>
        </extensions>
      </trkpt>
      <trkpt lat="45.29495540075004100799560546875" lon="-71.10518907196819782257080078125">
        <ele>907.20001220703125</ele>
        <time>2026-08-21T23:58:55.000Z</time>
        <extensions>
          <ns3:TrackPointExtension>
            <ns3:hr>121</ns3:hr>
            <ns3:cad>58</ns3:cad>
          </ns3:TrackPointExtension>
        </extensions>
      </trkpt>
      <trkpt lat="45.29495154507458209991455078125" lon="-71.10520332120358943939208984375">
        <ele>907</ele>
        <time>2026-08-21T23:58:56.000Z</time>
        <extensions>
          <ns3:TrackPointExtension>
            <ns3:hr>121</ns3:hr>
            <ns3:cad>58</ns3:cad>
          </ns3:TrackPointExtension>
        </extensions>
      </trkpt>
      <trkpt lat="45.2949449233710765838623046875" lon="-71.10521270893514156341552734375">
        <ele>906.79998779296875</ele>
        <time>2026-08-21T23:58:57.000Z</time>
        <extensions>
          <ns3:TrackPointExtension>
            <ns3:hr>121</ns3:hr>
            <ns3:cad>58</ns3:cad>
          </ns3:TrackPointExtension>
        </extensions>
      </trkpt>
      <trkpt lat="45.29493763111531734466552734375" lon="-71.10522410832345485687255859375">
        <ele>906.79998779296875</ele>
        <time>2026-08-21T23:58:58.000Z</time>
        <extensions>
          <ns3:TrackPointExtension>
            <ns3:hr>121</ns3:hr>
            <ns3:cad>0</ns3:cad>
          </ns3:TrackPointExtension>
        </extensions>
      </trkpt>
      <trkpt lat="45.29493092559278011322021484375" lon="-71.1052314005792140960693359375">
        <ele>906.5999755859375</ele>
        <time>2026-08-21T23:58:59.000Z</time>
        <extensions>
          <ns3:TrackPointExtension>
            <ns3:hr>120</ns3:hr>
            <ns3:cad>0</ns3:cad>
          </ns3:TrackPointExtension>
        </extensions>
      </trkpt>
      <trkpt lat="45.29491667635738849639892578125" lon="-71.1052471585571765899658203125">
        <ele>906.4000244140625</ele>
        <time>2026-08-21T23:59:00.000Z</time>
        <extensions>
          <ns3:TrackPointExtension>
            <ns3:hr>120</ns3:hr>
            <ns3:cad>0</ns3:cad>
          </ns3:TrackPointExtension>
        </extensions>
      </trkpt>
      <trkpt lat="45.2949050255119800567626953125" lon="-71.10525746829807758331298828125">
        <ele>906</ele>
        <time>2026-08-21T23:59:01.000Z</time>
        <extensions>
          <ns3:TrackPointExtension>
            <ns3:hr>120</ns3:hr>
            <ns3:cad>0</ns3:cad>
          </ns3:TrackPointExtension>
        </extensions>
      </trkpt>
      <trkpt lat="45.2948976494371891021728515625" lon="-71.10526509582996368408203125">
        <ele>905.79998779296875</ele>
        <time>2026-08-21T23:59:02.000Z</time>
        <extensions>
          <ns3:TrackPointExtension>
            <ns3:hr>119</ns3:hr>
            <ns3:cad>0</ns3:cad>
          </ns3:TrackPointExtension>
        </extensions>
      </trkpt>
      <trkpt lat="45.2948887646198272705078125" lon="-71.10527875833213329315185546875">
        <ele>905.5999755859375</ele>
        <time>2026-08-21T23:59:03.000Z</time>
        <extensions>
          <ns3:TrackPointExtension>
            <ns3:hr>119</ns3:hr>
            <ns3:cad>0</ns3:cad>
          </ns3:TrackPointExtension>
        </extensions>
      </trkpt>
      <trkpt lat="45.29487879015505313873291015625" lon="-71.10528496094048023223876953125">
        <ele>905.20001220703125</ele>
        <time>2026-08-21T23:59:04.000Z</time>
        <extensions>
          <ns3:TrackPointExtension>
            <ns3:hr>119</ns3:hr>
            <ns3:cad>0</ns3:cad>
          </ns3:TrackPointExtension>
        </extensions>
      </trkpt>
      <trkpt lat="45.2948657982051372528076171875" lon="-71.1052924208343029022216796875">
        <ele>905</ele>
        <time>2026-08-21T23:59:05.000Z</time>
        <extensions>
          <ns3:TrackPointExtension>
            <ns3:hr>119</ns3:hr>
            <ns3:cad>0</ns3:cad>
          </ns3:TrackPointExtension>
        </extensions>
      </trkpt>
      <trkpt lat="45.29485682956874370574951171875" lon="-71.1052971147000789642333984375">
        <ele>904.5999755859375</ele>
        <time>2026-08-21T23:59:06.000Z</time>
        <extensions>
          <ns3:TrackPointExtension>
            <ns3:hr>120</ns3:hr>
            <ns3:cad>0</ns3:cad>
          </ns3:TrackPointExtension>
        </extensions>
      </trkpt>
      <trkpt lat="45.2948456816375255584716796875" lon="-71.10530742444097995758056640625">
        <ele>904.20001220703125</ele>
        <time>2026-08-21T23:59:07.000Z</time>
        <extensions>
          <ns3:TrackPointExtension>
            <ns3:hr>119</ns3:hr>
            <ns3:cad>0</ns3:cad>
          </ns3:TrackPointExtension>
        </extensions>
      </trkpt>
      <trkpt lat="45.294834785163402557373046875" lon="-71.10530993901193141937255859375">
        <ele>903.79998779296875</ele>
        <time>2026-08-21T23:59:08.000Z</time>
        <extensions>
          <ns3:TrackPointExtension>
            <ns3:hr>118</ns3:hr>
            <ns3:cad>0</ns3:cad>
          </ns3:TrackPointExtension>
        </extensions>
      </trkpt>
      <trkpt lat="45.29482162557542324066162109375" lon="-71.10530725680291652679443359375">
        <ele>903.4000244140625</ele>
        <time>2026-08-21T23:59:09.000Z</time>
        <extensions>
          <ns3:TrackPointExtension>
            <ns3:hr>117</ns3:hr>
            <ns3:cad>0</ns3:cad>
          </ns3:TrackPointExtension>
        </extensions>
      </trkpt>
      <trkpt lat="45.2948118187487125396728515625" lon="-71.1053058318793773651123046875">
        <ele>903</ele>
        <time>2026-08-21T23:59:10.000Z</time>
        <extensions>
          <ns3:TrackPointExtension>
            <ns3:hr>116</ns3:hr>
            <ns3:cad>0</ns3:cad>
          </ns3:TrackPointExtension>
        </extensions>
      </trkpt>
      <trkpt lat="45.294799245893955230712890625" lon="-71.10530138947069644927978515625">
        <ele>902.4000244140625</ele>
        <time>2026-08-21T23:59:11.000Z</time>
        <extensions>
          <ns3:TrackPointExtension>
            <ns3:hr>116</ns3:hr>
            <ns3:cad>0</ns3:cad>
          </ns3:TrackPointExtension>
        </extensions>
      </trkpt>
      <trkpt lat="45.29478927142918109893798828125" lon="-71.105302311480045318603515625">
        <ele>902.20001220703125</ele>
        <time>2026-08-21T23:59:12.000Z</time>
        <extensions>
          <ns3:TrackPointExtension>
            <ns3:hr>116</ns3:hr>
            <ns3:cad>0</ns3:cad>
          </ns3:TrackPointExtension>
        </extensions>
      </trkpt>
      <trkpt lat="45.2947787940502166748046875" lon="-71.10530239529907703399658203125">
        <ele>901.79998779296875</ele>
        <time>2026-08-21T23:59:13.000Z</time>
        <extensions>
          <ns3:TrackPointExtension>
            <ns3:hr>115</ns3:hr>
            <ns3:cad>0</ns3:cad>
          </ns3:TrackPointExtension>
        </extensions>
      </trkpt>
      <trkpt lat="45.29477083124220371246337890625" lon="-71.10530273057520389556884765625">
        <ele>901.5999755859375</ele>
        <time>2026-08-21T23:59:14.000Z</time>
        <extensions>
          <ns3:TrackPointExtension>
            <ns3:hr>115</ns3:hr>
            <ns3:cad>0</ns3:cad>
          </ns3:TrackPointExtension>
        </extensions>
      </trkpt>
      <trkpt lat="45.29476194642484188079833984375" lon="-71.1053004674613475799560546875">
        <ele>901.20001220703125</ele>
        <time>2026-08-21T23:59:15.000Z</time>
        <extensions>
          <ns3:TrackPointExtension>
            <ns3:hr>115</ns3:hr>
            <ns3:cad>0</ns3:cad>
          </ns3:TrackPointExtension>
        </extensions>
      </trkpt>
      <trkpt lat="45.29474937357008457183837890625" lon="-71.1052974499762058258056640625">
        <ele>901</ele>
        <time>2026-08-21T23:59:16.000Z</time>
        <extensions>
          <ns3:TrackPointExtension>
            <ns3:hr>115</ns3:hr>
            <ns3:cad>0</ns3:cad>
          </ns3:TrackPointExtension>
        </extensions>
      </trkpt>
      <trkpt lat="45.2947358787059783935546875" lon="-71.10529568977653980255126953125">
        <ele>900.5999755859375</ele>
        <time>2026-08-21T23:59:17.000Z</time>
        <extensions>
          <ns3:TrackPointExtension>
            <ns3:hr>115</ns3:hr>
            <ns3:cad>57</ns3:cad>
          </ns3:TrackPointExtension>
        </extensions>
      </trkpt>
      <trkpt lat="45.29472623951733112335205078125" lon="-71.10530071891844272613525390625">
        <ele>900.20001220703125</ele>
        <time>2026-08-21T23:59:18.000Z</time>
        <extensions>
          <ns3:TrackPointExtension>
            <ns3:hr>115</ns3:hr>
            <ns3:cad>57</ns3:cad>
          </ns3:TrackPointExtension>
        </extensions>
      </trkpt>
      <trkpt lat="45.2947132475674152374267578125" lon="-71.1052991263568401336669921875">
        <ele>899.5999755859375</ele>
        <time>2026-08-21T23:59:19.000Z</time>
        <extensions>
          <ns3:TrackPointExtension>
            <ns3:hr>114</ns3:hr>
            <ns3:cad>57</ns3:cad>
          </ns3:TrackPointExtension>
        </extensions>
      </trkpt>
      <trkpt lat="45.2947010099887847900390625" lon="-71.105300970375537872314453125">
        <ele>899.20001220703125</ele>
        <time>2026-08-21T23:59:20.000Z</time>
        <extensions>
          <ns3:TrackPointExtension>
            <ns3:hr>114</ns3:hr>
            <ns3:cad>57</ns3:cad>
          </ns3:TrackPointExtension>
        </extensions>
      </trkpt>
      <trkpt lat="45.2946891076862812042236328125" lon="-71.105302982032299041748046875">
        <ele>898.79998779296875</ele>
        <time>2026-08-21T23:59:21.000Z</time>
        <extensions>
          <ns3:TrackPointExtension>
            <ns3:hr>114</ns3:hr>
            <ns3:cad>57</ns3:cad>
          </ns3:TrackPointExtension>
        </extensions>
      </trkpt>
      <trkpt lat="45.29467829503118991851806640625" lon="-71.10529585741460323333740234375">
        <ele>898.4000244140625</ele>
        <time>2026-08-21T23:59:22.000Z</time>
        <extensions>
          <ns3:TrackPointExtension>
            <ns3:hr>113</ns3:hr>
            <ns3:cad>57</ns3:cad>
          </ns3:TrackPointExtension>
        </extensions>
      </trkpt>
      <trkpt lat="45.29467142187058925628662109375" lon="-71.105298288166522979736328125">
        <ele>898</ele>
        <time>2026-08-21T23:59:23.000Z</time>
        <extensions>
          <ns3:TrackPointExtension>
            <ns3:hr>113</ns3:hr>
            <ns3:cad>57</ns3:cad>
          </ns3:TrackPointExtension>
        </extensions>
      </trkpt>
      <trkpt lat="45.2946606092154979705810546875" lon="-71.10530004836618900299072265625">
        <ele>897.5999755859375</ele>
        <time>2026-08-21T23:59:24.000Z</time>
        <extensions>
          <ns3:TrackPointExtension>
            <ns3:hr>113</ns3:hr>
            <ns3:cad>50</ns3:cad>
          </ns3:TrackPointExtension>
        </extensions>
      </trkpt>
      <trkpt lat="45.2946505509316921234130859375" lon="-71.1052994616329669952392578125">
        <ele>897.20001220703125</ele>
        <time>2026-08-21T23:59:25.000Z</time>
        <extensions>
          <ns3:TrackPointExtension>
            <ns3:hr>113</ns3:hr>
            <ns3:cad>50</ns3:cad>
          </ns3:TrackPointExtension>
        </extensions>
      </trkpt>
      <trkpt lat="45.2946378104388713836669921875" lon="-71.1053011380136013031005859375">
        <ele>896.79998779296875</ele>
        <time>2026-08-21T23:59:26.000Z</time>
        <extensions>
          <ns3:TrackPointExtension>
            <ns3:hr>113</ns3:hr>
            <ns3:cad>50</ns3:cad>
          </ns3:TrackPointExtension>
        </extensions>
      </trkpt>
      <trkpt lat="45.29462389647960662841796875" lon="-71.10530658625066280364990234375">
        <ele>896.20001220703125</ele>
        <time>2026-08-21T23:59:27.000Z</time>
        <extensions>
          <ns3:TrackPointExtension>
            <ns3:hr>113</ns3:hr>
            <ns3:cad>50</ns3:cad>
          </ns3:TrackPointExtension>
        </extensions>
      </trkpt>
      <trkpt lat="45.29461383819580078125" lon="-71.10530608333647251129150390625">
        <ele>895.79998779296875</ele>
        <time>2026-08-21T23:59:28.000Z</time>
        <extensions>
          <ns3:TrackPointExtension>
            <ns3:hr>112</ns3:hr>
            <ns3:cad>50</ns3:cad>
          </ns3:TrackPointExtension>
        </extensions>
      </trkpt>
      <trkpt lat="45.2946002595126628875732421875" lon="-71.1053078435361385345458984375">
        <ele>895.5999755859375</ele>
        <time>2026-08-21T23:59:29.000Z</time>
        <extensions>
          <ns3:TrackPointExtension>
            <ns3:hr>112</ns3:hr>
            <ns3:cad>52</ns3:cad>
          </ns3:TrackPointExtension>
        </extensions>
      </trkpt>
      <trkpt lat="45.2945888601243495941162109375" lon="-71.10530926845967769622802734375">
        <ele>895.4000244140625</ele>
        <time>2026-08-21T23:59:30.000Z</time>
        <extensions>
          <ns3:TrackPointExtension>
            <ns3:hr>114</ns3:hr>
            <ns3:cad>52</ns3:cad>
          </ns3:TrackPointExtension>
        </extensions>
      </trkpt>
      <trkpt lat="45.2945801429450511932373046875" lon="-71.105303652584552764892578125">
        <ele>895.4000244140625</ele>
        <time>2026-08-21T23:59:31.000Z</time>
        <extensions>
          <ns3:TrackPointExtension>
            <ns3:hr>114</ns3:hr>
            <ns3:cad>52</ns3:cad>
          </ns3:TrackPointExtension>
        </extensions>
      </trkpt>
      <trkpt lat="45.29456891119480133056640625" lon="-71.10529921017587184906005859375">
        <ele>895.4000244140625</ele>
        <time>2026-08-21T23:59:32.000Z</time>
        <extensions>
          <ns3:TrackPointExtension>
            <ns3:hr>114</ns3:hr>
            <ns3:cad>52</ns3:cad>
          </ns3:TrackPointExtension>
        </extensions>
      </trkpt>
      <trkpt lat="45.294558517634868621826171875" lon="-71.10530172474682331085205078125">
        <ele>895.4000244140625</ele>
        <time>2026-08-21T23:59:33.000Z</time>
        <extensions>
          <ns3:TrackPointExtension>
            <ns3:hr>113</ns3:hr>
            <ns3:cad>52</ns3:cad>
          </ns3:TrackPointExtension>
        </extensions>
      </trkpt>
      <trkpt lat="45.29454887844622135162353515625" lon="-71.10530407167971134185791015625">
        <ele>895.5999755859375</ele>
        <time>2026-08-21T23:59:34.000Z</time>
        <extensions>
          <ns3:TrackPointExtension>
            <ns3:hr>112</ns3:hr>
            <ns3:cad>58</ns3:cad>
          </ns3:TrackPointExtension>
        </extensions>
      </trkpt>
      <trkpt lat="45.29454217292368412017822265625" lon="-71.10531077720224857330322265625">
        <ele>895.79998779296875</ele>
        <time>2026-08-21T23:59:35.000Z</time>
        <extensions>
          <ns3:TrackPointExtension>
            <ns3:hr>111</ns3:hr>
            <ns3:cad>58</ns3:cad>
          </ns3:TrackPointExtension>
        </extensions>
      </trkpt>
      <trkpt lat="45.29453882016241550445556640625" lon="-71.10530843026936054229736328125">
        <ele>896.20001220703125</ele>
        <time>2026-08-21T23:59:36.000Z</time>
        <extensions>
          <ns3:TrackPointExtension>
            <ns3:hr>110</ns3:hr>
            <ns3:cad>0</ns3:cad>
          </ns3:TrackPointExtension>
        </extensions>
      </trkpt>
      <trkpt lat="45.2945352159440517425537109375" lon="-71.10530206002295017242431640625">
        <ele>896.4000244140625</ele>
        <time>2026-08-21T23:59:37.000Z</time>
        <extensions>
          <ns3:TrackPointExtension>
            <ns3:hr>110</ns3:hr>
            <ns3:cad>0</ns3:cad>
          </ns3:TrackPointExtension>
        </extensions>
      </trkpt>
      <trkpt lat="45.29453161172568798065185546875" lon="-71.1053044907748699188232421875">
        <ele>896.79998779296875</ele>
        <time>2026-08-21T23:59:38.000Z</time>
        <extensions>
          <ns3:TrackPointExtension>
            <ns3:hr>110</ns3:hr>
            <ns3:cad>0</ns3:cad>
          </ns3:TrackPointExtension>
        </extensions>
      </trkpt>
      <trkpt lat="45.2945144288241863250732421875" lon="-71.10530558042228221893310546875">
        <ele>897.20001220703125</ele>
        <time>2026-08-21T23:59:39.000Z</time>
        <extensions>
          <ns3:TrackPointExtension>
            <ns3:hr>110</ns3:hr>
            <ns3:cad>0</ns3:cad>
          </ns3:TrackPointExtension>
        </extensions>
      </trkpt>
      <trkpt lat="45.2945006825029850006103515625" lon="-71.10531295649707317352294921875">
        <ele>897.5999755859375</ele>
        <time>2026-08-21T23:59:40.000Z</time>
        <extensions>
          <ns3:TrackPointExtension>
            <ns3:hr>110</ns3:hr>
            <ns3:cad>0</ns3:cad>
          </ns3:TrackPointExtension>
        </extensions>
      </trkpt>
      <trkpt lat="45.29449154622852802276611328125" lon="-71.10531748272478580474853515625">
        <ele>897.79998779296875</ele>
        <time>2026-08-21T23:59:41.000Z</time>
        <extensions>
          <ns3:TrackPointExtension>
            <ns3:hr>111</ns3:hr>
            <ns3:cad>0</ns3:cad>
          </ns3:TrackPointExtension>
        </extensions>
      </trkpt>
      <trkpt lat="45.29448064975440502166748046875" lon="-71.10532619990408420562744140625">
        <ele>898.20001220703125</ele>
        <time>2026-08-21T23:59:42.000Z</time>
        <extensions>
          <ns3:TrackPointExtension>
            <ns3:hr>111</ns3:hr>
            <ns3:cad>0</ns3:cad>
          </ns3:TrackPointExtension>
        </extensions>
      </trkpt>
      <trkpt lat="45.2944681607186794281005859375" lon="-71.10532770864665508270263671875">
        <ele>898.20001220703125</ele>
        <time>2026-08-21T23:59:43.000Z</time>
        <extensions>
          <ns3:TrackPointExtension>
            <ns3:hr>112</ns3:hr>
            <ns3:cad>0</ns3:cad>
          </ns3:TrackPointExtension>
        </extensions>
      </trkpt>
      <trkpt lat="45.2944503910839557647705078125" lon="-71.10533458180725574493408203125">
        <ele>898.4000244140625</ele>
        <time>2026-08-21T23:59:44.000Z</time>
        <extensions>
          <ns3:TrackPointExtension>
            <ns3:hr>112</ns3:hr>
            <ns3:cad>0</ns3:cad>
          </ns3:TrackPointExtension>
        </extensions>
      </trkpt>
      <trkpt lat="45.29443672858178615570068359375" lon="-71.1053435504436492919921875">
        <ele>898.4000244140625</ele>
        <time>2026-08-21T23:59:45.000Z</time>
        <extensions>
          <ns3:TrackPointExtension>
            <ns3:hr>112</ns3:hr>
            <ns3:cad>0</ns3:cad>
          </ns3:TrackPointExtension>
        </extensions>
      </trkpt>
      <trkpt lat="45.29441778548061847686767578125" lon="-71.10535486601293087005615234375">
        <ele>898.4000244140625</ele>
        <time>2026-08-21T23:59:46.000Z</time>
        <extensions>
          <ns3:TrackPointExtension>
            <ns3:hr>112</ns3:hr>
            <ns3:cad>0</ns3:cad>
          </ns3:TrackPointExtension>
        </extensions>
      </trkpt>
      <trkpt lat="45.29439724981784820556640625" lon="-71.10536425374448299407958984375">
        <ele>898.4000244140625</ele>
        <time>2026-08-21T23:59:47.000Z</time>
        <extensions>
          <ns3:TrackPointExtension>
            <ns3:hr>111</ns3:hr>
            <ns3:cad>0</ns3:cad>
          </ns3:TrackPointExtension>
        </extensions>
      </trkpt>
      <trkpt lat="45.29438224621117115020751953125" lon="-71.10536727122962474822998046875">
        <ele>898.4000244140625</ele>
        <time>2026-08-21T23:59:48.000Z</time>
        <extensions>
          <ns3:TrackPointExtension>
            <ns3:hr>111</ns3:hr>
            <ns3:cad>0</ns3:cad>
          </ns3:TrackPointExtension>
        </extensions>
      </trkpt>
      <trkpt lat="45.2943669073283672332763671875" lon="-71.10537012107670307159423828125">
        <ele>898.4000244140625</ele>
        <time>2026-08-21T23:59:49.000Z</time>
        <extensions>
          <ns3:TrackPointExtension>
            <ns3:hr>109</ns3:hr>
            <ns3:cad>0</ns3:cad>
          </ns3:TrackPointExtension>
        </extensions>
      </trkpt>
      <trkpt lat="45.2943437732756137847900390625" lon="-71.1053811013698577880859375">
        <ele>898.4000244140625</ele>
        <time>2026-08-21T23:59:50.000Z</time>
        <extensions>
          <ns3:TrackPointExtension>
            <ns3:hr>108</ns3:hr>
            <ns3:cad>0</ns3:cad>
          </ns3:TrackPointExtension>
        </extensions>
      </trkpt>
      <trkpt lat="45.2943293564021587371826171875" lon="-71.10538571141660213470458984375">
        <ele>898.4000244140625</ele>
        <time>2026-08-21T23:59:51.000Z</time>
        <extensions>
          <ns3:TrackPointExtension>
            <ns3:hr>107</ns3:hr>
            <ns3:cad>0</ns3:cad>
          </ns3:TrackPointExtension>
        </extensions>
      </trkpt>
      <trkpt lat="45.2943095751106739044189453125" lon="-71.105376742780208587646484375">
        <ele>898.4000244140625</ele>
        <time>2026-08-21T23:59:52.000Z</time>
        <extensions>
          <ns3:TrackPointExtension>
            <ns3:hr>107</ns3:hr>
            <ns3:cad>0</ns3:cad>
          </ns3:TrackPointExtension>
        </extensions>
      </trkpt>
      <trkpt lat="45.29429406858980655670166015625" lon="-71.1053772456943988800048828125">
        <ele>898.5999755859375</ele>
        <time>2026-08-21T23:59:53.000Z</time>
        <extensions>
          <ns3:TrackPointExtension>
            <ns3:hr>107</ns3:hr>
            <ns3:cad>68</ns3:cad>
          </ns3:TrackPointExtension>
        </extensions>
      </trkpt>
      <trkpt lat="45.29427881352603435516357421875" lon="-71.1053816042840480804443359375">
        <ele>898.5999755859375</ele>
        <time>2026-08-21T23:59:54.000Z</time>
        <extensions>
          <ns3:TrackPointExtension>
            <ns3:hr>108</ns3:hr>
            <ns3:cad>68</ns3:cad>
          </ns3:TrackPointExtension>
        </extensions>
      </trkpt>
      <trkpt lat="45.29426322318613529205322265625" lon="-71.10538286156952381134033203125">
        <ele>898.5999755859375</ele>
        <time>2026-08-21T23:59:55.000Z</time>
        <extensions>
          <ns3:TrackPointExtension>
            <ns3:hr>109</ns3:hr>
            <ns3:cad>68</ns3:cad>
          </ns3:TrackPointExtension>
        </extensions>
      </trkpt>
      <trkpt lat="45.29424847103655338287353515625" lon="-71.10538319684565067291259765625">
        <ele>898.79998779296875</ele>
        <time>2026-08-21T23:59:56.000Z</time>
        <extensions>
          <ns3:TrackPointExtension>
            <ns3:hr>109</ns3:hr>
            <ns3:cad>68</ns3:cad>
          </ns3:TrackPointExtension>
        </extensions>
      </trkpt>
      <trkpt lat="45.29423489235341548919677734375" lon="-71.105385459959506988525390625">
        <ele>898.5999755859375</ele>
        <time>2026-08-21T23:59:57.000Z</time>
        <extensions>
          <ns3:TrackPointExtension>
            <ns3:hr>109</ns3:hr>
            <ns3:cad>67</ns3:cad>
          </ns3:TrackPointExtension>
        </extensions>
      </trkpt>
      <trkpt lat="45.29421561397612094879150390625" lon="-71.1053876392543315887451171875">
        <ele>898.5999755859375</ele>
        <time>2026-08-21T23:59:58.000Z</time>
        <extensions>
          <ns3:TrackPointExtension>
            <ns3:hr>110</ns3:hr>
            <ns3:cad>67</ns3:cad>
          </ns3:TrackPointExtension>
        </extensions>
      </trkpt>
      <trkpt lat="45.29419683851301670074462890625" lon="-71.105384118854999542236328125">
        <ele>898.4000244140625</ele>
        <time>2026-08-21T23:59:59.000Z</time>
        <extensions>
          <ns3:TrackPointExtension>
            <ns3:hr>110</ns3:hr>
            <ns3:cad>67</ns3:cad>
          </ns3:TrackPointExtension>
        </extensions>
      </trkpt>
      <trkpt lat="45.29418108053505420684814453125" lon="-71.10538420267403125762939453125">
        <ele>898.20001220703125</ele>
        <time>2026-08-22T00:00:00.000Z</time>
        <extensions>
          <ns3:TrackPointExtension>
            <ns3:hr>109</ns3:hr>
            <ns3:cad>70</ns3:cad>
          </ns3:TrackPointExtension>
        </extensions>
      </trkpt>
      <trkpt lat="45.29416649602353572845458984375" lon="-71.105384118854999542236328125">
        <ele>898.20001220703125</ele>
        <time>2026-08-22T00:00:01.000Z</time>
        <extensions>
          <ns3:TrackPointExtension>
            <ns3:hr>110</ns3:hr>
            <ns3:cad>70</ns3:cad>
          </ns3:TrackPointExtension>
        </extensions>
      </trkpt>
      <trkpt lat="45.29415207915008068084716796875" lon="-71.10538621433079242706298828125">
        <ele>898.20001220703125</ele>
        <time>2026-08-22T00:00:02.000Z</time>
        <extensions>
          <ns3:TrackPointExtension>
            <ns3:hr>110</ns3:hr>
            <ns3:cad>70</ns3:cad>
          </ns3:TrackPointExtension>
        </extensions>
      </trkpt>
      <trkpt lat="45.29413548298180103302001953125" lon="-71.10538520850241184234619140625">
        <ele>898.20001220703125</ele>
        <time>2026-08-22T00:00:03.000Z</time>
        <extensions>
          <ns3:TrackPointExtension>
            <ns3:hr>110</ns3:hr>
            <ns3:cad>70</ns3:cad>
          </ns3:TrackPointExtension>
        </extensions>
      </trkpt>
      <trkpt lat="45.2941191382706165313720703125" lon="-71.10538369975984096527099609375">
        <ele>898.4000244140625</ele>
        <time>2026-08-22T00:00:04.000Z</time>
        <extensions>
          <ns3:TrackPointExtension>
            <ns3:hr>110</ns3:hr>
            <ns3:cad>67</ns3:cad>
          </ns3:TrackPointExtension>
        </extensions>
      </trkpt>
      <trkpt lat="45.294105224311351776123046875" lon="-71.1053856275975704193115234375">
        <ele>898.20001220703125</ele>
        <time>2026-08-22T00:00:05.000Z</time>
        <extensions>
          <ns3:TrackPointExtension>
            <ns3:hr>110</ns3:hr>
            <ns3:cad>67</ns3:cad>
          </ns3:TrackPointExtension>
        </extensions>
      </trkpt>
      <trkpt lat="45.2940899692475795745849609375" lon="-71.1053913272917270660400390625">
        <ele>898.20001220703125</ele>
        <time>2026-08-22T00:00:06.000Z</time>
        <extensions>
          <ns3:TrackPointExtension>
            <ns3:hr>110</ns3:hr>
            <ns3:cad>67</ns3:cad>
          </ns3:TrackPointExtension>
        </extensions>
      </trkpt>
      <trkpt lat="45.29407798312604427337646484375" lon="-71.1053945124149322509765625">
        <ele>898</ele>
        <time>2026-08-22T00:00:07.000Z</time>
        <extensions>
          <ns3:TrackPointExtension>
            <ns3:hr>111</ns3:hr>
            <ns3:cad>67</ns3:cad>
          </ns3:TrackPointExtension>
        </extensions>
      </trkpt>
      <trkpt lat="45.29406323097646236419677734375" lon="-71.105402894318103790283203125">
        <ele>897.5999755859375</ele>
        <time>2026-08-22T00:00:08.000Z</time>
        <extensions>
          <ns3:TrackPointExtension>
            <ns3:hr>111</ns3:hr>
            <ns3:cad>67</ns3:cad>
          </ns3:TrackPointExtension>
        </extensions>
      </trkpt>
      <trkpt lat="45.2940510772168636322021484375" lon="-71.10541085712611675262451171875">
        <ele>897.20001220703125</ele>
        <time>2026-08-22T00:00:09.000Z</time>
        <extensions>
          <ns3:TrackPointExtension>
            <ns3:hr>112</ns3:hr>
            <ns3:cad>67</ns3:cad>
          </ns3:TrackPointExtension>
        </extensions>
      </trkpt>
      <trkpt lat="45.29404026456177234649658203125" lon="-71.1054131202399730682373046875">
        <ele>896.79998779296875</ele>
        <time>2026-08-22T00:00:10.000Z</time>
        <extensions>
          <ns3:TrackPointExtension>
            <ns3:hr>112</ns3:hr>
            <ns3:cad>67</ns3:cad>
          </ns3:TrackPointExtension>
        </extensions>
      </trkpt>
      <trkpt lat="45.29402785934507846832275390625" lon="-71.10540867783129215240478515625">
        <ele>896.4000244140625</ele>
        <time>2026-08-22T00:00:11.000Z</time>
        <extensions>
          <ns3:TrackPointExtension>
            <ns3:hr>112</ns3:hr>
            <ns3:cad>67</ns3:cad>
          </ns3:TrackPointExtension>
        </extensions>
      </trkpt>
      <trkpt lat="45.2940170466899871826171875" lon="-71.10541035421192646026611328125">
        <ele>895.79998779296875</ele>
        <time>2026-08-22T00:00:12.000Z</time>
        <extensions>
          <ns3:TrackPointExtension>
            <ns3:hr>111</ns3:hr>
            <ns3:cad>41</ns3:cad>
          </ns3:TrackPointExtension>
        </extensions>
      </trkpt>
      <trkpt lat="45.2940064854919910430908203125" lon="-71.10540834255516529083251953125">
        <ele>895.4000244140625</ele>
        <time>2026-08-22T00:00:13.000Z</time>
        <extensions>
          <ns3:TrackPointExtension>
            <ns3:hr>111</ns3:hr>
            <ns3:cad>41</ns3:cad>
          </ns3:TrackPointExtension>
        </extensions>
      </trkpt>
      <trkpt lat="45.29399223625659942626953125" lon="-71.1054030619561672210693359375">
        <ele>895</ele>
        <time>2026-08-22T00:00:14.000Z</time>
        <extensions>
          <ns3:TrackPointExtension>
            <ns3:hr>110</ns3:hr>
            <ns3:cad>77</ns3:cad>
          </ns3:TrackPointExtension>
        </extensions>
      </trkpt>
      <trkpt lat="45.29397790320217609405517578125" lon="-71.10540188848972320556640625">
        <ele>894.5999755859375</ele>
        <time>2026-08-22T00:00:15.000Z</time>
        <extensions>
          <ns3:TrackPointExtension>
            <ns3:hr>110</ns3:hr>
            <ns3:cad>77</ns3:cad>
          </ns3:TrackPointExtension>
        </extensions>
      </trkpt>
      <trkpt lat="45.2939662523567676544189453125" lon="-71.10540322959423065185546875">
        <ele>894.20001220703125</ele>
        <time>2026-08-22T00:00:16.000Z</time>
        <extensions>
          <ns3:TrackPointExtension>
            <ns3:hr>110</ns3:hr>
            <ns3:cad>77</ns3:cad>
          </ns3:TrackPointExtension>
        </extensions>
      </trkpt>
      <trkpt lat="45.29395476914942264556884765625" lon="-71.10539929009974002838134765625">
        <ele>893.79998779296875</ele>
        <time>2026-08-22T00:00:17.000Z</time>
        <extensions>
          <ns3:TrackPointExtension>
            <ns3:hr>109</ns3:hr>
            <ns3:cad>0</ns3:cad>
          </ns3:TrackPointExtension>
        </extensions>
      </trkpt>
      <trkpt lat="45.29394328594207763671875" lon="-71.10540130175650119781494140625">
        <ele>893.4000244140625</ele>
        <time>2026-08-22T00:00:18.000Z</time>
        <extensions>
          <ns3:TrackPointExtension>
            <ns3:hr>109</ns3:hr>
            <ns3:cad>0</ns3:cad>
          </ns3:TrackPointExtension>
        </extensions>
      </trkpt>
      <trkpt lat="45.2939313836395740509033203125" lon="-71.10539853572845458984375">
        <ele>892.79998779296875</ele>
        <time>2026-08-22T00:00:19.000Z</time>
        <extensions>
          <ns3:TrackPointExtension>
            <ns3:hr>108</ns3:hr>
            <ns3:cad>0</ns3:cad>
          </ns3:TrackPointExtension>
        </extensions>
      </trkpt>
      <trkpt lat="45.293918140232563018798828125" lon="-71.10539593733847141265869140625">
        <ele>892.4000244140625</ele>
        <time>2026-08-22T00:00:20.000Z</time>
        <extensions>
          <ns3:TrackPointExtension>
            <ns3:hr>108</ns3:hr>
            <ns3:cad>0</ns3:cad>
          </ns3:TrackPointExtension>
        </extensions>
      </trkpt>
      <trkpt lat="45.29390104115009307861328125" lon="-71.1054003797471523284912109375">
        <ele>891.79998779296875</ele>
        <time>2026-08-22T00:00:21.000Z</time>
        <extensions>
          <ns3:TrackPointExtension>
            <ns3:hr>108</ns3:hr>
            <ns3:cad>0</ns3:cad>
          </ns3:TrackPointExtension>
        </extensions>
      </trkpt>
      <trkpt lat="45.293890647590160369873046875" lon="-71.10540188848972320556640625">
        <ele>891.4000244140625</ele>
        <time>2026-08-22T00:00:22.000Z</time>
        <extensions>
          <ns3:TrackPointExtension>
            <ns3:hr>107</ns3:hr>
            <ns3:cad>46</ns3:cad>
          </ns3:TrackPointExtension>
        </extensions>
      </trkpt>
      <trkpt lat="45.2938802540302276611328125" lon="-71.1053931713104248046875">
        <ele>890.79998779296875</ele>
        <time>2026-08-22T00:00:23.000Z</time>
        <extensions>
          <ns3:TrackPointExtension>
            <ns3:hr>107</ns3:hr>
            <ns3:cad>46</ns3:cad>
          </ns3:TrackPointExtension>
        </extensions>
      </trkpt>
      <trkpt lat="45.2938710339367389678955078125" lon="-71.10538437031209468841552734375">
        <ele>890.4000244140625</ele>
        <time>2026-08-22T00:00:24.000Z</time>
        <extensions>
          <ns3:TrackPointExtension>
            <ns3:hr>106</ns3:hr>
            <ns3:cad>46</ns3:cad>
          </ns3:TrackPointExtension>
        </extensions>
      </trkpt>
      <trkpt lat="45.29385636560618877410888671875" lon="-71.1053779162466526031494140625">
        <ele>890</ele>
        <time>2026-08-22T00:00:25.000Z</time>
        <extensions>
          <ns3:TrackPointExtension>
            <ns3:hr>107</ns3:hr>
            <ns3:cad>46</ns3:cad>
          </ns3:TrackPointExtension>
        </extensions>
      </trkpt>
      <trkpt lat="45.2938455529510974884033203125" lon="-71.10536945052444934844970703125">
        <ele>889.5999755859375</ele>
        <time>2026-08-22T00:00:26.000Z</time>
        <extensions>
          <ns3:TrackPointExtension>
            <ns3:hr>107</ns3:hr>
            <ns3:cad>40</ns3:cad>
          </ns3:TrackPointExtension>
        </extensions>
      </trkpt>
      <trkpt lat="45.29383205808699131011962890625" lon="-71.1053564585745334625244140625">
        <ele>889.20001220703125</ele>
        <time>2026-08-22T00:00:27.000Z</time>
        <extensions>
          <ns3:TrackPointExtension>
            <ns3:hr>110</ns3:hr>
            <ns3:cad>40</ns3:cad>
          </ns3:TrackPointExtension>
        </extensions>
      </trkpt>
      <trkpt lat="45.29382099397480487823486328125" lon="-71.10534765757620334625244140625">
        <ele>888.5999755859375</ele>
        <time>2026-08-22T00:00:28.000Z</time>
        <extensions>
          <ns3:TrackPointExtension>
            <ns3:hr>113</ns3:hr>
            <ns3:cad>71</ns3:cad>
          </ns3:TrackPointExtension>
        </extensions>
      </trkpt>
      <trkpt lat="45.2938073314726352691650390625" lon="-71.1053393594920635223388671875">
        <ele>888.20001220703125</ele>
        <time>2026-08-22T00:00:29.000Z</time>
        <extensions>
          <ns3:TrackPointExtension>
            <ns3:hr>118</ns3:hr>
            <ns3:cad>71</ns3:cad>
          </ns3:TrackPointExtension>
        </extensions>
      </trkpt>
      <trkpt lat="45.29379601590335369110107421875" lon="-71.10532837919890880584716796875">
        <ele>887.79998779296875</ele>
        <time>2026-08-22T00:00:30.000Z</time>
        <extensions>
          <ns3:TrackPointExtension>
            <ns3:hr>123</ns3:hr>
            <ns3:cad>0</ns3:cad>
          </ns3:TrackPointExtension>
        </extensions>
      </trkpt>
      <trkpt lat="45.2937862090766429901123046875" lon="-71.10532167367637157440185546875">
        <ele>887.5999755859375</ele>
        <time>2026-08-22T00:00:31.000Z</time>
        <extensions>
          <ns3:TrackPointExtension>
            <ns3:hr>125</ns3:hr>
            <ns3:cad>0</ns3:cad>
          </ns3:TrackPointExtension>
        </extensions>
      </trkpt>
      <trkpt lat="45.29377774335443973541259765625" lon="-71.1053132079541683197021484375">
        <ele>887.20001220703125</ele>
        <time>2026-08-22T00:00:32.000Z</time>
        <extensions>
          <ns3:TrackPointExtension>
            <ns3:hr>129</ns3:hr>
            <ns3:cad>0</ns3:cad>
          </ns3:TrackPointExtension>
        </extensions>
      </trkpt>
      <trkpt lat="45.2937687747180461883544921875" lon="-71.10530306585133075714111328125">
        <ele>887</ele>
        <time>2026-08-22T00:00:33.000Z</time>
        <extensions>
          <ns3:TrackPointExtension>
            <ns3:hr>131</ns3:hr>
            <ns3:cad>76</ns3:cad>
          </ns3:TrackPointExtension>
        </extensions>
      </trkpt>
      <trkpt lat="45.29375360347330570220947265625" lon="-71.1052894033491611480712890625">
        <ele>886.5999755859375</ele>
        <time>2026-08-22T00:00:34.000Z</time>
        <extensions>
          <ns3:TrackPointExtension>
            <ns3:hr>131</ns3:hr>
            <ns3:cad>76</ns3:cad>
          </ns3:TrackPointExtension>
        </extensions>
      </trkpt>
      <trkpt lat="45.293741114437580108642578125" lon="-71.10528311692178249359130859375">
        <ele>886.4000244140625</ele>
        <time>2026-08-22T00:00:35.000Z</time>
        <extensions>
          <ns3:TrackPointExtension>
            <ns3:hr>131</ns3:hr>
            <ns3:cad>76</ns3:cad>
          </ns3:TrackPointExtension>
        </extensions>
      </trkpt>
      <trkpt lat="45.29372778721153736114501953125" lon="-71.10527490265667438507080078125">
        <ele>886</ele>
        <time>2026-08-22T00:00:36.000Z</time>
        <extensions>
          <ns3:TrackPointExtension>
            <ns3:hr>132</ns3:hr>
            <ns3:cad>76</ns3:cad>
          </ns3:TrackPointExtension>
        </extensions>
      </trkpt>
      <trkpt lat="45.29371119104325771331787109375" lon="-71.10526635311543941497802734375">
        <ele>885.79998779296875</ele>
        <time>2026-08-22T00:00:37.000Z</time>
        <extensions>
          <ns3:TrackPointExtension>
            <ns3:hr>132</ns3:hr>
            <ns3:cad>76</ns3:cad>
          </ns3:TrackPointExtension>
        </extensions>
      </trkpt>
      <trkpt lat="45.2936960197985172271728515625" lon="-71.10526082105934619903564453125">
        <ele>885.5999755859375</ele>
        <time>2026-08-22T00:00:38.000Z</time>
        <extensions>
          <ns3:TrackPointExtension>
            <ns3:hr>131</ns3:hr>
            <ns3:cad>0</ns3:cad>
          </ns3:TrackPointExtension>
        </extensions>
      </trkpt>
      <trkpt lat="45.2936817705631256103515625" lon="-71.1052545346319675445556640625">
        <ele>885.5999755859375</ele>
        <time>2026-08-22T00:00:39.000Z</time>
        <extensions>
          <ns3:TrackPointExtension>
            <ns3:hr>131</ns3:hr>
            <ns3:cad>0</ns3:cad>
          </ns3:TrackPointExtension>
        </extensions>
      </trkpt>
      <trkpt lat="45.29366794042289257049560546875" lon="-71.10524942167103290557861328125">
        <ele>885.4000244140625</ele>
        <time>2026-08-22T00:00:40.000Z</time>
        <extensions>
          <ns3:TrackPointExtension>
            <ns3:hr>130</ns3:hr>
            <ns3:cad>69</ns3:cad>
          </ns3:TrackPointExtension>
        </extensions>
      </trkpt>
      <trkpt lat="45.293656624853610992431640625" lon="-71.1052441410720348358154296875">
        <ele>885.4000244140625</ele>
        <time>2026-08-22T00:00:41.000Z</time>
        <extensions>
          <ns3:TrackPointExtension>
            <ns3:hr>129</ns3:hr>
            <ns3:cad>69</ns3:cad>
          </ns3:TrackPointExtension>
        </extensions>
      </trkpt>
      <trkpt lat="45.29364212416112422943115234375" lon="-71.1052411235868930816650390625">
        <ele>885.20001220703125</ele>
        <time>2026-08-22T00:00:42.000Z</time>
        <extensions>
          <ns3:TrackPointExtension>
            <ns3:hr>127</ns3:hr>
            <ns3:cad>69</ns3:cad>
          </ns3:TrackPointExtension>
        </extensions>
      </trkpt>
      <trkpt lat="45.2936259470880031585693359375" lon="-71.1052397824823856353759765625">
        <ele>885</ele>
        <time>2026-08-22T00:00:43.000Z</time>
        <extensions>
          <ns3:TrackPointExtension>
            <ns3:hr>127</ns3:hr>
            <ns3:cad>69</ns3:cad>
          </ns3:TrackPointExtension>
        </extensions>
      </trkpt>
      <trkpt lat="45.29361002147197723388671875" lon="-71.10523651354014873504638671875">
        <ele>884.79998779296875</ele>
        <time>2026-08-22T00:00:44.000Z</time>
        <extensions>
          <ns3:TrackPointExtension>
            <ns3:hr>126</ns3:hr>
            <ns3:cad>69</ns3:cad>
          </ns3:TrackPointExtension>
        </extensions>
      </trkpt>
      <trkpt lat="45.29359635896980762481689453125" lon="-71.10522712580859661102294921875">
        <ele>884.5999755859375</ele>
        <time>2026-08-22T00:00:45.000Z</time>
        <extensions>
          <ns3:TrackPointExtension>
            <ns3:hr>125</ns3:hr>
            <ns3:cad>69</ns3:cad>
          </ns3:TrackPointExtension>
        </extensions>
      </trkpt>
      <trkpt lat="45.2935766614973545074462890625" lon="-71.10522410832345485687255859375">
        <ele>884.4000244140625</ele>
        <time>2026-08-22T00:00:46.000Z</time>
        <extensions>
          <ns3:TrackPointExtension>
            <ns3:hr>125</ns3:hr>
            <ns3:cad>69</ns3:cad>
          </ns3:TrackPointExtension>
        </extensions>
      </trkpt>
      <trkpt lat="45.29356601648032665252685546875" lon="-71.10521606169641017913818359375">
        <ele>884</ele>
        <time>2026-08-22T00:00:47.000Z</time>
        <extensions>
          <ns3:TrackPointExtension>
            <ns3:hr>125</ns3:hr>
            <ns3:cad>65</ns3:cad>
          </ns3:TrackPointExtension>
        </extensions>
      </trkpt>
      <trkpt lat="45.29355528764426708221435546875" lon="-71.10520734451711177825927734375">
        <ele>883.79998779296875</ele>
        <time>2026-08-22T00:00:48.000Z</time>
        <extensions>
          <ns3:TrackPointExtension>
            <ns3:hr>124</ns3:hr>
            <ns3:cad>65</ns3:cad>
          </ns3:TrackPointExtension>
        </extensions>
      </trkpt>
      <trkpt lat="45.29354120604693889617919921875" lon="-71.1052032373845577239990234375">
        <ele>883.79998779296875</ele>
        <time>2026-08-22T00:00:49.000Z</time>
        <extensions>
          <ns3:TrackPointExtension>
            <ns3:hr>124</ns3:hr>
            <ns3:cad>65</ns3:cad>
          </ns3:TrackPointExtension>
        </extensions>
      </trkpt>
      <trkpt lat="45.29352880083024501800537109375" lon="-71.10519829206168651580810546875">
        <ele>883.5999755859375</ele>
        <time>2026-08-22T00:00:50.000Z</time>
        <extensions>
          <ns3:TrackPointExtension>
            <ns3:hr>124</ns3:hr>
            <ns3:cad>0</ns3:cad>
          </ns3:TrackPointExtension>
        </extensions>
      </trkpt>
      <trkpt lat="45.29351740144193172454833984375" lon="-71.10519410111010074615478515625">
        <ele>883.4000244140625</ele>
        <time>2026-08-22T00:00:51.000Z</time>
        <extensions>
          <ns3:TrackPointExtension>
            <ns3:hr>124</ns3:hr>
            <ns3:cad>0</ns3:cad>
          </ns3:TrackPointExtension>
        </extensions>
      </trkpt>
      <trkpt lat="45.29349678196012973785400390625" lon="-71.10518488101661205291748046875">
        <ele>883.20001220703125</ele>
        <time>2026-08-22T00:00:52.000Z</time>
        <extensions>
          <ns3:TrackPointExtension>
            <ns3:hr>125</ns3:hr>
            <ns3:cad>0</ns3:cad>
          </ns3:TrackPointExtension>
        </extensions>
      </trkpt>
      <trkpt lat="45.293483622372150421142578125" lon="-71.10517649911344051361083984375">
        <ele>883</ele>
        <time>2026-08-22T00:00:53.000Z</time>
        <extensions>
          <ns3:TrackPointExtension>
            <ns3:hr>124</ns3:hr>
            <ns3:cad>0</ns3:cad>
          </ns3:TrackPointExtension>
        </extensions>
      </trkpt>
      <trkpt lat="45.29347012750804424285888671875" lon="-71.10516141168773174285888671875">
        <ele>882.79998779296875</ele>
        <time>2026-08-22T00:00:54.000Z</time>
        <extensions>
          <ns3:TrackPointExtension>
            <ns3:hr>124</ns3:hr>
            <ns3:cad>0</ns3:cad>
          </ns3:TrackPointExtension>
        </extensions>
      </trkpt>
      <trkpt lat="45.2934640087187290191650390625" lon="-71.10515453852713108062744140625">
        <ele>882.4000244140625</ele>
        <time>2026-08-22T00:00:55.000Z</time>
        <extensions>
          <ns3:TrackPointExtension>
            <ns3:hr>123</ns3:hr>
            <ns3:cad>0</ns3:cad>
          </ns3:TrackPointExtension>
        </extensions>
      </trkpt>
      <trkpt lat="45.29345504008233547210693359375" lon="-71.105144731700420379638671875">
        <ele>882.20001220703125</ele>
        <time>2026-08-22T00:00:56.000Z</time>
        <extensions>
          <ns3:TrackPointExtension>
            <ns3:hr>123</ns3:hr>
            <ns3:cad>0</ns3:cad>
          </ns3:TrackPointExtension>
        </extensions>
      </trkpt>
      <trkpt lat="45.29344699345529079437255859375" lon="-71.1051261238753795623779296875">
        <ele>881.79998779296875</ele>
        <time>2026-08-22T00:00:57.000Z</time>
        <extensions>
          <ns3:TrackPointExtension>
            <ns3:hr>123</ns3:hr>
            <ns3:cad>0</ns3:cad>
          </ns3:TrackPointExtension>
        </extensions>
      </trkpt>
      <trkpt lat="45.293434001505374908447265625" lon="-71.1051070131361484527587890625">
        <ele>881.4000244140625</ele>
        <time>2026-08-22T00:00:58.000Z</time>
        <extensions>
          <ns3:TrackPointExtension>
            <ns3:hr>122</ns3:hr>
            <ns3:cad>0</ns3:cad>
          </ns3:TrackPointExtension>
        </extensions>
      </trkpt>
      <trkpt lat="45.29342285357415676116943359375" lon="-71.1050942726433277130126953125">
        <ele>881</ele>
        <time>2026-08-22T00:00:59.000Z</time>
        <extensions>
          <ns3:TrackPointExtension>
            <ns3:hr>123</ns3:hr>
            <ns3:cad>73</ns3:cad>
          </ns3:TrackPointExtension>
        </extensions>
      </trkpt>
      <trkpt lat="45.2934096939861774444580078125" lon="-71.105074994266033172607421875">
        <ele>880.5999755859375</ele>
        <time>2026-08-22T00:01:00.000Z</time>
        <extensions>
          <ns3:TrackPointExtension>
            <ns3:hr>123</ns3:hr>
            <ns3:cad>73</ns3:cad>
          </ns3:TrackPointExtension>
        </extensions>
      </trkpt>
      <trkpt lat="45.29339569620788097381591796875" lon="-71.10506032593548297882080078125">
        <ele>880.20001220703125</ele>
        <time>2026-08-22T00:01:01.000Z</time>
        <extensions>
          <ns3:TrackPointExtension>
            <ns3:hr>123</ns3:hr>
            <ns3:cad>73</ns3:cad>
          </ns3:TrackPointExtension>
        </extensions>
      </trkpt>
      <trkpt lat="45.29338077642023563385009765625" lon="-71.10504725016653537750244140625">
        <ele>880</ele>
        <time>2026-08-22T00:01:02.000Z</time>
        <extensions>
          <ns3:TrackPointExtension>
            <ns3:hr>123</ns3:hr>
            <ns3:cad>73</ns3:cad>
          </ns3:TrackPointExtension>
        </extensions>
      </trkpt>
      <trkpt lat="45.29336300678551197052001953125" lon="-71.1050386168062686920166015625">
        <ele>880</ele>
        <time>2026-08-22T00:01:03.000Z</time>
        <extensions>
          <ns3:TrackPointExtension>
            <ns3:hr>123</ns3:hr>
            <ns3:cad>73</ns3:cad>
          </ns3:TrackPointExtension>
        </extensions>
      </trkpt>
      <trkpt lat="45.29334624297916889190673828125" lon="-71.105025708675384521484375">
        <ele>879.79998779296875</ele>
        <time>2026-08-22T00:01:04.000Z</time>
        <extensions>
          <ns3:TrackPointExtension>
            <ns3:hr>123</ns3:hr>
            <ns3:cad>73</ns3:cad>
          </ns3:TrackPointExtension>
        </extensions>
      </trkpt>
      <trkpt lat="45.29333241283893585205078125" lon="-71.1050094477832317352294921875">
        <ele>879.79998779296875</ele>
        <time>2026-08-22T00:01:05.000Z</time>
        <extensions>
          <ns3:TrackPointExtension>
            <ns3:hr>123</ns3:hr>
            <ns3:cad>73</ns3:cad>
          </ns3:TrackPointExtension>
        </extensions>
      </trkpt>
      <trkpt lat="45.2933191694319248199462890625" lon="-71.104989163577556610107421875">
        <ele>879.5999755859375</ele>
        <time>2026-08-22T00:01:06.000Z</time>
        <extensions>
          <ns3:TrackPointExtension>
            <ns3:hr>123</ns3:hr>
            <ns3:cad>71</ns3:cad>
          </ns3:TrackPointExtension>
        </extensions>
      </trkpt>
      <trkpt lat="45.2933067642152309417724609375" lon="-71.1049675382673740386962890625">
        <ele>879.5999755859375</ele>
        <time>2026-08-22T00:01:07.000Z</time>
        <extensions>
          <ns3:TrackPointExtension>
            <ns3:hr>124</ns3:hr>
            <ns3:cad>71</ns3:cad>
          </ns3:TrackPointExtension>
        </extensions>
      </trkpt>
      <trkpt lat="45.29329678975045680999755859375" lon="-71.10494750551879405975341796875">
        <ele>879.5999755859375</ele>
        <time>2026-08-22T00:01:08.000Z</time>
        <extensions>
          <ns3:TrackPointExtension>
            <ns3:hr>124</ns3:hr>
            <ns3:cad>71</ns3:cad>
          </ns3:TrackPointExtension>
        </extensions>
      </trkpt>
      <trkpt lat="45.2932893298566341400146484375" lon="-71.10491448082029819488525390625">
        <ele>879.79998779296875</ele>
        <time>2026-08-22T00:01:09.000Z</time>
        <extensions>
          <ns3:TrackPointExtension>
            <ns3:hr>125</ns3:hr>
            <ns3:cad>75</ns3:cad>
          </ns3:TrackPointExtension>
        </extensions>
      </trkpt>
      <trkpt lat="45.293275751173496246337890625" lon="-71.104889921844005584716796875">
        <ele>879.5999755859375</ele>
        <time>2026-08-22T00:01:10.000Z</time>
        <extensions>
          <ns3:TrackPointExtension>
            <ns3:hr>126</ns3:hr>
            <ns3:cad>75</ns3:cad>
          </ns3:TrackPointExtension>
        </extensions>
      </trkpt>
      <trkpt lat="45.293260999023914337158203125" lon="-71.10487349331378936767578125">
        <ele>879.5999755859375</ele>
        <time>2026-08-22T00:01:11.000Z</time>
        <extensions>
          <ns3:TrackPointExtension>
            <ns3:hr>127</ns3:hr>
            <ns3:cad>76</ns3:cad>
          </ns3:TrackPointExtension>
        </extensions>
      </trkpt>
      <trkpt lat="45.2932430617511272430419921875" lon="-71.1048553884029388427734375">
        <ele>879.4000244140625</ele>
        <time>2026-08-22T00:01:12.000Z</time>
        <extensions>
          <ns3:TrackPointExtension>
            <ns3:hr>127</ns3:hr>
            <ns3:cad>76</ns3:cad>
          </ns3:TrackPointExtension>
        </extensions>
      </trkpt>
      <trkpt lat="45.29322822578251361846923828125" lon="-71.1048354394733905792236328125">
        <ele>879.20001220703125</ele>
        <time>2026-08-22T00:01:13.000Z</time>
        <extensions>
          <ns3:TrackPointExtension>
            <ns3:hr>127</ns3:hr>
            <ns3:cad>76</ns3:cad>
          </ns3:TrackPointExtension>
        </extensions>
      </trkpt>
      <trkpt lat="45.2932169102132320404052734375" lon="-71.10481658019125461578369140625">
        <ele>879</ele>
        <time>2026-08-22T00:01:14.000Z</time>
        <extensions>
          <ns3:TrackPointExtension>
            <ns3:hr>127</ns3:hr>
            <ns3:cad>76</ns3:cad>
          </ns3:TrackPointExtension>
        </extensions>
      </trkpt>
      <trkpt lat="45.29320006258785724639892578125" lon="-71.1047988943755626678466796875">
        <ele>878.79998779296875</ele>
        <time>2026-08-22T00:01:15.000Z</time>
        <extensions>
          <ns3:TrackPointExtension>
            <ns3:hr>126</ns3:hr>
            <ns3:cad>76</ns3:cad>
          </ns3:TrackPointExtension>
        </extensions>
      </trkpt>
      <trkpt lat="45.29318698681890964508056640625" lon="-71.10478707589209079742431640625">
        <ele>878.79998779296875</ele>
        <time>2026-08-22T00:01:16.000Z</time>
        <extensions>
          <ns3:TrackPointExtension>
            <ns3:hr>127</ns3:hr>
            <ns3:cad>76</ns3:cad>
          </ns3:TrackPointExtension>
        </extensions>
      </trkpt>
      <trkpt lat="45.29317558743059635162353515625" lon="-71.10476193018257617950439453125">
        <ele>878.5999755859375</ele>
        <time>2026-08-22T00:01:17.000Z</time>
        <extensions>
          <ns3:TrackPointExtension>
            <ns3:hr>127</ns3:hr>
            <ns3:cad>76</ns3:cad>
          </ns3:TrackPointExtension>
        </extensions>
      </trkpt>
      <trkpt lat="45.293165110051631927490234375" lon="-71.10473980195820331573486328125">
        <ele>878.4000244140625</ele>
        <time>2026-08-22T00:01:18.000Z</time>
        <extensions>
          <ns3:TrackPointExtension>
            <ns3:hr>127</ns3:hr>
            <ns3:cad>75</ns3:cad>
          </ns3:TrackPointExtension>
        </extensions>
      </trkpt>
      <trkpt lat="45.29315295629203319549560546875" lon="-71.1047187633812427520751953125">
        <ele>878.20001220703125</ele>
        <time>2026-08-22T00:01:19.000Z</time>
        <extensions>
          <ns3:TrackPointExtension>
            <ns3:hr>127</ns3:hr>
            <ns3:cad>75</ns3:cad>
          </ns3:TrackPointExtension>
        </extensions>
      </trkpt>
      <trkpt lat="45.2931426465511322021484375" lon="-71.10470241867005825042724609375">
        <ele>878</ele>
        <time>2026-08-22T00:01:20.000Z</time>
        <extensions>
          <ns3:TrackPointExtension>
            <ns3:hr>128</ns3:hr>
            <ns3:cad>75</ns3:cad>
          </ns3:TrackPointExtension>
        </extensions>
      </trkpt>
      <trkpt lat="45.293130241334438323974609375" lon="-71.1046810448169708251953125">
        <ele>877.79998779296875</ele>
        <time>2026-08-22T00:01:21.000Z</time>
        <extensions>
          <ns3:TrackPointExtension>
            <ns3:hr>128</ns3:hr>
            <ns3:cad>0</ns3:cad>
          </ns3:TrackPointExtension>
        </extensions>
      </trkpt>
      <trkpt lat="45.29311456717550754547119140625" lon="-71.10466369427740573883056640625">
        <ele>877.4000244140625</ele>
        <time>2026-08-22T00:01:22.000Z</time>
        <extensions>
          <ns3:TrackPointExtension>
            <ns3:hr>128</ns3:hr>
            <ns3:cad>0</ns3:cad>
          </ns3:TrackPointExtension>
        </extensions>
      </trkpt>
      <trkpt lat="45.293096713721752166748046875" lon="-71.1046486906707286834716796875">
        <ele>877.4000244140625</ele>
        <time>2026-08-22T00:01:23.000Z</time>
        <extensions>
          <ns3:TrackPointExtension>
            <ns3:hr>128</ns3:hr>
            <ns3:cad>76</ns3:cad>
          </ns3:TrackPointExtension>
        </extensions>
      </trkpt>
      <trkpt lat="45.29308154247701168060302734375" lon="-71.10464056022465229034423828125">
        <ele>877.4000244140625</ele>
        <time>2026-08-22T00:01:24.000Z</time>
        <extensions>
          <ns3:TrackPointExtension>
            <ns3:hr>128</ns3:hr>
            <ns3:cad>76</ns3:cad>
          </ns3:TrackPointExtension>
        </extensions>
      </trkpt>
      <trkpt lat="45.29306477867066860198974609375" lon="-71.1046312563121318817138671875">
        <ele>877.20001220703125</ele>
        <time>2026-08-22T00:01:25.000Z</time>
        <extensions>
          <ns3:TrackPointExtension>
            <ns3:hr>127</ns3:hr>
            <ns3:cad>76</ns3:cad>
          </ns3:TrackPointExtension>
        </extensions>
      </trkpt>
      <trkpt lat="45.2930509485304355621337890625" lon="-71.104631759226322174072265625">
        <ele>877.20001220703125</ele>
        <time>2026-08-22T00:01:26.000Z</time>
        <extensions>
          <ns3:TrackPointExtension>
            <ns3:hr>127</ns3:hr>
            <ns3:cad>76</ns3:cad>
          </ns3:TrackPointExtension>
        </extensions>
      </trkpt>
      <trkpt lat="45.2930434048175811767578125" lon="-71.10463385470211505889892578125">
        <ele>877.20001220703125</ele>
        <time>2026-08-22T00:01:27.000Z</time>
        <extensions>
          <ns3:TrackPointExtension>
            <ns3:hr>127</ns3:hr>
            <ns3:cad>66</ns3:cad>
          </ns3:TrackPointExtension>
        </extensions>
      </trkpt>
      <trkpt lat="45.2930398844182491302490234375" lon="-71.1046315915882587432861328125">
        <ele>877.20001220703125</ele>
        <time>2026-08-22T00:01:28.000Z</time>
        <extensions>
          <ns3:TrackPointExtension>
            <ns3:hr>126</ns3:hr>
            <ns3:cad>65</ns3:cad>
          </ns3:TrackPointExtension>
        </extensions>
      </trkpt>
      <trkpt lat="45.29303292743861675262451171875" lon="-71.10462999902665615081787109375">
        <ele>877.20001220703125</ele>
        <time>2026-08-22T00:01:29.000Z</time>
        <extensions>
          <ns3:TrackPointExtension>
            <ns3:hr>125</ns3:hr>
            <ns3:cad>65</ns3:cad>
          </ns3:TrackPointExtension>
        </extensions>
      </trkpt>
      <trkpt lat="45.29302488081157207489013671875" lon="-71.104633100330829620361328125">
        <ele>877</ele>
        <time>2026-08-22T00:01:30.000Z</time>
        <extensions>
          <ns3:TrackPointExtension>
            <ns3:hr>125</ns3:hr>
            <ns3:cad>65</ns3:cad>
          </ns3:TrackPointExtension>
        </extensions>
      </trkpt>
      <trkpt lat="45.2930211089551448822021484375" lon="-71.1046346090734004974365234375">
        <ele>877</ele>
        <time>2026-08-22T00:01:31.000Z</time>
        <extensions>
          <ns3:TrackPointExtension>
            <ns3:hr>125</ns3:hr>
            <ns3:cad>65</ns3:cad>
          </ns3:TrackPointExtension>
        </extensions>
      </trkpt>
      <trkpt lat="45.29301968403160572052001953125" lon="-71.1046379618346691131591796875">
        <ele>877</ele>
        <time>2026-08-22T00:01:32.000Z</time>
        <extensions>
          <ns3:TrackPointExtension>
            <ns3:hr>124</ns3:hr>
            <ns3:cad>0</ns3:cad>
          </ns3:TrackPointExtension>
        </extensions>
      </trkpt>
      <trkpt lat="45.2930187620222568511962890625" lon="-71.1046396382153034210205078125">
        <ele>876.79998779296875</ele>
        <time>2026-08-22T00:01:33.000Z</time>
        <extensions>
          <ns3:TrackPointExtension>
            <ns3:hr>124</ns3:hr>
            <ns3:cad>0</ns3:cad>
          </ns3:TrackPointExtension>
        </extensions>
      </trkpt>
      <trkpt lat="45.2930184267461299896240234375" lon="-71.10463972203433513641357421875">
        <ele>876.79998779296875</ele>
        <time>2026-08-22T00:01:34.000Z</time>
        <extensions>
          <ns3:TrackPointExtension>
            <ns3:hr>124</ns3:hr>
            <ns3:cad>0</ns3:cad>
          </ns3:TrackPointExtension>
        </extensions>
      </trkpt>
      <trkpt lat="45.29301859438419342041015625" lon="-71.1046408116817474365234375">
        <ele>876.79998779296875</ele>
        <time>2026-08-22T00:01:35.000Z</time>
        <extensions>
          <ns3:TrackPointExtension>
            <ns3:hr>124</ns3:hr>
            <ns3:cad>0</ns3:cad>
          </ns3:TrackPointExtension>
        </extensions>
      </trkpt>
      <trkpt lat="45.29301951639354228973388671875" lon="-71.1046413145959377288818359375">
        <ele>877</ele>
        <time>2026-08-22T00:01:36.000Z</time>
        <extensions>
          <ns3:TrackPointExtension>
            <ns3:hr>124</ns3:hr>
            <ns3:cad>0</ns3:cad>
          </ns3:TrackPointExtension>
        </extensions>
      </trkpt>
      <trkpt lat="45.29301985166966915130615234375" lon="-71.1046406440436840057373046875">
        <ele>877</ele>
        <time>2026-08-22T00:01:37.000Z</time>
        <extensions>
          <ns3:TrackPointExtension>
            <ns3:hr>123</ns3:hr>
            <ns3:cad>0</ns3:cad>
          </ns3:TrackPointExtension>
        </extensions>
      </trkpt>
      <trkpt lat="45.293019600212574005126953125" lon="-71.10463988967239856719970703125">
        <ele>877</ele>
        <time>2026-08-22T00:01:38.000Z</time>
        <extensions>
          <ns3:TrackPointExtension>
            <ns3:hr>123</ns3:hr>
            <ns3:cad>0</ns3:cad>
          </ns3:TrackPointExtension>
        </extensions>
      </trkpt>
      <trkpt lat="45.29301683418452739715576171875" lon="-71.10464072786271572113037109375">
        <ele>877</ele>
        <time>2026-08-22T00:01:39.000Z</time>
        <extensions>
          <ns3:TrackPointExtension>
            <ns3:hr>123</ns3:hr>
            <ns3:cad>0</ns3:cad>
          </ns3:TrackPointExtension>
        </extensions>
      </trkpt>
      <trkpt lat="45.2930221147835254669189453125" lon="-71.10463536344468593597412109375">
        <ele>877</ele>
        <time>2026-08-22T00:01:40.000Z</time>
        <extensions>
          <ns3:TrackPointExtension>
            <ns3:hr>123</ns3:hr>
            <ns3:cad>0</ns3:cad>
          </ns3:TrackPointExtension>
        </extensions>
      </trkpt>
      <trkpt lat="45.29302454553544521331787109375" lon="-71.1046366207301616668701171875">
        <ele>876.79998779296875</ele>
        <time>2026-08-22T00:01:41.000Z</time>
        <extensions>
          <ns3:TrackPointExtension>
            <ns3:hr>123</ns3:hr>
            <ns3:cad>0</ns3:cad>
          </ns3:TrackPointExtension>
        </extensions>
      </trkpt>
      <trkpt lat="45.29303242452442646026611328125" lon="-71.10464148223400115966796875">
        <ele>876.79998779296875</ele>
        <time>2026-08-22T00:01:42.000Z</time>
        <extensions>
          <ns3:TrackPointExtension>
            <ns3:hr>123</ns3:hr>
            <ns3:cad>0</ns3:cad>
          </ns3:TrackPointExtension>
        </extensions>
      </trkpt>
      <trkpt lat="45.29304030351340770721435546875" lon="-71.10465028323233127593994140625">
        <ele>877</ele>
        <time>2026-08-22T00:01:43.000Z</time>
        <extensions>
          <ns3:TrackPointExtension>
            <ns3:hr>123</ns3:hr>
            <ns3:cad>0</ns3:cad>
          </ns3:TrackPointExtension>
        </extensions>
      </trkpt>
      <trkpt lat="45.29304600320756435394287109375" lon="-71.10465832985937595367431640625">
        <ele>877</ele>
        <time>2026-08-22T00:01:44.000Z</time>
        <extensions>
          <ns3:TrackPointExtension>
            <ns3:hr>122</ns3:hr>
            <ns3:cad>0</ns3:cad>
          </ns3:TrackPointExtension>
        </extensions>
      </trkpt>
      <trkpt lat="45.29305287636816501617431640625" lon="-71.1046607606112957000732421875">
        <ele>877</ele>
        <time>2026-08-22T00:01:45.000Z</time>
        <extensions>
          <ns3:TrackPointExtension>
            <ns3:hr>123</ns3:hr>
            <ns3:cad>0</ns3:cad>
          </ns3:TrackPointExtension>
        </extensions>
      </trkpt>
      <trkpt lat="45.293057821691036224365234375" lon="-71.104653216898441314697265625">
        <ele>877</ele>
        <time>2026-08-22T00:01:46.000Z</time>
        <extensions>
          <ns3:TrackPointExtension>
            <ns3:hr>123</ns3:hr>
            <ns3:cad>0</ns3:cad>
          </ns3:TrackPointExtension>
        </extensions>
      </trkpt>
      <trkpt lat="45.29306192882359027862548828125" lon="-71.1046450026333332061767578125">
        <ele>877.20001220703125</ele>
        <time>2026-08-22T00:01:47.000Z</time>
        <extensions>
          <ns3:TrackPointExtension>
            <ns3:hr>123</ns3:hr>
            <ns3:cad>0</ns3:cad>
          </ns3:TrackPointExtension>
        </extensions>
      </trkpt>
      <trkpt lat="45.29306259937584400177001953125" lon="-71.104637794196605682373046875">
        <ele>877.20001220703125</ele>
        <time>2026-08-22T00:01:48.000Z</time>
        <extensions>
          <ns3:TrackPointExtension>
            <ns3:hr>122</ns3:hr>
            <ns3:cad>0</ns3:cad>
          </ns3:TrackPointExtension>
        </extensions>
      </trkpt>
      <trkpt lat="45.29306159354746341705322265625" lon="-71.1046336032450199127197265625">
        <ele>877.20001220703125</ele>
        <time>2026-08-22T00:01:49.000Z</time>
        <extensions>
          <ns3:TrackPointExtension>
            <ns3:hr>122</ns3:hr>
            <ns3:cad>0</ns3:cad>
          </ns3:TrackPointExtension>
        </extensions>
      </trkpt>
      <trkpt lat="45.2930623479187488555908203125" lon="-71.10463335178792476654052734375">
        <ele>877.4000244140625</ele>
        <time>2026-08-22T00:01:50.000Z</time>
        <extensions>
          <ns3:TrackPointExtension>
            <ns3:hr>121</ns3:hr>
            <ns3:cad>0</ns3:cad>
          </ns3:TrackPointExtension>
        </extensions>
      </trkpt>
      <trkpt lat="45.2930623479187488555908203125" lon="-71.10463335178792476654052734375">
        <ele>877.4000244140625</ele>
        <time>2026-08-22T00:01:51.000Z</time>
        <extensions>
          <ns3:TrackPointExtension>
            <ns3:hr>121</ns3:hr>
            <ns3:cad>0</ns3:cad>
          </ns3:TrackPointExtension>
        </extensions>
      </trkpt>
      <trkpt lat="45.2930623479187488555908203125" lon="-71.10463335178792476654052734375">
        <ele>877.4000244140625</ele>
        <time>2026-08-22T00:01:52.000Z</time>
        <extensions>
          <ns3:TrackPointExtension>
            <ns3:hr>120</ns3:hr>
            <ns3:cad>0</ns3:cad>
          </ns3:TrackPointExtension>
        </extensions>
      </trkpt>
      <trkpt lat="45.2930623479187488555908203125" lon="-71.10463335178792476654052734375">
        <ele>877.4000244140625</ele>
        <time>2026-08-22T00:01:53.000Z</time>
        <extensions>
          <ns3:TrackPointExtension>
            <ns3:hr>120</ns3:hr>
            <ns3:cad>0</ns3:cad>
          </ns3:TrackPointExtension>
        </extensions>
      </trkpt>
      <trkpt lat="45.2930623479187488555908203125" lon="-71.10463335178792476654052734375">
        <ele>877.4000244140625</ele>
        <time>2026-08-22T00:01:54.000Z</time>
        <extensions>
          <ns3:TrackPointExtension>
            <ns3:hr>120</ns3:hr>
            <ns3:cad>0</ns3:cad>
          </ns3:TrackPointExtension>
        </extensions>
      </trkpt>
      <trkpt lat="45.2930623479187488555908203125" lon="-71.10463335178792476654052734375">
        <ele>877.20001220703125</ele>
        <time>2026-08-22T00:01:55.000Z</time>
        <extensions>
          <ns3:TrackPointExtension>
            <ns3:hr>120</ns3:hr>
            <ns3:cad>0</ns3:cad>
          </ns3:TrackPointExtension>
        </extensions>
      </trkpt>
      <trkpt lat="45.2930623479187488555908203125" lon="-71.10463335178792476654052734375">
        <ele>877.20001220703125</ele>
        <time>2026-08-22T00:01:56.000Z</time>
        <extensions>
          <ns3:TrackPointExtension>
            <ns3:hr>120</ns3:hr>
            <ns3:cad>0</ns3:cad>
          </ns3:TrackPointExtension>
        </extensions>
      </trkpt>
      <trkpt lat="45.2930623479187488555908203125" lon="-71.10463335178792476654052734375">
        <ele>877</ele>
        <time>2026-08-22T00:01:57.000Z</time>
        <extensions>
          <ns3:TrackPointExtension>
            <ns3:hr>119</ns3:hr>
            <ns3:cad>0</ns3:cad>
          </ns3:TrackPointExtension>
        </extensions>
      </trkpt>
      <trkpt lat="45.2930623479187488555908203125" lon="-71.10463335178792476654052734375">
        <ele>876.79998779296875</ele>
        <time>2026-08-22T00:01:58.000Z</time>
        <extensions>
          <ns3:TrackPointExtension>
            <ns3:hr>119</ns3:hr>
            <ns3:cad>0</ns3:cad>
          </ns3:TrackPointExtension>
        </extensions>
      </trkpt>
      <trkpt lat="45.2930623479187488555908203125" lon="-71.10463335178792476654052734375">
        <ele>876.5999755859375</ele>
        <time>2026-08-22T00:01:59.000Z</time>
        <extensions>
          <ns3:TrackPointExtension>
            <ns3:hr>119</ns3:hr>
            <ns3:cad>0</ns3:cad>
          </ns3:TrackPointExtension>
        </extensions>
      </trkpt>
      <trkpt lat="45.2930623479187488555908203125" lon="-71.10463335178792476654052734375">
        <ele>876.5999755859375</ele>
        <time>2026-08-22T00:02:00.000Z</time>
        <extensions>
          <ns3:TrackPointExtension>
            <ns3:hr>120</ns3:hr>
            <ns3:cad>0</ns3:cad>
          </ns3:TrackPointExtension>
        </extensions>
      </trkpt>
      <trkpt lat="45.2930623479187488555908203125" lon="-71.10463335178792476654052734375">
        <ele>876.5999755859375</ele>
        <time>2026-08-22T00:02:01.000Z</time>
        <extensions>
          <ns3:TrackPointExtension>
            <ns3:hr>121</ns3:hr>
            <ns3:cad>0</ns3:cad>
          </ns3:TrackPointExtension>
        </extensions>
      </trkpt>
      <trkpt lat="45.2930623479187488555908203125" lon="-71.10463335178792476654052734375">
        <ele>876.5999755859375</ele>
        <time>2026-08-22T00:02:02.000Z</time>
        <extensions>
          <ns3:TrackPointExtension>
            <ns3:hr>122</ns3:hr>
            <ns3:cad>0</ns3:cad>
          </ns3:TrackPointExtension>
        </extensions>
      </trkpt>
      <trkpt lat="45.2930623479187488555908203125" lon="-71.10463335178792476654052734375">
        <ele>876.5999755859375</ele>
        <time>2026-08-22T00:02:03.000Z</time>
        <extensions>
          <ns3:TrackPointExtension>
            <ns3:hr>123</ns3:hr>
            <ns3:cad>0</ns3:cad>
          </ns3:TrackPointExtension>
        </extensions>
      </trkpt>
      <trkpt lat="45.2930623479187488555908203125" lon="-71.10463335178792476654052734375">
        <ele>876.5999755859375</ele>
        <time>2026-08-22T00:02:04.000Z</time>
        <extensions>
          <ns3:TrackPointExtension>
            <ns3:hr>123</ns3:hr>
            <ns3:cad>0</ns3:cad>
          </ns3:TrackPointExtension>
        </extensions>
      </trkpt>
      <trkpt lat="45.2930623479187488555908203125" lon="-71.10463335178792476654052734375">
        <ele>876.5999755859375</ele>
        <time>2026-08-22T00:02:05.000Z</time>
        <extensions>
          <ns3:TrackPointExtension>
            <ns3:hr>123</ns3:hr>
            <ns3:cad>0</ns3:cad>
          </ns3:TrackPointExtension>
        </extensions>
      </trkpt>
      <trkpt lat="45.2930623479187488555908203125" lon="-71.10463335178792476654052734375">
        <ele>876.5999755859375</ele>
        <time>2026-08-22T00:02:06.000Z</time>
        <extensions>
          <ns3:TrackPointExtension>
            <ns3:hr>123</ns3:hr>
            <ns3:cad>0</ns3:cad>
          </ns3:TrackPointExtension>
        </extensions>
      </trkpt>
      <trkpt lat="45.2930623479187488555908203125" lon="-71.10463335178792476654052734375">
        <ele>876.5999755859375</ele>
        <time>2026-08-22T00:02:07.000Z</time>
        <extensions>
          <ns3:TrackPointExtension>
            <ns3:hr>123</ns3:hr>
            <ns3:cad>0</ns3:cad>
          </ns3:TrackPointExtension>
        </extensions>
      </trkpt>
      <trkpt lat="45.2930623479187488555908203125" lon="-71.10463335178792476654052734375">
        <ele>876.5999755859375</ele>
        <time>2026-08-22T00:02:08.000Z</time>
        <extensions>
          <ns3:TrackPointExtension>
            <ns3:hr>123</ns3:hr>
            <ns3:cad>0</ns3:cad>
          </ns3:TrackPointExtension>
        </extensions>
      </trkpt>
      <trkpt lat="45.2930623479187488555908203125" lon="-71.10463335178792476654052734375">
        <ele>876.5999755859375</ele>
        <time>2026-08-22T00:02:09.000Z</time>
        <extensions>
          <ns3:TrackPointExtension>
            <ns3:hr>123</ns3:hr>
            <ns3:cad>0</ns3:cad>
          </ns3:TrackPointExtension>
        </extensions>
      </trkpt>
      <trkpt lat="45.2930623479187488555908203125" lon="-71.10463335178792476654052734375">
        <ele>876.5999755859375</ele>
        <time>2026-08-22T00:02:10.000Z</time>
        <extensions>
          <ns3:TrackPointExtension>
            <ns3:hr>122</ns3:hr>
            <ns3:cad>0</ns3:cad>
          </ns3:TrackPointExtension>
        </extensions>
      </trkpt>
      <trkpt lat="45.2930623479187488555908203125" lon="-71.10463335178792476654052734375">
        <ele>876.5999755859375</ele>
        <time>2026-08-22T00:02:11.000Z</time>
        <extensions>
          <ns3:TrackPointExtension>
            <ns3:hr>123</ns3:hr>
            <ns3:cad>0</ns3:cad>
          </ns3:TrackPointExtension>
        </extensions>
      </trkpt>
      <trkpt lat="45.2930623479187488555908203125" lon="-71.10463335178792476654052734375">
        <ele>876.5999755859375</ele>
        <time>2026-08-22T00:02:12.000Z</time>
        <extensions>
          <ns3:TrackPointExtension>
            <ns3:hr>123</ns3:hr>
            <ns3:cad>0</ns3:cad>
          </ns3:TrackPointExtension>
        </extensions>
      </trkpt>
      <trkpt lat="45.2930623479187488555908203125" lon="-71.10463335178792476654052734375">
        <ele>876.5999755859375</ele>
        <time>2026-08-22T00:02:13.000Z</time>
        <extensions>
          <ns3:TrackPointExtension>
            <ns3:hr>123</ns3:hr>
            <ns3:cad>0</ns3:cad>
          </ns3:TrackPointExtension>
        </extensions>
      </trkpt>
      <trkpt lat="45.2930623479187488555908203125" lon="-71.10463335178792476654052734375">
        <ele>876.5999755859375</ele>
        <time>2026-08-22T00:02:14.000Z</time>
        <extensions>
          <ns3:TrackPointExtension>
            <ns3:hr>123</ns3:hr>
            <ns3:cad>0</ns3:cad>
          </ns3:TrackPointExtension>
        </extensions>
      </trkpt>
      <trkpt lat="45.2930623479187488555908203125" lon="-71.10463335178792476654052734375">
        <ele>876.5999755859375</ele>
        <time>2026-08-22T00:02:15.000Z</time>
        <extensions>
          <ns3:TrackPointExtension>
            <ns3:hr>123</ns3:hr>
            <ns3:cad>0</ns3:cad>
          </ns3:TrackPointExtension>
        </extensions>
      </trkpt>
      <trkpt lat="45.2930623479187488555908203125" lon="-71.10463335178792476654052734375">
        <ele>876.5999755859375</ele>
        <time>2026-08-22T00:02:16.000Z</time>
        <extensions>
          <ns3:TrackPointExtension>
            <ns3:hr>123</ns3:hr>
            <ns3:cad>0</ns3:cad>
          </ns3:TrackPointExtension>
        </extensions>
      </trkpt>
      <trkpt lat="45.2930623479187488555908203125" lon="-71.10463335178792476654052734375">
        <ele>876.5999755859375</ele>
        <time>2026-08-22T00:02:17.000Z</time>
        <extensions>
          <ns3:TrackPointExtension>
            <ns3:hr>122</ns3:hr>
            <ns3:cad>0</ns3:cad>
          </ns3:TrackPointExtension>
        </extensions>
      </trkpt>
      <trkpt lat="45.2930623479187488555908203125" lon="-71.10463335178792476654052734375">
        <ele>876.5999755859375</ele>
        <time>2026-08-22T00:02:18.000Z</time>
        <extensions>
          <ns3:TrackPointExtension>
            <ns3:hr>121</ns3:hr>
            <ns3:cad>0</ns3:cad>
          </ns3:TrackPointExtension>
        </extensions>
      </trkpt>
      <trkpt lat="45.2930623479187488555908203125" lon="-71.10463335178792476654052734375">
        <ele>876.5999755859375</ele>
        <time>2026-08-22T00:02:19.000Z</time>
        <extensions>
          <ns3:TrackPointExtension>
            <ns3:hr>120</ns3:hr>
            <ns3:cad>0</ns3:cad>
          </ns3:TrackPointExtension>
        </extensions>
      </trkpt>
      <trkpt lat="45.2930623479187488555908203125" lon="-71.10463335178792476654052734375">
        <ele>876.5999755859375</ele>
        <time>2026-08-22T00:02:20.000Z</time>
        <extensions>
          <ns3:TrackPointExtension>
            <ns3:hr>120</ns3:hr>
            <ns3:cad>0</ns3:cad>
          </ns3:TrackPointExtension>
        </extensions>
      </trkpt>
      <trkpt lat="45.2930623479187488555908203125" lon="-71.10463335178792476654052734375">
        <ele>876.5999755859375</ele>
        <time>2026-08-22T00:02:21.000Z</time>
        <extensions>
          <ns3:TrackPointExtension>
            <ns3:hr>119</ns3:hr>
            <ns3:cad>0</ns3:cad>
          </ns3:TrackPointExtension>
        </extensions>
      </trkpt>
      <trkpt lat="45.2930623479187488555908203125" lon="-71.10463335178792476654052734375">
        <ele>876.5999755859375</ele>
        <time>2026-08-22T00:02:22.000Z</time>
        <extensions>
          <ns3:TrackPointExtension>
            <ns3:hr>118</ns3:hr>
            <ns3:cad>0</ns3:cad>
          </ns3:TrackPointExtension>
        </extensions>
      </trkpt>
      <trkpt lat="45.2930623479187488555908203125" lon="-71.10463335178792476654052734375">
        <ele>876.5999755859375</ele>
        <time>2026-08-22T00:02:23.000Z</time>
        <extensions>
          <ns3:TrackPointExtension>
            <ns3:hr>116</ns3:hr>
            <ns3:cad>0</ns3:cad>
          </ns3:TrackPointExtension>
        </extensions>
      </trkpt>
      <trkpt lat="45.2930623479187488555908203125" lon="-71.10463335178792476654052734375">
        <ele>876.5999755859375</ele>
        <time>2026-08-22T00:02:24.000Z</time>
        <extensions>
          <ns3:TrackPointExtension>
            <ns3:hr>115</ns3:hr>
            <ns3:cad>0</ns3:cad>
          </ns3:TrackPointExtension>
        </extensions>
      </trkpt>
      <trkpt lat="45.2930623479187488555908203125" lon="-71.10463335178792476654052734375">
        <ele>876.5999755859375</ele>
        <time>2026-08-22T00:02:25.000Z</time>
        <extensions>
          <ns3:TrackPointExtension>
            <ns3:hr>114</ns3:hr>
            <ns3:cad>0</ns3:cad>
          </ns3:TrackPointExtension>
        </extensions>
      </trkpt>
      <trkpt lat="45.2930623479187488555908203125" lon="-71.10463335178792476654052734375">
        <ele>876.5999755859375</ele>
        <time>2026-08-22T00:02:26.000Z</time>
        <extensions>
          <ns3:TrackPointExtension>
            <ns3:hr>112</ns3:hr>
            <ns3:cad>0</ns3:cad>
          </ns3:TrackPointExtension>
        </extensions>
      </trkpt>
      <trkpt lat="45.2930623479187488555908203125" lon="-71.10463335178792476654052734375">
        <ele>876.5999755859375</ele>
        <time>2026-08-22T00:02:27.000Z</time>
        <extensions>
          <ns3:TrackPointExtension>
            <ns3:hr>112</ns3:hr>
            <ns3:cad>0</ns3:cad>
          </ns3:TrackPointExtension>
        </extensions>
      </trkpt>
      <trkpt lat="45.2930623479187488555908203125" lon="-71.10463335178792476654052734375">
        <ele>876.5999755859375</ele>
        <time>2026-08-22T00:02:28.000Z</time>
        <extensions>
          <ns3:TrackPointExtension>
            <ns3:hr>111</ns3:hr>
            <ns3:cad>0</ns3:cad>
          </ns3:TrackPointExtension>
        </extensions>
      </trkpt>
      <trkpt lat="45.2930623479187488555908203125" lon="-71.10463335178792476654052734375">
        <ele>876.5999755859375</ele>
        <time>2026-08-22T00:02:29.000Z</time>
        <extensions>
          <ns3:TrackPointExtension>
            <ns3:hr>112</ns3:hr>
            <ns3:cad>0</ns3:cad>
          </ns3:TrackPointExtension>
        </extensions>
      </trkpt>
      <trkpt lat="45.2930623479187488555908203125" lon="-71.10463335178792476654052734375">
        <ele>876.5999755859375</ele>
        <time>2026-08-22T00:02:30.000Z</time>
        <extensions>
          <ns3:TrackPointExtension>
            <ns3:hr>112</ns3:hr>
            <ns3:cad>0</ns3:cad>
          </ns3:TrackPointExtension>
        </extensions>
      </trkpt>
      <trkpt lat="45.2930623479187488555908203125" lon="-71.10463335178792476654052734375">
        <ele>876.5999755859375</ele>
        <time>2026-08-22T00:02:31.000Z</time>
        <extensions>
          <ns3:TrackPointExtension>
            <ns3:hr>111</ns3:hr>
            <ns3:cad>0</ns3:cad>
          </ns3:TrackPointExtension>
        </extensions>
      </trkpt>
      <trkpt lat="45.2930623479187488555908203125" lon="-71.10463335178792476654052734375">
        <ele>876.5999755859375</ele>
        <time>2026-08-22T00:02:32.000Z</time>
        <extensions>
          <ns3:TrackPointExtension>
            <ns3:hr>110</ns3:hr>
            <ns3:cad>0</ns3:cad>
          </ns3:TrackPointExtension>
        </extensions>
      </trkpt>
      <trkpt lat="45.2930623479187488555908203125" lon="-71.10463335178792476654052734375">
        <ele>876.5999755859375</ele>
        <time>2026-08-22T00:02:33.000Z</time>
        <extensions>
          <ns3:TrackPointExtension>
            <ns3:hr>110</ns3:hr>
            <ns3:cad>0</ns3:cad>
          </ns3:TrackPointExtension>
        </extensions>
      </trkpt>
      <trkpt lat="45.2930623479187488555908203125" lon="-71.10463335178792476654052734375">
        <ele>876.5999755859375</ele>
        <time>2026-08-22T00:02:34.000Z</time>
        <extensions>
          <ns3:TrackPointExtension>
            <ns3:hr>110</ns3:hr>
            <ns3:cad>0</ns3:cad>
          </ns3:TrackPointExtension>
        </extensions>
      </trkpt>
      <trkpt lat="45.2930623479187488555908203125" lon="-71.10463335178792476654052734375">
        <ele>876.5999755859375</ele>
        <time>2026-08-22T00:02:35.000Z</time>
        <extensions>
          <ns3:TrackPointExtension>
            <ns3:hr>110</ns3:hr>
            <ns3:cad>0</ns3:cad>
          </ns3:TrackPointExtension>
        </extensions>
      </trkpt>
      <trkpt lat="45.2930623479187488555908203125" lon="-71.10463335178792476654052734375">
        <ele>876.5999755859375</ele>
        <time>2026-08-22T00:02:36.000Z</time>
        <extensions>
          <ns3:TrackPointExtension>
            <ns3:hr>109</ns3:hr>
            <ns3:cad>0</ns3:cad>
          </ns3:TrackPointExtension>
        </extensions>
      </trkpt>
      <trkpt lat="45.2930623479187488555908203125" lon="-71.10463335178792476654052734375">
        <ele>876.5999755859375</ele>
        <time>2026-08-22T00:02:37.000Z</time>
        <extensions>
          <ns3:TrackPointExtension>
            <ns3:hr>110</ns3:hr>
            <ns3:cad>0</ns3:cad>
          </ns3:TrackPointExtension>
        </extensions>
      </trkpt>
      <trkpt lat="45.2930623479187488555908203125" lon="-71.10463335178792476654052734375">
        <ele>876.5999755859375</ele>
        <time>2026-08-22T00:02:38.000Z</time>
        <extensions>
          <ns3:TrackPointExtension>
            <ns3:hr>110</ns3:hr>
            <ns3:cad>0</ns3:cad>
          </ns3:TrackPointExtension>
        </extensions>
      </trkpt>
      <trkpt lat="45.2930623479187488555908203125" lon="-71.10463335178792476654052734375">
        <ele>876.5999755859375</ele>
        <time>2026-08-22T00:02:39.000Z</time>
        <extensions>
          <ns3:TrackPointExtension>
            <ns3:hr>110</ns3:hr>
            <ns3:cad>0</ns3:cad>
          </ns3:TrackPointExtension>
        </extensions>
      </trkpt>
      <trkpt lat="45.2930623479187488555908203125" lon="-71.10463335178792476654052734375">
        <ele>876.5999755859375</ele>
        <time>2026-08-22T00:02:40.000Z</time>
        <extensions>
          <ns3:TrackPointExtension>
            <ns3:hr>110</ns3:hr>
            <ns3:cad>0</ns3:cad>
          </ns3:TrackPointExtension>
        </extensions>
      </trkpt>
      <trkpt lat="45.2930623479187488555908203125" lon="-71.10463335178792476654052734375">
        <ele>876.5999755859375</ele>
        <time>2026-08-22T00:02:41.000Z</time>
        <extensions>
          <ns3:TrackPointExtension>
            <ns3:hr>110</ns3:hr>
            <ns3:cad>0</ns3:cad>
          </ns3:TrackPointExtension>
        </extensions>
      </trkpt>
      <trkpt lat="45.2930623479187488555908203125" lon="-71.10463335178792476654052734375">
        <ele>876.79998779296875</ele>
        <time>2026-08-22T00:02:42.000Z</time>
        <extensions>
          <ns3:TrackPointExtension>
            <ns3:hr>110</ns3:hr>
            <ns3:cad>0</ns3:cad>
          </ns3:TrackPointExtension>
        </extensions>
      </trkpt>
      <trkpt lat="45.2930623479187488555908203125" lon="-71.10463335178792476654052734375">
        <ele>876.79998779296875</ele>
        <time>2026-08-22T00:02:43.000Z</time>
        <extensions>
          <ns3:TrackPointExtension>
            <ns3:hr>110</ns3:hr>
            <ns3:cad>0</ns3:cad>
          </ns3:TrackPointExtension>
        </extensions>
      </trkpt>
      <trkpt lat="45.2930623479187488555908203125" lon="-71.10463335178792476654052734375">
        <ele>876.79998779296875</ele>
        <time>2026-08-22T00:02:44.000Z</time>
        <extensions>
          <ns3:TrackPointExtension>
            <ns3:hr>111</ns3:hr>
            <ns3:cad>0</ns3:cad>
          </ns3:TrackPointExtension>
        </extensions>
      </trkpt>
      <trkpt lat="45.2930623479187488555908203125" lon="-71.10463335178792476654052734375">
        <ele>876.79998779296875</ele>
        <time>2026-08-22T00:02:45.000Z</time>
        <extensions>
          <ns3:TrackPointExtension>
            <ns3:hr>110</ns3:hr>
            <ns3:cad>0</ns3:cad>
          </ns3:TrackPointExtension>
        </extensions>
      </trkpt>
      <trkpt lat="45.2930623479187488555908203125" lon="-71.10463335178792476654052734375">
        <ele>876.79998779296875</ele>
        <time>2026-08-22T00:02:46.000Z</time>
        <extensions>
          <ns3:TrackPointExtension>
            <ns3:hr>110</ns3:hr>
            <ns3:cad>0</ns3:cad>
          </ns3:TrackPointExtension>
        </extensions>
      </trkpt>
      <trkpt lat="45.29306075535714626312255859375" lon="-71.10463519580662250518798828125">
        <ele>876.79998779296875</ele>
        <time>2026-08-22T00:02:47.000Z</time>
        <extensions>
          <ns3:TrackPointExtension>
            <ns3:hr>110</ns3:hr>
            <ns3:cad>0</ns3:cad>
          </ns3:TrackPointExtension>
        </extensions>
      </trkpt>
      <trkpt lat="45.293062515556812286376953125" lon="-71.104635782539844512939453125">
        <ele>876.79998779296875</ele>
        <time>2026-08-22T00:02:48.000Z</time>
        <extensions>
          <ns3:TrackPointExtension>
            <ns3:hr>110</ns3:hr>
            <ns3:cad>0</ns3:cad>
          </ns3:TrackPointExtension>
        </extensions>
      </trkpt>
      <trkpt lat="45.2930623479187488555908203125" lon="-71.10463335178792476654052734375">
        <ele>876.79998779296875</ele>
        <time>2026-08-22T00:02:49.000Z</time>
        <extensions>
          <ns3:TrackPointExtension>
            <ns3:hr>110</ns3:hr>
            <ns3:cad>0</ns3:cad>
          </ns3:TrackPointExtension>
        </extensions>
      </trkpt>
      <trkpt lat="45.2930623479187488555908203125" lon="-71.10463335178792476654052734375">
        <ele>876.79998779296875</ele>
        <time>2026-08-22T00:02:50.000Z</time>
        <extensions>
          <ns3:TrackPointExtension>
            <ns3:hr>110</ns3:hr>
            <ns3:cad>0</ns3:cad>
          </ns3:TrackPointExtension>
        </extensions>
      </trkpt>
      <trkpt lat="45.2930623479187488555908203125" lon="-71.10463335178792476654052734375">
        <ele>876.79998779296875</ele>
        <time>2026-08-22T00:02:51.000Z</time>
        <extensions>
          <ns3:TrackPointExtension>
            <ns3:hr>110</ns3:hr>
            <ns3:cad>0</ns3:cad>
          </ns3:TrackPointExtension>
        </extensions>
      </trkpt>
      <trkpt lat="45.2930623479187488555908203125" lon="-71.10463335178792476654052734375">
        <ele>876.79998779296875</ele>
        <time>2026-08-22T00:02:52.000Z</time>
        <extensions>
          <ns3:TrackPointExtension>
            <ns3:hr>110</ns3:hr>
            <ns3:cad>0</ns3:cad>
          </ns3:TrackPointExtension>
        </extensions>
      </trkpt>
      <trkpt lat="45.2930623479187488555908203125" lon="-71.10463335178792476654052734375">
        <ele>876.79998779296875</ele>
        <time>2026-08-22T00:02:53.000Z</time>
        <extensions>
          <ns3:TrackPointExtension>
            <ns3:hr>110</ns3:hr>
            <ns3:cad>0</ns3:cad>
          </ns3:TrackPointExtension>
        </extensions>
      </trkpt>
      <trkpt lat="45.2930623479187488555908203125" lon="-71.10463335178792476654052734375">
        <ele>876.79998779296875</ele>
        <time>2026-08-22T00:02:54.000Z</time>
        <extensions>
          <ns3:TrackPointExtension>
            <ns3:hr>110</ns3:hr>
            <ns3:cad>0</ns3:cad>
          </ns3:TrackPointExtension>
        </extensions>
      </trkpt>
      <trkpt lat="45.2930623479187488555908203125" lon="-71.10463335178792476654052734375">
        <ele>876.79998779296875</ele>
        <time>2026-08-22T00:02:55.000Z</time>
        <extensions>
          <ns3:TrackPointExtension>
            <ns3:hr>109</ns3:hr>
            <ns3:cad>0</ns3:cad>
          </ns3:TrackPointExtension>
        </extensions>
      </trkpt>
      <trkpt lat="45.2930623479187488555908203125" lon="-71.10463335178792476654052734375">
        <ele>876.79998779296875</ele>
        <time>2026-08-22T00:02:56.000Z</time>
        <extensions>
          <ns3:TrackPointExtension>
            <ns3:hr>109</ns3:hr>
            <ns3:cad>0</ns3:cad>
          </ns3:TrackPointExtension>
        </extensions>
      </trkpt>
      <trkpt lat="45.2930623479187488555908203125" lon="-71.10463335178792476654052734375">
        <ele>876.79998779296875</ele>
        <time>2026-08-22T00:02:57.000Z</time>
        <extensions>
          <ns3:TrackPointExtension>
            <ns3:hr>109</ns3:hr>
            <ns3:cad>0</ns3:cad>
          </ns3:TrackPointExtension>
        </extensions>
      </trkpt>
      <trkpt lat="45.2930623479187488555908203125" lon="-71.10463335178792476654052734375">
        <ele>876.79998779296875</ele>
        <time>2026-08-22T00:02:58.000Z</time>
        <extensions>
          <ns3:TrackPointExtension>
            <ns3:hr>109</ns3:hr>
            <ns3:cad>0</ns3:cad>
          </ns3:TrackPointExtension>
        </extensions>
      </trkpt>
      <trkpt lat="45.2930623479187488555908203125" lon="-71.10463335178792476654052734375">
        <ele>876.79998779296875</ele>
        <time>2026-08-22T00:02:59.000Z</time>
        <extensions>
          <ns3:TrackPointExtension>
            <ns3:hr>109</ns3:hr>
            <ns3:cad>0</ns3:cad>
          </ns3:TrackPointExtension>
        </extensions>
      </trkpt>
      <trkpt lat="45.2930623479187488555908203125" lon="-71.10463335178792476654052734375">
        <ele>876.79998779296875</ele>
        <time>2026-08-22T00:03:00.000Z</time>
        <extensions>
          <ns3:TrackPointExtension>
            <ns3:hr>109</ns3:hr>
            <ns3:cad>0</ns3:cad>
          </ns3:TrackPointExtension>
        </extensions>
      </trkpt>
      <trkpt lat="45.2930623479187488555908203125" lon="-71.10463335178792476654052734375">
        <ele>876.79998779296875</ele>
        <time>2026-08-22T00:03:01.000Z</time>
        <extensions>
          <ns3:TrackPointExtension>
            <ns3:hr>110</ns3:hr>
            <ns3:cad>0</ns3:cad>
          </ns3:TrackPointExtension>
        </extensions>
      </trkpt>
      <trkpt lat="45.2930623479187488555908203125" lon="-71.10463335178792476654052734375">
        <ele>876.79998779296875</ele>
        <time>2026-08-22T00:03:02.000Z</time>
        <extensions>
          <ns3:TrackPointExtension>
            <ns3:hr>109</ns3:hr>
            <ns3:cad>0</ns3:cad>
          </ns3:TrackPointExtension>
        </extensions>
      </trkpt>
      <trkpt lat="45.2930623479187488555908203125" lon="-71.10463335178792476654052734375">
        <ele>876.79998779296875</ele>
        <time>2026-08-22T00:03:03.000Z</time>
        <extensions>
          <ns3:TrackPointExtension>
            <ns3:hr>110</ns3:hr>
            <ns3:cad>0</ns3:cad>
          </ns3:TrackPointExtension>
        </extensions>
      </trkpt>
      <trkpt lat="45.2930623479187488555908203125" lon="-71.10463335178792476654052734375">
        <ele>876.79998779296875</ele>
        <time>2026-08-22T00:03:04.000Z</time>
        <extensions>
          <ns3:TrackPointExtension>
            <ns3:hr>110</ns3:hr>
            <ns3:cad>0</ns3:cad>
          </ns3:TrackPointExtension>
        </extensions>
      </trkpt>
      <trkpt lat="45.2930623479187488555908203125" lon="-71.10463335178792476654052734375">
        <ele>876.79998779296875</ele>
        <time>2026-08-22T00:03:05.000Z</time>
        <extensions>
          <ns3:TrackPointExtension>
            <ns3:hr>111</ns3:hr>
            <ns3:cad>0</ns3:cad>
          </ns3:TrackPointExtension>
        </extensions>
      </trkpt>
      <trkpt lat="45.2930623479187488555908203125" lon="-71.10463335178792476654052734375">
        <ele>876.79998779296875</ele>
        <time>2026-08-22T00:03:06.000Z</time>
        <extensions>
          <ns3:TrackPointExtension>
            <ns3:hr>111</ns3:hr>
            <ns3:cad>0</ns3:cad>
          </ns3:TrackPointExtension>
        </extensions>
      </trkpt>
      <trkpt lat="45.2930623479187488555908203125" lon="-71.10463335178792476654052734375">
        <ele>876.79998779296875</ele>
        <time>2026-08-22T00:03:07.000Z</time>
        <extensions>
          <ns3:TrackPointExtension>
            <ns3:hr>112</ns3:hr>
            <ns3:cad>0</ns3:cad>
          </ns3:TrackPointExtension>
        </extensions>
      </trkpt>
      <trkpt lat="45.2930623479187488555908203125" lon="-71.10463335178792476654052734375">
        <ele>876.79998779296875</ele>
        <time>2026-08-22T00:03:08.000Z</time>
        <extensions>
          <ns3:TrackPointExtension>
            <ns3:hr>111</ns3:hr>
            <ns3:cad>0</ns3:cad>
          </ns3:TrackPointExtension>
        </extensions>
      </trkpt>
      <trkpt lat="45.2930623479187488555908203125" lon="-71.10463335178792476654052734375">
        <ele>876.79998779296875</ele>
        <time>2026-08-22T00:03:09.000Z</time>
        <extensions>
          <ns3:TrackPointExtension>
            <ns3:hr>110</ns3:hr>
            <ns3:cad>0</ns3:cad>
          </ns3:TrackPointExtension>
        </extensions>
      </trkpt>
      <trkpt lat="45.29305723495781421661376953125" lon="-71.1046314239501953125">
        <ele>876.79998779296875</ele>
        <time>2026-08-22T00:03:10.000Z</time>
        <extensions>
          <ns3:TrackPointExtension>
            <ns3:hr>110</ns3:hr>
            <ns3:cad>0</ns3:cad>
          </ns3:TrackPointExtension>
        </extensions>
      </trkpt>
      <trkpt lat="45.29305078089237213134765625" lon="-71.10462698154151439666748046875">
        <ele>876.79998779296875</ele>
        <time>2026-08-22T00:03:11.000Z</time>
        <extensions>
          <ns3:TrackPointExtension>
            <ns3:hr>110</ns3:hr>
            <ns3:cad>0</ns3:cad>
          </ns3:TrackPointExtension>
        </extensions>
      </trkpt>
      <trkpt lat="45.29304617084562778472900390625" lon="-71.1046185158193111419677734375">
        <ele>877</ele>
        <time>2026-08-22T00:03:12.000Z</time>
        <extensions>
          <ns3:TrackPointExtension>
            <ns3:hr>110</ns3:hr>
            <ns3:cad>0</ns3:cad>
          </ns3:TrackPointExtension>
        </extensions>
      </trkpt>
      <trkpt lat="45.2930425666272640228271484375" lon="-71.10461859963834285736083984375">
        <ele>877</ele>
        <time>2026-08-22T00:03:13.000Z</time>
        <extensions>
          <ns3:TrackPointExtension>
            <ns3:hr>110</ns3:hr>
            <ns3:cad>0</ns3:cad>
          </ns3:TrackPointExtension>
        </extensions>
      </trkpt>
      <trkpt lat="45.29303871095180511474609375" lon="-71.10461256466805934906005859375">
        <ele>877</ele>
        <time>2026-08-22T00:03:14.000Z</time>
        <extensions>
          <ns3:TrackPointExtension>
            <ns3:hr>109</ns3:hr>
            <ns3:cad>0</ns3:cad>
          </ns3:TrackPointExtension>
        </extensions>
      </trkpt>
      <trkpt lat="45.29304164461791515350341796875" lon="-71.10460854135453701019287109375">
        <ele>877</ele>
        <time>2026-08-22T00:03:15.000Z</time>
        <extensions>
          <ns3:TrackPointExtension>
            <ns3:hr>108</ns3:hr>
            <ns3:cad>0</ns3:cad>
          </ns3:TrackPointExtension>
        </extensions>
      </trkpt>
      <trkpt lat="45.29303980059921741485595703125" lon="-71.10460837371647357940673828125">
        <ele>877</ele>
        <time>2026-08-22T00:03:16.000Z</time>
        <extensions>
          <ns3:TrackPointExtension>
            <ns3:hr>108</ns3:hr>
            <ns3:cad>71</ns3:cad>
          </ns3:TrackPointExtension>
        </extensions>
      </trkpt>
      <trkpt lat="45.29303980059921741485595703125" lon="-71.10460527241230010986328125">
        <ele>877</ele>
        <time>2026-08-22T00:03:17.000Z</time>
        <extensions>
          <ns3:TrackPointExtension>
            <ns3:hr>107</ns3:hr>
            <ns3:cad>0</ns3:cad>
          </ns3:TrackPointExtension>
        </extensions>
      </trkpt>
      <trkpt lat="45.29304030351340770721435546875" lon="-71.10460460186004638671875">
        <ele>876.79998779296875</ele>
        <time>2026-08-22T00:03:18.000Z</time>
        <extensions>
          <ns3:TrackPointExtension>
            <ns3:hr>106</ns3:hr>
            <ns3:cad>0</ns3:cad>
          </ns3:TrackPointExtension>
        </extensions>
      </trkpt>
      <trkpt lat="45.29304005205631256103515625" lon="-71.1046047694981098175048828125">
        <ele>876.79998779296875</ele>
        <time>2026-08-22T00:03:19.000Z</time>
        <extensions>
          <ns3:TrackPointExtension>
            <ns3:hr>106</ns3:hr>
            <ns3:cad>0</ns3:cad>
          </ns3:TrackPointExtension>
        </extensions>
      </trkpt>
      <trkpt lat="45.29304005205631256103515625" lon="-71.1046047694981098175048828125">
        <ele>876.79998779296875</ele>
        <time>2026-08-22T00:03:20.000Z</time>
        <extensions>
          <ns3:TrackPointExtension>
            <ns3:hr>106</ns3:hr>
            <ns3:cad>0</ns3:cad>
          </ns3:TrackPointExtension>
        </extensions>
      </trkpt>
      <trkpt lat="45.29304005205631256103515625" lon="-71.1046047694981098175048828125">
        <ele>876.79998779296875</ele>
        <time>2026-08-22T00:03:21.000Z</time>
        <extensions>
          <ns3:TrackPointExtension>
            <ns3:hr>106</ns3:hr>
            <ns3:cad>0</ns3:cad>
          </ns3:TrackPointExtension>
        </extensions>
      </trkpt>
      <trkpt lat="45.29304005205631256103515625" lon="-71.1046047694981098175048828125">
        <ele>876.79998779296875</ele>
        <time>2026-08-22T00:03:22.000Z</time>
        <extensions>
          <ns3:TrackPointExtension>
            <ns3:hr>106</ns3:hr>
            <ns3:cad>0</ns3:cad>
          </ns3:TrackPointExtension>
        </extensions>
      </trkpt>
      <trkpt lat="45.29304005205631256103515625" lon="-71.1046047694981098175048828125">
        <ele>876.79998779296875</ele>
        <time>2026-08-22T00:03:23.000Z</time>
        <extensions>
          <ns3:TrackPointExtension>
            <ns3:hr>105</ns3:hr>
            <ns3:cad>0</ns3:cad>
          </ns3:TrackPointExtension>
        </extensions>
      </trkpt>
      <trkpt lat="45.29304005205631256103515625" lon="-71.1046047694981098175048828125">
        <ele>876.79998779296875</ele>
        <time>2026-08-22T00:03:24.000Z</time>
        <extensions>
          <ns3:TrackPointExtension>
            <ns3:hr>105</ns3:hr>
            <ns3:cad>0</ns3:cad>
          </ns3:TrackPointExtension>
        </extensions>
      </trkpt>
      <trkpt lat="45.29304005205631256103515625" lon="-71.1046047694981098175048828125">
        <ele>876.79998779296875</ele>
        <time>2026-08-22T00:03:25.000Z</time>
        <extensions>
          <ns3:TrackPointExtension>
            <ns3:hr>105</ns3:hr>
            <ns3:cad>0</ns3:cad>
          </ns3:TrackPointExtension>
        </extensions>
      </trkpt>
      <trkpt lat="45.29304005205631256103515625" lon="-71.1046047694981098175048828125">
        <ele>876.79998779296875</ele>
        <time>2026-08-22T00:03:26.000Z</time>
        <extensions>
          <ns3:TrackPointExtension>
            <ns3:hr>105</ns3:hr>
            <ns3:cad>0</ns3:cad>
          </ns3:TrackPointExtension>
        </extensions>
      </trkpt>
      <trkpt lat="45.29304005205631256103515625" lon="-71.1046047694981098175048828125">
        <ele>876.79998779296875</ele>
        <time>2026-08-22T00:03:27.000Z</time>
        <extensions>
          <ns3:TrackPointExtension>
            <ns3:hr>104</ns3:hr>
            <ns3:cad>0</ns3:cad>
          </ns3:TrackPointExtension>
        </extensions>
      </trkpt>
      <trkpt lat="45.29304005205631256103515625" lon="-71.1046047694981098175048828125">
        <ele>876.79998779296875</ele>
        <time>2026-08-22T00:03:28.000Z</time>
        <extensions>
          <ns3:TrackPointExtension>
            <ns3:hr>104</ns3:hr>
            <ns3:cad>0</ns3:cad>
          </ns3:TrackPointExtension>
        </extensions>
      </trkpt>
      <trkpt lat="45.29304005205631256103515625" lon="-71.1046047694981098175048828125">
        <ele>876.79998779296875</ele>
        <time>2026-08-22T00:03:29.000Z</time>
        <extensions>
          <ns3:TrackPointExtension>
            <ns3:hr>104</ns3:hr>
            <ns3:cad>0</ns3:cad>
          </ns3:TrackPointExtension>
        </extensions>
      </trkpt>
      <trkpt lat="45.29304005205631256103515625" lon="-71.1046047694981098175048828125">
        <ele>876.79998779296875</ele>
        <time>2026-08-22T00:03:30.000Z</time>
        <extensions>
          <ns3:TrackPointExtension>
            <ns3:hr>104</ns3:hr>
            <ns3:cad>0</ns3:cad>
          </ns3:TrackPointExtension>
        </extensions>
      </trkpt>
      <trkpt lat="45.29304005205631256103515625" lon="-71.1046047694981098175048828125">
        <ele>876.79998779296875</ele>
        <time>2026-08-22T00:03:31.000Z</time>
        <extensions>
          <ns3:TrackPointExtension>
            <ns3:hr>103</ns3:hr>
            <ns3:cad>0</ns3:cad>
          </ns3:TrackPointExtension>
        </extensions>
      </trkpt>
      <trkpt lat="45.29304005205631256103515625" lon="-71.1046047694981098175048828125">
        <ele>876.79998779296875</ele>
        <time>2026-08-22T00:03:32.000Z</time>
        <extensions>
          <ns3:TrackPointExtension>
            <ns3:hr>103</ns3:hr>
            <ns3:cad>0</ns3:cad>
          </ns3:TrackPointExtension>
        </extensions>
      </trkpt>
      <trkpt lat="45.29304005205631256103515625" lon="-71.1046047694981098175048828125">
        <ele>876.79998779296875</ele>
        <time>2026-08-22T00:03:33.000Z</time>
        <extensions>
          <ns3:TrackPointExtension>
            <ns3:hr>102</ns3:hr>
            <ns3:cad>0</ns3:cad>
          </ns3:TrackPointExtension>
        </extensions>
      </trkpt>
      <trkpt lat="45.29304005205631256103515625" lon="-71.1046047694981098175048828125">
        <ele>876.79998779296875</ele>
        <time>2026-08-22T00:03:34.000Z</time>
        <extensions>
          <ns3:TrackPointExtension>
            <ns3:hr>102</ns3:hr>
            <ns3:cad>0</ns3:cad>
          </ns3:TrackPointExtension>
        </extensions>
      </trkpt>
      <trkpt lat="45.29304005205631256103515625" lon="-71.1046047694981098175048828125">
        <ele>876.79998779296875</ele>
        <time>2026-08-22T00:03:35.000Z</time>
        <extensions>
          <ns3:TrackPointExtension>
            <ns3:hr>102</ns3:hr>
            <ns3:cad>0</ns3:cad>
          </ns3:TrackPointExtension>
        </extensions>
      </trkpt>
      <trkpt lat="45.29304005205631256103515625" lon="-71.1046047694981098175048828125">
        <ele>876.79998779296875</ele>
        <time>2026-08-22T00:03:36.000Z</time>
        <extensions>
          <ns3:TrackPointExtension>
            <ns3:hr>103</ns3:hr>
            <ns3:cad>0</ns3:cad>
          </ns3:TrackPointExtension>
        </extensions>
      </trkpt>
      <trkpt lat="45.29304005205631256103515625" lon="-71.1046047694981098175048828125">
        <ele>876.79998779296875</ele>
        <time>2026-08-22T00:03:37.000Z</time>
        <extensions>
          <ns3:TrackPointExtension>
            <ns3:hr>103</ns3:hr>
            <ns3:cad>0</ns3:cad>
          </ns3:TrackPointExtension>
        </extensions>
      </trkpt>
      <trkpt lat="45.29304005205631256103515625" lon="-71.1046047694981098175048828125">
        <ele>876.79998779296875</ele>
        <time>2026-08-22T00:03:38.000Z</time>
        <extensions>
          <ns3:TrackPointExtension>
            <ns3:hr>103</ns3:hr>
            <ns3:cad>0</ns3:cad>
          </ns3:TrackPointExtension>
        </extensions>
      </trkpt>
      <trkpt lat="45.29304005205631256103515625" lon="-71.1046047694981098175048828125">
        <ele>877</ele>
        <time>2026-08-22T00:03:39.000Z</time>
        <extensions>
          <ns3:TrackPointExtension>
            <ns3:hr>102</ns3:hr>
            <ns3:cad>0</ns3:cad>
          </ns3:TrackPointExtension>
        </extensions>
      </trkpt>
      <trkpt lat="45.29304005205631256103515625" lon="-71.1046047694981098175048828125">
        <ele>876.79998779296875</ele>
        <time>2026-08-22T00:03:40.000Z</time>
        <extensions>
          <ns3:TrackPointExtension>
            <ns3:hr>102</ns3:hr>
            <ns3:cad>0</ns3:cad>
          </ns3:TrackPointExtension>
        </extensions>
      </trkpt>
      <trkpt lat="45.29304005205631256103515625" lon="-71.1046047694981098175048828125">
        <ele>876.79998779296875</ele>
        <time>2026-08-22T00:03:41.000Z</time>
        <extensions>
          <ns3:TrackPointExtension>
            <ns3:hr>102</ns3:hr>
            <ns3:cad>0</ns3:cad>
          </ns3:TrackPointExtension>
        </extensions>
      </trkpt>
      <trkpt lat="45.29304005205631256103515625" lon="-71.1046047694981098175048828125">
        <ele>876.79998779296875</ele>
        <time>2026-08-22T00:03:42.000Z</time>
        <extensions>
          <ns3:TrackPointExtension>
            <ns3:hr>102</ns3:hr>
            <ns3:cad>0</ns3:cad>
          </ns3:TrackPointExtension>
        </extensions>
      </trkpt>
      <trkpt lat="45.29304005205631256103515625" lon="-71.1046047694981098175048828125">
        <ele>876.79998779296875</ele>
        <time>2026-08-22T00:03:43.000Z</time>
        <extensions>
          <ns3:TrackPointExtension>
            <ns3:hr>102</ns3:hr>
            <ns3:cad>0</ns3:cad>
          </ns3:TrackPointExtension>
        </extensions>
      </trkpt>
      <trkpt lat="45.29304005205631256103515625" lon="-71.1046047694981098175048828125">
        <ele>876.79998779296875</ele>
        <time>2026-08-22T00:03:44.000Z</time>
        <extensions>
          <ns3:TrackPointExtension>
            <ns3:hr>102</ns3:hr>
            <ns3:cad>0</ns3:cad>
          </ns3:TrackPointExtension>
        </extensions>
      </trkpt>
      <trkpt lat="45.29304005205631256103515625" lon="-71.1046047694981098175048828125">
        <ele>876.79998779296875</ele>
        <time>2026-08-22T00:03:45.000Z</time>
        <extensions>
          <ns3:TrackPointExtension>
            <ns3:hr>102</ns3:hr>
            <ns3:cad>0</ns3:cad>
          </ns3:TrackPointExtension>
        </extensions>
      </trkpt>
      <trkpt lat="45.29304005205631256103515625" lon="-71.1046047694981098175048828125">
        <ele>876.79998779296875</ele>
        <time>2026-08-22T00:03:46.000Z</time>
        <extensions>
          <ns3:TrackPointExtension>
            <ns3:hr>102</ns3:hr>
            <ns3:cad>0</ns3:cad>
          </ns3:TrackPointExtension>
        </extensions>
      </trkpt>
      <trkpt lat="45.29304005205631256103515625" lon="-71.1046047694981098175048828125">
        <ele>876.79998779296875</ele>
        <time>2026-08-22T00:03:47.000Z</time>
        <extensions>
          <ns3:TrackPointExtension>
            <ns3:hr>102</ns3:hr>
            <ns3:cad>0</ns3:cad>
          </ns3:TrackPointExtension>
        </extensions>
      </trkpt>
      <trkpt lat="45.29304005205631256103515625" lon="-71.1046047694981098175048828125">
        <ele>876.79998779296875</ele>
        <time>2026-08-22T00:03:48.000Z</time>
        <extensions>
          <ns3:TrackPointExtension>
            <ns3:hr>103</ns3:hr>
            <ns3:cad>0</ns3:cad>
          </ns3:TrackPointExtension>
        </extensions>
      </trkpt>
      <trkpt lat="45.29304005205631256103515625" lon="-71.1046047694981098175048828125">
        <ele>876.79998779296875</ele>
        <time>2026-08-22T00:03:49.000Z</time>
        <extensions>
          <ns3:TrackPointExtension>
            <ns3:hr>103</ns3:hr>
            <ns3:cad>0</ns3:cad>
          </ns3:TrackPointExtension>
        </extensions>
      </trkpt>
      <trkpt lat="45.29304005205631256103515625" lon="-71.1046047694981098175048828125">
        <ele>876.79998779296875</ele>
        <time>2026-08-22T00:03:50.000Z</time>
        <extensions>
          <ns3:TrackPointExtension>
            <ns3:hr>102</ns3:hr>
            <ns3:cad>0</ns3:cad>
          </ns3:TrackPointExtension>
        </extensions>
      </trkpt>
      <trkpt lat="45.29304005205631256103515625" lon="-71.1046047694981098175048828125">
        <ele>876.79998779296875</ele>
        <time>2026-08-22T00:03:51.000Z</time>
        <extensions>
          <ns3:TrackPointExtension>
            <ns3:hr>103</ns3:hr>
            <ns3:cad>0</ns3:cad>
          </ns3:TrackPointExtension>
        </extensions>
      </trkpt>
      <trkpt lat="45.29304005205631256103515625" lon="-71.1046047694981098175048828125">
        <ele>876.79998779296875</ele>
        <time>2026-08-22T00:03:52.000Z</time>
        <extensions>
          <ns3:TrackPointExtension>
            <ns3:hr>103</ns3:hr>
            <ns3:cad>0</ns3:cad>
          </ns3:TrackPointExtension>
        </extensions>
      </trkpt>
      <trkpt lat="45.29304005205631256103515625" lon="-71.1046047694981098175048828125">
        <ele>876.79998779296875</ele>
        <time>2026-08-22T00:03:53.000Z</time>
        <extensions>
          <ns3:TrackPointExtension>
            <ns3:hr>104</ns3:hr>
            <ns3:cad>0</ns3:cad>
          </ns3:TrackPointExtension>
        </extensions>
      </trkpt>
      <trkpt lat="45.29304005205631256103515625" lon="-71.1046047694981098175048828125">
        <ele>876.79998779296875</ele>
        <time>2026-08-22T00:03:54.000Z</time>
        <extensions>
          <ns3:TrackPointExtension>
            <ns3:hr>104</ns3:hr>
            <ns3:cad>0</ns3:cad>
          </ns3:TrackPointExtension>
        </extensions>
      </trkpt>
      <trkpt lat="45.29303845949470996856689453125" lon="-71.10460661351680755615234375">
        <ele>876.79998779296875</ele>
        <time>2026-08-22T00:03:55.000Z</time>
        <extensions>
          <ns3:TrackPointExtension>
            <ns3:hr>104</ns3:hr>
            <ns3:cad>0</ns3:cad>
          </ns3:TrackPointExtension>
        </extensions>
      </trkpt>
      <trkpt lat="45.2930382080376148223876953125" lon="-71.10461407341063022613525390625">
        <ele>876.79998779296875</ele>
        <time>2026-08-22T00:03:56.000Z</time>
        <extensions>
          <ns3:TrackPointExtension>
            <ns3:hr>105</ns3:hr>
            <ns3:cad>0</ns3:cad>
          </ns3:TrackPointExtension>
        </extensions>
      </trkpt>
      <trkpt lat="45.29303778894245624542236328125" lon="-71.10461373813450336456298828125">
        <ele>876.79998779296875</ele>
        <time>2026-08-22T00:03:57.000Z</time>
        <extensions>
          <ns3:TrackPointExtension>
            <ns3:hr>105</ns3:hr>
            <ns3:cad>0</ns3:cad>
          </ns3:TrackPointExtension>
        </extensions>
      </trkpt>
      <trkpt lat="45.29304005205631256103515625" lon="-71.1046047694981098175048828125">
        <ele>876.79998779296875</ele>
        <time>2026-08-22T00:03:58.000Z</time>
        <extensions>
          <ns3:TrackPointExtension>
            <ns3:hr>105</ns3:hr>
            <ns3:cad>0</ns3:cad>
          </ns3:TrackPointExtension>
        </extensions>
      </trkpt>
      <trkpt lat="45.29304005205631256103515625" lon="-71.1046047694981098175048828125">
        <ele>876.79998779296875</ele>
        <time>2026-08-22T00:03:59.000Z</time>
        <extensions>
          <ns3:TrackPointExtension>
            <ns3:hr>103</ns3:hr>
            <ns3:cad>0</ns3:cad>
          </ns3:TrackPointExtension>
        </extensions>
      </trkpt>
      <trkpt lat="45.29304005205631256103515625" lon="-71.1046047694981098175048828125">
        <ele>876.79998779296875</ele>
        <time>2026-08-22T00:04:00.000Z</time>
        <extensions>
          <ns3:TrackPointExtension>
            <ns3:hr>102</ns3:hr>
            <ns3:cad>0</ns3:cad>
          </ns3:TrackPointExtension>
        </extensions>
      </trkpt>
      <trkpt lat="45.29304005205631256103515625" lon="-71.1046047694981098175048828125">
        <ele>876.79998779296875</ele>
        <time>2026-08-22T00:04:01.000Z</time>
        <extensions>
          <ns3:TrackPointExtension>
            <ns3:hr>102</ns3:hr>
            <ns3:cad>0</ns3:cad>
          </ns3:TrackPointExtension>
        </extensions>
      </trkpt>
      <trkpt lat="45.29304005205631256103515625" lon="-71.1046047694981098175048828125">
        <ele>876.79998779296875</ele>
        <time>2026-08-22T00:04:02.000Z</time>
        <extensions>
          <ns3:TrackPointExtension>
            <ns3:hr>101</ns3:hr>
            <ns3:cad>0</ns3:cad>
          </ns3:TrackPointExtension>
        </extensions>
      </trkpt>
      <trkpt lat="45.29304005205631256103515625" lon="-71.1046047694981098175048828125">
        <ele>876.79998779296875</ele>
        <time>2026-08-22T00:04:03.000Z</time>
        <extensions>
          <ns3:TrackPointExtension>
            <ns3:hr>102</ns3:hr>
            <ns3:cad>0</ns3:cad>
          </ns3:TrackPointExtension>
        </extensions>
      </trkpt>
      <trkpt lat="45.29304005205631256103515625" lon="-71.1046047694981098175048828125">
        <ele>876.79998779296875</ele>
        <time>2026-08-22T00:04:04.000Z</time>
        <extensions>
          <ns3:TrackPointExtension>
            <ns3:hr>103</ns3:hr>
            <ns3:cad>0</ns3:cad>
          </ns3:TrackPointExtension>
        </extensions>
      </trkpt>
      <trkpt lat="45.29304005205631256103515625" lon="-71.1046047694981098175048828125">
        <ele>876.79998779296875</ele>
        <time>2026-08-22T00:04:05.000Z</time>
        <extensions>
          <ns3:TrackPointExtension>
            <ns3:hr>103</ns3:hr>
            <ns3:cad>0</ns3:cad>
          </ns3:TrackPointExtension>
        </extensions>
      </trkpt>
      <trkpt lat="45.2930388785898685455322265625" lon="-71.1046208627521991729736328125">
        <ele>876.79998779296875</ele>
        <time>2026-08-22T00:04:06.000Z</time>
        <extensions>
          <ns3:TrackPointExtension>
            <ns3:hr>103</ns3:hr>
            <ns3:cad>0</ns3:cad>
          </ns3:TrackPointExtension>
        </extensions>
      </trkpt>
      <trkpt lat="45.29303661547601222991943359375" lon="-71.10462673008441925048828125">
        <ele>876.79998779296875</ele>
        <time>2026-08-22T00:04:07.000Z</time>
        <extensions>
          <ns3:TrackPointExtension>
            <ns3:hr>103</ns3:hr>
            <ns3:cad>0</ns3:cad>
          </ns3:TrackPointExtension>
        </extensions>
      </trkpt>
      <trkpt lat="45.29303275980055332183837890625" lon="-71.1046339385211467742919921875">
        <ele>877</ele>
        <time>2026-08-22T00:04:08.000Z</time>
        <extensions>
          <ns3:TrackPointExtension>
            <ns3:hr>103</ns3:hr>
            <ns3:cad>0</ns3:cad>
          </ns3:TrackPointExtension>
        </extensions>
      </trkpt>
      <trkpt lat="45.293031670153141021728515625" lon="-71.10463611781597137451171875">
        <ele>877</ele>
        <time>2026-08-22T00:04:09.000Z</time>
        <extensions>
          <ns3:TrackPointExtension>
            <ns3:hr>103</ns3:hr>
            <ns3:cad>0</ns3:cad>
          </ns3:TrackPointExtension>
        </extensions>
      </trkpt>
      <trkpt lat="45.2930318377912044525146484375" lon="-71.10463603399693965911865234375">
        <ele>877</ele>
        <time>2026-08-22T00:04:10.000Z</time>
        <extensions>
          <ns3:TrackPointExtension>
            <ns3:hr>104</ns3:hr>
            <ns3:cad>0</ns3:cad>
          </ns3:TrackPointExtension>
        </extensions>
      </trkpt>
      <trkpt lat="45.2930318377912044525146484375" lon="-71.10463603399693965911865234375">
        <ele>876.79998779296875</ele>
        <time>2026-08-22T00:04:11.000Z</time>
        <extensions>
          <ns3:TrackPointExtension>
            <ns3:hr>105</ns3:hr>
            <ns3:cad>0</ns3:cad>
          </ns3:TrackPointExtension>
        </extensions>
      </trkpt>
      <trkpt lat="45.2930318377912044525146484375" lon="-71.10463603399693965911865234375">
        <ele>876.79998779296875</ele>
        <time>2026-08-22T00:04:12.000Z</time>
        <extensions>
          <ns3:TrackPointExtension>
            <ns3:hr>108</ns3:hr>
            <ns3:cad>0</ns3:cad>
          </ns3:TrackPointExtension>
        </extensions>
      </trkpt>
      <trkpt lat="45.2930318377912044525146484375" lon="-71.10463603399693965911865234375">
        <ele>876.79998779296875</ele>
        <time>2026-08-22T00:04:13.000Z</time>
        <extensions>
          <ns3:TrackPointExtension>
            <ns3:hr>108</ns3:hr>
            <ns3:cad>0</ns3:cad>
          </ns3:TrackPointExtension>
        </extensions>
      </trkpt>
      <trkpt lat="45.2930318377912044525146484375" lon="-71.10463603399693965911865234375">
        <ele>876.79998779296875</ele>
        <time>2026-08-22T00:04:14.000Z</time>
        <extensions>
          <ns3:TrackPointExtension>
            <ns3:hr>107</ns3:hr>
            <ns3:cad>0</ns3:cad>
          </ns3:TrackPointExtension>
        </extensions>
      </trkpt>
      <trkpt lat="45.2930318377912044525146484375" lon="-71.10463603399693965911865234375">
        <ele>876.79998779296875</ele>
        <time>2026-08-22T00:04:15.000Z</time>
        <extensions>
          <ns3:TrackPointExtension>
            <ns3:hr>107</ns3:hr>
            <ns3:cad>0</ns3:cad>
          </ns3:TrackPointExtension>
        </extensions>
      </trkpt>
      <trkpt lat="45.2930318377912044525146484375" lon="-71.10463603399693965911865234375">
        <ele>876.79998779296875</ele>
        <time>2026-08-22T00:04:16.000Z</time>
        <extensions>
          <ns3:TrackPointExtension>
            <ns3:hr>107</ns3:hr>
            <ns3:cad>0</ns3:cad>
          </ns3:TrackPointExtension>
        </extensions>
      </trkpt>
      <trkpt lat="45.2930318377912044525146484375" lon="-71.10463603399693965911865234375">
        <ele>877</ele>
        <time>2026-08-22T00:04:17.000Z</time>
        <extensions>
          <ns3:TrackPointExtension>
            <ns3:hr>106</ns3:hr>
            <ns3:cad>0</ns3:cad>
          </ns3:TrackPointExtension>
        </extensions>
      </trkpt>
      <trkpt lat="45.2930318377912044525146484375" lon="-71.10463603399693965911865234375">
        <ele>877</ele>
        <time>2026-08-22T00:04:18.000Z</time>
        <extensions>
          <ns3:TrackPointExtension>
            <ns3:hr>106</ns3:hr>
            <ns3:cad>0</ns3:cad>
          </ns3:TrackPointExtension>
        </extensions>
      </trkpt>
      <trkpt lat="45.2930318377912044525146484375" lon="-71.10463603399693965911865234375">
        <ele>877</ele>
        <time>2026-08-22T00:04:19.000Z</time>
        <extensions>
          <ns3:TrackPointExtension>
            <ns3:hr>106</ns3:hr>
            <ns3:cad>0</ns3:cad>
          </ns3:TrackPointExtension>
        </extensions>
      </trkpt>
      <trkpt lat="45.2930318377912044525146484375" lon="-71.10463603399693965911865234375">
        <ele>877</ele>
        <time>2026-08-22T00:04:20.000Z</time>
        <extensions>
          <ns3:TrackPointExtension>
            <ns3:hr>106</ns3:hr>
            <ns3:cad>0</ns3:cad>
          </ns3:TrackPointExtension>
        </extensions>
      </trkpt>
      <trkpt lat="45.2930318377912044525146484375" lon="-71.10463603399693965911865234375">
        <ele>877</ele>
        <time>2026-08-22T00:04:21.000Z</time>
        <extensions>
          <ns3:TrackPointExtension>
            <ns3:hr>106</ns3:hr>
            <ns3:cad>0</ns3:cad>
          </ns3:TrackPointExtension>
        </extensions>
      </trkpt>
      <trkpt lat="45.2930318377912044525146484375" lon="-71.10463603399693965911865234375">
        <ele>877</ele>
        <time>2026-08-22T00:04:22.000Z</time>
        <extensions>
          <ns3:TrackPointExtension>
            <ns3:hr>105</ns3:hr>
            <ns3:cad>0</ns3:cad>
          </ns3:TrackPointExtension>
        </extensions>
      </trkpt>
      <trkpt lat="45.2930318377912044525146484375" lon="-71.10463603399693965911865234375">
        <ele>877</ele>
        <time>2026-08-22T00:04:23.000Z</time>
        <extensions>
          <ns3:TrackPointExtension>
            <ns3:hr>103</ns3:hr>
            <ns3:cad>0</ns3:cad>
          </ns3:TrackPointExtension>
        </extensions>
      </trkpt>
      <trkpt lat="45.2930318377912044525146484375" lon="-71.10463603399693965911865234375">
        <ele>877</ele>
        <time>2026-08-22T00:04:24.000Z</time>
        <extensions>
          <ns3:TrackPointExtension>
            <ns3:hr>100</ns3:hr>
            <ns3:cad>0</ns3:cad>
          </ns3:TrackPointExtension>
        </extensions>
      </trkpt>
      <trkpt lat="45.2930380403995513916015625" lon="-71.1046238802373409271240234375">
        <ele>877</ele>
        <time>2026-08-22T00:04:25.000Z</time>
        <extensions>
          <ns3:TrackPointExtension>
            <ns3:hr>99</ns3:hr>
            <ns3:cad>0</ns3:cad>
          </ns3:TrackPointExtension>
        </extensions>
      </trkpt>
      <trkpt lat="45.293041728436946868896484375" lon="-71.104621030390262603759765625">
        <ele>877</ele>
        <time>2026-08-22T00:04:26.000Z</time>
        <extensions>
          <ns3:TrackPointExtension>
            <ns3:hr>98</ns3:hr>
            <ns3:cad>0</ns3:cad>
          </ns3:TrackPointExtension>
        </extensions>
      </trkpt>
      <trkpt lat="45.2930318377912044525146484375" lon="-71.10463603399693965911865234375">
        <ele>877</ele>
        <time>2026-08-22T00:04:27.000Z</time>
        <extensions>
          <ns3:TrackPointExtension>
            <ns3:hr>98</ns3:hr>
            <ns3:cad>0</ns3:cad>
          </ns3:TrackPointExtension>
        </extensions>
      </trkpt>
      <trkpt lat="45.2930318377912044525146484375" lon="-71.10463603399693965911865234375">
        <ele>877</ele>
        <time>2026-08-22T00:04:28.000Z</time>
        <extensions>
          <ns3:TrackPointExtension>
            <ns3:hr>98</ns3:hr>
            <ns3:cad>0</ns3:cad>
          </ns3:TrackPointExtension>
        </extensions>
      </trkpt>
      <trkpt lat="45.2930318377912044525146484375" lon="-71.10463603399693965911865234375">
        <ele>877</ele>
        <time>2026-08-22T00:04:29.000Z</time>
        <extensions>
          <ns3:TrackPointExtension>
            <ns3:hr>98</ns3:hr>
            <ns3:cad>0</ns3:cad>
          </ns3:TrackPointExtension>
        </extensions>
      </trkpt>
      <trkpt lat="45.29304030351340770721435546875" lon="-71.1046225391328334808349609375">
        <ele>877</ele>
        <time>2026-08-22T00:04:30.000Z</time>
        <extensions>
          <ns3:TrackPointExtension>
            <ns3:hr>97</ns3:hr>
            <ns3:cad>0</ns3:cad>
          </ns3:TrackPointExtension>
        </extensions>
      </trkpt>
      <trkpt lat="45.2930318377912044525146484375" lon="-71.10463603399693965911865234375">
        <ele>877</ele>
        <time>2026-08-22T00:04:31.000Z</time>
        <extensions>
          <ns3:TrackPointExtension>
            <ns3:hr>97</ns3:hr>
            <ns3:cad>0</ns3:cad>
          </ns3:TrackPointExtension>
        </extensions>
      </trkpt>
      <trkpt lat="45.2930318377912044525146484375" lon="-71.10463603399693965911865234375">
        <ele>877</ele>
        <time>2026-08-22T00:04:32.000Z</time>
        <extensions>
          <ns3:TrackPointExtension>
            <ns3:hr>98</ns3:hr>
            <ns3:cad>0</ns3:cad>
          </ns3:TrackPointExtension>
        </extensions>
      </trkpt>
      <trkpt lat="45.2930318377912044525146484375" lon="-71.10463603399693965911865234375">
        <ele>877</ele>
        <time>2026-08-22T00:04:33.000Z</time>
        <extensions>
          <ns3:TrackPointExtension>
            <ns3:hr>98</ns3:hr>
            <ns3:cad>0</ns3:cad>
          </ns3:TrackPointExtension>
        </extensions>
      </trkpt>
      <trkpt lat="45.2930318377912044525146484375" lon="-71.10463603399693965911865234375">
        <ele>877</ele>
        <time>2026-08-22T00:04:34.000Z</time>
        <extensions>
          <ns3:TrackPointExtension>
            <ns3:hr>97</ns3:hr>
            <ns3:cad>0</ns3:cad>
          </ns3:TrackPointExtension>
        </extensions>
      </trkpt>
      <trkpt lat="45.2930318377912044525146484375" lon="-71.10463603399693965911865234375">
        <ele>877</ele>
        <time>2026-08-22T00:04:35.000Z</time>
        <extensions>
          <ns3:TrackPointExtension>
            <ns3:hr>98</ns3:hr>
            <ns3:cad>0</ns3:cad>
          </ns3:TrackPointExtension>
        </extensions>
      </trkpt>
      <trkpt lat="45.29303862713277339935302734375" lon="-71.10462245531380176544189453125">
        <ele>877</ele>
        <time>2026-08-22T00:04:36.000Z</time>
        <extensions>
          <ns3:TrackPointExtension>
            <ns3:hr>98</ns3:hr>
            <ns3:cad>0</ns3:cad>
          </ns3:TrackPointExtension>
        </extensions>
      </trkpt>
      <trkpt lat="45.2930460870265960693359375" lon="-71.10461675561964511871337890625">
        <ele>877</ele>
        <time>2026-08-22T00:04:37.000Z</time>
        <extensions>
          <ns3:TrackPointExtension>
            <ns3:hr>99</ns3:hr>
            <ns3:cad>0</ns3:cad>
          </ns3:TrackPointExtension>
        </extensions>
      </trkpt>
      <trkpt lat="45.29304684139788150787353515625" lon="-71.104614324867725372314453125">
        <ele>877</ele>
        <time>2026-08-22T00:04:38.000Z</time>
        <extensions>
          <ns3:TrackPointExtension>
            <ns3:hr>99</ns3:hr>
            <ns3:cad>0</ns3:cad>
          </ns3:TrackPointExtension>
        </extensions>
      </trkpt>
      <trkpt lat="45.29304206371307373046875" lon="-71.1046154983341693878173828125">
        <ele>877</ele>
        <time>2026-08-22T00:04:39.000Z</time>
        <extensions>
          <ns3:TrackPointExtension>
            <ns3:hr>100</ns3:hr>
            <ns3:cad>0</ns3:cad>
          </ns3:TrackPointExtension>
        </extensions>
      </trkpt>
      <trkpt lat="45.29304197989404201507568359375" lon="-71.104615665972232818603515625">
        <ele>877</ele>
        <time>2026-08-22T00:04:40.000Z</time>
        <extensions>
          <ns3:TrackPointExtension>
            <ns3:hr>101</ns3:hr>
            <ns3:cad>0</ns3:cad>
          </ns3:TrackPointExtension>
        </extensions>
      </trkpt>
      <trkpt lat="45.29304197989404201507568359375" lon="-71.104615665972232818603515625">
        <ele>876.79998779296875</ele>
        <time>2026-08-22T00:04:41.000Z</time>
        <extensions>
          <ns3:TrackPointExtension>
            <ns3:hr>101</ns3:hr>
            <ns3:cad>0</ns3:cad>
          </ns3:TrackPointExtension>
        </extensions>
      </trkpt>
      <trkpt lat="45.29304197989404201507568359375" lon="-71.104615665972232818603515625">
        <ele>876.79998779296875</ele>
        <time>2026-08-22T00:04:42.000Z</time>
        <extensions>
          <ns3:TrackPointExtension>
            <ns3:hr>102</ns3:hr>
            <ns3:cad>0</ns3:cad>
          </ns3:TrackPointExtension>
        </extensions>
      </trkpt>
      <trkpt lat="45.29304197989404201507568359375" lon="-71.104615665972232818603515625">
        <ele>877</ele>
        <time>2026-08-22T00:04:43.000Z</time>
        <extensions>
          <ns3:TrackPointExtension>
            <ns3:hr>102</ns3:hr>
            <ns3:cad>0</ns3:cad>
          </ns3:TrackPointExtension>
        </extensions>
      </trkpt>
      <trkpt lat="45.29304197989404201507568359375" lon="-71.104615665972232818603515625">
        <ele>877</ele>
        <time>2026-08-22T00:04:44.000Z</time>
        <extensions>
          <ns3:TrackPointExtension>
            <ns3:hr>102</ns3:hr>
            <ns3:cad>0</ns3:cad>
          </ns3:TrackPointExtension>
        </extensions>
      </trkpt>
      <trkpt lat="45.29304197989404201507568359375" lon="-71.104615665972232818603515625">
        <ele>877</ele>
        <time>2026-08-22T00:04:45.000Z</time>
        <extensions>
          <ns3:TrackPointExtension>
            <ns3:hr>102</ns3:hr>
            <ns3:cad>0</ns3:cad>
          </ns3:TrackPointExtension>
        </extensions>
      </trkpt>
      <trkpt lat="45.29304130934178829193115234375" lon="-71.10461574979126453399658203125">
        <ele>877</ele>
        <time>2026-08-22T00:04:46.000Z</time>
        <extensions>
          <ns3:TrackPointExtension>
            <ns3:hr>102</ns3:hr>
            <ns3:cad>68</ns3:cad>
          </ns3:TrackPointExtension>
        </extensions>
      </trkpt>
      <trkpt lat="45.29304432682693004608154296875" lon="-71.10461457632482051849365234375">
        <ele>877</ele>
        <time>2026-08-22T00:04:47.000Z</time>
        <extensions>
          <ns3:TrackPointExtension>
            <ns3:hr>102</ns3:hr>
            <ns3:cad>68</ns3:cad>
          </ns3:TrackPointExtension>
        </extensions>
      </trkpt>
      <trkpt lat="45.29304617084562778472900390625" lon="-71.1046161688864231109619140625">
        <ele>877</ele>
        <time>2026-08-22T00:04:48.000Z</time>
        <extensions>
          <ns3:TrackPointExtension>
            <ns3:hr>101</ns3:hr>
            <ns3:cad>0</ns3:cad>
          </ns3:TrackPointExtension>
        </extensions>
      </trkpt>
      <trkpt lat="45.29304197989404201507568359375" lon="-71.104615665972232818603515625">
        <ele>877</ele>
        <time>2026-08-22T00:04:49.000Z</time>
        <extensions>
          <ns3:TrackPointExtension>
            <ns3:hr>101</ns3:hr>
            <ns3:cad>0</ns3:cad>
          </ns3:TrackPointExtension>
        </extensions>
      </trkpt>
      <trkpt lat="45.29304197989404201507568359375" lon="-71.104615665972232818603515625">
        <ele>877.20001220703125</ele>
        <time>2026-08-22T00:04:50.000Z</time>
        <extensions>
          <ns3:TrackPointExtension>
            <ns3:hr>101</ns3:hr>
            <ns3:cad>0</ns3:cad>
          </ns3:TrackPointExtension>
        </extensions>
      </trkpt>
      <trkpt lat="45.29304197989404201507568359375" lon="-71.104615665972232818603515625">
        <ele>877</ele>
        <time>2026-08-22T00:04:51.000Z</time>
        <extensions>
          <ns3:TrackPointExtension>
            <ns3:hr>100</ns3:hr>
            <ns3:cad>0</ns3:cad>
          </ns3:TrackPointExtension>
        </extensions>
      </trkpt>
      <trkpt lat="45.29304197989404201507568359375" lon="-71.104615665972232818603515625">
        <ele>877</ele>
        <time>2026-08-22T00:04:52.000Z</time>
        <extensions>
          <ns3:TrackPointExtension>
            <ns3:hr>100</ns3:hr>
            <ns3:cad>0</ns3:cad>
          </ns3:TrackPointExtension>
        </extensions>
      </trkpt>
      <trkpt lat="45.29304197989404201507568359375" lon="-71.104615665972232818603515625">
        <ele>877</ele>
        <time>2026-08-22T00:04:53.000Z</time>
        <extensions>
          <ns3:TrackPointExtension>
            <ns3:hr>100</ns3:hr>
            <ns3:cad>0</ns3:cad>
          </ns3:TrackPointExtension>
        </extensions>
      </trkpt>
      <trkpt lat="45.29304197989404201507568359375" lon="-71.104615665972232818603515625">
        <ele>877</ele>
        <time>2026-08-22T00:04:54.000Z</time>
        <extensions>
          <ns3:TrackPointExtension>
            <ns3:hr>100</ns3:hr>
            <ns3:cad>0</ns3:cad>
          </ns3:TrackPointExtension>
        </extensions>
      </trkpt>
      <trkpt lat="45.29304197989404201507568359375" lon="-71.104615665972232818603515625">
        <ele>877</ele>
        <time>2026-08-22T00:04:55.000Z</time>
        <extensions>
          <ns3:TrackPointExtension>
            <ns3:hr>100</ns3:hr>
            <ns3:cad>0</ns3:cad>
          </ns3:TrackPointExtension>
        </extensions>
      </trkpt>
      <trkpt lat="45.29304197989404201507568359375" lon="-71.104615665972232818603515625">
        <ele>877</ele>
        <time>2026-08-22T00:04:56.000Z</time>
        <extensions>
          <ns3:TrackPointExtension>
            <ns3:hr>100</ns3:hr>
            <ns3:cad>0</ns3:cad>
          </ns3:TrackPointExtension>
        </extensions>
      </trkpt>
      <trkpt lat="45.29304197989404201507568359375" lon="-71.104615665972232818603515625">
        <ele>877</ele>
        <time>2026-08-22T00:04:57.000Z</time>
        <extensions>
          <ns3:TrackPointExtension>
            <ns3:hr>100</ns3:hr>
            <ns3:cad>0</ns3:cad>
          </ns3:TrackPointExtension>
        </extensions>
      </trkpt>
      <trkpt lat="45.29304197989404201507568359375" lon="-71.104615665972232818603515625">
        <ele>877</ele>
        <time>2026-08-22T00:04:58.000Z</time>
        <extensions>
          <ns3:TrackPointExtension>
            <ns3:hr>101</ns3:hr>
            <ns3:cad>0</ns3:cad>
          </ns3:TrackPointExtension>
        </extensions>
      </trkpt>
      <trkpt lat="45.29304197989404201507568359375" lon="-71.104615665972232818603515625">
        <ele>877</ele>
        <time>2026-08-22T00:04:59.000Z</time>
        <extensions>
          <ns3:TrackPointExtension>
            <ns3:hr>101</ns3:hr>
            <ns3:cad>0</ns3:cad>
          </ns3:TrackPointExtension>
        </extensions>
      </trkpt>
      <trkpt lat="45.29304197989404201507568359375" lon="-71.104615665972232818603515625">
        <ele>877</ele>
        <time>2026-08-22T00:05:00.000Z</time>
        <extensions>
          <ns3:TrackPointExtension>
            <ns3:hr>101</ns3:hr>
            <ns3:cad>0</ns3:cad>
          </ns3:TrackPointExtension>
        </extensions>
      </trkpt>
      <trkpt lat="45.29304197989404201507568359375" lon="-71.104615665972232818603515625">
        <ele>877</ele>
        <time>2026-08-22T00:05:01.000Z</time>
        <extensions>
          <ns3:TrackPointExtension>
            <ns3:hr>101</ns3:hr>
            <ns3:cad>0</ns3:cad>
          </ns3:TrackPointExtension>
        </extensions>
      </trkpt>
      <trkpt lat="45.29304197989404201507568359375" lon="-71.104615665972232818603515625">
        <ele>877</ele>
        <time>2026-08-22T00:05:02.000Z</time>
        <extensions>
          <ns3:TrackPointExtension>
            <ns3:hr>101</ns3:hr>
            <ns3:cad>0</ns3:cad>
          </ns3:TrackPointExtension>
        </extensions>
      </trkpt>
      <trkpt lat="45.29304197989404201507568359375" lon="-71.104615665972232818603515625">
        <ele>877</ele>
        <time>2026-08-22T00:05:03.000Z</time>
        <extensions>
          <ns3:TrackPointExtension>
            <ns3:hr>101</ns3:hr>
            <ns3:cad>0</ns3:cad>
          </ns3:TrackPointExtension>
        </extensions>
      </trkpt>
      <trkpt lat="45.29304197989404201507568359375" lon="-71.104615665972232818603515625">
        <ele>877</ele>
        <time>2026-08-22T00:05:04.000Z</time>
        <extensions>
          <ns3:TrackPointExtension>
            <ns3:hr>101</ns3:hr>
            <ns3:cad>0</ns3:cad>
          </ns3:TrackPointExtension>
        </extensions>
      </trkpt>
      <trkpt lat="45.29304197989404201507568359375" lon="-71.104615665972232818603515625">
        <ele>877</ele>
        <time>2026-08-22T00:05:05.000Z</time>
        <extensions>
          <ns3:TrackPointExtension>
            <ns3:hr>100</ns3:hr>
            <ns3:cad>0</ns3:cad>
          </ns3:TrackPointExtension>
        </extensions>
      </trkpt>
      <trkpt lat="45.29304197989404201507568359375" lon="-71.104615665972232818603515625">
        <ele>877</ele>
        <time>2026-08-22T00:05:06.000Z</time>
        <extensions>
          <ns3:TrackPointExtension>
            <ns3:hr>99</ns3:hr>
            <ns3:cad>0</ns3:cad>
          </ns3:TrackPointExtension>
        </extensions>
      </trkpt>
      <trkpt lat="45.29304197989404201507568359375" lon="-71.104615665972232818603515625">
        <ele>877</ele>
        <time>2026-08-22T00:05:07.000Z</time>
        <extensions>
          <ns3:TrackPointExtension>
            <ns3:hr>99</ns3:hr>
            <ns3:cad>0</ns3:cad>
          </ns3:TrackPointExtension>
        </extensions>
      </trkpt>
      <trkpt lat="45.29304197989404201507568359375" lon="-71.104615665972232818603515625">
        <ele>877</ele>
        <time>2026-08-22T00:05:08.000Z</time>
        <extensions>
          <ns3:TrackPointExtension>
            <ns3:hr>99</ns3:hr>
            <ns3:cad>0</ns3:cad>
          </ns3:TrackPointExtension>
        </extensions>
      </trkpt>
      <trkpt lat="45.29304197989404201507568359375" lon="-71.104615665972232818603515625">
        <ele>877</ele>
        <time>2026-08-22T00:05:09.000Z</time>
        <extensions>
          <ns3:TrackPointExtension>
            <ns3:hr>98</ns3:hr>
            <ns3:cad>0</ns3:cad>
          </ns3:TrackPointExtension>
        </extensions>
      </trkpt>
      <trkpt lat="45.29304197989404201507568359375" lon="-71.104615665972232818603515625">
        <ele>877</ele>
        <time>2026-08-22T00:05:10.000Z</time>
        <extensions>
          <ns3:TrackPointExtension>
            <ns3:hr>98</ns3:hr>
            <ns3:cad>0</ns3:cad>
          </ns3:TrackPointExtension>
        </extensions>
      </trkpt>
      <trkpt lat="45.29304197989404201507568359375" lon="-71.104615665972232818603515625">
        <ele>877</ele>
        <time>2026-08-22T00:05:11.000Z</time>
        <extensions>
          <ns3:TrackPointExtension>
            <ns3:hr>97</ns3:hr>
            <ns3:cad>0</ns3:cad>
          </ns3:TrackPointExtension>
        </extensions>
      </trkpt>
      <trkpt lat="45.29304197989404201507568359375" lon="-71.104615665972232818603515625">
        <ele>877</ele>
        <time>2026-08-22T00:05:12.000Z</time>
        <extensions>
          <ns3:TrackPointExtension>
            <ns3:hr>97</ns3:hr>
            <ns3:cad>0</ns3:cad>
          </ns3:TrackPointExtension>
        </extensions>
      </trkpt>
      <trkpt lat="45.29304197989404201507568359375" lon="-71.104615665972232818603515625">
        <ele>877</ele>
        <time>2026-08-22T00:05:13.000Z</time>
        <extensions>
          <ns3:TrackPointExtension>
            <ns3:hr>96</ns3:hr>
            <ns3:cad>0</ns3:cad>
          </ns3:TrackPointExtension>
        </extensions>
      </trkpt>
      <trkpt lat="45.29304197989404201507568359375" lon="-71.104615665972232818603515625">
        <ele>877</ele>
        <time>2026-08-22T00:05:14.000Z</time>
        <extensions>
          <ns3:TrackPointExtension>
            <ns3:hr>96</ns3:hr>
            <ns3:cad>0</ns3:cad>
          </ns3:TrackPointExtension>
        </extensions>
      </trkpt>
      <trkpt lat="45.29304197989404201507568359375" lon="-71.104615665972232818603515625">
        <ele>877</ele>
        <time>2026-08-22T00:05:15.000Z</time>
        <extensions>
          <ns3:TrackPointExtension>
            <ns3:hr>96</ns3:hr>
            <ns3:cad>0</ns3:cad>
          </ns3:TrackPointExtension>
        </extensions>
      </trkpt>
      <trkpt lat="45.29304197989404201507568359375" lon="-71.104615665972232818603515625">
        <ele>877</ele>
        <time>2026-08-22T00:05:16.000Z</time>
        <extensions>
          <ns3:TrackPointExtension>
            <ns3:hr>96</ns3:hr>
            <ns3:cad>0</ns3:cad>
          </ns3:TrackPointExtension>
        </extensions>
      </trkpt>
      <trkpt lat="45.29304197989404201507568359375" lon="-71.104615665972232818603515625">
        <ele>877</ele>
        <time>2026-08-22T00:05:17.000Z</time>
        <extensions>
          <ns3:TrackPointExtension>
            <ns3:hr>96</ns3:hr>
            <ns3:cad>0</ns3:cad>
          </ns3:TrackPointExtension>
        </extensions>
      </trkpt>
      <trkpt lat="45.29304197989404201507568359375" lon="-71.104615665972232818603515625">
        <ele>877</ele>
        <time>2026-08-22T00:05:18.000Z</time>
        <extensions>
          <ns3:TrackPointExtension>
            <ns3:hr>96</ns3:hr>
            <ns3:cad>0</ns3:cad>
          </ns3:TrackPointExtension>
        </extensions>
      </trkpt>
      <trkpt lat="45.29304197989404201507568359375" lon="-71.104615665972232818603515625">
        <ele>877</ele>
        <time>2026-08-22T00:05:19.000Z</time>
        <extensions>
          <ns3:TrackPointExtension>
            <ns3:hr>96</ns3:hr>
            <ns3:cad>0</ns3:cad>
          </ns3:TrackPointExtension>
        </extensions>
      </trkpt>
      <trkpt lat="45.29304197989404201507568359375" lon="-71.104615665972232818603515625">
        <ele>877</ele>
        <time>2026-08-22T00:05:20.000Z</time>
        <extensions>
          <ns3:TrackPointExtension>
            <ns3:hr>96</ns3:hr>
            <ns3:cad>0</ns3:cad>
          </ns3:TrackPointExtension>
        </extensions>
      </trkpt>
      <trkpt lat="45.29304197989404201507568359375" lon="-71.104615665972232818603515625">
        <ele>877</ele>
        <time>2026-08-22T00:05:21.000Z</time>
        <extensions>
          <ns3:TrackPointExtension>
            <ns3:hr>97</ns3:hr>
            <ns3:cad>0</ns3:cad>
          </ns3:TrackPointExtension>
        </extensions>
      </trkpt>
      <trkpt lat="45.29304197989404201507568359375" lon="-71.104615665972232818603515625">
        <ele>877</ele>
        <time>2026-08-22T00:05:22.000Z</time>
        <extensions>
          <ns3:TrackPointExtension>
            <ns3:hr>98</ns3:hr>
            <ns3:cad>0</ns3:cad>
          </ns3:TrackPointExtension>
        </extensions>
      </trkpt>
      <trkpt lat="45.29304197989404201507568359375" lon="-71.104615665972232818603515625">
        <ele>876.79998779296875</ele>
        <time>2026-08-22T00:05:23.000Z</time>
        <extensions>
          <ns3:TrackPointExtension>
            <ns3:hr>98</ns3:hr>
            <ns3:cad>0</ns3:cad>
          </ns3:TrackPointExtension>
        </extensions>
      </trkpt>
      <trkpt lat="45.29304197989404201507568359375" lon="-71.104615665972232818603515625">
        <ele>877</ele>
        <time>2026-08-22T00:05:24.000Z</time>
        <extensions>
          <ns3:TrackPointExtension>
            <ns3:hr>98</ns3:hr>
            <ns3:cad>0</ns3:cad>
          </ns3:TrackPointExtension>
        </extensions>
      </trkpt>
      <trkpt lat="45.29304197989404201507568359375" lon="-71.104615665972232818603515625">
        <ele>877</ele>
        <time>2026-08-22T00:05:25.000Z</time>
        <extensions>
          <ns3:TrackPointExtension>
            <ns3:hr>98</ns3:hr>
            <ns3:cad>0</ns3:cad>
          </ns3:TrackPointExtension>
        </extensions>
      </trkpt>
      <trkpt lat="45.29304197989404201507568359375" lon="-71.104615665972232818603515625">
        <ele>877</ele>
        <time>2026-08-22T00:05:26.000Z</time>
        <extensions>
          <ns3:TrackPointExtension>
            <ns3:hr>98</ns3:hr>
            <ns3:cad>0</ns3:cad>
          </ns3:TrackPointExtension>
        </extensions>
      </trkpt>
      <trkpt lat="45.29304197989404201507568359375" lon="-71.104615665972232818603515625">
        <ele>877</ele>
        <time>2026-08-22T00:05:27.000Z</time>
        <extensions>
          <ns3:TrackPointExtension>
            <ns3:hr>98</ns3:hr>
            <ns3:cad>0</ns3:cad>
          </ns3:TrackPointExtension>
        </extensions>
      </trkpt>
      <trkpt lat="45.29304197989404201507568359375" lon="-71.104615665972232818603515625">
        <ele>877</ele>
        <time>2026-08-22T00:05:28.000Z</time>
        <extensions>
          <ns3:TrackPointExtension>
            <ns3:hr>99</ns3:hr>
            <ns3:cad>0</ns3:cad>
          </ns3:TrackPointExtension>
        </extensions>
      </trkpt>
      <trkpt lat="45.29304197989404201507568359375" lon="-71.104615665972232818603515625">
        <ele>877</ele>
        <time>2026-08-22T00:05:29.000Z</time>
        <extensions>
          <ns3:TrackPointExtension>
            <ns3:hr>100</ns3:hr>
            <ns3:cad>0</ns3:cad>
          </ns3:TrackPointExtension>
        </extensions>
      </trkpt>
      <trkpt lat="45.29304197989404201507568359375" lon="-71.104615665972232818603515625">
        <ele>877</ele>
        <time>2026-08-22T00:05:30.000Z</time>
        <extensions>
          <ns3:TrackPointExtension>
            <ns3:hr>100</ns3:hr>
            <ns3:cad>0</ns3:cad>
          </ns3:TrackPointExtension>
        </extensions>
      </trkpt>
      <trkpt lat="45.29304197989404201507568359375" lon="-71.104615665972232818603515625">
        <ele>876.79998779296875</ele>
        <time>2026-08-22T00:05:31.000Z</time>
        <extensions>
          <ns3:TrackPointExtension>
            <ns3:hr>100</ns3:hr>
            <ns3:cad>0</ns3:cad>
          </ns3:TrackPointExtension>
        </extensions>
      </trkpt>
      <trkpt lat="45.29304197989404201507568359375" lon="-71.104615665972232818603515625">
        <ele>876.79998779296875</ele>
        <time>2026-08-22T00:05:32.000Z</time>
        <extensions>
          <ns3:TrackPointExtension>
            <ns3:hr>99</ns3:hr>
            <ns3:cad>0</ns3:cad>
          </ns3:TrackPointExtension>
        </extensions>
      </trkpt>
      <trkpt lat="45.29304197989404201507568359375" lon="-71.104615665972232818603515625">
        <ele>876.79998779296875</ele>
        <time>2026-08-22T00:05:33.000Z</time>
        <extensions>
          <ns3:TrackPointExtension>
            <ns3:hr>98</ns3:hr>
            <ns3:cad>0</ns3:cad>
          </ns3:TrackPointExtension>
        </extensions>
      </trkpt>
      <trkpt lat="45.29304197989404201507568359375" lon="-71.104615665972232818603515625">
        <ele>877</ele>
        <time>2026-08-22T00:05:34.000Z</time>
        <extensions>
          <ns3:TrackPointExtension>
            <ns3:hr>95</ns3:hr>
            <ns3:cad>0</ns3:cad>
          </ns3:TrackPointExtension>
        </extensions>
      </trkpt>
      <trkpt lat="45.29304197989404201507568359375" lon="-71.104615665972232818603515625">
        <ele>877</ele>
        <time>2026-08-22T00:05:35.000Z</time>
        <extensions>
          <ns3:TrackPointExtension>
            <ns3:hr>93</ns3:hr>
            <ns3:cad>0</ns3:cad>
          </ns3:TrackPointExtension>
        </extensions>
      </trkpt>
      <trkpt lat="45.29304197989404201507568359375" lon="-71.104615665972232818603515625">
        <ele>877</ele>
        <time>2026-08-22T00:05:36.000Z</time>
        <extensions>
          <ns3:TrackPointExtension>
            <ns3:hr>92</ns3:hr>
            <ns3:cad>0</ns3:cad>
          </ns3:TrackPointExtension>
        </extensions>
      </trkpt>
      <trkpt lat="45.29304273426532745361328125" lon="-71.10461692325770854949951171875">
        <ele>877</ele>
        <time>2026-08-22T00:05:37.000Z</time>
        <extensions>
          <ns3:TrackPointExtension>
            <ns3:hr>92</ns3:hr>
            <ns3:cad>0</ns3:cad>
          </ns3:TrackPointExtension>
        </extensions>
      </trkpt>
      <trkpt lat="45.29304197989404201507568359375" lon="-71.104615665972232818603515625">
        <ele>877</ele>
        <time>2026-08-22T00:05:38.000Z</time>
        <extensions>
          <ns3:TrackPointExtension>
            <ns3:hr>92</ns3:hr>
            <ns3:cad>0</ns3:cad>
          </ns3:TrackPointExtension>
        </extensions>
      </trkpt>
      <trkpt lat="45.29304197989404201507568359375" lon="-71.104615665972232818603515625">
        <ele>877</ele>
        <time>2026-08-22T00:05:39.000Z</time>
        <extensions>
          <ns3:TrackPointExtension>
            <ns3:hr>92</ns3:hr>
            <ns3:cad>0</ns3:cad>
          </ns3:TrackPointExtension>
        </extensions>
      </trkpt>
      <trkpt lat="45.29304197989404201507568359375" lon="-71.104615665972232818603515625">
        <ele>877</ele>
        <time>2026-08-22T00:05:40.000Z</time>
        <extensions>
          <ns3:TrackPointExtension>
            <ns3:hr>93</ns3:hr>
            <ns3:cad>0</ns3:cad>
          </ns3:TrackPointExtension>
        </extensions>
      </trkpt>
      <trkpt lat="45.29304197989404201507568359375" lon="-71.104615665972232818603515625">
        <ele>877</ele>
        <time>2026-08-22T00:05:41.000Z</time>
        <extensions>
          <ns3:TrackPointExtension>
            <ns3:hr>93</ns3:hr>
            <ns3:cad>0</ns3:cad>
          </ns3:TrackPointExtension>
        </extensions>
      </trkpt>
      <trkpt lat="45.29304197989404201507568359375" lon="-71.104615665972232818603515625">
        <ele>877</ele>
        <time>2026-08-22T00:05:42.000Z</time>
        <extensions>
          <ns3:TrackPointExtension>
            <ns3:hr>93</ns3:hr>
            <ns3:cad>0</ns3:cad>
          </ns3:TrackPointExtension>
        </extensions>
      </trkpt>
      <trkpt lat="45.29304197989404201507568359375" lon="-71.104615665972232818603515625">
        <ele>877</ele>
        <time>2026-08-22T00:05:43.000Z</time>
        <extensions>
          <ns3:TrackPointExtension>
            <ns3:hr>95</ns3:hr>
            <ns3:cad>0</ns3:cad>
          </ns3:TrackPointExtension>
        </extensions>
      </trkpt>
      <trkpt lat="45.29304197989404201507568359375" lon="-71.104615665972232818603515625">
        <ele>877</ele>
        <time>2026-08-22T00:05:44.000Z</time>
        <extensions>
          <ns3:TrackPointExtension>
            <ns3:hr>96</ns3:hr>
            <ns3:cad>0</ns3:cad>
          </ns3:TrackPointExtension>
        </extensions>
      </trkpt>
      <trkpt lat="45.29304197989404201507568359375" lon="-71.104615665972232818603515625">
        <ele>877</ele>
        <time>2026-08-22T00:05:45.000Z</time>
        <extensions>
          <ns3:TrackPointExtension>
            <ns3:hr>98</ns3:hr>
            <ns3:cad>0</ns3:cad>
          </ns3:TrackPointExtension>
        </extensions>
      </trkpt>
      <trkpt lat="45.29304197989404201507568359375" lon="-71.104615665972232818603515625">
        <ele>877</ele>
        <time>2026-08-22T00:05:46.000Z</time>
        <extensions>
          <ns3:TrackPointExtension>
            <ns3:hr>99</ns3:hr>
            <ns3:cad>0</ns3:cad>
          </ns3:TrackPointExtension>
        </extensions>
      </trkpt>
      <trkpt lat="45.29304197989404201507568359375" lon="-71.104615665972232818603515625">
        <ele>877</ele>
        <time>2026-08-22T00:05:47.000Z</time>
        <extensions>
          <ns3:TrackPointExtension>
            <ns3:hr>100</ns3:hr>
            <ns3:cad>0</ns3:cad>
          </ns3:TrackPointExtension>
        </extensions>
      </trkpt>
      <trkpt lat="45.29304197989404201507568359375" lon="-71.104615665972232818603515625">
        <ele>876.79998779296875</ele>
        <time>2026-08-22T00:05:48.000Z</time>
        <extensions>
          <ns3:TrackPointExtension>
            <ns3:hr>100</ns3:hr>
            <ns3:cad>0</ns3:cad>
          </ns3:TrackPointExtension>
        </extensions>
      </trkpt>
      <trkpt lat="45.29304197989404201507568359375" lon="-71.104615665972232818603515625">
        <ele>876.79998779296875</ele>
        <time>2026-08-22T00:05:49.000Z</time>
        <extensions>
          <ns3:TrackPointExtension>
            <ns3:hr>100</ns3:hr>
            <ns3:cad>0</ns3:cad>
          </ns3:TrackPointExtension>
        </extensions>
      </trkpt>
      <trkpt lat="45.29304197989404201507568359375" lon="-71.104615665972232818603515625">
        <ele>876.79998779296875</ele>
        <time>2026-08-22T00:05:50.000Z</time>
        <extensions>
          <ns3:TrackPointExtension>
            <ns3:hr>100</ns3:hr>
            <ns3:cad>0</ns3:cad>
          </ns3:TrackPointExtension>
        </extensions>
      </trkpt>
      <trkpt lat="45.29304197989404201507568359375" lon="-71.104615665972232818603515625">
        <ele>876.79998779296875</ele>
        <time>2026-08-22T00:05:51.000Z</time>
        <extensions>
          <ns3:TrackPointExtension>
            <ns3:hr>100</ns3:hr>
            <ns3:cad>0</ns3:cad>
          </ns3:TrackPointExtension>
        </extensions>
      </trkpt>
      <trkpt lat="45.29303343035280704498291015625" lon="-71.104615665972232818603515625">
        <ele>876.79998779296875</ele>
        <time>2026-08-22T00:05:52.000Z</time>
        <extensions>
          <ns3:TrackPointExtension>
            <ns3:hr>100</ns3:hr>
            <ns3:cad>0</ns3:cad>
          </ns3:TrackPointExtension>
        </extensions>
      </trkpt>
      <trkpt lat="45.29304197989404201507568359375" lon="-71.104615665972232818603515625">
        <ele>876.79998779296875</ele>
        <time>2026-08-22T00:05:53.000Z</time>
        <extensions>
          <ns3:TrackPointExtension>
            <ns3:hr>99</ns3:hr>
            <ns3:cad>0</ns3:cad>
          </ns3:TrackPointExtension>
        </extensions>
      </trkpt>
      <trkpt lat="45.29304197989404201507568359375" lon="-71.104615665972232818603515625">
        <ele>876.79998779296875</ele>
        <time>2026-08-22T00:05:54.000Z</time>
        <extensions>
          <ns3:TrackPointExtension>
            <ns3:hr>96</ns3:hr>
            <ns3:cad>0</ns3:cad>
          </ns3:TrackPointExtension>
        </extensions>
      </trkpt>
      <trkpt lat="45.29304197989404201507568359375" lon="-71.104615665972232818603515625">
        <ele>876.79998779296875</ele>
        <time>2026-08-22T00:05:55.000Z</time>
        <extensions>
          <ns3:TrackPointExtension>
            <ns3:hr>96</ns3:hr>
            <ns3:cad>0</ns3:cad>
          </ns3:TrackPointExtension>
        </extensions>
      </trkpt>
      <trkpt lat="45.29304197989404201507568359375" lon="-71.104615665972232818603515625">
        <ele>876.79998779296875</ele>
        <time>2026-08-22T00:05:56.000Z</time>
        <extensions>
          <ns3:TrackPointExtension>
            <ns3:hr>95</ns3:hr>
            <ns3:cad>0</ns3:cad>
          </ns3:TrackPointExtension>
        </extensions>
      </trkpt>
      <trkpt lat="45.29304197989404201507568359375" lon="-71.104615665972232818603515625">
        <ele>876.79998779296875</ele>
        <time>2026-08-22T00:05:57.000Z</time>
        <extensions>
          <ns3:TrackPointExtension>
            <ns3:hr>94</ns3:hr>
            <ns3:cad>0</ns3:cad>
          </ns3:TrackPointExtension>
        </extensions>
      </trkpt>
      <trkpt lat="45.29304197989404201507568359375" lon="-71.104615665972232818603515625">
        <ele>876.79998779296875</ele>
        <time>2026-08-22T00:05:58.000Z</time>
        <extensions>
          <ns3:TrackPointExtension>
            <ns3:hr>93</ns3:hr>
            <ns3:cad>0</ns3:cad>
          </ns3:TrackPointExtension>
        </extensions>
      </trkpt>
      <trkpt lat="45.29304197989404201507568359375" lon="-71.104615665972232818603515625">
        <ele>877</ele>
        <time>2026-08-22T00:05:59.000Z</time>
        <extensions>
          <ns3:TrackPointExtension>
            <ns3:hr>93</ns3:hr>
            <ns3:cad>0</ns3:cad>
          </ns3:TrackPointExtension>
        </extensions>
      </trkpt>
      <trkpt lat="45.29304197989404201507568359375" lon="-71.104615665972232818603515625">
        <ele>877</ele>
        <time>2026-08-22T00:06:00.000Z</time>
        <extensions>
          <ns3:TrackPointExtension>
            <ns3:hr>93</ns3:hr>
            <ns3:cad>0</ns3:cad>
          </ns3:TrackPointExtension>
        </extensions>
      </trkpt>
      <trkpt lat="45.29304197989404201507568359375" lon="-71.104615665972232818603515625">
        <ele>877</ele>
        <time>2026-08-22T00:06:01.000Z</time>
        <extensions>
          <ns3:TrackPointExtension>
            <ns3:hr>93</ns3:hr>
            <ns3:cad>0</ns3:cad>
          </ns3:TrackPointExtension>
        </extensions>
      </trkpt>
      <trkpt lat="45.29304197989404201507568359375" lon="-71.104615665972232818603515625">
        <ele>877</ele>
        <time>2026-08-22T00:06:02.000Z</time>
        <extensions>
          <ns3:TrackPointExtension>
            <ns3:hr>94</ns3:hr>
            <ns3:cad>0</ns3:cad>
          </ns3:TrackPointExtension>
        </extensions>
      </trkpt>
      <trkpt lat="45.29304197989404201507568359375" lon="-71.104615665972232818603515625">
        <ele>877</ele>
        <time>2026-08-22T00:06:03.000Z</time>
        <extensions>
          <ns3:TrackPointExtension>
            <ns3:hr>94</ns3:hr>
            <ns3:cad>0</ns3:cad>
          </ns3:TrackPointExtension>
        </extensions>
      </trkpt>
      <trkpt lat="45.29304197989404201507568359375" lon="-71.104615665972232818603515625">
        <ele>876.79998779296875</ele>
        <time>2026-08-22T00:06:04.000Z</time>
        <extensions>
          <ns3:TrackPointExtension>
            <ns3:hr>94</ns3:hr>
            <ns3:cad>0</ns3:cad>
          </ns3:TrackPointExtension>
        </extensions>
      </trkpt>
      <trkpt lat="45.29304197989404201507568359375" lon="-71.104615665972232818603515625">
        <ele>876.79998779296875</ele>
        <time>2026-08-22T00:06:05.000Z</time>
        <extensions>
          <ns3:TrackPointExtension>
            <ns3:hr>95</ns3:hr>
            <ns3:cad>0</ns3:cad>
          </ns3:TrackPointExtension>
        </extensions>
      </trkpt>
      <trkpt lat="45.29304197989404201507568359375" lon="-71.104615665972232818603515625">
        <ele>876.79998779296875</ele>
        <time>2026-08-22T00:06:06.000Z</time>
        <extensions>
          <ns3:TrackPointExtension>
            <ns3:hr>96</ns3:hr>
            <ns3:cad>0</ns3:cad>
          </ns3:TrackPointExtension>
        </extensions>
      </trkpt>
      <trkpt lat="45.29304197989404201507568359375" lon="-71.104615665972232818603515625">
        <ele>876.79998779296875</ele>
        <time>2026-08-22T00:06:07.000Z</time>
        <extensions>
          <ns3:TrackPointExtension>
            <ns3:hr>97</ns3:hr>
            <ns3:cad>0</ns3:cad>
          </ns3:TrackPointExtension>
        </extensions>
      </trkpt>
      <trkpt lat="45.29304197989404201507568359375" lon="-71.104615665972232818603515625">
        <ele>876.79998779296875</ele>
        <time>2026-08-22T00:06:08.000Z</time>
        <extensions>
          <ns3:TrackPointExtension>
            <ns3:hr>97</ns3:hr>
            <ns3:cad>0</ns3:cad>
          </ns3:TrackPointExtension>
        </extensions>
      </trkpt>
      <trkpt lat="45.29304197989404201507568359375" lon="-71.104615665972232818603515625">
        <ele>876.79998779296875</ele>
        <time>2026-08-22T00:06:09.000Z</time>
        <extensions>
          <ns3:TrackPointExtension>
            <ns3:hr>97</ns3:hr>
            <ns3:cad>0</ns3:cad>
          </ns3:TrackPointExtension>
        </extensions>
      </trkpt>
      <trkpt lat="45.29304197989404201507568359375" lon="-71.104615665972232818603515625">
        <ele>876.79998779296875</ele>
        <time>2026-08-22T00:06:10.000Z</time>
        <extensions>
          <ns3:TrackPointExtension>
            <ns3:hr>97</ns3:hr>
            <ns3:cad>0</ns3:cad>
          </ns3:TrackPointExtension>
        </extensions>
      </trkpt>
      <trkpt lat="45.29304197989404201507568359375" lon="-71.104615665972232818603515625">
        <ele>876.79998779296875</ele>
        <time>2026-08-22T00:06:11.000Z</time>
        <extensions>
          <ns3:TrackPointExtension>
            <ns3:hr>96</ns3:hr>
            <ns3:cad>0</ns3:cad>
          </ns3:TrackPointExtension>
        </extensions>
      </trkpt>
      <trkpt lat="45.29304197989404201507568359375" lon="-71.104615665972232818603515625">
        <ele>876.79998779296875</ele>
        <time>2026-08-22T00:06:12.000Z</time>
        <extensions>
          <ns3:TrackPointExtension>
            <ns3:hr>96</ns3:hr>
            <ns3:cad>0</ns3:cad>
          </ns3:TrackPointExtension>
        </extensions>
      </trkpt>
      <trkpt lat="45.29304197989404201507568359375" lon="-71.104615665972232818603515625">
        <ele>877</ele>
        <time>2026-08-22T00:06:13.000Z</time>
        <extensions>
          <ns3:TrackPointExtension>
            <ns3:hr>96</ns3:hr>
            <ns3:cad>0</ns3:cad>
          </ns3:TrackPointExtension>
        </extensions>
      </trkpt>
      <trkpt lat="45.29304197989404201507568359375" lon="-71.104615665972232818603515625">
        <ele>877</ele>
        <time>2026-08-22T00:06:14.000Z</time>
        <extensions>
          <ns3:TrackPointExtension>
            <ns3:hr>97</ns3:hr>
            <ns3:cad>0</ns3:cad>
          </ns3:TrackPointExtension>
        </extensions>
      </trkpt>
      <trkpt lat="45.29304197989404201507568359375" lon="-71.104615665972232818603515625">
        <ele>877</ele>
        <time>2026-08-22T00:06:15.000Z</time>
        <extensions>
          <ns3:TrackPointExtension>
            <ns3:hr>97</ns3:hr>
            <ns3:cad>0</ns3:cad>
          </ns3:TrackPointExtension>
        </extensions>
      </trkpt>
      <trkpt lat="45.29304197989404201507568359375" lon="-71.104615665972232818603515625">
        <ele>877</ele>
        <time>2026-08-22T00:06:16.000Z</time>
        <extensions>
          <ns3:TrackPointExtension>
            <ns3:hr>98</ns3:hr>
            <ns3:cad>0</ns3:cad>
          </ns3:TrackPointExtension>
        </extensions>
      </trkpt>
      <trkpt lat="45.29304197989404201507568359375" lon="-71.104615665972232818603515625">
        <ele>877</ele>
        <time>2026-08-22T00:06:17.000Z</time>
        <extensions>
          <ns3:TrackPointExtension>
            <ns3:hr>98</ns3:hr>
            <ns3:cad>0</ns3:cad>
          </ns3:TrackPointExtension>
        </extensions>
      </trkpt>
      <trkpt lat="45.29304197989404201507568359375" lon="-71.104615665972232818603515625">
        <ele>877</ele>
        <time>2026-08-22T00:06:18.000Z</time>
        <extensions>
          <ns3:TrackPointExtension>
            <ns3:hr>98</ns3:hr>
            <ns3:cad>0</ns3:cad>
          </ns3:TrackPointExtension>
        </extensions>
      </trkpt>
      <trkpt lat="45.29304197989404201507568359375" lon="-71.104615665972232818603515625">
        <ele>877</ele>
        <time>2026-08-22T00:06:19.000Z</time>
        <extensions>
          <ns3:TrackPointExtension>
            <ns3:hr>97</ns3:hr>
            <ns3:cad>0</ns3:cad>
          </ns3:TrackPointExtension>
        </extensions>
      </trkpt>
      <trkpt lat="45.29304197989404201507568359375" lon="-71.104615665972232818603515625">
        <ele>876.79998779296875</ele>
        <time>2026-08-22T00:06:20.000Z</time>
        <extensions>
          <ns3:TrackPointExtension>
            <ns3:hr>97</ns3:hr>
            <ns3:cad>0</ns3:cad>
          </ns3:TrackPointExtension>
        </extensions>
      </trkpt>
      <trkpt lat="45.29304197989404201507568359375" lon="-71.104615665972232818603515625">
        <ele>876.79998779296875</ele>
        <time>2026-08-22T00:06:21.000Z</time>
        <extensions>
          <ns3:TrackPointExtension>
            <ns3:hr>96</ns3:hr>
            <ns3:cad>0</ns3:cad>
          </ns3:TrackPointExtension>
        </extensions>
      </trkpt>
      <trkpt lat="45.29304197989404201507568359375" lon="-71.104615665972232818603515625">
        <ele>876.79998779296875</ele>
        <time>2026-08-22T00:06:22.000Z</time>
        <extensions>
          <ns3:TrackPointExtension>
            <ns3:hr>96</ns3:hr>
            <ns3:cad>0</ns3:cad>
          </ns3:TrackPointExtension>
        </extensions>
      </trkpt>
      <trkpt lat="45.29304197989404201507568359375" lon="-71.104615665972232818603515625">
        <ele>876.79998779296875</ele>
        <time>2026-08-22T00:06:23.000Z</time>
        <extensions>
          <ns3:TrackPointExtension>
            <ns3:hr>96</ns3:hr>
            <ns3:cad>0</ns3:cad>
          </ns3:TrackPointExtension>
        </extensions>
      </trkpt>
      <trkpt lat="45.29304197989404201507568359375" lon="-71.104615665972232818603515625">
        <ele>876.79998779296875</ele>
        <time>2026-08-22T00:06:24.000Z</time>
        <extensions>
          <ns3:TrackPointExtension>
            <ns3:hr>96</ns3:hr>
            <ns3:cad>0</ns3:cad>
          </ns3:TrackPointExtension>
        </extensions>
      </trkpt>
      <trkpt lat="45.29304197989404201507568359375" lon="-71.104615665972232818603515625">
        <ele>876.79998779296875</ele>
        <time>2026-08-22T00:06:25.000Z</time>
        <extensions>
          <ns3:TrackPointExtension>
            <ns3:hr>96</ns3:hr>
            <ns3:cad>0</ns3:cad>
          </ns3:TrackPointExtension>
        </extensions>
      </trkpt>
      <trkpt lat="45.29304197989404201507568359375" lon="-71.104615665972232818603515625">
        <ele>876.79998779296875</ele>
        <time>2026-08-22T00:06:26.000Z</time>
        <extensions>
          <ns3:TrackPointExtension>
            <ns3:hr>96</ns3:hr>
            <ns3:cad>0</ns3:cad>
          </ns3:TrackPointExtension>
        </extensions>
      </trkpt>
      <trkpt lat="45.29304197989404201507568359375" lon="-71.104615665972232818603515625">
        <ele>876.79998779296875</ele>
        <time>2026-08-22T00:06:27.000Z</time>
        <extensions>
          <ns3:TrackPointExtension>
            <ns3:hr>97</ns3:hr>
            <ns3:cad>0</ns3:cad>
          </ns3:TrackPointExtension>
        </extensions>
      </trkpt>
      <trkpt lat="45.29304197989404201507568359375" lon="-71.104615665972232818603515625">
        <ele>876.79998779296875</ele>
        <time>2026-08-22T00:06:28.000Z</time>
        <extensions>
          <ns3:TrackPointExtension>
            <ns3:hr>97</ns3:hr>
            <ns3:cad>0</ns3:cad>
          </ns3:TrackPointExtension>
        </extensions>
      </trkpt>
      <trkpt lat="45.29304197989404201507568359375" lon="-71.104615665972232818603515625">
        <ele>876.79998779296875</ele>
        <time>2026-08-22T00:06:29.000Z</time>
        <extensions>
          <ns3:TrackPointExtension>
            <ns3:hr>97</ns3:hr>
            <ns3:cad>0</ns3:cad>
          </ns3:TrackPointExtension>
        </extensions>
      </trkpt>
      <trkpt lat="45.29304197989404201507568359375" lon="-71.104615665972232818603515625">
        <ele>876.79998779296875</ele>
        <time>2026-08-22T00:06:30.000Z</time>
        <extensions>
          <ns3:TrackPointExtension>
            <ns3:hr>97</ns3:hr>
            <ns3:cad>0</ns3:cad>
          </ns3:TrackPointExtension>
        </extensions>
      </trkpt>
      <trkpt lat="45.29304197989404201507568359375" lon="-71.104615665972232818603515625">
        <ele>876.79998779296875</ele>
        <time>2026-08-22T00:06:31.000Z</time>
        <extensions>
          <ns3:TrackPointExtension>
            <ns3:hr>97</ns3:hr>
            <ns3:cad>0</ns3:cad>
          </ns3:TrackPointExtension>
        </extensions>
      </trkpt>
      <trkpt lat="45.29304197989404201507568359375" lon="-71.104615665972232818603515625">
        <ele>876.79998779296875</ele>
        <time>2026-08-22T00:06:32.000Z</time>
        <extensions>
          <ns3:TrackPointExtension>
            <ns3:hr>96</ns3:hr>
            <ns3:cad>0</ns3:cad>
          </ns3:TrackPointExtension>
        </extensions>
      </trkpt>
      <trkpt lat="45.29304197989404201507568359375" lon="-71.104615665972232818603515625">
        <ele>876.79998779296875</ele>
        <time>2026-08-22T00:06:33.000Z</time>
        <extensions>
          <ns3:TrackPointExtension>
            <ns3:hr>96</ns3:hr>
            <ns3:cad>0</ns3:cad>
          </ns3:TrackPointExtension>
        </extensions>
      </trkpt>
      <trkpt lat="45.29304197989404201507568359375" lon="-71.104615665972232818603515625">
        <ele>876.79998779296875</ele>
        <time>2026-08-22T00:06:34.000Z</time>
        <extensions>
          <ns3:TrackPointExtension>
            <ns3:hr>96</ns3:hr>
            <ns3:cad>0</ns3:cad>
          </ns3:TrackPointExtension>
        </extensions>
      </trkpt>
      <trkpt lat="45.29304197989404201507568359375" lon="-71.104615665972232818603515625">
        <ele>876.79998779296875</ele>
        <time>2026-08-22T00:06:35.000Z</time>
        <extensions>
          <ns3:TrackPointExtension>
            <ns3:hr>96</ns3:hr>
            <ns3:cad>0</ns3:cad>
          </ns3:TrackPointExtension>
        </extensions>
      </trkpt>
      <trkpt lat="45.29303695075213909149169921875" lon="-71.1046195216476917266845703125">
        <ele>876.79998779296875</ele>
        <time>2026-08-22T00:06:36.000Z</time>
        <extensions>
          <ns3:TrackPointExtension>
            <ns3:hr>96</ns3:hr>
            <ns3:cad>0</ns3:cad>
          </ns3:TrackPointExtension>
        </extensions>
      </trkpt>
      <trkpt lat="45.2930422313511371612548828125" lon="-71.10461524687707424163818359375">
        <ele>876.79998779296875</ele>
        <time>2026-08-22T00:06:37.000Z</time>
        <extensions>
          <ns3:TrackPointExtension>
            <ns3:hr>96</ns3:hr>
            <ns3:cad>0</ns3:cad>
          </ns3:TrackPointExtension>
        </extensions>
      </trkpt>
      <trkpt lat="45.29304197989404201507568359375" lon="-71.104615665972232818603515625">
        <ele>876.79998779296875</ele>
        <time>2026-08-22T00:06:38.000Z</time>
        <extensions>
          <ns3:TrackPointExtension>
            <ns3:hr>96</ns3:hr>
            <ns3:cad>0</ns3:cad>
          </ns3:TrackPointExtension>
        </extensions>
      </trkpt>
      <trkpt lat="45.29304197989404201507568359375" lon="-71.104615665972232818603515625">
        <ele>876.79998779296875</ele>
        <time>2026-08-22T00:06:39.000Z</time>
        <extensions>
          <ns3:TrackPointExtension>
            <ns3:hr>96</ns3:hr>
            <ns3:cad>0</ns3:cad>
          </ns3:TrackPointExtension>
        </extensions>
      </trkpt>
      <trkpt lat="45.29304197989404201507568359375" lon="-71.104615665972232818603515625">
        <ele>876.79998779296875</ele>
        <time>2026-08-22T00:06:40.000Z</time>
        <extensions>
          <ns3:TrackPointExtension>
            <ns3:hr>96</ns3:hr>
            <ns3:cad>0</ns3:cad>
          </ns3:TrackPointExtension>
        </extensions>
      </trkpt>
      <trkpt lat="45.29304197989404201507568359375" lon="-71.104615665972232818603515625">
        <ele>876.79998779296875</ele>
        <time>2026-08-22T00:06:41.000Z</time>
        <extensions>
          <ns3:TrackPointExtension>
            <ns3:hr>96</ns3:hr>
            <ns3:cad>0</ns3:cad>
          </ns3:TrackPointExtension>
        </extensions>
      </trkpt>
      <trkpt lat="45.29304197989404201507568359375" lon="-71.104615665972232818603515625">
        <ele>876.79998779296875</ele>
        <time>2026-08-22T00:06:42.000Z</time>
        <extensions>
          <ns3:TrackPointExtension>
            <ns3:hr>97</ns3:hr>
            <ns3:cad>0</ns3:cad>
          </ns3:TrackPointExtension>
        </extensions>
      </trkpt>
      <trkpt lat="45.29304197989404201507568359375" lon="-71.104615665972232818603515625">
        <ele>876.79998779296875</ele>
        <time>2026-08-22T00:06:43.000Z</time>
        <extensions>
          <ns3:TrackPointExtension>
            <ns3:hr>97</ns3:hr>
            <ns3:cad>0</ns3:cad>
          </ns3:TrackPointExtension>
        </extensions>
      </trkpt>
      <trkpt lat="45.29304197989404201507568359375" lon="-71.104615665972232818603515625">
        <ele>876.79998779296875</ele>
        <time>2026-08-22T00:06:44.000Z</time>
        <extensions>
          <ns3:TrackPointExtension>
            <ns3:hr>98</ns3:hr>
            <ns3:cad>0</ns3:cad>
          </ns3:TrackPointExtension>
        </extensions>
      </trkpt>
      <trkpt lat="45.29304197989404201507568359375" lon="-71.104615665972232818603515625">
        <ele>876.79998779296875</ele>
        <time>2026-08-22T00:06:45.000Z</time>
        <extensions>
          <ns3:TrackPointExtension>
            <ns3:hr>98</ns3:hr>
            <ns3:cad>0</ns3:cad>
          </ns3:TrackPointExtension>
        </extensions>
      </trkpt>
      <trkpt lat="45.29304197989404201507568359375" lon="-71.104615665972232818603515625">
        <ele>876.79998779296875</ele>
        <time>2026-08-22T00:06:46.000Z</time>
        <extensions>
          <ns3:TrackPointExtension>
            <ns3:hr>99</ns3:hr>
            <ns3:cad>0</ns3:cad>
          </ns3:TrackPointExtension>
        </extensions>
      </trkpt>
      <trkpt lat="45.29304197989404201507568359375" lon="-71.104615665972232818603515625">
        <ele>876.79998779296875</ele>
        <time>2026-08-22T00:06:47.000Z</time>
        <extensions>
          <ns3:TrackPointExtension>
            <ns3:hr>100</ns3:hr>
            <ns3:cad>0</ns3:cad>
          </ns3:TrackPointExtension>
        </extensions>
      </trkpt>
      <trkpt lat="45.29304197989404201507568359375" lon="-71.104615665972232818603515625">
        <ele>876.79998779296875</ele>
        <time>2026-08-22T00:06:48.000Z</time>
        <extensions>
          <ns3:TrackPointExtension>
            <ns3:hr>100</ns3:hr>
            <ns3:cad>0</ns3:cad>
          </ns3:TrackPointExtension>
        </extensions>
      </trkpt>
      <trkpt lat="45.29304197989404201507568359375" lon="-71.104615665972232818603515625">
        <ele>876.79998779296875</ele>
        <time>2026-08-22T00:06:49.000Z</time>
        <extensions>
          <ns3:TrackPointExtension>
            <ns3:hr>100</ns3:hr>
            <ns3:cad>0</ns3:cad>
          </ns3:TrackPointExtension>
        </extensions>
      </trkpt>
      <trkpt lat="45.29304197989404201507568359375" lon="-71.104615665972232818603515625">
        <ele>876.79998779296875</ele>
        <time>2026-08-22T00:06:50.000Z</time>
        <extensions>
          <ns3:TrackPointExtension>
            <ns3:hr>100</ns3:hr>
            <ns3:cad>0</ns3:cad>
          </ns3:TrackPointExtension>
        </extensions>
      </trkpt>
      <trkpt lat="45.29304197989404201507568359375" lon="-71.104615665972232818603515625">
        <ele>876.79998779296875</ele>
        <time>2026-08-22T00:06:51.000Z</time>
        <extensions>
          <ns3:TrackPointExtension>
            <ns3:hr>100</ns3:hr>
            <ns3:cad>0</ns3:cad>
          </ns3:TrackPointExtension>
        </extensions>
      </trkpt>
      <trkpt lat="45.29304197989404201507568359375" lon="-71.104615665972232818603515625">
        <ele>876.79998779296875</ele>
        <time>2026-08-22T00:06:52.000Z</time>
        <extensions>
          <ns3:TrackPointExtension>
            <ns3:hr>98</ns3:hr>
            <ns3:cad>0</ns3:cad>
          </ns3:TrackPointExtension>
        </extensions>
      </trkpt>
      <trkpt lat="45.29304197989404201507568359375" lon="-71.104615665972232818603515625">
        <ele>877</ele>
        <time>2026-08-22T00:06:53.000Z</time>
        <extensions>
          <ns3:TrackPointExtension>
            <ns3:hr>97</ns3:hr>
            <ns3:cad>0</ns3:cad>
          </ns3:TrackPointExtension>
        </extensions>
      </trkpt>
      <trkpt lat="45.29304197989404201507568359375" lon="-71.104615665972232818603515625">
        <ele>877</ele>
        <time>2026-08-22T00:06:54.000Z</time>
        <extensions>
          <ns3:TrackPointExtension>
            <ns3:hr>97</ns3:hr>
            <ns3:cad>0</ns3:cad>
          </ns3:TrackPointExtension>
        </extensions>
      </trkpt>
      <trkpt lat="45.29304047115147113800048828125" lon="-71.10462094657123088836669921875">
        <ele>877</ele>
        <time>2026-08-22T00:06:55.000Z</time>
        <extensions>
          <ns3:TrackPointExtension>
            <ns3:hr>97</ns3:hr>
            <ns3:cad>0</ns3:cad>
          </ns3:TrackPointExtension>
        </extensions>
      </trkpt>
      <trkpt lat="45.29303896240890026092529296875" lon="-71.10462698154151439666748046875">
        <ele>877</ele>
        <time>2026-08-22T00:06:56.000Z</time>
        <extensions>
          <ns3:TrackPointExtension>
            <ns3:hr>97</ns3:hr>
            <ns3:cad>0</ns3:cad>
          </ns3:TrackPointExtension>
        </extensions>
      </trkpt>
      <trkpt lat="45.29304432682693004608154296875" lon="-71.10462547279894351959228515625">
        <ele>877</ele>
        <time>2026-08-22T00:06:57.000Z</time>
        <extensions>
          <ns3:TrackPointExtension>
            <ns3:hr>97</ns3:hr>
            <ns3:cad>0</ns3:cad>
          </ns3:TrackPointExtension>
        </extensions>
      </trkpt>
      <trkpt lat="45.29304114170372486114501953125" lon="-71.10462631098926067352294921875">
        <ele>877</ele>
        <time>2026-08-22T00:06:58.000Z</time>
        <extensions>
          <ns3:TrackPointExtension>
            <ns3:hr>97</ns3:hr>
            <ns3:cad>0</ns3:cad>
          </ns3:TrackPointExtension>
        </extensions>
      </trkpt>
      <trkpt lat="45.29304449446499347686767578125" lon="-71.1046235449612140655517578125">
        <ele>877</ele>
        <time>2026-08-22T00:06:59.000Z</time>
        <extensions>
          <ns3:TrackPointExtension>
            <ns3:hr>96</ns3:hr>
            <ns3:cad>0</ns3:cad>
          </ns3:TrackPointExtension>
        </extensions>
      </trkpt>
      <trkpt lat="45.293043740093708038330078125" lon="-71.10462010838091373443603515625">
        <ele>877.20001220703125</ele>
        <time>2026-08-22T00:07:00.000Z</time>
        <extensions>
          <ns3:TrackPointExtension>
            <ns3:hr>96</ns3:hr>
            <ns3:cad>0</ns3:cad>
          </ns3:TrackPointExtension>
        </extensions>
      </trkpt>
      <trkpt lat="45.2930434048175811767578125" lon="-71.1046134866774082183837890625">
        <ele>877.20001220703125</ele>
        <time>2026-08-22T00:07:01.000Z</time>
        <extensions>
          <ns3:TrackPointExtension>
            <ns3:hr>96</ns3:hr>
            <ns3:cad>0</ns3:cad>
          </ns3:TrackPointExtension>
        </extensions>
      </trkpt>
      <trkpt lat="45.2930380403995513916015625" lon="-71.10461625270545482635498046875">
        <ele>877.20001220703125</ele>
        <time>2026-08-22T00:07:02.000Z</time>
        <extensions>
          <ns3:TrackPointExtension>
            <ns3:hr>95</ns3:hr>
            <ns3:cad>0</ns3:cad>
          </ns3:TrackPointExtension>
        </extensions>
      </trkpt>
      <trkpt lat="45.29303678311407566070556640625" lon="-71.10462413169443607330322265625">
        <ele>877</ele>
        <time>2026-08-22T00:07:03.000Z</time>
        <extensions>
          <ns3:TrackPointExtension>
            <ns3:hr>95</ns3:hr>
            <ns3:cad>0</ns3:cad>
          </ns3:TrackPointExtension>
        </extensions>
      </trkpt>
      <trkpt lat="45.2930378727614879608154296875" lon="-71.1046205274760723114013671875">
        <ele>877</ele>
        <time>2026-08-22T00:07:04.000Z</time>
        <extensions>
          <ns3:TrackPointExtension>
            <ns3:hr>95</ns3:hr>
            <ns3:cad>0</ns3:cad>
          </ns3:TrackPointExtension>
        </extensions>
      </trkpt>
      <trkpt lat="45.29303594492375850677490234375" lon="-71.10462027601897716522216796875">
        <ele>876.79998779296875</ele>
        <time>2026-08-22T00:07:05.000Z</time>
        <extensions>
          <ns3:TrackPointExtension>
            <ns3:hr>96</ns3:hr>
            <ns3:cad>0</ns3:cad>
          </ns3:TrackPointExtension>
        </extensions>
      </trkpt>
      <trkpt lat="45.2930351905524730682373046875" lon="-71.1046193540096282958984375">
        <ele>876.79998779296875</ele>
        <time>2026-08-22T00:07:06.000Z</time>
        <extensions>
          <ns3:TrackPointExtension>
            <ns3:hr>96</ns3:hr>
            <ns3:cad>0</ns3:cad>
          </ns3:TrackPointExtension>
        </extensions>
      </trkpt>
      <trkpt lat="45.29303736984729766845703125" lon="-71.10461776144802570343017578125">
        <ele>876.79998779296875</ele>
        <time>2026-08-22T00:07:07.000Z</time>
        <extensions>
          <ns3:TrackPointExtension>
            <ns3:hr>96</ns3:hr>
            <ns3:cad>0</ns3:cad>
          </ns3:TrackPointExtension>
        </extensions>
      </trkpt>
      <trkpt lat="45.29304197989404201507568359375" lon="-71.104615665972232818603515625">
        <ele>876.79998779296875</ele>
        <time>2026-08-22T00:07:08.000Z</time>
        <extensions>
          <ns3:TrackPointExtension>
            <ns3:hr>96</ns3:hr>
            <ns3:cad>0</ns3:cad>
          </ns3:TrackPointExtension>
        </extensions>
      </trkpt>
      <trkpt lat="45.29304197989404201507568359375" lon="-71.104615665972232818603515625">
        <ele>876.79998779296875</ele>
        <time>2026-08-22T00:07:09.000Z</time>
        <extensions>
          <ns3:TrackPointExtension>
            <ns3:hr>97</ns3:hr>
            <ns3:cad>0</ns3:cad>
          </ns3:TrackPointExtension>
        </extensions>
      </trkpt>
      <trkpt lat="45.29304197989404201507568359375" lon="-71.104615665972232818603515625">
        <ele>876.79998779296875</ele>
        <time>2026-08-22T00:07:10.000Z</time>
        <extensions>
          <ns3:TrackPointExtension>
            <ns3:hr>97</ns3:hr>
            <ns3:cad>0</ns3:cad>
          </ns3:TrackPointExtension>
        </extensions>
      </trkpt>
      <trkpt lat="45.29304197989404201507568359375" lon="-71.104615665972232818603515625">
        <ele>876.79998779296875</ele>
        <time>2026-08-22T00:07:11.000Z</time>
        <extensions>
          <ns3:TrackPointExtension>
            <ns3:hr>97</ns3:hr>
            <ns3:cad>0</ns3:cad>
          </ns3:TrackPointExtension>
        </extensions>
      </trkpt>
      <trkpt lat="45.29304197989404201507568359375" lon="-71.104615665972232818603515625">
        <ele>876.79998779296875</ele>
        <time>2026-08-22T00:07:12.000Z</time>
        <extensions>
          <ns3:TrackPointExtension>
            <ns3:hr>96</ns3:hr>
            <ns3:cad>0</ns3:cad>
          </ns3:TrackPointExtension>
        </extensions>
      </trkpt>
      <trkpt lat="45.29304197989404201507568359375" lon="-71.104615665972232818603515625">
        <ele>876.79998779296875</ele>
        <time>2026-08-22T00:07:13.000Z</time>
        <extensions>
          <ns3:TrackPointExtension>
            <ns3:hr>96</ns3:hr>
            <ns3:cad>0</ns3:cad>
          </ns3:TrackPointExtension>
        </extensions>
      </trkpt>
      <trkpt lat="45.29304197989404201507568359375" lon="-71.104615665972232818603515625">
        <ele>876.79998779296875</ele>
        <time>2026-08-22T00:07:14.000Z</time>
        <extensions>
          <ns3:TrackPointExtension>
            <ns3:hr>95</ns3:hr>
            <ns3:cad>0</ns3:cad>
          </ns3:TrackPointExtension>
        </extensions>
      </trkpt>
      <trkpt lat="45.29303544200956821441650390625" lon="-71.10461440868675708770751953125">
        <ele>876.79998779296875</ele>
        <time>2026-08-22T00:07:15.000Z</time>
        <extensions>
          <ns3:TrackPointExtension>
            <ns3:hr>94</ns3:hr>
            <ns3:cad>0</ns3:cad>
          </ns3:TrackPointExtension>
        </extensions>
      </trkpt>
      <trkpt lat="45.2930355258285999298095703125" lon="-71.10461600124835968017578125">
        <ele>876.5999755859375</ele>
        <time>2026-08-22T00:07:16.000Z</time>
        <extensions>
          <ns3:TrackPointExtension>
            <ns3:hr>94</ns3:hr>
            <ns3:cad>0</ns3:cad>
          </ns3:TrackPointExtension>
        </extensions>
      </trkpt>
      <trkpt lat="45.29303577728569507598876953125" lon="-71.10461759380996227264404296875">
        <ele>876.5999755859375</ele>
        <time>2026-08-22T00:07:17.000Z</time>
        <extensions>
          <ns3:TrackPointExtension>
            <ns3:hr>94</ns3:hr>
            <ns3:cad>0</ns3:cad>
          </ns3:TrackPointExtension>
        </extensions>
      </trkpt>
      <trkpt lat="45.2930366992950439453125" lon="-71.104619018733501434326171875">
        <ele>876.5999755859375</ele>
        <time>2026-08-22T00:07:18.000Z</time>
        <extensions>
          <ns3:TrackPointExtension>
            <ns3:hr>93</ns3:hr>
            <ns3:cad>0</ns3:cad>
          </ns3:TrackPointExtension>
        </extensions>
      </trkpt>
      <trkpt lat="45.2930328436195850372314453125" lon="-71.1046195216476917266845703125">
        <ele>876.5999755859375</ele>
        <time>2026-08-22T00:07:19.000Z</time>
        <extensions>
          <ns3:TrackPointExtension>
            <ns3:hr>94</ns3:hr>
            <ns3:cad>0</ns3:cad>
          </ns3:TrackPointExtension>
        </extensions>
      </trkpt>
      <trkpt lat="45.293031670153141021728515625" lon="-71.10462027601897716522216796875">
        <ele>876.5999755859375</ele>
        <time>2026-08-22T00:07:20.000Z</time>
        <extensions>
          <ns3:TrackPointExtension>
            <ns3:hr>94</ns3:hr>
            <ns3:cad>0</ns3:cad>
          </ns3:TrackPointExtension>
        </extensions>
      </trkpt>
      <trkpt lat="45.29302588663995265960693359375" lon="-71.1046131514012813568115234375">
        <ele>876.79998779296875</ele>
        <time>2026-08-22T00:07:21.000Z</time>
        <extensions>
          <ns3:TrackPointExtension>
            <ns3:hr>94</ns3:hr>
            <ns3:cad>0</ns3:cad>
          </ns3:TrackPointExtension>
        </extensions>
      </trkpt>
      <trkpt lat="45.2930268086493015289306640625" lon="-71.10460937954485416412353515625">
        <ele>876.79998779296875</ele>
        <time>2026-08-22T00:07:22.000Z</time>
        <extensions>
          <ns3:TrackPointExtension>
            <ns3:hr>94</ns3:hr>
            <ns3:cad>0</ns3:cad>
          </ns3:TrackPointExtension>
        </extensions>
      </trkpt>
      <trkpt lat="45.29302488081157207489013671875" lon="-71.10460317693650722503662109375">
        <ele>876.79998779296875</ele>
        <time>2026-08-22T00:07:23.000Z</time>
        <extensions>
          <ns3:TrackPointExtension>
            <ns3:hr>94</ns3:hr>
            <ns3:cad>0</ns3:cad>
          </ns3:TrackPointExtension>
        </extensions>
      </trkpt>
      <trkpt lat="45.2930254675447940826416015625" lon="-71.1046032607555389404296875">
        <ele>876.79998779296875</ele>
        <time>2026-08-22T00:07:24.000Z</time>
        <extensions>
          <ns3:TrackPointExtension>
            <ns3:hr>94</ns3:hr>
            <ns3:cad>0</ns3:cad>
          </ns3:TrackPointExtension>
        </extensions>
      </trkpt>
      <trkpt lat="45.2930268086493015289306640625" lon="-71.10460921190679073333740234375">
        <ele>876.79998779296875</ele>
        <time>2026-08-22T00:07:25.000Z</time>
        <extensions>
          <ns3:TrackPointExtension>
            <ns3:hr>94</ns3:hr>
            <ns3:cad>0</ns3:cad>
          </ns3:TrackPointExtension>
        </extensions>
      </trkpt>
      <trkpt lat="45.29302538372576236724853515625" lon="-71.10461021773517131805419921875">
        <ele>876.79998779296875</ele>
        <time>2026-08-22T00:07:26.000Z</time>
        <extensions>
          <ns3:TrackPointExtension>
            <ns3:hr>94</ns3:hr>
            <ns3:cad>0</ns3:cad>
          </ns3:TrackPointExtension>
        </extensions>
      </trkpt>
      <trkpt lat="45.29302957467734813690185546875" lon="-71.10460870899260044097900390625">
        <ele>876.79998779296875</ele>
        <time>2026-08-22T00:07:27.000Z</time>
        <extensions>
          <ns3:TrackPointExtension>
            <ns3:hr>93</ns3:hr>
            <ns3:cad>0</ns3:cad>
          </ns3:TrackPointExtension>
        </extensions>
      </trkpt>
      <trkpt lat="45.293027646839618682861328125" lon="-71.10460820607841014862060546875">
        <ele>876.79998779296875</ele>
        <time>2026-08-22T00:07:28.000Z</time>
        <extensions>
          <ns3:TrackPointExtension>
            <ns3:hr>93</ns3:hr>
            <ns3:cad>0</ns3:cad>
          </ns3:TrackPointExtension>
        </extensions>
      </trkpt>
      <trkpt lat="45.29302907176315784454345703125" lon="-71.10461197793483734130859375">
        <ele>876.79998779296875</ele>
        <time>2026-08-22T00:07:29.000Z</time>
        <extensions>
          <ns3:TrackPointExtension>
            <ns3:hr>93</ns3:hr>
            <ns3:cad>0</ns3:cad>
          </ns3:TrackPointExtension>
        </extensions>
      </trkpt>
      <trkpt lat="45.29303074814379215240478515625" lon="-71.1046188510954380035400390625">
        <ele>876.79998779296875</ele>
        <time>2026-08-22T00:07:30.000Z</time>
        <extensions>
          <ns3:TrackPointExtension>
            <ns3:hr>93</ns3:hr>
            <ns3:cad>0</ns3:cad>
          </ns3:TrackPointExtension>
        </extensions>
      </trkpt>
      <trkpt lat="45.2930298261344432830810546875" lon="-71.10461507923901081085205078125">
        <ele>876.79998779296875</ele>
        <time>2026-08-22T00:07:31.000Z</time>
        <extensions>
          <ns3:TrackPointExtension>
            <ns3:hr>94</ns3:hr>
            <ns3:cad>0</ns3:cad>
          </ns3:TrackPointExtension>
        </extensions>
      </trkpt>
      <trkpt lat="45.2930311672389507293701171875" lon="-71.104612983763217926025390625">
        <ele>876.79998779296875</ele>
        <time>2026-08-22T00:07:32.000Z</time>
        <extensions>
          <ns3:TrackPointExtension>
            <ns3:hr>94</ns3:hr>
            <ns3:cad>0</ns3:cad>
          </ns3:TrackPointExtension>
        </extensions>
      </trkpt>
      <trkpt lat="45.29303108341991901397705078125" lon="-71.1046131514012813568115234375">
        <ele>876.79998779296875</ele>
        <time>2026-08-22T00:07:33.000Z</time>
        <extensions>
          <ns3:TrackPointExtension>
            <ns3:hr>94</ns3:hr>
            <ns3:cad>0</ns3:cad>
          </ns3:TrackPointExtension>
        </extensions>
      </trkpt>
      <trkpt lat="45.2930294908583164215087890625" lon="-71.10461139120161533355712890625">
        <ele>876.79998779296875</ele>
        <time>2026-08-22T00:07:34.000Z</time>
        <extensions>
          <ns3:TrackPointExtension>
            <ns3:hr>95</ns3:hr>
            <ns3:cad>0</ns3:cad>
          </ns3:TrackPointExtension>
        </extensions>
      </trkpt>
      <trkpt lat="45.293030999600887298583984375" lon="-71.10460652969777584075927734375">
        <ele>876.79998779296875</ele>
        <time>2026-08-22T00:07:35.000Z</time>
        <extensions>
          <ns3:TrackPointExtension>
            <ns3:hr>95</ns3:hr>
            <ns3:cad>0</ns3:cad>
          </ns3:TrackPointExtension>
        </extensions>
      </trkpt>
      <trkpt lat="45.29303192161023616790771484375" lon="-71.10460787080228328704833984375">
        <ele>876.79998779296875</ele>
        <time>2026-08-22T00:07:36.000Z</time>
        <extensions>
          <ns3:TrackPointExtension>
            <ns3:hr>96</ns3:hr>
            <ns3:cad>0</ns3:cad>
          </ns3:TrackPointExtension>
        </extensions>
      </trkpt>
      <trkpt lat="45.293030999600887298583984375" lon="-71.10460661351680755615234375">
        <ele>876.79998779296875</ele>
        <time>2026-08-22T00:07:37.000Z</time>
        <extensions>
          <ns3:TrackPointExtension>
            <ns3:hr>97</ns3:hr>
            <ns3:cad>0</ns3:cad>
          </ns3:TrackPointExtension>
        </extensions>
      </trkpt>
      <trkpt lat="45.29303141869604587554931640625" lon="-71.1046067811548709869384765625">
        <ele>876.79998779296875</ele>
        <time>2026-08-22T00:07:38.000Z</time>
        <extensions>
          <ns3:TrackPointExtension>
            <ns3:hr>97</ns3:hr>
            <ns3:cad>0</ns3:cad>
          </ns3:TrackPointExtension>
        </extensions>
      </trkpt>
      <trkpt lat="45.29304197989404201507568359375" lon="-71.104615665972232818603515625">
        <ele>876.79998779296875</ele>
        <time>2026-08-22T00:07:39.000Z</time>
        <extensions>
          <ns3:TrackPointExtension>
            <ns3:hr>97</ns3:hr>
            <ns3:cad>0</ns3:cad>
          </ns3:TrackPointExtension>
        </extensions>
      </trkpt>
      <trkpt lat="45.29304197989404201507568359375" lon="-71.104615665972232818603515625">
        <ele>876.5999755859375</ele>
        <time>2026-08-22T00:07:40.000Z</time>
        <extensions>
          <ns3:TrackPointExtension>
            <ns3:hr>98</ns3:hr>
            <ns3:cad>0</ns3:cad>
          </ns3:TrackPointExtension>
        </extensions>
      </trkpt>
      <trkpt lat="45.29304197989404201507568359375" lon="-71.104615665972232818603515625">
        <ele>876.5999755859375</ele>
        <time>2026-08-22T00:07:41.000Z</time>
        <extensions>
          <ns3:TrackPointExtension>
            <ns3:hr>98</ns3:hr>
            <ns3:cad>0</ns3:cad>
          </ns3:TrackPointExtension>
        </extensions>
      </trkpt>
      <trkpt lat="45.29304197989404201507568359375" lon="-71.104615665972232818603515625">
        <ele>876.5999755859375</ele>
        <time>2026-08-22T00:07:42.000Z</time>
        <extensions>
          <ns3:TrackPointExtension>
            <ns3:hr>98</ns3:hr>
            <ns3:cad>0</ns3:cad>
          </ns3:TrackPointExtension>
        </extensions>
      </trkpt>
      <trkpt lat="45.29304197989404201507568359375" lon="-71.104615665972232818603515625">
        <ele>876.5999755859375</ele>
        <time>2026-08-22T00:07:43.000Z</time>
        <extensions>
          <ns3:TrackPointExtension>
            <ns3:hr>98</ns3:hr>
            <ns3:cad>0</ns3:cad>
          </ns3:TrackPointExtension>
        </extensions>
      </trkpt>
      <trkpt lat="45.29304197989404201507568359375" lon="-71.104615665972232818603515625">
        <ele>876.5999755859375</ele>
        <time>2026-08-22T00:07:44.000Z</time>
        <extensions>
          <ns3:TrackPointExtension>
            <ns3:hr>98</ns3:hr>
            <ns3:cad>0</ns3:cad>
          </ns3:TrackPointExtension>
        </extensions>
      </trkpt>
      <trkpt lat="45.29302722774446010589599609375" lon="-71.10460837371647357940673828125">
        <ele>876.5999755859375</ele>
        <time>2026-08-22T00:07:45.000Z</time>
        <extensions>
          <ns3:TrackPointExtension>
            <ns3:hr>98</ns3:hr>
            <ns3:cad>0</ns3:cad>
          </ns3:TrackPointExtension>
        </extensions>
      </trkpt>
      <trkpt lat="45.29302722774446010589599609375" lon="-71.10460820607841014862060546875">
        <ele>876.5999755859375</ele>
        <time>2026-08-22T00:07:46.000Z</time>
        <extensions>
          <ns3:TrackPointExtension>
            <ns3:hr>97</ns3:hr>
            <ns3:cad>0</ns3:cad>
          </ns3:TrackPointExtension>
        </extensions>
      </trkpt>
      <trkpt lat="45.29302722774446010589599609375" lon="-71.10460820607841014862060546875">
        <ele>876.5999755859375</ele>
        <time>2026-08-22T00:07:47.000Z</time>
        <extensions>
          <ns3:TrackPointExtension>
            <ns3:hr>97</ns3:hr>
            <ns3:cad>0</ns3:cad>
          </ns3:TrackPointExtension>
        </extensions>
      </trkpt>
      <trkpt lat="45.29302722774446010589599609375" lon="-71.10460820607841014862060546875">
        <ele>876.5999755859375</ele>
        <time>2026-08-22T00:07:48.000Z</time>
        <extensions>
          <ns3:TrackPointExtension>
            <ns3:hr>96</ns3:hr>
            <ns3:cad>0</ns3:cad>
          </ns3:TrackPointExtension>
        </extensions>
      </trkpt>
      <trkpt lat="45.29302722774446010589599609375" lon="-71.10460820607841014862060546875">
        <ele>876.5999755859375</ele>
        <time>2026-08-22T00:07:49.000Z</time>
        <extensions>
          <ns3:TrackPointExtension>
            <ns3:hr>96</ns3:hr>
            <ns3:cad>0</ns3:cad>
          </ns3:TrackPointExtension>
        </extensions>
      </trkpt>
      <trkpt lat="45.29302722774446010589599609375" lon="-71.10460820607841014862060546875">
        <ele>876.5999755859375</ele>
        <time>2026-08-22T00:07:50.000Z</time>
        <extensions>
          <ns3:TrackPointExtension>
            <ns3:hr>96</ns3:hr>
            <ns3:cad>0</ns3:cad>
          </ns3:TrackPointExtension>
        </extensions>
      </trkpt>
      <trkpt lat="45.29302722774446010589599609375" lon="-71.10460820607841014862060546875">
        <ele>876.5999755859375</ele>
        <time>2026-08-22T00:07:51.000Z</time>
        <extensions>
          <ns3:TrackPointExtension>
            <ns3:hr>95</ns3:hr>
            <ns3:cad>0</ns3:cad>
          </ns3:TrackPointExtension>
        </extensions>
      </trkpt>
      <trkpt lat="45.29302722774446010589599609375" lon="-71.10460820607841014862060546875">
        <ele>876.5999755859375</ele>
        <time>2026-08-22T00:07:52.000Z</time>
        <extensions>
          <ns3:TrackPointExtension>
            <ns3:hr>95</ns3:hr>
            <ns3:cad>0</ns3:cad>
          </ns3:TrackPointExtension>
        </extensions>
      </trkpt>
      <trkpt lat="45.29302722774446010589599609375" lon="-71.10460820607841014862060546875">
        <ele>876.5999755859375</ele>
        <time>2026-08-22T00:07:53.000Z</time>
        <extensions>
          <ns3:TrackPointExtension>
            <ns3:hr>95</ns3:hr>
            <ns3:cad>0</ns3:cad>
          </ns3:TrackPointExtension>
        </extensions>
      </trkpt>
      <trkpt lat="45.29302722774446010589599609375" lon="-71.10460820607841014862060546875">
        <ele>876.5999755859375</ele>
        <time>2026-08-22T00:07:54.000Z</time>
        <extensions>
          <ns3:TrackPointExtension>
            <ns3:hr>95</ns3:hr>
            <ns3:cad>0</ns3:cad>
          </ns3:TrackPointExtension>
        </extensions>
      </trkpt>
      <trkpt lat="45.29302722774446010589599609375" lon="-71.10460820607841014862060546875">
        <ele>876.5999755859375</ele>
        <time>2026-08-22T00:07:55.000Z</time>
        <extensions>
          <ns3:TrackPointExtension>
            <ns3:hr>96</ns3:hr>
            <ns3:cad>0</ns3:cad>
          </ns3:TrackPointExtension>
        </extensions>
      </trkpt>
      <trkpt lat="45.29302722774446010589599609375" lon="-71.10460820607841014862060546875">
        <ele>876.5999755859375</ele>
        <time>2026-08-22T00:07:56.000Z</time>
        <extensions>
          <ns3:TrackPointExtension>
            <ns3:hr>96</ns3:hr>
            <ns3:cad>0</ns3:cad>
          </ns3:TrackPointExtension>
        </extensions>
      </trkpt>
      <trkpt lat="45.29302689246833324432373046875" lon="-71.1046081222593784332275390625">
        <ele>876.5999755859375</ele>
        <time>2026-08-22T00:07:57.000Z</time>
        <extensions>
          <ns3:TrackPointExtension>
            <ns3:hr>96</ns3:hr>
            <ns3:cad>0</ns3:cad>
          </ns3:TrackPointExtension>
        </extensions>
      </trkpt>
      <trkpt lat="45.29302706010639667510986328125" lon="-71.1046077869832515716552734375">
        <ele>876.5999755859375</ele>
        <time>2026-08-22T00:07:58.000Z</time>
        <extensions>
          <ns3:TrackPointExtension>
            <ns3:hr>96</ns3:hr>
            <ns3:cad>0</ns3:cad>
          </ns3:TrackPointExtension>
        </extensions>
      </trkpt>
      <trkpt lat="45.29302722774446010589599609375" lon="-71.10460820607841014862060546875">
        <ele>876.5999755859375</ele>
        <time>2026-08-22T00:07:59.000Z</time>
        <extensions>
          <ns3:TrackPointExtension>
            <ns3:hr>96</ns3:hr>
            <ns3:cad>0</ns3:cad>
          </ns3:TrackPointExtension>
        </extensions>
      </trkpt>
      <trkpt lat="45.29302722774446010589599609375" lon="-71.10460820607841014862060546875">
        <ele>876.5999755859375</ele>
        <time>2026-08-22T00:08:00.000Z</time>
        <extensions>
          <ns3:TrackPointExtension>
            <ns3:hr>96</ns3:hr>
            <ns3:cad>0</ns3:cad>
          </ns3:TrackPointExtension>
        </extensions>
      </trkpt>
      <trkpt lat="45.29302722774446010589599609375" lon="-71.10460820607841014862060546875">
        <ele>876.5999755859375</ele>
        <time>2026-08-22T00:08:01.000Z</time>
        <extensions>
          <ns3:TrackPointExtension>
            <ns3:hr>96</ns3:hr>
            <ns3:cad>0</ns3:cad>
          </ns3:TrackPointExtension>
        </extensions>
      </trkpt>
      <trkpt lat="45.29302722774446010589599609375" lon="-71.10460820607841014862060546875">
        <ele>876.5999755859375</ele>
        <time>2026-08-22T00:08:02.000Z</time>
        <extensions>
          <ns3:TrackPointExtension>
            <ns3:hr>97</ns3:hr>
            <ns3:cad>0</ns3:cad>
          </ns3:TrackPointExtension>
        </extensions>
      </trkpt>
      <trkpt lat="45.29302722774446010589599609375" lon="-71.10460820607841014862060546875">
        <ele>876.5999755859375</ele>
        <time>2026-08-22T00:08:03.000Z</time>
        <extensions>
          <ns3:TrackPointExtension>
            <ns3:hr>98</ns3:hr>
            <ns3:cad>0</ns3:cad>
          </ns3:TrackPointExtension>
        </extensions>
      </trkpt>
      <trkpt lat="45.29302722774446010589599609375" lon="-71.10460820607841014862060546875">
        <ele>876.5999755859375</ele>
        <time>2026-08-22T00:08:04.000Z</time>
        <extensions>
          <ns3:TrackPointExtension>
            <ns3:hr>99</ns3:hr>
            <ns3:cad>0</ns3:cad>
          </ns3:TrackPointExtension>
        </extensions>
      </trkpt>
      <trkpt lat="45.29302722774446010589599609375" lon="-71.10460820607841014862060546875">
        <ele>876.5999755859375</ele>
        <time>2026-08-22T00:08:05.000Z</time>
        <extensions>
          <ns3:TrackPointExtension>
            <ns3:hr>98</ns3:hr>
            <ns3:cad>0</ns3:cad>
          </ns3:TrackPointExtension>
        </extensions>
      </trkpt>
      <trkpt lat="45.29302722774446010589599609375" lon="-71.10460820607841014862060546875">
        <ele>876.5999755859375</ele>
        <time>2026-08-22T00:08:06.000Z</time>
        <extensions>
          <ns3:TrackPointExtension>
            <ns3:hr>98</ns3:hr>
            <ns3:cad>0</ns3:cad>
          </ns3:TrackPointExtension>
        </extensions>
      </trkpt>
      <trkpt lat="45.29302722774446010589599609375" lon="-71.10460820607841014862060546875">
        <ele>876.5999755859375</ele>
        <time>2026-08-22T00:08:07.000Z</time>
        <extensions>
          <ns3:TrackPointExtension>
            <ns3:hr>94</ns3:hr>
            <ns3:cad>0</ns3:cad>
          </ns3:TrackPointExtension>
        </extensions>
      </trkpt>
      <trkpt lat="45.29302722774446010589599609375" lon="-71.10460820607841014862060546875">
        <ele>876.5999755859375</ele>
        <time>2026-08-22T00:08:08.000Z</time>
        <extensions>
          <ns3:TrackPointExtension>
            <ns3:hr>93</ns3:hr>
            <ns3:cad>0</ns3:cad>
          </ns3:TrackPointExtension>
        </extensions>
      </trkpt>
      <trkpt lat="45.29302722774446010589599609375" lon="-71.10460820607841014862060546875">
        <ele>876.5999755859375</ele>
        <time>2026-08-22T00:08:09.000Z</time>
        <extensions>
          <ns3:TrackPointExtension>
            <ns3:hr>92</ns3:hr>
            <ns3:cad>0</ns3:cad>
          </ns3:TrackPointExtension>
        </extensions>
      </trkpt>
      <trkpt lat="45.29302722774446010589599609375" lon="-71.10460820607841014862060546875">
        <ele>876.5999755859375</ele>
        <time>2026-08-22T00:08:10.000Z</time>
        <extensions>
          <ns3:TrackPointExtension>
            <ns3:hr>92</ns3:hr>
            <ns3:cad>0</ns3:cad>
          </ns3:TrackPointExtension>
        </extensions>
      </trkpt>
      <trkpt lat="45.29302722774446010589599609375" lon="-71.10460820607841014862060546875">
        <ele>876.5999755859375</ele>
        <time>2026-08-22T00:08:11.000Z</time>
        <extensions>
          <ns3:TrackPointExtension>
            <ns3:hr>92</ns3:hr>
            <ns3:cad>0</ns3:cad>
          </ns3:TrackPointExtension>
        </extensions>
      </trkpt>
      <trkpt lat="45.29302722774446010589599609375" lon="-71.10460820607841014862060546875">
        <ele>876.5999755859375</ele>
        <time>2026-08-22T00:08:12.000Z</time>
        <extensions>
          <ns3:TrackPointExtension>
            <ns3:hr>92</ns3:hr>
            <ns3:cad>0</ns3:cad>
          </ns3:TrackPointExtension>
        </extensions>
      </trkpt>
      <trkpt lat="45.29302722774446010589599609375" lon="-71.10460820607841014862060546875">
        <ele>876.5999755859375</ele>
        <time>2026-08-22T00:08:13.000Z</time>
        <extensions>
          <ns3:TrackPointExtension>
            <ns3:hr>93</ns3:hr>
            <ns3:cad>0</ns3:cad>
          </ns3:TrackPointExtension>
        </extensions>
      </trkpt>
      <trkpt lat="45.29302722774446010589599609375" lon="-71.10460820607841014862060546875">
        <ele>876.5999755859375</ele>
        <time>2026-08-22T00:08:14.000Z</time>
        <extensions>
          <ns3:TrackPointExtension>
            <ns3:hr>92</ns3:hr>
            <ns3:cad>0</ns3:cad>
          </ns3:TrackPointExtension>
        </extensions>
      </trkpt>
      <trkpt lat="45.29302957467734813690185546875" lon="-71.10460887663066387176513671875">
        <ele>876.5999755859375</ele>
        <time>2026-08-22T00:08:15.000Z</time>
        <extensions>
          <ns3:TrackPointExtension>
            <ns3:hr>92</ns3:hr>
            <ns3:cad>0</ns3:cad>
          </ns3:TrackPointExtension>
        </extensions>
      </trkpt>
      <trkpt lat="45.29303544200956821441650390625" lon="-71.10461139120161533355712890625">
        <ele>876.79998779296875</ele>
        <time>2026-08-22T00:08:16.000Z</time>
        <extensions>
          <ns3:TrackPointExtension>
            <ns3:hr>92</ns3:hr>
            <ns3:cad>0</ns3:cad>
          </ns3:TrackPointExtension>
        </extensions>
      </trkpt>
      <trkpt lat="45.29303871095180511474609375" lon="-71.1046124808490276336669921875">
        <ele>876.79998779296875</ele>
        <time>2026-08-22T00:08:17.000Z</time>
        <extensions>
          <ns3:TrackPointExtension>
            <ns3:hr>92</ns3:hr>
            <ns3:cad>0</ns3:cad>
          </ns3:TrackPointExtension>
        </extensions>
      </trkpt>
      <trkpt lat="45.29304449446499347686767578125" lon="-71.10461734235286712646484375">
        <ele>877.20001220703125</ele>
        <time>2026-08-22T00:08:18.000Z</time>
        <extensions>
          <ns3:TrackPointExtension>
            <ns3:hr>92</ns3:hr>
            <ns3:cad>0</ns3:cad>
          </ns3:TrackPointExtension>
        </extensions>
      </trkpt>
      <trkpt lat="45.2930439077317714691162109375" lon="-71.1046171747148036956787109375">
        <ele>877.20001220703125</ele>
        <time>2026-08-22T00:08:19.000Z</time>
        <extensions>
          <ns3:TrackPointExtension>
            <ns3:hr>92</ns3:hr>
            <ns3:cad>0</ns3:cad>
          </ns3:TrackPointExtension>
        </extensions>
      </trkpt>
      <trkpt lat="45.2930439077317714691162109375" lon="-71.1046171747148036956787109375">
        <ele>877.4000244140625</ele>
        <time>2026-08-22T00:08:20.000Z</time>
        <extensions>
          <ns3:TrackPointExtension>
            <ns3:hr>92</ns3:hr>
            <ns3:cad>0</ns3:cad>
          </ns3:TrackPointExtension>
        </extensions>
      </trkpt>
      <trkpt lat="45.2930439077317714691162109375" lon="-71.1046171747148036956787109375">
        <ele>877.4000244140625</ele>
        <time>2026-08-22T00:08:21.000Z</time>
        <extensions>
          <ns3:TrackPointExtension>
            <ns3:hr>92</ns3:hr>
            <ns3:cad>0</ns3:cad>
          </ns3:TrackPointExtension>
        </extensions>
      </trkpt>
      <trkpt lat="45.2930439077317714691162109375" lon="-71.1046171747148036956787109375">
        <ele>877.4000244140625</ele>
        <time>2026-08-22T00:08:22.000Z</time>
        <extensions>
          <ns3:TrackPointExtension>
            <ns3:hr>93</ns3:hr>
            <ns3:cad>0</ns3:cad>
          </ns3:TrackPointExtension>
        </extensions>
      </trkpt>
      <trkpt lat="45.2930439077317714691162109375" lon="-71.1046171747148036956787109375">
        <ele>877.4000244140625</ele>
        <time>2026-08-22T00:08:23.000Z</time>
        <extensions>
          <ns3:TrackPointExtension>
            <ns3:hr>93</ns3:hr>
            <ns3:cad>0</ns3:cad>
          </ns3:TrackPointExtension>
        </extensions>
      </trkpt>
      <trkpt lat="45.2930439077317714691162109375" lon="-71.1046171747148036956787109375">
        <ele>877.4000244140625</ele>
        <time>2026-08-22T00:08:24.000Z</time>
        <extensions>
          <ns3:TrackPointExtension>
            <ns3:hr>95</ns3:hr>
            <ns3:cad>0</ns3:cad>
          </ns3:TrackPointExtension>
        </extensions>
      </trkpt>
      <trkpt lat="45.2930439077317714691162109375" lon="-71.1046171747148036956787109375">
        <ele>877.4000244140625</ele>
        <time>2026-08-22T00:08:25.000Z</time>
        <extensions>
          <ns3:TrackPointExtension>
            <ns3:hr>96</ns3:hr>
            <ns3:cad>0</ns3:cad>
          </ns3:TrackPointExtension>
        </extensions>
      </trkpt>
      <trkpt lat="45.2930439077317714691162109375" lon="-71.1046171747148036956787109375">
        <ele>877.20001220703125</ele>
        <time>2026-08-22T00:08:26.000Z</time>
        <extensions>
          <ns3:TrackPointExtension>
            <ns3:hr>96</ns3:hr>
            <ns3:cad>0</ns3:cad>
          </ns3:TrackPointExtension>
        </extensions>
      </trkpt>
      <trkpt lat="45.2930439077317714691162109375" lon="-71.1046171747148036956787109375">
        <ele>877.20001220703125</ele>
        <time>2026-08-22T00:08:27.000Z</time>
        <extensions>
          <ns3:TrackPointExtension>
            <ns3:hr>93</ns3:hr>
            <ns3:cad>0</ns3:cad>
          </ns3:TrackPointExtension>
        </extensions>
      </trkpt>
      <trkpt lat="45.2930439077317714691162109375" lon="-71.1046171747148036956787109375">
        <ele>877.20001220703125</ele>
        <time>2026-08-22T00:08:28.000Z</time>
        <extensions>
          <ns3:TrackPointExtension>
            <ns3:hr>92</ns3:hr>
            <ns3:cad>0</ns3:cad>
          </ns3:TrackPointExtension>
        </extensions>
      </trkpt>
      <trkpt lat="45.29304332099854946136474609375" lon="-71.10461868345737457275390625">
        <ele>877.20001220703125</ele>
        <time>2026-08-22T00:08:29.000Z</time>
        <extensions>
          <ns3:TrackPointExtension>
            <ns3:hr>92</ns3:hr>
            <ns3:cad>0</ns3:cad>
          </ns3:TrackPointExtension>
        </extensions>
      </trkpt>
      <trkpt lat="45.29304784722626209259033203125" lon="-71.104607619345188140869140625">
        <ele>877.20001220703125</ele>
        <time>2026-08-22T00:08:30.000Z</time>
        <extensions>
          <ns3:TrackPointExtension>
            <ns3:hr>92</ns3:hr>
            <ns3:cad>0</ns3:cad>
          </ns3:TrackPointExtension>
        </extensions>
      </trkpt>
      <trkpt lat="45.2930509485304355621337890625" lon="-71.1046044342219829559326171875">
        <ele>877.4000244140625</ele>
        <time>2026-08-22T00:08:31.000Z</time>
        <extensions>
          <ns3:TrackPointExtension>
            <ns3:hr>92</ns3:hr>
            <ns3:cad>0</ns3:cad>
          </ns3:TrackPointExtension>
        </extensions>
      </trkpt>
      <trkpt lat="45.29304315336048603057861328125" lon="-71.10460300929844379425048828125">
        <ele>877.4000244140625</ele>
        <time>2026-08-22T00:08:32.000Z</time>
        <extensions>
          <ns3:TrackPointExtension>
            <ns3:hr>92</ns3:hr>
            <ns3:cad>0</ns3:cad>
          </ns3:TrackPointExtension>
        </extensions>
      </trkpt>
      <trkpt lat="45.293040387332439422607421875" lon="-71.10460652969777584075927734375">
        <ele>877.4000244140625</ele>
        <time>2026-08-22T00:08:33.000Z</time>
        <extensions>
          <ns3:TrackPointExtension>
            <ns3:hr>92</ns3:hr>
            <ns3:cad>0</ns3:cad>
          </ns3:TrackPointExtension>
        </extensions>
      </trkpt>
      <trkpt lat="45.29304273426532745361328125" lon="-71.104610301554203033447265625">
        <ele>877.5999755859375</ele>
        <time>2026-08-22T00:08:34.000Z</time>
        <extensions>
          <ns3:TrackPointExtension>
            <ns3:hr>92</ns3:hr>
            <ns3:cad>0</ns3:cad>
          </ns3:TrackPointExtension>
        </extensions>
      </trkpt>
      <trkpt lat="45.29304013587534427642822265625" lon="-71.1046064458787441253662109375">
        <ele>877.5999755859375</ele>
        <time>2026-08-22T00:08:35.000Z</time>
        <extensions>
          <ns3:TrackPointExtension>
            <ns3:hr>93</ns3:hr>
            <ns3:cad>0</ns3:cad>
          </ns3:TrackPointExtension>
        </extensions>
      </trkpt>
      <trkpt lat="45.2930439077317714691162109375" lon="-71.1046171747148036956787109375">
        <ele>877.5999755859375</ele>
        <time>2026-08-22T00:08:36.000Z</time>
        <extensions>
          <ns3:TrackPointExtension>
            <ns3:hr>93</ns3:hr>
            <ns3:cad>0</ns3:cad>
          </ns3:TrackPointExtension>
        </extensions>
      </trkpt>
      <trkpt lat="45.2930439077317714691162109375" lon="-71.1046171747148036956787109375">
        <ele>877.4000244140625</ele>
        <time>2026-08-22T00:08:37.000Z</time>
        <extensions>
          <ns3:TrackPointExtension>
            <ns3:hr>93</ns3:hr>
            <ns3:cad>0</ns3:cad>
          </ns3:TrackPointExtension>
        </extensions>
      </trkpt>
      <trkpt lat="45.2930439077317714691162109375" lon="-71.1046171747148036956787109375">
        <ele>877.4000244140625</ele>
        <time>2026-08-22T00:08:38.000Z</time>
        <extensions>
          <ns3:TrackPointExtension>
            <ns3:hr>94</ns3:hr>
            <ns3:cad>0</ns3:cad>
          </ns3:TrackPointExtension>
        </extensions>
      </trkpt>
      <trkpt lat="45.2930439077317714691162109375" lon="-71.1046171747148036956787109375">
        <ele>877.4000244140625</ele>
        <time>2026-08-22T00:08:39.000Z</time>
        <extensions>
          <ns3:TrackPointExtension>
            <ns3:hr>94</ns3:hr>
            <ns3:cad>0</ns3:cad>
          </ns3:TrackPointExtension>
        </extensions>
      </trkpt>
      <trkpt lat="45.2930439077317714691162109375" lon="-71.1046171747148036956787109375">
        <ele>877.4000244140625</ele>
        <time>2026-08-22T00:08:40.000Z</time>
        <extensions>
          <ns3:TrackPointExtension>
            <ns3:hr>95</ns3:hr>
            <ns3:cad>0</ns3:cad>
          </ns3:TrackPointExtension>
        </extensions>
      </trkpt>
      <trkpt lat="45.2930439077317714691162109375" lon="-71.1046171747148036956787109375">
        <ele>877.4000244140625</ele>
        <time>2026-08-22T00:08:41.000Z</time>
        <extensions>
          <ns3:TrackPointExtension>
            <ns3:hr>96</ns3:hr>
            <ns3:cad>0</ns3:cad>
          </ns3:TrackPointExtension>
        </extensions>
      </trkpt>
      <trkpt lat="45.2930439077317714691162109375" lon="-71.1046171747148036956787109375">
        <ele>877.4000244140625</ele>
        <time>2026-08-22T00:08:42.000Z</time>
        <extensions>
          <ns3:TrackPointExtension>
            <ns3:hr>97</ns3:hr>
            <ns3:cad>0</ns3:cad>
          </ns3:TrackPointExtension>
        </extensions>
      </trkpt>
      <trkpt lat="45.2930439077317714691162109375" lon="-71.1046171747148036956787109375">
        <ele>877.4000244140625</ele>
        <time>2026-08-22T00:08:43.000Z</time>
        <extensions>
          <ns3:TrackPointExtension>
            <ns3:hr>97</ns3:hr>
            <ns3:cad>0</ns3:cad>
          </ns3:TrackPointExtension>
        </extensions>
      </trkpt>
      <trkpt lat="45.2930439077317714691162109375" lon="-71.1046171747148036956787109375">
        <ele>877.4000244140625</ele>
        <time>2026-08-22T00:08:44.000Z</time>
        <extensions>
          <ns3:TrackPointExtension>
            <ns3:hr>96</ns3:hr>
            <ns3:cad>0</ns3:cad>
          </ns3:TrackPointExtension>
        </extensions>
      </trkpt>
      <trkpt lat="45.2930439077317714691162109375" lon="-71.1046171747148036956787109375">
        <ele>877.4000244140625</ele>
        <time>2026-08-22T00:08:45.000Z</time>
        <extensions>
          <ns3:TrackPointExtension>
            <ns3:hr>95</ns3:hr>
            <ns3:cad>0</ns3:cad>
          </ns3:TrackPointExtension>
        </extensions>
      </trkpt>
      <trkpt lat="45.2930439077317714691162109375" lon="-71.1046171747148036956787109375">
        <ele>877.4000244140625</ele>
        <time>2026-08-22T00:08:46.000Z</time>
        <extensions>
          <ns3:TrackPointExtension>
            <ns3:hr>94</ns3:hr>
            <ns3:cad>0</ns3:cad>
          </ns3:TrackPointExtension>
        </extensions>
      </trkpt>
      <trkpt lat="45.2930439077317714691162109375" lon="-71.1046171747148036956787109375">
        <ele>877.20001220703125</ele>
        <time>2026-08-22T00:08:47.000Z</time>
        <extensions>
          <ns3:TrackPointExtension>
            <ns3:hr>94</ns3:hr>
            <ns3:cad>0</ns3:cad>
          </ns3:TrackPointExtension>
        </extensions>
      </trkpt>
      <trkpt lat="45.2930439077317714691162109375" lon="-71.1046171747148036956787109375">
        <ele>877.20001220703125</ele>
        <time>2026-08-22T00:08:48.000Z</time>
        <extensions>
          <ns3:TrackPointExtension>
            <ns3:hr>95</ns3:hr>
            <ns3:cad>0</ns3:cad>
          </ns3:TrackPointExtension>
        </extensions>
      </trkpt>
      <trkpt lat="45.2930385433137416839599609375" lon="-71.10460602678358554840087890625">
        <ele>877</ele>
        <time>2026-08-22T00:08:49.000Z</time>
        <extensions>
          <ns3:TrackPointExtension>
            <ns3:hr>95</ns3:hr>
            <ns3:cad>0</ns3:cad>
          </ns3:TrackPointExtension>
        </extensions>
      </trkpt>
      <trkpt lat="45.2930315025150775909423828125" lon="-71.1046158336102962493896484375">
        <ele>877</ele>
        <time>2026-08-22T00:08:50.000Z</time>
        <extensions>
          <ns3:TrackPointExtension>
            <ns3:hr>95</ns3:hr>
            <ns3:cad>0</ns3:cad>
          </ns3:TrackPointExtension>
        </extensions>
      </trkpt>
      <trkpt lat="45.29302664101123809814453125" lon="-71.10462605953216552734375">
        <ele>877</ele>
        <time>2026-08-22T00:08:51.000Z</time>
        <extensions>
          <ns3:TrackPointExtension>
            <ns3:hr>98</ns3:hr>
            <ns3:cad>0</ns3:cad>
          </ns3:TrackPointExtension>
        </extensions>
      </trkpt>
      <trkpt lat="45.2930247969925403594970703125" lon="-71.10462681390345096588134765625">
        <ele>877</ele>
        <time>2026-08-22T00:08:52.000Z</time>
        <extensions>
          <ns3:TrackPointExtension>
            <ns3:hr>99</ns3:hr>
            <ns3:cad>0</ns3:cad>
          </ns3:TrackPointExtension>
        </extensions>
      </trkpt>
      <trkpt lat="45.293023623526096343994140625" lon="-71.1046191863715648651123046875">
        <ele>877</ele>
        <time>2026-08-22T00:08:53.000Z</time>
        <extensions>
          <ns3:TrackPointExtension>
            <ns3:hr>100</ns3:hr>
            <ns3:cad>0</ns3:cad>
          </ns3:TrackPointExtension>
        </extensions>
      </trkpt>
      <trkpt lat="45.2930170856416225433349609375" lon="-71.10461533069610595703125">
        <ele>877</ele>
        <time>2026-08-22T00:08:54.000Z</time>
        <extensions>
          <ns3:TrackPointExtension>
            <ns3:hr>102</ns3:hr>
            <ns3:cad>0</ns3:cad>
          </ns3:TrackPointExtension>
        </extensions>
      </trkpt>
      <trkpt lat="45.2930085361003875732421875" lon="-71.10460929572582244873046875">
        <ele>877</ele>
        <time>2026-08-22T00:08:55.000Z</time>
        <extensions>
          <ns3:TrackPointExtension>
            <ns3:hr>102</ns3:hr>
            <ns3:cad>0</ns3:cad>
          </ns3:TrackPointExtension>
        </extensions>
      </trkpt>
      <trkpt lat="45.29300442896783351898193359375" lon="-71.104610972106456756591796875">
        <ele>876.79998779296875</ele>
        <time>2026-08-22T00:08:56.000Z</time>
        <extensions>
          <ns3:TrackPointExtension>
            <ns3:hr>103</ns3:hr>
            <ns3:cad>0</ns3:cad>
          </ns3:TrackPointExtension>
        </extensions>
      </trkpt>
      <trkpt lat="45.29299856163561344146728515625" lon="-71.104608960449695587158203125">
        <ele>876.5999755859375</ele>
        <time>2026-08-22T00:08:57.000Z</time>
        <extensions>
          <ns3:TrackPointExtension>
            <ns3:hr>104</ns3:hr>
            <ns3:cad>0</ns3:cad>
          </ns3:TrackPointExtension>
        </extensions>
      </trkpt>
      <trkpt lat="45.2929937839508056640625" lon="-71.10460770316421985626220703125">
        <ele>876.5999755859375</ele>
        <time>2026-08-22T00:08:58.000Z</time>
        <extensions>
          <ns3:TrackPointExtension>
            <ns3:hr>108</ns3:hr>
            <ns3:cad>0</ns3:cad>
          </ns3:TrackPointExtension>
        </extensions>
      </trkpt>
      <trkpt lat="45.2929852344095706939697265625" lon="-71.10461155883967876434326171875">
        <ele>876.4000244140625</ele>
        <time>2026-08-22T00:08:59.000Z</time>
        <extensions>
          <ns3:TrackPointExtension>
            <ns3:hr>110</ns3:hr>
            <ns3:cad>0</ns3:cad>
          </ns3:TrackPointExtension>
        </extensions>
      </trkpt>
      <trkpt lat="45.29296302236616611480712890625" lon="-71.104622371494770050048828125">
        <ele>876.4000244140625</ele>
        <time>2026-08-22T00:09:00.000Z</time>
        <extensions>
          <ns3:TrackPointExtension>
            <ns3:hr>111</ns3:hr>
            <ns3:cad>0</ns3:cad>
          </ns3:TrackPointExtension>
        </extensions>
      </trkpt>
      <trkpt lat="45.29295346699655055999755859375" lon="-71.10462765209376811981201171875">
        <ele>876.4000244140625</ele>
        <time>2026-08-22T00:09:01.000Z</time>
        <extensions>
          <ns3:TrackPointExtension>
            <ns3:hr>111</ns3:hr>
            <ns3:cad>0</ns3:cad>
          </ns3:TrackPointExtension>
        </extensions>
      </trkpt>
      <trkpt lat="45.29293854720890522003173828125" lon="-71.1046359501779079437255859375">
        <ele>876.20001220703125</ele>
        <time>2026-08-22T00:09:02.000Z</time>
        <extensions>
          <ns3:TrackPointExtension>
            <ns3:hr>111</ns3:hr>
            <ns3:cad>59</ns3:cad>
          </ns3:TrackPointExtension>
        </extensions>
      </trkpt>
      <trkpt lat="45.29292547143995761871337890625" lon="-71.10464525409042835235595703125">
        <ele>876.20001220703125</ele>
        <time>2026-08-22T00:09:03.000Z</time>
        <extensions>
          <ns3:TrackPointExtension>
            <ns3:hr>110</ns3:hr>
            <ns3:cad>59</ns3:cad>
          </ns3:TrackPointExtension>
        </extensions>
      </trkpt>
      <trkpt lat="45.2929138205945491790771484375" lon="-71.10465514473617076873779296875">
        <ele>876.20001220703125</ele>
        <time>2026-08-22T00:09:04.000Z</time>
        <extensions>
          <ns3:TrackPointExtension>
            <ns3:hr>110</ns3:hr>
            <ns3:cad>59</ns3:cad>
          </ns3:TrackPointExtension>
        </extensions>
      </trkpt>
      <trkpt lat="45.2929044328629970550537109375" lon="-71.10466771759092807769775390625">
        <ele>876</ele>
        <time>2026-08-22T00:09:05.000Z</time>
        <extensions>
          <ns3:TrackPointExtension>
            <ns3:hr>110</ns3:hr>
            <ns3:cad>0</ns3:cad>
          </ns3:TrackPointExtension>
        </extensions>
      </trkpt>
      <trkpt lat="45.292901583015918731689453125" lon="-71.10467844642698764801025390625">
        <ele>876</ele>
        <time>2026-08-22T00:09:06.000Z</time>
        <extensions>
          <ns3:TrackPointExtension>
            <ns3:hr>110</ns3:hr>
            <ns3:cad>0</ns3:cad>
          </ns3:TrackPointExtension>
        </extensions>
      </trkpt>
      <trkpt lat="45.29290049336850643157958984375" lon="-71.10468481667339801788330078125">
        <ele>876</ele>
        <time>2026-08-22T00:09:07.000Z</time>
        <extensions>
          <ns3:TrackPointExtension>
            <ns3:hr>109</ns3:hr>
            <ns3:cad>0</ns3:cad>
          </ns3:TrackPointExtension>
        </extensions>
      </trkpt>
      <trkpt lat="45.29289328493177890777587890625" lon="-71.10469068400561809539794921875">
        <ele>876</ele>
        <time>2026-08-22T00:09:08.000Z</time>
        <extensions>
          <ns3:TrackPointExtension>
            <ns3:hr>108</ns3:hr>
            <ns3:cad>0</ns3:cad>
          </ns3:TrackPointExtension>
        </extensions>
      </trkpt>
      <trkpt lat="45.2928846515715122222900390625" lon="-71.1047023348510265350341796875">
        <ele>876</ele>
        <time>2026-08-22T00:09:09.000Z</time>
        <extensions>
          <ns3:TrackPointExtension>
            <ns3:hr>108</ns3:hr>
            <ns3:cad>0</ns3:cad>
          </ns3:TrackPointExtension>
        </extensions>
      </trkpt>
      <trkpt lat="45.292875766754150390625" lon="-71.1047090403735637664794921875">
        <ele>876.20001220703125</ele>
        <time>2026-08-22T00:09:10.000Z</time>
        <extensions>
          <ns3:TrackPointExtension>
            <ns3:hr>108</ns3:hr>
            <ns3:cad>0</ns3:cad>
          </ns3:TrackPointExtension>
        </extensions>
      </trkpt>
      <trkpt lat="45.29286210425198078155517578125" lon="-71.10471658408641815185546875">
        <ele>876.20001220703125</ele>
        <time>2026-08-22T00:09:11.000Z</time>
        <extensions>
          <ns3:TrackPointExtension>
            <ns3:hr>107</ns3:hr>
            <ns3:cad>0</ns3:cad>
          </ns3:TrackPointExtension>
        </extensions>
      </trkpt>
      <trkpt lat="45.2928517945110797882080078125" lon="-71.10472463071346282958984375">
        <ele>876</ele>
        <time>2026-08-22T00:09:12.000Z</time>
        <extensions>
          <ns3:TrackPointExtension>
            <ns3:hr>107</ns3:hr>
            <ns3:cad>0</ns3:cad>
          </ns3:TrackPointExtension>
        </extensions>
      </trkpt>
      <trkpt lat="45.29284433461725711822509765625" lon="-71.10472907312214374542236328125">
        <ele>876</ele>
        <time>2026-08-22T00:09:13.000Z</time>
        <extensions>
          <ns3:TrackPointExtension>
            <ns3:hr>107</ns3:hr>
            <ns3:cad>0</ns3:cad>
          </ns3:TrackPointExtension>
        </extensions>
      </trkpt>
      <trkpt lat="45.29283980838954448699951171875" lon="-71.1047372035682201385498046875">
        <ele>875.79998779296875</ele>
        <time>2026-08-22T00:09:14.000Z</time>
        <extensions>
          <ns3:TrackPointExtension>
            <ns3:hr>107</ns3:hr>
            <ns3:cad>0</ns3:cad>
          </ns3:TrackPointExtension>
        </extensions>
      </trkpt>
      <trkpt lat="45.2928293310105800628662109375" lon="-71.1047486029565334320068359375">
        <ele>875.5999755859375</ele>
        <time>2026-08-22T00:09:15.000Z</time>
        <extensions>
          <ns3:TrackPointExtension>
            <ns3:hr>108</ns3:hr>
            <ns3:cad>0</ns3:cad>
          </ns3:TrackPointExtension>
        </extensions>
      </trkpt>
      <trkpt lat="45.2928182668983936309814453125" lon="-71.10476084053516387939453125">
        <ele>875.4000244140625</ele>
        <time>2026-08-22T00:09:16.000Z</time>
        <extensions>
          <ns3:TrackPointExtension>
            <ns3:hr>108</ns3:hr>
            <ns3:cad>0</ns3:cad>
          </ns3:TrackPointExtension>
        </extensions>
      </trkpt>
      <trkpt lat="45.2928041853010654449462890625" lon="-71.1047737486660480499267578125">
        <ele>875.20001220703125</ele>
        <time>2026-08-22T00:09:17.000Z</time>
        <extensions>
          <ns3:TrackPointExtension>
            <ns3:hr>108</ns3:hr>
            <ns3:cad>0</ns3:cad>
          </ns3:TrackPointExtension>
        </extensions>
      </trkpt>
      <trkpt lat="45.29279999434947967529296875" lon="-71.1047885008156299591064453125">
        <ele>875</ele>
        <time>2026-08-22T00:09:18.000Z</time>
        <extensions>
          <ns3:TrackPointExtension>
            <ns3:hr>108</ns3:hr>
            <ns3:cad>0</ns3:cad>
          </ns3:TrackPointExtension>
        </extensions>
      </trkpt>
      <trkpt lat="45.2927927859127521514892578125" lon="-71.1047999002039432525634765625">
        <ele>874.79998779296875</ele>
        <time>2026-08-22T00:09:19.000Z</time>
        <extensions>
          <ns3:TrackPointExtension>
            <ns3:hr>107</ns3:hr>
            <ns3:cad>0</ns3:cad>
          </ns3:TrackPointExtension>
        </extensions>
      </trkpt>
      <trkpt lat="45.2927897684276103973388671875" lon="-71.1047999002039432525634765625">
        <ele>874.4000244140625</ele>
        <time>2026-08-22T00:09:20.000Z</time>
        <extensions>
          <ns3:TrackPointExtension>
            <ns3:hr>107</ns3:hr>
            <ns3:cad>0</ns3:cad>
          </ns3:TrackPointExtension>
        </extensions>
      </trkpt>
      <trkpt lat="45.2927844040095806121826171875" lon="-71.10479478724300861358642578125">
        <ele>874.20001220703125</ele>
        <time>2026-08-22T00:09:21.000Z</time>
        <extensions>
          <ns3:TrackPointExtension>
            <ns3:hr>107</ns3:hr>
            <ns3:cad>0</ns3:cad>
          </ns3:TrackPointExtension>
        </extensions>
      </trkpt>
      <trkpt lat="45.2927683107554912567138671875" lon="-71.10479864291846752166748046875">
        <ele>874</ele>
        <time>2026-08-22T00:09:22.000Z</time>
        <extensions>
          <ns3:TrackPointExtension>
            <ns3:hr>107</ns3:hr>
            <ns3:cad>0</ns3:cad>
          </ns3:TrackPointExtension>
        </extensions>
      </trkpt>
      <trkpt lat="45.29275565408170223236083984375" lon="-71.104805767536163330078125">
        <ele>873.5999755859375</ele>
        <time>2026-08-22T00:09:23.000Z</time>
        <extensions>
          <ns3:TrackPointExtension>
            <ns3:hr>107</ns3:hr>
            <ns3:cad>0</ns3:cad>
          </ns3:TrackPointExtension>
        </extensions>
      </trkpt>
      <trkpt lat="45.2927435003221035003662109375" lon="-71.10481716692447662353515625">
        <ele>873.4000244140625</ele>
        <time>2026-08-22T00:09:24.000Z</time>
        <extensions>
          <ns3:TrackPointExtension>
            <ns3:hr>108</ns3:hr>
            <ns3:cad>0</ns3:cad>
          </ns3:TrackPointExtension>
        </extensions>
      </trkpt>
      <trkpt lat="45.292727239429950714111328125" lon="-71.10482253134250640869140625">
        <ele>873.20001220703125</ele>
        <time>2026-08-22T00:09:25.000Z</time>
        <extensions>
          <ns3:TrackPointExtension>
            <ns3:hr>107</ns3:hr>
            <ns3:cad>0</ns3:cad>
          </ns3:TrackPointExtension>
        </extensions>
      </trkpt>
      <trkpt lat="45.29271282255649566650390625" lon="-71.10482521355152130126953125">
        <ele>872.79998779296875</ele>
        <time>2026-08-22T00:09:26.000Z</time>
        <extensions>
          <ns3:TrackPointExtension>
            <ns3:hr>108</ns3:hr>
            <ns3:cad>0</ns3:cad>
          </ns3:TrackPointExtension>
        </extensions>
      </trkpt>
      <trkpt lat="45.29269547201693058013916015625" lon="-71.10483284108340740203857421875">
        <ele>872.5999755859375</ele>
        <time>2026-08-22T00:09:27.000Z</time>
        <extensions>
          <ns3:TrackPointExtension>
            <ns3:hr>108</ns3:hr>
            <ns3:cad>0</ns3:cad>
          </ns3:TrackPointExtension>
        </extensions>
      </trkpt>
      <trkpt lat="45.29267887584865093231201171875" lon="-71.104842312633991241455078125">
        <ele>872.4000244140625</ele>
        <time>2026-08-22T00:09:28.000Z</time>
        <extensions>
          <ns3:TrackPointExtension>
            <ns3:hr>108</ns3:hr>
            <ns3:cad>0</ns3:cad>
          </ns3:TrackPointExtension>
        </extensions>
      </trkpt>
      <trkpt lat="45.29266680590808391571044921875" lon="-71.10484641976654529571533203125">
        <ele>872.4000244140625</ele>
        <time>2026-08-22T00:09:29.000Z</time>
        <extensions>
          <ns3:TrackPointExtension>
            <ns3:hr>108</ns3:hr>
            <ns3:cad>0</ns3:cad>
          </ns3:TrackPointExtension>
        </extensions>
      </trkpt>
      <trkpt lat="45.29265171848237514495849609375" lon="-71.10484801232814788818359375">
        <ele>872.20001220703125</ele>
        <time>2026-08-22T00:09:30.000Z</time>
        <extensions>
          <ns3:TrackPointExtension>
            <ns3:hr>107</ns3:hr>
            <ns3:cad>55</ns3:cad>
          </ns3:TrackPointExtension>
        </extensions>
      </trkpt>
      <trkpt lat="45.292637385427951812744140625" lon="-71.1048481799662113189697265625">
        <ele>872.20001220703125</ele>
        <time>2026-08-22T00:09:31.000Z</time>
        <extensions>
          <ns3:TrackPointExtension>
            <ns3:hr>108</ns3:hr>
            <ns3:cad>55</ns3:cad>
          </ns3:TrackPointExtension>
        </extensions>
      </trkpt>
      <trkpt lat="45.2926271595060825347900390625" lon="-71.10484323464334011077880859375">
        <ele>872.20001220703125</ele>
        <time>2026-08-22T00:09:32.000Z</time>
        <extensions>
          <ns3:TrackPointExtension>
            <ns3:hr>108</ns3:hr>
            <ns3:cad>55</ns3:cad>
          </ns3:TrackPointExtension>
        </extensions>
      </trkpt>
      <trkpt lat="45.2926140837371349334716796875" lon="-71.10483535565435886383056640625">
        <ele>872.20001220703125</ele>
        <time>2026-08-22T00:09:33.000Z</time>
        <extensions>
          <ns3:TrackPointExtension>
            <ns3:hr>108</ns3:hr>
            <ns3:cad>55</ns3:cad>
          </ns3:TrackPointExtension>
        </extensions>
      </trkpt>
      <trkpt lat="45.2926006726920604705810546875" lon="-71.10483485274016857147216796875">
        <ele>872.20001220703125</ele>
        <time>2026-08-22T00:09:34.000Z</time>
        <extensions>
          <ns3:TrackPointExtension>
            <ns3:hr>109</ns3:hr>
            <ns3:cad>55</ns3:cad>
          </ns3:TrackPointExtension>
        </extensions>
      </trkpt>
      <trkpt lat="45.292583405971527099609375" lon="-71.10484524630010128021240234375">
        <ele>872.20001220703125</ele>
        <time>2026-08-22T00:09:35.000Z</time>
        <extensions>
          <ns3:TrackPointExtension>
            <ns3:hr>109</ns3:hr>
            <ns3:cad>55</ns3:cad>
          </ns3:TrackPointExtension>
        </extensions>
      </trkpt>
      <trkpt lat="45.2925738506019115447998046875" lon="-71.10484994016587734222412109375">
        <ele>872.4000244140625</ele>
        <time>2026-08-22T00:09:36.000Z</time>
        <extensions>
          <ns3:TrackPointExtension>
            <ns3:hr>110</ns3:hr>
            <ns3:cad>0</ns3:cad>
          </ns3:TrackPointExtension>
        </extensions>
      </trkpt>
      <trkpt lat="45.2925658039748668670654296875" lon="-71.1048508621752262115478515625">
        <ele>872.4000244140625</ele>
        <time>2026-08-22T00:09:37.000Z</time>
        <extensions>
          <ns3:TrackPointExtension>
            <ns3:hr>110</ns3:hr>
            <ns3:cad>0</ns3:cad>
          </ns3:TrackPointExtension>
        </extensions>
      </trkpt>
      <trkpt lat="45.29255867935717105865478515625" lon="-71.10484960488975048065185546875">
        <ele>872.4000244140625</ele>
        <time>2026-08-22T00:09:38.000Z</time>
        <extensions>
          <ns3:TrackPointExtension>
            <ns3:hr>111</ns3:hr>
            <ns3:cad>0</ns3:cad>
          </ns3:TrackPointExtension>
        </extensions>
      </trkpt>
      <trkpt lat="45.29254325665533542633056640625" lon="-71.10485463403165340423583984375">
        <ele>872.4000244140625</ele>
        <time>2026-08-22T00:09:39.000Z</time>
        <extensions>
          <ns3:TrackPointExtension>
            <ns3:hr>110</ns3:hr>
            <ns3:cad>0</ns3:cad>
          </ns3:TrackPointExtension>
        </extensions>
      </trkpt>
      <trkpt lat="45.29253303073346614837646484375" lon="-71.10485203564167022705078125">
        <ele>872.4000244140625</ele>
        <time>2026-08-22T00:09:40.000Z</time>
        <extensions>
          <ns3:TrackPointExtension>
            <ns3:hr>110</ns3:hr>
            <ns3:cad>0</ns3:cad>
          </ns3:TrackPointExtension>
        </extensions>
      </trkpt>
      <trkpt lat="45.292518697679042816162109375" lon="-71.10485480166971683502197265625">
        <ele>872.20001220703125</ele>
        <time>2026-08-22T00:09:41.000Z</time>
        <extensions>
          <ns3:TrackPointExtension>
            <ns3:hr>110</ns3:hr>
            <ns3:cad>0</ns3:cad>
          </ns3:TrackPointExtension>
        </extensions>
      </trkpt>
      <trkpt lat="45.29250771738588809967041015625" lon="-71.10485631041228771209716796875">
        <ele>872.4000244140625</ele>
        <time>2026-08-22T00:09:42.000Z</time>
        <extensions>
          <ns3:TrackPointExtension>
            <ns3:hr>110</ns3:hr>
            <ns3:cad>0</ns3:cad>
          </ns3:TrackPointExtension>
        </extensions>
      </trkpt>
      <trkpt lat="45.2924940548837184906005859375" lon="-71.10485027544200420379638671875">
        <ele>872.4000244140625</ele>
        <time>2026-08-22T00:09:43.000Z</time>
        <extensions>
          <ns3:TrackPointExtension>
            <ns3:hr>110</ns3:hr>
            <ns3:cad>0</ns3:cad>
          </ns3:TrackPointExtension>
        </extensions>
      </trkpt>
      <trkpt lat="45.29247418977320194244384765625" lon="-71.10484935343265533447265625">
        <ele>872.4000244140625</ele>
        <time>2026-08-22T00:09:44.000Z</time>
        <extensions>
          <ns3:TrackPointExtension>
            <ns3:hr>110</ns3:hr>
            <ns3:cad>0</ns3:cad>
          </ns3:TrackPointExtension>
        </extensions>
      </trkpt>
      <trkpt lat="45.29245826415717601776123046875" lon="-71.10485228709876537322998046875">
        <ele>872.5999755859375</ele>
        <time>2026-08-22T00:09:45.000Z</time>
        <extensions>
          <ns3:TrackPointExtension>
            <ns3:hr>111</ns3:hr>
            <ns3:cad>0</ns3:cad>
          </ns3:TrackPointExtension>
        </extensions>
      </trkpt>
      <trkpt lat="45.29244267381727695465087890625" lon="-71.10485999844968318939208984375">
        <ele>872.5999755859375</ele>
        <time>2026-08-22T00:09:46.000Z</time>
        <extensions>
          <ns3:TrackPointExtension>
            <ns3:hr>110</ns3:hr>
            <ns3:cad>0</ns3:cad>
          </ns3:TrackPointExtension>
        </extensions>
      </trkpt>
      <trkpt lat="45.29243228025734424591064453125" lon="-71.104867123067378997802734375">
        <ele>872.79998779296875</ele>
        <time>2026-08-22T00:09:47.000Z</time>
        <extensions>
          <ns3:TrackPointExtension>
            <ns3:hr>110</ns3:hr>
            <ns3:cad>0</ns3:cad>
          </ns3:TrackPointExtension>
        </extensions>
      </trkpt>
      <trkpt lat="45.29242339543998241424560546875" lon="-71.10486754216253757476806640625">
        <ele>873</ele>
        <time>2026-08-22T00:09:48.000Z</time>
        <extensions>
          <ns3:TrackPointExtension>
            <ns3:hr>110</ns3:hr>
            <ns3:cad>0</ns3:cad>
          </ns3:TrackPointExtension>
        </extensions>
      </trkpt>
      <trkpt lat="45.292408727109432220458984375" lon="-71.10487424768507480621337890625">
        <ele>873.20001220703125</ele>
        <time>2026-08-22T00:09:49.000Z</time>
        <extensions>
          <ns3:TrackPointExtension>
            <ns3:hr>111</ns3:hr>
            <ns3:cad>0</ns3:cad>
          </ns3:TrackPointExtension>
        </extensions>
      </trkpt>
      <trkpt lat="45.29239791445434093475341796875" lon="-71.10486947000026702880859375">
        <ele>873.20001220703125</ele>
        <time>2026-08-22T00:09:50.000Z</time>
        <extensions>
          <ns3:TrackPointExtension>
            <ns3:hr>111</ns3:hr>
            <ns3:cad>0</ns3:cad>
          </ns3:TrackPointExtension>
        </extensions>
      </trkpt>
      <trkpt lat="45.2923874370753765106201171875" lon="-71.10486770980060100555419921875">
        <ele>873.4000244140625</ele>
        <time>2026-08-22T00:09:51.000Z</time>
        <extensions>
          <ns3:TrackPointExtension>
            <ns3:hr>111</ns3:hr>
            <ns3:cad>0</ns3:cad>
          </ns3:TrackPointExtension>
        </extensions>
      </trkpt>
      <trkpt lat="45.29238031245768070220947265625" lon="-71.10486469231545925140380859375">
        <ele>873.79998779296875</ele>
        <time>2026-08-22T00:09:52.000Z</time>
        <extensions>
          <ns3:TrackPointExtension>
            <ns3:hr>111</ns3:hr>
            <ns3:cad>0</ns3:cad>
          </ns3:TrackPointExtension>
        </extensions>
      </trkpt>
      <trkpt lat="45.2923746965825557708740234375" lon="-71.1048636026680469512939453125">
        <ele>874</ele>
        <time>2026-08-22T00:09:53.000Z</time>
        <extensions>
          <ns3:TrackPointExtension>
            <ns3:hr>110</ns3:hr>
            <ns3:cad>0</ns3:cad>
          </ns3:TrackPointExtension>
        </extensions>
      </trkpt>
      <trkpt lat="45.292370505630970001220703125" lon="-71.10486251302063465118408203125">
        <ele>874.4000244140625</ele>
        <time>2026-08-22T00:09:54.000Z</time>
        <extensions>
          <ns3:TrackPointExtension>
            <ns3:hr>111</ns3:hr>
            <ns3:cad>0</ns3:cad>
          </ns3:TrackPointExtension>
        </extensions>
      </trkpt>
      <trkpt lat="45.29236254282295703887939453125" lon="-71.10486100427806377410888671875">
        <ele>874.5999755859375</ele>
        <time>2026-08-22T00:09:55.000Z</time>
        <extensions>
          <ns3:TrackPointExtension>
            <ns3:hr>111</ns3:hr>
            <ns3:cad>0</ns3:cad>
          </ns3:TrackPointExtension>
        </extensions>
      </trkpt>
      <trkpt lat="45.29235281981527805328369140625" lon="-71.10486452467739582061767578125">
        <ele>875</ele>
        <time>2026-08-22T00:09:56.000Z</time>
        <extensions>
          <ns3:TrackPointExtension>
            <ns3:hr>111</ns3:hr>
            <ns3:cad>0</ns3:cad>
          </ns3:TrackPointExtension>
        </extensions>
      </trkpt>
      <trkpt lat="45.29234779067337512969970703125" lon="-71.10486544668674468994140625">
        <ele>875.20001220703125</ele>
        <time>2026-08-22T00:09:57.000Z</time>
        <extensions>
          <ns3:TrackPointExtension>
            <ns3:hr>112</ns3:hr>
            <ns3:cad>0</ns3:cad>
          </ns3:TrackPointExtension>
        </extensions>
      </trkpt>
      <trkpt lat="45.292334295809268951416015625" lon="-71.10487357713282108306884765625">
        <ele>875.4000244140625</ele>
        <time>2026-08-22T00:09:58.000Z</time>
        <extensions>
          <ns3:TrackPointExtension>
            <ns3:hr>112</ns3:hr>
            <ns3:cad>0</ns3:cad>
          </ns3:TrackPointExtension>
        </extensions>
      </trkpt>
      <trkpt lat="45.292325578629970550537109375" lon="-71.1048760078847408294677734375">
        <ele>875.5999755859375</ele>
        <time>2026-08-22T00:09:59.000Z</time>
        <extensions>
          <ns3:TrackPointExtension>
            <ns3:hr>112</ns3:hr>
            <ns3:cad>0</ns3:cad>
          </ns3:TrackPointExtension>
        </extensions>
      </trkpt>
      <trkpt lat="45.2923200465738773345947265625" lon="-71.10487458296120166778564453125">
        <ele>875.79998779296875</ele>
        <time>2026-08-22T00:10:00.000Z</time>
        <extensions>
          <ns3:TrackPointExtension>
            <ns3:hr>113</ns3:hr>
            <ns3:cad>0</ns3:cad>
          </ns3:TrackPointExtension>
        </extensions>
      </trkpt>
      <trkpt lat="45.29231376014649868011474609375" lon="-71.104871146380901336669921875">
        <ele>876</ele>
        <time>2026-08-22T00:10:01.000Z</time>
        <extensions>
          <ns3:TrackPointExtension>
            <ns3:hr>114</ns3:hr>
            <ns3:cad>0</ns3:cad>
          </ns3:TrackPointExtension>
        </extensions>
      </trkpt>
      <trkpt lat="45.292307473719120025634765625" lon="-71.10486905090510845184326171875">
        <ele>876.20001220703125</ele>
        <time>2026-08-22T00:10:02.000Z</time>
        <extensions>
          <ns3:TrackPointExtension>
            <ns3:hr>115</ns3:hr>
            <ns3:cad>0</ns3:cad>
          </ns3:TrackPointExtension>
        </extensions>
      </trkpt>
      <trkpt lat="45.29230370186269283294677734375" lon="-71.10486620105803012847900390625">
        <ele>876.20001220703125</ele>
        <time>2026-08-22T00:10:03.000Z</time>
        <extensions>
          <ns3:TrackPointExtension>
            <ns3:hr>116</ns3:hr>
            <ns3:cad>0</ns3:cad>
          </ns3:TrackPointExtension>
        </extensions>
      </trkpt>
      <trkpt lat="45.29229850508272647857666015625" lon="-71.10486083664000034332275390625">
        <ele>876.4000244140625</ele>
        <time>2026-08-22T00:10:04.000Z</time>
        <extensions>
          <ns3:TrackPointExtension>
            <ns3:hr>117</ns3:hr>
            <ns3:cad>51</ns3:cad>
          </ns3:TrackPointExtension>
        </extensions>
      </trkpt>
      <trkpt lat="45.29229096136987209320068359375" lon="-71.104857064783573150634765625">
        <ele>876.5999755859375</ele>
        <time>2026-08-22T00:10:05.000Z</time>
        <extensions>
          <ns3:TrackPointExtension>
            <ns3:hr>118</ns3:hr>
            <ns3:cad>51</ns3:cad>
          </ns3:TrackPointExtension>
        </extensions>
      </trkpt>
      <trkpt lat="45.29227721504867076873779296875" lon="-71.1048518680036067962646484375">
        <ele>876.79998779296875</ele>
        <time>2026-08-22T00:10:06.000Z</time>
        <extensions>
          <ns3:TrackPointExtension>
            <ns3:hr>119</ns3:hr>
            <ns3:cad>51</ns3:cad>
          </ns3:TrackPointExtension>
        </extensions>
      </trkpt>
      <trkpt lat="45.2922655642032623291015625" lon="-71.10484994016587734222412109375">
        <ele>876.79998779296875</ele>
        <time>2026-08-22T00:10:07.000Z</time>
        <extensions>
          <ns3:TrackPointExtension>
            <ns3:hr>120</ns3:hr>
            <ns3:cad>51</ns3:cad>
          </ns3:TrackPointExtension>
        </extensions>
      </trkpt>
      <trkpt lat="45.29225978069007396697998046875" lon="-71.10484558157622814178466796875">
        <ele>877</ele>
        <time>2026-08-22T00:10:08.000Z</time>
        <extensions>
          <ns3:TrackPointExtension>
            <ns3:hr>122</ns3:hr>
            <ns3:cad>51</ns3:cad>
          </ns3:TrackPointExtension>
        </extensions>
      </trkpt>
      <trkpt lat="45.29225793667137622833251953125" lon="-71.10484055243432521820068359375">
        <ele>877.4000244140625</ele>
        <time>2026-08-22T00:10:09.000Z</time>
        <extensions>
          <ns3:TrackPointExtension>
            <ns3:hr>124</ns3:hr>
            <ns3:cad>51</ns3:cad>
          </ns3:TrackPointExtension>
        </extensions>
      </trkpt>
      <trkpt lat="45.292241089046001434326171875" lon="-71.10483787022531032562255859375">
        <ele>877.5999755859375</ele>
        <time>2026-08-22T00:10:10.000Z</time>
        <extensions>
          <ns3:TrackPointExtension>
            <ns3:hr>125</ns3:hr>
            <ns3:cad>51</ns3:cad>
          </ns3:TrackPointExtension>
        </extensions>
      </trkpt>
      <trkpt lat="45.29222994111478328704833984375" lon="-71.10483686439692974090576171875">
        <ele>878</ele>
        <time>2026-08-22T00:10:11.000Z</time>
        <extensions>
          <ns3:TrackPointExtension>
            <ns3:hr>126</ns3:hr>
            <ns3:cad>51</ns3:cad>
          </ns3:TrackPointExtension>
        </extensions>
      </trkpt>
      <trkpt lat="45.29221904464066028594970703125" lon="-71.10483594238758087158203125">
        <ele>878.20001220703125</ele>
        <time>2026-08-22T00:10:12.000Z</time>
        <extensions>
          <ns3:TrackPointExtension>
            <ns3:hr>126</ns3:hr>
            <ns3:cad>51</ns3:cad>
          </ns3:TrackPointExtension>
        </extensions>
      </trkpt>
      <trkpt lat="45.29220714233815670013427734375" lon="-71.1048377864062786102294921875">
        <ele>878.5999755859375</ele>
        <time>2026-08-22T00:10:13.000Z</time>
        <extensions>
          <ns3:TrackPointExtension>
            <ns3:hr>127</ns3:hr>
            <ns3:cad>51</ns3:cad>
          </ns3:TrackPointExtension>
        </extensions>
      </trkpt>
      <trkpt lat="45.292195491492748260498046875" lon="-71.1048404686152935028076171875">
        <ele>878.79998779296875</ele>
        <time>2026-08-22T00:10:14.000Z</time>
        <extensions>
          <ns3:TrackPointExtension>
            <ns3:hr>128</ns3:hr>
            <ns3:cad>0</ns3:cad>
          </ns3:TrackPointExtension>
        </extensions>
      </trkpt>
      <trkpt lat="45.29218803159892559051513671875" lon="-71.10484072007238864898681640625">
        <ele>878.79998779296875</ele>
        <time>2026-08-22T00:10:15.000Z</time>
        <extensions>
          <ns3:TrackPointExtension>
            <ns3:hr>128</ns3:hr>
            <ns3:cad>0</ns3:cad>
          </ns3:TrackPointExtension>
        </extensions>
      </trkpt>
      <trkpt lat="45.29217864386737346649169921875" lon="-71.10483862459659576416015625">
        <ele>879</ele>
        <time>2026-08-22T00:10:16.000Z</time>
        <extensions>
          <ns3:TrackPointExtension>
            <ns3:hr>129</ns3:hr>
            <ns3:cad>0</ns3:cad>
          </ns3:TrackPointExtension>
        </extensions>
      </trkpt>
      <trkpt lat="45.29216472990810871124267578125" lon="-71.1048392951488494873046875">
        <ele>879.20001220703125</ele>
        <time>2026-08-22T00:10:17.000Z</time>
        <extensions>
          <ns3:TrackPointExtension>
            <ns3:hr>130</ns3:hr>
            <ns3:cad>0</ns3:cad>
          </ns3:TrackPointExtension>
        </extensions>
      </trkpt>
      <trkpt lat="45.29215165413916110992431640625" lon="-71.10484306700527667999267578125">
        <ele>879.4000244140625</ele>
        <time>2026-08-22T00:10:18.000Z</time>
        <extensions>
          <ns3:TrackPointExtension>
            <ns3:hr>130</ns3:hr>
            <ns3:cad>45</ns3:cad>
          </ns3:TrackPointExtension>
        </extensions>
      </trkpt>
      <trkpt lat="45.29214151203632354736328125" lon="-71.1048431508243083953857421875">
        <ele>879.5999755859375</ele>
        <time>2026-08-22T00:10:19.000Z</time>
        <extensions>
          <ns3:TrackPointExtension>
            <ns3:hr>131</ns3:hr>
            <ns3:cad>45</ns3:cad>
          </ns3:TrackPointExtension>
        </extensions>
      </trkpt>
      <trkpt lat="45.29213623143732547760009765625" lon="-71.10484398901462554931640625">
        <ele>880</ele>
        <time>2026-08-22T00:10:20.000Z</time>
        <extensions>
          <ns3:TrackPointExtension>
            <ns3:hr>131</ns3:hr>
            <ns3:cad>45</ns3:cad>
          </ns3:TrackPointExtension>
        </extensions>
      </trkpt>
      <trkpt lat="45.29212852008640766143798828125" lon="-71.10484658740460872650146484375">
        <ele>880.20001220703125</ele>
        <time>2026-08-22T00:10:21.000Z</time>
        <extensions>
          <ns3:TrackPointExtension>
            <ns3:hr>131</ns3:hr>
            <ns3:cad>0</ns3:cad>
          </ns3:TrackPointExtension>
        </extensions>
      </trkpt>
      <trkpt lat="45.2921245805919170379638671875" lon="-71.104842983186244964599609375">
        <ele>880.4000244140625</ele>
        <time>2026-08-22T00:10:22.000Z</time>
        <extensions>
          <ns3:TrackPointExtension>
            <ns3:hr>132</ns3:hr>
            <ns3:cad>0</ns3:cad>
          </ns3:TrackPointExtension>
        </extensions>
      </trkpt>
      <trkpt lat="45.29212231747806072235107421875" lon="-71.1048404686152935028076171875">
        <ele>880.5999755859375</ele>
        <time>2026-08-22T00:10:23.000Z</time>
        <extensions>
          <ns3:TrackPointExtension>
            <ns3:hr>132</ns3:hr>
            <ns3:cad>0</ns3:cad>
          </ns3:TrackPointExtension>
        </extensions>
      </trkpt>
      <trkpt lat="45.29210940934717655181884765625" lon="-71.1048330925405025482177734375">
        <ele>880.79998779296875</ele>
        <time>2026-08-22T00:10:24.000Z</time>
        <extensions>
          <ns3:TrackPointExtension>
            <ns3:hr>132</ns3:hr>
            <ns3:cad>0</ns3:cad>
          </ns3:TrackPointExtension>
        </extensions>
      </trkpt>
      <trkpt lat="45.292103625833988189697265625" lon="-71.10482932068407535552978515625">
        <ele>881</ele>
        <time>2026-08-22T00:10:25.000Z</time>
        <extensions>
          <ns3:TrackPointExtension>
            <ns3:hr>132</ns3:hr>
            <ns3:cad>0</ns3:cad>
          </ns3:TrackPointExtension>
        </extensions>
      </trkpt>
      <trkpt lat="45.29209968633949756622314453125" lon="-71.10483351163566112518310546875">
        <ele>881</ele>
        <time>2026-08-22T00:10:26.000Z</time>
        <extensions>
          <ns3:TrackPointExtension>
            <ns3:hr>132</ns3:hr>
            <ns3:cad>0</ns3:cad>
          </ns3:TrackPointExtension>
        </extensions>
      </trkpt>
      <trkpt lat="45.2920940704643726348876953125" lon="-71.104831583797931671142578125">
        <ele>881.4000244140625</ele>
        <time>2026-08-22T00:10:27.000Z</time>
        <extensions>
          <ns3:TrackPointExtension>
            <ns3:hr>133</ns3:hr>
            <ns3:cad>0</ns3:cad>
          </ns3:TrackPointExtension>
        </extensions>
      </trkpt>
      <trkpt lat="45.29208342544734477996826171875" lon="-71.104827225208282470703125">
        <ele>881.5999755859375</ele>
        <time>2026-08-22T00:10:28.000Z</time>
        <extensions>
          <ns3:TrackPointExtension>
            <ns3:hr>131</ns3:hr>
            <ns3:cad>0</ns3:cad>
          </ns3:TrackPointExtension>
        </extensions>
      </trkpt>
      <trkpt lat="45.2920724451541900634765625" lon="-71.1048243753612041473388671875">
        <ele>881.79998779296875</ele>
        <time>2026-08-22T00:10:29.000Z</time>
        <extensions>
          <ns3:TrackPointExtension>
            <ns3:hr>131</ns3:hr>
            <ns3:cad>0</ns3:cad>
          </ns3:TrackPointExtension>
        </extensions>
      </trkpt>
      <trkpt lat="45.29206347651779651641845703125" lon="-71.1048213578760623931884765625">
        <ele>882</ele>
        <time>2026-08-22T00:10:30.000Z</time>
        <extensions>
          <ns3:TrackPointExtension>
            <ns3:hr>130</ns3:hr>
            <ns3:cad>0</ns3:cad>
          </ns3:TrackPointExtension>
        </extensions>
      </trkpt>
      <trkpt lat="45.292055346071720123291015625" lon="-71.1048203520476818084716796875">
        <ele>882.20001220703125</ele>
        <time>2026-08-22T00:10:31.000Z</time>
        <extensions>
          <ns3:TrackPointExtension>
            <ns3:hr>130</ns3:hr>
            <ns3:cad>0</ns3:cad>
          </ns3:TrackPointExtension>
        </extensions>
      </trkpt>
      <trkpt lat="45.2920410968363285064697265625" lon="-71.1048138141632080078125">
        <ele>882.4000244140625</ele>
        <time>2026-08-22T00:10:32.000Z</time>
        <extensions>
          <ns3:TrackPointExtension>
            <ns3:hr>130</ns3:hr>
            <ns3:cad>0</ns3:cad>
          </ns3:TrackPointExtension>
        </extensions>
      </trkpt>
      <trkpt lat="45.29203162528574466705322265625" lon="-71.1048092879354953765869140625">
        <ele>882.5999755859375</ele>
        <time>2026-08-22T00:10:33.000Z</time>
        <extensions>
          <ns3:TrackPointExtension>
            <ns3:hr>130</ns3:hr>
            <ns3:cad>0</ns3:cad>
          </ns3:TrackPointExtension>
        </extensions>
      </trkpt>
      <trkpt lat="45.29202441684901714324951171875" lon="-71.10480912029743194580078125">
        <ele>882.79998779296875</ele>
        <time>2026-08-22T00:10:34.000Z</time>
        <extensions>
          <ns3:TrackPointExtension>
            <ns3:hr>129</ns3:hr>
            <ns3:cad>0</ns3:cad>
          </ns3:TrackPointExtension>
        </extensions>
      </trkpt>
      <trkpt lat="45.29201888479292392730712890625" lon="-71.10481088049709796905517578125">
        <ele>883</ele>
        <time>2026-08-22T00:10:35.000Z</time>
        <extensions>
          <ns3:TrackPointExtension>
            <ns3:hr>129</ns3:hr>
            <ns3:cad>0</ns3:cad>
          </ns3:TrackPointExtension>
        </extensions>
      </trkpt>
      <trkpt lat="45.29201268218457698822021484375" lon="-71.1048086173832416534423828125">
        <ele>883.20001220703125</ele>
        <time>2026-08-22T00:10:36.000Z</time>
        <extensions>
          <ns3:TrackPointExtension>
            <ns3:hr>130</ns3:hr>
            <ns3:cad>0</ns3:cad>
          </ns3:TrackPointExtension>
        </extensions>
      </trkpt>
      <trkpt lat="45.2920092456042766571044921875" lon="-71.1048089526593685150146484375">
        <ele>883.4000244140625</ele>
        <time>2026-08-22T00:10:37.000Z</time>
        <extensions>
          <ns3:TrackPointExtension>
            <ns3:hr>130</ns3:hr>
            <ns3:cad>0</ns3:cad>
          </ns3:TrackPointExtension>
        </extensions>
      </trkpt>
      <trkpt lat="45.29199809767305850982666015625" lon="-71.10480920411646366119384765625">
        <ele>883.5999755859375</ele>
        <time>2026-08-22T00:10:38.000Z</time>
        <extensions>
          <ns3:TrackPointExtension>
            <ns3:hr>131</ns3:hr>
            <ns3:cad>0</ns3:cad>
          </ns3:TrackPointExtension>
        </extensions>
      </trkpt>
      <trkpt lat="45.2919881232082843780517578125" lon="-71.10480668954551219940185546875">
        <ele>883.79998779296875</ele>
        <time>2026-08-22T00:10:39.000Z</time>
        <extensions>
          <ns3:TrackPointExtension>
            <ns3:hr>131</ns3:hr>
            <ns3:cad>0</ns3:cad>
          </ns3:TrackPointExtension>
        </extensions>
      </trkpt>
      <trkpt lat="45.29197278432548046112060546875" lon="-71.10480383969843387603759765625">
        <ele>883.79998779296875</ele>
        <time>2026-08-22T00:10:40.000Z</time>
        <extensions>
          <ns3:TrackPointExtension>
            <ns3:hr>131</ns3:hr>
            <ns3:cad>0</ns3:cad>
          </ns3:TrackPointExtension>
        </extensions>
      </trkpt>
      <trkpt lat="45.29196272604167461395263671875" lon="-71.104804761707782745361328125">
        <ele>884</ele>
        <time>2026-08-22T00:10:41.000Z</time>
        <extensions>
          <ns3:TrackPointExtension>
            <ns3:hr>131</ns3:hr>
            <ns3:cad>0</ns3:cad>
          </ns3:TrackPointExtension>
        </extensions>
      </trkpt>
      <trkpt lat="45.291950404644012451171875" lon="-71.10480844974517822265625">
        <ele>884</ele>
        <time>2026-08-22T00:10:42.000Z</time>
        <extensions>
          <ns3:TrackPointExtension>
            <ns3:hr>131</ns3:hr>
            <ns3:cad>0</ns3:cad>
          </ns3:TrackPointExtension>
        </extensions>
      </trkpt>
      <trkpt lat="45.291944704949855804443359375" lon="-71.104809455573558807373046875">
        <ele>884</ele>
        <time>2026-08-22T00:10:43.000Z</time>
        <extensions>
          <ns3:TrackPointExtension>
            <ns3:hr>131</ns3:hr>
            <ns3:cad>0</ns3:cad>
          </ns3:TrackPointExtension>
        </extensions>
      </trkpt>
      <trkpt lat="45.29193623922765254974365234375" lon="-71.1048042587935924530029296875">
        <ele>884.20001220703125</ele>
        <time>2026-08-22T00:10:44.000Z</time>
        <extensions>
          <ns3:TrackPointExtension>
            <ns3:hr>131</ns3:hr>
            <ns3:cad>0</ns3:cad>
          </ns3:TrackPointExtension>
        </extensions>
      </trkpt>
      <trkpt lat="45.29192500747740268707275390625" lon="-71.1048019118607044219970703125">
        <ele>884.20001220703125</ele>
        <time>2026-08-22T00:10:45.000Z</time>
        <extensions>
          <ns3:TrackPointExtension>
            <ns3:hr>132</ns3:hr>
            <ns3:cad>0</ns3:cad>
          </ns3:TrackPointExtension>
        </extensions>
      </trkpt>
      <trkpt lat="45.29191645793616771697998046875" lon="-71.1047992296516895294189453125">
        <ele>884.4000244140625</ele>
        <time>2026-08-22T00:10:46.000Z</time>
        <extensions>
          <ns3:TrackPointExtension>
            <ns3:hr>132</ns3:hr>
            <ns3:cad>51</ns3:cad>
          </ns3:TrackPointExtension>
        </extensions>
      </trkpt>
      <trkpt lat="45.29191779904067516326904296875" lon="-71.104804091155529022216796875">
        <ele>884.5999755859375</ele>
        <time>2026-08-22T00:10:47.000Z</time>
        <extensions>
          <ns3:TrackPointExtension>
            <ns3:hr>132</ns3:hr>
            <ns3:cad>51</ns3:cad>
          </ns3:TrackPointExtension>
        </extensions>
      </trkpt>
      <trkpt lat="45.2919170446693897247314453125" lon="-71.10480082221329212188720703125">
        <ele>884.5999755859375</ele>
        <time>2026-08-22T00:10:48.000Z</time>
        <extensions>
          <ns3:TrackPointExtension>
            <ns3:hr>133</ns3:hr>
            <ns3:cad>51</ns3:cad>
          </ns3:TrackPointExtension>
        </extensions>
      </trkpt>
      <trkpt lat="45.291918218135833740234375" lon="-71.1047958768904209136962890625">
        <ele>884.79998779296875</ele>
        <time>2026-08-22T00:10:49.000Z</time>
        <extensions>
          <ns3:TrackPointExtension>
            <ns3:hr>133</ns3:hr>
            <ns3:cad>45</ns3:cad>
          </ns3:TrackPointExtension>
        </extensions>
      </trkpt>
      <trkpt lat="45.2919190563261508941650390625" lon="-71.104783304035663604736328125">
        <ele>885</ele>
        <time>2026-08-22T00:10:50.000Z</time>
        <extensions>
          <ns3:TrackPointExtension>
            <ns3:hr>134</ns3:hr>
            <ns3:cad>45</ns3:cad>
          </ns3:TrackPointExtension>
        </extensions>
      </trkpt>
      <trkpt lat="45.29190841130912303924560546875" lon="-71.10477366484701633453369140625">
        <ele>885.20001220703125</ele>
        <time>2026-08-22T00:10:51.000Z</time>
        <extensions>
          <ns3:TrackPointExtension>
            <ns3:hr>134</ns3:hr>
            <ns3:cad>0</ns3:cad>
          </ns3:TrackPointExtension>
        </extensions>
      </trkpt>
      <trkpt lat="45.29190673492848873138427734375" lon="-71.10476746223866939544677734375">
        <ele>885.4000244140625</ele>
        <time>2026-08-22T00:10:52.000Z</time>
        <extensions>
          <ns3:TrackPointExtension>
            <ns3:hr>135</ns3:hr>
            <ns3:cad>0</ns3:cad>
          </ns3:TrackPointExtension>
        </extensions>
      </trkpt>
      <trkpt lat="45.2919006161391735076904296875" lon="-71.10476327128708362579345703125">
        <ele>885.5999755859375</ele>
        <time>2026-08-22T00:10:53.000Z</time>
        <extensions>
          <ns3:TrackPointExtension>
            <ns3:hr>135</ns3:hr>
            <ns3:cad>0</ns3:cad>
          </ns3:TrackPointExtension>
        </extensions>
      </trkpt>
      <trkpt lat="45.29189785011112689971923828125" lon="-71.1047623492777347564697265625">
        <ele>885.79998779296875</ele>
        <time>2026-08-22T00:10:54.000Z</time>
        <extensions>
          <ns3:TrackPointExtension>
            <ns3:hr>136</ns3:hr>
            <ns3:cad>0</ns3:cad>
          </ns3:TrackPointExtension>
        </extensions>
      </trkpt>
      <trkpt lat="45.29190036468207836151123046875" lon="-71.10476595349609851837158203125">
        <ele>886.20001220703125</ele>
        <time>2026-08-22T00:10:55.000Z</time>
        <extensions>
          <ns3:TrackPointExtension>
            <ns3:hr>136</ns3:hr>
            <ns3:cad>0</ns3:cad>
          </ns3:TrackPointExtension>
        </extensions>
      </trkpt>
      <trkpt lat="45.29190011322498321533203125" lon="-71.10476008616387844085693359375">
        <ele>886.4000244140625</ele>
        <time>2026-08-22T00:10:56.000Z</time>
        <extensions>
          <ns3:TrackPointExtension>
            <ns3:hr>136</ns3:hr>
            <ns3:cad>0</ns3:cad>
          </ns3:TrackPointExtension>
        </extensions>
      </trkpt>
      <trkpt lat="45.29190002940595149993896484375" lon="-71.10475656576454639434814453125">
        <ele>886.5999755859375</ele>
        <time>2026-08-22T00:10:57.000Z</time>
        <extensions>
          <ns3:TrackPointExtension>
            <ns3:hr>136</ns3:hr>
            <ns3:cad>0</ns3:cad>
          </ns3:TrackPointExtension>
        </extensions>
      </trkpt>
      <trkpt lat="45.291904471814632415771484375" lon="-71.10475924797356128692626953125">
        <ele>887</ele>
        <time>2026-08-22T00:10:58.000Z</time>
        <extensions>
          <ns3:TrackPointExtension>
            <ns3:hr>136</ns3:hr>
            <ns3:cad>0</ns3:cad>
          </ns3:TrackPointExtension>
        </extensions>
      </trkpt>
      <trkpt lat="45.29190287925302982330322265625" lon="-71.10475254245102405548095703125">
        <ele>887</ele>
        <time>2026-08-22T00:10:59.000Z</time>
        <extensions>
          <ns3:TrackPointExtension>
            <ns3:hr>135</ns3:hr>
            <ns3:cad>0</ns3:cad>
          </ns3:TrackPointExtension>
        </extensions>
      </trkpt>
      <trkpt lat="45.2919036336243152618408203125" lon="-71.104747764766216278076171875">
        <ele>887.20001220703125</ele>
        <time>2026-08-22T00:11:00.000Z</time>
        <extensions>
          <ns3:TrackPointExtension>
            <ns3:hr>135</ns3:hr>
            <ns3:cad>0</ns3:cad>
          </ns3:TrackPointExtension>
        </extensions>
      </trkpt>
      <trkpt lat="45.29190472327172756195068359375" lon="-71.10472706146538257598876953125">
        <ele>887.4000244140625</ele>
        <time>2026-08-22T00:11:01.000Z</time>
        <extensions>
          <ns3:TrackPointExtension>
            <ns3:hr>135</ns3:hr>
            <ns3:cad>0</ns3:cad>
          </ns3:TrackPointExtension>
        </extensions>
      </trkpt>
      <trkpt lat="45.29190388508141040802001953125" lon="-71.10471683554351329803466796875">
        <ele>887.4000244140625</ele>
        <time>2026-08-22T00:11:02.000Z</time>
        <extensions>
          <ns3:TrackPointExtension>
            <ns3:hr>135</ns3:hr>
            <ns3:cad>0</ns3:cad>
          </ns3:TrackPointExtension>
        </extensions>
      </trkpt>
      <trkpt lat="45.29190220870077610015869140625" lon="-71.1046969704329967498779296875">
        <ele>887.5999755859375</ele>
        <time>2026-08-22T00:11:03.000Z</time>
        <extensions>
          <ns3:TrackPointExtension>
            <ns3:hr>136</ns3:hr>
            <ns3:cad>0</ns3:cad>
          </ns3:TrackPointExtension>
        </extensions>
      </trkpt>
      <trkpt lat="45.291897766292095184326171875" lon="-71.1046778596937656402587890625">
        <ele>887.79998779296875</ele>
        <time>2026-08-22T00:11:04.000Z</time>
        <extensions>
          <ns3:TrackPointExtension>
            <ns3:hr>136</ns3:hr>
            <ns3:cad>0</ns3:cad>
          </ns3:TrackPointExtension>
        </extensions>
      </trkpt>
      <trkpt lat="45.29189600609242916107177734375" lon="-71.10466218553483486175537109375">
        <ele>888</ele>
        <time>2026-08-22T00:11:05.000Z</time>
        <extensions>
          <ns3:TrackPointExtension>
            <ns3:hr>136</ns3:hr>
            <ns3:cad>0</ns3:cad>
          </ns3:TrackPointExtension>
        </extensions>
      </trkpt>
      <trkpt lat="45.2918915636837482452392578125" lon="-71.1046517081558704376220703125">
        <ele>888.20001220703125</ele>
        <time>2026-08-22T00:11:06.000Z</time>
        <extensions>
          <ns3:TrackPointExtension>
            <ns3:hr>135</ns3:hr>
            <ns3:cad>0</ns3:cad>
          </ns3:TrackPointExtension>
        </extensions>
      </trkpt>
      <trkpt lat="45.29188527725636959075927734375" lon="-71.10464139841496944427490234375">
        <ele>888.4000244140625</ele>
        <time>2026-08-22T00:11:07.000Z</time>
        <extensions>
          <ns3:TrackPointExtension>
            <ns3:hr>135</ns3:hr>
            <ns3:cad>0</ns3:cad>
          </ns3:TrackPointExtension>
        </extensions>
      </trkpt>
      <trkpt lat="45.29187421314418315887451171875" lon="-71.1046274006366729736328125">
        <ele>888.4000244140625</ele>
        <time>2026-08-22T00:11:08.000Z</time>
        <extensions>
          <ns3:TrackPointExtension>
            <ns3:hr>135</ns3:hr>
            <ns3:cad>0</ns3:cad>
          </ns3:TrackPointExtension>
        </extensions>
      </trkpt>
      <trkpt lat="45.29186524450778961181640625" lon="-71.1046178452670574188232421875">
        <ele>888.5999755859375</ele>
        <time>2026-08-22T00:11:09.000Z</time>
        <extensions>
          <ns3:TrackPointExtension>
            <ns3:hr>135</ns3:hr>
            <ns3:cad>0</ns3:cad>
          </ns3:TrackPointExtension>
        </extensions>
      </trkpt>
      <trkpt lat="45.291864909231662750244140625" lon="-71.10462262295186519622802734375">
        <ele>888.79998779296875</ele>
        <time>2026-08-22T00:11:10.000Z</time>
        <extensions>
          <ns3:TrackPointExtension>
            <ns3:hr>135</ns3:hr>
            <ns3:cad>0</ns3:cad>
          </ns3:TrackPointExtension>
        </extensions>
      </trkpt>
      <trkpt lat="45.29185510240495204925537109375" lon="-71.10461331903934478759765625">
        <ele>889</ele>
        <time>2026-08-22T00:11:11.000Z</time>
        <extensions>
          <ns3:TrackPointExtension>
            <ns3:hr>135</ns3:hr>
            <ns3:cad>0</ns3:cad>
          </ns3:TrackPointExtension>
        </extensions>
      </trkpt>
      <trkpt lat="45.29185040853917598724365234375" lon="-71.10460636205971240997314453125">
        <ele>889.20001220703125</ele>
        <time>2026-08-22T00:11:12.000Z</time>
        <extensions>
          <ns3:TrackPointExtension>
            <ns3:hr>136</ns3:hr>
            <ns3:cad>0</ns3:cad>
          </ns3:TrackPointExtension>
        </extensions>
      </trkpt>
      <trkpt lat="45.29184554703533649444580078125" lon="-71.10459915362298488616943359375">
        <ele>889.4000244140625</ele>
        <time>2026-08-22T00:11:13.000Z</time>
        <extensions>
          <ns3:TrackPointExtension>
            <ns3:hr>136</ns3:hr>
            <ns3:cad>0</ns3:cad>
          </ns3:TrackPointExtension>
        </extensions>
      </trkpt>
      <trkpt lat="45.2918364107608795166015625" lon="-71.104583479464054107666015625">
        <ele>889.5999755859375</ele>
        <time>2026-08-22T00:11:14.000Z</time>
        <extensions>
          <ns3:TrackPointExtension>
            <ns3:hr>135</ns3:hr>
            <ns3:cad>0</ns3:cad>
          </ns3:TrackPointExtension>
        </extensions>
      </trkpt>
      <trkpt lat="45.2918231673538684844970703125" lon="-71.10456914640963077545166015625">
        <ele>889.79998779296875</ele>
        <time>2026-08-22T00:11:15.000Z</time>
        <extensions>
          <ns3:TrackPointExtension>
            <ns3:hr>135</ns3:hr>
            <ns3:cad>0</ns3:cad>
          </ns3:TrackPointExtension>
        </extensions>
      </trkpt>
      <trkpt lat="45.29180833138525485992431640625" lon="-71.10456378199160099029541015625">
        <ele>890</ele>
        <time>2026-08-22T00:11:16.000Z</time>
        <extensions>
          <ns3:TrackPointExtension>
            <ns3:hr>135</ns3:hr>
            <ns3:cad>0</ns3:cad>
          </ns3:TrackPointExtension>
        </extensions>
      </trkpt>
      <trkpt lat="45.29179341159760951995849609375" lon="-71.10456772148609161376953125">
        <ele>890</ele>
        <time>2026-08-22T00:11:17.000Z</time>
        <extensions>
          <ns3:TrackPointExtension>
            <ns3:hr>135</ns3:hr>
            <ns3:cad>0</ns3:cad>
          </ns3:TrackPointExtension>
        </extensions>
      </trkpt>
      <trkpt lat="45.2917762286961078643798828125" lon="-71.1045806296169757843017578125">
        <ele>890.20001220703125</ele>
        <time>2026-08-22T00:11:18.000Z</time>
        <extensions>
          <ns3:TrackPointExtension>
            <ns3:hr>135</ns3:hr>
            <ns3:cad>0</ns3:cad>
          </ns3:TrackPointExtension>
        </extensions>
      </trkpt>
      <trkpt lat="45.2917641587555408477783203125" lon="-71.10459177754819393157958984375">
        <ele>890.20001220703125</ele>
        <time>2026-08-22T00:11:19.000Z</time>
        <extensions>
          <ns3:TrackPointExtension>
            <ns3:hr>135</ns3:hr>
            <ns3:cad>0</ns3:cad>
          </ns3:TrackPointExtension>
        </extensions>
      </trkpt>
      <trkpt lat="45.291755609214305877685546875" lon="-71.104596555233001708984375">
        <ele>890.20001220703125</ele>
        <time>2026-08-22T00:11:20.000Z</time>
        <extensions>
          <ns3:TrackPointExtension>
            <ns3:hr>135</ns3:hr>
            <ns3:cad>0</ns3:cad>
          </ns3:TrackPointExtension>
        </extensions>
      </trkpt>
      <trkpt lat="45.2917494066059589385986328125" lon="-71.10459043644368648529052734375">
        <ele>890.20001220703125</ele>
        <time>2026-08-22T00:11:21.000Z</time>
        <extensions>
          <ns3:TrackPointExtension>
            <ns3:hr>135</ns3:hr>
            <ns3:cad>0</ns3:cad>
          </ns3:TrackPointExtension>
        </extensions>
      </trkpt>
      <trkpt lat="45.29173390008509159088134765625" lon="-71.1045863293111324310302734375">
        <ele>890.20001220703125</ele>
        <time>2026-08-22T00:11:22.000Z</time>
        <extensions>
          <ns3:TrackPointExtension>
            <ns3:hr>135</ns3:hr>
            <ns3:cad>0</ns3:cad>
          </ns3:TrackPointExtension>
        </extensions>
      </trkpt>
      <trkpt lat="45.29172233305871486663818359375" lon="-71.10458473674952983856201171875">
        <ele>890.20001220703125</ele>
        <time>2026-08-22T00:11:23.000Z</time>
        <extensions>
          <ns3:TrackPointExtension>
            <ns3:hr>136</ns3:hr>
            <ns3:cad>0</ns3:cad>
          </ns3:TrackPointExtension>
        </extensions>
      </trkpt>
      <trkpt lat="45.29170825146138668060302734375" lon="-71.10458037815988063812255859375">
        <ele>890</ele>
        <time>2026-08-22T00:11:24.000Z</time>
        <extensions>
          <ns3:TrackPointExtension>
            <ns3:hr>136</ns3:hr>
            <ns3:cad>0</ns3:cad>
          </ns3:TrackPointExtension>
        </extensions>
      </trkpt>
      <trkpt lat="45.29169819317758083343505859375" lon="-71.10457350499927997589111328125">
        <ele>890</ele>
        <time>2026-08-22T00:11:25.000Z</time>
        <extensions>
          <ns3:TrackPointExtension>
            <ns3:hr>135</ns3:hr>
            <ns3:cad>0</ns3:cad>
          </ns3:TrackPointExtension>
        </extensions>
      </trkpt>
      <trkpt lat="45.2916863746941089630126953125" lon="-71.104561351239681243896484375">
        <ele>890</ele>
        <time>2026-08-22T00:11:26.000Z</time>
        <extensions>
          <ns3:TrackPointExtension>
            <ns3:hr>135</ns3:hr>
            <ns3:cad>0</ns3:cad>
          </ns3:TrackPointExtension>
        </extensions>
      </trkpt>
      <trkpt lat="45.29167271219193935394287109375" lon="-71.10454768873751163482666015625">
        <ele>890</ele>
        <time>2026-08-22T00:11:27.000Z</time>
        <extensions>
          <ns3:TrackPointExtension>
            <ns3:hr>134</ns3:hr>
            <ns3:cad>0</ns3:cad>
          </ns3:TrackPointExtension>
        </extensions>
      </trkpt>
      <trkpt lat="45.291653685271739959716796875" lon="-71.10453419387340545654296875">
        <ele>890</ele>
        <time>2026-08-22T00:11:28.000Z</time>
        <extensions>
          <ns3:TrackPointExtension>
            <ns3:hr>134</ns3:hr>
            <ns3:cad>0</ns3:cad>
          </ns3:TrackPointExtension>
        </extensions>
      </trkpt>
      <trkpt lat="45.2916325628757476806640625" lon="-71.10452480614185333251953125">
        <ele>890</ele>
        <time>2026-08-22T00:11:29.000Z</time>
        <extensions>
          <ns3:TrackPointExtension>
            <ns3:hr>134</ns3:hr>
            <ns3:cad>69</ns3:cad>
          </ns3:TrackPointExtension>
        </extensions>
      </trkpt>
      <trkpt lat="45.2916136197745800018310546875" lon="-71.10451969318091869354248046875">
        <ele>890</ele>
        <time>2026-08-22T00:11:30.000Z</time>
        <extensions>
          <ns3:TrackPointExtension>
            <ns3:hr>133</ns3:hr>
            <ns3:cad>69</ns3:cad>
          </ns3:TrackPointExtension>
        </extensions>
      </trkpt>
      <trkpt lat="45.29159702360630035400390625" lon="-71.1045065335929393768310546875">
        <ele>890</ele>
        <time>2026-08-22T00:11:31.000Z</time>
        <extensions>
          <ns3:TrackPointExtension>
            <ns3:hr>134</ns3:hr>
            <ns3:cad>69</ns3:cad>
          </ns3:TrackPointExtension>
        </extensions>
      </trkpt>
      <trkpt lat="45.2915847860276699066162109375" lon="-71.104495637118816375732421875">
        <ele>890</ele>
        <time>2026-08-22T00:11:32.000Z</time>
        <extensions>
          <ns3:TrackPointExtension>
            <ns3:hr>134</ns3:hr>
            <ns3:cad>69</ns3:cad>
          </ns3:TrackPointExtension>
        </extensions>
      </trkpt>
      <trkpt lat="45.2915686927735805511474609375" lon="-71.10447828657925128936767578125">
        <ele>889.79998779296875</ele>
        <time>2026-08-22T00:11:33.000Z</time>
        <extensions>
          <ns3:TrackPointExtension>
            <ns3:hr>135</ns3:hr>
            <ns3:cad>69</ns3:cad>
          </ns3:TrackPointExtension>
        </extensions>
      </trkpt>
      <trkpt lat="45.29155586846172809600830078125" lon="-71.10446403734385967254638671875">
        <ele>889.79998779296875</ele>
        <time>2026-08-22T00:11:34.000Z</time>
        <extensions>
          <ns3:TrackPointExtension>
            <ns3:hr>135</ns3:hr>
            <ns3:cad>68</ns3:cad>
          </ns3:TrackPointExtension>
        </extensions>
      </trkpt>
      <trkpt lat="45.29153709299862384796142578125" lon="-71.10445213504135608673095703125">
        <ele>889.79998779296875</ele>
        <time>2026-08-22T00:11:35.000Z</time>
        <extensions>
          <ns3:TrackPointExtension>
            <ns3:hr>136</ns3:hr>
            <ns3:cad>68</ns3:cad>
          </ns3:TrackPointExtension>
        </extensions>
      </trkpt>
      <trkpt lat="45.2915210835635662078857421875" lon="-71.1044465191662311553955078125">
        <ele>889.5999755859375</ele>
        <time>2026-08-22T00:11:36.000Z</time>
        <extensions>
          <ns3:TrackPointExtension>
            <ns3:hr>136</ns3:hr>
            <ns3:cad>68</ns3:cad>
          </ns3:TrackPointExtension>
        </extensions>
      </trkpt>
      <trkpt lat="45.29150054790079593658447265625" lon="-71.10445330850780010223388671875">
        <ele>889.5999755859375</ele>
        <time>2026-08-22T00:11:37.000Z</time>
        <extensions>
          <ns3:TrackPointExtension>
            <ns3:hr>137</ns3:hr>
            <ns3:cad>68</ns3:cad>
          </ns3:TrackPointExtension>
        </extensions>
      </trkpt>
      <trkpt lat="45.2914828620851039886474609375" lon="-71.104464121162891387939453125">
        <ele>889.5999755859375</ele>
        <time>2026-08-22T00:11:38.000Z</time>
        <extensions>
          <ns3:TrackPointExtension>
            <ns3:hr>137</ns3:hr>
            <ns3:cad>68</ns3:cad>
          </ns3:TrackPointExtension>
        </extensions>
      </trkpt>
      <trkpt lat="45.29146903194487094879150390625" lon="-71.104474179446697235107421875">
        <ele>889.5999755859375</ele>
        <time>2026-08-22T00:11:39.000Z</time>
        <extensions>
          <ns3:TrackPointExtension>
            <ns3:hr>138</ns3:hr>
            <ns3:cad>68</ns3:cad>
          </ns3:TrackPointExtension>
        </extensions>
      </trkpt>
      <trkpt lat="45.29145084321498870849609375" lon="-71.10448515973985195159912109375">
        <ele>889.4000244140625</ele>
        <time>2026-08-22T00:11:40.000Z</time>
        <extensions>
          <ns3:TrackPointExtension>
            <ns3:hr>138</ns3:hr>
            <ns3:cad>68</ns3:cad>
          </ns3:TrackPointExtension>
        </extensions>
      </trkpt>
      <trkpt lat="45.29143785126507282257080078125" lon="-71.10449035651981830596923828125">
        <ele>889.20001220703125</ele>
        <time>2026-08-22T00:11:41.000Z</time>
        <extensions>
          <ns3:TrackPointExtension>
            <ns3:hr>138</ns3:hr>
            <ns3:cad>0</ns3:cad>
          </ns3:TrackPointExtension>
        </extensions>
      </trkpt>
      <trkpt lat="45.29142444021999835968017578125" lon="-71.104495637118816375732421875">
        <ele>889</ele>
        <time>2026-08-22T00:11:42.000Z</time>
        <extensions>
          <ns3:TrackPointExtension>
            <ns3:hr>138</ns3:hr>
            <ns3:cad>0</ns3:cad>
          </ns3:TrackPointExtension>
        </extensions>
      </trkpt>
      <trkpt lat="45.29141203500330448150634765625" lon="-71.104497648775577545166015625">
        <ele>888.79998779296875</ele>
        <time>2026-08-22T00:11:43.000Z</time>
        <extensions>
          <ns3:TrackPointExtension>
            <ns3:hr>139</ns3:hr>
            <ns3:cad>0</ns3:cad>
          </ns3:TrackPointExtension>
        </extensions>
      </trkpt>
      <trkpt lat="45.291398875415325164794921875" lon="-71.10449220053851604461669921875">
        <ele>888.79998779296875</ele>
        <time>2026-08-22T00:11:44.000Z</time>
        <extensions>
          <ns3:TrackPointExtension>
            <ns3:hr>139</ns3:hr>
            <ns3:cad>0</ns3:cad>
          </ns3:TrackPointExtension>
        </extensions>
      </trkpt>
      <trkpt lat="45.2913772501051425933837890625" lon="-71.104481555521488189697265625">
        <ele>888.5999755859375</ele>
        <time>2026-08-22T00:11:45.000Z</time>
        <extensions>
          <ns3:TrackPointExtension>
            <ns3:hr>139</ns3:hr>
            <ns3:cad>0</ns3:cad>
          </ns3:TrackPointExtension>
        </extensions>
      </trkpt>
      <trkpt lat="45.2913621626794338226318359375" lon="-71.1044745147228240966796875">
        <ele>888.5999755859375</ele>
        <time>2026-08-22T00:11:46.000Z</time>
        <extensions>
          <ns3:TrackPointExtension>
            <ns3:hr>139</ns3:hr>
            <ns3:cad>0</ns3:cad>
          </ns3:TrackPointExtension>
        </extensions>
      </trkpt>
      <trkpt lat="45.2913477458059787750244140625" lon="-71.10447694547474384307861328125">
        <ele>888.5999755859375</ele>
        <time>2026-08-22T00:11:47.000Z</time>
        <extensions>
          <ns3:TrackPointExtension>
            <ns3:hr>139</ns3:hr>
            <ns3:cad>0</ns3:cad>
          </ns3:TrackPointExtension>
        </extensions>
      </trkpt>
      <trkpt lat="45.291333496570587158203125" lon="-71.1044776998460292816162109375">
        <ele>888.79998779296875</ele>
        <time>2026-08-22T00:11:48.000Z</time>
        <extensions>
          <ns3:TrackPointExtension>
            <ns3:hr>139</ns3:hr>
            <ns3:cad>0</ns3:cad>
          </ns3:TrackPointExtension>
        </extensions>
      </trkpt>
      <trkpt lat="45.291322432458400726318359375" lon="-71.10447585582733154296875">
        <ele>889</ele>
        <time>2026-08-22T00:11:49.000Z</time>
        <extensions>
          <ns3:TrackPointExtension>
            <ns3:hr>139</ns3:hr>
            <ns3:cad>58</ns3:cad>
          </ns3:TrackPointExtension>
        </extensions>
      </trkpt>
      <trkpt lat="45.2913105301558971405029296875" lon="-71.104469485580921173095703125">
        <ele>889</ele>
        <time>2026-08-22T00:11:50.000Z</time>
        <extensions>
          <ns3:TrackPointExtension>
            <ns3:hr>140</ns3:hr>
            <ns3:cad>58</ns3:cad>
          </ns3:TrackPointExtension>
        </extensions>
      </trkpt>
      <trkpt lat="45.29129661619663238525390625" lon="-71.1044736765325069427490234375">
        <ele>889</ele>
        <time>2026-08-22T00:11:51.000Z</time>
        <extensions>
          <ns3:TrackPointExtension>
            <ns3:hr>140</ns3:hr>
            <ns3:cad>58</ns3:cad>
          </ns3:TrackPointExtension>
        </extensions>
      </trkpt>
      <trkpt lat="45.29128446243703365325927734375" lon="-71.10448348335921764373779296875">
        <ele>888.79998779296875</ele>
        <time>2026-08-22T00:11:52.000Z</time>
        <extensions>
          <ns3:TrackPointExtension>
            <ns3:hr>140</ns3:hr>
            <ns3:cad>58</ns3:cad>
          </ns3:TrackPointExtension>
        </extensions>
      </trkpt>
      <trkpt lat="45.29127121903002262115478515625" lon="-71.10449253581464290618896484375">
        <ele>888.79998779296875</ele>
        <time>2026-08-22T00:11:53.000Z</time>
        <extensions>
          <ns3:TrackPointExtension>
            <ns3:hr>140</ns3:hr>
            <ns3:cad>58</ns3:cad>
          </ns3:TrackPointExtension>
        </extensions>
      </trkpt>
      <trkpt lat="45.29125772416591644287109375" lon="-71.10450762324035167694091796875">
        <ele>888.5999755859375</ele>
        <time>2026-08-22T00:11:54.000Z</time>
        <extensions>
          <ns3:TrackPointExtension>
            <ns3:hr>141</ns3:hr>
            <ns3:cad>58</ns3:cad>
          </ns3:TrackPointExtension>
        </extensions>
      </trkpt>
      <trkpt lat="45.29125110246241092681884765625" lon="-71.1045196093618869781494140625">
        <ele>888.4000244140625</ele>
        <time>2026-08-22T00:11:55.000Z</time>
        <extensions>
          <ns3:TrackPointExtension>
            <ns3:hr>141</ns3:hr>
            <ns3:cad>58</ns3:cad>
          </ns3:TrackPointExtension>
        </extensions>
      </trkpt>
      <trkpt lat="45.2912401221692562103271484375" lon="-71.104537881910800933837890625">
        <ele>888.20001220703125</ele>
        <time>2026-08-22T00:11:56.000Z</time>
        <extensions>
          <ns3:TrackPointExtension>
            <ns3:hr>142</ns3:hr>
            <ns3:cad>58</ns3:cad>
          </ns3:TrackPointExtension>
        </extensions>
      </trkpt>
      <trkpt lat="45.29123014770448207855224609375" lon="-71.10455573536455631256103515625">
        <ele>888.20001220703125</ele>
        <time>2026-08-22T00:11:57.000Z</time>
        <extensions>
          <ns3:TrackPointExtension>
            <ns3:hr>142</ns3:hr>
            <ns3:cad>58</ns3:cad>
          </ns3:TrackPointExtension>
        </extensions>
      </trkpt>
      <trkpt lat="45.29121891595423221588134765625" lon="-71.10457048751413822174072265625">
        <ele>888</ele>
        <time>2026-08-22T00:11:58.000Z</time>
        <extensions>
          <ns3:TrackPointExtension>
            <ns3:hr>142</ns3:hr>
            <ns3:cad>0</ns3:cad>
          </ns3:TrackPointExtension>
        </extensions>
      </trkpt>
      <trkpt lat="45.2912082709372043609619140625" lon="-71.10458356328308582305908203125">
        <ele>888</ele>
        <time>2026-08-22T00:11:59.000Z</time>
        <extensions>
          <ns3:TrackPointExtension>
            <ns3:hr>141</ns3:hr>
            <ns3:cad>0</ns3:cad>
          </ns3:TrackPointExtension>
        </extensions>
      </trkpt>
      <trkpt lat="45.291203074157238006591796875" lon="-71.10460535623133182525634765625">
        <ele>887.79998779296875</ele>
        <time>2026-08-22T00:12:00.000Z</time>
        <extensions>
          <ns3:TrackPointExtension>
            <ns3:hr>141</ns3:hr>
            <ns3:cad>0</ns3:cad>
          </ns3:TrackPointExtension>
        </extensions>
      </trkpt>
      <trkpt lat="45.291203074157238006591796875" lon="-71.10462673008441925048828125">
        <ele>887.79998779296875</ele>
        <time>2026-08-22T00:12:01.000Z</time>
        <extensions>
          <ns3:TrackPointExtension>
            <ns3:hr>140</ns3:hr>
            <ns3:cad>0</ns3:cad>
          </ns3:TrackPointExtension>
        </extensions>
      </trkpt>
      <trkpt lat="45.291197709739208221435546875" lon="-71.10465615056455135345458984375">
        <ele>887.5999755859375</ele>
        <time>2026-08-22T00:12:02.000Z</time>
        <extensions>
          <ns3:TrackPointExtension>
            <ns3:hr>137</ns3:hr>
            <ns3:cad>0</ns3:cad>
          </ns3:TrackPointExtension>
        </extensions>
      </trkpt>
      <trkpt lat="45.29119645245373249053955078125" lon="-71.10468976199626922607421875">
        <ele>887.4000244140625</ele>
        <time>2026-08-22T00:12:03.000Z</time>
        <extensions>
          <ns3:TrackPointExtension>
            <ns3:hr>133</ns3:hr>
            <ns3:cad>0</ns3:cad>
          </ns3:TrackPointExtension>
        </extensions>
      </trkpt>
      <trkpt lat="45.29119645245373249053955078125" lon="-71.1047212779521942138671875">
        <ele>887.20001220703125</ele>
        <time>2026-08-22T00:12:04.000Z</time>
        <extensions>
          <ns3:TrackPointExtension>
            <ns3:hr>130</ns3:hr>
            <ns3:cad>0</ns3:cad>
          </ns3:TrackPointExtension>
        </extensions>
      </trkpt>
      <trkpt lat="45.29119343496859073638916015625" lon="-71.10474181361496448516845703125">
        <ele>887</ele>
        <time>2026-08-22T00:12:05.000Z</time>
        <extensions>
          <ns3:TrackPointExtension>
            <ns3:hr>128</ns3:hr>
            <ns3:cad>62</ns3:cad>
          </ns3:TrackPointExtension>
        </extensions>
      </trkpt>
      <trkpt lat="45.29119427315890789031982421875" lon="-71.10476997680962085723876953125">
        <ele>886.79998779296875</ele>
        <time>2026-08-22T00:12:06.000Z</time>
        <extensions>
          <ns3:TrackPointExtension>
            <ns3:hr>127</ns3:hr>
            <ns3:cad>62</ns3:cad>
          </ns3:TrackPointExtension>
        </extensions>
      </trkpt>
      <trkpt lat="45.2911955304443836212158203125" lon="-71.10479009337723255157470703125">
        <ele>886.79998779296875</ele>
        <time>2026-08-22T00:12:07.000Z</time>
        <extensions>
          <ns3:TrackPointExtension>
            <ns3:hr>126</ns3:hr>
            <ns3:cad>62</ns3:cad>
          </ns3:TrackPointExtension>
        </extensions>
      </trkpt>
      <trkpt lat="45.29120265506207942962646484375" lon="-71.104816161096096038818359375">
        <ele>886.79998779296875</ele>
        <time>2026-08-22T00:12:08.000Z</time>
        <extensions>
          <ns3:TrackPointExtension>
            <ns3:hr>126</ns3:hr>
            <ns3:cad>62</ns3:cad>
          </ns3:TrackPointExtension>
        </extensions>
      </trkpt>
      <trkpt lat="45.29120567254722118377685546875" lon="-71.1048347689211368560791015625">
        <ele>886.79998779296875</ele>
        <time>2026-08-22T00:12:09.000Z</time>
        <extensions>
          <ns3:TrackPointExtension>
            <ns3:hr>126</ns3:hr>
            <ns3:cad>62</ns3:cad>
          </ns3:TrackPointExtension>
        </extensions>
      </trkpt>
      <trkpt lat="45.29120500199496746063232421875" lon="-71.104849018156528472900390625">
        <ele>886.79998779296875</ele>
        <time>2026-08-22T00:12:10.000Z</time>
        <extensions>
          <ns3:TrackPointExtension>
            <ns3:hr>125</ns3:hr>
            <ns3:cad>68</ns3:cad>
          </ns3:TrackPointExtension>
        </extensions>
      </trkpt>
      <trkpt lat="45.291207097470760345458984375" lon="-71.10487776808440685272216796875">
        <ele>886.79998779296875</ele>
        <time>2026-08-22T00:12:11.000Z</time>
        <extensions>
          <ns3:TrackPointExtension>
            <ns3:hr>125</ns3:hr>
            <ns3:cad>68</ns3:cad>
          </ns3:TrackPointExtension>
        </extensions>
      </trkpt>
      <trkpt lat="45.29120902530848979949951171875" lon="-71.1048991419374942779541015625">
        <ele>886.79998779296875</ele>
        <time>2026-08-22T00:12:12.000Z</time>
        <extensions>
          <ns3:TrackPointExtension>
            <ns3:hr>124</ns3:hr>
            <ns3:cad>68</ns3:cad>
          </ns3:TrackPointExtension>
        </extensions>
      </trkpt>
      <trkpt lat="45.2912159822881221771240234375" lon="-71.10492034815251827239990234375">
        <ele>886.5999755859375</ele>
        <time>2026-08-22T00:12:13.000Z</time>
        <extensions>
          <ns3:TrackPointExtension>
            <ns3:hr>124</ns3:hr>
            <ns3:cad>68</ns3:cad>
          </ns3:TrackPointExtension>
        </extensions>
      </trkpt>
      <trkpt lat="45.2912230230867862701416015625" lon="-71.10494381748139858245849609375">
        <ele>886.5999755859375</ele>
        <time>2026-08-22T00:12:14.000Z</time>
        <extensions>
          <ns3:TrackPointExtension>
            <ns3:hr>124</ns3:hr>
            <ns3:cad>68</ns3:cad>
          </ns3:TrackPointExtension>
        </extensions>
      </trkpt>
      <trkpt lat="45.29122511856257915496826171875" lon="-71.1049599945545196533203125">
        <ele>886.4000244140625</ele>
        <time>2026-08-22T00:12:15.000Z</time>
        <extensions>
          <ns3:TrackPointExtension>
            <ns3:hr>124</ns3:hr>
            <ns3:cad>0</ns3:cad>
          </ns3:TrackPointExtension>
        </extensions>
      </trkpt>
      <trkpt lat="45.291232578456401824951171875" lon="-71.104981116950511932373046875">
        <ele>886.20001220703125</ele>
        <time>2026-08-22T00:12:16.000Z</time>
        <extensions>
          <ns3:TrackPointExtension>
            <ns3:hr>124</ns3:hr>
            <ns3:cad>0</ns3:cad>
          </ns3:TrackPointExtension>
        </extensions>
      </trkpt>
      <trkpt lat="45.2912357635796070098876953125" lon="-71.104993522167205810546875">
        <ele>886</ele>
        <time>2026-08-22T00:12:17.000Z</time>
        <extensions>
          <ns3:TrackPointExtension>
            <ns3:hr>123</ns3:hr>
            <ns3:cad>0</ns3:cad>
          </ns3:TrackPointExtension>
        </extensions>
      </trkpt>
      <trkpt lat="45.29124028980731964111328125" lon="-71.10501238144934177398681640625">
        <ele>886</ele>
        <time>2026-08-22T00:12:18.000Z</time>
        <extensions>
          <ns3:TrackPointExtension>
            <ns3:hr>123</ns3:hr>
            <ns3:cad>0</ns3:cad>
          </ns3:TrackPointExtension>
        </extensions>
      </trkpt>
      <trkpt lat="45.2912431396543979644775390625" lon="-71.10502361319959163665771484375">
        <ele>885.79998779296875</ele>
        <time>2026-08-22T00:12:19.000Z</time>
        <extensions>
          <ns3:TrackPointExtension>
            <ns3:hr>122</ns3:hr>
            <ns3:cad>0</ns3:cad>
          </ns3:TrackPointExtension>
        </extensions>
      </trkpt>
      <trkpt lat="45.29124154709279537200927734375" lon="-71.105037443339824676513671875">
        <ele>885.5999755859375</ele>
        <time>2026-08-22T00:12:20.000Z</time>
        <extensions>
          <ns3:TrackPointExtension>
            <ns3:hr>122</ns3:hr>
            <ns3:cad>61</ns3:cad>
          </ns3:TrackPointExtension>
        </extensions>
      </trkpt>
      <trkpt lat="45.291242301464080810546875" lon="-71.10504741780459880828857421875">
        <ele>885.4000244140625</ele>
        <time>2026-08-22T00:12:21.000Z</time>
        <extensions>
          <ns3:TrackPointExtension>
            <ns3:hr>122</ns3:hr>
            <ns3:cad>61</ns3:cad>
          </ns3:TrackPointExtension>
        </extensions>
      </trkpt>
      <trkpt lat="45.29124205000698566436767578125" lon="-71.10505546443164348602294921875">
        <ele>885.20001220703125</ele>
        <time>2026-08-22T00:12:22.000Z</time>
        <extensions>
          <ns3:TrackPointExtension>
            <ns3:hr>121</ns3:hr>
            <ns3:cad>61</ns3:cad>
          </ns3:TrackPointExtension>
        </extensions>
      </trkpt>
      <trkpt lat="45.2912414632737636566162109375" lon="-71.1050590686500072479248046875">
        <ele>885</ele>
        <time>2026-08-22T00:12:23.000Z</time>
        <extensions>
          <ns3:TrackPointExtension>
            <ns3:hr>121</ns3:hr>
            <ns3:cad>61</ns3:cad>
          </ns3:TrackPointExtension>
        </extensions>
      </trkpt>
      <trkpt lat="45.2912431396543979644775390625" lon="-71.10507491044700145721435546875">
        <ele>884.79998779296875</ele>
        <time>2026-08-22T00:12:24.000Z</time>
        <extensions>
          <ns3:TrackPointExtension>
            <ns3:hr>121</ns3:hr>
            <ns3:cad>0</ns3:cad>
          </ns3:TrackPointExtension>
        </extensions>
      </trkpt>
      <trkpt lat="45.2912411279976367950439453125" lon="-71.10508312471210956573486328125">
        <ele>884.5999755859375</ele>
        <time>2026-08-22T00:12:25.000Z</time>
        <extensions>
          <ns3:TrackPointExtension>
            <ns3:hr>121</ns3:hr>
            <ns3:cad>0</ns3:cad>
          </ns3:TrackPointExtension>
        </extensions>
      </trkpt>
      <trkpt lat="45.29124171473085880279541015625" lon="-71.1050942726433277130126953125">
        <ele>884.4000244140625</ele>
        <time>2026-08-22T00:12:26.000Z</time>
        <extensions>
          <ns3:TrackPointExtension>
            <ns3:hr>121</ns3:hr>
            <ns3:cad>0</ns3:cad>
          </ns3:TrackPointExtension>
        </extensions>
      </trkpt>
      <trkpt lat="45.29124104417860507965087890625" lon="-71.1051070131361484527587890625">
        <ele>884</ele>
        <time>2026-08-22T00:12:27.000Z</time>
        <extensions>
          <ns3:TrackPointExtension>
            <ns3:hr>120</ns3:hr>
            <ns3:cad>0</ns3:cad>
          </ns3:TrackPointExtension>
        </extensions>
      </trkpt>
      <trkpt lat="45.29123769141733646392822265625" lon="-71.10512117855250835418701171875">
        <ele>883.5999755859375</ele>
        <time>2026-08-22T00:12:28.000Z</time>
        <extensions>
          <ns3:TrackPointExtension>
            <ns3:hr>120</ns3:hr>
            <ns3:cad>0</ns3:cad>
          </ns3:TrackPointExtension>
        </extensions>
      </trkpt>
      <trkpt lat="45.291241966187953948974609375" lon="-71.10513861291110515594482421875">
        <ele>883.20001220703125</ele>
        <time>2026-08-22T00:12:29.000Z</time>
        <extensions>
          <ns3:TrackPointExtension>
            <ns3:hr>119</ns3:hr>
            <ns3:cad>0</ns3:cad>
          </ns3:TrackPointExtension>
        </extensions>
      </trkpt>
      <trkpt lat="45.29124339111149311065673828125" lon="-71.10515135340392589569091796875">
        <ele>882.79998779296875</ele>
        <time>2026-08-22T00:12:30.000Z</time>
        <extensions>
          <ns3:TrackPointExtension>
            <ns3:hr>119</ns3:hr>
            <ns3:cad>0</ns3:cad>
          </ns3:TrackPointExtension>
        </extensions>
      </trkpt>
      <trkpt lat="45.29124171473085880279541015625" lon="-71.105165518820285797119140625">
        <ele>882.4000244140625</ele>
        <time>2026-08-22T00:12:31.000Z</time>
        <extensions>
          <ns3:TrackPointExtension>
            <ns3:hr>118</ns3:hr>
            <ns3:cad>79</ns3:cad>
          </ns3:TrackPointExtension>
        </extensions>
      </trkpt>
      <trkpt lat="45.291229225695133209228515625" lon="-71.1051847971975803375244140625">
        <ele>882.20001220703125</ele>
        <time>2026-08-22T00:12:32.000Z</time>
        <extensions>
          <ns3:TrackPointExtension>
            <ns3:hr>118</ns3:hr>
            <ns3:cad>0</ns3:cad>
          </ns3:TrackPointExtension>
        </extensions>
      </trkpt>
      <trkpt lat="45.2912277169525623321533203125" lon="-71.10520281828939914703369140625">
        <ele>881.79998779296875</ele>
        <time>2026-08-22T00:12:33.000Z</time>
        <extensions>
          <ns3:TrackPointExtension>
            <ns3:hr>118</ns3:hr>
            <ns3:cad>0</ns3:cad>
          </ns3:TrackPointExtension>
        </extensions>
      </trkpt>
      <trkpt lat="45.29122830368578433990478515625" lon="-71.10522142611443996429443359375">
        <ele>881.4000244140625</ele>
        <time>2026-08-22T00:12:34.000Z</time>
        <extensions>
          <ns3:TrackPointExtension>
            <ns3:hr>117</ns3:hr>
            <ns3:cad>0</ns3:cad>
          </ns3:TrackPointExtension>
        </extensions>
      </trkpt>
      <trkpt lat="45.29123333282768726348876953125" lon="-71.1052367649972438812255859375">
        <ele>881.20001220703125</ele>
        <time>2026-08-22T00:12:35.000Z</time>
        <extensions>
          <ns3:TrackPointExtension>
            <ns3:hr>117</ns3:hr>
            <ns3:cad>0</ns3:cad>
          </ns3:TrackPointExtension>
        </extensions>
      </trkpt>
      <trkpt lat="45.2912327460944652557373046875" lon="-71.105252690613269805908203125">
        <ele>880.79998779296875</ele>
        <time>2026-08-22T00:12:36.000Z</time>
        <extensions>
          <ns3:TrackPointExtension>
            <ns3:hr>117</ns3:hr>
            <ns3:cad>0</ns3:cad>
          </ns3:TrackPointExtension>
        </extensions>
      </trkpt>
      <trkpt lat="45.29123031534254550933837890625" lon="-71.105279512703418731689453125">
        <ele>880.5999755859375</ele>
        <time>2026-08-22T00:12:37.000Z</time>
        <extensions>
          <ns3:TrackPointExtension>
            <ns3:hr>116</ns3:hr>
            <ns3:cad>0</ns3:cad>
          </ns3:TrackPointExtension>
        </extensions>
      </trkpt>
      <trkpt lat="45.2912320755422115325927734375" lon="-71.10530189238488674163818359375">
        <ele>880.20001220703125</ele>
        <time>2026-08-22T00:12:38.000Z</time>
        <extensions>
          <ns3:TrackPointExtension>
            <ns3:hr>116</ns3:hr>
            <ns3:cad>0</ns3:cad>
          </ns3:TrackPointExtension>
        </extensions>
      </trkpt>
      <trkpt lat="45.29123702086508274078369140625" lon="-71.10531865619122982025146484375">
        <ele>880</ele>
        <time>2026-08-22T00:12:39.000Z</time>
        <extensions>
          <ns3:TrackPointExtension>
            <ns3:hr>116</ns3:hr>
            <ns3:cad>0</ns3:cad>
          </ns3:TrackPointExtension>
        </extensions>
      </trkpt>
      <trkpt lat="45.291237272322177886962890625" lon="-71.105331145226955413818359375">
        <ele>880</ele>
        <time>2026-08-22T00:12:40.000Z</time>
        <extensions>
          <ns3:TrackPointExtension>
            <ns3:hr>116</ns3:hr>
            <ns3:cad>0</ns3:cad>
          </ns3:TrackPointExtension>
        </extensions>
      </trkpt>
      <trkpt lat="45.29123886488378047943115234375" lon="-71.105355955660343170166015625">
        <ele>879.79998779296875</ele>
        <time>2026-08-22T00:12:41.000Z</time>
        <extensions>
          <ns3:TrackPointExtension>
            <ns3:hr>116</ns3:hr>
            <ns3:cad>0</ns3:cad>
          </ns3:TrackPointExtension>
        </extensions>
      </trkpt>
      <trkpt lat="45.2912401221692562103271484375" lon="-71.10537464730441570281982421875">
        <ele>879.4000244140625</ele>
        <time>2026-08-22T00:12:42.000Z</time>
        <extensions>
          <ns3:TrackPointExtension>
            <ns3:hr>116</ns3:hr>
            <ns3:cad>0</ns3:cad>
          </ns3:TrackPointExtension>
        </extensions>
      </trkpt>
      <trkpt lat="45.29124657623469829559326171875" lon="-71.10538990236818790435791015625">
        <ele>879.20001220703125</ele>
        <time>2026-08-22T00:12:43.000Z</time>
        <extensions>
          <ns3:TrackPointExtension>
            <ns3:hr>116</ns3:hr>
            <ns3:cad>0</ns3:cad>
          </ns3:TrackPointExtension>
        </extensions>
      </trkpt>
      <trkpt lat="45.291247665882110595703125" lon="-71.105405576527118682861328125">
        <ele>878.79998779296875</ele>
        <time>2026-08-22T00:12:44.000Z</time>
        <extensions>
          <ns3:TrackPointExtension>
            <ns3:hr>116</ns3:hr>
            <ns3:cad>0</ns3:cad>
          </ns3:TrackPointExtension>
        </extensions>
      </trkpt>
      <trkpt lat="45.29124607332050800323486328125" lon="-71.10541270114481449127197265625">
        <ele>878.4000244140625</ele>
        <time>2026-08-22T00:12:45.000Z</time>
        <extensions>
          <ns3:TrackPointExtension>
            <ns3:hr>116</ns3:hr>
            <ns3:cad>0</ns3:cad>
          </ns3:TrackPointExtension>
        </extensions>
      </trkpt>
      <trkpt lat="45.29124875552952289581298828125" lon="-71.10543063841760158538818359375">
        <ele>878</ele>
        <time>2026-08-22T00:12:46.000Z</time>
        <extensions>
          <ns3:TrackPointExtension>
            <ns3:hr>115</ns3:hr>
            <ns3:cad>0</ns3:cad>
          </ns3:TrackPointExtension>
        </extensions>
      </trkpt>
      <trkpt lat="45.29124892316758632659912109375" lon="-71.10544170252978801727294921875">
        <ele>877.79998779296875</ele>
        <time>2026-08-22T00:12:47.000Z</time>
        <extensions>
          <ns3:TrackPointExtension>
            <ns3:hr>115</ns3:hr>
            <ns3:cad>0</ns3:cad>
          </ns3:TrackPointExtension>
        </extensions>
      </trkpt>
      <trkpt lat="45.29125160537660121917724609375" lon="-71.10546492040157318115234375">
        <ele>877.4000244140625</ele>
        <time>2026-08-22T00:12:48.000Z</time>
        <extensions>
          <ns3:TrackPointExtension>
            <ns3:hr>115</ns3:hr>
            <ns3:cad>0</ns3:cad>
          </ns3:TrackPointExtension>
        </extensions>
      </trkpt>
      <trkpt lat="45.29125328175723552703857421875" lon="-71.10547942109405994415283203125">
        <ele>876.79998779296875</ele>
        <time>2026-08-22T00:12:49.000Z</time>
        <extensions>
          <ns3:TrackPointExtension>
            <ns3:hr>115</ns3:hr>
            <ns3:cad>0</ns3:cad>
          </ns3:TrackPointExtension>
        </extensions>
      </trkpt>
      <trkpt lat="45.291253365576267242431640625" lon="-71.10549484379589557647705078125">
        <ele>876.4000244140625</ele>
        <time>2026-08-22T00:12:50.000Z</time>
        <extensions>
          <ns3:TrackPointExtension>
            <ns3:hr>115</ns3:hr>
            <ns3:cad>0</ns3:cad>
          </ns3:TrackPointExtension>
        </extensions>
      </trkpt>
      <trkpt lat="45.29125235974788665771484375" lon="-71.10551211051642894744873046875">
        <ele>876.20001220703125</ele>
        <time>2026-08-22T00:12:51.000Z</time>
        <extensions>
          <ns3:TrackPointExtension>
            <ns3:hr>114</ns3:hr>
            <ns3:cad>0</ns3:cad>
          </ns3:TrackPointExtension>
        </extensions>
      </trkpt>
      <trkpt lat="45.29125076718628406524658203125" lon="-71.10552904196083545684814453125">
        <ele>875.79998779296875</ele>
        <time>2026-08-22T00:12:52.000Z</time>
        <extensions>
          <ns3:TrackPointExtension>
            <ns3:hr>114</ns3:hr>
            <ns3:cad>0</ns3:cad>
          </ns3:TrackPointExtension>
        </extensions>
      </trkpt>
      <trkpt lat="45.29125311411917209625244140625" lon="-71.10554329119622707366943359375">
        <ele>875.4000244140625</ele>
        <time>2026-08-22T00:12:53.000Z</time>
        <extensions>
          <ns3:TrackPointExtension>
            <ns3:hr>115</ns3:hr>
            <ns3:cad>0</ns3:cad>
          </ns3:TrackPointExtension>
        </extensions>
      </trkpt>
      <trkpt lat="45.29125680215656757354736328125" lon="-71.10555653460323810577392578125">
        <ele>875.20001220703125</ele>
        <time>2026-08-22T00:12:54.000Z</time>
        <extensions>
          <ns3:TrackPointExtension>
            <ns3:hr>115</ns3:hr>
            <ns3:cad>0</ns3:cad>
          </ns3:TrackPointExtension>
        </extensions>
      </trkpt>
      <trkpt lat="45.2912570536136627197265625" lon="-71.105562150478363037109375">
        <ele>875</ele>
        <time>2026-08-22T00:12:55.000Z</time>
        <extensions>
          <ns3:TrackPointExtension>
            <ns3:hr>115</ns3:hr>
            <ns3:cad>50</ns3:cad>
          </ns3:TrackPointExtension>
        </extensions>
      </trkpt>
      <trkpt lat="45.2912570536136627197265625" lon="-71.10557329840958118438720703125">
        <ele>874.79998779296875</ele>
        <time>2026-08-22T00:12:56.000Z</time>
        <extensions>
          <ns3:TrackPointExtension>
            <ns3:hr>116</ns3:hr>
            <ns3:cad>50</ns3:cad>
          </ns3:TrackPointExtension>
        </extensions>
      </trkpt>
      <trkpt lat="45.29125613160431385040283203125" lon="-71.10558721236884593963623046875">
        <ele>874.4000244140625</ele>
        <time>2026-08-22T00:12:57.000Z</time>
        <extensions>
          <ns3:TrackPointExtension>
            <ns3:hr>117</ns3:hr>
            <ns3:cad>50</ns3:cad>
          </ns3:TrackPointExtension>
        </extensions>
      </trkpt>
      <trkpt lat="45.2912557125091552734375" lon="-71.10558696091175079345703125">
        <ele>874.20001220703125</ele>
        <time>2026-08-22T00:12:58.000Z</time>
        <extensions>
          <ns3:TrackPointExtension>
            <ns3:hr>119</ns3:hr>
            <ns3:cad>50</ns3:cad>
          </ns3:TrackPointExtension>
        </extensions>
      </trkpt>
      <trkpt lat="45.2912557125091552734375" lon="-71.1055981926620006561279296875">
        <ele>873.79998779296875</ele>
        <time>2026-08-22T00:12:59.000Z</time>
        <extensions>
          <ns3:TrackPointExtension>
            <ns3:hr>119</ns3:hr>
            <ns3:cad>50</ns3:cad>
          </ns3:TrackPointExtension>
        </extensions>
      </trkpt>
      <trkpt lat="45.2912582270801067352294921875" lon="-71.10561780631542205810546875">
        <ele>873.5999755859375</ele>
        <time>2026-08-22T00:13:00.000Z</time>
        <extensions>
          <ns3:TrackPointExtension>
            <ns3:hr>119</ns3:hr>
            <ns3:cad>0</ns3:cad>
          </ns3:TrackPointExtension>
        </extensions>
      </trkpt>
      <trkpt lat="45.29126484878361225128173828125" lon="-71.105630882084369659423828125">
        <ele>873.20001220703125</ele>
        <time>2026-08-22T00:13:01.000Z</time>
        <extensions>
          <ns3:TrackPointExtension>
            <ns3:hr>119</ns3:hr>
            <ns3:cad>0</ns3:cad>
          </ns3:TrackPointExtension>
        </extensions>
      </trkpt>
      <trkpt lat="45.291272141039371490478515625" lon="-71.105637252330780029296875">
        <ele>872.79998779296875</ele>
        <time>2026-08-22T00:13:02.000Z</time>
        <extensions>
          <ns3:TrackPointExtension>
            <ns3:hr>118</ns3:hr>
            <ns3:cad>0</ns3:cad>
          </ns3:TrackPointExtension>
        </extensions>
      </trkpt>
      <trkpt lat="45.2912783436477184295654296875" lon="-71.1056488193571567535400390625">
        <ele>872.20001220703125</ele>
        <time>2026-08-22T00:13:03.000Z</time>
        <extensions>
          <ns3:TrackPointExtension>
            <ns3:hr>117</ns3:hr>
            <ns3:cad>0</ns3:cad>
          </ns3:TrackPointExtension>
        </extensions>
      </trkpt>
      <trkpt lat="45.29128261841833591461181640625" lon="-71.10566231422126293182373046875">
        <ele>872</ele>
        <time>2026-08-22T00:13:04.000Z</time>
        <extensions>
          <ns3:TrackPointExtension>
            <ns3:hr>117</ns3:hr>
            <ns3:cad>0</ns3:cad>
          </ns3:TrackPointExtension>
        </extensions>
      </trkpt>
      <trkpt lat="45.291285552084445953369140625" lon="-71.10567639581859111785888671875">
        <ele>871.5999755859375</ele>
        <time>2026-08-22T00:13:05.000Z</time>
        <extensions>
          <ns3:TrackPointExtension>
            <ns3:hr>116</ns3:hr>
            <ns3:cad>0</ns3:cad>
          </ns3:TrackPointExtension>
        </extensions>
      </trkpt>
      <trkpt lat="45.2912900783121585845947265625" lon="-71.105685196816921234130859375">
        <ele>871.20001220703125</ele>
        <time>2026-08-22T00:13:06.000Z</time>
        <extensions>
          <ns3:TrackPointExtension>
            <ns3:hr>116</ns3:hr>
            <ns3:cad>0</ns3:cad>
          </ns3:TrackPointExtension>
        </extensions>
      </trkpt>
      <trkpt lat="45.29129326343536376953125" lon="-71.1057004518806934356689453125">
        <ele>871</ele>
        <time>2026-08-22T00:13:07.000Z</time>
        <extensions>
          <ns3:TrackPointExtension>
            <ns3:hr>116</ns3:hr>
            <ns3:cad>0</ns3:cad>
          </ns3:TrackPointExtension>
        </extensions>
      </trkpt>
      <trkpt lat="45.29129418544471263885498046875" lon="-71.105706989765167236328125">
        <ele>870.79998779296875</ele>
        <time>2026-08-22T00:13:08.000Z</time>
        <extensions>
          <ns3:TrackPointExtension>
            <ns3:hr>116</ns3:hr>
            <ns3:cad>0</ns3:cad>
          </ns3:TrackPointExtension>
        </extensions>
      </trkpt>
      <trkpt lat="45.29129393398761749267578125" lon="-71.10572366975247859954833984375">
        <ele>870.5999755859375</ele>
        <time>2026-08-22T00:13:09.000Z</time>
        <extensions>
          <ns3:TrackPointExtension>
            <ns3:hr>116</ns3:hr>
            <ns3:cad>0</ns3:cad>
          </ns3:TrackPointExtension>
        </extensions>
      </trkpt>
      <trkpt lat="45.29129636473953723907470703125" lon="-71.10573758371174335479736328125">
        <ele>870</ele>
        <time>2026-08-22T00:13:10.000Z</time>
        <extensions>
          <ns3:TrackPointExtension>
            <ns3:hr>116</ns3:hr>
            <ns3:cad>0</ns3:cad>
          </ns3:TrackPointExtension>
        </extensions>
      </trkpt>
      <trkpt lat="45.29130139388144016265869140625" lon="-71.10575317405164241790771484375">
        <ele>869.5999755859375</ele>
        <time>2026-08-22T00:13:11.000Z</time>
        <extensions>
          <ns3:TrackPointExtension>
            <ns3:hr>116</ns3:hr>
            <ns3:cad>0</ns3:cad>
          </ns3:TrackPointExtension>
        </extensions>
      </trkpt>
      <trkpt lat="45.2913044951856136322021484375" lon="-71.1057681776583194732666015625">
        <ele>869.20001220703125</ele>
        <time>2026-08-22T00:13:12.000Z</time>
        <extensions>
          <ns3:TrackPointExtension>
            <ns3:hr>115</ns3:hr>
            <ns3:cad>0</ns3:cad>
          </ns3:TrackPointExtension>
        </extensions>
      </trkpt>
      <trkpt lat="45.291305668652057647705078125" lon="-71.105781085789203643798828125">
        <ele>868.79998779296875</ele>
        <time>2026-08-22T00:13:13.000Z</time>
        <extensions>
          <ns3:TrackPointExtension>
            <ns3:hr>116</ns3:hr>
            <ns3:cad>0</ns3:cad>
          </ns3:TrackPointExtension>
        </extensions>
      </trkpt>
      <trkpt lat="45.29130876995623111724853515625" lon="-71.1057966761291027069091796875">
        <ele>868.4000244140625</ele>
        <time>2026-08-22T00:13:14.000Z</time>
        <extensions>
          <ns3:TrackPointExtension>
            <ns3:hr>116</ns3:hr>
            <ns3:cad>0</ns3:cad>
          </ns3:TrackPointExtension>
        </extensions>
      </trkpt>
      <trkpt lat="45.29130843468010425567626953125" lon="-71.10581436194479465484619140625">
        <ele>868.20001220703125</ele>
        <time>2026-08-22T00:13:15.000Z</time>
        <extensions>
          <ns3:TrackPointExtension>
            <ns3:hr>116</ns3:hr>
            <ns3:cad>0</ns3:cad>
          </ns3:TrackPointExtension>
        </extensions>
      </trkpt>
      <trkpt lat="45.291307680308818817138671875" lon="-71.10583280213177204132080078125">
        <ele>868</ele>
        <time>2026-08-22T00:13:16.000Z</time>
        <extensions>
          <ns3:TrackPointExtension>
            <ns3:hr>115</ns3:hr>
            <ns3:cad>0</ns3:cad>
          </ns3:TrackPointExtension>
        </extensions>
      </trkpt>
      <trkpt lat="45.29130600392818450927734375" lon="-71.10585828311741352081298828125">
        <ele>867.5999755859375</ele>
        <time>2026-08-22T00:13:17.000Z</time>
        <extensions>
          <ns3:TrackPointExtension>
            <ns3:hr>116</ns3:hr>
            <ns3:cad>0</ns3:cad>
          </ns3:TrackPointExtension>
        </extensions>
      </trkpt>
      <trkpt lat="45.2913041599094867706298828125" lon="-71.10587404109537601470947265625">
        <ele>867.4000244140625</ele>
        <time>2026-08-22T00:13:18.000Z</time>
        <extensions>
          <ns3:TrackPointExtension>
            <ns3:hr>116</ns3:hr>
            <ns3:cad>0</ns3:cad>
          </ns3:TrackPointExtension>
        </extensions>
      </trkpt>
      <trkpt lat="45.29130357317626476287841796875" lon="-71.10588694922626018524169921875">
        <ele>867.20001220703125</ele>
        <time>2026-08-22T00:13:19.000Z</time>
        <extensions>
          <ns3:TrackPointExtension>
            <ns3:hr>116</ns3:hr>
            <ns3:cad>0</ns3:cad>
          </ns3:TrackPointExtension>
        </extensions>
      </trkpt>
      <trkpt lat="45.2912984602153301239013671875" lon="-71.10590153373777866363525390625">
        <ele>867.20001220703125</ele>
        <time>2026-08-22T00:13:20.000Z</time>
        <extensions>
          <ns3:TrackPointExtension>
            <ns3:hr>116</ns3:hr>
            <ns3:cad>0</ns3:cad>
          </ns3:TrackPointExtension>
        </extensions>
      </trkpt>
      <trkpt lat="45.29129753820598125457763671875" lon="-71.1059177108108997344970703125">
        <ele>867</ele>
        <time>2026-08-22T00:13:21.000Z</time>
        <extensions>
          <ns3:TrackPointExtension>
            <ns3:hr>117</ns3:hr>
            <ns3:cad>0</ns3:cad>
          </ns3:TrackPointExtension>
        </extensions>
      </trkpt>
      <trkpt lat="45.2912890724837779998779296875" lon="-71.10594009049236774444580078125">
        <ele>867</ele>
        <time>2026-08-22T00:13:22.000Z</time>
        <extensions>
          <ns3:TrackPointExtension>
            <ns3:hr>117</ns3:hr>
            <ns3:cad>0</ns3:cad>
          </ns3:TrackPointExtension>
        </extensions>
      </trkpt>
      <trkpt lat="45.29128412716090679168701171875" lon="-71.10595148988068103790283203125">
        <ele>866.79998779296875</ele>
        <time>2026-08-22T00:13:23.000Z</time>
        <extensions>
          <ns3:TrackPointExtension>
            <ns3:hr>117</ns3:hr>
            <ns3:cad>0</ns3:cad>
          </ns3:TrackPointExtension>
        </extensions>
      </trkpt>
      <trkpt lat="45.29128127731382846832275390625" lon="-71.10596640966832637786865234375">
        <ele>866.5999755859375</ele>
        <time>2026-08-22T00:13:24.000Z</time>
        <extensions>
          <ns3:TrackPointExtension>
            <ns3:hr>117</ns3:hr>
            <ns3:cad>0</ns3:cad>
          </ns3:TrackPointExtension>
        </extensions>
      </trkpt>
      <trkpt lat="45.2912766672670841217041015625" lon="-71.10598602332174777984619140625">
        <ele>866.4000244140625</ele>
        <time>2026-08-22T00:13:25.000Z</time>
        <extensions>
          <ns3:TrackPointExtension>
            <ns3:hr>117</ns3:hr>
            <ns3:cad>0</ns3:cad>
          </ns3:TrackPointExtension>
        </extensions>
      </trkpt>
      <trkpt lat="45.29127121903002262115478515625" lon="-71.106006391346454620361328125">
        <ele>866.20001220703125</ele>
        <time>2026-08-22T00:13:26.000Z</time>
        <extensions>
          <ns3:TrackPointExtension>
            <ns3:hr>117</ns3:hr>
            <ns3:cad>0</ns3:cad>
          </ns3:TrackPointExtension>
        </extensions>
      </trkpt>
      <trkpt lat="45.2912666089832782745361328125" lon="-71.106019802391529083251953125">
        <ele>866</ele>
        <time>2026-08-22T00:13:27.000Z</time>
        <extensions>
          <ns3:TrackPointExtension>
            <ns3:hr>117</ns3:hr>
            <ns3:cad>0</ns3:cad>
          </ns3:TrackPointExtension>
        </extensions>
      </trkpt>
      <trkpt lat="45.2912652678787708282470703125" lon="-71.10602960921823978424072265625">
        <ele>865.79998779296875</ele>
        <time>2026-08-22T00:13:28.000Z</time>
        <extensions>
          <ns3:TrackPointExtension>
            <ns3:hr>117</ns3:hr>
            <ns3:cad>0</ns3:cad>
          </ns3:TrackPointExtension>
        </extensions>
      </trkpt>
      <trkpt lat="45.29126040637493133544921875" lon="-71.10604737885296344757080078125">
        <ele>865.5999755859375</ele>
        <time>2026-08-22T00:13:29.000Z</time>
        <extensions>
          <ns3:TrackPointExtension>
            <ns3:hr>117</ns3:hr>
            <ns3:cad>0</ns3:cad>
          </ns3:TrackPointExtension>
        </extensions>
      </trkpt>
      <trkpt lat="45.2912552095949649810791015625" lon="-71.10605995170772075653076171875">
        <ele>865.4000244140625</ele>
        <time>2026-08-22T00:13:30.000Z</time>
        <extensions>
          <ns3:TrackPointExtension>
            <ns3:hr>118</ns3:hr>
            <ns3:cad>0</ns3:cad>
          </ns3:TrackPointExtension>
        </extensions>
      </trkpt>
      <trkpt lat="45.2912542037665843963623046875" lon="-71.106076128780841827392578125">
        <ele>865.20001220703125</ele>
        <time>2026-08-22T00:13:31.000Z</time>
        <extensions>
          <ns3:TrackPointExtension>
            <ns3:hr>117</ns3:hr>
            <ns3:cad>0</ns3:cad>
          </ns3:TrackPointExtension>
        </extensions>
      </trkpt>
      <trkpt lat="45.29125177301466464996337890625" lon="-71.1060967482626438140869140625">
        <ele>865</ele>
        <time>2026-08-22T00:13:32.000Z</time>
        <extensions>
          <ns3:TrackPointExtension>
            <ns3:hr>117</ns3:hr>
            <ns3:cad>0</ns3:cad>
          </ns3:TrackPointExtension>
        </extensions>
      </trkpt>
      <trkpt lat="45.29124389402568340301513671875" lon="-71.10611644573509693145751953125">
        <ele>864.79998779296875</ele>
        <time>2026-08-22T00:13:33.000Z</time>
        <extensions>
          <ns3:TrackPointExtension>
            <ns3:hr>117</ns3:hr>
            <ns3:cad>0</ns3:cad>
          </ns3:TrackPointExtension>
        </extensions>
      </trkpt>
      <trkpt lat="45.29124322347342967987060546875" lon="-71.10613388009369373321533203125">
        <ele>864.5999755859375</ele>
        <time>2026-08-22T00:13:34.000Z</time>
        <extensions>
          <ns3:TrackPointExtension>
            <ns3:hr>116</ns3:hr>
            <ns3:cad>0</ns3:cad>
          </ns3:TrackPointExtension>
        </extensions>
      </trkpt>
      <trkpt lat="45.29123517684638500213623046875" lon="-71.10615835525095462799072265625">
        <ele>864.20001220703125</ele>
        <time>2026-08-22T00:13:35.000Z</time>
        <extensions>
          <ns3:TrackPointExtension>
            <ns3:hr>116</ns3:hr>
            <ns3:cad>0</ns3:cad>
          </ns3:TrackPointExtension>
        </extensions>
      </trkpt>
      <trkpt lat="45.29122687876224517822265625" lon="-71.10617838799953460693359375">
        <ele>863.79998779296875</ele>
        <time>2026-08-22T00:13:36.000Z</time>
        <extensions>
          <ns3:TrackPointExtension>
            <ns3:hr>116</ns3:hr>
            <ns3:cad>0</ns3:cad>
          </ns3:TrackPointExtension>
        </extensions>
      </trkpt>
      <trkpt lat="45.29122277162969112396240234375" lon="-71.10619758255779743194580078125">
        <ele>863.5999755859375</ele>
        <time>2026-08-22T00:13:37.000Z</time>
        <extensions>
          <ns3:TrackPointExtension>
            <ns3:hr>115</ns3:hr>
            <ns3:cad>0</ns3:cad>
          </ns3:TrackPointExtension>
        </extensions>
      </trkpt>
      <trkpt lat="45.2912210114300251007080078125" lon="-71.1062100715935230255126953125">
        <ele>863.20001220703125</ele>
        <time>2026-08-22T00:13:38.000Z</time>
        <extensions>
          <ns3:TrackPointExtension>
            <ns3:hr>115</ns3:hr>
            <ns3:cad>0</ns3:cad>
          </ns3:TrackPointExtension>
        </extensions>
      </trkpt>
      <trkpt lat="45.2912141382694244384765625" lon="-71.1062298528850078582763671875">
        <ele>863</ele>
        <time>2026-08-22T00:13:39.000Z</time>
        <extensions>
          <ns3:TrackPointExtension>
            <ns3:hr>115</ns3:hr>
            <ns3:cad>0</ns3:cad>
          </ns3:TrackPointExtension>
        </extensions>
      </trkpt>
      <trkpt lat="45.291205085813999176025390625" lon="-71.106251142919063568115234375">
        <ele>862.79998779296875</ele>
        <time>2026-08-22T00:13:40.000Z</time>
        <extensions>
          <ns3:TrackPointExtension>
            <ns3:hr>115</ns3:hr>
            <ns3:cad>0</ns3:cad>
          </ns3:TrackPointExtension>
        </extensions>
      </trkpt>
      <trkpt lat="45.2911985479295253753662109375" lon="-71.10625826753675937652587890625">
        <ele>862.5999755859375</ele>
        <time>2026-08-22T00:13:41.000Z</time>
        <extensions>
          <ns3:TrackPointExtension>
            <ns3:hr>116</ns3:hr>
            <ns3:cad>58</ns3:cad>
          </ns3:TrackPointExtension>
        </extensions>
      </trkpt>
      <trkpt lat="45.2911888249218463897705078125" lon="-71.10627603717148303985595703125">
        <ele>862.4000244140625</ele>
        <time>2026-08-22T00:13:42.000Z</time>
        <extensions>
          <ns3:TrackPointExtension>
            <ns3:hr>116</ns3:hr>
            <ns3:cad>58</ns3:cad>
          </ns3:TrackPointExtension>
        </extensions>
      </trkpt>
      <trkpt lat="45.29118387959897518157958984375" lon="-71.1062878556549549102783203125">
        <ele>862.20001220703125</ele>
        <time>2026-08-22T00:13:43.000Z</time>
        <extensions>
          <ns3:TrackPointExtension>
            <ns3:hr>116</ns3:hr>
            <ns3:cad>0</ns3:cad>
          </ns3:TrackPointExtension>
        </extensions>
      </trkpt>
      <trkpt lat="45.29118052683770656585693359375" lon="-71.10629900358617305755615234375">
        <ele>862.20001220703125</ele>
        <time>2026-08-22T00:13:44.000Z</time>
        <extensions>
          <ns3:TrackPointExtension>
            <ns3:hr>116</ns3:hr>
            <ns3:cad>0</ns3:cad>
          </ns3:TrackPointExtension>
        </extensions>
      </trkpt>
      <trkpt lat="45.29117600060999393463134765625" lon="-71.1063170246779918670654296875">
        <ele>862</ele>
        <time>2026-08-22T00:13:45.000Z</time>
        <extensions>
          <ns3:TrackPointExtension>
            <ns3:hr>116</ns3:hr>
            <ns3:cad>0</ns3:cad>
          </ns3:TrackPointExtension>
        </extensions>
      </trkpt>
      <trkpt lat="45.29117298312485218048095703125" lon="-71.10632481984794139862060546875">
        <ele>862</ele>
        <time>2026-08-22T00:13:46.000Z</time>
        <extensions>
          <ns3:TrackPointExtension>
            <ns3:hr>116</ns3:hr>
            <ns3:cad>0</ns3:cad>
          </ns3:TrackPointExtension>
        </extensions>
      </trkpt>
      <trkpt lat="45.2911660261452198028564453125" lon="-71.1063413321971893310546875">
        <ele>862</ele>
        <time>2026-08-22T00:13:47.000Z</time>
        <extensions>
          <ns3:TrackPointExtension>
            <ns3:hr>116</ns3:hr>
            <ns3:cad>0</ns3:cad>
          </ns3:TrackPointExtension>
        </extensions>
      </trkpt>
      <trkpt lat="45.2911599911749362945556640625" lon="-71.10636346042156219482421875">
        <ele>861.79998779296875</ele>
        <time>2026-08-22T00:13:48.000Z</time>
        <extensions>
          <ns3:TrackPointExtension>
            <ns3:hr>115</ns3:hr>
            <ns3:cad>0</ns3:cad>
          </ns3:TrackPointExtension>
        </extensions>
      </trkpt>
      <trkpt lat="45.2911539562046527862548828125" lon="-71.10637418925762176513671875">
        <ele>861.5999755859375</ele>
        <time>2026-08-22T00:13:49.000Z</time>
        <extensions>
          <ns3:TrackPointExtension>
            <ns3:hr>115</ns3:hr>
            <ns3:cad>0</ns3:cad>
          </ns3:TrackPointExtension>
        </extensions>
      </trkpt>
      <trkpt lat="45.29114800505340099334716796875" lon="-71.10638852231204509735107421875">
        <ele>861.4000244140625</ele>
        <time>2026-08-22T00:13:50.000Z</time>
        <extensions>
          <ns3:TrackPointExtension>
            <ns3:hr>115</ns3:hr>
            <ns3:cad>0</ns3:cad>
          </ns3:TrackPointExtension>
        </extensions>
      </trkpt>
      <trkpt lat="45.291140712797641754150390625" lon="-71.1064031906425952911376953125">
        <ele>861.20001220703125</ele>
        <time>2026-08-22T00:13:51.000Z</time>
        <extensions>
          <ns3:TrackPointExtension>
            <ns3:hr>115</ns3:hr>
            <ns3:cad>0</ns3:cad>
          </ns3:TrackPointExtension>
        </extensions>
      </trkpt>
      <trkpt lat="45.2911311574280261993408203125" lon="-71.10642087645828723907470703125">
        <ele>860.79998779296875</ele>
        <time>2026-08-22T00:13:52.000Z</time>
        <extensions>
          <ns3:TrackPointExtension>
            <ns3:hr>115</ns3:hr>
            <ns3:cad>53</ns3:cad>
          </ns3:TrackPointExtension>
        </extensions>
      </trkpt>
      <trkpt lat="45.291125960648059844970703125" lon="-71.1064405739307403564453125">
        <ele>860.5999755859375</ele>
        <time>2026-08-22T00:13:53.000Z</time>
        <extensions>
          <ns3:TrackPointExtension>
            <ns3:hr>115</ns3:hr>
            <ns3:cad>53</ns3:cad>
          </ns3:TrackPointExtension>
        </extensions>
      </trkpt>
      <trkpt lat="45.29111690819263458251953125" lon="-71.106461696326732635498046875">
        <ele>860.4000244140625</ele>
        <time>2026-08-22T00:13:54.000Z</time>
        <extensions>
          <ns3:TrackPointExtension>
            <ns3:hr>115</ns3:hr>
            <ns3:cad>53</ns3:cad>
          </ns3:TrackPointExtension>
        </extensions>
      </trkpt>
      <trkpt lat="45.2911093644797801971435546875" lon="-71.1064715869724750518798828125">
        <ele>860.20001220703125</ele>
        <time>2026-08-22T00:13:55.000Z</time>
        <extensions>
          <ns3:TrackPointExtension>
            <ns3:hr>115</ns3:hr>
            <ns3:cad>58</ns3:cad>
          </ns3:TrackPointExtension>
        </extensions>
      </trkpt>
      <trkpt lat="45.2910993061959743499755859375" lon="-71.1064906977117061614990234375">
        <ele>860</ele>
        <time>2026-08-22T00:13:56.000Z</time>
        <extensions>
          <ns3:TrackPointExtension>
            <ns3:hr>115</ns3:hr>
            <ns3:cad>58</ns3:cad>
          </ns3:TrackPointExtension>
        </extensions>
      </trkpt>
      <trkpt lat="45.29109033755958080291748046875" lon="-71.10650117509067058563232421875">
        <ele>859.79998779296875</ele>
        <time>2026-08-22T00:13:57.000Z</time>
        <extensions>
          <ns3:TrackPointExtension>
            <ns3:hr>115</ns3:hr>
            <ns3:cad>58</ns3:cad>
          </ns3:TrackPointExtension>
        </extensions>
      </trkpt>
      <trkpt lat="45.2910785190761089324951171875" lon="-71.1065091378986835479736328125">
        <ele>859.5999755859375</ele>
        <time>2026-08-22T00:13:58.000Z</time>
        <extensions>
          <ns3:TrackPointExtension>
            <ns3:hr>116</ns3:hr>
            <ns3:cad>58</ns3:cad>
          </ns3:TrackPointExtension>
        </extensions>
      </trkpt>
      <trkpt lat="45.29107172973453998565673828125" lon="-71.1065084673464298248291015625">
        <ele>859.4000244140625</ele>
        <time>2026-08-22T00:13:59.000Z</time>
        <extensions>
          <ns3:TrackPointExtension>
            <ns3:hr>116</ns3:hr>
            <ns3:cad>0</ns3:cad>
          </ns3:TrackPointExtension>
        </extensions>
      </trkpt>
      <trkpt lat="45.2910624258220195770263671875" lon="-71.10651056282222270965576171875">
        <ele>859.20001220703125</ele>
        <time>2026-08-22T00:14:00.000Z</time>
        <extensions>
          <ns3:TrackPointExtension>
            <ns3:hr>116</ns3:hr>
            <ns3:cad>0</ns3:cad>
          </ns3:TrackPointExtension>
        </extensions>
      </trkpt>
      <trkpt lat="45.291055552661418914794921875" lon="-71.10651609487831592559814453125">
        <ele>859</ele>
        <time>2026-08-22T00:14:01.000Z</time>
        <extensions>
          <ns3:TrackPointExtension>
            <ns3:hr>116</ns3:hr>
            <ns3:cad>0</ns3:cad>
          </ns3:TrackPointExtension>
        </extensions>
      </trkpt>
      <trkpt lat="45.29104448854923248291015625" lon="-71.106522381305694580078125">
        <ele>858.79998779296875</ele>
        <time>2026-08-22T00:14:02.000Z</time>
        <extensions>
          <ns3:TrackPointExtension>
            <ns3:hr>117</ns3:hr>
            <ns3:cad>0</ns3:cad>
          </ns3:TrackPointExtension>
        </extensions>
      </trkpt>
      <trkpt lat="45.29103551991283893585205078125" lon="-71.1065295897424221038818359375">
        <ele>858.5999755859375</ele>
        <time>2026-08-22T00:14:03.000Z</time>
        <extensions>
          <ns3:TrackPointExtension>
            <ns3:hr>117</ns3:hr>
            <ns3:cad>0</ns3:cad>
          </ns3:TrackPointExtension>
        </extensions>
      </trkpt>
      <trkpt lat="45.291027389466762542724609375" lon="-71.10653202049434185028076171875">
        <ele>858.4000244140625</ele>
        <time>2026-08-22T00:14:04.000Z</time>
        <extensions>
          <ns3:TrackPointExtension>
            <ns3:hr>117</ns3:hr>
            <ns3:cad>0</ns3:cad>
          </ns3:TrackPointExtension>
        </extensions>
      </trkpt>
      <trkpt lat="45.29101942665874958038330078125" lon="-71.10654325224459171295166015625">
        <ele>858.20001220703125</ele>
        <time>2026-08-22T00:14:05.000Z</time>
        <extensions>
          <ns3:TrackPointExtension>
            <ns3:hr>117</ns3:hr>
            <ns3:cad>0</ns3:cad>
          </ns3:TrackPointExtension>
        </extensions>
      </trkpt>
      <trkpt lat="45.2910128049552440643310546875" lon="-71.1065530590713024139404296875">
        <ele>857.79998779296875</ele>
        <time>2026-08-22T00:14:06.000Z</time>
        <extensions>
          <ns3:TrackPointExtension>
            <ns3:hr>117</ns3:hr>
            <ns3:cad>0</ns3:cad>
          </ns3:TrackPointExtension>
        </extensions>
      </trkpt>
      <trkpt lat="45.2910030819475650787353515625" lon="-71.10656018368899822235107421875">
        <ele>857.5999755859375</ele>
        <time>2026-08-22T00:14:07.000Z</time>
        <extensions>
          <ns3:TrackPointExtension>
            <ns3:hr>118</ns3:hr>
            <ns3:cad>0</ns3:cad>
          </ns3:TrackPointExtension>
        </extensions>
      </trkpt>
      <trkpt lat="45.29098975472152233123779296875" lon="-71.10656688921153545379638671875">
        <ele>857.4000244140625</ele>
        <time>2026-08-22T00:14:08.000Z</time>
        <extensions>
          <ns3:TrackPointExtension>
            <ns3:hr>117</ns3:hr>
            <ns3:cad>0</ns3:cad>
          </ns3:TrackPointExtension>
        </extensions>
      </trkpt>
      <trkpt lat="45.29097936116158962249755859375" lon="-71.10657091252505779266357421875">
        <ele>857.20001220703125</ele>
        <time>2026-08-22T00:14:09.000Z</time>
        <extensions>
          <ns3:TrackPointExtension>
            <ns3:hr>116</ns3:hr>
            <ns3:cad>0</ns3:cad>
          </ns3:TrackPointExtension>
        </extensions>
      </trkpt>
      <trkpt lat="45.2909700572490692138671875" lon="-71.10657409764826297760009765625">
        <ele>856.79998779296875</ele>
        <time>2026-08-22T00:14:10.000Z</time>
        <extensions>
          <ns3:TrackPointExtension>
            <ns3:hr>116</ns3:hr>
            <ns3:cad>0</ns3:cad>
          </ns3:TrackPointExtension>
        </extensions>
      </trkpt>
      <trkpt lat="45.29095974750816822052001953125" lon="-71.10657610930502414703369140625">
        <ele>856.4000244140625</ele>
        <time>2026-08-22T00:14:11.000Z</time>
        <extensions>
          <ns3:TrackPointExtension>
            <ns3:hr>115</ns3:hr>
            <ns3:cad>0</ns3:cad>
          </ns3:TrackPointExtension>
        </extensions>
      </trkpt>
      <trkpt lat="45.290949605405330657958984375" lon="-71.10657870769500732421875">
        <ele>856.20001220703125</ele>
        <time>2026-08-22T00:14:12.000Z</time>
        <extensions>
          <ns3:TrackPointExtension>
            <ns3:hr>114</ns3:hr>
            <ns3:cad>0</ns3:cad>
          </ns3:TrackPointExtension>
        </extensions>
      </trkpt>
      <trkpt lat="45.29093979857861995697021484375" lon="-71.10658331774175167083740234375">
        <ele>855.79998779296875</ele>
        <time>2026-08-22T00:14:13.000Z</time>
        <extensions>
          <ns3:TrackPointExtension>
            <ns3:hr>113</ns3:hr>
            <ns3:cad>0</ns3:cad>
          </ns3:TrackPointExtension>
        </extensions>
      </trkpt>
      <trkpt lat="45.29093376360833644866943359375" lon="-71.10658398829400539398193359375">
        <ele>855.5999755859375</ele>
        <time>2026-08-22T00:14:14.000Z</time>
        <extensions>
          <ns3:TrackPointExtension>
            <ns3:hr>114</ns3:hr>
            <ns3:cad>0</ns3:cad>
          </ns3:TrackPointExtension>
        </extensions>
      </trkpt>
      <trkpt lat="45.29091632924973964691162109375" lon="-71.10658482648432254791259765625">
        <ele>855.20001220703125</ele>
        <time>2026-08-22T00:14:15.000Z</time>
        <extensions>
          <ns3:TrackPointExtension>
            <ns3:hr>114</ns3:hr>
            <ns3:cad>0</ns3:cad>
          </ns3:TrackPointExtension>
        </extensions>
      </trkpt>
      <trkpt lat="45.29090140946209430694580078125" lon="-71.10659471713006496429443359375">
        <ele>855</ele>
        <time>2026-08-22T00:14:16.000Z</time>
        <extensions>
          <ns3:TrackPointExtension>
            <ns3:hr>114</ns3:hr>
            <ns3:cad>0</ns3:cad>
          </ns3:TrackPointExtension>
        </extensions>
      </trkpt>
      <trkpt lat="45.290888249874114990234375" lon="-71.10660008154809474945068359375">
        <ele>854.79998779296875</ele>
        <time>2026-08-22T00:14:17.000Z</time>
        <extensions>
          <ns3:TrackPointExtension>
            <ns3:hr>114</ns3:hr>
            <ns3:cad>0</ns3:cad>
          </ns3:TrackPointExtension>
        </extensions>
      </trkpt>
      <trkpt lat="45.290879197418689727783203125" lon="-71.1066077090799808502197265625">
        <ele>854.5999755859375</ele>
        <time>2026-08-22T00:14:18.000Z</time>
        <extensions>
          <ns3:TrackPointExtension>
            <ns3:hr>114</ns3:hr>
            <ns3:cad>0</ns3:cad>
          </ns3:TrackPointExtension>
        </extensions>
      </trkpt>
      <trkpt lat="45.2908666245639324188232421875" lon="-71.10661835409700870513916015625">
        <ele>854.20001220703125</ele>
        <time>2026-08-22T00:14:19.000Z</time>
        <extensions>
          <ns3:TrackPointExtension>
            <ns3:hr>115</ns3:hr>
            <ns3:cad>0</ns3:cad>
          </ns3:TrackPointExtension>
        </extensions>
      </trkpt>
      <trkpt lat="45.2908595837652683258056640625" lon="-71.10662640072405338287353515625">
        <ele>854</ele>
        <time>2026-08-22T00:14:20.000Z</time>
        <extensions>
          <ns3:TrackPointExtension>
            <ns3:hr>115</ns3:hr>
            <ns3:cad>0</ns3:cad>
          </ns3:TrackPointExtension>
        </extensions>
      </trkpt>
      <trkpt lat="45.290850698947906494140625" lon="-71.10663696192204952239990234375">
        <ele>853.5999755859375</ele>
        <time>2026-08-22T00:14:21.000Z</time>
        <extensions>
          <ns3:TrackPointExtension>
            <ns3:hr>115</ns3:hr>
            <ns3:cad>0</ns3:cad>
          </ns3:TrackPointExtension>
        </extensions>
      </trkpt>
      <trkpt lat="45.2908414788544178009033203125" lon="-71.1066449247300624847412109375">
        <ele>853.4000244140625</ele>
        <time>2026-08-22T00:14:22.000Z</time>
        <extensions>
          <ns3:TrackPointExtension>
            <ns3:hr>115</ns3:hr>
            <ns3:cad>0</ns3:cad>
          </ns3:TrackPointExtension>
        </extensions>
      </trkpt>
      <trkpt lat="45.2908327616751194000244140625" lon="-71.10665179789066314697265625">
        <ele>853</ele>
        <time>2026-08-22T00:14:23.000Z</time>
        <extensions>
          <ns3:TrackPointExtension>
            <ns3:hr>115</ns3:hr>
            <ns3:cad>0</ns3:cad>
          </ns3:TrackPointExtension>
        </extensions>
      </trkpt>
      <trkpt lat="45.29081960208714008331298828125" lon="-71.10665456391870975494384765625">
        <ele>852.79998779296875</ele>
        <time>2026-08-22T00:14:24.000Z</time>
        <extensions>
          <ns3:TrackPointExtension>
            <ns3:hr>115</ns3:hr>
            <ns3:cad>0</ns3:cad>
          </ns3:TrackPointExtension>
        </extensions>
      </trkpt>
      <trkpt lat="45.29081004671752452850341796875" lon="-71.10665841959416866302490234375">
        <ele>852.5999755859375</ele>
        <time>2026-08-22T00:14:25.000Z</time>
        <extensions>
          <ns3:TrackPointExtension>
            <ns3:hr>115</ns3:hr>
            <ns3:cad>0</ns3:cad>
          </ns3:TrackPointExtension>
        </extensions>
      </trkpt>
      <trkpt lat="45.29080040752887725830078125" lon="-71.1066620238125324249267578125">
        <ele>852.20001220703125</ele>
        <time>2026-08-22T00:14:26.000Z</time>
        <extensions>
          <ns3:TrackPointExtension>
            <ns3:hr>115</ns3:hr>
            <ns3:cad>0</ns3:cad>
          </ns3:TrackPointExtension>
        </extensions>
      </trkpt>
      <trkpt lat="45.2907876670360565185546875" lon="-71.1066653765738010406494140625">
        <ele>852</ele>
        <time>2026-08-22T00:14:27.000Z</time>
        <extensions>
          <ns3:TrackPointExtension>
            <ns3:hr>115</ns3:hr>
            <ns3:cad>0</ns3:cad>
          </ns3:TrackPointExtension>
        </extensions>
      </trkpt>
      <trkpt lat="45.29077668674290180206298828125" lon="-71.106669567525386810302734375">
        <ele>851.79998779296875</ele>
        <time>2026-08-22T00:14:28.000Z</time>
        <extensions>
          <ns3:TrackPointExtension>
            <ns3:hr>114</ns3:hr>
            <ns3:cad>0</ns3:cad>
          </ns3:TrackPointExtension>
        </extensions>
      </trkpt>
      <trkpt lat="45.29076461680233478546142578125" lon="-71.10667400993406772613525390625">
        <ele>851.5999755859375</ele>
        <time>2026-08-22T00:14:29.000Z</time>
        <extensions>
          <ns3:TrackPointExtension>
            <ns3:hr>115</ns3:hr>
            <ns3:cad>0</ns3:cad>
          </ns3:TrackPointExtension>
        </extensions>
      </trkpt>
      <trkpt lat="45.29075212776660919189453125" lon="-71.10668071545660495758056640625">
        <ele>851.5999755859375</ele>
        <time>2026-08-22T00:14:30.000Z</time>
        <extensions>
          <ns3:TrackPointExtension>
            <ns3:hr>115</ns3:hr>
            <ns3:cad>0</ns3:cad>
          </ns3:TrackPointExtension>
        </extensions>
      </trkpt>
      <trkpt lat="45.29074500314891338348388671875" lon="-71.106680966913700103759765625">
        <ele>851.4000244140625</ele>
        <time>2026-08-22T00:14:31.000Z</time>
        <extensions>
          <ns3:TrackPointExtension>
            <ns3:hr>116</ns3:hr>
            <ns3:cad>0</ns3:cad>
          </ns3:TrackPointExtension>
        </extensions>
      </trkpt>
      <trkpt lat="45.2907345257699489593505859375" lon="-71.10668255947530269622802734375">
        <ele>851.20001220703125</ele>
        <time>2026-08-22T00:14:32.000Z</time>
        <extensions>
          <ns3:TrackPointExtension>
            <ns3:hr>115</ns3:hr>
            <ns3:cad>0</ns3:cad>
          </ns3:TrackPointExtension>
        </extensions>
      </trkpt>
      <trkpt lat="45.2907232940196990966796875" lon="-71.106682308018207550048828125">
        <ele>851</ele>
        <time>2026-08-22T00:14:33.000Z</time>
        <extensions>
          <ns3:TrackPointExtension>
            <ns3:hr>115</ns3:hr>
            <ns3:cad>0</ns3:cad>
          </ns3:TrackPointExtension>
        </extensions>
      </trkpt>
      <trkpt lat="45.2907127328217029571533203125" lon="-71.1066771112382411956787109375">
        <ele>850.79998779296875</ele>
        <time>2026-08-22T00:14:34.000Z</time>
        <extensions>
          <ns3:TrackPointExtension>
            <ns3:hr>115</ns3:hr>
            <ns3:cad>0</ns3:cad>
          </ns3:TrackPointExtension>
        </extensions>
      </trkpt>
      <trkpt lat="45.2907056920230388641357421875" lon="-71.10668105073273181915283203125">
        <ele>850.5999755859375</ele>
        <time>2026-08-22T00:14:35.000Z</time>
        <extensions>
          <ns3:TrackPointExtension>
            <ns3:hr>115</ns3:hr>
            <ns3:cad>0</ns3:cad>
          </ns3:TrackPointExtension>
        </extensions>
      </trkpt>
      <trkpt lat="45.2906937897205352783203125" lon="-71.10668172128498554229736328125">
        <ele>850.4000244140625</ele>
        <time>2026-08-22T00:14:36.000Z</time>
        <extensions>
          <ns3:TrackPointExtension>
            <ns3:hr>115</ns3:hr>
            <ns3:cad>0</ns3:cad>
          </ns3:TrackPointExtension>
        </extensions>
      </trkpt>
      <trkpt lat="45.2906884253025054931640625" lon="-71.10668356530368328094482421875">
        <ele>850.20001220703125</ele>
        <time>2026-08-22T00:14:37.000Z</time>
        <extensions>
          <ns3:TrackPointExtension>
            <ns3:hr>116</ns3:hr>
            <ns3:cad>0</ns3:cad>
          </ns3:TrackPointExtension>
        </extensions>
      </trkpt>
      <trkpt lat="45.29067375697195529937744140625" lon="-71.1066854931414127349853515625">
        <ele>850</ele>
        <time>2026-08-22T00:14:38.000Z</time>
        <extensions>
          <ns3:TrackPointExtension>
            <ns3:hr>116</ns3:hr>
            <ns3:cad>53</ns3:cad>
          </ns3:TrackPointExtension>
        </extensions>
      </trkpt>
      <trkpt lat="45.290668308734893798828125" lon="-71.10668725334107875823974609375">
        <ele>849.79998779296875</ele>
        <time>2026-08-22T00:14:39.000Z</time>
        <extensions>
          <ns3:TrackPointExtension>
            <ns3:hr>116</ns3:hr>
            <ns3:cad>53</ns3:cad>
          </ns3:TrackPointExtension>
        </extensions>
      </trkpt>
      <trkpt lat="45.29065917246043682098388671875" lon="-71.10669429413974285125732421875">
        <ele>849.5999755859375</ele>
        <time>2026-08-22T00:14:40.000Z</time>
        <extensions>
          <ns3:TrackPointExtension>
            <ns3:hr>117</ns3:hr>
            <ns3:cad>53</ns3:cad>
          </ns3:TrackPointExtension>
        </extensions>
      </trkpt>
      <trkpt lat="45.29065229929983615875244140625" lon="-71.10670736990869045257568359375">
        <ele>849.20001220703125</ele>
        <time>2026-08-22T00:14:41.000Z</time>
        <extensions>
          <ns3:TrackPointExtension>
            <ns3:hr>117</ns3:hr>
            <ns3:cad>53</ns3:cad>
          </ns3:TrackPointExtension>
        </extensions>
      </trkpt>
      <trkpt lat="45.2906403131783008575439453125" lon="-71.10670954920351505279541015625">
        <ele>848.79998779296875</ele>
        <time>2026-08-22T00:14:42.000Z</time>
        <extensions>
          <ns3:TrackPointExtension>
            <ns3:hr>117</ns3:hr>
            <ns3:cad>53</ns3:cad>
          </ns3:TrackPointExtension>
        </extensions>
      </trkpt>
      <trkpt lat="45.290629751980304718017578125" lon="-71.1067200265824794769287109375">
        <ele>848.4000244140625</ele>
        <time>2026-08-22T00:14:43.000Z</time>
        <extensions>
          <ns3:TrackPointExtension>
            <ns3:hr>117</ns3:hr>
            <ns3:cad>53</ns3:cad>
          </ns3:TrackPointExtension>
        </extensions>
      </trkpt>
      <trkpt lat="45.2906161732971668243408203125" lon="-71.10673234798014163970947265625">
        <ele>848</ele>
        <time>2026-08-22T00:14:44.000Z</time>
        <extensions>
          <ns3:TrackPointExtension>
            <ns3:hr>117</ns3:hr>
            <ns3:cad>53</ns3:cad>
          </ns3:TrackPointExtension>
        </extensions>
      </trkpt>
      <trkpt lat="45.29060519300401210784912109375" lon="-71.1067428253591060638427734375">
        <ele>847.79998779296875</ele>
        <time>2026-08-22T00:14:45.000Z</time>
        <extensions>
          <ns3:TrackPointExtension>
            <ns3:hr>118</ns3:hr>
            <ns3:cad>53</ns3:cad>
          </ns3:TrackPointExtension>
        </extensions>
      </trkpt>
      <trkpt lat="45.29059966094791889190673828125" lon="-71.106745339930057525634765625">
        <ele>847.5999755859375</ele>
        <time>2026-08-22T00:14:46.000Z</time>
        <extensions>
          <ns3:TrackPointExtension>
            <ns3:hr>118</ns3:hr>
            <ns3:cad>53</ns3:cad>
          </ns3:TrackPointExtension>
        </extensions>
      </trkpt>
      <trkpt lat="45.2905865013599395751953125" lon="-71.10675648786127567291259765625">
        <ele>847.4000244140625</ele>
        <time>2026-08-22T00:14:47.000Z</time>
        <extensions>
          <ns3:TrackPointExtension>
            <ns3:hr>117</ns3:hr>
            <ns3:cad>60</ns3:cad>
          </ns3:TrackPointExtension>
        </extensions>
      </trkpt>
      <trkpt lat="45.29057451523840427398681640625" lon="-71.10677442513406276702880859375">
        <ele>847.20001220703125</ele>
        <time>2026-08-22T00:14:48.000Z</time>
        <extensions>
          <ns3:TrackPointExtension>
            <ns3:hr>118</ns3:hr>
            <ns3:cad>60</ns3:cad>
          </ns3:TrackPointExtension>
        </extensions>
      </trkpt>
      <trkpt lat="45.29056445695459842681884765625" lon="-71.10678699798882007598876953125">
        <ele>847</ele>
        <time>2026-08-22T00:14:49.000Z</time>
        <extensions>
          <ns3:TrackPointExtension>
            <ns3:hr>118</ns3:hr>
            <ns3:cad>60</ns3:cad>
          </ns3:TrackPointExtension>
        </extensions>
      </trkpt>
      <trkpt lat="45.29055590741336345672607421875" lon="-71.1067924462258815765380859375">
        <ele>846.5999755859375</ele>
        <time>2026-08-22T00:14:50.000Z</time>
        <extensions>
          <ns3:TrackPointExtension>
            <ns3:hr>118</ns3:hr>
            <ns3:cad>60</ns3:cad>
          </ns3:TrackPointExtension>
        </extensions>
      </trkpt>
      <trkpt lat="45.29054299928247928619384765625" lon="-71.106805019080638885498046875">
        <ele>846.4000244140625</ele>
        <time>2026-08-22T00:14:51.000Z</time>
        <extensions>
          <ns3:TrackPointExtension>
            <ns3:hr>117</ns3:hr>
            <ns3:cad>60</ns3:cad>
          </ns3:TrackPointExtension>
        </extensions>
      </trkpt>
      <trkpt lat="45.2905328571796417236328125" lon="-71.10681180842220783233642578125">
        <ele>846</ele>
        <time>2026-08-22T00:14:52.000Z</time>
        <extensions>
          <ns3:TrackPointExtension>
            <ns3:hr>117</ns3:hr>
            <ns3:cad>53</ns3:cad>
          </ns3:TrackPointExtension>
        </extensions>
      </trkpt>
      <trkpt lat="45.2905222959816455841064453125" lon="-71.10682153142988681793212890625">
        <ele>845.5999755859375</ele>
        <time>2026-08-22T00:14:53.000Z</time>
        <extensions>
          <ns3:TrackPointExtension>
            <ns3:hr>116</ns3:hr>
            <ns3:cad>53</ns3:cad>
          </ns3:TrackPointExtension>
        </extensions>
      </trkpt>
      <trkpt lat="45.29050628654658794403076171875" lon="-71.10683410428464412689208984375">
        <ele>845.20001220703125</ele>
        <time>2026-08-22T00:14:54.000Z</time>
        <extensions>
          <ns3:TrackPointExtension>
            <ns3:hr>116</ns3:hr>
            <ns3:cad>0</ns3:cad>
          </ns3:TrackPointExtension>
        </extensions>
      </trkpt>
      <trkpt lat="45.29049731791019439697265625" lon="-71.10683309845626354217529296875">
        <ele>845</ele>
        <time>2026-08-22T00:14:55.000Z</time>
        <extensions>
          <ns3:TrackPointExtension>
            <ns3:hr>116</ns3:hr>
            <ns3:cad>0</ns3:cad>
          </ns3:TrackPointExtension>
        </extensions>
      </trkpt>
      <trkpt lat="45.290485583245754241943359375" lon="-71.10683343373239040374755859375">
        <ele>844.5999755859375</ele>
        <time>2026-08-22T00:14:56.000Z</time>
        <extensions>
          <ns3:TrackPointExtension>
            <ns3:hr>115</ns3:hr>
            <ns3:cad>63</ns3:cad>
          </ns3:TrackPointExtension>
        </extensions>
      </trkpt>
      <trkpt lat="45.290475524961948394775390625" lon="-71.10683175735175609588623046875">
        <ele>844.4000244140625</ele>
        <time>2026-08-22T00:14:57.000Z</time>
        <extensions>
          <ns3:TrackPointExtension>
            <ns3:hr>115</ns3:hr>
            <ns3:cad>63</ns3:cad>
          </ns3:TrackPointExtension>
        </extensions>
      </trkpt>
      <trkpt lat="45.29046420939266681671142578125" lon="-71.1068321764469146728515625">
        <ele>844</ele>
        <time>2026-08-22T00:14:58.000Z</time>
        <extensions>
          <ns3:TrackPointExtension>
            <ns3:hr>115</ns3:hr>
            <ns3:cad>63</ns3:cad>
          </ns3:TrackPointExtension>
        </extensions>
      </trkpt>
      <trkpt lat="45.290455408394336700439453125" lon="-71.10683326609432697296142578125">
        <ele>843.79998779296875</ele>
        <time>2026-08-22T00:14:59.000Z</time>
        <extensions>
          <ns3:TrackPointExtension>
            <ns3:hr>115</ns3:hr>
            <ns3:cad>63</ns3:cad>
          </ns3:TrackPointExtension>
        </extensions>
      </trkpt>
      <trkpt lat="45.290446691215038299560546875" lon="-71.10683125443756580352783203125">
        <ele>843.4000244140625</ele>
        <time>2026-08-22T00:15:00.000Z</time>
        <extensions>
          <ns3:TrackPointExtension>
            <ns3:hr>115</ns3:hr>
            <ns3:cad>63</ns3:cad>
          </ns3:TrackPointExtension>
        </extensions>
      </trkpt>
      <trkpt lat="45.29043638147413730621337890625" lon="-71.1068276502192020416259765625">
        <ele>843.20001220703125</ele>
        <time>2026-08-22T00:15:01.000Z</time>
        <extensions>
          <ns3:TrackPointExtension>
            <ns3:hr>116</ns3:hr>
            <ns3:cad>0</ns3:cad>
          </ns3:TrackPointExtension>
        </extensions>
      </trkpt>
      <trkpt lat="45.2904287539422512054443359375" lon="-71.10682656057178974151611328125">
        <ele>842.79998779296875</ele>
        <time>2026-08-22T00:15:02.000Z</time>
        <extensions>
          <ns3:TrackPointExtension>
            <ns3:hr>117</ns3:hr>
            <ns3:cad>0</ns3:cad>
          </ns3:TrackPointExtension>
        </extensions>
      </trkpt>
      <trkpt lat="45.29041073285043239593505859375" lon="-71.1068214476108551025390625">
        <ele>842.5999755859375</ele>
        <time>2026-08-22T00:15:03.000Z</time>
        <extensions>
          <ns3:TrackPointExtension>
            <ns3:hr>116</ns3:hr>
            <ns3:cad>0</ns3:cad>
          </ns3:TrackPointExtension>
        </extensions>
      </trkpt>
      <trkpt lat="45.29040134511888027191162109375" lon="-71.10682211816310882568359375">
        <ele>842.20001220703125</ele>
        <time>2026-08-22T00:15:04.000Z</time>
        <extensions>
          <ns3:TrackPointExtension>
            <ns3:hr>115</ns3:hr>
            <ns3:cad>0</ns3:cad>
          </ns3:TrackPointExtension>
        </extensions>
      </trkpt>
      <trkpt lat="45.2903912030160427093505859375" lon="-71.10682387836277484893798828125">
        <ele>841.79998779296875</ele>
        <time>2026-08-22T00:15:05.000Z</time>
        <extensions>
          <ns3:TrackPointExtension>
            <ns3:hr>115</ns3:hr>
            <ns3:cad>0</ns3:cad>
          </ns3:TrackPointExtension>
        </extensions>
      </trkpt>
      <trkpt lat="45.29038072563707828521728515625" lon="-71.10682689584791660308837890625">
        <ele>841.5999755859375</ele>
        <time>2026-08-22T00:15:06.000Z</time>
        <extensions>
          <ns3:TrackPointExtension>
            <ns3:hr>115</ns3:hr>
            <ns3:cad>0</ns3:cad>
          </ns3:TrackPointExtension>
        </extensions>
      </trkpt>
      <trkpt lat="45.290373601019382476806640625" lon="-71.106829158961772918701171875">
        <ele>841.20001220703125</ele>
        <time>2026-08-22T00:15:07.000Z</time>
        <extensions>
          <ns3:TrackPointExtension>
            <ns3:hr>115</ns3:hr>
            <ns3:cad>0</ns3:cad>
          </ns3:TrackPointExtension>
        </extensions>
      </trkpt>
      <trkpt lat="45.29036446474492549896240234375" lon="-71.106831170618534088134765625">
        <ele>841</ele>
        <time>2026-08-22T00:15:08.000Z</time>
        <extensions>
          <ns3:TrackPointExtension>
            <ns3:hr>115</ns3:hr>
            <ns3:cad>0</ns3:cad>
          </ns3:TrackPointExtension>
        </extensions>
      </trkpt>
      <trkpt lat="45.29035423882305622100830078125" lon="-71.10683242790400981903076171875">
        <ele>840.79998779296875</ele>
        <time>2026-08-22T00:15:09.000Z</time>
        <extensions>
          <ns3:TrackPointExtension>
            <ns3:hr>116</ns3:hr>
            <ns3:cad>0</ns3:cad>
          </ns3:TrackPointExtension>
        </extensions>
      </trkpt>
      <trkpt lat="45.29035021550953388214111328125" lon="-71.10683619976043701171875">
        <ele>840.5999755859375</ele>
        <time>2026-08-22T00:15:10.000Z</time>
        <extensions>
          <ns3:TrackPointExtension>
            <ns3:hr>116</ns3:hr>
            <ns3:cad>0</ns3:cad>
          </ns3:TrackPointExtension>
        </extensions>
      </trkpt>
      <trkpt lat="45.2903456054627895355224609375" lon="-71.1068367026746273040771484375">
        <ele>840.4000244140625</ele>
        <time>2026-08-22T00:15:11.000Z</time>
        <extensions>
          <ns3:TrackPointExtension>
            <ns3:hr>116</ns3:hr>
            <ns3:cad>0</ns3:cad>
          </ns3:TrackPointExtension>
        </extensions>
      </trkpt>
      <trkpt lat="45.2903395704925060272216796875" lon="-71.106842570006847381591796875">
        <ele>840.20001220703125</ele>
        <time>2026-08-22T00:15:12.000Z</time>
        <extensions>
          <ns3:TrackPointExtension>
            <ns3:hr>116</ns3:hr>
            <ns3:cad>0</ns3:cad>
          </ns3:TrackPointExtension>
        </extensions>
      </trkpt>
      <trkpt lat="45.2903301827609539031982421875" lon="-71.1068460904061794281005859375">
        <ele>840</ele>
        <time>2026-08-22T00:15:13.000Z</time>
        <extensions>
          <ns3:TrackPointExtension>
            <ns3:hr>117</ns3:hr>
            <ns3:cad>0</ns3:cad>
          </ns3:TrackPointExtension>
        </extensions>
      </trkpt>
      <trkpt lat="45.2903204597532749176025390625" lon="-71.1068481020629405975341796875">
        <ele>839.79998779296875</ele>
        <time>2026-08-22T00:15:14.000Z</time>
        <extensions>
          <ns3:TrackPointExtension>
            <ns3:hr>116</ns3:hr>
            <ns3:cad>0</ns3:cad>
          </ns3:TrackPointExtension>
        </extensions>
      </trkpt>
      <trkpt lat="45.29031224548816680908203125" lon="-71.10684533603489398956298828125">
        <ele>839.5999755859375</ele>
        <time>2026-08-22T00:15:15.000Z</time>
        <extensions>
          <ns3:TrackPointExtension>
            <ns3:hr>116</ns3:hr>
            <ns3:cad>0</ns3:cad>
          </ns3:TrackPointExtension>
        </extensions>
      </trkpt>
      <trkpt lat="45.29030009172856807708740234375" lon="-71.1068477667868137359619140625">
        <ele>839.4000244140625</ele>
        <time>2026-08-22T00:15:16.000Z</time>
        <extensions>
          <ns3:TrackPointExtension>
            <ns3:hr>115</ns3:hr>
            <ns3:cad>0</ns3:cad>
          </ns3:TrackPointExtension>
        </extensions>
      </trkpt>
      <trkpt lat="45.29029506258666515350341796875" lon="-71.10685757361352443695068359375">
        <ele>839.20001220703125</ele>
        <time>2026-08-22T00:15:17.000Z</time>
        <extensions>
          <ns3:TrackPointExtension>
            <ns3:hr>115</ns3:hr>
            <ns3:cad>0</ns3:cad>
          </ns3:TrackPointExtension>
        </extensions>
      </trkpt>
      <trkpt lat="45.29028936289250850677490234375" lon="-71.106864698231220245361328125">
        <ele>839</ele>
        <time>2026-08-22T00:15:18.000Z</time>
        <extensions>
          <ns3:TrackPointExtension>
            <ns3:hr>115</ns3:hr>
            <ns3:cad>0</ns3:cad>
          </ns3:TrackPointExtension>
        </extensions>
      </trkpt>
      <trkpt lat="45.2902825735509395599365234375" lon="-71.10686914063990116119384765625">
        <ele>838.79998779296875</ele>
        <time>2026-08-22T00:15:19.000Z</time>
        <extensions>
          <ns3:TrackPointExtension>
            <ns3:hr>115</ns3:hr>
            <ns3:cad>0</ns3:cad>
          </ns3:TrackPointExtension>
        </extensions>
      </trkpt>
      <trkpt lat="45.29027335345745086669921875" lon="-71.106868050992488861083984375">
        <ele>838.5999755859375</ele>
        <time>2026-08-22T00:15:20.000Z</time>
        <extensions>
          <ns3:TrackPointExtension>
            <ns3:hr>115</ns3:hr>
            <ns3:cad>0</ns3:cad>
          </ns3:TrackPointExtension>
        </extensions>
      </trkpt>
      <trkpt lat="45.29026639647781848907470703125" lon="-71.10686293803155422210693359375">
        <ele>838.5999755859375</ele>
        <time>2026-08-22T00:15:21.000Z</time>
        <extensions>
          <ns3:TrackPointExtension>
            <ns3:hr>115</ns3:hr>
            <ns3:cad>0</ns3:cad>
          </ns3:TrackPointExtension>
        </extensions>
      </trkpt>
      <trkpt lat="45.29025600291788578033447265625" lon="-71.10686377622187137603759765625">
        <ele>838.20001220703125</ele>
        <time>2026-08-22T00:15:22.000Z</time>
        <extensions>
          <ns3:TrackPointExtension>
            <ns3:hr>115</ns3:hr>
            <ns3:cad>0</ns3:cad>
          </ns3:TrackPointExtension>
        </extensions>
      </trkpt>
      <trkpt lat="45.29024527408182621002197265625" lon="-71.106868721544742584228515625">
        <ele>838</ele>
        <time>2026-08-22T00:15:23.000Z</time>
        <extensions>
          <ns3:TrackPointExtension>
            <ns3:hr>115</ns3:hr>
            <ns3:cad>0</ns3:cad>
          </ns3:TrackPointExtension>
        </extensions>
      </trkpt>
      <trkpt lat="45.29023773036897182464599609375" lon="-71.10687232576310634613037109375">
        <ele>837.5999755859375</ele>
        <time>2026-08-22T00:15:24.000Z</time>
        <extensions>
          <ns3:TrackPointExtension>
            <ns3:hr>115</ns3:hr>
            <ns3:cad>0</ns3:cad>
          </ns3:TrackPointExtension>
        </extensions>
      </trkpt>
      <trkpt lat="45.2902289293706417083740234375" lon="-71.10687500797212123870849609375">
        <ele>837.4000244140625</ele>
        <time>2026-08-22T00:15:25.000Z</time>
        <extensions>
          <ns3:TrackPointExtension>
            <ns3:hr>116</ns3:hr>
            <ns3:cad>0</ns3:cad>
          </ns3:TrackPointExtension>
        </extensions>
      </trkpt>
      <trkpt lat="45.2902185358107089996337890625" lon="-71.10687534324824810028076171875">
        <ele>837.20001220703125</ele>
        <time>2026-08-22T00:15:26.000Z</time>
        <extensions>
          <ns3:TrackPointExtension>
            <ns3:hr>117</ns3:hr>
            <ns3:cad>0</ns3:cad>
          </ns3:TrackPointExtension>
        </extensions>
      </trkpt>
      <trkpt lat="45.29020629823207855224609375" lon="-71.1068809591233730316162109375">
        <ele>837</ele>
        <time>2026-08-22T00:15:27.000Z</time>
        <extensions>
          <ns3:TrackPointExtension>
            <ns3:hr>118</ns3:hr>
            <ns3:cad>0</ns3:cad>
          </ns3:TrackPointExtension>
        </extensions>
      </trkpt>
      <trkpt lat="45.290198586881160736083984375" lon="-71.1068831384181976318359375">
        <ele>836.79998779296875</ele>
        <time>2026-08-22T00:15:28.000Z</time>
        <extensions>
          <ns3:TrackPointExtension>
            <ns3:hr>118</ns3:hr>
            <ns3:cad>0</ns3:cad>
          </ns3:TrackPointExtension>
        </extensions>
      </trkpt>
      <trkpt lat="45.290187187492847442626953125" lon="-71.10688590444624423980712890625">
        <ele>836.79998779296875</ele>
        <time>2026-08-22T00:15:29.000Z</time>
        <extensions>
          <ns3:TrackPointExtension>
            <ns3:hr>118</ns3:hr>
            <ns3:cad>0</ns3:cad>
          </ns3:TrackPointExtension>
        </extensions>
      </trkpt>
      <trkpt lat="45.290172100067138671875" lon="-71.1068906821310520172119140625">
        <ele>836.5999755859375</ele>
        <time>2026-08-22T00:15:30.000Z</time>
        <extensions>
          <ns3:TrackPointExtension>
            <ns3:hr>117</ns3:hr>
            <ns3:cad>0</ns3:cad>
          </ns3:TrackPointExtension>
        </extensions>
      </trkpt>
      <trkpt lat="45.2901612035930156707763671875" lon="-71.1068960465490818023681640625">
        <ele>836.4000244140625</ele>
        <time>2026-08-22T00:15:31.000Z</time>
        <extensions>
          <ns3:TrackPointExtension>
            <ns3:hr>118</ns3:hr>
            <ns3:cad>0</ns3:cad>
          </ns3:TrackPointExtension>
        </extensions>
      </trkpt>
      <trkpt lat="45.29015240259468555450439453125" lon="-71.10690367408096790313720703125">
        <ele>836.20001220703125</ele>
        <time>2026-08-22T00:15:32.000Z</time>
        <extensions>
          <ns3:TrackPointExtension>
            <ns3:hr>118</ns3:hr>
            <ns3:cad>0</ns3:cad>
          </ns3:TrackPointExtension>
        </extensions>
      </trkpt>
      <trkpt lat="45.29014435596764087677001953125" lon="-71.10691272653639316558837890625">
        <ele>835.79998779296875</ele>
        <time>2026-08-22T00:15:33.000Z</time>
        <extensions>
          <ns3:TrackPointExtension>
            <ns3:hr>117</ns3:hr>
            <ns3:cad>0</ns3:cad>
          </ns3:TrackPointExtension>
        </extensions>
      </trkpt>
      <trkpt lat="45.29013413004577159881591796875" lon="-71.10691624693572521209716796875">
        <ele>835.5999755859375</ele>
        <time>2026-08-22T00:15:34.000Z</time>
        <extensions>
          <ns3:TrackPointExtension>
            <ns3:hr>118</ns3:hr>
            <ns3:cad>0</ns3:cad>
          </ns3:TrackPointExtension>
        </extensions>
      </trkpt>
      <trkpt lat="45.29012574814260005950927734375" lon="-71.10691959969699382781982421875">
        <ele>835.20001220703125</ele>
        <time>2026-08-22T00:15:35.000Z</time>
        <extensions>
          <ns3:TrackPointExtension>
            <ns3:hr>118</ns3:hr>
            <ns3:cad>0</ns3:cad>
          </ns3:TrackPointExtension>
        </extensions>
      </trkpt>
      <trkpt lat="45.29011988081037998199462890625" lon="-71.10692446120083332061767578125">
        <ele>835</ele>
        <time>2026-08-22T00:15:36.000Z</time>
        <extensions>
          <ns3:TrackPointExtension>
            <ns3:hr>117</ns3:hr>
            <ns3:cad>0</ns3:cad>
          </ns3:TrackPointExtension>
        </extensions>
      </trkpt>
      <trkpt lat="45.2901172824203968048095703125" lon="-71.10693150199949741363525390625">
        <ele>834.79998779296875</ele>
        <time>2026-08-22T00:15:37.000Z</time>
        <extensions>
          <ns3:TrackPointExtension>
            <ns3:hr>117</ns3:hr>
            <ns3:cad>0</ns3:cad>
          </ns3:TrackPointExtension>
        </extensions>
      </trkpt>
      <trkpt lat="45.29011200182139873504638671875" lon="-71.10693418420851230621337890625">
        <ele>834.5999755859375</ele>
        <time>2026-08-22T00:15:38.000Z</time>
        <extensions>
          <ns3:TrackPointExtension>
            <ns3:hr>117</ns3:hr>
            <ns3:cad>0</ns3:cad>
          </ns3:TrackPointExtension>
        </extensions>
      </trkpt>
      <trkpt lat="45.2901075594127178192138671875" lon="-71.1069332621991634368896484375">
        <ele>834.4000244140625</ele>
        <time>2026-08-22T00:15:39.000Z</time>
        <extensions>
          <ns3:TrackPointExtension>
            <ns3:hr>116</ns3:hr>
            <ns3:cad>0</ns3:cad>
          </ns3:TrackPointExtension>
        </extensions>
      </trkpt>
      <trkpt lat="45.2901142649352550506591796875" lon="-71.1069359444081783294677734375">
        <ele>834.20001220703125</ele>
        <time>2026-08-22T00:15:40.000Z</time>
        <extensions>
          <ns3:TrackPointExtension>
            <ns3:hr>116</ns3:hr>
            <ns3:cad>55</ns3:cad>
          </ns3:TrackPointExtension>
        </extensions>
      </trkpt>
      <trkpt lat="45.2901142649352550506591796875" lon="-71.1069329269230365753173828125">
        <ele>834.20001220703125</ele>
        <time>2026-08-22T00:15:41.000Z</time>
        <extensions>
          <ns3:TrackPointExtension>
            <ns3:hr>115</ns3:hr>
            <ns3:cad>55</ns3:cad>
          </ns3:TrackPointExtension>
        </extensions>
      </trkpt>
      <trkpt lat="45.29010697267949581146240234375" lon="-71.10693284310400485992431640625">
        <ele>834</ele>
        <time>2026-08-22T00:15:42.000Z</time>
        <extensions>
          <ns3:TrackPointExtension>
            <ns3:hr>115</ns3:hr>
            <ns3:cad>55</ns3:cad>
          </ns3:TrackPointExtension>
        </extensions>
      </trkpt>
      <trkpt lat="45.29010864906013011932373046875" lon="-71.10693183727562427520751953125">
        <ele>833.79998779296875</ele>
        <time>2026-08-22T00:15:43.000Z</time>
        <extensions>
          <ns3:TrackPointExtension>
            <ns3:hr>115</ns3:hr>
            <ns3:cad>55</ns3:cad>
          </ns3:TrackPointExtension>
        </extensions>
      </trkpt>
      <trkpt lat="45.2901075594127178192138671875" lon="-71.1069309152662754058837890625">
        <ele>833.79998779296875</ele>
        <time>2026-08-22T00:15:44.000Z</time>
        <extensions>
          <ns3:TrackPointExtension>
            <ns3:hr>114</ns3:hr>
            <ns3:cad>0</ns3:cad>
          </ns3:TrackPointExtension>
        </extensions>
      </trkpt>
      <trkpt lat="45.2901052124798297882080078125" lon="-71.10693083144724369049072265625">
        <ele>833.79998779296875</ele>
        <time>2026-08-22T00:15:45.000Z</time>
        <extensions>
          <ns3:TrackPointExtension>
            <ns3:hr>114</ns3:hr>
            <ns3:cad>0</ns3:cad>
          </ns3:TrackPointExtension>
        </extensions>
      </trkpt>
      <trkpt lat="45.29010060243308544158935546875" lon="-71.10693049617111682891845703125">
        <ele>834</ele>
        <time>2026-08-22T00:15:46.000Z</time>
        <extensions>
          <ns3:TrackPointExtension>
            <ns3:hr>114</ns3:hr>
            <ns3:cad>0</ns3:cad>
          </ns3:TrackPointExtension>
        </extensions>
      </trkpt>
      <trkpt lat="45.29009423218667507171630859375" lon="-71.1069299094378948211669921875">
        <ele>834</ele>
        <time>2026-08-22T00:15:47.000Z</time>
        <extensions>
          <ns3:TrackPointExtension>
            <ns3:hr>114</ns3:hr>
            <ns3:cad>0</ns3:cad>
          </ns3:TrackPointExtension>
        </extensions>
      </trkpt>
      <trkpt lat="45.29008970595896244049072265625" lon="-71.10693032853305339813232421875">
        <ele>833.79998779296875</ele>
        <time>2026-08-22T00:15:48.000Z</time>
        <extensions>
          <ns3:TrackPointExtension>
            <ns3:hr>114</ns3:hr>
            <ns3:cad>0</ns3:cad>
          </ns3:TrackPointExtension>
        </extensions>
      </trkpt>
      <trkpt lat="45.29008333571255207061767578125" lon="-71.10693116672337055206298828125">
        <ele>833.5999755859375</ele>
        <time>2026-08-22T00:15:49.000Z</time>
        <extensions>
          <ns3:TrackPointExtension>
            <ns3:hr>113</ns3:hr>
            <ns3:cad>0</ns3:cad>
          </ns3:TrackPointExtension>
        </extensions>
      </trkpt>
      <trkpt lat="45.29007621109485626220703125" lon="-71.10693384893238544464111328125">
        <ele>833.4000244140625</ele>
        <time>2026-08-22T00:15:50.000Z</time>
        <extensions>
          <ns3:TrackPointExtension>
            <ns3:hr>113</ns3:hr>
            <ns3:cad>0</ns3:cad>
          </ns3:TrackPointExtension>
        </extensions>
      </trkpt>
      <trkpt lat="45.290065817534923553466796875" lon="-71.10693351365625858306884765625">
        <ele>833.20001220703125</ele>
        <time>2026-08-22T00:15:51.000Z</time>
        <extensions>
          <ns3:TrackPointExtension>
            <ns3:hr>112</ns3:hr>
            <ns3:cad>41</ns3:cad>
          </ns3:TrackPointExtension>
        </extensions>
      </trkpt>
      <trkpt lat="45.29005743563175201416015625" lon="-71.106930412352085113525390625">
        <ele>832.79998779296875</ele>
        <time>2026-08-22T00:15:52.000Z</time>
        <extensions>
          <ns3:TrackPointExtension>
            <ns3:hr>112</ns3:hr>
            <ns3:cad>41</ns3:cad>
          </ns3:TrackPointExtension>
        </extensions>
      </trkpt>
      <trkpt lat="45.290049053728580474853515625" lon="-71.10693099908530712127685546875">
        <ele>832.5999755859375</ele>
        <time>2026-08-22T00:15:53.000Z</time>
        <extensions>
          <ns3:TrackPointExtension>
            <ns3:hr>112</ns3:hr>
            <ns3:cad>0</ns3:cad>
          </ns3:TrackPointExtension>
        </extensions>
      </trkpt>
      <trkpt lat="45.29004528187215328216552734375" lon="-71.10693820752203464508056640625">
        <ele>832.4000244140625</ele>
        <time>2026-08-22T00:15:54.000Z</time>
        <extensions>
          <ns3:TrackPointExtension>
            <ns3:hr>112</ns3:hr>
            <ns3:cad>0</ns3:cad>
          </ns3:TrackPointExtension>
        </extensions>
      </trkpt>
      <trkpt lat="45.29003866016864776611328125" lon="-71.1069449968636035919189453125">
        <ele>832.20001220703125</ele>
        <time>2026-08-22T00:15:55.000Z</time>
        <extensions>
          <ns3:TrackPointExtension>
            <ns3:hr>112</ns3:hr>
            <ns3:cad>0</ns3:cad>
          </ns3:TrackPointExtension>
        </extensions>
      </trkpt>
      <trkpt lat="45.29003220610320568084716796875" lon="-71.10694725997745990753173828125">
        <ele>832</ele>
        <time>2026-08-22T00:15:56.000Z</time>
        <extensions>
          <ns3:TrackPointExtension>
            <ns3:hr>111</ns3:hr>
            <ns3:cad>0</ns3:cad>
          </ns3:TrackPointExtension>
        </extensions>
      </trkpt>
      <trkpt lat="45.29002524912357330322265625" lon="-71.10695396549999713897705078125">
        <ele>831.79998779296875</ele>
        <time>2026-08-22T00:15:57.000Z</time>
        <extensions>
          <ns3:TrackPointExtension>
            <ns3:hr>111</ns3:hr>
            <ns3:cad>0</ns3:cad>
          </ns3:TrackPointExtension>
        </extensions>
      </trkpt>
      <trkpt lat="45.2900183759629726409912109375" lon="-71.10695849172770977020263671875">
        <ele>831.5999755859375</ele>
        <time>2026-08-22T00:15:58.000Z</time>
        <extensions>
          <ns3:TrackPointExtension>
            <ns3:hr>111</ns3:hr>
            <ns3:cad>47</ns3:cad>
          </ns3:TrackPointExtension>
        </extensions>
      </trkpt>
      <trkpt lat="45.29001041315495967864990234375" lon="-71.1069644428789615631103515625">
        <ele>831.4000244140625</ele>
        <time>2026-08-22T00:15:59.000Z</time>
        <extensions>
          <ns3:TrackPointExtension>
            <ns3:hr>111</ns3:hr>
            <ns3:cad>47</ns3:cad>
          </ns3:TrackPointExtension>
        </extensions>
      </trkpt>
      <trkpt lat="45.28999867849051952362060546875" lon="-71.10697072930634021759033203125">
        <ele>831.20001220703125</ele>
        <time>2026-08-22T00:16:00.000Z</time>
        <extensions>
          <ns3:TrackPointExtension>
            <ns3:hr>111</ns3:hr>
            <ns3:cad>47</ns3:cad>
          </ns3:TrackPointExtension>
        </extensions>
      </trkpt>
      <trkpt lat="45.28999130241572856903076171875" lon="-71.10697961412370204925537109375">
        <ele>831.20001220703125</ele>
        <time>2026-08-22T00:16:01.000Z</time>
        <extensions>
          <ns3:TrackPointExtension>
            <ns3:hr>111</ns3:hr>
            <ns3:cad>0</ns3:cad>
          </ns3:TrackPointExtension>
        </extensions>
      </trkpt>
      <trkpt lat="45.28998476453125476837158203125" lon="-71.10698414035141468048095703125">
        <ele>831</ele>
        <time>2026-08-22T00:16:02.000Z</time>
        <extensions>
          <ns3:TrackPointExtension>
            <ns3:hr>110</ns3:hr>
            <ns3:cad>0</ns3:cad>
          </ns3:TrackPointExtension>
        </extensions>
      </trkpt>
      <trkpt lat="45.28997973538935184478759765625" lon="-71.1069895885884761810302734375">
        <ele>830.79998779296875</ele>
        <time>2026-08-22T00:16:03.000Z</time>
        <extensions>
          <ns3:TrackPointExtension>
            <ns3:hr>111</ns3:hr>
            <ns3:cad>0</ns3:cad>
          </ns3:TrackPointExtension>
        </extensions>
      </trkpt>
      <trkpt lat="45.28996481560170650482177734375" lon="-71.1069983057677745819091796875">
        <ele>830.4000244140625</ele>
        <time>2026-08-22T00:16:04.000Z</time>
        <extensions>
          <ns3:TrackPointExtension>
            <ns3:hr>111</ns3:hr>
            <ns3:cad>0</ns3:cad>
          </ns3:TrackPointExtension>
        </extensions>
      </trkpt>
      <trkpt lat="45.28995710425078868865966796875" lon="-71.10700811259448528289794921875">
        <ele>830.20001220703125</ele>
        <time>2026-08-22T00:16:05.000Z</time>
        <extensions>
          <ns3:TrackPointExtension>
            <ns3:hr>112</ns3:hr>
            <ns3:cad>0</ns3:cad>
          </ns3:TrackPointExtension>
        </extensions>
      </trkpt>
      <trkpt lat="45.2899535000324249267578125" lon="-71.10701314173638820648193359375">
        <ele>829.79998779296875</ele>
        <time>2026-08-22T00:16:06.000Z</time>
        <extensions>
          <ns3:TrackPointExtension>
            <ns3:hr>113</ns3:hr>
            <ns3:cad>0</ns3:cad>
          </ns3:TrackPointExtension>
        </extensions>
      </trkpt>
      <trkpt lat="45.28994788415729999542236328125" lon="-71.107016243040561676025390625">
        <ele>829.5999755859375</ele>
        <time>2026-08-22T00:16:07.000Z</time>
        <extensions>
          <ns3:TrackPointExtension>
            <ns3:hr>114</ns3:hr>
            <ns3:cad>0</ns3:cad>
          </ns3:TrackPointExtension>
        </extensions>
      </trkpt>
      <trkpt lat="45.2899335511028766632080078125" lon="-71.10702462494373321533203125">
        <ele>829.20001220703125</ele>
        <time>2026-08-22T00:16:08.000Z</time>
        <extensions>
          <ns3:TrackPointExtension>
            <ns3:hr>116</ns3:hr>
            <ns3:cad>0</ns3:cad>
          </ns3:TrackPointExtension>
        </extensions>
      </trkpt>
      <trkpt lat="45.28992642648518085479736328125" lon="-71.1070346832275390625">
        <ele>828.79998779296875</ele>
        <time>2026-08-22T00:16:09.000Z</time>
        <extensions>
          <ns3:TrackPointExtension>
            <ns3:hr>117</ns3:hr>
            <ns3:cad>0</ns3:cad>
          </ns3:TrackPointExtension>
        </extensions>
      </trkpt>
      <trkpt lat="45.289916284382343292236328125" lon="-71.1070455797016620635986328125">
        <ele>828.5999755859375</ele>
        <time>2026-08-22T00:16:10.000Z</time>
        <extensions>
          <ns3:TrackPointExtension>
            <ns3:hr>117</ns3:hr>
            <ns3:cad>0</ns3:cad>
          </ns3:TrackPointExtension>
        </extensions>
      </trkpt>
      <trkpt lat="45.289904884994029998779296875" lon="-71.10705689527094364166259765625">
        <ele>828.4000244140625</ele>
        <time>2026-08-22T00:16:11.000Z</time>
        <extensions>
          <ns3:TrackPointExtension>
            <ns3:hr>117</ns3:hr>
            <ns3:cad>0</ns3:cad>
          </ns3:TrackPointExtension>
        </extensions>
      </trkpt>
      <trkpt lat="45.28989658690989017486572265625" lon="-71.10706527717411518096923828125">
        <ele>828.20001220703125</ele>
        <time>2026-08-22T00:16:12.000Z</time>
        <extensions>
          <ns3:TrackPointExtension>
            <ns3:hr>118</ns3:hr>
            <ns3:cad>0</ns3:cad>
          </ns3:TrackPointExtension>
        </extensions>
      </trkpt>
      <trkpt lat="45.289890468120574951171875" lon="-71.10707449726760387420654296875">
        <ele>828</ele>
        <time>2026-08-22T00:16:13.000Z</time>
        <extensions>
          <ns3:TrackPointExtension>
            <ns3:hr>117</ns3:hr>
            <ns3:cad>57</ns3:cad>
          </ns3:TrackPointExtension>
        </extensions>
      </trkpt>
      <trkpt lat="45.28988267295062541961669921875" lon="-71.10708220861852169036865234375">
        <ele>828</ele>
        <time>2026-08-22T00:16:14.000Z</time>
        <extensions>
          <ns3:TrackPointExtension>
            <ns3:hr>117</ns3:hr>
            <ns3:cad>57</ns3:cad>
          </ns3:TrackPointExtension>
        </extensions>
      </trkpt>
      <trkpt lat="45.289870686829090118408203125" lon="-71.10709478147327899932861328125">
        <ele>827.79998779296875</ele>
        <time>2026-08-22T00:16:15.000Z</time>
        <extensions>
          <ns3:TrackPointExtension>
            <ns3:hr>117</ns3:hr>
            <ns3:cad>57</ns3:cad>
          </ns3:TrackPointExtension>
        </extensions>
      </trkpt>
      <trkpt lat="45.28986222110688686370849609375" lon="-71.10711045563220977783203125">
        <ele>827.79998779296875</ele>
        <time>2026-08-22T00:16:16.000Z</time>
        <extensions>
          <ns3:TrackPointExtension>
            <ns3:hr>117</ns3:hr>
            <ns3:cad>57</ns3:cad>
          </ns3:TrackPointExtension>
        </extensions>
      </trkpt>
      <trkpt lat="45.28985518030822277069091796875" lon="-71.1071220226585865020751953125">
        <ele>827.5999755859375</ele>
        <time>2026-08-22T00:16:17.000Z</time>
        <extensions>
          <ns3:TrackPointExtension>
            <ns3:hr>116</ns3:hr>
            <ns3:cad>55</ns3:cad>
          </ns3:TrackPointExtension>
        </extensions>
      </trkpt>
      <trkpt lat="45.28985132463276386260986328125" lon="-71.107131578028202056884765625">
        <ele>827.4000244140625</ele>
        <time>2026-08-22T00:16:18.000Z</time>
        <extensions>
          <ns3:TrackPointExtension>
            <ns3:hr>115</ns3:hr>
            <ns3:cad>55</ns3:cad>
          </ns3:TrackPointExtension>
        </extensions>
      </trkpt>
      <trkpt lat="45.28984227217733860015869140625" lon="-71.107144318521022796630859375">
        <ele>827.20001220703125</ele>
        <time>2026-08-22T00:16:19.000Z</time>
        <extensions>
          <ns3:TrackPointExtension>
            <ns3:hr>115</ns3:hr>
            <ns3:cad>55</ns3:cad>
          </ns3:TrackPointExtension>
        </extensions>
      </trkpt>
      <trkpt lat="45.289837829768657684326171875" lon="-71.1071589030325412750244140625">
        <ele>827.20001220703125</ele>
        <time>2026-08-22T00:16:20.000Z</time>
        <extensions>
          <ns3:TrackPointExtension>
            <ns3:hr>114</ns3:hr>
            <ns3:cad>55</ns3:cad>
          </ns3:TrackPointExtension>
        </extensions>
      </trkpt>
      <trkpt lat="45.2898329682648181915283203125" lon="-71.1071652732789516448974609375">
        <ele>827</ele>
        <time>2026-08-22T00:16:21.000Z</time>
        <extensions>
          <ns3:TrackPointExtension>
            <ns3:hr>114</ns3:hr>
            <ns3:cad>55</ns3:cad>
          </ns3:TrackPointExtension>
        </extensions>
      </trkpt>
      <trkpt lat="45.28982500545680522918701171875" lon="-71.107180528342723846435546875">
        <ele>826.5999755859375</ele>
        <time>2026-08-22T00:16:22.000Z</time>
        <extensions>
          <ns3:TrackPointExtension>
            <ns3:hr>114</ns3:hr>
            <ns3:cad>55</ns3:cad>
          </ns3:TrackPointExtension>
        </extensions>
      </trkpt>
      <trkpt lat="45.28981813229620456695556640625" lon="-71.10719452612102031707763671875">
        <ele>826.4000244140625</ele>
        <time>2026-08-22T00:16:23.000Z</time>
        <extensions>
          <ns3:TrackPointExtension>
            <ns3:hr>114</ns3:hr>
            <ns3:cad>55</ns3:cad>
          </ns3:TrackPointExtension>
        </extensions>
      </trkpt>
      <trkpt lat="45.28981394134461879730224609375" lon="-71.10720894299447536468505859375">
        <ele>826</ele>
        <time>2026-08-22T00:16:24.000Z</time>
        <extensions>
          <ns3:TrackPointExtension>
            <ns3:hr>114</ns3:hr>
            <ns3:cad>48</ns3:cad>
          </ns3:TrackPointExtension>
        </extensions>
      </trkpt>
      <trkpt lat="45.2898091636598110198974609375" lon="-71.10722713172435760498046875">
        <ele>825.5999755859375</ele>
        <time>2026-08-22T00:16:25.000Z</time>
        <extensions>
          <ns3:TrackPointExtension>
            <ns3:hr>114</ns3:hr>
            <ns3:cad>48</ns3:cad>
          </ns3:TrackPointExtension>
        </extensions>
      </trkpt>
      <trkpt lat="45.28980522416532039642333984375" lon="-71.1072398722171783447265625">
        <ele>825.20001220703125</ele>
        <time>2026-08-22T00:16:26.000Z</time>
        <extensions>
          <ns3:TrackPointExtension>
            <ns3:hr>113</ns3:hr>
            <ns3:cad>48</ns3:cad>
          </ns3:TrackPointExtension>
        </extensions>
      </trkpt>
      <trkpt lat="45.28979399241507053375244140625" lon="-71.1072517745196819305419921875">
        <ele>824.79998779296875</ele>
        <time>2026-08-22T00:16:27.000Z</time>
        <extensions>
          <ns3:TrackPointExtension>
            <ns3:hr>113</ns3:hr>
            <ns3:cad>51</ns3:cad>
          </ns3:TrackPointExtension>
        </extensions>
      </trkpt>
      <trkpt lat="45.28979198075830936431884765625" lon="-71.107275076210498809814453125">
        <ele>824.4000244140625</ele>
        <time>2026-08-22T00:16:28.000Z</time>
        <extensions>
          <ns3:TrackPointExtension>
            <ns3:hr>113</ns3:hr>
            <ns3:cad>51</ns3:cad>
          </ns3:TrackPointExtension>
        </extensions>
      </trkpt>
      <trkpt lat="45.28979348950088024139404296875" lon="-71.10729125328361988067626953125">
        <ele>824.20001220703125</ele>
        <time>2026-08-22T00:16:29.000Z</time>
        <extensions>
          <ns3:TrackPointExtension>
            <ns3:hr>112</ns3:hr>
            <ns3:cad>51</ns3:cad>
          </ns3:TrackPointExtension>
        </extensions>
      </trkpt>
      <trkpt lat="45.289793573319911956787109375" lon="-71.10731271095573902130126953125">
        <ele>824</ele>
        <time>2026-08-22T00:16:30.000Z</time>
        <extensions>
          <ns3:TrackPointExtension>
            <ns3:hr>112</ns3:hr>
            <ns3:cad>51</ns3:cad>
          </ns3:TrackPointExtension>
        </extensions>
      </trkpt>
      <trkpt lat="45.28979214839637279510498046875" lon="-71.1073342524468898773193359375">
        <ele>823.79998779296875</ele>
        <time>2026-08-22T00:16:31.000Z</time>
        <extensions>
          <ns3:TrackPointExtension>
            <ns3:hr>112</ns3:hr>
            <ns3:cad>51</ns3:cad>
          </ns3:TrackPointExtension>
        </extensions>
      </trkpt>
      <trkpt lat="45.2897897176444530487060546875" lon="-71.1073516868054866790771484375">
        <ele>823.5999755859375</ele>
        <time>2026-08-22T00:16:32.000Z</time>
        <extensions>
          <ns3:TrackPointExtension>
            <ns3:hr>112</ns3:hr>
            <ns3:cad>51</ns3:cad>
          </ns3:TrackPointExtension>
        </extensions>
      </trkpt>
      <trkpt lat="45.2897925674915313720703125" lon="-71.10737071372568607330322265625">
        <ele>823.4000244140625</ele>
        <time>2026-08-22T00:16:33.000Z</time>
        <extensions>
          <ns3:TrackPointExtension>
            <ns3:hr>112</ns3:hr>
            <ns3:cad>51</ns3:cad>
          </ns3:TrackPointExtension>
        </extensions>
      </trkpt>
      <trkpt lat="45.2897920645773410797119140625" lon="-71.10739032737910747528076171875">
        <ele>823.4000244140625</ele>
        <time>2026-08-22T00:16:34.000Z</time>
        <extensions>
          <ns3:TrackPointExtension>
            <ns3:hr>112</ns3:hr>
            <ns3:cad>51</ns3:cad>
          </ns3:TrackPointExtension>
        </extensions>
      </trkpt>
      <trkpt lat="45.2897898852825164794921875" lon="-71.10740507952868938446044921875">
        <ele>823.20001220703125</ele>
        <time>2026-08-22T00:16:35.000Z</time>
        <extensions>
          <ns3:TrackPointExtension>
            <ns3:hr>112</ns3:hr>
            <ns3:cad>51</ns3:cad>
          </ns3:TrackPointExtension>
        </extensions>
      </trkpt>
      <trkpt lat="45.28979080729186534881591796875" lon="-71.10742636956274509429931640625">
        <ele>823.20001220703125</ele>
        <time>2026-08-22T00:16:36.000Z</time>
        <extensions>
          <ns3:TrackPointExtension>
            <ns3:hr>112</ns3:hr>
            <ns3:cad>59</ns3:cad>
          </ns3:TrackPointExtension>
        </extensions>
      </trkpt>
      <trkpt lat="45.28979013673961162567138671875" lon="-71.1074425466358661651611328125">
        <ele>823</ele>
        <time>2026-08-22T00:16:37.000Z</time>
        <extensions>
          <ns3:TrackPointExtension>
            <ns3:hr>112</ns3:hr>
            <ns3:cad>59</ns3:cad>
          </ns3:TrackPointExtension>
        </extensions>
      </trkpt>
      <trkpt lat="45.289788544178009033203125" lon="-71.10745721496641635894775390625">
        <ele>822.79998779296875</ele>
        <time>2026-08-22T00:16:38.000Z</time>
        <extensions>
          <ns3:TrackPointExtension>
            <ns3:hr>112</ns3:hr>
            <ns3:cad>59</ns3:cad>
          </ns3:TrackPointExtension>
        </extensions>
      </trkpt>
      <trkpt lat="45.28979147784411907196044921875" lon="-71.1074717156589031219482421875">
        <ele>822.5999755859375</ele>
        <time>2026-08-22T00:16:39.000Z</time>
        <extensions>
          <ns3:TrackPointExtension>
            <ns3:hr>112</ns3:hr>
            <ns3:cad>59</ns3:cad>
          </ns3:TrackPointExtension>
        </extensions>
      </trkpt>
      <trkpt lat="45.28979348950088024139404296875" lon="-71.1074868030846118927001953125">
        <ele>822.20001220703125</ele>
        <time>2026-08-22T00:16:40.000Z</time>
        <extensions>
          <ns3:TrackPointExtension>
            <ns3:hr>113</ns3:hr>
            <ns3:cad>59</ns3:cad>
          </ns3:TrackPointExtension>
        </extensions>
      </trkpt>
      <trkpt lat="45.28979533351957798004150390625" lon="-71.10749945975840091705322265625">
        <ele>822</ele>
        <time>2026-08-22T00:16:41.000Z</time>
        <extensions>
          <ns3:TrackPointExtension>
            <ns3:hr>113</ns3:hr>
            <ns3:cad>0</ns3:cad>
          </ns3:TrackPointExtension>
        </extensions>
      </trkpt>
      <trkpt lat="45.28979717753827571868896484375" lon="-71.10751211643218994140625">
        <ele>821.79998779296875</ele>
        <time>2026-08-22T00:16:42.000Z</time>
        <extensions>
          <ns3:TrackPointExtension>
            <ns3:hr>112</ns3:hr>
            <ns3:cad>0</ns3:cad>
          </ns3:TrackPointExtension>
        </extensions>
      </trkpt>
      <trkpt lat="45.28980036266148090362548828125" lon="-71.1075283773243427276611328125">
        <ele>821.4000244140625</ele>
        <time>2026-08-22T00:16:43.000Z</time>
        <extensions>
          <ns3:TrackPointExtension>
            <ns3:hr>112</ns3:hr>
            <ns3:cad>0</ns3:cad>
          </ns3:TrackPointExtension>
        </extensions>
      </trkpt>
      <trkpt lat="45.289800949394702911376953125" lon="-71.10754036344587802886962890625">
        <ele>821.20001220703125</ele>
        <time>2026-08-22T00:16:44.000Z</time>
        <extensions>
          <ns3:TrackPointExtension>
            <ns3:hr>112</ns3:hr>
            <ns3:cad>0</ns3:cad>
          </ns3:TrackPointExtension>
        </extensions>
      </trkpt>
      <trkpt lat="45.28980656526982784271240234375" lon="-71.1075536906719207763671875">
        <ele>820.79998779296875</ele>
        <time>2026-08-22T00:16:45.000Z</time>
        <extensions>
          <ns3:TrackPointExtension>
            <ns3:hr>112</ns3:hr>
            <ns3:cad>0</ns3:cad>
          </ns3:TrackPointExtension>
        </extensions>
      </trkpt>
      <trkpt lat="45.289809666574001312255859375" lon="-71.1075659282505512237548828125">
        <ele>820.5999755859375</ele>
        <time>2026-08-22T00:16:46.000Z</time>
        <extensions>
          <ns3:TrackPointExtension>
            <ns3:hr>112</ns3:hr>
            <ns3:cad>0</ns3:cad>
          </ns3:TrackPointExtension>
        </extensions>
      </trkpt>
      <trkpt lat="45.28981603682041168212890625" lon="-71.1075831949710845947265625">
        <ele>820.4000244140625</ele>
        <time>2026-08-22T00:16:47.000Z</time>
        <extensions>
          <ns3:TrackPointExtension>
            <ns3:hr>112</ns3:hr>
            <ns3:cad>0</ns3:cad>
          </ns3:TrackPointExtension>
        </extensions>
      </trkpt>
      <trkpt lat="45.289820395410060882568359375" lon="-71.10759199596941471099853515625">
        <ele>820</ele>
        <time>2026-08-22T00:16:48.000Z</time>
        <extensions>
          <ns3:TrackPointExtension>
            <ns3:hr>111</ns3:hr>
            <ns3:cad>46</ns3:cad>
          </ns3:TrackPointExtension>
        </extensions>
      </trkpt>
      <trkpt lat="45.2898178808391094207763671875" lon="-71.1075944267213344573974609375">
        <ele>820</ele>
        <time>2026-08-22T00:16:49.000Z</time>
        <extensions>
          <ns3:TrackPointExtension>
            <ns3:hr>112</ns3:hr>
            <ns3:cad>46</ns3:cad>
          </ns3:TrackPointExtension>
        </extensions>
      </trkpt>
      <trkpt lat="45.2898185513913631439208984375" lon="-71.10759216360747814178466796875">
        <ele>819.79998779296875</ele>
        <time>2026-08-22T00:16:50.000Z</time>
        <extensions>
          <ns3:TrackPointExtension>
            <ns3:hr>113</ns3:hr>
            <ns3:cad>46</ns3:cad>
          </ns3:TrackPointExtension>
        </extensions>
      </trkpt>
      <trkpt lat="45.2898195572197437286376953125" lon="-71.10759803093969821929931640625">
        <ele>819.79998779296875</ele>
        <time>2026-08-22T00:16:51.000Z</time>
        <extensions>
          <ns3:TrackPointExtension>
            <ns3:hr>112</ns3:hr>
            <ns3:cad>46</ns3:cad>
          </ns3:TrackPointExtension>
        </extensions>
      </trkpt>
      <trkpt lat="45.289819724857807159423828125" lon="-71.1076004616916179656982421875">
        <ele>819.79998779296875</ele>
        <time>2026-08-22T00:16:52.000Z</time>
        <extensions>
          <ns3:TrackPointExtension>
            <ns3:hr>112</ns3:hr>
            <ns3:cad>46</ns3:cad>
          </ns3:TrackPointExtension>
        </extensions>
      </trkpt>
      <trkpt lat="45.2898219041526317596435546875" lon="-71.10760339535772800445556640625">
        <ele>819.79998779296875</ele>
        <time>2026-08-22T00:16:53.000Z</time>
        <extensions>
          <ns3:TrackPointExtension>
            <ns3:hr>112</ns3:hr>
            <ns3:cad>0</ns3:cad>
          </ns3:TrackPointExtension>
        </extensions>
      </trkpt>
      <trkpt lat="45.28982265852391719818115234375" lon="-71.10760574229061603546142578125">
        <ele>819.79998779296875</ele>
        <time>2026-08-22T00:16:54.000Z</time>
        <extensions>
          <ns3:TrackPointExtension>
            <ns3:hr>112</ns3:hr>
            <ns3:cad>0</ns3:cad>
          </ns3:TrackPointExtension>
        </extensions>
      </trkpt>
      <trkpt lat="45.289826430380344390869140625" lon="-71.107605658471584320068359375">
        <ele>819.79998779296875</ele>
        <time>2026-08-22T00:16:55.000Z</time>
        <extensions>
          <ns3:TrackPointExtension>
            <ns3:hr>112</ns3:hr>
            <ns3:cad>0</ns3:cad>
          </ns3:TrackPointExtension>
        </extensions>
      </trkpt>
      <trkpt lat="45.28982852585613727569580078125" lon="-71.10761127434670925140380859375">
        <ele>819.79998779296875</ele>
        <time>2026-08-22T00:16:56.000Z</time>
        <extensions>
          <ns3:TrackPointExtension>
            <ns3:hr>111</ns3:hr>
            <ns3:cad>0</ns3:cad>
          </ns3:TrackPointExtension>
        </extensions>
      </trkpt>
      <trkpt lat="45.28983036987483501434326171875" lon="-71.1076142080128192901611328125">
        <ele>819.79998779296875</ele>
        <time>2026-08-22T00:16:57.000Z</time>
        <extensions>
          <ns3:TrackPointExtension>
            <ns3:hr>111</ns3:hr>
            <ns3:cad>0</ns3:cad>
          </ns3:TrackPointExtension>
        </extensions>
      </trkpt>
      <trkpt lat="45.28983087278902530670166015625" lon="-71.10761445946991443634033203125">
        <ele>819.5999755859375</ele>
        <time>2026-08-22T00:16:58.000Z</time>
        <extensions>
          <ns3:TrackPointExtension>
            <ns3:hr>111</ns3:hr>
            <ns3:cad>0</ns3:cad>
          </ns3:TrackPointExtension>
        </extensions>
      </trkpt>
      <trkpt lat="45.28983087278902530670166015625" lon="-71.10761445946991443634033203125">
        <ele>819.5999755859375</ele>
        <time>2026-08-22T00:16:59.000Z</time>
        <extensions>
          <ns3:TrackPointExtension>
            <ns3:hr>112</ns3:hr>
            <ns3:cad>0</ns3:cad>
          </ns3:TrackPointExtension>
        </extensions>
      </trkpt>
      <trkpt lat="45.289830453693866729736328125" lon="-71.10761471092700958251953125">
        <ele>819.5999755859375</ele>
        <time>2026-08-22T00:17:00.000Z</time>
        <extensions>
          <ns3:TrackPointExtension>
            <ns3:hr>112</ns3:hr>
            <ns3:cad>0</ns3:cad>
          </ns3:TrackPointExtension>
        </extensions>
      </trkpt>
      <trkpt lat="45.28982919640839099884033203125" lon="-71.1076192371547222137451171875">
        <ele>819.4000244140625</ele>
        <time>2026-08-22T00:17:01.000Z</time>
        <extensions>
          <ns3:TrackPointExtension>
            <ns3:hr>112</ns3:hr>
            <ns3:cad>0</ns3:cad>
          </ns3:TrackPointExtension>
        </extensions>
      </trkpt>
      <trkpt lat="45.28982567600905895233154296875" lon="-71.10762543976306915283203125">
        <ele>819.4000244140625</ele>
        <time>2026-08-22T00:17:02.000Z</time>
        <extensions>
          <ns3:TrackPointExtension>
            <ns3:hr>112</ns3:hr>
            <ns3:cad>0</ns3:cad>
          </ns3:TrackPointExtension>
        </extensions>
      </trkpt>
      <trkpt lat="45.2898262627422809600830078125" lon="-71.10762116499245166778564453125">
        <ele>819.20001220703125</ele>
        <time>2026-08-22T00:17:03.000Z</time>
        <extensions>
          <ns3:TrackPointExtension>
            <ns3:hr>112</ns3:hr>
            <ns3:cad>0</ns3:cad>
          </ns3:TrackPointExtension>
        </extensions>
      </trkpt>
      <trkpt lat="45.28982383199036121368408203125" lon="-71.10761714167892932891845703125">
        <ele>819</ele>
        <time>2026-08-22T00:17:04.000Z</time>
        <extensions>
          <ns3:TrackPointExtension>
            <ns3:hr>113</ns3:hr>
            <ns3:cad>0</ns3:cad>
          </ns3:TrackPointExtension>
        </extensions>
      </trkpt>
      <trkpt lat="45.28982383199036121368408203125" lon="-71.10761563293635845184326171875">
        <ele>818.79998779296875</ele>
        <time>2026-08-22T00:17:05.000Z</time>
        <extensions>
          <ns3:TrackPointExtension>
            <ns3:hr>112</ns3:hr>
            <ns3:cad>0</ns3:cad>
          </ns3:TrackPointExtension>
        </extensions>
      </trkpt>
      <trkpt lat="45.28982299380004405975341796875" lon="-71.10761596821248531341552734375">
        <ele>818.79998779296875</ele>
        <time>2026-08-22T00:17:06.000Z</time>
        <extensions>
          <ns3:TrackPointExtension>
            <ns3:hr>113</ns3:hr>
            <ns3:cad>0</ns3:cad>
          </ns3:TrackPointExtension>
        </extensions>
      </trkpt>
      <trkpt lat="45.289821065962314605712890625" lon="-71.1076132021844387054443359375">
        <ele>818.79998779296875</ele>
        <time>2026-08-22T00:17:07.000Z</time>
        <extensions>
          <ns3:TrackPointExtension>
            <ns3:hr>113</ns3:hr>
            <ns3:cad>0</ns3:cad>
          </ns3:TrackPointExtension>
        </extensions>
      </trkpt>
      <trkpt lat="45.289826095104217529296875" lon="-71.10760473646223545074462890625">
        <ele>818.79998779296875</ele>
        <time>2026-08-22T00:17:08.000Z</time>
        <extensions>
          <ns3:TrackPointExtension>
            <ns3:hr>113</ns3:hr>
            <ns3:cad>0</ns3:cad>
          </ns3:TrackPointExtension>
        </extensions>
      </trkpt>
      <trkpt lat="45.2898302860558032989501953125" lon="-71.1076028086245059967041015625">
        <ele>818.79998779296875</ele>
        <time>2026-08-22T00:17:09.000Z</time>
        <extensions>
          <ns3:TrackPointExtension>
            <ns3:hr>113</ns3:hr>
            <ns3:cad>0</ns3:cad>
          </ns3:TrackPointExtension>
        </extensions>
      </trkpt>
      <trkpt lat="45.28983305208384990692138671875" lon="-71.10760104842483997344970703125">
        <ele>818.79998779296875</ele>
        <time>2026-08-22T00:17:10.000Z</time>
        <extensions>
          <ns3:TrackPointExtension>
            <ns3:hr>114</ns3:hr>
            <ns3:cad>0</ns3:cad>
          </ns3:TrackPointExtension>
        </extensions>
      </trkpt>
      <trkpt lat="45.28983171097934246063232421875" lon="-71.1076024733483791351318359375">
        <ele>818.5999755859375</ele>
        <time>2026-08-22T00:17:11.000Z</time>
        <extensions>
          <ns3:TrackPointExtension>
            <ns3:hr>115</ns3:hr>
            <ns3:cad>0</ns3:cad>
          </ns3:TrackPointExtension>
        </extensions>
      </trkpt>
      <trkpt lat="45.289824418723583221435546875" lon="-71.10760825686156749725341796875">
        <ele>818.5999755859375</ele>
        <time>2026-08-22T00:17:12.000Z</time>
        <extensions>
          <ns3:TrackPointExtension>
            <ns3:hr>115</ns3:hr>
            <ns3:cad>0</ns3:cad>
          </ns3:TrackPointExtension>
        </extensions>
      </trkpt>
      <trkpt lat="45.289822407066822052001953125" lon="-71.107610352337360382080078125">
        <ele>818.5999755859375</ele>
        <time>2026-08-22T00:17:13.000Z</time>
        <extensions>
          <ns3:TrackPointExtension>
            <ns3:hr>114</ns3:hr>
            <ns3:cad>0</ns3:cad>
          </ns3:TrackPointExtension>
        </extensions>
      </trkpt>
      <trkpt lat="45.28981712646782398223876953125" lon="-71.10761160962283611297607421875">
        <ele>818.79998779296875</ele>
        <time>2026-08-22T00:17:14.000Z</time>
        <extensions>
          <ns3:TrackPointExtension>
            <ns3:hr>114</ns3:hr>
            <ns3:cad>0</ns3:cad>
          </ns3:TrackPointExtension>
        </extensions>
      </trkpt>
      <trkpt lat="45.2898178808391094207763671875" lon="-71.10761010088026523590087890625">
        <ele>819</ele>
        <time>2026-08-22T00:17:15.000Z</time>
        <extensions>
          <ns3:TrackPointExtension>
            <ns3:hr>114</ns3:hr>
            <ns3:cad>0</ns3:cad>
          </ns3:TrackPointExtension>
        </extensions>
      </trkpt>
      <trkpt lat="45.2898125164210796356201171875" lon="-71.10760909505188465118408203125">
        <ele>819</ele>
        <time>2026-08-22T00:17:16.000Z</time>
        <extensions>
          <ns3:TrackPointExtension>
            <ns3:hr>114</ns3:hr>
            <ns3:cad>0</ns3:cad>
          </ns3:TrackPointExtension>
        </extensions>
      </trkpt>
      <trkpt lat="45.28981176204979419708251953125" lon="-71.1076098494231700897216796875">
        <ele>819.20001220703125</ele>
        <time>2026-08-22T00:17:17.000Z</time>
        <extensions>
          <ns3:TrackPointExtension>
            <ns3:hr>113</ns3:hr>
            <ns3:cad>0</ns3:cad>
          </ns3:TrackPointExtension>
        </extensions>
      </trkpt>
      <trkpt lat="45.289810001850128173828125" lon="-71.1076061613857746124267578125">
        <ele>819.20001220703125</ele>
        <time>2026-08-22T00:17:18.000Z</time>
        <extensions>
          <ns3:TrackPointExtension>
            <ns3:hr>113</ns3:hr>
            <ns3:cad>0</ns3:cad>
          </ns3:TrackPointExtension>
        </extensions>
      </trkpt>
      <trkpt lat="45.2898071520030498504638671875" lon="-71.1076061613857746124267578125">
        <ele>819.20001220703125</ele>
        <time>2026-08-22T00:17:19.000Z</time>
        <extensions>
          <ns3:TrackPointExtension>
            <ns3:hr>114</ns3:hr>
            <ns3:cad>0</ns3:cad>
          </ns3:TrackPointExtension>
        </extensions>
      </trkpt>
      <trkpt lat="45.2898048050701618194580078125" lon="-71.1076115258038043975830078125">
        <ele>819.20001220703125</ele>
        <time>2026-08-22T00:17:20.000Z</time>
        <extensions>
          <ns3:TrackPointExtension>
            <ns3:hr>114</ns3:hr>
            <ns3:cad>0</ns3:cad>
          </ns3:TrackPointExtension>
        </extensions>
      </trkpt>
      <trkpt lat="45.28980530798435211181640625" lon="-71.10761948861181735992431640625">
        <ele>819</ele>
        <time>2026-08-22T00:17:21.000Z</time>
        <extensions>
          <ns3:TrackPointExtension>
            <ns3:hr>113</ns3:hr>
            <ns3:cad>0</ns3:cad>
          </ns3:TrackPointExtension>
        </extensions>
      </trkpt>
      <trkpt lat="45.2898064814507961273193359375" lon="-71.10762602649629116058349609375">
        <ele>818.79998779296875</ele>
        <time>2026-08-22T00:17:22.000Z</time>
        <extensions>
          <ns3:TrackPointExtension>
            <ns3:hr>113</ns3:hr>
            <ns3:cad>63</ns3:cad>
          </ns3:TrackPointExtension>
        </extensions>
      </trkpt>
      <trkpt lat="45.289806984364986419677734375" lon="-71.1076287925243377685546875">
        <ele>818.5999755859375</ele>
        <time>2026-08-22T00:17:23.000Z</time>
        <extensions>
          <ns3:TrackPointExtension>
            <ns3:hr>113</ns3:hr>
            <ns3:cad>63</ns3:cad>
          </ns3:TrackPointExtension>
        </extensions>
      </trkpt>
      <trkpt lat="45.28980438597500324249267578125" lon="-71.10763357020914554595947265625">
        <ele>818.5999755859375</ele>
        <time>2026-08-22T00:17:24.000Z</time>
        <extensions>
          <ns3:TrackPointExtension>
            <ns3:hr>113</ns3:hr>
            <ns3:cad>63</ns3:cad>
          </ns3:TrackPointExtension>
        </extensions>
      </trkpt>
      <trkpt lat="45.2898006141185760498046875" lon="-71.10764195211231708526611328125">
        <ele>818.4000244140625</ele>
        <time>2026-08-22T00:17:25.000Z</time>
        <extensions>
          <ns3:TrackPointExtension>
            <ns3:hr>113</ns3:hr>
            <ns3:cad>63</ns3:cad>
          </ns3:TrackPointExtension>
        </extensions>
      </trkpt>
      <trkpt lat="45.28979592025279998779296875" lon="-71.107648909091949462890625">
        <ele>818.20001220703125</ele>
        <time>2026-08-22T00:17:26.000Z</time>
        <extensions>
          <ns3:TrackPointExtension>
            <ns3:hr>112</ns3:hr>
            <ns3:cad>0</ns3:cad>
          </ns3:TrackPointExtension>
        </extensions>
      </trkpt>
      <trkpt lat="45.28979122638702392578125" lon="-71.1076524294912815093994140625">
        <ele>818</ele>
        <time>2026-08-22T00:17:27.000Z</time>
        <extensions>
          <ns3:TrackPointExtension>
            <ns3:hr>112</ns3:hr>
            <ns3:cad>0</ns3:cad>
          </ns3:TrackPointExtension>
        </extensions>
      </trkpt>
      <trkpt lat="45.28978896327316761016845703125" lon="-71.10765838064253330230712890625">
        <ele>817.79998779296875</ele>
        <time>2026-08-22T00:17:28.000Z</time>
        <extensions>
          <ns3:TrackPointExtension>
            <ns3:hr>112</ns3:hr>
            <ns3:cad>0</ns3:cad>
          </ns3:TrackPointExtension>
        </extensions>
      </trkpt>
      <trkpt lat="45.28978728689253330230712890625" lon="-71.1076644994318485260009765625">
        <ele>817.5999755859375</ele>
        <time>2026-08-22T00:17:29.000Z</time>
        <extensions>
          <ns3:TrackPointExtension>
            <ns3:hr>112</ns3:hr>
            <ns3:cad>0</ns3:cad>
          </ns3:TrackPointExtension>
        </extensions>
      </trkpt>
      <trkpt lat="45.28978611342608928680419921875" lon="-71.10767061822116374969482421875">
        <ele>817.5999755859375</ele>
        <time>2026-08-22T00:17:30.000Z</time>
        <extensions>
          <ns3:TrackPointExtension>
            <ns3:hr>111</ns3:hr>
            <ns3:cad>0</ns3:cad>
          </ns3:TrackPointExtension>
        </extensions>
      </trkpt>
      <trkpt lat="45.2897846885025501251220703125" lon="-71.10767262987792491912841796875">
        <ele>817.5999755859375</ele>
        <time>2026-08-22T00:17:31.000Z</time>
        <extensions>
          <ns3:TrackPointExtension>
            <ns3:hr>111</ns3:hr>
            <ns3:cad>0</ns3:cad>
          </ns3:TrackPointExtension>
        </extensions>
      </trkpt>
      <trkpt lat="45.2897840179502964019775390625" lon="-71.10767262987792491912841796875">
        <ele>817.5999755859375</ele>
        <time>2026-08-22T00:17:32.000Z</time>
        <extensions>
          <ns3:TrackPointExtension>
            <ns3:hr>111</ns3:hr>
            <ns3:cad>0</ns3:cad>
          </ns3:TrackPointExtension>
        </extensions>
      </trkpt>
      <trkpt lat="45.2897840179502964019775390625" lon="-71.10767262987792491912841796875">
        <ele>817.5999755859375</ele>
        <time>2026-08-22T00:17:33.000Z</time>
        <extensions>
          <ns3:TrackPointExtension>
            <ns3:hr>111</ns3:hr>
            <ns3:cad>0</ns3:cad>
          </ns3:TrackPointExtension>
        </extensions>
      </trkpt>
      <trkpt lat="45.2897840179502964019775390625" lon="-71.10767262987792491912841796875">
        <ele>817.79998779296875</ele>
        <time>2026-08-22T00:17:34.000Z</time>
        <extensions>
          <ns3:TrackPointExtension>
            <ns3:hr>111</ns3:hr>
            <ns3:cad>0</ns3:cad>
          </ns3:TrackPointExtension>
        </extensions>
      </trkpt>
      <trkpt lat="45.2897840179502964019775390625" lon="-71.10767262987792491912841796875">
        <ele>817.79998779296875</ele>
        <time>2026-08-22T00:17:35.000Z</time>
        <extensions>
          <ns3:TrackPointExtension>
            <ns3:hr>111</ns3:hr>
            <ns3:cad>0</ns3:cad>
          </ns3:TrackPointExtension>
        </extensions>
      </trkpt>
      <trkpt lat="45.2897840179502964019775390625" lon="-71.10767262987792491912841796875">
        <ele>817.79998779296875</ele>
        <time>2026-08-22T00:17:36.000Z</time>
        <extensions>
          <ns3:TrackPointExtension>
            <ns3:hr>111</ns3:hr>
            <ns3:cad>0</ns3:cad>
          </ns3:TrackPointExtension>
        </extensions>
      </trkpt>
      <trkpt lat="45.2897840179502964019775390625" lon="-71.10767262987792491912841796875">
        <ele>817.5999755859375</ele>
        <time>2026-08-22T00:17:37.000Z</time>
        <extensions>
          <ns3:TrackPointExtension>
            <ns3:hr>111</ns3:hr>
            <ns3:cad>0</ns3:cad>
          </ns3:TrackPointExtension>
        </extensions>
      </trkpt>
      <trkpt lat="45.2897840179502964019775390625" lon="-71.10767262987792491912841796875">
        <ele>817.5999755859375</ele>
        <time>2026-08-22T00:17:38.000Z</time>
        <extensions>
          <ns3:TrackPointExtension>
            <ns3:hr>112</ns3:hr>
            <ns3:cad>0</ns3:cad>
          </ns3:TrackPointExtension>
        </extensions>
      </trkpt>
      <trkpt lat="45.2897840179502964019775390625" lon="-71.10767262987792491912841796875">
        <ele>817.4000244140625</ele>
        <time>2026-08-22T00:17:39.000Z</time>
        <extensions>
          <ns3:TrackPointExtension>
            <ns3:hr>113</ns3:hr>
            <ns3:cad>0</ns3:cad>
          </ns3:TrackPointExtension>
        </extensions>
      </trkpt>
      <trkpt lat="45.28978460468351840972900390625" lon="-71.107672713696956634521484375">
        <ele>817.4000244140625</ele>
        <time>2026-08-22T00:17:40.000Z</time>
        <extensions>
          <ns3:TrackPointExtension>
            <ns3:hr>114</ns3:hr>
            <ns3:cad>0</ns3:cad>
          </ns3:TrackPointExtension>
        </extensions>
      </trkpt>
      <trkpt lat="45.289782844483852386474609375" lon="-71.107682101428508758544921875">
        <ele>817.20001220703125</ele>
        <time>2026-08-22T00:17:41.000Z</time>
        <extensions>
          <ns3:TrackPointExtension>
            <ns3:hr>115</ns3:hr>
            <ns3:cad>51</ns3:cad>
          </ns3:TrackPointExtension>
        </extensions>
      </trkpt>
      <trkpt lat="45.28978058136999607086181640625" lon="-71.10770146362483501434326171875">
        <ele>817</ele>
        <time>2026-08-22T00:17:42.000Z</time>
        <extensions>
          <ns3:TrackPointExtension>
            <ns3:hr>116</ns3:hr>
            <ns3:cad>51</ns3:cad>
          </ns3:TrackPointExtension>
        </extensions>
      </trkpt>
      <trkpt lat="45.2897786535322666168212890625" lon="-71.10770858824253082275390625">
        <ele>816.79998779296875</ele>
        <time>2026-08-22T00:17:43.000Z</time>
        <extensions>
          <ns3:TrackPointExtension>
            <ns3:hr>117</ns3:hr>
            <ns3:cad>51</ns3:cad>
          </ns3:TrackPointExtension>
        </extensions>
      </trkpt>
      <trkpt lat="45.28978058136999607086181640625" lon="-71.1077094264328479766845703125">
        <ele>816.5999755859375</ele>
        <time>2026-08-22T00:17:44.000Z</time>
        <extensions>
          <ns3:TrackPointExtension>
            <ns3:hr>117</ns3:hr>
            <ns3:cad>51</ns3:cad>
          </ns3:TrackPointExtension>
        </extensions>
      </trkpt>
      <trkpt lat="45.289781503379344940185546875" lon="-71.10771085135638713836669921875">
        <ele>816.5999755859375</ele>
        <time>2026-08-22T00:17:45.000Z</time>
        <extensions>
          <ns3:TrackPointExtension>
            <ns3:hr>118</ns3:hr>
            <ns3:cad>51</ns3:cad>
          </ns3:TrackPointExtension>
        </extensions>
      </trkpt>
      <trkpt lat="45.2897806651890277862548828125" lon="-71.10770431347191333770751953125">
        <ele>816.4000244140625</ele>
        <time>2026-08-22T00:17:46.000Z</time>
        <extensions>
          <ns3:TrackPointExtension>
            <ns3:hr>118</ns3:hr>
            <ns3:cad>0</ns3:cad>
          </ns3:TrackPointExtension>
        </extensions>
      </trkpt>
      <trkpt lat="45.289778821170330047607421875" lon="-71.10770230181515216827392578125">
        <ele>816.4000244140625</ele>
        <time>2026-08-22T00:17:47.000Z</time>
        <extensions>
          <ns3:TrackPointExtension>
            <ns3:hr>118</ns3:hr>
            <ns3:cad>0</ns3:cad>
          </ns3:TrackPointExtension>
        </extensions>
      </trkpt>
      <trkpt lat="45.28978074900805950164794921875" lon="-71.1077070794999599456787109375">
        <ele>816.4000244140625</ele>
        <time>2026-08-22T00:17:48.000Z</time>
        <extensions>
          <ns3:TrackPointExtension>
            <ns3:hr>118</ns3:hr>
            <ns3:cad>0</ns3:cad>
          </ns3:TrackPointExtension>
        </extensions>
      </trkpt>
      <trkpt lat="45.28978091664612293243408203125" lon="-71.10771554522216320037841796875">
        <ele>816.4000244140625</ele>
        <time>2026-08-22T00:17:49.000Z</time>
        <extensions>
          <ns3:TrackPointExtension>
            <ns3:hr>117</ns3:hr>
            <ns3:cad>0</ns3:cad>
          </ns3:TrackPointExtension>
        </extensions>
      </trkpt>
      <trkpt lat="45.289781503379344940185546875" lon="-71.1077307164669036865234375">
        <ele>816.4000244140625</ele>
        <time>2026-08-22T00:17:50.000Z</time>
        <extensions>
          <ns3:TrackPointExtension>
            <ns3:hr>118</ns3:hr>
            <ns3:cad>0</ns3:cad>
          </ns3:TrackPointExtension>
        </extensions>
      </trkpt>
      <trkpt lat="45.28977848589420318603515625" lon="-71.107741110026836395263671875">
        <ele>816.20001220703125</ele>
        <time>2026-08-22T00:17:51.000Z</time>
        <extensions>
          <ns3:TrackPointExtension>
            <ns3:hr>119</ns3:hr>
            <ns3:cad>0</ns3:cad>
          </ns3:TrackPointExtension>
        </extensions>
      </trkpt>
      <trkpt lat="45.28977043926715850830078125" lon="-71.1077553592622280120849609375">
        <ele>816.20001220703125</ele>
        <time>2026-08-22T00:17:52.000Z</time>
        <extensions>
          <ns3:TrackPointExtension>
            <ns3:hr>119</ns3:hr>
            <ns3:cad>0</ns3:cad>
          </ns3:TrackPointExtension>
        </extensions>
      </trkpt>
      <trkpt lat="45.28976130299270153045654296875" lon="-71.1077627353370189666748046875">
        <ele>816</ele>
        <time>2026-08-22T00:17:53.000Z</time>
        <extensions>
          <ns3:TrackPointExtension>
            <ns3:hr>120</ns3:hr>
            <ns3:cad>0</ns3:cad>
          </ns3:TrackPointExtension>
        </extensions>
      </trkpt>
      <trkpt lat="45.28975292108952999114990234375" lon="-71.10776818357408046722412109375">
        <ele>815.5999755859375</ele>
        <time>2026-08-22T00:17:54.000Z</time>
        <extensions>
          <ns3:TrackPointExtension>
            <ns3:hr>120</ns3:hr>
            <ns3:cad>0</ns3:cad>
          </ns3:TrackPointExtension>
        </extensions>
      </trkpt>
      <trkpt lat="45.2897424437105655670166015625" lon="-71.1077789962291717529296875">
        <ele>815.4000244140625</ele>
        <time>2026-08-22T00:17:55.000Z</time>
        <extensions>
          <ns3:TrackPointExtension>
            <ns3:hr>121</ns3:hr>
            <ns3:cad>0</ns3:cad>
          </ns3:TrackPointExtension>
        </extensions>
      </trkpt>
      <trkpt lat="45.2897337265312671661376953125" lon="-71.1077865399420261383056640625">
        <ele>815.20001220703125</ele>
        <time>2026-08-22T00:17:56.000Z</time>
        <extensions>
          <ns3:TrackPointExtension>
            <ns3:hr>121</ns3:hr>
            <ns3:cad>0</ns3:cad>
          </ns3:TrackPointExtension>
        </extensions>
      </trkpt>
      <trkpt lat="45.28972693718969821929931640625" lon="-71.1077922396361827850341796875">
        <ele>814.79998779296875</ele>
        <time>2026-08-22T00:17:57.000Z</time>
        <extensions>
          <ns3:TrackPointExtension>
            <ns3:hr>120</ns3:hr>
            <ns3:cad>0</ns3:cad>
          </ns3:TrackPointExtension>
        </extensions>
      </trkpt>
      <trkpt lat="45.28972241096198558807373046875" lon="-71.10779768787324428558349609375">
        <ele>814.79998779296875</ele>
        <time>2026-08-22T00:17:58.000Z</time>
        <extensions>
          <ns3:TrackPointExtension>
            <ns3:hr>117</ns3:hr>
            <ns3:cad>50</ns3:cad>
          </ns3:TrackPointExtension>
        </extensions>
      </trkpt>
      <trkpt lat="45.28971838764846324920654296875" lon="-71.10780539922416210174560546875">
        <ele>814.5999755859375</ele>
        <time>2026-08-22T00:17:59.000Z</time>
        <extensions>
          <ns3:TrackPointExtension>
            <ns3:hr>115</ns3:hr>
            <ns3:cad>50</ns3:cad>
          </ns3:TrackPointExtension>
        </extensions>
      </trkpt>
      <trkpt lat="45.28971570543944835662841796875" lon="-71.107811518013477325439453125">
        <ele>814.5999755859375</ele>
        <time>2026-08-22T00:18:00.000Z</time>
        <extensions>
          <ns3:TrackPointExtension>
            <ns3:hr>114</ns3:hr>
            <ns3:cad>50</ns3:cad>
          </ns3:TrackPointExtension>
        </extensions>
      </trkpt>
      <trkpt lat="45.2897095866501331329345703125" lon="-71.10782467760145664215087890625">
        <ele>814.4000244140625</ele>
        <time>2026-08-22T00:18:01.000Z</time>
        <extensions>
          <ns3:TrackPointExtension>
            <ns3:hr>116</ns3:hr>
            <ns3:cad>50</ns3:cad>
          </ns3:TrackPointExtension>
        </extensions>
      </trkpt>
      <trkpt lat="45.28970472514629364013671875" lon="-71.107833646237850189208984375">
        <ele>814.4000244140625</ele>
        <time>2026-08-22T00:18:02.000Z</time>
        <extensions>
          <ns3:TrackPointExtension>
            <ns3:hr>117</ns3:hr>
            <ns3:cad>50</ns3:cad>
          </ns3:TrackPointExtension>
        </extensions>
      </trkpt>
      <trkpt lat="45.289703048765659332275390625" lon="-71.10783373005688190460205078125">
        <ele>814.20001220703125</ele>
        <time>2026-08-22T00:18:03.000Z</time>
        <extensions>
          <ns3:TrackPointExtension>
            <ns3:hr>117</ns3:hr>
            <ns3:cad>0</ns3:cad>
          </ns3:TrackPointExtension>
        </extensions>
      </trkpt>
      <trkpt lat="45.28970112092792987823486328125" lon="-71.1078380048274993896484375">
        <ele>814</ele>
        <time>2026-08-22T00:18:04.000Z</time>
        <extensions>
          <ns3:TrackPointExtension>
            <ns3:hr>117</ns3:hr>
            <ns3:cad>0</ns3:cad>
          </ns3:TrackPointExtension>
        </extensions>
      </trkpt>
      <trkpt lat="45.289700031280517578125" lon="-71.10783808864653110504150390625">
        <ele>814</ele>
        <time>2026-08-22T00:18:05.000Z</time>
        <extensions>
          <ns3:TrackPointExtension>
            <ns3:hr>118</ns3:hr>
            <ns3:cad>0</ns3:cad>
          </ns3:TrackPointExtension>
        </extensions>
      </trkpt>
      <trkpt lat="45.28970095328986644744873046875" lon="-71.10783859156072139739990234375">
        <ele>813.79998779296875</ele>
        <time>2026-08-22T00:18:06.000Z</time>
        <extensions>
          <ns3:TrackPointExtension>
            <ns3:hr>118</ns3:hr>
            <ns3:cad>0</ns3:cad>
          </ns3:TrackPointExtension>
        </extensions>
      </trkpt>
      <trkpt lat="45.28970095328986644744873046875" lon="-71.10783859156072139739990234375">
        <ele>814</ele>
        <time>2026-08-22T00:18:07.000Z</time>
        <extensions>
          <ns3:TrackPointExtension>
            <ns3:hr>118</ns3:hr>
            <ns3:cad>0</ns3:cad>
          </ns3:TrackPointExtension>
        </extensions>
      </trkpt>
      <trkpt lat="45.28970095328986644744873046875" lon="-71.10783859156072139739990234375">
        <ele>814</ele>
        <time>2026-08-22T00:18:08.000Z</time>
        <extensions>
          <ns3:TrackPointExtension>
            <ns3:hr>118</ns3:hr>
            <ns3:cad>0</ns3:cad>
          </ns3:TrackPointExtension>
        </extensions>
      </trkpt>
      <trkpt lat="45.28970095328986644744873046875" lon="-71.10783859156072139739990234375">
        <ele>814</ele>
        <time>2026-08-22T00:18:09.000Z</time>
        <extensions>
          <ns3:TrackPointExtension>
            <ns3:hr>118</ns3:hr>
            <ns3:cad>0</ns3:cad>
          </ns3:TrackPointExtension>
        </extensions>
      </trkpt>
      <trkpt lat="45.28969961218535900115966796875" lon="-71.10783859156072139739990234375">
        <ele>813.79998779296875</ele>
        <time>2026-08-22T00:18:10.000Z</time>
        <extensions>
          <ns3:TrackPointExtension>
            <ns3:hr>118</ns3:hr>
            <ns3:cad>0</ns3:cad>
          </ns3:TrackPointExtension>
        </extensions>
      </trkpt>
      <trkpt lat="45.28969039209187030792236328125" lon="-71.10784940421581268310546875">
        <ele>813.5999755859375</ele>
        <time>2026-08-22T00:18:11.000Z</time>
        <extensions>
          <ns3:TrackPointExtension>
            <ns3:hr>118</ns3:hr>
            <ns3:cad>0</ns3:cad>
          </ns3:TrackPointExtension>
        </extensions>
      </trkpt>
      <trkpt lat="45.28968368656933307647705078125" lon="-71.107857115566730499267578125">
        <ele>813.5999755859375</ele>
        <time>2026-08-22T00:18:12.000Z</time>
        <extensions>
          <ns3:TrackPointExtension>
            <ns3:hr>118</ns3:hr>
            <ns3:cad>0</ns3:cad>
          </ns3:TrackPointExtension>
        </extensions>
      </trkpt>
      <trkpt lat="45.2896750532090663909912109375" lon="-71.1078643240034580230712890625">
        <ele>813.4000244140625</ele>
        <time>2026-08-22T00:18:13.000Z</time>
        <extensions>
          <ns3:TrackPointExtension>
            <ns3:hr>118</ns3:hr>
            <ns3:cad>0</ns3:cad>
          </ns3:TrackPointExtension>
        </extensions>
      </trkpt>
      <trkpt lat="45.28966591693460941314697265625" lon="-71.107875891029834747314453125">
        <ele>813.20001220703125</ele>
        <time>2026-08-22T00:18:14.000Z</time>
        <extensions>
          <ns3:TrackPointExtension>
            <ns3:hr>118</ns3:hr>
            <ns3:cad>50</ns3:cad>
          </ns3:TrackPointExtension>
        </extensions>
      </trkpt>
      <trkpt lat="45.2896584570407867431640625" lon="-71.10788829624652862548828125">
        <ele>813</ele>
        <time>2026-08-22T00:18:15.000Z</time>
        <extensions>
          <ns3:TrackPointExtension>
            <ns3:hr>118</ns3:hr>
            <ns3:cad>53</ns3:cad>
          </ns3:TrackPointExtension>
        </extensions>
      </trkpt>
      <trkpt lat="45.289653427898883819580078125" lon="-71.10790329985320568084716796875">
        <ele>813</ele>
        <time>2026-08-22T00:18:16.000Z</time>
        <extensions>
          <ns3:TrackPointExtension>
            <ns3:hr>119</ns3:hr>
            <ns3:cad>54</ns3:cad>
          </ns3:TrackPointExtension>
        </extensions>
      </trkpt>
      <trkpt lat="45.28964814729988574981689453125" lon="-71.1079176329076290130615234375">
        <ele>812.79998779296875</ele>
        <time>2026-08-22T00:18:17.000Z</time>
        <extensions>
          <ns3:TrackPointExtension>
            <ns3:hr>119</ns3:hr>
            <ns3:cad>53</ns3:cad>
          </ns3:TrackPointExtension>
        </extensions>
      </trkpt>
      <trkpt lat="45.28964445926249027252197265625" lon="-71.107932887971401214599609375">
        <ele>812.79998779296875</ele>
        <time>2026-08-22T00:18:18.000Z</time>
        <extensions>
          <ns3:TrackPointExtension>
            <ns3:hr>120</ns3:hr>
            <ns3:cad>53</ns3:cad>
          </ns3:TrackPointExtension>
        </extensions>
      </trkpt>
      <trkpt lat="45.2896401844918727874755859375" lon="-71.107938922941684722900390625">
        <ele>812.79998779296875</ele>
        <time>2026-08-22T00:18:19.000Z</time>
        <extensions>
          <ns3:TrackPointExtension>
            <ns3:hr>120</ns3:hr>
            <ns3:cad>53</ns3:cad>
          </ns3:TrackPointExtension>
        </extensions>
      </trkpt>
      <trkpt lat="45.28963289223611354827880859375" lon="-71.10794990323483943939208984375">
        <ele>812.79998779296875</ele>
        <time>2026-08-22T00:18:20.000Z</time>
        <extensions>
          <ns3:TrackPointExtension>
            <ns3:hr>120</ns3:hr>
            <ns3:cad>53</ns3:cad>
          </ns3:TrackPointExtension>
        </extensions>
      </trkpt>
      <trkpt lat="45.28962752781808376312255859375" lon="-71.107957698404788970947265625">
        <ele>812.5999755859375</ele>
        <time>2026-08-22T00:18:21.000Z</time>
        <extensions>
          <ns3:TrackPointExtension>
            <ns3:hr>120</ns3:hr>
            <ns3:cad>51</ns3:cad>
          </ns3:TrackPointExtension>
        </extensions>
      </trkpt>
      <trkpt lat="45.289622247219085693359375" lon="-71.107963733375072479248046875">
        <ele>812.5999755859375</ele>
        <time>2026-08-22T00:18:22.000Z</time>
        <extensions>
          <ns3:TrackPointExtension>
            <ns3:hr>119</ns3:hr>
            <ns3:cad>51</ns3:cad>
          </ns3:TrackPointExtension>
        </extensions>
      </trkpt>
      <trkpt lat="45.2896197326481342315673828125" lon="-71.10797387547791004180908203125">
        <ele>812.5999755859375</ele>
        <time>2026-08-22T00:18:23.000Z</time>
        <extensions>
          <ns3:TrackPointExtension>
            <ns3:hr>118</ns3:hr>
            <ns3:cad>51</ns3:cad>
          </ns3:TrackPointExtension>
        </extensions>
      </trkpt>
      <trkpt lat="45.289619900286197662353515625" lon="-71.10798661597073078155517578125">
        <ele>812.4000244140625</ele>
        <time>2026-08-22T00:18:24.000Z</time>
        <extensions>
          <ns3:TrackPointExtension>
            <ns3:hr>117</ns3:hr>
            <ns3:cad>49</ns3:cad>
          </ns3:TrackPointExtension>
        </extensions>
      </trkpt>
      <trkpt lat="45.2896190620958805084228515625" lon="-71.1079897172749042510986328125">
        <ele>812.4000244140625</ele>
        <time>2026-08-22T00:18:25.000Z</time>
        <extensions>
          <ns3:TrackPointExtension>
            <ns3:hr>116</ns3:hr>
            <ns3:cad>49</ns3:cad>
          </ns3:TrackPointExtension>
        </extensions>
      </trkpt>
      <trkpt lat="45.289615876972675323486328125" lon="-71.10799315385520458221435546875">
        <ele>812.20001220703125</ele>
        <time>2026-08-22T00:18:26.000Z</time>
        <extensions>
          <ns3:TrackPointExtension>
            <ns3:hr>115</ns3:hr>
            <ns3:cad>49</ns3:cad>
          </ns3:TrackPointExtension>
        </extensions>
      </trkpt>
      <trkpt lat="45.28961042873561382293701171875" lon="-71.10799499787390232086181640625">
        <ele>812</ele>
        <time>2026-08-22T00:18:27.000Z</time>
        <extensions>
          <ns3:TrackPointExtension>
            <ns3:hr>114</ns3:hr>
            <ns3:cad>49</ns3:cad>
          </ns3:TrackPointExtension>
        </extensions>
      </trkpt>
      <trkpt lat="45.2896053157746791839599609375" lon="-71.107997260987758636474609375">
        <ele>812</ele>
        <time>2026-08-22T00:18:28.000Z</time>
        <extensions>
          <ns3:TrackPointExtension>
            <ns3:hr>113</ns3:hr>
            <ns3:cad>49</ns3:cad>
          </ns3:TrackPointExtension>
        </extensions>
      </trkpt>
      <trkpt lat="45.289599113166332244873046875" lon="-71.108001954853534698486328125">
        <ele>811.79998779296875</ele>
        <time>2026-08-22T00:18:29.000Z</time>
        <extensions>
          <ns3:TrackPointExtension>
            <ns3:hr>113</ns3:hr>
            <ns3:cad>49</ns3:cad>
          </ns3:TrackPointExtension>
        </extensions>
      </trkpt>
      <trkpt lat="45.2895905636250972747802734375" lon="-71.10801226459443569183349609375">
        <ele>811.5999755859375</ele>
        <time>2026-08-22T00:18:30.000Z</time>
        <extensions>
          <ns3:TrackPointExtension>
            <ns3:hr>112</ns3:hr>
            <ns3:cad>49</ns3:cad>
          </ns3:TrackPointExtension>
        </extensions>
      </trkpt>
      <trkpt lat="45.28958092443645000457763671875" lon="-71.10801695846021175384521484375">
        <ele>811.4000244140625</ele>
        <time>2026-08-22T00:18:31.000Z</time>
        <extensions>
          <ns3:TrackPointExtension>
            <ns3:hr>112</ns3:hr>
            <ns3:cad>49</ns3:cad>
          </ns3:TrackPointExtension>
        </extensions>
      </trkpt>
      <trkpt lat="45.289577655494213104248046875" lon="-71.1080245859920978546142578125">
        <ele>811.20001220703125</ele>
        <time>2026-08-22T00:18:32.000Z</time>
        <extensions>
          <ns3:TrackPointExtension>
            <ns3:hr>111</ns3:hr>
            <ns3:cad>49</ns3:cad>
          </ns3:TrackPointExtension>
        </extensions>
      </trkpt>
      <trkpt lat="45.28957623057067394256591796875" lon="-71.1080324649810791015625">
        <ele>811</ele>
        <time>2026-08-22T00:18:33.000Z</time>
        <extensions>
          <ns3:TrackPointExtension>
            <ns3:hr>111</ns3:hr>
            <ns3:cad>49</ns3:cad>
          </ns3:TrackPointExtension>
        </extensions>
      </trkpt>
      <trkpt lat="45.28957597911357879638671875" lon="-71.108037494122982025146484375">
        <ele>810.79998779296875</ele>
        <time>2026-08-22T00:18:34.000Z</time>
        <extensions>
          <ns3:TrackPointExtension>
            <ns3:hr>111</ns3:hr>
            <ns3:cad>49</ns3:cad>
          </ns3:TrackPointExtension>
        </extensions>
      </trkpt>
      <trkpt lat="45.2895721234381198883056640625" lon="-71.10804495401680469512939453125">
        <ele>810.5999755859375</ele>
        <time>2026-08-22T00:18:35.000Z</time>
        <extensions>
          <ns3:TrackPointExtension>
            <ns3:hr>110</ns3:hr>
            <ns3:cad>49</ns3:cad>
          </ns3:TrackPointExtension>
        </extensions>
      </trkpt>
      <trkpt lat="45.28956935741007328033447265625" lon="-71.10805199481546878814697265625">
        <ele>810.4000244140625</ele>
        <time>2026-08-22T00:18:36.000Z</time>
        <extensions>
          <ns3:TrackPointExtension>
            <ns3:hr>109</ns3:hr>
            <ns3:cad>56</ns3:cad>
          </ns3:TrackPointExtension>
        </extensions>
      </trkpt>
      <trkpt lat="45.289562903344631195068359375" lon="-71.1080567725002765655517578125">
        <ele>810.20001220703125</ele>
        <time>2026-08-22T00:18:37.000Z</time>
        <extensions>
          <ns3:TrackPointExtension>
            <ns3:hr>109</ns3:hr>
            <ns3:cad>56</ns3:cad>
          </ns3:TrackPointExtension>
        </extensions>
      </trkpt>
      <trkpt lat="45.2895597182214260101318359375" lon="-71.10805928707122802734375">
        <ele>810</ele>
        <time>2026-08-22T00:18:38.000Z</time>
        <extensions>
          <ns3:TrackPointExtension>
            <ns3:hr>108</ns3:hr>
            <ns3:cad>0</ns3:cad>
          </ns3:TrackPointExtension>
        </extensions>
      </trkpt>
      <trkpt lat="45.28955611400306224822998046875" lon="-71.1080634780228137969970703125">
        <ele>809.79998779296875</ele>
        <time>2026-08-22T00:18:39.000Z</time>
        <extensions>
          <ns3:TrackPointExtension>
            <ns3:hr>108</ns3:hr>
            <ns3:cad>0</ns3:cad>
          </ns3:TrackPointExtension>
        </extensions>
      </trkpt>
      <trkpt lat="45.28955209068953990936279296875" lon="-71.10806808806955814361572265625">
        <ele>809.5999755859375</ele>
        <time>2026-08-22T00:18:40.000Z</time>
        <extensions>
          <ns3:TrackPointExtension>
            <ns3:hr>108</ns3:hr>
            <ns3:cad>0</ns3:cad>
          </ns3:TrackPointExtension>
        </extensions>
      </trkpt>
      <trkpt lat="45.28954957611858844757080078125" lon="-71.10806691460311412811279296875">
        <ele>809.4000244140625</ele>
        <time>2026-08-22T00:18:41.000Z</time>
        <extensions>
          <ns3:TrackPointExtension>
            <ns3:hr>107</ns3:hr>
            <ns3:cad>0</ns3:cad>
          </ns3:TrackPointExtension>
        </extensions>
      </trkpt>
      <trkpt lat="45.289544127881526947021484375" lon="-71.10806708224117755889892578125">
        <ele>809.20001220703125</ele>
        <time>2026-08-22T00:18:42.000Z</time>
        <extensions>
          <ns3:TrackPointExtension>
            <ns3:hr>108</ns3:hr>
            <ns3:cad>0</ns3:cad>
          </ns3:TrackPointExtension>
        </extensions>
      </trkpt>
      <trkpt lat="45.28954035602509975433349609375" lon="-71.10806574113667011260986328125">
        <ele>809</ele>
        <time>2026-08-22T00:18:43.000Z</time>
        <extensions>
          <ns3:TrackPointExtension>
            <ns3:hr>108</ns3:hr>
            <ns3:cad>59</ns3:cad>
          </ns3:TrackPointExtension>
        </extensions>
      </trkpt>
      <trkpt lat="45.28953465633094310760498046875" lon="-71.10806825570762157440185546875">
        <ele>808.79998779296875</ele>
        <time>2026-08-22T00:18:44.000Z</time>
        <extensions>
          <ns3:TrackPointExtension>
            <ns3:hr>108</ns3:hr>
            <ns3:cad>59</ns3:cad>
          </ns3:TrackPointExtension>
        </extensions>
      </trkpt>
      <trkpt lat="45.2895261906087398529052734375" lon="-71.1080675013363361358642578125">
        <ele>808.5999755859375</ele>
        <time>2026-08-22T00:18:45.000Z</time>
        <extensions>
          <ns3:TrackPointExtension>
            <ns3:hr>108</ns3:hr>
            <ns3:cad>59</ns3:cad>
          </ns3:TrackPointExtension>
        </extensions>
      </trkpt>
      <trkpt lat="45.2895181439816951751708984375" lon="-71.10806959681212902069091796875">
        <ele>808.4000244140625</ele>
        <time>2026-08-22T00:18:46.000Z</time>
        <extensions>
          <ns3:TrackPointExtension>
            <ns3:hr>108</ns3:hr>
            <ns3:cad>59</ns3:cad>
          </ns3:TrackPointExtension>
        </extensions>
      </trkpt>
      <trkpt lat="45.2895134501159191131591796875" lon="-71.10807060264050960540771484375">
        <ele>808.20001220703125</ele>
        <time>2026-08-22T00:18:47.000Z</time>
        <extensions>
          <ns3:TrackPointExtension>
            <ns3:hr>109</ns3:hr>
            <ns3:cad>59</ns3:cad>
          </ns3:TrackPointExtension>
        </extensions>
      </trkpt>
      <trkpt lat="45.2895084209740161895751953125" lon="-71.1080748774111270904541015625">
        <ele>808</ele>
        <time>2026-08-22T00:18:48.000Z</time>
        <extensions>
          <ns3:TrackPointExtension>
            <ns3:hr>109</ns3:hr>
            <ns3:cad>0</ns3:cad>
          </ns3:TrackPointExtension>
        </extensions>
      </trkpt>
      <trkpt lat="45.28950096108019351959228515625" lon="-71.1080768890678882598876953125">
        <ele>807.79998779296875</ele>
        <time>2026-08-22T00:18:49.000Z</time>
        <extensions>
          <ns3:TrackPointExtension>
            <ns3:hr>109</ns3:hr>
            <ns3:cad>0</ns3:cad>
          </ns3:TrackPointExtension>
        </extensions>
      </trkpt>
      <trkpt lat="45.28949551284313201904296875" lon="-71.108082421123981475830078125">
        <ele>807.5999755859375</ele>
        <time>2026-08-22T00:18:50.000Z</time>
        <extensions>
          <ns3:TrackPointExtension>
            <ns3:hr>109</ns3:hr>
            <ns3:cad>0</ns3:cad>
          </ns3:TrackPointExtension>
        </extensions>
      </trkpt>
      <trkpt lat="45.2894883044064044952392578125" lon="-71.10808636061847209930419921875">
        <ele>807.4000244140625</ele>
        <time>2026-08-22T00:18:51.000Z</time>
        <extensions>
          <ns3:TrackPointExtension>
            <ns3:hr>109</ns3:hr>
            <ns3:cad>0</ns3:cad>
          </ns3:TrackPointExtension>
        </extensions>
      </trkpt>
      <trkpt lat="45.28948335908353328704833984375" lon="-71.1080856062471866607666015625">
        <ele>807.20001220703125</ele>
        <time>2026-08-22T00:18:52.000Z</time>
        <extensions>
          <ns3:TrackPointExtension>
            <ns3:hr>109</ns3:hr>
            <ns3:cad>0</ns3:cad>
          </ns3:TrackPointExtension>
        </extensions>
      </trkpt>
      <trkpt lat="45.28947631828486919403076171875" lon="-71.10808921046555042266845703125">
        <ele>807</ele>
        <time>2026-08-22T00:18:53.000Z</time>
        <extensions>
          <ns3:TrackPointExtension>
            <ns3:hr>110</ns3:hr>
            <ns3:cad>59</ns3:cad>
          </ns3:TrackPointExtension>
        </extensions>
      </trkpt>
      <trkpt lat="45.2894695289433002471923828125" lon="-71.10808887518942356109619140625">
        <ele>806.79998779296875</ele>
        <time>2026-08-22T00:18:54.000Z</time>
        <extensions>
          <ns3:TrackPointExtension>
            <ns3:hr>109</ns3:hr>
            <ns3:cad>59</ns3:cad>
          </ns3:TrackPointExtension>
        </extensions>
      </trkpt>
      <trkpt lat="45.28945838101208209991455078125" lon="-71.10809021629393100738525390625">
        <ele>806.5999755859375</ele>
        <time>2026-08-22T00:18:55.000Z</time>
        <extensions>
          <ns3:TrackPointExtension>
            <ns3:hr>110</ns3:hr>
            <ns3:cad>59</ns3:cad>
          </ns3:TrackPointExtension>
        </extensions>
      </trkpt>
      <trkpt lat="45.28945905156433582305908203125" lon="-71.1080929823219776153564453125">
        <ele>806.4000244140625</ele>
        <time>2026-08-22T00:18:56.000Z</time>
        <extensions>
          <ns3:TrackPointExtension>
            <ns3:hr>110</ns3:hr>
            <ns3:cad>59</ns3:cad>
          </ns3:TrackPointExtension>
        </extensions>
      </trkpt>
      <trkpt lat="45.28946056030690670013427734375" lon="-71.108092479407787322998046875">
        <ele>806.20001220703125</ele>
        <time>2026-08-22T00:18:57.000Z</time>
        <extensions>
          <ns3:TrackPointExtension>
            <ns3:hr>110</ns3:hr>
            <ns3:cad>0</ns3:cad>
          </ns3:TrackPointExtension>
        </extensions>
      </trkpt>
      <trkpt lat="45.28946064412593841552734375" lon="-71.108092479407787322998046875">
        <ele>806.20001220703125</ele>
        <time>2026-08-22T00:18:58.000Z</time>
        <extensions>
          <ns3:TrackPointExtension>
            <ns3:hr>109</ns3:hr>
            <ns3:cad>0</ns3:cad>
          </ns3:TrackPointExtension>
        </extensions>
      </trkpt>
      <trkpt lat="45.28946064412593841552734375" lon="-71.108092479407787322998046875">
        <ele>806.20001220703125</ele>
        <time>2026-08-22T00:18:59.000Z</time>
        <extensions>
          <ns3:TrackPointExtension>
            <ns3:hr>109</ns3:hr>
            <ns3:cad>0</ns3:cad>
          </ns3:TrackPointExtension>
        </extensions>
      </trkpt>
      <trkpt lat="45.28946064412593841552734375" lon="-71.108092479407787322998046875">
        <ele>806.20001220703125</ele>
        <time>2026-08-22T00:19:00.000Z</time>
        <extensions>
          <ns3:TrackPointExtension>
            <ns3:hr>109</ns3:hr>
            <ns3:cad>0</ns3:cad>
          </ns3:TrackPointExtension>
        </extensions>
      </trkpt>
      <trkpt lat="45.28946064412593841552734375" lon="-71.108092479407787322998046875">
        <ele>806.20001220703125</ele>
        <time>2026-08-22T00:19:01.000Z</time>
        <extensions>
          <ns3:TrackPointExtension>
            <ns3:hr>110</ns3:hr>
            <ns3:cad>0</ns3:cad>
          </ns3:TrackPointExtension>
        </extensions>
      </trkpt>
      <trkpt lat="45.28946064412593841552734375" lon="-71.108092479407787322998046875">
        <ele>806.4000244140625</ele>
        <time>2026-08-22T00:19:02.000Z</time>
        <extensions>
          <ns3:TrackPointExtension>
            <ns3:hr>110</ns3:hr>
            <ns3:cad>0</ns3:cad>
          </ns3:TrackPointExtension>
        </extensions>
      </trkpt>
      <trkpt lat="45.28946064412593841552734375" lon="-71.108092479407787322998046875">
        <ele>806.20001220703125</ele>
        <time>2026-08-22T00:19:03.000Z</time>
        <extensions>
          <ns3:TrackPointExtension>
            <ns3:hr>111</ns3:hr>
            <ns3:cad>0</ns3:cad>
          </ns3:TrackPointExtension>
        </extensions>
      </trkpt>
      <trkpt lat="45.28946064412593841552734375" lon="-71.108092479407787322998046875">
        <ele>806.20001220703125</ele>
        <time>2026-08-22T00:19:04.000Z</time>
        <extensions>
          <ns3:TrackPointExtension>
            <ns3:hr>112</ns3:hr>
            <ns3:cad>0</ns3:cad>
          </ns3:TrackPointExtension>
        </extensions>
      </trkpt>
      <trkpt lat="45.28946064412593841552734375" lon="-71.108092479407787322998046875">
        <ele>806.20001220703125</ele>
        <time>2026-08-22T00:19:05.000Z</time>
        <extensions>
          <ns3:TrackPointExtension>
            <ns3:hr>113</ns3:hr>
            <ns3:cad>0</ns3:cad>
          </ns3:TrackPointExtension>
        </extensions>
      </trkpt>
      <trkpt lat="45.28946064412593841552734375" lon="-71.108092479407787322998046875">
        <ele>806.20001220703125</ele>
        <time>2026-08-22T00:19:06.000Z</time>
        <extensions>
          <ns3:TrackPointExtension>
            <ns3:hr>110</ns3:hr>
            <ns3:cad>0</ns3:cad>
          </ns3:TrackPointExtension>
        </extensions>
      </trkpt>
      <trkpt lat="45.28946064412593841552734375" lon="-71.108092479407787322998046875">
        <ele>806.20001220703125</ele>
        <time>2026-08-22T00:19:07.000Z</time>
        <extensions>
          <ns3:TrackPointExtension>
            <ns3:hr>110</ns3:hr>
            <ns3:cad>0</ns3:cad>
          </ns3:TrackPointExtension>
        </extensions>
      </trkpt>
      <trkpt lat="45.28946064412593841552734375" lon="-71.108092479407787322998046875">
        <ele>806.20001220703125</ele>
        <time>2026-08-22T00:19:08.000Z</time>
        <extensions>
          <ns3:TrackPointExtension>
            <ns3:hr>109</ns3:hr>
            <ns3:cad>0</ns3:cad>
          </ns3:TrackPointExtension>
        </extensions>
      </trkpt>
      <trkpt lat="45.28946064412593841552734375" lon="-71.108092479407787322998046875">
        <ele>806.20001220703125</ele>
        <time>2026-08-22T00:19:09.000Z</time>
        <extensions>
          <ns3:TrackPointExtension>
            <ns3:hr>108</ns3:hr>
            <ns3:cad>0</ns3:cad>
          </ns3:TrackPointExtension>
        </extensions>
      </trkpt>
      <trkpt lat="45.28946064412593841552734375" lon="-71.108092479407787322998046875">
        <ele>806.20001220703125</ele>
        <time>2026-08-22T00:19:10.000Z</time>
        <extensions>
          <ns3:TrackPointExtension>
            <ns3:hr>107</ns3:hr>
            <ns3:cad>0</ns3:cad>
          </ns3:TrackPointExtension>
        </extensions>
      </trkpt>
      <trkpt lat="45.28946064412593841552734375" lon="-71.108092479407787322998046875">
        <ele>806.20001220703125</ele>
        <time>2026-08-22T00:19:11.000Z</time>
        <extensions>
          <ns3:TrackPointExtension>
            <ns3:hr>106</ns3:hr>
            <ns3:cad>0</ns3:cad>
          </ns3:TrackPointExtension>
        </extensions>
      </trkpt>
      <trkpt lat="45.28946064412593841552734375" lon="-71.108092479407787322998046875">
        <ele>806</ele>
        <time>2026-08-22T00:19:12.000Z</time>
        <extensions>
          <ns3:TrackPointExtension>
            <ns3:hr>106</ns3:hr>
            <ns3:cad>0</ns3:cad>
          </ns3:TrackPointExtension>
        </extensions>
      </trkpt>
      <trkpt lat="45.28945921920239925384521484375" lon="-71.10809491015970706939697265625">
        <ele>806</ele>
        <time>2026-08-22T00:19:13.000Z</time>
        <extensions>
          <ns3:TrackPointExtension>
            <ns3:hr>106</ns3:hr>
            <ns3:cad>0</ns3:cad>
          </ns3:TrackPointExtension>
        </extensions>
      </trkpt>
      <trkpt lat="45.289454944431781768798828125" lon="-71.108097843825817108154296875">
        <ele>805.79998779296875</ele>
        <time>2026-08-22T00:19:14.000Z</time>
        <extensions>
          <ns3:TrackPointExtension>
            <ns3:hr>107</ns3:hr>
            <ns3:cad>0</ns3:cad>
          </ns3:TrackPointExtension>
        </extensions>
      </trkpt>
      <trkpt lat="45.28945368714630603790283203125" lon="-71.10810019075870513916015625">
        <ele>805.5999755859375</ele>
        <time>2026-08-22T00:19:15.000Z</time>
        <extensions>
          <ns3:TrackPointExtension>
            <ns3:hr>107</ns3:hr>
            <ns3:cad>0</ns3:cad>
          </ns3:TrackPointExtension>
        </extensions>
      </trkpt>
      <trkpt lat="45.2894577942788600921630859375" lon="-71.1081003583967685699462890625">
        <ele>805.5999755859375</ele>
        <time>2026-08-22T00:19:16.000Z</time>
        <extensions>
          <ns3:TrackPointExtension>
            <ns3:hr>108</ns3:hr>
            <ns3:cad>0</ns3:cad>
          </ns3:TrackPointExtension>
        </extensions>
      </trkpt>
      <trkpt lat="45.289457626640796661376953125" lon="-71.10810329206287860870361328125">
        <ele>805.4000244140625</ele>
        <time>2026-08-22T00:19:17.000Z</time>
        <extensions>
          <ns3:TrackPointExtension>
            <ns3:hr>108</ns3:hr>
            <ns3:cad>59</ns3:cad>
          </ns3:TrackPointExtension>
        </extensions>
      </trkpt>
      <trkpt lat="45.2894554473459720611572265625" lon="-71.1081063933670520782470703125">
        <ele>805.4000244140625</ele>
        <time>2026-08-22T00:19:18.000Z</time>
        <extensions>
          <ns3:TrackPointExtension>
            <ns3:hr>109</ns3:hr>
            <ns3:cad>59</ns3:cad>
          </ns3:TrackPointExtension>
        </extensions>
      </trkpt>
      <trkpt lat="45.28945720754563808441162109375" lon="-71.1081037111580371856689453125">
        <ele>805.4000244140625</ele>
        <time>2026-08-22T00:19:19.000Z</time>
        <extensions>
          <ns3:TrackPointExtension>
            <ns3:hr>110</ns3:hr>
            <ns3:cad>59</ns3:cad>
          </ns3:TrackPointExtension>
        </extensions>
      </trkpt>
      <trkpt lat="45.2894544415175914764404296875" lon="-71.1081047169864177703857421875">
        <ele>805.4000244140625</ele>
        <time>2026-08-22T00:19:20.000Z</time>
        <extensions>
          <ns3:TrackPointExtension>
            <ns3:hr>111</ns3:hr>
            <ns3:cad>59</ns3:cad>
          </ns3:TrackPointExtension>
        </extensions>
      </trkpt>
      <trkpt lat="45.28945502825081348419189453125" lon="-71.1081090755760669708251953125">
        <ele>805.4000244140625</ele>
        <time>2026-08-22T00:19:21.000Z</time>
        <extensions>
          <ns3:TrackPointExtension>
            <ns3:hr>112</ns3:hr>
            <ns3:cad>0</ns3:cad>
          </ns3:TrackPointExtension>
        </extensions>
      </trkpt>
      <trkpt lat="45.289448238909244537353515625" lon="-71.10811586491763591766357421875">
        <ele>805.4000244140625</ele>
        <time>2026-08-22T00:19:22.000Z</time>
        <extensions>
          <ns3:TrackPointExtension>
            <ns3:hr>112</ns3:hr>
            <ns3:cad>0</ns3:cad>
          </ns3:TrackPointExtension>
        </extensions>
      </trkpt>
      <trkpt lat="45.28944513760507106781005859375" lon="-71.10811787657439708709716796875">
        <ele>805.4000244140625</ele>
        <time>2026-08-22T00:19:23.000Z</time>
        <extensions>
          <ns3:TrackPointExtension>
            <ns3:hr>112</ns3:hr>
            <ns3:cad>0</ns3:cad>
          </ns3:TrackPointExtension>
        </extensions>
      </trkpt>
      <trkpt lat="45.2894467301666736602783203125" lon="-71.1081115901470184326171875">
        <ele>805.20001220703125</ele>
        <time>2026-08-22T00:19:24.000Z</time>
        <extensions>
          <ns3:TrackPointExtension>
            <ns3:hr>112</ns3:hr>
            <ns3:cad>0</ns3:cad>
          </ns3:TrackPointExtension>
        </extensions>
      </trkpt>
      <trkpt lat="45.289442203938961029052734375" lon="-71.108110584318637847900390625">
        <ele>805.20001220703125</ele>
        <time>2026-08-22T00:19:25.000Z</time>
        <extensions>
          <ns3:TrackPointExtension>
            <ns3:hr>112</ns3:hr>
            <ns3:cad>0</ns3:cad>
          </ns3:TrackPointExtension>
        </extensions>
      </trkpt>
      <trkpt lat="45.28943876735866069793701171875" lon="-71.10811091959476470947265625">
        <ele>805.20001220703125</ele>
        <time>2026-08-22T00:19:26.000Z</time>
        <extensions>
          <ns3:TrackPointExtension>
            <ns3:hr>113</ns3:hr>
            <ns3:cad>0</ns3:cad>
          </ns3:TrackPointExtension>
        </extensions>
      </trkpt>
      <trkpt lat="45.28944245539605617523193359375" lon="-71.10811360180377960205078125">
        <ele>805.20001220703125</ele>
        <time>2026-08-22T00:19:27.000Z</time>
        <extensions>
          <ns3:TrackPointExtension>
            <ns3:hr>113</ns3:hr>
            <ns3:cad>0</ns3:cad>
          </ns3:TrackPointExtension>
        </extensions>
      </trkpt>
      <trkpt lat="45.289443545043468475341796875" lon="-71.108113937079906463623046875">
        <ele>805</ele>
        <time>2026-08-22T00:19:28.000Z</time>
        <extensions>
          <ns3:TrackPointExtension>
            <ns3:hr>113</ns3:hr>
            <ns3:cad>0</ns3:cad>
          </ns3:TrackPointExtension>
        </extensions>
      </trkpt>
      <trkpt lat="45.28944446705281734466552734375" lon="-71.108112595975399017333984375">
        <ele>805</ele>
        <time>2026-08-22T00:19:29.000Z</time>
        <extensions>
          <ns3:TrackPointExtension>
            <ns3:hr>113</ns3:hr>
            <ns3:cad>0</ns3:cad>
          </ns3:TrackPointExtension>
        </extensions>
      </trkpt>
      <trkpt lat="45.2894438803195953369140625" lon="-71.108110584318637847900390625">
        <ele>805</ele>
        <time>2026-08-22T00:19:30.000Z</time>
        <extensions>
          <ns3:TrackPointExtension>
            <ns3:hr>112</ns3:hr>
            <ns3:cad>0</ns3:cad>
          </ns3:TrackPointExtension>
        </extensions>
      </trkpt>
      <trkpt lat="45.28944010846316814422607421875" lon="-71.10810756683349609375">
        <ele>805</ele>
        <time>2026-08-22T00:19:31.000Z</time>
        <extensions>
          <ns3:TrackPointExtension>
            <ns3:hr>112</ns3:hr>
            <ns3:cad>0</ns3:cad>
          </ns3:TrackPointExtension>
        </extensions>
      </trkpt>
      <trkpt lat="45.28943759389221668243408203125" lon="-71.10811100341379642486572265625">
        <ele>805</ele>
        <time>2026-08-22T00:19:32.000Z</time>
        <extensions>
          <ns3:TrackPointExtension>
            <ns3:hr>112</ns3:hr>
            <ns3:cad>0</ns3:cad>
          </ns3:TrackPointExtension>
        </extensions>
      </trkpt>
      <trkpt lat="45.28943290002644062042236328125" lon="-71.1081127636134624481201171875">
        <ele>805</ele>
        <time>2026-08-22T00:19:33.000Z</time>
        <extensions>
          <ns3:TrackPointExtension>
            <ns3:hr>112</ns3:hr>
            <ns3:cad>0</ns3:cad>
          </ns3:TrackPointExtension>
        </extensions>
      </trkpt>
      <trkpt lat="45.289426781237125396728515625" lon="-71.10811351798474788665771484375">
        <ele>804.79998779296875</ele>
        <time>2026-08-22T00:19:34.000Z</time>
        <extensions>
          <ns3:TrackPointExtension>
            <ns3:hr>112</ns3:hr>
            <ns3:cad>0</ns3:cad>
          </ns3:TrackPointExtension>
        </extensions>
      </trkpt>
      <trkpt lat="45.2894259430468082427978515625" lon="-71.10811854712665081024169921875">
        <ele>804.79998779296875</ele>
        <time>2026-08-22T00:19:35.000Z</time>
        <extensions>
          <ns3:TrackPointExtension>
            <ns3:hr>111</ns3:hr>
            <ns3:cad>0</ns3:cad>
          </ns3:TrackPointExtension>
        </extensions>
      </trkpt>
      <trkpt lat="45.28942720033228397369384765625" lon="-71.10812156461179256439208984375">
        <ele>804.79998779296875</ele>
        <time>2026-08-22T00:19:36.000Z</time>
        <extensions>
          <ns3:TrackPointExtension>
            <ns3:hr>113</ns3:hr>
            <ns3:cad>0</ns3:cad>
          </ns3:TrackPointExtension>
        </extensions>
      </trkpt>
      <trkpt lat="45.2894277870655059814453125" lon="-71.10811905004084110260009765625">
        <ele>804.5999755859375</ele>
        <time>2026-08-22T00:19:37.000Z</time>
        <extensions>
          <ns3:TrackPointExtension>
            <ns3:hr>113</ns3:hr>
            <ns3:cad>0</ns3:cad>
          </ns3:TrackPointExtension>
        </extensions>
      </trkpt>
      <trkpt lat="45.2894333191215991973876953125" lon="-71.10811385326087474822998046875">
        <ele>804.5999755859375</ele>
        <time>2026-08-22T00:19:38.000Z</time>
        <extensions>
          <ns3:TrackPointExtension>
            <ns3:hr>113</ns3:hr>
            <ns3:cad>0</ns3:cad>
          </ns3:TrackPointExtension>
        </extensions>
      </trkpt>
      <trkpt lat="45.28943340294063091278076171875" lon="-71.10811267979443073272705078125">
        <ele>804.79998779296875</ele>
        <time>2026-08-22T00:19:39.000Z</time>
        <extensions>
          <ns3:TrackPointExtension>
            <ns3:hr>113</ns3:hr>
            <ns3:cad>0</ns3:cad>
          </ns3:TrackPointExtension>
        </extensions>
      </trkpt>
      <trkpt lat="45.289428792893886566162109375" lon="-71.10811033286154270172119140625">
        <ele>804.79998779296875</ele>
        <time>2026-08-22T00:19:40.000Z</time>
        <extensions>
          <ns3:TrackPointExtension>
            <ns3:hr>113</ns3:hr>
            <ns3:cad>0</ns3:cad>
          </ns3:TrackPointExtension>
        </extensions>
      </trkpt>
      <trkpt lat="45.2894197404384613037109375" lon="-71.10811628401279449462890625">
        <ele>804.79998779296875</ele>
        <time>2026-08-22T00:19:41.000Z</time>
        <extensions>
          <ns3:TrackPointExtension>
            <ns3:hr>112</ns3:hr>
            <ns3:cad>0</ns3:cad>
          </ns3:TrackPointExtension>
        </extensions>
      </trkpt>
      <trkpt lat="45.2894182316958904266357421875" lon="-71.1081157810986042022705078125">
        <ele>804.79998779296875</ele>
        <time>2026-08-22T00:19:42.000Z</time>
        <extensions>
          <ns3:TrackPointExtension>
            <ns3:hr>112</ns3:hr>
            <ns3:cad>68</ns3:cad>
          </ns3:TrackPointExtension>
        </extensions>
      </trkpt>
      <trkpt lat="45.28941328637301921844482421875" lon="-71.10811770893633365631103515625">
        <ele>804.79998779296875</ele>
        <time>2026-08-22T00:19:43.000Z</time>
        <extensions>
          <ns3:TrackPointExtension>
            <ns3:hr>113</ns3:hr>
            <ns3:cad>68</ns3:cad>
          </ns3:TrackPointExtension>
        </extensions>
      </trkpt>
      <trkpt lat="45.2894091792404651641845703125" lon="-71.108118630945682525634765625">
        <ele>804.5999755859375</ele>
        <time>2026-08-22T00:19:44.000Z</time>
        <extensions>
          <ns3:TrackPointExtension>
            <ns3:hr>113</ns3:hr>
            <ns3:cad>68</ns3:cad>
          </ns3:TrackPointExtension>
        </extensions>
      </trkpt>
      <trkpt lat="45.2894054912030696868896484375" lon="-71.10811720602214336395263671875">
        <ele>804.20001220703125</ele>
        <time>2026-08-22T00:19:45.000Z</time>
        <extensions>
          <ns3:TrackPointExtension>
            <ns3:hr>113</ns3:hr>
            <ns3:cad>68</ns3:cad>
          </ns3:TrackPointExtension>
        </extensions>
      </trkpt>
      <trkpt lat="45.289401970803737640380859375" lon="-71.10811896622180938720703125">
        <ele>804</ele>
        <time>2026-08-22T00:19:46.000Z</time>
        <extensions>
          <ns3:TrackPointExtension>
            <ns3:hr>113</ns3:hr>
            <ns3:cad>68</ns3:cad>
          </ns3:TrackPointExtension>
        </extensions>
      </trkpt>
      <trkpt lat="45.2893956005573272705078125" lon="-71.1081208102405071258544921875">
        <ele>803.79998779296875</ele>
        <time>2026-08-22T00:19:47.000Z</time>
        <extensions>
          <ns3:TrackPointExtension>
            <ns3:hr>113</ns3:hr>
            <ns3:cad>68</ns3:cad>
          </ns3:TrackPointExtension>
        </extensions>
      </trkpt>
      <trkpt lat="45.28938981704413890838623046875" lon="-71.108119972050189971923828125">
        <ele>803.4000244140625</ele>
        <time>2026-08-22T00:19:48.000Z</time>
        <extensions>
          <ns3:TrackPointExtension>
            <ns3:hr>113</ns3:hr>
            <ns3:cad>68</ns3:cad>
          </ns3:TrackPointExtension>
        </extensions>
      </trkpt>
      <trkpt lat="45.28938009403645992279052734375" lon="-71.10812156461179256439208984375">
        <ele>803.20001220703125</ele>
        <time>2026-08-22T00:19:49.000Z</time>
        <extensions>
          <ns3:TrackPointExtension>
            <ns3:hr>114</ns3:hr>
            <ns3:cad>0</ns3:cad>
          </ns3:TrackPointExtension>
        </extensions>
      </trkpt>
      <trkpt lat="45.289373137056827545166015625" lon="-71.108125336468219757080078125">
        <ele>803</ele>
        <time>2026-08-22T00:19:50.000Z</time>
        <extensions>
          <ns3:TrackPointExtension>
            <ns3:hr>112</ns3:hr>
            <ns3:cad>0</ns3:cad>
          </ns3:TrackPointExtension>
        </extensions>
      </trkpt>
      <trkpt lat="45.28936936520040035247802734375" lon="-71.10813732258975505828857421875">
        <ele>802.79998779296875</ele>
        <time>2026-08-22T00:19:51.000Z</time>
        <extensions>
          <ns3:TrackPointExtension>
            <ns3:hr>110</ns3:hr>
            <ns3:cad>0</ns3:cad>
          </ns3:TrackPointExtension>
        </extensions>
      </trkpt>
      <trkpt lat="45.289366431534290313720703125" lon="-71.10814486630260944366455078125">
        <ele>802.5999755859375</ele>
        <time>2026-08-22T00:19:52.000Z</time>
        <extensions>
          <ns3:TrackPointExtension>
            <ns3:hr>109</ns3:hr>
            <ns3:cad>56</ns3:cad>
          </ns3:TrackPointExtension>
        </extensions>
      </trkpt>
      <trkpt lat="45.2893686108291149139404296875" lon="-71.108153164386749267578125">
        <ele>802.4000244140625</ele>
        <time>2026-08-22T00:19:53.000Z</time>
        <extensions>
          <ns3:TrackPointExtension>
            <ns3:hr>108</ns3:hr>
            <ns3:cad>56</ns3:cad>
          </ns3:TrackPointExtension>
        </extensions>
      </trkpt>
      <trkpt lat="45.28936601243913173675537109375" lon="-71.1081664077937602996826171875">
        <ele>802.4000244140625</ele>
        <time>2026-08-22T00:19:54.000Z</time>
        <extensions>
          <ns3:TrackPointExtension>
            <ns3:hr>107</ns3:hr>
            <ns3:cad>49</ns3:cad>
          </ns3:TrackPointExtension>
        </extensions>
      </trkpt>
      <trkpt lat="45.2893672697246074676513671875" lon="-71.1081848479807376861572265625">
        <ele>802.20001220703125</ele>
        <time>2026-08-22T00:19:55.000Z</time>
        <extensions>
          <ns3:TrackPointExtension>
            <ns3:hr>107</ns3:hr>
            <ns3:cad>49</ns3:cad>
          </ns3:TrackPointExtension>
        </extensions>
      </trkpt>
      <trkpt lat="45.289369784295558929443359375" lon="-71.10820068977773189544677734375">
        <ele>802</ele>
        <time>2026-08-22T00:19:56.000Z</time>
        <extensions>
          <ns3:TrackPointExtension>
            <ns3:hr>107</ns3:hr>
            <ns3:cad>49</ns3:cad>
          </ns3:TrackPointExtension>
        </extensions>
      </trkpt>
      <trkpt lat="45.28937674127519130706787109375" lon="-71.10821493901312351226806640625">
        <ele>801.5999755859375</ele>
        <time>2026-08-22T00:19:57.000Z</time>
        <extensions>
          <ns3:TrackPointExtension>
            <ns3:hr>107</ns3:hr>
            <ns3:cad>49</ns3:cad>
          </ns3:TrackPointExtension>
        </extensions>
      </trkpt>
      <trkpt lat="45.289381854236125946044921875" lon="-71.108220554888248443603515625">
        <ele>801.4000244140625</ele>
        <time>2026-08-22T00:19:58.000Z</time>
        <extensions>
          <ns3:TrackPointExtension>
            <ns3:hr>107</ns3:hr>
            <ns3:cad>49</ns3:cad>
          </ns3:TrackPointExtension>
        </extensions>
      </trkpt>
      <trkpt lat="45.28938780538737773895263671875" lon="-71.10822399146854877471923828125">
        <ele>801.4000244140625</ele>
        <time>2026-08-22T00:19:59.000Z</time>
        <extensions>
          <ns3:TrackPointExtension>
            <ns3:hr>108</ns3:hr>
            <ns3:cad>49</ns3:cad>
          </ns3:TrackPointExtension>
        </extensions>
      </trkpt>
      <trkpt lat="45.289393253624439239501953125" lon="-71.10823371447622776031494140625">
        <ele>801.4000244140625</ele>
        <time>2026-08-22T00:20:00.000Z</time>
        <extensions>
          <ns3:TrackPointExtension>
            <ns3:hr>107</ns3:hr>
            <ns3:cad>49</ns3:cad>
          </ns3:TrackPointExtension>
        </extensions>
      </trkpt>
      <trkpt lat="45.28939803130924701690673828125" lon="-71.1082485504448413848876953125">
        <ele>801.4000244140625</ele>
        <time>2026-08-22T00:20:01.000Z</time>
        <extensions>
          <ns3:TrackPointExtension>
            <ns3:hr>108</ns3:hr>
            <ns3:cad>52</ns3:cad>
          </ns3:TrackPointExtension>
        </extensions>
      </trkpt>
      <trkpt lat="45.28940155170857906341552734375" lon="-71.1082616262137889862060546875">
        <ele>801.20001220703125</ele>
        <time>2026-08-22T00:20:02.000Z</time>
        <extensions>
          <ns3:TrackPointExtension>
            <ns3:hr>108</ns3:hr>
            <ns3:cad>52</ns3:cad>
          </ns3:TrackPointExtension>
        </extensions>
      </trkpt>
      <trkpt lat="45.28939752839505672454833984375" lon="-71.1082693375647068023681640625">
        <ele>801</ele>
        <time>2026-08-22T00:20:03.000Z</time>
        <extensions>
          <ns3:TrackPointExtension>
            <ns3:hr>108</ns3:hr>
            <ns3:cad>52</ns3:cad>
          </ns3:TrackPointExtension>
        </extensions>
      </trkpt>
      <trkpt lat="45.28939182870090007781982421875" lon="-71.10828526318073272705078125">
        <ele>800.79998779296875</ele>
        <time>2026-08-22T00:20:04.000Z</time>
        <extensions>
          <ns3:TrackPointExtension>
            <ns3:hr>108</ns3:hr>
            <ns3:cad>0</ns3:cad>
          </ns3:TrackPointExtension>
        </extensions>
      </trkpt>
      <trkpt lat="45.289386548101902008056640625" lon="-71.10830429010093212127685546875">
        <ele>800.4000244140625</ele>
        <time>2026-08-22T00:20:05.000Z</time>
        <extensions>
          <ns3:TrackPointExtension>
            <ns3:hr>109</ns3:hr>
            <ns3:cad>0</ns3:cad>
          </ns3:TrackPointExtension>
        </extensions>
      </trkpt>
      <trkpt lat="45.28938244096934795379638671875" lon="-71.1083234846591949462890625">
        <ele>800</ele>
        <time>2026-08-22T00:20:06.000Z</time>
        <extensions>
          <ns3:TrackPointExtension>
            <ns3:hr>109</ns3:hr>
            <ns3:cad>0</ns3:cad>
          </ns3:TrackPointExtension>
        </extensions>
      </trkpt>
      <trkpt lat="45.2893783338367938995361328125" lon="-71.1083400808274745941162109375">
        <ele>799.4000244140625</ele>
        <time>2026-08-22T00:20:07.000Z</time>
        <extensions>
          <ns3:TrackPointExtension>
            <ns3:hr>110</ns3:hr>
            <ns3:cad>0</ns3:cad>
          </ns3:TrackPointExtension>
        </extensions>
      </trkpt>
      <trkpt lat="45.289378501474857330322265625" lon="-71.108348630368709564208984375">
        <ele>799</ele>
        <time>2026-08-22T00:20:08.000Z</time>
        <extensions>
          <ns3:TrackPointExtension>
            <ns3:hr>110</ns3:hr>
            <ns3:cad>0</ns3:cad>
          </ns3:TrackPointExtension>
        </extensions>
      </trkpt>
      <trkpt lat="45.2893726341426372528076171875" lon="-71.10836061649024486541748046875">
        <ele>798.5999755859375</ele>
        <time>2026-08-22T00:20:09.000Z</time>
        <extensions>
          <ns3:TrackPointExtension>
            <ns3:hr>110</ns3:hr>
            <ns3:cad>0</ns3:cad>
          </ns3:TrackPointExtension>
        </extensions>
      </trkpt>
      <trkpt lat="45.28936685062944889068603515625" lon="-71.10837377607822418212890625">
        <ele>798.20001220703125</ele>
        <time>2026-08-22T00:20:10.000Z</time>
        <extensions>
          <ns3:TrackPointExtension>
            <ns3:hr>111</ns3:hr>
            <ns3:cad>0</ns3:cad>
          </ns3:TrackPointExtension>
        </extensions>
      </trkpt>
      <trkpt lat="45.28936542570590972900390625" lon="-71.1083893664181232452392578125">
        <ele>797.79998779296875</ele>
        <time>2026-08-22T00:20:11.000Z</time>
        <extensions>
          <ns3:TrackPointExtension>
            <ns3:hr>111</ns3:hr>
            <ns3:cad>0</ns3:cad>
          </ns3:TrackPointExtension>
        </extensions>
      </trkpt>
      <trkpt lat="45.28936450369656085968017578125" lon="-71.108402945101261138916015625">
        <ele>797.5999755859375</ele>
        <time>2026-08-22T00:20:12.000Z</time>
        <extensions>
          <ns3:TrackPointExtension>
            <ns3:hr>111</ns3:hr>
            <ns3:cad>0</ns3:cad>
          </ns3:TrackPointExtension>
        </extensions>
      </trkpt>
      <trkpt lat="45.2893649227917194366455078125" lon="-71.108415015041828155517578125">
        <ele>797.20001220703125</ele>
        <time>2026-08-22T00:20:13.000Z</time>
        <extensions>
          <ns3:TrackPointExtension>
            <ns3:hr>111</ns3:hr>
            <ns3:cad>0</ns3:cad>
          </ns3:TrackPointExtension>
        </extensions>
      </trkpt>
      <trkpt lat="45.289361067116260528564453125" lon="-71.1084279231727123260498046875">
        <ele>797</ele>
        <time>2026-08-22T00:20:14.000Z</time>
        <extensions>
          <ns3:TrackPointExtension>
            <ns3:hr>111</ns3:hr>
            <ns3:cad>0</ns3:cad>
          </ns3:TrackPointExtension>
        </extensions>
      </trkpt>
      <trkpt lat="45.2893562056124210357666015625" lon="-71.10844083130359649658203125">
        <ele>796.5999755859375</ele>
        <time>2026-08-22T00:20:15.000Z</time>
        <extensions>
          <ns3:TrackPointExtension>
            <ns3:hr>112</ns3:hr>
            <ns3:cad>0</ns3:cad>
          </ns3:TrackPointExtension>
        </extensions>
      </trkpt>
      <trkpt lat="45.289346985518932342529296875" lon="-71.108453571796417236328125">
        <ele>796.20001220703125</ele>
        <time>2026-08-22T00:20:16.000Z</time>
        <extensions>
          <ns3:TrackPointExtension>
            <ns3:hr>111</ns3:hr>
            <ns3:cad>0</ns3:cad>
          </ns3:TrackPointExtension>
        </extensions>
      </trkpt>
      <trkpt lat="45.2893404476344585418701171875" lon="-71.1084597744047641754150390625">
        <ele>795.79998779296875</ele>
        <time>2026-08-22T00:20:17.000Z</time>
        <extensions>
          <ns3:TrackPointExtension>
            <ns3:hr>111</ns3:hr>
            <ns3:cad>0</ns3:cad>
          </ns3:TrackPointExtension>
        </extensions>
      </trkpt>
      <trkpt lat="45.28933458030223846435546875" lon="-71.10845784656703472137451171875">
        <ele>795.4000244140625</ele>
        <time>2026-08-22T00:20:18.000Z</time>
        <extensions>
          <ns3:TrackPointExtension>
            <ns3:hr>111</ns3:hr>
            <ns3:cad>0</ns3:cad>
          </ns3:TrackPointExtension>
        </extensions>
      </trkpt>
      <trkpt lat="45.2893256954848766326904296875" lon="-71.1084587685763835906982421875">
        <ele>795</ele>
        <time>2026-08-22T00:20:19.000Z</time>
        <extensions>
          <ns3:TrackPointExtension>
            <ns3:hr>111</ns3:hr>
            <ns3:cad>0</ns3:cad>
          </ns3:TrackPointExtension>
        </extensions>
      </trkpt>
      <trkpt lat="45.2893189899623394012451171875" lon="-71.10845985822379589080810546875">
        <ele>794.5999755859375</ele>
        <time>2026-08-22T00:20:20.000Z</time>
        <extensions>
          <ns3:TrackPointExtension>
            <ns3:hr>111</ns3:hr>
            <ns3:cad>0</ns3:cad>
          </ns3:TrackPointExtension>
        </extensions>
      </trkpt>
      <trkpt lat="45.289308764040470123291015625" lon="-71.10845734365284442901611328125">
        <ele>794.4000244140625</ele>
        <time>2026-08-22T00:20:21.000Z</time>
        <extensions>
          <ns3:TrackPointExtension>
            <ns3:hr>111</ns3:hr>
            <ns3:cad>0</ns3:cad>
          </ns3:TrackPointExtension>
        </extensions>
      </trkpt>
      <trkpt lat="45.28930029831826686859130859375" lon="-71.10845516435801982879638671875">
        <ele>794.20001220703125</ele>
        <time>2026-08-22T00:20:22.000Z</time>
        <extensions>
          <ns3:TrackPointExtension>
            <ns3:hr>110</ns3:hr>
            <ns3:cad>0</ns3:cad>
          </ns3:TrackPointExtension>
        </extensions>
      </trkpt>
      <trkpt lat="45.28929300606250762939453125" lon="-71.10845549963414669036865234375">
        <ele>793.79998779296875</ele>
        <time>2026-08-22T00:20:23.000Z</time>
        <extensions>
          <ns3:TrackPointExtension>
            <ns3:hr>110</ns3:hr>
            <ns3:cad>0</ns3:cad>
          </ns3:TrackPointExtension>
        </extensions>
      </trkpt>
      <trkpt lat="45.28928521089255809783935546875" lon="-71.10845617018640041351318359375">
        <ele>793.4000244140625</ele>
        <time>2026-08-22T00:20:24.000Z</time>
        <extensions>
          <ns3:TrackPointExtension>
            <ns3:hr>110</ns3:hr>
            <ns3:cad>0</ns3:cad>
          </ns3:TrackPointExtension>
        </extensions>
      </trkpt>
      <trkpt lat="45.2892797626554965972900390625" lon="-71.10845424234867095947265625">
        <ele>793.20001220703125</ele>
        <time>2026-08-22T00:20:25.000Z</time>
        <extensions>
          <ns3:TrackPointExtension>
            <ns3:hr>110</ns3:hr>
            <ns3:cad>0</ns3:cad>
          </ns3:TrackPointExtension>
        </extensions>
      </trkpt>
      <trkpt lat="45.28928018175065517425537109375" lon="-71.1084507219493389129638671875">
        <ele>792.79998779296875</ele>
        <time>2026-08-22T00:20:26.000Z</time>
        <extensions>
          <ns3:TrackPointExtension>
            <ns3:hr>110</ns3:hr>
            <ns3:cad>0</ns3:cad>
          </ns3:TrackPointExtension>
        </extensions>
      </trkpt>
      <trkpt lat="45.28927766717970371246337890625" lon="-71.108445860445499420166015625">
        <ele>792.5999755859375</ele>
        <time>2026-08-22T00:20:27.000Z</time>
        <extensions>
          <ns3:TrackPointExtension>
            <ns3:hr>110</ns3:hr>
            <ns3:cad>0</ns3:cad>
          </ns3:TrackPointExtension>
        </extensions>
      </trkpt>
      <trkpt lat="45.28927146457135677337646484375" lon="-71.108439154922962188720703125">
        <ele>792.4000244140625</ele>
        <time>2026-08-22T00:20:28.000Z</time>
        <extensions>
          <ns3:TrackPointExtension>
            <ns3:hr>110</ns3:hr>
            <ns3:cad>0</ns3:cad>
          </ns3:TrackPointExtension>
        </extensions>
      </trkpt>
      <trkpt lat="45.28926551342010498046875" lon="-71.108430437743663787841796875">
        <ele>792.20001220703125</ele>
        <time>2026-08-22T00:20:29.000Z</time>
        <extensions>
          <ns3:TrackPointExtension>
            <ns3:hr>109</ns3:hr>
            <ns3:cad>0</ns3:cad>
          </ns3:TrackPointExtension>
        </extensions>
      </trkpt>
      <trkpt lat="45.28925939463078975677490234375" lon="-71.108417697250843048095703125">
        <ele>792.20001220703125</ele>
        <time>2026-08-22T00:20:30.000Z</time>
        <extensions>
          <ns3:TrackPointExtension>
            <ns3:hr>110</ns3:hr>
            <ns3:cad>0</ns3:cad>
          </ns3:TrackPointExtension>
        </extensions>
      </trkpt>
      <trkpt lat="45.28925453312695026397705078125" lon="-71.1084066331386566162109375">
        <ele>792</ele>
        <time>2026-08-22T00:20:31.000Z</time>
        <extensions>
          <ns3:TrackPointExtension>
            <ns3:hr>109</ns3:hr>
            <ns3:cad>0</ns3:cad>
          </ns3:TrackPointExtension>
        </extensions>
      </trkpt>
      <trkpt lat="45.2892452292144298553466796875" lon="-71.1084017716348171234130859375">
        <ele>791.79998779296875</ele>
        <time>2026-08-22T00:20:32.000Z</time>
        <extensions>
          <ns3:TrackPointExtension>
            <ns3:hr>109</ns3:hr>
            <ns3:cad>0</ns3:cad>
          </ns3:TrackPointExtension>
        </extensions>
      </trkpt>
      <trkpt lat="45.28923802077770233154296875" lon="-71.10839380882680416107177734375">
        <ele>791.79998779296875</ele>
        <time>2026-08-22T00:20:33.000Z</time>
        <extensions>
          <ns3:TrackPointExtension>
            <ns3:hr>108</ns3:hr>
            <ns3:cad>0</ns3:cad>
          </ns3:TrackPointExtension>
        </extensions>
      </trkpt>
      <trkpt lat="45.28922997415065765380859375" lon="-71.108379475772380828857421875">
        <ele>791.5999755859375</ele>
        <time>2026-08-22T00:20:34.000Z</time>
        <extensions>
          <ns3:TrackPointExtension>
            <ns3:hr>108</ns3:hr>
            <ns3:cad>0</ns3:cad>
          </ns3:TrackPointExtension>
        </extensions>
      </trkpt>
      <trkpt lat="45.289217568933963775634765625" lon="-71.1083689145743846893310546875">
        <ele>791.4000244140625</ele>
        <time>2026-08-22T00:20:35.000Z</time>
        <extensions>
          <ns3:TrackPointExtension>
            <ns3:hr>108</ns3:hr>
            <ns3:cad>0</ns3:cad>
          </ns3:TrackPointExtension>
        </extensions>
      </trkpt>
      <trkpt lat="45.289204828441143035888671875" lon="-71.108368746936321258544921875">
        <ele>791.20001220703125</ele>
        <time>2026-08-22T00:20:36.000Z</time>
        <extensions>
          <ns3:TrackPointExtension>
            <ns3:hr>108</ns3:hr>
            <ns3:cad>0</ns3:cad>
          </ns3:TrackPointExtension>
        </extensions>
      </trkpt>
      <trkpt lat="45.28919183649122714996337890625" lon="-71.1083699204027652740478515625">
        <ele>791</ele>
        <time>2026-08-22T00:20:37.000Z</time>
        <extensions>
          <ns3:TrackPointExtension>
            <ns3:hr>108</ns3:hr>
            <ns3:cad>0</ns3:cad>
          </ns3:TrackPointExtension>
        </extensions>
      </trkpt>
      <trkpt lat="45.28917758725583553314208984375" lon="-71.10836698673665523529052734375">
        <ele>790.79998779296875</ele>
        <time>2026-08-22T00:20:38.000Z</time>
        <extensions>
          <ns3:TrackPointExtension>
            <ns3:hr>108</ns3:hr>
            <ns3:cad>0</ns3:cad>
          </ns3:TrackPointExtension>
        </extensions>
      </trkpt>
      <trkpt lat="45.2891649305820465087890625" lon="-71.10836028121411800384521484375">
        <ele>790.5999755859375</ele>
        <time>2026-08-22T00:20:39.000Z</time>
        <extensions>
          <ns3:TrackPointExtension>
            <ns3:hr>108</ns3:hr>
            <ns3:cad>0</ns3:cad>
          </ns3:TrackPointExtension>
        </extensions>
      </trkpt>
      <trkpt lat="45.2891516871750354766845703125" lon="-71.1083578504621982574462890625">
        <ele>790.20001220703125</ele>
        <time>2026-08-22T00:20:40.000Z</time>
        <extensions>
          <ns3:TrackPointExtension>
            <ns3:hr>108</ns3:hr>
            <ns3:cad>68</ns3:cad>
          </ns3:TrackPointExtension>
        </extensions>
      </trkpt>
      <trkpt lat="45.289137773215770721435546875" lon="-71.10835843719542026519775390625">
        <ele>789.79998779296875</ele>
        <time>2026-08-22T00:20:41.000Z</time>
        <extensions>
          <ns3:TrackPointExtension>
            <ns3:hr>109</ns3:hr>
            <ns3:cad>68</ns3:cad>
          </ns3:TrackPointExtension>
        </extensions>
      </trkpt>
      <trkpt lat="45.2891272120177745819091796875" lon="-71.10835902392864227294921875">
        <ele>789.4000244140625</ele>
        <time>2026-08-22T00:20:42.000Z</time>
        <extensions>
          <ns3:TrackPointExtension>
            <ns3:hr>110</ns3:hr>
            <ns3:cad>0</ns3:cad>
          </ns3:TrackPointExtension>
        </extensions>
      </trkpt>
      <trkpt lat="45.289121009409427642822265625" lon="-71.10836111940443515777587890625">
        <ele>789</ele>
        <time>2026-08-22T00:20:43.000Z</time>
        <extensions>
          <ns3:TrackPointExtension>
            <ns3:hr>110</ns3:hr>
            <ns3:cad>0</ns3:cad>
          </ns3:TrackPointExtension>
        </extensions>
      </trkpt>
      <trkpt lat="45.289112627506256103515625" lon="-71.1083628796041011810302734375">
        <ele>788.5999755859375</ele>
        <time>2026-08-22T00:20:44.000Z</time>
        <extensions>
          <ns3:TrackPointExtension>
            <ns3:hr>110</ns3:hr>
            <ns3:cad>0</ns3:cad>
          </ns3:TrackPointExtension>
        </extensions>
      </trkpt>
      <trkpt lat="45.28909930028021335601806640625" lon="-71.108362041413784027099609375">
        <ele>788.20001220703125</ele>
        <time>2026-08-22T00:20:45.000Z</time>
        <extensions>
          <ns3:TrackPointExtension>
            <ns3:hr>111</ns3:hr>
            <ns3:cad>0</ns3:cad>
          </ns3:TrackPointExtension>
        </extensions>
      </trkpt>
      <trkpt lat="45.28909075073897838592529296875" lon="-71.1083632148802280426025390625">
        <ele>787.79998779296875</ele>
        <time>2026-08-22T00:20:46.000Z</time>
        <extensions>
          <ns3:TrackPointExtension>
            <ns3:hr>111</ns3:hr>
            <ns3:cad>0</ns3:cad>
          </ns3:TrackPointExtension>
        </extensions>
      </trkpt>
      <trkpt lat="45.28908521868288516998291015625" lon="-71.10836128704249858856201171875">
        <ele>787.5999755859375</ele>
        <time>2026-08-22T00:20:47.000Z</time>
        <extensions>
          <ns3:TrackPointExtension>
            <ns3:hr>112</ns3:hr>
            <ns3:cad>0</ns3:cad>
          </ns3:TrackPointExtension>
        </extensions>
      </trkpt>
      <trkpt lat="45.28908069245517253875732421875" lon="-71.10835902392864227294921875">
        <ele>787.4000244140625</ele>
        <time>2026-08-22T00:20:48.000Z</time>
        <extensions>
          <ns3:TrackPointExtension>
            <ns3:hr>112</ns3:hr>
            <ns3:cad>0</ns3:cad>
          </ns3:TrackPointExtension>
        </extensions>
      </trkpt>
      <trkpt lat="45.28907465748488903045654296875" lon="-71.1083578504621982574462890625">
        <ele>787.20001220703125</ele>
        <time>2026-08-22T00:20:49.000Z</time>
        <extensions>
          <ns3:TrackPointExtension>
            <ns3:hr>112</ns3:hr>
            <ns3:cad>0</ns3:cad>
          </ns3:TrackPointExtension>
        </extensions>
      </trkpt>
      <trkpt lat="45.28907180763781070709228515625" lon="-71.10835508443415164947509765625">
        <ele>787</ele>
        <time>2026-08-22T00:20:50.000Z</time>
        <extensions>
          <ns3:TrackPointExtension>
            <ns3:hr>113</ns3:hr>
            <ns3:cad>0</ns3:cad>
          </ns3:TrackPointExtension>
        </extensions>
      </trkpt>
      <trkpt lat="45.289067365229129791259765625" lon="-71.10835458151996135711669921875">
        <ele>786.79998779296875</ele>
        <time>2026-08-22T00:20:51.000Z</time>
        <extensions>
          <ns3:TrackPointExtension>
            <ns3:hr>113</ns3:hr>
            <ns3:cad>0</ns3:cad>
          </ns3:TrackPointExtension>
        </extensions>
      </trkpt>
      <trkpt lat="45.2890571393072605133056640625" lon="-71.10835206694900989532470703125">
        <ele>786.5999755859375</ele>
        <time>2026-08-22T00:20:52.000Z</time>
        <extensions>
          <ns3:TrackPointExtension>
            <ns3:hr>113</ns3:hr>
            <ns3:cad>0</ns3:cad>
          </ns3:TrackPointExtension>
        </extensions>
      </trkpt>
      <trkpt lat="45.28904112987220287322998046875" lon="-71.1083481274545192718505859375">
        <ele>786.4000244140625</ele>
        <time>2026-08-22T00:20:53.000Z</time>
        <extensions>
          <ns3:TrackPointExtension>
            <ns3:hr>114</ns3:hr>
            <ns3:cad>0</ns3:cad>
          </ns3:TrackPointExtension>
        </extensions>
      </trkpt>
      <trkpt lat="45.2890326641499996185302734375" lon="-71.10834502615034580230712890625">
        <ele>786.20001220703125</ele>
        <time>2026-08-22T00:20:54.000Z</time>
        <extensions>
          <ns3:TrackPointExtension>
            <ns3:hr>114</ns3:hr>
            <ns3:cad>0</ns3:cad>
          </ns3:TrackPointExtension>
        </extensions>
      </trkpt>
      <trkpt lat="45.28902612626552581787109375" lon="-71.1083476245403289794921875">
        <ele>785.79998779296875</ele>
        <time>2026-08-22T00:20:55.000Z</time>
        <extensions>
          <ns3:TrackPointExtension>
            <ns3:hr>114</ns3:hr>
            <ns3:cad>55</ns3:cad>
          </ns3:TrackPointExtension>
        </extensions>
      </trkpt>
      <trkpt lat="45.2890212647616863250732421875" lon="-71.1083447746932506561279296875">
        <ele>785.5999755859375</ele>
        <time>2026-08-22T00:20:56.000Z</time>
        <extensions>
          <ns3:TrackPointExtension>
            <ns3:hr>113</ns3:hr>
            <ns3:cad>55</ns3:cad>
          </ns3:TrackPointExtension>
        </extensions>
      </trkpt>
      <trkpt lat="45.28901732526719570159912109375" lon="-71.10833731479942798614501953125">
        <ele>785.20001220703125</ele>
        <time>2026-08-22T00:20:57.000Z</time>
        <extensions>
          <ns3:TrackPointExtension>
            <ns3:hr>113</ns3:hr>
            <ns3:cad>55</ns3:cad>
          </ns3:TrackPointExtension>
        </extensions>
      </trkpt>
      <trkpt lat="45.2890061773359775543212890625" lon="-71.10833823680877685546875">
        <ele>784.79998779296875</ele>
        <time>2026-08-22T00:20:58.000Z</time>
        <extensions>
          <ns3:TrackPointExtension>
            <ns3:hr>113</ns3:hr>
            <ns3:cad>55</ns3:cad>
          </ns3:TrackPointExtension>
        </extensions>
      </trkpt>
      <trkpt lat="45.2889863960444927215576171875" lon="-71.10835609026253223419189453125">
        <ele>784.4000244140625</ele>
        <time>2026-08-22T00:20:59.000Z</time>
        <extensions>
          <ns3:TrackPointExtension>
            <ns3:hr>113</ns3:hr>
            <ns3:cad>55</ns3:cad>
          </ns3:TrackPointExtension>
        </extensions>
      </trkpt>
      <trkpt lat="45.2889803610742092132568359375" lon="-71.108366064727306365966796875">
        <ele>784</ele>
        <time>2026-08-22T00:21:00.000Z</time>
        <extensions>
          <ns3:TrackPointExtension>
            <ns3:hr>113</ns3:hr>
            <ns3:cad>55</ns3:cad>
          </ns3:TrackPointExtension>
        </extensions>
      </trkpt>
      <trkpt lat="45.2889729849994182586669921875" lon="-71.1083682440221309661865234375">
        <ele>783.5999755859375</ele>
        <time>2026-08-22T00:21:01.000Z</time>
        <extensions>
          <ns3:TrackPointExtension>
            <ns3:hr>113</ns3:hr>
            <ns3:cad>55</ns3:cad>
          </ns3:TrackPointExtension>
        </extensions>
      </trkpt>
      <trkpt lat="45.28895664028823375701904296875" lon="-71.10837101005017757415771484375">
        <ele>783.20001220703125</ele>
        <time>2026-08-22T00:21:02.000Z</time>
        <extensions>
          <ns3:TrackPointExtension>
            <ns3:hr>113</ns3:hr>
            <ns3:cad>55</ns3:cad>
          </ns3:TrackPointExtension>
        </extensions>
      </trkpt>
      <trkpt lat="45.288944654166698455810546875" lon="-71.10838442109525203704833984375">
        <ele>783</ele>
        <time>2026-08-22T00:21:03.000Z</time>
        <extensions>
          <ns3:TrackPointExtension>
            <ns3:hr>113</ns3:hr>
            <ns3:cad>55</ns3:cad>
          </ns3:TrackPointExtension>
        </extensions>
      </trkpt>
      <trkpt lat="45.28893467970192432403564453125" lon="-71.1083947308361530303955078125">
        <ele>782.79998779296875</ele>
        <time>2026-08-22T00:21:04.000Z</time>
        <extensions>
          <ns3:TrackPointExtension>
            <ns3:hr>113</ns3:hr>
            <ns3:cad>55</ns3:cad>
          </ns3:TrackPointExtension>
        </extensions>
      </trkpt>
      <trkpt lat="45.28892512433230876922607421875" lon="-71.10839732922613620758056640625">
        <ele>782.5999755859375</ele>
        <time>2026-08-22T00:21:05.000Z</time>
        <extensions>
          <ns3:TrackPointExtension>
            <ns3:hr>114</ns3:hr>
            <ns3:cad>55</ns3:cad>
          </ns3:TrackPointExtension>
        </extensions>
      </trkpt>
      <trkpt lat="45.28891481459140777587890625" lon="-71.108398251235485076904296875">
        <ele>782.20001220703125</ele>
        <time>2026-08-22T00:21:06.000Z</time>
        <extensions>
          <ns3:TrackPointExtension>
            <ns3:hr>114</ns3:hr>
            <ns3:cad>55</ns3:cad>
          </ns3:TrackPointExtension>
        </extensions>
      </trkpt>
      <trkpt lat="45.28890802524983882904052734375" lon="-71.10840470530092716217041015625">
        <ele>782</ele>
        <time>2026-08-22T00:21:07.000Z</time>
        <extensions>
          <ns3:TrackPointExtension>
            <ns3:hr>114</ns3:hr>
            <ns3:cad>55</ns3:cad>
          </ns3:TrackPointExtension>
        </extensions>
      </trkpt>
      <trkpt lat="45.28889578767120838165283203125" lon="-71.10841426067054271697998046875">
        <ele>781.79998779296875</ele>
        <time>2026-08-22T00:21:08.000Z</time>
        <extensions>
          <ns3:TrackPointExtension>
            <ns3:hr>115</ns3:hr>
            <ns3:cad>55</ns3:cad>
          </ns3:TrackPointExtension>
        </extensions>
      </trkpt>
      <trkpt lat="45.2888841368257999420166015625" lon="-71.10842666588723659515380859375">
        <ele>781.4000244140625</ele>
        <time>2026-08-22T00:21:09.000Z</time>
        <extensions>
          <ns3:TrackPointExtension>
            <ns3:hr>115</ns3:hr>
            <ns3:cad>55</ns3:cad>
          </ns3:TrackPointExtension>
        </extensions>
      </trkpt>
      <trkpt lat="45.288876257836818695068359375" lon="-71.10844217240810394287109375">
        <ele>781</ele>
        <time>2026-08-22T00:21:10.000Z</time>
        <extensions>
          <ns3:TrackPointExtension>
            <ns3:hr>115</ns3:hr>
            <ns3:cad>55</ns3:cad>
          </ns3:TrackPointExtension>
        </extensions>
      </trkpt>
      <trkpt lat="45.2888700552284717559814453125" lon="-71.108460612595081329345703125">
        <ele>780.5999755859375</ele>
        <time>2026-08-22T00:21:11.000Z</time>
        <extensions>
          <ns3:TrackPointExtension>
            <ns3:hr>115</ns3:hr>
            <ns3:cad>55</ns3:cad>
          </ns3:TrackPointExtension>
        </extensions>
      </trkpt>
      <trkpt lat="45.28886259533464908599853515625" lon="-71.10847746022045612335205078125">
        <ele>780.20001220703125</ele>
        <time>2026-08-22T00:21:12.000Z</time>
        <extensions>
          <ns3:TrackPointExtension>
            <ns3:hr>115</ns3:hr>
            <ns3:cad>55</ns3:cad>
          </ns3:TrackPointExtension>
        </extensions>
      </trkpt>
      <trkpt lat="45.28885806910693645477294921875" lon="-71.1084973253309726715087890625">
        <ele>780</ele>
        <time>2026-08-22T00:21:13.000Z</time>
        <extensions>
          <ns3:TrackPointExtension>
            <ns3:hr>115</ns3:hr>
            <ns3:cad>55</ns3:cad>
          </ns3:TrackPointExtension>
        </extensions>
      </trkpt>
      <trkpt lat="45.288852117955684661865234375" lon="-71.10851802863180637359619140625">
        <ele>779.5999755859375</ele>
        <time>2026-08-22T00:21:14.000Z</time>
        <extensions>
          <ns3:TrackPointExtension>
            <ns3:hr>115</ns3:hr>
            <ns3:cad>55</ns3:cad>
          </ns3:TrackPointExtension>
        </extensions>
      </trkpt>
      <trkpt lat="45.288844071328639984130859375" lon="-71.10853713937103748321533203125">
        <ele>779.4000244140625</ele>
        <time>2026-08-22T00:21:15.000Z</time>
        <extensions>
          <ns3:TrackPointExtension>
            <ns3:hr>115</ns3:hr>
            <ns3:cad>55</ns3:cad>
          </ns3:TrackPointExtension>
        </extensions>
      </trkpt>
      <trkpt lat="45.28883761726319789886474609375" lon="-71.10855541191995143890380859375">
        <ele>779.20001220703125</ele>
        <time>2026-08-22T00:21:16.000Z</time>
        <extensions>
          <ns3:TrackPointExtension>
            <ns3:hr>115</ns3:hr>
            <ns3:cad>74</ns3:cad>
          </ns3:TrackPointExtension>
        </extensions>
      </trkpt>
      <trkpt lat="45.2888298220932483673095703125" lon="-71.10857334919273853302001953125">
        <ele>779.20001220703125</ele>
        <time>2026-08-22T00:21:17.000Z</time>
        <extensions>
          <ns3:TrackPointExtension>
            <ns3:hr>114</ns3:hr>
            <ns3:cad>74</ns3:cad>
          </ns3:TrackPointExtension>
        </extensions>
      </trkpt>
      <trkpt lat="45.28881917707622051239013671875" lon="-71.10859212465584278106689453125">
        <ele>779</ele>
        <time>2026-08-22T00:21:18.000Z</time>
        <extensions>
          <ns3:TrackPointExtension>
            <ns3:hr>115</ns3:hr>
            <ns3:cad>74</ns3:cad>
          </ns3:TrackPointExtension>
        </extensions>
      </trkpt>
      <trkpt lat="45.28880744241178035736083984375" lon="-71.1086022667586803436279296875">
        <ele>778.79998779296875</ele>
        <time>2026-08-22T00:21:19.000Z</time>
        <extensions>
          <ns3:TrackPointExtension>
            <ns3:hr>115</ns3:hr>
            <ns3:cad>74</ns3:cad>
          </ns3:TrackPointExtension>
        </extensions>
      </trkpt>
      <trkpt lat="45.28879738412797451019287109375" lon="-71.10860444605350494384765625">
        <ele>778.79998779296875</ele>
        <time>2026-08-22T00:21:20.000Z</time>
        <extensions>
          <ns3:TrackPointExtension>
            <ns3:hr>115</ns3:hr>
            <ns3:cad>74</ns3:cad>
          </ns3:TrackPointExtension>
        </extensions>
      </trkpt>
      <trkpt lat="45.28878414072096347808837890625" lon="-71.108612157404422760009765625">
        <ele>778.4000244140625</ele>
        <time>2026-08-22T00:21:21.000Z</time>
        <extensions>
          <ns3:TrackPointExtension>
            <ns3:hr>115</ns3:hr>
            <ns3:cad>74</ns3:cad>
          </ns3:TrackPointExtension>
        </extensions>
      </trkpt>
      <trkpt lat="45.28877324424684047698974609375" lon="-71.108620874583721160888671875">
        <ele>778.20001220703125</ele>
        <time>2026-08-22T00:21:22.000Z</time>
        <extensions>
          <ns3:TrackPointExtension>
            <ns3:hr>115</ns3:hr>
            <ns3:cad>74</ns3:cad>
          </ns3:TrackPointExtension>
        </extensions>
      </trkpt>
      <trkpt lat="45.28876586817204952239990234375" lon="-71.1086344532668590545654296875">
        <ele>777.79998779296875</ele>
        <time>2026-08-22T00:21:23.000Z</time>
        <extensions>
          <ns3:TrackPointExtension>
            <ns3:hr>114</ns3:hr>
            <ns3:cad>0</ns3:cad>
          </ns3:TrackPointExtension>
        </extensions>
      </trkpt>
      <trkpt lat="45.28876285068690776824951171875" lon="-71.10864928923547267913818359375">
        <ele>777.4000244140625</ele>
        <time>2026-08-22T00:21:24.000Z</time>
        <extensions>
          <ns3:TrackPointExtension>
            <ns3:hr>114</ns3:hr>
            <ns3:cad>0</ns3:cad>
          </ns3:TrackPointExtension>
        </extensions>
      </trkpt>
      <trkpt lat="45.28875933028757572174072265625" lon="-71.10866622067987918853759765625">
        <ele>777.20001220703125</ele>
        <time>2026-08-22T00:21:25.000Z</time>
        <extensions>
          <ns3:TrackPointExtension>
            <ns3:hr>113</ns3:hr>
            <ns3:cad>55</ns3:cad>
          </ns3:TrackPointExtension>
        </extensions>
      </trkpt>
      <trkpt lat="45.28875815682113170623779296875" lon="-71.1086884327232837677001953125">
        <ele>777</ele>
        <time>2026-08-22T00:21:26.000Z</time>
        <extensions>
          <ns3:TrackPointExtension>
            <ns3:hr>113</ns3:hr>
            <ns3:cad>0</ns3:cad>
          </ns3:TrackPointExtension>
        </extensions>
      </trkpt>
      <trkpt lat="45.28876067139208316802978515625" lon="-71.10870628617703914642333984375">
        <ele>776.79998779296875</ele>
        <time>2026-08-22T00:21:27.000Z</time>
        <extensions>
          <ns3:TrackPointExtension>
            <ns3:hr>112</ns3:hr>
            <ns3:cad>0</ns3:cad>
          </ns3:TrackPointExtension>
        </extensions>
      </trkpt>
      <trkpt lat="45.2887647785246372222900390625" lon="-71.10872170887887477874755859375">
        <ele>776.79998779296875</ele>
        <time>2026-08-22T00:21:28.000Z</time>
        <extensions>
          <ns3:TrackPointExtension>
            <ns3:hr>113</ns3:hr>
            <ns3:cad>0</ns3:cad>
          </ns3:TrackPointExtension>
        </extensions>
      </trkpt>
      <trkpt lat="45.2887674607336521148681640625" lon="-71.10873453319072723388671875">
        <ele>776.79998779296875</ele>
        <time>2026-08-22T00:21:29.000Z</time>
        <extensions>
          <ns3:TrackPointExtension>
            <ns3:hr>113</ns3:hr>
            <ns3:cad>0</ns3:cad>
          </ns3:TrackPointExtension>
        </extensions>
      </trkpt>
      <trkpt lat="45.28876989148557186126708984375" lon="-71.10875071026384830474853515625">
        <ele>776.79998779296875</ele>
        <time>2026-08-22T00:21:30.000Z</time>
        <extensions>
          <ns3:TrackPointExtension>
            <ns3:hr>113</ns3:hr>
            <ns3:cad>0</ns3:cad>
          </ns3:TrackPointExtension>
        </extensions>
      </trkpt>
      <trkpt lat="45.288767628371715545654296875" lon="-71.10876378603279590606689453125">
        <ele>776.5999755859375</ele>
        <time>2026-08-22T00:21:31.000Z</time>
        <extensions>
          <ns3:TrackPointExtension>
            <ns3:hr>113</ns3:hr>
            <ns3:cad>0</ns3:cad>
          </ns3:TrackPointExtension>
        </extensions>
      </trkpt>
      <trkpt lat="45.2887644432485103607177734375" lon="-71.108778454363346099853515625">
        <ele>776.4000244140625</ele>
        <time>2026-08-22T00:21:32.000Z</time>
        <extensions>
          <ns3:TrackPointExtension>
            <ns3:hr>113</ns3:hr>
            <ns3:cad>0</ns3:cad>
          </ns3:TrackPointExtension>
        </extensions>
      </trkpt>
      <trkpt lat="45.28876352123916149139404296875" lon="-71.10878909938037395477294921875">
        <ele>776.20001220703125</ele>
        <time>2026-08-22T00:21:33.000Z</time>
        <extensions>
          <ns3:TrackPointExtension>
            <ns3:hr>113</ns3:hr>
            <ns3:cad>0</ns3:cad>
          </ns3:TrackPointExtension>
        </extensions>
      </trkpt>
      <trkpt lat="45.28876435942947864532470703125" lon="-71.10880938358604907989501953125">
        <ele>776</ele>
        <time>2026-08-22T00:21:34.000Z</time>
        <extensions>
          <ns3:TrackPointExtension>
            <ns3:hr>113</ns3:hr>
            <ns3:cad>0</ns3:cad>
          </ns3:TrackPointExtension>
        </extensions>
      </trkpt>
      <trkpt lat="45.28876435942947864532470703125" lon="-71.1088255606591701507568359375">
        <ele>775.5999755859375</ele>
        <time>2026-08-22T00:21:35.000Z</time>
        <extensions>
          <ns3:TrackPointExtension>
            <ns3:hr>113</ns3:hr>
            <ns3:cad>0</ns3:cad>
          </ns3:TrackPointExtension>
        </extensions>
      </trkpt>
      <trkpt lat="45.28876519761979579925537109375" lon="-71.10883553512394428253173828125">
        <ele>775.4000244140625</ele>
        <time>2026-08-22T00:21:36.000Z</time>
        <extensions>
          <ns3:TrackPointExtension>
            <ns3:hr>113</ns3:hr>
            <ns3:cad>0</ns3:cad>
          </ns3:TrackPointExtension>
        </extensions>
      </trkpt>
      <trkpt lat="45.2887647785246372222900390625" lon="-71.10884458757936954498291015625">
        <ele>775.20001220703125</ele>
        <time>2026-08-22T00:21:37.000Z</time>
        <extensions>
          <ns3:TrackPointExtension>
            <ns3:hr>112</ns3:hr>
            <ns3:cad>0</ns3:cad>
          </ns3:TrackPointExtension>
        </extensions>
      </trkpt>
      <trkpt lat="45.28876519761979579925537109375" lon="-71.10886420123279094696044921875">
        <ele>774.79998779296875</ele>
        <time>2026-08-22T00:21:38.000Z</time>
        <extensions>
          <ns3:TrackPointExtension>
            <ns3:hr>112</ns3:hr>
            <ns3:cad>0</ns3:cad>
          </ns3:TrackPointExtension>
        </extensions>
      </trkpt>
      <trkpt lat="45.2887651138007640838623046875" lon="-71.1088751815259456634521484375">
        <ele>774.5999755859375</ele>
        <time>2026-08-22T00:21:39.000Z</time>
        <extensions>
          <ns3:TrackPointExtension>
            <ns3:hr>113</ns3:hr>
            <ns3:cad>0</ns3:cad>
          </ns3:TrackPointExtension>
        </extensions>
      </trkpt>
      <trkpt lat="45.288761593401432037353515625" lon="-71.10888364724814891815185546875">
        <ele>774.5999755859375</ele>
        <time>2026-08-22T00:21:40.000Z</time>
        <extensions>
          <ns3:TrackPointExtension>
            <ns3:hr>113</ns3:hr>
            <ns3:cad>0</ns3:cad>
          </ns3:TrackPointExtension>
        </extensions>
      </trkpt>
      <trkpt lat="45.28876402415335178375244140625" lon="-71.108902506530284881591796875">
        <ele>774.4000244140625</ele>
        <time>2026-08-22T00:21:41.000Z</time>
        <extensions>
          <ns3:TrackPointExtension>
            <ns3:hr>113</ns3:hr>
            <ns3:cad>0</ns3:cad>
          </ns3:TrackPointExtension>
        </extensions>
      </trkpt>
      <trkpt lat="45.2887666225433349609375" lon="-71.10891155898571014404296875">
        <ele>774</ele>
        <time>2026-08-22T00:21:42.000Z</time>
        <extensions>
          <ns3:TrackPointExtension>
            <ns3:hr>113</ns3:hr>
            <ns3:cad>0</ns3:cad>
          </ns3:TrackPointExtension>
        </extensions>
      </trkpt>
      <trkpt lat="45.28876335360109806060791015625" lon="-71.10892186872661113739013671875">
        <ele>773.79998779296875</ele>
        <time>2026-08-22T00:21:43.000Z</time>
        <extensions>
          <ns3:TrackPointExtension>
            <ns3:hr>113</ns3:hr>
            <ns3:cad>0</ns3:cad>
          </ns3:TrackPointExtension>
        </extensions>
      </trkpt>
      <trkpt lat="45.28875547461211681365966796875" lon="-71.10893025062978267669677734375">
        <ele>773.5999755859375</ele>
        <time>2026-08-22T00:21:44.000Z</time>
        <extensions>
          <ns3:TrackPointExtension>
            <ns3:hr>112</ns3:hr>
            <ns3:cad>0</ns3:cad>
          </ns3:TrackPointExtension>
        </extensions>
      </trkpt>
      <trkpt lat="45.2887560613453388214111328125" lon="-71.1089358665049076080322265625">
        <ele>773.20001220703125</ele>
        <time>2026-08-22T00:21:45.000Z</time>
        <extensions>
          <ns3:TrackPointExtension>
            <ns3:hr>112</ns3:hr>
            <ns3:cad>0</ns3:cad>
          </ns3:TrackPointExtension>
        </extensions>
      </trkpt>
      <trkpt lat="45.288750194013118743896484375" lon="-71.1089402250945568084716796875">
        <ele>773</ele>
        <time>2026-08-22T00:21:46.000Z</time>
        <extensions>
          <ns3:TrackPointExtension>
            <ns3:hr>112</ns3:hr>
            <ns3:cad>0</ns3:cad>
          </ns3:TrackPointExtension>
        </extensions>
      </trkpt>
      <trkpt lat="45.288742817938327789306640625" lon="-71.10895053483545780181884765625">
        <ele>772.5999755859375</ele>
        <time>2026-08-22T00:21:47.000Z</time>
        <extensions>
          <ns3:TrackPointExtension>
            <ns3:hr>110</ns3:hr>
            <ns3:cad>71</ns3:cad>
          </ns3:TrackPointExtension>
        </extensions>
      </trkpt>
      <trkpt lat="45.28874373994767665863037109375" lon="-71.10896922647953033447265625">
        <ele>772.4000244140625</ele>
        <time>2026-08-22T00:21:48.000Z</time>
        <extensions>
          <ns3:TrackPointExtension>
            <ns3:hr>109</ns3:hr>
            <ns3:cad>71</ns3:cad>
          </ns3:TrackPointExtension>
        </extensions>
      </trkpt>
      <trkpt lat="45.288742482662200927734375" lon="-71.1089958809316158294677734375">
        <ele>772</ele>
        <time>2026-08-22T00:21:49.000Z</time>
        <extensions>
          <ns3:TrackPointExtension>
            <ns3:hr>109</ns3:hr>
            <ns3:cad>0</ns3:cad>
          </ns3:TrackPointExtension>
        </extensions>
      </trkpt>
      <trkpt lat="45.28874575160443782806396484375" lon="-71.1090056039392948150634765625">
        <ele>771.5999755859375</ele>
        <time>2026-08-22T00:21:50.000Z</time>
        <extensions>
          <ns3:TrackPointExtension>
            <ns3:hr>109</ns3:hr>
            <ns3:cad>0</ns3:cad>
          </ns3:TrackPointExtension>
        </extensions>
      </trkpt>
      <trkpt lat="45.288750194013118743896484375" lon="-71.10901976935565471649169921875">
        <ele>771.4000244140625</ele>
        <time>2026-08-22T00:21:51.000Z</time>
        <extensions>
          <ns3:TrackPointExtension>
            <ns3:hr>109</ns3:hr>
            <ns3:cad>0</ns3:cad>
          </ns3:TrackPointExtension>
        </extensions>
      </trkpt>
      <trkpt lat="45.288752876222133636474609375" lon="-71.10902748070657253265380859375">
        <ele>771.4000244140625</ele>
        <time>2026-08-22T00:21:52.000Z</time>
        <extensions>
          <ns3:TrackPointExtension>
            <ns3:hr>109</ns3:hr>
            <ns3:cad>0</ns3:cad>
          </ns3:TrackPointExtension>
        </extensions>
      </trkpt>
      <trkpt lat="45.2887567318975925445556640625" lon="-71.109038628637790679931640625">
        <ele>771.20001220703125</ele>
        <time>2026-08-22T00:21:53.000Z</time>
        <extensions>
          <ns3:TrackPointExtension>
            <ns3:hr>110</ns3:hr>
            <ns3:cad>0</ns3:cad>
          </ns3:TrackPointExtension>
        </extensions>
      </trkpt>
      <trkpt lat="45.28875916264951229095458984375" lon="-71.10904323868453502655029296875">
        <ele>771</ele>
        <time>2026-08-22T00:21:54.000Z</time>
        <extensions>
          <ns3:TrackPointExtension>
            <ns3:hr>110</ns3:hr>
            <ns3:cad>0</ns3:cad>
          </ns3:TrackPointExtension>
        </extensions>
      </trkpt>
      <trkpt lat="45.2887597493827342987060546875" lon="-71.10904441215097904205322265625">
        <ele>770.79998779296875</ele>
        <time>2026-08-22T00:21:55.000Z</time>
        <extensions>
          <ns3:TrackPointExtension>
            <ns3:hr>110</ns3:hr>
            <ns3:cad>0</ns3:cad>
          </ns3:TrackPointExtension>
        </extensions>
      </trkpt>
      <trkpt lat="45.2887560613453388214111328125" lon="-71.1090485192835330963134765625">
        <ele>770.4000244140625</ele>
        <time>2026-08-22T00:21:56.000Z</time>
        <extensions>
          <ns3:TrackPointExtension>
            <ns3:hr>110</ns3:hr>
            <ns3:cad>0</ns3:cad>
          </ns3:TrackPointExtension>
        </extensions>
      </trkpt>
      <trkpt lat="45.28875245712697505950927734375" lon="-71.10905262641608715057373046875">
        <ele>770</ele>
        <time>2026-08-22T00:21:57.000Z</time>
        <extensions>
          <ns3:TrackPointExtension>
            <ns3:hr>110</ns3:hr>
            <ns3:cad>0</ns3:cad>
          </ns3:TrackPointExtension>
        </extensions>
      </trkpt>
      <trkpt lat="45.28874826617538928985595703125" lon="-71.109054386615753173828125">
        <ele>769.5999755859375</ele>
        <time>2026-08-22T00:21:58.000Z</time>
        <extensions>
          <ns3:TrackPointExtension>
            <ns3:hr>110</ns3:hr>
            <ns3:cad>0</ns3:cad>
          </ns3:TrackPointExtension>
        </extensions>
      </trkpt>
      <trkpt lat="45.28874047100543975830078125" lon="-71.1090431548655033111572265625">
        <ele>769.4000244140625</ele>
        <time>2026-08-22T00:21:59.000Z</time>
        <extensions>
          <ns3:TrackPointExtension>
            <ns3:hr>110</ns3:hr>
            <ns3:cad>0</ns3:cad>
          </ns3:TrackPointExtension>
        </extensions>
      </trkpt>
      <trkpt lat="45.28873904608190059661865234375" lon="-71.109038628637790679931640625">
        <ele>769.20001220703125</ele>
        <time>2026-08-22T00:22:00.000Z</time>
        <extensions>
          <ns3:TrackPointExtension>
            <ns3:hr>110</ns3:hr>
            <ns3:cad>0</ns3:cad>
          </ns3:TrackPointExtension>
        </extensions>
      </trkpt>
      <trkpt lat="45.2887357771396636962890625" lon="-71.109032928943634033203125">
        <ele>769</ele>
        <time>2026-08-22T00:22:01.000Z</time>
        <extensions>
          <ns3:TrackPointExtension>
            <ns3:hr>110</ns3:hr>
            <ns3:cad>0</ns3:cad>
          </ns3:TrackPointExtension>
        </extensions>
      </trkpt>
      <trkpt lat="45.2887332625687122344970703125" lon="-71.1090277321636676788330078125">
        <ele>769</ele>
        <time>2026-08-22T00:22:02.000Z</time>
        <extensions>
          <ns3:TrackPointExtension>
            <ns3:hr>111</ns3:hr>
            <ns3:cad>0</ns3:cad>
          </ns3:TrackPointExtension>
        </extensions>
      </trkpt>
      <trkpt lat="45.28873234055936336517333984375" lon="-71.10902379266917705535888671875">
        <ele>769</ele>
        <time>2026-08-22T00:22:03.000Z</time>
        <extensions>
          <ns3:TrackPointExtension>
            <ns3:hr>111</ns3:hr>
            <ns3:cad>0</ns3:cad>
          </ns3:TrackPointExtension>
        </extensions>
      </trkpt>
      <trkpt lat="45.2887299098074436187744140625" lon="-71.1090159974992275238037109375">
        <ele>769</ele>
        <time>2026-08-22T00:22:04.000Z</time>
        <extensions>
          <ns3:TrackPointExtension>
            <ns3:hr>111</ns3:hr>
            <ns3:cad>0</ns3:cad>
          </ns3:TrackPointExtension>
        </extensions>
      </trkpt>
      <trkpt lat="45.288724713027477264404296875" lon="-71.10900300554931163787841796875">
        <ele>768.79998779296875</ele>
        <time>2026-08-22T00:22:05.000Z</time>
        <extensions>
          <ns3:TrackPointExtension>
            <ns3:hr>111</ns3:hr>
            <ns3:cad>0</ns3:cad>
          </ns3:TrackPointExtension>
        </extensions>
      </trkpt>
      <trkpt lat="45.2887195162475109100341796875" lon="-71.1089938692748546600341796875">
        <ele>768.79998779296875</ele>
        <time>2026-08-22T00:22:06.000Z</time>
        <extensions>
          <ns3:TrackPointExtension>
            <ns3:hr>112</ns3:hr>
            <ns3:cad>0</ns3:cad>
          </ns3:TrackPointExtension>
        </extensions>
      </trkpt>
      <trkpt lat="45.28871423564851284027099609375" lon="-71.1089831404387950897216796875">
        <ele>768.5999755859375</ele>
        <time>2026-08-22T00:22:07.000Z</time>
        <extensions>
          <ns3:TrackPointExtension>
            <ns3:hr>112</ns3:hr>
            <ns3:cad>0</ns3:cad>
          </ns3:TrackPointExtension>
        </extensions>
      </trkpt>
      <trkpt lat="45.288705267012119293212890625" lon="-71.108968220651149749755859375">
        <ele>768.4000244140625</ele>
        <time>2026-08-22T00:22:08.000Z</time>
        <extensions>
          <ns3:TrackPointExtension>
            <ns3:hr>112</ns3:hr>
            <ns3:cad>0</ns3:cad>
          </ns3:TrackPointExtension>
        </extensions>
      </trkpt>
      <trkpt lat="45.2886920236051082611083984375" lon="-71.10895715653896331787109375">
        <ele>768.4000244140625</ele>
        <time>2026-08-22T00:22:09.000Z</time>
        <extensions>
          <ns3:TrackPointExtension>
            <ns3:hr>112</ns3:hr>
            <ns3:cad>0</ns3:cad>
          </ns3:TrackPointExtension>
        </extensions>
      </trkpt>
      <trkpt lat="45.28868012130260467529296875" lon="-71.10894399695098400115966796875">
        <ele>768.20001220703125</ele>
        <time>2026-08-22T00:22:10.000Z</time>
        <extensions>
          <ns3:TrackPointExtension>
            <ns3:hr>112</ns3:hr>
            <ns3:cad>0</ns3:cad>
          </ns3:TrackPointExtension>
        </extensions>
      </trkpt>
      <trkpt lat="45.28867115266621112823486328125" lon="-71.108934693038463592529296875">
        <ele>768</ele>
        <time>2026-08-22T00:22:11.000Z</time>
        <extensions>
          <ns3:TrackPointExtension>
            <ns3:hr>112</ns3:hr>
            <ns3:cad>0</ns3:cad>
          </ns3:TrackPointExtension>
        </extensions>
      </trkpt>
      <trkpt lat="45.28866193257272243499755859375" lon="-71.1089221201837062835693359375">
        <ele>767.79998779296875</ele>
        <time>2026-08-22T00:22:12.000Z</time>
        <extensions>
          <ns3:TrackPointExtension>
            <ns3:hr>112</ns3:hr>
            <ns3:cad>0</ns3:cad>
          </ns3:TrackPointExtension>
        </extensions>
      </trkpt>
      <trkpt lat="45.2886591665446758270263671875" lon="-71.10891432501375675201416015625">
        <ele>767.4000244140625</ele>
        <time>2026-08-22T00:22:13.000Z</time>
        <extensions>
          <ns3:TrackPointExtension>
            <ns3:hr>111</ns3:hr>
            <ns3:cad>0</ns3:cad>
          </ns3:TrackPointExtension>
        </extensions>
      </trkpt>
      <trkpt lat="45.288652293384075164794921875" lon="-71.1089030094444751739501953125">
        <ele>767</ele>
        <time>2026-08-22T00:22:14.000Z</time>
        <extensions>
          <ns3:TrackPointExtension>
            <ns3:hr>111</ns3:hr>
            <ns3:cad>0</ns3:cad>
          </ns3:TrackPointExtension>
        </extensions>
      </trkpt>
      <trkpt lat="45.2886413969099521636962890625" lon="-71.1088916100561618804931640625">
        <ele>766.79998779296875</ele>
        <time>2026-08-22T00:22:15.000Z</time>
        <extensions>
          <ns3:TrackPointExtension>
            <ns3:hr>111</ns3:hr>
            <ns3:cad>0</ns3:cad>
          </ns3:TrackPointExtension>
        </extensions>
      </trkpt>
      <trkpt lat="45.2886286564171314239501953125" lon="-71.1088922806084156036376953125">
        <ele>766.4000244140625</ele>
        <time>2026-08-22T00:22:16.000Z</time>
        <extensions>
          <ns3:TrackPointExtension>
            <ns3:hr>111</ns3:hr>
            <ns3:cad>0</ns3:cad>
          </ns3:TrackPointExtension>
        </extensions>
      </trkpt>
      <trkpt lat="45.2886177599430084228515625" lon="-71.10889504663646221160888671875">
        <ele>766.20001220703125</ele>
        <time>2026-08-22T00:22:17.000Z</time>
        <extensions>
          <ns3:TrackPointExtension>
            <ns3:hr>112</ns3:hr>
            <ns3:cad>0</ns3:cad>
          </ns3:TrackPointExtension>
        </extensions>
      </trkpt>
      <trkpt lat="45.28860812075436115264892578125" lon="-71.1088922806084156036376953125">
        <ele>765.79998779296875</ele>
        <time>2026-08-22T00:22:18.000Z</time>
        <extensions>
          <ns3:TrackPointExtension>
            <ns3:hr>112</ns3:hr>
            <ns3:cad>0</ns3:cad>
          </ns3:TrackPointExtension>
        </extensions>
      </trkpt>
      <trkpt lat="45.28859990648925304412841796875" lon="-71.1088894307613372802734375">
        <ele>765.4000244140625</ele>
        <time>2026-08-22T00:22:19.000Z</time>
        <extensions>
          <ns3:TrackPointExtension>
            <ns3:hr>112</ns3:hr>
            <ns3:cad>0</ns3:cad>
          </ns3:TrackPointExtension>
        </extensions>
      </trkpt>
      <trkpt lat="45.288584232330322265625" lon="-71.10888834111392498016357421875">
        <ele>765</ele>
        <time>2026-08-22T00:22:20.000Z</time>
        <extensions>
          <ns3:TrackPointExtension>
            <ns3:hr>112</ns3:hr>
            <ns3:cad>0</ns3:cad>
          </ns3:TrackPointExtension>
        </extensions>
      </trkpt>
      <trkpt lat="45.28857274912297725677490234375" lon="-71.10888867639005184173583984375">
        <ele>764.4000244140625</ele>
        <time>2026-08-22T00:22:21.000Z</time>
        <extensions>
          <ns3:TrackPointExtension>
            <ns3:hr>112</ns3:hr>
            <ns3:cad>0</ns3:cad>
          </ns3:TrackPointExtension>
        </extensions>
      </trkpt>
      <trkpt lat="45.28855397365987300872802734375" lon="-71.10889756120741367340087890625">
        <ele>764</ele>
        <time>2026-08-22T00:22:22.000Z</time>
        <extensions>
          <ns3:TrackPointExtension>
            <ns3:hr>112</ns3:hr>
            <ns3:cad>0</ns3:cad>
          </ns3:TrackPointExtension>
        </extensions>
      </trkpt>
      <trkpt lat="45.2885411493480205535888671875" lon="-71.108909882605075836181640625">
        <ele>763.4000244140625</ele>
        <time>2026-08-22T00:22:23.000Z</time>
        <extensions>
          <ns3:TrackPointExtension>
            <ns3:hr>112</ns3:hr>
            <ns3:cad>0</ns3:cad>
          </ns3:TrackPointExtension>
        </extensions>
      </trkpt>
      <trkpt lat="45.28853251598775386810302734375" lon="-71.1089244671165943145751953125">
        <ele>762.79998779296875</ele>
        <time>2026-08-22T00:22:24.000Z</time>
        <extensions>
          <ns3:TrackPointExtension>
            <ns3:hr>112</ns3:hr>
            <ns3:cad>0</ns3:cad>
          </ns3:TrackPointExtension>
        </extensions>
      </trkpt>
      <trkpt lat="45.28852111659944057464599609375" lon="-71.10893511213362216949462890625">
        <ele>762.4000244140625</ele>
        <time>2026-08-22T00:22:25.000Z</time>
        <extensions>
          <ns3:TrackPointExtension>
            <ns3:hr>112</ns3:hr>
            <ns3:cad>0</ns3:cad>
          </ns3:TrackPointExtension>
        </extensions>
      </trkpt>
      <trkpt lat="45.2885176800191402435302734375" lon="-71.10895254649221897125244140625">
        <ele>762.20001220703125</ele>
        <time>2026-08-22T00:22:26.000Z</time>
        <extensions>
          <ns3:TrackPointExtension>
            <ns3:hr>113</ns3:hr>
            <ns3:cad>0</ns3:cad>
          </ns3:TrackPointExtension>
        </extensions>
      </trkpt>
      <trkpt lat="45.2885143272578716278076171875" lon="-71.1089700646698474884033203125">
        <ele>761.79998779296875</ele>
        <time>2026-08-22T00:22:27.000Z</time>
        <extensions>
          <ns3:TrackPointExtension>
            <ns3:hr>113</ns3:hr>
            <ns3:cad>0</ns3:cad>
          </ns3:TrackPointExtension>
        </extensions>
      </trkpt>
      <trkpt lat="45.2885089628398418426513671875" lon="-71.108986325562000274658203125">
        <ele>761.5999755859375</ele>
        <time>2026-08-22T00:22:28.000Z</time>
        <extensions>
          <ns3:TrackPointExtension>
            <ns3:hr>114</ns3:hr>
            <ns3:cad>0</ns3:cad>
          </ns3:TrackPointExtension>
        </extensions>
      </trkpt>
      <trkpt lat="45.28850619681179523468017578125" lon="-71.10900484956800937652587890625">
        <ele>761.4000244140625</ele>
        <time>2026-08-22T00:22:29.000Z</time>
        <extensions>
          <ns3:TrackPointExtension>
            <ns3:hr>114</ns3:hr>
            <ns3:cad>0</ns3:cad>
          </ns3:TrackPointExtension>
        </extensions>
      </trkpt>
      <trkpt lat="45.28850711882114410400390625" lon="-71.1090173386037349700927734375">
        <ele>761.20001220703125</ele>
        <time>2026-08-22T00:22:30.000Z</time>
        <extensions>
          <ns3:TrackPointExtension>
            <ns3:hr>115</ns3:hr>
            <ns3:cad>0</ns3:cad>
          </ns3:TrackPointExtension>
        </extensions>
      </trkpt>
      <trkpt lat="45.2885076217353343963623046875" lon="-71.10902915708720684051513671875">
        <ele>761</ele>
        <time>2026-08-22T00:22:31.000Z</time>
        <extensions>
          <ns3:TrackPointExtension>
            <ns3:hr>115</ns3:hr>
            <ns3:cad>0</ns3:cad>
          </ns3:TrackPointExtension>
        </extensions>
      </trkpt>
      <trkpt lat="45.28850535862147808074951171875" lon="-71.10904441215097904205322265625">
        <ele>760.79998779296875</ele>
        <time>2026-08-22T00:22:32.000Z</time>
        <extensions>
          <ns3:TrackPointExtension>
            <ns3:hr>115</ns3:hr>
            <ns3:cad>0</ns3:cad>
          </ns3:TrackPointExtension>
        </extensions>
      </trkpt>
      <trkpt lat="45.288498066365718841552734375" lon="-71.10905882902443408966064453125">
        <ele>760.79998779296875</ele>
        <time>2026-08-22T00:22:33.000Z</time>
        <extensions>
          <ns3:TrackPointExtension>
            <ns3:hr>115</ns3:hr>
            <ns3:cad>0</ns3:cad>
          </ns3:TrackPointExtension>
        </extensions>
      </trkpt>
      <trkpt lat="45.28849370777606964111328125" lon="-71.1090750060975551605224609375">
        <ele>760.5999755859375</ele>
        <time>2026-08-22T00:22:34.000Z</time>
        <extensions>
          <ns3:TrackPointExtension>
            <ns3:hr>115</ns3:hr>
            <ns3:cad>0</ns3:cad>
          </ns3:TrackPointExtension>
        </extensions>
      </trkpt>
      <trkpt lat="45.2884898521006107330322265625" lon="-71.10909151844680309295654296875">
        <ele>760.4000244140625</ele>
        <time>2026-08-22T00:22:35.000Z</time>
        <extensions>
          <ns3:TrackPointExtension>
            <ns3:hr>115</ns3:hr>
            <ns3:cad>0</ns3:cad>
          </ns3:TrackPointExtension>
        </extensions>
      </trkpt>
      <trkpt lat="45.288479626178741455078125" lon="-71.109116412699222564697265625">
        <ele>760.20001220703125</ele>
        <time>2026-08-22T00:22:36.000Z</time>
        <extensions>
          <ns3:TrackPointExtension>
            <ns3:hr>115</ns3:hr>
            <ns3:cad>0</ns3:cad>
          </ns3:TrackPointExtension>
        </extensions>
      </trkpt>
      <trkpt lat="45.28846931643784046173095703125" lon="-71.10914683900773525238037109375">
        <ele>759.79998779296875</ele>
        <time>2026-08-22T00:22:37.000Z</time>
        <extensions>
          <ns3:TrackPointExtension>
            <ns3:hr>116</ns3:hr>
            <ns3:cad>0</ns3:cad>
          </ns3:TrackPointExtension>
        </extensions>
      </trkpt>
      <trkpt lat="45.28846479021012783050537109375" lon="-71.10917617566883563995361328125">
        <ele>759.20001220703125</ele>
        <time>2026-08-22T00:22:38.000Z</time>
        <extensions>
          <ns3:TrackPointExtension>
            <ns3:hr>116</ns3:hr>
            <ns3:cad>0</ns3:cad>
          </ns3:TrackPointExtension>
        </extensions>
      </trkpt>
      <trkpt lat="45.28846663422882556915283203125" lon="-71.10919645987451076507568359375">
        <ele>758.79998779296875</ele>
        <time>2026-08-22T00:22:39.000Z</time>
        <extensions>
          <ns3:TrackPointExtension>
            <ns3:hr>115</ns3:hr>
            <ns3:cad>0</ns3:cad>
          </ns3:TrackPointExtension>
        </extensions>
      </trkpt>
      <trkpt lat="45.288463868200778961181640625" lon="-71.10921875573694705963134765625">
        <ele>758.5999755859375</ele>
        <time>2026-08-22T00:22:40.000Z</time>
        <extensions>
          <ns3:TrackPointExtension>
            <ns3:hr>115</ns3:hr>
            <ns3:cad>0</ns3:cad>
          </ns3:TrackPointExtension>
        </extensions>
      </trkpt>
      <trkpt lat="45.288461856544017791748046875" lon="-71.10923199914395809173583984375">
        <ele>758.20001220703125</ele>
        <time>2026-08-22T00:22:41.000Z</time>
        <extensions>
          <ns3:TrackPointExtension>
            <ns3:hr>115</ns3:hr>
            <ns3:cad>0</ns3:cad>
          </ns3:TrackPointExtension>
        </extensions>
      </trkpt>
      <trkpt lat="45.28846864588558673858642578125" lon="-71.1092516966164112091064453125">
        <ele>758</ele>
        <time>2026-08-22T00:22:42.000Z</time>
        <extensions>
          <ns3:TrackPointExtension>
            <ns3:hr>115</ns3:hr>
            <ns3:cad>0</ns3:cad>
          </ns3:TrackPointExtension>
        </extensions>
      </trkpt>
      <trkpt lat="45.2884710766375064849853515625" lon="-71.1092654429376125335693359375">
        <ele>758</ele>
        <time>2026-08-22T00:22:43.000Z</time>
        <extensions>
          <ns3:TrackPointExtension>
            <ns3:hr>114</ns3:hr>
            <ns3:cad>0</ns3:cad>
          </ns3:TrackPointExtension>
        </extensions>
      </trkpt>
      <trkpt lat="45.288465209305286407470703125" lon="-71.109268628060817718505859375">
        <ele>757.79998779296875</ele>
        <time>2026-08-22T00:22:44.000Z</time>
        <extensions>
          <ns3:TrackPointExtension>
            <ns3:hr>114</ns3:hr>
            <ns3:cad>0</ns3:cad>
          </ns3:TrackPointExtension>
        </extensions>
      </trkpt>
      <trkpt lat="45.2884603478014469146728515625" lon="-71.10927994363009929656982421875">
        <ele>757.5999755859375</ele>
        <time>2026-08-22T00:22:45.000Z</time>
        <extensions>
          <ns3:TrackPointExtension>
            <ns3:hr>114</ns3:hr>
            <ns3:cad>0</ns3:cad>
          </ns3:TrackPointExtension>
        </extensions>
      </trkpt>
      <trkpt lat="45.288455486297607421875" lon="-71.1092982999980449676513671875">
        <ele>757.4000244140625</ele>
        <time>2026-08-22T00:22:46.000Z</time>
        <extensions>
          <ns3:TrackPointExtension>
            <ns3:hr>114</ns3:hr>
            <ns3:cad>0</ns3:cad>
          </ns3:TrackPointExtension>
        </extensions>
      </trkpt>
      <trkpt lat="45.28845087625086307525634765625" lon="-71.1093140579760074615478515625">
        <ele>757.20001220703125</ele>
        <time>2026-08-22T00:22:47.000Z</time>
        <extensions>
          <ns3:TrackPointExtension>
            <ns3:hr>115</ns3:hr>
            <ns3:cad>0</ns3:cad>
          </ns3:TrackPointExtension>
        </extensions>
      </trkpt>
      <trkpt lat="45.28844433836638927459716796875" lon="-71.10932168550789356231689453125">
        <ele>756.79998779296875</ele>
        <time>2026-08-22T00:22:48.000Z</time>
        <extensions>
          <ns3:TrackPointExtension>
            <ns3:hr>114</ns3:hr>
            <ns3:cad>0</ns3:cad>
          </ns3:TrackPointExtension>
        </extensions>
      </trkpt>
      <trkpt lat="45.28843930922448635101318359375" lon="-71.10932235606014728546142578125">
        <ele>756.5999755859375</ele>
        <time>2026-08-22T00:22:49.000Z</time>
        <extensions>
          <ns3:TrackPointExtension>
            <ns3:hr>114</ns3:hr>
            <ns3:cad>0</ns3:cad>
          </ns3:TrackPointExtension>
        </extensions>
      </trkpt>
      <trkpt lat="45.28843402862548828125" lon="-71.10932151786983013153076171875">
        <ele>756.4000244140625</ele>
        <time>2026-08-22T00:22:50.000Z</time>
        <extensions>
          <ns3:TrackPointExtension>
            <ns3:hr>114</ns3:hr>
            <ns3:cad>0</ns3:cad>
          </ns3:TrackPointExtension>
        </extensions>
      </trkpt>
      <trkpt lat="45.288425646722316741943359375" lon="-71.10932336188852787017822265625">
        <ele>756.20001220703125</ele>
        <time>2026-08-22T00:22:51.000Z</time>
        <extensions>
          <ns3:TrackPointExtension>
            <ns3:hr>113</ns3:hr>
            <ns3:cad>0</ns3:cad>
          </ns3:TrackPointExtension>
        </extensions>
      </trkpt>
      <trkpt lat="45.2884244732558727264404296875" lon="-71.109329648315906524658203125">
        <ele>756</ele>
        <time>2026-08-22T00:22:52.000Z</time>
        <extensions>
          <ns3:TrackPointExtension>
            <ns3:hr>112</ns3:hr>
            <ns3:cad>0</ns3:cad>
          </ns3:TrackPointExtension>
        </extensions>
      </trkpt>
      <trkpt lat="45.28841919265687465667724609375" lon="-71.1093422211706638336181640625">
        <ele>755.79998779296875</ele>
        <time>2026-08-22T00:22:53.000Z</time>
        <extensions>
          <ns3:TrackPointExtension>
            <ns3:hr>112</ns3:hr>
            <ns3:cad>0</ns3:cad>
          </ns3:TrackPointExtension>
        </extensions>
      </trkpt>
      <trkpt lat="45.288408212363719940185546875" lon="-71.10934549011290073394775390625">
        <ele>755.5999755859375</ele>
        <time>2026-08-22T00:22:54.000Z</time>
        <extensions>
          <ns3:TrackPointExtension>
            <ns3:hr>112</ns3:hr>
            <ns3:cad>0</ns3:cad>
          </ns3:TrackPointExtension>
        </extensions>
      </trkpt>
      <trkpt lat="45.2884003333747386932373046875" lon="-71.1093435622751712799072265625">
        <ele>755.4000244140625</ele>
        <time>2026-08-22T00:22:55.000Z</time>
        <extensions>
          <ns3:TrackPointExtension>
            <ns3:hr>112</ns3:hr>
            <ns3:cad>0</ns3:cad>
          </ns3:TrackPointExtension>
        </extensions>
      </trkpt>
      <trkpt lat="45.28838985599577426910400390625" lon="-71.1093378625810146331787109375">
        <ele>755.20001220703125</ele>
        <time>2026-08-22T00:22:56.000Z</time>
        <extensions>
          <ns3:TrackPointExtension>
            <ns3:hr>112</ns3:hr>
            <ns3:cad>0</ns3:cad>
          </ns3:TrackPointExtension>
        </extensions>
      </trkpt>
      <trkpt lat="45.2883879281580448150634765625" lon="-71.10932704992592334747314453125">
        <ele>755.20001220703125</ele>
        <time>2026-08-22T00:22:57.000Z</time>
        <extensions>
          <ns3:TrackPointExtension>
            <ns3:hr>112</ns3:hr>
            <ns3:cad>0</ns3:cad>
          </ns3:TrackPointExtension>
        </extensions>
      </trkpt>
      <trkpt lat="45.2883909456431865692138671875" lon="-71.10932235606014728546142578125">
        <ele>755</ele>
        <time>2026-08-22T00:22:58.000Z</time>
        <extensions>
          <ns3:TrackPointExtension>
            <ns3:hr>112</ns3:hr>
            <ns3:cad>0</ns3:cad>
          </ns3:TrackPointExtension>
        </extensions>
      </trkpt>
      <trkpt lat="45.28838767670094966888427734375" lon="-71.10930944792926311492919921875">
        <ele>755</ele>
        <time>2026-08-22T00:22:59.000Z</time>
        <extensions>
          <ns3:TrackPointExtension>
            <ns3:hr>112</ns3:hr>
            <ns3:cad>0</ns3:cad>
          </ns3:TrackPointExtension>
        </extensions>
      </trkpt>
      <trkpt lat="45.2883855812251567840576171875" lon="-71.1092917621135711669921875">
        <ele>755</ele>
        <time>2026-08-22T00:23:00.000Z</time>
        <extensions>
          <ns3:TrackPointExtension>
            <ns3:hr>112</ns3:hr>
            <ns3:cad>0</ns3:cad>
          </ns3:TrackPointExtension>
        </extensions>
      </trkpt>
      <trkpt lat="45.28838180936872959136962890625" lon="-71.10927407629787921905517578125">
        <ele>755.20001220703125</ele>
        <time>2026-08-22T00:23:01.000Z</time>
        <extensions>
          <ns3:TrackPointExtension>
            <ns3:hr>111</ns3:hr>
            <ns3:cad>66</ns3:cad>
          </ns3:TrackPointExtension>
        </extensions>
      </trkpt>
      <trkpt lat="45.2883738465607166290283203125" lon="-71.10925261862576007843017578125">
        <ele>755.20001220703125</ele>
        <time>2026-08-22T00:23:02.000Z</time>
        <extensions>
          <ns3:TrackPointExtension>
            <ns3:hr>110</ns3:hr>
            <ns3:cad>66</ns3:cad>
          </ns3:TrackPointExtension>
        </extensions>
      </trkpt>
      <trkpt lat="45.28836621902883052825927734375" lon="-71.109233088791370391845703125">
        <ele>755.20001220703125</ele>
        <time>2026-08-22T00:23:03.000Z</time>
        <extensions>
          <ns3:TrackPointExtension>
            <ns3:hr>109</ns3:hr>
            <ns3:cad>66</ns3:cad>
          </ns3:TrackPointExtension>
        </extensions>
      </trkpt>
      <trkpt lat="45.28835599310696125030517578125" lon="-71.1092112958431243896484375">
        <ele>755.20001220703125</ele>
        <time>2026-08-22T00:23:04.000Z</time>
        <extensions>
          <ns3:TrackPointExtension>
            <ns3:hr>110</ns3:hr>
            <ns3:cad>66</ns3:cad>
          </ns3:TrackPointExtension>
        </extensions>
      </trkpt>
      <trkpt lat="45.28834744356572628021240234375" lon="-71.10919830389320850372314453125">
        <ele>755.4000244140625</ele>
        <time>2026-08-22T00:23:05.000Z</time>
        <extensions>
          <ns3:TrackPointExtension>
            <ns3:hr>110</ns3:hr>
            <ns3:cad>66</ns3:cad>
          </ns3:TrackPointExtension>
        </extensions>
      </trkpt>
      <trkpt lat="45.288337804377079010009765625" lon="-71.10918841324746608734130859375">
        <ele>755.4000244140625</ele>
        <time>2026-08-22T00:23:06.000Z</time>
        <extensions>
          <ns3:TrackPointExtension>
            <ns3:hr>110</ns3:hr>
            <ns3:cad>66</ns3:cad>
          </ns3:TrackPointExtension>
        </extensions>
      </trkpt>
      <trkpt lat="45.28832816518843173980712890625" lon="-71.1091817915439605712890625">
        <ele>755.5999755859375</ele>
        <time>2026-08-22T00:23:07.000Z</time>
        <extensions>
          <ns3:TrackPointExtension>
            <ns3:hr>110</ns3:hr>
            <ns3:cad>66</ns3:cad>
          </ns3:TrackPointExtension>
        </extensions>
      </trkpt>
      <trkpt lat="45.2883098088204860687255859375" lon="-71.10918204300105571746826171875">
        <ele>755.5999755859375</ele>
        <time>2026-08-22T00:23:08.000Z</time>
        <extensions>
          <ns3:TrackPointExtension>
            <ns3:hr>111</ns3:hr>
            <ns3:cad>0</ns3:cad>
          </ns3:TrackPointExtension>
        </extensions>
      </trkpt>
      <trkpt lat="45.28829832561314105987548828125" lon="-71.1091844737529754638671875">
        <ele>755.4000244140625</ele>
        <time>2026-08-22T00:23:09.000Z</time>
        <extensions>
          <ns3:TrackPointExtension>
            <ns3:hr>112</ns3:hr>
            <ns3:cad>0</ns3:cad>
          </ns3:TrackPointExtension>
        </extensions>
      </trkpt>
      <trkpt lat="45.28829296119511127471923828125" lon="-71.109184809029102325439453125">
        <ele>755.20001220703125</ele>
        <time>2026-08-22T00:23:10.000Z</time>
        <extensions>
          <ns3:TrackPointExtension>
            <ns3:hr>113</ns3:hr>
            <ns3:cad>0</ns3:cad>
          </ns3:TrackPointExtension>
        </extensions>
      </trkpt>
      <trkpt lat="45.28828893788158893585205078125" lon="-71.1091856472194194793701171875">
        <ele>755</ele>
        <time>2026-08-22T00:23:11.000Z</time>
        <extensions>
          <ns3:TrackPointExtension>
            <ns3:hr>113</ns3:hr>
            <ns3:cad>0</ns3:cad>
          </ns3:TrackPointExtension>
        </extensions>
      </trkpt>
      <trkpt lat="45.2882819809019565582275390625" lon="-71.10918438993394374847412109375">
        <ele>754.5999755859375</ele>
        <time>2026-08-22T00:23:12.000Z</time>
        <extensions>
          <ns3:TrackPointExtension>
            <ns3:hr>114</ns3:hr>
            <ns3:cad>0</ns3:cad>
          </ns3:TrackPointExtension>
        </extensions>
      </trkpt>
      <trkpt lat="45.2882735989987850189208984375" lon="-71.10918506048619747161865234375">
        <ele>754.4000244140625</ele>
        <time>2026-08-22T00:23:13.000Z</time>
        <extensions>
          <ns3:TrackPointExtension>
            <ns3:hr>113</ns3:hr>
            <ns3:cad>0</ns3:cad>
          </ns3:TrackPointExtension>
        </extensions>
      </trkpt>
      <trkpt lat="45.288269408047199249267578125" lon="-71.10918154008686542510986328125">
        <ele>754.20001220703125</ele>
        <time>2026-08-22T00:23:14.000Z</time>
        <extensions>
          <ns3:TrackPointExtension>
            <ns3:hr>113</ns3:hr>
            <ns3:cad>0</ns3:cad>
          </ns3:TrackPointExtension>
        </extensions>
      </trkpt>
      <trkpt lat="45.288261361420154571533203125" lon="-71.1091873236000537872314453125">
        <ele>754</ele>
        <time>2026-08-22T00:23:15.000Z</time>
        <extensions>
          <ns3:TrackPointExtension>
            <ns3:hr>112</ns3:hr>
            <ns3:cad>0</ns3:cad>
          </ns3:TrackPointExtension>
        </extensions>
      </trkpt>
      <trkpt lat="45.28825121931731700897216796875" lon="-71.10919721424579620361328125">
        <ele>754</ele>
        <time>2026-08-22T00:23:16.000Z</time>
        <extensions>
          <ns3:TrackPointExtension>
            <ns3:hr>112</ns3:hr>
            <ns3:cad>0</ns3:cad>
          </ns3:TrackPointExtension>
        </extensions>
      </trkpt>
      <trkpt lat="45.288245938718318939208984375" lon="-71.10919981263577938079833984375">
        <ele>754</ele>
        <time>2026-08-22T00:23:17.000Z</time>
        <extensions>
          <ns3:TrackPointExtension>
            <ns3:hr>112</ns3:hr>
            <ns3:cad>0</ns3:cad>
          </ns3:TrackPointExtension>
        </extensions>
      </trkpt>
      <trkpt lat="45.28824266977608203887939453125" lon="-71.10920132137835025787353515625">
        <ele>753.79998779296875</ele>
        <time>2026-08-22T00:23:18.000Z</time>
        <extensions>
          <ns3:TrackPointExtension>
            <ns3:hr>112</ns3:hr>
            <ns3:cad>0</ns3:cad>
          </ns3:TrackPointExtension>
        </extensions>
      </trkpt>
      <trkpt lat="45.2882383950054645538330078125" lon="-71.109206266701221466064453125">
        <ele>753.79998779296875</ele>
        <time>2026-08-22T00:23:19.000Z</time>
        <extensions>
          <ns3:TrackPointExtension>
            <ns3:hr>112</ns3:hr>
            <ns3:cad>0</ns3:cad>
          </ns3:TrackPointExtension>
        </extensions>
      </trkpt>
      <trkpt lat="45.2882316894829273223876953125" lon="-71.10921624116599559783935546875">
        <ele>753.5999755859375</ele>
        <time>2026-08-22T00:23:20.000Z</time>
        <extensions>
          <ns3:TrackPointExtension>
            <ns3:hr>112</ns3:hr>
            <ns3:cad>0</ns3:cad>
          </ns3:TrackPointExtension>
        </extensions>
      </trkpt>
      <trkpt lat="45.28822473250329494476318359375" lon="-71.10922462306916713714599609375">
        <ele>753.4000244140625</ele>
        <time>2026-08-22T00:23:21.000Z</time>
        <extensions>
          <ns3:TrackPointExtension>
            <ns3:hr>112</ns3:hr>
            <ns3:cad>0</ns3:cad>
          </ns3:TrackPointExtension>
        </extensions>
      </trkpt>
      <trkpt lat="45.28821702115237712860107421875" lon="-71.1092312447726726531982421875">
        <ele>753</ele>
        <time>2026-08-22T00:23:22.000Z</time>
        <extensions>
          <ns3:TrackPointExtension>
            <ns3:hr>112</ns3:hr>
            <ns3:cad>0</ns3:cad>
          </ns3:TrackPointExtension>
        </extensions>
      </trkpt>
      <trkpt lat="45.28820813633501529693603515625" lon="-71.10924591310322284698486328125">
        <ele>752.79998779296875</ele>
        <time>2026-08-22T00:23:23.000Z</time>
        <extensions>
          <ns3:TrackPointExtension>
            <ns3:hr>112</ns3:hr>
            <ns3:cad>0</ns3:cad>
          </ns3:TrackPointExtension>
        </extensions>
      </trkpt>
      <trkpt lat="45.28820402920246124267578125" lon="-71.1092584021389484405517578125">
        <ele>752.4000244140625</ele>
        <time>2026-08-22T00:23:24.000Z</time>
        <extensions>
          <ns3:TrackPointExtension>
            <ns3:hr>114</ns3:hr>
            <ns3:cad>0</ns3:cad>
          </ns3:TrackPointExtension>
        </extensions>
      </trkpt>
      <trkpt lat="45.28819598257541656494140625" lon="-71.10926200635731220245361328125">
        <ele>752.20001220703125</ele>
        <time>2026-08-22T00:23:25.000Z</time>
        <extensions>
          <ns3:TrackPointExtension>
            <ns3:hr>115</ns3:hr>
            <ns3:cad>0</ns3:cad>
          </ns3:TrackPointExtension>
        </extensions>
      </trkpt>
      <trkpt lat="45.2881877683103084564208984375" lon="-71.1092634312808513641357421875">
        <ele>751.79998779296875</ele>
        <time>2026-08-22T00:23:26.000Z</time>
        <extensions>
          <ns3:TrackPointExtension>
            <ns3:hr>116</ns3:hr>
            <ns3:cad>0</ns3:cad>
          </ns3:TrackPointExtension>
        </extensions>
      </trkpt>
      <trkpt lat="45.2881787158548831939697265625" lon="-71.1092684604227542877197265625">
        <ele>751.4000244140625</ele>
        <time>2026-08-22T00:23:27.000Z</time>
        <extensions>
          <ns3:TrackPointExtension>
            <ns3:hr>116</ns3:hr>
            <ns3:cad>71</ns3:cad>
          </ns3:TrackPointExtension>
        </extensions>
      </trkpt>
      <trkpt lat="45.28817108832299709320068359375" lon="-71.109272651374340057373046875">
        <ele>751.20001220703125</ele>
        <time>2026-08-22T00:23:28.000Z</time>
        <extensions>
          <ns3:TrackPointExtension>
            <ns3:hr>116</ns3:hr>
            <ns3:cad>71</ns3:cad>
          </ns3:TrackPointExtension>
        </extensions>
      </trkpt>
      <trkpt lat="45.2881636284291744232177734375" lon="-71.10927709378302097320556640625">
        <ele>750.79998779296875</ele>
        <time>2026-08-22T00:23:29.000Z</time>
        <extensions>
          <ns3:TrackPointExtension>
            <ns3:hr>116</ns3:hr>
            <ns3:cad>71</ns3:cad>
          </ns3:TrackPointExtension>
        </extensions>
      </trkpt>
      <trkpt lat="45.28815566562116146087646484375" lon="-71.10928949899971485137939453125">
        <ele>750.5999755859375</ele>
        <time>2026-08-22T00:23:30.000Z</time>
        <extensions>
          <ns3:TrackPointExtension>
            <ns3:hr>117</ns3:hr>
            <ns3:cad>71</ns3:cad>
          </ns3:TrackPointExtension>
        </extensions>
      </trkpt>
      <trkpt lat="45.28814795427024364471435546875" lon="-71.109302826225757598876953125">
        <ele>750.20001220703125</ele>
        <time>2026-08-22T00:23:31.000Z</time>
        <extensions>
          <ns3:TrackPointExtension>
            <ns3:hr>118</ns3:hr>
            <ns3:cad>71</ns3:cad>
          </ns3:TrackPointExtension>
        </extensions>
      </trkpt>
      <trkpt lat="45.2881411649286746978759765625" lon="-71.1093130521476268768310546875">
        <ele>750</ele>
        <time>2026-08-22T00:23:32.000Z</time>
        <extensions>
          <ns3:TrackPointExtension>
            <ns3:hr>119</ns3:hr>
            <ns3:cad>71</ns3:cad>
          </ns3:TrackPointExtension>
        </extensions>
      </trkpt>
      <trkpt lat="45.28813605196774005889892578125" lon="-71.10931883566081523895263671875">
        <ele>749.79998779296875</ele>
        <time>2026-08-22T00:23:33.000Z</time>
        <extensions>
          <ns3:TrackPointExtension>
            <ns3:hr>119</ns3:hr>
            <ns3:cad>71</ns3:cad>
          </ns3:TrackPointExtension>
        </extensions>
      </trkpt>
      <trkpt lat="45.2881317771971225738525390625" lon="-71.1093153990805149078369140625">
        <ele>749.4000244140625</ele>
        <time>2026-08-22T00:23:34.000Z</time>
        <extensions>
          <ns3:TrackPointExtension>
            <ns3:hr>119</ns3:hr>
            <ns3:cad>71</ns3:cad>
          </ns3:TrackPointExtension>
        </extensions>
      </trkpt>
      <trkpt lat="45.28812699951231479644775390625" lon="-71.109310202300548553466796875">
        <ele>749.4000244140625</ele>
        <time>2026-08-22T00:23:35.000Z</time>
        <extensions>
          <ns3:TrackPointExtension>
            <ns3:hr>118</ns3:hr>
            <ns3:cad>71</ns3:cad>
          </ns3:TrackPointExtension>
        </extensions>
      </trkpt>
      <trkpt lat="45.28811995871365070343017578125" lon="-71.10930877737700939178466796875">
        <ele>749.20001220703125</ele>
        <time>2026-08-22T00:23:36.000Z</time>
        <extensions>
          <ns3:TrackPointExtension>
            <ns3:hr>118</ns3:hr>
            <ns3:cad>71</ns3:cad>
          </ns3:TrackPointExtension>
        </extensions>
      </trkpt>
      <trkpt lat="45.28811744414269924163818359375" lon="-71.1093147285282611846923828125">
        <ele>748.79998779296875</ele>
        <time>2026-08-22T00:23:37.000Z</time>
        <extensions>
          <ns3:TrackPointExtension>
            <ns3:hr>117</ns3:hr>
            <ns3:cad>71</ns3:cad>
          </ns3:TrackPointExtension>
        </extensions>
      </trkpt>
      <trkpt lat="45.288113839924335479736328125" lon="-71.109320260584354400634765625">
        <ele>748.5999755859375</ele>
        <time>2026-08-22T00:23:38.000Z</time>
        <extensions>
          <ns3:TrackPointExtension>
            <ns3:hr>117</ns3:hr>
            <ns3:cad>71</ns3:cad>
          </ns3:TrackPointExtension>
        </extensions>
      </trkpt>
      <trkpt lat="45.28810319490730762481689453125" lon="-71.109330989420413970947265625">
        <ele>748.20001220703125</ele>
        <time>2026-08-22T00:23:39.000Z</time>
        <extensions>
          <ns3:TrackPointExtension>
            <ns3:hr>116</ns3:hr>
            <ns3:cad>71</ns3:cad>
          </ns3:TrackPointExtension>
        </extensions>
      </trkpt>
      <trkpt lat="45.28809146024286746978759765625" lon="-71.1093351803719997406005859375">
        <ele>748</ele>
        <time>2026-08-22T00:23:40.000Z</time>
        <extensions>
          <ns3:TrackPointExtension>
            <ns3:hr>114</ns3:hr>
            <ns3:cad>61</ns3:cad>
          </ns3:TrackPointExtension>
        </extensions>
      </trkpt>
      <trkpt lat="45.28807737864553928375244140625" lon="-71.10934666357934474945068359375">
        <ele>747.79998779296875</ele>
        <time>2026-08-22T00:23:41.000Z</time>
        <extensions>
          <ns3:TrackPointExtension>
            <ns3:hr>114</ns3:hr>
            <ns3:cad>61</ns3:cad>
          </ns3:TrackPointExtension>
        </extensions>
      </trkpt>
      <trkpt lat="45.28806321322917938232421875" lon="-71.10935286618769168853759765625">
        <ele>747.4000244140625</ele>
        <time>2026-08-22T00:23:42.000Z</time>
        <extensions>
          <ns3:TrackPointExtension>
            <ns3:hr>115</ns3:hr>
            <ns3:cad>0</ns3:cad>
          </ns3:TrackPointExtension>
        </extensions>
      </trkpt>
      <trkpt lat="45.28804846107959747314453125" lon="-71.10936292447149753570556640625">
        <ele>747.20001220703125</ele>
        <time>2026-08-22T00:23:43.000Z</time>
        <extensions>
          <ns3:TrackPointExtension>
            <ns3:hr>116</ns3:hr>
            <ns3:cad>0</ns3:cad>
          </ns3:TrackPointExtension>
        </extensions>
      </trkpt>
      <trkpt lat="45.2880425937473773956298828125" lon="-71.10936962999403476715087890625">
        <ele>747</ele>
        <time>2026-08-22T00:23:44.000Z</time>
        <extensions>
          <ns3:TrackPointExtension>
            <ns3:hr>117</ns3:hr>
            <ns3:cad>0</ns3:cad>
          </ns3:TrackPointExtension>
        </extensions>
      </trkpt>
      <trkpt lat="45.28802834451198577880859375" lon="-71.10937784425914287567138671875">
        <ele>746.5999755859375</ele>
        <time>2026-08-22T00:23:45.000Z</time>
        <extensions>
          <ns3:TrackPointExtension>
            <ns3:hr>117</ns3:hr>
            <ns3:cad>0</ns3:cad>
          </ns3:TrackPointExtension>
        </extensions>
      </trkpt>
      <trkpt lat="45.28801359236240386962890625" lon="-71.10938538797199726104736328125">
        <ele>746.20001220703125</ele>
        <time>2026-08-22T00:23:46.000Z</time>
        <extensions>
          <ns3:TrackPointExtension>
            <ns3:hr>117</ns3:hr>
            <ns3:cad>0</ns3:cad>
          </ns3:TrackPointExtension>
        </extensions>
      </trkpt>
      <trkpt lat="45.28800613246858119964599609375" lon="-71.10939703881740570068359375">
        <ele>745.79998779296875</ele>
        <time>2026-08-22T00:23:47.000Z</time>
        <extensions>
          <ns3:TrackPointExtension>
            <ns3:hr>118</ns3:hr>
            <ns3:cad>0</ns3:cad>
          </ns3:TrackPointExtension>
        </extensions>
      </trkpt>
      <trkpt lat="45.288001857697963714599609375" lon="-71.10940399579703807830810546875">
        <ele>745.4000244140625</ele>
        <time>2026-08-22T00:23:48.000Z</time>
        <extensions>
          <ns3:TrackPointExtension>
            <ns3:hr>118</ns3:hr>
            <ns3:cad>0</ns3:cad>
          </ns3:TrackPointExtension>
        </extensions>
      </trkpt>
      <trkpt lat="45.2879933081567287445068359375" lon="-71.1094099469482898712158203125">
        <ele>745.20001220703125</ele>
        <time>2026-08-22T00:23:49.000Z</time>
        <extensions>
          <ns3:TrackPointExtension>
            <ns3:hr>118</ns3:hr>
            <ns3:cad>0</ns3:cad>
          </ns3:TrackPointExtension>
        </extensions>
      </trkpt>
      <trkpt lat="45.28798400424420833587646484375" lon="-71.10941304825246334075927734375">
        <ele>744.79998779296875</ele>
        <time>2026-08-22T00:23:50.000Z</time>
        <extensions>
          <ns3:TrackPointExtension>
            <ns3:hr>118</ns3:hr>
            <ns3:cad>0</ns3:cad>
          </ns3:TrackPointExtension>
        </extensions>
      </trkpt>
      <trkpt lat="45.2879745326936244964599609375" lon="-71.10941103659570217132568359375">
        <ele>744.4000244140625</ele>
        <time>2026-08-22T00:23:51.000Z</time>
        <extensions>
          <ns3:TrackPointExtension>
            <ns3:hr>118</ns3:hr>
            <ns3:cad>0</ns3:cad>
          </ns3:TrackPointExtension>
        </extensions>
      </trkpt>
      <trkpt lat="45.28796522878110408782958984375" lon="-71.10940449871122837066650390625">
        <ele>744.20001220703125</ele>
        <time>2026-08-22T00:23:52.000Z</time>
        <extensions>
          <ns3:TrackPointExtension>
            <ns3:hr>118</ns3:hr>
            <ns3:cad>0</ns3:cad>
          </ns3:TrackPointExtension>
        </extensions>
      </trkpt>
      <trkpt lat="45.28795936144888401031494140625" lon="-71.1093992181122303009033203125">
        <ele>743.79998779296875</ele>
        <time>2026-08-22T00:23:53.000Z</time>
        <extensions>
          <ns3:TrackPointExtension>
            <ns3:hr>118</ns3:hr>
            <ns3:cad>0</ns3:cad>
          </ns3:TrackPointExtension>
        </extensions>
      </trkpt>
      <trkpt lat="45.2879547514021396636962890625" lon="-71.10939175821840763092041015625">
        <ele>743.4000244140625</ele>
        <time>2026-08-22T00:23:54.000Z</time>
        <extensions>
          <ns3:TrackPointExtension>
            <ns3:hr>118</ns3:hr>
            <ns3:cad>0</ns3:cad>
          </ns3:TrackPointExtension>
        </extensions>
      </trkpt>
      <trkpt lat="45.28794963844120502471923828125" lon="-71.1093811132013797760009765625">
        <ele>743.20001220703125</ele>
        <time>2026-08-22T00:23:55.000Z</time>
        <extensions>
          <ns3:TrackPointExtension>
            <ns3:hr>118</ns3:hr>
            <ns3:cad>0</ns3:cad>
          </ns3:TrackPointExtension>
        </extensions>
      </trkpt>
      <trkpt lat="45.28794595040380954742431640625" lon="-71.10937801189720630645751953125">
        <ele>742.79998779296875</ele>
        <time>2026-08-22T00:23:56.000Z</time>
        <extensions>
          <ns3:TrackPointExtension>
            <ns3:hr>117</ns3:hr>
            <ns3:cad>69</ns3:cad>
          </ns3:TrackPointExtension>
        </extensions>
      </trkpt>
      <trkpt lat="45.28794075362384319305419921875" lon="-71.1093717254698276519775390625">
        <ele>742.5999755859375</ele>
        <time>2026-08-22T00:23:57.000Z</time>
        <extensions>
          <ns3:TrackPointExtension>
            <ns3:hr>117</ns3:hr>
            <ns3:cad>68</ns3:cad>
          </ns3:TrackPointExtension>
        </extensions>
      </trkpt>
      <trkpt lat="45.28793471865355968475341796875" lon="-71.10936342738568782806396484375">
        <ele>742.20001220703125</ele>
        <time>2026-08-22T00:23:58.000Z</time>
        <extensions>
          <ns3:TrackPointExtension>
            <ns3:hr>116</ns3:hr>
            <ns3:cad>68</ns3:cad>
          </ns3:TrackPointExtension>
        </extensions>
      </trkpt>
      <trkpt lat="45.28792751021683216094970703125" lon="-71.10936124809086322784423828125">
        <ele>742</ele>
        <time>2026-08-22T00:23:59.000Z</time>
        <extensions>
          <ns3:TrackPointExtension>
            <ns3:hr>116</ns3:hr>
            <ns3:cad>68</ns3:cad>
          </ns3:TrackPointExtension>
        </extensions>
      </trkpt>
      <trkpt lat="45.2879212237894535064697265625" lon="-71.1093589849770069122314453125">
        <ele>741.5999755859375</ele>
        <time>2026-08-22T00:24:00.000Z</time>
        <extensions>
          <ns3:TrackPointExtension>
            <ns3:hr>116</ns3:hr>
            <ns3:cad>68</ns3:cad>
          </ns3:TrackPointExtension>
        </extensions>
      </trkpt>
      <trkpt lat="45.287918038666248321533203125" lon="-71.109357140958309173583984375">
        <ele>741.4000244140625</ele>
        <time>2026-08-22T00:24:01.000Z</time>
        <extensions>
          <ns3:TrackPointExtension>
            <ns3:hr>116</ns3:hr>
            <ns3:cad>77</ns3:cad>
          </ns3:TrackPointExtension>
        </extensions>
      </trkpt>
      <trkpt lat="45.2879118360579013824462890625" lon="-71.10934850759804248809814453125">
        <ele>741.20001220703125</ele>
        <time>2026-08-22T00:24:02.000Z</time>
        <extensions>
          <ns3:TrackPointExtension>
            <ns3:hr>115</ns3:hr>
            <ns3:cad>77</ns3:cad>
          </ns3:TrackPointExtension>
        </extensions>
      </trkpt>
      <trkpt lat="45.2879078127443790435791015625" lon="-71.109342388808727264404296875">
        <ele>740.79998779296875</ele>
        <time>2026-08-22T00:24:03.000Z</time>
        <extensions>
          <ns3:TrackPointExtension>
            <ns3:hr>115</ns3:hr>
            <ns3:cad>0</ns3:cad>
          </ns3:TrackPointExtension>
        </extensions>
      </trkpt>
      <trkpt lat="45.28790052048861980438232421875" lon="-71.10933224670588970184326171875">
        <ele>740.4000244140625</ele>
        <time>2026-08-22T00:24:04.000Z</time>
        <extensions>
          <ns3:TrackPointExtension>
            <ns3:hr>114</ns3:hr>
            <ns3:cad>0</ns3:cad>
          </ns3:TrackPointExtension>
        </extensions>
      </trkpt>
      <trkpt lat="45.28789582662284374237060546875" lon="-71.10932998359203338623046875">
        <ele>740.20001220703125</ele>
        <time>2026-08-22T00:24:05.000Z</time>
        <extensions>
          <ns3:TrackPointExtension>
            <ns3:hr>113</ns3:hr>
            <ns3:cad>0</ns3:cad>
          </ns3:TrackPointExtension>
        </extensions>
      </trkpt>
      <trkpt lat="45.28788375668227672576904296875" lon="-71.10932537354528903961181640625">
        <ele>739.79998779296875</ele>
        <time>2026-08-22T00:24:06.000Z</time>
        <extensions>
          <ns3:TrackPointExtension>
            <ns3:hr>113</ns3:hr>
            <ns3:cad>0</ns3:cad>
          </ns3:TrackPointExtension>
        </extensions>
      </trkpt>
      <trkpt lat="45.28787286020815372467041015625" lon="-71.109318248927593231201171875">
        <ele>739.4000244140625</ele>
        <time>2026-08-22T00:24:07.000Z</time>
        <extensions>
          <ns3:TrackPointExtension>
            <ns3:hr>113</ns3:hr>
            <ns3:cad>0</ns3:cad>
          </ns3:TrackPointExtension>
        </extensions>
      </trkpt>
      <trkpt lat="45.287861041724681854248046875" lon="-71.1093086935579776763916015625">
        <ele>739</ele>
        <time>2026-08-22T00:24:08.000Z</time>
        <extensions>
          <ns3:TrackPointExtension>
            <ns3:hr>112</ns3:hr>
            <ns3:cad>0</ns3:cad>
          </ns3:TrackPointExtension>
        </extensions>
      </trkpt>
      <trkpt lat="45.28784804977476596832275390625" lon="-71.109304837882518768310546875">
        <ele>738.5999755859375</ele>
        <time>2026-08-22T00:24:09.000Z</time>
        <extensions>
          <ns3:TrackPointExtension>
            <ns3:hr>112</ns3:hr>
            <ns3:cad>0</ns3:cad>
          </ns3:TrackPointExtension>
        </extensions>
      </trkpt>
      <trkpt lat="45.28783547692000865936279296875" lon="-71.10930391587316989898681640625">
        <ele>738.20001220703125</ele>
        <time>2026-08-22T00:24:10.000Z</time>
        <extensions>
          <ns3:TrackPointExtension>
            <ns3:hr>112</ns3:hr>
            <ns3:cad>0</ns3:cad>
          </ns3:TrackPointExtension>
        </extensions>
      </trkpt>
      <trkpt lat="45.28782223351299762725830078125" lon="-71.1093060113489627838134765625">
        <ele>737.5999755859375</ele>
        <time>2026-08-22T00:24:11.000Z</time>
        <extensions>
          <ns3:TrackPointExtension>
            <ns3:hr>112</ns3:hr>
            <ns3:cad>0</ns3:cad>
          </ns3:TrackPointExtension>
        </extensions>
      </trkpt>
      <trkpt lat="45.28781016357243061065673828125" lon="-71.10930718481540679931640625">
        <ele>737.20001220703125</ele>
        <time>2026-08-22T00:24:12.000Z</time>
        <extensions>
          <ns3:TrackPointExtension>
            <ns3:hr>112</ns3:hr>
            <ns3:cad>0</ns3:cad>
          </ns3:TrackPointExtension>
        </extensions>
      </trkpt>
      <trkpt lat="45.2877924777567386627197265625" lon="-71.109308861196041107177734375">
        <ele>736.79998779296875</ele>
        <time>2026-08-22T00:24:13.000Z</time>
        <extensions>
          <ns3:TrackPointExtension>
            <ns3:hr>112</ns3:hr>
            <ns3:cad>74</ns3:cad>
          </ns3:TrackPointExtension>
        </extensions>
      </trkpt>
      <trkpt lat="45.2877780608832836151123046875" lon="-71.1093170754611492156982421875">
        <ele>736.4000244140625</ele>
        <time>2026-08-22T00:24:14.000Z</time>
        <extensions>
          <ns3:TrackPointExtension>
            <ns3:hr>112</ns3:hr>
            <ns3:cad>74</ns3:cad>
          </ns3:TrackPointExtension>
        </extensions>
      </trkpt>
      <trkpt lat="45.28776439838111400604248046875" lon="-71.10932269133627414703369140625">
        <ele>735.79998779296875</ele>
        <time>2026-08-22T00:24:15.000Z</time>
        <extensions>
          <ns3:TrackPointExtension>
            <ns3:hr>112</ns3:hr>
            <ns3:cad>74</ns3:cad>
          </ns3:TrackPointExtension>
        </extensions>
      </trkpt>
      <trkpt lat="45.28774629347026348114013671875" lon="-71.10933409072458744049072265625">
        <ele>735.4000244140625</ele>
        <time>2026-08-22T00:24:16.000Z</time>
        <extensions>
          <ns3:TrackPointExtension>
            <ns3:hr>113</ns3:hr>
            <ns3:cad>76</ns3:cad>
          </ns3:TrackPointExtension>
        </extensions>
      </trkpt>
      <trkpt lat="45.2877354808151721954345703125" lon="-71.1093425564467906951904296875">
        <ele>734.79998779296875</ele>
        <time>2026-08-22T00:24:17.000Z</time>
        <extensions>
          <ns3:TrackPointExtension>
            <ns3:hr>113</ns3:hr>
            <ns3:cad>76</ns3:cad>
          </ns3:TrackPointExtension>
        </extensions>
      </trkpt>
      <trkpt lat="45.28771980665624141693115234375" lon="-71.10935739241540431976318359375">
        <ele>734.4000244140625</ele>
        <time>2026-08-22T00:24:18.000Z</time>
        <extensions>
          <ns3:TrackPointExtension>
            <ns3:hr>114</ns3:hr>
            <ns3:cad>75</ns3:cad>
          </ns3:TrackPointExtension>
        </extensions>
      </trkpt>
      <trkpt lat="45.28770756907761096954345703125" lon="-71.10936979763209819793701171875">
        <ele>734</ele>
        <time>2026-08-22T00:24:19.000Z</time>
        <extensions>
          <ns3:TrackPointExtension>
            <ns3:hr>114</ns3:hr>
            <ns3:cad>75</ns3:cad>
          </ns3:TrackPointExtension>
        </extensions>
      </trkpt>
      <trkpt lat="45.287692733108997344970703125" lon="-71.10938035883009433746337890625">
        <ele>733.79998779296875</ele>
        <time>2026-08-22T00:24:20.000Z</time>
        <extensions>
          <ns3:TrackPointExtension>
            <ns3:hr>115</ns3:hr>
            <ns3:cad>75</ns3:cad>
          </ns3:TrackPointExtension>
        </extensions>
      </trkpt>
      <trkpt lat="45.28768041171133518218994140625" lon="-71.10938807018101215362548828125">
        <ele>733.4000244140625</ele>
        <time>2026-08-22T00:24:21.000Z</time>
        <extensions>
          <ns3:TrackPointExtension>
            <ns3:hr>116</ns3:hr>
            <ns3:cad>75</ns3:cad>
          </ns3:TrackPointExtension>
        </extensions>
      </trkpt>
      <trkpt lat="45.2876711077988147735595703125" lon="-71.1093995533883571624755859375">
        <ele>733</ele>
        <time>2026-08-22T00:24:22.000Z</time>
        <extensions>
          <ns3:TrackPointExtension>
            <ns3:hr>116</ns3:hr>
            <ns3:cad>75</ns3:cad>
          </ns3:TrackPointExtension>
        </extensions>
      </trkpt>
      <trkpt lat="45.28766046278178691864013671875" lon="-71.10940835438668727874755859375">
        <ele>732.79998779296875</ele>
        <time>2026-08-22T00:24:23.000Z</time>
        <extensions>
          <ns3:TrackPointExtension>
            <ns3:hr>117</ns3:hr>
            <ns3:cad>75</ns3:cad>
          </ns3:TrackPointExtension>
        </extensions>
      </trkpt>
      <trkpt lat="45.2876506559550762176513671875" lon="-71.1094139702618122100830078125">
        <ele>732.4000244140625</ele>
        <time>2026-08-22T00:24:24.000Z</time>
        <extensions>
          <ns3:TrackPointExtension>
            <ns3:hr>117</ns3:hr>
            <ns3:cad>75</ns3:cad>
          </ns3:TrackPointExtension>
        </extensions>
      </trkpt>
      <trkpt lat="45.28763699345290660858154296875" lon="-71.10941640101373195648193359375">
        <ele>732.20001220703125</ele>
        <time>2026-08-22T00:24:25.000Z</time>
        <extensions>
          <ns3:TrackPointExtension>
            <ns3:hr>118</ns3:hr>
            <ns3:cad>75</ns3:cad>
          </ns3:TrackPointExtension>
        </extensions>
      </trkpt>
      <trkpt lat="45.2876134403049945831298828125" lon="-71.10941740684211254119873046875">
        <ele>731.79998779296875</ele>
        <time>2026-08-22T00:24:26.000Z</time>
        <extensions>
          <ns3:TrackPointExtension>
            <ns3:hr>118</ns3:hr>
            <ns3:cad>75</ns3:cad>
          </ns3:TrackPointExtension>
        </extensions>
      </trkpt>
      <trkpt lat="45.287599861621856689453125" lon="-71.10941589809954166412353515625">
        <ele>731.4000244140625</ele>
        <time>2026-08-22T00:24:27.000Z</time>
        <extensions>
          <ns3:TrackPointExtension>
            <ns3:hr>118</ns3:hr>
            <ns3:cad>75</ns3:cad>
          </ns3:TrackPointExtension>
        </extensions>
      </trkpt>
      <trkpt lat="45.28758871369063854217529296875" lon="-71.109410114586353302001953125">
        <ele>731</ele>
        <time>2026-08-22T00:24:28.000Z</time>
        <extensions>
          <ns3:TrackPointExtension>
            <ns3:hr>118</ns3:hr>
            <ns3:cad>75</ns3:cad>
          </ns3:TrackPointExtension>
        </extensions>
      </trkpt>
      <trkpt lat="45.28757907450199127197265625" lon="-71.1094069294631481170654296875">
        <ele>730.79998779296875</ele>
        <time>2026-08-22T00:24:29.000Z</time>
        <extensions>
          <ns3:TrackPointExtension>
            <ns3:hr>119</ns3:hr>
            <ns3:cad>75</ns3:cad>
          </ns3:TrackPointExtension>
        </extensions>
      </trkpt>
      <trkpt lat="45.28757035732269287109375" lon="-71.1094052530825138092041015625">
        <ele>730.5999755859375</ele>
        <time>2026-08-22T00:24:30.000Z</time>
        <extensions>
          <ns3:TrackPointExtension>
            <ns3:hr>119</ns3:hr>
            <ns3:cad>0</ns3:cad>
          </ns3:TrackPointExtension>
        </extensions>
      </trkpt>
      <trkpt lat="45.2875534258782863616943359375" lon="-71.109403073787689208984375">
        <ele>730.4000244140625</ele>
        <time>2026-08-22T00:24:31.000Z</time>
        <extensions>
          <ns3:TrackPointExtension>
            <ns3:hr>119</ns3:hr>
            <ns3:cad>0</ns3:cad>
          </ns3:TrackPointExtension>
        </extensions>
      </trkpt>
      <trkpt lat="45.28754152357578277587890625" lon="-71.109404079616069793701171875">
        <ele>730.4000244140625</ele>
        <time>2026-08-22T00:24:32.000Z</time>
        <extensions>
          <ns3:TrackPointExtension>
            <ns3:hr>119</ns3:hr>
            <ns3:cad>0</ns3:cad>
          </ns3:TrackPointExtension>
        </extensions>
      </trkpt>
      <trkpt lat="45.287531800568103790283203125" lon="-71.1094086058437824249267578125">
        <ele>730.4000244140625</ele>
        <time>2026-08-22T00:24:33.000Z</time>
        <extensions>
          <ns3:TrackPointExtension>
            <ns3:hr>119</ns3:hr>
            <ns3:cad>0</ns3:cad>
          </ns3:TrackPointExtension>
        </extensions>
      </trkpt>
      <trkpt lat="45.2875222451984882354736328125" lon="-71.1094132997095584869384765625">
        <ele>730.5999755859375</ele>
        <time>2026-08-22T00:24:34.000Z</time>
        <extensions>
          <ns3:TrackPointExtension>
            <ns3:hr>118</ns3:hr>
            <ns3:cad>0</ns3:cad>
          </ns3:TrackPointExtension>
        </extensions>
      </trkpt>
      <trkpt lat="45.2875091694295406341552734375" lon="-71.1094193346798419952392578125">
        <ele>730.4000244140625</ele>
        <time>2026-08-22T00:24:35.000Z</time>
        <extensions>
          <ns3:TrackPointExtension>
            <ns3:hr>118</ns3:hr>
            <ns3:cad>53</ns3:cad>
          </ns3:TrackPointExtension>
        </extensions>
      </trkpt>
      <trkpt lat="45.2874977700412273406982421875" lon="-71.1094287224113941192626953125">
        <ele>730.4000244140625</ele>
        <time>2026-08-22T00:24:36.000Z</time>
        <extensions>
          <ns3:TrackPointExtension>
            <ns3:hr>118</ns3:hr>
            <ns3:cad>53</ns3:cad>
          </ns3:TrackPointExtension>
        </extensions>
      </trkpt>
      <trkpt lat="45.28748779557645320892333984375" lon="-71.10943500883877277374267578125">
        <ele>730.4000244140625</ele>
        <time>2026-08-22T00:24:37.000Z</time>
        <extensions>
          <ns3:TrackPointExtension>
            <ns3:hr>118</ns3:hr>
            <ns3:cad>53</ns3:cad>
          </ns3:TrackPointExtension>
        </extensions>
      </trkpt>
      <trkpt lat="45.2874793298542499542236328125" lon="-71.10943785868585109710693359375">
        <ele>730.4000244140625</ele>
        <time>2026-08-22T00:24:38.000Z</time>
        <extensions>
          <ns3:TrackPointExtension>
            <ns3:hr>118</ns3:hr>
            <ns3:cad>53</ns3:cad>
          </ns3:TrackPointExtension>
        </extensions>
      </trkpt>
      <trkpt lat="45.2874662540853023529052734375" lon="-71.10943886451423168182373046875">
        <ele>730.20001220703125</ele>
        <time>2026-08-22T00:24:39.000Z</time>
        <extensions>
          <ns3:TrackPointExtension>
            <ns3:hr>118</ns3:hr>
            <ns3:cad>53</ns3:cad>
          </ns3:TrackPointExtension>
        </extensions>
      </trkpt>
      <trkpt lat="45.287457369267940521240234375" lon="-71.10944439657032489776611328125">
        <ele>730.20001220703125</ele>
        <time>2026-08-22T00:24:40.000Z</time>
        <extensions>
          <ns3:TrackPointExtension>
            <ns3:hr>118</ns3:hr>
            <ns3:cad>53</ns3:cad>
          </ns3:TrackPointExtension>
        </extensions>
      </trkpt>
      <trkpt lat="45.2874555252492427825927734375" lon="-71.109456382691860198974609375">
        <ele>730.20001220703125</ele>
        <time>2026-08-22T00:24:41.000Z</time>
        <extensions>
          <ns3:TrackPointExtension>
            <ns3:hr>116</ns3:hr>
            <ns3:cad>53</ns3:cad>
          </ns3:TrackPointExtension>
        </extensions>
      </trkpt>
      <trkpt lat="45.28745242394506931304931640625" lon="-71.10946468077600002288818359375">
        <ele>730.20001220703125</ele>
        <time>2026-08-22T00:24:42.000Z</time>
        <extensions>
          <ns3:TrackPointExtension>
            <ns3:hr>113</ns3:hr>
            <ns3:cad>0</ns3:cad>
          </ns3:TrackPointExtension>
        </extensions>
      </trkpt>
      <trkpt lat="45.28743934817612171173095703125" lon="-71.1094639264047145843505859375">
        <ele>730.20001220703125</ele>
        <time>2026-08-22T00:24:43.000Z</time>
        <extensions>
          <ns3:TrackPointExtension>
            <ns3:hr>110</ns3:hr>
            <ns3:cad>0</ns3:cad>
          </ns3:TrackPointExtension>
        </extensions>
      </trkpt>
      <trkpt lat="45.287425182759761810302734375" lon="-71.10946484841406345367431640625">
        <ele>730.20001220703125</ele>
        <time>2026-08-22T00:24:44.000Z</time>
        <extensions>
          <ns3:TrackPointExtension>
            <ns3:hr>108</ns3:hr>
            <ns3:cad>0</ns3:cad>
          </ns3:TrackPointExtension>
        </extensions>
      </trkpt>
      <trkpt lat="45.28741504065692424774169921875" lon="-71.10946736298501491546630859375">
        <ele>730.20001220703125</ele>
        <time>2026-08-22T00:24:45.000Z</time>
        <extensions>
          <ns3:TrackPointExtension>
            <ns3:hr>109</ns3:hr>
            <ns3:cad>0</ns3:cad>
          </ns3:TrackPointExtension>
        </extensions>
      </trkpt>
      <trkpt lat="45.28740204870700836181640625" lon="-71.109475828707218170166015625">
        <ele>730.4000244140625</ele>
        <time>2026-08-22T00:24:46.000Z</time>
        <extensions>
          <ns3:TrackPointExtension>
            <ns3:hr>110</ns3:hr>
            <ns3:cad>0</ns3:cad>
          </ns3:TrackPointExtension>
        </extensions>
      </trkpt>
      <trkpt lat="45.2873898111283779144287109375" lon="-71.10948328860104084014892578125">
        <ele>730.4000244140625</ele>
        <time>2026-08-22T00:24:47.000Z</time>
        <extensions>
          <ns3:TrackPointExtension>
            <ns3:hr>111</ns3:hr>
            <ns3:cad>0</ns3:cad>
          </ns3:TrackPointExtension>
        </extensions>
      </trkpt>
      <trkpt lat="45.28737748973071575164794921875" lon="-71.1094915866851806640625">
        <ele>730.4000244140625</ele>
        <time>2026-08-22T00:24:48.000Z</time>
        <extensions>
          <ns3:TrackPointExtension>
            <ns3:hr>112</ns3:hr>
            <ns3:cad>0</ns3:cad>
          </ns3:TrackPointExtension>
        </extensions>
      </trkpt>
      <trkpt lat="45.287366174161434173583984375" lon="-71.1095014773309230804443359375">
        <ele>730.5999755859375</ele>
        <time>2026-08-22T00:24:49.000Z</time>
        <extensions>
          <ns3:TrackPointExtension>
            <ns3:hr>112</ns3:hr>
            <ns3:cad>47</ns3:cad>
          </ns3:TrackPointExtension>
        </extensions>
      </trkpt>
      <trkpt lat="45.2873532660305500030517578125" lon="-71.10951011069118976593017578125">
        <ele>730.5999755859375</ele>
        <time>2026-08-22T00:24:50.000Z</time>
        <extensions>
          <ns3:TrackPointExtension>
            <ns3:hr>112</ns3:hr>
            <ns3:cad>47</ns3:cad>
          </ns3:TrackPointExtension>
        </extensions>
      </trkpt>
      <trkpt lat="45.28733675368130207061767578125" lon="-71.1095143854618072509765625">
        <ele>730.79998779296875</ele>
        <time>2026-08-22T00:24:51.000Z</time>
        <extensions>
          <ns3:TrackPointExtension>
            <ns3:hr>112</ns3:hr>
            <ns3:cad>47</ns3:cad>
          </ns3:TrackPointExtension>
        </extensions>
      </trkpt>
      <trkpt lat="45.28732434846460819244384765625" lon="-71.109515726566314697265625">
        <ele>730.79998779296875</ele>
        <time>2026-08-22T00:24:52.000Z</time>
        <extensions>
          <ns3:TrackPointExtension>
            <ns3:hr>112</ns3:hr>
            <ns3:cad>49</ns3:cad>
          </ns3:TrackPointExtension>
        </extensions>
      </trkpt>
      <trkpt lat="45.287309177219867706298828125" lon="-71.10952033661305904388427734375">
        <ele>731</ele>
        <time>2026-08-22T00:24:53.000Z</time>
        <extensions>
          <ns3:TrackPointExtension>
            <ns3:hr>112</ns3:hr>
            <ns3:cad>49</ns3:cad>
          </ns3:TrackPointExtension>
        </extensions>
      </trkpt>
      <trkpt lat="45.2872989512979984283447265625" lon="-71.1095242761075496673583984375">
        <ele>731.20001220703125</ele>
        <time>2026-08-22T00:24:54.000Z</time>
        <extensions>
          <ns3:TrackPointExtension>
            <ns3:hr>112</ns3:hr>
            <ns3:cad>49</ns3:cad>
          </ns3:TrackPointExtension>
        </extensions>
      </trkpt>
      <trkpt lat="45.28728746809065341949462890625" lon="-71.10952184535562992095947265625">
        <ele>731.4000244140625</ele>
        <time>2026-08-22T00:24:55.000Z</time>
        <extensions>
          <ns3:TrackPointExtension>
            <ns3:hr>112</ns3:hr>
            <ns3:cad>49</ns3:cad>
          </ns3:TrackPointExtension>
        </extensions>
      </trkpt>
      <trkpt lat="45.287270285189151763916015625" lon="-71.10952033661305904388427734375">
        <ele>731.5999755859375</ele>
        <time>2026-08-22T00:24:56.000Z</time>
        <extensions>
          <ns3:TrackPointExtension>
            <ns3:hr>112</ns3:hr>
            <ns3:cad>52</ns3:cad>
          </ns3:TrackPointExtension>
        </extensions>
      </trkpt>
      <trkpt lat="45.2872580476105213165283203125" lon="-71.109528131783008575439453125">
        <ele>731.5999755859375</ele>
        <time>2026-08-22T00:24:57.000Z</time>
        <extensions>
          <ns3:TrackPointExtension>
            <ns3:hr>112</ns3:hr>
            <ns3:cad>52</ns3:cad>
          </ns3:TrackPointExtension>
        </extensions>
      </trkpt>
      <trkpt lat="45.2872449718415737152099609375" lon="-71.109530813992023468017578125">
        <ele>731.79998779296875</ele>
        <time>2026-08-22T00:24:58.000Z</time>
        <extensions>
          <ns3:TrackPointExtension>
            <ns3:hr>112</ns3:hr>
            <ns3:cad>52</ns3:cad>
          </ns3:TrackPointExtension>
        </extensions>
      </trkpt>
      <trkpt lat="45.28723348863422870635986328125" lon="-71.109532155096530914306640625">
        <ele>731.79998779296875</ele>
        <time>2026-08-22T00:24:59.000Z</time>
        <extensions>
          <ns3:TrackPointExtension>
            <ns3:hr>112</ns3:hr>
            <ns3:cad>52</ns3:cad>
          </ns3:TrackPointExtension>
        </extensions>
      </trkpt>
      <trkpt lat="45.28721588663756847381591796875" lon="-71.10954229719936847686767578125">
        <ele>731.79998779296875</ele>
        <time>2026-08-22T00:25:00.000Z</time>
        <extensions>
          <ns3:TrackPointExtension>
            <ns3:hr>113</ns3:hr>
            <ns3:cad>52</ns3:cad>
          </ns3:TrackPointExtension>
        </extensions>
      </trkpt>
      <trkpt lat="45.28720582835376262664794921875" lon="-71.10955587588250637054443359375">
        <ele>731.79998779296875</ele>
        <time>2026-08-22T00:25:01.000Z</time>
        <extensions>
          <ns3:TrackPointExtension>
            <ns3:hr>114</ns3:hr>
            <ns3:cad>48</ns3:cad>
          </ns3:TrackPointExtension>
        </extensions>
      </trkpt>
      <trkpt lat="45.28719526715576648712158203125" lon="-71.1095708794891834259033203125">
        <ele>731.79998779296875</ele>
        <time>2026-08-22T00:25:02.000Z</time>
        <extensions>
          <ns3:TrackPointExtension>
            <ns3:hr>114</ns3:hr>
            <ns3:cad>48</ns3:cad>
          </ns3:TrackPointExtension>
        </extensions>
      </trkpt>
      <trkpt lat="45.2871826104819774627685546875" lon="-71.10958755947649478912353515625">
        <ele>731.79998779296875</ele>
        <time>2026-08-22T00:25:03.000Z</time>
        <extensions>
          <ns3:TrackPointExtension>
            <ns3:hr>114</ns3:hr>
            <ns3:cad>50</ns3:cad>
          </ns3:TrackPointExtension>
        </extensions>
      </trkpt>
      <trkpt lat="45.28716961853206157684326171875" lon="-71.10960499383509159088134765625">
        <ele>732</ele>
        <time>2026-08-22T00:25:04.000Z</time>
        <extensions>
          <ns3:TrackPointExtension>
            <ns3:hr>115</ns3:hr>
            <ns3:cad>50</ns3:cad>
          </ns3:TrackPointExtension>
        </extensions>
      </trkpt>
      <trkpt lat="45.2871598117053508758544921875" lon="-71.10962175764143466949462890625">
        <ele>732</ele>
        <time>2026-08-22T00:25:05.000Z</time>
        <extensions>
          <ns3:TrackPointExtension>
            <ns3:hr>115</ns3:hr>
            <ns3:cad>50</ns3:cad>
          </ns3:TrackPointExtension>
        </extensions>
      </trkpt>
      <trkpt lat="45.28715126216411590576171875" lon="-71.109638772904872894287109375">
        <ele>732</ele>
        <time>2026-08-22T00:25:06.000Z</time>
        <extensions>
          <ns3:TrackPointExtension>
            <ns3:hr>116</ns3:hr>
            <ns3:cad>0</ns3:cad>
          </ns3:TrackPointExtension>
        </extensions>
      </trkpt>
      <trkpt lat="45.287142209708690643310546875" lon="-71.10965528525412082672119140625">
        <ele>732</ele>
        <time>2026-08-22T00:25:07.000Z</time>
        <extensions>
          <ns3:TrackPointExtension>
            <ns3:hr>117</ns3:hr>
            <ns3:cad>0</ns3:cad>
          </ns3:TrackPointExtension>
        </extensions>
      </trkpt>
      <trkpt lat="45.287134833633899688720703125" lon="-71.10966735519468784332275390625">
        <ele>732</ele>
        <time>2026-08-22T00:25:08.000Z</time>
        <extensions>
          <ns3:TrackPointExtension>
            <ns3:hr>117</ns3:hr>
            <ns3:cad>0</ns3:cad>
          </ns3:TrackPointExtension>
        </extensions>
      </trkpt>
      <trkpt lat="45.28712435625493526458740234375" lon="-71.10968076623976230621337890625">
        <ele>732</ele>
        <time>2026-08-22T00:25:09.000Z</time>
        <extensions>
          <ns3:TrackPointExtension>
            <ns3:hr>118</ns3:hr>
            <ns3:cad>0</ns3:cad>
          </ns3:TrackPointExtension>
        </extensions>
      </trkpt>
      <trkpt lat="45.28711362741887569427490234375" lon="-71.109692417085170745849609375">
        <ele>732</ele>
        <time>2026-08-22T00:25:10.000Z</time>
        <extensions>
          <ns3:TrackPointExtension>
            <ns3:hr>118</ns3:hr>
            <ns3:cad>54</ns3:cad>
          </ns3:TrackPointExtension>
        </extensions>
      </trkpt>
      <trkpt lat="45.2871038205921649932861328125" lon="-71.10971312038600444793701171875">
        <ele>732</ele>
        <time>2026-08-22T00:25:11.000Z</time>
        <extensions>
          <ns3:TrackPointExtension>
            <ns3:hr>119</ns3:hr>
            <ns3:cad>54</ns3:cad>
          </ns3:TrackPointExtension>
        </extensions>
      </trkpt>
      <trkpt lat="45.28709820471704006195068359375" lon="-71.10973340459167957305908203125">
        <ele>732</ele>
        <time>2026-08-22T00:25:12.000Z</time>
        <extensions>
          <ns3:TrackPointExtension>
            <ns3:hr>119</ns3:hr>
            <ns3:cad>54</ns3:cad>
          </ns3:TrackPointExtension>
        </extensions>
      </trkpt>
      <trkpt lat="45.28709518723189830780029296875" lon="-71.10975000075995922088623046875">
        <ele>732</ele>
        <time>2026-08-22T00:25:13.000Z</time>
        <extensions>
          <ns3:TrackPointExtension>
            <ns3:hr>120</ns3:hr>
            <ns3:cad>0</ns3:cad>
          </ns3:TrackPointExtension>
        </extensions>
      </trkpt>
      <trkpt lat="45.2870889008045196533203125" lon="-71.10976626165211200714111328125">
        <ele>732</ele>
        <time>2026-08-22T00:25:14.000Z</time>
        <extensions>
          <ns3:TrackPointExtension>
            <ns3:hr>120</ns3:hr>
            <ns3:cad>0</ns3:cad>
          </ns3:TrackPointExtension>
        </extensions>
      </trkpt>
      <trkpt lat="45.287082530558109283447265625" lon="-71.10977933742105960845947265625">
        <ele>732</ele>
        <time>2026-08-22T00:25:15.000Z</time>
        <extensions>
          <ns3:TrackPointExtension>
            <ns3:hr>120</ns3:hr>
            <ns3:cad>0</ns3:cad>
          </ns3:TrackPointExtension>
        </extensions>
      </trkpt>
      <trkpt lat="45.2870739810168743133544921875" lon="-71.10979677177965641021728515625">
        <ele>732</ele>
        <time>2026-08-22T00:25:16.000Z</time>
        <extensions>
          <ns3:TrackPointExtension>
            <ns3:hr>121</ns3:hr>
            <ns3:cad>0</ns3:cad>
          </ns3:TrackPointExtension>
        </extensions>
      </trkpt>
      <trkpt lat="45.2870672754943370819091796875" lon="-71.10981236211955547332763671875">
        <ele>732</ele>
        <time>2026-08-22T00:25:17.000Z</time>
        <extensions>
          <ns3:TrackPointExtension>
            <ns3:hr>120</ns3:hr>
            <ns3:cad>0</ns3:cad>
          </ns3:TrackPointExtension>
        </extensions>
      </trkpt>
      <trkpt lat="45.28706165961921215057373046875" lon="-71.10982677899301052093505859375">
        <ele>731.79998779296875</ele>
        <time>2026-08-22T00:25:18.000Z</time>
        <extensions>
          <ns3:TrackPointExtension>
            <ns3:hr>120</ns3:hr>
            <ns3:cad>0</ns3:cad>
          </ns3:TrackPointExtension>
        </extensions>
      </trkpt>
      <trkpt lat="45.28705277480185031890869140625" lon="-71.1098313890397548675537109375">
        <ele>731.79998779296875</ele>
        <time>2026-08-22T00:25:19.000Z</time>
        <extensions>
          <ns3:TrackPointExtension>
            <ns3:hr>120</ns3:hr>
            <ns3:cad>0</ns3:cad>
          </ns3:TrackPointExtension>
        </extensions>
      </trkpt>
      <trkpt lat="45.2870421297848224639892578125" lon="-71.109837256371974945068359375">
        <ele>731.5999755859375</ele>
        <time>2026-08-22T00:25:20.000Z</time>
        <extensions>
          <ns3:TrackPointExtension>
            <ns3:hr>121</ns3:hr>
            <ns3:cad>0</ns3:cad>
          </ns3:TrackPointExtension>
        </extensions>
      </trkpt>
      <trkpt lat="45.28703232295811176300048828125" lon="-71.10984270460903644561767578125">
        <ele>731.4000244140625</ele>
        <time>2026-08-22T00:25:21.000Z</time>
        <extensions>
          <ns3:TrackPointExtension>
            <ns3:hr>120</ns3:hr>
            <ns3:cad>0</ns3:cad>
          </ns3:TrackPointExtension>
        </extensions>
      </trkpt>
      <trkpt lat="45.28702109120786190032958984375" lon="-71.10984371043741703033447265625">
        <ele>731</ele>
        <time>2026-08-22T00:25:22.000Z</time>
        <extensions>
          <ns3:TrackPointExtension>
            <ns3:hr>120</ns3:hr>
            <ns3:cad>0</ns3:cad>
          </ns3:TrackPointExtension>
        </extensions>
      </trkpt>
      <trkpt lat="45.2870092727243900299072265625" lon="-71.10984471626579761505126953125">
        <ele>730.5999755859375</ele>
        <time>2026-08-22T00:25:23.000Z</time>
        <extensions>
          <ns3:TrackPointExtension>
            <ns3:hr>120</ns3:hr>
            <ns3:cad>0</ns3:cad>
          </ns3:TrackPointExtension>
        </extensions>
      </trkpt>
      <trkpt lat="45.2869985438883304595947265625" lon="-71.10985460691154003143310546875">
        <ele>730.4000244140625</ele>
        <time>2026-08-22T00:25:24.000Z</time>
        <extensions>
          <ns3:TrackPointExtension>
            <ns3:hr>121</ns3:hr>
            <ns3:cad>0</ns3:cad>
          </ns3:TrackPointExtension>
        </extensions>
      </trkpt>
      <trkpt lat="45.28698873706161975860595703125" lon="-71.10986374318599700927734375">
        <ele>730</ele>
        <time>2026-08-22T00:25:25.000Z</time>
        <extensions>
          <ns3:TrackPointExtension>
            <ns3:hr>120</ns3:hr>
            <ns3:cad>0</ns3:cad>
          </ns3:TrackPointExtension>
        </extensions>
      </trkpt>
      <trkpt lat="45.28698203153908252716064453125" lon="-71.10986776649951934814453125">
        <ele>729.79998779296875</ele>
        <time>2026-08-22T00:25:26.000Z</time>
        <extensions>
          <ns3:TrackPointExtension>
            <ns3:hr>120</ns3:hr>
            <ns3:cad>0</ns3:cad>
          </ns3:TrackPointExtension>
        </extensions>
      </trkpt>
      <trkpt lat="45.28697297908365726470947265625" lon="-71.10986684449017047882080078125">
        <ele>729.5999755859375</ele>
        <time>2026-08-22T00:25:27.000Z</time>
        <extensions>
          <ns3:TrackPointExtension>
            <ns3:hr>120</ns3:hr>
            <ns3:cad>0</ns3:cad>
          </ns3:TrackPointExtension>
        </extensions>
      </trkpt>
      <trkpt lat="45.28696610592305660247802734375" lon="-71.10986751504242420196533203125">
        <ele>729.5999755859375</ele>
        <time>2026-08-22T00:25:28.000Z</time>
        <extensions>
          <ns3:TrackPointExtension>
            <ns3:hr>120</ns3:hr>
            <ns3:cad>0</ns3:cad>
          </ns3:TrackPointExtension>
        </extensions>
      </trkpt>
      <trkpt lat="45.28695680201053619384765625" lon="-71.10987246036529541015625">
        <ele>729.4000244140625</ele>
        <time>2026-08-22T00:25:29.000Z</time>
        <extensions>
          <ns3:TrackPointExtension>
            <ns3:hr>120</ns3:hr>
            <ns3:cad>0</ns3:cad>
          </ns3:TrackPointExtension>
        </extensions>
      </trkpt>
      <trkpt lat="45.2869415469467639923095703125" lon="-71.10988117754459381103515625">
        <ele>729.4000244140625</ele>
        <time>2026-08-22T00:25:30.000Z</time>
        <extensions>
          <ns3:TrackPointExtension>
            <ns3:hr>119</ns3:hr>
            <ns3:cad>0</ns3:cad>
          </ns3:TrackPointExtension>
        </extensions>
      </trkpt>
      <trkpt lat="45.2869345061480998992919921875" lon="-71.1098850332200527191162109375">
        <ele>729.20001220703125</ele>
        <time>2026-08-22T00:25:31.000Z</time>
        <extensions>
          <ns3:TrackPointExtension>
            <ns3:hr>119</ns3:hr>
            <ns3:cad>0</ns3:cad>
          </ns3:TrackPointExtension>
        </extensions>
      </trkpt>
      <trkpt lat="45.28692771680653095245361328125" lon="-71.109885871410369873046875">
        <ele>729</ele>
        <time>2026-08-22T00:25:32.000Z</time>
        <extensions>
          <ns3:TrackPointExtension>
            <ns3:hr>119</ns3:hr>
            <ns3:cad>0</ns3:cad>
          </ns3:TrackPointExtension>
        </extensions>
      </trkpt>
      <trkpt lat="45.28692419640719890594482421875" lon="-71.10988494940102100372314453125">
        <ele>728.79998779296875</ele>
        <time>2026-08-22T00:25:33.000Z</time>
        <extensions>
          <ns3:TrackPointExtension>
            <ns3:hr>119</ns3:hr>
            <ns3:cad>0</ns3:cad>
          </ns3:TrackPointExtension>
        </extensions>
      </trkpt>
      <trkpt lat="45.28692704625427722930908203125" lon="-71.1098826862871646881103515625">
        <ele>728.5999755859375</ele>
        <time>2026-08-22T00:25:34.000Z</time>
        <extensions>
          <ns3:TrackPointExtension>
            <ns3:hr>119</ns3:hr>
            <ns3:cad>0</ns3:cad>
          </ns3:TrackPointExtension>
        </extensions>
      </trkpt>
      <trkpt lat="45.28692838735878467559814453125" lon="-71.109878830611705780029296875">
        <ele>728.4000244140625</ele>
        <time>2026-08-22T00:25:35.000Z</time>
        <extensions>
          <ns3:TrackPointExtension>
            <ns3:hr>119</ns3:hr>
            <ns3:cad>0</ns3:cad>
          </ns3:TrackPointExtension>
        </extensions>
      </trkpt>
      <trkpt lat="45.28692486695945262908935546875" lon="-71.10987355001270771026611328125">
        <ele>728.4000244140625</ele>
        <time>2026-08-22T00:25:36.000Z</time>
        <extensions>
          <ns3:TrackPointExtension>
            <ns3:hr>119</ns3:hr>
            <ns3:cad>0</ns3:cad>
          </ns3:TrackPointExtension>
        </extensions>
      </trkpt>
      <trkpt lat="45.28692327439785003662109375" lon="-71.10987170599400997161865234375">
        <ele>728.20001220703125</ele>
        <time>2026-08-22T00:25:37.000Z</time>
        <extensions>
          <ns3:TrackPointExtension>
            <ns3:hr>119</ns3:hr>
            <ns3:cad>0</ns3:cad>
          </ns3:TrackPointExtension>
        </extensions>
      </trkpt>
      <trkpt lat="45.286915563046932220458984375" lon="-71.10986533574759960174560546875">
        <ele>728.20001220703125</ele>
        <time>2026-08-22T00:25:38.000Z</time>
        <extensions>
          <ns3:TrackPointExtension>
            <ns3:hr>118</ns3:hr>
            <ns3:cad>0</ns3:cad>
          </ns3:TrackPointExtension>
        </extensions>
      </trkpt>
      <trkpt lat="45.28690860606729984283447265625" lon="-71.10986097715795040130615234375">
        <ele>728</ele>
        <time>2026-08-22T00:25:39.000Z</time>
        <extensions>
          <ns3:TrackPointExtension>
            <ns3:hr>118</ns3:hr>
            <ns3:cad>0</ns3:cad>
          </ns3:TrackPointExtension>
        </extensions>
      </trkpt>
      <trkpt lat="45.28690449893474578857421875" lon="-71.10985510982573032379150390625">
        <ele>727.79998779296875</ele>
        <time>2026-08-22T00:25:40.000Z</time>
        <extensions>
          <ns3:TrackPointExtension>
            <ns3:hr>117</ns3:hr>
            <ns3:cad>0</ns3:cad>
          </ns3:TrackPointExtension>
        </extensions>
      </trkpt>
      <trkpt lat="45.28689770959317684173583984375" lon="-71.109851337969303131103515625">
        <ele>727.5999755859375</ele>
        <time>2026-08-22T00:25:41.000Z</time>
        <extensions>
          <ns3:TrackPointExtension>
            <ns3:hr>116</ns3:hr>
            <ns3:cad>0</ns3:cad>
          </ns3:TrackPointExtension>
        </extensions>
      </trkpt>
      <trkpt lat="45.2868882380425930023193359375" lon="-71.10984941013157367706298828125">
        <ele>727.4000244140625</ele>
        <time>2026-08-22T00:25:42.000Z</time>
        <extensions>
          <ns3:TrackPointExtension>
            <ns3:hr>116</ns3:hr>
            <ns3:cad>0</ns3:cad>
          </ns3:TrackPointExtension>
        </extensions>
      </trkpt>
      <trkpt lat="45.286879353225231170654296875" lon="-71.10985108651220798492431640625">
        <ele>727.20001220703125</ele>
        <time>2026-08-22T00:25:43.000Z</time>
        <extensions>
          <ns3:TrackPointExtension>
            <ns3:hr>115</ns3:hr>
            <ns3:cad>0</ns3:cad>
          </ns3:TrackPointExtension>
        </extensions>
      </trkpt>
      <trkpt lat="45.286869294941425323486328125" lon="-71.10985091887414455413818359375">
        <ele>727</ele>
        <time>2026-08-22T00:25:44.000Z</time>
        <extensions>
          <ns3:TrackPointExtension>
            <ns3:hr>114</ns3:hr>
            <ns3:cad>72</ns3:cad>
          </ns3:TrackPointExtension>
        </extensions>
      </trkpt>
      <trkpt lat="45.286859907209873199462890625" lon="-71.109852679073810577392578125">
        <ele>726.79998779296875</ele>
        <time>2026-08-22T00:25:45.000Z</time>
        <extensions>
          <ns3:TrackPointExtension>
            <ns3:hr>114</ns3:hr>
            <ns3:cad>72</ns3:cad>
          </ns3:TrackPointExtension>
        </extensions>
      </trkpt>
      <trkpt lat="45.286849848926067352294921875" lon="-71.10985309816896915435791015625">
        <ele>726.5999755859375</ele>
        <time>2026-08-22T00:25:46.000Z</time>
        <extensions>
          <ns3:TrackPointExtension>
            <ns3:hr>114</ns3:hr>
            <ns3:cad>72</ns3:cad>
          </ns3:TrackPointExtension>
        </extensions>
      </trkpt>
      <trkpt lat="45.2868448197841644287109375" lon="-71.10985108651220798492431640625">
        <ele>726.4000244140625</ele>
        <time>2026-08-22T00:25:47.000Z</time>
        <extensions>
          <ns3:TrackPointExtension>
            <ns3:hr>114</ns3:hr>
            <ns3:cad>0</ns3:cad>
          </ns3:TrackPointExtension>
        </extensions>
      </trkpt>
      <trkpt lat="45.2868359349668025970458984375" lon="-71.10984656028449535369873046875">
        <ele>726.20001220703125</ele>
        <time>2026-08-22T00:25:48.000Z</time>
        <extensions>
          <ns3:TrackPointExtension>
            <ns3:hr>114</ns3:hr>
            <ns3:cad>0</ns3:cad>
          </ns3:TrackPointExtension>
        </extensions>
      </trkpt>
      <trkpt lat="45.28683283366262912750244140625" lon="-71.10984354279935359954833984375">
        <ele>726</ele>
        <time>2026-08-22T00:25:49.000Z</time>
        <extensions>
          <ns3:TrackPointExtension>
            <ns3:hr>114</ns3:hr>
            <ns3:cad>0</ns3:cad>
          </ns3:TrackPointExtension>
        </extensions>
      </trkpt>
      <trkpt lat="45.28682679869234561920166015625" lon="-71.10984371043741703033447265625">
        <ele>725.79998779296875</ele>
        <time>2026-08-22T00:25:50.000Z</time>
        <extensions>
          <ns3:TrackPointExtension>
            <ns3:hr>114</ns3:hr>
            <ns3:cad>0</ns3:cad>
          </ns3:TrackPointExtension>
        </extensions>
      </trkpt>
      <trkpt lat="45.2868238650262355804443359375" lon="-71.109846644103527069091796875">
        <ele>725.79998779296875</ele>
        <time>2026-08-22T00:25:51.000Z</time>
        <extensions>
          <ns3:TrackPointExtension>
            <ns3:hr>114</ns3:hr>
            <ns3:cad>0</ns3:cad>
          </ns3:TrackPointExtension>
        </extensions>
      </trkpt>
      <trkpt lat="45.28681933879852294921875" lon="-71.10985175706446170806884765625">
        <ele>725.5999755859375</ele>
        <time>2026-08-22T00:25:52.000Z</time>
        <extensions>
          <ns3:TrackPointExtension>
            <ns3:hr>114</ns3:hr>
            <ns3:cad>0</ns3:cad>
          </ns3:TrackPointExtension>
        </extensions>
      </trkpt>
      <trkpt lat="45.28681464493274688720703125" lon="-71.1098496615886688232421875">
        <ele>725.5999755859375</ele>
        <time>2026-08-22T00:25:53.000Z</time>
        <extensions>
          <ns3:TrackPointExtension>
            <ns3:hr>113</ns3:hr>
            <ns3:cad>0</ns3:cad>
          </ns3:TrackPointExtension>
        </extensions>
      </trkpt>
      <trkpt lat="45.28680953197181224822998046875" lon="-71.1098454706370830535888671875">
        <ele>725.5999755859375</ele>
        <time>2026-08-22T00:25:54.000Z</time>
        <extensions>
          <ns3:TrackPointExtension>
            <ns3:hr>114</ns3:hr>
            <ns3:cad>0</ns3:cad>
          </ns3:TrackPointExtension>
        </extensions>
      </trkpt>
      <trkpt lat="45.28680701740086078643798828125" lon="-71.10984354279935359954833984375">
        <ele>725.5999755859375</ele>
        <time>2026-08-22T00:25:55.000Z</time>
        <extensions>
          <ns3:TrackPointExtension>
            <ns3:hr>114</ns3:hr>
            <ns3:cad>0</ns3:cad>
          </ns3:TrackPointExtension>
        </extensions>
      </trkpt>
      <trkpt lat="45.2868000604212284088134765625" lon="-71.10984857194125652313232421875">
        <ele>725.5999755859375</ele>
        <time>2026-08-22T00:25:56.000Z</time>
        <extensions>
          <ns3:TrackPointExtension>
            <ns3:hr>114</ns3:hr>
            <ns3:cad>0</ns3:cad>
          </ns3:TrackPointExtension>
        </extensions>
      </trkpt>
      <trkpt lat="45.2868007309734821319580078125" lon="-71.10985443927347660064697265625">
        <ele>725.5999755859375</ele>
        <time>2026-08-22T00:25:57.000Z</time>
        <extensions>
          <ns3:TrackPointExtension>
            <ns3:hr>114</ns3:hr>
            <ns3:cad>0</ns3:cad>
          </ns3:TrackPointExtension>
        </extensions>
      </trkpt>
      <trkpt lat="45.2867943607270717620849609375" lon="-71.10985175706446170806884765625">
        <ele>725.5999755859375</ele>
        <time>2026-08-22T00:25:58.000Z</time>
        <extensions>
          <ns3:TrackPointExtension>
            <ns3:hr>113</ns3:hr>
            <ns3:cad>0</ns3:cad>
          </ns3:TrackPointExtension>
        </extensions>
      </trkpt>
      <trkpt lat="45.28679050505161285400390625" lon="-71.10985728912055492401123046875">
        <ele>725.4000244140625</ele>
        <time>2026-08-22T00:25:59.000Z</time>
        <extensions>
          <ns3:TrackPointExtension>
            <ns3:hr>111</ns3:hr>
            <ns3:cad>0</ns3:cad>
          </ns3:TrackPointExtension>
        </extensions>
      </trkpt>
      <trkpt lat="45.28679125942289829254150390625" lon="-71.1098630726337432861328125">
        <ele>725.4000244140625</ele>
        <time>2026-08-22T00:26:00.000Z</time>
        <extensions>
          <ns3:TrackPointExtension>
            <ns3:hr>111</ns3:hr>
            <ns3:cad>0</ns3:cad>
          </ns3:TrackPointExtension>
        </extensions>
      </trkpt>
      <trkpt lat="45.2867913432419300079345703125" lon="-71.10986349172890186309814453125">
        <ele>725.4000244140625</ele>
        <time>2026-08-22T00:26:01.000Z</time>
        <extensions>
          <ns3:TrackPointExtension>
            <ns3:hr>110</ns3:hr>
            <ns3:cad>0</ns3:cad>
          </ns3:TrackPointExtension>
        </extensions>
      </trkpt>
      <trkpt lat="45.286791510879993438720703125" lon="-71.10986432991921901702880859375">
        <ele>725.4000244140625</ele>
        <time>2026-08-22T00:26:02.000Z</time>
        <extensions>
          <ns3:TrackPointExtension>
            <ns3:hr>109</ns3:hr>
            <ns3:cad>0</ns3:cad>
          </ns3:TrackPointExtension>
        </extensions>
      </trkpt>
      <trkpt lat="45.28680014424026012420654296875" lon="-71.10987522639334201812744140625">
        <ele>725.5999755859375</ele>
        <time>2026-08-22T00:26:03.000Z</time>
        <extensions>
          <ns3:TrackPointExtension>
            <ns3:hr>108</ns3:hr>
            <ns3:cad>0</ns3:cad>
          </ns3:TrackPointExtension>
        </extensions>
      </trkpt>
      <trkpt lat="45.2868072688579559326171875" lon="-71.10988654196262359619140625">
        <ele>725.5999755859375</ele>
        <time>2026-08-22T00:26:04.000Z</time>
        <extensions>
          <ns3:TrackPointExtension>
            <ns3:hr>107</ns3:hr>
            <ns3:cad>0</ns3:cad>
          </ns3:TrackPointExtension>
        </extensions>
      </trkpt>
      <trkpt lat="45.28681523166596889495849609375" lon="-71.109893582761287689208984375">
        <ele>725.79998779296875</ele>
        <time>2026-08-22T00:26:05.000Z</time>
        <extensions>
          <ns3:TrackPointExtension>
            <ns3:hr>106</ns3:hr>
            <ns3:cad>0</ns3:cad>
          </ns3:TrackPointExtension>
        </extensions>
      </trkpt>
      <trkpt lat="45.28682093136012554168701171875" lon="-71.10988830216228961944580078125">
        <ele>725.79998779296875</ele>
        <time>2026-08-22T00:26:06.000Z</time>
        <extensions>
          <ns3:TrackPointExtension>
            <ns3:hr>106</ns3:hr>
            <ns3:cad>0</ns3:cad>
          </ns3:TrackPointExtension>
        </extensions>
      </trkpt>
      <trkpt lat="45.28683434240520000457763671875" lon="-71.10988511703908443450927734375">
        <ele>726</ele>
        <time>2026-08-22T00:26:07.000Z</time>
        <extensions>
          <ns3:TrackPointExtension>
            <ns3:hr>106</ns3:hr>
            <ns3:cad>0</ns3:cad>
          </ns3:TrackPointExtension>
        </extensions>
      </trkpt>
      <trkpt lat="45.286843478679656982421875" lon="-71.10988796688616275787353515625">
        <ele>726.4000244140625</ele>
        <time>2026-08-22T00:26:08.000Z</time>
        <extensions>
          <ns3:TrackPointExtension>
            <ns3:hr>106</ns3:hr>
            <ns3:cad>0</ns3:cad>
          </ns3:TrackPointExtension>
        </extensions>
      </trkpt>
      <trkpt lat="45.28685512952506542205810546875" lon="-71.10989458858966827392578125">
        <ele>726.5999755859375</ele>
        <time>2026-08-22T00:26:09.000Z</time>
        <extensions>
          <ns3:TrackPointExtension>
            <ns3:hr>107</ns3:hr>
            <ns3:cad>0</ns3:cad>
          </ns3:TrackPointExtension>
        </extensions>
      </trkpt>
      <trkpt lat="45.286863259971141815185546875" lon="-71.1099017970263957977294921875">
        <ele>727</ele>
        <time>2026-08-22T00:26:10.000Z</time>
        <extensions>
          <ns3:TrackPointExtension>
            <ns3:hr>108</ns3:hr>
            <ns3:cad>0</ns3:cad>
          </ns3:TrackPointExtension>
        </extensions>
      </trkpt>
      <trkpt lat="45.2868716418743133544921875" lon="-71.1099105142056941986083984375">
        <ele>727.4000244140625</ele>
        <time>2026-08-22T00:26:11.000Z</time>
        <extensions>
          <ns3:TrackPointExtension>
            <ns3:hr>107</ns3:hr>
            <ns3:cad>0</ns3:cad>
          </ns3:TrackPointExtension>
        </extensions>
      </trkpt>
      <trkpt lat="45.28687876649200916290283203125" lon="-71.10991897992789745330810546875">
        <ele>727.79998779296875</ele>
        <time>2026-08-22T00:26:12.000Z</time>
        <extensions>
          <ns3:TrackPointExtension>
            <ns3:hr>107</ns3:hr>
            <ns3:cad>0</ns3:cad>
          </ns3:TrackPointExtension>
        </extensions>
      </trkpt>
      <trkpt lat="45.2868838794529438018798828125" lon="-71.10992803238332271575927734375">
        <ele>728</ele>
        <time>2026-08-22T00:26:13.000Z</time>
        <extensions>
          <ns3:TrackPointExtension>
            <ns3:hr>107</ns3:hr>
            <ns3:cad>0</ns3:cad>
          </ns3:TrackPointExtension>
        </extensions>
      </trkpt>
      <trkpt lat="45.28689033351838588714599609375" lon="-71.10993926413357257843017578125">
        <ele>728.20001220703125</ele>
        <time>2026-08-22T00:26:14.000Z</time>
        <extensions>
          <ns3:TrackPointExtension>
            <ns3:hr>107</ns3:hr>
            <ns3:cad>0</ns3:cad>
          </ns3:TrackPointExtension>
        </extensions>
      </trkpt>
      <trkpt lat="45.28689670376479625701904296875" lon="-71.10995083115994930267333984375">
        <ele>728.20001220703125</ele>
        <time>2026-08-22T00:26:15.000Z</time>
        <extensions>
          <ns3:TrackPointExtension>
            <ns3:hr>108</ns3:hr>
            <ns3:cad>0</ns3:cad>
          </ns3:TrackPointExtension>
        </extensions>
      </trkpt>
      <trkpt lat="45.28690525330603122711181640625" lon="-71.1099594645202159881591796875">
        <ele>728.4000244140625</ele>
        <time>2026-08-22T00:26:16.000Z</time>
        <extensions>
          <ns3:TrackPointExtension>
            <ns3:hr>108</ns3:hr>
            <ns3:cad>0</ns3:cad>
          </ns3:TrackPointExtension>
        </extensions>
      </trkpt>
      <trkpt lat="45.28691749088466167449951171875" lon="-71.10996105708181858062744140625">
        <ele>728.4000244140625</ele>
        <time>2026-08-22T00:26:17.000Z</time>
        <extensions>
          <ns3:TrackPointExtension>
            <ns3:hr>108</ns3:hr>
            <ns3:cad>0</ns3:cad>
          </ns3:TrackPointExtension>
        </extensions>
      </trkpt>
      <trkpt lat="45.28692855499684810638427734375" lon="-71.1099581234157085418701171875">
        <ele>728.4000244140625</ele>
        <time>2026-08-22T00:26:18.000Z</time>
        <extensions>
          <ns3:TrackPointExtension>
            <ns3:hr>109</ns3:hr>
            <ns3:cad>42</ns3:cad>
          </ns3:TrackPointExtension>
        </extensions>
      </trkpt>
      <trkpt lat="45.28693534433841705322265625" lon="-71.10996524803340435028076171875">
        <ele>728.5999755859375</ele>
        <time>2026-08-22T00:26:19.000Z</time>
        <extensions>
          <ns3:TrackPointExtension>
            <ns3:hr>109</ns3:hr>
            <ns3:cad>42</ns3:cad>
          </ns3:TrackPointExtension>
        </extensions>
      </trkpt>
      <trkpt lat="45.28694716282188892364501953125" lon="-71.10996692441403865814208984375">
        <ele>728.79998779296875</ele>
        <time>2026-08-22T00:26:20.000Z</time>
        <extensions>
          <ns3:TrackPointExtension>
            <ns3:hr>110</ns3:hr>
            <ns3:cad>42</ns3:cad>
          </ns3:TrackPointExtension>
        </extensions>
      </trkpt>
      <trkpt lat="45.28695680201053619384765625" lon="-71.109966672956943511962890625">
        <ele>729</ele>
        <time>2026-08-22T00:26:21.000Z</time>
        <extensions>
          <ns3:TrackPointExtension>
            <ns3:hr>112</ns3:hr>
            <ns3:cad>42</ns3:cad>
          </ns3:TrackPointExtension>
        </extensions>
      </trkpt>
      <trkpt lat="45.28697163797914981842041015625" lon="-71.10996558330953121185302734375">
        <ele>729.20001220703125</ele>
        <time>2026-08-22T00:26:22.000Z</time>
        <extensions>
          <ns3:TrackPointExtension>
            <ns3:hr>112</ns3:hr>
            <ns3:cad>45</ns3:cad>
          </ns3:TrackPointExtension>
        </extensions>
      </trkpt>
      <trkpt lat="45.28698069043457508087158203125" lon="-71.10996290110051631927490234375">
        <ele>729.4000244140625</ele>
        <time>2026-08-22T00:26:23.000Z</time>
        <extensions>
          <ns3:TrackPointExtension>
            <ns3:hr>113</ns3:hr>
            <ns3:cad>45</ns3:cad>
          </ns3:TrackPointExtension>
        </extensions>
      </trkpt>
      <trkpt lat="45.28699141927063465118408203125" lon="-71.10995351336896419525146484375">
        <ele>729.4000244140625</ele>
        <time>2026-08-22T00:26:24.000Z</time>
        <extensions>
          <ns3:TrackPointExtension>
            <ns3:hr>113</ns3:hr>
            <ns3:cad>45</ns3:cad>
          </ns3:TrackPointExtension>
        </extensions>
      </trkpt>
      <trkpt lat="45.28699980117380619049072265625" lon="-71.10994613729417324066162109375">
        <ele>729.5999755859375</ele>
        <time>2026-08-22T00:26:25.000Z</time>
        <extensions>
          <ns3:TrackPointExtension>
            <ns3:hr>114</ns3:hr>
            <ns3:cad>45</ns3:cad>
          </ns3:TrackPointExtension>
        </extensions>
      </trkpt>
      <trkpt lat="45.287012793123722076416015625" lon="-71.1099440418183803558349609375">
        <ele>729.79998779296875</ele>
        <time>2026-08-22T00:26:26.000Z</time>
        <extensions>
          <ns3:TrackPointExtension>
            <ns3:hr>116</ns3:hr>
            <ns3:cad>45</ns3:cad>
          </ns3:TrackPointExtension>
        </extensions>
      </trkpt>
      <trkpt lat="45.28702159412205219268798828125" lon="-71.1099462211132049560546875">
        <ele>730</ele>
        <time>2026-08-22T00:26:27.000Z</time>
        <extensions>
          <ns3:TrackPointExtension>
            <ns3:hr>117</ns3:hr>
            <ns3:cad>0</ns3:cad>
          </ns3:TrackPointExtension>
        </extensions>
      </trkpt>
      <trkpt lat="45.28703047893941402435302734375" lon="-71.10994018614292144775390625">
        <ele>730</ele>
        <time>2026-08-22T00:26:28.000Z</time>
        <extensions>
          <ns3:TrackPointExtension>
            <ns3:hr>118</ns3:hr>
            <ns3:cad>0</ns3:cad>
          </ns3:TrackPointExtension>
        </extensions>
      </trkpt>
      <trkpt lat="45.2870374359190464019775390625" lon="-71.10993607901036739349365234375">
        <ele>730.4000244140625</ele>
        <time>2026-08-22T00:26:29.000Z</time>
        <extensions>
          <ns3:TrackPointExtension>
            <ns3:hr>119</ns3:hr>
            <ns3:cad>0</ns3:cad>
          </ns3:TrackPointExtension>
        </extensions>
      </trkpt>
      <trkpt lat="45.2870474942028522491455078125" lon="-71.109932474792003631591796875">
        <ele>730.5999755859375</ele>
        <time>2026-08-22T00:26:30.000Z</time>
        <extensions>
          <ns3:TrackPointExtension>
            <ns3:hr>119</ns3:hr>
            <ns3:cad>0</ns3:cad>
          </ns3:TrackPointExtension>
        </extensions>
      </trkpt>
      <trkpt lat="45.287057720124721527099609375" lon="-71.10992769710719585418701171875">
        <ele>730.79998779296875</ele>
        <time>2026-08-22T00:26:31.000Z</time>
        <extensions>
          <ns3:TrackPointExtension>
            <ns3:hr>120</ns3:hr>
            <ns3:cad>0</ns3:cad>
          </ns3:TrackPointExtension>
        </extensions>
      </trkpt>
      <trkpt lat="45.28706115670502185821533203125" lon="-71.1099247634410858154296875">
        <ele>731</ele>
        <time>2026-08-22T00:26:32.000Z</time>
        <extensions>
          <ns3:TrackPointExtension>
            <ns3:hr>120</ns3:hr>
            <ns3:cad>51</ns3:cad>
          </ns3:TrackPointExtension>
        </extensions>
      </trkpt>
      <trkpt lat="45.28706551529467105865478515625" lon="-71.1099292896687984466552734375">
        <ele>731.20001220703125</ele>
        <time>2026-08-22T00:26:33.000Z</time>
        <extensions>
          <ns3:TrackPointExtension>
            <ns3:hr>120</ns3:hr>
            <ns3:cad>51</ns3:cad>
          </ns3:TrackPointExtension>
        </extensions>
      </trkpt>
      <trkpt lat="45.28707255609333515167236328125" lon="-71.1099393479526042938232421875">
        <ele>731.20001220703125</ele>
        <time>2026-08-22T00:26:34.000Z</time>
        <extensions>
          <ns3:TrackPointExtension>
            <ns3:hr>121</ns3:hr>
            <ns3:cad>51</ns3:cad>
          </ns3:TrackPointExtension>
        </extensions>
      </trkpt>
      <trkpt lat="45.28708429075777530670166015625" lon="-71.10994630493223667144775390625">
        <ele>731.20001220703125</ele>
        <time>2026-08-22T00:26:35.000Z</time>
        <extensions>
          <ns3:TrackPointExtension>
            <ns3:hr>122</ns3:hr>
            <ns3:cad>45</ns3:cad>
          </ns3:TrackPointExtension>
        </extensions>
      </trkpt>
      <trkpt lat="45.287092588841915130615234375" lon="-71.10995351336896419525146484375">
        <ele>731.4000244140625</ele>
        <time>2026-08-22T00:26:36.000Z</time>
        <extensions>
          <ns3:TrackPointExtension>
            <ns3:hr>124</ns3:hr>
            <ns3:cad>45</ns3:cad>
          </ns3:TrackPointExtension>
        </extensions>
      </trkpt>
      <trkpt lat="45.28709719888865947723388671875" lon="-71.109966672956943511962890625">
        <ele>731.20001220703125</ele>
        <time>2026-08-22T00:26:37.000Z</time>
        <extensions>
          <ns3:TrackPointExtension>
            <ns3:hr>125</ns3:hr>
            <ns3:cad>45</ns3:cad>
          </ns3:TrackPointExtension>
        </extensions>
      </trkpt>
      <trkpt lat="45.28710088692605495452880859375" lon="-71.1099829338490962982177734375">
        <ele>731.20001220703125</ele>
        <time>2026-08-22T00:26:38.000Z</time>
        <extensions>
          <ns3:TrackPointExtension>
            <ns3:hr>126</ns3:hr>
            <ns3:cad>45</ns3:cad>
          </ns3:TrackPointExtension>
        </extensions>
      </trkpt>
      <trkpt lat="45.28710172511637210845947265625" lon="-71.10999575816094875335693359375">
        <ele>731.20001220703125</ele>
        <time>2026-08-22T00:26:39.000Z</time>
        <extensions>
          <ns3:TrackPointExtension>
            <ns3:hr>127</ns3:hr>
            <ns3:cad>49</ns3:cad>
          </ns3:TrackPointExtension>
        </extensions>
      </trkpt>
      <trkpt lat="45.28710423968732357025146484375" lon="-71.11001352779567241668701171875">
        <ele>731</ele>
        <time>2026-08-22T00:26:40.000Z</time>
        <extensions>
          <ns3:TrackPointExtension>
            <ns3:hr>129</ns3:hr>
            <ns3:cad>49</ns3:cad>
          </ns3:TrackPointExtension>
        </extensions>
      </trkpt>
      <trkpt lat="45.287105329334735870361328125" lon="-71.11002475954592227935791015625">
        <ele>730.79998779296875</ele>
        <time>2026-08-22T00:26:41.000Z</time>
        <extensions>
          <ns3:TrackPointExtension>
            <ns3:hr>130</ns3:hr>
            <ns3:cad>49</ns3:cad>
          </ns3:TrackPointExtension>
        </extensions>
      </trkpt>
      <trkpt lat="45.28710591606795787811279296875" lon="-71.110046468675136566162109375">
        <ele>730.4000244140625</ele>
        <time>2026-08-22T00:26:42.000Z</time>
        <extensions>
          <ns3:TrackPointExtension>
            <ns3:hr>130</ns3:hr>
            <ns3:cad>0</ns3:cad>
          </ns3:TrackPointExtension>
        </extensions>
      </trkpt>
      <trkpt lat="45.2871075086295604705810546875" lon="-71.11006557941436767578125">
        <ele>730</ele>
        <time>2026-08-22T00:26:43.000Z</time>
        <extensions>
          <ns3:TrackPointExtension>
            <ns3:hr>131</ns3:hr>
            <ns3:cad>0</ns3:cad>
          </ns3:TrackPointExtension>
        </extensions>
      </trkpt>
      <trkpt lat="45.287106670439243316650390625" lon="-71.1100885458290576934814453125">
        <ele>729.5999755859375</ele>
        <time>2026-08-22T00:26:44.000Z</time>
        <extensions>
          <ns3:TrackPointExtension>
            <ns3:hr>131</ns3:hr>
            <ns3:cad>0</ns3:cad>
          </ns3:TrackPointExtension>
        </extensions>
      </trkpt>
      <trkpt lat="45.2870996296405792236328125" lon="-71.11010656692087650299072265625">
        <ele>729.20001220703125</ele>
        <time>2026-08-22T00:26:45.000Z</time>
        <extensions>
          <ns3:TrackPointExtension>
            <ns3:hr>131</ns3:hr>
            <ns3:cad>0</ns3:cad>
          </ns3:TrackPointExtension>
        </extensions>
      </trkpt>
      <trkpt lat="45.2870870567858219146728515625" lon="-71.1101207323372364044189453125">
        <ele>728.79998779296875</ele>
        <time>2026-08-22T00:26:46.000Z</time>
        <extensions>
          <ns3:TrackPointExtension>
            <ns3:hr>131</ns3:hr>
            <ns3:cad>0</ns3:cad>
          </ns3:TrackPointExtension>
        </extensions>
      </trkpt>
      <trkpt lat="45.2870786748826503753662109375" lon="-71.110128276050090789794921875">
        <ele>728.5999755859375</ele>
        <time>2026-08-22T00:26:47.000Z</time>
        <extensions>
          <ns3:TrackPointExtension>
            <ns3:hr>132</ns3:hr>
            <ns3:cad>0</ns3:cad>
          </ns3:TrackPointExtension>
        </extensions>
      </trkpt>
      <trkpt lat="45.28706752695143222808837890625" lon="-71.11014445312321186065673828125">
        <ele>728.20001220703125</ele>
        <time>2026-08-22T00:26:48.000Z</time>
        <extensions>
          <ns3:TrackPointExtension>
            <ns3:hr>131</ns3:hr>
            <ns3:cad>0</ns3:cad>
          </ns3:TrackPointExtension>
        </extensions>
      </trkpt>
      <trkpt lat="45.28705872595310211181640625" lon="-71.1101581156253814697265625">
        <ele>728</ele>
        <time>2026-08-22T00:26:49.000Z</time>
        <extensions>
          <ns3:TrackPointExtension>
            <ns3:hr>131</ns3:hr>
            <ns3:cad>0</ns3:cad>
          </ns3:TrackPointExtension>
        </extensions>
      </trkpt>
      <trkpt lat="45.28704724274575710296630859375" lon="-71.11017244867980480194091796875">
        <ele>727.79998779296875</ele>
        <time>2026-08-22T00:26:50.000Z</time>
        <extensions>
          <ns3:TrackPointExtension>
            <ns3:hr>131</ns3:hr>
            <ns3:cad>0</ns3:cad>
          </ns3:TrackPointExtension>
        </extensions>
      </trkpt>
      <trkpt lat="45.28703466989099979400634765625" lon="-71.11018150113523006439208984375">
        <ele>727.4000244140625</ele>
        <time>2026-08-22T00:26:51.000Z</time>
        <extensions>
          <ns3:TrackPointExtension>
            <ns3:hr>131</ns3:hr>
            <ns3:cad>0</ns3:cad>
          </ns3:TrackPointExtension>
        </extensions>
      </trkpt>
      <trkpt lat="45.28702360577881336212158203125" lon="-71.11018904484808444976806640625">
        <ele>727.20001220703125</ele>
        <time>2026-08-22T00:26:52.000Z</time>
        <extensions>
          <ns3:TrackPointExtension>
            <ns3:hr>131</ns3:hr>
            <ns3:cad>0</ns3:cad>
          </ns3:TrackPointExtension>
        </extensions>
      </trkpt>
      <trkpt lat="45.28700776398181915283203125" lon="-71.110202372074127197265625">
        <ele>726.79998779296875</ele>
        <time>2026-08-22T00:26:53.000Z</time>
        <extensions>
          <ns3:TrackPointExtension>
            <ns3:hr>132</ns3:hr>
            <ns3:cad>0</ns3:cad>
          </ns3:TrackPointExtension>
        </extensions>
      </trkpt>
      <trkpt lat="45.28699125163257122039794921875" lon="-71.110216788947582244873046875">
        <ele>726.5999755859375</ele>
        <time>2026-08-22T00:26:54.000Z</time>
        <extensions>
          <ns3:TrackPointExtension>
            <ns3:hr>132</ns3:hr>
            <ns3:cad>0</ns3:cad>
          </ns3:TrackPointExtension>
        </extensions>
      </trkpt>
      <trkpt lat="45.2869801037013530731201171875" lon="-71.11022726632654666900634765625">
        <ele>726.4000244140625</ele>
        <time>2026-08-22T00:26:55.000Z</time>
        <extensions>
          <ns3:TrackPointExtension>
            <ns3:hr>132</ns3:hr>
            <ns3:cad>0</ns3:cad>
          </ns3:TrackPointExtension>
        </extensions>
      </trkpt>
      <trkpt lat="45.2869663573801517486572265625" lon="-71.11023900099098682403564453125">
        <ele>726.20001220703125</ele>
        <time>2026-08-22T00:26:56.000Z</time>
        <extensions>
          <ns3:TrackPointExtension>
            <ns3:hr>132</ns3:hr>
            <ns3:cad>0</ns3:cad>
          </ns3:TrackPointExtension>
        </extensions>
      </trkpt>
      <trkpt lat="45.28695487417280673980712890625" lon="-71.11024864017963409423828125">
        <ele>726</ele>
        <time>2026-08-22T00:26:57.000Z</time>
        <extensions>
          <ns3:TrackPointExtension>
            <ns3:hr>132</ns3:hr>
            <ns3:cad>0</ns3:cad>
          </ns3:TrackPointExtension>
        </extensions>
      </trkpt>
      <trkpt lat="45.28693928383290767669677734375" lon="-71.1102628894150257110595703125">
        <ele>725.79998779296875</ele>
        <time>2026-08-22T00:26:58.000Z</time>
        <extensions>
          <ns3:TrackPointExtension>
            <ns3:hr>131</ns3:hr>
            <ns3:cad>0</ns3:cad>
          </ns3:TrackPointExtension>
        </extensions>
      </trkpt>
      <trkpt lat="45.28692570514976978302001953125" lon="-71.11027940176427364349365234375">
        <ele>725.79998779296875</ele>
        <time>2026-08-22T00:26:59.000Z</time>
        <extensions>
          <ns3:TrackPointExtension>
            <ns3:hr>131</ns3:hr>
            <ns3:cad>0</ns3:cad>
          </ns3:TrackPointExtension>
        </extensions>
      </trkpt>
      <trkpt lat="45.286914221942424774169921875" lon="-71.11029532738029956817626953125">
        <ele>725.5999755859375</ele>
        <time>2026-08-22T00:27:00.000Z</time>
        <extensions>
          <ns3:TrackPointExtension>
            <ns3:hr>130</ns3:hr>
            <ns3:cad>0</ns3:cad>
          </ns3:TrackPointExtension>
        </extensions>
      </trkpt>
      <trkpt lat="45.28690827079117298126220703125" lon="-71.1103058047592639923095703125">
        <ele>725.4000244140625</ele>
        <time>2026-08-22T00:27:01.000Z</time>
        <extensions>
          <ns3:TrackPointExtension>
            <ns3:hr>130</ns3:hr>
            <ns3:cad>65</ns3:cad>
          </ns3:TrackPointExtension>
        </extensions>
      </trkpt>
      <trkpt lat="45.28690173290669918060302734375" lon="-71.11032349057495594024658203125">
        <ele>725.4000244140625</ele>
        <time>2026-08-22T00:27:02.000Z</time>
        <extensions>
          <ns3:TrackPointExtension>
            <ns3:hr>129</ns3:hr>
            <ns3:cad>65</ns3:cad>
          </ns3:TrackPointExtension>
        </extensions>
      </trkpt>
      <trkpt lat="45.2868976257741451263427734375" lon="-71.1103463731706142425537109375">
        <ele>725.20001220703125</ele>
        <time>2026-08-22T00:27:03.000Z</time>
        <extensions>
          <ns3:TrackPointExtension>
            <ns3:hr>129</ns3:hr>
            <ns3:cad>65</ns3:cad>
          </ns3:TrackPointExtension>
        </extensions>
      </trkpt>
      <trkpt lat="45.28689217753708362579345703125" lon="-71.110365651547908782958984375">
        <ele>725</ele>
        <time>2026-08-22T00:27:04.000Z</time>
        <extensions>
          <ns3:TrackPointExtension>
            <ns3:hr>129</ns3:hr>
            <ns3:cad>65</ns3:cad>
          </ns3:TrackPointExtension>
        </extensions>
      </trkpt>
      <trkpt lat="45.28689217753708362579345703125" lon="-71.1103856004774570465087890625">
        <ele>724.79998779296875</ele>
        <time>2026-08-22T00:27:05.000Z</time>
        <extensions>
          <ns3:TrackPointExtension>
            <ns3:hr>129</ns3:hr>
            <ns3:cad>58</ns3:cad>
          </ns3:TrackPointExtension>
        </extensions>
      </trkpt>
      <trkpt lat="45.286893434822559356689453125" lon="-71.110407896339893341064453125">
        <ele>724.5999755859375</ele>
        <time>2026-08-22T00:27:06.000Z</time>
        <extensions>
          <ns3:TrackPointExtension>
            <ns3:hr>129</ns3:hr>
            <ns3:cad>58</ns3:cad>
          </ns3:TrackPointExtension>
        </extensions>
      </trkpt>
      <trkpt lat="45.2868946082890033721923828125" lon="-71.11043396405875682830810546875">
        <ele>724.4000244140625</ele>
        <time>2026-08-22T00:27:07.000Z</time>
        <extensions>
          <ns3:TrackPointExtension>
            <ns3:hr>128</ns3:hr>
            <ns3:cad>58</ns3:cad>
          </ns3:TrackPointExtension>
        </extensions>
      </trkpt>
      <trkpt lat="45.28689645230770111083984375" lon="-71.1104550026357173919677734375">
        <ele>724.20001220703125</ele>
        <time>2026-08-22T00:27:08.000Z</time>
        <extensions>
          <ns3:TrackPointExtension>
            <ns3:hr>126</ns3:hr>
            <ns3:cad>58</ns3:cad>
          </ns3:TrackPointExtension>
        </extensions>
      </trkpt>
      <trkpt lat="45.28689603321254253387451171875" lon="-71.11047453247010707855224609375">
        <ele>724</ele>
        <time>2026-08-22T00:27:09.000Z</time>
        <extensions>
          <ns3:TrackPointExtension>
            <ns3:hr>126</ns3:hr>
            <ns3:cad>58</ns3:cad>
          </ns3:TrackPointExtension>
        </extensions>
      </trkpt>
      <trkpt lat="45.28689913451671600341796875" lon="-71.110493727028369903564453125">
        <ele>723.79998779296875</ele>
        <time>2026-08-22T00:27:10.000Z</time>
        <extensions>
          <ns3:TrackPointExtension>
            <ns3:hr>124</ns3:hr>
            <ns3:cad>58</ns3:cad>
          </ns3:TrackPointExtension>
        </extensions>
      </trkpt>
      <trkpt lat="45.28689921833574771881103515625" lon="-71.110511831939220428466796875">
        <ele>723.5999755859375</ele>
        <time>2026-08-22T00:27:11.000Z</time>
        <extensions>
          <ns3:TrackPointExtension>
            <ns3:hr>123</ns3:hr>
            <ns3:cad>58</ns3:cad>
          </ns3:TrackPointExtension>
        </extensions>
      </trkpt>
      <trkpt lat="45.28689603321254253387451171875" lon="-71.110523901879787445068359375">
        <ele>723.4000244140625</ele>
        <time>2026-08-22T00:27:12.000Z</time>
        <extensions>
          <ns3:TrackPointExtension>
            <ns3:hr>122</ns3:hr>
            <ns3:cad>58</ns3:cad>
          </ns3:TrackPointExtension>
        </extensions>
      </trkpt>
      <trkpt lat="45.28689536266028881072998046875" lon="-71.110536642372608184814453125">
        <ele>723.20001220703125</ele>
        <time>2026-08-22T00:27:13.000Z</time>
        <extensions>
          <ns3:TrackPointExtension>
            <ns3:hr>121</ns3:hr>
            <ns3:cad>0</ns3:cad>
          </ns3:TrackPointExtension>
        </extensions>
      </trkpt>
      <trkpt lat="45.2868930995464324951171875" lon="-71.11054494045674800872802734375">
        <ele>722.79998779296875</ele>
        <time>2026-08-22T00:27:14.000Z</time>
        <extensions>
          <ns3:TrackPointExtension>
            <ns3:hr>121</ns3:hr>
            <ns3:cad>0</ns3:cad>
          </ns3:TrackPointExtension>
        </extensions>
      </trkpt>
      <trkpt lat="45.2868909202516078948974609375" lon="-71.1105492152273654937744140625">
        <ele>722.5999755859375</ele>
        <time>2026-08-22T00:27:15.000Z</time>
        <extensions>
          <ns3:TrackPointExtension>
            <ns3:hr>121</ns3:hr>
            <ns3:cad>0</ns3:cad>
          </ns3:TrackPointExtension>
        </extensions>
      </trkpt>
      <trkpt lat="45.286885388195514678955078125" lon="-71.11055701039731502532958984375">
        <ele>722.4000244140625</ele>
        <time>2026-08-22T00:27:16.000Z</time>
        <extensions>
          <ns3:TrackPointExtension>
            <ns3:hr>120</ns3:hr>
            <ns3:cad>0</ns3:cad>
          </ns3:TrackPointExtension>
        </extensions>
      </trkpt>
      <trkpt lat="45.28687625192105770111083984375" lon="-71.11056991852819919586181640625">
        <ele>722.20001220703125</ele>
        <time>2026-08-22T00:27:17.000Z</time>
        <extensions>
          <ns3:TrackPointExtension>
            <ns3:hr>120</ns3:hr>
            <ns3:cad>0</ns3:cad>
          </ns3:TrackPointExtension>
        </extensions>
      </trkpt>
      <trkpt lat="45.28687365353107452392578125" lon="-71.1105859279632568359375">
        <ele>722</ele>
        <time>2026-08-22T00:27:18.000Z</time>
        <extensions>
          <ns3:TrackPointExtension>
            <ns3:hr>119</ns3:hr>
            <ns3:cad>0</ns3:cad>
          </ns3:TrackPointExtension>
        </extensions>
      </trkpt>
      <trkpt lat="45.28687122277915477752685546875" lon="-71.1106005124747753143310546875">
        <ele>721.79998779296875</ele>
        <time>2026-08-22T00:27:19.000Z</time>
        <extensions>
          <ns3:TrackPointExtension>
            <ns3:hr>118</ns3:hr>
            <ns3:cad>0</ns3:cad>
          </ns3:TrackPointExtension>
        </extensions>
      </trkpt>
      <trkpt lat="45.286867618560791015625" lon="-71.110609062016010284423828125">
        <ele>721.4000244140625</ele>
        <time>2026-08-22T00:27:20.000Z</time>
        <extensions>
          <ns3:TrackPointExtension>
            <ns3:hr>117</ns3:hr>
            <ns3:cad>0</ns3:cad>
          </ns3:TrackPointExtension>
        </extensions>
      </trkpt>
      <trkpt lat="45.2868647687137126922607421875" lon="-71.1106179468333721160888671875">
        <ele>721.20001220703125</ele>
        <time>2026-08-22T00:27:21.000Z</time>
        <extensions>
          <ns3:TrackPointExtension>
            <ns3:hr>116</ns3:hr>
            <ns3:cad>0</ns3:cad>
          </ns3:TrackPointExtension>
        </extensions>
      </trkpt>
      <trkpt lat="45.28686049394309520721435546875" lon="-71.11063026823103427886962890625">
        <ele>721</ele>
        <time>2026-08-22T00:27:22.000Z</time>
        <extensions>
          <ns3:TrackPointExtension>
            <ns3:hr>116</ns3:hr>
            <ns3:cad>0</ns3:cad>
          </ns3:TrackPointExtension>
        </extensions>
      </trkpt>
      <trkpt lat="45.2868553809821605682373046875" lon="-71.11063915304839611053466796875">
        <ele>720.5999755859375</ele>
        <time>2026-08-22T00:27:23.000Z</time>
        <extensions>
          <ns3:TrackPointExtension>
            <ns3:hr>116</ns3:hr>
            <ns3:cad>0</ns3:cad>
          </ns3:TrackPointExtension>
        </extensions>
      </trkpt>
      <trkpt lat="45.28684892691671848297119140625" lon="-71.11065231263637542724609375">
        <ele>720.4000244140625</ele>
        <time>2026-08-22T00:27:24.000Z</time>
        <extensions>
          <ns3:TrackPointExtension>
            <ns3:hr>117</ns3:hr>
            <ns3:cad>0</ns3:cad>
          </ns3:TrackPointExtension>
        </extensions>
      </trkpt>
      <trkpt lat="45.28684146702289581298828125" lon="-71.11065977253019809722900390625">
        <ele>720.20001220703125</ele>
        <time>2026-08-22T00:27:25.000Z</time>
        <extensions>
          <ns3:TrackPointExtension>
            <ns3:hr>117</ns3:hr>
            <ns3:cad>0</ns3:cad>
          </ns3:TrackPointExtension>
        </extensions>
      </trkpt>
      <trkpt lat="45.2868325822055339813232421875" lon="-71.1106689088046550750732421875">
        <ele>719.79998779296875</ele>
        <time>2026-08-22T00:27:26.000Z</time>
        <extensions>
          <ns3:TrackPointExtension>
            <ns3:hr>117</ns3:hr>
            <ns3:cad>0</ns3:cad>
          </ns3:TrackPointExtension>
        </extensions>
      </trkpt>
      <trkpt lat="45.28682244010269641876220703125" lon="-71.11067485995590686798095703125">
        <ele>719.5999755859375</ele>
        <time>2026-08-22T00:27:27.000Z</time>
        <extensions>
          <ns3:TrackPointExtension>
            <ns3:hr>116</ns3:hr>
            <ns3:cad>0</ns3:cad>
          </ns3:TrackPointExtension>
        </extensions>
      </trkpt>
      <trkpt lat="45.28681590221822261810302734375" lon="-71.110679470002651214599609375">
        <ele>719.20001220703125</ele>
        <time>2026-08-22T00:27:28.000Z</time>
        <extensions>
          <ns3:TrackPointExtension>
            <ns3:hr>116</ns3:hr>
            <ns3:cad>0</ns3:cad>
          </ns3:TrackPointExtension>
        </extensions>
      </trkpt>
      <trkpt lat="45.2868072688579559326171875" lon="-71.1106860078871250152587890625">
        <ele>719</ele>
        <time>2026-08-22T00:27:29.000Z</time>
        <extensions>
          <ns3:TrackPointExtension>
            <ns3:hr>116</ns3:hr>
            <ns3:cad>0</ns3:cad>
          </ns3:TrackPointExtension>
        </extensions>
      </trkpt>
      <trkpt lat="45.28680257499217987060546875" lon="-71.11069363541901111602783203125">
        <ele>718.79998779296875</ele>
        <time>2026-08-22T00:27:30.000Z</time>
        <extensions>
          <ns3:TrackPointExtension>
            <ns3:hr>116</ns3:hr>
            <ns3:cad>0</ns3:cad>
          </ns3:TrackPointExtension>
        </extensions>
      </trkpt>
      <trkpt lat="45.2867973782122135162353515625" lon="-71.11069916747510433197021484375">
        <ele>718.5999755859375</ele>
        <time>2026-08-22T00:27:31.000Z</time>
        <extensions>
          <ns3:TrackPointExtension>
            <ns3:hr>115</ns3:hr>
            <ns3:cad>0</ns3:cad>
          </ns3:TrackPointExtension>
        </extensions>
      </trkpt>
      <trkpt lat="45.2867923490703105926513671875" lon="-71.11070084385573863983154296875">
        <ele>718.4000244140625</ele>
        <time>2026-08-22T00:27:32.000Z</time>
        <extensions>
          <ns3:TrackPointExtension>
            <ns3:hr>115</ns3:hr>
            <ns3:cad>0</ns3:cad>
          </ns3:TrackPointExtension>
        </extensions>
      </trkpt>
      <trkpt lat="45.2867940254509449005126953125" lon="-71.1107108183205127716064453125">
        <ele>718.4000244140625</ele>
        <time>2026-08-22T00:27:33.000Z</time>
        <extensions>
          <ns3:TrackPointExtension>
            <ns3:hr>115</ns3:hr>
            <ns3:cad>0</ns3:cad>
          </ns3:TrackPointExtension>
        </extensions>
      </trkpt>
      <trkpt lat="45.2867938578128814697265625" lon="-71.11071475781500339508056640625">
        <ele>718.20001220703125</ele>
        <time>2026-08-22T00:27:34.000Z</time>
        <extensions>
          <ns3:TrackPointExtension>
            <ns3:hr>116</ns3:hr>
            <ns3:cad>0</ns3:cad>
          </ns3:TrackPointExtension>
        </extensions>
      </trkpt>
      <trkpt lat="45.28679394163191318511962890625" lon="-71.11071241088211536407470703125">
        <ele>718.20001220703125</ele>
        <time>2026-08-22T00:27:35.000Z</time>
        <extensions>
          <ns3:TrackPointExtension>
            <ns3:hr>116</ns3:hr>
            <ns3:cad>0</ns3:cad>
          </ns3:TrackPointExtension>
        </extensions>
      </trkpt>
      <trkpt lat="45.2867920137941837310791015625" lon="-71.110710315406322479248046875">
        <ele>718.20001220703125</ele>
        <time>2026-08-22T00:27:36.000Z</time>
        <extensions>
          <ns3:TrackPointExtension>
            <ns3:hr>116</ns3:hr>
            <ns3:cad>0</ns3:cad>
          </ns3:TrackPointExtension>
        </extensions>
      </trkpt>
      <trkpt lat="45.28679176233708858489990234375" lon="-71.1107054539024829864501953125">
        <ele>718</ele>
        <time>2026-08-22T00:27:37.000Z</time>
        <extensions>
          <ns3:TrackPointExtension>
            <ns3:hr>116</ns3:hr>
            <ns3:cad>0</ns3:cad>
          </ns3:TrackPointExtension>
        </extensions>
      </trkpt>
      <trkpt lat="45.28678589500486850738525390625" lon="-71.11070352606475353240966796875">
        <ele>718</ele>
        <time>2026-08-22T00:27:38.000Z</time>
        <extensions>
          <ns3:TrackPointExtension>
            <ns3:hr>116</ns3:hr>
            <ns3:cad>0</ns3:cad>
          </ns3:TrackPointExtension>
        </extensions>
      </trkpt>
      <trkpt lat="45.2867822907865047454833984375" lon="-71.11069967038929462432861328125">
        <ele>718</ele>
        <time>2026-08-22T00:27:39.000Z</time>
        <extensions>
          <ns3:TrackPointExtension>
            <ns3:hr>115</ns3:hr>
            <ns3:cad>0</ns3:cad>
          </ns3:TrackPointExtension>
        </extensions>
      </trkpt>
      <trkpt lat="45.28677902184426784515380859375" lon="-71.1106920428574085235595703125">
        <ele>718</ele>
        <time>2026-08-22T00:27:40.000Z</time>
        <extensions>
          <ns3:TrackPointExtension>
            <ns3:hr>114</ns3:hr>
            <ns3:cad>0</ns3:cad>
          </ns3:TrackPointExtension>
        </extensions>
      </trkpt>
      <trkpt lat="45.286776088178157806396484375" lon="-71.1106913723051548004150390625">
        <ele>718</ele>
        <time>2026-08-22T00:27:41.000Z</time>
        <extensions>
          <ns3:TrackPointExtension>
            <ns3:hr>112</ns3:hr>
            <ns3:cad>0</ns3:cad>
          </ns3:TrackPointExtension>
        </extensions>
      </trkpt>
      <trkpt lat="45.2867718972265720367431640625" lon="-71.11069380305707454681396484375">
        <ele>718.20001220703125</ele>
        <time>2026-08-22T00:27:42.000Z</time>
        <extensions>
          <ns3:TrackPointExtension>
            <ns3:hr>111</ns3:hr>
            <ns3:cad>0</ns3:cad>
          </ns3:TrackPointExtension>
        </extensions>
      </trkpt>
      <trkpt lat="45.28676913119852542877197265625" lon="-71.1106950603425502777099609375">
        <ele>718.20001220703125</ele>
        <time>2026-08-22T00:27:43.000Z</time>
        <extensions>
          <ns3:TrackPointExtension>
            <ns3:hr>110</ns3:hr>
            <ns3:cad>0</ns3:cad>
          </ns3:TrackPointExtension>
        </extensions>
      </trkpt>
      <trkpt lat="45.28676762245595455169677734375" lon="-71.11070335842669010162353515625">
        <ele>718.20001220703125</ele>
        <time>2026-08-22T00:27:44.000Z</time>
        <extensions>
          <ns3:TrackPointExtension>
            <ns3:hr>110</ns3:hr>
            <ns3:cad>0</ns3:cad>
          </ns3:TrackPointExtension>
        </extensions>
      </trkpt>
      <trkpt lat="45.2867682091891765594482421875" lon="-71.11071106977760791778564453125">
        <ele>718.20001220703125</ele>
        <time>2026-08-22T00:27:45.000Z</time>
        <extensions>
          <ns3:TrackPointExtension>
            <ns3:hr>110</ns3:hr>
            <ns3:cad>0</ns3:cad>
          </ns3:TrackPointExtension>
        </extensions>
      </trkpt>
      <trkpt lat="45.28676661662757396697998046875" lon="-71.110720373690128326416015625">
        <ele>718.20001220703125</ele>
        <time>2026-08-22T00:27:46.000Z</time>
        <extensions>
          <ns3:TrackPointExtension>
            <ns3:hr>110</ns3:hr>
            <ns3:cad>0</ns3:cad>
          </ns3:TrackPointExtension>
        </extensions>
      </trkpt>
      <trkpt lat="45.28676276095211505889892578125" lon="-71.1107295937836170196533203125">
        <ele>718.20001220703125</ele>
        <time>2026-08-22T00:27:47.000Z</time>
        <extensions>
          <ns3:TrackPointExtension>
            <ns3:hr>111</ns3:hr>
            <ns3:cad>0</ns3:cad>
          </ns3:TrackPointExtension>
        </extensions>
      </trkpt>
      <trkpt lat="45.2867598272860050201416015625" lon="-71.11073269508779048919677734375">
        <ele>718.20001220703125</ele>
        <time>2026-08-22T00:27:48.000Z</time>
        <extensions>
          <ns3:TrackPointExtension>
            <ns3:hr>111</ns3:hr>
            <ns3:cad>0</ns3:cad>
          </ns3:TrackPointExtension>
        </extensions>
      </trkpt>
      <trkpt lat="45.28675471432507038116455078125" lon="-71.1107294261455535888671875">
        <ele>718.4000244140625</ele>
        <time>2026-08-22T00:27:49.000Z</time>
        <extensions>
          <ns3:TrackPointExtension>
            <ns3:hr>111</ns3:hr>
            <ns3:cad>0</ns3:cad>
          </ns3:TrackPointExtension>
        </extensions>
      </trkpt>
      <trkpt lat="45.28675027191638946533203125" lon="-71.11072766594588756561279296875">
        <ele>718.5999755859375</ele>
        <time>2026-08-22T00:27:50.000Z</time>
        <extensions>
          <ns3:TrackPointExtension>
            <ns3:hr>111</ns3:hr>
            <ns3:cad>0</ns3:cad>
          </ns3:TrackPointExtension>
        </extensions>
      </trkpt>
      <trkpt lat="45.28674532659351825714111328125" lon="-71.11072984524071216583251953125">
        <ele>719</ele>
        <time>2026-08-22T00:27:51.000Z</time>
        <extensions>
          <ns3:TrackPointExtension>
            <ns3:hr>112</ns3:hr>
            <ns3:cad>0</ns3:cad>
          </ns3:TrackPointExtension>
        </extensions>
      </trkpt>
      <trkpt lat="45.286736190319061279296875" lon="-71.11073990352451801300048828125">
        <ele>719.4000244140625</ele>
        <time>2026-08-22T00:27:52.000Z</time>
        <extensions>
          <ns3:TrackPointExtension>
            <ns3:hr>111</ns3:hr>
            <ns3:cad>0</ns3:cad>
          </ns3:TrackPointExtension>
        </extensions>
      </trkpt>
      <trkpt lat="45.286733172833919525146484375" lon="-71.1107510514557361602783203125">
        <ele>719.79998779296875</ele>
        <time>2026-08-22T00:27:53.000Z</time>
        <extensions>
          <ns3:TrackPointExtension>
            <ns3:hr>111</ns3:hr>
            <ns3:cad>0</ns3:cad>
          </ns3:TrackPointExtension>
        </extensions>
      </trkpt>
      <trkpt lat="45.28673551976680755615234375" lon="-71.11075851134955883026123046875">
        <ele>720.20001220703125</ele>
        <time>2026-08-22T00:27:54.000Z</time>
        <extensions>
          <ns3:TrackPointExtension>
            <ns3:hr>111</ns3:hr>
            <ns3:cad>0</ns3:cad>
          </ns3:TrackPointExtension>
        </extensions>
      </trkpt>
      <trkpt lat="45.28673820197582244873046875" lon="-71.110771335661411285400390625">
        <ele>720.5999755859375</ele>
        <time>2026-08-22T00:27:55.000Z</time>
        <extensions>
          <ns3:TrackPointExtension>
            <ns3:hr>112</ns3:hr>
            <ns3:cad>0</ns3:cad>
          </ns3:TrackPointExtension>
        </extensions>
      </trkpt>
      <trkpt lat="45.28674012981355190277099609375" lon="-71.1107815615832805633544921875">
        <ele>720.79998779296875</ele>
        <time>2026-08-22T00:27:56.000Z</time>
        <extensions>
          <ns3:TrackPointExtension>
            <ns3:hr>112</ns3:hr>
            <ns3:cad>0</ns3:cad>
          </ns3:TrackPointExtension>
        </extensions>
      </trkpt>
      <trkpt lat="45.28673275373876094818115234375" lon="-71.1108020134270191192626953125">
        <ele>720.79998779296875</ele>
        <time>2026-08-22T00:27:57.000Z</time>
        <extensions>
          <ns3:TrackPointExtension>
            <ns3:hr>113</ns3:hr>
            <ns3:cad>0</ns3:cad>
          </ns3:TrackPointExtension>
        </extensions>
      </trkpt>
      <trkpt lat="45.2867273055016994476318359375" lon="-71.11081299372017383575439453125">
        <ele>721</ele>
        <time>2026-08-22T00:27:58.000Z</time>
        <extensions>
          <ns3:TrackPointExtension>
            <ns3:hr>114</ns3:hr>
            <ns3:cad>0</ns3:cad>
          </ns3:TrackPointExtension>
        </extensions>
      </trkpt>
      <trkpt lat="45.28672479093074798583984375" lon="-71.110830008983612060546875">
        <ele>721</ele>
        <time>2026-08-22T00:27:59.000Z</time>
        <extensions>
          <ns3:TrackPointExtension>
            <ns3:hr>115</ns3:hr>
            <ns3:cad>0</ns3:cad>
          </ns3:TrackPointExtension>
        </extensions>
      </trkpt>
      <trkpt lat="45.28672076761722564697265625" lon="-71.11084685660898685455322265625">
        <ele>721</ele>
        <time>2026-08-22T00:28:00.000Z</time>
        <extensions>
          <ns3:TrackPointExtension>
            <ns3:hr>116</ns3:hr>
            <ns3:cad>0</ns3:cad>
          </ns3:TrackPointExtension>
        </extensions>
      </trkpt>
      <trkpt lat="45.28671716339886188507080078125" lon="-71.11086328513920307159423828125">
        <ele>721.20001220703125</ele>
        <time>2026-08-22T00:28:01.000Z</time>
        <extensions>
          <ns3:TrackPointExtension>
            <ns3:hr>118</ns3:hr>
            <ns3:cad>0</ns3:cad>
          </ns3:TrackPointExtension>
        </extensions>
      </trkpt>
      <trkpt lat="45.28670559637248516082763671875" lon="-71.11088256351649761199951171875">
        <ele>721.20001220703125</ele>
        <time>2026-08-22T00:28:02.000Z</time>
        <extensions>
          <ns3:TrackPointExtension>
            <ns3:hr>119</ns3:hr>
            <ns3:cad>0</ns3:cad>
          </ns3:TrackPointExtension>
        </extensions>
      </trkpt>
      <trkpt lat="45.286698639392852783203125" lon="-71.1108925379812717437744140625">
        <ele>721.20001220703125</ele>
        <time>2026-08-22T00:28:03.000Z</time>
        <extensions>
          <ns3:TrackPointExtension>
            <ns3:hr>120</ns3:hr>
            <ns3:cad>0</ns3:cad>
          </ns3:TrackPointExtension>
        </extensions>
      </trkpt>
      <trkpt lat="45.28669620864093303680419921875" lon="-71.1109072901308536529541015625">
        <ele>721.20001220703125</ele>
        <time>2026-08-22T00:28:04.000Z</time>
        <extensions>
          <ns3:TrackPointExtension>
            <ns3:hr>121</ns3:hr>
            <ns3:cad>0</ns3:cad>
          </ns3:TrackPointExtension>
        </extensions>
      </trkpt>
      <trkpt lat="45.28669067658483982086181640625" lon="-71.11091651022434234619140625">
        <ele>720.79998779296875</ele>
        <time>2026-08-22T00:28:05.000Z</time>
        <extensions>
          <ns3:TrackPointExtension>
            <ns3:hr>121</ns3:hr>
            <ns3:cad>0</ns3:cad>
          </ns3:TrackPointExtension>
        </extensions>
      </trkpt>
      <trkpt lat="45.2866838872432708740234375" lon="-71.1109217070043087005615234375">
        <ele>720.5999755859375</ele>
        <time>2026-08-22T00:28:06.000Z</time>
        <extensions>
          <ns3:TrackPointExtension>
            <ns3:hr>122</ns3:hr>
            <ns3:cad>0</ns3:cad>
          </ns3:TrackPointExtension>
        </extensions>
      </trkpt>
      <trkpt lat="45.28667441569268703460693359375" lon="-71.11093671061098575592041015625">
        <ele>720.4000244140625</ele>
        <time>2026-08-22T00:28:07.000Z</time>
        <extensions>
          <ns3:TrackPointExtension>
            <ns3:hr>122</ns3:hr>
            <ns3:cad>0</ns3:cad>
          </ns3:TrackPointExtension>
        </extensions>
      </trkpt>
      <trkpt lat="45.2866709791123867034912109375" lon="-71.1109485290944576263427734375">
        <ele>720</ele>
        <time>2026-08-22T00:28:08.000Z</time>
        <extensions>
          <ns3:TrackPointExtension>
            <ns3:hr>122</ns3:hr>
            <ns3:cad>0</ns3:cad>
          </ns3:TrackPointExtension>
        </extensions>
      </trkpt>
      <trkpt lat="45.2866637706756591796875" lon="-71.1109636165201663970947265625">
        <ele>719.79998779296875</ele>
        <time>2026-08-22T00:28:09.000Z</time>
        <extensions>
          <ns3:TrackPointExtension>
            <ns3:hr>121</ns3:hr>
            <ns3:cad>0</ns3:cad>
          </ns3:TrackPointExtension>
        </extensions>
      </trkpt>
      <trkpt lat="45.28665295802056789398193359375" lon="-71.11097107641398906707763671875">
        <ele>719.5999755859375</ele>
        <time>2026-08-22T00:28:10.000Z</time>
        <extensions>
          <ns3:TrackPointExtension>
            <ns3:hr>122</ns3:hr>
            <ns3:cad>0</ns3:cad>
          </ns3:TrackPointExtension>
        </extensions>
      </trkpt>
      <trkpt lat="45.2866465039551258087158203125" lon="-71.1109723336994647979736328125">
        <ele>719.20001220703125</ele>
        <time>2026-08-22T00:28:11.000Z</time>
        <extensions>
          <ns3:TrackPointExtension>
            <ns3:hr>122</ns3:hr>
            <ns3:cad>0</ns3:cad>
          </ns3:TrackPointExtension>
        </extensions>
      </trkpt>
      <trkpt lat="45.2866387926042079925537109375" lon="-71.1109760217368602752685546875">
        <ele>719</ele>
        <time>2026-08-22T00:28:12.000Z</time>
        <extensions>
          <ns3:TrackPointExtension>
            <ns3:hr>122</ns3:hr>
            <ns3:cad>0</ns3:cad>
          </ns3:TrackPointExtension>
        </extensions>
      </trkpt>
      <trkpt lat="45.28663502074778079986572265625" lon="-71.110985241830348968505859375">
        <ele>718.5999755859375</ele>
        <time>2026-08-22T00:28:13.000Z</time>
        <extensions>
          <ns3:TrackPointExtension>
            <ns3:hr>123</ns3:hr>
            <ns3:cad>0</ns3:cad>
          </ns3:TrackPointExtension>
        </extensions>
      </trkpt>
      <trkpt lat="45.28663082979619503021240234375" lon="-71.1109904386103153228759765625">
        <ele>718.4000244140625</ele>
        <time>2026-08-22T00:28:14.000Z</time>
        <extensions>
          <ns3:TrackPointExtension>
            <ns3:hr>123</ns3:hr>
            <ns3:cad>0</ns3:cad>
          </ns3:TrackPointExtension>
        </extensions>
      </trkpt>
      <trkpt lat="45.2866230346262454986572265625" lon="-71.110996305942535400390625">
        <ele>718.20001220703125</ele>
        <time>2026-08-22T00:28:15.000Z</time>
        <extensions>
          <ns3:TrackPointExtension>
            <ns3:hr>123</ns3:hr>
            <ns3:cad>0</ns3:cad>
          </ns3:TrackPointExtension>
        </extensions>
      </trkpt>
      <trkpt lat="45.28661591000854969024658203125" lon="-71.1110038496553897857666015625">
        <ele>717.79998779296875</ele>
        <time>2026-08-22T00:28:16.000Z</time>
        <extensions>
          <ns3:TrackPointExtension>
            <ns3:hr>123</ns3:hr>
            <ns3:cad>0</ns3:cad>
          </ns3:TrackPointExtension>
        </extensions>
      </trkpt>
      <trkpt lat="45.286609791219234466552734375" lon="-71.11100770533084869384765625">
        <ele>717.5999755859375</ele>
        <time>2026-08-22T00:28:17.000Z</time>
        <extensions>
          <ns3:TrackPointExtension>
            <ns3:hr>123</ns3:hr>
            <ns3:cad>0</ns3:cad>
          </ns3:TrackPointExtension>
        </extensions>
      </trkpt>
      <trkpt lat="45.2865995652973651885986328125" lon="-71.1110092140734195709228515625">
        <ele>717.4000244140625</ele>
        <time>2026-08-22T00:28:18.000Z</time>
        <extensions>
          <ns3:TrackPointExtension>
            <ns3:hr>122</ns3:hr>
            <ns3:cad>0</ns3:cad>
          </ns3:TrackPointExtension>
        </extensions>
      </trkpt>
      <trkpt lat="45.28659344650804996490478515625" lon="-71.11101013608276844024658203125">
        <ele>717.20001220703125</ele>
        <time>2026-08-22T00:28:19.000Z</time>
        <extensions>
          <ns3:TrackPointExtension>
            <ns3:hr>122</ns3:hr>
            <ns3:cad>0</ns3:cad>
          </ns3:TrackPointExtension>
        </extensions>
      </trkpt>
      <trkpt lat="45.28658271767199039459228515625" lon="-71.1110169254243373870849609375">
        <ele>717</ele>
        <time>2026-08-22T00:28:20.000Z</time>
        <extensions>
          <ns3:TrackPointExtension>
            <ns3:hr>122</ns3:hr>
            <ns3:cad>0</ns3:cad>
          </ns3:TrackPointExtension>
        </extensions>
      </trkpt>
      <trkpt lat="45.28657970018684864044189453125" lon="-71.11101667396724224090576171875">
        <ele>716.79998779296875</ele>
        <time>2026-08-22T00:28:21.000Z</time>
        <extensions>
          <ns3:TrackPointExtension>
            <ns3:hr>123</ns3:hr>
            <ns3:cad>0</ns3:cad>
          </ns3:TrackPointExtension>
        </extensions>
      </trkpt>
      <trkpt lat="45.28657257556915283203125" lon="-71.11101700924336910247802734375">
        <ele>716.5999755859375</ele>
        <time>2026-08-22T00:28:22.000Z</time>
        <extensions>
          <ns3:TrackPointExtension>
            <ns3:hr>124</ns3:hr>
            <ns3:cad>0</ns3:cad>
          </ns3:TrackPointExtension>
        </extensions>
      </trkpt>
      <trkpt lat="45.28656377457082271575927734375" lon="-71.11101918853819370269775390625">
        <ele>716.20001220703125</ele>
        <time>2026-08-22T00:28:23.000Z</time>
        <extensions>
          <ns3:TrackPointExtension>
            <ns3:hr>125</ns3:hr>
            <ns3:cad>0</ns3:cad>
          </ns3:TrackPointExtension>
        </extensions>
      </trkpt>
      <trkpt lat="45.28655488975346088409423828125" lon="-71.1110236309468746185302734375">
        <ele>716</ele>
        <time>2026-08-22T00:28:24.000Z</time>
        <extensions>
          <ns3:TrackPointExtension>
            <ns3:hr>125</ns3:hr>
            <ns3:cad>0</ns3:cad>
          </ns3:TrackPointExtension>
        </extensions>
      </trkpt>
      <trkpt lat="45.28654634021222591400146484375" lon="-71.11102673225104808807373046875">
        <ele>715.5999755859375</ele>
        <time>2026-08-22T00:28:25.000Z</time>
        <extensions>
          <ns3:TrackPointExtension>
            <ns3:hr>125</ns3:hr>
            <ns3:cad>0</ns3:cad>
          </ns3:TrackPointExtension>
        </extensions>
      </trkpt>
      <trkpt lat="45.28653644956648349761962890625" lon="-71.11103050410747528076171875">
        <ele>715.20001220703125</ele>
        <time>2026-08-22T00:28:26.000Z</time>
        <extensions>
          <ns3:TrackPointExtension>
            <ns3:hr>124</ns3:hr>
            <ns3:cad>0</ns3:cad>
          </ns3:TrackPointExtension>
        </extensions>
      </trkpt>
      <trkpt lat="45.2865231223404407501220703125" lon="-71.1110370419919490814208984375">
        <ele>714.79998779296875</ele>
        <time>2026-08-22T00:28:27.000Z</time>
        <extensions>
          <ns3:TrackPointExtension>
            <ns3:hr>124</ns3:hr>
            <ns3:cad>0</ns3:cad>
          </ns3:TrackPointExtension>
        </extensions>
      </trkpt>
      <trkpt lat="45.286510549485683441162109375" lon="-71.11104416660964488983154296875">
        <ele>714.4000244140625</ele>
        <time>2026-08-22T00:28:28.000Z</time>
        <extensions>
          <ns3:TrackPointExtension>
            <ns3:hr>124</ns3:hr>
            <ns3:cad>0</ns3:cad>
          </ns3:TrackPointExtension>
        </extensions>
      </trkpt>
      <trkpt lat="45.28649856336414813995361328125" lon="-71.1110539734363555908203125">
        <ele>714.20001220703125</ele>
        <time>2026-08-22T00:28:29.000Z</time>
        <extensions>
          <ns3:TrackPointExtension>
            <ns3:hr>123</ns3:hr>
            <ns3:cad>0</ns3:cad>
          </ns3:TrackPointExtension>
        </extensions>
      </trkpt>
      <trkpt lat="45.28649303130805492401123046875" lon="-71.1110579967498779296875">
        <ele>713.79998779296875</ele>
        <time>2026-08-22T00:28:30.000Z</time>
        <extensions>
          <ns3:TrackPointExtension>
            <ns3:hr>123</ns3:hr>
            <ns3:cad>0</ns3:cad>
          </ns3:TrackPointExtension>
        </extensions>
      </trkpt>
      <trkpt lat="45.2864855714142322540283203125" lon="-71.1110621877014636993408203125">
        <ele>713.5999755859375</ele>
        <time>2026-08-22T00:28:31.000Z</time>
        <extensions>
          <ns3:TrackPointExtension>
            <ns3:hr>123</ns3:hr>
            <ns3:cad>0</ns3:cad>
          </ns3:TrackPointExtension>
        </extensions>
      </trkpt>
      <trkpt lat="45.286477692425251007080078125" lon="-71.111067049205303192138671875">
        <ele>713.4000244140625</ele>
        <time>2026-08-22T00:28:32.000Z</time>
        <extensions>
          <ns3:TrackPointExtension>
            <ns3:hr>123</ns3:hr>
            <ns3:cad>0</ns3:cad>
          </ns3:TrackPointExtension>
        </extensions>
      </trkpt>
      <trkpt lat="45.28646419756114482879638671875" lon="-71.1110658757388591766357421875">
        <ele>713.20001220703125</ele>
        <time>2026-08-22T00:28:33.000Z</time>
        <extensions>
          <ns3:TrackPointExtension>
            <ns3:hr>122</ns3:hr>
            <ns3:cad>0</ns3:cad>
          </ns3:TrackPointExtension>
        </extensions>
      </trkpt>
      <trkpt lat="45.2864550612866878509521484375" lon="-71.111069060862064361572265625">
        <ele>713.20001220703125</ele>
        <time>2026-08-22T00:28:34.000Z</time>
        <extensions>
          <ns3:TrackPointExtension>
            <ns3:hr>122</ns3:hr>
            <ns3:cad>0</ns3:cad>
          </ns3:TrackPointExtension>
        </extensions>
      </trkpt>
      <trkpt lat="45.2864424884319305419921875" lon="-71.11107744276523590087890625">
        <ele>713</ele>
        <time>2026-08-22T00:28:35.000Z</time>
        <extensions>
          <ns3:TrackPointExtension>
            <ns3:hr>122</ns3:hr>
            <ns3:cad>0</ns3:cad>
          </ns3:TrackPointExtension>
        </extensions>
      </trkpt>
      <trkpt lat="45.2864290773868560791015625" lon="-71.11107903532683849334716796875">
        <ele>713</ele>
        <time>2026-08-22T00:28:36.000Z</time>
        <extensions>
          <ns3:TrackPointExtension>
            <ns3:hr>121</ns3:hr>
            <ns3:cad>0</ns3:cad>
          </ns3:TrackPointExtension>
        </extensions>
      </trkpt>
      <trkpt lat="45.2864218689501285552978515625" lon="-71.11107836477458477020263671875">
        <ele>713</ele>
        <time>2026-08-22T00:28:37.000Z</time>
        <extensions>
          <ns3:TrackPointExtension>
            <ns3:hr>120</ns3:hr>
            <ns3:cad>0</ns3:cad>
          </ns3:TrackPointExtension>
        </extensions>
      </trkpt>
      <trkpt lat="45.28641005046665668487548828125" lon="-71.1110781133174896240234375">
        <ele>713</ele>
        <time>2026-08-22T00:28:38.000Z</time>
        <extensions>
          <ns3:TrackPointExtension>
            <ns3:hr>120</ns3:hr>
            <ns3:cad>0</ns3:cad>
          </ns3:TrackPointExtension>
        </extensions>
      </trkpt>
      <trkpt lat="45.28639798052608966827392578125" lon="-71.1110789515078067779541015625">
        <ele>713</ele>
        <time>2026-08-22T00:28:39.000Z</time>
        <extensions>
          <ns3:TrackPointExtension>
            <ns3:hr>120</ns3:hr>
            <ns3:cad>0</ns3:cad>
          </ns3:TrackPointExtension>
        </extensions>
      </trkpt>
      <trkpt lat="45.2863859944045543670654296875" lon="-71.11107970587909221649169921875">
        <ele>713.20001220703125</ele>
        <time>2026-08-22T00:28:40.000Z</time>
        <extensions>
          <ns3:TrackPointExtension>
            <ns3:hr>119</ns3:hr>
            <ns3:cad>0</ns3:cad>
          </ns3:TrackPointExtension>
        </extensions>
      </trkpt>
      <trkpt lat="45.28637132607400417327880859375" lon="-71.11108071170747280120849609375">
        <ele>713.20001220703125</ele>
        <time>2026-08-22T00:28:41.000Z</time>
        <extensions>
          <ns3:TrackPointExtension>
            <ns3:hr>120</ns3:hr>
            <ns3:cad>0</ns3:cad>
          </ns3:TrackPointExtension>
        </extensions>
      </trkpt>
      <trkpt lat="45.28636193834245204925537109375" lon="-71.11108104698359966278076171875">
        <ele>713.20001220703125</ele>
        <time>2026-08-22T00:28:42.000Z</time>
        <extensions>
          <ns3:TrackPointExtension>
            <ns3:hr>119</ns3:hr>
            <ns3:cad>0</ns3:cad>
          </ns3:TrackPointExtension>
        </extensions>
      </trkpt>
      <trkpt lat="45.28635741211473941802978515625" lon="-71.1110762692987918853759765625">
        <ele>713.4000244140625</ele>
        <time>2026-08-22T00:28:43.000Z</time>
        <extensions>
          <ns3:TrackPointExtension>
            <ns3:hr>119</ns3:hr>
            <ns3:cad>0</ns3:cad>
          </ns3:TrackPointExtension>
        </extensions>
      </trkpt>
      <trkpt lat="45.28634567745029926300048828125" lon="-71.111075766384601593017578125">
        <ele>713.4000244140625</ele>
        <time>2026-08-22T00:28:44.000Z</time>
        <extensions>
          <ns3:TrackPointExtension>
            <ns3:hr>119</ns3:hr>
            <ns3:cad>0</ns3:cad>
          </ns3:TrackPointExtension>
        </extensions>
      </trkpt>
      <trkpt lat="45.2863311767578125" lon="-71.1110752634704113006591796875">
        <ele>713.4000244140625</ele>
        <time>2026-08-22T00:28:45.000Z</time>
        <extensions>
          <ns3:TrackPointExtension>
            <ns3:hr>118</ns3:hr>
            <ns3:cad>0</ns3:cad>
          </ns3:TrackPointExtension>
        </extensions>
      </trkpt>
      <trkpt lat="45.28632522560656070709228515625" lon="-71.11107484437525272369384765625">
        <ele>713.4000244140625</ele>
        <time>2026-08-22T00:28:46.000Z</time>
        <extensions>
          <ns3:TrackPointExtension>
            <ns3:hr>118</ns3:hr>
            <ns3:cad>0</ns3:cad>
          </ns3:TrackPointExtension>
        </extensions>
      </trkpt>
      <trkpt lat="45.28631617315113544464111328125" lon="-71.111075095832347869873046875">
        <ele>713.5999755859375</ele>
        <time>2026-08-22T00:28:47.000Z</time>
        <extensions>
          <ns3:TrackPointExtension>
            <ns3:hr>117</ns3:hr>
            <ns3:cad>0</ns3:cad>
          </ns3:TrackPointExtension>
        </extensions>
      </trkpt>
      <trkpt lat="45.286301672458648681640625" lon="-71.111079789698123931884765625">
        <ele>713.5999755859375</ele>
        <time>2026-08-22T00:28:48.000Z</time>
        <extensions>
          <ns3:TrackPointExtension>
            <ns3:hr>117</ns3:hr>
            <ns3:cad>0</ns3:cad>
          </ns3:TrackPointExtension>
        </extensions>
      </trkpt>
      <trkpt lat="45.286294631659984588623046875" lon="-71.11108372919261455535888671875">
        <ele>713.79998779296875</ele>
        <time>2026-08-22T00:28:49.000Z</time>
        <extensions>
          <ns3:TrackPointExtension>
            <ns3:hr>117</ns3:hr>
            <ns3:cad>0</ns3:cad>
          </ns3:TrackPointExtension>
        </extensions>
      </trkpt>
      <trkpt lat="45.28628624975681304931640625" lon="-71.11108683049678802490234375">
        <ele>713.79998779296875</ele>
        <time>2026-08-22T00:28:50.000Z</time>
        <extensions>
          <ns3:TrackPointExtension>
            <ns3:hr>117</ns3:hr>
            <ns3:cad>0</ns3:cad>
          </ns3:TrackPointExtension>
        </extensions>
      </trkpt>
      <trkpt lat="45.286274850368499755859375" lon="-71.11108859069645404815673828125">
        <ele>713.79998779296875</ele>
        <time>2026-08-22T00:28:51.000Z</time>
        <extensions>
          <ns3:TrackPointExtension>
            <ns3:hr>116</ns3:hr>
            <ns3:cad>0</ns3:cad>
          </ns3:TrackPointExtension>
        </extensions>
      </trkpt>
      <trkpt lat="45.28626437298953533172607421875" lon="-71.111091189086437225341796875">
        <ele>713.79998779296875</ele>
        <time>2026-08-22T00:28:52.000Z</time>
        <extensions>
          <ns3:TrackPointExtension>
            <ns3:hr>116</ns3:hr>
            <ns3:cad>0</ns3:cad>
          </ns3:TrackPointExtension>
        </extensions>
      </trkpt>
      <trkpt lat="45.2862512134015560150146484375" lon="-71.11109512858092784881591796875">
        <ele>713.79998779296875</ele>
        <time>2026-08-22T00:28:53.000Z</time>
        <extensions>
          <ns3:TrackPointExtension>
            <ns3:hr>116</ns3:hr>
            <ns3:cad>0</ns3:cad>
          </ns3:TrackPointExtension>
        </extensions>
      </trkpt>
      <trkpt lat="45.28624291531741619110107421875" lon="-71.1111047677695751190185546875">
        <ele>713.79998779296875</ele>
        <time>2026-08-22T00:28:54.000Z</time>
        <extensions>
          <ns3:TrackPointExtension>
            <ns3:hr>116</ns3:hr>
            <ns3:cad>0</ns3:cad>
          </ns3:TrackPointExtension>
        </extensions>
      </trkpt>
      <trkpt lat="45.28623620979487895965576171875" lon="-71.1111185140907764434814453125">
        <ele>713.79998779296875</ele>
        <time>2026-08-22T00:28:55.000Z</time>
        <extensions>
          <ns3:TrackPointExtension>
            <ns3:hr>116</ns3:hr>
            <ns3:cad>0</ns3:cad>
          </ns3:TrackPointExtension>
        </extensions>
      </trkpt>
      <trkpt lat="45.28622992336750030517578125" lon="-71.111130751669406890869140625">
        <ele>713.79998779296875</ele>
        <time>2026-08-22T00:28:56.000Z</time>
        <extensions>
          <ns3:TrackPointExtension>
            <ns3:hr>116</ns3:hr>
            <ns3:cad>0</ns3:cad>
          </ns3:TrackPointExtension>
        </extensions>
      </trkpt>
      <trkpt lat="45.28622631914913654327392578125" lon="-71.11113385297358036041259765625">
        <ele>714</ele>
        <time>2026-08-22T00:28:57.000Z</time>
        <extensions>
          <ns3:TrackPointExtension>
            <ns3:hr>116</ns3:hr>
            <ns3:cad>0</ns3:cad>
          </ns3:TrackPointExtension>
        </extensions>
      </trkpt>
      <trkpt lat="45.28621810488402843475341796875" lon="-71.111141480505466461181640625">
        <ele>714</ele>
        <time>2026-08-22T00:28:58.000Z</time>
        <extensions>
          <ns3:TrackPointExtension>
            <ns3:hr>116</ns3:hr>
            <ns3:cad>0</ns3:cad>
          </ns3:TrackPointExtension>
        </extensions>
      </trkpt>
      <trkpt lat="45.286209471523761749267578125" lon="-71.111147515475749969482421875">
        <ele>714</ele>
        <time>2026-08-22T00:28:59.000Z</time>
        <extensions>
          <ns3:TrackPointExtension>
            <ns3:hr>116</ns3:hr>
            <ns3:cad>0</ns3:cad>
          </ns3:TrackPointExtension>
        </extensions>
      </trkpt>
      <trkpt lat="45.28619999997317790985107421875" lon="-71.11115363426506519317626953125">
        <ele>714</ele>
        <time>2026-08-22T00:29:00.000Z</time>
        <extensions>
          <ns3:TrackPointExtension>
            <ns3:hr>116</ns3:hr>
            <ns3:cad>0</ns3:cad>
          </ns3:TrackPointExtension>
        </extensions>
      </trkpt>
      <trkpt lat="45.28618558309972286224365234375" lon="-71.1111604236066341400146484375">
        <ele>714</ele>
        <time>2026-08-22T00:29:01.000Z</time>
        <extensions>
          <ns3:TrackPointExtension>
            <ns3:hr>116</ns3:hr>
            <ns3:cad>0</ns3:cad>
          </ns3:TrackPointExtension>
        </extensions>
      </trkpt>
      <trkpt lat="45.2861808054149150848388671875" lon="-71.111167967319488525390625">
        <ele>714</ele>
        <time>2026-08-22T00:29:02.000Z</time>
        <extensions>
          <ns3:TrackPointExtension>
            <ns3:hr>117</ns3:hr>
            <ns3:cad>0</ns3:cad>
          </ns3:TrackPointExtension>
        </extensions>
      </trkpt>
      <trkpt lat="45.2861769497394561767578125" lon="-71.1111785285174846649169921875">
        <ele>714</ele>
        <time>2026-08-22T00:29:03.000Z</time>
        <extensions>
          <ns3:TrackPointExtension>
            <ns3:hr>116</ns3:hr>
            <ns3:cad>0</ns3:cad>
          </ns3:TrackPointExtension>
        </extensions>
      </trkpt>
      <trkpt lat="45.28617870993912220001220703125" lon="-71.11117810942232608795166015625">
        <ele>714</ele>
        <time>2026-08-22T00:29:04.000Z</time>
        <extensions>
          <ns3:TrackPointExtension>
            <ns3:hr>116</ns3:hr>
            <ns3:cad>0</ns3:cad>
          </ns3:TrackPointExtension>
        </extensions>
      </trkpt>
      <trkpt lat="45.2861791290342807769775390625" lon="-71.1111773550510406494140625">
        <ele>714.20001220703125</ele>
        <time>2026-08-22T00:29:05.000Z</time>
        <extensions>
          <ns3:TrackPointExtension>
            <ns3:hr>116</ns3:hr>
            <ns3:cad>0</ns3:cad>
          </ns3:TrackPointExtension>
        </extensions>
      </trkpt>
      <trkpt lat="45.28617736883461475372314453125" lon="-71.11117525957524776458740234375">
        <ele>714.20001220703125</ele>
        <time>2026-08-22T00:29:06.000Z</time>
        <extensions>
          <ns3:TrackPointExtension>
            <ns3:hr>116</ns3:hr>
            <ns3:cad>0</ns3:cad>
          </ns3:TrackPointExtension>
        </extensions>
      </trkpt>
      <trkpt lat="45.28617619536817073822021484375" lon="-71.11117391847074031829833984375">
        <ele>714.20001220703125</ele>
        <time>2026-08-22T00:29:07.000Z</time>
        <extensions>
          <ns3:TrackPointExtension>
            <ns3:hr>117</ns3:hr>
            <ns3:cad>0</ns3:cad>
          </ns3:TrackPointExtension>
        </extensions>
      </trkpt>
      <trkpt lat="45.28617971576750278472900390625" lon="-71.11117911525070667266845703125">
        <ele>714.20001220703125</ele>
        <time>2026-08-22T00:29:08.000Z</time>
        <extensions>
          <ns3:TrackPointExtension>
            <ns3:hr>117</ns3:hr>
            <ns3:cad>0</ns3:cad>
          </ns3:TrackPointExtension>
        </extensions>
      </trkpt>
      <trkpt lat="45.28618172742426395416259765625" lon="-71.111180372536182403564453125">
        <ele>714.20001220703125</ele>
        <time>2026-08-22T00:29:09.000Z</time>
        <extensions>
          <ns3:TrackPointExtension>
            <ns3:hr>118</ns3:hr>
            <ns3:cad>0</ns3:cad>
          </ns3:TrackPointExtension>
        </extensions>
      </trkpt>
      <trkpt lat="45.28618172742426395416259765625" lon="-71.111180372536182403564453125">
        <ele>714</ele>
        <time>2026-08-22T00:29:10.000Z</time>
        <extensions>
          <ns3:TrackPointExtension>
            <ns3:hr>118</ns3:hr>
            <ns3:cad>0</ns3:cad>
          </ns3:TrackPointExtension>
        </extensions>
      </trkpt>
      <trkpt lat="45.28618172742426395416259765625" lon="-71.111180372536182403564453125">
        <ele>714</ele>
        <time>2026-08-22T00:29:11.000Z</time>
        <extensions>
          <ns3:TrackPointExtension>
            <ns3:hr>118</ns3:hr>
            <ns3:cad>0</ns3:cad>
          </ns3:TrackPointExtension>
        </extensions>
      </trkpt>
      <trkpt lat="45.28618172742426395416259765625" lon="-71.111180372536182403564453125">
        <ele>714</ele>
        <time>2026-08-22T00:29:12.000Z</time>
        <extensions>
          <ns3:TrackPointExtension>
            <ns3:hr>118</ns3:hr>
            <ns3:cad>0</ns3:cad>
          </ns3:TrackPointExtension>
        </extensions>
      </trkpt>
      <trkpt lat="45.28618172742426395416259765625" lon="-71.111180372536182403564453125">
        <ele>714</ele>
        <time>2026-08-22T00:29:13.000Z</time>
        <extensions>
          <ns3:TrackPointExtension>
            <ns3:hr>118</ns3:hr>
            <ns3:cad>0</ns3:cad>
          </ns3:TrackPointExtension>
        </extensions>
      </trkpt>
      <trkpt lat="45.28618172742426395416259765625" lon="-71.111180372536182403564453125">
        <ele>714</ele>
        <time>2026-08-22T00:29:14.000Z</time>
        <extensions>
          <ns3:TrackPointExtension>
            <ns3:hr>118</ns3:hr>
            <ns3:cad>0</ns3:cad>
          </ns3:TrackPointExtension>
        </extensions>
      </trkpt>
      <trkpt lat="45.28618172742426395416259765625" lon="-71.111180372536182403564453125">
        <ele>714</ele>
        <time>2026-08-22T00:29:15.000Z</time>
        <extensions>
          <ns3:TrackPointExtension>
            <ns3:hr>118</ns3:hr>
            <ns3:cad>0</ns3:cad>
          </ns3:TrackPointExtension>
        </extensions>
      </trkpt>
      <trkpt lat="45.28618172742426395416259765625" lon="-71.111180372536182403564453125">
        <ele>714.20001220703125</ele>
        <time>2026-08-22T00:29:16.000Z</time>
        <extensions>
          <ns3:TrackPointExtension>
            <ns3:hr>118</ns3:hr>
            <ns3:cad>0</ns3:cad>
          </ns3:TrackPointExtension>
        </extensions>
      </trkpt>
      <trkpt lat="45.28618172742426395416259765625" lon="-71.111180372536182403564453125">
        <ele>714.20001220703125</ele>
        <time>2026-08-22T00:29:17.000Z</time>
        <extensions>
          <ns3:TrackPointExtension>
            <ns3:hr>118</ns3:hr>
            <ns3:cad>0</ns3:cad>
          </ns3:TrackPointExtension>
        </extensions>
      </trkpt>
      <trkpt lat="45.28618172742426395416259765625" lon="-71.111180372536182403564453125">
        <ele>714.20001220703125</ele>
        <time>2026-08-22T00:29:18.000Z</time>
        <extensions>
          <ns3:TrackPointExtension>
            <ns3:hr>117</ns3:hr>
            <ns3:cad>0</ns3:cad>
          </ns3:TrackPointExtension>
        </extensions>
      </trkpt>
      <trkpt lat="45.28618172742426395416259765625" lon="-71.111180372536182403564453125">
        <ele>714.20001220703125</ele>
        <time>2026-08-22T00:29:19.000Z</time>
        <extensions>
          <ns3:TrackPointExtension>
            <ns3:hr>117</ns3:hr>
            <ns3:cad>0</ns3:cad>
          </ns3:TrackPointExtension>
        </extensions>
      </trkpt>
      <trkpt lat="45.28618172742426395416259765625" lon="-71.111180372536182403564453125">
        <ele>714.20001220703125</ele>
        <time>2026-08-22T00:29:20.000Z</time>
        <extensions>
          <ns3:TrackPointExtension>
            <ns3:hr>117</ns3:hr>
            <ns3:cad>0</ns3:cad>
          </ns3:TrackPointExtension>
        </extensions>
      </trkpt>
      <trkpt lat="45.2861868403851985931396484375" lon="-71.1111852340400218963623046875">
        <ele>714.20001220703125</ele>
        <time>2026-08-22T00:29:21.000Z</time>
        <extensions>
          <ns3:TrackPointExtension>
            <ns3:hr>118</ns3:hr>
            <ns3:cad>0</ns3:cad>
          </ns3:TrackPointExtension>
        </extensions>
      </trkpt>
      <trkpt lat="45.286205112934112548828125" lon="-71.1111885868012905120849609375">
        <ele>714.20001220703125</ele>
        <time>2026-08-22T00:29:22.000Z</time>
        <extensions>
          <ns3:TrackPointExtension>
            <ns3:hr>118</ns3:hr>
            <ns3:cad>0</ns3:cad>
          </ns3:TrackPointExtension>
        </extensions>
      </trkpt>
      <trkpt lat="45.28621709905564785003662109375" lon="-71.11118833534419536590576171875">
        <ele>714.20001220703125</ele>
        <time>2026-08-22T00:29:23.000Z</time>
        <extensions>
          <ns3:TrackPointExtension>
            <ns3:hr>118</ns3:hr>
            <ns3:cad>0</ns3:cad>
          </ns3:TrackPointExtension>
        </extensions>
      </trkpt>
      <trkpt lat="45.28622849844396114349365234375" lon="-71.1111859045922756195068359375">
        <ele>714.20001220703125</ele>
        <time>2026-08-22T00:29:24.000Z</time>
        <extensions>
          <ns3:TrackPointExtension>
            <ns3:hr>117</ns3:hr>
            <ns3:cad>0</ns3:cad>
          </ns3:TrackPointExtension>
        </extensions>
      </trkpt>
      <trkpt lat="45.28624107129871845245361328125" lon="-71.111176349222660064697265625">
        <ele>714.20001220703125</ele>
        <time>2026-08-22T00:29:25.000Z</time>
        <extensions>
          <ns3:TrackPointExtension>
            <ns3:hr>117</ns3:hr>
            <ns3:cad>0</ns3:cad>
          </ns3:TrackPointExtension>
        </extensions>
      </trkpt>
      <trkpt lat="45.2862441726028919219970703125" lon="-71.11116671003401279449462890625">
        <ele>714.20001220703125</ele>
        <time>2026-08-22T00:29:26.000Z</time>
        <extensions>
          <ns3:TrackPointExtension>
            <ns3:hr>118</ns3:hr>
            <ns3:cad>0</ns3:cad>
          </ns3:TrackPointExtension>
        </extensions>
      </trkpt>
      <trkpt lat="45.28624710626900196075439453125" lon="-71.11116218380630016326904296875">
        <ele>714</ele>
        <time>2026-08-22T00:29:27.000Z</time>
        <extensions>
          <ns3:TrackPointExtension>
            <ns3:hr>119</ns3:hr>
            <ns3:cad>0</ns3:cad>
          </ns3:TrackPointExtension>
        </extensions>
      </trkpt>
      <trkpt lat="45.2862478606402873992919921875" lon="-71.11116251908242702484130859375">
        <ele>714</ele>
        <time>2026-08-22T00:29:28.000Z</time>
        <extensions>
          <ns3:TrackPointExtension>
            <ns3:hr>119</ns3:hr>
            <ns3:cad>0</ns3:cad>
          </ns3:TrackPointExtension>
        </extensions>
      </trkpt>
      <trkpt lat="45.2862535603344440460205078125" lon="-71.111158244311809539794921875">
        <ele>714</ele>
        <time>2026-08-22T00:29:29.000Z</time>
        <extensions>
          <ns3:TrackPointExtension>
            <ns3:hr>119</ns3:hr>
            <ns3:cad>0</ns3:cad>
          </ns3:TrackPointExtension>
        </extensions>
      </trkpt>
      <trkpt lat="45.286259762942790985107421875" lon="-71.11115313135087490081787109375">
        <ele>714</ele>
        <time>2026-08-22T00:29:30.000Z</time>
        <extensions>
          <ns3:TrackPointExtension>
            <ns3:hr>120</ns3:hr>
            <ns3:cad>0</ns3:cad>
          </ns3:TrackPointExtension>
        </extensions>
      </trkpt>
      <trkpt lat="45.28626403771340847015380859375" lon="-71.111147515475749969482421875">
        <ele>714</ele>
        <time>2026-08-22T00:29:31.000Z</time>
        <extensions>
          <ns3:TrackPointExtension>
            <ns3:hr>120</ns3:hr>
            <ns3:cad>0</ns3:cad>
          </ns3:TrackPointExtension>
        </extensions>
      </trkpt>
      <trkpt lat="45.28626772575080394744873046875" lon="-71.1111398041248321533203125">
        <ele>714</ele>
        <time>2026-08-22T00:29:32.000Z</time>
        <extensions>
          <ns3:TrackPointExtension>
            <ns3:hr>119</ns3:hr>
            <ns3:cad>0</ns3:cad>
          </ns3:TrackPointExtension>
        </extensions>
      </trkpt>
      <trkpt lat="45.28626789338886737823486328125" lon="-71.111140139400959014892578125">
        <ele>713.79998779296875</ele>
        <time>2026-08-22T00:29:33.000Z</time>
        <extensions>
          <ns3:TrackPointExtension>
            <ns3:hr>119</ns3:hr>
            <ns3:cad>0</ns3:cad>
          </ns3:TrackPointExtension>
        </extensions>
      </trkpt>
      <trkpt lat="45.286269821226596832275390625" lon="-71.1111436598002910614013671875">
        <ele>713.79998779296875</ele>
        <time>2026-08-22T00:29:34.000Z</time>
        <extensions>
          <ns3:TrackPointExtension>
            <ns3:hr>119</ns3:hr>
            <ns3:cad>0</ns3:cad>
          </ns3:TrackPointExtension>
        </extensions>
      </trkpt>
      <trkpt lat="45.28627392835915088653564453125" lon="-71.11114424653351306915283203125">
        <ele>713.79998779296875</ele>
        <time>2026-08-22T00:29:35.000Z</time>
        <extensions>
          <ns3:TrackPointExtension>
            <ns3:hr>119</ns3:hr>
            <ns3:cad>0</ns3:cad>
          </ns3:TrackPointExtension>
        </extensions>
      </trkpt>
      <trkpt lat="45.286276526749134063720703125" lon="-71.111143492162227630615234375">
        <ele>714</ele>
        <time>2026-08-22T00:29:36.000Z</time>
        <extensions>
          <ns3:TrackPointExtension>
            <ns3:hr>119</ns3:hr>
            <ns3:cad>0</ns3:cad>
          </ns3:TrackPointExtension>
        </extensions>
      </trkpt>
      <trkpt lat="45.28627225197851657867431640625" lon="-71.11114894039928913116455078125">
        <ele>714</ele>
        <time>2026-08-22T00:29:37.000Z</time>
        <extensions>
          <ns3:TrackPointExtension>
            <ns3:hr>119</ns3:hr>
            <ns3:cad>0</ns3:cad>
          </ns3:TrackPointExtension>
        </extensions>
      </trkpt>
      <trkpt lat="45.28626940213143825531005859375" lon="-71.1111527122557163238525390625">
        <ele>714</ele>
        <time>2026-08-22T00:29:38.000Z</time>
        <extensions>
          <ns3:TrackPointExtension>
            <ns3:hr>119</ns3:hr>
            <ns3:cad>0</ns3:cad>
          </ns3:TrackPointExtension>
        </extensions>
      </trkpt>
      <trkpt lat="45.28626739047467708587646484375" lon="-71.1111532151699066162109375">
        <ele>714</ele>
        <time>2026-08-22T00:29:39.000Z</time>
        <extensions>
          <ns3:TrackPointExtension>
            <ns3:hr>119</ns3:hr>
            <ns3:cad>0</ns3:cad>
          </ns3:TrackPointExtension>
        </extensions>
      </trkpt>
      <trkpt lat="45.2862622775137424468994140625" lon="-71.11115748994052410125732421875">
        <ele>714</ele>
        <time>2026-08-22T00:29:40.000Z</time>
        <extensions>
          <ns3:TrackPointExtension>
            <ns3:hr>119</ns3:hr>
            <ns3:cad>0</ns3:cad>
          </ns3:TrackPointExtension>
        </extensions>
      </trkpt>
      <trkpt lat="45.2862632833421230316162109375" lon="-71.11116369254887104034423828125">
        <ele>714</ele>
        <time>2026-08-22T00:29:41.000Z</time>
        <extensions>
          <ns3:TrackPointExtension>
            <ns3:hr>119</ns3:hr>
            <ns3:cad>0</ns3:cad>
          </ns3:TrackPointExtension>
        </extensions>
      </trkpt>
      <trkpt lat="45.2862649597227573394775390625" lon="-71.1111771874129772186279296875">
        <ele>714</ele>
        <time>2026-08-22T00:29:42.000Z</time>
        <extensions>
          <ns3:TrackPointExtension>
            <ns3:hr>119</ns3:hr>
            <ns3:cad>43</ns3:cad>
          </ns3:TrackPointExtension>
        </extensions>
      </trkpt>
      <trkpt lat="45.286266803741455078125" lon="-71.11119302920997142791748046875">
        <ele>714</ele>
        <time>2026-08-22T00:29:43.000Z</time>
        <extensions>
          <ns3:TrackPointExtension>
            <ns3:hr>118</ns3:hr>
            <ns3:cad>43</ns3:cad>
          </ns3:TrackPointExtension>
        </extensions>
      </trkpt>
      <trkpt lat="45.28627091087400913238525390625" lon="-71.1112013272941112518310546875">
        <ele>713.79998779296875</ele>
        <time>2026-08-22T00:29:44.000Z</time>
        <extensions>
          <ns3:TrackPointExtension>
            <ns3:hr>118</ns3:hr>
            <ns3:cad>43</ns3:cad>
          </ns3:TrackPointExtension>
        </extensions>
      </trkpt>
      <trkpt lat="45.2862736769020557403564453125" lon="-71.1112103797495365142822265625">
        <ele>713.79998779296875</ele>
        <time>2026-08-22T00:29:45.000Z</time>
        <extensions>
          <ns3:TrackPointExtension>
            <ns3:hr>117</ns3:hr>
            <ns3:cad>43</ns3:cad>
          </ns3:TrackPointExtension>
        </extensions>
      </trkpt>
      <trkpt lat="45.28627661056816577911376953125" lon="-71.1112122237682342529296875">
        <ele>713.79998779296875</ele>
        <time>2026-08-22T00:29:46.000Z</time>
        <extensions>
          <ns3:TrackPointExtension>
            <ns3:hr>112</ns3:hr>
            <ns3:cad>0</ns3:cad>
          </ns3:TrackPointExtension>
        </extensions>
      </trkpt>
      <trkpt lat="45.28627594001591205596923828125" lon="-71.11121289432048797607421875">
        <ele>713.79998779296875</ele>
        <time>2026-08-22T00:29:47.000Z</time>
        <extensions>
          <ns3:TrackPointExtension>
            <ns3:hr>109</ns3:hr>
            <ns3:cad>0</ns3:cad>
          </ns3:TrackPointExtension>
        </extensions>
      </trkpt>
      <trkpt lat="45.28627820312976837158203125" lon="-71.11122219823300838470458984375">
        <ele>713.79998779296875</ele>
        <time>2026-08-22T00:29:48.000Z</time>
        <extensions>
          <ns3:TrackPointExtension>
            <ns3:hr>108</ns3:hr>
            <ns3:cad>0</ns3:cad>
          </ns3:TrackPointExtension>
        </extensions>
      </trkpt>
      <trkpt lat="45.28628331609070301055908203125" lon="-71.11122672446072101593017578125">
        <ele>713.79998779296875</ele>
        <time>2026-08-22T00:29:49.000Z</time>
        <extensions>
          <ns3:TrackPointExtension>
            <ns3:hr>108</ns3:hr>
            <ns3:cad>0</ns3:cad>
          </ns3:TrackPointExtension>
        </extensions>
      </trkpt>
      <trkpt lat="45.2862844057381153106689453125" lon="-71.11122974194586277008056640625">
        <ele>713.5999755859375</ele>
        <time>2026-08-22T00:29:50.000Z</time>
        <extensions>
          <ns3:TrackPointExtension>
            <ns3:hr>108</ns3:hr>
            <ns3:cad>0</ns3:cad>
          </ns3:TrackPointExtension>
        </extensions>
      </trkpt>
      <trkpt lat="45.286284573376178741455078125" lon="-71.11122957430779933929443359375">
        <ele>713.5999755859375</ele>
        <time>2026-08-22T00:29:51.000Z</time>
        <extensions>
          <ns3:TrackPointExtension>
            <ns3:hr>108</ns3:hr>
            <ns3:cad>0</ns3:cad>
          </ns3:TrackPointExtension>
        </extensions>
      </trkpt>
      <trkpt lat="45.2862827293574810028076171875" lon="-71.111228652298450469970703125">
        <ele>713.79998779296875</ele>
        <time>2026-08-22T00:29:52.000Z</time>
        <extensions>
          <ns3:TrackPointExtension>
            <ns3:hr>107</ns3:hr>
            <ns3:cad>0</ns3:cad>
          </ns3:TrackPointExtension>
        </extensions>
      </trkpt>
      <trkpt lat="45.28628281317651271820068359375" lon="-71.11121867783367633819580078125">
        <ele>713.79998779296875</ele>
        <time>2026-08-22T00:29:53.000Z</time>
        <extensions>
          <ns3:TrackPointExtension>
            <ns3:hr>107</ns3:hr>
            <ns3:cad>0</ns3:cad>
          </ns3:TrackPointExtension>
        </extensions>
      </trkpt>
      <trkpt lat="45.28628800995647907257080078125" lon="-71.11121046356856822967529296875">
        <ele>713.79998779296875</ele>
        <time>2026-08-22T00:29:54.000Z</time>
        <extensions>
          <ns3:TrackPointExtension>
            <ns3:hr>106</ns3:hr>
            <ns3:cad>0</ns3:cad>
          </ns3:TrackPointExtension>
        </extensions>
      </trkpt>
      <trkpt lat="45.28628826141357421875" lon="-71.11120526678860187530517578125">
        <ele>713.79998779296875</ele>
        <time>2026-08-22T00:29:55.000Z</time>
        <extensions>
          <ns3:TrackPointExtension>
            <ns3:hr>107</ns3:hr>
            <ns3:cad>0</ns3:cad>
          </ns3:TrackPointExtension>
        </extensions>
      </trkpt>
      <trkpt lat="45.28628750704228878021240234375" lon="-71.1112053506076335906982421875">
        <ele>714</ele>
        <time>2026-08-22T00:29:56.000Z</time>
        <extensions>
          <ns3:TrackPointExtension>
            <ns3:hr>107</ns3:hr>
            <ns3:cad>0</ns3:cad>
          </ns3:TrackPointExtension>
        </extensions>
      </trkpt>
      <trkpt lat="45.28628750704228878021240234375" lon="-71.1112053506076335906982421875">
        <ele>713.79998779296875</ele>
        <time>2026-08-22T00:29:57.000Z</time>
        <extensions>
          <ns3:TrackPointExtension>
            <ns3:hr>107</ns3:hr>
            <ns3:cad>0</ns3:cad>
          </ns3:TrackPointExtension>
        </extensions>
      </trkpt>
      <trkpt lat="45.28628750704228878021240234375" lon="-71.1112053506076335906982421875">
        <ele>713.79998779296875</ele>
        <time>2026-08-22T00:29:58.000Z</time>
        <extensions>
          <ns3:TrackPointExtension>
            <ns3:hr>107</ns3:hr>
            <ns3:cad>0</ns3:cad>
          </ns3:TrackPointExtension>
        </extensions>
      </trkpt>
      <trkpt lat="45.28628750704228878021240234375" lon="-71.1112053506076335906982421875">
        <ele>713.79998779296875</ele>
        <time>2026-08-22T00:29:59.000Z</time>
        <extensions>
          <ns3:TrackPointExtension>
            <ns3:hr>106</ns3:hr>
            <ns3:cad>0</ns3:cad>
          </ns3:TrackPointExtension>
        </extensions>
      </trkpt>
      <trkpt lat="45.28628750704228878021240234375" lon="-71.1112053506076335906982421875">
        <ele>713.79998779296875</ele>
        <time>2026-08-22T00:30:00.000Z</time>
        <extensions>
          <ns3:TrackPointExtension>
            <ns3:hr>106</ns3:hr>
            <ns3:cad>0</ns3:cad>
          </ns3:TrackPointExtension>
        </extensions>
      </trkpt>
      <trkpt lat="45.28628750704228878021240234375" lon="-71.1112053506076335906982421875">
        <ele>713.79998779296875</ele>
        <time>2026-08-22T00:30:01.000Z</time>
        <extensions>
          <ns3:TrackPointExtension>
            <ns3:hr>106</ns3:hr>
            <ns3:cad>0</ns3:cad>
          </ns3:TrackPointExtension>
        </extensions>
      </trkpt>
      <trkpt lat="45.28628750704228878021240234375" lon="-71.1112053506076335906982421875">
        <ele>713.79998779296875</ele>
        <time>2026-08-22T00:30:02.000Z</time>
        <extensions>
          <ns3:TrackPointExtension>
            <ns3:hr>106</ns3:hr>
            <ns3:cad>0</ns3:cad>
          </ns3:TrackPointExtension>
        </extensions>
      </trkpt>
      <trkpt lat="45.28628750704228878021240234375" lon="-71.1112053506076335906982421875">
        <ele>713.79998779296875</ele>
        <time>2026-08-22T00:30:03.000Z</time>
        <extensions>
          <ns3:TrackPointExtension>
            <ns3:hr>106</ns3:hr>
            <ns3:cad>0</ns3:cad>
          </ns3:TrackPointExtension>
        </extensions>
      </trkpt>
      <trkpt lat="45.28628750704228878021240234375" lon="-71.1112053506076335906982421875">
        <ele>713.79998779296875</ele>
        <time>2026-08-22T00:30:04.000Z</time>
        <extensions>
          <ns3:TrackPointExtension>
            <ns3:hr>106</ns3:hr>
            <ns3:cad>0</ns3:cad>
          </ns3:TrackPointExtension>
        </extensions>
      </trkpt>
      <trkpt lat="45.286285579204559326171875" lon="-71.11120191402733325958251953125">
        <ele>713.79998779296875</ele>
        <time>2026-08-22T00:30:05.000Z</time>
        <extensions>
          <ns3:TrackPointExtension>
            <ns3:hr>106</ns3:hr>
            <ns3:cad>0</ns3:cad>
          </ns3:TrackPointExtension>
        </extensions>
      </trkpt>
      <trkpt lat="45.28628080151975154876708984375" lon="-71.11117945052683353424072265625">
        <ele>713.79998779296875</ele>
        <time>2026-08-22T00:30:06.000Z</time>
        <extensions>
          <ns3:TrackPointExtension>
            <ns3:hr>106</ns3:hr>
            <ns3:cad>0</ns3:cad>
          </ns3:TrackPointExtension>
        </extensions>
      </trkpt>
      <trkpt lat="45.28627811931073665618896484375" lon="-71.1111677996814250946044921875">
        <ele>713.79998779296875</ele>
        <time>2026-08-22T00:30:07.000Z</time>
        <extensions>
          <ns3:TrackPointExtension>
            <ns3:hr>106</ns3:hr>
            <ns3:cad>0</ns3:cad>
          </ns3:TrackPointExtension>
        </extensions>
      </trkpt>
      <trkpt lat="45.28627174906432628631591796875" lon="-71.11115212552249431610107421875">
        <ele>713.79998779296875</ele>
        <time>2026-08-22T00:30:08.000Z</time>
        <extensions>
          <ns3:TrackPointExtension>
            <ns3:hr>106</ns3:hr>
            <ns3:cad>0</ns3:cad>
          </ns3:TrackPointExtension>
        </extensions>
      </trkpt>
      <trkpt lat="45.286267139017581939697265625" lon="-71.11114491708576679229736328125">
        <ele>713.79998779296875</ele>
        <time>2026-08-22T00:30:09.000Z</time>
        <extensions>
          <ns3:TrackPointExtension>
            <ns3:hr>106</ns3:hr>
            <ns3:cad>0</ns3:cad>
          </ns3:TrackPointExtension>
        </extensions>
      </trkpt>
      <trkpt lat="45.28626856394112110137939453125" lon="-71.1111406423151493072509765625">
        <ele>714</ele>
        <time>2026-08-22T00:30:10.000Z</time>
        <extensions>
          <ns3:TrackPointExtension>
            <ns3:hr>106</ns3:hr>
            <ns3:cad>43</ns3:cad>
          </ns3:TrackPointExtension>
        </extensions>
      </trkpt>
      <trkpt lat="45.2862797118723392486572265625" lon="-71.1111389659345149993896484375">
        <ele>714</ele>
        <time>2026-08-22T00:30:11.000Z</time>
        <extensions>
          <ns3:TrackPointExtension>
            <ns3:hr>106</ns3:hr>
            <ns3:cad>43</ns3:cad>
          </ns3:TrackPointExtension>
        </extensions>
      </trkpt>
      <trkpt lat="45.2862894348800182342529296875" lon="-71.11113972030580043792724609375">
        <ele>714.20001220703125</ele>
        <time>2026-08-22T00:30:12.000Z</time>
        <extensions>
          <ns3:TrackPointExtension>
            <ns3:hr>106</ns3:hr>
            <ns3:cad>43</ns3:cad>
          </ns3:TrackPointExtension>
        </extensions>
      </trkpt>
      <trkpt lat="45.28629873879253864288330078125" lon="-71.1111413128674030303955078125">
        <ele>714.20001220703125</ele>
        <time>2026-08-22T00:30:13.000Z</time>
        <extensions>
          <ns3:TrackPointExtension>
            <ns3:hr>106</ns3:hr>
            <ns3:cad>43</ns3:cad>
          </ns3:TrackPointExtension>
        </extensions>
      </trkpt>
      <trkpt lat="45.28630896471440792083740234375" lon="-71.11113485880196094512939453125">
        <ele>714.4000244140625</ele>
        <time>2026-08-22T00:30:14.000Z</time>
        <extensions>
          <ns3:TrackPointExtension>
            <ns3:hr>106</ns3:hr>
            <ns3:cad>43</ns3:cad>
          </ns3:TrackPointExtension>
        </extensions>
      </trkpt>
      <trkpt lat="45.28631935827434062957763671875" lon="-71.11113703809678554534912109375">
        <ele>714.4000244140625</ele>
        <time>2026-08-22T00:30:15.000Z</time>
        <extensions>
          <ns3:TrackPointExtension>
            <ns3:hr>106</ns3:hr>
            <ns3:cad>50</ns3:cad>
          </ns3:TrackPointExtension>
        </extensions>
      </trkpt>
      <trkpt lat="45.28632438741624355316162109375" lon="-71.11113636754453182220458984375">
        <ele>714.20001220703125</ele>
        <time>2026-08-22T00:30:16.000Z</time>
        <extensions>
          <ns3:TrackPointExtension>
            <ns3:hr>105</ns3:hr>
            <ns3:cad>50</ns3:cad>
          </ns3:TrackPointExtension>
        </extensions>
      </trkpt>
      <trkpt lat="45.2863279916346073150634765625" lon="-71.1111332662403583526611328125">
        <ele>714.20001220703125</ele>
        <time>2026-08-22T00:30:17.000Z</time>
        <extensions>
          <ns3:TrackPointExtension>
            <ns3:hr>105</ns3:hr>
            <ns3:cad>0</ns3:cad>
          </ns3:TrackPointExtension>
        </extensions>
      </trkpt>
      <trkpt lat="45.2863311767578125" lon="-71.11113502644002437591552734375">
        <ele>714.20001220703125</ele>
        <time>2026-08-22T00:30:18.000Z</time>
        <extensions>
          <ns3:TrackPointExtension>
            <ns3:hr>105</ns3:hr>
            <ns3:cad>0</ns3:cad>
          </ns3:TrackPointExtension>
        </extensions>
      </trkpt>
      <trkpt lat="45.2863484434783458709716796875" lon="-71.1111460067331790924072265625">
        <ele>714</ele>
        <time>2026-08-22T00:30:19.000Z</time>
        <extensions>
          <ns3:TrackPointExtension>
            <ns3:hr>105</ns3:hr>
            <ns3:cad>0</ns3:cad>
          </ns3:TrackPointExtension>
        </extensions>
      </trkpt>
      <trkpt lat="45.2863564901053905487060546875" lon="-71.11114718019962310791015625">
        <ele>714</ele>
        <time>2026-08-22T00:30:20.000Z</time>
        <extensions>
          <ns3:TrackPointExtension>
            <ns3:hr>104</ns3:hr>
            <ns3:cad>0</ns3:cad>
          </ns3:TrackPointExtension>
        </extensions>
      </trkpt>
      <trkpt lat="45.28636394999921321868896484375" lon="-71.11115195788443088531494140625">
        <ele>713.79998779296875</ele>
        <time>2026-08-22T00:30:21.000Z</time>
        <extensions>
          <ns3:TrackPointExtension>
            <ns3:hr>104</ns3:hr>
            <ns3:cad>0</ns3:cad>
          </ns3:TrackPointExtension>
        </extensions>
      </trkpt>
      <trkpt lat="45.286371745169162750244140625" lon="-71.111148186028003692626953125">
        <ele>713.79998779296875</ele>
        <time>2026-08-22T00:30:22.000Z</time>
        <extensions>
          <ns3:TrackPointExtension>
            <ns3:hr>104</ns3:hr>
            <ns3:cad>51</ns3:cad>
          </ns3:TrackPointExtension>
        </extensions>
      </trkpt>
      <trkpt lat="45.286377109587192535400390625" lon="-71.111149527132511138916015625">
        <ele>713.5999755859375</ele>
        <time>2026-08-22T00:30:23.000Z</time>
        <extensions>
          <ns3:TrackPointExtension>
            <ns3:hr>104</ns3:hr>
            <ns3:cad>51</ns3:cad>
          </ns3:TrackPointExtension>
        </extensions>
      </trkpt>
      <trkpt lat="45.28638021089136600494384765625" lon="-71.1111493594944477081298828125">
        <ele>713.5999755859375</ele>
        <time>2026-08-22T00:30:24.000Z</time>
        <extensions>
          <ns3:TrackPointExtension>
            <ns3:hr>104</ns3:hr>
            <ns3:cad>0</ns3:cad>
          </ns3:TrackPointExtension>
        </extensions>
      </trkpt>
      <trkpt lat="45.2863826416432857513427734375" lon="-71.11114843748509883880615234375">
        <ele>713.5999755859375</ele>
        <time>2026-08-22T00:30:25.000Z</time>
        <extensions>
          <ns3:TrackPointExtension>
            <ns3:hr>104</ns3:hr>
            <ns3:cad>0</ns3:cad>
          </ns3:TrackPointExtension>
        </extensions>
      </trkpt>
      <trkpt lat="45.2863853238523006439208984375" lon="-71.111150197684764862060546875">
        <ele>713.5999755859375</ele>
        <time>2026-08-22T00:30:26.000Z</time>
        <extensions>
          <ns3:TrackPointExtension>
            <ns3:hr>107</ns3:hr>
            <ns3:cad>0</ns3:cad>
          </ns3:TrackPointExtension>
        </extensions>
      </trkpt>
      <trkpt lat="45.2863890118896961212158203125" lon="-71.1111483536660671234130859375">
        <ele>713.5999755859375</ele>
        <time>2026-08-22T00:30:27.000Z</time>
        <extensions>
          <ns3:TrackPointExtension>
            <ns3:hr>111</ns3:hr>
            <ns3:cad>0</ns3:cad>
          </ns3:TrackPointExtension>
        </extensions>
      </trkpt>
      <trkpt lat="45.28638808988034725189208984375" lon="-71.111144833266735076904296875">
        <ele>713.5999755859375</ele>
        <time>2026-08-22T00:30:28.000Z</time>
        <extensions>
          <ns3:TrackPointExtension>
            <ns3:hr>113</ns3:hr>
            <ns3:cad>0</ns3:cad>
          </ns3:TrackPointExtension>
        </extensions>
      </trkpt>
      <trkpt lat="45.28638876043260097503662109375" lon="-71.11114449799060821533203125">
        <ele>713.5999755859375</ele>
        <time>2026-08-22T00:30:29.000Z</time>
        <extensions>
          <ns3:TrackPointExtension>
            <ns3:hr>112</ns3:hr>
            <ns3:cad>0</ns3:cad>
          </ns3:TrackPointExtension>
        </extensions>
      </trkpt>
      <trkpt lat="45.28638876043260097503662109375" lon="-71.11114449799060821533203125">
        <ele>713.5999755859375</ele>
        <time>2026-08-22T00:30:30.000Z</time>
        <extensions>
          <ns3:TrackPointExtension>
            <ns3:hr>112</ns3:hr>
            <ns3:cad>0</ns3:cad>
          </ns3:TrackPointExtension>
        </extensions>
      </trkpt>
      <trkpt lat="45.28638876043260097503662109375" lon="-71.11114449799060821533203125">
        <ele>713.5999755859375</ele>
        <time>2026-08-22T00:30:31.000Z</time>
        <extensions>
          <ns3:TrackPointExtension>
            <ns3:hr>111</ns3:hr>
            <ns3:cad>0</ns3:cad>
          </ns3:TrackPointExtension>
        </extensions>
      </trkpt>
      <trkpt lat="45.2863883413374423980712890625" lon="-71.11114441417157649993896484375">
        <ele>713.5999755859375</ele>
        <time>2026-08-22T00:30:32.000Z</time>
        <extensions>
          <ns3:TrackPointExtension>
            <ns3:hr>109</ns3:hr>
            <ns3:cad>0</ns3:cad>
          </ns3:TrackPointExtension>
        </extensions>
      </trkpt>
      <trkpt lat="45.28639093972742557525634765625" lon="-71.1111527122557163238525390625">
        <ele>713.5999755859375</ele>
        <time>2026-08-22T00:30:33.000Z</time>
        <extensions>
          <ns3:TrackPointExtension>
            <ns3:hr>108</ns3:hr>
            <ns3:cad>0</ns3:cad>
          </ns3:TrackPointExtension>
        </extensions>
      </trkpt>
      <trkpt lat="45.28639194555580615997314453125" lon="-71.111160255968570709228515625">
        <ele>713.5999755859375</ele>
        <time>2026-08-22T00:30:34.000Z</time>
        <extensions>
          <ns3:TrackPointExtension>
            <ns3:hr>108</ns3:hr>
            <ns3:cad>0</ns3:cad>
          </ns3:TrackPointExtension>
        </extensions>
      </trkpt>
      <trkpt lat="45.286392532289028167724609375" lon="-71.11116620711982250213623046875">
        <ele>713.4000244140625</ele>
        <time>2026-08-22T00:30:35.000Z</time>
        <extensions>
          <ns3:TrackPointExtension>
            <ns3:hr>107</ns3:hr>
            <ns3:cad>0</ns3:cad>
          </ns3:TrackPointExtension>
        </extensions>
      </trkpt>
      <trkpt lat="45.28639362193644046783447265625" lon="-71.1111748404800891876220703125">
        <ele>713.4000244140625</ele>
        <time>2026-08-22T00:30:36.000Z</time>
        <extensions>
          <ns3:TrackPointExtension>
            <ns3:hr>106</ns3:hr>
            <ns3:cad>0</ns3:cad>
          </ns3:TrackPointExtension>
        </extensions>
      </trkpt>
      <trkpt lat="45.2863896824419498443603515625" lon="-71.1111828871071338653564453125">
        <ele>713.4000244140625</ele>
        <time>2026-08-22T00:30:37.000Z</time>
        <extensions>
          <ns3:TrackPointExtension>
            <ns3:hr>106</ns3:hr>
            <ns3:cad>0</ns3:cad>
          </ns3:TrackPointExtension>
        </extensions>
      </trkpt>
      <trkpt lat="45.286389850080013275146484375" lon="-71.1111959628760814666748046875">
        <ele>713.4000244140625</ele>
        <time>2026-08-22T00:30:38.000Z</time>
        <extensions>
          <ns3:TrackPointExtension>
            <ns3:hr>105</ns3:hr>
            <ns3:cad>0</ns3:cad>
          </ns3:TrackPointExtension>
        </extensions>
      </trkpt>
      <trkpt lat="45.2863906882703304290771484375" lon="-71.1112014949321746826171875">
        <ele>713.4000244140625</ele>
        <time>2026-08-22T00:30:39.000Z</time>
        <extensions>
          <ns3:TrackPointExtension>
            <ns3:hr>105</ns3:hr>
            <ns3:cad>0</ns3:cad>
          </ns3:TrackPointExtension>
        </extensions>
      </trkpt>
      <trkpt lat="45.28639915399253368377685546875" lon="-71.11120618879795074462890625">
        <ele>713.20001220703125</ele>
        <time>2026-08-22T00:30:40.000Z</time>
        <extensions>
          <ns3:TrackPointExtension>
            <ns3:hr>106</ns3:hr>
            <ns3:cad>0</ns3:cad>
          </ns3:TrackPointExtension>
        </extensions>
      </trkpt>
      <trkpt lat="45.2864071168005466461181640625" lon="-71.11120794899761676788330078125">
        <ele>713.20001220703125</ele>
        <time>2026-08-22T00:30:41.000Z</time>
        <extensions>
          <ns3:TrackPointExtension>
            <ns3:hr>106</ns3:hr>
            <ns3:cad>0</ns3:cad>
          </ns3:TrackPointExtension>
        </extensions>
      </trkpt>
      <trkpt lat="45.2864185161888599395751953125" lon="-71.1112150736153125762939453125">
        <ele>713.20001220703125</ele>
        <time>2026-08-22T00:30:42.000Z</time>
        <extensions>
          <ns3:TrackPointExtension>
            <ns3:hr>107</ns3:hr>
            <ns3:cad>0</ns3:cad>
          </ns3:TrackPointExtension>
        </extensions>
      </trkpt>
      <trkpt lat="45.2864225395023822784423828125" lon="-71.1112211085855960845947265625">
        <ele>713.20001220703125</ele>
        <time>2026-08-22T00:30:43.000Z</time>
        <extensions>
          <ns3:TrackPointExtension>
            <ns3:hr>107</ns3:hr>
            <ns3:cad>0</ns3:cad>
          </ns3:TrackPointExtension>
        </extensions>
      </trkpt>
      <trkpt lat="45.2864218689501285552978515625" lon="-71.11122337169945240020751953125">
        <ele>713</ele>
        <time>2026-08-22T00:30:44.000Z</time>
        <extensions>
          <ns3:TrackPointExtension>
            <ns3:hr>108</ns3:hr>
            <ns3:cad>0</ns3:cad>
          </ns3:TrackPointExtension>
        </extensions>
      </trkpt>
      <trkpt lat="45.28642144985496997833251953125" lon="-71.11122169531881809234619140625">
        <ele>713</ele>
        <time>2026-08-22T00:30:45.000Z</time>
        <extensions>
          <ns3:TrackPointExtension>
            <ns3:hr>108</ns3:hr>
            <ns3:cad>0</ns3:cad>
          </ns3:TrackPointExtension>
        </extensions>
      </trkpt>
      <trkpt lat="45.28642010875046253204345703125" lon="-71.11123032867908477783203125">
        <ele>713</ele>
        <time>2026-08-22T00:30:46.000Z</time>
        <extensions>
          <ns3:TrackPointExtension>
            <ns3:hr>108</ns3:hr>
            <ns3:cad>0</ns3:cad>
          </ns3:TrackPointExtension>
        </extensions>
      </trkpt>
      <trkpt lat="45.28642144985496997833251953125" lon="-71.111239381134510040283203125">
        <ele>713</ele>
        <time>2026-08-22T00:30:47.000Z</time>
        <extensions>
          <ns3:TrackPointExtension>
            <ns3:hr>109</ns3:hr>
            <ns3:cad>0</ns3:cad>
          </ns3:TrackPointExtension>
        </extensions>
      </trkpt>
      <trkpt lat="45.28642228804528713226318359375" lon="-71.11124767921864986419677734375">
        <ele>712.79998779296875</ele>
        <time>2026-08-22T00:30:48.000Z</time>
        <extensions>
          <ns3:TrackPointExtension>
            <ns3:hr>110</ns3:hr>
            <ns3:cad>0</ns3:cad>
          </ns3:TrackPointExtension>
        </extensions>
      </trkpt>
      <trkpt lat="45.2864183485507965087890625" lon="-71.111255474388599395751953125">
        <ele>712.79998779296875</ele>
        <time>2026-08-22T00:30:49.000Z</time>
        <extensions>
          <ns3:TrackPointExtension>
            <ns3:hr>111</ns3:hr>
            <ns3:cad>0</ns3:cad>
          </ns3:TrackPointExtension>
        </extensions>
      </trkpt>
      <trkpt lat="45.28641692362725734710693359375" lon="-71.11126980744302272796630859375">
        <ele>712.79998779296875</ele>
        <time>2026-08-22T00:30:50.000Z</time>
        <extensions>
          <ns3:TrackPointExtension>
            <ns3:hr>112</ns3:hr>
            <ns3:cad>0</ns3:cad>
          </ns3:TrackPointExtension>
        </extensions>
      </trkpt>
      <trkpt lat="45.28641767799854278564453125" lon="-71.1112846434116363525390625">
        <ele>712.5999755859375</ele>
        <time>2026-08-22T00:30:51.000Z</time>
        <extensions>
          <ns3:TrackPointExtension>
            <ns3:hr>112</ns3:hr>
            <ns3:cad>0</ns3:cad>
          </ns3:TrackPointExtension>
        </extensions>
      </trkpt>
      <trkpt lat="45.28642111457884311676025390625" lon="-71.111299060285091400146484375">
        <ele>712.5999755859375</ele>
        <time>2026-08-22T00:30:52.000Z</time>
        <extensions>
          <ns3:TrackPointExtension>
            <ns3:hr>112</ns3:hr>
            <ns3:cad>0</ns3:cad>
          </ns3:TrackPointExtension>
        </extensions>
      </trkpt>
      <trkpt lat="45.286424048244953155517578125" lon="-71.11130601726472377777099609375">
        <ele>712.5999755859375</ele>
        <time>2026-08-22T00:30:53.000Z</time>
        <extensions>
          <ns3:TrackPointExtension>
            <ns3:hr>112</ns3:hr>
            <ns3:cad>0</ns3:cad>
          </ns3:TrackPointExtension>
        </extensions>
      </trkpt>
      <trkpt lat="45.28642564080655574798583984375" lon="-71.11131372861564159393310546875">
        <ele>712.4000244140625</ele>
        <time>2026-08-22T00:30:54.000Z</time>
        <extensions>
          <ns3:TrackPointExtension>
            <ns3:hr>112</ns3:hr>
            <ns3:cad>0</ns3:cad>
          </ns3:TrackPointExtension>
        </extensions>
      </trkpt>
      <trkpt lat="45.28643243014812469482421875" lon="-71.11131942830979824066162109375">
        <ele>712.4000244140625</ele>
        <time>2026-08-22T00:30:55.000Z</time>
        <extensions>
          <ns3:TrackPointExtension>
            <ns3:hr>112</ns3:hr>
            <ns3:cad>0</ns3:cad>
          </ns3:TrackPointExtension>
        </extensions>
      </trkpt>
      <trkpt lat="45.28643603436648845672607421875" lon="-71.1113237030804157257080078125">
        <ele>712.4000244140625</ele>
        <time>2026-08-22T00:30:56.000Z</time>
        <extensions>
          <ns3:TrackPointExtension>
            <ns3:hr>112</ns3:hr>
            <ns3:cad>0</ns3:cad>
          </ns3:TrackPointExtension>
        </extensions>
      </trkpt>
      <trkpt lat="45.28643670491874217987060546875" lon="-71.1113237030804157257080078125">
        <ele>712.4000244140625</ele>
        <time>2026-08-22T00:30:57.000Z</time>
        <extensions>
          <ns3:TrackPointExtension>
            <ns3:hr>112</ns3:hr>
            <ns3:cad>0</ns3:cad>
          </ns3:TrackPointExtension>
        </extensions>
      </trkpt>
      <trkpt lat="45.286445505917072296142578125" lon="-71.11132982186973094940185546875">
        <ele>712.4000244140625</ele>
        <time>2026-08-22T00:30:58.000Z</time>
        <extensions>
          <ns3:TrackPointExtension>
            <ns3:hr>112</ns3:hr>
            <ns3:cad>41</ns3:cad>
          </ns3:TrackPointExtension>
        </extensions>
      </trkpt>
      <trkpt lat="45.2864507026970386505126953125" lon="-71.11133904196321964263916015625">
        <ele>712.4000244140625</ele>
        <time>2026-08-22T00:30:59.000Z</time>
        <extensions>
          <ns3:TrackPointExtension>
            <ns3:hr>112</ns3:hr>
            <ns3:cad>41</ns3:cad>
          </ns3:TrackPointExtension>
        </extensions>
      </trkpt>
      <trkpt lat="45.28645816259086132049560546875" lon="-71.11134574748575687408447265625">
        <ele>712.20001220703125</ele>
        <time>2026-08-22T00:31:00.000Z</time>
        <extensions>
          <ns3:TrackPointExtension>
            <ns3:hr>112</ns3:hr>
            <ns3:cad>0</ns3:cad>
          </ns3:TrackPointExtension>
        </extensions>
      </trkpt>
      <trkpt lat="45.2864641137421131134033203125" lon="-71.1113485135138034820556640625">
        <ele>712.20001220703125</ele>
        <time>2026-08-22T00:31:01.000Z</time>
        <extensions>
          <ns3:TrackPointExtension>
            <ns3:hr>112</ns3:hr>
            <ns3:cad>0</ns3:cad>
          </ns3:TrackPointExtension>
        </extensions>
      </trkpt>
      <trkpt lat="45.28646922670304775238037109375" lon="-71.11135027371346950531005859375">
        <ele>712.20001220703125</ele>
        <time>2026-08-22T00:31:02.000Z</time>
        <extensions>
          <ns3:TrackPointExtension>
            <ns3:hr>112</ns3:hr>
            <ns3:cad>0</ns3:cad>
          </ns3:TrackPointExtension>
        </extensions>
      </trkpt>
      <trkpt lat="45.2864746749401092529296875" lon="-71.11135010607540607452392578125">
        <ele>712</ele>
        <time>2026-08-22T00:31:03.000Z</time>
        <extensions>
          <ns3:TrackPointExtension>
            <ns3:hr>111</ns3:hr>
            <ns3:cad>0</ns3:cad>
          </ns3:TrackPointExtension>
        </extensions>
      </trkpt>
      <trkpt lat="45.2864746749401092529296875" lon="-71.11135010607540607452392578125">
        <ele>712</ele>
        <time>2026-08-22T00:31:04.000Z</time>
        <extensions>
          <ns3:TrackPointExtension>
            <ns3:hr>111</ns3:hr>
            <ns3:cad>0</ns3:cad>
          </ns3:TrackPointExtension>
        </extensions>
      </trkpt>
      <trkpt lat="45.2864746749401092529296875" lon="-71.11135010607540607452392578125">
        <ele>712</ele>
        <time>2026-08-22T00:31:05.000Z</time>
        <extensions>
          <ns3:TrackPointExtension>
            <ns3:hr>111</ns3:hr>
            <ns3:cad>0</ns3:cad>
          </ns3:TrackPointExtension>
        </extensions>
      </trkpt>
      <trkpt lat="45.2864746749401092529296875" lon="-71.11135010607540607452392578125">
        <ele>712</ele>
        <time>2026-08-22T00:31:06.000Z</time>
        <extensions>
          <ns3:TrackPointExtension>
            <ns3:hr>111</ns3:hr>
            <ns3:cad>0</ns3:cad>
          </ns3:TrackPointExtension>
        </extensions>
      </trkpt>
      <trkpt lat="45.2864746749401092529296875" lon="-71.11135010607540607452392578125">
        <ele>712</ele>
        <time>2026-08-22T00:31:07.000Z</time>
        <extensions>
          <ns3:TrackPointExtension>
            <ns3:hr>110</ns3:hr>
            <ns3:cad>0</ns3:cad>
          </ns3:TrackPointExtension>
        </extensions>
      </trkpt>
      <trkpt lat="45.2864746749401092529296875" lon="-71.11135010607540607452392578125">
        <ele>712</ele>
        <time>2026-08-22T00:31:08.000Z</time>
        <extensions>
          <ns3:TrackPointExtension>
            <ns3:hr>110</ns3:hr>
            <ns3:cad>0</ns3:cad>
          </ns3:TrackPointExtension>
        </extensions>
      </trkpt>
      <trkpt lat="45.28647459112107753753662109375" lon="-71.111350357532501220703125">
        <ele>712</ele>
        <time>2026-08-22T00:31:09.000Z</time>
        <extensions>
          <ns3:TrackPointExtension>
            <ns3:hr>109</ns3:hr>
            <ns3:cad>0</ns3:cad>
          </ns3:TrackPointExtension>
        </extensions>
      </trkpt>
      <trkpt lat="45.28647660277783870697021484375" lon="-71.11135228537023067474365234375">
        <ele>712</ele>
        <time>2026-08-22T00:31:10.000Z</time>
        <extensions>
          <ns3:TrackPointExtension>
            <ns3:hr>109</ns3:hr>
            <ns3:cad>0</ns3:cad>
          </ns3:TrackPointExtension>
        </extensions>
      </trkpt>
      <trkpt lat="45.28647626750171184539794921875" lon="-71.11135446466505527496337890625">
        <ele>712</ele>
        <time>2026-08-22T00:31:11.000Z</time>
        <extensions>
          <ns3:TrackPointExtension>
            <ns3:hr>109</ns3:hr>
            <ns3:cad>0</ns3:cad>
          </ns3:TrackPointExtension>
        </extensions>
      </trkpt>
      <trkpt lat="45.286477021872997283935546875" lon="-71.1113570630550384521484375">
        <ele>712</ele>
        <time>2026-08-22T00:31:12.000Z</time>
        <extensions>
          <ns3:TrackPointExtension>
            <ns3:hr>107</ns3:hr>
            <ns3:cad>0</ns3:cad>
          </ns3:TrackPointExtension>
        </extensions>
      </trkpt>
      <trkpt lat="45.28647609986364841461181640625" lon="-71.1113582365214824676513671875">
        <ele>712</ele>
        <time>2026-08-22T00:31:13.000Z</time>
        <extensions>
          <ns3:TrackPointExtension>
            <ns3:hr>106</ns3:hr>
            <ns3:cad>0</ns3:cad>
          </ns3:TrackPointExtension>
        </extensions>
      </trkpt>
      <trkpt lat="45.286477021872997283935546875" lon="-71.1113639362156391143798828125">
        <ele>711.79998779296875</ele>
        <time>2026-08-22T00:31:14.000Z</time>
        <extensions>
          <ns3:TrackPointExtension>
            <ns3:hr>105</ns3:hr>
            <ns3:cad>0</ns3:cad>
          </ns3:TrackPointExtension>
        </extensions>
      </trkpt>
      <trkpt lat="45.2864785306155681610107421875" lon="-71.11136904917657375335693359375">
        <ele>711.79998779296875</ele>
        <time>2026-08-22T00:31:15.000Z</time>
        <extensions>
          <ns3:TrackPointExtension>
            <ns3:hr>106</ns3:hr>
            <ns3:cad>0</ns3:cad>
          </ns3:TrackPointExtension>
        </extensions>
      </trkpt>
      <trkpt lat="45.2864771895110607147216796875" lon="-71.1113699711859226226806640625">
        <ele>711.79998779296875</ele>
        <time>2026-08-22T00:31:16.000Z</time>
        <extensions>
          <ns3:TrackPointExtension>
            <ns3:hr>106</ns3:hr>
            <ns3:cad>0</ns3:cad>
          </ns3:TrackPointExtension>
        </extensions>
      </trkpt>
      <trkpt lat="45.2864746749401092529296875" lon="-71.1113743297755718231201171875">
        <ele>711.79998779296875</ele>
        <time>2026-08-22T00:31:17.000Z</time>
        <extensions>
          <ns3:TrackPointExtension>
            <ns3:hr>106</ns3:hr>
            <ns3:cad>0</ns3:cad>
          </ns3:TrackPointExtension>
        </extensions>
      </trkpt>
      <trkpt lat="45.28647534549236297607421875" lon="-71.11137541942298412322998046875">
        <ele>711.79998779296875</ele>
        <time>2026-08-22T00:31:18.000Z</time>
        <extensions>
          <ns3:TrackPointExtension>
            <ns3:hr>106</ns3:hr>
            <ns3:cad>0</ns3:cad>
          </ns3:TrackPointExtension>
        </extensions>
      </trkpt>
      <trkpt lat="45.2864755131304264068603515625" lon="-71.11137541942298412322998046875">
        <ele>711.79998779296875</ele>
        <time>2026-08-22T00:31:19.000Z</time>
        <extensions>
          <ns3:TrackPointExtension>
            <ns3:hr>110</ns3:hr>
            <ns3:cad>0</ns3:cad>
          </ns3:TrackPointExtension>
        </extensions>
      </trkpt>
      <trkpt lat="45.2864755131304264068603515625" lon="-71.11137541942298412322998046875">
        <ele>712</ele>
        <time>2026-08-22T00:31:20.000Z</time>
        <extensions>
          <ns3:TrackPointExtension>
            <ns3:hr>111</ns3:hr>
            <ns3:cad>0</ns3:cad>
          </ns3:TrackPointExtension>
        </extensions>
      </trkpt>
      <trkpt lat="45.2864755131304264068603515625" lon="-71.11137541942298412322998046875">
        <ele>712</ele>
        <time>2026-08-22T00:31:21.000Z</time>
        <extensions>
          <ns3:TrackPointExtension>
            <ns3:hr>112</ns3:hr>
            <ns3:cad>0</ns3:cad>
          </ns3:TrackPointExtension>
        </extensions>
      </trkpt>
      <trkpt lat="45.28647593222558498382568359375" lon="-71.111375503242015838623046875">
        <ele>712</ele>
        <time>2026-08-22T00:31:22.000Z</time>
        <extensions>
          <ns3:TrackPointExtension>
            <ns3:hr>112</ns3:hr>
            <ns3:cad>0</ns3:cad>
          </ns3:TrackPointExtension>
        </extensions>
      </trkpt>
      <trkpt lat="45.2864718250930309295654296875" lon="-71.1113823764026165008544921875">
        <ele>712</ele>
        <time>2026-08-22T00:31:23.000Z</time>
        <extensions>
          <ns3:TrackPointExtension>
            <ns3:hr>113</ns3:hr>
            <ns3:cad>0</ns3:cad>
          </ns3:TrackPointExtension>
        </extensions>
      </trkpt>
      <trkpt lat="45.28646838851273059844970703125" lon="-71.11139520071446895599365234375">
        <ele>712</ele>
        <time>2026-08-22T00:31:24.000Z</time>
        <extensions>
          <ns3:TrackPointExtension>
            <ns3:hr>113</ns3:hr>
            <ns3:cad>0</ns3:cad>
          </ns3:TrackPointExtension>
        </extensions>
      </trkpt>
      <trkpt lat="45.28647358529269695281982421875" lon="-71.11140333116054534912109375">
        <ele>711.79998779296875</ele>
        <time>2026-08-22T00:31:25.000Z</time>
        <extensions>
          <ns3:TrackPointExtension>
            <ns3:hr>113</ns3:hr>
            <ns3:cad>0</ns3:cad>
          </ns3:TrackPointExtension>
        </extensions>
      </trkpt>
      <trkpt lat="45.28647894971072673797607421875" lon="-71.11141548492014408111572265625">
        <ele>711.79998779296875</ele>
        <time>2026-08-22T00:31:26.000Z</time>
        <extensions>
          <ns3:TrackPointExtension>
            <ns3:hr>112</ns3:hr>
            <ns3:cad>0</ns3:cad>
          </ns3:TrackPointExtension>
        </extensions>
      </trkpt>
      <trkpt lat="45.2864842303097248077392578125" lon="-71.11142403446137905120849609375">
        <ele>711.79998779296875</ele>
        <time>2026-08-22T00:31:27.000Z</time>
        <extensions>
          <ns3:TrackPointExtension>
            <ns3:hr>112</ns3:hr>
            <ns3:cad>0</ns3:cad>
          </ns3:TrackPointExtension>
        </extensions>
      </trkpt>
      <trkpt lat="45.28648984618484973907470703125" lon="-71.11142973415553569793701171875">
        <ele>711.5999755859375</ele>
        <time>2026-08-22T00:31:28.000Z</time>
        <extensions>
          <ns3:TrackPointExtension>
            <ns3:hr>112</ns3:hr>
            <ns3:cad>0</ns3:cad>
          </ns3:TrackPointExtension>
        </extensions>
      </trkpt>
      <trkpt lat="45.28649303130805492401123046875" lon="-71.111434511840343475341796875">
        <ele>711.5999755859375</ele>
        <time>2026-08-22T00:31:29.000Z</time>
        <extensions>
          <ns3:TrackPointExtension>
            <ns3:hr>112</ns3:hr>
            <ns3:cad>56</ns3:cad>
          </ns3:TrackPointExtension>
        </extensions>
      </trkpt>
      <trkpt lat="45.28649202547967433929443359375" lon="-71.11143761314451694488525390625">
        <ele>711.5999755859375</ele>
        <time>2026-08-22T00:31:30.000Z</time>
        <extensions>
          <ns3:TrackPointExtension>
            <ns3:hr>112</ns3:hr>
            <ns3:cad>56</ns3:cad>
          </ns3:TrackPointExtension>
        </extensions>
      </trkpt>
      <trkpt lat="45.2864949591457843780517578125" lon="-71.11143887042999267578125">
        <ele>711.4000244140625</ele>
        <time>2026-08-22T00:31:31.000Z</time>
        <extensions>
          <ns3:TrackPointExtension>
            <ns3:hr>112</ns3:hr>
            <ns3:cad>0</ns3:cad>
          </ns3:TrackPointExtension>
        </extensions>
      </trkpt>
      <trkpt lat="45.28650107793509960174560546875" lon="-71.11143778078258037567138671875">
        <ele>711.4000244140625</ele>
        <time>2026-08-22T00:31:32.000Z</time>
        <extensions>
          <ns3:TrackPointExtension>
            <ns3:hr>112</ns3:hr>
            <ns3:cad>0</ns3:cad>
          </ns3:TrackPointExtension>
        </extensions>
      </trkpt>
      <trkpt lat="45.2865046821534633636474609375" lon="-71.1114343442022800445556640625">
        <ele>711.4000244140625</ele>
        <time>2026-08-22T00:31:33.000Z</time>
        <extensions>
          <ns3:TrackPointExtension>
            <ns3:hr>112</ns3:hr>
            <ns3:cad>0</ns3:cad>
          </ns3:TrackPointExtension>
        </extensions>
      </trkpt>
      <trkpt lat="45.2865076996386051177978515625" lon="-71.11142587848007678985595703125">
        <ele>711.5999755859375</ele>
        <time>2026-08-22T00:31:34.000Z</time>
        <extensions>
          <ns3:TrackPointExtension>
            <ns3:hr>112</ns3:hr>
            <ns3:cad>0</ns3:cad>
          </ns3:TrackPointExtension>
        </extensions>
      </trkpt>
      <trkpt lat="45.286511890590190887451171875" lon="-71.11141766421496868133544921875">
        <ele>711.5999755859375</ele>
        <time>2026-08-22T00:31:35.000Z</time>
        <extensions>
          <ns3:TrackPointExtension>
            <ns3:hr>111</ns3:hr>
            <ns3:cad>0</ns3:cad>
          </ns3:TrackPointExtension>
        </extensions>
      </trkpt>
      <trkpt lat="45.286512561142444610595703125" lon="-71.111411042511463165283203125">
        <ele>711.5999755859375</ele>
        <time>2026-08-22T00:31:36.000Z</time>
        <extensions>
          <ns3:TrackPointExtension>
            <ns3:hr>111</ns3:hr>
            <ns3:cad>0</ns3:cad>
          </ns3:TrackPointExtension>
        </extensions>
      </trkpt>
      <trkpt lat="45.2865122258663177490234375" lon="-71.11140928231179714202880859375">
        <ele>711.4000244140625</ele>
        <time>2026-08-22T00:31:37.000Z</time>
        <extensions>
          <ns3:TrackPointExtension>
            <ns3:hr>111</ns3:hr>
            <ns3:cad>0</ns3:cad>
          </ns3:TrackPointExtension>
        </extensions>
      </trkpt>
      <trkpt lat="45.2865137346088886260986328125" lon="-71.1114098690450191497802734375">
        <ele>711.4000244140625</ele>
        <time>2026-08-22T00:31:38.000Z</time>
        <extensions>
          <ns3:TrackPointExtension>
            <ns3:hr>110</ns3:hr>
            <ns3:cad>0</ns3:cad>
          </ns3:TrackPointExtension>
        </extensions>
      </trkpt>
      <trkpt lat="45.2865137346088886260986328125" lon="-71.1114098690450191497802734375">
        <ele>711.4000244140625</ele>
        <time>2026-08-22T00:31:39.000Z</time>
        <extensions>
          <ns3:TrackPointExtension>
            <ns3:hr>110</ns3:hr>
            <ns3:cad>0</ns3:cad>
          </ns3:TrackPointExtension>
        </extensions>
      </trkpt>
      <trkpt lat="45.2865137346088886260986328125" lon="-71.1114098690450191497802734375">
        <ele>711.4000244140625</ele>
        <time>2026-08-22T00:31:40.000Z</time>
        <extensions>
          <ns3:TrackPointExtension>
            <ns3:hr>110</ns3:hr>
            <ns3:cad>0</ns3:cad>
          </ns3:TrackPointExtension>
        </extensions>
      </trkpt>
      <trkpt lat="45.2865137346088886260986328125" lon="-71.1114098690450191497802734375">
        <ele>711.4000244140625</ele>
        <time>2026-08-22T00:31:41.000Z</time>
        <extensions>
          <ns3:TrackPointExtension>
            <ns3:hr>110</ns3:hr>
            <ns3:cad>0</ns3:cad>
          </ns3:TrackPointExtension>
        </extensions>
      </trkpt>
      <trkpt lat="45.2865137346088886260986328125" lon="-71.1114098690450191497802734375">
        <ele>711.4000244140625</ele>
        <time>2026-08-22T00:31:42.000Z</time>
        <extensions>
          <ns3:TrackPointExtension>
            <ns3:hr>110</ns3:hr>
            <ns3:cad>0</ns3:cad>
          </ns3:TrackPointExtension>
        </extensions>
      </trkpt>
      <trkpt lat="45.28651281259953975677490234375" lon="-71.11140928231179714202880859375">
        <ele>711.4000244140625</ele>
        <time>2026-08-22T00:31:43.000Z</time>
        <extensions>
          <ns3:TrackPointExtension>
            <ns3:hr>110</ns3:hr>
            <ns3:cad>0</ns3:cad>
          </ns3:TrackPointExtension>
        </extensions>
      </trkpt>
      <trkpt lat="45.2865023352205753326416015625" lon="-71.11140861175954341888427734375">
        <ele>711.4000244140625</ele>
        <time>2026-08-22T00:31:44.000Z</time>
        <extensions>
          <ns3:TrackPointExtension>
            <ns3:hr>108</ns3:hr>
            <ns3:cad>0</ns3:cad>
          </ns3:TrackPointExtension>
        </extensions>
      </trkpt>
      <trkpt lat="45.28649973683059215545654296875" lon="-71.11140861175954341888427734375">
        <ele>711.4000244140625</ele>
        <time>2026-08-22T00:31:45.000Z</time>
        <extensions>
          <ns3:TrackPointExtension>
            <ns3:hr>106</ns3:hr>
            <ns3:cad>0</ns3:cad>
          </ns3:TrackPointExtension>
        </extensions>
      </trkpt>
      <trkpt lat="45.2864959649741649627685546875" lon="-71.1114132218062877655029296875">
        <ele>711.5999755859375</ele>
        <time>2026-08-22T00:31:46.000Z</time>
        <extensions>
          <ns3:TrackPointExtension>
            <ns3:hr>105</ns3:hr>
            <ns3:cad>0</ns3:cad>
          </ns3:TrackPointExtension>
        </extensions>
      </trkpt>
      <trkpt lat="45.2864936180412769317626953125" lon="-71.11141146160662174224853515625">
        <ele>711.5999755859375</ele>
        <time>2026-08-22T00:31:47.000Z</time>
        <extensions>
          <ns3:TrackPointExtension>
            <ns3:hr>104</ns3:hr>
            <ns3:cad>0</ns3:cad>
          </ns3:TrackPointExtension>
        </extensions>
      </trkpt>
      <trkpt lat="45.2864939533174037933349609375" lon="-71.11140861175954341888427734375">
        <ele>711.5999755859375</ele>
        <time>2026-08-22T00:31:48.000Z</time>
        <extensions>
          <ns3:TrackPointExtension>
            <ns3:hr>104</ns3:hr>
            <ns3:cad>0</ns3:cad>
          </ns3:TrackPointExtension>
        </extensions>
      </trkpt>
      <trkpt lat="45.28649101965129375457763671875" lon="-71.11140458844602108001708984375">
        <ele>711.5999755859375</ele>
        <time>2026-08-22T00:31:49.000Z</time>
        <extensions>
          <ns3:TrackPointExtension>
            <ns3:hr>105</ns3:hr>
            <ns3:cad>0</ns3:cad>
          </ns3:TrackPointExtension>
        </extensions>
      </trkpt>
      <trkpt lat="45.2864885888993740081787109375" lon="-71.11140090040862560272216796875">
        <ele>711.5999755859375</ele>
        <time>2026-08-22T00:31:50.000Z</time>
        <extensions>
          <ns3:TrackPointExtension>
            <ns3:hr>105</ns3:hr>
            <ns3:cad>69</ns3:cad>
          </ns3:TrackPointExtension>
        </extensions>
      </trkpt>
      <trkpt lat="45.2864919416606426239013671875" lon="-71.11139872111380100250244140625">
        <ele>711.5999755859375</ele>
        <time>2026-08-22T00:31:51.000Z</time>
        <extensions>
          <ns3:TrackPointExtension>
            <ns3:hr>106</ns3:hr>
            <ns3:cad>69</ns3:cad>
          </ns3:TrackPointExtension>
        </extensions>
      </trkpt>
      <trkpt lat="45.2864869125187397003173828125" lon="-71.11139117740094661712646484375">
        <ele>711.5999755859375</ele>
        <time>2026-08-22T00:31:52.000Z</time>
        <extensions>
          <ns3:TrackPointExtension>
            <ns3:hr>106</ns3:hr>
            <ns3:cad>69</ns3:cad>
          </ns3:TrackPointExtension>
        </extensions>
      </trkpt>
      <trkpt lat="45.28648414649069309234619140625" lon="-71.1113892495632171630859375">
        <ele>711.5999755859375</ele>
        <time>2026-08-22T00:31:53.000Z</time>
        <extensions>
          <ns3:TrackPointExtension>
            <ns3:hr>107</ns3:hr>
            <ns3:cad>0</ns3:cad>
          </ns3:TrackPointExtension>
        </extensions>
      </trkpt>
      <trkpt lat="45.286482386291027069091796875" lon="-71.1113904230296611785888671875">
        <ele>711.79998779296875</ele>
        <time>2026-08-22T00:31:54.000Z</time>
        <extensions>
          <ns3:TrackPointExtension>
            <ns3:hr>108</ns3:hr>
            <ns3:cad>0</ns3:cad>
          </ns3:TrackPointExtension>
        </extensions>
      </trkpt>
      <trkpt lat="45.28648565523326396942138671875" lon="-71.111392937600612640380859375">
        <ele>711.79998779296875</ele>
        <time>2026-08-22T00:31:55.000Z</time>
        <extensions>
          <ns3:TrackPointExtension>
            <ns3:hr>111</ns3:hr>
            <ns3:cad>0</ns3:cad>
          </ns3:TrackPointExtension>
        </extensions>
      </trkpt>
      <trkpt lat="45.28648649342358112335205078125" lon="-71.11139796674251556396484375">
        <ele>711.79998779296875</ele>
        <time>2026-08-22T00:31:56.000Z</time>
        <extensions>
          <ns3:TrackPointExtension>
            <ns3:hr>115</ns3:hr>
            <ns3:cad>0</ns3:cad>
          </ns3:TrackPointExtension>
        </extensions>
      </trkpt>
      <trkpt lat="45.28648867271840572357177734375" lon="-71.11139972694218158721923828125">
        <ele>711.79998779296875</ele>
        <time>2026-08-22T00:31:57.000Z</time>
        <extensions>
          <ns3:TrackPointExtension>
            <ns3:hr>115</ns3:hr>
            <ns3:cad>0</ns3:cad>
          </ns3:TrackPointExtension>
        </extensions>
      </trkpt>
      <trkpt lat="45.286489762365818023681640625" lon="-71.11139930784702301025390625">
        <ele>711.79998779296875</ele>
        <time>2026-08-22T00:31:58.000Z</time>
        <extensions>
          <ns3:TrackPointExtension>
            <ns3:hr>116</ns3:hr>
            <ns3:cad>0</ns3:cad>
          </ns3:TrackPointExtension>
        </extensions>
      </trkpt>
      <trkpt lat="45.2864956296980381011962890625" lon="-71.1113984696567058563232421875">
        <ele>711.79998779296875</ele>
        <time>2026-08-22T00:31:59.000Z</time>
        <extensions>
          <ns3:TrackPointExtension>
            <ns3:hr>116</ns3:hr>
            <ns3:cad>0</ns3:cad>
          </ns3:TrackPointExtension>
        </extensions>
      </trkpt>
      <trkpt lat="45.286500155925750732421875" lon="-71.11139687709510326385498046875">
        <ele>712</ele>
        <time>2026-08-22T00:32:00.000Z</time>
        <extensions>
          <ns3:TrackPointExtension>
            <ns3:hr>116</ns3:hr>
            <ns3:cad>0</ns3:cad>
          </ns3:TrackPointExtension>
        </extensions>
      </trkpt>
      <trkpt lat="45.28650476597249507904052734375" lon="-71.1113977991044521331787109375">
        <ele>712</ele>
        <time>2026-08-22T00:32:01.000Z</time>
        <extensions>
          <ns3:TrackPointExtension>
            <ns3:hr>116</ns3:hr>
            <ns3:cad>0</ns3:cad>
          </ns3:TrackPointExtension>
        </extensions>
      </trkpt>
      <trkpt lat="45.2864999882876873016357421875" lon="-71.1113867349922657012939453125">
        <ele>712.20001220703125</ele>
        <time>2026-08-22T00:32:02.000Z</time>
        <extensions>
          <ns3:TrackPointExtension>
            <ns3:hr>115</ns3:hr>
            <ns3:cad>0</ns3:cad>
          </ns3:TrackPointExtension>
        </extensions>
      </trkpt>
      <trkpt lat="45.28650174848735332489013671875" lon="-71.11137324012815952301025390625">
        <ele>712.20001220703125</ele>
        <time>2026-08-22T00:32:03.000Z</time>
        <extensions>
          <ns3:TrackPointExtension>
            <ns3:hr>114</ns3:hr>
            <ns3:cad>0</ns3:cad>
          </ns3:TrackPointExtension>
        </extensions>
      </trkpt>
      <trkpt lat="45.2865087054669857025146484375" lon="-71.1113699711859226226806640625">
        <ele>712.20001220703125</ele>
        <time>2026-08-22T00:32:04.000Z</time>
        <extensions>
          <ns3:TrackPointExtension>
            <ns3:hr>114</ns3:hr>
            <ns3:cad>0</ns3:cad>
          </ns3:TrackPointExtension>
        </extensions>
      </trkpt>
      <trkpt lat="45.2865097112953662872314453125" lon="-71.1113619245588779449462890625">
        <ele>712.20001220703125</ele>
        <time>2026-08-22T00:32:05.000Z</time>
        <extensions>
          <ns3:TrackPointExtension>
            <ns3:hr>115</ns3:hr>
            <ns3:cad>0</ns3:cad>
          </ns3:TrackPointExtension>
        </extensions>
      </trkpt>
      <trkpt lat="45.28651147149503231048583984375" lon="-71.11136846244335174560546875">
        <ele>712.20001220703125</ele>
        <time>2026-08-22T00:32:06.000Z</time>
        <extensions>
          <ns3:TrackPointExtension>
            <ns3:hr>115</ns3:hr>
            <ns3:cad>0</ns3:cad>
          </ns3:TrackPointExtension>
        </extensions>
      </trkpt>
      <trkpt lat="45.28651013039052486419677734375" lon="-71.1113562248647212982177734375">
        <ele>712</ele>
        <time>2026-08-22T00:32:07.000Z</time>
        <extensions>
          <ns3:TrackPointExtension>
            <ns3:hr>116</ns3:hr>
            <ns3:cad>0</ns3:cad>
          </ns3:TrackPointExtension>
        </extensions>
      </trkpt>
      <trkpt lat="45.2865073643624782562255859375" lon="-71.11134574748575687408447265625">
        <ele>712</ele>
        <time>2026-08-22T00:32:08.000Z</time>
        <extensions>
          <ns3:TrackPointExtension>
            <ns3:hr>116</ns3:hr>
            <ns3:cad>0</ns3:cad>
          </ns3:TrackPointExtension>
        </extensions>
      </trkpt>
      <trkpt lat="45.2865053527057170867919921875" lon="-71.11133887432515621185302734375">
        <ele>712</ele>
        <time>2026-08-22T00:32:09.000Z</time>
        <extensions>
          <ns3:TrackPointExtension>
            <ns3:hr>116</ns3:hr>
            <ns3:cad>0</ns3:cad>
          </ns3:TrackPointExtension>
        </extensions>
      </trkpt>
      <trkpt lat="45.2864989824593067169189453125" lon="-71.11132948659360408782958984375">
        <ele>712.20001220703125</ele>
        <time>2026-08-22T00:32:10.000Z</time>
        <extensions>
          <ns3:TrackPointExtension>
            <ns3:hr>116</ns3:hr>
            <ns3:cad>0</ns3:cad>
          </ns3:TrackPointExtension>
        </extensions>
      </trkpt>
      <trkpt lat="45.28649671934545040130615234375" lon="-71.11132018268108367919921875">
        <ele>712.20001220703125</ele>
        <time>2026-08-22T00:32:11.000Z</time>
        <extensions>
          <ns3:TrackPointExtension>
            <ns3:hr>117</ns3:hr>
            <ns3:cad>0</ns3:cad>
          </ns3:TrackPointExtension>
        </extensions>
      </trkpt>
      <trkpt lat="45.2864899300038814544677734375" lon="-71.11131708137691020965576171875">
        <ele>712.4000244140625</ele>
        <time>2026-08-22T00:32:12.000Z</time>
        <extensions>
          <ns3:TrackPointExtension>
            <ns3:hr>117</ns3:hr>
            <ns3:cad>0</ns3:cad>
          </ns3:TrackPointExtension>
        </extensions>
      </trkpt>
      <trkpt lat="45.286481045186519622802734375" lon="-71.1113106273114681243896484375">
        <ele>712.4000244140625</ele>
        <time>2026-08-22T00:32:13.000Z</time>
        <extensions>
          <ns3:TrackPointExtension>
            <ns3:hr>117</ns3:hr>
            <ns3:cad>0</ns3:cad>
          </ns3:TrackPointExtension>
        </extensions>
      </trkpt>
      <trkpt lat="45.28647325001657009124755859375" lon="-71.1113052628934383392333984375">
        <ele>712.4000244140625</ele>
        <time>2026-08-22T00:32:14.000Z</time>
        <extensions>
          <ns3:TrackPointExtension>
            <ns3:hr>117</ns3:hr>
            <ns3:cad>61</ns3:cad>
          </ns3:TrackPointExtension>
        </extensions>
      </trkpt>
      <trkpt lat="45.2864691428840160369873046875" lon="-71.11129738390445709228515625">
        <ele>712.4000244140625</ele>
        <time>2026-08-22T00:32:15.000Z</time>
        <extensions>
          <ns3:TrackPointExtension>
            <ns3:hr>117</ns3:hr>
            <ns3:cad>61</ns3:cad>
          </ns3:TrackPointExtension>
        </extensions>
      </trkpt>
      <trkpt lat="45.28646034188568592071533203125" lon="-71.11128523014485836029052734375">
        <ele>712.4000244140625</ele>
        <time>2026-08-22T00:32:16.000Z</time>
        <extensions>
          <ns3:TrackPointExtension>
            <ns3:hr>117</ns3:hr>
            <ns3:cad>61</ns3:cad>
          </ns3:TrackPointExtension>
        </extensions>
      </trkpt>
      <trkpt lat="45.2864587493240833282470703125" lon="-71.11128372140228748321533203125">
        <ele>712.5999755859375</ele>
        <time>2026-08-22T00:32:17.000Z</time>
        <extensions>
          <ns3:TrackPointExtension>
            <ns3:hr>117</ns3:hr>
            <ns3:cad>0</ns3:cad>
          </ns3:TrackPointExtension>
        </extensions>
      </trkpt>
      <trkpt lat="45.2864560671150684356689453125" lon="-71.11128103919327259063720703125">
        <ele>712.5999755859375</ele>
        <time>2026-08-22T00:32:18.000Z</time>
        <extensions>
          <ns3:TrackPointExtension>
            <ns3:hr>117</ns3:hr>
            <ns3:cad>0</ns3:cad>
          </ns3:TrackPointExtension>
        </extensions>
      </trkpt>
      <trkpt lat="45.2864590846002101898193359375" lon="-71.11126880161464214324951171875">
        <ele>712.79998779296875</ele>
        <time>2026-08-22T00:32:19.000Z</time>
        <extensions>
          <ns3:TrackPointExtension>
            <ns3:hr>118</ns3:hr>
            <ns3:cad>0</ns3:cad>
          </ns3:TrackPointExtension>
        </extensions>
      </trkpt>
      <trkpt lat="45.28646201826632022857666015625" lon="-71.11125974915921688079833984375">
        <ele>712.79998779296875</ele>
        <time>2026-08-22T00:32:20.000Z</time>
        <extensions>
          <ns3:TrackPointExtension>
            <ns3:hr>118</ns3:hr>
            <ns3:cad>0</ns3:cad>
          </ns3:TrackPointExtension>
        </extensions>
      </trkpt>
      <trkpt lat="45.2864634431898593902587890625" lon="-71.11124952323734760284423828125">
        <ele>713</ele>
        <time>2026-08-22T00:32:21.000Z</time>
        <extensions>
          <ns3:TrackPointExtension>
            <ns3:hr>118</ns3:hr>
            <ns3:cad>0</ns3:cad>
          </ns3:TrackPointExtension>
        </extensions>
      </trkpt>
      <trkpt lat="45.2864634431898593902587890625" lon="-71.11124265007674694061279296875">
        <ele>713</ele>
        <time>2026-08-22T00:32:22.000Z</time>
        <extensions>
          <ns3:TrackPointExtension>
            <ns3:hr>119</ns3:hr>
            <ns3:cad>0</ns3:cad>
          </ns3:TrackPointExtension>
        </extensions>
      </trkpt>
      <trkpt lat="45.286464951932430267333984375" lon="-71.11123544164001941680908203125">
        <ele>713.20001220703125</ele>
        <time>2026-08-22T00:32:23.000Z</time>
        <extensions>
          <ns3:TrackPointExtension>
            <ns3:hr>120</ns3:hr>
            <ns3:cad>0</ns3:cad>
          </ns3:TrackPointExtension>
        </extensions>
      </trkpt>
      <trkpt lat="45.2864667959511280059814453125" lon="-71.1112241260707378387451171875">
        <ele>713.20001220703125</ele>
        <time>2026-08-22T00:32:24.000Z</time>
        <extensions>
          <ns3:TrackPointExtension>
            <ns3:hr>120</ns3:hr>
            <ns3:cad>0</ns3:cad>
          </ns3:TrackPointExtension>
        </extensions>
      </trkpt>
      <trkpt lat="45.2864639461040496826171875" lon="-71.111220605671405792236328125">
        <ele>713.20001220703125</ele>
        <time>2026-08-22T00:32:25.000Z</time>
        <extensions>
          <ns3:TrackPointExtension>
            <ns3:hr>120</ns3:hr>
            <ns3:cad>0</ns3:cad>
          </ns3:TrackPointExtension>
        </extensions>
      </trkpt>
      <trkpt lat="45.2864580787718296051025390625" lon="-71.11121415160596370697021484375">
        <ele>713.20001220703125</ele>
        <time>2026-08-22T00:32:26.000Z</time>
        <extensions>
          <ns3:TrackPointExtension>
            <ns3:hr>120</ns3:hr>
            <ns3:cad>0</ns3:cad>
          </ns3:TrackPointExtension>
        </extensions>
      </trkpt>
      <trkpt lat="45.28645363636314868927001953125" lon="-71.11120509915053844451904296875">
        <ele>713.20001220703125</ele>
        <time>2026-08-22T00:32:27.000Z</time>
        <extensions>
          <ns3:TrackPointExtension>
            <ns3:hr>120</ns3:hr>
            <ns3:cad>0</ns3:cad>
          </ns3:TrackPointExtension>
        </extensions>
      </trkpt>
      <trkpt lat="45.28645195998251438140869140625" lon="-71.1112019978463649749755859375">
        <ele>713.20001220703125</ele>
        <time>2026-08-22T00:32:28.000Z</time>
        <extensions>
          <ns3:TrackPointExtension>
            <ns3:hr>120</ns3:hr>
            <ns3:cad>0</ns3:cad>
          </ns3:TrackPointExtension>
        </extensions>
      </trkpt>
      <trkpt lat="45.286448188126087188720703125" lon="-71.11119520850479602813720703125">
        <ele>713.4000244140625</ele>
        <time>2026-08-22T00:32:29.000Z</time>
        <extensions>
          <ns3:TrackPointExtension>
            <ns3:hr>120</ns3:hr>
            <ns3:cad>0</ns3:cad>
          </ns3:TrackPointExtension>
        </extensions>
      </trkpt>
      <trkpt lat="45.28644257225096225738525390625" lon="-71.11118473112583160400390625">
        <ele>713.4000244140625</ele>
        <time>2026-08-22T00:32:30.000Z</time>
        <extensions>
          <ns3:TrackPointExtension>
            <ns3:hr>120</ns3:hr>
            <ns3:cad>0</ns3:cad>
          </ns3:TrackPointExtension>
        </extensions>
      </trkpt>
      <trkpt lat="45.286438129842281341552734375" lon="-71.11117257736623287200927734375">
        <ele>713.4000244140625</ele>
        <time>2026-08-22T00:32:31.000Z</time>
        <extensions>
          <ns3:TrackPointExtension>
            <ns3:hr>120</ns3:hr>
            <ns3:cad>0</ns3:cad>
          </ns3:TrackPointExtension>
        </extensions>
      </trkpt>
      <trkpt lat="45.28643787838518619537353515625" lon="-71.1111634410917758941650390625">
        <ele>713.5999755859375</ele>
        <time>2026-08-22T00:32:32.000Z</time>
        <extensions>
          <ns3:TrackPointExtension>
            <ns3:hr>121</ns3:hr>
            <ns3:cad>0</ns3:cad>
          </ns3:TrackPointExtension>
        </extensions>
      </trkpt>
      <trkpt lat="45.2864456735551357269287109375" lon="-71.11115631647408008575439453125">
        <ele>713.5999755859375</ele>
        <time>2026-08-22T00:32:33.000Z</time>
        <extensions>
          <ns3:TrackPointExtension>
            <ns3:hr>121</ns3:hr>
            <ns3:cad>0</ns3:cad>
          </ns3:TrackPointExtension>
        </extensions>
      </trkpt>
      <trkpt lat="45.28644173406064510345458984375" lon="-71.1111532151699066162109375">
        <ele>713.79998779296875</ele>
        <time>2026-08-22T00:32:34.000Z</time>
        <extensions>
          <ns3:TrackPointExtension>
            <ns3:hr>121</ns3:hr>
            <ns3:cad>62</ns3:cad>
          </ns3:TrackPointExtension>
        </extensions>
      </trkpt>
      <trkpt lat="45.28643653728067874908447265625" lon="-71.11113821156322956085205078125">
        <ele>713.79998779296875</ele>
        <time>2026-08-22T00:32:35.000Z</time>
        <extensions>
          <ns3:TrackPointExtension>
            <ns3:hr>120</ns3:hr>
            <ns3:cad>62</ns3:cad>
          </ns3:TrackPointExtension>
        </extensions>
      </trkpt>
      <trkpt lat="45.28643234632909297943115234375" lon="-71.11113376915454864501953125">
        <ele>714</ele>
        <time>2026-08-22T00:32:36.000Z</time>
        <extensions>
          <ns3:TrackPointExtension>
            <ns3:hr>121</ns3:hr>
            <ns3:cad>0</ns3:cad>
          </ns3:TrackPointExtension>
        </extensions>
      </trkpt>
      <trkpt lat="45.2864289097487926483154296875" lon="-71.11113502644002437591552734375">
        <ele>714</ele>
        <time>2026-08-22T00:32:37.000Z</time>
        <extensions>
          <ns3:TrackPointExtension>
            <ns3:hr>122</ns3:hr>
            <ns3:cad>0</ns3:cad>
          </ns3:TrackPointExtension>
        </extensions>
      </trkpt>
      <trkpt lat="45.28641675598919391632080078125" lon="-71.11112882383167743682861328125">
        <ele>714</ele>
        <time>2026-08-22T00:32:38.000Z</time>
        <extensions>
          <ns3:TrackPointExtension>
            <ns3:hr>122</ns3:hr>
            <ns3:cad>0</ns3:cad>
          </ns3:TrackPointExtension>
        </extensions>
      </trkpt>
      <trkpt lat="45.28640217147767543792724609375" lon="-71.11112111248075962066650390625">
        <ele>714</ele>
        <time>2026-08-22T00:32:39.000Z</time>
        <extensions>
          <ns3:TrackPointExtension>
            <ns3:hr>122</ns3:hr>
            <ns3:cad>0</ns3:cad>
          </ns3:TrackPointExtension>
        </extensions>
      </trkpt>
      <trkpt lat="45.28639446012675762176513671875" lon="-71.1111205257475376129150390625">
        <ele>713.79998779296875</ele>
        <time>2026-08-22T00:32:40.000Z</time>
        <extensions>
          <ns3:TrackPointExtension>
            <ns3:hr>123</ns3:hr>
            <ns3:cad>0</ns3:cad>
          </ns3:TrackPointExtension>
        </extensions>
      </trkpt>
      <trkpt lat="45.286383815109729766845703125" lon="-71.1111215315759181976318359375">
        <ele>713.79998779296875</ele>
        <time>2026-08-22T00:32:41.000Z</time>
        <extensions>
          <ns3:TrackPointExtension>
            <ns3:hr>124</ns3:hr>
            <ns3:cad>0</ns3:cad>
          </ns3:TrackPointExtension>
        </extensions>
      </trkpt>
      <trkpt lat="45.2863725833594799041748046875" lon="-71.11111658625304698944091796875">
        <ele>713.79998779296875</ele>
        <time>2026-08-22T00:32:42.000Z</time>
        <extensions>
          <ns3:TrackPointExtension>
            <ns3:hr>124</ns3:hr>
            <ns3:cad>0</ns3:cad>
          </ns3:TrackPointExtension>
        </extensions>
      </trkpt>
      <trkpt lat="45.28636428527534008026123046875" lon="-71.11111164093017578125">
        <ele>713.79998779296875</ele>
        <time>2026-08-22T00:32:43.000Z</time>
        <extensions>
          <ns3:TrackPointExtension>
            <ns3:hr>124</ns3:hr>
            <ns3:cad>0</ns3:cad>
          </ns3:TrackPointExtension>
        </extensions>
      </trkpt>
      <trkpt lat="45.28636143542826175689697265625" lon="-71.1111101321876049041748046875">
        <ele>713.5999755859375</ele>
        <time>2026-08-22T00:32:44.000Z</time>
        <extensions>
          <ns3:TrackPointExtension>
            <ns3:hr>124</ns3:hr>
            <ns3:cad>0</ns3:cad>
          </ns3:TrackPointExtension>
        </extensions>
      </trkpt>
      <trkpt lat="45.28636143542826175689697265625" lon="-71.1111101321876049041748046875">
        <ele>713.4000244140625</ele>
        <time>2026-08-22T00:32:45.000Z</time>
        <extensions>
          <ns3:TrackPointExtension>
            <ns3:hr>125</ns3:hr>
            <ns3:cad>0</ns3:cad>
          </ns3:TrackPointExtension>
        </extensions>
      </trkpt>
      <trkpt lat="45.28636143542826175689697265625" lon="-71.1111101321876049041748046875">
        <ele>713.20001220703125</ele>
        <time>2026-08-22T00:32:46.000Z</time>
        <extensions>
          <ns3:TrackPointExtension>
            <ns3:hr>125</ns3:hr>
            <ns3:cad>0</ns3:cad>
          </ns3:TrackPointExtension>
        </extensions>
      </trkpt>
      <trkpt lat="45.28636143542826175689697265625" lon="-71.1111101321876049041748046875">
        <ele>713</ele>
        <time>2026-08-22T00:32:47.000Z</time>
        <extensions>
          <ns3:TrackPointExtension>
            <ns3:hr>126</ns3:hr>
            <ns3:cad>0</ns3:cad>
          </ns3:TrackPointExtension>
        </extensions>
      </trkpt>
      <trkpt lat="45.28636143542826175689697265625" lon="-71.1111101321876049041748046875">
        <ele>713</ele>
        <time>2026-08-22T00:32:48.000Z</time>
        <extensions>
          <ns3:TrackPointExtension>
            <ns3:hr>126</ns3:hr>
            <ns3:cad>0</ns3:cad>
          </ns3:TrackPointExtension>
        </extensions>
      </trkpt>
      <trkpt lat="45.28636143542826175689697265625" lon="-71.1111101321876049041748046875">
        <ele>713</ele>
        <time>2026-08-22T00:32:49.000Z</time>
        <extensions>
          <ns3:TrackPointExtension>
            <ns3:hr>126</ns3:hr>
            <ns3:cad>0</ns3:cad>
          </ns3:TrackPointExtension>
        </extensions>
      </trkpt>
      <trkpt lat="45.28636143542826175689697265625" lon="-71.1111101321876049041748046875">
        <ele>713</ele>
        <time>2026-08-22T00:32:50.000Z</time>
        <extensions>
          <ns3:TrackPointExtension>
            <ns3:hr>125</ns3:hr>
            <ns3:cad>0</ns3:cad>
          </ns3:TrackPointExtension>
        </extensions>
      </trkpt>
      <trkpt lat="45.28636143542826175689697265625" lon="-71.1111101321876049041748046875">
        <ele>713</ele>
        <time>2026-08-22T00:32:51.000Z</time>
        <extensions>
          <ns3:TrackPointExtension>
            <ns3:hr>124</ns3:hr>
            <ns3:cad>0</ns3:cad>
          </ns3:TrackPointExtension>
        </extensions>
      </trkpt>
      <trkpt lat="45.28636143542826175689697265625" lon="-71.1111101321876049041748046875">
        <ele>713</ele>
        <time>2026-08-22T00:32:52.000Z</time>
        <extensions>
          <ns3:TrackPointExtension>
            <ns3:hr>124</ns3:hr>
            <ns3:cad>0</ns3:cad>
          </ns3:TrackPointExtension>
        </extensions>
      </trkpt>
      <trkpt lat="45.28636143542826175689697265625" lon="-71.1111101321876049041748046875">
        <ele>713.20001220703125</ele>
        <time>2026-08-22T00:32:53.000Z</time>
        <extensions>
          <ns3:TrackPointExtension>
            <ns3:hr>123</ns3:hr>
            <ns3:cad>0</ns3:cad>
          </ns3:TrackPointExtension>
        </extensions>
      </trkpt>
      <trkpt lat="45.28636143542826175689697265625" lon="-71.1111101321876049041748046875">
        <ele>713.20001220703125</ele>
        <time>2026-08-22T00:32:54.000Z</time>
        <extensions>
          <ns3:TrackPointExtension>
            <ns3:hr>123</ns3:hr>
            <ns3:cad>0</ns3:cad>
          </ns3:TrackPointExtension>
        </extensions>
      </trkpt>
      <trkpt lat="45.28636143542826175689697265625" lon="-71.1111101321876049041748046875">
        <ele>713</ele>
        <time>2026-08-22T00:32:55.000Z</time>
        <extensions>
          <ns3:TrackPointExtension>
            <ns3:hr>123</ns3:hr>
            <ns3:cad>0</ns3:cad>
          </ns3:TrackPointExtension>
        </extensions>
      </trkpt>
      <trkpt lat="45.28636143542826175689697265625" lon="-71.1111101321876049041748046875">
        <ele>713</ele>
        <time>2026-08-22T00:32:56.000Z</time>
        <extensions>
          <ns3:TrackPointExtension>
            <ns3:hr>122</ns3:hr>
            <ns3:cad>0</ns3:cad>
          </ns3:TrackPointExtension>
        </extensions>
      </trkpt>
      <trkpt lat="45.28636143542826175689697265625" lon="-71.1111101321876049041748046875">
        <ele>713</ele>
        <time>2026-08-22T00:32:57.000Z</time>
        <extensions>
          <ns3:TrackPointExtension>
            <ns3:hr>122</ns3:hr>
            <ns3:cad>0</ns3:cad>
          </ns3:TrackPointExtension>
        </extensions>
      </trkpt>
      <trkpt lat="45.28636143542826175689697265625" lon="-71.1111101321876049041748046875">
        <ele>713</ele>
        <time>2026-08-22T00:32:58.000Z</time>
        <extensions>
          <ns3:TrackPointExtension>
            <ns3:hr>121</ns3:hr>
            <ns3:cad>0</ns3:cad>
          </ns3:TrackPointExtension>
        </extensions>
      </trkpt>
      <trkpt lat="45.28636143542826175689697265625" lon="-71.1111101321876049041748046875">
        <ele>713</ele>
        <time>2026-08-22T00:32:59.000Z</time>
        <extensions>
          <ns3:TrackPointExtension>
            <ns3:hr>119</ns3:hr>
            <ns3:cad>0</ns3:cad>
          </ns3:TrackPointExtension>
        </extensions>
      </trkpt>
      <trkpt lat="45.28636143542826175689697265625" lon="-71.1111101321876049041748046875">
        <ele>713</ele>
        <time>2026-08-22T00:33:00.000Z</time>
        <extensions>
          <ns3:TrackPointExtension>
            <ns3:hr>114</ns3:hr>
            <ns3:cad>0</ns3:cad>
          </ns3:TrackPointExtension>
        </extensions>
      </trkpt>
      <trkpt lat="45.28636143542826175689697265625" lon="-71.1111101321876049041748046875">
        <ele>713</ele>
        <time>2026-08-22T00:33:01.000Z</time>
        <extensions>
          <ns3:TrackPointExtension>
            <ns3:hr>108</ns3:hr>
            <ns3:cad>0</ns3:cad>
          </ns3:TrackPointExtension>
        </extensions>
      </trkpt>
      <trkpt lat="45.28636143542826175689697265625" lon="-71.1111101321876049041748046875">
        <ele>713</ele>
        <time>2026-08-22T00:33:02.000Z</time>
        <extensions>
          <ns3:TrackPointExtension>
            <ns3:hr>104</ns3:hr>
            <ns3:cad>0</ns3:cad>
          </ns3:TrackPointExtension>
        </extensions>
      </trkpt>
      <trkpt lat="45.28636143542826175689697265625" lon="-71.1111101321876049041748046875">
        <ele>713</ele>
        <time>2026-08-22T00:33:03.000Z</time>
        <extensions>
          <ns3:TrackPointExtension>
            <ns3:hr>103</ns3:hr>
            <ns3:cad>0</ns3:cad>
          </ns3:TrackPointExtension>
        </extensions>
      </trkpt>
      <trkpt lat="45.28636143542826175689697265625" lon="-71.1111101321876049041748046875">
        <ele>713</ele>
        <time>2026-08-22T00:33:04.000Z</time>
        <extensions>
          <ns3:TrackPointExtension>
            <ns3:hr>102</ns3:hr>
            <ns3:cad>0</ns3:cad>
          </ns3:TrackPointExtension>
        </extensions>
      </trkpt>
      <trkpt lat="45.28636143542826175689697265625" lon="-71.1111101321876049041748046875">
        <ele>713</ele>
        <time>2026-08-22T00:33:05.000Z</time>
        <extensions>
          <ns3:TrackPointExtension>
            <ns3:hr>102</ns3:hr>
            <ns3:cad>0</ns3:cad>
          </ns3:TrackPointExtension>
        </extensions>
      </trkpt>
      <trkpt lat="45.28636143542826175689697265625" lon="-71.1111101321876049041748046875">
        <ele>713</ele>
        <time>2026-08-22T00:33:06.000Z</time>
        <extensions>
          <ns3:TrackPointExtension>
            <ns3:hr>103</ns3:hr>
            <ns3:cad>0</ns3:cad>
          </ns3:TrackPointExtension>
        </extensions>
      </trkpt>
      <trkpt lat="45.28636143542826175689697265625" lon="-71.1111101321876049041748046875">
        <ele>713</ele>
        <time>2026-08-22T00:33:07.000Z</time>
        <extensions>
          <ns3:TrackPointExtension>
            <ns3:hr>103</ns3:hr>
            <ns3:cad>0</ns3:cad>
          </ns3:TrackPointExtension>
        </extensions>
      </trkpt>
      <trkpt lat="45.28636143542826175689697265625" lon="-71.1111101321876049041748046875">
        <ele>713.20001220703125</ele>
        <time>2026-08-22T00:33:08.000Z</time>
        <extensions>
          <ns3:TrackPointExtension>
            <ns3:hr>103</ns3:hr>
            <ns3:cad>0</ns3:cad>
          </ns3:TrackPointExtension>
        </extensions>
      </trkpt>
      <trkpt lat="45.28636143542826175689697265625" lon="-71.1111101321876049041748046875">
        <ele>713.20001220703125</ele>
        <time>2026-08-22T00:33:09.000Z</time>
        <extensions>
          <ns3:TrackPointExtension>
            <ns3:hr>103</ns3:hr>
            <ns3:cad>0</ns3:cad>
          </ns3:TrackPointExtension>
        </extensions>
      </trkpt>
      <trkpt lat="45.28636143542826175689697265625" lon="-71.1111101321876049041748046875">
        <ele>713.20001220703125</ele>
        <time>2026-08-22T00:33:10.000Z</time>
        <extensions>
          <ns3:TrackPointExtension>
            <ns3:hr>102</ns3:hr>
            <ns3:cad>0</ns3:cad>
          </ns3:TrackPointExtension>
        </extensions>
      </trkpt>
      <trkpt lat="45.28636143542826175689697265625" lon="-71.1111101321876049041748046875">
        <ele>713.20001220703125</ele>
        <time>2026-08-22T00:33:11.000Z</time>
        <extensions>
          <ns3:TrackPointExtension>
            <ns3:hr>102</ns3:hr>
            <ns3:cad>0</ns3:cad>
          </ns3:TrackPointExtension>
        </extensions>
      </trkpt>
      <trkpt lat="45.28636143542826175689697265625" lon="-71.1111101321876049041748046875">
        <ele>713.20001220703125</ele>
        <time>2026-08-22T00:33:12.000Z</time>
        <extensions>
          <ns3:TrackPointExtension>
            <ns3:hr>102</ns3:hr>
            <ns3:cad>0</ns3:cad>
          </ns3:TrackPointExtension>
        </extensions>
      </trkpt>
      <trkpt lat="45.28636143542826175689697265625" lon="-71.1111101321876049041748046875">
        <ele>713</ele>
        <time>2026-08-22T00:33:13.000Z</time>
        <extensions>
          <ns3:TrackPointExtension>
            <ns3:hr>102</ns3:hr>
            <ns3:cad>0</ns3:cad>
          </ns3:TrackPointExtension>
        </extensions>
      </trkpt>
      <trkpt lat="45.28636143542826175689697265625" lon="-71.1111101321876049041748046875">
        <ele>713</ele>
        <time>2026-08-22T00:33:14.000Z</time>
        <extensions>
          <ns3:TrackPointExtension>
            <ns3:hr>102</ns3:hr>
            <ns3:cad>0</ns3:cad>
          </ns3:TrackPointExtension>
        </extensions>
      </trkpt>
      <trkpt lat="45.28636143542826175689697265625" lon="-71.1111101321876049041748046875">
        <ele>713</ele>
        <time>2026-08-22T00:33:15.000Z</time>
        <extensions>
          <ns3:TrackPointExtension>
            <ns3:hr>102</ns3:hr>
            <ns3:cad>0</ns3:cad>
          </ns3:TrackPointExtension>
        </extensions>
      </trkpt>
      <trkpt lat="45.28636143542826175689697265625" lon="-71.1111101321876049041748046875">
        <ele>713</ele>
        <time>2026-08-22T00:33:16.000Z</time>
        <extensions>
          <ns3:TrackPointExtension>
            <ns3:hr>102</ns3:hr>
            <ns3:cad>0</ns3:cad>
          </ns3:TrackPointExtension>
        </extensions>
      </trkpt>
      <trkpt lat="45.28636143542826175689697265625" lon="-71.1111101321876049041748046875">
        <ele>713</ele>
        <time>2026-08-22T00:33:17.000Z</time>
        <extensions>
          <ns3:TrackPointExtension>
            <ns3:hr>101</ns3:hr>
            <ns3:cad>0</ns3:cad>
          </ns3:TrackPointExtension>
        </extensions>
      </trkpt>
      <trkpt lat="45.28636143542826175689697265625" lon="-71.1111101321876049041748046875">
        <ele>713</ele>
        <time>2026-08-22T00:33:18.000Z</time>
        <extensions>
          <ns3:TrackPointExtension>
            <ns3:hr>101</ns3:hr>
            <ns3:cad>0</ns3:cad>
          </ns3:TrackPointExtension>
        </extensions>
      </trkpt>
      <trkpt lat="45.28636143542826175689697265625" lon="-71.1111101321876049041748046875">
        <ele>713.20001220703125</ele>
        <time>2026-08-22T00:33:19.000Z</time>
        <extensions>
          <ns3:TrackPointExtension>
            <ns3:hr>100</ns3:hr>
            <ns3:cad>0</ns3:cad>
          </ns3:TrackPointExtension>
        </extensions>
      </trkpt>
      <trkpt lat="45.28636143542826175689697265625" lon="-71.1111101321876049041748046875">
        <ele>713.20001220703125</ele>
        <time>2026-08-22T00:33:20.000Z</time>
        <extensions>
          <ns3:TrackPointExtension>
            <ns3:hr>100</ns3:hr>
            <ns3:cad>0</ns3:cad>
          </ns3:TrackPointExtension>
        </extensions>
      </trkpt>
      <trkpt lat="45.28636143542826175689697265625" lon="-71.1111101321876049041748046875">
        <ele>713.20001220703125</ele>
        <time>2026-08-22T00:33:21.000Z</time>
        <extensions>
          <ns3:TrackPointExtension>
            <ns3:hr>100</ns3:hr>
            <ns3:cad>0</ns3:cad>
          </ns3:TrackPointExtension>
        </extensions>
      </trkpt>
      <trkpt lat="45.28636143542826175689697265625" lon="-71.1111101321876049041748046875">
        <ele>713.20001220703125</ele>
        <time>2026-08-22T00:33:22.000Z</time>
        <extensions>
          <ns3:TrackPointExtension>
            <ns3:hr>101</ns3:hr>
            <ns3:cad>0</ns3:cad>
          </ns3:TrackPointExtension>
        </extensions>
      </trkpt>
      <trkpt lat="45.28636143542826175689697265625" lon="-71.1111101321876049041748046875">
        <ele>713.20001220703125</ele>
        <time>2026-08-22T00:33:23.000Z</time>
        <extensions>
          <ns3:TrackPointExtension>
            <ns3:hr>101</ns3:hr>
            <ns3:cad>0</ns3:cad>
          </ns3:TrackPointExtension>
        </extensions>
      </trkpt>
      <trkpt lat="45.28636143542826175689697265625" lon="-71.1111101321876049041748046875">
        <ele>713.20001220703125</ele>
        <time>2026-08-22T00:33:24.000Z</time>
        <extensions>
          <ns3:TrackPointExtension>
            <ns3:hr>101</ns3:hr>
            <ns3:cad>0</ns3:cad>
          </ns3:TrackPointExtension>
        </extensions>
      </trkpt>
      <trkpt lat="45.28636143542826175689697265625" lon="-71.1111101321876049041748046875">
        <ele>713.20001220703125</ele>
        <time>2026-08-22T00:33:25.000Z</time>
        <extensions>
          <ns3:TrackPointExtension>
            <ns3:hr>101</ns3:hr>
            <ns3:cad>0</ns3:cad>
          </ns3:TrackPointExtension>
        </extensions>
      </trkpt>
      <trkpt lat="45.28636143542826175689697265625" lon="-71.1111101321876049041748046875">
        <ele>713</ele>
        <time>2026-08-22T00:33:26.000Z</time>
        <extensions>
          <ns3:TrackPointExtension>
            <ns3:hr>102</ns3:hr>
            <ns3:cad>0</ns3:cad>
          </ns3:TrackPointExtension>
        </extensions>
      </trkpt>
      <trkpt lat="45.28636143542826175689697265625" lon="-71.1111101321876049041748046875">
        <ele>713</ele>
        <time>2026-08-22T00:33:27.000Z</time>
        <extensions>
          <ns3:TrackPointExtension>
            <ns3:hr>102</ns3:hr>
            <ns3:cad>0</ns3:cad>
          </ns3:TrackPointExtension>
        </extensions>
      </trkpt>
      <trkpt lat="45.28636143542826175689697265625" lon="-71.1111101321876049041748046875">
        <ele>713</ele>
        <time>2026-08-22T00:33:28.000Z</time>
        <extensions>
          <ns3:TrackPointExtension>
            <ns3:hr>102</ns3:hr>
            <ns3:cad>0</ns3:cad>
          </ns3:TrackPointExtension>
        </extensions>
      </trkpt>
      <trkpt lat="45.28636143542826175689697265625" lon="-71.1111101321876049041748046875">
        <ele>713</ele>
        <time>2026-08-22T00:33:29.000Z</time>
        <extensions>
          <ns3:TrackPointExtension>
            <ns3:hr>102</ns3:hr>
            <ns3:cad>0</ns3:cad>
          </ns3:TrackPointExtension>
        </extensions>
      </trkpt>
      <trkpt lat="45.28636143542826175689697265625" lon="-71.1111101321876049041748046875">
        <ele>712.79998779296875</ele>
        <time>2026-08-22T00:33:30.000Z</time>
        <extensions>
          <ns3:TrackPointExtension>
            <ns3:hr>101</ns3:hr>
            <ns3:cad>0</ns3:cad>
          </ns3:TrackPointExtension>
        </extensions>
      </trkpt>
      <trkpt lat="45.28636143542826175689697265625" lon="-71.1111101321876049041748046875">
        <ele>712.79998779296875</ele>
        <time>2026-08-22T00:33:31.000Z</time>
        <extensions>
          <ns3:TrackPointExtension>
            <ns3:hr>99</ns3:hr>
            <ns3:cad>0</ns3:cad>
          </ns3:TrackPointExtension>
        </extensions>
      </trkpt>
      <trkpt lat="45.28636143542826175689697265625" lon="-71.1111101321876049041748046875">
        <ele>712.79998779296875</ele>
        <time>2026-08-22T00:33:32.000Z</time>
        <extensions>
          <ns3:TrackPointExtension>
            <ns3:hr>98</ns3:hr>
            <ns3:cad>0</ns3:cad>
          </ns3:TrackPointExtension>
        </extensions>
      </trkpt>
      <trkpt lat="45.28636143542826175689697265625" lon="-71.1111101321876049041748046875">
        <ele>712.79998779296875</ele>
        <time>2026-08-22T00:33:33.000Z</time>
        <extensions>
          <ns3:TrackPointExtension>
            <ns3:hr>98</ns3:hr>
            <ns3:cad>0</ns3:cad>
          </ns3:TrackPointExtension>
        </extensions>
      </trkpt>
      <trkpt lat="45.28636143542826175689697265625" lon="-71.1111101321876049041748046875">
        <ele>712.79998779296875</ele>
        <time>2026-08-22T00:33:34.000Z</time>
        <extensions>
          <ns3:TrackPointExtension>
            <ns3:hr>98</ns3:hr>
            <ns3:cad>0</ns3:cad>
          </ns3:TrackPointExtension>
        </extensions>
      </trkpt>
      <trkpt lat="45.28636143542826175689697265625" lon="-71.1111101321876049041748046875">
        <ele>712.79998779296875</ele>
        <time>2026-08-22T00:33:35.000Z</time>
        <extensions>
          <ns3:TrackPointExtension>
            <ns3:hr>98</ns3:hr>
            <ns3:cad>0</ns3:cad>
          </ns3:TrackPointExtension>
        </extensions>
      </trkpt>
      <trkpt lat="45.28636143542826175689697265625" lon="-71.1111101321876049041748046875">
        <ele>712.79998779296875</ele>
        <time>2026-08-22T00:33:36.000Z</time>
        <extensions>
          <ns3:TrackPointExtension>
            <ns3:hr>97</ns3:hr>
            <ns3:cad>0</ns3:cad>
          </ns3:TrackPointExtension>
        </extensions>
      </trkpt>
      <trkpt lat="45.28636143542826175689697265625" lon="-71.1111101321876049041748046875">
        <ele>712.79998779296875</ele>
        <time>2026-08-22T00:33:37.000Z</time>
        <extensions>
          <ns3:TrackPointExtension>
            <ns3:hr>96</ns3:hr>
            <ns3:cad>0</ns3:cad>
          </ns3:TrackPointExtension>
        </extensions>
      </trkpt>
      <trkpt lat="45.28636143542826175689697265625" lon="-71.1111101321876049041748046875">
        <ele>712.79998779296875</ele>
        <time>2026-08-22T00:33:38.000Z</time>
        <extensions>
          <ns3:TrackPointExtension>
            <ns3:hr>96</ns3:hr>
            <ns3:cad>0</ns3:cad>
          </ns3:TrackPointExtension>
        </extensions>
      </trkpt>
      <trkpt lat="45.28636143542826175689697265625" lon="-71.1111101321876049041748046875">
        <ele>712.79998779296875</ele>
        <time>2026-08-22T00:33:39.000Z</time>
        <extensions>
          <ns3:TrackPointExtension>
            <ns3:hr>96</ns3:hr>
            <ns3:cad>0</ns3:cad>
          </ns3:TrackPointExtension>
        </extensions>
      </trkpt>
      <trkpt lat="45.28636143542826175689697265625" lon="-71.1111101321876049041748046875">
        <ele>712.79998779296875</ele>
        <time>2026-08-22T00:33:40.000Z</time>
        <extensions>
          <ns3:TrackPointExtension>
            <ns3:hr>96</ns3:hr>
            <ns3:cad>0</ns3:cad>
          </ns3:TrackPointExtension>
        </extensions>
      </trkpt>
      <trkpt lat="45.28636143542826175689697265625" lon="-71.1111101321876049041748046875">
        <ele>712.79998779296875</ele>
        <time>2026-08-22T00:33:41.000Z</time>
        <extensions>
          <ns3:TrackPointExtension>
            <ns3:hr>96</ns3:hr>
            <ns3:cad>0</ns3:cad>
          </ns3:TrackPointExtension>
        </extensions>
      </trkpt>
      <trkpt lat="45.28636143542826175689697265625" lon="-71.1111101321876049041748046875">
        <ele>712.79998779296875</ele>
        <time>2026-08-22T00:33:42.000Z</time>
        <extensions>
          <ns3:TrackPointExtension>
            <ns3:hr>96</ns3:hr>
            <ns3:cad>0</ns3:cad>
          </ns3:TrackPointExtension>
        </extensions>
      </trkpt>
      <trkpt lat="45.28636143542826175689697265625" lon="-71.1111101321876049041748046875">
        <ele>712.79998779296875</ele>
        <time>2026-08-22T00:33:43.000Z</time>
        <extensions>
          <ns3:TrackPointExtension>
            <ns3:hr>96</ns3:hr>
            <ns3:cad>0</ns3:cad>
          </ns3:TrackPointExtension>
        </extensions>
      </trkpt>
      <trkpt lat="45.28636143542826175689697265625" lon="-71.1111101321876049041748046875">
        <ele>712.79998779296875</ele>
        <time>2026-08-22T00:33:44.000Z</time>
        <extensions>
          <ns3:TrackPointExtension>
            <ns3:hr>94</ns3:hr>
            <ns3:cad>0</ns3:cad>
          </ns3:TrackPointExtension>
        </extensions>
      </trkpt>
      <trkpt lat="45.28636143542826175689697265625" lon="-71.1111101321876049041748046875">
        <ele>713</ele>
        <time>2026-08-22T00:33:45.000Z</time>
        <extensions>
          <ns3:TrackPointExtension>
            <ns3:hr>91</ns3:hr>
            <ns3:cad>0</ns3:cad>
          </ns3:TrackPointExtension>
        </extensions>
      </trkpt>
      <trkpt lat="45.28636143542826175689697265625" lon="-71.1111101321876049041748046875">
        <ele>713</ele>
        <time>2026-08-22T00:33:46.000Z</time>
        <extensions>
          <ns3:TrackPointExtension>
            <ns3:hr>91</ns3:hr>
            <ns3:cad>0</ns3:cad>
          </ns3:TrackPointExtension>
        </extensions>
      </trkpt>
      <trkpt lat="45.28636143542826175689697265625" lon="-71.1111101321876049041748046875">
        <ele>713</ele>
        <time>2026-08-22T00:33:47.000Z</time>
        <extensions>
          <ns3:TrackPointExtension>
            <ns3:hr>91</ns3:hr>
            <ns3:cad>0</ns3:cad>
          </ns3:TrackPointExtension>
        </extensions>
      </trkpt>
      <trkpt lat="45.28636143542826175689697265625" lon="-71.1111101321876049041748046875">
        <ele>713</ele>
        <time>2026-08-22T00:33:48.000Z</time>
        <extensions>
          <ns3:TrackPointExtension>
            <ns3:hr>91</ns3:hr>
            <ns3:cad>0</ns3:cad>
          </ns3:TrackPointExtension>
        </extensions>
      </trkpt>
      <trkpt lat="45.28636143542826175689697265625" lon="-71.1111101321876049041748046875">
        <ele>713</ele>
        <time>2026-08-22T00:33:49.000Z</time>
        <extensions>
          <ns3:TrackPointExtension>
            <ns3:hr>91</ns3:hr>
            <ns3:cad>0</ns3:cad>
          </ns3:TrackPointExtension>
        </extensions>
      </trkpt>
      <trkpt lat="45.28636143542826175689697265625" lon="-71.1111101321876049041748046875">
        <ele>713.20001220703125</ele>
        <time>2026-08-22T00:33:50.000Z</time>
        <extensions>
          <ns3:TrackPointExtension>
            <ns3:hr>92</ns3:hr>
            <ns3:cad>0</ns3:cad>
          </ns3:TrackPointExtension>
        </extensions>
      </trkpt>
      <trkpt lat="45.28636143542826175689697265625" lon="-71.1111101321876049041748046875">
        <ele>713.20001220703125</ele>
        <time>2026-08-22T00:33:51.000Z</time>
        <extensions>
          <ns3:TrackPointExtension>
            <ns3:hr>93</ns3:hr>
            <ns3:cad>0</ns3:cad>
          </ns3:TrackPointExtension>
        </extensions>
      </trkpt>
      <trkpt lat="45.28636143542826175689697265625" lon="-71.1111101321876049041748046875">
        <ele>713.4000244140625</ele>
        <time>2026-08-22T00:33:52.000Z</time>
        <extensions>
          <ns3:TrackPointExtension>
            <ns3:hr>93</ns3:hr>
            <ns3:cad>0</ns3:cad>
          </ns3:TrackPointExtension>
        </extensions>
      </trkpt>
      <trkpt lat="45.28636143542826175689697265625" lon="-71.1111101321876049041748046875">
        <ele>713.5999755859375</ele>
        <time>2026-08-22T00:33:53.000Z</time>
        <extensions>
          <ns3:TrackPointExtension>
            <ns3:hr>94</ns3:hr>
            <ns3:cad>0</ns3:cad>
          </ns3:TrackPointExtension>
        </extensions>
      </trkpt>
      <trkpt lat="45.28636143542826175689697265625" lon="-71.1111101321876049041748046875">
        <ele>713.5999755859375</ele>
        <time>2026-08-22T00:33:54.000Z</time>
        <extensions>
          <ns3:TrackPointExtension>
            <ns3:hr>94</ns3:hr>
            <ns3:cad>0</ns3:cad>
          </ns3:TrackPointExtension>
        </extensions>
      </trkpt>
      <trkpt lat="45.28636143542826175689697265625" lon="-71.1111101321876049041748046875">
        <ele>713.5999755859375</ele>
        <time>2026-08-22T00:33:55.000Z</time>
        <extensions>
          <ns3:TrackPointExtension>
            <ns3:hr>94</ns3:hr>
            <ns3:cad>0</ns3:cad>
          </ns3:TrackPointExtension>
        </extensions>
      </trkpt>
      <trkpt lat="45.28636143542826175689697265625" lon="-71.1111101321876049041748046875">
        <ele>713.4000244140625</ele>
        <time>2026-08-22T00:33:56.000Z</time>
        <extensions>
          <ns3:TrackPointExtension>
            <ns3:hr>94</ns3:hr>
            <ns3:cad>0</ns3:cad>
          </ns3:TrackPointExtension>
        </extensions>
      </trkpt>
      <trkpt lat="45.28636143542826175689697265625" lon="-71.1111101321876049041748046875">
        <ele>713.4000244140625</ele>
        <time>2026-08-22T00:33:57.000Z</time>
        <extensions>
          <ns3:TrackPointExtension>
            <ns3:hr>94</ns3:hr>
            <ns3:cad>0</ns3:cad>
          </ns3:TrackPointExtension>
        </extensions>
      </trkpt>
      <trkpt lat="45.28636143542826175689697265625" lon="-71.1111101321876049041748046875">
        <ele>713.4000244140625</ele>
        <time>2026-08-22T00:33:58.000Z</time>
        <extensions>
          <ns3:TrackPointExtension>
            <ns3:hr>93</ns3:hr>
            <ns3:cad>40</ns3:cad>
          </ns3:TrackPointExtension>
        </extensions>
      </trkpt>
      <trkpt lat="45.286366045475006103515625" lon="-71.1111091263592243194580078125">
        <ele>713.5999755859375</ele>
        <time>2026-08-22T00:33:59.000Z</time>
        <extensions>
          <ns3:TrackPointExtension>
            <ns3:hr>94</ns3:hr>
            <ns3:cad>40</ns3:cad>
          </ns3:TrackPointExtension>
        </extensions>
      </trkpt>
      <trkpt lat="45.28636663220822811126708984375" lon="-71.11111122183501720428466796875">
        <ele>713.5999755859375</ele>
        <time>2026-08-22T00:34:00.000Z</time>
        <extensions>
          <ns3:TrackPointExtension>
            <ns3:hr>94</ns3:hr>
            <ns3:cad>40</ns3:cad>
          </ns3:TrackPointExtension>
        </extensions>
      </trkpt>
      <trkpt lat="45.28636671602725982666015625" lon="-71.1111114732921123504638671875">
        <ele>713.79998779296875</ele>
        <time>2026-08-22T00:34:01.000Z</time>
        <extensions>
          <ns3:TrackPointExtension>
            <ns3:hr>96</ns3:hr>
            <ns3:cad>40</ns3:cad>
          </ns3:TrackPointExtension>
        </extensions>
      </trkpt>
      <trkpt lat="45.2863695658743381500244140625" lon="-71.11111189238727092742919921875">
        <ele>713.79998779296875</ele>
        <time>2026-08-22T00:34:02.000Z</time>
        <extensions>
          <ns3:TrackPointExtension>
            <ns3:hr>97</ns3:hr>
            <ns3:cad>0</ns3:cad>
          </ns3:TrackPointExtension>
        </extensions>
      </trkpt>
      <trkpt lat="45.28636948205530643463134765625" lon="-71.11111206002533435821533203125">
        <ele>714</ele>
        <time>2026-08-22T00:34:03.000Z</time>
        <extensions>
          <ns3:TrackPointExtension>
            <ns3:hr>97</ns3:hr>
            <ns3:cad>0</ns3:cad>
          </ns3:TrackPointExtension>
        </extensions>
      </trkpt>
      <trkpt lat="45.28637149371206760406494140625" lon="-71.111111305654048919677734375">
        <ele>714</ele>
        <time>2026-08-22T00:34:04.000Z</time>
        <extensions>
          <ns3:TrackPointExtension>
            <ns3:hr>97</ns3:hr>
            <ns3:cad>0</ns3:cad>
          </ns3:TrackPointExtension>
        </extensions>
      </trkpt>
      <trkpt lat="45.28636143542826175689697265625" lon="-71.1111101321876049041748046875">
        <ele>714</ele>
        <time>2026-08-22T00:34:05.000Z</time>
        <extensions>
          <ns3:TrackPointExtension>
            <ns3:hr>97</ns3:hr>
            <ns3:cad>0</ns3:cad>
          </ns3:TrackPointExtension>
        </extensions>
      </trkpt>
      <trkpt lat="45.28636143542826175689697265625" lon="-71.1111101321876049041748046875">
        <ele>714</ele>
        <time>2026-08-22T00:34:06.000Z</time>
        <extensions>
          <ns3:TrackPointExtension>
            <ns3:hr>97</ns3:hr>
            <ns3:cad>0</ns3:cad>
          </ns3:TrackPointExtension>
        </extensions>
      </trkpt>
      <trkpt lat="45.28636143542826175689697265625" lon="-71.1111101321876049041748046875">
        <ele>714.20001220703125</ele>
        <time>2026-08-22T00:34:07.000Z</time>
        <extensions>
          <ns3:TrackPointExtension>
            <ns3:hr>97</ns3:hr>
            <ns3:cad>0</ns3:cad>
          </ns3:TrackPointExtension>
        </extensions>
      </trkpt>
      <trkpt lat="45.28636143542826175689697265625" lon="-71.1111101321876049041748046875">
        <ele>714.20001220703125</ele>
        <time>2026-08-22T00:34:08.000Z</time>
        <extensions>
          <ns3:TrackPointExtension>
            <ns3:hr>97</ns3:hr>
            <ns3:cad>0</ns3:cad>
          </ns3:TrackPointExtension>
        </extensions>
      </trkpt>
      <trkpt lat="45.28636143542826175689697265625" lon="-71.1111101321876049041748046875">
        <ele>714.20001220703125</ele>
        <time>2026-08-22T00:34:09.000Z</time>
        <extensions>
          <ns3:TrackPointExtension>
            <ns3:hr>97</ns3:hr>
            <ns3:cad>0</ns3:cad>
          </ns3:TrackPointExtension>
        </extensions>
      </trkpt>
      <trkpt lat="45.28636143542826175689697265625" lon="-71.1111101321876049041748046875">
        <ele>714.20001220703125</ele>
        <time>2026-08-22T00:34:10.000Z</time>
        <extensions>
          <ns3:TrackPointExtension>
            <ns3:hr>96</ns3:hr>
            <ns3:cad>0</ns3:cad>
          </ns3:TrackPointExtension>
        </extensions>
      </trkpt>
      <trkpt lat="45.28636143542826175689697265625" lon="-71.1111101321876049041748046875">
        <ele>714.20001220703125</ele>
        <time>2026-08-22T00:34:11.000Z</time>
        <extensions>
          <ns3:TrackPointExtension>
            <ns3:hr>97</ns3:hr>
            <ns3:cad>0</ns3:cad>
          </ns3:TrackPointExtension>
        </extensions>
      </trkpt>
      <trkpt lat="45.28636143542826175689697265625" lon="-71.1111101321876049041748046875">
        <ele>714</ele>
        <time>2026-08-22T00:34:12.000Z</time>
        <extensions>
          <ns3:TrackPointExtension>
            <ns3:hr>97</ns3:hr>
            <ns3:cad>0</ns3:cad>
          </ns3:TrackPointExtension>
        </extensions>
      </trkpt>
      <trkpt lat="45.28636143542826175689697265625" lon="-71.1111101321876049041748046875">
        <ele>714</ele>
        <time>2026-08-22T00:34:13.000Z</time>
        <extensions>
          <ns3:TrackPointExtension>
            <ns3:hr>97</ns3:hr>
            <ns3:cad>0</ns3:cad>
          </ns3:TrackPointExtension>
        </extensions>
      </trkpt>
      <trkpt lat="45.28636143542826175689697265625" lon="-71.1111101321876049041748046875">
        <ele>714</ele>
        <time>2026-08-22T00:34:14.000Z</time>
        <extensions>
          <ns3:TrackPointExtension>
            <ns3:hr>97</ns3:hr>
            <ns3:cad>0</ns3:cad>
          </ns3:TrackPointExtension>
        </extensions>
      </trkpt>
      <trkpt lat="45.28636143542826175689697265625" lon="-71.1111101321876049041748046875">
        <ele>714</ele>
        <time>2026-08-22T00:34:15.000Z</time>
        <extensions>
          <ns3:TrackPointExtension>
            <ns3:hr>97</ns3:hr>
            <ns3:cad>0</ns3:cad>
          </ns3:TrackPointExtension>
        </extensions>
      </trkpt>
      <trkpt lat="45.28636143542826175689697265625" lon="-71.1111101321876049041748046875">
        <ele>714</ele>
        <time>2026-08-22T00:34:16.000Z</time>
        <extensions>
          <ns3:TrackPointExtension>
            <ns3:hr>96</ns3:hr>
            <ns3:cad>0</ns3:cad>
          </ns3:TrackPointExtension>
        </extensions>
      </trkpt>
      <trkpt lat="45.28636143542826175689697265625" lon="-71.1111101321876049041748046875">
        <ele>714</ele>
        <time>2026-08-22T00:34:17.000Z</time>
        <extensions>
          <ns3:TrackPointExtension>
            <ns3:hr>96</ns3:hr>
            <ns3:cad>0</ns3:cad>
          </ns3:TrackPointExtension>
        </extensions>
      </trkpt>
      <trkpt lat="45.2863735891878604888916015625" lon="-71.11110962927341461181640625">
        <ele>714</ele>
        <time>2026-08-22T00:34:18.000Z</time>
        <extensions>
          <ns3:TrackPointExtension>
            <ns3:hr>95</ns3:hr>
            <ns3:cad>0</ns3:cad>
          </ns3:TrackPointExtension>
        </extensions>
      </trkpt>
      <trkpt lat="45.2863772772252559661865234375" lon="-71.1111084558069705963134765625">
        <ele>714</ele>
        <time>2026-08-22T00:34:19.000Z</time>
        <extensions>
          <ns3:TrackPointExtension>
            <ns3:hr>95</ns3:hr>
            <ns3:cad>0</ns3:cad>
          </ns3:TrackPointExtension>
        </extensions>
      </trkpt>
      <trkpt lat="45.28637853451073169708251953125" lon="-71.11111893318593502044677734375">
        <ele>714</ele>
        <time>2026-08-22T00:34:20.000Z</time>
        <extensions>
          <ns3:TrackPointExtension>
            <ns3:hr>95</ns3:hr>
            <ns3:cad>0</ns3:cad>
          </ns3:TrackPointExtension>
        </extensions>
      </trkpt>
      <trkpt lat="45.28637568466365337371826171875" lon="-71.11112169921398162841796875">
        <ele>714</ele>
        <time>2026-08-22T00:34:21.000Z</time>
        <extensions>
          <ns3:TrackPointExtension>
            <ns3:hr>94</ns3:hr>
            <ns3:cad>0</ns3:cad>
          </ns3:TrackPointExtension>
        </extensions>
      </trkpt>
      <trkpt lat="45.2863759361207485198974609375" lon="-71.11111977137625217437744140625">
        <ele>714</ele>
        <time>2026-08-22T00:34:22.000Z</time>
        <extensions>
          <ns3:TrackPointExtension>
            <ns3:hr>94</ns3:hr>
            <ns3:cad>0</ns3:cad>
          </ns3:TrackPointExtension>
        </extensions>
      </trkpt>
      <trkpt lat="45.28637099079787731170654296875" lon="-71.11111826263368129730224609375">
        <ele>714</ele>
        <time>2026-08-22T00:34:23.000Z</time>
        <extensions>
          <ns3:TrackPointExtension>
            <ns3:hr>94</ns3:hr>
            <ns3:cad>0</ns3:cad>
          </ns3:TrackPointExtension>
        </extensions>
      </trkpt>
      <trkpt lat="45.2863709069788455963134765625" lon="-71.111119687557220458984375">
        <ele>714</ele>
        <time>2026-08-22T00:34:24.000Z</time>
        <extensions>
          <ns3:TrackPointExtension>
            <ns3:hr>94</ns3:hr>
            <ns3:cad>0</ns3:cad>
          </ns3:TrackPointExtension>
        </extensions>
      </trkpt>
      <trkpt lat="45.28636998496949672698974609375" lon="-71.11111943610012531280517578125">
        <ele>713.79998779296875</ele>
        <time>2026-08-22T00:34:25.000Z</time>
        <extensions>
          <ns3:TrackPointExtension>
            <ns3:hr>94</ns3:hr>
            <ns3:cad>0</ns3:cad>
          </ns3:TrackPointExtension>
        </extensions>
      </trkpt>
      <trkpt lat="45.28636143542826175689697265625" lon="-71.1111101321876049041748046875">
        <ele>713.5999755859375</ele>
        <time>2026-08-22T00:34:26.000Z</time>
        <extensions>
          <ns3:TrackPointExtension>
            <ns3:hr>93</ns3:hr>
            <ns3:cad>0</ns3:cad>
          </ns3:TrackPointExtension>
        </extensions>
      </trkpt>
      <trkpt lat="45.28636143542826175689697265625" lon="-71.1111101321876049041748046875">
        <ele>713.4000244140625</ele>
        <time>2026-08-22T00:34:27.000Z</time>
        <extensions>
          <ns3:TrackPointExtension>
            <ns3:hr>93</ns3:hr>
            <ns3:cad>0</ns3:cad>
          </ns3:TrackPointExtension>
        </extensions>
      </trkpt>
      <trkpt lat="45.28636143542826175689697265625" lon="-71.1111101321876049041748046875">
        <ele>713.20001220703125</ele>
        <time>2026-08-22T00:34:28.000Z</time>
        <extensions>
          <ns3:TrackPointExtension>
            <ns3:hr>93</ns3:hr>
            <ns3:cad>0</ns3:cad>
          </ns3:TrackPointExtension>
        </extensions>
      </trkpt>
      <trkpt lat="45.28636143542826175689697265625" lon="-71.1111101321876049041748046875">
        <ele>713</ele>
        <time>2026-08-22T00:34:29.000Z</time>
        <extensions>
          <ns3:TrackPointExtension>
            <ns3:hr>94</ns3:hr>
            <ns3:cad>0</ns3:cad>
          </ns3:TrackPointExtension>
        </extensions>
      </trkpt>
      <trkpt lat="45.28636143542826175689697265625" lon="-71.1111101321876049041748046875">
        <ele>712.79998779296875</ele>
        <time>2026-08-22T00:34:30.000Z</time>
        <extensions>
          <ns3:TrackPointExtension>
            <ns3:hr>94</ns3:hr>
            <ns3:cad>0</ns3:cad>
          </ns3:TrackPointExtension>
        </extensions>
      </trkpt>
      <trkpt lat="45.28636143542826175689697265625" lon="-71.1111101321876049041748046875">
        <ele>712.79998779296875</ele>
        <time>2026-08-22T00:34:31.000Z</time>
        <extensions>
          <ns3:TrackPointExtension>
            <ns3:hr>93</ns3:hr>
            <ns3:cad>71</ns3:cad>
          </ns3:TrackPointExtension>
        </extensions>
      </trkpt>
      <trkpt lat="45.2863673865795135498046875" lon="-71.1111215315759181976318359375">
        <ele>712.79998779296875</ele>
        <time>2026-08-22T00:34:32.000Z</time>
        <extensions>
          <ns3:TrackPointExtension>
            <ns3:hr>92</ns3:hr>
            <ns3:cad>71</ns3:cad>
          </ns3:TrackPointExtension>
        </extensions>
      </trkpt>
      <trkpt lat="45.28635892085731029510498046875" lon="-71.11112228594720363616943359375">
        <ele>712.79998779296875</ele>
        <time>2026-08-22T00:34:33.000Z</time>
        <extensions>
          <ns3:TrackPointExtension>
            <ns3:hr>91</ns3:hr>
            <ns3:cad>71</ns3:cad>
          </ns3:TrackPointExtension>
        </extensions>
      </trkpt>
      <trkpt lat="45.28636143542826175689697265625" lon="-71.1111101321876049041748046875">
        <ele>713</ele>
        <time>2026-08-22T00:34:34.000Z</time>
        <extensions>
          <ns3:TrackPointExtension>
            <ns3:hr>91</ns3:hr>
            <ns3:cad>0</ns3:cad>
          </ns3:TrackPointExtension>
        </extensions>
      </trkpt>
      <trkpt lat="45.28636143542826175689697265625" lon="-71.1111101321876049041748046875">
        <ele>713</ele>
        <time>2026-08-22T00:34:35.000Z</time>
        <extensions>
          <ns3:TrackPointExtension>
            <ns3:hr>91</ns3:hr>
            <ns3:cad>0</ns3:cad>
          </ns3:TrackPointExtension>
        </extensions>
      </trkpt>
      <trkpt lat="45.28636143542826175689697265625" lon="-71.1111101321876049041748046875">
        <ele>712.79998779296875</ele>
        <time>2026-08-22T00:34:36.000Z</time>
        <extensions>
          <ns3:TrackPointExtension>
            <ns3:hr>90</ns3:hr>
            <ns3:cad>0</ns3:cad>
          </ns3:TrackPointExtension>
        </extensions>
      </trkpt>
      <trkpt lat="45.28636143542826175689697265625" lon="-71.1111101321876049041748046875">
        <ele>712.79998779296875</ele>
        <time>2026-08-22T00:34:37.000Z</time>
        <extensions>
          <ns3:TrackPointExtension>
            <ns3:hr>90</ns3:hr>
            <ns3:cad>0</ns3:cad>
          </ns3:TrackPointExtension>
        </extensions>
      </trkpt>
      <trkpt lat="45.28636143542826175689697265625" lon="-71.1111101321876049041748046875">
        <ele>712.79998779296875</ele>
        <time>2026-08-22T00:34:38.000Z</time>
        <extensions>
          <ns3:TrackPointExtension>
            <ns3:hr>90</ns3:hr>
            <ns3:cad>0</ns3:cad>
          </ns3:TrackPointExtension>
        </extensions>
      </trkpt>
      <trkpt lat="45.28636143542826175689697265625" lon="-71.1111101321876049041748046875">
        <ele>712.79998779296875</ele>
        <time>2026-08-22T00:34:39.000Z</time>
        <extensions>
          <ns3:TrackPointExtension>
            <ns3:hr>91</ns3:hr>
            <ns3:cad>0</ns3:cad>
          </ns3:TrackPointExtension>
        </extensions>
      </trkpt>
      <trkpt lat="45.28636143542826175689697265625" lon="-71.1111101321876049041748046875">
        <ele>712.79998779296875</ele>
        <time>2026-08-22T00:34:40.000Z</time>
        <extensions>
          <ns3:TrackPointExtension>
            <ns3:hr>92</ns3:hr>
            <ns3:cad>0</ns3:cad>
          </ns3:TrackPointExtension>
        </extensions>
      </trkpt>
      <trkpt lat="45.28636143542826175689697265625" lon="-71.1111101321876049041748046875">
        <ele>712.79998779296875</ele>
        <time>2026-08-22T00:34:41.000Z</time>
        <extensions>
          <ns3:TrackPointExtension>
            <ns3:hr>92</ns3:hr>
            <ns3:cad>0</ns3:cad>
          </ns3:TrackPointExtension>
        </extensions>
      </trkpt>
      <trkpt lat="45.28636143542826175689697265625" lon="-71.1111101321876049041748046875">
        <ele>712.79998779296875</ele>
        <time>2026-08-22T00:34:42.000Z</time>
        <extensions>
          <ns3:TrackPointExtension>
            <ns3:hr>92</ns3:hr>
            <ns3:cad>0</ns3:cad>
          </ns3:TrackPointExtension>
        </extensions>
      </trkpt>
      <trkpt lat="45.28636143542826175689697265625" lon="-71.1111101321876049041748046875">
        <ele>712.79998779296875</ele>
        <time>2026-08-22T00:34:43.000Z</time>
        <extensions>
          <ns3:TrackPointExtension>
            <ns3:hr>91</ns3:hr>
            <ns3:cad>0</ns3:cad>
          </ns3:TrackPointExtension>
        </extensions>
      </trkpt>
      <trkpt lat="45.28636143542826175689697265625" lon="-71.1111101321876049041748046875">
        <ele>712.79998779296875</ele>
        <time>2026-08-22T00:34:44.000Z</time>
        <extensions>
          <ns3:TrackPointExtension>
            <ns3:hr>90</ns3:hr>
            <ns3:cad>0</ns3:cad>
          </ns3:TrackPointExtension>
        </extensions>
      </trkpt>
      <trkpt lat="45.28636143542826175689697265625" lon="-71.1111101321876049041748046875">
        <ele>712.79998779296875</ele>
        <time>2026-08-22T00:34:45.000Z</time>
        <extensions>
          <ns3:TrackPointExtension>
            <ns3:hr>89</ns3:hr>
            <ns3:cad>0</ns3:cad>
          </ns3:TrackPointExtension>
        </extensions>
      </trkpt>
      <trkpt lat="45.28636143542826175689697265625" lon="-71.1111101321876049041748046875">
        <ele>713</ele>
        <time>2026-08-22T00:34:46.000Z</time>
        <extensions>
          <ns3:TrackPointExtension>
            <ns3:hr>89</ns3:hr>
            <ns3:cad>0</ns3:cad>
          </ns3:TrackPointExtension>
        </extensions>
      </trkpt>
      <trkpt lat="45.28636143542826175689697265625" lon="-71.1111101321876049041748046875">
        <ele>713</ele>
        <time>2026-08-22T00:34:47.000Z</time>
        <extensions>
          <ns3:TrackPointExtension>
            <ns3:hr>88</ns3:hr>
            <ns3:cad>0</ns3:cad>
          </ns3:TrackPointExtension>
        </extensions>
      </trkpt>
      <trkpt lat="45.28636143542826175689697265625" lon="-71.1111101321876049041748046875">
        <ele>713</ele>
        <time>2026-08-22T00:34:48.000Z</time>
        <extensions>
          <ns3:TrackPointExtension>
            <ns3:hr>88</ns3:hr>
            <ns3:cad>0</ns3:cad>
          </ns3:TrackPointExtension>
        </extensions>
      </trkpt>
      <trkpt lat="45.28636143542826175689697265625" lon="-71.1111101321876049041748046875">
        <ele>712.79998779296875</ele>
        <time>2026-08-22T00:34:49.000Z</time>
        <extensions>
          <ns3:TrackPointExtension>
            <ns3:hr>89</ns3:hr>
            <ns3:cad>0</ns3:cad>
          </ns3:TrackPointExtension>
        </extensions>
      </trkpt>
      <trkpt lat="45.28636143542826175689697265625" lon="-71.1111101321876049041748046875">
        <ele>712.79998779296875</ele>
        <time>2026-08-22T00:34:50.000Z</time>
        <extensions>
          <ns3:TrackPointExtension>
            <ns3:hr>89</ns3:hr>
            <ns3:cad>0</ns3:cad>
          </ns3:TrackPointExtension>
        </extensions>
      </trkpt>
      <trkpt lat="45.28636143542826175689697265625" lon="-71.1111101321876049041748046875">
        <ele>712.79998779296875</ele>
        <time>2026-08-22T00:34:51.000Z</time>
        <extensions>
          <ns3:TrackPointExtension>
            <ns3:hr>90</ns3:hr>
            <ns3:cad>0</ns3:cad>
          </ns3:TrackPointExtension>
        </extensions>
      </trkpt>
      <trkpt lat="45.28636143542826175689697265625" lon="-71.1111101321876049041748046875">
        <ele>712.79998779296875</ele>
        <time>2026-08-22T00:34:52.000Z</time>
        <extensions>
          <ns3:TrackPointExtension>
            <ns3:hr>91</ns3:hr>
            <ns3:cad>0</ns3:cad>
          </ns3:TrackPointExtension>
        </extensions>
      </trkpt>
      <trkpt lat="45.28636143542826175689697265625" lon="-71.1111101321876049041748046875">
        <ele>712.79998779296875</ele>
        <time>2026-08-22T00:34:53.000Z</time>
        <extensions>
          <ns3:TrackPointExtension>
            <ns3:hr>90</ns3:hr>
            <ns3:cad>0</ns3:cad>
          </ns3:TrackPointExtension>
        </extensions>
      </trkpt>
      <trkpt lat="45.28636143542826175689697265625" lon="-71.1111101321876049041748046875">
        <ele>713</ele>
        <time>2026-08-22T00:34:54.000Z</time>
        <extensions>
          <ns3:TrackPointExtension>
            <ns3:hr>90</ns3:hr>
            <ns3:cad>0</ns3:cad>
          </ns3:TrackPointExtension>
        </extensions>
      </trkpt>
      <trkpt lat="45.28636143542826175689697265625" lon="-71.1111101321876049041748046875">
        <ele>713</ele>
        <time>2026-08-22T00:34:55.000Z</time>
        <extensions>
          <ns3:TrackPointExtension>
            <ns3:hr>89</ns3:hr>
            <ns3:cad>0</ns3:cad>
          </ns3:TrackPointExtension>
        </extensions>
      </trkpt>
      <trkpt lat="45.28636143542826175689697265625" lon="-71.1111101321876049041748046875">
        <ele>713</ele>
        <time>2026-08-22T00:34:56.000Z</time>
        <extensions>
          <ns3:TrackPointExtension>
            <ns3:hr>88</ns3:hr>
            <ns3:cad>0</ns3:cad>
          </ns3:TrackPointExtension>
        </extensions>
      </trkpt>
      <trkpt lat="45.28636143542826175689697265625" lon="-71.1111101321876049041748046875">
        <ele>713</ele>
        <time>2026-08-22T00:34:57.000Z</time>
        <extensions>
          <ns3:TrackPointExtension>
            <ns3:hr>87</ns3:hr>
            <ns3:cad>0</ns3:cad>
          </ns3:TrackPointExtension>
        </extensions>
      </trkpt>
      <trkpt lat="45.28636143542826175689697265625" lon="-71.1111101321876049041748046875">
        <ele>713</ele>
        <time>2026-08-22T00:34:58.000Z</time>
        <extensions>
          <ns3:TrackPointExtension>
            <ns3:hr>87</ns3:hr>
            <ns3:cad>0</ns3:cad>
          </ns3:TrackPointExtension>
        </extensions>
      </trkpt>
      <trkpt lat="45.28636143542826175689697265625" lon="-71.1111101321876049041748046875">
        <ele>712.79998779296875</ele>
        <time>2026-08-22T00:34:59.000Z</time>
        <extensions>
          <ns3:TrackPointExtension>
            <ns3:hr>87</ns3:hr>
            <ns3:cad>0</ns3:cad>
          </ns3:TrackPointExtension>
        </extensions>
      </trkpt>
      <trkpt lat="45.28636143542826175689697265625" lon="-71.1111101321876049041748046875">
        <ele>712.79998779296875</ele>
        <time>2026-08-22T00:35:00.000Z</time>
        <extensions>
          <ns3:TrackPointExtension>
            <ns3:hr>88</ns3:hr>
            <ns3:cad>0</ns3:cad>
          </ns3:TrackPointExtension>
        </extensions>
      </trkpt>
      <trkpt lat="45.28636143542826175689697265625" lon="-71.1111101321876049041748046875">
        <ele>712.79998779296875</ele>
        <time>2026-08-22T00:35:01.000Z</time>
        <extensions>
          <ns3:TrackPointExtension>
            <ns3:hr>88</ns3:hr>
            <ns3:cad>0</ns3:cad>
          </ns3:TrackPointExtension>
        </extensions>
      </trkpt>
      <trkpt lat="45.28636143542826175689697265625" lon="-71.1111101321876049041748046875">
        <ele>712.79998779296875</ele>
        <time>2026-08-22T00:35:02.000Z</time>
        <extensions>
          <ns3:TrackPointExtension>
            <ns3:hr>88</ns3:hr>
            <ns3:cad>0</ns3:cad>
          </ns3:TrackPointExtension>
        </extensions>
      </trkpt>
      <trkpt lat="45.28636143542826175689697265625" lon="-71.1111101321876049041748046875">
        <ele>712.79998779296875</ele>
        <time>2026-08-22T00:35:03.000Z</time>
        <extensions>
          <ns3:TrackPointExtension>
            <ns3:hr>88</ns3:hr>
            <ns3:cad>0</ns3:cad>
          </ns3:TrackPointExtension>
        </extensions>
      </trkpt>
      <trkpt lat="45.28636143542826175689697265625" lon="-71.1111101321876049041748046875">
        <ele>712.79998779296875</ele>
        <time>2026-08-22T00:35:04.000Z</time>
        <extensions>
          <ns3:TrackPointExtension>
            <ns3:hr>88</ns3:hr>
            <ns3:cad>0</ns3:cad>
          </ns3:TrackPointExtension>
        </extensions>
      </trkpt>
      <trkpt lat="45.28636143542826175689697265625" lon="-71.1111101321876049041748046875">
        <ele>712.5999755859375</ele>
        <time>2026-08-22T00:35:05.000Z</time>
        <extensions>
          <ns3:TrackPointExtension>
            <ns3:hr>88</ns3:hr>
            <ns3:cad>0</ns3:cad>
          </ns3:TrackPointExtension>
        </extensions>
      </trkpt>
      <trkpt lat="45.28636143542826175689697265625" lon="-71.1111101321876049041748046875">
        <ele>712.5999755859375</ele>
        <time>2026-08-22T00:35:06.000Z</time>
        <extensions>
          <ns3:TrackPointExtension>
            <ns3:hr>88</ns3:hr>
            <ns3:cad>0</ns3:cad>
          </ns3:TrackPointExtension>
        </extensions>
      </trkpt>
      <trkpt lat="45.28636143542826175689697265625" lon="-71.1111101321876049041748046875">
        <ele>712.5999755859375</ele>
        <time>2026-08-22T00:35:07.000Z</time>
        <extensions>
          <ns3:TrackPointExtension>
            <ns3:hr>88</ns3:hr>
            <ns3:cad>0</ns3:cad>
          </ns3:TrackPointExtension>
        </extensions>
      </trkpt>
      <trkpt lat="45.28636143542826175689697265625" lon="-71.1111101321876049041748046875">
        <ele>712.5999755859375</ele>
        <time>2026-08-22T00:35:08.000Z</time>
        <extensions>
          <ns3:TrackPointExtension>
            <ns3:hr>88</ns3:hr>
            <ns3:cad>0</ns3:cad>
          </ns3:TrackPointExtension>
        </extensions>
      </trkpt>
      <trkpt lat="45.28636143542826175689697265625" lon="-71.1111101321876049041748046875">
        <ele>712.5999755859375</ele>
        <time>2026-08-22T00:35:09.000Z</time>
        <extensions>
          <ns3:TrackPointExtension>
            <ns3:hr>88</ns3:hr>
            <ns3:cad>0</ns3:cad>
          </ns3:TrackPointExtension>
        </extensions>
      </trkpt>
      <trkpt lat="45.28636143542826175689697265625" lon="-71.1111101321876049041748046875">
        <ele>712.79998779296875</ele>
        <time>2026-08-22T00:35:10.000Z</time>
        <extensions>
          <ns3:TrackPointExtension>
            <ns3:hr>88</ns3:hr>
            <ns3:cad>0</ns3:cad>
          </ns3:TrackPointExtension>
        </extensions>
      </trkpt>
      <trkpt lat="45.28636143542826175689697265625" lon="-71.1111101321876049041748046875">
        <ele>712.79998779296875</ele>
        <time>2026-08-22T00:35:11.000Z</time>
        <extensions>
          <ns3:TrackPointExtension>
            <ns3:hr>89</ns3:hr>
            <ns3:cad>0</ns3:cad>
          </ns3:TrackPointExtension>
        </extensions>
      </trkpt>
      <trkpt lat="45.28636143542826175689697265625" lon="-71.1111101321876049041748046875">
        <ele>712.79998779296875</ele>
        <time>2026-08-22T00:35:12.000Z</time>
        <extensions>
          <ns3:TrackPointExtension>
            <ns3:hr>89</ns3:hr>
            <ns3:cad>0</ns3:cad>
          </ns3:TrackPointExtension>
        </extensions>
      </trkpt>
      <trkpt lat="45.28636143542826175689697265625" lon="-71.1111101321876049041748046875">
        <ele>712.79998779296875</ele>
        <time>2026-08-22T00:35:13.000Z</time>
        <extensions>
          <ns3:TrackPointExtension>
            <ns3:hr>90</ns3:hr>
            <ns3:cad>0</ns3:cad>
          </ns3:TrackPointExtension>
        </extensions>
      </trkpt>
      <trkpt lat="45.28636143542826175689697265625" lon="-71.1111101321876049041748046875">
        <ele>712.79998779296875</ele>
        <time>2026-08-22T00:35:14.000Z</time>
        <extensions>
          <ns3:TrackPointExtension>
            <ns3:hr>90</ns3:hr>
            <ns3:cad>0</ns3:cad>
          </ns3:TrackPointExtension>
        </extensions>
      </trkpt>
      <trkpt lat="45.28636143542826175689697265625" lon="-71.1111101321876049041748046875">
        <ele>713</ele>
        <time>2026-08-22T00:35:15.000Z</time>
        <extensions>
          <ns3:TrackPointExtension>
            <ns3:hr>91</ns3:hr>
            <ns3:cad>0</ns3:cad>
          </ns3:TrackPointExtension>
        </extensions>
      </trkpt>
      <trkpt lat="45.28636143542826175689697265625" lon="-71.1111101321876049041748046875">
        <ele>713</ele>
        <time>2026-08-22T00:35:16.000Z</time>
        <extensions>
          <ns3:TrackPointExtension>
            <ns3:hr>92</ns3:hr>
            <ns3:cad>0</ns3:cad>
          </ns3:TrackPointExtension>
        </extensions>
      </trkpt>
      <trkpt lat="45.28636143542826175689697265625" lon="-71.1111101321876049041748046875">
        <ele>713</ele>
        <time>2026-08-22T00:35:17.000Z</time>
        <extensions>
          <ns3:TrackPointExtension>
            <ns3:hr>92</ns3:hr>
            <ns3:cad>0</ns3:cad>
          </ns3:TrackPointExtension>
        </extensions>
      </trkpt>
      <trkpt lat="45.28636143542826175689697265625" lon="-71.1111101321876049041748046875">
        <ele>713</ele>
        <time>2026-08-22T00:35:18.000Z</time>
        <extensions>
          <ns3:TrackPointExtension>
            <ns3:hr>92</ns3:hr>
            <ns3:cad>0</ns3:cad>
          </ns3:TrackPointExtension>
        </extensions>
      </trkpt>
      <trkpt lat="45.28636143542826175689697265625" lon="-71.1111101321876049041748046875">
        <ele>713</ele>
        <time>2026-08-22T00:35:19.000Z</time>
        <extensions>
          <ns3:TrackPointExtension>
            <ns3:hr>93</ns3:hr>
            <ns3:cad>0</ns3:cad>
          </ns3:TrackPointExtension>
        </extensions>
      </trkpt>
      <trkpt lat="45.28636143542826175689697265625" lon="-71.1111101321876049041748046875">
        <ele>713</ele>
        <time>2026-08-22T00:35:20.000Z</time>
        <extensions>
          <ns3:TrackPointExtension>
            <ns3:hr>92</ns3:hr>
            <ns3:cad>0</ns3:cad>
          </ns3:TrackPointExtension>
        </extensions>
      </trkpt>
      <trkpt lat="45.28636143542826175689697265625" lon="-71.1111101321876049041748046875">
        <ele>713</ele>
        <time>2026-08-22T00:35:21.000Z</time>
        <extensions>
          <ns3:TrackPointExtension>
            <ns3:hr>91</ns3:hr>
            <ns3:cad>0</ns3:cad>
          </ns3:TrackPointExtension>
        </extensions>
      </trkpt>
      <trkpt lat="45.28636143542826175689697265625" lon="-71.1111101321876049041748046875">
        <ele>713</ele>
        <time>2026-08-22T00:35:22.000Z</time>
        <extensions>
          <ns3:TrackPointExtension>
            <ns3:hr>89</ns3:hr>
            <ns3:cad>0</ns3:cad>
          </ns3:TrackPointExtension>
        </extensions>
      </trkpt>
      <trkpt lat="45.28636143542826175689697265625" lon="-71.1111101321876049041748046875">
        <ele>712.79998779296875</ele>
        <time>2026-08-22T00:35:23.000Z</time>
        <extensions>
          <ns3:TrackPointExtension>
            <ns3:hr>88</ns3:hr>
            <ns3:cad>0</ns3:cad>
          </ns3:TrackPointExtension>
        </extensions>
      </trkpt>
      <trkpt lat="45.28636143542826175689697265625" lon="-71.1111101321876049041748046875">
        <ele>712.79998779296875</ele>
        <time>2026-08-22T00:35:24.000Z</time>
        <extensions>
          <ns3:TrackPointExtension>
            <ns3:hr>88</ns3:hr>
            <ns3:cad>0</ns3:cad>
          </ns3:TrackPointExtension>
        </extensions>
      </trkpt>
      <trkpt lat="45.28636143542826175689697265625" lon="-71.1111101321876049041748046875">
        <ele>712.79998779296875</ele>
        <time>2026-08-22T00:35:25.000Z</time>
        <extensions>
          <ns3:TrackPointExtension>
            <ns3:hr>88</ns3:hr>
            <ns3:cad>0</ns3:cad>
          </ns3:TrackPointExtension>
        </extensions>
      </trkpt>
      <trkpt lat="45.28636143542826175689697265625" lon="-71.1111101321876049041748046875">
        <ele>713</ele>
        <time>2026-08-22T00:35:26.000Z</time>
        <extensions>
          <ns3:TrackPointExtension>
            <ns3:hr>87</ns3:hr>
            <ns3:cad>0</ns3:cad>
          </ns3:TrackPointExtension>
        </extensions>
      </trkpt>
      <trkpt lat="45.28636143542826175689697265625" lon="-71.1111101321876049041748046875">
        <ele>713.20001220703125</ele>
        <time>2026-08-22T00:35:27.000Z</time>
        <extensions>
          <ns3:TrackPointExtension>
            <ns3:hr>86</ns3:hr>
            <ns3:cad>0</ns3:cad>
          </ns3:TrackPointExtension>
        </extensions>
      </trkpt>
      <trkpt lat="45.28636143542826175689697265625" lon="-71.1111101321876049041748046875">
        <ele>713.4000244140625</ele>
        <time>2026-08-22T00:35:28.000Z</time>
        <extensions>
          <ns3:TrackPointExtension>
            <ns3:hr>86</ns3:hr>
            <ns3:cad>0</ns3:cad>
          </ns3:TrackPointExtension>
        </extensions>
      </trkpt>
      <trkpt lat="45.28636143542826175689697265625" lon="-71.1111101321876049041748046875">
        <ele>713.5999755859375</ele>
        <time>2026-08-22T00:35:29.000Z</time>
        <extensions>
          <ns3:TrackPointExtension>
            <ns3:hr>86</ns3:hr>
            <ns3:cad>0</ns3:cad>
          </ns3:TrackPointExtension>
        </extensions>
      </trkpt>
      <trkpt lat="45.28636143542826175689697265625" lon="-71.1111101321876049041748046875">
        <ele>713.5999755859375</ele>
        <time>2026-08-22T00:35:30.000Z</time>
        <extensions>
          <ns3:TrackPointExtension>
            <ns3:hr>88</ns3:hr>
            <ns3:cad>0</ns3:cad>
          </ns3:TrackPointExtension>
        </extensions>
      </trkpt>
      <trkpt lat="45.28636143542826175689697265625" lon="-71.1111101321876049041748046875">
        <ele>713.5999755859375</ele>
        <time>2026-08-22T00:35:31.000Z</time>
        <extensions>
          <ns3:TrackPointExtension>
            <ns3:hr>92</ns3:hr>
            <ns3:cad>0</ns3:cad>
          </ns3:TrackPointExtension>
        </extensions>
      </trkpt>
      <trkpt lat="45.28636143542826175689697265625" lon="-71.1111101321876049041748046875">
        <ele>713.5999755859375</ele>
        <time>2026-08-22T00:35:32.000Z</time>
        <extensions>
          <ns3:TrackPointExtension>
            <ns3:hr>94</ns3:hr>
            <ns3:cad>0</ns3:cad>
          </ns3:TrackPointExtension>
        </extensions>
      </trkpt>
      <trkpt lat="45.28636143542826175689697265625" lon="-71.1111101321876049041748046875">
        <ele>713.5999755859375</ele>
        <time>2026-08-22T00:35:33.000Z</time>
        <extensions>
          <ns3:TrackPointExtension>
            <ns3:hr>95</ns3:hr>
            <ns3:cad>0</ns3:cad>
          </ns3:TrackPointExtension>
        </extensions>
      </trkpt>
      <trkpt lat="45.28636143542826175689697265625" lon="-71.1111101321876049041748046875">
        <ele>713.5999755859375</ele>
        <time>2026-08-22T00:35:34.000Z</time>
        <extensions>
          <ns3:TrackPointExtension>
            <ns3:hr>96</ns3:hr>
            <ns3:cad>0</ns3:cad>
          </ns3:TrackPointExtension>
        </extensions>
      </trkpt>
      <trkpt lat="45.28636143542826175689697265625" lon="-71.1111101321876049041748046875">
        <ele>713.5999755859375</ele>
        <time>2026-08-22T00:35:35.000Z</time>
        <extensions>
          <ns3:TrackPointExtension>
            <ns3:hr>97</ns3:hr>
            <ns3:cad>0</ns3:cad>
          </ns3:TrackPointExtension>
        </extensions>
      </trkpt>
      <trkpt lat="45.28636143542826175689697265625" lon="-71.1111101321876049041748046875">
        <ele>713.5999755859375</ele>
        <time>2026-08-22T00:35:36.000Z</time>
        <extensions>
          <ns3:TrackPointExtension>
            <ns3:hr>97</ns3:hr>
            <ns3:cad>0</ns3:cad>
          </ns3:TrackPointExtension>
        </extensions>
      </trkpt>
      <trkpt lat="45.28636143542826175689697265625" lon="-71.1111101321876049041748046875">
        <ele>713.5999755859375</ele>
        <time>2026-08-22T00:35:37.000Z</time>
        <extensions>
          <ns3:TrackPointExtension>
            <ns3:hr>96</ns3:hr>
            <ns3:cad>0</ns3:cad>
          </ns3:TrackPointExtension>
        </extensions>
      </trkpt>
      <trkpt lat="45.28636143542826175689697265625" lon="-71.1111101321876049041748046875">
        <ele>713.5999755859375</ele>
        <time>2026-08-22T00:35:38.000Z</time>
        <extensions>
          <ns3:TrackPointExtension>
            <ns3:hr>97</ns3:hr>
            <ns3:cad>0</ns3:cad>
          </ns3:TrackPointExtension>
        </extensions>
      </trkpt>
      <trkpt lat="45.28636143542826175689697265625" lon="-71.1111101321876049041748046875">
        <ele>713.5999755859375</ele>
        <time>2026-08-22T00:35:39.000Z</time>
        <extensions>
          <ns3:TrackPointExtension>
            <ns3:hr>97</ns3:hr>
            <ns3:cad>0</ns3:cad>
          </ns3:TrackPointExtension>
        </extensions>
      </trkpt>
      <trkpt lat="45.28636126779019832611083984375" lon="-71.1111222021281719207763671875">
        <ele>713.5999755859375</ele>
        <time>2026-08-22T00:35:40.000Z</time>
        <extensions>
          <ns3:TrackPointExtension>
            <ns3:hr>98</ns3:hr>
            <ns3:cad>0</ns3:cad>
          </ns3:TrackPointExtension>
        </extensions>
      </trkpt>
      <trkpt lat="45.286360681056976318359375" lon="-71.11112379468977451324462890625">
        <ele>713.5999755859375</ele>
        <time>2026-08-22T00:35:41.000Z</time>
        <extensions>
          <ns3:TrackPointExtension>
            <ns3:hr>98</ns3:hr>
            <ns3:cad>0</ns3:cad>
          </ns3:TrackPointExtension>
        </extensions>
      </trkpt>
      <trkpt lat="45.28635439462959766387939453125" lon="-71.111122705042362213134765625">
        <ele>713.5999755859375</ele>
        <time>2026-08-22T00:35:42.000Z</time>
        <extensions>
          <ns3:TrackPointExtension>
            <ns3:hr>98</ns3:hr>
            <ns3:cad>0</ns3:cad>
          </ns3:TrackPointExtension>
        </extensions>
      </trkpt>
      <trkpt lat="45.2863647043704986572265625" lon="-71.11111641861498355865478515625">
        <ele>713.79998779296875</ele>
        <time>2026-08-22T00:35:43.000Z</time>
        <extensions>
          <ns3:TrackPointExtension>
            <ns3:hr>98</ns3:hr>
            <ns3:cad>0</ns3:cad>
          </ns3:TrackPointExtension>
        </extensions>
      </trkpt>
      <trkpt lat="45.28637300245463848114013671875" lon="-71.111116670072078704833984375">
        <ele>713.79998779296875</ele>
        <time>2026-08-22T00:35:44.000Z</time>
        <extensions>
          <ns3:TrackPointExtension>
            <ns3:hr>98</ns3:hr>
            <ns3:cad>0</ns3:cad>
          </ns3:TrackPointExtension>
        </extensions>
      </trkpt>
      <trkpt lat="45.28637384064495563507080078125" lon="-71.11112111248075962066650390625">
        <ele>714</ele>
        <time>2026-08-22T00:35:45.000Z</time>
        <extensions>
          <ns3:TrackPointExtension>
            <ns3:hr>98</ns3:hr>
            <ns3:cad>0</ns3:cad>
          </ns3:TrackPointExtension>
        </extensions>
      </trkpt>
      <trkpt lat="45.28637467883527278900146484375" lon="-71.111117340624332427978515625">
        <ele>714</ele>
        <time>2026-08-22T00:35:46.000Z</time>
        <extensions>
          <ns3:TrackPointExtension>
            <ns3:hr>101</ns3:hr>
            <ns3:cad>0</ns3:cad>
          </ns3:TrackPointExtension>
        </extensions>
      </trkpt>
      <trkpt lat="45.28637585230171680450439453125" lon="-71.1111128143966197967529296875">
        <ele>714</ele>
        <time>2026-08-22T00:35:47.000Z</time>
        <extensions>
          <ns3:TrackPointExtension>
            <ns3:hr>102</ns3:hr>
            <ns3:cad>0</ns3:cad>
          </ns3:TrackPointExtension>
        </extensions>
      </trkpt>
      <trkpt lat="45.286375768482685089111328125" lon="-71.11111222766339778900146484375">
        <ele>714</ele>
        <time>2026-08-22T00:35:48.000Z</time>
        <extensions>
          <ns3:TrackPointExtension>
            <ns3:hr>103</ns3:hr>
            <ns3:cad>0</ns3:cad>
          </ns3:TrackPointExtension>
        </extensions>
      </trkpt>
      <trkpt lat="45.286375768482685089111328125" lon="-71.111111976206302642822265625">
        <ele>714</ele>
        <time>2026-08-22T00:35:49.000Z</time>
        <extensions>
          <ns3:TrackPointExtension>
            <ns3:hr>103</ns3:hr>
            <ns3:cad>0</ns3:cad>
          </ns3:TrackPointExtension>
        </extensions>
      </trkpt>
      <trkpt lat="45.28637518174946308135986328125" lon="-71.111109293997287750244140625">
        <ele>713.79998779296875</ele>
        <time>2026-08-22T00:35:50.000Z</time>
        <extensions>
          <ns3:TrackPointExtension>
            <ns3:hr>103</ns3:hr>
            <ns3:cad>0</ns3:cad>
          </ns3:TrackPointExtension>
        </extensions>
      </trkpt>
      <trkpt lat="45.2863705717027187347412109375" lon="-71.11111138947308063507080078125">
        <ele>713.79998779296875</ele>
        <time>2026-08-22T00:35:51.000Z</time>
        <extensions>
          <ns3:TrackPointExtension>
            <ns3:hr>103</ns3:hr>
            <ns3:cad>0</ns3:cad>
          </ns3:TrackPointExtension>
        </extensions>
      </trkpt>
      <trkpt lat="45.2863631956279277801513671875" lon="-71.1111049354076385498046875">
        <ele>713.5999755859375</ele>
        <time>2026-08-22T00:35:52.000Z</time>
        <extensions>
          <ns3:TrackPointExtension>
            <ns3:hr>103</ns3:hr>
            <ns3:cad>0</ns3:cad>
          </ns3:TrackPointExtension>
        </extensions>
      </trkpt>
      <trkpt lat="45.286350958049297332763671875" lon="-71.1110953800380229949951171875">
        <ele>713.5999755859375</ele>
        <time>2026-08-22T00:35:53.000Z</time>
        <extensions>
          <ns3:TrackPointExtension>
            <ns3:hr>103</ns3:hr>
            <ns3:cad>0</ns3:cad>
          </ns3:TrackPointExtension>
        </extensions>
      </trkpt>
      <trkpt lat="45.286338217556476593017578125" lon="-71.11108926124870777130126953125">
        <ele>713.5999755859375</ele>
        <time>2026-08-22T00:35:54.000Z</time>
        <extensions>
          <ns3:TrackPointExtension>
            <ns3:hr>102</ns3:hr>
            <ns3:cad>0</ns3:cad>
          </ns3:TrackPointExtension>
        </extensions>
      </trkpt>
      <trkpt lat="45.28632489033043384552001953125" lon="-71.1110913567245006561279296875">
        <ele>713.79998779296875</ele>
        <time>2026-08-22T00:35:55.000Z</time>
        <extensions>
          <ns3:TrackPointExtension>
            <ns3:hr>102</ns3:hr>
            <ns3:cad>0</ns3:cad>
          </ns3:TrackPointExtension>
        </extensions>
      </trkpt>
      <trkpt lat="45.286307036876678466796875" lon="-71.11109714023768901824951171875">
        <ele>714</ele>
        <time>2026-08-22T00:35:56.000Z</time>
        <extensions>
          <ns3:TrackPointExtension>
            <ns3:hr>102</ns3:hr>
            <ns3:cad>0</ns3:cad>
          </ns3:TrackPointExtension>
        </extensions>
      </trkpt>
      <trkpt lat="45.28629018925130367279052734375" lon="-71.11110485158860683441162109375">
        <ele>714.20001220703125</ele>
        <time>2026-08-22T00:35:57.000Z</time>
        <extensions>
          <ns3:TrackPointExtension>
            <ns3:hr>103</ns3:hr>
            <ns3:cad>0</ns3:cad>
          </ns3:TrackPointExtension>
        </extensions>
      </trkpt>
      <trkpt lat="45.28627342544496059417724609375" lon="-71.11110719852149486541748046875">
        <ele>714.20001220703125</ele>
        <time>2026-08-22T00:35:58.000Z</time>
        <extensions>
          <ns3:TrackPointExtension>
            <ns3:hr>106</ns3:hr>
            <ns3:cad>0</ns3:cad>
          </ns3:TrackPointExtension>
        </extensions>
      </trkpt>
      <trkpt lat="45.28625917620956897735595703125" lon="-71.1111102998256683349609375">
        <ele>714.20001220703125</ele>
        <time>2026-08-22T00:35:59.000Z</time>
        <extensions>
          <ns3:TrackPointExtension>
            <ns3:hr>112</ns3:hr>
            <ns3:cad>0</ns3:cad>
          </ns3:TrackPointExtension>
        </extensions>
      </trkpt>
      <trkpt lat="45.28624392114579677581787109375" lon="-71.11111323349177837371826171875">
        <ele>714.20001220703125</ele>
        <time>2026-08-22T00:36:00.000Z</time>
        <extensions>
          <ns3:TrackPointExtension>
            <ns3:hr>116</ns3:hr>
            <ns3:cad>52</ns3:cad>
          </ns3:TrackPointExtension>
        </extensions>
      </trkpt>
      <trkpt lat="45.28623268939554691314697265625" lon="-71.11112094484269618988037109375">
        <ele>714.20001220703125</ele>
        <time>2026-08-22T00:36:01.000Z</time>
        <extensions>
          <ns3:TrackPointExtension>
            <ns3:hr>118</ns3:hr>
            <ns3:cad>52</ns3:cad>
          </ns3:TrackPointExtension>
        </extensions>
      </trkpt>
      <trkpt lat="45.2862220443785190582275390625" lon="-71.1111359484493732452392578125">
        <ele>714.20001220703125</ele>
        <time>2026-08-22T00:36:02.000Z</time>
        <extensions>
          <ns3:TrackPointExtension>
            <ns3:hr>119</ns3:hr>
            <ns3:cad>52</ns3:cad>
          </ns3:TrackPointExtension>
        </extensions>
      </trkpt>
      <trkpt lat="45.28621039353311061859130859375" lon="-71.111144833266735076904296875">
        <ele>714.20001220703125</ele>
        <time>2026-08-22T00:36:03.000Z</time>
        <extensions>
          <ns3:TrackPointExtension>
            <ns3:hr>119</ns3:hr>
            <ns3:cad>53</ns3:cad>
          </ns3:TrackPointExtension>
        </extensions>
      </trkpt>
      <trkpt lat="45.28619966469705104827880859375" lon="-71.11114910803735256195068359375">
        <ele>714.20001220703125</ele>
        <time>2026-08-22T00:36:04.000Z</time>
        <extensions>
          <ns3:TrackPointExtension>
            <ns3:hr>120</ns3:hr>
            <ns3:cad>53</ns3:cad>
          </ns3:TrackPointExtension>
        </extensions>
      </trkpt>
      <trkpt lat="45.28618893586099147796630859375" lon="-71.11115396954119205474853515625">
        <ele>714.4000244140625</ele>
        <time>2026-08-22T00:36:05.000Z</time>
        <extensions>
          <ns3:TrackPointExtension>
            <ns3:hr>120</ns3:hr>
            <ns3:cad>0</ns3:cad>
          </ns3:TrackPointExtension>
        </extensions>
      </trkpt>
      <trkpt lat="45.28617384843528270721435546875" lon="-71.1111558973789215087890625">
        <ele>714.4000244140625</ele>
        <time>2026-08-22T00:36:06.000Z</time>
        <extensions>
          <ns3:TrackPointExtension>
            <ns3:hr>119</ns3:hr>
            <ns3:cad>0</ns3:cad>
          </ns3:TrackPointExtension>
        </extensions>
      </trkpt>
      <trkpt lat="45.2861630357801914215087890625" lon="-71.1111513711512088775634765625">
        <ele>714.4000244140625</ele>
        <time>2026-08-22T00:36:07.000Z</time>
        <extensions>
          <ns3:TrackPointExtension>
            <ns3:hr>119</ns3:hr>
            <ns3:cad>0</ns3:cad>
          </ns3:TrackPointExtension>
        </extensions>
      </trkpt>
      <trkpt lat="45.2861536480486392974853515625" lon="-71.11114826984703540802001953125">
        <ele>714.5999755859375</ele>
        <time>2026-08-22T00:36:08.000Z</time>
        <extensions>
          <ns3:TrackPointExtension>
            <ns3:hr>119</ns3:hr>
            <ns3:cad>0</ns3:cad>
          </ns3:TrackPointExtension>
        </extensions>
      </trkpt>
      <trkpt lat="45.28614132665097713470458984375" lon="-71.11115531064569950103759765625">
        <ele>714.79998779296875</ele>
        <time>2026-08-22T00:36:09.000Z</time>
        <extensions>
          <ns3:TrackPointExtension>
            <ns3:hr>118</ns3:hr>
            <ns3:cad>0</ns3:cad>
          </ns3:TrackPointExtension>
        </extensions>
      </trkpt>
      <trkpt lat="45.2861342020332813262939453125" lon="-71.11115614883601665496826171875">
        <ele>715</ele>
        <time>2026-08-22T00:36:10.000Z</time>
        <extensions>
          <ns3:TrackPointExtension>
            <ns3:hr>118</ns3:hr>
            <ns3:cad>0</ns3:cad>
          </ns3:TrackPointExtension>
        </extensions>
      </trkpt>
      <trkpt lat="45.28612825088202953338623046875" lon="-71.1111473478376865386962890625">
        <ele>715.20001220703125</ele>
        <time>2026-08-22T00:36:11.000Z</time>
        <extensions>
          <ns3:TrackPointExtension>
            <ns3:hr>118</ns3:hr>
            <ns3:cad>0</ns3:cad>
          </ns3:TrackPointExtension>
        </extensions>
      </trkpt>
      <trkpt lat="45.28612121008336544036865234375" lon="-71.1111433245241641998291015625">
        <ele>715.5999755859375</ele>
        <time>2026-08-22T00:36:12.000Z</time>
        <extensions>
          <ns3:TrackPointExtension>
            <ns3:hr>118</ns3:hr>
            <ns3:cad>0</ns3:cad>
          </ns3:TrackPointExtension>
        </extensions>
      </trkpt>
      <trkpt lat="45.28611048124730587005615234375" lon="-71.11114508472383022308349609375">
        <ele>716</ele>
        <time>2026-08-22T00:36:13.000Z</time>
        <extensions>
          <ns3:TrackPointExtension>
            <ns3:hr>118</ns3:hr>
            <ns3:cad>0</ns3:cad>
          </ns3:TrackPointExtension>
        </extensions>
      </trkpt>
      <trkpt lat="45.28610193170607089996337890625" lon="-71.1111507005989551544189453125">
        <ele>716.4000244140625</ele>
        <time>2026-08-22T00:36:14.000Z</time>
        <extensions>
          <ns3:TrackPointExtension>
            <ns3:hr>119</ns3:hr>
            <ns3:cad>0</ns3:cad>
          </ns3:TrackPointExtension>
        </extensions>
      </trkpt>
      <trkpt lat="45.2860911190509796142578125" lon="-71.111148186028003692626953125">
        <ele>716.5999755859375</ele>
        <time>2026-08-22T00:36:15.000Z</time>
        <extensions>
          <ns3:TrackPointExtension>
            <ns3:hr>119</ns3:hr>
            <ns3:cad>0</ns3:cad>
          </ns3:TrackPointExtension>
        </extensions>
      </trkpt>
      <trkpt lat="45.28608282096683979034423828125" lon="-71.1111436598002910614013671875">
        <ele>717</ele>
        <time>2026-08-22T00:36:16.000Z</time>
        <extensions>
          <ns3:TrackPointExtension>
            <ns3:hr>119</ns3:hr>
            <ns3:cad>0</ns3:cad>
          </ns3:TrackPointExtension>
        </extensions>
      </trkpt>
      <trkpt lat="45.2860772050917148590087890625" lon="-71.11114240251481533050537109375">
        <ele>717.20001220703125</ele>
        <time>2026-08-22T00:36:17.000Z</time>
        <extensions>
          <ns3:TrackPointExtension>
            <ns3:hr>120</ns3:hr>
            <ns3:cad>43</ns3:cad>
          </ns3:TrackPointExtension>
        </extensions>
      </trkpt>
      <trkpt lat="45.28607091866433620452880859375" lon="-71.11114173196256160736083984375">
        <ele>717.4000244140625</ele>
        <time>2026-08-22T00:36:18.000Z</time>
        <extensions>
          <ns3:TrackPointExtension>
            <ns3:hr>121</ns3:hr>
            <ns3:cad>43</ns3:cad>
          </ns3:TrackPointExtension>
        </extensions>
      </trkpt>
      <trkpt lat="45.28606521897017955780029296875" lon="-71.11114122904837131500244140625">
        <ele>717.5999755859375</ele>
        <time>2026-08-22T00:36:19.000Z</time>
        <extensions>
          <ns3:TrackPointExtension>
            <ns3:hr>122</ns3:hr>
            <ns3:cad>44</ns3:cad>
          </ns3:TrackPointExtension>
        </extensions>
      </trkpt>
      <trkpt lat="45.28605901636183261871337890625" lon="-71.11113988794386386871337890625">
        <ele>717.79998779296875</ele>
        <time>2026-08-22T00:36:20.000Z</time>
        <extensions>
          <ns3:TrackPointExtension>
            <ns3:hr>123</ns3:hr>
            <ns3:cad>44</ns3:cad>
          </ns3:TrackPointExtension>
        </extensions>
      </trkpt>
      <trkpt lat="45.2860530652105808258056640625" lon="-71.11113787628710269927978515625">
        <ele>717.79998779296875</ele>
        <time>2026-08-22T00:36:21.000Z</time>
        <extensions>
          <ns3:TrackPointExtension>
            <ns3:hr>123</ns3:hr>
            <ns3:cad>44</ns3:cad>
          </ns3:TrackPointExtension>
        </extensions>
      </trkpt>
      <trkpt lat="45.286045186221599578857421875" lon="-71.1111349426209926605224609375">
        <ele>718</ele>
        <time>2026-08-22T00:36:22.000Z</time>
        <extensions>
          <ns3:TrackPointExtension>
            <ns3:hr>122</ns3:hr>
            <ns3:cad>44</ns3:cad>
          </ns3:TrackPointExtension>
        </extensions>
      </trkpt>
      <trkpt lat="45.28603655286133289337158203125" lon="-71.1111332662403583526611328125">
        <ele>718.20001220703125</ele>
        <time>2026-08-22T00:36:23.000Z</time>
        <extensions>
          <ns3:TrackPointExtension>
            <ns3:hr>122</ns3:hr>
            <ns3:cad>44</ns3:cad>
          </ns3:TrackPointExtension>
        </extensions>
      </trkpt>
      <trkpt lat="45.2860252372920513153076171875" lon="-71.11112899146974086761474609375">
        <ele>718.4000244140625</ele>
        <time>2026-08-22T00:36:24.000Z</time>
        <extensions>
          <ns3:TrackPointExtension>
            <ns3:hr>122</ns3:hr>
            <ns3:cad>45</ns3:cad>
          </ns3:TrackPointExtension>
        </extensions>
      </trkpt>
      <trkpt lat="45.28601341880857944488525390625" lon="-71.11112530343234539031982421875">
        <ele>718.5999755859375</ele>
        <time>2026-08-22T00:36:25.000Z</time>
        <extensions>
          <ns3:TrackPointExtension>
            <ns3:hr>123</ns3:hr>
            <ns3:cad>45</ns3:cad>
          </ns3:TrackPointExtension>
        </extensions>
      </trkpt>
      <trkpt lat="45.28599833138287067413330078125" lon="-71.1111255548894405364990234375">
        <ele>718.79998779296875</ele>
        <time>2026-08-22T00:36:26.000Z</time>
        <extensions>
          <ns3:TrackPointExtension>
            <ns3:hr>123</ns3:hr>
            <ns3:cad>45</ns3:cad>
          </ns3:TrackPointExtension>
        </extensions>
      </trkpt>
      <trkpt lat="45.285989530384540557861328125" lon="-71.1111235432326793670654296875">
        <ele>718.79998779296875</ele>
        <time>2026-08-22T00:36:27.000Z</time>
        <extensions>
          <ns3:TrackPointExtension>
            <ns3:hr>124</ns3:hr>
            <ns3:cad>46</ns3:cad>
          </ns3:TrackPointExtension>
        </extensions>
      </trkpt>
      <trkpt lat="45.2859850041568279266357421875" lon="-71.1111156642436981201171875">
        <ele>718.79998779296875</ele>
        <time>2026-08-22T00:36:28.000Z</time>
        <extensions>
          <ns3:TrackPointExtension>
            <ns3:hr>126</ns3:hr>
            <ns3:cad>46</ns3:cad>
          </ns3:TrackPointExtension>
        </extensions>
      </trkpt>
      <trkpt lat="45.285979472100734710693359375" lon="-71.11110988073050975799560546875">
        <ele>719</ele>
        <time>2026-08-22T00:36:29.000Z</time>
        <extensions>
          <ns3:TrackPointExtension>
            <ns3:hr>127</ns3:hr>
            <ns3:cad>49</ns3:cad>
          </ns3:TrackPointExtension>
        </extensions>
      </trkpt>
      <trkpt lat="45.2859739400446414947509765625" lon="-71.11110166646540164947509765625">
        <ele>719</ele>
        <time>2026-08-22T00:36:30.000Z</time>
        <extensions>
          <ns3:TrackPointExtension>
            <ns3:hr>128</ns3:hr>
            <ns3:cad>49</ns3:cad>
          </ns3:TrackPointExtension>
        </extensions>
      </trkpt>
      <trkpt lat="45.2859699167311191558837890625" lon="-71.11108976416289806365966796875">
        <ele>719.4000244140625</ele>
        <time>2026-08-22T00:36:31.000Z</time>
        <extensions>
          <ns3:TrackPointExtension>
            <ns3:hr>127</ns3:hr>
            <ns3:cad>49</ns3:cad>
          </ns3:TrackPointExtension>
        </extensions>
      </trkpt>
      <trkpt lat="45.28596731834113597869873046875" lon="-71.11107551492750644683837890625">
        <ele>719.5999755859375</ele>
        <time>2026-08-22T00:36:32.000Z</time>
        <extensions>
          <ns3:TrackPointExtension>
            <ns3:hr>128</ns3:hr>
            <ns3:cad>47</ns3:cad>
          </ns3:TrackPointExtension>
        </extensions>
      </trkpt>
      <trkpt lat="45.2859605289995670318603515625" lon="-71.1110668815672397613525390625">
        <ele>719.79998779296875</ele>
        <time>2026-08-22T00:36:33.000Z</time>
        <extensions>
          <ns3:TrackPointExtension>
            <ns3:hr>128</ns3:hr>
            <ns3:cad>47</ns3:cad>
          </ns3:TrackPointExtension>
        </extensions>
      </trkpt>
      <trkpt lat="45.2859498001635074615478515625" lon="-71.111056990921497344970703125">
        <ele>720</ele>
        <time>2026-08-22T00:36:34.000Z</time>
        <extensions>
          <ns3:TrackPointExtension>
            <ns3:hr>128</ns3:hr>
            <ns3:cad>47</ns3:cad>
          </ns3:TrackPointExtension>
        </extensions>
      </trkpt>
      <trkpt lat="45.28593714348971843719482421875" lon="-71.1110521294176578521728515625">
        <ele>720</ele>
        <time>2026-08-22T00:36:35.000Z</time>
        <extensions>
          <ns3:TrackPointExtension>
            <ns3:hr>128</ns3:hr>
            <ns3:cad>47</ns3:cad>
          </ns3:TrackPointExtension>
        </extensions>
      </trkpt>
      <trkpt lat="45.28593060560524463653564453125" lon="-71.11104751937091350555419921875">
        <ele>720.20001220703125</ele>
        <time>2026-08-22T00:36:36.000Z</time>
        <extensions>
          <ns3:TrackPointExtension>
            <ns3:hr>128</ns3:hr>
            <ns3:cad>0</ns3:cad>
          </ns3:TrackPointExtension>
        </extensions>
      </trkpt>
      <trkpt lat="45.285923480987548828125" lon="-71.11104257404804229736328125">
        <ele>720.20001220703125</ele>
        <time>2026-08-22T00:36:37.000Z</time>
        <extensions>
          <ns3:TrackPointExtension>
            <ns3:hr>129</ns3:hr>
            <ns3:cad>0</ns3:cad>
          </ns3:TrackPointExtension>
        </extensions>
      </trkpt>
      <trkpt lat="45.28591752983629703521728515625" lon="-71.11103452742099761962890625">
        <ele>720.4000244140625</ele>
        <time>2026-08-22T00:36:38.000Z</time>
        <extensions>
          <ns3:TrackPointExtension>
            <ns3:hr>129</ns3:hr>
            <ns3:cad>0</ns3:cad>
          </ns3:TrackPointExtension>
        </extensions>
      </trkpt>
      <trkpt lat="45.2859048731625080108642578125" lon="-71.11102438531816005706787109375">
        <ele>720.5999755859375</ele>
        <time>2026-08-22T00:36:39.000Z</time>
        <extensions>
          <ns3:TrackPointExtension>
            <ns3:hr>130</ns3:hr>
            <ns3:cad>0</ns3:cad>
          </ns3:TrackPointExtension>
        </extensions>
      </trkpt>
      <trkpt lat="45.28589422814548015594482421875" lon="-71.11101868562400341033935546875">
        <ele>720.79998779296875</ele>
        <time>2026-08-22T00:36:40.000Z</time>
        <extensions>
          <ns3:TrackPointExtension>
            <ns3:hr>130</ns3:hr>
            <ns3:cad>0</ns3:cad>
          </ns3:TrackPointExtension>
        </extensions>
      </trkpt>
      <trkpt lat="45.28588567860424518585205078125" lon="-71.11101047135889530181884765625">
        <ele>721</ele>
        <time>2026-08-22T00:36:41.000Z</time>
        <extensions>
          <ns3:TrackPointExtension>
            <ns3:hr>131</ns3:hr>
            <ns3:cad>0</ns3:cad>
          </ns3:TrackPointExtension>
        </extensions>
      </trkpt>
      <trkpt lat="45.28587595559656620025634765625" lon="-71.11100108362734317779541015625">
        <ele>721.20001220703125</ele>
        <time>2026-08-22T00:36:42.000Z</time>
        <extensions>
          <ns3:TrackPointExtension>
            <ns3:hr>131</ns3:hr>
            <ns3:cad>0</ns3:cad>
          </ns3:TrackPointExtension>
        </extensions>
      </trkpt>
      <trkpt lat="45.285865478217601776123046875" lon="-71.110992617905139923095703125">
        <ele>721.4000244140625</ele>
        <time>2026-08-22T00:36:43.000Z</time>
        <extensions>
          <ns3:TrackPointExtension>
            <ns3:hr>131</ns3:hr>
            <ns3:cad>49</ns3:cad>
          </ns3:TrackPointExtension>
        </extensions>
      </trkpt>
      <trkpt lat="45.28585533611476421356201171875" lon="-71.11098247580230236053466796875">
        <ele>721.4000244140625</ele>
        <time>2026-08-22T00:36:44.000Z</time>
        <extensions>
          <ns3:TrackPointExtension>
            <ns3:hr>131</ns3:hr>
            <ns3:cad>50</ns3:cad>
          </ns3:TrackPointExtension>
        </extensions>
      </trkpt>
      <trkpt lat="45.28584728948771953582763671875" lon="-71.110975854098796844482421875">
        <ele>721.5999755859375</ele>
        <time>2026-08-22T00:36:45.000Z</time>
        <extensions>
          <ns3:TrackPointExtension>
            <ns3:hr>131</ns3:hr>
            <ns3:cad>50</ns3:cad>
          </ns3:TrackPointExtension>
        </extensions>
      </trkpt>
      <trkpt lat="45.28584091924130916595458984375" lon="-71.11095984466373920440673828125">
        <ele>721.79998779296875</ele>
        <time>2026-08-22T00:36:46.000Z</time>
        <extensions>
          <ns3:TrackPointExtension>
            <ns3:hr>132</ns3:hr>
            <ns3:cad>51</ns3:cad>
          </ns3:TrackPointExtension>
        </extensions>
      </trkpt>
      <trkpt lat="45.28583069331943988800048828125" lon="-71.11094207502901554107666015625">
        <ele>721.79998779296875</ele>
        <time>2026-08-22T00:36:47.000Z</time>
        <extensions>
          <ns3:TrackPointExtension>
            <ns3:hr>132</ns3:hr>
            <ns3:cad>51</ns3:cad>
          </ns3:TrackPointExtension>
        </extensions>
      </trkpt>
      <trkpt lat="45.28582247905433177947998046875" lon="-71.11093117855489253997802734375">
        <ele>722</ele>
        <time>2026-08-22T00:36:48.000Z</time>
        <extensions>
          <ns3:TrackPointExtension>
            <ns3:hr>132</ns3:hr>
            <ns3:cad>51</ns3:cad>
          </ns3:TrackPointExtension>
        </extensions>
      </trkpt>
      <trkpt lat="45.285815186798572540283203125" lon="-71.11092187464237213134765625">
        <ele>722.20001220703125</ele>
        <time>2026-08-22T00:36:49.000Z</time>
        <extensions>
          <ns3:TrackPointExtension>
            <ns3:hr>133</ns3:hr>
            <ns3:cad>50</ns3:cad>
          </ns3:TrackPointExtension>
        </extensions>
      </trkpt>
      <trkpt lat="45.28580537997186183929443359375" lon="-71.11091516911983489990234375">
        <ele>722.4000244140625</ele>
        <time>2026-08-22T00:36:50.000Z</time>
        <extensions>
          <ns3:TrackPointExtension>
            <ns3:hr>133</ns3:hr>
            <ns3:cad>49</ns3:cad>
          </ns3:TrackPointExtension>
        </extensions>
      </trkpt>
      <trkpt lat="45.2857938967645168304443359375" lon="-71.110896058380603790283203125">
        <ele>722.5999755859375</ele>
        <time>2026-08-22T00:36:51.000Z</time>
        <extensions>
          <ns3:TrackPointExtension>
            <ns3:hr>134</ns3:hr>
            <ns3:cad>49</ns3:cad>
          </ns3:TrackPointExtension>
        </extensions>
      </trkpt>
      <trkpt lat="45.28578258119523525238037109375" lon="-71.11088993959128856658935546875">
        <ele>722.79998779296875</ele>
        <time>2026-08-22T00:36:52.000Z</time>
        <extensions>
          <ns3:TrackPointExtension>
            <ns3:hr>134</ns3:hr>
            <ns3:cad>49</ns3:cad>
          </ns3:TrackPointExtension>
        </extensions>
      </trkpt>
      <trkpt lat="45.2857719361782073974609375" lon="-71.11088608391582965850830078125">
        <ele>722.79998779296875</ele>
        <time>2026-08-22T00:36:53.000Z</time>
        <extensions>
          <ns3:TrackPointExtension>
            <ns3:hr>134</ns3:hr>
            <ns3:cad>49</ns3:cad>
          </ns3:TrackPointExtension>
        </extensions>
      </trkpt>
      <trkpt lat="45.28575517237186431884765625" lon="-71.11088306643068790435791015625">
        <ele>723</ele>
        <time>2026-08-22T00:36:54.000Z</time>
        <extensions>
          <ns3:TrackPointExtension>
            <ns3:hr>134</ns3:hr>
            <ns3:cad>49</ns3:cad>
          </ns3:TrackPointExtension>
        </extensions>
      </trkpt>
      <trkpt lat="45.28574310243129730224609375" lon="-71.11087786965072154998779296875">
        <ele>723</ele>
        <time>2026-08-22T00:36:55.000Z</time>
        <extensions>
          <ns3:TrackPointExtension>
            <ns3:hr>134</ns3:hr>
            <ns3:cad>0</ns3:cad>
          </ns3:TrackPointExtension>
        </extensions>
      </trkpt>
      <trkpt lat="45.285727344453334808349609375" lon="-71.11086730845272541046142578125">
        <ele>723.20001220703125</ele>
        <time>2026-08-22T00:36:56.000Z</time>
        <extensions>
          <ns3:TrackPointExtension>
            <ns3:hr>133</ns3:hr>
            <ns3:cad>0</ns3:cad>
          </ns3:TrackPointExtension>
        </extensions>
      </trkpt>
      <trkpt lat="45.2857130952179431915283203125" lon="-71.1108580045402050018310546875">
        <ele>723.5999755859375</ele>
        <time>2026-08-22T00:36:57.000Z</time>
        <extensions>
          <ns3:TrackPointExtension>
            <ns3:hr>133</ns3:hr>
            <ns3:cad>0</ns3:cad>
          </ns3:TrackPointExtension>
        </extensions>
      </trkpt>
      <trkpt lat="45.2856968343257904052734375" lon="-71.11085481941699981689453125">
        <ele>723.79998779296875</ele>
        <time>2026-08-22T00:36:58.000Z</time>
        <extensions>
          <ns3:TrackPointExtension>
            <ns3:hr>133</ns3:hr>
            <ns3:cad>0</ns3:cad>
          </ns3:TrackPointExtension>
        </extensions>
      </trkpt>
      <trkpt lat="45.2856859378516674041748046875" lon="-71.1108489520847797393798828125">
        <ele>724</ele>
        <time>2026-08-22T00:36:59.000Z</time>
        <extensions>
          <ns3:TrackPointExtension>
            <ns3:hr>133</ns3:hr>
            <ns3:cad>0</ns3:cad>
          </ns3:TrackPointExtension>
        </extensions>
      </trkpt>
      <trkpt lat="45.2856780588626861572265625" lon="-71.1108367145061492919921875">
        <ele>724.20001220703125</ele>
        <time>2026-08-22T00:37:00.000Z</time>
        <extensions>
          <ns3:TrackPointExtension>
            <ns3:hr>133</ns3:hr>
            <ns3:cad>0</ns3:cad>
          </ns3:TrackPointExtension>
        </extensions>
      </trkpt>
      <trkpt lat="45.285666324198246002197265625" lon="-71.11082506366074085235595703125">
        <ele>724.4000244140625</ele>
        <time>2026-08-22T00:37:01.000Z</time>
        <extensions>
          <ns3:TrackPointExtension>
            <ns3:hr>133</ns3:hr>
            <ns3:cad>0</ns3:cad>
          </ns3:TrackPointExtension>
        </extensions>
      </trkpt>
      <trkpt lat="45.2856560982763767242431640625" lon="-71.11081869341433048248291015625">
        <ele>724.5999755859375</ele>
        <time>2026-08-22T00:37:02.000Z</time>
        <extensions>
          <ns3:TrackPointExtension>
            <ns3:hr>133</ns3:hr>
            <ns3:cad>0</ns3:cad>
          </ns3:TrackPointExtension>
        </extensions>
      </trkpt>
      <trkpt lat="45.28564520180225372314453125" lon="-71.1108103953301906585693359375">
        <ele>724.79998779296875</ele>
        <time>2026-08-22T00:37:03.000Z</time>
        <extensions>
          <ns3:TrackPointExtension>
            <ns3:hr>132</ns3:hr>
            <ns3:cad>0</ns3:cad>
          </ns3:TrackPointExtension>
        </extensions>
      </trkpt>
      <trkpt lat="45.28563405387103557586669921875" lon="-71.1108016781508922576904296875">
        <ele>725</ele>
        <time>2026-08-22T00:37:04.000Z</time>
        <extensions>
          <ns3:TrackPointExtension>
            <ns3:hr>133</ns3:hr>
            <ns3:cad>0</ns3:cad>
          </ns3:TrackPointExtension>
        </extensions>
      </trkpt>
      <trkpt lat="45.285622067749500274658203125" lon="-71.11079044640064239501953125">
        <ele>725</ele>
        <time>2026-08-22T00:37:05.000Z</time>
        <extensions>
          <ns3:TrackPointExtension>
            <ns3:hr>134</ns3:hr>
            <ns3:cad>0</ns3:cad>
          </ns3:TrackPointExtension>
        </extensions>
      </trkpt>
      <trkpt lat="45.285609327256679534912109375" lon="-71.11078910529613494873046875">
        <ele>725.20001220703125</ele>
        <time>2026-08-22T00:37:06.000Z</time>
        <extensions>
          <ns3:TrackPointExtension>
            <ns3:hr>134</ns3:hr>
            <ns3:cad>0</ns3:cad>
          </ns3:TrackPointExtension>
        </extensions>
      </trkpt>
      <trkpt lat="45.285598598420619964599609375" lon="-71.1107886023819446563720703125">
        <ele>725.4000244140625</ele>
        <time>2026-08-22T00:37:07.000Z</time>
        <extensions>
          <ns3:TrackPointExtension>
            <ns3:hr>134</ns3:hr>
            <ns3:cad>49</ns3:cad>
          </ns3:TrackPointExtension>
        </extensions>
      </trkpt>
      <trkpt lat="45.28559021651744842529296875" lon="-71.11078985966742038726806640625">
        <ele>725.4000244140625</ele>
        <time>2026-08-22T00:37:08.000Z</time>
        <extensions>
          <ns3:TrackPointExtension>
            <ns3:hr>134</ns3:hr>
            <ns3:cad>47</ns3:cad>
          </ns3:TrackPointExtension>
        </extensions>
      </trkpt>
      <trkpt lat="45.28556280769407749176025390625" lon="-71.1107911169528961181640625">
        <ele>725.4000244140625</ele>
        <time>2026-08-22T00:37:09.000Z</time>
        <extensions>
          <ns3:TrackPointExtension>
            <ns3:hr>134</ns3:hr>
            <ns3:cad>47</ns3:cad>
          </ns3:TrackPointExtension>
        </extensions>
      </trkpt>
      <trkpt lat="45.285552330315113067626953125" lon="-71.11079656518995761871337890625">
        <ele>725.5999755859375</ele>
        <time>2026-08-22T00:37:10.000Z</time>
        <extensions>
          <ns3:TrackPointExtension>
            <ns3:hr>134</ns3:hr>
            <ns3:cad>47</ns3:cad>
          </ns3:TrackPointExtension>
        </extensions>
      </trkpt>
      <trkpt lat="45.28554135002195835113525390625" lon="-71.11080679111182689666748046875">
        <ele>725.79998779296875</ele>
        <time>2026-08-22T00:37:11.000Z</time>
        <extensions>
          <ns3:TrackPointExtension>
            <ns3:hr>134</ns3:hr>
            <ns3:cad>47</ns3:cad>
          </ns3:TrackPointExtension>
        </extensions>
      </trkpt>
      <trkpt lat="45.285528190433979034423828125" lon="-71.1108194477856159210205078125">
        <ele>725.79998779296875</ele>
        <time>2026-08-22T00:37:12.000Z</time>
        <extensions>
          <ns3:TrackPointExtension>
            <ns3:hr>134</ns3:hr>
            <ns3:cad>0</ns3:cad>
          </ns3:TrackPointExtension>
        </extensions>
      </trkpt>
      <trkpt lat="45.2855186350643634796142578125" lon="-71.11083378084003925323486328125">
        <ele>726</ele>
        <time>2026-08-22T00:37:13.000Z</time>
        <extensions>
          <ns3:TrackPointExtension>
            <ns3:hr>133</ns3:hr>
            <ns3:cad>0</ns3:cad>
          </ns3:TrackPointExtension>
        </extensions>
      </trkpt>
      <trkpt lat="45.28551318682730197906494140625" lon="-71.1108516342937946319580078125">
        <ele>726</ele>
        <time>2026-08-22T00:37:14.000Z</time>
        <extensions>
          <ns3:TrackPointExtension>
            <ns3:hr>134</ns3:hr>
            <ns3:cad>0</ns3:cad>
          </ns3:TrackPointExtension>
        </extensions>
      </trkpt>
      <trkpt lat="45.28550597839057445526123046875" lon="-71.1108710803091526031494140625">
        <ele>726</ele>
        <time>2026-08-22T00:37:15.000Z</time>
        <extensions>
          <ns3:TrackPointExtension>
            <ns3:hr>134</ns3:hr>
            <ns3:cad>0</ns3:cad>
          </ns3:TrackPointExtension>
        </extensions>
      </trkpt>
      <trkpt lat="45.285495333373546600341796875" lon="-71.11089178360998630523681640625">
        <ele>726</ele>
        <time>2026-08-22T00:37:16.000Z</time>
        <extensions>
          <ns3:TrackPointExtension>
            <ns3:hr>134</ns3:hr>
            <ns3:cad>0</ns3:cad>
          </ns3:TrackPointExtension>
        </extensions>
      </trkpt>
      <trkpt lat="45.28548904694616794586181640625" lon="-71.1109119839966297149658203125">
        <ele>726</ele>
        <time>2026-08-22T00:37:17.000Z</time>
        <extensions>
          <ns3:TrackPointExtension>
            <ns3:hr>135</ns3:hr>
            <ns3:cad>77</ns3:cad>
          </ns3:TrackPointExtension>
        </extensions>
      </trkpt>
      <trkpt lat="45.2854849398136138916015625" lon="-71.11092321574687957763671875">
        <ele>726.20001220703125</ele>
        <time>2026-08-22T00:37:18.000Z</time>
        <extensions>
          <ns3:TrackPointExtension>
            <ns3:hr>135</ns3:hr>
            <ns3:cad>77</ns3:cad>
          </ns3:TrackPointExtension>
        </extensions>
      </trkpt>
      <trkpt lat="45.28547915630042552947998046875" lon="-71.11093017272651195526123046875">
        <ele>726.20001220703125</ele>
        <time>2026-08-22T00:37:19.000Z</time>
        <extensions>
          <ns3:TrackPointExtension>
            <ns3:hr>135</ns3:hr>
            <ns3:cad>0</ns3:cad>
          </ns3:TrackPointExtension>
        </extensions>
      </trkpt>
      <trkpt lat="45.28546591289341449737548828125" lon="-71.11094257794320583343505859375">
        <ele>726.4000244140625</ele>
        <time>2026-08-22T00:37:20.000Z</time>
        <extensions>
          <ns3:TrackPointExtension>
            <ns3:hr>134</ns3:hr>
            <ns3:cad>0</ns3:cad>
          </ns3:TrackPointExtension>
        </extensions>
      </trkpt>
      <trkpt lat="45.2854623086750507354736328125" lon="-71.1109493672847747802734375">
        <ele>726.5999755859375</ele>
        <time>2026-08-22T00:37:21.000Z</time>
        <extensions>
          <ns3:TrackPointExtension>
            <ns3:hr>135</ns3:hr>
            <ns3:cad>0</ns3:cad>
          </ns3:TrackPointExtension>
        </extensions>
      </trkpt>
      <trkpt lat="45.28545551933348178863525390625" lon="-71.1109693162143230438232421875">
        <ele>726.5999755859375</ele>
        <time>2026-08-22T00:37:22.000Z</time>
        <extensions>
          <ns3:TrackPointExtension>
            <ns3:hr>136</ns3:hr>
            <ns3:cad>0</ns3:cad>
          </ns3:TrackPointExtension>
        </extensions>
      </trkpt>
      <trkpt lat="45.2854488976299762725830078125" lon="-71.11098649911582469940185546875">
        <ele>726.79998779296875</ele>
        <time>2026-08-22T00:37:23.000Z</time>
        <extensions>
          <ns3:TrackPointExtension>
            <ns3:hr>136</ns3:hr>
            <ns3:cad>0</ns3:cad>
          </ns3:TrackPointExtension>
        </extensions>
      </trkpt>
      <trkpt lat="45.2854458801448345184326171875" lon="-71.1110065318644046783447265625">
        <ele>726.79998779296875</ele>
        <time>2026-08-22T00:37:24.000Z</time>
        <extensions>
          <ns3:TrackPointExtension>
            <ns3:hr>136</ns3:hr>
            <ns3:cad>0</ns3:cad>
          </ns3:TrackPointExtension>
        </extensions>
      </trkpt>
      <trkpt lat="45.28544428758323192596435546875" lon="-71.11101868562400341033935546875">
        <ele>727</ele>
        <time>2026-08-22T00:37:25.000Z</time>
        <extensions>
          <ns3:TrackPointExtension>
            <ns3:hr>136</ns3:hr>
            <ns3:cad>0</ns3:cad>
          </ns3:TrackPointExtension>
        </extensions>
      </trkpt>
      <trkpt lat="45.28544269502162933349609375" lon="-71.1110296659171581268310546875">
        <ele>727</ele>
        <time>2026-08-22T00:37:26.000Z</time>
        <extensions>
          <ns3:TrackPointExtension>
            <ns3:hr>135</ns3:hr>
            <ns3:cad>0</ns3:cad>
          </ns3:TrackPointExtension>
        </extensions>
      </trkpt>
      <trkpt lat="45.2854425273835659027099609375" lon="-71.1110407300293445587158203125">
        <ele>727.20001220703125</ele>
        <time>2026-08-22T00:37:27.000Z</time>
        <extensions>
          <ns3:TrackPointExtension>
            <ns3:hr>135</ns3:hr>
            <ns3:cad>44</ns3:cad>
          </ns3:TrackPointExtension>
        </extensions>
      </trkpt>
      <trkpt lat="45.2854500710964202880859375" lon="-71.111038215458393096923828125">
        <ele>727.4000244140625</ele>
        <time>2026-08-22T00:37:28.000Z</time>
        <extensions>
          <ns3:TrackPointExtension>
            <ns3:hr>135</ns3:hr>
            <ns3:cad>44</ns3:cad>
          </ns3:TrackPointExtension>
        </extensions>
      </trkpt>
      <trkpt lat="45.28545367531478404998779296875" lon="-71.11103964038193225860595703125">
        <ele>727.5999755859375</ele>
        <time>2026-08-22T00:37:29.000Z</time>
        <extensions>
          <ns3:TrackPointExtension>
            <ns3:hr>134</ns3:hr>
            <ns3:cad>44</ns3:cad>
          </ns3:TrackPointExtension>
        </extensions>
      </trkpt>
      <trkpt lat="45.28545417822897434234619140625" lon="-71.11104584299027919769287109375">
        <ele>727.5999755859375</ele>
        <time>2026-08-22T00:37:30.000Z</time>
        <extensions>
          <ns3:TrackPointExtension>
            <ns3:hr>134</ns3:hr>
            <ns3:cad>44</ns3:cad>
          </ns3:TrackPointExtension>
        </extensions>
      </trkpt>
      <trkpt lat="45.285453759133815765380859375" lon="-71.11105942167341709136962890625">
        <ele>727.5999755859375</ele>
        <time>2026-08-22T00:37:31.000Z</time>
        <extensions>
          <ns3:TrackPointExtension>
            <ns3:hr>133</ns3:hr>
            <ns3:cad>0</ns3:cad>
          </ns3:TrackPointExtension>
        </extensions>
      </trkpt>
      <trkpt lat="45.2854539267718791961669921875" lon="-71.11107182689011096954345703125">
        <ele>727.5999755859375</ele>
        <time>2026-08-22T00:37:32.000Z</time>
        <extensions>
          <ns3:TrackPointExtension>
            <ns3:hr>132</ns3:hr>
            <ns3:cad>0</ns3:cad>
          </ns3:TrackPointExtension>
        </extensions>
      </trkpt>
      <trkpt lat="45.28545342385768890380859375" lon="-71.1110856570303440093994140625">
        <ele>727.5999755859375</ele>
        <time>2026-08-22T00:37:33.000Z</time>
        <extensions>
          <ns3:TrackPointExtension>
            <ns3:hr>132</ns3:hr>
            <ns3:cad>0</ns3:cad>
          </ns3:TrackPointExtension>
        </extensions>
      </trkpt>
      <trkpt lat="45.285453759133815765380859375" lon="-71.111099906265735626220703125">
        <ele>727.5999755859375</ele>
        <time>2026-08-22T00:37:34.000Z</time>
        <extensions>
          <ns3:TrackPointExtension>
            <ns3:hr>132</ns3:hr>
            <ns3:cad>0</ns3:cad>
          </ns3:TrackPointExtension>
        </extensions>
      </trkpt>
      <trkpt lat="45.2854566089808940887451171875" lon="-71.11110954545438289642333984375">
        <ele>727.5999755859375</ele>
        <time>2026-08-22T00:37:35.000Z</time>
        <extensions>
          <ns3:TrackPointExtension>
            <ns3:hr>132</ns3:hr>
            <ns3:cad>0</ns3:cad>
          </ns3:TrackPointExtension>
        </extensions>
      </trkpt>
      <trkpt lat="45.28545635752379894256591796875" lon="-71.1111201904714107513427734375">
        <ele>727.79998779296875</ele>
        <time>2026-08-22T00:37:36.000Z</time>
        <extensions>
          <ns3:TrackPointExtension>
            <ns3:hr>132</ns3:hr>
            <ns3:cad>0</ns3:cad>
          </ns3:TrackPointExtension>
        </extensions>
      </trkpt>
      <trkpt lat="45.28545635752379894256591796875" lon="-71.11112262122333049774169921875">
        <ele>728</ele>
        <time>2026-08-22T00:37:37.000Z</time>
        <extensions>
          <ns3:TrackPointExtension>
            <ns3:hr>132</ns3:hr>
            <ns3:cad>0</ns3:cad>
          </ns3:TrackPointExtension>
        </extensions>
      </trkpt>
      <trkpt lat="45.2854559384286403656005859375" lon="-71.11112882383167743682861328125">
        <ele>728.4000244140625</ele>
        <time>2026-08-22T00:37:38.000Z</time>
        <extensions>
          <ns3:TrackPointExtension>
            <ns3:hr>132</ns3:hr>
            <ns3:cad>0</ns3:cad>
          </ns3:TrackPointExtension>
        </extensions>
      </trkpt>
      <trkpt lat="45.2854529209434986114501953125" lon="-71.11113217659294605255126953125">
        <ele>728.5999755859375</ele>
        <time>2026-08-22T00:37:39.000Z</time>
        <extensions>
          <ns3:TrackPointExtension>
            <ns3:hr>132</ns3:hr>
            <ns3:cad>57</ns3:cad>
          </ns3:TrackPointExtension>
        </extensions>
      </trkpt>
      <trkpt lat="45.28544981963932514190673828125" lon="-71.1111279018223285675048828125">
        <ele>729</ele>
        <time>2026-08-22T00:37:40.000Z</time>
        <extensions>
          <ns3:TrackPointExtension>
            <ns3:hr>131</ns3:hr>
            <ns3:cad>57</ns3:cad>
          </ns3:TrackPointExtension>
        </extensions>
      </trkpt>
      <trkpt lat="45.28544629923999309539794921875" lon="-71.111122705042362213134765625">
        <ele>729.4000244140625</ele>
        <time>2026-08-22T00:37:41.000Z</time>
        <extensions>
          <ns3:TrackPointExtension>
            <ns3:hr>132</ns3:hr>
            <ns3:cad>60</ns3:cad>
          </ns3:TrackPointExtension>
        </extensions>
      </trkpt>
      <trkpt lat="45.28544059954583644866943359375" lon="-71.1111210286617279052734375">
        <ele>729.5999755859375</ele>
        <time>2026-08-22T00:37:42.000Z</time>
        <extensions>
          <ns3:TrackPointExtension>
            <ns3:hr>131</ns3:hr>
            <ns3:cad>60</ns3:cad>
          </ns3:TrackPointExtension>
        </extensions>
      </trkpt>
      <trkpt lat="45.28543422929942607879638671875" lon="-71.111119687557220458984375">
        <ele>729.79998779296875</ele>
        <time>2026-08-22T00:37:43.000Z</time>
        <extensions>
          <ns3:TrackPointExtension>
            <ns3:hr>131</ns3:hr>
            <ns3:cad>60</ns3:cad>
          </ns3:TrackPointExtension>
        </extensions>
      </trkpt>
      <trkpt lat="45.2854264341294765472412109375" lon="-71.1111210286617279052734375">
        <ele>730</ele>
        <time>2026-08-22T00:37:44.000Z</time>
        <extensions>
          <ns3:TrackPointExtension>
            <ns3:hr>130</ns3:hr>
            <ns3:cad>60</ns3:cad>
          </ns3:TrackPointExtension>
        </extensions>
      </trkpt>
      <trkpt lat="45.28540891595184803009033203125" lon="-71.111127398908138275146484375">
        <ele>730.20001220703125</ele>
        <time>2026-08-22T00:37:45.000Z</time>
        <extensions>
          <ns3:TrackPointExtension>
            <ns3:hr>130</ns3:hr>
            <ns3:cad>60</ns3:cad>
          </ns3:TrackPointExtension>
        </extensions>
      </trkpt>
      <trkpt lat="45.28539751656353473663330078125" lon="-71.1111389659345149993896484375">
        <ele>730.20001220703125</ele>
        <time>2026-08-22T00:37:46.000Z</time>
        <extensions>
          <ns3:TrackPointExtension>
            <ns3:hr>130</ns3:hr>
            <ns3:cad>48</ns3:cad>
          </ns3:TrackPointExtension>
        </extensions>
      </trkpt>
      <trkpt lat="45.28538963757455348968505859375" lon="-71.111154220998287200927734375">
        <ele>730.20001220703125</ele>
        <time>2026-08-22T00:37:47.000Z</time>
        <extensions>
          <ns3:TrackPointExtension>
            <ns3:hr>130</ns3:hr>
            <ns3:cad>48</ns3:cad>
          </ns3:TrackPointExtension>
        </extensions>
      </trkpt>
      <trkpt lat="45.28538729064166545867919921875" lon="-71.11116201616823673248291015625">
        <ele>730.20001220703125</ele>
        <time>2026-08-22T00:37:48.000Z</time>
        <extensions>
          <ns3:TrackPointExtension>
            <ns3:hr>130</ns3:hr>
            <ns3:cad>48</ns3:cad>
          </ns3:TrackPointExtension>
        </extensions>
      </trkpt>
      <trkpt lat="45.28538527898490428924560546875" lon="-71.11117810942232608795166015625">
        <ele>730</ele>
        <time>2026-08-22T00:37:49.000Z</time>
        <extensions>
          <ns3:TrackPointExtension>
            <ns3:hr>131</ns3:hr>
            <ns3:cad>46</ns3:cad>
          </ns3:TrackPointExtension>
        </extensions>
      </trkpt>
      <trkpt lat="45.2853805013000965118408203125" lon="-71.111194454133510589599609375">
        <ele>730</ele>
        <time>2026-08-22T00:37:50.000Z</time>
        <extensions>
          <ns3:TrackPointExtension>
            <ns3:hr>132</ns3:hr>
            <ns3:cad>46</ns3:cad>
          </ns3:TrackPointExtension>
        </extensions>
      </trkpt>
      <trkpt lat="45.285373628139495849609375" lon="-71.11121146939694881439208984375">
        <ele>729.79998779296875</ele>
        <time>2026-08-22T00:37:51.000Z</time>
        <extensions>
          <ns3:TrackPointExtension>
            <ns3:hr>132</ns3:hr>
            <ns3:cad>0</ns3:cad>
          </ns3:TrackPointExtension>
        </extensions>
      </trkpt>
      <trkpt lat="45.2853696048259735107421875" lon="-71.111226975917816162109375">
        <ele>729.79998779296875</ele>
        <time>2026-08-22T00:37:52.000Z</time>
        <extensions>
          <ns3:TrackPointExtension>
            <ns3:hr>132</ns3:hr>
            <ns3:cad>0</ns3:cad>
          </ns3:TrackPointExtension>
        </extensions>
      </trkpt>
      <trkpt lat="45.2853623963892459869384765625" lon="-71.11124147661030292510986328125">
        <ele>729.5999755859375</ele>
        <time>2026-08-22T00:37:53.000Z</time>
        <extensions>
          <ns3:TrackPointExtension>
            <ns3:hr>133</ns3:hr>
            <ns3:cad>0</ns3:cad>
          </ns3:TrackPointExtension>
        </extensions>
      </trkpt>
      <trkpt lat="45.28535443358123302459716796875" lon="-71.1112616769969463348388671875">
        <ele>729.4000244140625</ele>
        <time>2026-08-22T00:37:54.000Z</time>
        <extensions>
          <ns3:TrackPointExtension>
            <ns3:hr>133</ns3:hr>
            <ns3:cad>0</ns3:cad>
          </ns3:TrackPointExtension>
        </extensions>
      </trkpt>
      <trkpt lat="45.28534345328807830810546875" lon="-71.11127617768943309783935546875">
        <ele>729.4000244140625</ele>
        <time>2026-08-22T00:37:55.000Z</time>
        <extensions>
          <ns3:TrackPointExtension>
            <ns3:hr>133</ns3:hr>
            <ns3:cad>0</ns3:cad>
          </ns3:TrackPointExtension>
        </extensions>
      </trkpt>
      <trkpt lat="45.2853285335004329681396484375" lon="-71.1112861521542072296142578125">
        <ele>729.20001220703125</ele>
        <time>2026-08-22T00:37:56.000Z</time>
        <extensions>
          <ns3:TrackPointExtension>
            <ns3:hr>133</ns3:hr>
            <ns3:cad>0</ns3:cad>
          </ns3:TrackPointExtension>
        </extensions>
      </trkpt>
      <trkpt lat="45.28531034477055072784423828125" lon="-71.1112965457141399383544921875">
        <ele>729.20001220703125</ele>
        <time>2026-08-22T00:37:57.000Z</time>
        <extensions>
          <ns3:TrackPointExtension>
            <ns3:hr>133</ns3:hr>
            <ns3:cad>0</ns3:cad>
          </ns3:TrackPointExtension>
        </extensions>
      </trkpt>
      <trkpt lat="45.28529584407806396484375" lon="-71.11129797063767910003662109375">
        <ele>729.20001220703125</ele>
        <time>2026-08-22T00:37:58.000Z</time>
        <extensions>
          <ns3:TrackPointExtension>
            <ns3:hr>132</ns3:hr>
            <ns3:cad>0</ns3:cad>
          </ns3:TrackPointExtension>
        </extensions>
      </trkpt>
      <trkpt lat="45.285284109413623809814453125" lon="-71.1112982220947742462158203125">
        <ele>729.20001220703125</ele>
        <time>2026-08-22T00:37:59.000Z</time>
        <extensions>
          <ns3:TrackPointExtension>
            <ns3:hr>132</ns3:hr>
            <ns3:cad>0</ns3:cad>
          </ns3:TrackPointExtension>
        </extensions>
      </trkpt>
      <trkpt lat="45.28526742942631244659423828125" lon="-71.1113025806844234466552734375">
        <ele>729.5999755859375</ele>
        <time>2026-08-22T00:38:00.000Z</time>
        <extensions>
          <ns3:TrackPointExtension>
            <ns3:hr>132</ns3:hr>
            <ns3:cad>0</ns3:cad>
          </ns3:TrackPointExtension>
        </extensions>
      </trkpt>
      <trkpt lat="45.28525535948574542999267578125" lon="-71.11130618490278720855712890625">
        <ele>729.79998779296875</ele>
        <time>2026-08-22T00:38:01.000Z</time>
        <extensions>
          <ns3:TrackPointExtension>
            <ns3:hr>132</ns3:hr>
            <ns3:cad>66</ns3:cad>
          </ns3:TrackPointExtension>
        </extensions>
      </trkpt>
      <trkpt lat="45.28524328954517841339111328125" lon="-71.1113089509308338165283203125">
        <ele>730.20001220703125</ele>
        <time>2026-08-22T00:38:02.000Z</time>
        <extensions>
          <ns3:TrackPointExtension>
            <ns3:hr>132</ns3:hr>
            <ns3:cad>66</ns3:cad>
          </ns3:TrackPointExtension>
        </extensions>
      </trkpt>
      <trkpt lat="45.285233147442340850830078125" lon="-71.111309118568897247314453125">
        <ele>730.4000244140625</ele>
        <time>2026-08-22T00:38:03.000Z</time>
        <extensions>
          <ns3:TrackPointExtension>
            <ns3:hr>132</ns3:hr>
            <ns3:cad>66</ns3:cad>
          </ns3:TrackPointExtension>
        </extensions>
      </trkpt>
      <trkpt lat="45.28521847911179065704345703125" lon="-71.11130869947373867034912109375">
        <ele>730.5999755859375</ele>
        <time>2026-08-22T00:38:04.000Z</time>
        <extensions>
          <ns3:TrackPointExtension>
            <ns3:hr>132</ns3:hr>
            <ns3:cad>66</ns3:cad>
          </ns3:TrackPointExtension>
        </extensions>
      </trkpt>
      <trkpt lat="45.2852086722850799560546875" lon="-71.11130945384502410888671875">
        <ele>730.79998779296875</ele>
        <time>2026-08-22T00:38:05.000Z</time>
        <extensions>
          <ns3:TrackPointExtension>
            <ns3:hr>132</ns3:hr>
            <ns3:cad>66</ns3:cad>
          </ns3:TrackPointExtension>
        </extensions>
      </trkpt>
      <trkpt lat="45.28519953601062297821044921875" lon="-71.11130953766405582427978515625">
        <ele>730.5999755859375</ele>
        <time>2026-08-22T00:38:06.000Z</time>
        <extensions>
          <ns3:TrackPointExtension>
            <ns3:hr>131</ns3:hr>
            <ns3:cad>66</ns3:cad>
          </ns3:TrackPointExtension>
        </extensions>
      </trkpt>
      <trkpt lat="45.2851898968219757080078125" lon="-71.11130920238792896270751953125">
        <ele>730.4000244140625</ele>
        <time>2026-08-22T00:38:07.000Z</time>
        <extensions>
          <ns3:TrackPointExtension>
            <ns3:hr>132</ns3:hr>
            <ns3:cad>0</ns3:cad>
          </ns3:TrackPointExtension>
        </extensions>
      </trkpt>
      <trkpt lat="45.28517791070044040679931640625" lon="-71.11130534671247005462646484375">
        <ele>730.20001220703125</ele>
        <time>2026-08-22T00:38:08.000Z</time>
        <extensions>
          <ns3:TrackPointExtension>
            <ns3:hr>132</ns3:hr>
            <ns3:cad>0</ns3:cad>
          </ns3:TrackPointExtension>
        </extensions>
      </trkpt>
      <trkpt lat="45.28516483493149280548095703125" lon="-71.11129813827574253082275390625">
        <ele>730</ele>
        <time>2026-08-22T00:38:09.000Z</time>
        <extensions>
          <ns3:TrackPointExtension>
            <ns3:hr>132</ns3:hr>
            <ns3:cad>0</ns3:cad>
          </ns3:TrackPointExtension>
        </extensions>
      </trkpt>
      <trkpt lat="45.2851525135338306427001953125" lon="-71.11129394732415676116943359375">
        <ele>730</ele>
        <time>2026-08-22T00:38:10.000Z</time>
        <extensions>
          <ns3:TrackPointExtension>
            <ns3:hr>132</ns3:hr>
            <ns3:cad>0</ns3:cad>
          </ns3:TrackPointExtension>
        </extensions>
      </trkpt>
      <trkpt lat="45.28513968922197818756103515625" lon="-71.11129696480929851531982421875">
        <ele>729.79998779296875</ele>
        <time>2026-08-22T00:38:11.000Z</time>
        <extensions>
          <ns3:TrackPointExtension>
            <ns3:hr>132</ns3:hr>
            <ns3:cad>0</ns3:cad>
          </ns3:TrackPointExtension>
        </extensions>
      </trkpt>
      <trkpt lat="45.2851255238056182861328125" lon="-71.111303754150867462158203125">
        <ele>729.79998779296875</ele>
        <time>2026-08-22T00:38:12.000Z</time>
        <extensions>
          <ns3:TrackPointExtension>
            <ns3:hr>132</ns3:hr>
            <ns3:cad>0</ns3:cad>
          </ns3:TrackPointExtension>
        </extensions>
      </trkpt>
      <trkpt lat="45.28511454351246356964111328125" lon="-71.111309789121150970458984375">
        <ele>729.79998779296875</ele>
        <time>2026-08-22T00:38:13.000Z</time>
        <extensions>
          <ns3:TrackPointExtension>
            <ns3:hr>132</ns3:hr>
            <ns3:cad>0</ns3:cad>
          </ns3:TrackPointExtension>
        </extensions>
      </trkpt>
      <trkpt lat="45.285105407238006591796875" lon="-71.11131926067173480987548828125">
        <ele>729.5999755859375</ele>
        <time>2026-08-22T00:38:14.000Z</time>
        <extensions>
          <ns3:TrackPointExtension>
            <ns3:hr>132</ns3:hr>
            <ns3:cad>0</ns3:cad>
          </ns3:TrackPointExtension>
        </extensions>
      </trkpt>
      <trkpt lat="45.2851015515625476837158203125" lon="-71.1113334260880947113037109375">
        <ele>729.4000244140625</ele>
        <time>2026-08-22T00:38:15.000Z</time>
        <extensions>
          <ns3:TrackPointExtension>
            <ns3:hr>131</ns3:hr>
            <ns3:cad>0</ns3:cad>
          </ns3:TrackPointExtension>
        </extensions>
      </trkpt>
      <trkpt lat="45.28509610332548618316650390625" lon="-71.11134440638124942779541015625">
        <ele>729</ele>
        <time>2026-08-22T00:38:16.000Z</time>
        <extensions>
          <ns3:TrackPointExtension>
            <ns3:hr>131</ns3:hr>
            <ns3:cad>0</ns3:cad>
          </ns3:TrackPointExtension>
        </extensions>
      </trkpt>
      <trkpt lat="45.28508939780294895172119140625" lon="-71.1113609187304973602294921875">
        <ele>728.79998779296875</ele>
        <time>2026-08-22T00:38:17.000Z</time>
        <extensions>
          <ns3:TrackPointExtension>
            <ns3:hr>130</ns3:hr>
            <ns3:cad>0</ns3:cad>
          </ns3:TrackPointExtension>
        </extensions>
      </trkpt>
      <trkpt lat="45.285078585147857666015625" lon="-71.1113753356039524078369140625">
        <ele>728.4000244140625</ele>
        <time>2026-08-22T00:38:18.000Z</time>
        <extensions>
          <ns3:TrackPointExtension>
            <ns3:hr>130</ns3:hr>
            <ns3:cad>0</ns3:cad>
          </ns3:TrackPointExtension>
        </extensions>
      </trkpt>
      <trkpt lat="45.2850700356066226959228515625" lon="-71.1113971285521984100341796875">
        <ele>728</ele>
        <time>2026-08-22T00:38:19.000Z</time>
        <extensions>
          <ns3:TrackPointExtension>
            <ns3:hr>130</ns3:hr>
            <ns3:cad>0</ns3:cad>
          </ns3:TrackPointExtension>
        </extensions>
      </trkpt>
      <trkpt lat="45.28507011942565441131591796875" lon="-71.11141414381563663482666015625">
        <ele>727.5999755859375</ele>
        <time>2026-08-22T00:38:20.000Z</time>
        <extensions>
          <ns3:TrackPointExtension>
            <ns3:hr>129</ns3:hr>
            <ns3:cad>0</ns3:cad>
          </ns3:TrackPointExtension>
        </extensions>
      </trkpt>
      <trkpt lat="45.28505980968475341796875" lon="-71.11142638139426708221435546875">
        <ele>727.20001220703125</ele>
        <time>2026-08-22T00:38:21.000Z</time>
        <extensions>
          <ns3:TrackPointExtension>
            <ns3:hr>129</ns3:hr>
            <ns3:cad>0</ns3:cad>
          </ns3:TrackPointExtension>
        </extensions>
      </trkpt>
      <trkpt lat="45.28504949994385242462158203125" lon="-71.11144297756254673004150390625">
        <ele>727</ele>
        <time>2026-08-22T00:38:22.000Z</time>
        <extensions>
          <ns3:TrackPointExtension>
            <ns3:hr>128</ns3:hr>
            <ns3:cad>0</ns3:cad>
          </ns3:TrackPointExtension>
        </extensions>
      </trkpt>
      <trkpt lat="45.2850391902029514312744140625" lon="-71.1114643514156341552734375">
        <ele>727</ele>
        <time>2026-08-22T00:38:23.000Z</time>
        <extensions>
          <ns3:TrackPointExtension>
            <ns3:hr>128</ns3:hr>
            <ns3:cad>0</ns3:cad>
          </ns3:TrackPointExtension>
        </extensions>
      </trkpt>
      <trkpt lat="45.2850308082997798919677734375" lon="-71.11148111522197723388671875">
        <ele>726.79998779296875</ele>
        <time>2026-08-22T00:38:24.000Z</time>
        <extensions>
          <ns3:TrackPointExtension>
            <ns3:hr>128</ns3:hr>
            <ns3:cad>0</ns3:cad>
          </ns3:TrackPointExtension>
        </extensions>
      </trkpt>
      <trkpt lat="45.28502284549176692962646484375" lon="-71.1114896647632122039794921875">
        <ele>726.79998779296875</ele>
        <time>2026-08-22T00:38:25.000Z</time>
        <extensions>
          <ns3:TrackPointExtension>
            <ns3:hr>127</ns3:hr>
            <ns3:cad>0</ns3:cad>
          </ns3:TrackPointExtension>
        </extensions>
      </trkpt>
      <trkpt lat="45.28501513414084911346435546875" lon="-71.1114978790283203125">
        <ele>726.79998779296875</ele>
        <time>2026-08-22T00:38:26.000Z</time>
        <extensions>
          <ns3:TrackPointExtension>
            <ns3:hr>127</ns3:hr>
            <ns3:cad>0</ns3:cad>
          </ns3:TrackPointExtension>
        </extensions>
      </trkpt>
      <trkpt lat="45.28500809334218502044677734375" lon="-71.11150567419826984405517578125">
        <ele>726.5999755859375</ele>
        <time>2026-08-22T00:38:27.000Z</time>
        <extensions>
          <ns3:TrackPointExtension>
            <ns3:hr>127</ns3:hr>
            <ns3:cad>0</ns3:cad>
          </ns3:TrackPointExtension>
        </extensions>
      </trkpt>
      <trkpt lat="45.28500189073383808135986328125" lon="-71.11150969751179218292236328125">
        <ele>726.5999755859375</ele>
        <time>2026-08-22T00:38:28.000Z</time>
        <extensions>
          <ns3:TrackPointExtension>
            <ns3:hr>127</ns3:hr>
            <ns3:cad>0</ns3:cad>
          </ns3:TrackPointExtension>
        </extensions>
      </trkpt>
      <trkpt lat="45.284997113049030303955078125" lon="-71.11150567419826984405517578125">
        <ele>726.79998779296875</ele>
        <time>2026-08-22T00:38:29.000Z</time>
        <extensions>
          <ns3:TrackPointExtension>
            <ns3:hr>127</ns3:hr>
            <ns3:cad>56</ns3:cad>
          </ns3:TrackPointExtension>
        </extensions>
      </trkpt>
      <trkpt lat="45.28499342501163482666015625" lon="-71.11150315962731838226318359375">
        <ele>727</ele>
        <time>2026-08-22T00:38:30.000Z</time>
        <extensions>
          <ns3:TrackPointExtension>
            <ns3:hr>127</ns3:hr>
            <ns3:cad>56</ns3:cad>
          </ns3:TrackPointExtension>
        </extensions>
      </trkpt>
      <trkpt lat="45.28498898260295391082763671875" lon="-71.1115030758082866668701171875">
        <ele>727.20001220703125</ele>
        <time>2026-08-22T00:38:31.000Z</time>
        <extensions>
          <ns3:TrackPointExtension>
            <ns3:hr>127</ns3:hr>
            <ns3:cad>56</ns3:cad>
          </ns3:TrackPointExtension>
        </extensions>
      </trkpt>
      <trkpt lat="45.2849887311458587646484375" lon="-71.11150081269443035125732421875">
        <ele>727.4000244140625</ele>
        <time>2026-08-22T00:38:32.000Z</time>
        <extensions>
          <ns3:TrackPointExtension>
            <ns3:hr>127</ns3:hr>
            <ns3:cad>56</ns3:cad>
          </ns3:TrackPointExtension>
        </extensions>
      </trkpt>
      <trkpt lat="45.2849855460226535797119140625" lon="-71.11150081269443035125732421875">
        <ele>727.5999755859375</ele>
        <time>2026-08-22T00:38:33.000Z</time>
        <extensions>
          <ns3:TrackPointExtension>
            <ns3:hr>127</ns3:hr>
            <ns3:cad>56</ns3:cad>
          </ns3:TrackPointExtension>
        </extensions>
      </trkpt>
      <trkpt lat="45.284978337585926055908203125" lon="-71.111500561237335205078125">
        <ele>728</ele>
        <time>2026-08-22T00:38:34.000Z</time>
        <extensions>
          <ns3:TrackPointExtension>
            <ns3:hr>128</ns3:hr>
            <ns3:cad>48</ns3:cad>
          </ns3:TrackPointExtension>
        </extensions>
      </trkpt>
      <trkpt lat="45.28497205115854740142822265625" lon="-71.111498884856700897216796875">
        <ele>728.20001220703125</ele>
        <time>2026-08-22T00:38:35.000Z</time>
        <extensions>
          <ns3:TrackPointExtension>
            <ns3:hr>127</ns3:hr>
            <ns3:cad>48</ns3:cad>
          </ns3:TrackPointExtension>
        </extensions>
      </trkpt>
      <trkpt lat="45.284961573779582977294921875" lon="-71.11150030978024005889892578125">
        <ele>728.4000244140625</ele>
        <time>2026-08-22T00:38:36.000Z</time>
        <extensions>
          <ns3:TrackPointExtension>
            <ns3:hr>126</ns3:hr>
            <ns3:cad>45</ns3:cad>
          </ns3:TrackPointExtension>
        </extensions>
      </trkpt>
      <trkpt lat="45.28494908474385738372802734375" lon="-71.111501567065715789794921875">
        <ele>728.5999755859375</ele>
        <time>2026-08-22T00:38:37.000Z</time>
        <extensions>
          <ns3:TrackPointExtension>
            <ns3:hr>125</ns3:hr>
            <ns3:cad>45</ns3:cad>
          </ns3:TrackPointExtension>
        </extensions>
      </trkpt>
      <trkpt lat="45.28494120575487613677978515625" lon="-71.11150299198925495147705078125">
        <ele>728.79998779296875</ele>
        <time>2026-08-22T00:38:38.000Z</time>
        <extensions>
          <ns3:TrackPointExtension>
            <ns3:hr>124</ns3:hr>
            <ns3:cad>45</ns3:cad>
          </ns3:TrackPointExtension>
        </extensions>
      </trkpt>
      <trkpt lat="45.2849352546036243438720703125" lon="-71.111505590379238128662109375">
        <ele>729</ele>
        <time>2026-08-22T00:38:39.000Z</time>
        <extensions>
          <ns3:TrackPointExtension>
            <ns3:hr>124</ns3:hr>
            <ns3:cad>45</ns3:cad>
          </ns3:TrackPointExtension>
        </extensions>
      </trkpt>
      <trkpt lat="45.28492662124335765838623046875" lon="-71.1115101166069507598876953125">
        <ele>729.4000244140625</ele>
        <time>2026-08-22T00:38:40.000Z</time>
        <extensions>
          <ns3:TrackPointExtension>
            <ns3:hr>124</ns3:hr>
            <ns3:cad>45</ns3:cad>
          </ns3:TrackPointExtension>
        </extensions>
      </trkpt>
      <trkpt lat="45.2849198319017887115478515625" lon="-71.11151422373950481414794921875">
        <ele>729.5999755859375</ele>
        <time>2026-08-22T00:38:41.000Z</time>
        <extensions>
          <ns3:TrackPointExtension>
            <ns3:hr>125</ns3:hr>
            <ns3:cad>45</ns3:cad>
          </ns3:TrackPointExtension>
        </extensions>
      </trkpt>
      <trkpt lat="45.28492192737758159637451171875" lon="-71.111508272588253021240234375">
        <ele>729.79998779296875</ele>
        <time>2026-08-22T00:38:42.000Z</time>
        <extensions>
          <ns3:TrackPointExtension>
            <ns3:hr>125</ns3:hr>
            <ns3:cad>45</ns3:cad>
          </ns3:TrackPointExtension>
        </extensions>
      </trkpt>
      <trkpt lat="45.2849148027598857879638671875" lon="-71.111507602035999298095703125">
        <ele>730</ele>
        <time>2026-08-22T00:38:43.000Z</time>
        <extensions>
          <ns3:TrackPointExtension>
            <ns3:hr>125</ns3:hr>
            <ns3:cad>0</ns3:cad>
          </ns3:TrackPointExtension>
        </extensions>
      </trkpt>
      <trkpt lat="45.28490625321865081787109375" lon="-71.1115107871592044830322265625">
        <ele>730.4000244140625</ele>
        <time>2026-08-22T00:38:44.000Z</time>
        <extensions>
          <ns3:TrackPointExtension>
            <ns3:hr>125</ns3:hr>
            <ns3:cad>0</ns3:cad>
          </ns3:TrackPointExtension>
        </extensions>
      </trkpt>
      <trkpt lat="45.2848973684012889862060546875" lon="-71.11151355318725109100341796875">
        <ele>730.5999755859375</ele>
        <time>2026-08-22T00:38:45.000Z</time>
        <extensions>
          <ns3:TrackPointExtension>
            <ns3:hr>125</ns3:hr>
            <ns3:cad>0</ns3:cad>
          </ns3:TrackPointExtension>
        </extensions>
      </trkpt>
      <trkpt lat="45.28489342890679836273193359375" lon="-71.11151724122464656829833984375">
        <ele>730.79998779296875</ele>
        <time>2026-08-22T00:38:46.000Z</time>
        <extensions>
          <ns3:TrackPointExtension>
            <ns3:hr>125</ns3:hr>
            <ns3:cad>0</ns3:cad>
          </ns3:TrackPointExtension>
        </extensions>
      </trkpt>
      <trkpt lat="45.284879766404628753662109375" lon="-71.11151405610144138336181640625">
        <ele>731</ele>
        <time>2026-08-22T00:38:47.000Z</time>
        <extensions>
          <ns3:TrackPointExtension>
            <ns3:hr>125</ns3:hr>
            <ns3:cad>0</ns3:cad>
          </ns3:TrackPointExtension>
        </extensions>
      </trkpt>
      <trkpt lat="45.2848671935498714447021484375" lon="-71.11151841469109058380126953125">
        <ele>731.20001220703125</ele>
        <time>2026-08-22T00:38:48.000Z</time>
        <extensions>
          <ns3:TrackPointExtension>
            <ns3:hr>124</ns3:hr>
            <ns3:cad>0</ns3:cad>
          </ns3:TrackPointExtension>
        </extensions>
      </trkpt>
      <trkpt lat="45.28485604561865329742431640625" lon="-71.11152042634785175323486328125">
        <ele>731.4000244140625</ele>
        <time>2026-08-22T00:38:49.000Z</time>
        <extensions>
          <ns3:TrackPointExtension>
            <ns3:hr>124</ns3:hr>
            <ns3:cad>0</ns3:cad>
          </ns3:TrackPointExtension>
        </extensions>
      </trkpt>
      <trkpt lat="45.284847579896450042724609375" lon="-71.11152268946170806884765625">
        <ele>731.79998779296875</ele>
        <time>2026-08-22T00:38:50.000Z</time>
        <extensions>
          <ns3:TrackPointExtension>
            <ns3:hr>124</ns3:hr>
            <ns3:cad>0</ns3:cad>
          </ns3:TrackPointExtension>
        </extensions>
      </trkpt>
      <trkpt lat="45.28483928181231021881103515625" lon="-71.1115262098610401153564453125">
        <ele>732</ele>
        <time>2026-08-22T00:38:51.000Z</time>
        <extensions>
          <ns3:TrackPointExtension>
            <ns3:hr>124</ns3:hr>
            <ns3:cad>0</ns3:cad>
          </ns3:TrackPointExtension>
        </extensions>
      </trkpt>
      <trkpt lat="45.28483358211815357208251953125" lon="-71.1115282215178012847900390625">
        <ele>732.20001220703125</ele>
        <time>2026-08-22T00:38:52.000Z</time>
        <extensions>
          <ns3:TrackPointExtension>
            <ns3:hr>124</ns3:hr>
            <ns3:cad>0</ns3:cad>
          </ns3:TrackPointExtension>
        </extensions>
      </trkpt>
      <trkpt lat="45.2848272956907749176025390625" lon="-71.11152805387973785400390625">
        <ele>732.5999755859375</ele>
        <time>2026-08-22T00:38:53.000Z</time>
        <extensions>
          <ns3:TrackPointExtension>
            <ns3:hr>125</ns3:hr>
            <ns3:cad>44</ns3:cad>
          </ns3:TrackPointExtension>
        </extensions>
      </trkpt>
      <trkpt lat="45.284818746149539947509765625" lon="-71.11153132282197475433349609375">
        <ele>732.79998779296875</ele>
        <time>2026-08-22T00:38:54.000Z</time>
        <extensions>
          <ns3:TrackPointExtension>
            <ns3:hr>125</ns3:hr>
            <ns3:cad>44</ns3:cad>
          </ns3:TrackPointExtension>
        </extensions>
      </trkpt>
      <trkpt lat="45.28480743058025836944580078125" lon="-71.1115329153835773468017578125">
        <ele>733</ele>
        <time>2026-08-22T00:38:55.000Z</time>
        <extensions>
          <ns3:TrackPointExtension>
            <ns3:hr>125</ns3:hr>
            <ns3:cad>0</ns3:cad>
          </ns3:TrackPointExtension>
        </extensions>
      </trkpt>
      <trkpt lat="45.28479502536356449127197265625" lon="-71.11152847297489643096923828125">
        <ele>733.20001220703125</ele>
        <time>2026-08-22T00:38:56.000Z</time>
        <extensions>
          <ns3:TrackPointExtension>
            <ns3:hr>128</ns3:hr>
            <ns3:cad>0</ns3:cad>
          </ns3:TrackPointExtension>
        </extensions>
      </trkpt>
      <trkpt lat="45.2847860567271709442138671875" lon="-71.11152662895619869232177734375">
        <ele>733.4000244140625</ele>
        <time>2026-08-22T00:38:57.000Z</time>
        <extensions>
          <ns3:TrackPointExtension>
            <ns3:hr>132</ns3:hr>
            <ns3:cad>0</ns3:cad>
          </ns3:TrackPointExtension>
        </extensions>
      </trkpt>
      <trkpt lat="45.28478421270847320556640625" lon="-71.1115268804132938385009765625">
        <ele>733.4000244140625</ele>
        <time>2026-08-22T00:38:58.000Z</time>
        <extensions>
          <ns3:TrackPointExtension>
            <ns3:hr>134</ns3:hr>
            <ns3:cad>0</ns3:cad>
          </ns3:TrackPointExtension>
        </extensions>
      </trkpt>
      <trkpt lat="45.28477541171014308929443359375" lon="-71.1115262098610401153564453125">
        <ele>733.5999755859375</ele>
        <time>2026-08-22T00:38:59.000Z</time>
        <extensions>
          <ns3:TrackPointExtension>
            <ns3:hr>134</ns3:hr>
            <ns3:cad>0</ns3:cad>
          </ns3:TrackPointExtension>
        </extensions>
      </trkpt>
      <trkpt lat="45.28476837091147899627685546875" lon="-71.11152528785169124603271484375">
        <ele>733.79998779296875</ele>
        <time>2026-08-22T00:39:00.000Z</time>
        <extensions>
          <ns3:TrackPointExtension>
            <ns3:hr>135</ns3:hr>
            <ns3:cad>44</ns3:cad>
          </ns3:TrackPointExtension>
        </extensions>
      </trkpt>
      <trkpt lat="45.28475495986640453338623046875" lon="-71.11152679659426212310791015625">
        <ele>734</ele>
        <time>2026-08-22T00:39:01.000Z</time>
        <extensions>
          <ns3:TrackPointExtension>
            <ns3:hr>134</ns3:hr>
            <ns3:cad>44</ns3:cad>
          </ns3:TrackPointExtension>
        </extensions>
      </trkpt>
      <trkpt lat="45.28474691323935985565185546875" lon="-71.11152512021362781524658203125">
        <ele>734.4000244140625</ele>
        <time>2026-08-22T00:39:02.000Z</time>
        <extensions>
          <ns3:TrackPointExtension>
            <ns3:hr>134</ns3:hr>
            <ns3:cad>44</ns3:cad>
          </ns3:TrackPointExtension>
        </extensions>
      </trkpt>
      <trkpt lat="45.284742973744869232177734375" lon="-71.11152143217623233795166015625">
        <ele>734.5999755859375</ele>
        <time>2026-08-22T00:39:03.000Z</time>
        <extensions>
          <ns3:TrackPointExtension>
            <ns3:hr>135</ns3:hr>
            <ns3:cad>44</ns3:cad>
          </ns3:TrackPointExtension>
        </extensions>
      </trkpt>
      <trkpt lat="45.2847317419946193695068359375" lon="-71.11151740886270999908447265625">
        <ele>734.79998779296875</ele>
        <time>2026-08-22T00:39:04.000Z</time>
        <extensions>
          <ns3:TrackPointExtension>
            <ns3:hr>135</ns3:hr>
            <ns3:cad>44</ns3:cad>
          </ns3:TrackPointExtension>
        </extensions>
      </trkpt>
      <trkpt lat="45.28472327627241611480712890625" lon="-71.1115134693682193756103515625">
        <ele>735</ele>
        <time>2026-08-22T00:39:05.000Z</time>
        <extensions>
          <ns3:TrackPointExtension>
            <ns3:hr>135</ns3:hr>
            <ns3:cad>44</ns3:cad>
          </ns3:TrackPointExtension>
        </extensions>
      </trkpt>
      <trkpt lat="45.28471053577959537506103515625" lon="-71.11151061952114105224609375">
        <ele>735.20001220703125</ele>
        <time>2026-08-22T00:39:06.000Z</time>
        <extensions>
          <ns3:TrackPointExtension>
            <ns3:hr>136</ns3:hr>
            <ns3:cad>44</ns3:cad>
          </ns3:TrackPointExtension>
        </extensions>
      </trkpt>
      <trkpt lat="45.28469578363001346588134765625" lon="-71.111509613692760467529296875">
        <ele>735.4000244140625</ele>
        <time>2026-08-22T00:39:07.000Z</time>
        <extensions>
          <ns3:TrackPointExtension>
            <ns3:hr>136</ns3:hr>
            <ns3:cad>44</ns3:cad>
          </ns3:TrackPointExtension>
        </extensions>
      </trkpt>
      <trkpt lat="45.284684635698795318603515625" lon="-71.11151053570210933685302734375">
        <ele>735.5999755859375</ele>
        <time>2026-08-22T00:39:08.000Z</time>
        <extensions>
          <ns3:TrackPointExtension>
            <ns3:hr>137</ns3:hr>
            <ns3:cad>44</ns3:cad>
          </ns3:TrackPointExtension>
        </extensions>
      </trkpt>
      <trkpt lat="45.2846767567098140716552734375" lon="-71.11151405610144138336181640625">
        <ele>735.79998779296875</ele>
        <time>2026-08-22T00:39:09.000Z</time>
        <extensions>
          <ns3:TrackPointExtension>
            <ns3:hr>137</ns3:hr>
            <ns3:cad>44</ns3:cad>
          </ns3:TrackPointExtension>
        </extensions>
      </trkpt>
      <trkpt lat="45.28466376475989818572998046875" lon="-71.1115188337862491607666015625">
        <ele>736</ele>
        <time>2026-08-22T00:39:10.000Z</time>
        <extensions>
          <ns3:TrackPointExtension>
            <ns3:hr>137</ns3:hr>
            <ns3:cad>0</ns3:cad>
          </ns3:TrackPointExtension>
        </extensions>
      </trkpt>
      <trkpt lat="45.2846485935151576995849609375" lon="-71.11152159981429576873779296875">
        <ele>736.4000244140625</ele>
        <time>2026-08-22T00:39:11.000Z</time>
        <extensions>
          <ns3:TrackPointExtension>
            <ns3:hr>137</ns3:hr>
            <ns3:cad>0</ns3:cad>
          </ns3:TrackPointExtension>
        </extensions>
      </trkpt>
      <trkpt lat="45.284641720354557037353515625" lon="-71.11152294091880321502685546875">
        <ele>736.5999755859375</ele>
        <time>2026-08-22T00:39:12.000Z</time>
        <extensions>
          <ns3:TrackPointExtension>
            <ns3:hr>137</ns3:hr>
            <ns3:cad>0</ns3:cad>
          </ns3:TrackPointExtension>
        </extensions>
      </trkpt>
      <trkpt lat="45.284633003175258636474609375" lon="-71.11152327619493007659912109375">
        <ele>736.5999755859375</ele>
        <time>2026-08-22T00:39:13.000Z</time>
        <extensions>
          <ns3:TrackPointExtension>
            <ns3:hr>137</ns3:hr>
            <ns3:cad>0</ns3:cad>
          </ns3:TrackPointExtension>
        </extensions>
      </trkpt>
      <trkpt lat="45.28462470509111881256103515625" lon="-71.11152579076588153839111328125">
        <ele>736.79998779296875</ele>
        <time>2026-08-22T00:39:14.000Z</time>
        <extensions>
          <ns3:TrackPointExtension>
            <ns3:hr>138</ns3:hr>
            <ns3:cad>0</ns3:cad>
          </ns3:TrackPointExtension>
        </extensions>
      </trkpt>
      <trkpt lat="45.2846132218837738037109375" lon="-71.11152805387973785400390625">
        <ele>737</ele>
        <time>2026-08-22T00:39:15.000Z</time>
        <extensions>
          <ns3:TrackPointExtension>
            <ns3:hr>138</ns3:hr>
            <ns3:cad>0</ns3:cad>
          </ns3:TrackPointExtension>
        </extensions>
      </trkpt>
      <trkpt lat="45.284600146114826202392578125" lon="-71.1115295626223087310791015625">
        <ele>737.20001220703125</ele>
        <time>2026-08-22T00:39:16.000Z</time>
        <extensions>
          <ns3:TrackPointExtension>
            <ns3:hr>139</ns3:hr>
            <ns3:cad>0</ns3:cad>
          </ns3:TrackPointExtension>
        </extensions>
      </trkpt>
      <trkpt lat="45.284589417278766632080078125" lon="-71.1115292273461818695068359375">
        <ele>737.4000244140625</ele>
        <time>2026-08-22T00:39:17.000Z</time>
        <extensions>
          <ns3:TrackPointExtension>
            <ns3:hr>139</ns3:hr>
            <ns3:cad>0</ns3:cad>
          </ns3:TrackPointExtension>
        </extensions>
      </trkpt>
      <trkpt lat="45.2845771797001361846923828125" lon="-71.11153216101229190826416015625">
        <ele>737.5999755859375</ele>
        <time>2026-08-22T00:39:18.000Z</time>
        <extensions>
          <ns3:TrackPointExtension>
            <ns3:hr>139</ns3:hr>
            <ns3:cad>0</ns3:cad>
          </ns3:TrackPointExtension>
        </extensions>
      </trkpt>
      <trkpt lat="45.28456435538828372955322265625" lon="-71.11153869889676570892333984375">
        <ele>737.5999755859375</ele>
        <time>2026-08-22T00:39:19.000Z</time>
        <extensions>
          <ns3:TrackPointExtension>
            <ns3:hr>139</ns3:hr>
            <ns3:cad>51</ns3:cad>
          </ns3:TrackPointExtension>
        </extensions>
      </trkpt>
      <trkpt lat="45.28455555438995361328125" lon="-71.11154079437255859375">
        <ele>737.79998779296875</ele>
        <time>2026-08-22T00:39:20.000Z</time>
        <extensions>
          <ns3:TrackPointExtension>
            <ns3:hr>139</ns3:hr>
            <ns3:cad>51</ns3:cad>
          </ns3:TrackPointExtension>
        </extensions>
      </trkpt>
      <trkpt lat="45.28454692102968692779541015625" lon="-71.1115433089435100555419921875">
        <ele>737.79998779296875</ele>
        <time>2026-08-22T00:39:21.000Z</time>
        <extensions>
          <ns3:TrackPointExtension>
            <ns3:hr>138</ns3:hr>
            <ns3:cad>51</ns3:cad>
          </ns3:TrackPointExtension>
        </extensions>
      </trkpt>
      <trkpt lat="45.28453552164137363433837890625" lon="-71.11154607497155666351318359375">
        <ele>738</ele>
        <time>2026-08-22T00:39:22.000Z</time>
        <extensions>
          <ns3:TrackPointExtension>
            <ns3:hr>138</ns3:hr>
            <ns3:cad>48</ns3:cad>
          </ns3:TrackPointExtension>
        </extensions>
      </trkpt>
      <trkpt lat="45.2845278941094875335693359375" lon="-71.111545823514461517333984375">
        <ele>738.20001220703125</ele>
        <time>2026-08-22T00:39:23.000Z</time>
        <extensions>
          <ns3:TrackPointExtension>
            <ns3:hr>138</ns3:hr>
            <ns3:cad>48</ns3:cad>
          </ns3:TrackPointExtension>
        </extensions>
      </trkpt>
      <trkpt lat="45.284518338739871978759765625" lon="-71.1115409620106220245361328125">
        <ele>738.4000244140625</ele>
        <time>2026-08-22T00:39:24.000Z</time>
        <extensions>
          <ns3:TrackPointExtension>
            <ns3:hr>138</ns3:hr>
            <ns3:cad>48</ns3:cad>
          </ns3:TrackPointExtension>
        </extensions>
      </trkpt>
      <trkpt lat="45.2845114655792713165283203125" lon="-71.11153400503098964691162109375">
        <ele>738.79998779296875</ele>
        <time>2026-08-22T00:39:25.000Z</time>
        <extensions>
          <ns3:TrackPointExtension>
            <ns3:hr>138</ns3:hr>
            <ns3:cad>48</ns3:cad>
          </ns3:TrackPointExtension>
        </extensions>
      </trkpt>
      <trkpt lat="45.28450526297092437744140625" lon="-71.11152964644134044647216796875">
        <ele>739</ele>
        <time>2026-08-22T00:39:26.000Z</time>
        <extensions>
          <ns3:TrackPointExtension>
            <ns3:hr>139</ns3:hr>
            <ns3:cad>48</ns3:cad>
          </ns3:TrackPointExtension>
        </extensions>
      </trkpt>
      <trkpt lat="45.2844926901161670684814453125" lon="-71.1115305684506893157958984375">
        <ele>739.20001220703125</ele>
        <time>2026-08-22T00:39:27.000Z</time>
        <extensions>
          <ns3:TrackPointExtension>
            <ns3:hr>138</ns3:hr>
            <ns3:cad>0</ns3:cad>
          </ns3:TrackPointExtension>
        </extensions>
      </trkpt>
      <trkpt lat="45.28447718359529972076416015625" lon="-71.1115282215178012847900390625">
        <ele>739.20001220703125</ele>
        <time>2026-08-22T00:39:28.000Z</time>
        <extensions>
          <ns3:TrackPointExtension>
            <ns3:hr>138</ns3:hr>
            <ns3:cad>0</ns3:cad>
          </ns3:TrackPointExtension>
        </extensions>
      </trkpt>
      <trkpt lat="45.28446779586374759674072265625" lon="-71.11153207719326019287109375">
        <ele>739.4000244140625</ele>
        <time>2026-08-22T00:39:29.000Z</time>
        <extensions>
          <ns3:TrackPointExtension>
            <ns3:hr>138</ns3:hr>
            <ns3:cad>0</ns3:cad>
          </ns3:TrackPointExtension>
        </extensions>
      </trkpt>
      <trkpt lat="45.2844591625034809112548828125" lon="-71.1115359328687191009521484375">
        <ele>739.5999755859375</ele>
        <time>2026-08-22T00:39:30.000Z</time>
        <extensions>
          <ns3:TrackPointExtension>
            <ns3:hr>138</ns3:hr>
            <ns3:cad>0</ns3:cad>
          </ns3:TrackPointExtension>
        </extensions>
      </trkpt>
      <trkpt lat="45.28444197960197925567626953125" lon="-71.1115394532680511474609375">
        <ele>739.5999755859375</ele>
        <time>2026-08-22T00:39:31.000Z</time>
        <extensions>
          <ns3:TrackPointExtension>
            <ns3:hr>138</ns3:hr>
            <ns3:cad>0</ns3:cad>
          </ns3:TrackPointExtension>
        </extensions>
      </trkpt>
      <trkpt lat="45.28443007729947566986083984375" lon="-71.1115436442196369171142578125">
        <ele>739.5999755859375</ele>
        <time>2026-08-22T00:39:32.000Z</time>
        <extensions>
          <ns3:TrackPointExtension>
            <ns3:hr>138</ns3:hr>
            <ns3:cad>0</ns3:cad>
          </ns3:TrackPointExtension>
        </extensions>
      </trkpt>
      <trkpt lat="45.28442077338695526123046875" lon="-71.11154741607606410980224609375">
        <ele>739.79998779296875</ele>
        <time>2026-08-22T00:39:33.000Z</time>
        <extensions>
          <ns3:TrackPointExtension>
            <ns3:hr>138</ns3:hr>
            <ns3:cad>0</ns3:cad>
          </ns3:TrackPointExtension>
        </extensions>
      </trkpt>
      <trkpt lat="45.2844041772186756134033203125" lon="-71.111556552350521087646484375">
        <ele>739.79998779296875</ele>
        <time>2026-08-22T00:39:34.000Z</time>
        <extensions>
          <ns3:TrackPointExtension>
            <ns3:hr>139</ns3:hr>
            <ns3:cad>0</ns3:cad>
          </ns3:TrackPointExtension>
        </extensions>
      </trkpt>
      <trkpt lat="45.28439504094421863555908203125" lon="-71.11156015656888484954833984375">
        <ele>739.79998779296875</ele>
        <time>2026-08-22T00:39:35.000Z</time>
        <extensions>
          <ns3:TrackPointExtension>
            <ns3:hr>138</ns3:hr>
            <ns3:cad>0</ns3:cad>
          </ns3:TrackPointExtension>
        </extensions>
      </trkpt>
      <trkpt lat="45.28438724577426910400390625" lon="-71.111566610634326934814453125">
        <ele>740</ele>
        <time>2026-08-22T00:39:36.000Z</time>
        <extensions>
          <ns3:TrackPointExtension>
            <ns3:hr>138</ns3:hr>
            <ns3:cad>48</ns3:cad>
          </ns3:TrackPointExtension>
        </extensions>
      </trkpt>
      <trkpt lat="45.2843703143298625946044921875" lon="-71.11157624982297420501708984375">
        <ele>740</ele>
        <time>2026-08-22T00:39:37.000Z</time>
        <extensions>
          <ns3:TrackPointExtension>
            <ns3:hr>139</ns3:hr>
            <ns3:cad>48</ns3:cad>
          </ns3:TrackPointExtension>
        </extensions>
      </trkpt>
      <trkpt lat="45.2843610942363739013671875" lon="-71.11158345825970172882080078125">
        <ele>740</ele>
        <time>2026-08-22T00:39:38.000Z</time>
        <extensions>
          <ns3:TrackPointExtension>
            <ns3:hr>138</ns3:hr>
            <ns3:cad>53</ns3:cad>
          </ns3:TrackPointExtension>
        </extensions>
      </trkpt>
      <trkpt lat="45.28434433043003082275390625" lon="-71.1115932650864124298095703125">
        <ele>740</ele>
        <time>2026-08-22T00:39:39.000Z</time>
        <extensions>
          <ns3:TrackPointExtension>
            <ns3:hr>138</ns3:hr>
            <ns3:cad>53</ns3:cad>
          </ns3:TrackPointExtension>
        </extensions>
      </trkpt>
      <trkpt lat="45.28433133848011493682861328125" lon="-71.11160558648407459259033203125">
        <ele>739.79998779296875</ele>
        <time>2026-08-22T00:39:40.000Z</time>
        <extensions>
          <ns3:TrackPointExtension>
            <ns3:hr>138</ns3:hr>
            <ns3:cad>53</ns3:cad>
          </ns3:TrackPointExtension>
        </extensions>
      </trkpt>
      <trkpt lat="45.28432027436792850494384765625" lon="-71.1116187460720539093017578125">
        <ele>739.79998779296875</ele>
        <time>2026-08-22T00:39:41.000Z</time>
        <extensions>
          <ns3:TrackPointExtension>
            <ns3:hr>138</ns3:hr>
            <ns3:cad>53</ns3:cad>
          </ns3:TrackPointExtension>
        </extensions>
      </trkpt>
      <trkpt lat="45.28431222774088382720947265625" lon="-71.1116378568112850189208984375">
        <ele>739.79998779296875</ele>
        <time>2026-08-22T00:39:42.000Z</time>
        <extensions>
          <ns3:TrackPointExtension>
            <ns3:hr>139</ns3:hr>
            <ns3:cad>53</ns3:cad>
          </ns3:TrackPointExtension>
        </extensions>
      </trkpt>
      <trkpt lat="45.28430543839931488037109375" lon="-71.11166073940694332122802734375">
        <ele>739.79998779296875</ele>
        <time>2026-08-22T00:39:43.000Z</time>
        <extensions>
          <ns3:TrackPointExtension>
            <ns3:hr>138</ns3:hr>
            <ns3:cad>0</ns3:cad>
          </ns3:TrackPointExtension>
        </extensions>
      </trkpt>
      <trkpt lat="45.28430166654288768768310546875" lon="-71.11168521456420421600341796875">
        <ele>740</ele>
        <time>2026-08-22T00:39:44.000Z</time>
        <extensions>
          <ns3:TrackPointExtension>
            <ns3:hr>138</ns3:hr>
            <ns3:cad>0</ns3:cad>
          </ns3:TrackPointExtension>
        </extensions>
      </trkpt>
      <trkpt lat="45.28429630212485790252685546875" lon="-71.11169971525669097900390625">
        <ele>740.20001220703125</ele>
        <time>2026-08-22T00:39:45.000Z</time>
        <extensions>
          <ns3:TrackPointExtension>
            <ns3:hr>138</ns3:hr>
            <ns3:cad>0</ns3:cad>
          </ns3:TrackPointExtension>
        </extensions>
      </trkpt>
      <trkpt lat="45.28428557328879833221435546875" lon="-71.11171052791178226470947265625">
        <ele>740.4000244140625</ele>
        <time>2026-08-22T00:39:46.000Z</time>
        <extensions>
          <ns3:TrackPointExtension>
            <ns3:hr>138</ns3:hr>
            <ns3:cad>0</ns3:cad>
          </ns3:TrackPointExtension>
        </extensions>
      </trkpt>
      <trkpt lat="45.28427467681467533111572265625" lon="-71.11173190176486968994140625">
        <ele>740.5999755859375</ele>
        <time>2026-08-22T00:39:47.000Z</time>
        <extensions>
          <ns3:TrackPointExtension>
            <ns3:hr>138</ns3:hr>
            <ns3:cad>0</ns3:cad>
          </ns3:TrackPointExtension>
        </extensions>
      </trkpt>
      <trkpt lat="45.28426788747310638427734375" lon="-71.1117535270750522613525390625">
        <ele>740.79998779296875</ele>
        <time>2026-08-22T00:39:48.000Z</time>
        <extensions>
          <ns3:TrackPointExtension>
            <ns3:hr>138</ns3:hr>
            <ns3:cad>0</ns3:cad>
          </ns3:TrackPointExtension>
        </extensions>
      </trkpt>
      <trkpt lat="45.28426260687410831451416015625" lon="-71.11177288927137851715087890625">
        <ele>740.79998779296875</ele>
        <time>2026-08-22T00:39:49.000Z</time>
        <extensions>
          <ns3:TrackPointExtension>
            <ns3:hr>138</ns3:hr>
            <ns3:cad>0</ns3:cad>
          </ns3:TrackPointExtension>
        </extensions>
      </trkpt>
      <trkpt lat="45.28425774537026882171630859375" lon="-71.11179283820092678070068359375">
        <ele>741</ele>
        <time>2026-08-22T00:39:50.000Z</time>
        <extensions>
          <ns3:TrackPointExtension>
            <ns3:hr>138</ns3:hr>
            <ns3:cad>0</ns3:cad>
          </ns3:TrackPointExtension>
        </extensions>
      </trkpt>
      <trkpt lat="45.28424869291484355926513671875" lon="-71.11181094311177730560302734375">
        <ele>741</ele>
        <time>2026-08-22T00:39:51.000Z</time>
        <extensions>
          <ns3:TrackPointExtension>
            <ns3:hr>138</ns3:hr>
            <ns3:cad>0</ns3:cad>
          </ns3:TrackPointExtension>
        </extensions>
      </trkpt>
      <trkpt lat="45.2842422388494014739990234375" lon="-71.1118215881288051605224609375">
        <ele>741</ele>
        <time>2026-08-22T00:39:52.000Z</time>
        <extensions>
          <ns3:TrackPointExtension>
            <ns3:hr>138</ns3:hr>
            <ns3:cad>0</ns3:cad>
          </ns3:TrackPointExtension>
        </extensions>
      </trkpt>
      <trkpt lat="45.28423612006008625030517578125" lon="-71.1118329875171184539794921875">
        <ele>741.20001220703125</ele>
        <time>2026-08-22T00:39:53.000Z</time>
        <extensions>
          <ns3:TrackPointExtension>
            <ns3:hr>138</ns3:hr>
            <ns3:cad>0</ns3:cad>
          </ns3:TrackPointExtension>
        </extensions>
      </trkpt>
      <trkpt lat="45.2842311747372150421142578125" lon="-71.11183960922062397003173828125">
        <ele>741.4000244140625</ele>
        <time>2026-08-22T00:39:54.000Z</time>
        <extensions>
          <ns3:TrackPointExtension>
            <ns3:hr>138</ns3:hr>
            <ns3:cad>0</ns3:cad>
          </ns3:TrackPointExtension>
        </extensions>
      </trkpt>
      <trkpt lat="45.28422438539564609527587890625" lon="-71.1118457280099391937255859375">
        <ele>741.4000244140625</ele>
        <time>2026-08-22T00:39:55.000Z</time>
        <extensions>
          <ns3:TrackPointExtension>
            <ns3:hr>137</ns3:hr>
            <ns3:cad>0</ns3:cad>
          </ns3:TrackPointExtension>
        </extensions>
      </trkpt>
      <trkpt lat="45.284219272434711456298828125" lon="-71.1118541099131107330322265625">
        <ele>741.5999755859375</ele>
        <time>2026-08-22T00:39:56.000Z</time>
        <extensions>
          <ns3:TrackPointExtension>
            <ns3:hr>137</ns3:hr>
            <ns3:cad>0</ns3:cad>
          </ns3:TrackPointExtension>
        </extensions>
      </trkpt>
      <trkpt lat="45.28421717695891857147216796875" lon="-71.1118640005588531494140625">
        <ele>741.79998779296875</ele>
        <time>2026-08-22T00:39:57.000Z</time>
        <extensions>
          <ns3:TrackPointExtension>
            <ns3:hr>136</ns3:hr>
            <ns3:cad>0</ns3:cad>
          </ns3:TrackPointExtension>
        </extensions>
      </trkpt>
      <trkpt lat="45.2842140756547451019287109375" lon="-71.11187011934816837310791015625">
        <ele>742</ele>
        <time>2026-08-22T00:39:58.000Z</time>
        <extensions>
          <ns3:TrackPointExtension>
            <ns3:hr>135</ns3:hr>
            <ns3:cad>0</ns3:cad>
          </ns3:TrackPointExtension>
        </extensions>
      </trkpt>
      <trkpt lat="45.28420896269381046295166015625" lon="-71.1118715442717075347900390625">
        <ele>742</ele>
        <time>2026-08-22T00:39:59.000Z</time>
        <extensions>
          <ns3:TrackPointExtension>
            <ns3:hr>134</ns3:hr>
            <ns3:cad>0</ns3:cad>
          </ns3:TrackPointExtension>
        </extensions>
      </trkpt>
      <trkpt lat="45.28420544229447841644287109375" lon="-71.11187716014683246612548828125">
        <ele>742.20001220703125</ele>
        <time>2026-08-22T00:40:00.000Z</time>
        <extensions>
          <ns3:TrackPointExtension>
            <ns3:hr>134</ns3:hr>
            <ns3:cad>0</ns3:cad>
          </ns3:TrackPointExtension>
        </extensions>
      </trkpt>
      <trkpt lat="45.28419680893421173095703125" lon="-71.11189241521060466766357421875">
        <ele>742.20001220703125</ele>
        <time>2026-08-22T00:40:01.000Z</time>
        <extensions>
          <ns3:TrackPointExtension>
            <ns3:hr>134</ns3:hr>
            <ns3:cad>0</ns3:cad>
          </ns3:TrackPointExtension>
        </extensions>
      </trkpt>
      <trkpt lat="45.2841869182884693145751953125" lon="-71.1119097657501697540283203125">
        <ele>742.20001220703125</ele>
        <time>2026-08-22T00:40:02.000Z</time>
        <extensions>
          <ns3:TrackPointExtension>
            <ns3:hr>134</ns3:hr>
            <ns3:cad>0</ns3:cad>
          </ns3:TrackPointExtension>
        </extensions>
      </trkpt>
      <trkpt lat="45.28418063186109066009521484375" lon="-71.1119201593101024627685546875">
        <ele>742.20001220703125</ele>
        <time>2026-08-22T00:40:03.000Z</time>
        <extensions>
          <ns3:TrackPointExtension>
            <ns3:hr>134</ns3:hr>
            <ns3:cad>0</ns3:cad>
          </ns3:TrackPointExtension>
        </extensions>
      </trkpt>
      <trkpt lat="45.28417342342436313629150390625" lon="-71.1119332350790500640869140625">
        <ele>742.20001220703125</ele>
        <time>2026-08-22T00:40:04.000Z</time>
        <extensions>
          <ns3:TrackPointExtension>
            <ns3:hr>134</ns3:hr>
            <ns3:cad>0</ns3:cad>
          </ns3:TrackPointExtension>
        </extensions>
      </trkpt>
      <trkpt lat="45.28415984474122524261474609375" lon="-71.11194672994315624237060546875">
        <ele>742</ele>
        <time>2026-08-22T00:40:05.000Z</time>
        <extensions>
          <ns3:TrackPointExtension>
            <ns3:hr>134</ns3:hr>
            <ns3:cad>50</ns3:cad>
          </ns3:TrackPointExtension>
        </extensions>
      </trkpt>
      <trkpt lat="45.284148864448070526123046875" lon="-71.11195745877921581268310546875">
        <ele>741.79998779296875</ele>
        <time>2026-08-22T00:40:06.000Z</time>
        <extensions>
          <ns3:TrackPointExtension>
            <ns3:hr>134</ns3:hr>
            <ns3:cad>50</ns3:cad>
          </ns3:TrackPointExtension>
        </extensions>
      </trkpt>
      <trkpt lat="45.28413436375558376312255859375" lon="-71.11196885816752910614013671875">
        <ele>741.5999755859375</ele>
        <time>2026-08-22T00:40:07.000Z</time>
        <extensions>
          <ns3:TrackPointExtension>
            <ns3:hr>134</ns3:hr>
            <ns3:cad>50</ns3:cad>
          </ns3:TrackPointExtension>
        </extensions>
      </trkpt>
      <trkpt lat="45.28412682004272937774658203125" lon="-71.11198092810809612274169921875">
        <ele>741.4000244140625</ele>
        <time>2026-08-22T00:40:08.000Z</time>
        <extensions>
          <ns3:TrackPointExtension>
            <ns3:hr>133</ns3:hr>
            <ns3:cad>50</ns3:cad>
          </ns3:TrackPointExtension>
        </extensions>
      </trkpt>
      <trkpt lat="45.28411961160600185394287109375" lon="-71.11199065111577510833740234375">
        <ele>741.4000244140625</ele>
        <time>2026-08-22T00:40:09.000Z</time>
        <extensions>
          <ns3:TrackPointExtension>
            <ns3:hr>133</ns3:hr>
            <ns3:cad>50</ns3:cad>
          </ns3:TrackPointExtension>
        </extensions>
      </trkpt>
      <trkpt lat="45.28411223553121089935302734375" lon="-71.11200104467570781707763671875">
        <ele>741.4000244140625</ele>
        <time>2026-08-22T00:40:10.000Z</time>
        <extensions>
          <ns3:TrackPointExtension>
            <ns3:hr>132</ns3:hr>
            <ns3:cad>50</ns3:cad>
          </ns3:TrackPointExtension>
        </extensions>
      </trkpt>
      <trkpt lat="45.2841004170477390289306640625" lon="-71.1120147071778774261474609375">
        <ele>741.4000244140625</ele>
        <time>2026-08-22T00:40:11.000Z</time>
        <extensions>
          <ns3:TrackPointExtension>
            <ns3:hr>132</ns3:hr>
            <ns3:cad>50</ns3:cad>
          </ns3:TrackPointExtension>
        </extensions>
      </trkpt>
      <trkpt lat="45.2840883471071720123291015625" lon="-71.1120301298797130584716796875">
        <ele>741.4000244140625</ele>
        <time>2026-08-22T00:40:12.000Z</time>
        <extensions>
          <ns3:TrackPointExtension>
            <ns3:hr>132</ns3:hr>
            <ns3:cad>50</ns3:cad>
          </ns3:TrackPointExtension>
        </extensions>
      </trkpt>
      <trkpt lat="45.28407837264239788055419921875" lon="-71.11203373409807682037353515625">
        <ele>741.4000244140625</ele>
        <time>2026-08-22T00:40:13.000Z</time>
        <extensions>
          <ns3:TrackPointExtension>
            <ns3:hr>131</ns3:hr>
            <ns3:cad>50</ns3:cad>
          </ns3:TrackPointExtension>
        </extensions>
      </trkpt>
      <trkpt lat="45.28406714089214801788330078125" lon="-71.1120371706783771514892578125">
        <ele>741.5999755859375</ele>
        <time>2026-08-22T00:40:14.000Z</time>
        <extensions>
          <ns3:TrackPointExtension>
            <ns3:hr>131</ns3:hr>
            <ns3:cad>53</ns3:cad>
          </ns3:TrackPointExtension>
        </extensions>
      </trkpt>
      <trkpt lat="45.28405741788446903228759765625" lon="-71.1120452173054218292236328125">
        <ele>741.79998779296875</ele>
        <time>2026-08-22T00:40:15.000Z</time>
        <extensions>
          <ns3:TrackPointExtension>
            <ns3:hr>131</ns3:hr>
            <ns3:cad>53</ns3:cad>
          </ns3:TrackPointExtension>
        </extensions>
      </trkpt>
      <trkpt lat="45.2840461023151874542236328125" lon="-71.11205485649406909942626953125">
        <ele>742</ele>
        <time>2026-08-22T00:40:16.000Z</time>
        <extensions>
          <ns3:TrackPointExtension>
            <ns3:hr>131</ns3:hr>
            <ns3:cad>53</ns3:cad>
          </ns3:TrackPointExtension>
        </extensions>
      </trkpt>
      <trkpt lat="45.28402489610016345977783203125" lon="-71.112067513167858123779296875">
        <ele>742.4000244140625</ele>
        <time>2026-08-22T00:40:17.000Z</time>
        <extensions>
          <ns3:TrackPointExtension>
            <ns3:hr>131</ns3:hr>
            <ns3:cad>53</ns3:cad>
          </ns3:TrackPointExtension>
        </extensions>
      </trkpt>
      <trkpt lat="45.28401399962604045867919921875" lon="-71.11207949928939342498779296875">
        <ele>742.5999755859375</ele>
        <time>2026-08-22T00:40:18.000Z</time>
        <extensions>
          <ns3:TrackPointExtension>
            <ns3:hr>131</ns3:hr>
            <ns3:cad>53</ns3:cad>
          </ns3:TrackPointExtension>
        </extensions>
      </trkpt>
      <trkpt lat="45.2840062044560909271240234375" lon="-71.11209710128605365753173828125">
        <ele>742.79998779296875</ele>
        <time>2026-08-22T00:40:19.000Z</time>
        <extensions>
          <ns3:TrackPointExtension>
            <ns3:hr>131</ns3:hr>
            <ns3:cad>53</ns3:cad>
          </ns3:TrackPointExtension>
        </extensions>
      </trkpt>
      <trkpt lat="45.28399757109582424163818359375" lon="-71.1121112667024135589599609375">
        <ele>743.20001220703125</ele>
        <time>2026-08-22T00:40:20.000Z</time>
        <extensions>
          <ns3:TrackPointExtension>
            <ns3:hr>130</ns3:hr>
            <ns3:cad>53</ns3:cad>
          </ns3:TrackPointExtension>
        </extensions>
      </trkpt>
      <trkpt lat="45.28399572707712650299072265625" lon="-71.11212576739490032196044921875">
        <ele>743.4000244140625</ele>
        <time>2026-08-22T00:40:21.000Z</time>
        <extensions>
          <ns3:TrackPointExtension>
            <ns3:hr>130</ns3:hr>
            <ns3:cad>53</ns3:cad>
          </ns3:TrackPointExtension>
        </extensions>
      </trkpt>
      <trkpt lat="45.28398985974490642547607421875" lon="-71.11213414929807186126708984375">
        <ele>743.5999755859375</ele>
        <time>2026-08-22T00:40:22.000Z</time>
        <extensions>
          <ns3:TrackPointExtension>
            <ns3:hr>130</ns3:hr>
            <ns3:cad>53</ns3:cad>
          </ns3:TrackPointExtension>
        </extensions>
      </trkpt>
      <trkpt lat="45.2839850820600986480712890625" lon="-71.112147979438304901123046875">
        <ele>743.79998779296875</ele>
        <time>2026-08-22T00:40:23.000Z</time>
        <extensions>
          <ns3:TrackPointExtension>
            <ns3:hr>130</ns3:hr>
            <ns3:cad>53</ns3:cad>
          </ns3:TrackPointExtension>
        </extensions>
      </trkpt>
      <trkpt lat="45.28397913090884685516357421875" lon="-71.11216549761593341827392578125">
        <ele>744</ele>
        <time>2026-08-22T00:40:24.000Z</time>
        <extensions>
          <ns3:TrackPointExtension>
            <ns3:hr>130</ns3:hr>
            <ns3:cad>55</ns3:cad>
          </ns3:TrackPointExtension>
        </extensions>
      </trkpt>
      <trkpt lat="45.2839783765375614166259765625" lon="-71.112188883125782012939453125">
        <ele>744.4000244140625</ele>
        <time>2026-08-22T00:40:25.000Z</time>
        <extensions>
          <ns3:TrackPointExtension>
            <ns3:hr>131</ns3:hr>
            <ns3:cad>55</ns3:cad>
          </ns3:TrackPointExtension>
        </extensions>
      </trkpt>
      <trkpt lat="45.283973179757595062255859375" lon="-71.1122074909508228302001953125">
        <ele>744.5999755859375</ele>
        <time>2026-08-22T00:40:26.000Z</time>
        <extensions>
          <ns3:TrackPointExtension>
            <ns3:hr>131</ns3:hr>
            <ns3:cad>55</ns3:cad>
          </ns3:TrackPointExtension>
        </extensions>
      </trkpt>
      <trkpt lat="45.2839743532240390777587890625" lon="-71.1122192256152629852294921875">
        <ele>745</ele>
        <time>2026-08-22T00:40:27.000Z</time>
        <extensions>
          <ns3:TrackPointExtension>
            <ns3:hr>131</ns3:hr>
            <ns3:cad>50</ns3:cad>
          </ns3:TrackPointExtension>
        </extensions>
      </trkpt>
      <trkpt lat="45.283975861966609954833984375" lon="-71.11222936771810054779052734375">
        <ele>745.20001220703125</ele>
        <time>2026-08-22T00:40:28.000Z</time>
        <extensions>
          <ns3:TrackPointExtension>
            <ns3:hr>131</ns3:hr>
            <ns3:cad>50</ns3:cad>
          </ns3:TrackPointExtension>
        </extensions>
      </trkpt>
      <trkpt lat="45.2839763648808002471923828125" lon="-71.11225300468504428863525390625">
        <ele>745.5999755859375</ele>
        <time>2026-08-22T00:40:29.000Z</time>
        <extensions>
          <ns3:TrackPointExtension>
            <ns3:hr>131</ns3:hr>
            <ns3:cad>50</ns3:cad>
          </ns3:TrackPointExtension>
        </extensions>
      </trkpt>
      <trkpt lat="45.2839793823659420013427734375" lon="-71.112270355224609375">
        <ele>745.79998779296875</ele>
        <time>2026-08-22T00:40:30.000Z</time>
        <extensions>
          <ns3:TrackPointExtension>
            <ns3:hr>131</ns3:hr>
            <ns3:cad>50</ns3:cad>
          </ns3:TrackPointExtension>
        </extensions>
      </trkpt>
      <trkpt lat="45.28397963382303714752197265625" lon="-71.1122889630496501922607421875">
        <ele>746</ele>
        <time>2026-08-22T00:40:31.000Z</time>
        <extensions>
          <ns3:TrackPointExtension>
            <ns3:hr>132</ns3:hr>
            <ns3:cad>48</ns3:cad>
          </ns3:TrackPointExtension>
        </extensions>
      </trkpt>
      <trkpt lat="45.28398089110851287841796875" lon="-71.1123107559978961944580078125">
        <ele>746</ele>
        <time>2026-08-22T00:40:32.000Z</time>
        <extensions>
          <ns3:TrackPointExtension>
            <ns3:hr>132</ns3:hr>
            <ns3:cad>48</ns3:cad>
          </ns3:TrackPointExtension>
        </extensions>
      </trkpt>
      <trkpt lat="45.2839807234704494476318359375" lon="-71.1123218201100826263427734375">
        <ele>746.20001220703125</ele>
        <time>2026-08-22T00:40:33.000Z</time>
        <extensions>
          <ns3:TrackPointExtension>
            <ns3:hr>132</ns3:hr>
            <ns3:cad>48</ns3:cad>
          </ns3:TrackPointExtension>
        </extensions>
      </trkpt>
      <trkpt lat="45.28398265130817890167236328125" lon="-71.1123345606029033660888671875">
        <ele>746.20001220703125</ele>
        <time>2026-08-22T00:40:34.000Z</time>
        <extensions>
          <ns3:TrackPointExtension>
            <ns3:hr>132</ns3:hr>
            <ns3:cad>48</ns3:cad>
          </ns3:TrackPointExtension>
        </extensions>
      </trkpt>
      <trkpt lat="45.2839827351272106170654296875" lon="-71.11234369687736034393310546875">
        <ele>746.4000244140625</ele>
        <time>2026-08-22T00:40:35.000Z</time>
        <extensions>
          <ns3:TrackPointExtension>
            <ns3:hr>132</ns3:hr>
            <ns3:cad>48</ns3:cad>
          </ns3:TrackPointExtension>
        </extensions>
      </trkpt>
      <trkpt lat="45.28398231603205204010009765625" lon="-71.1123587004840373992919921875">
        <ele>746.5999755859375</ele>
        <time>2026-08-22T00:40:36.000Z</time>
        <extensions>
          <ns3:TrackPointExtension>
            <ns3:hr>133</ns3:hr>
            <ns3:cad>48</ns3:cad>
          </ns3:TrackPointExtension>
        </extensions>
      </trkpt>
      <trkpt lat="45.2839803881943225860595703125" lon="-71.1123637296259403228759765625">
        <ele>746.79998779296875</ele>
        <time>2026-08-22T00:40:37.000Z</time>
        <extensions>
          <ns3:TrackPointExtension>
            <ns3:hr>133</ns3:hr>
            <ns3:cad>48</ns3:cad>
          </ns3:TrackPointExtension>
        </extensions>
      </trkpt>
      <trkpt lat="45.2839770354330539703369140625" lon="-71.11237253062427043914794921875">
        <ele>747</ele>
        <time>2026-08-22T00:40:38.000Z</time>
        <extensions>
          <ns3:TrackPointExtension>
            <ns3:hr>133</ns3:hr>
            <ns3:cad>0</ns3:cad>
          </ns3:TrackPointExtension>
        </extensions>
      </trkpt>
      <trkpt lat="45.28397745452821254730224609375" lon="-71.11236624419689178466796875">
        <ele>747.20001220703125</ele>
        <time>2026-08-22T00:40:39.000Z</time>
        <extensions>
          <ns3:TrackPointExtension>
            <ns3:hr>133</ns3:hr>
            <ns3:cad>0</ns3:cad>
          </ns3:TrackPointExtension>
        </extensions>
      </trkpt>
      <trkpt lat="45.28397544287145137786865234375" lon="-71.1123667471110820770263671875">
        <ele>747.4000244140625</ele>
        <time>2026-08-22T00:40:40.000Z</time>
        <extensions>
          <ns3:TrackPointExtension>
            <ns3:hr>133</ns3:hr>
            <ns3:cad>0</ns3:cad>
          </ns3:TrackPointExtension>
        </extensions>
      </trkpt>
      <trkpt lat="45.2839710004627704620361328125" lon="-71.11237504519522190093994140625">
        <ele>747.5999755859375</ele>
        <time>2026-08-22T00:40:41.000Z</time>
        <extensions>
          <ns3:TrackPointExtension>
            <ns3:hr>133</ns3:hr>
            <ns3:cad>60</ns3:cad>
          </ns3:TrackPointExtension>
        </extensions>
      </trkpt>
      <trkpt lat="45.2839689888060092926025390625" lon="-71.11238694749772548675537109375">
        <ele>747.79998779296875</ele>
        <time>2026-08-22T00:40:42.000Z</time>
        <extensions>
          <ns3:TrackPointExtension>
            <ns3:hr>133</ns3:hr>
            <ns3:cad>60</ns3:cad>
          </ns3:TrackPointExtension>
        </extensions>
      </trkpt>
      <trkpt lat="45.28397150337696075439453125" lon="-71.1123905517160892486572265625">
        <ele>748</ele>
        <time>2026-08-22T00:40:43.000Z</time>
        <extensions>
          <ns3:TrackPointExtension>
            <ns3:hr>133</ns3:hr>
            <ns3:cad>0</ns3:cad>
          </ns3:TrackPointExtension>
        </extensions>
      </trkpt>
      <trkpt lat="45.28397016227245330810546875" lon="-71.1124046333134174346923828125">
        <ele>748.20001220703125</ele>
        <time>2026-08-22T00:40:44.000Z</time>
        <extensions>
          <ns3:TrackPointExtension>
            <ns3:hr>133</ns3:hr>
            <ns3:cad>0</ns3:cad>
          </ns3:TrackPointExtension>
        </extensions>
      </trkpt>
      <trkpt lat="45.2839730121195316314697265625" lon="-71.11241511069238185882568359375">
        <ele>748.4000244140625</ele>
        <time>2026-08-22T00:40:45.000Z</time>
        <extensions>
          <ns3:TrackPointExtension>
            <ns3:hr>133</ns3:hr>
            <ns3:cad>0</ns3:cad>
          </ns3:TrackPointExtension>
        </extensions>
      </trkpt>
      <trkpt lat="45.28397544287145137786865234375" lon="-71.11243204213678836822509765625">
        <ele>748.5999755859375</ele>
        <time>2026-08-22T00:40:46.000Z</time>
        <extensions>
          <ns3:TrackPointExtension>
            <ns3:hr>134</ns3:hr>
            <ns3:cad>0</ns3:cad>
          </ns3:TrackPointExtension>
        </extensions>
      </trkpt>
      <trkpt lat="45.28397661633789539337158203125" lon="-71.11244176514446735382080078125">
        <ele>748.79998779296875</ele>
        <time>2026-08-22T00:40:47.000Z</time>
        <extensions>
          <ns3:TrackPointExtension>
            <ns3:hr>134</ns3:hr>
            <ns3:cad>0</ns3:cad>
          </ns3:TrackPointExtension>
        </extensions>
      </trkpt>
      <trkpt lat="45.2839773707091808319091796875" lon="-71.112459786236286163330078125">
        <ele>749</ele>
        <time>2026-08-22T00:40:48.000Z</time>
        <extensions>
          <ns3:TrackPointExtension>
            <ns3:hr>134</ns3:hr>
            <ns3:cad>0</ns3:cad>
          </ns3:TrackPointExtension>
        </extensions>
      </trkpt>
      <trkpt lat="45.28397980146110057830810546875" lon="-71.11247076652944087982177734375">
        <ele>749.20001220703125</ele>
        <time>2026-08-22T00:40:49.000Z</time>
        <extensions>
          <ns3:TrackPointExtension>
            <ns3:hr>134</ns3:hr>
            <ns3:cad>0</ns3:cad>
          </ns3:TrackPointExtension>
        </extensions>
      </trkpt>
      <trkpt lat="45.28397929854691028594970703125" lon="-71.1124797351658344268798828125">
        <ele>749.20001220703125</ele>
        <time>2026-08-22T00:40:50.000Z</time>
        <extensions>
          <ns3:TrackPointExtension>
            <ns3:hr>134</ns3:hr>
            <ns3:cad>0</ns3:cad>
          </ns3:TrackPointExtension>
        </extensions>
      </trkpt>
      <trkpt lat="45.2839753590524196624755859375" lon="-71.1124943196773529052734375">
        <ele>749.4000244140625</ele>
        <time>2026-08-22T00:40:51.000Z</time>
        <extensions>
          <ns3:TrackPointExtension>
            <ns3:hr>133</ns3:hr>
            <ns3:cad>0</ns3:cad>
          </ns3:TrackPointExtension>
        </extensions>
      </trkpt>
      <trkpt lat="45.283976532518863677978515625" lon="-71.11250546760857105255126953125">
        <ele>749.79998779296875</ele>
        <time>2026-08-22T00:40:52.000Z</time>
        <extensions>
          <ns3:TrackPointExtension>
            <ns3:hr>134</ns3:hr>
            <ns3:cad>0</ns3:cad>
          </ns3:TrackPointExtension>
        </extensions>
      </trkpt>
      <trkpt lat="45.28397611342370510101318359375" lon="-71.112516783177852630615234375">
        <ele>750</ele>
        <time>2026-08-22T00:40:53.000Z</time>
        <extensions>
          <ns3:TrackPointExtension>
            <ns3:hr>134</ns3:hr>
            <ns3:cad>0</ns3:cad>
          </ns3:TrackPointExtension>
        </extensions>
      </trkpt>
      <trkpt lat="45.28397510759532451629638671875" lon="-71.11252960748970508575439453125">
        <ele>750.20001220703125</ele>
        <time>2026-08-22T00:40:54.000Z</time>
        <extensions>
          <ns3:TrackPointExtension>
            <ns3:hr>134</ns3:hr>
            <ns3:cad>0</ns3:cad>
          </ns3:TrackPointExtension>
        </extensions>
      </trkpt>
      <trkpt lat="45.28396748006343841552734375" lon="-71.11253983341157436370849609375">
        <ele>750.20001220703125</ele>
        <time>2026-08-22T00:40:55.000Z</time>
        <extensions>
          <ns3:TrackPointExtension>
            <ns3:hr>134</ns3:hr>
            <ns3:cad>0</ns3:cad>
          </ns3:TrackPointExtension>
        </extensions>
      </trkpt>
      <trkpt lat="45.28396370820701122283935546875" lon="-71.1125531606376171112060546875">
        <ele>750.4000244140625</ele>
        <time>2026-08-22T00:40:56.000Z</time>
        <extensions>
          <ns3:TrackPointExtension>
            <ns3:hr>134</ns3:hr>
            <ns3:cad>0</ns3:cad>
          </ns3:TrackPointExtension>
        </extensions>
      </trkpt>
      <trkpt lat="45.2839632891118526458740234375" lon="-71.1125705949962139129638671875">
        <ele>750.5999755859375</ele>
        <time>2026-08-22T00:40:57.000Z</time>
        <extensions>
          <ns3:TrackPointExtension>
            <ns3:hr>134</ns3:hr>
            <ns3:cad>0</ns3:cad>
          </ns3:TrackPointExtension>
        </extensions>
      </trkpt>
      <trkpt lat="45.283964462578296661376953125" lon="-71.11258216202259063720703125">
        <ele>750.79998779296875</ele>
        <time>2026-08-22T00:40:58.000Z</time>
        <extensions>
          <ns3:TrackPointExtension>
            <ns3:hr>135</ns3:hr>
            <ns3:cad>0</ns3:cad>
          </ns3:TrackPointExtension>
        </extensions>
      </trkpt>
      <trkpt lat="45.28396546840667724609375" lon="-71.1125910468399524688720703125">
        <ele>751</ele>
        <time>2026-08-22T00:40:59.000Z</time>
        <extensions>
          <ns3:TrackPointExtension>
            <ns3:hr>135</ns3:hr>
            <ns3:cad>0</ns3:cad>
          </ns3:TrackPointExtension>
        </extensions>
      </trkpt>
      <trkpt lat="45.28396270237863063812255859375" lon="-71.112600266933441162109375">
        <ele>751.20001220703125</ele>
        <time>2026-08-22T00:41:00.000Z</time>
        <extensions>
          <ns3:TrackPointExtension>
            <ns3:hr>135</ns3:hr>
            <ns3:cad>0</ns3:cad>
          </ns3:TrackPointExtension>
        </extensions>
      </trkpt>
      <trkpt lat="45.28395951725542545318603515625" lon="-71.11260152421891689300537109375">
        <ele>751.4000244140625</ele>
        <time>2026-08-22T00:41:01.000Z</time>
        <extensions>
          <ns3:TrackPointExtension>
            <ns3:hr>135</ns3:hr>
            <ns3:cad>0</ns3:cad>
          </ns3:TrackPointExtension>
        </extensions>
      </trkpt>
      <trkpt lat="45.283957086503505706787109375" lon="-71.11260169185698032379150390625">
        <ele>751.4000244140625</ele>
        <time>2026-08-22T00:41:02.000Z</time>
        <extensions>
          <ns3:TrackPointExtension>
            <ns3:hr>136</ns3:hr>
            <ns3:cad>40</ns3:cad>
          </ns3:TrackPointExtension>
        </extensions>
      </trkpt>
      <trkpt lat="45.2839525602757930755615234375" lon="-71.11260336823761463165283203125">
        <ele>751.5999755859375</ele>
        <time>2026-08-22T00:41:03.000Z</time>
        <extensions>
          <ns3:TrackPointExtension>
            <ns3:hr>136</ns3:hr>
            <ns3:cad>40</ns3:cad>
          </ns3:TrackPointExtension>
        </extensions>
      </trkpt>
      <trkpt lat="45.2839492075145244598388671875" lon="-71.112603954970836639404296875">
        <ele>751.5999755859375</ele>
        <time>2026-08-22T00:41:04.000Z</time>
        <extensions>
          <ns3:TrackPointExtension>
            <ns3:hr>136</ns3:hr>
            <ns3:cad>40</ns3:cad>
          </ns3:TrackPointExtension>
        </extensions>
      </trkpt>
      <trkpt lat="45.28394744731485843658447265625" lon="-71.112602613866329193115234375">
        <ele>751.5999755859375</ele>
        <time>2026-08-22T00:41:05.000Z</time>
        <extensions>
          <ns3:TrackPointExtension>
            <ns3:hr>137</ns3:hr>
            <ns3:cad>53</ns3:cad>
          </ns3:TrackPointExtension>
        </extensions>
      </trkpt>
      <trkpt lat="45.28394292108714580535888671875" lon="-71.112601943314075469970703125">
        <ele>751.79998779296875</ele>
        <time>2026-08-22T00:41:06.000Z</time>
        <extensions>
          <ns3:TrackPointExtension>
            <ns3:hr>137</ns3:hr>
            <ns3:cad>53</ns3:cad>
          </ns3:TrackPointExtension>
        </extensions>
      </trkpt>
      <trkpt lat="45.28394275344908237457275390625" lon="-71.11260253004729747772216796875">
        <ele>751.79998779296875</ele>
        <time>2026-08-22T00:41:07.000Z</time>
        <extensions>
          <ns3:TrackPointExtension>
            <ns3:hr>137</ns3:hr>
            <ns3:cad>53</ns3:cad>
          </ns3:TrackPointExtension>
        </extensions>
      </trkpt>
      <trkpt lat="45.283934287726879119873046875" lon="-71.1126024462282657623291015625">
        <ele>752</ele>
        <time>2026-08-22T00:41:08.000Z</time>
        <extensions>
          <ns3:TrackPointExtension>
            <ns3:hr>137</ns3:hr>
            <ns3:cad>53</ns3:cad>
          </ns3:TrackPointExtension>
        </extensions>
      </trkpt>
      <trkpt lat="45.2839260734617710113525390625" lon="-71.112605296075344085693359375">
        <ele>752</ele>
        <time>2026-08-22T00:41:09.000Z</time>
        <extensions>
          <ns3:TrackPointExtension>
            <ns3:hr>136</ns3:hr>
            <ns3:cad>50</ns3:cad>
          </ns3:TrackPointExtension>
        </extensions>
      </trkpt>
      <trkpt lat="45.28392213396728038787841796875" lon="-71.1126114986836910247802734375">
        <ele>752</ele>
        <time>2026-08-22T00:41:10.000Z</time>
        <extensions>
          <ns3:TrackPointExtension>
            <ns3:hr>138</ns3:hr>
            <ns3:cad>48</ns3:cad>
          </ns3:TrackPointExtension>
        </extensions>
      </trkpt>
      <trkpt lat="45.28391928412020206451416015625" lon="-71.11261577345430850982666015625">
        <ele>751.79998779296875</ele>
        <time>2026-08-22T00:41:11.000Z</time>
        <extensions>
          <ns3:TrackPointExtension>
            <ns3:hr>138</ns3:hr>
            <ns3:cad>48</ns3:cad>
          </ns3:TrackPointExtension>
        </extensions>
      </trkpt>
      <trkpt lat="45.28391190804541110992431640625" lon="-71.11261610873043537139892578125">
        <ele>751.5999755859375</ele>
        <time>2026-08-22T00:41:12.000Z</time>
        <extensions>
          <ns3:TrackPointExtension>
            <ns3:hr>138</ns3:hr>
            <ns3:cad>0</ns3:cad>
          </ns3:TrackPointExtension>
        </extensions>
      </trkpt>
      <trkpt lat="45.2838989160954952239990234375" lon="-71.1126151867210865020751953125">
        <ele>751.4000244140625</ele>
        <time>2026-08-22T00:41:13.000Z</time>
        <extensions>
          <ns3:TrackPointExtension>
            <ns3:hr>138</ns3:hr>
            <ns3:cad>0</ns3:cad>
          </ns3:TrackPointExtension>
        </extensions>
      </trkpt>
      <trkpt lat="45.2838863432407379150390625" lon="-71.11261744983494281768798828125">
        <ele>751.20001220703125</ele>
        <time>2026-08-22T00:41:14.000Z</time>
        <extensions>
          <ns3:TrackPointExtension>
            <ns3:hr>138</ns3:hr>
            <ns3:cad>0</ns3:cad>
          </ns3:TrackPointExtension>
        </extensions>
      </trkpt>
      <trkpt lat="45.28387586586177349090576171875" lon="-71.112622730433940887451171875">
        <ele>751.20001220703125</ele>
        <time>2026-08-22T00:41:15.000Z</time>
        <extensions>
          <ns3:TrackPointExtension>
            <ns3:hr>138</ns3:hr>
            <ns3:cad>0</ns3:cad>
          </ns3:TrackPointExtension>
        </extensions>
      </trkpt>
      <trkpt lat="45.28386932797729969024658203125" lon="-71.11262851394712924957275390625">
        <ele>751.20001220703125</ele>
        <time>2026-08-22T00:41:16.000Z</time>
        <extensions>
          <ns3:TrackPointExtension>
            <ns3:hr>138</ns3:hr>
            <ns3:cad>0</ns3:cad>
          </ns3:TrackPointExtension>
        </extensions>
      </trkpt>
      <trkpt lat="45.28386362828314304351806640625" lon="-71.11263706348836421966552734375">
        <ele>751</ele>
        <time>2026-08-22T00:41:17.000Z</time>
        <extensions>
          <ns3:TrackPointExtension>
            <ns3:hr>138</ns3:hr>
            <ns3:cad>0</ns3:cad>
          </ns3:TrackPointExtension>
        </extensions>
      </trkpt>
      <trkpt lat="45.283857844769954681396484375" lon="-71.11264226026833057403564453125">
        <ele>750.79998779296875</ele>
        <time>2026-08-22T00:41:18.000Z</time>
        <extensions>
          <ns3:TrackPointExtension>
            <ns3:hr>138</ns3:hr>
            <ns3:cad>0</ns3:cad>
          </ns3:TrackPointExtension>
        </extensions>
      </trkpt>
      <trkpt lat="45.28385323472321033477783203125" lon="-71.11264879815280437469482421875">
        <ele>750.79998779296875</ele>
        <time>2026-08-22T00:41:19.000Z</time>
        <extensions>
          <ns3:TrackPointExtension>
            <ns3:hr>138</ns3:hr>
            <ns3:cad>0</ns3:cad>
          </ns3:TrackPointExtension>
        </extensions>
      </trkpt>
      <trkpt lat="45.28385273180902004241943359375" lon="-71.112654916942119598388671875">
        <ele>750.5999755859375</ele>
        <time>2026-08-22T00:41:20.000Z</time>
        <extensions>
          <ns3:TrackPointExtension>
            <ns3:hr>138</ns3:hr>
            <ns3:cad>0</ns3:cad>
          </ns3:TrackPointExtension>
        </extensions>
      </trkpt>
      <trkpt lat="45.283848457038402557373046875" lon="-71.11266321502625942230224609375">
        <ele>750.5999755859375</ele>
        <time>2026-08-22T00:41:21.000Z</time>
        <extensions>
          <ns3:TrackPointExtension>
            <ns3:hr>138</ns3:hr>
            <ns3:cad>0</ns3:cad>
          </ns3:TrackPointExtension>
        </extensions>
      </trkpt>
      <trkpt lat="45.28384334407746791839599609375" lon="-71.112671680748462677001953125">
        <ele>750.5999755859375</ele>
        <time>2026-08-22T00:41:22.000Z</time>
        <extensions>
          <ns3:TrackPointExtension>
            <ns3:hr>137</ns3:hr>
            <ns3:cad>0</ns3:cad>
          </ns3:TrackPointExtension>
        </extensions>
      </trkpt>
      <trkpt lat="45.28384267352521419525146484375" lon="-71.11267377622425556182861328125">
        <ele>750.79998779296875</ele>
        <time>2026-08-22T00:41:23.000Z</time>
        <extensions>
          <ns3:TrackPointExtension>
            <ns3:hr>138</ns3:hr>
            <ns3:cad>0</ns3:cad>
          </ns3:TrackPointExtension>
        </extensions>
      </trkpt>
      <trkpt lat="45.28383982367813587188720703125" lon="-71.11267478205263614654541015625">
        <ele>750.79998779296875</ele>
        <time>2026-08-22T00:41:24.000Z</time>
        <extensions>
          <ns3:TrackPointExtension>
            <ns3:hr>137</ns3:hr>
            <ns3:cad>0</ns3:cad>
          </ns3:TrackPointExtension>
        </extensions>
      </trkpt>
      <trkpt lat="45.2838378958404064178466796875" lon="-71.11267595551908016204833984375">
        <ele>750.79998779296875</ele>
        <time>2026-08-22T00:41:25.000Z</time>
        <extensions>
          <ns3:TrackPointExtension>
            <ns3:hr>137</ns3:hr>
            <ns3:cad>0</ns3:cad>
          </ns3:TrackPointExtension>
        </extensions>
      </trkpt>
      <trkpt lat="45.283837728202342987060546875" lon="-71.11267662607133388519287109375">
        <ele>750.79998779296875</ele>
        <time>2026-08-22T00:41:26.000Z</time>
        <extensions>
          <ns3:TrackPointExtension>
            <ns3:hr>137</ns3:hr>
            <ns3:cad>0</ns3:cad>
          </ns3:TrackPointExtension>
        </extensions>
      </trkpt>
      <trkpt lat="45.283837728202342987060546875" lon="-71.11267662607133388519287109375">
        <ele>750.79998779296875</ele>
        <time>2026-08-22T00:41:27.000Z</time>
        <extensions>
          <ns3:TrackPointExtension>
            <ns3:hr>137</ns3:hr>
            <ns3:cad>0</ns3:cad>
          </ns3:TrackPointExtension>
        </extensions>
      </trkpt>
      <trkpt lat="45.2838375605642795562744140625" lon="-71.11267679370939731597900390625">
        <ele>750.79998779296875</ele>
        <time>2026-08-22T00:41:28.000Z</time>
        <extensions>
          <ns3:TrackPointExtension>
            <ns3:hr>136</ns3:hr>
            <ns3:cad>0</ns3:cad>
          </ns3:TrackPointExtension>
        </extensions>
      </trkpt>
      <trkpt lat="45.28383848257362842559814453125" lon="-71.1126772128045558929443359375">
        <ele>750.5999755859375</ele>
        <time>2026-08-22T00:41:29.000Z</time>
        <extensions>
          <ns3:TrackPointExtension>
            <ns3:hr>135</ns3:hr>
            <ns3:cad>0</ns3:cad>
          </ns3:TrackPointExtension>
        </extensions>
      </trkpt>
      <trkpt lat="45.28383630327880382537841796875" lon="-71.11267360858619213104248046875">
        <ele>750.5999755859375</ele>
        <time>2026-08-22T00:41:30.000Z</time>
        <extensions>
          <ns3:TrackPointExtension>
            <ns3:hr>134</ns3:hr>
            <ns3:cad>0</ns3:cad>
          </ns3:TrackPointExtension>
        </extensions>
      </trkpt>
      <trkpt lat="45.283833704888820648193359375" lon="-71.11267226748168468475341796875">
        <ele>750.4000244140625</ele>
        <time>2026-08-22T00:41:31.000Z</time>
        <extensions>
          <ns3:TrackPointExtension>
            <ns3:hr>132</ns3:hr>
            <ns3:cad>0</ns3:cad>
          </ns3:TrackPointExtension>
        </extensions>
      </trkpt>
      <trkpt lat="45.28383328579366207122802734375" lon="-71.112675033509731292724609375">
        <ele>750.4000244140625</ele>
        <time>2026-08-22T00:41:32.000Z</time>
        <extensions>
          <ns3:TrackPointExtension>
            <ns3:hr>131</ns3:hr>
            <ns3:cad>0</ns3:cad>
          </ns3:TrackPointExtension>
        </extensions>
      </trkpt>
      <trkpt lat="45.28383546508848667144775390625" lon="-71.11267880536615848541259765625">
        <ele>750.4000244140625</ele>
        <time>2026-08-22T00:41:33.000Z</time>
        <extensions>
          <ns3:TrackPointExtension>
            <ns3:hr>130</ns3:hr>
            <ns3:cad>0</ns3:cad>
          </ns3:TrackPointExtension>
        </extensions>
      </trkpt>
      <trkpt lat="45.28383848257362842559814453125" lon="-71.11268299631774425506591796875">
        <ele>750.4000244140625</ele>
        <time>2026-08-22T00:41:34.000Z</time>
        <extensions>
          <ns3:TrackPointExtension>
            <ns3:hr>130</ns3:hr>
            <ns3:cad>0</ns3:cad>
          </ns3:TrackPointExtension>
        </extensions>
      </trkpt>
      <trkpt lat="45.2838442660868167877197265625" lon="-71.1126892827451229095458984375">
        <ele>750.20001220703125</ele>
        <time>2026-08-22T00:41:35.000Z</time>
        <extensions>
          <ns3:TrackPointExtension>
            <ns3:hr>130</ns3:hr>
            <ns3:cad>0</ns3:cad>
          </ns3:TrackPointExtension>
        </extensions>
      </trkpt>
      <trkpt lat="45.28384275734424591064453125" lon="-71.11269305460155010223388671875">
        <ele>750</ele>
        <time>2026-08-22T00:41:36.000Z</time>
        <extensions>
          <ns3:TrackPointExtension>
            <ns3:hr>129</ns3:hr>
            <ns3:cad>0</ns3:cad>
          </ns3:TrackPointExtension>
        </extensions>
      </trkpt>
      <trkpt lat="45.28383496217429637908935546875" lon="-71.11270596273243427276611328125">
        <ele>749.79998779296875</ele>
        <time>2026-08-22T00:41:37.000Z</time>
        <extensions>
          <ns3:TrackPointExtension>
            <ns3:hr>129</ns3:hr>
            <ns3:cad>0</ns3:cad>
          </ns3:TrackPointExtension>
        </extensions>
      </trkpt>
      <trkpt lat="45.28383479453623294830322265625" lon="-71.11272239126265048980712890625">
        <ele>749.4000244140625</ele>
        <time>2026-08-22T00:41:38.000Z</time>
        <extensions>
          <ns3:TrackPointExtension>
            <ns3:hr>129</ns3:hr>
            <ns3:cad>0</ns3:cad>
          </ns3:TrackPointExtension>
        </extensions>
      </trkpt>
      <trkpt lat="45.28383596800267696380615234375" lon="-71.11273513175547122955322265625">
        <ele>749.20001220703125</ele>
        <time>2026-08-22T00:41:39.000Z</time>
        <extensions>
          <ns3:TrackPointExtension>
            <ns3:hr>129</ns3:hr>
            <ns3:cad>0</ns3:cad>
          </ns3:TrackPointExtension>
        </extensions>
      </trkpt>
      <trkpt lat="45.283839069306850433349609375" lon="-71.1127352155745029449462890625">
        <ele>748.79998779296875</ele>
        <time>2026-08-22T00:41:40.000Z</time>
        <extensions>
          <ns3:TrackPointExtension>
            <ns3:hr>128</ns3:hr>
            <ns3:cad>0</ns3:cad>
          </ns3:TrackPointExtension>
        </extensions>
      </trkpt>
      <trkpt lat="45.2838429249823093414306640625" lon="-71.11274242401123046875">
        <ele>748.5999755859375</ele>
        <time>2026-08-22T00:41:41.000Z</time>
        <extensions>
          <ns3:TrackPointExtension>
            <ns3:hr>128</ns3:hr>
            <ns3:cad>0</ns3:cad>
          </ns3:TrackPointExtension>
        </extensions>
      </trkpt>
      <trkpt lat="45.28384812176227569580078125" lon="-71.1127544939517974853515625">
        <ele>748.4000244140625</ele>
        <time>2026-08-22T00:41:42.000Z</time>
        <extensions>
          <ns3:TrackPointExtension>
            <ns3:hr>128</ns3:hr>
            <ns3:cad>0</ns3:cad>
          </ns3:TrackPointExtension>
        </extensions>
      </trkpt>
      <trkpt lat="45.2838546596467494964599609375" lon="-71.11276798881590366363525390625">
        <ele>748.20001220703125</ele>
        <time>2026-08-22T00:41:43.000Z</time>
        <extensions>
          <ns3:TrackPointExtension>
            <ns3:hr>128</ns3:hr>
            <ns3:cad>0</ns3:cad>
          </ns3:TrackPointExtension>
        </extensions>
      </trkpt>
      <trkpt lat="45.28386312536895275115966796875" lon="-71.11278257332742214202880859375">
        <ele>748</ele>
        <time>2026-08-22T00:41:44.000Z</time>
        <extensions>
          <ns3:TrackPointExtension>
            <ns3:hr>127</ns3:hr>
            <ns3:cad>0</ns3:cad>
          </ns3:TrackPointExtension>
        </extensions>
      </trkpt>
      <trkpt lat="45.28387234546244144439697265625" lon="-71.1127918772399425506591796875">
        <ele>747.5999755859375</ele>
        <time>2026-08-22T00:41:45.000Z</time>
        <extensions>
          <ns3:TrackPointExtension>
            <ns3:hr>127</ns3:hr>
            <ns3:cad>0</ns3:cad>
          </ns3:TrackPointExtension>
        </extensions>
      </trkpt>
      <trkpt lat="45.283882655203342437744140625" lon="-71.112798750400543212890625">
        <ele>747.20001220703125</ele>
        <time>2026-08-22T00:41:46.000Z</time>
        <extensions>
          <ns3:TrackPointExtension>
            <ns3:hr>126</ns3:hr>
            <ns3:cad>0</ns3:cad>
          </ns3:TrackPointExtension>
        </extensions>
      </trkpt>
      <trkpt lat="45.28388969600200653076171875" lon="-71.11280587501823902130126953125">
        <ele>747</ele>
        <time>2026-08-22T00:41:47.000Z</time>
        <extensions>
          <ns3:TrackPointExtension>
            <ns3:hr>126</ns3:hr>
            <ns3:cad>0</ns3:cad>
          </ns3:TrackPointExtension>
        </extensions>
      </trkpt>
      <trkpt lat="45.28389346785843372344970703125" lon="-71.112809143960475921630859375">
        <ele>746.5999755859375</ele>
        <time>2026-08-22T00:41:48.000Z</time>
        <extensions>
          <ns3:TrackPointExtension>
            <ns3:hr>125</ns3:hr>
            <ns3:cad>0</ns3:cad>
          </ns3:TrackPointExtension>
        </extensions>
      </trkpt>
      <trkpt lat="45.283898748457431793212890625" lon="-71.112819872796535491943359375">
        <ele>746.4000244140625</ele>
        <time>2026-08-22T00:41:49.000Z</time>
        <extensions>
          <ns3:TrackPointExtension>
            <ns3:hr>124</ns3:hr>
            <ns3:cad>0</ns3:cad>
          </ns3:TrackPointExtension>
        </extensions>
      </trkpt>
      <trkpt lat="45.28390855528414249420166015625" lon="-71.11283068545162677764892578125">
        <ele>746.20001220703125</ele>
        <time>2026-08-22T00:41:50.000Z</time>
        <extensions>
          <ns3:TrackPointExtension>
            <ns3:hr>122</ns3:hr>
            <ns3:cad>0</ns3:cad>
          </ns3:TrackPointExtension>
        </extensions>
      </trkpt>
      <trkpt lat="45.28391651809215545654296875" lon="-71.11283906735479831695556640625">
        <ele>746</ele>
        <time>2026-08-22T00:41:51.000Z</time>
        <extensions>
          <ns3:TrackPointExtension>
            <ns3:hr>121</ns3:hr>
            <ns3:cad>0</ns3:cad>
          </ns3:TrackPointExtension>
        </extensions>
      </trkpt>
      <trkpt lat="45.2839240618050098419189453125" lon="-71.11284795217216014862060546875">
        <ele>745.5999755859375</ele>
        <time>2026-08-22T00:41:52.000Z</time>
        <extensions>
          <ns3:TrackPointExtension>
            <ns3:hr>119</ns3:hr>
            <ns3:cad>0</ns3:cad>
          </ns3:TrackPointExtension>
        </extensions>
      </trkpt>
      <trkpt lat="45.28393118642270565032958984375" lon="-71.11285851337015628814697265625">
        <ele>745.4000244140625</ele>
        <time>2026-08-22T00:41:53.000Z</time>
        <extensions>
          <ns3:TrackPointExtension>
            <ns3:hr>119</ns3:hr>
            <ns3:cad>0</ns3:cad>
          </ns3:TrackPointExtension>
        </extensions>
      </trkpt>
      <trkpt lat="45.2839401550590991973876953125" lon="-71.112870834767818450927734375">
        <ele>745.20001220703125</ele>
        <time>2026-08-22T00:41:54.000Z</time>
        <extensions>
          <ns3:TrackPointExtension>
            <ns3:hr>118</ns3:hr>
            <ns3:cad>0</ns3:cad>
          </ns3:TrackPointExtension>
        </extensions>
      </trkpt>
      <trkpt lat="45.28394610621035099029541015625" lon="-71.11287913285195827484130859375">
        <ele>745</ele>
        <time>2026-08-22T00:41:55.000Z</time>
        <extensions>
          <ns3:TrackPointExtension>
            <ns3:hr>118</ns3:hr>
            <ns3:cad>0</ns3:cad>
          </ns3:TrackPointExtension>
        </extensions>
      </trkpt>
      <trkpt lat="45.28395415283739566802978515625" lon="-71.11289220862090587615966796875">
        <ele>744.5999755859375</ele>
        <time>2026-08-22T00:41:56.000Z</time>
        <extensions>
          <ns3:TrackPointExtension>
            <ns3:hr>117</ns3:hr>
            <ns3:cad>0</ns3:cad>
          </ns3:TrackPointExtension>
        </extensions>
      </trkpt>
      <trkpt lat="45.28395884670317173004150390625" lon="-71.11290226690471172332763671875">
        <ele>744.4000244140625</ele>
        <time>2026-08-22T00:41:57.000Z</time>
        <extensions>
          <ns3:TrackPointExtension>
            <ns3:hr>116</ns3:hr>
            <ns3:cad>0</ns3:cad>
          </ns3:TrackPointExtension>
        </extensions>
      </trkpt>
      <trkpt lat="45.2839614450931549072265625" lon="-71.11290880478918552398681640625">
        <ele>744.20001220703125</ele>
        <time>2026-08-22T00:41:58.000Z</time>
        <extensions>
          <ns3:TrackPointExtension>
            <ns3:hr>116</ns3:hr>
            <ns3:cad>0</ns3:cad>
          </ns3:TrackPointExtension>
        </extensions>
      </trkpt>
      <trkpt lat="45.283963121473789215087890625" lon="-71.11291207373142242431640625">
        <ele>744</ele>
        <time>2026-08-22T00:41:59.000Z</time>
        <extensions>
          <ns3:TrackPointExtension>
            <ns3:hr>115</ns3:hr>
            <ns3:cad>0</ns3:cad>
          </ns3:TrackPointExtension>
        </extensions>
      </trkpt>
      <trkpt lat="45.2839659713208675384521484375" lon="-71.112917102873325347900390625">
        <ele>743.79998779296875</ele>
        <time>2026-08-22T00:42:00.000Z</time>
        <extensions>
          <ns3:TrackPointExtension>
            <ns3:hr>115</ns3:hr>
            <ns3:cad>0</ns3:cad>
          </ns3:TrackPointExtension>
        </extensions>
      </trkpt>
      <trkpt lat="45.28396991081535816192626953125" lon="-71.112920455634593963623046875">
        <ele>743.5999755859375</ele>
        <time>2026-08-22T00:42:01.000Z</time>
        <extensions>
          <ns3:TrackPointExtension>
            <ns3:hr>115</ns3:hr>
            <ns3:cad>0</ns3:cad>
          </ns3:TrackPointExtension>
        </extensions>
      </trkpt>
      <trkpt lat="45.283975191414356231689453125" lon="-71.11292908899486064910888671875">
        <ele>743.4000244140625</ele>
        <time>2026-08-22T00:42:02.000Z</time>
        <extensions>
          <ns3:TrackPointExtension>
            <ns3:hr>115</ns3:hr>
            <ns3:cad>0</ns3:cad>
          </ns3:TrackPointExtension>
        </extensions>
      </trkpt>
      <trkpt lat="45.28398181311786174774169921875" lon="-71.112932525575160980224609375">
        <ele>743.4000244140625</ele>
        <time>2026-08-22T00:42:03.000Z</time>
        <extensions>
          <ns3:TrackPointExtension>
            <ns3:hr>114</ns3:hr>
            <ns3:cad>0</ns3:cad>
          </ns3:TrackPointExtension>
        </extensions>
      </trkpt>
      <trkpt lat="45.28398315422236919403076171875" lon="-71.1129343695938587188720703125">
        <ele>743.20001220703125</ele>
        <time>2026-08-22T00:42:04.000Z</time>
        <extensions>
          <ns3:TrackPointExtension>
            <ns3:hr>115</ns3:hr>
            <ns3:cad>0</ns3:cad>
          </ns3:TrackPointExtension>
        </extensions>
      </trkpt>
      <trkpt lat="45.28398382477462291717529296875" lon="-71.1129360459744930267333984375">
        <ele>743</ele>
        <time>2026-08-22T00:42:05.000Z</time>
        <extensions>
          <ns3:TrackPointExtension>
            <ns3:hr>115</ns3:hr>
            <ns3:cad>0</ns3:cad>
          </ns3:TrackPointExtension>
        </extensions>
      </trkpt>
      <trkpt lat="45.28398583643138408660888671875" lon="-71.1129387281835079193115234375">
        <ele>743</ele>
        <time>2026-08-22T00:42:06.000Z</time>
        <extensions>
          <ns3:TrackPointExtension>
            <ns3:hr>114</ns3:hr>
            <ns3:cad>0</ns3:cad>
          </ns3:TrackPointExtension>
        </extensions>
      </trkpt>
      <trkpt lat="45.283988602459430694580078125" lon="-71.1129387281835079193115234375">
        <ele>743</ele>
        <time>2026-08-22T00:42:07.000Z</time>
        <extensions>
          <ns3:TrackPointExtension>
            <ns3:hr>114</ns3:hr>
            <ns3:cad>0</ns3:cad>
          </ns3:TrackPointExtension>
        </extensions>
      </trkpt>
      <trkpt lat="45.28399036265909671783447265625" lon="-71.11293998546898365020751953125">
        <ele>743</ele>
        <time>2026-08-22T00:42:08.000Z</time>
        <extensions>
          <ns3:TrackPointExtension>
            <ns3:hr>114</ns3:hr>
            <ns3:cad>0</ns3:cad>
          </ns3:TrackPointExtension>
        </extensions>
      </trkpt>
      <trkpt lat="45.2839884348213672637939453125" lon="-71.112938560545444488525390625">
        <ele>743</ele>
        <time>2026-08-22T00:42:09.000Z</time>
        <extensions>
          <ns3:TrackPointExtension>
            <ns3:hr>113</ns3:hr>
            <ns3:cad>0</ns3:cad>
          </ns3:TrackPointExtension>
        </extensions>
      </trkpt>
      <trkpt lat="45.28398667462170124053955078125" lon="-71.11293462105095386505126953125">
        <ele>742.79998779296875</ele>
        <time>2026-08-22T00:42:10.000Z</time>
        <extensions>
          <ns3:TrackPointExtension>
            <ns3:hr>113</ns3:hr>
            <ns3:cad>0</ns3:cad>
          </ns3:TrackPointExtension>
        </extensions>
      </trkpt>
      <trkpt lat="45.28398499824106693267822265625" lon="-71.1129336990416049957275390625">
        <ele>742.79998779296875</ele>
        <time>2026-08-22T00:42:11.000Z</time>
        <extensions>
          <ns3:TrackPointExtension>
            <ns3:hr>113</ns3:hr>
            <ns3:cad>0</ns3:cad>
          </ns3:TrackPointExtension>
        </extensions>
      </trkpt>
      <trkpt lat="45.28398332186043262481689453125" lon="-71.112935207784175872802734375">
        <ele>742.5999755859375</ele>
        <time>2026-08-22T00:42:12.000Z</time>
        <extensions>
          <ns3:TrackPointExtension>
            <ns3:hr>114</ns3:hr>
            <ns3:cad>45</ns3:cad>
          </ns3:TrackPointExtension>
        </extensions>
      </trkpt>
      <trkpt lat="45.2839802205562591552734375" lon="-71.11293889582157135009765625">
        <ele>742.20001220703125</ele>
        <time>2026-08-22T00:42:13.000Z</time>
        <extensions>
          <ns3:TrackPointExtension>
            <ns3:hr>115</ns3:hr>
            <ns3:cad>45</ns3:cad>
          </ns3:TrackPointExtension>
        </extensions>
      </trkpt>
      <trkpt lat="45.28397611342370510101318359375" lon="-71.11295121721923351287841796875">
        <ele>742</ele>
        <time>2026-08-22T00:42:14.000Z</time>
        <extensions>
          <ns3:TrackPointExtension>
            <ns3:hr>116</ns3:hr>
            <ns3:cad>45</ns3:cad>
          </ns3:TrackPointExtension>
        </extensions>
      </trkpt>
      <trkpt lat="45.2839656360447406768798828125" lon="-71.112954318523406982421875">
        <ele>741.5999755859375</ele>
        <time>2026-08-22T00:42:15.000Z</time>
        <extensions>
          <ns3:TrackPointExtension>
            <ns3:hr>117</ns3:hr>
            <ns3:cad>45</ns3:cad>
          </ns3:TrackPointExtension>
        </extensions>
      </trkpt>
      <trkpt lat="45.2839602716267108917236328125" lon="-71.112956665456295013427734375">
        <ele>741.4000244140625</ele>
        <time>2026-08-22T00:42:16.000Z</time>
        <extensions>
          <ns3:TrackPointExtension>
            <ns3:hr>117</ns3:hr>
            <ns3:cad>45</ns3:cad>
          </ns3:TrackPointExtension>
        </extensions>
      </trkpt>
      <trkpt lat="45.28395515866577625274658203125" lon="-71.11296244896948337554931640625">
        <ele>741</ele>
        <time>2026-08-22T00:42:17.000Z</time>
        <extensions>
          <ns3:TrackPointExtension>
            <ns3:hr>116</ns3:hr>
            <ns3:cad>45</ns3:cad>
          </ns3:TrackPointExtension>
        </extensions>
      </trkpt>
      <trkpt lat="45.2839515544474124908447265625" lon="-71.11297233961522579193115234375">
        <ele>740.79998779296875</ele>
        <time>2026-08-22T00:42:18.000Z</time>
        <extensions>
          <ns3:TrackPointExtension>
            <ns3:hr>113</ns3:hr>
            <ns3:cad>45</ns3:cad>
          </ns3:TrackPointExtension>
        </extensions>
      </trkpt>
      <trkpt lat="45.28394526802003383636474609375" lon="-71.11298172734677791595458984375">
        <ele>740.5999755859375</ele>
        <time>2026-08-22T00:42:19.000Z</time>
        <extensions>
          <ns3:TrackPointExtension>
            <ns3:hr>113</ns3:hr>
            <ns3:cad>45</ns3:cad>
          </ns3:TrackPointExtension>
        </extensions>
      </trkpt>
      <trkpt lat="45.28393655084073543548583984375" lon="-71.1129896901547908782958984375">
        <ele>740.20001220703125</ele>
        <time>2026-08-22T00:42:20.000Z</time>
        <extensions>
          <ns3:TrackPointExtension>
            <ns3:hr>112</ns3:hr>
            <ns3:cad>45</ns3:cad>
          </ns3:TrackPointExtension>
        </extensions>
      </trkpt>
      <trkpt lat="45.28392498381435871124267578125" lon="-71.11299949698150157928466796875">
        <ele>740.20001220703125</ele>
        <time>2026-08-22T00:42:21.000Z</time>
        <extensions>
          <ns3:TrackPointExtension>
            <ns3:hr>112</ns3:hr>
            <ns3:cad>45</ns3:cad>
          </ns3:TrackPointExtension>
        </extensions>
      </trkpt>
      <trkpt lat="45.2839153446257114410400390625" lon="-71.11301592551171779632568359375">
        <ele>740</ele>
        <time>2026-08-22T00:42:22.000Z</time>
        <extensions>
          <ns3:TrackPointExtension>
            <ns3:hr>113</ns3:hr>
            <ns3:cad>45</ns3:cad>
          </ns3:TrackPointExtension>
        </extensions>
      </trkpt>
      <trkpt lat="45.28390855528414249420166015625" lon="-71.113027073442935943603515625">
        <ele>739.79998779296875</ele>
        <time>2026-08-22T00:42:23.000Z</time>
        <extensions>
          <ns3:TrackPointExtension>
            <ns3:hr>113</ns3:hr>
            <ns3:cad>45</ns3:cad>
          </ns3:TrackPointExtension>
        </extensions>
      </trkpt>
      <trkpt lat="45.28390017338097095489501953125" lon="-71.113033778965473175048828125">
        <ele>739.5999755859375</ele>
        <time>2026-08-22T00:42:24.000Z</time>
        <extensions>
          <ns3:TrackPointExtension>
            <ns3:hr>114</ns3:hr>
            <ns3:cad>45</ns3:cad>
          </ns3:TrackPointExtension>
        </extensions>
      </trkpt>
      <trkpt lat="45.28389497660100460052490234375" lon="-71.11304618418216705322265625">
        <ele>739.4000244140625</ele>
        <time>2026-08-22T00:42:25.000Z</time>
        <extensions>
          <ns3:TrackPointExtension>
            <ns3:hr>115</ns3:hr>
            <ns3:cad>45</ns3:cad>
          </ns3:TrackPointExtension>
        </extensions>
      </trkpt>
      <trkpt lat="45.28389313258230686187744140625" lon="-71.11305934377014636993408203125">
        <ele>739.20001220703125</ele>
        <time>2026-08-22T00:42:26.000Z</time>
        <extensions>
          <ns3:TrackPointExtension>
            <ns3:hr>115</ns3:hr>
            <ns3:cad>45</ns3:cad>
          </ns3:TrackPointExtension>
        </extensions>
      </trkpt>
      <trkpt lat="45.283886678516864776611328125" lon="-71.11307929269969463348388671875">
        <ele>739</ele>
        <time>2026-08-22T00:42:27.000Z</time>
        <extensions>
          <ns3:TrackPointExtension>
            <ns3:hr>115</ns3:hr>
            <ns3:cad>45</ns3:cad>
          </ns3:TrackPointExtension>
        </extensions>
      </trkpt>
      <trkpt lat="45.2838878519833087921142578125" lon="-71.11310184001922607421875">
        <ele>738.79998779296875</ele>
        <time>2026-08-22T00:42:28.000Z</time>
        <extensions>
          <ns3:TrackPointExtension>
            <ns3:hr>115</ns3:hr>
            <ns3:cad>0</ns3:cad>
          </ns3:TrackPointExtension>
        </extensions>
      </trkpt>
      <trkpt lat="45.28388676233589649200439453125" lon="-71.11311919055879116058349609375">
        <ele>738.5999755859375</ele>
        <time>2026-08-22T00:42:29.000Z</time>
        <extensions>
          <ns3:TrackPointExtension>
            <ns3:hr>116</ns3:hr>
            <ns3:cad>0</ns3:cad>
          </ns3:TrackPointExtension>
        </extensions>
      </trkpt>
      <trkpt lat="45.28389078564941883087158203125" lon="-71.11313109286129474639892578125">
        <ele>738.4000244140625</ele>
        <time>2026-08-22T00:42:30.000Z</time>
        <extensions>
          <ns3:TrackPointExtension>
            <ns3:hr>115</ns3:hr>
            <ns3:cad>0</ns3:cad>
          </ns3:TrackPointExtension>
        </extensions>
      </trkpt>
      <trkpt lat="45.2838922105729579925537109375" lon="-71.11314064823091030120849609375">
        <ele>738</ele>
        <time>2026-08-22T00:42:31.000Z</time>
        <extensions>
          <ns3:TrackPointExtension>
            <ns3:hr>115</ns3:hr>
            <ns3:cad>0</ns3:cad>
          </ns3:TrackPointExtension>
        </extensions>
      </trkpt>
      <trkpt lat="45.28388458304107189178466796875" lon="-71.11315825022757053375244140625">
        <ele>737.79998779296875</ele>
        <time>2026-08-22T00:42:32.000Z</time>
        <extensions>
          <ns3:TrackPointExtension>
            <ns3:hr>114</ns3:hr>
            <ns3:cad>0</ns3:cad>
          </ns3:TrackPointExtension>
        </extensions>
      </trkpt>
      <trkpt lat="45.28388340957462787628173828125" lon="-71.11318054609000682830810546875">
        <ele>737.4000244140625</ele>
        <time>2026-08-22T00:42:33.000Z</time>
        <extensions>
          <ns3:TrackPointExtension>
            <ns3:hr>114</ns3:hr>
            <ns3:cad>0</ns3:cad>
          </ns3:TrackPointExtension>
        </extensions>
      </trkpt>
      <trkpt lat="45.283883325755596160888671875" lon="-71.11320083029568195343017578125">
        <ele>737</ele>
        <time>2026-08-22T00:42:34.000Z</time>
        <extensions>
          <ns3:TrackPointExtension>
            <ns3:hr>112</ns3:hr>
            <ns3:cad>0</ns3:cad>
          </ns3:TrackPointExtension>
        </extensions>
      </trkpt>
      <trkpt lat="45.2838824875652790069580078125" lon="-71.11321273259818553924560546875">
        <ele>736.5999755859375</ele>
        <time>2026-08-22T00:42:35.000Z</time>
        <extensions>
          <ns3:TrackPointExtension>
            <ns3:hr>112</ns3:hr>
            <ns3:cad>0</ns3:cad>
          </ns3:TrackPointExtension>
        </extensions>
      </trkpt>
      <trkpt lat="45.28388240374624729156494140625" lon="-71.11323938705027103424072265625">
        <ele>736.4000244140625</ele>
        <time>2026-08-22T00:42:36.000Z</time>
        <extensions>
          <ns3:TrackPointExtension>
            <ns3:hr>112</ns3:hr>
            <ns3:cad>0</ns3:cad>
          </ns3:TrackPointExtension>
        </extensions>
      </trkpt>
      <trkpt lat="45.28388424776494503021240234375" lon="-71.11325648613274097442626953125">
        <ele>736.20001220703125</ele>
        <time>2026-08-22T00:42:37.000Z</time>
        <extensions>
          <ns3:TrackPointExtension>
            <ns3:hr>111</ns3:hr>
            <ns3:cad>0</ns3:cad>
          </ns3:TrackPointExtension>
        </extensions>
      </trkpt>
      <trkpt lat="45.2838831581175327301025390625" lon="-71.11327224411070346832275390625">
        <ele>736</ele>
        <time>2026-08-22T00:42:38.000Z</time>
        <extensions>
          <ns3:TrackPointExtension>
            <ns3:hr>111</ns3:hr>
            <ns3:cad>0</ns3:cad>
          </ns3:TrackPointExtension>
        </extensions>
      </trkpt>
      <trkpt lat="45.28388307429850101470947265625" lon="-71.11328029073774814605712890625">
        <ele>735.79998779296875</ele>
        <time>2026-08-22T00:42:39.000Z</time>
        <extensions>
          <ns3:TrackPointExtension>
            <ns3:hr>111</ns3:hr>
            <ns3:cad>0</ns3:cad>
          </ns3:TrackPointExtension>
        </extensions>
      </trkpt>
      <trkpt lat="45.28388089500367641448974609375" lon="-71.1132934503257274627685546875">
        <ele>735.5999755859375</ele>
        <time>2026-08-22T00:42:40.000Z</time>
        <extensions>
          <ns3:TrackPointExtension>
            <ns3:hr>110</ns3:hr>
            <ns3:cad>69</ns3:cad>
          </ns3:TrackPointExtension>
        </extensions>
      </trkpt>
      <trkpt lat="45.28387787751853466033935546875" lon="-71.113313734531402587890625">
        <ele>735.4000244140625</ele>
        <time>2026-08-22T00:42:41.000Z</time>
        <extensions>
          <ns3:TrackPointExtension>
            <ns3:hr>110</ns3:hr>
            <ns3:cad>69</ns3:cad>
          </ns3:TrackPointExtension>
        </extensions>
      </trkpt>
      <trkpt lat="45.28386765159666538238525390625" lon="-71.1133249662816524505615234375">
        <ele>735.20001220703125</ele>
        <time>2026-08-22T00:42:42.000Z</time>
        <extensions>
          <ns3:TrackPointExtension>
            <ns3:hr>110</ns3:hr>
            <ns3:cad>69</ns3:cad>
          </ns3:TrackPointExtension>
        </extensions>
      </trkpt>
      <trkpt lat="45.28386279009282588958740234375" lon="-71.11333242617547512054443359375">
        <ele>735</ele>
        <time>2026-08-22T00:42:43.000Z</time>
        <extensions>
          <ns3:TrackPointExtension>
            <ns3:hr>110</ns3:hr>
            <ns3:cad>0</ns3:cad>
          </ns3:TrackPointExtension>
        </extensions>
      </trkpt>
      <trkpt lat="45.28385491110384464263916015625" lon="-71.1133467592298984527587890625">
        <ele>734.79998779296875</ele>
        <time>2026-08-22T00:42:44.000Z</time>
        <extensions>
          <ns3:TrackPointExtension>
            <ns3:hr>109</ns3:hr>
            <ns3:cad>0</ns3:cad>
          </ns3:TrackPointExtension>
        </extensions>
      </trkpt>
      <trkpt lat="45.283851139247417449951171875" lon="-71.11335941590368747711181640625">
        <ele>734.5999755859375</ele>
        <time>2026-08-22T00:42:45.000Z</time>
        <extensions>
          <ns3:TrackPointExtension>
            <ns3:hr>109</ns3:hr>
            <ns3:cad>0</ns3:cad>
          </ns3:TrackPointExtension>
        </extensions>
      </trkpt>
      <trkpt lat="45.28384820558130741119384765625" lon="-71.113370396196842193603515625">
        <ele>734.5999755859375</ele>
        <time>2026-08-22T00:42:46.000Z</time>
        <extensions>
          <ns3:TrackPointExtension>
            <ns3:hr>109</ns3:hr>
            <ns3:cad>0</ns3:cad>
          </ns3:TrackPointExtension>
        </extensions>
      </trkpt>
      <trkpt lat="45.283850468695163726806640625" lon="-71.11336980946362018585205078125">
        <ele>734.5999755859375</ele>
        <time>2026-08-22T00:42:47.000Z</time>
        <extensions>
          <ns3:TrackPointExtension>
            <ns3:hr>108</ns3:hr>
            <ns3:cad>0</ns3:cad>
          </ns3:TrackPointExtension>
        </extensions>
      </trkpt>
      <trkpt lat="45.28385004960000514984130859375" lon="-71.11337232403457164764404296875">
        <ele>734.4000244140625</ele>
        <time>2026-08-22T00:42:48.000Z</time>
        <extensions>
          <ns3:TrackPointExtension>
            <ns3:hr>109</ns3:hr>
            <ns3:cad>0</ns3:cad>
          </ns3:TrackPointExtension>
        </extensions>
      </trkpt>
      <trkpt lat="45.28384803794324398040771484375" lon="-71.1133848130702972412109375">
        <ele>734.4000244140625</ele>
        <time>2026-08-22T00:42:49.000Z</time>
        <extensions>
          <ns3:TrackPointExtension>
            <ns3:hr>110</ns3:hr>
            <ns3:cad>0</ns3:cad>
          </ns3:TrackPointExtension>
        </extensions>
      </trkpt>
      <trkpt lat="45.28384652920067310333251953125" lon="-71.11339461989700794219970703125">
        <ele>734.4000244140625</ele>
        <time>2026-08-22T00:42:50.000Z</time>
        <extensions>
          <ns3:TrackPointExtension>
            <ns3:hr>111</ns3:hr>
            <ns3:cad>0</ns3:cad>
          </ns3:TrackPointExtension>
        </extensions>
      </trkpt>
      <trkpt lat="45.2838429249823093414306640625" lon="-71.11340216360986232757568359375">
        <ele>734.4000244140625</ele>
        <time>2026-08-22T00:42:51.000Z</time>
        <extensions>
          <ns3:TrackPointExtension>
            <ns3:hr>111</ns3:hr>
            <ns3:cad>0</ns3:cad>
          </ns3:TrackPointExtension>
        </extensions>
      </trkpt>
      <trkpt lat="45.2838378958404064178466796875" lon="-71.1134138144552707672119140625">
        <ele>734.4000244140625</ele>
        <time>2026-08-22T00:42:52.000Z</time>
        <extensions>
          <ns3:TrackPointExtension>
            <ns3:hr>110</ns3:hr>
            <ns3:cad>0</ns3:cad>
          </ns3:TrackPointExtension>
        </extensions>
      </trkpt>
      <trkpt lat="45.28383596800267696380615234375" lon="-71.1134198494255542755126953125">
        <ele>734.20001220703125</ele>
        <time>2026-08-22T00:42:53.000Z</time>
        <extensions>
          <ns3:TrackPointExtension>
            <ns3:hr>109</ns3:hr>
            <ns3:cad>0</ns3:cad>
          </ns3:TrackPointExtension>
        </extensions>
      </trkpt>
      <trkpt lat="45.2838261611759662628173828125" lon="-71.11342311836779117584228515625">
        <ele>734.20001220703125</ele>
        <time>2026-08-22T00:42:54.000Z</time>
        <extensions>
          <ns3:TrackPointExtension>
            <ns3:hr>109</ns3:hr>
            <ns3:cad>0</ns3:cad>
          </ns3:TrackPointExtension>
        </extensions>
      </trkpt>
      <trkpt lat="45.28382171876728534698486328125" lon="-71.11342999152839183807373046875">
        <ele>734.20001220703125</ele>
        <time>2026-08-22T00:42:55.000Z</time>
        <extensions>
          <ns3:TrackPointExtension>
            <ns3:hr>108</ns3:hr>
            <ns3:cad>0</ns3:cad>
          </ns3:TrackPointExtension>
        </extensions>
      </trkpt>
      <trkpt lat="45.28382037766277790069580078125" lon="-71.11343602649867534637451171875">
        <ele>734.4000244140625</ele>
        <time>2026-08-22T00:42:56.000Z</time>
        <extensions>
          <ns3:TrackPointExtension>
            <ns3:hr>107</ns3:hr>
            <ns3:cad>0</ns3:cad>
          </ns3:TrackPointExtension>
        </extensions>
      </trkpt>
      <trkpt lat="45.283812582492828369140625" lon="-71.11345061101019382476806640625">
        <ele>734.5999755859375</ele>
        <time>2026-08-22T00:42:57.000Z</time>
        <extensions>
          <ns3:TrackPointExtension>
            <ns3:hr>109</ns3:hr>
            <ns3:cad>45</ns3:cad>
          </ns3:TrackPointExtension>
        </extensions>
      </trkpt>
      <trkpt lat="45.28380847536027431488037109375" lon="-71.113464273512363433837890625">
        <ele>734.79998779296875</ele>
        <time>2026-08-22T00:42:58.000Z</time>
        <extensions>
          <ns3:TrackPointExtension>
            <ns3:hr>109</ns3:hr>
            <ns3:cad>45</ns3:cad>
          </ns3:TrackPointExtension>
        </extensions>
      </trkpt>
      <trkpt lat="45.2838040329515933990478515625" lon="-71.11347441561520099639892578125">
        <ele>735</ele>
        <time>2026-08-22T00:42:59.000Z</time>
        <extensions>
          <ns3:TrackPointExtension>
            <ns3:hr>108</ns3:hr>
            <ns3:cad>45</ns3:cad>
          </ns3:TrackPointExtension>
        </extensions>
      </trkpt>
      <trkpt lat="45.28380160219967365264892578125" lon="-71.1134867370128631591796875">
        <ele>735.20001220703125</ele>
        <time>2026-08-22T00:43:00.000Z</time>
        <extensions>
          <ns3:TrackPointExtension>
            <ns3:hr>108</ns3:hr>
            <ns3:cad>0</ns3:cad>
          </ns3:TrackPointExtension>
        </extensions>
      </trkpt>
      <trkpt lat="45.283803530037403106689453125" lon="-71.113510541617870330810546875">
        <ele>735.4000244140625</ele>
        <time>2026-08-22T00:43:01.000Z</time>
        <extensions>
          <ns3:TrackPointExtension>
            <ns3:hr>108</ns3:hr>
            <ns3:cad>0</ns3:cad>
          </ns3:TrackPointExtension>
        </extensions>
      </trkpt>
      <trkpt lat="45.28380529023706912994384765625" lon="-71.1135256290435791015625">
        <ele>735.5999755859375</ele>
        <time>2026-08-22T00:43:02.000Z</time>
        <extensions>
          <ns3:TrackPointExtension>
            <ns3:hr>108</ns3:hr>
            <ns3:cad>43</ns3:cad>
          </ns3:TrackPointExtension>
        </extensions>
      </trkpt>
      <trkpt lat="45.283808223903179168701171875" lon="-71.11354147084057331085205078125">
        <ele>735.79998779296875</ele>
        <time>2026-08-22T00:43:03.000Z</time>
        <extensions>
          <ns3:TrackPointExtension>
            <ns3:hr>108</ns3:hr>
            <ns3:cad>43</ns3:cad>
          </ns3:TrackPointExtension>
        </extensions>
      </trkpt>
      <trkpt lat="45.2838127501308917999267578125" lon="-71.1135522834956645965576171875">
        <ele>736</ele>
        <time>2026-08-22T00:43:04.000Z</time>
        <extensions>
          <ns3:TrackPointExtension>
            <ns3:hr>108</ns3:hr>
            <ns3:cad>43</ns3:cad>
          </ns3:TrackPointExtension>
        </extensions>
      </trkpt>
      <trkpt lat="45.28381635434925556182861328125" lon="-71.1135680414736270904541015625">
        <ele>736.20001220703125</ele>
        <time>2026-08-22T00:43:05.000Z</time>
        <extensions>
          <ns3:TrackPointExtension>
            <ns3:hr>108</ns3:hr>
            <ns3:cad>43</ns3:cad>
          </ns3:TrackPointExtension>
        </extensions>
      </trkpt>
      <trkpt lat="45.283820293843746185302734375" lon="-71.1135837994515895843505859375">
        <ele>736.4000244140625</ele>
        <time>2026-08-22T00:43:06.000Z</time>
        <extensions>
          <ns3:TrackPointExtension>
            <ns3:hr>109</ns3:hr>
            <ns3:cad>43</ns3:cad>
          </ns3:TrackPointExtension>
        </extensions>
      </trkpt>
      <trkpt lat="45.28382104821503162384033203125" lon="-71.1135967075824737548828125">
        <ele>736.5999755859375</ele>
        <time>2026-08-22T00:43:07.000Z</time>
        <extensions>
          <ns3:TrackPointExtension>
            <ns3:hr>109</ns3:hr>
            <ns3:cad>0</ns3:cad>
          </ns3:TrackPointExtension>
        </extensions>
      </trkpt>
      <trkpt lat="45.28381518088281154632568359375" lon="-71.11361037008464336395263671875">
        <ele>736.79998779296875</ele>
        <time>2026-08-22T00:43:08.000Z</time>
        <extensions>
          <ns3:TrackPointExtension>
            <ns3:hr>109</ns3:hr>
            <ns3:cad>0</ns3:cad>
          </ns3:TrackPointExtension>
        </extensions>
      </trkpt>
      <trkpt lat="45.28381459414958953857421875" lon="-71.11362411640584468841552734375">
        <ele>736.79998779296875</ele>
        <time>2026-08-22T00:43:09.000Z</time>
        <extensions>
          <ns3:TrackPointExtension>
            <ns3:hr>109</ns3:hr>
            <ns3:cad>0</ns3:cad>
          </ns3:TrackPointExtension>
        </extensions>
      </trkpt>
      <trkpt lat="45.28381048701703548431396484375" lon="-71.11363853327929973602294921875">
        <ele>737</ele>
        <time>2026-08-22T00:43:10.000Z</time>
        <extensions>
          <ns3:TrackPointExtension>
            <ns3:hr>110</ns3:hr>
            <ns3:cad>0</ns3:cad>
          </ns3:TrackPointExtension>
        </extensions>
      </trkpt>
      <trkpt lat="45.28381082229316234588623046875" lon="-71.1136421374976634979248046875">
        <ele>737.20001220703125</ele>
        <time>2026-08-22T00:43:11.000Z</time>
        <extensions>
          <ns3:TrackPointExtension>
            <ns3:hr>111</ns3:hr>
            <ns3:cad>0</ns3:cad>
          </ns3:TrackPointExtension>
        </extensions>
      </trkpt>
      <trkpt lat="45.2838085591793060302734375" lon="-71.11364825628697872161865234375">
        <ele>737.4000244140625</ele>
        <time>2026-08-22T00:43:12.000Z</time>
        <extensions>
          <ns3:TrackPointExtension>
            <ns3:hr>111</ns3:hr>
            <ns3:cad>0</ns3:cad>
          </ns3:TrackPointExtension>
        </extensions>
      </trkpt>
      <trkpt lat="45.28380210511386394500732421875" lon="-71.1136511899530887603759765625">
        <ele>737.5999755859375</ele>
        <time>2026-08-22T00:43:13.000Z</time>
        <extensions>
          <ns3:TrackPointExtension>
            <ns3:hr>112</ns3:hr>
            <ns3:cad>0</ns3:cad>
          </ns3:TrackPointExtension>
        </extensions>
      </trkpt>
      <trkpt lat="45.28379590250551700592041015625" lon="-71.11365378834307193756103515625">
        <ele>737.79998779296875</ele>
        <time>2026-08-22T00:43:14.000Z</time>
        <extensions>
          <ns3:TrackPointExtension>
            <ns3:hr>112</ns3:hr>
            <ns3:cad>0</ns3:cad>
          </ns3:TrackPointExtension>
        </extensions>
      </trkpt>
      <trkpt lat="45.2837849222123622894287109375" lon="-71.1136595718562602996826171875">
        <ele>737.79998779296875</ele>
        <time>2026-08-22T00:43:15.000Z</time>
        <extensions>
          <ns3:TrackPointExtension>
            <ns3:hr>112</ns3:hr>
            <ns3:cad>0</ns3:cad>
          </ns3:TrackPointExtension>
        </extensions>
      </trkpt>
      <trkpt lat="45.28377796523272991180419921875" lon="-71.11366384662687778472900390625">
        <ele>738</ele>
        <time>2026-08-22T00:43:16.000Z</time>
        <extensions>
          <ns3:TrackPointExtension>
            <ns3:hr>112</ns3:hr>
            <ns3:cad>0</ns3:cad>
          </ns3:TrackPointExtension>
        </extensions>
      </trkpt>
      <trkpt lat="45.28376807458698749542236328125" lon="-71.11366669647395610809326171875">
        <ele>738.20001220703125</ele>
        <time>2026-08-22T00:43:17.000Z</time>
        <extensions>
          <ns3:TrackPointExtension>
            <ns3:hr>111</ns3:hr>
            <ns3:cad>0</ns3:cad>
          </ns3:TrackPointExtension>
        </extensions>
      </trkpt>
      <trkpt lat="45.283754579722881317138671875" lon="-71.11366686411201953887939453125">
        <ele>738.4000244140625</ele>
        <time>2026-08-22T00:43:18.000Z</time>
        <extensions>
          <ns3:TrackPointExtension>
            <ns3:hr>111</ns3:hr>
            <ns3:cad>0</ns3:cad>
          </ns3:TrackPointExtension>
        </extensions>
      </trkpt>
      <trkpt lat="45.283744521439075469970703125" lon="-71.11366300843656063079833984375">
        <ele>738.4000244140625</ele>
        <time>2026-08-22T00:43:19.000Z</time>
        <extensions>
          <ns3:TrackPointExtension>
            <ns3:hr>112</ns3:hr>
            <ns3:cad>0</ns3:cad>
          </ns3:TrackPointExtension>
        </extensions>
      </trkpt>
      <trkpt lat="45.28373605571687221527099609375" lon="-71.1136578954756259918212890625">
        <ele>738.5999755859375</ele>
        <time>2026-08-22T00:43:20.000Z</time>
        <extensions>
          <ns3:TrackPointExtension>
            <ns3:hr>112</ns3:hr>
            <ns3:cad>0</ns3:cad>
          </ns3:TrackPointExtension>
        </extensions>
      </trkpt>
      <trkpt lat="45.2837285958230495452880859375" lon="-71.1136555485427379608154296875">
        <ele>738.5999755859375</ele>
        <time>2026-08-22T00:43:21.000Z</time>
        <extensions>
          <ns3:TrackPointExtension>
            <ns3:hr>114</ns3:hr>
            <ns3:cad>48</ns3:cad>
          </ns3:TrackPointExtension>
        </extensions>
      </trkpt>
      <trkpt lat="45.283721052110195159912109375" lon="-71.11365378834307193756103515625">
        <ele>738.79998779296875</ele>
        <time>2026-08-22T00:43:22.000Z</time>
        <extensions>
          <ns3:TrackPointExtension>
            <ns3:hr>116</ns3:hr>
            <ns3:cad>48</ns3:cad>
          </ns3:TrackPointExtension>
        </extensions>
      </trkpt>
      <trkpt lat="45.283713005483150482177734375" lon="-71.11364968121051788330078125">
        <ele>738.79998779296875</ele>
        <time>2026-08-22T00:43:23.000Z</time>
        <extensions>
          <ns3:TrackPointExtension>
            <ns3:hr>118</ns3:hr>
            <ns3:cad>48</ns3:cad>
          </ns3:TrackPointExtension>
        </extensions>
      </trkpt>
      <trkpt lat="45.2837081439793109893798828125" lon="-71.11364490352571010589599609375">
        <ele>739</ele>
        <time>2026-08-22T00:43:24.000Z</time>
        <extensions>
          <ns3:TrackPointExtension>
            <ns3:hr>119</ns3:hr>
            <ns3:cad>48</ns3:cad>
          </ns3:TrackPointExtension>
        </extensions>
      </trkpt>
      <trkpt lat="45.28370060026645660400390625" lon="-71.11363618634641170501708984375">
        <ele>739.20001220703125</ele>
        <time>2026-08-22T00:43:25.000Z</time>
        <extensions>
          <ns3:TrackPointExtension>
            <ns3:hr>120</ns3:hr>
            <ns3:cad>48</ns3:cad>
          </ns3:TrackPointExtension>
        </extensions>
      </trkpt>
      <trkpt lat="45.28369163163006305694580078125" lon="-71.11363132484257221221923828125">
        <ele>739.20001220703125</ele>
        <time>2026-08-22T00:43:26.000Z</time>
        <extensions>
          <ns3:TrackPointExtension>
            <ns3:hr>120</ns3:hr>
            <ns3:cad>48</ns3:cad>
          </ns3:TrackPointExtension>
        </extensions>
      </trkpt>
      <trkpt lat="45.28367905877530574798583984375" lon="-71.11362746916711330413818359375">
        <ele>739.20001220703125</ele>
        <time>2026-08-22T00:43:27.000Z</time>
        <extensions>
          <ns3:TrackPointExtension>
            <ns3:hr>121</ns3:hr>
            <ns3:cad>48</ns3:cad>
          </ns3:TrackPointExtension>
        </extensions>
      </trkpt>
      <trkpt lat="45.2836689166724681854248046875" lon="-71.11361674033105373382568359375">
        <ele>739.20001220703125</ele>
        <time>2026-08-22T00:43:28.000Z</time>
        <extensions>
          <ns3:TrackPointExtension>
            <ns3:hr>121</ns3:hr>
            <ns3:cad>48</ns3:cad>
          </ns3:TrackPointExtension>
        </extensions>
      </trkpt>
      <trkpt lat="45.2836581878364086151123046875" lon="-71.1136055923998355865478515625">
        <ele>739.20001220703125</ele>
        <time>2026-08-22T00:43:29.000Z</time>
        <extensions>
          <ns3:TrackPointExtension>
            <ns3:hr>122</ns3:hr>
            <ns3:cad>48</ns3:cad>
          </ns3:TrackPointExtension>
        </extensions>
      </trkpt>
      <trkpt lat="45.2836467884480953216552734375" lon="-71.11360450275242328643798828125">
        <ele>739</ele>
        <time>2026-08-22T00:43:30.000Z</time>
        <extensions>
          <ns3:TrackPointExtension>
            <ns3:hr>123</ns3:hr>
            <ns3:cad>48</ns3:cad>
          </ns3:TrackPointExtension>
        </extensions>
      </trkpt>
      <trkpt lat="45.28363647870719432830810546875" lon="-71.1136025749146938323974609375">
        <ele>739</ele>
        <time>2026-08-22T00:43:31.000Z</time>
        <extensions>
          <ns3:TrackPointExtension>
            <ns3:hr>123</ns3:hr>
            <ns3:cad>52</ns3:cad>
          </ns3:TrackPointExtension>
        </extensions>
      </trkpt>
      <trkpt lat="45.283624492585659027099609375" lon="-71.11359830014407634735107421875">
        <ele>739</ele>
        <time>2026-08-22T00:43:32.000Z</time>
        <extensions>
          <ns3:TrackPointExtension>
            <ns3:hr>123</ns3:hr>
            <ns3:cad>52</ns3:cad>
          </ns3:TrackPointExtension>
        </extensions>
      </trkpt>
      <trkpt lat="45.2836176194250583648681640625" lon="-71.1135915108025074005126953125">
        <ele>739</ele>
        <time>2026-08-22T00:43:33.000Z</time>
        <extensions>
          <ns3:TrackPointExtension>
            <ns3:hr>124</ns3:hr>
            <ns3:cad>52</ns3:cad>
          </ns3:TrackPointExtension>
        </extensions>
      </trkpt>
      <trkpt lat="45.2836099080741405487060546875" lon="-71.11358405090868473052978515625">
        <ele>739</ele>
        <time>2026-08-22T00:43:34.000Z</time>
        <extensions>
          <ns3:TrackPointExtension>
            <ns3:hr>125</ns3:hr>
            <ns3:cad>52</ns3:cad>
          </ns3:TrackPointExtension>
        </extensions>
      </trkpt>
      <trkpt lat="45.283603370189666748046875" lon="-71.1135760881006717681884765625">
        <ele>739</ele>
        <time>2026-08-22T00:43:35.000Z</time>
        <extensions>
          <ns3:TrackPointExtension>
            <ns3:hr>125</ns3:hr>
            <ns3:cad>55</ns3:cad>
          </ns3:TrackPointExtension>
        </extensions>
      </trkpt>
      <trkpt lat="45.2835995145142078399658203125" lon="-71.11356225796043872833251953125">
        <ele>739.20001220703125</ele>
        <time>2026-08-22T00:43:36.000Z</time>
        <extensions>
          <ns3:TrackPointExtension>
            <ns3:hr>125</ns3:hr>
            <ns3:cad>55</ns3:cad>
          </ns3:TrackPointExtension>
        </extensions>
      </trkpt>
      <trkpt lat="45.2835944853723049163818359375" lon="-71.113545410335063934326171875">
        <ele>739.20001220703125</ele>
        <time>2026-08-22T00:43:37.000Z</time>
        <extensions>
          <ns3:TrackPointExtension>
            <ns3:hr>126</ns3:hr>
            <ns3:cad>55</ns3:cad>
          </ns3:TrackPointExtension>
        </extensions>
      </trkpt>
      <trkpt lat="45.28359054587781429290771484375" lon="-71.1135351844131946563720703125">
        <ele>739.20001220703125</ele>
        <time>2026-08-22T00:43:38.000Z</time>
        <extensions>
          <ns3:TrackPointExtension>
            <ns3:hr>126</ns3:hr>
            <ns3:cad>55</ns3:cad>
          </ns3:TrackPointExtension>
        </extensions>
      </trkpt>
      <trkpt lat="45.283587276935577392578125" lon="-71.11352227628231048583984375">
        <ele>739.4000244140625</ele>
        <time>2026-08-22T00:43:39.000Z</time>
        <extensions>
          <ns3:TrackPointExtension>
            <ns3:hr>126</ns3:hr>
            <ns3:cad>55</ns3:cad>
          </ns3:TrackPointExtension>
        </extensions>
      </trkpt>
      <trkpt lat="45.28358400799334049224853515625" lon="-71.1135090328752994537353515625">
        <ele>739.4000244140625</ele>
        <time>2026-08-22T00:43:40.000Z</time>
        <extensions>
          <ns3:TrackPointExtension>
            <ns3:hr>126</ns3:hr>
            <ns3:cad>55</ns3:cad>
          </ns3:TrackPointExtension>
        </extensions>
      </trkpt>
      <trkpt lat="45.2835824154317378997802734375" lon="-71.11349545419216156005859375">
        <ele>739.4000244140625</ele>
        <time>2026-08-22T00:43:41.000Z</time>
        <extensions>
          <ns3:TrackPointExtension>
            <ns3:hr>126</ns3:hr>
            <ns3:cad>55</ns3:cad>
          </ns3:TrackPointExtension>
        </extensions>
      </trkpt>
      <trkpt lat="45.283576883375644683837890625" lon="-71.1134815402328968048095703125">
        <ele>739.4000244140625</ele>
        <time>2026-08-22T00:43:42.000Z</time>
        <extensions>
          <ns3:TrackPointExtension>
            <ns3:hr>127</ns3:hr>
            <ns3:cad>49</ns3:cad>
          </ns3:TrackPointExtension>
        </extensions>
      </trkpt>
      <trkpt lat="45.28356892056763172149658203125" lon="-71.11346787773072719573974609375">
        <ele>739.4000244140625</ele>
        <time>2026-08-22T00:43:43.000Z</time>
        <extensions>
          <ns3:TrackPointExtension>
            <ns3:hr>127</ns3:hr>
            <ns3:cad>0</ns3:cad>
          </ns3:TrackPointExtension>
        </extensions>
      </trkpt>
      <trkpt lat="45.28356338851153850555419921875" lon="-71.1134545505046844482421875">
        <ele>739.4000244140625</ele>
        <time>2026-08-22T00:43:44.000Z</time>
        <extensions>
          <ns3:TrackPointExtension>
            <ns3:hr>127</ns3:hr>
            <ns3:cad>0</ns3:cad>
          </ns3:TrackPointExtension>
        </extensions>
      </trkpt>
      <trkpt lat="45.283560119569301605224609375" lon="-71.11343636177480220794677734375">
        <ele>739.20001220703125</ele>
        <time>2026-08-22T00:43:45.000Z</time>
        <extensions>
          <ns3:TrackPointExtension>
            <ns3:hr>126</ns3:hr>
            <ns3:cad>0</ns3:cad>
          </ns3:TrackPointExtension>
        </extensions>
      </trkpt>
      <trkpt lat="45.28356137685477733612060546875" lon="-71.11341507174074649810791015625">
        <ele>739</ele>
        <time>2026-08-22T00:43:46.000Z</time>
        <extensions>
          <ns3:TrackPointExtension>
            <ns3:hr>127</ns3:hr>
            <ns3:cad>0</ns3:cad>
          </ns3:TrackPointExtension>
        </extensions>
      </trkpt>
      <trkpt lat="45.28355902992188930511474609375" lon="-71.11339428462088108062744140625">
        <ele>738.79998779296875</ele>
        <time>2026-08-22T00:43:47.000Z</time>
        <extensions>
          <ns3:TrackPointExtension>
            <ns3:hr>127</ns3:hr>
            <ns3:cad>0</ns3:cad>
          </ns3:TrackPointExtension>
        </extensions>
      </trkpt>
      <trkpt lat="45.283554084599018096923828125" lon="-71.113377772271633148193359375">
        <ele>738.5999755859375</ele>
        <time>2026-08-22T00:43:48.000Z</time>
        <extensions>
          <ns3:TrackPointExtension>
            <ns3:hr>127</ns3:hr>
            <ns3:cad>0</ns3:cad>
          </ns3:TrackPointExtension>
        </extensions>
      </trkpt>
      <trkpt lat="45.28354494832456111907958984375" lon="-71.1133561469614505767822265625">
        <ele>738.20001220703125</ele>
        <time>2026-08-22T00:43:49.000Z</time>
        <extensions>
          <ns3:TrackPointExtension>
            <ns3:hr>127</ns3:hr>
            <ns3:cad>0</ns3:cad>
          </ns3:TrackPointExtension>
        </extensions>
      </trkpt>
      <trkpt lat="45.28353489004075527191162109375" lon="-71.1133333481848239898681640625">
        <ele>738</ele>
        <time>2026-08-22T00:43:50.000Z</time>
        <extensions>
          <ns3:TrackPointExtension>
            <ns3:hr>127</ns3:hr>
            <ns3:cad>61</ns3:cad>
          </ns3:TrackPointExtension>
        </extensions>
      </trkpt>
      <trkpt lat="45.2835187129676342010498046875" lon="-71.113320104777812957763671875">
        <ele>737.79998779296875</ele>
        <time>2026-08-22T00:43:51.000Z</time>
        <extensions>
          <ns3:TrackPointExtension>
            <ns3:hr>127</ns3:hr>
            <ns3:cad>61</ns3:cad>
          </ns3:TrackPointExtension>
        </extensions>
      </trkpt>
      <trkpt lat="45.2835056371986865997314453125" lon="-71.11331432126462459564208984375">
        <ele>737.79998779296875</ele>
        <time>2026-08-22T00:43:52.000Z</time>
        <extensions>
          <ns3:TrackPointExtension>
            <ns3:hr>127</ns3:hr>
            <ns3:cad>61</ns3:cad>
          </ns3:TrackPointExtension>
        </extensions>
      </trkpt>
      <trkpt lat="45.2834920585155487060546875" lon="-71.11331440508365631103515625">
        <ele>737.79998779296875</ele>
        <time>2026-08-22T00:43:53.000Z</time>
        <extensions>
          <ns3:TrackPointExtension>
            <ns3:hr>127</ns3:hr>
            <ns3:cad>61</ns3:cad>
          </ns3:TrackPointExtension>
        </extensions>
      </trkpt>
      <trkpt lat="45.2834754623472690582275390625" lon="-71.11331482417881488800048828125">
        <ele>737.79998779296875</ele>
        <time>2026-08-22T00:43:54.000Z</time>
        <extensions>
          <ns3:TrackPointExtension>
            <ns3:hr>127</ns3:hr>
            <ns3:cad>61</ns3:cad>
          </ns3:TrackPointExtension>
        </extensions>
      </trkpt>
      <trkpt lat="45.283460877835750579833984375" lon="-71.11331549473106861114501953125">
        <ele>737.5999755859375</ele>
        <time>2026-08-22T00:43:55.000Z</time>
        <extensions>
          <ns3:TrackPointExtension>
            <ns3:hr>127</ns3:hr>
            <ns3:cad>61</ns3:cad>
          </ns3:TrackPointExtension>
        </extensions>
      </trkpt>
      <trkpt lat="45.2834422700107097625732421875" lon="-71.11331784166395664215087890625">
        <ele>737.4000244140625</ele>
        <time>2026-08-22T00:43:56.000Z</time>
        <extensions>
          <ns3:TrackPointExtension>
            <ns3:hr>127</ns3:hr>
            <ns3:cad>61</ns3:cad>
          </ns3:TrackPointExtension>
        </extensions>
      </trkpt>
      <trkpt lat="45.2834231592714786529541015625" lon="-71.11331834457814693450927734375">
        <ele>737</ele>
        <time>2026-08-22T00:43:57.000Z</time>
        <extensions>
          <ns3:TrackPointExtension>
            <ns3:hr>127</ns3:hr>
            <ns3:cad>0</ns3:cad>
          </ns3:TrackPointExtension>
        </extensions>
      </trkpt>
      <trkpt lat="45.28340513817965984344482421875" lon="-71.1133239604532718658447265625">
        <ele>736.4000244140625</ele>
        <time>2026-08-22T00:43:58.000Z</time>
        <extensions>
          <ns3:TrackPointExtension>
            <ns3:hr>126</ns3:hr>
            <ns3:cad>0</ns3:cad>
          </ns3:TrackPointExtension>
        </extensions>
      </trkpt>
      <trkpt lat="45.2833859436213970184326171875" lon="-71.11333326436579227447509765625">
        <ele>736</ele>
        <time>2026-08-22T00:43:59.000Z</time>
        <extensions>
          <ns3:TrackPointExtension>
            <ns3:hr>126</ns3:hr>
            <ns3:cad>0</ns3:cad>
          </ns3:TrackPointExtension>
        </extensions>
      </trkpt>
      <trkpt lat="45.28336825780570507049560546875" lon="-71.11334181390702724456787109375">
        <ele>735.4000244140625</ele>
        <time>2026-08-22T00:44:00.000Z</time>
        <extensions>
          <ns3:TrackPointExtension>
            <ns3:hr>126</ns3:hr>
            <ns3:cad>0</ns3:cad>
          </ns3:TrackPointExtension>
        </extensions>
      </trkpt>
      <trkpt lat="45.283360294997692108154296875" lon="-71.113346926867961883544921875">
        <ele>735</ele>
        <time>2026-08-22T00:44:01.000Z</time>
        <extensions>
          <ns3:TrackPointExtension>
            <ns3:hr>127</ns3:hr>
            <ns3:cad>0</ns3:cad>
          </ns3:TrackPointExtension>
        </extensions>
      </trkpt>
      <trkpt lat="45.283346213400363922119140625" lon="-71.1133487708866596221923828125">
        <ele>734.5999755859375</ele>
        <time>2026-08-22T00:44:02.000Z</time>
        <extensions>
          <ns3:TrackPointExtension>
            <ns3:hr>126</ns3:hr>
            <ns3:cad>0</ns3:cad>
          </ns3:TrackPointExtension>
        </extensions>
      </trkpt>
      <trkpt lat="45.2833339758217334747314453125" lon="-71.1133539676666259765625">
        <ele>734.20001220703125</ele>
        <time>2026-08-22T00:44:03.000Z</time>
        <extensions>
          <ns3:TrackPointExtension>
            <ns3:hr>126</ns3:hr>
            <ns3:cad>0</ns3:cad>
          </ns3:TrackPointExtension>
        </extensions>
      </trkpt>
      <trkpt lat="45.28332618065178394317626953125" lon="-71.1133625172078609466552734375">
        <ele>733.79998779296875</ele>
        <time>2026-08-22T00:44:04.000Z</time>
        <extensions>
          <ns3:TrackPointExtension>
            <ns3:hr>126</ns3:hr>
            <ns3:cad>75</ns3:cad>
          </ns3:TrackPointExtension>
        </extensions>
      </trkpt>
      <trkpt lat="45.2833141945302486419677734375" lon="-71.11337483860552310943603515625">
        <ele>733.5999755859375</ele>
        <time>2026-08-22T00:44:05.000Z</time>
        <extensions>
          <ns3:TrackPointExtension>
            <ns3:hr>125</ns3:hr>
            <ns3:cad>75</ns3:cad>
          </ns3:TrackPointExtension>
        </extensions>
      </trkpt>
      <trkpt lat="45.283307991921901702880859375" lon="-71.11338724382221698760986328125">
        <ele>733.20001220703125</ele>
        <time>2026-08-22T00:44:06.000Z</time>
        <extensions>
          <ns3:TrackPointExtension>
            <ns3:hr>125</ns3:hr>
            <ns3:cad>0</ns3:cad>
          </ns3:TrackPointExtension>
        </extensions>
      </trkpt>
      <trkpt lat="45.2832994423806667327880859375" lon="-71.11339830793440341949462890625">
        <ele>733</ele>
        <time>2026-08-22T00:44:07.000Z</time>
        <extensions>
          <ns3:TrackPointExtension>
            <ns3:hr>125</ns3:hr>
            <ns3:cad>0</ns3:cad>
          </ns3:TrackPointExtension>
        </extensions>
      </trkpt>
      <trkpt lat="45.283285193145275115966796875" lon="-71.11341272480785846710205078125">
        <ele>732.5999755859375</ele>
        <time>2026-08-22T00:44:08.000Z</time>
        <extensions>
          <ns3:TrackPointExtension>
            <ns3:hr>125</ns3:hr>
            <ns3:cad>0</ns3:cad>
          </ns3:TrackPointExtension>
        </extensions>
      </trkpt>
      <trkpt lat="45.283275805413722991943359375" lon="-71.1134329251945018768310546875">
        <ele>732.4000244140625</ele>
        <time>2026-08-22T00:44:09.000Z</time>
        <extensions>
          <ns3:TrackPointExtension>
            <ns3:hr>125</ns3:hr>
            <ns3:cad>0</ns3:cad>
          </ns3:TrackPointExtension>
        </extensions>
      </trkpt>
      <trkpt lat="45.28327421285212039947509765625" lon="-71.113458238542079925537109375">
        <ele>732</ele>
        <time>2026-08-22T00:44:10.000Z</time>
        <extensions>
          <ns3:TrackPointExtension>
            <ns3:hr>124</ns3:hr>
            <ns3:cad>0</ns3:cad>
          </ns3:TrackPointExtension>
        </extensions>
      </trkpt>
      <trkpt lat="45.2832712791860103607177734375" lon="-71.1134758405387401580810546875">
        <ele>731.5999755859375</ele>
        <time>2026-08-22T00:44:11.000Z</time>
        <extensions>
          <ns3:TrackPointExtension>
            <ns3:hr>123</ns3:hr>
            <ns3:cad>0</ns3:cad>
          </ns3:TrackPointExtension>
        </extensions>
      </trkpt>
      <trkpt lat="45.28325996361672878265380859375" lon="-71.11349168233573436737060546875">
        <ele>731.20001220703125</ele>
        <time>2026-08-22T00:44:12.000Z</time>
        <extensions>
          <ns3:TrackPointExtension>
            <ns3:hr>121</ns3:hr>
            <ns3:cad>0</ns3:cad>
          </ns3:TrackPointExtension>
        </extensions>
      </trkpt>
      <trkpt lat="45.28325241990387439727783203125" lon="-71.11350894905626773834228515625">
        <ele>731</ele>
        <time>2026-08-22T00:44:13.000Z</time>
        <extensions>
          <ns3:TrackPointExtension>
            <ns3:hr>119</ns3:hr>
            <ns3:cad>0</ns3:cad>
          </ns3:TrackPointExtension>
        </extensions>
      </trkpt>
      <trkpt lat="45.283243954181671142578125" lon="-71.11353325657546520233154296875">
        <ele>730.5999755859375</ele>
        <time>2026-08-22T00:44:14.000Z</time>
        <extensions>
          <ns3:TrackPointExtension>
            <ns3:hr>118</ns3:hr>
            <ns3:cad>0</ns3:cad>
          </ns3:TrackPointExtension>
        </extensions>
      </trkpt>
      <trkpt lat="45.28324034996330738067626953125" lon="-71.113549768924713134765625">
        <ele>730.20001220703125</ele>
        <time>2026-08-22T00:44:15.000Z</time>
        <extensions>
          <ns3:TrackPointExtension>
            <ns3:hr>118</ns3:hr>
            <ns3:cad>0</ns3:cad>
          </ns3:TrackPointExtension>
        </extensions>
      </trkpt>
      <trkpt lat="45.28323548845946788787841796875" lon="-71.11357717774808406829833984375">
        <ele>730</ele>
        <time>2026-08-22T00:44:16.000Z</time>
        <extensions>
          <ns3:TrackPointExtension>
            <ns3:hr>118</ns3:hr>
            <ns3:cad>79</ns3:cad>
          </ns3:TrackPointExtension>
        </extensions>
      </trkpt>
      <trkpt lat="45.28323213569819927215576171875" lon="-71.1136022396385669708251953125">
        <ele>729.5999755859375</ele>
        <time>2026-08-22T00:44:17.000Z</time>
        <extensions>
          <ns3:TrackPointExtension>
            <ns3:hr>118</ns3:hr>
            <ns3:cad>79</ns3:cad>
          </ns3:TrackPointExtension>
        </extensions>
      </trkpt>
      <trkpt lat="45.2832317166030406951904296875" lon="-71.11362528987228870391845703125">
        <ele>729.20001220703125</ele>
        <time>2026-08-22T00:44:18.000Z</time>
        <extensions>
          <ns3:TrackPointExtension>
            <ns3:hr>118</ns3:hr>
            <ns3:cad>79</ns3:cad>
          </ns3:TrackPointExtension>
        </extensions>
      </trkpt>
      <trkpt lat="45.28324034996330738067626953125" lon="-71.1136401258409023284912109375">
        <ele>729.20001220703125</ele>
        <time>2026-08-22T00:44:19.000Z</time>
        <extensions>
          <ns3:TrackPointExtension>
            <ns3:hr>118</ns3:hr>
            <ns3:cad>79</ns3:cad>
          </ns3:TrackPointExtension>
        </extensions>
      </trkpt>
      <trkpt lat="45.28324051760137081146240234375" lon="-71.11365772783756256103515625">
        <ele>729</ele>
        <time>2026-08-22T00:44:20.000Z</time>
        <extensions>
          <ns3:TrackPointExtension>
            <ns3:hr>118</ns3:hr>
            <ns3:cad>79</ns3:cad>
          </ns3:TrackPointExtension>
        </extensions>
      </trkpt>
      <trkpt lat="45.28324487619102001190185546875" lon="-71.11367373727262020111083984375">
        <ele>728.79998779296875</ele>
        <time>2026-08-22T00:44:21.000Z</time>
        <extensions>
          <ns3:TrackPointExtension>
            <ns3:hr>119</ns3:hr>
            <ns3:cad>79</ns3:cad>
          </ns3:TrackPointExtension>
        </extensions>
      </trkpt>
      <trkpt lat="45.28325275518000125885009765625" lon="-71.11368882469832897186279296875">
        <ele>728.79998779296875</ele>
        <time>2026-08-22T00:44:22.000Z</time>
        <extensions>
          <ns3:TrackPointExtension>
            <ns3:hr>119</ns3:hr>
            <ns3:cad>79</ns3:cad>
          </ns3:TrackPointExtension>
        </extensions>
      </trkpt>
      <trkpt lat="45.28325946070253849029541015625" lon="-71.11370466649532318115234375">
        <ele>728.5999755859375</ele>
        <time>2026-08-22T00:44:23.000Z</time>
        <extensions>
          <ns3:TrackPointExtension>
            <ns3:hr>119</ns3:hr>
            <ns3:cad>79</ns3:cad>
          </ns3:TrackPointExtension>
        </extensions>
      </trkpt>
      <trkpt lat="45.28326633386313915252685546875" lon="-71.11371799372136592864990234375">
        <ele>728.4000244140625</ele>
        <time>2026-08-22T00:44:24.000Z</time>
        <extensions>
          <ns3:TrackPointExtension>
            <ns3:hr>119</ns3:hr>
            <ns3:cad>0</ns3:cad>
          </ns3:TrackPointExtension>
        </extensions>
      </trkpt>
      <trkpt lat="45.2832712791860103607177734375" lon="-71.11373073421418666839599609375">
        <ele>728.20001220703125</ele>
        <time>2026-08-22T00:44:25.000Z</time>
        <extensions>
          <ns3:TrackPointExtension>
            <ns3:hr>118</ns3:hr>
            <ns3:cad>0</ns3:cad>
          </ns3:TrackPointExtension>
        </extensions>
      </trkpt>
      <trkpt lat="45.28327086009085178375244140625" lon="-71.11374112777411937713623046875">
        <ele>728</ele>
        <time>2026-08-22T00:44:26.000Z</time>
        <extensions>
          <ns3:TrackPointExtension>
            <ns3:hr>118</ns3:hr>
            <ns3:cad>57</ns3:cad>
          </ns3:TrackPointExtension>
        </extensions>
      </trkpt>
      <trkpt lat="45.2832729555666446685791015625" lon="-71.11375487409532070159912109375">
        <ele>727.79998779296875</ele>
        <time>2026-08-22T00:44:27.000Z</time>
        <extensions>
          <ns3:TrackPointExtension>
            <ns3:hr>117</ns3:hr>
            <ns3:cad>57</ns3:cad>
          </ns3:TrackPointExtension>
        </extensions>
      </trkpt>
      <trkpt lat="45.283273123204708099365234375" lon="-71.11376308836042881011962890625">
        <ele>727.5999755859375</ele>
        <time>2026-08-22T00:44:28.000Z</time>
        <extensions>
          <ns3:TrackPointExtension>
            <ns3:hr>116</ns3:hr>
            <ns3:cad>57</ns3:cad>
          </ns3:TrackPointExtension>
        </extensions>
      </trkpt>
      <trkpt lat="45.2832699380815029144287109375" lon="-71.1137785948812961578369140625">
        <ele>727.4000244140625</ele>
        <time>2026-08-22T00:44:29.000Z</time>
        <extensions>
          <ns3:TrackPointExtension>
            <ns3:hr>115</ns3:hr>
            <ns3:cad>57</ns3:cad>
          </ns3:TrackPointExtension>
        </extensions>
      </trkpt>
      <trkpt lat="45.28327144682407379150390625" lon="-71.11378840170800685882568359375">
        <ele>727.20001220703125</ele>
        <time>2026-08-22T00:44:30.000Z</time>
        <extensions>
          <ns3:TrackPointExtension>
            <ns3:hr>115</ns3:hr>
            <ns3:cad>57</ns3:cad>
          </ns3:TrackPointExtension>
        </extensions>
      </trkpt>
      <trkpt lat="45.2832749672234058380126953125" lon="-71.1138045787811279296875">
        <ele>726.79998779296875</ele>
        <time>2026-08-22T00:44:31.000Z</time>
        <extensions>
          <ns3:TrackPointExtension>
            <ns3:hr>115</ns3:hr>
            <ns3:cad>57</ns3:cad>
          </ns3:TrackPointExtension>
        </extensions>
      </trkpt>
      <trkpt lat="45.283279158174991607666015625" lon="-71.11381505616009235382080078125">
        <ele>726.5999755859375</ele>
        <time>2026-08-22T00:44:32.000Z</time>
        <extensions>
          <ns3:TrackPointExtension>
            <ns3:hr>114</ns3:hr>
            <ns3:cad>57</ns3:cad>
          </ns3:TrackPointExtension>
        </extensions>
      </trkpt>
      <trkpt lat="45.28328225947916507720947265625" lon="-71.11382695846259593963623046875">
        <ele>726.20001220703125</ele>
        <time>2026-08-22T00:44:33.000Z</time>
        <extensions>
          <ns3:TrackPointExtension>
            <ns3:hr>114</ns3:hr>
            <ns3:cad>58</ns3:cad>
          </ns3:TrackPointExtension>
        </extensions>
      </trkpt>
      <trkpt lat="45.28328376822173595428466796875" lon="-71.11384422518312931060791015625">
        <ele>726</ele>
        <time>2026-08-22T00:44:34.000Z</time>
        <extensions>
          <ns3:TrackPointExtension>
            <ns3:hr>114</ns3:hr>
            <ns3:cad>58</ns3:cad>
          </ns3:TrackPointExtension>
        </extensions>
      </trkpt>
      <trkpt lat="45.28328125365078449249267578125" lon="-71.1138483323156833648681640625">
        <ele>725.79998779296875</ele>
        <time>2026-08-22T00:44:35.000Z</time>
        <extensions>
          <ns3:TrackPointExtension>
            <ns3:hr>114</ns3:hr>
            <ns3:cad>58</ns3:cad>
          </ns3:TrackPointExtension>
        </extensions>
      </trkpt>
      <trkpt lat="45.28327739797532558441162109375" lon="-71.11385755240917205810546875">
        <ele>725.5999755859375</ele>
        <time>2026-08-22T00:44:36.000Z</time>
        <extensions>
          <ns3:TrackPointExtension>
            <ns3:hr>114</ns3:hr>
            <ns3:cad>0</ns3:cad>
          </ns3:TrackPointExtension>
        </extensions>
      </trkpt>
      <trkpt lat="45.28327337466180324554443359375" lon="-71.11386962234973907470703125">
        <ele>725.20001220703125</ele>
        <time>2026-08-22T00:44:37.000Z</time>
        <extensions>
          <ns3:TrackPointExtension>
            <ns3:hr>113</ns3:hr>
            <ns3:cad>0</ns3:cad>
          </ns3:TrackPointExtension>
        </extensions>
      </trkpt>
      <trkpt lat="45.2832692675292491912841796875" lon="-71.11388362012803554534912109375">
        <ele>725</ele>
        <time>2026-08-22T00:44:38.000Z</time>
        <extensions>
          <ns3:TrackPointExtension>
            <ns3:hr>113</ns3:hr>
            <ns3:cad>0</ns3:cad>
          </ns3:TrackPointExtension>
        </extensions>
      </trkpt>
      <trkpt lat="45.2832659147679805755615234375" lon="-71.11390046775341033935546875">
        <ele>724.79998779296875</ele>
        <time>2026-08-22T00:44:39.000Z</time>
        <extensions>
          <ns3:TrackPointExtension>
            <ns3:hr>113</ns3:hr>
            <ns3:cad>0</ns3:cad>
          </ns3:TrackPointExtension>
        </extensions>
      </trkpt>
      <trkpt lat="45.28326532803475856781005859375" lon="-71.113916225731372833251953125">
        <ele>724.5999755859375</ele>
        <time>2026-08-22T00:44:40.000Z</time>
        <extensions>
          <ns3:TrackPointExtension>
            <ns3:hr>114</ns3:hr>
            <ns3:cad>0</ns3:cad>
          </ns3:TrackPointExtension>
        </extensions>
      </trkpt>
      <trkpt lat="45.28326616622507572174072265625" lon="-71.11393131315708160400390625">
        <ele>724.20001220703125</ele>
        <time>2026-08-22T00:44:41.000Z</time>
        <extensions>
          <ns3:TrackPointExtension>
            <ns3:hr>114</ns3:hr>
            <ns3:cad>0</ns3:cad>
          </ns3:TrackPointExtension>
        </extensions>
      </trkpt>
      <trkpt lat="45.28326717205345630645751953125" lon="-71.113951094448566436767578125">
        <ele>724</ele>
        <time>2026-08-22T00:44:42.000Z</time>
        <extensions>
          <ns3:TrackPointExtension>
            <ns3:hr>114</ns3:hr>
            <ns3:cad>0</ns3:cad>
          </ns3:TrackPointExtension>
        </extensions>
      </trkpt>
      <trkpt lat="45.28326817788183689117431640625" lon="-71.11396618187427520751953125">
        <ele>723.79998779296875</ele>
        <time>2026-08-22T00:44:43.000Z</time>
        <extensions>
          <ns3:TrackPointExtension>
            <ns3:hr>113</ns3:hr>
            <ns3:cad>0</ns3:cad>
          </ns3:TrackPointExtension>
        </extensions>
      </trkpt>
      <trkpt lat="45.28326700441539287567138671875" lon="-71.11398051492869853973388671875">
        <ele>723.4000244140625</ele>
        <time>2026-08-22T00:44:44.000Z</time>
        <extensions>
          <ns3:TrackPointExtension>
            <ns3:hr>113</ns3:hr>
            <ns3:cad>0</ns3:cad>
          </ns3:TrackPointExtension>
        </extensions>
      </trkpt>
      <trkpt lat="45.28326532803475856781005859375" lon="-71.113997362554073333740234375">
        <ele>723.20001220703125</ele>
        <time>2026-08-22T00:44:45.000Z</time>
        <extensions>
          <ns3:TrackPointExtension>
            <ns3:hr>113</ns3:hr>
            <ns3:cad>0</ns3:cad>
          </ns3:TrackPointExtension>
        </extensions>
      </trkpt>
      <trkpt lat="45.283265411853790283203125" lon="-71.11401353962719440460205078125">
        <ele>722.79998779296875</ele>
        <time>2026-08-22T00:44:46.000Z</time>
        <extensions>
          <ns3:TrackPointExtension>
            <ns3:hr>113</ns3:hr>
            <ns3:cad>0</ns3:cad>
          </ns3:TrackPointExtension>
        </extensions>
      </trkpt>
      <trkpt lat="45.28326616622507572174072265625" lon="-71.11402929760515689849853515625">
        <ele>722.5999755859375</ele>
        <time>2026-08-22T00:44:47.000Z</time>
        <extensions>
          <ns3:TrackPointExtension>
            <ns3:hr>113</ns3:hr>
            <ns3:cad>0</ns3:cad>
          </ns3:TrackPointExtension>
        </extensions>
      </trkpt>
      <trkpt lat="45.28326683677732944488525390625" lon="-71.11404170282185077667236328125">
        <ele>722.4000244140625</ele>
        <time>2026-08-22T00:44:48.000Z</time>
        <extensions>
          <ns3:TrackPointExtension>
            <ns3:hr>113</ns3:hr>
            <ns3:cad>0</ns3:cad>
          </ns3:TrackPointExtension>
        </extensions>
      </trkpt>
      <trkpt lat="45.283266417682170867919921875" lon="-71.11405494622886180877685546875">
        <ele>722.20001220703125</ele>
        <time>2026-08-22T00:44:49.000Z</time>
        <extensions>
          <ns3:TrackPointExtension>
            <ns3:hr>112</ns3:hr>
            <ns3:cad>0</ns3:cad>
          </ns3:TrackPointExtension>
        </extensions>
      </trkpt>
      <trkpt lat="45.28325811959803104400634765625" lon="-71.11406751908361911773681640625">
        <ele>722</ele>
        <time>2026-08-22T00:44:50.000Z</time>
        <extensions>
          <ns3:TrackPointExtension>
            <ns3:hr>112</ns3:hr>
            <ns3:cad>0</ns3:cad>
          </ns3:TrackPointExtension>
        </extensions>
      </trkpt>
      <trkpt lat="45.28325225226581096649169921875" lon="-71.1140786670148372650146484375">
        <ele>721.79998779296875</ele>
        <time>2026-08-22T00:44:51.000Z</time>
        <extensions>
          <ns3:TrackPointExtension>
            <ns3:hr>112</ns3:hr>
            <ns3:cad>0</ns3:cad>
          </ns3:TrackPointExtension>
        </extensions>
      </trkpt>
      <trkpt lat="45.28324152342975139617919921875" lon="-71.114096604287624359130859375">
        <ele>721.5999755859375</ele>
        <time>2026-08-22T00:44:52.000Z</time>
        <extensions>
          <ns3:TrackPointExtension>
            <ns3:hr>113</ns3:hr>
            <ns3:cad>0</ns3:cad>
          </ns3:TrackPointExtension>
        </extensions>
      </trkpt>
      <trkpt lat="45.283239595592021942138671875" lon="-71.11411462537944316864013671875">
        <ele>721.4000244140625</ele>
        <time>2026-08-22T00:44:53.000Z</time>
        <extensions>
          <ns3:TrackPointExtension>
            <ns3:hr>113</ns3:hr>
            <ns3:cad>0</ns3:cad>
          </ns3:TrackPointExtension>
        </extensions>
      </trkpt>
      <trkpt lat="45.28324060142040252685546875" lon="-71.11413876526057720184326171875">
        <ele>721.20001220703125</ele>
        <time>2026-08-22T00:44:54.000Z</time>
        <extensions>
          <ns3:TrackPointExtension>
            <ns3:hr>113</ns3:hr>
            <ns3:cad>0</ns3:cad>
          </ns3:TrackPointExtension>
        </extensions>
      </trkpt>
      <trkpt lat="45.2832407690584659576416015625" lon="-71.114154942333698272705078125">
        <ele>721</ele>
        <time>2026-08-22T00:44:55.000Z</time>
        <extensions>
          <ns3:TrackPointExtension>
            <ns3:hr>112</ns3:hr>
            <ns3:cad>0</ns3:cad>
          </ns3:TrackPointExtension>
        </extensions>
      </trkpt>
      <trkpt lat="45.28324194252490997314453125" lon="-71.1141779087483882904052734375">
        <ele>720.79998779296875</ele>
        <time>2026-08-22T00:44:56.000Z</time>
        <extensions>
          <ns3:TrackPointExtension>
            <ns3:hr>111</ns3:hr>
            <ns3:cad>0</ns3:cad>
          </ns3:TrackPointExtension>
        </extensions>
      </trkpt>
      <trkpt lat="45.28324118815362453460693359375" lon="-71.11420917324721813201904296875">
        <ele>720.79998779296875</ele>
        <time>2026-08-22T00:44:57.000Z</time>
        <extensions>
          <ns3:TrackPointExtension>
            <ns3:hr>110</ns3:hr>
            <ns3:cad>0</ns3:cad>
          </ns3:TrackPointExtension>
        </extensions>
      </trkpt>
      <trkpt lat="45.283240266144275665283203125" lon="-71.1142362467944622039794921875">
        <ele>720.5999755859375</ele>
        <time>2026-08-22T00:44:58.000Z</time>
        <extensions>
          <ns3:TrackPointExtension>
            <ns3:hr>110</ns3:hr>
            <ns3:cad>0</ns3:cad>
          </ns3:TrackPointExtension>
        </extensions>
      </trkpt>
      <trkpt lat="45.28324755840003490447998046875" lon="-71.11426181159913539886474609375">
        <ele>720.4000244140625</ele>
        <time>2026-08-22T00:44:59.000Z</time>
        <extensions>
          <ns3:TrackPointExtension>
            <ns3:hr>110</ns3:hr>
            <ns3:cad>0</ns3:cad>
          </ns3:TrackPointExtension>
        </extensions>
      </trkpt>
      <trkpt lat="45.28325426392257213592529296875" lon="-71.114275641739368438720703125">
        <ele>720.20001220703125</ele>
        <time>2026-08-22T00:45:00.000Z</time>
        <extensions>
          <ns3:TrackPointExtension>
            <ns3:hr>109</ns3:hr>
            <ns3:cad>0</ns3:cad>
          </ns3:TrackPointExtension>
        </extensions>
      </trkpt>
      <trkpt lat="45.2832602150738239288330078125" lon="-71.1142912320792675018310546875">
        <ele>720</ele>
        <time>2026-08-22T00:45:01.000Z</time>
        <extensions>
          <ns3:TrackPointExtension>
            <ns3:hr>110</ns3:hr>
            <ns3:cad>0</ns3:cad>
          </ns3:TrackPointExtension>
        </extensions>
      </trkpt>
      <trkpt lat="45.28326381929218769073486328125" lon="-71.11431361176073551177978515625">
        <ele>719.79998779296875</ele>
        <time>2026-08-22T00:45:02.000Z</time>
        <extensions>
          <ns3:TrackPointExtension>
            <ns3:hr>110</ns3:hr>
            <ns3:cad>63</ns3:cad>
          </ns3:TrackPointExtension>
        </extensions>
      </trkpt>
      <trkpt lat="45.283269099891185760498046875" lon="-71.11433389596641063690185546875">
        <ele>719.4000244140625</ele>
        <time>2026-08-22T00:45:03.000Z</time>
        <extensions>
          <ns3:TrackPointExtension>
            <ns3:hr>111</ns3:hr>
            <ns3:cad>63</ns3:cad>
          </ns3:TrackPointExtension>
        </extensions>
      </trkpt>
      <trkpt lat="45.2832729555666446685791015625" lon="-71.11434898339211940765380859375">
        <ele>719.20001220703125</ele>
        <time>2026-08-22T00:45:04.000Z</time>
        <extensions>
          <ns3:TrackPointExtension>
            <ns3:hr>111</ns3:hr>
            <ns3:cad>63</ns3:cad>
          </ns3:TrackPointExtension>
        </extensions>
      </trkpt>
      <trkpt lat="45.28327681124210357666015625" lon="-71.1143576167523860931396484375">
        <ele>719</ele>
        <time>2026-08-22T00:45:05.000Z</time>
        <extensions>
          <ns3:TrackPointExtension>
            <ns3:hr>110</ns3:hr>
            <ns3:cad>63</ns3:cad>
          </ns3:TrackPointExtension>
        </extensions>
      </trkpt>
      <trkpt lat="45.28328008018434047698974609375" lon="-71.11436717212200164794921875">
        <ele>718.79998779296875</ele>
        <time>2026-08-22T00:45:06.000Z</time>
        <extensions>
          <ns3:TrackPointExtension>
            <ns3:hr>110</ns3:hr>
            <ns3:cad>71</ns3:cad>
          </ns3:TrackPointExtension>
        </extensions>
      </trkpt>
      <trkpt lat="45.2832813374698162078857421875" lon="-71.11437655985355377197265625">
        <ele>718.79998779296875</ele>
        <time>2026-08-22T00:45:07.000Z</time>
        <extensions>
          <ns3:TrackPointExtension>
            <ns3:hr>110</ns3:hr>
            <ns3:cad>71</ns3:cad>
          </ns3:TrackPointExtension>
        </extensions>
      </trkpt>
      <trkpt lat="45.28328225947916507720947265625" lon="-71.11438686959445476531982421875">
        <ele>718.79998779296875</ele>
        <time>2026-08-22T00:45:08.000Z</time>
        <extensions>
          <ns3:TrackPointExtension>
            <ns3:hr>110</ns3:hr>
            <ns3:cad>71</ns3:cad>
          </ns3:TrackPointExtension>
        </extensions>
      </trkpt>
      <trkpt lat="45.28328343294560909271240234375" lon="-71.1144005320966243743896484375">
        <ele>718.79998779296875</ele>
        <time>2026-08-22T00:45:09.000Z</time>
        <extensions>
          <ns3:TrackPointExtension>
            <ns3:hr>110</ns3:hr>
            <ns3:cad>71</ns3:cad>
          </ns3:TrackPointExtension>
        </extensions>
      </trkpt>
      <trkpt lat="45.28328108601272106170654296875" lon="-71.11440799199044704437255859375">
        <ele>718.5999755859375</ele>
        <time>2026-08-22T00:45:10.000Z</time>
        <extensions>
          <ns3:TrackPointExtension>
            <ns3:hr>110</ns3:hr>
            <ns3:cad>71</ns3:cad>
          </ns3:TrackPointExtension>
        </extensions>
      </trkpt>
      <trkpt lat="45.2832806669175624847412109375" lon="-71.11441235058009624481201171875">
        <ele>718.5999755859375</ele>
        <time>2026-08-22T00:45:11.000Z</time>
        <extensions>
          <ns3:TrackPointExtension>
            <ns3:hr>109</ns3:hr>
            <ns3:cad>71</ns3:cad>
          </ns3:TrackPointExtension>
        </extensions>
      </trkpt>
      <trkpt lat="45.28328058309853076934814453125" lon="-71.1144152842462062835693359375">
        <ele>718.5999755859375</ele>
        <time>2026-08-22T00:45:12.000Z</time>
        <extensions>
          <ns3:TrackPointExtension>
            <ns3:hr>108</ns3:hr>
            <ns3:cad>71</ns3:cad>
          </ns3:TrackPointExtension>
        </extensions>
      </trkpt>
      <trkpt lat="45.2832806669175624847412109375" lon="-71.11442576162517070770263671875">
        <ele>718.5999755859375</ele>
        <time>2026-08-22T00:45:13.000Z</time>
        <extensions>
          <ns3:TrackPointExtension>
            <ns3:hr>108</ns3:hr>
            <ns3:cad>0</ns3:cad>
          </ns3:TrackPointExtension>
        </extensions>
      </trkpt>
      <trkpt lat="45.283283852040767669677734375" lon="-71.1144300363957881927490234375">
        <ele>718.5999755859375</ele>
        <time>2026-08-22T00:45:14.000Z</time>
        <extensions>
          <ns3:TrackPointExtension>
            <ns3:hr>108</ns3:hr>
            <ns3:cad>0</ns3:cad>
          </ns3:TrackPointExtension>
        </extensions>
      </trkpt>
      <trkpt lat="45.28328494168817996978759765625" lon="-71.1144343949854373931884765625">
        <ele>718.5999755859375</ele>
        <time>2026-08-22T00:45:15.000Z</time>
        <extensions>
          <ns3:TrackPointExtension>
            <ns3:hr>107</ns3:hr>
            <ns3:cad>0</ns3:cad>
          </ns3:TrackPointExtension>
        </extensions>
      </trkpt>
      <trkpt lat="45.28328108601272106170654296875" lon="-71.11443079076707363128662109375">
        <ele>718.5999755859375</ele>
        <time>2026-08-22T00:45:16.000Z</time>
        <extensions>
          <ns3:TrackPointExtension>
            <ns3:hr>107</ns3:hr>
            <ns3:cad>0</ns3:cad>
          </ns3:TrackPointExtension>
        </extensions>
      </trkpt>
      <trkpt lat="45.2832799963653087615966796875" lon="-71.11442810855805873870849609375">
        <ele>718.4000244140625</ele>
        <time>2026-08-22T00:45:17.000Z</time>
        <extensions>
          <ns3:TrackPointExtension>
            <ns3:hr>107</ns3:hr>
            <ns3:cad>0</ns3:cad>
          </ns3:TrackPointExtension>
        </extensions>
      </trkpt>
      <trkpt lat="45.2832769788801670074462890625" lon="-71.114421151578426361083984375">
        <ele>718.4000244140625</ele>
        <time>2026-08-22T00:45:18.000Z</time>
        <extensions>
          <ns3:TrackPointExtension>
            <ns3:hr>107</ns3:hr>
            <ns3:cad>0</ns3:cad>
          </ns3:TrackPointExtension>
        </extensions>
      </trkpt>
      <trkpt lat="45.28327655978500843048095703125" lon="-71.1144266836345195770263671875">
        <ele>718.4000244140625</ele>
        <time>2026-08-22T00:45:19.000Z</time>
        <extensions>
          <ns3:TrackPointExtension>
            <ns3:hr>107</ns3:hr>
            <ns3:cad>0</ns3:cad>
          </ns3:TrackPointExtension>
        </extensions>
      </trkpt>
      <trkpt lat="45.28327471576631069183349609375" lon="-71.1144280247390270233154296875">
        <ele>718.4000244140625</ele>
        <time>2026-08-22T00:45:20.000Z</time>
        <extensions>
          <ns3:TrackPointExtension>
            <ns3:hr>107</ns3:hr>
            <ns3:cad>0</ns3:cad>
          </ns3:TrackPointExtension>
        </extensions>
      </trkpt>
      <trkpt lat="45.28327153064310550689697265625" lon="-71.11443179659545421600341796875">
        <ele>718.20001220703125</ele>
        <time>2026-08-22T00:45:21.000Z</time>
        <extensions>
          <ns3:TrackPointExtension>
            <ns3:hr>107</ns3:hr>
            <ns3:cad>0</ns3:cad>
          </ns3:TrackPointExtension>
        </extensions>
      </trkpt>
      <trkpt lat="45.28326482512056827545166015625" lon="-71.11443422734737396240234375">
        <ele>718</ele>
        <time>2026-08-22T00:45:22.000Z</time>
        <extensions>
          <ns3:TrackPointExtension>
            <ns3:hr>108</ns3:hr>
            <ns3:cad>0</ns3:cad>
          </ns3:TrackPointExtension>
        </extensions>
      </trkpt>
      <trkpt lat="45.28325711376965045928955078125" lon="-71.11443565227091312408447265625">
        <ele>717.79998779296875</ele>
        <time>2026-08-22T00:45:23.000Z</time>
        <extensions>
          <ns3:TrackPointExtension>
            <ns3:hr>107</ns3:hr>
            <ns3:cad>0</ns3:cad>
          </ns3:TrackPointExtension>
        </extensions>
      </trkpt>
      <trkpt lat="45.28325275518000125885009765625" lon="-71.11444151960313320159912109375">
        <ele>717.5999755859375</ele>
        <time>2026-08-22T00:45:24.000Z</time>
        <extensions>
          <ns3:TrackPointExtension>
            <ns3:hr>107</ns3:hr>
            <ns3:cad>0</ns3:cad>
          </ns3:TrackPointExtension>
        </extensions>
      </trkpt>
      <trkpt lat="45.28325174935162067413330078125" lon="-71.11444353125989437103271484375">
        <ele>717.4000244140625</ele>
        <time>2026-08-22T00:45:25.000Z</time>
        <extensions>
          <ns3:TrackPointExtension>
            <ns3:hr>106</ns3:hr>
            <ns3:cad>0</ns3:cad>
          </ns3:TrackPointExtension>
        </extensions>
      </trkpt>
      <trkpt lat="45.2832494862377643585205078125" lon="-71.11444319598376750946044921875">
        <ele>717.20001220703125</ele>
        <time>2026-08-22T00:45:26.000Z</time>
        <extensions>
          <ns3:TrackPointExtension>
            <ns3:hr>105</ns3:hr>
            <ns3:cad>0</ns3:cad>
          </ns3:TrackPointExtension>
        </extensions>
      </trkpt>
      <trkpt lat="45.28324437327682971954345703125" lon="-71.11444353125989437103271484375">
        <ele>717.20001220703125</ele>
        <time>2026-08-22T00:45:27.000Z</time>
        <extensions>
          <ns3:TrackPointExtension>
            <ns3:hr>104</ns3:hr>
            <ns3:cad>0</ns3:cad>
          </ns3:TrackPointExtension>
        </extensions>
      </trkpt>
      <trkpt lat="45.28323565609753131866455078125" lon="-71.11445224843919277191162109375">
        <ele>717</ele>
        <time>2026-08-22T00:45:28.000Z</time>
        <extensions>
          <ns3:TrackPointExtension>
            <ns3:hr>104</ns3:hr>
            <ns3:cad>0</ns3:cad>
          </ns3:TrackPointExtension>
        </extensions>
      </trkpt>
      <trkpt lat="45.2832246758043766021728515625" lon="-71.114462725818157196044921875">
        <ele>717</ele>
        <time>2026-08-22T00:45:29.000Z</time>
        <extensions>
          <ns3:TrackPointExtension>
            <ns3:hr>104</ns3:hr>
            <ns3:cad>0</ns3:cad>
          </ns3:TrackPointExtension>
        </extensions>
      </trkpt>
      <trkpt lat="45.283213444054126739501953125" lon="-71.11447873525321483612060546875">
        <ele>716.79998779296875</ele>
        <time>2026-08-22T00:45:30.000Z</time>
        <extensions>
          <ns3:TrackPointExtension>
            <ns3:hr>104</ns3:hr>
            <ns3:cad>0</ns3:cad>
          </ns3:TrackPointExtension>
        </extensions>
      </trkpt>
      <trkpt lat="45.28320296667516231536865234375" lon="-71.1144887097179889678955078125">
        <ele>716.79998779296875</ele>
        <time>2026-08-22T00:45:31.000Z</time>
        <extensions>
          <ns3:TrackPointExtension>
            <ns3:hr>105</ns3:hr>
            <ns3:cad>0</ns3:cad>
          </ns3:TrackPointExtension>
        </extensions>
      </trkpt>
      <trkpt lat="45.28318972326815128326416015625" lon="-71.114505641162395477294921875">
        <ele>716.5999755859375</ele>
        <time>2026-08-22T00:45:32.000Z</time>
        <extensions>
          <ns3:TrackPointExtension>
            <ns3:hr>106</ns3:hr>
            <ns3:cad>0</ns3:cad>
          </ns3:TrackPointExtension>
        </extensions>
      </trkpt>
      <trkpt lat="45.28318335302174091339111328125" lon="-71.114523075520992279052734375">
        <ele>716.20001220703125</ele>
        <time>2026-08-22T00:45:33.000Z</time>
        <extensions>
          <ns3:TrackPointExtension>
            <ns3:hr>108</ns3:hr>
            <ns3:cad>0</ns3:cad>
          </ns3:TrackPointExtension>
        </extensions>
      </trkpt>
      <trkpt lat="45.28317647986114025115966796875" lon="-71.114542186260223388671875">
        <ele>716</ele>
        <time>2026-08-22T00:45:34.000Z</time>
        <extensions>
          <ns3:TrackPointExtension>
            <ns3:hr>108</ns3:hr>
            <ns3:cad>0</ns3:cad>
          </ns3:TrackPointExtension>
        </extensions>
      </trkpt>
      <trkpt lat="45.28316725976765155792236328125" lon="-71.11456221900880336761474609375">
        <ele>715.79998779296875</ele>
        <time>2026-08-22T00:45:35.000Z</time>
        <extensions>
          <ns3:TrackPointExtension>
            <ns3:hr>108</ns3:hr>
            <ns3:cad>0</ns3:cad>
          </ns3:TrackPointExtension>
        </extensions>
      </trkpt>
      <trkpt lat="45.28316147625446319580078125" lon="-71.1145708523690700531005859375">
        <ele>715.4000244140625</ele>
        <time>2026-08-22T00:45:36.000Z</time>
        <extensions>
          <ns3:TrackPointExtension>
            <ns3:hr>110</ns3:hr>
            <ns3:cad>0</ns3:cad>
          </ns3:TrackPointExtension>
        </extensions>
      </trkpt>
      <trkpt lat="45.283148400485515594482421875" lon="-71.11458015628159046173095703125">
        <ele>715.20001220703125</ele>
        <time>2026-08-22T00:45:37.000Z</time>
        <extensions>
          <ns3:TrackPointExtension>
            <ns3:hr>111</ns3:hr>
            <ns3:cad>0</ns3:cad>
          </ns3:TrackPointExtension>
        </extensions>
      </trkpt>
      <trkpt lat="45.28313842602074146270751953125" lon="-71.1145882867276668548583984375">
        <ele>714.79998779296875</ele>
        <time>2026-08-22T00:45:38.000Z</time>
        <extensions>
          <ns3:TrackPointExtension>
            <ns3:hr>112</ns3:hr>
            <ns3:cad>71</ns3:cad>
          </ns3:TrackPointExtension>
        </extensions>
      </trkpt>
      <trkpt lat="45.283130295574665069580078125" lon="-71.11459650099277496337890625">
        <ele>714.5999755859375</ele>
        <time>2026-08-22T00:45:39.000Z</time>
        <extensions>
          <ns3:TrackPointExtension>
            <ns3:hr>113</ns3:hr>
            <ns3:cad>71</ns3:cad>
          </ns3:TrackPointExtension>
        </extensions>
      </trkpt>
      <trkpt lat="45.28312048874795436859130859375" lon="-71.11459993757307529449462890625">
        <ele>714.20001220703125</ele>
        <time>2026-08-22T00:45:40.000Z</time>
        <extensions>
          <ns3:TrackPointExtension>
            <ns3:hr>113</ns3:hr>
            <ns3:cad>71</ns3:cad>
          </ns3:TrackPointExtension>
        </extensions>
      </trkpt>
      <trkpt lat="45.2831103466451168060302734375" lon="-71.11459926702082157135009765625">
        <ele>714</ele>
        <time>2026-08-22T00:45:41.000Z</time>
        <extensions>
          <ns3:TrackPointExtension>
            <ns3:hr>114</ns3:hr>
            <ns3:cad>71</ns3:cad>
          </ns3:TrackPointExtension>
        </extensions>
      </trkpt>
      <trkpt lat="45.2830969356000423431396484375" lon="-71.11459926702082157135009765625">
        <ele>713.79998779296875</ele>
        <time>2026-08-22T00:45:42.000Z</time>
        <extensions>
          <ns3:TrackPointExtension>
            <ns3:hr>114</ns3:hr>
            <ns3:cad>71</ns3:cad>
          </ns3:TrackPointExtension>
        </extensions>
      </trkpt>
      <trkpt lat="45.2830841951072216033935546875" lon="-71.11459708772599697113037109375">
        <ele>713.5999755859375</ele>
        <time>2026-08-22T00:45:43.000Z</time>
        <extensions>
          <ns3:TrackPointExtension>
            <ns3:hr>114</ns3:hr>
            <ns3:cad>71</ns3:cad>
          </ns3:TrackPointExtension>
        </extensions>
      </trkpt>
      <trkpt lat="45.28307237662374973297119140625" lon="-71.11459608189761638641357421875">
        <ele>713.5999755859375</ele>
        <time>2026-08-22T00:45:44.000Z</time>
        <extensions>
          <ns3:TrackPointExtension>
            <ns3:hr>113</ns3:hr>
            <ns3:cad>71</ns3:cad>
          </ns3:TrackPointExtension>
        </extensions>
      </trkpt>
      <trkpt lat="45.28306114487349987030029296875" lon="-71.114596836268901824951171875">
        <ele>713.5999755859375</ele>
        <time>2026-08-22T00:45:45.000Z</time>
        <extensions>
          <ns3:TrackPointExtension>
            <ns3:hr>113</ns3:hr>
            <ns3:cad>71</ns3:cad>
          </ns3:TrackPointExtension>
        </extensions>
      </trkpt>
      <trkpt lat="45.28304773382842540740966796875" lon="-71.1146016977727413177490234375">
        <ele>713.4000244140625</ele>
        <time>2026-08-22T00:45:46.000Z</time>
        <extensions>
          <ns3:TrackPointExtension>
            <ns3:hr>113</ns3:hr>
            <ns3:cad>71</ns3:cad>
          </ns3:TrackPointExtension>
        </extensions>
      </trkpt>
      <trkpt lat="45.28303549624979496002197265625" lon="-71.1146057210862636566162109375">
        <ele>713.20001220703125</ele>
        <time>2026-08-22T00:45:47.000Z</time>
        <extensions>
          <ns3:TrackPointExtension>
            <ns3:hr>113</ns3:hr>
            <ns3:cad>71</ns3:cad>
          </ns3:TrackPointExtension>
        </extensions>
      </trkpt>
      <trkpt lat="45.28302275575697422027587890625" lon="-71.11460882239043712615966796875">
        <ele>713.20001220703125</ele>
        <time>2026-08-22T00:45:48.000Z</time>
        <extensions>
          <ns3:TrackPointExtension>
            <ns3:hr>113</ns3:hr>
            <ns3:cad>71</ns3:cad>
          </ns3:TrackPointExtension>
        </extensions>
      </trkpt>
      <trkpt lat="45.2830097638070583343505859375" lon="-71.11461435444653034210205078125">
        <ele>713.20001220703125</ele>
        <time>2026-08-22T00:45:49.000Z</time>
        <extensions>
          <ns3:TrackPointExtension>
            <ns3:hr>113</ns3:hr>
            <ns3:cad>60</ns3:cad>
          </ns3:TrackPointExtension>
        </extensions>
      </trkpt>
      <trkpt lat="45.28299626894295215606689453125" lon="-71.11461284570395946502685546875">
        <ele>713</ele>
        <time>2026-08-22T00:45:50.000Z</time>
        <extensions>
          <ns3:TrackPointExtension>
            <ns3:hr>113</ns3:hr>
            <ns3:cad>60</ns3:cad>
          </ns3:TrackPointExtension>
        </extensions>
      </trkpt>
      <trkpt lat="45.2829822711646556854248046875" lon="-71.1146117560565471649169921875">
        <ele>712.79998779296875</ele>
        <time>2026-08-22T00:45:51.000Z</time>
        <extensions>
          <ns3:TrackPointExtension>
            <ns3:hr>113</ns3:hr>
            <ns3:cad>60</ns3:cad>
          </ns3:TrackPointExtension>
        </extensions>
      </trkpt>
      <trkpt lat="45.28296877630054950714111328125" lon="-71.1146124266088008880615234375">
        <ele>712.5999755859375</ele>
        <time>2026-08-22T00:45:52.000Z</time>
        <extensions>
          <ns3:TrackPointExtension>
            <ns3:hr>113</ns3:hr>
            <ns3:cad>60</ns3:cad>
          </ns3:TrackPointExtension>
        </extensions>
      </trkpt>
      <trkpt lat="45.28295285068452358245849609375" lon="-71.11461267806589603424072265625">
        <ele>712.20001220703125</ele>
        <time>2026-08-22T00:45:53.000Z</time>
        <extensions>
          <ns3:TrackPointExtension>
            <ns3:hr>112</ns3:hr>
            <ns3:cad>60</ns3:cad>
          </ns3:TrackPointExtension>
        </extensions>
      </trkpt>
      <trkpt lat="45.28294078074395656585693359375" lon="-71.114621646702289581298828125">
        <ele>712</ele>
        <time>2026-08-22T00:45:54.000Z</time>
        <extensions>
          <ns3:TrackPointExtension>
            <ns3:hr>113</ns3:hr>
            <ns3:cad>0</ns3:cad>
          </ns3:TrackPointExtension>
        </extensions>
      </trkpt>
      <trkpt lat="45.28292535804212093353271484375" lon="-71.1146234907209873199462890625">
        <ele>711.79998779296875</ele>
        <time>2026-08-22T00:45:55.000Z</time>
        <extensions>
          <ns3:TrackPointExtension>
            <ns3:hr>112</ns3:hr>
            <ns3:cad>0</ns3:cad>
          </ns3:TrackPointExtension>
        </extensions>
      </trkpt>
      <trkpt lat="45.2829153835773468017578125" lon="-71.1146234907209873199462890625">
        <ele>711.5999755859375</ele>
        <time>2026-08-22T00:45:56.000Z</time>
        <extensions>
          <ns3:TrackPointExtension>
            <ns3:hr>110</ns3:hr>
            <ns3:cad>0</ns3:cad>
          </ns3:TrackPointExtension>
        </extensions>
      </trkpt>
      <trkpt lat="45.2829018048942089080810546875" lon="-71.11462600529193878173828125">
        <ele>711.4000244140625</ele>
        <time>2026-08-22T00:45:57.000Z</time>
        <extensions>
          <ns3:TrackPointExtension>
            <ns3:hr>109</ns3:hr>
            <ns3:cad>0</ns3:cad>
          </ns3:TrackPointExtension>
        </extensions>
      </trkpt>
      <trkpt lat="45.282889902591705322265625" lon="-71.1146255023777484893798828125">
        <ele>711.20001220703125</ele>
        <time>2026-08-22T00:45:58.000Z</time>
        <extensions>
          <ns3:TrackPointExtension>
            <ns3:hr>109</ns3:hr>
            <ns3:cad>0</ns3:cad>
          </ns3:TrackPointExtension>
        </extensions>
      </trkpt>
      <trkpt lat="45.28288076631724834442138671875" lon="-71.1146278493106365203857421875">
        <ele>711.20001220703125</ele>
        <time>2026-08-22T00:45:59.000Z</time>
        <extensions>
          <ns3:TrackPointExtension>
            <ns3:hr>108</ns3:hr>
            <ns3:cad>0</ns3:cad>
          </ns3:TrackPointExtension>
        </extensions>
      </trkpt>
      <trkpt lat="45.2828692831099033355712890625" lon="-71.1146295256912708282470703125">
        <ele>711.20001220703125</ele>
        <time>2026-08-22T00:46:00.000Z</time>
        <extensions>
          <ns3:TrackPointExtension>
            <ns3:hr>109</ns3:hr>
            <ns3:cad>0</ns3:cad>
          </ns3:TrackPointExtension>
        </extensions>
      </trkpt>
      <trkpt lat="45.28286048211157321929931640625" lon="-71.11462994478642940521240234375">
        <ele>711</ele>
        <time>2026-08-22T00:46:01.000Z</time>
        <extensions>
          <ns3:TrackPointExtension>
            <ns3:hr>109</ns3:hr>
            <ns3:cad>0</ns3:cad>
          </ns3:TrackPointExtension>
        </extensions>
      </trkpt>
      <trkpt lat="45.28284958563745021820068359375" lon="-71.1146271787583827972412109375">
        <ele>711</ele>
        <time>2026-08-22T00:46:02.000Z</time>
        <extensions>
          <ns3:TrackPointExtension>
            <ns3:hr>109</ns3:hr>
            <ns3:cad>0</ns3:cad>
          </ns3:TrackPointExtension>
        </extensions>
      </trkpt>
      <trkpt lat="45.28284053318202495574951171875" lon="-71.1146291904151439666748046875">
        <ele>711</ele>
        <time>2026-08-22T00:46:03.000Z</time>
        <extensions>
          <ns3:TrackPointExtension>
            <ns3:hr>110</ns3:hr>
            <ns3:cad>0</ns3:cad>
          </ns3:TrackPointExtension>
        </extensions>
      </trkpt>
      <trkpt lat="45.28282494284212589263916015625" lon="-71.11463614739477634429931640625">
        <ele>711</ele>
        <time>2026-08-22T00:46:04.000Z</time>
        <extensions>
          <ns3:TrackPointExtension>
            <ns3:hr>110</ns3:hr>
            <ns3:cad>55</ns3:cad>
          </ns3:TrackPointExtension>
        </extensions>
      </trkpt>
      <trkpt lat="45.28281454928219318389892578125" lon="-71.11463815905153751373291015625">
        <ele>710.79998779296875</ele>
        <time>2026-08-22T00:46:05.000Z</time>
        <extensions>
          <ns3:TrackPointExtension>
            <ns3:hr>110</ns3:hr>
            <ns3:cad>55</ns3:cad>
          </ns3:TrackPointExtension>
        </extensions>
      </trkpt>
      <trkpt lat="45.2828028984367847442626953125" lon="-71.1146389134228229522705078125">
        <ele>710.5999755859375</ele>
        <time>2026-08-22T00:46:06.000Z</time>
        <extensions>
          <ns3:TrackPointExtension>
            <ns3:hr>108</ns3:hr>
            <ns3:cad>55</ns3:cad>
          </ns3:TrackPointExtension>
        </extensions>
      </trkpt>
      <trkpt lat="45.2827921696007251739501953125" lon="-71.11463606357574462890625">
        <ele>710.4000244140625</ele>
        <time>2026-08-22T00:46:07.000Z</time>
        <extensions>
          <ns3:TrackPointExtension>
            <ns3:hr>107</ns3:hr>
            <ns3:cad>55</ns3:cad>
          </ns3:TrackPointExtension>
        </extensions>
      </trkpt>
      <trkpt lat="45.28278320096433162689208984375" lon="-71.11463681794703006744384765625">
        <ele>710.4000244140625</ele>
        <time>2026-08-22T00:46:08.000Z</time>
        <extensions>
          <ns3:TrackPointExtension>
            <ns3:hr>107</ns3:hr>
            <ns3:cad>52</ns3:cad>
          </ns3:TrackPointExtension>
        </extensions>
      </trkpt>
      <trkpt lat="45.28277523815631866455078125" lon="-71.1146392486989498138427734375">
        <ele>710.20001220703125</ele>
        <time>2026-08-22T00:46:09.000Z</time>
        <extensions>
          <ns3:TrackPointExtension>
            <ns3:hr>107</ns3:hr>
            <ns3:cad>51</ns3:cad>
          </ns3:TrackPointExtension>
        </extensions>
      </trkpt>
      <trkpt lat="45.28276660479605197906494140625" lon="-71.1146432720124721527099609375">
        <ele>710.20001220703125</ele>
        <time>2026-08-22T00:46:10.000Z</time>
        <extensions>
          <ns3:TrackPointExtension>
            <ns3:hr>108</ns3:hr>
            <ns3:cad>51</ns3:cad>
          </ns3:TrackPointExtension>
        </extensions>
      </trkpt>
      <trkpt lat="45.2827573008835315704345703125" lon="-71.11465006135404109954833984375">
        <ele>710</ele>
        <time>2026-08-22T00:46:11.000Z</time>
        <extensions>
          <ns3:TrackPointExtension>
            <ns3:hr>109</ns3:hr>
            <ns3:cad>51</ns3:cad>
          </ns3:TrackPointExtension>
        </extensions>
      </trkpt>
      <trkpt lat="45.28274883516132831573486328125" lon="-71.114657185971736907958984375">
        <ele>710</ele>
        <time>2026-08-22T00:46:12.000Z</time>
        <extensions>
          <ns3:TrackPointExtension>
            <ns3:hr>109</ns3:hr>
            <ns3:cad>51</ns3:cad>
          </ns3:TrackPointExtension>
        </extensions>
      </trkpt>
      <trkpt lat="45.2827356755733489990234375" lon="-71.1146695911884307861328125">
        <ele>709.79998779296875</ele>
        <time>2026-08-22T00:46:13.000Z</time>
        <extensions>
          <ns3:TrackPointExtension>
            <ns3:hr>110</ns3:hr>
            <ns3:cad>52</ns3:cad>
          </ns3:TrackPointExtension>
        </extensions>
      </trkpt>
      <trkpt lat="45.28272419236600399017333984375" lon="-71.1146824993193149566650390625">
        <ele>709.5999755859375</ele>
        <time>2026-08-22T00:46:14.000Z</time>
        <extensions>
          <ns3:TrackPointExtension>
            <ns3:hr>110</ns3:hr>
            <ns3:cad>0</ns3:cad>
          </ns3:TrackPointExtension>
        </extensions>
      </trkpt>
      <trkpt lat="45.2827170677483081817626953125" lon="-71.11470337025821208953857421875">
        <ele>709.4000244140625</ele>
        <time>2026-08-22T00:46:15.000Z</time>
        <extensions>
          <ns3:TrackPointExtension>
            <ns3:hr>111</ns3:hr>
            <ns3:cad>0</ns3:cad>
          </ns3:TrackPointExtension>
        </extensions>
      </trkpt>
      <trkpt lat="45.28271614573895931243896484375" lon="-71.1147197149693965911865234375">
        <ele>709.4000244140625</ele>
        <time>2026-08-22T00:46:16.000Z</time>
        <extensions>
          <ns3:TrackPointExtension>
            <ns3:hr>111</ns3:hr>
            <ns3:cad>0</ns3:cad>
          </ns3:TrackPointExtension>
        </extensions>
      </trkpt>
      <trkpt lat="45.28271086513996124267578125" lon="-71.11473807133734226226806640625">
        <ele>709.20001220703125</ele>
        <time>2026-08-22T00:46:17.000Z</time>
        <extensions>
          <ns3:TrackPointExtension>
            <ns3:hr>112</ns3:hr>
            <ns3:cad>0</ns3:cad>
          </ns3:TrackPointExtension>
        </extensions>
      </trkpt>
      <trkpt lat="45.28270550072193145751953125" lon="-71.11474963836371898651123046875">
        <ele>709</ele>
        <time>2026-08-22T00:46:18.000Z</time>
        <extensions>
          <ns3:TrackPointExtension>
            <ns3:hr>112</ns3:hr>
            <ns3:cad>0</ns3:cad>
          </ns3:TrackPointExtension>
        </extensions>
      </trkpt>
      <trkpt lat="45.282695107161998748779296875" lon="-71.11476338468492031097412109375">
        <ele>708.79998779296875</ele>
        <time>2026-08-22T00:46:19.000Z</time>
        <extensions>
          <ns3:TrackPointExtension>
            <ns3:hr>113</ns3:hr>
            <ns3:cad>0</ns3:cad>
          </ns3:TrackPointExtension>
        </extensions>
      </trkpt>
      <trkpt lat="45.28268278576433658599853515625" lon="-71.1147773824632167816162109375">
        <ele>708.5999755859375</ele>
        <time>2026-08-22T00:46:20.000Z</time>
        <extensions>
          <ns3:TrackPointExtension>
            <ns3:hr>113</ns3:hr>
            <ns3:cad>0</ns3:cad>
          </ns3:TrackPointExtension>
        </extensions>
      </trkpt>
      <trkpt lat="45.282674990594387054443359375" lon="-71.1147877760231494903564453125">
        <ele>708.5999755859375</ele>
        <time>2026-08-22T00:46:21.000Z</time>
        <extensions>
          <ns3:TrackPointExtension>
            <ns3:hr>114</ns3:hr>
            <ns3:cad>57</ns3:cad>
          </ns3:TrackPointExtension>
        </extensions>
      </trkpt>
      <trkpt lat="45.28266652487218379974365234375" lon="-71.1147961579263210296630859375">
        <ele>708.4000244140625</ele>
        <time>2026-08-22T00:46:22.000Z</time>
        <extensions>
          <ns3:TrackPointExtension>
            <ns3:hr>114</ns3:hr>
            <ns3:cad>57</ns3:cad>
          </ns3:TrackPointExtension>
        </extensions>
      </trkpt>
      <trkpt lat="45.282661579549312591552734375" lon="-71.114805042743682861328125">
        <ele>708.4000244140625</ele>
        <time>2026-08-22T00:46:23.000Z</time>
        <extensions>
          <ns3:TrackPointExtension>
            <ns3:hr>115</ns3:hr>
            <ns3:cad>57</ns3:cad>
          </ns3:TrackPointExtension>
        </extensions>
      </trkpt>
      <trkpt lat="45.2826580591499805450439453125" lon="-71.1148105747997760772705078125">
        <ele>708.4000244140625</ele>
        <time>2026-08-22T00:46:24.000Z</time>
        <extensions>
          <ns3:TrackPointExtension>
            <ns3:hr>115</ns3:hr>
            <ns3:cad>57</ns3:cad>
          </ns3:TrackPointExtension>
        </extensions>
      </trkpt>
      <trkpt lat="45.28265696950256824493408203125" lon="-71.11481283791363239288330078125">
        <ele>708.5999755859375</ele>
        <time>2026-08-22T00:46:25.000Z</time>
        <extensions>
          <ns3:TrackPointExtension>
            <ns3:hr>114</ns3:hr>
            <ns3:cad>0</ns3:cad>
          </ns3:TrackPointExtension>
        </extensions>
      </trkpt>
      <trkpt lat="45.28265562839806079864501953125" lon="-71.11481065861880779266357421875">
        <ele>708.5999755859375</ele>
        <time>2026-08-22T00:46:26.000Z</time>
        <extensions>
          <ns3:TrackPointExtension>
            <ns3:hr>114</ns3:hr>
            <ns3:cad>0</ns3:cad>
          </ns3:TrackPointExtension>
        </extensions>
      </trkpt>
      <trkpt lat="45.2826526947319507598876953125" lon="-71.11480294726788997650146484375">
        <ele>708.5999755859375</ele>
        <time>2026-08-22T00:46:27.000Z</time>
        <extensions>
          <ns3:TrackPointExtension>
            <ns3:hr>113</ns3:hr>
            <ns3:cad>0</ns3:cad>
          </ns3:TrackPointExtension>
        </extensions>
      </trkpt>
      <trkpt lat="45.28265076689422130584716796875" lon="-71.11480110324919223785400390625">
        <ele>708.5999755859375</ele>
        <time>2026-08-22T00:46:28.000Z</time>
        <extensions>
          <ns3:TrackPointExtension>
            <ns3:hr>113</ns3:hr>
            <ns3:cad>0</ns3:cad>
          </ns3:TrackPointExtension>
        </extensions>
      </trkpt>
      <trkpt lat="45.2826439775526523590087890625" lon="-71.11480227671563625335693359375">
        <ele>708.5999755859375</ele>
        <time>2026-08-22T00:46:29.000Z</time>
        <extensions>
          <ns3:TrackPointExtension>
            <ns3:hr>112</ns3:hr>
            <ns3:cad>0</ns3:cad>
          </ns3:TrackPointExtension>
        </extensions>
      </trkpt>
      <trkpt lat="45.28263869695365428924560546875" lon="-71.11480462364852428436279296875">
        <ele>708.5999755859375</ele>
        <time>2026-08-22T00:46:30.000Z</time>
        <extensions>
          <ns3:TrackPointExtension>
            <ns3:hr>111</ns3:hr>
            <ns3:cad>0</ns3:cad>
          </ns3:TrackPointExtension>
        </extensions>
      </trkpt>
      <trkpt lat="45.28263065032660961151123046875" lon="-71.11480345018208026885986328125">
        <ele>708.5999755859375</ele>
        <time>2026-08-22T00:46:31.000Z</time>
        <extensions>
          <ns3:TrackPointExtension>
            <ns3:hr>111</ns3:hr>
            <ns3:cad>0</ns3:cad>
          </ns3:TrackPointExtension>
        </extensions>
      </trkpt>
      <trkpt lat="45.28262377716600894927978515625" lon="-71.11480361782014369964599609375">
        <ele>708.79998779296875</ele>
        <time>2026-08-22T00:46:32.000Z</time>
        <extensions>
          <ns3:TrackPointExtension>
            <ns3:hr>110</ns3:hr>
            <ns3:cad>0</ns3:cad>
          </ns3:TrackPointExtension>
        </extensions>
      </trkpt>
      <trkpt lat="45.28261505998671054840087890625" lon="-71.11480705440044403076171875">
        <ele>708.79998779296875</ele>
        <time>2026-08-22T00:46:33.000Z</time>
        <extensions>
          <ns3:TrackPointExtension>
            <ns3:hr>110</ns3:hr>
            <ns3:cad>0</ns3:cad>
          </ns3:TrackPointExtension>
        </extensions>
      </trkpt>
      <trkpt lat="45.28261690400540828704833984375" lon="-71.11480973660945892333984375">
        <ele>708.79998779296875</ele>
        <time>2026-08-22T00:46:34.000Z</time>
        <extensions>
          <ns3:TrackPointExtension>
            <ns3:hr>110</ns3:hr>
            <ns3:cad>0</ns3:cad>
          </ns3:TrackPointExtension>
        </extensions>
      </trkpt>
      <trkpt lat="45.2826091088354587554931640625" lon="-71.1148102395236492156982421875">
        <ele>709</ele>
        <time>2026-08-22T00:46:35.000Z</time>
        <extensions>
          <ns3:TrackPointExtension>
            <ns3:hr>110</ns3:hr>
            <ns3:cad>0</ns3:cad>
          </ns3:TrackPointExtension>
        </extensions>
      </trkpt>
      <trkpt lat="45.28260718099772930145263671875" lon="-71.1148125864565372467041015625">
        <ele>709</ele>
        <time>2026-08-22T00:46:36.000Z</time>
        <extensions>
          <ns3:TrackPointExtension>
            <ns3:hr>109</ns3:hr>
            <ns3:cad>0</ns3:cad>
          </ns3:TrackPointExtension>
        </extensions>
      </trkpt>
      <trkpt lat="45.2826044149696826934814453125" lon="-71.11481241881847381591796875">
        <ele>709</ele>
        <time>2026-08-22T00:46:37.000Z</time>
        <extensions>
          <ns3:TrackPointExtension>
            <ns3:hr>109</ns3:hr>
            <ns3:cad>0</ns3:cad>
          </ns3:TrackPointExtension>
        </extensions>
      </trkpt>
      <trkpt lat="45.28260097838938236236572265625" lon="-71.1148105747997760772705078125">
        <ele>709</ele>
        <time>2026-08-22T00:46:38.000Z</time>
        <extensions>
          <ns3:TrackPointExtension>
            <ns3:hr>109</ns3:hr>
            <ns3:cad>0</ns3:cad>
          </ns3:TrackPointExtension>
        </extensions>
      </trkpt>
      <trkpt lat="45.282605588436126708984375" lon="-71.11480973660945892333984375">
        <ele>709</ele>
        <time>2026-08-22T00:46:39.000Z</time>
        <extensions>
          <ns3:TrackPointExtension>
            <ns3:hr>108</ns3:hr>
            <ns3:cad>0</ns3:cad>
          </ns3:TrackPointExtension>
        </extensions>
      </trkpt>
      <trkpt lat="45.2826077677309513092041015625" lon="-71.11480881460011005401611328125">
        <ele>709</ele>
        <time>2026-08-22T00:46:40.000Z</time>
        <extensions>
          <ns3:TrackPointExtension>
            <ns3:hr>108</ns3:hr>
            <ns3:cad>0</ns3:cad>
          </ns3:TrackPointExtension>
        </extensions>
      </trkpt>
      <trkpt lat="45.28261204250156879425048828125" lon="-71.11481216736137866973876953125">
        <ele>709</ele>
        <time>2026-08-22T00:46:41.000Z</time>
        <extensions>
          <ns3:TrackPointExtension>
            <ns3:hr>108</ns3:hr>
            <ns3:cad>0</ns3:cad>
          </ns3:TrackPointExtension>
        </extensions>
      </trkpt>
      <trkpt lat="45.2826154790818691253662109375" lon="-71.11482180655002593994140625">
        <ele>709</ele>
        <time>2026-08-22T00:46:42.000Z</time>
        <extensions>
          <ns3:TrackPointExtension>
            <ns3:hr>108</ns3:hr>
            <ns3:cad>0</ns3:cad>
          </ns3:TrackPointExtension>
        </extensions>
      </trkpt>
      <trkpt lat="45.28261623345315456390380859375" lon="-71.11482323147356510162353515625">
        <ele>709</ele>
        <time>2026-08-22T00:46:43.000Z</time>
        <extensions>
          <ns3:TrackPointExtension>
            <ns3:hr>108</ns3:hr>
            <ns3:cad>0</ns3:cad>
          </ns3:TrackPointExtension>
        </extensions>
      </trkpt>
      <trkpt lat="45.2826164849102497100830078125" lon="-71.11482306383550167083740234375">
        <ele>709</ele>
        <time>2026-08-22T00:46:44.000Z</time>
        <extensions>
          <ns3:TrackPointExtension>
            <ns3:hr>108</ns3:hr>
            <ns3:cad>0</ns3:cad>
          </ns3:TrackPointExtension>
        </extensions>
      </trkpt>
      <trkpt lat="45.2826164849102497100830078125" lon="-71.11482306383550167083740234375">
        <ele>709</ele>
        <time>2026-08-22T00:46:45.000Z</time>
        <extensions>
          <ns3:TrackPointExtension>
            <ns3:hr>108</ns3:hr>
            <ns3:cad>0</ns3:cad>
          </ns3:TrackPointExtension>
        </extensions>
      </trkpt>
      <trkpt lat="45.2826164849102497100830078125" lon="-71.11482306383550167083740234375">
        <ele>709</ele>
        <time>2026-08-22T00:46:46.000Z</time>
        <extensions>
          <ns3:TrackPointExtension>
            <ns3:hr>108</ns3:hr>
            <ns3:cad>0</ns3:cad>
          </ns3:TrackPointExtension>
        </extensions>
      </trkpt>
      <trkpt lat="45.2826164849102497100830078125" lon="-71.11482306383550167083740234375">
        <ele>709.20001220703125</ele>
        <time>2026-08-22T00:46:47.000Z</time>
        <extensions>
          <ns3:TrackPointExtension>
            <ns3:hr>109</ns3:hr>
            <ns3:cad>0</ns3:cad>
          </ns3:TrackPointExtension>
        </extensions>
      </trkpt>
      <trkpt lat="45.2826164849102497100830078125" lon="-71.11482306383550167083740234375">
        <ele>709.20001220703125</ele>
        <time>2026-08-22T00:46:48.000Z</time>
        <extensions>
          <ns3:TrackPointExtension>
            <ns3:hr>109</ns3:hr>
            <ns3:cad>0</ns3:cad>
          </ns3:TrackPointExtension>
        </extensions>
      </trkpt>
      <trkpt lat="45.2826164849102497100830078125" lon="-71.11482306383550167083740234375">
        <ele>709.20001220703125</ele>
        <time>2026-08-22T00:46:49.000Z</time>
        <extensions>
          <ns3:TrackPointExtension>
            <ns3:hr>109</ns3:hr>
            <ns3:cad>0</ns3:cad>
          </ns3:TrackPointExtension>
        </extensions>
      </trkpt>
      <trkpt lat="45.2826164849102497100830078125" lon="-71.11482306383550167083740234375">
        <ele>709.20001220703125</ele>
        <time>2026-08-22T00:46:50.000Z</time>
        <extensions>
          <ns3:TrackPointExtension>
            <ns3:hr>110</ns3:hr>
            <ns3:cad>0</ns3:cad>
          </ns3:TrackPointExtension>
        </extensions>
      </trkpt>
      <trkpt lat="45.2826164849102497100830078125" lon="-71.11482306383550167083740234375">
        <ele>709.20001220703125</ele>
        <time>2026-08-22T00:46:51.000Z</time>
        <extensions>
          <ns3:TrackPointExtension>
            <ns3:hr>110</ns3:hr>
            <ns3:cad>0</ns3:cad>
          </ns3:TrackPointExtension>
        </extensions>
      </trkpt>
      <trkpt lat="45.2826164849102497100830078125" lon="-71.11482306383550167083740234375">
        <ele>709.20001220703125</ele>
        <time>2026-08-22T00:46:52.000Z</time>
        <extensions>
          <ns3:TrackPointExtension>
            <ns3:hr>110</ns3:hr>
            <ns3:cad>0</ns3:cad>
          </ns3:TrackPointExtension>
        </extensions>
      </trkpt>
      <trkpt lat="45.2826164849102497100830078125" lon="-71.11482306383550167083740234375">
        <ele>709.20001220703125</ele>
        <time>2026-08-22T00:46:53.000Z</time>
        <extensions>
          <ns3:TrackPointExtension>
            <ns3:hr>109</ns3:hr>
            <ns3:cad>0</ns3:cad>
          </ns3:TrackPointExtension>
        </extensions>
      </trkpt>
      <trkpt lat="45.2826164849102497100830078125" lon="-71.11482306383550167083740234375">
        <ele>709.20001220703125</ele>
        <time>2026-08-22T00:46:54.000Z</time>
        <extensions>
          <ns3:TrackPointExtension>
            <ns3:hr>110</ns3:hr>
            <ns3:cad>0</ns3:cad>
          </ns3:TrackPointExtension>
        </extensions>
      </trkpt>
      <trkpt lat="45.2826164849102497100830078125" lon="-71.11482306383550167083740234375">
        <ele>709</ele>
        <time>2026-08-22T00:46:55.000Z</time>
        <extensions>
          <ns3:TrackPointExtension>
            <ns3:hr>110</ns3:hr>
            <ns3:cad>0</ns3:cad>
          </ns3:TrackPointExtension>
        </extensions>
      </trkpt>
      <trkpt lat="45.2826164849102497100830078125" lon="-71.11482306383550167083740234375">
        <ele>709</ele>
        <time>2026-08-22T00:46:56.000Z</time>
        <extensions>
          <ns3:TrackPointExtension>
            <ns3:hr>109</ns3:hr>
            <ns3:cad>0</ns3:cad>
          </ns3:TrackPointExtension>
        </extensions>
      </trkpt>
      <trkpt lat="45.2826164849102497100830078125" lon="-71.11482306383550167083740234375">
        <ele>708.79998779296875</ele>
        <time>2026-08-22T00:46:57.000Z</time>
        <extensions>
          <ns3:TrackPointExtension>
            <ns3:hr>109</ns3:hr>
            <ns3:cad>0</ns3:cad>
          </ns3:TrackPointExtension>
        </extensions>
      </trkpt>
      <trkpt lat="45.2826164849102497100830078125" lon="-71.11482306383550167083740234375">
        <ele>708.5999755859375</ele>
        <time>2026-08-22T00:46:58.000Z</time>
        <extensions>
          <ns3:TrackPointExtension>
            <ns3:hr>109</ns3:hr>
            <ns3:cad>0</ns3:cad>
          </ns3:TrackPointExtension>
        </extensions>
      </trkpt>
      <trkpt lat="45.2826164849102497100830078125" lon="-71.11482306383550167083740234375">
        <ele>708.5999755859375</ele>
        <time>2026-08-22T00:46:59.000Z</time>
        <extensions>
          <ns3:TrackPointExtension>
            <ns3:hr>109</ns3:hr>
            <ns3:cad>0</ns3:cad>
          </ns3:TrackPointExtension>
        </extensions>
      </trkpt>
      <trkpt lat="45.2826164849102497100830078125" lon="-71.11482306383550167083740234375">
        <ele>708.79998779296875</ele>
        <time>2026-08-22T00:47:00.000Z</time>
        <extensions>
          <ns3:TrackPointExtension>
            <ns3:hr>110</ns3:hr>
            <ns3:cad>0</ns3:cad>
          </ns3:TrackPointExtension>
        </extensions>
      </trkpt>
      <trkpt lat="45.2826164849102497100830078125" lon="-71.11482306383550167083740234375">
        <ele>708.79998779296875</ele>
        <time>2026-08-22T00:47:01.000Z</time>
        <extensions>
          <ns3:TrackPointExtension>
            <ns3:hr>110</ns3:hr>
            <ns3:cad>0</ns3:cad>
          </ns3:TrackPointExtension>
        </extensions>
      </trkpt>
      <trkpt lat="45.2826164849102497100830078125" lon="-71.11482306383550167083740234375">
        <ele>708.79998779296875</ele>
        <time>2026-08-22T00:47:02.000Z</time>
        <extensions>
          <ns3:TrackPointExtension>
            <ns3:hr>110</ns3:hr>
            <ns3:cad>0</ns3:cad>
          </ns3:TrackPointExtension>
        </extensions>
      </trkpt>
      <trkpt lat="45.2826164849102497100830078125" lon="-71.11482306383550167083740234375">
        <ele>709</ele>
        <time>2026-08-22T00:47:03.000Z</time>
        <extensions>
          <ns3:TrackPointExtension>
            <ns3:hr>110</ns3:hr>
            <ns3:cad>0</ns3:cad>
          </ns3:TrackPointExtension>
        </extensions>
      </trkpt>
      <trkpt lat="45.2826164849102497100830078125" lon="-71.11482306383550167083740234375">
        <ele>709</ele>
        <time>2026-08-22T00:47:04.000Z</time>
        <extensions>
          <ns3:TrackPointExtension>
            <ns3:hr>110</ns3:hr>
            <ns3:cad>0</ns3:cad>
          </ns3:TrackPointExtension>
        </extensions>
      </trkpt>
      <trkpt lat="45.2826164849102497100830078125" lon="-71.11482306383550167083740234375">
        <ele>709</ele>
        <time>2026-08-22T00:47:05.000Z</time>
        <extensions>
          <ns3:TrackPointExtension>
            <ns3:hr>109</ns3:hr>
            <ns3:cad>0</ns3:cad>
          </ns3:TrackPointExtension>
        </extensions>
      </trkpt>
      <trkpt lat="45.2826164849102497100830078125" lon="-71.11482306383550167083740234375">
        <ele>709</ele>
        <time>2026-08-22T00:47:06.000Z</time>
        <extensions>
          <ns3:TrackPointExtension>
            <ns3:hr>110</ns3:hr>
            <ns3:cad>0</ns3:cad>
          </ns3:TrackPointExtension>
        </extensions>
      </trkpt>
      <trkpt lat="45.2826164849102497100830078125" lon="-71.11482306383550167083740234375">
        <ele>709</ele>
        <time>2026-08-22T00:47:07.000Z</time>
        <extensions>
          <ns3:TrackPointExtension>
            <ns3:hr>110</ns3:hr>
            <ns3:cad>0</ns3:cad>
          </ns3:TrackPointExtension>
        </extensions>
      </trkpt>
      <trkpt lat="45.2826164849102497100830078125" lon="-71.11482306383550167083740234375">
        <ele>708.79998779296875</ele>
        <time>2026-08-22T00:47:08.000Z</time>
        <extensions>
          <ns3:TrackPointExtension>
            <ns3:hr>110</ns3:hr>
            <ns3:cad>0</ns3:cad>
          </ns3:TrackPointExtension>
        </extensions>
      </trkpt>
      <trkpt lat="45.2826164849102497100830078125" lon="-71.11482306383550167083740234375">
        <ele>708.79998779296875</ele>
        <time>2026-08-22T00:47:09.000Z</time>
        <extensions>
          <ns3:TrackPointExtension>
            <ns3:hr>109</ns3:hr>
            <ns3:cad>0</ns3:cad>
          </ns3:TrackPointExtension>
        </extensions>
      </trkpt>
      <trkpt lat="45.2826164849102497100830078125" lon="-71.11482306383550167083740234375">
        <ele>708.5999755859375</ele>
        <time>2026-08-22T00:47:10.000Z</time>
        <extensions>
          <ns3:TrackPointExtension>
            <ns3:hr>108</ns3:hr>
            <ns3:cad>0</ns3:cad>
          </ns3:TrackPointExtension>
        </extensions>
      </trkpt>
      <trkpt lat="45.2826164849102497100830078125" lon="-71.11482306383550167083740234375">
        <ele>708.4000244140625</ele>
        <time>2026-08-22T00:47:11.000Z</time>
        <extensions>
          <ns3:TrackPointExtension>
            <ns3:hr>108</ns3:hr>
            <ns3:cad>0</ns3:cad>
          </ns3:TrackPointExtension>
        </extensions>
      </trkpt>
      <trkpt lat="45.2826164849102497100830078125" lon="-71.11482306383550167083740234375">
        <ele>708.4000244140625</ele>
        <time>2026-08-22T00:47:12.000Z</time>
        <extensions>
          <ns3:TrackPointExtension>
            <ns3:hr>108</ns3:hr>
            <ns3:cad>0</ns3:cad>
          </ns3:TrackPointExtension>
        </extensions>
      </trkpt>
      <trkpt lat="45.2826164849102497100830078125" lon="-71.11482306383550167083740234375">
        <ele>708.4000244140625</ele>
        <time>2026-08-22T00:47:13.000Z</time>
        <extensions>
          <ns3:TrackPointExtension>
            <ns3:hr>108</ns3:hr>
            <ns3:cad>0</ns3:cad>
          </ns3:TrackPointExtension>
        </extensions>
      </trkpt>
      <trkpt lat="45.2826164849102497100830078125" lon="-71.11482306383550167083740234375">
        <ele>708.4000244140625</ele>
        <time>2026-08-22T00:47:14.000Z</time>
        <extensions>
          <ns3:TrackPointExtension>
            <ns3:hr>108</ns3:hr>
            <ns3:cad>0</ns3:cad>
          </ns3:TrackPointExtension>
        </extensions>
      </trkpt>
      <trkpt lat="45.2826164849102497100830078125" lon="-71.11482306383550167083740234375">
        <ele>708.4000244140625</ele>
        <time>2026-08-22T00:47:15.000Z</time>
        <extensions>
          <ns3:TrackPointExtension>
            <ns3:hr>107</ns3:hr>
            <ns3:cad>0</ns3:cad>
          </ns3:TrackPointExtension>
        </extensions>
      </trkpt>
      <trkpt lat="45.2826164849102497100830078125" lon="-71.11482306383550167083740234375">
        <ele>708.4000244140625</ele>
        <time>2026-08-22T00:47:16.000Z</time>
        <extensions>
          <ns3:TrackPointExtension>
            <ns3:hr>107</ns3:hr>
            <ns3:cad>0</ns3:cad>
          </ns3:TrackPointExtension>
        </extensions>
      </trkpt>
      <trkpt lat="45.2826164849102497100830078125" lon="-71.11482306383550167083740234375">
        <ele>708.4000244140625</ele>
        <time>2026-08-22T00:47:17.000Z</time>
        <extensions>
          <ns3:TrackPointExtension>
            <ns3:hr>106</ns3:hr>
            <ns3:cad>0</ns3:cad>
          </ns3:TrackPointExtension>
        </extensions>
      </trkpt>
      <trkpt lat="45.2826164849102497100830078125" lon="-71.11482306383550167083740234375">
        <ele>708.4000244140625</ele>
        <time>2026-08-22T00:47:18.000Z</time>
        <extensions>
          <ns3:TrackPointExtension>
            <ns3:hr>106</ns3:hr>
            <ns3:cad>0</ns3:cad>
          </ns3:TrackPointExtension>
        </extensions>
      </trkpt>
      <trkpt lat="45.2826164849102497100830078125" lon="-71.11482306383550167083740234375">
        <ele>708.4000244140625</ele>
        <time>2026-08-22T00:47:19.000Z</time>
        <extensions>
          <ns3:TrackPointExtension>
            <ns3:hr>106</ns3:hr>
            <ns3:cad>0</ns3:cad>
          </ns3:TrackPointExtension>
        </extensions>
      </trkpt>
      <trkpt lat="45.2826164849102497100830078125" lon="-71.11482306383550167083740234375">
        <ele>708.4000244140625</ele>
        <time>2026-08-22T00:47:20.000Z</time>
        <extensions>
          <ns3:TrackPointExtension>
            <ns3:hr>103</ns3:hr>
            <ns3:cad>0</ns3:cad>
          </ns3:TrackPointExtension>
        </extensions>
      </trkpt>
      <trkpt lat="45.2826164849102497100830078125" lon="-71.11482306383550167083740234375">
        <ele>708.4000244140625</ele>
        <time>2026-08-22T00:47:21.000Z</time>
        <extensions>
          <ns3:TrackPointExtension>
            <ns3:hr>101</ns3:hr>
            <ns3:cad>0</ns3:cad>
          </ns3:TrackPointExtension>
        </extensions>
      </trkpt>
      <trkpt lat="45.2826164849102497100830078125" lon="-71.11482306383550167083740234375">
        <ele>708.4000244140625</ele>
        <time>2026-08-22T00:47:22.000Z</time>
        <extensions>
          <ns3:TrackPointExtension>
            <ns3:hr>100</ns3:hr>
            <ns3:cad>0</ns3:cad>
          </ns3:TrackPointExtension>
        </extensions>
      </trkpt>
      <trkpt lat="45.2826164849102497100830078125" lon="-71.11482306383550167083740234375">
        <ele>708.4000244140625</ele>
        <time>2026-08-22T00:47:23.000Z</time>
        <extensions>
          <ns3:TrackPointExtension>
            <ns3:hr>99</ns3:hr>
            <ns3:cad>0</ns3:cad>
          </ns3:TrackPointExtension>
        </extensions>
      </trkpt>
      <trkpt lat="45.2826164849102497100830078125" lon="-71.11482306383550167083740234375">
        <ele>708.4000244140625</ele>
        <time>2026-08-22T00:47:24.000Z</time>
        <extensions>
          <ns3:TrackPointExtension>
            <ns3:hr>98</ns3:hr>
            <ns3:cad>0</ns3:cad>
          </ns3:TrackPointExtension>
        </extensions>
      </trkpt>
      <trkpt lat="45.2826164849102497100830078125" lon="-71.11482306383550167083740234375">
        <ele>708.4000244140625</ele>
        <time>2026-08-22T00:47:25.000Z</time>
        <extensions>
          <ns3:TrackPointExtension>
            <ns3:hr>94</ns3:hr>
            <ns3:cad>0</ns3:cad>
          </ns3:TrackPointExtension>
        </extensions>
      </trkpt>
      <trkpt lat="45.2826164849102497100830078125" lon="-71.11482306383550167083740234375">
        <ele>708.4000244140625</ele>
        <time>2026-08-22T00:47:26.000Z</time>
        <extensions>
          <ns3:TrackPointExtension>
            <ns3:hr>91</ns3:hr>
            <ns3:cad>0</ns3:cad>
          </ns3:TrackPointExtension>
        </extensions>
      </trkpt>
      <trkpt lat="45.2826164849102497100830078125" lon="-71.11482306383550167083740234375">
        <ele>708.4000244140625</ele>
        <time>2026-08-22T00:47:27.000Z</time>
        <extensions>
          <ns3:TrackPointExtension>
            <ns3:hr>90</ns3:hr>
            <ns3:cad>0</ns3:cad>
          </ns3:TrackPointExtension>
        </extensions>
      </trkpt>
      <trkpt lat="45.2826164849102497100830078125" lon="-71.11482306383550167083740234375">
        <ele>708.4000244140625</ele>
        <time>2026-08-22T00:47:28.000Z</time>
        <extensions>
          <ns3:TrackPointExtension>
            <ns3:hr>90</ns3:hr>
            <ns3:cad>0</ns3:cad>
          </ns3:TrackPointExtension>
        </extensions>
      </trkpt>
      <trkpt lat="45.2826164849102497100830078125" lon="-71.11482306383550167083740234375">
        <ele>708.5999755859375</ele>
        <time>2026-08-22T00:47:29.000Z</time>
        <extensions>
          <ns3:TrackPointExtension>
            <ns3:hr>90</ns3:hr>
            <ns3:cad>0</ns3:cad>
          </ns3:TrackPointExtension>
        </extensions>
      </trkpt>
      <trkpt lat="45.2826164849102497100830078125" lon="-71.11482306383550167083740234375">
        <ele>708.5999755859375</ele>
        <time>2026-08-22T00:47:30.000Z</time>
        <extensions>
          <ns3:TrackPointExtension>
            <ns3:hr>90</ns3:hr>
            <ns3:cad>0</ns3:cad>
          </ns3:TrackPointExtension>
        </extensions>
      </trkpt>
      <trkpt lat="45.28260885737836360931396484375" lon="-71.1148259975016117095947265625">
        <ele>708.79998779296875</ele>
        <time>2026-08-22T00:47:31.000Z</time>
        <extensions>
          <ns3:TrackPointExtension>
            <ns3:hr>90</ns3:hr>
            <ns3:cad>0</ns3:cad>
          </ns3:TrackPointExtension>
        </extensions>
      </trkpt>
      <trkpt lat="45.282605923712253570556640625" lon="-71.11482926644384860992431640625">
        <ele>709.20001220703125</ele>
        <time>2026-08-22T00:47:32.000Z</time>
        <extensions>
          <ns3:TrackPointExtension>
            <ns3:hr>90</ns3:hr>
            <ns3:cad>0</ns3:cad>
          </ns3:TrackPointExtension>
        </extensions>
      </trkpt>
      <trkpt lat="45.28260215185582637786865234375" lon="-71.114829517900943756103515625">
        <ele>709.4000244140625</ele>
        <time>2026-08-22T00:47:33.000Z</time>
        <extensions>
          <ns3:TrackPointExtension>
            <ns3:hr>90</ns3:hr>
            <ns3:cad>0</ns3:cad>
          </ns3:TrackPointExtension>
        </extensions>
      </trkpt>
      <trkpt lat="45.28260215185582637786865234375" lon="-71.11482943408191204071044921875">
        <ele>709.5999755859375</ele>
        <time>2026-08-22T00:47:34.000Z</time>
        <extensions>
          <ns3:TrackPointExtension>
            <ns3:hr>90</ns3:hr>
            <ns3:cad>0</ns3:cad>
          </ns3:TrackPointExtension>
        </extensions>
      </trkpt>
      <trkpt lat="45.28260215185582637786865234375" lon="-71.11482943408191204071044921875">
        <ele>709.5999755859375</ele>
        <time>2026-08-22T00:47:35.000Z</time>
        <extensions>
          <ns3:TrackPointExtension>
            <ns3:hr>90</ns3:hr>
            <ns3:cad>0</ns3:cad>
          </ns3:TrackPointExtension>
        </extensions>
      </trkpt>
      <trkpt lat="45.28260215185582637786865234375" lon="-71.11482943408191204071044921875">
        <ele>709.5999755859375</ele>
        <time>2026-08-22T00:47:36.000Z</time>
        <extensions>
          <ns3:TrackPointExtension>
            <ns3:hr>91</ns3:hr>
            <ns3:cad>0</ns3:cad>
          </ns3:TrackPointExtension>
        </extensions>
      </trkpt>
      <trkpt lat="45.28260215185582637786865234375" lon="-71.11482943408191204071044921875">
        <ele>709.5999755859375</ele>
        <time>2026-08-22T00:47:37.000Z</time>
        <extensions>
          <ns3:TrackPointExtension>
            <ns3:hr>92</ns3:hr>
            <ns3:cad>0</ns3:cad>
          </ns3:TrackPointExtension>
        </extensions>
      </trkpt>
      <trkpt lat="45.28260215185582637786865234375" lon="-71.11482943408191204071044921875">
        <ele>709.5999755859375</ele>
        <time>2026-08-22T00:47:38.000Z</time>
        <extensions>
          <ns3:TrackPointExtension>
            <ns3:hr>91</ns3:hr>
            <ns3:cad>0</ns3:cad>
          </ns3:TrackPointExtension>
        </extensions>
      </trkpt>
      <trkpt lat="45.28260215185582637786865234375" lon="-71.11482943408191204071044921875">
        <ele>709.5999755859375</ele>
        <time>2026-08-22T00:47:39.000Z</time>
        <extensions>
          <ns3:TrackPointExtension>
            <ns3:hr>91</ns3:hr>
            <ns3:cad>0</ns3:cad>
          </ns3:TrackPointExtension>
        </extensions>
      </trkpt>
      <trkpt lat="45.28260215185582637786865234375" lon="-71.11482943408191204071044921875">
        <ele>709.5999755859375</ele>
        <time>2026-08-22T00:47:40.000Z</time>
        <extensions>
          <ns3:TrackPointExtension>
            <ns3:hr>91</ns3:hr>
            <ns3:cad>0</ns3:cad>
          </ns3:TrackPointExtension>
        </extensions>
      </trkpt>
      <trkpt lat="45.28260215185582637786865234375" lon="-71.11482943408191204071044921875">
        <ele>709.79998779296875</ele>
        <time>2026-08-22T00:47:41.000Z</time>
        <extensions>
          <ns3:TrackPointExtension>
            <ns3:hr>91</ns3:hr>
            <ns3:cad>0</ns3:cad>
          </ns3:TrackPointExtension>
        </extensions>
      </trkpt>
      <trkpt lat="45.28260215185582637786865234375" lon="-71.11482943408191204071044921875">
        <ele>709.79998779296875</ele>
        <time>2026-08-22T00:47:42.000Z</time>
        <extensions>
          <ns3:TrackPointExtension>
            <ns3:hr>92</ns3:hr>
            <ns3:cad>0</ns3:cad>
          </ns3:TrackPointExtension>
        </extensions>
      </trkpt>
      <trkpt lat="45.28260215185582637786865234375" lon="-71.11482943408191204071044921875">
        <ele>709.79998779296875</ele>
        <time>2026-08-22T00:47:43.000Z</time>
        <extensions>
          <ns3:TrackPointExtension>
            <ns3:hr>91</ns3:hr>
            <ns3:cad>0</ns3:cad>
          </ns3:TrackPointExtension>
        </extensions>
      </trkpt>
      <trkpt lat="45.28260215185582637786865234375" lon="-71.11482943408191204071044921875">
        <ele>709.79998779296875</ele>
        <time>2026-08-22T00:47:44.000Z</time>
        <extensions>
          <ns3:TrackPointExtension>
            <ns3:hr>92</ns3:hr>
            <ns3:cad>0</ns3:cad>
          </ns3:TrackPointExtension>
        </extensions>
      </trkpt>
      <trkpt lat="45.28260215185582637786865234375" lon="-71.11482943408191204071044921875">
        <ele>709.79998779296875</ele>
        <time>2026-08-22T00:47:45.000Z</time>
        <extensions>
          <ns3:TrackPointExtension>
            <ns3:hr>92</ns3:hr>
            <ns3:cad>0</ns3:cad>
          </ns3:TrackPointExtension>
        </extensions>
      </trkpt>
      <trkpt lat="45.28260215185582637786865234375" lon="-71.11482943408191204071044921875">
        <ele>709.79998779296875</ele>
        <time>2026-08-22T00:47:46.000Z</time>
        <extensions>
          <ns3:TrackPointExtension>
            <ns3:hr>92</ns3:hr>
            <ns3:cad>0</ns3:cad>
          </ns3:TrackPointExtension>
        </extensions>
      </trkpt>
      <trkpt lat="45.28260215185582637786865234375" lon="-71.11482943408191204071044921875">
        <ele>709.5999755859375</ele>
        <time>2026-08-22T00:47:47.000Z</time>
        <extensions>
          <ns3:TrackPointExtension>
            <ns3:hr>92</ns3:hr>
            <ns3:cad>0</ns3:cad>
          </ns3:TrackPointExtension>
        </extensions>
      </trkpt>
      <trkpt lat="45.28260215185582637786865234375" lon="-71.11482943408191204071044921875">
        <ele>709.5999755859375</ele>
        <time>2026-08-22T00:47:48.000Z</time>
        <extensions>
          <ns3:TrackPointExtension>
            <ns3:hr>92</ns3:hr>
            <ns3:cad>0</ns3:cad>
          </ns3:TrackPointExtension>
        </extensions>
      </trkpt>
      <trkpt lat="45.28260215185582637786865234375" lon="-71.11482943408191204071044921875">
        <ele>709.5999755859375</ele>
        <time>2026-08-22T00:47:49.000Z</time>
        <extensions>
          <ns3:TrackPointExtension>
            <ns3:hr>93</ns3:hr>
            <ns3:cad>0</ns3:cad>
          </ns3:TrackPointExtension>
        </extensions>
      </trkpt>
      <trkpt lat="45.28260215185582637786865234375" lon="-71.11482943408191204071044921875">
        <ele>709.5999755859375</ele>
        <time>2026-08-22T00:47:50.000Z</time>
        <extensions>
          <ns3:TrackPointExtension>
            <ns3:hr>94</ns3:hr>
            <ns3:cad>0</ns3:cad>
          </ns3:TrackPointExtension>
        </extensions>
      </trkpt>
      <trkpt lat="45.28260215185582637786865234375" lon="-71.11482943408191204071044921875">
        <ele>709.79998779296875</ele>
        <time>2026-08-22T00:47:51.000Z</time>
        <extensions>
          <ns3:TrackPointExtension>
            <ns3:hr>94</ns3:hr>
            <ns3:cad>0</ns3:cad>
          </ns3:TrackPointExtension>
        </extensions>
      </trkpt>
      <trkpt lat="45.28260215185582637786865234375" lon="-71.11482943408191204071044921875">
        <ele>709.79998779296875</ele>
        <time>2026-08-22T00:47:52.000Z</time>
        <extensions>
          <ns3:TrackPointExtension>
            <ns3:hr>94</ns3:hr>
            <ns3:cad>0</ns3:cad>
          </ns3:TrackPointExtension>
        </extensions>
      </trkpt>
      <trkpt lat="45.28260215185582637786865234375" lon="-71.11482943408191204071044921875">
        <ele>709.79998779296875</ele>
        <time>2026-08-22T00:47:53.000Z</time>
        <extensions>
          <ns3:TrackPointExtension>
            <ns3:hr>94</ns3:hr>
            <ns3:cad>0</ns3:cad>
          </ns3:TrackPointExtension>
        </extensions>
      </trkpt>
      <trkpt lat="45.28260215185582637786865234375" lon="-71.11482943408191204071044921875">
        <ele>709.79998779296875</ele>
        <time>2026-08-22T00:47:54.000Z</time>
        <extensions>
          <ns3:TrackPointExtension>
            <ns3:hr>95</ns3:hr>
            <ns3:cad>0</ns3:cad>
          </ns3:TrackPointExtension>
        </extensions>
      </trkpt>
      <trkpt lat="45.28260215185582637786865234375" lon="-71.11482943408191204071044921875">
        <ele>709.79998779296875</ele>
        <time>2026-08-22T00:47:55.000Z</time>
        <extensions>
          <ns3:TrackPointExtension>
            <ns3:hr>95</ns3:hr>
            <ns3:cad>0</ns3:cad>
          </ns3:TrackPointExtension>
        </extensions>
      </trkpt>
      <trkpt lat="45.28260215185582637786865234375" lon="-71.11482943408191204071044921875">
        <ele>709.79998779296875</ele>
        <time>2026-08-22T00:47:56.000Z</time>
        <extensions>
          <ns3:TrackPointExtension>
            <ns3:hr>96</ns3:hr>
            <ns3:cad>0</ns3:cad>
          </ns3:TrackPointExtension>
        </extensions>
      </trkpt>
      <trkpt lat="45.2826000563800334930419921875" lon="-71.11483496613800525665283203125">
        <ele>709.79998779296875</ele>
        <time>2026-08-22T00:47:57.000Z</time>
        <extensions>
          <ns3:TrackPointExtension>
            <ns3:hr>96</ns3:hr>
            <ns3:cad>0</ns3:cad>
          </ns3:TrackPointExtension>
        </extensions>
      </trkpt>
      <trkpt lat="45.28258882462978363037109375" lon="-71.11484594643115997314453125">
        <ele>709.79998779296875</ele>
        <time>2026-08-22T00:47:58.000Z</time>
        <extensions>
          <ns3:TrackPointExtension>
            <ns3:hr>95</ns3:hr>
            <ns3:cad>0</ns3:cad>
          </ns3:TrackPointExtension>
        </extensions>
      </trkpt>
      <trkpt lat="45.2825774252414703369140625" lon="-71.114852987229824066162109375">
        <ele>710</ele>
        <time>2026-08-22T00:47:59.000Z</time>
        <extensions>
          <ns3:TrackPointExtension>
            <ns3:hr>95</ns3:hr>
            <ns3:cad>0</ns3:cad>
          </ns3:TrackPointExtension>
        </extensions>
      </trkpt>
      <trkpt lat="45.282560996711254119873046875" lon="-71.11485944129526615142822265625">
        <ele>710</ele>
        <time>2026-08-22T00:48:00.000Z</time>
        <extensions>
          <ns3:TrackPointExtension>
            <ns3:hr>95</ns3:hr>
            <ns3:cad>0</ns3:cad>
          </ns3:TrackPointExtension>
        </extensions>
      </trkpt>
      <trkpt lat="45.2825511060655117034912109375" lon="-71.11486296169459819793701171875">
        <ele>710</ele>
        <time>2026-08-22T00:48:01.000Z</time>
        <extensions>
          <ns3:TrackPointExtension>
            <ns3:hr>94</ns3:hr>
            <ns3:cad>0</ns3:cad>
          </ns3:TrackPointExtension>
        </extensions>
      </trkpt>
      <trkpt lat="45.282533504068851470947265625" lon="-71.11486715264618396759033203125">
        <ele>709.79998779296875</ele>
        <time>2026-08-22T00:48:02.000Z</time>
        <extensions>
          <ns3:TrackPointExtension>
            <ns3:hr>94</ns3:hr>
            <ns3:cad>0</ns3:cad>
          </ns3:TrackPointExtension>
        </extensions>
      </trkpt>
      <trkpt lat="45.28252067975699901580810546875" lon="-71.1148648895323276519775390625">
        <ele>709.79998779296875</ele>
        <time>2026-08-22T00:48:03.000Z</time>
        <extensions>
          <ns3:TrackPointExtension>
            <ns3:hr>94</ns3:hr>
            <ns3:cad>0</ns3:cad>
          </ns3:TrackPointExtension>
        </extensions>
      </trkpt>
      <trkpt lat="45.2825118787586688995361328125" lon="-71.11485256813466548919677734375">
        <ele>709.5999755859375</ele>
        <time>2026-08-22T00:48:04.000Z</time>
        <extensions>
          <ns3:TrackPointExtension>
            <ns3:hr>94</ns3:hr>
            <ns3:cad>0</ns3:cad>
          </ns3:TrackPointExtension>
        </extensions>
      </trkpt>
      <trkpt lat="45.2825103700160980224609375" lon="-71.11483932472765445709228515625">
        <ele>709.5999755859375</ele>
        <time>2026-08-22T00:48:05.000Z</time>
        <extensions>
          <ns3:TrackPointExtension>
            <ns3:hr>94</ns3:hr>
            <ns3:cad>0</ns3:cad>
          </ns3:TrackPointExtension>
        </extensions>
      </trkpt>
      <trkpt lat="45.28250701725482940673828125" lon="-71.1148246563971042633056640625">
        <ele>709.4000244140625</ele>
        <time>2026-08-22T00:48:06.000Z</time>
        <extensions>
          <ns3:TrackPointExtension>
            <ns3:hr>93</ns3:hr>
            <ns3:cad>0</ns3:cad>
          </ns3:TrackPointExtension>
        </extensions>
      </trkpt>
      <trkpt lat="45.2824954502284526824951171875" lon="-71.11481652595102787017822265625">
        <ele>709.5999755859375</ele>
        <time>2026-08-22T00:48:07.000Z</time>
        <extensions>
          <ns3:TrackPointExtension>
            <ns3:hr>93</ns3:hr>
            <ns3:cad>0</ns3:cad>
          </ns3:TrackPointExtension>
        </extensions>
      </trkpt>
      <trkpt lat="45.28248329646885395050048828125" lon="-71.11482239328324794769287109375">
        <ele>709.5999755859375</ele>
        <time>2026-08-22T00:48:08.000Z</time>
        <extensions>
          <ns3:TrackPointExtension>
            <ns3:hr>94</ns3:hr>
            <ns3:cad>0</ns3:cad>
          </ns3:TrackPointExtension>
        </extensions>
      </trkpt>
      <trkpt lat="45.28246887959539890289306640625" lon="-71.11482759006321430206298828125">
        <ele>709.79998779296875</ele>
        <time>2026-08-22T00:48:09.000Z</time>
        <extensions>
          <ns3:TrackPointExtension>
            <ns3:hr>94</ns3:hr>
            <ns3:cad>0</ns3:cad>
          </ns3:TrackPointExtension>
        </extensions>
      </trkpt>
      <trkpt lat="45.28246049769222736358642578125" lon="-71.1148303560912609100341796875">
        <ele>710</ele>
        <time>2026-08-22T00:48:10.000Z</time>
        <extensions>
          <ns3:TrackPointExtension>
            <ns3:hr>94</ns3:hr>
            <ns3:cad>0</ns3:cad>
          </ns3:TrackPointExtension>
        </extensions>
      </trkpt>
      <trkpt lat="45.2824548818171024322509765625" lon="-71.11482339911162853240966796875">
        <ele>710.20001220703125</ele>
        <time>2026-08-22T00:48:11.000Z</time>
        <extensions>
          <ns3:TrackPointExtension>
            <ns3:hr>94</ns3:hr>
            <ns3:cad>0</ns3:cad>
          </ns3:TrackPointExtension>
        </extensions>
      </trkpt>
      <trkpt lat="45.28245337307453155517578125" lon="-71.1148189567029476165771484375">
        <ele>710.4000244140625</ele>
        <time>2026-08-22T00:48:12.000Z</time>
        <extensions>
          <ns3:TrackPointExtension>
            <ns3:hr>94</ns3:hr>
            <ns3:cad>0</ns3:cad>
          </ns3:TrackPointExtension>
        </extensions>
      </trkpt>
      <trkpt lat="45.2824505232274532318115234375" lon="-71.11481535248458385467529296875">
        <ele>710.79998779296875</ele>
        <time>2026-08-22T00:48:13.000Z</time>
        <extensions>
          <ns3:TrackPointExtension>
            <ns3:hr>94</ns3:hr>
            <ns3:cad>0</ns3:cad>
          </ns3:TrackPointExtension>
        </extensions>
      </trkpt>
      <trkpt lat="45.282441638410091400146484375" lon="-71.11481166444718837738037109375">
        <ele>711</ele>
        <time>2026-08-22T00:48:14.000Z</time>
        <extensions>
          <ns3:TrackPointExtension>
            <ns3:hr>93</ns3:hr>
            <ns3:cad>0</ns3:cad>
          </ns3:TrackPointExtension>
        </extensions>
      </trkpt>
      <trkpt lat="45.2824408002197742462158203125" lon="-71.114810071885585784912109375">
        <ele>711.20001220703125</ele>
        <time>2026-08-22T00:48:15.000Z</time>
        <extensions>
          <ns3:TrackPointExtension>
            <ns3:hr>93</ns3:hr>
            <ns3:cad>0</ns3:cad>
          </ns3:TrackPointExtension>
        </extensions>
      </trkpt>
      <trkpt lat="45.2824357710778713226318359375" lon="-71.11480294726788997650146484375">
        <ele>711.5999755859375</ele>
        <time>2026-08-22T00:48:16.000Z</time>
        <extensions>
          <ns3:TrackPointExtension>
            <ns3:hr>94</ns3:hr>
            <ns3:cad>0</ns3:cad>
          </ns3:TrackPointExtension>
        </extensions>
      </trkpt>
      <trkpt lat="45.2824351005256175994873046875" lon="-71.114799343049526214599609375">
        <ele>711.79998779296875</ele>
        <time>2026-08-22T00:48:17.000Z</time>
        <extensions>
          <ns3:TrackPointExtension>
            <ns3:hr>94</ns3:hr>
            <ns3:cad>0</ns3:cad>
          </ns3:TrackPointExtension>
        </extensions>
      </trkpt>
      <trkpt lat="45.28243317268788814544677734375" lon="-71.1147881112992763519287109375">
        <ele>712</ele>
        <time>2026-08-22T00:48:18.000Z</time>
        <extensions>
          <ns3:TrackPointExtension>
            <ns3:hr>94</ns3:hr>
            <ns3:cad>47</ns3:cad>
          </ns3:TrackPointExtension>
        </extensions>
      </trkpt>
      <trkpt lat="45.2824354358017444610595703125" lon="-71.1147931404411792755126953125">
        <ele>712.4000244140625</ele>
        <time>2026-08-22T00:48:19.000Z</time>
        <extensions>
          <ns3:TrackPointExtension>
            <ns3:hr>96</ns3:hr>
            <ns3:cad>47</ns3:cad>
          </ns3:TrackPointExtension>
        </extensions>
      </trkpt>
      <trkpt lat="45.2824325859546661376953125" lon="-71.11478366889059543609619140625">
        <ele>712.5999755859375</ele>
        <time>2026-08-22T00:48:20.000Z</time>
        <extensions>
          <ns3:TrackPointExtension>
            <ns3:hr>101</ns3:hr>
            <ns3:cad>0</ns3:cad>
          </ns3:TrackPointExtension>
        </extensions>
      </trkpt>
      <trkpt lat="45.282430239021778106689453125" lon="-71.11476480960845947265625">
        <ele>712.79998779296875</ele>
        <time>2026-08-22T00:48:21.000Z</time>
        <extensions>
          <ns3:TrackPointExtension>
            <ns3:hr>107</ns3:hr>
            <ns3:cad>0</ns3:cad>
          </ns3:TrackPointExtension>
        </extensions>
      </trkpt>
      <trkpt lat="45.28243065811693668365478515625" lon="-71.1147626303136348724365234375">
        <ele>713</ele>
        <time>2026-08-22T00:48:22.000Z</time>
        <extensions>
          <ns3:TrackPointExtension>
            <ns3:hr>109</ns3:hr>
            <ns3:cad>0</ns3:cad>
          </ns3:TrackPointExtension>
        </extensions>
      </trkpt>
      <trkpt lat="45.282429568469524383544921875" lon="-71.1147488839924335479736328125">
        <ele>713.20001220703125</ele>
        <time>2026-08-22T00:48:23.000Z</time>
        <extensions>
          <ns3:TrackPointExtension>
            <ns3:hr>110</ns3:hr>
            <ns3:cad>0</ns3:cad>
          </ns3:TrackPointExtension>
        </extensions>
      </trkpt>
      <trkpt lat="45.282430239021778106689453125" lon="-71.1147384904325008392333984375">
        <ele>713.4000244140625</ele>
        <time>2026-08-22T00:48:24.000Z</time>
        <extensions>
          <ns3:TrackPointExtension>
            <ns3:hr>111</ns3:hr>
            <ns3:cad>0</ns3:cad>
          </ns3:TrackPointExtension>
        </extensions>
      </trkpt>
      <trkpt lat="45.2824297361075878143310546875" lon="-71.1147193796932697296142578125">
        <ele>713.5999755859375</ele>
        <time>2026-08-22T00:48:25.000Z</time>
        <extensions>
          <ns3:TrackPointExtension>
            <ns3:hr>111</ns3:hr>
            <ns3:cad>0</ns3:cad>
          </ns3:TrackPointExtension>
        </extensions>
      </trkpt>
      <trkpt lat="45.28242789208889007568359375" lon="-71.1147125065326690673828125">
        <ele>713.79998779296875</ele>
        <time>2026-08-22T00:48:26.000Z</time>
        <extensions>
          <ns3:TrackPointExtension>
            <ns3:hr>112</ns3:hr>
            <ns3:cad>0</ns3:cad>
          </ns3:TrackPointExtension>
        </extensions>
      </trkpt>
      <trkpt lat="45.28242127038538455963134765625" lon="-71.11469666473567485809326171875">
        <ele>714</ele>
        <time>2026-08-22T00:48:27.000Z</time>
        <extensions>
          <ns3:TrackPointExtension>
            <ns3:hr>112</ns3:hr>
            <ns3:cad>0</ns3:cad>
          </ns3:TrackPointExtension>
        </extensions>
      </trkpt>
      <trkpt lat="45.2824176661670207977294921875" lon="-71.11469230614602565765380859375">
        <ele>714.20001220703125</ele>
        <time>2026-08-22T00:48:28.000Z</time>
        <extensions>
          <ns3:TrackPointExtension>
            <ns3:hr>113</ns3:hr>
            <ns3:cad>0</ns3:cad>
          </ns3:TrackPointExtension>
        </extensions>
      </trkpt>
      <trkpt lat="45.28240869753062725067138671875" lon="-71.1146801523864269256591796875">
        <ele>714.4000244140625</ele>
        <time>2026-08-22T00:48:29.000Z</time>
        <extensions>
          <ns3:TrackPointExtension>
            <ns3:hr>113</ns3:hr>
            <ns3:cad>0</ns3:cad>
          </ns3:TrackPointExtension>
        </extensions>
      </trkpt>
      <trkpt lat="45.28240199200809001922607421875" lon="-71.11466514877974987030029296875">
        <ele>714.5999755859375</ele>
        <time>2026-08-22T00:48:30.000Z</time>
        <extensions>
          <ns3:TrackPointExtension>
            <ns3:hr>114</ns3:hr>
            <ns3:cad>0</ns3:cad>
          </ns3:TrackPointExtension>
        </extensions>
      </trkpt>
      <trkpt lat="45.28239729814231395721435546875" lon="-71.1146590299904346466064453125">
        <ele>714.79998779296875</ele>
        <time>2026-08-22T00:48:31.000Z</time>
        <extensions>
          <ns3:TrackPointExtension>
            <ns3:hr>114</ns3:hr>
            <ns3:cad>0</ns3:cad>
          </ns3:TrackPointExtension>
        </extensions>
      </trkpt>
      <trkpt lat="45.2823921851813793182373046875" lon="-71.1146479658782482147216796875">
        <ele>715.20001220703125</ele>
        <time>2026-08-22T00:48:32.000Z</time>
        <extensions>
          <ns3:TrackPointExtension>
            <ns3:hr>116</ns3:hr>
            <ns3:cad>0</ns3:cad>
          </ns3:TrackPointExtension>
        </extensions>
      </trkpt>
      <trkpt lat="45.28238631784915924072265625" lon="-71.11462944187223911285400390625">
        <ele>715.4000244140625</ele>
        <time>2026-08-22T00:48:33.000Z</time>
        <extensions>
          <ns3:TrackPointExtension>
            <ns3:hr>120</ns3:hr>
            <ns3:cad>0</ns3:cad>
          </ns3:TrackPointExtension>
        </extensions>
      </trkpt>
      <trkpt lat="45.28238388709723949432373046875" lon="-71.1146174557507038116455078125">
        <ele>715.79998779296875</ele>
        <time>2026-08-22T00:48:34.000Z</time>
        <extensions>
          <ns3:TrackPointExtension>
            <ns3:hr>122</ns3:hr>
            <ns3:cad>44</ns3:cad>
          </ns3:TrackPointExtension>
        </extensions>
      </trkpt>
      <trkpt lat="45.28237818740308284759521484375" lon="-71.11460412852466106414794921875">
        <ele>716</ele>
        <time>2026-08-22T00:48:35.000Z</time>
        <extensions>
          <ns3:TrackPointExtension>
            <ns3:hr>123</ns3:hr>
            <ns3:cad>44</ns3:cad>
          </ns3:TrackPointExtension>
        </extensions>
      </trkpt>
      <trkpt lat="45.282366536557674407958984375" lon="-71.11458308994770050048828125">
        <ele>716.20001220703125</ele>
        <time>2026-08-22T00:48:36.000Z</time>
        <extensions>
          <ns3:TrackPointExtension>
            <ns3:hr>123</ns3:hr>
            <ns3:cad>44</ns3:cad>
          </ns3:TrackPointExtension>
        </extensions>
      </trkpt>
      <trkpt lat="45.28235144913196563720703125" lon="-71.114570684731006622314453125">
        <ele>716.4000244140625</ele>
        <time>2026-08-22T00:48:37.000Z</time>
        <extensions>
          <ns3:TrackPointExtension>
            <ns3:hr>123</ns3:hr>
            <ns3:cad>44</ns3:cad>
          </ns3:TrackPointExtension>
        </extensions>
      </trkpt>
      <trkpt lat="45.282335691154003143310546875" lon="-71.1145587824285030364990234375">
        <ele>716.5999755859375</ele>
        <time>2026-08-22T00:48:38.000Z</time>
        <extensions>
          <ns3:TrackPointExtension>
            <ns3:hr>124</ns3:hr>
            <ns3:cad>44</ns3:cad>
          </ns3:TrackPointExtension>
        </extensions>
      </trkpt>
      <trkpt lat="45.28232370503246784210205078125" lon="-71.11455115489661693572998046875">
        <ele>716.79998779296875</ele>
        <time>2026-08-22T00:48:39.000Z</time>
        <extensions>
          <ns3:TrackPointExtension>
            <ns3:hr>124</ns3:hr>
            <ns3:cad>45</ns3:cad>
          </ns3:TrackPointExtension>
        </extensions>
      </trkpt>
      <trkpt lat="45.282315909862518310546875" lon="-71.1145410127937793731689453125">
        <ele>717.20001220703125</ele>
        <time>2026-08-22T00:48:40.000Z</time>
        <extensions>
          <ns3:TrackPointExtension>
            <ns3:hr>125</ns3:hr>
            <ns3:cad>45</ns3:cad>
          </ns3:TrackPointExtension>
        </extensions>
      </trkpt>
      <trkpt lat="45.282306857407093048095703125" lon="-71.11453154124319553375244140625">
        <ele>717.20001220703125</ele>
        <time>2026-08-22T00:48:41.000Z</time>
        <extensions>
          <ns3:TrackPointExtension>
            <ns3:hr>126</ns3:hr>
            <ns3:cad>45</ns3:cad>
          </ns3:TrackPointExtension>
        </extensions>
      </trkpt>
      <trkpt lat="45.2822957932949066162109375" lon="-71.11452148295938968658447265625">
        <ele>717.4000244140625</ele>
        <time>2026-08-22T00:48:42.000Z</time>
        <extensions>
          <ns3:TrackPointExtension>
            <ns3:hr>127</ns3:hr>
            <ns3:cad>45</ns3:cad>
          </ns3:TrackPointExtension>
        </extensions>
      </trkpt>
      <trkpt lat="45.28228213079273700714111328125" lon="-71.11452064476907253265380859375">
        <ele>717.5999755859375</ele>
        <time>2026-08-22T00:48:43.000Z</time>
        <extensions>
          <ns3:TrackPointExtension>
            <ns3:hr>128</ns3:hr>
            <ns3:cad>45</ns3:cad>
          </ns3:TrackPointExtension>
        </extensions>
      </trkpt>
      <trkpt lat="45.28226553462445735931396484375" lon="-71.114515364170074462890625">
        <ele>717.79998779296875</ele>
        <time>2026-08-22T00:48:44.000Z</time>
        <extensions>
          <ns3:TrackPointExtension>
            <ns3:hr>128</ns3:hr>
            <ns3:cad>45</ns3:cad>
          </ns3:TrackPointExtension>
        </extensions>
      </trkpt>
      <trkpt lat="45.28225279413163661956787109375" lon="-71.1145068146288394927978515625">
        <ele>717.79998779296875</ele>
        <time>2026-08-22T00:48:45.000Z</time>
        <extensions>
          <ns3:TrackPointExtension>
            <ns3:hr>128</ns3:hr>
            <ns3:cad>45</ns3:cad>
          </ns3:TrackPointExtension>
        </extensions>
      </trkpt>
      <trkpt lat="45.28224273584783077239990234375" lon="-71.1145006120204925537109375">
        <ele>718</ele>
        <time>2026-08-22T00:48:46.000Z</time>
        <extensions>
          <ns3:TrackPointExtension>
            <ns3:hr>128</ns3:hr>
            <ns3:cad>0</ns3:cad>
          </ns3:TrackPointExtension>
        </extensions>
      </trkpt>
      <trkpt lat="45.28223485685884952545166015625" lon="-71.11449348740279674530029296875">
        <ele>718</ele>
        <time>2026-08-22T00:48:47.000Z</time>
        <extensions>
          <ns3:TrackPointExtension>
            <ns3:hr>130</ns3:hr>
            <ns3:cad>0</ns3:cad>
          </ns3:TrackPointExtension>
        </extensions>
      </trkpt>
      <trkpt lat="45.28222580440342426300048828125" lon="-71.1144796572625637054443359375">
        <ele>718</ele>
        <time>2026-08-22T00:48:48.000Z</time>
        <extensions>
          <ns3:TrackPointExtension>
            <ns3:hr>131</ns3:hr>
            <ns3:cad>0</ns3:cad>
          </ns3:TrackPointExtension>
        </extensions>
      </trkpt>
      <trkpt lat="45.282219685614109039306640625" lon="-71.11447471193969249725341796875">
        <ele>718.20001220703125</ele>
        <time>2026-08-22T00:48:49.000Z</time>
        <extensions>
          <ns3:TrackPointExtension>
            <ns3:hr>132</ns3:hr>
            <ns3:cad>0</ns3:cad>
          </ns3:TrackPointExtension>
        </extensions>
      </trkpt>
      <trkpt lat="45.28220669366419315338134765625" lon="-71.11446700058877468109130859375">
        <ele>718.20001220703125</ele>
        <time>2026-08-22T00:48:50.000Z</time>
        <extensions>
          <ns3:TrackPointExtension>
            <ns3:hr>133</ns3:hr>
            <ns3:cad>0</ns3:cad>
          </ns3:TrackPointExtension>
        </extensions>
      </trkpt>
      <trkpt lat="45.28219345025718212127685546875" lon="-71.114459373056888580322265625">
        <ele>718.4000244140625</ele>
        <time>2026-08-22T00:48:51.000Z</time>
        <extensions>
          <ns3:TrackPointExtension>
            <ns3:hr>134</ns3:hr>
            <ns3:cad>0</ns3:cad>
          </ns3:TrackPointExtension>
        </extensions>
      </trkpt>
      <trkpt lat="45.2821812964975833892822265625" lon="-71.11445627175271511077880859375">
        <ele>718.5999755859375</ele>
        <time>2026-08-22T00:48:52.000Z</time>
        <extensions>
          <ns3:TrackPointExtension>
            <ns3:hr>133</ns3:hr>
            <ns3:cad>0</ns3:cad>
          </ns3:TrackPointExtension>
        </extensions>
      </trkpt>
      <trkpt lat="45.2821652032434940338134765625" lon="-71.11444923095405101776123046875">
        <ele>718.79998779296875</ele>
        <time>2026-08-22T00:48:53.000Z</time>
        <extensions>
          <ns3:TrackPointExtension>
            <ns3:hr>134</ns3:hr>
            <ns3:cad>0</ns3:cad>
          </ns3:TrackPointExtension>
        </extensions>
      </trkpt>
      <trkpt lat="45.28215388767421245574951171875" lon="-71.1144434474408626556396484375">
        <ele>719</ele>
        <time>2026-08-22T00:48:54.000Z</time>
        <extensions>
          <ns3:TrackPointExtension>
            <ns3:hr>135</ns3:hr>
            <ns3:cad>0</ns3:cad>
          </ns3:TrackPointExtension>
        </extensions>
      </trkpt>
      <trkpt lat="45.28213796205818653106689453125" lon="-71.1144390888512134552001953125">
        <ele>719.20001220703125</ele>
        <time>2026-08-22T00:48:55.000Z</time>
        <extensions>
          <ns3:TrackPointExtension>
            <ns3:hr>135</ns3:hr>
            <ns3:cad>0</ns3:cad>
          </ns3:TrackPointExtension>
        </extensions>
      </trkpt>
      <trkpt lat="45.2821269817650318145751953125" lon="-71.1144350655376911163330078125">
        <ele>719.4000244140625</ele>
        <time>2026-08-22T00:48:56.000Z</time>
        <extensions>
          <ns3:TrackPointExtension>
            <ns3:hr>135</ns3:hr>
            <ns3:cad>0</ns3:cad>
          </ns3:TrackPointExtension>
        </extensions>
      </trkpt>
      <trkpt lat="45.28211868368089199066162109375" lon="-71.11442559398710727691650390625">
        <ele>719.5999755859375</ele>
        <time>2026-08-22T00:48:57.000Z</time>
        <extensions>
          <ns3:TrackPointExtension>
            <ns3:hr>135</ns3:hr>
            <ns3:cad>0</ns3:cad>
          </ns3:TrackPointExtension>
        </extensions>
      </trkpt>
      <trkpt lat="45.28210728429257869720458984375" lon="-71.1144129373133182525634765625">
        <ele>719.79998779296875</ele>
        <time>2026-08-22T00:48:58.000Z</time>
        <extensions>
          <ns3:TrackPointExtension>
            <ns3:hr>136</ns3:hr>
            <ns3:cad>47</ns3:cad>
          </ns3:TrackPointExtension>
        </extensions>
      </trkpt>
      <trkpt lat="45.28209705837070941925048828125" lon="-71.11440338194370269775390625">
        <ele>720</ele>
        <time>2026-08-22T00:48:59.000Z</time>
        <extensions>
          <ns3:TrackPointExtension>
            <ns3:hr>136</ns3:hr>
            <ns3:cad>47</ns3:cad>
          </ns3:TrackPointExtension>
        </extensions>
      </trkpt>
      <trkpt lat="45.282082892954349517822265625" lon="-71.11439474858343601226806640625">
        <ele>720.20001220703125</ele>
        <time>2026-08-22T00:49:00.000Z</time>
        <extensions>
          <ns3:TrackPointExtension>
            <ns3:hr>137</ns3:hr>
            <ns3:cad>47</ns3:cad>
          </ns3:TrackPointExtension>
        </extensions>
      </trkpt>
      <trkpt lat="45.28206587769091129302978515625" lon="-71.11439625732600688934326171875">
        <ele>720.20001220703125</ele>
        <time>2026-08-22T00:49:01.000Z</time>
        <extensions>
          <ns3:TrackPointExtension>
            <ns3:hr>137</ns3:hr>
            <ns3:cad>47</ns3:cad>
          </ns3:TrackPointExtension>
        </extensions>
      </trkpt>
      <trkpt lat="45.282053053379058837890625" lon="-71.11439391039311885833740234375">
        <ele>720.4000244140625</ele>
        <time>2026-08-22T00:49:02.000Z</time>
        <extensions>
          <ns3:TrackPointExtension>
            <ns3:hr>137</ns3:hr>
            <ns3:cad>47</ns3:cad>
          </ns3:TrackPointExtension>
        </extensions>
      </trkpt>
      <trkpt lat="45.28204073198139667510986328125" lon="-71.1143881268799304962158203125">
        <ele>720.5999755859375</ele>
        <time>2026-08-22T00:49:03.000Z</time>
        <extensions>
          <ns3:TrackPointExtension>
            <ns3:hr>137</ns3:hr>
            <ns3:cad>50</ns3:cad>
          </ns3:TrackPointExtension>
        </extensions>
      </trkpt>
      <trkpt lat="45.28203167952597141265869140625" lon="-71.1143852770328521728515625">
        <ele>720.5999755859375</ele>
        <time>2026-08-22T00:49:04.000Z</time>
        <extensions>
          <ns3:TrackPointExtension>
            <ns3:hr>136</ns3:hr>
            <ns3:cad>50</ns3:cad>
          </ns3:TrackPointExtension>
        </extensions>
      </trkpt>
      <trkpt lat="45.2820206992328166961669921875" lon="-71.1143787391483783721923828125">
        <ele>720.79998779296875</ele>
        <time>2026-08-22T00:49:05.000Z</time>
        <extensions>
          <ns3:TrackPointExtension>
            <ns3:hr>137</ns3:hr>
            <ns3:cad>50</ns3:cad>
          </ns3:TrackPointExtension>
        </extensions>
      </trkpt>
      <trkpt lat="45.282003767788410186767578125" lon="-71.11436985433101654052734375">
        <ele>721.20001220703125</ele>
        <time>2026-08-22T00:49:06.000Z</time>
        <extensions>
          <ns3:TrackPointExtension>
            <ns3:hr>137</ns3:hr>
            <ns3:cad>52</ns3:cad>
          </ns3:TrackPointExtension>
        </extensions>
      </trkpt>
      <trkpt lat="45.28199362568557262420654296875" lon="-71.11436474137008190155029296875">
        <ele>721.4000244140625</ele>
        <time>2026-08-22T00:49:07.000Z</time>
        <extensions>
          <ns3:TrackPointExtension>
            <ns3:hr>137</ns3:hr>
            <ns3:cad>52</ns3:cad>
          </ns3:TrackPointExtension>
        </extensions>
      </trkpt>
      <trkpt lat="45.28198088519275188446044921875" lon="-71.11435987986624240875244140625">
        <ele>721.5999755859375</ele>
        <time>2026-08-22T00:49:08.000Z</time>
        <extensions>
          <ns3:TrackPointExtension>
            <ns3:hr>137</ns3:hr>
            <ns3:cad>52</ns3:cad>
          </ns3:TrackPointExtension>
        </extensions>
      </trkpt>
      <trkpt lat="45.28196923434734344482421875" lon="-71.11435384489595890045166015625">
        <ele>721.79998779296875</ele>
        <time>2026-08-22T00:49:09.000Z</time>
        <extensions>
          <ns3:TrackPointExtension>
            <ns3:hr>137</ns3:hr>
            <ns3:cad>52</ns3:cad>
          </ns3:TrackPointExtension>
        </extensions>
      </trkpt>
      <trkpt lat="45.2819603495299816131591796875" lon="-71.1143499054014682769775390625">
        <ele>722</ele>
        <time>2026-08-22T00:49:10.000Z</time>
        <extensions>
          <ns3:TrackPointExtension>
            <ns3:hr>136</ns3:hr>
            <ns3:cad>52</ns3:cad>
          </ns3:TrackPointExtension>
        </extensions>
      </trkpt>
      <trkpt lat="45.28195104561746120452880859375" lon="-71.11434294842183589935302734375">
        <ele>722.4000244140625</ele>
        <time>2026-08-22T00:49:11.000Z</time>
        <extensions>
          <ns3:TrackPointExtension>
            <ns3:hr>136</ns3:hr>
            <ns3:cad>51</ns3:cad>
          </ns3:TrackPointExtension>
        </extensions>
      </trkpt>
      <trkpt lat="45.28194216080009937286376953125" lon="-71.11433758400380611419677734375">
        <ele>722.5999755859375</ele>
        <time>2026-08-22T00:49:12.000Z</time>
        <extensions>
          <ns3:TrackPointExtension>
            <ns3:hr>136</ns3:hr>
            <ns3:cad>51</ns3:cad>
          </ns3:TrackPointExtension>
        </extensions>
      </trkpt>
      <trkpt lat="45.28193436563014984130859375" lon="-71.114332973957061767578125">
        <ele>722.79998779296875</ele>
        <time>2026-08-22T00:49:13.000Z</time>
        <extensions>
          <ns3:TrackPointExtension>
            <ns3:hr>136</ns3:hr>
            <ns3:cad>50</ns3:cad>
          </ns3:TrackPointExtension>
        </extensions>
      </trkpt>
      <trkpt lat="45.281926654279232025146484375" lon="-71.1143254302442073822021484375">
        <ele>722.79998779296875</ele>
        <time>2026-08-22T00:49:14.000Z</time>
        <extensions>
          <ns3:TrackPointExtension>
            <ns3:hr>137</ns3:hr>
            <ns3:cad>50</ns3:cad>
          </ns3:TrackPointExtension>
        </extensions>
      </trkpt>
      <trkpt lat="45.2819204516708850860595703125" lon="-71.11431361176073551177978515625">
        <ele>723</ele>
        <time>2026-08-22T00:49:15.000Z</time>
        <extensions>
          <ns3:TrackPointExtension>
            <ns3:hr>137</ns3:hr>
            <ns3:cad>0</ns3:cad>
          </ns3:TrackPointExtension>
        </extensions>
      </trkpt>
      <trkpt lat="45.2819122374057769775390625" lon="-71.1142996139824390411376953125">
        <ele>723.20001220703125</ele>
        <time>2026-08-22T00:49:16.000Z</time>
        <extensions>
          <ns3:TrackPointExtension>
            <ns3:hr>137</ns3:hr>
            <ns3:cad>0</ns3:cad>
          </ns3:TrackPointExtension>
        </extensions>
      </trkpt>
      <trkpt lat="45.28189907781779766082763671875" lon="-71.1142841912806034088134765625">
        <ele>723.20001220703125</ele>
        <time>2026-08-22T00:49:17.000Z</time>
        <extensions>
          <ns3:TrackPointExtension>
            <ns3:hr>139</ns3:hr>
            <ns3:cad>0</ns3:cad>
          </ns3:TrackPointExtension>
        </extensions>
      </trkpt>
      <trkpt lat="45.281885080039501190185546875" lon="-71.11427539028227329254150390625">
        <ele>723.4000244140625</ele>
        <time>2026-08-22T00:49:18.000Z</time>
        <extensions>
          <ns3:TrackPointExtension>
            <ns3:hr>141</ns3:hr>
            <ns3:cad>0</ns3:cad>
          </ns3:TrackPointExtension>
        </extensions>
      </trkpt>
      <trkpt lat="45.28186856769025325775146484375" lon="-71.1142798326909542083740234375">
        <ele>723.5999755859375</ele>
        <time>2026-08-22T00:49:19.000Z</time>
        <extensions>
          <ns3:TrackPointExtension>
            <ns3:hr>141</ns3:hr>
            <ns3:cad>0</ns3:cad>
          </ns3:TrackPointExtension>
        </extensions>
      </trkpt>
      <trkpt lat="45.28185666538774967193603515625" lon="-71.11428125761449337005615234375">
        <ele>723.5999755859375</ele>
        <time>2026-08-22T00:49:20.000Z</time>
        <extensions>
          <ns3:TrackPointExtension>
            <ns3:hr>141</ns3:hr>
            <ns3:cad>0</ns3:cad>
          </ns3:TrackPointExtension>
        </extensions>
      </trkpt>
      <trkpt lat="45.281843505799770355224609375" lon="-71.1142768152058124542236328125">
        <ele>723.5999755859375</ele>
        <time>2026-08-22T00:49:21.000Z</time>
        <extensions>
          <ns3:TrackPointExtension>
            <ns3:hr>140</ns3:hr>
            <ns3:cad>0</ns3:cad>
          </ns3:TrackPointExtension>
        </extensions>
      </trkpt>
      <trkpt lat="45.281826741993427276611328125" lon="-71.1142751388251781463623046875">
        <ele>723.5999755859375</ele>
        <time>2026-08-22T00:49:22.000Z</time>
        <extensions>
          <ns3:TrackPointExtension>
            <ns3:hr>139</ns3:hr>
            <ns3:cad>0</ns3:cad>
          </ns3:TrackPointExtension>
        </extensions>
      </trkpt>
      <trkpt lat="45.2818138338625431060791015625" lon="-71.11426952295005321502685546875">
        <ele>723.5999755859375</ele>
        <time>2026-08-22T00:49:23.000Z</time>
        <extensions>
          <ns3:TrackPointExtension>
            <ns3:hr>140</ns3:hr>
            <ns3:cad>0</ns3:cad>
          </ns3:TrackPointExtension>
        </extensions>
      </trkpt>
      <trkpt lat="45.281801931560039520263671875" lon="-71.11426197923719882965087890625">
        <ele>723.5999755859375</ele>
        <time>2026-08-22T00:49:24.000Z</time>
        <extensions>
          <ns3:TrackPointExtension>
            <ns3:hr>140</ns3:hr>
            <ns3:cad>0</ns3:cad>
          </ns3:TrackPointExtension>
        </extensions>
      </trkpt>
      <trkpt lat="45.28178994543850421905517578125" lon="-71.11425317823886871337890625">
        <ele>723.79998779296875</ele>
        <time>2026-08-22T00:49:25.000Z</time>
        <extensions>
          <ns3:TrackPointExtension>
            <ns3:hr>140</ns3:hr>
            <ns3:cad>0</ns3:cad>
          </ns3:TrackPointExtension>
        </extensions>
      </trkpt>
      <trkpt lat="45.2817772887647151947021484375" lon="-71.11423716880381107330322265625">
        <ele>723.79998779296875</ele>
        <time>2026-08-22T00:49:26.000Z</time>
        <extensions>
          <ns3:TrackPointExtension>
            <ns3:hr>140</ns3:hr>
            <ns3:cad>0</ns3:cad>
          </ns3:TrackPointExtension>
        </extensions>
      </trkpt>
      <trkpt lat="45.2817675657570362091064453125" lon="-71.114218644797801971435546875">
        <ele>723.79998779296875</ele>
        <time>2026-08-22T00:49:27.000Z</time>
        <extensions>
          <ns3:TrackPointExtension>
            <ns3:hr>140</ns3:hr>
            <ns3:cad>0</ns3:cad>
          </ns3:TrackPointExtension>
        </extensions>
      </trkpt>
      <trkpt lat="45.281763374805450439453125" lon="-71.1141986958682537078857421875">
        <ele>723.79998779296875</ele>
        <time>2026-08-22T00:49:28.000Z</time>
        <extensions>
          <ns3:TrackPointExtension>
            <ns3:hr>140</ns3:hr>
            <ns3:cad>0</ns3:cad>
          </ns3:TrackPointExtension>
        </extensions>
      </trkpt>
      <trkpt lat="45.28175641782581806182861328125" lon="-71.11417531035840511322021484375">
        <ele>723.79998779296875</ele>
        <time>2026-08-22T00:49:29.000Z</time>
        <extensions>
          <ns3:TrackPointExtension>
            <ns3:hr>140</ns3:hr>
            <ns3:cad>0</ns3:cad>
          </ns3:TrackPointExtension>
        </extensions>
      </trkpt>
      <trkpt lat="45.281744934618473052978515625" lon="-71.1141524277627468109130859375">
        <ele>723.79998779296875</ele>
        <time>2026-08-22T00:49:30.000Z</time>
        <extensions>
          <ns3:TrackPointExtension>
            <ns3:hr>140</ns3:hr>
            <ns3:cad>0</ns3:cad>
          </ns3:TrackPointExtension>
        </extensions>
      </trkpt>
      <trkpt lat="45.2817347086966037750244140625" lon="-71.11413055099546909332275390625">
        <ele>724</ele>
        <time>2026-08-22T00:49:31.000Z</time>
        <extensions>
          <ns3:TrackPointExtension>
            <ns3:hr>140</ns3:hr>
            <ns3:cad>0</ns3:cad>
          </ns3:TrackPointExtension>
        </extensions>
      </trkpt>
      <trkpt lat="45.2817276678979396820068359375" lon="-71.11410959623754024505615234375">
        <ele>724.20001220703125</ele>
        <time>2026-08-22T00:49:32.000Z</time>
        <extensions>
          <ns3:TrackPointExtension>
            <ns3:hr>140</ns3:hr>
            <ns3:cad>0</ns3:cad>
          </ns3:TrackPointExtension>
        </extensions>
      </trkpt>
      <trkpt lat="45.28171836398541927337646484375" lon="-71.11409015022218227386474609375">
        <ele>724.4000244140625</ele>
        <time>2026-08-22T00:49:33.000Z</time>
        <extensions>
          <ns3:TrackPointExtension>
            <ns3:hr>140</ns3:hr>
            <ns3:cad>0</ns3:cad>
          </ns3:TrackPointExtension>
        </extensions>
      </trkpt>
      <trkpt lat="45.28170931152999401092529296875" lon="-71.11406668089330196380615234375">
        <ele>724.5999755859375</ele>
        <time>2026-08-22T00:49:34.000Z</time>
        <extensions>
          <ns3:TrackPointExtension>
            <ns3:hr>139</ns3:hr>
            <ns3:cad>70</ns3:cad>
          </ns3:TrackPointExtension>
        </extensions>
      </trkpt>
      <trkpt lat="45.281702689826488494873046875" lon="-71.1140454746782779693603515625">
        <ele>724.79998779296875</ele>
        <time>2026-08-22T00:49:35.000Z</time>
        <extensions>
          <ns3:TrackPointExtension>
            <ns3:hr>139</ns3:hr>
            <ns3:cad>70</ns3:cad>
          </ns3:TrackPointExtension>
        </extensions>
      </trkpt>
      <trkpt lat="45.2816951461136341094970703125" lon="-71.114016808569431304931640625">
        <ele>725</ele>
        <time>2026-08-22T00:49:36.000Z</time>
        <extensions>
          <ns3:TrackPointExtension>
            <ns3:hr>138</ns3:hr>
            <ns3:cad>70</ns3:cad>
          </ns3:TrackPointExtension>
        </extensions>
      </trkpt>
      <trkpt lat="45.28168466873466968536376953125" lon="-71.1139948479831218719482421875">
        <ele>725</ele>
        <time>2026-08-22T00:49:37.000Z</time>
        <extensions>
          <ns3:TrackPointExtension>
            <ns3:hr>138</ns3:hr>
            <ns3:cad>70</ns3:cad>
          </ns3:TrackPointExtension>
        </extensions>
      </trkpt>
      <trkpt lat="45.28167595155537128448486328125" lon="-71.11397280357778072357177734375">
        <ele>725</ele>
        <time>2026-08-22T00:49:38.000Z</time>
        <extensions>
          <ns3:TrackPointExtension>
            <ns3:hr>138</ns3:hr>
            <ns3:cad>70</ns3:cad>
          </ns3:TrackPointExtension>
        </extensions>
      </trkpt>
      <trkpt lat="45.281663797795772552490234375" lon="-71.11394413746893405914306640625">
        <ele>725</ele>
        <time>2026-08-22T00:49:39.000Z</time>
        <extensions>
          <ns3:TrackPointExtension>
            <ns3:hr>139</ns3:hr>
            <ns3:cad>70</ns3:cad>
          </ns3:TrackPointExtension>
        </extensions>
      </trkpt>
      <trkpt lat="45.2816478721797466278076171875" lon="-71.11391178332269191741943359375">
        <ele>725</ele>
        <time>2026-08-22T00:49:40.000Z</time>
        <extensions>
          <ns3:TrackPointExtension>
            <ns3:hr>139</ns3:hr>
            <ns3:cad>70</ns3:cad>
          </ns3:TrackPointExtension>
        </extensions>
      </trkpt>
      <trkpt lat="45.28162767179310321807861328125" lon="-71.11388898454606533050537109375">
        <ele>725</ele>
        <time>2026-08-22T00:49:41.000Z</time>
        <extensions>
          <ns3:TrackPointExtension>
            <ns3:hr>139</ns3:hr>
            <ns3:cad>70</ns3:cad>
          </ns3:TrackPointExtension>
        </extensions>
      </trkpt>
      <trkpt lat="45.28160445392131805419921875" lon="-71.1138768307864665985107421875">
        <ele>724.79998779296875</ele>
        <time>2026-08-22T00:49:42.000Z</time>
        <extensions>
          <ns3:TrackPointExtension>
            <ns3:hr>140</ns3:hr>
            <ns3:cad>70</ns3:cad>
          </ns3:TrackPointExtension>
        </extensions>
      </trkpt>
      <trkpt lat="45.28158224187791347503662109375" lon="-71.11387523822486400604248046875">
        <ele>724.79998779296875</ele>
        <time>2026-08-22T00:49:43.000Z</time>
        <extensions>
          <ns3:TrackPointExtension>
            <ns3:hr>140</ns3:hr>
            <ns3:cad>70</ns3:cad>
          </ns3:TrackPointExtension>
        </extensions>
      </trkpt>
      <trkpt lat="45.2815643884241580963134765625" lon="-71.1138734780251979827880859375">
        <ele>724.79998779296875</ele>
        <time>2026-08-22T00:49:44.000Z</time>
        <extensions>
          <ns3:TrackPointExtension>
            <ns3:hr>140</ns3:hr>
            <ns3:cad>67</ns3:cad>
          </ns3:TrackPointExtension>
        </extensions>
      </trkpt>
      <trkpt lat="45.28154787607491016387939453125" lon="-71.1138684488832950592041015625">
        <ele>724.79998779296875</ele>
        <time>2026-08-22T00:49:45.000Z</time>
        <extensions>
          <ns3:TrackPointExtension>
            <ns3:hr>140</ns3:hr>
            <ns3:cad>67</ns3:cad>
          </ns3:TrackPointExtension>
        </extensions>
      </trkpt>
      <trkpt lat="45.28153262101113796234130859375" lon="-71.1138644255697727203369140625">
        <ele>724.79998779296875</ele>
        <time>2026-08-22T00:49:46.000Z</time>
        <extensions>
          <ns3:TrackPointExtension>
            <ns3:hr>141</ns3:hr>
            <ns3:cad>67</ns3:cad>
          </ns3:TrackPointExtension>
        </extensions>
      </trkpt>
      <trkpt lat="45.28151954524219036102294921875" lon="-71.1138657666742801666259765625">
        <ele>725</ele>
        <time>2026-08-22T00:49:47.000Z</time>
        <extensions>
          <ns3:TrackPointExtension>
            <ns3:hr>141</ns3:hr>
            <ns3:cad>67</ns3:cad>
          </ns3:TrackPointExtension>
        </extensions>
      </trkpt>
      <trkpt lat="45.2815060503780841827392578125" lon="-71.11386685632169246673583984375">
        <ele>725</ele>
        <time>2026-08-22T00:49:48.000Z</time>
        <extensions>
          <ns3:TrackPointExtension>
            <ns3:hr>140</ns3:hr>
            <ns3:cad>67</ns3:cad>
          </ns3:TrackPointExtension>
        </extensions>
      </trkpt>
      <trkpt lat="45.28149180114269256591796875" lon="-71.1138667725026607513427734375">
        <ele>725.20001220703125</ele>
        <time>2026-08-22T00:49:49.000Z</time>
        <extensions>
          <ns3:TrackPointExtension>
            <ns3:hr>140</ns3:hr>
            <ns3:cad>0</ns3:cad>
          </ns3:TrackPointExtension>
        </extensions>
      </trkpt>
      <trkpt lat="45.2814775519073009490966796875" lon="-71.11387121491134166717529296875">
        <ele>725.4000244140625</ele>
        <time>2026-08-22T00:49:50.000Z</time>
        <extensions>
          <ns3:TrackPointExtension>
            <ns3:hr>140</ns3:hr>
            <ns3:cad>0</ns3:cad>
          </ns3:TrackPointExtension>
        </extensions>
      </trkpt>
      <trkpt lat="45.28147243894636631011962890625" lon="-71.11387574113905429840087890625">
        <ele>725.4000244140625</ele>
        <time>2026-08-22T00:49:51.000Z</time>
        <extensions>
          <ns3:TrackPointExtension>
            <ns3:hr>140</ns3:hr>
            <ns3:cad>0</ns3:cad>
          </ns3:TrackPointExtension>
        </extensions>
      </trkpt>
      <trkpt lat="45.28146036900579929351806640625" lon="-71.11388144083321094512939453125">
        <ele>725.5999755859375</ele>
        <time>2026-08-22T00:49:52.000Z</time>
        <extensions>
          <ns3:TrackPointExtension>
            <ns3:hr>140</ns3:hr>
            <ns3:cad>0</ns3:cad>
          </ns3:TrackPointExtension>
        </extensions>
      </trkpt>
      <trkpt lat="45.28144746087491512298583984375" lon="-71.11388999037444591522216796875">
        <ele>725.5999755859375</ele>
        <time>2026-08-22T00:49:53.000Z</time>
        <extensions>
          <ns3:TrackPointExtension>
            <ns3:hr>139</ns3:hr>
            <ns3:cad>0</ns3:cad>
          </ns3:TrackPointExtension>
        </extensions>
      </trkpt>
      <trkpt lat="45.28143404982984066009521484375" lon="-71.1138986237347126007080078125">
        <ele>725.79998779296875</ele>
        <time>2026-08-22T00:49:54.000Z</time>
        <extensions>
          <ns3:TrackPointExtension>
            <ns3:hr>139</ns3:hr>
            <ns3:cad>0</ns3:cad>
          </ns3:TrackPointExtension>
        </extensions>
      </trkpt>
      <trkpt lat="45.28142583556473255157470703125" lon="-71.11389669589698314666748046875">
        <ele>725.79998779296875</ele>
        <time>2026-08-22T00:49:55.000Z</time>
        <extensions>
          <ns3:TrackPointExtension>
            <ns3:hr>139</ns3:hr>
            <ns3:cad>0</ns3:cad>
          </ns3:TrackPointExtension>
        </extensions>
      </trkpt>
      <trkpt lat="45.281421057879924774169921875" lon="-71.1138959415256977081298828125">
        <ele>726</ele>
        <time>2026-08-22T00:49:56.000Z</time>
        <extensions>
          <ns3:TrackPointExtension>
            <ns3:hr>139</ns3:hr>
            <ns3:cad>0</ns3:cad>
          </ns3:TrackPointExtension>
        </extensions>
      </trkpt>
      <trkpt lat="45.28142130933701992034912109375" lon="-71.11389351077377796173095703125">
        <ele>726.20001220703125</ele>
        <time>2026-08-22T00:49:57.000Z</time>
        <extensions>
          <ns3:TrackPointExtension>
            <ns3:hr>140</ns3:hr>
            <ns3:cad>0</ns3:cad>
          </ns3:TrackPointExtension>
        </extensions>
      </trkpt>
      <trkpt lat="45.2814205549657344818115234375" lon="-71.11389216966927051544189453125">
        <ele>726.4000244140625</ele>
        <time>2026-08-22T00:49:58.000Z</time>
        <extensions>
          <ns3:TrackPointExtension>
            <ns3:hr>139</ns3:hr>
            <ns3:cad>0</ns3:cad>
          </ns3:TrackPointExtension>
        </extensions>
      </trkpt>
      <trkpt lat="45.28142080642282962799072265625" lon="-71.11388462595641613006591796875">
        <ele>726.79998779296875</ele>
        <time>2026-08-22T00:49:59.000Z</time>
        <extensions>
          <ns3:TrackPointExtension>
            <ns3:hr>140</ns3:hr>
            <ns3:cad>0</ns3:cad>
          </ns3:TrackPointExtension>
        </extensions>
      </trkpt>
      <trkpt lat="45.28142516501247882843017578125" lon="-71.11388362012803554534912109375">
        <ele>727</ele>
        <time>2026-08-22T00:50:00.000Z</time>
        <extensions>
          <ns3:TrackPointExtension>
            <ns3:hr>140</ns3:hr>
            <ns3:cad>0</ns3:cad>
          </ns3:TrackPointExtension>
        </extensions>
      </trkpt>
      <trkpt lat="45.281423740088939666748046875" lon="-71.11388362012803554534912109375">
        <ele>727.4000244140625</ele>
        <time>2026-08-22T00:50:01.000Z</time>
        <extensions>
          <ns3:TrackPointExtension>
            <ns3:hr>140</ns3:hr>
            <ns3:cad>0</ns3:cad>
          </ns3:TrackPointExtension>
        </extensions>
      </trkpt>
      <trkpt lat="45.281424410641193389892578125" lon="-71.11388973891735076904296875">
        <ele>727.79998779296875</ele>
        <time>2026-08-22T00:50:02.000Z</time>
        <extensions>
          <ns3:TrackPointExtension>
            <ns3:hr>139</ns3:hr>
            <ns3:cad>0</ns3:cad>
          </ns3:TrackPointExtension>
        </extensions>
      </trkpt>
      <trkpt lat="45.28143019415438175201416015625" lon="-71.11388479359447956085205078125">
        <ele>728</ele>
        <time>2026-08-22T00:50:03.000Z</time>
        <extensions>
          <ns3:TrackPointExtension>
            <ns3:hr>140</ns3:hr>
            <ns3:cad>0</ns3:cad>
          </ns3:TrackPointExtension>
        </extensions>
      </trkpt>
      <trkpt lat="45.28142952360212802886962890625" lon="-71.113882027566432952880859375">
        <ele>728.20001220703125</ele>
        <time>2026-08-22T00:50:04.000Z</time>
        <extensions>
          <ns3:TrackPointExtension>
            <ns3:hr>140</ns3:hr>
            <ns3:cad>0</ns3:cad>
          </ns3:TrackPointExtension>
        </extensions>
      </trkpt>
      <trkpt lat="45.2814294397830963134765625" lon="-71.11387766897678375244140625">
        <ele>728.4000244140625</ele>
        <time>2026-08-22T00:50:05.000Z</time>
        <extensions>
          <ns3:TrackPointExtension>
            <ns3:hr>140</ns3:hr>
            <ns3:cad>0</ns3:cad>
          </ns3:TrackPointExtension>
        </extensions>
      </trkpt>
      <trkpt lat="45.281432457268238067626953125" lon="-71.113872639834880828857421875">
        <ele>728.5999755859375</ele>
        <time>2026-08-22T00:50:06.000Z</time>
        <extensions>
          <ns3:TrackPointExtension>
            <ns3:hr>139</ns3:hr>
            <ns3:cad>0</ns3:cad>
          </ns3:TrackPointExtension>
        </extensions>
      </trkpt>
      <trkpt lat="45.28143815696239471435546875" lon="-71.1138593964278697967529296875">
        <ele>728.79998779296875</ele>
        <time>2026-08-22T00:50:07.000Z</time>
        <extensions>
          <ns3:TrackPointExtension>
            <ns3:hr>140</ns3:hr>
            <ns3:cad>0</ns3:cad>
          </ns3:TrackPointExtension>
        </extensions>
      </trkpt>
      <trkpt lat="45.281441174447536468505859375" lon="-71.11384808085858821868896484375">
        <ele>729</ele>
        <time>2026-08-22T00:50:08.000Z</time>
        <extensions>
          <ns3:TrackPointExtension>
            <ns3:hr>139</ns3:hr>
            <ns3:cad>0</ns3:cad>
          </ns3:TrackPointExtension>
        </extensions>
      </trkpt>
      <trkpt lat="45.281441844999790191650390625" lon="-71.1138376034796237945556640625">
        <ele>729</ele>
        <time>2026-08-22T00:50:09.000Z</time>
        <extensions>
          <ns3:TrackPointExtension>
            <ns3:hr>140</ns3:hr>
            <ns3:cad>0</ns3:cad>
          </ns3:TrackPointExtension>
        </extensions>
      </trkpt>
      <trkpt lat="45.28144695796072483062744140625" lon="-71.11382829956710338592529296875">
        <ele>729.20001220703125</ele>
        <time>2026-08-22T00:50:10.000Z</time>
        <extensions>
          <ns3:TrackPointExtension>
            <ns3:hr>140</ns3:hr>
            <ns3:cad>50</ns3:cad>
          </ns3:TrackPointExtension>
        </extensions>
      </trkpt>
      <trkpt lat="45.28144913725554943084716796875" lon="-71.1138158105313777923583984375">
        <ele>729.20001220703125</ele>
        <time>2026-08-22T00:50:11.000Z</time>
        <extensions>
          <ns3:TrackPointExtension>
            <ns3:hr>140</ns3:hr>
            <ns3:cad>50</ns3:cad>
          </ns3:TrackPointExtension>
        </extensions>
      </trkpt>
      <trkpt lat="45.28145232237875461578369140625" lon="-71.1137970350682735443115234375">
        <ele>729.20001220703125</ele>
        <time>2026-08-22T00:50:12.000Z</time>
        <extensions>
          <ns3:TrackPointExtension>
            <ns3:hr>141</ns3:hr>
            <ns3:cad>50</ns3:cad>
          </ns3:TrackPointExtension>
        </extensions>
      </trkpt>
      <trkpt lat="45.281456597149372100830078125" lon="-71.113778762519359588623046875">
        <ele>729.4000244140625</ele>
        <time>2026-08-22T00:50:13.000Z</time>
        <extensions>
          <ns3:TrackPointExtension>
            <ns3:hr>142</ns3:hr>
            <ns3:cad>50</ns3:cad>
          </ns3:TrackPointExtension>
        </extensions>
      </trkpt>
      <trkpt lat="45.2814589440822601318359375" lon="-71.1137618310749530792236328125">
        <ele>729.4000244140625</ele>
        <time>2026-08-22T00:50:14.000Z</time>
        <extensions>
          <ns3:TrackPointExtension>
            <ns3:hr>142</ns3:hr>
            <ns3:cad>50</ns3:cad>
          </ns3:TrackPointExtension>
        </extensions>
      </trkpt>
      <trkpt lat="45.281460285186767578125" lon="-71.113743893802165985107421875">
        <ele>729.5999755859375</ele>
        <time>2026-08-22T00:50:15.000Z</time>
        <extensions>
          <ns3:TrackPointExtension>
            <ns3:hr>142</ns3:hr>
            <ns3:cad>50</ns3:cad>
          </ns3:TrackPointExtension>
        </extensions>
      </trkpt>
      <trkpt lat="45.28146137483417987823486328125" lon="-71.1137202568352222442626953125">
        <ele>729.5999755859375</ele>
        <time>2026-08-22T00:50:16.000Z</time>
        <extensions>
          <ns3:TrackPointExtension>
            <ns3:hr>141</ns3:hr>
            <ns3:cad>50</ns3:cad>
          </ns3:TrackPointExtension>
        </extensions>
      </trkpt>
      <trkpt lat="45.28146171011030673980712890625" lon="-71.1137051694095134735107421875">
        <ele>729.79998779296875</ele>
        <time>2026-08-22T00:50:17.000Z</time>
        <extensions>
          <ns3:TrackPointExtension>
            <ns3:hr>142</ns3:hr>
            <ns3:cad>50</ns3:cad>
          </ns3:TrackPointExtension>
        </extensions>
      </trkpt>
      <trkpt lat="45.28146229684352874755859375" lon="-71.11367843113839626312255859375">
        <ele>730</ele>
        <time>2026-08-22T00:50:18.000Z</time>
        <extensions>
          <ns3:TrackPointExtension>
            <ns3:hr>142</ns3:hr>
            <ns3:cad>50</ns3:cad>
          </ns3:TrackPointExtension>
        </extensions>
      </trkpt>
      <trkpt lat="45.2814589440822601318359375" lon="-71.11365663819015026092529296875">
        <ele>730.20001220703125</ele>
        <time>2026-08-22T00:50:19.000Z</time>
        <extensions>
          <ns3:TrackPointExtension>
            <ns3:hr>142</ns3:hr>
            <ns3:cad>50</ns3:cad>
          </ns3:TrackPointExtension>
        </extensions>
      </trkpt>
      <trkpt lat="45.281452573835849761962890625" lon="-71.113641299307346343994140625">
        <ele>730.20001220703125</ele>
        <time>2026-08-22T00:50:20.000Z</time>
        <extensions>
          <ns3:TrackPointExtension>
            <ns3:hr>142</ns3:hr>
            <ns3:cad>50</ns3:cad>
          </ns3:TrackPointExtension>
        </extensions>
      </trkpt>
      <trkpt lat="45.2814457006752490997314453125" lon="-71.113619171082973480224609375">
        <ele>730.5999755859375</ele>
        <time>2026-08-22T00:50:21.000Z</time>
        <extensions>
          <ns3:TrackPointExtension>
            <ns3:hr>142</ns3:hr>
            <ns3:cad>50</ns3:cad>
          </ns3:TrackPointExtension>
        </extensions>
      </trkpt>
      <trkpt lat="45.28144125826656818389892578125" lon="-71.11359947361052036285400390625">
        <ele>730.79998779296875</ele>
        <time>2026-08-22T00:50:22.000Z</time>
        <extensions>
          <ns3:TrackPointExtension>
            <ns3:hr>142</ns3:hr>
            <ns3:cad>0</ns3:cad>
          </ns3:TrackPointExtension>
        </extensions>
      </trkpt>
      <trkpt lat="45.2814366482198238372802734375" lon="-71.11358304508030414581298828125">
        <ele>731</ele>
        <time>2026-08-22T00:50:23.000Z</time>
        <extensions>
          <ns3:TrackPointExtension>
            <ns3:hr>142</ns3:hr>
            <ns3:cad>0</ns3:cad>
          </ns3:TrackPointExtension>
        </extensions>
      </trkpt>
      <trkpt lat="45.281430445611476898193359375" lon="-71.1135680414736270904541015625">
        <ele>731.20001220703125</ele>
        <time>2026-08-22T00:50:24.000Z</time>
        <extensions>
          <ns3:TrackPointExtension>
            <ns3:hr>142</ns3:hr>
            <ns3:cad>0</ns3:cad>
          </ns3:TrackPointExtension>
        </extensions>
      </trkpt>
      <trkpt lat="45.28142298571765422821044921875" lon="-71.1135542951524257659912109375">
        <ele>731.4000244140625</ele>
        <time>2026-08-22T00:50:25.000Z</time>
        <extensions>
          <ns3:TrackPointExtension>
            <ns3:hr>142</ns3:hr>
            <ns3:cad>0</ns3:cad>
          </ns3:TrackPointExtension>
        </extensions>
      </trkpt>
      <trkpt lat="45.2814108319580554962158203125" lon="-71.113539375364780426025390625">
        <ele>731.5999755859375</ele>
        <time>2026-08-22T00:50:26.000Z</time>
        <extensions>
          <ns3:TrackPointExtension>
            <ns3:hr>143</ns3:hr>
            <ns3:cad>0</ns3:cad>
          </ns3:TrackPointExtension>
        </extensions>
      </trkpt>
      <trkpt lat="45.281401611864566802978515625" lon="-71.11353107728064060211181640625">
        <ele>731.5999755859375</ele>
        <time>2026-08-22T00:50:27.000Z</time>
        <extensions>
          <ns3:TrackPointExtension>
            <ns3:hr>142</ns3:hr>
            <ns3:cad>0</ns3:cad>
          </ns3:TrackPointExtension>
        </extensions>
      </trkpt>
      <trkpt lat="45.2813933975994586944580078125" lon="-71.1135254614055156707763671875">
        <ele>731.5999755859375</ele>
        <time>2026-08-22T00:50:28.000Z</time>
        <extensions>
          <ns3:TrackPointExtension>
            <ns3:hr>142</ns3:hr>
            <ns3:cad>0</ns3:cad>
          </ns3:TrackPointExtension>
        </extensions>
      </trkpt>
      <trkpt lat="45.2813866920769214630126953125" lon="-71.11351951025426387786865234375">
        <ele>731.79998779296875</ele>
        <time>2026-08-22T00:50:29.000Z</time>
        <extensions>
          <ns3:TrackPointExtension>
            <ns3:hr>142</ns3:hr>
            <ns3:cad>47</ns3:cad>
          </ns3:TrackPointExtension>
        </extensions>
      </trkpt>
      <trkpt lat="45.28137973509728908538818359375" lon="-71.1135036684572696685791015625">
        <ele>731.79998779296875</ele>
        <time>2026-08-22T00:50:30.000Z</time>
        <extensions>
          <ns3:TrackPointExtension>
            <ns3:hr>143</ns3:hr>
            <ns3:cad>47</ns3:cad>
          </ns3:TrackPointExtension>
        </extensions>
      </trkpt>
      <trkpt lat="45.28137135319411754608154296875" lon="-71.1134855635464191436767578125">
        <ele>731.79998779296875</ele>
        <time>2026-08-22T00:50:31.000Z</time>
        <extensions>
          <ns3:TrackPointExtension>
            <ns3:hr>142</ns3:hr>
            <ns3:cad>47</ns3:cad>
          </ns3:TrackPointExtension>
        </extensions>
      </trkpt>
      <trkpt lat="45.28136146254837512969970703125" lon="-71.11346888355910778045654296875">
        <ele>731.5999755859375</ele>
        <time>2026-08-22T00:50:32.000Z</time>
        <extensions>
          <ns3:TrackPointExtension>
            <ns3:hr>142</ns3:hr>
            <ns3:cad>0</ns3:cad>
          </ns3:TrackPointExtension>
        </extensions>
      </trkpt>
      <trkpt lat="45.2813521586358547210693359375" lon="-71.11345413140952587127685546875">
        <ele>731.5999755859375</ele>
        <time>2026-08-22T00:50:33.000Z</time>
        <extensions>
          <ns3:TrackPointExtension>
            <ns3:hr>141</ns3:hr>
            <ns3:cad>0</ns3:cad>
          </ns3:TrackPointExtension>
        </extensions>
      </trkpt>
      <trkpt lat="45.2813424356281757354736328125" lon="-71.1134449951350688934326171875">
        <ele>731.4000244140625</ele>
        <time>2026-08-22T00:50:34.000Z</time>
        <extensions>
          <ns3:TrackPointExtension>
            <ns3:hr>140</ns3:hr>
            <ns3:cad>0</ns3:cad>
          </ns3:TrackPointExtension>
        </extensions>
      </trkpt>
      <trkpt lat="45.2813293598592281341552734375" lon="-71.11343376338481903076171875">
        <ele>731.5999755859375</ele>
        <time>2026-08-22T00:50:35.000Z</time>
        <extensions>
          <ns3:TrackPointExtension>
            <ns3:hr>140</ns3:hr>
            <ns3:cad>0</ns3:cad>
          </ns3:TrackPointExtension>
        </extensions>
      </trkpt>
      <trkpt lat="45.2813189662992954254150390625" lon="-71.11342093907296657562255859375">
        <ele>731.5999755859375</ele>
        <time>2026-08-22T00:50:36.000Z</time>
        <extensions>
          <ns3:TrackPointExtension>
            <ns3:hr>140</ns3:hr>
            <ns3:cad>0</ns3:cad>
          </ns3:TrackPointExtension>
        </extensions>
      </trkpt>
      <trkpt lat="45.28130614198744297027587890625" lon="-71.11341037787497043609619140625">
        <ele>731.5999755859375</ele>
        <time>2026-08-22T00:50:37.000Z</time>
        <extensions>
          <ns3:TrackPointExtension>
            <ns3:hr>140</ns3:hr>
            <ns3:cad>65</ns3:cad>
          </ns3:TrackPointExtension>
        </extensions>
      </trkpt>
      <trkpt lat="45.28129423968493938446044921875" lon="-71.11339755356311798095703125">
        <ele>731.5999755859375</ele>
        <time>2026-08-22T00:50:38.000Z</time>
        <extensions>
          <ns3:TrackPointExtension>
            <ns3:hr>141</ns3:hr>
            <ns3:cad>65</ns3:cad>
          </ns3:TrackPointExtension>
        </extensions>
      </trkpt>
      <trkpt lat="45.2812901325523853302001953125" lon="-71.113385818898677825927734375">
        <ele>731.79998779296875</ele>
        <time>2026-08-22T00:50:39.000Z</time>
        <extensions>
          <ns3:TrackPointExtension>
            <ns3:hr>140</ns3:hr>
            <ns3:cad>65</ns3:cad>
          </ns3:TrackPointExtension>
        </extensions>
      </trkpt>
      <trkpt lat="45.28128267265856266021728515625" lon="-71.11336427740752696990966796875">
        <ele>731.79998779296875</ele>
        <time>2026-08-22T00:50:40.000Z</time>
        <extensions>
          <ns3:TrackPointExtension>
            <ns3:hr>140</ns3:hr>
            <ns3:cad>65</ns3:cad>
          </ns3:TrackPointExtension>
        </extensions>
      </trkpt>
      <trkpt lat="45.28127051889896392822265625" lon="-71.1133494414389133453369140625">
        <ele>731.79998779296875</ele>
        <time>2026-08-22T00:50:41.000Z</time>
        <extensions>
          <ns3:TrackPointExtension>
            <ns3:hr>139</ns3:hr>
            <ns3:cad>0</ns3:cad>
          </ns3:TrackPointExtension>
        </extensions>
      </trkpt>
      <trkpt lat="45.2812577784061431884765625" lon="-71.1133330129086971282958984375">
        <ele>732</ele>
        <time>2026-08-22T00:50:42.000Z</time>
        <extensions>
          <ns3:TrackPointExtension>
            <ns3:hr>138</ns3:hr>
            <ns3:cad>0</ns3:cad>
          </ns3:TrackPointExtension>
        </extensions>
      </trkpt>
      <trkpt lat="45.2812488935887813568115234375" lon="-71.113321445882320404052734375">
        <ele>732.20001220703125</ele>
        <time>2026-08-22T00:50:43.000Z</time>
        <extensions>
          <ns3:TrackPointExtension>
            <ns3:hr>137</ns3:hr>
            <ns3:cad>0</ns3:cad>
          </ns3:TrackPointExtension>
        </extensions>
      </trkpt>
      <trkpt lat="45.28123908676207065582275390625" lon="-71.11330929212272167205810546875">
        <ele>732.5999755859375</ele>
        <time>2026-08-22T00:50:44.000Z</time>
        <extensions>
          <ns3:TrackPointExtension>
            <ns3:hr>136</ns3:hr>
            <ns3:cad>0</ns3:cad>
          </ns3:TrackPointExtension>
        </extensions>
      </trkpt>
      <trkpt lat="45.28122886084020137786865234375" lon="-71.11329370178282260894775390625">
        <ele>732.79998779296875</ele>
        <time>2026-08-22T00:50:45.000Z</time>
        <extensions>
          <ns3:TrackPointExtension>
            <ns3:hr>136</ns3:hr>
            <ns3:cad>0</ns3:cad>
          </ns3:TrackPointExtension>
        </extensions>
      </trkpt>
      <trkpt lat="45.2812157012522220611572265625" lon="-71.1132807098329067230224609375">
        <ele>733</ele>
        <time>2026-08-22T00:50:46.000Z</time>
        <extensions>
          <ns3:TrackPointExtension>
            <ns3:hr>136</ns3:hr>
            <ns3:cad>0</ns3:cad>
          </ns3:TrackPointExtension>
        </extensions>
      </trkpt>
      <trkpt lat="45.281200446188449859619140625" lon="-71.1132780276238918304443359375">
        <ele>733.20001220703125</ele>
        <time>2026-08-22T00:50:47.000Z</time>
        <extensions>
          <ns3:TrackPointExtension>
            <ns3:hr>137</ns3:hr>
            <ns3:cad>0</ns3:cad>
          </ns3:TrackPointExtension>
        </extensions>
      </trkpt>
      <trkpt lat="45.28118602931499481201171875" lon="-71.1132823862135410308837890625">
        <ele>733.20001220703125</ele>
        <time>2026-08-22T00:50:48.000Z</time>
        <extensions>
          <ns3:TrackPointExtension>
            <ns3:hr>138</ns3:hr>
            <ns3:cad>0</ns3:cad>
          </ns3:TrackPointExtension>
        </extensions>
      </trkpt>
      <trkpt lat="45.28117337264120578765869140625" lon="-71.11328934319317340850830078125">
        <ele>733.20001220703125</ele>
        <time>2026-08-22T00:50:49.000Z</time>
        <extensions>
          <ns3:TrackPointExtension>
            <ns3:hr>138</ns3:hr>
            <ns3:cad>0</ns3:cad>
          </ns3:TrackPointExtension>
        </extensions>
      </trkpt>
      <trkpt lat="45.28115794993937015533447265625" lon="-71.1132941208779811859130859375">
        <ele>733.20001220703125</ele>
        <time>2026-08-22T00:50:50.000Z</time>
        <extensions>
          <ns3:TrackPointExtension>
            <ns3:hr>138</ns3:hr>
            <ns3:cad>0</ns3:cad>
          </ns3:TrackPointExtension>
        </extensions>
      </trkpt>
      <trkpt lat="45.2811491489410400390625" lon="-71.1132894270122051239013671875">
        <ele>733.20001220703125</ele>
        <time>2026-08-22T00:50:51.000Z</time>
        <extensions>
          <ns3:TrackPointExtension>
            <ns3:hr>138</ns3:hr>
            <ns3:cad>0</ns3:cad>
          </ns3:TrackPointExtension>
        </extensions>
      </trkpt>
      <trkpt lat="45.28113766573369503021240234375" lon="-71.11328414641320705413818359375">
        <ele>733</ele>
        <time>2026-08-22T00:50:52.000Z</time>
        <extensions>
          <ns3:TrackPointExtension>
            <ns3:hr>138</ns3:hr>
            <ns3:cad>0</ns3:cad>
          </ns3:TrackPointExtension>
        </extensions>
      </trkpt>
      <trkpt lat="45.28112509287893772125244140625" lon="-71.1132827214896678924560546875">
        <ele>733</ele>
        <time>2026-08-22T00:50:53.000Z</time>
        <extensions>
          <ns3:TrackPointExtension>
            <ns3:hr>139</ns3:hr>
            <ns3:cad>0</ns3:cad>
          </ns3:TrackPointExtension>
        </extensions>
      </trkpt>
      <trkpt lat="45.281111262738704681396484375" lon="-71.11328096129000186920166015625">
        <ele>733.20001220703125</ele>
        <time>2026-08-22T00:50:54.000Z</time>
        <extensions>
          <ns3:TrackPointExtension>
            <ns3:hr>138</ns3:hr>
            <ns3:cad>0</ns3:cad>
          </ns3:TrackPointExtension>
        </extensions>
      </trkpt>
      <trkpt lat="45.2810973487794399261474609375" lon="-71.11327744089066982269287109375">
        <ele>733.20001220703125</ele>
        <time>2026-08-22T00:50:55.000Z</time>
        <extensions>
          <ns3:TrackPointExtension>
            <ns3:hr>138</ns3:hr>
            <ns3:cad>0</ns3:cad>
          </ns3:TrackPointExtension>
        </extensions>
      </trkpt>
      <trkpt lat="45.28108653612434864044189453125" lon="-71.11327542923390865325927734375">
        <ele>733.4000244140625</ele>
        <time>2026-08-22T00:50:56.000Z</time>
        <extensions>
          <ns3:TrackPointExtension>
            <ns3:hr>138</ns3:hr>
            <ns3:cad>0</ns3:cad>
          </ns3:TrackPointExtension>
        </extensions>
      </trkpt>
      <trkpt lat="45.28108008205890655517578125" lon="-71.11326218582689762115478515625">
        <ele>733.5999755859375</ele>
        <time>2026-08-22T00:50:57.000Z</time>
        <extensions>
          <ns3:TrackPointExtension>
            <ns3:hr>138</ns3:hr>
            <ns3:cad>0</ns3:cad>
          </ns3:TrackPointExtension>
        </extensions>
      </trkpt>
      <trkpt lat="45.28106390498578548431396484375" lon="-71.11325296573340892791748046875">
        <ele>733.79998779296875</ele>
        <time>2026-08-22T00:50:58.000Z</time>
        <extensions>
          <ns3:TrackPointExtension>
            <ns3:hr>138</ns3:hr>
            <ns3:cad>0</ns3:cad>
          </ns3:TrackPointExtension>
        </extensions>
      </trkpt>
      <trkpt lat="45.28105032630264759063720703125" lon="-71.11324642784893512725830078125">
        <ele>734</ele>
        <time>2026-08-22T00:50:59.000Z</time>
        <extensions>
          <ns3:TrackPointExtension>
            <ns3:hr>138</ns3:hr>
            <ns3:cad>0</ns3:cad>
          </ns3:TrackPointExtension>
        </extensions>
      </trkpt>
      <trkpt lat="45.28103406541049480438232421875" lon="-71.113242320716381072998046875">
        <ele>734.20001220703125</ele>
        <time>2026-08-22T00:51:00.000Z</time>
        <extensions>
          <ns3:TrackPointExtension>
            <ns3:hr>137</ns3:hr>
            <ns3:cad>0</ns3:cad>
          </ns3:TrackPointExtension>
        </extensions>
      </trkpt>
      <trkpt lat="45.28102283366024494171142578125" lon="-71.11324064433574676513671875">
        <ele>734.4000244140625</ele>
        <time>2026-08-22T00:51:01.000Z</time>
        <extensions>
          <ns3:TrackPointExtension>
            <ns3:hr>137</ns3:hr>
            <ns3:cad>0</ns3:cad>
          </ns3:TrackPointExtension>
        </extensions>
      </trkpt>
      <trkpt lat="45.2810088358819484710693359375" lon="-71.11323636956512928009033203125">
        <ele>734.4000244140625</ele>
        <time>2026-08-22T00:51:02.000Z</time>
        <extensions>
          <ns3:TrackPointExtension>
            <ns3:hr>136</ns3:hr>
            <ns3:cad>0</ns3:cad>
          </ns3:TrackPointExtension>
        </extensions>
      </trkpt>
      <trkpt lat="45.2809843607246875762939453125" lon="-71.11323251388967037200927734375">
        <ele>734.4000244140625</ele>
        <time>2026-08-22T00:51:03.000Z</time>
        <extensions>
          <ns3:TrackPointExtension>
            <ns3:hr>136</ns3:hr>
            <ns3:cad>0</ns3:cad>
          </ns3:TrackPointExtension>
        </extensions>
      </trkpt>
      <trkpt lat="45.2809618972241878509521484375" lon="-71.1132327653467655181884765625">
        <ele>734.4000244140625</ele>
        <time>2026-08-22T00:51:04.000Z</time>
        <extensions>
          <ns3:TrackPointExtension>
            <ns3:hr>136</ns3:hr>
            <ns3:cad>0</ns3:cad>
          </ns3:TrackPointExtension>
        </extensions>
      </trkpt>
      <trkpt lat="45.28094731271266937255859375" lon="-71.1132334358990192413330078125">
        <ele>734.4000244140625</ele>
        <time>2026-08-22T00:51:05.000Z</time>
        <extensions>
          <ns3:TrackPointExtension>
            <ns3:hr>136</ns3:hr>
            <ns3:cad>0</ns3:cad>
          </ns3:TrackPointExtension>
        </extensions>
      </trkpt>
      <trkpt lat="45.280927531421184539794921875" lon="-71.1132381297647953033447265625">
        <ele>734.4000244140625</ele>
        <time>2026-08-22T00:51:06.000Z</time>
        <extensions>
          <ns3:TrackPointExtension>
            <ns3:hr>136</ns3:hr>
            <ns3:cad>0</ns3:cad>
          </ns3:TrackPointExtension>
        </extensions>
      </trkpt>
      <trkpt lat="45.28090733103454113006591796875" lon="-71.113243661820888519287109375">
        <ele>734.5999755859375</ele>
        <time>2026-08-22T00:51:07.000Z</time>
        <extensions>
          <ns3:TrackPointExtension>
            <ns3:hr>136</ns3:hr>
            <ns3:cad>0</ns3:cad>
          </ns3:TrackPointExtension>
        </extensions>
      </trkpt>
      <trkpt lat="45.28090196661651134490966796875" lon="-71.11325413919985294342041015625">
        <ele>734.79998779296875</ele>
        <time>2026-08-22T00:51:08.000Z</time>
        <extensions>
          <ns3:TrackPointExtension>
            <ns3:hr>137</ns3:hr>
            <ns3:cad>0</ns3:cad>
          </ns3:TrackPointExtension>
        </extensions>
      </trkpt>
      <trkpt lat="45.280894003808498382568359375" lon="-71.1132560670375823974609375">
        <ele>735</ele>
        <time>2026-08-22T00:51:09.000Z</time>
        <extensions>
          <ns3:TrackPointExtension>
            <ns3:hr>136</ns3:hr>
            <ns3:cad>0</ns3:cad>
          </ns3:TrackPointExtension>
        </extensions>
      </trkpt>
      <trkpt lat="45.28088604100048542022705078125" lon="-71.11325128935277462005615234375">
        <ele>735</ele>
        <time>2026-08-22T00:51:10.000Z</time>
        <extensions>
          <ns3:TrackPointExtension>
            <ns3:hr>136</ns3:hr>
            <ns3:cad>0</ns3:cad>
          </ns3:TrackPointExtension>
        </extensions>
      </trkpt>
      <trkpt lat="45.28087221086025238037109375" lon="-71.11325380392372608184814453125">
        <ele>735</ele>
        <time>2026-08-22T00:51:11.000Z</time>
        <extensions>
          <ns3:TrackPointExtension>
            <ns3:hr>136</ns3:hr>
            <ns3:cad>0</ns3:cad>
          </ns3:TrackPointExtension>
        </extensions>
      </trkpt>
      <trkpt lat="45.2808634936809539794921875" lon="-71.11325648613274097442626953125">
        <ele>735.20001220703125</ele>
        <time>2026-08-22T00:51:12.000Z</time>
        <extensions>
          <ns3:TrackPointExtension>
            <ns3:hr>136</ns3:hr>
            <ns3:cad>0</ns3:cad>
          </ns3:TrackPointExtension>
        </extensions>
      </trkpt>
      <trkpt lat="45.2808572910726070404052734375" lon="-71.1132552288472652435302734375">
        <ele>735.20001220703125</ele>
        <time>2026-08-22T00:51:13.000Z</time>
        <extensions>
          <ns3:TrackPointExtension>
            <ns3:hr>136</ns3:hr>
            <ns3:cad>0</ns3:cad>
          </ns3:TrackPointExtension>
        </extensions>
      </trkpt>
      <trkpt lat="45.2808519266545772552490234375" lon="-71.11324257217347621917724609375">
        <ele>735.4000244140625</ele>
        <time>2026-08-22T00:51:14.000Z</time>
        <extensions>
          <ns3:TrackPointExtension>
            <ns3:hr>136</ns3:hr>
            <ns3:cad>0</ns3:cad>
          </ns3:TrackPointExtension>
        </extensions>
      </trkpt>
      <trkpt lat="45.2808420360088348388671875" lon="-71.11323636956512928009033203125">
        <ele>735.5999755859375</ele>
        <time>2026-08-22T00:51:15.000Z</time>
        <extensions>
          <ns3:TrackPointExtension>
            <ns3:hr>136</ns3:hr>
            <ns3:cad>0</ns3:cad>
          </ns3:TrackPointExtension>
        </extensions>
      </trkpt>
      <trkpt lat="45.28082971461117267608642578125" lon="-71.113237626850605010986328125">
        <ele>735.79998779296875</ele>
        <time>2026-08-22T00:51:16.000Z</time>
        <extensions>
          <ns3:TrackPointExtension>
            <ns3:hr>135</ns3:hr>
            <ns3:cad>0</ns3:cad>
          </ns3:TrackPointExtension>
        </extensions>
      </trkpt>
      <trkpt lat="45.28081529773771762847900390625" lon="-71.11324676312506198883056640625">
        <ele>736</ele>
        <time>2026-08-22T00:51:17.000Z</time>
        <extensions>
          <ns3:TrackPointExtension>
            <ns3:hr>136</ns3:hr>
            <ns3:cad>0</ns3:cad>
          </ns3:TrackPointExtension>
        </extensions>
      </trkpt>
      <trkpt lat="45.280806161463260650634765625" lon="-71.11325933597981929779052734375">
        <ele>736</ele>
        <time>2026-08-22T00:51:18.000Z</time>
        <extensions>
          <ns3:TrackPointExtension>
            <ns3:hr>136</ns3:hr>
            <ns3:cad>0</ns3:cad>
          </ns3:TrackPointExtension>
        </extensions>
      </trkpt>
      <trkpt lat="45.28079668991267681121826171875" lon="-71.11327274702489376068115234375">
        <ele>736</ele>
        <time>2026-08-22T00:51:19.000Z</time>
        <extensions>
          <ns3:TrackPointExtension>
            <ns3:hr>135</ns3:hr>
            <ns3:cad>0</ns3:cad>
          </ns3:TrackPointExtension>
        </extensions>
      </trkpt>
      <trkpt lat="45.28078378178179264068603515625" lon="-71.11328330822288990020751953125">
        <ele>736</ele>
        <time>2026-08-22T00:51:20.000Z</time>
        <extensions>
          <ns3:TrackPointExtension>
            <ns3:hr>135</ns3:hr>
            <ns3:cad>0</ns3:cad>
          </ns3:TrackPointExtension>
        </extensions>
      </trkpt>
      <trkpt lat="45.28077472932636737823486328125" lon="-71.1132989823818206787109375">
        <ele>736</ele>
        <time>2026-08-22T00:51:21.000Z</time>
        <extensions>
          <ns3:TrackPointExtension>
            <ns3:hr>135</ns3:hr>
            <ns3:cad>0</ns3:cad>
          </ns3:TrackPointExtension>
        </extensions>
      </trkpt>
      <trkpt lat="45.2807664312422275543212890625" lon="-71.1133122257888317108154296875">
        <ele>735.79998779296875</ele>
        <time>2026-08-22T00:51:22.000Z</time>
        <extensions>
          <ns3:TrackPointExtension>
            <ns3:hr>136</ns3:hr>
            <ns3:cad>0</ns3:cad>
          </ns3:TrackPointExtension>
        </extensions>
      </trkpt>
      <trkpt lat="45.280757211148738861083984375" lon="-71.11332689411938190460205078125">
        <ele>735.79998779296875</ele>
        <time>2026-08-22T00:51:23.000Z</time>
        <extensions>
          <ns3:TrackPointExtension>
            <ns3:hr>135</ns3:hr>
            <ns3:cad>0</ns3:cad>
          </ns3:TrackPointExtension>
        </extensions>
      </trkpt>
      <trkpt lat="45.280747152864933013916015625" lon="-71.1133377067744731903076171875">
        <ele>735.5999755859375</ele>
        <time>2026-08-22T00:51:24.000Z</time>
        <extensions>
          <ns3:TrackPointExtension>
            <ns3:hr>134</ns3:hr>
            <ns3:cad>55</ns3:cad>
          </ns3:TrackPointExtension>
        </extensions>
      </trkpt>
      <trkpt lat="45.2807359211146831512451171875" lon="-71.11334801651537418365478515625">
        <ele>735.5999755859375</ele>
        <time>2026-08-22T00:51:25.000Z</time>
        <extensions>
          <ns3:TrackPointExtension>
            <ns3:hr>133</ns3:hr>
            <ns3:cad>55</ns3:cad>
          </ns3:TrackPointExtension>
        </extensions>
      </trkpt>
      <trkpt lat="45.28072996996343135833740234375" lon="-71.11335187219083309173583984375">
        <ele>735.4000244140625</ele>
        <time>2026-08-22T00:51:26.000Z</time>
        <extensions>
          <ns3:TrackPointExtension>
            <ns3:hr>133</ns3:hr>
            <ns3:cad>55</ns3:cad>
          </ns3:TrackPointExtension>
        </extensions>
      </trkpt>
      <trkpt lat="45.2807194925844669342041015625" lon="-71.11335623078048229217529296875">
        <ele>735.4000244140625</ele>
        <time>2026-08-22T00:51:27.000Z</time>
        <extensions>
          <ns3:TrackPointExtension>
            <ns3:hr>133</ns3:hr>
            <ns3:cad>53</ns3:cad>
          </ns3:TrackPointExtension>
        </extensions>
      </trkpt>
      <trkpt lat="45.280713625252246856689453125" lon="-71.1133605055510997772216796875">
        <ele>735.4000244140625</ele>
        <time>2026-08-22T00:51:28.000Z</time>
        <extensions>
          <ns3:TrackPointExtension>
            <ns3:hr>132</ns3:hr>
            <ns3:cad>53</ns3:cad>
          </ns3:TrackPointExtension>
        </extensions>
      </trkpt>
      <trkpt lat="45.28070432133972644805908203125" lon="-71.11336628906428813934326171875">
        <ele>735.4000244140625</ele>
        <time>2026-08-22T00:51:29.000Z</time>
        <extensions>
          <ns3:TrackPointExtension>
            <ns3:hr>132</ns3:hr>
            <ns3:cad>53</ns3:cad>
          </ns3:TrackPointExtension>
        </extensions>
      </trkpt>
      <trkpt lat="45.28070029802620410919189453125" lon="-71.11336670815944671630859375">
        <ele>735.5999755859375</ele>
        <time>2026-08-22T00:51:30.000Z</time>
        <extensions>
          <ns3:TrackPointExtension>
            <ns3:hr>132</ns3:hr>
            <ns3:cad>53</ns3:cad>
          </ns3:TrackPointExtension>
        </extensions>
      </trkpt>
      <trkpt lat="45.28069518506526947021484375" lon="-71.1133660376071929931640625">
        <ele>735.5999755859375</ele>
        <time>2026-08-22T00:51:31.000Z</time>
        <extensions>
          <ns3:TrackPointExtension>
            <ns3:hr>132</ns3:hr>
            <ns3:cad>46</ns3:cad>
          </ns3:TrackPointExtension>
        </extensions>
      </trkpt>
      <trkpt lat="45.280682779848575592041015625" lon="-71.11336796544492244720458984375">
        <ele>735.79998779296875</ele>
        <time>2026-08-22T00:51:32.000Z</time>
        <extensions>
          <ns3:TrackPointExtension>
            <ns3:hr>132</ns3:hr>
            <ns3:cad>46</ns3:cad>
          </ns3:TrackPointExtension>
        </extensions>
      </trkpt>
      <trkpt lat="45.2806712128221988677978515625" lon="-71.11337316222488880157470703125">
        <ele>735.79998779296875</ele>
        <time>2026-08-22T00:51:33.000Z</time>
        <extensions>
          <ns3:TrackPointExtension>
            <ns3:hr>131</ns3:hr>
            <ns3:cad>44</ns3:cad>
          </ns3:TrackPointExtension>
        </extensions>
      </trkpt>
      <trkpt lat="45.2806581370532512664794921875" lon="-71.11338120885193347930908203125">
        <ele>735.79998779296875</ele>
        <time>2026-08-22T00:51:34.000Z</time>
        <extensions>
          <ns3:TrackPointExtension>
            <ns3:hr>131</ns3:hr>
            <ns3:cad>44</ns3:cad>
          </ns3:TrackPointExtension>
        </extensions>
      </trkpt>
      <trkpt lat="45.28064413927495479583740234375" lon="-71.11339411698281764984130859375">
        <ele>736</ele>
        <time>2026-08-22T00:51:35.000Z</time>
        <extensions>
          <ns3:TrackPointExtension>
            <ns3:hr>130</ns3:hr>
            <ns3:cad>44</ns3:cad>
          </ns3:TrackPointExtension>
        </extensions>
      </trkpt>
      <trkpt lat="45.2806299738585948944091796875" lon="-71.11340484581887722015380859375">
        <ele>736</ele>
        <time>2026-08-22T00:51:36.000Z</time>
        <extensions>
          <ns3:TrackPointExtension>
            <ns3:hr>130</ns3:hr>
            <ns3:cad>55</ns3:cad>
          </ns3:TrackPointExtension>
        </extensions>
      </trkpt>
      <trkpt lat="45.2806202508509159088134765625" lon="-71.11341230571269989013671875">
        <ele>736</ele>
        <time>2026-08-22T00:51:37.000Z</time>
        <extensions>
          <ns3:TrackPointExtension>
            <ns3:hr>130</ns3:hr>
            <ns3:cad>55</ns3:cad>
          </ns3:TrackPointExtension>
        </extensions>
      </trkpt>
      <trkpt lat="45.2806113660335540771484375" lon="-71.11343183554708957672119140625">
        <ele>736</ele>
        <time>2026-08-22T00:51:38.000Z</time>
        <extensions>
          <ns3:TrackPointExtension>
            <ns3:hr>130</ns3:hr>
            <ns3:cad>55</ns3:cad>
          </ns3:TrackPointExtension>
        </extensions>
      </trkpt>
      <trkpt lat="45.28059954755008220672607421875" lon="-71.1134545505046844482421875">
        <ele>736</ele>
        <time>2026-08-22T00:51:39.000Z</time>
        <extensions>
          <ns3:TrackPointExtension>
            <ns3:hr>130</ns3:hr>
            <ns3:cad>55</ns3:cad>
          </ns3:TrackPointExtension>
        </extensions>
      </trkpt>
      <trkpt lat="45.280588567256927490234375" lon="-71.11346871592104434967041015625">
        <ele>736</ele>
        <time>2026-08-22T00:51:40.000Z</time>
        <extensions>
          <ns3:TrackPointExtension>
            <ns3:hr>130</ns3:hr>
            <ns3:cad>55</ns3:cad>
          </ns3:TrackPointExtension>
        </extensions>
      </trkpt>
      <trkpt lat="45.280576162040233612060546875" lon="-71.11347709782421588897705078125">
        <ele>736</ele>
        <time>2026-08-22T00:51:41.000Z</time>
        <extensions>
          <ns3:TrackPointExtension>
            <ns3:hr>129</ns3:hr>
            <ns3:cad>55</ns3:cad>
          </ns3:TrackPointExtension>
        </extensions>
      </trkpt>
      <trkpt lat="45.28056568466126918792724609375" lon="-71.1134785227477550506591796875">
        <ele>736</ele>
        <time>2026-08-22T00:51:42.000Z</time>
        <extensions>
          <ns3:TrackPointExtension>
            <ns3:hr>129</ns3:hr>
            <ns3:cad>55</ns3:cad>
          </ns3:TrackPointExtension>
        </extensions>
      </trkpt>
      <trkpt lat="45.28055830858647823333740234375" lon="-71.11347793601453304290771484375">
        <ele>736</ele>
        <time>2026-08-22T00:51:43.000Z</time>
        <extensions>
          <ns3:TrackPointExtension>
            <ns3:hr>129</ns3:hr>
            <ns3:cad>55</ns3:cad>
          </ns3:TrackPointExtension>
        </extensions>
      </trkpt>
      <trkpt lat="45.28055679984390735626220703125" lon="-71.11347592435777187347412109375">
        <ele>736</ele>
        <time>2026-08-22T00:51:44.000Z</time>
        <extensions>
          <ns3:TrackPointExtension>
            <ns3:hr>128</ns3:hr>
            <ns3:cad>55</ns3:cad>
          </ns3:TrackPointExtension>
        </extensions>
      </trkpt>
      <trkpt lat="45.28055327944457530975341796875" lon="-71.11347575671970844268798828125">
        <ele>736</ele>
        <time>2026-08-22T00:51:45.000Z</time>
        <extensions>
          <ns3:TrackPointExtension>
            <ns3:hr>128</ns3:hr>
            <ns3:cad>55</ns3:cad>
          </ns3:TrackPointExtension>
        </extensions>
      </trkpt>
      <trkpt lat="45.28055311180651187896728515625" lon="-71.11347458325326442718505859375">
        <ele>736.20001220703125</ele>
        <time>2026-08-22T00:51:46.000Z</time>
        <extensions>
          <ns3:TrackPointExtension>
            <ns3:hr>128</ns3:hr>
            <ns3:cad>0</ns3:cad>
          </ns3:TrackPointExtension>
        </extensions>
      </trkpt>
      <trkpt lat="45.28055411763489246368408203125" lon="-71.11347491852939128875732421875">
        <ele>736.20001220703125</ele>
        <time>2026-08-22T00:51:47.000Z</time>
        <extensions>
          <ns3:TrackPointExtension>
            <ns3:hr>128</ns3:hr>
            <ns3:cad>0</ns3:cad>
          </ns3:TrackPointExtension>
        </extensions>
      </trkpt>
      <trkpt lat="45.280554033815860748291015625" lon="-71.11347734928131103515625">
        <ele>736.20001220703125</ele>
        <time>2026-08-22T00:51:48.000Z</time>
        <extensions>
          <ns3:TrackPointExtension>
            <ns3:hr>128</ns3:hr>
            <ns3:cad>0</ns3:cad>
          </ns3:TrackPointExtension>
        </extensions>
      </trkpt>
      <trkpt lat="45.28055436909198760986328125" lon="-71.11347609199583530426025390625">
        <ele>736.20001220703125</ele>
        <time>2026-08-22T00:51:49.000Z</time>
        <extensions>
          <ns3:TrackPointExtension>
            <ns3:hr>127</ns3:hr>
            <ns3:cad>0</ns3:cad>
          </ns3:TrackPointExtension>
        </extensions>
      </trkpt>
      <trkpt lat="45.2805501781404018402099609375" lon="-71.11347944475710391998291015625">
        <ele>736.20001220703125</ele>
        <time>2026-08-22T00:51:50.000Z</time>
        <extensions>
          <ns3:TrackPointExtension>
            <ns3:hr>128</ns3:hr>
            <ns3:cad>0</ns3:cad>
          </ns3:TrackPointExtension>
        </extensions>
      </trkpt>
      <trkpt lat="45.28054255060851573944091796875" lon="-71.11348028294742107391357421875">
        <ele>736.20001220703125</ele>
        <time>2026-08-22T00:51:51.000Z</time>
        <extensions>
          <ns3:TrackPointExtension>
            <ns3:hr>127</ns3:hr>
            <ns3:cad>0</ns3:cad>
          </ns3:TrackPointExtension>
        </extensions>
      </trkpt>
      <trkpt lat="45.2805340848863124847412109375" lon="-71.11348262988030910491943359375">
        <ele>736</ele>
        <time>2026-08-22T00:51:52.000Z</time>
        <extensions>
          <ns3:TrackPointExtension>
            <ns3:hr>127</ns3:hr>
            <ns3:cad>0</ns3:cad>
          </ns3:TrackPointExtension>
        </extensions>
      </trkpt>
      <trkpt lat="45.28052226640284061431884765625" lon="-71.11348480917513370513916015625">
        <ele>736</ele>
        <time>2026-08-22T00:51:53.000Z</time>
        <extensions>
          <ns3:TrackPointExtension>
            <ns3:hr>127</ns3:hr>
            <ns3:cad>0</ns3:cad>
          </ns3:TrackPointExtension>
        </extensions>
      </trkpt>
      <trkpt lat="45.28051187284290790557861328125" lon="-71.113485731184482574462890625">
        <ele>736</ele>
        <time>2026-08-22T00:51:54.000Z</time>
        <extensions>
          <ns3:TrackPointExtension>
            <ns3:hr>127</ns3:hr>
            <ns3:cad>0</ns3:cad>
          </ns3:TrackPointExtension>
        </extensions>
      </trkpt>
      <trkpt lat="45.28050013817846775054931640625" lon="-71.11348363570868968963623046875">
        <ele>736</ele>
        <time>2026-08-22T00:51:55.000Z</time>
        <extensions>
          <ns3:TrackPointExtension>
            <ns3:hr>128</ns3:hr>
            <ns3:cad>49</ns3:cad>
          </ns3:TrackPointExtension>
        </extensions>
      </trkpt>
      <trkpt lat="45.2804901637136936187744140625" lon="-71.113483719527721405029296875">
        <ele>736</ele>
        <time>2026-08-22T00:51:56.000Z</time>
        <extensions>
          <ns3:TrackPointExtension>
            <ns3:hr>128</ns3:hr>
            <ns3:cad>49</ns3:cad>
          </ns3:TrackPointExtension>
        </extensions>
      </trkpt>
      <trkpt lat="45.2804774232208728790283203125" lon="-71.11349050886929035186767578125">
        <ele>736.20001220703125</ele>
        <time>2026-08-22T00:51:57.000Z</time>
        <extensions>
          <ns3:TrackPointExtension>
            <ns3:hr>128</ns3:hr>
            <ns3:cad>49</ns3:cad>
          </ns3:TrackPointExtension>
        </extensions>
      </trkpt>
      <trkpt lat="45.2804670296609401702880859375" lon="-71.113495789468288421630859375">
        <ele>736.20001220703125</ele>
        <time>2026-08-22T00:51:58.000Z</time>
        <extensions>
          <ns3:TrackPointExtension>
            <ns3:hr>127</ns3:hr>
            <ns3:cad>49</ns3:cad>
          </ns3:TrackPointExtension>
        </extensions>
      </trkpt>
      <trkpt lat="45.280460827052593231201171875" lon="-71.11350375227630138397216796875">
        <ele>736.4000244140625</ele>
        <time>2026-08-22T00:51:59.000Z</time>
        <extensions>
          <ns3:TrackPointExtension>
            <ns3:hr>126</ns3:hr>
            <ns3:cad>50</ns3:cad>
          </ns3:TrackPointExtension>
        </extensions>
      </trkpt>
      <trkpt lat="45.28045068494975566864013671875" lon="-71.1135160736739635467529296875">
        <ele>736.4000244140625</ele>
        <time>2026-08-22T00:52:00.000Z</time>
        <extensions>
          <ns3:TrackPointExtension>
            <ns3:hr>126</ns3:hr>
            <ns3:cad>47</ns3:cad>
          </ns3:TrackPointExtension>
        </extensions>
      </trkpt>
      <trkpt lat="45.28044230304658412933349609375" lon="-71.113525964319705963134765625">
        <ele>736.4000244140625</ele>
        <time>2026-08-22T00:52:01.000Z</time>
        <extensions>
          <ns3:TrackPointExtension>
            <ns3:hr>126</ns3:hr>
            <ns3:cad>47</ns3:cad>
          </ns3:TrackPointExtension>
        </extensions>
      </trkpt>
      <trkpt lat="45.28042704798281192779541015625" lon="-71.11353828571736812591552734375">
        <ele>736.4000244140625</ele>
        <time>2026-08-22T00:52:02.000Z</time>
        <extensions>
          <ns3:TrackPointExtension>
            <ns3:hr>127</ns3:hr>
            <ns3:cad>47</ns3:cad>
          </ns3:TrackPointExtension>
        </extensions>
      </trkpt>
      <trkpt lat="45.280416905879974365234375" lon="-71.113551445305347442626953125">
        <ele>736.4000244140625</ele>
        <time>2026-08-22T00:52:03.000Z</time>
        <extensions>
          <ns3:TrackPointExtension>
            <ns3:hr>127</ns3:hr>
            <ns3:cad>47</ns3:cad>
          </ns3:TrackPointExtension>
        </extensions>
      </trkpt>
      <trkpt lat="45.28040659613907337188720703125" lon="-71.11356611363589763641357421875">
        <ele>736.4000244140625</ele>
        <time>2026-08-22T00:52:04.000Z</time>
        <extensions>
          <ns3:TrackPointExtension>
            <ns3:hr>127</ns3:hr>
            <ns3:cad>0</ns3:cad>
          </ns3:TrackPointExtension>
        </extensions>
      </trkpt>
      <trkpt lat="45.28039704076945781707763671875" lon="-71.113571561872959136962890625">
        <ele>736.4000244140625</ele>
        <time>2026-08-22T00:52:05.000Z</time>
        <extensions>
          <ns3:TrackPointExtension>
            <ns3:hr>127</ns3:hr>
            <ns3:cad>57</ns3:cad>
          </ns3:TrackPointExtension>
        </extensions>
      </trkpt>
      <trkpt lat="45.28038597665727138519287109375" lon="-71.11357189714908599853515625">
        <ele>736.4000244140625</ele>
        <time>2026-08-22T00:52:06.000Z</time>
        <extensions>
          <ns3:TrackPointExtension>
            <ns3:hr>126</ns3:hr>
            <ns3:cad>57</ns3:cad>
          </ns3:TrackPointExtension>
        </extensions>
      </trkpt>
      <trkpt lat="45.2803718112409114837646484375" lon="-71.1135740764439105987548828125">
        <ele>736.4000244140625</ele>
        <time>2026-08-22T00:52:07.000Z</time>
        <extensions>
          <ns3:TrackPointExtension>
            <ns3:hr>126</ns3:hr>
            <ns3:cad>57</ns3:cad>
          </ns3:TrackPointExtension>
        </extensions>
      </trkpt>
      <trkpt lat="45.28035798110067844390869140625" lon="-71.11357868649065494537353515625">
        <ele>736.4000244140625</ele>
        <time>2026-08-22T00:52:08.000Z</time>
        <extensions>
          <ns3:TrackPointExtension>
            <ns3:hr>126</ns3:hr>
            <ns3:cad>57</ns3:cad>
          </ns3:TrackPointExtension>
        </extensions>
      </trkpt>
      <trkpt lat="45.28034423477947711944580078125" lon="-71.11358069814741611480712890625">
        <ele>736.4000244140625</ele>
        <time>2026-08-22T00:52:09.000Z</time>
        <extensions>
          <ns3:TrackPointExtension>
            <ns3:hr>126</ns3:hr>
            <ns3:cad>57</ns3:cad>
          </ns3:TrackPointExtension>
        </extensions>
      </trkpt>
      <trkpt lat="45.2803302370011806488037109375" lon="-71.1135827936232089996337890625">
        <ele>736.4000244140625</ele>
        <time>2026-08-22T00:52:10.000Z</time>
        <extensions>
          <ns3:TrackPointExtension>
            <ns3:hr>125</ns3:hr>
            <ns3:cad>57</ns3:cad>
          </ns3:TrackPointExtension>
        </extensions>
      </trkpt>
      <trkpt lat="45.280313976109027862548828125" lon="-71.11358874477446079254150390625">
        <ele>736.4000244140625</ele>
        <time>2026-08-22T00:52:11.000Z</time>
        <extensions>
          <ns3:TrackPointExtension>
            <ns3:hr>124</ns3:hr>
            <ns3:cad>57</ns3:cad>
          </ns3:TrackPointExtension>
        </extensions>
      </trkpt>
      <trkpt lat="45.2803030796349048614501953125" lon="-71.11359260044991970062255859375">
        <ele>736.5999755859375</ele>
        <time>2026-08-22T00:52:12.000Z</time>
        <extensions>
          <ns3:TrackPointExtension>
            <ns3:hr>124</ns3:hr>
            <ns3:cad>57</ns3:cad>
          </ns3:TrackPointExtension>
        </extensions>
      </trkpt>
      <trkpt lat="45.28029243461787700653076171875" lon="-71.113594360649585723876953125">
        <ele>736.5999755859375</ele>
        <time>2026-08-22T00:52:13.000Z</time>
        <extensions>
          <ns3:TrackPointExtension>
            <ns3:hr>124</ns3:hr>
            <ns3:cad>57</ns3:cad>
          </ns3:TrackPointExtension>
        </extensions>
      </trkpt>
      <trkpt lat="45.2802799455821514129638671875" lon="-71.11359662376344203948974609375">
        <ele>736.79998779296875</ele>
        <time>2026-08-22T00:52:14.000Z</time>
        <extensions>
          <ns3:TrackPointExtension>
            <ns3:hr>124</ns3:hr>
            <ns3:cad>57</ns3:cad>
          </ns3:TrackPointExtension>
        </extensions>
      </trkpt>
      <trkpt lat="45.28026225976645946502685546875" lon="-71.11359997652471065521240234375">
        <ele>737</ele>
        <time>2026-08-22T00:52:15.000Z</time>
        <extensions>
          <ns3:TrackPointExtension>
            <ns3:hr>123</ns3:hr>
            <ns3:cad>57</ns3:cad>
          </ns3:TrackPointExtension>
        </extensions>
      </trkpt>
      <trkpt lat="45.28025153093039989471435546875" lon="-71.11360433511435985565185546875">
        <ele>737.20001220703125</ele>
        <time>2026-08-22T00:52:16.000Z</time>
        <extensions>
          <ns3:TrackPointExtension>
            <ns3:hr>122</ns3:hr>
            <ns3:cad>57</ns3:cad>
          </ns3:TrackPointExtension>
        </extensions>
      </trkpt>
      <trkpt lat="45.2802393771708011627197265625" lon="-71.11360601149499416351318359375">
        <ele>737.20001220703125</ele>
        <time>2026-08-22T00:52:17.000Z</time>
        <extensions>
          <ns3:TrackPointExtension>
            <ns3:hr>122</ns3:hr>
            <ns3:cad>57</ns3:cad>
          </ns3:TrackPointExtension>
        </extensions>
      </trkpt>
      <trkpt lat="45.280228815972805023193359375" lon="-71.1136092804372310638427734375">
        <ele>737.4000244140625</ele>
        <time>2026-08-22T00:52:18.000Z</time>
        <extensions>
          <ns3:TrackPointExtension>
            <ns3:hr>122</ns3:hr>
            <ns3:cad>57</ns3:cad>
          </ns3:TrackPointExtension>
        </extensions>
      </trkpt>
      <trkpt lat="45.28021850623190402984619140625" lon="-71.1136099509894847869873046875">
        <ele>737.4000244140625</ele>
        <time>2026-08-22T00:52:19.000Z</time>
        <extensions>
          <ns3:TrackPointExtension>
            <ns3:hr>122</ns3:hr>
            <ns3:cad>57</ns3:cad>
          </ns3:TrackPointExtension>
        </extensions>
      </trkpt>
      <trkpt lat="45.2802078612148761749267578125" lon="-71.11361389048397541046142578125">
        <ele>737.5999755859375</ele>
        <time>2026-08-22T00:52:20.000Z</time>
        <extensions>
          <ns3:TrackPointExtension>
            <ns3:hr>122</ns3:hr>
            <ns3:cad>57</ns3:cad>
          </ns3:TrackPointExtension>
        </extensions>
      </trkpt>
      <trkpt lat="45.2801988087594509124755859375" lon="-71.113622188568115234375">
        <ele>737.79998779296875</ele>
        <time>2026-08-22T00:52:21.000Z</time>
        <extensions>
          <ns3:TrackPointExtension>
            <ns3:hr>122</ns3:hr>
            <ns3:cad>57</ns3:cad>
          </ns3:TrackPointExtension>
        </extensions>
      </trkpt>
      <trkpt lat="45.28018615208566188812255859375" lon="-71.1136263795197010040283203125">
        <ele>737.79998779296875</ele>
        <time>2026-08-22T00:52:22.000Z</time>
        <extensions>
          <ns3:TrackPointExtension>
            <ns3:hr>123</ns3:hr>
            <ns3:cad>57</ns3:cad>
          </ns3:TrackPointExtension>
        </extensions>
      </trkpt>
      <trkpt lat="45.2801733277738094329833984375" lon="-71.113627217710018157958984375">
        <ele>738</ele>
        <time>2026-08-22T00:52:23.000Z</time>
        <extensions>
          <ns3:TrackPointExtension>
            <ns3:hr>123</ns3:hr>
            <ns3:cad>57</ns3:cad>
          </ns3:TrackPointExtension>
        </extensions>
      </trkpt>
      <trkpt lat="45.28016335330903530120849609375" lon="-71.1136262118816375732421875">
        <ele>738</ele>
        <time>2026-08-22T00:52:24.000Z</time>
        <extensions>
          <ns3:TrackPointExtension>
            <ns3:hr>123</ns3:hr>
            <ns3:cad>57</ns3:cad>
          </ns3:TrackPointExtension>
        </extensions>
      </trkpt>
      <trkpt lat="45.2801589109003543853759765625" lon="-71.11362344585359096527099609375">
        <ele>738</ele>
        <time>2026-08-22T00:52:25.000Z</time>
        <extensions>
          <ns3:TrackPointExtension>
            <ns3:hr>123</ns3:hr>
            <ns3:cad>57</ns3:cad>
          </ns3:TrackPointExtension>
        </extensions>
      </trkpt>
      <trkpt lat="45.280147008597850799560546875" lon="-71.11362076364457607269287109375">
        <ele>738.20001220703125</ele>
        <time>2026-08-22T00:52:26.000Z</time>
        <extensions>
          <ns3:TrackPointExtension>
            <ns3:hr>123</ns3:hr>
            <ns3:cad>43</ns3:cad>
          </ns3:TrackPointExtension>
        </extensions>
      </trkpt>
      <trkpt lat="45.280139632523059844970703125" lon="-71.113621853291988372802734375">
        <ele>738.20001220703125</ele>
        <time>2026-08-22T00:52:27.000Z</time>
        <extensions>
          <ns3:TrackPointExtension>
            <ns3:hr>123</ns3:hr>
            <ns3:cad>43</ns3:cad>
          </ns3:TrackPointExtension>
        </extensions>
      </trkpt>
      <trkpt lat="45.2801304124295711517333984375" lon="-71.11362445168197154998779296875">
        <ele>738.4000244140625</ele>
        <time>2026-08-22T00:52:28.000Z</time>
        <extensions>
          <ns3:TrackPointExtension>
            <ns3:hr>123</ns3:hr>
            <ns3:cad>0</ns3:cad>
          </ns3:TrackPointExtension>
        </extensions>
      </trkpt>
      <trkpt lat="45.28011993505060672760009765625" lon="-71.11362755298614501953125">
        <ele>738.5999755859375</ele>
        <time>2026-08-22T00:52:29.000Z</time>
        <extensions>
          <ns3:TrackPointExtension>
            <ns3:hr>123</ns3:hr>
            <ns3:cad>0</ns3:cad>
          </ns3:TrackPointExtension>
        </extensions>
      </trkpt>
      <trkpt lat="45.2801139838993549346923828125" lon="-71.1136267147958278656005859375">
        <ele>738.5999755859375</ele>
        <time>2026-08-22T00:52:30.000Z</time>
        <extensions>
          <ns3:TrackPointExtension>
            <ns3:hr>124</ns3:hr>
            <ns3:cad>0</ns3:cad>
          </ns3:TrackPointExtension>
        </extensions>
      </trkpt>
      <trkpt lat="45.28010032139718532562255859375" lon="-71.11362495459616184234619140625">
        <ele>738.79998779296875</ele>
        <time>2026-08-22T00:52:31.000Z</time>
        <extensions>
          <ns3:TrackPointExtension>
            <ns3:hr>124</ns3:hr>
            <ns3:cad>0</ns3:cad>
          </ns3:TrackPointExtension>
        </extensions>
      </trkpt>
      <trkpt lat="45.2800952084362506866455078125" lon="-71.113625206053256988525390625">
        <ele>739</ele>
        <time>2026-08-22T00:52:32.000Z</time>
        <extensions>
          <ns3:TrackPointExtension>
            <ns3:hr>124</ns3:hr>
            <ns3:cad>0</ns3:cad>
          </ns3:TrackPointExtension>
        </extensions>
      </trkpt>
      <trkpt lat="45.28008691035211086273193359375" lon="-71.1136213503777980804443359375">
        <ele>739</ele>
        <time>2026-08-22T00:52:33.000Z</time>
        <extensions>
          <ns3:TrackPointExtension>
            <ns3:hr>124</ns3:hr>
            <ns3:cad>0</ns3:cad>
          </ns3:TrackPointExtension>
        </extensions>
      </trkpt>
      <trkpt lat="45.28008154593408107757568359375" lon="-71.11361690796911716461181640625">
        <ele>739.20001220703125</ele>
        <time>2026-08-22T00:52:34.000Z</time>
        <extensions>
          <ns3:TrackPointExtension>
            <ns3:hr>124</ns3:hr>
            <ns3:cad>0</ns3:cad>
          </ns3:TrackPointExtension>
        </extensions>
      </trkpt>
      <trkpt lat="45.28007299639284610748291015625" lon="-71.11360810697078704833984375">
        <ele>739.4000244140625</ele>
        <time>2026-08-22T00:52:35.000Z</time>
        <extensions>
          <ns3:TrackPointExtension>
            <ns3:hr>124</ns3:hr>
            <ns3:cad>0</ns3:cad>
          </ns3:TrackPointExtension>
        </extensions>
      </trkpt>
      <trkpt lat="45.28006729669868946075439453125" lon="-71.113605089485645294189453125">
        <ele>739.5999755859375</ele>
        <time>2026-08-22T00:52:36.000Z</time>
        <extensions>
          <ns3:TrackPointExtension>
            <ns3:hr>124</ns3:hr>
            <ns3:cad>0</ns3:cad>
          </ns3:TrackPointExtension>
        </extensions>
      </trkpt>
      <trkpt lat="45.28006025590002536773681640625" lon="-71.11360098235309123992919921875">
        <ele>739.5999755859375</ele>
        <time>2026-08-22T00:52:37.000Z</time>
        <extensions>
          <ns3:TrackPointExtension>
            <ns3:hr>125</ns3:hr>
            <ns3:cad>0</ns3:cad>
          </ns3:TrackPointExtension>
        </extensions>
      </trkpt>
      <trkpt lat="45.28005774132907390594482421875" lon="-71.113591678440570831298828125">
        <ele>739.79998779296875</ele>
        <time>2026-08-22T00:52:38.000Z</time>
        <extensions>
          <ns3:TrackPointExtension>
            <ns3:hr>125</ns3:hr>
            <ns3:cad>0</ns3:cad>
          </ns3:TrackPointExtension>
        </extensions>
      </trkpt>
      <trkpt lat="45.2800588309764862060546875" lon="-71.1135841347277164459228515625">
        <ele>740</ele>
        <time>2026-08-22T00:52:39.000Z</time>
        <extensions>
          <ns3:TrackPointExtension>
            <ns3:hr>125</ns3:hr>
            <ns3:cad>0</ns3:cad>
          </ns3:TrackPointExtension>
        </extensions>
      </trkpt>
      <trkpt lat="45.2800561487674713134765625" lon="-71.113562844693660736083984375">
        <ele>740.20001220703125</ele>
        <time>2026-08-22T00:52:40.000Z</time>
        <extensions>
          <ns3:TrackPointExtension>
            <ns3:hr>125</ns3:hr>
            <ns3:cad>0</ns3:cad>
          </ns3:TrackPointExtension>
        </extensions>
      </trkpt>
      <trkpt lat="45.28005170635879039764404296875" lon="-71.1135579831898212432861328125">
        <ele>740.5999755859375</ele>
        <time>2026-08-22T00:52:41.000Z</time>
        <extensions>
          <ns3:TrackPointExtension>
            <ns3:hr>126</ns3:hr>
            <ns3:cad>0</ns3:cad>
          </ns3:TrackPointExtension>
        </extensions>
      </trkpt>
      <trkpt lat="45.28004583902657032012939453125" lon="-71.11354281194508075714111328125">
        <ele>740.79998779296875</ele>
        <time>2026-08-22T00:52:42.000Z</time>
        <extensions>
          <ns3:TrackPointExtension>
            <ns3:hr>126</ns3:hr>
            <ns3:cad>44</ns3:cad>
          </ns3:TrackPointExtension>
        </extensions>
      </trkpt>
      <trkpt lat="45.28003578074276447296142578125" lon="-71.11352940090000629425048828125">
        <ele>741</ele>
        <time>2026-08-22T00:52:43.000Z</time>
        <extensions>
          <ns3:TrackPointExtension>
            <ns3:hr>126</ns3:hr>
            <ns3:cad>44</ns3:cad>
          </ns3:TrackPointExtension>
        </extensions>
      </trkpt>
      <trkpt lat="45.28002086095511913299560546875" lon="-71.11351967789232730865478515625">
        <ele>741.20001220703125</ele>
        <time>2026-08-22T00:52:44.000Z</time>
        <extensions>
          <ns3:TrackPointExtension>
            <ns3:hr>126</ns3:hr>
            <ns3:cad>44</ns3:cad>
          </ns3:TrackPointExtension>
        </extensions>
      </trkpt>
      <trkpt lat="45.28000460006296634674072265625" lon="-71.11351716332137584686279296875">
        <ele>741.4000244140625</ele>
        <time>2026-08-22T00:52:45.000Z</time>
        <extensions>
          <ns3:TrackPointExtension>
            <ns3:hr>125</ns3:hr>
            <ns3:cad>44</ns3:cad>
          </ns3:TrackPointExtension>
        </extensions>
      </trkpt>
      <trkpt lat="45.2799917757511138916015625" lon="-71.11351825296878814697265625">
        <ele>741.5999755859375</ele>
        <time>2026-08-22T00:52:46.000Z</time>
        <extensions>
          <ns3:TrackPointExtension>
            <ns3:hr>126</ns3:hr>
            <ns3:cad>44</ns3:cad>
          </ns3:TrackPointExtension>
        </extensions>
      </trkpt>
      <trkpt lat="45.2799765206873416900634765625" lon="-71.11351498402655124664306640625">
        <ele>741.5999755859375</ele>
        <time>2026-08-22T00:52:47.000Z</time>
        <extensions>
          <ns3:TrackPointExtension>
            <ns3:hr>126</ns3:hr>
            <ns3:cad>47</ns3:cad>
          </ns3:TrackPointExtension>
        </extensions>
      </trkpt>
      <trkpt lat="45.27996721677482128143310546875" lon="-71.11350844614207744598388671875">
        <ele>741.79998779296875</ele>
        <time>2026-08-22T00:52:48.000Z</time>
        <extensions>
          <ns3:TrackPointExtension>
            <ns3:hr>127</ns3:hr>
            <ns3:cad>47</ns3:cad>
          </ns3:TrackPointExtension>
        </extensions>
      </trkpt>
      <trkpt lat="45.2799564041197299957275390625" lon="-71.11349277198314666748046875">
        <ele>741.79998779296875</ele>
        <time>2026-08-22T00:52:49.000Z</time>
        <extensions>
          <ns3:TrackPointExtension>
            <ns3:hr>127</ns3:hr>
            <ns3:cad>47</ns3:cad>
          </ns3:TrackPointExtension>
        </extensions>
      </trkpt>
      <trkpt lat="45.279948525130748748779296875" lon="-71.11348480917513370513916015625">
        <ele>741.79998779296875</ele>
        <time>2026-08-22T00:52:50.000Z</time>
        <extensions>
          <ns3:TrackPointExtension>
            <ns3:hr>127</ns3:hr>
            <ns3:cad>47</ns3:cad>
          </ns3:TrackPointExtension>
        </extensions>
      </trkpt>
      <trkpt lat="45.2799369581043720245361328125" lon="-71.11347198486328125">
        <ele>742</ele>
        <time>2026-08-22T00:52:51.000Z</time>
        <extensions>
          <ns3:TrackPointExtension>
            <ns3:hr>127</ns3:hr>
            <ns3:cad>47</ns3:cad>
          </ns3:TrackPointExtension>
        </extensions>
      </trkpt>
      <trkpt lat="45.27992782182991504669189453125" lon="-71.1134652793407440185546875">
        <ele>742.20001220703125</ele>
        <time>2026-08-22T00:52:52.000Z</time>
        <extensions>
          <ns3:TrackPointExtension>
            <ns3:hr>127</ns3:hr>
            <ns3:cad>47</ns3:cad>
          </ns3:TrackPointExtension>
        </extensions>
      </trkpt>
      <trkpt lat="45.2799087949097156524658203125" lon="-71.1134580709040164947509765625">
        <ele>742.4000244140625</ele>
        <time>2026-08-22T00:52:53.000Z</time>
        <extensions>
          <ns3:TrackPointExtension>
            <ns3:hr>128</ns3:hr>
            <ns3:cad>47</ns3:cad>
          </ns3:TrackPointExtension>
        </extensions>
      </trkpt>
      <trkpt lat="45.2798916958272457122802734375" lon="-71.1134470067918300628662109375">
        <ele>742.5999755859375</ele>
        <time>2026-08-22T00:52:54.000Z</time>
        <extensions>
          <ns3:TrackPointExtension>
            <ns3:hr>129</ns3:hr>
            <ns3:cad>47</ns3:cad>
          </ns3:TrackPointExtension>
        </extensions>
      </trkpt>
      <trkpt lat="45.27988239191472530364990234375" lon="-71.113440133631229400634765625">
        <ele>742.5999755859375</ele>
        <time>2026-08-22T00:52:55.000Z</time>
        <extensions>
          <ns3:TrackPointExtension>
            <ns3:hr>129</ns3:hr>
            <ns3:cad>47</ns3:cad>
          </ns3:TrackPointExtension>
        </extensions>
      </trkpt>
      <trkpt lat="45.27987199835479259490966796875" lon="-71.1134357750415802001953125">
        <ele>742.79998779296875</ele>
        <time>2026-08-22T00:52:56.000Z</time>
        <extensions>
          <ns3:TrackPointExtension>
            <ns3:hr>130</ns3:hr>
            <ns3:cad>47</ns3:cad>
          </ns3:TrackPointExtension>
        </extensions>
      </trkpt>
      <trkpt lat="45.27986344881355762481689453125" lon="-71.11342781223356723785400390625">
        <ele>742.79998779296875</ele>
        <time>2026-08-22T00:52:57.000Z</time>
        <extensions>
          <ns3:TrackPointExtension>
            <ns3:hr>131</ns3:hr>
            <ns3:cad>50</ns3:cad>
          </ns3:TrackPointExtension>
        </extensions>
      </trkpt>
      <trkpt lat="45.2798511274158954620361328125" lon="-71.1134221963584423065185546875">
        <ele>743</ele>
        <time>2026-08-22T00:52:58.000Z</time>
        <extensions>
          <ns3:TrackPointExtension>
            <ns3:hr>132</ns3:hr>
            <ns3:cad>50</ns3:cad>
          </ns3:TrackPointExtension>
        </extensions>
      </trkpt>
      <trkpt lat="45.2798415720462799072265625" lon="-71.11341976560652256011962890625">
        <ele>743.20001220703125</ele>
        <time>2026-08-22T00:52:59.000Z</time>
        <extensions>
          <ns3:TrackPointExtension>
            <ns3:hr>132</ns3:hr>
            <ns3:cad>52</ns3:cad>
          </ns3:TrackPointExtension>
        </extensions>
      </trkpt>
      <trkpt lat="45.2798357047140598297119140625" lon="-71.1134158261120319366455078125">
        <ele>743.4000244140625</ele>
        <time>2026-08-22T00:53:00.000Z</time>
        <extensions>
          <ns3:TrackPointExtension>
            <ns3:hr>132</ns3:hr>
            <ns3:cad>52</ns3:cad>
          </ns3:TrackPointExtension>
        </extensions>
      </trkpt>
      <trkpt lat="45.27983327396214008331298828125" lon="-71.1134062707424163818359375">
        <ele>743.4000244140625</ele>
        <time>2026-08-22T00:53:01.000Z</time>
        <extensions>
          <ns3:TrackPointExtension>
            <ns3:hr>132</ns3:hr>
            <ns3:cad>52</ns3:cad>
          </ns3:TrackPointExtension>
        </extensions>
      </trkpt>
      <trkpt lat="45.27982757426798343658447265625" lon="-71.1133955419063568115234375">
        <ele>743.5999755859375</ele>
        <time>2026-08-22T00:53:02.000Z</time>
        <extensions>
          <ns3:TrackPointExtension>
            <ns3:hr>132</ns3:hr>
            <ns3:cad>52</ns3:cad>
          </ns3:TrackPointExtension>
        </extensions>
      </trkpt>
      <trkpt lat="45.27982019819319248199462890625" lon="-71.1133876629173755645751953125">
        <ele>743.79998779296875</ele>
        <time>2026-08-22T00:53:03.000Z</time>
        <extensions>
          <ns3:TrackPointExtension>
            <ns3:hr>132</ns3:hr>
            <ns3:cad>52</ns3:cad>
          </ns3:TrackPointExtension>
        </extensions>
      </trkpt>
      <trkpt lat="45.27981139719486236572265625" lon="-71.1133821308612823486328125">
        <ele>743.79998779296875</ele>
        <time>2026-08-22T00:53:04.000Z</time>
        <extensions>
          <ns3:TrackPointExtension>
            <ns3:hr>133</ns3:hr>
            <ns3:cad>52</ns3:cad>
          </ns3:TrackPointExtension>
        </extensions>
      </trkpt>
      <trkpt lat="45.279798991978168487548828125" lon="-71.1133776046335697174072265625">
        <ele>744</ele>
        <time>2026-08-22T00:53:05.000Z</time>
        <extensions>
          <ns3:TrackPointExtension>
            <ns3:hr>133</ns3:hr>
            <ns3:cad>52</ns3:cad>
          </ns3:TrackPointExtension>
        </extensions>
      </trkpt>
      <trkpt lat="45.2797864191234111785888671875" lon="-71.1133759282529354095458984375">
        <ele>744</ele>
        <time>2026-08-22T00:53:06.000Z</time>
        <extensions>
          <ns3:TrackPointExtension>
            <ns3:hr>134</ns3:hr>
            <ns3:cad>54</ns3:cad>
          </ns3:TrackPointExtension>
        </extensions>
      </trkpt>
      <trkpt lat="45.27977443300187587738037109375" lon="-71.11337299458682537078857421875">
        <ele>744.20001220703125</ele>
        <time>2026-08-22T00:53:07.000Z</time>
        <extensions>
          <ns3:TrackPointExtension>
            <ns3:hr>134</ns3:hr>
            <ns3:cad>54</ns3:cad>
          </ns3:TrackPointExtension>
        </extensions>
      </trkpt>
      <trkpt lat="45.2797595970332622528076171875" lon="-71.11336947418749332427978515625">
        <ele>744.20001220703125</ele>
        <time>2026-08-22T00:53:08.000Z</time>
        <extensions>
          <ns3:TrackPointExtension>
            <ns3:hr>134</ns3:hr>
            <ns3:cad>0</ns3:cad>
          </ns3:TrackPointExtension>
        </extensions>
      </trkpt>
      <trkpt lat="45.279747359454631805419921875" lon="-71.11336980946362018585205078125">
        <ele>744.4000244140625</ele>
        <time>2026-08-22T00:53:09.000Z</time>
        <extensions>
          <ns3:TrackPointExtension>
            <ns3:hr>134</ns3:hr>
            <ns3:cad>0</ns3:cad>
          </ns3:TrackPointExtension>
        </extensions>
      </trkpt>
      <trkpt lat="45.27973805554211139678955078125" lon="-71.11337081529200077056884765625">
        <ele>744.4000244140625</ele>
        <time>2026-08-22T00:53:10.000Z</time>
        <extensions>
          <ns3:TrackPointExtension>
            <ns3:hr>135</ns3:hr>
            <ns3:cad>0</ns3:cad>
          </ns3:TrackPointExtension>
        </extensions>
      </trkpt>
      <trkpt lat="45.27972816489636898040771484375" lon="-71.1133705638349056243896484375">
        <ele>744.5999755859375</ele>
        <time>2026-08-22T00:53:11.000Z</time>
        <extensions>
          <ns3:TrackPointExtension>
            <ns3:hr>135</ns3:hr>
            <ns3:cad>0</ns3:cad>
          </ns3:TrackPointExtension>
        </extensions>
      </trkpt>
      <trkpt lat="45.279716514050960540771484375" lon="-71.11336528323590755462646484375">
        <ele>744.5999755859375</ele>
        <time>2026-08-22T00:53:12.000Z</time>
        <extensions>
          <ns3:TrackPointExtension>
            <ns3:hr>135</ns3:hr>
            <ns3:cad>0</ns3:cad>
          </ns3:TrackPointExtension>
        </extensions>
      </trkpt>
      <trkpt lat="45.279708802700042724609375" lon="-71.11335623078048229217529296875">
        <ele>744.5999755859375</ele>
        <time>2026-08-22T00:53:13.000Z</time>
        <extensions>
          <ns3:TrackPointExtension>
            <ns3:hr>135</ns3:hr>
            <ns3:cad>0</ns3:cad>
          </ns3:TrackPointExtension>
        </extensions>
      </trkpt>
      <trkpt lat="45.27970301918685436248779296875" lon="-71.11335271038115024566650390625">
        <ele>744.5999755859375</ele>
        <time>2026-08-22T00:53:14.000Z</time>
        <extensions>
          <ns3:TrackPointExtension>
            <ns3:hr>134</ns3:hr>
            <ns3:cad>0</ns3:cad>
          </ns3:TrackPointExtension>
        </extensions>
      </trkpt>
      <trkpt lat="45.27969463728368282318115234375" lon="-71.11335329711437225341796875">
        <ele>744.5999755859375</ele>
        <time>2026-08-22T00:53:15.000Z</time>
        <extensions>
          <ns3:TrackPointExtension>
            <ns3:hr>133</ns3:hr>
            <ns3:cad>0</ns3:cad>
          </ns3:TrackPointExtension>
        </extensions>
      </trkpt>
      <trkpt lat="45.27968265116214752197265625" lon="-71.11335572786629199981689453125">
        <ele>744.5999755859375</ele>
        <time>2026-08-22T00:53:16.000Z</time>
        <extensions>
          <ns3:TrackPointExtension>
            <ns3:hr>132</ns3:hr>
            <ns3:cad>0</ns3:cad>
          </ns3:TrackPointExtension>
        </extensions>
      </trkpt>
      <trkpt lat="45.27967326343059539794921875" lon="-71.11336226575076580047607421875">
        <ele>744.79998779296875</ele>
        <time>2026-08-22T00:53:17.000Z</time>
        <extensions>
          <ns3:TrackPointExtension>
            <ns3:hr>132</ns3:hr>
            <ns3:cad>0</ns3:cad>
          </ns3:TrackPointExtension>
        </extensions>
      </trkpt>
      <trkpt lat="45.27966630645096302032470703125" lon="-71.11336478032171726226806640625">
        <ele>744.79998779296875</ele>
        <time>2026-08-22T00:53:18.000Z</time>
        <extensions>
          <ns3:TrackPointExtension>
            <ns3:hr>132</ns3:hr>
            <ns3:cad>0</ns3:cad>
          </ns3:TrackPointExtension>
        </extensions>
      </trkpt>
      <trkpt lat="45.2796523086726665496826171875" lon="-71.1133672110736370086669921875">
        <ele>745</ele>
        <time>2026-08-22T00:53:19.000Z</time>
        <extensions>
          <ns3:TrackPointExtension>
            <ns3:hr>132</ns3:hr>
            <ns3:cad>0</ns3:cad>
          </ns3:TrackPointExtension>
        </extensions>
      </trkpt>
      <trkpt lat="45.279642082750797271728515625" lon="-71.1133722402155399322509765625">
        <ele>745</ele>
        <time>2026-08-22T00:53:20.000Z</time>
        <extensions>
          <ns3:TrackPointExtension>
            <ns3:hr>133</ns3:hr>
            <ns3:cad>0</ns3:cad>
          </ns3:TrackPointExtension>
        </extensions>
      </trkpt>
      <trkpt lat="45.27963328175246715545654296875" lon="-71.11337651498615741729736328125">
        <ele>745</ele>
        <time>2026-08-22T00:53:21.000Z</time>
        <extensions>
          <ns3:TrackPointExtension>
            <ns3:hr>134</ns3:hr>
            <ns3:cad>0</ns3:cad>
          </ns3:TrackPointExtension>
        </extensions>
      </trkpt>
      <trkpt lat="45.2796216309070587158203125" lon="-71.11338288523256778717041015625">
        <ele>745</ele>
        <time>2026-08-22T00:53:22.000Z</time>
        <extensions>
          <ns3:TrackPointExtension>
            <ns3:hr>133</ns3:hr>
            <ns3:cad>0</ns3:cad>
          </ns3:TrackPointExtension>
        </extensions>
      </trkpt>
      <trkpt lat="45.2796110697090625762939453125" lon="-71.11338573507964611053466796875">
        <ele>745.20001220703125</ele>
        <time>2026-08-22T00:53:23.000Z</time>
        <extensions>
          <ns3:TrackPointExtension>
            <ns3:hr>134</ns3:hr>
            <ns3:cad>0</ns3:cad>
          </ns3:TrackPointExtension>
        </extensions>
      </trkpt>
      <trkpt lat="45.2796003408730030059814453125" lon="-71.11339042894542217254638671875">
        <ele>745.20001220703125</ele>
        <time>2026-08-22T00:53:24.000Z</time>
        <extensions>
          <ns3:TrackPointExtension>
            <ns3:hr>134</ns3:hr>
            <ns3:cad>0</ns3:cad>
          </ns3:TrackPointExtension>
        </extensions>
      </trkpt>
      <trkpt lat="45.27959145605564117431640625" lon="-71.11338841728866100311279296875">
        <ele>745.20001220703125</ele>
        <time>2026-08-22T00:53:25.000Z</time>
        <extensions>
          <ns3:TrackPointExtension>
            <ns3:hr>133</ns3:hr>
            <ns3:cad>0</ns3:cad>
          </ns3:TrackPointExtension>
        </extensions>
      </trkpt>
      <trkpt lat="45.27958114631474018096923828125" lon="-71.11338288523256778717041015625">
        <ele>745.4000244140625</ele>
        <time>2026-08-22T00:53:26.000Z</time>
        <extensions>
          <ns3:TrackPointExtension>
            <ns3:hr>133</ns3:hr>
            <ns3:cad>0</ns3:cad>
          </ns3:TrackPointExtension>
        </extensions>
      </trkpt>
      <trkpt lat="45.27957393787801265716552734375" lon="-71.11337265931069850921630859375">
        <ele>745.4000244140625</ele>
        <time>2026-08-22T00:53:27.000Z</time>
        <extensions>
          <ns3:TrackPointExtension>
            <ns3:hr>132</ns3:hr>
            <ns3:cad>0</ns3:cad>
          </ns3:TrackPointExtension>
        </extensions>
      </trkpt>
      <trkpt lat="45.279566310346126556396484375" lon="-71.1133648641407489776611328125">
        <ele>745.5999755859375</ele>
        <time>2026-08-22T00:53:28.000Z</time>
        <extensions>
          <ns3:TrackPointExtension>
            <ns3:hr>132</ns3:hr>
            <ns3:cad>18</ns3:cad>
          </ns3:TrackPointExtension>
        </extensions>
      </trkpt>
      <trkpt lat="45.27956136502325534820556640625" lon="-71.1133591644465923309326171875">
        <ele>745.79998779296875</ele>
        <time>2026-08-22T00:53:29.000Z</time>
        <extensions>
          <ns3:TrackPointExtension>
            <ns3:hr>132</ns3:hr>
            <ns3:cad>18</ns3:cad>
          </ns3:TrackPointExtension>
        </extensions>
      </trkpt>
      <trkpt lat="45.27955549769103527069091796875" lon="-71.1133501119911670684814453125">
        <ele>746</ele>
        <time>2026-08-22T00:53:30.000Z</time>
        <extensions>
          <ns3:TrackPointExtension>
            <ns3:hr>132</ns3:hr>
            <ns3:cad>18</ns3:cad>
          </ns3:TrackPointExtension>
        </extensions>
      </trkpt>
      <trkpt lat="45.27954795397818088531494140625" lon="-71.113336868584156036376953125">
        <ele>746.20001220703125</ele>
        <time>2026-08-22T00:53:31.000Z</time>
        <extensions>
          <ns3:TrackPointExtension>
            <ns3:hr>132</ns3:hr>
            <ns3:cad>18</ns3:cad>
          </ns3:TrackPointExtension>
        </extensions>
      </trkpt>
      <trkpt lat="45.279542841017246246337890625" lon="-71.11333276145160198211669921875">
        <ele>746.20001220703125</ele>
        <time>2026-08-22T00:53:32.000Z</time>
        <extensions>
          <ns3:TrackPointExtension>
            <ns3:hr>132</ns3:hr>
            <ns3:cad>18</ns3:cad>
          </ns3:TrackPointExtension>
        </extensions>
      </trkpt>
      <trkpt lat="45.279536135494709014892578125" lon="-71.113324798643589019775390625">
        <ele>746.4000244140625</ele>
        <time>2026-08-22T00:53:33.000Z</time>
        <extensions>
          <ns3:TrackPointExtension>
            <ns3:hr>133</ns3:hr>
            <ns3:cad>0</ns3:cad>
          </ns3:TrackPointExtension>
        </extensions>
      </trkpt>
      <trkpt lat="45.27952984906733036041259765625" lon="-71.1133125610649585723876953125">
        <ele>746.5999755859375</ele>
        <time>2026-08-22T00:53:34.000Z</time>
        <extensions>
          <ns3:TrackPointExtension>
            <ns3:hr>133</ns3:hr>
            <ns3:cad>0</ns3:cad>
          </ns3:TrackPointExtension>
        </extensions>
      </trkpt>
      <trkpt lat="45.27952666394412517547607421875" lon="-71.1133025027811527252197265625">
        <ele>746.79998779296875</ele>
        <time>2026-08-22T00:53:35.000Z</time>
        <extensions>
          <ns3:TrackPointExtension>
            <ns3:hr>132</ns3:hr>
            <ns3:cad>0</ns3:cad>
          </ns3:TrackPointExtension>
        </extensions>
      </trkpt>
      <trkpt lat="45.27952431701123714447021484375" lon="-71.1132917739450931549072265625">
        <ele>747</ele>
        <time>2026-08-22T00:53:36.000Z</time>
        <extensions>
          <ns3:TrackPointExtension>
            <ns3:hr>132</ns3:hr>
            <ns3:cad>0</ns3:cad>
          </ns3:TrackPointExtension>
        </extensions>
      </trkpt>
      <trkpt lat="45.27952079661190509796142578125" lon="-71.11327962018549442291259765625">
        <ele>747.20001220703125</ele>
        <time>2026-08-22T00:53:37.000Z</time>
        <extensions>
          <ns3:TrackPointExtension>
            <ns3:hr>132</ns3:hr>
            <ns3:cad>0</ns3:cad>
          </ns3:TrackPointExtension>
        </extensions>
      </trkpt>
      <trkpt lat="45.27951794676482677459716796875" lon="-71.113264448940753936767578125">
        <ele>747.20001220703125</ele>
        <time>2026-08-22T00:53:38.000Z</time>
        <extensions>
          <ns3:TrackPointExtension>
            <ns3:hr>133</ns3:hr>
            <ns3:cad>0</ns3:cad>
          </ns3:TrackPointExtension>
        </extensions>
      </trkpt>
      <trkpt lat="45.27951274998486042022705078125" lon="-71.11324877478182315826416015625">
        <ele>747.4000244140625</ele>
        <time>2026-08-22T00:53:39.000Z</time>
        <extensions>
          <ns3:TrackPointExtension>
            <ns3:hr>133</ns3:hr>
            <ns3:cad>0</ns3:cad>
          </ns3:TrackPointExtension>
        </extensions>
      </trkpt>
      <trkpt lat="45.27950872667133808135986328125" lon="-71.11323318444192409515380859375">
        <ele>747.5999755859375</ele>
        <time>2026-08-22T00:53:40.000Z</time>
        <extensions>
          <ns3:TrackPointExtension>
            <ns3:hr>133</ns3:hr>
            <ns3:cad>0</ns3:cad>
          </ns3:TrackPointExtension>
        </extensions>
      </trkpt>
      <trkpt lat="45.2795031107962131500244140625" lon="-71.11321977339684963226318359375">
        <ele>747.79998779296875</ele>
        <time>2026-08-22T00:53:41.000Z</time>
        <extensions>
          <ns3:TrackPointExtension>
            <ns3:hr>132</ns3:hr>
            <ns3:cad>0</ns3:cad>
          </ns3:TrackPointExtension>
        </extensions>
      </trkpt>
      <trkpt lat="45.27949414215981960296630859375" lon="-71.1132096312940120697021484375">
        <ele>748</ele>
        <time>2026-08-22T00:53:42.000Z</time>
        <extensions>
          <ns3:TrackPointExtension>
            <ns3:hr>132</ns3:hr>
            <ns3:cad>0</ns3:cad>
          </ns3:TrackPointExtension>
        </extensions>
      </trkpt>
      <trkpt lat="45.27948643080890178680419921875" lon="-71.1132019199430942535400390625">
        <ele>748.20001220703125</ele>
        <time>2026-08-22T00:53:43.000Z</time>
        <extensions>
          <ns3:TrackPointExtension>
            <ns3:hr>133</ns3:hr>
            <ns3:cad>0</ns3:cad>
          </ns3:TrackPointExtension>
        </extensions>
      </trkpt>
      <trkpt lat="45.27948140166699886322021484375" lon="-71.11319747753441333770751953125">
        <ele>748.4000244140625</ele>
        <time>2026-08-22T00:53:44.000Z</time>
        <extensions>
          <ns3:TrackPointExtension>
            <ns3:hr>133</ns3:hr>
            <ns3:cad>0</ns3:cad>
          </ns3:TrackPointExtension>
        </extensions>
      </trkpt>
      <trkpt lat="45.27947343885898590087890625" lon="-71.11318456940352916717529296875">
        <ele>748.4000244140625</ele>
        <time>2026-08-22T00:53:45.000Z</time>
        <extensions>
          <ns3:TrackPointExtension>
            <ns3:hr>133</ns3:hr>
            <ns3:cad>46</ns3:cad>
          </ns3:TrackPointExtension>
        </extensions>
      </trkpt>
      <trkpt lat="45.27946681715548038482666015625" lon="-71.11317534931004047393798828125">
        <ele>748.5999755859375</ele>
        <time>2026-08-22T00:53:46.000Z</time>
        <extensions>
          <ns3:TrackPointExtension>
            <ns3:hr>134</ns3:hr>
            <ns3:cad>47</ns3:cad>
          </ns3:TrackPointExtension>
        </extensions>
      </trkpt>
      <trkpt lat="45.27946396730840206146240234375" lon="-71.113165207207202911376953125">
        <ele>748.79998779296875</ele>
        <time>2026-08-22T00:53:47.000Z</time>
        <extensions>
          <ns3:TrackPointExtension>
            <ns3:hr>134</ns3:hr>
            <ns3:cad>48</ns3:cad>
          </ns3:TrackPointExtension>
        </extensions>
      </trkpt>
      <trkpt lat="45.27946262620389461517333984375" lon="-71.11315472982823848724365234375">
        <ele>749</ele>
        <time>2026-08-22T00:53:48.000Z</time>
        <extensions>
          <ns3:TrackPointExtension>
            <ns3:hr>134</ns3:hr>
            <ns3:cad>48</ns3:cad>
          </ns3:TrackPointExtension>
        </extensions>
      </trkpt>
      <trkpt lat="45.279459021985530853271484375" lon="-71.11314131878316402435302734375">
        <ele>749</ele>
        <time>2026-08-22T00:53:49.000Z</time>
        <extensions>
          <ns3:TrackPointExtension>
            <ns3:hr>134</ns3:hr>
            <ns3:cad>48</ns3:cad>
          </ns3:TrackPointExtension>
        </extensions>
      </trkpt>
      <trkpt lat="45.2794544957578182220458984375" lon="-71.11312908120453357696533203125">
        <ele>749.20001220703125</ele>
        <time>2026-08-22T00:53:50.000Z</time>
        <extensions>
          <ns3:TrackPointExtension>
            <ns3:hr>134</ns3:hr>
            <ns3:cad>48</ns3:cad>
          </ns3:TrackPointExtension>
        </extensions>
      </trkpt>
      <trkpt lat="45.27944887988269329071044921875" lon="-71.1131167598068714141845703125">
        <ele>749.20001220703125</ele>
        <time>2026-08-22T00:53:51.000Z</time>
        <extensions>
          <ns3:TrackPointExtension>
            <ns3:hr>134</ns3:hr>
            <ns3:cad>48</ns3:cad>
          </ns3:TrackPointExtension>
        </extensions>
      </trkpt>
      <trkpt lat="45.2794454433023929595947265625" lon="-71.11310209147632122039794921875">
        <ele>749.4000244140625</ele>
        <time>2026-08-22T00:53:52.000Z</time>
        <extensions>
          <ns3:TrackPointExtension>
            <ns3:hr>134</ns3:hr>
            <ns3:cad>48</ns3:cad>
          </ns3:TrackPointExtension>
        </extensions>
      </trkpt>
      <trkpt lat="45.2794434316456317901611328125" lon="-71.11309253610670566558837890625">
        <ele>749.4000244140625</ele>
        <time>2026-08-22T00:53:53.000Z</time>
        <extensions>
          <ns3:TrackPointExtension>
            <ns3:hr>134</ns3:hr>
            <ns3:cad>48</ns3:cad>
          </ns3:TrackPointExtension>
        </extensions>
      </trkpt>
      <trkpt lat="45.2794365584850311279296875" lon="-71.1130684800446033477783203125">
        <ele>749.5999755859375</ele>
        <time>2026-08-22T00:53:54.000Z</time>
        <extensions>
          <ns3:TrackPointExtension>
            <ns3:hr>134</ns3:hr>
            <ns3:cad>48</ns3:cad>
          </ns3:TrackPointExtension>
        </extensions>
      </trkpt>
      <trkpt lat="45.27943228371441364288330078125" lon="-71.11304928548634052276611328125">
        <ele>749.79998779296875</ele>
        <time>2026-08-22T00:53:55.000Z</time>
        <extensions>
          <ns3:TrackPointExtension>
            <ns3:hr>134</ns3:hr>
            <ns3:cad>48</ns3:cad>
          </ns3:TrackPointExtension>
        </extensions>
      </trkpt>
      <trkpt lat="45.27942608110606670379638671875" lon="-71.11303218640387058258056640625">
        <ele>750</ele>
        <time>2026-08-22T00:53:56.000Z</time>
        <extensions>
          <ns3:TrackPointExtension>
            <ns3:hr>134</ns3:hr>
            <ns3:cad>48</ns3:cad>
          </ns3:TrackPointExtension>
        </extensions>
      </trkpt>
      <trkpt lat="45.2794202975928783416748046875" lon="-71.11301693134009838104248046875">
        <ele>750.20001220703125</ele>
        <time>2026-08-22T00:53:57.000Z</time>
        <extensions>
          <ns3:TrackPointExtension>
            <ns3:hr>134</ns3:hr>
            <ns3:cad>48</ns3:cad>
          </ns3:TrackPointExtension>
        </extensions>
      </trkpt>
      <trkpt lat="45.2794149331748485565185546875" lon="-71.11300368793308734893798828125">
        <ele>750.4000244140625</ele>
        <time>2026-08-22T00:53:58.000Z</time>
        <extensions>
          <ns3:TrackPointExtension>
            <ns3:hr>134</ns3:hr>
            <ns3:cad>48</ns3:cad>
          </ns3:TrackPointExtension>
        </extensions>
      </trkpt>
      <trkpt lat="45.27940914966166019439697265625" lon="-71.11299279145896434783935546875">
        <ele>750.4000244140625</ele>
        <time>2026-08-22T00:53:59.000Z</time>
        <extensions>
          <ns3:TrackPointExtension>
            <ns3:hr>134</ns3:hr>
            <ns3:cad>48</ns3:cad>
          </ns3:TrackPointExtension>
        </extensions>
      </trkpt>
      <trkpt lat="45.27940361760556697845458984375" lon="-71.11298139207065105438232421875">
        <ele>750.5999755859375</ele>
        <time>2026-08-22T00:54:00.000Z</time>
        <extensions>
          <ns3:TrackPointExtension>
            <ns3:hr>134</ns3:hr>
            <ns3:cad>48</ns3:cad>
          </ns3:TrackPointExtension>
        </extensions>
      </trkpt>
      <trkpt lat="45.27939808554947376251220703125" lon="-71.1129668913781642913818359375">
        <ele>750.79998779296875</ele>
        <time>2026-08-22T00:54:01.000Z</time>
        <extensions>
          <ns3:TrackPointExtension>
            <ns3:hr>134</ns3:hr>
            <ns3:cad>50</ns3:cad>
          </ns3:TrackPointExtension>
        </extensions>
      </trkpt>
      <trkpt lat="45.27938869781792163848876953125" lon="-71.1129558272659778594970703125">
        <ele>750.79998779296875</ele>
        <time>2026-08-22T00:54:02.000Z</time>
        <extensions>
          <ns3:TrackPointExtension>
            <ns3:hr>135</ns3:hr>
            <ns3:cad>50</ns3:cad>
          </ns3:TrackPointExtension>
        </extensions>
      </trkpt>
      <trkpt lat="45.2793810702860355377197265625" lon="-71.11295222304761409759521484375">
        <ele>751</ele>
        <time>2026-08-22T00:54:03.000Z</time>
        <extensions>
          <ns3:TrackPointExtension>
            <ns3:hr>134</ns3:hr>
            <ns3:cad>50</ns3:cad>
          </ns3:TrackPointExtension>
        </extensions>
      </trkpt>
      <trkpt lat="45.27937495149672031402587890625" lon="-71.11293864436447620391845703125">
        <ele>751.20001220703125</ele>
        <time>2026-08-22T00:54:04.000Z</time>
        <extensions>
          <ns3:TrackPointExtension>
            <ns3:hr>134</ns3:hr>
            <ns3:cad>50</ns3:cad>
          </ns3:TrackPointExtension>
        </extensions>
      </trkpt>
      <trkpt lat="45.2793663181364536285400390625" lon="-71.11291584558784961700439453125">
        <ele>751.4000244140625</ele>
        <time>2026-08-22T00:54:05.000Z</time>
        <extensions>
          <ns3:TrackPointExtension>
            <ns3:hr>135</ns3:hr>
            <ns3:cad>50</ns3:cad>
          </ns3:TrackPointExtension>
        </extensions>
      </trkpt>
      <trkpt lat="45.2793586067855358123779296875" lon="-71.1128917895257472991943359375">
        <ele>751.4000244140625</ele>
        <time>2026-08-22T00:54:06.000Z</time>
        <extensions>
          <ns3:TrackPointExtension>
            <ns3:hr>135</ns3:hr>
            <ns3:cad>50</ns3:cad>
          </ns3:TrackPointExtension>
        </extensions>
      </trkpt>
      <trkpt lat="45.27934863232076168060302734375" lon="-71.1128854192793369293212890625">
        <ele>751.5999755859375</ele>
        <time>2026-08-22T00:54:07.000Z</time>
        <extensions>
          <ns3:TrackPointExtension>
            <ns3:hr>135</ns3:hr>
            <ns3:cad>50</ns3:cad>
          </ns3:TrackPointExtension>
        </extensions>
      </trkpt>
      <trkpt lat="45.279341004788875579833984375" lon="-71.11287527717649936676025390625">
        <ele>751.79998779296875</ele>
        <time>2026-08-22T00:54:08.000Z</time>
        <extensions>
          <ns3:TrackPointExtension>
            <ns3:hr>135</ns3:hr>
            <ns3:cad>51</ns3:cad>
          </ns3:TrackPointExtension>
        </extensions>
      </trkpt>
      <trkpt lat="45.2793373167514801025390625" lon="-71.11286672763526439666748046875">
        <ele>752</ele>
        <time>2026-08-22T00:54:09.000Z</time>
        <extensions>
          <ns3:TrackPointExtension>
            <ns3:hr>135</ns3:hr>
            <ns3:cad>51</ns3:cad>
          </ns3:TrackPointExtension>
        </extensions>
      </trkpt>
      <trkpt lat="45.2793284319341182708740234375" lon="-71.112851388752460479736328125">
        <ele>752.20001220703125</ele>
        <time>2026-08-22T00:54:10.000Z</time>
        <extensions>
          <ns3:TrackPointExtension>
            <ns3:hr>135</ns3:hr>
            <ns3:cad>51</ns3:cad>
          </ns3:TrackPointExtension>
        </extensions>
      </trkpt>
      <trkpt lat="45.27931896038353443145751953125" lon="-71.11284057609736919403076171875">
        <ele>752.20001220703125</ele>
        <time>2026-08-22T00:54:11.000Z</time>
        <extensions>
          <ns3:TrackPointExtension>
            <ns3:hr>135</ns3:hr>
            <ns3:cad>48</ns3:cad>
          </ns3:TrackPointExtension>
        </extensions>
      </trkpt>
      <trkpt lat="45.279310829937458038330078125" lon="-71.112829260528087615966796875">
        <ele>752.4000244140625</ele>
        <time>2026-08-22T00:54:12.000Z</time>
        <extensions>
          <ns3:TrackPointExtension>
            <ns3:hr>135</ns3:hr>
            <ns3:cad>48</ns3:cad>
          </ns3:TrackPointExtension>
        </extensions>
      </trkpt>
      <trkpt lat="45.2793032862246036529541015625" lon="-71.112817861139774322509765625">
        <ele>752.5999755859375</ele>
        <time>2026-08-22T00:54:13.000Z</time>
        <extensions>
          <ns3:TrackPointExtension>
            <ns3:hr>134</ns3:hr>
            <ns3:cad>44</ns3:cad>
          </ns3:TrackPointExtension>
        </extensions>
      </trkpt>
      <trkpt lat="45.2792959101498126983642578125" lon="-71.11280880868434906005859375">
        <ele>752.5999755859375</ele>
        <time>2026-08-22T00:54:14.000Z</time>
        <extensions>
          <ns3:TrackPointExtension>
            <ns3:hr>134</ns3:hr>
            <ns3:cad>44</ns3:cad>
          </ns3:TrackPointExtension>
        </extensions>
      </trkpt>
      <trkpt lat="45.27928945608437061309814453125" lon="-71.1127959005534648895263671875">
        <ele>752.79998779296875</ele>
        <time>2026-08-22T00:54:15.000Z</time>
        <extensions>
          <ns3:TrackPointExtension>
            <ns3:hr>134</ns3:hr>
            <ns3:cad>0</ns3:cad>
          </ns3:TrackPointExtension>
        </extensions>
      </trkpt>
      <trkpt lat="45.27928224764764308929443359375" lon="-71.112788356840610504150390625">
        <ele>752.79998779296875</ele>
        <time>2026-08-22T00:54:16.000Z</time>
        <extensions>
          <ns3:TrackPointExtension>
            <ns3:hr>134</ns3:hr>
            <ns3:cad>0</ns3:cad>
          </ns3:TrackPointExtension>
        </extensions>
      </trkpt>
      <trkpt lat="45.27927386574447154998779296875" lon="-71.1127794720232486724853515625">
        <ele>753</ele>
        <time>2026-08-22T00:54:17.000Z</time>
        <extensions>
          <ns3:TrackPointExtension>
            <ns3:hr>134</ns3:hr>
            <ns3:cad>0</ns3:cad>
          </ns3:TrackPointExtension>
        </extensions>
      </trkpt>
      <trkpt lat="45.27926263399422168731689453125" lon="-71.1127680726349353790283203125">
        <ele>753.20001220703125</ele>
        <time>2026-08-22T00:54:18.000Z</time>
        <extensions>
          <ns3:TrackPointExtension>
            <ns3:hr>135</ns3:hr>
            <ns3:cad>0</ns3:cad>
          </ns3:TrackPointExtension>
        </extensions>
      </trkpt>
      <trkpt lat="45.2792509831488132476806640625" lon="-71.11275918781757354736328125">
        <ele>753.4000244140625</ele>
        <time>2026-08-22T00:54:19.000Z</time>
        <extensions>
          <ns3:TrackPointExtension>
            <ns3:hr>134</ns3:hr>
            <ns3:cad>0</ns3:cad>
          </ns3:TrackPointExtension>
        </extensions>
      </trkpt>
      <trkpt lat="45.2792409248650074005126953125" lon="-71.1127544939517974853515625">
        <ele>753.5999755859375</ele>
        <time>2026-08-22T00:54:20.000Z</time>
        <extensions>
          <ns3:TrackPointExtension>
            <ns3:hr>134</ns3:hr>
            <ns3:cad>0</ns3:cad>
          </ns3:TrackPointExtension>
        </extensions>
      </trkpt>
      <trkpt lat="45.27923195622861385345458984375" lon="-71.112748794257640838623046875">
        <ele>753.79998779296875</ele>
        <time>2026-08-22T00:54:21.000Z</time>
        <extensions>
          <ns3:TrackPointExtension>
            <ns3:hr>134</ns3:hr>
            <ns3:cad>0</ns3:cad>
          </ns3:TrackPointExtension>
        </extensions>
      </trkpt>
      <trkpt lat="45.279227681457996368408203125" lon="-71.112745106220245361328125">
        <ele>754</ele>
        <time>2026-08-22T00:54:22.000Z</time>
        <extensions>
          <ns3:TrackPointExtension>
            <ns3:hr>133</ns3:hr>
            <ns3:cad>46</ns3:cad>
          </ns3:TrackPointExtension>
        </extensions>
      </trkpt>
      <trkpt lat="45.2792204730212688446044921875" lon="-71.11273881979286670684814453125">
        <ele>754</ele>
        <time>2026-08-22T00:54:23.000Z</time>
        <extensions>
          <ns3:TrackPointExtension>
            <ns3:hr>133</ns3:hr>
            <ns3:cad>47</ns3:cad>
          </ns3:TrackPointExtension>
        </extensions>
      </trkpt>
      <trkpt lat="45.27921116910874843597412109375" lon="-71.1127261631190776824951171875">
        <ele>754.20001220703125</ele>
        <time>2026-08-22T00:54:24.000Z</time>
        <extensions>
          <ns3:TrackPointExtension>
            <ns3:hr>133</ns3:hr>
            <ns3:cad>47</ns3:cad>
          </ns3:TrackPointExtension>
        </extensions>
      </trkpt>
      <trkpt lat="45.27920597232878208160400390625" lon="-71.11271560192108154296875">
        <ele>754.4000244140625</ele>
        <time>2026-08-22T00:54:25.000Z</time>
        <extensions>
          <ns3:TrackPointExtension>
            <ns3:hr>133</ns3:hr>
            <ns3:cad>47</ns3:cad>
          </ns3:TrackPointExtension>
        </extensions>
      </trkpt>
      <trkpt lat="45.2791976742446422576904296875" lon="-71.11270344816148281097412109375">
        <ele>754.4000244140625</ele>
        <time>2026-08-22T00:54:26.000Z</time>
        <extensions>
          <ns3:TrackPointExtension>
            <ns3:hr>134</ns3:hr>
            <ns3:cad>47</ns3:cad>
          </ns3:TrackPointExtension>
        </extensions>
      </trkpt>
      <trkpt lat="45.27919138781726360321044921875" lon="-71.112691797316074371337890625">
        <ele>754.5999755859375</ele>
        <time>2026-08-22T00:54:27.000Z</time>
        <extensions>
          <ns3:TrackPointExtension>
            <ns3:hr>133</ns3:hr>
            <ns3:cad>47</ns3:cad>
          </ns3:TrackPointExtension>
        </extensions>
      </trkpt>
      <trkpt lat="45.2791817486286163330078125" lon="-71.11268148757517337799072265625">
        <ele>754.79998779296875</ele>
        <time>2026-08-22T00:54:28.000Z</time>
        <extensions>
          <ns3:TrackPointExtension>
            <ns3:hr>133</ns3:hr>
            <ns3:cad>47</ns3:cad>
          </ns3:TrackPointExtension>
        </extensions>
      </trkpt>
      <trkpt lat="45.27916875667870044708251953125" lon="-71.112679056823253631591796875">
        <ele>754.79998779296875</ele>
        <time>2026-08-22T00:54:29.000Z</time>
        <extensions>
          <ns3:TrackPointExtension>
            <ns3:hr>133</ns3:hr>
            <ns3:cad>47</ns3:cad>
          </ns3:TrackPointExtension>
        </extensions>
      </trkpt>
      <trkpt lat="45.2791577763855457305908203125" lon="-71.112670339643955230712890625">
        <ele>755</ele>
        <time>2026-08-22T00:54:30.000Z</time>
        <extensions>
          <ns3:TrackPointExtension>
            <ns3:hr>132</ns3:hr>
            <ns3:cad>47</ns3:cad>
          </ns3:TrackPointExtension>
        </extensions>
      </trkpt>
      <trkpt lat="45.27914822101593017578125" lon="-71.112664639949798583984375">
        <ele>755</ele>
        <time>2026-08-22T00:54:31.000Z</time>
        <extensions>
          <ns3:TrackPointExtension>
            <ns3:hr>132</ns3:hr>
            <ns3:cad>47</ns3:cad>
          </ns3:TrackPointExtension>
        </extensions>
      </trkpt>
      <trkpt lat="45.27914193458855152130126953125" lon="-71.112659275531768798828125">
        <ele>755.20001220703125</ele>
        <time>2026-08-22T00:54:32.000Z</time>
        <extensions>
          <ns3:TrackPointExtension>
            <ns3:hr>132</ns3:hr>
            <ns3:cad>43</ns3:cad>
          </ns3:TrackPointExtension>
        </extensions>
      </trkpt>
      <trkpt lat="45.2791363187134265899658203125" lon="-71.112651564180850982666015625">
        <ele>755.4000244140625</ele>
        <time>2026-08-22T00:54:33.000Z</time>
        <extensions>
          <ns3:TrackPointExtension>
            <ns3:hr>132</ns3:hr>
            <ns3:cad>43</ns3:cad>
          </ns3:TrackPointExtension>
        </extensions>
      </trkpt>
      <trkpt lat="45.27913103811442852020263671875" lon="-71.11264251172542572021484375">
        <ele>755.4000244140625</ele>
        <time>2026-08-22T00:54:34.000Z</time>
        <extensions>
          <ns3:TrackPointExtension>
            <ns3:hr>133</ns3:hr>
            <ns3:cad>0</ns3:cad>
          </ns3:TrackPointExtension>
        </extensions>
      </trkpt>
      <trkpt lat="45.279129110276699066162109375" lon="-71.11263019032776355743408203125">
        <ele>755.5999755859375</ele>
        <time>2026-08-22T00:54:35.000Z</time>
        <extensions>
          <ns3:TrackPointExtension>
            <ns3:hr>133</ns3:hr>
            <ns3:cad>0</ns3:cad>
          </ns3:TrackPointExtension>
        </extensions>
      </trkpt>
      <trkpt lat="45.27912768535315990447998046875" lon="-71.11261644400656223297119140625">
        <ele>755.79998779296875</ele>
        <time>2026-08-22T00:54:36.000Z</time>
        <extensions>
          <ns3:TrackPointExtension>
            <ns3:hr>133</ns3:hr>
            <ns3:cad>43</ns3:cad>
          </ns3:TrackPointExtension>
        </extensions>
      </trkpt>
      <trkpt lat="45.27912768535315990447998046875" lon="-71.11260739155113697052001953125">
        <ele>756</ele>
        <time>2026-08-22T00:54:37.000Z</time>
        <extensions>
          <ns3:TrackPointExtension>
            <ns3:hr>132</ns3:hr>
            <ns3:cad>43</ns3:cad>
          </ns3:TrackPointExtension>
        </extensions>
      </trkpt>
      <trkpt lat="45.27912475168704986572265625" lon="-71.11259733326733112335205078125">
        <ele>756</ele>
        <time>2026-08-22T00:54:38.000Z</time>
        <extensions>
          <ns3:TrackPointExtension>
            <ns3:hr>132</ns3:hr>
            <ns3:cad>43</ns3:cad>
          </ns3:TrackPointExtension>
        </extensions>
      </trkpt>
      <trkpt lat="45.279120393097400665283203125" lon="-71.11258677206933498382568359375">
        <ele>756.20001220703125</ele>
        <time>2026-08-22T00:54:39.000Z</time>
        <extensions>
          <ns3:TrackPointExtension>
            <ns3:hr>132</ns3:hr>
            <ns3:cad>42</ns3:cad>
          </ns3:TrackPointExtension>
        </extensions>
      </trkpt>
      <trkpt lat="45.279117040336132049560546875" lon="-71.1125712655484676361083984375">
        <ele>756.20001220703125</ele>
        <time>2026-08-22T00:54:40.000Z</time>
        <extensions>
          <ns3:TrackPointExtension>
            <ns3:hr>132</ns3:hr>
            <ns3:cad>42</ns3:cad>
          </ns3:TrackPointExtension>
        </extensions>
      </trkpt>
      <trkpt lat="45.2791151963174343109130859375" lon="-71.1125555075705051422119140625">
        <ele>756.4000244140625</ele>
        <time>2026-08-22T00:54:41.000Z</time>
        <extensions>
          <ns3:TrackPointExtension>
            <ns3:hr>132</ns3:hr>
            <ns3:cad>42</ns3:cad>
          </ns3:TrackPointExtension>
        </extensions>
      </trkpt>
      <trkpt lat="45.27911243028938770294189453125" lon="-71.11253924667835235595703125">
        <ele>756.5999755859375</ele>
        <time>2026-08-22T00:54:42.000Z</time>
        <extensions>
          <ns3:TrackPointExtension>
            <ns3:hr>132</ns3:hr>
            <ns3:cad>44</ns3:cad>
          </ns3:TrackPointExtension>
        </extensions>
      </trkpt>
      <trkpt lat="45.2791088260710239410400390625" lon="-71.11252374015748500823974609375">
        <ele>756.5999755859375</ele>
        <time>2026-08-22T00:54:43.000Z</time>
        <extensions>
          <ns3:TrackPointExtension>
            <ns3:hr>133</ns3:hr>
            <ns3:cad>44</ns3:cad>
          </ns3:TrackPointExtension>
        </extensions>
      </trkpt>
      <trkpt lat="45.27910522185266017913818359375" lon="-71.112512089312076568603515625">
        <ele>756.5999755859375</ele>
        <time>2026-08-22T00:54:44.000Z</time>
        <extensions>
          <ns3:TrackPointExtension>
            <ns3:hr>133</ns3:hr>
            <ns3:cad>44</ns3:cad>
          </ns3:TrackPointExtension>
        </extensions>
      </trkpt>
      <trkpt lat="45.27910404838621616363525390625" lon="-71.11249767243862152099609375">
        <ele>756.79998779296875</ele>
        <time>2026-08-22T00:54:45.000Z</time>
        <extensions>
          <ns3:TrackPointExtension>
            <ns3:hr>133</ns3:hr>
            <ns3:cad>44</ns3:cad>
          </ns3:TrackPointExtension>
        </extensions>
      </trkpt>
      <trkpt lat="45.2790980972349643707275390625" lon="-71.11248987726867198944091796875">
        <ele>757</ele>
        <time>2026-08-22T00:54:46.000Z</time>
        <extensions>
          <ns3:TrackPointExtension>
            <ns3:hr>133</ns3:hr>
            <ns3:cad>44</ns3:cad>
          </ns3:TrackPointExtension>
        </extensions>
      </trkpt>
      <trkpt lat="45.2790937386453151702880859375" lon="-71.1124770529568195343017578125">
        <ele>757.20001220703125</ele>
        <time>2026-08-22T00:54:47.000Z</time>
        <extensions>
          <ns3:TrackPointExtension>
            <ns3:hr>133</ns3:hr>
            <ns3:cad>44</ns3:cad>
          </ns3:TrackPointExtension>
        </extensions>
      </trkpt>
      <trkpt lat="45.279089547693729400634765625" lon="-71.11246858723461627960205078125">
        <ele>757.4000244140625</ele>
        <time>2026-08-22T00:54:48.000Z</time>
        <extensions>
          <ns3:TrackPointExtension>
            <ns3:hr>134</ns3:hr>
            <ns3:cad>0</ns3:cad>
          </ns3:TrackPointExtension>
        </extensions>
      </trkpt>
      <trkpt lat="45.2790826745331287384033203125" lon="-71.112458445131778717041015625">
        <ele>757.5999755859375</ele>
        <time>2026-08-22T00:54:49.000Z</time>
        <extensions>
          <ns3:TrackPointExtension>
            <ns3:hr>134</ns3:hr>
            <ns3:cad>0</ns3:cad>
          </ns3:TrackPointExtension>
        </extensions>
      </trkpt>
      <trkpt lat="45.2790744602680206298828125" lon="-71.11244712956249713897705078125">
        <ele>757.5999755859375</ele>
        <time>2026-08-22T00:54:50.000Z</time>
        <extensions>
          <ns3:TrackPointExtension>
            <ns3:hr>134</ns3:hr>
            <ns3:cad>0</ns3:cad>
          </ns3:TrackPointExtension>
        </extensions>
      </trkpt>
      <trkpt lat="45.2790659107267856597900390625" lon="-71.11244260333478450775146484375">
        <ele>757.5999755859375</ele>
        <time>2026-08-22T00:54:51.000Z</time>
        <extensions>
          <ns3:TrackPointExtension>
            <ns3:hr>134</ns3:hr>
            <ns3:cad>0</ns3:cad>
          </ns3:TrackPointExtension>
        </extensions>
      </trkpt>
      <trkpt lat="45.27905660681426525115966796875" lon="-71.11242935992777347564697265625">
        <ele>757.79998779296875</ele>
        <time>2026-08-22T00:54:52.000Z</time>
        <extensions>
          <ns3:TrackPointExtension>
            <ns3:hr>134</ns3:hr>
            <ns3:cad>0</ns3:cad>
          </ns3:TrackPointExtension>
        </extensions>
      </trkpt>
      <trkpt lat="45.27905107475817203521728515625" lon="-71.112412177026271820068359375">
        <ele>757.79998779296875</ele>
        <time>2026-08-22T00:54:53.000Z</time>
        <extensions>
          <ns3:TrackPointExtension>
            <ns3:hr>134</ns3:hr>
            <ns3:cad>0</ns3:cad>
          </ns3:TrackPointExtension>
        </extensions>
      </trkpt>
      <trkpt lat="45.2790454588830471038818359375" lon="-71.1123955808579921722412109375">
        <ele>757.79998779296875</ele>
        <time>2026-08-22T00:54:54.000Z</time>
        <extensions>
          <ns3:TrackPointExtension>
            <ns3:hr>134</ns3:hr>
            <ns3:cad>0</ns3:cad>
          </ns3:TrackPointExtension>
        </extensions>
      </trkpt>
      <trkpt lat="45.2790421061217784881591796875" lon="-71.11238158307969570159912109375">
        <ele>758</ele>
        <time>2026-08-22T00:54:55.000Z</time>
        <extensions>
          <ns3:TrackPointExtension>
            <ns3:hr>134</ns3:hr>
            <ns3:cad>0</ns3:cad>
          </ns3:TrackPointExtension>
        </extensions>
      </trkpt>
      <trkpt lat="45.27903447858989238739013671875" lon="-71.1123670823872089385986328125">
        <ele>758</ele>
        <time>2026-08-22T00:54:56.000Z</time>
        <extensions>
          <ns3:TrackPointExtension>
            <ns3:hr>134</ns3:hr>
            <ns3:cad>0</ns3:cad>
          </ns3:TrackPointExtension>
        </extensions>
      </trkpt>
      <trkpt lat="45.27902693487703800201416015625" lon="-71.11235124059021472930908203125">
        <ele>758.20001220703125</ele>
        <time>2026-08-22T00:54:57.000Z</time>
        <extensions>
          <ns3:TrackPointExtension>
            <ns3:hr>134</ns3:hr>
            <ns3:cad>0</ns3:cad>
          </ns3:TrackPointExtension>
        </extensions>
      </trkpt>
      <trkpt lat="45.279020480811595916748046875" lon="-71.11233565025031566619873046875">
        <ele>758.4000244140625</ele>
        <time>2026-08-22T00:54:58.000Z</time>
        <extensions>
          <ns3:TrackPointExtension>
            <ns3:hr>134</ns3:hr>
            <ns3:cad>0</ns3:cad>
          </ns3:TrackPointExtension>
        </extensions>
      </trkpt>
      <trkpt lat="45.279013775289058685302734375" lon="-71.11232064664363861083984375">
        <ele>758.5999755859375</ele>
        <time>2026-08-22T00:54:59.000Z</time>
        <extensions>
          <ns3:TrackPointExtension>
            <ns3:hr>134</ns3:hr>
            <ns3:cad>0</ns3:cad>
          </ns3:TrackPointExtension>
        </extensions>
      </trkpt>
      <trkpt lat="45.2790028788149356842041015625" lon="-71.1122986860573291778564453125">
        <ele>758.5999755859375</ele>
        <time>2026-08-22T00:55:00.000Z</time>
        <extensions>
          <ns3:TrackPointExtension>
            <ns3:hr>134</ns3:hr>
            <ns3:cad>0</ns3:cad>
          </ns3:TrackPointExtension>
        </extensions>
      </trkpt>
      <trkpt lat="45.2789913117885589599609375" lon="-71.11228368245065212249755859375">
        <ele>758.79998779296875</ele>
        <time>2026-08-22T00:55:01.000Z</time>
        <extensions>
          <ns3:TrackPointExtension>
            <ns3:hr>134</ns3:hr>
            <ns3:cad>49</ns3:cad>
          </ns3:TrackPointExtension>
        </extensions>
      </trkpt>
      <trkpt lat="45.27898301370441913604736328125" lon="-71.112271361052989959716796875">
        <ele>759</ele>
        <time>2026-08-22T00:55:02.000Z</time>
        <extensions>
          <ns3:TrackPointExtension>
            <ns3:hr>135</ns3:hr>
            <ns3:cad>49</ns3:cad>
          </ns3:TrackPointExtension>
        </extensions>
      </trkpt>
      <trkpt lat="45.2789737097918987274169921875" lon="-71.112262308597564697265625">
        <ele>759</ele>
        <time>2026-08-22T00:55:03.000Z</time>
        <extensions>
          <ns3:TrackPointExtension>
            <ns3:hr>135</ns3:hr>
            <ns3:cad>49</ns3:cad>
          </ns3:TrackPointExtension>
        </extensions>
      </trkpt>
      <trkpt lat="45.2789653278887271881103515625" lon="-71.11225518397986888885498046875">
        <ele>759.20001220703125</ele>
        <time>2026-08-22T00:55:04.000Z</time>
        <extensions>
          <ns3:TrackPointExtension>
            <ns3:hr>136</ns3:hr>
            <ns3:cad>49</ns3:cad>
          </ns3:TrackPointExtension>
        </extensions>
      </trkpt>
      <trkpt lat="45.27895200066268444061279296875" lon="-71.11224814318120479583740234375">
        <ele>759.4000244140625</ele>
        <time>2026-08-22T00:55:05.000Z</time>
        <extensions>
          <ns3:TrackPointExtension>
            <ns3:hr>136</ns3:hr>
            <ns3:cad>0</ns3:cad>
          </ns3:TrackPointExtension>
        </extensions>
      </trkpt>
      <trkpt lat="45.2789395116269588470458984375" lon="-71.112246215343475341796875">
        <ele>759.5999755859375</ele>
        <time>2026-08-22T00:55:06.000Z</time>
        <extensions>
          <ns3:TrackPointExtension>
            <ns3:hr>135</ns3:hr>
            <ns3:cad>0</ns3:cad>
          </ns3:TrackPointExtension>
        </extensions>
      </trkpt>
      <trkpt lat="45.2789254300296306610107421875" lon="-71.1122416891157627105712890625">
        <ele>759.79998779296875</ele>
        <time>2026-08-22T00:55:07.000Z</time>
        <extensions>
          <ns3:TrackPointExtension>
            <ns3:hr>135</ns3:hr>
            <ns3:cad>0</ns3:cad>
          </ns3:TrackPointExtension>
        </extensions>
      </trkpt>
      <trkpt lat="45.27891444973647594451904296875" lon="-71.11224328167736530303955078125">
        <ele>759.79998779296875</ele>
        <time>2026-08-22T00:55:08.000Z</time>
        <extensions>
          <ns3:TrackPointExtension>
            <ns3:hr>134</ns3:hr>
            <ns3:cad>0</ns3:cad>
          </ns3:TrackPointExtension>
        </extensions>
      </trkpt>
      <trkpt lat="45.27890087105333805084228515625" lon="-71.11224286258220672607421875">
        <ele>760</ele>
        <time>2026-08-22T00:55:09.000Z</time>
        <extensions>
          <ns3:TrackPointExtension>
            <ns3:hr>134</ns3:hr>
            <ns3:cad>0</ns3:cad>
          </ns3:TrackPointExtension>
        </extensions>
      </trkpt>
      <trkpt lat="45.2788841910660266876220703125" lon="-71.11223774962127208709716796875">
        <ele>760</ele>
        <time>2026-08-22T00:55:10.000Z</time>
        <extensions>
          <ns3:TrackPointExtension>
            <ns3:hr>134</ns3:hr>
            <ns3:cad>0</ns3:cad>
          </ns3:TrackPointExtension>
        </extensions>
      </trkpt>
      <trkpt lat="45.2788724564015865325927734375" lon="-71.11222567968070507049560546875">
        <ele>760.20001220703125</ele>
        <time>2026-08-22T00:55:11.000Z</time>
        <extensions>
          <ns3:TrackPointExtension>
            <ns3:hr>133</ns3:hr>
            <ns3:cad>0</ns3:cad>
          </ns3:TrackPointExtension>
        </extensions>
      </trkpt>
      <trkpt lat="45.2788603864610195159912109375" lon="-71.1122138611972332000732421875">
        <ele>760.20001220703125</ele>
        <time>2026-08-22T00:55:12.000Z</time>
        <extensions>
          <ns3:TrackPointExtension>
            <ns3:hr>133</ns3:hr>
            <ns3:cad>0</ns3:cad>
          </ns3:TrackPointExtension>
        </extensions>
      </trkpt>
      <trkpt lat="45.2788476459681987762451171875" lon="-71.11220397055149078369140625">
        <ele>760.4000244140625</ele>
        <time>2026-08-22T00:55:13.000Z</time>
        <extensions>
          <ns3:TrackPointExtension>
            <ns3:hr>134</ns3:hr>
            <ns3:cad>0</ns3:cad>
          </ns3:TrackPointExtension>
        </extensions>
      </trkpt>
      <trkpt lat="45.27883415110409259796142578125" lon="-71.11218879930675029754638671875">
        <ele>760.4000244140625</ele>
        <time>2026-08-22T00:55:14.000Z</time>
        <extensions>
          <ns3:TrackPointExtension>
            <ns3:hr>134</ns3:hr>
            <ns3:cad>0</ns3:cad>
          </ns3:TrackPointExtension>
        </extensions>
      </trkpt>
      <trkpt lat="45.27882568538188934326171875" lon="-71.11217354424297809600830078125">
        <ele>760.5999755859375</ele>
        <time>2026-08-22T00:55:15.000Z</time>
        <extensions>
          <ns3:TrackPointExtension>
            <ns3:hr>134</ns3:hr>
            <ns3:cad>0</ns3:cad>
          </ns3:TrackPointExtension>
        </extensions>
      </trkpt>
      <trkpt lat="45.27881688438355922698974609375" lon="-71.11216365359723567962646484375">
        <ele>760.5999755859375</ele>
        <time>2026-08-22T00:55:16.000Z</time>
        <extensions>
          <ns3:TrackPointExtension>
            <ns3:hr>135</ns3:hr>
            <ns3:cad>0</ns3:cad>
          </ns3:TrackPointExtension>
        </extensions>
      </trkpt>
      <trkpt lat="45.2788100950419902801513671875" lon="-71.11215560697019100189208984375">
        <ele>760.5999755859375</ele>
        <time>2026-08-22T00:55:17.000Z</time>
        <extensions>
          <ns3:TrackPointExtension>
            <ns3:hr>135</ns3:hr>
            <ns3:cad>0</ns3:cad>
          </ns3:TrackPointExtension>
        </extensions>
      </trkpt>
      <trkpt lat="45.27879416942596435546875" lon="-71.11214588396251201629638671875">
        <ele>760.79998779296875</ele>
        <time>2026-08-22T00:55:18.000Z</time>
        <extensions>
          <ns3:TrackPointExtension>
            <ns3:hr>136</ns3:hr>
            <ns3:cad>0</ns3:cad>
          </ns3:TrackPointExtension>
        </extensions>
      </trkpt>
      <trkpt lat="45.27877028100192546844482421875" lon="-71.1121481470763683319091796875">
        <ele>760.79998779296875</ele>
        <time>2026-08-22T00:55:19.000Z</time>
        <extensions>
          <ns3:TrackPointExtension>
            <ns3:hr>135</ns3:hr>
            <ns3:cad>0</ns3:cad>
          </ns3:TrackPointExtension>
        </extensions>
      </trkpt>
      <trkpt lat="45.2787472307682037353515625" lon="-71.112149991095066070556640625">
        <ele>761</ele>
        <time>2026-08-22T00:55:20.000Z</time>
        <extensions>
          <ns3:TrackPointExtension>
            <ns3:hr>135</ns3:hr>
            <ns3:cad>0</ns3:cad>
          </ns3:TrackPointExtension>
        </extensions>
      </trkpt>
      <trkpt lat="45.2787329815328121185302734375" lon="-71.112153343856334686279296875">
        <ele>761</ele>
        <time>2026-08-22T00:55:21.000Z</time>
        <extensions>
          <ns3:TrackPointExtension>
            <ns3:hr>134</ns3:hr>
            <ns3:cad>0</ns3:cad>
          </ns3:TrackPointExtension>
        </extensions>
      </trkpt>
      <trkpt lat="45.278724767267704010009765625" lon="-71.11215032637119293212890625">
        <ele>761.20001220703125</ele>
        <time>2026-08-22T00:55:22.000Z</time>
        <extensions>
          <ns3:TrackPointExtension>
            <ns3:hr>134</ns3:hr>
            <ns3:cad>0</ns3:cad>
          </ns3:TrackPointExtension>
        </extensions>
      </trkpt>
      <trkpt lat="45.2787150442600250244140625" lon="-71.11214588396251201629638671875">
        <ele>761.4000244140625</ele>
        <time>2026-08-22T00:55:23.000Z</time>
        <extensions>
          <ns3:TrackPointExtension>
            <ns3:hr>134</ns3:hr>
            <ns3:cad>0</ns3:cad>
          </ns3:TrackPointExtension>
        </extensions>
      </trkpt>
      <trkpt lat="45.278703980147838592529296875" lon="-71.112142615020275115966796875">
        <ele>761.4000244140625</ele>
        <time>2026-08-22T00:55:24.000Z</time>
        <extensions>
          <ns3:TrackPointExtension>
            <ns3:hr>134</ns3:hr>
            <ns3:cad>51</ns3:cad>
          </ns3:TrackPointExtension>
        </extensions>
      </trkpt>
      <trkpt lat="45.2786927483975887298583984375" lon="-71.11214202828705310821533203125">
        <ele>761.5999755859375</ele>
        <time>2026-08-22T00:55:25.000Z</time>
        <extensions>
          <ns3:TrackPointExtension>
            <ns3:hr>134</ns3:hr>
            <ns3:cad>51</ns3:cad>
          </ns3:TrackPointExtension>
        </extensions>
      </trkpt>
      <trkpt lat="45.27867925353348255157470703125" lon="-71.11213783733546733856201171875">
        <ele>761.79998779296875</ele>
        <time>2026-08-22T00:55:26.000Z</time>
        <extensions>
          <ns3:TrackPointExtension>
            <ns3:hr>135</ns3:hr>
            <ns3:cad>51</ns3:cad>
          </ns3:TrackPointExtension>
        </extensions>
      </trkpt>
      <trkpt lat="45.27866584248840808868408203125" lon="-71.11213649623095989227294921875">
        <ele>761.79998779296875</ele>
        <time>2026-08-22T00:55:27.000Z</time>
        <extensions>
          <ns3:TrackPointExtension>
            <ns3:hr>135</ns3:hr>
            <ns3:cad>51</ns3:cad>
          </ns3:TrackPointExtension>
        </extensions>
      </trkpt>
      <trkpt lat="45.27865444310009479522705078125" lon="-71.11213649623095989227294921875">
        <ele>762</ele>
        <time>2026-08-22T00:55:28.000Z</time>
        <extensions>
          <ns3:TrackPointExtension>
            <ns3:hr>135</ns3:hr>
            <ns3:cad>51</ns3:cad>
          </ns3:TrackPointExtension>
        </extensions>
      </trkpt>
      <trkpt lat="45.2786414511501789093017578125" lon="-71.11213750205934047698974609375">
        <ele>762</ele>
        <time>2026-08-22T00:55:29.000Z</time>
        <extensions>
          <ns3:TrackPointExtension>
            <ns3:hr>134</ns3:hr>
            <ns3:cad>0</ns3:cad>
          </ns3:TrackPointExtension>
        </extensions>
      </trkpt>
      <trkpt lat="45.2786307223141193389892578125" lon="-71.11213532276451587677001953125">
        <ele>762.20001220703125</ele>
        <time>2026-08-22T00:55:30.000Z</time>
        <extensions>
          <ns3:TrackPointExtension>
            <ns3:hr>134</ns3:hr>
            <ns3:cad>0</ns3:cad>
          </ns3:TrackPointExtension>
        </extensions>
      </trkpt>
      <trkpt lat="45.2786236815154552459716796875" lon="-71.1121367476880550384521484375">
        <ele>762.4000244140625</ele>
        <time>2026-08-22T00:55:31.000Z</time>
        <extensions>
          <ns3:TrackPointExtension>
            <ns3:hr>134</ns3:hr>
            <ns3:cad>0</ns3:cad>
          </ns3:TrackPointExtension>
        </extensions>
      </trkpt>
      <trkpt lat="45.27861538343131542205810546875" lon="-71.1121214926242828369140625">
        <ele>762.4000244140625</ele>
        <time>2026-08-22T00:55:32.000Z</time>
        <extensions>
          <ns3:TrackPointExtension>
            <ns3:hr>134</ns3:hr>
            <ns3:cad>0</ns3:cad>
          </ns3:TrackPointExtension>
        </extensions>
      </trkpt>
      <trkpt lat="45.2786119468510150909423828125" lon="-71.11211411654949188232421875">
        <ele>762.5999755859375</ele>
        <time>2026-08-22T00:55:33.000Z</time>
        <extensions>
          <ns3:TrackPointExtension>
            <ns3:hr>134</ns3:hr>
            <ns3:cad>0</ns3:cad>
          </ns3:TrackPointExtension>
        </extensions>
      </trkpt>
      <trkpt lat="45.27860440313816070556640625" lon="-71.1121193133294582366943359375">
        <ele>762.79998779296875</ele>
        <time>2026-08-22T00:55:34.000Z</time>
        <extensions>
          <ns3:TrackPointExtension>
            <ns3:hr>134</ns3:hr>
            <ns3:cad>0</ns3:cad>
          </ns3:TrackPointExtension>
        </extensions>
      </trkpt>
      <trkpt lat="45.27859074063599109649658203125" lon="-71.11212945543229579925537109375">
        <ele>763</ele>
        <time>2026-08-22T00:55:35.000Z</time>
        <extensions>
          <ns3:TrackPointExtension>
            <ns3:hr>133</ns3:hr>
            <ns3:cad>0</ns3:cad>
          </ns3:TrackPointExtension>
        </extensions>
      </trkpt>
      <trkpt lat="45.2785794250667095184326171875" lon="-71.11213716678321361541748046875">
        <ele>763</ele>
        <time>2026-08-22T00:55:36.000Z</time>
        <extensions>
          <ns3:TrackPointExtension>
            <ns3:hr>134</ns3:hr>
            <ns3:cad>0</ns3:cad>
          </ns3:TrackPointExtension>
        </extensions>
      </trkpt>
      <trkpt lat="45.278572551906108856201171875" lon="-71.112145967781543731689453125">
        <ele>763.20001220703125</ele>
        <time>2026-08-22T00:55:37.000Z</time>
        <extensions>
          <ns3:TrackPointExtension>
            <ns3:hr>134</ns3:hr>
            <ns3:cad>0</ns3:cad>
          </ns3:TrackPointExtension>
        </extensions>
      </trkpt>
      <trkpt lat="45.2785621583461761474609375" lon="-71.11214873380959033966064453125">
        <ele>763</ele>
        <time>2026-08-22T00:55:38.000Z</time>
        <extensions>
          <ns3:TrackPointExtension>
            <ns3:hr>134</ns3:hr>
            <ns3:cad>0</ns3:cad>
          </ns3:TrackPointExtension>
        </extensions>
      </trkpt>
      <trkpt lat="45.27854983694851398468017578125" lon="-71.11214420758187770843505859375">
        <ele>763</ele>
        <time>2026-08-22T00:55:39.000Z</time>
        <extensions>
          <ns3:TrackPointExtension>
            <ns3:hr>133</ns3:hr>
            <ns3:cad>0</ns3:cad>
          </ns3:TrackPointExtension>
        </extensions>
      </trkpt>
      <trkpt lat="45.278543047606945037841796875" lon="-71.11213901080191135406494140625">
        <ele>763</ele>
        <time>2026-08-22T00:55:40.000Z</time>
        <extensions>
          <ns3:TrackPointExtension>
            <ns3:hr>133</ns3:hr>
            <ns3:cad>0</ns3:cad>
          </ns3:TrackPointExtension>
        </extensions>
      </trkpt>
      <trkpt lat="45.27853458188474178314208984375" lon="-71.1121337302029132843017578125">
        <ele>763.20001220703125</ele>
        <time>2026-08-22T00:55:41.000Z</time>
        <extensions>
          <ns3:TrackPointExtension>
            <ns3:hr>133</ns3:hr>
            <ns3:cad>0</ns3:cad>
          </ns3:TrackPointExtension>
        </extensions>
      </trkpt>
      <trkpt lat="45.278527624905109405517578125" lon="-71.112128533422946929931640625">
        <ele>763.20001220703125</ele>
        <time>2026-08-22T00:55:42.000Z</time>
        <extensions>
          <ns3:TrackPointExtension>
            <ns3:hr>133</ns3:hr>
            <ns3:cad>0</ns3:cad>
          </ns3:TrackPointExtension>
        </extensions>
      </trkpt>
      <trkpt lat="45.27851882390677928924560546875" lon="-71.112121827900409698486328125">
        <ele>763.4000244140625</ele>
        <time>2026-08-22T00:55:43.000Z</time>
        <extensions>
          <ns3:TrackPointExtension>
            <ns3:hr>133</ns3:hr>
            <ns3:cad>0</ns3:cad>
          </ns3:TrackPointExtension>
        </extensions>
      </trkpt>
      <trkpt lat="45.2785127051174640655517578125" lon="-71.11211009323596954345703125">
        <ele>763.5999755859375</ele>
        <time>2026-08-22T00:55:44.000Z</time>
        <extensions>
          <ns3:TrackPointExtension>
            <ns3:hr>132</ns3:hr>
            <ns3:cad>0</ns3:cad>
          </ns3:TrackPointExtension>
        </extensions>
      </trkpt>
      <trkpt lat="45.27850273065268993377685546875" lon="-71.11209643073379993438720703125">
        <ele>763.79998779296875</ele>
        <time>2026-08-22T00:55:45.000Z</time>
        <extensions>
          <ns3:TrackPointExtension>
            <ns3:hr>132</ns3:hr>
            <ns3:cad>0</ns3:cad>
          </ns3:TrackPointExtension>
        </extensions>
      </trkpt>
      <trkpt lat="45.278495438396930694580078125" lon="-71.1120857857167720794677734375">
        <ele>764</ele>
        <time>2026-08-22T00:55:46.000Z</time>
        <extensions>
          <ns3:TrackPointExtension>
            <ns3:hr>132</ns3:hr>
            <ns3:cad>0</ns3:cad>
          </ns3:TrackPointExtension>
        </extensions>
      </trkpt>
      <trkpt lat="45.27848730795085430145263671875" lon="-71.11207790672779083251953125">
        <ele>764.20001220703125</ele>
        <time>2026-08-22T00:55:47.000Z</time>
        <extensions>
          <ns3:TrackPointExtension>
            <ns3:hr>132</ns3:hr>
            <ns3:cad>0</ns3:cad>
          </ns3:TrackPointExtension>
        </extensions>
      </trkpt>
      <trkpt lat="45.2784815244376659393310546875" lon="-71.11207187175750732421875">
        <ele>764.4000244140625</ele>
        <time>2026-08-22T00:55:48.000Z</time>
        <extensions>
          <ns3:TrackPointExtension>
            <ns3:hr>131</ns3:hr>
            <ns3:cad>0</ns3:cad>
          </ns3:TrackPointExtension>
        </extensions>
      </trkpt>
      <trkpt lat="45.27847272343933582305908203125" lon="-71.11206474713981151580810546875">
        <ele>764.5999755859375</ele>
        <time>2026-08-22T00:55:49.000Z</time>
        <extensions>
          <ns3:TrackPointExtension>
            <ns3:hr>130</ns3:hr>
            <ns3:cad>0</ns3:cad>
          </ns3:TrackPointExtension>
        </extensions>
      </trkpt>
      <trkpt lat="45.278462581336498260498046875" lon="-71.11206156201660633087158203125">
        <ele>764.5999755859375</ele>
        <time>2026-08-22T00:55:50.000Z</time>
        <extensions>
          <ns3:TrackPointExtension>
            <ns3:hr>130</ns3:hr>
            <ns3:cad>45</ns3:cad>
          </ns3:TrackPointExtension>
        </extensions>
      </trkpt>
      <trkpt lat="45.27845411561429500579833984375" lon="-71.11205552704632282257080078125">
        <ele>764.79998779296875</ele>
        <time>2026-08-22T00:55:51.000Z</time>
        <extensions>
          <ns3:TrackPointExtension>
            <ns3:hr>130</ns3:hr>
            <ns3:cad>45</ns3:cad>
          </ns3:TrackPointExtension>
        </extensions>
      </trkpt>
      <trkpt lat="45.278449840843677520751953125" lon="-71.112050749361515045166015625">
        <ele>765</ele>
        <time>2026-08-22T00:55:52.000Z</time>
        <extensions>
          <ns3:TrackPointExtension>
            <ns3:hr>130</ns3:hr>
            <ns3:cad>44</ns3:cad>
          </ns3:TrackPointExtension>
        </extensions>
      </trkpt>
      <trkpt lat="45.27844238094985485076904296875" lon="-71.11204295419156551361083984375">
        <ele>765</ele>
        <time>2026-08-22T00:55:53.000Z</time>
        <extensions>
          <ns3:TrackPointExtension>
            <ns3:hr>130</ns3:hr>
            <ns3:cad>44</ns3:cad>
          </ns3:TrackPointExtension>
        </extensions>
      </trkpt>
      <trkpt lat="45.2784325741231441497802734375" lon="-71.1120410263538360595703125">
        <ele>765.20001220703125</ele>
        <time>2026-08-22T00:55:54.000Z</time>
        <extensions>
          <ns3:TrackPointExtension>
            <ns3:hr>130</ns3:hr>
            <ns3:cad>44</ns3:cad>
          </ns3:TrackPointExtension>
        </extensions>
      </trkpt>
      <trkpt lat="45.27841891162097454071044921875" lon="-71.112036667764186859130859375">
        <ele>765.20001220703125</ele>
        <time>2026-08-22T00:55:55.000Z</time>
        <extensions>
          <ns3:TrackPointExtension>
            <ns3:hr>130</ns3:hr>
            <ns3:cad>0</ns3:cad>
          </ns3:TrackPointExtension>
        </extensions>
      </trkpt>
      <trkpt lat="45.27841036207973957061767578125" lon="-71.11203406937420368194580078125">
        <ele>765.4000244140625</ele>
        <time>2026-08-22T00:55:56.000Z</time>
        <extensions>
          <ns3:TrackPointExtension>
            <ns3:hr>130</ns3:hr>
            <ns3:cad>0</ns3:cad>
          </ns3:TrackPointExtension>
        </extensions>
      </trkpt>
      <trkpt lat="45.278394520282745361328125" lon="-71.11203189007937908172607421875">
        <ele>765.4000244140625</ele>
        <time>2026-08-22T00:55:57.000Z</time>
        <extensions>
          <ns3:TrackPointExtension>
            <ns3:hr>130</ns3:hr>
            <ns3:cad>0</ns3:cad>
          </ns3:TrackPointExtension>
        </extensions>
      </trkpt>
      <trkpt lat="45.27838320471346378326416015625" lon="-71.11203473992645740509033203125">
        <ele>765.5999755859375</ele>
        <time>2026-08-22T00:55:58.000Z</time>
        <extensions>
          <ns3:TrackPointExtension>
            <ns3:hr>130</ns3:hr>
            <ns3:cad>0</ns3:cad>
          </ns3:TrackPointExtension>
        </extensions>
      </trkpt>
      <trkpt lat="45.27836878784000873565673828125" lon="-71.11203524284064769744873046875">
        <ele>765.5999755859375</ele>
        <time>2026-08-22T00:55:59.000Z</time>
        <extensions>
          <ns3:TrackPointExtension>
            <ns3:hr>130</ns3:hr>
            <ns3:cad>0</ns3:cad>
          </ns3:TrackPointExtension>
        </extensions>
      </trkpt>
      <trkpt lat="45.2783609926700592041015625" lon="-71.11203423701226711273193359375">
        <ele>765.79998779296875</ele>
        <time>2026-08-22T00:56:00.000Z</time>
        <extensions>
          <ns3:TrackPointExtension>
            <ns3:hr>130</ns3:hr>
            <ns3:cad>0</ns3:cad>
          </ns3:TrackPointExtension>
        </extensions>
      </trkpt>
      <trkpt lat="45.27834766544401645660400390625" lon="-71.11203624866902828216552734375">
        <ele>766</ele>
        <time>2026-08-22T00:56:01.000Z</time>
        <extensions>
          <ns3:TrackPointExtension>
            <ns3:hr>130</ns3:hr>
            <ns3:cad>0</ns3:cad>
          </ns3:TrackPointExtension>
        </extensions>
      </trkpt>
      <trkpt lat="45.27833727188408374786376953125" lon="-71.1120358295738697052001953125">
        <ele>766.20001220703125</ele>
        <time>2026-08-22T00:56:02.000Z</time>
        <extensions>
          <ns3:TrackPointExtension>
            <ns3:hr>130</ns3:hr>
            <ns3:cad>0</ns3:cad>
          </ns3:TrackPointExtension>
        </extensions>
      </trkpt>
      <trkpt lat="45.27833106927573680877685546875" lon="-71.11203205771744251251220703125">
        <ele>766.4000244140625</ele>
        <time>2026-08-22T00:56:03.000Z</time>
        <extensions>
          <ns3:TrackPointExtension>
            <ns3:hr>130</ns3:hr>
            <ns3:cad>0</ns3:cad>
          </ns3:TrackPointExtension>
        </extensions>
      </trkpt>
      <trkpt lat="45.2783272974193096160888671875" lon="-71.1120257712900638580322265625">
        <ele>766.5999755859375</ele>
        <time>2026-08-22T00:56:04.000Z</time>
        <extensions>
          <ns3:TrackPointExtension>
            <ns3:hr>130</ns3:hr>
            <ns3:cad>0</ns3:cad>
          </ns3:TrackPointExtension>
        </extensions>
      </trkpt>
      <trkpt lat="45.27832210063934326171875" lon="-71.11201085150241851806640625">
        <ele>766.79998779296875</ele>
        <time>2026-08-22T00:56:05.000Z</time>
        <extensions>
          <ns3:TrackPointExtension>
            <ns3:hr>130</ns3:hr>
            <ns3:cad>0</ns3:cad>
          </ns3:TrackPointExtension>
        </extensions>
      </trkpt>
      <trkpt lat="45.27831430546939373016357421875" lon="-71.1120046488940715789794921875">
        <ele>767</ele>
        <time>2026-08-22T00:56:06.000Z</time>
        <extensions>
          <ns3:TrackPointExtension>
            <ns3:hr>129</ns3:hr>
            <ns3:cad>0</ns3:cad>
          </ns3:TrackPointExtension>
        </extensions>
      </trkpt>
      <trkpt lat="45.27830776758491992950439453125" lon="-71.11200238578021526336669921875">
        <ele>767.20001220703125</ele>
        <time>2026-08-22T00:56:07.000Z</time>
        <extensions>
          <ns3:TrackPointExtension>
            <ns3:hr>129</ns3:hr>
            <ns3:cad>0</ns3:cad>
          </ns3:TrackPointExtension>
        </extensions>
      </trkpt>
      <trkpt lat="45.2783041633665561676025390625" lon="-71.11200137995183467864990234375">
        <ele>767.20001220703125</ele>
        <time>2026-08-22T00:56:08.000Z</time>
        <extensions>
          <ns3:TrackPointExtension>
            <ns3:hr>129</ns3:hr>
            <ns3:cad>0</ns3:cad>
          </ns3:TrackPointExtension>
        </extensions>
      </trkpt>
      <trkpt lat="45.278298296034336090087890625" lon="-71.111994087696075439453125">
        <ele>767.20001220703125</ele>
        <time>2026-08-22T00:56:09.000Z</time>
        <extensions>
          <ns3:TrackPointExtension>
            <ns3:hr>129</ns3:hr>
            <ns3:cad>0</ns3:cad>
          </ns3:TrackPointExtension>
        </extensions>
      </trkpt>
      <trkpt lat="45.27829058468341827392578125" lon="-71.1119835264980792999267578125">
        <ele>767.20001220703125</ele>
        <time>2026-08-22T00:56:10.000Z</time>
        <extensions>
          <ns3:TrackPointExtension>
            <ns3:hr>130</ns3:hr>
            <ns3:cad>0</ns3:cad>
          </ns3:TrackPointExtension>
        </extensions>
      </trkpt>
      <trkpt lat="45.27828798629343509674072265625" lon="-71.1119754798710346221923828125">
        <ele>767.20001220703125</ele>
        <time>2026-08-22T00:56:11.000Z</time>
        <extensions>
          <ns3:TrackPointExtension>
            <ns3:hr>130</ns3:hr>
            <ns3:cad>0</ns3:cad>
          </ns3:TrackPointExtension>
        </extensions>
      </trkpt>
      <trkpt lat="45.27828094549477100372314453125" lon="-71.111967265605926513671875">
        <ele>767.20001220703125</ele>
        <time>2026-08-22T00:56:12.000Z</time>
        <extensions>
          <ns3:TrackPointExtension>
            <ns3:hr>130</ns3:hr>
            <ns3:cad>0</ns3:cad>
          </ns3:TrackPointExtension>
        </extensions>
      </trkpt>
      <trkpt lat="45.278275497257709503173828125" lon="-71.111957542598247528076171875">
        <ele>767.20001220703125</ele>
        <time>2026-08-22T00:56:13.000Z</time>
        <extensions>
          <ns3:TrackPointExtension>
            <ns3:hr>129</ns3:hr>
            <ns3:cad>0</ns3:cad>
          </ns3:TrackPointExtension>
        </extensions>
      </trkpt>
      <trkpt lat="45.27826786972582340240478515625" lon="-71.11195460893213748931884765625">
        <ele>767.4000244140625</ele>
        <time>2026-08-22T00:56:14.000Z</time>
        <extensions>
          <ns3:TrackPointExtension>
            <ns3:hr>129</ns3:hr>
            <ns3:cad>0</ns3:cad>
          </ns3:TrackPointExtension>
        </extensions>
      </trkpt>
      <trkpt lat="45.27825395576655864715576171875" lon="-71.11194924451410770416259765625">
        <ele>767.5999755859375</ele>
        <time>2026-08-22T00:56:15.000Z</time>
        <extensions>
          <ns3:TrackPointExtension>
            <ns3:hr>129</ns3:hr>
            <ns3:cad>0</ns3:cad>
          </ns3:TrackPointExtension>
        </extensions>
      </trkpt>
      <trkpt lat="45.27824289165437221527099609375" lon="-71.11194337718188762664794921875">
        <ele>767.79998779296875</ele>
        <time>2026-08-22T00:56:16.000Z</time>
        <extensions>
          <ns3:TrackPointExtension>
            <ns3:hr>129</ns3:hr>
            <ns3:cad>0</ns3:cad>
          </ns3:TrackPointExtension>
        </extensions>
      </trkpt>
      <trkpt lat="45.27823015116155147552490234375" lon="-71.11194035969674587249755859375">
        <ele>767.79998779296875</ele>
        <time>2026-08-22T00:56:17.000Z</time>
        <extensions>
          <ns3:TrackPointExtension>
            <ns3:hr>129</ns3:hr>
            <ns3:cad>0</ns3:cad>
          </ns3:TrackPointExtension>
        </extensions>
      </trkpt>
      <trkpt lat="45.27822311036288738250732421875" lon="-71.11193868331611156463623046875">
        <ele>768</ele>
        <time>2026-08-22T00:56:18.000Z</time>
        <extensions>
          <ns3:TrackPointExtension>
            <ns3:hr>129</ns3:hr>
            <ns3:cad>41</ns3:cad>
          </ns3:TrackPointExtension>
        </extensions>
      </trkpt>
      <trkpt lat="45.2782092802226543426513671875" lon="-71.1119391024112701416015625">
        <ele>768</ele>
        <time>2026-08-22T00:56:19.000Z</time>
        <extensions>
          <ns3:TrackPointExtension>
            <ns3:hr>129</ns3:hr>
            <ns3:cad>41</ns3:cad>
          </ns3:TrackPointExtension>
        </extensions>
      </trkpt>
      <trkpt lat="45.27819511480629444122314453125" lon="-71.11194069497287273406982421875">
        <ele>768.20001220703125</ele>
        <time>2026-08-22T00:56:20.000Z</time>
        <extensions>
          <ns3:TrackPointExtension>
            <ns3:hr>129</ns3:hr>
            <ns3:cad>41</ns3:cad>
          </ns3:TrackPointExtension>
        </extensions>
      </trkpt>
      <trkpt lat="45.27818505652248859405517578125" lon="-71.11194086261093616485595703125">
        <ele>768.4000244140625</ele>
        <time>2026-08-22T00:56:21.000Z</time>
        <extensions>
          <ns3:TrackPointExtension>
            <ns3:hr>128</ns3:hr>
            <ns3:cad>45</ns3:cad>
          </ns3:TrackPointExtension>
        </extensions>
      </trkpt>
      <trkpt lat="45.2781687118113040924072265625" lon="-71.11193574965000152587890625">
        <ele>768.5999755859375</ele>
        <time>2026-08-22T00:56:22.000Z</time>
        <extensions>
          <ns3:TrackPointExtension>
            <ns3:hr>128</ns3:hr>
            <ns3:cad>45</ns3:cad>
          </ns3:TrackPointExtension>
        </extensions>
      </trkpt>
      <trkpt lat="45.27815555222332477569580078125" lon="-71.1119335703551769256591796875">
        <ele>768.79998779296875</ele>
        <time>2026-08-22T00:56:23.000Z</time>
        <extensions>
          <ns3:TrackPointExtension>
            <ns3:hr>128</ns3:hr>
            <ns3:cad>45</ns3:cad>
          </ns3:TrackPointExtension>
        </extensions>
      </trkpt>
      <trkpt lat="45.2781450748443603515625" lon="-71.1119369231164455413818359375">
        <ele>768.79998779296875</ele>
        <time>2026-08-22T00:56:24.000Z</time>
        <extensions>
          <ns3:TrackPointExtension>
            <ns3:hr>128</ns3:hr>
            <ns3:cad>45</ns3:cad>
          </ns3:TrackPointExtension>
        </extensions>
      </trkpt>
      <trkpt lat="45.278132669627666473388671875" lon="-71.111939437687397003173828125">
        <ele>769</ele>
        <time>2026-08-22T00:56:25.000Z</time>
        <extensions>
          <ns3:TrackPointExtension>
            <ns3:hr>129</ns3:hr>
            <ns3:cad>45</ns3:cad>
          </ns3:TrackPointExtension>
        </extensions>
      </trkpt>
      <trkpt lat="45.2781177498400211334228515625" lon="-71.111942790448665618896484375">
        <ele>769.20001220703125</ele>
        <time>2026-08-22T00:56:26.000Z</time>
        <extensions>
          <ns3:TrackPointExtension>
            <ns3:hr>129</ns3:hr>
            <ns3:cad>45</ns3:cad>
          </ns3:TrackPointExtension>
        </extensions>
      </trkpt>
      <trkpt lat="45.2781063504517078399658203125" lon="-71.11194874159991741180419921875">
        <ele>769.4000244140625</ele>
        <time>2026-08-22T00:56:27.000Z</time>
        <extensions>
          <ns3:TrackPointExtension>
            <ns3:hr>130</ns3:hr>
            <ns3:cad>45</ns3:cad>
          </ns3:TrackPointExtension>
        </extensions>
      </trkpt>
      <trkpt lat="45.27809268794953823089599609375" lon="-71.11195377074182033538818359375">
        <ele>769.5999755859375</ele>
        <time>2026-08-22T00:56:28.000Z</time>
        <extensions>
          <ns3:TrackPointExtension>
            <ns3:hr>130</ns3:hr>
            <ns3:cad>49</ns3:cad>
          </ns3:TrackPointExtension>
        </extensions>
      </trkpt>
      <trkpt lat="45.278084389865398406982421875" lon="-71.11195276491343975067138671875">
        <ele>769.5999755859375</ele>
        <time>2026-08-22T00:56:29.000Z</time>
        <extensions>
          <ns3:TrackPointExtension>
            <ns3:hr>130</ns3:hr>
            <ns3:cad>49</ns3:cad>
          </ns3:TrackPointExtension>
        </extensions>
      </trkpt>
      <trkpt lat="45.278083048760890960693359375" lon="-71.11194471828639507293701171875">
        <ele>769.5999755859375</ele>
        <time>2026-08-22T00:56:30.000Z</time>
        <extensions>
          <ns3:TrackPointExtension>
            <ns3:hr>130</ns3:hr>
            <ns3:cad>49</ns3:cad>
          </ns3:TrackPointExtension>
        </extensions>
      </trkpt>
      <trkpt lat="45.27807558886706829071044921875" lon="-71.111948154866695404052734375">
        <ele>769.79998779296875</ele>
        <time>2026-08-22T00:56:31.000Z</time>
        <extensions>
          <ns3:TrackPointExtension>
            <ns3:hr>130</ns3:hr>
            <ns3:cad>49</ns3:cad>
          </ns3:TrackPointExtension>
        </extensions>
      </trkpt>
      <trkpt lat="45.27806972153484821319580078125" lon="-71.1119493283331394195556640625">
        <ele>769.79998779296875</ele>
        <time>2026-08-22T00:56:32.000Z</time>
        <extensions>
          <ns3:TrackPointExtension>
            <ns3:hr>130</ns3:hr>
            <ns3:cad>49</ns3:cad>
          </ns3:TrackPointExtension>
        </extensions>
      </trkpt>
      <trkpt lat="45.27806335128843784332275390625" lon="-71.11195393837988376617431640625">
        <ele>769.79998779296875</ele>
        <time>2026-08-22T00:56:33.000Z</time>
        <extensions>
          <ns3:TrackPointExtension>
            <ns3:hr>131</ns3:hr>
            <ns3:cad>0</ns3:cad>
          </ns3:TrackPointExtension>
        </extensions>
      </trkpt>
      <trkpt lat="45.2780543826520442962646484375" lon="-71.11195678822696208953857421875">
        <ele>770</ele>
        <time>2026-08-22T00:56:34.000Z</time>
        <extensions>
          <ns3:TrackPointExtension>
            <ns3:hr>131</ns3:hr>
            <ns3:cad>0</ns3:cad>
          </ns3:TrackPointExtension>
        </extensions>
      </trkpt>
      <trkpt lat="45.27804742567241191864013671875" lon="-71.11195477657020092010498046875">
        <ele>770</ele>
        <time>2026-08-22T00:56:35.000Z</time>
        <extensions>
          <ns3:TrackPointExtension>
            <ns3:hr>131</ns3:hr>
            <ns3:cad>0</ns3:cad>
          </ns3:TrackPointExtension>
        </extensions>
      </trkpt>
      <trkpt lat="45.27804113924503326416015625" lon="-71.11195092089474201202392578125">
        <ele>770.20001220703125</ele>
        <time>2026-08-22T00:56:36.000Z</time>
        <extensions>
          <ns3:TrackPointExtension>
            <ns3:hr>130</ns3:hr>
            <ns3:cad>0</ns3:cad>
          </ns3:TrackPointExtension>
        </extensions>
      </trkpt>
      <trkpt lat="45.27803384698927402496337890625" lon="-71.11195058561861515045166015625">
        <ele>770.4000244140625</ele>
        <time>2026-08-22T00:56:37.000Z</time>
        <extensions>
          <ns3:TrackPointExtension>
            <ns3:hr>130</ns3:hr>
            <ns3:cad>0</ns3:cad>
          </ns3:TrackPointExtension>
        </extensions>
      </trkpt>
      <trkpt lat="45.27802932076156139373779296875" lon="-71.11194916069507598876953125">
        <ele>770.5999755859375</ele>
        <time>2026-08-22T00:56:38.000Z</time>
        <extensions>
          <ns3:TrackPointExtension>
            <ns3:hr>130</ns3:hr>
            <ns3:cad>0</ns3:cad>
          </ns3:TrackPointExtension>
        </extensions>
      </trkpt>
      <trkpt lat="45.27801339514553546905517578125" lon="-71.1119496636092662811279296875">
        <ele>770.79998779296875</ele>
        <time>2026-08-22T00:56:39.000Z</time>
        <extensions>
          <ns3:TrackPointExtension>
            <ns3:hr>130</ns3:hr>
            <ns3:cad>0</ns3:cad>
          </ns3:TrackPointExtension>
        </extensions>
      </trkpt>
      <trkpt lat="45.27800090610980987548828125" lon="-71.111950166523456573486328125">
        <ele>771</ele>
        <time>2026-08-22T00:56:40.000Z</time>
        <extensions>
          <ns3:TrackPointExtension>
            <ns3:hr>130</ns3:hr>
            <ns3:cad>0</ns3:cad>
          </ns3:TrackPointExtension>
        </extensions>
      </trkpt>
      <trkpt lat="45.2779896743595600128173828125" lon="-71.1119520105421543121337890625">
        <ele>771.4000244140625</ele>
        <time>2026-08-22T00:56:41.000Z</time>
        <extensions>
          <ns3:TrackPointExtension>
            <ns3:hr>129</ns3:hr>
            <ns3:cad>0</ns3:cad>
          </ns3:TrackPointExtension>
        </extensions>
      </trkpt>
      <trkpt lat="45.277974419295787811279296875" lon="-71.1119516752660274505615234375">
        <ele>771.4000244140625</ele>
        <time>2026-08-22T00:56:42.000Z</time>
        <extensions>
          <ns3:TrackPointExtension>
            <ns3:hr>128</ns3:hr>
            <ns3:cad>0</ns3:cad>
          </ns3:TrackPointExtension>
        </extensions>
      </trkpt>
      <trkpt lat="45.2779608406126499176025390625" lon="-71.111957542598247528076171875">
        <ele>771.5999755859375</ele>
        <time>2026-08-22T00:56:43.000Z</time>
        <extensions>
          <ns3:TrackPointExtension>
            <ns3:hr>128</ns3:hr>
            <ns3:cad>0</ns3:cad>
          </ns3:TrackPointExtension>
        </extensions>
      </trkpt>
      <trkpt lat="45.27794533409178256988525390625" lon="-71.11196768470108509063720703125">
        <ele>771.5999755859375</ele>
        <time>2026-08-22T00:56:44.000Z</time>
        <extensions>
          <ns3:TrackPointExtension>
            <ns3:hr>129</ns3:hr>
            <ns3:cad>0</ns3:cad>
          </ns3:TrackPointExtension>
        </extensions>
      </trkpt>
      <trkpt lat="45.27793242596089839935302734375" lon="-71.11197489313781261444091796875">
        <ele>771.79998779296875</ele>
        <time>2026-08-22T00:56:45.000Z</time>
        <extensions>
          <ns3:TrackPointExtension>
            <ns3:hr>129</ns3:hr>
            <ns3:cad>46</ns3:cad>
          </ns3:TrackPointExtension>
        </extensions>
      </trkpt>
      <trkpt lat="45.27792437933385372161865234375" lon="-71.11197355203330516815185546875">
        <ele>771.79998779296875</ele>
        <time>2026-08-22T00:56:46.000Z</time>
        <extensions>
          <ns3:TrackPointExtension>
            <ns3:hr>130</ns3:hr>
            <ns3:cad>46</ns3:cad>
          </ns3:TrackPointExtension>
        </extensions>
      </trkpt>
      <trkpt lat="45.27791130356490612030029296875" lon="-71.11198042519390583038330078125">
        <ele>772</ele>
        <time>2026-08-22T00:56:47.000Z</time>
        <extensions>
          <ns3:TrackPointExtension>
            <ns3:hr>131</ns3:hr>
            <ns3:cad>46</ns3:cad>
          </ns3:TrackPointExtension>
        </extensions>
      </trkpt>
      <trkpt lat="45.2778984792530536651611328125" lon="-71.111993752419948577880859375">
        <ele>772.20001220703125</ele>
        <time>2026-08-22T00:56:48.000Z</time>
        <extensions>
          <ns3:TrackPointExtension>
            <ns3:hr>131</ns3:hr>
            <ns3:cad>46</ns3:cad>
          </ns3:TrackPointExtension>
        </extensions>
      </trkpt>
      <trkpt lat="45.27788850478827953338623046875" lon="-71.1120086722075939178466796875">
        <ele>772.4000244140625</ele>
        <time>2026-08-22T00:56:49.000Z</time>
        <extensions>
          <ns3:TrackPointExtension>
            <ns3:hr>131</ns3:hr>
            <ns3:cad>46</ns3:cad>
          </ns3:TrackPointExtension>
        </extensions>
      </trkpt>
      <trkpt lat="45.27787911705672740936279296875" lon="-71.1120168864727020263671875">
        <ele>772.5999755859375</ele>
        <time>2026-08-22T00:56:50.000Z</time>
        <extensions>
          <ns3:TrackPointExtension>
            <ns3:hr>131</ns3:hr>
            <ns3:cad>49</ns3:cad>
          </ns3:TrackPointExtension>
        </extensions>
      </trkpt>
      <trkpt lat="45.27787123806774616241455078125" lon="-71.11202116124331951141357421875">
        <ele>772.5999755859375</ele>
        <time>2026-08-22T00:56:51.000Z</time>
        <extensions>
          <ns3:TrackPointExtension>
            <ns3:hr>131</ns3:hr>
            <ns3:cad>49</ns3:cad>
          </ns3:TrackPointExtension>
        </extensions>
      </trkpt>
      <trkpt lat="45.27786386199295520782470703125" lon="-71.112030632793903350830078125">
        <ele>772.79998779296875</ele>
        <time>2026-08-22T00:56:52.000Z</time>
        <extensions>
          <ns3:TrackPointExtension>
            <ns3:hr>132</ns3:hr>
            <ns3:cad>49</ns3:cad>
          </ns3:TrackPointExtension>
        </extensions>
      </trkpt>
      <trkpt lat="45.277857743203639984130859375" lon="-71.1120502464473247528076171875">
        <ele>773</ele>
        <time>2026-08-22T00:56:53.000Z</time>
        <extensions>
          <ns3:TrackPointExtension>
            <ns3:hr>133</ns3:hr>
            <ns3:cad>49</ns3:cad>
          </ns3:TrackPointExtension>
        </extensions>
      </trkpt>
      <trkpt lat="45.27784961275756359100341796875" lon="-71.11207145266234874725341796875">
        <ele>773</ele>
        <time>2026-08-22T00:56:54.000Z</time>
        <extensions>
          <ns3:TrackPointExtension>
            <ns3:hr>134</ns3:hr>
            <ns3:cad>49</ns3:cad>
          </ns3:TrackPointExtension>
        </extensions>
      </trkpt>
      <trkpt lat="45.27784659527242183685302734375" lon="-71.112083606421947479248046875">
        <ele>773</ele>
        <time>2026-08-22T00:56:55.000Z</time>
        <extensions>
          <ns3:TrackPointExtension>
            <ns3:hr>134</ns3:hr>
            <ns3:cad>49</ns3:cad>
          </ns3:TrackPointExtension>
        </extensions>
      </trkpt>
      <trkpt lat="45.27784491889178752899169921875" lon="-71.11209458671510219573974609375">
        <ele>773</ele>
        <time>2026-08-22T00:56:56.000Z</time>
        <extensions>
          <ns3:TrackPointExtension>
            <ns3:hr>134</ns3:hr>
            <ns3:cad>49</ns3:cad>
          </ns3:TrackPointExtension>
        </extensions>
      </trkpt>
      <trkpt lat="45.27783888392150402069091796875" lon="-71.11210531555116176605224609375">
        <ele>773</ele>
        <time>2026-08-22T00:56:57.000Z</time>
        <extensions>
          <ns3:TrackPointExtension>
            <ns3:hr>134</ns3:hr>
            <ns3:cad>0</ns3:cad>
          </ns3:TrackPointExtension>
        </extensions>
      </trkpt>
      <trkpt lat="45.2778351120650768280029296875" lon="-71.1121132783591747283935546875">
        <ele>773</ele>
        <time>2026-08-22T00:56:58.000Z</time>
        <extensions>
          <ns3:TrackPointExtension>
            <ns3:hr>134</ns3:hr>
            <ns3:cad>0</ns3:cad>
          </ns3:TrackPointExtension>
        </extensions>
      </trkpt>
      <trkpt lat="45.27782999910414218902587890625" lon="-71.1121260188519954681396484375">
        <ele>773</ele>
        <time>2026-08-22T00:56:59.000Z</time>
        <extensions>
          <ns3:TrackPointExtension>
            <ns3:hr>133</ns3:hr>
            <ns3:cad>0</ns3:cad>
          </ns3:TrackPointExtension>
        </extensions>
      </trkpt>
      <trkpt lat="45.27782681398093700408935546875" lon="-71.11213733442127704620361328125">
        <ele>773.20001220703125</ele>
        <time>2026-08-22T00:57:00.000Z</time>
        <extensions>
          <ns3:TrackPointExtension>
            <ns3:hr>133</ns3:hr>
            <ns3:cad>0</ns3:cad>
          </ns3:TrackPointExtension>
        </extensions>
      </trkpt>
      <trkpt lat="45.27782429940998554229736328125" lon="-71.11214571632444858551025390625">
        <ele>773.20001220703125</ele>
        <time>2026-08-22T00:57:01.000Z</time>
        <extensions>
          <ns3:TrackPointExtension>
            <ns3:hr>132</ns3:hr>
            <ns3:cad>0</ns3:cad>
          </ns3:TrackPointExtension>
        </extensions>
      </trkpt>
      <trkpt lat="45.2778203599154949188232421875" lon="-71.1121565289795398712158203125">
        <ele>773.4000244140625</ele>
        <time>2026-08-22T00:57:02.000Z</time>
        <extensions>
          <ns3:TrackPointExtension>
            <ns3:hr>132</ns3:hr>
            <ns3:cad>0</ns3:cad>
          </ns3:TrackPointExtension>
        </extensions>
      </trkpt>
      <trkpt lat="45.277814157307147979736328125" lon="-71.11217102967202663421630859375">
        <ele>773.5999755859375</ele>
        <time>2026-08-22T00:57:03.000Z</time>
        <extensions>
          <ns3:TrackPointExtension>
            <ns3:hr>132</ns3:hr>
            <ns3:cad>0</ns3:cad>
          </ns3:TrackPointExtension>
        </extensions>
      </trkpt>
      <trkpt lat="45.27780837379395961761474609375" lon="-71.11218251287937164306640625">
        <ele>773.79998779296875</ele>
        <time>2026-08-22T00:57:04.000Z</time>
        <extensions>
          <ns3:TrackPointExtension>
            <ns3:hr>132</ns3:hr>
            <ns3:cad>0</ns3:cad>
          </ns3:TrackPointExtension>
        </extensions>
      </trkpt>
      <trkpt lat="45.277802757918834686279296875" lon="-71.11218946985900402069091796875">
        <ele>774</ele>
        <time>2026-08-22T00:57:05.000Z</time>
        <extensions>
          <ns3:TrackPointExtension>
            <ns3:hr>133</ns3:hr>
            <ns3:cad>0</ns3:cad>
          </ns3:TrackPointExtension>
        </extensions>
      </trkpt>
      <trkpt lat="45.27780468575656414031982421875" lon="-71.11219801940023899078369140625">
        <ele>774.20001220703125</ele>
        <time>2026-08-22T00:57:06.000Z</time>
        <extensions>
          <ns3:TrackPointExtension>
            <ns3:hr>132</ns3:hr>
            <ns3:cad>0</ns3:cad>
          </ns3:TrackPointExtension>
        </extensions>
      </trkpt>
      <trkpt lat="45.27780921198427677154541015625" lon="-71.112210340797901153564453125">
        <ele>774.20001220703125</ele>
        <time>2026-08-22T00:57:07.000Z</time>
        <extensions>
          <ns3:TrackPointExtension>
            <ns3:hr>132</ns3:hr>
            <ns3:cad>0</ns3:cad>
          </ns3:TrackPointExtension>
        </extensions>
      </trkpt>
      <trkpt lat="45.27780720032751560211181640625" lon="-71.1122239194810390472412109375">
        <ele>774.5999755859375</ele>
        <time>2026-08-22T00:57:08.000Z</time>
        <extensions>
          <ns3:TrackPointExtension>
            <ns3:hr>132</ns3:hr>
            <ns3:cad>0</ns3:cad>
          </ns3:TrackPointExtension>
        </extensions>
      </trkpt>
      <trkpt lat="45.27780284173786640167236328125" lon="-71.112239174544811248779296875">
        <ele>774.5999755859375</ele>
        <time>2026-08-22T00:57:09.000Z</time>
        <extensions>
          <ns3:TrackPointExtension>
            <ns3:hr>132</ns3:hr>
            <ns3:cad>0</ns3:cad>
          </ns3:TrackPointExtension>
        </extensions>
      </trkpt>
      <trkpt lat="45.2778076194226741790771484375" lon="-71.11224009655416011810302734375">
        <ele>774.79998779296875</ele>
        <time>2026-08-22T00:57:10.000Z</time>
        <extensions>
          <ns3:TrackPointExtension>
            <ns3:hr>132</ns3:hr>
            <ns3:cad>0</ns3:cad>
          </ns3:TrackPointExtension>
        </extensions>
      </trkpt>
      <trkpt lat="45.2778096310794353485107421875" lon="-71.112249903380870819091796875">
        <ele>774.79998779296875</ele>
        <time>2026-08-22T00:57:11.000Z</time>
        <extensions>
          <ns3:TrackPointExtension>
            <ns3:hr>132</ns3:hr>
            <ns3:cad>0</ns3:cad>
          </ns3:TrackPointExtension>
        </extensions>
      </trkpt>
      <trkpt lat="45.27780686505138874053955078125" lon="-71.11226105131208896636962890625">
        <ele>775</ele>
        <time>2026-08-22T00:57:12.000Z</time>
        <extensions>
          <ns3:TrackPointExtension>
            <ns3:hr>132</ns3:hr>
            <ns3:cad>0</ns3:cad>
          </ns3:TrackPointExtension>
        </extensions>
      </trkpt>
      <trkpt lat="45.27780150063335895538330078125" lon="-71.11227496527135372161865234375">
        <ele>775</ele>
        <time>2026-08-22T00:57:13.000Z</time>
        <extensions>
          <ns3:TrackPointExtension>
            <ns3:hr>132</ns3:hr>
            <ns3:cad>0</ns3:cad>
          </ns3:TrackPointExtension>
        </extensions>
      </trkpt>
      <trkpt lat="45.2777965553104877471923828125" lon="-71.1122829280793666839599609375">
        <ele>775.20001220703125</ele>
        <time>2026-08-22T00:57:14.000Z</time>
        <extensions>
          <ns3:TrackPointExtension>
            <ns3:hr>132</ns3:hr>
            <ns3:cad>0</ns3:cad>
          </ns3:TrackPointExtension>
        </extensions>
      </trkpt>
      <trkpt lat="45.27779462747275829315185546875" lon="-71.11229508183896541595458984375">
        <ele>775.20001220703125</ele>
        <time>2026-08-22T00:57:15.000Z</time>
        <extensions>
          <ns3:TrackPointExtension>
            <ns3:hr>132</ns3:hr>
            <ns3:cad>0</ns3:cad>
          </ns3:TrackPointExtension>
        </extensions>
      </trkpt>
      <trkpt lat="45.27779211290180683135986328125" lon="-71.11230530776083469390869140625">
        <ele>775.4000244140625</ele>
        <time>2026-08-22T00:57:16.000Z</time>
        <extensions>
          <ns3:TrackPointExtension>
            <ns3:hr>132</ns3:hr>
            <ns3:cad>0</ns3:cad>
          </ns3:TrackPointExtension>
        </extensions>
      </trkpt>
      <trkpt lat="45.2777955494821071624755859375" lon="-71.1123280227184295654296875">
        <ele>775.4000244140625</ele>
        <time>2026-08-22T00:57:17.000Z</time>
        <extensions>
          <ns3:TrackPointExtension>
            <ns3:hr>132</ns3:hr>
            <ns3:cad>0</ns3:cad>
          </ns3:TrackPointExtension>
        </extensions>
      </trkpt>
      <trkpt lat="45.27779798023402690887451171875" lon="-71.11234369687736034393310546875">
        <ele>775.4000244140625</ele>
        <time>2026-08-22T00:57:18.000Z</time>
        <extensions>
          <ns3:TrackPointExtension>
            <ns3:hr>132</ns3:hr>
            <ns3:cad>0</ns3:cad>
          </ns3:TrackPointExtension>
        </extensions>
      </trkpt>
      <trkpt lat="45.27779630385339260101318359375" lon="-71.11235694028437137603759765625">
        <ele>775.4000244140625</ele>
        <time>2026-08-22T00:57:19.000Z</time>
        <extensions>
          <ns3:TrackPointExtension>
            <ns3:hr>132</ns3:hr>
            <ns3:cad>0</ns3:cad>
          </ns3:TrackPointExtension>
        </extensions>
      </trkpt>
      <trkpt lat="45.27778976596891880035400390625" lon="-71.11236029304563999176025390625">
        <ele>775.4000244140625</ele>
        <time>2026-08-22T00:57:20.000Z</time>
        <extensions>
          <ns3:TrackPointExtension>
            <ns3:hr>132</ns3:hr>
            <ns3:cad>0</ns3:cad>
          </ns3:TrackPointExtension>
        </extensions>
      </trkpt>
      <trkpt lat="45.2777797915041446685791015625" lon="-71.11236222088336944580078125">
        <ele>775.4000244140625</ele>
        <time>2026-08-22T00:57:21.000Z</time>
        <extensions>
          <ns3:TrackPointExtension>
            <ns3:hr>132</ns3:hr>
            <ns3:cad>0</ns3:cad>
          </ns3:TrackPointExtension>
        </extensions>
      </trkpt>
      <trkpt lat="45.2777727507054805755615234375" lon="-71.11236331053078174591064453125">
        <ele>775.5999755859375</ele>
        <time>2026-08-22T00:57:22.000Z</time>
        <extensions>
          <ns3:TrackPointExtension>
            <ns3:hr>132</ns3:hr>
            <ns3:cad>0</ns3:cad>
          </ns3:TrackPointExtension>
        </extensions>
      </trkpt>
      <trkpt lat="45.2777663804590702056884765625" lon="-71.1123610474169254302978515625">
        <ele>775.79998779296875</ele>
        <time>2026-08-22T00:57:23.000Z</time>
        <extensions>
          <ns3:TrackPointExtension>
            <ns3:hr>132</ns3:hr>
            <ns3:cad>0</ns3:cad>
          </ns3:TrackPointExtension>
        </extensions>
      </trkpt>
      <trkpt lat="45.27775825001299381256103515625" lon="-71.11235911957919597625732421875">
        <ele>776</ele>
        <time>2026-08-22T00:57:24.000Z</time>
        <extensions>
          <ns3:TrackPointExtension>
            <ns3:hr>132</ns3:hr>
            <ns3:cad>0</ns3:cad>
          </ns3:TrackPointExtension>
        </extensions>
      </trkpt>
      <trkpt lat="45.27775640599429607391357421875" lon="-71.11236087977886199951171875">
        <ele>776.20001220703125</ele>
        <time>2026-08-22T00:57:25.000Z</time>
        <extensions>
          <ns3:TrackPointExtension>
            <ns3:hr>132</ns3:hr>
            <ns3:cad>0</ns3:cad>
          </ns3:TrackPointExtension>
        </extensions>
      </trkpt>
      <trkpt lat="45.27775020338594913482666015625" lon="-71.11236892640590667724609375">
        <ele>776.5999755859375</ele>
        <time>2026-08-22T00:57:26.000Z</time>
        <extensions>
          <ns3:TrackPointExtension>
            <ns3:hr>132</ns3:hr>
            <ns3:cad>0</ns3:cad>
          </ns3:TrackPointExtension>
        </extensions>
      </trkpt>
      <trkpt lat="45.27775037102401256561279296875" lon="-71.11238141544163227081298828125">
        <ele>776.79998779296875</ele>
        <time>2026-08-22T00:57:27.000Z</time>
        <extensions>
          <ns3:TrackPointExtension>
            <ns3:hr>131</ns3:hr>
            <ns3:cad>0</ns3:cad>
          </ns3:TrackPointExtension>
        </extensions>
      </trkpt>
      <trkpt lat="45.27775003574788570404052734375" lon="-71.11239298246800899505615234375">
        <ele>777</ele>
        <time>2026-08-22T00:57:28.000Z</time>
        <extensions>
          <ns3:TrackPointExtension>
            <ns3:hr>132</ns3:hr>
            <ns3:cad>0</ns3:cad>
          </ns3:TrackPointExtension>
        </extensions>
      </trkpt>
      <trkpt lat="45.2777479402720928192138671875" lon="-71.11239977180957794189453125">
        <ele>777.20001220703125</ele>
        <time>2026-08-22T00:57:29.000Z</time>
        <extensions>
          <ns3:TrackPointExtension>
            <ns3:hr>132</ns3:hr>
            <ns3:cad>0</ns3:cad>
          </ns3:TrackPointExtension>
        </extensions>
      </trkpt>
      <trkpt lat="45.27774316258728504180908203125" lon="-71.112409494817256927490234375">
        <ele>777.4000244140625</ele>
        <time>2026-08-22T00:57:30.000Z</time>
        <extensions>
          <ns3:TrackPointExtension>
            <ns3:hr>132</ns3:hr>
            <ns3:cad>0</ns3:cad>
          </ns3:TrackPointExtension>
        </extensions>
      </trkpt>
      <trkpt lat="45.277744419872760772705078125" lon="-71.1124083213508129119873046875">
        <ele>777.5999755859375</ele>
        <time>2026-08-22T00:57:31.000Z</time>
        <extensions>
          <ns3:TrackPointExtension>
            <ns3:hr>132</ns3:hr>
            <ns3:cad>0</ns3:cad>
          </ns3:TrackPointExtension>
        </extensions>
      </trkpt>
      <trkpt lat="45.277737043797969818115234375" lon="-71.11241159029304981231689453125">
        <ele>777.5999755859375</ele>
        <time>2026-08-22T00:57:32.000Z</time>
        <extensions>
          <ns3:TrackPointExtension>
            <ns3:hr>132</ns3:hr>
            <ns3:cad>0</ns3:cad>
          </ns3:TrackPointExtension>
        </extensions>
      </trkpt>
      <trkpt lat="45.277728326618671417236328125" lon="-71.11241628415882587432861328125">
        <ele>777.79998779296875</ele>
        <time>2026-08-22T00:57:33.000Z</time>
        <extensions>
          <ns3:TrackPointExtension>
            <ns3:hr>132</ns3:hr>
            <ns3:cad>0</ns3:cad>
          </ns3:TrackPointExtension>
        </extensions>
      </trkpt>
      <trkpt lat="45.277726985514163970947265625" lon="-71.112414859235286712646484375">
        <ele>778</ele>
        <time>2026-08-22T00:57:34.000Z</time>
        <extensions>
          <ns3:TrackPointExtension>
            <ns3:hr>132</ns3:hr>
            <ns3:cad>0</ns3:cad>
          </ns3:TrackPointExtension>
        </extensions>
      </trkpt>
      <trkpt lat="45.27772287838160991668701171875" lon="-71.11241444014012813568115234375">
        <ele>778.20001220703125</ele>
        <time>2026-08-22T00:57:35.000Z</time>
        <extensions>
          <ns3:TrackPointExtension>
            <ns3:hr>132</ns3:hr>
            <ns3:cad>0</ns3:cad>
          </ns3:TrackPointExtension>
        </extensions>
      </trkpt>
      <trkpt lat="45.27771634049713611602783203125" lon="-71.1124150268733501434326171875">
        <ele>778.5999755859375</ele>
        <time>2026-08-22T00:57:36.000Z</time>
        <extensions>
          <ns3:TrackPointExtension>
            <ns3:hr>132</ns3:hr>
            <ns3:cad>0</ns3:cad>
          </ns3:TrackPointExtension>
        </extensions>
      </trkpt>
      <trkpt lat="45.2777077071368694305419921875" lon="-71.11241544596850872039794921875">
        <ele>778.79998779296875</ele>
        <time>2026-08-22T00:57:37.000Z</time>
        <extensions>
          <ns3:TrackPointExtension>
            <ns3:hr>133</ns3:hr>
            <ns3:cad>0</ns3:cad>
          </ns3:TrackPointExtension>
        </extensions>
      </trkpt>
      <trkpt lat="45.27770058251917362213134765625" lon="-71.11241946928203105926513671875">
        <ele>779</ele>
        <time>2026-08-22T00:57:38.000Z</time>
        <extensions>
          <ns3:TrackPointExtension>
            <ns3:hr>133</ns3:hr>
            <ns3:cad>0</ns3:cad>
          </ns3:TrackPointExtension>
        </extensions>
      </trkpt>
      <trkpt lat="45.27769706211984157562255859375" lon="-71.11242500133812427520751953125">
        <ele>779.20001220703125</ele>
        <time>2026-08-22T00:57:39.000Z</time>
        <extensions>
          <ns3:TrackPointExtension>
            <ns3:hr>133</ns3:hr>
            <ns3:cad>0</ns3:cad>
          </ns3:TrackPointExtension>
        </extensions>
      </trkpt>
      <trkpt lat="45.2777097187936305999755859375" lon="-71.11242349259555339813232421875">
        <ele>779.4000244140625</ele>
        <time>2026-08-22T00:57:40.000Z</time>
        <extensions>
          <ns3:TrackPointExtension>
            <ns3:hr>133</ns3:hr>
            <ns3:cad>0</ns3:cad>
          </ns3:TrackPointExtension>
        </extensions>
      </trkpt>
      <trkpt lat="45.2777053602039813995361328125" lon="-71.1124301142990589141845703125">
        <ele>779.5999755859375</ele>
        <time>2026-08-22T00:57:41.000Z</time>
        <extensions>
          <ns3:TrackPointExtension>
            <ns3:hr>134</ns3:hr>
            <ns3:cad>0</ns3:cad>
          </ns3:TrackPointExtension>
        </extensions>
      </trkpt>
      <trkpt lat="45.2777053602039813995361328125" lon="-71.1124379932880401611328125">
        <ele>779.79998779296875</ele>
        <time>2026-08-22T00:57:42.000Z</time>
        <extensions>
          <ns3:TrackPointExtension>
            <ns3:hr>134</ns3:hr>
            <ns3:cad>0</ns3:cad>
          </ns3:TrackPointExtension>
        </extensions>
      </trkpt>
      <trkpt lat="45.2777030132710933685302734375" lon="-71.11243665218353271484375">
        <ele>780</ele>
        <time>2026-08-22T00:57:43.000Z</time>
        <extensions>
          <ns3:TrackPointExtension>
            <ns3:hr>134</ns3:hr>
            <ns3:cad>0</ns3:cad>
          </ns3:TrackPointExtension>
        </extensions>
      </trkpt>
      <trkpt lat="45.27770452201366424560546875" lon="-71.1124341376125812530517578125">
        <ele>780.20001220703125</ele>
        <time>2026-08-22T00:57:44.000Z</time>
        <extensions>
          <ns3:TrackPointExtension>
            <ns3:hr>134</ns3:hr>
            <ns3:cad>0</ns3:cad>
          </ns3:TrackPointExtension>
        </extensions>
      </trkpt>
      <trkpt lat="45.2776966430246829986572265625" lon="-71.11242852173745632171630859375">
        <ele>780.4000244140625</ele>
        <time>2026-08-22T00:57:45.000Z</time>
        <extensions>
          <ns3:TrackPointExtension>
            <ns3:hr>134</ns3:hr>
            <ns3:cad>0</ns3:cad>
          </ns3:TrackPointExtension>
        </extensions>
      </trkpt>
      <trkpt lat="45.27769245207309722900390625" lon="-71.112429611384868621826171875">
        <ele>780.5999755859375</ele>
        <time>2026-08-22T00:57:46.000Z</time>
        <extensions>
          <ns3:TrackPointExtension>
            <ns3:hr>134</ns3:hr>
            <ns3:cad>0</ns3:cad>
          </ns3:TrackPointExtension>
        </extensions>
      </trkpt>
      <trkpt lat="45.27768834494054317474365234375" lon="-71.1124311201274394989013671875">
        <ele>780.79998779296875</ele>
        <time>2026-08-22T00:57:47.000Z</time>
        <extensions>
          <ns3:TrackPointExtension>
            <ns3:hr>134</ns3:hr>
            <ns3:cad>0</ns3:cad>
          </ns3:TrackPointExtension>
        </extensions>
      </trkpt>
      <trkpt lat="45.27767946012318134307861328125" lon="-71.11243220977485179901123046875">
        <ele>781</ele>
        <time>2026-08-22T00:57:48.000Z</time>
        <extensions>
          <ns3:TrackPointExtension>
            <ns3:hr>134</ns3:hr>
            <ns3:cad>0</ns3:cad>
          </ns3:TrackPointExtension>
        </extensions>
      </trkpt>
      <trkpt lat="45.2776761911809444427490234375" lon="-71.11243539489805698394775390625">
        <ele>781.20001220703125</ele>
        <time>2026-08-22T00:57:49.000Z</time>
        <extensions>
          <ns3:TrackPointExtension>
            <ns3:hr>134</ns3:hr>
            <ns3:cad>0</ns3:cad>
          </ns3:TrackPointExtension>
        </extensions>
      </trkpt>
      <trkpt lat="45.2776663005352020263671875" lon="-71.112441010773181915283203125">
        <ele>781.4000244140625</ele>
        <time>2026-08-22T00:57:50.000Z</time>
        <extensions>
          <ns3:TrackPointExtension>
            <ns3:hr>134</ns3:hr>
            <ns3:cad>0</ns3:cad>
          </ns3:TrackPointExtension>
        </extensions>
      </trkpt>
      <trkpt lat="45.2776637859642505645751953125" lon="-71.11244377680122852325439453125">
        <ele>781.4000244140625</ele>
        <time>2026-08-22T00:57:51.000Z</time>
        <extensions>
          <ns3:TrackPointExtension>
            <ns3:hr>134</ns3:hr>
            <ns3:cad>0</ns3:cad>
          </ns3:TrackPointExtension>
        </extensions>
      </trkpt>
      <trkpt lat="45.27766034938395023345947265625" lon="-71.112448386847972869873046875">
        <ele>781.5999755859375</ele>
        <time>2026-08-22T00:57:52.000Z</time>
        <extensions>
          <ns3:TrackPointExtension>
            <ns3:hr>134</ns3:hr>
            <ns3:cad>0</ns3:cad>
          </ns3:TrackPointExtension>
        </extensions>
      </trkpt>
      <trkpt lat="45.27765615843236446380615234375" lon="-71.1124475486576557159423828125">
        <ele>781.79998779296875</ele>
        <time>2026-08-22T00:57:53.000Z</time>
        <extensions>
          <ns3:TrackPointExtension>
            <ns3:hr>134</ns3:hr>
            <ns3:cad>0</ns3:cad>
          </ns3:TrackPointExtension>
        </extensions>
      </trkpt>
      <trkpt lat="45.27765666134655475616455078125" lon="-71.1124482192099094390869140625">
        <ele>781.79998779296875</ele>
        <time>2026-08-22T00:57:54.000Z</time>
        <extensions>
          <ns3:TrackPointExtension>
            <ns3:hr>134</ns3:hr>
            <ns3:cad>0</ns3:cad>
          </ns3:TrackPointExtension>
        </extensions>
      </trkpt>
      <trkpt lat="45.27765800245106220245361328125" lon="-71.1124576069414615631103515625">
        <ele>781.79998779296875</ele>
        <time>2026-08-22T00:57:55.000Z</time>
        <extensions>
          <ns3:TrackPointExtension>
            <ns3:hr>134</ns3:hr>
            <ns3:cad>0</ns3:cad>
          </ns3:TrackPointExtension>
        </extensions>
      </trkpt>
      <trkpt lat="45.2776555716991424560546875" lon="-71.11246976070106029510498046875">
        <ele>782</ele>
        <time>2026-08-22T00:57:56.000Z</time>
        <extensions>
          <ns3:TrackPointExtension>
            <ns3:hr>134</ns3:hr>
            <ns3:cad>0</ns3:cad>
          </ns3:TrackPointExtension>
        </extensions>
      </trkpt>
      <trkpt lat="45.2776523865759372711181640625" lon="-71.1124733649194240570068359375">
        <ele>782</ele>
        <time>2026-08-22T00:57:57.000Z</time>
        <extensions>
          <ns3:TrackPointExtension>
            <ns3:hr>134</ns3:hr>
            <ns3:cad>0</ns3:cad>
          </ns3:TrackPointExtension>
        </extensions>
      </trkpt>
      <trkpt lat="45.27764618396759033203125" lon="-71.11247361637651920318603515625">
        <ele>782</ele>
        <time>2026-08-22T00:57:58.000Z</time>
        <extensions>
          <ns3:TrackPointExtension>
            <ns3:hr>134</ns3:hr>
            <ns3:cad>0</ns3:cad>
          </ns3:TrackPointExtension>
        </extensions>
      </trkpt>
      <trkpt lat="45.27764408849179744720458984375" lon="-71.112474538385868072509765625">
        <ele>782.20001220703125</ele>
        <time>2026-08-22T00:57:59.000Z</time>
        <extensions>
          <ns3:TrackPointExtension>
            <ns3:hr>134</ns3:hr>
            <ns3:cad>0</ns3:cad>
          </ns3:TrackPointExtension>
        </extensions>
      </trkpt>
      <trkpt lat="45.27764123864471912384033203125" lon="-71.1124740354716777801513671875">
        <ele>782.4000244140625</ele>
        <time>2026-08-22T00:58:00.000Z</time>
        <extensions>
          <ns3:TrackPointExtension>
            <ns3:hr>134</ns3:hr>
            <ns3:cad>0</ns3:cad>
          </ns3:TrackPointExtension>
        </extensions>
      </trkpt>
      <trkpt lat="45.27763403020799160003662109375" lon="-71.11247898079454898834228515625">
        <ele>782.5999755859375</ele>
        <time>2026-08-22T00:58:01.000Z</time>
        <extensions>
          <ns3:TrackPointExtension>
            <ns3:hr>134</ns3:hr>
            <ns3:cad>0</ns3:cad>
          </ns3:TrackPointExtension>
        </extensions>
      </trkpt>
      <trkpt lat="45.277633778750896453857421875" lon="-71.1124817468225955963134765625">
        <ele>782.79998779296875</ele>
        <time>2026-08-22T00:58:02.000Z</time>
        <extensions>
          <ns3:TrackPointExtension>
            <ns3:hr>134</ns3:hr>
            <ns3:cad>0</ns3:cad>
          </ns3:TrackPointExtension>
        </extensions>
      </trkpt>
      <trkpt lat="45.2776260673999786376953125" lon="-71.11248887144029140472412109375">
        <ele>783.20001220703125</ele>
        <time>2026-08-22T00:58:03.000Z</time>
        <extensions>
          <ns3:TrackPointExtension>
            <ns3:hr>133</ns3:hr>
            <ns3:cad>0</ns3:cad>
          </ns3:TrackPointExtension>
        </extensions>
      </trkpt>
      <trkpt lat="45.2776191942393779754638671875" lon="-71.1124970018863677978515625">
        <ele>783.4000244140625</ele>
        <time>2026-08-22T00:58:04.000Z</time>
        <extensions>
          <ns3:TrackPointExtension>
            <ns3:hr>134</ns3:hr>
            <ns3:cad>0</ns3:cad>
          </ns3:TrackPointExtension>
        </extensions>
      </trkpt>
      <trkpt lat="45.27761223725974559783935546875" lon="-71.11250965856015682220458984375">
        <ele>783.5999755859375</ele>
        <time>2026-08-22T00:58:05.000Z</time>
        <extensions>
          <ns3:TrackPointExtension>
            <ns3:hr>134</ns3:hr>
            <ns3:cad>0</ns3:cad>
          </ns3:TrackPointExtension>
        </extensions>
      </trkpt>
      <trkpt lat="45.27760234661400318145751953125" lon="-71.11251904629170894622802734375">
        <ele>783.79998779296875</ele>
        <time>2026-08-22T00:58:06.000Z</time>
        <extensions>
          <ns3:TrackPointExtension>
            <ns3:hr>134</ns3:hr>
            <ns3:cad>0</ns3:cad>
          </ns3:TrackPointExtension>
        </extensions>
      </trkpt>
      <trkpt lat="45.27760100550949573516845703125" lon="-71.112529523670673370361328125">
        <ele>784</ele>
        <time>2026-08-22T00:58:07.000Z</time>
        <extensions>
          <ns3:TrackPointExtension>
            <ns3:hr>134</ns3:hr>
            <ns3:cad>0</ns3:cad>
          </ns3:TrackPointExtension>
        </extensions>
      </trkpt>
      <trkpt lat="45.2775950543582439422607421875" lon="-71.11254192888736724853515625">
        <ele>784.20001220703125</ele>
        <time>2026-08-22T00:58:08.000Z</time>
        <extensions>
          <ns3:TrackPointExtension>
            <ns3:hr>134</ns3:hr>
            <ns3:cad>0</ns3:cad>
          </ns3:TrackPointExtension>
        </extensions>
      </trkpt>
      <trkpt lat="45.2775903604924678802490234375" lon="-71.1125528253614902496337890625">
        <ele>784.4000244140625</ele>
        <time>2026-08-22T00:58:09.000Z</time>
        <extensions>
          <ns3:TrackPointExtension>
            <ns3:hr>135</ns3:hr>
            <ns3:cad>0</ns3:cad>
          </ns3:TrackPointExtension>
        </extensions>
      </trkpt>
      <trkpt lat="45.27758474461734294891357421875" lon="-71.112557686865329742431640625">
        <ele>784.5999755859375</ele>
        <time>2026-08-22T00:58:10.000Z</time>
        <extensions>
          <ns3:TrackPointExtension>
            <ns3:hr>135</ns3:hr>
            <ns3:cad>0</ns3:cad>
          </ns3:TrackPointExtension>
        </extensions>
      </trkpt>
      <trkpt lat="45.27758021838963031768798828125" lon="-71.11256112344563007354736328125">
        <ele>784.79998779296875</ele>
        <time>2026-08-22T00:58:11.000Z</time>
        <extensions>
          <ns3:TrackPointExtension>
            <ns3:hr>136</ns3:hr>
            <ns3:cad>0</ns3:cad>
          </ns3:TrackPointExtension>
        </extensions>
      </trkpt>
      <trkpt lat="45.2775762788951396942138671875" lon="-71.11256472766399383544921875">
        <ele>785</ele>
        <time>2026-08-22T00:58:12.000Z</time>
        <extensions>
          <ns3:TrackPointExtension>
            <ns3:hr>136</ns3:hr>
            <ns3:cad>0</ns3:cad>
          </ns3:TrackPointExtension>
        </extensions>
      </trkpt>
      <trkpt lat="45.2775739319622516632080078125" lon="-71.112567745149135589599609375">
        <ele>785.20001220703125</ele>
        <time>2026-08-22T00:58:13.000Z</time>
        <extensions>
          <ns3:TrackPointExtension>
            <ns3:hr>137</ns3:hr>
            <ns3:cad>0</ns3:cad>
          </ns3:TrackPointExtension>
        </extensions>
      </trkpt>
      <trkpt lat="45.2775752730667591094970703125" lon="-71.1125716008245944976806640625">
        <ele>785.5999755859375</ele>
        <time>2026-08-22T00:58:14.000Z</time>
        <extensions>
          <ns3:TrackPointExtension>
            <ns3:hr>138</ns3:hr>
            <ns3:cad>0</ns3:cad>
          </ns3:TrackPointExtension>
        </extensions>
      </trkpt>
      <trkpt lat="45.27757451869547367095947265625" lon="-71.11257621087133884429931640625">
        <ele>785.79998779296875</ele>
        <time>2026-08-22T00:58:15.000Z</time>
        <extensions>
          <ns3:TrackPointExtension>
            <ns3:hr>138</ns3:hr>
            <ns3:cad>0</ns3:cad>
          </ns3:TrackPointExtension>
        </extensions>
      </trkpt>
      <trkpt lat="45.2775695733726024627685546875" lon="-71.112577132880687713623046875">
        <ele>786</ele>
        <time>2026-08-22T00:58:16.000Z</time>
        <extensions>
          <ns3:TrackPointExtension>
            <ns3:hr>138</ns3:hr>
            <ns3:cad>0</ns3:cad>
          </ns3:TrackPointExtension>
        </extensions>
      </trkpt>
      <trkpt lat="45.277563035488128662109375" lon="-71.11257654614746570587158203125">
        <ele>786.20001220703125</ele>
        <time>2026-08-22T00:58:17.000Z</time>
        <extensions>
          <ns3:TrackPointExtension>
            <ns3:hr>138</ns3:hr>
            <ns3:cad>0</ns3:cad>
          </ns3:TrackPointExtension>
        </extensions>
      </trkpt>
      <trkpt lat="45.2775598503649234771728515625" lon="-71.1125783063471317291259765625">
        <ele>786.4000244140625</ele>
        <time>2026-08-22T00:58:18.000Z</time>
        <extensions>
          <ns3:TrackPointExtension>
            <ns3:hr>138</ns3:hr>
            <ns3:cad>0</ns3:cad>
          </ns3:TrackPointExtension>
        </extensions>
      </trkpt>
      <trkpt lat="45.27755565941333770751953125" lon="-71.11258124001324176788330078125">
        <ele>786.5999755859375</ele>
        <time>2026-08-22T00:58:19.000Z</time>
        <extensions>
          <ns3:TrackPointExtension>
            <ns3:hr>139</ns3:hr>
            <ns3:cad>0</ns3:cad>
          </ns3:TrackPointExtension>
        </extensions>
      </trkpt>
      <trkpt lat="45.2775518037378787994384765625" lon="-71.11258207820355892181396484375">
        <ele>786.79998779296875</ele>
        <time>2026-08-22T00:58:20.000Z</time>
        <extensions>
          <ns3:TrackPointExtension>
            <ns3:hr>138</ns3:hr>
            <ns3:cad>0</ns3:cad>
          </ns3:TrackPointExtension>
        </extensions>
      </trkpt>
      <trkpt lat="45.2775471098721027374267578125" lon="-71.11257822252810001373291015625">
        <ele>787</ele>
        <time>2026-08-22T00:58:21.000Z</time>
        <extensions>
          <ns3:TrackPointExtension>
            <ns3:hr>138</ns3:hr>
            <ns3:cad>0</ns3:cad>
          </ns3:TrackPointExtension>
        </extensions>
      </trkpt>
      <trkpt lat="45.27755021117627620697021484375" lon="-71.11258006654679775238037109375">
        <ele>787.20001220703125</ele>
        <time>2026-08-22T00:58:22.000Z</time>
        <extensions>
          <ns3:TrackPointExtension>
            <ns3:hr>139</ns3:hr>
            <ns3:cad>0</ns3:cad>
          </ns3:TrackPointExtension>
        </extensions>
      </trkpt>
      <trkpt lat="45.2775497920811176300048828125" lon="-71.112581826746463775634765625">
        <ele>787.5999755859375</ele>
        <time>2026-08-22T00:58:23.000Z</time>
        <extensions>
          <ns3:TrackPointExtension>
            <ns3:hr>139</ns3:hr>
            <ns3:cad>0</ns3:cad>
          </ns3:TrackPointExtension>
        </extensions>
      </trkpt>
      <trkpt lat="45.2775509655475616455078125" lon="-71.11258274875581264495849609375">
        <ele>787.79998779296875</ele>
        <time>2026-08-22T00:58:24.000Z</time>
        <extensions>
          <ns3:TrackPointExtension>
            <ns3:hr>140</ns3:hr>
            <ns3:cad>0</ns3:cad>
          </ns3:TrackPointExtension>
        </extensions>
      </trkpt>
      <trkpt lat="45.27754132635891437530517578125" lon="-71.1125850118696689605712890625">
        <ele>788</ele>
        <time>2026-08-22T00:58:25.000Z</time>
        <extensions>
          <ns3:TrackPointExtension>
            <ns3:hr>140</ns3:hr>
            <ns3:cad>0</ns3:cad>
          </ns3:TrackPointExtension>
        </extensions>
      </trkpt>
      <trkpt lat="45.27753881178796291351318359375" lon="-71.1125850118696689605712890625">
        <ele>788.20001220703125</ele>
        <time>2026-08-22T00:58:26.000Z</time>
        <extensions>
          <ns3:TrackPointExtension>
            <ns3:hr>140</ns3:hr>
            <ns3:cad>0</ns3:cad>
          </ns3:TrackPointExtension>
        </extensions>
      </trkpt>
      <trkpt lat="45.27753864414989948272705078125" lon="-71.112580485641956329345703125">
        <ele>788.5999755859375</ele>
        <time>2026-08-22T00:58:27.000Z</time>
        <extensions>
          <ns3:TrackPointExtension>
            <ns3:hr>140</ns3:hr>
            <ns3:cad>0</ns3:cad>
          </ns3:TrackPointExtension>
        </extensions>
      </trkpt>
      <trkpt lat="45.27753353118896484375" lon="-71.11258140765130519866943359375">
        <ele>788.79998779296875</ele>
        <time>2026-08-22T00:58:28.000Z</time>
        <extensions>
          <ns3:TrackPointExtension>
            <ns3:hr>140</ns3:hr>
            <ns3:cad>0</ns3:cad>
          </ns3:TrackPointExtension>
        </extensions>
      </trkpt>
      <trkpt lat="45.27753076516091823577880859375" lon="-71.112582497298717498779296875">
        <ele>789</ele>
        <time>2026-08-22T00:58:29.000Z</time>
        <extensions>
          <ns3:TrackPointExtension>
            <ns3:hr>140</ns3:hr>
            <ns3:cad>0</ns3:cad>
          </ns3:TrackPointExtension>
        </extensions>
      </trkpt>
      <trkpt lat="45.27752992697060108184814453125" lon="-71.11258216202259063720703125">
        <ele>789.20001220703125</ele>
        <time>2026-08-22T00:58:30.000Z</time>
        <extensions>
          <ns3:TrackPointExtension>
            <ns3:hr>140</ns3:hr>
            <ns3:cad>0</ns3:cad>
          </ns3:TrackPointExtension>
        </extensions>
      </trkpt>
      <trkpt lat="45.27752422727644443511962890625" lon="-71.11257956363260746002197265625">
        <ele>789.4000244140625</ele>
        <time>2026-08-22T00:58:31.000Z</time>
        <extensions>
          <ns3:TrackPointExtension>
            <ns3:hr>140</ns3:hr>
            <ns3:cad>0</ns3:cad>
          </ns3:TrackPointExtension>
        </extensions>
      </trkpt>
      <trkpt lat="45.27752020396292209625244140625" lon="-71.11257906071841716766357421875">
        <ele>789.79998779296875</ele>
        <time>2026-08-22T00:58:32.000Z</time>
        <extensions>
          <ns3:TrackPointExtension>
            <ns3:hr>140</ns3:hr>
            <ns3:cad>0</ns3:cad>
          </ns3:TrackPointExtension>
        </extensions>
      </trkpt>
      <trkpt lat="45.27751551009714603424072265625" lon="-71.11258140765130519866943359375">
        <ele>790</ele>
        <time>2026-08-22T00:58:33.000Z</time>
        <extensions>
          <ns3:TrackPointExtension>
            <ns3:hr>140</ns3:hr>
            <ns3:cad>0</ns3:cad>
          </ns3:TrackPointExtension>
        </extensions>
      </trkpt>
      <trkpt lat="45.277513749897480010986328125" lon="-71.11258375458419322967529296875">
        <ele>790.20001220703125</ele>
        <time>2026-08-22T00:58:34.000Z</time>
        <extensions>
          <ns3:TrackPointExtension>
            <ns3:hr>140</ns3:hr>
            <ns3:cad>0</ns3:cad>
          </ns3:TrackPointExtension>
        </extensions>
      </trkpt>
      <trkpt lat="45.27751249261200428009033203125" lon="-71.11258618533611297607421875">
        <ele>790.4000244140625</ele>
        <time>2026-08-22T00:58:35.000Z</time>
        <extensions>
          <ns3:TrackPointExtension>
            <ns3:hr>140</ns3:hr>
            <ns3:cad>0</ns3:cad>
          </ns3:TrackPointExtension>
        </extensions>
      </trkpt>
      <trkpt lat="45.27750427834689617156982421875" lon="-71.112588532269001007080078125">
        <ele>790.5999755859375</ele>
        <time>2026-08-22T00:58:36.000Z</time>
        <extensions>
          <ns3:TrackPointExtension>
            <ns3:hr>140</ns3:hr>
            <ns3:cad>0</ns3:cad>
          </ns3:TrackPointExtension>
        </extensions>
      </trkpt>
      <trkpt lat="45.2775038592517375946044921875" lon="-71.11259062774479389190673828125">
        <ele>790.79998779296875</ele>
        <time>2026-08-22T00:58:37.000Z</time>
        <extensions>
          <ns3:TrackPointExtension>
            <ns3:hr>140</ns3:hr>
            <ns3:cad>0</ns3:cad>
          </ns3:TrackPointExtension>
        </extensions>
      </trkpt>
      <trkpt lat="45.27749891392886638641357421875" lon="-71.11259414814412593841552734375">
        <ele>791</ele>
        <time>2026-08-22T00:58:38.000Z</time>
        <extensions>
          <ns3:TrackPointExtension>
            <ns3:hr>140</ns3:hr>
            <ns3:cad>0</ns3:cad>
          </ns3:TrackPointExtension>
        </extensions>
      </trkpt>
      <trkpt lat="45.27749799191951751708984375" lon="-71.11260269768536090850830078125">
        <ele>791.20001220703125</ele>
        <time>2026-08-22T00:58:39.000Z</time>
        <extensions>
          <ns3:TrackPointExtension>
            <ns3:hr>139</ns3:hr>
            <ns3:cad>0</ns3:cad>
          </ns3:TrackPointExtension>
        </extensions>
      </trkpt>
      <trkpt lat="45.2774927951395511627197265625" lon="-71.11260621808469295501708984375">
        <ele>791.20001220703125</ele>
        <time>2026-08-22T00:58:40.000Z</time>
        <extensions>
          <ns3:TrackPointExtension>
            <ns3:hr>140</ns3:hr>
            <ns3:cad>0</ns3:cad>
          </ns3:TrackPointExtension>
        </extensions>
      </trkpt>
      <trkpt lat="45.27748768217861652374267578125" lon="-71.11260772682726383209228515625">
        <ele>791.4000244140625</ele>
        <time>2026-08-22T00:58:41.000Z</time>
        <extensions>
          <ns3:TrackPointExtension>
            <ns3:hr>140</ns3:hr>
            <ns3:cad>0</ns3:cad>
          </ns3:TrackPointExtension>
        </extensions>
      </trkpt>
      <trkpt lat="45.27747913263738155364990234375" lon="-71.11260705627501010894775390625">
        <ele>791.5999755859375</ele>
        <time>2026-08-22T00:58:42.000Z</time>
        <extensions>
          <ns3:TrackPointExtension>
            <ns3:hr>140</ns3:hr>
            <ns3:cad>0</ns3:cad>
          </ns3:TrackPointExtension>
        </extensions>
      </trkpt>
      <trkpt lat="45.2774713374674320220947265625" lon="-71.11261107958853244781494140625">
        <ele>791.79998779296875</ele>
        <time>2026-08-22T00:58:43.000Z</time>
        <extensions>
          <ns3:TrackPointExtension>
            <ns3:hr>140</ns3:hr>
            <ns3:cad>0</ns3:cad>
          </ns3:TrackPointExtension>
        </extensions>
      </trkpt>
      <trkpt lat="45.27746505104005336761474609375" lon="-71.1126071400940418243408203125">
        <ele>792</ele>
        <time>2026-08-22T00:58:44.000Z</time>
        <extensions>
          <ns3:TrackPointExtension>
            <ns3:hr>140</ns3:hr>
            <ns3:cad>0</ns3:cad>
          </ns3:TrackPointExtension>
        </extensions>
      </trkpt>
      <trkpt lat="45.27745801024138927459716796875" lon="-71.11260018311440944671630859375">
        <ele>792.20001220703125</ele>
        <time>2026-08-22T00:58:45.000Z</time>
        <extensions>
          <ns3:TrackPointExtension>
            <ns3:hr>140</ns3:hr>
            <ns3:cad>0</ns3:cad>
          </ns3:TrackPointExtension>
        </extensions>
      </trkpt>
      <trkpt lat="45.27745909988880157470703125" lon="-71.1125935614109039306640625">
        <ele>792.4000244140625</ele>
        <time>2026-08-22T00:58:46.000Z</time>
        <extensions>
          <ns3:TrackPointExtension>
            <ns3:hr>140</ns3:hr>
            <ns3:cad>0</ns3:cad>
          </ns3:TrackPointExtension>
        </extensions>
      </trkpt>
      <trkpt lat="45.277456082403659820556640625" lon="-71.11258258111774921417236328125">
        <ele>792.5999755859375</ele>
        <time>2026-08-22T00:58:47.000Z</time>
        <extensions>
          <ns3:TrackPointExtension>
            <ns3:hr>140</ns3:hr>
            <ns3:cad>0</ns3:cad>
          </ns3:TrackPointExtension>
        </extensions>
      </trkpt>
      <trkpt lat="45.27745700441300868988037109375" lon="-71.11257235519587993621826171875">
        <ele>792.5999755859375</ele>
        <time>2026-08-22T00:58:48.000Z</time>
        <extensions>
          <ns3:TrackPointExtension>
            <ns3:hr>139</ns3:hr>
            <ns3:cad>0</ns3:cad>
          </ns3:TrackPointExtension>
        </extensions>
      </trkpt>
      <trkpt lat="45.27745348401367664337158203125" lon="-71.112560369074344635009765625">
        <ele>792.5999755859375</ele>
        <time>2026-08-22T00:58:49.000Z</time>
        <extensions>
          <ns3:TrackPointExtension>
            <ns3:hr>139</ns3:hr>
            <ns3:cad>0</ns3:cad>
          </ns3:TrackPointExtension>
        </extensions>
      </trkpt>
      <trkpt lat="45.2774545736610889434814453125" lon="-71.1125533282756805419921875">
        <ele>792.79998779296875</ele>
        <time>2026-08-22T00:58:50.000Z</time>
        <extensions>
          <ns3:TrackPointExtension>
            <ns3:hr>138</ns3:hr>
            <ns3:cad>0</ns3:cad>
          </ns3:TrackPointExtension>
        </extensions>
      </trkpt>
      <trkpt lat="45.27745197527110576629638671875" lon="-71.112539581954479217529296875">
        <ele>792.79998779296875</ele>
        <time>2026-08-22T00:58:51.000Z</time>
        <extensions>
          <ns3:TrackPointExtension>
            <ns3:hr>138</ns3:hr>
            <ns3:cad>0</ns3:cad>
          </ns3:TrackPointExtension>
        </extensions>
      </trkpt>
      <trkpt lat="45.27744409628212451934814453125" lon="-71.1125265061855316162109375">
        <ele>792.79998779296875</ele>
        <time>2026-08-22T00:58:52.000Z</time>
        <extensions>
          <ns3:TrackPointExtension>
            <ns3:hr>139</ns3:hr>
            <ns3:cad>0</ns3:cad>
          </ns3:TrackPointExtension>
        </extensions>
      </trkpt>
      <trkpt lat="45.27743655256927013397216796875" lon="-71.11251267604529857635498046875">
        <ele>793</ele>
        <time>2026-08-22T00:58:53.000Z</time>
        <extensions>
          <ns3:TrackPointExtension>
            <ns3:hr>140</ns3:hr>
            <ns3:cad>50</ns3:cad>
          </ns3:TrackPointExtension>
        </extensions>
      </trkpt>
      <trkpt lat="45.27742850594222545623779296875" lon="-71.11250345595180988311767578125">
        <ele>793.20001220703125</ele>
        <time>2026-08-22T00:58:54.000Z</time>
        <extensions>
          <ns3:TrackPointExtension>
            <ns3:hr>140</ns3:hr>
            <ns3:cad>50</ns3:cad>
          </ns3:TrackPointExtension>
        </extensions>
      </trkpt>
      <trkpt lat="45.277419202029705047607421875" lon="-71.11249842680990695953369140625">
        <ele>793.4000244140625</ele>
        <time>2026-08-22T00:58:55.000Z</time>
        <extensions>
          <ns3:TrackPointExtension>
            <ns3:hr>140</ns3:hr>
            <ns3:cad>48</ns3:cad>
          </ns3:TrackPointExtension>
        </extensions>
      </trkpt>
      <trkpt lat="45.27741123922169208526611328125" lon="-71.11249038018286228179931640625">
        <ele>793.4000244140625</ele>
        <time>2026-08-22T00:58:56.000Z</time>
        <extensions>
          <ns3:TrackPointExtension>
            <ns3:hr>140</ns3:hr>
            <ns3:cad>45</ns3:cad>
          </ns3:TrackPointExtension>
        </extensions>
      </trkpt>
      <trkpt lat="45.2774019353091716766357421875" lon="-71.11248157918453216552734375">
        <ele>793.5999755859375</ele>
        <time>2026-08-22T00:58:57.000Z</time>
        <extensions>
          <ns3:TrackPointExtension>
            <ns3:hr>140</ns3:hr>
            <ns3:cad>45</ns3:cad>
          </ns3:TrackPointExtension>
        </extensions>
      </trkpt>
      <trkpt lat="45.27739313431084156036376953125" lon="-71.11247889697551727294921875">
        <ele>793.79998779296875</ele>
        <time>2026-08-22T00:58:58.000Z</time>
        <extensions>
          <ns3:TrackPointExtension>
            <ns3:hr>140</ns3:hr>
            <ns3:cad>45</ns3:cad>
          </ns3:TrackPointExtension>
        </extensions>
      </trkpt>
      <trkpt lat="45.2773838303983211517333984375" lon="-71.11248669214546680450439453125">
        <ele>794</ele>
        <time>2026-08-22T00:58:59.000Z</time>
        <extensions>
          <ns3:TrackPointExtension>
            <ns3:hr>140</ns3:hr>
            <ns3:cad>45</ns3:cad>
          </ns3:TrackPointExtension>
        </extensions>
      </trkpt>
      <trkpt lat="45.2773751132190227508544921875" lon="-71.1124978400766849517822265625">
        <ele>794.20001220703125</ele>
        <time>2026-08-22T00:59:00.000Z</time>
        <extensions>
          <ns3:TrackPointExtension>
            <ns3:hr>140</ns3:hr>
            <ns3:cad>45</ns3:cad>
          </ns3:TrackPointExtension>
        </extensions>
      </trkpt>
      <trkpt lat="45.2773620374500751495361328125" lon="-71.11250865273177623748779296875">
        <ele>794.4000244140625</ele>
        <time>2026-08-22T00:59:01.000Z</time>
        <extensions>
          <ns3:TrackPointExtension>
            <ns3:hr>140</ns3:hr>
            <ns3:cad>45</ns3:cad>
          </ns3:TrackPointExtension>
        </extensions>
      </trkpt>
      <trkpt lat="45.27735491283237934112548828125" lon="-71.11251116730272769927978515625">
        <ele>794.5999755859375</ele>
        <time>2026-08-22T00:59:02.000Z</time>
        <extensions>
          <ns3:TrackPointExtension>
            <ns3:hr>140</ns3:hr>
            <ns3:cad>45</ns3:cad>
          </ns3:TrackPointExtension>
        </extensions>
      </trkpt>
      <trkpt lat="45.2773471176624298095703125" lon="-71.112514771521091461181640625">
        <ele>794.79998779296875</ele>
        <time>2026-08-22T00:59:03.000Z</time>
        <extensions>
          <ns3:TrackPointExtension>
            <ns3:hr>140</ns3:hr>
            <ns3:cad>52</ns3:cad>
          </ns3:TrackPointExtension>
        </extensions>
      </trkpt>
      <trkpt lat="45.27733446098864078521728515625" lon="-71.112519465386867523193359375">
        <ele>795.20001220703125</ele>
        <time>2026-08-22T00:59:04.000Z</time>
        <extensions>
          <ns3:TrackPointExtension>
            <ns3:hr>141</ns3:hr>
            <ns3:cad>52</ns3:cad>
          </ns3:TrackPointExtension>
        </extensions>
      </trkpt>
      <trkpt lat="45.27732004411518573760986328125" lon="-71.1125263385474681854248046875">
        <ele>795.4000244140625</ele>
        <time>2026-08-22T00:59:05.000Z</time>
        <extensions>
          <ns3:TrackPointExtension>
            <ns3:hr>142</ns3:hr>
            <ns3:cad>52</ns3:cad>
          </ns3:TrackPointExtension>
        </extensions>
      </trkpt>
      <trkpt lat="45.277305878698825836181640625" lon="-71.1125313676893711090087890625">
        <ele>795.5999755859375</ele>
        <time>2026-08-22T00:59:06.000Z</time>
        <extensions>
          <ns3:TrackPointExtension>
            <ns3:hr>142</ns3:hr>
            <ns3:cad>52</ns3:cad>
          </ns3:TrackPointExtension>
        </extensions>
      </trkpt>
      <trkpt lat="45.2772933058440685272216796875" lon="-71.11254000104963779449462890625">
        <ele>795.79998779296875</ele>
        <time>2026-08-22T00:59:07.000Z</time>
        <extensions>
          <ns3:TrackPointExtension>
            <ns3:hr>142</ns3:hr>
            <ns3:cad>53</ns3:cad>
          </ns3:TrackPointExtension>
        </extensions>
      </trkpt>
      <trkpt lat="45.27728316374123096466064453125" lon="-71.11255290918052196502685546875">
        <ele>796.20001220703125</ele>
        <time>2026-08-22T00:59:08.000Z</time>
        <extensions>
          <ns3:TrackPointExtension>
            <ns3:hr>142</ns3:hr>
            <ns3:cad>53</ns3:cad>
          </ns3:TrackPointExtension>
        </extensions>
      </trkpt>
      <trkpt lat="45.2772752009332180023193359375" lon="-71.1125665716826915740966796875">
        <ele>796.4000244140625</ele>
        <time>2026-08-22T00:59:09.000Z</time>
        <extensions>
          <ns3:TrackPointExtension>
            <ns3:hr>143</ns3:hr>
            <ns3:cad>52</ns3:cad>
          </ns3:TrackPointExtension>
        </extensions>
      </trkpt>
      <trkpt lat="45.27726522646844387054443359375" lon="-71.1125799827277660369873046875">
        <ele>796.5999755859375</ele>
        <time>2026-08-22T00:59:10.000Z</time>
        <extensions>
          <ns3:TrackPointExtension>
            <ns3:hr>143</ns3:hr>
            <ns3:cad>51</ns3:cad>
          </ns3:TrackPointExtension>
        </extensions>
      </trkpt>
      <trkpt lat="45.2772513963282108306884765625" lon="-71.11259565688669681549072265625">
        <ele>796.79998779296875</ele>
        <time>2026-08-22T00:59:11.000Z</time>
        <extensions>
          <ns3:TrackPointExtension>
            <ns3:hr>143</ns3:hr>
            <ns3:cad>51</ns3:cad>
          </ns3:TrackPointExtension>
        </extensions>
      </trkpt>
      <trkpt lat="45.27724293060600757598876953125" lon="-71.11260772682726383209228515625">
        <ele>797</ele>
        <time>2026-08-22T00:59:12.000Z</time>
        <extensions>
          <ns3:TrackPointExtension>
            <ns3:hr>142</ns3:hr>
            <ns3:cad>50</ns3:cad>
          </ns3:TrackPointExtension>
        </extensions>
      </trkpt>
      <trkpt lat="45.27723848819732666015625" lon="-71.11261610873043537139892578125">
        <ele>797.20001220703125</ele>
        <time>2026-08-22T00:59:13.000Z</time>
        <extensions>
          <ns3:TrackPointExtension>
            <ns3:hr>143</ns3:hr>
            <ns3:cad>50</ns3:cad>
          </ns3:TrackPointExtension>
        </extensions>
      </trkpt>
      <trkpt lat="45.27723052538931369781494140625" lon="-71.11262717284262180328369140625">
        <ele>797.5999755859375</ele>
        <time>2026-08-22T00:59:14.000Z</time>
        <extensions>
          <ns3:TrackPointExtension>
            <ns3:hr>143</ns3:hr>
            <ns3:cad>50</ns3:cad>
          </ns3:TrackPointExtension>
        </extensions>
      </trkpt>
      <trkpt lat="45.27722147293388843536376953125" lon="-71.11263505183160305023193359375">
        <ele>797.79998779296875</ele>
        <time>2026-08-22T00:59:15.000Z</time>
        <extensions>
          <ns3:TrackPointExtension>
            <ns3:hr>143</ns3:hr>
            <ns3:cad>50</ns3:cad>
          </ns3:TrackPointExtension>
        </extensions>
      </trkpt>
      <trkpt lat="45.27721527032554149627685546875" lon="-71.1126423440873622894287109375">
        <ele>798</ele>
        <time>2026-08-22T00:59:16.000Z</time>
        <extensions>
          <ns3:TrackPointExtension>
            <ns3:hr>143</ns3:hr>
            <ns3:cad>50</ns3:cad>
          </ns3:TrackPointExtension>
        </extensions>
      </trkpt>
      <trkpt lat="45.27721191756427288055419921875" lon="-71.11265114508569240570068359375">
        <ele>798</ele>
        <time>2026-08-22T00:59:17.000Z</time>
        <extensions>
          <ns3:TrackPointExtension>
            <ns3:hr>143</ns3:hr>
            <ns3:cad>50</ns3:cad>
          </ns3:TrackPointExtension>
        </extensions>
      </trkpt>
      <trkpt lat="45.277202613651752471923828125" lon="-71.112662963569164276123046875">
        <ele>798.20001220703125</ele>
        <time>2026-08-22T00:59:18.000Z</time>
        <extensions>
          <ns3:TrackPointExtension>
            <ns3:hr>143</ns3:hr>
            <ns3:cad>50</ns3:cad>
          </ns3:TrackPointExtension>
        </extensions>
      </trkpt>
      <trkpt lat="45.27719490230083465576171875" lon="-71.11266891472041606903076171875">
        <ele>798.4000244140625</ele>
        <time>2026-08-22T00:59:19.000Z</time>
        <extensions>
          <ns3:TrackPointExtension>
            <ns3:hr>143</ns3:hr>
            <ns3:cad>49</ns3:cad>
          </ns3:TrackPointExtension>
        </extensions>
      </trkpt>
      <trkpt lat="45.2771863527595996856689453125" lon="-71.11267545260488986968994140625">
        <ele>798.5999755859375</ele>
        <time>2026-08-22T00:59:20.000Z</time>
        <extensions>
          <ns3:TrackPointExtension>
            <ns3:hr>143</ns3:hr>
            <ns3:cad>49</ns3:cad>
          </ns3:TrackPointExtension>
        </extensions>
      </trkpt>
      <trkpt lat="45.27717520482838153839111328125" lon="-71.1126847565174102783203125">
        <ele>798.79998779296875</ele>
        <time>2026-08-22T00:59:21.000Z</time>
        <extensions>
          <ns3:TrackPointExtension>
            <ns3:hr>143</ns3:hr>
            <ns3:cad>48</ns3:cad>
          </ns3:TrackPointExtension>
        </extensions>
      </trkpt>
      <trkpt lat="45.2771645598113536834716796875" lon="-71.11269238404929637908935546875">
        <ele>799</ele>
        <time>2026-08-22T00:59:22.000Z</time>
        <extensions>
          <ns3:TrackPointExtension>
            <ns3:hr>145</ns3:hr>
            <ns3:cad>47</ns3:cad>
          </ns3:TrackPointExtension>
        </extensions>
      </trkpt>
      <trkpt lat="45.27715458534657955169677734375" lon="-71.11270210705697536468505859375">
        <ele>799.20001220703125</ele>
        <time>2026-08-22T00:59:23.000Z</time>
        <extensions>
          <ns3:TrackPointExtension>
            <ns3:hr>147</ns3:hr>
            <ns3:cad>47</ns3:cad>
          </ns3:TrackPointExtension>
        </extensions>
      </trkpt>
      <trkpt lat="45.27714259922504425048828125" lon="-71.1127114109694957733154296875">
        <ele>799.20001220703125</ele>
        <time>2026-08-22T00:59:24.000Z</time>
        <extensions>
          <ns3:TrackPointExtension>
            <ns3:hr>147</ns3:hr>
            <ns3:cad>47</ns3:cad>
          </ns3:TrackPointExtension>
        </extensions>
      </trkpt>
      <trkpt lat="45.2771380729973316192626953125" lon="-71.112727336585521697998046875">
        <ele>799.4000244140625</ele>
        <time>2026-08-22T00:59:25.000Z</time>
        <extensions>
          <ns3:TrackPointExtension>
            <ns3:hr>146</ns3:hr>
            <ns3:cad>47</ns3:cad>
          </ns3:TrackPointExtension>
        </extensions>
      </trkpt>
      <trkpt lat="45.2771317027509212493896484375" lon="-71.11274049617350101470947265625">
        <ele>799.5999755859375</ele>
        <time>2026-08-22T00:59:26.000Z</time>
        <extensions>
          <ns3:TrackPointExtension>
            <ns3:hr>146</ns3:hr>
            <ns3:cad>47</ns3:cad>
          </ns3:TrackPointExtension>
        </extensions>
      </trkpt>
      <trkpt lat="45.277128182351589202880859375" lon="-71.11275608651340007781982421875">
        <ele>799.79998779296875</ele>
        <time>2026-08-22T00:59:27.000Z</time>
        <extensions>
          <ns3:TrackPointExtension>
            <ns3:hr>146</ns3:hr>
            <ns3:cad>47</ns3:cad>
          </ns3:TrackPointExtension>
        </extensions>
      </trkpt>
      <trkpt lat="45.27712860144674777984619140625" lon="-71.11277737654745578765869140625">
        <ele>799.79998779296875</ele>
        <time>2026-08-22T00:59:28.000Z</time>
        <extensions>
          <ns3:TrackPointExtension>
            <ns3:hr>146</ns3:hr>
            <ns3:cad>50</ns3:cad>
          </ns3:TrackPointExtension>
        </extensions>
      </trkpt>
      <trkpt lat="45.2771246619522571563720703125" lon="-71.11279665492475032806396484375">
        <ele>800</ele>
        <time>2026-08-22T00:59:29.000Z</time>
        <extensions>
          <ns3:TrackPointExtension>
            <ns3:hr>146</ns3:hr>
            <ns3:cad>50</ns3:cad>
          </ns3:TrackPointExtension>
        </extensions>
      </trkpt>
      <trkpt lat="45.27712156064808368682861328125" lon="-71.11280604265630245208740234375">
        <ele>800.20001220703125</ele>
        <time>2026-08-22T00:59:30.000Z</time>
        <extensions>
          <ns3:TrackPointExtension>
            <ns3:hr>145</ns3:hr>
            <ns3:cad>50</ns3:cad>
          </ns3:TrackPointExtension>
        </extensions>
      </trkpt>
      <trkpt lat="45.2771169506013393402099609375" lon="-71.11281392164528369903564453125">
        <ele>800.4000244140625</ele>
        <time>2026-08-22T00:59:31.000Z</time>
        <extensions>
          <ns3:TrackPointExtension>
            <ns3:hr>146</ns3:hr>
            <ns3:cad>0</ns3:cad>
          </ns3:TrackPointExtension>
        </extensions>
      </trkpt>
      <trkpt lat="45.27710882015526294708251953125" lon="-71.11283353529870510101318359375">
        <ele>800.5999755859375</ele>
        <time>2026-08-22T00:59:32.000Z</time>
        <extensions>
          <ns3:TrackPointExtension>
            <ns3:hr>146</ns3:hr>
            <ns3:cad>0</ns3:cad>
          </ns3:TrackPointExtension>
        </extensions>
      </trkpt>
      <trkpt lat="45.27710278518497943878173828125" lon="-71.11283672042191028594970703125">
        <ele>800.79998779296875</ele>
        <time>2026-08-22T00:59:33.000Z</time>
        <extensions>
          <ns3:TrackPointExtension>
            <ns3:hr>146</ns3:hr>
            <ns3:cad>0</ns3:cad>
          </ns3:TrackPointExtension>
        </extensions>
      </trkpt>
      <trkpt lat="45.27710228227078914642333984375" lon="-71.11285465769469738006591796875">
        <ele>801</ele>
        <time>2026-08-22T00:59:34.000Z</time>
        <extensions>
          <ns3:TrackPointExtension>
            <ns3:hr>146</ns3:hr>
            <ns3:cad>0</ns3:cad>
          </ns3:TrackPointExtension>
        </extensions>
      </trkpt>
      <trkpt lat="45.2771015278995037078857421875" lon="-71.11287142150104045867919921875">
        <ele>801.20001220703125</ele>
        <time>2026-08-22T00:59:35.000Z</time>
        <extensions>
          <ns3:TrackPointExtension>
            <ns3:hr>146</ns3:hr>
            <ns3:cad>0</ns3:cad>
          </ns3:TrackPointExtension>
        </extensions>
      </trkpt>
      <trkpt lat="45.27709591202437877655029296875" lon="-71.112886928021907806396484375">
        <ele>801.4000244140625</ele>
        <time>2026-08-22T00:59:36.000Z</time>
        <extensions>
          <ns3:TrackPointExtension>
            <ns3:hr>145</ns3:hr>
            <ns3:cad>0</ns3:cad>
          </ns3:TrackPointExtension>
        </extensions>
      </trkpt>
      <trkpt lat="45.2770924754440784454345703125" lon="-71.11290193162858486175537109375">
        <ele>801.79998779296875</ele>
        <time>2026-08-22T00:59:37.000Z</time>
        <extensions>
          <ns3:TrackPointExtension>
            <ns3:hr>146</ns3:hr>
            <ns3:cad>0</ns3:cad>
          </ns3:TrackPointExtension>
        </extensions>
      </trkpt>
      <trkpt lat="45.27709222398698329925537109375" lon="-71.11291064880788326263427734375">
        <ele>802</ele>
        <time>2026-08-22T00:59:38.000Z</time>
        <extensions>
          <ns3:TrackPointExtension>
            <ns3:hr>146</ns3:hr>
            <ns3:cad>0</ns3:cad>
          </ns3:TrackPointExtension>
        </extensions>
      </trkpt>
      <trkpt lat="45.2770931459963321685791015625" lon="-71.11291517503559589385986328125">
        <ele>802</ele>
        <time>2026-08-22T00:59:39.000Z</time>
        <extensions>
          <ns3:TrackPointExtension>
            <ns3:hr>146</ns3:hr>
            <ns3:cad>0</ns3:cad>
          </ns3:TrackPointExtension>
        </extensions>
      </trkpt>
      <trkpt lat="45.277094654738903045654296875" lon="-71.11291299574077129364013671875">
        <ele>802.20001220703125</ele>
        <time>2026-08-22T00:59:40.000Z</time>
        <extensions>
          <ns3:TrackPointExtension>
            <ns3:hr>146</ns3:hr>
            <ns3:cad>0</ns3:cad>
          </ns3:TrackPointExtension>
        </extensions>
      </trkpt>
      <trkpt lat="45.27708903886377811431884765625" lon="-71.1129112355411052703857421875">
        <ele>802.4000244140625</ele>
        <time>2026-08-22T00:59:41.000Z</time>
        <extensions>
          <ns3:TrackPointExtension>
            <ns3:hr>146</ns3:hr>
            <ns3:cad>0</ns3:cad>
          </ns3:TrackPointExtension>
        </extensions>
      </trkpt>
      <trkpt lat="45.2770814113318920135498046875" lon="-71.11291919834911823272705078125">
        <ele>802.5999755859375</ele>
        <time>2026-08-22T00:59:42.000Z</time>
        <extensions>
          <ns3:TrackPointExtension>
            <ns3:hr>145</ns3:hr>
            <ns3:cad>0</ns3:cad>
          </ns3:TrackPointExtension>
        </extensions>
      </trkpt>
      <trkpt lat="45.27707881294190883636474609375" lon="-71.11292623914778232574462890625">
        <ele>802.79998779296875</ele>
        <time>2026-08-22T00:59:43.000Z</time>
        <extensions>
          <ns3:TrackPointExtension>
            <ns3:hr>145</ns3:hr>
            <ns3:cad>0</ns3:cad>
          </ns3:TrackPointExtension>
        </extensions>
      </trkpt>
      <trkpt lat="45.2770721912384033203125" lon="-71.11293311230838298797607421875">
        <ele>803.20001220703125</ele>
        <time>2026-08-22T00:59:44.000Z</time>
        <extensions>
          <ns3:TrackPointExtension>
            <ns3:hr>145</ns3:hr>
            <ns3:cad>0</ns3:cad>
          </ns3:TrackPointExtension>
        </extensions>
      </trkpt>
      <trkpt lat="45.27706590481102466583251953125" lon="-71.112949959933757781982421875">
        <ele>803.4000244140625</ele>
        <time>2026-08-22T00:59:45.000Z</time>
        <extensions>
          <ns3:TrackPointExtension>
            <ns3:hr>144</ns3:hr>
            <ns3:cad>0</ns3:cad>
          </ns3:TrackPointExtension>
        </extensions>
      </trkpt>
      <trkpt lat="45.27706079185009002685546875" lon="-71.112964041531085968017578125">
        <ele>803.5999755859375</ele>
        <time>2026-08-22T00:59:46.000Z</time>
        <extensions>
          <ns3:TrackPointExtension>
            <ns3:hr>144</ns3:hr>
            <ns3:cad>0</ns3:cad>
          </ns3:TrackPointExtension>
        </extensions>
      </trkpt>
      <trkpt lat="45.277054421603679656982421875" lon="-71.11297317780554294586181640625">
        <ele>803.79998779296875</ele>
        <time>2026-08-22T00:59:47.000Z</time>
        <extensions>
          <ns3:TrackPointExtension>
            <ns3:hr>143</ns3:hr>
            <ns3:cad>0</ns3:cad>
          </ns3:TrackPointExtension>
        </extensions>
      </trkpt>
      <trkpt lat="45.27704495005309581756591796875" lon="-71.11298315227031707763671875">
        <ele>803.79998779296875</ele>
        <time>2026-08-22T00:59:48.000Z</time>
        <extensions>
          <ns3:TrackPointExtension>
            <ns3:hr>143</ns3:hr>
            <ns3:cad>0</ns3:cad>
          </ns3:TrackPointExtension>
        </extensions>
      </trkpt>
      <trkpt lat="45.27703925035893917083740234375" lon="-71.11299228854477405548095703125">
        <ele>804</ele>
        <time>2026-08-22T00:59:49.000Z</time>
        <extensions>
          <ns3:TrackPointExtension>
            <ns3:hr>143</ns3:hr>
            <ns3:cad>0</ns3:cad>
          </ns3:TrackPointExtension>
        </extensions>
      </trkpt>
      <trkpt lat="45.27703656814992427825927734375" lon="-71.1130027659237384796142578125">
        <ele>804.20001220703125</ele>
        <time>2026-08-22T00:59:50.000Z</time>
        <extensions>
          <ns3:TrackPointExtension>
            <ns3:hr>143</ns3:hr>
            <ns3:cad>44</ns3:cad>
          </ns3:TrackPointExtension>
        </extensions>
      </trkpt>
      <trkpt lat="45.27702868916094303131103515625" lon="-71.11301802098751068115234375">
        <ele>804.4000244140625</ele>
        <time>2026-08-22T00:59:51.000Z</time>
        <extensions>
          <ns3:TrackPointExtension>
            <ns3:hr>143</ns3:hr>
            <ns3:cad>44</ns3:cad>
          </ns3:TrackPointExtension>
        </extensions>
      </trkpt>
      <trkpt lat="45.27702500112354755401611328125" lon="-71.1130158416926860809326171875">
        <ele>804.5999755859375</ele>
        <time>2026-08-22T00:59:52.000Z</time>
        <extensions>
          <ns3:TrackPointExtension>
            <ns3:hr>142</ns3:hr>
            <ns3:cad>44</ns3:cad>
          </ns3:TrackPointExtension>
        </extensions>
      </trkpt>
      <trkpt lat="45.2770173735916614532470703125" lon="-71.11302472651004791259765625">
        <ele>805</ele>
        <time>2026-08-22T00:59:53.000Z</time>
        <extensions>
          <ns3:TrackPointExtension>
            <ns3:hr>142</ns3:hr>
            <ns3:cad>48</ns3:cad>
          </ns3:TrackPointExtension>
        </extensions>
      </trkpt>
      <trkpt lat="45.2770133502781391143798828125" lon="-71.113039813935756683349609375">
        <ele>805.20001220703125</ele>
        <time>2026-08-22T00:59:54.000Z</time>
        <extensions>
          <ns3:TrackPointExtension>
            <ns3:hr>142</ns3:hr>
            <ns3:cad>48</ns3:cad>
          </ns3:TrackPointExtension>
        </extensions>
      </trkpt>
      <trkpt lat="45.27700756676495075225830078125" lon="-71.11306361854076385498046875">
        <ele>805.5999755859375</ele>
        <time>2026-08-22T00:59:55.000Z</time>
        <extensions>
          <ns3:TrackPointExtension>
            <ns3:hr>142</ns3:hr>
            <ns3:cad>48</ns3:cad>
          </ns3:TrackPointExtension>
        </extensions>
      </trkpt>
      <trkpt lat="45.27700622566044330596923828125" lon="-71.113079376518726348876953125">
        <ele>805.79998779296875</ele>
        <time>2026-08-22T00:59:56.000Z</time>
        <extensions>
          <ns3:TrackPointExtension>
            <ns3:hr>142</ns3:hr>
            <ns3:cad>48</ns3:cad>
          </ns3:TrackPointExtension>
        </extensions>
      </trkpt>
      <trkpt lat="45.2770022861659526824951171875" lon="-71.11309940926730632781982421875">
        <ele>806</ele>
        <time>2026-08-22T00:59:57.000Z</time>
        <extensions>
          <ns3:TrackPointExtension>
            <ns3:hr>143</ns3:hr>
            <ns3:cad>48</ns3:cad>
          </ns3:TrackPointExtension>
        </extensions>
      </trkpt>
      <trkpt lat="45.277003459632396697998046875" lon="-71.1131165921688079833984375">
        <ele>806</ele>
        <time>2026-08-22T00:59:58.000Z</time>
        <extensions>
          <ns3:TrackPointExtension>
            <ns3:hr>144</ns3:hr>
            <ns3:cad>48</ns3:cad>
          </ns3:TrackPointExtension>
        </extensions>
      </trkpt>
      <trkpt lat="45.2770039625465869903564453125" lon="-71.11312807537615299224853515625">
        <ele>806.20001220703125</ele>
        <time>2026-08-22T00:59:59.000Z</time>
        <extensions>
          <ns3:TrackPointExtension>
            <ns3:hr>144</ns3:hr>
            <ns3:cad>48</ns3:cad>
          </ns3:TrackPointExtension>
        </extensions>
      </trkpt>
      <trkpt lat="45.276999771595001220703125" lon="-71.11314567737281322479248046875">
        <ele>806.20001220703125</ele>
        <time>2026-08-22T01:00:00.000Z</time>
        <extensions>
          <ns3:TrackPointExtension>
            <ns3:hr>144</ns3:hr>
            <ns3:cad>48</ns3:cad>
          </ns3:TrackPointExtension>
        </extensions>
      </trkpt>
      <trkpt lat="45.276998095214366912841796875" lon="-71.11315808258950710296630859375">
        <ele>806.4000244140625</ele>
        <time>2026-08-22T01:00:01.000Z</time>
        <extensions>
          <ns3:TrackPointExtension>
            <ns3:hr>144</ns3:hr>
            <ns3:cad>48</ns3:cad>
          </ns3:TrackPointExtension>
        </extensions>
      </trkpt>
      <trkpt lat="45.2769918926060199737548828125" lon="-71.113164536654949188232421875">
        <ele>806.4000244140625</ele>
        <time>2026-08-22T01:00:02.000Z</time>
        <extensions>
          <ns3:TrackPointExtension>
            <ns3:hr>144</ns3:hr>
            <ns3:cad>48</ns3:cad>
          </ns3:TrackPointExtension>
        </extensions>
      </trkpt>
      <trkpt lat="45.27698828838765621185302734375" lon="-71.1131653748452663421630859375">
        <ele>806.5999755859375</ele>
        <time>2026-08-22T01:00:03.000Z</time>
        <extensions>
          <ns3:TrackPointExtension>
            <ns3:hr>143</ns3:hr>
            <ns3:cad>48</ns3:cad>
          </ns3:TrackPointExtension>
        </extensions>
      </trkpt>
      <trkpt lat="45.2769811637699604034423828125" lon="-71.1131697334349155426025390625">
        <ele>806.79998779296875</ele>
        <time>2026-08-22T01:00:04.000Z</time>
        <extensions>
          <ns3:TrackPointExtension>
            <ns3:hr>144</ns3:hr>
            <ns3:cad>0</ns3:cad>
          </ns3:TrackPointExtension>
        </extensions>
      </trkpt>
      <trkpt lat="45.27697554789483547210693359375" lon="-71.113168895244598388671875">
        <ele>807</ele>
        <time>2026-08-22T01:00:05.000Z</time>
        <extensions>
          <ns3:TrackPointExtension>
            <ns3:hr>144</ns3:hr>
            <ns3:cad>0</ns3:cad>
          </ns3:TrackPointExtension>
        </extensions>
      </trkpt>
      <trkpt lat="45.27697403915226459503173828125" lon="-71.1131693981587886810302734375">
        <ele>807</ele>
        <time>2026-08-22T01:00:06.000Z</time>
        <extensions>
          <ns3:TrackPointExtension>
            <ns3:hr>143</ns3:hr>
            <ns3:cad>0</ns3:cad>
          </ns3:TrackPointExtension>
        </extensions>
      </trkpt>
      <trkpt lat="45.27696959674358367919921875" lon="-71.1131702363491058349609375">
        <ele>807.20001220703125</ele>
        <time>2026-08-22T01:00:07.000Z</time>
        <extensions>
          <ns3:TrackPointExtension>
            <ns3:hr>144</ns3:hr>
            <ns3:cad>0</ns3:cad>
          </ns3:TrackPointExtension>
        </extensions>
      </trkpt>
      <trkpt lat="45.276963226497173309326171875" lon="-71.11318188719451427459716796875">
        <ele>807.4000244140625</ele>
        <time>2026-08-22T01:00:08.000Z</time>
        <extensions>
          <ns3:TrackPointExtension>
            <ns3:hr>144</ns3:hr>
            <ns3:cad>0</ns3:cad>
          </ns3:TrackPointExtension>
        </extensions>
      </trkpt>
      <trkpt lat="45.2769576944410800933837890625" lon="-71.113188676536083221435546875">
        <ele>807.5999755859375</ele>
        <time>2026-08-22T01:00:09.000Z</time>
        <extensions>
          <ns3:TrackPointExtension>
            <ns3:hr>144</ns3:hr>
            <ns3:cad>47</ns3:cad>
          </ns3:TrackPointExtension>
        </extensions>
      </trkpt>
      <trkpt lat="45.276955179870128631591796875" lon="-71.113193370401859283447265625">
        <ele>807.79998779296875</ele>
        <time>2026-08-22T01:00:10.000Z</time>
        <extensions>
          <ns3:TrackPointExtension>
            <ns3:hr>143</ns3:hr>
            <ns3:cad>47</ns3:cad>
          </ns3:TrackPointExtension>
        </extensions>
      </trkpt>
      <trkpt lat="45.27695459313690662384033203125" lon="-71.11320418305695056915283203125">
        <ele>808</ele>
        <time>2026-08-22T01:00:11.000Z</time>
        <extensions>
          <ns3:TrackPointExtension>
            <ns3:hr>143</ns3:hr>
            <ns3:cad>0</ns3:cad>
          </ns3:TrackPointExtension>
        </extensions>
      </trkpt>
      <trkpt lat="45.2769447863101959228515625" lon="-71.11322228796780109405517578125">
        <ele>808.20001220703125</ele>
        <time>2026-08-22T01:00:12.000Z</time>
        <extensions>
          <ns3:TrackPointExtension>
            <ns3:hr>143</ns3:hr>
            <ns3:cad>0</ns3:cad>
          </ns3:TrackPointExtension>
        </extensions>
      </trkpt>
      <trkpt lat="45.276937745511531829833984375" lon="-71.113238967955112457275390625">
        <ele>808.4000244140625</ele>
        <time>2026-08-22T01:00:13.000Z</time>
        <extensions>
          <ns3:TrackPointExtension>
            <ns3:hr>142</ns3:hr>
            <ns3:cad>0</ns3:cad>
          </ns3:TrackPointExtension>
        </extensions>
      </trkpt>
      <trkpt lat="45.276932381093502044677734375" lon="-71.113257743418216705322265625">
        <ele>808.5999755859375</ele>
        <time>2026-08-22T01:00:14.000Z</time>
        <extensions>
          <ns3:TrackPointExtension>
            <ns3:hr>142</ns3:hr>
            <ns3:cad>0</ns3:cad>
          </ns3:TrackPointExtension>
        </extensions>
      </trkpt>
      <trkpt lat="45.27692995034158229827880859375" lon="-71.11327492631971836090087890625">
        <ele>808.79998779296875</ele>
        <time>2026-08-22T01:00:15.000Z</time>
        <extensions>
          <ns3:TrackPointExtension>
            <ns3:hr>142</ns3:hr>
            <ns3:cad>0</ns3:cad>
          </ns3:TrackPointExtension>
        </extensions>
      </trkpt>
      <trkpt lat="45.27692894451320171356201171875" lon="-71.11329554580152034759521484375">
        <ele>809</ele>
        <time>2026-08-22T01:00:16.000Z</time>
        <extensions>
          <ns3:TrackPointExtension>
            <ns3:hr>142</ns3:hr>
            <ns3:cad>0</ns3:cad>
          </ns3:TrackPointExtension>
        </extensions>
      </trkpt>
      <trkpt lat="45.276929028332233428955078125" lon="-71.11331046558916568756103515625">
        <ele>809.20001220703125</ele>
        <time>2026-08-22T01:00:17.000Z</time>
        <extensions>
          <ns3:TrackPointExtension>
            <ns3:hr>143</ns3:hr>
            <ns3:cad>0</ns3:cad>
          </ns3:TrackPointExtension>
        </extensions>
      </trkpt>
      <trkpt lat="45.27692894451320171356201171875" lon="-71.1133231222629547119140625">
        <ele>809.20001220703125</ele>
        <time>2026-08-22T01:00:18.000Z</time>
        <extensions>
          <ns3:TrackPointExtension>
            <ns3:hr>143</ns3:hr>
            <ns3:cad>0</ns3:cad>
          </ns3:TrackPointExtension>
        </extensions>
      </trkpt>
      <trkpt lat="45.27692525647580623626708984375" lon="-71.11333158798515796661376953125">
        <ele>809.20001220703125</ele>
        <time>2026-08-22T01:00:19.000Z</time>
        <extensions>
          <ns3:TrackPointExtension>
            <ns3:hr>143</ns3:hr>
            <ns3:cad>43</ns3:cad>
          </ns3:TrackPointExtension>
        </extensions>
      </trkpt>
      <trkpt lat="45.276915617287158966064453125" lon="-71.1133387126028537750244140625">
        <ele>809.4000244140625</ele>
        <time>2026-08-22T01:00:20.000Z</time>
        <extensions>
          <ns3:TrackPointExtension>
            <ns3:hr>143</ns3:hr>
            <ns3:cad>43</ns3:cad>
          </ns3:TrackPointExtension>
        </extensions>
      </trkpt>
      <trkpt lat="45.276910923421382904052734375" lon="-71.113345585763454437255859375">
        <ele>809.4000244140625</ele>
        <time>2026-08-22T01:00:21.000Z</time>
        <extensions>
          <ns3:TrackPointExtension>
            <ns3:hr>143</ns3:hr>
            <ns3:cad>43</ns3:cad>
          </ns3:TrackPointExtension>
        </extensions>
      </trkpt>
      <trkpt lat="45.27691335417330265045166015625" lon="-71.11335908062756061553955078125">
        <ele>809.5999755859375</ele>
        <time>2026-08-22T01:00:22.000Z</time>
        <extensions>
          <ns3:TrackPointExtension>
            <ns3:hr>144</ns3:hr>
            <ns3:cad>43</ns3:cad>
          </ns3:TrackPointExtension>
        </extensions>
      </trkpt>
      <trkpt lat="45.27691067196428775787353515625" lon="-71.1133682169020175933837890625">
        <ele>809.79998779296875</ele>
        <time>2026-08-22T01:00:23.000Z</time>
        <extensions>
          <ns3:TrackPointExtension>
            <ns3:hr>144</ns3:hr>
            <ns3:cad>0</ns3:cad>
          </ns3:TrackPointExtension>
        </extensions>
      </trkpt>
      <trkpt lat="45.27690329588949680328369140625" lon="-71.113379783928394317626953125">
        <ele>810</ele>
        <time>2026-08-22T01:00:24.000Z</time>
        <extensions>
          <ns3:TrackPointExtension>
            <ns3:hr>144</ns3:hr>
            <ns3:cad>0</ns3:cad>
          </ns3:TrackPointExtension>
        </extensions>
      </trkpt>
      <trkpt lat="45.27689315378665924072265625" lon="-71.11339763738214969635009765625">
        <ele>810.20001220703125</ele>
        <time>2026-08-22T01:00:25.000Z</time>
        <extensions>
          <ns3:TrackPointExtension>
            <ns3:hr>144</ns3:hr>
            <ns3:cad>0</ns3:cad>
          </ns3:TrackPointExtension>
        </extensions>
      </trkpt>
      <trkpt lat="45.27688644826412200927734375" lon="-71.11340166069567203521728515625">
        <ele>810.5999755859375</ele>
        <time>2026-08-22T01:00:26.000Z</time>
        <extensions>
          <ns3:TrackPointExtension>
            <ns3:hr>144</ns3:hr>
            <ns3:cad>0</ns3:cad>
          </ns3:TrackPointExtension>
        </extensions>
      </trkpt>
      <trkpt lat="45.2768822573125362396240234375" lon="-71.113409288227558135986328125">
        <ele>810.79998779296875</ele>
        <time>2026-08-22T01:00:27.000Z</time>
        <extensions>
          <ns3:TrackPointExtension>
            <ns3:hr>144</ns3:hr>
            <ns3:cad>0</ns3:cad>
          </ns3:TrackPointExtension>
        </extensions>
      </trkpt>
      <trkpt lat="45.2768805809319019317626953125" lon="-71.11342110671103000640869140625">
        <ele>811</ele>
        <time>2026-08-22T01:00:28.000Z</time>
        <extensions>
          <ns3:TrackPointExtension>
            <ns3:hr>143</ns3:hr>
            <ns3:cad>0</ns3:cad>
          </ns3:TrackPointExtension>
        </extensions>
      </trkpt>
      <trkpt lat="45.2768839336931705474853515625" lon="-71.11343510448932647705078125">
        <ele>811.20001220703125</ele>
        <time>2026-08-22T01:00:29.000Z</time>
        <extensions>
          <ns3:TrackPointExtension>
            <ns3:hr>143</ns3:hr>
            <ns3:cad>0</ns3:cad>
          </ns3:TrackPointExtension>
        </extensions>
      </trkpt>
      <trkpt lat="45.27688183821737766265869140625" lon="-71.11344390548765659332275390625">
        <ele>811.4000244140625</ele>
        <time>2026-08-22T01:00:30.000Z</time>
        <extensions>
          <ns3:TrackPointExtension>
            <ns3:hr>143</ns3:hr>
            <ns3:cad>0</ns3:cad>
          </ns3:TrackPointExtension>
        </extensions>
      </trkpt>
      <trkpt lat="45.27687932364642620086669921875" lon="-71.1134517006576061248779296875">
        <ele>811.4000244140625</ele>
        <time>2026-08-22T01:00:31.000Z</time>
        <extensions>
          <ns3:TrackPointExtension>
            <ns3:hr>143</ns3:hr>
            <ns3:cad>0</ns3:cad>
          </ns3:TrackPointExtension>
        </extensions>
      </trkpt>
      <trkpt lat="45.27687613852322101593017578125" lon="-71.11345656216144561767578125">
        <ele>811.5999755859375</ele>
        <time>2026-08-22T01:00:32.000Z</time>
        <extensions>
          <ns3:TrackPointExtension>
            <ns3:hr>143</ns3:hr>
            <ns3:cad>0</ns3:cad>
          </ns3:TrackPointExtension>
        </extensions>
      </trkpt>
      <trkpt lat="45.27687580324709415435791015625" lon="-71.11346594989299774169921875">
        <ele>811.79998779296875</ele>
        <time>2026-08-22T01:00:33.000Z</time>
        <extensions>
          <ns3:TrackPointExtension>
            <ns3:hr>143</ns3:hr>
            <ns3:cad>57</ns3:cad>
          </ns3:TrackPointExtension>
        </extensions>
      </trkpt>
      <trkpt lat="45.27687395922839641571044921875" lon="-71.11347609199583530426025390625">
        <ele>812</ele>
        <time>2026-08-22T01:00:34.000Z</time>
        <extensions>
          <ns3:TrackPointExtension>
            <ns3:hr>142</ns3:hr>
            <ns3:cad>57</ns3:cad>
          </ns3:TrackPointExtension>
        </extensions>
      </trkpt>
      <trkpt lat="45.27687043882906436920166015625" lon="-71.11348246224224567413330078125">
        <ele>812.20001220703125</ele>
        <time>2026-08-22T01:00:35.000Z</time>
        <extensions>
          <ns3:TrackPointExtension>
            <ns3:hr>142</ns3:hr>
            <ns3:cad>57</ns3:cad>
          </ns3:TrackPointExtension>
        </extensions>
      </trkpt>
      <trkpt lat="45.27686901390552520751953125" lon="-71.11348749138414859771728515625">
        <ele>812.4000244140625</ele>
        <time>2026-08-22T01:00:36.000Z</time>
        <extensions>
          <ns3:TrackPointExtension>
            <ns3:hr>142</ns3:hr>
            <ns3:cad>57</ns3:cad>
          </ns3:TrackPointExtension>
        </extensions>
      </trkpt>
      <trkpt lat="45.27686222456395626068115234375" lon="-71.1134872399270534515380859375">
        <ele>812.5999755859375</ele>
        <time>2026-08-22T01:00:37.000Z</time>
        <extensions>
          <ns3:TrackPointExtension>
            <ns3:hr>143</ns3:hr>
            <ns3:cad>57</ns3:cad>
          </ns3:TrackPointExtension>
        </extensions>
      </trkpt>
      <trkpt lat="45.2768574468791484832763671875" lon="-71.11349235288798809051513671875">
        <ele>812.79998779296875</ele>
        <time>2026-08-22T01:00:38.000Z</time>
        <extensions>
          <ns3:TrackPointExtension>
            <ns3:hr>143</ns3:hr>
            <ns3:cad>57</ns3:cad>
          </ns3:TrackPointExtension>
        </extensions>
      </trkpt>
      <trkpt lat="45.27685602195560932159423828125" lon="-71.1134949512779712677001953125">
        <ele>813</ele>
        <time>2026-08-22T01:00:39.000Z</time>
        <extensions>
          <ns3:TrackPointExtension>
            <ns3:hr>143</ns3:hr>
            <ns3:cad>57</ns3:cad>
          </ns3:TrackPointExtension>
        </extensions>
      </trkpt>
      <trkpt lat="45.2768494002521038055419921875" lon="-71.11350509338080883026123046875">
        <ele>813.20001220703125</ele>
        <time>2026-08-22T01:00:40.000Z</time>
        <extensions>
          <ns3:TrackPointExtension>
            <ns3:hr>143</ns3:hr>
            <ns3:cad>0</ns3:cad>
          </ns3:TrackPointExtension>
        </extensions>
      </trkpt>
      <trkpt lat="45.27685132808983325958251953125" lon="-71.11351699568331241607666015625">
        <ele>813.5999755859375</ele>
        <time>2026-08-22T01:00:41.000Z</time>
        <extensions>
          <ns3:TrackPointExtension>
            <ns3:hr>142</ns3:hr>
            <ns3:cad>0</ns3:cad>
          </ns3:TrackPointExtension>
        </extensions>
      </trkpt>
      <trkpt lat="45.276851244270801544189453125" lon="-71.1135221086442470550537109375">
        <ele>813.79998779296875</ele>
        <time>2026-08-22T01:00:42.000Z</time>
        <extensions>
          <ns3:TrackPointExtension>
            <ns3:hr>142</ns3:hr>
            <ns3:cad>0</ns3:cad>
          </ns3:TrackPointExtension>
        </extensions>
      </trkpt>
      <trkpt lat="45.2768460474908351898193359375" lon="-71.1135321669280529022216796875">
        <ele>814</ele>
        <time>2026-08-22T01:00:43.000Z</time>
        <extensions>
          <ns3:TrackPointExtension>
            <ns3:hr>143</ns3:hr>
            <ns3:cad>0</ns3:cad>
          </ns3:TrackPointExtension>
        </extensions>
      </trkpt>
      <trkpt lat="45.2768393419682979583740234375" lon="-71.11354582943022251129150390625">
        <ele>814.20001220703125</ele>
        <time>2026-08-22T01:00:44.000Z</time>
        <extensions>
          <ns3:TrackPointExtension>
            <ns3:hr>143</ns3:hr>
            <ns3:cad>0</ns3:cad>
          </ns3:TrackPointExtension>
        </extensions>
      </trkpt>
      <trkpt lat="45.276831127703189849853515625" lon="-71.1135569773614406585693359375">
        <ele>814.20001220703125</ele>
        <time>2026-08-22T01:00:45.000Z</time>
        <extensions>
          <ns3:TrackPointExtension>
            <ns3:hr>143</ns3:hr>
            <ns3:cad>68</ns3:cad>
          </ns3:TrackPointExtension>
        </extensions>
      </trkpt>
      <trkpt lat="45.27682852931320667266845703125" lon="-71.1135720647871494293212890625">
        <ele>814.4000244140625</ele>
        <time>2026-08-22T01:00:46.000Z</time>
        <extensions>
          <ns3:TrackPointExtension>
            <ns3:hr>144</ns3:hr>
            <ns3:cad>68</ns3:cad>
          </ns3:TrackPointExtension>
        </extensions>
      </trkpt>
      <trkpt lat="45.27682014741003513336181640625" lon="-71.113584302365779876708984375">
        <ele>814.5999755859375</ele>
        <time>2026-08-22T01:00:47.000Z</time>
        <extensions>
          <ns3:TrackPointExtension>
            <ns3:hr>143</ns3:hr>
            <ns3:cad>68</ns3:cad>
          </ns3:TrackPointExtension>
        </extensions>
      </trkpt>
      <trkpt lat="45.27681411243975162506103515625" lon="-71.11359243281185626983642578125">
        <ele>814.5999755859375</ele>
        <time>2026-08-22T01:00:48.000Z</time>
        <extensions>
          <ns3:TrackPointExtension>
            <ns3:hr>143</ns3:hr>
            <ns3:cad>68</ns3:cad>
          </ns3:TrackPointExtension>
        </extensions>
      </trkpt>
      <trkpt lat="45.27681226842105388641357421875" lon="-71.11359477974474430084228515625">
        <ele>814.79998779296875</ele>
        <time>2026-08-22T01:00:49.000Z</time>
        <extensions>
          <ns3:TrackPointExtension>
            <ns3:hr>143</ns3:hr>
            <ns3:cad>68</ns3:cad>
          </ns3:TrackPointExtension>
        </extensions>
      </trkpt>
      <trkpt lat="45.27680321596562862396240234375" lon="-71.1136012338101863861083984375">
        <ele>815.20001220703125</ele>
        <time>2026-08-22T01:00:50.000Z</time>
        <extensions>
          <ns3:TrackPointExtension>
            <ns3:hr>144</ns3:hr>
            <ns3:cad>68</ns3:cad>
          </ns3:TrackPointExtension>
        </extensions>
      </trkpt>
      <trkpt lat="45.27679550461471080780029296875" lon="-71.1136065982282161712646484375">
        <ele>815.4000244140625</ele>
        <time>2026-08-22T01:00:51.000Z</time>
        <extensions>
          <ns3:TrackPointExtension>
            <ns3:hr>144</ns3:hr>
            <ns3:cad>68</ns3:cad>
          </ns3:TrackPointExtension>
        </extensions>
      </trkpt>
      <trkpt lat="45.27679081074893474578857421875" lon="-71.11361347138881683349609375">
        <ele>815.5999755859375</ele>
        <time>2026-08-22T01:00:52.000Z</time>
        <extensions>
          <ns3:TrackPointExtension>
            <ns3:hr>144</ns3:hr>
            <ns3:cad>0</ns3:cad>
          </ns3:TrackPointExtension>
        </extensions>
      </trkpt>
      <trkpt lat="45.27678678743541240692138671875" lon="-71.113623194396495819091796875">
        <ele>816</ele>
        <time>2026-08-22T01:00:53.000Z</time>
        <extensions>
          <ns3:TrackPointExtension>
            <ns3:hr>144</ns3:hr>
            <ns3:cad>0</ns3:cad>
          </ns3:TrackPointExtension>
        </extensions>
      </trkpt>
      <trkpt lat="45.2767860330641269683837890625" lon="-71.113636605441570281982421875">
        <ele>816.20001220703125</ele>
        <time>2026-08-22T01:00:54.000Z</time>
        <extensions>
          <ns3:TrackPointExtension>
            <ns3:hr>144</ns3:hr>
            <ns3:cad>0</ns3:cad>
          </ns3:TrackPointExtension>
        </extensions>
      </trkpt>
      <trkpt lat="45.2767870388925075531005859375" lon="-71.113648675382137298583984375">
        <ele>816.4000244140625</ele>
        <time>2026-08-22T01:00:55.000Z</time>
        <extensions>
          <ns3:TrackPointExtension>
            <ns3:hr>144</ns3:hr>
            <ns3:cad>0</ns3:cad>
          </ns3:TrackPointExtension>
        </extensions>
      </trkpt>
      <trkpt lat="45.276780836284160614013671875" lon="-71.11366200260818004608154296875">
        <ele>816.4000244140625</ele>
        <time>2026-08-22T01:00:56.000Z</time>
        <extensions>
          <ns3:TrackPointExtension>
            <ns3:hr>144</ns3:hr>
            <ns3:cad>0</ns3:cad>
          </ns3:TrackPointExtension>
        </extensions>
      </trkpt>
      <trkpt lat="45.2767739631235599517822265625" lon="-71.1136706359684467315673828125">
        <ele>816.4000244140625</ele>
        <time>2026-08-22T01:00:57.000Z</time>
        <extensions>
          <ns3:TrackPointExtension>
            <ns3:hr>144</ns3:hr>
            <ns3:cad>0</ns3:cad>
          </ns3:TrackPointExtension>
        </extensions>
      </trkpt>
      <trkpt lat="45.27676717378199100494384765625" lon="-71.11368094570934772491455078125">
        <ele>816.5999755859375</ele>
        <time>2026-08-22T01:00:58.000Z</time>
        <extensions>
          <ns3:TrackPointExtension>
            <ns3:hr>144</ns3:hr>
            <ns3:cad>0</ns3:cad>
          </ns3:TrackPointExtension>
        </extensions>
      </trkpt>
      <trkpt lat="45.27676440775394439697265625" lon="-71.11369402147829532623291015625">
        <ele>816.5999755859375</ele>
        <time>2026-08-22T01:00:59.000Z</time>
        <extensions>
          <ns3:TrackPointExtension>
            <ns3:hr>144</ns3:hr>
            <ns3:cad>0</ns3:cad>
          </ns3:TrackPointExtension>
        </extensions>
      </trkpt>
      <trkpt lat="45.27675761841237545013427734375" lon="-71.11371003091335296630859375">
        <ele>816.79998779296875</ele>
        <time>2026-08-22T01:01:00.000Z</time>
        <extensions>
          <ns3:TrackPointExtension>
            <ns3:hr>144</ns3:hr>
            <ns3:cad>0</ns3:cad>
          </ns3:TrackPointExtension>
        </extensions>
      </trkpt>
      <trkpt lat="45.27675208635628223419189453125" lon="-71.11372671090066432952880859375">
        <ele>816.79998779296875</ele>
        <time>2026-08-22T01:01:01.000Z</time>
        <extensions>
          <ns3:TrackPointExtension>
            <ns3:hr>144</ns3:hr>
            <ns3:cad>0</ns3:cad>
          </ns3:TrackPointExtension>
        </extensions>
      </trkpt>
      <trkpt lat="45.27675091288983821868896484375" lon="-71.113747246563434600830078125">
        <ele>817</ele>
        <time>2026-08-22T01:01:02.000Z</time>
        <extensions>
          <ns3:TrackPointExtension>
            <ns3:hr>143</ns3:hr>
            <ns3:cad>0</ns3:cad>
          </ns3:TrackPointExtension>
        </extensions>
      </trkpt>
      <trkpt lat="45.27674906887114048004150390625" lon="-71.1137702129781246185302734375">
        <ele>816.79998779296875</ele>
        <time>2026-08-22T01:01:03.000Z</time>
        <extensions>
          <ns3:TrackPointExtension>
            <ns3:hr>144</ns3:hr>
            <ns3:cad>0</ns3:cad>
          </ns3:TrackPointExtension>
        </extensions>
      </trkpt>
      <trkpt lat="45.27674169279634952545166015625" lon="-71.11380063928663730621337890625">
        <ele>816.79998779296875</ele>
        <time>2026-08-22T01:01:04.000Z</time>
        <extensions>
          <ns3:TrackPointExtension>
            <ns3:hr>144</ns3:hr>
            <ns3:cad>0</ns3:cad>
          </ns3:TrackPointExtension>
        </extensions>
      </trkpt>
      <trkpt lat="45.2767367474734783172607421875" lon="-71.11381731927394866943359375">
        <ele>816.79998779296875</ele>
        <time>2026-08-22T01:01:05.000Z</time>
        <extensions>
          <ns3:TrackPointExtension>
            <ns3:hr>144</ns3:hr>
            <ns3:cad>0</ns3:cad>
          </ns3:TrackPointExtension>
        </extensions>
      </trkpt>
      <trkpt lat="45.27672660537064075469970703125" lon="-71.11383416689932346343994140625">
        <ele>816.79998779296875</ele>
        <time>2026-08-22T01:01:06.000Z</time>
        <extensions>
          <ns3:TrackPointExtension>
            <ns3:hr>144</ns3:hr>
            <ns3:cad>0</ns3:cad>
          </ns3:TrackPointExtension>
        </extensions>
      </trkpt>
      <trkpt lat="45.27672090567648410797119140625" lon="-71.11384405754506587982177734375">
        <ele>816.79998779296875</ele>
        <time>2026-08-22T01:01:07.000Z</time>
        <extensions>
          <ns3:TrackPointExtension>
            <ns3:hr>144</ns3:hr>
            <ns3:cad>0</ns3:cad>
          </ns3:TrackPointExtension>
        </extensions>
      </trkpt>
      <trkpt lat="45.27671604417264461517333984375" lon="-71.11385478638112545013427734375">
        <ele>816.79998779296875</ele>
        <time>2026-08-22T01:01:08.000Z</time>
        <extensions>
          <ns3:TrackPointExtension>
            <ns3:hr>143</ns3:hr>
            <ns3:cad>0</ns3:cad>
          </ns3:TrackPointExtension>
        </extensions>
      </trkpt>
      <trkpt lat="45.27671688236296176910400390625" lon="-71.11387498676776885986328125">
        <ele>817</ele>
        <time>2026-08-22T01:01:09.000Z</time>
        <extensions>
          <ns3:TrackPointExtension>
            <ns3:hr>143</ns3:hr>
            <ns3:cad>0</ns3:cad>
          </ns3:TrackPointExtension>
        </extensions>
      </trkpt>
      <trkpt lat="45.27671688236296176910400390625" lon="-71.11389485187828540802001953125">
        <ele>817</ele>
        <time>2026-08-22T01:01:10.000Z</time>
        <extensions>
          <ns3:TrackPointExtension>
            <ns3:hr>144</ns3:hr>
            <ns3:cad>0</ns3:cad>
          </ns3:TrackPointExtension>
        </extensions>
      </trkpt>
      <trkpt lat="45.27671436779201030731201171875" lon="-71.113914884626865386962890625">
        <ele>817.20001220703125</ele>
        <time>2026-08-22T01:01:11.000Z</time>
        <extensions>
          <ns3:TrackPointExtension>
            <ns3:hr>144</ns3:hr>
            <ns3:cad>0</ns3:cad>
          </ns3:TrackPointExtension>
        </extensions>
      </trkpt>
      <trkpt lat="45.27671151794493198394775390625" lon="-71.11393424682319164276123046875">
        <ele>817.20001220703125</ele>
        <time>2026-08-22T01:01:12.000Z</time>
        <extensions>
          <ns3:TrackPointExtension>
            <ns3:hr>144</ns3:hr>
            <ns3:cad>0</ns3:cad>
          </ns3:TrackPointExtension>
        </extensions>
      </trkpt>
      <trkpt lat="45.27670632116496562957763671875" lon="-71.1139492504298686981201171875">
        <ele>817.20001220703125</ele>
        <time>2026-08-22T01:01:13.000Z</time>
        <extensions>
          <ns3:TrackPointExtension>
            <ns3:hr>144</ns3:hr>
            <ns3:cad>0</ns3:cad>
          </ns3:TrackPointExtension>
        </extensions>
      </trkpt>
      <trkpt lat="45.27670514769852161407470703125" lon="-71.113969199359416961669921875">
        <ele>817.20001220703125</ele>
        <time>2026-08-22T01:01:14.000Z</time>
        <extensions>
          <ns3:TrackPointExtension>
            <ns3:hr>144</ns3:hr>
            <ns3:cad>0</ns3:cad>
          </ns3:TrackPointExtension>
        </extensions>
      </trkpt>
      <trkpt lat="45.27670665644109249114990234375" lon="-71.1139780841767787933349609375">
        <ele>817.20001220703125</ele>
        <time>2026-08-22T01:01:15.000Z</time>
        <extensions>
          <ns3:TrackPointExtension>
            <ns3:hr>143</ns3:hr>
            <ns3:cad>0</ns3:cad>
          </ns3:TrackPointExtension>
        </extensions>
      </trkpt>
      <trkpt lat="45.2767069078981876373291015625" lon="-71.11399275250732898712158203125">
        <ele>817.20001220703125</ele>
        <time>2026-08-22T01:01:16.000Z</time>
        <extensions>
          <ns3:TrackPointExtension>
            <ns3:hr>142</ns3:hr>
            <ns3:cad>0</ns3:cad>
          </ns3:TrackPointExtension>
        </extensions>
      </trkpt>
      <trkpt lat="45.27670196257531642913818359375" lon="-71.11401136033236980438232421875">
        <ele>817.4000244140625</ele>
        <time>2026-08-22T01:01:17.000Z</time>
        <extensions>
          <ns3:TrackPointExtension>
            <ns3:hr>142</ns3:hr>
            <ns3:cad>0</ns3:cad>
          </ns3:TrackPointExtension>
        </extensions>
      </trkpt>
      <trkpt lat="45.2766998670995235443115234375" lon="-71.11402845941483974456787109375">
        <ele>817.4000244140625</ele>
        <time>2026-08-22T01:01:18.000Z</time>
        <extensions>
          <ns3:TrackPointExtension>
            <ns3:hr>142</ns3:hr>
            <ns3:cad>0</ns3:cad>
          </ns3:TrackPointExtension>
        </extensions>
      </trkpt>
      <trkpt lat="45.27669525705277919769287109375" lon="-71.1140406131744384765625">
        <ele>817.5999755859375</ele>
        <time>2026-08-22T01:01:19.000Z</time>
        <extensions>
          <ns3:TrackPointExtension>
            <ns3:hr>142</ns3:hr>
            <ns3:cad>0</ns3:cad>
          </ns3:TrackPointExtension>
        </extensions>
      </trkpt>
      <trkpt lat="45.27669358067214488983154296875" lon="-71.11405444331467151641845703125">
        <ele>817.79998779296875</ele>
        <time>2026-08-22T01:01:20.000Z</time>
        <extensions>
          <ns3:TrackPointExtension>
            <ns3:hr>142</ns3:hr>
            <ns3:cad>0</ns3:cad>
          </ns3:TrackPointExtension>
        </extensions>
      </trkpt>
      <trkpt lat="45.2766872942447662353515625" lon="-71.1140699498355388641357421875">
        <ele>817.79998779296875</ele>
        <time>2026-08-22T01:01:21.000Z</time>
        <extensions>
          <ns3:TrackPointExtension>
            <ns3:hr>142</ns3:hr>
            <ns3:cad>0</ns3:cad>
          </ns3:TrackPointExtension>
        </extensions>
      </trkpt>
      <trkpt lat="45.276684276759624481201171875" lon="-71.1140860430896282196044921875">
        <ele>817.79998779296875</ele>
        <time>2026-08-22T01:01:22.000Z</time>
        <extensions>
          <ns3:TrackPointExtension>
            <ns3:hr>142</ns3:hr>
            <ns3:cad>0</ns3:cad>
          </ns3:TrackPointExtension>
        </extensions>
      </trkpt>
      <trkpt lat="45.27668268419802188873291015625" lon="-71.11410104669630527496337890625">
        <ele>818</ele>
        <time>2026-08-22T01:01:23.000Z</time>
        <extensions>
          <ns3:TrackPointExtension>
            <ns3:hr>141</ns3:hr>
            <ns3:cad>0</ns3:cad>
          </ns3:TrackPointExtension>
        </extensions>
      </trkpt>
      <trkpt lat="45.27667631395161151885986328125" lon="-71.114114709198474884033203125">
        <ele>818</ele>
        <time>2026-08-22T01:01:24.000Z</time>
        <extensions>
          <ns3:TrackPointExtension>
            <ns3:hr>142</ns3:hr>
            <ns3:cad>0</ns3:cad>
          </ns3:TrackPointExtension>
        </extensions>
      </trkpt>
      <trkpt lat="45.27667631395161151885986328125" lon="-71.114120744168758392333984375">
        <ele>818.20001220703125</ele>
        <time>2026-08-22T01:01:25.000Z</time>
        <extensions>
          <ns3:TrackPointExtension>
            <ns3:hr>141</ns3:hr>
            <ns3:cad>0</ns3:cad>
          </ns3:TrackPointExtension>
        </extensions>
      </trkpt>
      <trkpt lat="45.276668854057788848876953125" lon="-71.11411814577877521514892578125">
        <ele>818.4000244140625</ele>
        <time>2026-08-22T01:01:26.000Z</time>
        <extensions>
          <ns3:TrackPointExtension>
            <ns3:hr>140</ns3:hr>
            <ns3:cad>0</ns3:cad>
          </ns3:TrackPointExtension>
        </extensions>
      </trkpt>
      <trkpt lat="45.27666323818266391754150390625" lon="-71.11411102116107940673828125">
        <ele>818.5999755859375</ele>
        <time>2026-08-22T01:01:27.000Z</time>
        <extensions>
          <ns3:TrackPointExtension>
            <ns3:hr>139</ns3:hr>
            <ns3:cad>0</ns3:cad>
          </ns3:TrackPointExtension>
        </extensions>
      </trkpt>
      <trkpt lat="45.27665309607982635498046875" lon="-71.11410540528595447540283203125">
        <ele>818.79998779296875</ele>
        <time>2026-08-22T01:01:28.000Z</time>
        <extensions>
          <ns3:TrackPointExtension>
            <ns3:hr>139</ns3:hr>
            <ns3:cad>0</ns3:cad>
          </ns3:TrackPointExtension>
        </extensions>
      </trkpt>
      <trkpt lat="45.2766472287476062774658203125" lon="-71.11410071142017841339111328125">
        <ele>819</ele>
        <time>2026-08-22T01:01:29.000Z</time>
        <extensions>
          <ns3:TrackPointExtension>
            <ns3:hr>138</ns3:hr>
            <ns3:cad>0</ns3:cad>
          </ns3:TrackPointExtension>
        </extensions>
      </trkpt>
      <trkpt lat="45.2766475640237331390380859375" lon="-71.1140957660973072052001953125">
        <ele>819.4000244140625</ele>
        <time>2026-08-22T01:01:30.000Z</time>
        <extensions>
          <ns3:TrackPointExtension>
            <ns3:hr>137</ns3:hr>
            <ns3:cad>0</ns3:cad>
          </ns3:TrackPointExtension>
        </extensions>
      </trkpt>
      <trkpt lat="45.2766398526728153228759765625" lon="-71.114091239869594573974609375">
        <ele>819.5999755859375</ele>
        <time>2026-08-22T01:01:31.000Z</time>
        <extensions>
          <ns3:TrackPointExtension>
            <ns3:hr>137</ns3:hr>
            <ns3:cad>0</ns3:cad>
          </ns3:TrackPointExtension>
        </extensions>
      </trkpt>
      <trkpt lat="45.276640020310878753662109375" lon="-71.1140927486121654510498046875">
        <ele>819.79998779296875</ele>
        <time>2026-08-22T01:01:32.000Z</time>
        <extensions>
          <ns3:TrackPointExtension>
            <ns3:hr>137</ns3:hr>
            <ns3:cad>0</ns3:cad>
          </ns3:TrackPointExtension>
        </extensions>
      </trkpt>
      <trkpt lat="45.2766425348818302154541015625" lon="-71.1140950955450534820556640625">
        <ele>820.20001220703125</ele>
        <time>2026-08-22T01:01:33.000Z</time>
        <extensions>
          <ns3:TrackPointExtension>
            <ns3:hr>137</ns3:hr>
            <ns3:cad>0</ns3:cad>
          </ns3:TrackPointExtension>
        </extensions>
      </trkpt>
      <trkpt lat="45.27663608081638813018798828125" lon="-71.11408612690865993499755859375">
        <ele>820.20001220703125</ele>
        <time>2026-08-22T01:01:34.000Z</time>
        <extensions>
          <ns3:TrackPointExtension>
            <ns3:hr>137</ns3:hr>
            <ns3:cad>0</ns3:cad>
          </ns3:TrackPointExtension>
        </extensions>
      </trkpt>
      <trkpt lat="45.2766301296651363372802734375" lon="-71.1140793375670909881591796875">
        <ele>820.4000244140625</ele>
        <time>2026-08-22T01:01:35.000Z</time>
        <extensions>
          <ns3:TrackPointExtension>
            <ns3:hr>137</ns3:hr>
            <ns3:cad>0</ns3:cad>
          </ns3:TrackPointExtension>
        </extensions>
      </trkpt>
      <trkpt lat="45.276619233191013336181640625" lon="-71.114072464406490325927734375">
        <ele>820.5999755859375</ele>
        <time>2026-08-22T01:01:36.000Z</time>
        <extensions>
          <ns3:TrackPointExtension>
            <ns3:hr>137</ns3:hr>
            <ns3:cad>0</ns3:cad>
          </ns3:TrackPointExtension>
        </extensions>
      </trkpt>
      <trkpt lat="45.27660121209919452667236328125" lon="-71.11406953074038028717041015625">
        <ele>820.79998779296875</ele>
        <time>2026-08-22T01:01:37.000Z</time>
        <extensions>
          <ns3:TrackPointExtension>
            <ns3:hr>137</ns3:hr>
            <ns3:cad>0</ns3:cad>
          </ns3:TrackPointExtension>
        </extensions>
      </trkpt>
      <trkpt lat="45.27658863924443721771240234375" lon="-71.11407238058745861053466796875">
        <ele>820.79998779296875</ele>
        <time>2026-08-22T01:01:38.000Z</time>
        <extensions>
          <ns3:TrackPointExtension>
            <ns3:hr>136</ns3:hr>
            <ns3:cad>0</ns3:cad>
          </ns3:TrackPointExtension>
        </extensions>
      </trkpt>
      <trkpt lat="45.27658201754093170166015625" lon="-71.11408109776675701141357421875">
        <ele>821</ele>
        <time>2026-08-22T01:01:39.000Z</time>
        <extensions>
          <ns3:TrackPointExtension>
            <ns3:hr>136</ns3:hr>
            <ns3:cad>0</ns3:cad>
          </ns3:TrackPointExtension>
        </extensions>
      </trkpt>
      <trkpt lat="45.27657128870487213134765625" lon="-71.1140820197761058807373046875">
        <ele>821.20001220703125</ele>
        <time>2026-08-22T01:01:40.000Z</time>
        <extensions>
          <ns3:TrackPointExtension>
            <ns3:hr>136</ns3:hr>
            <ns3:cad>0</ns3:cad>
          </ns3:TrackPointExtension>
        </extensions>
      </trkpt>
      <trkpt lat="45.27656592428684234619140625" lon="-71.11408344469964504241943359375">
        <ele>821.4000244140625</ele>
        <time>2026-08-22T01:01:41.000Z</time>
        <extensions>
          <ns3:TrackPointExtension>
            <ns3:hr>136</ns3:hr>
            <ns3:cad>0</ns3:cad>
          </ns3:TrackPointExtension>
        </extensions>
      </trkpt>
      <trkpt lat="45.27656332589685916900634765625" lon="-71.1140813492238521575927734375">
        <ele>821.5999755859375</ele>
        <time>2026-08-22T01:01:42.000Z</time>
        <extensions>
          <ns3:TrackPointExtension>
            <ns3:hr>136</ns3:hr>
            <ns3:cad>0</ns3:cad>
          </ns3:TrackPointExtension>
        </extensions>
      </trkpt>
      <trkpt lat="45.27655343525111675262451171875" lon="-71.11408126540482044219970703125">
        <ele>821.79998779296875</ele>
        <time>2026-08-22T01:01:43.000Z</time>
        <extensions>
          <ns3:TrackPointExtension>
            <ns3:hr>136</ns3:hr>
            <ns3:cad>0</ns3:cad>
          </ns3:TrackPointExtension>
        </extensions>
      </trkpt>
      <trkpt lat="45.2765429578721523284912109375" lon="-71.114082522690296173095703125">
        <ele>822.20001220703125</ele>
        <time>2026-08-22T01:01:44.000Z</time>
        <extensions>
          <ns3:TrackPointExtension>
            <ns3:hr>136</ns3:hr>
            <ns3:cad>0</ns3:cad>
          </ns3:TrackPointExtension>
        </extensions>
      </trkpt>
      <trkpt lat="45.276538766920566558837890625" lon="-71.1140800081193447113037109375">
        <ele>822.4000244140625</ele>
        <time>2026-08-22T01:01:45.000Z</time>
        <extensions>
          <ns3:TrackPointExtension>
            <ns3:hr>135</ns3:hr>
            <ns3:cad>0</ns3:cad>
          </ns3:TrackPointExtension>
        </extensions>
      </trkpt>
      <trkpt lat="45.27652929536998271942138671875" lon="-71.1140816844999790191650390625">
        <ele>822.5999755859375</ele>
        <time>2026-08-22T01:01:46.000Z</time>
        <extensions>
          <ns3:TrackPointExtension>
            <ns3:hr>135</ns3:hr>
            <ns3:cad>0</ns3:cad>
          </ns3:TrackPointExtension>
        </extensions>
      </trkpt>
      <trkpt lat="45.27652393095195293426513671875" lon="-71.11408277414739131927490234375">
        <ele>822.79998779296875</ele>
        <time>2026-08-22T01:01:47.000Z</time>
        <extensions>
          <ns3:TrackPointExtension>
            <ns3:hr>135</ns3:hr>
            <ns3:cad>0</ns3:cad>
          </ns3:TrackPointExtension>
        </extensions>
      </trkpt>
      <trkpt lat="45.27651571668684482574462890625" lon="-71.1140857078135013580322265625">
        <ele>823</ele>
        <time>2026-08-22T01:01:48.000Z</time>
        <extensions>
          <ns3:TrackPointExtension>
            <ns3:hr>134</ns3:hr>
            <ns3:cad>0</ns3:cad>
          </ns3:TrackPointExtension>
        </extensions>
      </trkpt>
      <trkpt lat="45.27650414966046810150146484375" lon="-71.11408595927059650421142578125">
        <ele>823.20001220703125</ele>
        <time>2026-08-22T01:01:49.000Z</time>
        <extensions>
          <ns3:TrackPointExtension>
            <ns3:hr>134</ns3:hr>
            <ns3:cad>0</ns3:cad>
          </ns3:TrackPointExtension>
        </extensions>
      </trkpt>
      <trkpt lat="45.276495181024074554443359375" lon="-71.11408780328929424285888671875">
        <ele>823.20001220703125</ele>
        <time>2026-08-22T01:01:50.000Z</time>
        <extensions>
          <ns3:TrackPointExtension>
            <ns3:hr>134</ns3:hr>
            <ns3:cad>0</ns3:cad>
          </ns3:TrackPointExtension>
        </extensions>
      </trkpt>
      <trkpt lat="45.276484787464141845703125" lon="-71.114089898765087127685546875">
        <ele>823.4000244140625</ele>
        <time>2026-08-22T01:01:51.000Z</time>
        <extensions>
          <ns3:TrackPointExtension>
            <ns3:hr>134</ns3:hr>
            <ns3:cad>0</ns3:cad>
          </ns3:TrackPointExtension>
        </extensions>
      </trkpt>
      <trkpt lat="45.27647498063743114471435546875" lon="-71.1140940897166728973388671875">
        <ele>823.4000244140625</ele>
        <time>2026-08-22T01:01:52.000Z</time>
        <extensions>
          <ns3:TrackPointExtension>
            <ns3:hr>134</ns3:hr>
            <ns3:cad>0</ns3:cad>
          </ns3:TrackPointExtension>
        </extensions>
      </trkpt>
      <trkpt lat="45.27645997703075408935546875" lon="-71.114099957048892974853515625">
        <ele>823.4000244140625</ele>
        <time>2026-08-22T01:01:53.000Z</time>
        <extensions>
          <ns3:TrackPointExtension>
            <ns3:hr>134</ns3:hr>
            <ns3:cad>44</ns3:cad>
          </ns3:TrackPointExtension>
        </extensions>
      </trkpt>
      <trkpt lat="45.27644715271890163421630859375" lon="-71.11410289071500301361083984375">
        <ele>823.4000244140625</ele>
        <time>2026-08-22T01:01:54.000Z</time>
        <extensions>
          <ns3:TrackPointExtension>
            <ns3:hr>134</ns3:hr>
            <ns3:cad>47</ns3:cad>
          </ns3:TrackPointExtension>
        </extensions>
      </trkpt>
      <trkpt lat="45.2764363400638103485107421875" lon="-71.1141054891049861907958984375">
        <ele>823.4000244140625</ele>
        <time>2026-08-22T01:01:55.000Z</time>
        <extensions>
          <ns3:TrackPointExtension>
            <ns3:hr>134</ns3:hr>
            <ns3:cad>47</ns3:cad>
          </ns3:TrackPointExtension>
        </extensions>
      </trkpt>
      <trkpt lat="45.27642644941806793212890625" lon="-71.11410825513303279876708984375">
        <ele>823.5999755859375</ele>
        <time>2026-08-22T01:01:56.000Z</time>
        <extensions>
          <ns3:TrackPointExtension>
            <ns3:hr>134</ns3:hr>
            <ns3:cad>50</ns3:cad>
          </ns3:TrackPointExtension>
        </extensions>
      </trkpt>
      <trkpt lat="45.27641597203910350799560546875" lon="-71.1141078360378742218017578125">
        <ele>823.79998779296875</ele>
        <time>2026-08-22T01:01:57.000Z</time>
        <extensions>
          <ns3:TrackPointExtension>
            <ns3:hr>134</ns3:hr>
            <ns3:cad>50</ns3:cad>
          </ns3:TrackPointExtension>
        </extensions>
      </trkpt>
      <trkpt lat="45.2764075063169002532958984375" lon="-71.11410356126725673675537109375">
        <ele>824</ele>
        <time>2026-08-22T01:01:58.000Z</time>
        <extensions>
          <ns3:TrackPointExtension>
            <ns3:hr>135</ns3:hr>
            <ns3:cad>52</ns3:cad>
          </ns3:TrackPointExtension>
        </extensions>
      </trkpt>
      <trkpt lat="45.27640490792691707611083984375" lon="-71.11410054378211498260498046875">
        <ele>824.4000244140625</ele>
        <time>2026-08-22T01:01:59.000Z</time>
        <extensions>
          <ns3:TrackPointExtension>
            <ns3:hr>135</ns3:hr>
            <ns3:cad>52</ns3:cad>
          </ns3:TrackPointExtension>
        </extensions>
      </trkpt>
      <trkpt lat="45.27640675194561481475830078125" lon="-71.1140997894108295440673828125">
        <ele>824.5999755859375</ele>
        <time>2026-08-22T01:02:00.000Z</time>
        <extensions>
          <ns3:TrackPointExtension>
            <ns3:hr>135</ns3:hr>
            <ns3:cad>51</ns3:cad>
          </ns3:TrackPointExtension>
        </extensions>
      </trkpt>
      <trkpt lat="45.27639568783342838287353515625" lon="-71.11409450881183147430419921875">
        <ele>825</ele>
        <time>2026-08-22T01:02:01.000Z</time>
        <extensions>
          <ns3:TrackPointExtension>
            <ns3:hr>135</ns3:hr>
            <ns3:cad>51</ns3:cad>
          </ns3:TrackPointExtension>
        </extensions>
      </trkpt>
      <trkpt lat="45.27639049105346202850341796875" lon="-71.11409819684922695159912109375">
        <ele>825.20001220703125</ele>
        <time>2026-08-22T01:02:02.000Z</time>
        <extensions>
          <ns3:TrackPointExtension>
            <ns3:hr>136</ns3:hr>
            <ns3:cad>51</ns3:cad>
          </ns3:TrackPointExtension>
        </extensions>
      </trkpt>
      <trkpt lat="45.27638143859803676605224609375" lon="-71.114105321466922760009765625">
        <ele>825.4000244140625</ele>
        <time>2026-08-22T01:02:03.000Z</time>
        <extensions>
          <ns3:TrackPointExtension>
            <ns3:hr>136</ns3:hr>
            <ns3:cad>51</ns3:cad>
          </ns3:TrackPointExtension>
        </extensions>
      </trkpt>
      <trkpt lat="45.27637624181807041168212890625" lon="-71.114110015332698822021484375">
        <ele>825.79998779296875</ele>
        <time>2026-08-22T01:02:04.000Z</time>
        <extensions>
          <ns3:TrackPointExtension>
            <ns3:hr>136</ns3:hr>
            <ns3:cad>51</ns3:cad>
          </ns3:TrackPointExtension>
        </extensions>
      </trkpt>
      <trkpt lat="45.2763669379055500030517578125" lon="-71.1141148768365383148193359375">
        <ele>826</ele>
        <time>2026-08-22T01:02:05.000Z</time>
        <extensions>
          <ns3:TrackPointExtension>
            <ns3:hr>135</ns3:hr>
            <ns3:cad>0</ns3:cad>
          </ns3:TrackPointExtension>
        </extensions>
      </trkpt>
      <trkpt lat="45.27635863982141017913818359375" lon="-71.11412384547293186187744140625">
        <ele>826.20001220703125</ele>
        <time>2026-08-22T01:02:06.000Z</time>
        <extensions>
          <ns3:TrackPointExtension>
            <ns3:hr>136</ns3:hr>
            <ns3:cad>0</ns3:cad>
          </ns3:TrackPointExtension>
        </extensions>
      </trkpt>
      <trkpt lat="45.276352353394031524658203125" lon="-71.114137172698974609375">
        <ele>826.4000244140625</ele>
        <time>2026-08-22T01:02:07.000Z</time>
        <extensions>
          <ns3:TrackPointExtension>
            <ns3:hr>137</ns3:hr>
            <ns3:cad>0</ns3:cad>
          </ns3:TrackPointExtension>
        </extensions>
      </trkpt>
      <trkpt lat="45.27635042555630207061767578125" lon="-71.11415988765656948089599609375">
        <ele>826.5999755859375</ele>
        <time>2026-08-22T01:02:08.000Z</time>
        <extensions>
          <ns3:TrackPointExtension>
            <ns3:hr>136</ns3:hr>
            <ns3:cad>0</ns3:cad>
          </ns3:TrackPointExtension>
        </extensions>
      </trkpt>
      <trkpt lat="45.276345312595367431640625" lon="-71.11418209969997406005859375">
        <ele>826.5999755859375</ele>
        <time>2026-08-22T01:02:09.000Z</time>
        <extensions>
          <ns3:TrackPointExtension>
            <ns3:hr>136</ns3:hr>
            <ns3:cad>0</ns3:cad>
          </ns3:TrackPointExtension>
        </extensions>
      </trkpt>
      <trkpt lat="45.2763391099870204925537109375" lon="-71.11420481465756893157958984375">
        <ele>826.5999755859375</ele>
        <time>2026-08-22T01:02:10.000Z</time>
        <extensions>
          <ns3:TrackPointExtension>
            <ns3:hr>136</ns3:hr>
            <ns3:cad>0</ns3:cad>
          </ns3:TrackPointExtension>
        </extensions>
      </trkpt>
      <trkpt lat="45.27633433230221271514892578125" lon="-71.11422191374003887176513671875">
        <ele>826.79998779296875</ele>
        <time>2026-08-22T01:02:11.000Z</time>
        <extensions>
          <ns3:TrackPointExtension>
            <ns3:hr>137</ns3:hr>
            <ns3:cad>0</ns3:cad>
          </ns3:TrackPointExtension>
        </extensions>
      </trkpt>
      <trkpt lat="45.27633198536932468414306640625" lon="-71.11423909664154052734375">
        <ele>826.79998779296875</ele>
        <time>2026-08-22T01:02:12.000Z</time>
        <extensions>
          <ns3:TrackPointExtension>
            <ns3:hr>138</ns3:hr>
            <ns3:cad>0</ns3:cad>
          </ns3:TrackPointExtension>
        </extensions>
      </trkpt>
      <trkpt lat="45.2763324044644832611083984375" lon="-71.11425544135272502899169921875">
        <ele>826.79998779296875</ele>
        <time>2026-08-22T01:02:13.000Z</time>
        <extensions>
          <ns3:TrackPointExtension>
            <ns3:hr>138</ns3:hr>
            <ns3:cad>0</ns3:cad>
          </ns3:TrackPointExtension>
        </extensions>
      </trkpt>
      <trkpt lat="45.27632980607450008392333984375" lon="-71.114273630082607269287109375">
        <ele>826.79998779296875</ele>
        <time>2026-08-22T01:02:14.000Z</time>
        <extensions>
          <ns3:TrackPointExtension>
            <ns3:hr>138</ns3:hr>
            <ns3:cad>0</ns3:cad>
          </ns3:TrackPointExtension>
        </extensions>
      </trkpt>
      <trkpt lat="45.27632561512291431427001953125" lon="-71.11428896896541118621826171875">
        <ele>826.79998779296875</ele>
        <time>2026-08-22T01:02:15.000Z</time>
        <extensions>
          <ns3:TrackPointExtension>
            <ns3:hr>139</ns3:hr>
            <ns3:cad>0</ns3:cad>
          </ns3:TrackPointExtension>
        </extensions>
      </trkpt>
      <trkpt lat="45.27631706558167934417724609375" lon="-71.1143006198108196258544921875">
        <ele>826.79998779296875</ele>
        <time>2026-08-22T01:02:16.000Z</time>
        <extensions>
          <ns3:TrackPointExtension>
            <ns3:hr>138</ns3:hr>
            <ns3:cad>0</ns3:cad>
          </ns3:TrackPointExtension>
        </extensions>
      </trkpt>
      <trkpt lat="45.2763072587549686431884765625" lon="-71.114307157695293426513671875">
        <ele>827</ele>
        <time>2026-08-22T01:02:17.000Z</time>
        <extensions>
          <ns3:TrackPointExtension>
            <ns3:hr>139</ns3:hr>
            <ns3:cad>0</ns3:cad>
          </ns3:TrackPointExtension>
        </extensions>
      </trkpt>
      <trkpt lat="45.27630432508885860443115234375" lon="-71.1143053136765956878662109375">
        <ele>827.20001220703125</ele>
        <time>2026-08-22T01:02:18.000Z</time>
        <extensions>
          <ns3:TrackPointExtension>
            <ns3:hr>138</ns3:hr>
            <ns3:cad>57</ns3:cad>
          </ns3:TrackPointExtension>
        </extensions>
      </trkpt>
      <trkpt lat="45.2762938477098941802978515625" lon="-71.1143136955797672271728515625">
        <ele>827.4000244140625</ele>
        <time>2026-08-22T01:02:19.000Z</time>
        <extensions>
          <ns3:TrackPointExtension>
            <ns3:hr>138</ns3:hr>
            <ns3:cad>57</ns3:cad>
          </ns3:TrackPointExtension>
        </extensions>
      </trkpt>
      <trkpt lat="45.2762903273105621337890625" lon="-71.1143247596919536590576171875">
        <ele>827.5999755859375</ele>
        <time>2026-08-22T01:02:20.000Z</time>
        <extensions>
          <ns3:TrackPointExtension>
            <ns3:hr>139</ns3:hr>
            <ns3:cad>0</ns3:cad>
          </ns3:TrackPointExtension>
        </extensions>
      </trkpt>
      <trkpt lat="45.27629091404378414154052734375" lon="-71.11434445716440677642822265625">
        <ele>827.79998779296875</ele>
        <time>2026-08-22T01:02:21.000Z</time>
        <extensions>
          <ns3:TrackPointExtension>
            <ns3:hr>139</ns3:hr>
            <ns3:cad>0</ns3:cad>
          </ns3:TrackPointExtension>
        </extensions>
      </trkpt>
      <trkpt lat="45.2762898243963718414306640625" lon="-71.11436239443719387054443359375">
        <ele>828</ele>
        <time>2026-08-22T01:02:22.000Z</time>
        <extensions>
          <ns3:TrackPointExtension>
            <ns3:hr>139</ns3:hr>
            <ns3:cad>0</ns3:cad>
          </ns3:TrackPointExtension>
        </extensions>
      </trkpt>
      <trkpt lat="45.27628370560705661773681640625" lon="-71.1143799126148223876953125">
        <ele>828</ele>
        <time>2026-08-22T01:02:23.000Z</time>
        <extensions>
          <ns3:TrackPointExtension>
            <ns3:hr>139</ns3:hr>
            <ns3:cad>0</ns3:cad>
          </ns3:TrackPointExtension>
        </extensions>
      </trkpt>
      <trkpt lat="45.27627733536064624786376953125" lon="-71.11440204083919525146484375">
        <ele>828</ele>
        <time>2026-08-22T01:02:24.000Z</time>
        <extensions>
          <ns3:TrackPointExtension>
            <ns3:hr>138</ns3:hr>
            <ns3:cad>57</ns3:cad>
          </ns3:TrackPointExtension>
        </extensions>
      </trkpt>
      <trkpt lat="45.27627247385680675506591796875" lon="-71.11441385932266712188720703125">
        <ele>828</ele>
        <time>2026-08-22T01:02:25.000Z</time>
        <extensions>
          <ns3:TrackPointExtension>
            <ns3:hr>138</ns3:hr>
            <ns3:cad>57</ns3:cad>
          </ns3:TrackPointExtension>
        </extensions>
      </trkpt>
      <trkpt lat="45.27626954019069671630859375" lon="-71.1144290305674076080322265625">
        <ele>828</ele>
        <time>2026-08-22T01:02:26.000Z</time>
        <extensions>
          <ns3:TrackPointExtension>
            <ns3:hr>138</ns3:hr>
            <ns3:cad>57</ns3:cad>
          </ns3:TrackPointExtension>
        </extensions>
      </trkpt>
      <trkpt lat="45.27626912109553813934326171875" lon="-71.114437580108642578125">
        <ele>828.20001220703125</ele>
        <time>2026-08-22T01:02:27.000Z</time>
        <extensions>
          <ns3:TrackPointExtension>
            <ns3:hr>139</ns3:hr>
            <ns3:cad>55</ns3:cad>
          </ns3:TrackPointExtension>
        </extensions>
      </trkpt>
      <trkpt lat="45.27626777999103069305419921875" lon="-71.1144514940679073333740234375">
        <ele>828.4000244140625</ele>
        <time>2026-08-22T01:02:28.000Z</time>
        <extensions>
          <ns3:TrackPointExtension>
            <ns3:hr>139</ns3:hr>
            <ns3:cad>55</ns3:cad>
          </ns3:TrackPointExtension>
        </extensions>
      </trkpt>
      <trkpt lat="45.2762613259255886077880859375" lon="-71.11446398310363292694091796875">
        <ele>828.79998779296875</ele>
        <time>2026-08-22T01:02:29.000Z</time>
        <extensions>
          <ns3:TrackPointExtension>
            <ns3:hr>139</ns3:hr>
            <ns3:cad>0</ns3:cad>
          </ns3:TrackPointExtension>
        </extensions>
      </trkpt>
      <trkpt lat="45.2762559615075588226318359375" lon="-71.11447311937808990478515625">
        <ele>829</ele>
        <time>2026-08-22T01:02:30.000Z</time>
        <extensions>
          <ns3:TrackPointExtension>
            <ns3:hr>140</ns3:hr>
            <ns3:cad>0</ns3:cad>
          </ns3:TrackPointExtension>
        </extensions>
      </trkpt>
      <trkpt lat="45.2762489207088947296142578125" lon="-71.1144877038896083831787109375">
        <ele>829.20001220703125</ele>
        <time>2026-08-22T01:02:31.000Z</time>
        <extensions>
          <ns3:TrackPointExtension>
            <ns3:hr>139</ns3:hr>
            <ns3:cad>0</ns3:cad>
          </ns3:TrackPointExtension>
        </extensions>
      </trkpt>
      <trkpt lat="45.27624095790088176727294921875" lon="-71.1144987680017948150634765625">
        <ele>829.4000244140625</ele>
        <time>2026-08-22T01:02:32.000Z</time>
        <extensions>
          <ns3:TrackPointExtension>
            <ns3:hr>139</ns3:hr>
            <ns3:cad>0</ns3:cad>
          </ns3:TrackPointExtension>
        </extensions>
      </trkpt>
      <trkpt lat="45.27624062262475490570068359375" lon="-71.11450388096272945404052734375">
        <ele>829.5999755859375</ele>
        <time>2026-08-22T01:02:33.000Z</time>
        <extensions>
          <ns3:TrackPointExtension>
            <ns3:hr>140</ns3:hr>
            <ns3:cad>0</ns3:cad>
          </ns3:TrackPointExtension>
        </extensions>
      </trkpt>
      <trkpt lat="45.27623601257801055908203125" lon="-71.114512346684932708740234375">
        <ele>829.79998779296875</ele>
        <time>2026-08-22T01:02:34.000Z</time>
        <extensions>
          <ns3:TrackPointExtension>
            <ns3:hr>140</ns3:hr>
            <ns3:cad>0</ns3:cad>
          </ns3:TrackPointExtension>
        </extensions>
      </trkpt>
      <trkpt lat="45.2762334980070590972900390625" lon="-71.1145208962261676788330078125">
        <ele>830.20001220703125</ele>
        <time>2026-08-22T01:02:35.000Z</time>
        <extensions>
          <ns3:TrackPointExtension>
            <ns3:hr>140</ns3:hr>
            <ns3:cad>0</ns3:cad>
          </ns3:TrackPointExtension>
        </extensions>
      </trkpt>
      <trkpt lat="45.27623190544545650482177734375" lon="-71.11452818848192691802978515625">
        <ele>830.4000244140625</ele>
        <time>2026-08-22T01:02:36.000Z</time>
        <extensions>
          <ns3:TrackPointExtension>
            <ns3:hr>139</ns3:hr>
            <ns3:cad>0</ns3:cad>
          </ns3:TrackPointExtension>
        </extensions>
      </trkpt>
      <trkpt lat="45.27622922323644161224365234375" lon="-71.114535816013813018798828125">
        <ele>830.4000244140625</ele>
        <time>2026-08-22T01:02:37.000Z</time>
        <extensions>
          <ns3:TrackPointExtension>
            <ns3:hr>140</ns3:hr>
            <ns3:cad>0</ns3:cad>
          </ns3:TrackPointExtension>
        </extensions>
      </trkpt>
      <trkpt lat="45.27622872032225131988525390625" lon="-71.11454377882182598114013671875">
        <ele>830.4000244140625</ele>
        <time>2026-08-22T01:02:38.000Z</time>
        <extensions>
          <ns3:TrackPointExtension>
            <ns3:hr>140</ns3:hr>
            <ns3:cad>0</ns3:cad>
          </ns3:TrackPointExtension>
        </extensions>
      </trkpt>
      <trkpt lat="45.276223607361316680908203125" lon="-71.1145537532866001129150390625">
        <ele>830.4000244140625</ele>
        <time>2026-08-22T01:02:39.000Z</time>
        <extensions>
          <ns3:TrackPointExtension>
            <ns3:hr>140</ns3:hr>
            <ns3:cad>0</ns3:cad>
          </ns3:TrackPointExtension>
        </extensions>
      </trkpt>
      <trkpt lat="45.27622402645647525787353515625" lon="-71.1145668290555477142333984375">
        <ele>830.4000244140625</ele>
        <time>2026-08-22T01:02:40.000Z</time>
        <extensions>
          <ns3:TrackPointExtension>
            <ns3:hr>139</ns3:hr>
            <ns3:cad>0</ns3:cad>
          </ns3:TrackPointExtension>
        </extensions>
      </trkpt>
      <trkpt lat="45.27622067369520664215087890625" lon="-71.1145802401006221771240234375">
        <ele>830.20001220703125</ele>
        <time>2026-08-22T01:02:41.000Z</time>
        <extensions>
          <ns3:TrackPointExtension>
            <ns3:hr>140</ns3:hr>
            <ns3:cad>0</ns3:cad>
          </ns3:TrackPointExtension>
        </extensions>
      </trkpt>
      <trkpt lat="45.276211202144622802734375" lon="-71.11459189094603061676025390625">
        <ele>830.20001220703125</ele>
        <time>2026-08-22T01:02:42.000Z</time>
        <extensions>
          <ns3:TrackPointExtension>
            <ns3:hr>140</ns3:hr>
            <ns3:cad>0</ns3:cad>
          </ns3:TrackPointExtension>
        </extensions>
      </trkpt>
      <trkpt lat="45.27620659209787845611572265625" lon="-71.11460245214402675628662109375">
        <ele>830.20001220703125</ele>
        <time>2026-08-22T01:02:43.000Z</time>
        <extensions>
          <ns3:TrackPointExtension>
            <ns3:hr>140</ns3:hr>
            <ns3:cad>0</ns3:cad>
          </ns3:TrackPointExtension>
        </extensions>
      </trkpt>
      <trkpt lat="45.27620323933660984039306640625" lon="-71.11461267806589603424072265625">
        <ele>830.20001220703125</ele>
        <time>2026-08-22T01:02:44.000Z</time>
        <extensions>
          <ns3:TrackPointExtension>
            <ns3:hr>139</ns3:hr>
            <ns3:cad>0</ns3:cad>
          </ns3:TrackPointExtension>
        </extensions>
      </trkpt>
      <trkpt lat="45.27619502507150173187255859375" lon="-71.11462390981614589691162109375">
        <ele>830.4000244140625</ele>
        <time>2026-08-22T01:02:45.000Z</time>
        <extensions>
          <ns3:TrackPointExtension>
            <ns3:hr>139</ns3:hr>
            <ns3:cad>0</ns3:cad>
          </ns3:TrackPointExtension>
        </extensions>
      </trkpt>
      <trkpt lat="45.27619016356766223907470703125" lon="-71.11463363282382488250732421875">
        <ele>830.5999755859375</ele>
        <time>2026-08-22T01:02:46.000Z</time>
        <extensions>
          <ns3:TrackPointExtension>
            <ns3:hr>138</ns3:hr>
            <ns3:cad>0</ns3:cad>
          </ns3:TrackPointExtension>
        </extensions>
      </trkpt>
      <trkpt lat="45.27619368396699428558349609375" lon="-71.1146476306021213531494140625">
        <ele>830.79998779296875</ele>
        <time>2026-08-22T01:02:47.000Z</time>
        <extensions>
          <ns3:TrackPointExtension>
            <ns3:hr>136</ns3:hr>
            <ns3:cad>0</ns3:cad>
          </ns3:TrackPointExtension>
        </extensions>
      </trkpt>
      <trkpt lat="45.27618630789220333099365234375" lon="-71.11466548405587673187255859375">
        <ele>831</ele>
        <time>2026-08-22T01:02:48.000Z</time>
        <extensions>
          <ns3:TrackPointExtension>
            <ns3:hr>136</ns3:hr>
            <ns3:cad>0</ns3:cad>
          </ns3:TrackPointExtension>
        </extensions>
      </trkpt>
      <trkpt lat="45.2761734835803508758544921875" lon="-71.11468124203383922576904296875">
        <ele>831</ele>
        <time>2026-08-22T01:02:49.000Z</time>
        <extensions>
          <ns3:TrackPointExtension>
            <ns3:hr>136</ns3:hr>
            <ns3:cad>0</ns3:cad>
          </ns3:TrackPointExtension>
        </extensions>
      </trkpt>
      <trkpt lat="45.27616367675364017486572265625" lon="-71.11469163559377193450927734375">
        <ele>831.20001220703125</ele>
        <time>2026-08-22T01:02:50.000Z</time>
        <extensions>
          <ns3:TrackPointExtension>
            <ns3:hr>136</ns3:hr>
            <ns3:cad>0</ns3:cad>
          </ns3:TrackPointExtension>
        </extensions>
      </trkpt>
      <trkpt lat="45.27615487575531005859375" lon="-71.11469649709761142730712890625">
        <ele>831.4000244140625</ele>
        <time>2026-08-22T01:02:51.000Z</time>
        <extensions>
          <ns3:TrackPointExtension>
            <ns3:hr>136</ns3:hr>
            <ns3:cad>0</ns3:cad>
          </ns3:TrackPointExtension>
        </extensions>
      </trkpt>
      <trkpt lat="45.2761406265199184417724609375" lon="-71.11470303498208522796630859375">
        <ele>831.5999755859375</ele>
        <time>2026-08-22T01:02:52.000Z</time>
        <extensions>
          <ns3:TrackPointExtension>
            <ns3:hr>136</ns3:hr>
            <ns3:cad>0</ns3:cad>
          </ns3:TrackPointExtension>
        </extensions>
      </trkpt>
      <trkpt lat="45.27613216079771518707275390625" lon="-71.11470823176205158233642578125">
        <ele>831.79998779296875</ele>
        <time>2026-08-22T01:02:53.000Z</time>
        <extensions>
          <ns3:TrackPointExtension>
            <ns3:hr>136</ns3:hr>
            <ns3:cad>0</ns3:cad>
          </ns3:TrackPointExtension>
        </extensions>
      </trkpt>
      <trkpt lat="45.276119671761989593505859375" lon="-71.11471678130328655242919921875">
        <ele>832</ele>
        <time>2026-08-22T01:02:54.000Z</time>
        <extensions>
          <ns3:TrackPointExtension>
            <ns3:hr>136</ns3:hr>
            <ns3:cad>0</ns3:cad>
          </ns3:TrackPointExtension>
        </extensions>
      </trkpt>
      <trkpt lat="45.27611204423010349273681640625" lon="-71.11472566612064838409423828125">
        <ele>832.20001220703125</ele>
        <time>2026-08-22T01:02:55.000Z</time>
        <extensions>
          <ns3:TrackPointExtension>
            <ns3:hr>136</ns3:hr>
            <ns3:cad>0</ns3:cad>
          </ns3:TrackPointExtension>
        </extensions>
      </trkpt>
      <trkpt lat="45.27610047720372676849365234375" lon="-71.11473874188959598541259765625">
        <ele>832.4000244140625</ele>
        <time>2026-08-22T01:02:56.000Z</time>
        <extensions>
          <ns3:TrackPointExtension>
            <ns3:hr>136</ns3:hr>
            <ns3:cad>0</ns3:cad>
          </ns3:TrackPointExtension>
        </extensions>
      </trkpt>
      <trkpt lat="45.27609611861407756805419921875" lon="-71.11474796198308467864990234375">
        <ele>832.5999755859375</ele>
        <time>2026-08-22T01:02:57.000Z</time>
        <extensions>
          <ns3:TrackPointExtension>
            <ns3:hr>137</ns3:hr>
            <ns3:cad>0</ns3:cad>
          </ns3:TrackPointExtension>
        </extensions>
      </trkpt>
      <trkpt lat="45.2760936878621578216552734375" lon="-71.11475567333400249481201171875">
        <ele>832.79998779296875</ele>
        <time>2026-08-22T01:02:58.000Z</time>
        <extensions>
          <ns3:TrackPointExtension>
            <ns3:hr>137</ns3:hr>
            <ns3:cad>47</ns3:cad>
          </ns3:TrackPointExtension>
        </extensions>
      </trkpt>
      <trkpt lat="45.27609251439571380615234375" lon="-71.114760451018810272216796875">
        <ele>833</ele>
        <time>2026-08-22T01:02:59.000Z</time>
        <extensions>
          <ns3:TrackPointExtension>
            <ns3:hr>137</ns3:hr>
            <ns3:cad>47</ns3:cad>
          </ns3:TrackPointExtension>
        </extensions>
      </trkpt>
      <trkpt lat="45.2760918438434600830078125" lon="-71.11476656980812549591064453125">
        <ele>833</ele>
        <time>2026-08-22T01:03:00.000Z</time>
        <extensions>
          <ns3:TrackPointExtension>
            <ns3:hr>137</ns3:hr>
            <ns3:cad>0</ns3:cad>
          </ns3:TrackPointExtension>
        </extensions>
      </trkpt>
      <trkpt lat="45.27609159238636493682861328125" lon="-71.11477981321513652801513671875">
        <ele>833</ele>
        <time>2026-08-22T01:03:01.000Z</time>
        <extensions>
          <ns3:TrackPointExtension>
            <ns3:hr>137</ns3:hr>
            <ns3:cad>0</ns3:cad>
          </ns3:TrackPointExtension>
        </extensions>
      </trkpt>
      <trkpt lat="45.2760889939963817596435546875" lon="-71.114795319736003875732421875">
        <ele>833</ele>
        <time>2026-08-22T01:03:02.000Z</time>
        <extensions>
          <ns3:TrackPointExtension>
            <ns3:hr>137</ns3:hr>
            <ns3:cad>0</ns3:cad>
          </ns3:TrackPointExtension>
        </extensions>
      </trkpt>
      <trkpt lat="45.27608555741608142852783203125" lon="-71.11481199972331523895263671875">
        <ele>832.79998779296875</ele>
        <time>2026-08-22T01:03:03.000Z</time>
        <extensions>
          <ns3:TrackPointExtension>
            <ns3:hr>137</ns3:hr>
            <ns3:cad>0</ns3:cad>
          </ns3:TrackPointExtension>
        </extensions>
      </trkpt>
      <trkpt lat="45.27608103118836879730224609375" lon="-71.1148197948932647705078125">
        <ele>832.79998779296875</ele>
        <time>2026-08-22T01:03:04.000Z</time>
        <extensions>
          <ns3:TrackPointExtension>
            <ns3:hr>138</ns3:hr>
            <ns3:cad>0</ns3:cad>
          </ns3:TrackPointExtension>
        </extensions>
      </trkpt>
      <trkpt lat="45.2760702185332775115966796875" lon="-71.11482658423483371734619140625">
        <ele>832.79998779296875</ele>
        <time>2026-08-22T01:03:05.000Z</time>
        <extensions>
          <ns3:TrackPointExtension>
            <ns3:hr>138</ns3:hr>
            <ns3:cad>0</ns3:cad>
          </ns3:TrackPointExtension>
        </extensions>
      </trkpt>
      <trkpt lat="45.27606326155364513397216796875" lon="-71.114833541214466094970703125">
        <ele>833</ele>
        <time>2026-08-22T01:03:06.000Z</time>
        <extensions>
          <ns3:TrackPointExtension>
            <ns3:hr>137</ns3:hr>
            <ns3:cad>0</ns3:cad>
          </ns3:TrackPointExtension>
        </extensions>
      </trkpt>
      <trkpt lat="45.27605923824012279510498046875" lon="-71.11483789980411529541015625">
        <ele>833.20001220703125</ele>
        <time>2026-08-22T01:03:07.000Z</time>
        <extensions>
          <ns3:TrackPointExtension>
            <ns3:hr>137</ns3:hr>
            <ns3:cad>0</ns3:cad>
          </ns3:TrackPointExtension>
        </extensions>
      </trkpt>
      <trkpt lat="45.27605219744145870208740234375" lon="-71.1148467846214771270751953125">
        <ele>833.5999755859375</ele>
        <time>2026-08-22T01:03:08.000Z</time>
        <extensions>
          <ns3:TrackPointExtension>
            <ns3:hr>138</ns3:hr>
            <ns3:cad>0</ns3:cad>
          </ns3:TrackPointExtension>
        </extensions>
      </trkpt>
      <trkpt lat="45.27604767121374607086181640625" lon="-71.11485357396304607391357421875">
        <ele>833.79998779296875</ele>
        <time>2026-08-22T01:03:09.000Z</time>
        <extensions>
          <ns3:TrackPointExtension>
            <ns3:hr>137</ns3:hr>
            <ns3:cad>0</ns3:cad>
          </ns3:TrackPointExtension>
        </extensions>
      </trkpt>
      <trkpt lat="45.27603895403444766998291015625" lon="-71.11485994420945644378662109375">
        <ele>834.20001220703125</ele>
        <time>2026-08-22T01:03:10.000Z</time>
        <extensions>
          <ns3:TrackPointExtension>
            <ns3:hr>137</ns3:hr>
            <ns3:cad>0</ns3:cad>
          </ns3:TrackPointExtension>
        </extensions>
      </trkpt>
      <trkpt lat="45.2760323323309421539306640625" lon="-71.114864386618137359619140625">
        <ele>834.4000244140625</ele>
        <time>2026-08-22T01:03:11.000Z</time>
        <extensions>
          <ns3:TrackPointExtension>
            <ns3:hr>137</ns3:hr>
            <ns3:cad>0</ns3:cad>
          </ns3:TrackPointExtension>
        </extensions>
      </trkpt>
      <trkpt lat="45.27603057213127613067626953125" lon="-71.11486698500812053680419921875">
        <ele>834.5999755859375</ele>
        <time>2026-08-22T01:03:12.000Z</time>
        <extensions>
          <ns3:TrackPointExtension>
            <ns3:hr>136</ns3:hr>
            <ns3:cad>0</ns3:cad>
          </ns3:TrackPointExtension>
        </extensions>
      </trkpt>
      <trkpt lat="45.2760229445993900299072265625" lon="-71.11487268470227718353271484375">
        <ele>834.79998779296875</ele>
        <time>2026-08-22T01:03:13.000Z</time>
        <extensions>
          <ns3:TrackPointExtension>
            <ns3:hr>136</ns3:hr>
            <ns3:cad>0</ns3:cad>
          </ns3:TrackPointExtension>
        </extensions>
      </trkpt>
      <trkpt lat="45.2760182507336139678955078125" lon="-71.11487989313900470733642578125">
        <ele>835</ele>
        <time>2026-08-22T01:03:14.000Z</time>
        <extensions>
          <ns3:TrackPointExtension>
            <ns3:hr>136</ns3:hr>
            <ns3:cad>59</ns3:cad>
          </ns3:TrackPointExtension>
        </extensions>
      </trkpt>
      <trkpt lat="45.2760152332484722137451171875" lon="-71.11488810740411281585693359375">
        <ele>835.20001220703125</ele>
        <time>2026-08-22T01:03:15.000Z</time>
        <extensions>
          <ns3:TrackPointExtension>
            <ns3:hr>136</ns3:hr>
            <ns3:cad>59</ns3:cad>
          </ns3:TrackPointExtension>
        </extensions>
      </trkpt>
      <trkpt lat="45.27601246722042560577392578125" lon="-71.114893890917301177978515625">
        <ele>835.4000244140625</ele>
        <time>2026-08-22T01:03:16.000Z</time>
        <extensions>
          <ns3:TrackPointExtension>
            <ns3:hr>135</ns3:hr>
            <ns3:cad>59</ns3:cad>
          </ns3:TrackPointExtension>
        </extensions>
      </trkpt>
      <trkpt lat="45.276002325117588043212890625" lon="-71.11490000970661640167236328125">
        <ele>835.5999755859375</ele>
        <time>2026-08-22T01:03:17.000Z</time>
        <extensions>
          <ns3:TrackPointExtension>
            <ns3:hr>135</ns3:hr>
            <ns3:cad>59</ns3:cad>
          </ns3:TrackPointExtension>
        </extensions>
      </trkpt>
      <trkpt lat="45.27600090019404888153076171875" lon="-71.11490763723850250244140625">
        <ele>835.79998779296875</ele>
        <time>2026-08-22T01:03:18.000Z</time>
        <extensions>
          <ns3:TrackPointExtension>
            <ns3:hr>135</ns3:hr>
            <ns3:cad>59</ns3:cad>
          </ns3:TrackPointExtension>
        </extensions>
      </trkpt>
      <trkpt lat="45.2760028280317783355712890625" lon="-71.11490922980010509490966796875">
        <ele>836</ele>
        <time>2026-08-22T01:03:19.000Z</time>
        <extensions>
          <ns3:TrackPointExtension>
            <ns3:hr>135</ns3:hr>
            <ns3:cad>0</ns3:cad>
          </ns3:TrackPointExtension>
        </extensions>
      </trkpt>
      <trkpt lat="45.2760048396885395050048828125" lon="-71.11491224728524684906005859375">
        <ele>836.4000244140625</ele>
        <time>2026-08-22T01:03:20.000Z</time>
        <extensions>
          <ns3:TrackPointExtension>
            <ns3:hr>135</ns3:hr>
            <ns3:cad>0</ns3:cad>
          </ns3:TrackPointExtension>
        </extensions>
      </trkpt>
      <trkpt lat="45.27600391767919063568115234375" lon="-71.11491543240845203399658203125">
        <ele>836.5999755859375</ele>
        <time>2026-08-22T01:03:21.000Z</time>
        <extensions>
          <ns3:TrackPointExtension>
            <ns3:hr>135</ns3:hr>
            <ns3:cad>0</ns3:cad>
          </ns3:TrackPointExtension>
        </extensions>
      </trkpt>
      <trkpt lat="45.27599939145147800445556640625" lon="-71.11492448486387729644775390625">
        <ele>836.79998779296875</ele>
        <time>2026-08-22T01:03:22.000Z</time>
        <extensions>
          <ns3:TrackPointExtension>
            <ns3:hr>136</ns3:hr>
            <ns3:cad>0</ns3:cad>
          </ns3:TrackPointExtension>
        </extensions>
      </trkpt>
      <trkpt lat="45.27599553577601909637451171875" lon="-71.1149306036531925201416015625">
        <ele>837</ele>
        <time>2026-08-22T01:03:23.000Z</time>
        <extensions>
          <ns3:TrackPointExtension>
            <ns3:hr>136</ns3:hr>
            <ns3:cad>0</ns3:cad>
          </ns3:TrackPointExtension>
        </extensions>
      </trkpt>
      <trkpt lat="45.27599251829087734222412109375" lon="-71.1149369738996028900146484375">
        <ele>837.20001220703125</ele>
        <time>2026-08-22T01:03:24.000Z</time>
        <extensions>
          <ns3:TrackPointExtension>
            <ns3:hr>136</ns3:hr>
            <ns3:cad>0</ns3:cad>
          </ns3:TrackPointExtension>
        </extensions>
      </trkpt>
      <trkpt lat="45.2759904228150844573974609375" lon="-71.11494787037372589111328125">
        <ele>837.20001220703125</ele>
        <time>2026-08-22T01:03:25.000Z</time>
        <extensions>
          <ns3:TrackPointExtension>
            <ns3:hr>136</ns3:hr>
            <ns3:cad>0</ns3:cad>
          </ns3:TrackPointExtension>
        </extensions>
      </trkpt>
      <trkpt lat="45.275989584624767303466796875" lon="-71.11495516262948513031005859375">
        <ele>837.20001220703125</ele>
        <time>2026-08-22T01:03:26.000Z</time>
        <extensions>
          <ns3:TrackPointExtension>
            <ns3:hr>136</ns3:hr>
            <ns3:cad>0</ns3:cad>
          </ns3:TrackPointExtension>
        </extensions>
      </trkpt>
      <trkpt lat="45.275986231863498687744140625" lon="-71.11497662030160427093505859375">
        <ele>837.4000244140625</ele>
        <time>2026-08-22T01:03:27.000Z</time>
        <extensions>
          <ns3:TrackPointExtension>
            <ns3:hr>136</ns3:hr>
            <ns3:cad>0</ns3:cad>
          </ns3:TrackPointExtension>
        </extensions>
      </trkpt>
      <trkpt lat="45.27598178945481777191162109375" lon="-71.11498617567121982574462890625">
        <ele>837.5999755859375</ele>
        <time>2026-08-22T01:03:28.000Z</time>
        <extensions>
          <ns3:TrackPointExtension>
            <ns3:hr>136</ns3:hr>
            <ns3:cad>0</ns3:cad>
          </ns3:TrackPointExtension>
        </extensions>
      </trkpt>
      <trkpt lat="45.275982208549976348876953125" lon="-71.1149906180799007415771484375">
        <ele>837.79998779296875</ele>
        <time>2026-08-22T01:03:29.000Z</time>
        <extensions>
          <ns3:TrackPointExtension>
            <ns3:hr>136</ns3:hr>
            <ns3:cad>0</ns3:cad>
          </ns3:TrackPointExtension>
        </extensions>
      </trkpt>
      <trkpt lat="45.2759791910648345947265625" lon="-71.11500478349626064300537109375">
        <ele>838</ele>
        <time>2026-08-22T01:03:30.000Z</time>
        <extensions>
          <ns3:TrackPointExtension>
            <ns3:hr>136</ns3:hr>
            <ns3:cad>0</ns3:cad>
          </ns3:TrackPointExtension>
        </extensions>
      </trkpt>
      <trkpt lat="45.27597307227551937103271484375" lon="-71.11501852981746196746826171875">
        <ele>838.20001220703125</ele>
        <time>2026-08-22T01:03:31.000Z</time>
        <extensions>
          <ns3:TrackPointExtension>
            <ns3:hr>137</ns3:hr>
            <ns3:cad>50</ns3:cad>
          </ns3:TrackPointExtension>
        </extensions>
      </trkpt>
      <trkpt lat="45.275970138609409332275390625" lon="-71.11503412015736103057861328125">
        <ele>838.20001220703125</ele>
        <time>2026-08-22T01:03:32.000Z</time>
        <extensions>
          <ns3:TrackPointExtension>
            <ns3:hr>137</ns3:hr>
            <ns3:cad>50</ns3:cad>
          </ns3:TrackPointExtension>
        </extensions>
      </trkpt>
      <trkpt lat="45.27596703730523586273193359375" lon="-71.11505239270627498626708984375">
        <ele>838.4000244140625</ele>
        <time>2026-08-22T01:03:33.000Z</time>
        <extensions>
          <ns3:TrackPointExtension>
            <ns3:hr>138</ns3:hr>
            <ns3:cad>50</ns3:cad>
          </ns3:TrackPointExtension>
        </extensions>
      </trkpt>
      <trkpt lat="45.27596703730523586273193359375" lon="-71.11506110988557338714599609375">
        <ele>838.4000244140625</ele>
        <time>2026-08-22T01:03:34.000Z</time>
        <extensions>
          <ns3:TrackPointExtension>
            <ns3:hr>138</ns3:hr>
            <ns3:cad>0</ns3:cad>
          </ns3:TrackPointExtension>
        </extensions>
      </trkpt>
      <trkpt lat="45.27596770785748958587646484375" lon="-71.11507032997906208038330078125">
        <ele>838.5999755859375</ele>
        <time>2026-08-22T01:03:35.000Z</time>
        <extensions>
          <ns3:TrackPointExtension>
            <ns3:hr>138</ns3:hr>
            <ns3:cad>0</ns3:cad>
          </ns3:TrackPointExtension>
        </extensions>
      </trkpt>
      <trkpt lat="45.2759595774114131927490234375" lon="-71.115084998309612274169921875">
        <ele>838.5999755859375</ele>
        <time>2026-08-22T01:03:36.000Z</time>
        <extensions>
          <ns3:TrackPointExtension>
            <ns3:hr>138</ns3:hr>
            <ns3:cad>0</ns3:cad>
          </ns3:TrackPointExtension>
        </extensions>
      </trkpt>
      <trkpt lat="45.2759555540978908538818359375" lon="-71.11509497277438640594482421875">
        <ele>838.5999755859375</ele>
        <time>2026-08-22T01:03:37.000Z</time>
        <extensions>
          <ns3:TrackPointExtension>
            <ns3:hr>139</ns3:hr>
            <ns3:cad>0</ns3:cad>
          </ns3:TrackPointExtension>
        </extensions>
      </trkpt>
      <trkpt lat="45.27595714665949344635009765625" lon="-71.1151012592017650604248046875">
        <ele>838.5999755859375</ele>
        <time>2026-08-22T01:03:38.000Z</time>
        <extensions>
          <ns3:TrackPointExtension>
            <ns3:hr>139</ns3:hr>
            <ns3:cad>0</ns3:cad>
          </ns3:TrackPointExtension>
        </extensions>
      </trkpt>
      <trkpt lat="45.2759563922882080078125" lon="-71.1151089705526828765869140625">
        <ele>838.79998779296875</ele>
        <time>2026-08-22T01:03:39.000Z</time>
        <extensions>
          <ns3:TrackPointExtension>
            <ns3:hr>139</ns3:hr>
            <ns3:cad>0</ns3:cad>
          </ns3:TrackPointExtension>
        </extensions>
      </trkpt>
      <trkpt lat="45.27595278806984424591064453125" lon="-71.1151207052171230316162109375">
        <ele>839</ele>
        <time>2026-08-22T01:03:40.000Z</time>
        <extensions>
          <ns3:TrackPointExtension>
            <ns3:hr>139</ns3:hr>
            <ns3:cad>0</ns3:cad>
          </ns3:TrackPointExtension>
        </extensions>
      </trkpt>
      <trkpt lat="45.2759501896798610687255859375" lon="-71.11512363888323307037353515625">
        <ele>839.20001220703125</ele>
        <time>2026-08-22T01:03:41.000Z</time>
        <extensions>
          <ns3:TrackPointExtension>
            <ns3:hr>139</ns3:hr>
            <ns3:cad>0</ns3:cad>
          </ns3:TrackPointExtension>
        </extensions>
      </trkpt>
      <trkpt lat="45.27594826184213161468505859375" lon="-71.1151250638067722320556640625">
        <ele>839.5999755859375</ele>
        <time>2026-08-22T01:03:42.000Z</time>
        <extensions>
          <ns3:TrackPointExtension>
            <ns3:hr>139</ns3:hr>
            <ns3:cad>0</ns3:cad>
          </ns3:TrackPointExtension>
        </extensions>
      </trkpt>
      <trkpt lat="45.2759371139109134674072265625" lon="-71.11513352952897548675537109375">
        <ele>839.79998779296875</ele>
        <time>2026-08-22T01:03:43.000Z</time>
        <extensions>
          <ns3:TrackPointExtension>
            <ns3:hr>140</ns3:hr>
            <ns3:cad>0</ns3:cad>
          </ns3:TrackPointExtension>
        </extensions>
      </trkpt>
      <trkpt lat="45.27593418024480342864990234375" lon="-71.11513755284249782562255859375">
        <ele>840</ele>
        <time>2026-08-22T01:03:44.000Z</time>
        <extensions>
          <ns3:TrackPointExtension>
            <ns3:hr>139</ns3:hr>
            <ns3:cad>0</ns3:cad>
          </ns3:TrackPointExtension>
        </extensions>
      </trkpt>
      <trkpt lat="45.27593694627285003662109375" lon="-71.11514073796570301055908203125">
        <ele>840.20001220703125</ele>
        <time>2026-08-22T01:03:45.000Z</time>
        <extensions>
          <ns3:TrackPointExtension>
            <ns3:hr>138</ns3:hr>
            <ns3:cad>0</ns3:cad>
          </ns3:TrackPointExtension>
        </extensions>
      </trkpt>
      <trkpt lat="45.2759334258735179901123046875" lon="-71.11514425836503505706787109375">
        <ele>840.4000244140625</ele>
        <time>2026-08-22T01:03:46.000Z</time>
        <extensions>
          <ns3:TrackPointExtension>
            <ns3:hr>138</ns3:hr>
            <ns3:cad>19</ns3:cad>
          </ns3:TrackPointExtension>
        </extensions>
      </trkpt>
      <trkpt lat="45.27593367733061313629150390625" lon="-71.1151445098221302032470703125">
        <ele>840.5999755859375</ele>
        <time>2026-08-22T01:03:47.000Z</time>
        <extensions>
          <ns3:TrackPointExtension>
            <ns3:hr>138</ns3:hr>
            <ns3:cad>19</ns3:cad>
          </ns3:TrackPointExtension>
        </extensions>
      </trkpt>
      <trkpt lat="45.27593015693128108978271484375" lon="-71.11514559946954250335693359375">
        <ele>840.79998779296875</ele>
        <time>2026-08-22T01:03:48.000Z</time>
        <extensions>
          <ns3:TrackPointExtension>
            <ns3:hr>138</ns3:hr>
            <ns3:cad>51</ns3:cad>
          </ns3:TrackPointExtension>
        </extensions>
      </trkpt>
      <trkpt lat="45.275924205780029296875" lon="-71.11514844931662082672119140625">
        <ele>841.20001220703125</ele>
        <time>2026-08-22T01:03:49.000Z</time>
        <extensions>
          <ns3:TrackPointExtension>
            <ns3:hr>138</ns3:hr>
            <ns3:cad>51</ns3:cad>
          </ns3:TrackPointExtension>
        </extensions>
      </trkpt>
      <trkpt lat="45.275917164981365203857421875" lon="-71.11515632830560207366943359375">
        <ele>841.4000244140625</ele>
        <time>2026-08-22T01:03:50.000Z</time>
        <extensions>
          <ns3:TrackPointExtension>
            <ns3:hr>139</ns3:hr>
            <ns3:cad>0</ns3:cad>
          </ns3:TrackPointExtension>
        </extensions>
      </trkpt>
      <trkpt lat="45.27591473422944545745849609375" lon="-71.1151652969419956207275390625">
        <ele>841.5999755859375</ele>
        <time>2026-08-22T01:03:51.000Z</time>
        <extensions>
          <ns3:TrackPointExtension>
            <ns3:hr>140</ns3:hr>
            <ns3:cad>0</ns3:cad>
          </ns3:TrackPointExtension>
        </extensions>
      </trkpt>
      <trkpt lat="45.2759121358394622802734375" lon="-71.11517208628356456756591796875">
        <ele>841.79998779296875</ele>
        <time>2026-08-22T01:03:52.000Z</time>
        <extensions>
          <ns3:TrackPointExtension>
            <ns3:hr>139</ns3:hr>
            <ns3:cad>0</ns3:cad>
          </ns3:TrackPointExtension>
        </extensions>
      </trkpt>
      <trkpt lat="45.2759042568504810333251953125" lon="-71.1151807196438312530517578125">
        <ele>842</ele>
        <time>2026-08-22T01:03:53.000Z</time>
        <extensions>
          <ns3:TrackPointExtension>
            <ns3:hr>139</ns3:hr>
            <ns3:cad>0</ns3:cad>
          </ns3:TrackPointExtension>
        </extensions>
      </trkpt>
      <trkpt lat="45.275895036756992340087890625" lon="-71.11518532969057559967041015625">
        <ele>842.20001220703125</ele>
        <time>2026-08-22T01:03:54.000Z</time>
        <extensions>
          <ns3:TrackPointExtension>
            <ns3:hr>139</ns3:hr>
            <ns3:cad>0</ns3:cad>
          </ns3:TrackPointExtension>
        </extensions>
      </trkpt>
      <trkpt lat="45.27588791213929653167724609375" lon="-71.11520226113498210906982421875">
        <ele>842.4000244140625</ele>
        <time>2026-08-22T01:03:55.000Z</time>
        <extensions>
          <ns3:TrackPointExtension>
            <ns3:hr>139</ns3:hr>
            <ns3:cad>0</ns3:cad>
          </ns3:TrackPointExtension>
        </extensions>
      </trkpt>
      <trkpt lat="45.2758821286261081695556640625" lon="-71.11521030776202678680419921875">
        <ele>842.5999755859375</ele>
        <time>2026-08-22T01:03:56.000Z</time>
        <extensions>
          <ns3:TrackPointExtension>
            <ns3:hr>139</ns3:hr>
            <ns3:cad>0</ns3:cad>
          </ns3:TrackPointExtension>
        </extensions>
      </trkpt>
      <trkpt lat="45.27588598430156707763671875" lon="-71.11522455699741840362548828125">
        <ele>842.5999755859375</ele>
        <time>2026-08-22T01:03:57.000Z</time>
        <extensions>
          <ns3:TrackPointExtension>
            <ns3:hr>139</ns3:hr>
            <ns3:cad>0</ns3:cad>
          </ns3:TrackPointExtension>
        </extensions>
      </trkpt>
      <trkpt lat="45.2758851461112499237060546875" lon="-71.11524115316569805145263671875">
        <ele>842.79998779296875</ele>
        <time>2026-08-22T01:03:58.000Z</time>
        <extensions>
          <ns3:TrackPointExtension>
            <ns3:hr>138</ns3:hr>
            <ns3:cad>0</ns3:cad>
          </ns3:TrackPointExtension>
        </extensions>
      </trkpt>
      <trkpt lat="45.27588036842644214630126953125" lon="-71.11525590531527996063232421875">
        <ele>842.79998779296875</ele>
        <time>2026-08-22T01:03:59.000Z</time>
        <extensions>
          <ns3:TrackPointExtension>
            <ns3:hr>139</ns3:hr>
            <ns3:cad>0</ns3:cad>
          </ns3:TrackPointExtension>
        </extensions>
      </trkpt>
      <trkpt lat="45.27587835676968097686767578125" lon="-71.11527149565517902374267578125">
        <ele>842.79998779296875</ele>
        <time>2026-08-22T01:04:00.000Z</time>
        <extensions>
          <ns3:TrackPointExtension>
            <ns3:hr>140</ns3:hr>
            <ns3:cad>0</ns3:cad>
          </ns3:TrackPointExtension>
        </extensions>
      </trkpt>
      <trkpt lat="45.27587592601776123046875" lon="-71.11528188921511173248291015625">
        <ele>842.79998779296875</ele>
        <time>2026-08-22T01:04:01.000Z</time>
        <extensions>
          <ns3:TrackPointExtension>
            <ns3:hr>140</ns3:hr>
            <ns3:cad>0</ns3:cad>
          </ns3:TrackPointExtension>
        </extensions>
      </trkpt>
      <trkpt lat="45.2758744172751903533935546875" lon="-71.11529253423213958740234375">
        <ele>842.5999755859375</ele>
        <time>2026-08-22T01:04:02.000Z</time>
        <extensions>
          <ns3:TrackPointExtension>
            <ns3:hr>141</ns3:hr>
            <ns3:cad>0</ns3:cad>
          </ns3:TrackPointExtension>
        </extensions>
      </trkpt>
      <trkpt lat="45.27586813084781169891357421875" lon="-71.11529865302145481109619140625">
        <ele>842.5999755859375</ele>
        <time>2026-08-22T01:04:03.000Z</time>
        <extensions>
          <ns3:TrackPointExtension>
            <ns3:hr>140</ns3:hr>
            <ns3:cad>0</ns3:cad>
          </ns3:TrackPointExtension>
        </extensions>
      </trkpt>
      <trkpt lat="45.2758586592972278594970703125" lon="-71.11530351452529430389404296875">
        <ele>842.5999755859375</ele>
        <time>2026-08-22T01:04:04.000Z</time>
        <extensions>
          <ns3:TrackPointExtension>
            <ns3:hr>140</ns3:hr>
            <ns3:cad>0</ns3:cad>
          </ns3:TrackPointExtension>
        </extensions>
      </trkpt>
      <trkpt lat="45.27586008422076702117919921875" lon="-71.11530435271561145782470703125">
        <ele>842.79998779296875</ele>
        <time>2026-08-22T01:04:05.000Z</time>
        <extensions>
          <ns3:TrackPointExtension>
            <ns3:hr>139</ns3:hr>
            <ns3:cad>0</ns3:cad>
          </ns3:TrackPointExtension>
        </extensions>
      </trkpt>
      <trkpt lat="45.275855474174022674560546875" lon="-71.1153161711990833282470703125">
        <ele>843</ele>
        <time>2026-08-22T01:04:06.000Z</time>
        <extensions>
          <ns3:TrackPointExtension>
            <ns3:hr>139</ns3:hr>
            <ns3:cad>0</ns3:cad>
          </ns3:TrackPointExtension>
        </extensions>
      </trkpt>
      <trkpt lat="45.2758519537746906280517578125" lon="-71.1153292469680309295654296875">
        <ele>843.20001220703125</ele>
        <time>2026-08-22T01:04:07.000Z</time>
        <extensions>
          <ns3:TrackPointExtension>
            <ns3:hr>139</ns3:hr>
            <ns3:cad>0</ns3:cad>
          </ns3:TrackPointExtension>
        </extensions>
      </trkpt>
      <trkpt lat="45.2758422307670116424560546875" lon="-71.11534290947020053863525390625">
        <ele>843.4000244140625</ele>
        <time>2026-08-22T01:04:08.000Z</time>
        <extensions>
          <ns3:TrackPointExtension>
            <ns3:hr>140</ns3:hr>
            <ns3:cad>0</ns3:cad>
          </ns3:TrackPointExtension>
        </extensions>
      </trkpt>
      <trkpt lat="45.27583963237702846527099609375" lon="-71.11535263247787952423095703125">
        <ele>843.4000244140625</ele>
        <time>2026-08-22T01:04:09.000Z</time>
        <extensions>
          <ns3:TrackPointExtension>
            <ns3:hr>140</ns3:hr>
            <ns3:cad>0</ns3:cad>
          </ns3:TrackPointExtension>
        </extensions>
      </trkpt>
      <trkpt lat="45.2758351899683475494384765625" lon="-71.11536470241844654083251953125">
        <ele>843.20001220703125</ele>
        <time>2026-08-22T01:04:10.000Z</time>
        <extensions>
          <ns3:TrackPointExtension>
            <ns3:hr>140</ns3:hr>
            <ns3:cad>0</ns3:cad>
          </ns3:TrackPointExtension>
        </extensions>
      </trkpt>
      <trkpt lat="45.2758284844458103179931640625" lon="-71.11537978984415531158447265625">
        <ele>843.20001220703125</ele>
        <time>2026-08-22T01:04:11.000Z</time>
        <extensions>
          <ns3:TrackPointExtension>
            <ns3:hr>140</ns3:hr>
            <ns3:cad>0</ns3:cad>
          </ns3:TrackPointExtension>
        </extensions>
      </trkpt>
      <trkpt lat="45.27582420967519283294677734375" lon="-71.11539303325116634368896484375">
        <ele>843</ele>
        <time>2026-08-22T01:04:12.000Z</time>
        <extensions>
          <ns3:TrackPointExtension>
            <ns3:hr>140</ns3:hr>
            <ns3:cad>0</ns3:cad>
          </ns3:TrackPointExtension>
        </extensions>
      </trkpt>
      <trkpt lat="45.27582563459873199462890625" lon="-71.11539806239306926727294921875">
        <ele>843.20001220703125</ele>
        <time>2026-08-22T01:04:13.000Z</time>
        <extensions>
          <ns3:TrackPointExtension>
            <ns3:hr>140</ns3:hr>
            <ns3:cad>0</ns3:cad>
          </ns3:TrackPointExtension>
        </extensions>
      </trkpt>
      <trkpt lat="45.2758211083710193634033203125" lon="-71.115408204495906829833984375">
        <ele>843.20001220703125</ele>
        <time>2026-08-22T01:04:14.000Z</time>
        <extensions>
          <ns3:TrackPointExtension>
            <ns3:hr>140</ns3:hr>
            <ns3:cad>0</ns3:cad>
          </ns3:TrackPointExtension>
        </extensions>
      </trkpt>
      <trkpt lat="45.2758184261620044708251953125" lon="-71.1154127307236194610595703125">
        <ele>843.4000244140625</ele>
        <time>2026-08-22T01:04:15.000Z</time>
        <extensions>
          <ns3:TrackPointExtension>
            <ns3:hr>140</ns3:hr>
            <ns3:cad>0</ns3:cad>
          </ns3:TrackPointExtension>
        </extensions>
      </trkpt>
      <trkpt lat="45.27581230737268924713134765625" lon="-71.11541725695133209228515625">
        <ele>843.5999755859375</ele>
        <time>2026-08-22T01:04:16.000Z</time>
        <extensions>
          <ns3:TrackPointExtension>
            <ns3:hr>140</ns3:hr>
            <ns3:cad>0</ns3:cad>
          </ns3:TrackPointExtension>
        </extensions>
      </trkpt>
      <trkpt lat="45.27580761350691318511962890625" lon="-71.11542169936001300811767578125">
        <ele>843.5999755859375</ele>
        <time>2026-08-22T01:04:17.000Z</time>
        <extensions>
          <ns3:TrackPointExtension>
            <ns3:hr>140</ns3:hr>
            <ns3:cad>0</ns3:cad>
          </ns3:TrackPointExtension>
        </extensions>
      </trkpt>
      <trkpt lat="45.27580342255532741546630859375" lon="-71.1154254712164402008056640625">
        <ele>843.79998779296875</ele>
        <time>2026-08-22T01:04:18.000Z</time>
        <extensions>
          <ns3:TrackPointExtension>
            <ns3:hr>139</ns3:hr>
            <ns3:cad>0</ns3:cad>
          </ns3:TrackPointExtension>
        </extensions>
      </trkpt>
      <trkpt lat="45.27579654939472675323486328125" lon="-71.11543376930058002471923828125">
        <ele>844.20001220703125</ele>
        <time>2026-08-22T01:04:19.000Z</time>
        <extensions>
          <ns3:TrackPointExtension>
            <ns3:hr>140</ns3:hr>
            <ns3:cad>0</ns3:cad>
          </ns3:TrackPointExtension>
        </extensions>
      </trkpt>
      <trkpt lat="45.2757952921092510223388671875" lon="-71.1154405586421489715576171875">
        <ele>844.4000244140625</ele>
        <time>2026-08-22T01:04:20.000Z</time>
        <extensions>
          <ns3:TrackPointExtension>
            <ns3:hr>140</ns3:hr>
            <ns3:cad>0</ns3:cad>
          </ns3:TrackPointExtension>
        </extensions>
      </trkpt>
      <trkpt lat="45.27579286135733127593994140625" lon="-71.1154482699930667877197265625">
        <ele>844.5999755859375</ele>
        <time>2026-08-22T01:04:21.000Z</time>
        <extensions>
          <ns3:TrackPointExtension>
            <ns3:hr>140</ns3:hr>
            <ns3:cad>0</ns3:cad>
          </ns3:TrackPointExtension>
        </extensions>
      </trkpt>
      <trkpt lat="45.2757835574448108673095703125" lon="-71.11545673571527004241943359375">
        <ele>844.79998779296875</ele>
        <time>2026-08-22T01:04:22.000Z</time>
        <extensions>
          <ns3:TrackPointExtension>
            <ns3:hr>139</ns3:hr>
            <ns3:cad>0</ns3:cad>
          </ns3:TrackPointExtension>
        </extensions>
      </trkpt>
      <trkpt lat="45.2757755108177661895751953125" lon="-71.11546696163713932037353515625">
        <ele>845</ele>
        <time>2026-08-22T01:04:23.000Z</time>
        <extensions>
          <ns3:TrackPointExtension>
            <ns3:hr>139</ns3:hr>
            <ns3:cad>0</ns3:cad>
          </ns3:TrackPointExtension>
        </extensions>
      </trkpt>
      <trkpt lat="45.2757708169519901275634765625" lon="-71.1154740862548351287841796875">
        <ele>845</ele>
        <time>2026-08-22T01:04:24.000Z</time>
        <extensions>
          <ns3:TrackPointExtension>
            <ns3:hr>139</ns3:hr>
            <ns3:cad>0</ns3:cad>
          </ns3:TrackPointExtension>
        </extensions>
      </trkpt>
      <trkpt lat="45.2757657878100872039794921875" lon="-71.11547626554965972900390625">
        <ele>845.20001220703125</ele>
        <time>2026-08-22T01:04:25.000Z</time>
        <extensions>
          <ns3:TrackPointExtension>
            <ns3:hr>139</ns3:hr>
            <ns3:cad>0</ns3:cad>
          </ns3:TrackPointExtension>
        </extensions>
      </trkpt>
      <trkpt lat="45.27575028128921985626220703125" lon="-71.11547626554965972900390625">
        <ele>845.4000244140625</ele>
        <time>2026-08-22T01:04:26.000Z</time>
        <extensions>
          <ns3:TrackPointExtension>
            <ns3:hr>139</ns3:hr>
            <ns3:cad>0</ns3:cad>
          </ns3:TrackPointExtension>
        </extensions>
      </trkpt>
      <trkpt lat="45.27574609033763408660888671875" lon="-71.11547903157770633697509765625">
        <ele>845.5999755859375</ele>
        <time>2026-08-22T01:04:27.000Z</time>
        <extensions>
          <ns3:TrackPointExtension>
            <ns3:hr>139</ns3:hr>
            <ns3:cad>0</ns3:cad>
          </ns3:TrackPointExtension>
        </extensions>
      </trkpt>
      <trkpt lat="45.27573846280574798583984375" lon="-71.1154908500611782073974609375">
        <ele>845.79998779296875</ele>
        <time>2026-08-22T01:04:28.000Z</time>
        <extensions>
          <ns3:TrackPointExtension>
            <ns3:hr>138</ns3:hr>
            <ns3:cad>0</ns3:cad>
          </ns3:TrackPointExtension>
        </extensions>
      </trkpt>
      <trkpt lat="45.27573108673095703125" lon="-71.115507446229457855224609375">
        <ele>846</ele>
        <time>2026-08-22T01:04:29.000Z</time>
        <extensions>
          <ns3:TrackPointExtension>
            <ns3:hr>138</ns3:hr>
            <ns3:cad>0</ns3:cad>
          </ns3:TrackPointExtension>
        </extensions>
      </trkpt>
      <trkpt lat="45.27572999708354473114013671875" lon="-71.115522198379039764404296875">
        <ele>846</ele>
        <time>2026-08-22T01:04:30.000Z</time>
        <extensions>
          <ns3:TrackPointExtension>
            <ns3:hr>138</ns3:hr>
            <ns3:cad>0</ns3:cad>
          </ns3:TrackPointExtension>
        </extensions>
      </trkpt>
      <trkpt lat="45.2757325954735279083251953125" lon="-71.1155359447002410888671875">
        <ele>846</ele>
        <time>2026-08-22T01:04:31.000Z</time>
        <extensions>
          <ns3:TrackPointExtension>
            <ns3:hr>138</ns3:hr>
            <ns3:cad>0</ns3:cad>
          </ns3:TrackPointExtension>
        </extensions>
      </trkpt>
      <trkpt lat="45.27572949416935443878173828125" lon="-71.11555580981075763702392578125">
        <ele>846</ele>
        <time>2026-08-22T01:04:32.000Z</time>
        <extensions>
          <ns3:TrackPointExtension>
            <ns3:hr>139</ns3:hr>
            <ns3:cad>0</ns3:cad>
          </ns3:TrackPointExtension>
        </extensions>
      </trkpt>
      <trkpt lat="45.27572630904614925384521484375" lon="-71.11557626165449619293212890625">
        <ele>845.79998779296875</ele>
        <time>2026-08-22T01:04:33.000Z</time>
        <extensions>
          <ns3:TrackPointExtension>
            <ns3:hr>139</ns3:hr>
            <ns3:cad>0</ns3:cad>
          </ns3:TrackPointExtension>
        </extensions>
      </trkpt>
      <trkpt lat="45.275724716484546661376953125" lon="-71.11559218727052211761474609375">
        <ele>845.79998779296875</ele>
        <time>2026-08-22T01:04:34.000Z</time>
        <extensions>
          <ns3:TrackPointExtension>
            <ns3:hr>140</ns3:hr>
            <ns3:cad>0</ns3:cad>
          </ns3:TrackPointExtension>
        </extensions>
      </trkpt>
      <trkpt lat="45.27572060935199260711669921875" lon="-71.115606687963008880615234375">
        <ele>845.79998779296875</ele>
        <time>2026-08-22T01:04:35.000Z</time>
        <extensions>
          <ns3:TrackPointExtension>
            <ns3:hr>140</ns3:hr>
            <ns3:cad>0</ns3:cad>
          </ns3:TrackPointExtension>
        </extensions>
      </trkpt>
      <trkpt lat="45.27571155689656734466552734375" lon="-71.1156256310641765594482421875">
        <ele>845.79998779296875</ele>
        <time>2026-08-22T01:04:36.000Z</time>
        <extensions>
          <ns3:TrackPointExtension>
            <ns3:hr>140</ns3:hr>
            <ns3:cad>0</ns3:cad>
          </ns3:TrackPointExtension>
        </extensions>
      </trkpt>
      <trkpt lat="45.275706611573696136474609375" lon="-71.115639209747314453125">
        <ele>845.79998779296875</ele>
        <time>2026-08-22T01:04:37.000Z</time>
        <extensions>
          <ns3:TrackPointExtension>
            <ns3:hr>140</ns3:hr>
            <ns3:cad>0</ns3:cad>
          </ns3:TrackPointExtension>
        </extensions>
      </trkpt>
      <trkpt lat="45.27570686303079128265380859375" lon="-71.1156541295349597930908203125">
        <ele>845.79998779296875</ele>
        <time>2026-08-22T01:04:38.000Z</time>
        <extensions>
          <ns3:TrackPointExtension>
            <ns3:hr>140</ns3:hr>
            <ns3:cad>0</ns3:cad>
          </ns3:TrackPointExtension>
        </extensions>
      </trkpt>
      <trkpt lat="45.2757084555923938751220703125" lon="-71.11567332409322261810302734375">
        <ele>845.79998779296875</ele>
        <time>2026-08-22T01:04:39.000Z</time>
        <extensions>
          <ns3:TrackPointExtension>
            <ns3:hr>140</ns3:hr>
            <ns3:cad>0</ns3:cad>
          </ns3:TrackPointExtension>
        </extensions>
      </trkpt>
      <trkpt lat="45.27571155689656734466552734375" lon="-71.11568204127252101898193359375">
        <ele>845.79998779296875</ele>
        <time>2026-08-22T01:04:40.000Z</time>
        <extensions>
          <ns3:TrackPointExtension>
            <ns3:hr>140</ns3:hr>
            <ns3:cad>0</ns3:cad>
          </ns3:TrackPointExtension>
        </extensions>
      </trkpt>
      <trkpt lat="45.27570971287786960601806640625" lon="-71.11570182256400585174560546875">
        <ele>845.79998779296875</ele>
        <time>2026-08-22T01:04:41.000Z</time>
        <extensions>
          <ns3:TrackPointExtension>
            <ns3:hr>140</ns3:hr>
            <ns3:cad>0</ns3:cad>
          </ns3:TrackPointExtension>
        </extensions>
      </trkpt>
      <trkpt lat="45.2757071144878864288330078125" lon="-71.11571640707552433013916015625">
        <ele>845.5999755859375</ele>
        <time>2026-08-22T01:04:42.000Z</time>
        <extensions>
          <ns3:TrackPointExtension>
            <ns3:hr>140</ns3:hr>
            <ns3:cad>0</ns3:cad>
          </ns3:TrackPointExtension>
        </extensions>
      </trkpt>
      <trkpt lat="45.27570426464080810546875" lon="-71.11573166213929653167724609375">
        <ele>845.5999755859375</ele>
        <time>2026-08-22T01:04:43.000Z</time>
        <extensions>
          <ns3:TrackPointExtension>
            <ns3:hr>140</ns3:hr>
            <ns3:cad>0</ns3:cad>
          </ns3:TrackPointExtension>
        </extensions>
      </trkpt>
      <trkpt lat="45.27570451609790325164794921875" lon="-71.11574104987084865570068359375">
        <ele>845.5999755859375</ele>
        <time>2026-08-22T01:04:44.000Z</time>
        <extensions>
          <ns3:TrackPointExtension>
            <ns3:hr>140</ns3:hr>
            <ns3:cad>0</ns3:cad>
          </ns3:TrackPointExtension>
        </extensions>
      </trkpt>
      <trkpt lat="45.2757020853459835052490234375" lon="-71.11574993468821048736572265625">
        <ele>845.5999755859375</ele>
        <time>2026-08-22T01:04:45.000Z</time>
        <extensions>
          <ns3:TrackPointExtension>
            <ns3:hr>139</ns3:hr>
            <ns3:cad>0</ns3:cad>
          </ns3:TrackPointExtension>
        </extensions>
      </trkpt>
      <trkpt lat="45.2756973914802074432373046875" lon="-71.11576057970523834228515625">
        <ele>845.5999755859375</ele>
        <time>2026-08-22T01:04:46.000Z</time>
        <extensions>
          <ns3:TrackPointExtension>
            <ns3:hr>138</ns3:hr>
            <ns3:cad>0</ns3:cad>
          </ns3:TrackPointExtension>
        </extensions>
      </trkpt>
      <trkpt lat="45.27569563128054141998291015625" lon="-71.1157687939703464508056640625">
        <ele>845.5999755859375</ele>
        <time>2026-08-22T01:04:47.000Z</time>
        <extensions>
          <ns3:TrackPointExtension>
            <ns3:hr>138</ns3:hr>
            <ns3:cad>0</ns3:cad>
          </ns3:TrackPointExtension>
        </extensions>
      </trkpt>
      <trkpt lat="45.27568791992962360382080078125" lon="-71.11577038653194904327392578125">
        <ele>845.79998779296875</ele>
        <time>2026-08-22T01:04:48.000Z</time>
        <extensions>
          <ns3:TrackPointExtension>
            <ns3:hr>138</ns3:hr>
            <ns3:cad>0</ns3:cad>
          </ns3:TrackPointExtension>
        </extensions>
      </trkpt>
      <trkpt lat="45.27568674646317958831787109375" lon="-71.1157828755676746368408203125">
        <ele>846</ele>
        <time>2026-08-22T01:04:49.000Z</time>
        <extensions>
          <ns3:TrackPointExtension>
            <ns3:hr>138</ns3:hr>
            <ns3:cad>41</ns3:cad>
          </ns3:TrackPointExtension>
        </extensions>
      </trkpt>
      <trkpt lat="45.2756816335022449493408203125" lon="-71.11579502932727336883544921875">
        <ele>846.20001220703125</ele>
        <time>2026-08-22T01:04:50.000Z</time>
        <extensions>
          <ns3:TrackPointExtension>
            <ns3:hr>138</ns3:hr>
            <ns3:cad>41</ns3:cad>
          </ns3:TrackPointExtension>
        </extensions>
      </trkpt>
      <trkpt lat="45.27567719109356403350830078125" lon="-71.1157972924411296844482421875">
        <ele>846.4000244140625</ele>
        <time>2026-08-22T01:04:51.000Z</time>
        <extensions>
          <ns3:TrackPointExtension>
            <ns3:hr>137</ns3:hr>
            <ns3:cad>41</ns3:cad>
          </ns3:TrackPointExtension>
        </extensions>
      </trkpt>
      <trkpt lat="45.27567006647586822509765625" lon="-71.115803830325603485107421875">
        <ele>846.79998779296875</ele>
        <time>2026-08-22T01:04:52.000Z</time>
        <extensions>
          <ns3:TrackPointExtension>
            <ns3:hr>137</ns3:hr>
            <ns3:cad>0</ns3:cad>
          </ns3:TrackPointExtension>
        </extensions>
      </trkpt>
      <trkpt lat="45.2756638638675212860107421875" lon="-71.11581414006650447845458984375">
        <ele>847</ele>
        <time>2026-08-22T01:04:53.000Z</time>
        <extensions>
          <ns3:TrackPointExtension>
            <ns3:hr>137</ns3:hr>
            <ns3:cad>0</ns3:cad>
          </ns3:TrackPointExtension>
        </extensions>
      </trkpt>
      <trkpt lat="45.275665707886219024658203125" lon="-71.11582495272159576416015625">
        <ele>847.20001220703125</ele>
        <time>2026-08-22T01:04:54.000Z</time>
        <extensions>
          <ns3:TrackPointExtension>
            <ns3:hr>136</ns3:hr>
            <ns3:cad>0</ns3:cad>
          </ns3:TrackPointExtension>
        </extensions>
      </trkpt>
      <trkpt lat="45.275654979050159454345703125" lon="-71.11583543010056018829345703125">
        <ele>847.4000244140625</ele>
        <time>2026-08-22T01:04:55.000Z</time>
        <extensions>
          <ns3:TrackPointExtension>
            <ns3:hr>135</ns3:hr>
            <ns3:cad>0</ns3:cad>
          </ns3:TrackPointExtension>
        </extensions>
      </trkpt>
      <trkpt lat="45.27566009201109409332275390625" lon="-71.11583459191024303436279296875">
        <ele>847.5999755859375</ele>
        <time>2026-08-22T01:04:56.000Z</time>
        <extensions>
          <ns3:TrackPointExtension>
            <ns3:hr>134</ns3:hr>
            <ns3:cad>0</ns3:cad>
          </ns3:TrackPointExtension>
        </extensions>
      </trkpt>
      <trkpt lat="45.27565623633563518524169921875" lon="-71.1158445663750171661376953125">
        <ele>847.79998779296875</ele>
        <time>2026-08-22T01:04:57.000Z</time>
        <extensions>
          <ns3:TrackPointExtension>
            <ns3:hr>134</ns3:hr>
            <ns3:cad>0</ns3:cad>
          </ns3:TrackPointExtension>
        </extensions>
      </trkpt>
      <trkpt lat="45.27565070427954196929931640625" lon="-71.115854121744632720947265625">
        <ele>848</ele>
        <time>2026-08-22T01:04:58.000Z</time>
        <extensions>
          <ns3:TrackPointExtension>
            <ns3:hr>134</ns3:hr>
            <ns3:cad>0</ns3:cad>
          </ns3:TrackPointExtension>
        </extensions>
      </trkpt>
      <trkpt lat="45.27564190328121185302734375" lon="-71.11586384475231170654296875">
        <ele>848</ele>
        <time>2026-08-22T01:04:59.000Z</time>
        <extensions>
          <ns3:TrackPointExtension>
            <ns3:hr>134</ns3:hr>
            <ns3:cad>0</ns3:cad>
          </ns3:TrackPointExtension>
        </extensions>
      </trkpt>
      <trkpt lat="45.27563729323446750640869140625" lon="-71.1158707179129123687744140625">
        <ele>848.20001220703125</ele>
        <time>2026-08-22T01:05:00.000Z</time>
        <extensions>
          <ns3:TrackPointExtension>
            <ns3:hr>134</ns3:hr>
            <ns3:cad>0</ns3:cad>
          </ns3:TrackPointExtension>
        </extensions>
      </trkpt>
      <trkpt lat="45.27562958188354969024658203125" lon="-71.11588060855865478515625">
        <ele>848.20001220703125</ele>
        <time>2026-08-22T01:05:01.000Z</time>
        <extensions>
          <ns3:TrackPointExtension>
            <ns3:hr>134</ns3:hr>
            <ns3:cad>0</ns3:cad>
          </ns3:TrackPointExtension>
        </extensions>
      </trkpt>
      <trkpt lat="45.2756259776651859283447265625" lon="-71.11588220112025737762451171875">
        <ele>848.4000244140625</ele>
        <time>2026-08-22T01:05:02.000Z</time>
        <extensions>
          <ns3:TrackPointExtension>
            <ns3:hr>134</ns3:hr>
            <ns3:cad>0</ns3:cad>
          </ns3:TrackPointExtension>
        </extensions>
      </trkpt>
      <trkpt lat="45.27561063878238201141357421875" lon="-71.115878932178020477294921875">
        <ele>848.5999755859375</ele>
        <time>2026-08-22T01:05:03.000Z</time>
        <extensions>
          <ns3:TrackPointExtension>
            <ns3:hr>134</ns3:hr>
            <ns3:cad>0</ns3:cad>
          </ns3:TrackPointExtension>
        </extensions>
      </trkpt>
      <trkpt lat="45.27560628019273281097412109375" lon="-71.1158841289579868316650390625">
        <ele>848.79998779296875</ele>
        <time>2026-08-22T01:05:04.000Z</time>
        <extensions>
          <ns3:TrackPointExtension>
            <ns3:hr>134</ns3:hr>
            <ns3:cad>0</ns3:cad>
          </ns3:TrackPointExtension>
        </extensions>
      </trkpt>
      <trkpt lat="45.2756051905453205108642578125" lon="-71.1158888228237628936767578125">
        <ele>849</ele>
        <time>2026-08-22T01:05:05.000Z</time>
        <extensions>
          <ns3:TrackPointExtension>
            <ns3:hr>134</ns3:hr>
            <ns3:cad>0</ns3:cad>
          </ns3:TrackPointExtension>
        </extensions>
      </trkpt>
      <trkpt lat="45.27559840120375156402587890625" lon="-71.11589209176599979400634765625">
        <ele>849.4000244140625</ele>
        <time>2026-08-22T01:05:06.000Z</time>
        <extensions>
          <ns3:TrackPointExtension>
            <ns3:hr>133</ns3:hr>
            <ns3:cad>0</ns3:cad>
          </ns3:TrackPointExtension>
        </extensions>
      </trkpt>
      <trkpt lat="45.27559169568121433258056640625" lon="-71.11589728854596614837646484375">
        <ele>849.5999755859375</ele>
        <time>2026-08-22T01:05:07.000Z</time>
        <extensions>
          <ns3:TrackPointExtension>
            <ns3:hr>133</ns3:hr>
            <ns3:cad>0</ns3:cad>
          </ns3:TrackPointExtension>
        </extensions>
      </trkpt>
      <trkpt lat="45.275585241615772247314453125" lon="-71.1159075982868671417236328125">
        <ele>849.79998779296875</ele>
        <time>2026-08-22T01:05:08.000Z</time>
        <extensions>
          <ns3:TrackPointExtension>
            <ns3:hr>133</ns3:hr>
            <ns3:cad>0</ns3:cad>
          </ns3:TrackPointExtension>
        </extensions>
      </trkpt>
      <trkpt lat="45.27557761408388614654541015625" lon="-71.115917153656482696533203125">
        <ele>849.79998779296875</ele>
        <time>2026-08-22T01:05:09.000Z</time>
        <extensions>
          <ns3:TrackPointExtension>
            <ns3:hr>132</ns3:hr>
            <ns3:cad>0</ns3:cad>
          </ns3:TrackPointExtension>
        </extensions>
      </trkpt>
      <trkpt lat="45.2755709923803806304931640625" lon="-71.11592595465481281280517578125">
        <ele>850</ele>
        <time>2026-08-22T01:05:10.000Z</time>
        <extensions>
          <ns3:TrackPointExtension>
            <ns3:hr>130</ns3:hr>
            <ns3:cad>0</ns3:cad>
          </ns3:TrackPointExtension>
        </extensions>
      </trkpt>
      <trkpt lat="45.27556009590625762939453125" lon="-71.11593358218669891357421875">
        <ele>850</ele>
        <time>2026-08-22T01:05:11.000Z</time>
        <extensions>
          <ns3:TrackPointExtension>
            <ns3:hr>130</ns3:hr>
            <ns3:cad>0</ns3:cad>
          </ns3:TrackPointExtension>
        </extensions>
      </trkpt>
      <trkpt lat="45.27555196546018123626708984375" lon="-71.1159424670040607452392578125">
        <ele>850.20001220703125</ele>
        <time>2026-08-22T01:05:12.000Z</time>
        <extensions>
          <ns3:TrackPointExtension>
            <ns3:hr>130</ns3:hr>
            <ns3:cad>0</ns3:cad>
          </ns3:TrackPointExtension>
        </extensions>
      </trkpt>
      <trkpt lat="45.27554241009056568145751953125" lon="-71.11595227383077144622802734375">
        <ele>850.4000244140625</ele>
        <time>2026-08-22T01:05:13.000Z</time>
        <extensions>
          <ns3:TrackPointExtension>
            <ns3:hr>131</ns3:hr>
            <ns3:cad>0</ns3:cad>
          </ns3:TrackPointExtension>
        </extensions>
      </trkpt>
      <trkpt lat="45.275537632405757904052734375" lon="-71.115956716239452362060546875">
        <ele>850.4000244140625</ele>
        <time>2026-08-22T01:05:14.000Z</time>
        <extensions>
          <ns3:TrackPointExtension>
            <ns3:hr>132</ns3:hr>
            <ns3:cad>0</ns3:cad>
          </ns3:TrackPointExtension>
        </extensions>
      </trkpt>
      <trkpt lat="45.27553000487387180328369140625" lon="-71.11595847643911838531494140625">
        <ele>850.5999755859375</ele>
        <time>2026-08-22T01:05:15.000Z</time>
        <extensions>
          <ns3:TrackPointExtension>
            <ns3:hr>132</ns3:hr>
            <ns3:cad>0</ns3:cad>
          </ns3:TrackPointExtension>
        </extensions>
      </trkpt>
      <trkpt lat="45.27552229352295398712158203125" lon="-71.11596551723778247833251953125">
        <ele>850.5999755859375</ele>
        <time>2026-08-22T01:05:16.000Z</time>
        <extensions>
          <ns3:TrackPointExtension>
            <ns3:hr>132</ns3:hr>
            <ns3:cad>0</ns3:cad>
          </ns3:TrackPointExtension>
        </extensions>
      </trkpt>
      <trkpt lat="45.275522209703922271728515625" lon="-71.11597825773060321807861328125">
        <ele>850.79998779296875</ele>
        <time>2026-08-22T01:05:17.000Z</time>
        <extensions>
          <ns3:TrackPointExtension>
            <ns3:hr>133</ns3:hr>
            <ns3:cad>0</ns3:cad>
          </ns3:TrackPointExtension>
        </extensions>
      </trkpt>
      <trkpt lat="45.27551810257136821746826171875" lon="-71.11598915420472621917724609375">
        <ele>850.79998779296875</ele>
        <time>2026-08-22T01:05:18.000Z</time>
        <extensions>
          <ns3:TrackPointExtension>
            <ns3:hr>133</ns3:hr>
            <ns3:cad>0</ns3:cad>
          </ns3:TrackPointExtension>
        </extensions>
      </trkpt>
      <trkpt lat="45.27551307342946529388427734375" lon="-71.1159932613372802734375">
        <ele>850.79998779296875</ele>
        <time>2026-08-22T01:05:19.000Z</time>
        <extensions>
          <ns3:TrackPointExtension>
            <ns3:hr>132</ns3:hr>
            <ns3:cad>0</ns3:cad>
          </ns3:TrackPointExtension>
        </extensions>
      </trkpt>
      <trkpt lat="45.27550779283046722412109375" lon="-71.11599736846983432769775390625">
        <ele>851</ele>
        <time>2026-08-22T01:05:20.000Z</time>
        <extensions>
          <ns3:TrackPointExtension>
            <ns3:hr>133</ns3:hr>
            <ns3:cad>73</ns3:cad>
          </ns3:TrackPointExtension>
        </extensions>
      </trkpt>
      <trkpt lat="45.275503434240818023681640625" lon="-71.11600088886916637420654296875">
        <ele>851</ele>
        <time>2026-08-22T01:05:21.000Z</time>
        <extensions>
          <ns3:TrackPointExtension>
            <ns3:hr>133</ns3:hr>
            <ns3:cad>73</ns3:cad>
          </ns3:TrackPointExtension>
        </extensions>
      </trkpt>
      <trkpt lat="45.27550033293664455413818359375" lon="-71.11600390635430812835693359375">
        <ele>851.20001220703125</ele>
        <time>2026-08-22T01:05:22.000Z</time>
        <extensions>
          <ns3:TrackPointExtension>
            <ns3:hr>133</ns3:hr>
            <ns3:cad>73</ns3:cad>
          </ns3:TrackPointExtension>
        </extensions>
      </trkpt>
      <trkpt lat="45.27549597434699535369873046875" lon="-71.11601949669420719146728515625">
        <ele>851.4000244140625</ele>
        <time>2026-08-22T01:05:23.000Z</time>
        <extensions>
          <ns3:TrackPointExtension>
            <ns3:hr>134</ns3:hr>
            <ns3:cad>73</ns3:cad>
          </ns3:TrackPointExtension>
        </extensions>
      </trkpt>
      <trkpt lat="45.27549530379474163055419921875" lon="-71.11602938733994960784912109375">
        <ele>851.5999755859375</ele>
        <time>2026-08-22T01:05:24.000Z</time>
        <extensions>
          <ns3:TrackPointExtension>
            <ns3:hr>134</ns3:hr>
            <ns3:cad>73</ns3:cad>
          </ns3:TrackPointExtension>
        </extensions>
      </trkpt>
      <trkpt lat="45.27548767626285552978515625" lon="-71.11604464240372180938720703125">
        <ele>852</ele>
        <time>2026-08-22T01:05:25.000Z</time>
        <extensions>
          <ns3:TrackPointExtension>
            <ns3:hr>133</ns3:hr>
            <ns3:cad>73</ns3:cad>
          </ns3:TrackPointExtension>
        </extensions>
      </trkpt>
      <trkpt lat="45.27548356913030147552490234375" lon="-71.1160561256110668182373046875">
        <ele>852.20001220703125</ele>
        <time>2026-08-22T01:05:26.000Z</time>
        <extensions>
          <ns3:TrackPointExtension>
            <ns3:hr>134</ns3:hr>
            <ns3:cad>73</ns3:cad>
          </ns3:TrackPointExtension>
        </extensions>
      </trkpt>
      <trkpt lat="45.27547619305551052093505859375" lon="-71.11608085222542285919189453125">
        <ele>852.4000244140625</ele>
        <time>2026-08-22T01:05:27.000Z</time>
        <extensions>
          <ns3:TrackPointExtension>
            <ns3:hr>134</ns3:hr>
            <ns3:cad>0</ns3:cad>
          </ns3:TrackPointExtension>
        </extensions>
      </trkpt>
      <trkpt lat="45.275470912456512451171875" lon="-71.11610046587884426116943359375">
        <ele>852.4000244140625</ele>
        <time>2026-08-22T01:05:28.000Z</time>
        <extensions>
          <ns3:TrackPointExtension>
            <ns3:hr>134</ns3:hr>
            <ns3:cad>0</ns3:cad>
          </ns3:TrackPointExtension>
        </extensions>
      </trkpt>
      <trkpt lat="45.27546579949557781219482421875" lon="-71.11611957661807537078857421875">
        <ele>852.4000244140625</ele>
        <time>2026-08-22T01:05:29.000Z</time>
        <extensions>
          <ns3:TrackPointExtension>
            <ns3:hr>134</ns3:hr>
            <ns3:cad>0</ns3:cad>
          </ns3:TrackPointExtension>
        </extensions>
      </trkpt>
      <trkpt lat="45.2754615247249603271484375" lon="-71.11613114364445209503173828125">
        <ele>852.4000244140625</ele>
        <time>2026-08-22T01:05:30.000Z</time>
        <extensions>
          <ns3:TrackPointExtension>
            <ns3:hr>133</ns3:hr>
            <ns3:cad>0</ns3:cad>
          </ns3:TrackPointExtension>
        </extensions>
      </trkpt>
      <trkpt lat="45.2754580043256282806396484375" lon="-71.1161362566053867340087890625">
        <ele>852.4000244140625</ele>
        <time>2026-08-22T01:05:31.000Z</time>
        <extensions>
          <ns3:TrackPointExtension>
            <ns3:hr>134</ns3:hr>
            <ns3:cad>0</ns3:cad>
          </ns3:TrackPointExtension>
        </extensions>
      </trkpt>
      <trkpt lat="45.27545574121177196502685546875" lon="-71.11614371649920940399169921875">
        <ele>852.4000244140625</ele>
        <time>2026-08-22T01:05:32.000Z</time>
        <extensions>
          <ns3:TrackPointExtension>
            <ns3:hr>134</ns3:hr>
            <ns3:cad>0</ns3:cad>
          </ns3:TrackPointExtension>
        </extensions>
      </trkpt>
      <trkpt lat="45.275447778403759002685546875" lon="-71.1161533556878566741943359375">
        <ele>852.4000244140625</ele>
        <time>2026-08-22T01:05:33.000Z</time>
        <extensions>
          <ns3:TrackPointExtension>
            <ns3:hr>135</ns3:hr>
            <ns3:cad>0</ns3:cad>
          </ns3:TrackPointExtension>
        </extensions>
      </trkpt>
      <trkpt lat="45.27544467709958553314208984375" lon="-71.11615712754428386688232421875">
        <ele>852.4000244140625</ele>
        <time>2026-08-22T01:05:34.000Z</time>
        <extensions>
          <ns3:TrackPointExtension>
            <ns3:hr>136</ns3:hr>
            <ns3:cad>43</ns3:cad>
          </ns3:TrackPointExtension>
        </extensions>
      </trkpt>
      <trkpt lat="45.27544283308088779449462890625" lon="-71.11616098321974277496337890625">
        <ele>852.4000244140625</ele>
        <time>2026-08-22T01:05:35.000Z</time>
        <extensions>
          <ns3:TrackPointExtension>
            <ns3:hr>136</ns3:hr>
            <ns3:cad>44</ns3:cad>
          </ns3:TrackPointExtension>
        </extensions>
      </trkpt>
      <trkpt lat="45.275441743433475494384765625" lon="-71.1161704547703266143798828125">
        <ele>852.4000244140625</ele>
        <time>2026-08-22T01:05:36.000Z</time>
        <extensions>
          <ns3:TrackPointExtension>
            <ns3:hr>136</ns3:hr>
            <ns3:cad>44</ns3:cad>
          </ns3:TrackPointExtension>
        </extensions>
      </trkpt>
      <trkpt lat="45.2754372172057628631591796875" lon="-71.11618394963443279266357421875">
        <ele>852.5999755859375</ele>
        <time>2026-08-22T01:05:37.000Z</time>
        <extensions>
          <ns3:TrackPointExtension>
            <ns3:hr>136</ns3:hr>
            <ns3:cad>44</ns3:cad>
          </ns3:TrackPointExtension>
        </extensions>
      </trkpt>
      <trkpt lat="45.275433361530303955078125" lon="-71.11619937233626842498779296875">
        <ele>852.5999755859375</ele>
        <time>2026-08-22T01:05:38.000Z</time>
        <extensions>
          <ns3:TrackPointExtension>
            <ns3:hr>136</ns3:hr>
            <ns3:cad>44</ns3:cad>
          </ns3:TrackPointExtension>
        </extensions>
      </trkpt>
      <trkpt lat="45.27542808093130588531494140625" lon="-71.11621429212391376495361328125">
        <ele>852.5999755859375</ele>
        <time>2026-08-22T01:05:39.000Z</time>
        <extensions>
          <ns3:TrackPointExtension>
            <ns3:hr>136</ns3:hr>
            <ns3:cad>44</ns3:cad>
          </ns3:TrackPointExtension>
        </extensions>
      </trkpt>
      <trkpt lat="45.275422967970371246337890625" lon="-71.11623189412057399749755859375">
        <ele>852.5999755859375</ele>
        <time>2026-08-22T01:05:40.000Z</time>
        <extensions>
          <ns3:TrackPointExtension>
            <ns3:hr>136</ns3:hr>
            <ns3:cad>44</ns3:cad>
          </ns3:TrackPointExtension>
        </extensions>
      </trkpt>
      <trkpt lat="45.2754207886755466461181640625" lon="-71.11624195240437984466552734375">
        <ele>852.79998779296875</ele>
        <time>2026-08-22T01:05:41.000Z</time>
        <extensions>
          <ns3:TrackPointExtension>
            <ns3:hr>135</ns3:hr>
            <ns3:cad>44</ns3:cad>
          </ns3:TrackPointExtension>
        </extensions>
      </trkpt>
      <trkpt lat="45.2754132449626922607421875" lon="-71.11626039259135723114013671875">
        <ele>852.79998779296875</ele>
        <time>2026-08-22T01:05:42.000Z</time>
        <extensions>
          <ns3:TrackPointExtension>
            <ns3:hr>135</ns3:hr>
            <ns3:cad>44</ns3:cad>
          </ns3:TrackPointExtension>
        </extensions>
      </trkpt>
      <trkpt lat="45.27541165240108966827392578125" lon="-71.11627288162708282470703125">
        <ele>853</ele>
        <time>2026-08-22T01:05:43.000Z</time>
        <extensions>
          <ns3:TrackPointExtension>
            <ns3:hr>134</ns3:hr>
            <ns3:cad>44</ns3:cad>
          </ns3:TrackPointExtension>
        </extensions>
      </trkpt>
      <trkpt lat="45.27541332878172397613525390625" lon="-71.1162908188998699188232421875">
        <ele>853.20001220703125</ele>
        <time>2026-08-22T01:05:44.000Z</time>
        <extensions>
          <ns3:TrackPointExtension>
            <ns3:hr>133</ns3:hr>
            <ns3:cad>0</ns3:cad>
          </ns3:TrackPointExtension>
        </extensions>
      </trkpt>
      <trkpt lat="45.27541584335267543792724609375" lon="-71.11630640923976898193359375">
        <ele>853.20001220703125</ele>
        <time>2026-08-22T01:05:45.000Z</time>
        <extensions>
          <ns3:TrackPointExtension>
            <ns3:hr>132</ns3:hr>
            <ns3:cad>0</ns3:cad>
          </ns3:TrackPointExtension>
        </extensions>
      </trkpt>
      <trkpt lat="45.275413580238819122314453125" lon="-71.1163199879229068756103515625">
        <ele>853.4000244140625</ele>
        <time>2026-08-22T01:05:46.000Z</time>
        <extensions>
          <ns3:TrackPointExtension>
            <ns3:hr>132</ns3:hr>
            <ns3:cad>0</ns3:cad>
          </ns3:TrackPointExtension>
        </extensions>
      </trkpt>
      <trkpt lat="45.275408215820789337158203125" lon="-71.116334907710552215576171875">
        <ele>853.4000244140625</ele>
        <time>2026-08-22T01:05:47.000Z</time>
        <extensions>
          <ns3:TrackPointExtension>
            <ns3:hr>132</ns3:hr>
            <ns3:cad>0</ns3:cad>
          </ns3:TrackPointExtension>
        </extensions>
      </trkpt>
      <trkpt lat="45.27540394105017185211181640625" lon="-71.1163501627743244171142578125">
        <ele>853.4000244140625</ele>
        <time>2026-08-22T01:05:48.000Z</time>
        <extensions>
          <ns3:TrackPointExtension>
            <ns3:hr>132</ns3:hr>
            <ns3:cad>0</ns3:cad>
          </ns3:TrackPointExtension>
        </extensions>
      </trkpt>
      <trkpt lat="45.27540276758372783660888671875" lon="-71.1163645796477794647216796875">
        <ele>853.5999755859375</ele>
        <time>2026-08-22T01:05:49.000Z</time>
        <extensions>
          <ns3:TrackPointExtension>
            <ns3:hr>132</ns3:hr>
            <ns3:cad>0</ns3:cad>
          </ns3:TrackPointExtension>
        </extensions>
      </trkpt>
      <trkpt lat="45.27540125884115695953369140625" lon="-71.116379834711551666259765625">
        <ele>853.79998779296875</ele>
        <time>2026-08-22T01:05:50.000Z</time>
        <extensions>
          <ns3:TrackPointExtension>
            <ns3:hr>133</ns3:hr>
            <ns3:cad>0</ns3:cad>
          </ns3:TrackPointExtension>
        </extensions>
      </trkpt>
      <trkpt lat="45.2753989957273006439208984375" lon="-71.1163960956037044525146484375">
        <ele>853.79998779296875</ele>
        <time>2026-08-22T01:05:51.000Z</time>
        <extensions>
          <ns3:TrackPointExtension>
            <ns3:hr>133</ns3:hr>
            <ns3:cad>0</ns3:cad>
          </ns3:TrackPointExtension>
        </extensions>
      </trkpt>
      <trkpt lat="45.27538918890058994293212890625" lon="-71.1164088360965251922607421875">
        <ele>854</ele>
        <time>2026-08-22T01:05:52.000Z</time>
        <extensions>
          <ns3:TrackPointExtension>
            <ns3:hr>133</ns3:hr>
            <ns3:cad>0</ns3:cad>
          </ns3:TrackPointExtension>
        </extensions>
      </trkpt>
      <trkpt lat="45.27538566850125789642333984375" lon="-71.11642199568450450897216796875">
        <ele>854</ele>
        <time>2026-08-22T01:05:53.000Z</time>
        <extensions>
          <ns3:TrackPointExtension>
            <ns3:hr>133</ns3:hr>
            <ns3:cad>0</ns3:cad>
          </ns3:TrackPointExtension>
        </extensions>
      </trkpt>
      <trkpt lat="45.2753849141299724578857421875" lon="-71.11644194461405277252197265625">
        <ele>854.20001220703125</ele>
        <time>2026-08-22T01:05:54.000Z</time>
        <extensions>
          <ns3:TrackPointExtension>
            <ns3:hr>133</ns3:hr>
            <ns3:cad>0</ns3:cad>
          </ns3:TrackPointExtension>
        </extensions>
      </trkpt>
      <trkpt lat="45.27538449503481388092041015625" lon="-71.1164613068103790283203125">
        <ele>854.20001220703125</ele>
        <time>2026-08-22T01:05:55.000Z</time>
        <extensions>
          <ns3:TrackPointExtension>
            <ns3:hr>132</ns3:hr>
            <ns3:cad>0</ns3:cad>
          </ns3:TrackPointExtension>
        </extensions>
      </trkpt>
      <trkpt lat="45.275382064282894134521484375" lon="-71.1164728738367557525634765625">
        <ele>854.20001220703125</ele>
        <time>2026-08-22T01:05:56.000Z</time>
        <extensions>
          <ns3:TrackPointExtension>
            <ns3:hr>132</ns3:hr>
            <ns3:cad>0</ns3:cad>
          </ns3:TrackPointExtension>
        </extensions>
      </trkpt>
      <trkpt lat="45.2753785438835620880126953125" lon="-71.11647932790219783782958984375">
        <ele>854.4000244140625</ele>
        <time>2026-08-22T01:05:57.000Z</time>
        <extensions>
          <ns3:TrackPointExtension>
            <ns3:hr>132</ns3:hr>
            <ns3:cad>0</ns3:cad>
          </ns3:TrackPointExtension>
        </extensions>
      </trkpt>
      <trkpt lat="45.27536605484783649444580078125" lon="-71.11649424768984317779541015625">
        <ele>854.5999755859375</ele>
        <time>2026-08-22T01:05:58.000Z</time>
        <extensions>
          <ns3:TrackPointExtension>
            <ns3:hr>132</ns3:hr>
            <ns3:cad>0</ns3:cad>
          </ns3:TrackPointExtension>
        </extensions>
      </trkpt>
      <trkpt lat="45.2753570862114429473876953125" lon="-71.1165095865726470947265625">
        <ele>854.79998779296875</ele>
        <time>2026-08-22T01:05:59.000Z</time>
        <extensions>
          <ns3:TrackPointExtension>
            <ns3:hr>132</ns3:hr>
            <ns3:cad>0</ns3:cad>
          </ns3:TrackPointExtension>
        </extensions>
      </trkpt>
      <trkpt lat="45.27535130269825458526611328125" lon="-71.116524003446102142333984375">
        <ele>855</ele>
        <time>2026-08-22T01:06:00.000Z</time>
        <extensions>
          <ns3:TrackPointExtension>
            <ns3:hr>132</ns3:hr>
            <ns3:cad>0</ns3:cad>
          </ns3:TrackPointExtension>
        </extensions>
      </trkpt>
      <trkpt lat="45.27534241788089275360107421875" lon="-71.11653816886246204376220703125">
        <ele>855.20001220703125</ele>
        <time>2026-08-22T01:06:01.000Z</time>
        <extensions>
          <ns3:TrackPointExtension>
            <ns3:hr>132</ns3:hr>
            <ns3:cad>51</ns3:cad>
          </ns3:TrackPointExtension>
        </extensions>
      </trkpt>
      <trkpt lat="45.2753373049199581146240234375" lon="-71.11655124463140964508056640625">
        <ele>855.4000244140625</ele>
        <time>2026-08-22T01:06:02.000Z</time>
        <extensions>
          <ns3:TrackPointExtension>
            <ns3:hr>132</ns3:hr>
            <ns3:cad>51</ns3:cad>
          </ns3:TrackPointExtension>
        </extensions>
      </trkpt>
      <trkpt lat="45.275333784520626068115234375" lon="-71.11656080000102519989013671875">
        <ele>855.5999755859375</ele>
        <time>2026-08-22T01:06:03.000Z</time>
        <extensions>
          <ns3:TrackPointExtension>
            <ns3:hr>133</ns3:hr>
            <ns3:cad>51</ns3:cad>
          </ns3:TrackPointExtension>
        </extensions>
      </trkpt>
      <trkpt lat="45.27532598935067653656005859375" lon="-71.11657504923641681671142578125">
        <ele>855.5999755859375</ele>
        <time>2026-08-22T01:06:04.000Z</time>
        <extensions>
          <ns3:TrackPointExtension>
            <ns3:hr>133</ns3:hr>
            <ns3:cad>51</ns3:cad>
          </ns3:TrackPointExtension>
        </extensions>
      </trkpt>
      <trkpt lat="45.27532012201845645904541015625" lon="-71.11658242531120777130126953125">
        <ele>856</ele>
        <time>2026-08-22T01:06:05.000Z</time>
        <extensions>
          <ns3:TrackPointExtension>
            <ns3:hr>132</ns3:hr>
            <ns3:cad>0</ns3:cad>
          </ns3:TrackPointExtension>
        </extensions>
      </trkpt>
      <trkpt lat="45.2753131650388240814208984375" lon="-71.11659198068082332611083984375">
        <ele>856.20001220703125</ele>
        <time>2026-08-22T01:06:06.000Z</time>
        <extensions>
          <ns3:TrackPointExtension>
            <ns3:hr>132</ns3:hr>
            <ns3:cad>0</ns3:cad>
          </ns3:TrackPointExtension>
        </extensions>
      </trkpt>
      <trkpt lat="45.275305621325969696044921875" lon="-71.11660069786012172698974609375">
        <ele>856.4000244140625</ele>
        <time>2026-08-22T01:06:07.000Z</time>
        <extensions>
          <ns3:TrackPointExtension>
            <ns3:hr>132</ns3:hr>
            <ns3:cad>0</ns3:cad>
          </ns3:TrackPointExtension>
        </extensions>
      </trkpt>
      <trkpt lat="45.2752970717847347259521484375" lon="-71.1166123487055301666259765625">
        <ele>856.79998779296875</ele>
        <time>2026-08-22T01:06:08.000Z</time>
        <extensions>
          <ns3:TrackPointExtension>
            <ns3:hr>132</ns3:hr>
            <ns3:cad>0</ns3:cad>
          </ns3:TrackPointExtension>
        </extensions>
      </trkpt>
      <trkpt lat="45.27529464103281497955322265625" lon="-71.11662668175995349884033203125">
        <ele>856.79998779296875</ele>
        <time>2026-08-22T01:06:09.000Z</time>
        <extensions>
          <ns3:TrackPointExtension>
            <ns3:hr>132</ns3:hr>
            <ns3:cad>0</ns3:cad>
          </ns3:TrackPointExtension>
        </extensions>
      </trkpt>
      <trkpt lat="45.27528944425284862518310546875" lon="-71.1166391707956790924072265625">
        <ele>857</ele>
        <time>2026-08-22T01:06:10.000Z</time>
        <extensions>
          <ns3:TrackPointExtension>
            <ns3:hr>132</ns3:hr>
            <ns3:cad>0</ns3:cad>
          </ns3:TrackPointExtension>
        </extensions>
      </trkpt>
      <trkpt lat="45.27528273873031139373779296875" lon="-71.1166502349078655242919921875">
        <ele>857</ele>
        <time>2026-08-22T01:06:11.000Z</time>
        <extensions>
          <ns3:TrackPointExtension>
            <ns3:hr>132</ns3:hr>
            <ns3:cad>0</ns3:cad>
          </ns3:TrackPointExtension>
        </extensions>
      </trkpt>
      <trkpt lat="45.2752786315977573394775390625" lon="-71.11666155047714710235595703125">
        <ele>856.79998779296875</ele>
        <time>2026-08-22T01:06:12.000Z</time>
        <extensions>
          <ns3:TrackPointExtension>
            <ns3:hr>133</ns3:hr>
            <ns3:cad>0</ns3:cad>
          </ns3:TrackPointExtension>
        </extensions>
      </trkpt>
      <trkpt lat="45.2752725966274738311767578125" lon="-71.11667923629283905029296875">
        <ele>856.79998779296875</ele>
        <time>2026-08-22T01:06:13.000Z</time>
        <extensions>
          <ns3:TrackPointExtension>
            <ns3:hr>132</ns3:hr>
            <ns3:cad>0</ns3:cad>
          </ns3:TrackPointExtension>
        </extensions>
      </trkpt>
      <trkpt lat="45.2752697467803955078125" lon="-71.11669541336596012115478515625">
        <ele>856.5999755859375</ele>
        <time>2026-08-22T01:06:14.000Z</time>
        <extensions>
          <ns3:TrackPointExtension>
            <ns3:hr>132</ns3:hr>
            <ns3:cad>0</ns3:cad>
          </ns3:TrackPointExtension>
        </extensions>
      </trkpt>
      <trkpt lat="45.27526144869625568389892578125" lon="-71.11670815385878086090087890625">
        <ele>856.5999755859375</ele>
        <time>2026-08-22T01:06:15.000Z</time>
        <extensions>
          <ns3:TrackPointExtension>
            <ns3:hr>133</ns3:hr>
            <ns3:cad>0</ns3:cad>
          </ns3:TrackPointExtension>
        </extensions>
      </trkpt>
      <trkpt lat="45.2752523124217987060546875" lon="-71.11671770922839641571044921875">
        <ele>856.5999755859375</ele>
        <time>2026-08-22T01:06:16.000Z</time>
        <extensions>
          <ns3:TrackPointExtension>
            <ns3:hr>133</ns3:hr>
            <ns3:cad>0</ns3:cad>
          </ns3:TrackPointExtension>
        </extensions>
      </trkpt>
      <trkpt lat="45.27524719946086406707763671875" lon="-71.11672743223607540130615234375">
        <ele>856.5999755859375</ele>
        <time>2026-08-22T01:06:17.000Z</time>
        <extensions>
          <ns3:TrackPointExtension>
            <ns3:hr>134</ns3:hr>
            <ns3:cad>0</ns3:cad>
          </ns3:TrackPointExtension>
        </extensions>
      </trkpt>
      <trkpt lat="45.2752387337386608123779296875" lon="-71.1167337186634540557861328125">
        <ele>856.79998779296875</ele>
        <time>2026-08-22T01:06:18.000Z</time>
        <extensions>
          <ns3:TrackPointExtension>
            <ns3:hr>134</ns3:hr>
            <ns3:cad>0</ns3:cad>
          </ns3:TrackPointExtension>
        </extensions>
      </trkpt>
      <trkpt lat="45.2752323634922504425048828125" lon="-71.11673891544342041015625">
        <ele>856.79998779296875</ele>
        <time>2026-08-22T01:06:19.000Z</time>
        <extensions>
          <ns3:TrackPointExtension>
            <ns3:hr>134</ns3:hr>
            <ns3:cad>0</ns3:cad>
          </ns3:TrackPointExtension>
        </extensions>
      </trkpt>
      <trkpt lat="45.27522624470293521881103515625" lon="-71.11675173975527286529541015625">
        <ele>857</ele>
        <time>2026-08-22T01:06:20.000Z</time>
        <extensions>
          <ns3:TrackPointExtension>
            <ns3:hr>134</ns3:hr>
            <ns3:cad>0</ns3:cad>
          </ns3:TrackPointExtension>
        </extensions>
      </trkpt>
      <trkpt lat="45.27522347867488861083984375" lon="-71.116768755018711090087890625">
        <ele>857.20001220703125</ele>
        <time>2026-08-22T01:06:21.000Z</time>
        <extensions>
          <ns3:TrackPointExtension>
            <ns3:hr>133</ns3:hr>
            <ns3:cad>0</ns3:cad>
          </ns3:TrackPointExtension>
        </extensions>
      </trkpt>
      <trkpt lat="45.27522305957973003387451171875" lon="-71.11678342334926128387451171875">
        <ele>857.4000244140625</ele>
        <time>2026-08-22T01:06:22.000Z</time>
        <extensions>
          <ns3:TrackPointExtension>
            <ns3:hr>134</ns3:hr>
            <ns3:cad>0</ns3:cad>
          </ns3:TrackPointExtension>
        </extensions>
      </trkpt>
      <trkpt lat="45.27521534822881221771240234375" lon="-71.1167984269559383392333984375">
        <ele>857.5999755859375</ele>
        <time>2026-08-22T01:06:23.000Z</time>
        <extensions>
          <ns3:TrackPointExtension>
            <ns3:hr>134</ns3:hr>
            <ns3:cad>48</ns3:cad>
          </ns3:TrackPointExtension>
        </extensions>
      </trkpt>
      <trkpt lat="45.2752078883349895477294921875" lon="-71.11681343056261539459228515625">
        <ele>857.5999755859375</ele>
        <time>2026-08-22T01:06:24.000Z</time>
        <extensions>
          <ns3:TrackPointExtension>
            <ns3:hr>133</ns3:hr>
            <ns3:cad>48</ns3:cad>
          </ns3:TrackPointExtension>
        </extensions>
      </trkpt>
      <trkpt lat="45.27520059607923030853271484375" lon="-71.116819716989994049072265625">
        <ele>857.79998779296875</ele>
        <time>2026-08-22T01:06:25.000Z</time>
        <extensions>
          <ns3:TrackPointExtension>
            <ns3:hr>134</ns3:hr>
            <ns3:cad>48</ns3:cad>
          </ns3:TrackPointExtension>
        </extensions>
      </trkpt>
      <trkpt lat="45.27518919669091701507568359375" lon="-71.11682902090251445770263671875">
        <ele>857.79998779296875</ele>
        <time>2026-08-22T01:06:26.000Z</time>
        <extensions>
          <ns3:TrackPointExtension>
            <ns3:hr>134</ns3:hr>
            <ns3:cad>48</ns3:cad>
          </ns3:TrackPointExtension>
        </extensions>
      </trkpt>
      <trkpt lat="45.2751850895583629608154296875" lon="-71.11683924682438373565673828125">
        <ele>858</ele>
        <time>2026-08-22T01:06:27.000Z</time>
        <extensions>
          <ns3:TrackPointExtension>
            <ns3:hr>134</ns3:hr>
            <ns3:cad>0</ns3:cad>
          </ns3:TrackPointExtension>
        </extensions>
      </trkpt>
      <trkpt lat="45.27517863549292087554931640625" lon="-71.1168475449085235595703125">
        <ele>858.20001220703125</ele>
        <time>2026-08-22T01:06:28.000Z</time>
        <extensions>
          <ns3:TrackPointExtension>
            <ns3:hr>134</ns3:hr>
            <ns3:cad>0</ns3:cad>
          </ns3:TrackPointExtension>
        </extensions>
      </trkpt>
      <trkpt lat="45.275168828666210174560546875" lon="-71.116857267916202545166015625">
        <ele>858.4000244140625</ele>
        <time>2026-08-22T01:06:29.000Z</time>
        <extensions>
          <ns3:TrackPointExtension>
            <ns3:hr>133</ns3:hr>
            <ns3:cad>0</ns3:cad>
          </ns3:TrackPointExtension>
        </extensions>
      </trkpt>
      <trkpt lat="45.27516807429492473602294921875" lon="-71.1168594472110271453857421875">
        <ele>858.5999755859375</ele>
        <time>2026-08-22T01:06:30.000Z</time>
        <extensions>
          <ns3:TrackPointExtension>
            <ns3:hr>135</ns3:hr>
            <ns3:cad>0</ns3:cad>
          </ns3:TrackPointExtension>
        </extensions>
      </trkpt>
      <trkpt lat="45.27516069822013378143310546875" lon="-71.11686556600034236907958984375">
        <ele>858.79998779296875</ele>
        <time>2026-08-22T01:06:31.000Z</time>
        <extensions>
          <ns3:TrackPointExtension>
            <ns3:hr>135</ns3:hr>
            <ns3:cad>0</ns3:cad>
          </ns3:TrackPointExtension>
        </extensions>
      </trkpt>
      <trkpt lat="45.27515717782080173492431640625" lon="-71.116870008409023284912109375">
        <ele>859</ele>
        <time>2026-08-22T01:06:32.000Z</time>
        <extensions>
          <ns3:TrackPointExtension>
            <ns3:hr>136</ns3:hr>
            <ns3:cad>0</ns3:cad>
          </ns3:TrackPointExtension>
        </extensions>
      </trkpt>
      <trkpt lat="45.27514846064150333404541015625" lon="-71.11687771975994110107421875">
        <ele>859.20001220703125</ele>
        <time>2026-08-22T01:06:33.000Z</time>
        <extensions>
          <ns3:TrackPointExtension>
            <ns3:hr>136</ns3:hr>
            <ns3:cad>0</ns3:cad>
          </ns3:TrackPointExtension>
        </extensions>
      </trkpt>
      <trkpt lat="45.2751421742141246795654296875" lon="-71.11688350327312946319580078125">
        <ele>859.4000244140625</ele>
        <time>2026-08-22T01:06:34.000Z</time>
        <extensions>
          <ns3:TrackPointExtension>
            <ns3:hr>135</ns3:hr>
            <ns3:cad>0</ns3:cad>
          </ns3:TrackPointExtension>
        </extensions>
      </trkpt>
      <trkpt lat="45.27513773180544376373291015625" lon="-71.11689071170985698699951171875">
        <ele>859.5999755859375</ele>
        <time>2026-08-22T01:06:35.000Z</time>
        <extensions>
          <ns3:TrackPointExtension>
            <ns3:hr>135</ns3:hr>
            <ns3:cad>0</ns3:cad>
          </ns3:TrackPointExtension>
        </extensions>
      </trkpt>
      <trkpt lat="45.275131277740001678466796875" lon="-71.1169040389358997344970703125">
        <ele>859.79998779296875</ele>
        <time>2026-08-22T01:06:36.000Z</time>
        <extensions>
          <ns3:TrackPointExtension>
            <ns3:hr>134</ns3:hr>
            <ns3:cad>0</ns3:cad>
          </ns3:TrackPointExtension>
        </extensions>
      </trkpt>
      <trkpt lat="45.27512381784617900848388671875" lon="-71.11692055128514766693115234375">
        <ele>860</ele>
        <time>2026-08-22T01:06:37.000Z</time>
        <extensions>
          <ns3:TrackPointExtension>
            <ns3:hr>134</ns3:hr>
            <ns3:cad>0</ns3:cad>
          </ns3:TrackPointExtension>
        </extensions>
      </trkpt>
      <trkpt lat="45.275113172829151153564453125" lon="-71.11693664453923702239990234375">
        <ele>860</ele>
        <time>2026-08-22T01:06:38.000Z</time>
        <extensions>
          <ns3:TrackPointExtension>
            <ns3:hr>134</ns3:hr>
            <ns3:cad>0</ns3:cad>
          </ns3:TrackPointExtension>
        </extensions>
      </trkpt>
      <trkpt lat="45.27510688640177249908447265625" lon="-71.116949133574962615966796875">
        <ele>860.20001220703125</ele>
        <time>2026-08-22T01:06:39.000Z</time>
        <extensions>
          <ns3:TrackPointExtension>
            <ns3:hr>134</ns3:hr>
            <ns3:cad>0</ns3:cad>
          </ns3:TrackPointExtension>
        </extensions>
      </trkpt>
      <trkpt lat="45.27510051615536212921142578125" lon="-71.11695927567780017852783203125">
        <ele>860.20001220703125</ele>
        <time>2026-08-22T01:06:40.000Z</time>
        <extensions>
          <ns3:TrackPointExtension>
            <ns3:hr>134</ns3:hr>
            <ns3:cad>0</ns3:cad>
          </ns3:TrackPointExtension>
        </extensions>
      </trkpt>
      <trkpt lat="45.27509079314768314361572265625" lon="-71.1169744469225406646728515625">
        <ele>860.4000244140625</ele>
        <time>2026-08-22T01:06:41.000Z</time>
        <extensions>
          <ns3:TrackPointExtension>
            <ns3:hr>134</ns3:hr>
            <ns3:cad>0</ns3:cad>
          </ns3:TrackPointExtension>
        </extensions>
      </trkpt>
      <trkpt lat="45.275083668529987335205078125" lon="-71.1169814877212047576904296875">
        <ele>860.4000244140625</ele>
        <time>2026-08-22T01:06:42.000Z</time>
        <extensions>
          <ns3:TrackPointExtension>
            <ns3:hr>133</ns3:hr>
            <ns3:cad>0</ns3:cad>
          </ns3:TrackPointExtension>
        </extensions>
      </trkpt>
      <trkpt lat="45.27508224360644817352294921875" lon="-71.11698559485375881195068359375">
        <ele>860.5999755859375</ele>
        <time>2026-08-22T01:06:43.000Z</time>
        <extensions>
          <ns3:TrackPointExtension>
            <ns3:hr>133</ns3:hr>
            <ns3:cad>0</ns3:cad>
          </ns3:TrackPointExtension>
        </extensions>
      </trkpt>
      <trkpt lat="45.27507327497005462646484375" lon="-71.116996072232723236083984375">
        <ele>860.79998779296875</ele>
        <time>2026-08-22T01:06:44.000Z</time>
        <extensions>
          <ns3:TrackPointExtension>
            <ns3:hr>133</ns3:hr>
            <ns3:cad>0</ns3:cad>
          </ns3:TrackPointExtension>
        </extensions>
      </trkpt>
      <trkpt lat="45.27506791055202484130859375" lon="-71.1169985868036746978759765625">
        <ele>861</ele>
        <time>2026-08-22T01:06:45.000Z</time>
        <extensions>
          <ns3:TrackPointExtension>
            <ns3:hr>133</ns3:hr>
            <ns3:cad>0</ns3:cad>
          </ns3:TrackPointExtension>
        </extensions>
      </trkpt>
      <trkpt lat="45.2750600315630435943603515625" lon="-71.1170056276023387908935546875">
        <ele>861</ele>
        <time>2026-08-22T01:06:46.000Z</time>
        <extensions>
          <ns3:TrackPointExtension>
            <ns3:hr>133</ns3:hr>
            <ns3:cad>0</ns3:cad>
          </ns3:TrackPointExtension>
        </extensions>
      </trkpt>
      <trkpt lat="45.27505190111696720123291015625" lon="-71.11701853573322296142578125">
        <ele>861</ele>
        <time>2026-08-22T01:06:47.000Z</time>
        <extensions>
          <ns3:TrackPointExtension>
            <ns3:hr>134</ns3:hr>
            <ns3:cad>0</ns3:cad>
          </ns3:TrackPointExtension>
        </extensions>
      </trkpt>
      <trkpt lat="45.2750479616224765777587890625" lon="-71.117024905979633331298828125">
        <ele>861.20001220703125</ele>
        <time>2026-08-22T01:06:48.000Z</time>
        <extensions>
          <ns3:TrackPointExtension>
            <ns3:hr>133</ns3:hr>
            <ns3:cad>0</ns3:cad>
          </ns3:TrackPointExtension>
        </extensions>
      </trkpt>
      <trkpt lat="45.27503832243382930755615234375" lon="-71.11704410053789615631103515625">
        <ele>861.20001220703125</ele>
        <time>2026-08-22T01:06:49.000Z</time>
        <extensions>
          <ns3:TrackPointExtension>
            <ns3:hr>133</ns3:hr>
            <ns3:cad>0</ns3:cad>
          </ns3:TrackPointExtension>
        </extensions>
      </trkpt>
      <trkpt lat="45.27503027580678462982177734375" lon="-71.117063462734222412109375">
        <ele>861.4000244140625</ele>
        <time>2026-08-22T01:06:50.000Z</time>
        <extensions>
          <ns3:TrackPointExtension>
            <ns3:hr>133</ns3:hr>
            <ns3:cad>0</ns3:cad>
          </ns3:TrackPointExtension>
        </extensions>
      </trkpt>
      <trkpt lat="45.27502625249326229095458984375" lon="-71.1170700006186962127685546875">
        <ele>861.4000244140625</ele>
        <time>2026-08-22T01:06:51.000Z</time>
        <extensions>
          <ns3:TrackPointExtension>
            <ns3:hr>133</ns3:hr>
            <ns3:cad>0</ns3:cad>
          </ns3:TrackPointExtension>
        </extensions>
      </trkpt>
      <trkpt lat="45.27501854114234447479248046875" lon="-71.11707754433155059814453125">
        <ele>861.4000244140625</ele>
        <time>2026-08-22T01:06:52.000Z</time>
        <extensions>
          <ns3:TrackPointExtension>
            <ns3:hr>132</ns3:hr>
            <ns3:cad>0</ns3:cad>
          </ns3:TrackPointExtension>
        </extensions>
      </trkpt>
      <trkpt lat="45.27500865049660205841064453125" lon="-71.1170864291489124298095703125">
        <ele>861.4000244140625</ele>
        <time>2026-08-22T01:06:53.000Z</time>
        <extensions>
          <ns3:TrackPointExtension>
            <ns3:hr>133</ns3:hr>
            <ns3:cad>0</ns3:cad>
          </ns3:TrackPointExtension>
        </extensions>
      </trkpt>
      <trkpt lat="45.2750026993453502655029296875" lon="-71.1171008460223674774169921875">
        <ele>861.5999755859375</ele>
        <time>2026-08-22T01:06:54.000Z</time>
        <extensions>
          <ns3:TrackPointExtension>
            <ns3:hr>133</ns3:hr>
            <ns3:cad>0</ns3:cad>
          </ns3:TrackPointExtension>
        </extensions>
      </trkpt>
      <trkpt lat="45.27499490417540073394775390625" lon="-71.11711568199098110198974609375">
        <ele>861.5999755859375</ele>
        <time>2026-08-22T01:06:55.000Z</time>
        <extensions>
          <ns3:TrackPointExtension>
            <ns3:hr>133</ns3:hr>
            <ns3:cad>0</ns3:cad>
          </ns3:TrackPointExtension>
        </extensions>
      </trkpt>
      <trkpt lat="45.27498886920511722564697265625" lon="-71.11712724901735782623291015625">
        <ele>861.5999755859375</ele>
        <time>2026-08-22T01:06:56.000Z</time>
        <extensions>
          <ns3:TrackPointExtension>
            <ns3:hr>134</ns3:hr>
            <ns3:cad>0</ns3:cad>
          </ns3:TrackPointExtension>
        </extensions>
      </trkpt>
      <trkpt lat="45.27497939765453338623046875" lon="-71.11714585684239864349365234375">
        <ele>861.79998779296875</ele>
        <time>2026-08-22T01:06:57.000Z</time>
        <extensions>
          <ns3:TrackPointExtension>
            <ns3:hr>134</ns3:hr>
            <ns3:cad>0</ns3:cad>
          </ns3:TrackPointExtension>
        </extensions>
      </trkpt>
      <trkpt lat="45.27497344650328159332275390625" lon="-71.117153652012348175048828125">
        <ele>861.79998779296875</ele>
        <time>2026-08-22T01:06:58.000Z</time>
        <extensions>
          <ns3:TrackPointExtension>
            <ns3:hr>134</ns3:hr>
            <ns3:cad>0</ns3:cad>
          </ns3:TrackPointExtension>
        </extensions>
      </trkpt>
      <trkpt lat="45.27495919726788997650146484375" lon="-71.1171640455722808837890625">
        <ele>861.79998779296875</ele>
        <time>2026-08-22T01:06:59.000Z</time>
        <extensions>
          <ns3:TrackPointExtension>
            <ns3:hr>133</ns3:hr>
            <ns3:cad>0</ns3:cad>
          </ns3:TrackPointExtension>
        </extensions>
      </trkpt>
      <trkpt lat="45.274945534765720367431640625" lon="-71.1171652190387248992919921875">
        <ele>862</ele>
        <time>2026-08-22T01:07:00.000Z</time>
        <extensions>
          <ns3:TrackPointExtension>
            <ns3:hr>133</ns3:hr>
            <ns3:cad>0</ns3:cad>
          </ns3:TrackPointExtension>
        </extensions>
      </trkpt>
      <trkpt lat="45.27493857778608798980712890625" lon="-71.11716530285775661468505859375">
        <ele>862</ele>
        <time>2026-08-22T01:07:01.000Z</time>
        <extensions>
          <ns3:TrackPointExtension>
            <ns3:hr>132</ns3:hr>
            <ns3:cad>0</ns3:cad>
          </ns3:TrackPointExtension>
        </extensions>
      </trkpt>
      <trkpt lat="45.27492332272231578826904296875" lon="-71.11716547049582004547119140625">
        <ele>862.20001220703125</ele>
        <time>2026-08-22T01:07:02.000Z</time>
        <extensions>
          <ns3:TrackPointExtension>
            <ns3:hr>132</ns3:hr>
            <ns3:cad>0</ns3:cad>
          </ns3:TrackPointExtension>
        </extensions>
      </trkpt>
      <trkpt lat="45.2749135158956050872802734375" lon="-71.11716471612453460693359375">
        <ele>862.4000244140625</ele>
        <time>2026-08-22T01:07:03.000Z</time>
        <extensions>
          <ns3:TrackPointExtension>
            <ns3:hr>132</ns3:hr>
            <ns3:cad>0</ns3:cad>
          </ns3:TrackPointExtension>
        </extensions>
      </trkpt>
      <trkpt lat="45.274905301630496978759765625" lon="-71.11715842969715595245361328125">
        <ele>862.79998779296875</ele>
        <time>2026-08-22T01:07:04.000Z</time>
        <extensions>
          <ns3:TrackPointExtension>
            <ns3:hr>133</ns3:hr>
            <ns3:cad>0</ns3:cad>
          </ns3:TrackPointExtension>
        </extensions>
      </trkpt>
      <trkpt lat="45.27489113621413707733154296875" lon="-71.11715407110750675201416015625">
        <ele>863.20001220703125</ele>
        <time>2026-08-22T01:07:05.000Z</time>
        <extensions>
          <ns3:TrackPointExtension>
            <ns3:hr>133</ns3:hr>
            <ns3:cad>51</ns3:cad>
          </ns3:TrackPointExtension>
        </extensions>
      </trkpt>
      <trkpt lat="45.27488325722515583038330078125" lon="-71.11715692095458507537841796875">
        <ele>863.5999755859375</ele>
        <time>2026-08-22T01:07:06.000Z</time>
        <extensions>
          <ns3:TrackPointExtension>
            <ns3:hr>133</ns3:hr>
            <ns3:cad>51</ns3:cad>
          </ns3:TrackPointExtension>
        </extensions>
      </trkpt>
      <trkpt lat="45.27487873099744319915771484375" lon="-71.117162369191646575927734375">
        <ele>864</ele>
        <time>2026-08-22T01:07:07.000Z</time>
        <extensions>
          <ns3:TrackPointExtension>
            <ns3:hr>133</ns3:hr>
            <ns3:cad>51</ns3:cad>
          </ns3:TrackPointExtension>
        </extensions>
      </trkpt>
      <trkpt lat="45.2748709358274936676025390625" lon="-71.11716547049582004547119140625">
        <ele>864.4000244140625</ele>
        <time>2026-08-22T01:07:08.000Z</time>
        <extensions>
          <ns3:TrackPointExtension>
            <ns3:hr>133</ns3:hr>
            <ns3:cad>51</ns3:cad>
          </ns3:TrackPointExtension>
        </extensions>
      </trkpt>
      <trkpt lat="45.274859704077243804931640625" lon="-71.11716563813388347625732421875">
        <ele>864.5999755859375</ele>
        <time>2026-08-22T01:07:09.000Z</time>
        <extensions>
          <ns3:TrackPointExtension>
            <ns3:hr>133</ns3:hr>
            <ns3:cad>51</ns3:cad>
          </ns3:TrackPointExtension>
        </extensions>
      </trkpt>
      <trkpt lat="45.27485274709761142730712890625" lon="-71.11716815270483493804931640625">
        <ele>864.79998779296875</ele>
        <time>2026-08-22T01:07:10.000Z</time>
        <extensions>
          <ns3:TrackPointExtension>
            <ns3:hr>133</ns3:hr>
            <ns3:cad>51</ns3:cad>
          </ns3:TrackPointExtension>
        </extensions>
      </trkpt>
      <trkpt lat="45.2748353965580463409423828125" lon="-71.11716966144740581512451171875">
        <ele>864.79998779296875</ele>
        <time>2026-08-22T01:07:11.000Z</time>
        <extensions>
          <ns3:TrackPointExtension>
            <ns3:hr>133</ns3:hr>
            <ns3:cad>51</ns3:cad>
          </ns3:TrackPointExtension>
        </extensions>
      </trkpt>
      <trkpt lat="45.2748290263116359710693359375" lon="-71.1171720921993255615234375">
        <ele>865</ele>
        <time>2026-08-22T01:07:12.000Z</time>
        <extensions>
          <ns3:TrackPointExtension>
            <ns3:hr>133</ns3:hr>
            <ns3:cad>51</ns3:cad>
          </ns3:TrackPointExtension>
        </extensions>
      </trkpt>
      <trkpt lat="45.27482324279844760894775390625" lon="-71.1171732656657695770263671875">
        <ele>865.20001220703125</ele>
        <time>2026-08-22T01:07:13.000Z</time>
        <extensions>
          <ns3:TrackPointExtension>
            <ns3:hr>132</ns3:hr>
            <ns3:cad>51</ns3:cad>
          </ns3:TrackPointExtension>
        </extensions>
      </trkpt>
      <trkpt lat="45.27481838129460811614990234375" lon="-71.11717938445508480072021484375">
        <ele>865.4000244140625</ele>
        <time>2026-08-22T01:07:14.000Z</time>
        <extensions>
          <ns3:TrackPointExtension>
            <ns3:hr>133</ns3:hr>
            <ns3:cad>48</ns3:cad>
          </ns3:TrackPointExtension>
        </extensions>
      </trkpt>
      <trkpt lat="45.27481100521981716156005859375" lon="-71.1171801388263702392578125">
        <ele>865.5999755859375</ele>
        <time>2026-08-22T01:07:15.000Z</time>
        <extensions>
          <ns3:TrackPointExtension>
            <ns3:hr>133</ns3:hr>
            <ns3:cad>48</ns3:cad>
          </ns3:TrackPointExtension>
        </extensions>
      </trkpt>
      <trkpt lat="45.2748005278408527374267578125" lon="-71.11718391068279743194580078125">
        <ele>865.79998779296875</ele>
        <time>2026-08-22T01:07:16.000Z</time>
        <extensions>
          <ns3:TrackPointExtension>
            <ns3:hr>134</ns3:hr>
            <ns3:cad>48</ns3:cad>
          </ns3:TrackPointExtension>
        </extensions>
      </trkpt>
      <trkpt lat="45.27479700744152069091796875" lon="-71.1171870119869709014892578125">
        <ele>866</ele>
        <time>2026-08-22T01:07:17.000Z</time>
        <extensions>
          <ns3:TrackPointExtension>
            <ns3:hr>134</ns3:hr>
            <ns3:cad>0</ns3:cad>
          </ns3:TrackPointExtension>
        </extensions>
      </trkpt>
      <trkpt lat="45.27479105629026889801025390625" lon="-71.1171908676624298095703125">
        <ele>866.20001220703125</ele>
        <time>2026-08-22T01:07:18.000Z</time>
        <extensions>
          <ns3:TrackPointExtension>
            <ns3:hr>134</ns3:hr>
            <ns3:cad>0</ns3:cad>
          </ns3:TrackPointExtension>
        </extensions>
      </trkpt>
      <trkpt lat="45.2747897990047931671142578125" lon="-71.11719246022403240203857421875">
        <ele>866.4000244140625</ele>
        <time>2026-08-22T01:07:19.000Z</time>
        <extensions>
          <ns3:TrackPointExtension>
            <ns3:hr>135</ns3:hr>
            <ns3:cad>0</ns3:cad>
          </ns3:TrackPointExtension>
        </extensions>
      </trkpt>
      <trkpt lat="45.2747864462435245513916015625" lon="-71.11719044856727123260498046875">
        <ele>866.5999755859375</ele>
        <time>2026-08-22T01:07:20.000Z</time>
        <extensions>
          <ns3:TrackPointExtension>
            <ns3:hr>136</ns3:hr>
            <ns3:cad>0</ns3:cad>
          </ns3:TrackPointExtension>
        </extensions>
      </trkpt>
      <trkpt lat="45.2747747115790843963623046875" lon="-71.117189861834049224853515625">
        <ele>866.79998779296875</ele>
        <time>2026-08-22T01:07:21.000Z</time>
        <extensions>
          <ns3:TrackPointExtension>
            <ns3:hr>136</ns3:hr>
            <ns3:cad>0</ns3:cad>
          </ns3:TrackPointExtension>
        </extensions>
      </trkpt>
      <trkpt lat="45.2747683413326740264892578125" lon="-71.1171903647482395172119140625">
        <ele>867.20001220703125</ele>
        <time>2026-08-22T01:07:22.000Z</time>
        <extensions>
          <ns3:TrackPointExtension>
            <ns3:hr>136</ns3:hr>
            <ns3:cad>0</ns3:cad>
          </ns3:TrackPointExtension>
        </extensions>
      </trkpt>
      <trkpt lat="45.27475702576339244842529296875" lon="-71.11719430424273014068603515625">
        <ele>867.4000244140625</ele>
        <time>2026-08-22T01:07:23.000Z</time>
        <extensions>
          <ns3:TrackPointExtension>
            <ns3:hr>137</ns3:hr>
            <ns3:cad>0</ns3:cad>
          </ns3:TrackPointExtension>
        </extensions>
      </trkpt>
      <trkpt lat="45.27475015260279178619384765625" lon="-71.11720050685107707977294921875">
        <ele>867.4000244140625</ele>
        <time>2026-08-22T01:07:24.000Z</time>
        <extensions>
          <ns3:TrackPointExtension>
            <ns3:hr>136</ns3:hr>
            <ns3:cad>0</ns3:cad>
          </ns3:TrackPointExtension>
        </extensions>
      </trkpt>
      <trkpt lat="45.27473757974803447723388671875" lon="-71.11720025539398193359375">
        <ele>867.5999755859375</ele>
        <time>2026-08-22T01:07:25.000Z</time>
        <extensions>
          <ns3:TrackPointExtension>
            <ns3:hr>136</ns3:hr>
            <ns3:cad>0</ns3:cad>
          </ns3:TrackPointExtension>
        </extensions>
      </trkpt>
      <trkpt lat="45.27472685091197490692138671875" lon="-71.11719799228012561798095703125">
        <ele>867.79998779296875</ele>
        <time>2026-08-22T01:07:26.000Z</time>
        <extensions>
          <ns3:TrackPointExtension>
            <ns3:hr>136</ns3:hr>
            <ns3:cad>0</ns3:cad>
          </ns3:TrackPointExtension>
        </extensions>
      </trkpt>
      <trkpt lat="45.2747157029807567596435546875" lon="-71.11719824373722076416015625">
        <ele>868</ele>
        <time>2026-08-22T01:07:27.000Z</time>
        <extensions>
          <ns3:TrackPointExtension>
            <ns3:hr>136</ns3:hr>
            <ns3:cad>0</ns3:cad>
          </ns3:TrackPointExtension>
        </extensions>
      </trkpt>
      <trkpt lat="45.27470304630696773529052734375" lon="-71.11720687709748744964599609375">
        <ele>868.20001220703125</ele>
        <time>2026-08-22T01:07:28.000Z</time>
        <extensions>
          <ns3:TrackPointExtension>
            <ns3:hr>136</ns3:hr>
            <ns3:cad>0</ns3:cad>
          </ns3:TrackPointExtension>
        </extensions>
      </trkpt>
      <trkpt lat="45.274697430431842803955078125" lon="-71.11721006222069263458251953125">
        <ele>868.4000244140625</ele>
        <time>2026-08-22T01:07:29.000Z</time>
        <extensions>
          <ns3:TrackPointExtension>
            <ns3:hr>136</ns3:hr>
            <ns3:cad>0</ns3:cad>
          </ns3:TrackPointExtension>
        </extensions>
      </trkpt>
      <trkpt lat="45.2746858634054660797119140625" lon="-71.11721676774322986602783203125">
        <ele>868.5999755859375</ele>
        <time>2026-08-22T01:07:30.000Z</time>
        <extensions>
          <ns3:TrackPointExtension>
            <ns3:hr>137</ns3:hr>
            <ns3:cad>0</ns3:cad>
          </ns3:TrackPointExtension>
        </extensions>
      </trkpt>
      <trkpt lat="45.27467756532132625579833984375" lon="-71.1172259040176868438720703125">
        <ele>868.79998779296875</ele>
        <time>2026-08-22T01:07:31.000Z</time>
        <extensions>
          <ns3:TrackPointExtension>
            <ns3:hr>136</ns3:hr>
            <ns3:cad>0</ns3:cad>
          </ns3:TrackPointExtension>
        </extensions>
      </trkpt>
      <trkpt lat="45.2746630646288394927978515625" lon="-71.11723101697862148284912109375">
        <ele>868.79998779296875</ele>
        <time>2026-08-22T01:07:32.000Z</time>
        <extensions>
          <ns3:TrackPointExtension>
            <ns3:hr>137</ns3:hr>
            <ns3:cad>0</ns3:cad>
          </ns3:TrackPointExtension>
        </extensions>
      </trkpt>
      <trkpt lat="45.27465309016406536102294921875" lon="-71.11723017878830432891845703125">
        <ele>868.79998779296875</ele>
        <time>2026-08-22T01:07:33.000Z</time>
        <extensions>
          <ns3:TrackPointExtension>
            <ns3:hr>137</ns3:hr>
            <ns3:cad>0</ns3:cad>
          </ns3:TrackPointExtension>
        </extensions>
      </trkpt>
      <trkpt lat="45.27465191669762134552001953125" lon="-71.117227077484130859375">
        <ele>869</ele>
        <time>2026-08-22T01:07:34.000Z</time>
        <extensions>
          <ns3:TrackPointExtension>
            <ns3:hr>137</ns3:hr>
            <ns3:cad>0</ns3:cad>
          </ns3:TrackPointExtension>
        </extensions>
      </trkpt>
      <trkpt lat="45.2746459655463695526123046875" lon="-71.1172242276370525360107421875">
        <ele>869.20001220703125</ele>
        <time>2026-08-22T01:07:35.000Z</time>
        <extensions>
          <ns3:TrackPointExtension>
            <ns3:hr>137</ns3:hr>
            <ns3:cad>0</ns3:cad>
          </ns3:TrackPointExtension>
        </extensions>
      </trkpt>
      <trkpt lat="45.2746409364044666290283203125" lon="-71.11722297035157680511474609375">
        <ele>869.4000244140625</ele>
        <time>2026-08-22T01:07:36.000Z</time>
        <extensions>
          <ns3:TrackPointExtension>
            <ns3:hr>137</ns3:hr>
            <ns3:cad>0</ns3:cad>
          </ns3:TrackPointExtension>
        </extensions>
      </trkpt>
      <trkpt lat="45.27463247068226337432861328125" lon="-71.11722414381802082061767578125">
        <ele>869.5999755859375</ele>
        <time>2026-08-22T01:07:37.000Z</time>
        <extensions>
          <ns3:TrackPointExtension>
            <ns3:hr>137</ns3:hr>
            <ns3:cad>0</ns3:cad>
          </ns3:TrackPointExtension>
        </extensions>
      </trkpt>
      <trkpt lat="45.27462274767458438873291015625" lon="-71.11722506582736968994140625">
        <ele>869.79998779296875</ele>
        <time>2026-08-22T01:07:38.000Z</time>
        <extensions>
          <ns3:TrackPointExtension>
            <ns3:hr>138</ns3:hr>
            <ns3:cad>0</ns3:cad>
          </ns3:TrackPointExtension>
        </extensions>
      </trkpt>
      <trkpt lat="45.274611599743366241455078125" lon="-71.1172299273312091827392578125">
        <ele>870</ele>
        <time>2026-08-22T01:07:39.000Z</time>
        <extensions>
          <ns3:TrackPointExtension>
            <ns3:hr>138</ns3:hr>
            <ns3:cad>0</ns3:cad>
          </ns3:TrackPointExtension>
        </extensions>
      </trkpt>
      <trkpt lat="45.27460481040179729461669921875" lon="-71.11723688431084156036376953125">
        <ele>870.20001220703125</ele>
        <time>2026-08-22T01:07:40.000Z</time>
        <extensions>
          <ns3:TrackPointExtension>
            <ns3:hr>139</ns3:hr>
            <ns3:cad>0</ns3:cad>
          </ns3:TrackPointExtension>
        </extensions>
      </trkpt>
      <trkpt lat="45.27459978125989437103271484375" lon="-71.1172433383762836456298828125">
        <ele>870.4000244140625</ele>
        <time>2026-08-22T01:07:41.000Z</time>
        <extensions>
          <ns3:TrackPointExtension>
            <ns3:hr>139</ns3:hr>
            <ns3:cad>0</ns3:cad>
          </ns3:TrackPointExtension>
        </extensions>
      </trkpt>
      <trkpt lat="45.27459693141281604766845703125" lon="-71.1172466911375522613525390625">
        <ele>870.4000244140625</ele>
        <time>2026-08-22T01:07:42.000Z</time>
        <extensions>
          <ns3:TrackPointExtension>
            <ns3:hr>139</ns3:hr>
            <ns3:cad>0</ns3:cad>
          </ns3:TrackPointExtension>
        </extensions>
      </trkpt>
      <trkpt lat="45.27459391392767429351806640625" lon="-71.1172500438988208770751953125">
        <ele>870.4000244140625</ele>
        <time>2026-08-22T01:07:43.000Z</time>
        <extensions>
          <ns3:TrackPointExtension>
            <ns3:hr>140</ns3:hr>
            <ns3:cad>0</ns3:cad>
          </ns3:TrackPointExtension>
        </extensions>
      </trkpt>
      <trkpt lat="45.27459072880446910858154296875" lon="-71.1172579228878021240234375">
        <ele>870.4000244140625</ele>
        <time>2026-08-22T01:07:44.000Z</time>
        <extensions>
          <ns3:TrackPointExtension>
            <ns3:hr>139</ns3:hr>
            <ns3:cad>0</ns3:cad>
          </ns3:TrackPointExtension>
        </extensions>
      </trkpt>
      <trkpt lat="45.274585783481597900390625" lon="-71.117275021970272064208984375">
        <ele>870.4000244140625</ele>
        <time>2026-08-22T01:07:45.000Z</time>
        <extensions>
          <ns3:TrackPointExtension>
            <ns3:hr>139</ns3:hr>
            <ns3:cad>0</ns3:cad>
          </ns3:TrackPointExtension>
        </extensions>
      </trkpt>
      <trkpt lat="45.27458486147224903106689453125" lon="-71.1172906123101711273193359375">
        <ele>870.20001220703125</ele>
        <time>2026-08-22T01:07:46.000Z</time>
        <extensions>
          <ns3:TrackPointExtension>
            <ns3:hr>139</ns3:hr>
            <ns3:cad>0</ns3:cad>
          </ns3:TrackPointExtension>
        </extensions>
      </trkpt>
      <trkpt lat="45.27458083815872669219970703125" lon="-71.11731089651584625244140625">
        <ele>870</ele>
        <time>2026-08-22T01:07:47.000Z</time>
        <extensions>
          <ns3:TrackPointExtension>
            <ns3:hr>140</ns3:hr>
            <ns3:cad>0</ns3:cad>
          </ns3:TrackPointExtension>
        </extensions>
      </trkpt>
      <trkpt lat="45.27457170188426971435546875" lon="-71.11732573248445987701416015625">
        <ele>869.79998779296875</ele>
        <time>2026-08-22T01:07:48.000Z</time>
        <extensions>
          <ns3:TrackPointExtension>
            <ns3:hr>139</ns3:hr>
            <ns3:cad>0</ns3:cad>
          </ns3:TrackPointExtension>
        </extensions>
      </trkpt>
      <trkpt lat="45.27456088922917842864990234375" lon="-71.11733763478696346282958984375">
        <ele>869.79998779296875</ele>
        <time>2026-08-22T01:07:49.000Z</time>
        <extensions>
          <ns3:TrackPointExtension>
            <ns3:hr>139</ns3:hr>
            <ns3:cad>0</ns3:cad>
          </ns3:TrackPointExtension>
        </extensions>
      </trkpt>
      <trkpt lat="45.2745534293353557586669921875" lon="-71.11734710633754730224609375">
        <ele>869.5999755859375</ele>
        <time>2026-08-22T01:07:50.000Z</time>
        <extensions>
          <ns3:TrackPointExtension>
            <ns3:hr>139</ns3:hr>
            <ns3:cad>0</ns3:cad>
          </ns3:TrackPointExtension>
        </extensions>
      </trkpt>
      <trkpt lat="45.27454580180346965789794921875" lon="-71.11735842190682888031005859375">
        <ele>869.5999755859375</ele>
        <time>2026-08-22T01:07:51.000Z</time>
        <extensions>
          <ns3:TrackPointExtension>
            <ns3:hr>138</ns3:hr>
            <ns3:cad>0</ns3:cad>
          </ns3:TrackPointExtension>
        </extensions>
      </trkpt>
      <trkpt lat="45.27454110793769359588623046875" lon="-71.11737501807510852813720703125">
        <ele>869.5999755859375</ele>
        <time>2026-08-22T01:07:52.000Z</time>
        <extensions>
          <ns3:TrackPointExtension>
            <ns3:hr>138</ns3:hr>
            <ns3:cad>0</ns3:cad>
          </ns3:TrackPointExtension>
        </extensions>
      </trkpt>
      <trkpt lat="45.27453415095806121826171875" lon="-71.11738876439630985260009765625">
        <ele>869.4000244140625</ele>
        <time>2026-08-22T01:07:53.000Z</time>
        <extensions>
          <ns3:TrackPointExtension>
            <ns3:hr>138</ns3:hr>
            <ns3:cad>0</ns3:cad>
          </ns3:TrackPointExtension>
        </extensions>
      </trkpt>
      <trkpt lat="45.2745187282562255859375" lon="-71.1174032650887966156005859375">
        <ele>869.20001220703125</ele>
        <time>2026-08-22T01:07:54.000Z</time>
        <extensions>
          <ns3:TrackPointExtension>
            <ns3:hr>138</ns3:hr>
            <ns3:cad>0</ns3:cad>
          </ns3:TrackPointExtension>
        </extensions>
      </trkpt>
      <trkpt lat="45.27450858615338802337646484375" lon="-71.11741147935390472412109375">
        <ele>869.20001220703125</ele>
        <time>2026-08-22T01:07:55.000Z</time>
        <extensions>
          <ns3:TrackPointExtension>
            <ns3:hr>138</ns3:hr>
            <ns3:cad>55</ns3:cad>
          </ns3:TrackPointExtension>
        </extensions>
      </trkpt>
      <trkpt lat="45.27449768967926502227783203125" lon="-71.11741743050515651702880859375">
        <ele>869</ele>
        <time>2026-08-22T01:07:56.000Z</time>
        <extensions>
          <ns3:TrackPointExtension>
            <ns3:hr>137</ns3:hr>
            <ns3:cad>57</ns3:cad>
          </ns3:TrackPointExtension>
        </extensions>
      </trkpt>
      <trkpt lat="45.274485535919666290283203125" lon="-71.1174237169325351715087890625">
        <ele>869</ele>
        <time>2026-08-22T01:07:57.000Z</time>
        <extensions>
          <ns3:TrackPointExtension>
            <ns3:hr>137</ns3:hr>
            <ns3:cad>57</ns3:cad>
          </ns3:TrackPointExtension>
        </extensions>
      </trkpt>
      <trkpt lat="45.27447120286524295806884765625" lon="-71.11742950044572353363037109375">
        <ele>869</ele>
        <time>2026-08-22T01:07:58.000Z</time>
        <extensions>
          <ns3:TrackPointExtension>
            <ns3:hr>138</ns3:hr>
            <ns3:cad>57</ns3:cad>
          </ns3:TrackPointExtension>
        </extensions>
      </trkpt>
      <trkpt lat="45.27446097694337368011474609375" lon="-71.11743050627410411834716796875">
        <ele>869</ele>
        <time>2026-08-22T01:07:59.000Z</time>
        <extensions>
          <ns3:TrackPointExtension>
            <ns3:hr>137</ns3:hr>
            <ns3:cad>57</ns3:cad>
          </ns3:TrackPointExtension>
        </extensions>
      </trkpt>
      <trkpt lat="45.274447314441204071044921875" lon="-71.11742296256124973297119140625">
        <ele>869</ele>
        <time>2026-08-22T01:08:00.000Z</time>
        <extensions>
          <ns3:TrackPointExtension>
            <ns3:hr>137</ns3:hr>
            <ns3:cad>57</ns3:cad>
          </ns3:TrackPointExtension>
        </extensions>
      </trkpt>
      <trkpt lat="45.27443817816674709320068359375" lon="-71.11742044799029827117919921875">
        <ele>869.20001220703125</ele>
        <time>2026-08-22T01:08:01.000Z</time>
        <extensions>
          <ns3:TrackPointExtension>
            <ns3:hr>137</ns3:hr>
            <ns3:cad>57</ns3:cad>
          </ns3:TrackPointExtension>
        </extensions>
      </trkpt>
      <trkpt lat="45.27443356812000274658203125" lon="-71.117424555122852325439453125">
        <ele>869.5999755859375</ele>
        <time>2026-08-22T01:08:02.000Z</time>
        <extensions>
          <ns3:TrackPointExtension>
            <ns3:hr>136</ns3:hr>
            <ns3:cad>0</ns3:cad>
          </ns3:TrackPointExtension>
        </extensions>
      </trkpt>
      <trkpt lat="45.2744236774742603302001953125" lon="-71.1174274049699306488037109375">
        <ele>869.79998779296875</ele>
        <time>2026-08-22T01:08:03.000Z</time>
        <extensions>
          <ns3:TrackPointExtension>
            <ns3:hr>136</ns3:hr>
            <ns3:cad>0</ns3:cad>
          </ns3:TrackPointExtension>
        </extensions>
      </trkpt>
      <trkpt lat="45.27441353537142276763916015625" lon="-71.11743637360632419586181640625">
        <ele>870</ele>
        <time>2026-08-22T01:08:04.000Z</time>
        <extensions>
          <ns3:TrackPointExtension>
            <ns3:hr>135</ns3:hr>
            <ns3:cad>0</ns3:cad>
          </ns3:TrackPointExtension>
        </extensions>
      </trkpt>
      <trkpt lat="45.2743981964886188507080078125" lon="-71.1174424923956394195556640625">
        <ele>870.20001220703125</ele>
        <time>2026-08-22T01:08:05.000Z</time>
        <extensions>
          <ns3:TrackPointExtension>
            <ns3:hr>134</ns3:hr>
            <ns3:cad>0</ns3:cad>
          </ns3:TrackPointExtension>
        </extensions>
      </trkpt>
      <trkpt lat="45.27438621036708354949951171875" lon="-71.11744509078562259674072265625">
        <ele>870.4000244140625</ele>
        <time>2026-08-22T01:08:06.000Z</time>
        <extensions>
          <ns3:TrackPointExtension>
            <ns3:hr>134</ns3:hr>
            <ns3:cad>0</ns3:cad>
          </ns3:TrackPointExtension>
        </extensions>
      </trkpt>
      <trkpt lat="45.27437187731266021728515625" lon="-71.117454059422016143798828125">
        <ele>870.5999755859375</ele>
        <time>2026-08-22T01:08:07.000Z</time>
        <extensions>
          <ns3:TrackPointExtension>
            <ns3:hr>133</ns3:hr>
            <ns3:cad>0</ns3:cad>
          </ns3:TrackPointExtension>
        </extensions>
      </trkpt>
      <trkpt lat="45.274366177618503570556640625" lon="-71.11746202223002910614013671875">
        <ele>870.5999755859375</ele>
        <time>2026-08-22T01:08:08.000Z</time>
        <extensions>
          <ns3:TrackPointExtension>
            <ns3:hr>131</ns3:hr>
            <ns3:cad>0</ns3:cad>
          </ns3:TrackPointExtension>
        </extensions>
      </trkpt>
      <trkpt lat="45.2743552811443805694580078125" lon="-71.1174679733812808990478515625">
        <ele>870.79998779296875</ele>
        <time>2026-08-22T01:08:09.000Z</time>
        <extensions>
          <ns3:TrackPointExtension>
            <ns3:hr>130</ns3:hr>
            <ns3:cad>46</ns3:cad>
          </ns3:TrackPointExtension>
        </extensions>
      </trkpt>
      <trkpt lat="45.274344719946384429931640625" lon="-71.11747610382735729217529296875">
        <ele>870.79998779296875</ele>
        <time>2026-08-22T01:08:10.000Z</time>
        <extensions>
          <ns3:TrackPointExtension>
            <ns3:hr>130</ns3:hr>
            <ns3:cad>0</ns3:cad>
          </ns3:TrackPointExtension>
        </extensions>
      </trkpt>
      <trkpt lat="45.2743328176438808441162109375" lon="-71.11748482100665569305419921875">
        <ele>870.79998779296875</ele>
        <time>2026-08-22T01:08:11.000Z</time>
        <extensions>
          <ns3:TrackPointExtension>
            <ns3:hr>131</ns3:hr>
            <ns3:cad>0</ns3:cad>
          </ns3:TrackPointExtension>
        </extensions>
      </trkpt>
      <trkpt lat="45.2743241004645824432373046875" lon="-71.117493622004985809326171875">
        <ele>870.79998779296875</ele>
        <time>2026-08-22T01:08:12.000Z</time>
        <extensions>
          <ns3:TrackPointExtension>
            <ns3:hr>132</ns3:hr>
            <ns3:cad>49</ns3:cad>
          </ns3:TrackPointExtension>
        </extensions>
      </trkpt>
      <trkpt lat="45.274313203990459442138671875" lon="-71.11750527285039424896240234375">
        <ele>870.79998779296875</ele>
        <time>2026-08-22T01:08:13.000Z</time>
        <extensions>
          <ns3:TrackPointExtension>
            <ns3:hr>133</ns3:hr>
            <ns3:cad>49</ns3:cad>
          </ns3:TrackPointExtension>
        </extensions>
      </trkpt>
      <trkpt lat="45.274303145706653594970703125" lon="-71.1175132356584072113037109375">
        <ele>870.5999755859375</ele>
        <time>2026-08-22T01:08:14.000Z</time>
        <extensions>
          <ns3:TrackPointExtension>
            <ns3:hr>133</ns3:hr>
            <ns3:cad>49</ns3:cad>
          </ns3:TrackPointExtension>
        </extensions>
      </trkpt>
      <trkpt lat="45.2742862142622470855712890625" lon="-71.11751474440097808837890625">
        <ele>870.5999755859375</ele>
        <time>2026-08-22T01:08:15.000Z</time>
        <extensions>
          <ns3:TrackPointExtension>
            <ns3:hr>133</ns3:hr>
            <ns3:cad>49</ns3:cad>
          </ns3:TrackPointExtension>
        </extensions>
      </trkpt>
      <trkpt lat="45.2742771618068218231201171875" lon="-71.117519102990627288818359375">
        <ele>870.4000244140625</ele>
        <time>2026-08-22T01:08:16.000Z</time>
        <extensions>
          <ns3:TrackPointExtension>
            <ns3:hr>133</ns3:hr>
            <ns3:cad>49</ns3:cad>
          </ns3:TrackPointExtension>
        </extensions>
      </trkpt>
      <trkpt lat="45.27426852844655513763427734375" lon="-71.11752413213253021240234375">
        <ele>870.4000244140625</ele>
        <time>2026-08-22T01:08:17.000Z</time>
        <extensions>
          <ns3:TrackPointExtension>
            <ns3:hr>133</ns3:hr>
            <ns3:cad>49</ns3:cad>
          </ns3:TrackPointExtension>
        </extensions>
      </trkpt>
      <trkpt lat="45.274258218705654144287109375" lon="-71.11752815544605255126953125">
        <ele>870.4000244140625</ele>
        <time>2026-08-22T01:08:18.000Z</time>
        <extensions>
          <ns3:TrackPointExtension>
            <ns3:hr>133</ns3:hr>
            <ns3:cad>49</ns3:cad>
          </ns3:TrackPointExtension>
        </extensions>
      </trkpt>
      <trkpt lat="45.27425209991633892059326171875" lon="-71.117530502378940582275390625">
        <ele>870.5999755859375</ele>
        <time>2026-08-22T01:08:19.000Z</time>
        <extensions>
          <ns3:TrackPointExtension>
            <ns3:hr>134</ns3:hr>
            <ns3:cad>49</ns3:cad>
          </ns3:TrackPointExtension>
        </extensions>
      </trkpt>
      <trkpt lat="45.27423768304288387298583984375" lon="-71.11753360368311405181884765625">
        <ele>870.79998779296875</ele>
        <time>2026-08-22T01:08:20.000Z</time>
        <extensions>
          <ns3:TrackPointExtension>
            <ns3:hr>133</ns3:hr>
            <ns3:cad>49</ns3:cad>
          </ns3:TrackPointExtension>
        </extensions>
      </trkpt>
      <trkpt lat="45.27422762475907802581787109375" lon="-71.1175382137298583984375">
        <ele>871</ele>
        <time>2026-08-22T01:08:21.000Z</time>
        <extensions>
          <ns3:TrackPointExtension>
            <ns3:hr>133</ns3:hr>
            <ns3:cad>47</ns3:cad>
          </ns3:TrackPointExtension>
        </extensions>
      </trkpt>
      <trkpt lat="45.2742208354175090789794921875" lon="-71.1175397224724292755126953125">
        <ele>871.20001220703125</ele>
        <time>2026-08-22T01:08:22.000Z</time>
        <extensions>
          <ns3:TrackPointExtension>
            <ns3:hr>132</ns3:hr>
            <ns3:cad>0</ns3:cad>
          </ns3:TrackPointExtension>
        </extensions>
      </trkpt>
      <trkpt lat="45.27421337552368640899658203125" lon="-71.1175444163382053375244140625">
        <ele>871.4000244140625</ele>
        <time>2026-08-22T01:08:23.000Z</time>
        <extensions>
          <ns3:TrackPointExtension>
            <ns3:hr>132</ns3:hr>
            <ns3:cad>0</ns3:cad>
          </ns3:TrackPointExtension>
        </extensions>
      </trkpt>
      <trkpt lat="45.27419996447861194610595703125" lon="-71.117555312812328338623046875">
        <ele>871.5999755859375</ele>
        <time>2026-08-22T01:08:24.000Z</time>
        <extensions>
          <ns3:TrackPointExtension>
            <ns3:hr>131</ns3:hr>
            <ns3:cad>0</ns3:cad>
          </ns3:TrackPointExtension>
        </extensions>
      </trkpt>
      <trkpt lat="45.2741923369467258453369140625" lon="-71.1175635270774364471435546875">
        <ele>871.79998779296875</ele>
        <time>2026-08-22T01:08:25.000Z</time>
        <extensions>
          <ns3:TrackPointExtension>
            <ns3:hr>131</ns3:hr>
            <ns3:cad>0</ns3:cad>
          </ns3:TrackPointExtension>
        </extensions>
      </trkpt>
      <trkpt lat="45.2741799317300319671630859375" lon="-71.1175722442567348480224609375">
        <ele>872</ele>
        <time>2026-08-22T01:08:26.000Z</time>
        <extensions>
          <ns3:TrackPointExtension>
            <ns3:hr>130</ns3:hr>
            <ns3:cad>0</ns3:cad>
          </ns3:TrackPointExtension>
        </extensions>
      </trkpt>
      <trkpt lat="45.2741708792746067047119140625" lon="-71.11758054234087467193603515625">
        <ele>872</ele>
        <time>2026-08-22T01:08:27.000Z</time>
        <extensions>
          <ns3:TrackPointExtension>
            <ns3:hr>130</ns3:hr>
            <ns3:cad>0</ns3:cad>
          </ns3:TrackPointExtension>
        </extensions>
      </trkpt>
      <trkpt lat="45.27416040189564228057861328125" lon="-71.1175896786153316497802734375">
        <ele>872</ele>
        <time>2026-08-22T01:08:28.000Z</time>
        <extensions>
          <ns3:TrackPointExtension>
            <ns3:hr>130</ns3:hr>
            <ns3:cad>0</ns3:cad>
          </ns3:TrackPointExtension>
        </extensions>
      </trkpt>
      <trkpt lat="45.27414791285991668701171875" lon="-71.11760334111750125885009765625">
        <ele>872</ele>
        <time>2026-08-22T01:08:29.000Z</time>
        <extensions>
          <ns3:TrackPointExtension>
            <ns3:hr>130</ns3:hr>
            <ns3:cad>0</ns3:cad>
          </ns3:TrackPointExtension>
        </extensions>
      </trkpt>
      <trkpt lat="45.27413123287260532379150390625" lon="-71.1176141537725925445556640625">
        <ele>872</ele>
        <time>2026-08-22T01:08:30.000Z</time>
        <extensions>
          <ns3:TrackPointExtension>
            <ns3:hr>130</ns3:hr>
            <ns3:cad>0</ns3:cad>
          </ns3:TrackPointExtension>
        </extensions>
      </trkpt>
      <trkpt lat="45.27412067167460918426513671875" lon="-71.11762781627476215362548828125">
        <ele>872</ele>
        <time>2026-08-22T01:08:31.000Z</time>
        <extensions>
          <ns3:TrackPointExtension>
            <ns3:hr>130</ns3:hr>
            <ns3:cad>0</ns3:cad>
          </ns3:TrackPointExtension>
        </extensions>
      </trkpt>
      <trkpt lat="45.27410256676375865936279296875" lon="-71.11764810048043727874755859375">
        <ele>872</ele>
        <time>2026-08-22T01:08:32.000Z</time>
        <extensions>
          <ns3:TrackPointExtension>
            <ns3:hr>129</ns3:hr>
            <ns3:cad>0</ns3:cad>
          </ns3:TrackPointExtension>
        </extensions>
      </trkpt>
      <trkpt lat="45.27409116737544536590576171875" lon="-71.11766871996223926544189453125">
        <ele>871.79998779296875</ele>
        <time>2026-08-22T01:08:33.000Z</time>
        <extensions>
          <ns3:TrackPointExtension>
            <ns3:hr>129</ns3:hr>
            <ns3:cad>0</ns3:cad>
          </ns3:TrackPointExtension>
        </extensions>
      </trkpt>
      <trkpt lat="45.2740806899964809417724609375" lon="-71.1176838912069797515869140625">
        <ele>871.79998779296875</ele>
        <time>2026-08-22T01:08:34.000Z</time>
        <extensions>
          <ns3:TrackPointExtension>
            <ns3:hr>129</ns3:hr>
            <ns3:cad>0</ns3:cad>
          </ns3:TrackPointExtension>
        </extensions>
      </trkpt>
      <trkpt lat="45.27407172136008739471435546875" lon="-71.11770124174654483795166015625">
        <ele>871.79998779296875</ele>
        <time>2026-08-22T01:08:35.000Z</time>
        <extensions>
          <ns3:TrackPointExtension>
            <ns3:hr>129</ns3:hr>
            <ns3:cad>0</ns3:cad>
          </ns3:TrackPointExtension>
        </extensions>
      </trkpt>
      <trkpt lat="45.27406015433371067047119140625" lon="-71.11771733500063419342041015625">
        <ele>871.5999755859375</ele>
        <time>2026-08-22T01:08:36.000Z</time>
        <extensions>
          <ns3:TrackPointExtension>
            <ns3:hr>130</ns3:hr>
            <ns3:cad>0</ns3:cad>
          </ns3:TrackPointExtension>
        </extensions>
      </trkpt>
      <trkpt lat="45.2740464918315410614013671875" lon="-71.11772739328444004058837890625">
        <ele>871.5999755859375</ele>
        <time>2026-08-22T01:08:37.000Z</time>
        <extensions>
          <ns3:TrackPointExtension>
            <ns3:hr>131</ns3:hr>
            <ns3:cad>0</ns3:cad>
          </ns3:TrackPointExtension>
        </extensions>
      </trkpt>
      <trkpt lat="45.2740344218909740447998046875" lon="-71.1177388764917850494384765625">
        <ele>871.5999755859375</ele>
        <time>2026-08-22T01:08:38.000Z</time>
        <extensions>
          <ns3:TrackPointExtension>
            <ns3:hr>131</ns3:hr>
            <ns3:cad>0</ns3:cad>
          </ns3:TrackPointExtension>
        </extensions>
      </trkpt>
      <trkpt lat="45.27402050793170928955078125" lon="-71.1177496053278446197509765625">
        <ele>871.5999755859375</ele>
        <time>2026-08-22T01:08:39.000Z</time>
        <extensions>
          <ns3:TrackPointExtension>
            <ns3:hr>132</ns3:hr>
            <ns3:cad>0</ns3:cad>
          </ns3:TrackPointExtension>
        </extensions>
      </trkpt>
      <trkpt lat="45.274008773267269134521484375" lon="-71.11775639466941356658935546875">
        <ele>871.5999755859375</ele>
        <time>2026-08-22T01:08:40.000Z</time>
        <extensions>
          <ns3:TrackPointExtension>
            <ns3:hr>132</ns3:hr>
            <ns3:cad>0</ns3:cad>
          </ns3:TrackPointExtension>
        </extensions>
      </trkpt>
      <trkpt lat="45.27400231920182704925537109375" lon="-71.1177626810967922210693359375">
        <ele>871.79998779296875</ele>
        <time>2026-08-22T01:08:41.000Z</time>
        <extensions>
          <ns3:TrackPointExtension>
            <ns3:hr>131</ns3:hr>
            <ns3:cad>0</ns3:cad>
          </ns3:TrackPointExtension>
        </extensions>
      </trkpt>
      <trkpt lat="45.2739884890615940093994140625" lon="-71.11777047626674175262451171875">
        <ele>871.79998779296875</ele>
        <time>2026-08-22T01:08:42.000Z</time>
        <extensions>
          <ns3:TrackPointExtension>
            <ns3:hr>131</ns3:hr>
            <ns3:cad>0</ns3:cad>
          </ns3:TrackPointExtension>
        </extensions>
      </trkpt>
      <trkpt lat="45.273979604244232177734375" lon="-71.11777416430413722991943359375">
        <ele>871.79998779296875</ele>
        <time>2026-08-22T01:08:43.000Z</time>
        <extensions>
          <ns3:TrackPointExtension>
            <ns3:hr>130</ns3:hr>
            <ns3:cad>0</ns3:cad>
          </ns3:TrackPointExtension>
        </extensions>
      </trkpt>
      <trkpt lat="45.27397415600717067718505859375" lon="-71.11777919344604015350341796875">
        <ele>871.79998779296875</ele>
        <time>2026-08-22T01:08:44.000Z</time>
        <extensions>
          <ns3:TrackPointExtension>
            <ns3:hr>129</ns3:hr>
            <ns3:cad>0</ns3:cad>
          </ns3:TrackPointExtension>
        </extensions>
      </trkpt>
      <trkpt lat="45.27396694757044315338134765625" lon="-71.11778388731181621551513671875">
        <ele>872</ele>
        <time>2026-08-22T01:08:45.000Z</time>
        <extensions>
          <ns3:TrackPointExtension>
            <ns3:hr>128</ns3:hr>
            <ns3:cad>0</ns3:cad>
          </ns3:TrackPointExtension>
        </extensions>
      </trkpt>
      <trkpt lat="45.27396091260015964508056640625" lon="-71.117787323892116546630859375">
        <ele>872</ele>
        <time>2026-08-22T01:08:46.000Z</time>
        <extensions>
          <ns3:TrackPointExtension>
            <ns3:hr>128</ns3:hr>
            <ns3:cad>0</ns3:cad>
          </ns3:TrackPointExtension>
        </extensions>
      </trkpt>
      <trkpt lat="45.27395018376410007476806640625" lon="-71.1177925206720829010009765625">
        <ele>872.20001220703125</ele>
        <time>2026-08-22T01:08:47.000Z</time>
        <extensions>
          <ns3:TrackPointExtension>
            <ns3:hr>127</ns3:hr>
            <ns3:cad>0</ns3:cad>
          </ns3:TrackPointExtension>
        </extensions>
      </trkpt>
      <trkpt lat="45.27394196949899196624755859375" lon="-71.117791347205638885498046875">
        <ele>872.4000244140625</ele>
        <time>2026-08-22T01:08:48.000Z</time>
        <extensions>
          <ns3:TrackPointExtension>
            <ns3:hr>126</ns3:hr>
            <ns3:cad>0</ns3:cad>
          </ns3:TrackPointExtension>
        </extensions>
      </trkpt>
      <trkpt lat="45.273936353623867034912109375" lon="-71.11778824590146541595458984375">
        <ele>872.79998779296875</ele>
        <time>2026-08-22T01:08:49.000Z</time>
        <extensions>
          <ns3:TrackPointExtension>
            <ns3:hr>126</ns3:hr>
            <ns3:cad>0</ns3:cad>
          </ns3:TrackPointExtension>
        </extensions>
      </trkpt>
      <trkpt lat="45.27392688207328319549560546875" lon="-71.11778489314019680023193359375">
        <ele>873</ele>
        <time>2026-08-22T01:08:50.000Z</time>
        <extensions>
          <ns3:TrackPointExtension>
            <ns3:hr>126</ns3:hr>
            <ns3:cad>0</ns3:cad>
          </ns3:TrackPointExtension>
        </extensions>
      </trkpt>
      <trkpt lat="45.2739190869033336639404296875" lon="-71.11777550540864467620849609375">
        <ele>873.20001220703125</ele>
        <time>2026-08-22T01:08:51.000Z</time>
        <extensions>
          <ns3:TrackPointExtension>
            <ns3:hr>127</ns3:hr>
            <ns3:cad>0</ns3:cad>
          </ns3:TrackPointExtension>
        </extensions>
      </trkpt>
      <trkpt lat="45.27391615323722362518310546875" lon="-71.1177700571715831756591796875">
        <ele>873.4000244140625</ele>
        <time>2026-08-22T01:08:52.000Z</time>
        <extensions>
          <ns3:TrackPointExtension>
            <ns3:hr>127</ns3:hr>
            <ns3:cad>50</ns3:cad>
          </ns3:TrackPointExtension>
        </extensions>
      </trkpt>
      <trkpt lat="45.2739120461046695709228515625" lon="-71.11776611767709255218505859375">
        <ele>873.79998779296875</ele>
        <time>2026-08-22T01:08:53.000Z</time>
        <extensions>
          <ns3:TrackPointExtension>
            <ns3:hr>127</ns3:hr>
            <ns3:cad>50</ns3:cad>
          </ns3:TrackPointExtension>
        </extensions>
      </trkpt>
      <trkpt lat="45.27390408329665660858154296875" lon="-71.11775605939328670501708984375">
        <ele>874</ele>
        <time>2026-08-22T01:08:54.000Z</time>
        <extensions>
          <ns3:TrackPointExtension>
            <ns3:hr>127</ns3:hr>
            <ns3:cad>50</ns3:cad>
          </ns3:TrackPointExtension>
        </extensions>
      </trkpt>
      <trkpt lat="45.2738996408879756927490234375" lon="-71.1177512817084789276123046875">
        <ele>874.20001220703125</ele>
        <time>2026-08-22T01:08:55.000Z</time>
        <extensions>
          <ns3:TrackPointExtension>
            <ns3:hr>126</ns3:hr>
            <ns3:cad>50</ns3:cad>
          </ns3:TrackPointExtension>
        </extensions>
      </trkpt>
      <trkpt lat="45.273900143802165985107421875" lon="-71.11775069497525691986083984375">
        <ele>874.4000244140625</ele>
        <time>2026-08-22T01:08:56.000Z</time>
        <extensions>
          <ns3:TrackPointExtension>
            <ns3:hr>126</ns3:hr>
            <ns3:cad>50</ns3:cad>
          </ns3:TrackPointExtension>
        </extensions>
      </trkpt>
      <trkpt lat="45.27389980852603912353515625" lon="-71.1177439056336879730224609375">
        <ele>874.5999755859375</ele>
        <time>2026-08-22T01:08:57.000Z</time>
        <extensions>
          <ns3:TrackPointExtension>
            <ns3:hr>126</ns3:hr>
            <ns3:cad>50</ns3:cad>
          </ns3:TrackPointExtension>
        </extensions>
      </trkpt>
      <trkpt lat="45.27390240691602230072021484375" lon="-71.11774952150881290435791015625">
        <ele>874.79998779296875</ele>
        <time>2026-08-22T01:08:58.000Z</time>
        <extensions>
          <ns3:TrackPointExtension>
            <ns3:hr>126</ns3:hr>
            <ns3:cad>50</ns3:cad>
          </ns3:TrackPointExtension>
        </extensions>
      </trkpt>
      <trkpt lat="45.2739043347537517547607421875" lon="-71.11775421537458896636962890625">
        <ele>875</ele>
        <time>2026-08-22T01:08:59.000Z</time>
        <extensions>
          <ns3:TrackPointExtension>
            <ns3:hr>127</ns3:hr>
            <ns3:cad>0</ns3:cad>
          </ns3:TrackPointExtension>
        </extensions>
      </trkpt>
      <trkpt lat="45.27390358038246631622314453125" lon="-71.117745749652385711669921875">
        <ele>875.20001220703125</ele>
        <time>2026-08-22T01:09:00.000Z</time>
        <extensions>
          <ns3:TrackPointExtension>
            <ns3:hr>127</ns3:hr>
            <ns3:cad>0</ns3:cad>
          </ns3:TrackPointExtension>
        </extensions>
      </trkpt>
      <trkpt lat="45.27390005998313426971435546875" lon="-71.11773409880697727203369140625">
        <ele>875.4000244140625</ele>
        <time>2026-08-22T01:09:01.000Z</time>
        <extensions>
          <ns3:TrackPointExtension>
            <ns3:hr>127</ns3:hr>
            <ns3:cad>0</ns3:cad>
          </ns3:TrackPointExtension>
        </extensions>
      </trkpt>
      <trkpt lat="45.2738969586789608001708984375" lon="-71.1177254654467105865478515625">
        <ele>875.79998779296875</ele>
        <time>2026-08-22T01:09:02.000Z</time>
        <extensions>
          <ns3:TrackPointExtension>
            <ns3:hr>127</ns3:hr>
            <ns3:cad>0</ns3:cad>
          </ns3:TrackPointExtension>
        </extensions>
      </trkpt>
      <trkpt lat="45.27389712631702423095703125" lon="-71.11772336997091770172119140625">
        <ele>876</ele>
        <time>2026-08-22T01:09:03.000Z</time>
        <extensions>
          <ns3:TrackPointExtension>
            <ns3:hr>126</ns3:hr>
            <ns3:cad>0</ns3:cad>
          </ns3:TrackPointExtension>
        </extensions>
      </trkpt>
      <trkpt lat="45.2738936059176921844482421875" lon="-71.1177098751068115234375">
        <ele>876.20001220703125</ele>
        <time>2026-08-22T01:09:04.000Z</time>
        <extensions>
          <ns3:TrackPointExtension>
            <ns3:hr>127</ns3:hr>
            <ns3:cad>0</ns3:cad>
          </ns3:TrackPointExtension>
        </extensions>
      </trkpt>
      <trkpt lat="45.2738865651190280914306640625" lon="-71.11769721843302249908447265625">
        <ele>876.20001220703125</ele>
        <time>2026-08-22T01:09:05.000Z</time>
        <extensions>
          <ns3:TrackPointExtension>
            <ns3:hr>127</ns3:hr>
            <ns3:cad>0</ns3:cad>
          </ns3:TrackPointExtension>
        </extensions>
      </trkpt>
      <trkpt lat="45.2738812007009983062744140625" lon="-71.1176895909011363983154296875">
        <ele>876.4000244140625</ele>
        <time>2026-08-22T01:09:06.000Z</time>
        <extensions>
          <ns3:TrackPointExtension>
            <ns3:hr>128</ns3:hr>
            <ns3:cad>0</ns3:cad>
          </ns3:TrackPointExtension>
        </extensions>
      </trkpt>
      <trkpt lat="45.27387524954974651336669921875" lon="-71.11767810769379138946533203125">
        <ele>876.5999755859375</ele>
        <time>2026-08-22T01:09:07.000Z</time>
        <extensions>
          <ns3:TrackPointExtension>
            <ns3:hr>128</ns3:hr>
            <ns3:cad>0</ns3:cad>
          </ns3:TrackPointExtension>
        </extensions>
      </trkpt>
      <trkpt lat="45.27386904694139957427978515625" lon="-71.11766620539128780364990234375">
        <ele>876.79998779296875</ele>
        <time>2026-08-22T01:09:08.000Z</time>
        <extensions>
          <ns3:TrackPointExtension>
            <ns3:hr>128</ns3:hr>
            <ns3:cad>0</ns3:cad>
          </ns3:TrackPointExtension>
        </extensions>
      </trkpt>
      <trkpt lat="45.27386602945625782012939453125" lon="-71.117659918963909149169921875">
        <ele>877.20001220703125</ele>
        <time>2026-08-22T01:09:09.000Z</time>
        <extensions>
          <ns3:TrackPointExtension>
            <ns3:hr>128</ns3:hr>
            <ns3:cad>0</ns3:cad>
          </ns3:TrackPointExtension>
        </extensions>
      </trkpt>
      <trkpt lat="45.27385882101953029632568359375" lon="-71.11765111796557903289794921875">
        <ele>877.4000244140625</ele>
        <time>2026-08-22T01:09:10.000Z</time>
        <extensions>
          <ns3:TrackPointExtension>
            <ns3:hr>129</ns3:hr>
            <ns3:cad>0</ns3:cad>
          </ns3:TrackPointExtension>
        </extensions>
      </trkpt>
      <trkpt lat="45.2738548815250396728515625" lon="-71.1176468431949615478515625">
        <ele>877.5999755859375</ele>
        <time>2026-08-22T01:09:11.000Z</time>
        <extensions>
          <ns3:TrackPointExtension>
            <ns3:hr>130</ns3:hr>
            <ns3:cad>47</ns3:cad>
          </ns3:TrackPointExtension>
        </extensions>
      </trkpt>
      <trkpt lat="45.27385094203054904937744140625" lon="-71.11764290370047092437744140625">
        <ele>877.79998779296875</ele>
        <time>2026-08-22T01:09:12.000Z</time>
        <extensions>
          <ns3:TrackPointExtension>
            <ns3:hr>130</ns3:hr>
            <ns3:cad>0</ns3:cad>
          </ns3:TrackPointExtension>
        </extensions>
      </trkpt>
      <trkpt lat="45.2738493494689464569091796875" lon="-71.11763468943536281585693359375">
        <ele>878</ele>
        <time>2026-08-22T01:09:13.000Z</time>
        <extensions>
          <ns3:TrackPointExtension>
            <ns3:hr>130</ns3:hr>
            <ns3:cad>0</ns3:cad>
          </ns3:TrackPointExtension>
        </extensions>
      </trkpt>
      <trkpt lat="45.273850522935390472412109375" lon="-71.11763267777860164642333984375">
        <ele>878.20001220703125</ele>
        <time>2026-08-22T01:09:14.000Z</time>
        <extensions>
          <ns3:TrackPointExtension>
            <ns3:hr>131</ns3:hr>
            <ns3:cad>0</ns3:cad>
          </ns3:TrackPointExtension>
        </extensions>
      </trkpt>
      <trkpt lat="45.27385077439248561859130859375" lon="-71.11762496642768383026123046875">
        <ele>878.4000244140625</ele>
        <time>2026-08-22T01:09:15.000Z</time>
        <extensions>
          <ns3:TrackPointExtension>
            <ns3:hr>132</ns3:hr>
            <ns3:cad>0</ns3:cad>
          </ns3:TrackPointExtension>
        </extensions>
      </trkpt>
      <trkpt lat="45.27385144494473934173583984375" lon="-71.1176154948770999908447265625">
        <ele>878.5999755859375</ele>
        <time>2026-08-22T01:09:16.000Z</time>
        <extensions>
          <ns3:TrackPointExtension>
            <ns3:hr>132</ns3:hr>
            <ns3:cad>0</ns3:cad>
          </ns3:TrackPointExtension>
        </extensions>
      </trkpt>
      <trkpt lat="45.2738535404205322265625" lon="-71.11760099418461322784423828125">
        <ele>878.79998779296875</ele>
        <time>2026-08-22T01:09:17.000Z</time>
        <extensions>
          <ns3:TrackPointExtension>
            <ns3:hr>132</ns3:hr>
            <ns3:cad>0</ns3:cad>
          </ns3:TrackPointExtension>
        </extensions>
      </trkpt>
      <trkpt lat="45.27385245077311992645263671875" lon="-71.117597557604312896728515625">
        <ele>879</ele>
        <time>2026-08-22T01:09:18.000Z</time>
        <extensions>
          <ns3:TrackPointExtension>
            <ns3:hr>132</ns3:hr>
            <ns3:cad>0</ns3:cad>
          </ns3:TrackPointExtension>
        </extensions>
      </trkpt>
      <trkpt lat="45.2738513611257076263427734375" lon="-71.1175816319882869720458984375">
        <ele>879.20001220703125</ele>
        <time>2026-08-22T01:09:19.000Z</time>
        <extensions>
          <ns3:TrackPointExtension>
            <ns3:hr>132</ns3:hr>
            <ns3:cad>0</ns3:cad>
          </ns3:TrackPointExtension>
        </extensions>
      </trkpt>
      <trkpt lat="45.2738483436405658721923828125" lon="-71.1175662092864513397216796875">
        <ele>879.4000244140625</ele>
        <time>2026-08-22T01:09:20.000Z</time>
        <extensions>
          <ns3:TrackPointExtension>
            <ns3:hr>132</ns3:hr>
            <ns3:cad>0</ns3:cad>
          </ns3:TrackPointExtension>
        </extensions>
      </trkpt>
      <trkpt lat="45.27384524233639240264892578125" lon="-71.11755858175456523895263671875">
        <ele>879.5999755859375</ele>
        <time>2026-08-22T01:09:21.000Z</time>
        <extensions>
          <ns3:TrackPointExtension>
            <ns3:hr>132</ns3:hr>
            <ns3:cad>45</ns3:cad>
          </ns3:TrackPointExtension>
        </extensions>
      </trkpt>
      <trkpt lat="45.2738382853567600250244140625" lon="-71.11753410659730434417724609375">
        <ele>879.79998779296875</ele>
        <time>2026-08-22T01:09:22.000Z</time>
        <extensions>
          <ns3:TrackPointExtension>
            <ns3:hr>132</ns3:hr>
            <ns3:cad>45</ns3:cad>
          </ns3:TrackPointExtension>
        </extensions>
      </trkpt>
      <trkpt lat="45.2738322503864765167236328125" lon="-71.11752002499997615814208984375">
        <ele>880</ele>
        <time>2026-08-22T01:09:23.000Z</time>
        <extensions>
          <ns3:TrackPointExtension>
            <ns3:hr>132</ns3:hr>
            <ns3:cad>45</ns3:cad>
          </ns3:TrackPointExtension>
        </extensions>
      </trkpt>
      <trkpt lat="45.27382546104490756988525390625" lon="-71.11751264892518520355224609375">
        <ele>880.20001220703125</ele>
        <time>2026-08-22T01:09:24.000Z</time>
        <extensions>
          <ns3:TrackPointExtension>
            <ns3:hr>132</ns3:hr>
            <ns3:cad>45</ns3:cad>
          </ns3:TrackPointExtension>
        </extensions>
      </trkpt>
      <trkpt lat="45.2738185040652751922607421875" lon="-71.11750778742134571075439453125">
        <ele>880.4000244140625</ele>
        <time>2026-08-22T01:09:25.000Z</time>
        <extensions>
          <ns3:TrackPointExtension>
            <ns3:hr>132</ns3:hr>
            <ns3:cad>45</ns3:cad>
          </ns3:TrackPointExtension>
        </extensions>
      </trkpt>
      <trkpt lat="45.27380987070500850677490234375" lon="-71.11749890260398387908935546875">
        <ele>880.5999755859375</ele>
        <time>2026-08-22T01:09:26.000Z</time>
        <extensions>
          <ns3:TrackPointExtension>
            <ns3:hr>133</ns3:hr>
            <ns3:cad>45</ns3:cad>
          </ns3:TrackPointExtension>
        </extensions>
      </trkpt>
      <trkpt lat="45.273801572620868682861328125" lon="-71.11748783849179744720458984375">
        <ele>880.5999755859375</ele>
        <time>2026-08-22T01:09:27.000Z</time>
        <extensions>
          <ns3:TrackPointExtension>
            <ns3:hr>134</ns3:hr>
            <ns3:cad>45</ns3:cad>
          </ns3:TrackPointExtension>
        </extensions>
      </trkpt>
      <trkpt lat="45.273800902068614959716796875" lon="-71.1174827255308628082275390625">
        <ele>880.79998779296875</ele>
        <time>2026-08-22T01:09:28.000Z</time>
        <extensions>
          <ns3:TrackPointExtension>
            <ns3:hr>134</ns3:hr>
            <ns3:cad>45</ns3:cad>
          </ns3:TrackPointExtension>
        </extensions>
      </trkpt>
      <trkpt lat="45.27379444800317287445068359375" lon="-71.11747585237026214599609375">
        <ele>881</ele>
        <time>2026-08-22T01:09:29.000Z</time>
        <extensions>
          <ns3:TrackPointExtension>
            <ns3:hr>134</ns3:hr>
            <ns3:cad>45</ns3:cad>
          </ns3:TrackPointExtension>
        </extensions>
      </trkpt>
      <trkpt lat="45.273785479366779327392578125" lon="-71.1174636147916316986083984375">
        <ele>881.20001220703125</ele>
        <time>2026-08-22T01:09:30.000Z</time>
        <extensions>
          <ns3:TrackPointExtension>
            <ns3:hr>135</ns3:hr>
            <ns3:cad>45</ns3:cad>
          </ns3:TrackPointExtension>
        </extensions>
      </trkpt>
      <trkpt lat="45.2737770974636077880859375" lon="-71.11745431087911128997802734375">
        <ele>881.20001220703125</ele>
        <time>2026-08-22T01:09:31.000Z</time>
        <extensions>
          <ns3:TrackPointExtension>
            <ns3:hr>135</ns3:hr>
            <ns3:cad>45</ns3:cad>
          </ns3:TrackPointExtension>
        </extensions>
      </trkpt>
      <trkpt lat="45.2737665362656116485595703125" lon="-71.11744492314755916595458984375">
        <ele>881.4000244140625</ele>
        <time>2026-08-22T01:09:32.000Z</time>
        <extensions>
          <ns3:TrackPointExtension>
            <ns3:hr>136</ns3:hr>
            <ns3:cad>45</ns3:cad>
          </ns3:TrackPointExtension>
        </extensions>
      </trkpt>
      <trkpt lat="45.27375941164791584014892578125" lon="-71.11744190566241741180419921875">
        <ele>881.5999755859375</ele>
        <time>2026-08-22T01:09:33.000Z</time>
        <extensions>
          <ns3:TrackPointExtension>
            <ns3:hr>137</ns3:hr>
            <ns3:cad>45</ns3:cad>
          </ns3:TrackPointExtension>
        </extensions>
      </trkpt>
      <trkpt lat="45.2737521193921566009521484375" lon="-71.11743561923503875732421875">
        <ele>881.79998779296875</ele>
        <time>2026-08-22T01:09:34.000Z</time>
        <extensions>
          <ns3:TrackPointExtension>
            <ns3:hr>138</ns3:hr>
            <ns3:cad>45</ns3:cad>
          </ns3:TrackPointExtension>
        </extensions>
      </trkpt>
      <trkpt lat="45.2737457491457462310791015625" lon="-71.11742866225540637969970703125">
        <ele>882</ele>
        <time>2026-08-22T01:09:35.000Z</time>
        <extensions>
          <ns3:TrackPointExtension>
            <ns3:hr>138</ns3:hr>
            <ns3:cad>45</ns3:cad>
          </ns3:TrackPointExtension>
        </extensions>
      </trkpt>
      <trkpt lat="45.27373728342354297637939453125" lon="-71.11742648296058177947998046875">
        <ele>882.20001220703125</ele>
        <time>2026-08-22T01:09:36.000Z</time>
        <extensions>
          <ns3:TrackPointExtension>
            <ns3:hr>137</ns3:hr>
            <ns3:cad>45</ns3:cad>
          </ns3:TrackPointExtension>
        </extensions>
      </trkpt>
      <trkpt lat="45.27373024262487888336181640625" lon="-71.117424555122852325439453125">
        <ele>882.20001220703125</ele>
        <time>2026-08-22T01:09:37.000Z</time>
        <extensions>
          <ns3:TrackPointExtension>
            <ns3:hr>138</ns3:hr>
            <ns3:cad>45</ns3:cad>
          </ns3:TrackPointExtension>
        </extensions>
      </trkpt>
      <trkpt lat="45.27372621931135654449462890625" lon="-71.11742354929447174072265625">
        <ele>882.4000244140625</ele>
        <time>2026-08-22T01:09:38.000Z</time>
        <extensions>
          <ns3:TrackPointExtension>
            <ns3:hr>138</ns3:hr>
            <ns3:cad>0</ns3:cad>
          </ns3:TrackPointExtension>
        </extensions>
      </trkpt>
      <trkpt lat="45.273721106350421905517578125" lon="-71.1174233816564083099365234375">
        <ele>882.5999755859375</ele>
        <time>2026-08-22T01:09:39.000Z</time>
        <extensions>
          <ns3:TrackPointExtension>
            <ns3:hr>138</ns3:hr>
            <ns3:cad>0</ns3:cad>
          </ns3:TrackPointExtension>
        </extensions>
      </trkpt>
      <trkpt lat="45.273710377514362335205078125" lon="-71.1174223758280277252197265625">
        <ele>882.5999755859375</ele>
        <time>2026-08-22T01:09:40.000Z</time>
        <extensions>
          <ns3:TrackPointExtension>
            <ns3:hr>138</ns3:hr>
            <ns3:cad>0</ns3:cad>
          </ns3:TrackPointExtension>
        </extensions>
      </trkpt>
      <trkpt lat="45.27370559982955455780029296875" lon="-71.11742086708545684814453125">
        <ele>883</ele>
        <time>2026-08-22T01:09:41.000Z</time>
        <extensions>
          <ns3:TrackPointExtension>
            <ns3:hr>138</ns3:hr>
            <ns3:cad>0</ns3:cad>
          </ns3:TrackPointExtension>
        </extensions>
      </trkpt>
      <trkpt lat="45.2736890874803066253662109375" lon="-71.11742933280766010284423828125">
        <ele>883.20001220703125</ele>
        <time>2026-08-22T01:09:42.000Z</time>
        <extensions>
          <ns3:TrackPointExtension>
            <ns3:hr>137</ns3:hr>
            <ns3:cad>0</ns3:cad>
          </ns3:TrackPointExtension>
        </extensions>
      </trkpt>
      <trkpt lat="45.2736830525100231170654296875" lon="-71.11743838526308536529541015625">
        <ele>883.4000244140625</ele>
        <time>2026-08-22T01:09:43.000Z</time>
        <extensions>
          <ns3:TrackPointExtension>
            <ns3:hr>138</ns3:hr>
            <ns3:cad>0</ns3:cad>
          </ns3:TrackPointExtension>
        </extensions>
      </trkpt>
      <trkpt lat="45.2736724913120269775390625" lon="-71.11744659952819347381591796875">
        <ele>883.5999755859375</ele>
        <time>2026-08-22T01:09:44.000Z</time>
        <extensions>
          <ns3:TrackPointExtension>
            <ns3:hr>138</ns3:hr>
            <ns3:cad>0</ns3:cad>
          </ns3:TrackPointExtension>
        </extensions>
      </trkpt>
      <trkpt lat="45.27366067282855510711669921875" lon="-71.1174522154033184051513671875">
        <ele>883.79998779296875</ele>
        <time>2026-08-22T01:09:45.000Z</time>
        <extensions>
          <ns3:TrackPointExtension>
            <ns3:hr>139</ns3:hr>
            <ns3:cad>0</ns3:cad>
          </ns3:TrackPointExtension>
        </extensions>
      </trkpt>
      <trkpt lat="45.27365145273506641387939453125" lon="-71.11745917238295078277587890625">
        <ele>884</ele>
        <time>2026-08-22T01:09:46.000Z</time>
        <extensions>
          <ns3:TrackPointExtension>
            <ns3:hr>138</ns3:hr>
            <ns3:cad>0</ns3:cad>
          </ns3:TrackPointExtension>
        </extensions>
      </trkpt>
      <trkpt lat="45.27364441193640232086181640625" lon="-71.11746470443904399871826171875">
        <ele>884</ele>
        <time>2026-08-22T01:09:47.000Z</time>
        <extensions>
          <ns3:TrackPointExtension>
            <ns3:hr>138</ns3:hr>
            <ns3:cad>0</ns3:cad>
          </ns3:TrackPointExtension>
        </extensions>
      </trkpt>
      <trkpt lat="45.27363351546227931976318359375" lon="-71.11747224815189838409423828125">
        <ele>884.20001220703125</ele>
        <time>2026-08-22T01:09:48.000Z</time>
        <extensions>
          <ns3:TrackPointExtension>
            <ns3:hr>137</ns3:hr>
            <ns3:cad>0</ns3:cad>
          </ns3:TrackPointExtension>
        </extensions>
      </trkpt>
      <trkpt lat="45.2736290730535984039306640625" lon="-71.11747912131249904632568359375">
        <ele>884.5999755859375</ele>
        <time>2026-08-22T01:09:49.000Z</time>
        <extensions>
          <ns3:TrackPointExtension>
            <ns3:hr>137</ns3:hr>
            <ns3:cad>0</ns3:cad>
          </ns3:TrackPointExtension>
        </extensions>
      </trkpt>
      <trkpt lat="45.27362831868231296539306640625" lon="-71.11748733557760715484619140625">
        <ele>884.79998779296875</ele>
        <time>2026-08-22T01:09:50.000Z</time>
        <extensions>
          <ns3:TrackPointExtension>
            <ns3:hr>136</ns3:hr>
            <ns3:cad>0</ns3:cad>
          </ns3:TrackPointExtension>
        </extensions>
      </trkpt>
      <trkpt lat="45.27362328954041004180908203125" lon="-71.1174805462360382080078125">
        <ele>884.79998779296875</ele>
        <time>2026-08-22T01:09:51.000Z</time>
        <extensions>
          <ns3:TrackPointExtension>
            <ns3:hr>136</ns3:hr>
            <ns3:cad>0</ns3:cad>
          </ns3:TrackPointExtension>
        </extensions>
      </trkpt>
      <trkpt lat="45.2736200205981731414794921875" lon="-71.11748121678829193115234375">
        <ele>885</ele>
        <time>2026-08-22T01:09:52.000Z</time>
        <extensions>
          <ns3:TrackPointExtension>
            <ns3:hr>137</ns3:hr>
            <ns3:cad>0</ns3:cad>
          </ns3:TrackPointExtension>
        </extensions>
      </trkpt>
      <trkpt lat="45.27360736392438411712646484375" lon="-71.1174832284450531005859375">
        <ele>885.20001220703125</ele>
        <time>2026-08-22T01:09:53.000Z</time>
        <extensions>
          <ns3:TrackPointExtension>
            <ns3:hr>137</ns3:hr>
            <ns3:cad>0</ns3:cad>
          </ns3:TrackPointExtension>
        </extensions>
      </trkpt>
      <trkpt lat="45.27360065840184688568115234375" lon="-71.117486916482448577880859375">
        <ele>885.4000244140625</ele>
        <time>2026-08-22T01:09:54.000Z</time>
        <extensions>
          <ns3:TrackPointExtension>
            <ns3:hr>138</ns3:hr>
            <ns3:cad>0</ns3:cad>
          </ns3:TrackPointExtension>
        </extensions>
      </trkpt>
      <trkpt lat="45.27359671890735626220703125" lon="-71.11748951487243175506591796875">
        <ele>885.5999755859375</ele>
        <time>2026-08-22T01:09:55.000Z</time>
        <extensions>
          <ns3:TrackPointExtension>
            <ns3:hr>138</ns3:hr>
            <ns3:cad>0</ns3:cad>
          </ns3:TrackPointExtension>
        </extensions>
      </trkpt>
      <trkpt lat="45.2735962159931659698486328125" lon="-71.11749705858528614044189453125">
        <ele>885.79998779296875</ele>
        <time>2026-08-22T01:09:56.000Z</time>
        <extensions>
          <ns3:TrackPointExtension>
            <ns3:hr>138</ns3:hr>
            <ns3:cad>0</ns3:cad>
          </ns3:TrackPointExtension>
        </extensions>
      </trkpt>
      <trkpt lat="45.2735921926796436309814453125" lon="-71.117506362497806549072265625">
        <ele>886.20001220703125</ele>
        <time>2026-08-22T01:09:57.000Z</time>
        <extensions>
          <ns3:TrackPointExtension>
            <ns3:hr>138</ns3:hr>
            <ns3:cad>0</ns3:cad>
          </ns3:TrackPointExtension>
        </extensions>
      </trkpt>
      <trkpt lat="45.2735864929854869842529296875" lon="-71.11751608550548553466796875">
        <ele>886.4000244140625</ele>
        <time>2026-08-22T01:09:58.000Z</time>
        <extensions>
          <ns3:TrackPointExtension>
            <ns3:hr>138</ns3:hr>
            <ns3:cad>0</ns3:cad>
          </ns3:TrackPointExtension>
        </extensions>
      </trkpt>
      <trkpt lat="45.273584984242916107177734375" lon="-71.1175216175615787506103515625">
        <ele>886.5999755859375</ele>
        <time>2026-08-22T01:09:59.000Z</time>
        <extensions>
          <ns3:TrackPointExtension>
            <ns3:hr>138</ns3:hr>
            <ns3:cad>0</ns3:cad>
          </ns3:TrackPointExtension>
        </extensions>
      </trkpt>
      <trkpt lat="45.27358288876712322235107421875" lon="-71.1175242997705936431884765625">
        <ele>886.79998779296875</ele>
        <time>2026-08-22T01:10:00.000Z</time>
        <extensions>
          <ns3:TrackPointExtension>
            <ns3:hr>138</ns3:hr>
            <ns3:cad>0</ns3:cad>
          </ns3:TrackPointExtension>
        </extensions>
      </trkpt>
      <trkpt lat="45.2735804580152034759521484375" lon="-71.11752321012318134307861328125">
        <ele>887</ele>
        <time>2026-08-22T01:10:01.000Z</time>
        <extensions>
          <ns3:TrackPointExtension>
            <ns3:hr>138</ns3:hr>
            <ns3:cad>0</ns3:cad>
          </ns3:TrackPointExtension>
        </extensions>
      </trkpt>
      <trkpt lat="45.27357903309166431427001953125" lon="-71.1175242997705936431884765625">
        <ele>887.20001220703125</ele>
        <time>2026-08-22T01:10:02.000Z</time>
        <extensions>
          <ns3:TrackPointExtension>
            <ns3:hr>138</ns3:hr>
            <ns3:cad>0</ns3:cad>
          </ns3:TrackPointExtension>
        </extensions>
      </trkpt>
      <trkpt lat="45.27357601560652256011962890625" lon="-71.117519773542881011962890625">
        <ele>887.4000244140625</ele>
        <time>2026-08-22T01:10:03.000Z</time>
        <extensions>
          <ns3:TrackPointExtension>
            <ns3:hr>138</ns3:hr>
            <ns3:cad>0</ns3:cad>
          </ns3:TrackPointExtension>
        </extensions>
      </trkpt>
      <trkpt lat="45.27357283048331737518310546875" lon="-71.1175172589719295501708984375">
        <ele>887.4000244140625</ele>
        <time>2026-08-22T01:10:04.000Z</time>
        <extensions>
          <ns3:TrackPointExtension>
            <ns3:hr>139</ns3:hr>
            <ns3:cad>0</ns3:cad>
          </ns3:TrackPointExtension>
        </extensions>
      </trkpt>
      <trkpt lat="45.27356679551303386688232421875" lon="-71.1175105534493923187255859375">
        <ele>887.5999755859375</ele>
        <time>2026-08-22T01:10:05.000Z</time>
        <extensions>
          <ns3:TrackPointExtension>
            <ns3:hr>138</ns3:hr>
            <ns3:cad>0</ns3:cad>
          </ns3:TrackPointExtension>
        </extensions>
      </trkpt>
      <trkpt lat="45.27356746606528759002685546875" lon="-71.117511726915836334228515625">
        <ele>887.79998779296875</ele>
        <time>2026-08-22T01:10:06.000Z</time>
        <extensions>
          <ns3:TrackPointExtension>
            <ns3:hr>138</ns3:hr>
            <ns3:cad>0</ns3:cad>
          </ns3:TrackPointExtension>
        </extensions>
      </trkpt>
      <trkpt lat="45.27356713078916072845458984375" lon="-71.11751231364905834197998046875">
        <ele>888</ele>
        <time>2026-08-22T01:10:07.000Z</time>
        <extensions>
          <ns3:TrackPointExtension>
            <ns3:hr>138</ns3:hr>
            <ns3:cad>0</ns3:cad>
          </ns3:TrackPointExtension>
        </extensions>
      </trkpt>
      <trkpt lat="45.2735623531043529510498046875" lon="-71.1175075359642505645751953125">
        <ele>888.20001220703125</ele>
        <time>2026-08-22T01:10:08.000Z</time>
        <extensions>
          <ns3:TrackPointExtension>
            <ns3:hr>138</ns3:hr>
            <ns3:cad>0</ns3:cad>
          </ns3:TrackPointExtension>
        </extensions>
      </trkpt>
      <trkpt lat="45.27356025762856006622314453125" lon="-71.117505691945552825927734375">
        <ele>888.4000244140625</ele>
        <time>2026-08-22T01:10:09.000Z</time>
        <extensions>
          <ns3:TrackPointExtension>
            <ns3:hr>138</ns3:hr>
            <ns3:cad>0</ns3:cad>
          </ns3:TrackPointExtension>
        </extensions>
      </trkpt>
      <trkpt lat="45.27356025762856006622314453125" lon="-71.11750192008912563323974609375">
        <ele>888.5999755859375</ele>
        <time>2026-08-22T01:10:10.000Z</time>
        <extensions>
          <ns3:TrackPointExtension>
            <ns3:hr>138</ns3:hr>
            <ns3:cad>0</ns3:cad>
          </ns3:TrackPointExtension>
        </extensions>
      </trkpt>
      <trkpt lat="45.27355841360986232757568359375" lon="-71.117500998079776763916015625">
        <ele>889</ele>
        <time>2026-08-22T01:10:11.000Z</time>
        <extensions>
          <ns3:TrackPointExtension>
            <ns3:hr>139</ns3:hr>
            <ns3:cad>0</ns3:cad>
          </ns3:TrackPointExtension>
        </extensions>
      </trkpt>
      <trkpt lat="45.273561514914035797119140625" lon="-71.11750292591750621795654296875">
        <ele>889.20001220703125</ele>
        <time>2026-08-22T01:10:12.000Z</time>
        <extensions>
          <ns3:TrackPointExtension>
            <ns3:hr>139</ns3:hr>
            <ns3:cad>0</ns3:cad>
          </ns3:TrackPointExtension>
        </extensions>
      </trkpt>
      <trkpt lat="45.2735600061714649200439453125" lon="-71.11750074662268161773681640625">
        <ele>889.4000244140625</ele>
        <time>2026-08-22T01:10:13.000Z</time>
        <extensions>
          <ns3:TrackPointExtension>
            <ns3:hr>139</ns3:hr>
            <ns3:cad>0</ns3:cad>
          </ns3:TrackPointExtension>
        </extensions>
      </trkpt>
      <trkpt lat="45.27355556376278400421142578125" lon="-71.11749420873820781707763671875">
        <ele>889.5999755859375</ele>
        <time>2026-08-22T01:10:14.000Z</time>
        <extensions>
          <ns3:TrackPointExtension>
            <ns3:hr>139</ns3:hr>
            <ns3:cad>0</ns3:cad>
          </ns3:TrackPointExtension>
        </extensions>
      </trkpt>
      <trkpt lat="45.27355254627764225006103515625" lon="-71.11749286763370037078857421875">
        <ele>889.79998779296875</ele>
        <time>2026-08-22T01:10:15.000Z</time>
        <extensions>
          <ns3:TrackPointExtension>
            <ns3:hr>139</ns3:hr>
            <ns3:cad>0</ns3:cad>
          </ns3:TrackPointExtension>
        </extensions>
      </trkpt>
      <trkpt lat="45.27354986406862735748291015625" lon="-71.11748968251049518585205078125">
        <ele>890</ele>
        <time>2026-08-22T01:10:16.000Z</time>
        <extensions>
          <ns3:TrackPointExtension>
            <ns3:hr>140</ns3:hr>
            <ns3:cad>0</ns3:cad>
          </ns3:TrackPointExtension>
        </extensions>
      </trkpt>
      <trkpt lat="45.27354651130735874176025390625" lon="-71.1174820549786090850830078125">
        <ele>890.20001220703125</ele>
        <time>2026-08-22T01:10:17.000Z</time>
        <extensions>
          <ns3:TrackPointExtension>
            <ns3:hr>139</ns3:hr>
            <ns3:cad>0</ns3:cad>
          </ns3:TrackPointExtension>
        </extensions>
      </trkpt>
      <trkpt lat="45.2735455892980098724365234375" lon="-71.117481552064418792724609375">
        <ele>890.4000244140625</ele>
        <time>2026-08-22T01:10:18.000Z</time>
        <extensions>
          <ns3:TrackPointExtension>
            <ns3:hr>140</ns3:hr>
            <ns3:cad>0</ns3:cad>
          </ns3:TrackPointExtension>
        </extensions>
      </trkpt>
      <trkpt lat="45.2735415659844875335693359375" lon="-71.11748079769313335418701171875">
        <ele>890.5999755859375</ele>
        <time>2026-08-22T01:10:19.000Z</time>
        <extensions>
          <ns3:TrackPointExtension>
            <ns3:hr>140</ns3:hr>
            <ns3:cad>0</ns3:cad>
          </ns3:TrackPointExtension>
        </extensions>
      </trkpt>
      <trkpt lat="45.27353645302355289459228515625" lon="-71.11747476272284984588623046875">
        <ele>890.79998779296875</ele>
        <time>2026-08-22T01:10:20.000Z</time>
        <extensions>
          <ns3:TrackPointExtension>
            <ns3:hr>140</ns3:hr>
            <ns3:cad>0</ns3:cad>
          </ns3:TrackPointExtension>
        </extensions>
      </trkpt>
      <trkpt lat="45.27353477664291858673095703125" lon="-71.117471493780612945556640625">
        <ele>891</ele>
        <time>2026-08-22T01:10:21.000Z</time>
        <extensions>
          <ns3:TrackPointExtension>
            <ns3:hr>140</ns3:hr>
            <ns3:cad>0</ns3:cad>
          </ns3:TrackPointExtension>
        </extensions>
      </trkpt>
      <trkpt lat="45.27353209443390369415283203125" lon="-71.1174662970006465911865234375">
        <ele>891.20001220703125</ele>
        <time>2026-08-22T01:10:22.000Z</time>
        <extensions>
          <ns3:TrackPointExtension>
            <ns3:hr>140</ns3:hr>
            <ns3:cad>0</ns3:cad>
          </ns3:TrackPointExtension>
        </extensions>
      </trkpt>
      <trkpt lat="45.2735321782529354095458984375" lon="-71.11746378242969512939453125">
        <ele>891.4000244140625</ele>
        <time>2026-08-22T01:10:23.000Z</time>
        <extensions>
          <ns3:TrackPointExtension>
            <ns3:hr>140</ns3:hr>
            <ns3:cad>68</ns3:cad>
          </ns3:TrackPointExtension>
        </extensions>
      </trkpt>
      <trkpt lat="45.2735311724245548248291015625" lon="-71.11745531670749187469482421875">
        <ele>891.5999755859375</ele>
        <time>2026-08-22T01:10:24.000Z</time>
        <extensions>
          <ns3:TrackPointExtension>
            <ns3:hr>140</ns3:hr>
            <ns3:cad>68</ns3:cad>
          </ns3:TrackPointExtension>
        </extensions>
      </trkpt>
      <trkpt lat="45.27353142388164997100830078125" lon="-71.1174522154033184051513671875">
        <ele>891.79998779296875</ele>
        <time>2026-08-22T01:10:25.000Z</time>
        <extensions>
          <ns3:TrackPointExtension>
            <ns3:hr>140</ns3:hr>
            <ns3:cad>68</ns3:cad>
          </ns3:TrackPointExtension>
        </extensions>
      </trkpt>
      <trkpt lat="45.27352874167263507843017578125" lon="-71.1174438335001468658447265625">
        <ele>892</ele>
        <time>2026-08-22T01:10:26.000Z</time>
        <extensions>
          <ns3:TrackPointExtension>
            <ns3:hr>140</ns3:hr>
            <ns3:cad>68</ns3:cad>
          </ns3:TrackPointExtension>
        </extensions>
      </trkpt>
      <trkpt lat="45.2735251374542713165283203125" lon="-71.11743201501667499542236328125">
        <ele>892.20001220703125</ele>
        <time>2026-08-22T01:10:27.000Z</time>
        <extensions>
          <ns3:TrackPointExtension>
            <ns3:hr>140</ns3:hr>
            <ns3:cad>0</ns3:cad>
          </ns3:TrackPointExtension>
        </extensions>
      </trkpt>
      <trkpt lat="45.2735211141407489776611328125" lon="-71.11742354929447174072265625">
        <ele>892.4000244140625</ele>
        <time>2026-08-22T01:10:28.000Z</time>
        <extensions>
          <ns3:TrackPointExtension>
            <ns3:hr>140</ns3:hr>
            <ns3:cad>0</ns3:cad>
          </ns3:TrackPointExtension>
        </extensions>
      </trkpt>
      <trkpt lat="45.27351918630301952362060546875" lon="-71.11741893924772739410400390625">
        <ele>892.5999755859375</ele>
        <time>2026-08-22T01:10:29.000Z</time>
        <extensions>
          <ns3:TrackPointExtension>
            <ns3:hr>139</ns3:hr>
            <ns3:cad>0</ns3:cad>
          </ns3:TrackPointExtension>
        </extensions>
      </trkpt>
      <trkpt lat="45.27351533062756061553955078125" lon="-71.117415167391300201416015625">
        <ele>892.5999755859375</ele>
        <time>2026-08-22T01:10:30.000Z</time>
        <extensions>
          <ns3:TrackPointExtension>
            <ns3:hr>140</ns3:hr>
            <ns3:cad>0</ns3:cad>
          </ns3:TrackPointExtension>
        </extensions>
      </trkpt>
      <trkpt lat="45.27350594289600849151611328125" lon="-71.11741013824939727783203125">
        <ele>892.79998779296875</ele>
        <time>2026-08-22T01:10:31.000Z</time>
        <extensions>
          <ns3:TrackPointExtension>
            <ns3:hr>139</ns3:hr>
            <ns3:cad>0</ns3:cad>
          </ns3:TrackPointExtension>
        </extensions>
      </trkpt>
      <trkpt lat="45.27349689044058322906494140625" lon="-71.11740485765039920806884765625">
        <ele>892.79998779296875</ele>
        <time>2026-08-22T01:10:32.000Z</time>
        <extensions>
          <ns3:TrackPointExtension>
            <ns3:hr>140</ns3:hr>
            <ns3:cad>0</ns3:cad>
          </ns3:TrackPointExtension>
        </extensions>
      </trkpt>
      <trkpt lat="45.273489765822887420654296875" lon="-71.11740150488913059234619140625">
        <ele>893</ele>
        <time>2026-08-22T01:10:33.000Z</time>
        <extensions>
          <ns3:TrackPointExtension>
            <ns3:hr>140</ns3:hr>
            <ns3:cad>0</ns3:cad>
          </ns3:TrackPointExtension>
        </extensions>
      </trkpt>
      <trkpt lat="45.27348138391971588134765625" lon="-71.11739396117627620697021484375">
        <ele>893.20001220703125</ele>
        <time>2026-08-22T01:10:34.000Z</time>
        <extensions>
          <ns3:TrackPointExtension>
            <ns3:hr>140</ns3:hr>
            <ns3:cad>0</ns3:cad>
          </ns3:TrackPointExtension>
        </extensions>
      </trkpt>
      <trkpt lat="45.2734761871397495269775390625" lon="-71.1173875071108341217041015625">
        <ele>893.20001220703125</ele>
        <time>2026-08-22T01:10:35.000Z</time>
        <extensions>
          <ns3:TrackPointExtension>
            <ns3:hr>140</ns3:hr>
            <ns3:cad>0</ns3:cad>
          </ns3:TrackPointExtension>
        </extensions>
      </trkpt>
      <trkpt lat="45.2734728343784809112548828125" lon="-71.1173844896256923675537109375">
        <ele>893.4000244140625</ele>
        <time>2026-08-22T01:10:36.000Z</time>
        <extensions>
          <ns3:TrackPointExtension>
            <ns3:hr>139</ns3:hr>
            <ns3:cad>0</ns3:cad>
          </ns3:TrackPointExtension>
        </extensions>
      </trkpt>
      <trkpt lat="45.2734701521694660186767578125" lon="-71.11738331615924835205078125">
        <ele>893.4000244140625</ele>
        <time>2026-08-22T01:10:37.000Z</time>
        <extensions>
          <ns3:TrackPointExtension>
            <ns3:hr>139</ns3:hr>
            <ns3:cad>0</ns3:cad>
          </ns3:TrackPointExtension>
        </extensions>
      </trkpt>
      <trkpt lat="45.27346403338015079498291015625" lon="-71.11737770028412342071533203125">
        <ele>893.5999755859375</ele>
        <time>2026-08-22T01:10:38.000Z</time>
        <extensions>
          <ns3:TrackPointExtension>
            <ns3:hr>139</ns3:hr>
            <ns3:cad>0</ns3:cad>
          </ns3:TrackPointExtension>
        </extensions>
      </trkpt>
      <trkpt lat="45.273455567657947540283203125" lon="-71.11736965365707874298095703125">
        <ele>893.79998779296875</ele>
        <time>2026-08-22T01:10:39.000Z</time>
        <extensions>
          <ns3:TrackPointExtension>
            <ns3:hr>140</ns3:hr>
            <ns3:cad>0</ns3:cad>
          </ns3:TrackPointExtension>
        </extensions>
      </trkpt>
      <trkpt lat="45.273448862135410308837890625" lon="-71.1173667199909687042236328125">
        <ele>894</ele>
        <time>2026-08-22T01:10:40.000Z</time>
        <extensions>
          <ns3:TrackPointExtension>
            <ns3:hr>140</ns3:hr>
            <ns3:cad>0</ns3:cad>
          </ns3:TrackPointExtension>
        </extensions>
      </trkpt>
      <trkpt lat="45.273444838821887969970703125" lon="-71.11736579798161983489990234375">
        <ele>894.20001220703125</ele>
        <time>2026-08-22T01:10:41.000Z</time>
        <extensions>
          <ns3:TrackPointExtension>
            <ns3:hr>140</ns3:hr>
            <ns3:cad>0</ns3:cad>
          </ns3:TrackPointExtension>
        </extensions>
      </trkpt>
      <trkpt lat="45.2734372951090335845947265625" lon="-71.11735825426876544952392578125">
        <ele>894.4000244140625</ele>
        <time>2026-08-22T01:10:42.000Z</time>
        <extensions>
          <ns3:TrackPointExtension>
            <ns3:hr>139</ns3:hr>
            <ns3:cad>0</ns3:cad>
          </ns3:TrackPointExtension>
        </extensions>
      </trkpt>
      <trkpt lat="45.2734326012432575225830078125" lon="-71.1173518002033233642578125">
        <ele>894.5999755859375</ele>
        <time>2026-08-22T01:10:43.000Z</time>
        <extensions>
          <ns3:TrackPointExtension>
            <ns3:hr>139</ns3:hr>
            <ns3:cad>0</ns3:cad>
          </ns3:TrackPointExtension>
        </extensions>
      </trkpt>
      <trkpt lat="45.273423381149768829345703125" lon="-71.11734417267143726348876953125">
        <ele>895</ele>
        <time>2026-08-22T01:10:44.000Z</time>
        <extensions>
          <ns3:TrackPointExtension>
            <ns3:hr>139</ns3:hr>
            <ns3:cad>0</ns3:cad>
          </ns3:TrackPointExtension>
        </extensions>
      </trkpt>
      <trkpt lat="45.2734141610562801361083984375" lon="-71.11734132282435894012451171875">
        <ele>895.20001220703125</ele>
        <time>2026-08-22T01:10:45.000Z</time>
        <extensions>
          <ns3:TrackPointExtension>
            <ns3:hr>140</ns3:hr>
            <ns3:cad>0</ns3:cad>
          </ns3:TrackPointExtension>
        </extensions>
      </trkpt>
      <trkpt lat="45.27340452186763286590576171875" lon="-71.117340736091136932373046875">
        <ele>895.4000244140625</ele>
        <time>2026-08-22T01:10:46.000Z</time>
        <extensions>
          <ns3:TrackPointExtension>
            <ns3:hr>140</ns3:hr>
            <ns3:cad>0</ns3:cad>
          </ns3:TrackPointExtension>
        </extensions>
      </trkpt>
      <trkpt lat="45.2733970619738101959228515625" lon="-71.1173422448337078094482421875">
        <ele>895.5999755859375</ele>
        <time>2026-08-22T01:10:47.000Z</time>
        <extensions>
          <ns3:TrackPointExtension>
            <ns3:hr>140</ns3:hr>
            <ns3:cad>0</ns3:cad>
          </ns3:TrackPointExtension>
        </extensions>
      </trkpt>
      <trkpt lat="45.27339421212673187255859375" lon="-71.11734568141400814056396484375">
        <ele>895.5999755859375</ele>
        <time>2026-08-22T01:10:48.000Z</time>
        <extensions>
          <ns3:TrackPointExtension>
            <ns3:hr>140</ns3:hr>
            <ns3:cad>0</ns3:cad>
          </ns3:TrackPointExtension>
        </extensions>
      </trkpt>
      <trkpt lat="45.2733802981674671173095703125" lon="-71.117346771061420440673828125">
        <ele>895.79998779296875</ele>
        <time>2026-08-22T01:10:49.000Z</time>
        <extensions>
          <ns3:TrackPointExtension>
            <ns3:hr>140</ns3:hr>
            <ns3:cad>0</ns3:cad>
          </ns3:TrackPointExtension>
        </extensions>
      </trkpt>
      <trkpt lat="45.2733742631971836090087890625" lon="-71.11734442412853240966796875">
        <ele>896.20001220703125</ele>
        <time>2026-08-22T01:10:50.000Z</time>
        <extensions>
          <ns3:TrackPointExtension>
            <ns3:hr>140</ns3:hr>
            <ns3:cad>0</ns3:cad>
          </ns3:TrackPointExtension>
        </extensions>
      </trkpt>
      <trkpt lat="45.2733655460178852081298828125" lon="-71.11734568141400814056396484375">
        <ele>896.20001220703125</ele>
        <time>2026-08-22T01:10:51.000Z</time>
        <extensions>
          <ns3:TrackPointExtension>
            <ns3:hr>139</ns3:hr>
            <ns3:cad>0</ns3:cad>
          </ns3:TrackPointExtension>
        </extensions>
      </trkpt>
      <trkpt lat="45.2733544819056987762451171875" lon="-71.11735154874622821807861328125">
        <ele>896.4000244140625</ele>
        <time>2026-08-22T01:10:52.000Z</time>
        <extensions>
          <ns3:TrackPointExtension>
            <ns3:hr>140</ns3:hr>
            <ns3:cad>0</ns3:cad>
          </ns3:TrackPointExtension>
        </extensions>
      </trkpt>
      <trkpt lat="45.27334819547832012176513671875" lon="-71.1173543147742748260498046875">
        <ele>896.5999755859375</ele>
        <time>2026-08-22T01:10:53.000Z</time>
        <extensions>
          <ns3:TrackPointExtension>
            <ns3:hr>141</ns3:hr>
            <ns3:cad>0</ns3:cad>
          </ns3:TrackPointExtension>
        </extensions>
      </trkpt>
      <trkpt lat="45.2733414061367511749267578125" lon="-71.1173583380877971649169921875">
        <ele>896.5999755859375</ele>
        <time>2026-08-22T01:10:54.000Z</time>
        <extensions>
          <ns3:TrackPointExtension>
            <ns3:hr>142</ns3:hr>
            <ns3:cad>0</ns3:cad>
          </ns3:TrackPointExtension>
        </extensions>
      </trkpt>
      <trkpt lat="45.27332740835845470428466796875" lon="-71.11736713908612728118896484375">
        <ele>896.79998779296875</ele>
        <time>2026-08-22T01:10:55.000Z</time>
        <extensions>
          <ns3:TrackPointExtension>
            <ns3:hr>142</ns3:hr>
            <ns3:cad>0</ns3:cad>
          </ns3:TrackPointExtension>
        </extensions>
      </trkpt>
      <trkpt lat="45.2733139134943485260009765625" lon="-71.1173764429986476898193359375">
        <ele>897</ele>
        <time>2026-08-22T01:10:56.000Z</time>
        <extensions>
          <ns3:TrackPointExtension>
            <ns3:hr>142</ns3:hr>
            <ns3:cad>0</ns3:cad>
          </ns3:TrackPointExtension>
        </extensions>
      </trkpt>
      <trkpt lat="45.273307375609874725341796875" lon="-71.11738859675824642181396484375">
        <ele>897</ele>
        <time>2026-08-22T01:10:57.000Z</time>
        <extensions>
          <ns3:TrackPointExtension>
            <ns3:hr>142</ns3:hr>
            <ns3:cad>0</ns3:cad>
          </ns3:TrackPointExtension>
        </extensions>
      </trkpt>
      <trkpt lat="45.2733023464679718017578125" lon="-71.11739949323236942291259765625">
        <ele>897.20001220703125</ele>
        <time>2026-08-22T01:10:58.000Z</time>
        <extensions>
          <ns3:TrackPointExtension>
            <ns3:hr>142</ns3:hr>
            <ns3:cad>0</ns3:cad>
          </ns3:TrackPointExtension>
        </extensions>
      </trkpt>
      <trkpt lat="45.27329673059284687042236328125" lon="-71.11741726286709308624267578125">
        <ele>897.4000244140625</ele>
        <time>2026-08-22T01:10:59.000Z</time>
        <extensions>
          <ns3:TrackPointExtension>
            <ns3:hr>141</ns3:hr>
            <ns3:cad>0</ns3:cad>
          </ns3:TrackPointExtension>
        </extensions>
      </trkpt>
      <trkpt lat="45.27329304255545139312744140625" lon="-71.11742899753153324127197265625">
        <ele>897.4000244140625</ele>
        <time>2026-08-22T01:11:00.000Z</time>
        <extensions>
          <ns3:TrackPointExtension>
            <ns3:hr>141</ns3:hr>
            <ns3:cad>0</ns3:cad>
          </ns3:TrackPointExtension>
        </extensions>
      </trkpt>
      <trkpt lat="45.27328616939485073089599609375" lon="-71.11743469722568988800048828125">
        <ele>897.4000244140625</ele>
        <time>2026-08-22T01:11:01.000Z</time>
        <extensions>
          <ns3:TrackPointExtension>
            <ns3:hr>141</ns3:hr>
            <ns3:cad>0</ns3:cad>
          </ns3:TrackPointExtension>
        </extensions>
      </trkpt>
      <trkpt lat="45.273279882967472076416015625" lon="-71.117438971996307373046875">
        <ele>897.4000244140625</ele>
        <time>2026-08-22T01:11:02.000Z</time>
        <extensions>
          <ns3:TrackPointExtension>
            <ns3:hr>142</ns3:hr>
            <ns3:cad>0</ns3:cad>
          </ns3:TrackPointExtension>
        </extensions>
      </trkpt>
      <trkpt lat="45.27327527292072772979736328125" lon="-71.117444336414337158203125">
        <ele>897.4000244140625</ele>
        <time>2026-08-22T01:11:03.000Z</time>
        <extensions>
          <ns3:TrackPointExtension>
            <ns3:hr>142</ns3:hr>
            <ns3:cad>0</ns3:cad>
          </ns3:TrackPointExtension>
        </extensions>
      </trkpt>
      <trkpt lat="45.27326705865561962127685546875" lon="-71.1174538917839527130126953125">
        <ele>897.5999755859375</ele>
        <time>2026-08-22T01:11:04.000Z</time>
        <extensions>
          <ns3:TrackPointExtension>
            <ns3:hr>141</ns3:hr>
            <ns3:cad>0</ns3:cad>
          </ns3:TrackPointExtension>
        </extensions>
      </trkpt>
      <trkpt lat="45.2732609398663043975830078125" lon="-71.11745732836425304412841796875">
        <ele>897.79998779296875</ele>
        <time>2026-08-22T01:11:05.000Z</time>
        <extensions>
          <ns3:TrackPointExtension>
            <ns3:hr>141</ns3:hr>
            <ns3:cad>0</ns3:cad>
          </ns3:TrackPointExtension>
        </extensions>
      </trkpt>
      <trkpt lat="45.273258425295352935791015625" lon="-71.11745866946876049041748046875">
        <ele>898</ele>
        <time>2026-08-22T01:11:06.000Z</time>
        <extensions>
          <ns3:TrackPointExtension>
            <ns3:hr>141</ns3:hr>
            <ns3:cad>0</ns3:cad>
          </ns3:TrackPointExtension>
        </extensions>
      </trkpt>
      <trkpt lat="45.27325398288667201995849609375" lon="-71.11746185459196567535400390625">
        <ele>898.20001220703125</ele>
        <time>2026-08-22T01:11:07.000Z</time>
        <extensions>
          <ns3:TrackPointExtension>
            <ns3:hr>140</ns3:hr>
            <ns3:cad>0</ns3:cad>
          </ns3:TrackPointExtension>
        </extensions>
      </trkpt>
      <trkpt lat="45.27324979193508625030517578125" lon="-71.1174652911722660064697265625">
        <ele>898.4000244140625</ele>
        <time>2026-08-22T01:11:08.000Z</time>
        <extensions>
          <ns3:TrackPointExtension>
            <ns3:hr>140</ns3:hr>
            <ns3:cad>0</ns3:cad>
          </ns3:TrackPointExtension>
        </extensions>
      </trkpt>
      <trkpt lat="45.27324308641254901885986328125" lon="-71.11746571026742458343505859375">
        <ele>898.5999755859375</ele>
        <time>2026-08-22T01:11:09.000Z</time>
        <extensions>
          <ns3:TrackPointExtension>
            <ns3:hr>140</ns3:hr>
            <ns3:cad>0</ns3:cad>
          </ns3:TrackPointExtension>
        </extensions>
      </trkpt>
      <trkpt lat="45.2732384763658046722412109375" lon="-71.11746512353420257568359375">
        <ele>898.79998779296875</ele>
        <time>2026-08-22T01:11:10.000Z</time>
        <extensions>
          <ns3:TrackPointExtension>
            <ns3:hr>140</ns3:hr>
            <ns3:cad>45</ns3:cad>
          </ns3:TrackPointExtension>
        </extensions>
      </trkpt>
      <trkpt lat="45.2732374705374240875244140625" lon="-71.11746353097259998321533203125">
        <ele>899.20001220703125</ele>
        <time>2026-08-22T01:11:11.000Z</time>
        <extensions>
          <ns3:TrackPointExtension>
            <ns3:hr>141</ns3:hr>
            <ns3:cad>0</ns3:cad>
          </ns3:TrackPointExtension>
        </extensions>
      </trkpt>
      <trkpt lat="45.2732324413955211639404296875" lon="-71.117463447153568267822265625">
        <ele>899.4000244140625</ele>
        <time>2026-08-22T01:11:12.000Z</time>
        <extensions>
          <ns3:TrackPointExtension>
            <ns3:hr>140</ns3:hr>
            <ns3:cad>0</ns3:cad>
          </ns3:TrackPointExtension>
        </extensions>
      </trkpt>
      <trkpt lat="45.27323059737682342529296875" lon="-71.11746587790548801422119140625">
        <ele>899.5999755859375</ele>
        <time>2026-08-22T01:11:13.000Z</time>
        <extensions>
          <ns3:TrackPointExtension>
            <ns3:hr>140</ns3:hr>
            <ns3:cad>0</ns3:cad>
          </ns3:TrackPointExtension>
        </extensions>
      </trkpt>
      <trkpt lat="45.273226238787174224853515625" lon="-71.11747191287577152252197265625">
        <ele>899.79998779296875</ele>
        <time>2026-08-22T01:11:14.000Z</time>
        <extensions>
          <ns3:TrackPointExtension>
            <ns3:hr>140</ns3:hr>
            <ns3:cad>0</ns3:cad>
          </ns3:TrackPointExtension>
        </extensions>
      </trkpt>
      <trkpt lat="45.27321777306497097015380859375" lon="-71.11747727729380130767822265625">
        <ele>900.20001220703125</ele>
        <time>2026-08-22T01:11:15.000Z</time>
        <extensions>
          <ns3:TrackPointExtension>
            <ns3:hr>140</ns3:hr>
            <ns3:cad>0</ns3:cad>
          </ns3:TrackPointExtension>
        </extensions>
      </trkpt>
      <trkpt lat="45.27321475557982921600341796875" lon="-71.11748213879764080047607421875">
        <ele>900.4000244140625</ele>
        <time>2026-08-22T01:11:16.000Z</time>
        <extensions>
          <ns3:TrackPointExtension>
            <ns3:hr>139</ns3:hr>
            <ns3:cad>0</ns3:cad>
          </ns3:TrackPointExtension>
        </extensions>
      </trkpt>
      <trkpt lat="45.27320788241922855377197265625" lon="-71.1174864135682582855224609375">
        <ele>900.5999755859375</ele>
        <time>2026-08-22T01:11:17.000Z</time>
        <extensions>
          <ns3:TrackPointExtension>
            <ns3:hr>139</ns3:hr>
            <ns3:cad>0</ns3:cad>
          </ns3:TrackPointExtension>
        </extensions>
      </trkpt>
      <trkpt lat="45.27320184744894504547119140625" lon="-71.11748817376792430877685546875">
        <ele>900.79998779296875</ele>
        <time>2026-08-22T01:11:18.000Z</time>
        <extensions>
          <ns3:TrackPointExtension>
            <ns3:hr>138</ns3:hr>
            <ns3:cad>0</ns3:cad>
          </ns3:TrackPointExtension>
        </extensions>
      </trkpt>
      <trkpt lat="45.27319815941154956817626953125" lon="-71.11749085597693920135498046875">
        <ele>901</ele>
        <time>2026-08-22T01:11:19.000Z</time>
        <extensions>
          <ns3:TrackPointExtension>
            <ns3:hr>138</ns3:hr>
            <ns3:cad>0</ns3:cad>
          </ns3:TrackPointExtension>
        </extensions>
      </trkpt>
      <trkpt lat="45.27319195680320262908935546875" lon="-71.117492280900478363037109375">
        <ele>901.4000244140625</ele>
        <time>2026-08-22T01:11:20.000Z</time>
        <extensions>
          <ns3:TrackPointExtension>
            <ns3:hr>138</ns3:hr>
            <ns3:cad>0</ns3:cad>
          </ns3:TrackPointExtension>
        </extensions>
      </trkpt>
      <trkpt lat="45.27318575419485569000244140625" lon="-71.1174924485385417938232421875">
        <ele>901.5999755859375</ele>
        <time>2026-08-22T01:11:21.000Z</time>
        <extensions>
          <ns3:TrackPointExtension>
            <ns3:hr>139</ns3:hr>
            <ns3:cad>0</ns3:cad>
          </ns3:TrackPointExtension>
        </extensions>
      </trkpt>
      <trkpt lat="45.273179970681667327880859375" lon="-71.1174939572811126708984375">
        <ele>902</ele>
        <time>2026-08-22T01:11:22.000Z</time>
        <extensions>
          <ns3:TrackPointExtension>
            <ns3:hr>138</ns3:hr>
            <ns3:cad>0</ns3:cad>
          </ns3:TrackPointExtension>
        </extensions>
      </trkpt>
      <trkpt lat="45.2731781266629695892333984375" lon="-71.11750074662268161773681640625">
        <ele>902.20001220703125</ele>
        <time>2026-08-22T01:11:23.000Z</time>
        <extensions>
          <ns3:TrackPointExtension>
            <ns3:hr>138</ns3:hr>
            <ns3:cad>0</ns3:cad>
          </ns3:TrackPointExtension>
        </extensions>
      </trkpt>
      <trkpt lat="45.273171253502368927001953125" lon="-71.11750208772718906402587890625">
        <ele>902.4000244140625</ele>
        <time>2026-08-22T01:11:24.000Z</time>
        <extensions>
          <ns3:TrackPointExtension>
            <ns3:hr>138</ns3:hr>
            <ns3:cad>0</ns3:cad>
          </ns3:TrackPointExtension>
        </extensions>
      </trkpt>
      <trkpt lat="45.2731680683791637420654296875" lon="-71.11750627867877483367919921875">
        <ele>902.5999755859375</ele>
        <time>2026-08-22T01:11:25.000Z</time>
        <extensions>
          <ns3:TrackPointExtension>
            <ns3:hr>138</ns3:hr>
            <ns3:cad>0</ns3:cad>
          </ns3:TrackPointExtension>
        </extensions>
      </trkpt>
      <trkpt lat="45.27316262014210224151611328125" lon="-71.11750929616391658782958984375">
        <ele>902.5999755859375</ele>
        <time>2026-08-22T01:11:26.000Z</time>
        <extensions>
          <ns3:TrackPointExtension>
            <ns3:hr>138</ns3:hr>
            <ns3:cad>0</ns3:cad>
          </ns3:TrackPointExtension>
        </extensions>
      </trkpt>
      <trkpt lat="45.2731586806476116180419921875" lon="-71.11750745214521884918212890625">
        <ele>902.79998779296875</ele>
        <time>2026-08-22T01:11:27.000Z</time>
        <extensions>
          <ns3:TrackPointExtension>
            <ns3:hr>139</ns3:hr>
            <ns3:cad>0</ns3:cad>
          </ns3:TrackPointExtension>
        </extensions>
      </trkpt>
      <trkpt lat="45.27316228486597537994384765625" lon="-71.11751063726842403411865234375">
        <ele>903</ele>
        <time>2026-08-22T01:11:28.000Z</time>
        <extensions>
          <ns3:TrackPointExtension>
            <ns3:hr>139</ns3:hr>
            <ns3:cad>0</ns3:cad>
          </ns3:TrackPointExtension>
        </extensions>
      </trkpt>
      <trkpt lat="45.27316144667565822601318359375" lon="-71.11751466058194637298583984375">
        <ele>903</ele>
        <time>2026-08-22T01:11:29.000Z</time>
        <extensions>
          <ns3:TrackPointExtension>
            <ns3:hr>139</ns3:hr>
            <ns3:cad>0</ns3:cad>
          </ns3:TrackPointExtension>
        </extensions>
      </trkpt>
      <trkpt lat="45.27315943501889705657958984375" lon="-71.117516420781612396240234375">
        <ele>903.20001220703125</ele>
        <time>2026-08-22T01:11:30.000Z</time>
        <extensions>
          <ns3:TrackPointExtension>
            <ns3:hr>139</ns3:hr>
            <ns3:cad>0</ns3:cad>
          </ns3:TrackPointExtension>
        </extensions>
      </trkpt>
      <trkpt lat="45.2731536515057086944580078125" lon="-71.11751700751483440399169921875">
        <ele>903.20001220703125</ele>
        <time>2026-08-22T01:11:31.000Z</time>
        <extensions>
          <ns3:TrackPointExtension>
            <ns3:hr>140</ns3:hr>
            <ns3:cad>0</ns3:cad>
          </ns3:TrackPointExtension>
        </extensions>
      </trkpt>
      <trkpt lat="45.2731482870876789093017578125" lon="-71.11751818098127841949462890625">
        <ele>903.4000244140625</ele>
        <time>2026-08-22T01:11:32.000Z</time>
        <extensions>
          <ns3:TrackPointExtension>
            <ns3:hr>140</ns3:hr>
            <ns3:cad>0</ns3:cad>
          </ns3:TrackPointExtension>
        </extensions>
      </trkpt>
      <trkpt lat="45.2731442637741565704345703125" lon="-71.1175189353525638580322265625">
        <ele>903.5999755859375</ele>
        <time>2026-08-22T01:11:33.000Z</time>
        <extensions>
          <ns3:TrackPointExtension>
            <ns3:hr>140</ns3:hr>
            <ns3:cad>0</ns3:cad>
          </ns3:TrackPointExtension>
        </extensions>
      </trkpt>
      <trkpt lat="45.2731375582516193389892578125" lon="-71.1175236292183399200439453125">
        <ele>903.5999755859375</ele>
        <time>2026-08-22T01:11:34.000Z</time>
        <extensions>
          <ns3:TrackPointExtension>
            <ns3:hr>140</ns3:hr>
            <ns3:cad>0</ns3:cad>
          </ns3:TrackPointExtension>
        </extensions>
      </trkpt>
      <trkpt lat="45.27313345111906528472900390625" lon="-71.11752421595156192779541015625">
        <ele>903.79998779296875</ele>
        <time>2026-08-22T01:11:35.000Z</time>
        <extensions>
          <ns3:TrackPointExtension>
            <ns3:hr>140</ns3:hr>
            <ns3:cad>0</ns3:cad>
          </ns3:TrackPointExtension>
        </extensions>
      </trkpt>
      <trkpt lat="45.27313026599586009979248046875" lon="-71.1175242997705936431884765625">
        <ele>904</ele>
        <time>2026-08-22T01:11:36.000Z</time>
        <extensions>
          <ns3:TrackPointExtension>
            <ns3:hr>140</ns3:hr>
            <ns3:cad>0</ns3:cad>
          </ns3:TrackPointExtension>
        </extensions>
      </trkpt>
      <trkpt lat="45.27312733232975006103515625" lon="-71.11752547323703765869140625">
        <ele>904.20001220703125</ele>
        <time>2026-08-22T01:11:37.000Z</time>
        <extensions>
          <ns3:TrackPointExtension>
            <ns3:hr>140</ns3:hr>
            <ns3:cad>0</ns3:cad>
          </ns3:TrackPointExtension>
        </extensions>
      </trkpt>
      <trkpt lat="45.27312330901622772216796875" lon="-71.11752605997025966644287109375">
        <ele>904.4000244140625</ele>
        <time>2026-08-22T01:11:38.000Z</time>
        <extensions>
          <ns3:TrackPointExtension>
            <ns3:hr>140</ns3:hr>
            <ns3:cad>0</ns3:cad>
          </ns3:TrackPointExtension>
        </extensions>
      </trkpt>
      <trkpt lat="45.27311467565596103668212890625" lon="-71.1175199411809444427490234375">
        <ele>904.5999755859375</ele>
        <time>2026-08-22T01:11:39.000Z</time>
        <extensions>
          <ns3:TrackPointExtension>
            <ns3:hr>140</ns3:hr>
            <ns3:cad>0</ns3:cad>
          </ns3:TrackPointExtension>
        </extensions>
      </trkpt>
      <trkpt lat="45.27311123907566070556640625" lon="-71.11751885153353214263916015625">
        <ele>904.79998779296875</ele>
        <time>2026-08-22T01:11:40.000Z</time>
        <extensions>
          <ns3:TrackPointExtension>
            <ns3:hr>140</ns3:hr>
            <ns3:cad>0</ns3:cad>
          </ns3:TrackPointExtension>
        </extensions>
      </trkpt>
      <trkpt lat="45.27311182580888271331787109375" lon="-71.11752388067543506622314453125">
        <ele>904.79998779296875</ele>
        <time>2026-08-22T01:11:41.000Z</time>
        <extensions>
          <ns3:TrackPointExtension>
            <ns3:hr>140</ns3:hr>
            <ns3:cad>0</ns3:cad>
          </ns3:TrackPointExtension>
        </extensions>
      </trkpt>
      <trkpt lat="45.27310989797115325927734375" lon="-71.11752639524638652801513671875">
        <ele>905</ele>
        <time>2026-08-22T01:11:42.000Z</time>
        <extensions>
          <ns3:TrackPointExtension>
            <ns3:hr>140</ns3:hr>
            <ns3:cad>0</ns3:cad>
          </ns3:TrackPointExtension>
        </extensions>
      </trkpt>
      <trkpt lat="45.27310478501021862030029296875" lon="-71.11752413213253021240234375">
        <ele>905.20001220703125</ele>
        <time>2026-08-22T01:11:43.000Z</time>
        <extensions>
          <ns3:TrackPointExtension>
            <ns3:hr>140</ns3:hr>
            <ns3:cad>0</ns3:cad>
          </ns3:TrackPointExtension>
        </extensions>
      </trkpt>
      <trkpt lat="45.27310319244861602783203125" lon="-71.11752689816057682037353515625">
        <ele>905.4000244140625</ele>
        <time>2026-08-22T01:11:44.000Z</time>
        <extensions>
          <ns3:TrackPointExtension>
            <ns3:hr>141</ns3:hr>
            <ns3:cad>0</ns3:cad>
          </ns3:TrackPointExtension>
        </extensions>
      </trkpt>
      <trkpt lat="45.27310344390571117401123046875" lon="-71.11752823926508426666259765625">
        <ele>905.5999755859375</ele>
        <time>2026-08-22T01:11:45.000Z</time>
        <extensions>
          <ns3:TrackPointExtension>
            <ns3:hr>141</ns3:hr>
            <ns3:cad>0</ns3:cad>
          </ns3:TrackPointExtension>
        </extensions>
      </trkpt>
      <trkpt lat="45.27310143224895000457763671875" lon="-71.11752681434154510498046875">
        <ele>905.79998779296875</ele>
        <time>2026-08-22T01:11:46.000Z</time>
        <extensions>
          <ns3:TrackPointExtension>
            <ns3:hr>141</ns3:hr>
            <ns3:cad>0</ns3:cad>
          </ns3:TrackPointExtension>
        </extensions>
      </trkpt>
      <trkpt lat="45.2730986662209033966064453125" lon="-71.11752052791416645050048828125">
        <ele>906</ele>
        <time>2026-08-22T01:11:47.000Z</time>
        <extensions>
          <ns3:TrackPointExtension>
            <ns3:hr>141</ns3:hr>
            <ns3:cad>0</ns3:cad>
          </ns3:TrackPointExtension>
        </extensions>
      </trkpt>
      <trkpt lat="45.273098163306713104248046875" lon="-71.11751667223870754241943359375">
        <ele>906.20001220703125</ele>
        <time>2026-08-22T01:11:48.000Z</time>
        <extensions>
          <ns3:TrackPointExtension>
            <ns3:hr>141</ns3:hr>
            <ns3:cad>0</ns3:cad>
          </ns3:TrackPointExtension>
        </extensions>
      </trkpt>
      <trkpt lat="45.27310243807733058929443359375" lon="-71.1175196059048175811767578125">
        <ele>906.4000244140625</ele>
        <time>2026-08-22T01:11:49.000Z</time>
        <extensions>
          <ns3:TrackPointExtension>
            <ns3:hr>140</ns3:hr>
            <ns3:cad>0</ns3:cad>
          </ns3:TrackPointExtension>
        </extensions>
      </trkpt>
      <trkpt lat="45.27310394681990146636962890625" lon="-71.117517761886119842529296875">
        <ele>906.5999755859375</ele>
        <time>2026-08-22T01:11:50.000Z</time>
        <extensions>
          <ns3:TrackPointExtension>
            <ns3:hr>140</ns3:hr>
            <ns3:cad>0</ns3:cad>
          </ns3:TrackPointExtension>
        </extensions>
      </trkpt>
      <trkpt lat="45.27310679666697978973388671875" lon="-71.11750946380198001861572265625">
        <ele>907</ele>
        <time>2026-08-22T01:11:51.000Z</time>
        <extensions>
          <ns3:TrackPointExtension>
            <ns3:hr>140</ns3:hr>
            <ns3:cad>0</ns3:cad>
          </ns3:TrackPointExtension>
        </extensions>
      </trkpt>
      <trkpt lat="45.273105539381504058837890625" lon="-71.117511726915836334228515625">
        <ele>907</ele>
        <time>2026-08-22T01:11:52.000Z</time>
        <extensions>
          <ns3:TrackPointExtension>
            <ns3:hr>140</ns3:hr>
            <ns3:cad>0</ns3:cad>
          </ns3:TrackPointExtension>
        </extensions>
      </trkpt>
      <trkpt lat="45.2730984985828399658203125" lon="-71.11750275827944278717041015625">
        <ele>907.20001220703125</ele>
        <time>2026-08-22T01:11:53.000Z</time>
        <extensions>
          <ns3:TrackPointExtension>
            <ns3:hr>139</ns3:hr>
            <ns3:cad>0</ns3:cad>
          </ns3:TrackPointExtension>
        </extensions>
      </trkpt>
      <trkpt lat="45.27309388853609561920166015625" lon="-71.11749571748077869415283203125">
        <ele>907.4000244140625</ele>
        <time>2026-08-22T01:11:54.000Z</time>
        <extensions>
          <ns3:TrackPointExtension>
            <ns3:hr>140</ns3:hr>
            <ns3:cad>0</ns3:cad>
          </ns3:TrackPointExtension>
        </extensions>
      </trkpt>
      <trkpt lat="45.27309087105095386505126953125" lon="-71.11748884432017803192138671875">
        <ele>907.5999755859375</ele>
        <time>2026-08-22T01:11:55.000Z</time>
        <extensions>
          <ns3:TrackPointExtension>
            <ns3:hr>140</ns3:hr>
            <ns3:cad>0</ns3:cad>
          </ns3:TrackPointExtension>
        </extensions>
      </trkpt>
      <trkpt lat="45.2730919606983661651611328125" lon="-71.11748431809246540069580078125">
        <ele>907.79998779296875</ele>
        <time>2026-08-22T01:11:56.000Z</time>
        <extensions>
          <ns3:TrackPointExtension>
            <ns3:hr>140</ns3:hr>
            <ns3:cad>0</ns3:cad>
          </ns3:TrackPointExtension>
        </extensions>
      </trkpt>
      <trkpt lat="45.27308952994644641876220703125" lon="-71.11746856011450290679931640625">
        <ele>908</ele>
        <time>2026-08-22T01:11:57.000Z</time>
        <extensions>
          <ns3:TrackPointExtension>
            <ns3:hr>140</ns3:hr>
            <ns3:cad>0</ns3:cad>
          </ns3:TrackPointExtension>
        </extensions>
      </trkpt>
      <trkpt lat="45.27308701537549495697021484375" lon="-71.11745481379330158233642578125">
        <ele>908.20001220703125</ele>
        <time>2026-08-22T01:11:58.000Z</time>
        <extensions>
          <ns3:TrackPointExtension>
            <ns3:hr>139</ns3:hr>
            <ns3:cad>0</ns3:cad>
          </ns3:TrackPointExtension>
        </extensions>
      </trkpt>
      <trkpt lat="45.2730845846235752105712890625" lon="-71.1174475215375423431396484375">
        <ele>908.4000244140625</ele>
        <time>2026-08-22T01:11:59.000Z</time>
        <extensions>
          <ns3:TrackPointExtension>
            <ns3:hr>139</ns3:hr>
            <ns3:cad>0</ns3:cad>
          </ns3:TrackPointExtension>
        </extensions>
      </trkpt>
      <trkpt lat="45.2730842493474483489990234375" lon="-71.11744207330048084259033203125">
        <ele>908.4000244140625</ele>
        <time>2026-08-22T01:12:00.000Z</time>
        <extensions>
          <ns3:TrackPointExtension>
            <ns3:hr>139</ns3:hr>
            <ns3:cad>0</ns3:cad>
          </ns3:TrackPointExtension>
        </extensions>
      </trkpt>
      <trkpt lat="45.27308483608067035675048828125" lon="-71.117431931197643280029296875">
        <ele>908.5999755859375</ele>
        <time>2026-08-22T01:12:01.000Z</time>
        <extensions>
          <ns3:TrackPointExtension>
            <ns3:hr>140</ns3:hr>
            <ns3:cad>0</ns3:cad>
          </ns3:TrackPointExtension>
        </extensions>
      </trkpt>
      <trkpt lat="45.27308307588100433349609375" lon="-71.117421872913837432861328125">
        <ele>908.5999755859375</ele>
        <time>2026-08-22T01:12:02.000Z</time>
        <extensions>
          <ns3:TrackPointExtension>
            <ns3:hr>140</ns3:hr>
            <ns3:cad>0</ns3:cad>
          </ns3:TrackPointExtension>
        </extensions>
      </trkpt>
      <trkpt lat="45.27307930402457714080810546875" lon="-71.11740569584071636199951171875">
        <ele>908.79998779296875</ele>
        <time>2026-08-22T01:12:03.000Z</time>
        <extensions>
          <ns3:TrackPointExtension>
            <ns3:hr>140</ns3:hr>
            <ns3:cad>0</ns3:cad>
          </ns3:TrackPointExtension>
        </extensions>
      </trkpt>
      <trkpt lat="45.2730758674442768096923828125" lon="-71.1173922009766101837158203125">
        <ele>908.79998779296875</ele>
        <time>2026-08-22T01:12:04.000Z</time>
        <extensions>
          <ns3:TrackPointExtension>
            <ns3:hr>140</ns3:hr>
            <ns3:cad>0</ns3:cad>
          </ns3:TrackPointExtension>
        </extensions>
      </trkpt>
      <trkpt lat="45.2730743587017059326171875" lon="-71.1173811368644237518310546875">
        <ele>909</ele>
        <time>2026-08-22T01:12:05.000Z</time>
        <extensions>
          <ns3:TrackPointExtension>
            <ns3:hr>140</ns3:hr>
            <ns3:cad>0</ns3:cad>
          </ns3:TrackPointExtension>
        </extensions>
      </trkpt>
      <trkpt lat="45.273074023425579071044921875" lon="-71.11737518571317195892333984375">
        <ele>909</ele>
        <time>2026-08-22T01:12:06.000Z</time>
        <extensions>
          <ns3:TrackPointExtension>
            <ns3:hr>140</ns3:hr>
            <ns3:cad>0</ns3:cad>
          </ns3:TrackPointExtension>
        </extensions>
      </trkpt>
      <trkpt lat="45.2730741910636425018310546875" lon="-71.11737149767577648162841796875">
        <ele>909.20001220703125</ele>
        <time>2026-08-22T01:12:07.000Z</time>
        <extensions>
          <ns3:TrackPointExtension>
            <ns3:hr>140</ns3:hr>
            <ns3:cad>0</ns3:cad>
          </ns3:TrackPointExtension>
        </extensions>
      </trkpt>
      <trkpt lat="45.2730741910636425018310546875" lon="-71.117370910942554473876953125">
        <ele>909.20001220703125</ele>
        <time>2026-08-22T01:12:08.000Z</time>
        <extensions>
          <ns3:TrackPointExtension>
            <ns3:hr>140</ns3:hr>
            <ns3:cad>0</ns3:cad>
          </ns3:TrackPointExtension>
        </extensions>
      </trkpt>
      <trkpt lat="45.273073352873325347900390625" lon="-71.11737065948545932769775390625">
        <ele>909.20001220703125</ele>
        <time>2026-08-22T01:12:09.000Z</time>
        <extensions>
          <ns3:TrackPointExtension>
            <ns3:hr>140</ns3:hr>
            <ns3:cad>0</ns3:cad>
          </ns3:TrackPointExtension>
        </extensions>
      </trkpt>
      <trkpt lat="45.273073352873325347900390625" lon="-71.11737065948545932769775390625">
        <ele>909.20001220703125</ele>
        <time>2026-08-22T01:12:10.000Z</time>
        <extensions>
          <ns3:TrackPointExtension>
            <ns3:hr>140</ns3:hr>
            <ns3:cad>0</ns3:cad>
          </ns3:TrackPointExtension>
        </extensions>
      </trkpt>
      <trkpt lat="45.273073352873325347900390625" lon="-71.11737065948545932769775390625">
        <ele>909</ele>
        <time>2026-08-22T01:12:11.000Z</time>
        <extensions>
          <ns3:TrackPointExtension>
            <ns3:hr>140</ns3:hr>
            <ns3:cad>0</ns3:cad>
          </ns3:TrackPointExtension>
        </extensions>
      </trkpt>
      <trkpt lat="45.273073352873325347900390625" lon="-71.11737065948545932769775390625">
        <ele>909.20001220703125</ele>
        <time>2026-08-22T01:12:12.000Z</time>
        <extensions>
          <ns3:TrackPointExtension>
            <ns3:hr>140</ns3:hr>
            <ns3:cad>0</ns3:cad>
          </ns3:TrackPointExtension>
        </extensions>
      </trkpt>
      <trkpt lat="45.273073352873325347900390625" lon="-71.11737065948545932769775390625">
        <ele>909.20001220703125</ele>
        <time>2026-08-22T01:12:13.000Z</time>
        <extensions>
          <ns3:TrackPointExtension>
            <ns3:hr>140</ns3:hr>
            <ns3:cad>0</ns3:cad>
          </ns3:TrackPointExtension>
        </extensions>
      </trkpt>
      <trkpt lat="45.273073352873325347900390625" lon="-71.11737065948545932769775390625">
        <ele>909.20001220703125</ele>
        <time>2026-08-22T01:12:14.000Z</time>
        <extensions>
          <ns3:TrackPointExtension>
            <ns3:hr>139</ns3:hr>
            <ns3:cad>0</ns3:cad>
          </ns3:TrackPointExtension>
        </extensions>
      </trkpt>
      <trkpt lat="45.273073352873325347900390625" lon="-71.11737065948545932769775390625">
        <ele>909.20001220703125</ele>
        <time>2026-08-22T01:12:15.000Z</time>
        <extensions>
          <ns3:TrackPointExtension>
            <ns3:hr>139</ns3:hr>
            <ns3:cad>0</ns3:cad>
          </ns3:TrackPointExtension>
        </extensions>
      </trkpt>
      <trkpt lat="45.273073352873325347900390625" lon="-71.11737065948545932769775390625">
        <ele>909.20001220703125</ele>
        <time>2026-08-22T01:12:16.000Z</time>
        <extensions>
          <ns3:TrackPointExtension>
            <ns3:hr>138</ns3:hr>
            <ns3:cad>0</ns3:cad>
          </ns3:TrackPointExtension>
        </extensions>
      </trkpt>
      <trkpt lat="45.273073352873325347900390625" lon="-71.11737065948545932769775390625">
        <ele>909.20001220703125</ele>
        <time>2026-08-22T01:12:17.000Z</time>
        <extensions>
          <ns3:TrackPointExtension>
            <ns3:hr>138</ns3:hr>
            <ns3:cad>0</ns3:cad>
          </ns3:TrackPointExtension>
        </extensions>
      </trkpt>
      <trkpt lat="45.273073352873325347900390625" lon="-71.11737065948545932769775390625">
        <ele>909</ele>
        <time>2026-08-22T01:12:18.000Z</time>
        <extensions>
          <ns3:TrackPointExtension>
            <ns3:hr>138</ns3:hr>
            <ns3:cad>0</ns3:cad>
          </ns3:TrackPointExtension>
        </extensions>
      </trkpt>
      <trkpt lat="45.273073352873325347900390625" lon="-71.11737065948545932769775390625">
        <ele>909</ele>
        <time>2026-08-22T01:12:19.000Z</time>
        <extensions>
          <ns3:TrackPointExtension>
            <ns3:hr>138</ns3:hr>
            <ns3:cad>0</ns3:cad>
          </ns3:TrackPointExtension>
        </extensions>
      </trkpt>
      <trkpt lat="45.273073352873325347900390625" lon="-71.11737065948545932769775390625">
        <ele>909</ele>
        <time>2026-08-22T01:12:20.000Z</time>
        <extensions>
          <ns3:TrackPointExtension>
            <ns3:hr>138</ns3:hr>
            <ns3:cad>0</ns3:cad>
          </ns3:TrackPointExtension>
        </extensions>
      </trkpt>
      <trkpt lat="45.273073352873325347900390625" lon="-71.11737065948545932769775390625">
        <ele>909</ele>
        <time>2026-08-22T01:12:21.000Z</time>
        <extensions>
          <ns3:TrackPointExtension>
            <ns3:hr>138</ns3:hr>
            <ns3:cad>0</ns3:cad>
          </ns3:TrackPointExtension>
        </extensions>
      </trkpt>
      <trkpt lat="45.273073352873325347900390625" lon="-71.11737065948545932769775390625">
        <ele>909</ele>
        <time>2026-08-22T01:12:22.000Z</time>
        <extensions>
          <ns3:TrackPointExtension>
            <ns3:hr>138</ns3:hr>
            <ns3:cad>0</ns3:cad>
          </ns3:TrackPointExtension>
        </extensions>
      </trkpt>
      <trkpt lat="45.273073352873325347900390625" lon="-71.11737065948545932769775390625">
        <ele>909</ele>
        <time>2026-08-22T01:12:23.000Z</time>
        <extensions>
          <ns3:TrackPointExtension>
            <ns3:hr>138</ns3:hr>
            <ns3:cad>0</ns3:cad>
          </ns3:TrackPointExtension>
        </extensions>
      </trkpt>
      <trkpt lat="45.273073352873325347900390625" lon="-71.11737065948545932769775390625">
        <ele>909.20001220703125</ele>
        <time>2026-08-22T01:12:24.000Z</time>
        <extensions>
          <ns3:TrackPointExtension>
            <ns3:hr>137</ns3:hr>
            <ns3:cad>0</ns3:cad>
          </ns3:TrackPointExtension>
        </extensions>
      </trkpt>
      <trkpt lat="45.273073352873325347900390625" lon="-71.11737065948545932769775390625">
        <ele>909.20001220703125</ele>
        <time>2026-08-22T01:12:25.000Z</time>
        <extensions>
          <ns3:TrackPointExtension>
            <ns3:hr>137</ns3:hr>
            <ns3:cad>0</ns3:cad>
          </ns3:TrackPointExtension>
        </extensions>
      </trkpt>
      <trkpt lat="45.27307494543492794036865234375" lon="-71.11737619154155254364013671875">
        <ele>909.20001220703125</ele>
        <time>2026-08-22T01:12:26.000Z</time>
        <extensions>
          <ns3:TrackPointExtension>
            <ns3:hr>136</ns3:hr>
            <ns3:cad>0</ns3:cad>
          </ns3:TrackPointExtension>
        </extensions>
      </trkpt>
      <trkpt lat="45.2730738557875156402587890625" lon="-71.11737652681767940521240234375">
        <ele>909.20001220703125</ele>
        <time>2026-08-22T01:12:27.000Z</time>
        <extensions>
          <ns3:TrackPointExtension>
            <ns3:hr>136</ns3:hr>
            <ns3:cad>0</ns3:cad>
          </ns3:TrackPointExtension>
        </extensions>
      </trkpt>
      <trkpt lat="45.27307427488267421722412109375" lon="-71.11737602390348911285400390625">
        <ele>909.4000244140625</ele>
        <time>2026-08-22T01:12:28.000Z</time>
        <extensions>
          <ns3:TrackPointExtension>
            <ns3:hr>136</ns3:hr>
            <ns3:cad>0</ns3:cad>
          </ns3:TrackPointExtension>
        </extensions>
      </trkpt>
      <trkpt lat="45.273074693977832794189453125" lon="-71.117377616465091705322265625">
        <ele>909.5999755859375</ele>
        <time>2026-08-22T01:12:29.000Z</time>
        <extensions>
          <ns3:TrackPointExtension>
            <ns3:hr>136</ns3:hr>
            <ns3:cad>0</ns3:cad>
          </ns3:TrackPointExtension>
        </extensions>
      </trkpt>
      <trkpt lat="45.27307695709168910980224609375" lon="-71.11737619154155254364013671875">
        <ele>909.79998779296875</ele>
        <time>2026-08-22T01:12:30.000Z</time>
        <extensions>
          <ns3:TrackPointExtension>
            <ns3:hr>136</ns3:hr>
            <ns3:cad>0</ns3:cad>
          </ns3:TrackPointExtension>
        </extensions>
      </trkpt>
      <trkpt lat="45.27307863347232341766357421875" lon="-71.117372922599315643310546875">
        <ele>910</ele>
        <time>2026-08-22T01:12:31.000Z</time>
        <extensions>
          <ns3:TrackPointExtension>
            <ns3:hr>135</ns3:hr>
            <ns3:cad>0</ns3:cad>
          </ns3:TrackPointExtension>
        </extensions>
      </trkpt>
      <trkpt lat="45.27307863347232341766357421875" lon="-71.117363870143890380859375">
        <ele>910.20001220703125</ele>
        <time>2026-08-22T01:12:32.000Z</time>
        <extensions>
          <ns3:TrackPointExtension>
            <ns3:hr>135</ns3:hr>
            <ns3:cad>0</ns3:cad>
          </ns3:TrackPointExtension>
        </extensions>
      </trkpt>
      <trkpt lat="45.27307746000587940216064453125" lon="-71.1173593439161777496337890625">
        <ele>910.4000244140625</ele>
        <time>2026-08-22T01:12:33.000Z</time>
        <extensions>
          <ns3:TrackPointExtension>
            <ns3:hr>135</ns3:hr>
            <ns3:cad>0</ns3:cad>
          </ns3:TrackPointExtension>
        </extensions>
      </trkpt>
      <trkpt lat="45.27307595126330852508544921875" lon="-71.11735112965106964111328125">
        <ele>910.5999755859375</ele>
        <time>2026-08-22T01:12:34.000Z</time>
        <extensions>
          <ns3:TrackPointExtension>
            <ns3:hr>134</ns3:hr>
            <ns3:cad>0</ns3:cad>
          </ns3:TrackPointExtension>
        </extensions>
      </trkpt>
      <trkpt lat="45.273074693977832794189453125" lon="-71.11733847297728061676025390625">
        <ele>910.5999755859375</ele>
        <time>2026-08-22T01:12:35.000Z</time>
        <extensions>
          <ns3:TrackPointExtension>
            <ns3:hr>134</ns3:hr>
            <ns3:cad>0</ns3:cad>
          </ns3:TrackPointExtension>
        </extensions>
      </trkpt>
      <trkpt lat="45.27307368814945220947265625" lon="-71.117330007255077362060546875">
        <ele>910.79998779296875</ele>
        <time>2026-08-22T01:12:36.000Z</time>
        <extensions>
          <ns3:TrackPointExtension>
            <ns3:hr>133</ns3:hr>
            <ns3:cad>77</ns3:cad>
          </ns3:TrackPointExtension>
        </extensions>
      </trkpt>
      <trkpt lat="45.273071341216564178466796875" lon="-71.1173181049525737762451171875">
        <ele>911</ele>
        <time>2026-08-22T01:12:37.000Z</time>
        <extensions>
          <ns3:TrackPointExtension>
            <ns3:hr>133</ns3:hr>
            <ns3:cad>77</ns3:cad>
          </ns3:TrackPointExtension>
        </extensions>
      </trkpt>
      <trkpt lat="45.27307243086397647857666015625" lon="-71.11730930395424365997314453125">
        <ele>911.20001220703125</ele>
        <time>2026-08-22T01:12:38.000Z</time>
        <extensions>
          <ns3:TrackPointExtension>
            <ns3:hr>132</ns3:hr>
            <ns3:cad>77</ns3:cad>
          </ns3:TrackPointExtension>
        </extensions>
      </trkpt>
      <trkpt lat="45.273076705634593963623046875" lon="-71.117299161851406097412109375">
        <ele>911.20001220703125</ele>
        <time>2026-08-22T01:12:39.000Z</time>
        <extensions>
          <ns3:TrackPointExtension>
            <ns3:hr>132</ns3:hr>
            <ns3:cad>41</ns3:cad>
          </ns3:TrackPointExtension>
        </extensions>
      </trkpt>
      <trkpt lat="45.2730788849294185638427734375" lon="-71.117281727492809295654296875">
        <ele>911.20001220703125</ele>
        <time>2026-08-22T01:12:40.000Z</time>
        <extensions>
          <ns3:TrackPointExtension>
            <ns3:hr>131</ns3:hr>
            <ns3:cad>41</ns3:cad>
          </ns3:TrackPointExtension>
        </extensions>
      </trkpt>
      <trkpt lat="45.27307712472975254058837890625" lon="-71.11727326177060604095458984375">
        <ele>911.20001220703125</ele>
        <time>2026-08-22T01:12:41.000Z</time>
        <extensions>
          <ns3:TrackPointExtension>
            <ns3:hr>131</ns3:hr>
            <ns3:cad>41</ns3:cad>
          </ns3:TrackPointExtension>
        </extensions>
      </trkpt>
      <trkpt lat="45.27307712472975254058837890625" lon="-71.1172607727348804473876953125">
        <ele>911.20001220703125</ele>
        <time>2026-08-22T01:12:42.000Z</time>
        <extensions>
          <ns3:TrackPointExtension>
            <ns3:hr>130</ns3:hr>
            <ns3:cad>41</ns3:cad>
          </ns3:TrackPointExtension>
        </extensions>
      </trkpt>
      <trkpt lat="45.27307712472975254058837890625" lon="-71.1172476969659328460693359375">
        <ele>911.4000244140625</ele>
        <time>2026-08-22T01:12:43.000Z</time>
        <extensions>
          <ns3:TrackPointExtension>
            <ns3:hr>130</ns3:hr>
            <ns3:cad>0</ns3:cad>
          </ns3:TrackPointExtension>
        </extensions>
      </trkpt>
      <trkpt lat="45.27307712472975254058837890625" lon="-71.117240823805332183837890625">
        <ele>911.5999755859375</ele>
        <time>2026-08-22T01:12:44.000Z</time>
        <extensions>
          <ns3:TrackPointExtension>
            <ns3:hr>130</ns3:hr>
            <ns3:cad>0</ns3:cad>
          </ns3:TrackPointExtension>
        </extensions>
      </trkpt>
      <trkpt lat="45.27307846583425998687744140625" lon="-71.11723034642636775970458984375">
        <ele>912</ele>
        <time>2026-08-22T01:12:45.000Z</time>
        <extensions>
          <ns3:TrackPointExtension>
            <ns3:hr>130</ns3:hr>
            <ns3:cad>0</ns3:cad>
          </ns3:TrackPointExtension>
        </extensions>
      </trkpt>
      <trkpt lat="45.27307980693876743316650390625" lon="-71.11721877939999103546142578125">
        <ele>912.20001220703125</ele>
        <time>2026-08-22T01:12:46.000Z</time>
        <extensions>
          <ns3:TrackPointExtension>
            <ns3:hr>130</ns3:hr>
            <ns3:cad>0</ns3:cad>
          </ns3:TrackPointExtension>
        </extensions>
      </trkpt>
      <trkpt lat="45.2730805613100528717041015625" lon="-71.11720637418329715728759765625">
        <ele>912.4000244140625</ele>
        <time>2026-08-22T01:12:47.000Z</time>
        <extensions>
          <ns3:TrackPointExtension>
            <ns3:hr>130</ns3:hr>
            <ns3:cad>0</ns3:cad>
          </ns3:TrackPointExtension>
        </extensions>
      </trkpt>
      <trkpt lat="45.27307846583425998687744140625" lon="-71.11721031367778778076171875">
        <ele>912.4000244140625</ele>
        <time>2026-08-22T01:12:48.000Z</time>
        <extensions>
          <ns3:TrackPointExtension>
            <ns3:hr>130</ns3:hr>
            <ns3:cad>0</ns3:cad>
          </ns3:TrackPointExtension>
        </extensions>
      </trkpt>
      <trkpt lat="45.2730788849294185638427734375" lon="-71.11720151267945766448974609375">
        <ele>912.5999755859375</ele>
        <time>2026-08-22T01:12:49.000Z</time>
        <extensions>
          <ns3:TrackPointExtension>
            <ns3:hr>130</ns3:hr>
            <ns3:cad>0</ns3:cad>
          </ns3:TrackPointExtension>
        </extensions>
      </trkpt>
      <trkpt lat="45.27307813055813312530517578125" lon="-71.1171937175095081329345703125">
        <ele>912.79998779296875</ele>
        <time>2026-08-22T01:12:50.000Z</time>
        <extensions>
          <ns3:TrackPointExtension>
            <ns3:hr>130</ns3:hr>
            <ns3:cad>0</ns3:cad>
          </ns3:TrackPointExtension>
        </extensions>
      </trkpt>
      <trkpt lat="45.273072682321071624755859375" lon="-71.11717552877962589263916015625">
        <ele>912.79998779296875</ele>
        <time>2026-08-22T01:12:51.000Z</time>
        <extensions>
          <ns3:TrackPointExtension>
            <ns3:hr>130</ns3:hr>
            <ns3:cad>0</ns3:cad>
          </ns3:TrackPointExtension>
        </extensions>
      </trkpt>
      <trkpt lat="45.27307360433042049407958984375" lon="-71.11716697923839092254638671875">
        <ele>913</ele>
        <time>2026-08-22T01:12:52.000Z</time>
        <extensions>
          <ns3:TrackPointExtension>
            <ns3:hr>130</ns3:hr>
            <ns3:cad>0</ns3:cad>
          </ns3:TrackPointExtension>
        </extensions>
      </trkpt>
      <trkpt lat="45.27307008393108844757080078125" lon="-71.11716111190617084503173828125">
        <ele>913.20001220703125</ele>
        <time>2026-08-22T01:12:53.000Z</time>
        <extensions>
          <ns3:TrackPointExtension>
            <ns3:hr>130</ns3:hr>
            <ns3:cad>0</ns3:cad>
          </ns3:TrackPointExtension>
        </extensions>
      </trkpt>
      <trkpt lat="45.27306974865496158599853515625" lon="-71.11715935170650482177734375">
        <ele>913.5999755859375</ele>
        <time>2026-08-22T01:12:54.000Z</time>
        <extensions>
          <ns3:TrackPointExtension>
            <ns3:hr>131</ns3:hr>
            <ns3:cad>0</ns3:cad>
          </ns3:TrackPointExtension>
        </extensions>
      </trkpt>
      <trkpt lat="45.2730716764926910400390625" lon="-71.11714686267077922821044921875">
        <ele>913.79998779296875</ele>
        <time>2026-08-22T01:12:55.000Z</time>
        <extensions>
          <ns3:TrackPointExtension>
            <ns3:hr>131</ns3:hr>
            <ns3:cad>0</ns3:cad>
          </ns3:TrackPointExtension>
        </extensions>
      </trkpt>
      <trkpt lat="45.27307234704494476318359375" lon="-71.11713143996894359588623046875">
        <ele>914.20001220703125</ele>
        <time>2026-08-22T01:12:56.000Z</time>
        <extensions>
          <ns3:TrackPointExtension>
            <ns3:hr>131</ns3:hr>
            <ns3:cad>0</ns3:cad>
          </ns3:TrackPointExtension>
        </extensions>
      </trkpt>
      <trkpt lat="45.2730725146830081939697265625" lon="-71.11711802892386913299560546875">
        <ele>914.4000244140625</ele>
        <time>2026-08-22T01:12:57.000Z</time>
        <extensions>
          <ns3:TrackPointExtension>
            <ns3:hr>132</ns3:hr>
            <ns3:cad>0</ns3:cad>
          </ns3:TrackPointExtension>
        </extensions>
      </trkpt>
      <trkpt lat="45.27307008393108844757080078125" lon="-71.11709958873689174652099609375">
        <ele>914.5999755859375</ele>
        <time>2026-08-22T01:12:58.000Z</time>
        <extensions>
          <ns3:TrackPointExtension>
            <ns3:hr>133</ns3:hr>
            <ns3:cad>0</ns3:cad>
          </ns3:TrackPointExtension>
        </extensions>
      </trkpt>
      <trkpt lat="45.2730694971978664398193359375" lon="-71.11709204502403736114501953125">
        <ele>914.79998779296875</ele>
        <time>2026-08-22T01:12:59.000Z</time>
        <extensions>
          <ns3:TrackPointExtension>
            <ns3:hr>133</ns3:hr>
            <ns3:cad>0</ns3:cad>
          </ns3:TrackPointExtension>
        </extensions>
      </trkpt>
      <trkpt lat="45.273066647350788116455078125" lon="-71.117084920406341552734375">
        <ele>915</ele>
        <time>2026-08-22T01:13:00.000Z</time>
        <extensions>
          <ns3:TrackPointExtension>
            <ns3:hr>133</ns3:hr>
            <ns3:cad>0</ns3:cad>
          </ns3:TrackPointExtension>
        </extensions>
      </trkpt>
      <trkpt lat="45.2730617858469486236572265625" lon="-71.11707008443772792816162109375">
        <ele>915.20001220703125</ele>
        <time>2026-08-22T01:13:01.000Z</time>
        <extensions>
          <ns3:TrackPointExtension>
            <ns3:hr>133</ns3:hr>
            <ns3:cad>0</ns3:cad>
          </ns3:TrackPointExtension>
        </extensions>
      </trkpt>
      <trkpt lat="45.273061282932758331298828125" lon="-71.11706069670617580413818359375">
        <ele>915.4000244140625</ele>
        <time>2026-08-22T01:13:02.000Z</time>
        <extensions>
          <ns3:TrackPointExtension>
            <ns3:hr>133</ns3:hr>
            <ns3:cad>0</ns3:cad>
          </ns3:TrackPointExtension>
        </extensions>
      </trkpt>
      <trkpt lat="45.27305952273309230804443359375" lon="-71.11704611219465732574462890625">
        <ele>915.79998779296875</ele>
        <time>2026-08-22T01:13:03.000Z</time>
        <extensions>
          <ns3:TrackPointExtension>
            <ns3:hr>133</ns3:hr>
            <ns3:cad>0</ns3:cad>
          </ns3:TrackPointExtension>
        </extensions>
      </trkpt>
      <trkpt lat="45.27305365540087223052978515625" lon="-71.11703203059732913970947265625">
        <ele>916</ele>
        <time>2026-08-22T01:13:04.000Z</time>
        <extensions>
          <ns3:TrackPointExtension>
            <ns3:hr>133</ns3:hr>
            <ns3:cad>0</ns3:cad>
          </ns3:TrackPointExtension>
        </extensions>
      </trkpt>
      <trkpt lat="45.2730497159063816070556640625" lon="-71.1170245707035064697265625">
        <ele>916.20001220703125</ele>
        <time>2026-08-22T01:13:05.000Z</time>
        <extensions>
          <ns3:TrackPointExtension>
            <ns3:hr>133</ns3:hr>
            <ns3:cad>0</ns3:cad>
          </ns3:TrackPointExtension>
        </extensions>
      </trkpt>
      <trkpt lat="45.2730403281748294830322265625" lon="-71.11701375804841518402099609375">
        <ele>916.4000244140625</ele>
        <time>2026-08-22T01:13:06.000Z</time>
        <extensions>
          <ns3:TrackPointExtension>
            <ns3:hr>133</ns3:hr>
            <ns3:cad>0</ns3:cad>
          </ns3:TrackPointExtension>
        </extensions>
      </trkpt>
      <trkpt lat="45.27303823269903659820556640625" lon="-71.1170084774494171142578125">
        <ele>916.4000244140625</ele>
        <time>2026-08-22T01:13:07.000Z</time>
        <extensions>
          <ns3:TrackPointExtension>
            <ns3:hr>133</ns3:hr>
            <ns3:cad>0</ns3:cad>
          </ns3:TrackPointExtension>
        </extensions>
      </trkpt>
      <trkpt lat="45.27302918024361133575439453125" lon="-71.11699783243238925933837890625">
        <ele>916.5999755859375</ele>
        <time>2026-08-22T01:13:08.000Z</time>
        <extensions>
          <ns3:TrackPointExtension>
            <ns3:hr>134</ns3:hr>
            <ns3:cad>0</ns3:cad>
          </ns3:TrackPointExtension>
        </extensions>
      </trkpt>
      <trkpt lat="45.2730242349207401275634765625" lon="-71.116991378366947174072265625">
        <ele>916.79998779296875</ele>
        <time>2026-08-22T01:13:09.000Z</time>
        <extensions>
          <ns3:TrackPointExtension>
            <ns3:hr>133</ns3:hr>
            <ns3:cad>0</ns3:cad>
          </ns3:TrackPointExtension>
        </extensions>
      </trkpt>
      <trkpt lat="45.2730192057788372039794921875" lon="-71.116991378366947174072265625">
        <ele>917.20001220703125</ele>
        <time>2026-08-22T01:13:10.000Z</time>
        <extensions>
          <ns3:TrackPointExtension>
            <ns3:hr>133</ns3:hr>
            <ns3:cad>0</ns3:cad>
          </ns3:TrackPointExtension>
        </extensions>
      </trkpt>
      <trkpt lat="45.27301006950438022613525390625" lon="-71.116988360881805419921875">
        <ele>917.4000244140625</ele>
        <time>2026-08-22T01:13:11.000Z</time>
        <extensions>
          <ns3:TrackPointExtension>
            <ns3:hr>133</ns3:hr>
            <ns3:cad>0</ns3:cad>
          </ns3:TrackPointExtension>
        </extensions>
      </trkpt>
      <trkpt lat="45.27300604619085788726806640625" lon="-71.11698458902537822723388671875">
        <ele>917.5999755859375</ele>
        <time>2026-08-22T01:13:12.000Z</time>
        <extensions>
          <ns3:TrackPointExtension>
            <ns3:hr>133</ns3:hr>
            <ns3:cad>0</ns3:cad>
          </ns3:TrackPointExtension>
        </extensions>
      </trkpt>
      <trkpt lat="45.2730051241815090179443359375" lon="-71.116979308426380157470703125">
        <ele>917.79998779296875</ele>
        <time>2026-08-22T01:13:13.000Z</time>
        <extensions>
          <ns3:TrackPointExtension>
            <ns3:hr>133</ns3:hr>
            <ns3:cad>0</ns3:cad>
          </ns3:TrackPointExtension>
        </extensions>
      </trkpt>
      <trkpt lat="45.2729964070022106170654296875" lon="-71.11697117798030376434326171875">
        <ele>918.20001220703125</ele>
        <time>2026-08-22T01:13:14.000Z</time>
        <extensions>
          <ns3:TrackPointExtension>
            <ns3:hr>133</ns3:hr>
            <ns3:cad>0</ns3:cad>
          </ns3:TrackPointExtension>
        </extensions>
      </trkpt>
      <trkpt lat="45.2729890309274196624755859375" lon="-71.1169653944671154022216796875">
        <ele>918.4000244140625</ele>
        <time>2026-08-22T01:13:15.000Z</time>
        <extensions>
          <ns3:TrackPointExtension>
            <ns3:hr>133</ns3:hr>
            <ns3:cad>0</ns3:cad>
          </ns3:TrackPointExtension>
        </extensions>
      </trkpt>
      <trkpt lat="45.27298592962324619293212890625" lon="-71.1169593594968318939208984375">
        <ele>918.4000244140625</ele>
        <time>2026-08-22T01:13:16.000Z</time>
        <extensions>
          <ns3:TrackPointExtension>
            <ns3:hr>133</ns3:hr>
            <ns3:cad>0</ns3:cad>
          </ns3:TrackPointExtension>
        </extensions>
      </trkpt>
      <trkpt lat="45.27297821827232837677001953125" lon="-71.1169516481459140777587890625">
        <ele>918.5999755859375</ele>
        <time>2026-08-22T01:13:17.000Z</time>
        <extensions>
          <ns3:TrackPointExtension>
            <ns3:hr>133</ns3:hr>
            <ns3:cad>0</ns3:cad>
          </ns3:TrackPointExtension>
        </extensions>
      </trkpt>
      <trkpt lat="45.27297050692141056060791015625" lon="-71.1169462837278842926025390625">
        <ele>918.79998779296875</ele>
        <time>2026-08-22T01:13:18.000Z</time>
        <extensions>
          <ns3:TrackPointExtension>
            <ns3:hr>133</ns3:hr>
            <ns3:cad>0</ns3:cad>
          </ns3:TrackPointExtension>
        </extensions>
      </trkpt>
      <trkpt lat="45.27296665124595165252685546875" lon="-71.1169523186981678009033203125">
        <ele>919</ele>
        <time>2026-08-22T01:13:19.000Z</time>
        <extensions>
          <ns3:TrackPointExtension>
            <ns3:hr>135</ns3:hr>
            <ns3:cad>0</ns3:cad>
          </ns3:TrackPointExtension>
        </extensions>
      </trkpt>
      <trkpt lat="45.27295039035379886627197265625" lon="-71.1169506423175334930419921875">
        <ele>919.20001220703125</ele>
        <time>2026-08-22T01:13:20.000Z</time>
        <extensions>
          <ns3:TrackPointExtension>
            <ns3:hr>135</ns3:hr>
            <ns3:cad>0</ns3:cad>
          </ns3:TrackPointExtension>
        </extensions>
      </trkpt>
      <trkpt lat="45.2729373984038829803466796875" lon="-71.11694879829883575439453125">
        <ele>919.4000244140625</ele>
        <time>2026-08-22T01:13:21.000Z</time>
        <extensions>
          <ns3:TrackPointExtension>
            <ns3:hr>136</ns3:hr>
            <ns3:cad>0</ns3:cad>
          </ns3:TrackPointExtension>
        </extensions>
      </trkpt>
      <trkpt lat="45.27292926795780658721923828125" lon="-71.11694955267012119293212890625">
        <ele>919.5999755859375</ele>
        <time>2026-08-22T01:13:22.000Z</time>
        <extensions>
          <ns3:TrackPointExtension>
            <ns3:hr>135</ns3:hr>
            <ns3:cad>0</ns3:cad>
          </ns3:TrackPointExtension>
        </extensions>
      </trkpt>
      <trkpt lat="45.27292155660688877105712890625" lon="-71.1169536598026752471923828125">
        <ele>919.79998779296875</ele>
        <time>2026-08-22T01:13:23.000Z</time>
        <extensions>
          <ns3:TrackPointExtension>
            <ns3:hr>135</ns3:hr>
            <ns3:cad>0</ns3:cad>
          </ns3:TrackPointExtension>
        </extensions>
      </trkpt>
      <trkpt lat="45.27291887439787387847900390625" lon="-71.11695575527846813201904296875">
        <ele>920.20001220703125</ele>
        <time>2026-08-22T01:13:24.000Z</time>
        <extensions>
          <ns3:TrackPointExtension>
            <ns3:hr>135</ns3:hr>
            <ns3:cad>0</ns3:cad>
          </ns3:TrackPointExtension>
        </extensions>
      </trkpt>
      <trkpt lat="45.272911749780178070068359375" lon="-71.116959191858768463134765625">
        <ele>920.4000244140625</ele>
        <time>2026-08-22T01:13:25.000Z</time>
        <extensions>
          <ns3:TrackPointExtension>
            <ns3:hr>135</ns3:hr>
            <ns3:cad>0</ns3:cad>
          </ns3:TrackPointExtension>
        </extensions>
      </trkpt>
      <trkpt lat="45.27290378697216510772705078125" lon="-71.11695894040167331695556640625">
        <ele>920.5999755859375</ele>
        <time>2026-08-22T01:13:26.000Z</time>
        <extensions>
          <ns3:TrackPointExtension>
            <ns3:hr>136</ns3:hr>
            <ns3:cad>0</ns3:cad>
          </ns3:TrackPointExtension>
        </extensions>
      </trkpt>
      <trkpt lat="45.27289532124996185302734375" lon="-71.11695793457329273223876953125">
        <ele>920.79998779296875</ele>
        <time>2026-08-22T01:13:27.000Z</time>
        <extensions>
          <ns3:TrackPointExtension>
            <ns3:hr>137</ns3:hr>
            <ns3:cad>0</ns3:cad>
          </ns3:TrackPointExtension>
        </extensions>
      </trkpt>
      <trkpt lat="45.2728934772312641143798828125" lon="-71.11695944331586360931396484375">
        <ele>920.79998779296875</ele>
        <time>2026-08-22T01:13:28.000Z</time>
        <extensions>
          <ns3:TrackPointExtension>
            <ns3:hr>138</ns3:hr>
            <ns3:cad>0</ns3:cad>
          </ns3:TrackPointExtension>
        </extensions>
      </trkpt>
      <trkpt lat="45.2728914655745029449462890625" lon="-71.1169628798961639404296875">
        <ele>921</ele>
        <time>2026-08-22T01:13:29.000Z</time>
        <extensions>
          <ns3:TrackPointExtension>
            <ns3:hr>138</ns3:hr>
            <ns3:cad>0</ns3:cad>
          </ns3:TrackPointExtension>
        </extensions>
      </trkpt>
      <trkpt lat="45.2728866040706634521484375" lon="-71.116963885724544525146484375">
        <ele>921.20001220703125</ele>
        <time>2026-08-22T01:13:30.000Z</time>
        <extensions>
          <ns3:TrackPointExtension>
            <ns3:hr>138</ns3:hr>
            <ns3:cad>0</ns3:cad>
          </ns3:TrackPointExtension>
        </extensions>
      </trkpt>
      <trkpt lat="45.27288434095680713653564453125" lon="-71.11696380190551280975341796875">
        <ele>921.4000244140625</ele>
        <time>2026-08-22T01:13:31.000Z</time>
        <extensions>
          <ns3:TrackPointExtension>
            <ns3:hr>138</ns3:hr>
            <ns3:cad>0</ns3:cad>
          </ns3:TrackPointExtension>
        </extensions>
      </trkpt>
      <trkpt lat="45.2728790603578090667724609375" lon="-71.11696891486644744873046875">
        <ele>921.5999755859375</ele>
        <time>2026-08-22T01:13:32.000Z</time>
        <extensions>
          <ns3:TrackPointExtension>
            <ns3:hr>138</ns3:hr>
            <ns3:cad>0</ns3:cad>
          </ns3:TrackPointExtension>
        </extensions>
      </trkpt>
      <trkpt lat="45.27287042699754238128662109375" lon="-71.11697637476027011871337890625">
        <ele>921.79998779296875</ele>
        <time>2026-08-22T01:13:33.000Z</time>
        <extensions>
          <ns3:TrackPointExtension>
            <ns3:hr>138</ns3:hr>
            <ns3:cad>0</ns3:cad>
          </ns3:TrackPointExtension>
        </extensions>
      </trkpt>
      <trkpt lat="45.27285433374345302581787109375" lon="-71.116984672844409942626953125">
        <ele>922</ele>
        <time>2026-08-22T01:13:34.000Z</time>
        <extensions>
          <ns3:TrackPointExtension>
            <ns3:hr>139</ns3:hr>
            <ns3:cad>0</ns3:cad>
          </ns3:TrackPointExtension>
        </extensions>
      </trkpt>
      <trkpt lat="45.2728475444018840789794921875" lon="-71.11699196510016918182373046875">
        <ele>922.20001220703125</ele>
        <time>2026-08-22T01:13:35.000Z</time>
        <extensions>
          <ns3:TrackPointExtension>
            <ns3:hr>139</ns3:hr>
            <ns3:cad>0</ns3:cad>
          </ns3:TrackPointExtension>
        </extensions>
      </trkpt>
      <trkpt lat="45.27284394018352031707763671875" lon="-71.11699984408915042877197265625">
        <ele>922.4000244140625</ele>
        <time>2026-08-22T01:13:36.000Z</time>
        <extensions>
          <ns3:TrackPointExtension>
            <ns3:hr>139</ns3:hr>
            <ns3:cad>0</ns3:cad>
          </ns3:TrackPointExtension>
        </extensions>
      </trkpt>
      <trkpt lat="45.27283740229904651641845703125" lon="-71.117010153830051422119140625">
        <ele>922.4000244140625</ele>
        <time>2026-08-22T01:13:37.000Z</time>
        <extensions>
          <ns3:TrackPointExtension>
            <ns3:hr>139</ns3:hr>
            <ns3:cad>0</ns3:cad>
          </ns3:TrackPointExtension>
        </extensions>
      </trkpt>
      <trkpt lat="45.27282960712909698486328125" lon="-71.117022894322872161865234375">
        <ele>922.4000244140625</ele>
        <time>2026-08-22T01:13:38.000Z</time>
        <extensions>
          <ns3:TrackPointExtension>
            <ns3:hr>140</ns3:hr>
            <ns3:cad>0</ns3:cad>
          </ns3:TrackPointExtension>
        </extensions>
      </trkpt>
      <trkpt lat="45.27281812392175197601318359375" lon="-71.11703353933990001678466796875">
        <ele>922.5999755859375</ele>
        <time>2026-08-22T01:13:39.000Z</time>
        <extensions>
          <ns3:TrackPointExtension>
            <ns3:hr>140</ns3:hr>
            <ns3:cad>0</ns3:cad>
          </ns3:TrackPointExtension>
        </extensions>
      </trkpt>
      <trkpt lat="45.2728079818189144134521484375" lon="-71.11704678274691104888916015625">
        <ele>922.5999755859375</ele>
        <time>2026-08-22T01:13:40.000Z</time>
        <extensions>
          <ns3:TrackPointExtension>
            <ns3:hr>140</ns3:hr>
            <ns3:cad>0</ns3:cad>
          </ns3:TrackPointExtension>
        </extensions>
      </trkpt>
      <trkpt lat="45.272807143628597259521484375" lon="-71.117052733898162841796875">
        <ele>922.5999755859375</ele>
        <time>2026-08-22T01:13:41.000Z</time>
        <extensions>
          <ns3:TrackPointExtension>
            <ns3:hr>139</ns3:hr>
            <ns3:cad>0</ns3:cad>
          </ns3:TrackPointExtension>
        </extensions>
      </trkpt>
      <trkpt lat="45.2727979235351085662841796875" lon="-71.1170679889619350433349609375">
        <ele>922.79998779296875</ele>
        <time>2026-08-22T01:13:42.000Z</time>
        <extensions>
          <ns3:TrackPointExtension>
            <ns3:hr>139</ns3:hr>
            <ns3:cad>0</ns3:cad>
          </ns3:TrackPointExtension>
        </extensions>
      </trkpt>
      <trkpt lat="45.27278660796582698822021484375" lon="-71.11707561649382114410400390625">
        <ele>923</ele>
        <time>2026-08-22T01:13:43.000Z</time>
        <extensions>
          <ns3:TrackPointExtension>
            <ns3:hr>139</ns3:hr>
            <ns3:cad>0</ns3:cad>
          </ns3:TrackPointExtension>
        </extensions>
      </trkpt>
      <trkpt lat="45.27277688495814800262451171875" lon="-71.11708936281502246856689453125">
        <ele>923</ele>
        <time>2026-08-22T01:13:44.000Z</time>
        <extensions>
          <ns3:TrackPointExtension>
            <ns3:hr>139</ns3:hr>
            <ns3:cad>0</ns3:cad>
          </ns3:TrackPointExtension>
        </extensions>
      </trkpt>
      <trkpt lat="45.27276925742626190185546875" lon="-71.11710243858397006988525390625">
        <ele>923.20001220703125</ele>
        <time>2026-08-22T01:13:45.000Z</time>
        <extensions>
          <ns3:TrackPointExtension>
            <ns3:hr>139</ns3:hr>
            <ns3:cad>44</ns3:cad>
          </ns3:TrackPointExtension>
        </extensions>
      </trkpt>
      <trkpt lat="45.27275894768536090850830078125" lon="-71.11711417324841022491455078125">
        <ele>923.4000244140625</ele>
        <time>2026-08-22T01:13:46.000Z</time>
        <extensions>
          <ns3:TrackPointExtension>
            <ns3:hr>139</ns3:hr>
            <ns3:cad>44</ns3:cad>
          </ns3:TrackPointExtension>
        </extensions>
      </trkpt>
      <trkpt lat="45.272746123373508453369140625" lon="-71.1171211302280426025390625">
        <ele>923.4000244140625</ele>
        <time>2026-08-22T01:13:47.000Z</time>
        <extensions>
          <ns3:TrackPointExtension>
            <ns3:hr>140</ns3:hr>
            <ns3:cad>44</ns3:cad>
          </ns3:TrackPointExtension>
        </extensions>
      </trkpt>
      <trkpt lat="45.2727364003658294677734375" lon="-71.1171303503215312957763671875">
        <ele>923.5999755859375</ele>
        <time>2026-08-22T01:13:48.000Z</time>
        <extensions>
          <ns3:TrackPointExtension>
            <ns3:hr>140</ns3:hr>
            <ns3:cad>47</ns3:cad>
          </ns3:TrackPointExtension>
        </extensions>
      </trkpt>
      <trkpt lat="45.27273111976683139801025390625" lon="-71.117143929004669189453125">
        <ele>923.5999755859375</ele>
        <time>2026-08-22T01:13:49.000Z</time>
        <extensions>
          <ns3:TrackPointExtension>
            <ns3:hr>140</ns3:hr>
            <ns3:cad>47</ns3:cad>
          </ns3:TrackPointExtension>
        </extensions>
      </trkpt>
      <trkpt lat="45.27272625826299190521240234375" lon="-71.1171508021652698516845703125">
        <ele>923.79998779296875</ele>
        <time>2026-08-22T01:13:50.000Z</time>
        <extensions>
          <ns3:TrackPointExtension>
            <ns3:hr>140</ns3:hr>
            <ns3:cad>0</ns3:cad>
          </ns3:TrackPointExtension>
        </extensions>
      </trkpt>
      <trkpt lat="45.27271871455013751983642578125" lon="-71.1171608604490756988525390625">
        <ele>923.79998779296875</ele>
        <time>2026-08-22T01:13:51.000Z</time>
        <extensions>
          <ns3:TrackPointExtension>
            <ns3:hr>139</ns3:hr>
            <ns3:cad>0</ns3:cad>
          </ns3:TrackPointExtension>
        </extensions>
      </trkpt>
      <trkpt lat="45.272711254656314849853515625" lon="-71.1171675659716129302978515625">
        <ele>924</ele>
        <time>2026-08-22T01:13:52.000Z</time>
        <extensions>
          <ns3:TrackPointExtension>
            <ns3:hr>140</ns3:hr>
            <ns3:cad>0</ns3:cad>
          </ns3:TrackPointExtension>
        </extensions>
      </trkpt>
      <trkpt lat="45.2727053873240947723388671875" lon="-71.11717276275157928466796875">
        <ele>924.20001220703125</ele>
        <time>2026-08-22T01:13:53.000Z</time>
        <extensions>
          <ns3:TrackPointExtension>
            <ns3:hr>140</ns3:hr>
            <ns3:cad>0</ns3:cad>
          </ns3:TrackPointExtension>
        </extensions>
      </trkpt>
      <trkpt lat="45.27270060963928699493408203125" lon="-71.1171736009418964385986328125">
        <ele>924.20001220703125</ele>
        <time>2026-08-22T01:13:54.000Z</time>
        <extensions>
          <ns3:TrackPointExtension>
            <ns3:hr>140</ns3:hr>
            <ns3:cad>44</ns3:cad>
          </ns3:TrackPointExtension>
        </extensions>
      </trkpt>
      <trkpt lat="45.2726943232119083404541015625" lon="-71.11717603169381618499755859375">
        <ele>924.5999755859375</ele>
        <time>2026-08-22T01:13:55.000Z</time>
        <extensions>
          <ns3:TrackPointExtension>
            <ns3:hr>140</ns3:hr>
            <ns3:cad>44</ns3:cad>
          </ns3:TrackPointExtension>
        </extensions>
      </trkpt>
      <trkpt lat="45.27268652804195880889892578125" lon="-71.1171779595315456390380859375">
        <ele>924.79998779296875</ele>
        <time>2026-08-22T01:13:56.000Z</time>
        <extensions>
          <ns3:TrackPointExtension>
            <ns3:hr>141</ns3:hr>
            <ns3:cad>44</ns3:cad>
          </ns3:TrackPointExtension>
        </extensions>
      </trkpt>
      <trkpt lat="45.27268200181424617767333984375" lon="-71.1171823181211948394775390625">
        <ele>925</ele>
        <time>2026-08-22T01:13:57.000Z</time>
        <extensions>
          <ns3:TrackPointExtension>
            <ns3:hr>142</ns3:hr>
            <ns3:cad>44</ns3:cad>
          </ns3:TrackPointExtension>
        </extensions>
      </trkpt>
      <trkpt lat="45.27267194353044033050537109375" lon="-71.117187179625034332275390625">
        <ele>925.20001220703125</ele>
        <time>2026-08-22T01:13:58.000Z</time>
        <extensions>
          <ns3:TrackPointExtension>
            <ns3:hr>141</ns3:hr>
            <ns3:cad>44</ns3:cad>
          </ns3:TrackPointExtension>
        </extensions>
      </trkpt>
      <trkpt lat="45.27266238816082477569580078125" lon="-71.11719044856727123260498046875">
        <ele>925.4000244140625</ele>
        <time>2026-08-22T01:13:59.000Z</time>
        <extensions>
          <ns3:TrackPointExtension>
            <ns3:hr>140</ns3:hr>
            <ns3:cad>44</ns3:cad>
          </ns3:TrackPointExtension>
        </extensions>
      </trkpt>
      <trkpt lat="45.27265392243862152099609375" lon="-71.11719547770917415618896484375">
        <ele>925.5999755859375</ele>
        <time>2026-08-22T01:14:00.000Z</time>
        <extensions>
          <ns3:TrackPointExtension>
            <ns3:hr>140</ns3:hr>
            <ns3:cad>44</ns3:cad>
          </ns3:TrackPointExtension>
        </extensions>
      </trkpt>
      <trkpt lat="45.27264579199254512786865234375" lon="-71.11720369197428226470947265625">
        <ele>925.79998779296875</ele>
        <time>2026-08-22T01:14:01.000Z</time>
        <extensions>
          <ns3:TrackPointExtension>
            <ns3:hr>139</ns3:hr>
            <ns3:cad>44</ns3:cad>
          </ns3:TrackPointExtension>
        </extensions>
      </trkpt>
      <trkpt lat="45.2726356498897075653076171875" lon="-71.11720637418329715728759765625">
        <ele>926</ele>
        <time>2026-08-22T01:14:02.000Z</time>
        <extensions>
          <ns3:TrackPointExtension>
            <ns3:hr>139</ns3:hr>
            <ns3:cad>47</ns3:cad>
          </ns3:TrackPointExtension>
        </extensions>
      </trkpt>
      <trkpt lat="45.2726262621581554412841796875" lon="-71.11721031367778778076171875">
        <ele>926</ele>
        <time>2026-08-22T01:14:03.000Z</time>
        <extensions>
          <ns3:TrackPointExtension>
            <ns3:hr>139</ns3:hr>
            <ns3:cad>47</ns3:cad>
          </ns3:TrackPointExtension>
        </extensions>
      </trkpt>
      <trkpt lat="45.2726182155311107635498046875" lon="-71.1172138340771198272705078125">
        <ele>926.20001220703125</ele>
        <time>2026-08-22T01:14:04.000Z</time>
        <extensions>
          <ns3:TrackPointExtension>
            <ns3:hr>138</ns3:hr>
            <ns3:cad>49</ns3:cad>
          </ns3:TrackPointExtension>
        </extensions>
      </trkpt>
      <trkpt lat="45.272610001266002655029296875" lon="-71.11721475608646869659423828125">
        <ele>926.4000244140625</ele>
        <time>2026-08-22T01:14:05.000Z</time>
        <extensions>
          <ns3:TrackPointExtension>
            <ns3:hr>138</ns3:hr>
            <ns3:cad>49</ns3:cad>
          </ns3:TrackPointExtension>
        </extensions>
      </trkpt>
      <trkpt lat="45.2725997753441333770751953125" lon="-71.11721911467611789703369140625">
        <ele>926.5999755859375</ele>
        <time>2026-08-22T01:14:06.000Z</time>
        <extensions>
          <ns3:TrackPointExtension>
            <ns3:hr>138</ns3:hr>
            <ns3:cad>47</ns3:cad>
          </ns3:TrackPointExtension>
        </extensions>
      </trkpt>
      <trkpt lat="45.27259047143161296844482421875" lon="-71.1172245629131793975830078125">
        <ele>926.5999755859375</ele>
        <time>2026-08-22T01:14:07.000Z</time>
        <extensions>
          <ns3:TrackPointExtension>
            <ns3:hr>138</ns3:hr>
            <ns3:cad>47</ns3:cad>
          </ns3:TrackPointExtension>
        </extensions>
      </trkpt>
      <trkpt lat="45.27258041314780712127685546875" lon="-71.1172299273312091827392578125">
        <ele>926.79998779296875</ele>
        <time>2026-08-22T01:14:08.000Z</time>
        <extensions>
          <ns3:TrackPointExtension>
            <ns3:hr>138</ns3:hr>
            <ns3:cad>47</ns3:cad>
          </ns3:TrackPointExtension>
        </extensions>
      </trkpt>
      <trkpt lat="45.2725716121494770050048828125" lon="-71.1172326095402240753173828125">
        <ele>927</ele>
        <time>2026-08-22T01:14:09.000Z</time>
        <extensions>
          <ns3:TrackPointExtension>
            <ns3:hr>138</ns3:hr>
            <ns3:cad>48</ns3:cad>
          </ns3:TrackPointExtension>
        </extensions>
      </trkpt>
      <trkpt lat="45.27256540954113006591796875" lon="-71.11723579466342926025390625">
        <ele>927</ele>
        <time>2026-08-22T01:14:10.000Z</time>
        <extensions>
          <ns3:TrackPointExtension>
            <ns3:hr>138</ns3:hr>
            <ns3:cad>48</ns3:cad>
          </ns3:TrackPointExtension>
        </extensions>
      </trkpt>
      <trkpt lat="45.2725582011044025421142578125" lon="-71.11724115908145904541015625">
        <ele>927.20001220703125</ele>
        <time>2026-08-22T01:14:11.000Z</time>
        <extensions>
          <ns3:TrackPointExtension>
            <ns3:hr>138</ns3:hr>
            <ns3:cad>48</ns3:cad>
          </ns3:TrackPointExtension>
        </extensions>
      </trkpt>
      <trkpt lat="45.2725541777908802032470703125" lon="-71.11724576912820339202880859375">
        <ele>927.20001220703125</ele>
        <time>2026-08-22T01:14:12.000Z</time>
        <extensions>
          <ns3:TrackPointExtension>
            <ns3:hr>138</ns3:hr>
            <ns3:cad>48</ns3:cad>
          </ns3:TrackPointExtension>
        </extensions>
      </trkpt>
      <trkpt lat="45.27254261076450347900390625" lon="-71.11724694259464740753173828125">
        <ele>927.4000244140625</ele>
        <time>2026-08-22T01:14:13.000Z</time>
        <extensions>
          <ns3:TrackPointExtension>
            <ns3:hr>138</ns3:hr>
            <ns3:cad>40</ns3:cad>
          </ns3:TrackPointExtension>
        </extensions>
      </trkpt>
      <trkpt lat="45.2725397609174251556396484375" lon="-71.11724744550883769989013671875">
        <ele>927.5999755859375</ele>
        <time>2026-08-22T01:14:14.000Z</time>
        <extensions>
          <ns3:TrackPointExtension>
            <ns3:hr>138</ns3:hr>
            <ns3:cad>0</ns3:cad>
          </ns3:TrackPointExtension>
        </extensions>
      </trkpt>
      <trkpt lat="45.27253515087068080902099609375" lon="-71.11724786460399627685546875">
        <ele>927.79998779296875</ele>
        <time>2026-08-22T01:14:15.000Z</time>
        <extensions>
          <ns3:TrackPointExtension>
            <ns3:hr>138</ns3:hr>
            <ns3:cad>0</ns3:cad>
          </ns3:TrackPointExtension>
        </extensions>
      </trkpt>
      <trkpt lat="45.2725246734917163848876953125" lon="-71.117246188223361968994140625">
        <ele>928</ele>
        <time>2026-08-22T01:14:16.000Z</time>
        <extensions>
          <ns3:TrackPointExtension>
            <ns3:hr>138</ns3:hr>
            <ns3:cad>0</ns3:cad>
          </ns3:TrackPointExtension>
        </extensions>
      </trkpt>
      <trkpt lat="45.27251905761659145355224609375" lon="-71.11724694259464740753173828125">
        <ele>928.20001220703125</ele>
        <time>2026-08-22T01:14:17.000Z</time>
        <extensions>
          <ns3:TrackPointExtension>
            <ns3:hr>138</ns3:hr>
            <ns3:cad>0</ns3:cad>
          </ns3:TrackPointExtension>
        </extensions>
      </trkpt>
      <trkpt lat="45.2725126035511493682861328125" lon="-71.11724627204239368438720703125">
        <ele>928.4000244140625</ele>
        <time>2026-08-22T01:14:18.000Z</time>
        <extensions>
          <ns3:TrackPointExtension>
            <ns3:hr>138</ns3:hr>
            <ns3:cad>0</ns3:cad>
          </ns3:TrackPointExtension>
        </extensions>
      </trkpt>
      <trkpt lat="45.272501371800899505615234375" lon="-71.1172487027943134307861328125">
        <ele>928.79998779296875</ele>
        <time>2026-08-22T01:14:19.000Z</time>
        <extensions>
          <ns3:TrackPointExtension>
            <ns3:hr>138</ns3:hr>
            <ns3:cad>0</ns3:cad>
          </ns3:TrackPointExtension>
        </extensions>
      </trkpt>
      <trkpt lat="45.2724924869835376739501953125" lon="-71.11725188791751861572265625">
        <ele>929</ele>
        <time>2026-08-22T01:14:20.000Z</time>
        <extensions>
          <ns3:TrackPointExtension>
            <ns3:hr>137</ns3:hr>
            <ns3:cad>0</ns3:cad>
          </ns3:TrackPointExtension>
        </extensions>
      </trkpt>
      <trkpt lat="45.27248452417552471160888671875" lon="-71.11725322902202606201171875">
        <ele>929</ele>
        <time>2026-08-22T01:14:21.000Z</time>
        <extensions>
          <ns3:TrackPointExtension>
            <ns3:hr>138</ns3:hr>
            <ns3:cad>0</ns3:cad>
          </ns3:TrackPointExtension>
        </extensions>
      </trkpt>
      <trkpt lat="45.27247698046267032623291015625" lon="-71.11725096590816974639892578125">
        <ele>929.20001220703125</ele>
        <time>2026-08-22T01:14:22.000Z</time>
        <extensions>
          <ns3:TrackPointExtension>
            <ns3:hr>138</ns3:hr>
            <ns3:cad>0</ns3:cad>
          </ns3:TrackPointExtension>
        </extensions>
      </trkpt>
      <trkpt lat="45.27246541343629360198974609375" lon="-71.11724426038563251495361328125">
        <ele>929.4000244140625</ele>
        <time>2026-08-22T01:14:23.000Z</time>
        <extensions>
          <ns3:TrackPointExtension>
            <ns3:hr>138</ns3:hr>
            <ns3:cad>0</ns3:cad>
          </ns3:TrackPointExtension>
        </extensions>
      </trkpt>
      <trkpt lat="45.2724574506282806396484375" lon="-71.11724057234823703765869140625">
        <ele>929.5999755859375</ele>
        <time>2026-08-22T01:14:24.000Z</time>
        <extensions>
          <ns3:TrackPointExtension>
            <ns3:hr>138</ns3:hr>
            <ns3:cad>0</ns3:cad>
          </ns3:TrackPointExtension>
        </extensions>
      </trkpt>
      <trkpt lat="45.2724552713334560394287109375" lon="-71.1172418296337127685546875">
        <ele>929.79998779296875</ele>
        <time>2026-08-22T01:14:25.000Z</time>
        <extensions>
          <ns3:TrackPointExtension>
            <ns3:hr>138</ns3:hr>
            <ns3:cad>0</ns3:cad>
          </ns3:TrackPointExtension>
        </extensions>
      </trkpt>
      <trkpt lat="45.27244781143963336944580078125" lon="-71.1172430031001567840576171875">
        <ele>930</ele>
        <time>2026-08-22T01:14:26.000Z</time>
        <extensions>
          <ns3:TrackPointExtension>
            <ns3:hr>138</ns3:hr>
            <ns3:cad>0</ns3:cad>
          </ns3:TrackPointExtension>
        </extensions>
      </trkpt>
      <trkpt lat="45.27243976481258869171142578125" lon="-71.117244847118854522705078125">
        <ele>930.20001220703125</ele>
        <time>2026-08-22T01:14:27.000Z</time>
        <extensions>
          <ns3:TrackPointExtension>
            <ns3:hr>138</ns3:hr>
            <ns3:cad>0</ns3:cad>
          </ns3:TrackPointExtension>
        </extensions>
      </trkpt>
      <trkpt lat="45.27243372984230518341064453125" lon="-71.11724744550883769989013671875">
        <ele>930.4000244140625</ele>
        <time>2026-08-22T01:14:28.000Z</time>
        <extensions>
          <ns3:TrackPointExtension>
            <ns3:hr>138</ns3:hr>
            <ns3:cad>0</ns3:cad>
          </ns3:TrackPointExtension>
        </extensions>
      </trkpt>
      <trkpt lat="45.27242065407335758209228515625" lon="-71.11724744550883769989013671875">
        <ele>930.5999755859375</ele>
        <time>2026-08-22T01:14:29.000Z</time>
        <extensions>
          <ns3:TrackPointExtension>
            <ns3:hr>137</ns3:hr>
            <ns3:cad>0</ns3:cad>
          </ns3:TrackPointExtension>
        </extensions>
      </trkpt>
      <trkpt lat="45.27241361327469348907470703125" lon="-71.11724845133721828460693359375">
        <ele>930.79998779296875</ele>
        <time>2026-08-22T01:14:30.000Z</time>
        <extensions>
          <ns3:TrackPointExtension>
            <ns3:hr>138</ns3:hr>
            <ns3:cad>0</ns3:cad>
          </ns3:TrackPointExtension>
        </extensions>
      </trkpt>
      <trkpt lat="45.2724006213247776031494140625" lon="-71.1172503791749477386474609375">
        <ele>930.79998779296875</ele>
        <time>2026-08-22T01:14:31.000Z</time>
        <extensions>
          <ns3:TrackPointExtension>
            <ns3:hr>138</ns3:hr>
            <ns3:cad>0</ns3:cad>
          </ns3:TrackPointExtension>
        </extensions>
      </trkpt>
      <trkpt lat="45.27238997630774974822998046875" lon="-71.11725322902202606201171875">
        <ele>931</ele>
        <time>2026-08-22T01:14:32.000Z</time>
        <extensions>
          <ns3:TrackPointExtension>
            <ns3:hr>138</ns3:hr>
            <ns3:cad>0</ns3:cad>
          </ns3:TrackPointExtension>
        </extensions>
      </trkpt>
      <trkpt lat="45.2723791636526584625244140625" lon="-71.1172560788691043853759765625">
        <ele>931</ele>
        <time>2026-08-22T01:14:33.000Z</time>
        <extensions>
          <ns3:TrackPointExtension>
            <ns3:hr>138</ns3:hr>
            <ns3:cad>0</ns3:cad>
          </ns3:TrackPointExtension>
        </extensions>
      </trkpt>
      <trkpt lat="45.2723689377307891845703125" lon="-71.1172547377645969390869140625">
        <ele>931.20001220703125</ele>
        <time>2026-08-22T01:14:34.000Z</time>
        <extensions>
          <ns3:TrackPointExtension>
            <ns3:hr>138</ns3:hr>
            <ns3:cad>0</ns3:cad>
          </ns3:TrackPointExtension>
        </extensions>
      </trkpt>
      <trkpt lat="45.2723580412566661834716796875" lon="-71.11725633032619953155517578125">
        <ele>931.20001220703125</ele>
        <time>2026-08-22T01:14:35.000Z</time>
        <extensions>
          <ns3:TrackPointExtension>
            <ns3:hr>138</ns3:hr>
            <ns3:cad>0</ns3:cad>
          </ns3:TrackPointExtension>
        </extensions>
      </trkpt>
      <trkpt lat="45.272351838648319244384765625" lon="-71.11725800670683383941650390625">
        <ele>931.4000244140625</ele>
        <time>2026-08-22T01:14:36.000Z</time>
        <extensions>
          <ns3:TrackPointExtension>
            <ns3:hr>137</ns3:hr>
            <ns3:cad>0</ns3:cad>
          </ns3:TrackPointExtension>
        </extensions>
      </trkpt>
      <trkpt lat="45.27235007844865322113037109375" lon="-71.11725918017327785491943359375">
        <ele>931.5999755859375</ele>
        <time>2026-08-22T01:14:37.000Z</time>
        <extensions>
          <ns3:TrackPointExtension>
            <ns3:hr>137</ns3:hr>
            <ns3:cad>0</ns3:cad>
          </ns3:TrackPointExtension>
        </extensions>
      </trkpt>
      <trkpt lat="45.27233876287937164306640625" lon="-71.11724660731852054595947265625">
        <ele>931.79998779296875</ele>
        <time>2026-08-22T01:14:38.000Z</time>
        <extensions>
          <ns3:TrackPointExtension>
            <ns3:hr>136</ns3:hr>
            <ns3:cad>0</ns3:cad>
          </ns3:TrackPointExtension>
        </extensions>
      </trkpt>
      <trkpt lat="45.2723355777561664581298828125" lon="-71.11724023707211017608642578125">
        <ele>932</ele>
        <time>2026-08-22T01:14:39.000Z</time>
        <extensions>
          <ns3:TrackPointExtension>
            <ns3:hr>136</ns3:hr>
            <ns3:cad>0</ns3:cad>
          </ns3:TrackPointExtension>
        </extensions>
      </trkpt>
      <trkpt lat="45.27233784087002277374267578125" lon="-71.1172473616898059844970703125">
        <ele>932.20001220703125</ele>
        <time>2026-08-22T01:14:40.000Z</time>
        <extensions>
          <ns3:TrackPointExtension>
            <ns3:hr>136</ns3:hr>
            <ns3:cad>0</ns3:cad>
          </ns3:TrackPointExtension>
        </extensions>
      </trkpt>
      <trkpt lat="45.27233147062361240386962890625" lon="-71.11724291928112506866455078125">
        <ele>932.4000244140625</ele>
        <time>2026-08-22T01:14:41.000Z</time>
        <extensions>
          <ns3:TrackPointExtension>
            <ns3:hr>137</ns3:hr>
            <ns3:cad>0</ns3:cad>
          </ns3:TrackPointExtension>
        </extensions>
      </trkpt>
      <trkpt lat="45.27232560329139232635498046875" lon="-71.1172413267195224761962890625">
        <ele>932.79998779296875</ele>
        <time>2026-08-22T01:14:42.000Z</time>
        <extensions>
          <ns3:TrackPointExtension>
            <ns3:hr>137</ns3:hr>
            <ns3:cad>0</ns3:cad>
          </ns3:TrackPointExtension>
        </extensions>
      </trkpt>
      <trkpt lat="45.272328369319438934326171875" lon="-71.117242164909839630126953125">
        <ele>933</ele>
        <time>2026-08-22T01:14:43.000Z</time>
        <extensions>
          <ns3:TrackPointExtension>
            <ns3:hr>138</ns3:hr>
            <ns3:cad>0</ns3:cad>
          </ns3:TrackPointExtension>
        </extensions>
      </trkpt>
      <trkpt lat="45.2723260223865509033203125" lon="-71.11723403446376323699951171875">
        <ele>933.20001220703125</ele>
        <time>2026-08-22T01:14:44.000Z</time>
        <extensions>
          <ns3:TrackPointExtension>
            <ns3:hr>138</ns3:hr>
            <ns3:cad>0</ns3:cad>
          </ns3:TrackPointExtension>
        </extensions>
      </trkpt>
      <trkpt lat="45.27231998741626739501953125" lon="-71.11722498200833797454833984375">
        <ele>933.5999755859375</ele>
        <time>2026-08-22T01:14:45.000Z</time>
        <extensions>
          <ns3:TrackPointExtension>
            <ns3:hr>138</ns3:hr>
            <ns3:cad>0</ns3:cad>
          </ns3:TrackPointExtension>
        </extensions>
      </trkpt>
      <trkpt lat="45.2723157964646816253662109375" lon="-71.1172232218086719512939453125">
        <ele>933.79998779296875</ele>
        <time>2026-08-22T01:14:46.000Z</time>
        <extensions>
          <ns3:TrackPointExtension>
            <ns3:hr>138</ns3:hr>
            <ns3:cad>0</ns3:cad>
          </ns3:TrackPointExtension>
        </extensions>
      </trkpt>
      <trkpt lat="45.27231059968471527099609375" lon="-71.117219030857086181640625">
        <ele>934</ele>
        <time>2026-08-22T01:14:47.000Z</time>
        <extensions>
          <ns3:TrackPointExtension>
            <ns3:hr>138</ns3:hr>
            <ns3:cad>0</ns3:cad>
          </ns3:TrackPointExtension>
        </extensions>
      </trkpt>
      <trkpt lat="45.27230531908571720123291015625" lon="-71.11721341498196125030517578125">
        <ele>934.20001220703125</ele>
        <time>2026-08-22T01:14:48.000Z</time>
        <extensions>
          <ns3:TrackPointExtension>
            <ns3:hr>137</ns3:hr>
            <ns3:cad>0</ns3:cad>
          </ns3:TrackPointExtension>
        </extensions>
      </trkpt>
      <trkpt lat="45.27230389416217803955078125" lon="-71.11721056513488292694091796875">
        <ele>934.5999755859375</ele>
        <time>2026-08-22T01:14:49.000Z</time>
        <extensions>
          <ns3:TrackPointExtension>
            <ns3:hr>138</ns3:hr>
            <ns3:cad>0</ns3:cad>
          </ns3:TrackPointExtension>
        </extensions>
      </trkpt>
      <trkpt lat="45.2722992002964019775390625" lon="-71.11720788292586803436279296875">
        <ele>934.79998779296875</ele>
        <time>2026-08-22T01:14:50.000Z</time>
        <extensions>
          <ns3:TrackPointExtension>
            <ns3:hr>138</ns3:hr>
            <ns3:cad>43</ns3:cad>
          </ns3:TrackPointExtension>
        </extensions>
      </trkpt>
      <trkpt lat="45.2722946740686893463134765625" lon="-71.1172037757933139801025390625">
        <ele>935.20001220703125</ele>
        <time>2026-08-22T01:14:51.000Z</time>
        <extensions>
          <ns3:TrackPointExtension>
            <ns3:hr>138</ns3:hr>
            <ns3:cad>43</ns3:cad>
          </ns3:TrackPointExtension>
        </extensions>
      </trkpt>
      <trkpt lat="45.27228721417486667633056640625" lon="-71.1171977408230304718017578125">
        <ele>935.4000244140625</ele>
        <time>2026-08-22T01:14:52.000Z</time>
        <extensions>
          <ns3:TrackPointExtension>
            <ns3:hr>138</ns3:hr>
            <ns3:cad>0</ns3:cad>
          </ns3:TrackPointExtension>
        </extensions>
      </trkpt>
      <trkpt lat="45.27227950282394886016845703125" lon="-71.11719011329114437103271484375">
        <ele>935.5999755859375</ele>
        <time>2026-08-22T01:14:53.000Z</time>
        <extensions>
          <ns3:TrackPointExtension>
            <ns3:hr>138</ns3:hr>
            <ns3:cad>0</ns3:cad>
          </ns3:TrackPointExtension>
        </extensions>
      </trkpt>
      <trkpt lat="45.27227497659623622894287109375" lon="-71.11718474887311458587646484375">
        <ele>936</ele>
        <time>2026-08-22T01:14:54.000Z</time>
        <extensions>
          <ns3:TrackPointExtension>
            <ns3:hr>138</ns3:hr>
            <ns3:cad>41</ns3:cad>
          </ns3:TrackPointExtension>
        </extensions>
      </trkpt>
      <trkpt lat="45.27226827107369899749755859375" lon="-71.1171742714941501617431640625">
        <ele>936.20001220703125</ele>
        <time>2026-08-22T01:14:55.000Z</time>
        <extensions>
          <ns3:TrackPointExtension>
            <ns3:hr>138</ns3:hr>
            <ns3:cad>41</ns3:cad>
          </ns3:TrackPointExtension>
        </extensions>
      </trkpt>
      <trkpt lat="45.2722643315792083740234375" lon="-71.1171685717999935150146484375">
        <ele>936.4000244140625</ele>
        <time>2026-08-22T01:14:56.000Z</time>
        <extensions>
          <ns3:TrackPointExtension>
            <ns3:hr>138</ns3:hr>
            <ns3:cad>41</ns3:cad>
          </ns3:TrackPointExtension>
        </extensions>
      </trkpt>
      <trkpt lat="45.27226290665566921234130859375" lon="-71.11716479994356632232666015625">
        <ele>936.5999755859375</ele>
        <time>2026-08-22T01:14:57.000Z</time>
        <extensions>
          <ns3:TrackPointExtension>
            <ns3:hr>138</ns3:hr>
            <ns3:cad>41</ns3:cad>
          </ns3:TrackPointExtension>
        </extensions>
      </trkpt>
      <trkpt lat="45.27225754223763942718505859375" lon="-71.11714937724173069000244140625">
        <ele>937</ele>
        <time>2026-08-22T01:14:58.000Z</time>
        <extensions>
          <ns3:TrackPointExtension>
            <ns3:hr>139</ns3:hr>
            <ns3:cad>41</ns3:cad>
          </ns3:TrackPointExtension>
        </extensions>
      </trkpt>
      <trkpt lat="45.2722487412393093109130859375" lon="-71.1171474494040012359619140625">
        <ele>937.20001220703125</ele>
        <time>2026-08-22T01:14:59.000Z</time>
        <extensions>
          <ns3:TrackPointExtension>
            <ns3:hr>139</ns3:hr>
            <ns3:cad>54</ns3:cad>
          </ns3:TrackPointExtension>
        </extensions>
      </trkpt>
      <trkpt lat="45.272239185869693756103515625" lon="-71.117140911519527435302734375">
        <ele>937.4000244140625</ele>
        <time>2026-08-22T01:15:00.000Z</time>
        <extensions>
          <ns3:TrackPointExtension>
            <ns3:hr>140</ns3:hr>
            <ns3:cad>54</ns3:cad>
          </ns3:TrackPointExtension>
        </extensions>
      </trkpt>
      <trkpt lat="45.2722348272800445556640625" lon="-71.117138564586639404296875">
        <ele>937.5999755859375</ele>
        <time>2026-08-22T01:15:01.000Z</time>
        <extensions>
          <ns3:TrackPointExtension>
            <ns3:hr>140</ns3:hr>
            <ns3:cad>0</ns3:cad>
          </ns3:TrackPointExtension>
        </extensions>
      </trkpt>
      <trkpt lat="45.2722356654703617095947265625" lon="-71.117140911519527435302734375">
        <ele>937.79998779296875</ele>
        <time>2026-08-22T01:15:02.000Z</time>
        <extensions>
          <ns3:TrackPointExtension>
            <ns3:hr>141</ns3:hr>
            <ns3:cad>0</ns3:cad>
          </ns3:TrackPointExtension>
        </extensions>
      </trkpt>
      <trkpt lat="45.272231809794902801513671875" lon="-71.11713781021535396575927734375">
        <ele>938</ele>
        <time>2026-08-22T01:15:03.000Z</time>
        <extensions>
          <ns3:TrackPointExtension>
            <ns3:hr>140</ns3:hr>
            <ns3:cad>0</ns3:cad>
          </ns3:TrackPointExtension>
        </extensions>
      </trkpt>
      <trkpt lat="45.27222367934882640838623046875" lon="-71.11712892539799213409423828125">
        <ele>938.4000244140625</ele>
        <time>2026-08-22T01:15:04.000Z</time>
        <extensions>
          <ns3:TrackPointExtension>
            <ns3:hr>140</ns3:hr>
            <ns3:cad>0</ns3:cad>
          </ns3:TrackPointExtension>
        </extensions>
      </trkpt>
      <trkpt lat="45.27221613563597202301025390625" lon="-71.1171236447989940643310546875">
        <ele>938.5999755859375</ele>
        <time>2026-08-22T01:15:05.000Z</time>
        <extensions>
          <ns3:TrackPointExtension>
            <ns3:hr>141</ns3:hr>
            <ns3:cad>0</ns3:cad>
          </ns3:TrackPointExtension>
        </extensions>
      </trkpt>
      <trkpt lat="45.2722111903131008148193359375" lon="-71.11712054349482059478759765625">
        <ele>938.79998779296875</ele>
        <time>2026-08-22T01:15:06.000Z</time>
        <extensions>
          <ns3:TrackPointExtension>
            <ns3:hr>141</ns3:hr>
            <ns3:cad>0</ns3:cad>
          </ns3:TrackPointExtension>
        </extensions>
      </trkpt>
      <trkpt lat="45.27220674790441989898681640625" lon="-71.11711383797228336334228515625">
        <ele>939</ele>
        <time>2026-08-22T01:15:07.000Z</time>
        <extensions>
          <ns3:TrackPointExtension>
            <ns3:hr>141</ns3:hr>
            <ns3:cad>0</ns3:cad>
          </ns3:TrackPointExtension>
        </extensions>
      </trkpt>
      <trkpt lat="45.2722021378576755523681640625" lon="-71.11710813827812671661376953125">
        <ele>939</ele>
        <time>2026-08-22T01:15:08.000Z</time>
        <extensions>
          <ns3:TrackPointExtension>
            <ns3:hr>142</ns3:hr>
            <ns3:cad>0</ns3:cad>
          </ns3:TrackPointExtension>
        </extensions>
      </trkpt>
      <trkpt lat="45.2721991203725337982177734375" lon="-71.11710076220333576202392578125">
        <ele>939.20001220703125</ele>
        <time>2026-08-22T01:15:09.000Z</time>
        <extensions>
          <ns3:TrackPointExtension>
            <ns3:hr>142</ns3:hr>
            <ns3:cad>45</ns3:cad>
          </ns3:TrackPointExtension>
        </extensions>
      </trkpt>
      <trkpt lat="45.27219283394515514373779296875" lon="-71.11708450131118297576904296875">
        <ele>939.4000244140625</ele>
        <time>2026-08-22T01:15:10.000Z</time>
        <extensions>
          <ns3:TrackPointExtension>
            <ns3:hr>142</ns3:hr>
            <ns3:cad>45</ns3:cad>
          </ns3:TrackPointExtension>
        </extensions>
      </trkpt>
      <trkpt lat="45.27218998409807682037353515625" lon="-71.11708165146410465240478515625">
        <ele>939.5999755859375</ele>
        <time>2026-08-22T01:15:11.000Z</time>
        <extensions>
          <ns3:TrackPointExtension>
            <ns3:hr>142</ns3:hr>
            <ns3:cad>45</ns3:cad>
          </ns3:TrackPointExtension>
        </extensions>
      </trkpt>
      <trkpt lat="45.27218026109039783477783203125" lon="-71.11707913689315319061279296875">
        <ele>939.79998779296875</ele>
        <time>2026-08-22T01:15:12.000Z</time>
        <extensions>
          <ns3:TrackPointExtension>
            <ns3:hr>142</ns3:hr>
            <ns3:cad>45</ns3:cad>
          </ns3:TrackPointExtension>
        </extensions>
      </trkpt>
      <trkpt lat="45.27217858470976352691650390625" lon="-71.11707896925508975982666015625">
        <ele>940.20001220703125</ele>
        <time>2026-08-22T01:15:13.000Z</time>
        <extensions>
          <ns3:TrackPointExtension>
            <ns3:hr>142</ns3:hr>
            <ns3:cad>45</ns3:cad>
          </ns3:TrackPointExtension>
        </extensions>
      </trkpt>
      <trkpt lat="45.272172130644321441650390625" lon="-71.11707058735191822052001953125">
        <ele>940.4000244140625</ele>
        <time>2026-08-22T01:15:14.000Z</time>
        <extensions>
          <ns3:TrackPointExtension>
            <ns3:hr>143</ns3:hr>
            <ns3:cad>0</ns3:cad>
          </ns3:TrackPointExtension>
        </extensions>
      </trkpt>
      <trkpt lat="45.27216701768338680267333984375" lon="-71.11705885268747806549072265625">
        <ele>940.4000244140625</ele>
        <time>2026-08-22T01:15:15.000Z</time>
        <extensions>
          <ns3:TrackPointExtension>
            <ns3:hr>143</ns3:hr>
            <ns3:cad>0</ns3:cad>
          </ns3:TrackPointExtension>
        </extensions>
      </trkpt>
      <trkpt lat="45.27216601185500621795654296875" lon="-71.11705382354557514190673828125">
        <ele>940.5999755859375</ele>
        <time>2026-08-22T01:15:16.000Z</time>
        <extensions>
          <ns3:TrackPointExtension>
            <ns3:hr>142</ns3:hr>
            <ns3:cad>0</ns3:cad>
          </ns3:TrackPointExtension>
        </extensions>
      </trkpt>
      <trkpt lat="45.272168107330799102783203125" lon="-71.117055416107177734375">
        <ele>940.79998779296875</ele>
        <time>2026-08-22T01:15:17.000Z</time>
        <extensions>
          <ns3:TrackPointExtension>
            <ns3:hr>142</ns3:hr>
            <ns3:cad>0</ns3:cad>
          </ns3:TrackPointExtension>
        </extensions>
      </trkpt>
      <trkpt lat="45.27216299436986446380615234375" lon="-71.11703974194824695587158203125">
        <ele>941</ele>
        <time>2026-08-22T01:15:18.000Z</time>
        <extensions>
          <ns3:TrackPointExtension>
            <ns3:hr>142</ns3:hr>
            <ns3:cad>0</ns3:cad>
          </ns3:TrackPointExtension>
        </extensions>
      </trkpt>
      <trkpt lat="45.272161066532135009765625" lon="-71.11702851019799709320068359375">
        <ele>941.20001220703125</ele>
        <time>2026-08-22T01:15:19.000Z</time>
        <extensions>
          <ns3:TrackPointExtension>
            <ns3:hr>143</ns3:hr>
            <ns3:cad>0</ns3:cad>
          </ns3:TrackPointExtension>
        </extensions>
      </trkpt>
      <trkpt lat="45.27215503156185150146484375" lon="-71.11701987683773040771484375">
        <ele>941.5999755859375</ele>
        <time>2026-08-22T01:15:20.000Z</time>
        <extensions>
          <ns3:TrackPointExtension>
            <ns3:hr>143</ns3:hr>
            <ns3:cad>0</ns3:cad>
          </ns3:TrackPointExtension>
        </extensions>
      </trkpt>
      <trkpt lat="45.2721481584012508392333984375" lon="-71.11700906418263912200927734375">
        <ele>941.79998779296875</ele>
        <time>2026-08-22T01:15:21.000Z</time>
        <extensions>
          <ns3:TrackPointExtension>
            <ns3:hr>142</ns3:hr>
            <ns3:cad>0</ns3:cad>
          </ns3:TrackPointExtension>
        </extensions>
      </trkpt>
      <trkpt lat="45.27214304544031620025634765625" lon="-71.1170062981545925140380859375">
        <ele>942</ele>
        <time>2026-08-22T01:15:22.000Z</time>
        <extensions>
          <ns3:TrackPointExtension>
            <ns3:hr>142</ns3:hr>
            <ns3:cad>0</ns3:cad>
          </ns3:TrackPointExtension>
        </extensions>
      </trkpt>
      <trkpt lat="45.27213466353714466094970703125" lon="-71.1170016042888164520263671875">
        <ele>942.4000244140625</ele>
        <time>2026-08-22T01:15:23.000Z</time>
        <extensions>
          <ns3:TrackPointExtension>
            <ns3:hr>142</ns3:hr>
            <ns3:cad>0</ns3:cad>
          </ns3:TrackPointExtension>
        </extensions>
      </trkpt>
      <trkpt lat="45.27212393470108509063720703125" lon="-71.116992048919200897216796875">
        <ele>942.5999755859375</ele>
        <time>2026-08-22T01:15:24.000Z</time>
        <extensions>
          <ns3:TrackPointExtension>
            <ns3:hr>142</ns3:hr>
            <ns3:cad>0</ns3:cad>
          </ns3:TrackPointExtension>
        </extensions>
      </trkpt>
      <trkpt lat="45.272123180329799652099609375" lon="-71.11699347384274005889892578125">
        <ele>942.79998779296875</ele>
        <time>2026-08-22T01:15:25.000Z</time>
        <extensions>
          <ns3:TrackPointExtension>
            <ns3:hr>142</ns3:hr>
            <ns3:cad>0</ns3:cad>
          </ns3:TrackPointExtension>
        </extensions>
      </trkpt>
      <trkpt lat="45.272117145359516143798828125" lon="-71.11698626540601253509521484375">
        <ele>942.79998779296875</ele>
        <time>2026-08-22T01:15:26.000Z</time>
        <extensions>
          <ns3:TrackPointExtension>
            <ns3:hr>142</ns3:hr>
            <ns3:cad>0</ns3:cad>
          </ns3:TrackPointExtension>
        </extensions>
      </trkpt>
      <trkpt lat="45.2721082605421543121337890625" lon="-71.1169816553592681884765625">
        <ele>943</ele>
        <time>2026-08-22T01:15:27.000Z</time>
        <extensions>
          <ns3:TrackPointExtension>
            <ns3:hr>143</ns3:hr>
            <ns3:cad>0</ns3:cad>
          </ns3:TrackPointExtension>
        </extensions>
      </trkpt>
      <trkpt lat="45.2721015550196170806884765625" lon="-71.116977967321872711181640625">
        <ele>943.20001220703125</ele>
        <time>2026-08-22T01:15:28.000Z</time>
        <extensions>
          <ns3:TrackPointExtension>
            <ns3:hr>142</ns3:hr>
            <ns3:cad>0</ns3:cad>
          </ns3:TrackPointExtension>
        </extensions>
      </trkpt>
      <trkpt lat="45.27209275402128696441650390625" lon="-71.11697469837963581085205078125">
        <ele>943.4000244140625</ele>
        <time>2026-08-22T01:15:29.000Z</time>
        <extensions>
          <ns3:TrackPointExtension>
            <ns3:hr>142</ns3:hr>
            <ns3:cad>0</ns3:cad>
          </ns3:TrackPointExtension>
        </extensions>
      </trkpt>
      <trkpt lat="45.27207582257688045501708984375" lon="-71.1169717647135257720947265625">
        <ele>943.5999755859375</ele>
        <time>2026-08-22T01:15:30.000Z</time>
        <extensions>
          <ns3:TrackPointExtension>
            <ns3:hr>142</ns3:hr>
            <ns3:cad>0</ns3:cad>
          </ns3:TrackPointExtension>
        </extensions>
      </trkpt>
      <trkpt lat="45.27206861414015293121337890625" lon="-71.11697285436093807220458984375">
        <ele>943.79998779296875</ele>
        <time>2026-08-22T01:15:31.000Z</time>
        <extensions>
          <ns3:TrackPointExtension>
            <ns3:hr>142</ns3:hr>
            <ns3:cad>0</ns3:cad>
          </ns3:TrackPointExtension>
        </extensions>
      </trkpt>
      <trkpt lat="45.272060818970203399658203125" lon="-71.1169754527509212493896484375">
        <ele>944</ele>
        <time>2026-08-22T01:15:32.000Z</time>
        <extensions>
          <ns3:TrackPointExtension>
            <ns3:hr>142</ns3:hr>
            <ns3:cad>41</ns3:cad>
          </ns3:TrackPointExtension>
        </extensions>
      </trkpt>
      <trkpt lat="45.27204950340092182159423828125" lon="-71.11698023043572902679443359375">
        <ele>944.20001220703125</ele>
        <time>2026-08-22T01:15:33.000Z</time>
        <extensions>
          <ns3:TrackPointExtension>
            <ns3:hr>142</ns3:hr>
            <ns3:cad>41</ns3:cad>
          </ns3:TrackPointExtension>
        </extensions>
      </trkpt>
      <trkpt lat="45.27204573154449462890625" lon="-71.1169834993779659271240234375">
        <ele>944.4000244140625</ele>
        <time>2026-08-22T01:15:34.000Z</time>
        <extensions>
          <ns3:TrackPointExtension>
            <ns3:hr>142</ns3:hr>
            <ns3:cad>41</ns3:cad>
          </ns3:TrackPointExtension>
        </extensions>
      </trkpt>
      <trkpt lat="45.27204246260225772857666015625" lon="-71.11698643304407596588134765625">
        <ele>944.4000244140625</ele>
        <time>2026-08-22T01:15:35.000Z</time>
        <extensions>
          <ns3:TrackPointExtension>
            <ns3:hr>142</ns3:hr>
            <ns3:cad>0</ns3:cad>
          </ns3:TrackPointExtension>
        </extensions>
      </trkpt>
      <trkpt lat="45.2720363438129425048828125" lon="-71.11699162982404232025146484375">
        <ele>944.4000244140625</ele>
        <time>2026-08-22T01:15:36.000Z</time>
        <extensions>
          <ns3:TrackPointExtension>
            <ns3:hr>141</ns3:hr>
            <ns3:cad>0</ns3:cad>
          </ns3:TrackPointExtension>
        </extensions>
      </trkpt>
      <trkpt lat="45.2720318175852298736572265625" lon="-71.11699598841369152069091796875">
        <ele>944.4000244140625</ele>
        <time>2026-08-22T01:15:37.000Z</time>
        <extensions>
          <ns3:TrackPointExtension>
            <ns3:hr>141</ns3:hr>
            <ns3:cad>0</ns3:cad>
          </ns3:TrackPointExtension>
        </extensions>
      </trkpt>
      <trkpt lat="45.27202737517654895782470703125" lon="-71.11699548549950122833251953125">
        <ele>944.4000244140625</ele>
        <time>2026-08-22T01:15:38.000Z</time>
        <extensions>
          <ns3:TrackPointExtension>
            <ns3:hr>141</ns3:hr>
            <ns3:cad>0</ns3:cad>
          </ns3:TrackPointExtension>
        </extensions>
      </trkpt>
      <trkpt lat="45.27201781980693340301513671875" lon="-71.1170002631843090057373046875">
        <ele>944.4000244140625</ele>
        <time>2026-08-22T01:15:39.000Z</time>
        <extensions>
          <ns3:TrackPointExtension>
            <ns3:hr>142</ns3:hr>
            <ns3:cad>0</ns3:cad>
          </ns3:TrackPointExtension>
        </extensions>
      </trkpt>
      <trkpt lat="45.27201161719858646392822265625" lon="-71.11700789071619510650634765625">
        <ele>944.5999755859375</ele>
        <time>2026-08-22T01:15:40.000Z</time>
        <extensions>
          <ns3:TrackPointExtension>
            <ns3:hr>141</ns3:hr>
            <ns3:cad>0</ns3:cad>
          </ns3:TrackPointExtension>
        </extensions>
      </trkpt>
      <trkpt lat="45.27200088836252689361572265625" lon="-71.11701459623873233795166015625">
        <ele>944.5999755859375</ele>
        <time>2026-08-22T01:15:41.000Z</time>
        <extensions>
          <ns3:TrackPointExtension>
            <ns3:hr>141</ns3:hr>
            <ns3:cad>0</ns3:cad>
          </ns3:TrackPointExtension>
        </extensions>
      </trkpt>
      <trkpt lat="45.271993763744831085205078125" lon="-71.11702180467545986175537109375">
        <ele>944.5999755859375</ele>
        <time>2026-08-22T01:15:42.000Z</time>
        <extensions>
          <ns3:TrackPointExtension>
            <ns3:hr>141</ns3:hr>
            <ns3:cad>0</ns3:cad>
          </ns3:TrackPointExtension>
        </extensions>
      </trkpt>
      <trkpt lat="45.27198462747037410736083984375" lon="-71.117028929293155670166015625">
        <ele>944.5999755859375</ele>
        <time>2026-08-22T01:15:43.000Z</time>
        <extensions>
          <ns3:TrackPointExtension>
            <ns3:hr>141</ns3:hr>
            <ns3:cad>0</ns3:cad>
          </ns3:TrackPointExtension>
        </extensions>
      </trkpt>
      <trkpt lat="45.2719785086810588836669921875" lon="-71.1170347966253757476806640625">
        <ele>944.79998779296875</ele>
        <time>2026-08-22T01:15:44.000Z</time>
        <extensions>
          <ns3:TrackPointExtension>
            <ns3:hr>141</ns3:hr>
            <ns3:cad>0</ns3:cad>
          </ns3:TrackPointExtension>
        </extensions>
      </trkpt>
      <trkpt lat="45.27197088114917278289794921875" lon="-71.11703655682504177093505859375">
        <ele>945</ele>
        <time>2026-08-22T01:15:45.000Z</time>
        <extensions>
          <ns3:TrackPointExtension>
            <ns3:hr>141</ns3:hr>
            <ns3:cad>0</ns3:cad>
          </ns3:TrackPointExtension>
        </extensions>
      </trkpt>
      <trkpt lat="45.27196853421628475189208984375" lon="-71.1170374788343906402587890625">
        <ele>945</ele>
        <time>2026-08-22T01:15:46.000Z</time>
        <extensions>
          <ns3:TrackPointExtension>
            <ns3:hr>140</ns3:hr>
            <ns3:cad>0</ns3:cad>
          </ns3:TrackPointExtension>
        </extensions>
      </trkpt>
      <trkpt lat="45.27195562608540058135986328125" lon="-71.117035634815692901611328125">
        <ele>945.4000244140625</ele>
        <time>2026-08-22T01:15:47.000Z</time>
        <extensions>
          <ns3:TrackPointExtension>
            <ns3:hr>141</ns3:hr>
            <ns3:cad>0</ns3:cad>
          </ns3:TrackPointExtension>
        </extensions>
      </trkpt>
      <trkpt lat="45.2719483338296413421630859375" lon="-71.117036975920200347900390625">
        <ele>945.5999755859375</ele>
        <time>2026-08-22T01:15:48.000Z</time>
        <extensions>
          <ns3:TrackPointExtension>
            <ns3:hr>140</ns3:hr>
            <ns3:cad>0</ns3:cad>
          </ns3:TrackPointExtension>
        </extensions>
      </trkpt>
      <trkpt lat="45.271937437355518341064453125" lon="-71.11704208888113498687744140625">
        <ele>945.5999755859375</ele>
        <time>2026-08-22T01:15:49.000Z</time>
        <extensions>
          <ns3:TrackPointExtension>
            <ns3:hr>140</ns3:hr>
            <ns3:cad>0</ns3:cad>
          </ns3:TrackPointExtension>
        </extensions>
      </trkpt>
      <trkpt lat="45.271930061280727386474609375" lon="-71.11704225651919841766357421875">
        <ele>945.79998779296875</ele>
        <time>2026-08-22T01:15:50.000Z</time>
        <extensions>
          <ns3:TrackPointExtension>
            <ns3:hr>140</ns3:hr>
            <ns3:cad>0</ns3:cad>
          </ns3:TrackPointExtension>
        </extensions>
      </trkpt>
      <trkpt lat="45.27191698551177978515625" lon="-71.117046363651752471923828125">
        <ele>946</ele>
        <time>2026-08-22T01:15:51.000Z</time>
        <extensions>
          <ns3:TrackPointExtension>
            <ns3:hr>140</ns3:hr>
            <ns3:cad>0</ns3:cad>
          </ns3:TrackPointExtension>
        </extensions>
      </trkpt>
      <trkpt lat="45.27190826833248138427734375" lon="-71.1170569248497486114501953125">
        <ele>946</ele>
        <time>2026-08-22T01:15:52.000Z</time>
        <extensions>
          <ns3:TrackPointExtension>
            <ns3:hr>139</ns3:hr>
            <ns3:cad>0</ns3:cad>
          </ns3:TrackPointExtension>
        </extensions>
      </trkpt>
      <trkpt lat="45.271901898086071014404296875" lon="-71.11706270836293697357177734375">
        <ele>946</ele>
        <time>2026-08-22T01:15:53.000Z</time>
        <extensions>
          <ns3:TrackPointExtension>
            <ns3:hr>139</ns3:hr>
            <ns3:cad>0</ns3:cad>
          </ns3:TrackPointExtension>
        </extensions>
      </trkpt>
      <trkpt lat="45.2718973718583583831787109375" lon="-71.11706539057195186614990234375">
        <ele>946.20001220703125</ele>
        <time>2026-08-22T01:15:54.000Z</time>
        <extensions>
          <ns3:TrackPointExtension>
            <ns3:hr>140</ns3:hr>
            <ns3:cad>0</ns3:cad>
          </ns3:TrackPointExtension>
        </extensions>
      </trkpt>
      <trkpt lat="45.27188857086002826690673828125" lon="-71.1170683242380619049072265625">
        <ele>946.4000244140625</ele>
        <time>2026-08-22T01:15:55.000Z</time>
        <extensions>
          <ns3:TrackPointExtension>
            <ns3:hr>140</ns3:hr>
            <ns3:cad>0</ns3:cad>
          </ns3:TrackPointExtension>
        </extensions>
      </trkpt>
      <trkpt lat="45.2718832902610301971435546875" lon="-71.117071844637393951416015625">
        <ele>946.4000244140625</ele>
        <time>2026-08-22T01:15:56.000Z</time>
        <extensions>
          <ns3:TrackPointExtension>
            <ns3:hr>140</ns3:hr>
            <ns3:cad>0</ns3:cad>
          </ns3:TrackPointExtension>
        </extensions>
      </trkpt>
      <trkpt lat="45.2718718908727169036865234375" lon="-71.1170736886560916900634765625">
        <ele>946.5999755859375</ele>
        <time>2026-08-22T01:15:57.000Z</time>
        <extensions>
          <ns3:TrackPointExtension>
            <ns3:hr>140</ns3:hr>
            <ns3:cad>0</ns3:cad>
          </ns3:TrackPointExtension>
        </extensions>
      </trkpt>
      <trkpt lat="45.27186811901628971099853515625" lon="-71.11707444302737712860107421875">
        <ele>946.79998779296875</ele>
        <time>2026-08-22T01:15:58.000Z</time>
        <extensions>
          <ns3:TrackPointExtension>
            <ns3:hr>140</ns3:hr>
            <ns3:cad>0</ns3:cad>
          </ns3:TrackPointExtension>
        </extensions>
      </trkpt>
      <trkpt lat="45.27185856364667415618896484375" lon="-71.1170790530741214752197265625">
        <ele>947</ele>
        <time>2026-08-22T01:15:59.000Z</time>
        <extensions>
          <ns3:TrackPointExtension>
            <ns3:hr>140</ns3:hr>
            <ns3:cad>0</ns3:cad>
          </ns3:TrackPointExtension>
        </extensions>
      </trkpt>
      <trkpt lat="45.271850265562534332275390625" lon="-71.11708366312086582183837890625">
        <ele>947.20001220703125</ele>
        <time>2026-08-22T01:16:00.000Z</time>
        <extensions>
          <ns3:TrackPointExtension>
            <ns3:hr>140</ns3:hr>
            <ns3:cad>0</ns3:cad>
          </ns3:TrackPointExtension>
        </extensions>
      </trkpt>
      <trkpt lat="45.27183995582163333892822265625" lon="-71.11708559095859527587890625">
        <ele>947.4000244140625</ele>
        <time>2026-08-22T01:16:01.000Z</time>
        <extensions>
          <ns3:TrackPointExtension>
            <ns3:hr>140</ns3:hr>
            <ns3:cad>0</ns3:cad>
          </ns3:TrackPointExtension>
        </extensions>
      </trkpt>
      <trkpt lat="45.2718276344239711761474609375" lon="-71.11708500422537326812744140625">
        <ele>947.5999755859375</ele>
        <time>2026-08-22T01:16:02.000Z</time>
        <extensions>
          <ns3:TrackPointExtension>
            <ns3:hr>140</ns3:hr>
            <ns3:cad>0</ns3:cad>
          </ns3:TrackPointExtension>
        </extensions>
      </trkpt>
      <trkpt lat="45.2718215994536876678466796875" lon="-71.11708424985408782958984375">
        <ele>947.79998779296875</ele>
        <time>2026-08-22T01:16:03.000Z</time>
        <extensions>
          <ns3:TrackPointExtension>
            <ns3:hr>139</ns3:hr>
            <ns3:cad>0</ns3:cad>
          </ns3:TrackPointExtension>
        </extensions>
      </trkpt>
      <trkpt lat="45.271817743778228759765625" lon="-71.1170830763876438140869140625">
        <ele>948</ele>
        <time>2026-08-22T01:16:04.000Z</time>
        <extensions>
          <ns3:TrackPointExtension>
            <ns3:hr>140</ns3:hr>
            <ns3:cad>0</ns3:cad>
          </ns3:TrackPointExtension>
        </extensions>
      </trkpt>
      <trkpt lat="45.27181229554116725921630859375" lon="-71.1170797236263751983642578125">
        <ele>948.20001220703125</ele>
        <time>2026-08-22T01:16:05.000Z</time>
        <extensions>
          <ns3:TrackPointExtension>
            <ns3:hr>140</ns3:hr>
            <ns3:cad>0</ns3:cad>
          </ns3:TrackPointExtension>
        </extensions>
      </trkpt>
      <trkpt lat="45.2718105353415012359619140625" lon="-71.11707963980734348297119140625">
        <ele>948.4000244140625</ele>
        <time>2026-08-22T01:16:06.000Z</time>
        <extensions>
          <ns3:TrackPointExtension>
            <ns3:hr>140</ns3:hr>
            <ns3:cad>0</ns3:cad>
          </ns3:TrackPointExtension>
        </extensions>
      </trkpt>
      <trkpt lat="45.27180760167539119720458984375" lon="-71.117081232368946075439453125">
        <ele>948.5999755859375</ele>
        <time>2026-08-22T01:16:07.000Z</time>
        <extensions>
          <ns3:TrackPointExtension>
            <ns3:hr>140</ns3:hr>
            <ns3:cad>0</ns3:cad>
          </ns3:TrackPointExtension>
        </extensions>
      </trkpt>
      <trkpt lat="45.2718061767518520355224609375" lon="-71.11708450131118297576904296875">
        <ele>948.79998779296875</ele>
        <time>2026-08-22T01:16:08.000Z</time>
        <extensions>
          <ns3:TrackPointExtension>
            <ns3:hr>140</ns3:hr>
            <ns3:cad>0</ns3:cad>
          </ns3:TrackPointExtension>
        </extensions>
      </trkpt>
      <trkpt lat="45.27180357836186885833740234375" lon="-71.11708433367311954498291015625">
        <ele>949</ele>
        <time>2026-08-22T01:16:09.000Z</time>
        <extensions>
          <ns3:TrackPointExtension>
            <ns3:hr>140</ns3:hr>
            <ns3:cad>0</ns3:cad>
          </ns3:TrackPointExtension>
        </extensions>
      </trkpt>
      <trkpt lat="45.271800644695758819580078125" lon="-71.1170820705592632293701171875">
        <ele>949.20001220703125</ele>
        <time>2026-08-22T01:16:10.000Z</time>
        <extensions>
          <ns3:TrackPointExtension>
            <ns3:hr>139</ns3:hr>
            <ns3:cad>0</ns3:cad>
          </ns3:TrackPointExtension>
        </extensions>
      </trkpt>
      <trkpt lat="45.271801985800266265869140625" lon="-71.1170760355889797210693359375">
        <ele>949.4000244140625</ele>
        <time>2026-08-22T01:16:11.000Z</time>
        <extensions>
          <ns3:TrackPointExtension>
            <ns3:hr>140</ns3:hr>
            <ns3:cad>0</ns3:cad>
          </ns3:TrackPointExtension>
        </extensions>
      </trkpt>
      <trkpt lat="45.2718051709234714508056640625" lon="-71.11708047799766063690185546875">
        <ele>949.5999755859375</ele>
        <time>2026-08-22T01:16:12.000Z</time>
        <extensions>
          <ns3:TrackPointExtension>
            <ns3:hr>140</ns3:hr>
            <ns3:cad>0</ns3:cad>
          </ns3:TrackPointExtension>
        </extensions>
      </trkpt>
      <trkpt lat="45.271800644695758819580078125" lon="-71.1170716769993305206298828125">
        <ele>949.79998779296875</ele>
        <time>2026-08-22T01:16:13.000Z</time>
        <extensions>
          <ns3:TrackPointExtension>
            <ns3:hr>140</ns3:hr>
            <ns3:cad>0</ns3:cad>
          </ns3:TrackPointExtension>
        </extensions>
      </trkpt>
      <trkpt lat="45.271800644695758819580078125" lon="-71.11706949770450592041015625">
        <ele>950</ele>
        <time>2026-08-22T01:16:14.000Z</time>
        <extensions>
          <ns3:TrackPointExtension>
            <ns3:hr>140</ns3:hr>
            <ns3:cad>0</ns3:cad>
          </ns3:TrackPointExtension>
        </extensions>
      </trkpt>
      <trkpt lat="45.27180274017155170440673828125" lon="-71.11707276664674282073974609375">
        <ele>950.4000244140625</ele>
        <time>2026-08-22T01:16:15.000Z</time>
        <extensions>
          <ns3:TrackPointExtension>
            <ns3:hr>140</ns3:hr>
            <ns3:cad>0</ns3:cad>
          </ns3:TrackPointExtension>
        </extensions>
      </trkpt>
      <trkpt lat="45.27179838158190250396728515625" lon="-71.11706145107746124267578125">
        <ele>950.5999755859375</ele>
        <time>2026-08-22T01:16:16.000Z</time>
        <extensions>
          <ns3:TrackPointExtension>
            <ns3:hr>140</ns3:hr>
            <ns3:cad>0</ns3:cad>
          </ns3:TrackPointExtension>
        </extensions>
      </trkpt>
      <trkpt lat="45.27179653756320476531982421875" lon="-71.11705935560166835784912109375">
        <ele>950.79998779296875</ele>
        <time>2026-08-22T01:16:17.000Z</time>
        <extensions>
          <ns3:TrackPointExtension>
            <ns3:hr>139</ns3:hr>
            <ns3:cad>0</ns3:cad>
          </ns3:TrackPointExtension>
        </extensions>
      </trkpt>
      <trkpt lat="45.27179586701095104217529296875" lon="-71.1170555837452411651611328125">
        <ele>951</ele>
        <time>2026-08-22T01:16:18.000Z</time>
        <extensions>
          <ns3:TrackPointExtension>
            <ns3:hr>139</ns3:hr>
            <ns3:cad>0</ns3:cad>
          </ns3:TrackPointExtension>
        </extensions>
      </trkpt>
      <trkpt lat="45.2717949450016021728515625" lon="-71.11705005168914794921875">
        <ele>951.4000244140625</ele>
        <time>2026-08-22T01:16:19.000Z</time>
        <extensions>
          <ns3:TrackPointExtension>
            <ns3:hr>139</ns3:hr>
            <ns3:cad>0</ns3:cad>
          </ns3:TrackPointExtension>
        </extensions>
      </trkpt>
      <trkpt lat="45.27179452590644359588623046875" lon="-71.1170431785285472869873046875">
        <ele>951.5999755859375</ele>
        <time>2026-08-22T01:16:20.000Z</time>
        <extensions>
          <ns3:TrackPointExtension>
            <ns3:hr>139</ns3:hr>
            <ns3:cad>0</ns3:cad>
          </ns3:TrackPointExtension>
        </extensions>
      </trkpt>
      <trkpt lat="45.27179419063031673431396484375" lon="-71.11704242415726184844970703125">
        <ele>951.79998779296875</ele>
        <time>2026-08-22T01:16:21.000Z</time>
        <extensions>
          <ns3:TrackPointExtension>
            <ns3:hr>139</ns3:hr>
            <ns3:cad>0</ns3:cad>
          </ns3:TrackPointExtension>
        </extensions>
      </trkpt>
      <trkpt lat="45.271793268620967864990234375" lon="-71.11703588627278804779052734375">
        <ele>952</ele>
        <time>2026-08-22T01:16:22.000Z</time>
        <extensions>
          <ns3:TrackPointExtension>
            <ns3:hr>138</ns3:hr>
            <ns3:cad>0</ns3:cad>
          </ns3:TrackPointExtension>
        </extensions>
      </trkpt>
      <trkpt lat="45.27179620228707790374755859375" lon="-71.11703555099666118621826171875">
        <ele>952.20001220703125</ele>
        <time>2026-08-22T01:16:23.000Z</time>
        <extensions>
          <ns3:TrackPointExtension>
            <ns3:hr>138</ns3:hr>
            <ns3:cad>0</ns3:cad>
          </ns3:TrackPointExtension>
        </extensions>
      </trkpt>
      <trkpt lat="45.27179695665836334228515625" lon="-71.11703169532120227813720703125">
        <ele>952.4000244140625</ele>
        <time>2026-08-22T01:16:24.000Z</time>
        <extensions>
          <ns3:TrackPointExtension>
            <ns3:hr>138</ns3:hr>
            <ns3:cad>0</ns3:cad>
          </ns3:TrackPointExtension>
        </extensions>
      </trkpt>
      <trkpt lat="45.27179905213415622711181640625" lon="-71.117026247084140777587890625">
        <ele>952.5999755859375</ele>
        <time>2026-08-22T01:16:25.000Z</time>
        <extensions>
          <ns3:TrackPointExtension>
            <ns3:hr>138</ns3:hr>
            <ns3:cad>0</ns3:cad>
          </ns3:TrackPointExtension>
        </extensions>
      </trkpt>
      <trkpt lat="45.271799303591251373291015625" lon="-71.11701853573322296142578125">
        <ele>952.79998779296875</ele>
        <time>2026-08-22T01:16:26.000Z</time>
        <extensions>
          <ns3:TrackPointExtension>
            <ns3:hr>139</ns3:hr>
            <ns3:cad>0</ns3:cad>
          </ns3:TrackPointExtension>
        </extensions>
      </trkpt>
      <trkpt lat="45.27180039323866367340087890625" lon="-71.1170109920203685760498046875">
        <ele>953</ele>
        <time>2026-08-22T01:16:27.000Z</time>
        <extensions>
          <ns3:TrackPointExtension>
            <ns3:hr>139</ns3:hr>
            <ns3:cad>0</ns3:cad>
          </ns3:TrackPointExtension>
        </extensions>
      </trkpt>
      <trkpt lat="45.27180223725736141204833984375" lon="-71.11699883826076984405517578125">
        <ele>953.20001220703125</ele>
        <time>2026-08-22T01:16:28.000Z</time>
        <extensions>
          <ns3:TrackPointExtension>
            <ns3:hr>138</ns3:hr>
            <ns3:cad>75</ns3:cad>
          </ns3:TrackPointExtension>
        </extensions>
      </trkpt>
      <trkpt lat="45.2718068473041057586669921875" lon="-71.1169845052063465118408203125">
        <ele>953.20001220703125</ele>
        <time>2026-08-22T01:16:29.000Z</time>
        <extensions>
          <ns3:TrackPointExtension>
            <ns3:hr>138</ns3:hr>
            <ns3:cad>75</ns3:cad>
          </ns3:TrackPointExtension>
        </extensions>
      </trkpt>
      <trkpt lat="45.2718095295131206512451171875" lon="-71.11696665175259113311767578125">
        <ele>953.4000244140625</ele>
        <time>2026-08-22T01:16:30.000Z</time>
        <extensions>
          <ns3:TrackPointExtension>
            <ns3:hr>138</ns3:hr>
            <ns3:cad>75</ns3:cad>
          </ns3:TrackPointExtension>
        </extensions>
      </trkpt>
      <trkpt lat="45.2718122117221355438232421875" lon="-71.1169563420116901397705078125">
        <ele>953.5999755859375</ele>
        <time>2026-08-22T01:16:31.000Z</time>
        <extensions>
          <ns3:TrackPointExtension>
            <ns3:hr>138</ns3:hr>
            <ns3:cad>75</ns3:cad>
          </ns3:TrackPointExtension>
        </extensions>
      </trkpt>
      <trkpt lat="45.271815396845340728759765625" lon="-71.11694276332855224609375">
        <ele>953.79998779296875</ele>
        <time>2026-08-22T01:16:32.000Z</time>
        <extensions>
          <ns3:TrackPointExtension>
            <ns3:hr>138</ns3:hr>
            <ns3:cad>75</ns3:cad>
          </ns3:TrackPointExtension>
        </extensions>
      </trkpt>
      <trkpt lat="45.27181531302630901336669921875" lon="-71.11693412996828556060791015625">
        <ele>954</ele>
        <time>2026-08-22T01:16:33.000Z</time>
        <extensions>
          <ns3:TrackPointExtension>
            <ns3:hr>138</ns3:hr>
            <ns3:cad>75</ns3:cad>
          </ns3:TrackPointExtension>
        </extensions>
      </trkpt>
      <trkpt lat="45.271810032427310943603515625" lon="-71.11691870726644992828369140625">
        <ele>954.20001220703125</ele>
        <time>2026-08-22T01:16:34.000Z</time>
        <extensions>
          <ns3:TrackPointExtension>
            <ns3:hr>139</ns3:hr>
            <ns3:cad>46</ns3:cad>
          </ns3:TrackPointExtension>
        </extensions>
      </trkpt>
      <trkpt lat="45.271808691322803497314453125" lon="-71.11691636033356189727783203125">
        <ele>954.4000244140625</ele>
        <time>2026-08-22T01:16:35.000Z</time>
        <extensions>
          <ns3:TrackPointExtension>
            <ns3:hr>139</ns3:hr>
            <ns3:cad>41</ns3:cad>
          </ns3:TrackPointExtension>
        </extensions>
      </trkpt>
      <trkpt lat="45.27180676348507404327392578125" lon="-71.116903536021709442138671875">
        <ele>954.5999755859375</ele>
        <time>2026-08-22T01:16:36.000Z</time>
        <extensions>
          <ns3:TrackPointExtension>
            <ns3:hr>140</ns3:hr>
            <ns3:cad>41</ns3:cad>
          </ns3:TrackPointExtension>
        </extensions>
      </trkpt>
      <trkpt lat="45.27180860750377178192138671875" lon="-71.11689892597496509552001953125">
        <ele>955</ele>
        <time>2026-08-22T01:16:37.000Z</time>
        <extensions>
          <ns3:TrackPointExtension>
            <ns3:hr>140</ns3:hr>
            <ns3:cad>0</ns3:cad>
          </ns3:TrackPointExtension>
        </extensions>
      </trkpt>
      <trkpt lat="45.27180902659893035888671875" lon="-71.11688735894858837127685546875">
        <ele>955.20001220703125</ele>
        <time>2026-08-22T01:16:38.000Z</time>
        <extensions>
          <ns3:TrackPointExtension>
            <ns3:hr>140</ns3:hr>
            <ns3:cad>0</ns3:cad>
          </ns3:TrackPointExtension>
        </extensions>
      </trkpt>
      <trkpt lat="45.27180726639926433563232421875" lon="-71.11687771975994110107421875">
        <ele>955.4000244140625</ele>
        <time>2026-08-22T01:16:39.000Z</time>
        <extensions>
          <ns3:TrackPointExtension>
            <ns3:hr>139</ns3:hr>
            <ns3:cad>0</ns3:cad>
          </ns3:TrackPointExtension>
        </extensions>
      </trkpt>
      <trkpt lat="45.271810702979564666748046875" lon="-71.11686556600034236907958984375">
        <ele>955.5999755859375</ele>
        <time>2026-08-22T01:16:40.000Z</time>
        <extensions>
          <ns3:TrackPointExtension>
            <ns3:hr>139</ns3:hr>
            <ns3:cad>0</ns3:cad>
          </ns3:TrackPointExtension>
        </extensions>
      </trkpt>
      <trkpt lat="45.271813385188579559326171875" lon="-71.11685483716428279876708984375">
        <ele>955.79998779296875</ele>
        <time>2026-08-22T01:16:41.000Z</time>
        <extensions>
          <ns3:TrackPointExtension>
            <ns3:hr>139</ns3:hr>
            <ns3:cad>0</ns3:cad>
          </ns3:TrackPointExtension>
        </extensions>
      </trkpt>
      <trkpt lat="45.2718164026737213134765625" lon="-71.1168463714420795440673828125">
        <ele>956</ele>
        <time>2026-08-22T01:16:42.000Z</time>
        <extensions>
          <ns3:TrackPointExtension>
            <ns3:hr>140</ns3:hr>
            <ns3:cad>0</ns3:cad>
          </ns3:TrackPointExtension>
        </extensions>
      </trkpt>
      <trkpt lat="45.27181933633983135223388671875" lon="-71.11683421768248081207275390625">
        <ele>956.20001220703125</ele>
        <time>2026-08-22T01:16:43.000Z</time>
        <extensions>
          <ns3:TrackPointExtension>
            <ns3:hr>140</ns3:hr>
            <ns3:cad>0</ns3:cad>
          </ns3:TrackPointExtension>
        </extensions>
      </trkpt>
      <trkpt lat="45.2718212641775608062744140625" lon="-71.11682248301804065704345703125">
        <ele>956.4000244140625</ele>
        <time>2026-08-22T01:16:44.000Z</time>
        <extensions>
          <ns3:TrackPointExtension>
            <ns3:hr>140</ns3:hr>
            <ns3:cad>0</ns3:cad>
          </ns3:TrackPointExtension>
        </extensions>
      </trkpt>
      <trkpt lat="45.271818749606609344482421875" lon="-71.1168168671429157257080078125">
        <ele>956.5999755859375</ele>
        <time>2026-08-22T01:16:45.000Z</time>
        <extensions>
          <ns3:TrackPointExtension>
            <ns3:hr>141</ns3:hr>
            <ns3:cad>0</ns3:cad>
          </ns3:TrackPointExtension>
        </extensions>
      </trkpt>
      <trkpt lat="45.27181346900761127471923828125" lon="-71.11680127680301666259765625">
        <ele>956.5999755859375</ele>
        <time>2026-08-22T01:16:46.000Z</time>
        <extensions>
          <ns3:TrackPointExtension>
            <ns3:hr>143</ns3:hr>
            <ns3:cad>42</ns3:cad>
          </ns3:TrackPointExtension>
        </extensions>
      </trkpt>
      <trkpt lat="45.27180877514183521270751953125" lon="-71.11678292043507099151611328125">
        <ele>956.79998779296875</ele>
        <time>2026-08-22T01:16:47.000Z</time>
        <extensions>
          <ns3:TrackPointExtension>
            <ns3:hr>143</ns3:hr>
            <ns3:cad>42</ns3:cad>
          </ns3:TrackPointExtension>
        </extensions>
      </trkpt>
      <trkpt lat="45.271807014942169189453125" lon="-71.116772778332233428955078125">
        <ele>957</ele>
        <time>2026-08-22T01:16:48.000Z</time>
        <extensions>
          <ns3:TrackPointExtension>
            <ns3:hr>143</ns3:hr>
            <ns3:cad>42</ns3:cad>
          </ns3:TrackPointExtension>
        </extensions>
      </trkpt>
      <trkpt lat="45.2718068473041057586669921875" lon="-71.11676934175193309783935546875">
        <ele>957.20001220703125</ele>
        <time>2026-08-22T01:16:49.000Z</time>
        <extensions>
          <ns3:TrackPointExtension>
            <ns3:hr>142</ns3:hr>
            <ns3:cad>44</ns3:cad>
          </ns3:TrackPointExtension>
        </extensions>
      </trkpt>
      <trkpt lat="45.27180491946637630462646484375" lon="-71.1167590320110321044921875">
        <ele>957.4000244140625</ele>
        <time>2026-08-22T01:16:50.000Z</time>
        <extensions>
          <ns3:TrackPointExtension>
            <ns3:hr>141</ns3:hr>
            <ns3:cad>44</ns3:cad>
          </ns3:TrackPointExtension>
        </extensions>
      </trkpt>
      <trkpt lat="45.27180391363799571990966796875" lon="-71.1167531646788120269775390625">
        <ele>957.5999755859375</ele>
        <time>2026-08-22T01:16:51.000Z</time>
        <extensions>
          <ns3:TrackPointExtension>
            <ns3:hr>141</ns3:hr>
            <ns3:cad>44</ns3:cad>
          </ns3:TrackPointExtension>
        </extensions>
      </trkpt>
      <trkpt lat="45.27180290780961513519287109375" lon="-71.11674671061336994171142578125">
        <ele>957.79998779296875</ele>
        <time>2026-08-22T01:16:52.000Z</time>
        <extensions>
          <ns3:TrackPointExtension>
            <ns3:hr>142</ns3:hr>
            <ns3:cad>44</ns3:cad>
          </ns3:TrackPointExtension>
        </extensions>
      </trkpt>
      <trkpt lat="45.2718021534383296966552734375" lon="-71.11674503423273563385009765625">
        <ele>958.20001220703125</ele>
        <time>2026-08-22T01:16:53.000Z</time>
        <extensions>
          <ns3:TrackPointExtension>
            <ns3:hr>142</ns3:hr>
            <ns3:cad>0</ns3:cad>
          </ns3:TrackPointExtension>
        </extensions>
      </trkpt>
      <trkpt lat="45.271797291934490203857421875" lon="-71.116737909615039825439453125">
        <ele>958.4000244140625</ele>
        <time>2026-08-22T01:16:54.000Z</time>
        <extensions>
          <ns3:TrackPointExtension>
            <ns3:hr>142</ns3:hr>
            <ns3:cad>0</ns3:cad>
          </ns3:TrackPointExtension>
        </extensions>
      </trkpt>
      <trkpt lat="45.2718003094196319580078125" lon="-71.11673363484442234039306640625">
        <ele>958.5999755859375</ele>
        <time>2026-08-22T01:16:55.000Z</time>
        <extensions>
          <ns3:TrackPointExtension>
            <ns3:hr>142</ns3:hr>
            <ns3:cad>0</ns3:cad>
          </ns3:TrackPointExtension>
        </extensions>
      </trkpt>
      <trkpt lat="45.27180357836186885833740234375" lon="-71.11672483384609222412109375">
        <ele>958.79998779296875</ele>
        <time>2026-08-22T01:16:56.000Z</time>
        <extensions>
          <ns3:TrackPointExtension>
            <ns3:hr>142</ns3:hr>
            <ns3:cad>0</ns3:cad>
          </ns3:TrackPointExtension>
        </extensions>
      </trkpt>
      <trkpt lat="45.27180290780961513519287109375" lon="-71.116715110838413238525390625">
        <ele>959</ele>
        <time>2026-08-22T01:16:57.000Z</time>
        <extensions>
          <ns3:TrackPointExtension>
            <ns3:hr>141</ns3:hr>
            <ns3:cad>0</ns3:cad>
          </ns3:TrackPointExtension>
        </extensions>
      </trkpt>
      <trkpt lat="45.2718001417815685272216796875" lon="-71.11669876612722873687744140625">
        <ele>959</ele>
        <time>2026-08-22T01:16:58.000Z</time>
        <extensions>
          <ns3:TrackPointExtension>
            <ns3:hr>142</ns3:hr>
            <ns3:cad>0</ns3:cad>
          </ns3:TrackPointExtension>
        </extensions>
      </trkpt>
      <trkpt lat="45.27179787866771221160888671875" lon="-71.11668971367180347442626953125">
        <ele>959.20001220703125</ele>
        <time>2026-08-22T01:16:59.000Z</time>
        <extensions>
          <ns3:TrackPointExtension>
            <ns3:hr>142</ns3:hr>
            <ns3:cad>0</ns3:cad>
          </ns3:TrackPointExtension>
        </extensions>
      </trkpt>
      <trkpt lat="45.27179427444934844970703125" lon="-71.1166797392070293426513671875">
        <ele>959.20001220703125</ele>
        <time>2026-08-22T01:17:00.000Z</time>
        <extensions>
          <ns3:TrackPointExtension>
            <ns3:hr>142</ns3:hr>
            <ns3:cad>0</ns3:cad>
          </ns3:TrackPointExtension>
        </extensions>
      </trkpt>
      <trkpt lat="45.271796621382236480712890625" lon="-71.11666775308549404144287109375">
        <ele>959.4000244140625</ele>
        <time>2026-08-22T01:17:01.000Z</time>
        <extensions>
          <ns3:TrackPointExtension>
            <ns3:hr>142</ns3:hr>
            <ns3:cad>0</ns3:cad>
          </ns3:TrackPointExtension>
        </extensions>
      </trkpt>
      <trkpt lat="45.271796621382236480712890625" lon="-71.11666490323841571807861328125">
        <ele>959.5999755859375</ele>
        <time>2026-08-22T01:17:02.000Z</time>
        <extensions>
          <ns3:TrackPointExtension>
            <ns3:hr>141</ns3:hr>
            <ns3:cad>0</ns3:cad>
          </ns3:TrackPointExtension>
        </extensions>
      </trkpt>
      <trkpt lat="45.271795950829982757568359375" lon="-71.1166562698781490325927734375">
        <ele>959.79998779296875</ele>
        <time>2026-08-22T01:17:03.000Z</time>
        <extensions>
          <ns3:TrackPointExtension>
            <ns3:hr>141</ns3:hr>
            <ns3:cad>0</ns3:cad>
          </ns3:TrackPointExtension>
        </extensions>
      </trkpt>
      <trkpt lat="45.27179486118257045745849609375" lon="-71.1166549287736415863037109375">
        <ele>960</ele>
        <time>2026-08-22T01:17:04.000Z</time>
        <extensions>
          <ns3:TrackPointExtension>
            <ns3:hr>140</ns3:hr>
            <ns3:cad>0</ns3:cad>
          </ns3:TrackPointExtension>
        </extensions>
      </trkpt>
      <trkpt lat="45.2717937715351581573486328125" lon="-71.1166468821465969085693359375">
        <ele>960.20001220703125</ele>
        <time>2026-08-22T01:17:05.000Z</time>
        <extensions>
          <ns3:TrackPointExtension>
            <ns3:hr>140</ns3:hr>
            <ns3:cad>0</ns3:cad>
          </ns3:TrackPointExtension>
        </extensions>
      </trkpt>
      <trkpt lat="45.27179419063031673431396484375" lon="-71.11664394848048686981201171875">
        <ele>960.4000244140625</ele>
        <time>2026-08-22T01:17:06.000Z</time>
        <extensions>
          <ns3:TrackPointExtension>
            <ns3:hr>140</ns3:hr>
            <ns3:cad>0</ns3:cad>
          </ns3:TrackPointExtension>
        </extensions>
      </trkpt>
      <trkpt lat="45.27179561555385589599609375" lon="-71.1166348122060298919677734375">
        <ele>960.5999755859375</ele>
        <time>2026-08-22T01:17:07.000Z</time>
        <extensions>
          <ns3:TrackPointExtension>
            <ns3:hr>141</ns3:hr>
            <ns3:cad>0</ns3:cad>
          </ns3:TrackPointExtension>
        </extensions>
      </trkpt>
      <trkpt lat="45.271793939173221588134765625" lon="-71.1166321299970149993896484375">
        <ele>960.79998779296875</ele>
        <time>2026-08-22T01:17:08.000Z</time>
        <extensions>
          <ns3:TrackPointExtension>
            <ns3:hr>140</ns3:hr>
            <ns3:cad>0</ns3:cad>
          </ns3:TrackPointExtension>
        </extensions>
      </trkpt>
      <trkpt lat="45.27178999967873096466064453125" lon="-71.1166222393512725830078125">
        <ele>961</ele>
        <time>2026-08-22T01:17:09.000Z</time>
        <extensions>
          <ns3:TrackPointExtension>
            <ns3:hr>140</ns3:hr>
            <ns3:cad>0</ns3:cad>
          </ns3:TrackPointExtension>
        </extensions>
      </trkpt>
      <trkpt lat="45.271785221993923187255859375" lon="-71.11661427654325962066650390625">
        <ele>961.20001220703125</ele>
        <time>2026-08-22T01:17:10.000Z</time>
        <extensions>
          <ns3:TrackPointExtension>
            <ns3:hr>140</ns3:hr>
            <ns3:cad>0</ns3:cad>
          </ns3:TrackPointExtension>
        </extensions>
      </trkpt>
      <trkpt lat="45.271781869232654571533203125" lon="-71.11661025322973728179931640625">
        <ele>961.4000244140625</ele>
        <time>2026-08-22T01:17:11.000Z</time>
        <extensions>
          <ns3:TrackPointExtension>
            <ns3:hr>140</ns3:hr>
            <ns3:cad>0</ns3:cad>
          </ns3:TrackPointExtension>
        </extensions>
      </trkpt>
      <trkpt lat="45.27177541516721248626708984375" lon="-71.11660413444042205810546875">
        <ele>961.5999755859375</ele>
        <time>2026-08-22T01:17:12.000Z</time>
        <extensions>
          <ns3:TrackPointExtension>
            <ns3:hr>140</ns3:hr>
            <ns3:cad>75</ns3:cad>
          </ns3:TrackPointExtension>
        </extensions>
      </trkpt>
      <trkpt lat="45.27176988311111927032470703125" lon="-71.11660011112689971923828125">
        <ele>961.79998779296875</ele>
        <time>2026-08-22T01:17:13.000Z</time>
        <extensions>
          <ns3:TrackPointExtension>
            <ns3:hr>140</ns3:hr>
            <ns3:cad>75</ns3:cad>
          </ns3:TrackPointExtension>
        </extensions>
      </trkpt>
      <trkpt lat="45.2717656083405017852783203125" lon="-71.11659734509885311126708984375">
        <ele>962</ele>
        <time>2026-08-22T01:17:14.000Z</time>
        <extensions>
          <ns3:TrackPointExtension>
            <ns3:hr>140</ns3:hr>
            <ns3:cad>75</ns3:cad>
          </ns3:TrackPointExtension>
        </extensions>
      </trkpt>
      <trkpt lat="45.2717582322657108306884765625" lon="-71.11659550108015537261962890625">
        <ele>962.20001220703125</ele>
        <time>2026-08-22T01:17:15.000Z</time>
        <extensions>
          <ns3:TrackPointExtension>
            <ns3:hr>139</ns3:hr>
            <ns3:cad>0</ns3:cad>
          </ns3:TrackPointExtension>
        </extensions>
      </trkpt>
      <trkpt lat="45.2717508561909198760986328125" lon="-71.11659474670886993408203125">
        <ele>962.4000244140625</ele>
        <time>2026-08-22T01:17:16.000Z</time>
        <extensions>
          <ns3:TrackPointExtension>
            <ns3:hr>139</ns3:hr>
            <ns3:cad>0</ns3:cad>
          </ns3:TrackPointExtension>
        </extensions>
      </trkpt>
      <trkpt lat="45.2717491798102855682373046875" lon="-71.1165925674140453338623046875">
        <ele>962.5999755859375</ele>
        <time>2026-08-22T01:17:17.000Z</time>
        <extensions>
          <ns3:TrackPointExtension>
            <ns3:hr>139</ns3:hr>
            <ns3:cad>0</ns3:cad>
          </ns3:TrackPointExtension>
        </extensions>
      </trkpt>
      <trkpt lat="45.27174532413482666015625" lon="-71.1165949143469333648681640625">
        <ele>962.79998779296875</ele>
        <time>2026-08-22T01:17:18.000Z</time>
        <extensions>
          <ns3:TrackPointExtension>
            <ns3:hr>139</ns3:hr>
            <ns3:cad>0</ns3:cad>
          </ns3:TrackPointExtension>
        </extensions>
      </trkpt>
      <trkpt lat="45.271735601127147674560546875" lon="-71.1165980994701385498046875">
        <ele>963</ele>
        <time>2026-08-22T01:17:19.000Z</time>
        <extensions>
          <ns3:TrackPointExtension>
            <ns3:hr>139</ns3:hr>
            <ns3:cad>0</ns3:cad>
          </ns3:TrackPointExtension>
        </extensions>
      </trkpt>
      <trkpt lat="45.27173518203198909759521484375" lon="-71.11659818328917026519775390625">
        <ele>963.20001220703125</ele>
        <time>2026-08-22T01:17:20.000Z</time>
        <extensions>
          <ns3:TrackPointExtension>
            <ns3:hr>139</ns3:hr>
            <ns3:cad>0</ns3:cad>
          </ns3:TrackPointExtension>
        </extensions>
      </trkpt>
      <trkpt lat="45.27173258364200592041015625" lon="-71.116597764194011688232421875">
        <ele>963.4000244140625</ele>
        <time>2026-08-22T01:17:21.000Z</time>
        <extensions>
          <ns3:TrackPointExtension>
            <ns3:hr>139</ns3:hr>
            <ns3:cad>0</ns3:cad>
          </ns3:TrackPointExtension>
        </extensions>
      </trkpt>
      <trkpt lat="45.27173249982297420501708984375" lon="-71.11658879555761814117431640625">
        <ele>963.5999755859375</ele>
        <time>2026-08-22T01:17:22.000Z</time>
        <extensions>
          <ns3:TrackPointExtension>
            <ns3:hr>139</ns3:hr>
            <ns3:cad>0</ns3:cad>
          </ns3:TrackPointExtension>
        </extensions>
      </trkpt>
      <trkpt lat="45.271732248365879058837890625" lon="-71.1165815033018589019775390625">
        <ele>963.79998779296875</ele>
        <time>2026-08-22T01:17:23.000Z</time>
        <extensions>
          <ns3:TrackPointExtension>
            <ns3:hr>138</ns3:hr>
            <ns3:cad>0</ns3:cad>
          </ns3:TrackPointExtension>
        </extensions>
      </trkpt>
      <trkpt lat="45.271731913089752197265625" lon="-71.1165791563689708709716796875">
        <ele>964</ele>
        <time>2026-08-22T01:17:24.000Z</time>
        <extensions>
          <ns3:TrackPointExtension>
            <ns3:hr>138</ns3:hr>
            <ns3:cad>0</ns3:cad>
          </ns3:TrackPointExtension>
        </extensions>
      </trkpt>
      <trkpt lat="45.271734260022640228271484375" lon="-71.116583347320556640625">
        <ele>964.20001220703125</ele>
        <time>2026-08-22T01:17:25.000Z</time>
        <extensions>
          <ns3:TrackPointExtension>
            <ns3:hr>137</ns3:hr>
            <ns3:cad>0</ns3:cad>
          </ns3:TrackPointExtension>
        </extensions>
      </trkpt>
      <trkpt lat="45.27173350565135478973388671875" lon="-71.11658913083374500274658203125">
        <ele>964.5999755859375</ele>
        <time>2026-08-22T01:17:26.000Z</time>
        <extensions>
          <ns3:TrackPointExtension>
            <ns3:hr>137</ns3:hr>
            <ns3:cad>0</ns3:cad>
          </ns3:TrackPointExtension>
        </extensions>
      </trkpt>
      <trkpt lat="45.27173350565135478973388671875" lon="-71.11657991074025630950927734375">
        <ele>964.79998779296875</ele>
        <time>2026-08-22T01:17:27.000Z</time>
        <extensions>
          <ns3:TrackPointExtension>
            <ns3:hr>139</ns3:hr>
            <ns3:cad>0</ns3:cad>
          </ns3:TrackPointExtension>
        </extensions>
      </trkpt>
      <trkpt lat="45.2717304043471813201904296875" lon="-71.11657370813190937042236328125">
        <ele>965</ele>
        <time>2026-08-22T01:17:28.000Z</time>
        <extensions>
          <ns3:TrackPointExtension>
            <ns3:hr>139</ns3:hr>
            <ns3:cad>0</ns3:cad>
          </ns3:TrackPointExtension>
        </extensions>
      </trkpt>
      <trkpt lat="45.2717260457575321197509765625" lon="-71.11656046472489833831787109375">
        <ele>965</ele>
        <time>2026-08-22T01:17:29.000Z</time>
        <extensions>
          <ns3:TrackPointExtension>
            <ns3:hr>140</ns3:hr>
            <ns3:cad>0</ns3:cad>
          </ns3:TrackPointExtension>
        </extensions>
      </trkpt>
      <trkpt lat="45.27172143571078777313232421875" lon="-71.1165617220103740692138671875">
        <ele>965.20001220703125</ele>
        <time>2026-08-22T01:17:30.000Z</time>
        <extensions>
          <ns3:TrackPointExtension>
            <ns3:hr>139</ns3:hr>
            <ns3:cad>0</ns3:cad>
          </ns3:TrackPointExtension>
        </extensions>
      </trkpt>
      <trkpt lat="45.27171774767339229583740234375" lon="-71.11655275337398052215576171875">
        <ele>965.4000244140625</ele>
        <time>2026-08-22T01:17:31.000Z</time>
        <extensions>
          <ns3:TrackPointExtension>
            <ns3:hr>139</ns3:hr>
            <ns3:cad>0</ns3:cad>
          </ns3:TrackPointExtension>
        </extensions>
      </trkpt>
      <trkpt lat="45.2717126347124576568603515625" lon="-71.116553507745265960693359375">
        <ele>965.5999755859375</ele>
        <time>2026-08-22T01:17:32.000Z</time>
        <extensions>
          <ns3:TrackPointExtension>
            <ns3:hr>140</ns3:hr>
            <ns3:cad>0</ns3:cad>
          </ns3:TrackPointExtension>
        </extensions>
      </trkpt>
      <trkpt lat="45.27170844376087188720703125" lon="-71.11655459739267826080322265625">
        <ele>966</ele>
        <time>2026-08-22T01:17:33.000Z</time>
        <extensions>
          <ns3:TrackPointExtension>
            <ns3:hr>140</ns3:hr>
            <ns3:cad>0</ns3:cad>
          </ns3:TrackPointExtension>
        </extensions>
      </trkpt>
      <trkpt lat="45.2716988883912563323974609375" lon="-71.1165519990026950836181640625">
        <ele>966.20001220703125</ele>
        <time>2026-08-22T01:17:34.000Z</time>
        <extensions>
          <ns3:TrackPointExtension>
            <ns3:hr>140</ns3:hr>
            <ns3:cad>0</ns3:cad>
          </ns3:TrackPointExtension>
        </extensions>
      </trkpt>
      <trkpt lat="45.271684639155864715576171875" lon="-71.11654604785144329071044921875">
        <ele>966.4000244140625</ele>
        <time>2026-08-22T01:17:35.000Z</time>
        <extensions>
          <ns3:TrackPointExtension>
            <ns3:hr>140</ns3:hr>
            <ns3:cad>0</ns3:cad>
          </ns3:TrackPointExtension>
        </extensions>
      </trkpt>
      <trkpt lat="45.27167919091880321502685546875" lon="-71.11654537729918956756591796875">
        <ele>966.79998779296875</ele>
        <time>2026-08-22T01:17:36.000Z</time>
        <extensions>
          <ns3:TrackPointExtension>
            <ns3:hr>140</ns3:hr>
            <ns3:cad>0</ns3:cad>
          </ns3:TrackPointExtension>
        </extensions>
      </trkpt>
      <trkpt lat="45.27167382650077342987060546875" lon="-71.11654755659401416778564453125">
        <ele>967</ele>
        <time>2026-08-22T01:17:37.000Z</time>
        <extensions>
          <ns3:TrackPointExtension>
            <ns3:hr>140</ns3:hr>
            <ns3:cad>0</ns3:cad>
          </ns3:TrackPointExtension>
        </extensions>
      </trkpt>
      <trkpt lat="45.271656811237335205078125" lon="-71.11654914915561676025390625">
        <ele>967</ele>
        <time>2026-08-22T01:17:38.000Z</time>
        <extensions>
          <ns3:TrackPointExtension>
            <ns3:hr>140</ns3:hr>
            <ns3:cad>0</ns3:cad>
          </ns3:TrackPointExtension>
        </extensions>
      </trkpt>
      <trkpt lat="45.271649099886417388916015625" lon="-71.11654805950820446014404296875">
        <ele>967.20001220703125</ele>
        <time>2026-08-22T01:17:39.000Z</time>
        <extensions>
          <ns3:TrackPointExtension>
            <ns3:hr>140</ns3:hr>
            <ns3:cad>0</ns3:cad>
          </ns3:TrackPointExtension>
        </extensions>
      </trkpt>
      <trkpt lat="45.2716361917555332183837890625" lon="-71.11655074171721935272216796875">
        <ele>967.20001220703125</ele>
        <time>2026-08-22T01:17:40.000Z</time>
        <extensions>
          <ns3:TrackPointExtension>
            <ns3:hr>140</ns3:hr>
            <ns3:cad>0</ns3:cad>
          </ns3:TrackPointExtension>
        </extensions>
      </trkpt>
      <trkpt lat="45.27162604965269565582275390625" lon="-71.11655744723975658416748046875">
        <ele>967.4000244140625</ele>
        <time>2026-08-22T01:17:41.000Z</time>
        <extensions>
          <ns3:TrackPointExtension>
            <ns3:hr>140</ns3:hr>
            <ns3:cad>41</ns3:cad>
          </ns3:TrackPointExtension>
        </extensions>
      </trkpt>
      <trkpt lat="45.27161347679793834686279296875" lon="-71.11656096763908863067626953125">
        <ele>967.5999755859375</ele>
        <time>2026-08-22T01:17:42.000Z</time>
        <extensions>
          <ns3:TrackPointExtension>
            <ns3:hr>140</ns3:hr>
            <ns3:cad>41</ns3:cad>
          </ns3:TrackPointExtension>
        </extensions>
      </trkpt>
      <trkpt lat="45.2715991437435150146484375" lon="-71.116564907133579254150390625">
        <ele>967.79998779296875</ele>
        <time>2026-08-22T01:17:43.000Z</time>
        <extensions>
          <ns3:TrackPointExtension>
            <ns3:hr>140</ns3:hr>
            <ns3:cad>41</ns3:cad>
          </ns3:TrackPointExtension>
        </extensions>
      </trkpt>
      <trkpt lat="45.27158749289810657501220703125" lon="-71.11657060682773590087890625">
        <ele>968</ele>
        <time>2026-08-22T01:17:44.000Z</time>
        <extensions>
          <ns3:TrackPointExtension>
            <ns3:hr>140</ns3:hr>
            <ns3:cad>41</ns3:cad>
          </ns3:TrackPointExtension>
        </extensions>
      </trkpt>
      <trkpt lat="45.27157877571880817413330078125" lon="-71.11657731235027313232421875">
        <ele>968</ele>
        <time>2026-08-22T01:17:45.000Z</time>
        <extensions>
          <ns3:TrackPointExtension>
            <ns3:hr>140</ns3:hr>
            <ns3:cad>41</ns3:cad>
          </ns3:TrackPointExtension>
        </extensions>
      </trkpt>
      <trkpt lat="45.27156888507306575775146484375" lon="-71.116582341492176055908203125">
        <ele>968.20001220703125</ele>
        <time>2026-08-22T01:17:46.000Z</time>
        <extensions>
          <ns3:TrackPointExtension>
            <ns3:hr>140</ns3:hr>
            <ns3:cad>45</ns3:cad>
          </ns3:TrackPointExtension>
        </extensions>
      </trkpt>
      <trkpt lat="45.27155865915119647979736328125" lon="-71.11658829264342784881591796875">
        <ele>968.4000244140625</ele>
        <time>2026-08-22T01:17:47.000Z</time>
        <extensions>
          <ns3:TrackPointExtension>
            <ns3:hr>141</ns3:hr>
            <ns3:cad>45</ns3:cad>
          </ns3:TrackPointExtension>
        </extensions>
      </trkpt>
      <trkpt lat="45.271549858152866363525390625" lon="-71.11659214831888675689697265625">
        <ele>968.4000244140625</ele>
        <time>2026-08-22T01:17:48.000Z</time>
        <extensions>
          <ns3:TrackPointExtension>
            <ns3:hr>141</ns3:hr>
            <ns3:cad>45</ns3:cad>
          </ns3:TrackPointExtension>
        </extensions>
      </trkpt>
      <trkpt lat="45.2715453319251537322998046875" lon="-71.116597093641757965087890625">
        <ele>968.4000244140625</ele>
        <time>2026-08-22T01:17:49.000Z</time>
        <extensions>
          <ns3:TrackPointExtension>
            <ns3:hr>141</ns3:hr>
            <ns3:cad>45</ns3:cad>
          </ns3:TrackPointExtension>
        </extensions>
      </trkpt>
      <trkpt lat="45.2715386264026165008544921875" lon="-71.11660086549818515777587890625">
        <ele>968.5999755859375</ele>
        <time>2026-08-22T01:17:50.000Z</time>
        <extensions>
          <ns3:TrackPointExtension>
            <ns3:hr>140</ns3:hr>
            <ns3:cad>45</ns3:cad>
          </ns3:TrackPointExtension>
        </extensions>
      </trkpt>
      <trkpt lat="45.2715315856039524078369140625" lon="-71.11660455353558063507080078125">
        <ele>968.5999755859375</ele>
        <time>2026-08-22T01:17:51.000Z</time>
        <extensions>
          <ns3:TrackPointExtension>
            <ns3:hr>141</ns3:hr>
            <ns3:cad>45</ns3:cad>
          </ns3:TrackPointExtension>
        </extensions>
      </trkpt>
      <trkpt lat="45.27152605354785919189453125" lon="-71.11660547554492950439453125">
        <ele>968.5999755859375</ele>
        <time>2026-08-22T01:17:52.000Z</time>
        <extensions>
          <ns3:TrackPointExtension>
            <ns3:hr>140</ns3:hr>
            <ns3:cad>45</ns3:cad>
          </ns3:TrackPointExtension>
        </extensions>
      </trkpt>
      <trkpt lat="45.27152010239660739898681640625" lon="-71.116603799164295196533203125">
        <ele>968.79998779296875</ele>
        <time>2026-08-22T01:17:53.000Z</time>
        <extensions>
          <ns3:TrackPointExtension>
            <ns3:hr>140</ns3:hr>
            <ns3:cad>45</ns3:cad>
          </ns3:TrackPointExtension>
        </extensions>
      </trkpt>
      <trkpt lat="45.271516330540180206298828125" lon="-71.11660405062139034271240234375">
        <ele>968.79998779296875</ele>
        <time>2026-08-22T01:17:54.000Z</time>
        <extensions>
          <ns3:TrackPointExtension>
            <ns3:hr>139</ns3:hr>
            <ns3:cad>45</ns3:cad>
          </ns3:TrackPointExtension>
        </extensions>
      </trkpt>
      <trkpt lat="45.27151255868375301361083984375" lon="-71.1166056431829929351806640625">
        <ele>969</ele>
        <time>2026-08-22T01:17:55.000Z</time>
        <extensions>
          <ns3:TrackPointExtension>
            <ns3:hr>139</ns3:hr>
            <ns3:cad>45</ns3:cad>
          </ns3:TrackPointExtension>
        </extensions>
      </trkpt>
      <trkpt lat="45.27150887064635753631591796875" lon="-71.11661083996295928955078125">
        <ele>969.20001220703125</ele>
        <time>2026-08-22T01:17:56.000Z</time>
        <extensions>
          <ns3:TrackPointExtension>
            <ns3:hr>138</ns3:hr>
            <ns3:cad>0</ns3:cad>
          </ns3:TrackPointExtension>
        </extensions>
      </trkpt>
      <trkpt lat="45.27150400914251804351806640625" lon="-71.11661494709551334381103515625">
        <ele>969.20001220703125</ele>
        <time>2026-08-22T01:17:57.000Z</time>
        <extensions>
          <ns3:TrackPointExtension>
            <ns3:hr>138</ns3:hr>
            <ns3:cad>0</ns3:cad>
          </ns3:TrackPointExtension>
        </extensions>
      </trkpt>
      <trkpt lat="45.27149914763867855072021484375" lon="-71.11661863513290882110595703125">
        <ele>969.4000244140625</ele>
        <time>2026-08-22T01:17:58.000Z</time>
        <extensions>
          <ns3:TrackPointExtension>
            <ns3:hr>137</ns3:hr>
            <ns3:cad>40</ns3:cad>
          </ns3:TrackPointExtension>
        </extensions>
      </trkpt>
      <trkpt lat="45.2714918553829193115234375" lon="-71.11662232317030429840087890625">
        <ele>969.4000244140625</ele>
        <time>2026-08-22T01:17:59.000Z</time>
        <extensions>
          <ns3:TrackPointExtension>
            <ns3:hr>137</ns3:hr>
            <ns3:cad>40</ns3:cad>
          </ns3:TrackPointExtension>
        </extensions>
      </trkpt>
      <trkpt lat="45.27148506604135036468505859375" lon="-71.116626597940921783447265625">
        <ele>969.5999755859375</ele>
        <time>2026-08-22T01:18:00.000Z</time>
        <extensions>
          <ns3:TrackPointExtension>
            <ns3:hr>138</ns3:hr>
            <ns3:cad>0</ns3:cad>
          </ns3:TrackPointExtension>
        </extensions>
      </trkpt>
      <trkpt lat="45.27147768996655941009521484375" lon="-71.11663497984409332275390625">
        <ele>969.5999755859375</ele>
        <time>2026-08-22T01:18:01.000Z</time>
        <extensions>
          <ns3:TrackPointExtension>
            <ns3:hr>138</ns3:hr>
            <ns3:cad>0</ns3:cad>
          </ns3:TrackPointExtension>
        </extensions>
      </trkpt>
      <trkpt lat="45.271470062434673309326171875" lon="-71.11664227209985256195068359375">
        <ele>969.5999755859375</ele>
        <time>2026-08-22T01:18:02.000Z</time>
        <extensions>
          <ns3:TrackPointExtension>
            <ns3:hr>138</ns3:hr>
            <ns3:cad>0</ns3:cad>
          </ns3:TrackPointExtension>
        </extensions>
      </trkpt>
      <trkpt lat="45.2714615128934383392333984375" lon="-71.11664763651788234710693359375">
        <ele>969.5999755859375</ele>
        <time>2026-08-22T01:18:03.000Z</time>
        <extensions>
          <ns3:TrackPointExtension>
            <ns3:hr>137</ns3:hr>
            <ns3:cad>0</ns3:cad>
          </ns3:TrackPointExtension>
        </extensions>
      </trkpt>
      <trkpt lat="45.27145455591380596160888671875" lon="-71.1166596226394176483154296875">
        <ele>969.5999755859375</ele>
        <time>2026-08-22T01:18:04.000Z</time>
        <extensions>
          <ns3:TrackPointExtension>
            <ns3:hr>137</ns3:hr>
            <ns3:cad>0</ns3:cad>
          </ns3:TrackPointExtension>
        </extensions>
      </trkpt>
      <trkpt lat="45.271447934210300445556640625" lon="-71.1166683398187160491943359375">
        <ele>969.79998779296875</ele>
        <time>2026-08-22T01:18:05.000Z</time>
        <extensions>
          <ns3:TrackPointExtension>
            <ns3:hr>137</ns3:hr>
            <ns3:cad>45</ns3:cad>
          </ns3:TrackPointExtension>
        </extensions>
      </trkpt>
      <trkpt lat="45.27144148014485836029052734375" lon="-71.11667864955961704254150390625">
        <ele>969.79998779296875</ele>
        <time>2026-08-22T01:18:06.000Z</time>
        <extensions>
          <ns3:TrackPointExtension>
            <ns3:hr>137</ns3:hr>
            <ns3:cad>45</ns3:cad>
          </ns3:TrackPointExtension>
        </extensions>
      </trkpt>
      <trkpt lat="45.27143712155520915985107421875" lon="-71.1166857741773128509521484375">
        <ele>969.79998779296875</ele>
        <time>2026-08-22T01:18:07.000Z</time>
        <extensions>
          <ns3:TrackPointExtension>
            <ns3:hr>138</ns3:hr>
            <ns3:cad>48</ns3:cad>
          </ns3:TrackPointExtension>
        </extensions>
      </trkpt>
      <trkpt lat="45.271428488194942474365234375" lon="-71.11669172532856464385986328125">
        <ele>969.5999755859375</ele>
        <time>2026-08-22T01:18:08.000Z</time>
        <extensions>
          <ns3:TrackPointExtension>
            <ns3:hr>137</ns3:hr>
            <ns3:cad>48</ns3:cad>
          </ns3:TrackPointExtension>
        </extensions>
      </trkpt>
      <trkpt lat="45.2714206092059612274169921875" lon="-71.11669667065143585205078125">
        <ele>969.5999755859375</ele>
        <time>2026-08-22T01:18:09.000Z</time>
        <extensions>
          <ns3:TrackPointExtension>
            <ns3:hr>138</ns3:hr>
            <ns3:cad>48</ns3:cad>
          </ns3:TrackPointExtension>
        </extensions>
      </trkpt>
      <trkpt lat="45.27141264639794826507568359375" lon="-71.1166998557746410369873046875">
        <ele>969.5999755859375</ele>
        <time>2026-08-22T01:18:10.000Z</time>
        <extensions>
          <ns3:TrackPointExtension>
            <ns3:hr>137</ns3:hr>
            <ns3:cad>46</ns3:cad>
          </ns3:TrackPointExtension>
        </extensions>
      </trkpt>
      <trkpt lat="45.27140627615153789520263671875" lon="-71.11670664511620998382568359375">
        <ele>969.5999755859375</ele>
        <time>2026-08-22T01:18:11.000Z</time>
        <extensions>
          <ns3:TrackPointExtension>
            <ns3:hr>137</ns3:hr>
            <ns3:cad>46</ns3:cad>
          </ns3:TrackPointExtension>
        </extensions>
      </trkpt>
      <trkpt lat="45.2714008279144763946533203125" lon="-71.11671008169651031494140625">
        <ele>969.5999755859375</ele>
        <time>2026-08-22T01:18:12.000Z</time>
        <extensions>
          <ns3:TrackPointExtension>
            <ns3:hr>137</ns3:hr>
            <ns3:cad>46</ns3:cad>
          </ns3:TrackPointExtension>
        </extensions>
      </trkpt>
      <trkpt lat="45.27139655314385890960693359375" lon="-71.11671184189617633819580078125">
        <ele>969.79998779296875</ele>
        <time>2026-08-22T01:18:13.000Z</time>
        <extensions>
          <ns3:TrackPointExtension>
            <ns3:hr>138</ns3:hr>
            <ns3:cad>0</ns3:cad>
          </ns3:TrackPointExtension>
        </extensions>
      </trkpt>
      <trkpt lat="45.271393954753875732421875" lon="-71.11670949496328830718994140625">
        <ele>970</ele>
        <time>2026-08-22T01:18:14.000Z</time>
        <extensions>
          <ns3:TrackPointExtension>
            <ns3:hr>137</ns3:hr>
            <ns3:cad>0</ns3:cad>
          </ns3:TrackPointExtension>
        </extensions>
      </trkpt>
      <trkpt lat="45.27139152400195598602294921875" lon="-71.11670781858265399932861328125">
        <ele>970</ele>
        <time>2026-08-22T01:18:15.000Z</time>
        <extensions>
          <ns3:TrackPointExtension>
            <ns3:hr>137</ns3:hr>
            <ns3:cad>0</ns3:cad>
          </ns3:TrackPointExtension>
        </extensions>
      </trkpt>
      <trkpt lat="45.27138984762132167816162109375" lon="-71.11670748330652713775634765625">
        <ele>970.20001220703125</ele>
        <time>2026-08-22T01:18:16.000Z</time>
        <extensions>
          <ns3:TrackPointExtension>
            <ns3:hr>137</ns3:hr>
            <ns3:cad>0</ns3:cad>
          </ns3:TrackPointExtension>
        </extensions>
      </trkpt>
      <trkpt lat="45.27138951234519481658935546875" lon="-71.11670739948749542236328125">
        <ele>970.4000244140625</ele>
        <time>2026-08-22T01:18:17.000Z</time>
        <extensions>
          <ns3:TrackPointExtension>
            <ns3:hr>136</ns3:hr>
            <ns3:cad>0</ns3:cad>
          </ns3:TrackPointExtension>
        </extensions>
      </trkpt>
      <trkpt lat="45.27138951234519481658935546875" lon="-71.11670739948749542236328125">
        <ele>970.4000244140625</ele>
        <time>2026-08-22T01:18:18.000Z</time>
        <extensions>
          <ns3:TrackPointExtension>
            <ns3:hr>136</ns3:hr>
            <ns3:cad>0</ns3:cad>
          </ns3:TrackPointExtension>
        </extensions>
      </trkpt>
      <trkpt lat="45.27138951234519481658935546875" lon="-71.11670739948749542236328125">
        <ele>970.4000244140625</ele>
        <time>2026-08-22T01:18:19.000Z</time>
        <extensions>
          <ns3:TrackPointExtension>
            <ns3:hr>136</ns3:hr>
            <ns3:cad>0</ns3:cad>
          </ns3:TrackPointExtension>
        </extensions>
      </trkpt>
      <trkpt lat="45.27138984762132167816162109375" lon="-71.11670832149684429168701171875">
        <ele>970.20001220703125</ele>
        <time>2026-08-22T01:18:20.000Z</time>
        <extensions>
          <ns3:TrackPointExtension>
            <ns3:hr>136</ns3:hr>
            <ns3:cad>0</ns3:cad>
          </ns3:TrackPointExtension>
        </extensions>
      </trkpt>
      <trkpt lat="45.2713850699365139007568359375" lon="-71.116711087524890899658203125">
        <ele>970.20001220703125</ele>
        <time>2026-08-22T01:18:21.000Z</time>
        <extensions>
          <ns3:TrackPointExtension>
            <ns3:hr>135</ns3:hr>
            <ns3:cad>0</ns3:cad>
          </ns3:TrackPointExtension>
        </extensions>
      </trkpt>
      <trkpt lat="45.27137895114719867706298828125" lon="-71.116716451942920684814453125">
        <ele>970.20001220703125</ele>
        <time>2026-08-22T01:18:22.000Z</time>
        <extensions>
          <ns3:TrackPointExtension>
            <ns3:hr>134</ns3:hr>
            <ns3:cad>0</ns3:cad>
          </ns3:TrackPointExtension>
        </extensions>
      </trkpt>
      <trkpt lat="45.2713719941675662994384765625" lon="-71.1167233251035213470458984375">
        <ele>970.20001220703125</ele>
        <time>2026-08-22T01:18:23.000Z</time>
        <extensions>
          <ns3:TrackPointExtension>
            <ns3:hr>134</ns3:hr>
            <ns3:cad>0</ns3:cad>
          </ns3:TrackPointExtension>
        </extensions>
      </trkpt>
      <trkpt lat="45.27136554010212421417236328125" lon="-71.1167273484170436859130859375">
        <ele>970.20001220703125</ele>
        <time>2026-08-22T01:18:24.000Z</time>
        <extensions>
          <ns3:TrackPointExtension>
            <ns3:hr>134</ns3:hr>
            <ns3:cad>0</ns3:cad>
          </ns3:TrackPointExtension>
        </extensions>
      </trkpt>
      <trkpt lat="45.27135682292282581329345703125" lon="-71.116731204092502593994140625">
        <ele>970.4000244140625</ele>
        <time>2026-08-22T01:18:25.000Z</time>
        <extensions>
          <ns3:TrackPointExtension>
            <ns3:hr>134</ns3:hr>
            <ns3:cad>0</ns3:cad>
          </ns3:TrackPointExtension>
        </extensions>
      </trkpt>
      <trkpt lat="45.2713491953909397125244140625" lon="-71.11673556268215179443359375">
        <ele>970.5999755859375</ele>
        <time>2026-08-22T01:18:26.000Z</time>
        <extensions>
          <ns3:TrackPointExtension>
            <ns3:hr>134</ns3:hr>
            <ns3:cad>0</ns3:cad>
          </ns3:TrackPointExtension>
        </extensions>
      </trkpt>
      <trkpt lat="45.271339304745197296142578125" lon="-71.11674084328114986419677734375">
        <ele>970.79998779296875</ele>
        <time>2026-08-22T01:18:27.000Z</time>
        <extensions>
          <ns3:TrackPointExtension>
            <ns3:hr>134</ns3:hr>
            <ns3:cad>0</ns3:cad>
          </ns3:TrackPointExtension>
        </extensions>
      </trkpt>
      <trkpt lat="45.271334946155548095703125" lon="-71.1167431063950061798095703125">
        <ele>970.79998779296875</ele>
        <time>2026-08-22T01:18:28.000Z</time>
        <extensions>
          <ns3:TrackPointExtension>
            <ns3:hr>134</ns3:hr>
            <ns3:cad>0</ns3:cad>
          </ns3:TrackPointExtension>
        </extensions>
      </trkpt>
      <trkpt lat="45.2713324315845966339111328125" lon="-71.11674486659467220306396484375">
        <ele>971</ele>
        <time>2026-08-22T01:18:29.000Z</time>
        <extensions>
          <ns3:TrackPointExtension>
            <ns3:hr>133</ns3:hr>
            <ns3:cad>0</ns3:cad>
          </ns3:TrackPointExtension>
        </extensions>
      </trkpt>
      <trkpt lat="45.27133016847074031829833984375" lon="-71.11674704588949680328369140625">
        <ele>971</ele>
        <time>2026-08-22T01:18:30.000Z</time>
        <extensions>
          <ns3:TrackPointExtension>
            <ns3:hr>132</ns3:hr>
            <ns3:cad>0</ns3:cad>
          </ns3:TrackPointExtension>
        </extensions>
      </trkpt>
      <trkpt lat="45.27133033610880374908447265625" lon="-71.1167478002607822418212890625">
        <ele>971</ele>
        <time>2026-08-22T01:18:31.000Z</time>
        <extensions>
          <ns3:TrackPointExtension>
            <ns3:hr>132</ns3:hr>
            <ns3:cad>0</ns3:cad>
          </ns3:TrackPointExtension>
        </extensions>
      </trkpt>
      <trkpt lat="45.27132463641464710235595703125" lon="-71.1167548410594463348388671875">
        <ele>971</ele>
        <time>2026-08-22T01:18:32.000Z</time>
        <extensions>
          <ns3:TrackPointExtension>
            <ns3:hr>133</ns3:hr>
            <ns3:cad>0</ns3:cad>
          </ns3:TrackPointExtension>
        </extensions>
      </trkpt>
      <trkpt lat="45.2713166736066341400146484375" lon="-71.11676263622939586639404296875">
        <ele>971</ele>
        <time>2026-08-22T01:18:33.000Z</time>
        <extensions>
          <ns3:TrackPointExtension>
            <ns3:hr>133</ns3:hr>
            <ns3:cad>0</ns3:cad>
          </ns3:TrackPointExtension>
        </extensions>
      </trkpt>
      <trkpt lat="45.2713108062744140625" lon="-71.1167655698955059051513671875">
        <ele>971</ele>
        <time>2026-08-22T01:18:34.000Z</time>
        <extensions>
          <ns3:TrackPointExtension>
            <ns3:hr>132</ns3:hr>
            <ns3:cad>0</ns3:cad>
          </ns3:TrackPointExtension>
        </extensions>
      </trkpt>
      <trkpt lat="45.271302759647369384765625" lon="-71.11677051521837711334228515625">
        <ele>971</ele>
        <time>2026-08-22T01:18:35.000Z</time>
        <extensions>
          <ns3:TrackPointExtension>
            <ns3:hr>132</ns3:hr>
            <ns3:cad>0</ns3:cad>
          </ns3:TrackPointExtension>
        </extensions>
      </trkpt>
      <trkpt lat="45.27129395864903926849365234375" lon="-71.1167746223509311676025390625">
        <ele>971</ele>
        <time>2026-08-22T01:18:36.000Z</time>
        <extensions>
          <ns3:TrackPointExtension>
            <ns3:hr>132</ns3:hr>
            <ns3:cad>0</ns3:cad>
          </ns3:TrackPointExtension>
        </extensions>
      </trkpt>
      <trkpt lat="45.271286331117153167724609375" lon="-71.11677571199834346771240234375">
        <ele>971</ele>
        <time>2026-08-22T01:18:37.000Z</time>
        <extensions>
          <ns3:TrackPointExtension>
            <ns3:hr>132</ns3:hr>
            <ns3:cad>0</ns3:cad>
          </ns3:TrackPointExtension>
        </extensions>
      </trkpt>
      <trkpt lat="45.27127853594720363616943359375" lon="-71.1167786456644535064697265625">
        <ele>971.20001220703125</ele>
        <time>2026-08-22T01:18:38.000Z</time>
        <extensions>
          <ns3:TrackPointExtension>
            <ns3:hr>132</ns3:hr>
            <ns3:cad>0</ns3:cad>
          </ns3:TrackPointExtension>
        </extensions>
      </trkpt>
      <trkpt lat="45.27127132751047611236572265625" lon="-71.11677956767380237579345703125">
        <ele>971.20001220703125</ele>
        <time>2026-08-22T01:18:39.000Z</time>
        <extensions>
          <ns3:TrackPointExtension>
            <ns3:hr>132</ns3:hr>
            <ns3:cad>0</ns3:cad>
          </ns3:TrackPointExtension>
        </extensions>
      </trkpt>
      <trkpt lat="45.27126562781631946563720703125" lon="-71.11677872948348522186279296875">
        <ele>971.4000244140625</ele>
        <time>2026-08-22T01:18:40.000Z</time>
        <extensions>
          <ns3:TrackPointExtension>
            <ns3:hr>131</ns3:hr>
            <ns3:cad>0</ns3:cad>
          </ns3:TrackPointExtension>
        </extensions>
      </trkpt>
      <trkpt lat="45.2712586708366870880126953125" lon="-71.116780154407024383544921875">
        <ele>971.4000244140625</ele>
        <time>2026-08-22T01:18:41.000Z</time>
        <extensions>
          <ns3:TrackPointExtension>
            <ns3:hr>132</ns3:hr>
            <ns3:cad>0</ns3:cad>
          </ns3:TrackPointExtension>
        </extensions>
      </trkpt>
      <trkpt lat="45.27125271968543529510498046875" lon="-71.11678258515894412994384765625">
        <ele>971.5999755859375</ele>
        <time>2026-08-22T01:18:42.000Z</time>
        <extensions>
          <ns3:TrackPointExtension>
            <ns3:hr>132</ns3:hr>
            <ns3:cad>0</ns3:cad>
          </ns3:TrackPointExtension>
        </extensions>
      </trkpt>
      <trkpt lat="45.27124132029712200164794921875" lon="-71.1167873628437519073486328125">
        <ele>971.79998779296875</ele>
        <time>2026-08-22T01:18:43.000Z</time>
        <extensions>
          <ns3:TrackPointExtension>
            <ns3:hr>132</ns3:hr>
            <ns3:cad>0</ns3:cad>
          </ns3:TrackPointExtension>
        </extensions>
      </trkpt>
      <trkpt lat="45.27123075909912586212158203125" lon="-71.11679180525243282318115234375">
        <ele>971.79998779296875</ele>
        <time>2026-08-22T01:18:44.000Z</time>
        <extensions>
          <ns3:TrackPointExtension>
            <ns3:hr>132</ns3:hr>
            <ns3:cad>0</ns3:cad>
          </ns3:TrackPointExtension>
        </extensions>
      </trkpt>
      <trkpt lat="45.27122304774820804595947265625" lon="-71.11679482273757457733154296875">
        <ele>972</ele>
        <time>2026-08-22T01:18:45.000Z</time>
        <extensions>
          <ns3:TrackPointExtension>
            <ns3:hr>132</ns3:hr>
            <ns3:cad>0</ns3:cad>
          </ns3:TrackPointExtension>
        </extensions>
      </trkpt>
      <trkpt lat="45.27121449820697307586669921875" lon="-71.1167974211275577545166015625">
        <ele>972</ele>
        <time>2026-08-22T01:18:46.000Z</time>
        <extensions>
          <ns3:TrackPointExtension>
            <ns3:hr>131</ns3:hr>
            <ns3:cad>0</ns3:cad>
          </ns3:TrackPointExtension>
        </extensions>
      </trkpt>
      <trkpt lat="45.27120779268443584442138671875" lon="-71.11679725348949432373046875">
        <ele>972</ele>
        <time>2026-08-22T01:18:47.000Z</time>
        <extensions>
          <ns3:TrackPointExtension>
            <ns3:hr>131</ns3:hr>
            <ns3:cad>0</ns3:cad>
          </ns3:TrackPointExtension>
        </extensions>
      </trkpt>
      <trkpt lat="45.27119345963001251220703125" lon="-71.1167977564036846160888671875">
        <ele>972.20001220703125</ele>
        <time>2026-08-22T01:18:48.000Z</time>
        <extensions>
          <ns3:TrackPointExtension>
            <ns3:hr>131</ns3:hr>
            <ns3:cad>0</ns3:cad>
          </ns3:TrackPointExtension>
        </extensions>
      </trkpt>
      <trkpt lat="45.2711849100887775421142578125" lon="-71.11680001951754093170166015625">
        <ele>972.4000244140625</ele>
        <time>2026-08-22T01:18:49.000Z</time>
        <extensions>
          <ns3:TrackPointExtension>
            <ns3:hr>130</ns3:hr>
            <ns3:cad>0</ns3:cad>
          </ns3:TrackPointExtension>
        </extensions>
      </trkpt>
      <trkpt lat="45.27117610909044742584228515625" lon="-71.116800606250762939453125">
        <ele>972.5999755859375</ele>
        <time>2026-08-22T01:18:50.000Z</time>
        <extensions>
          <ns3:TrackPointExtension>
            <ns3:hr>130</ns3:hr>
            <ns3:cad>0</ns3:cad>
          </ns3:TrackPointExtension>
        </extensions>
      </trkpt>
      <trkpt lat="45.27116755954921245574951171875" lon="-71.1168051324784755706787109375">
        <ele>972.79998779296875</ele>
        <time>2026-08-22T01:18:51.000Z</time>
        <extensions>
          <ns3:TrackPointExtension>
            <ns3:hr>130</ns3:hr>
            <ns3:cad>43</ns3:cad>
          </ns3:TrackPointExtension>
        </extensions>
      </trkpt>
      <trkpt lat="45.2711547352373600006103515625" lon="-71.11680588684976100921630859375">
        <ele>973</ele>
        <time>2026-08-22T01:18:52.000Z</time>
        <extensions>
          <ns3:TrackPointExtension>
            <ns3:hr>129</ns3:hr>
            <ns3:cad>43</ns3:cad>
          </ns3:TrackPointExtension>
        </extensions>
      </trkpt>
      <trkpt lat="45.2711463533341884613037109375" lon="-71.11680873669683933258056640625">
        <ele>973</ele>
        <time>2026-08-22T01:18:53.000Z</time>
        <extensions>
          <ns3:TrackPointExtension>
            <ns3:hr>129</ns3:hr>
            <ns3:cad>43</ns3:cad>
          </ns3:TrackPointExtension>
        </extensions>
      </trkpt>
      <trkpt lat="45.271138139069080352783203125" lon="-71.11681125126779079437255859375">
        <ele>973.20001220703125</ele>
        <time>2026-08-22T01:18:54.000Z</time>
        <extensions>
          <ns3:TrackPointExtension>
            <ns3:hr>129</ns3:hr>
            <ns3:cad>43</ns3:cad>
          </ns3:TrackPointExtension>
        </extensions>
      </trkpt>
      <trkpt lat="45.27113202027976512908935546875" lon="-71.11681401729583740234375">
        <ele>973.4000244140625</ele>
        <time>2026-08-22T01:18:55.000Z</time>
        <extensions>
          <ns3:TrackPointExtension>
            <ns3:hr>129</ns3:hr>
            <ns3:cad>0</ns3:cad>
          </ns3:TrackPointExtension>
        </extensions>
      </trkpt>
      <trkpt lat="45.271126739680767059326171875" lon="-71.11681611277163028717041015625">
        <ele>973.4000244140625</ele>
        <time>2026-08-22T01:18:56.000Z</time>
        <extensions>
          <ns3:TrackPointExtension>
            <ns3:hr>130</ns3:hr>
            <ns3:cad>0</ns3:cad>
          </ns3:TrackPointExtension>
        </extensions>
      </trkpt>
      <trkpt lat="45.27112514711916446685791015625" lon="-71.1168232373893260955810546875">
        <ele>973.5999755859375</ele>
        <time>2026-08-22T01:18:57.000Z</time>
        <extensions>
          <ns3:TrackPointExtension>
            <ns3:hr>130</ns3:hr>
            <ns3:cad>0</ns3:cad>
          </ns3:TrackPointExtension>
        </extensions>
      </trkpt>
      <trkpt lat="45.27111441828310489654541015625" lon="-71.116827763617038726806640625">
        <ele>973.5999755859375</ele>
        <time>2026-08-22T01:18:58.000Z</time>
        <extensions>
          <ns3:TrackPointExtension>
            <ns3:hr>130</ns3:hr>
            <ns3:cad>79</ns3:cad>
          </ns3:TrackPointExtension>
        </extensions>
      </trkpt>
      <trkpt lat="45.27110536582767963409423828125" lon="-71.11682885326445102691650390625">
        <ele>973.79998779296875</ele>
        <time>2026-08-22T01:18:59.000Z</time>
        <extensions>
          <ns3:TrackPointExtension>
            <ns3:hr>130</ns3:hr>
            <ns3:cad>79</ns3:cad>
          </ns3:TrackPointExtension>
        </extensions>
      </trkpt>
      <trkpt lat="45.27110117487609386444091796875" lon="-71.1168309487402439117431640625">
        <ele>974</ele>
        <time>2026-08-22T01:19:00.000Z</time>
        <extensions>
          <ns3:TrackPointExtension>
            <ns3:hr>130</ns3:hr>
            <ns3:cad>45</ns3:cad>
          </ns3:TrackPointExtension>
        </extensions>
      </trkpt>
      <trkpt lat="45.271091870963573455810546875" lon="-71.11683522351086139678955078125">
        <ele>974</ele>
        <time>2026-08-22T01:19:01.000Z</time>
        <extensions>
          <ns3:TrackPointExtension>
            <ns3:hr>131</ns3:hr>
            <ns3:cad>45</ns3:cad>
          </ns3:TrackPointExtension>
        </extensions>
      </trkpt>
      <trkpt lat="45.27108105830848217010498046875" lon="-71.11684092320501804351806640625">
        <ele>974.20001220703125</ele>
        <time>2026-08-22T01:19:02.000Z</time>
        <extensions>
          <ns3:TrackPointExtension>
            <ns3:hr>130</ns3:hr>
            <ns3:cad>0</ns3:cad>
          </ns3:TrackPointExtension>
        </extensions>
      </trkpt>
      <trkpt lat="45.271070413291454315185546875" lon="-71.11684779636561870574951171875">
        <ele>974.20001220703125</ele>
        <time>2026-08-22T01:19:03.000Z</time>
        <extensions>
          <ns3:TrackPointExtension>
            <ns3:hr>131</ns3:hr>
            <ns3:cad>0</ns3:cad>
          </ns3:TrackPointExtension>
        </extensions>
      </trkpt>
      <trkpt lat="45.27106110937893390655517578125" lon="-71.11685450188815593719482421875">
        <ele>974.4000244140625</ele>
        <time>2026-08-22T01:19:04.000Z</time>
        <extensions>
          <ns3:TrackPointExtension>
            <ns3:hr>131</ns3:hr>
            <ns3:cad>0</ns3:cad>
          </ns3:TrackPointExtension>
        </extensions>
      </trkpt>
      <trkpt lat="45.27105641551315784454345703125" lon="-71.1168621294200420379638671875">
        <ele>974.4000244140625</ele>
        <time>2026-08-22T01:19:05.000Z</time>
        <extensions>
          <ns3:TrackPointExtension>
            <ns3:hr>131</ns3:hr>
            <ns3:cad>0</ns3:cad>
          </ns3:TrackPointExtension>
        </extensions>
      </trkpt>
      <trkpt lat="45.2710464410483837127685546875" lon="-71.1168678291141986846923828125">
        <ele>974.4000244140625</ele>
        <time>2026-08-22T01:19:06.000Z</time>
        <extensions>
          <ns3:TrackPointExtension>
            <ns3:hr>130</ns3:hr>
            <ns3:cad>0</ns3:cad>
          </ns3:TrackPointExtension>
        </extensions>
      </trkpt>
      <trkpt lat="45.27103562839329242706298828125" lon="-71.1168772168457508087158203125">
        <ele>974.4000244140625</ele>
        <time>2026-08-22T01:19:07.000Z</time>
        <extensions>
          <ns3:TrackPointExtension>
            <ns3:hr>130</ns3:hr>
            <ns3:cad>0</ns3:cad>
          </ns3:TrackPointExtension>
        </extensions>
      </trkpt>
      <trkpt lat="45.271024815738201141357421875" lon="-71.1168835870921611785888671875">
        <ele>974.4000244140625</ele>
        <time>2026-08-22T01:19:08.000Z</time>
        <extensions>
          <ns3:TrackPointExtension>
            <ns3:hr>130</ns3:hr>
            <ns3:cad>0</ns3:cad>
          </ns3:TrackPointExtension>
        </extensions>
      </trkpt>
      <trkpt lat="45.27102020569145679473876953125" lon="-71.1168869398534297943115234375">
        <ele>974.4000244140625</ele>
        <time>2026-08-22T01:19:09.000Z</time>
        <extensions>
          <ns3:TrackPointExtension>
            <ns3:hr>130</ns3:hr>
            <ns3:cad>0</ns3:cad>
          </ns3:TrackPointExtension>
        </extensions>
      </trkpt>
      <trkpt lat="45.27101048268377780914306640625" lon="-71.116895489394664764404296875">
        <ele>974.4000244140625</ele>
        <time>2026-08-22T01:19:10.000Z</time>
        <extensions>
          <ns3:TrackPointExtension>
            <ns3:hr>130</ns3:hr>
            <ns3:cad>0</ns3:cad>
          </ns3:TrackPointExtension>
        </extensions>
      </trkpt>
      <trkpt lat="45.2709964849054813385009765625" lon="-71.116903536021709442138671875">
        <ele>974.4000244140625</ele>
        <time>2026-08-22T01:19:11.000Z</time>
        <extensions>
          <ns3:TrackPointExtension>
            <ns3:hr>131</ns3:hr>
            <ns3:cad>0</ns3:cad>
          </ns3:TrackPointExtension>
        </extensions>
      </trkpt>
      <trkpt lat="45.270987935364246368408203125" lon="-71.116907559335231781005859375">
        <ele>974.5999755859375</ele>
        <time>2026-08-22T01:19:12.000Z</time>
        <extensions>
          <ns3:TrackPointExtension>
            <ns3:hr>131</ns3:hr>
            <ns3:cad>47</ns3:cad>
          </ns3:TrackPointExtension>
        </extensions>
      </trkpt>
      <trkpt lat="45.2709820680320262908935546875" lon="-71.116908900439739227294921875">
        <ele>974.5999755859375</ele>
        <time>2026-08-22T01:19:13.000Z</time>
        <extensions>
          <ns3:TrackPointExtension>
            <ns3:hr>131</ns3:hr>
            <ns3:cad>47</ns3:cad>
          </ns3:TrackPointExtension>
        </extensions>
      </trkpt>
      <trkpt lat="45.2709750272333621978759765625" lon="-71.1169130913913249969482421875">
        <ele>974.5999755859375</ele>
        <time>2026-08-22T01:19:14.000Z</time>
        <extensions>
          <ns3:TrackPointExtension>
            <ns3:hr>131</ns3:hr>
            <ns3:cad>47</ns3:cad>
          </ns3:TrackPointExtension>
        </extensions>
      </trkpt>
      <trkpt lat="45.27096438221633434295654296875" lon="-71.11691568978130817413330078125">
        <ele>974.79998779296875</ele>
        <time>2026-08-22T01:19:15.000Z</time>
        <extensions>
          <ns3:TrackPointExtension>
            <ns3:hr>130</ns3:hr>
            <ns3:cad>40</ns3:cad>
          </ns3:TrackPointExtension>
        </extensions>
      </trkpt>
      <trkpt lat="45.27095935307443141937255859375" lon="-71.11692331731319427490234375">
        <ele>974.79998779296875</ele>
        <time>2026-08-22T01:19:16.000Z</time>
        <extensions>
          <ns3:TrackPointExtension>
            <ns3:hr>130</ns3:hr>
            <ns3:cad>40</ns3:cad>
          </ns3:TrackPointExtension>
        </extensions>
      </trkpt>
      <trkpt lat="45.2709515579044818878173828125" lon="-71.11692943610250949859619140625">
        <ele>975</ele>
        <time>2026-08-22T01:19:17.000Z</time>
        <extensions>
          <ns3:TrackPointExtension>
            <ns3:hr>130</ns3:hr>
            <ns3:cad>0</ns3:cad>
          </ns3:TrackPointExtension>
        </extensions>
      </trkpt>
      <trkpt lat="45.27093756012618541717529296875" lon="-71.1169360578060150146484375">
        <ele>975</ele>
        <time>2026-08-22T01:19:18.000Z</time>
        <extensions>
          <ns3:TrackPointExtension>
            <ns3:hr>130</ns3:hr>
            <ns3:cad>0</ns3:cad>
          </ns3:TrackPointExtension>
        </extensions>
      </trkpt>
      <trkpt lat="45.270928926765918731689453125" lon="-71.116937734186649322509765625">
        <ele>975</ele>
        <time>2026-08-22T01:19:19.000Z</time>
        <extensions>
          <ns3:TrackPointExtension>
            <ns3:hr>130</ns3:hr>
            <ns3:cad>0</ns3:cad>
          </ns3:TrackPointExtension>
        </extensions>
      </trkpt>
      <trkpt lat="45.27092456817626953125" lon="-71.116940081119537353515625">
        <ele>975</ele>
        <time>2026-08-22T01:19:20.000Z</time>
        <extensions>
          <ns3:TrackPointExtension>
            <ns3:hr>129</ns3:hr>
            <ns3:cad>0</ns3:cad>
          </ns3:TrackPointExtension>
        </extensions>
      </trkpt>
      <trkpt lat="45.2709187008440494537353515625" lon="-71.11693848855793476104736328125">
        <ele>975</ele>
        <time>2026-08-22T01:19:21.000Z</time>
        <extensions>
          <ns3:TrackPointExtension>
            <ns3:hr>129</ns3:hr>
            <ns3:cad>0</ns3:cad>
          </ns3:TrackPointExtension>
        </extensions>
      </trkpt>
      <trkpt lat="45.27091291733086109161376953125" lon="-71.11693697981536388397216796875">
        <ele>975.20001220703125</ele>
        <time>2026-08-22T01:19:22.000Z</time>
        <extensions>
          <ns3:TrackPointExtension>
            <ns3:hr>129</ns3:hr>
            <ns3:cad>0</ns3:cad>
          </ns3:TrackPointExtension>
        </extensions>
      </trkpt>
      <trkpt lat="45.27090453542768955230712890625" lon="-71.11693681217730045318603515625">
        <ele>975.4000244140625</ele>
        <time>2026-08-22T01:19:23.000Z</time>
        <extensions>
          <ns3:TrackPointExtension>
            <ns3:hr>129</ns3:hr>
            <ns3:cad>0</ns3:cad>
          </ns3:TrackPointExtension>
        </extensions>
      </trkpt>
      <trkpt lat="45.27089045383036136627197265625" lon="-71.1169402487576007843017578125">
        <ele>975.5999755859375</ele>
        <time>2026-08-22T01:19:24.000Z</time>
        <extensions>
          <ns3:TrackPointExtension>
            <ns3:hr>129</ns3:hr>
            <ns3:cad>0</ns3:cad>
          </ns3:TrackPointExtension>
        </extensions>
      </trkpt>
      <trkpt lat="45.27088508941233158111572265625" lon="-71.116940416395664215087890625">
        <ele>975.79998779296875</ele>
        <time>2026-08-22T01:19:25.000Z</time>
        <extensions>
          <ns3:TrackPointExtension>
            <ns3:hr>129</ns3:hr>
            <ns3:cad>0</ns3:cad>
          </ns3:TrackPointExtension>
        </extensions>
      </trkpt>
      <trkpt lat="45.270877294242382049560546875" lon="-71.11693832091987133026123046875">
        <ele>976.20001220703125</ele>
        <time>2026-08-22T01:19:26.000Z</time>
        <extensions>
          <ns3:TrackPointExtension>
            <ns3:hr>129</ns3:hr>
            <ns3:cad>0</ns3:cad>
          </ns3:TrackPointExtension>
        </extensions>
      </trkpt>
      <trkpt lat="45.27086916379630565643310546875" lon="-71.1169379018247127532958984375">
        <ele>976.20001220703125</ele>
        <time>2026-08-22T01:19:27.000Z</time>
        <extensions>
          <ns3:TrackPointExtension>
            <ns3:hr>130</ns3:hr>
            <ns3:cad>0</ns3:cad>
          </ns3:TrackPointExtension>
        </extensions>
      </trkpt>
      <trkpt lat="45.27086094953119754791259765625" lon="-71.116937734186649322509765625">
        <ele>976.4000244140625</ele>
        <time>2026-08-22T01:19:28.000Z</time>
        <extensions>
          <ns3:TrackPointExtension>
            <ns3:hr>130</ns3:hr>
            <ns3:cad>0</ns3:cad>
          </ns3:TrackPointExtension>
        </extensions>
      </trkpt>
      <trkpt lat="45.270853154361248016357421875" lon="-71.11693865619599819183349609375">
        <ele>976.5999755859375</ele>
        <time>2026-08-22T01:19:29.000Z</time>
        <extensions>
          <ns3:TrackPointExtension>
            <ns3:hr>130</ns3:hr>
            <ns3:cad>0</ns3:cad>
          </ns3:TrackPointExtension>
        </extensions>
      </trkpt>
      <trkpt lat="45.270837731659412384033203125" lon="-71.1169432662427425384521484375">
        <ele>976.5999755859375</ele>
        <time>2026-08-22T01:19:30.000Z</time>
        <extensions>
          <ns3:TrackPointExtension>
            <ns3:hr>130</ns3:hr>
            <ns3:cad>0</ns3:cad>
          </ns3:TrackPointExtension>
        </extensions>
      </trkpt>
      <trkpt lat="45.2708278410136699676513671875" lon="-71.11694502644240856170654296875">
        <ele>976.79998779296875</ele>
        <time>2026-08-22T01:19:31.000Z</time>
        <extensions>
          <ns3:TrackPointExtension>
            <ns3:hr>131</ns3:hr>
            <ns3:cad>0</ns3:cad>
          </ns3:TrackPointExtension>
        </extensions>
      </trkpt>
      <trkpt lat="45.270820967853069305419921875" lon="-71.11694687046110630035400390625">
        <ele>976.79998779296875</ele>
        <time>2026-08-22T01:19:32.000Z</time>
        <extensions>
          <ns3:TrackPointExtension>
            <ns3:hr>130</ns3:hr>
            <ns3:cad>0</ns3:cad>
          </ns3:TrackPointExtension>
        </extensions>
      </trkpt>
      <trkpt lat="45.2708067186176776885986328125" lon="-71.11695039086043834686279296875">
        <ele>976.79998779296875</ele>
        <time>2026-08-22T01:19:33.000Z</time>
        <extensions>
          <ns3:TrackPointExtension>
            <ns3:hr>130</ns3:hr>
            <ns3:cad>0</ns3:cad>
          </ns3:TrackPointExtension>
        </extensions>
      </trkpt>
      <trkpt lat="45.2707959897816181182861328125" lon="-71.1169543303549289703369140625">
        <ele>977</ele>
        <time>2026-08-22T01:19:34.000Z</time>
        <extensions>
          <ns3:TrackPointExtension>
            <ns3:hr>130</ns3:hr>
            <ns3:cad>0</ns3:cad>
          </ns3:TrackPointExtension>
        </extensions>
      </trkpt>
      <trkpt lat="45.2707852609455585479736328125" lon="-71.11695525236427783966064453125">
        <ele>977</ele>
        <time>2026-08-22T01:19:35.000Z</time>
        <extensions>
          <ns3:TrackPointExtension>
            <ns3:hr>130</ns3:hr>
            <ns3:cad>0</ns3:cad>
          </ns3:TrackPointExtension>
        </extensions>
      </trkpt>
      <trkpt lat="45.27077310718595981597900390625" lon="-71.1169566772878170013427734375">
        <ele>977.20001220703125</ele>
        <time>2026-08-22T01:19:36.000Z</time>
        <extensions>
          <ns3:TrackPointExtension>
            <ns3:hr>130</ns3:hr>
            <ns3:cad>0</ns3:cad>
          </ns3:TrackPointExtension>
        </extensions>
      </trkpt>
      <trkpt lat="45.2707617916166782379150390625" lon="-71.1169509775936603546142578125">
        <ele>977.4000244140625</ele>
        <time>2026-08-22T01:19:37.000Z</time>
        <extensions>
          <ns3:TrackPointExtension>
            <ns3:hr>130</ns3:hr>
            <ns3:cad>0</ns3:cad>
          </ns3:TrackPointExtension>
        </extensions>
      </trkpt>
      <trkpt lat="45.270755253732204437255859375" lon="-71.11695709638297557830810546875">
        <ele>977.4000244140625</ele>
        <time>2026-08-22T01:19:38.000Z</time>
        <extensions>
          <ns3:TrackPointExtension>
            <ns3:hr>130</ns3:hr>
            <ns3:cad>0</ns3:cad>
          </ns3:TrackPointExtension>
        </extensions>
      </trkpt>
      <trkpt lat="45.27074393816292285919189453125" lon="-71.116958521306514739990234375">
        <ele>977.5999755859375</ele>
        <time>2026-08-22T01:19:39.000Z</time>
        <extensions>
          <ns3:TrackPointExtension>
            <ns3:hr>130</ns3:hr>
            <ns3:cad>0</ns3:cad>
          </ns3:TrackPointExtension>
        </extensions>
      </trkpt>
      <trkpt lat="45.2707381546497344970703125" lon="-71.11695575527846813201904296875">
        <ele>977.5999755859375</ele>
        <time>2026-08-22T01:19:40.000Z</time>
        <extensions>
          <ns3:TrackPointExtension>
            <ns3:hr>130</ns3:hr>
            <ns3:cad>0</ns3:cad>
          </ns3:TrackPointExtension>
        </extensions>
      </trkpt>
      <trkpt lat="45.270731449127197265625" lon="-71.1169548332691192626953125">
        <ele>977.5999755859375</ele>
        <time>2026-08-22T01:19:41.000Z</time>
        <extensions>
          <ns3:TrackPointExtension>
            <ns3:hr>130</ns3:hr>
            <ns3:cad>46</ns3:cad>
          </ns3:TrackPointExtension>
        </extensions>
      </trkpt>
      <trkpt lat="45.27072331868112087249755859375" lon="-71.11695324070751667022705078125">
        <ele>977.79998779296875</ele>
        <time>2026-08-22T01:19:42.000Z</time>
        <extensions>
          <ns3:TrackPointExtension>
            <ns3:hr>130</ns3:hr>
            <ns3:cad>46</ns3:cad>
          </ns3:TrackPointExtension>
        </extensions>
      </trkpt>
      <trkpt lat="45.27071342803537845611572265625" lon="-71.1169523186981678009033203125">
        <ele>977.79998779296875</ele>
        <time>2026-08-22T01:19:43.000Z</time>
        <extensions>
          <ns3:TrackPointExtension>
            <ns3:hr>131</ns3:hr>
            <ns3:cad>48</ns3:cad>
          </ns3:TrackPointExtension>
        </extensions>
      </trkpt>
      <trkpt lat="45.27070085518062114715576171875" lon="-71.116950474679470062255859375">
        <ele>978</ele>
        <time>2026-08-22T01:19:44.000Z</time>
        <extensions>
          <ns3:TrackPointExtension>
            <ns3:hr>131</ns3:hr>
            <ns3:cad>48</ns3:cad>
          </ns3:TrackPointExtension>
        </extensions>
      </trkpt>
      <trkpt lat="45.27069062925875186920166015625" lon="-71.11695407889783382415771484375">
        <ele>978</ele>
        <time>2026-08-22T01:19:45.000Z</time>
        <extensions>
          <ns3:TrackPointExtension>
            <ns3:hr>131</ns3:hr>
            <ns3:cad>46</ns3:cad>
          </ns3:TrackPointExtension>
        </extensions>
      </trkpt>
      <trkpt lat="45.27067721821367740631103515625" lon="-71.116956174373626708984375">
        <ele>978.20001220703125</ele>
        <time>2026-08-22T01:19:46.000Z</time>
        <extensions>
          <ns3:TrackPointExtension>
            <ns3:hr>131</ns3:hr>
            <ns3:cad>46</ns3:cad>
          </ns3:TrackPointExtension>
        </extensions>
      </trkpt>
      <trkpt lat="45.27066464535892009735107421875" lon="-71.1169630475342273712158203125">
        <ele>978.20001220703125</ele>
        <time>2026-08-22T01:19:47.000Z</time>
        <extensions>
          <ns3:TrackPointExtension>
            <ns3:hr>131</ns3:hr>
            <ns3:cad>46</ns3:cad>
          </ns3:TrackPointExtension>
        </extensions>
      </trkpt>
      <trkpt lat="45.27065441943705081939697265625" lon="-71.11696623265743255615234375">
        <ele>978.20001220703125</ele>
        <time>2026-08-22T01:19:48.000Z</time>
        <extensions>
          <ns3:TrackPointExtension>
            <ns3:hr>131</ns3:hr>
            <ns3:cad>49</ns3:cad>
          </ns3:TrackPointExtension>
        </extensions>
      </trkpt>
      <trkpt lat="45.2706427685916423797607421875" lon="-71.11697067506611347198486328125">
        <ele>978.20001220703125</ele>
        <time>2026-08-22T01:19:49.000Z</time>
        <extensions>
          <ns3:TrackPointExtension>
            <ns3:hr>130</ns3:hr>
            <ns3:cad>49</ns3:cad>
          </ns3:TrackPointExtension>
        </extensions>
      </trkpt>
      <trkpt lat="45.27063061483204364776611328125" lon="-71.1169771291315555572509765625">
        <ele>978.20001220703125</ele>
        <time>2026-08-22T01:19:50.000Z</time>
        <extensions>
          <ns3:TrackPointExtension>
            <ns3:hr>129</ns3:hr>
            <ns3:cad>49</ns3:cad>
          </ns3:TrackPointExtension>
        </extensions>
      </trkpt>
      <trkpt lat="45.2706182934343814849853515625" lon="-71.11697805114090442657470703125">
        <ele>978.20001220703125</ele>
        <time>2026-08-22T01:19:51.000Z</time>
        <extensions>
          <ns3:TrackPointExtension>
            <ns3:hr>129</ns3:hr>
            <ns3:cad>49</ns3:cad>
          </ns3:TrackPointExtension>
        </extensions>
      </trkpt>
      <trkpt lat="45.2706052176654338836669921875" lon="-71.11697905696928501129150390625">
        <ele>978.4000244140625</ele>
        <time>2026-08-22T01:19:52.000Z</time>
        <extensions>
          <ns3:TrackPointExtension>
            <ns3:hr>129</ns3:hr>
            <ns3:cad>50</ns3:cad>
          </ns3:TrackPointExtension>
        </extensions>
      </trkpt>
      <trkpt lat="45.27059490792453289031982421875" lon="-71.11698232591152191162109375">
        <ele>978.4000244140625</ele>
        <time>2026-08-22T01:19:53.000Z</time>
        <extensions>
          <ns3:TrackPointExtension>
            <ns3:hr>129</ns3:hr>
            <ns3:cad>50</ns3:cad>
          </ns3:TrackPointExtension>
        </extensions>
      </trkpt>
      <trkpt lat="45.27058384381234645843505859375" lon="-71.116982996463775634765625">
        <ele>978.5999755859375</ele>
        <time>2026-08-22T01:19:54.000Z</time>
        <extensions>
          <ns3:TrackPointExtension>
            <ns3:hr>130</ns3:hr>
            <ns3:cad>50</ns3:cad>
          </ns3:TrackPointExtension>
        </extensions>
      </trkpt>
      <trkpt lat="45.270570851862430572509765625" lon="-71.1169803142547607421875">
        <ele>978.79998779296875</ele>
        <time>2026-08-22T01:19:55.000Z</time>
        <extensions>
          <ns3:TrackPointExtension>
            <ns3:hr>130</ns3:hr>
            <ns3:cad>50</ns3:cad>
          </ns3:TrackPointExtension>
        </extensions>
      </trkpt>
      <trkpt lat="45.27055802755057811737060546875" lon="-71.11698240973055362701416015625">
        <ele>978.79998779296875</ele>
        <time>2026-08-22T01:19:56.000Z</time>
        <extensions>
          <ns3:TrackPointExtension>
            <ns3:hr>130</ns3:hr>
            <ns3:cad>50</ns3:cad>
          </ns3:TrackPointExtension>
        </extensions>
      </trkpt>
      <trkpt lat="45.27054294012486934661865234375" lon="-71.11698458902537822723388671875">
        <ele>978.79998779296875</ele>
        <time>2026-08-22T01:19:57.000Z</time>
        <extensions>
          <ns3:TrackPointExtension>
            <ns3:hr>130</ns3:hr>
            <ns3:cad>48</ns3:cad>
          </ns3:TrackPointExtension>
        </extensions>
      </trkpt>
      <trkpt lat="45.270528607070446014404296875" lon="-71.1169858463108539581298828125">
        <ele>979</ele>
        <time>2026-08-22T01:19:58.000Z</time>
        <extensions>
          <ns3:TrackPointExtension>
            <ns3:hr>130</ns3:hr>
            <ns3:cad>48</ns3:cad>
          </ns3:TrackPointExtension>
        </extensions>
      </trkpt>
      <trkpt lat="45.27051846496760845184326171875" lon="-71.116983331739902496337890625">
        <ele>979.20001220703125</ele>
        <time>2026-08-22T01:19:59.000Z</time>
        <extensions>
          <ns3:TrackPointExtension>
            <ns3:hr>130</ns3:hr>
            <ns3:cad>49</ns3:cad>
          </ns3:TrackPointExtension>
        </extensions>
      </trkpt>
      <trkpt lat="45.27050773613154888153076171875" lon="-71.11698190681636333465576171875">
        <ele>979.20001220703125</ele>
        <time>2026-08-22T01:20:00.000Z</time>
        <extensions>
          <ns3:TrackPointExtension>
            <ns3:hr>130</ns3:hr>
            <ns3:cad>49</ns3:cad>
          </ns3:TrackPointExtension>
        </extensions>
      </trkpt>
      <trkpt lat="45.2704940736293792724609375" lon="-71.116979978978633880615234375">
        <ele>979.4000244140625</ele>
        <time>2026-08-22T01:20:01.000Z</time>
        <extensions>
          <ns3:TrackPointExtension>
            <ns3:hr>130</ns3:hr>
            <ns3:cad>49</ns3:cad>
          </ns3:TrackPointExtension>
        </extensions>
      </trkpt>
      <trkpt lat="45.2704825066030025482177734375" lon="-71.1169816553592681884765625">
        <ele>979.4000244140625</ele>
        <time>2026-08-22T01:20:02.000Z</time>
        <extensions>
          <ns3:TrackPointExtension>
            <ns3:hr>130</ns3:hr>
            <ns3:cad>0</ns3:cad>
          </ns3:TrackPointExtension>
        </extensions>
      </trkpt>
      <trkpt lat="45.27046834118664264678955078125" lon="-71.1169798113405704498291015625">
        <ele>979.4000244140625</ele>
        <time>2026-08-22T01:20:03.000Z</time>
        <extensions>
          <ns3:TrackPointExtension>
            <ns3:hr>130</ns3:hr>
            <ns3:cad>0</ns3:cad>
          </ns3:TrackPointExtension>
        </extensions>
      </trkpt>
      <trkpt lat="45.270456187427043914794921875" lon="-71.11697386018931865692138671875">
        <ele>979.5999755859375</ele>
        <time>2026-08-22T01:20:04.000Z</time>
        <extensions>
          <ns3:TrackPointExtension>
            <ns3:hr>131</ns3:hr>
            <ns3:cad>0</ns3:cad>
          </ns3:TrackPointExtension>
        </extensions>
      </trkpt>
      <trkpt lat="45.27044420130550861358642578125" lon="-71.11697419546544551849365234375">
        <ele>979.5999755859375</ele>
        <time>2026-08-22T01:20:05.000Z</time>
        <extensions>
          <ns3:TrackPointExtension>
            <ns3:hr>131</ns3:hr>
            <ns3:cad>50</ns3:cad>
          </ns3:TrackPointExtension>
        </extensions>
      </trkpt>
      <trkpt lat="45.27042877860367298126220703125" lon="-71.11697201617062091827392578125">
        <ele>979.79998779296875</ele>
        <time>2026-08-22T01:20:06.000Z</time>
        <extensions>
          <ns3:TrackPointExtension>
            <ns3:hr>131</ns3:hr>
            <ns3:cad>50</ns3:cad>
          </ns3:TrackPointExtension>
        </extensions>
      </trkpt>
      <trkpt lat="45.270417630672454833984375" lon="-71.11696816049516201019287109375">
        <ele>979.79998779296875</ele>
        <time>2026-08-22T01:20:07.000Z</time>
        <extensions>
          <ns3:TrackPointExtension>
            <ns3:hr>132</ns3:hr>
            <ns3:cad>50</ns3:cad>
          </ns3:TrackPointExtension>
        </extensions>
      </trkpt>
      <trkpt lat="45.27040966786444187164306640625" lon="-71.116966567933559417724609375">
        <ele>980</ele>
        <time>2026-08-22T01:20:08.000Z</time>
        <extensions>
          <ns3:TrackPointExtension>
            <ns3:hr>132</ns3:hr>
            <ns3:cad>50</ns3:cad>
          </ns3:TrackPointExtension>
        </extensions>
      </trkpt>
      <trkpt lat="45.27040111832320690155029296875" lon="-71.11696623265743255615234375">
        <ele>980</ele>
        <time>2026-08-22T01:20:09.000Z</time>
        <extensions>
          <ns3:TrackPointExtension>
            <ns3:hr>132</ns3:hr>
            <ns3:cad>54</ns3:cad>
          </ns3:TrackPointExtension>
        </extensions>
      </trkpt>
      <trkpt lat="45.27039055712521076202392578125" lon="-71.11696128733456134796142578125">
        <ele>980.20001220703125</ele>
        <time>2026-08-22T01:20:10.000Z</time>
        <extensions>
          <ns3:TrackPointExtension>
            <ns3:hr>132</ns3:hr>
            <ns3:cad>54</ns3:cad>
          </ns3:TrackPointExtension>
        </extensions>
      </trkpt>
      <trkpt lat="45.2703812532126903533935546875" lon="-71.11695659346878528594970703125">
        <ele>980.20001220703125</ele>
        <time>2026-08-22T01:20:11.000Z</time>
        <extensions>
          <ns3:TrackPointExtension>
            <ns3:hr>131</ns3:hr>
            <ns3:cad>54</ns3:cad>
          </ns3:TrackPointExtension>
        </extensions>
      </trkpt>
      <trkpt lat="45.2703732065856456756591796875" lon="-71.11694385297596454620361328125">
        <ele>980.20001220703125</ele>
        <time>2026-08-22T01:20:12.000Z</time>
        <extensions>
          <ns3:TrackPointExtension>
            <ns3:hr>130</ns3:hr>
            <ns3:cad>54</ns3:cad>
          </ns3:TrackPointExtension>
        </extensions>
      </trkpt>
      <trkpt lat="45.270366333425045013427734375" lon="-71.116937063634395599365234375">
        <ele>980.4000244140625</ele>
        <time>2026-08-22T01:20:13.000Z</time>
        <extensions>
          <ns3:TrackPointExtension>
            <ns3:hr>130</ns3:hr>
            <ns3:cad>54</ns3:cad>
          </ns3:TrackPointExtension>
        </extensions>
      </trkpt>
      <trkpt lat="45.2703554369509220123291015625" lon="-71.11693463288247585296630859375">
        <ele>980.4000244140625</ele>
        <time>2026-08-22T01:20:14.000Z</time>
        <extensions>
          <ns3:TrackPointExtension>
            <ns3:hr>129</ns3:hr>
            <ns3:cad>53</ns3:cad>
          </ns3:TrackPointExtension>
        </extensions>
      </trkpt>
      <trkpt lat="45.270346216857433319091796875" lon="-71.1169395782053470611572265625">
        <ele>980.5999755859375</ele>
        <time>2026-08-22T01:20:15.000Z</time>
        <extensions>
          <ns3:TrackPointExtension>
            <ns3:hr>128</ns3:hr>
            <ns3:cad>53</ns3:cad>
          </ns3:TrackPointExtension>
        </extensions>
      </trkpt>
      <trkpt lat="45.2703373320400714874267578125" lon="-71.11694770865142345428466796875">
        <ele>980.5999755859375</ele>
        <time>2026-08-22T01:20:16.000Z</time>
        <extensions>
          <ns3:TrackPointExtension>
            <ns3:hr>128</ns3:hr>
            <ns3:cad>53</ns3:cad>
          </ns3:TrackPointExtension>
        </extensions>
      </trkpt>
      <trkpt lat="45.27032911777496337890625" lon="-71.11694435589015483856201171875">
        <ele>980.79998779296875</ele>
        <time>2026-08-22T01:20:17.000Z</time>
        <extensions>
          <ns3:TrackPointExtension>
            <ns3:hr>128</ns3:hr>
            <ns3:cad>53</ns3:cad>
          </ns3:TrackPointExtension>
        </extensions>
      </trkpt>
      <trkpt lat="45.2703188918530941009521484375" lon="-71.11694318242371082305908203125">
        <ele>980.79998779296875</ele>
        <time>2026-08-22T01:20:18.000Z</time>
        <extensions>
          <ns3:TrackPointExtension>
            <ns3:hr>128</ns3:hr>
            <ns3:cad>53</ns3:cad>
          </ns3:TrackPointExtension>
        </extensions>
      </trkpt>
      <trkpt lat="45.27030757628381252288818359375" lon="-71.11694477498531341552734375">
        <ele>980.79998779296875</ele>
        <time>2026-08-22T01:20:19.000Z</time>
        <extensions>
          <ns3:TrackPointExtension>
            <ns3:hr>128</ns3:hr>
            <ns3:cad>0</ns3:cad>
          </ns3:TrackPointExtension>
        </extensions>
      </trkpt>
      <trkpt lat="45.27029550634324550628662109375" lon="-71.11694703809916973114013671875">
        <ele>980.79998779296875</ele>
        <time>2026-08-22T01:20:20.000Z</time>
        <extensions>
          <ns3:TrackPointExtension>
            <ns3:hr>128</ns3:hr>
            <ns3:cad>0</ns3:cad>
          </ns3:TrackPointExtension>
        </extensions>
      </trkpt>
      <trkpt lat="45.27028159238398075103759765625" lon="-71.1169493012130260467529296875">
        <ele>980.5999755859375</ele>
        <time>2026-08-22T01:20:21.000Z</time>
        <extensions>
          <ns3:TrackPointExtension>
            <ns3:hr>127</ns3:hr>
            <ns3:cad>0</ns3:cad>
          </ns3:TrackPointExtension>
        </extensions>
      </trkpt>
      <trkpt lat="45.27026684023439884185791015625" lon="-71.11695089377462863922119140625">
        <ele>980.5999755859375</ele>
        <time>2026-08-22T01:20:22.000Z</time>
        <extensions>
          <ns3:TrackPointExtension>
            <ns3:hr>127</ns3:hr>
            <ns3:cad>0</ns3:cad>
          </ns3:TrackPointExtension>
        </extensions>
      </trkpt>
      <trkpt lat="45.270252339541912078857421875" lon="-71.116953156888484954833984375">
        <ele>980.4000244140625</ele>
        <time>2026-08-22T01:20:23.000Z</time>
        <extensions>
          <ns3:TrackPointExtension>
            <ns3:hr>126</ns3:hr>
            <ns3:cad>0</ns3:cad>
          </ns3:TrackPointExtension>
        </extensions>
      </trkpt>
      <trkpt lat="45.27023934759199619293212890625" lon="-71.11695441417396068572998046875">
        <ele>980.4000244140625</ele>
        <time>2026-08-22T01:20:24.000Z</time>
        <extensions>
          <ns3:TrackPointExtension>
            <ns3:hr>126</ns3:hr>
            <ns3:cad>0</ns3:cad>
          </ns3:TrackPointExtension>
        </extensions>
      </trkpt>
      <trkpt lat="45.2702293731272220611572265625" lon="-71.1169603653252124786376953125">
        <ele>980.4000244140625</ele>
        <time>2026-08-22T01:20:25.000Z</time>
        <extensions>
          <ns3:TrackPointExtension>
            <ns3:hr>126</ns3:hr>
            <ns3:cad>0</ns3:cad>
          </ns3:TrackPointExtension>
        </extensions>
      </trkpt>
      <trkpt lat="45.27021101675927639007568359375" lon="-71.116956174373626708984375">
        <ele>980.4000244140625</ele>
        <time>2026-08-22T01:20:26.000Z</time>
        <extensions>
          <ns3:TrackPointExtension>
            <ns3:hr>126</ns3:hr>
            <ns3:cad>0</ns3:cad>
          </ns3:TrackPointExtension>
        </extensions>
      </trkpt>
      <trkpt lat="45.270200707018375396728515625" lon="-71.1169536598026752471923828125">
        <ele>980.4000244140625</ele>
        <time>2026-08-22T01:20:27.000Z</time>
        <extensions>
          <ns3:TrackPointExtension>
            <ns3:hr>126</ns3:hr>
            <ns3:cad>0</ns3:cad>
          </ns3:TrackPointExtension>
        </extensions>
      </trkpt>
      <trkpt lat="45.27019592933356761932373046875" lon="-71.11694687046110630035400390625">
        <ele>980.5999755859375</ele>
        <time>2026-08-22T01:20:28.000Z</time>
        <extensions>
          <ns3:TrackPointExtension>
            <ns3:hr>126</ns3:hr>
            <ns3:cad>0</ns3:cad>
          </ns3:TrackPointExtension>
        </extensions>
      </trkpt>
      <trkpt lat="45.27019006200134754180908203125" lon="-71.11693404614925384521484375">
        <ele>980.79998779296875</ele>
        <time>2026-08-22T01:20:29.000Z</time>
        <extensions>
          <ns3:TrackPointExtension>
            <ns3:hr>125</ns3:hr>
            <ns3:cad>0</ns3:cad>
          </ns3:TrackPointExtension>
        </extensions>
      </trkpt>
      <trkpt lat="45.2701831050217151641845703125" lon="-71.1169258318841457366943359375">
        <ele>981</ele>
        <time>2026-08-22T01:20:30.000Z</time>
        <extensions>
          <ns3:TrackPointExtension>
            <ns3:hr>126</ns3:hr>
            <ns3:cad>0</ns3:cad>
          </ns3:TrackPointExtension>
        </extensions>
      </trkpt>
      <trkpt lat="45.27017095126211643218994140625" lon="-71.11692038364708423614501953125">
        <ele>981.20001220703125</ele>
        <time>2026-08-22T01:20:31.000Z</time>
        <extensions>
          <ns3:TrackPointExtension>
            <ns3:hr>126</ns3:hr>
            <ns3:cad>0</ns3:cad>
          </ns3:TrackPointExtension>
        </extensions>
      </trkpt>
      <trkpt lat="45.2701552771031856536865234375" lon="-71.116926670074462890625">
        <ele>981.4000244140625</ele>
        <time>2026-08-22T01:20:32.000Z</time>
        <extensions>
          <ns3:TrackPointExtension>
            <ns3:hr>126</ns3:hr>
            <ns3:cad>0</ns3:cad>
          </ns3:TrackPointExtension>
        </extensions>
      </trkpt>
      <trkpt lat="45.2701358310878276824951171875" lon="-71.11693245358765125274658203125">
        <ele>981.5999755859375</ele>
        <time>2026-08-22T01:20:33.000Z</time>
        <extensions>
          <ns3:TrackPointExtension>
            <ns3:hr>126</ns3:hr>
            <ns3:cad>0</ns3:cad>
          </ns3:TrackPointExtension>
        </extensions>
      </trkpt>
      <trkpt lat="45.2701185643672943115234375" lon="-71.1169358901679515838623046875">
        <ele>981.79998779296875</ele>
        <time>2026-08-22T01:20:34.000Z</time>
        <extensions>
          <ns3:TrackPointExtension>
            <ns3:hr>126</ns3:hr>
            <ns3:cad>0</ns3:cad>
          </ns3:TrackPointExtension>
        </extensions>
      </trkpt>
      <trkpt lat="45.27010716497898101806640625" lon="-71.11694301478564739227294921875">
        <ele>981.79998779296875</ele>
        <time>2026-08-22T01:20:35.000Z</time>
        <extensions>
          <ns3:TrackPointExtension>
            <ns3:hr>126</ns3:hr>
            <ns3:cad>53</ns3:cad>
          </ns3:TrackPointExtension>
        </extensions>
      </trkpt>
      <trkpt lat="45.27009082026779651641845703125" lon="-71.116953156888484954833984375">
        <ele>981.79998779296875</ele>
        <time>2026-08-22T01:20:36.000Z</time>
        <extensions>
          <ns3:TrackPointExtension>
            <ns3:hr>126</ns3:hr>
            <ns3:cad>53</ns3:cad>
          </ns3:TrackPointExtension>
        </extensions>
      </trkpt>
      <trkpt lat="45.2700768224895000457763671875" lon="-71.116956174373626708984375">
        <ele>981.5999755859375</ele>
        <time>2026-08-22T01:20:37.000Z</time>
        <extensions>
          <ns3:TrackPointExtension>
            <ns3:hr>125</ns3:hr>
            <ns3:cad>53</ns3:cad>
          </ns3:TrackPointExtension>
        </extensions>
      </trkpt>
      <trkpt lat="45.27006181888282299041748046875" lon="-71.11696246080100536346435546875">
        <ele>981.5999755859375</ele>
        <time>2026-08-22T01:20:38.000Z</time>
        <extensions>
          <ns3:TrackPointExtension>
            <ns3:hr>126</ns3:hr>
            <ns3:cad>53</ns3:cad>
          </ns3:TrackPointExtension>
        </extensions>
      </trkpt>
      <trkpt lat="45.2700493298470973968505859375" lon="-71.1169674061238765716552734375">
        <ele>981.4000244140625</ele>
        <time>2026-08-22T01:20:39.000Z</time>
        <extensions>
          <ns3:TrackPointExtension>
            <ns3:hr>126</ns3:hr>
            <ns3:cad>53</ns3:cad>
          </ns3:TrackPointExtension>
        </extensions>
      </trkpt>
      <trkpt lat="45.2700355835258960723876953125" lon="-71.11697117798030376434326171875">
        <ele>981.4000244140625</ele>
        <time>2026-08-22T01:20:40.000Z</time>
        <extensions>
          <ns3:TrackPointExtension>
            <ns3:hr>126</ns3:hr>
            <ns3:cad>55</ns3:cad>
          </ns3:TrackPointExtension>
        </extensions>
      </trkpt>
      <trkpt lat="45.27002594433724880218505859375" lon="-71.116971932351589202880859375">
        <ele>981.4000244140625</ele>
        <time>2026-08-22T01:20:41.000Z</time>
        <extensions>
          <ns3:TrackPointExtension>
            <ns3:hr>126</ns3:hr>
            <ns3:cad>55</ns3:cad>
          </ns3:TrackPointExtension>
        </extensions>
      </trkpt>
      <trkpt lat="45.270014964044094085693359375" lon="-71.11697025597095489501953125">
        <ele>981.4000244140625</ele>
        <time>2026-08-22T01:20:42.000Z</time>
        <extensions>
          <ns3:TrackPointExtension>
            <ns3:hr>127</ns3:hr>
            <ns3:cad>55</ns3:cad>
          </ns3:TrackPointExtension>
        </extensions>
      </trkpt>
      <trkpt lat="45.2700050733983516693115234375" lon="-71.11696665175259113311767578125">
        <ele>981.5999755859375</ele>
        <time>2026-08-22T01:20:43.000Z</time>
        <extensions>
          <ns3:TrackPointExtension>
            <ns3:hr>127</ns3:hr>
            <ns3:cad>55</ns3:cad>
          </ns3:TrackPointExtension>
        </extensions>
      </trkpt>
      <trkpt lat="45.26999610476195812225341796875" lon="-71.1169633828103542327880859375">
        <ele>981.79998779296875</ele>
        <time>2026-08-22T01:20:44.000Z</time>
        <extensions>
          <ns3:TrackPointExtension>
            <ns3:hr>127</ns3:hr>
            <ns3:cad>55</ns3:cad>
          </ns3:TrackPointExtension>
        </extensions>
      </trkpt>
      <trkpt lat="45.26998923160135746002197265625" lon="-71.11696422100067138671875">
        <ele>981.79998779296875</ele>
        <time>2026-08-22T01:20:45.000Z</time>
        <extensions>
          <ns3:TrackPointExtension>
            <ns3:hr>126</ns3:hr>
            <ns3:cad>50</ns3:cad>
          </ns3:TrackPointExtension>
        </extensions>
      </trkpt>
      <trkpt lat="45.2699802629649639129638671875" lon="-71.116963215172290802001953125">
        <ele>982</ele>
        <time>2026-08-22T01:20:46.000Z</time>
        <extensions>
          <ns3:TrackPointExtension>
            <ns3:hr>126</ns3:hr>
            <ns3:cad>50</ns3:cad>
          </ns3:TrackPointExtension>
        </extensions>
      </trkpt>
      <trkpt lat="45.2699681930243968963623046875" lon="-71.11696246080100536346435546875">
        <ele>982.20001220703125</ele>
        <time>2026-08-22T01:20:47.000Z</time>
        <extensions>
          <ns3:TrackPointExtension>
            <ns3:hr>126</ns3:hr>
            <ns3:cad>50</ns3:cad>
          </ns3:TrackPointExtension>
        </extensions>
      </trkpt>
      <trkpt lat="45.26996023021638393402099609375" lon="-71.116957850754261016845703125">
        <ele>982.20001220703125</ele>
        <time>2026-08-22T01:20:48.000Z</time>
        <extensions>
          <ns3:TrackPointExtension>
            <ns3:hr>126</ns3:hr>
            <ns3:cad>50</ns3:cad>
          </ns3:TrackPointExtension>
        </extensions>
      </trkpt>
      <trkpt lat="45.2699500881135463714599609375" lon="-71.11695625819265842437744140625">
        <ele>982.4000244140625</ele>
        <time>2026-08-22T01:20:49.000Z</time>
        <extensions>
          <ns3:TrackPointExtension>
            <ns3:hr>126</ns3:hr>
            <ns3:cad>50</ns3:cad>
          </ns3:TrackPointExtension>
        </extensions>
      </trkpt>
      <trkpt lat="45.2699420414865016937255859375" lon="-71.11695684492588043212890625">
        <ele>982.5999755859375</ele>
        <time>2026-08-22T01:20:50.000Z</time>
        <extensions>
          <ns3:TrackPointExtension>
            <ns3:hr>126</ns3:hr>
            <ns3:cad>48</ns3:cad>
          </ns3:TrackPointExtension>
        </extensions>
      </trkpt>
      <trkpt lat="45.26993709616363048553466796875" lon="-71.1169566772878170013427734375">
        <ele>982.5999755859375</ele>
        <time>2026-08-22T01:20:51.000Z</time>
        <extensions>
          <ns3:TrackPointExtension>
            <ns3:hr>126</ns3:hr>
            <ns3:cad>48</ns3:cad>
          </ns3:TrackPointExtension>
        </extensions>
      </trkpt>
      <trkpt lat="45.26992552913725376129150390625" lon="-71.1169519834220409393310546875">
        <ele>982.79998779296875</ele>
        <time>2026-08-22T01:20:52.000Z</time>
        <extensions>
          <ns3:TrackPointExtension>
            <ns3:hr>126</ns3:hr>
            <ns3:cad>0</ns3:cad>
          </ns3:TrackPointExtension>
        </extensions>
      </trkpt>
      <trkpt lat="45.26991530321538448333740234375" lon="-71.11695148050785064697265625">
        <ele>982.79998779296875</ele>
        <time>2026-08-22T01:20:53.000Z</time>
        <extensions>
          <ns3:TrackPointExtension>
            <ns3:hr>126</ns3:hr>
            <ns3:cad>0</ns3:cad>
          </ns3:TrackPointExtension>
        </extensions>
      </trkpt>
      <trkpt lat="45.26990524493157863616943359375" lon="-71.11695684492588043212890625">
        <ele>982.79998779296875</ele>
        <time>2026-08-22T01:20:54.000Z</time>
        <extensions>
          <ns3:TrackPointExtension>
            <ns3:hr>126</ns3:hr>
            <ns3:cad>0</ns3:cad>
          </ns3:TrackPointExtension>
        </extensions>
      </trkpt>
      <trkpt lat="45.26990038342773914337158203125" lon="-71.1169610358774662017822265625">
        <ele>982.79998779296875</ele>
        <time>2026-08-22T01:20:55.000Z</time>
        <extensions>
          <ns3:TrackPointExtension>
            <ns3:hr>126</ns3:hr>
            <ns3:cad>0</ns3:cad>
          </ns3:TrackPointExtension>
        </extensions>
      </trkpt>
      <trkpt lat="45.26989250443875789642333984375" lon="-71.11696086823940277099609375">
        <ele>982.79998779296875</ele>
        <time>2026-08-22T01:20:56.000Z</time>
        <extensions>
          <ns3:TrackPointExtension>
            <ns3:hr>127</ns3:hr>
            <ns3:cad>0</ns3:cad>
          </ns3:TrackPointExtension>
        </extensions>
      </trkpt>
      <trkpt lat="45.2698853798210620880126953125" lon="-71.11695609055459499359130859375">
        <ele>982.79998779296875</ele>
        <time>2026-08-22T01:20:57.000Z</time>
        <extensions>
          <ns3:TrackPointExtension>
            <ns3:hr>127</ns3:hr>
            <ns3:cad>0</ns3:cad>
          </ns3:TrackPointExtension>
        </extensions>
      </trkpt>
      <trkpt lat="45.26987909339368343353271484375" lon="-71.1169469542801380157470703125">
        <ele>982.79998779296875</ele>
        <time>2026-08-22T01:20:58.000Z</time>
        <extensions>
          <ns3:TrackPointExtension>
            <ns3:hr>127</ns3:hr>
            <ns3:cad>0</ns3:cad>
          </ns3:TrackPointExtension>
        </extensions>
      </trkpt>
      <trkpt lat="45.2698702923953533172607421875" lon="-71.11693697981536388397216796875">
        <ele>983</ele>
        <time>2026-08-22T01:20:59.000Z</time>
        <extensions>
          <ns3:TrackPointExtension>
            <ns3:hr>127</ns3:hr>
            <ns3:cad>0</ns3:cad>
          </ns3:TrackPointExtension>
        </extensions>
      </trkpt>
      <trkpt lat="45.269867442548274993896484375" lon="-71.1169368959963321685791015625">
        <ele>983</ele>
        <time>2026-08-22T01:21:00.000Z</time>
        <extensions>
          <ns3:TrackPointExtension>
            <ns3:hr>127</ns3:hr>
            <ns3:cad>0</ns3:cad>
          </ns3:TrackPointExtension>
        </extensions>
      </trkpt>
      <trkpt lat="45.26986048556864261627197265625" lon="-71.11692792735993862152099609375">
        <ele>983.4000244140625</ele>
        <time>2026-08-22T01:21:01.000Z</time>
        <extensions>
          <ns3:TrackPointExtension>
            <ns3:hr>126</ns3:hr>
            <ns3:cad>0</ns3:cad>
          </ns3:TrackPointExtension>
        </extensions>
      </trkpt>
      <trkpt lat="45.2698508463799953460693359375" lon="-71.1169221438467502593994140625">
        <ele>983.5999755859375</ele>
        <time>2026-08-22T01:21:02.000Z</time>
        <extensions>
          <ns3:TrackPointExtension>
            <ns3:hr>127</ns3:hr>
            <ns3:cad>0</ns3:cad>
          </ns3:TrackPointExtension>
        </extensions>
      </trkpt>
      <trkpt lat="45.2698387764394283294677734375" lon="-71.1169110797345638275146484375">
        <ele>984</ele>
        <time>2026-08-22T01:21:03.000Z</time>
        <extensions>
          <ns3:TrackPointExtension>
            <ns3:hr>127</ns3:hr>
            <ns3:cad>0</ns3:cad>
          </ns3:TrackPointExtension>
        </extensions>
      </trkpt>
      <trkpt lat="45.26982544921338558197021484375" lon="-71.11690663732588291168212890625">
        <ele>984.20001220703125</ele>
        <time>2026-08-22T01:21:04.000Z</time>
        <extensions>
          <ns3:TrackPointExtension>
            <ns3:hr>127</ns3:hr>
            <ns3:cad>0</ns3:cad>
          </ns3:TrackPointExtension>
        </extensions>
      </trkpt>
      <trkpt lat="45.2698153071105480194091796875" lon="-71.1169040389358997344970703125">
        <ele>984.4000244140625</ele>
        <time>2026-08-22T01:21:05.000Z</time>
        <extensions>
          <ns3:TrackPointExtension>
            <ns3:hr>128</ns3:hr>
            <ns3:cad>0</ns3:cad>
          </ns3:TrackPointExtension>
        </extensions>
      </trkpt>
      <trkpt lat="45.26980415917932987213134765625" lon="-71.11690177582204341888427734375">
        <ele>984.4000244140625</ele>
        <time>2026-08-22T01:21:06.000Z</time>
        <extensions>
          <ns3:TrackPointExtension>
            <ns3:hr>128</ns3:hr>
            <ns3:cad>0</ns3:cad>
          </ns3:TrackPointExtension>
        </extensions>
      </trkpt>
      <trkpt lat="45.26979359798133373260498046875" lon="-71.1168943159282207489013671875">
        <ele>984.4000244140625</ele>
        <time>2026-08-22T01:21:07.000Z</time>
        <extensions>
          <ns3:TrackPointExtension>
            <ns3:hr>128</ns3:hr>
            <ns3:cad>0</ns3:cad>
          </ns3:TrackPointExtension>
        </extensions>
      </trkpt>
      <trkpt lat="45.2697801031172275543212890625" lon="-71.11688844859600067138671875">
        <ele>984.4000244140625</ele>
        <time>2026-08-22T01:21:08.000Z</time>
        <extensions>
          <ns3:TrackPointExtension>
            <ns3:hr>128</ns3:hr>
            <ns3:cad>0</ns3:cad>
          </ns3:TrackPointExtension>
        </extensions>
      </trkpt>
      <trkpt lat="45.26976778171956539154052734375" lon="-71.11688350327312946319580078125">
        <ele>984.20001220703125</ele>
        <time>2026-08-22T01:21:09.000Z</time>
        <extensions>
          <ns3:TrackPointExtension>
            <ns3:hr>127</ns3:hr>
            <ns3:cad>48</ns3:cad>
          </ns3:TrackPointExtension>
        </extensions>
      </trkpt>
      <trkpt lat="45.26975470595061779022216796875" lon="-71.11687763594090938568115234375">
        <ele>984.20001220703125</ele>
        <time>2026-08-22T01:21:10.000Z</time>
        <extensions>
          <ns3:TrackPointExtension>
            <ns3:hr>127</ns3:hr>
            <ns3:cad>48</ns3:cad>
          </ns3:TrackPointExtension>
        </extensions>
      </trkpt>
      <trkpt lat="45.26974548585712909698486328125" lon="-71.11686975695192813873291015625">
        <ele>984.4000244140625</ele>
        <time>2026-08-22T01:21:11.000Z</time>
        <extensions>
          <ns3:TrackPointExtension>
            <ns3:hr>128</ns3:hr>
            <ns3:cad>48</ns3:cad>
          </ns3:TrackPointExtension>
        </extensions>
      </trkpt>
      <trkpt lat="45.26973475702106952667236328125" lon="-71.11686187796294689178466796875">
        <ele>984.4000244140625</ele>
        <time>2026-08-22T01:21:12.000Z</time>
        <extensions>
          <ns3:TrackPointExtension>
            <ns3:hr>128</ns3:hr>
            <ns3:cad>48</ns3:cad>
          </ns3:TrackPointExtension>
        </extensions>
      </trkpt>
      <trkpt lat="45.2697221003472805023193359375" lon="-71.11685165204107761383056640625">
        <ele>984.4000244140625</ele>
        <time>2026-08-22T01:21:13.000Z</time>
        <extensions>
          <ns3:TrackPointExtension>
            <ns3:hr>128</ns3:hr>
            <ns3:cad>50</ns3:cad>
          </ns3:TrackPointExtension>
        </extensions>
      </trkpt>
      <trkpt lat="45.2697130478918552398681640625" lon="-71.1168448626995086669921875">
        <ele>984.5999755859375</ele>
        <time>2026-08-22T01:21:14.000Z</time>
        <extensions>
          <ns3:TrackPointExtension>
            <ns3:hr>128</ns3:hr>
            <ns3:cad>50</ns3:cad>
          </ns3:TrackPointExtension>
        </extensions>
      </trkpt>
      <trkpt lat="45.26970441453158855438232421875" lon="-71.11683891154825687408447265625">
        <ele>984.5999755859375</ele>
        <time>2026-08-22T01:21:15.000Z</time>
        <extensions>
          <ns3:TrackPointExtension>
            <ns3:hr>128</ns3:hr>
            <ns3:cad>50</ns3:cad>
          </ns3:TrackPointExtension>
        </extensions>
      </trkpt>
      <trkpt lat="45.26969754137098789215087890625" lon="-71.11683103255927562713623046875">
        <ele>984.79998779296875</ele>
        <time>2026-08-22T01:21:16.000Z</time>
        <extensions>
          <ns3:TrackPointExtension>
            <ns3:hr>128</ns3:hr>
            <ns3:cad>53</ns3:cad>
          </ns3:TrackPointExtension>
        </extensions>
      </trkpt>
      <trkpt lat="45.2696939371526241302490234375" lon="-71.1168245784938335418701171875">
        <ele>984.79998779296875</ele>
        <time>2026-08-22T01:21:17.000Z</time>
        <extensions>
          <ns3:TrackPointExtension>
            <ns3:hr>128</ns3:hr>
            <ns3:cad>53</ns3:cad>
          </ns3:TrackPointExtension>
        </extensions>
      </trkpt>
      <trkpt lat="45.269688069820404052734375" lon="-71.1168118380010128021240234375">
        <ele>985</ele>
        <time>2026-08-22T01:21:18.000Z</time>
        <extensions>
          <ns3:TrackPointExtension>
            <ns3:hr>128</ns3:hr>
            <ns3:cad>52</ns3:cad>
          </ns3:TrackPointExtension>
        </extensions>
      </trkpt>
      <trkpt lat="45.2696852199733257293701171875" lon="-71.1168051324784755706787109375">
        <ele>985.20001220703125</ele>
        <time>2026-08-22T01:21:19.000Z</time>
        <extensions>
          <ns3:TrackPointExtension>
            <ns3:hr>128</ns3:hr>
            <ns3:cad>51</ns3:cad>
          </ns3:TrackPointExtension>
        </extensions>
      </trkpt>
      <trkpt lat="45.26967742480337619781494140625" lon="-71.11679197289049625396728515625">
        <ele>985.4000244140625</ele>
        <time>2026-08-22T01:21:20.000Z</time>
        <extensions>
          <ns3:TrackPointExtension>
            <ns3:hr>128</ns3:hr>
            <ns3:cad>51</ns3:cad>
          </ns3:TrackPointExtension>
        </extensions>
      </trkpt>
      <trkpt lat="45.26966837234795093536376953125" lon="-71.11678007058799266815185546875">
        <ele>985.5999755859375</ele>
        <time>2026-08-22T01:21:21.000Z</time>
        <extensions>
          <ns3:TrackPointExtension>
            <ns3:hr>128</ns3:hr>
            <ns3:cad>0</ns3:cad>
          </ns3:TrackPointExtension>
        </extensions>
      </trkpt>
      <trkpt lat="45.2696625888347625732421875" lon="-71.1167670786380767822265625">
        <ele>985.79998779296875</ele>
        <time>2026-08-22T01:21:22.000Z</time>
        <extensions>
          <ns3:TrackPointExtension>
            <ns3:hr>128</ns3:hr>
            <ns3:cad>0</ns3:cad>
          </ns3:TrackPointExtension>
        </extensions>
      </trkpt>
      <trkpt lat="45.269653536379337310791015625" lon="-71.11675861291587352752685546875">
        <ele>986</ele>
        <time>2026-08-22T01:21:23.000Z</time>
        <extensions>
          <ns3:TrackPointExtension>
            <ns3:hr>128</ns3:hr>
            <ns3:cad>0</ns3:cad>
          </ns3:TrackPointExtension>
        </extensions>
      </trkpt>
      <trkpt lat="45.2696406282484531402587890625" lon="-71.1167444474995136260986328125">
        <ele>986.20001220703125</ele>
        <time>2026-08-22T01:21:24.000Z</time>
        <extensions>
          <ns3:TrackPointExtension>
            <ns3:hr>128</ns3:hr>
            <ns3:cad>0</ns3:cad>
          </ns3:TrackPointExtension>
        </extensions>
      </trkpt>
      <trkpt lat="45.2696335874497890472412109375" lon="-71.1167313717305660247802734375">
        <ele>986.4000244140625</ele>
        <time>2026-08-22T01:21:25.000Z</time>
        <extensions>
          <ns3:TrackPointExtension>
            <ns3:hr>129</ns3:hr>
            <ns3:cad>0</ns3:cad>
          </ns3:TrackPointExtension>
        </extensions>
      </trkpt>
      <trkpt lat="45.26962562464177608489990234375" lon="-71.11672022379934787750244140625">
        <ele>986.4000244140625</ele>
        <time>2026-08-22T01:21:26.000Z</time>
        <extensions>
          <ns3:TrackPointExtension>
            <ns3:hr>128</ns3:hr>
            <ns3:cad>0</ns3:cad>
          </ns3:TrackPointExtension>
        </extensions>
      </trkpt>
      <trkpt lat="45.26961891911923885345458984375" lon="-71.11671008169651031494140625">
        <ele>986.5999755859375</ele>
        <time>2026-08-22T01:21:27.000Z</time>
        <extensions>
          <ns3:TrackPointExtension>
            <ns3:hr>128</ns3:hr>
            <ns3:cad>0</ns3:cad>
          </ns3:TrackPointExtension>
        </extensions>
      </trkpt>
      <trkpt lat="45.26961271651089191436767578125" lon="-71.11669625155627727508544921875">
        <ele>986.5999755859375</ele>
        <time>2026-08-22T01:21:28.000Z</time>
        <extensions>
          <ns3:TrackPointExtension>
            <ns3:hr>128</ns3:hr>
            <ns3:cad>0</ns3:cad>
          </ns3:TrackPointExtension>
        </extensions>
      </trkpt>
      <trkpt lat="45.269604586064815521240234375" lon="-71.11667831428349018096923828125">
        <ele>986.79998779296875</ele>
        <time>2026-08-22T01:21:29.000Z</time>
        <extensions>
          <ns3:TrackPointExtension>
            <ns3:hr>129</ns3:hr>
            <ns3:cad>0</ns3:cad>
          </ns3:TrackPointExtension>
        </extensions>
      </trkpt>
      <trkpt lat="45.26959729380905628204345703125" lon="-71.1166597902774810791015625">
        <ele>986.79998779296875</ele>
        <time>2026-08-22T01:21:30.000Z</time>
        <extensions>
          <ns3:TrackPointExtension>
            <ns3:hr>128</ns3:hr>
            <ns3:cad>0</ns3:cad>
          </ns3:TrackPointExtension>
        </extensions>
      </trkpt>
      <trkpt lat="45.26958958245813846588134765625" lon="-71.11664243973791599273681640625">
        <ele>986.79998779296875</ele>
        <time>2026-08-22T01:21:31.000Z</time>
        <extensions>
          <ns3:TrackPointExtension>
            <ns3:hr>128</ns3:hr>
            <ns3:cad>0</ns3:cad>
          </ns3:TrackPointExtension>
        </extensions>
      </trkpt>
      <trkpt lat="45.2695794403553009033203125" lon="-71.116628944873809814453125">
        <ele>987</ele>
        <time>2026-08-22T01:21:32.000Z</time>
        <extensions>
          <ns3:TrackPointExtension>
            <ns3:hr>129</ns3:hr>
            <ns3:cad>53</ns3:cad>
          </ns3:TrackPointExtension>
        </extensions>
      </trkpt>
      <trkpt lat="45.26956762187182903289794921875" lon="-71.11661427654325962066650390625">
        <ele>987</ele>
        <time>2026-08-22T01:21:33.000Z</time>
        <extensions>
          <ns3:TrackPointExtension>
            <ns3:hr>129</ns3:hr>
            <ns3:cad>53</ns3:cad>
          </ns3:TrackPointExtension>
        </extensions>
      </trkpt>
      <trkpt lat="45.269558988511562347412109375" lon="-71.1166089959442615509033203125">
        <ele>987</ele>
        <time>2026-08-22T01:21:34.000Z</time>
        <extensions>
          <ns3:TrackPointExtension>
            <ns3:hr>129</ns3:hr>
            <ns3:cad>53</ns3:cad>
          </ns3:TrackPointExtension>
        </extensions>
      </trkpt>
      <trkpt lat="45.26954633183777332305908203125" lon="-71.11660279333591461181640625">
        <ele>987</ele>
        <time>2026-08-22T01:21:35.000Z</time>
        <extensions>
          <ns3:TrackPointExtension>
            <ns3:hr>129</ns3:hr>
            <ns3:cad>53</ns3:cad>
          </ns3:TrackPointExtension>
        </extensions>
      </trkpt>
      <trkpt lat="45.26953107677400112152099609375" lon="-71.1165955848991870880126953125">
        <ele>987</ele>
        <time>2026-08-22T01:21:36.000Z</time>
        <extensions>
          <ns3:TrackPointExtension>
            <ns3:hr>129</ns3:hr>
            <ns3:cad>53</ns3:cad>
          </ns3:TrackPointExtension>
        </extensions>
      </trkpt>
      <trkpt lat="45.26951707899570465087890625" lon="-71.116591729223728179931640625">
        <ele>986.79998779296875</ele>
        <time>2026-08-22T01:21:37.000Z</time>
        <extensions>
          <ns3:TrackPointExtension>
            <ns3:hr>129</ns3:hr>
            <ns3:cad>52</ns3:cad>
          </ns3:TrackPointExtension>
        </extensions>
      </trkpt>
      <trkpt lat="45.26950542815029621124267578125" lon="-71.11658628098666667938232421875">
        <ele>986.79998779296875</ele>
        <time>2026-08-22T01:21:38.000Z</time>
        <extensions>
          <ns3:TrackPointExtension>
            <ns3:hr>130</ns3:hr>
            <ns3:cad>52</ns3:cad>
          </ns3:TrackPointExtension>
        </extensions>
      </trkpt>
      <trkpt lat="45.26948648504912853240966796875" lon="-71.11657865345478057861328125">
        <ele>986.5999755859375</ele>
        <time>2026-08-22T01:21:39.000Z</time>
        <extensions>
          <ns3:TrackPointExtension>
            <ns3:hr>130</ns3:hr>
            <ns3:cad>52</ns3:cad>
          </ns3:TrackPointExtension>
        </extensions>
      </trkpt>
      <trkpt lat="45.269471146166324615478515625" lon="-71.11656683497130870819091796875">
        <ele>986.5999755859375</ele>
        <time>2026-08-22T01:21:40.000Z</time>
        <extensions>
          <ns3:TrackPointExtension>
            <ns3:hr>130</ns3:hr>
            <ns3:cad>0</ns3:cad>
          </ns3:TrackPointExtension>
        </extensions>
      </trkpt>
      <trkpt lat="45.26945631019771099090576171875" lon="-71.11655510030686855316162109375">
        <ele>986.4000244140625</ele>
        <time>2026-08-22T01:21:41.000Z</time>
        <extensions>
          <ns3:TrackPointExtension>
            <ns3:hr>129</ns3:hr>
            <ns3:cad>0</ns3:cad>
          </ns3:TrackPointExtension>
        </extensions>
      </trkpt>
      <trkpt lat="45.269440971314907073974609375" lon="-71.11654244363307952880859375">
        <ele>986.4000244140625</ele>
        <time>2026-08-22T01:21:42.000Z</time>
        <extensions>
          <ns3:TrackPointExtension>
            <ns3:hr>129</ns3:hr>
            <ns3:cad>0</ns3:cad>
          </ns3:TrackPointExtension>
        </extensions>
      </trkpt>
      <trkpt lat="45.2694320864975452423095703125" lon="-71.116531379520893096923828125">
        <ele>986.4000244140625</ele>
        <time>2026-08-22T01:21:43.000Z</time>
        <extensions>
          <ns3:TrackPointExtension>
            <ns3:hr>129</ns3:hr>
            <ns3:cad>0</ns3:cad>
          </ns3:TrackPointExtension>
        </extensions>
      </trkpt>
      <trkpt lat="45.26942144148051738739013671875" lon="-71.11651453189551830291748046875">
        <ele>986.20001220703125</ele>
        <time>2026-08-22T01:21:44.000Z</time>
        <extensions>
          <ns3:TrackPointExtension>
            <ns3:hr>129</ns3:hr>
            <ns3:cad>0</ns3:cad>
          </ns3:TrackPointExtension>
        </extensions>
      </trkpt>
      <trkpt lat="45.2694118022918701171875" lon="-71.11650279723107814788818359375">
        <ele>986.20001220703125</ele>
        <time>2026-08-22T01:21:45.000Z</time>
        <extensions>
          <ns3:TrackPointExtension>
            <ns3:hr>128</ns3:hr>
            <ns3:cad>0</ns3:cad>
          </ns3:TrackPointExtension>
        </extensions>
      </trkpt>
      <trkpt lat="45.269396714866161346435546875" lon="-71.1165030486881732940673828125">
        <ele>986.20001220703125</ele>
        <time>2026-08-22T01:21:46.000Z</time>
        <extensions>
          <ns3:TrackPointExtension>
            <ns3:hr>128</ns3:hr>
            <ns3:cad>0</ns3:cad>
          </ns3:TrackPointExtension>
        </extensions>
      </trkpt>
      <trkpt lat="45.2693903446197509765625" lon="-71.1165050603449344635009765625">
        <ele>986</ele>
        <time>2026-08-22T01:21:47.000Z</time>
        <extensions>
          <ns3:TrackPointExtension>
            <ns3:hr>128</ns3:hr>
            <ns3:cad>0</ns3:cad>
          </ns3:TrackPointExtension>
        </extensions>
      </trkpt>
      <trkpt lat="45.2693874947726726531982421875" lon="-71.11650967039167881011962890625">
        <ele>986</ele>
        <time>2026-08-22T01:21:48.000Z</time>
        <extensions>
          <ns3:TrackPointExtension>
            <ns3:hr>128</ns3:hr>
            <ns3:cad>0</ns3:cad>
          </ns3:TrackPointExtension>
        </extensions>
      </trkpt>
      <trkpt lat="45.26937701739370822906494140625" lon="-71.11650967039167881011962890625">
        <ele>986</ele>
        <time>2026-08-22T01:21:49.000Z</time>
        <extensions>
          <ns3:TrackPointExtension>
            <ns3:hr>128</ns3:hr>
            <ns3:cad>0</ns3:cad>
          </ns3:TrackPointExtension>
        </extensions>
      </trkpt>
      <trkpt lat="45.26936687529087066650390625" lon="-71.1165114305913448333740234375">
        <ele>986</ele>
        <time>2026-08-22T01:21:50.000Z</time>
        <extensions>
          <ns3:TrackPointExtension>
            <ns3:hr>127</ns3:hr>
            <ns3:cad>50</ns3:cad>
          </ns3:TrackPointExtension>
        </extensions>
      </trkpt>
      <trkpt lat="45.26935555972158908843994140625" lon="-71.1165121011435985565185546875">
        <ele>985.79998779296875</ele>
        <time>2026-08-22T01:21:51.000Z</time>
        <extensions>
          <ns3:TrackPointExtension>
            <ns3:hr>127</ns3:hr>
            <ns3:cad>50</ns3:cad>
          </ns3:TrackPointExtension>
        </extensions>
      </trkpt>
      <trkpt lat="45.26934315450489521026611328125" lon="-71.1165167950093746185302734375">
        <ele>985.79998779296875</ele>
        <time>2026-08-22T01:21:52.000Z</time>
        <extensions>
          <ns3:TrackPointExtension>
            <ns3:hr>126</ns3:hr>
            <ns3:cad>0</ns3:cad>
          </ns3:TrackPointExtension>
        </extensions>
      </trkpt>
      <trkpt lat="45.26933066546916961669921875" lon="-71.1165261827409267425537109375">
        <ele>985.5999755859375</ele>
        <time>2026-08-22T01:21:53.000Z</time>
        <extensions>
          <ns3:TrackPointExtension>
            <ns3:hr>126</ns3:hr>
            <ns3:cad>0</ns3:cad>
          </ns3:TrackPointExtension>
        </extensions>
      </trkpt>
      <trkpt lat="45.26931725442409515380859375" lon="-71.11653800122439861297607421875">
        <ele>985.4000244140625</ele>
        <time>2026-08-22T01:21:54.000Z</time>
        <extensions>
          <ns3:TrackPointExtension>
            <ns3:hr>126</ns3:hr>
            <ns3:cad>0</ns3:cad>
          </ns3:TrackPointExtension>
        </extensions>
      </trkpt>
      <trkpt lat="45.26930116117000579833984375" lon="-71.1165530048310756683349609375">
        <ele>985.4000244140625</ele>
        <time>2026-08-22T01:21:55.000Z</time>
        <extensions>
          <ns3:TrackPointExtension>
            <ns3:hr>125</ns3:hr>
            <ns3:cad>0</ns3:cad>
          </ns3:TrackPointExtension>
        </extensions>
      </trkpt>
      <trkpt lat="45.26928481645882129669189453125" lon="-71.11657002009451389312744140625">
        <ele>985.20001220703125</ele>
        <time>2026-08-22T01:21:56.000Z</time>
        <extensions>
          <ns3:TrackPointExtension>
            <ns3:hr>125</ns3:hr>
            <ns3:cad>0</ns3:cad>
          </ns3:TrackPointExtension>
        </extensions>
      </trkpt>
      <trkpt lat="45.2692683041095733642578125" lon="-71.1165801621973514556884765625">
        <ele>984.79998779296875</ele>
        <time>2026-08-22T01:21:57.000Z</time>
        <extensions>
          <ns3:TrackPointExtension>
            <ns3:hr>125</ns3:hr>
            <ns3:cad>0</ns3:cad>
          </ns3:TrackPointExtension>
        </extensions>
      </trkpt>
      <trkpt lat="45.2692527137696743011474609375" lon="-71.11659265123307704925537109375">
        <ele>984.5999755859375</ele>
        <time>2026-08-22T01:21:58.000Z</time>
        <extensions>
          <ns3:TrackPointExtension>
            <ns3:hr>124</ns3:hr>
            <ns3:cad>0</ns3:cad>
          </ns3:TrackPointExtension>
        </extensions>
      </trkpt>
      <trkpt lat="45.26924123056232929229736328125" lon="-71.11660405062139034271240234375">
        <ele>984.4000244140625</ele>
        <time>2026-08-22T01:21:59.000Z</time>
        <extensions>
          <ns3:TrackPointExtension>
            <ns3:hr>123</ns3:hr>
            <ns3:cad>0</ns3:cad>
          </ns3:TrackPointExtension>
        </extensions>
      </trkpt>
      <trkpt lat="45.2692280709743499755859375" lon="-71.11661595292389392852783203125">
        <ele>984</ele>
        <time>2026-08-22T01:22:00.000Z</time>
        <extensions>
          <ns3:TrackPointExtension>
            <ns3:hr>123</ns3:hr>
            <ns3:cad>0</ns3:cad>
          </ns3:TrackPointExtension>
        </extensions>
      </trkpt>
      <trkpt lat="45.26921910233795642852783203125" lon="-71.11663003452122211456298828125">
        <ele>984</ele>
        <time>2026-08-22T01:22:01.000Z</time>
        <extensions>
          <ns3:TrackPointExtension>
            <ns3:hr>123</ns3:hr>
            <ns3:cad>0</ns3:cad>
          </ns3:TrackPointExtension>
        </extensions>
      </trkpt>
      <trkpt lat="45.26920468546450138092041015625" lon="-71.11663372255861759185791015625">
        <ele>983.79998779296875</ele>
        <time>2026-08-22T01:22:02.000Z</time>
        <extensions>
          <ns3:TrackPointExtension>
            <ns3:hr>123</ns3:hr>
            <ns3:cad>0</ns3:cad>
          </ns3:TrackPointExtension>
        </extensions>
      </trkpt>
      <trkpt lat="45.26919496245682239532470703125" lon="-71.11664294265210628509521484375">
        <ele>983.79998779296875</ele>
        <time>2026-08-22T01:22:03.000Z</time>
        <extensions>
          <ns3:TrackPointExtension>
            <ns3:hr>123</ns3:hr>
            <ns3:cad>0</ns3:cad>
          </ns3:TrackPointExtension>
        </extensions>
      </trkpt>
      <trkpt lat="45.26918523944914340972900390625" lon="-71.116658784449100494384765625">
        <ele>983.79998779296875</ele>
        <time>2026-08-22T01:22:04.000Z</time>
        <extensions>
          <ns3:TrackPointExtension>
            <ns3:hr>124</ns3:hr>
            <ns3:cad>67</ns3:cad>
          </ns3:TrackPointExtension>
        </extensions>
      </trkpt>
      <trkpt lat="45.2691772766411304473876953125" lon="-71.11666850745677947998046875">
        <ele>983.79998779296875</ele>
        <time>2026-08-22T01:22:05.000Z</time>
        <extensions>
          <ns3:TrackPointExtension>
            <ns3:hr>123</ns3:hr>
            <ns3:cad>67</ns3:cad>
          </ns3:TrackPointExtension>
        </extensions>
      </trkpt>
      <trkpt lat="45.2691690623760223388671875" lon="-71.11667521297931671142578125">
        <ele>983.79998779296875</ele>
        <time>2026-08-22T01:22:06.000Z</time>
        <extensions>
          <ns3:TrackPointExtension>
            <ns3:hr>123</ns3:hr>
            <ns3:cad>68</ns3:cad>
          </ns3:TrackPointExtension>
        </extensions>
      </trkpt>
      <trkpt lat="45.26916344650089740753173828125" lon="-71.1166794039309024810791015625">
        <ele>983.79998779296875</ele>
        <time>2026-08-22T01:22:07.000Z</time>
        <extensions>
          <ns3:TrackPointExtension>
            <ns3:hr>123</ns3:hr>
            <ns3:cad>68</ns3:cad>
          </ns3:TrackPointExtension>
        </extensions>
      </trkpt>
      <trkpt lat="45.26915992610156536102294921875" lon="-71.11668451689183712005615234375">
        <ele>983.5999755859375</ele>
        <time>2026-08-22T01:22:08.000Z</time>
        <extensions>
          <ns3:TrackPointExtension>
            <ns3:hr>123</ns3:hr>
            <ns3:cad>53</ns3:cad>
          </ns3:TrackPointExtension>
        </extensions>
      </trkpt>
      <trkpt lat="45.2691581659018993377685546875" lon="-71.116688288748264312744140625">
        <ele>983.5999755859375</ele>
        <time>2026-08-22T01:22:09.000Z</time>
        <extensions>
          <ns3:TrackPointExtension>
            <ns3:hr>122</ns3:hr>
            <ns3:cad>0</ns3:cad>
          </ns3:TrackPointExtension>
        </extensions>
      </trkpt>
      <trkpt lat="45.269156657159328460693359375" lon="-71.11669172532856464385986328125">
        <ele>983.4000244140625</ele>
        <time>2026-08-22T01:22:10.000Z</time>
        <extensions>
          <ns3:TrackPointExtension>
            <ns3:hr>121</ns3:hr>
            <ns3:cad>0</ns3:cad>
          </ns3:TrackPointExtension>
        </extensions>
      </trkpt>
      <trkpt lat="45.269156657159328460693359375" lon="-71.11669172532856464385986328125">
        <ele>983.4000244140625</ele>
        <time>2026-08-22T01:22:11.000Z</time>
        <extensions>
          <ns3:TrackPointExtension>
            <ns3:hr>119</ns3:hr>
            <ns3:cad>0</ns3:cad>
          </ns3:TrackPointExtension>
        </extensions>
      </trkpt>
      <trkpt lat="45.269156657159328460693359375" lon="-71.11669172532856464385986328125">
        <ele>983.4000244140625</ele>
        <time>2026-08-22T01:22:12.000Z</time>
        <extensions>
          <ns3:TrackPointExtension>
            <ns3:hr>117</ns3:hr>
            <ns3:cad>0</ns3:cad>
          </ns3:TrackPointExtension>
        </extensions>
      </trkpt>
      <trkpt lat="45.269156992435455322265625" lon="-71.116692312061786651611328125">
        <ele>983.4000244140625</ele>
        <time>2026-08-22T01:22:13.000Z</time>
        <extensions>
          <ns3:TrackPointExtension>
            <ns3:hr>115</ns3:hr>
            <ns3:cad>0</ns3:cad>
          </ns3:TrackPointExtension>
        </extensions>
      </trkpt>
      <trkpt lat="45.26915204711258411407470703125" lon="-71.11669667065143585205078125">
        <ele>983.4000244140625</ele>
        <time>2026-08-22T01:22:14.000Z</time>
        <extensions>
          <ns3:TrackPointExtension>
            <ns3:hr>115</ns3:hr>
            <ns3:cad>0</ns3:cad>
          </ns3:TrackPointExtension>
        </extensions>
      </trkpt>
      <trkpt lat="45.2691447548568248748779296875" lon="-71.11670329235494136810302734375">
        <ele>983.4000244140625</ele>
        <time>2026-08-22T01:22:15.000Z</time>
        <extensions>
          <ns3:TrackPointExtension>
            <ns3:hr>114</ns3:hr>
            <ns3:cad>0</ns3:cad>
          </ns3:TrackPointExtension>
        </extensions>
      </trkpt>
      <trkpt lat="45.26913662441074848175048828125" lon="-71.11671016551554203033447265625">
        <ele>983.20001220703125</ele>
        <time>2026-08-22T01:22:16.000Z</time>
        <extensions>
          <ns3:TrackPointExtension>
            <ns3:hr>114</ns3:hr>
            <ns3:cad>0</ns3:cad>
          </ns3:TrackPointExtension>
        </extensions>
      </trkpt>
      <trkpt lat="45.26912673376500606536865234375" lon="-71.11671636812388896942138671875">
        <ele>983.20001220703125</ele>
        <time>2026-08-22T01:22:17.000Z</time>
        <extensions>
          <ns3:TrackPointExtension>
            <ns3:hr>114</ns3:hr>
            <ns3:cad>0</ns3:cad>
          </ns3:TrackPointExtension>
        </extensions>
      </trkpt>
      <trkpt lat="45.26911399327218532562255859375" lon="-71.1167295277118682861328125">
        <ele>983</ele>
        <time>2026-08-22T01:22:18.000Z</time>
        <extensions>
          <ns3:TrackPointExtension>
            <ns3:hr>115</ns3:hr>
            <ns3:cad>52</ns3:cad>
          </ns3:TrackPointExtension>
        </extensions>
      </trkpt>
      <trkpt lat="45.26910376735031604766845703125" lon="-71.11674134619534015655517578125">
        <ele>983</ele>
        <time>2026-08-22T01:22:19.000Z</time>
        <extensions>
          <ns3:TrackPointExtension>
            <ns3:hr>115</ns3:hr>
            <ns3:cad>52</ns3:cad>
          </ns3:TrackPointExtension>
        </extensions>
      </trkpt>
      <trkpt lat="45.26909136213362216949462890625" lon="-71.1167563498020172119140625">
        <ele>982.79998779296875</ele>
        <time>2026-08-22T01:22:20.000Z</time>
        <extensions>
          <ns3:TrackPointExtension>
            <ns3:hr>116</ns3:hr>
            <ns3:cad>52</ns3:cad>
          </ns3:TrackPointExtension>
        </extensions>
      </trkpt>
      <trkpt lat="45.2690813876688480377197265625" lon="-71.11677085049450397491455078125">
        <ele>982.5999755859375</ele>
        <time>2026-08-22T01:22:21.000Z</time>
        <extensions>
          <ns3:TrackPointExtension>
            <ns3:hr>115</ns3:hr>
            <ns3:cad>52</ns3:cad>
          </ns3:TrackPointExtension>
        </extensions>
      </trkpt>
      <trkpt lat="45.26906940154731273651123046875" lon="-71.1167793162167072296142578125">
        <ele>982.4000244140625</ele>
        <time>2026-08-22T01:22:22.000Z</time>
        <extensions>
          <ns3:TrackPointExtension>
            <ns3:hr>115</ns3:hr>
            <ns3:cad>52</ns3:cad>
          </ns3:TrackPointExtension>
        </extensions>
      </trkpt>
      <trkpt lat="45.26905867271125316619873046875" lon="-71.11678124405443668365478515625">
        <ele>982.20001220703125</ele>
        <time>2026-08-22T01:22:23.000Z</time>
        <extensions>
          <ns3:TrackPointExtension>
            <ns3:hr>116</ns3:hr>
            <ns3:cad>57</ns3:cad>
          </ns3:TrackPointExtension>
        </extensions>
      </trkpt>
      <trkpt lat="45.2690508775413036346435546875" lon="-71.1167866922914981842041015625">
        <ele>982</ele>
        <time>2026-08-22T01:22:24.000Z</time>
        <extensions>
          <ns3:TrackPointExtension>
            <ns3:hr>116</ns3:hr>
            <ns3:cad>57</ns3:cad>
          </ns3:TrackPointExtension>
        </extensions>
      </trkpt>
      <trkpt lat="45.26903972961008548736572265625" lon="-71.11680069006979465484619140625">
        <ele>981.79998779296875</ele>
        <time>2026-08-22T01:22:25.000Z</time>
        <extensions>
          <ns3:TrackPointExtension>
            <ns3:hr>116</ns3:hr>
            <ns3:cad>57</ns3:cad>
          </ns3:TrackPointExtension>
        </extensions>
      </trkpt>
      <trkpt lat="45.26902581565082073211669921875" lon="-71.11680873669683933258056640625">
        <ele>981.4000244140625</ele>
        <time>2026-08-22T01:22:26.000Z</time>
        <extensions>
          <ns3:TrackPointExtension>
            <ns3:hr>116</ns3:hr>
            <ns3:cad>57</ns3:cad>
          </ns3:TrackPointExtension>
        </extensions>
      </trkpt>
      <trkpt lat="45.2690126560628414154052734375" lon="-71.11681242473423480987548828125">
        <ele>981.20001220703125</ele>
        <time>2026-08-22T01:22:27.000Z</time>
        <extensions>
          <ns3:TrackPointExtension>
            <ns3:hr>117</ns3:hr>
            <ns3:cad>57</ns3:cad>
          </ns3:TrackPointExtension>
        </extensions>
      </trkpt>
      <trkpt lat="45.2690027654170989990234375" lon="-71.116822399199008941650390625">
        <ele>980.79998779296875</ele>
        <time>2026-08-22T01:22:28.000Z</time>
        <extensions>
          <ns3:TrackPointExtension>
            <ns3:hr>117</ns3:hr>
            <ns3:cad>57</ns3:cad>
          </ns3:TrackPointExtension>
        </extensions>
      </trkpt>
      <trkpt lat="45.26899077929556369781494140625" lon="-71.11682969145476818084716796875">
        <ele>980.4000244140625</ele>
        <time>2026-08-22T01:22:29.000Z</time>
        <extensions>
          <ns3:TrackPointExtension>
            <ns3:hr>117</ns3:hr>
            <ns3:cad>57</ns3:cad>
          </ns3:TrackPointExtension>
        </extensions>
      </trkpt>
      <trkpt lat="45.26897820644080638885498046875" lon="-71.1168410070240497589111328125">
        <ele>980</ele>
        <time>2026-08-22T01:22:30.000Z</time>
        <extensions>
          <ns3:TrackPointExtension>
            <ns3:hr>117</ns3:hr>
            <ns3:cad>0</ns3:cad>
          </ns3:TrackPointExtension>
        </extensions>
      </trkpt>
      <trkpt lat="45.2689740993082523345947265625" lon="-71.11684729345142841339111328125">
        <ele>979.5999755859375</ele>
        <time>2026-08-22T01:22:31.000Z</time>
        <extensions>
          <ns3:TrackPointExtension>
            <ns3:hr>117</ns3:hr>
            <ns3:cad>0</ns3:cad>
          </ns3:TrackPointExtension>
        </extensions>
      </trkpt>
      <trkpt lat="45.2689616940915584564208984375" lon="-71.11685332842171192169189453125">
        <ele>979.4000244140625</ele>
        <time>2026-08-22T01:22:32.000Z</time>
        <extensions>
          <ns3:TrackPointExtension>
            <ns3:hr>117</ns3:hr>
            <ns3:cad>0</ns3:cad>
          </ns3:TrackPointExtension>
        </extensions>
      </trkpt>
      <trkpt lat="45.26895104907453060150146484375" lon="-71.11686020158231258392333984375">
        <ele>979.20001220703125</ele>
        <time>2026-08-22T01:22:33.000Z</time>
        <extensions>
          <ns3:TrackPointExtension>
            <ns3:hr>117</ns3:hr>
            <ns3:cad>0</ns3:cad>
          </ns3:TrackPointExtension>
        </extensions>
      </trkpt>
      <trkpt lat="45.26893931441009044647216796875" lon="-71.1168688349425792694091796875">
        <ele>979</ele>
        <time>2026-08-22T01:22:34.000Z</time>
        <extensions>
          <ns3:TrackPointExtension>
            <ns3:hr>118</ns3:hr>
            <ns3:cad>0</ns3:cad>
          </ns3:TrackPointExtension>
        </extensions>
      </trkpt>
      <trkpt lat="45.26892825029790401458740234375" lon="-71.11688048578798770904541015625">
        <ele>979</ele>
        <time>2026-08-22T01:22:35.000Z</time>
        <extensions>
          <ns3:TrackPointExtension>
            <ns3:hr>118</ns3:hr>
            <ns3:cad>0</ns3:cad>
          </ns3:TrackPointExtension>
        </extensions>
      </trkpt>
      <trkpt lat="45.2689160965383052825927734375" lon="-71.116899512708187103271484375">
        <ele>978.79998779296875</ele>
        <time>2026-08-22T01:22:36.000Z</time>
        <extensions>
          <ns3:TrackPointExtension>
            <ns3:hr>118</ns3:hr>
            <ns3:cad>0</ns3:cad>
          </ns3:TrackPointExtension>
        </extensions>
      </trkpt>
      <trkpt lat="45.26890679262578487396240234375" lon="-71.11690613441169261932373046875">
        <ele>978.5999755859375</ele>
        <time>2026-08-22T01:22:37.000Z</time>
        <extensions>
          <ns3:TrackPointExtension>
            <ns3:hr>118</ns3:hr>
            <ns3:cad>0</ns3:cad>
          </ns3:TrackPointExtension>
        </extensions>
      </trkpt>
      <trkpt lat="45.26889346539974212646484375" lon="-71.1169167794287204742431640625">
        <ele>978.5999755859375</ele>
        <time>2026-08-22T01:22:38.000Z</time>
        <extensions>
          <ns3:TrackPointExtension>
            <ns3:hr>118</ns3:hr>
            <ns3:cad>0</ns3:cad>
          </ns3:TrackPointExtension>
        </extensions>
      </trkpt>
      <trkpt lat="45.2688869275152683258056640625" lon="-71.1169234849512577056884765625">
        <ele>978.20001220703125</ele>
        <time>2026-08-22T01:22:39.000Z</time>
        <extensions>
          <ns3:TrackPointExtension>
            <ns3:hr>118</ns3:hr>
            <ns3:cad>53</ns3:cad>
          </ns3:TrackPointExtension>
        </extensions>
      </trkpt>
      <trkpt lat="45.2688778750598430633544921875" lon="-71.116941086947917938232421875">
        <ele>978</ele>
        <time>2026-08-22T01:22:40.000Z</time>
        <extensions>
          <ns3:TrackPointExtension>
            <ns3:hr>117</ns3:hr>
            <ns3:cad>53</ns3:cad>
          </ns3:TrackPointExtension>
        </extensions>
      </trkpt>
      <trkpt lat="45.26886957697570323944091796875" lon="-71.116950474679470062255859375">
        <ele>977.79998779296875</ele>
        <time>2026-08-22T01:22:41.000Z</time>
        <extensions>
          <ns3:TrackPointExtension>
            <ns3:hr>118</ns3:hr>
            <ns3:cad>53</ns3:cad>
          </ns3:TrackPointExtension>
        </extensions>
      </trkpt>
      <trkpt lat="45.26885415427386760711669921875" lon="-71.11696212552487850189208984375">
        <ele>977.5999755859375</ele>
        <time>2026-08-22T01:22:42.000Z</time>
        <extensions>
          <ns3:TrackPointExtension>
            <ns3:hr>118</ns3:hr>
            <ns3:cad>0</ns3:cad>
          </ns3:TrackPointExtension>
        </extensions>
      </trkpt>
      <trkpt lat="45.268846862018108367919921875" lon="-71.116971261799335479736328125">
        <ele>977.4000244140625</ele>
        <time>2026-08-22T01:22:43.000Z</time>
        <extensions>
          <ns3:TrackPointExtension>
            <ns3:hr>117</ns3:hr>
            <ns3:cad>0</ns3:cad>
          </ns3:TrackPointExtension>
        </extensions>
      </trkpt>
      <trkpt lat="45.268840156495571136474609375" lon="-71.11698291264474391937255859375">
        <ele>977.20001220703125</ele>
        <time>2026-08-22T01:22:44.000Z</time>
        <extensions>
          <ns3:TrackPointExtension>
            <ns3:hr>117</ns3:hr>
            <ns3:cad>0</ns3:cad>
          </ns3:TrackPointExtension>
        </extensions>
      </trkpt>
      <trkpt lat="45.26882783509790897369384765625" lon="-71.11698903143405914306640625">
        <ele>977</ele>
        <time>2026-08-22T01:22:45.000Z</time>
        <extensions>
          <ns3:TrackPointExtension>
            <ns3:hr>117</ns3:hr>
            <ns3:cad>0</ns3:cad>
          </ns3:TrackPointExtension>
        </extensions>
      </trkpt>
      <trkpt lat="45.26882280595600605010986328125" lon="-71.11699330620467662811279296875">
        <ele>976.79998779296875</ele>
        <time>2026-08-22T01:22:46.000Z</time>
        <extensions>
          <ns3:TrackPointExtension>
            <ns3:hr>118</ns3:hr>
            <ns3:cad>61</ns3:cad>
          </ns3:TrackPointExtension>
        </extensions>
      </trkpt>
      <trkpt lat="45.26880956254899501800537109375" lon="-71.11700068227946758270263671875">
        <ele>976.5999755859375</ele>
        <time>2026-08-22T01:22:47.000Z</time>
        <extensions>
          <ns3:TrackPointExtension>
            <ns3:hr>118</ns3:hr>
            <ns3:cad>61</ns3:cad>
          </ns3:TrackPointExtension>
        </extensions>
      </trkpt>
      <trkpt lat="45.26879447512328624725341796875" lon="-71.11701761372387409210205078125">
        <ele>976.4000244140625</ele>
        <time>2026-08-22T01:22:48.000Z</time>
        <extensions>
          <ns3:TrackPointExtension>
            <ns3:hr>117</ns3:hr>
            <ns3:cad>61</ns3:cad>
          </ns3:TrackPointExtension>
        </extensions>
      </trkpt>
      <trkpt lat="45.2687843330204486846923828125" lon="-71.11702582798898220062255859375">
        <ele>976.20001220703125</ele>
        <time>2026-08-22T01:22:49.000Z</time>
        <extensions>
          <ns3:TrackPointExtension>
            <ns3:hr>117</ns3:hr>
            <ns3:cad>61</ns3:cad>
          </ns3:TrackPointExtension>
        </extensions>
      </trkpt>
      <trkpt lat="45.26877536438405513763427734375" lon="-71.1170351319015026092529296875">
        <ele>975.79998779296875</ele>
        <time>2026-08-22T01:22:50.000Z</time>
        <extensions>
          <ns3:TrackPointExtension>
            <ns3:hr>117</ns3:hr>
            <ns3:cad>61</ns3:cad>
          </ns3:TrackPointExtension>
        </extensions>
      </trkpt>
      <trkpt lat="45.26876027695834636688232421875" lon="-71.117046363651752471923828125">
        <ele>975.4000244140625</ele>
        <time>2026-08-22T01:22:51.000Z</time>
        <extensions>
          <ns3:TrackPointExtension>
            <ns3:hr>117</ns3:hr>
            <ns3:cad>0</ns3:cad>
          </ns3:TrackPointExtension>
        </extensions>
      </trkpt>
      <trkpt lat="45.26875055395066738128662109375" lon="-71.1170559190213680267333984375">
        <ele>975.20001220703125</ele>
        <time>2026-08-22T01:22:52.000Z</time>
        <extensions>
          <ns3:TrackPointExtension>
            <ns3:hr>117</ns3:hr>
            <ns3:cad>0</ns3:cad>
          </ns3:TrackPointExtension>
        </extensions>
      </trkpt>
      <trkpt lat="45.2687350474298000335693359375" lon="-71.11706706695258617401123046875">
        <ele>974.79998779296875</ele>
        <time>2026-08-22T01:22:53.000Z</time>
        <extensions>
          <ns3:TrackPointExtension>
            <ns3:hr>117</ns3:hr>
            <ns3:cad>0</ns3:cad>
          </ns3:TrackPointExtension>
        </extensions>
      </trkpt>
      <trkpt lat="45.2687236480414867401123046875" lon="-71.1170770414173603057861328125">
        <ele>974.4000244140625</ele>
        <time>2026-08-22T01:22:54.000Z</time>
        <extensions>
          <ns3:TrackPointExtension>
            <ns3:hr>117</ns3:hr>
            <ns3:cad>0</ns3:cad>
          </ns3:TrackPointExtension>
        </extensions>
      </trkpt>
      <trkpt lat="45.26871769689023494720458984375" lon="-71.1170911230146884918212890625">
        <ele>974.20001220703125</ele>
        <time>2026-08-22T01:22:55.000Z</time>
        <extensions>
          <ns3:TrackPointExtension>
            <ns3:hr>117</ns3:hr>
            <ns3:cad>0</ns3:cad>
          </ns3:TrackPointExtension>
        </extensions>
      </trkpt>
      <trkpt lat="45.268707387149333953857421875" lon="-71.11710294149816036224365234375">
        <ele>974</ele>
        <time>2026-08-22T01:22:56.000Z</time>
        <extensions>
          <ns3:TrackPointExtension>
            <ns3:hr>117</ns3:hr>
            <ns3:cad>0</ns3:cad>
          </ns3:TrackPointExtension>
        </extensions>
      </trkpt>
      <trkpt lat="45.268695652484893798828125" lon="-71.11711635254323482513427734375">
        <ele>973.79998779296875</ele>
        <time>2026-08-22T01:22:57.000Z</time>
        <extensions>
          <ns3:TrackPointExtension>
            <ns3:hr>117</ns3:hr>
            <ns3:cad>0</ns3:cad>
          </ns3:TrackPointExtension>
        </extensions>
      </trkpt>
      <trkpt lat="45.26868651621043682098388671875" lon="-71.11712641082704067230224609375">
        <ele>973.5999755859375</ele>
        <time>2026-08-22T01:22:58.000Z</time>
        <extensions>
          <ns3:TrackPointExtension>
            <ns3:hr>116</ns3:hr>
            <ns3:cad>0</ns3:cad>
          </ns3:TrackPointExtension>
        </extensions>
      </trkpt>
      <trkpt lat="45.268679223954677581787109375" lon="-71.11713881604373455047607421875">
        <ele>973.4000244140625</ele>
        <time>2026-08-22T01:22:59.000Z</time>
        <extensions>
          <ns3:TrackPointExtension>
            <ns3:hr>115</ns3:hr>
            <ns3:cad>0</ns3:cad>
          </ns3:TrackPointExtension>
        </extensions>
      </trkpt>
      <trkpt lat="45.2686663158237934112548828125" lon="-71.11715205945074558258056640625">
        <ele>973.4000244140625</ele>
        <time>2026-08-22T01:23:00.000Z</time>
        <extensions>
          <ns3:TrackPointExtension>
            <ns3:hr>114</ns3:hr>
            <ns3:cad>0</ns3:cad>
          </ns3:TrackPointExtension>
        </extensions>
      </trkpt>
      <trkpt lat="45.26865617372095584869384765625" lon="-71.11716094426810741424560546875">
        <ele>973.20001220703125</ele>
        <time>2026-08-22T01:23:01.000Z</time>
        <extensions>
          <ns3:TrackPointExtension>
            <ns3:hr>114</ns3:hr>
            <ns3:cad>0</ns3:cad>
          </ns3:TrackPointExtension>
        </extensions>
      </trkpt>
      <trkpt lat="45.26864544488489627838134765625" lon="-71.11716949380934238433837890625">
        <ele>973</ele>
        <time>2026-08-22T01:23:02.000Z</time>
        <extensions>
          <ns3:TrackPointExtension>
            <ns3:hr>113</ns3:hr>
            <ns3:cad>0</ns3:cad>
          </ns3:TrackPointExtension>
        </extensions>
      </trkpt>
      <trkpt lat="45.26863865554332733154296875" lon="-71.11718080937862396240234375">
        <ele>973</ele>
        <time>2026-08-22T01:23:03.000Z</time>
        <extensions>
          <ns3:TrackPointExtension>
            <ns3:hr>113</ns3:hr>
            <ns3:cad>0</ns3:cad>
          </ns3:TrackPointExtension>
        </extensions>
      </trkpt>
      <trkpt lat="45.26862499304115772247314453125" lon="-71.11719396896660327911376953125">
        <ele>972.79998779296875</ele>
        <time>2026-08-22T01:23:04.000Z</time>
        <extensions>
          <ns3:TrackPointExtension>
            <ns3:hr>113</ns3:hr>
            <ns3:cad>0</ns3:cad>
          </ns3:TrackPointExtension>
        </extensions>
      </trkpt>
      <trkpt lat="45.2686180360615253448486328125" lon="-71.1172000877559185028076171875">
        <ele>972.79998779296875</ele>
        <time>2026-08-22T01:23:05.000Z</time>
        <extensions>
          <ns3:TrackPointExtension>
            <ns3:hr>113</ns3:hr>
            <ns3:cad>0</ns3:cad>
          </ns3:TrackPointExtension>
        </extensions>
      </trkpt>
      <trkpt lat="45.26861091144382953643798828125" lon="-71.11720218323171138763427734375">
        <ele>972.5999755859375</ele>
        <time>2026-08-22T01:23:06.000Z</time>
        <extensions>
          <ns3:TrackPointExtension>
            <ns3:hr>112</ns3:hr>
            <ns3:cad>0</ns3:cad>
          </ns3:TrackPointExtension>
        </extensions>
      </trkpt>
      <trkpt lat="45.26859632693231105804443359375" lon="-71.11720637418329715728759765625">
        <ele>972.5999755859375</ele>
        <time>2026-08-22T01:23:07.000Z</time>
        <extensions>
          <ns3:TrackPointExtension>
            <ns3:hr>113</ns3:hr>
            <ns3:cad>0</ns3:cad>
          </ns3:TrackPointExtension>
        </extensions>
      </trkpt>
      <trkpt lat="45.26858677156269550323486328125" lon="-71.11721433699131011962890625">
        <ele>972.4000244140625</ele>
        <time>2026-08-22T01:23:08.000Z</time>
        <extensions>
          <ns3:TrackPointExtension>
            <ns3:hr>112</ns3:hr>
            <ns3:cad>0</ns3:cad>
          </ns3:TrackPointExtension>
        </extensions>
      </trkpt>
      <trkpt lat="45.26857939548790454864501953125" lon="-71.11722062341868877410888671875">
        <ele>972.4000244140625</ele>
        <time>2026-08-22T01:23:09.000Z</time>
        <extensions>
          <ns3:TrackPointExtension>
            <ns3:hr>112</ns3:hr>
            <ns3:cad>0</ns3:cad>
          </ns3:TrackPointExtension>
        </extensions>
      </trkpt>
      <trkpt lat="45.26856279931962490081787109375" lon="-71.11722582019865512847900390625">
        <ele>972.20001220703125</ele>
        <time>2026-08-22T01:23:10.000Z</time>
        <extensions>
          <ns3:TrackPointExtension>
            <ns3:hr>112</ns3:hr>
            <ns3:cad>0</ns3:cad>
          </ns3:TrackPointExtension>
        </extensions>
      </trkpt>
      <trkpt lat="45.26855424977838993072509765625" lon="-71.11723554320633411407470703125">
        <ele>972.20001220703125</ele>
        <time>2026-08-22T01:23:11.000Z</time>
        <extensions>
          <ns3:TrackPointExtension>
            <ns3:hr>113</ns3:hr>
            <ns3:cad>0</ns3:cad>
          </ns3:TrackPointExtension>
        </extensions>
      </trkpt>
      <trkpt lat="45.26854670606553554534912109375" lon="-71.11724660731852054595947265625">
        <ele>972</ele>
        <time>2026-08-22T01:23:12.000Z</time>
        <extensions>
          <ns3:TrackPointExtension>
            <ns3:hr>112</ns3:hr>
            <ns3:cad>0</ns3:cad>
          </ns3:TrackPointExtension>
        </extensions>
      </trkpt>
      <trkpt lat="45.26854150928556919097900390625" lon="-71.11725725233554840087890625">
        <ele>972</ele>
        <time>2026-08-22T01:23:13.000Z</time>
        <extensions>
          <ns3:TrackPointExtension>
            <ns3:hr>112</ns3:hr>
            <ns3:cad>0</ns3:cad>
          </ns3:TrackPointExtension>
        </extensions>
      </trkpt>
      <trkpt lat="45.268533714115619659423828125" lon="-71.1172686517238616943359375">
        <ele>972</ele>
        <time>2026-08-22T01:23:14.000Z</time>
        <extensions>
          <ns3:TrackPointExtension>
            <ns3:hr>113</ns3:hr>
            <ns3:cad>0</ns3:cad>
          </ns3:TrackPointExtension>
        </extensions>
      </trkpt>
      <trkpt lat="45.26852105744183063507080078125" lon="-71.1172766983509063720703125">
        <ele>971.79998779296875</ele>
        <time>2026-08-22T01:23:15.000Z</time>
        <extensions>
          <ns3:TrackPointExtension>
            <ns3:hr>112</ns3:hr>
            <ns3:cad>0</ns3:cad>
          </ns3:TrackPointExtension>
        </extensions>
      </trkpt>
      <trkpt lat="45.26851066388189792633056640625" lon="-71.11728533171117305755615234375">
        <ele>971.79998779296875</ele>
        <time>2026-08-22T01:23:16.000Z</time>
        <extensions>
          <ns3:TrackPointExtension>
            <ns3:hr>113</ns3:hr>
            <ns3:cad>0</ns3:cad>
          </ns3:TrackPointExtension>
        </extensions>
      </trkpt>
      <trkpt lat="45.26849473826587200164794921875" lon="-71.1172929592430591583251953125">
        <ele>971.79998779296875</ele>
        <time>2026-08-22T01:23:17.000Z</time>
        <extensions>
          <ns3:TrackPointExtension>
            <ns3:hr>113</ns3:hr>
            <ns3:cad>0</ns3:cad>
          </ns3:TrackPointExtension>
        </extensions>
      </trkpt>
      <trkpt lat="45.26848308742046356201171875" lon="-71.11730955541133880615234375">
        <ele>971.5999755859375</ele>
        <time>2026-08-22T01:23:18.000Z</time>
        <extensions>
          <ns3:TrackPointExtension>
            <ns3:hr>113</ns3:hr>
            <ns3:cad>0</ns3:cad>
          </ns3:TrackPointExtension>
        </extensions>
      </trkpt>
      <trkpt lat="45.2684742026031017303466796875" lon="-71.11732120625674724578857421875">
        <ele>971.4000244140625</ele>
        <time>2026-08-22T01:23:19.000Z</time>
        <extensions>
          <ns3:TrackPointExtension>
            <ns3:hr>112</ns3:hr>
            <ns3:cad>0</ns3:cad>
          </ns3:TrackPointExtension>
        </extensions>
      </trkpt>
      <trkpt lat="45.268460623919963836669921875" lon="-71.1173268221318721771240234375">
        <ele>971.4000244140625</ele>
        <time>2026-08-22T01:23:20.000Z</time>
        <extensions>
          <ns3:TrackPointExtension>
            <ns3:hr>112</ns3:hr>
            <ns3:cad>0</ns3:cad>
          </ns3:TrackPointExtension>
        </extensions>
      </trkpt>
      <trkpt lat="45.26844847016036510467529296875" lon="-71.11734199337661266326904296875">
        <ele>971.20001220703125</ele>
        <time>2026-08-22T01:23:21.000Z</time>
        <extensions>
          <ns3:TrackPointExtension>
            <ns3:hr>112</ns3:hr>
            <ns3:cad>0</ns3:cad>
          </ns3:TrackPointExtension>
        </extensions>
      </trkpt>
      <trkpt lat="45.268440507352352142333984375" lon="-71.11734953708946704864501953125">
        <ele>971</ele>
        <time>2026-08-22T01:23:22.000Z</time>
        <extensions>
          <ns3:TrackPointExtension>
            <ns3:hr>112</ns3:hr>
            <ns3:cad>0</ns3:cad>
          </ns3:TrackPointExtension>
        </extensions>
      </trkpt>
      <trkpt lat="45.26842365972697734832763671875" lon="-71.11735607497394084930419921875">
        <ele>971</ele>
        <time>2026-08-22T01:23:23.000Z</time>
        <extensions>
          <ns3:TrackPointExtension>
            <ns3:hr>112</ns3:hr>
            <ns3:cad>0</ns3:cad>
          </ns3:TrackPointExtension>
        </extensions>
      </trkpt>
      <trkpt lat="45.26840689592063426971435546875" lon="-71.1173665523529052734375">
        <ele>970.79998779296875</ele>
        <time>2026-08-22T01:23:24.000Z</time>
        <extensions>
          <ns3:TrackPointExtension>
            <ns3:hr>113</ns3:hr>
            <ns3:cad>53</ns3:cad>
          </ns3:TrackPointExtension>
        </extensions>
      </trkpt>
      <trkpt lat="45.268398933112621307373046875" lon="-71.11737585626542568206787109375">
        <ele>970.5999755859375</ele>
        <time>2026-08-22T01:23:25.000Z</time>
        <extensions>
          <ns3:TrackPointExtension>
            <ns3:hr>112</ns3:hr>
            <ns3:cad>53</ns3:cad>
          </ns3:TrackPointExtension>
        </extensions>
      </trkpt>
      <trkpt lat="45.26838476769626140594482421875" lon="-71.1173878423869609832763671875">
        <ele>970.4000244140625</ele>
        <time>2026-08-22T01:23:26.000Z</time>
        <extensions>
          <ns3:TrackPointExtension>
            <ns3:hr>112</ns3:hr>
            <ns3:cad>53</ns3:cad>
          </ns3:TrackPointExtension>
        </extensions>
      </trkpt>
      <trkpt lat="45.26837638579308986663818359375" lon="-71.1173975653946399688720703125">
        <ele>970.20001220703125</ele>
        <time>2026-08-22T01:23:27.000Z</time>
        <extensions>
          <ns3:TrackPointExtension>
            <ns3:hr>111</ns3:hr>
            <ns3:cad>0</ns3:cad>
          </ns3:TrackPointExtension>
        </extensions>
      </trkpt>
      <trkpt lat="45.2683625556528568267822265625" lon="-71.11741013824939727783203125">
        <ele>970</ele>
        <time>2026-08-22T01:23:28.000Z</time>
        <extensions>
          <ns3:TrackPointExtension>
            <ns3:hr>111</ns3:hr>
            <ns3:cad>0</ns3:cad>
          </ns3:TrackPointExtension>
        </extensions>
      </trkpt>
      <trkpt lat="45.2683508209884166717529296875" lon="-71.11741877160966396331787109375">
        <ele>969.79998779296875</ele>
        <time>2026-08-22T01:23:29.000Z</time>
        <extensions>
          <ns3:TrackPointExtension>
            <ns3:hr>111</ns3:hr>
            <ns3:cad>0</ns3:cad>
          </ns3:TrackPointExtension>
        </extensions>
      </trkpt>
      <trkpt lat="45.268335901200771331787109375" lon="-71.117433607578277587890625">
        <ele>969.5999755859375</ele>
        <time>2026-08-22T01:23:30.000Z</time>
        <extensions>
          <ns3:TrackPointExtension>
            <ns3:hr>111</ns3:hr>
            <ns3:cad>68</ns3:cad>
          </ns3:TrackPointExtension>
        </extensions>
      </trkpt>
      <trkpt lat="45.268325842916965484619140625" lon="-71.11744911409914493560791015625">
        <ele>969.4000244140625</ele>
        <time>2026-08-22T01:23:31.000Z</time>
        <extensions>
          <ns3:TrackPointExtension>
            <ns3:hr>112</ns3:hr>
            <ns3:cad>68</ns3:cad>
          </ns3:TrackPointExtension>
        </extensions>
      </trkpt>
      <trkpt lat="45.2683132700622081756591796875" lon="-71.11745816655457019805908203125">
        <ele>969.4000244140625</ele>
        <time>2026-08-22T01:23:32.000Z</time>
        <extensions>
          <ns3:TrackPointExtension>
            <ns3:hr>112</ns3:hr>
            <ns3:cad>68</ns3:cad>
          </ns3:TrackPointExtension>
        </extensions>
      </trkpt>
      <trkpt lat="45.2682988531887531280517578125" lon="-71.11747124232351779937744140625">
        <ele>969.20001220703125</ele>
        <time>2026-08-22T01:23:33.000Z</time>
        <extensions>
          <ns3:TrackPointExtension>
            <ns3:hr>112</ns3:hr>
            <ns3:cad>68</ns3:cad>
          </ns3:TrackPointExtension>
        </extensions>
      </trkpt>
      <trkpt lat="45.26828904636204242706298828125" lon="-71.11748389899730682373046875">
        <ele>969.20001220703125</ele>
        <time>2026-08-22T01:23:34.000Z</time>
        <extensions>
          <ns3:TrackPointExtension>
            <ns3:hr>112</ns3:hr>
            <ns3:cad>0</ns3:cad>
          </ns3:TrackPointExtension>
        </extensions>
      </trkpt>
      <trkpt lat="45.268278904259204864501953125" lon="-71.11749521456658840179443359375">
        <ele>969</ele>
        <time>2026-08-22T01:23:35.000Z</time>
        <extensions>
          <ns3:TrackPointExtension>
            <ns3:hr>112</ns3:hr>
            <ns3:cad>0</ns3:cad>
          </ns3:TrackPointExtension>
        </extensions>
      </trkpt>
      <trkpt lat="45.2682683430612087249755859375" lon="-71.1175100505352020263671875">
        <ele>969</ele>
        <time>2026-08-22T01:23:36.000Z</time>
        <extensions>
          <ns3:TrackPointExtension>
            <ns3:hr>112</ns3:hr>
            <ns3:cad>0</ns3:cad>
          </ns3:TrackPointExtension>
        </extensions>
      </trkpt>
      <trkpt lat="45.2682651579380035400390625" lon="-71.11752815544605255126953125">
        <ele>968.79998779296875</ele>
        <time>2026-08-22T01:23:37.000Z</time>
        <extensions>
          <ns3:TrackPointExtension>
            <ns3:hr>112</ns3:hr>
            <ns3:cad>0</ns3:cad>
          </ns3:TrackPointExtension>
        </extensions>
      </trkpt>
      <trkpt lat="45.26825602166354656219482421875" lon="-71.117545254528522491455078125">
        <ele>968.5999755859375</ele>
        <time>2026-08-22T01:23:38.000Z</time>
        <extensions>
          <ns3:TrackPointExtension>
            <ns3:hr>111</ns3:hr>
            <ns3:cad>0</ns3:cad>
          </ns3:TrackPointExtension>
        </extensions>
      </trkpt>
      <trkpt lat="45.26824646629393100738525390625" lon="-71.11755690537393093109130859375">
        <ele>968.4000244140625</ele>
        <time>2026-08-22T01:23:39.000Z</time>
        <extensions>
          <ns3:TrackPointExtension>
            <ns3:hr>111</ns3:hr>
            <ns3:cad>0</ns3:cad>
          </ns3:TrackPointExtension>
        </extensions>
      </trkpt>
      <trkpt lat="45.26823255233466625213623046875" lon="-71.1175725795328617095947265625">
        <ele>968</ele>
        <time>2026-08-22T01:23:40.000Z</time>
        <extensions>
          <ns3:TrackPointExtension>
            <ns3:hr>111</ns3:hr>
            <ns3:cad>0</ns3:cad>
          </ns3:TrackPointExtension>
        </extensions>
      </trkpt>
      <trkpt lat="45.26822400279343128204345703125" lon="-71.11758506856858730316162109375">
        <ele>967.79998779296875</ele>
        <time>2026-08-22T01:23:41.000Z</time>
        <extensions>
          <ns3:TrackPointExtension>
            <ns3:hr>111</ns3:hr>
            <ns3:cad>64</ns3:cad>
          </ns3:TrackPointExtension>
        </extensions>
      </trkpt>
      <trkpt lat="45.268207490444183349609375" lon="-71.117602251470088958740234375">
        <ele>967.5999755859375</ele>
        <time>2026-08-22T01:23:42.000Z</time>
        <extensions>
          <ns3:TrackPointExtension>
            <ns3:hr>111</ns3:hr>
            <ns3:cad>64</ns3:cad>
          </ns3:TrackPointExtension>
        </extensions>
      </trkpt>
      <trkpt lat="45.268201120197772979736328125" lon="-71.1176151596009731292724609375">
        <ele>967.4000244140625</ele>
        <time>2026-08-22T01:23:43.000Z</time>
        <extensions>
          <ns3:TrackPointExtension>
            <ns3:hr>112</ns3:hr>
            <ns3:cad>64</ns3:cad>
          </ns3:TrackPointExtension>
        </extensions>
      </trkpt>
      <trkpt lat="45.268195085227489471435546875" lon="-71.117635779082775115966796875">
        <ele>967.20001220703125</ele>
        <time>2026-08-22T01:23:44.000Z</time>
        <extensions>
          <ns3:TrackPointExtension>
            <ns3:hr>112</ns3:hr>
            <ns3:cad>64</ns3:cad>
          </ns3:TrackPointExtension>
        </extensions>
      </trkpt>
      <trkpt lat="45.26818578131496906280517578125" lon="-71.11765329726040363311767578125">
        <ele>967</ele>
        <time>2026-08-22T01:23:45.000Z</time>
        <extensions>
          <ns3:TrackPointExtension>
            <ns3:hr>112</ns3:hr>
            <ns3:cad>64</ns3:cad>
          </ns3:TrackPointExtension>
        </extensions>
      </trkpt>
      <trkpt lat="45.2681805007159709930419921875" lon="-71.1176708154380321502685546875">
        <ele>967</ele>
        <time>2026-08-22T01:23:46.000Z</time>
        <extensions>
          <ns3:TrackPointExtension>
            <ns3:hr>112</ns3:hr>
            <ns3:cad>64</ns3:cad>
          </ns3:TrackPointExtension>
        </extensions>
      </trkpt>
      <trkpt lat="45.26817186735570430755615234375" lon="-71.11768506467342376708984375">
        <ele>966.79998779296875</ele>
        <time>2026-08-22T01:23:47.000Z</time>
        <extensions>
          <ns3:TrackPointExtension>
            <ns3:hr>112</ns3:hr>
            <ns3:cad>64</ns3:cad>
          </ns3:TrackPointExtension>
        </extensions>
      </trkpt>
      <trkpt lat="45.2681672573089599609375" lon="-71.11769981682300567626953125">
        <ele>966.5999755859375</ele>
        <time>2026-08-22T01:23:48.000Z</time>
        <extensions>
          <ns3:TrackPointExtension>
            <ns3:hr>111</ns3:hr>
            <ns3:cad>64</ns3:cad>
          </ns3:TrackPointExtension>
        </extensions>
      </trkpt>
      <trkpt lat="45.26815912686288356781005859375" lon="-71.11771523952484130859375">
        <ele>966.5999755859375</ele>
        <time>2026-08-22T01:23:49.000Z</time>
        <extensions>
          <ns3:TrackPointExtension>
            <ns3:hr>111</ns3:hr>
            <ns3:cad>62</ns3:cad>
          </ns3:TrackPointExtension>
        </extensions>
      </trkpt>
      <trkpt lat="45.2681526727974414825439453125" lon="-71.11773393116891384124755859375">
        <ele>966.4000244140625</ele>
        <time>2026-08-22T01:23:50.000Z</time>
        <extensions>
          <ns3:TrackPointExtension>
            <ns3:hr>111</ns3:hr>
            <ns3:cad>62</ns3:cad>
          </ns3:TrackPointExtension>
        </extensions>
      </trkpt>
      <trkpt lat="45.2681439556181430816650390625" lon="-71.1177512817084789276123046875">
        <ele>966.20001220703125</ele>
        <time>2026-08-22T01:23:51.000Z</time>
        <extensions>
          <ns3:TrackPointExtension>
            <ns3:hr>110</ns3:hr>
            <ns3:cad>56</ns3:cad>
          </ns3:TrackPointExtension>
        </extensions>
      </trkpt>
      <trkpt lat="45.26813708245754241943359375" lon="-71.11776980571448802947998046875">
        <ele>966</ele>
        <time>2026-08-22T01:23:52.000Z</time>
        <extensions>
          <ns3:TrackPointExtension>
            <ns3:hr>110</ns3:hr>
            <ns3:cad>56</ns3:cad>
          </ns3:TrackPointExtension>
        </extensions>
      </trkpt>
      <trkpt lat="45.2681310474872589111328125" lon="-71.11778170801699161529541015625">
        <ele>965.79998779296875</ele>
        <time>2026-08-22T01:23:53.000Z</time>
        <extensions>
          <ns3:TrackPointExtension>
            <ns3:hr>109</ns3:hr>
            <ns3:cad>56</ns3:cad>
          </ns3:TrackPointExtension>
        </extensions>
      </trkpt>
      <trkpt lat="45.268121995031833648681640625" lon="-71.117798052728176116943359375">
        <ele>965.5999755859375</ele>
        <time>2026-08-22T01:23:54.000Z</time>
        <extensions>
          <ns3:TrackPointExtension>
            <ns3:hr>108</ns3:hr>
            <ns3:cad>56</ns3:cad>
          </ns3:TrackPointExtension>
        </extensions>
      </trkpt>
      <trkpt lat="45.26811562478542327880859375" lon="-71.1178131401538848876953125">
        <ele>965.4000244140625</ele>
        <time>2026-08-22T01:23:55.000Z</time>
        <extensions>
          <ns3:TrackPointExtension>
            <ns3:hr>108</ns3:hr>
            <ns3:cad>56</ns3:cad>
          </ns3:TrackPointExtension>
        </extensions>
      </trkpt>
      <trkpt lat="45.2681074105203151702880859375" lon="-71.117824204266071319580078125">
        <ele>965.20001220703125</ele>
        <time>2026-08-22T01:23:56.000Z</time>
        <extensions>
          <ns3:TrackPointExtension>
            <ns3:hr>108</ns3:hr>
            <ns3:cad>56</ns3:cad>
          </ns3:TrackPointExtension>
        </extensions>
      </trkpt>
      <trkpt lat="45.26809626258909702301025390625" lon="-71.11783753149211406707763671875">
        <ele>965</ele>
        <time>2026-08-22T01:23:57.000Z</time>
        <extensions>
          <ns3:TrackPointExtension>
            <ns3:hr>109</ns3:hr>
            <ns3:cad>56</ns3:cad>
          </ns3:TrackPointExtension>
        </extensions>
      </trkpt>
      <trkpt lat="45.26808821596205234527587890625" lon="-71.117846667766571044921875">
        <ele>964.79998779296875</ele>
        <time>2026-08-22T01:23:58.000Z</time>
        <extensions>
          <ns3:TrackPointExtension>
            <ns3:hr>109</ns3:hr>
            <ns3:cad>62</ns3:cad>
          </ns3:TrackPointExtension>
        </extensions>
      </trkpt>
      <trkpt lat="45.26807480491697788238525390625" lon="-71.117859072983264923095703125">
        <ele>964.5999755859375</ele>
        <time>2026-08-22T01:23:59.000Z</time>
        <extensions>
          <ns3:TrackPointExtension>
            <ns3:hr>109</ns3:hr>
            <ns3:cad>62</ns3:cad>
          </ns3:TrackPointExtension>
        </extensions>
      </trkpt>
      <trkpt lat="45.2680658362805843353271484375" lon="-71.11786703579127788543701171875">
        <ele>964.4000244140625</ele>
        <time>2026-08-22T01:24:00.000Z</time>
        <extensions>
          <ns3:TrackPointExtension>
            <ns3:hr>110</ns3:hr>
            <ns3:cad>0</ns3:cad>
          </ns3:TrackPointExtension>
        </extensions>
      </trkpt>
      <trkpt lat="45.2680586278438568115234375" lon="-71.11788178794085979461669921875">
        <ele>964.4000244140625</ele>
        <time>2026-08-22T01:24:01.000Z</time>
        <extensions>
          <ns3:TrackPointExtension>
            <ns3:hr>110</ns3:hr>
            <ns3:cad>57</ns3:cad>
          </ns3:TrackPointExtension>
        </extensions>
      </trkpt>
      <trkpt lat="45.26804848574101924896240234375" lon="-71.11789553426206111907958984375">
        <ele>964.20001220703125</ele>
        <time>2026-08-22T01:24:02.000Z</time>
        <extensions>
          <ns3:TrackPointExtension>
            <ns3:hr>111</ns3:hr>
            <ns3:cad>57</ns3:cad>
          </ns3:TrackPointExtension>
        </extensions>
      </trkpt>
      <trkpt lat="45.2680383436381816864013671875" lon="-71.11791145987808704376220703125">
        <ele>964</ele>
        <time>2026-08-22T01:24:03.000Z</time>
        <extensions>
          <ns3:TrackPointExtension>
            <ns3:hr>111</ns3:hr>
            <ns3:cad>58</ns3:cad>
          </ns3:TrackPointExtension>
        </extensions>
      </trkpt>
      <trkpt lat="45.2680296264588832855224609375" lon="-71.117926128208637237548828125">
        <ele>963.79998779296875</ele>
        <time>2026-08-22T01:24:04.000Z</time>
        <extensions>
          <ns3:TrackPointExtension>
            <ns3:hr>110</ns3:hr>
            <ns3:cad>58</ns3:cad>
          </ns3:TrackPointExtension>
        </extensions>
      </trkpt>
      <trkpt lat="45.2680183947086334228515625" lon="-71.1179507710039615631103515625">
        <ele>963.5999755859375</ele>
        <time>2026-08-22T01:24:05.000Z</time>
        <extensions>
          <ns3:TrackPointExtension>
            <ns3:hr>110</ns3:hr>
            <ns3:cad>0</ns3:cad>
          </ns3:TrackPointExtension>
        </extensions>
      </trkpt>
      <trkpt lat="45.268013365566730499267578125" lon="-71.117960996925830841064453125">
        <ele>963.4000244140625</ele>
        <time>2026-08-22T01:24:06.000Z</time>
        <extensions>
          <ns3:TrackPointExtension>
            <ns3:hr>109</ns3:hr>
            <ns3:cad>0</ns3:cad>
          </ns3:TrackPointExtension>
        </extensions>
      </trkpt>
      <trkpt lat="45.2680049836635589599609375" lon="-71.1179802753031253814697265625">
        <ele>963.20001220703125</ele>
        <time>2026-08-22T01:24:07.000Z</time>
        <extensions>
          <ns3:TrackPointExtension>
            <ns3:hr>110</ns3:hr>
            <ns3:cad>0</ns3:cad>
          </ns3:TrackPointExtension>
        </extensions>
      </trkpt>
      <trkpt lat="45.267997272312641143798828125" lon="-71.11799343489110469818115234375">
        <ele>963</ele>
        <time>2026-08-22T01:24:08.000Z</time>
        <extensions>
          <ns3:TrackPointExtension>
            <ns3:hr>109</ns3:hr>
            <ns3:cad>0</ns3:cad>
          </ns3:TrackPointExtension>
        </extensions>
      </trkpt>
      <trkpt lat="45.26798419654369354248046875" lon="-71.1180121265351772308349609375">
        <ele>962.5999755859375</ele>
        <time>2026-08-22T01:24:09.000Z</time>
        <extensions>
          <ns3:TrackPointExtension>
            <ns3:hr>109</ns3:hr>
            <ns3:cad>0</ns3:cad>
          </ns3:TrackPointExtension>
        </extensions>
      </trkpt>
      <trkpt lat="45.26797338388860225677490234375" lon="-71.1180210113525390625">
        <ele>962.4000244140625</ele>
        <time>2026-08-22T01:24:10.000Z</time>
        <extensions>
          <ns3:TrackPointExtension>
            <ns3:hr>110</ns3:hr>
            <ns3:cad>0</ns3:cad>
          </ns3:TrackPointExtension>
        </extensions>
      </trkpt>
      <trkpt lat="45.267961733043193817138671875" lon="-71.1180342547595500946044921875">
        <ele>962</ele>
        <time>2026-08-22T01:24:11.000Z</time>
        <extensions>
          <ns3:TrackPointExtension>
            <ns3:hr>110</ns3:hr>
            <ns3:cad>0</ns3:cad>
          </ns3:TrackPointExtension>
        </extensions>
      </trkpt>
      <trkpt lat="45.26795603334903717041015625" lon="-71.11804624088108539581298828125">
        <ele>961.79998779296875</ele>
        <time>2026-08-22T01:24:12.000Z</time>
        <extensions>
          <ns3:TrackPointExtension>
            <ns3:hr>110</ns3:hr>
            <ns3:cad>57</ns3:cad>
          </ns3:TrackPointExtension>
        </extensions>
      </trkpt>
      <trkpt lat="45.26794907636940479278564453125" lon="-71.1180597357451915740966796875">
        <ele>961.5999755859375</ele>
        <time>2026-08-22T01:24:13.000Z</time>
        <extensions>
          <ns3:TrackPointExtension>
            <ns3:hr>111</ns3:hr>
            <ns3:cad>57</ns3:cad>
          </ns3:TrackPointExtension>
        </extensions>
      </trkpt>
      <trkpt lat="45.26793398894369602203369140625" lon="-71.118071973323822021484375">
        <ele>961.4000244140625</ele>
        <time>2026-08-22T01:24:14.000Z</time>
        <extensions>
          <ns3:TrackPointExtension>
            <ns3:hr>111</ns3:hr>
            <ns3:cad>0</ns3:cad>
          </ns3:TrackPointExtension>
        </extensions>
      </trkpt>
      <trkpt lat="45.2679260261356830596923828125" lon="-71.11809468828141689300537109375">
        <ele>961.20001220703125</ele>
        <time>2026-08-22T01:24:15.000Z</time>
        <extensions>
          <ns3:TrackPointExtension>
            <ns3:hr>111</ns3:hr>
            <ns3:cad>0</ns3:cad>
          </ns3:TrackPointExtension>
        </extensions>
      </trkpt>
      <trkpt lat="45.2679193206131458282470703125" lon="-71.11810826696455478668212890625">
        <ele>960.79998779296875</ele>
        <time>2026-08-22T01:24:16.000Z</time>
        <extensions>
          <ns3:TrackPointExtension>
            <ns3:hr>111</ns3:hr>
            <ns3:cad>0</ns3:cad>
          </ns3:TrackPointExtension>
        </extensions>
      </trkpt>
      <trkpt lat="45.26791068725287914276123046875" lon="-71.11812494695186614990234375">
        <ele>960.5999755859375</ele>
        <time>2026-08-22T01:24:17.000Z</time>
        <extensions>
          <ns3:TrackPointExtension>
            <ns3:hr>112</ns3:hr>
            <ns3:cad>0</ns3:cad>
          </ns3:TrackPointExtension>
        </extensions>
      </trkpt>
      <trkpt lat="45.26790238916873931884765625" lon="-71.11814330331981182098388671875">
        <ele>960.20001220703125</ele>
        <time>2026-08-22T01:24:18.000Z</time>
        <extensions>
          <ns3:TrackPointExtension>
            <ns3:hr>113</ns3:hr>
            <ns3:cad>0</ns3:cad>
          </ns3:TrackPointExtension>
        </extensions>
      </trkpt>
      <trkpt lat="45.267896689474582672119140625" lon="-71.11815512180328369140625">
        <ele>960</ele>
        <time>2026-08-22T01:24:19.000Z</time>
        <extensions>
          <ns3:TrackPointExtension>
            <ns3:hr>113</ns3:hr>
            <ns3:cad>71</ns3:cad>
          </ns3:TrackPointExtension>
        </extensions>
      </trkpt>
      <trkpt lat="45.267886631190776824951171875" lon="-71.1181744001805782318115234375">
        <ele>959.79998779296875</ele>
        <time>2026-08-22T01:24:20.000Z</time>
        <extensions>
          <ns3:TrackPointExtension>
            <ns3:hr>113</ns3:hr>
            <ns3:cad>71</ns3:cad>
          </ns3:TrackPointExtension>
        </extensions>
      </trkpt>
      <trkpt lat="45.26788227260112762451171875" lon="-71.1181800998747348785400390625">
        <ele>959.5999755859375</ele>
        <time>2026-08-22T01:24:21.000Z</time>
        <extensions>
          <ns3:TrackPointExtension>
            <ns3:hr>114</ns3:hr>
            <ns3:cad>71</ns3:cad>
          </ns3:TrackPointExtension>
        </extensions>
      </trkpt>
      <trkpt lat="45.2678696997463703155517578125" lon="-71.11819610930979251861572265625">
        <ele>959.4000244140625</ele>
        <time>2026-08-22T01:24:22.000Z</time>
        <extensions>
          <ns3:TrackPointExtension>
            <ns3:hr>115</ns3:hr>
            <ns3:cad>66</ns3:cad>
          </ns3:TrackPointExtension>
        </extensions>
      </trkpt>
      <trkpt lat="45.2678619883954524993896484375" lon="-71.11821253784000873565673828125">
        <ele>959</ele>
        <time>2026-08-22T01:24:23.000Z</time>
        <extensions>
          <ns3:TrackPointExtension>
            <ns3:hr>115</ns3:hr>
            <ns3:cad>66</ns3:cad>
          </ns3:TrackPointExtension>
        </extensions>
      </trkpt>
      <trkpt lat="45.2678515948355197906494140625" lon="-71.11822846345603466033935546875">
        <ele>958.5999755859375</ele>
        <time>2026-08-22T01:24:24.000Z</time>
        <extensions>
          <ns3:TrackPointExtension>
            <ns3:hr>114</ns3:hr>
            <ns3:cad>66</ns3:cad>
          </ns3:TrackPointExtension>
        </extensions>
      </trkpt>
      <trkpt lat="45.26784002780914306640625" lon="-71.1182503402233123779296875">
        <ele>958.20001220703125</ele>
        <time>2026-08-22T01:24:25.000Z</time>
        <extensions>
          <ns3:TrackPointExtension>
            <ns3:hr>114</ns3:hr>
            <ns3:cad>66</ns3:cad>
          </ns3:TrackPointExtension>
        </extensions>
      </trkpt>
      <trkpt lat="45.2678244374692440032958984375" lon="-71.11826417036354541778564453125">
        <ele>957.79998779296875</ele>
        <time>2026-08-22T01:24:26.000Z</time>
        <extensions>
          <ns3:TrackPointExtension>
            <ns3:hr>114</ns3:hr>
            <ns3:cad>66</ns3:cad>
          </ns3:TrackPointExtension>
        </extensions>
      </trkpt>
      <trkpt lat="45.26781253516674041748046875" lon="-71.118280850350856781005859375">
        <ele>957.5999755859375</ele>
        <time>2026-08-22T01:24:27.000Z</time>
        <extensions>
          <ns3:TrackPointExtension>
            <ns3:hr>114</ns3:hr>
            <ns3:cad>66</ns3:cad>
          </ns3:TrackPointExtension>
        </extensions>
      </trkpt>
      <trkpt lat="45.2678070031106472015380859375" lon="-71.11829535104334354400634765625">
        <ele>957.5999755859375</ele>
        <time>2026-08-22T01:24:28.000Z</time>
        <extensions>
          <ns3:TrackPointExtension>
            <ns3:hr>114</ns3:hr>
            <ns3:cad>66</ns3:cad>
          </ns3:TrackPointExtension>
        </extensions>
      </trkpt>
      <trkpt lat="45.2677922509610652923583984375" lon="-71.1183105222880840301513671875">
        <ele>957.4000244140625</ele>
        <time>2026-08-22T01:24:29.000Z</time>
        <extensions>
          <ns3:TrackPointExtension>
            <ns3:hr>114</ns3:hr>
            <ns3:cad>66</ns3:cad>
          </ns3:TrackPointExtension>
        </extensions>
      </trkpt>
      <trkpt lat="45.2677791751921176910400390625" lon="-71.11832720227539539337158203125">
        <ele>957.4000244140625</ele>
        <time>2026-08-22T01:24:30.000Z</time>
        <extensions>
          <ns3:TrackPointExtension>
            <ns3:hr>113</ns3:hr>
            <ns3:cad>66</ns3:cad>
          </ns3:TrackPointExtension>
        </extensions>
      </trkpt>
      <trkpt lat="45.26776484213769435882568359375" lon="-71.1183467321097850799560546875">
        <ele>957.4000244140625</ele>
        <time>2026-08-22T01:24:31.000Z</time>
        <extensions>
          <ns3:TrackPointExtension>
            <ns3:hr>114</ns3:hr>
            <ns3:cad>68</ns3:cad>
          </ns3:TrackPointExtension>
        </extensions>
      </trkpt>
      <trkpt lat="45.26774925179779529571533203125" lon="-71.11836575902998447418212890625">
        <ele>957.4000244140625</ele>
        <time>2026-08-22T01:24:32.000Z</time>
        <extensions>
          <ns3:TrackPointExtension>
            <ns3:hr>113</ns3:hr>
            <ns3:cad>68</ns3:cad>
          </ns3:TrackPointExtension>
        </extensions>
      </trkpt>
      <trkpt lat="45.2677349187433719635009765625" lon="-71.118376068770885467529296875">
        <ele>957.20001220703125</ele>
        <time>2026-08-22T01:24:33.000Z</time>
        <extensions>
          <ns3:TrackPointExtension>
            <ns3:hr>113</ns3:hr>
            <ns3:cad>68</ns3:cad>
          </ns3:TrackPointExtension>
        </extensions>
      </trkpt>
      <trkpt lat="45.26771874167025089263916015625" lon="-71.1183923296630382537841796875">
        <ele>957.20001220703125</ele>
        <time>2026-08-22T01:24:34.000Z</time>
        <extensions>
          <ns3:TrackPointExtension>
            <ns3:hr>113</ns3:hr>
            <ns3:cad>66</ns3:cad>
          </ns3:TrackPointExtension>
        </extensions>
      </trkpt>
      <trkpt lat="45.26770901866257190704345703125" lon="-71.11840733326971530914306640625">
        <ele>957</ele>
        <time>2026-08-22T01:24:35.000Z</time>
        <extensions>
          <ns3:TrackPointExtension>
            <ns3:hr>113</ns3:hr>
            <ns3:cad>66</ns3:cad>
          </ns3:TrackPointExtension>
        </extensions>
      </trkpt>
      <trkpt lat="45.26770214550197124481201171875" lon="-71.11842426471412181854248046875">
        <ele>956.79998779296875</ele>
        <time>2026-08-22T01:24:36.000Z</time>
        <extensions>
          <ns3:TrackPointExtension>
            <ns3:hr>114</ns3:hr>
            <ns3:cad>69</ns3:cad>
          </ns3:TrackPointExtension>
        </extensions>
      </trkpt>
      <trkpt lat="45.267690829932689666748046875" lon="-71.1184483207762241363525390625">
        <ele>956.79998779296875</ele>
        <time>2026-08-22T01:24:37.000Z</time>
        <extensions>
          <ns3:TrackPointExtension>
            <ns3:hr>114</ns3:hr>
            <ns3:cad>69</ns3:cad>
          </ns3:TrackPointExtension>
        </extensions>
      </trkpt>
      <trkpt lat="45.26768605224788188934326171875" lon="-71.1184657551348209381103515625">
        <ele>956.5999755859375</ele>
        <time>2026-08-22T01:24:38.000Z</time>
        <extensions>
          <ns3:TrackPointExtension>
            <ns3:hr>115</ns3:hr>
            <ns3:cad>69</ns3:cad>
          </ns3:TrackPointExtension>
        </extensions>
      </trkpt>
      <trkpt lat="45.26767079718410968780517578125" lon="-71.11848377622663974761962890625">
        <ele>956.5999755859375</ele>
        <time>2026-08-22T01:24:39.000Z</time>
        <extensions>
          <ns3:TrackPointExtension>
            <ns3:hr>115</ns3:hr>
            <ns3:cad>0</ns3:cad>
          </ns3:TrackPointExtension>
        </extensions>
      </trkpt>
      <trkpt lat="45.267657972872257232666015625" lon="-71.1185023002326488494873046875">
        <ele>956.5999755859375</ele>
        <time>2026-08-22T01:24:40.000Z</time>
        <extensions>
          <ns3:TrackPointExtension>
            <ns3:hr>116</ns3:hr>
            <ns3:cad>0</ns3:cad>
          </ns3:TrackPointExtension>
        </extensions>
      </trkpt>
      <trkpt lat="45.26764757931232452392578125" lon="-71.1185147054493427276611328125">
        <ele>956.5999755859375</ele>
        <time>2026-08-22T01:24:41.000Z</time>
        <extensions>
          <ns3:TrackPointExtension>
            <ns3:hr>116</ns3:hr>
            <ns3:cad>0</ns3:cad>
          </ns3:TrackPointExtension>
        </extensions>
      </trkpt>
      <trkpt lat="45.26762419380247592926025390625" lon="-71.1185294575989246368408203125">
        <ele>956.5999755859375</ele>
        <time>2026-08-22T01:24:42.000Z</time>
        <extensions>
          <ns3:TrackPointExtension>
            <ns3:hr>116</ns3:hr>
            <ns3:cad>0</ns3:cad>
          </ns3:TrackPointExtension>
        </extensions>
      </trkpt>
      <trkpt lat="45.2676192484796047210693359375" lon="-71.11854110844433307647705078125">
        <ele>956.5999755859375</ele>
        <time>2026-08-22T01:24:43.000Z</time>
        <extensions>
          <ns3:TrackPointExtension>
            <ns3:hr>116</ns3:hr>
            <ns3:cad>0</ns3:cad>
          </ns3:TrackPointExtension>
        </extensions>
      </trkpt>
      <trkpt lat="45.26760776527225971221923828125" lon="-71.11855736933648586273193359375">
        <ele>956.5999755859375</ele>
        <time>2026-08-22T01:24:44.000Z</time>
        <extensions>
          <ns3:TrackPointExtension>
            <ns3:hr>115</ns3:hr>
            <ns3:cad>0</ns3:cad>
          </ns3:TrackPointExtension>
        </extensions>
      </trkpt>
      <trkpt lat="45.267597623169422149658203125" lon="-71.1185668408870697021484375">
        <ele>956.4000244140625</ele>
        <time>2026-08-22T01:24:45.000Z</time>
        <extensions>
          <ns3:TrackPointExtension>
            <ns3:hr>115</ns3:hr>
            <ns3:cad>0</ns3:cad>
          </ns3:TrackPointExtension>
        </extensions>
      </trkpt>
      <trkpt lat="45.26758815161883831024169921875" lon="-71.11858301796019077301025390625">
        <ele>956.4000244140625</ele>
        <time>2026-08-22T01:24:46.000Z</time>
        <extensions>
          <ns3:TrackPointExtension>
            <ns3:hr>115</ns3:hr>
            <ns3:cad>0</ns3:cad>
          </ns3:TrackPointExtension>
        </extensions>
      </trkpt>
      <trkpt lat="45.26757717132568359375" lon="-71.1186002008616924285888671875">
        <ele>956.4000244140625</ele>
        <time>2026-08-22T01:24:47.000Z</time>
        <extensions>
          <ns3:TrackPointExtension>
            <ns3:hr>115</ns3:hr>
            <ns3:cad>0</ns3:cad>
          </ns3:TrackPointExtension>
        </extensions>
      </trkpt>
      <trkpt lat="45.2675662748515605926513671875" lon="-71.11861252225935459136962890625">
        <ele>956.20001220703125</ele>
        <time>2026-08-22T01:24:48.000Z</time>
        <extensions>
          <ns3:TrackPointExtension>
            <ns3:hr>115</ns3:hr>
            <ns3:cad>63</ns3:cad>
          </ns3:TrackPointExtension>
        </extensions>
      </trkpt>
      <trkpt lat="45.2675555460155010223388671875" lon="-71.1186320520937442779541015625">
        <ele>956</ele>
        <time>2026-08-22T01:24:49.000Z</time>
        <extensions>
          <ns3:TrackPointExtension>
            <ns3:hr>115</ns3:hr>
            <ns3:cad>63</ns3:cad>
          </ns3:TrackPointExtension>
        </extensions>
      </trkpt>
      <trkpt lat="45.267543978989124298095703125" lon="-71.11864864826202392578125">
        <ele>956</ele>
        <time>2026-08-22T01:24:50.000Z</time>
        <extensions>
          <ns3:TrackPointExtension>
            <ns3:hr>115</ns3:hr>
            <ns3:cad>63</ns3:cad>
          </ns3:TrackPointExtension>
        </extensions>
      </trkpt>
      <trkpt lat="45.26753400452435016632080078125" lon="-71.1186608858406543731689453125">
        <ele>955.79998779296875</ele>
        <time>2026-08-22T01:24:51.000Z</time>
        <extensions>
          <ns3:TrackPointExtension>
            <ns3:hr>115</ns3:hr>
            <ns3:cad>63</ns3:cad>
          </ns3:TrackPointExtension>
        </extensions>
      </trkpt>
      <trkpt lat="45.2675257064402103424072265625" lon="-71.11867505125701427459716796875">
        <ele>955.5999755859375</ele>
        <time>2026-08-22T01:24:52.000Z</time>
        <extensions>
          <ns3:TrackPointExtension>
            <ns3:hr>116</ns3:hr>
            <ns3:cad>63</ns3:cad>
          </ns3:TrackPointExtension>
        </extensions>
      </trkpt>
      <trkpt lat="45.26751372031867504119873046875" lon="-71.11869080923497676849365234375">
        <ele>955.4000244140625</ele>
        <time>2026-08-22T01:24:53.000Z</time>
        <extensions>
          <ns3:TrackPointExtension>
            <ns3:hr>116</ns3:hr>
            <ns3:cad>65</ns3:cad>
          </ns3:TrackPointExtension>
        </extensions>
      </trkpt>
      <trkpt lat="45.2675049193203449249267578125" lon="-71.1187054775655269622802734375">
        <ele>955.20001220703125</ele>
        <time>2026-08-22T01:24:54.000Z</time>
        <extensions>
          <ns3:TrackPointExtension>
            <ns3:hr>116</ns3:hr>
            <ns3:cad>65</ns3:cad>
          </ns3:TrackPointExtension>
        </extensions>
      </trkpt>
      <trkpt lat="45.26749695651233196258544921875" lon="-71.1187162064015865325927734375">
        <ele>955</ele>
        <time>2026-08-22T01:24:55.000Z</time>
        <extensions>
          <ns3:TrackPointExtension>
            <ns3:hr>117</ns3:hr>
            <ns3:cad>65</ns3:cad>
          </ns3:TrackPointExtension>
        </extensions>
      </trkpt>
      <trkpt lat="45.2674844674766063690185546875" lon="-71.1187296174466609954833984375">
        <ele>954.79998779296875</ele>
        <time>2026-08-22T01:24:56.000Z</time>
        <extensions>
          <ns3:TrackPointExtension>
            <ns3:hr>118</ns3:hr>
            <ns3:cad>59</ns3:cad>
          </ns3:TrackPointExtension>
        </extensions>
      </trkpt>
      <trkpt lat="45.2674703858792781829833984375" lon="-71.11873791553080081939697265625">
        <ele>954.5999755859375</ele>
        <time>2026-08-22T01:24:57.000Z</time>
        <extensions>
          <ns3:TrackPointExtension>
            <ns3:hr>118</ns3:hr>
            <ns3:cad>59</ns3:cad>
          </ns3:TrackPointExtension>
        </extensions>
      </trkpt>
      <trkpt lat="45.26745839975774288177490234375" lon="-71.11873925663530826568603515625">
        <ele>954.4000244140625</ele>
        <time>2026-08-22T01:24:58.000Z</time>
        <extensions>
          <ns3:TrackPointExtension>
            <ns3:hr>117</ns3:hr>
            <ns3:cad>59</ns3:cad>
          </ns3:TrackPointExtension>
        </extensions>
      </trkpt>
      <trkpt lat="45.26744700036942958831787109375" lon="-71.1187492311000823974609375">
        <ele>954.20001220703125</ele>
        <time>2026-08-22T01:24:59.000Z</time>
        <extensions>
          <ns3:TrackPointExtension>
            <ns3:hr>117</ns3:hr>
            <ns3:cad>59</ns3:cad>
          </ns3:TrackPointExtension>
        </extensions>
      </trkpt>
      <trkpt lat="45.267436020076274871826171875" lon="-71.1187628097832202911376953125">
        <ele>954</ele>
        <time>2026-08-22T01:25:00.000Z</time>
        <extensions>
          <ns3:TrackPointExtension>
            <ns3:hr>117</ns3:hr>
            <ns3:cad>65</ns3:cad>
          </ns3:TrackPointExtension>
        </extensions>
      </trkpt>
      <trkpt lat="45.26742587797343730926513671875" lon="-71.1187745444476604461669921875">
        <ele>954</ele>
        <time>2026-08-22T01:25:01.000Z</time>
        <extensions>
          <ns3:TrackPointExtension>
            <ns3:hr>117</ns3:hr>
            <ns3:cad>65</ns3:cad>
          </ns3:TrackPointExtension>
        </extensions>
      </trkpt>
      <trkpt lat="45.26741984300315380096435546875" lon="-71.11879281699657440185546875">
        <ele>953.79998779296875</ele>
        <time>2026-08-22T01:25:02.000Z</time>
        <extensions>
          <ns3:TrackPointExtension>
            <ns3:hr>117</ns3:hr>
            <ns3:cad>64</ns3:cad>
          </ns3:TrackPointExtension>
        </extensions>
      </trkpt>
      <trkpt lat="45.267408192157745361328125" lon="-71.11880547367036342620849609375">
        <ele>953.79998779296875</ele>
        <time>2026-08-22T01:25:03.000Z</time>
        <extensions>
          <ns3:TrackPointExtension>
            <ns3:hr>117</ns3:hr>
            <ns3:cad>0</ns3:cad>
          </ns3:TrackPointExtension>
        </extensions>
      </trkpt>
      <trkpt lat="45.26740081608295440673828125" lon="-71.11881695687770843505859375">
        <ele>953.5999755859375</ele>
        <time>2026-08-22T01:25:04.000Z</time>
        <extensions>
          <ns3:TrackPointExtension>
            <ns3:hr>117</ns3:hr>
            <ns3:cad>0</ns3:cad>
          </ns3:TrackPointExtension>
        </extensions>
      </trkpt>
      <trkpt lat="45.2673936076462268829345703125" lon="-71.118828020989894866943359375">
        <ele>953.4000244140625</ele>
        <time>2026-08-22T01:25:05.000Z</time>
        <extensions>
          <ns3:TrackPointExtension>
            <ns3:hr>118</ns3:hr>
            <ns3:cad>0</ns3:cad>
          </ns3:TrackPointExtension>
        </extensions>
      </trkpt>
      <trkpt lat="45.2673800289630889892578125" lon="-71.11883682198822498321533203125">
        <ele>953.4000244140625</ele>
        <time>2026-08-22T01:25:06.000Z</time>
        <extensions>
          <ns3:TrackPointExtension>
            <ns3:hr>117</ns3:hr>
            <ns3:cad>0</ns3:cad>
          </ns3:TrackPointExtension>
        </extensions>
      </trkpt>
      <trkpt lat="45.26736502535641193389892578125" lon="-71.1188476346433162689208984375">
        <ele>953.20001220703125</ele>
        <time>2026-08-22T01:25:07.000Z</time>
        <extensions>
          <ns3:TrackPointExtension>
            <ns3:hr>117</ns3:hr>
            <ns3:cad>0</ns3:cad>
          </ns3:TrackPointExtension>
        </extensions>
      </trkpt>
      <trkpt lat="45.26735764928162097930908203125" lon="-71.11886079423129558563232421875">
        <ele>953</ele>
        <time>2026-08-22T01:25:08.000Z</time>
        <extensions>
          <ns3:TrackPointExtension>
            <ns3:hr>118</ns3:hr>
            <ns3:cad>0</ns3:cad>
          </ns3:TrackPointExtension>
        </extensions>
      </trkpt>
      <trkpt lat="45.2673426456749439239501953125" lon="-71.11888158135116100311279296875">
        <ele>952.79998779296875</ele>
        <time>2026-08-22T01:25:09.000Z</time>
        <extensions>
          <ns3:TrackPointExtension>
            <ns3:hr>118</ns3:hr>
            <ns3:cad>70</ns3:cad>
          </ns3:TrackPointExtension>
        </extensions>
      </trkpt>
      <trkpt lat="45.26733049191534519195556640625" lon="-71.1189002729952335357666015625">
        <ele>952.5999755859375</ele>
        <time>2026-08-22T01:25:10.000Z</time>
        <extensions>
          <ns3:TrackPointExtension>
            <ns3:hr>119</ns3:hr>
            <ns3:cad>73</ns3:cad>
          </ns3:TrackPointExtension>
        </extensions>
      </trkpt>
      <trkpt lat="45.2673171646893024444580078125" lon="-71.11891561187803745269775390625">
        <ele>952.5999755859375</ele>
        <time>2026-08-22T01:25:11.000Z</time>
        <extensions>
          <ns3:TrackPointExtension>
            <ns3:hr>119</ns3:hr>
            <ns3:cad>73</ns3:cad>
          </ns3:TrackPointExtension>
        </extensions>
      </trkpt>
      <trkpt lat="45.26730551384389400482177734375" lon="-71.1189341358840465545654296875">
        <ele>952.4000244140625</ele>
        <time>2026-08-22T01:25:12.000Z</time>
        <extensions>
          <ns3:TrackPointExtension>
            <ns3:hr>119</ns3:hr>
            <ns3:cad>73</ns3:cad>
          </ns3:TrackPointExtension>
        </extensions>
      </trkpt>
      <trkpt lat="45.26729394681751728057861328125" lon="-71.118946373462677001953125">
        <ele>952.4000244140625</ele>
        <time>2026-08-22T01:25:13.000Z</time>
        <extensions>
          <ns3:TrackPointExtension>
            <ns3:hr>119</ns3:hr>
            <ns3:cad>73</ns3:cad>
          </ns3:TrackPointExtension>
        </extensions>
      </trkpt>
      <trkpt lat="45.26728053577244281768798828125" lon="-71.11896288581192493438720703125">
        <ele>952.4000244140625</ele>
        <time>2026-08-22T01:25:14.000Z</time>
        <extensions>
          <ns3:TrackPointExtension>
            <ns3:hr>120</ns3:hr>
            <ns3:cad>67</ns3:cad>
          </ns3:TrackPointExtension>
        </extensions>
      </trkpt>
      <trkpt lat="45.26726662181317806243896484375" lon="-71.11897797323763370513916015625">
        <ele>952.20001220703125</ele>
        <time>2026-08-22T01:25:15.000Z</time>
        <extensions>
          <ns3:TrackPointExtension>
            <ns3:hr>120</ns3:hr>
            <ns3:cad>67</ns3:cad>
          </ns3:TrackPointExtension>
        </extensions>
      </trkpt>
      <trkpt lat="45.26725773699581623077392578125" lon="-71.1189891211688518524169921875">
        <ele>952.20001220703125</ele>
        <time>2026-08-22T01:25:16.000Z</time>
        <extensions>
          <ns3:TrackPointExtension>
            <ns3:hr>120</ns3:hr>
            <ns3:cad>67</ns3:cad>
          </ns3:TrackPointExtension>
        </extensions>
      </trkpt>
      <trkpt lat="45.2672444097697734832763671875" lon="-71.1190052144229412078857421875">
        <ele>952.20001220703125</ele>
        <time>2026-08-22T01:25:17.000Z</time>
        <extensions>
          <ns3:TrackPointExtension>
            <ns3:hr>120</ns3:hr>
            <ns3:cad>0</ns3:cad>
          </ns3:TrackPointExtension>
        </extensions>
      </trkpt>
      <trkpt lat="45.26723024435341358184814453125" lon="-71.11902055330574512481689453125">
        <ele>952.20001220703125</ele>
        <time>2026-08-22T01:25:18.000Z</time>
        <extensions>
          <ns3:TrackPointExtension>
            <ns3:hr>121</ns3:hr>
            <ns3:cad>0</ns3:cad>
          </ns3:TrackPointExtension>
        </extensions>
      </trkpt>
      <trkpt lat="45.26722018606960773468017578125" lon="-71.11903044395148754119873046875">
        <ele>952.4000244140625</ele>
        <time>2026-08-22T01:25:19.000Z</time>
        <extensions>
          <ns3:TrackPointExtension>
            <ns3:hr>122</ns3:hr>
            <ns3:cad>0</ns3:cad>
          </ns3:TrackPointExtension>
        </extensions>
      </trkpt>
      <trkpt lat="45.26720828376710414886474609375" lon="-71.11904368735849857330322265625">
        <ele>952.4000244140625</ele>
        <time>2026-08-22T01:25:20.000Z</time>
        <extensions>
          <ns3:TrackPointExtension>
            <ns3:hr>122</ns3:hr>
            <ns3:cad>0</ns3:cad>
          </ns3:TrackPointExtension>
        </extensions>
      </trkpt>
      <trkpt lat="45.267197303473949432373046875" lon="-71.11904704011976718902587890625">
        <ele>952.5999755859375</ele>
        <time>2026-08-22T01:25:21.000Z</time>
        <extensions>
          <ns3:TrackPointExtension>
            <ns3:hr>123</ns3:hr>
            <ns3:cad>0</ns3:cad>
          </ns3:TrackPointExtension>
        </extensions>
      </trkpt>
      <trkpt lat="45.26719034649431705474853515625" lon="-71.11905299127101898193359375">
        <ele>952.5999755859375</ele>
        <time>2026-08-22T01:25:22.000Z</time>
        <extensions>
          <ns3:TrackPointExtension>
            <ns3:hr>124</ns3:hr>
            <ns3:cad>0</ns3:cad>
          </ns3:TrackPointExtension>
        </extensions>
      </trkpt>
      <trkpt lat="45.26718087494373321533203125" lon="-71.11906782723963260650634765625">
        <ele>952.5999755859375</ele>
        <time>2026-08-22T01:25:23.000Z</time>
        <extensions>
          <ns3:TrackPointExtension>
            <ns3:hr>125</ns3:hr>
            <ns3:cad>0</ns3:cad>
          </ns3:TrackPointExtension>
        </extensions>
      </trkpt>
      <trkpt lat="45.2671729959547519683837890625" lon="-71.11908442340791225433349609375">
        <ele>952.79998779296875</ele>
        <time>2026-08-22T01:25:24.000Z</time>
        <extensions>
          <ns3:TrackPointExtension>
            <ns3:hr>125</ns3:hr>
            <ns3:cad>0</ns3:cad>
          </ns3:TrackPointExtension>
        </extensions>
      </trkpt>
      <trkpt lat="45.26716318912804126739501953125" lon="-71.1191011033952236175537109375">
        <ele>952.79998779296875</ele>
        <time>2026-08-22T01:25:25.000Z</time>
        <extensions>
          <ns3:TrackPointExtension>
            <ns3:hr>124</ns3:hr>
            <ns3:cad>0</ns3:cad>
          </ns3:TrackPointExtension>
        </extensions>
      </trkpt>
      <trkpt lat="45.26715539395809173583984375" lon="-71.11910839565098285675048828125">
        <ele>952.79998779296875</ele>
        <time>2026-08-22T01:25:26.000Z</time>
        <extensions>
          <ns3:TrackPointExtension>
            <ns3:hr>123</ns3:hr>
            <ns3:cad>0</ns3:cad>
          </ns3:TrackPointExtension>
        </extensions>
      </trkpt>
      <trkpt lat="45.26714240200817584991455078125" lon="-71.11912029795348644256591796875">
        <ele>953</ele>
        <time>2026-08-22T01:25:27.000Z</time>
        <extensions>
          <ns3:TrackPointExtension>
            <ns3:hr>122</ns3:hr>
            <ns3:cad>0</ns3:cad>
          </ns3:TrackPointExtension>
        </extensions>
      </trkpt>
      <trkpt lat="45.2671361155807971954345703125" lon="-71.1191386543214321136474609375">
        <ele>953.20001220703125</ele>
        <time>2026-08-22T01:25:28.000Z</time>
        <extensions>
          <ns3:TrackPointExtension>
            <ns3:hr>121</ns3:hr>
            <ns3:cad>0</ns3:cad>
          </ns3:TrackPointExtension>
        </extensions>
      </trkpt>
      <trkpt lat="45.267126560211181640625" lon="-71.119142509996891021728515625">
        <ele>953.4000244140625</ele>
        <time>2026-08-22T01:25:29.000Z</time>
        <extensions>
          <ns3:TrackPointExtension>
            <ns3:hr>120</ns3:hr>
            <ns3:cad>0</ns3:cad>
          </ns3:TrackPointExtension>
        </extensions>
      </trkpt>
      <trkpt lat="45.26711650192737579345703125" lon="-71.1191460303962230682373046875">
        <ele>953.5999755859375</ele>
        <time>2026-08-22T01:25:30.000Z</time>
        <extensions>
          <ns3:TrackPointExtension>
            <ns3:hr>120</ns3:hr>
            <ns3:cad>0</ns3:cad>
          </ns3:TrackPointExtension>
        </extensions>
      </trkpt>
      <trkpt lat="45.26710066013038158416748046875" lon="-71.11915667541325092315673828125">
        <ele>953.79998779296875</ele>
        <time>2026-08-22T01:25:31.000Z</time>
        <extensions>
          <ns3:TrackPointExtension>
            <ns3:hr>120</ns3:hr>
            <ns3:cad>0</ns3:cad>
          </ns3:TrackPointExtension>
        </extensions>
      </trkpt>
      <trkpt lat="45.26709931902587413787841796875" lon="-71.11916254274547100067138671875">
        <ele>953.79998779296875</ele>
        <time>2026-08-22T01:25:32.000Z</time>
        <extensions>
          <ns3:TrackPointExtension>
            <ns3:hr>121</ns3:hr>
            <ns3:cad>0</ns3:cad>
          </ns3:TrackPointExtension>
        </extensions>
      </trkpt>
      <trkpt lat="45.26708724908530712127685546875" lon="-71.119173355400562286376953125">
        <ele>953.79998779296875</ele>
        <time>2026-08-22T01:25:33.000Z</time>
        <extensions>
          <ns3:TrackPointExtension>
            <ns3:hr>121</ns3:hr>
            <ns3:cad>0</ns3:cad>
          </ns3:TrackPointExtension>
        </extensions>
      </trkpt>
      <trkpt lat="45.2670761011540889739990234375" lon="-71.11918634735047817230224609375">
        <ele>953.79998779296875</ele>
        <time>2026-08-22T01:25:34.000Z</time>
        <extensions>
          <ns3:TrackPointExtension>
            <ns3:hr>121</ns3:hr>
            <ns3:cad>0</ns3:cad>
          </ns3:TrackPointExtension>
        </extensions>
      </trkpt>
      <trkpt lat="45.26706629432737827301025390625" lon="-71.1191929690539836883544921875">
        <ele>954</ele>
        <time>2026-08-22T01:25:35.000Z</time>
        <extensions>
          <ns3:TrackPointExtension>
            <ns3:hr>121</ns3:hr>
            <ns3:cad>0</ns3:cad>
          </ns3:TrackPointExtension>
        </extensions>
      </trkpt>
      <trkpt lat="45.26705355383455753326416015625" lon="-71.11920294351875782012939453125">
        <ele>954</ele>
        <time>2026-08-22T01:25:36.000Z</time>
        <extensions>
          <ns3:TrackPointExtension>
            <ns3:hr>121</ns3:hr>
            <ns3:cad>0</ns3:cad>
          </ns3:TrackPointExtension>
        </extensions>
      </trkpt>
      <trkpt lat="45.267043411731719970703125" lon="-71.11921082250773906707763671875">
        <ele>954.20001220703125</ele>
        <time>2026-08-22T01:25:37.000Z</time>
        <extensions>
          <ns3:TrackPointExtension>
            <ns3:hr>121</ns3:hr>
            <ns3:cad>0</ns3:cad>
          </ns3:TrackPointExtension>
        </extensions>
      </trkpt>
      <trkpt lat="45.26703444309532642364501953125" lon="-71.1192201264202594757080078125">
        <ele>954.4000244140625</ele>
        <time>2026-08-22T01:25:38.000Z</time>
        <extensions>
          <ns3:TrackPointExtension>
            <ns3:hr>121</ns3:hr>
            <ns3:cad>0</ns3:cad>
          </ns3:TrackPointExtension>
        </extensions>
      </trkpt>
      <trkpt lat="45.26702287606894969940185546875" lon="-71.11922842450439929962158203125">
        <ele>954.4000244140625</ele>
        <time>2026-08-22T01:25:39.000Z</time>
        <extensions>
          <ns3:TrackPointExtension>
            <ns3:hr>121</ns3:hr>
            <ns3:cad>0</ns3:cad>
          </ns3:TrackPointExtension>
        </extensions>
      </trkpt>
      <trkpt lat="45.267011560499668121337890625" lon="-71.1192342080175876617431640625">
        <ele>954.5999755859375</ele>
        <time>2026-08-22T01:25:40.000Z</time>
        <extensions>
          <ns3:TrackPointExtension>
            <ns3:hr>122</ns3:hr>
            <ns3:cad>54</ns3:cad>
          </ns3:TrackPointExtension>
        </extensions>
      </trkpt>
      <trkpt lat="45.26700376532971858978271484375" lon="-71.11924552358686923980712890625">
        <ele>954.5999755859375</ele>
        <time>2026-08-22T01:25:41.000Z</time>
        <extensions>
          <ns3:TrackPointExtension>
            <ns3:hr>122</ns3:hr>
            <ns3:cad>57</ns3:cad>
          </ns3:TrackPointExtension>
        </extensions>
      </trkpt>
      <trkpt lat="45.26699253357946872711181640625" lon="-71.11925876699388027191162109375">
        <ele>954.4000244140625</ele>
        <time>2026-08-22T01:25:42.000Z</time>
        <extensions>
          <ns3:TrackPointExtension>
            <ns3:hr>123</ns3:hr>
            <ns3:cad>57</ns3:cad>
          </ns3:TrackPointExtension>
        </extensions>
      </trkpt>
      <trkpt lat="45.2669815532863140106201171875" lon="-71.119268573820590972900390625">
        <ele>954.4000244140625</ele>
        <time>2026-08-22T01:25:43.000Z</time>
        <extensions>
          <ns3:TrackPointExtension>
            <ns3:hr>123</ns3:hr>
            <ns3:cad>57</ns3:cad>
          </ns3:TrackPointExtension>
        </extensions>
      </trkpt>
      <trkpt lat="45.266971327364444732666015625" lon="-71.1192720942199230194091796875">
        <ele>954.4000244140625</ele>
        <time>2026-08-22T01:25:44.000Z</time>
        <extensions>
          <ns3:TrackPointExtension>
            <ns3:hr>124</ns3:hr>
            <ns3:cad>57</ns3:cad>
          </ns3:TrackPointExtension>
        </extensions>
      </trkpt>
      <trkpt lat="45.26695934124290943145751953125" lon="-71.11927905119955539703369140625">
        <ele>954.4000244140625</ele>
        <time>2026-08-22T01:25:45.000Z</time>
        <extensions>
          <ns3:TrackPointExtension>
            <ns3:hr>124</ns3:hr>
            <ns3:cad>54</ns3:cad>
          </ns3:TrackPointExtension>
        </extensions>
      </trkpt>
      <trkpt lat="45.26694727130234241485595703125" lon="-71.11929179169237613677978515625">
        <ele>954.4000244140625</ele>
        <time>2026-08-22T01:25:46.000Z</time>
        <extensions>
          <ns3:TrackPointExtension>
            <ns3:hr>123</ns3:hr>
            <ns3:cad>54</ns3:cad>
          </ns3:TrackPointExtension>
        </extensions>
      </trkpt>
      <trkpt lat="45.26693545281887054443359375" lon="-71.1193026043474674224853515625">
        <ele>954.4000244140625</ele>
        <time>2026-08-22T01:25:47.000Z</time>
        <extensions>
          <ns3:TrackPointExtension>
            <ns3:hr>123</ns3:hr>
            <ns3:cad>56</ns3:cad>
          </ns3:TrackPointExtension>
        </extensions>
      </trkpt>
      <trkpt lat="45.2669255621731281280517578125" lon="-71.1193056218326091766357421875">
        <ele>954.4000244140625</ele>
        <time>2026-08-22T01:25:48.000Z</time>
        <extensions>
          <ns3:TrackPointExtension>
            <ns3:hr>124</ns3:hr>
            <ns3:cad>56</ns3:cad>
          </ns3:TrackPointExtension>
        </extensions>
      </trkpt>
      <trkpt lat="45.26691324077546596527099609375" lon="-71.11931316554546356201171875">
        <ele>954.4000244140625</ele>
        <time>2026-08-22T01:25:49.000Z</time>
        <extensions>
          <ns3:TrackPointExtension>
            <ns3:hr>124</ns3:hr>
            <ns3:cad>56</ns3:cad>
          </ns3:TrackPointExtension>
        </extensions>
      </trkpt>
      <trkpt lat="45.2669020928442478179931640625" lon="-71.11931760795414447784423828125">
        <ele>954.4000244140625</ele>
        <time>2026-08-22T01:25:50.000Z</time>
        <extensions>
          <ns3:TrackPointExtension>
            <ns3:hr>124</ns3:hr>
            <ns3:cad>50</ns3:cad>
          </ns3:TrackPointExtension>
        </extensions>
      </trkpt>
      <trkpt lat="45.26688625104725360870361328125" lon="-71.1193304322659969329833984375">
        <ele>954.20001220703125</ele>
        <time>2026-08-22T01:25:51.000Z</time>
        <extensions>
          <ns3:TrackPointExtension>
            <ns3:hr>123</ns3:hr>
            <ns3:cad>50</ns3:cad>
          </ns3:TrackPointExtension>
        </extensions>
      </trkpt>
      <trkpt lat="45.26687242090702056884765625" lon="-71.1193361319601535797119140625">
        <ele>954</ele>
        <time>2026-08-22T01:25:52.000Z</time>
        <extensions>
          <ns3:TrackPointExtension>
            <ns3:hr>123</ns3:hr>
            <ns3:cad>55</ns3:cad>
          </ns3:TrackPointExtension>
        </extensions>
      </trkpt>
      <trkpt lat="45.26685632765293121337890625" lon="-71.11934878863394260406494140625">
        <ele>953.79998779296875</ele>
        <time>2026-08-22T01:25:53.000Z</time>
        <extensions>
          <ns3:TrackPointExtension>
            <ns3:hr>123</ns3:hr>
            <ns3:cad>55</ns3:cad>
          </ns3:TrackPointExtension>
        </extensions>
      </trkpt>
      <trkpt lat="45.26684165932238101959228515625" lon="-71.11936169676482677459716796875">
        <ele>953.5999755859375</ele>
        <time>2026-08-22T01:25:54.000Z</time>
        <extensions>
          <ns3:TrackPointExtension>
            <ns3:hr>123</ns3:hr>
            <ns3:cad>55</ns3:cad>
          </ns3:TrackPointExtension>
        </extensions>
      </trkpt>
      <trkpt lat="45.266828835010528564453125" lon="-71.11937326379120349884033203125">
        <ele>953.5999755859375</ele>
        <time>2026-08-22T01:25:55.000Z</time>
        <extensions>
          <ns3:TrackPointExtension>
            <ns3:hr>123</ns3:hr>
            <ns3:cad>55</ns3:cad>
          </ns3:TrackPointExtension>
        </extensions>
      </trkpt>
      <trkpt lat="45.266817770898342132568359375" lon="-71.1193824000656604766845703125">
        <ele>953.4000244140625</ele>
        <time>2026-08-22T01:25:56.000Z</time>
        <extensions>
          <ns3:TrackPointExtension>
            <ns3:hr>124</ns3:hr>
            <ns3:cad>55</ns3:cad>
          </ns3:TrackPointExtension>
        </extensions>
      </trkpt>
      <trkpt lat="45.26680394075810909271240234375" lon="-71.11939187161624431610107421875">
        <ele>953.4000244140625</ele>
        <time>2026-08-22T01:25:57.000Z</time>
        <extensions>
          <ns3:TrackPointExtension>
            <ns3:hr>123</ns3:hr>
            <ns3:cad>64</ns3:cad>
          </ns3:TrackPointExtension>
        </extensions>
      </trkpt>
      <trkpt lat="45.266788937151432037353515625" lon="-71.1194031871855258941650390625">
        <ele>953.4000244140625</ele>
        <time>2026-08-22T01:25:58.000Z</time>
        <extensions>
          <ns3:TrackPointExtension>
            <ns3:hr>124</ns3:hr>
            <ns3:cad>64</ns3:cad>
          </ns3:TrackPointExtension>
        </extensions>
      </trkpt>
      <trkpt lat="45.26677183806896209716796875" lon="-71.11941651441156864166259765625">
        <ele>953.4000244140625</ele>
        <time>2026-08-22T01:25:59.000Z</time>
        <extensions>
          <ns3:TrackPointExtension>
            <ns3:hr>124</ns3:hr>
            <ns3:cad>65</ns3:cad>
          </ns3:TrackPointExtension>
        </extensions>
      </trkpt>
      <trkpt lat="45.26675281114876270294189453125" lon="-71.119431518018245697021484375">
        <ele>953.4000244140625</ele>
        <time>2026-08-22T01:26:00.000Z</time>
        <extensions>
          <ns3:TrackPointExtension>
            <ns3:hr>124</ns3:hr>
            <ns3:cad>65</ns3:cad>
          </ns3:TrackPointExtension>
        </extensions>
      </trkpt>
      <trkpt lat="45.26673839427530765533447265625" lon="-71.11944316886365413665771484375">
        <ele>953.4000244140625</ele>
        <time>2026-08-22T01:26:01.000Z</time>
        <extensions>
          <ns3:TrackPointExtension>
            <ns3:hr>124</ns3:hr>
            <ns3:cad>65</ns3:cad>
          </ns3:TrackPointExtension>
        </extensions>
      </trkpt>
      <trkpt lat="45.26672230102121829986572265625" lon="-71.11945641227066516876220703125">
        <ele>953.5999755859375</ele>
        <time>2026-08-22T01:26:02.000Z</time>
        <extensions>
          <ns3:TrackPointExtension>
            <ns3:hr>124</ns3:hr>
            <ns3:cad>65</ns3:cad>
          </ns3:TrackPointExtension>
        </extensions>
      </trkpt>
      <trkpt lat="45.26670771650969982147216796875" lon="-71.119465716183185577392578125">
        <ele>953.5999755859375</ele>
        <time>2026-08-22T01:26:03.000Z</time>
        <extensions>
          <ns3:TrackPointExtension>
            <ns3:hr>124</ns3:hr>
            <ns3:cad>65</ns3:cad>
          </ns3:TrackPointExtension>
        </extensions>
      </trkpt>
      <trkpt lat="45.26669145561754703521728515625" lon="-71.11947468481957912445068359375">
        <ele>953.79998779296875</ele>
        <time>2026-08-22T01:26:04.000Z</time>
        <extensions>
          <ns3:TrackPointExtension>
            <ns3:hr>124</ns3:hr>
            <ns3:cad>73</ns3:cad>
          </ns3:TrackPointExtension>
        </extensions>
      </trkpt>
      <trkpt lat="45.266678296029567718505859375" lon="-71.11947334371507167816162109375">
        <ele>954</ele>
        <time>2026-08-22T01:26:05.000Z</time>
        <extensions>
          <ns3:TrackPointExtension>
            <ns3:hr>125</ns3:hr>
            <ns3:cad>73</ns3:cad>
          </ns3:TrackPointExtension>
        </extensions>
      </trkpt>
      <trkpt lat="45.26666195131838321685791015625" lon="-71.119482815265655517578125">
        <ele>954</ele>
        <time>2026-08-22T01:26:06.000Z</time>
        <extensions>
          <ns3:TrackPointExtension>
            <ns3:hr>125</ns3:hr>
            <ns3:cad>73</ns3:cad>
          </ns3:TrackPointExtension>
        </extensions>
      </trkpt>
      <trkpt lat="45.266648121178150177001953125" lon="-71.11949396319687366485595703125">
        <ele>954</ele>
        <time>2026-08-22T01:26:07.000Z</time>
        <extensions>
          <ns3:TrackPointExtension>
            <ns3:hr>125</ns3:hr>
            <ns3:cad>73</ns3:cad>
          </ns3:TrackPointExtension>
        </extensions>
      </trkpt>
      <trkpt lat="45.266636051237583160400390625" lon="-71.119501926004886627197265625">
        <ele>954</ele>
        <time>2026-08-22T01:26:08.000Z</time>
        <extensions>
          <ns3:TrackPointExtension>
            <ns3:hr>125</ns3:hr>
            <ns3:cad>73</ns3:cad>
          </ns3:TrackPointExtension>
        </extensions>
      </trkpt>
      <trkpt lat="45.266623981297016143798828125" lon="-71.11950603313744068145751953125">
        <ele>954</ele>
        <time>2026-08-22T01:26:09.000Z</time>
        <extensions>
          <ns3:TrackPointExtension>
            <ns3:hr>125</ns3:hr>
            <ns3:cad>73</ns3:cad>
          </ns3:TrackPointExtension>
        </extensions>
      </trkpt>
      <trkpt lat="45.266609899699687957763671875" lon="-71.11951961182057857513427734375">
        <ele>953.79998779296875</ele>
        <time>2026-08-22T01:26:10.000Z</time>
        <extensions>
          <ns3:TrackPointExtension>
            <ns3:hr>125</ns3:hr>
            <ns3:cad>73</ns3:cad>
          </ns3:TrackPointExtension>
        </extensions>
      </trkpt>
      <trkpt lat="45.26659623719751834869384765625" lon="-71.11953319050371646881103515625">
        <ele>953.79998779296875</ele>
        <time>2026-08-22T01:26:11.000Z</time>
        <extensions>
          <ns3:TrackPointExtension>
            <ns3:hr>124</ns3:hr>
            <ns3:cad>73</ns3:cad>
          </ns3:TrackPointExtension>
        </extensions>
      </trkpt>
      <trkpt lat="45.26658567599952220916748046875" lon="-71.119539476931095123291015625">
        <ele>953.5999755859375</ele>
        <time>2026-08-22T01:26:12.000Z</time>
        <extensions>
          <ns3:TrackPointExtension>
            <ns3:hr>125</ns3:hr>
            <ns3:cad>73</ns3:cad>
          </ns3:TrackPointExtension>
        </extensions>
      </trkpt>
      <trkpt lat="45.26657561771571636199951171875" lon="-71.11954509280622005462646484375">
        <ele>953.5999755859375</ele>
        <time>2026-08-22T01:26:13.000Z</time>
        <extensions>
          <ns3:TrackPointExtension>
            <ns3:hr>124</ns3:hr>
            <ns3:cad>73</ns3:cad>
          </ns3:TrackPointExtension>
        </extensions>
      </trkpt>
      <trkpt lat="45.26655902154743671417236328125" lon="-71.11955682747066020965576171875">
        <ele>953.4000244140625</ele>
        <time>2026-08-22T01:26:14.000Z</time>
        <extensions>
          <ns3:TrackPointExtension>
            <ns3:hr>124</ns3:hr>
            <ns3:cad>59</ns3:cad>
          </ns3:TrackPointExtension>
        </extensions>
      </trkpt>
      <trkpt lat="45.26654728688299655914306640625" lon="-71.11956738866865634918212890625">
        <ele>953.4000244140625</ele>
        <time>2026-08-22T01:26:15.000Z</time>
        <extensions>
          <ns3:TrackPointExtension>
            <ns3:hr>124</ns3:hr>
            <ns3:cad>59</ns3:cad>
          </ns3:TrackPointExtension>
        </extensions>
      </trkpt>
      <trkpt lat="45.266528762876987457275390625" lon="-71.1195726692676544189453125">
        <ele>953.20001220703125</ele>
        <time>2026-08-22T01:26:16.000Z</time>
        <extensions>
          <ns3:TrackPointExtension>
            <ns3:hr>124</ns3:hr>
            <ns3:cad>59</ns3:cad>
          </ns3:TrackPointExtension>
        </extensions>
      </trkpt>
      <trkpt lat="45.2665118314325809478759765625" lon="-71.11958297900855541229248046875">
        <ele>953.20001220703125</ele>
        <time>2026-08-22T01:26:17.000Z</time>
        <extensions>
          <ns3:TrackPointExtension>
            <ns3:hr>124</ns3:hr>
            <ns3:cad>59</ns3:cad>
          </ns3:TrackPointExtension>
        </extensions>
      </trkpt>
      <trkpt lat="45.26649699546396732330322265625" lon="-71.11959689296782016754150390625">
        <ele>953</ele>
        <time>2026-08-22T01:26:18.000Z</time>
        <extensions>
          <ns3:TrackPointExtension>
            <ns3:hr>124</ns3:hr>
            <ns3:cad>59</ns3:cad>
          </ns3:TrackPointExtension>
        </extensions>
      </trkpt>
      <trkpt lat="45.266484506428241729736328125" lon="-71.1196053586900234222412109375">
        <ele>953</ele>
        <time>2026-08-22T01:26:19.000Z</time>
        <extensions>
          <ns3:TrackPointExtension>
            <ns3:hr>123</ns3:hr>
            <ns3:cad>59</ns3:cad>
          </ns3:TrackPointExtension>
        </extensions>
      </trkpt>
      <trkpt lat="45.26646564714610576629638671875" lon="-71.11961868591606616973876953125">
        <ele>953</ele>
        <time>2026-08-22T01:26:20.000Z</time>
        <extensions>
          <ns3:TrackPointExtension>
            <ns3:hr>123</ns3:hr>
            <ns3:cad>59</ns3:cad>
          </ns3:TrackPointExtension>
        </extensions>
      </trkpt>
      <trkpt lat="45.26645533740520477294921875" lon="-71.119629330933094024658203125">
        <ele>953</ele>
        <time>2026-08-22T01:26:21.000Z</time>
        <extensions>
          <ns3:TrackPointExtension>
            <ns3:hr>124</ns3:hr>
            <ns3:cad>59</ns3:cad>
          </ns3:TrackPointExtension>
        </extensions>
      </trkpt>
      <trkpt lat="45.26643924415111541748046875" lon="-71.11964148469269275665283203125">
        <ele>952.79998779296875</ele>
        <time>2026-08-22T01:26:22.000Z</time>
        <extensions>
          <ns3:TrackPointExtension>
            <ns3:hr>124</ns3:hr>
            <ns3:cad>59</ns3:cad>
          </ns3:TrackPointExtension>
        </extensions>
      </trkpt>
      <trkpt lat="45.266425497829914093017578125" lon="-71.1196486093103885650634765625">
        <ele>952.79998779296875</ele>
        <time>2026-08-22T01:26:23.000Z</time>
        <extensions>
          <ns3:TrackPointExtension>
            <ns3:hr>123</ns3:hr>
            <ns3:cad>68</ns3:cad>
          </ns3:TrackPointExtension>
        </extensions>
      </trkpt>
      <trkpt lat="45.26641845703125" lon="-71.11968104727566242218017578125">
        <ele>952.5999755859375</ele>
        <time>2026-08-22T01:26:24.000Z</time>
        <extensions>
          <ns3:TrackPointExtension>
            <ns3:hr>122</ns3:hr>
            <ns3:cad>68</ns3:cad>
          </ns3:TrackPointExtension>
        </extensions>
      </trkpt>
      <trkpt lat="45.26642004959285259246826171875" lon="-71.11971356905996799468994140625">
        <ele>952.4000244140625</ele>
        <time>2026-08-22T01:26:25.000Z</time>
        <extensions>
          <ns3:TrackPointExtension>
            <ns3:hr>122</ns3:hr>
            <ns3:cad>68</ns3:cad>
          </ns3:TrackPointExtension>
        </extensions>
      </trkpt>
      <trkpt lat="45.26642373763024806976318359375" lon="-71.119736619293689727783203125">
        <ele>952</ele>
        <time>2026-08-22T01:26:26.000Z</time>
        <extensions>
          <ns3:TrackPointExtension>
            <ns3:hr>122</ns3:hr>
            <ns3:cad>68</ns3:cad>
          </ns3:TrackPointExtension>
        </extensions>
      </trkpt>
      <trkpt lat="45.2664276771247386932373046875" lon="-71.11975849606096744537353515625">
        <ele>951.79998779296875</ele>
        <time>2026-08-22T01:26:27.000Z</time>
        <extensions>
          <ns3:TrackPointExtension>
            <ns3:hr>122</ns3:hr>
            <ns3:cad>68</ns3:cad>
          </ns3:TrackPointExtension>
        </extensions>
      </trkpt>
      <trkpt lat="45.26642826385796070098876953125" lon="-71.11977425403892993927001953125">
        <ele>951.4000244140625</ele>
        <time>2026-08-22T01:26:28.000Z</time>
        <extensions>
          <ns3:TrackPointExtension>
            <ns3:hr>122</ns3:hr>
            <ns3:cad>0</ns3:cad>
          </ns3:TrackPointExtension>
        </extensions>
      </trkpt>
      <trkpt lat="45.2664293535053730010986328125" lon="-71.119790263473987579345703125">
        <ele>951</ele>
        <time>2026-08-22T01:26:29.000Z</time>
        <extensions>
          <ns3:TrackPointExtension>
            <ns3:hr>121</ns3:hr>
            <ns3:cad>0</ns3:cad>
          </ns3:TrackPointExtension>
        </extensions>
      </trkpt>
      <trkpt lat="45.26643262244760990142822265625" lon="-71.11980459652841091156005859375">
        <ele>950.79998779296875</ele>
        <time>2026-08-22T01:26:30.000Z</time>
        <extensions>
          <ns3:TrackPointExtension>
            <ns3:hr>122</ns3:hr>
            <ns3:cad>0</ns3:cad>
          </ns3:TrackPointExtension>
        </extensions>
      </trkpt>
      <trkpt lat="45.26643144898116588592529296875" lon="-71.11981599591672420501708984375">
        <ele>950.4000244140625</ele>
        <time>2026-08-22T01:26:31.000Z</time>
        <extensions>
          <ns3:TrackPointExtension>
            <ns3:hr>122</ns3:hr>
            <ns3:cad>0</ns3:cad>
          </ns3:TrackPointExtension>
        </extensions>
      </trkpt>
      <trkpt lat="45.266429521143436431884765625" lon="-71.11982974223792552947998046875">
        <ele>950.20001220703125</ele>
        <time>2026-08-22T01:26:32.000Z</time>
        <extensions>
          <ns3:TrackPointExtension>
            <ns3:hr>123</ns3:hr>
            <ns3:cad>0</ns3:cad>
          </ns3:TrackPointExtension>
        </extensions>
      </trkpt>
      <trkpt lat="45.26643128134310245513916015625" lon="-71.11984600313007831573486328125">
        <ele>949.79998779296875</ele>
        <time>2026-08-22T01:26:33.000Z</time>
        <extensions>
          <ns3:TrackPointExtension>
            <ns3:hr>123</ns3:hr>
            <ns3:cad>0</ns3:cad>
          </ns3:TrackPointExtension>
        </extensions>
      </trkpt>
      <trkpt lat="45.2664317004382610321044921875" lon="-71.1198584921658039093017578125">
        <ele>949.4000244140625</ele>
        <time>2026-08-22T01:26:34.000Z</time>
        <extensions>
          <ns3:TrackPointExtension>
            <ns3:hr>122</ns3:hr>
            <ns3:cad>0</ns3:cad>
          </ns3:TrackPointExtension>
        </extensions>
      </trkpt>
      <trkpt lat="45.266429521143436431884765625" lon="-71.11986243166029453277587890625">
        <ele>949</ele>
        <time>2026-08-22T01:26:35.000Z</time>
        <extensions>
          <ns3:TrackPointExtension>
            <ns3:hr>122</ns3:hr>
            <ns3:cad>0</ns3:cad>
          </ns3:TrackPointExtension>
        </extensions>
      </trkpt>
      <trkpt lat="45.2664310298860073089599609375" lon="-71.11987466923892498016357421875">
        <ele>948.79998779296875</ele>
        <time>2026-08-22T01:26:36.000Z</time>
        <extensions>
          <ns3:TrackPointExtension>
            <ns3:hr>122</ns3:hr>
            <ns3:cad>0</ns3:cad>
          </ns3:TrackPointExtension>
        </extensions>
      </trkpt>
      <trkpt lat="45.26643480174243450164794921875" lon="-71.119888164103031158447265625">
        <ele>948.5999755859375</ele>
        <time>2026-08-22T01:26:37.000Z</time>
        <extensions>
          <ns3:TrackPointExtension>
            <ns3:hr>121</ns3:hr>
            <ns3:cad>0</ns3:cad>
          </ns3:TrackPointExtension>
        </extensions>
      </trkpt>
      <trkpt lat="45.26643664576113224029541015625" lon="-71.11989864148199558258056640625">
        <ele>948.5999755859375</ele>
        <time>2026-08-22T01:26:38.000Z</time>
        <extensions>
          <ns3:TrackPointExtension>
            <ns3:hr>121</ns3:hr>
            <ns3:cad>0</ns3:cad>
          </ns3:TrackPointExtension>
        </extensions>
      </trkpt>
      <trkpt lat="45.2664439380168914794921875" lon="-71.11990249715745449066162109375">
        <ele>948.4000244140625</ele>
        <time>2026-08-22T01:26:39.000Z</time>
        <extensions>
          <ns3:TrackPointExtension>
            <ns3:hr>122</ns3:hr>
            <ns3:cad>0</ns3:cad>
          </ns3:TrackPointExtension>
        </extensions>
      </trkpt>
      <trkpt lat="45.26644720695912837982177734375" lon="-71.11990484409034252166748046875">
        <ele>948.20001220703125</ele>
        <time>2026-08-22T01:26:40.000Z</time>
        <extensions>
          <ns3:TrackPointExtension>
            <ns3:hr>122</ns3:hr>
            <ns3:cad>50</ns3:cad>
          </ns3:TrackPointExtension>
        </extensions>
      </trkpt>
      <trkpt lat="45.26644921861588954925537109375" lon="-71.1199131421744823455810546875">
        <ele>948</ele>
        <time>2026-08-22T01:26:41.000Z</time>
        <extensions>
          <ns3:TrackPointExtension>
            <ns3:hr>122</ns3:hr>
            <ns3:cad>50</ns3:cad>
          </ns3:TrackPointExtension>
        </extensions>
      </trkpt>
      <trkpt lat="45.266442596912384033203125" lon="-71.11992278136312961578369140625">
        <ele>947.79998779296875</ele>
        <time>2026-08-22T01:26:42.000Z</time>
        <extensions>
          <ns3:TrackPointExtension>
            <ns3:hr>122</ns3:hr>
            <ns3:cad>51</ns3:cad>
          </ns3:TrackPointExtension>
        </extensions>
      </trkpt>
      <trkpt lat="45.2664350531995296478271484375" lon="-71.1199292354285717010498046875">
        <ele>947.4000244140625</ele>
        <time>2026-08-22T01:26:43.000Z</time>
        <extensions>
          <ns3:TrackPointExtension>
            <ns3:hr>122</ns3:hr>
            <ns3:cad>51</ns3:cad>
          </ns3:TrackPointExtension>
        </extensions>
      </trkpt>
      <trkpt lat="45.26642524637281894683837890625" lon="-71.11993736587464809417724609375">
        <ele>947.20001220703125</ele>
        <time>2026-08-22T01:26:44.000Z</time>
        <extensions>
          <ns3:TrackPointExtension>
            <ns3:hr>122</ns3:hr>
            <ns3:cad>51</ns3:cad>
          </ns3:TrackPointExtension>
        </extensions>
      </trkpt>
      <trkpt lat="45.26641845703125" lon="-71.11994038335978984832763671875">
        <ele>946.79998779296875</ele>
        <time>2026-08-22T01:26:45.000Z</time>
        <extensions>
          <ns3:TrackPointExtension>
            <ns3:hr>121</ns3:hr>
            <ns3:cad>51</ns3:cad>
          </ns3:TrackPointExtension>
        </extensions>
      </trkpt>
      <trkpt lat="45.26641150005161762237548828125" lon="-71.1199459992349147796630859375">
        <ele>946.4000244140625</ele>
        <time>2026-08-22T01:26:46.000Z</time>
        <extensions>
          <ns3:TrackPointExtension>
            <ns3:hr>120</ns3:hr>
            <ns3:cad>51</ns3:cad>
          </ns3:TrackPointExtension>
        </extensions>
      </trkpt>
      <trkpt lat="45.26640362106263637542724609375" lon="-71.119951196014881134033203125">
        <ele>946</ele>
        <time>2026-08-22T01:26:47.000Z</time>
        <extensions>
          <ns3:TrackPointExtension>
            <ns3:hr>119</ns3:hr>
            <ns3:cad>0</ns3:cad>
          </ns3:TrackPointExtension>
        </extensions>
      </trkpt>
      <trkpt lat="45.26639507152140140533447265625" lon="-71.1199567280709743499755859375">
        <ele>945.5999755859375</ele>
        <time>2026-08-22T01:26:48.000Z</time>
        <extensions>
          <ns3:TrackPointExtension>
            <ns3:hr>118</ns3:hr>
            <ns3:cad>0</ns3:cad>
          </ns3:TrackPointExtension>
        </extensions>
      </trkpt>
      <trkpt lat="45.266382582485675811767578125" lon="-71.1199520342051982879638671875">
        <ele>945.4000244140625</ele>
        <time>2026-08-22T01:26:49.000Z</time>
        <extensions>
          <ns3:TrackPointExtension>
            <ns3:hr>118</ns3:hr>
            <ns3:cad>0</ns3:cad>
          </ns3:TrackPointExtension>
        </extensions>
      </trkpt>
      <trkpt lat="45.26637428440153598785400390625" lon="-71.11994750797748565673828125">
        <ele>945.20001220703125</ele>
        <time>2026-08-22T01:26:50.000Z</time>
        <extensions>
          <ns3:TrackPointExtension>
            <ns3:hr>118</ns3:hr>
            <ns3:cad>0</ns3:cad>
          </ns3:TrackPointExtension>
        </extensions>
      </trkpt>
      <trkpt lat="45.26636254973709583282470703125" lon="-71.11994340084493160247802734375">
        <ele>945</ele>
        <time>2026-08-22T01:26:51.000Z</time>
        <extensions>
          <ns3:TrackPointExtension>
            <ns3:hr>118</ns3:hr>
            <ns3:cad>0</ns3:cad>
          </ns3:TrackPointExtension>
        </extensions>
      </trkpt>
      <trkpt lat="45.2663579396903514862060546875" lon="-71.1199428141117095947265625">
        <ele>944.79998779296875</ele>
        <time>2026-08-22T01:26:52.000Z</time>
        <extensions>
          <ns3:TrackPointExtension>
            <ns3:hr>118</ns3:hr>
            <ns3:cad>0</ns3:cad>
          </ns3:TrackPointExtension>
        </extensions>
      </trkpt>
      <trkpt lat="45.2663488872349262237548828125" lon="-71.1199470050632953643798828125">
        <ele>944.79998779296875</ele>
        <time>2026-08-22T01:26:53.000Z</time>
        <extensions>
          <ns3:TrackPointExtension>
            <ns3:hr>117</ns3:hr>
            <ns3:cad>0</ns3:cad>
          </ns3:TrackPointExtension>
        </extensions>
      </trkpt>
      <trkpt lat="45.266345702111721038818359375" lon="-71.11995664425194263458251953125">
        <ele>944.79998779296875</ele>
        <time>2026-08-22T01:26:54.000Z</time>
        <extensions>
          <ns3:TrackPointExtension>
            <ns3:hr>118</ns3:hr>
            <ns3:cad>0</ns3:cad>
          </ns3:TrackPointExtension>
        </extensions>
      </trkpt>
      <trkpt lat="45.26634159497916698455810546875" lon="-71.1199671216309070587158203125">
        <ele>944.5999755859375</ele>
        <time>2026-08-22T01:26:55.000Z</time>
        <extensions>
          <ns3:TrackPointExtension>
            <ns3:hr>119</ns3:hr>
            <ns3:cad>0</ns3:cad>
          </ns3:TrackPointExtension>
        </extensions>
      </trkpt>
      <trkpt lat="45.26633773930370807647705078125" lon="-71.1199822090566158294677734375">
        <ele>944.4000244140625</ele>
        <time>2026-08-22T01:26:56.000Z</time>
        <extensions>
          <ns3:TrackPointExtension>
            <ns3:hr>119</ns3:hr>
            <ns3:cad>0</ns3:cad>
          </ns3:TrackPointExtension>
        </extensions>
      </trkpt>
      <trkpt lat="45.266340337693691253662109375" lon="-71.119996793568134307861328125">
        <ele>944</ele>
        <time>2026-08-22T01:26:57.000Z</time>
        <extensions>
          <ns3:TrackPointExtension>
            <ns3:hr>120</ns3:hr>
            <ns3:cad>76</ns3:cad>
          </ns3:TrackPointExtension>
        </extensions>
      </trkpt>
      <trkpt lat="45.2663472108542919158935546875" lon="-71.1200123839080333709716796875">
        <ele>943.5999755859375</ele>
        <time>2026-08-22T01:26:58.000Z</time>
        <extensions>
          <ns3:TrackPointExtension>
            <ns3:hr>120</ns3:hr>
            <ns3:cad>76</ns3:cad>
          </ns3:TrackPointExtension>
        </extensions>
      </trkpt>
      <trkpt lat="45.26635232381522655487060546875" lon="-71.12002923153340816497802734375">
        <ele>943.4000244140625</ele>
        <time>2026-08-22T01:26:59.000Z</time>
        <extensions>
          <ns3:TrackPointExtension>
            <ns3:hr>119</ns3:hr>
            <ns3:cad>55</ns3:cad>
          </ns3:TrackPointExtension>
        </extensions>
      </trkpt>
      <trkpt lat="45.26634980924427509307861328125" lon="-71.12003811635076999664306640625">
        <ele>943</ele>
        <time>2026-08-22T01:27:00.000Z</time>
        <extensions>
          <ns3:TrackPointExtension>
            <ns3:hr>119</ns3:hr>
            <ns3:cad>55</ns3:cad>
          </ns3:TrackPointExtension>
        </extensions>
      </trkpt>
      <trkpt lat="45.26633706875145435333251953125" lon="-71.1200559698045253753662109375">
        <ele>942.5999755859375</ele>
        <time>2026-08-22T01:27:01.000Z</time>
        <extensions>
          <ns3:TrackPointExtension>
            <ns3:hr>118</ns3:hr>
            <ns3:cad>55</ns3:cad>
          </ns3:TrackPointExtension>
        </extensions>
      </trkpt>
      <trkpt lat="45.26633187197148799896240234375" lon="-71.12006795592606067657470703125">
        <ele>942.20001220703125</ele>
        <time>2026-08-22T01:27:02.000Z</time>
        <extensions>
          <ns3:TrackPointExtension>
            <ns3:hr>118</ns3:hr>
            <ns3:cad>0</ns3:cad>
          </ns3:TrackPointExtension>
        </extensions>
      </trkpt>
      <trkpt lat="45.26632659137248992919921875" lon="-71.12007357180118560791015625">
        <ele>941.79998779296875</ele>
        <time>2026-08-22T01:27:03.000Z</time>
        <extensions>
          <ns3:TrackPointExtension>
            <ns3:hr>118</ns3:hr>
            <ns3:cad>0</ns3:cad>
          </ns3:TrackPointExtension>
        </extensions>
      </trkpt>
      <trkpt lat="45.266320221126079559326171875" lon="-71.12007248215377330780029296875">
        <ele>941.4000244140625</ele>
        <time>2026-08-22T01:27:04.000Z</time>
        <extensions>
          <ns3:TrackPointExtension>
            <ns3:hr>118</ns3:hr>
            <ns3:cad>0</ns3:cad>
          </ns3:TrackPointExtension>
        </extensions>
      </trkpt>
      <trkpt lat="45.2663113363087177276611328125" lon="-71.1200814507901668548583984375">
        <ele>941</ele>
        <time>2026-08-22T01:27:05.000Z</time>
        <extensions>
          <ns3:TrackPointExtension>
            <ns3:hr>118</ns3:hr>
            <ns3:cad>0</ns3:cad>
          </ns3:TrackPointExtension>
        </extensions>
      </trkpt>
      <trkpt lat="45.26630387641489505767822265625" lon="-71.12009746022522449493408203125">
        <ele>940.5999755859375</ele>
        <time>2026-08-22T01:27:06.000Z</time>
        <extensions>
          <ns3:TrackPointExtension>
            <ns3:hr>117</ns3:hr>
            <ns3:cad>0</ns3:cad>
          </ns3:TrackPointExtension>
        </extensions>
      </trkpt>
      <trkpt lat="45.2663059718906879425048828125" lon="-71.12011506222188472747802734375">
        <ele>940.4000244140625</ele>
        <time>2026-08-22T01:27:07.000Z</time>
        <extensions>
          <ns3:TrackPointExtension>
            <ns3:hr>117</ns3:hr>
            <ns3:cad>0</ns3:cad>
          </ns3:TrackPointExtension>
        </extensions>
      </trkpt>
      <trkpt lat="45.26630454696714878082275390625" lon="-71.12013299949467182159423828125">
        <ele>940</ele>
        <time>2026-08-22T01:27:08.000Z</time>
        <extensions>
          <ns3:TrackPointExtension>
            <ns3:hr>117</ns3:hr>
            <ns3:cad>0</ns3:cad>
          </ns3:TrackPointExtension>
        </extensions>
      </trkpt>
      <trkpt lat="45.26630647480487823486328125" lon="-71.12015068531036376953125">
        <ele>939.79998779296875</ele>
        <time>2026-08-22T01:27:09.000Z</time>
        <extensions>
          <ns3:TrackPointExtension>
            <ns3:hr>117</ns3:hr>
            <ns3:cad>0</ns3:cad>
          </ns3:TrackPointExtension>
        </extensions>
      </trkpt>
      <trkpt lat="45.26630504988133907318115234375" lon="-71.12016166560351848602294921875">
        <ele>939.4000244140625</ele>
        <time>2026-08-22T01:27:10.000Z</time>
        <extensions>
          <ns3:TrackPointExtension>
            <ns3:hr>118</ns3:hr>
            <ns3:cad>0</ns3:cad>
          </ns3:TrackPointExtension>
        </extensions>
      </trkpt>
      <trkpt lat="45.26629784144461154937744140625" lon="-71.1201578937470912933349609375">
        <ele>938.79998779296875</ele>
        <time>2026-08-22T01:27:11.000Z</time>
        <extensions>
          <ns3:TrackPointExtension>
            <ns3:hr>118</ns3:hr>
            <ns3:cad>0</ns3:cad>
          </ns3:TrackPointExtension>
        </extensions>
      </trkpt>
      <trkpt lat="45.266292728483676910400390625" lon="-71.1201562173664569854736328125">
        <ele>938.5999755859375</ele>
        <time>2026-08-22T01:27:12.000Z</time>
        <extensions>
          <ns3:TrackPointExtension>
            <ns3:hr>117</ns3:hr>
            <ns3:cad>0</ns3:cad>
          </ns3:TrackPointExtension>
        </extensions>
      </trkpt>
      <trkpt lat="45.26628660969436168670654296875" lon="-71.1201547086238861083984375">
        <ele>938.20001220703125</ele>
        <time>2026-08-22T01:27:13.000Z</time>
        <extensions>
          <ns3:TrackPointExtension>
            <ns3:hr>117</ns3:hr>
            <ns3:cad>71</ns3:cad>
          </ns3:TrackPointExtension>
        </extensions>
      </trkpt>
      <trkpt lat="45.26627772487699985504150390625" lon="-71.12015864811837673187255859375">
        <ele>937.79998779296875</ele>
        <time>2026-08-22T01:27:14.000Z</time>
        <extensions>
          <ns3:TrackPointExtension>
            <ns3:hr>117</ns3:hr>
            <ns3:cad>77</ns3:cad>
          </ns3:TrackPointExtension>
        </extensions>
      </trkpt>
      <trkpt lat="45.26627026498317718505859375" lon="-71.12016149796545505523681640625">
        <ele>937.4000244140625</ele>
        <time>2026-08-22T01:27:15.000Z</time>
        <extensions>
          <ns3:TrackPointExtension>
            <ns3:hr>117</ns3:hr>
            <ns3:cad>77</ns3:cad>
          </ns3:TrackPointExtension>
        </extensions>
      </trkpt>
      <trkpt lat="45.26625945232808589935302734375" lon="-71.1201679520308971405029296875">
        <ele>937.20001220703125</ele>
        <time>2026-08-22T01:27:16.000Z</time>
        <extensions>
          <ns3:TrackPointExtension>
            <ns3:hr>117</ns3:hr>
            <ns3:cad>77</ns3:cad>
          </ns3:TrackPointExtension>
        </extensions>
      </trkpt>
      <trkpt lat="45.26625039987266063690185546875" lon="-71.12016786821186542510986328125">
        <ele>936.79998779296875</ele>
        <time>2026-08-22T01:27:17.000Z</time>
        <extensions>
          <ns3:TrackPointExtension>
            <ns3:hr>118</ns3:hr>
            <ns3:cad>77</ns3:cad>
          </ns3:TrackPointExtension>
        </extensions>
      </trkpt>
      <trkpt lat="45.26624235324561595916748046875" lon="-71.1201716400682926177978515625">
        <ele>936.5999755859375</ele>
        <time>2026-08-22T01:27:18.000Z</time>
        <extensions>
          <ns3:TrackPointExtension>
            <ns3:hr>118</ns3:hr>
            <ns3:cad>61</ns3:cad>
          </ns3:TrackPointExtension>
        </extensions>
      </trkpt>
      <trkpt lat="45.26623397134244441986083984375" lon="-71.120176501572132110595703125">
        <ele>936.20001220703125</ele>
        <time>2026-08-22T01:27:19.000Z</time>
        <extensions>
          <ns3:TrackPointExtension>
            <ns3:hr>117</ns3:hr>
            <ns3:cad>61</ns3:cad>
          </ns3:TrackPointExtension>
        </extensions>
      </trkpt>
      <trkpt lat="45.26622860692441463470458984375" lon="-71.12018832005560398101806640625">
        <ele>935.79998779296875</ele>
        <time>2026-08-22T01:27:20.000Z</time>
        <extensions>
          <ns3:TrackPointExtension>
            <ns3:hr>117</ns3:hr>
            <ns3:cad>0</ns3:cad>
          </ns3:TrackPointExtension>
        </extensions>
      </trkpt>
      <trkpt lat="45.266220308840274810791015625" lon="-71.1202014796435832977294921875">
        <ele>935.5999755859375</ele>
        <time>2026-08-22T01:27:21.000Z</time>
        <extensions>
          <ns3:TrackPointExtension>
            <ns3:hr>117</ns3:hr>
            <ns3:cad>0</ns3:cad>
          </ns3:TrackPointExtension>
        </extensions>
      </trkpt>
      <trkpt lat="45.2662124298512935638427734375" lon="-71.12021061591804027557373046875">
        <ele>935.20001220703125</ele>
        <time>2026-08-22T01:27:22.000Z</time>
        <extensions>
          <ns3:TrackPointExtension>
            <ns3:hr>116</ns3:hr>
            <ns3:cad>0</ns3:cad>
          </ns3:TrackPointExtension>
        </extensions>
      </trkpt>
      <trkpt lat="45.2662043832242488861083984375" lon="-71.120223440229892730712890625">
        <ele>934.79998779296875</ele>
        <time>2026-08-22T01:27:23.000Z</time>
        <extensions>
          <ns3:TrackPointExtension>
            <ns3:hr>116</ns3:hr>
            <ns3:cad>0</ns3:cad>
          </ns3:TrackPointExtension>
        </extensions>
      </trkpt>
      <trkpt lat="45.266196839511394500732421875" lon="-71.1202272959053516387939453125">
        <ele>934.4000244140625</ele>
        <time>2026-08-22T01:27:24.000Z</time>
        <extensions>
          <ns3:TrackPointExtension>
            <ns3:hr>116</ns3:hr>
            <ns3:cad>0</ns3:cad>
          </ns3:TrackPointExtension>
        </extensions>
      </trkpt>
      <trkpt lat="45.266188122332096099853515625" lon="-71.12023341469466686248779296875">
        <ele>934</ele>
        <time>2026-08-22T01:27:25.000Z</time>
        <extensions>
          <ns3:TrackPointExtension>
            <ns3:hr>117</ns3:hr>
            <ns3:cad>0</ns3:cad>
          </ns3:TrackPointExtension>
        </extensions>
      </trkpt>
      <trkpt lat="45.26618250645697116851806640625" lon="-71.12023852765560150146484375">
        <ele>933.5999755859375</ele>
        <time>2026-08-22T01:27:26.000Z</time>
        <extensions>
          <ns3:TrackPointExtension>
            <ns3:hr>117</ns3:hr>
            <ns3:cad>0</ns3:cad>
          </ns3:TrackPointExtension>
        </extensions>
      </trkpt>
      <trkpt lat="45.26617345400154590606689453125" lon="-71.1202512681484222412109375">
        <ele>933.4000244140625</ele>
        <time>2026-08-22T01:27:27.000Z</time>
        <extensions>
          <ns3:TrackPointExtension>
            <ns3:hr>117</ns3:hr>
            <ns3:cad>0</ns3:cad>
          </ns3:TrackPointExtension>
        </extensions>
      </trkpt>
      <trkpt lat="45.2661664970219135284423828125" lon="-71.1202578060328960418701171875">
        <ele>933</ele>
        <time>2026-08-22T01:27:28.000Z</time>
        <extensions>
          <ns3:TrackPointExtension>
            <ns3:hr>117</ns3:hr>
            <ns3:cad>0</ns3:cad>
          </ns3:TrackPointExtension>
        </extensions>
      </trkpt>
      <trkpt lat="45.26615492999553680419921875" lon="-71.1202635057270526885986328125">
        <ele>932.79998779296875</ele>
        <time>2026-08-22T01:27:29.000Z</time>
        <extensions>
          <ns3:TrackPointExtension>
            <ns3:hr>118</ns3:hr>
            <ns3:cad>0</ns3:cad>
          </ns3:TrackPointExtension>
        </extensions>
      </trkpt>
      <trkpt lat="45.26614411734044551849365234375" lon="-71.1202700436115264892578125">
        <ele>932.5999755859375</ele>
        <time>2026-08-22T01:27:30.000Z</time>
        <extensions>
          <ns3:TrackPointExtension>
            <ns3:hr>118</ns3:hr>
            <ns3:cad>55</ns3:cad>
          </ns3:TrackPointExtension>
        </extensions>
      </trkpt>
      <trkpt lat="45.26613355614244937896728515625" lon="-71.120273061096668243408203125">
        <ele>932.4000244140625</ele>
        <time>2026-08-22T01:27:31.000Z</time>
        <extensions>
          <ns3:TrackPointExtension>
            <ns3:hr>117</ns3:hr>
            <ns3:cad>55</ns3:cad>
          </ns3:TrackPointExtension>
        </extensions>
      </trkpt>
      <trkpt lat="45.26612165383994579315185546875" lon="-71.1202866397798061370849609375">
        <ele>932</ele>
        <time>2026-08-22T01:27:32.000Z</time>
        <extensions>
          <ns3:TrackPointExtension>
            <ns3:hr>117</ns3:hr>
            <ns3:cad>55</ns3:cad>
          </ns3:TrackPointExtension>
        </extensions>
      </trkpt>
      <trkpt lat="45.26611863635480403900146484375" lon="-71.12030231393873691558837890625">
        <ele>931.79998779296875</ele>
        <time>2026-08-22T01:27:33.000Z</time>
        <extensions>
          <ns3:TrackPointExtension>
            <ns3:hr>117</ns3:hr>
            <ns3:cad>0</ns3:cad>
          </ns3:TrackPointExtension>
        </extensions>
      </trkpt>
      <trkpt lat="45.26611478067934513092041015625" lon="-71.12031354568898677825927734375">
        <ele>931.4000244140625</ele>
        <time>2026-08-22T01:27:34.000Z</time>
        <extensions>
          <ns3:TrackPointExtension>
            <ns3:hr>117</ns3:hr>
            <ns3:cad>0</ns3:cad>
          </ns3:TrackPointExtension>
        </extensions>
      </trkpt>
      <trkpt lat="45.26611444540321826934814453125" lon="-71.12032410688698291778564453125">
        <ele>931.20001220703125</ele>
        <time>2026-08-22T01:27:35.000Z</time>
        <extensions>
          <ns3:TrackPointExtension>
            <ns3:hr>117</ns3:hr>
            <ns3:cad>54</ns3:cad>
          </ns3:TrackPointExtension>
        </extensions>
      </trkpt>
      <trkpt lat="45.26611360721290111541748046875" lon="-71.12034070305526256561279296875">
        <ele>930.79998779296875</ele>
        <time>2026-08-22T01:27:36.000Z</time>
        <extensions>
          <ns3:TrackPointExtension>
            <ns3:hr>117</ns3:hr>
            <ns3:cad>54</ns3:cad>
          </ns3:TrackPointExtension>
        </extensions>
      </trkpt>
      <trkpt lat="45.2661175467073917388916015625" lon="-71.1203550361096858978271484375">
        <ele>930.4000244140625</ele>
        <time>2026-08-22T01:27:37.000Z</time>
        <extensions>
          <ns3:TrackPointExtension>
            <ns3:hr>117</ns3:hr>
            <ns3:cad>54</ns3:cad>
          </ns3:TrackPointExtension>
        </extensions>
      </trkpt>
      <trkpt lat="45.266123078763484954833984375" lon="-71.12037071026861667633056640625">
        <ele>930</ele>
        <time>2026-08-22T01:27:38.000Z</time>
        <extensions>
          <ns3:TrackPointExtension>
            <ns3:hr>118</ns3:hr>
            <ns3:cad>0</ns3:cad>
          </ns3:TrackPointExtension>
        </extensions>
      </trkpt>
      <trkpt lat="45.26613213121891021728515625" lon="-71.1203818581998348236083984375">
        <ele>929.4000244140625</ele>
        <time>2026-08-22T01:27:39.000Z</time>
        <extensions>
          <ns3:TrackPointExtension>
            <ns3:hr>118</ns3:hr>
            <ns3:cad>0</ns3:cad>
          </ns3:TrackPointExtension>
        </extensions>
      </trkpt>
      <trkpt lat="45.26614160276949405670166015625" lon="-71.12039149738848209381103515625">
        <ele>929</ele>
        <time>2026-08-22T01:27:40.000Z</time>
        <extensions>
          <ns3:TrackPointExtension>
            <ns3:hr>119</ns3:hr>
            <ns3:cad>0</ns3:cad>
          </ns3:TrackPointExtension>
        </extensions>
      </trkpt>
      <trkpt lat="45.26614730246365070343017578125" lon="-71.12040021456778049468994140625">
        <ele>928.5999755859375</ele>
        <time>2026-08-22T01:27:41.000Z</time>
        <extensions>
          <ns3:TrackPointExtension>
            <ns3:hr>118</ns3:hr>
            <ns3:cad>0</ns3:cad>
          </ns3:TrackPointExtension>
        </extensions>
      </trkpt>
      <trkpt lat="45.2661493979394435882568359375" lon="-71.12040893174707889556884765625">
        <ele>928.20001220703125</ele>
        <time>2026-08-22T01:27:42.000Z</time>
        <extensions>
          <ns3:TrackPointExtension>
            <ns3:hr>119</ns3:hr>
            <ns3:cad>0</ns3:cad>
          </ns3:TrackPointExtension>
        </extensions>
      </trkpt>
      <trkpt lat="45.2661514095962047576904296875" lon="-71.12041647545993328094482421875">
        <ele>928</ele>
        <time>2026-08-22T01:27:43.000Z</time>
        <extensions>
          <ns3:TrackPointExtension>
            <ns3:hr>119</ns3:hr>
            <ns3:cad>0</ns3:cad>
          </ns3:TrackPointExtension>
        </extensions>
      </trkpt>
      <trkpt lat="45.26615886949002742767333984375" lon="-71.1204277910292148590087890625">
        <ele>927.79998779296875</ele>
        <time>2026-08-22T01:27:44.000Z</time>
        <extensions>
          <ns3:TrackPointExtension>
            <ns3:hr>119</ns3:hr>
            <ns3:cad>0</ns3:cad>
          </ns3:TrackPointExtension>
        </extensions>
      </trkpt>
      <trkpt lat="45.26616632938385009765625" lon="-71.12043575383722782135009765625">
        <ele>927.4000244140625</ele>
        <time>2026-08-22T01:27:45.000Z</time>
        <extensions>
          <ns3:TrackPointExtension>
            <ns3:hr>119</ns3:hr>
            <ns3:cad>0</ns3:cad>
          </ns3:TrackPointExtension>
        </extensions>
      </trkpt>
      <trkpt lat="45.26617093943059444427490234375" lon="-71.120440028607845306396484375">
        <ele>927.20001220703125</ele>
        <time>2026-08-22T01:27:46.000Z</time>
        <extensions>
          <ns3:TrackPointExtension>
            <ns3:hr>118</ns3:hr>
            <ns3:cad>0</ns3:cad>
          </ns3:TrackPointExtension>
        </extensions>
      </trkpt>
      <trkpt lat="45.26617445982992649078369140625" lon="-71.1204472370445728302001953125">
        <ele>927</ele>
        <time>2026-08-22T01:27:47.000Z</time>
        <extensions>
          <ns3:TrackPointExtension>
            <ns3:hr>118</ns3:hr>
            <ns3:cad>61</ns3:cad>
          </ns3:TrackPointExtension>
        </extensions>
      </trkpt>
      <trkpt lat="45.2661859430372714996337890625" lon="-71.120461486279964447021484375">
        <ele>926.5999755859375</ele>
        <time>2026-08-22T01:27:48.000Z</time>
        <extensions>
          <ns3:TrackPointExtension>
            <ns3:hr>118</ns3:hr>
            <ns3:cad>61</ns3:cad>
          </ns3:TrackPointExtension>
        </extensions>
      </trkpt>
      <trkpt lat="45.2661966718733310699462890625" lon="-71.12047146074473857879638671875">
        <ele>926.4000244140625</ele>
        <time>2026-08-22T01:27:49.000Z</time>
        <extensions>
          <ns3:TrackPointExtension>
            <ns3:hr>118</ns3:hr>
            <ns3:cad>50</ns3:cad>
          </ns3:TrackPointExtension>
        </extensions>
      </trkpt>
      <trkpt lat="45.26620765216648578643798828125" lon="-71.1204827763140201568603515625">
        <ele>926.20001220703125</ele>
        <time>2026-08-22T01:27:50.000Z</time>
        <extensions>
          <ns3:TrackPointExtension>
            <ns3:hr>117</ns3:hr>
            <ns3:cad>50</ns3:cad>
          </ns3:TrackPointExtension>
        </extensions>
      </trkpt>
      <trkpt lat="45.26621284894645214080810546875" lon="-71.12049107439815998077392578125">
        <ele>926</ele>
        <time>2026-08-22T01:27:51.000Z</time>
        <extensions>
          <ns3:TrackPointExtension>
            <ns3:hr>117</ns3:hr>
            <ns3:cad>50</ns3:cad>
          </ns3:TrackPointExtension>
        </extensions>
      </trkpt>
      <trkpt lat="45.266222991049289703369140625" lon="-71.12050297670066356658935546875">
        <ele>925.79998779296875</ele>
        <time>2026-08-22T01:27:52.000Z</time>
        <extensions>
          <ns3:TrackPointExtension>
            <ns3:hr>117</ns3:hr>
            <ns3:cad>50</ns3:cad>
          </ns3:TrackPointExtension>
        </extensions>
      </trkpt>
      <trkpt lat="45.26623263023793697357177734375" lon="-71.120507754385471343994140625">
        <ele>925.5999755859375</ele>
        <time>2026-08-22T01:27:53.000Z</time>
        <extensions>
          <ns3:TrackPointExtension>
            <ns3:hr>117</ns3:hr>
            <ns3:cad>50</ns3:cad>
          </ns3:TrackPointExtension>
        </extensions>
      </trkpt>
      <trkpt lat="45.26623807847499847412109375" lon="-71.12050934694707393646240234375">
        <ele>925.4000244140625</ele>
        <time>2026-08-22T01:27:54.000Z</time>
        <extensions>
          <ns3:TrackPointExtension>
            <ns3:hr>117</ns3:hr>
            <ns3:cad>0</ns3:cad>
          </ns3:TrackPointExtension>
        </extensions>
      </trkpt>
      <trkpt lat="45.26624419726431369781494140625" lon="-71.12051169387996196746826171875">
        <ele>925.4000244140625</ele>
        <time>2026-08-22T01:27:55.000Z</time>
        <extensions>
          <ns3:TrackPointExtension>
            <ns3:hr>117</ns3:hr>
            <ns3:cad>0</ns3:cad>
          </ns3:TrackPointExtension>
        </extensions>
      </trkpt>
      <trkpt lat="45.26625341735780239105224609375" lon="-71.1205208301544189453125">
        <ele>925.20001220703125</ele>
        <time>2026-08-22T01:27:56.000Z</time>
        <extensions>
          <ns3:TrackPointExtension>
            <ns3:hr>117</ns3:hr>
            <ns3:cad>0</ns3:cad>
          </ns3:TrackPointExtension>
        </extensions>
      </trkpt>
      <trkpt lat="45.266263224184513092041015625" lon="-71.12052326090633869171142578125">
        <ele>925</ele>
        <time>2026-08-22T01:27:57.000Z</time>
        <extensions>
          <ns3:TrackPointExtension>
            <ns3:hr>117</ns3:hr>
            <ns3:cad>0</ns3:cad>
          </ns3:TrackPointExtension>
        </extensions>
      </trkpt>
      <trkpt lat="45.26627118699252605438232421875" lon="-71.12052879296243190765380859375">
        <ele>925</ele>
        <time>2026-08-22T01:27:58.000Z</time>
        <extensions>
          <ns3:TrackPointExtension>
            <ns3:hr>117</ns3:hr>
            <ns3:cad>0</ns3:cad>
          </ns3:TrackPointExtension>
        </extensions>
      </trkpt>
      <trkpt lat="45.26628091000020503997802734375" lon="-71.12053398974239826202392578125">
        <ele>924.79998779296875</ele>
        <time>2026-08-22T01:27:59.000Z</time>
        <extensions>
          <ns3:TrackPointExtension>
            <ns3:hr>117</ns3:hr>
            <ns3:cad>68</ns3:cad>
          </ns3:TrackPointExtension>
        </extensions>
      </trkpt>
      <trkpt lat="45.2662856876850128173828125" lon="-71.1205337382853031158447265625">
        <ele>924.79998779296875</ele>
        <time>2026-08-22T01:28:00.000Z</time>
        <extensions>
          <ns3:TrackPointExtension>
            <ns3:hr>117</ns3:hr>
            <ns3:cad>68</ns3:cad>
          </ns3:TrackPointExtension>
        </extensions>
      </trkpt>
      <trkpt lat="45.26628929190337657928466796875" lon="-71.12054161727428436279296875">
        <ele>924.79998779296875</ele>
        <time>2026-08-22T01:28:01.000Z</time>
        <extensions>
          <ns3:TrackPointExtension>
            <ns3:hr>118</ns3:hr>
            <ns3:cad>68</ns3:cad>
          </ns3:TrackPointExtension>
        </extensions>
      </trkpt>
      <trkpt lat="45.26628971099853515625" lon="-71.12054857425391674041748046875">
        <ele>924.5999755859375</ele>
        <time>2026-08-22T01:28:02.000Z</time>
        <extensions>
          <ns3:TrackPointExtension>
            <ns3:hr>118</ns3:hr>
            <ns3:cad>68</ns3:cad>
          </ns3:TrackPointExtension>
        </extensions>
      </trkpt>
      <trkpt lat="45.26628501713275909423828125" lon="-71.1205545254051685333251953125">
        <ele>924.4000244140625</ele>
        <time>2026-08-22T01:28:03.000Z</time>
        <extensions>
          <ns3:TrackPointExtension>
            <ns3:hr>118</ns3:hr>
            <ns3:cad>0</ns3:cad>
          </ns3:TrackPointExtension>
        </extensions>
      </trkpt>
      <trkpt lat="45.26628359220921993255615234375" lon="-71.1205508373677730560302734375">
        <ele>924</ele>
        <time>2026-08-22T01:28:04.000Z</time>
        <extensions>
          <ns3:TrackPointExtension>
            <ns3:hr>117</ns3:hr>
            <ns3:cad>0</ns3:cad>
          </ns3:TrackPointExtension>
        </extensions>
      </trkpt>
      <trkpt lat="45.26628174819052219390869140625" lon="-71.12055226229131221771240234375">
        <ele>923.79998779296875</ele>
        <time>2026-08-22T01:28:05.000Z</time>
        <extensions>
          <ns3:TrackPointExtension>
            <ns3:hr>117</ns3:hr>
            <ns3:cad>0</ns3:cad>
          </ns3:TrackPointExtension>
        </extensions>
      </trkpt>
      <trkpt lat="45.2662830054759979248046875" lon="-71.1205551959574222564697265625">
        <ele>923.79998779296875</ele>
        <time>2026-08-22T01:28:06.000Z</time>
        <extensions>
          <ns3:TrackPointExtension>
            <ns3:hr>117</ns3:hr>
            <ns3:cad>0</ns3:cad>
          </ns3:TrackPointExtension>
        </extensions>
      </trkpt>
      <trkpt lat="45.26628074236214160919189453125" lon="-71.12054924480617046356201171875">
        <ele>923.79998779296875</ele>
        <time>2026-08-22T01:28:07.000Z</time>
        <extensions>
          <ns3:TrackPointExtension>
            <ns3:hr>116</ns3:hr>
            <ns3:cad>0</ns3:cad>
          </ns3:TrackPointExtension>
        </extensions>
      </trkpt>
      <trkpt lat="45.26627990417182445526123046875" lon="-71.12054765224456787109375">
        <ele>923.5999755859375</ele>
        <time>2026-08-22T01:28:08.000Z</time>
        <extensions>
          <ns3:TrackPointExtension>
            <ns3:hr>116</ns3:hr>
            <ns3:cad>0</ns3:cad>
          </ns3:TrackPointExtension>
        </extensions>
      </trkpt>
      <trkpt lat="45.26628233492374420166015625" lon="-71.120547987520694732666015625">
        <ele>923.5999755859375</ele>
        <time>2026-08-22T01:28:09.000Z</time>
        <extensions>
          <ns3:TrackPointExtension>
            <ns3:hr>115</ns3:hr>
            <ns3:cad>0</ns3:cad>
          </ns3:TrackPointExtension>
        </extensions>
      </trkpt>
      <trkpt lat="45.26628141291439533233642578125" lon="-71.1205511726438999176025390625">
        <ele>923.4000244140625</ele>
        <time>2026-08-22T01:28:10.000Z</time>
        <extensions>
          <ns3:TrackPointExtension>
            <ns3:hr>115</ns3:hr>
            <ns3:cad>0</ns3:cad>
          </ns3:TrackPointExtension>
        </extensions>
      </trkpt>
      <trkpt lat="45.26627018116414546966552734375" lon="-71.1205491609871387481689453125">
        <ele>923.20001220703125</ele>
        <time>2026-08-22T01:28:11.000Z</time>
        <extensions>
          <ns3:TrackPointExtension>
            <ns3:hr>115</ns3:hr>
            <ns3:cad>0</ns3:cad>
          </ns3:TrackPointExtension>
        </extensions>
      </trkpt>
      <trkpt lat="45.26626498438417911529541015625" lon="-71.1205501668155193328857421875">
        <ele>923</ele>
        <time>2026-08-22T01:28:12.000Z</time>
        <extensions>
          <ns3:TrackPointExtension>
            <ns3:hr>115</ns3:hr>
            <ns3:cad>0</ns3:cad>
          </ns3:TrackPointExtension>
        </extensions>
      </trkpt>
      <trkpt lat="45.266253165900707244873046875" lon="-71.12055662088096141815185546875">
        <ele>922.79998779296875</ele>
        <time>2026-08-22T01:28:13.000Z</time>
        <extensions>
          <ns3:TrackPointExtension>
            <ns3:hr>115</ns3:hr>
            <ns3:cad>0</ns3:cad>
          </ns3:TrackPointExtension>
        </extensions>
      </trkpt>
      <trkpt lat="45.26624687947332859039306640625" lon="-71.12055829726159572601318359375">
        <ele>922.5999755859375</ele>
        <time>2026-08-22T01:28:14.000Z</time>
        <extensions>
          <ns3:TrackPointExtension>
            <ns3:hr>116</ns3:hr>
            <ns3:cad>0</ns3:cad>
          </ns3:TrackPointExtension>
        </extensions>
      </trkpt>
      <trkpt lat="45.2662426047027111053466796875" lon="-71.12056852318346500396728515625">
        <ele>922.5999755859375</ele>
        <time>2026-08-22T01:28:15.000Z</time>
        <extensions>
          <ns3:TrackPointExtension>
            <ns3:hr>115</ns3:hr>
            <ns3:cad>0</ns3:cad>
          </ns3:TrackPointExtension>
        </extensions>
      </trkpt>
      <trkpt lat="45.266240425407886505126953125" lon="-71.12058076076209545135498046875">
        <ele>922.4000244140625</ele>
        <time>2026-08-22T01:28:16.000Z</time>
        <extensions>
          <ns3:TrackPointExtension>
            <ns3:hr>115</ns3:hr>
            <ns3:cad>0</ns3:cad>
          </ns3:TrackPointExtension>
        </extensions>
      </trkpt>
      <trkpt lat="45.26624285615980625152587890625" lon="-71.120585538446903228759765625">
        <ele>922.4000244140625</ele>
        <time>2026-08-22T01:28:17.000Z</time>
        <extensions>
          <ns3:TrackPointExtension>
            <ns3:hr>114</ns3:hr>
            <ns3:cad>0</ns3:cad>
          </ns3:TrackPointExtension>
        </extensions>
      </trkpt>
      <trkpt lat="45.26624034158885478973388671875" lon="-71.1205971054732799530029296875">
        <ele>922.20001220703125</ele>
        <time>2026-08-22T01:28:18.000Z</time>
        <extensions>
          <ns3:TrackPointExtension>
            <ns3:hr>114</ns3:hr>
            <ns3:cad>0</ns3:cad>
          </ns3:TrackPointExtension>
        </extensions>
      </trkpt>
      <trkpt lat="45.2662405930459499359130859375" lon="-71.120604984462261199951171875">
        <ele>922</ele>
        <time>2026-08-22T01:28:19.000Z</time>
        <extensions>
          <ns3:TrackPointExtension>
            <ns3:hr>114</ns3:hr>
            <ns3:cad>0</ns3:cad>
          </ns3:TrackPointExtension>
        </extensions>
      </trkpt>
      <trkpt lat="45.266240425407886505126953125" lon="-71.1206128634512424468994140625">
        <ele>921.79998779296875</ele>
        <time>2026-08-22T01:28:20.000Z</time>
        <extensions>
          <ns3:TrackPointExtension>
            <ns3:hr>114</ns3:hr>
            <ns3:cad>45</ns3:cad>
          </ns3:TrackPointExtension>
        </extensions>
      </trkpt>
      <trkpt lat="45.26624235324561595916748046875" lon="-71.1206229217350482940673828125">
        <ele>921.5999755859375</ele>
        <time>2026-08-22T01:28:21.000Z</time>
        <extensions>
          <ns3:TrackPointExtension>
            <ns3:hr>114</ns3:hr>
            <ns3:cad>0</ns3:cad>
          </ns3:TrackPointExtension>
        </extensions>
      </trkpt>
      <trkpt lat="45.2662372402846813201904296875" lon="-71.12062937580049037933349609375">
        <ele>921.20001220703125</ele>
        <time>2026-08-22T01:28:22.000Z</time>
        <extensions>
          <ns3:TrackPointExtension>
            <ns3:hr>114</ns3:hr>
            <ns3:cad>0</ns3:cad>
          </ns3:TrackPointExtension>
        </extensions>
      </trkpt>
      <trkpt lat="45.26623581536114215850830078125" lon="-71.12064580433070659637451171875">
        <ele>921</ele>
        <time>2026-08-22T01:28:23.000Z</time>
        <extensions>
          <ns3:TrackPointExtension>
            <ns3:hr>115</ns3:hr>
            <ns3:cad>0</ns3:cad>
          </ns3:TrackPointExtension>
        </extensions>
      </trkpt>
      <trkpt lat="45.26623581536114215850830078125" lon="-71.12065292894840240478515625">
        <ele>920.79998779296875</ele>
        <time>2026-08-22T01:28:24.000Z</time>
        <extensions>
          <ns3:TrackPointExtension>
            <ns3:hr>115</ns3:hr>
            <ns3:cad>0</ns3:cad>
          </ns3:TrackPointExtension>
        </extensions>
      </trkpt>
      <trkpt lat="45.2662352286279201507568359375" lon="-71.12065670080482959747314453125">
        <ele>920.5999755859375</ele>
        <time>2026-08-22T01:28:25.000Z</time>
        <extensions>
          <ns3:TrackPointExtension>
            <ns3:hr>115</ns3:hr>
            <ns3:cad>0</ns3:cad>
          </ns3:TrackPointExtension>
        </extensions>
      </trkpt>
      <trkpt lat="45.26623397134244441986083984375" lon="-71.1206604726612567901611328125">
        <ele>920.4000244140625</ele>
        <time>2026-08-22T01:28:26.000Z</time>
        <extensions>
          <ns3:TrackPointExtension>
            <ns3:hr>116</ns3:hr>
            <ns3:cad>0</ns3:cad>
          </ns3:TrackPointExtension>
        </extensions>
      </trkpt>
      <trkpt lat="45.26623849757015705108642578125" lon="-71.1206745542585849761962890625">
        <ele>920.20001220703125</ele>
        <time>2026-08-22T01:28:27.000Z</time>
        <extensions>
          <ns3:TrackPointExtension>
            <ns3:hr>116</ns3:hr>
            <ns3:cad>0</ns3:cad>
          </ns3:TrackPointExtension>
        </extensions>
      </trkpt>
      <trkpt lat="45.26624218560755252838134765625" lon="-71.12068654038012027740478515625">
        <ele>920.20001220703125</ele>
        <time>2026-08-22T01:28:28.000Z</time>
        <extensions>
          <ns3:TrackPointExtension>
            <ns3:hr>116</ns3:hr>
            <ns3:cad>0</ns3:cad>
          </ns3:TrackPointExtension>
        </extensions>
      </trkpt>
      <trkpt lat="45.2662442810833454132080078125" lon="-71.1206924915313720703125">
        <ele>919.79998779296875</ele>
        <time>2026-08-22T01:28:29.000Z</time>
        <extensions>
          <ns3:TrackPointExtension>
            <ns3:hr>116</ns3:hr>
            <ns3:cad>0</ns3:cad>
          </ns3:TrackPointExtension>
        </extensions>
      </trkpt>
      <trkpt lat="45.26624486781656742095947265625" lon="-71.12070531584322452545166015625">
        <ele>919.5999755859375</ele>
        <time>2026-08-22T01:28:30.000Z</time>
        <extensions>
          <ns3:TrackPointExtension>
            <ns3:hr>116</ns3:hr>
            <ns3:cad>0</ns3:cad>
          </ns3:TrackPointExtension>
        </extensions>
      </trkpt>
      <trkpt lat="45.2662476338446140289306640625" lon="-71.1207194812595844268798828125">
        <ele>919.20001220703125</ele>
        <time>2026-08-22T01:28:31.000Z</time>
        <extensions>
          <ns3:TrackPointExtension>
            <ns3:hr>116</ns3:hr>
            <ns3:cad>0</ns3:cad>
          </ns3:TrackPointExtension>
        </extensions>
      </trkpt>
      <trkpt lat="45.266247130930423736572265625" lon="-71.12072668969631195068359375">
        <ele>918.79998779296875</ele>
        <time>2026-08-22T01:28:32.000Z</time>
        <extensions>
          <ns3:TrackPointExtension>
            <ns3:hr>117</ns3:hr>
            <ns3:cad>0</ns3:cad>
          </ns3:TrackPointExtension>
        </extensions>
      </trkpt>
      <trkpt lat="45.2662456221878528594970703125" lon="-71.1207340657711029052734375">
        <ele>918.4000244140625</ele>
        <time>2026-08-22T01:28:33.000Z</time>
        <extensions>
          <ns3:TrackPointExtension>
            <ns3:hr>117</ns3:hr>
            <ns3:cad>0</ns3:cad>
          </ns3:TrackPointExtension>
        </extensions>
      </trkpt>
      <trkpt lat="45.26624419726431369781494140625" lon="-71.120746135711669921875">
        <ele>918</ele>
        <time>2026-08-22T01:28:34.000Z</time>
        <extensions>
          <ns3:TrackPointExtension>
            <ns3:hr>117</ns3:hr>
            <ns3:cad>0</ns3:cad>
          </ns3:TrackPointExtension>
        </extensions>
      </trkpt>
      <trkpt lat="45.26624201796948909759521484375" lon="-71.12075158394873142242431640625">
        <ele>917.4000244140625</ele>
        <time>2026-08-22T01:28:35.000Z</time>
        <extensions>
          <ns3:TrackPointExtension>
            <ns3:hr>118</ns3:hr>
            <ns3:cad>0</ns3:cad>
          </ns3:TrackPointExtension>
        </extensions>
      </trkpt>
      <trkpt lat="45.26624034158885478973388671875" lon="-71.12076222896575927734375">
        <ele>917</ele>
        <time>2026-08-22T01:28:36.000Z</time>
        <extensions>
          <ns3:TrackPointExtension>
            <ns3:hr>118</ns3:hr>
            <ns3:cad>0</ns3:cad>
          </ns3:TrackPointExtension>
        </extensions>
      </trkpt>
      <trkpt lat="45.26623916812241077423095703125" lon="-71.12076432444155216217041015625">
        <ele>916.4000244140625</ele>
        <time>2026-08-22T01:28:37.000Z</time>
        <extensions>
          <ns3:TrackPointExtension>
            <ns3:hr>118</ns3:hr>
            <ns3:cad>79</ns3:cad>
          </ns3:TrackPointExtension>
        </extensions>
      </trkpt>
      <trkpt lat="45.266233384609222412109375" lon="-71.12077002413570880889892578125">
        <ele>916.20001220703125</ele>
        <time>2026-08-22T01:28:38.000Z</time>
        <extensions>
          <ns3:TrackPointExtension>
            <ns3:hr>118</ns3:hr>
            <ns3:cad>79</ns3:cad>
          </ns3:TrackPointExtension>
        </extensions>
      </trkpt>
      <trkpt lat="45.266234390437602996826171875" lon="-71.120779998600482940673828125">
        <ele>915.79998779296875</ele>
        <time>2026-08-22T01:28:39.000Z</time>
        <extensions>
          <ns3:TrackPointExtension>
            <ns3:hr>118</ns3:hr>
            <ns3:cad>79</ns3:cad>
          </ns3:TrackPointExtension>
        </extensions>
      </trkpt>
      <trkpt lat="45.26623631827533245086669921875" lon="-71.120790056884288787841796875">
        <ele>915.5999755859375</ele>
        <time>2026-08-22T01:28:40.000Z</time>
        <extensions>
          <ns3:TrackPointExtension>
            <ns3:hr>119</ns3:hr>
            <ns3:cad>79</ns3:cad>
          </ns3:TrackPointExtension>
        </extensions>
      </trkpt>
      <trkpt lat="45.2662405930459499359130859375" lon="-71.12079449929296970367431640625">
        <ele>915.4000244140625</ele>
        <time>2026-08-22T01:28:41.000Z</time>
        <extensions>
          <ns3:TrackPointExtension>
            <ns3:hr>119</ns3:hr>
            <ns3:cad>79</ns3:cad>
          </ns3:TrackPointExtension>
        </extensions>
      </trkpt>
      <trkpt lat="45.26624503545463085174560546875" lon="-71.12080573104321956634521484375">
        <ele>915</ele>
        <time>2026-08-22T01:28:42.000Z</time>
        <extensions>
          <ns3:TrackPointExtension>
            <ns3:hr>120</ns3:hr>
            <ns3:cad>79</ns3:cad>
          </ns3:TrackPointExtension>
        </extensions>
      </trkpt>
      <trkpt lat="45.26624084450304508209228515625" lon="-71.1208100058138370513916015625">
        <ele>914.79998779296875</ele>
        <time>2026-08-22T01:28:43.000Z</time>
        <extensions>
          <ns3:TrackPointExtension>
            <ns3:hr>120</ns3:hr>
            <ns3:cad>79</ns3:cad>
          </ns3:TrackPointExtension>
        </extensions>
      </trkpt>
      <trkpt lat="45.26624134741723537445068359375" lon="-71.120818890631198883056640625">
        <ele>914.4000244140625</ele>
        <time>2026-08-22T01:28:44.000Z</time>
        <extensions>
          <ns3:TrackPointExtension>
            <ns3:hr>120</ns3:hr>
            <ns3:cad>0</ns3:cad>
          </ns3:TrackPointExtension>
        </extensions>
      </trkpt>
      <trkpt lat="45.26624478399753570556640625" lon="-71.120829284191131591796875">
        <ele>914</ele>
        <time>2026-08-22T01:28:45.000Z</time>
        <extensions>
          <ns3:TrackPointExtension>
            <ns3:hr>121</ns3:hr>
            <ns3:cad>0</ns3:cad>
          </ns3:TrackPointExtension>
        </extensions>
      </trkpt>
      <trkpt lat="45.26624687947332859039306640625" lon="-71.1208426952362060546875">
        <ele>913.5999755859375</ele>
        <time>2026-08-22T01:28:46.000Z</time>
        <extensions>
          <ns3:TrackPointExtension>
            <ns3:hr>121</ns3:hr>
            <ns3:cad>0</ns3:cad>
          </ns3:TrackPointExtension>
        </extensions>
      </trkpt>
      <trkpt lat="45.266246795654296875" lon="-71.12085677683353424072265625">
        <ele>913.20001220703125</ele>
        <time>2026-08-22T01:28:47.000Z</time>
        <extensions>
          <ns3:TrackPointExtension>
            <ns3:hr>121</ns3:hr>
            <ns3:cad>0</ns3:cad>
          </ns3:TrackPointExtension>
        </extensions>
      </trkpt>
      <trkpt lat="45.266244448721408843994140625" lon="-71.12086993642151355743408203125">
        <ele>912.79998779296875</ele>
        <time>2026-08-22T01:28:48.000Z</time>
        <extensions>
          <ns3:TrackPointExtension>
            <ns3:hr>120</ns3:hr>
            <ns3:cad>0</ns3:cad>
          </ns3:TrackPointExtension>
        </extensions>
      </trkpt>
      <trkpt lat="45.2662379108369350433349609375" lon="-71.12087060697376728057861328125">
        <ele>912.20001220703125</ele>
        <time>2026-08-22T01:28:49.000Z</time>
        <extensions>
          <ns3:TrackPointExtension>
            <ns3:hr>120</ns3:hr>
            <ns3:cad>0</ns3:cad>
          </ns3:TrackPointExtension>
        </extensions>
      </trkpt>
      <trkpt lat="45.26623045094311237335205078125" lon="-71.120871193706989288330078125">
        <ele>911.79998779296875</ele>
        <time>2026-08-22T01:28:50.000Z</time>
        <extensions>
          <ns3:TrackPointExtension>
            <ns3:hr>120</ns3:hr>
            <ns3:cad>0</ns3:cad>
          </ns3:TrackPointExtension>
        </extensions>
      </trkpt>
      <trkpt lat="45.26622625999152660369873046875" lon="-71.12088317982852458953857421875">
        <ele>911.20001220703125</ele>
        <time>2026-08-22T01:28:51.000Z</time>
        <extensions>
          <ns3:TrackPointExtension>
            <ns3:hr>120</ns3:hr>
            <ns3:cad>0</ns3:cad>
          </ns3:TrackPointExtension>
        </extensions>
      </trkpt>
      <trkpt lat="45.266216285526752471923828125" lon="-71.12089323811233043670654296875">
        <ele>911</ele>
        <time>2026-08-22T01:28:52.000Z</time>
        <extensions>
          <ns3:TrackPointExtension>
            <ns3:hr>121</ns3:hr>
            <ns3:cad>67</ns3:cad>
          </ns3:TrackPointExtension>
        </extensions>
      </trkpt>
      <trkpt lat="45.26620714925229549407958984375" lon="-71.12090614624321460723876953125">
        <ele>910.5999755859375</ele>
        <time>2026-08-22T01:28:53.000Z</time>
        <extensions>
          <ns3:TrackPointExtension>
            <ns3:hr>121</ns3:hr>
            <ns3:cad>67</ns3:cad>
          </ns3:TrackPointExtension>
        </extensions>
      </trkpt>
      <trkpt lat="45.26619960553944110870361328125" lon="-71.12092223949730396270751953125">
        <ele>910</ele>
        <time>2026-08-22T01:28:54.000Z</time>
        <extensions>
          <ns3:TrackPointExtension>
            <ns3:hr>121</ns3:hr>
            <ns3:cad>67</ns3:cad>
          </ns3:TrackPointExtension>
        </extensions>
      </trkpt>
      <trkpt lat="45.26619248092174530029296875" lon="-71.12093615345656871795654296875">
        <ele>909.5999755859375</ele>
        <time>2026-08-22T01:28:55.000Z</time>
        <extensions>
          <ns3:TrackPointExtension>
            <ns3:hr>121</ns3:hr>
            <ns3:cad>67</ns3:cad>
          </ns3:TrackPointExtension>
        </extensions>
      </trkpt>
      <trkpt lat="45.266191475093364715576171875" lon="-71.12095442600548267364501953125">
        <ele>909</ele>
        <time>2026-08-22T01:28:56.000Z</time>
        <extensions>
          <ns3:TrackPointExtension>
            <ns3:hr>121</ns3:hr>
            <ns3:cad>0</ns3:cad>
          </ns3:TrackPointExtension>
        </extensions>
      </trkpt>
      <trkpt lat="45.26619239710271358489990234375" lon="-71.12096867524087429046630859375">
        <ele>908.5999755859375</ele>
        <time>2026-08-22T01:28:57.000Z</time>
        <extensions>
          <ns3:TrackPointExtension>
            <ns3:hr>121</ns3:hr>
            <ns3:cad>0</ns3:cad>
          </ns3:TrackPointExtension>
        </extensions>
      </trkpt>
      <trkpt lat="45.2661939896643161773681640625" lon="-71.12097823061048984527587890625">
        <ele>908.20001220703125</ele>
        <time>2026-08-22T01:28:58.000Z</time>
        <extensions>
          <ns3:TrackPointExtension>
            <ns3:hr>121</ns3:hr>
            <ns3:cad>0</ns3:cad>
          </ns3:TrackPointExtension>
        </extensions>
      </trkpt>
      <trkpt lat="45.26619457639753818511962890625" lon="-71.1209944076836109161376953125">
        <ele>907.5999755859375</ele>
        <time>2026-08-22T01:28:59.000Z</time>
        <extensions>
          <ns3:TrackPointExtension>
            <ns3:hr>120</ns3:hr>
            <ns3:cad>0</ns3:cad>
          </ns3:TrackPointExtension>
        </extensions>
      </trkpt>
      <trkpt lat="45.26619382202625274658203125" lon="-71.12101293168962001800537109375">
        <ele>907.4000244140625</ele>
        <time>2026-08-22T01:29:00.000Z</time>
        <extensions>
          <ns3:TrackPointExtension>
            <ns3:hr>120</ns3:hr>
            <ns3:cad>0</ns3:cad>
          </ns3:TrackPointExtension>
        </extensions>
      </trkpt>
      <trkpt lat="45.26619541458785533905029296875" lon="-71.1210282705724239349365234375">
        <ele>907</ele>
        <time>2026-08-22T01:29:01.000Z</time>
        <extensions>
          <ns3:TrackPointExtension>
            <ns3:hr>120</ns3:hr>
            <ns3:cad>0</ns3:cad>
          </ns3:TrackPointExtension>
        </extensions>
      </trkpt>
      <trkpt lat="45.26620161719620227813720703125" lon="-71.1210473813116550445556640625">
        <ele>906.79998779296875</ele>
        <time>2026-08-22T01:29:02.000Z</time>
        <extensions>
          <ns3:TrackPointExtension>
            <ns3:hr>120</ns3:hr>
            <ns3:cad>0</ns3:cad>
          </ns3:TrackPointExtension>
        </extensions>
      </trkpt>
      <trkpt lat="45.26621301658451557159423828125" lon="-71.1210586130619049072265625">
        <ele>906.5999755859375</ele>
        <time>2026-08-22T01:29:03.000Z</time>
        <extensions>
          <ns3:TrackPointExtension>
            <ns3:hr>120</ns3:hr>
            <ns3:cad>0</ns3:cad>
          </ns3:TrackPointExtension>
        </extensions>
      </trkpt>
      <trkpt lat="45.26622072793543338775634765625" lon="-71.12106255255639553070068359375">
        <ele>906.4000244140625</ele>
        <time>2026-08-22T01:29:04.000Z</time>
        <extensions>
          <ns3:TrackPointExtension>
            <ns3:hr>120</ns3:hr>
            <ns3:cad>0</ns3:cad>
          </ns3:TrackPointExtension>
        </extensions>
      </trkpt>
      <trkpt lat="45.2662275172770023345947265625" lon="-71.1210685037076473236083984375">
        <ele>906.20001220703125</ele>
        <time>2026-08-22T01:29:05.000Z</time>
        <extensions>
          <ns3:TrackPointExtension>
            <ns3:hr>120</ns3:hr>
            <ns3:cad>0</ns3:cad>
          </ns3:TrackPointExtension>
        </extensions>
      </trkpt>
      <trkpt lat="45.26624210178852081298828125" lon="-71.12107797525823116302490234375">
        <ele>906</ele>
        <time>2026-08-22T01:29:06.000Z</time>
        <extensions>
          <ns3:TrackPointExtension>
            <ns3:hr>120</ns3:hr>
            <ns3:cad>0</ns3:cad>
          </ns3:TrackPointExtension>
        </extensions>
      </trkpt>
      <trkpt lat="45.26625509373843669891357421875" lon="-71.12108468078076839447021484375">
        <ele>905.79998779296875</ele>
        <time>2026-08-22T01:29:07.000Z</time>
        <extensions>
          <ns3:TrackPointExtension>
            <ns3:hr>120</ns3:hr>
            <ns3:cad>0</ns3:cad>
          </ns3:TrackPointExtension>
        </extensions>
      </trkpt>
      <trkpt lat="45.26626599021255970001220703125" lon="-71.12109440378844738006591796875">
        <ele>905.5999755859375</ele>
        <time>2026-08-22T01:29:08.000Z</time>
        <extensions>
          <ns3:TrackPointExtension>
            <ns3:hr>120</ns3:hr>
            <ns3:cad>0</ns3:cad>
          </ns3:TrackPointExtension>
        </extensions>
      </trkpt>
      <trkpt lat="45.2662707678973674774169921875" lon="-71.1211030371487140655517578125">
        <ele>905.4000244140625</ele>
        <time>2026-08-22T01:29:09.000Z</time>
        <extensions>
          <ns3:TrackPointExtension>
            <ns3:hr>119</ns3:hr>
            <ns3:cad>0</ns3:cad>
          </ns3:TrackPointExtension>
        </extensions>
      </trkpt>
      <trkpt lat="45.26627554558217525482177734375" lon="-71.1211120896041393280029296875">
        <ele>905.20001220703125</ele>
        <time>2026-08-22T01:29:10.000Z</time>
        <extensions>
          <ns3:TrackPointExtension>
            <ns3:hr>119</ns3:hr>
            <ns3:cad>0</ns3:cad>
          </ns3:TrackPointExtension>
        </extensions>
      </trkpt>
      <trkpt lat="45.26627906598150730133056640625" lon="-71.12112390808761119842529296875">
        <ele>904.79998779296875</ele>
        <time>2026-08-22T01:29:11.000Z</time>
        <extensions>
          <ns3:TrackPointExtension>
            <ns3:hr>119</ns3:hr>
            <ns3:cad>0</ns3:cad>
          </ns3:TrackPointExtension>
        </extensions>
      </trkpt>
      <trkpt lat="45.2662838436663150787353515625" lon="-71.1211362294852733612060546875">
        <ele>904.5999755859375</ele>
        <time>2026-08-22T01:29:12.000Z</time>
        <extensions>
          <ns3:TrackPointExtension>
            <ns3:hr>118</ns3:hr>
            <ns3:cad>0</ns3:cad>
          </ns3:TrackPointExtension>
        </extensions>
      </trkpt>
      <trkpt lat="45.26628811843693256378173828125" lon="-71.12114704214036464691162109375">
        <ele>904.20001220703125</ele>
        <time>2026-08-22T01:29:13.000Z</time>
        <extensions>
          <ns3:TrackPointExtension>
            <ns3:hr>116</ns3:hr>
            <ns3:cad>0</ns3:cad>
          </ns3:TrackPointExtension>
        </extensions>
      </trkpt>
      <trkpt lat="45.2662942372262477874755859375" lon="-71.1211590282618999481201171875">
        <ele>903.79998779296875</ele>
        <time>2026-08-22T01:29:14.000Z</time>
        <extensions>
          <ns3:TrackPointExtension>
            <ns3:hr>116</ns3:hr>
            <ns3:cad>0</ns3:cad>
          </ns3:TrackPointExtension>
        </extensions>
      </trkpt>
      <trkpt lat="45.26629683561623096466064453125" lon="-71.1211690865457057952880859375">
        <ele>903.20001220703125</ele>
        <time>2026-08-22T01:29:15.000Z</time>
        <extensions>
          <ns3:TrackPointExtension>
            <ns3:hr>116</ns3:hr>
            <ns3:cad>0</ns3:cad>
          </ns3:TrackPointExtension>
        </extensions>
      </trkpt>
      <trkpt lat="45.26630035601556301116943359375" lon="-71.12118358723819255828857421875">
        <ele>902.79998779296875</ele>
        <time>2026-08-22T01:29:16.000Z</time>
        <extensions>
          <ns3:TrackPointExtension>
            <ns3:hr>115</ns3:hr>
            <ns3:cad>0</ns3:cad>
          </ns3:TrackPointExtension>
        </extensions>
      </trkpt>
      <trkpt lat="45.26630303822457790374755859375" lon="-71.12119683064520359039306640625">
        <ele>902.4000244140625</ele>
        <time>2026-08-22T01:29:17.000Z</time>
        <extensions>
          <ns3:TrackPointExtension>
            <ns3:hr>115</ns3:hr>
            <ns3:cad>0</ns3:cad>
          </ns3:TrackPointExtension>
        </extensions>
      </trkpt>
      <trkpt lat="45.26630421169102191925048828125" lon="-71.12120185978710651397705078125">
        <ele>901.79998779296875</ele>
        <time>2026-08-22T01:29:18.000Z</time>
        <extensions>
          <ns3:TrackPointExtension>
            <ns3:hr>115</ns3:hr>
            <ns3:cad>0</ns3:cad>
          </ns3:TrackPointExtension>
        </extensions>
      </trkpt>
      <trkpt lat="45.26630320586264133453369140625" lon="-71.1212093196809291839599609375">
        <ele>901.4000244140625</ele>
        <time>2026-08-22T01:29:19.000Z</time>
        <extensions>
          <ns3:TrackPointExtension>
            <ns3:hr>116</ns3:hr>
            <ns3:cad>0</ns3:cad>
          </ns3:TrackPointExtension>
        </extensions>
      </trkpt>
      <trkpt lat="45.26630245149135589599609375" lon="-71.12120546400547027587890625">
        <ele>901</ele>
        <time>2026-08-22T01:29:20.000Z</time>
        <extensions>
          <ns3:TrackPointExtension>
            <ns3:hr>116</ns3:hr>
            <ns3:cad>0</ns3:cad>
          </ns3:TrackPointExtension>
        </extensions>
      </trkpt>
      <trkpt lat="45.2662996016442775726318359375" lon="-71.121209822595119476318359375">
        <ele>900.79998779296875</ele>
        <time>2026-08-22T01:29:21.000Z</time>
        <extensions>
          <ns3:TrackPointExtension>
            <ns3:hr>116</ns3:hr>
            <ns3:cad>0</ns3:cad>
          </ns3:TrackPointExtension>
        </extensions>
      </trkpt>
      <trkpt lat="45.26629650034010410308837890625" lon="-71.1212063021957874298095703125">
        <ele>900.5999755859375</ele>
        <time>2026-08-22T01:29:22.000Z</time>
        <extensions>
          <ns3:TrackPointExtension>
            <ns3:hr>116</ns3:hr>
            <ns3:cad>0</ns3:cad>
          </ns3:TrackPointExtension>
        </extensions>
      </trkpt>
      <trkpt lat="45.26628459803760051727294921875" lon="-71.12119138240814208984375">
        <ele>900.5999755859375</ele>
        <time>2026-08-22T01:29:23.000Z</time>
        <extensions>
          <ns3:TrackPointExtension>
            <ns3:hr>116</ns3:hr>
            <ns3:cad>0</ns3:cad>
          </ns3:TrackPointExtension>
        </extensions>
      </trkpt>
      <trkpt lat="45.2662814967334270477294921875" lon="-71.12118995748460292816162109375">
        <ele>900.5999755859375</ele>
        <time>2026-08-22T01:29:24.000Z</time>
        <extensions>
          <ns3:TrackPointExtension>
            <ns3:hr>116</ns3:hr>
            <ns3:cad>0</ns3:cad>
          </ns3:TrackPointExtension>
        </extensions>
      </trkpt>
      <trkpt lat="45.26627453975379467010498046875" lon="-71.12119096331298351287841796875">
        <ele>900.79998779296875</ele>
        <time>2026-08-22T01:29:25.000Z</time>
        <extensions>
          <ns3:TrackPointExtension>
            <ns3:hr>115</ns3:hr>
            <ns3:cad>0</ns3:cad>
          </ns3:TrackPointExtension>
        </extensions>
      </trkpt>
      <trkpt lat="45.266271270811557769775390625" lon="-71.1211928911507129669189453125">
        <ele>900.79998779296875</ele>
        <time>2026-08-22T01:29:26.000Z</time>
        <extensions>
          <ns3:TrackPointExtension>
            <ns3:hr>115</ns3:hr>
            <ns3:cad>0</ns3:cad>
          </ns3:TrackPointExtension>
        </extensions>
      </trkpt>
      <trkpt lat="45.26626464910805225372314453125" lon="-71.1211982555687427520751953125">
        <ele>900.79998779296875</ele>
        <time>2026-08-22T01:29:27.000Z</time>
        <extensions>
          <ns3:TrackPointExtension>
            <ns3:hr>115</ns3:hr>
            <ns3:cad>0</ns3:cad>
          </ns3:TrackPointExtension>
        </extensions>
      </trkpt>
      <trkpt lat="45.266256518661975860595703125" lon="-71.12120437435805797576904296875">
        <ele>900.79998779296875</ele>
        <time>2026-08-22T01:29:28.000Z</time>
        <extensions>
          <ns3:TrackPointExtension>
            <ns3:hr>116</ns3:hr>
            <ns3:cad>0</ns3:cad>
          </ns3:TrackPointExtension>
        </extensions>
      </trkpt>
      <trkpt lat="45.2662483043968677520751953125" lon="-71.1212086491286754608154296875">
        <ele>900.5999755859375</ele>
        <time>2026-08-22T01:29:29.000Z</time>
        <extensions>
          <ns3:TrackPointExtension>
            <ns3:hr>116</ns3:hr>
            <ns3:cad>71</ns3:cad>
          </ns3:TrackPointExtension>
        </extensions>
      </trkpt>
      <trkpt lat="45.2662412635982036590576171875" lon="-71.1212116666138172149658203125">
        <ele>900.4000244140625</ele>
        <time>2026-08-22T01:29:30.000Z</time>
        <extensions>
          <ns3:TrackPointExtension>
            <ns3:hr>116</ns3:hr>
            <ns3:cad>71</ns3:cad>
          </ns3:TrackPointExtension>
        </extensions>
      </trkpt>
      <trkpt lat="45.266232378780841827392578125" lon="-71.12120722420513629913330078125">
        <ele>900.20001220703125</ele>
        <time>2026-08-22T01:29:31.000Z</time>
        <extensions>
          <ns3:TrackPointExtension>
            <ns3:hr>116</ns3:hr>
            <ns3:cad>71</ns3:cad>
          </ns3:TrackPointExtension>
        </extensions>
      </trkpt>
      <trkpt lat="45.26622558943927288055419921875" lon="-71.12120185978710651397705078125">
        <ele>900</ele>
        <time>2026-08-22T01:29:32.000Z</time>
        <extensions>
          <ns3:TrackPointExtension>
            <ns3:hr>116</ns3:hr>
            <ns3:cad>71</ns3:cad>
          </ns3:TrackPointExtension>
        </extensions>
      </trkpt>
      <trkpt lat="45.26622525416314601898193359375" lon="-71.121199764311313629150390625">
        <ele>900.20001220703125</ele>
        <time>2026-08-22T01:29:33.000Z</time>
        <extensions>
          <ns3:TrackPointExtension>
            <ns3:hr>116</ns3:hr>
            <ns3:cad>71</ns3:cad>
          </ns3:TrackPointExtension>
        </extensions>
      </trkpt>
      <trkpt lat="45.26621988974511623382568359375" lon="-71.12118274904787540435791015625">
        <ele>900.4000244140625</ele>
        <time>2026-08-22T01:29:34.000Z</time>
        <extensions>
          <ns3:TrackPointExtension>
            <ns3:hr>117</ns3:hr>
            <ns3:cad>50</ns3:cad>
          </ns3:TrackPointExtension>
        </extensions>
      </trkpt>
      <trkpt lat="45.2662127651274204254150390625" lon="-71.12117595970630645751953125">
        <ele>900.5999755859375</ele>
        <time>2026-08-22T01:29:35.000Z</time>
        <extensions>
          <ns3:TrackPointExtension>
            <ns3:hr>117</ns3:hr>
            <ns3:cad>50</ns3:cad>
          </ns3:TrackPointExtension>
        </extensions>
      </trkpt>
      <trkpt lat="45.26620362885296344757080078125" lon="-71.1211694218218326568603515625">
        <ele>900.79998779296875</ele>
        <time>2026-08-22T01:29:36.000Z</time>
        <extensions>
          <ns3:TrackPointExtension>
            <ns3:hr>117</ns3:hr>
            <ns3:cad>0</ns3:cad>
          </ns3:TrackPointExtension>
        </extensions>
      </trkpt>
      <trkpt lat="45.26619658805429935455322265625" lon="-71.121161542832851409912109375">
        <ele>901</ele>
        <time>2026-08-22T01:29:37.000Z</time>
        <extensions>
          <ns3:TrackPointExtension>
            <ns3:hr>118</ns3:hr>
            <ns3:cad>0</ns3:cad>
          </ns3:TrackPointExtension>
        </extensions>
      </trkpt>
      <trkpt lat="45.2661879546940326690673828125" lon="-71.1211543343961238861083984375">
        <ele>901.20001220703125</ele>
        <time>2026-08-22T01:29:38.000Z</time>
        <extensions>
          <ns3:TrackPointExtension>
            <ns3:hr>118</ns3:hr>
            <ns3:cad>0</ns3:cad>
          </ns3:TrackPointExtension>
        </extensions>
      </trkpt>
      <trkpt lat="45.266179740428924560546875" lon="-71.12114804796874523162841796875">
        <ele>901.20001220703125</ele>
        <time>2026-08-22T01:29:39.000Z</time>
        <extensions>
          <ns3:TrackPointExtension>
            <ns3:hr>119</ns3:hr>
            <ns3:cad>43</ns3:cad>
          </ns3:TrackPointExtension>
        </extensions>
      </trkpt>
      <trkpt lat="45.26617504656314849853515625" lon="-71.12114871852099895477294921875">
        <ele>901.20001220703125</ele>
        <time>2026-08-22T01:29:40.000Z</time>
        <extensions>
          <ns3:TrackPointExtension>
            <ns3:hr>119</ns3:hr>
            <ns3:cad>43</ns3:cad>
          </ns3:TrackPointExtension>
        </extensions>
      </trkpt>
      <trkpt lat="45.26616792194545269012451171875" lon="-71.1211607046425342559814453125">
        <ele>901.20001220703125</ele>
        <time>2026-08-22T01:29:41.000Z</time>
        <extensions>
          <ns3:TrackPointExtension>
            <ns3:hr>119</ns3:hr>
            <ns3:cad>43</ns3:cad>
          </ns3:TrackPointExtension>
        </extensions>
      </trkpt>
      <trkpt lat="45.2661534212529659271240234375" lon="-71.12116715870797634124755859375">
        <ele>901.20001220703125</ele>
        <time>2026-08-22T01:29:42.000Z</time>
        <extensions>
          <ns3:TrackPointExtension>
            <ns3:hr>119</ns3:hr>
            <ns3:cad>43</ns3:cad>
          </ns3:TrackPointExtension>
        </extensions>
      </trkpt>
      <trkpt lat="45.26614830829203128814697265625" lon="-71.12116699106991291046142578125">
        <ele>901</ele>
        <time>2026-08-22T01:29:43.000Z</time>
        <extensions>
          <ns3:TrackPointExtension>
            <ns3:hr>118</ns3:hr>
            <ns3:cad>43</ns3:cad>
          </ns3:TrackPointExtension>
        </extensions>
      </trkpt>
      <trkpt lat="45.26614688336849212646484375" lon="-71.12116464413702487945556640625">
        <ele>900.5999755859375</ele>
        <time>2026-08-22T01:29:44.000Z</time>
        <extensions>
          <ns3:TrackPointExtension>
            <ns3:hr>118</ns3:hr>
            <ns3:cad>46</ns3:cad>
          </ns3:TrackPointExtension>
        </extensions>
      </trkpt>
      <trkpt lat="45.266139172017574310302734375" lon="-71.12116984091699123382568359375">
        <ele>900.4000244140625</ele>
        <time>2026-08-22T01:29:45.000Z</time>
        <extensions>
          <ns3:TrackPointExtension>
            <ns3:hr>118</ns3:hr>
            <ns3:cad>46</ns3:cad>
          </ns3:TrackPointExtension>
        </extensions>
      </trkpt>
      <trkpt lat="45.26612676680088043212890625" lon="-71.12117252312600612640380859375">
        <ele>900.20001220703125</ele>
        <time>2026-08-22T01:29:46.000Z</time>
        <extensions>
          <ns3:TrackPointExtension>
            <ns3:hr>117</ns3:hr>
            <ns3:cad>0</ns3:cad>
          </ns3:TrackPointExtension>
        </extensions>
      </trkpt>
      <trkpt lat="45.26611511595547199249267578125" lon="-71.12117704935371875762939453125">
        <ele>900</ele>
        <time>2026-08-22T01:29:47.000Z</time>
        <extensions>
          <ns3:TrackPointExtension>
            <ns3:hr>117</ns3:hr>
            <ns3:cad>0</ns3:cad>
          </ns3:TrackPointExtension>
        </extensions>
      </trkpt>
      <trkpt lat="45.26610539294779300689697265625" lon="-71.12118937075138092041015625">
        <ele>899.79998779296875</ele>
        <time>2026-08-22T01:29:48.000Z</time>
        <extensions>
          <ns3:TrackPointExtension>
            <ns3:hr>117</ns3:hr>
            <ns3:cad>0</ns3:cad>
          </ns3:TrackPointExtension>
        </extensions>
      </trkpt>
      <trkpt lat="45.26609466411173343658447265625" lon="-71.12120286561548709869384765625">
        <ele>899.5999755859375</ele>
        <time>2026-08-22T01:29:49.000Z</time>
        <extensions>
          <ns3:TrackPointExtension>
            <ns3:hr>117</ns3:hr>
            <ns3:cad>0</ns3:cad>
          </ns3:TrackPointExtension>
        </extensions>
      </trkpt>
      <trkpt lat="45.26608997024595737457275390625" lon="-71.121211834251880645751953125">
        <ele>899.4000244140625</ele>
        <time>2026-08-22T01:29:50.000Z</time>
        <extensions>
          <ns3:TrackPointExtension>
            <ns3:hr>117</ns3:hr>
            <ns3:cad>0</ns3:cad>
          </ns3:TrackPointExtension>
        </extensions>
      </trkpt>
      <trkpt lat="45.26608762331306934356689453125" lon="-71.1212213896214962005615234375">
        <ele>899.20001220703125</ele>
        <time>2026-08-22T01:29:51.000Z</time>
        <extensions>
          <ns3:TrackPointExtension>
            <ns3:hr>118</ns3:hr>
            <ns3:cad>0</ns3:cad>
          </ns3:TrackPointExtension>
        </extensions>
      </trkpt>
      <trkpt lat="45.2660791575908660888671875" lon="-71.1212331242859363555908203125">
        <ele>898.79998779296875</ele>
        <time>2026-08-22T01:29:52.000Z</time>
        <extensions>
          <ns3:TrackPointExtension>
            <ns3:hr>118</ns3:hr>
            <ns3:cad>0</ns3:cad>
          </ns3:TrackPointExtension>
        </extensions>
      </trkpt>
      <trkpt lat="45.26607471518218517303466796875" lon="-71.12123899161815643310546875">
        <ele>898.4000244140625</ele>
        <time>2026-08-22T01:29:53.000Z</time>
        <extensions>
          <ns3:TrackPointExtension>
            <ns3:hr>118</ns3:hr>
            <ns3:cad>0</ns3:cad>
          </ns3:TrackPointExtension>
        </extensions>
      </trkpt>
      <trkpt lat="45.26607002131640911102294921875" lon="-71.1212495528161525726318359375">
        <ele>898.20001220703125</ele>
        <time>2026-08-22T01:29:54.000Z</time>
        <extensions>
          <ns3:TrackPointExtension>
            <ns3:hr>118</ns3:hr>
            <ns3:cad>0</ns3:cad>
          </ns3:TrackPointExtension>
        </extensions>
      </trkpt>
      <trkpt lat="45.266067422926425933837890625" lon="-71.12126388587057590484619140625">
        <ele>897.79998779296875</ele>
        <time>2026-08-22T01:29:55.000Z</time>
        <extensions>
          <ns3:TrackPointExtension>
            <ns3:hr>118</ns3:hr>
            <ns3:cad>0</ns3:cad>
          </ns3:TrackPointExtension>
        </extensions>
      </trkpt>
      <trkpt lat="45.26606482453644275665283203125" lon="-71.12127327360212802886962890625">
        <ele>897.5999755859375</ele>
        <time>2026-08-22T01:29:56.000Z</time>
        <extensions>
          <ns3:TrackPointExtension>
            <ns3:hr>118</ns3:hr>
            <ns3:cad>0</ns3:cad>
          </ns3:TrackPointExtension>
        </extensions>
      </trkpt>
      <trkpt lat="45.2660603821277618408203125" lon="-71.1212820746004581451416015625">
        <ele>897.20001220703125</ele>
        <time>2026-08-22T01:29:57.000Z</time>
        <extensions>
          <ns3:TrackPointExtension>
            <ns3:hr>117</ns3:hr>
            <ns3:cad>0</ns3:cad>
          </ns3:TrackPointExtension>
        </extensions>
      </trkpt>
      <trkpt lat="45.26605459861457347869873046875" lon="-71.1212934739887714385986328125">
        <ele>897</ele>
        <time>2026-08-22T01:29:58.000Z</time>
        <extensions>
          <ns3:TrackPointExtension>
            <ns3:hr>118</ns3:hr>
            <ns3:cad>0</ns3:cad>
          </ns3:TrackPointExtension>
        </extensions>
      </trkpt>
      <trkpt lat="45.2660481445491313934326171875" lon="-71.12130512483417987823486328125">
        <ele>896.5999755859375</ele>
        <time>2026-08-22T01:29:59.000Z</time>
        <extensions>
          <ns3:TrackPointExtension>
            <ns3:hr>118</ns3:hr>
            <ns3:cad>0</ns3:cad>
          </ns3:TrackPointExtension>
        </extensions>
      </trkpt>
      <trkpt lat="45.2660416066646575927734375" lon="-71.1213216371834278106689453125">
        <ele>896.20001220703125</ele>
        <time>2026-08-22T01:30:00.000Z</time>
        <extensions>
          <ns3:TrackPointExtension>
            <ns3:hr>119</ns3:hr>
            <ns3:cad>0</ns3:cad>
          </ns3:TrackPointExtension>
        </extensions>
      </trkpt>
      <trkpt lat="45.266043953597545623779296875" lon="-71.12133898772299289703369140625">
        <ele>896</ele>
        <time>2026-08-22T01:30:01.000Z</time>
        <extensions>
          <ns3:TrackPointExtension>
            <ns3:hr>119</ns3:hr>
            <ns3:cad>0</ns3:cad>
          </ns3:TrackPointExtension>
        </extensions>
      </trkpt>
      <trkpt lat="45.2660484798252582550048828125" lon="-71.12134954892098903656005859375">
        <ele>895.5999755859375</ele>
        <time>2026-08-22T01:30:02.000Z</time>
        <extensions>
          <ns3:TrackPointExtension>
            <ns3:hr>119</ns3:hr>
            <ns3:cad>0</ns3:cad>
          </ns3:TrackPointExtension>
        </extensions>
      </trkpt>
      <trkpt lat="45.26605434715747833251953125" lon="-71.121356002986431121826171875">
        <ele>895.4000244140625</ele>
        <time>2026-08-22T01:30:03.000Z</time>
        <extensions>
          <ns3:TrackPointExtension>
            <ns3:hr>119</ns3:hr>
            <ns3:cad>0</ns3:cad>
          </ns3:TrackPointExtension>
        </extensions>
      </trkpt>
      <trkpt lat="45.2660541795194149017333984375" lon="-71.12136262468993663787841796875">
        <ele>895.20001220703125</ele>
        <time>2026-08-22T01:30:04.000Z</time>
        <extensions>
          <ns3:TrackPointExtension>
            <ns3:hr>119</ns3:hr>
            <ns3:cad>0</ns3:cad>
          </ns3:TrackPointExtension>
        </extensions>
      </trkpt>
      <trkpt lat="45.2660568617284297943115234375" lon="-71.121368408203125">
        <ele>895</ele>
        <time>2026-08-22T01:30:05.000Z</time>
        <extensions>
          <ns3:TrackPointExtension>
            <ns3:hr>119</ns3:hr>
            <ns3:cad>0</ns3:cad>
          </ns3:TrackPointExtension>
        </extensions>
      </trkpt>
      <trkpt lat="45.26606650091707706451416015625" lon="-71.1213804781436920166015625">
        <ele>894.79998779296875</ele>
        <time>2026-08-22T01:30:06.000Z</time>
        <extensions>
          <ns3:TrackPointExtension>
            <ns3:hr>119</ns3:hr>
            <ns3:cad>0</ns3:cad>
          </ns3:TrackPointExtension>
        </extensions>
      </trkpt>
      <trkpt lat="45.26607052423059940338134765625" lon="-71.121385507285594940185546875">
        <ele>894.5999755859375</ele>
        <time>2026-08-22T01:30:07.000Z</time>
        <extensions>
          <ns3:TrackPointExtension>
            <ns3:hr>119</ns3:hr>
            <ns3:cad>0</ns3:cad>
          </ns3:TrackPointExtension>
        </extensions>
      </trkpt>
      <trkpt lat="45.26607689447700977325439453125" lon="-71.121398247778415679931640625">
        <ele>894.4000244140625</ele>
        <time>2026-08-22T01:30:08.000Z</time>
        <extensions>
          <ns3:TrackPointExtension>
            <ns3:hr>118</ns3:hr>
            <ns3:cad>0</ns3:cad>
          </ns3:TrackPointExtension>
        </extensions>
      </trkpt>
      <trkpt lat="45.26608292944729328155517578125" lon="-71.12141543067991733551025390625">
        <ele>894</ele>
        <time>2026-08-22T01:30:09.000Z</time>
        <extensions>
          <ns3:TrackPointExtension>
            <ns3:hr>118</ns3:hr>
            <ns3:cad>0</ns3:cad>
          </ns3:TrackPointExtension>
        </extensions>
      </trkpt>
      <trkpt lat="45.266092233359813690185546875" lon="-71.12143068574368953704833984375">
        <ele>893.5999755859375</ele>
        <time>2026-08-22T01:30:10.000Z</time>
        <extensions>
          <ns3:TrackPointExtension>
            <ns3:hr>118</ns3:hr>
            <ns3:cad>0</ns3:cad>
          </ns3:TrackPointExtension>
        </extensions>
      </trkpt>
      <trkpt lat="45.266107656061649322509765625" lon="-71.12144292332231998443603515625">
        <ele>893</ele>
        <time>2026-08-22T01:30:11.000Z</time>
        <extensions>
          <ns3:TrackPointExtension>
            <ns3:hr>119</ns3:hr>
            <ns3:cad>0</ns3:cad>
          </ns3:TrackPointExtension>
        </extensions>
      </trkpt>
      <trkpt lat="45.26611595414578914642333984375" lon="-71.121443845331668853759765625">
        <ele>892.5999755859375</ele>
        <time>2026-08-22T01:30:12.000Z</time>
        <extensions>
          <ns3:TrackPointExtension>
            <ns3:hr>118</ns3:hr>
            <ns3:cad>0</ns3:cad>
          </ns3:TrackPointExtension>
        </extensions>
      </trkpt>
      <trkpt lat="45.26612232439219951629638671875" lon="-71.12145365215837955474853515625">
        <ele>892.20001220703125</ele>
        <time>2026-08-22T01:30:13.000Z</time>
        <extensions>
          <ns3:TrackPointExtension>
            <ns3:hr>118</ns3:hr>
            <ns3:cad>0</ns3:cad>
          </ns3:TrackPointExtension>
        </extensions>
      </trkpt>
      <trkpt lat="45.26612701825797557830810546875" lon="-71.12146739847958087921142578125">
        <ele>891.79998779296875</ele>
        <time>2026-08-22T01:30:14.000Z</time>
        <extensions>
          <ns3:TrackPointExtension>
            <ns3:hr>118</ns3:hr>
            <ns3:cad>0</ns3:cad>
          </ns3:TrackPointExtension>
        </extensions>
      </trkpt>
      <trkpt lat="45.26613422669470310211181640625" lon="-71.12148173153400421142578125">
        <ele>891.5999755859375</ele>
        <time>2026-08-22T01:30:15.000Z</time>
        <extensions>
          <ns3:TrackPointExtension>
            <ns3:hr>117</ns3:hr>
            <ns3:cad>79</ns3:cad>
          </ns3:TrackPointExtension>
        </extensions>
      </trkpt>
      <trkpt lat="45.2661379985511302947998046875" lon="-71.12149975262582302093505859375">
        <ele>891.20001220703125</ele>
        <time>2026-08-22T01:30:16.000Z</time>
        <extensions>
          <ns3:TrackPointExtension>
            <ns3:hr>117</ns3:hr>
            <ns3:cad>79</ns3:cad>
          </ns3:TrackPointExtension>
        </extensions>
      </trkpt>
      <trkpt lat="45.2661426924169063568115234375" lon="-71.12151567824184894561767578125">
        <ele>890.79998779296875</ele>
        <time>2026-08-22T01:30:17.000Z</time>
        <extensions>
          <ns3:TrackPointExtension>
            <ns3:hr>117</ns3:hr>
            <ns3:cad>79</ns3:cad>
          </ns3:TrackPointExtension>
        </extensions>
      </trkpt>
      <trkpt lat="45.26614344678819179534912109375" lon="-71.1215311847627162933349609375">
        <ele>890.4000244140625</ele>
        <time>2026-08-22T01:30:18.000Z</time>
        <extensions>
          <ns3:TrackPointExtension>
            <ns3:hr>117</ns3:hr>
            <ns3:cad>79</ns3:cad>
          </ns3:TrackPointExtension>
        </extensions>
      </trkpt>
      <trkpt lat="45.26614151895046234130859375" lon="-71.12153747119009494781494140625">
        <ele>889.79998779296875</ele>
        <time>2026-08-22T01:30:19.000Z</time>
        <extensions>
          <ns3:TrackPointExtension>
            <ns3:hr>117</ns3:hr>
            <ns3:cad>79</ns3:cad>
          </ns3:TrackPointExtension>
        </extensions>
      </trkpt>
      <trkpt lat="45.26614093221724033355712890625" lon="-71.12154786475002765655517578125">
        <ele>889.4000244140625</ele>
        <time>2026-08-22T01:30:20.000Z</time>
        <extensions>
          <ns3:TrackPointExtension>
            <ns3:hr>117</ns3:hr>
            <ns3:cad>79</ns3:cad>
          </ns3:TrackPointExtension>
        </extensions>
      </trkpt>
      <trkpt lat="45.26613439433276653289794921875" lon="-71.1215556599199771881103515625">
        <ele>889</ele>
        <time>2026-08-22T01:30:21.000Z</time>
        <extensions>
          <ns3:TrackPointExtension>
            <ns3:hr>117</ns3:hr>
            <ns3:cad>79</ns3:cad>
          </ns3:TrackPointExtension>
        </extensions>
      </trkpt>
      <trkpt lat="45.266129113733768463134765625" lon="-71.121561191976070404052734375">
        <ele>888.4000244140625</ele>
        <time>2026-08-22T01:30:22.000Z</time>
        <extensions>
          <ns3:TrackPointExtension>
            <ns3:hr>117</ns3:hr>
            <ns3:cad>79</ns3:cad>
          </ns3:TrackPointExtension>
        </extensions>
      </trkpt>
      <trkpt lat="45.266119055449962615966796875" lon="-71.121570579707622528076171875">
        <ele>888</ele>
        <time>2026-08-22T01:30:23.000Z</time>
        <extensions>
          <ns3:TrackPointExtension>
            <ns3:hr>118</ns3:hr>
            <ns3:cad>79</ns3:cad>
          </ns3:TrackPointExtension>
        </extensions>
      </trkpt>
      <trkpt lat="45.266117043793201446533203125" lon="-71.12158189527690410614013671875">
        <ele>887.5999755859375</ele>
        <time>2026-08-22T01:30:24.000Z</time>
        <extensions>
          <ns3:TrackPointExtension>
            <ns3:hr>118</ns3:hr>
            <ns3:cad>83</ns3:cad>
          </ns3:TrackPointExtension>
        </extensions>
      </trkpt>
      <trkpt lat="45.26611804962158203125" lon="-71.1215898580849170684814453125">
        <ele>887.4000244140625</ele>
        <time>2026-08-22T01:30:25.000Z</time>
        <extensions>
          <ns3:TrackPointExtension>
            <ns3:hr>117</ns3:hr>
            <ns3:cad>83</ns3:cad>
          </ns3:TrackPointExtension>
        </extensions>
      </trkpt>
      <trkpt lat="45.2661108411848545074462890625" lon="-71.121599413454532623291015625">
        <ele>887.20001220703125</ele>
        <time>2026-08-22T01:30:26.000Z</time>
        <extensions>
          <ns3:TrackPointExtension>
            <ns3:hr>117</ns3:hr>
            <ns3:cad>0</ns3:cad>
          </ns3:TrackPointExtension>
        </extensions>
      </trkpt>
      <trkpt lat="45.2661054767668247222900390625" lon="-71.12160469405353069305419921875">
        <ele>887</ele>
        <time>2026-08-22T01:30:27.000Z</time>
        <extensions>
          <ns3:TrackPointExtension>
            <ns3:hr>117</ns3:hr>
            <ns3:cad>0</ns3:cad>
          </ns3:TrackPointExtension>
        </extensions>
      </trkpt>
      <trkpt lat="45.266098268330097198486328125" lon="-71.12160486169159412384033203125">
        <ele>886.79998779296875</ele>
        <time>2026-08-22T01:30:28.000Z</time>
        <extensions>
          <ns3:TrackPointExtension>
            <ns3:hr>117</ns3:hr>
            <ns3:cad>0</ns3:cad>
          </ns3:TrackPointExtension>
        </extensions>
      </trkpt>
      <trkpt lat="45.2660890482366085052490234375" lon="-71.12160687334835529327392578125">
        <ele>886.5999755859375</ele>
        <time>2026-08-22T01:30:29.000Z</time>
        <extensions>
          <ns3:TrackPointExtension>
            <ns3:hr>116</ns3:hr>
            <ns3:cad>0</ns3:cad>
          </ns3:TrackPointExtension>
        </extensions>
      </trkpt>
      <trkpt lat="45.26608058251440525054931640625" lon="-71.12160980701446533203125">
        <ele>886.20001220703125</ele>
        <time>2026-08-22T01:30:30.000Z</time>
        <extensions>
          <ns3:TrackPointExtension>
            <ns3:hr>117</ns3:hr>
            <ns3:cad>0</ns3:cad>
          </ns3:TrackPointExtension>
        </extensions>
      </trkpt>
      <trkpt lat="45.26606901548802852630615234375" lon="-71.12161609344184398651123046875">
        <ele>885.79998779296875</ele>
        <time>2026-08-22T01:30:31.000Z</time>
        <extensions>
          <ns3:TrackPointExtension>
            <ns3:hr>117</ns3:hr>
            <ns3:cad>0</ns3:cad>
          </ns3:TrackPointExtension>
        </extensions>
      </trkpt>
      <trkpt lat="45.266061723232269287109375" lon="-71.12161793746054172515869140625">
        <ele>885.5999755859375</ele>
        <time>2026-08-22T01:30:32.000Z</time>
        <extensions>
          <ns3:TrackPointExtension>
            <ns3:hr>116</ns3:hr>
            <ns3:cad>0</ns3:cad>
          </ns3:TrackPointExtension>
        </extensions>
      </trkpt>
      <trkpt lat="45.26604739017784595489501953125" lon="-71.1216200329363346099853515625">
        <ele>885.20001220703125</ele>
        <time>2026-08-22T01:30:33.000Z</time>
        <extensions>
          <ns3:TrackPointExtension>
            <ns3:hr>117</ns3:hr>
            <ns3:cad>0</ns3:cad>
          </ns3:TrackPointExtension>
        </extensions>
      </trkpt>
      <trkpt lat="45.26603716425597667694091796875" lon="-71.1216233856976032257080078125">
        <ele>884.79998779296875</ele>
        <time>2026-08-22T01:30:34.000Z</time>
        <extensions>
          <ns3:TrackPointExtension>
            <ns3:hr>117</ns3:hr>
            <ns3:cad>0</ns3:cad>
          </ns3:TrackPointExtension>
        </extensions>
      </trkpt>
      <trkpt lat="45.26602962054312229156494140625" lon="-71.1216218769550323486328125">
        <ele>884.5999755859375</ele>
        <time>2026-08-22T01:30:35.000Z</time>
        <extensions>
          <ns3:TrackPointExtension>
            <ns3:hr>117</ns3:hr>
            <ns3:cad>0</ns3:cad>
          </ns3:TrackPointExtension>
        </extensions>
      </trkpt>
      <trkpt lat="45.26601905934512615203857421875" lon="-71.1216230504214763641357421875">
        <ele>884.20001220703125</ele>
        <time>2026-08-22T01:30:36.000Z</time>
        <extensions>
          <ns3:TrackPointExtension>
            <ns3:hr>117</ns3:hr>
            <ns3:cad>61</ns3:cad>
          </ns3:TrackPointExtension>
        </extensions>
      </trkpt>
      <trkpt lat="45.26601411402225494384765625" lon="-71.1216274090111255645751953125">
        <ele>884</ele>
        <time>2026-08-22T01:30:37.000Z</time>
        <extensions>
          <ns3:TrackPointExtension>
            <ns3:hr>117</ns3:hr>
            <ns3:cad>61</ns3:cad>
          </ns3:TrackPointExtension>
        </extensions>
      </trkpt>
      <trkpt lat="45.26600648649036884307861328125" lon="-71.121634282171726226806640625">
        <ele>883.79998779296875</ele>
        <time>2026-08-22T01:30:38.000Z</time>
        <extensions>
          <ns3:TrackPointExtension>
            <ns3:hr>116</ns3:hr>
            <ns3:cad>61</ns3:cad>
          </ns3:TrackPointExtension>
        </extensions>
      </trkpt>
      <trkpt lat="45.26599877513945102691650390625" lon="-71.12162766046822071075439453125">
        <ele>883.5999755859375</ele>
        <time>2026-08-22T01:30:39.000Z</time>
        <extensions>
          <ns3:TrackPointExtension>
            <ns3:hr>116</ns3:hr>
            <ns3:cad>61</ns3:cad>
          </ns3:TrackPointExtension>
        </extensions>
      </trkpt>
      <trkpt lat="45.26598888449370861053466796875" lon="-71.121628582477569580078125">
        <ele>883.5999755859375</ele>
        <time>2026-08-22T01:30:40.000Z</time>
        <extensions>
          <ns3:TrackPointExtension>
            <ns3:hr>116</ns3:hr>
            <ns3:cad>61</ns3:cad>
          </ns3:TrackPointExtension>
        </extensions>
      </trkpt>
      <trkpt lat="45.26597647927701473236083984375" lon="-71.12163067795336246490478515625">
        <ele>883.4000244140625</ele>
        <time>2026-08-22T01:30:41.000Z</time>
        <extensions>
          <ns3:TrackPointExtension>
            <ns3:hr>116</ns3:hr>
            <ns3:cad>61</ns3:cad>
          </ns3:TrackPointExtension>
        </extensions>
      </trkpt>
      <trkpt lat="45.2659693546593189239501953125" lon="-71.12163386307656764984130859375">
        <ele>883.20001220703125</ele>
        <time>2026-08-22T01:30:42.000Z</time>
        <extensions>
          <ns3:TrackPointExtension>
            <ns3:hr>115</ns3:hr>
            <ns3:cad>61</ns3:cad>
          </ns3:TrackPointExtension>
        </extensions>
      </trkpt>
      <trkpt lat="45.26595183648169040679931640625" lon="-71.1216455139219760894775390625">
        <ele>883</ele>
        <time>2026-08-22T01:30:43.000Z</time>
        <extensions>
          <ns3:TrackPointExtension>
            <ns3:hr>114</ns3:hr>
            <ns3:cad>60</ns3:cad>
          </ns3:TrackPointExtension>
        </extensions>
      </trkpt>
      <trkpt lat="45.26594362221658229827880859375" lon="-71.121650040149688720703125">
        <ele>882.5999755859375</ele>
        <time>2026-08-22T01:30:44.000Z</time>
        <extensions>
          <ns3:TrackPointExtension>
            <ns3:hr>113</ns3:hr>
            <ns3:cad>60</ns3:cad>
          </ns3:TrackPointExtension>
        </extensions>
      </trkpt>
      <trkpt lat="45.2659331448376178741455078125" lon="-71.1216569133102893829345703125">
        <ele>882.4000244140625</ele>
        <time>2026-08-22T01:30:45.000Z</time>
        <extensions>
          <ns3:TrackPointExtension>
            <ns3:hr>113</ns3:hr>
            <ns3:cad>60</ns3:cad>
          </ns3:TrackPointExtension>
        </extensions>
      </trkpt>
      <trkpt lat="45.265924595296382904052734375" lon="-71.12166034989058971405029296875">
        <ele>882</ele>
        <time>2026-08-22T01:30:46.000Z</time>
        <extensions>
          <ns3:TrackPointExtension>
            <ns3:hr>113</ns3:hr>
            <ns3:cad>70</ns3:cad>
          </ns3:TrackPointExtension>
        </extensions>
      </trkpt>
      <trkpt lat="45.26591612957417964935302734375" lon="-71.12166772596538066864013671875">
        <ele>881.79998779296875</ele>
        <time>2026-08-22T01:30:47.000Z</time>
        <extensions>
          <ns3:TrackPointExtension>
            <ns3:hr>113</ns3:hr>
            <ns3:cad>70</ns3:cad>
          </ns3:TrackPointExtension>
        </extensions>
      </trkpt>
      <trkpt lat="45.2659066580235958099365234375" lon="-71.12167459912598133087158203125">
        <ele>881.4000244140625</ele>
        <time>2026-08-22T01:30:48.000Z</time>
        <extensions>
          <ns3:TrackPointExtension>
            <ns3:hr>113</ns3:hr>
            <ns3:cad>0</ns3:cad>
          </ns3:TrackPointExtension>
        </extensions>
      </trkpt>
      <trkpt lat="45.26589752174913883209228515625" lon="-71.121675185859203338623046875">
        <ele>881.20001220703125</ele>
        <time>2026-08-22T01:30:49.000Z</time>
        <extensions>
          <ns3:TrackPointExtension>
            <ns3:hr>114</ns3:hr>
            <ns3:cad>0</ns3:cad>
          </ns3:TrackPointExtension>
        </extensions>
      </trkpt>
      <trkpt lat="45.26588344015181064605712890625" lon="-71.1216808855533599853515625">
        <ele>880.79998779296875</ele>
        <time>2026-08-22T01:30:50.000Z</time>
        <extensions>
          <ns3:TrackPointExtension>
            <ns3:hr>114</ns3:hr>
            <ns3:cad>0</ns3:cad>
          </ns3:TrackPointExtension>
        </extensions>
      </trkpt>
      <trkpt lat="45.26587237603962421417236328125" lon="-71.121688596904277801513671875">
        <ele>880.5999755859375</ele>
        <time>2026-08-22T01:30:51.000Z</time>
        <extensions>
          <ns3:TrackPointExtension>
            <ns3:hr>115</ns3:hr>
            <ns3:cad>0</ns3:cad>
          </ns3:TrackPointExtension>
        </extensions>
      </trkpt>
      <trkpt lat="45.26586365886032581329345703125" lon="-71.12169094383716583251953125">
        <ele>880.4000244140625</ele>
        <time>2026-08-22T01:30:52.000Z</time>
        <extensions>
          <ns3:TrackPointExtension>
            <ns3:hr>115</ns3:hr>
            <ns3:cad>0</ns3:cad>
          </ns3:TrackPointExtension>
        </extensions>
      </trkpt>
      <trkpt lat="45.26585326530039310455322265625" lon="-71.12169119529426097869873046875">
        <ele>880.20001220703125</ele>
        <time>2026-08-22T01:30:53.000Z</time>
        <extensions>
          <ns3:TrackPointExtension>
            <ns3:hr>114</ns3:hr>
            <ns3:cad>0</ns3:cad>
          </ns3:TrackPointExtension>
        </extensions>
      </trkpt>
      <trkpt lat="45.265842787921428680419921875" lon="-71.121696643531322479248046875">
        <ele>880</ele>
        <time>2026-08-22T01:30:54.000Z</time>
        <extensions>
          <ns3:TrackPointExtension>
            <ns3:hr>113</ns3:hr>
            <ns3:cad>0</ns3:cad>
          </ns3:TrackPointExtension>
        </extensions>
      </trkpt>
      <trkpt lat="45.265832729637622833251953125" lon="-71.12170577980577945709228515625">
        <ele>879.79998779296875</ele>
        <time>2026-08-22T01:30:55.000Z</time>
        <extensions>
          <ns3:TrackPointExtension>
            <ns3:hr>113</ns3:hr>
            <ns3:cad>0</ns3:cad>
          </ns3:TrackPointExtension>
        </extensions>
      </trkpt>
      <trkpt lat="45.26581906713545322418212890625" lon="-71.12170879729092121124267578125">
        <ele>879.5999755859375</ele>
        <time>2026-08-22T01:30:56.000Z</time>
        <extensions>
          <ns3:TrackPointExtension>
            <ns3:hr>113</ns3:hr>
            <ns3:cad>0</ns3:cad>
          </ns3:TrackPointExtension>
        </extensions>
      </trkpt>
      <trkpt lat="45.26581185869872570037841796875" lon="-71.12171097658574581146240234375">
        <ele>879.4000244140625</ele>
        <time>2026-08-22T01:30:57.000Z</time>
        <extensions>
          <ns3:TrackPointExtension>
            <ns3:hr>112</ns3:hr>
            <ns3:cad>0</ns3:cad>
          </ns3:TrackPointExtension>
        </extensions>
      </trkpt>
      <trkpt lat="45.265806578099727630615234375" lon="-71.12171902321279048919677734375">
        <ele>879.4000244140625</ele>
        <time>2026-08-22T01:30:58.000Z</time>
        <extensions>
          <ns3:TrackPointExtension>
            <ns3:hr>112</ns3:hr>
            <ns3:cad>0</ns3:cad>
          </ns3:TrackPointExtension>
        </extensions>
      </trkpt>
      <trkpt lat="45.26579677127301692962646484375" lon="-71.1217291653156280517578125">
        <ele>879.20001220703125</ele>
        <time>2026-08-22T01:30:59.000Z</time>
        <extensions>
          <ns3:TrackPointExtension>
            <ns3:hr>112</ns3:hr>
            <ns3:cad>0</ns3:cad>
          </ns3:TrackPointExtension>
        </extensions>
      </trkpt>
      <trkpt lat="45.2657879702746868133544921875" lon="-71.12173385918140411376953125">
        <ele>879</ele>
        <time>2026-08-22T01:31:00.000Z</time>
        <extensions>
          <ns3:TrackPointExtension>
            <ns3:hr>112</ns3:hr>
            <ns3:cad>0</ns3:cad>
          </ns3:TrackPointExtension>
        </extensions>
      </trkpt>
      <trkpt lat="45.265779756009578704833984375" lon="-71.12173897214233875274658203125">
        <ele>879</ele>
        <time>2026-08-22T01:31:01.000Z</time>
        <extensions>
          <ns3:TrackPointExtension>
            <ns3:hr>112</ns3:hr>
            <ns3:cad>0</ns3:cad>
          </ns3:TrackPointExtension>
        </extensions>
      </trkpt>
      <trkpt lat="45.2657722122967243194580078125" lon="-71.12174534238874912261962890625">
        <ele>878.5999755859375</ele>
        <time>2026-08-22T01:31:02.000Z</time>
        <extensions>
          <ns3:TrackPointExtension>
            <ns3:hr>110</ns3:hr>
            <ns3:cad>0</ns3:cad>
          </ns3:TrackPointExtension>
        </extensions>
      </trkpt>
      <trkpt lat="45.26575771160423755645751953125" lon="-71.12175372429192066192626953125">
        <ele>878.4000244140625</ele>
        <time>2026-08-22T01:31:03.000Z</time>
        <extensions>
          <ns3:TrackPointExtension>
            <ns3:hr>109</ns3:hr>
            <ns3:cad>0</ns3:cad>
          </ns3:TrackPointExtension>
        </extensions>
      </trkpt>
      <trkpt lat="45.26574966497719287872314453125" lon="-71.12176001071929931640625">
        <ele>878</ele>
        <time>2026-08-22T01:31:04.000Z</time>
        <extensions>
          <ns3:TrackPointExtension>
            <ns3:hr>109</ns3:hr>
            <ns3:cad>0</ns3:cad>
          </ns3:TrackPointExtension>
        </extensions>
      </trkpt>
      <trkpt lat="45.26574363000690937042236328125" lon="-71.12176395021378993988037109375">
        <ele>877.79998779296875</ele>
        <time>2026-08-22T01:31:05.000Z</time>
        <extensions>
          <ns3:TrackPointExtension>
            <ns3:hr>109</ns3:hr>
            <ns3:cad>0</ns3:cad>
          </ns3:TrackPointExtension>
        </extensions>
      </trkpt>
      <trkpt lat="45.26574513874948024749755859375" lon="-71.12176872789859771728515625">
        <ele>877.5999755859375</ele>
        <time>2026-08-22T01:31:06.000Z</time>
        <extensions>
          <ns3:TrackPointExtension>
            <ns3:hr>110</ns3:hr>
            <ns3:cad>0</ns3:cad>
          </ns3:TrackPointExtension>
        </extensions>
      </trkpt>
      <trkpt lat="45.2657423727214336395263671875" lon="-71.12177920527756214141845703125">
        <ele>877.20001220703125</ele>
        <time>2026-08-22T01:31:07.000Z</time>
        <extensions>
          <ns3:TrackPointExtension>
            <ns3:hr>112</ns3:hr>
            <ns3:cad>0</ns3:cad>
          </ns3:TrackPointExtension>
        </extensions>
      </trkpt>
      <trkpt lat="45.265738852322101593017578125" lon="-71.12178524024784564971923828125">
        <ele>877</ele>
        <time>2026-08-22T01:31:08.000Z</time>
        <extensions>
          <ns3:TrackPointExtension>
            <ns3:hr>113</ns3:hr>
            <ns3:cad>0</ns3:cad>
          </ns3:TrackPointExtension>
        </extensions>
      </trkpt>
      <trkpt lat="45.2657299675047397613525390625" lon="-71.12179093994200229644775390625">
        <ele>876.5999755859375</ele>
        <time>2026-08-22T01:31:09.000Z</time>
        <extensions>
          <ns3:TrackPointExtension>
            <ns3:hr>113</ns3:hr>
            <ns3:cad>0</ns3:cad>
          </ns3:TrackPointExtension>
        </extensions>
      </trkpt>
      <trkpt lat="45.26572083123028278350830078125" lon="-71.12179798074066638946533203125">
        <ele>876.20001220703125</ele>
        <time>2026-08-22T01:31:10.000Z</time>
        <extensions>
          <ns3:TrackPointExtension>
            <ns3:hr>114</ns3:hr>
            <ns3:cad>0</ns3:cad>
          </ns3:TrackPointExtension>
        </extensions>
      </trkpt>
      <trkpt lat="45.265708677470684051513671875" lon="-71.121807955205440521240234375">
        <ele>875.79998779296875</ele>
        <time>2026-08-22T01:31:11.000Z</time>
        <extensions>
          <ns3:TrackPointExtension>
            <ns3:hr>115</ns3:hr>
            <ns3:cad>0</ns3:cad>
          </ns3:TrackPointExtension>
        </extensions>
      </trkpt>
      <trkpt lat="45.26570239104330539703369140625" lon="-71.12181742675602436065673828125">
        <ele>875.4000244140625</ele>
        <time>2026-08-22T01:31:12.000Z</time>
        <extensions>
          <ns3:TrackPointExtension>
            <ns3:hr>115</ns3:hr>
            <ns3:cad>0</ns3:cad>
          </ns3:TrackPointExtension>
        </extensions>
      </trkpt>
      <trkpt lat="45.265695266425609588623046875" lon="-71.1218248866498470306396484375">
        <ele>875.20001220703125</ele>
        <time>2026-08-22T01:31:13.000Z</time>
        <extensions>
          <ns3:TrackPointExtension>
            <ns3:hr>116</ns3:hr>
            <ns3:cad>0</ns3:cad>
          </ns3:TrackPointExtension>
        </extensions>
      </trkpt>
      <trkpt lat="45.2656902372837066650390625" lon="-71.12183670513331890106201171875">
        <ele>875</ele>
        <time>2026-08-22T01:31:14.000Z</time>
        <extensions>
          <ns3:TrackPointExtension>
            <ns3:hr>116</ns3:hr>
            <ns3:cad>0</ns3:cad>
          </ns3:TrackPointExtension>
        </extensions>
      </trkpt>
      <trkpt lat="45.26569149456918239593505859375" lon="-71.1218540556728839874267578125">
        <ele>874.5999755859375</ele>
        <time>2026-08-22T01:31:15.000Z</time>
        <extensions>
          <ns3:TrackPointExtension>
            <ns3:hr>117</ns3:hr>
            <ns3:cad>0</ns3:cad>
          </ns3:TrackPointExtension>
        </extensions>
      </trkpt>
      <trkpt lat="45.26569769717752933502197265625" lon="-71.12186470068991184234619140625">
        <ele>874.20001220703125</ele>
        <time>2026-08-22T01:31:16.000Z</time>
        <extensions>
          <ns3:TrackPointExtension>
            <ns3:hr>117</ns3:hr>
            <ns3:cad>0</ns3:cad>
          </ns3:TrackPointExtension>
        </extensions>
      </trkpt>
      <trkpt lat="45.265703313052654266357421875" lon="-71.12187576480209827423095703125">
        <ele>873.79998779296875</ele>
        <time>2026-08-22T01:31:17.000Z</time>
        <extensions>
          <ns3:TrackPointExtension>
            <ns3:hr>117</ns3:hr>
            <ns3:cad>0</ns3:cad>
          </ns3:TrackPointExtension>
        </extensions>
      </trkpt>
      <trkpt lat="45.265706665813922882080078125" lon="-71.12188875675201416015625">
        <ele>873.5999755859375</ele>
        <time>2026-08-22T01:31:18.000Z</time>
        <extensions>
          <ns3:TrackPointExtension>
            <ns3:hr>117</ns3:hr>
            <ns3:cad>0</ns3:cad>
          </ns3:TrackPointExtension>
        </extensions>
      </trkpt>
      <trkpt lat="45.2657105214893817901611328125" lon="-71.1218963004648685455322265625">
        <ele>873.20001220703125</ele>
        <time>2026-08-22T01:31:19.000Z</time>
        <extensions>
          <ns3:TrackPointExtension>
            <ns3:hr>117</ns3:hr>
            <ns3:cad>65</ns3:cad>
          </ns3:TrackPointExtension>
        </extensions>
      </trkpt>
      <trkpt lat="45.26571027003228664398193359375" lon="-71.12190929241478443145751953125">
        <ele>873</ele>
        <time>2026-08-22T01:31:20.000Z</time>
        <extensions>
          <ns3:TrackPointExtension>
            <ns3:hr>118</ns3:hr>
            <ns3:cad>65</ns3:cad>
          </ns3:TrackPointExtension>
        </extensions>
      </trkpt>
      <trkpt lat="45.26570473797619342803955078125" lon="-71.1219184286892414093017578125">
        <ele>872.79998779296875</ele>
        <time>2026-08-22T01:31:21.000Z</time>
        <extensions>
          <ns3:TrackPointExtension>
            <ns3:hr>118</ns3:hr>
            <ns3:cad>0</ns3:cad>
          </ns3:TrackPointExtension>
        </extensions>
      </trkpt>
      <trkpt lat="45.26570138521492481231689453125" lon="-71.12193175591528415679931640625">
        <ele>872.4000244140625</ele>
        <time>2026-08-22T01:31:22.000Z</time>
        <extensions>
          <ns3:TrackPointExtension>
            <ns3:hr>118</ns3:hr>
            <ns3:cad>0</ns3:cad>
          </ns3:TrackPointExtension>
        </extensions>
      </trkpt>
      <trkpt lat="45.26569568552076816558837890625" lon="-71.1219442449510097503662109375">
        <ele>872.20001220703125</ele>
        <time>2026-08-22T01:31:23.000Z</time>
        <extensions>
          <ns3:TrackPointExtension>
            <ns3:hr>118</ns3:hr>
            <ns3:cad>0</ns3:cad>
          </ns3:TrackPointExtension>
        </extensions>
      </trkpt>
      <trkpt lat="45.2656873874366283416748046875" lon="-71.12195505760610103607177734375">
        <ele>871.79998779296875</ele>
        <time>2026-08-22T01:31:24.000Z</time>
        <extensions>
          <ns3:TrackPointExtension>
            <ns3:hr>118</ns3:hr>
            <ns3:cad>0</ns3:cad>
          </ns3:TrackPointExtension>
        </extensions>
      </trkpt>
      <trkpt lat="45.26567858643829822540283203125" lon="-71.12196763046085834503173828125">
        <ele>871.5999755859375</ele>
        <time>2026-08-22T01:31:25.000Z</time>
        <extensions>
          <ns3:TrackPointExtension>
            <ns3:hr>117</ns3:hr>
            <ns3:cad>0</ns3:cad>
          </ns3:TrackPointExtension>
        </extensions>
      </trkpt>
      <trkpt lat="45.26567104272544384002685546875" lon="-71.1219811253249645233154296875">
        <ele>871.4000244140625</ele>
        <time>2026-08-22T01:31:26.000Z</time>
        <extensions>
          <ns3:TrackPointExtension>
            <ns3:hr>118</ns3:hr>
            <ns3:cad>51</ns3:cad>
          </ns3:TrackPointExtension>
        </extensions>
      </trkpt>
      <trkpt lat="45.2656612358987331390380859375" lon="-71.12199361436069011688232421875">
        <ele>871</ele>
        <time>2026-08-22T01:31:27.000Z</time>
        <extensions>
          <ns3:TrackPointExtension>
            <ns3:hr>118</ns3:hr>
            <ns3:cad>51</ns3:cad>
          </ns3:TrackPointExtension>
        </extensions>
      </trkpt>
      <trkpt lat="45.2656545303761959075927734375" lon="-71.12201339565217494964599609375">
        <ele>870.79998779296875</ele>
        <time>2026-08-22T01:31:28.000Z</time>
        <extensions>
          <ns3:TrackPointExtension>
            <ns3:hr>118</ns3:hr>
            <ns3:cad>51</ns3:cad>
          </ns3:TrackPointExtension>
        </extensions>
      </trkpt>
      <trkpt lat="45.265653021633625030517578125" lon="-71.1220320872962474822998046875">
        <ele>870.4000244140625</ele>
        <time>2026-08-22T01:31:29.000Z</time>
        <extensions>
          <ns3:TrackPointExtension>
            <ns3:hr>119</ns3:hr>
            <ns3:cad>51</ns3:cad>
          </ns3:TrackPointExtension>
        </extensions>
      </trkpt>
      <trkpt lat="45.26566031388938426971435546875" lon="-71.12204038538038730621337890625">
        <ele>870</ele>
        <time>2026-08-22T01:31:30.000Z</time>
        <extensions>
          <ns3:TrackPointExtension>
            <ns3:hr>118</ns3:hr>
            <ns3:cad>51</ns3:cad>
          </ns3:TrackPointExtension>
        </extensions>
      </trkpt>
      <trkpt lat="45.26566936634480953216552734375" lon="-71.12204826436936855316162109375">
        <ele>869.5999755859375</ele>
        <time>2026-08-22T01:31:31.000Z</time>
        <extensions>
          <ns3:TrackPointExtension>
            <ns3:hr>118</ns3:hr>
            <ns3:cad>51</ns3:cad>
          </ns3:TrackPointExtension>
        </extensions>
      </trkpt>
      <trkpt lat="45.26568353176116943359375" lon="-71.12205765210092067718505859375">
        <ele>869.4000244140625</ele>
        <time>2026-08-22T01:31:32.000Z</time>
        <extensions>
          <ns3:TrackPointExtension>
            <ns3:hr>118</ns3:hr>
            <ns3:cad>51</ns3:cad>
          </ns3:TrackPointExtension>
        </extensions>
      </trkpt>
      <trkpt lat="45.2657001279294490814208984375" lon="-71.1220644414424896240234375">
        <ele>869.20001220703125</ele>
        <time>2026-08-22T01:31:33.000Z</time>
        <extensions>
          <ns3:TrackPointExtension>
            <ns3:hr>118</ns3:hr>
            <ns3:cad>51</ns3:cad>
          </ns3:TrackPointExtension>
        </extensions>
      </trkpt>
      <trkpt lat="45.26571504771709442138671875" lon="-71.12206150777637958526611328125">
        <ele>869.20001220703125</ele>
        <time>2026-08-22T01:31:34.000Z</time>
        <extensions>
          <ns3:TrackPointExtension>
            <ns3:hr>117</ns3:hr>
            <ns3:cad>51</ns3:cad>
          </ns3:TrackPointExtension>
        </extensions>
      </trkpt>
      <trkpt lat="45.26573105715215206146240234375" lon="-71.122058741748332977294921875">
        <ele>869</ele>
        <time>2026-08-22T01:31:35.000Z</time>
        <extensions>
          <ns3:TrackPointExtension>
            <ns3:hr>117</ns3:hr>
            <ns3:cad>51</ns3:cad>
          </ns3:TrackPointExtension>
        </extensions>
      </trkpt>
      <trkpt lat="45.2657393552362918853759765625" lon="-71.12205572426319122314453125">
        <ele>869</ele>
        <time>2026-08-22T01:31:36.000Z</time>
        <extensions>
          <ns3:TrackPointExtension>
            <ns3:hr>116</ns3:hr>
            <ns3:cad>51</ns3:cad>
          </ns3:TrackPointExtension>
        </extensions>
      </trkpt>
      <trkpt lat="45.26574916206300258636474609375" lon="-71.1220563948154449462890625">
        <ele>869</ele>
        <time>2026-08-22T01:31:37.000Z</time>
        <extensions>
          <ns3:TrackPointExtension>
            <ns3:hr>113</ns3:hr>
            <ns3:cad>51</ns3:cad>
          </ns3:TrackPointExtension>
        </extensions>
      </trkpt>
      <trkpt lat="45.26575452648103237152099609375" lon="-71.12205932848155498504638671875">
        <ele>869</ele>
        <time>2026-08-22T01:31:38.000Z</time>
        <extensions>
          <ns3:TrackPointExtension>
            <ns3:hr>113</ns3:hr>
            <ns3:cad>51</ns3:cad>
          </ns3:TrackPointExtension>
        </extensions>
      </trkpt>
      <trkpt lat="45.26576324366033077239990234375" lon="-71.12206167541444301605224609375">
        <ele>869</ele>
        <time>2026-08-22T01:31:39.000Z</time>
        <extensions>
          <ns3:TrackPointExtension>
            <ns3:hr>112</ns3:hr>
            <ns3:cad>51</ns3:cad>
          </ns3:TrackPointExtension>
        </extensions>
      </trkpt>
      <trkpt lat="45.2657675184309482574462890625" lon="-71.12206653691828250885009765625">
        <ele>868.79998779296875</ele>
        <time>2026-08-22T01:31:40.000Z</time>
        <extensions>
          <ns3:TrackPointExtension>
            <ns3:hr>112</ns3:hr>
            <ns3:cad>51</ns3:cad>
          </ns3:TrackPointExtension>
        </extensions>
      </trkpt>
      <trkpt lat="45.265776403248310089111328125" lon="-71.12208497710525989532470703125">
        <ele>868.4000244140625</ele>
        <time>2026-08-22T01:31:41.000Z</time>
        <extensions>
          <ns3:TrackPointExtension>
            <ns3:hr>112</ns3:hr>
            <ns3:cad>51</ns3:cad>
          </ns3:TrackPointExtension>
        </extensions>
      </trkpt>
      <trkpt lat="45.26578788645565509796142578125" lon="-71.12209972925484180450439453125">
        <ele>868</ele>
        <time>2026-08-22T01:31:42.000Z</time>
        <extensions>
          <ns3:TrackPointExtension>
            <ns3:hr>113</ns3:hr>
            <ns3:cad>51</ns3:cad>
          </ns3:TrackPointExtension>
        </extensions>
      </trkpt>
      <trkpt lat="45.265797190368175506591796875" lon="-71.12210400402545928955078125">
        <ele>867.79998779296875</ele>
        <time>2026-08-22T01:31:43.000Z</time>
        <extensions>
          <ns3:TrackPointExtension>
            <ns3:hr>113</ns3:hr>
            <ns3:cad>61</ns3:cad>
          </ns3:TrackPointExtension>
        </extensions>
      </trkpt>
      <trkpt lat="45.26580515317618846893310546875" lon="-71.1221075244247913360595703125">
        <ele>867.4000244140625</ele>
        <time>2026-08-22T01:31:44.000Z</time>
        <extensions>
          <ns3:TrackPointExtension>
            <ns3:hr>114</ns3:hr>
            <ns3:cad>61</ns3:cad>
          </ns3:TrackPointExtension>
        </extensions>
      </trkpt>
      <trkpt lat="45.26580532081425189971923828125" lon="-71.12211070954799652099609375">
        <ele>867.4000244140625</ele>
        <time>2026-08-22T01:31:45.000Z</time>
        <extensions>
          <ns3:TrackPointExtension>
            <ns3:hr>114</ns3:hr>
            <ns3:cad>51</ns3:cad>
          </ns3:TrackPointExtension>
        </extensions>
      </trkpt>
      <trkpt lat="45.26580750010907649993896484375" lon="-71.1221135593950748443603515625">
        <ele>867.20001220703125</ele>
        <time>2026-08-22T01:31:46.000Z</time>
        <extensions>
          <ns3:TrackPointExtension>
            <ns3:hr>114</ns3:hr>
            <ns3:cad>51</ns3:cad>
          </ns3:TrackPointExtension>
        </extensions>
      </trkpt>
      <trkpt lat="45.2658100984990596771240234375" lon="-71.12211029045283794403076171875">
        <ele>867.20001220703125</ele>
        <time>2026-08-22T01:31:47.000Z</time>
        <extensions>
          <ns3:TrackPointExtension>
            <ns3:hr>114</ns3:hr>
            <ns3:cad>51</ns3:cad>
          </ns3:TrackPointExtension>
        </extensions>
      </trkpt>
      <trkpt lat="45.26580515317618846893310546875" lon="-71.12212277948856353759765625">
        <ele>867</ele>
        <time>2026-08-22T01:31:48.000Z</time>
        <extensions>
          <ns3:TrackPointExtension>
            <ns3:hr>115</ns3:hr>
            <ns3:cad>0</ns3:cad>
          </ns3:TrackPointExtension>
        </extensions>
      </trkpt>
      <trkpt lat="45.265803225338459014892578125" lon="-71.1221343465149402618408203125">
        <ele>866.5999755859375</ele>
        <time>2026-08-22T01:31:49.000Z</time>
        <extensions>
          <ns3:TrackPointExtension>
            <ns3:hr>114</ns3:hr>
            <ns3:cad>0</ns3:cad>
          </ns3:TrackPointExtension>
        </extensions>
      </trkpt>
      <trkpt lat="45.26580347679555416107177734375" lon="-71.12214214168488979339599609375">
        <ele>866.4000244140625</ele>
        <time>2026-08-22T01:31:50.000Z</time>
        <extensions>
          <ns3:TrackPointExtension>
            <ns3:hr>114</ns3:hr>
            <ns3:cad>0</ns3:cad>
          </ns3:TrackPointExtension>
        </extensions>
      </trkpt>
      <trkpt lat="45.2658000402152538299560546875" lon="-71.12214884720742702484130859375">
        <ele>865.79998779296875</ele>
        <time>2026-08-22T01:31:51.000Z</time>
        <extensions>
          <ns3:TrackPointExtension>
            <ns3:hr>115</ns3:hr>
            <ns3:cad>0</ns3:cad>
          </ns3:TrackPointExtension>
        </extensions>
      </trkpt>
      <trkpt lat="45.265798866748809814453125" lon="-71.12214826047420501708984375">
        <ele>865.4000244140625</ele>
        <time>2026-08-22T01:31:52.000Z</time>
        <extensions>
          <ns3:TrackPointExtension>
            <ns3:hr>115</ns3:hr>
            <ns3:cad>0</ns3:cad>
          </ns3:TrackPointExtension>
        </extensions>
      </trkpt>
      <trkpt lat="45.26579543016850948333740234375" lon="-71.1221554689109325408935546875">
        <ele>865</ele>
        <time>2026-08-22T01:31:53.000Z</time>
        <extensions>
          <ns3:TrackPointExtension>
            <ns3:hr>115</ns3:hr>
            <ns3:cad>50</ns3:cad>
          </ns3:TrackPointExtension>
        </extensions>
      </trkpt>
      <trkpt lat="45.2657953463494777679443359375" lon="-71.12216494046151638031005859375">
        <ele>864.5999755859375</ele>
        <time>2026-08-22T01:31:54.000Z</time>
        <extensions>
          <ns3:TrackPointExtension>
            <ns3:hr>115</ns3:hr>
            <ns3:cad>50</ns3:cad>
          </ns3:TrackPointExtension>
        </extensions>
      </trkpt>
      <trkpt lat="45.26579744182527065277099609375" lon="-71.122172735631465911865234375">
        <ele>864</ele>
        <time>2026-08-22T01:31:55.000Z</time>
        <extensions>
          <ns3:TrackPointExtension>
            <ns3:hr>114</ns3:hr>
            <ns3:cad>50</ns3:cad>
          </ns3:TrackPointExtension>
        </extensions>
      </trkpt>
      <trkpt lat="45.26579760946333408355712890625" lon="-71.122184135019779205322265625">
        <ele>863.5999755859375</ele>
        <time>2026-08-22T01:31:56.000Z</time>
        <extensions>
          <ns3:TrackPointExtension>
            <ns3:hr>115</ns3:hr>
            <ns3:cad>50</ns3:cad>
          </ns3:TrackPointExtension>
        </extensions>
      </trkpt>
      <trkpt lat="45.26579660363495349884033203125" lon="-71.12220215611159801483154296875">
        <ele>863.20001220703125</ele>
        <time>2026-08-22T01:31:57.000Z</time>
        <extensions>
          <ns3:TrackPointExtension>
            <ns3:hr>115</ns3:hr>
            <ns3:cad>50</ns3:cad>
          </ns3:TrackPointExtension>
        </extensions>
      </trkpt>
      <trkpt lat="45.2657983638346195220947265625" lon="-71.12222562544047832489013671875">
        <ele>862.5999755859375</ele>
        <time>2026-08-22T01:31:58.000Z</time>
        <extensions>
          <ns3:TrackPointExtension>
            <ns3:hr>114</ns3:hr>
            <ns3:cad>0</ns3:cad>
          </ns3:TrackPointExtension>
        </extensions>
      </trkpt>
      <trkpt lat="45.2658013813197612762451171875" lon="-71.12223811447620391845703125">
        <ele>862.20001220703125</ele>
        <time>2026-08-22T01:31:59.000Z</time>
        <extensions>
          <ns3:TrackPointExtension>
            <ns3:hr>115</ns3:hr>
            <ns3:cad>0</ns3:cad>
          </ns3:TrackPointExtension>
        </extensions>
      </trkpt>
      <trkpt lat="45.2658028900623321533203125" lon="-71.12225194461643695831298828125">
        <ele>861.5999755859375</ele>
        <time>2026-08-22T01:32:00.000Z</time>
        <extensions>
          <ns3:TrackPointExtension>
            <ns3:hr>114</ns3:hr>
            <ns3:cad>0</ns3:cad>
          </ns3:TrackPointExtension>
        </extensions>
      </trkpt>
      <trkpt lat="45.265800543129444122314453125" lon="-71.12226426601409912109375">
        <ele>861</ele>
        <time>2026-08-22T01:32:01.000Z</time>
        <extensions>
          <ns3:TrackPointExtension>
            <ns3:hr>115</ns3:hr>
            <ns3:cad>0</ns3:cad>
          </ns3:TrackPointExtension>
        </extensions>
      </trkpt>
      <trkpt lat="45.26579945348203182220458984375" lon="-71.12227960489690303802490234375">
        <ele>860.5999755859375</ele>
        <time>2026-08-22T01:32:02.000Z</time>
        <extensions>
          <ns3:TrackPointExtension>
            <ns3:hr>116</ns3:hr>
            <ns3:cad>0</ns3:cad>
          </ns3:TrackPointExtension>
        </extensions>
      </trkpt>
      <trkpt lat="45.26579811237752437591552734375" lon="-71.12229905091226100921630859375">
        <ele>860</ele>
        <time>2026-08-22T01:32:03.000Z</time>
        <extensions>
          <ns3:TrackPointExtension>
            <ns3:hr>116</ns3:hr>
            <ns3:cad>0</ns3:cad>
          </ns3:TrackPointExtension>
        </extensions>
      </trkpt>
      <trkpt lat="45.2658002078533172607421875" lon="-71.122316233813762664794921875">
        <ele>859.4000244140625</ele>
        <time>2026-08-22T01:32:04.000Z</time>
        <extensions>
          <ns3:TrackPointExtension>
            <ns3:hr>117</ns3:hr>
            <ns3:cad>0</ns3:cad>
          </ns3:TrackPointExtension>
        </extensions>
      </trkpt>
      <trkpt lat="45.2658023871481418609619140625" lon="-71.12233241088688373565673828125">
        <ele>859</ele>
        <time>2026-08-22T01:32:05.000Z</time>
        <extensions>
          <ns3:TrackPointExtension>
            <ns3:hr>118</ns3:hr>
            <ns3:cad>0</ns3:cad>
          </ns3:TrackPointExtension>
        </extensions>
      </trkpt>
      <trkpt lat="45.2658007107675075531005859375" lon="-71.1223505996167659759521484375">
        <ele>858.5999755859375</ele>
        <time>2026-08-22T01:32:06.000Z</time>
        <extensions>
          <ns3:TrackPointExtension>
            <ns3:hr>118</ns3:hr>
            <ns3:cad>0</ns3:cad>
          </ns3:TrackPointExtension>
        </extensions>
      </trkpt>
      <trkpt lat="45.26580146513879299163818359375" lon="-71.12236283719539642333984375">
        <ele>858.20001220703125</ele>
        <time>2026-08-22T01:32:07.000Z</time>
        <extensions>
          <ns3:TrackPointExtension>
            <ns3:hr>119</ns3:hr>
            <ns3:cad>0</ns3:cad>
          </ns3:TrackPointExtension>
        </extensions>
      </trkpt>
      <trkpt lat="45.26580624282360076904296875" lon="-71.1223807744681835174560546875">
        <ele>857.79998779296875</ele>
        <time>2026-08-22T01:32:08.000Z</time>
        <extensions>
          <ns3:TrackPointExtension>
            <ns3:hr>119</ns3:hr>
            <ns3:cad>0</ns3:cad>
          </ns3:TrackPointExtension>
        </extensions>
      </trkpt>
      <trkpt lat="45.265814624726772308349609375" lon="-71.1223958618938922882080078125">
        <ele>857.5999755859375</ele>
        <time>2026-08-22T01:32:09.000Z</time>
        <extensions>
          <ns3:TrackPointExtension>
            <ns3:hr>119</ns3:hr>
            <ns3:cad>0</ns3:cad>
          </ns3:TrackPointExtension>
        </extensions>
      </trkpt>
      <trkpt lat="45.265817977488040924072265625" lon="-71.12240097485482692718505859375">
        <ele>857.4000244140625</ele>
        <time>2026-08-22T01:32:10.000Z</time>
        <extensions>
          <ns3:TrackPointExtension>
            <ns3:hr>119</ns3:hr>
            <ns3:cad>69</ns3:cad>
          </ns3:TrackPointExtension>
        </extensions>
      </trkpt>
      <trkpt lat="45.26581387035548686981201171875" lon="-71.12240918911993503570556640625">
        <ele>857.20001220703125</ele>
        <time>2026-08-22T01:32:11.000Z</time>
        <extensions>
          <ns3:TrackPointExtension>
            <ns3:hr>119</ns3:hr>
            <ns3:cad>69</ns3:cad>
          </ns3:TrackPointExtension>
        </extensions>
      </trkpt>
      <trkpt lat="45.26580381207168102264404296875" lon="-71.12242125906050205230712890625">
        <ele>856.79998779296875</ele>
        <time>2026-08-22T01:32:12.000Z</time>
        <extensions>
          <ns3:TrackPointExtension>
            <ns3:hr>119</ns3:hr>
            <ns3:cad>69</ns3:cad>
          </ns3:TrackPointExtension>
        </extensions>
      </trkpt>
      <trkpt lat="45.26579408906400203704833984375" lon="-71.1224310658872127532958984375">
        <ele>856.4000244140625</ele>
        <time>2026-08-22T01:32:13.000Z</time>
        <extensions>
          <ns3:TrackPointExtension>
            <ns3:hr>119</ns3:hr>
            <ns3:cad>69</ns3:cad>
          </ns3:TrackPointExtension>
        </extensions>
      </trkpt>
      <trkpt lat="45.265787132084369659423828125" lon="-71.1224391125142574310302734375">
        <ele>856</ele>
        <time>2026-08-22T01:32:14.000Z</time>
        <extensions>
          <ns3:TrackPointExtension>
            <ns3:hr>118</ns3:hr>
            <ns3:cad>69</ns3:cad>
          </ns3:TrackPointExtension>
        </extensions>
      </trkpt>
      <trkpt lat="45.26577950455248355865478515625" lon="-71.122444309294223785400390625">
        <ele>855.5999755859375</ele>
        <time>2026-08-22T01:32:15.000Z</time>
        <extensions>
          <ns3:TrackPointExtension>
            <ns3:hr>118</ns3:hr>
            <ns3:cad>69</ns3:cad>
          </ns3:TrackPointExtension>
        </extensions>
      </trkpt>
      <trkpt lat="45.26577447541058063507080078125" lon="-71.12245679832994937896728515625">
        <ele>855.20001220703125</ele>
        <time>2026-08-22T01:32:16.000Z</time>
        <extensions>
          <ns3:TrackPointExtension>
            <ns3:hr>118</ns3:hr>
            <ns3:cad>69</ns3:cad>
          </ns3:TrackPointExtension>
        </extensions>
      </trkpt>
      <trkpt lat="45.26577296666800975799560546875" lon="-71.1224729754030704498291015625">
        <ele>854.79998779296875</ele>
        <time>2026-08-22T01:32:17.000Z</time>
        <extensions>
          <ns3:TrackPointExtension>
            <ns3:hr>118</ns3:hr>
            <ns3:cad>69</ns3:cad>
          </ns3:TrackPointExtension>
        </extensions>
      </trkpt>
      <trkpt lat="45.265771038830280303955078125" lon="-71.1224882304668426513671875">
        <ele>854.4000244140625</ele>
        <time>2026-08-22T01:32:18.000Z</time>
        <extensions>
          <ns3:TrackPointExtension>
            <ns3:hr>118</ns3:hr>
            <ns3:cad>69</ns3:cad>
          </ns3:TrackPointExtension>
        </extensions>
      </trkpt>
      <trkpt lat="45.2657611481845378875732421875" lon="-71.12250625155866146087646484375">
        <ele>854</ele>
        <time>2026-08-22T01:32:19.000Z</time>
        <extensions>
          <ns3:TrackPointExtension>
            <ns3:hr>118</ns3:hr>
            <ns3:cad>69</ns3:cad>
          </ns3:TrackPointExtension>
        </extensions>
      </trkpt>
      <trkpt lat="45.26575352065265178680419921875" lon="-71.12253206782042980194091796875">
        <ele>853.4000244140625</ele>
        <time>2026-08-22T01:32:20.000Z</time>
        <extensions>
          <ns3:TrackPointExtension>
            <ns3:hr>119</ns3:hr>
            <ns3:cad>69</ns3:cad>
          </ns3:TrackPointExtension>
        </extensions>
      </trkpt>
      <trkpt lat="45.26574849151074886322021484375" lon="-71.12255888991057872772216796875">
        <ele>853</ele>
        <time>2026-08-22T01:32:21.000Z</time>
        <extensions>
          <ns3:TrackPointExtension>
            <ns3:hr>118</ns3:hr>
            <ns3:cad>80</ns3:cad>
          </ns3:TrackPointExtension>
        </extensions>
      </trkpt>
      <trkpt lat="45.26574513874948024749755859375" lon="-71.1225779168307781219482421875">
        <ele>852.5999755859375</ele>
        <time>2026-08-22T01:32:22.000Z</time>
        <extensions>
          <ns3:TrackPointExtension>
            <ns3:hr>118</ns3:hr>
            <ns3:cad>80</ns3:cad>
          </ns3:TrackPointExtension>
        </extensions>
      </trkpt>
      <trkpt lat="45.2657440491020679473876953125" lon="-71.12259845249354839324951171875">
        <ele>852.20001220703125</ele>
        <time>2026-08-22T01:32:23.000Z</time>
        <extensions>
          <ns3:TrackPointExtension>
            <ns3:hr>119</ns3:hr>
            <ns3:cad>80</ns3:cad>
          </ns3:TrackPointExtension>
        </extensions>
      </trkpt>
      <trkpt lat="45.265740193426609039306640625" lon="-71.12261471338570117950439453125">
        <ele>851.5999755859375</ele>
        <time>2026-08-22T01:32:24.000Z</time>
        <extensions>
          <ns3:TrackPointExtension>
            <ns3:hr>119</ns3:hr>
            <ns3:cad>79</ns3:cad>
          </ns3:TrackPointExtension>
        </extensions>
      </trkpt>
      <trkpt lat="45.26574111543595790863037109375" lon="-71.122643463313579559326171875">
        <ele>851.20001220703125</ele>
        <time>2026-08-22T01:32:25.000Z</time>
        <extensions>
          <ns3:TrackPointExtension>
            <ns3:hr>119</ns3:hr>
            <ns3:cad>79</ns3:cad>
          </ns3:TrackPointExtension>
        </extensions>
      </trkpt>
      <trkpt lat="45.26573826558887958526611328125" lon="-71.1226637475192546844482421875">
        <ele>850.79998779296875</ele>
        <time>2026-08-22T01:32:26.000Z</time>
        <extensions>
          <ns3:TrackPointExtension>
            <ns3:hr>119</ns3:hr>
            <ns3:cad>79</ns3:cad>
          </ns3:TrackPointExtension>
        </extensions>
      </trkpt>
      <trkpt lat="45.26573491282761096954345703125" lon="-71.122681684792041778564453125">
        <ele>850.4000244140625</ele>
        <time>2026-08-22T01:32:27.000Z</time>
        <extensions>
          <ns3:TrackPointExtension>
            <ns3:hr>120</ns3:hr>
            <ns3:cad>79</ns3:cad>
          </ns3:TrackPointExtension>
        </extensions>
      </trkpt>
      <trkpt lat="45.26573256589472293853759765625" lon="-71.12269618548452854156494140625">
        <ele>850</ele>
        <time>2026-08-22T01:32:28.000Z</time>
        <extensions>
          <ns3:TrackPointExtension>
            <ns3:hr>120</ns3:hr>
            <ns3:cad>79</ns3:cad>
          </ns3:TrackPointExtension>
        </extensions>
      </trkpt>
      <trkpt lat="45.2657296322286128997802734375" lon="-71.12271479330956935882568359375">
        <ele>849.5999755859375</ele>
        <time>2026-08-22T01:32:29.000Z</time>
        <extensions>
          <ns3:TrackPointExtension>
            <ns3:hr>120</ns3:hr>
            <ns3:cad>79</ns3:cad>
          </ns3:TrackPointExtension>
        </extensions>
      </trkpt>
      <trkpt lat="45.26572753675282001495361328125" lon="-71.12272619269788265228271484375">
        <ele>849.4000244140625</ele>
        <time>2026-08-22T01:32:30.000Z</time>
        <extensions>
          <ns3:TrackPointExtension>
            <ns3:hr>120</ns3:hr>
            <ns3:cad>79</ns3:cad>
          </ns3:TrackPointExtension>
        </extensions>
      </trkpt>
      <trkpt lat="45.2657249383628368377685546875" lon="-71.1227354966104030609130859375">
        <ele>849.20001220703125</ele>
        <time>2026-08-22T01:32:31.000Z</time>
        <extensions>
          <ns3:TrackPointExtension>
            <ns3:hr>120</ns3:hr>
            <ns3:cad>79</ns3:cad>
          </ns3:TrackPointExtension>
        </extensions>
      </trkpt>
      <trkpt lat="45.265720076858997344970703125" lon="-71.122748740017414093017578125">
        <ele>848.79998779296875</ele>
        <time>2026-08-22T01:32:32.000Z</time>
        <extensions>
          <ns3:TrackPointExtension>
            <ns3:hr>120</ns3:hr>
            <ns3:cad>79</ns3:cad>
          </ns3:TrackPointExtension>
        </extensions>
      </trkpt>
      <trkpt lat="45.26571831665933132171630859375" lon="-71.1227542720735073089599609375">
        <ele>848.5999755859375</ele>
        <time>2026-08-22T01:32:33.000Z</time>
        <extensions>
          <ns3:TrackPointExtension>
            <ns3:hr>121</ns3:hr>
            <ns3:cad>79</ns3:cad>
          </ns3:TrackPointExtension>
        </extensions>
      </trkpt>
      <trkpt lat="45.2657095156610012054443359375" lon="-71.12277262844145298004150390625">
        <ele>848.4000244140625</ele>
        <time>2026-08-22T01:32:34.000Z</time>
        <extensions>
          <ns3:TrackPointExtension>
            <ns3:hr>121</ns3:hr>
            <ns3:cad>79</ns3:cad>
          </ns3:TrackPointExtension>
        </extensions>
      </trkpt>
      <trkpt lat="45.26570104993879795074462890625" lon="-71.12278553657233715057373046875">
        <ele>848</ele>
        <time>2026-08-22T01:32:35.000Z</time>
        <extensions>
          <ns3:TrackPointExtension>
            <ns3:hr>121</ns3:hr>
            <ns3:cad>16</ns3:cad>
          </ns3:TrackPointExtension>
        </extensions>
      </trkpt>
      <trkpt lat="45.26569602079689502716064453125" lon="-71.12278905697166919708251953125">
        <ele>847.5999755859375</ele>
        <time>2026-08-22T01:32:36.000Z</time>
        <extensions>
          <ns3:TrackPointExtension>
            <ns3:hr>121</ns3:hr>
            <ns3:cad>16</ns3:cad>
          </ns3:TrackPointExtension>
        </extensions>
      </trkpt>
      <trkpt lat="45.26568948291242122650146484375" lon="-71.1227958463132381439208984375">
        <ele>847.20001220703125</ele>
        <time>2026-08-22T01:32:37.000Z</time>
        <extensions>
          <ns3:TrackPointExtension>
            <ns3:hr>120</ns3:hr>
            <ns3:cad>16</ns3:cad>
          </ns3:TrackPointExtension>
        </extensions>
      </trkpt>
      <trkpt lat="45.26568965055048465728759765625" lon="-71.12280162982642650604248046875">
        <ele>847</ele>
        <time>2026-08-22T01:32:38.000Z</time>
        <extensions>
          <ns3:TrackPointExtension>
            <ns3:hr>120</ns3:hr>
            <ns3:cad>0</ns3:cad>
          </ns3:TrackPointExtension>
        </extensions>
      </trkpt>
      <trkpt lat="45.26568688452243804931640625" lon="-71.1228047311305999755859375">
        <ele>846.5999755859375</ele>
        <time>2026-08-22T01:32:39.000Z</time>
        <extensions>
          <ns3:TrackPointExtension>
            <ns3:hr>120</ns3:hr>
            <ns3:cad>0</ns3:cad>
          </ns3:TrackPointExtension>
        </extensions>
      </trkpt>
      <trkpt lat="45.26568076573312282562255859375" lon="-71.122816465795040130615234375">
        <ele>846.4000244140625</ele>
        <time>2026-08-22T01:32:40.000Z</time>
        <extensions>
          <ns3:TrackPointExtension>
            <ns3:hr>120</ns3:hr>
            <ns3:cad>0</ns3:cad>
          </ns3:TrackPointExtension>
        </extensions>
      </trkpt>
      <trkpt lat="45.26567657478153705596923828125" lon="-71.12282912246882915496826171875">
        <ele>846.20001220703125</ele>
        <time>2026-08-22T01:32:41.000Z</time>
        <extensions>
          <ns3:TrackPointExtension>
            <ns3:hr>120</ns3:hr>
            <ns3:cad>0</ns3:cad>
          </ns3:TrackPointExtension>
        </extensions>
      </trkpt>
      <trkpt lat="45.26567087508738040924072265625" lon="-71.12284387461841106414794921875">
        <ele>846</ele>
        <time>2026-08-22T01:32:42.000Z</time>
        <extensions>
          <ns3:TrackPointExtension>
            <ns3:hr>120</ns3:hr>
            <ns3:cad>0</ns3:cad>
          </ns3:TrackPointExtension>
        </extensions>
      </trkpt>
      <trkpt lat="45.26566936634480953216552734375" lon="-71.122851669788360595703125">
        <ele>845.79998779296875</ele>
        <time>2026-08-22T01:32:43.000Z</time>
        <extensions>
          <ns3:TrackPointExtension>
            <ns3:hr>120</ns3:hr>
            <ns3:cad>0</ns3:cad>
          </ns3:TrackPointExtension>
        </extensions>
      </trkpt>
      <trkpt lat="45.265667438507080078125" lon="-71.122860722243785858154296875">
        <ele>845.5999755859375</ele>
        <time>2026-08-22T01:32:44.000Z</time>
        <extensions>
          <ns3:TrackPointExtension>
            <ns3:hr>120</ns3:hr>
            <ns3:cad>0</ns3:cad>
          </ns3:TrackPointExtension>
        </extensions>
      </trkpt>
      <trkpt lat="45.2656672708690166473388671875" lon="-71.122872792184352874755859375">
        <ele>845.4000244140625</ele>
        <time>2026-08-22T01:32:45.000Z</time>
        <extensions>
          <ns3:TrackPointExtension>
            <ns3:hr>120</ns3:hr>
            <ns3:cad>0</ns3:cad>
          </ns3:TrackPointExtension>
        </extensions>
      </trkpt>
      <trkpt lat="45.26566802524030208587646484375" lon="-71.122882179915904998779296875">
        <ele>845.20001220703125</ele>
        <time>2026-08-22T01:32:46.000Z</time>
        <extensions>
          <ns3:TrackPointExtension>
            <ns3:hr>120</ns3:hr>
            <ns3:cad>0</ns3:cad>
          </ns3:TrackPointExtension>
        </extensions>
      </trkpt>
      <trkpt lat="45.26566676795482635498046875" lon="-71.12288989126682281494140625">
        <ele>845</ele>
        <time>2026-08-22T01:32:47.000Z</time>
        <extensions>
          <ns3:TrackPointExtension>
            <ns3:hr>120</ns3:hr>
            <ns3:cad>0</ns3:cad>
          </ns3:TrackPointExtension>
        </extensions>
      </trkpt>
      <trkpt lat="45.26566618122160434722900390625" lon="-71.12290137447416782379150390625">
        <ele>844.79998779296875</ele>
        <time>2026-08-22T01:32:48.000Z</time>
        <extensions>
          <ns3:TrackPointExtension>
            <ns3:hr>121</ns3:hr>
            <ns3:cad>0</ns3:cad>
          </ns3:TrackPointExtension>
        </extensions>
      </trkpt>
      <trkpt lat="45.26566651649773120880126953125" lon="-71.1229054816067218780517578125">
        <ele>844.5999755859375</ele>
        <time>2026-08-22T01:32:49.000Z</time>
        <extensions>
          <ns3:TrackPointExtension>
            <ns3:hr>120</ns3:hr>
            <ns3:cad>0</ns3:cad>
          </ns3:TrackPointExtension>
        </extensions>
      </trkpt>
      <trkpt lat="45.26566718704998493194580078125" lon="-71.12292232923209667205810546875">
        <ele>844.4000244140625</ele>
        <time>2026-08-22T01:32:50.000Z</time>
        <extensions>
          <ns3:TrackPointExtension>
            <ns3:hr>120</ns3:hr>
            <ns3:cad>0</ns3:cad>
          </ns3:TrackPointExtension>
        </extensions>
      </trkpt>
      <trkpt lat="45.2656645886600017547607421875" lon="-71.12293456681072711944580078125">
        <ele>844</ele>
        <time>2026-08-22T01:32:51.000Z</time>
        <extensions>
          <ns3:TrackPointExtension>
            <ns3:hr>121</ns3:hr>
            <ns3:cad>0</ns3:cad>
          </ns3:TrackPointExtension>
        </extensions>
      </trkpt>
      <trkpt lat="45.26566098444163799285888671875" lon="-71.1229495704174041748046875">
        <ele>843.5999755859375</ele>
        <time>2026-08-22T01:32:52.000Z</time>
        <extensions>
          <ns3:TrackPointExtension>
            <ns3:hr>120</ns3:hr>
            <ns3:cad>0</ns3:cad>
          </ns3:TrackPointExtension>
        </extensions>
      </trkpt>
      <trkpt lat="45.26566484011709690093994140625" lon="-71.12296205945312976837158203125">
        <ele>843.20001220703125</ele>
        <time>2026-08-22T01:32:53.000Z</time>
        <extensions>
          <ns3:TrackPointExtension>
            <ns3:hr>120</ns3:hr>
            <ns3:cad>0</ns3:cad>
          </ns3:TrackPointExtension>
        </extensions>
      </trkpt>
      <trkpt lat="45.26566534303128719329833984375" lon="-71.12297228537499904632568359375">
        <ele>843</ele>
        <time>2026-08-22T01:32:54.000Z</time>
        <extensions>
          <ns3:TrackPointExtension>
            <ns3:hr>119</ns3:hr>
            <ns3:cad>0</ns3:cad>
          </ns3:TrackPointExtension>
        </extensions>
      </trkpt>
      <trkpt lat="45.2656642533838748931884765625" lon="-71.122979409992694854736328125">
        <ele>842.5999755859375</ele>
        <time>2026-08-22T01:32:55.000Z</time>
        <extensions>
          <ns3:TrackPointExtension>
            <ns3:hr>118</ns3:hr>
            <ns3:cad>0</ns3:cad>
          </ns3:TrackPointExtension>
        </extensions>
      </trkpt>
      <trkpt lat="45.2656585536897182464599609375" lon="-71.12298334948718547821044921875">
        <ele>842.4000244140625</ele>
        <time>2026-08-22T01:32:56.000Z</time>
        <extensions>
          <ns3:TrackPointExtension>
            <ns3:hr>117</ns3:hr>
            <ns3:cad>0</ns3:cad>
          </ns3:TrackPointExtension>
        </extensions>
      </trkpt>
      <trkpt lat="45.2656541951000690460205078125" lon="-71.12299290485680103302001953125">
        <ele>842</ele>
        <time>2026-08-22T01:32:57.000Z</time>
        <extensions>
          <ns3:TrackPointExtension>
            <ns3:hr>116</ns3:hr>
            <ns3:cad>0</ns3:cad>
          </ns3:TrackPointExtension>
        </extensions>
      </trkpt>
      <trkpt lat="45.26564857922494411468505859375" lon="-71.1230003647506237030029296875">
        <ele>841.4000244140625</ele>
        <time>2026-08-22T01:32:58.000Z</time>
        <extensions>
          <ns3:TrackPointExtension>
            <ns3:hr>116</ns3:hr>
            <ns3:cad>0</ns3:cad>
          </ns3:TrackPointExtension>
        </extensions>
      </trkpt>
      <trkpt lat="45.2656459808349609375" lon="-71.123007237911224365234375">
        <ele>841</ele>
        <time>2026-08-22T01:32:59.000Z</time>
        <extensions>
          <ns3:TrackPointExtension>
            <ns3:hr>117</ns3:hr>
            <ns3:cad>0</ns3:cad>
          </ns3:TrackPointExtension>
        </extensions>
      </trkpt>
      <trkpt lat="45.26564262807369232177734375" lon="-71.1230171285569667816162109375">
        <ele>840.5999755859375</ele>
        <time>2026-08-22T01:33:00.000Z</time>
        <extensions>
          <ns3:TrackPointExtension>
            <ns3:hr>116</ns3:hr>
            <ns3:cad>0</ns3:cad>
          </ns3:TrackPointExtension>
        </extensions>
      </trkpt>
      <trkpt lat="45.26563952676951885223388671875" lon="-71.12302794121205806732177734375">
        <ele>840</ele>
        <time>2026-08-22T01:33:01.000Z</time>
        <extensions>
          <ns3:TrackPointExtension>
            <ns3:hr>116</ns3:hr>
            <ns3:cad>0</ns3:cad>
          </ns3:TrackPointExtension>
        </extensions>
      </trkpt>
      <trkpt lat="45.26563650928437709808349609375" lon="-71.12303716130554676055908203125">
        <ele>839.5999755859375</ele>
        <time>2026-08-22T01:33:02.000Z</time>
        <extensions>
          <ns3:TrackPointExtension>
            <ns3:hr>116</ns3:hr>
            <ns3:cad>0</ns3:cad>
          </ns3:TrackPointExtension>
        </extensions>
      </trkpt>
      <trkpt lat="45.26563449762761592864990234375" lon="-71.1230593733489513397216796875">
        <ele>839</ele>
        <time>2026-08-22T01:33:03.000Z</time>
        <extensions>
          <ns3:TrackPointExtension>
            <ns3:hr>117</ns3:hr>
            <ns3:cad>0</ns3:cad>
          </ns3:TrackPointExtension>
        </extensions>
      </trkpt>
      <trkpt lat="45.26563768275082111358642578125" lon="-71.1230784840881824493408203125">
        <ele>838.5999755859375</ele>
        <time>2026-08-22T01:33:04.000Z</time>
        <extensions>
          <ns3:TrackPointExtension>
            <ns3:hr>117</ns3:hr>
            <ns3:cad>0</ns3:cad>
          </ns3:TrackPointExtension>
        </extensions>
      </trkpt>
      <trkpt lat="45.265639610588550567626953125" lon="-71.12308971583843231201171875">
        <ele>838.20001220703125</ele>
        <time>2026-08-22T01:33:05.000Z</time>
        <extensions>
          <ns3:TrackPointExtension>
            <ns3:hr>117</ns3:hr>
            <ns3:cad>0</ns3:cad>
          </ns3:TrackPointExtension>
        </extensions>
      </trkpt>
      <trkpt lat="45.2656431309878826141357421875" lon="-71.12310052849352359771728515625">
        <ele>837.79998779296875</ele>
        <time>2026-08-22T01:33:06.000Z</time>
        <extensions>
          <ns3:TrackPointExtension>
            <ns3:hr>118</ns3:hr>
            <ns3:cad>0</ns3:cad>
          </ns3:TrackPointExtension>
        </extensions>
      </trkpt>
      <trkpt lat="45.2656448073685169219970703125" lon="-71.12310958094894886016845703125">
        <ele>837.4000244140625</ele>
        <time>2026-08-22T01:33:07.000Z</time>
        <extensions>
          <ns3:TrackPointExtension>
            <ns3:hr>118</ns3:hr>
            <ns3:cad>0</ns3:cad>
          </ns3:TrackPointExtension>
        </extensions>
      </trkpt>
      <trkpt lat="45.2656414546072483062744140625" lon="-71.12311997450888156890869140625">
        <ele>837</ele>
        <time>2026-08-22T01:33:08.000Z</time>
        <extensions>
          <ns3:TrackPointExtension>
            <ns3:hr>118</ns3:hr>
            <ns3:cad>0</ns3:cad>
          </ns3:TrackPointExtension>
        </extensions>
      </trkpt>
      <trkpt lat="45.2656352519989013671875" lon="-71.12312952987849712371826171875">
        <ele>836.5999755859375</ele>
        <time>2026-08-22T01:33:09.000Z</time>
        <extensions>
          <ns3:TrackPointExtension>
            <ns3:hr>117</ns3:hr>
            <ns3:cad>0</ns3:cad>
          </ns3:TrackPointExtension>
        </extensions>
      </trkpt>
      <trkpt lat="45.26562988758087158203125" lon="-71.12314830534160137176513671875">
        <ele>836.20001220703125</ele>
        <time>2026-08-22T01:33:10.000Z</time>
        <extensions>
          <ns3:TrackPointExtension>
            <ns3:hr>118</ns3:hr>
            <ns3:cad>0</ns3:cad>
          </ns3:TrackPointExtension>
        </extensions>
      </trkpt>
      <trkpt lat="45.26563265360891819000244140625" lon="-71.12317194230854511260986328125">
        <ele>835.79998779296875</ele>
        <time>2026-08-22T01:33:11.000Z</time>
        <extensions>
          <ns3:TrackPointExtension>
            <ns3:hr>118</ns3:hr>
            <ns3:cad>0</ns3:cad>
          </ns3:TrackPointExtension>
        </extensions>
      </trkpt>
      <trkpt lat="45.265638269484043121337890625" lon="-71.1232005245983600616455078125">
        <ele>835.4000244140625</ele>
        <time>2026-08-22T01:33:12.000Z</time>
        <extensions>
          <ns3:TrackPointExtension>
            <ns3:hr>119</ns3:hr>
            <ns3:cad>0</ns3:cad>
          </ns3:TrackPointExtension>
        </extensions>
      </trkpt>
      <trkpt lat="45.26564271189272403717041015625" lon="-71.1232166178524494171142578125">
        <ele>835</ele>
        <time>2026-08-22T01:33:13.000Z</time>
        <extensions>
          <ns3:TrackPointExtension>
            <ns3:hr>120</ns3:hr>
            <ns3:cad>0</ns3:cad>
          </ns3:TrackPointExtension>
        </extensions>
      </trkpt>
      <trkpt lat="45.26565109379589557647705078125" lon="-71.1232363991439342498779296875">
        <ele>834.79998779296875</ele>
        <time>2026-08-22T01:33:14.000Z</time>
        <extensions>
          <ns3:TrackPointExtension>
            <ns3:hr>121</ns3:hr>
            <ns3:cad>0</ns3:cad>
          </ns3:TrackPointExtension>
        </extensions>
      </trkpt>
      <trkpt lat="45.26565469801425933837890625" lon="-71.123249642550945281982421875">
        <ele>834.79998779296875</ele>
        <time>2026-08-22T01:33:15.000Z</time>
        <extensions>
          <ns3:TrackPointExtension>
            <ns3:hr>122</ns3:hr>
            <ns3:cad>0</ns3:cad>
          </ns3:TrackPointExtension>
        </extensions>
      </trkpt>
      <trkpt lat="45.26565964333713054656982421875" lon="-71.12326766364276409149169921875">
        <ele>834.79998779296875</ele>
        <time>2026-08-22T01:33:16.000Z</time>
        <extensions>
          <ns3:TrackPointExtension>
            <ns3:hr>122</ns3:hr>
            <ns3:cad>0</ns3:cad>
          </ns3:TrackPointExtension>
        </extensions>
      </trkpt>
      <trkpt lat="45.26566668413579463958740234375" lon="-71.12327839247882366180419921875">
        <ele>834.5999755859375</ele>
        <time>2026-08-22T01:33:17.000Z</time>
        <extensions>
          <ns3:TrackPointExtension>
            <ns3:hr>122</ns3:hr>
            <ns3:cad>0</ns3:cad>
          </ns3:TrackPointExtension>
        </extensions>
      </trkpt>
      <trkpt lat="45.26567590422928333282470703125" lon="-71.1232902109622955322265625">
        <ele>834.5999755859375</ele>
        <time>2026-08-22T01:33:18.000Z</time>
        <extensions>
          <ns3:TrackPointExtension>
            <ns3:hr>122</ns3:hr>
            <ns3:cad>0</ns3:cad>
          </ns3:TrackPointExtension>
        </extensions>
      </trkpt>
      <trkpt lat="45.26568596251308917999267578125" lon="-71.12330068834125995635986328125">
        <ele>834.5999755859375</ele>
        <time>2026-08-22T01:33:19.000Z</time>
        <extensions>
          <ns3:TrackPointExtension>
            <ns3:hr>122</ns3:hr>
            <ns3:cad>0</ns3:cad>
          </ns3:TrackPointExtension>
        </extensions>
      </trkpt>
      <trkpt lat="45.2656910754740238189697265625" lon="-71.1233089864253997802734375">
        <ele>834.5999755859375</ele>
        <time>2026-08-22T01:33:20.000Z</time>
        <extensions>
          <ns3:TrackPointExtension>
            <ns3:hr>122</ns3:hr>
            <ns3:cad>0</ns3:cad>
          </ns3:TrackPointExtension>
        </extensions>
      </trkpt>
      <trkpt lat="45.2657034806907176971435546875" lon="-71.123322732746601104736328125">
        <ele>834.79998779296875</ele>
        <time>2026-08-22T01:33:21.000Z</time>
        <extensions>
          <ns3:TrackPointExtension>
            <ns3:hr>121</ns3:hr>
            <ns3:cad>0</ns3:cad>
          </ns3:TrackPointExtension>
        </extensions>
      </trkpt>
      <trkpt lat="45.265716724097728729248046875" lon="-71.1233353056013584136962890625">
        <ele>834.79998779296875</ele>
        <time>2026-08-22T01:33:22.000Z</time>
        <extensions>
          <ns3:TrackPointExtension>
            <ns3:hr>121</ns3:hr>
            <ns3:cad>0</ns3:cad>
          </ns3:TrackPointExtension>
        </extensions>
      </trkpt>
      <trkpt lat="45.26572518981993198394775390625" lon="-71.12334142439067363739013671875">
        <ele>834.79998779296875</ele>
        <time>2026-08-22T01:33:23.000Z</time>
        <extensions>
          <ns3:TrackPointExtension>
            <ns3:hr>120</ns3:hr>
            <ns3:cad>0</ns3:cad>
          </ns3:TrackPointExtension>
        </extensions>
      </trkpt>
      <trkpt lat="45.2657277882099151611328125" lon="-71.12334997393190860748291015625">
        <ele>834.5999755859375</ele>
        <time>2026-08-22T01:33:24.000Z</time>
        <extensions>
          <ns3:TrackPointExtension>
            <ns3:hr>119</ns3:hr>
            <ns3:cad>0</ns3:cad>
          </ns3:TrackPointExtension>
        </extensions>
      </trkpt>
      <trkpt lat="45.26572703383862972259521484375" lon="-71.12336522899568080902099609375">
        <ele>834.4000244140625</ele>
        <time>2026-08-22T01:33:25.000Z</time>
        <extensions>
          <ns3:TrackPointExtension>
            <ns3:hr>119</ns3:hr>
            <ns3:cad>0</ns3:cad>
          </ns3:TrackPointExtension>
        </extensions>
      </trkpt>
      <trkpt lat="45.2657319791615009307861328125" lon="-71.1233798973262310028076171875">
        <ele>834</ele>
        <time>2026-08-22T01:33:26.000Z</time>
        <extensions>
          <ns3:TrackPointExtension>
            <ns3:hr>119</ns3:hr>
            <ns3:cad>56</ns3:cad>
          </ns3:TrackPointExtension>
        </extensions>
      </trkpt>
      <trkpt lat="45.2657356671988964080810546875" lon="-71.1233894526958465576171875">
        <ele>833.5999755859375</ele>
        <time>2026-08-22T01:33:27.000Z</time>
        <extensions>
          <ns3:TrackPointExtension>
            <ns3:hr>119</ns3:hr>
            <ns3:cad>56</ns3:cad>
          </ns3:TrackPointExtension>
        </extensions>
      </trkpt>
      <trkpt lat="45.2657356671988964080810546875" lon="-71.1234033666551113128662109375">
        <ele>833.20001220703125</ele>
        <time>2026-08-22T01:33:28.000Z</time>
        <extensions>
          <ns3:TrackPointExtension>
            <ns3:hr>119</ns3:hr>
            <ns3:cad>56</ns3:cad>
          </ns3:TrackPointExtension>
        </extensions>
      </trkpt>
      <trkpt lat="45.26573474518954753875732421875" lon="-71.1234154365956783294677734375">
        <ele>832.79998779296875</ele>
        <time>2026-08-22T01:33:29.000Z</time>
        <extensions>
          <ns3:TrackPointExtension>
            <ns3:hr>119</ns3:hr>
            <ns3:cad>56</ns3:cad>
          </ns3:TrackPointExtension>
        </extensions>
      </trkpt>
      <trkpt lat="45.265738181769847869873046875" lon="-71.1234177835285663604736328125">
        <ele>832.4000244140625</ele>
        <time>2026-08-22T01:33:30.000Z</time>
        <extensions>
          <ns3:TrackPointExtension>
            <ns3:hr>119</ns3:hr>
            <ns3:cad>56</ns3:cad>
          </ns3:TrackPointExtension>
        </extensions>
      </trkpt>
      <trkpt lat="45.2657326497137546539306640625" lon="-71.12342574633657932281494140625">
        <ele>832</ele>
        <time>2026-08-22T01:33:31.000Z</time>
        <extensions>
          <ns3:TrackPointExtension>
            <ns3:hr>119</ns3:hr>
            <ns3:cad>0</ns3:cad>
          </ns3:TrackPointExtension>
        </extensions>
      </trkpt>
      <trkpt lat="45.26572284288704395294189453125" lon="-71.12343303859233856201171875">
        <ele>831.5999755859375</ele>
        <time>2026-08-22T01:33:32.000Z</time>
        <extensions>
          <ns3:TrackPointExtension>
            <ns3:hr>120</ns3:hr>
            <ns3:cad>0</ns3:cad>
          </ns3:TrackPointExtension>
        </extensions>
      </trkpt>
      <trkpt lat="45.2657152153551578521728515625" lon="-71.12343681044876575469970703125">
        <ele>831.4000244140625</ele>
        <time>2026-08-22T01:33:33.000Z</time>
        <extensions>
          <ns3:TrackPointExtension>
            <ns3:hr>120</ns3:hr>
            <ns3:cad>0</ns3:cad>
          </ns3:TrackPointExtension>
        </extensions>
      </trkpt>
      <trkpt lat="45.26570641435682773590087890625" lon="-71.12343630753457546234130859375">
        <ele>831</ele>
        <time>2026-08-22T01:33:34.000Z</time>
        <extensions>
          <ns3:TrackPointExtension>
            <ns3:hr>120</ns3:hr>
            <ns3:cad>0</ns3:cad>
          </ns3:TrackPointExtension>
        </extensions>
      </trkpt>
      <trkpt lat="45.2656974457204341888427734375" lon="-71.12343396060168743133544921875">
        <ele>830.79998779296875</ele>
        <time>2026-08-22T01:33:35.000Z</time>
        <extensions>
          <ns3:TrackPointExtension>
            <ns3:hr>120</ns3:hr>
            <ns3:cad>0</ns3:cad>
          </ns3:TrackPointExtension>
        </extensions>
      </trkpt>
      <trkpt lat="45.2656929194927215576171875" lon="-71.12343127839267253875732421875">
        <ele>830.5999755859375</ele>
        <time>2026-08-22T01:33:36.000Z</time>
        <extensions>
          <ns3:TrackPointExtension>
            <ns3:hr>120</ns3:hr>
            <ns3:cad>0</ns3:cad>
          </ns3:TrackPointExtension>
        </extensions>
      </trkpt>
      <trkpt lat="45.26568680070340633392333984375" lon="-71.12343094311654567718505859375">
        <ele>830.4000244140625</ele>
        <time>2026-08-22T01:33:37.000Z</time>
        <extensions>
          <ns3:TrackPointExtension>
            <ns3:hr>119</ns3:hr>
            <ns3:cad>0</ns3:cad>
          </ns3:TrackPointExtension>
        </extensions>
      </trkpt>
      <trkpt lat="45.26567774824798107147216796875" lon="-71.123432703316211700439453125">
        <ele>830.20001220703125</ele>
        <time>2026-08-22T01:33:38.000Z</time>
        <extensions>
          <ns3:TrackPointExtension>
            <ns3:hr>120</ns3:hr>
            <ns3:cad>0</ns3:cad>
          </ns3:TrackPointExtension>
        </extensions>
      </trkpt>
      <trkpt lat="45.2656714618206024169921875" lon="-71.12343572080135345458984375">
        <ele>830</ele>
        <time>2026-08-22T01:33:39.000Z</time>
        <extensions>
          <ns3:TrackPointExtension>
            <ns3:hr>121</ns3:hr>
            <ns3:cad>0</ns3:cad>
          </ns3:TrackPointExtension>
        </extensions>
      </trkpt>
      <trkpt lat="45.26566584594547748565673828125" lon="-71.123440749943256378173828125">
        <ele>829.5999755859375</ele>
        <time>2026-08-22T01:33:40.000Z</time>
        <extensions>
          <ns3:TrackPointExtension>
            <ns3:hr>121</ns3:hr>
            <ns3:cad>47</ns3:cad>
          </ns3:TrackPointExtension>
        </extensions>
      </trkpt>
      <trkpt lat="45.26565595529973506927490234375" lon="-71.12344351597130298614501953125">
        <ele>829.20001220703125</ele>
        <time>2026-08-22T01:33:41.000Z</time>
        <extensions>
          <ns3:TrackPointExtension>
            <ns3:hr>120</ns3:hr>
            <ns3:cad>47</ns3:cad>
          </ns3:TrackPointExtension>
        </extensions>
      </trkpt>
      <trkpt lat="45.265644975006580352783203125" lon="-71.1234412528574466705322265625">
        <ele>828.5999755859375</ele>
        <time>2026-08-22T01:33:42.000Z</time>
        <extensions>
          <ns3:TrackPointExtension>
            <ns3:hr>120</ns3:hr>
            <ns3:cad>50</ns3:cad>
          </ns3:TrackPointExtension>
        </extensions>
      </trkpt>
      <trkpt lat="45.26563860476016998291015625" lon="-71.123440749943256378173828125">
        <ele>828.20001220703125</ele>
        <time>2026-08-22T01:33:43.000Z</time>
        <extensions>
          <ns3:TrackPointExtension>
            <ns3:hr>119</ns3:hr>
            <ns3:cad>50</ns3:cad>
          </ns3:TrackPointExtension>
        </extensions>
      </trkpt>
      <trkpt lat="45.2656350843608379364013671875" lon="-71.123441755771636962890625">
        <ele>827.79998779296875</ele>
        <time>2026-08-22T01:33:44.000Z</time>
        <extensions>
          <ns3:TrackPointExtension>
            <ns3:hr>118</ns3:hr>
            <ns3:cad>50</ns3:cad>
          </ns3:TrackPointExtension>
        </extensions>
      </trkpt>
      <trkpt lat="45.26562276296317577362060546875" lon="-71.123433373868465423583984375">
        <ele>827.4000244140625</ele>
        <time>2026-08-22T01:33:45.000Z</time>
        <extensions>
          <ns3:TrackPointExtension>
            <ns3:hr>118</ns3:hr>
            <ns3:cad>53</ns3:cad>
          </ns3:TrackPointExtension>
        </extensions>
      </trkpt>
      <trkpt lat="45.2656126208603382110595703125" lon="-71.12342608161270618438720703125">
        <ele>827</ele>
        <time>2026-08-22T01:33:46.000Z</time>
        <extensions>
          <ns3:TrackPointExtension>
            <ns3:hr>118</ns3:hr>
            <ns3:cad>53</ns3:cad>
          </ns3:TrackPointExtension>
        </extensions>
      </trkpt>
      <trkpt lat="45.26560239493846893310546875" lon="-71.12341300584375858306884765625">
        <ele>826.79998779296875</ele>
        <time>2026-08-22T01:33:47.000Z</time>
        <extensions>
          <ns3:TrackPointExtension>
            <ns3:hr>118</ns3:hr>
            <ns3:cad>53</ns3:cad>
          </ns3:TrackPointExtension>
        </extensions>
      </trkpt>
      <trkpt lat="45.26559124700725078582763671875" lon="-71.1234073899686336517333984375">
        <ele>826.5999755859375</ele>
        <time>2026-08-22T01:33:48.000Z</time>
        <extensions>
          <ns3:TrackPointExtension>
            <ns3:hr>118</ns3:hr>
            <ns3:cad>53</ns3:cad>
          </ns3:TrackPointExtension>
        </extensions>
      </trkpt>
      <trkpt lat="45.26558152399957180023193359375" lon="-71.123401857912540435791015625">
        <ele>826.4000244140625</ele>
        <time>2026-08-22T01:33:49.000Z</time>
        <extensions>
          <ns3:TrackPointExtension>
            <ns3:hr>118</ns3:hr>
            <ns3:cad>53</ns3:cad>
          </ns3:TrackPointExtension>
        </extensions>
      </trkpt>
      <trkpt lat="45.265569873154163360595703125" lon="-71.12339959479868412017822265625">
        <ele>826.4000244140625</ele>
        <time>2026-08-22T01:33:50.000Z</time>
        <extensions>
          <ns3:TrackPointExtension>
            <ns3:hr>118</ns3:hr>
            <ns3:cad>53</ns3:cad>
          </ns3:TrackPointExtension>
        </extensions>
      </trkpt>
      <trkpt lat="45.265562497079372406005859375" lon="-71.123396493494510650634765625">
        <ele>826.4000244140625</ele>
        <time>2026-08-22T01:33:51.000Z</time>
        <extensions>
          <ns3:TrackPointExtension>
            <ns3:hr>118</ns3:hr>
            <ns3:cad>53</ns3:cad>
          </ns3:TrackPointExtension>
        </extensions>
      </trkpt>
      <trkpt lat="45.26555134914815425872802734375" lon="-71.12339339219033718109130859375">
        <ele>826.4000244140625</ele>
        <time>2026-08-22T01:33:52.000Z</time>
        <extensions>
          <ns3:TrackPointExtension>
            <ns3:hr>118</ns3:hr>
            <ns3:cad>0</ns3:cad>
          </ns3:TrackPointExtension>
        </extensions>
      </trkpt>
      <trkpt lat="45.26554162614047527313232421875" lon="-71.12339037470519542694091796875">
        <ele>826.4000244140625</ele>
        <time>2026-08-22T01:33:53.000Z</time>
        <extensions>
          <ns3:TrackPointExtension>
            <ns3:hr>118</ns3:hr>
            <ns3:cad>0</ns3:cad>
          </ns3:TrackPointExtension>
        </extensions>
      </trkpt>
      <trkpt lat="45.26552997529506683349609375" lon="-71.12338299863040447235107421875">
        <ele>826.20001220703125</ele>
        <time>2026-08-22T01:33:54.000Z</time>
        <extensions>
          <ns3:TrackPointExtension>
            <ns3:hr>118</ns3:hr>
            <ns3:cad>0</ns3:cad>
          </ns3:TrackPointExtension>
        </extensions>
      </trkpt>
      <trkpt lat="45.26552268303930759429931640625" lon="-71.12338216044008731842041015625">
        <ele>826</ele>
        <time>2026-08-22T01:33:55.000Z</time>
        <extensions>
          <ns3:TrackPointExtension>
            <ns3:hr>118</ns3:hr>
            <ns3:cad>0</ns3:cad>
          </ns3:TrackPointExtension>
        </extensions>
      </trkpt>
      <trkpt lat="45.26551245711743831634521484375" lon="-71.1233748681843280792236328125">
        <ele>825.79998779296875</ele>
        <time>2026-08-22T01:33:56.000Z</time>
        <extensions>
          <ns3:TrackPointExtension>
            <ns3:hr>118</ns3:hr>
            <ns3:cad>0</ns3:cad>
          </ns3:TrackPointExtension>
        </extensions>
      </trkpt>
      <trkpt lat="45.2655060030519962310791015625" lon="-71.12337310798466205596923828125">
        <ele>825.5999755859375</ele>
        <time>2026-08-22T01:33:57.000Z</time>
        <extensions>
          <ns3:TrackPointExtension>
            <ns3:hr>117</ns3:hr>
            <ns3:cad>0</ns3:cad>
          </ns3:TrackPointExtension>
        </extensions>
      </trkpt>
      <trkpt lat="45.2655006386339664459228515625" lon="-71.1233747005462646484375">
        <ele>825.4000244140625</ele>
        <time>2026-08-22T01:33:58.000Z</time>
        <extensions>
          <ns3:TrackPointExtension>
            <ns3:hr>118</ns3:hr>
            <ns3:cad>0</ns3:cad>
          </ns3:TrackPointExtension>
        </extensions>
      </trkpt>
      <trkpt lat="45.2654902450740337371826171875" lon="-71.12336975522339344024658203125">
        <ele>825.20001220703125</ele>
        <time>2026-08-22T01:33:59.000Z</time>
        <extensions>
          <ns3:TrackPointExtension>
            <ns3:hr>118</ns3:hr>
            <ns3:cad>0</ns3:cad>
          </ns3:TrackPointExtension>
        </extensions>
      </trkpt>
      <trkpt lat="45.26548362337052822113037109375" lon="-71.1233626306056976318359375">
        <ele>825.20001220703125</ele>
        <time>2026-08-22T01:34:00.000Z</time>
        <extensions>
          <ns3:TrackPointExtension>
            <ns3:hr>117</ns3:hr>
            <ns3:cad>0</ns3:cad>
          </ns3:TrackPointExtension>
        </extensions>
      </trkpt>
      <trkpt lat="45.26547926478087902069091796875" lon="-71.12335382960736751556396484375">
        <ele>825.20001220703125</ele>
        <time>2026-08-22T01:34:01.000Z</time>
        <extensions>
          <ns3:TrackPointExtension>
            <ns3:hr>118</ns3:hr>
            <ns3:cad>0</ns3:cad>
          </ns3:TrackPointExtension>
        </extensions>
      </trkpt>
      <trkpt lat="45.26547205634415149688720703125" lon="-71.1233467049896717071533203125">
        <ele>825.4000244140625</ele>
        <time>2026-08-22T01:34:02.000Z</time>
        <extensions>
          <ns3:TrackPointExtension>
            <ns3:hr>119</ns3:hr>
            <ns3:cad>0</ns3:cad>
          </ns3:TrackPointExtension>
        </extensions>
      </trkpt>
      <trkpt lat="45.2654595673084259033203125" lon="-71.12334796227514743804931640625">
        <ele>825.5999755859375</ele>
        <time>2026-08-22T01:34:03.000Z</time>
        <extensions>
          <ns3:TrackPointExtension>
            <ns3:hr>120</ns3:hr>
            <ns3:cad>0</ns3:cad>
          </ns3:TrackPointExtension>
        </extensions>
      </trkpt>
      <trkpt lat="45.265454538166522979736328125" lon="-71.1233438551425933837890625">
        <ele>825.79998779296875</ele>
        <time>2026-08-22T01:34:04.000Z</time>
        <extensions>
          <ns3:TrackPointExtension>
            <ns3:hr>121</ns3:hr>
            <ns3:cad>0</ns3:cad>
          </ns3:TrackPointExtension>
        </extensions>
      </trkpt>
      <trkpt lat="45.2654453180730342864990234375" lon="-71.12334041856229305267333984375">
        <ele>825.79998779296875</ele>
        <time>2026-08-22T01:34:05.000Z</time>
        <extensions>
          <ns3:TrackPointExtension>
            <ns3:hr>121</ns3:hr>
            <ns3:cad>0</ns3:cad>
          </ns3:TrackPointExtension>
        </extensions>
      </trkpt>
      <trkpt lat="45.2654409594833850860595703125" lon="-71.12333740107715129852294921875">
        <ele>826</ele>
        <time>2026-08-22T01:34:06.000Z</time>
        <extensions>
          <ns3:TrackPointExtension>
            <ns3:hr>121</ns3:hr>
            <ns3:cad>0</ns3:cad>
          </ns3:TrackPointExtension>
        </extensions>
      </trkpt>
      <trkpt lat="45.2654402889311313629150390625" lon="-71.1233379878103733062744140625">
        <ele>826</ele>
        <time>2026-08-22T01:34:07.000Z</time>
        <extensions>
          <ns3:TrackPointExtension>
            <ns3:hr>121</ns3:hr>
            <ns3:cad>0</ns3:cad>
          </ns3:TrackPointExtension>
        </extensions>
      </trkpt>
      <trkpt lat="45.2654402889311313629150390625" lon="-71.1233379878103733062744140625">
        <ele>826</ele>
        <time>2026-08-22T01:34:08.000Z</time>
        <extensions>
          <ns3:TrackPointExtension>
            <ns3:hr>121</ns3:hr>
            <ns3:cad>0</ns3:cad>
          </ns3:TrackPointExtension>
        </extensions>
      </trkpt>
      <trkpt lat="45.2654402889311313629150390625" lon="-71.1233379878103733062744140625">
        <ele>826</ele>
        <time>2026-08-22T01:34:09.000Z</time>
        <extensions>
          <ns3:TrackPointExtension>
            <ns3:hr>121</ns3:hr>
            <ns3:cad>0</ns3:cad>
          </ns3:TrackPointExtension>
        </extensions>
      </trkpt>
      <trkpt lat="45.2654402889311313629150390625" lon="-71.1233379878103733062744140625">
        <ele>826</ele>
        <time>2026-08-22T01:34:10.000Z</time>
        <extensions>
          <ns3:TrackPointExtension>
            <ns3:hr>120</ns3:hr>
            <ns3:cad>0</ns3:cad>
          </ns3:TrackPointExtension>
        </extensions>
      </trkpt>
      <trkpt lat="45.2654402889311313629150390625" lon="-71.1233379878103733062744140625">
        <ele>826</ele>
        <time>2026-08-22T01:34:11.000Z</time>
        <extensions>
          <ns3:TrackPointExtension>
            <ns3:hr>120</ns3:hr>
            <ns3:cad>0</ns3:cad>
          </ns3:TrackPointExtension>
        </extensions>
      </trkpt>
      <trkpt lat="45.2654402889311313629150390625" lon="-71.1233379878103733062744140625">
        <ele>826</ele>
        <time>2026-08-22T01:34:12.000Z</time>
        <extensions>
          <ns3:TrackPointExtension>
            <ns3:hr>119</ns3:hr>
            <ns3:cad>0</ns3:cad>
          </ns3:TrackPointExtension>
        </extensions>
      </trkpt>
      <trkpt lat="45.26543869636952877044677734375" lon="-71.12333790399134159088134765625">
        <ele>826</ele>
        <time>2026-08-22T01:34:13.000Z</time>
        <extensions>
          <ns3:TrackPointExtension>
            <ns3:hr>119</ns3:hr>
            <ns3:cad>0</ns3:cad>
          </ns3:TrackPointExtension>
        </extensions>
      </trkpt>
      <trkpt lat="45.26542671024799346923828125" lon="-71.123334132134914398193359375">
        <ele>825.79998779296875</ele>
        <time>2026-08-22T01:34:14.000Z</time>
        <extensions>
          <ns3:TrackPointExtension>
            <ns3:hr>119</ns3:hr>
            <ns3:cad>50</ns3:cad>
          </ns3:TrackPointExtension>
        </extensions>
      </trkpt>
      <trkpt lat="45.265417657792568206787109375" lon="-71.123332791030406951904296875">
        <ele>825.79998779296875</ele>
        <time>2026-08-22T01:34:15.000Z</time>
        <extensions>
          <ns3:TrackPointExtension>
            <ns3:hr>119</ns3:hr>
            <ns3:cad>50</ns3:cad>
          </ns3:TrackPointExtension>
        </extensions>
      </trkpt>
      <trkpt lat="45.26540483348071575164794921875" lon="-71.123328767716884613037109375">
        <ele>825.79998779296875</ele>
        <time>2026-08-22T01:34:16.000Z</time>
        <extensions>
          <ns3:TrackPointExtension>
            <ns3:hr>119</ns3:hr>
            <ns3:cad>50</ns3:cad>
          </ns3:TrackPointExtension>
        </extensions>
      </trkpt>
      <trkpt lat="45.2653896622359752655029296875" lon="-71.12331963144242763519287109375">
        <ele>825.5999755859375</ele>
        <time>2026-08-22T01:34:17.000Z</time>
        <extensions>
          <ns3:TrackPointExtension>
            <ns3:hr>119</ns3:hr>
            <ns3:cad>50</ns3:cad>
          </ns3:TrackPointExtension>
        </extensions>
      </trkpt>
      <trkpt lat="45.2653739042580127716064453125" lon="-71.12331862561404705047607421875">
        <ele>825.5999755859375</ele>
        <time>2026-08-22T01:34:18.000Z</time>
        <extensions>
          <ns3:TrackPointExtension>
            <ns3:hr>118</ns3:hr>
            <ns3:cad>53</ns3:cad>
          </ns3:TrackPointExtension>
        </extensions>
      </trkpt>
      <trkpt lat="45.2653630077838897705078125" lon="-71.12331493757665157318115234375">
        <ele>825.5999755859375</ele>
        <time>2026-08-22T01:34:19.000Z</time>
        <extensions>
          <ns3:TrackPointExtension>
            <ns3:hr>118</ns3:hr>
            <ns3:cad>53</ns3:cad>
          </ns3:TrackPointExtension>
        </extensions>
      </trkpt>
      <trkpt lat="45.26535303331911563873291015625" lon="-71.123313345015048980712890625">
        <ele>825.4000244140625</ele>
        <time>2026-08-22T01:34:20.000Z</time>
        <extensions>
          <ns3:TrackPointExtension>
            <ns3:hr>118</ns3:hr>
            <ns3:cad>53</ns3:cad>
          </ns3:TrackPointExtension>
        </extensions>
      </trkpt>
      <trkpt lat="45.26534515433013439178466796875" lon="-71.12330990843474864959716796875">
        <ele>825.4000244140625</ele>
        <time>2026-08-22T01:34:21.000Z</time>
        <extensions>
          <ns3:TrackPointExtension>
            <ns3:hr>119</ns3:hr>
            <ns3:cad>53</ns3:cad>
          </ns3:TrackPointExtension>
        </extensions>
      </trkpt>
      <trkpt lat="45.26533911935985088348388671875" lon="-71.12330756150186061859130859375">
        <ele>825.4000244140625</ele>
        <time>2026-08-22T01:34:22.000Z</time>
        <extensions>
          <ns3:TrackPointExtension>
            <ns3:hr>120</ns3:hr>
            <ns3:cad>53</ns3:cad>
          </ns3:TrackPointExtension>
        </extensions>
      </trkpt>
      <trkpt lat="45.26533023454248905181884765625" lon="-71.12330521456897258758544921875">
        <ele>825.4000244140625</ele>
        <time>2026-08-22T01:34:23.000Z</time>
        <extensions>
          <ns3:TrackPointExtension>
            <ns3:hr>120</ns3:hr>
            <ns3:cad>0</ns3:cad>
          </ns3:TrackPointExtension>
        </extensions>
      </trkpt>
      <trkpt lat="45.2653212659060955047607421875" lon="-71.12330831587314605712890625">
        <ele>825.4000244140625</ele>
        <time>2026-08-22T01:34:24.000Z</time>
        <extensions>
          <ns3:TrackPointExtension>
            <ns3:hr>121</ns3:hr>
            <ns3:cad>0</ns3:cad>
          </ns3:TrackPointExtension>
        </extensions>
      </trkpt>
      <trkpt lat="45.2653105370700359344482421875" lon="-71.123313009738922119140625">
        <ele>825.4000244140625</ele>
        <time>2026-08-22T01:34:25.000Z</time>
        <extensions>
          <ns3:TrackPointExtension>
            <ns3:hr>122</ns3:hr>
            <ns3:cad>0</ns3:cad>
          </ns3:TrackPointExtension>
        </extensions>
      </trkpt>
      <trkpt lat="45.26529955677688121795654296875" lon="-71.1233148537576198577880859375">
        <ele>825.20001220703125</ele>
        <time>2026-08-22T01:34:26.000Z</time>
        <extensions>
          <ns3:TrackPointExtension>
            <ns3:hr>122</ns3:hr>
            <ns3:cad>0</ns3:cad>
          </ns3:TrackPointExtension>
        </extensions>
      </trkpt>
      <trkpt lat="45.26528748683631420135498046875" lon="-71.1233182065188884735107421875">
        <ele>825</ele>
        <time>2026-08-22T01:34:27.000Z</time>
        <extensions>
          <ns3:TrackPointExtension>
            <ns3:hr>122</ns3:hr>
            <ns3:cad>0</ns3:cad>
          </ns3:TrackPointExtension>
        </extensions>
      </trkpt>
      <trkpt lat="45.26528413407504558563232421875" lon="-71.12332046963274478912353515625">
        <ele>824.79998779296875</ele>
        <time>2026-08-22T01:34:28.000Z</time>
        <extensions>
          <ns3:TrackPointExtension>
            <ns3:hr>123</ns3:hr>
            <ns3:cad>0</ns3:cad>
          </ns3:TrackPointExtension>
        </extensions>
      </trkpt>
      <trkpt lat="45.2652709744870662689208984375" lon="-71.12331845797598361968994140625">
        <ele>824.5999755859375</ele>
        <time>2026-08-22T01:34:29.000Z</time>
        <extensions>
          <ns3:TrackPointExtension>
            <ns3:hr>123</ns3:hr>
            <ns3:cad>0</ns3:cad>
          </ns3:TrackPointExtension>
        </extensions>
      </trkpt>
      <trkpt lat="45.26525848545134067535400390625" lon="-71.12332298420369625091552734375">
        <ele>824.4000244140625</ele>
        <time>2026-08-22T01:34:30.000Z</time>
        <extensions>
          <ns3:TrackPointExtension>
            <ns3:hr>123</ns3:hr>
            <ns3:cad>0</ns3:cad>
          </ns3:TrackPointExtension>
        </extensions>
      </trkpt>
      <trkpt lat="45.2652488462626934051513671875" lon="-71.12332172691822052001953125">
        <ele>824.4000244140625</ele>
        <time>2026-08-22T01:34:31.000Z</time>
        <extensions>
          <ns3:TrackPointExtension>
            <ns3:hr>124</ns3:hr>
            <ns3:cad>0</ns3:cad>
          </ns3:TrackPointExtension>
        </extensions>
      </trkpt>
      <trkpt lat="45.2652334235608577728271484375" lon="-71.12331611104309558868408203125">
        <ele>824.4000244140625</ele>
        <time>2026-08-22T01:34:32.000Z</time>
        <extensions>
          <ns3:TrackPointExtension>
            <ns3:hr>123</ns3:hr>
            <ns3:cad>0</ns3:cad>
          </ns3:TrackPointExtension>
        </extensions>
      </trkpt>
      <trkpt lat="45.2652200125157833099365234375" lon="-71.12331259064376354217529296875">
        <ele>824.5999755859375</ele>
        <time>2026-08-22T01:34:33.000Z</time>
        <extensions>
          <ns3:TrackPointExtension>
            <ns3:hr>123</ns3:hr>
            <ns3:cad>0</ns3:cad>
          </ns3:TrackPointExtension>
        </extensions>
      </trkpt>
      <trkpt lat="45.265204422175884246826171875" lon="-71.12330806441605091094970703125">
        <ele>824.4000244140625</ele>
        <time>2026-08-22T01:34:34.000Z</time>
        <extensions>
          <ns3:TrackPointExtension>
            <ns3:hr>124</ns3:hr>
            <ns3:cad>0</ns3:cad>
          </ns3:TrackPointExtension>
        </extensions>
      </trkpt>
      <trkpt lat="45.265197046101093292236328125" lon="-71.1233037896454334259033203125">
        <ele>824.5999755859375</ele>
        <time>2026-08-22T01:34:35.000Z</time>
        <extensions>
          <ns3:TrackPointExtension>
            <ns3:hr>123</ns3:hr>
            <ns3:cad>0</ns3:cad>
          </ns3:TrackPointExtension>
        </extensions>
      </trkpt>
      <trkpt lat="45.26518908329308032989501953125" lon="-71.123298592865467071533203125">
        <ele>824.5999755859375</ele>
        <time>2026-08-22T01:34:36.000Z</time>
        <extensions>
          <ns3:TrackPointExtension>
            <ns3:hr>123</ns3:hr>
            <ns3:cad>0</ns3:cad>
          </ns3:TrackPointExtension>
        </extensions>
      </trkpt>
      <trkpt lat="45.26517466641962528228759765625" lon="-71.1233004368841648101806640625">
        <ele>824.5999755859375</ele>
        <time>2026-08-22T01:34:37.000Z</time>
        <extensions>
          <ns3:TrackPointExtension>
            <ns3:hr>123</ns3:hr>
            <ns3:cad>0</ns3:cad>
          </ns3:TrackPointExtension>
        </extensions>
      </trkpt>
      <trkpt lat="45.265158824622631072998046875" lon="-71.12330102361738681793212890625">
        <ele>824.5999755859375</ele>
        <time>2026-08-22T01:34:38.000Z</time>
        <extensions>
          <ns3:TrackPointExtension>
            <ns3:hr>123</ns3:hr>
            <ns3:cad>0</ns3:cad>
          </ns3:TrackPointExtension>
        </extensions>
      </trkpt>
      <trkpt lat="45.265147425234317779541015625" lon="-71.1232994310557842254638671875">
        <ele>824.5999755859375</ele>
        <time>2026-08-22T01:34:39.000Z</time>
        <extensions>
          <ns3:TrackPointExtension>
            <ns3:hr>123</ns3:hr>
            <ns3:cad>0</ns3:cad>
          </ns3:TrackPointExtension>
        </extensions>
      </trkpt>
      <trkpt lat="45.2651439048349857330322265625" lon="-71.1232940666377544403076171875">
        <ele>824.5999755859375</ele>
        <time>2026-08-22T01:34:40.000Z</time>
        <extensions>
          <ns3:TrackPointExtension>
            <ns3:hr>123</ns3:hr>
            <ns3:cad>0</ns3:cad>
          </ns3:TrackPointExtension>
        </extensions>
      </trkpt>
      <trkpt lat="45.26513426564633846282958984375" lon="-71.1232897080481052398681640625">
        <ele>824.5999755859375</ele>
        <time>2026-08-22T01:34:41.000Z</time>
        <extensions>
          <ns3:TrackPointExtension>
            <ns3:hr>123</ns3:hr>
            <ns3:cad>0</ns3:cad>
          </ns3:TrackPointExtension>
        </extensions>
      </trkpt>
      <trkpt lat="45.2651284821331501007080078125" lon="-71.12328627146780490875244140625">
        <ele>824.5999755859375</ele>
        <time>2026-08-22T01:34:42.000Z</time>
        <extensions>
          <ns3:TrackPointExtension>
            <ns3:hr>124</ns3:hr>
            <ns3:cad>0</ns3:cad>
          </ns3:TrackPointExtension>
        </extensions>
      </trkpt>
      <trkpt lat="45.26511280797421932220458984375" lon="-71.12328107468783855438232421875">
        <ele>824.79998779296875</ele>
        <time>2026-08-22T01:34:43.000Z</time>
        <extensions>
          <ns3:TrackPointExtension>
            <ns3:hr>124</ns3:hr>
            <ns3:cad>0</ns3:cad>
          </ns3:TrackPointExtension>
        </extensions>
      </trkpt>
      <trkpt lat="45.26510107330977916717529296875" lon="-71.12327822484076023101806640625">
        <ele>824.79998779296875</ele>
        <time>2026-08-22T01:34:44.000Z</time>
        <extensions>
          <ns3:TrackPointExtension>
            <ns3:hr>123</ns3:hr>
            <ns3:cad>0</ns3:cad>
          </ns3:TrackPointExtension>
        </extensions>
      </trkpt>
      <trkpt lat="45.26509151794016361236572265625" lon="-71.12327923066914081573486328125">
        <ele>824.79998779296875</ele>
        <time>2026-08-22T01:34:45.000Z</time>
        <extensions>
          <ns3:TrackPointExtension>
            <ns3:hr>123</ns3:hr>
            <ns3:cad>0</ns3:cad>
          </ns3:TrackPointExtension>
        </extensions>
      </trkpt>
      <trkpt lat="45.265080034732818603515625" lon="-71.123282499611377716064453125">
        <ele>824.79998779296875</ele>
        <time>2026-08-22T01:34:46.000Z</time>
        <extensions>
          <ns3:TrackPointExtension>
            <ns3:hr>123</ns3:hr>
            <ns3:cad>0</ns3:cad>
          </ns3:TrackPointExtension>
        </extensions>
      </trkpt>
      <trkpt lat="45.2650620974600315093994140625" lon="-71.12328576855361461639404296875">
        <ele>824.79998779296875</ele>
        <time>2026-08-22T01:34:47.000Z</time>
        <extensions>
          <ns3:TrackPointExtension>
            <ns3:hr>122</ns3:hr>
            <ns3:cad>0</ns3:cad>
          </ns3:TrackPointExtension>
        </extensions>
      </trkpt>
      <trkpt lat="45.26505162008106708526611328125" lon="-71.1232853494584560394287109375">
        <ele>824.5999755859375</ele>
        <time>2026-08-22T01:34:48.000Z</time>
        <extensions>
          <ns3:TrackPointExtension>
            <ns3:hr>122</ns3:hr>
            <ns3:cad>0</ns3:cad>
          </ns3:TrackPointExtension>
        </extensions>
      </trkpt>
      <trkpt lat="45.265042483806610107421875" lon="-71.1232880316674709320068359375">
        <ele>824.5999755859375</ele>
        <time>2026-08-22T01:34:49.000Z</time>
        <extensions>
          <ns3:TrackPointExtension>
            <ns3:hr>122</ns3:hr>
            <ns3:cad>0</ns3:cad>
          </ns3:TrackPointExtension>
        </extensions>
      </trkpt>
      <trkpt lat="45.265032760798931121826171875" lon="-71.12329515628516674041748046875">
        <ele>824.20001220703125</ele>
        <time>2026-08-22T01:34:50.000Z</time>
        <extensions>
          <ns3:TrackPointExtension>
            <ns3:hr>123</ns3:hr>
            <ns3:cad>0</ns3:cad>
          </ns3:TrackPointExtension>
        </extensions>
      </trkpt>
      <trkpt lat="45.2650221996009349822998046875" lon="-71.12330471165478229522705078125">
        <ele>824</ele>
        <time>2026-08-22T01:34:51.000Z</time>
        <extensions>
          <ns3:TrackPointExtension>
            <ns3:hr>123</ns3:hr>
            <ns3:cad>0</ns3:cad>
          </ns3:TrackPointExtension>
        </extensions>
      </trkpt>
      <trkpt lat="45.26501038111746311187744140625" lon="-71.12331476993858814239501953125">
        <ele>823.79998779296875</ele>
        <time>2026-08-22T01:34:52.000Z</time>
        <extensions>
          <ns3:TrackPointExtension>
            <ns3:hr>123</ns3:hr>
            <ns3:cad>0</ns3:cad>
          </ns3:TrackPointExtension>
        </extensions>
      </trkpt>
      <trkpt lat="45.26500166393816471099853515625" lon="-71.1233208887279033660888671875">
        <ele>823.4000244140625</ele>
        <time>2026-08-22T01:34:53.000Z</time>
        <extensions>
          <ns3:TrackPointExtension>
            <ns3:hr>123</ns3:hr>
            <ns3:cad>0</ns3:cad>
          </ns3:TrackPointExtension>
        </extensions>
      </trkpt>
      <trkpt lat="45.26499328203499317169189453125" lon="-71.12332080490887165069580078125">
        <ele>823.20001220703125</ele>
        <time>2026-08-22T01:34:54.000Z</time>
        <extensions>
          <ns3:TrackPointExtension>
            <ns3:hr>123</ns3:hr>
            <ns3:cad>0</ns3:cad>
          </ns3:TrackPointExtension>
        </extensions>
      </trkpt>
      <trkpt lat="45.26498054154217243194580078125" lon="-71.1233279295265674591064453125">
        <ele>822.79998779296875</ele>
        <time>2026-08-22T01:34:55.000Z</time>
        <extensions>
          <ns3:TrackPointExtension>
            <ns3:hr>123</ns3:hr>
            <ns3:cad>0</ns3:cad>
          </ns3:TrackPointExtension>
        </extensions>
      </trkpt>
      <trkpt lat="45.26496981270611286163330078125" lon="-71.123338826000690460205078125">
        <ele>822.5999755859375</ele>
        <time>2026-08-22T01:34:56.000Z</time>
        <extensions>
          <ns3:TrackPointExtension>
            <ns3:hr>123</ns3:hr>
            <ns3:cad>52</ns3:cad>
          </ns3:TrackPointExtension>
        </extensions>
      </trkpt>
      <trkpt lat="45.26495858095586299896240234375" lon="-71.12334494479000568389892578125">
        <ele>822.4000244140625</ele>
        <time>2026-08-22T01:34:57.000Z</time>
        <extensions>
          <ns3:TrackPointExtension>
            <ns3:hr>123</ns3:hr>
            <ns3:cad>52</ns3:cad>
          </ns3:TrackPointExtension>
        </extensions>
      </trkpt>
      <trkpt lat="45.26494919322431087493896484375" lon="-71.1233443580567836761474609375">
        <ele>822.20001220703125</ele>
        <time>2026-08-22T01:34:58.000Z</time>
        <extensions>
          <ns3:TrackPointExtension>
            <ns3:hr>123</ns3:hr>
            <ns3:cad>52</ns3:cad>
          </ns3:TrackPointExtension>
        </extensions>
      </trkpt>
      <trkpt lat="45.26494198478758335113525390625" lon="-71.1233423464000225067138671875">
        <ele>821.79998779296875</ele>
        <time>2026-08-22T01:34:59.000Z</time>
        <extensions>
          <ns3:TrackPointExtension>
            <ns3:hr>122</ns3:hr>
            <ns3:cad>52</ns3:cad>
          </ns3:TrackPointExtension>
        </extensions>
      </trkpt>
      <trkpt lat="45.26493611745536327362060546875" lon="-71.12334963865578174591064453125">
        <ele>821.79998779296875</ele>
        <time>2026-08-22T01:35:00.000Z</time>
        <extensions>
          <ns3:TrackPointExtension>
            <ns3:hr>122</ns3:hr>
            <ns3:cad>52</ns3:cad>
          </ns3:TrackPointExtension>
        </extensions>
      </trkpt>
      <trkpt lat="45.26492756791412830352783203125" lon="-71.12335181795060634613037109375">
        <ele>821.5999755859375</ele>
        <time>2026-08-22T01:35:01.000Z</time>
        <extensions>
          <ns3:TrackPointExtension>
            <ns3:hr>122</ns3:hr>
            <ns3:cad>52</ns3:cad>
          </ns3:TrackPointExtension>
        </extensions>
      </trkpt>
      <trkpt lat="45.264922119677066802978515625" lon="-71.1233450286090373992919921875">
        <ele>821.4000244140625</ele>
        <time>2026-08-22T01:35:02.000Z</time>
        <extensions>
          <ns3:TrackPointExtension>
            <ns3:hr>122</ns3:hr>
            <ns3:cad>52</ns3:cad>
          </ns3:TrackPointExtension>
        </extensions>
      </trkpt>
      <trkpt lat="45.26491834782063961029052734375" lon="-71.12333740107715129852294921875">
        <ele>821.4000244140625</ele>
        <time>2026-08-22T01:35:03.000Z</time>
        <extensions>
          <ns3:TrackPointExtension>
            <ns3:hr>122</ns3:hr>
            <ns3:cad>0</ns3:cad>
          </ns3:TrackPointExtension>
        </extensions>
      </trkpt>
      <trkpt lat="45.26491248048841953277587890625" lon="-71.12332968972623348236083984375">
        <ele>821.4000244140625</ele>
        <time>2026-08-22T01:35:04.000Z</time>
        <extensions>
          <ns3:TrackPointExtension>
            <ns3:hr>122</ns3:hr>
            <ns3:cad>0</ns3:cad>
          </ns3:TrackPointExtension>
        </extensions>
      </trkpt>
      <trkpt lat="45.2649016678333282470703125" lon="-71.12332516349852085113525390625">
        <ele>821.4000244140625</ele>
        <time>2026-08-22T01:35:05.000Z</time>
        <extensions>
          <ns3:TrackPointExtension>
            <ns3:hr>122</ns3:hr>
            <ns3:cad>0</ns3:cad>
          </ns3:TrackPointExtension>
        </extensions>
      </trkpt>
      <trkpt lat="45.2648964710533618927001953125" lon="-71.12332114018499851226806640625">
        <ele>821.5999755859375</ele>
        <time>2026-08-22T01:35:06.000Z</time>
        <extensions>
          <ns3:TrackPointExtension>
            <ns3:hr>122</ns3:hr>
            <ns3:cad>0</ns3:cad>
          </ns3:TrackPointExtension>
        </extensions>
      </trkpt>
      <trkpt lat="45.26488750241696834564208984375" lon="-71.1233104951679706573486328125">
        <ele>821.5999755859375</ele>
        <time>2026-08-22T01:35:07.000Z</time>
        <extensions>
          <ns3:TrackPointExtension>
            <ns3:hr>122</ns3:hr>
            <ns3:cad>0</ns3:cad>
          </ns3:TrackPointExtension>
        </extensions>
      </trkpt>
      <trkpt lat="45.2648827247321605682373046875" lon="-71.12330471165478229522705078125">
        <ele>821.79998779296875</ele>
        <time>2026-08-22T01:35:08.000Z</time>
        <extensions>
          <ns3:TrackPointExtension>
            <ns3:hr>122</ns3:hr>
            <ns3:cad>0</ns3:cad>
          </ns3:TrackPointExtension>
        </extensions>
      </trkpt>
      <trkpt lat="45.26487275026738643646240234375" lon="-71.12330085597932338714599609375">
        <ele>822</ele>
        <time>2026-08-22T01:35:09.000Z</time>
        <extensions>
          <ns3:TrackPointExtension>
            <ns3:hr>122</ns3:hr>
            <ns3:cad>0</ns3:cad>
          </ns3:TrackPointExtension>
        </extensions>
      </trkpt>
      <trkpt lat="45.26486855931580066680908203125" lon="-71.1233031190931797027587890625">
        <ele>822</ele>
        <time>2026-08-22T01:35:10.000Z</time>
        <extensions>
          <ns3:TrackPointExtension>
            <ns3:hr>122</ns3:hr>
            <ns3:cad>57</ns3:cad>
          </ns3:TrackPointExtension>
        </extensions>
      </trkpt>
      <trkpt lat="45.264862440526485443115234375" lon="-71.12331326119601726531982421875">
        <ele>821.79998779296875</ele>
        <time>2026-08-22T01:35:11.000Z</time>
        <extensions>
          <ns3:TrackPointExtension>
            <ns3:hr>122</ns3:hr>
            <ns3:cad>66</ns3:cad>
          </ns3:TrackPointExtension>
        </extensions>
      </trkpt>
      <trkpt lat="45.264856405556201934814453125" lon="-71.1233215592801570892333984375">
        <ele>821.79998779296875</ele>
        <time>2026-08-22T01:35:12.000Z</time>
        <extensions>
          <ns3:TrackPointExtension>
            <ns3:hr>122</ns3:hr>
            <ns3:cad>66</ns3:cad>
          </ns3:TrackPointExtension>
        </extensions>
      </trkpt>
      <trkpt lat="45.264852046966552734375" lon="-71.1233332939445972442626953125">
        <ele>821.4000244140625</ele>
        <time>2026-08-22T01:35:13.000Z</time>
        <extensions>
          <ns3:TrackPointExtension>
            <ns3:hr>122</ns3:hr>
            <ns3:cad>59</ns3:cad>
          </ns3:TrackPointExtension>
        </extensions>
      </trkpt>
      <trkpt lat="45.2648542262613773345947265625" lon="-71.12334025092422962188720703125">
        <ele>821.20001220703125</ele>
        <time>2026-08-22T01:35:14.000Z</time>
        <extensions>
          <ns3:TrackPointExtension>
            <ns3:hr>122</ns3:hr>
            <ns3:cad>59</ns3:cad>
          </ns3:TrackPointExtension>
        </extensions>
      </trkpt>
      <trkpt lat="45.264850370585918426513671875" lon="-71.1233500577509403228759765625">
        <ele>820.79998779296875</ele>
        <time>2026-08-22T01:35:15.000Z</time>
        <extensions>
          <ns3:TrackPointExtension>
            <ns3:hr>122</ns3:hr>
            <ns3:cad>59</ns3:cad>
          </ns3:TrackPointExtension>
        </extensions>
      </trkpt>
      <trkpt lat="45.26484425179660320281982421875" lon="-71.12335382960736751556396484375">
        <ele>820.4000244140625</ele>
        <time>2026-08-22T01:35:16.000Z</time>
        <extensions>
          <ns3:TrackPointExtension>
            <ns3:hr>121</ns3:hr>
            <ns3:cad>59</ns3:cad>
          </ns3:TrackPointExtension>
        </extensions>
      </trkpt>
      <trkpt lat="45.2648364566266536712646484375" lon="-71.12335433252155780792236328125">
        <ele>820</ele>
        <time>2026-08-22T01:35:17.000Z</time>
        <extensions>
          <ns3:TrackPointExtension>
            <ns3:hr>122</ns3:hr>
            <ns3:cad>59</ns3:cad>
          </ns3:TrackPointExtension>
        </extensions>
      </trkpt>
      <trkpt lat="45.26482681743800640106201171875" lon="-71.12335969693958759307861328125">
        <ele>819.5999755859375</ele>
        <time>2026-08-22T01:35:18.000Z</time>
        <extensions>
          <ns3:TrackPointExtension>
            <ns3:hr>121</ns3:hr>
            <ns3:cad>59</ns3:cad>
          </ns3:TrackPointExtension>
        </extensions>
      </trkpt>
      <trkpt lat="45.26481960900127887725830078125" lon="-71.1233594454824924468994140625">
        <ele>819.4000244140625</ele>
        <time>2026-08-22T01:35:19.000Z</time>
        <extensions>
          <ns3:TrackPointExtension>
            <ns3:hr>121</ns3:hr>
            <ns3:cad>59</ns3:cad>
          </ns3:TrackPointExtension>
        </extensions>
      </trkpt>
      <trkpt lat="45.26481491513550281524658203125" lon="-71.12335818819701671600341796875">
        <ele>819.20001220703125</ele>
        <time>2026-08-22T01:35:20.000Z</time>
        <extensions>
          <ns3:TrackPointExtension>
            <ns3:hr>121</ns3:hr>
            <ns3:cad>59</ns3:cad>
          </ns3:TrackPointExtension>
        </extensions>
      </trkpt>
      <trkpt lat="45.26480686850845813751220703125" lon="-71.12335785292088985443115234375">
        <ele>819</ele>
        <time>2026-08-22T01:35:21.000Z</time>
        <extensions>
          <ns3:TrackPointExtension>
            <ns3:hr>121</ns3:hr>
            <ns3:cad>53</ns3:cad>
          </ns3:TrackPointExtension>
        </extensions>
      </trkpt>
      <trkpt lat="45.264796055853366851806640625" lon="-71.1233513988554477691650390625">
        <ele>818.79998779296875</ele>
        <time>2026-08-22T01:35:22.000Z</time>
        <extensions>
          <ns3:TrackPointExtension>
            <ns3:hr>121</ns3:hr>
            <ns3:cad>53</ns3:cad>
          </ns3:TrackPointExtension>
        </extensions>
      </trkpt>
      <trkpt lat="45.26479043997824192047119140625" lon="-71.123347543179988861083984375">
        <ele>818.5999755859375</ele>
        <time>2026-08-22T01:35:23.000Z</time>
        <extensions>
          <ns3:TrackPointExtension>
            <ns3:hr>121</ns3:hr>
            <ns3:cad>53</ns3:cad>
          </ns3:TrackPointExtension>
        </extensions>
      </trkpt>
      <trkpt lat="45.26478071697056293487548828125" lon="-71.12334812991321086883544921875">
        <ele>818.4000244140625</ele>
        <time>2026-08-22T01:35:24.000Z</time>
        <extensions>
          <ns3:TrackPointExtension>
            <ns3:hr>121</ns3:hr>
            <ns3:cad>53</ns3:cad>
          </ns3:TrackPointExtension>
        </extensions>
      </trkpt>
      <trkpt lat="45.26477535255253314971923828125" lon="-71.12335659563541412353515625">
        <ele>818.20001220703125</ele>
        <time>2026-08-22T01:35:25.000Z</time>
        <extensions>
          <ns3:TrackPointExtension>
            <ns3:hr>121</ns3:hr>
            <ns3:cad>53</ns3:cad>
          </ns3:TrackPointExtension>
        </extensions>
      </trkpt>
      <trkpt lat="45.26476529426872730255126953125" lon="-71.1233624629676342010498046875">
        <ele>818</ele>
        <time>2026-08-22T01:35:26.000Z</time>
        <extensions>
          <ns3:TrackPointExtension>
            <ns3:hr>121</ns3:hr>
            <ns3:cad>53</ns3:cad>
          </ns3:TrackPointExtension>
        </extensions>
      </trkpt>
      <trkpt lat="45.2647553198039531707763671875" lon="-71.12337076105177402496337890625">
        <ele>817.79998779296875</ele>
        <time>2026-08-22T01:35:27.000Z</time>
        <extensions>
          <ns3:TrackPointExtension>
            <ns3:hr>121</ns3:hr>
            <ns3:cad>53</ns3:cad>
          </ns3:TrackPointExtension>
        </extensions>
      </trkpt>
      <trkpt lat="45.2647455967962741851806640625" lon="-71.12337998114526271820068359375">
        <ele>817.4000244140625</ele>
        <time>2026-08-22T01:35:28.000Z</time>
        <extensions>
          <ns3:TrackPointExtension>
            <ns3:hr>121</ns3:hr>
            <ns3:cad>53</ns3:cad>
          </ns3:TrackPointExtension>
        </extensions>
      </trkpt>
      <trkpt lat="45.264734365046024322509765625" lon="-71.123391799628734588623046875">
        <ele>817</ele>
        <time>2026-08-22T01:35:29.000Z</time>
        <extensions>
          <ns3:TrackPointExtension>
            <ns3:hr>120</ns3:hr>
            <ns3:cad>53</ns3:cad>
          </ns3:TrackPointExtension>
        </extensions>
      </trkpt>
      <trkpt lat="45.264719612896442413330078125" lon="-71.12340646795928478240966796875">
        <ele>816.5999755859375</ele>
        <time>2026-08-22T01:35:30.000Z</time>
        <extensions>
          <ns3:TrackPointExtension>
            <ns3:hr>120</ns3:hr>
            <ns3:cad>0</ns3:cad>
          </ns3:TrackPointExtension>
        </extensions>
      </trkpt>
      <trkpt lat="45.264709554612636566162109375" lon="-71.123423986136913299560546875">
        <ele>816.20001220703125</ele>
        <time>2026-08-22T01:35:31.000Z</time>
        <extensions>
          <ns3:TrackPointExtension>
            <ns3:hr>120</ns3:hr>
            <ns3:cad>0</ns3:cad>
          </ns3:TrackPointExtension>
        </extensions>
      </trkpt>
      <trkpt lat="45.264709554612636566162109375" lon="-71.1234546639025211334228515625">
        <ele>815.79998779296875</ele>
        <time>2026-08-22T01:35:32.000Z</time>
        <extensions>
          <ns3:TrackPointExtension>
            <ns3:hr>120</ns3:hr>
            <ns3:cad>0</ns3:cad>
          </ns3:TrackPointExtension>
        </extensions>
      </trkpt>
      <trkpt lat="45.26471567340195178985595703125" lon="-71.12347318790853023529052734375">
        <ele>815.4000244140625</ele>
        <time>2026-08-22T01:35:33.000Z</time>
        <extensions>
          <ns3:TrackPointExtension>
            <ns3:hr>120</ns3:hr>
            <ns3:cad>0</ns3:cad>
          </ns3:TrackPointExtension>
        </extensions>
      </trkpt>
      <trkpt lat="45.2647207863628864288330078125" lon="-71.12349598668515682220458984375">
        <ele>815</ele>
        <time>2026-08-22T01:35:34.000Z</time>
        <extensions>
          <ns3:TrackPointExtension>
            <ns3:hr>120</ns3:hr>
            <ns3:cad>40</ns3:cad>
          </ns3:TrackPointExtension>
        </extensions>
      </trkpt>
      <trkpt lat="45.26472799479961395263671875" lon="-71.12350973300635814666748046875">
        <ele>814.5999755859375</ele>
        <time>2026-08-22T01:35:35.000Z</time>
        <extensions>
          <ns3:TrackPointExtension>
            <ns3:hr>120</ns3:hr>
            <ns3:cad>40</ns3:cad>
          </ns3:TrackPointExtension>
        </extensions>
      </trkpt>
      <trkpt lat="45.264734365046024322509765625" lon="-71.12352984957396984100341796875">
        <ele>814.20001220703125</ele>
        <time>2026-08-22T01:35:36.000Z</time>
        <extensions>
          <ns3:TrackPointExtension>
            <ns3:hr>121</ns3:hr>
            <ns3:cad>40</ns3:cad>
          </ns3:TrackPointExtension>
        </extensions>
      </trkpt>
      <trkpt lat="45.2647345326840877532958984375" lon="-71.123539991676807403564453125">
        <ele>813.79998779296875</ele>
        <time>2026-08-22T01:35:37.000Z</time>
        <extensions>
          <ns3:TrackPointExtension>
            <ns3:hr>121</ns3:hr>
            <ns3:cad>40</ns3:cad>
          </ns3:TrackPointExtension>
        </extensions>
      </trkpt>
      <trkpt lat="45.26473461650311946868896484375" lon="-71.12355709075927734375">
        <ele>813.4000244140625</ele>
        <time>2026-08-22T01:35:38.000Z</time>
        <extensions>
          <ns3:TrackPointExtension>
            <ns3:hr>121</ns3:hr>
            <ns3:cad>40</ns3:cad>
          </ns3:TrackPointExtension>
        </extensions>
      </trkpt>
      <trkpt lat="45.26473176665604114532470703125" lon="-71.1235716752707958221435546875">
        <ele>813</ele>
        <time>2026-08-22T01:35:39.000Z</time>
        <extensions>
          <ns3:TrackPointExtension>
            <ns3:hr>120</ns3:hr>
            <ns3:cad>40</ns3:cad>
          </ns3:TrackPointExtension>
        </extensions>
      </trkpt>
      <trkpt lat="45.26472933590412139892578125" lon="-71.1235897801816463470458984375">
        <ele>812.5999755859375</ele>
        <time>2026-08-22T01:35:40.000Z</time>
        <extensions>
          <ns3:TrackPointExtension>
            <ns3:hr>120</ns3:hr>
            <ns3:cad>0</ns3:cad>
          </ns3:TrackPointExtension>
        </extensions>
      </trkpt>
      <trkpt lat="45.26473109610378742218017578125" lon="-71.1236067116260528564453125">
        <ele>812.20001220703125</ele>
        <time>2026-08-22T01:35:41.000Z</time>
        <extensions>
          <ns3:TrackPointExtension>
            <ns3:hr>120</ns3:hr>
            <ns3:cad>0</ns3:cad>
          </ns3:TrackPointExtension>
        </extensions>
      </trkpt>
      <trkpt lat="45.26473327539861202239990234375" lon="-71.12361735664308071136474609375">
        <ele>811.79998779296875</ele>
        <time>2026-08-22T01:35:42.000Z</time>
        <extensions>
          <ns3:TrackPointExtension>
            <ns3:hr>120</ns3:hr>
            <ns3:cad>0</ns3:cad>
          </ns3:TrackPointExtension>
        </extensions>
      </trkpt>
      <trkpt lat="45.264731012284755706787109375" lon="-71.12362070940434932708740234375">
        <ele>811.4000244140625</ele>
        <time>2026-08-22T01:35:43.000Z</time>
        <extensions>
          <ns3:TrackPointExtension>
            <ns3:hr>120</ns3:hr>
            <ns3:cad>0</ns3:cad>
          </ns3:TrackPointExtension>
        </extensions>
      </trkpt>
      <trkpt lat="45.26472388766705989837646484375" lon="-71.1236209608614444732666015625">
        <ele>811.20001220703125</ele>
        <time>2026-08-22T01:35:44.000Z</time>
        <extensions>
          <ns3:TrackPointExtension>
            <ns3:hr>120</ns3:hr>
            <ns3:cad>0</ns3:cad>
          </ns3:TrackPointExtension>
        </extensions>
      </trkpt>
      <trkpt lat="45.2647194452583789825439453125" lon="-71.12362607382237911224365234375">
        <ele>811</ele>
        <time>2026-08-22T01:35:45.000Z</time>
        <extensions>
          <ns3:TrackPointExtension>
            <ns3:hr>121</ns3:hr>
            <ns3:cad>0</ns3:cad>
          </ns3:TrackPointExtension>
        </extensions>
      </trkpt>
      <trkpt lat="45.26471885852515697479248046875" lon="-71.12363177351653575897216796875">
        <ele>810.5999755859375</ele>
        <time>2026-08-22T01:35:46.000Z</time>
        <extensions>
          <ns3:TrackPointExtension>
            <ns3:hr>122</ns3:hr>
            <ns3:cad>0</ns3:cad>
          </ns3:TrackPointExtension>
        </extensions>
      </trkpt>
      <trkpt lat="45.26470578275620937347412109375" lon="-71.12364334054291248321533203125">
        <ele>810.20001220703125</ele>
        <time>2026-08-22T01:35:47.000Z</time>
        <extensions>
          <ns3:TrackPointExtension>
            <ns3:hr>123</ns3:hr>
            <ns3:cad>0</ns3:cad>
          </ns3:TrackPointExtension>
        </extensions>
      </trkpt>
      <trkpt lat="45.26469706557691097259521484375" lon="-71.12365054897964000701904296875">
        <ele>809.79998779296875</ele>
        <time>2026-08-22T01:35:48.000Z</time>
        <extensions>
          <ns3:TrackPointExtension>
            <ns3:hr>123</ns3:hr>
            <ns3:cad>0</ns3:cad>
          </ns3:TrackPointExtension>
        </extensions>
      </trkpt>
      <trkpt lat="45.2646825648844242095947265625" lon="-71.12365893088281154632568359375">
        <ele>809.4000244140625</ele>
        <time>2026-08-22T01:35:49.000Z</time>
        <extensions>
          <ns3:TrackPointExtension>
            <ns3:hr>123</ns3:hr>
            <ns3:cad>0</ns3:cad>
          </ns3:TrackPointExtension>
        </extensions>
      </trkpt>
      <trkpt lat="45.2646691538393497467041015625" lon="-71.12366362474858760833740234375">
        <ele>808.79998779296875</ele>
        <time>2026-08-22T01:35:50.000Z</time>
        <extensions>
          <ns3:TrackPointExtension>
            <ns3:hr>123</ns3:hr>
            <ns3:cad>0</ns3:cad>
          </ns3:TrackPointExtension>
        </extensions>
      </trkpt>
      <trkpt lat="45.26465968228876590728759765625" lon="-71.12366639077663421630859375">
        <ele>808.20001220703125</ele>
        <time>2026-08-22T01:35:51.000Z</time>
        <extensions>
          <ns3:TrackPointExtension>
            <ns3:hr>123</ns3:hr>
            <ns3:cad>0</ns3:cad>
          </ns3:TrackPointExtension>
        </extensions>
      </trkpt>
      <trkpt lat="45.2646530605852603912353515625" lon="-71.12366848625242710113525390625">
        <ele>807.79998779296875</ele>
        <time>2026-08-22T01:35:52.000Z</time>
        <extensions>
          <ns3:TrackPointExtension>
            <ns3:hr>122</ns3:hr>
            <ns3:cad>0</ns3:cad>
          </ns3:TrackPointExtension>
        </extensions>
      </trkpt>
      <trkpt lat="45.264644511044025421142578125" lon="-71.12367049790918827056884765625">
        <ele>807.4000244140625</ele>
        <time>2026-08-22T01:35:53.000Z</time>
        <extensions>
          <ns3:TrackPointExtension>
            <ns3:hr>122</ns3:hr>
            <ns3:cad>0</ns3:cad>
          </ns3:TrackPointExtension>
        </extensions>
      </trkpt>
      <trkpt lat="45.264637805521488189697265625" lon="-71.12367670051753520965576171875">
        <ele>807.20001220703125</ele>
        <time>2026-08-22T01:35:54.000Z</time>
        <extensions>
          <ns3:TrackPointExtension>
            <ns3:hr>122</ns3:hr>
            <ns3:cad>0</ns3:cad>
          </ns3:TrackPointExtension>
        </extensions>
      </trkpt>
      <trkpt lat="45.26462766341865062713623046875" lon="-71.1236917041242122650146484375">
        <ele>807</ele>
        <time>2026-08-22T01:35:55.000Z</time>
        <extensions>
          <ns3:TrackPointExtension>
            <ns3:hr>122</ns3:hr>
            <ns3:cad>0</ns3:cad>
          </ns3:TrackPointExtension>
        </extensions>
      </trkpt>
      <trkpt lat="45.264623053371906280517578125" lon="-71.12370268441736698150634765625">
        <ele>806.79998779296875</ele>
        <time>2026-08-22T01:35:56.000Z</time>
        <extensions>
          <ns3:TrackPointExtension>
            <ns3:hr>122</ns3:hr>
            <ns3:cad>0</ns3:cad>
          </ns3:TrackPointExtension>
        </extensions>
      </trkpt>
      <trkpt lat="45.26461408473551273345947265625" lon="-71.123715341091156005859375">
        <ele>806.4000244140625</ele>
        <time>2026-08-22T01:35:57.000Z</time>
        <extensions>
          <ns3:TrackPointExtension>
            <ns3:hr>121</ns3:hr>
            <ns3:cad>0</ns3:cad>
          </ns3:TrackPointExtension>
        </extensions>
      </trkpt>
      <trkpt lat="45.2646084688603878021240234375" lon="-71.123735122382640838623046875">
        <ele>806</ele>
        <time>2026-08-22T01:35:58.000Z</time>
        <extensions>
          <ns3:TrackPointExtension>
            <ns3:hr>121</ns3:hr>
            <ns3:cad>0</ns3:cad>
          </ns3:TrackPointExtension>
        </extensions>
      </trkpt>
      <trkpt lat="45.26460603810846805572509765625" lon="-71.12374593503773212432861328125">
        <ele>805.5999755859375</ele>
        <time>2026-08-22T01:35:59.000Z</time>
        <extensions>
          <ns3:TrackPointExtension>
            <ns3:hr>121</ns3:hr>
            <ns3:cad>0</ns3:cad>
          </ns3:TrackPointExtension>
        </extensions>
      </trkpt>
      <trkpt lat="45.26460721157491207122802734375" lon="-71.12375733442604541778564453125">
        <ele>805.20001220703125</ele>
        <time>2026-08-22T01:36:00.000Z</time>
        <extensions>
          <ns3:TrackPointExtension>
            <ns3:hr>122</ns3:hr>
            <ns3:cad>0</ns3:cad>
          </ns3:TrackPointExtension>
        </extensions>
      </trkpt>
      <trkpt lat="45.26461022906005382537841796875" lon="-71.12375758588314056396484375">
        <ele>804.79998779296875</ele>
        <time>2026-08-22T01:36:01.000Z</time>
        <extensions>
          <ns3:TrackPointExtension>
            <ns3:hr>122</ns3:hr>
            <ns3:cad>0</ns3:cad>
          </ns3:TrackPointExtension>
        </extensions>
      </trkpt>
      <trkpt lat="45.26460955850780010223388671875" lon="-71.1237637884914875030517578125">
        <ele>804.5999755859375</ele>
        <time>2026-08-22T01:36:02.000Z</time>
        <extensions>
          <ns3:TrackPointExtension>
            <ns3:hr>122</ns3:hr>
            <ns3:cad>0</ns3:cad>
          </ns3:TrackPointExtension>
        </extensions>
      </trkpt>
      <trkpt lat="45.264607630670070648193359375" lon="-71.12376504577696323394775390625">
        <ele>804.4000244140625</ele>
        <time>2026-08-22T01:36:03.000Z</time>
        <extensions>
          <ns3:TrackPointExtension>
            <ns3:hr>122</ns3:hr>
            <ns3:cad>0</ns3:cad>
          </ns3:TrackPointExtension>
        </extensions>
      </trkpt>
      <trkpt lat="45.26460452936589717864990234375" lon="-71.12377636134624481201171875">
        <ele>804.20001220703125</ele>
        <time>2026-08-22T01:36:04.000Z</time>
        <extensions>
          <ns3:TrackPointExtension>
            <ns3:hr>122</ns3:hr>
            <ns3:cad>0</ns3:cad>
          </ns3:TrackPointExtension>
        </extensions>
      </trkpt>
      <trkpt lat="45.2646067924797534942626953125" lon="-71.123786754906177520751953125">
        <ele>803.79998779296875</ele>
        <time>2026-08-22T01:36:05.000Z</time>
        <extensions>
          <ns3:TrackPointExtension>
            <ns3:hr>122</ns3:hr>
            <ns3:cad>0</ns3:cad>
          </ns3:TrackPointExtension>
        </extensions>
      </trkpt>
      <trkpt lat="45.2646007575094699859619140625" lon="-71.12380184233188629150390625">
        <ele>803.5999755859375</ele>
        <time>2026-08-22T01:36:06.000Z</time>
        <extensions>
          <ns3:TrackPointExtension>
            <ns3:hr>122</ns3:hr>
            <ns3:cad>0</ns3:cad>
          </ns3:TrackPointExtension>
        </extensions>
      </trkpt>
      <trkpt lat="45.264597572386264801025390625" lon="-71.1238160915672779083251953125">
        <ele>803.20001220703125</ele>
        <time>2026-08-22T01:36:07.000Z</time>
        <extensions>
          <ns3:TrackPointExtension>
            <ns3:hr>123</ns3:hr>
            <ns3:cad>0</ns3:cad>
          </ns3:TrackPointExtension>
        </extensions>
      </trkpt>
      <trkpt lat="45.2645933814346790313720703125" lon="-71.1238239705562591552734375">
        <ele>803</ele>
        <time>2026-08-22T01:36:08.000Z</time>
        <extensions>
          <ns3:TrackPointExtension>
            <ns3:hr>122</ns3:hr>
            <ns3:cad>0</ns3:cad>
          </ns3:TrackPointExtension>
        </extensions>
      </trkpt>
      <trkpt lat="45.26458877138793468475341796875" lon="-71.123827993869781494140625">
        <ele>802.5999755859375</ele>
        <time>2026-08-22T01:36:09.000Z</time>
        <extensions>
          <ns3:TrackPointExtension>
            <ns3:hr>122</ns3:hr>
            <ns3:cad>0</ns3:cad>
          </ns3:TrackPointExtension>
        </extensions>
      </trkpt>
      <trkpt lat="45.26458642445504665374755859375" lon="-71.12383143045008182525634765625">
        <ele>802.20001220703125</ele>
        <time>2026-08-22T01:36:10.000Z</time>
        <extensions>
          <ns3:TrackPointExtension>
            <ns3:hr>122</ns3:hr>
            <ns3:cad>0</ns3:cad>
          </ns3:TrackPointExtension>
        </extensions>
      </trkpt>
      <trkpt lat="45.26458173058927059173583984375" lon="-71.1238321848213672637939453125">
        <ele>801.79998779296875</ele>
        <time>2026-08-22T01:36:11.000Z</time>
        <extensions>
          <ns3:TrackPointExtension>
            <ns3:hr>121</ns3:hr>
            <ns3:cad>75</ns3:cad>
          </ns3:TrackPointExtension>
        </extensions>
      </trkpt>
      <trkpt lat="45.2645766176283359527587890625" lon="-71.12383444793522357940673828125">
        <ele>801.4000244140625</ele>
        <time>2026-08-22T01:36:12.000Z</time>
        <extensions>
          <ns3:TrackPointExtension>
            <ns3:hr>122</ns3:hr>
            <ns3:cad>75</ns3:cad>
          </ns3:TrackPointExtension>
        </extensions>
      </trkpt>
      <trkpt lat="45.26456966064870357513427734375" lon="-71.1238346993923187255859375">
        <ele>801.20001220703125</ele>
        <time>2026-08-22T01:36:13.000Z</time>
        <extensions>
          <ns3:TrackPointExtension>
            <ns3:hr>122</ns3:hr>
            <ns3:cad>75</ns3:cad>
          </ns3:TrackPointExtension>
        </extensions>
      </trkpt>
      <trkpt lat="45.26456446386873722076416015625" lon="-71.12383143045008182525634765625">
        <ele>800.79998779296875</ele>
        <time>2026-08-22T01:36:14.000Z</time>
        <extensions>
          <ns3:TrackPointExtension>
            <ns3:hr>123</ns3:hr>
            <ns3:cad>75</ns3:cad>
          </ns3:TrackPointExtension>
        </extensions>
      </trkpt>
      <trkpt lat="45.26455901563167572021484375" lon="-71.12383310683071613311767578125">
        <ele>800.4000244140625</ele>
        <time>2026-08-22T01:36:15.000Z</time>
        <extensions>
          <ns3:TrackPointExtension>
            <ns3:hr>123</ns3:hr>
            <ns3:cad>75</ns3:cad>
          </ns3:TrackPointExtension>
        </extensions>
      </trkpt>
      <trkpt lat="45.264550633728504180908203125" lon="-71.1238373816013336181640625">
        <ele>800.20001220703125</ele>
        <time>2026-08-22T01:36:16.000Z</time>
        <extensions>
          <ns3:TrackPointExtension>
            <ns3:hr>123</ns3:hr>
            <ns3:cad>75</ns3:cad>
          </ns3:TrackPointExtension>
        </extensions>
      </trkpt>
      <trkpt lat="45.26454518549144268035888671875" lon="-71.1238395608961582183837890625">
        <ele>800</ele>
        <time>2026-08-22T01:36:17.000Z</time>
        <extensions>
          <ns3:TrackPointExtension>
            <ns3:hr>123</ns3:hr>
            <ns3:cad>75</ns3:cad>
          </ns3:TrackPointExtension>
        </extensions>
      </trkpt>
      <trkpt lat="45.26453831233084201812744140625" lon="-71.123840399086475372314453125">
        <ele>799.5999755859375</ele>
        <time>2026-08-22T01:36:18.000Z</time>
        <extensions>
          <ns3:TrackPointExtension>
            <ns3:hr>122</ns3:hr>
            <ns3:cad>75</ns3:cad>
          </ns3:TrackPointExtension>
        </extensions>
      </trkpt>
      <trkpt lat="45.2645239792764186859130859375" lon="-71.1238439194858074188232421875">
        <ele>799.4000244140625</ele>
        <time>2026-08-22T01:36:19.000Z</time>
        <extensions>
          <ns3:TrackPointExtension>
            <ns3:hr>122</ns3:hr>
            <ns3:cad>75</ns3:cad>
          </ns3:TrackPointExtension>
        </extensions>
      </trkpt>
      <trkpt lat="45.26451886631548404693603515625" lon="-71.12384718842804431915283203125">
        <ele>799</ele>
        <time>2026-08-22T01:36:20.000Z</time>
        <extensions>
          <ns3:TrackPointExtension>
            <ns3:hr>122</ns3:hr>
            <ns3:cad>75</ns3:cad>
          </ns3:TrackPointExtension>
        </extensions>
      </trkpt>
      <trkpt lat="45.26451149024069309234619140625" lon="-71.123851798474788665771484375">
        <ele>798.79998779296875</ele>
        <time>2026-08-22T01:36:21.000Z</time>
        <extensions>
          <ns3:TrackPointExtension>
            <ns3:hr>122</ns3:hr>
            <ns3:cad>75</ns3:cad>
          </ns3:TrackPointExtension>
        </extensions>
      </trkpt>
      <trkpt lat="45.2645052038133144378662109375" lon="-71.1238553188741207122802734375">
        <ele>798.4000244140625</ele>
        <time>2026-08-22T01:36:22.000Z</time>
        <extensions>
          <ns3:TrackPointExtension>
            <ns3:hr>121</ns3:hr>
            <ns3:cad>0</ns3:cad>
          </ns3:TrackPointExtension>
        </extensions>
      </trkpt>
      <trkpt lat="45.26450025849044322967529296875" lon="-71.1238643713295459747314453125">
        <ele>798</ele>
        <time>2026-08-22T01:36:23.000Z</time>
        <extensions>
          <ns3:TrackPointExtension>
            <ns3:hr>121</ns3:hr>
            <ns3:cad>0</ns3:cad>
          </ns3:TrackPointExtension>
        </extensions>
      </trkpt>
      <trkpt lat="45.264489613473415374755859375" lon="-71.123879291117191314697265625">
        <ele>797.5999755859375</ele>
        <time>2026-08-22T01:36:24.000Z</time>
        <extensions>
          <ns3:TrackPointExtension>
            <ns3:hr>120</ns3:hr>
            <ns3:cad>0</ns3:cad>
          </ns3:TrackPointExtension>
        </extensions>
      </trkpt>
      <trkpt lat="45.26449061930179595947265625" lon="-71.1238935403525829315185546875">
        <ele>797.20001220703125</ele>
        <time>2026-08-22T01:36:25.000Z</time>
        <extensions>
          <ns3:TrackPointExtension>
            <ns3:hr>120</ns3:hr>
            <ns3:cad>0</ns3:cad>
          </ns3:TrackPointExtension>
        </extensions>
      </trkpt>
      <trkpt lat="45.26449187658727169036865234375" lon="-71.123910807073116302490234375">
        <ele>796.79998779296875</ele>
        <time>2026-08-22T01:36:26.000Z</time>
        <extensions>
          <ns3:TrackPointExtension>
            <ns3:hr>120</ns3:hr>
            <ns3:cad>0</ns3:cad>
          </ns3:TrackPointExtension>
        </extensions>
      </trkpt>
      <trkpt lat="45.2644951455295085906982421875" lon="-71.1239213682711124420166015625">
        <ele>796.4000244140625</ele>
        <time>2026-08-22T01:36:27.000Z</time>
        <extensions>
          <ns3:TrackPointExtension>
            <ns3:hr>120</ns3:hr>
            <ns3:cad>0</ns3:cad>
          </ns3:TrackPointExtension>
        </extensions>
      </trkpt>
      <trkpt lat="45.2644974924623966217041015625" lon="-71.12393218092620372772216796875">
        <ele>796.20001220703125</ele>
        <time>2026-08-22T01:36:28.000Z</time>
        <extensions>
          <ns3:TrackPointExtension>
            <ns3:hr>120</ns3:hr>
            <ns3:cad>0</ns3:cad>
          </ns3:TrackPointExtension>
        </extensions>
      </trkpt>
      <trkpt lat="45.26449975557625293731689453125" lon="-71.12393938936293125152587890625">
        <ele>796</ele>
        <time>2026-08-22T01:36:29.000Z</time>
        <extensions>
          <ns3:TrackPointExtension>
            <ns3:hr>120</ns3:hr>
            <ns3:cad>0</ns3:cad>
          </ns3:TrackPointExtension>
        </extensions>
      </trkpt>
      <trkpt lat="45.2645031921565532684326171875" lon="-71.12395229749381542205810546875">
        <ele>795.79998779296875</ele>
        <time>2026-08-22T01:36:30.000Z</time>
        <extensions>
          <ns3:TrackPointExtension>
            <ns3:hr>120</ns3:hr>
            <ns3:cad>0</ns3:cad>
          </ns3:TrackPointExtension>
        </extensions>
      </trkpt>
      <trkpt lat="45.26450746692717075347900390625" lon="-71.12396034412086009979248046875">
        <ele>795.4000244140625</ele>
        <time>2026-08-22T01:36:31.000Z</time>
        <extensions>
          <ns3:TrackPointExtension>
            <ns3:hr>119</ns3:hr>
            <ns3:cad>0</ns3:cad>
          </ns3:TrackPointExtension>
        </extensions>
      </trkpt>
      <trkpt lat="45.26451484300196170806884765625" lon="-71.12396772019565105438232421875">
        <ele>795.20001220703125</ele>
        <time>2026-08-22T01:36:32.000Z</time>
        <extensions>
          <ns3:TrackPointExtension>
            <ns3:hr>119</ns3:hr>
            <ns3:cad>0</ns3:cad>
          </ns3:TrackPointExtension>
        </extensions>
      </trkpt>
      <trkpt lat="45.26452272199094295501708984375" lon="-71.12397559918463230133056640625">
        <ele>795</ele>
        <time>2026-08-22T01:36:33.000Z</time>
        <extensions>
          <ns3:TrackPointExtension>
            <ns3:hr>119</ns3:hr>
            <ns3:cad>0</ns3:cad>
          </ns3:TrackPointExtension>
        </extensions>
      </trkpt>
      <trkpt lat="45.2645259909331798553466796875" lon="-71.1239837296307086944580078125">
        <ele>794.5999755859375</ele>
        <time>2026-08-22T01:36:34.000Z</time>
        <extensions>
          <ns3:TrackPointExtension>
            <ns3:hr>119</ns3:hr>
            <ns3:cad>0</ns3:cad>
          </ns3:TrackPointExtension>
        </extensions>
      </trkpt>
      <trkpt lat="45.26452959515154361724853515625" lon="-71.1239857412874698638916015625">
        <ele>794.4000244140625</ele>
        <time>2026-08-22T01:36:35.000Z</time>
        <extensions>
          <ns3:TrackPointExtension>
            <ns3:hr>120</ns3:hr>
            <ns3:cad>0</ns3:cad>
          </ns3:TrackPointExtension>
        </extensions>
      </trkpt>
      <trkpt lat="45.26453462429344654083251953125" lon="-71.1239934526383876800537109375">
        <ele>794</ele>
        <time>2026-08-22T01:36:36.000Z</time>
        <extensions>
          <ns3:TrackPointExtension>
            <ns3:hr>120</ns3:hr>
            <ns3:cad>0</ns3:cad>
          </ns3:TrackPointExtension>
        </extensions>
      </trkpt>
      <trkpt lat="45.26453797705471515655517578125" lon="-71.124000661075115203857421875">
        <ele>793.79998779296875</ele>
        <time>2026-08-22T01:36:37.000Z</time>
        <extensions>
          <ns3:TrackPointExtension>
            <ns3:hr>119</ns3:hr>
            <ns3:cad>0</ns3:cad>
          </ns3:TrackPointExtension>
        </extensions>
      </trkpt>
      <trkpt lat="45.26453730650246143341064453125" lon="-71.12400703132152557373046875">
        <ele>793.4000244140625</ele>
        <time>2026-08-22T01:36:38.000Z</time>
        <extensions>
          <ns3:TrackPointExtension>
            <ns3:hr>119</ns3:hr>
            <ns3:cad>0</ns3:cad>
          </ns3:TrackPointExtension>
        </extensions>
      </trkpt>
      <trkpt lat="45.26453864760696887969970703125" lon="-71.12401968799531459808349609375">
        <ele>792.79998779296875</ele>
        <time>2026-08-22T01:36:39.000Z</time>
        <extensions>
          <ns3:TrackPointExtension>
            <ns3:hr>119</ns3:hr>
            <ns3:cad>56</ns3:cad>
          </ns3:TrackPointExtension>
        </extensions>
      </trkpt>
      <trkpt lat="45.2645434252917766571044921875" lon="-71.12402806989848613739013671875">
        <ele>792.4000244140625</ele>
        <time>2026-08-22T01:36:40.000Z</time>
        <extensions>
          <ns3:TrackPointExtension>
            <ns3:hr>118</ns3:hr>
            <ns3:cad>56</ns3:cad>
          </ns3:TrackPointExtension>
        </extensions>
      </trkpt>
      <trkpt lat="45.26454971171915531158447265625" lon="-71.1240390501916408538818359375">
        <ele>792</ele>
        <time>2026-08-22T01:36:41.000Z</time>
        <extensions>
          <ns3:TrackPointExtension>
            <ns3:hr>118</ns3:hr>
            <ns3:cad>56</ns3:cad>
          </ns3:TrackPointExtension>
        </extensions>
      </trkpt>
      <trkpt lat="45.264553315937519073486328125" lon="-71.1240492761135101318359375">
        <ele>791.5999755859375</ele>
        <time>2026-08-22T01:36:42.000Z</time>
        <extensions>
          <ns3:TrackPointExtension>
            <ns3:hr>118</ns3:hr>
            <ns3:cad>56</ns3:cad>
          </ns3:TrackPointExtension>
        </extensions>
      </trkpt>
      <trkpt lat="45.264566726982593536376953125" lon="-71.12406444735825061798095703125">
        <ele>791.20001220703125</ele>
        <time>2026-08-22T01:36:43.000Z</time>
        <extensions>
          <ns3:TrackPointExtension>
            <ns3:hr>118</ns3:hr>
            <ns3:cad>56</ns3:cad>
          </ns3:TrackPointExtension>
        </extensions>
      </trkpt>
      <trkpt lat="45.26457552798092365264892578125" lon="-71.1240715719759464263916015625">
        <ele>790.79998779296875</ele>
        <time>2026-08-22T01:36:44.000Z</time>
        <extensions>
          <ns3:TrackPointExtension>
            <ns3:hr>118</ns3:hr>
            <ns3:cad>56</ns3:cad>
          </ns3:TrackPointExtension>
        </extensions>
      </trkpt>
      <trkpt lat="45.26458240114152431488037109375" lon="-71.1240755952894687652587890625">
        <ele>790.5999755859375</ele>
        <time>2026-08-22T01:36:45.000Z</time>
        <extensions>
          <ns3:TrackPointExtension>
            <ns3:hr>118</ns3:hr>
            <ns3:cad>56</ns3:cad>
          </ns3:TrackPointExtension>
        </extensions>
      </trkpt>
      <trkpt lat="45.26458910666406154632568359375" lon="-71.12407945096492767333984375">
        <ele>790.20001220703125</ele>
        <time>2026-08-22T01:36:46.000Z</time>
        <extensions>
          <ns3:TrackPointExtension>
            <ns3:hr>118</ns3:hr>
            <ns3:cad>0</ns3:cad>
          </ns3:TrackPointExtension>
        </extensions>
      </trkpt>
      <trkpt lat="45.2645896933972835540771484375" lon="-71.124090515077114105224609375">
        <ele>790.20001220703125</ele>
        <time>2026-08-22T01:36:47.000Z</time>
        <extensions>
          <ns3:TrackPointExtension>
            <ns3:hr>118</ns3:hr>
            <ns3:cad>0</ns3:cad>
          </ns3:TrackPointExtension>
        </extensions>
      </trkpt>
      <trkpt lat="45.26459095068275928497314453125" lon="-71.1240973882377147674560546875">
        <ele>790</ele>
        <time>2026-08-22T01:36:48.000Z</time>
        <extensions>
          <ns3:TrackPointExtension>
            <ns3:hr>118</ns3:hr>
            <ns3:cad>0</ns3:cad>
          </ns3:TrackPointExtension>
        </extensions>
      </trkpt>
      <trkpt lat="45.2645910345017910003662109375" lon="-71.12410367466509342193603515625">
        <ele>790</ele>
        <time>2026-08-22T01:36:49.000Z</time>
        <extensions>
          <ns3:TrackPointExtension>
            <ns3:hr>117</ns3:hr>
            <ns3:cad>0</ns3:cad>
          </ns3:TrackPointExtension>
        </extensions>
      </trkpt>
      <trkpt lat="45.26458986103534698486328125" lon="-71.12411507405340671539306640625">
        <ele>789.79998779296875</ele>
        <time>2026-08-22T01:36:50.000Z</time>
        <extensions>
          <ns3:TrackPointExtension>
            <ns3:hr>117</ns3:hr>
            <ns3:cad>0</ns3:cad>
          </ns3:TrackPointExtension>
        </extensions>
      </trkpt>
      <trkpt lat="45.26459514163434505462646484375" lon="-71.12412680871784687042236328125">
        <ele>789.5999755859375</ele>
        <time>2026-08-22T01:36:51.000Z</time>
        <extensions>
          <ns3:TrackPointExtension>
            <ns3:hr>117</ns3:hr>
            <ns3:cad>0</ns3:cad>
          </ns3:TrackPointExtension>
        </extensions>
      </trkpt>
      <trkpt lat="45.26460067369043827056884765625" lon="-71.124142818152904510498046875">
        <ele>789.4000244140625</ele>
        <time>2026-08-22T01:36:52.000Z</time>
        <extensions>
          <ns3:TrackPointExtension>
            <ns3:hr>116</ns3:hr>
            <ns3:cad>0</ns3:cad>
          </ns3:TrackPointExtension>
        </extensions>
      </trkpt>
      <trkpt lat="45.26460687629878520965576171875" lon="-71.12416352145373821258544921875">
        <ele>789</ele>
        <time>2026-08-22T01:36:53.000Z</time>
        <extensions>
          <ns3:TrackPointExtension>
            <ns3:hr>116</ns3:hr>
            <ns3:cad>0</ns3:cad>
          </ns3:TrackPointExtension>
        </extensions>
      </trkpt>
      <trkpt lat="45.26461224071681499481201171875" lon="-71.124179363250732421875">
        <ele>788.79998779296875</ele>
        <time>2026-08-22T01:36:54.000Z</time>
        <extensions>
          <ns3:TrackPointExtension>
            <ns3:hr>116</ns3:hr>
            <ns3:cad>0</ns3:cad>
          </ns3:TrackPointExtension>
        </extensions>
      </trkpt>
      <trkpt lat="45.26461224071681499481201171875" lon="-71.1241941154003143310546875">
        <ele>788.79998779296875</ele>
        <time>2026-08-22T01:36:55.000Z</time>
        <extensions>
          <ns3:TrackPointExtension>
            <ns3:hr>116</ns3:hr>
            <ns3:cad>0</ns3:cad>
          </ns3:TrackPointExtension>
        </extensions>
      </trkpt>
      <trkpt lat="45.2646128274500370025634765625" lon="-71.12421146593987941741943359375">
        <ele>788.5999755859375</ele>
        <time>2026-08-22T01:36:56.000Z</time>
        <extensions>
          <ns3:TrackPointExtension>
            <ns3:hr>115</ns3:hr>
            <ns3:cad>0</ns3:cad>
          </ns3:TrackPointExtension>
        </extensions>
      </trkpt>
      <trkpt lat="45.2646151743829250335693359375" lon="-71.12422873266041278839111328125">
        <ele>788.4000244140625</ele>
        <time>2026-08-22T01:36:57.000Z</time>
        <extensions>
          <ns3:TrackPointExtension>
            <ns3:hr>115</ns3:hr>
            <ns3:cad>0</ns3:cad>
          </ns3:TrackPointExtension>
        </extensions>
      </trkpt>
      <trkpt lat="45.2646205388009548187255859375" lon="-71.12425354309380054473876953125">
        <ele>788.20001220703125</ele>
        <time>2026-08-22T01:36:58.000Z</time>
        <extensions>
          <ns3:TrackPointExtension>
            <ns3:hr>115</ns3:hr>
            <ns3:cad>57</ns3:cad>
          </ns3:TrackPointExtension>
        </extensions>
      </trkpt>
      <trkpt lat="45.26462070643901824951171875" lon="-71.12426309846341609954833984375">
        <ele>788</ele>
        <time>2026-08-22T01:36:59.000Z</time>
        <extensions>
          <ns3:TrackPointExtension>
            <ns3:hr>114</ns3:hr>
            <ns3:cad>57</ns3:cad>
          </ns3:TrackPointExtension>
        </extensions>
      </trkpt>
      <trkpt lat="45.2646222151815891265869140625" lon="-71.124283969402313232421875">
        <ele>787.5999755859375</ele>
        <time>2026-08-22T01:37:00.000Z</time>
        <extensions>
          <ns3:TrackPointExtension>
            <ns3:hr>114</ns3:hr>
            <ns3:cad>0</ns3:cad>
          </ns3:TrackPointExtension>
        </extensions>
      </trkpt>
      <trkpt lat="45.2646269090473651885986328125" lon="-71.1242933571338653564453125">
        <ele>787.20001220703125</ele>
        <time>2026-08-22T01:37:01.000Z</time>
        <extensions>
          <ns3:TrackPointExtension>
            <ns3:hr>114</ns3:hr>
            <ns3:cad>0</ns3:cad>
          </ns3:TrackPointExtension>
        </extensions>
      </trkpt>
      <trkpt lat="45.26462984271347522735595703125" lon="-71.1243022419512271881103515625">
        <ele>786.79998779296875</ele>
        <time>2026-08-22T01:37:02.000Z</time>
        <extensions>
          <ns3:TrackPointExtension>
            <ns3:hr>114</ns3:hr>
            <ns3:cad>0</ns3:cad>
          </ns3:TrackPointExtension>
        </extensions>
      </trkpt>
      <trkpt lat="45.26463336311280727386474609375" lon="-71.12431489862501621246337890625">
        <ele>786.5999755859375</ele>
        <time>2026-08-22T01:37:03.000Z</time>
        <extensions>
          <ns3:TrackPointExtension>
            <ns3:hr>114</ns3:hr>
            <ns3:cad>0</ns3:cad>
          </ns3:TrackPointExtension>
        </extensions>
      </trkpt>
      <trkpt lat="45.26463537476956844329833984375" lon="-71.12432093359529972076416015625">
        <ele>786.20001220703125</ele>
        <time>2026-08-22T01:37:04.000Z</time>
        <extensions>
          <ns3:TrackPointExtension>
            <ns3:hr>114</ns3:hr>
            <ns3:cad>0</ns3:cad>
          </ns3:TrackPointExtension>
        </extensions>
      </trkpt>
      <trkpt lat="45.26463277637958526611328125" lon="-71.12432663328945636749267578125">
        <ele>786</ele>
        <time>2026-08-22T01:37:05.000Z</time>
        <extensions>
          <ns3:TrackPointExtension>
            <ns3:hr>114</ns3:hr>
            <ns3:cad>0</ns3:cad>
          </ns3:TrackPointExtension>
        </extensions>
      </trkpt>
      <trkpt lat="45.264629088342189788818359375" lon="-71.1243367753922939300537109375">
        <ele>785.5999755859375</ele>
        <time>2026-08-22T01:37:06.000Z</time>
        <extensions>
          <ns3:TrackPointExtension>
            <ns3:hr>114</ns3:hr>
            <ns3:cad>0</ns3:cad>
          </ns3:TrackPointExtension>
        </extensions>
      </trkpt>
      <trkpt lat="45.26463210582733154296875" lon="-71.12435027025640010833740234375">
        <ele>785.4000244140625</ele>
        <time>2026-08-22T01:37:07.000Z</time>
        <extensions>
          <ns3:TrackPointExtension>
            <ns3:hr>114</ns3:hr>
            <ns3:cad>0</ns3:cad>
          </ns3:TrackPointExtension>
        </extensions>
      </trkpt>
      <trkpt lat="45.2646322734653949737548828125" lon="-71.12436569295823574066162109375">
        <ele>785.20001220703125</ele>
        <time>2026-08-22T01:37:08.000Z</time>
        <extensions>
          <ns3:TrackPointExtension>
            <ns3:hr>114</ns3:hr>
            <ns3:cad>0</ns3:cad>
          </ns3:TrackPointExtension>
        </extensions>
      </trkpt>
      <trkpt lat="45.26463738642632961273193359375" lon="-71.12438262440264225006103515625">
        <ele>784.79998779296875</ele>
        <time>2026-08-22T01:37:09.000Z</time>
        <extensions>
          <ns3:TrackPointExtension>
            <ns3:hr>115</ns3:hr>
            <ns3:cad>0</ns3:cad>
          </ns3:TrackPointExtension>
        </extensions>
      </trkpt>
      <trkpt lat="45.2646414935588836669921875" lon="-71.1244031600654125213623046875">
        <ele>784.5999755859375</ele>
        <time>2026-08-22T01:37:10.000Z</time>
        <extensions>
          <ns3:TrackPointExtension>
            <ns3:hr>116</ns3:hr>
            <ns3:cad>0</ns3:cad>
          </ns3:TrackPointExtension>
        </extensions>
      </trkpt>
      <trkpt lat="45.26463923044502735137939453125" lon="-71.1244118772447109222412109375">
        <ele>784.20001220703125</ele>
        <time>2026-08-22T01:37:11.000Z</time>
        <extensions>
          <ns3:TrackPointExtension>
            <ns3:hr>116</ns3:hr>
            <ns3:cad>0</ns3:cad>
          </ns3:TrackPointExtension>
        </extensions>
      </trkpt>
      <trkpt lat="45.26463822461664676666259765625" lon="-71.12442034296691417694091796875">
        <ele>784</ele>
        <time>2026-08-22T01:37:12.000Z</time>
        <extensions>
          <ns3:TrackPointExtension>
            <ns3:hr>116</ns3:hr>
            <ns3:cad>79</ns3:cad>
          </ns3:TrackPointExtension>
        </extensions>
      </trkpt>
      <trkpt lat="45.26463939808309078216552734375" lon="-71.12442939542233943939208984375">
        <ele>783.79998779296875</ele>
        <time>2026-08-22T01:37:13.000Z</time>
        <extensions>
          <ns3:TrackPointExtension>
            <ns3:hr>117</ns3:hr>
            <ns3:cad>79</ns3:cad>
          </ns3:TrackPointExtension>
        </extensions>
      </trkpt>
      <trkpt lat="45.264640152454376220703125" lon="-71.1244400404393672943115234375">
        <ele>783.4000244140625</ele>
        <time>2026-08-22T01:37:14.000Z</time>
        <extensions>
          <ns3:TrackPointExtension>
            <ns3:hr>117</ns3:hr>
            <ns3:cad>79</ns3:cad>
          </ns3:TrackPointExtension>
        </extensions>
      </trkpt>
      <trkpt lat="45.26463906280696392059326171875" lon="-71.12445068545639514923095703125">
        <ele>783.20001220703125</ele>
        <time>2026-08-22T01:37:15.000Z</time>
        <extensions>
          <ns3:TrackPointExtension>
            <ns3:hr>118</ns3:hr>
            <ns3:cad>0</ns3:cad>
          </ns3:TrackPointExtension>
        </extensions>
      </trkpt>
      <trkpt lat="45.2646366320550441741943359375" lon="-71.1244631744921207427978515625">
        <ele>782.79998779296875</ele>
        <time>2026-08-22T01:37:16.000Z</time>
        <extensions>
          <ns3:TrackPointExtension>
            <ns3:hr>118</ns3:hr>
            <ns3:cad>0</ns3:cad>
          </ns3:TrackPointExtension>
        </extensions>
      </trkpt>
      <trkpt lat="45.26463621295988559722900390625" lon="-71.1244784295558929443359375">
        <ele>782.5999755859375</ele>
        <time>2026-08-22T01:37:17.000Z</time>
        <extensions>
          <ns3:TrackPointExtension>
            <ns3:hr>119</ns3:hr>
            <ns3:cad>0</ns3:cad>
          </ns3:TrackPointExtension>
        </extensions>
      </trkpt>
      <trkpt lat="45.264635793864727020263671875" lon="-71.12448739819228649139404296875">
        <ele>782.20001220703125</ele>
        <time>2026-08-22T01:37:18.000Z</time>
        <extensions>
          <ns3:TrackPointExtension>
            <ns3:hr>119</ns3:hr>
            <ns3:cad>0</ns3:cad>
          </ns3:TrackPointExtension>
        </extensions>
      </trkpt>
      <trkpt lat="45.26463814079761505126953125" lon="-71.12449125386774539947509765625">
        <ele>782</ele>
        <time>2026-08-22T01:37:19.000Z</time>
        <extensions>
          <ns3:TrackPointExtension>
            <ns3:hr>118</ns3:hr>
            <ns3:cad>0</ns3:cad>
          </ns3:TrackPointExtension>
        </extensions>
      </trkpt>
      <trkpt lat="45.2646366320550441741943359375" lon="-71.12450458109378814697265625">
        <ele>781.79998779296875</ele>
        <time>2026-08-22T01:37:20.000Z</time>
        <extensions>
          <ns3:TrackPointExtension>
            <ns3:hr>118</ns3:hr>
            <ns3:cad>0</ns3:cad>
          </ns3:TrackPointExtension>
        </extensions>
      </trkpt>
      <trkpt lat="45.26463621295988559722900390625" lon="-71.12451522611081600189208984375">
        <ele>781.5999755859375</ele>
        <time>2026-08-22T01:37:21.000Z</time>
        <extensions>
          <ns3:TrackPointExtension>
            <ns3:hr>117</ns3:hr>
            <ns3:cad>0</ns3:cad>
          </ns3:TrackPointExtension>
        </extensions>
      </trkpt>
      <trkpt lat="45.26463143527507781982421875" lon="-71.12452335655689239501953125">
        <ele>781.20001220703125</ele>
        <time>2026-08-22T01:37:22.000Z</time>
        <extensions>
          <ns3:TrackPointExtension>
            <ns3:hr>115</ns3:hr>
            <ns3:cad>0</ns3:cad>
          </ns3:TrackPointExtension>
        </extensions>
      </trkpt>
      <trkpt lat="45.26462447829544544219970703125" lon="-71.1245292238891124725341796875">
        <ele>781</ele>
        <time>2026-08-22T01:37:23.000Z</time>
        <extensions>
          <ns3:TrackPointExtension>
            <ns3:hr>115</ns3:hr>
            <ns3:cad>0</ns3:cad>
          </ns3:TrackPointExtension>
        </extensions>
      </trkpt>
      <trkpt lat="45.26462179608643054962158203125" lon="-71.1245347559452056884765625">
        <ele>780.79998779296875</ele>
        <time>2026-08-22T01:37:24.000Z</time>
        <extensions>
          <ns3:TrackPointExtension>
            <ns3:hr>114</ns3:hr>
            <ns3:cad>53</ns3:cad>
          </ns3:TrackPointExtension>
        </extensions>
      </trkpt>
      <trkpt lat="45.26461693458259105682373046875" lon="-71.124546490609645843505859375">
        <ele>780.5999755859375</ele>
        <time>2026-08-22T01:37:25.000Z</time>
        <extensions>
          <ns3:TrackPointExtension>
            <ns3:hr>114</ns3:hr>
            <ns3:cad>53</ns3:cad>
          </ns3:TrackPointExtension>
        </extensions>
      </trkpt>
      <trkpt lat="45.26461274363100528717041015625" lon="-71.124559231102466583251953125">
        <ele>780.20001220703125</ele>
        <time>2026-08-22T01:37:26.000Z</time>
        <extensions>
          <ns3:TrackPointExtension>
            <ns3:hr>114</ns3:hr>
            <ns3:cad>53</ns3:cad>
          </ns3:TrackPointExtension>
        </extensions>
      </trkpt>
      <trkpt lat="45.2646081335842609405517578125" lon="-71.124566607177257537841796875">
        <ele>780</ele>
        <time>2026-08-22T01:37:27.000Z</time>
        <extensions>
          <ns3:TrackPointExtension>
            <ns3:hr>113</ns3:hr>
            <ns3:cad>57</ns3:cad>
          </ns3:TrackPointExtension>
        </extensions>
      </trkpt>
      <trkpt lat="45.26461341418325901031494140625" lon="-71.124576665461063385009765625">
        <ele>780</ele>
        <time>2026-08-22T01:37:28.000Z</time>
        <extensions>
          <ns3:TrackPointExtension>
            <ns3:hr>114</ns3:hr>
            <ns3:cad>57</ns3:cad>
          </ns3:TrackPointExtension>
        </extensions>
      </trkpt>
      <trkpt lat="45.264615677297115325927734375" lon="-71.1245828680694103240966796875">
        <ele>779.79998779296875</ele>
        <time>2026-08-22T01:37:29.000Z</time>
        <extensions>
          <ns3:TrackPointExtension>
            <ns3:hr>114</ns3:hr>
            <ns3:cad>57</ns3:cad>
          </ns3:TrackPointExtension>
        </extensions>
      </trkpt>
      <trkpt lat="45.26462045498192310333251953125" lon="-71.12458513118326663970947265625">
        <ele>779.79998779296875</ele>
        <time>2026-08-22T01:37:30.000Z</time>
        <extensions>
          <ns3:TrackPointExtension>
            <ns3:hr>113</ns3:hr>
            <ns3:cad>57</ns3:cad>
          </ns3:TrackPointExtension>
        </extensions>
      </trkpt>
      <trkpt lat="45.264623053371906280517578125" lon="-71.1245889030396938323974609375">
        <ele>779.79998779296875</ele>
        <time>2026-08-22T01:37:31.000Z</time>
        <extensions>
          <ns3:TrackPointExtension>
            <ns3:hr>114</ns3:hr>
            <ns3:cad>57</ns3:cad>
          </ns3:TrackPointExtension>
        </extensions>
      </trkpt>
      <trkpt lat="45.26462129317224025726318359375" lon="-71.12459384836256504058837890625">
        <ele>779.5999755859375</ele>
        <time>2026-08-22T01:37:32.000Z</time>
        <extensions>
          <ns3:TrackPointExtension>
            <ns3:hr>114</ns3:hr>
            <ns3:cad>0</ns3:cad>
          </ns3:TrackPointExtension>
        </extensions>
      </trkpt>
      <trkpt lat="45.26461995206773281097412109375" lon="-71.12459351308643817901611328125">
        <ele>779.5999755859375</ele>
        <time>2026-08-22T01:37:33.000Z</time>
        <extensions>
          <ns3:TrackPointExtension>
            <ns3:hr>114</ns3:hr>
            <ns3:cad>0</ns3:cad>
          </ns3:TrackPointExtension>
        </extensions>
      </trkpt>
      <trkpt lat="45.26462070643901824951171875" lon="-71.12459736876189708709716796875">
        <ele>779.5999755859375</ele>
        <time>2026-08-22T01:37:34.000Z</time>
        <extensions>
          <ns3:TrackPointExtension>
            <ns3:hr>113</ns3:hr>
            <ns3:cad>0</ns3:cad>
          </ns3:TrackPointExtension>
        </extensions>
      </trkpt>
      <trkpt lat="45.264625735580921173095703125" lon="-71.1246117018163204193115234375">
        <ele>779.5999755859375</ele>
        <time>2026-08-22T01:37:35.000Z</time>
        <extensions>
          <ns3:TrackPointExtension>
            <ns3:hr>114</ns3:hr>
            <ns3:cad>0</ns3:cad>
          </ns3:TrackPointExtension>
        </extensions>
      </trkpt>
      <trkpt lat="45.26463168673217296600341796875" lon="-71.12462469376623630523681640625">
        <ele>779.4000244140625</ele>
        <time>2026-08-22T01:37:36.000Z</time>
        <extensions>
          <ns3:TrackPointExtension>
            <ns3:hr>113</ns3:hr>
            <ns3:cad>0</ns3:cad>
          </ns3:TrackPointExtension>
        </extensions>
      </trkpt>
      <trkpt lat="45.26463302783668041229248046875" lon="-71.12463357858359813690185546875">
        <ele>779</ele>
        <time>2026-08-22T01:37:37.000Z</time>
        <extensions>
          <ns3:TrackPointExtension>
            <ns3:hr>113</ns3:hr>
            <ns3:cad>0</ns3:cad>
          </ns3:TrackPointExtension>
        </extensions>
      </trkpt>
      <trkpt lat="45.26462699286639690399169921875" lon="-71.1246462352573871612548828125">
        <ele>778.5999755859375</ele>
        <time>2026-08-22T01:37:38.000Z</time>
        <extensions>
          <ns3:TrackPointExtension>
            <ns3:hr>112</ns3:hr>
            <ns3:cad>0</ns3:cad>
          </ns3:TrackPointExtension>
        </extensions>
      </trkpt>
      <trkpt lat="45.26462581939995288848876953125" lon="-71.1246522702276706695556640625">
        <ele>778.20001220703125</ele>
        <time>2026-08-22T01:37:39.000Z</time>
        <extensions>
          <ns3:TrackPointExtension>
            <ns3:hr>111</ns3:hr>
            <ns3:cad>0</ns3:cad>
          </ns3:TrackPointExtension>
        </extensions>
      </trkpt>
      <trkpt lat="45.26462146081030368804931640625" lon="-71.12466257996857166290283203125">
        <ele>777.79998779296875</ele>
        <time>2026-08-22T01:37:40.000Z</time>
        <extensions>
          <ns3:TrackPointExtension>
            <ns3:hr>110</ns3:hr>
            <ns3:cad>0</ns3:cad>
          </ns3:TrackPointExtension>
        </extensions>
      </trkpt>
      <trkpt lat="45.26461978442966938018798828125" lon="-71.1246688663959503173828125">
        <ele>777.4000244140625</ele>
        <time>2026-08-22T01:37:41.000Z</time>
        <extensions>
          <ns3:TrackPointExtension>
            <ns3:hr>110</ns3:hr>
            <ns3:cad>63</ns3:cad>
          </ns3:TrackPointExtension>
        </extensions>
      </trkpt>
      <trkpt lat="45.26461224071681499481201171875" lon="-71.12467716448009014129638671875">
        <ele>777</ele>
        <time>2026-08-22T01:37:42.000Z</time>
        <extensions>
          <ns3:TrackPointExtension>
            <ns3:hr>111</ns3:hr>
            <ns3:cad>63</ns3:cad>
          </ns3:TrackPointExtension>
        </extensions>
      </trkpt>
      <trkpt lat="45.2646054513752460479736328125" lon="-71.1246831156313419342041015625">
        <ele>776.5999755859375</ele>
        <time>2026-08-22T01:37:43.000Z</time>
        <extensions>
          <ns3:TrackPointExtension>
            <ns3:hr>112</ns3:hr>
            <ns3:cad>65</ns3:cad>
          </ns3:TrackPointExtension>
        </extensions>
      </trkpt>
      <trkpt lat="45.2645974047482013702392578125" lon="-71.1246894858777523040771484375">
        <ele>776.20001220703125</ele>
        <time>2026-08-22T01:37:44.000Z</time>
        <extensions>
          <ns3:TrackPointExtension>
            <ns3:hr>113</ns3:hr>
            <ns3:cad>65</ns3:cad>
          </ns3:TrackPointExtension>
        </extensions>
      </trkpt>
      <trkpt lat="45.26458608917891979217529296875" lon="-71.12469392828643321990966796875">
        <ele>775.79998779296875</ele>
        <time>2026-08-22T01:37:45.000Z</time>
        <extensions>
          <ns3:TrackPointExtension>
            <ns3:hr>115</ns3:hr>
            <ns3:cad>65</ns3:cad>
          </ns3:TrackPointExtension>
        </extensions>
      </trkpt>
      <trkpt lat="45.2645839937031269073486328125" lon="-71.12468990497291088104248046875">
        <ele>775.5999755859375</ele>
        <time>2026-08-22T01:37:46.000Z</time>
        <extensions>
          <ns3:TrackPointExtension>
            <ns3:hr>116</ns3:hr>
            <ns3:cad>0</ns3:cad>
          </ns3:TrackPointExtension>
        </extensions>
      </trkpt>
      <trkpt lat="45.26457351632416248321533203125" lon="-71.12469208426773548126220703125">
        <ele>775.4000244140625</ele>
        <time>2026-08-22T01:37:47.000Z</time>
        <extensions>
          <ns3:TrackPointExtension>
            <ns3:hr>117</ns3:hr>
            <ns3:cad>0</ns3:cad>
          </ns3:TrackPointExtension>
        </extensions>
      </trkpt>
      <trkpt lat="45.264562703669071197509765625" lon="-71.12469610758125782012939453125">
        <ele>775.4000244140625</ele>
        <time>2026-08-22T01:37:48.000Z</time>
        <extensions>
          <ns3:TrackPointExtension>
            <ns3:hr>117</ns3:hr>
            <ns3:cad>44</ns3:cad>
          </ns3:TrackPointExtension>
        </extensions>
      </trkpt>
      <trkpt lat="45.26455021463334560394287109375" lon="-71.1247002147138118743896484375">
        <ele>775.20001220703125</ele>
        <time>2026-08-22T01:37:49.000Z</time>
        <extensions>
          <ns3:TrackPointExtension>
            <ns3:hr>118</ns3:hr>
            <ns3:cad>44</ns3:cad>
          </ns3:TrackPointExtension>
        </extensions>
      </trkpt>
      <trkpt lat="45.2645414136350154876708984375" lon="-71.1247015558183193206787109375">
        <ele>775</ele>
        <time>2026-08-22T01:37:50.000Z</time>
        <extensions>
          <ns3:TrackPointExtension>
            <ns3:hr>118</ns3:hr>
            <ns3:cad>60</ns3:cad>
          </ns3:TrackPointExtension>
        </extensions>
      </trkpt>
      <trkpt lat="45.26452842168509960174560546875" lon="-71.124706752598285675048828125">
        <ele>774.79998779296875</ele>
        <time>2026-08-22T01:37:51.000Z</time>
        <extensions>
          <ns3:TrackPointExtension>
            <ns3:hr>118</ns3:hr>
            <ns3:cad>60</ns3:cad>
          </ns3:TrackPointExtension>
        </extensions>
      </trkpt>
      <trkpt lat="45.26451551355421543121337890625" lon="-71.12471220083534717559814453125">
        <ele>774.5999755859375</ele>
        <time>2026-08-22T01:37:52.000Z</time>
        <extensions>
          <ns3:TrackPointExtension>
            <ns3:hr>117</ns3:hr>
            <ns3:cad>60</ns3:cad>
          </ns3:TrackPointExtension>
        </extensions>
      </trkpt>
      <trkpt lat="45.26450377888977527618408203125" lon="-71.1247213371098041534423828125">
        <ele>774.4000244140625</ele>
        <time>2026-08-22T01:37:53.000Z</time>
        <extensions>
          <ns3:TrackPointExtension>
            <ns3:hr>117</ns3:hr>
            <ns3:cad>0</ns3:cad>
          </ns3:TrackPointExtension>
        </extensions>
      </trkpt>
      <trkpt lat="45.26448936201632022857666015625" lon="-71.12472695298492908477783203125">
        <ele>774.20001220703125</ele>
        <time>2026-08-22T01:37:54.000Z</time>
        <extensions>
          <ns3:TrackPointExtension>
            <ns3:hr>118</ns3:hr>
            <ns3:cad>0</ns3:cad>
          </ns3:TrackPointExtension>
        </extensions>
      </trkpt>
      <trkpt lat="45.264479555189609527587890625" lon="-71.1247327364981174468994140625">
        <ele>774</ele>
        <time>2026-08-22T01:37:55.000Z</time>
        <extensions>
          <ns3:TrackPointExtension>
            <ns3:hr>118</ns3:hr>
            <ns3:cad>0</ns3:cad>
          </ns3:TrackPointExtension>
        </extensions>
      </trkpt>
      <trkpt lat="45.26446513831615447998046875" lon="-71.12475394271314144134521484375">
        <ele>773.5999755859375</ele>
        <time>2026-08-22T01:37:56.000Z</time>
        <extensions>
          <ns3:TrackPointExtension>
            <ns3:hr>118</ns3:hr>
            <ns3:cad>0</ns3:cad>
          </ns3:TrackPointExtension>
        </extensions>
      </trkpt>
      <trkpt lat="45.26445935480296611785888671875" lon="-71.12477087415754795074462890625">
        <ele>773.20001220703125</ele>
        <time>2026-08-22T01:37:57.000Z</time>
        <extensions>
          <ns3:TrackPointExtension>
            <ns3:hr>118</ns3:hr>
            <ns3:cad>0</ns3:cad>
          </ns3:TrackPointExtension>
        </extensions>
      </trkpt>
      <trkpt lat="45.26445633731782436370849609375" lon="-71.1247883923351764678955078125">
        <ele>772.79998779296875</ele>
        <time>2026-08-22T01:37:58.000Z</time>
        <extensions>
          <ns3:TrackPointExtension>
            <ns3:hr>118</ns3:hr>
            <ns3:cad>0</ns3:cad>
          </ns3:TrackPointExtension>
        </extensions>
      </trkpt>
      <trkpt lat="45.264448039233684539794921875" lon="-71.1248081736266613006591796875">
        <ele>772.4000244140625</ele>
        <time>2026-08-22T01:37:59.000Z</time>
        <extensions>
          <ns3:TrackPointExtension>
            <ns3:hr>118</ns3:hr>
            <ns3:cad>0</ns3:cad>
          </ns3:TrackPointExtension>
        </extensions>
      </trkpt>
      <trkpt lat="45.26444326154887676239013671875" lon="-71.12482720054686069488525390625">
        <ele>772</ele>
        <time>2026-08-22T01:38:00.000Z</time>
        <extensions>
          <ns3:TrackPointExtension>
            <ns3:hr>117</ns3:hr>
            <ns3:cad>0</ns3:cad>
          </ns3:TrackPointExtension>
        </extensions>
      </trkpt>
      <trkpt lat="45.26443923823535442352294921875" lon="-71.12484614364802837371826171875">
        <ele>771.5999755859375</ele>
        <time>2026-08-22T01:38:01.000Z</time>
        <extensions>
          <ns3:TrackPointExtension>
            <ns3:hr>117</ns3:hr>
            <ns3:cad>0</ns3:cad>
          </ns3:TrackPointExtension>
        </extensions>
      </trkpt>
      <trkpt lat="45.264435969293117523193359375" lon="-71.12486156634986400604248046875">
        <ele>771.20001220703125</ele>
        <time>2026-08-22T01:38:02.000Z</time>
        <extensions>
          <ns3:TrackPointExtension>
            <ns3:hr>117</ns3:hr>
            <ns3:cad>0</ns3:cad>
          </ns3:TrackPointExtension>
        </extensions>
      </trkpt>
      <trkpt lat="45.26442800648510456085205078125" lon="-71.12487833015620708465576171875">
        <ele>770.79998779296875</ele>
        <time>2026-08-22T01:38:03.000Z</time>
        <extensions>
          <ns3:TrackPointExtension>
            <ns3:hr>117</ns3:hr>
            <ns3:cad>0</ns3:cad>
          </ns3:TrackPointExtension>
        </extensions>
      </trkpt>
      <trkpt lat="45.26442247442901134490966796875" lon="-71.12488654442131519317626953125">
        <ele>770.4000244140625</ele>
        <time>2026-08-22T01:38:04.000Z</time>
        <extensions>
          <ns3:TrackPointExtension>
            <ns3:hr>117</ns3:hr>
            <ns3:cad>0</ns3:cad>
          </ns3:TrackPointExtension>
        </extensions>
      </trkpt>
      <trkpt lat="45.26441560126841068267822265625" lon="-71.12490062601864337921142578125">
        <ele>770.20001220703125</ele>
        <time>2026-08-22T01:38:05.000Z</time>
        <extensions>
          <ns3:TrackPointExtension>
            <ns3:hr>117</ns3:hr>
            <ns3:cad>0</ns3:cad>
          </ns3:TrackPointExtension>
        </extensions>
      </trkpt>
      <trkpt lat="45.26441283524036407470703125" lon="-71.12491504289209842681884765625">
        <ele>769.79998779296875</ele>
        <time>2026-08-22T01:38:06.000Z</time>
        <extensions>
          <ns3:TrackPointExtension>
            <ns3:hr>117</ns3:hr>
            <ns3:cad>0</ns3:cad>
          </ns3:TrackPointExtension>
        </extensions>
      </trkpt>
      <trkpt lat="45.26440822519361972808837890625" lon="-71.124926023185253143310546875">
        <ele>769.5999755859375</ele>
        <time>2026-08-22T01:38:07.000Z</time>
        <extensions>
          <ns3:TrackPointExtension>
            <ns3:hr>116</ns3:hr>
            <ns3:cad>0</ns3:cad>
          </ns3:TrackPointExtension>
        </extensions>
      </trkpt>
      <trkpt lat="45.26440353132784366607666015625" lon="-71.1249317228794097900390625">
        <ele>769.20001220703125</ele>
        <time>2026-08-22T01:38:08.000Z</time>
        <extensions>
          <ns3:TrackPointExtension>
            <ns3:hr>116</ns3:hr>
            <ns3:cad>0</ns3:cad>
          </ns3:TrackPointExtension>
        </extensions>
      </trkpt>
      <trkpt lat="45.264393389225006103515625" lon="-71.12494169734418392181396484375">
        <ele>769</ele>
        <time>2026-08-22T01:38:09.000Z</time>
        <extensions>
          <ns3:TrackPointExtension>
            <ns3:hr>116</ns3:hr>
            <ns3:cad>0</ns3:cad>
          </ns3:TrackPointExtension>
        </extensions>
      </trkpt>
      <trkpt lat="45.26437805034220218658447265625" lon="-71.1249513365328311920166015625">
        <ele>768.5999755859375</ele>
        <time>2026-08-22T01:38:10.000Z</time>
        <extensions>
          <ns3:TrackPointExtension>
            <ns3:hr>116</ns3:hr>
            <ns3:cad>0</ns3:cad>
          </ns3:TrackPointExtension>
        </extensions>
      </trkpt>
      <trkpt lat="45.26436748914420604705810546875" lon="-71.12496315501630306243896484375">
        <ele>768</ele>
        <time>2026-08-22T01:38:11.000Z</time>
        <extensions>
          <ns3:TrackPointExtension>
            <ns3:hr>117</ns3:hr>
            <ns3:cad>0</ns3:cad>
          </ns3:TrackPointExtension>
        </extensions>
      </trkpt>
      <trkpt lat="45.2643583528697490692138671875" lon="-71.12498410977423191070556640625">
        <ele>767.5999755859375</ele>
        <time>2026-08-22T01:38:12.000Z</time>
        <extensions>
          <ns3:TrackPointExtension>
            <ns3:hr>117</ns3:hr>
            <ns3:cad>0</ns3:cad>
          </ns3:TrackPointExtension>
        </extensions>
      </trkpt>
      <trkpt lat="45.26435784995555877685546875" lon="-71.1250054836273193359375">
        <ele>767.20001220703125</ele>
        <time>2026-08-22T01:38:13.000Z</time>
        <extensions>
          <ns3:TrackPointExtension>
            <ns3:hr>117</ns3:hr>
            <ns3:cad>0</ns3:cad>
          </ns3:TrackPointExtension>
        </extensions>
      </trkpt>
      <trkpt lat="45.26435558684170246124267578125" lon="-71.12502585165202617645263671875">
        <ele>766.79998779296875</ele>
        <time>2026-08-22T01:38:14.000Z</time>
        <extensions>
          <ns3:TrackPointExtension>
            <ns3:hr>117</ns3:hr>
            <ns3:cad>0</ns3:cad>
          </ns3:TrackPointExtension>
        </extensions>
      </trkpt>
      <trkpt lat="45.264353491365909576416015625" lon="-71.12504110671579837799072265625">
        <ele>766.5999755859375</ele>
        <time>2026-08-22T01:38:15.000Z</time>
        <extensions>
          <ns3:TrackPointExtension>
            <ns3:hr>117</ns3:hr>
            <ns3:cad>0</ns3:cad>
          </ns3:TrackPointExtension>
        </extensions>
      </trkpt>
      <trkpt lat="45.26435139589011669158935546875" lon="-71.12505971454083919525146484375">
        <ele>766.4000244140625</ele>
        <time>2026-08-22T01:38:16.000Z</time>
        <extensions>
          <ns3:TrackPointExtension>
            <ns3:hr>117</ns3:hr>
            <ns3:cad>0</ns3:cad>
          </ns3:TrackPointExtension>
        </extensions>
      </trkpt>
      <trkpt lat="45.264348797500133514404296875" lon="-71.1250738799571990966796875">
        <ele>766.20001220703125</ele>
        <time>2026-08-22T01:38:17.000Z</time>
        <extensions>
          <ns3:TrackPointExtension>
            <ns3:hr>117</ns3:hr>
            <ns3:cad>0</ns3:cad>
          </ns3:TrackPointExtension>
        </extensions>
      </trkpt>
      <trkpt lat="45.26433915831148624420166015625" lon="-71.12509173341095447540283203125">
        <ele>766</ele>
        <time>2026-08-22T01:38:18.000Z</time>
        <extensions>
          <ns3:TrackPointExtension>
            <ns3:hr>117</ns3:hr>
            <ns3:cad>0</ns3:cad>
          </ns3:TrackPointExtension>
        </extensions>
      </trkpt>
      <trkpt lat="45.26433345861732959747314453125" lon="-71.12510900013148784637451171875">
        <ele>765.5999755859375</ele>
        <time>2026-08-22T01:38:19.000Z</time>
        <extensions>
          <ns3:TrackPointExtension>
            <ns3:hr>117</ns3:hr>
            <ns3:cad>0</ns3:cad>
          </ns3:TrackPointExtension>
        </extensions>
      </trkpt>
      <trkpt lat="45.26432725600898265838623046875" lon="-71.1251199804246425628662109375">
        <ele>765.20001220703125</ele>
        <time>2026-08-22T01:38:20.000Z</time>
        <extensions>
          <ns3:TrackPointExtension>
            <ns3:hr>117</ns3:hr>
            <ns3:cad>0</ns3:cad>
          </ns3:TrackPointExtension>
        </extensions>
      </trkpt>
      <trkpt lat="45.2643157728016376495361328125" lon="-71.12513448111712932586669921875">
        <ele>765</ele>
        <time>2026-08-22T01:38:21.000Z</time>
        <extensions>
          <ns3:TrackPointExtension>
            <ns3:hr>117</ns3:hr>
            <ns3:cad>0</ns3:cad>
          </ns3:TrackPointExtension>
        </extensions>
      </trkpt>
      <trkpt lat="45.2643097378313541412353515625" lon="-71.12515032291412353515625">
        <ele>764.5999755859375</ele>
        <time>2026-08-22T01:38:22.000Z</time>
        <extensions>
          <ns3:TrackPointExtension>
            <ns3:hr>117</ns3:hr>
            <ns3:cad>0</ns3:cad>
          </ns3:TrackPointExtension>
        </extensions>
      </trkpt>
      <trkpt lat="45.2643035352230072021484375" lon="-71.12516901455819606781005859375">
        <ele>764.20001220703125</ele>
        <time>2026-08-22T01:38:23.000Z</time>
        <extensions>
          <ns3:TrackPointExtension>
            <ns3:hr>116</ns3:hr>
            <ns3:cad>0</ns3:cad>
          </ns3:TrackPointExtension>
        </extensions>
      </trkpt>
      <trkpt lat="45.26429657824337482452392578125" lon="-71.12517940811812877655029296875">
        <ele>764</ele>
        <time>2026-08-22T01:38:24.000Z</time>
        <extensions>
          <ns3:TrackPointExtension>
            <ns3:hr>116</ns3:hr>
            <ns3:cad>0</ns3:cad>
          </ns3:TrackPointExtension>
        </extensions>
      </trkpt>
      <trkpt lat="45.26429121382534503936767578125" lon="-71.12518041394650936126708984375">
        <ele>763.5999755859375</ele>
        <time>2026-08-22T01:38:25.000Z</time>
        <extensions>
          <ns3:TrackPointExtension>
            <ns3:hr>116</ns3:hr>
            <ns3:cad>0</ns3:cad>
          </ns3:TrackPointExtension>
        </extensions>
      </trkpt>
      <trkpt lat="45.26428249664604663848876953125" lon="-71.12517437897622585296630859375">
        <ele>763.20001220703125</ele>
        <time>2026-08-22T01:38:26.000Z</time>
        <extensions>
          <ns3:TrackPointExtension>
            <ns3:hr>116</ns3:hr>
            <ns3:cad>0</ns3:cad>
          </ns3:TrackPointExtension>
        </extensions>
      </trkpt>
      <trkpt lat="45.2642768807709217071533203125" lon="-71.125169433653354644775390625">
        <ele>762.79998779296875</ele>
        <time>2026-08-22T01:38:27.000Z</time>
        <extensions>
          <ns3:TrackPointExtension>
            <ns3:hr>116</ns3:hr>
            <ns3:cad>0</ns3:cad>
          </ns3:TrackPointExtension>
        </extensions>
      </trkpt>
      <trkpt lat="45.2642594464123249053955078125" lon="-71.125164739787578582763671875">
        <ele>762.4000244140625</ele>
        <time>2026-08-22T01:38:28.000Z</time>
        <extensions>
          <ns3:TrackPointExtension>
            <ns3:hr>116</ns3:hr>
            <ns3:cad>0</ns3:cad>
          </ns3:TrackPointExtension>
        </extensions>
      </trkpt>
      <trkpt lat="45.26424528099596500396728515625" lon="-71.12516314722597599029541015625">
        <ele>762</ele>
        <time>2026-08-22T01:38:29.000Z</time>
        <extensions>
          <ns3:TrackPointExtension>
            <ns3:hr>116</ns3:hr>
            <ns3:cad>0</ns3:cad>
          </ns3:TrackPointExtension>
        </extensions>
      </trkpt>
      <trkpt lat="45.26423471979796886444091796875" lon="-71.12517069093883037567138671875">
        <ele>761.5999755859375</ele>
        <time>2026-08-22T01:38:30.000Z</time>
        <extensions>
          <ns3:TrackPointExtension>
            <ns3:hr>115</ns3:hr>
            <ns3:cad>0</ns3:cad>
          </ns3:TrackPointExtension>
        </extensions>
      </trkpt>
      <trkpt lat="45.264227092266082763671875" lon="-71.125178821384906768798828125">
        <ele>761</ele>
        <time>2026-08-22T01:38:31.000Z</time>
        <extensions>
          <ns3:TrackPointExtension>
            <ns3:hr>116</ns3:hr>
            <ns3:cad>0</ns3:cad>
          </ns3:TrackPointExtension>
        </extensions>
      </trkpt>
      <trkpt lat="45.26421711780130863189697265625" lon="-71.1251853592693805694580078125">
        <ele>760.79998779296875</ele>
        <time>2026-08-22T01:38:32.000Z</time>
        <extensions>
          <ns3:TrackPointExtension>
            <ns3:hr>116</ns3:hr>
            <ns3:cad>0</ns3:cad>
          </ns3:TrackPointExtension>
        </extensions>
      </trkpt>
      <trkpt lat="45.2642123401165008544921875" lon="-71.1251810006797313690185546875">
        <ele>760.4000244140625</ele>
        <time>2026-08-22T01:38:33.000Z</time>
        <extensions>
          <ns3:TrackPointExtension>
            <ns3:hr>115</ns3:hr>
            <ns3:cad>0</ns3:cad>
          </ns3:TrackPointExtension>
        </extensions>
      </trkpt>
      <trkpt lat="45.264208652079105377197265625" lon="-71.12517991103231906890869140625">
        <ele>760.20001220703125</ele>
        <time>2026-08-22T01:38:34.000Z</time>
        <extensions>
          <ns3:TrackPointExtension>
            <ns3:hr>116</ns3:hr>
            <ns3:cad>0</ns3:cad>
          </ns3:TrackPointExtension>
        </extensions>
      </trkpt>
      <trkpt lat="45.26419700123369693756103515625" lon="-71.12518091686069965362548828125">
        <ele>760.20001220703125</ele>
        <time>2026-08-22T01:38:35.000Z</time>
        <extensions>
          <ns3:TrackPointExtension>
            <ns3:hr>116</ns3:hr>
            <ns3:cad>0</ns3:cad>
          </ns3:TrackPointExtension>
        </extensions>
      </trkpt>
      <trkpt lat="45.26418962515890598297119140625" lon="-71.12517622299492359161376953125">
        <ele>760</ele>
        <time>2026-08-22T01:38:36.000Z</time>
        <extensions>
          <ns3:TrackPointExtension>
            <ns3:hr>116</ns3:hr>
            <ns3:cad>0</ns3:cad>
          </ns3:TrackPointExtension>
        </extensions>
      </trkpt>
      <trkpt lat="45.26418442837893962860107421875" lon="-71.12517622299492359161376953125">
        <ele>760</ele>
        <time>2026-08-22T01:38:37.000Z</time>
        <extensions>
          <ns3:TrackPointExtension>
            <ns3:hr>116</ns3:hr>
            <ns3:cad>0</ns3:cad>
          </ns3:TrackPointExtension>
        </extensions>
      </trkpt>
      <trkpt lat="45.264179147779941558837890625" lon="-71.12518007867038249969482421875">
        <ele>759.79998779296875</ele>
        <time>2026-08-22T01:38:38.000Z</time>
        <extensions>
          <ns3:TrackPointExtension>
            <ns3:hr>116</ns3:hr>
            <ns3:cad>0</ns3:cad>
          </ns3:TrackPointExtension>
        </extensions>
      </trkpt>
      <trkpt lat="45.2641655690968036651611328125" lon="-71.12518343143165111541748046875">
        <ele>759.5999755859375</ele>
        <time>2026-08-22T01:38:39.000Z</time>
        <extensions>
          <ns3:TrackPointExtension>
            <ns3:hr>116</ns3:hr>
            <ns3:cad>0</ns3:cad>
          </ns3:TrackPointExtension>
        </extensions>
      </trkpt>
      <trkpt lat="45.26415525935590267181396484375" lon="-71.1251873709261417388916015625">
        <ele>759.4000244140625</ele>
        <time>2026-08-22T01:38:40.000Z</time>
        <extensions>
          <ns3:TrackPointExtension>
            <ns3:hr>116</ns3:hr>
            <ns3:cad>0</ns3:cad>
          </ns3:TrackPointExtension>
        </extensions>
      </trkpt>
      <trkpt lat="45.2641479671001434326171875" lon="-71.1251945793628692626953125">
        <ele>759</ele>
        <time>2026-08-22T01:38:41.000Z</time>
        <extensions>
          <ns3:TrackPointExtension>
            <ns3:hr>117</ns3:hr>
            <ns3:cad>0</ns3:cad>
          </ns3:TrackPointExtension>
        </extensions>
      </trkpt>
      <trkpt lat="45.2641424350440502166748046875" lon="-71.12519918940961360931396484375">
        <ele>758.79998779296875</ele>
        <time>2026-08-22T01:38:42.000Z</time>
        <extensions>
          <ns3:TrackPointExtension>
            <ns3:hr>117</ns3:hr>
            <ns3:cad>0</ns3:cad>
          </ns3:TrackPointExtension>
        </extensions>
      </trkpt>
      <trkpt lat="45.26413120329380035400390625" lon="-71.12520405091345310211181640625">
        <ele>758.4000244140625</ele>
        <time>2026-08-22T01:38:43.000Z</time>
        <extensions>
          <ns3:TrackPointExtension>
            <ns3:hr>117</ns3:hr>
            <ns3:cad>0</ns3:cad>
          </ns3:TrackPointExtension>
        </extensions>
      </trkpt>
      <trkpt lat="45.2641233243048191070556640625" lon="-71.12520757131278514862060546875">
        <ele>758</ele>
        <time>2026-08-22T01:38:44.000Z</time>
        <extensions>
          <ns3:TrackPointExtension>
            <ns3:hr>116</ns3:hr>
            <ns3:cad>0</ns3:cad>
          </ns3:TrackPointExtension>
        </extensions>
      </trkpt>
      <trkpt lat="45.26411184109747409820556640625" lon="-71.1252118460834026336669921875">
        <ele>757.5999755859375</ele>
        <time>2026-08-22T01:38:45.000Z</time>
        <extensions>
          <ns3:TrackPointExtension>
            <ns3:hr>117</ns3:hr>
            <ns3:cad>0</ns3:cad>
          </ns3:TrackPointExtension>
        </extensions>
      </trkpt>
      <trkpt lat="45.26409926824271678924560546875" lon="-71.12522433511912822723388671875">
        <ele>757.20001220703125</ele>
        <time>2026-08-22T01:38:46.000Z</time>
        <extensions>
          <ns3:TrackPointExtension>
            <ns3:hr>117</ns3:hr>
            <ns3:cad>0</ns3:cad>
          </ns3:TrackPointExtension>
        </extensions>
      </trkpt>
      <trkpt lat="45.26409306563436985015869140625" lon="-71.1252319626510143280029296875">
        <ele>756.79998779296875</ele>
        <time>2026-08-22T01:38:47.000Z</time>
        <extensions>
          <ns3:TrackPointExtension>
            <ns3:hr>117</ns3:hr>
            <ns3:cad>0</ns3:cad>
          </ns3:TrackPointExtension>
        </extensions>
      </trkpt>
      <trkpt lat="45.26408292353153228759765625" lon="-71.12524864263832569122314453125">
        <ele>756.4000244140625</ele>
        <time>2026-08-22T01:38:48.000Z</time>
        <extensions>
          <ns3:TrackPointExtension>
            <ns3:hr>117</ns3:hr>
            <ns3:cad>77</ns3:cad>
          </ns3:TrackPointExtension>
        </extensions>
      </trkpt>
      <trkpt lat="45.26407714001834392547607421875" lon="-71.12525761127471923828125">
        <ele>756</ele>
        <time>2026-08-22T01:38:49.000Z</time>
        <extensions>
          <ns3:TrackPointExtension>
            <ns3:hr>118</ns3:hr>
            <ns3:cad>77</ns3:cad>
          </ns3:TrackPointExtension>
        </extensions>
      </trkpt>
      <trkpt lat="45.26407345198094844818115234375" lon="-71.12526138313114643096923828125">
        <ele>755.5999755859375</ele>
        <time>2026-08-22T01:38:50.000Z</time>
        <extensions>
          <ns3:TrackPointExtension>
            <ns3:hr>117</ns3:hr>
            <ns3:cad>0</ns3:cad>
          </ns3:TrackPointExtension>
        </extensions>
      </trkpt>
      <trkpt lat="45.2640680037438869476318359375" lon="-71.12527328543365001678466796875">
        <ele>755.20001220703125</ele>
        <time>2026-08-22T01:38:51.000Z</time>
        <extensions>
          <ns3:TrackPointExtension>
            <ns3:hr>117</ns3:hr>
            <ns3:cad>0</ns3:cad>
          </ns3:TrackPointExtension>
        </extensions>
      </trkpt>
      <trkpt lat="45.26406322605907917022705078125" lon="-71.12529004923999309539794921875">
        <ele>755</ele>
        <time>2026-08-22T01:38:52.000Z</time>
        <extensions>
          <ns3:TrackPointExtension>
            <ns3:hr>117</ns3:hr>
            <ns3:cad>0</ns3:cad>
          </ns3:TrackPointExtension>
        </extensions>
      </trkpt>
      <trkpt lat="45.26406104676425457000732421875" lon="-71.12529641948640346527099609375">
        <ele>754.79998779296875</ele>
        <time>2026-08-22T01:38:53.000Z</time>
        <extensions>
          <ns3:TrackPointExtension>
            <ns3:hr>117</ns3:hr>
            <ns3:cad>70</ns3:cad>
          </ns3:TrackPointExtension>
        </extensions>
      </trkpt>
      <trkpt lat="45.26405534707009792327880859375" lon="-71.125302873551845550537109375">
        <ele>754.5999755859375</ele>
        <time>2026-08-22T01:38:54.000Z</time>
        <extensions>
          <ns3:TrackPointExtension>
            <ns3:hr>116</ns3:hr>
            <ns3:cad>70</ns3:cad>
          </ns3:TrackPointExtension>
        </extensions>
      </trkpt>
      <trkpt lat="45.26404512114822864532470703125" lon="-71.12530999816954135894775390625">
        <ele>754.20001220703125</ele>
        <time>2026-08-22T01:38:55.000Z</time>
        <extensions>
          <ns3:TrackPointExtension>
            <ns3:hr>117</ns3:hr>
            <ns3:cad>0</ns3:cad>
          </ns3:TrackPointExtension>
        </extensions>
      </trkpt>
      <trkpt lat="45.26403891853988170623779296875" lon="-71.1253152787685394287109375">
        <ele>753.79998779296875</ele>
        <time>2026-08-22T01:38:56.000Z</time>
        <extensions>
          <ns3:TrackPointExtension>
            <ns3:hr>117</ns3:hr>
            <ns3:cad>0</ns3:cad>
          </ns3:TrackPointExtension>
        </extensions>
      </trkpt>
      <trkpt lat="45.26403129100799560546875" lon="-71.1253211461007595062255859375">
        <ele>753.4000244140625</ele>
        <time>2026-08-22T01:38:57.000Z</time>
        <extensions>
          <ns3:TrackPointExtension>
            <ns3:hr>116</ns3:hr>
            <ns3:cad>0</ns3:cad>
          </ns3:TrackPointExtension>
        </extensions>
      </trkpt>
      <trkpt lat="45.26401863433420658111572265625" lon="-71.12532072700560092926025390625">
        <ele>753</ele>
        <time>2026-08-22T01:38:58.000Z</time>
        <extensions>
          <ns3:TrackPointExtension>
            <ns3:hr>116</ns3:hr>
            <ns3:cad>0</ns3:cad>
          </ns3:TrackPointExtension>
        </extensions>
      </trkpt>
      <trkpt lat="45.26400203816592693328857421875" lon="-71.125324666500091552734375">
        <ele>752.5999755859375</ele>
        <time>2026-08-22T01:38:59.000Z</time>
        <extensions>
          <ns3:TrackPointExtension>
            <ns3:hr>116</ns3:hr>
            <ns3:cad>0</ns3:cad>
          </ns3:TrackPointExtension>
        </extensions>
      </trkpt>
      <trkpt lat="45.26399684138596057891845703125" lon="-71.125329695641994476318359375">
        <ele>752.20001220703125</ele>
        <time>2026-08-22T01:39:00.000Z</time>
        <extensions>
          <ns3:TrackPointExtension>
            <ns3:hr>116</ns3:hr>
            <ns3:cad>0</ns3:cad>
          </ns3:TrackPointExtension>
        </extensions>
      </trkpt>
      <trkpt lat="45.263985358178615570068359375" lon="-71.12533606588840484619140625">
        <ele>752</ele>
        <time>2026-08-22T01:39:01.000Z</time>
        <extensions>
          <ns3:TrackPointExtension>
            <ns3:hr>116</ns3:hr>
            <ns3:cad>0</ns3:cad>
          </ns3:TrackPointExtension>
        </extensions>
      </trkpt>
      <trkpt lat="45.26397152803838253021240234375" lon="-71.12534084357321262359619140625">
        <ele>751.5999755859375</ele>
        <time>2026-08-22T01:39:02.000Z</time>
        <extensions>
          <ns3:TrackPointExtension>
            <ns3:hr>116</ns3:hr>
            <ns3:cad>0</ns3:cad>
          </ns3:TrackPointExtension>
        </extensions>
      </trkpt>
      <trkpt lat="45.2639597095549106597900390625" lon="-71.125351153314113616943359375">
        <ele>751.4000244140625</ele>
        <time>2026-08-22T01:39:03.000Z</time>
        <extensions>
          <ns3:TrackPointExtension>
            <ns3:hr>116</ns3:hr>
            <ns3:cad>0</ns3:cad>
          </ns3:TrackPointExtension>
        </extensions>
      </trkpt>
      <trkpt lat="45.2639519982039928436279296875" lon="-71.125360541045665740966796875">
        <ele>751</ele>
        <time>2026-08-22T01:39:04.000Z</time>
        <extensions>
          <ns3:TrackPointExtension>
            <ns3:hr>116</ns3:hr>
            <ns3:cad>0</ns3:cad>
          </ns3:TrackPointExtension>
        </extensions>
      </trkpt>
      <trkpt lat="45.263939760625362396240234375" lon="-71.12537202425301074981689453125">
        <ele>750.5999755859375</ele>
        <time>2026-08-22T01:39:05.000Z</time>
        <extensions>
          <ns3:TrackPointExtension>
            <ns3:hr>116</ns3:hr>
            <ns3:cad>0</ns3:cad>
          </ns3:TrackPointExtension>
        </extensions>
      </trkpt>
      <trkpt lat="45.26392743922770023345947265625" lon="-71.1253850162029266357421875">
        <ele>750.20001220703125</ele>
        <time>2026-08-22T01:39:06.000Z</time>
        <extensions>
          <ns3:TrackPointExtension>
            <ns3:hr>116</ns3:hr>
            <ns3:cad>0</ns3:cad>
          </ns3:TrackPointExtension>
        </extensions>
      </trkpt>
      <trkpt lat="45.2639164589345455169677734375" lon="-71.12539951689541339874267578125">
        <ele>749.79998779296875</ele>
        <time>2026-08-22T01:39:07.000Z</time>
        <extensions>
          <ns3:TrackPointExtension>
            <ns3:hr>116</ns3:hr>
            <ns3:cad>0</ns3:cad>
          </ns3:TrackPointExtension>
        </extensions>
      </trkpt>
      <trkpt lat="45.263908915221691131591796875" lon="-71.1254096589982509613037109375">
        <ele>749.5999755859375</ele>
        <time>2026-08-22T01:39:08.000Z</time>
        <extensions>
          <ns3:TrackPointExtension>
            <ns3:hr>116</ns3:hr>
            <ns3:cad>0</ns3:cad>
          </ns3:TrackPointExtension>
        </extensions>
      </trkpt>
      <trkpt lat="45.26390329934656620025634765625" lon="-71.1254200525581836700439453125">
        <ele>749.4000244140625</ele>
        <time>2026-08-22T01:39:09.000Z</time>
        <extensions>
          <ns3:TrackPointExtension>
            <ns3:hr>115</ns3:hr>
            <ns3:cad>0</ns3:cad>
          </ns3:TrackPointExtension>
        </extensions>
      </trkpt>
      <trkpt lat="45.26389810256659984588623046875" lon="-71.125430278480052947998046875">
        <ele>749.20001220703125</ele>
        <time>2026-08-22T01:39:10.000Z</time>
        <extensions>
          <ns3:TrackPointExtension>
            <ns3:hr>115</ns3:hr>
            <ns3:cad>0</ns3:cad>
          </ns3:TrackPointExtension>
        </extensions>
      </trkpt>
      <trkpt lat="45.2638846077024936676025390625" lon="-71.125438325107097625732421875">
        <ele>749.20001220703125</ele>
        <time>2026-08-22T01:39:11.000Z</time>
        <extensions>
          <ns3:TrackPointExtension>
            <ns3:hr>115</ns3:hr>
            <ns3:cad>0</ns3:cad>
          </ns3:TrackPointExtension>
        </extensions>
      </trkpt>
      <trkpt lat="45.263873375952243804931640625" lon="-71.125455088913440704345703125">
        <ele>749</ele>
        <time>2026-08-22T01:39:12.000Z</time>
        <extensions>
          <ns3:TrackPointExtension>
            <ns3:hr>115</ns3:hr>
            <ns3:cad>50</ns3:cad>
          </ns3:TrackPointExtension>
        </extensions>
      </trkpt>
      <trkpt lat="45.26385887525975704193115234375" lon="-71.12546590156853199005126953125">
        <ele>748.5999755859375</ele>
        <time>2026-08-22T01:39:13.000Z</time>
        <extensions>
          <ns3:TrackPointExtension>
            <ns3:hr>115</ns3:hr>
            <ns3:cad>50</ns3:cad>
          </ns3:TrackPointExtension>
        </extensions>
      </trkpt>
      <trkpt lat="45.2638480626046657562255859375" lon="-71.125480569899082183837890625">
        <ele>748.4000244140625</ele>
        <time>2026-08-22T01:39:14.000Z</time>
        <extensions>
          <ns3:TrackPointExtension>
            <ns3:hr>115</ns3:hr>
            <ns3:cad>0</ns3:cad>
          </ns3:TrackPointExtension>
        </extensions>
      </trkpt>
      <trkpt lat="45.26384144090116024017333984375" lon="-71.1255011893808841705322265625">
        <ele>748</ele>
        <time>2026-08-22T01:39:15.000Z</time>
        <extensions>
          <ns3:TrackPointExtension>
            <ns3:hr>115</ns3:hr>
            <ns3:cad>0</ns3:cad>
          </ns3:TrackPointExtension>
        </extensions>
      </trkpt>
      <trkpt lat="45.263836495578289031982421875" lon="-71.12551032565534114837646484375">
        <ele>747.79998779296875</ele>
        <time>2026-08-22T01:39:16.000Z</time>
        <extensions>
          <ns3:TrackPointExtension>
            <ns3:hr>115</ns3:hr>
            <ns3:cad>0</ns3:cad>
          </ns3:TrackPointExtension>
        </extensions>
      </trkpt>
      <trkpt lat="45.26383071206510066986083984375" lon="-71.12551887519657611846923828125">
        <ele>747.5999755859375</ele>
        <time>2026-08-22T01:39:17.000Z</time>
        <extensions>
          <ns3:TrackPointExtension>
            <ns3:hr>116</ns3:hr>
            <ns3:cad>0</ns3:cad>
          </ns3:TrackPointExtension>
        </extensions>
      </trkpt>
      <trkpt lat="45.26382132433354854583740234375" lon="-71.125536225736141204833984375">
        <ele>747.4000244140625</ele>
        <time>2026-08-22T01:39:18.000Z</time>
        <extensions>
          <ns3:TrackPointExtension>
            <ns3:hr>116</ns3:hr>
            <ns3:cad>0</ns3:cad>
          </ns3:TrackPointExtension>
        </extensions>
      </trkpt>
      <trkpt lat="45.26381227187812328338623046875" lon="-71.1255494691431522369384765625">
        <ele>747.20001220703125</ele>
        <time>2026-08-22T01:39:19.000Z</time>
        <extensions>
          <ns3:TrackPointExtension>
            <ns3:hr>116</ns3:hr>
            <ns3:cad>0</ns3:cad>
          </ns3:TrackPointExtension>
        </extensions>
      </trkpt>
      <trkpt lat="45.26380129158496856689453125" lon="-71.12555810250341892242431640625">
        <ele>747</ele>
        <time>2026-08-22T01:39:20.000Z</time>
        <extensions>
          <ns3:TrackPointExtension>
            <ns3:hr>116</ns3:hr>
            <ns3:cad>0</ns3:cad>
          </ns3:TrackPointExtension>
        </extensions>
      </trkpt>
      <trkpt lat="45.26378813199698925018310546875" lon="-71.125575788319110870361328125">
        <ele>746.79998779296875</ele>
        <time>2026-08-22T01:39:21.000Z</time>
        <extensions>
          <ns3:TrackPointExtension>
            <ns3:hr>116</ns3:hr>
            <ns3:cad>0</ns3:cad>
          </ns3:TrackPointExtension>
        </extensions>
      </trkpt>
      <trkpt lat="45.263777486979961395263671875" lon="-71.12559565342962741851806640625">
        <ele>746.5999755859375</ele>
        <time>2026-08-22T01:39:22.000Z</time>
        <extensions>
          <ns3:TrackPointExtension>
            <ns3:hr>116</ns3:hr>
            <ns3:cad>0</ns3:cad>
          </ns3:TrackPointExtension>
        </extensions>
      </trkpt>
      <trkpt lat="45.26377639733254909515380859375" lon="-71.1256125010550022125244140625">
        <ele>746.20001220703125</ele>
        <time>2026-08-22T01:39:23.000Z</time>
        <extensions>
          <ns3:TrackPointExtension>
            <ns3:hr>116</ns3:hr>
            <ns3:cad>0</ns3:cad>
          </ns3:TrackPointExtension>
        </extensions>
      </trkpt>
      <trkpt lat="45.26377639733254909515380859375" lon="-71.1256379820406436920166015625">
        <ele>745.79998779296875</ele>
        <time>2026-08-22T01:39:24.000Z</time>
        <extensions>
          <ns3:TrackPointExtension>
            <ns3:hr>117</ns3:hr>
            <ns3:cad>0</ns3:cad>
          </ns3:TrackPointExtension>
        </extensions>
      </trkpt>
      <trkpt lat="45.2637789957225322723388671875" lon="-71.1256711743772029876708984375">
        <ele>745.5999755859375</ele>
        <time>2026-08-22T01:39:25.000Z</time>
        <extensions>
          <ns3:TrackPointExtension>
            <ns3:hr>118</ns3:hr>
            <ns3:cad>0</ns3:cad>
          </ns3:TrackPointExtension>
        </extensions>
      </trkpt>
      <trkpt lat="45.2637857012450695037841796875" lon="-71.1256916262209415435791015625">
        <ele>745.20001220703125</ele>
        <time>2026-08-22T01:39:26.000Z</time>
        <extensions>
          <ns3:TrackPointExtension>
            <ns3:hr>118</ns3:hr>
            <ns3:cad>71</ns3:cad>
          </ns3:TrackPointExtension>
        </extensions>
      </trkpt>
      <trkpt lat="45.26379869319498538970947265625" lon="-71.1257207952439785003662109375">
        <ele>745</ele>
        <time>2026-08-22T01:39:27.000Z</time>
        <extensions>
          <ns3:TrackPointExtension>
            <ns3:hr>118</ns3:hr>
            <ns3:cad>71</ns3:cad>
          </ns3:TrackPointExtension>
        </extensions>
      </trkpt>
      <trkpt lat="45.263808332383632659912109375" lon="-71.125743091106414794921875">
        <ele>744.5999755859375</ele>
        <time>2026-08-22T01:39:28.000Z</time>
        <extensions>
          <ns3:TrackPointExtension>
            <ns3:hr>118</ns3:hr>
            <ns3:cad>71</ns3:cad>
          </ns3:TrackPointExtension>
        </extensions>
      </trkpt>
      <trkpt lat="45.26381864212453365325927734375" lon="-71.125762201845645904541015625">
        <ele>744.4000244140625</ele>
        <time>2026-08-22T01:39:29.000Z</time>
        <extensions>
          <ns3:TrackPointExtension>
            <ns3:hr>118</ns3:hr>
            <ns3:cad>63</ns3:cad>
          </ns3:TrackPointExtension>
        </extensions>
      </trkpt>
      <trkpt lat="45.26382811367511749267578125" lon="-71.12577485851943492889404296875">
        <ele>744.20001220703125</ele>
        <time>2026-08-22T01:39:30.000Z</time>
        <extensions>
          <ns3:TrackPointExtension>
            <ns3:hr>119</ns3:hr>
            <ns3:cad>63</ns3:cad>
          </ns3:TrackPointExtension>
        </extensions>
      </trkpt>
      <trkpt lat="45.26383356191217899322509765625" lon="-71.12578843720257282257080078125">
        <ele>744.20001220703125</ele>
        <time>2026-08-22T01:39:31.000Z</time>
        <extensions>
          <ns3:TrackPointExtension>
            <ns3:hr>119</ns3:hr>
            <ns3:cad>65</ns3:cad>
          </ns3:TrackPointExtension>
        </extensions>
      </trkpt>
      <trkpt lat="45.26384043507277965545654296875" lon="-71.12579564563930034637451171875">
        <ele>744</ele>
        <time>2026-08-22T01:39:32.000Z</time>
        <extensions>
          <ns3:TrackPointExtension>
            <ns3:hr>118</ns3:hr>
            <ns3:cad>65</ns3:cad>
          </ns3:TrackPointExtension>
        </extensions>
      </trkpt>
      <trkpt lat="45.26384445838630199432373046875" lon="-71.125808469951152801513671875">
        <ele>744</ele>
        <time>2026-08-22T01:39:33.000Z</time>
        <extensions>
          <ns3:TrackPointExtension>
            <ns3:hr>118</ns3:hr>
            <ns3:cad>75</ns3:cad>
          </ns3:TrackPointExtension>
        </extensions>
      </trkpt>
      <trkpt lat="45.26385099627077579498291015625" lon="-71.12583420239388942718505859375">
        <ele>744</ele>
        <time>2026-08-22T01:39:34.000Z</time>
        <extensions>
          <ns3:TrackPointExtension>
            <ns3:hr>117</ns3:hr>
            <ns3:cad>75</ns3:cad>
          </ns3:TrackPointExtension>
        </extensions>
      </trkpt>
      <trkpt lat="45.26385367847979068756103515625" lon="-71.125852726399898529052734375">
        <ele>743.79998779296875</ele>
        <time>2026-08-22T01:39:35.000Z</time>
        <extensions>
          <ns3:TrackPointExtension>
            <ns3:hr>116</ns3:hr>
            <ns3:cad>75</ns3:cad>
          </ns3:TrackPointExtension>
        </extensions>
      </trkpt>
      <trkpt lat="45.26385870762169361114501953125" lon="-71.12586789764463901519775390625">
        <ele>743.79998779296875</ele>
        <time>2026-08-22T01:39:36.000Z</time>
        <extensions>
          <ns3:TrackPointExtension>
            <ns3:hr>116</ns3:hr>
            <ns3:cad>0</ns3:cad>
          </ns3:TrackPointExtension>
        </extensions>
      </trkpt>
      <trkpt lat="45.2638597972691059112548828125" lon="-71.12588533200323581695556640625">
        <ele>743.5999755859375</ele>
        <time>2026-08-22T01:39:37.000Z</time>
        <extensions>
          <ns3:TrackPointExtension>
            <ns3:hr>116</ns3:hr>
            <ns3:cad>0</ns3:cad>
          </ns3:TrackPointExtension>
        </extensions>
      </trkpt>
      <trkpt lat="45.26385703124105930328369140625" lon="-71.12589932978153228759765625">
        <ele>743.4000244140625</ele>
        <time>2026-08-22T01:39:38.000Z</time>
        <extensions>
          <ns3:TrackPointExtension>
            <ns3:hr>116</ns3:hr>
            <ns3:cad>0</ns3:cad>
          </ns3:TrackPointExtension>
        </extensions>
      </trkpt>
      <trkpt lat="45.2638577856123447418212890625" lon="-71.12591299228370189666748046875">
        <ele>743.20001220703125</ele>
        <time>2026-08-22T01:39:39.000Z</time>
        <extensions>
          <ns3:TrackPointExtension>
            <ns3:hr>116</ns3:hr>
            <ns3:cad>0</ns3:cad>
          </ns3:TrackPointExtension>
        </extensions>
      </trkpt>
      <trkpt lat="45.26385921053588390350341796875" lon="-71.1259373836219310760498046875">
        <ele>742.79998779296875</ele>
        <time>2026-08-22T01:39:40.000Z</time>
        <extensions>
          <ns3:TrackPointExtension>
            <ns3:hr>116</ns3:hr>
            <ns3:cad>0</ns3:cad>
          </ns3:TrackPointExtension>
        </extensions>
      </trkpt>
      <trkpt lat="45.26385887525975704193115234375" lon="-71.125955320894718170166015625">
        <ele>742.5999755859375</ele>
        <time>2026-08-22T01:39:41.000Z</time>
        <extensions>
          <ns3:TrackPointExtension>
            <ns3:hr>116</ns3:hr>
            <ns3:cad>0</ns3:cad>
          </ns3:TrackPointExtension>
        </extensions>
      </trkpt>
      <trkpt lat="45.26385652832686901092529296875" lon="-71.12596546299755573272705078125">
        <ele>742.20001220703125</ele>
        <time>2026-08-22T01:39:42.000Z</time>
        <extensions>
          <ns3:TrackPointExtension>
            <ns3:hr>116</ns3:hr>
            <ns3:cad>0</ns3:cad>
          </ns3:TrackPointExtension>
        </extensions>
      </trkpt>
      <trkpt lat="45.2638500742614269256591796875" lon="-71.125984489917755126953125">
        <ele>741.5999755859375</ele>
        <time>2026-08-22T01:39:43.000Z</time>
        <extensions>
          <ns3:TrackPointExtension>
            <ns3:hr>116</ns3:hr>
            <ns3:cad>0</ns3:cad>
          </ns3:TrackPointExtension>
        </extensions>
      </trkpt>
      <trkpt lat="45.26384613476693630218505859375" lon="-71.12599982880055904388427734375">
        <ele>741.20001220703125</ele>
        <time>2026-08-22T01:39:44.000Z</time>
        <extensions>
          <ns3:TrackPointExtension>
            <ns3:hr>116</ns3:hr>
            <ns3:cad>0</ns3:cad>
          </ns3:TrackPointExtension>
        </extensions>
      </trkpt>
      <trkpt lat="45.2638475596904754638671875" lon="-71.1260165087878704071044921875">
        <ele>740.79998779296875</ele>
        <time>2026-08-22T01:39:45.000Z</time>
        <extensions>
          <ns3:TrackPointExtension>
            <ns3:hr>117</ns3:hr>
            <ns3:cad>0</ns3:cad>
          </ns3:TrackPointExtension>
        </extensions>
      </trkpt>
      <trkpt lat="45.2638490684330463409423828125" lon="-71.12602631561458110809326171875">
        <ele>740.5999755859375</ele>
        <time>2026-08-22T01:39:46.000Z</time>
        <extensions>
          <ns3:TrackPointExtension>
            <ns3:hr>116</ns3:hr>
            <ns3:cad>0</ns3:cad>
          </ns3:TrackPointExtension>
        </extensions>
      </trkpt>
      <trkpt lat="45.263843536376953125" lon="-71.12604961730539798736572265625">
        <ele>740</ele>
        <time>2026-08-22T01:39:47.000Z</time>
        <extensions>
          <ns3:TrackPointExtension>
            <ns3:hr>116</ns3:hr>
            <ns3:cad>0</ns3:cad>
          </ns3:TrackPointExtension>
        </extensions>
      </trkpt>
      <trkpt lat="45.2638403512537479400634765625" lon="-71.126060597598552703857421875">
        <ele>739.79998779296875</ele>
        <time>2026-08-22T01:39:48.000Z</time>
        <extensions>
          <ns3:TrackPointExtension>
            <ns3:hr>116</ns3:hr>
            <ns3:cad>0</ns3:cad>
          </ns3:TrackPointExtension>
        </extensions>
      </trkpt>
      <trkpt lat="45.263837166130542755126953125" lon="-71.1260792054235935211181640625">
        <ele>739.4000244140625</ele>
        <time>2026-08-22T01:39:49.000Z</time>
        <extensions>
          <ns3:TrackPointExtension>
            <ns3:hr>116</ns3:hr>
            <ns3:cad>0</ns3:cad>
          </ns3:TrackPointExtension>
        </extensions>
      </trkpt>
      <trkpt lat="45.26383456774055957794189453125" lon="-71.12609202973544597625732421875">
        <ele>739</ele>
        <time>2026-08-22T01:39:50.000Z</time>
        <extensions>
          <ns3:TrackPointExtension>
            <ns3:hr>116</ns3:hr>
            <ns3:cad>0</ns3:cad>
          </ns3:TrackPointExtension>
        </extensions>
      </trkpt>
      <trkpt lat="45.2638286165893077850341796875" lon="-71.12611114047467708587646484375">
        <ele>738.5999755859375</ele>
        <time>2026-08-22T01:39:51.000Z</time>
        <extensions>
          <ns3:TrackPointExtension>
            <ns3:hr>116</ns3:hr>
            <ns3:cad>0</ns3:cad>
          </ns3:TrackPointExtension>
        </extensions>
      </trkpt>
      <trkpt lat="45.26382249779999256134033203125" lon="-71.1261398904025554656982421875">
        <ele>738.20001220703125</ele>
        <time>2026-08-22T01:39:52.000Z</time>
        <extensions>
          <ns3:TrackPointExtension>
            <ns3:hr>116</ns3:hr>
            <ns3:cad>0</ns3:cad>
          </ns3:TrackPointExtension>
        </extensions>
      </trkpt>
      <trkpt lat="45.2638182230293750762939453125" lon="-71.12616444937884807586669921875">
        <ele>737.5999755859375</ele>
        <time>2026-08-22T01:39:53.000Z</time>
        <extensions>
          <ns3:TrackPointExtension>
            <ns3:hr>116</ns3:hr>
            <ns3:cad>0</ns3:cad>
          </ns3:TrackPointExtension>
        </extensions>
      </trkpt>
      <trkpt lat="45.26381311006844043731689453125" lon="-71.12618456594645977020263671875">
        <ele>737.20001220703125</ele>
        <time>2026-08-22T01:39:54.000Z</time>
        <extensions>
          <ns3:TrackPointExtension>
            <ns3:hr>115</ns3:hr>
            <ns3:cad>0</ns3:cad>
          </ns3:TrackPointExtension>
        </extensions>
      </trkpt>
      <trkpt lat="45.2638073265552520751953125" lon="-71.1262004077434539794921875">
        <ele>736.79998779296875</ele>
        <time>2026-08-22T01:39:55.000Z</time>
        <extensions>
          <ns3:TrackPointExtension>
            <ns3:hr>115</ns3:hr>
            <ns3:cad>0</ns3:cad>
          </ns3:TrackPointExtension>
        </extensions>
      </trkpt>
      <trkpt lat="45.2638051472604274749755859375" lon="-71.12621859647333621978759765625">
        <ele>736.4000244140625</ele>
        <time>2026-08-22T01:39:56.000Z</time>
        <extensions>
          <ns3:TrackPointExtension>
            <ns3:hr>115</ns3:hr>
            <ns3:cad>0</ns3:cad>
          </ns3:TrackPointExtension>
        </extensions>
      </trkpt>
      <trkpt lat="45.26380606926977634429931640625" lon="-71.1262404732406139373779296875">
        <ele>736.20001220703125</ele>
        <time>2026-08-22T01:39:57.000Z</time>
        <extensions>
          <ns3:TrackPointExtension>
            <ns3:hr>115</ns3:hr>
            <ns3:cad>79</ns3:cad>
          </ns3:TrackPointExtension>
        </extensions>
      </trkpt>
      <trkpt lat="45.263809673488140106201171875" lon="-71.126257739961147308349609375">
        <ele>736.20001220703125</ele>
        <time>2026-08-22T01:39:58.000Z</time>
        <extensions>
          <ns3:TrackPointExtension>
            <ns3:hr>115</ns3:hr>
            <ns3:cad>79</ns3:cad>
          </ns3:TrackPointExtension>
        </extensions>
      </trkpt>
      <trkpt lat="45.263813026249408721923828125" lon="-71.12627089954912662506103515625">
        <ele>736</ele>
        <time>2026-08-22T01:39:59.000Z</time>
        <extensions>
          <ns3:TrackPointExtension>
            <ns3:hr>115</ns3:hr>
            <ns3:cad>79</ns3:cad>
          </ns3:TrackPointExtension>
        </extensions>
      </trkpt>
      <trkpt lat="45.2638108469545841217041015625" lon="-71.12628690898418426513671875">
        <ele>735.79998779296875</ele>
        <time>2026-08-22T01:40:00.000Z</time>
        <extensions>
          <ns3:TrackPointExtension>
            <ns3:hr>116</ns3:hr>
            <ns3:cad>59</ns3:cad>
          </ns3:TrackPointExtension>
        </extensions>
      </trkpt>
      <trkpt lat="45.26381176896393299102783203125" lon="-71.12631096504628658294677734375">
        <ele>735.5999755859375</ele>
        <time>2026-08-22T01:40:01.000Z</time>
        <extensions>
          <ns3:TrackPointExtension>
            <ns3:hr>116</ns3:hr>
            <ns3:cad>59</ns3:cad>
          </ns3:TrackPointExtension>
        </extensions>
      </trkpt>
      <trkpt lat="45.26381914503872394561767578125" lon="-71.12634097225964069366455078125">
        <ele>735.4000244140625</ele>
        <time>2026-08-22T01:40:02.000Z</time>
        <extensions>
          <ns3:TrackPointExtension>
            <ns3:hr>116</ns3:hr>
            <ns3:cad>0</ns3:cad>
          </ns3:TrackPointExtension>
        </extensions>
      </trkpt>
      <trkpt lat="45.26382970623672008514404296875" lon="-71.12635404802858829498291015625">
        <ele>735</ele>
        <time>2026-08-22T01:40:03.000Z</time>
        <extensions>
          <ns3:TrackPointExtension>
            <ns3:hr>116</ns3:hr>
            <ns3:cad>0</ns3:cad>
          </ns3:TrackPointExtension>
        </extensions>
      </trkpt>
      <trkpt lat="45.26384177617728710174560546875" lon="-71.1263675428926944732666015625">
        <ele>734.79998779296875</ele>
        <time>2026-08-22T01:40:04.000Z</time>
        <extensions>
          <ns3:TrackPointExtension>
            <ns3:hr>116</ns3:hr>
            <ns3:cad>0</ns3:cad>
          </ns3:TrackPointExtension>
        </extensions>
      </trkpt>
      <trkpt lat="45.263856612145900726318359375" lon="-71.12637952901422977447509765625">
        <ele>734.5999755859375</ele>
        <time>2026-08-22T01:40:05.000Z</time>
        <extensions>
          <ns3:TrackPointExtension>
            <ns3:hr>116</ns3:hr>
            <ns3:cad>0</ns3:cad>
          </ns3:TrackPointExtension>
        </extensions>
      </trkpt>
      <trkpt lat="45.26387111283838748931884765625" lon="-71.12638472579419612884521484375">
        <ele>734.5999755859375</ele>
        <time>2026-08-22T01:40:06.000Z</time>
        <extensions>
          <ns3:TrackPointExtension>
            <ns3:hr>117</ns3:hr>
            <ns3:cad>0</ns3:cad>
          </ns3:TrackPointExtension>
        </extensions>
      </trkpt>
      <trkpt lat="45.2638832665979862213134765625" lon="-71.1263839714229106903076171875">
        <ele>734.5999755859375</ele>
        <time>2026-08-22T01:40:07.000Z</time>
        <extensions>
          <ns3:TrackPointExtension>
            <ns3:hr>117</ns3:hr>
            <ns3:cad>0</ns3:cad>
          </ns3:TrackPointExtension>
        </extensions>
      </trkpt>
      <trkpt lat="45.26388712227344512939453125" lon="-71.12638036720454692840576171875">
        <ele>734.5999755859375</ele>
        <time>2026-08-22T01:40:08.000Z</time>
        <extensions>
          <ns3:TrackPointExtension>
            <ns3:hr>117</ns3:hr>
            <ns3:cad>0</ns3:cad>
          </ns3:TrackPointExtension>
        </extensions>
      </trkpt>
      <trkpt lat="45.26388846337795257568359375" lon="-71.12638087011873722076416015625">
        <ele>734.5999755859375</ele>
        <time>2026-08-22T01:40:09.000Z</time>
        <extensions>
          <ns3:TrackPointExtension>
            <ns3:hr>117</ns3:hr>
            <ns3:cad>0</ns3:cad>
          </ns3:TrackPointExtension>
        </extensions>
      </trkpt>
      <trkpt lat="45.263897515833377838134765625" lon="-71.12638070248067378997802734375">
        <ele>734.5999755859375</ele>
        <time>2026-08-22T01:40:10.000Z</time>
        <extensions>
          <ns3:TrackPointExtension>
            <ns3:hr>116</ns3:hr>
            <ns3:cad>0</ns3:cad>
          </ns3:TrackPointExtension>
        </extensions>
      </trkpt>
      <trkpt lat="45.26390681974589824676513671875" lon="-71.12638170830905437469482421875">
        <ele>734.5999755859375</ele>
        <time>2026-08-22T01:40:11.000Z</time>
        <extensions>
          <ns3:TrackPointExtension>
            <ns3:hr>116</ns3:hr>
            <ns3:cad>0</ns3:cad>
          </ns3:TrackPointExtension>
        </extensions>
      </trkpt>
      <trkpt lat="45.26391285471618175506591796875" lon="-71.1263833008706569671630859375">
        <ele>734.5999755859375</ele>
        <time>2026-08-22T01:40:12.000Z</time>
        <extensions>
          <ns3:TrackPointExtension>
            <ns3:hr>116</ns3:hr>
            <ns3:cad>45</ns3:cad>
          </ns3:TrackPointExtension>
        </extensions>
      </trkpt>
      <trkpt lat="45.263920314610004425048828125" lon="-71.12638539634644985198974609375">
        <ele>734.5999755859375</ele>
        <time>2026-08-22T01:40:13.000Z</time>
        <extensions>
          <ns3:TrackPointExtension>
            <ns3:hr>116</ns3:hr>
            <ns3:cad>45</ns3:cad>
          </ns3:TrackPointExtension>
        </extensions>
      </trkpt>
      <trkpt lat="45.2639293670654296875" lon="-71.1263940297067165374755859375">
        <ele>734.4000244140625</ele>
        <time>2026-08-22T01:40:14.000Z</time>
        <extensions>
          <ns3:TrackPointExtension>
            <ns3:hr>116</ns3:hr>
            <ns3:cad>45</ns3:cad>
          </ns3:TrackPointExtension>
        </extensions>
      </trkpt>
      <trkpt lat="45.263934396207332611083984375" lon="-71.1264067701995372772216796875">
        <ele>734.20001220703125</ele>
        <time>2026-08-22T01:40:15.000Z</time>
        <extensions>
          <ns3:TrackPointExtension>
            <ns3:hr>115</ns3:hr>
            <ns3:cad>45</ns3:cad>
          </ns3:TrackPointExtension>
        </extensions>
      </trkpt>
      <trkpt lat="45.26394034735858440399169921875" lon="-71.12641909159719944000244140625">
        <ele>734</ele>
        <time>2026-08-22T01:40:16.000Z</time>
        <extensions>
          <ns3:TrackPointExtension>
            <ns3:hr>115</ns3:hr>
            <ns3:cad>50</ns3:cad>
          </ns3:TrackPointExtension>
        </extensions>
      </trkpt>
      <trkpt lat="45.2639468014240264892578125" lon="-71.12643669359385967254638671875">
        <ele>733.5999755859375</ele>
        <time>2026-08-22T01:40:17.000Z</time>
        <extensions>
          <ns3:TrackPointExtension>
            <ns3:hr>114</ns3:hr>
            <ns3:cad>50</ns3:cad>
          </ns3:TrackPointExtension>
        </extensions>
      </trkpt>
      <trkpt lat="45.26394881308078765869140625" lon="-71.126450188457965850830078125">
        <ele>733.20001220703125</ele>
        <time>2026-08-22T01:40:18.000Z</time>
        <extensions>
          <ns3:TrackPointExtension>
            <ns3:hr>113</ns3:hr>
            <ns3:cad>50</ns3:cad>
          </ns3:TrackPointExtension>
        </extensions>
      </trkpt>
      <trkpt lat="45.263953842222690582275390625" lon="-71.12646929919719696044921875">
        <ele>732.79998779296875</ele>
        <time>2026-08-22T01:40:19.000Z</time>
        <extensions>
          <ns3:TrackPointExtension>
            <ns3:hr>112</ns3:hr>
            <ns3:cad>0</ns3:cad>
          </ns3:TrackPointExtension>
        </extensions>
      </trkpt>
      <trkpt lat="45.26396046392619609832763671875" lon="-71.12648379988968372344970703125">
        <ele>732.4000244140625</ele>
        <time>2026-08-22T01:40:20.000Z</time>
        <extensions>
          <ns3:TrackPointExtension>
            <ns3:hr>111</ns3:hr>
            <ns3:cad>0</ns3:cad>
          </ns3:TrackPointExtension>
        </extensions>
      </trkpt>
      <trkpt lat="45.26396758854389190673828125" lon="-71.1265036650002002716064453125">
        <ele>732</ele>
        <time>2026-08-22T01:40:21.000Z</time>
        <extensions>
          <ns3:TrackPointExtension>
            <ns3:hr>110</ns3:hr>
            <ns3:cad>0</ns3:cad>
          </ns3:TrackPointExtension>
        </extensions>
      </trkpt>
      <trkpt lat="45.263974964618682861328125" lon="-71.12652034498751163482666015625">
        <ele>731.79998779296875</ele>
        <time>2026-08-22T01:40:22.000Z</time>
        <extensions>
          <ns3:TrackPointExtension>
            <ns3:hr>110</ns3:hr>
            <ns3:cad>19</ns3:cad>
          </ns3:TrackPointExtension>
        </extensions>
      </trkpt>
      <trkpt lat="45.26398158632218837738037109375" lon="-71.12653157673776149749755859375">
        <ele>731.4000244140625</ele>
        <time>2026-08-22T01:40:23.000Z</time>
        <extensions>
          <ns3:TrackPointExtension>
            <ns3:hr>110</ns3:hr>
            <ns3:cad>19</ns3:cad>
          </ns3:TrackPointExtension>
        </extensions>
      </trkpt>
      <trkpt lat="45.26398577727377414703369140625" lon="-71.1265418864786624908447265625">
        <ele>731</ele>
        <time>2026-08-22T01:40:24.000Z</time>
        <extensions>
          <ns3:TrackPointExtension>
            <ns3:hr>110</ns3:hr>
            <ns3:cad>19</ns3:cad>
          </ns3:TrackPointExtension>
        </extensions>
      </trkpt>
      <trkpt lat="45.26398745365440845489501953125" lon="-71.126558147370815277099609375">
        <ele>730.79998779296875</ele>
        <time>2026-08-22T01:40:25.000Z</time>
        <extensions>
          <ns3:TrackPointExtension>
            <ns3:hr>110</ns3:hr>
            <ns3:cad>19</ns3:cad>
          </ns3:TrackPointExtension>
        </extensions>
      </trkpt>
      <trkpt lat="45.2639885433018207550048828125" lon="-71.12657122313976287841796875">
        <ele>730.5999755859375</ele>
        <time>2026-08-22T01:40:26.000Z</time>
        <extensions>
          <ns3:TrackPointExtension>
            <ns3:hr>109</ns3:hr>
            <ns3:cad>19</ns3:cad>
          </ns3:TrackPointExtension>
        </extensions>
      </trkpt>
      <trkpt lat="45.2639898844063282012939453125" lon="-71.12658865749835968017578125">
        <ele>730.4000244140625</ele>
        <time>2026-08-22T01:40:27.000Z</time>
        <extensions>
          <ns3:TrackPointExtension>
            <ns3:hr>110</ns3:hr>
            <ns3:cad>19</ns3:cad>
          </ns3:TrackPointExtension>
        </extensions>
      </trkpt>
      <trkpt lat="45.26399013586342334747314453125" lon="-71.12659938633441925048828125">
        <ele>730</ele>
        <time>2026-08-22T01:40:28.000Z</time>
        <extensions>
          <ns3:TrackPointExtension>
            <ns3:hr>110</ns3:hr>
            <ns3:cad>19</ns3:cad>
          </ns3:TrackPointExtension>
        </extensions>
      </trkpt>
      <trkpt lat="45.26398929767310619354248046875" lon="-71.12661355175077915191650390625">
        <ele>729.79998779296875</ele>
        <time>2026-08-22T01:40:29.000Z</time>
        <extensions>
          <ns3:TrackPointExtension>
            <ns3:hr>110</ns3:hr>
            <ns3:cad>19</ns3:cad>
          </ns3:TrackPointExtension>
        </extensions>
      </trkpt>
      <trkpt lat="45.26399030350148677825927734375" lon="-71.12662612460553646087646484375">
        <ele>729.4000244140625</ele>
        <time>2026-08-22T01:40:30.000Z</time>
        <extensions>
          <ns3:TrackPointExtension>
            <ns3:hr>109</ns3:hr>
            <ns3:cad>19</ns3:cad>
          </ns3:TrackPointExtension>
        </extensions>
      </trkpt>
      <trkpt lat="45.26399415917694568634033203125" lon="-71.1266414634883403778076171875">
        <ele>729.20001220703125</ele>
        <time>2026-08-22T01:40:31.000Z</time>
        <extensions>
          <ns3:TrackPointExtension>
            <ns3:hr>112</ns3:hr>
            <ns3:cad>19</ns3:cad>
          </ns3:TrackPointExtension>
        </extensions>
      </trkpt>
      <trkpt lat="45.26400019414722919464111328125" lon="-71.12666652537882328033447265625">
        <ele>728.79998779296875</ele>
        <time>2026-08-22T01:40:32.000Z</time>
        <extensions>
          <ns3:TrackPointExtension>
            <ns3:hr>113</ns3:hr>
            <ns3:cad>19</ns3:cad>
          </ns3:TrackPointExtension>
        </extensions>
      </trkpt>
      <trkpt lat="45.2640046365559101104736328125" lon="-71.12668513320386409759521484375">
        <ele>728.4000244140625</ele>
        <time>2026-08-22T01:40:33.000Z</time>
        <extensions>
          <ns3:TrackPointExtension>
            <ns3:hr>114</ns3:hr>
            <ns3:cad>0</ns3:cad>
          </ns3:TrackPointExtension>
        </extensions>
      </trkpt>
      <trkpt lat="45.2640069834887981414794921875" lon="-71.1267004720866680145263671875">
        <ele>728.20001220703125</ele>
        <time>2026-08-22T01:40:34.000Z</time>
        <extensions>
          <ns3:TrackPointExtension>
            <ns3:hr>115</ns3:hr>
            <ns3:cad>0</ns3:cad>
          </ns3:TrackPointExtension>
        </extensions>
      </trkpt>
      <trkpt lat="45.264014862477779388427734375" lon="-71.12672142684459686279296875">
        <ele>727.79998779296875</ele>
        <time>2026-08-22T01:40:35.000Z</time>
        <extensions>
          <ns3:TrackPointExtension>
            <ns3:hr>115</ns3:hr>
            <ns3:cad>0</ns3:cad>
          </ns3:TrackPointExtension>
        </extensions>
      </trkpt>
      <trkpt lat="45.26401611976325511932373046875" lon="-71.1267360113561153411865234375">
        <ele>727.4000244140625</ele>
        <time>2026-08-22T01:40:36.000Z</time>
        <extensions>
          <ns3:TrackPointExtension>
            <ns3:hr>115</ns3:hr>
            <ns3:cad>0</ns3:cad>
          </ns3:TrackPointExtension>
        </extensions>
      </trkpt>
      <trkpt lat="45.26402047835290431976318359375" lon="-71.1267567984759807586669921875">
        <ele>727</ele>
        <time>2026-08-22T01:40:37.000Z</time>
        <extensions>
          <ns3:TrackPointExtension>
            <ns3:hr>115</ns3:hr>
            <ns3:cad>0</ns3:cad>
          </ns3:TrackPointExtension>
        </extensions>
      </trkpt>
      <trkpt lat="45.26402525603771209716796875" lon="-71.1267769150435924530029296875">
        <ele>726.5999755859375</ele>
        <time>2026-08-22T01:40:38.000Z</time>
        <extensions>
          <ns3:TrackPointExtension>
            <ns3:hr>116</ns3:hr>
            <ns3:cad>0</ns3:cad>
          </ns3:TrackPointExtension>
        </extensions>
      </trkpt>
      <trkpt lat="45.26402969844639301300048828125" lon="-71.1267869733273983001708984375">
        <ele>726.20001220703125</ele>
        <time>2026-08-22T01:40:39.000Z</time>
        <extensions>
          <ns3:TrackPointExtension>
            <ns3:hr>115</ns3:hr>
            <ns3:cad>0</ns3:cad>
          </ns3:TrackPointExtension>
        </extensions>
      </trkpt>
      <trkpt lat="45.26403891853988170623779296875" lon="-71.12680516205728054046630859375">
        <ele>726</ele>
        <time>2026-08-22T01:40:40.000Z</time>
        <extensions>
          <ns3:TrackPointExtension>
            <ns3:hr>116</ns3:hr>
            <ns3:cad>0</ns3:cad>
          </ns3:TrackPointExtension>
        </extensions>
      </trkpt>
      <trkpt lat="45.26404805481433868408203125" lon="-71.126816309988498687744140625">
        <ele>725.5999755859375</ele>
        <time>2026-08-22T01:40:41.000Z</time>
        <extensions>
          <ns3:TrackPointExtension>
            <ns3:hr>116</ns3:hr>
            <ns3:cad>0</ns3:cad>
          </ns3:TrackPointExtension>
        </extensions>
      </trkpt>
      <trkpt lat="45.26405434124171733856201171875" lon="-71.126828379929065704345703125">
        <ele>725.4000244140625</ele>
        <time>2026-08-22T01:40:42.000Z</time>
        <extensions>
          <ns3:TrackPointExtension>
            <ns3:hr>116</ns3:hr>
            <ns3:cad>0</ns3:cad>
          </ns3:TrackPointExtension>
        </extensions>
      </trkpt>
      <trkpt lat="45.2640599571168422698974609375" lon="-71.12684858031570911407470703125">
        <ele>725.20001220703125</ele>
        <time>2026-08-22T01:40:43.000Z</time>
        <extensions>
          <ns3:TrackPointExtension>
            <ns3:hr>116</ns3:hr>
            <ns3:cad>61</ns3:cad>
          </ns3:TrackPointExtension>
        </extensions>
      </trkpt>
      <trkpt lat="45.2640633098781108856201171875" lon="-71.1268682777881622314453125">
        <ele>724.79998779296875</ele>
        <time>2026-08-22T01:40:44.000Z</time>
        <extensions>
          <ns3:TrackPointExtension>
            <ns3:hr>116</ns3:hr>
            <ns3:cad>61</ns3:cad>
          </ns3:TrackPointExtension>
        </extensions>
      </trkpt>
      <trkpt lat="45.264071188867092132568359375" lon="-71.126886717975139617919921875">
        <ele>724.5999755859375</ele>
        <time>2026-08-22T01:40:45.000Z</time>
        <extensions>
          <ns3:TrackPointExtension>
            <ns3:hr>116</ns3:hr>
            <ns3:cad>61</ns3:cad>
          </ns3:TrackPointExtension>
        </extensions>
      </trkpt>
      <trkpt lat="45.26408200152218341827392578125" lon="-71.12689769826829433441162109375">
        <ele>724.20001220703125</ele>
        <time>2026-08-22T01:40:46.000Z</time>
        <extensions>
          <ns3:TrackPointExtension>
            <ns3:hr>116</ns3:hr>
            <ns3:cad>61</ns3:cad>
          </ns3:TrackPointExtension>
        </extensions>
      </trkpt>
      <trkpt lat="45.264093987643718719482421875" lon="-71.1269133724272251129150390625">
        <ele>724</ele>
        <time>2026-08-22T01:40:47.000Z</time>
        <extensions>
          <ns3:TrackPointExtension>
            <ns3:hr>115</ns3:hr>
            <ns3:cad>61</ns3:cad>
          </ns3:TrackPointExtension>
        </extensions>
      </trkpt>
      <trkpt lat="45.26410111226141452789306640625" lon="-71.1269264481961727142333984375">
        <ele>723.79998779296875</ele>
        <time>2026-08-22T01:40:48.000Z</time>
        <extensions>
          <ns3:TrackPointExtension>
            <ns3:hr>115</ns3:hr>
            <ns3:cad>61</ns3:cad>
          </ns3:TrackPointExtension>
        </extensions>
      </trkpt>
      <trkpt lat="45.2641132660210132598876953125" lon="-71.126941032707691192626953125">
        <ele>723.5999755859375</ele>
        <time>2026-08-22T01:40:49.000Z</time>
        <extensions>
          <ns3:TrackPointExtension>
            <ns3:hr>115</ns3:hr>
            <ns3:cad>61</ns3:cad>
          </ns3:TrackPointExtension>
        </extensions>
      </trkpt>
      <trkpt lat="45.2641256712377071380615234375" lon="-71.126949079334735870361328125">
        <ele>723.20001220703125</ele>
        <time>2026-08-22T01:40:50.000Z</time>
        <extensions>
          <ns3:TrackPointExtension>
            <ns3:hr>115</ns3:hr>
            <ns3:cad>61</ns3:cad>
          </ns3:TrackPointExtension>
        </extensions>
      </trkpt>
      <trkpt lat="45.26413514278829097747802734375" lon="-71.12695888616144657135009765625">
        <ele>723</ele>
        <time>2026-08-22T01:40:51.000Z</time>
        <extensions>
          <ns3:TrackPointExtension>
            <ns3:hr>114</ns3:hr>
            <ns3:cad>61</ns3:cad>
          </ns3:TrackPointExtension>
        </extensions>
      </trkpt>
      <trkpt lat="45.2641434408724308013916015625" lon="-71.12697112374007701873779296875">
        <ele>722.5999755859375</ele>
        <time>2026-08-22T01:40:52.000Z</time>
        <extensions>
          <ns3:TrackPointExtension>
            <ns3:hr>114</ns3:hr>
            <ns3:cad>0</ns3:cad>
          </ns3:TrackPointExtension>
        </extensions>
      </trkpt>
      <trkpt lat="45.26415056549012660980224609375" lon="-71.1269817687571048736572265625">
        <ele>722.4000244140625</ele>
        <time>2026-08-22T01:40:53.000Z</time>
        <extensions>
          <ns3:TrackPointExtension>
            <ns3:hr>113</ns3:hr>
            <ns3:cad>0</ns3:cad>
          </ns3:TrackPointExtension>
        </extensions>
      </trkpt>
      <trkpt lat="45.26416070759296417236328125" lon="-71.12699409015476703643798828125">
        <ele>722</ele>
        <time>2026-08-22T01:40:54.000Z</time>
        <extensions>
          <ns3:TrackPointExtension>
            <ns3:hr>113</ns3:hr>
            <ns3:cad>0</ns3:cad>
          </ns3:TrackPointExtension>
        </extensions>
      </trkpt>
      <trkpt lat="45.264171101152896881103515625" lon="-71.1270065791904926300048828125">
        <ele>721.79998779296875</ele>
        <time>2026-08-22T01:40:55.000Z</time>
        <extensions>
          <ns3:TrackPointExtension>
            <ns3:hr>112</ns3:hr>
            <ns3:cad>0</ns3:cad>
          </ns3:TrackPointExtension>
        </extensions>
      </trkpt>
      <trkpt lat="45.26418224908411502838134765625" lon="-71.12701437436044216156005859375">
        <ele>721.5999755859375</ele>
        <time>2026-08-22T01:40:56.000Z</time>
        <extensions>
          <ns3:TrackPointExtension>
            <ns3:hr>112</ns3:hr>
            <ns3:cad>0</ns3:cad>
          </ns3:TrackPointExtension>
        </extensions>
      </trkpt>
      <trkpt lat="45.2641989290714263916015625" lon="-71.1270196549594402313232421875">
        <ele>721.4000244140625</ele>
        <time>2026-08-22T01:40:57.000Z</time>
        <extensions>
          <ns3:TrackPointExtension>
            <ns3:hr>112</ns3:hr>
            <ns3:cad>58</ns3:cad>
          </ns3:TrackPointExtension>
        </extensions>
      </trkpt>
      <trkpt lat="45.26421091519296169281005859375" lon="-71.1270230077207088470458984375">
        <ele>721.20001220703125</ele>
        <time>2026-08-22T01:40:58.000Z</time>
        <extensions>
          <ns3:TrackPointExtension>
            <ns3:hr>111</ns3:hr>
            <ns3:cad>58</ns3:cad>
          </ns3:TrackPointExtension>
        </extensions>
      </trkpt>
      <trkpt lat="45.26422382332384586334228515625" lon="-71.12702745012938976287841796875">
        <ele>721</ele>
        <time>2026-08-22T01:40:59.000Z</time>
        <extensions>
          <ns3:TrackPointExtension>
            <ns3:hr>110</ns3:hr>
            <ns3:cad>58</ns3:cad>
          </ns3:TrackPointExtension>
        </extensions>
      </trkpt>
      <trkpt lat="45.26423689909279346466064453125" lon="-71.1270290426909923553466796875">
        <ele>720.79998779296875</ele>
        <time>2026-08-22T01:41:00.000Z</time>
        <extensions>
          <ns3:TrackPointExtension>
            <ns3:hr>109</ns3:hr>
            <ns3:cad>58</ns3:cad>
          </ns3:TrackPointExtension>
        </extensions>
      </trkpt>
      <trkpt lat="45.26425064541399478912353515625" lon="-71.1270303837954998016357421875">
        <ele>720.5999755859375</ele>
        <time>2026-08-22T01:41:01.000Z</time>
        <extensions>
          <ns3:TrackPointExtension>
            <ns3:hr>109</ns3:hr>
            <ns3:cad>58</ns3:cad>
          </ns3:TrackPointExtension>
        </extensions>
      </trkpt>
      <trkpt lat="45.264260955154895782470703125" lon="-71.12703256309032440185546875">
        <ele>720.4000244140625</ele>
        <time>2026-08-22T01:41:02.000Z</time>
        <extensions>
          <ns3:TrackPointExtension>
            <ns3:hr>109</ns3:hr>
            <ns3:cad>57</ns3:cad>
          </ns3:TrackPointExtension>
        </extensions>
      </trkpt>
      <trkpt lat="45.26427143253386020660400390625" lon="-71.12704404629766941070556640625">
        <ele>720.20001220703125</ele>
        <time>2026-08-22T01:41:03.000Z</time>
        <extensions>
          <ns3:TrackPointExtension>
            <ns3:hr>109</ns3:hr>
            <ns3:cad>57</ns3:cad>
          </ns3:TrackPointExtension>
        </extensions>
      </trkpt>
      <trkpt lat="45.26428249664604663848876953125" lon="-71.1270505003631114959716796875">
        <ele>719.79998779296875</ele>
        <time>2026-08-22T01:41:04.000Z</time>
        <extensions>
          <ns3:TrackPointExtension>
            <ns3:hr>109</ns3:hr>
            <ns3:cad>57</ns3:cad>
          </ns3:TrackPointExtension>
        </extensions>
      </trkpt>
      <trkpt lat="45.2642956562340259552001953125" lon="-71.12705293111503124237060546875">
        <ele>719.5999755859375</ele>
        <time>2026-08-22T01:41:05.000Z</time>
        <extensions>
          <ns3:TrackPointExtension>
            <ns3:hr>109</ns3:hr>
            <ns3:cad>57</ns3:cad>
          </ns3:TrackPointExtension>
        </extensions>
      </trkpt>
      <trkpt lat="45.26430881582200527191162109375" lon="-71.12705712206661701202392578125">
        <ele>719.4000244140625</ele>
        <time>2026-08-22T01:41:06.000Z</time>
        <extensions>
          <ns3:TrackPointExtension>
            <ns3:hr>109</ns3:hr>
            <ns3:cad>57</ns3:cad>
          </ns3:TrackPointExtension>
        </extensions>
      </trkpt>
      <trkpt lat="45.264320634305477142333984375" lon="-71.12706097774207592010498046875">
        <ele>719.4000244140625</ele>
        <time>2026-08-22T01:41:07.000Z</time>
        <extensions>
          <ns3:TrackPointExtension>
            <ns3:hr>109</ns3:hr>
            <ns3:cad>59</ns3:cad>
          </ns3:TrackPointExtension>
        </extensions>
      </trkpt>
      <trkpt lat="45.26433429680764675140380859375" lon="-71.12706064246594905853271484375">
        <ele>719.20001220703125</ele>
        <time>2026-08-22T01:41:08.000Z</time>
        <extensions>
          <ns3:TrackPointExtension>
            <ns3:hr>110</ns3:hr>
            <ns3:cad>59</ns3:cad>
          </ns3:TrackPointExtension>
        </extensions>
      </trkpt>
      <trkpt lat="45.26434703730046749114990234375" lon="-71.127063073217868804931640625">
        <ele>719</ele>
        <time>2026-08-22T01:41:09.000Z</time>
        <extensions>
          <ns3:TrackPointExtension>
            <ns3:hr>110</ns3:hr>
            <ns3:cad>58</ns3:cad>
          </ns3:TrackPointExtension>
        </extensions>
      </trkpt>
      <trkpt lat="45.26436028070747852325439453125" lon="-71.12706684507429599761962890625">
        <ele>718.79998779296875</ele>
        <time>2026-08-22T01:41:10.000Z</time>
        <extensions>
          <ns3:TrackPointExtension>
            <ns3:hr>110</ns3:hr>
            <ns3:cad>58</ns3:cad>
          </ns3:TrackPointExtension>
        </extensions>
      </trkpt>
      <trkpt lat="45.2643704228103160858154296875" lon="-71.12706466577947139739990234375">
        <ele>718.5999755859375</ele>
        <time>2026-08-22T01:41:11.000Z</time>
        <extensions>
          <ns3:TrackPointExtension>
            <ns3:hr>111</ns3:hr>
            <ns3:cad>58</ns3:cad>
          </ns3:TrackPointExtension>
        </extensions>
      </trkpt>
      <trkpt lat="45.26438324712216854095458984375" lon="-71.127061061561107635498046875">
        <ele>718.4000244140625</ele>
        <time>2026-08-22T01:41:12.000Z</time>
        <extensions>
          <ns3:TrackPointExtension>
            <ns3:hr>111</ns3:hr>
            <ns3:cad>58</ns3:cad>
          </ns3:TrackPointExtension>
        </extensions>
      </trkpt>
      <trkpt lat="45.2643972449004650115966796875" lon="-71.1270568706095218658447265625">
        <ele>718.4000244140625</ele>
        <time>2026-08-22T01:41:13.000Z</time>
        <extensions>
          <ns3:TrackPointExtension>
            <ns3:hr>111</ns3:hr>
            <ns3:cad>58</ns3:cad>
          </ns3:TrackPointExtension>
        </extensions>
      </trkpt>
      <trkpt lat="45.26440788991749286651611328125" lon="-71.12705670297145843505859375">
        <ele>718.20001220703125</ele>
        <time>2026-08-22T01:41:14.000Z</time>
        <extensions>
          <ns3:TrackPointExtension>
            <ns3:hr>111</ns3:hr>
            <ns3:cad>58</ns3:cad>
          </ns3:TrackPointExtension>
        </extensions>
      </trkpt>
      <trkpt lat="45.26442666538059711456298828125" lon="-71.12705804407596588134765625">
        <ele>718</ele>
        <time>2026-08-22T01:41:15.000Z</time>
        <extensions>
          <ns3:TrackPointExtension>
            <ns3:hr>111</ns3:hr>
            <ns3:cad>58</ns3:cad>
          </ns3:TrackPointExtension>
        </extensions>
      </trkpt>
      <trkpt lat="45.26444057933986186981201171875" lon="-71.1270565353333950042724609375">
        <ele>717.79998779296875</ele>
        <time>2026-08-22T01:41:16.000Z</time>
        <extensions>
          <ns3:TrackPointExtension>
            <ns3:hr>112</ns3:hr>
            <ns3:cad>0</ns3:cad>
          </ns3:TrackPointExtension>
        </extensions>
      </trkpt>
      <trkpt lat="45.26444728486239910125732421875" lon="-71.12705410458147525787353515625">
        <ele>717.5999755859375</ele>
        <time>2026-08-22T01:41:17.000Z</time>
        <extensions>
          <ns3:TrackPointExtension>
            <ns3:hr>111</ns3:hr>
            <ns3:cad>0</ns3:cad>
          </ns3:TrackPointExtension>
        </extensions>
      </trkpt>
      <trkpt lat="45.26445130817592144012451171875" lon="-71.1270618997514247894287109375">
        <ele>717.20001220703125</ele>
        <time>2026-08-22T01:41:18.000Z</time>
        <extensions>
          <ns3:TrackPointExtension>
            <ns3:hr>112</ns3:hr>
            <ns3:cad>0</ns3:cad>
          </ns3:TrackPointExtension>
        </extensions>
      </trkpt>
      <trkpt lat="45.26445315219461917877197265625" lon="-71.12706583924591541290283203125">
        <ele>717</ele>
        <time>2026-08-22T01:41:19.000Z</time>
        <extensions>
          <ns3:TrackPointExtension>
            <ns3:hr>112</ns3:hr>
            <ns3:cad>0</ns3:cad>
          </ns3:TrackPointExtension>
        </extensions>
      </trkpt>
      <trkpt lat="45.26445667259395122528076171875" lon="-71.12707656808197498321533203125">
        <ele>716.79998779296875</ele>
        <time>2026-08-22T01:41:20.000Z</time>
        <extensions>
          <ns3:TrackPointExtension>
            <ns3:hr>113</ns3:hr>
            <ns3:cad>0</ns3:cad>
          </ns3:TrackPointExtension>
        </extensions>
      </trkpt>
      <trkpt lat="45.2644632942974567413330078125" lon="-71.12708545289933681488037109375">
        <ele>716.4000244140625</ele>
        <time>2026-08-22T01:41:21.000Z</time>
        <extensions>
          <ns3:TrackPointExtension>
            <ns3:hr>113</ns3:hr>
            <ns3:cad>0</ns3:cad>
          </ns3:TrackPointExtension>
        </extensions>
      </trkpt>
      <trkpt lat="45.2644669823348522186279296875" lon="-71.1270803399384021759033203125">
        <ele>716</ele>
        <time>2026-08-22T01:41:22.000Z</time>
        <extensions>
          <ns3:TrackPointExtension>
            <ns3:hr>114</ns3:hr>
            <ns3:cad>0</ns3:cad>
          </ns3:TrackPointExtension>
        </extensions>
      </trkpt>
      <trkpt lat="45.264478214085102081298828125" lon="-71.12708310596644878387451171875">
        <ele>715.5999755859375</ele>
        <time>2026-08-22T01:41:23.000Z</time>
        <extensions>
          <ns3:TrackPointExtension>
            <ns3:hr>114</ns3:hr>
            <ns3:cad>0</ns3:cad>
          </ns3:TrackPointExtension>
        </extensions>
      </trkpt>
      <trkpt lat="45.26448617689311504364013671875" lon="-71.12709023058414459228515625">
        <ele>715.20001220703125</ele>
        <time>2026-08-22T01:41:24.000Z</time>
        <extensions>
          <ns3:TrackPointExtension>
            <ns3:hr>114</ns3:hr>
            <ns3:cad>0</ns3:cad>
          </ns3:TrackPointExtension>
        </extensions>
      </trkpt>
      <trkpt lat="45.26449455879628658294677734375" lon="-71.12709685228765010833740234375">
        <ele>715</ele>
        <time>2026-08-22T01:41:25.000Z</time>
        <extensions>
          <ns3:TrackPointExtension>
            <ns3:hr>114</ns3:hr>
            <ns3:cad>0</ns3:cad>
          </ns3:TrackPointExtension>
        </extensions>
      </trkpt>
      <trkpt lat="45.26450713165104389190673828125" lon="-71.1271085031330585479736328125">
        <ele>714.5999755859375</ele>
        <time>2026-08-22T01:41:26.000Z</time>
        <extensions>
          <ns3:TrackPointExtension>
            <ns3:hr>114</ns3:hr>
            <ns3:cad>0</ns3:cad>
          </ns3:TrackPointExtension>
        </extensions>
      </trkpt>
      <trkpt lat="45.26452238671481609344482421875" lon="-71.127116046845912933349609375">
        <ele>714.20001220703125</ele>
        <time>2026-08-22T01:41:27.000Z</time>
        <extensions>
          <ns3:TrackPointExtension>
            <ns3:hr>114</ns3:hr>
            <ns3:cad>0</ns3:cad>
          </ns3:TrackPointExtension>
        </extensions>
      </trkpt>
      <trkpt lat="45.26453713886439800262451171875" lon="-71.1271209083497524261474609375">
        <ele>714</ele>
        <time>2026-08-22T01:41:28.000Z</time>
        <extensions>
          <ns3:TrackPointExtension>
            <ns3:hr>114</ns3:hr>
            <ns3:cad>0</ns3:cad>
          </ns3:TrackPointExtension>
        </extensions>
      </trkpt>
      <trkpt lat="45.264551974833011627197265625" lon="-71.12712803296744823455810546875">
        <ele>713.5999755859375</ele>
        <time>2026-08-22T01:41:29.000Z</time>
        <extensions>
          <ns3:TrackPointExtension>
            <ns3:hr>114</ns3:hr>
            <ns3:cad>0</ns3:cad>
          </ns3:TrackPointExtension>
        </extensions>
      </trkpt>
      <trkpt lat="45.2645622007548809051513671875" lon="-71.1271364986896514892578125">
        <ele>713.5999755859375</ele>
        <time>2026-08-22T01:41:30.000Z</time>
        <extensions>
          <ns3:TrackPointExtension>
            <ns3:hr>114</ns3:hr>
            <ns3:cad>0</ns3:cad>
          </ns3:TrackPointExtension>
        </extensions>
      </trkpt>
      <trkpt lat="45.2645782940089702606201171875" lon="-71.1271433718502521514892578125">
        <ele>713.4000244140625</ele>
        <time>2026-08-22T01:41:31.000Z</time>
        <extensions>
          <ns3:TrackPointExtension>
            <ns3:hr>114</ns3:hr>
            <ns3:cad>74</ns3:cad>
          </ns3:TrackPointExtension>
        </extensions>
      </trkpt>
      <trkpt lat="45.26458893902599811553955078125" lon="-71.127143539488315582275390625">
        <ele>713.4000244140625</ele>
        <time>2026-08-22T01:41:32.000Z</time>
        <extensions>
          <ns3:TrackPointExtension>
            <ns3:hr>114</ns3:hr>
            <ns3:cad>74</ns3:cad>
          </ns3:TrackPointExtension>
        </extensions>
      </trkpt>
      <trkpt lat="45.264594890177249908447265625" lon="-71.12714127637445926666259765625">
        <ele>713.5999755859375</ele>
        <time>2026-08-22T01:41:33.000Z</time>
        <extensions>
          <ns3:TrackPointExtension>
            <ns3:hr>115</ns3:hr>
            <ns3:cad>74</ns3:cad>
          </ns3:TrackPointExtension>
        </extensions>
      </trkpt>
      <trkpt lat="45.2645940519869327545166015625" lon="-71.12712903879582881927490234375">
        <ele>713.5999755859375</ele>
        <time>2026-08-22T01:41:34.000Z</time>
        <extensions>
          <ns3:TrackPointExtension>
            <ns3:hr>115</ns3:hr>
            <ns3:cad>74</ns3:cad>
          </ns3:TrackPointExtension>
        </extensions>
      </trkpt>
      <trkpt lat="45.2645960636436939239501953125" lon="-71.1271256022155284881591796875">
        <ele>713.5999755859375</ele>
        <time>2026-08-22T01:41:35.000Z</time>
        <extensions>
          <ns3:TrackPointExtension>
            <ns3:hr>115</ns3:hr>
            <ns3:cad>0</ns3:cad>
          </ns3:TrackPointExtension>
        </extensions>
      </trkpt>
      <trkpt lat="45.26459178887307643890380859375" lon="-71.1271199025213718414306640625">
        <ele>713.5999755859375</ele>
        <time>2026-08-22T01:41:36.000Z</time>
        <extensions>
          <ns3:TrackPointExtension>
            <ns3:hr>115</ns3:hr>
            <ns3:cad>0</ns3:cad>
          </ns3:TrackPointExtension>
        </extensions>
      </trkpt>
      <trkpt lat="45.264575779438018798828125" lon="-71.12711160443723201751708984375">
        <ele>713.5999755859375</ele>
        <time>2026-08-22T01:41:37.000Z</time>
        <extensions>
          <ns3:TrackPointExtension>
            <ns3:hr>114</ns3:hr>
            <ns3:cad>0</ns3:cad>
          </ns3:TrackPointExtension>
        </extensions>
      </trkpt>
      <trkpt lat="45.26456572115421295166015625" lon="-71.12711177207529544830322265625">
        <ele>713.5999755859375</ele>
        <time>2026-08-22T01:41:38.000Z</time>
        <extensions>
          <ns3:TrackPointExtension>
            <ns3:hr>114</ns3:hr>
            <ns3:cad>0</ns3:cad>
          </ns3:TrackPointExtension>
        </extensions>
      </trkpt>
      <trkpt lat="45.2645575068891048431396484375" lon="-71.1271199025213718414306640625">
        <ele>713.4000244140625</ele>
        <time>2026-08-22T01:41:39.000Z</time>
        <extensions>
          <ns3:TrackPointExtension>
            <ns3:hr>112</ns3:hr>
            <ns3:cad>0</ns3:cad>
          </ns3:TrackPointExtension>
        </extensions>
      </trkpt>
      <trkpt lat="45.2645409107208251953125" lon="-71.12712669186294078826904296875">
        <ele>713.20001220703125</ele>
        <time>2026-08-22T01:41:40.000Z</time>
        <extensions>
          <ns3:TrackPointExtension>
            <ns3:hr>111</ns3:hr>
            <ns3:cad>45</ns3:cad>
          </ns3:TrackPointExtension>
        </extensions>
      </trkpt>
      <trkpt lat="45.264530517160892486572265625" lon="-71.1271336488425731658935546875">
        <ele>713</ele>
        <time>2026-08-22T01:41:41.000Z</time>
        <extensions>
          <ns3:TrackPointExtension>
            <ns3:hr>111</ns3:hr>
            <ns3:cad>45</ns3:cad>
          </ns3:TrackPointExtension>
        </extensions>
      </trkpt>
      <trkpt lat="45.2645226381719112396240234375" lon="-71.1271427012979984283447265625">
        <ele>712.79998779296875</ele>
        <time>2026-08-22T01:41:42.000Z</time>
        <extensions>
          <ns3:TrackPointExtension>
            <ns3:hr>111</ns3:hr>
            <ns3:cad>45</ns3:cad>
          </ns3:TrackPointExtension>
        </extensions>
      </trkpt>
      <trkpt lat="45.26451651938259601593017578125" lon="-71.12715569324791431427001953125">
        <ele>712.4000244140625</ele>
        <time>2026-08-22T01:41:43.000Z</time>
        <extensions>
          <ns3:TrackPointExtension>
            <ns3:hr>111</ns3:hr>
            <ns3:cad>45</ns3:cad>
          </ns3:TrackPointExtension>
        </extensions>
      </trkpt>
      <trkpt lat="45.26450537145137786865234375" lon="-71.12716256640851497650146484375">
        <ele>712</ele>
        <time>2026-08-22T01:41:44.000Z</time>
        <extensions>
          <ns3:TrackPointExtension>
            <ns3:hr>111</ns3:hr>
            <ns3:cad>45</ns3:cad>
          </ns3:TrackPointExtension>
        </extensions>
      </trkpt>
      <trkpt lat="45.26450025849044322967529296875" lon="-71.1271691881120204925537109375">
        <ele>711.79998779296875</ele>
        <time>2026-08-22T01:41:45.000Z</time>
        <extensions>
          <ns3:TrackPointExtension>
            <ns3:hr>110</ns3:hr>
            <ns3:cad>45</ns3:cad>
          </ns3:TrackPointExtension>
        </extensions>
      </trkpt>
      <trkpt lat="45.26449288241565227508544921875" lon="-71.12717916257679462432861328125">
        <ele>711.4000244140625</ele>
        <time>2026-08-22T01:41:46.000Z</time>
        <extensions>
          <ns3:TrackPointExtension>
            <ns3:hr>111</ns3:hr>
            <ns3:cad>45</ns3:cad>
          </ns3:TrackPointExtension>
        </extensions>
      </trkpt>
      <trkpt lat="45.26448684744536876678466796875" lon="-71.127193160355091094970703125">
        <ele>711.20001220703125</ele>
        <time>2026-08-22T01:41:47.000Z</time>
        <extensions>
          <ns3:TrackPointExtension>
            <ns3:hr>111</ns3:hr>
            <ns3:cad>0</ns3:cad>
          </ns3:TrackPointExtension>
        </extensions>
      </trkpt>
      <trkpt lat="45.26448114775121212005615234375" lon="-71.1272062361240386962890625">
        <ele>710.79998779296875</ele>
        <time>2026-08-22T01:41:48.000Z</time>
        <extensions>
          <ns3:TrackPointExtension>
            <ns3:hr>111</ns3:hr>
            <ns3:cad>0</ns3:cad>
          </ns3:TrackPointExtension>
        </extensions>
      </trkpt>
      <trkpt lat="45.2644736878573894500732421875" lon="-71.127223670482635498046875">
        <ele>710.5999755859375</ele>
        <time>2026-08-22T01:41:49.000Z</time>
        <extensions>
          <ns3:TrackPointExtension>
            <ns3:hr>111</ns3:hr>
            <ns3:cad>0</ns3:cad>
          </ns3:TrackPointExtension>
        </extensions>
      </trkpt>
      <trkpt lat="45.26446941308677196502685546875" lon="-71.12723104655742645263671875">
        <ele>710.4000244140625</ele>
        <time>2026-08-22T01:41:50.000Z</time>
        <extensions>
          <ns3:TrackPointExtension>
            <ns3:hr>112</ns3:hr>
            <ns3:cad>0</ns3:cad>
          </ns3:TrackPointExtension>
        </extensions>
      </trkpt>
      <trkpt lat="45.26446371339261531829833984375" lon="-71.1272469721734523773193359375">
        <ele>710</ele>
        <time>2026-08-22T01:41:51.000Z</time>
        <extensions>
          <ns3:TrackPointExtension>
            <ns3:hr>112</ns3:hr>
            <ns3:cad>0</ns3:cad>
          </ns3:TrackPointExtension>
        </extensions>
      </trkpt>
      <trkpt lat="45.26445667259395122528076171875" lon="-71.12726046703755855560302734375">
        <ele>709.5999755859375</ele>
        <time>2026-08-22T01:41:52.000Z</time>
        <extensions>
          <ns3:TrackPointExtension>
            <ns3:hr>112</ns3:hr>
            <ns3:cad>67</ns3:cad>
          </ns3:TrackPointExtension>
        </extensions>
      </trkpt>
      <trkpt lat="45.26444493792951107025146484375" lon="-71.12726901657879352569580078125">
        <ele>709.4000244140625</ele>
        <time>2026-08-22T01:41:53.000Z</time>
        <extensions>
          <ns3:TrackPointExtension>
            <ns3:hr>114</ns3:hr>
            <ns3:cad>67</ns3:cad>
          </ns3:TrackPointExtension>
        </extensions>
      </trkpt>
      <trkpt lat="45.26443638838827610015869140625" lon="-71.12728393636643886566162109375">
        <ele>709</ele>
        <time>2026-08-22T01:41:54.000Z</time>
        <extensions>
          <ns3:TrackPointExtension>
            <ns3:hr>116</ns3:hr>
            <ns3:cad>67</ns3:cad>
          </ns3:TrackPointExtension>
        </extensions>
      </trkpt>
      <trkpt lat="45.2644327841699123382568359375" lon="-71.12729801796376705169677734375">
        <ele>708.79998779296875</ele>
        <time>2026-08-22T01:41:55.000Z</time>
        <extensions>
          <ns3:TrackPointExtension>
            <ns3:hr>116</ns3:hr>
            <ns3:cad>64</ns3:cad>
          </ns3:TrackPointExtension>
        </extensions>
      </trkpt>
      <trkpt lat="45.264429934322834014892578125" lon="-71.127310506999492645263671875">
        <ele>708.5999755859375</ele>
        <time>2026-08-22T01:41:56.000Z</time>
        <extensions>
          <ns3:TrackPointExtension>
            <ns3:hr>116</ns3:hr>
            <ns3:cad>64</ns3:cad>
          </ns3:TrackPointExtension>
        </extensions>
      </trkpt>
      <trkpt lat="45.26442230679094791412353515625" lon="-71.12732366658747196197509765625">
        <ele>708.20001220703125</ele>
        <time>2026-08-22T01:41:57.000Z</time>
        <extensions>
          <ns3:TrackPointExtension>
            <ns3:hr>115</ns3:hr>
            <ns3:cad>64</ns3:cad>
          </ns3:TrackPointExtension>
        </extensions>
      </trkpt>
      <trkpt lat="45.26442482136189937591552734375" lon="-71.12734998576343059539794921875">
        <ele>708</ele>
        <time>2026-08-22T01:41:58.000Z</time>
        <extensions>
          <ns3:TrackPointExtension>
            <ns3:hr>116</ns3:hr>
            <ns3:cad>0</ns3:cad>
          </ns3:TrackPointExtension>
        </extensions>
      </trkpt>
      <trkpt lat="45.26441945694386959075927734375" lon="-71.1273706890642642974853515625">
        <ele>707.5999755859375</ele>
        <time>2026-08-22T01:41:59.000Z</time>
        <extensions>
          <ns3:TrackPointExtension>
            <ns3:hr>115</ns3:hr>
            <ns3:cad>0</ns3:cad>
          </ns3:TrackPointExtension>
        </extensions>
      </trkpt>
      <trkpt lat="45.2644176967442035675048828125" lon="-71.12738669849932193756103515625">
        <ele>707.4000244140625</ele>
        <time>2026-08-22T01:42:00.000Z</time>
        <extensions>
          <ns3:TrackPointExtension>
            <ns3:hr>115</ns3:hr>
            <ns3:cad>0</ns3:cad>
          </ns3:TrackPointExtension>
        </extensions>
      </trkpt>
      <trkpt lat="45.26441493071615695953369140625" lon="-71.1273897998034954071044921875">
        <ele>707.20001220703125</ele>
        <time>2026-08-22T01:42:01.000Z</time>
        <extensions>
          <ns3:TrackPointExtension>
            <ns3:hr>115</ns3:hr>
            <ns3:cad>0</ns3:cad>
          </ns3:TrackPointExtension>
        </extensions>
      </trkpt>
      <trkpt lat="45.26440705172717571258544921875" lon="-71.12739692442119121551513671875">
        <ele>707</ele>
        <time>2026-08-22T01:42:02.000Z</time>
        <extensions>
          <ns3:TrackPointExtension>
            <ns3:hr>116</ns3:hr>
            <ns3:cad>0</ns3:cad>
          </ns3:TrackPointExtension>
        </extensions>
      </trkpt>
      <trkpt lat="45.26440084911882877349853515625" lon="-71.12740430049598217010498046875">
        <ele>706.79998779296875</ele>
        <time>2026-08-22T01:42:03.000Z</time>
        <extensions>
          <ns3:TrackPointExtension>
            <ns3:hr>116</ns3:hr>
            <ns3:cad>0</ns3:cad>
          </ns3:TrackPointExtension>
        </extensions>
      </trkpt>
      <trkpt lat="45.26440001092851161956787109375" lon="-71.1274085752665996551513671875">
        <ele>706.79998779296875</ele>
        <time>2026-08-22T01:42:04.000Z</time>
        <extensions>
          <ns3:TrackPointExtension>
            <ns3:hr>116</ns3:hr>
            <ns3:cad>0</ns3:cad>
          </ns3:TrackPointExtension>
        </extensions>
      </trkpt>
      <trkpt lat="45.26439598761498928070068359375" lon="-71.1274176277220249176025390625">
        <ele>706.5999755859375</ele>
        <time>2026-08-22T01:42:05.000Z</time>
        <extensions>
          <ns3:TrackPointExtension>
            <ns3:hr>116</ns3:hr>
            <ns3:cad>55</ns3:cad>
          </ns3:TrackPointExtension>
        </extensions>
      </trkpt>
      <trkpt lat="45.2643920481204986572265625" lon="-71.12742441706359386444091796875">
        <ele>706.20001220703125</ele>
        <time>2026-08-22T01:42:06.000Z</time>
        <extensions>
          <ns3:TrackPointExtension>
            <ns3:hr>116</ns3:hr>
            <ns3:cad>55</ns3:cad>
          </ns3:TrackPointExtension>
        </extensions>
      </trkpt>
      <trkpt lat="45.26438861154019832611083984375" lon="-71.12743179313838481903076171875">
        <ele>706</ele>
        <time>2026-08-22T01:42:07.000Z</time>
        <extensions>
          <ns3:TrackPointExtension>
            <ns3:hr>116</ns3:hr>
            <ns3:cad>55</ns3:cad>
          </ns3:TrackPointExtension>
        </extensions>
      </trkpt>
      <trkpt lat="45.264387689530849456787109375" lon="-71.1274377442896366119384765625">
        <ele>705.5999755859375</ele>
        <time>2026-08-22T01:42:08.000Z</time>
        <extensions>
          <ns3:TrackPointExtension>
            <ns3:hr>116</ns3:hr>
            <ns3:cad>55</ns3:cad>
          </ns3:TrackPointExtension>
        </extensions>
      </trkpt>
      <trkpt lat="45.26438643224537372589111328125" lon="-71.127443946897983551025390625">
        <ele>705.4000244140625</ele>
        <time>2026-08-22T01:42:09.000Z</time>
        <extensions>
          <ns3:TrackPointExtension>
            <ns3:hr>115</ns3:hr>
            <ns3:cad>55</ns3:cad>
          </ns3:TrackPointExtension>
        </extensions>
      </trkpt>
      <trkpt lat="45.26438534259796142578125" lon="-71.12745308317244052886962890625">
        <ele>705.20001220703125</ele>
        <time>2026-08-22T01:42:10.000Z</time>
        <extensions>
          <ns3:TrackPointExtension>
            <ns3:hr>115</ns3:hr>
            <ns3:cad>55</ns3:cad>
          </ns3:TrackPointExtension>
        </extensions>
      </trkpt>
      <trkpt lat="45.26437721215188503265380859375" lon="-71.12746800296008586883544921875">
        <ele>704.79998779296875</ele>
        <time>2026-08-22T01:42:11.000Z</time>
        <extensions>
          <ns3:TrackPointExtension>
            <ns3:hr>114</ns3:hr>
            <ns3:cad>55</ns3:cad>
          </ns3:TrackPointExtension>
        </extensions>
      </trkpt>
      <trkpt lat="45.26437394320964813232421875" lon="-71.12748024053871631622314453125">
        <ele>704.4000244140625</ele>
        <time>2026-08-22T01:42:12.000Z</time>
        <extensions>
          <ns3:TrackPointExtension>
            <ns3:hr>112</ns3:hr>
            <ns3:cad>55</ns3:cad>
          </ns3:TrackPointExtension>
        </extensions>
      </trkpt>
      <trkpt lat="45.2643731050193309783935546875" lon="-71.12749231047928333282470703125">
        <ele>704.20001220703125</ele>
        <time>2026-08-22T01:42:13.000Z</time>
        <extensions>
          <ns3:TrackPointExtension>
            <ns3:hr>111</ns3:hr>
            <ns3:cad>55</ns3:cad>
          </ns3:TrackPointExtension>
        </extensions>
      </trkpt>
      <trkpt lat="45.2643704228103160858154296875" lon="-71.12750639207661151885986328125">
        <ele>703.5999755859375</ele>
        <time>2026-08-22T01:42:14.000Z</time>
        <extensions>
          <ns3:TrackPointExtension>
            <ns3:hr>108</ns3:hr>
            <ns3:cad>55</ns3:cad>
          </ns3:TrackPointExtension>
        </extensions>
      </trkpt>
      <trkpt lat="45.264365561306476593017578125" lon="-71.12752114422619342803955078125">
        <ele>703.20001220703125</ele>
        <time>2026-08-22T01:42:15.000Z</time>
        <extensions>
          <ns3:TrackPointExtension>
            <ns3:hr>108</ns3:hr>
            <ns3:cad>55</ns3:cad>
          </ns3:TrackPointExtension>
        </extensions>
      </trkpt>
      <trkpt lat="45.26436128653585910797119140625" lon="-71.1275413446128368377685546875">
        <ele>702.5999755859375</ele>
        <time>2026-08-22T01:42:16.000Z</time>
        <extensions>
          <ns3:TrackPointExtension>
            <ns3:hr>108</ns3:hr>
            <ns3:cad>41</ns3:cad>
          </ns3:TrackPointExtension>
        </extensions>
      </trkpt>
      <trkpt lat="45.26435424573719501495361328125" lon="-71.12755718640983104705810546875">
        <ele>702.20001220703125</ele>
        <time>2026-08-22T01:42:17.000Z</time>
        <extensions>
          <ns3:TrackPointExtension>
            <ns3:hr>108</ns3:hr>
            <ns3:cad>41</ns3:cad>
          </ns3:TrackPointExtension>
        </extensions>
      </trkpt>
      <trkpt lat="45.26434837840497493743896484375" lon="-71.12757193855941295623779296875">
        <ele>701.5999755859375</ele>
        <time>2026-08-22T01:42:18.000Z</time>
        <extensions>
          <ns3:TrackPointExtension>
            <ns3:hr>108</ns3:hr>
            <ns3:cad>41</ns3:cad>
          </ns3:TrackPointExtension>
        </extensions>
      </trkpt>
      <trkpt lat="45.26434217579662799835205078125" lon="-71.127586774528026580810546875">
        <ele>701.20001220703125</ele>
        <time>2026-08-22T01:42:19.000Z</time>
        <extensions>
          <ns3:TrackPointExtension>
            <ns3:hr>108</ns3:hr>
            <ns3:cad>41</ns3:cad>
          </ns3:TrackPointExtension>
        </extensions>
      </trkpt>
      <trkpt lat="45.2643338777124881744384765625" lon="-71.1275978386402130126953125">
        <ele>700.79998779296875</ele>
        <time>2026-08-22T01:42:20.000Z</time>
        <extensions>
          <ns3:TrackPointExtension>
            <ns3:hr>108</ns3:hr>
            <ns3:cad>41</ns3:cad>
          </ns3:TrackPointExtension>
        </extensions>
      </trkpt>
      <trkpt lat="45.26432641781866550445556640625" lon="-71.12760898657143115997314453125">
        <ele>700.4000244140625</ele>
        <time>2026-08-22T01:42:21.000Z</time>
        <extensions>
          <ns3:TrackPointExtension>
            <ns3:hr>109</ns3:hr>
            <ns3:cad>78</ns3:cad>
          </ns3:TrackPointExtension>
        </extensions>
      </trkpt>
      <trkpt lat="45.26432096958160400390625" lon="-71.1276204697787761688232421875">
        <ele>700</ele>
        <time>2026-08-22T01:42:22.000Z</time>
        <extensions>
          <ns3:TrackPointExtension>
            <ns3:hr>109</ns3:hr>
            <ns3:cad>78</ns3:cad>
          </ns3:TrackPointExtension>
        </extensions>
      </trkpt>
      <trkpt lat="45.264319963753223419189453125" lon="-71.12763379700481891632080078125">
        <ele>699.79998779296875</ele>
        <time>2026-08-22T01:42:23.000Z</time>
        <extensions>
          <ns3:TrackPointExtension>
            <ns3:hr>110</ns3:hr>
            <ns3:cad>78</ns3:cad>
          </ns3:TrackPointExtension>
        </extensions>
      </trkpt>
      <trkpt lat="45.26431501843035221099853515625" lon="-71.1276486329734325408935546875">
        <ele>699.4000244140625</ele>
        <time>2026-08-22T01:42:24.000Z</time>
        <extensions>
          <ns3:TrackPointExtension>
            <ns3:hr>110</ns3:hr>
            <ns3:cad>78</ns3:cad>
          </ns3:TrackPointExtension>
        </extensions>
      </trkpt>
      <trkpt lat="45.26430613361299037933349609375" lon="-71.12765659578144550323486328125">
        <ele>699.20001220703125</ele>
        <time>2026-08-22T01:42:25.000Z</time>
        <extensions>
          <ns3:TrackPointExtension>
            <ns3:hr>110</ns3:hr>
            <ns3:cad>78</ns3:cad>
          </ns3:TrackPointExtension>
        </extensions>
      </trkpt>
      <trkpt lat="45.26429557241499423980712890625" lon="-71.1276694200932979583740234375">
        <ele>699</ele>
        <time>2026-08-22T01:42:26.000Z</time>
        <extensions>
          <ns3:TrackPointExtension>
            <ns3:hr>111</ns3:hr>
            <ns3:cad>56</ns3:cad>
          </ns3:TrackPointExtension>
        </extensions>
      </trkpt>
      <trkpt lat="45.2642933093011379241943359375" lon="-71.12768710590898990631103515625">
        <ele>698.5999755859375</ele>
        <time>2026-08-22T01:42:27.000Z</time>
        <extensions>
          <ns3:TrackPointExtension>
            <ns3:hr>112</ns3:hr>
            <ns3:cad>56</ns3:cad>
          </ns3:TrackPointExtension>
        </extensions>
      </trkpt>
      <trkpt lat="45.26429993100464344024658203125" lon="-71.127706803381443023681640625">
        <ele>698.4000244140625</ele>
        <time>2026-08-22T01:42:28.000Z</time>
        <extensions>
          <ns3:TrackPointExtension>
            <ns3:hr>113</ns3:hr>
            <ns3:cad>56</ns3:cad>
          </ns3:TrackPointExtension>
        </extensions>
      </trkpt>
      <trkpt lat="45.264295823872089385986328125" lon="-71.12772147171199321746826171875">
        <ele>698.20001220703125</ele>
        <time>2026-08-22T01:42:29.000Z</time>
        <extensions>
          <ns3:TrackPointExtension>
            <ns3:hr>113</ns3:hr>
            <ns3:cad>56</ns3:cad>
          </ns3:TrackPointExtension>
        </extensions>
      </trkpt>
      <trkpt lat="45.2642939798533916473388671875" lon="-71.127725578844547271728515625">
        <ele>698</ele>
        <time>2026-08-22T01:42:30.000Z</time>
        <extensions>
          <ns3:TrackPointExtension>
            <ns3:hr>114</ns3:hr>
            <ns3:cad>56</ns3:cad>
          </ns3:TrackPointExtension>
        </extensions>
      </trkpt>
      <trkpt lat="45.2642916329205036163330078125" lon="-71.1277247406542301177978515625">
        <ele>697.79998779296875</ele>
        <time>2026-08-22T01:42:31.000Z</time>
        <extensions>
          <ns3:TrackPointExtension>
            <ns3:hr>114</ns3:hr>
            <ns3:cad>60</ns3:cad>
          </ns3:TrackPointExtension>
        </extensions>
      </trkpt>
      <trkpt lat="45.26428199373185634613037109375" lon="-71.1277371458709239959716796875">
        <ele>697.5999755859375</ele>
        <time>2026-08-22T01:42:32.000Z</time>
        <extensions>
          <ns3:TrackPointExtension>
            <ns3:hr>114</ns3:hr>
            <ns3:cad>60</ns3:cad>
          </ns3:TrackPointExtension>
        </extensions>
      </trkpt>
      <trkpt lat="45.2642748691141605377197265625" lon="-71.12774494104087352752685546875">
        <ele>697.5999755859375</ele>
        <time>2026-08-22T01:42:33.000Z</time>
        <extensions>
          <ns3:TrackPointExtension>
            <ns3:hr>113</ns3:hr>
            <ns3:cad>60</ns3:cad>
          </ns3:TrackPointExtension>
        </extensions>
      </trkpt>
      <trkpt lat="45.26426942087709903717041015625" lon="-71.12774980254471302032470703125">
        <ele>697.4000244140625</ele>
        <time>2026-08-22T01:42:34.000Z</time>
        <extensions>
          <ns3:TrackPointExtension>
            <ns3:hr>113</ns3:hr>
            <ns3:cad>60</ns3:cad>
          </ns3:TrackPointExtension>
        </extensions>
      </trkpt>
      <trkpt lat="45.26426824741065502166748046875" lon="-71.12775432877242565155029296875">
        <ele>697.20001220703125</ele>
        <time>2026-08-22T01:42:35.000Z</time>
        <extensions>
          <ns3:TrackPointExtension>
            <ns3:hr>113</ns3:hr>
            <ns3:cad>60</ns3:cad>
          </ns3:TrackPointExtension>
        </extensions>
      </trkpt>
      <trkpt lat="45.264256931841373443603515625" lon="-71.12776354886591434478759765625">
        <ele>697.20001220703125</ele>
        <time>2026-08-22T01:42:36.000Z</time>
        <extensions>
          <ns3:TrackPointExtension>
            <ns3:hr>113</ns3:hr>
            <ns3:cad>65</ns3:cad>
          </ns3:TrackPointExtension>
        </extensions>
      </trkpt>
      <trkpt lat="45.26425081305205821990966796875" lon="-71.12777226604521274566650390625">
        <ele>697</ele>
        <time>2026-08-22T01:42:37.000Z</time>
        <extensions>
          <ns3:TrackPointExtension>
            <ns3:hr>114</ns3:hr>
            <ns3:cad>65</ns3:cad>
          </ns3:TrackPointExtension>
        </extensions>
      </trkpt>
      <trkpt lat="45.2642480470240116119384765625" lon="-71.127779893577098846435546875">
        <ele>696.79998779296875</ele>
        <time>2026-08-22T01:42:38.000Z</time>
        <extensions>
          <ns3:TrackPointExtension>
            <ns3:hr>114</ns3:hr>
            <ns3:cad>65</ns3:cad>
          </ns3:TrackPointExtension>
        </extensions>
      </trkpt>
      <trkpt lat="45.26424109004437923431396484375" lon="-71.1277907900512218475341796875">
        <ele>696.5999755859375</ele>
        <time>2026-08-22T01:42:39.000Z</time>
        <extensions>
          <ns3:TrackPointExtension>
            <ns3:hr>113</ns3:hr>
            <ns3:cad>65</ns3:cad>
          </ns3:TrackPointExtension>
        </extensions>
      </trkpt>
      <trkpt lat="45.26423052884638309478759765625" lon="-71.1278015188872814178466796875">
        <ele>696.4000244140625</ele>
        <time>2026-08-22T01:42:40.000Z</time>
        <extensions>
          <ns3:TrackPointExtension>
            <ns3:hr>113</ns3:hr>
            <ns3:cad>65</ns3:cad>
          </ns3:TrackPointExtension>
        </extensions>
      </trkpt>
      <trkpt lat="45.2642249129712581634521484375" lon="-71.1278043687343597412109375">
        <ele>696.4000244140625</ele>
        <time>2026-08-22T01:42:41.000Z</time>
        <extensions>
          <ns3:TrackPointExtension>
            <ns3:hr>112</ns3:hr>
            <ns3:cad>65</ns3:cad>
          </ns3:TrackPointExtension>
        </extensions>
      </trkpt>
      <trkpt lat="45.2642078138887882232666015625" lon="-71.12781316973268985748291015625">
        <ele>696.20001220703125</ele>
        <time>2026-08-22T01:42:42.000Z</time>
        <extensions>
          <ns3:TrackPointExtension>
            <ns3:hr>112</ns3:hr>
            <ns3:cad>65</ns3:cad>
          </ns3:TrackPointExtension>
        </extensions>
      </trkpt>
      <trkpt lat="45.26419959962368011474609375" lon="-71.12783261574804782867431640625">
        <ele>696.20001220703125</ele>
        <time>2026-08-22T01:42:43.000Z</time>
        <extensions>
          <ns3:TrackPointExtension>
            <ns3:hr>111</ns3:hr>
            <ns3:cad>65</ns3:cad>
          </ns3:TrackPointExtension>
        </extensions>
      </trkpt>
      <trkpt lat="45.26419415138661861419677734375" lon="-71.127849631011486053466796875">
        <ele>696.20001220703125</ele>
        <time>2026-08-22T01:42:44.000Z</time>
        <extensions>
          <ns3:TrackPointExtension>
            <ns3:hr>110</ns3:hr>
            <ns3:cad>65</ns3:cad>
          </ns3:TrackPointExtension>
        </extensions>
      </trkpt>
      <trkpt lat="45.26418694294989109039306640625" lon="-71.12786228768527507781982421875">
        <ele>696</ele>
        <time>2026-08-22T01:42:45.000Z</time>
        <extensions>
          <ns3:TrackPointExtension>
            <ns3:hr>110</ns3:hr>
            <ns3:cad>65</ns3:cad>
          </ns3:TrackPointExtension>
        </extensions>
      </trkpt>
      <trkpt lat="45.26417839340865612030029296875" lon="-71.1278679035604000091552734375">
        <ele>696</ele>
        <time>2026-08-22T01:42:46.000Z</time>
        <extensions>
          <ns3:TrackPointExtension>
            <ns3:hr>110</ns3:hr>
            <ns3:cad>65</ns3:cad>
          </ns3:TrackPointExtension>
        </extensions>
      </trkpt>
      <trkpt lat="45.2641699276864528656005859375" lon="-71.12787544727325439453125">
        <ele>696</ele>
        <time>2026-08-22T01:42:47.000Z</time>
        <extensions>
          <ns3:TrackPointExtension>
            <ns3:hr>111</ns3:hr>
            <ns3:cad>65</ns3:cad>
          </ns3:TrackPointExtension>
        </extensions>
      </trkpt>
      <trkpt lat="45.26416246779263019561767578125" lon="-71.12787905149161815643310546875">
        <ele>696</ele>
        <time>2026-08-22T01:42:48.000Z</time>
        <extensions>
          <ns3:TrackPointExtension>
            <ns3:hr>111</ns3:hr>
            <ns3:cad>0</ns3:cad>
          </ns3:TrackPointExtension>
        </extensions>
      </trkpt>
      <trkpt lat="45.26415358297526836395263671875" lon="-71.12788676284253597259521484375">
        <ele>695.79998779296875</ele>
        <time>2026-08-22T01:42:49.000Z</time>
        <extensions>
          <ns3:TrackPointExtension>
            <ns3:hr>111</ns3:hr>
            <ns3:cad>0</ns3:cad>
          </ns3:TrackPointExtension>
        </extensions>
      </trkpt>
      <trkpt lat="45.26414235122501850128173828125" lon="-71.1278950609266757965087890625">
        <ele>695.79998779296875</ele>
        <time>2026-08-22T01:42:50.000Z</time>
        <extensions>
          <ns3:TrackPointExtension>
            <ns3:hr>111</ns3:hr>
            <ns3:cad>58</ns3:cad>
          </ns3:TrackPointExtension>
        </extensions>
      </trkpt>
      <trkpt lat="45.26412558741867542266845703125" lon="-71.127901263535022735595703125">
        <ele>695.5999755859375</ele>
        <time>2026-08-22T01:42:51.000Z</time>
        <extensions>
          <ns3:TrackPointExtension>
            <ns3:hr>112</ns3:hr>
            <ns3:cad>58</ns3:cad>
          </ns3:TrackPointExtension>
        </extensions>
      </trkpt>
      <trkpt lat="45.2641129307448863983154296875" lon="-71.12790235318243503570556640625">
        <ele>695.4000244140625</ele>
        <time>2026-08-22T01:42:52.000Z</time>
        <extensions>
          <ns3:TrackPointExtension>
            <ns3:hr>112</ns3:hr>
            <ns3:cad>58</ns3:cad>
          </ns3:TrackPointExtension>
        </extensions>
      </trkpt>
      <trkpt lat="45.26409960351884365081787109375" lon="-71.1279101483523845672607421875">
        <ele>695.20001220703125</ele>
        <time>2026-08-22T01:42:53.000Z</time>
        <extensions>
          <ns3:TrackPointExtension>
            <ns3:hr>112</ns3:hr>
            <ns3:cad>41</ns3:cad>
          </ns3:TrackPointExtension>
        </extensions>
      </trkpt>
      <trkpt lat="45.2640901319682598114013671875" lon="-71.12790721468627452850341796875">
        <ele>695</ele>
        <time>2026-08-22T01:42:54.000Z</time>
        <extensions>
          <ns3:TrackPointExtension>
            <ns3:hr>112</ns3:hr>
            <ns3:cad>41</ns3:cad>
          </ns3:TrackPointExtension>
        </extensions>
      </trkpt>
      <trkpt lat="45.26407680474221706390380859375" lon="-71.12790972925722599029541015625">
        <ele>695</ele>
        <time>2026-08-22T01:42:55.000Z</time>
        <extensions>
          <ns3:TrackPointExtension>
            <ns3:hr>112</ns3:hr>
            <ns3:cad>41</ns3:cad>
          </ns3:TrackPointExtension>
        </extensions>
      </trkpt>
      <trkpt lat="45.2640648186206817626953125" lon="-71.1279185302555561065673828125">
        <ele>695</ele>
        <time>2026-08-22T01:42:56.000Z</time>
        <extensions>
          <ns3:TrackPointExtension>
            <ns3:hr>112</ns3:hr>
            <ns3:cad>41</ns3:cad>
          </ns3:TrackPointExtension>
        </extensions>
      </trkpt>
      <trkpt lat="45.26405534707009792327880859375" lon="-71.1279242299497127532958984375">
        <ele>695</ele>
        <time>2026-08-22T01:42:57.000Z</time>
        <extensions>
          <ns3:TrackPointExtension>
            <ns3:hr>113</ns3:hr>
            <ns3:cad>0</ns3:cad>
          </ns3:TrackPointExtension>
        </extensions>
      </trkpt>
      <trkpt lat="45.26404403150081634521484375" lon="-71.12793110311031341552734375">
        <ele>695</ele>
        <time>2026-08-22T01:42:58.000Z</time>
        <extensions>
          <ns3:TrackPointExtension>
            <ns3:hr>113</ns3:hr>
            <ns3:cad>0</ns3:cad>
          </ns3:TrackPointExtension>
        </extensions>
      </trkpt>
      <trkpt lat="45.26403271593153476715087890625" lon="-71.1279416643083095550537109375">
        <ele>695.20001220703125</ele>
        <time>2026-08-22T01:42:59.000Z</time>
        <extensions>
          <ns3:TrackPointExtension>
            <ns3:hr>114</ns3:hr>
            <ns3:cad>0</ns3:cad>
          </ns3:TrackPointExtension>
        </extensions>
      </trkpt>
      <trkpt lat="45.264016203582286834716796875" lon="-71.12795582972466945648193359375">
        <ele>695.20001220703125</ele>
        <time>2026-08-22T01:43:00.000Z</time>
        <extensions>
          <ns3:TrackPointExtension>
            <ns3:hr>114</ns3:hr>
            <ns3:cad>0</ns3:cad>
          </ns3:TrackPointExtension>
        </extensions>
      </trkpt>
      <trkpt lat="45.264003463089466094970703125" lon="-71.1279708333313465118408203125">
        <ele>695</ele>
        <time>2026-08-22T01:43:01.000Z</time>
        <extensions>
          <ns3:TrackPointExtension>
            <ns3:hr>114</ns3:hr>
            <ns3:cad>0</ns3:cad>
          </ns3:TrackPointExtension>
        </extensions>
      </trkpt>
      <trkpt lat="45.2639882080256938934326171875" lon="-71.1279872618615627288818359375">
        <ele>695</ele>
        <time>2026-08-22T01:43:02.000Z</time>
        <extensions>
          <ns3:TrackPointExtension>
            <ns3:hr>115</ns3:hr>
            <ns3:cad>0</ns3:cad>
          </ns3:TrackPointExtension>
        </extensions>
      </trkpt>
      <trkpt lat="45.26397504843771457672119140625" lon="-71.128004528582096099853515625">
        <ele>694.79998779296875</ele>
        <time>2026-08-22T01:43:03.000Z</time>
        <extensions>
          <ns3:TrackPointExtension>
            <ns3:hr>115</ns3:hr>
            <ns3:cad>0</ns3:cad>
          </ns3:TrackPointExtension>
        </extensions>
      </trkpt>
      <trkpt lat="45.26396398432552814483642578125" lon="-71.12802556715905666351318359375">
        <ele>694.79998779296875</ele>
        <time>2026-08-22T01:43:04.000Z</time>
        <extensions>
          <ns3:TrackPointExtension>
            <ns3:hr>115</ns3:hr>
            <ns3:cad>0</ns3:cad>
          </ns3:TrackPointExtension>
        </extensions>
      </trkpt>
      <trkpt lat="45.26395023800432682037353515625" lon="-71.1280409060418605804443359375">
        <ele>694.5999755859375</ele>
        <time>2026-08-22T01:43:05.000Z</time>
        <extensions>
          <ns3:TrackPointExtension>
            <ns3:hr>114</ns3:hr>
            <ns3:cad>64</ns3:cad>
          </ns3:TrackPointExtension>
        </extensions>
      </trkpt>
      <trkpt lat="45.26393749751150608062744140625" lon="-71.1280526407063007354736328125">
        <ele>694.5999755859375</ele>
        <time>2026-08-22T01:43:06.000Z</time>
        <extensions>
          <ns3:TrackPointExtension>
            <ns3:hr>114</ns3:hr>
            <ns3:cad>64</ns3:cad>
          </ns3:TrackPointExtension>
        </extensions>
      </trkpt>
      <trkpt lat="45.263924337923526763916015625" lon="-71.12805783748626708984375">
        <ele>694.5999755859375</ele>
        <time>2026-08-22T01:43:07.000Z</time>
        <extensions>
          <ns3:TrackPointExtension>
            <ns3:hr>115</ns3:hr>
            <ns3:cad>69</ns3:cad>
          </ns3:TrackPointExtension>
        </extensions>
      </trkpt>
      <trkpt lat="45.26391352526843547821044921875" lon="-71.12806110642850399017333984375">
        <ele>694.4000244140625</ele>
        <time>2026-08-22T01:43:08.000Z</time>
        <extensions>
          <ns3:TrackPointExtension>
            <ns3:hr>115</ns3:hr>
            <ns3:cad>69</ns3:cad>
          </ns3:TrackPointExtension>
        </extensions>
      </trkpt>
      <trkpt lat="45.2638950012624263763427734375" lon="-71.128065548837184906005859375">
        <ele>694.4000244140625</ele>
        <time>2026-08-22T01:43:09.000Z</time>
        <extensions>
          <ns3:TrackPointExtension>
            <ns3:hr>115</ns3:hr>
            <ns3:cad>69</ns3:cad>
          </ns3:TrackPointExtension>
        </extensions>
      </trkpt>
      <trkpt lat="45.26388133876025676727294921875" lon="-71.128066219389438629150390625">
        <ele>694.4000244140625</ele>
        <time>2026-08-22T01:43:10.000Z</time>
        <extensions>
          <ns3:TrackPointExtension>
            <ns3:hr>115</ns3:hr>
            <ns3:cad>69</ns3:cad>
          </ns3:TrackPointExtension>
        </extensions>
      </trkpt>
      <trkpt lat="45.263865999877452850341796875" lon="-71.12806596793234348297119140625">
        <ele>694.20001220703125</ele>
        <time>2026-08-22T01:43:11.000Z</time>
        <extensions>
          <ns3:TrackPointExtension>
            <ns3:hr>116</ns3:hr>
            <ns3:cad>69</ns3:cad>
          </ns3:TrackPointExtension>
        </extensions>
      </trkpt>
      <trkpt lat="45.263845883309841156005859375" lon="-71.128055490553379058837890625">
        <ele>694.20001220703125</ele>
        <time>2026-08-22T01:43:12.000Z</time>
        <extensions>
          <ns3:TrackPointExtension>
            <ns3:hr>115</ns3:hr>
            <ns3:cad>69</ns3:cad>
          </ns3:TrackPointExtension>
        </extensions>
      </trkpt>
      <trkpt lat="45.26383104734122753143310546875" lon="-71.12805238924920558929443359375">
        <ele>694</ele>
        <time>2026-08-22T01:43:13.000Z</time>
        <extensions>
          <ns3:TrackPointExtension>
            <ns3:hr>116</ns3:hr>
            <ns3:cad>69</ns3:cad>
          </ns3:TrackPointExtension>
        </extensions>
      </trkpt>
      <trkpt lat="45.26381813921034336090087890625" lon="-71.1280543170869350433349609375">
        <ele>694</ele>
        <time>2026-08-22T01:43:14.000Z</time>
        <extensions>
          <ns3:TrackPointExtension>
            <ns3:hr>116</ns3:hr>
            <ns3:cad>65</ns3:cad>
          </ns3:TrackPointExtension>
        </extensions>
      </trkpt>
      <trkpt lat="45.2638068236410617828369140625" lon="-71.1280499584972858428955078125">
        <ele>694</ele>
        <time>2026-08-22T01:43:15.000Z</time>
        <extensions>
          <ns3:TrackPointExtension>
            <ns3:hr>116</ns3:hr>
            <ns3:cad>65</ns3:cad>
          </ns3:TrackPointExtension>
        </extensions>
      </trkpt>
      <trkpt lat="45.26379215531051158905029296875" lon="-71.128045432269573211669921875">
        <ele>693.79998779296875</ele>
        <time>2026-08-22T01:43:16.000Z</time>
        <extensions>
          <ns3:TrackPointExtension>
            <ns3:hr>117</ns3:hr>
            <ns3:cad>65</ns3:cad>
          </ns3:TrackPointExtension>
        </extensions>
      </trkpt>
      <trkpt lat="45.263779163360595703125" lon="-71.12804987467825412750244140625">
        <ele>693.79998779296875</ele>
        <time>2026-08-22T01:43:17.000Z</time>
        <extensions>
          <ns3:TrackPointExtension>
            <ns3:hr>117</ns3:hr>
            <ns3:cad>65</ns3:cad>
          </ns3:TrackPointExtension>
        </extensions>
      </trkpt>
      <trkpt lat="45.26376415975391864776611328125" lon="-71.12805373035371303558349609375">
        <ele>693.5999755859375</ele>
        <time>2026-08-22T01:43:18.000Z</time>
        <extensions>
          <ns3:TrackPointExtension>
            <ns3:hr>118</ns3:hr>
            <ns3:cad>65</ns3:cad>
          </ns3:TrackPointExtension>
        </extensions>
      </trkpt>
      <trkpt lat="45.2637538500130176544189453125" lon="-71.1280538141727447509765625">
        <ele>693.5999755859375</ele>
        <time>2026-08-22T01:43:19.000Z</time>
        <extensions>
          <ns3:TrackPointExtension>
            <ns3:hr>118</ns3:hr>
            <ns3:cad>0</ns3:cad>
          </ns3:TrackPointExtension>
        </extensions>
      </trkpt>
      <trkpt lat="45.263735242187976837158203125" lon="-71.1280580051243305206298828125">
        <ele>693.4000244140625</ele>
        <time>2026-08-22T01:43:20.000Z</time>
        <extensions>
          <ns3:TrackPointExtension>
            <ns3:hr>118</ns3:hr>
            <ns3:cad>0</ns3:cad>
          </ns3:TrackPointExtension>
        </extensions>
      </trkpt>
      <trkpt lat="45.263714455068111419677734375" lon="-71.1280596815049648284912109375">
        <ele>693.4000244140625</ele>
        <time>2026-08-22T01:43:21.000Z</time>
        <extensions>
          <ns3:TrackPointExtension>
            <ns3:hr>118</ns3:hr>
            <ns3:cad>0</ns3:cad>
          </ns3:TrackPointExtension>
        </extensions>
      </trkpt>
      <trkpt lat="45.26369827799499034881591796875" lon="-71.1280623637139797210693359375">
        <ele>693.20001220703125</ele>
        <time>2026-08-22T01:43:22.000Z</time>
        <extensions>
          <ns3:TrackPointExtension>
            <ns3:hr>117</ns3:hr>
            <ns3:cad>0</ns3:cad>
          </ns3:TrackPointExtension>
        </extensions>
      </trkpt>
      <trkpt lat="45.2636857889592647552490234375" lon="-71.12806253135204315185546875">
        <ele>693.20001220703125</ele>
        <time>2026-08-22T01:43:23.000Z</time>
        <extensions>
          <ns3:TrackPointExtension>
            <ns3:hr>117</ns3:hr>
            <ns3:cad>0</ns3:cad>
          </ns3:TrackPointExtension>
        </extensions>
      </trkpt>
      <trkpt lat="45.263664163649082183837890625" lon="-71.12806295044720172882080078125">
        <ele>693.20001220703125</ele>
        <time>2026-08-22T01:43:24.000Z</time>
        <extensions>
          <ns3:TrackPointExtension>
            <ns3:hr>118</ns3:hr>
            <ns3:cad>72</ns3:cad>
          </ns3:TrackPointExtension>
        </extensions>
      </trkpt>
      <trkpt lat="45.2636505849659442901611328125" lon="-71.12805716693401336669921875">
        <ele>693.20001220703125</ele>
        <time>2026-08-22T01:43:25.000Z</time>
        <extensions>
          <ns3:TrackPointExtension>
            <ns3:hr>118</ns3:hr>
            <ns3:cad>72</ns3:cad>
          </ns3:TrackPointExtension>
        </extensions>
      </trkpt>
      <trkpt lat="45.2636375091969966888427734375" lon="-71.1280509643256664276123046875">
        <ele>693.20001220703125</ele>
        <time>2026-08-22T01:43:26.000Z</time>
        <extensions>
          <ns3:TrackPointExtension>
            <ns3:hr>118</ns3:hr>
            <ns3:cad>72</ns3:cad>
          </ns3:TrackPointExtension>
        </extensions>
      </trkpt>
      <trkpt lat="45.2636224217712879180908203125" lon="-71.12804249860346317291259765625">
        <ele>693.20001220703125</ele>
        <time>2026-08-22T01:43:27.000Z</time>
        <extensions>
          <ns3:TrackPointExtension>
            <ns3:hr>118</ns3:hr>
            <ns3:cad>72</ns3:cad>
          </ns3:TrackPointExtension>
        </extensions>
      </trkpt>
      <trkpt lat="45.2636069990694522857666015625" lon="-71.128039397299289703369140625">
        <ele>693.20001220703125</ele>
        <time>2026-08-22T01:43:28.000Z</time>
        <extensions>
          <ns3:TrackPointExtension>
            <ns3:hr>119</ns3:hr>
            <ns3:cad>71</ns3:cad>
          </ns3:TrackPointExtension>
        </extensions>
      </trkpt>
      <trkpt lat="45.26358780451118946075439453125" lon="-71.12804031930863857269287109375">
        <ele>693.20001220703125</ele>
        <time>2026-08-22T01:43:29.000Z</time>
        <extensions>
          <ns3:TrackPointExtension>
            <ns3:hr>118</ns3:hr>
            <ns3:cad>71</ns3:cad>
          </ns3:TrackPointExtension>
        </extensions>
      </trkpt>
      <trkpt lat="45.26357062160968780517578125" lon="-71.1280382238328456878662109375">
        <ele>693.4000244140625</ele>
        <time>2026-08-22T01:43:30.000Z</time>
        <extensions>
          <ns3:TrackPointExtension>
            <ns3:hr>118</ns3:hr>
            <ns3:cad>71</ns3:cad>
          </ns3:TrackPointExtension>
        </extensions>
      </trkpt>
      <trkpt lat="45.26355628855526447296142578125" lon="-71.1280305124819278717041015625">
        <ele>693.4000244140625</ele>
        <time>2026-08-22T01:43:31.000Z</time>
        <extensions>
          <ns3:TrackPointExtension>
            <ns3:hr>117</ns3:hr>
            <ns3:cad>71</ns3:cad>
          </ns3:TrackPointExtension>
        </extensions>
      </trkpt>
      <trkpt lat="45.263544805347919464111328125" lon="-71.12802363932132720947265625">
        <ele>693.5999755859375</ele>
        <time>2026-08-22T01:43:32.000Z</time>
        <extensions>
          <ns3:TrackPointExtension>
            <ns3:hr>117</ns3:hr>
            <ns3:cad>71</ns3:cad>
          </ns3:TrackPointExtension>
        </extensions>
      </trkpt>
      <trkpt lat="45.26353432796895503997802734375" lon="-71.128015257418155670166015625">
        <ele>693.5999755859375</ele>
        <time>2026-08-22T01:43:33.000Z</time>
        <extensions>
          <ns3:TrackPointExtension>
            <ns3:hr>118</ns3:hr>
            <ns3:cad>71</ns3:cad>
          </ns3:TrackPointExtension>
        </extensions>
      </trkpt>
      <trkpt lat="45.26352745480835437774658203125" lon="-71.12801198847591876983642578125">
        <ele>693.5999755859375</ele>
        <time>2026-08-22T01:43:34.000Z</time>
        <extensions>
          <ns3:TrackPointExtension>
            <ns3:hr>118</ns3:hr>
            <ns3:cad>71</ns3:cad>
          </ns3:TrackPointExtension>
        </extensions>
      </trkpt>
      <trkpt lat="45.26351488195359706878662109375" lon="-71.12801064737141132354736328125">
        <ele>693.5999755859375</ele>
        <time>2026-08-22T01:43:35.000Z</time>
        <extensions>
          <ns3:TrackPointExtension>
            <ns3:hr>118</ns3:hr>
            <ns3:cad>71</ns3:cad>
          </ns3:TrackPointExtension>
        </extensions>
      </trkpt>
      <trkpt lat="45.26350214146077632904052734375" lon="-71.12800243310630321502685546875">
        <ele>693.5999755859375</ele>
        <time>2026-08-22T01:43:36.000Z</time>
        <extensions>
          <ns3:TrackPointExtension>
            <ns3:hr>117</ns3:hr>
            <ns3:cad>71</ns3:cad>
          </ns3:TrackPointExtension>
        </extensions>
      </trkpt>
      <trkpt lat="45.26349023915827274322509765625" lon="-71.127996146678924560546875">
        <ele>693.5999755859375</ele>
        <time>2026-08-22T01:43:37.000Z</time>
        <extensions>
          <ns3:TrackPointExtension>
            <ns3:hr>117</ns3:hr>
            <ns3:cad>71</ns3:cad>
          </ns3:TrackPointExtension>
        </extensions>
      </trkpt>
      <trkpt lat="45.263479091227054595947265625" lon="-71.12798918969929218292236328125">
        <ele>693.4000244140625</ele>
        <time>2026-08-22T01:43:38.000Z</time>
        <extensions>
          <ns3:TrackPointExtension>
            <ns3:hr>117</ns3:hr>
            <ns3:cad>71</ns3:cad>
          </ns3:TrackPointExtension>
        </extensions>
      </trkpt>
      <trkpt lat="45.26346626691520214080810546875" lon="-71.1279845796525478363037109375">
        <ele>693.4000244140625</ele>
        <time>2026-08-22T01:43:39.000Z</time>
        <extensions>
          <ns3:TrackPointExtension>
            <ns3:hr>118</ns3:hr>
            <ns3:cad>71</ns3:cad>
          </ns3:TrackPointExtension>
        </extensions>
      </trkpt>
      <trkpt lat="45.26345193386077880859375" lon="-71.12798064015805721282958984375">
        <ele>693.4000244140625</ele>
        <time>2026-08-22T01:43:40.000Z</time>
        <extensions>
          <ns3:TrackPointExtension>
            <ns3:hr>118</ns3:hr>
            <ns3:cad>71</ns3:cad>
          </ns3:TrackPointExtension>
        </extensions>
      </trkpt>
      <trkpt lat="45.2634366787970066070556640625" lon="-71.12798013724386692047119140625">
        <ele>693.20001220703125</ele>
        <time>2026-08-22T01:43:41.000Z</time>
        <extensions>
          <ns3:TrackPointExtension>
            <ns3:hr>118</ns3:hr>
            <ns3:cad>51</ns3:cad>
          </ns3:TrackPointExtension>
        </extensions>
      </trkpt>
      <trkpt lat="45.263423435389995574951171875" lon="-71.1279808916151523590087890625">
        <ele>693.20001220703125</ele>
        <time>2026-08-22T01:43:42.000Z</time>
        <extensions>
          <ns3:TrackPointExtension>
            <ns3:hr>118</ns3:hr>
            <ns3:cad>51</ns3:cad>
          </ns3:TrackPointExtension>
        </extensions>
      </trkpt>
      <trkpt lat="45.263411365449428558349609375" lon="-71.1279815621674060821533203125">
        <ele>693</ele>
        <time>2026-08-22T01:43:43.000Z</time>
        <extensions>
          <ns3:TrackPointExtension>
            <ns3:hr>119</ns3:hr>
            <ns3:cad>0</ns3:cad>
          </ns3:TrackPointExtension>
        </extensions>
      </trkpt>
      <trkpt lat="45.2633937634527683258056640625" lon="-71.12798248417675495147705078125">
        <ele>692.79998779296875</ele>
        <time>2026-08-22T01:43:44.000Z</time>
        <extensions>
          <ns3:TrackPointExtension>
            <ns3:hr>119</ns3:hr>
            <ns3:cad>0</ns3:cad>
          </ns3:TrackPointExtension>
        </extensions>
      </trkpt>
      <trkpt lat="45.26337574236094951629638671875" lon="-71.12798416055738925933837890625">
        <ele>692.4000244140625</ele>
        <time>2026-08-22T01:43:45.000Z</time>
        <extensions>
          <ns3:TrackPointExtension>
            <ns3:hr>120</ns3:hr>
            <ns3:cad>68</ns3:cad>
          </ns3:TrackPointExtension>
        </extensions>
      </trkpt>
      <trkpt lat="45.263360403478145599365234375" lon="-71.1279840767383575439453125">
        <ele>692.20001220703125</ele>
        <time>2026-08-22T01:43:46.000Z</time>
        <extensions>
          <ns3:TrackPointExtension>
            <ns3:hr>120</ns3:hr>
            <ns3:cad>68</ns3:cad>
          </ns3:TrackPointExtension>
        </extensions>
      </trkpt>
      <trkpt lat="45.26334238238632678985595703125" lon="-71.12798499874770641326904296875">
        <ele>692</ele>
        <time>2026-08-22T01:43:47.000Z</time>
        <extensions>
          <ns3:TrackPointExtension>
            <ns3:hr>120</ns3:hr>
            <ns3:cad>68</ns3:cad>
          </ns3:TrackPointExtension>
        </extensions>
      </trkpt>
      <trkpt lat="45.2633236907422542572021484375" lon="-71.1279929615557193756103515625">
        <ele>691.79998779296875</ele>
        <time>2026-08-22T01:43:48.000Z</time>
        <extensions>
          <ns3:TrackPointExtension>
            <ns3:hr>121</ns3:hr>
            <ns3:cad>0</ns3:cad>
          </ns3:TrackPointExtension>
        </extensions>
      </trkpt>
      <trkpt lat="45.26331036351621150970458984375" lon="-71.12799924798309803009033203125">
        <ele>691.79998779296875</ele>
        <time>2026-08-22T01:43:49.000Z</time>
        <extensions>
          <ns3:TrackPointExtension>
            <ns3:hr>121</ns3:hr>
            <ns3:cad>0</ns3:cad>
          </ns3:TrackPointExtension>
        </extensions>
      </trkpt>
      <trkpt lat="45.263299047946929931640625" lon="-71.12800293602049350738525390625">
        <ele>691.5999755859375</ele>
        <time>2026-08-22T01:43:50.000Z</time>
        <extensions>
          <ns3:TrackPointExtension>
            <ns3:hr>121</ns3:hr>
            <ns3:cad>0</ns3:cad>
          </ns3:TrackPointExtension>
        </extensions>
      </trkpt>
      <trkpt lat="45.2632878161966800689697265625" lon="-71.12800193019211292266845703125">
        <ele>691.4000244140625</ele>
        <time>2026-08-22T01:43:51.000Z</time>
        <extensions>
          <ns3:TrackPointExtension>
            <ns3:hr>121</ns3:hr>
            <ns3:cad>0</ns3:cad>
          </ns3:TrackPointExtension>
        </extensions>
      </trkpt>
      <trkpt lat="45.263275243341922760009765625" lon="-71.1280063726007938385009765625">
        <ele>691</ele>
        <time>2026-08-22T01:43:52.000Z</time>
        <extensions>
          <ns3:TrackPointExtension>
            <ns3:hr>122</ns3:hr>
            <ns3:cad>0</ns3:cad>
          </ns3:TrackPointExtension>
        </extensions>
      </trkpt>
      <trkpt lat="45.26326560415327548980712890625" lon="-71.12801467068493366241455078125">
        <ele>690.5999755859375</ele>
        <time>2026-08-22T01:43:53.000Z</time>
        <extensions>
          <ns3:TrackPointExtension>
            <ns3:hr>122</ns3:hr>
            <ns3:cad>0</ns3:cad>
          </ns3:TrackPointExtension>
        </extensions>
      </trkpt>
      <trkpt lat="45.2632552944123744964599609375" lon="-71.12801819108426570892333984375">
        <ele>690</ele>
        <time>2026-08-22T01:43:54.000Z</time>
        <extensions>
          <ns3:TrackPointExtension>
            <ns3:hr>122</ns3:hr>
            <ns3:cad>0</ns3:cad>
          </ns3:TrackPointExtension>
        </extensions>
      </trkpt>
      <trkpt lat="45.263245403766632080078125" lon="-71.12802187912166118621826171875">
        <ele>689.4000244140625</ele>
        <time>2026-08-22T01:43:55.000Z</time>
        <extensions>
          <ns3:TrackPointExtension>
            <ns3:hr>122</ns3:hr>
            <ns3:cad>0</ns3:cad>
          </ns3:TrackPointExtension>
        </extensions>
      </trkpt>
      <trkpt lat="45.263234339654445648193359375" lon="-71.1280243098735809326171875">
        <ele>688.79998779296875</ele>
        <time>2026-08-22T01:43:56.000Z</time>
        <extensions>
          <ns3:TrackPointExtension>
            <ns3:hr>121</ns3:hr>
            <ns3:cad>0</ns3:cad>
          </ns3:TrackPointExtension>
        </extensions>
      </trkpt>
      <trkpt lat="45.26322034187614917755126953125" lon="-71.1280291713774204254150390625">
        <ele>688.20001220703125</ele>
        <time>2026-08-22T01:43:57.000Z</time>
        <extensions>
          <ns3:TrackPointExtension>
            <ns3:hr>122</ns3:hr>
            <ns3:cad>46</ns3:cad>
          </ns3:TrackPointExtension>
        </extensions>
      </trkpt>
      <trkpt lat="45.26320558972656726837158203125" lon="-71.1280345357954502105712890625">
        <ele>687.79998779296875</ele>
        <time>2026-08-22T01:43:58.000Z</time>
        <extensions>
          <ns3:TrackPointExtension>
            <ns3:hr>122</ns3:hr>
            <ns3:cad>46</ns3:cad>
          </ns3:TrackPointExtension>
        </extensions>
      </trkpt>
      <trkpt lat="45.26319653727114200592041015625" lon="-71.1280301772058010101318359375">
        <ele>687.4000244140625</ele>
        <time>2026-08-22T01:43:59.000Z</time>
        <extensions>
          <ns3:TrackPointExtension>
            <ns3:hr>122</ns3:hr>
            <ns3:cad>46</ns3:cad>
          </ns3:TrackPointExtension>
        </extensions>
      </trkpt>
      <trkpt lat="45.26318664662539958953857421875" lon="-71.128023974597454071044921875">
        <ele>687.20001220703125</ele>
        <time>2026-08-22T01:44:00.000Z</time>
        <extensions>
          <ns3:TrackPointExtension>
            <ns3:hr>122</ns3:hr>
            <ns3:cad>46</ns3:cad>
          </ns3:TrackPointExtension>
        </extensions>
      </trkpt>
      <trkpt lat="45.263172648847103118896484375" lon="-71.12802456133067607879638671875">
        <ele>687.20001220703125</ele>
        <time>2026-08-22T01:44:01.000Z</time>
        <extensions>
          <ns3:TrackPointExtension>
            <ns3:hr>121</ns3:hr>
            <ns3:cad>46</ns3:cad>
          </ns3:TrackPointExtension>
        </extensions>
      </trkpt>
      <trkpt lat="45.26315881870687007904052734375" lon="-71.12803814001381397247314453125">
        <ele>687</ele>
        <time>2026-08-22T01:44:02.000Z</time>
        <extensions>
          <ns3:TrackPointExtension>
            <ns3:hr>122</ns3:hr>
            <ns3:cad>0</ns3:cad>
          </ns3:TrackPointExtension>
        </extensions>
      </trkpt>
      <trkpt lat="45.26314406655728816986083984375" lon="-71.12804769538342952728271484375">
        <ele>686.79998779296875</ele>
        <time>2026-08-22T01:44:03.000Z</time>
        <extensions>
          <ns3:TrackPointExtension>
            <ns3:hr>122</ns3:hr>
            <ns3:cad>0</ns3:cad>
          </ns3:TrackPointExtension>
        </extensions>
      </trkpt>
      <trkpt lat="45.26313099078834056854248046875" lon="-71.128055490553379058837890625">
        <ele>686.5999755859375</ele>
        <time>2026-08-22T01:44:04.000Z</time>
        <extensions>
          <ns3:TrackPointExtension>
            <ns3:hr>122</ns3:hr>
            <ns3:cad>0</ns3:cad>
          </ns3:TrackPointExtension>
        </extensions>
      </trkpt>
      <trkpt lat="45.2631188370287418365478515625" lon="-71.12805959768593311309814453125">
        <ele>686.4000244140625</ele>
        <time>2026-08-22T01:44:05.000Z</time>
        <extensions>
          <ns3:TrackPointExtension>
            <ns3:hr>122</ns3:hr>
            <ns3:cad>0</ns3:cad>
          </ns3:TrackPointExtension>
        </extensions>
      </trkpt>
      <trkpt lat="45.2631081081926822662353515625" lon="-71.12806529738008975982666015625">
        <ele>686.20001220703125</ele>
        <time>2026-08-22T01:44:06.000Z</time>
        <extensions>
          <ns3:TrackPointExtension>
            <ns3:hr>121</ns3:hr>
            <ns3:cad>0</ns3:cad>
          </ns3:TrackPointExtension>
        </extensions>
      </trkpt>
      <trkpt lat="45.26310064829885959625244140625" lon="-71.12806881777942180633544921875">
        <ele>686</ele>
        <time>2026-08-22T01:44:07.000Z</time>
        <extensions>
          <ns3:TrackPointExtension>
            <ns3:hr>122</ns3:hr>
            <ns3:cad>0</ns3:cad>
          </ns3:TrackPointExtension>
        </extensions>
      </trkpt>
      <trkpt lat="45.2630987204611301422119140625" lon="-71.12807116471230983734130859375">
        <ele>686</ele>
        <time>2026-08-22T01:44:08.000Z</time>
        <extensions>
          <ns3:TrackPointExtension>
            <ns3:hr>122</ns3:hr>
            <ns3:cad>0</ns3:cad>
          </ns3:TrackPointExtension>
        </extensions>
      </trkpt>
      <trkpt lat="45.2630946971476078033447265625" lon="-71.128070913255214691162109375">
        <ele>686</ele>
        <time>2026-08-22T01:44:09.000Z</time>
        <extensions>
          <ns3:TrackPointExtension>
            <ns3:hr>122</ns3:hr>
            <ns3:cad>0</ns3:cad>
          </ns3:TrackPointExtension>
        </extensions>
      </trkpt>
      <trkpt lat="45.26308924891054630279541015625" lon="-71.12807770259678363800048828125">
        <ele>686</ele>
        <time>2026-08-22T01:44:10.000Z</time>
        <extensions>
          <ns3:TrackPointExtension>
            <ns3:hr>121</ns3:hr>
            <ns3:cad>0</ns3:cad>
          </ns3:TrackPointExtension>
        </extensions>
      </trkpt>
      <trkpt lat="45.26308572851121425628662109375" lon="-71.12809614278376102447509765625">
        <ele>686</ele>
        <time>2026-08-22T01:44:11.000Z</time>
        <extensions>
          <ns3:TrackPointExtension>
            <ns3:hr>121</ns3:hr>
            <ns3:cad>0</ns3:cad>
          </ns3:TrackPointExtension>
        </extensions>
      </trkpt>
      <trkpt lat="45.263084135949611663818359375" lon="-71.1281072907149791717529296875">
        <ele>686</ele>
        <time>2026-08-22T01:44:12.000Z</time>
        <extensions>
          <ns3:TrackPointExtension>
            <ns3:hr>120</ns3:hr>
            <ns3:cad>0</ns3:cad>
          </ns3:TrackPointExtension>
        </extensions>
      </trkpt>
      <trkpt lat="45.26308187283575534820556640625" lon="-71.128112487494945526123046875">
        <ele>685.79998779296875</ele>
        <time>2026-08-22T01:44:13.000Z</time>
        <extensions>
          <ns3:TrackPointExtension>
            <ns3:hr>120</ns3:hr>
            <ns3:cad>0</ns3:cad>
          </ns3:TrackPointExtension>
        </extensions>
      </trkpt>
      <trkpt lat="45.2630786038935184478759765625" lon="-71.1281284131109714508056640625">
        <ele>685.79998779296875</ele>
        <time>2026-08-22T01:44:14.000Z</time>
        <extensions>
          <ns3:TrackPointExtension>
            <ns3:hr>119</ns3:hr>
            <ns3:cad>0</ns3:cad>
          </ns3:TrackPointExtension>
        </extensions>
      </trkpt>
      <trkpt lat="45.26307307183742523193359375" lon="-71.12814995460212230682373046875">
        <ele>685.4000244140625</ele>
        <time>2026-08-22T01:44:15.000Z</time>
        <extensions>
          <ns3:TrackPointExtension>
            <ns3:hr>117</ns3:hr>
            <ns3:cad>0</ns3:cad>
          </ns3:TrackPointExtension>
        </extensions>
      </trkpt>
      <trkpt lat="45.26307013817131519317626953125" lon="-71.1281736753880977630615234375">
        <ele>685</ele>
        <time>2026-08-22T01:44:16.000Z</time>
        <extensions>
          <ns3:TrackPointExtension>
            <ns3:hr>116</ns3:hr>
            <ns3:cad>0</ns3:cad>
          </ns3:TrackPointExtension>
        </extensions>
      </trkpt>
      <trkpt lat="45.26306594721972942352294921875" lon="-71.1281911097466945648193359375">
        <ele>684.79998779296875</ele>
        <time>2026-08-22T01:44:17.000Z</time>
        <extensions>
          <ns3:TrackPointExtension>
            <ns3:hr>115</ns3:hr>
            <ns3:cad>53</ns3:cad>
          </ns3:TrackPointExtension>
        </extensions>
      </trkpt>
      <trkpt lat="45.26305773295462131500244140625" lon="-71.1282098852097988128662109375">
        <ele>684.4000244140625</ele>
        <time>2026-08-22T01:44:18.000Z</time>
        <extensions>
          <ns3:TrackPointExtension>
            <ns3:hr>113</ns3:hr>
            <ns3:cad>53</ns3:cad>
          </ns3:TrackPointExtension>
        </extensions>
      </trkpt>
      <trkpt lat="45.2630467526614665985107421875" lon="-71.12822656519711017608642578125">
        <ele>684.20001220703125</ele>
        <time>2026-08-22T01:44:19.000Z</time>
        <extensions>
          <ns3:TrackPointExtension>
            <ns3:hr>112</ns3:hr>
            <ns3:cad>53</ns3:cad>
          </ns3:TrackPointExtension>
        </extensions>
      </trkpt>
      <trkpt lat="45.263034515082836151123046875" lon="-71.12823897041380405426025390625">
        <ele>683.79998779296875</ele>
        <time>2026-08-22T01:44:20.000Z</time>
        <extensions>
          <ns3:TrackPointExtension>
            <ns3:hr>112</ns3:hr>
            <ns3:cad>53</ns3:cad>
          </ns3:TrackPointExtension>
        </extensions>
      </trkpt>
      <trkpt lat="45.2630226127803325653076171875" lon="-71.1282481066882610321044921875">
        <ele>683.5999755859375</ele>
        <time>2026-08-22T01:44:21.000Z</time>
        <extensions>
          <ns3:TrackPointExtension>
            <ns3:hr>112</ns3:hr>
            <ns3:cad>0</ns3:cad>
          </ns3:TrackPointExtension>
        </extensions>
      </trkpt>
      <trkpt lat="45.2630118839442729949951171875" lon="-71.1282568238675594329833984375">
        <ele>683.4000244140625</ele>
        <time>2026-08-22T01:44:22.000Z</time>
        <extensions>
          <ns3:TrackPointExtension>
            <ns3:hr>111</ns3:hr>
            <ns3:cad>0</ns3:cad>
          </ns3:TrackPointExtension>
        </extensions>
      </trkpt>
      <trkpt lat="45.26300258003175258636474609375" lon="-71.1282625235617160797119140625">
        <ele>683.20001220703125</ele>
        <time>2026-08-22T01:44:23.000Z</time>
        <extensions>
          <ns3:TrackPointExtension>
            <ns3:hr>111</ns3:hr>
            <ns3:cad>0</ns3:cad>
          </ns3:TrackPointExtension>
        </extensions>
      </trkpt>
      <trkpt lat="45.2629910968244075775146484375" lon="-71.1282665468752384185791015625">
        <ele>682.79998779296875</ele>
        <time>2026-08-22T01:44:24.000Z</time>
        <extensions>
          <ns3:TrackPointExtension>
            <ns3:hr>111</ns3:hr>
            <ns3:cad>0</ns3:cad>
          </ns3:TrackPointExtension>
        </extensions>
      </trkpt>
      <trkpt lat="45.26297642849385738372802734375" lon="-71.1282722465693950653076171875">
        <ele>682.79998779296875</ele>
        <time>2026-08-22T01:44:25.000Z</time>
        <extensions>
          <ns3:TrackPointExtension>
            <ns3:hr>111</ns3:hr>
            <ns3:cad>0</ns3:cad>
          </ns3:TrackPointExtension>
        </extensions>
      </trkpt>
      <trkpt lat="45.2629639394581317901611328125" lon="-71.12827987410128116607666015625">
        <ele>682.5999755859375</ele>
        <time>2026-08-22T01:44:26.000Z</time>
        <extensions>
          <ns3:TrackPointExtension>
            <ns3:hr>111</ns3:hr>
            <ns3:cad>0</ns3:cad>
          </ns3:TrackPointExtension>
        </extensions>
      </trkpt>
      <trkpt lat="45.26295530609786510467529296875" lon="-71.1282890103757381439208984375">
        <ele>682.4000244140625</ele>
        <time>2026-08-22T01:44:27.000Z</time>
        <extensions>
          <ns3:TrackPointExtension>
            <ns3:hr>111</ns3:hr>
            <ns3:cad>0</ns3:cad>
          </ns3:TrackPointExtension>
        </extensions>
      </trkpt>
      <trkpt lat="45.26294742710888385772705078125" lon="-71.1282923631370067596435546875">
        <ele>682.20001220703125</ele>
        <time>2026-08-22T01:44:28.000Z</time>
        <extensions>
          <ns3:TrackPointExtension>
            <ns3:hr>111</ns3:hr>
            <ns3:cad>68</ns3:cad>
          </ns3:TrackPointExtension>
        </extensions>
      </trkpt>
      <trkpt lat="45.26293669827282428741455078125" lon="-71.128296889364719390869140625">
        <ele>682</ele>
        <time>2026-08-22T01:44:29.000Z</time>
        <extensions>
          <ns3:TrackPointExtension>
            <ns3:hr>112</ns3:hr>
            <ns3:cad>68</ns3:cad>
          </ns3:TrackPointExtension>
        </extensions>
      </trkpt>
      <trkpt lat="45.26292177848517894744873046875" lon="-71.12830468453466892242431640625">
        <ele>681.5999755859375</ele>
        <time>2026-08-22T01:44:30.000Z</time>
        <extensions>
          <ns3:TrackPointExtension>
            <ns3:hr>112</ns3:hr>
            <ns3:cad>68</ns3:cad>
          </ns3:TrackPointExtension>
        </extensions>
      </trkpt>
      <trkpt lat="45.262910462915897369384765625" lon="-71.12831507809460163116455078125">
        <ele>681.4000244140625</ele>
        <time>2026-08-22T01:44:31.000Z</time>
        <extensions>
          <ns3:TrackPointExtension>
            <ns3:hr>112</ns3:hr>
            <ns3:cad>68</ns3:cad>
          </ns3:TrackPointExtension>
        </extensions>
      </trkpt>
      <trkpt lat="45.2628978900611400604248046875" lon="-71.12832379527390003204345703125">
        <ele>681</ele>
        <time>2026-08-22T01:44:32.000Z</time>
        <extensions>
          <ns3:TrackPointExtension>
            <ns3:hr>112</ns3:hr>
            <ns3:cad>68</ns3:cad>
          </ns3:TrackPointExtension>
        </extensions>
      </trkpt>
      <trkpt lat="45.26288037188351154327392578125" lon="-71.12833787687122821807861328125">
        <ele>680.5999755859375</ele>
        <time>2026-08-22T01:44:33.000Z</time>
        <extensions>
          <ns3:TrackPointExtension>
            <ns3:hr>113</ns3:hr>
            <ns3:cad>68</ns3:cad>
          </ns3:TrackPointExtension>
        </extensions>
      </trkpt>
      <trkpt lat="45.26287198998034000396728515625" lon="-71.128349862992763519287109375">
        <ele>680.4000244140625</ele>
        <time>2026-08-22T01:44:34.000Z</time>
        <extensions>
          <ns3:TrackPointExtension>
            <ns3:hr>112</ns3:hr>
            <ns3:cad>68</ns3:cad>
          </ns3:TrackPointExtension>
        </extensions>
      </trkpt>
      <trkpt lat="45.262867547571659088134765625" lon="-71.12836654298007488250732421875">
        <ele>679.79998779296875</ele>
        <time>2026-08-22T01:44:35.000Z</time>
        <extensions>
          <ns3:TrackPointExtension>
            <ns3:hr>112</ns3:hr>
            <ns3:cad>68</ns3:cad>
          </ns3:TrackPointExtension>
        </extensions>
      </trkpt>
      <trkpt lat="45.2628687210381031036376953125" lon="-71.12838129512965679168701171875">
        <ele>679.4000244140625</ele>
        <time>2026-08-22T01:44:36.000Z</time>
        <extensions>
          <ns3:TrackPointExtension>
            <ns3:hr>112</ns3:hr>
            <ns3:cad>68</ns3:cad>
          </ns3:TrackPointExtension>
        </extensions>
      </trkpt>
      <trkpt lat="45.26287349872291088104248046875" lon="-71.128401495516300201416015625">
        <ele>679</ele>
        <time>2026-08-22T01:44:37.000Z</time>
        <extensions>
          <ns3:TrackPointExtension>
            <ns3:hr>113</ns3:hr>
            <ns3:cad>68</ns3:cad>
          </ns3:TrackPointExtension>
        </extensions>
      </trkpt>
      <trkpt lat="45.26288137771189212799072265625" lon="-71.12841968424618244171142578125">
        <ele>678.5999755859375</ele>
        <time>2026-08-22T01:44:38.000Z</time>
        <extensions>
          <ns3:TrackPointExtension>
            <ns3:hr>112</ns3:hr>
            <ns3:cad>68</ns3:cad>
          </ns3:TrackPointExtension>
        </extensions>
      </trkpt>
      <trkpt lat="45.26287936605513095855712890625" lon="-71.12842856906354427337646484375">
        <ele>678</ele>
        <time>2026-08-22T01:44:39.000Z</time>
        <extensions>
          <ns3:TrackPointExtension>
            <ns3:hr>112</ns3:hr>
            <ns3:cad>68</ns3:cad>
          </ns3:TrackPointExtension>
        </extensions>
      </trkpt>
      <trkpt lat="45.26287903077900409698486328125" lon="-71.12844935618340969085693359375">
        <ele>677.5999755859375</ele>
        <time>2026-08-22T01:44:40.000Z</time>
        <extensions>
          <ns3:TrackPointExtension>
            <ns3:hr>112</ns3:hr>
            <ns3:cad>68</ns3:cad>
          </ns3:TrackPointExtension>
        </extensions>
      </trkpt>
      <trkpt lat="45.2628807909786701202392578125" lon="-71.12846829928457736968994140625">
        <ele>677.20001220703125</ele>
        <time>2026-08-22T01:44:41.000Z</time>
        <extensions>
          <ns3:TrackPointExtension>
            <ns3:hr>112</ns3:hr>
            <ns3:cad>68</ns3:cad>
          </ns3:TrackPointExtension>
        </extensions>
      </trkpt>
      <trkpt lat="45.262882970273494720458984375" lon="-71.12847668118774890899658203125">
        <ele>676.79998779296875</ele>
        <time>2026-08-22T01:44:42.000Z</time>
        <extensions>
          <ns3:TrackPointExtension>
            <ns3:hr>112</ns3:hr>
            <ns3:cad>68</ns3:cad>
          </ns3:TrackPointExtension>
        </extensions>
      </trkpt>
      <trkpt lat="45.2628819644451141357421875" lon="-71.12849160097539424896240234375">
        <ele>676.4000244140625</ele>
        <time>2026-08-22T01:44:43.000Z</time>
        <extensions>
          <ns3:TrackPointExtension>
            <ns3:hr>112</ns3:hr>
            <ns3:cad>68</ns3:cad>
          </ns3:TrackPointExtension>
        </extensions>
      </trkpt>
      <trkpt lat="45.262885652482509613037109375" lon="-71.1285069398581981658935546875">
        <ele>676</ele>
        <time>2026-08-22T01:44:44.000Z</time>
        <extensions>
          <ns3:TrackPointExtension>
            <ns3:hr>112</ns3:hr>
            <ns3:cad>68</ns3:cad>
          </ns3:TrackPointExtension>
        </extensions>
      </trkpt>
      <trkpt lat="45.262893028557300567626953125" lon="-71.12852387130260467529296875">
        <ele>675.5999755859375</ele>
        <time>2026-08-22T01:44:45.000Z</time>
        <extensions>
          <ns3:TrackPointExtension>
            <ns3:hr>112</ns3:hr>
            <ns3:cad>68</ns3:cad>
          </ns3:TrackPointExtension>
        </extensions>
      </trkpt>
      <trkpt lat="45.26290015317499637603759765625" lon="-71.1285314150154590606689453125">
        <ele>675.20001220703125</ele>
        <time>2026-08-22T01:44:46.000Z</time>
        <extensions>
          <ns3:TrackPointExtension>
            <ns3:hr>112</ns3:hr>
            <ns3:cad>68</ns3:cad>
          </ns3:TrackPointExtension>
        </extensions>
      </trkpt>
      <trkpt lat="45.2629019133746623992919921875" lon="-71.12853451631963253021240234375">
        <ele>675</ele>
        <time>2026-08-22T01:44:47.000Z</time>
        <extensions>
          <ns3:TrackPointExtension>
            <ns3:hr>113</ns3:hr>
            <ns3:cad>68</ns3:cad>
          </ns3:TrackPointExtension>
        </extensions>
      </trkpt>
      <trkpt lat="45.26289914734661579132080078125" lon="-71.128537617623805999755859375">
        <ele>674.5999755859375</ele>
        <time>2026-08-22T01:44:48.000Z</time>
        <extensions>
          <ns3:TrackPointExtension>
            <ns3:hr>113</ns3:hr>
            <ns3:cad>68</ns3:cad>
          </ns3:TrackPointExtension>
        </extensions>
      </trkpt>
      <trkpt lat="45.262902416288852691650390625" lon="-71.12854667007923126220703125">
        <ele>674.4000244140625</ele>
        <time>2026-08-22T01:44:49.000Z</time>
        <extensions>
          <ns3:TrackPointExtension>
            <ns3:hr>113</ns3:hr>
            <ns3:cad>68</ns3:cad>
          </ns3:TrackPointExtension>
        </extensions>
      </trkpt>
      <trkpt lat="45.2629116363823413848876953125" lon="-71.128559410572052001953125">
        <ele>674</ele>
        <time>2026-08-22T01:44:50.000Z</time>
        <extensions>
          <ns3:TrackPointExtension>
            <ns3:hr>113</ns3:hr>
            <ns3:cad>68</ns3:cad>
          </ns3:TrackPointExtension>
        </extensions>
      </trkpt>
      <trkpt lat="45.26292094029486179351806640625" lon="-71.128571815788745880126953125">
        <ele>674</ele>
        <time>2026-08-22T01:44:51.000Z</time>
        <extensions>
          <ns3:TrackPointExtension>
            <ns3:hr>113</ns3:hr>
            <ns3:cad>68</ns3:cad>
          </ns3:TrackPointExtension>
        </extensions>
      </trkpt>
      <trkpt lat="45.2629294060170650482177734375" lon="-71.12858212552964687347412109375">
        <ele>673.79998779296875</ele>
        <time>2026-08-22T01:44:52.000Z</time>
        <extensions>
          <ns3:TrackPointExtension>
            <ns3:hr>114</ns3:hr>
            <ns3:cad>56</ns3:cad>
          </ns3:TrackPointExtension>
        </extensions>
      </trkpt>
      <trkpt lat="45.26293887756764888763427734375" lon="-71.1285897530615329742431640625">
        <ele>673.79998779296875</ele>
        <time>2026-08-22T01:44:53.000Z</time>
        <extensions>
          <ns3:TrackPointExtension>
            <ns3:hr>114</ns3:hr>
            <ns3:cad>56</ns3:cad>
          </ns3:TrackPointExtension>
        </extensions>
      </trkpt>
      <trkpt lat="45.26295505464076995849609375" lon="-71.12860458903014659881591796875">
        <ele>673.5999755859375</ele>
        <time>2026-08-22T01:44:54.000Z</time>
        <extensions>
          <ns3:TrackPointExtension>
            <ns3:hr>114</ns3:hr>
            <ns3:cad>56</ns3:cad>
          </ns3:TrackPointExtension>
        </extensions>
      </trkpt>
      <trkpt lat="45.2629609219729900360107421875" lon="-71.1286095343530178070068359375">
        <ele>673.4000244140625</ele>
        <time>2026-08-22T01:44:55.000Z</time>
        <extensions>
          <ns3:TrackPointExtension>
            <ns3:hr>114</ns3:hr>
            <ns3:cad>56</ns3:cad>
          </ns3:TrackPointExtension>
        </extensions>
      </trkpt>
      <trkpt lat="45.26296284981071949005126953125" lon="-71.128618754446506500244140625">
        <ele>673</ele>
        <time>2026-08-22T01:44:56.000Z</time>
        <extensions>
          <ns3:TrackPointExtension>
            <ns3:hr>114</ns3:hr>
            <ns3:cad>56</ns3:cad>
          </ns3:TrackPointExtension>
        </extensions>
      </trkpt>
      <trkpt lat="45.26296553201973438262939453125" lon="-71.12862839363515377044677734375">
        <ele>672.79998779296875</ele>
        <time>2026-08-22T01:44:57.000Z</time>
        <extensions>
          <ns3:TrackPointExtension>
            <ns3:hr>114</ns3:hr>
            <ns3:cad>0</ns3:cad>
          </ns3:TrackPointExtension>
        </extensions>
      </trkpt>
      <trkpt lat="45.26296435855329036712646484375" lon="-71.12863493151962757110595703125">
        <ele>672.5999755859375</ele>
        <time>2026-08-22T01:44:58.000Z</time>
        <extensions>
          <ns3:TrackPointExtension>
            <ns3:hr>114</ns3:hr>
            <ns3:cad>0</ns3:cad>
          </ns3:TrackPointExtension>
        </extensions>
      </trkpt>
      <trkpt lat="45.26296821422874927520751953125" lon="-71.12864566035568714141845703125">
        <ele>672.20001220703125</ele>
        <time>2026-08-22T01:44:59.000Z</time>
        <extensions>
          <ns3:TrackPointExtension>
            <ns3:hr>114</ns3:hr>
            <ns3:cad>0</ns3:cad>
          </ns3:TrackPointExtension>
        </extensions>
      </trkpt>
      <trkpt lat="45.26297290809452533721923828125" lon="-71.128656305372714996337890625">
        <ele>672</ele>
        <time>2026-08-22T01:45:00.000Z</time>
        <extensions>
          <ns3:TrackPointExtension>
            <ns3:hr>114</ns3:hr>
            <ns3:cad>0</ns3:cad>
          </ns3:TrackPointExtension>
        </extensions>
      </trkpt>
      <trkpt lat="45.262976847589015960693359375" lon="-71.12866527400910854339599609375">
        <ele>671.79998779296875</ele>
        <time>2026-08-22T01:45:01.000Z</time>
        <extensions>
          <ns3:TrackPointExtension>
            <ns3:hr>114</ns3:hr>
            <ns3:cad>0</ns3:cad>
          </ns3:TrackPointExtension>
        </extensions>
      </trkpt>
      <trkpt lat="45.2629820443689823150634765625" lon="-71.1286772601306438446044921875">
        <ele>671.79998779296875</ele>
        <time>2026-08-22T01:45:02.000Z</time>
        <extensions>
          <ns3:TrackPointExtension>
            <ns3:hr>115</ns3:hr>
            <ns3:cad>0</ns3:cad>
          </ns3:TrackPointExtension>
        </extensions>
      </trkpt>
      <trkpt lat="45.26298967190086841583251953125" lon="-71.12869109027087688446044921875">
        <ele>671.5999755859375</ele>
        <time>2026-08-22T01:45:03.000Z</time>
        <extensions>
          <ns3:TrackPointExtension>
            <ns3:hr>114</ns3:hr>
            <ns3:cad>0</ns3:cad>
          </ns3:TrackPointExtension>
        </extensions>
      </trkpt>
      <trkpt lat="45.26300492696464061737060546875" lon="-71.12870852462947368621826171875">
        <ele>671.4000244140625</ele>
        <time>2026-08-22T01:45:04.000Z</time>
        <extensions>
          <ns3:TrackPointExtension>
            <ns3:hr>114</ns3:hr>
            <ns3:cad>0</ns3:cad>
          </ns3:TrackPointExtension>
        </extensions>
      </trkpt>
      <trkpt lat="45.263025797903537750244140625" lon="-71.12871891818940639495849609375">
        <ele>671.20001220703125</ele>
        <time>2026-08-22T01:45:05.000Z</time>
        <extensions>
          <ns3:TrackPointExtension>
            <ns3:hr>114</ns3:hr>
            <ns3:cad>0</ns3:cad>
          </ns3:TrackPointExtension>
        </extensions>
      </trkpt>
      <trkpt lat="45.2630388736724853515625" lon="-71.12872730009257793426513671875">
        <ele>671.20001220703125</ele>
        <time>2026-08-22T01:45:06.000Z</time>
        <extensions>
          <ns3:TrackPointExtension>
            <ns3:hr>114</ns3:hr>
            <ns3:cad>0</ns3:cad>
          </ns3:TrackPointExtension>
        </extensions>
      </trkpt>
      <trkpt lat="45.26304650120437145233154296875" lon="-71.1287386156618595123291015625">
        <ele>671.20001220703125</ele>
        <time>2026-08-22T01:45:07.000Z</time>
        <extensions>
          <ns3:TrackPointExtension>
            <ns3:hr>114</ns3:hr>
            <ns3:cad>0</ns3:cad>
          </ns3:TrackPointExtension>
        </extensions>
      </trkpt>
      <trkpt lat="45.2630628459155559539794921875" lon="-71.1287443153560161590576171875">
        <ele>671</ele>
        <time>2026-08-22T01:45:08.000Z</time>
        <extensions>
          <ns3:TrackPointExtension>
            <ns3:hr>113</ns3:hr>
            <ns3:cad>0</ns3:cad>
          </ns3:TrackPointExtension>
        </extensions>
      </trkpt>
      <trkpt lat="45.26307432912290096282958984375" lon="-71.12874825485050678253173828125">
        <ele>671</ele>
        <time>2026-08-22T01:45:09.000Z</time>
        <extensions>
          <ns3:TrackPointExtension>
            <ns3:hr>113</ns3:hr>
            <ns3:cad>0</ns3:cad>
          </ns3:TrackPointExtension>
        </extensions>
      </trkpt>
      <trkpt lat="45.26307986117899417877197265625" lon="-71.1287483386695384979248046875">
        <ele>671.20001220703125</ele>
        <time>2026-08-22T01:45:10.000Z</time>
        <extensions>
          <ns3:TrackPointExtension>
            <ns3:hr>113</ns3:hr>
            <ns3:cad>0</ns3:cad>
          </ns3:TrackPointExtension>
        </extensions>
      </trkpt>
      <trkpt lat="45.26308505795896053314208984375" lon="-71.12874724902212619781494140625">
        <ele>671.20001220703125</ele>
        <time>2026-08-22T01:45:11.000Z</time>
        <extensions>
          <ns3:TrackPointExtension>
            <ns3:hr>114</ns3:hr>
            <ns3:cad>0</ns3:cad>
          </ns3:TrackPointExtension>
        </extensions>
      </trkpt>
      <trkpt lat="45.26308690197765827178955078125" lon="-71.12874825485050678253173828125">
        <ele>671.20001220703125</ele>
        <time>2026-08-22T01:45:12.000Z</time>
        <extensions>
          <ns3:TrackPointExtension>
            <ns3:hr>113</ns3:hr>
            <ns3:cad>0</ns3:cad>
          </ns3:TrackPointExtension>
        </extensions>
      </trkpt>
      <trkpt lat="45.26309050619602203369140625" lon="-71.1287570558488368988037109375">
        <ele>671.20001220703125</ele>
        <time>2026-08-22T01:45:13.000Z</time>
        <extensions>
          <ns3:TrackPointExtension>
            <ns3:hr>113</ns3:hr>
            <ns3:cad>0</ns3:cad>
          </ns3:TrackPointExtension>
        </extensions>
      </trkpt>
      <trkpt lat="45.2630936913192272186279296875" lon="-71.1287547089159488677978515625">
        <ele>671.20001220703125</ele>
        <time>2026-08-22T01:45:14.000Z</time>
        <extensions>
          <ns3:TrackPointExtension>
            <ns3:hr>114</ns3:hr>
            <ns3:cad>0</ns3:cad>
          </ns3:TrackPointExtension>
        </extensions>
      </trkpt>
      <trkpt lat="45.2630963735282421112060546875" lon="-71.12875588238239288330078125">
        <ele>671.20001220703125</ele>
        <time>2026-08-22T01:45:15.000Z</time>
        <extensions>
          <ns3:TrackPointExtension>
            <ns3:hr>114</ns3:hr>
            <ns3:cad>0</ns3:cad>
          </ns3:TrackPointExtension>
        </extensions>
      </trkpt>
      <trkpt lat="45.26309712789952754974365234375" lon="-71.1287553794682025909423828125">
        <ele>671</ele>
        <time>2026-08-22T01:45:16.000Z</time>
        <extensions>
          <ns3:TrackPointExtension>
            <ns3:hr>113</ns3:hr>
            <ns3:cad>0</ns3:cad>
          </ns3:TrackPointExtension>
        </extensions>
      </trkpt>
      <trkpt lat="45.26309712789952754974365234375" lon="-71.1287553794682025909423828125">
        <ele>671</ele>
        <time>2026-08-22T01:45:17.000Z</time>
        <extensions>
          <ns3:TrackPointExtension>
            <ns3:hr>113</ns3:hr>
            <ns3:cad>0</ns3:cad>
          </ns3:TrackPointExtension>
        </extensions>
      </trkpt>
      <trkpt lat="45.26309712789952754974365234375" lon="-71.1287553794682025909423828125">
        <ele>671</ele>
        <time>2026-08-22T01:45:18.000Z</time>
        <extensions>
          <ns3:TrackPointExtension>
            <ns3:hr>112</ns3:hr>
            <ns3:cad>0</ns3:cad>
          </ns3:TrackPointExtension>
        </extensions>
      </trkpt>
      <trkpt lat="45.26309645734727382659912109375" lon="-71.1287557147443294525146484375">
        <ele>671</ele>
        <time>2026-08-22T01:45:19.000Z</time>
        <extensions>
          <ns3:TrackPointExtension>
            <ns3:hr>112</ns3:hr>
            <ns3:cad>0</ns3:cad>
          </ns3:TrackPointExtension>
        </extensions>
      </trkpt>
      <trkpt lat="45.26310123503208160400390625" lon="-71.128761582076549530029296875">
        <ele>671</ele>
        <time>2026-08-22T01:45:20.000Z</time>
        <extensions>
          <ns3:TrackPointExtension>
            <ns3:hr>112</ns3:hr>
            <ns3:cad>0</ns3:cad>
          </ns3:TrackPointExtension>
        </extensions>
      </trkpt>
      <trkpt lat="45.26310584507882595062255859375" lon="-71.12876283936202526092529296875">
        <ele>671</ele>
        <time>2026-08-22T01:45:21.000Z</time>
        <extensions>
          <ns3:TrackPointExtension>
            <ns3:hr>111</ns3:hr>
            <ns3:cad>0</ns3:cad>
          </ns3:TrackPointExtension>
        </extensions>
      </trkpt>
      <trkpt lat="45.26310416869819164276123046875" lon="-71.12875848077237606048583984375">
        <ele>671</ele>
        <time>2026-08-22T01:45:22.000Z</time>
        <extensions>
          <ns3:TrackPointExtension>
            <ns3:hr>112</ns3:hr>
            <ns3:cad>0</ns3:cad>
          </ns3:TrackPointExtension>
        </extensions>
      </trkpt>
      <trkpt lat="45.2631024084985256195068359375" lon="-71.1287583969533443450927734375">
        <ele>671</ele>
        <time>2026-08-22T01:45:23.000Z</time>
        <extensions>
          <ns3:TrackPointExtension>
            <ns3:hr>112</ns3:hr>
            <ns3:cad>0</ns3:cad>
          </ns3:TrackPointExtension>
        </extensions>
      </trkpt>
      <trkpt lat="45.26309846900403499603271484375" lon="-71.12875915132462978363037109375">
        <ele>670.79998779296875</ele>
        <time>2026-08-22T01:45:24.000Z</time>
        <extensions>
          <ns3:TrackPointExtension>
            <ns3:hr>112</ns3:hr>
            <ns3:cad>0</ns3:cad>
          </ns3:TrackPointExtension>
        </extensions>
      </trkpt>
      <trkpt lat="45.263092517852783203125" lon="-71.12875563092529773712158203125">
        <ele>670.79998779296875</ele>
        <time>2026-08-22T01:45:25.000Z</time>
        <extensions>
          <ns3:TrackPointExtension>
            <ns3:hr>111</ns3:hr>
            <ns3:cad>0</ns3:cad>
          </ns3:TrackPointExtension>
        </extensions>
      </trkpt>
      <trkpt lat="45.26308673433959484100341796875" lon="-71.12875764258205890655517578125">
        <ele>670.5999755859375</ele>
        <time>2026-08-22T01:45:26.000Z</time>
        <extensions>
          <ns3:TrackPointExtension>
            <ns3:hr>112</ns3:hr>
            <ns3:cad>0</ns3:cad>
          </ns3:TrackPointExtension>
        </extensions>
      </trkpt>
      <trkpt lat="45.2630866505205631256103515625" lon="-71.1287637613713741302490234375">
        <ele>670.4000244140625</ele>
        <time>2026-08-22T01:45:27.000Z</time>
        <extensions>
          <ns3:TrackPointExtension>
            <ns3:hr>112</ns3:hr>
            <ns3:cad>0</ns3:cad>
          </ns3:TrackPointExtension>
        </extensions>
      </trkpt>
      <trkpt lat="45.263086818158626556396484375" lon="-71.1287697963416576385498046875">
        <ele>670.20001220703125</ele>
        <time>2026-08-22T01:45:28.000Z</time>
        <extensions>
          <ns3:TrackPointExtension>
            <ns3:hr>112</ns3:hr>
            <ns3:cad>0</ns3:cad>
          </ns3:TrackPointExtension>
        </extensions>
      </trkpt>
      <trkpt lat="45.263084806501865386962890625" lon="-71.1287795193493366241455078125">
        <ele>670</ele>
        <time>2026-08-22T01:45:29.000Z</time>
        <extensions>
          <ns3:TrackPointExtension>
            <ns3:hr>112</ns3:hr>
            <ns3:cad>0</ns3:cad>
          </ns3:TrackPointExtension>
        </extensions>
      </trkpt>
      <trkpt lat="45.263079106807708740234375" lon="-71.12878513522446155548095703125">
        <ele>669.5999755859375</ele>
        <time>2026-08-22T01:45:30.000Z</time>
        <extensions>
          <ns3:TrackPointExtension>
            <ns3:hr>113</ns3:hr>
            <ns3:cad>0</ns3:cad>
          </ns3:TrackPointExtension>
        </extensions>
      </trkpt>
      <trkpt lat="45.263073742389678955078125" lon="-71.1287989653646945953369140625">
        <ele>669.4000244140625</ele>
        <time>2026-08-22T01:45:31.000Z</time>
        <extensions>
          <ns3:TrackPointExtension>
            <ns3:hr>113</ns3:hr>
            <ns3:cad>0</ns3:cad>
          </ns3:TrackPointExtension>
        </extensions>
      </trkpt>
      <trkpt lat="45.263072736561298370361328125" lon="-71.1288160644471645355224609375">
        <ele>669</ele>
        <time>2026-08-22T01:45:32.000Z</time>
        <extensions>
          <ns3:TrackPointExtension>
            <ns3:hr>114</ns3:hr>
            <ns3:cad>0</ns3:cad>
          </ns3:TrackPointExtension>
        </extensions>
      </trkpt>
      <trkpt lat="45.26307349093258380889892578125" lon="-71.12883207388222217559814453125">
        <ele>668.4000244140625</ele>
        <time>2026-08-22T01:45:33.000Z</time>
        <extensions>
          <ns3:TrackPointExtension>
            <ns3:hr>114</ns3:hr>
            <ns3:cad>0</ns3:cad>
          </ns3:TrackPointExtension>
        </extensions>
      </trkpt>
      <trkpt lat="45.26307349093258380889892578125" lon="-71.12884104251861572265625">
        <ele>668</ele>
        <time>2026-08-22T01:45:34.000Z</time>
        <extensions>
          <ns3:TrackPointExtension>
            <ns3:hr>115</ns3:hr>
            <ns3:cad>0</ns3:cad>
          </ns3:TrackPointExtension>
        </extensions>
      </trkpt>
      <trkpt lat="45.26306645013391971588134765625" lon="-71.1288584768772125244140625">
        <ele>667.79998779296875</ele>
        <time>2026-08-22T01:45:35.000Z</time>
        <extensions>
          <ns3:TrackPointExtension>
            <ns3:hr>115</ns3:hr>
            <ns3:cad>0</ns3:cad>
          </ns3:TrackPointExtension>
        </extensions>
      </trkpt>
      <trkpt lat="45.26306125335395336151123046875" lon="-71.128871552646160125732421875">
        <ele>667.20001220703125</ele>
        <time>2026-08-22T01:45:36.000Z</time>
        <extensions>
          <ns3:TrackPointExtension>
            <ns3:hr>116</ns3:hr>
            <ns3:cad>0</ns3:cad>
          </ns3:TrackPointExtension>
        </extensions>
      </trkpt>
      <trkpt lat="45.26305873878300189971923828125" lon="-71.12888286821544170379638671875">
        <ele>667</ele>
        <time>2026-08-22T01:45:37.000Z</time>
        <extensions>
          <ns3:TrackPointExtension>
            <ns3:hr>116</ns3:hr>
            <ns3:cad>0</ns3:cad>
          </ns3:TrackPointExtension>
        </extensions>
      </trkpt>
      <trkpt lat="45.26305471546947956085205078125" lon="-71.12889041192829608917236328125">
        <ele>666.5999755859375</ele>
        <time>2026-08-22T01:45:38.000Z</time>
        <extensions>
          <ns3:TrackPointExtension>
            <ns3:hr>116</ns3:hr>
            <ns3:cad>0</ns3:cad>
          </ns3:TrackPointExtension>
        </extensions>
      </trkpt>
      <trkpt lat="45.2630447410047054290771484375" lon="-71.128899715840816497802734375">
        <ele>666.20001220703125</ele>
        <time>2026-08-22T01:45:39.000Z</time>
        <extensions>
          <ns3:TrackPointExtension>
            <ns3:hr>116</ns3:hr>
            <ns3:cad>0</ns3:cad>
          </ns3:TrackPointExtension>
        </extensions>
      </trkpt>
      <trkpt lat="45.26303778402507305145263671875" lon="-71.12890700809657573699951171875">
        <ele>666</ele>
        <time>2026-08-22T01:45:40.000Z</time>
        <extensions>
          <ns3:TrackPointExtension>
            <ns3:hr>116</ns3:hr>
            <ns3:cad>0</ns3:cad>
          </ns3:TrackPointExtension>
        </extensions>
      </trkpt>
      <trkpt lat="45.26303283870220184326171875" lon="-71.12891622819006443023681640625">
        <ele>665.79998779296875</ele>
        <time>2026-08-22T01:45:41.000Z</time>
        <extensions>
          <ns3:TrackPointExtension>
            <ns3:hr>115</ns3:hr>
            <ns3:cad>0</ns3:cad>
          </ns3:TrackPointExtension>
        </extensions>
      </trkpt>
      <trkpt lat="45.26302906684577465057373046875" lon="-71.1289344169199466705322265625">
        <ele>665.5999755859375</ele>
        <time>2026-08-22T01:45:42.000Z</time>
        <extensions>
          <ns3:TrackPointExtension>
            <ns3:hr>116</ns3:hr>
            <ns3:cad>0</ns3:cad>
          </ns3:TrackPointExtension>
        </extensions>
      </trkpt>
      <trkpt lat="45.26302487589418888092041015625" lon="-71.12895294092595577239990234375">
        <ele>665.4000244140625</ele>
        <time>2026-08-22T01:45:43.000Z</time>
        <extensions>
          <ns3:TrackPointExtension>
            <ns3:hr>116</ns3:hr>
            <ns3:cad>0</ns3:cad>
          </ns3:TrackPointExtension>
        </extensions>
      </trkpt>
      <trkpt lat="45.26301808655261993408203125" lon="-71.12897180020809173583984375">
        <ele>665</ele>
        <time>2026-08-22T01:45:44.000Z</time>
        <extensions>
          <ns3:TrackPointExtension>
            <ns3:hr>116</ns3:hr>
            <ns3:cad>0</ns3:cad>
          </ns3:TrackPointExtension>
        </extensions>
      </trkpt>
      <trkpt lat="45.2630212716758251190185546875" lon="-71.128990910947322845458984375">
        <ele>664.79998779296875</ele>
        <time>2026-08-22T01:45:45.000Z</time>
        <extensions>
          <ns3:TrackPointExtension>
            <ns3:hr>117</ns3:hr>
            <ns3:cad>75</ns3:cad>
          </ns3:TrackPointExtension>
        </extensions>
      </trkpt>
      <trkpt lat="45.26302185840904712677001953125" lon="-71.1290031485259532928466796875">
        <ele>664.4000244140625</ele>
        <time>2026-08-22T01:45:46.000Z</time>
        <extensions>
          <ns3:TrackPointExtension>
            <ns3:hr>116</ns3:hr>
            <ns3:cad>75</ns3:cad>
          </ns3:TrackPointExtension>
        </extensions>
      </trkpt>
      <trkpt lat="45.2630192600190639495849609375" lon="-71.12901044078171253204345703125">
        <ele>664</ele>
        <time>2026-08-22T01:45:47.000Z</time>
        <extensions>
          <ns3:TrackPointExtension>
            <ns3:hr>116</ns3:hr>
            <ns3:cad>75</ns3:cad>
          </ns3:TrackPointExtension>
        </extensions>
      </trkpt>
      <trkpt lat="45.26301146484911441802978515625" lon="-71.12902871333062648773193359375">
        <ele>663.79998779296875</ele>
        <time>2026-08-22T01:45:48.000Z</time>
        <extensions>
          <ns3:TrackPointExtension>
            <ns3:hr>116</ns3:hr>
            <ns3:cad>75</ns3:cad>
          </ns3:TrackPointExtension>
        </extensions>
      </trkpt>
      <trkpt lat="45.2630028314888477325439453125" lon="-71.12903625704348087310791015625">
        <ele>663.4000244140625</ele>
        <time>2026-08-22T01:45:49.000Z</time>
        <extensions>
          <ns3:TrackPointExtension>
            <ns3:hr>115</ns3:hr>
            <ns3:cad>75</ns3:cad>
          </ns3:TrackPointExtension>
        </extensions>
      </trkpt>
      <trkpt lat="45.26299973018467426300048828125" lon="-71.12904547713696956634521484375">
        <ele>663</ele>
        <time>2026-08-22T01:45:50.000Z</time>
        <extensions>
          <ns3:TrackPointExtension>
            <ns3:hr>115</ns3:hr>
            <ns3:cad>44</ns3:cad>
          </ns3:TrackPointExtension>
        </extensions>
      </trkpt>
      <trkpt lat="45.2629974670708179473876953125" lon="-71.12905402667820453643798828125">
        <ele>662.5999755859375</ele>
        <time>2026-08-22T01:45:51.000Z</time>
        <extensions>
          <ns3:TrackPointExtension>
            <ns3:hr>114</ns3:hr>
            <ns3:cad>44</ns3:cad>
          </ns3:TrackPointExtension>
        </extensions>
      </trkpt>
      <trkpt lat="45.26299486868083477020263671875" lon="-71.12907162867486476898193359375">
        <ele>662.4000244140625</ele>
        <time>2026-08-22T01:45:52.000Z</time>
        <extensions>
          <ns3:TrackPointExtension>
            <ns3:hr>114</ns3:hr>
            <ns3:cad>0</ns3:cad>
          </ns3:TrackPointExtension>
        </extensions>
      </trkpt>
      <trkpt lat="45.262994952499866485595703125" lon="-71.12907783128321170806884765625">
        <ele>662.20001220703125</ele>
        <time>2026-08-22T01:45:53.000Z</time>
        <extensions>
          <ns3:TrackPointExtension>
            <ns3:hr>113</ns3:hr>
            <ns3:cad>0</ns3:cad>
          </ns3:TrackPointExtension>
        </extensions>
      </trkpt>
      <trkpt lat="45.26299252174794673919677734375" lon="-71.12908755429089069366455078125">
        <ele>662</ele>
        <time>2026-08-22T01:45:54.000Z</time>
        <extensions>
          <ns3:TrackPointExtension>
            <ns3:hr>113</ns3:hr>
            <ns3:cad>0</ns3:cad>
          </ns3:TrackPointExtension>
        </extensions>
      </trkpt>
      <trkpt lat="45.26298866607248783111572265625" lon="-71.12909493036568164825439453125">
        <ele>661.79998779296875</ele>
        <time>2026-08-22T01:45:55.000Z</time>
        <extensions>
          <ns3:TrackPointExtension>
            <ns3:hr>113</ns3:hr>
            <ns3:cad>0</ns3:cad>
          </ns3:TrackPointExtension>
        </extensions>
      </trkpt>
      <trkpt lat="45.2629840560257434844970703125" lon="-71.129103563725948333740234375">
        <ele>661.4000244140625</ele>
        <time>2026-08-22T01:45:56.000Z</time>
        <extensions>
          <ns3:TrackPointExtension>
            <ns3:hr>113</ns3:hr>
            <ns3:cad>0</ns3:cad>
          </ns3:TrackPointExtension>
        </extensions>
      </trkpt>
      <trkpt lat="45.26297877542674541473388671875" lon="-71.1291080899536609649658203125">
        <ele>661.20001220703125</ele>
        <time>2026-08-22T01:45:57.000Z</time>
        <extensions>
          <ns3:TrackPointExtension>
            <ns3:hr>112</ns3:hr>
            <ns3:cad>0</ns3:cad>
          </ns3:TrackPointExtension>
        </extensions>
      </trkpt>
      <trkpt lat="45.26297039352357387542724609375" lon="-71.1291201598942279815673828125">
        <ele>661</ele>
        <time>2026-08-22T01:45:58.000Z</time>
        <extensions>
          <ns3:TrackPointExtension>
            <ns3:hr>112</ns3:hr>
            <ns3:cad>0</ns3:cad>
          </ns3:TrackPointExtension>
        </extensions>
      </trkpt>
      <trkpt lat="45.2629659511148929595947265625" lon="-71.1291231773793697357177734375">
        <ele>660.79998779296875</ele>
        <time>2026-08-22T01:45:59.000Z</time>
        <extensions>
          <ns3:TrackPointExtension>
            <ns3:hr>112</ns3:hr>
            <ns3:cad>0</ns3:cad>
          </ns3:TrackPointExtension>
        </extensions>
      </trkpt>
      <trkpt lat="45.26296335272490978240966796875" lon="-71.12911856733262538909912109375">
        <ele>660.5999755859375</ele>
        <time>2026-08-22T01:46:00.000Z</time>
        <extensions>
          <ns3:TrackPointExtension>
            <ns3:hr>112</ns3:hr>
            <ns3:cad>0</ns3:cad>
          </ns3:TrackPointExtension>
        </extensions>
      </trkpt>
      <trkpt lat="45.2629609219729900360107421875" lon="-71.12911638803780078887939453125">
        <ele>660.4000244140625</ele>
        <time>2026-08-22T01:46:01.000Z</time>
        <extensions>
          <ns3:TrackPointExtension>
            <ns3:hr>112</ns3:hr>
            <ns3:cad>0</ns3:cad>
          </ns3:TrackPointExtension>
        </extensions>
      </trkpt>
      <trkpt lat="45.26295999996364116668701171875" lon="-71.1291121132671833038330078125">
        <ele>660.20001220703125</ele>
        <time>2026-08-22T01:46:02.000Z</time>
        <extensions>
          <ns3:TrackPointExtension>
            <ns3:hr>112</ns3:hr>
            <ns3:cad>0</ns3:cad>
          </ns3:TrackPointExtension>
        </extensions>
      </trkpt>
      <trkpt lat="45.26295580901205539703369140625" lon="-71.1291147954761981964111328125">
        <ele>660</ele>
        <time>2026-08-22T01:46:03.000Z</time>
        <extensions>
          <ns3:TrackPointExtension>
            <ns3:hr>112</ns3:hr>
            <ns3:cad>0</ns3:cad>
          </ns3:TrackPointExtension>
        </extensions>
      </trkpt>
      <trkpt lat="45.26295413263142108917236328125" lon="-71.12911839969456195831298828125">
        <ele>660</ele>
        <time>2026-08-22T01:46:04.000Z</time>
        <extensions>
          <ns3:TrackPointExtension>
            <ns3:hr>113</ns3:hr>
            <ns3:cad>0</ns3:cad>
          </ns3:TrackPointExtension>
        </extensions>
      </trkpt>
      <trkpt lat="45.26294239796698093414306640625" lon="-71.1291208304464817047119140625">
        <ele>659.79998779296875</ele>
        <time>2026-08-22T01:46:05.000Z</time>
        <extensions>
          <ns3:TrackPointExtension>
            <ns3:hr>113</ns3:hr>
            <ns3:cad>0</ns3:cad>
          </ns3:TrackPointExtension>
        </extensions>
      </trkpt>
      <trkpt lat="45.2629334293305873870849609375" lon="-71.12912611104547977447509765625">
        <ele>659.79998779296875</ele>
        <time>2026-08-22T01:46:06.000Z</time>
        <extensions>
          <ns3:TrackPointExtension>
            <ns3:hr>113</ns3:hr>
            <ns3:cad>0</ns3:cad>
          </ns3:TrackPointExtension>
        </extensions>
      </trkpt>
      <trkpt lat="45.262925215065479278564453125" lon="-71.12913885153830051422119140625">
        <ele>659.79998779296875</ele>
        <time>2026-08-22T01:46:07.000Z</time>
        <extensions>
          <ns3:TrackPointExtension>
            <ns3:hr>113</ns3:hr>
            <ns3:cad>0</ns3:cad>
          </ns3:TrackPointExtension>
        </extensions>
      </trkpt>
      <trkpt lat="45.26291750371456146240234375" lon="-71.12915419042110443115234375">
        <ele>659.5999755859375</ele>
        <time>2026-08-22T01:46:08.000Z</time>
        <extensions>
          <ns3:TrackPointExtension>
            <ns3:hr>113</ns3:hr>
            <ns3:cad>0</ns3:cad>
          </ns3:TrackPointExtension>
        </extensions>
      </trkpt>
      <trkpt lat="45.2629102952778339385986328125" lon="-71.1291650868952274322509765625">
        <ele>659.4000244140625</ele>
        <time>2026-08-22T01:46:09.000Z</time>
        <extensions>
          <ns3:TrackPointExtension>
            <ns3:hr>113</ns3:hr>
            <ns3:cad>0</ns3:cad>
          </ns3:TrackPointExtension>
        </extensions>
      </trkpt>
      <trkpt lat="45.26290115900337696075439453125" lon="-71.129174642264842987060546875">
        <ele>659.20001220703125</ele>
        <time>2026-08-22T01:46:10.000Z</time>
        <extensions>
          <ns3:TrackPointExtension>
            <ns3:hr>112</ns3:hr>
            <ns3:cad>0</ns3:cad>
          </ns3:TrackPointExtension>
        </extensions>
      </trkpt>
      <trkpt lat="45.26289336383342742919921875" lon="-71.12918478436768054962158203125">
        <ele>659</ele>
        <time>2026-08-22T01:46:11.000Z</time>
        <extensions>
          <ns3:TrackPointExtension>
            <ns3:hr>112</ns3:hr>
            <ns3:cad>0</ns3:cad>
          </ns3:TrackPointExtension>
        </extensions>
      </trkpt>
      <trkpt lat="45.2628885023295879364013671875" lon="-71.129196770489215850830078125">
        <ele>658.79998779296875</ele>
        <time>2026-08-22T01:46:12.000Z</time>
        <extensions>
          <ns3:TrackPointExtension>
            <ns3:hr>112</ns3:hr>
            <ns3:cad>0</ns3:cad>
          </ns3:TrackPointExtension>
        </extensions>
      </trkpt>
      <trkpt lat="45.26288263499736785888671875" lon="-71.12921680323779582977294921875">
        <ele>658.4000244140625</ele>
        <time>2026-08-22T01:46:13.000Z</time>
        <extensions>
          <ns3:TrackPointExtension>
            <ns3:hr>112</ns3:hr>
            <ns3:cad>0</ns3:cad>
          </ns3:TrackPointExtension>
        </extensions>
      </trkpt>
      <trkpt lat="45.26288137771189212799072265625" lon="-71.12922736443579196929931640625">
        <ele>658.20001220703125</ele>
        <time>2026-08-22T01:46:14.000Z</time>
        <extensions>
          <ns3:TrackPointExtension>
            <ns3:hr>112</ns3:hr>
            <ns3:cad>0</ns3:cad>
          </ns3:TrackPointExtension>
        </extensions>
      </trkpt>
      <trkpt lat="45.26287819258868694305419921875" lon="-71.12923423759639263153076171875">
        <ele>658</ele>
        <time>2026-08-22T01:46:15.000Z</time>
        <extensions>
          <ns3:TrackPointExtension>
            <ns3:hr>113</ns3:hr>
            <ns3:cad>0</ns3:cad>
          </ns3:TrackPointExtension>
        </extensions>
      </trkpt>
      <trkpt lat="45.2628707326948642730712890625" lon="-71.12924111075699329376220703125">
        <ele>657.5999755859375</ele>
        <time>2026-08-22T01:46:16.000Z</time>
        <extensions>
          <ns3:TrackPointExtension>
            <ns3:hr>113</ns3:hr>
            <ns3:cad>0</ns3:cad>
          </ns3:TrackPointExtension>
        </extensions>
      </trkpt>
      <trkpt lat="45.26286394335329532623291015625" lon="-71.12924094311892986297607421875">
        <ele>657.4000244140625</ele>
        <time>2026-08-22T01:46:17.000Z</time>
        <extensions>
          <ns3:TrackPointExtension>
            <ns3:hr>113</ns3:hr>
            <ns3:cad>0</ns3:cad>
          </ns3:TrackPointExtension>
        </extensions>
      </trkpt>
      <trkpt lat="45.26285790838301181793212890625" lon="-71.1292361654341220855712890625">
        <ele>657.20001220703125</ele>
        <time>2026-08-22T01:46:18.000Z</time>
        <extensions>
          <ns3:TrackPointExtension>
            <ns3:hr>113</ns3:hr>
            <ns3:cad>0</ns3:cad>
          </ns3:TrackPointExtension>
        </extensions>
      </trkpt>
      <trkpt lat="45.26285220868885517120361328125" lon="-71.12922954373061656951904296875">
        <ele>657</ele>
        <time>2026-08-22T01:46:19.000Z</time>
        <extensions>
          <ns3:TrackPointExtension>
            <ns3:hr>112</ns3:hr>
            <ns3:cad>70</ns3:cad>
          </ns3:TrackPointExtension>
        </extensions>
      </trkpt>
      <trkpt lat="45.2628442458808422088623046875" lon="-71.129226945340633392333984375">
        <ele>656.79998779296875</ele>
        <time>2026-08-22T01:46:20.000Z</time>
        <extensions>
          <ns3:TrackPointExtension>
            <ns3:hr>112</ns3:hr>
            <ns3:cad>70</ns3:cad>
          </ns3:TrackPointExtension>
        </extensions>
      </trkpt>
      <trkpt lat="45.26283837854862213134765625" lon="-71.1292230896651744842529296875">
        <ele>656.5999755859375</ele>
        <time>2026-08-22T01:46:21.000Z</time>
        <extensions>
          <ns3:TrackPointExtension>
            <ns3:hr>112</ns3:hr>
            <ns3:cad>70</ns3:cad>
          </ns3:TrackPointExtension>
        </extensions>
      </trkpt>
      <trkpt lat="45.26283276267349720001220703125" lon="-71.12921948544681072235107421875">
        <ele>656.4000244140625</ele>
        <time>2026-08-22T01:46:22.000Z</time>
        <extensions>
          <ns3:TrackPointExtension>
            <ns3:hr>112</ns3:hr>
            <ns3:cad>70</ns3:cad>
          </ns3:TrackPointExtension>
        </extensions>
      </trkpt>
      <trkpt lat="45.2628268115222454071044921875" lon="-71.12921948544681072235107421875">
        <ele>656.4000244140625</ele>
        <time>2026-08-22T01:46:23.000Z</time>
        <extensions>
          <ns3:TrackPointExtension>
            <ns3:hr>112</ns3:hr>
            <ns3:cad>0</ns3:cad>
          </ns3:TrackPointExtension>
        </extensions>
      </trkpt>
      <trkpt lat="45.2628247998654842376708984375" lon="-71.129215545952320098876953125">
        <ele>656.4000244140625</ele>
        <time>2026-08-22T01:46:24.000Z</time>
        <extensions>
          <ns3:TrackPointExtension>
            <ns3:hr>113</ns3:hr>
            <ns3:cad>0</ns3:cad>
          </ns3:TrackPointExtension>
        </extensions>
      </trkpt>
      <trkpt lat="45.2628254704177379608154296875" lon="-71.12921194173395633697509765625">
        <ele>656.20001220703125</ele>
        <time>2026-08-22T01:46:25.000Z</time>
        <extensions>
          <ns3:TrackPointExtension>
            <ns3:hr>113</ns3:hr>
            <ns3:cad>0</ns3:cad>
          </ns3:TrackPointExtension>
        </extensions>
      </trkpt>
      <trkpt lat="45.2628234587609767913818359375" lon="-71.12920791842043399810791015625">
        <ele>656.20001220703125</ele>
        <time>2026-08-22T01:46:26.000Z</time>
        <extensions>
          <ns3:TrackPointExtension>
            <ns3:hr>113</ns3:hr>
            <ns3:cad>0</ns3:cad>
          </ns3:TrackPointExtension>
        </extensions>
      </trkpt>
      <trkpt lat="45.26282102800905704498291015625" lon="-71.12920506857335567474365234375">
        <ele>656.20001220703125</ele>
        <time>2026-08-22T01:46:27.000Z</time>
        <extensions>
          <ns3:TrackPointExtension>
            <ns3:hr>112</ns3:hr>
            <ns3:cad>0</ns3:cad>
          </ns3:TrackPointExtension>
        </extensions>
      </trkpt>
      <trkpt lat="45.2628214471042156219482421875" lon="-71.12920288927853107452392578125">
        <ele>656.4000244140625</ele>
        <time>2026-08-22T01:46:28.000Z</time>
        <extensions>
          <ns3:TrackPointExtension>
            <ns3:hr>112</ns3:hr>
            <ns3:cad>0</ns3:cad>
          </ns3:TrackPointExtension>
        </extensions>
      </trkpt>
      <trkpt lat="45.26282488368451595306396484375" lon="-71.12920557148754596710205078125">
        <ele>656.4000244140625</ele>
        <time>2026-08-22T01:46:29.000Z</time>
        <extensions>
          <ns3:TrackPointExtension>
            <ns3:hr>112</ns3:hr>
            <ns3:cad>0</ns3:cad>
          </ns3:TrackPointExtension>
        </extensions>
      </trkpt>
      <trkpt lat="45.26282505132257938385009765625" lon="-71.12920515239238739013671875">
        <ele>656.20001220703125</ele>
        <time>2026-08-22T01:46:30.000Z</time>
        <extensions>
          <ns3:TrackPointExtension>
            <ns3:hr>112</ns3:hr>
            <ns3:cad>0</ns3:cad>
          </ns3:TrackPointExtension>
        </extensions>
      </trkpt>
      <trkpt lat="45.262824632227420806884765625" lon="-71.12920540384948253631591796875">
        <ele>656.20001220703125</ele>
        <time>2026-08-22T01:46:31.000Z</time>
        <extensions>
          <ns3:TrackPointExtension>
            <ns3:hr>112</ns3:hr>
            <ns3:cad>0</ns3:cad>
          </ns3:TrackPointExtension>
        </extensions>
      </trkpt>
      <trkpt lat="45.26282354258000850677490234375" lon="-71.12920708023011684417724609375">
        <ele>656.4000244140625</ele>
        <time>2026-08-22T01:46:32.000Z</time>
        <extensions>
          <ns3:TrackPointExtension>
            <ns3:hr>113</ns3:hr>
            <ns3:cad>0</ns3:cad>
          </ns3:TrackPointExtension>
        </extensions>
      </trkpt>
      <trkpt lat="45.26282035745680332183837890625" lon="-71.1292063258588314056396484375">
        <ele>656.4000244140625</ele>
        <time>2026-08-22T01:46:33.000Z</time>
        <extensions>
          <ns3:TrackPointExtension>
            <ns3:hr>113</ns3:hr>
            <ns3:cad>0</ns3:cad>
          </ns3:TrackPointExtension>
        </extensions>
      </trkpt>
      <trkpt lat="45.26281180791556835174560546875" lon="-71.1292071640491485595703125">
        <ele>656.4000244140625</ele>
        <time>2026-08-22T01:46:34.000Z</time>
        <extensions>
          <ns3:TrackPointExtension>
            <ns3:hr>111</ns3:hr>
            <ns3:cad>0</ns3:cad>
          </ns3:TrackPointExtension>
        </extensions>
      </trkpt>
      <trkpt lat="45.26279873214662075042724609375" lon="-71.12921026535332202911376953125">
        <ele>656.4000244140625</ele>
        <time>2026-08-22T01:46:35.000Z</time>
        <extensions>
          <ns3:TrackPointExtension>
            <ns3:hr>110</ns3:hr>
            <ns3:cad>0</ns3:cad>
          </ns3:TrackPointExtension>
        </extensions>
      </trkpt>
      <trkpt lat="45.26278733275830745697021484375" lon="-71.129214204847812652587890625">
        <ele>656.4000244140625</ele>
        <time>2026-08-22T01:46:36.000Z</time>
        <extensions>
          <ns3:TrackPointExtension>
            <ns3:hr>110</ns3:hr>
            <ns3:cad>0</ns3:cad>
          </ns3:TrackPointExtension>
        </extensions>
      </trkpt>
      <trkpt lat="45.262775681912899017333984375" lon="-71.1292297951877117156982421875">
        <ele>656.20001220703125</ele>
        <time>2026-08-22T01:46:37.000Z</time>
        <extensions>
          <ns3:TrackPointExtension>
            <ns3:hr>108</ns3:hr>
            <ns3:cad>0</ns3:cad>
          </ns3:TrackPointExtension>
        </extensions>
      </trkpt>
      <trkpt lat="45.2627657912671566009521484375" lon="-71.1292495764791965484619140625">
        <ele>656</ele>
        <time>2026-08-22T01:46:38.000Z</time>
        <extensions>
          <ns3:TrackPointExtension>
            <ns3:hr>105</ns3:hr>
            <ns3:cad>0</ns3:cad>
          </ns3:TrackPointExtension>
        </extensions>
      </trkpt>
      <trkpt lat="45.2627585828304290771484375" lon="-71.12927488982677459716796875">
        <ele>655.79998779296875</ele>
        <time>2026-08-22T01:46:39.000Z</time>
        <extensions>
          <ns3:TrackPointExtension>
            <ns3:hr>102</ns3:hr>
            <ns3:cad>0</ns3:cad>
          </ns3:TrackPointExtension>
        </extensions>
      </trkpt>
      <trkpt lat="45.26275363750755786895751953125" lon="-71.1292968504130840301513671875">
        <ele>655.5999755859375</ele>
        <time>2026-08-22T01:46:40.000Z</time>
        <extensions>
          <ns3:TrackPointExtension>
            <ns3:hr>100</ns3:hr>
            <ns3:cad>0</ns3:cad>
          </ns3:TrackPointExtension>
        </extensions>
      </trkpt>
      <trkpt lat="45.26275062002241611480712890625" lon="-71.12931453622877597808837890625">
        <ele>655.4000244140625</ele>
        <time>2026-08-22T01:46:41.000Z</time>
        <extensions>
          <ns3:TrackPointExtension>
            <ns3:hr>100</ns3:hr>
            <ns3:cad>0</ns3:cad>
          </ns3:TrackPointExtension>
        </extensions>
      </trkpt>
      <trkpt lat="45.2627451717853546142578125" lon="-71.12933012656867504119873046875">
        <ele>655.20001220703125</ele>
        <time>2026-08-22T01:46:42.000Z</time>
        <extensions>
          <ns3:TrackPointExtension>
            <ns3:hr>101</ns3:hr>
            <ns3:cad>0</ns3:cad>
          </ns3:TrackPointExtension>
        </extensions>
      </trkpt>
      <trkpt lat="45.26273720897734165191650390625" lon="-71.1293454654514789581298828125">
        <ele>655</ele>
        <time>2026-08-22T01:46:43.000Z</time>
        <extensions>
          <ns3:TrackPointExtension>
            <ns3:hr>102</ns3:hr>
            <ns3:cad>0</ns3:cad>
          </ns3:TrackPointExtension>
        </extensions>
      </trkpt>
      <trkpt lat="45.26273067109286785125732421875" lon="-71.12935761921107769012451171875">
        <ele>654.79998779296875</ele>
        <time>2026-08-22T01:46:44.000Z</time>
        <extensions>
          <ns3:TrackPointExtension>
            <ns3:hr>102</ns3:hr>
            <ns3:cad>0</ns3:cad>
          </ns3:TrackPointExtension>
        </extensions>
      </trkpt>
      <trkpt lat="45.26271943934261798858642578125" lon="-71.12937144935131072998046875">
        <ele>654.79998779296875</ele>
        <time>2026-08-22T01:46:45.000Z</time>
        <extensions>
          <ns3:TrackPointExtension>
            <ns3:hr>102</ns3:hr>
            <ns3:cad>0</ns3:cad>
          </ns3:TrackPointExtension>
        </extensions>
      </trkpt>
      <trkpt lat="45.26271172799170017242431640625" lon="-71.12938310019671916961669921875">
        <ele>654.5999755859375</ele>
        <time>2026-08-22T01:46:46.000Z</time>
        <extensions>
          <ns3:TrackPointExtension>
            <ns3:hr>102</ns3:hr>
            <ns3:cad>0</ns3:cad>
          </ns3:TrackPointExtension>
        </extensions>
      </trkpt>
      <trkpt lat="45.26270837523043155670166015625" lon="-71.12938544712960720062255859375">
        <ele>654.5999755859375</ele>
        <time>2026-08-22T01:46:47.000Z</time>
        <extensions>
          <ns3:TrackPointExtension>
            <ns3:hr>103</ns3:hr>
            <ns3:cad>0</ns3:cad>
          </ns3:TrackPointExtension>
        </extensions>
      </trkpt>
      <trkpt lat="45.2626977302134037017822265625" lon="-71.1293967626988887786865234375">
        <ele>654.79998779296875</ele>
        <time>2026-08-22T01:46:48.000Z</time>
        <extensions>
          <ns3:TrackPointExtension>
            <ns3:hr>103</ns3:hr>
            <ns3:cad>0</ns3:cad>
          </ns3:TrackPointExtension>
        </extensions>
      </trkpt>
      <trkpt lat="45.2626920305192470550537109375" lon="-71.12940690480172634124755859375">
        <ele>654.79998779296875</ele>
        <time>2026-08-22T01:46:49.000Z</time>
        <extensions>
          <ns3:TrackPointExtension>
            <ns3:hr>103</ns3:hr>
            <ns3:cad>0</ns3:cad>
          </ns3:TrackPointExtension>
        </extensions>
      </trkpt>
      <trkpt lat="45.26268591172993183135986328125" lon="-71.12942081876099109649658203125">
        <ele>655</ele>
        <time>2026-08-22T01:46:50.000Z</time>
        <extensions>
          <ns3:TrackPointExtension>
            <ns3:hr>103</ns3:hr>
            <ns3:cad>0</ns3:cad>
          </ns3:TrackPointExtension>
        </extensions>
      </trkpt>
      <trkpt lat="45.26268289424479007720947265625" lon="-71.129428111016750335693359375">
        <ele>655.20001220703125</ele>
        <time>2026-08-22T01:46:51.000Z</time>
        <extensions>
          <ns3:TrackPointExtension>
            <ns3:hr>106</ns3:hr>
            <ns3:cad>0</ns3:cad>
          </ns3:TrackPointExtension>
        </extensions>
      </trkpt>
      <trkpt lat="45.26268281042575836181640625" lon="-71.129429452121257781982421875">
        <ele>655.20001220703125</ele>
        <time>2026-08-22T01:46:52.000Z</time>
        <extensions>
          <ns3:TrackPointExtension>
            <ns3:hr>111</ns3:hr>
            <ns3:cad>0</ns3:cad>
          </ns3:TrackPointExtension>
        </extensions>
      </trkpt>
      <trkpt lat="45.26268306188285350799560546875" lon="-71.12943003885447978973388671875">
        <ele>655.20001220703125</ele>
        <time>2026-08-22T01:46:53.000Z</time>
        <extensions>
          <ns3:TrackPointExtension>
            <ns3:hr>112</ns3:hr>
            <ns3:cad>0</ns3:cad>
          </ns3:TrackPointExtension>
        </extensions>
      </trkpt>
      <trkpt lat="45.26268306188285350799560546875" lon="-71.12943003885447978973388671875">
        <ele>655.20001220703125</ele>
        <time>2026-08-22T01:46:54.000Z</time>
        <extensions>
          <ns3:TrackPointExtension>
            <ns3:hr>113</ns3:hr>
            <ns3:cad>0</ns3:cad>
          </ns3:TrackPointExtension>
        </extensions>
      </trkpt>
      <trkpt lat="45.26268306188285350799560546875" lon="-71.12943003885447978973388671875">
        <ele>655.20001220703125</ele>
        <time>2026-08-22T01:46:55.000Z</time>
        <extensions>
          <ns3:TrackPointExtension>
            <ns3:hr>113</ns3:hr>
            <ns3:cad>0</ns3:cad>
          </ns3:TrackPointExtension>
        </extensions>
      </trkpt>
      <trkpt lat="45.262683145701885223388671875" lon="-71.12943037413060665130615234375">
        <ele>655.20001220703125</ele>
        <time>2026-08-22T01:46:56.000Z</time>
        <extensions>
          <ns3:TrackPointExtension>
            <ns3:hr>112</ns3:hr>
            <ns3:cad>0</ns3:cad>
          </ns3:TrackPointExtension>
        </extensions>
      </trkpt>
      <trkpt lat="45.262684486806392669677734375" lon="-71.12943054176867008209228515625">
        <ele>655.20001220703125</ele>
        <time>2026-08-22T01:46:57.000Z</time>
        <extensions>
          <ns3:TrackPointExtension>
            <ns3:hr>112</ns3:hr>
            <ns3:cad>0</ns3:cad>
          </ns3:TrackPointExtension>
        </extensions>
      </trkpt>
      <trkpt lat="45.26268306188285350799560546875" lon="-71.12943003885447978973388671875">
        <ele>655.20001220703125</ele>
        <time>2026-08-22T01:46:58.000Z</time>
        <extensions>
          <ns3:TrackPointExtension>
            <ns3:hr>111</ns3:hr>
            <ns3:cad>0</ns3:cad>
          </ns3:TrackPointExtension>
        </extensions>
      </trkpt>
      <trkpt lat="45.26268356479704380035400390625" lon="-71.129431463778018951416015625">
        <ele>655.20001220703125</ele>
        <time>2026-08-22T01:46:59.000Z</time>
        <extensions>
          <ns3:TrackPointExtension>
            <ns3:hr>109</ns3:hr>
            <ns3:cad>0</ns3:cad>
          </ns3:TrackPointExtension>
        </extensions>
      </trkpt>
      <trkpt lat="45.26267920620739459991455078125" lon="-71.129434145987033843994140625">
        <ele>655.20001220703125</ele>
        <time>2026-08-22T01:47:00.000Z</time>
        <extensions>
          <ns3:TrackPointExtension>
            <ns3:hr>109</ns3:hr>
            <ns3:cad>41</ns3:cad>
          </ns3:TrackPointExtension>
        </extensions>
      </trkpt>
      <trkpt lat="45.26267568580806255340576171875" lon="-71.1294426955282688140869140625">
        <ele>655</ele>
        <time>2026-08-22T01:47:01.000Z</time>
        <extensions>
          <ns3:TrackPointExtension>
            <ns3:hr>108</ns3:hr>
            <ns3:cad>41</ns3:cad>
          </ns3:TrackPointExtension>
        </extensions>
      </trkpt>
      <trkpt lat="45.2626740932464599609375" lon="-71.12944512628018856048583984375">
        <ele>655</ele>
        <time>2026-08-22T01:47:02.000Z</time>
        <extensions>
          <ns3:TrackPointExtension>
            <ns3:hr>107</ns3:hr>
            <ns3:cad>47</ns3:cad>
          </ns3:TrackPointExtension>
        </extensions>
      </trkpt>
      <trkpt lat="45.26266939938068389892578125" lon="-71.1294530890882015228271484375">
        <ele>655</ele>
        <time>2026-08-22T01:47:03.000Z</time>
        <extensions>
          <ns3:TrackPointExtension>
            <ns3:hr>107</ns3:hr>
            <ns3:cad>47</ns3:cad>
          </ns3:TrackPointExtension>
        </extensions>
      </trkpt>
      <trkpt lat="45.26266529224812984466552734375" lon="-71.1294691823422908782958984375">
        <ele>655</ele>
        <time>2026-08-22T01:47:04.000Z</time>
        <extensions>
          <ns3:TrackPointExtension>
            <ns3:hr>107</ns3:hr>
            <ns3:cad>0</ns3:cad>
          </ns3:TrackPointExtension>
        </extensions>
      </trkpt>
      <trkpt lat="45.2626618556678295135498046875" lon="-71.12948569469153881072998046875">
        <ele>655</ele>
        <time>2026-08-22T01:47:05.000Z</time>
        <extensions>
          <ns3:TrackPointExtension>
            <ns3:hr>107</ns3:hr>
            <ns3:cad>0</ns3:cad>
          </ns3:TrackPointExtension>
        </extensions>
      </trkpt>
      <trkpt lat="45.26265858672559261322021484375" lon="-71.1295077390968799591064453125">
        <ele>655</ele>
        <time>2026-08-22T01:47:06.000Z</time>
        <extensions>
          <ns3:TrackPointExtension>
            <ns3:hr>107</ns3:hr>
            <ns3:cad>0</ns3:cad>
          </ns3:TrackPointExtension>
        </extensions>
      </trkpt>
      <trkpt lat="45.26265841908752918243408203125" lon="-71.12952031195163726806640625">
        <ele>655.20001220703125</ele>
        <time>2026-08-22T01:47:07.000Z</time>
        <extensions>
          <ns3:TrackPointExtension>
            <ns3:hr>107</ns3:hr>
            <ns3:cad>0</ns3:cad>
          </ns3:TrackPointExtension>
        </extensions>
      </trkpt>
      <trkpt lat="45.2626675553619861602783203125" lon="-71.1295328848063945770263671875">
        <ele>655.20001220703125</ele>
        <time>2026-08-22T01:47:08.000Z</time>
        <extensions>
          <ns3:TrackPointExtension>
            <ns3:hr>108</ns3:hr>
            <ns3:cad>0</ns3:cad>
          </ns3:TrackPointExtension>
        </extensions>
      </trkpt>
      <trkpt lat="45.26267752982676029205322265625" lon="-71.12954470328986644744873046875">
        <ele>655.20001220703125</ele>
        <time>2026-08-22T01:47:09.000Z</time>
        <extensions>
          <ns3:TrackPointExtension>
            <ns3:hr>108</ns3:hr>
            <ns3:cad>0</ns3:cad>
          </ns3:TrackPointExtension>
        </extensions>
      </trkpt>
      <trkpt lat="45.26268624700605869293212890625" lon="-71.129552163183689117431640625">
        <ele>655.4000244140625</ele>
        <time>2026-08-22T01:47:10.000Z</time>
        <extensions>
          <ns3:TrackPointExtension>
            <ns3:hr>108</ns3:hr>
            <ns3:cad>0</ns3:cad>
          </ns3:TrackPointExtension>
        </extensions>
      </trkpt>
      <trkpt lat="45.2626970596611499786376953125" lon="-71.1295563541352748870849609375">
        <ele>655.4000244140625</ele>
        <time>2026-08-22T01:47:11.000Z</time>
        <extensions>
          <ns3:TrackPointExtension>
            <ns3:hr>108</ns3:hr>
            <ns3:cad>0</ns3:cad>
          </ns3:TrackPointExtension>
        </extensions>
      </trkpt>
      <trkpt lat="45.26271390728652477264404296875" lon="-71.1295600421726703643798828125">
        <ele>655.20001220703125</ele>
        <time>2026-08-22T01:47:12.000Z</time>
        <extensions>
          <ns3:TrackPointExtension>
            <ns3:hr>108</ns3:hr>
            <ns3:cad>0</ns3:cad>
          </ns3:TrackPointExtension>
        </extensions>
      </trkpt>
      <trkpt lat="45.262730754911899566650390625" lon="-71.12955518066883087158203125">
        <ele>655.20001220703125</ele>
        <time>2026-08-22T01:47:13.000Z</time>
        <extensions>
          <ns3:TrackPointExtension>
            <ns3:hr>110</ns3:hr>
            <ns3:cad>0</ns3:cad>
          </ns3:TrackPointExtension>
        </extensions>
      </trkpt>
      <trkpt lat="45.2627463452517986297607421875" lon="-71.12954922951757907867431640625">
        <ele>655.20001220703125</ele>
        <time>2026-08-22T01:47:14.000Z</time>
        <extensions>
          <ns3:TrackPointExtension>
            <ns3:hr>113</ns3:hr>
            <ns3:cad>0</ns3:cad>
          </ns3:TrackPointExtension>
        </extensions>
      </trkpt>
      <trkpt lat="45.26275514625012874603271484375" lon="-71.12954034470021724700927734375">
        <ele>655</ele>
        <time>2026-08-22T01:47:15.000Z</time>
        <extensions>
          <ns3:TrackPointExtension>
            <ns3:hr>114</ns3:hr>
            <ns3:cad>0</ns3:cad>
          </ns3:TrackPointExtension>
        </extensions>
      </trkpt>
      <trkpt lat="45.26276503689587116241455078125" lon="-71.12952777184545993804931640625">
        <ele>655</ele>
        <time>2026-08-22T01:47:16.000Z</time>
        <extensions>
          <ns3:TrackPointExtension>
            <ns3:hr>114</ns3:hr>
            <ns3:cad>52</ns3:cad>
          </ns3:TrackPointExtension>
        </extensions>
      </trkpt>
      <trkpt lat="45.26276939548552036285400390625" lon="-71.129507236182689666748046875">
        <ele>654.5999755859375</ele>
        <time>2026-08-22T01:47:17.000Z</time>
        <extensions>
          <ns3:TrackPointExtension>
            <ns3:hr>115</ns3:hr>
            <ns3:cad>52</ns3:cad>
          </ns3:TrackPointExtension>
        </extensions>
      </trkpt>
      <trkpt lat="45.26277601718902587890625" lon="-71.12948720343410968780517578125">
        <ele>654.4000244140625</ele>
        <time>2026-08-22T01:47:18.000Z</time>
        <extensions>
          <ns3:TrackPointExtension>
            <ns3:hr>115</ns3:hr>
            <ns3:cad>52</ns3:cad>
          </ns3:TrackPointExtension>
        </extensions>
      </trkpt>
      <trkpt lat="45.2627802081406116485595703125" lon="-71.12947396002709865570068359375">
        <ele>654.20001220703125</ele>
        <time>2026-08-22T01:47:19.000Z</time>
        <extensions>
          <ns3:TrackPointExtension>
            <ns3:hr>115</ns3:hr>
            <ns3:cad>52</ns3:cad>
          </ns3:TrackPointExtension>
        </extensions>
      </trkpt>
      <trkpt lat="45.2627852372825145721435546875" lon="-71.12947312183678150177001953125">
        <ele>654</ele>
        <time>2026-08-22T01:47:20.000Z</time>
        <extensions>
          <ns3:TrackPointExtension>
            <ns3:hr>114</ns3:hr>
            <ns3:cad>52</ns3:cad>
          </ns3:TrackPointExtension>
        </extensions>
      </trkpt>
      <trkpt lat="45.26278716512024402618408203125" lon="-71.12947446294128894805908203125">
        <ele>653.79998779296875</ele>
        <time>2026-08-22T01:47:21.000Z</time>
        <extensions>
          <ns3:TrackPointExtension>
            <ns3:hr>114</ns3:hr>
            <ns3:cad>0</ns3:cad>
          </ns3:TrackPointExtension>
        </extensions>
      </trkpt>
      <trkpt lat="45.26279035024344921112060546875" lon="-71.129467003047466278076171875">
        <ele>653.79998779296875</ele>
        <time>2026-08-22T01:47:22.000Z</time>
        <extensions>
          <ns3:TrackPointExtension>
            <ns3:hr>114</ns3:hr>
            <ns3:cad>0</ns3:cad>
          </ns3:TrackPointExtension>
        </extensions>
      </trkpt>
      <trkpt lat="45.2627929486334323883056640625" lon="-71.12945367582142353057861328125">
        <ele>653.79998779296875</ele>
        <time>2026-08-22T01:47:23.000Z</time>
        <extensions>
          <ns3:TrackPointExtension>
            <ns3:hr>114</ns3:hr>
            <ns3:cad>0</ns3:cad>
          </ns3:TrackPointExtension>
        </extensions>
      </trkpt>
      <trkpt lat="45.26279336772859096527099609375" lon="-71.12944789230823516845703125">
        <ele>653.79998779296875</ele>
        <time>2026-08-22T01:47:24.000Z</time>
        <extensions>
          <ns3:TrackPointExtension>
            <ns3:hr>114</ns3:hr>
            <ns3:cad>0</ns3:cad>
          </ns3:TrackPointExtension>
        </extensions>
      </trkpt>
      <trkpt lat="45.26279353536665439605712890625" lon="-71.1294431984424591064453125">
        <ele>653.79998779296875</ele>
        <time>2026-08-22T01:47:25.000Z</time>
        <extensions>
          <ns3:TrackPointExtension>
            <ns3:hr>114</ns3:hr>
            <ns3:cad>0</ns3:cad>
          </ns3:TrackPointExtension>
        </extensions>
      </trkpt>
      <trkpt lat="45.26279420591890811920166015625" lon="-71.12943976186215877532958984375">
        <ele>653.79998779296875</ele>
        <time>2026-08-22T01:47:26.000Z</time>
        <extensions>
          <ns3:TrackPointExtension>
            <ns3:hr>113</ns3:hr>
            <ns3:cad>0</ns3:cad>
          </ns3:TrackPointExtension>
        </extensions>
      </trkpt>
      <trkpt lat="45.26279537938535213470458984375" lon="-71.1294393427670001983642578125">
        <ele>653.79998779296875</ele>
        <time>2026-08-22T01:47:27.000Z</time>
        <extensions>
          <ns3:TrackPointExtension>
            <ns3:hr>114</ns3:hr>
            <ns3:cad>0</ns3:cad>
          </ns3:TrackPointExtension>
        </extensions>
      </trkpt>
      <trkpt lat="45.26279672048985958099365234375" lon="-71.12944009713828563690185546875">
        <ele>653.79998779296875</ele>
        <time>2026-08-22T01:47:28.000Z</time>
        <extensions>
          <ns3:TrackPointExtension>
            <ns3:hr>114</ns3:hr>
            <ns3:cad>0</ns3:cad>
          </ns3:TrackPointExtension>
        </extensions>
      </trkpt>
      <trkpt lat="45.262795798480510711669921875" lon="-71.12944160588085651397705078125">
        <ele>653.79998779296875</ele>
        <time>2026-08-22T01:47:29.000Z</time>
        <extensions>
          <ns3:TrackPointExtension>
            <ns3:hr>114</ns3:hr>
            <ns3:cad>0</ns3:cad>
          </ns3:TrackPointExtension>
        </extensions>
      </trkpt>
      <trkpt lat="45.2627919428050518035888671875" lon="-71.1294504068791866302490234375">
        <ele>653.79998779296875</ele>
        <time>2026-08-22T01:47:30.000Z</time>
        <extensions>
          <ns3:TrackPointExtension>
            <ns3:hr>114</ns3:hr>
            <ns3:cad>0</ns3:cad>
          </ns3:TrackPointExtension>
        </extensions>
      </trkpt>
      <trkpt lat="45.26278649456799030303955078125" lon="-71.12946105189621448516845703125">
        <ele>653.79998779296875</ele>
        <time>2026-08-22T01:47:31.000Z</time>
        <extensions>
          <ns3:TrackPointExtension>
            <ns3:hr>115</ns3:hr>
            <ns3:cad>0</ns3:cad>
          </ns3:TrackPointExtension>
        </extensions>
      </trkpt>
      <trkpt lat="45.2627813816070556640625" lon="-71.129469685256481170654296875">
        <ele>653.79998779296875</ele>
        <time>2026-08-22T01:47:32.000Z</time>
        <extensions>
          <ns3:TrackPointExtension>
            <ns3:hr>115</ns3:hr>
            <ns3:cad>0</ns3:cad>
          </ns3:TrackPointExtension>
        </extensions>
      </trkpt>
      <trkpt lat="45.2627800405025482177734375" lon="-71.1294701881706714630126953125">
        <ele>654</ele>
        <time>2026-08-22T01:47:33.000Z</time>
        <extensions>
          <ns3:TrackPointExtension>
            <ns3:hr>115</ns3:hr>
            <ns3:cad>0</ns3:cad>
          </ns3:TrackPointExtension>
        </extensions>
      </trkpt>
      <trkpt lat="45.26278607547283172607421875" lon="-71.1294695176184177398681640625">
        <ele>654</ele>
        <time>2026-08-22T01:47:34.000Z</time>
        <extensions>
          <ns3:TrackPointExtension>
            <ns3:hr>114</ns3:hr>
            <ns3:cad>0</ns3:cad>
          </ns3:TrackPointExtension>
        </extensions>
      </trkpt>
      <trkpt lat="45.26278674602508544921875" lon="-71.1294708587229251861572265625">
        <ele>654</ele>
        <time>2026-08-22T01:47:35.000Z</time>
        <extensions>
          <ns3:TrackPointExtension>
            <ns3:hr>114</ns3:hr>
            <ns3:cad>0</ns3:cad>
          </ns3:TrackPointExtension>
        </extensions>
      </trkpt>
      <trkpt lat="45.2627845667302608489990234375" lon="-71.1294748820364475250244140625">
        <ele>653.79998779296875</ele>
        <time>2026-08-22T01:47:36.000Z</time>
        <extensions>
          <ns3:TrackPointExtension>
            <ns3:hr>113</ns3:hr>
            <ns3:cad>0</ns3:cad>
          </ns3:TrackPointExtension>
        </extensions>
      </trkpt>
      <trkpt lat="45.26278599165380001068115234375" lon="-71.1294742114841938018798828125">
        <ele>653.5999755859375</ele>
        <time>2026-08-22T01:47:37.000Z</time>
        <extensions>
          <ns3:TrackPointExtension>
            <ns3:hr>113</ns3:hr>
            <ns3:cad>0</ns3:cad>
          </ns3:TrackPointExtension>
        </extensions>
      </trkpt>
      <trkpt lat="45.26278632692992687225341796875" lon="-71.12947412766516208648681640625">
        <ele>653.4000244140625</ele>
        <time>2026-08-22T01:47:38.000Z</time>
        <extensions>
          <ns3:TrackPointExtension>
            <ns3:hr>112</ns3:hr>
            <ns3:cad>0</ns3:cad>
          </ns3:TrackPointExtension>
        </extensions>
      </trkpt>
      <trkpt lat="45.26278666220605373382568359375" lon="-71.12947412766516208648681640625">
        <ele>653.20001220703125</ele>
        <time>2026-08-22T01:47:39.000Z</time>
        <extensions>
          <ns3:TrackPointExtension>
            <ns3:hr>113</ns3:hr>
            <ns3:cad>0</ns3:cad>
          </ns3:TrackPointExtension>
        </extensions>
      </trkpt>
      <trkpt lat="45.2627859078347682952880859375" lon="-71.12947882153093814849853515625">
        <ele>653.20001220703125</ele>
        <time>2026-08-22T01:47:40.000Z</time>
        <extensions>
          <ns3:TrackPointExtension>
            <ns3:hr>114</ns3:hr>
            <ns3:cad>0</ns3:cad>
          </ns3:TrackPointExtension>
        </extensions>
      </trkpt>
      <trkpt lat="45.2627862431108951568603515625" lon="-71.1294782347977161407470703125">
        <ele>653</ele>
        <time>2026-08-22T01:47:41.000Z</time>
        <extensions>
          <ns3:TrackPointExtension>
            <ns3:hr>114</ns3:hr>
            <ns3:cad>0</ns3:cad>
          </ns3:TrackPointExtension>
        </extensions>
      </trkpt>
      <trkpt lat="45.26278884150087833404541015625" lon="-71.12947647459805011749267578125">
        <ele>653</ele>
        <time>2026-08-22T01:47:42.000Z</time>
        <extensions>
          <ns3:TrackPointExtension>
            <ns3:hr>113</ns3:hr>
            <ns3:cad>0</ns3:cad>
          </ns3:TrackPointExtension>
        </extensions>
      </trkpt>
      <trkpt lat="45.26278632692992687225341796875" lon="-71.12947412766516208648681640625">
        <ele>653</ele>
        <time>2026-08-22T01:47:43.000Z</time>
        <extensions>
          <ns3:TrackPointExtension>
            <ns3:hr>113</ns3:hr>
            <ns3:cad>0</ns3:cad>
          </ns3:TrackPointExtension>
        </extensions>
      </trkpt>
      <trkpt lat="45.26278632692992687225341796875" lon="-71.12947412766516208648681640625">
        <ele>653</ele>
        <time>2026-08-22T01:47:44.000Z</time>
        <extensions>
          <ns3:TrackPointExtension>
            <ns3:hr>112</ns3:hr>
            <ns3:cad>0</ns3:cad>
          </ns3:TrackPointExtension>
        </extensions>
      </trkpt>
      <trkpt lat="45.26278632692992687225341796875" lon="-71.12947412766516208648681640625">
        <ele>653.20001220703125</ele>
        <time>2026-08-22T01:47:45.000Z</time>
        <extensions>
          <ns3:TrackPointExtension>
            <ns3:hr>109</ns3:hr>
            <ns3:cad>0</ns3:cad>
          </ns3:TrackPointExtension>
        </extensions>
      </trkpt>
      <trkpt lat="45.26278632692992687225341796875" lon="-71.12947412766516208648681640625">
        <ele>653.20001220703125</ele>
        <time>2026-08-22T01:47:46.000Z</time>
        <extensions>
          <ns3:TrackPointExtension>
            <ns3:hr>107</ns3:hr>
            <ns3:cad>0</ns3:cad>
          </ns3:TrackPointExtension>
        </extensions>
      </trkpt>
      <trkpt lat="45.26278632692992687225341796875" lon="-71.12947412766516208648681640625">
        <ele>653.20001220703125</ele>
        <time>2026-08-22T01:47:47.000Z</time>
        <extensions>
          <ns3:TrackPointExtension>
            <ns3:hr>106</ns3:hr>
            <ns3:cad>0</ns3:cad>
          </ns3:TrackPointExtension>
        </extensions>
      </trkpt>
      <trkpt lat="45.26278632692992687225341796875" lon="-71.12947412766516208648681640625">
        <ele>653.20001220703125</ele>
        <time>2026-08-22T01:47:48.000Z</time>
        <extensions>
          <ns3:TrackPointExtension>
            <ns3:hr>105</ns3:hr>
            <ns3:cad>0</ns3:cad>
          </ns3:TrackPointExtension>
        </extensions>
      </trkpt>
      <trkpt lat="45.26278632692992687225341796875" lon="-71.12947412766516208648681640625">
        <ele>653.20001220703125</ele>
        <time>2026-08-22T01:47:49.000Z</time>
        <extensions>
          <ns3:TrackPointExtension>
            <ns3:hr>106</ns3:hr>
            <ns3:cad>0</ns3:cad>
          </ns3:TrackPointExtension>
        </extensions>
      </trkpt>
      <trkpt lat="45.26278632692992687225341796875" lon="-71.12947412766516208648681640625">
        <ele>653.20001220703125</ele>
        <time>2026-08-22T01:47:50.000Z</time>
        <extensions>
          <ns3:TrackPointExtension>
            <ns3:hr>106</ns3:hr>
            <ns3:cad>0</ns3:cad>
          </ns3:TrackPointExtension>
        </extensions>
      </trkpt>
      <trkpt lat="45.26278632692992687225341796875" lon="-71.12947412766516208648681640625">
        <ele>653.20001220703125</ele>
        <time>2026-08-22T01:47:51.000Z</time>
        <extensions>
          <ns3:TrackPointExtension>
            <ns3:hr>106</ns3:hr>
            <ns3:cad>0</ns3:cad>
          </ns3:TrackPointExtension>
        </extensions>
      </trkpt>
      <trkpt lat="45.26278632692992687225341796875" lon="-71.12947412766516208648681640625">
        <ele>653.20001220703125</ele>
        <time>2026-08-22T01:47:52.000Z</time>
        <extensions>
          <ns3:TrackPointExtension>
            <ns3:hr>105</ns3:hr>
            <ns3:cad>0</ns3:cad>
          </ns3:TrackPointExtension>
        </extensions>
      </trkpt>
      <trkpt lat="45.26278632692992687225341796875" lon="-71.12947412766516208648681640625">
        <ele>653.20001220703125</ele>
        <time>2026-08-22T01:47:53.000Z</time>
        <extensions>
          <ns3:TrackPointExtension>
            <ns3:hr>105</ns3:hr>
            <ns3:cad>0</ns3:cad>
          </ns3:TrackPointExtension>
        </extensions>
      </trkpt>
      <trkpt lat="45.26278632692992687225341796875" lon="-71.12947412766516208648681640625">
        <ele>653</ele>
        <time>2026-08-22T01:47:54.000Z</time>
        <extensions>
          <ns3:TrackPointExtension>
            <ns3:hr>105</ns3:hr>
            <ns3:cad>0</ns3:cad>
          </ns3:TrackPointExtension>
        </extensions>
      </trkpt>
      <trkpt lat="45.26278632692992687225341796875" lon="-71.12947412766516208648681640625">
        <ele>653</ele>
        <time>2026-08-22T01:47:55.000Z</time>
        <extensions>
          <ns3:TrackPointExtension>
            <ns3:hr>106</ns3:hr>
            <ns3:cad>0</ns3:cad>
          </ns3:TrackPointExtension>
        </extensions>
      </trkpt>
      <trkpt lat="45.26278632692992687225341796875" lon="-71.12947412766516208648681640625">
        <ele>653</ele>
        <time>2026-08-22T01:47:56.000Z</time>
        <extensions>
          <ns3:TrackPointExtension>
            <ns3:hr>106</ns3:hr>
            <ns3:cad>0</ns3:cad>
          </ns3:TrackPointExtension>
        </extensions>
      </trkpt>
      <trkpt lat="45.26278632692992687225341796875" lon="-71.12947412766516208648681640625">
        <ele>653</ele>
        <time>2026-08-22T01:47:57.000Z</time>
        <extensions>
          <ns3:TrackPointExtension>
            <ns3:hr>106</ns3:hr>
            <ns3:cad>0</ns3:cad>
          </ns3:TrackPointExtension>
        </extensions>
      </trkpt>
      <trkpt lat="45.26278632692992687225341796875" lon="-71.12947412766516208648681640625">
        <ele>653</ele>
        <time>2026-08-22T01:47:58.000Z</time>
        <extensions>
          <ns3:TrackPointExtension>
            <ns3:hr>106</ns3:hr>
            <ns3:cad>0</ns3:cad>
          </ns3:TrackPointExtension>
        </extensions>
      </trkpt>
      <trkpt lat="45.26278632692992687225341796875" lon="-71.12947412766516208648681640625">
        <ele>653</ele>
        <time>2026-08-22T01:47:59.000Z</time>
        <extensions>
          <ns3:TrackPointExtension>
            <ns3:hr>106</ns3:hr>
            <ns3:cad>0</ns3:cad>
          </ns3:TrackPointExtension>
        </extensions>
      </trkpt>
      <trkpt lat="45.26278632692992687225341796875" lon="-71.12947412766516208648681640625">
        <ele>653</ele>
        <time>2026-08-22T01:48:00.000Z</time>
        <extensions>
          <ns3:TrackPointExtension>
            <ns3:hr>106</ns3:hr>
            <ns3:cad>0</ns3:cad>
          </ns3:TrackPointExtension>
        </extensions>
      </trkpt>
      <trkpt lat="45.26278632692992687225341796875" lon="-71.12947412766516208648681640625">
        <ele>653</ele>
        <time>2026-08-22T01:48:01.000Z</time>
        <extensions>
          <ns3:TrackPointExtension>
            <ns3:hr>105</ns3:hr>
            <ns3:cad>0</ns3:cad>
          </ns3:TrackPointExtension>
        </extensions>
      </trkpt>
      <trkpt lat="45.26278632692992687225341796875" lon="-71.12947412766516208648681640625">
        <ele>653</ele>
        <time>2026-08-22T01:48:02.000Z</time>
        <extensions>
          <ns3:TrackPointExtension>
            <ns3:hr>102</ns3:hr>
            <ns3:cad>0</ns3:cad>
          </ns3:TrackPointExtension>
        </extensions>
      </trkpt>
      <trkpt lat="45.26278632692992687225341796875" lon="-71.12947412766516208648681640625">
        <ele>653</ele>
        <time>2026-08-22T01:48:03.000Z</time>
        <extensions>
          <ns3:TrackPointExtension>
            <ns3:hr>101</ns3:hr>
            <ns3:cad>0</ns3:cad>
          </ns3:TrackPointExtension>
        </extensions>
      </trkpt>
      <trkpt lat="45.26278632692992687225341796875" lon="-71.12947412766516208648681640625">
        <ele>653</ele>
        <time>2026-08-22T01:48:04.000Z</time>
        <extensions>
          <ns3:TrackPointExtension>
            <ns3:hr>101</ns3:hr>
            <ns3:cad>0</ns3:cad>
          </ns3:TrackPointExtension>
        </extensions>
      </trkpt>
      <trkpt lat="45.26278632692992687225341796875" lon="-71.12947412766516208648681640625">
        <ele>653</ele>
        <time>2026-08-22T01:48:05.000Z</time>
        <extensions>
          <ns3:TrackPointExtension>
            <ns3:hr>102</ns3:hr>
            <ns3:cad>0</ns3:cad>
          </ns3:TrackPointExtension>
        </extensions>
      </trkpt>
      <trkpt lat="45.26278632692992687225341796875" lon="-71.12947412766516208648681640625">
        <ele>653</ele>
        <time>2026-08-22T01:48:06.000Z</time>
        <extensions>
          <ns3:TrackPointExtension>
            <ns3:hr>102</ns3:hr>
            <ns3:cad>0</ns3:cad>
          </ns3:TrackPointExtension>
        </extensions>
      </trkpt>
      <trkpt lat="45.26278632692992687225341796875" lon="-71.12947412766516208648681640625">
        <ele>653</ele>
        <time>2026-08-22T01:48:07.000Z</time>
        <extensions>
          <ns3:TrackPointExtension>
            <ns3:hr>102</ns3:hr>
            <ns3:cad>0</ns3:cad>
          </ns3:TrackPointExtension>
        </extensions>
      </trkpt>
      <trkpt lat="45.26278632692992687225341796875" lon="-71.12947412766516208648681640625">
        <ele>653</ele>
        <time>2026-08-22T01:48:08.000Z</time>
        <extensions>
          <ns3:TrackPointExtension>
            <ns3:hr>102</ns3:hr>
            <ns3:cad>0</ns3:cad>
          </ns3:TrackPointExtension>
        </extensions>
      </trkpt>
      <trkpt lat="45.26278632692992687225341796875" lon="-71.12947412766516208648681640625">
        <ele>653.20001220703125</ele>
        <time>2026-08-22T01:48:09.000Z</time>
        <extensions>
          <ns3:TrackPointExtension>
            <ns3:hr>102</ns3:hr>
            <ns3:cad>0</ns3:cad>
          </ns3:TrackPointExtension>
        </extensions>
      </trkpt>
      <trkpt lat="45.26278632692992687225341796875" lon="-71.12947412766516208648681640625">
        <ele>653.20001220703125</ele>
        <time>2026-08-22T01:48:10.000Z</time>
        <extensions>
          <ns3:TrackPointExtension>
            <ns3:hr>102</ns3:hr>
            <ns3:cad>0</ns3:cad>
          </ns3:TrackPointExtension>
        </extensions>
      </trkpt>
      <trkpt lat="45.26278632692992687225341796875" lon="-71.12947412766516208648681640625">
        <ele>653.20001220703125</ele>
        <time>2026-08-22T01:48:11.000Z</time>
        <extensions>
          <ns3:TrackPointExtension>
            <ns3:hr>102</ns3:hr>
            <ns3:cad>0</ns3:cad>
          </ns3:TrackPointExtension>
        </extensions>
      </trkpt>
      <trkpt lat="45.26278632692992687225341796875" lon="-71.12947412766516208648681640625">
        <ele>653</ele>
        <time>2026-08-22T01:48:12.000Z</time>
        <extensions>
          <ns3:TrackPointExtension>
            <ns3:hr>101</ns3:hr>
            <ns3:cad>0</ns3:cad>
          </ns3:TrackPointExtension>
        </extensions>
      </trkpt>
      <trkpt lat="45.26278632692992687225341796875" lon="-71.12947412766516208648681640625">
        <ele>653</ele>
        <time>2026-08-22T01:48:13.000Z</time>
        <extensions>
          <ns3:TrackPointExtension>
            <ns3:hr>101</ns3:hr>
            <ns3:cad>0</ns3:cad>
          </ns3:TrackPointExtension>
        </extensions>
      </trkpt>
      <trkpt lat="45.26278632692992687225341796875" lon="-71.12947412766516208648681640625">
        <ele>653</ele>
        <time>2026-08-22T01:48:14.000Z</time>
        <extensions>
          <ns3:TrackPointExtension>
            <ns3:hr>100</ns3:hr>
            <ns3:cad>0</ns3:cad>
          </ns3:TrackPointExtension>
        </extensions>
      </trkpt>
      <trkpt lat="45.26278632692992687225341796875" lon="-71.12947412766516208648681640625">
        <ele>653</ele>
        <time>2026-08-22T01:48:15.000Z</time>
        <extensions>
          <ns3:TrackPointExtension>
            <ns3:hr>100</ns3:hr>
            <ns3:cad>0</ns3:cad>
          </ns3:TrackPointExtension>
        </extensions>
      </trkpt>
      <trkpt lat="45.26278632692992687225341796875" lon="-71.12947412766516208648681640625">
        <ele>653</ele>
        <time>2026-08-22T01:48:16.000Z</time>
        <extensions>
          <ns3:TrackPointExtension>
            <ns3:hr>100</ns3:hr>
            <ns3:cad>0</ns3:cad>
          </ns3:TrackPointExtension>
        </extensions>
      </trkpt>
      <trkpt lat="45.26278632692992687225341796875" lon="-71.12947412766516208648681640625">
        <ele>653</ele>
        <time>2026-08-22T01:48:17.000Z</time>
        <extensions>
          <ns3:TrackPointExtension>
            <ns3:hr>99</ns3:hr>
            <ns3:cad>0</ns3:cad>
          </ns3:TrackPointExtension>
        </extensions>
      </trkpt>
      <trkpt lat="45.26278632692992687225341796875" lon="-71.12947412766516208648681640625">
        <ele>653</ele>
        <time>2026-08-22T01:48:18.000Z</time>
        <extensions>
          <ns3:TrackPointExtension>
            <ns3:hr>98</ns3:hr>
            <ns3:cad>0</ns3:cad>
          </ns3:TrackPointExtension>
        </extensions>
      </trkpt>
      <trkpt lat="45.26278632692992687225341796875" lon="-71.12947412766516208648681640625">
        <ele>653</ele>
        <time>2026-08-22T01:48:19.000Z</time>
        <extensions>
          <ns3:TrackPointExtension>
            <ns3:hr>98</ns3:hr>
            <ns3:cad>0</ns3:cad>
          </ns3:TrackPointExtension>
        </extensions>
      </trkpt>
      <trkpt lat="45.26278632692992687225341796875" lon="-71.12947412766516208648681640625">
        <ele>653</ele>
        <time>2026-08-22T01:48:20.000Z</time>
        <extensions>
          <ns3:TrackPointExtension>
            <ns3:hr>98</ns3:hr>
            <ns3:cad>0</ns3:cad>
          </ns3:TrackPointExtension>
        </extensions>
      </trkpt>
      <trkpt lat="45.26278632692992687225341796875" lon="-71.12947412766516208648681640625">
        <ele>653</ele>
        <time>2026-08-22T01:48:21.000Z</time>
        <extensions>
          <ns3:TrackPointExtension>
            <ns3:hr>98</ns3:hr>
            <ns3:cad>0</ns3:cad>
          </ns3:TrackPointExtension>
        </extensions>
      </trkpt>
      <trkpt lat="45.26278632692992687225341796875" lon="-71.12947412766516208648681640625">
        <ele>653</ele>
        <time>2026-08-22T01:48:22.000Z</time>
        <extensions>
          <ns3:TrackPointExtension>
            <ns3:hr>97</ns3:hr>
            <ns3:cad>0</ns3:cad>
          </ns3:TrackPointExtension>
        </extensions>
      </trkpt>
      <trkpt lat="45.26278632692992687225341796875" lon="-71.12947412766516208648681640625">
        <ele>653</ele>
        <time>2026-08-22T01:48:23.000Z</time>
        <extensions>
          <ns3:TrackPointExtension>
            <ns3:hr>97</ns3:hr>
            <ns3:cad>0</ns3:cad>
          </ns3:TrackPointExtension>
        </extensions>
      </trkpt>
      <trkpt lat="45.26278632692992687225341796875" lon="-71.12947412766516208648681640625">
        <ele>653</ele>
        <time>2026-08-22T01:48:24.000Z</time>
        <extensions>
          <ns3:TrackPointExtension>
            <ns3:hr>97</ns3:hr>
            <ns3:cad>0</ns3:cad>
          </ns3:TrackPointExtension>
        </extensions>
      </trkpt>
      <trkpt lat="45.26278632692992687225341796875" lon="-71.12947412766516208648681640625">
        <ele>653</ele>
        <time>2026-08-22T01:48:25.000Z</time>
        <extensions>
          <ns3:TrackPointExtension>
            <ns3:hr>96</ns3:hr>
            <ns3:cad>0</ns3:cad>
          </ns3:TrackPointExtension>
        </extensions>
      </trkpt>
      <trkpt lat="45.26278632692992687225341796875" lon="-71.12947412766516208648681640625">
        <ele>653</ele>
        <time>2026-08-22T01:48:26.000Z</time>
        <extensions>
          <ns3:TrackPointExtension>
            <ns3:hr>96</ns3:hr>
            <ns3:cad>0</ns3:cad>
          </ns3:TrackPointExtension>
        </extensions>
      </trkpt>
      <trkpt lat="45.26278632692992687225341796875" lon="-71.12947412766516208648681640625">
        <ele>653</ele>
        <time>2026-08-22T01:48:27.000Z</time>
        <extensions>
          <ns3:TrackPointExtension>
            <ns3:hr>96</ns3:hr>
            <ns3:cad>0</ns3:cad>
          </ns3:TrackPointExtension>
        </extensions>
      </trkpt>
      <trkpt lat="45.26278632692992687225341796875" lon="-71.12947412766516208648681640625">
        <ele>653</ele>
        <time>2026-08-22T01:48:28.000Z</time>
        <extensions>
          <ns3:TrackPointExtension>
            <ns3:hr>96</ns3:hr>
            <ns3:cad>0</ns3:cad>
          </ns3:TrackPointExtension>
        </extensions>
      </trkpt>
      <trkpt lat="45.26278632692992687225341796875" lon="-71.12947412766516208648681640625">
        <ele>653</ele>
        <time>2026-08-22T01:48:29.000Z</time>
        <extensions>
          <ns3:TrackPointExtension>
            <ns3:hr>97</ns3:hr>
            <ns3:cad>0</ns3:cad>
          </ns3:TrackPointExtension>
        </extensions>
      </trkpt>
      <trkpt lat="45.26278632692992687225341796875" lon="-71.12947412766516208648681640625">
        <ele>653</ele>
        <time>2026-08-22T01:48:30.000Z</time>
        <extensions>
          <ns3:TrackPointExtension>
            <ns3:hr>97</ns3:hr>
            <ns3:cad>0</ns3:cad>
          </ns3:TrackPointExtension>
        </extensions>
      </trkpt>
      <trkpt lat="45.26278632692992687225341796875" lon="-71.12947412766516208648681640625">
        <ele>653</ele>
        <time>2026-08-22T01:48:31.000Z</time>
        <extensions>
          <ns3:TrackPointExtension>
            <ns3:hr>97</ns3:hr>
            <ns3:cad>0</ns3:cad>
          </ns3:TrackPointExtension>
        </extensions>
      </trkpt>
      <trkpt lat="45.26278632692992687225341796875" lon="-71.12947412766516208648681640625">
        <ele>653</ele>
        <time>2026-08-22T01:48:32.000Z</time>
        <extensions>
          <ns3:TrackPointExtension>
            <ns3:hr>96</ns3:hr>
            <ns3:cad>0</ns3:cad>
          </ns3:TrackPointExtension>
        </extensions>
      </trkpt>
      <trkpt lat="45.26278632692992687225341796875" lon="-71.12947412766516208648681640625">
        <ele>653</ele>
        <time>2026-08-22T01:48:33.000Z</time>
        <extensions>
          <ns3:TrackPointExtension>
            <ns3:hr>96</ns3:hr>
            <ns3:cad>0</ns3:cad>
          </ns3:TrackPointExtension>
        </extensions>
      </trkpt>
      <trkpt lat="45.26278632692992687225341796875" lon="-71.12947412766516208648681640625">
        <ele>653</ele>
        <time>2026-08-22T01:48:34.000Z</time>
        <extensions>
          <ns3:TrackPointExtension>
            <ns3:hr>95</ns3:hr>
            <ns3:cad>0</ns3:cad>
          </ns3:TrackPointExtension>
        </extensions>
      </trkpt>
      <trkpt lat="45.26278632692992687225341796875" lon="-71.12947412766516208648681640625">
        <ele>653</ele>
        <time>2026-08-22T01:48:35.000Z</time>
        <extensions>
          <ns3:TrackPointExtension>
            <ns3:hr>95</ns3:hr>
            <ns3:cad>0</ns3:cad>
          </ns3:TrackPointExtension>
        </extensions>
      </trkpt>
      <trkpt lat="45.26278632692992687225341796875" lon="-71.12947412766516208648681640625">
        <ele>653</ele>
        <time>2026-08-22T01:48:36.000Z</time>
        <extensions>
          <ns3:TrackPointExtension>
            <ns3:hr>95</ns3:hr>
            <ns3:cad>0</ns3:cad>
          </ns3:TrackPointExtension>
        </extensions>
      </trkpt>
      <trkpt lat="45.26278632692992687225341796875" lon="-71.12947412766516208648681640625">
        <ele>653</ele>
        <time>2026-08-22T01:48:37.000Z</time>
        <extensions>
          <ns3:TrackPointExtension>
            <ns3:hr>96</ns3:hr>
            <ns3:cad>0</ns3:cad>
          </ns3:TrackPointExtension>
        </extensions>
      </trkpt>
      <trkpt lat="45.26278632692992687225341796875" lon="-71.12947412766516208648681640625">
        <ele>653</ele>
        <time>2026-08-22T01:48:38.000Z</time>
        <extensions>
          <ns3:TrackPointExtension>
            <ns3:hr>96</ns3:hr>
            <ns3:cad>0</ns3:cad>
          </ns3:TrackPointExtension>
        </extensions>
      </trkpt>
      <trkpt lat="45.26278632692992687225341796875" lon="-71.12947412766516208648681640625">
        <ele>653</ele>
        <time>2026-08-22T01:48:39.000Z</time>
        <extensions>
          <ns3:TrackPointExtension>
            <ns3:hr>96</ns3:hr>
            <ns3:cad>0</ns3:cad>
          </ns3:TrackPointExtension>
        </extensions>
      </trkpt>
      <trkpt lat="45.26278632692992687225341796875" lon="-71.12947412766516208648681640625">
        <ele>653</ele>
        <time>2026-08-22T01:48:40.000Z</time>
        <extensions>
          <ns3:TrackPointExtension>
            <ns3:hr>96</ns3:hr>
            <ns3:cad>0</ns3:cad>
          </ns3:TrackPointExtension>
        </extensions>
      </trkpt>
      <trkpt lat="45.26278632692992687225341796875" lon="-71.12947412766516208648681640625">
        <ele>653</ele>
        <time>2026-08-22T01:48:41.000Z</time>
        <extensions>
          <ns3:TrackPointExtension>
            <ns3:hr>96</ns3:hr>
            <ns3:cad>0</ns3:cad>
          </ns3:TrackPointExtension>
        </extensions>
      </trkpt>
      <trkpt lat="45.26278632692992687225341796875" lon="-71.12947412766516208648681640625">
        <ele>653</ele>
        <time>2026-08-22T01:48:42.000Z</time>
        <extensions>
          <ns3:TrackPointExtension>
            <ns3:hr>96</ns3:hr>
            <ns3:cad>0</ns3:cad>
          </ns3:TrackPointExtension>
        </extensions>
      </trkpt>
      <trkpt lat="45.26278632692992687225341796875" lon="-71.12947412766516208648681640625">
        <ele>653</ele>
        <time>2026-08-22T01:48:43.000Z</time>
        <extensions>
          <ns3:TrackPointExtension>
            <ns3:hr>96</ns3:hr>
            <ns3:cad>0</ns3:cad>
          </ns3:TrackPointExtension>
        </extensions>
      </trkpt>
      <trkpt lat="45.26278632692992687225341796875" lon="-71.12947412766516208648681640625">
        <ele>653</ele>
        <time>2026-08-22T01:48:44.000Z</time>
        <extensions>
          <ns3:TrackPointExtension>
            <ns3:hr>96</ns3:hr>
            <ns3:cad>0</ns3:cad>
          </ns3:TrackPointExtension>
        </extensions>
      </trkpt>
      <trkpt lat="45.26278632692992687225341796875" lon="-71.12947412766516208648681640625">
        <ele>653</ele>
        <time>2026-08-22T01:48:45.000Z</time>
        <extensions>
          <ns3:TrackPointExtension>
            <ns3:hr>96</ns3:hr>
            <ns3:cad>0</ns3:cad>
          </ns3:TrackPointExtension>
        </extensions>
      </trkpt>
      <trkpt lat="45.26278632692992687225341796875" lon="-71.12947412766516208648681640625">
        <ele>653</ele>
        <time>2026-08-22T01:48:46.000Z</time>
        <extensions>
          <ns3:TrackPointExtension>
            <ns3:hr>96</ns3:hr>
            <ns3:cad>0</ns3:cad>
          </ns3:TrackPointExtension>
        </extensions>
      </trkpt>
      <trkpt lat="45.26278632692992687225341796875" lon="-71.12947412766516208648681640625">
        <ele>653</ele>
        <time>2026-08-22T01:48:47.000Z</time>
        <extensions>
          <ns3:TrackPointExtension>
            <ns3:hr>96</ns3:hr>
            <ns3:cad>0</ns3:cad>
          </ns3:TrackPointExtension>
        </extensions>
      </trkpt>
      <trkpt lat="45.26278632692992687225341796875" lon="-71.12947412766516208648681640625">
        <ele>653</ele>
        <time>2026-08-22T01:48:48.000Z</time>
        <extensions>
          <ns3:TrackPointExtension>
            <ns3:hr>96</ns3:hr>
            <ns3:cad>0</ns3:cad>
          </ns3:TrackPointExtension>
        </extensions>
      </trkpt>
      <trkpt lat="45.26278632692992687225341796875" lon="-71.12947412766516208648681640625">
        <ele>653</ele>
        <time>2026-08-22T01:48:49.000Z</time>
        <extensions>
          <ns3:TrackPointExtension>
            <ns3:hr>96</ns3:hr>
            <ns3:cad>0</ns3:cad>
          </ns3:TrackPointExtension>
        </extensions>
      </trkpt>
      <trkpt lat="45.26278632692992687225341796875" lon="-71.12947412766516208648681640625">
        <ele>653</ele>
        <time>2026-08-22T01:48:50.000Z</time>
        <extensions>
          <ns3:TrackPointExtension>
            <ns3:hr>96</ns3:hr>
            <ns3:cad>0</ns3:cad>
          </ns3:TrackPointExtension>
        </extensions>
      </trkpt>
      <trkpt lat="45.26278632692992687225341796875" lon="-71.12947412766516208648681640625">
        <ele>653</ele>
        <time>2026-08-22T01:48:51.000Z</time>
        <extensions>
          <ns3:TrackPointExtension>
            <ns3:hr>96</ns3:hr>
            <ns3:cad>0</ns3:cad>
          </ns3:TrackPointExtension>
        </extensions>
      </trkpt>
      <trkpt lat="45.26278632692992687225341796875" lon="-71.12947412766516208648681640625">
        <ele>653</ele>
        <time>2026-08-22T01:48:52.000Z</time>
        <extensions>
          <ns3:TrackPointExtension>
            <ns3:hr>96</ns3:hr>
            <ns3:cad>0</ns3:cad>
          </ns3:TrackPointExtension>
        </extensions>
      </trkpt>
      <trkpt lat="45.26278632692992687225341796875" lon="-71.12947412766516208648681640625">
        <ele>653</ele>
        <time>2026-08-22T01:48:53.000Z</time>
        <extensions>
          <ns3:TrackPointExtension>
            <ns3:hr>95</ns3:hr>
            <ns3:cad>0</ns3:cad>
          </ns3:TrackPointExtension>
        </extensions>
      </trkpt>
      <trkpt lat="45.26278632692992687225341796875" lon="-71.12947412766516208648681640625">
        <ele>653</ele>
        <time>2026-08-22T01:48:54.000Z</time>
        <extensions>
          <ns3:TrackPointExtension>
            <ns3:hr>95</ns3:hr>
            <ns3:cad>0</ns3:cad>
          </ns3:TrackPointExtension>
        </extensions>
      </trkpt>
      <trkpt lat="45.26278632692992687225341796875" lon="-71.12947412766516208648681640625">
        <ele>653</ele>
        <time>2026-08-22T01:48:55.000Z</time>
        <extensions>
          <ns3:TrackPointExtension>
            <ns3:hr>95</ns3:hr>
            <ns3:cad>0</ns3:cad>
          </ns3:TrackPointExtension>
        </extensions>
      </trkpt>
      <trkpt lat="45.26278632692992687225341796875" lon="-71.12947412766516208648681640625">
        <ele>653</ele>
        <time>2026-08-22T01:48:56.000Z</time>
        <extensions>
          <ns3:TrackPointExtension>
            <ns3:hr>95</ns3:hr>
            <ns3:cad>0</ns3:cad>
          </ns3:TrackPointExtension>
        </extensions>
      </trkpt>
      <trkpt lat="45.26278632692992687225341796875" lon="-71.12947412766516208648681640625">
        <ele>653</ele>
        <time>2026-08-22T01:48:57.000Z</time>
        <extensions>
          <ns3:TrackPointExtension>
            <ns3:hr>95</ns3:hr>
            <ns3:cad>0</ns3:cad>
          </ns3:TrackPointExtension>
        </extensions>
      </trkpt>
      <trkpt lat="45.26278632692992687225341796875" lon="-71.12947412766516208648681640625">
        <ele>653</ele>
        <time>2026-08-22T01:48:58.000Z</time>
        <extensions>
          <ns3:TrackPointExtension>
            <ns3:hr>94</ns3:hr>
            <ns3:cad>0</ns3:cad>
          </ns3:TrackPointExtension>
        </extensions>
      </trkpt>
      <trkpt lat="45.26278632692992687225341796875" lon="-71.12947412766516208648681640625">
        <ele>653</ele>
        <time>2026-08-22T01:48:59.000Z</time>
        <extensions>
          <ns3:TrackPointExtension>
            <ns3:hr>94</ns3:hr>
            <ns3:cad>0</ns3:cad>
          </ns3:TrackPointExtension>
        </extensions>
      </trkpt>
      <trkpt lat="45.26278632692992687225341796875" lon="-71.12947412766516208648681640625">
        <ele>653</ele>
        <time>2026-08-22T01:49:00.000Z</time>
        <extensions>
          <ns3:TrackPointExtension>
            <ns3:hr>95</ns3:hr>
            <ns3:cad>0</ns3:cad>
          </ns3:TrackPointExtension>
        </extensions>
      </trkpt>
      <trkpt lat="45.26278632692992687225341796875" lon="-71.12947412766516208648681640625">
        <ele>653</ele>
        <time>2026-08-22T01:49:01.000Z</time>
        <extensions>
          <ns3:TrackPointExtension>
            <ns3:hr>95</ns3:hr>
            <ns3:cad>0</ns3:cad>
          </ns3:TrackPointExtension>
        </extensions>
      </trkpt>
      <trkpt lat="45.26278632692992687225341796875" lon="-71.12947412766516208648681640625">
        <ele>653</ele>
        <time>2026-08-22T01:49:02.000Z</time>
        <extensions>
          <ns3:TrackPointExtension>
            <ns3:hr>94</ns3:hr>
            <ns3:cad>0</ns3:cad>
          </ns3:TrackPointExtension>
        </extensions>
      </trkpt>
      <trkpt lat="45.26278632692992687225341796875" lon="-71.12947412766516208648681640625">
        <ele>653</ele>
        <time>2026-08-22T01:49:03.000Z</time>
        <extensions>
          <ns3:TrackPointExtension>
            <ns3:hr>94</ns3:hr>
            <ns3:cad>0</ns3:cad>
          </ns3:TrackPointExtension>
        </extensions>
      </trkpt>
      <trkpt lat="45.26278632692992687225341796875" lon="-71.12947412766516208648681640625">
        <ele>653</ele>
        <time>2026-08-22T01:49:04.000Z</time>
        <extensions>
          <ns3:TrackPointExtension>
            <ns3:hr>95</ns3:hr>
            <ns3:cad>0</ns3:cad>
          </ns3:TrackPointExtension>
        </extensions>
      </trkpt>
      <trkpt lat="45.26278632692992687225341796875" lon="-71.12947412766516208648681640625">
        <ele>653</ele>
        <time>2026-08-22T01:49:05.000Z</time>
        <extensions>
          <ns3:TrackPointExtension>
            <ns3:hr>95</ns3:hr>
            <ns3:cad>0</ns3:cad>
          </ns3:TrackPointExtension>
        </extensions>
      </trkpt>
      <trkpt lat="45.26278632692992687225341796875" lon="-71.12947412766516208648681640625">
        <ele>653</ele>
        <time>2026-08-22T01:49:06.000Z</time>
        <extensions>
          <ns3:TrackPointExtension>
            <ns3:hr>95</ns3:hr>
            <ns3:cad>0</ns3:cad>
          </ns3:TrackPointExtension>
        </extensions>
      </trkpt>
      <trkpt lat="45.26278632692992687225341796875" lon="-71.12947412766516208648681640625">
        <ele>653</ele>
        <time>2026-08-22T01:49:07.000Z</time>
        <extensions>
          <ns3:TrackPointExtension>
            <ns3:hr>96</ns3:hr>
            <ns3:cad>0</ns3:cad>
          </ns3:TrackPointExtension>
        </extensions>
      </trkpt>
      <trkpt lat="45.26278632692992687225341796875" lon="-71.12947412766516208648681640625">
        <ele>653</ele>
        <time>2026-08-22T01:49:08.000Z</time>
        <extensions>
          <ns3:TrackPointExtension>
            <ns3:hr>96</ns3:hr>
            <ns3:cad>0</ns3:cad>
          </ns3:TrackPointExtension>
        </extensions>
      </trkpt>
      <trkpt lat="45.26278632692992687225341796875" lon="-71.12947412766516208648681640625">
        <ele>653</ele>
        <time>2026-08-22T01:49:09.000Z</time>
        <extensions>
          <ns3:TrackPointExtension>
            <ns3:hr>96</ns3:hr>
            <ns3:cad>0</ns3:cad>
          </ns3:TrackPointExtension>
        </extensions>
      </trkpt>
      <trkpt lat="45.26278632692992687225341796875" lon="-71.12947412766516208648681640625">
        <ele>653</ele>
        <time>2026-08-22T01:49:10.000Z</time>
        <extensions>
          <ns3:TrackPointExtension>
            <ns3:hr>96</ns3:hr>
            <ns3:cad>0</ns3:cad>
          </ns3:TrackPointExtension>
        </extensions>
      </trkpt>
      <trkpt lat="45.26278632692992687225341796875" lon="-71.12947412766516208648681640625">
        <ele>653</ele>
        <time>2026-08-22T01:49:11.000Z</time>
        <extensions>
          <ns3:TrackPointExtension>
            <ns3:hr>96</ns3:hr>
            <ns3:cad>0</ns3:cad>
          </ns3:TrackPointExtension>
        </extensions>
      </trkpt>
      <trkpt lat="45.26278632692992687225341796875" lon="-71.12947412766516208648681640625">
        <ele>653</ele>
        <time>2026-08-22T01:49:12.000Z</time>
        <extensions>
          <ns3:TrackPointExtension>
            <ns3:hr>96</ns3:hr>
            <ns3:cad>0</ns3:cad>
          </ns3:TrackPointExtension>
        </extensions>
      </trkpt>
      <trkpt lat="45.26278632692992687225341796875" lon="-71.12947412766516208648681640625">
        <ele>653</ele>
        <time>2026-08-22T01:49:13.000Z</time>
        <extensions>
          <ns3:TrackPointExtension>
            <ns3:hr>96</ns3:hr>
            <ns3:cad>0</ns3:cad>
          </ns3:TrackPointExtension>
        </extensions>
      </trkpt>
      <trkpt lat="45.26278632692992687225341796875" lon="-71.12947412766516208648681640625">
        <ele>653</ele>
        <time>2026-08-22T01:49:14.000Z</time>
        <extensions>
          <ns3:TrackPointExtension>
            <ns3:hr>96</ns3:hr>
            <ns3:cad>0</ns3:cad>
          </ns3:TrackPointExtension>
        </extensions>
      </trkpt>
      <trkpt lat="45.26278632692992687225341796875" lon="-71.12947412766516208648681640625">
        <ele>653</ele>
        <time>2026-08-22T01:49:15.000Z</time>
        <extensions>
          <ns3:TrackPointExtension>
            <ns3:hr>96</ns3:hr>
            <ns3:cad>0</ns3:cad>
          </ns3:TrackPointExtension>
        </extensions>
      </trkpt>
      <trkpt lat="45.26278632692992687225341796875" lon="-71.12947412766516208648681640625">
        <ele>653</ele>
        <time>2026-08-22T01:49:16.000Z</time>
        <extensions>
          <ns3:TrackPointExtension>
            <ns3:hr>96</ns3:hr>
            <ns3:cad>0</ns3:cad>
          </ns3:TrackPointExtension>
        </extensions>
      </trkpt>
      <trkpt lat="45.26278632692992687225341796875" lon="-71.12947412766516208648681640625">
        <ele>653</ele>
        <time>2026-08-22T01:49:17.000Z</time>
        <extensions>
          <ns3:TrackPointExtension>
            <ns3:hr>96</ns3:hr>
            <ns3:cad>0</ns3:cad>
          </ns3:TrackPointExtension>
        </extensions>
      </trkpt>
      <trkpt lat="45.26278632692992687225341796875" lon="-71.12947412766516208648681640625">
        <ele>652.79998779296875</ele>
        <time>2026-08-22T01:49:18.000Z</time>
        <extensions>
          <ns3:TrackPointExtension>
            <ns3:hr>96</ns3:hr>
            <ns3:cad>0</ns3:cad>
          </ns3:TrackPointExtension>
        </extensions>
      </trkpt>
      <trkpt lat="45.26278632692992687225341796875" lon="-71.12947412766516208648681640625">
        <ele>652.79998779296875</ele>
        <time>2026-08-22T01:49:19.000Z</time>
        <extensions>
          <ns3:TrackPointExtension>
            <ns3:hr>96</ns3:hr>
            <ns3:cad>0</ns3:cad>
          </ns3:TrackPointExtension>
        </extensions>
      </trkpt>
      <trkpt lat="45.26278632692992687225341796875" lon="-71.12947412766516208648681640625">
        <ele>652.79998779296875</ele>
        <time>2026-08-22T01:49:20.000Z</time>
        <extensions>
          <ns3:TrackPointExtension>
            <ns3:hr>97</ns3:hr>
            <ns3:cad>0</ns3:cad>
          </ns3:TrackPointExtension>
        </extensions>
      </trkpt>
      <trkpt lat="45.26278632692992687225341796875" lon="-71.12947412766516208648681640625">
        <ele>652.79998779296875</ele>
        <time>2026-08-22T01:49:21.000Z</time>
        <extensions>
          <ns3:TrackPointExtension>
            <ns3:hr>97</ns3:hr>
            <ns3:cad>0</ns3:cad>
          </ns3:TrackPointExtension>
        </extensions>
      </trkpt>
      <trkpt lat="45.26278632692992687225341796875" lon="-71.12947412766516208648681640625">
        <ele>652.79998779296875</ele>
        <time>2026-08-22T01:49:22.000Z</time>
        <extensions>
          <ns3:TrackPointExtension>
            <ns3:hr>97</ns3:hr>
            <ns3:cad>0</ns3:cad>
          </ns3:TrackPointExtension>
        </extensions>
      </trkpt>
      <trkpt lat="45.26278632692992687225341796875" lon="-71.12947412766516208648681640625">
        <ele>652.79998779296875</ele>
        <time>2026-08-22T01:49:23.000Z</time>
        <extensions>
          <ns3:TrackPointExtension>
            <ns3:hr>97</ns3:hr>
            <ns3:cad>0</ns3:cad>
          </ns3:TrackPointExtension>
        </extensions>
      </trkpt>
      <trkpt lat="45.26278632692992687225341796875" lon="-71.12947412766516208648681640625">
        <ele>652.79998779296875</ele>
        <time>2026-08-22T01:49:24.000Z</time>
        <extensions>
          <ns3:TrackPointExtension>
            <ns3:hr>98</ns3:hr>
            <ns3:cad>0</ns3:cad>
          </ns3:TrackPointExtension>
        </extensions>
      </trkpt>
      <trkpt lat="45.26278884150087833404541015625" lon="-71.12947748042643070220947265625">
        <ele>652.79998779296875</ele>
        <time>2026-08-22T01:49:25.000Z</time>
        <extensions>
          <ns3:TrackPointExtension>
            <ns3:hr>99</ns3:hr>
            <ns3:cad>0</ns3:cad>
          </ns3:TrackPointExtension>
        </extensions>
      </trkpt>
      <trkpt lat="45.2627875842154026031494140625" lon="-71.12947739660739898681640625">
        <ele>653</ele>
        <time>2026-08-22T01:49:26.000Z</time>
        <extensions>
          <ns3:TrackPointExtension>
            <ns3:hr>100</ns3:hr>
            <ns3:cad>0</ns3:cad>
          </ns3:TrackPointExtension>
        </extensions>
      </trkpt>
      <trkpt lat="45.26279068551957607269287109375" lon="-71.12947111018002033233642578125">
        <ele>653</ele>
        <time>2026-08-22T01:49:27.000Z</time>
        <extensions>
          <ns3:TrackPointExtension>
            <ns3:hr>100</ns3:hr>
            <ns3:cad>0</ns3:cad>
          </ns3:TrackPointExtension>
        </extensions>
      </trkpt>
      <trkpt lat="45.26279051788151264190673828125" lon="-71.12947077490389347076416015625">
        <ele>653</ele>
        <time>2026-08-22T01:49:28.000Z</time>
        <extensions>
          <ns3:TrackPointExtension>
            <ns3:hr>100</ns3:hr>
            <ns3:cad>0</ns3:cad>
          </ns3:TrackPointExtension>
        </extensions>
      </trkpt>
      <trkpt lat="45.26279085315763950347900390625" lon="-71.12947412766516208648681640625">
        <ele>653</ele>
        <time>2026-08-22T01:49:29.000Z</time>
        <extensions>
          <ns3:TrackPointExtension>
            <ns3:hr>99</ns3:hr>
            <ns3:cad>0</ns3:cad>
          </ns3:TrackPointExtension>
        </extensions>
      </trkpt>
      <trkpt lat="45.26279143989086151123046875" lon="-71.12947882153093814849853515625">
        <ele>653</ele>
        <time>2026-08-22T01:49:30.000Z</time>
        <extensions>
          <ns3:TrackPointExtension>
            <ns3:hr>98</ns3:hr>
            <ns3:cad>0</ns3:cad>
          </ns3:TrackPointExtension>
        </extensions>
      </trkpt>
      <trkpt lat="45.26278951205313205718994140625" lon="-71.1294856108725070953369140625">
        <ele>653</ele>
        <time>2026-08-22T01:49:31.000Z</time>
        <extensions>
          <ns3:TrackPointExtension>
            <ns3:hr>96</ns3:hr>
            <ns3:cad>0</ns3:cad>
          </ns3:TrackPointExtension>
        </extensions>
      </trkpt>
      <trkpt lat="45.2627919428050518035888671875" lon="-71.12948569469153881072998046875">
        <ele>653</ele>
        <time>2026-08-22T01:49:32.000Z</time>
        <extensions>
          <ns3:TrackPointExtension>
            <ns3:hr>95</ns3:hr>
            <ns3:cad>0</ns3:cad>
          </ns3:TrackPointExtension>
        </extensions>
      </trkpt>
      <trkpt lat="45.26279739104211330413818359375" lon="-71.12948167137801647186279296875">
        <ele>653</ele>
        <time>2026-08-22T01:49:33.000Z</time>
        <extensions>
          <ns3:TrackPointExtension>
            <ns3:hr>94</ns3:hr>
            <ns3:cad>0</ns3:cad>
          </ns3:TrackPointExtension>
        </extensions>
      </trkpt>
      <trkpt lat="45.26280292309820652008056640625" lon="-71.12947882153093814849853515625">
        <ele>653.20001220703125</ele>
        <time>2026-08-22T01:49:34.000Z</time>
        <extensions>
          <ns3:TrackPointExtension>
            <ns3:hr>94</ns3:hr>
            <ns3:cad>0</ns3:cad>
          </ns3:TrackPointExtension>
        </extensions>
      </trkpt>
      <trkpt lat="45.26280527003109455108642578125" lon="-71.12947530113160610198974609375">
        <ele>653.4000244140625</ele>
        <time>2026-08-22T01:49:35.000Z</time>
        <extensions>
          <ns3:TrackPointExtension>
            <ns3:hr>94</ns3:hr>
            <ns3:cad>0</ns3:cad>
          </ns3:TrackPointExtension>
        </extensions>
      </trkpt>
      <trkpt lat="45.2628068625926971435546875" lon="-71.1294688470661640167236328125">
        <ele>653.5999755859375</ele>
        <time>2026-08-22T01:49:36.000Z</time>
        <extensions>
          <ns3:TrackPointExtension>
            <ns3:hr>94</ns3:hr>
            <ns3:cad>0</ns3:cad>
          </ns3:TrackPointExtension>
        </extensions>
      </trkpt>
      <trkpt lat="45.262805186212062835693359375" lon="-71.129457615315914154052734375">
        <ele>653.79998779296875</ele>
        <time>2026-08-22T01:49:37.000Z</time>
        <extensions>
          <ns3:TrackPointExtension>
            <ns3:hr>94</ns3:hr>
            <ns3:cad>0</ns3:cad>
          </ns3:TrackPointExtension>
        </extensions>
      </trkpt>
      <trkpt lat="45.26280409656465053558349609375" lon="-71.1294534243643283843994140625">
        <ele>653.5999755859375</ele>
        <time>2026-08-22T01:49:38.000Z</time>
        <extensions>
          <ns3:TrackPointExtension>
            <ns3:hr>94</ns3:hr>
            <ns3:cad>0</ns3:cad>
          </ns3:TrackPointExtension>
        </extensions>
      </trkpt>
      <trkpt lat="45.26280158199369907379150390625" lon="-71.12944931723177433013916015625">
        <ele>653.4000244140625</ele>
        <time>2026-08-22T01:49:39.000Z</time>
        <extensions>
          <ns3:TrackPointExtension>
            <ns3:hr>94</ns3:hr>
            <ns3:cad>0</ns3:cad>
          </ns3:TrackPointExtension>
        </extensions>
      </trkpt>
      <trkpt lat="45.26280082762241363525390625" lon="-71.1294433660805225372314453125">
        <ele>653.20001220703125</ele>
        <time>2026-08-22T01:49:40.000Z</time>
        <extensions>
          <ns3:TrackPointExtension>
            <ns3:hr>94</ns3:hr>
            <ns3:cad>0</ns3:cad>
          </ns3:TrackPointExtension>
        </extensions>
      </trkpt>
      <trkpt lat="45.26280158199369907379150390625" lon="-71.1294433660805225372314453125">
        <ele>653</ele>
        <time>2026-08-22T01:49:41.000Z</time>
        <extensions>
          <ns3:TrackPointExtension>
            <ns3:hr>94</ns3:hr>
            <ns3:cad>0</ns3:cad>
          </ns3:TrackPointExtension>
        </extensions>
      </trkpt>
      <trkpt lat="45.26280141435563564300537109375" lon="-71.129444204270839691162109375">
        <ele>652.79998779296875</ele>
        <time>2026-08-22T01:49:42.000Z</time>
        <extensions>
          <ns3:TrackPointExtension>
            <ns3:hr>94</ns3:hr>
            <ns3:cad>0</ns3:cad>
          </ns3:TrackPointExtension>
        </extensions>
      </trkpt>
      <trkpt lat="45.26280141435563564300537109375" lon="-71.129444204270839691162109375">
        <ele>652.5999755859375</ele>
        <time>2026-08-22T01:49:43.000Z</time>
        <extensions>
          <ns3:TrackPointExtension>
            <ns3:hr>94</ns3:hr>
            <ns3:cad>0</ns3:cad>
          </ns3:TrackPointExtension>
        </extensions>
      </trkpt>
      <trkpt lat="45.26280141435563564300537109375" lon="-71.129444204270839691162109375">
        <ele>652.5999755859375</ele>
        <time>2026-08-22T01:49:44.000Z</time>
        <extensions>
          <ns3:TrackPointExtension>
            <ns3:hr>94</ns3:hr>
            <ns3:cad>0</ns3:cad>
          </ns3:TrackPointExtension>
        </extensions>
      </trkpt>
      <trkpt lat="45.26280141435563564300537109375" lon="-71.129444204270839691162109375">
        <ele>652.5999755859375</ele>
        <time>2026-08-22T01:49:45.000Z</time>
        <extensions>
          <ns3:TrackPointExtension>
            <ns3:hr>94</ns3:hr>
            <ns3:cad>0</ns3:cad>
          </ns3:TrackPointExtension>
        </extensions>
      </trkpt>
      <trkpt lat="45.26280141435563564300537109375" lon="-71.129444204270839691162109375">
        <ele>652.79998779296875</ele>
        <time>2026-08-22T01:49:46.000Z</time>
        <extensions>
          <ns3:TrackPointExtension>
            <ns3:hr>94</ns3:hr>
            <ns3:cad>0</ns3:cad>
          </ns3:TrackPointExtension>
        </extensions>
      </trkpt>
      <trkpt lat="45.26280141435563564300537109375" lon="-71.129444204270839691162109375">
        <ele>652.79998779296875</ele>
        <time>2026-08-22T01:49:47.000Z</time>
        <extensions>
          <ns3:TrackPointExtension>
            <ns3:hr>94</ns3:hr>
            <ns3:cad>0</ns3:cad>
          </ns3:TrackPointExtension>
        </extensions>
      </trkpt>
      <trkpt lat="45.26280141435563564300537109375" lon="-71.129444204270839691162109375">
        <ele>652.79998779296875</ele>
        <time>2026-08-22T01:49:48.000Z</time>
        <extensions>
          <ns3:TrackPointExtension>
            <ns3:hr>94</ns3:hr>
            <ns3:cad>0</ns3:cad>
          </ns3:TrackPointExtension>
        </extensions>
      </trkpt>
      <trkpt lat="45.26280141435563564300537109375" lon="-71.129444204270839691162109375">
        <ele>652.79998779296875</ele>
        <time>2026-08-22T01:49:49.000Z</time>
        <extensions>
          <ns3:TrackPointExtension>
            <ns3:hr>94</ns3:hr>
            <ns3:cad>0</ns3:cad>
          </ns3:TrackPointExtension>
        </extensions>
      </trkpt>
      <trkpt lat="45.26280141435563564300537109375" lon="-71.129444204270839691162109375">
        <ele>652.79998779296875</ele>
        <time>2026-08-22T01:49:50.000Z</time>
        <extensions>
          <ns3:TrackPointExtension>
            <ns3:hr>89</ns3:hr>
            <ns3:cad>0</ns3:cad>
          </ns3:TrackPointExtension>
        </extensions>
      </trkpt>
      <trkpt lat="45.26280141435563564300537109375" lon="-71.129444204270839691162109375">
        <ele>652.79998779296875</ele>
        <time>2026-08-22T01:49:51.000Z</time>
        <extensions>
          <ns3:TrackPointExtension>
            <ns3:hr>79</ns3:hr>
            <ns3:cad>0</ns3:cad>
          </ns3:TrackPointExtension>
        </extensions>
      </trkpt>
      <trkpt lat="45.26280141435563564300537109375" lon="-71.129444204270839691162109375">
        <ele>652.79998779296875</ele>
        <time>2026-08-22T01:49:52.000Z</time>
        <extensions>
          <ns3:TrackPointExtension>
            <ns3:hr>75</ns3:hr>
            <ns3:cad>0</ns3:cad>
          </ns3:TrackPointExtension>
        </extensions>
      </trkpt>
      <trkpt lat="45.26280141435563564300537109375" lon="-71.129444204270839691162109375">
        <ele>652.79998779296875</ele>
        <time>2026-08-22T01:49:53.000Z</time>
        <extensions>
          <ns3:TrackPointExtension>
            <ns3:hr>75</ns3:hr>
            <ns3:cad>0</ns3:cad>
          </ns3:TrackPointExtension>
        </extensions>
      </trkpt>
      <trkpt lat="45.26280141435563564300537109375" lon="-71.129444204270839691162109375">
        <ele>652.79998779296875</ele>
        <time>2026-08-22T01:49:54.000Z</time>
        <extensions>
          <ns3:TrackPointExtension>
            <ns3:hr>76</ns3:hr>
            <ns3:cad>0</ns3:cad>
          </ns3:TrackPointExtension>
        </extensions>
      </trkpt>
      <trkpt lat="45.26280141435563564300537109375" lon="-71.129444204270839691162109375">
        <ele>652.79998779296875</ele>
        <time>2026-08-22T01:49:55.000Z</time>
        <extensions>
          <ns3:TrackPointExtension>
            <ns3:hr>77</ns3:hr>
            <ns3:cad>0</ns3:cad>
          </ns3:TrackPointExtension>
        </extensions>
      </trkpt>
      <trkpt lat="45.26280141435563564300537109375" lon="-71.129444204270839691162109375">
        <ele>652.79998779296875</ele>
        <time>2026-08-22T01:49:56.000Z</time>
        <extensions>
          <ns3:TrackPointExtension>
            <ns3:hr>78</ns3:hr>
            <ns3:cad>0</ns3:cad>
          </ns3:TrackPointExtension>
        </extensions>
      </trkpt>
      <trkpt lat="45.26280141435563564300537109375" lon="-71.129444204270839691162109375">
        <ele>652.79998779296875</ele>
        <time>2026-08-22T01:49:57.000Z</time>
        <extensions>
          <ns3:TrackPointExtension>
            <ns3:hr>79</ns3:hr>
            <ns3:cad>0</ns3:cad>
          </ns3:TrackPointExtension>
        </extensions>
      </trkpt>
      <trkpt lat="45.26280141435563564300537109375" lon="-71.129444204270839691162109375">
        <ele>652.79998779296875</ele>
        <time>2026-08-22T01:49:58.000Z</time>
        <extensions>
          <ns3:TrackPointExtension>
            <ns3:hr>81</ns3:hr>
            <ns3:cad>0</ns3:cad>
          </ns3:TrackPointExtension>
        </extensions>
      </trkpt>
      <trkpt lat="45.26280141435563564300537109375" lon="-71.129444204270839691162109375">
        <ele>652.79998779296875</ele>
        <time>2026-08-22T01:49:59.000Z</time>
        <extensions>
          <ns3:TrackPointExtension>
            <ns3:hr>82</ns3:hr>
            <ns3:cad>0</ns3:cad>
          </ns3:TrackPointExtension>
        </extensions>
      </trkpt>
      <trkpt lat="45.26280141435563564300537109375" lon="-71.129444204270839691162109375">
        <ele>652.79998779296875</ele>
        <time>2026-08-22T01:50:00.000Z</time>
        <extensions>
          <ns3:TrackPointExtension>
            <ns3:hr>83</ns3:hr>
            <ns3:cad>0</ns3:cad>
          </ns3:TrackPointExtension>
        </extensions>
      </trkpt>
      <trkpt lat="45.26280141435563564300537109375" lon="-71.129444204270839691162109375">
        <ele>652.79998779296875</ele>
        <time>2026-08-22T01:50:01.000Z</time>
        <extensions>
          <ns3:TrackPointExtension>
            <ns3:hr>83</ns3:hr>
            <ns3:cad>0</ns3:cad>
          </ns3:TrackPointExtension>
        </extensions>
      </trkpt>
      <trkpt lat="45.262791104614734649658203125" lon="-71.129439175128936767578125">
        <ele>653</ele>
        <time>2026-08-22T01:50:02.000Z</time>
        <extensions>
          <ns3:TrackPointExtension>
            <ns3:hr>83</ns3:hr>
            <ns3:cad>0</ns3:cad>
          </ns3:TrackPointExtension>
        </extensions>
      </trkpt>
      <trkpt lat="45.26279051788151264190673828125" lon="-71.1294333077967166900634765625">
        <ele>653</ele>
        <time>2026-08-22T01:50:03.000Z</time>
        <extensions>
          <ns3:TrackPointExtension>
            <ns3:hr>84</ns3:hr>
            <ns3:cad>0</ns3:cad>
          </ns3:TrackPointExtension>
        </extensions>
      </trkpt>
      <trkpt lat="45.26278431527316570281982421875" lon="-71.1294369958341121673583984375">
        <ele>653.20001220703125</ele>
        <time>2026-08-22T01:50:04.000Z</time>
        <extensions>
          <ns3:TrackPointExtension>
            <ns3:hr>83</ns3:hr>
            <ns3:cad>0</ns3:cad>
          </ns3:TrackPointExtension>
        </extensions>
      </trkpt>
      <trkpt lat="45.26277844794094562530517578125" lon="-71.1294485628604888916015625">
        <ele>653.4000244140625</ele>
        <time>2026-08-22T01:50:05.000Z</time>
        <extensions>
          <ns3:TrackPointExtension>
            <ns3:hr>83</ns3:hr>
            <ns3:cad>0</ns3:cad>
          </ns3:TrackPointExtension>
        </extensions>
      </trkpt>
      <trkpt lat="45.26277760975062847137451171875" lon="-71.1294567771255970001220703125">
        <ele>653.5999755859375</ele>
        <time>2026-08-22T01:50:06.000Z</time>
        <extensions>
          <ns3:TrackPointExtension>
            <ns3:hr>83</ns3:hr>
            <ns3:cad>0</ns3:cad>
          </ns3:TrackPointExtension>
        </extensions>
      </trkpt>
      <trkpt lat="45.26277325116097927093505859375" lon="-71.12946021370589733123779296875">
        <ele>653.5999755859375</ele>
        <time>2026-08-22T01:50:07.000Z</time>
        <extensions>
          <ns3:TrackPointExtension>
            <ns3:hr>83</ns3:hr>
            <ns3:cad>0</ns3:cad>
          </ns3:TrackPointExtension>
        </extensions>
      </trkpt>
      <trkpt lat="45.26277107186615467071533203125" lon="-71.1294500716030597686767578125">
        <ele>653.5999755859375</ele>
        <time>2026-08-22T01:50:08.000Z</time>
        <extensions>
          <ns3:TrackPointExtension>
            <ns3:hr>83</ns3:hr>
            <ns3:cad>0</ns3:cad>
          </ns3:TrackPointExtension>
        </extensions>
      </trkpt>
      <trkpt lat="45.262767635285854339599609375" lon="-71.12945619039237499237060546875">
        <ele>653.5999755859375</ele>
        <time>2026-08-22T01:50:09.000Z</time>
        <extensions>
          <ns3:TrackPointExtension>
            <ns3:hr>83</ns3:hr>
            <ns3:cad>0</ns3:cad>
          </ns3:TrackPointExtension>
        </extensions>
      </trkpt>
      <trkpt lat="45.26276528835296630859375" lon="-71.129460968077182769775390625">
        <ele>653.79998779296875</ele>
        <time>2026-08-22T01:50:10.000Z</time>
        <extensions>
          <ns3:TrackPointExtension>
            <ns3:hr>83</ns3:hr>
            <ns3:cad>0</ns3:cad>
          </ns3:TrackPointExtension>
        </extensions>
      </trkpt>
      <trkpt lat="45.26276604272425174713134765625" lon="-71.12946541048586368560791015625">
        <ele>653.79998779296875</ele>
        <time>2026-08-22T01:50:11.000Z</time>
        <extensions>
          <ns3:TrackPointExtension>
            <ns3:hr>84</ns3:hr>
            <ns3:cad>0</ns3:cad>
          </ns3:TrackPointExtension>
        </extensions>
      </trkpt>
      <trkpt lat="45.262766964733600616455078125" lon="-71.1294681765139102935791015625">
        <ele>654</ele>
        <time>2026-08-22T01:50:12.000Z</time>
        <extensions>
          <ns3:TrackPointExtension>
            <ns3:hr>84</ns3:hr>
            <ns3:cad>0</ns3:cad>
          </ns3:TrackPointExtension>
        </extensions>
      </trkpt>
      <trkpt lat="45.26276738382875919342041015625" lon="-71.1294698528945446014404296875">
        <ele>654</ele>
        <time>2026-08-22T01:50:13.000Z</time>
        <extensions>
          <ns3:TrackPointExtension>
            <ns3:hr>84</ns3:hr>
            <ns3:cad>0</ns3:cad>
          </ns3:TrackPointExtension>
        </extensions>
      </trkpt>
      <trkpt lat="45.26276738382875919342041015625" lon="-71.1294698528945446014404296875">
        <ele>654</ele>
        <time>2026-08-22T01:50:14.000Z</time>
        <extensions>
          <ns3:TrackPointExtension>
            <ns3:hr>84</ns3:hr>
            <ns3:cad>0</ns3:cad>
          </ns3:TrackPointExtension>
        </extensions>
      </trkpt>
      <trkpt lat="45.26276738382875919342041015625" lon="-71.1294698528945446014404296875">
        <ele>653.79998779296875</ele>
        <time>2026-08-22T01:50:15.000Z</time>
        <extensions>
          <ns3:TrackPointExtension>
            <ns3:hr>84</ns3:hr>
            <ns3:cad>0</ns3:cad>
          </ns3:TrackPointExtension>
        </extensions>
      </trkpt>
      <trkpt lat="45.26276738382875919342041015625" lon="-71.1294698528945446014404296875">
        <ele>653.79998779296875</ele>
        <time>2026-08-22T01:50:16.000Z</time>
        <extensions>
          <ns3:TrackPointExtension>
            <ns3:hr>84</ns3:hr>
            <ns3:cad>0</ns3:cad>
          </ns3:TrackPointExtension>
        </extensions>
      </trkpt>
      <trkpt lat="45.26276738382875919342041015625" lon="-71.1294698528945446014404296875">
        <ele>653.79998779296875</ele>
        <time>2026-08-22T01:50:17.000Z</time>
        <extensions>
          <ns3:TrackPointExtension>
            <ns3:hr>85</ns3:hr>
            <ns3:cad>0</ns3:cad>
          </ns3:TrackPointExtension>
        </extensions>
      </trkpt>
      <trkpt lat="45.26276738382875919342041015625" lon="-71.1294698528945446014404296875">
        <ele>653.79998779296875</ele>
        <time>2026-08-22T01:50:18.000Z</time>
        <extensions>
          <ns3:TrackPointExtension>
            <ns3:hr>85</ns3:hr>
            <ns3:cad>0</ns3:cad>
          </ns3:TrackPointExtension>
        </extensions>
      </trkpt>
      <trkpt lat="45.26276738382875919342041015625" lon="-71.1294698528945446014404296875">
        <ele>653.79998779296875</ele>
        <time>2026-08-22T01:50:19.000Z</time>
        <extensions>
          <ns3:TrackPointExtension>
            <ns3:hr>85</ns3:hr>
            <ns3:cad>0</ns3:cad>
          </ns3:TrackPointExtension>
        </extensions>
      </trkpt>
      <trkpt lat="45.26276738382875919342041015625" lon="-71.1294698528945446014404296875">
        <ele>653.79998779296875</ele>
        <time>2026-08-22T01:50:20.000Z</time>
        <extensions>
          <ns3:TrackPointExtension>
            <ns3:hr>85</ns3:hr>
            <ns3:cad>0</ns3:cad>
          </ns3:TrackPointExtension>
        </extensions>
      </trkpt>
      <trkpt lat="45.26276738382875919342041015625" lon="-71.1294698528945446014404296875">
        <ele>654</ele>
        <time>2026-08-22T01:50:21.000Z</time>
        <extensions>
          <ns3:TrackPointExtension>
            <ns3:hr>85</ns3:hr>
            <ns3:cad>0</ns3:cad>
          </ns3:TrackPointExtension>
        </extensions>
      </trkpt>
      <trkpt lat="45.26276738382875919342041015625" lon="-71.1294698528945446014404296875">
        <ele>654</ele>
        <time>2026-08-22T01:50:22.000Z</time>
        <extensions>
          <ns3:TrackPointExtension>
            <ns3:hr>84</ns3:hr>
            <ns3:cad>0</ns3:cad>
          </ns3:TrackPointExtension>
        </extensions>
      </trkpt>
      <trkpt lat="45.26276738382875919342041015625" lon="-71.1294698528945446014404296875">
        <ele>654</ele>
        <time>2026-08-22T01:50:23.000Z</time>
        <extensions>
          <ns3:TrackPointExtension>
            <ns3:hr>85</ns3:hr>
            <ns3:cad>0</ns3:cad>
          </ns3:TrackPointExtension>
        </extensions>
      </trkpt>
      <trkpt lat="45.26276738382875919342041015625" lon="-71.1294698528945446014404296875">
        <ele>654</ele>
        <time>2026-08-22T01:50:24.000Z</time>
        <extensions>
          <ns3:TrackPointExtension>
            <ns3:hr>85</ns3:hr>
            <ns3:cad>0</ns3:cad>
          </ns3:TrackPointExtension>
        </extensions>
      </trkpt>
      <trkpt lat="45.26276738382875919342041015625" lon="-71.1294698528945446014404296875">
        <ele>654</ele>
        <time>2026-08-22T01:50:25.000Z</time>
        <extensions>
          <ns3:TrackPointExtension>
            <ns3:hr>85</ns3:hr>
            <ns3:cad>0</ns3:cad>
          </ns3:TrackPointExtension>
        </extensions>
      </trkpt>
      <trkpt lat="45.26276738382875919342041015625" lon="-71.1294698528945446014404296875">
        <ele>654</ele>
        <time>2026-08-22T01:50:26.000Z</time>
        <extensions>
          <ns3:TrackPointExtension>
            <ns3:hr>85</ns3:hr>
            <ns3:cad>0</ns3:cad>
          </ns3:TrackPointExtension>
        </extensions>
      </trkpt>
      <trkpt lat="45.26276738382875919342041015625" lon="-71.1294698528945446014404296875">
        <ele>654</ele>
        <time>2026-08-22T01:50:27.000Z</time>
        <extensions>
          <ns3:TrackPointExtension>
            <ns3:hr>85</ns3:hr>
            <ns3:cad>0</ns3:cad>
          </ns3:TrackPointExtension>
        </extensions>
      </trkpt>
      <trkpt lat="45.26276738382875919342041015625" lon="-71.1294698528945446014404296875">
        <ele>653.79998779296875</ele>
        <time>2026-08-22T01:50:28.000Z</time>
        <extensions>
          <ns3:TrackPointExtension>
            <ns3:hr>88</ns3:hr>
            <ns3:cad>0</ns3:cad>
          </ns3:TrackPointExtension>
        </extensions>
      </trkpt>
      <trkpt lat="45.26276738382875919342041015625" lon="-71.1294698528945446014404296875">
        <ele>654</ele>
        <time>2026-08-22T01:50:29.000Z</time>
        <extensions>
          <ns3:TrackPointExtension>
            <ns3:hr>95</ns3:hr>
            <ns3:cad>0</ns3:cad>
          </ns3:TrackPointExtension>
        </extensions>
      </trkpt>
      <trkpt lat="45.26276738382875919342041015625" lon="-71.1294698528945446014404296875">
        <ele>653.79998779296875</ele>
        <time>2026-08-22T01:50:30.000Z</time>
        <extensions>
          <ns3:TrackPointExtension>
            <ns3:hr>102</ns3:hr>
            <ns3:cad>0</ns3:cad>
          </ns3:TrackPointExtension>
        </extensions>
      </trkpt>
      <trkpt lat="45.26276738382875919342041015625" lon="-71.1294698528945446014404296875">
        <ele>653.79998779296875</ele>
        <time>2026-08-22T01:50:31.000Z</time>
        <extensions>
          <ns3:TrackPointExtension>
            <ns3:hr>106</ns3:hr>
            <ns3:cad>0</ns3:cad>
          </ns3:TrackPointExtension>
        </extensions>
      </trkpt>
      <trkpt lat="45.26276738382875919342041015625" lon="-71.1294698528945446014404296875">
        <ele>653.79998779296875</ele>
        <time>2026-08-22T01:50:32.000Z</time>
        <extensions>
          <ns3:TrackPointExtension>
            <ns3:hr>107</ns3:hr>
            <ns3:cad>0</ns3:cad>
          </ns3:TrackPointExtension>
        </extensions>
      </trkpt>
      <trkpt lat="45.26276738382875919342041015625" lon="-71.1294698528945446014404296875">
        <ele>654</ele>
        <time>2026-08-22T01:50:33.000Z</time>
        <extensions>
          <ns3:TrackPointExtension>
            <ns3:hr>109</ns3:hr>
            <ns3:cad>0</ns3:cad>
          </ns3:TrackPointExtension>
        </extensions>
      </trkpt>
      <trkpt lat="45.26276738382875919342041015625" lon="-71.1294698528945446014404296875">
        <ele>654</ele>
        <time>2026-08-22T01:50:34.000Z</time>
        <extensions>
          <ns3:TrackPointExtension>
            <ns3:hr>111</ns3:hr>
            <ns3:cad>0</ns3:cad>
          </ns3:TrackPointExtension>
        </extensions>
      </trkpt>
      <trkpt lat="45.26276738382875919342041015625" lon="-71.1294698528945446014404296875">
        <ele>654</ele>
        <time>2026-08-22T01:50:35.000Z</time>
        <extensions>
          <ns3:TrackPointExtension>
            <ns3:hr>112</ns3:hr>
            <ns3:cad>0</ns3:cad>
          </ns3:TrackPointExtension>
        </extensions>
      </trkpt>
      <trkpt lat="45.26276738382875919342041015625" lon="-71.1294698528945446014404296875">
        <ele>654</ele>
        <time>2026-08-22T01:50:36.000Z</time>
        <extensions>
          <ns3:TrackPointExtension>
            <ns3:hr>114</ns3:hr>
            <ns3:cad>0</ns3:cad>
          </ns3:TrackPointExtension>
        </extensions>
      </trkpt>
      <trkpt lat="45.26276738382875919342041015625" lon="-71.1294698528945446014404296875">
        <ele>654</ele>
        <time>2026-08-22T01:50:37.000Z</time>
        <extensions>
          <ns3:TrackPointExtension>
            <ns3:hr>115</ns3:hr>
            <ns3:cad>0</ns3:cad>
          </ns3:TrackPointExtension>
        </extensions>
      </trkpt>
      <trkpt lat="45.26276738382875919342041015625" lon="-71.1294698528945446014404296875">
        <ele>654</ele>
        <time>2026-08-22T01:50:38.000Z</time>
        <extensions>
          <ns3:TrackPointExtension>
            <ns3:hr>115</ns3:hr>
            <ns3:cad>0</ns3:cad>
          </ns3:TrackPointExtension>
        </extensions>
      </trkpt>
      <trkpt lat="45.262770317494869232177734375" lon="-71.1294698528945446014404296875">
        <ele>654</ele>
        <time>2026-08-22T01:50:39.000Z</time>
        <extensions>
          <ns3:TrackPointExtension>
            <ns3:hr>116</ns3:hr>
            <ns3:cad>0</ns3:cad>
          </ns3:TrackPointExtension>
        </extensions>
      </trkpt>
      <trkpt lat="45.26276738382875919342041015625" lon="-71.1294698528945446014404296875">
        <ele>654</ele>
        <time>2026-08-22T01:50:40.000Z</time>
        <extensions>
          <ns3:TrackPointExtension>
            <ns3:hr>116</ns3:hr>
            <ns3:cad>0</ns3:cad>
          </ns3:TrackPointExtension>
        </extensions>
      </trkpt>
      <trkpt lat="45.26276738382875919342041015625" lon="-71.1294698528945446014404296875">
        <ele>654</ele>
        <time>2026-08-22T01:50:41.000Z</time>
        <extensions>
          <ns3:TrackPointExtension>
            <ns3:hr>116</ns3:hr>
            <ns3:cad>0</ns3:cad>
          </ns3:TrackPointExtension>
        </extensions>
      </trkpt>
      <trkpt lat="45.2627731673419475555419921875" lon="-71.1294708587229251861572265625">
        <ele>653.79998779296875</ele>
        <time>2026-08-22T01:50:42.000Z</time>
        <extensions>
          <ns3:TrackPointExtension>
            <ns3:hr>116</ns3:hr>
            <ns3:cad>0</ns3:cad>
          </ns3:TrackPointExtension>
        </extensions>
      </trkpt>
      <trkpt lat="45.2627755142748355865478515625" lon="-71.1294765584170818328857421875">
        <ele>653.79998779296875</ele>
        <time>2026-08-22T01:50:43.000Z</time>
        <extensions>
          <ns3:TrackPointExtension>
            <ns3:hr>116</ns3:hr>
            <ns3:cad>0</ns3:cad>
          </ns3:TrackPointExtension>
        </extensions>
      </trkpt>
      <trkpt lat="45.2627765201032161712646484375" lon="-71.12947748042643070220947265625">
        <ele>653.79998779296875</ele>
        <time>2026-08-22T01:50:44.000Z</time>
        <extensions>
          <ns3:TrackPointExtension>
            <ns3:hr>116</ns3:hr>
            <ns3:cad>0</ns3:cad>
          </ns3:TrackPointExtension>
        </extensions>
      </trkpt>
      <trkpt lat="45.26277911849319934844970703125" lon="-71.12947228364646434783935546875">
        <ele>653.79998779296875</ele>
        <time>2026-08-22T01:50:45.000Z</time>
        <extensions>
          <ns3:TrackPointExtension>
            <ns3:hr>116</ns3:hr>
            <ns3:cad>0</ns3:cad>
          </ns3:TrackPointExtension>
        </extensions>
      </trkpt>
      <trkpt lat="45.262779034674167633056640625" lon="-71.12947697751224040985107421875">
        <ele>653.79998779296875</ele>
        <time>2026-08-22T01:50:46.000Z</time>
        <extensions>
          <ns3:TrackPointExtension>
            <ns3:hr>117</ns3:hr>
            <ns3:cad>0</ns3:cad>
          </ns3:TrackPointExtension>
        </extensions>
      </trkpt>
      <trkpt lat="45.2627785317599773406982421875" lon="-71.12947479821741580963134765625">
        <ele>653.79998779296875</ele>
        <time>2026-08-22T01:50:47.000Z</time>
        <extensions>
          <ns3:TrackPointExtension>
            <ns3:hr>117</ns3:hr>
            <ns3:cad>0</ns3:cad>
          </ns3:TrackPointExtension>
        </extensions>
      </trkpt>
      <trkpt lat="45.26277157478034496307373046875" lon="-71.1294856108725070953369140625">
        <ele>654</ele>
        <time>2026-08-22T01:50:48.000Z</time>
        <extensions>
          <ns3:TrackPointExtension>
            <ns3:hr>117</ns3:hr>
            <ns3:cad>0</ns3:cad>
          </ns3:TrackPointExtension>
        </extensions>
      </trkpt>
      <trkpt lat="45.262772999703884124755859375" lon="-71.12948938272893428802490234375">
        <ele>654</ele>
        <time>2026-08-22T01:50:49.000Z</time>
        <extensions>
          <ns3:TrackPointExtension>
            <ns3:hr>117</ns3:hr>
            <ns3:cad>0</ns3:cad>
          </ns3:TrackPointExtension>
        </extensions>
      </trkpt>
      <trkpt lat="45.26278381235897541046142578125" lon="-71.12949122674763202667236328125">
        <ele>654.20001220703125</ele>
        <time>2026-08-22T01:50:50.000Z</time>
        <extensions>
          <ns3:TrackPointExtension>
            <ns3:hr>117</ns3:hr>
            <ns3:cad>0</ns3:cad>
          </ns3:TrackPointExtension>
        </extensions>
      </trkpt>
      <trkpt lat="45.26278230361640453338623046875" lon="-71.129491813480854034423828125">
        <ele>654.20001220703125</ele>
        <time>2026-08-22T01:50:51.000Z</time>
        <extensions>
          <ns3:TrackPointExtension>
            <ns3:hr>117</ns3:hr>
            <ns3:cad>0</ns3:cad>
          </ns3:TrackPointExtension>
        </extensions>
      </trkpt>
      <trkpt lat="45.26278465054929256439208984375" lon="-71.12948737107217311859130859375">
        <ele>654.20001220703125</ele>
        <time>2026-08-22T01:50:52.000Z</time>
        <extensions>
          <ns3:TrackPointExtension>
            <ns3:hr>116</ns3:hr>
            <ns3:cad>0</ns3:cad>
          </ns3:TrackPointExtension>
        </extensions>
      </trkpt>
      <trkpt lat="45.26279009878635406494140625" lon="-71.1294859461486339569091796875">
        <ele>654.20001220703125</ele>
        <time>2026-08-22T01:50:53.000Z</time>
        <extensions>
          <ns3:TrackPointExtension>
            <ns3:hr>117</ns3:hr>
            <ns3:cad>0</ns3:cad>
          </ns3:TrackPointExtension>
        </extensions>
      </trkpt>
      <trkpt lat="45.26279403828084468841552734375" lon="-71.129490472376346588134765625">
        <ele>654.20001220703125</ele>
        <time>2026-08-22T01:50:54.000Z</time>
        <extensions>
          <ns3:TrackPointExtension>
            <ns3:hr>117</ns3:hr>
            <ns3:cad>0</ns3:cad>
          </ns3:TrackPointExtension>
        </extensions>
      </trkpt>
      <trkpt lat="45.26279873214662075042724609375" lon="-71.1294968426227569580078125">
        <ele>654.20001220703125</ele>
        <time>2026-08-22T01:50:55.000Z</time>
        <extensions>
          <ns3:TrackPointExtension>
            <ns3:hr>116</ns3:hr>
            <ns3:cad>0</ns3:cad>
          </ns3:TrackPointExtension>
        </extensions>
      </trkpt>
      <trkpt lat="45.2628009952604770660400390625" lon="-71.12950128503143787384033203125">
        <ele>654.20001220703125</ele>
        <time>2026-08-22T01:50:56.000Z</time>
        <extensions>
          <ns3:TrackPointExtension>
            <ns3:hr>116</ns3:hr>
            <ns3:cad>0</ns3:cad>
          </ns3:TrackPointExtension>
        </extensions>
      </trkpt>
      <trkpt lat="45.262799821794033050537109375" lon="-71.129499860107898712158203125">
        <ele>654.20001220703125</ele>
        <time>2026-08-22T01:50:57.000Z</time>
        <extensions>
          <ns3:TrackPointExtension>
            <ns3:hr>116</ns3:hr>
            <ns3:cad>0</ns3:cad>
          </ns3:TrackPointExtension>
        </extensions>
      </trkpt>
      <trkpt lat="45.2627963013947010040283203125" lon="-71.12949885427951812744140625">
        <ele>654.20001220703125</ele>
        <time>2026-08-22T01:50:58.000Z</time>
        <extensions>
          <ns3:TrackPointExtension>
            <ns3:hr>116</ns3:hr>
            <ns3:cad>0</ns3:cad>
          </ns3:TrackPointExtension>
        </extensions>
      </trkpt>
      <trkpt lat="45.262795798480510711669921875" lon="-71.1294993571937084197998046875">
        <ele>654.20001220703125</ele>
        <time>2026-08-22T01:50:59.000Z</time>
        <extensions>
          <ns3:TrackPointExtension>
            <ns3:hr>115</ns3:hr>
            <ns3:cad>0</ns3:cad>
          </ns3:TrackPointExtension>
        </extensions>
      </trkpt>
      <trkpt lat="45.262795798480510711669921875" lon="-71.12949893809854984283447265625">
        <ele>654.20001220703125</ele>
        <time>2026-08-22T01:51:00.000Z</time>
        <extensions>
          <ns3:TrackPointExtension>
            <ns3:hr>115</ns3:hr>
            <ns3:cad>62</ns3:cad>
          </ns3:TrackPointExtension>
        </extensions>
      </trkpt>
      <trkpt lat="45.2627929486334323883056640625" lon="-71.12949877046048641204833984375">
        <ele>654</ele>
        <time>2026-08-22T01:51:01.000Z</time>
        <extensions>
          <ns3:TrackPointExtension>
            <ns3:hr>116</ns3:hr>
            <ns3:cad>62</ns3:cad>
          </ns3:TrackPointExtension>
        </extensions>
      </trkpt>
      <trkpt lat="45.262795798480510711669921875" lon="-71.1294993571937084197998046875">
        <ele>654</ele>
        <time>2026-08-22T01:51:02.000Z</time>
        <extensions>
          <ns3:TrackPointExtension>
            <ns3:hr>116</ns3:hr>
            <ns3:cad>0</ns3:cad>
          </ns3:TrackPointExtension>
        </extensions>
      </trkpt>
      <trkpt lat="45.262795798480510711669921875" lon="-71.1294993571937084197998046875">
        <ele>654</ele>
        <time>2026-08-22T01:51:03.000Z</time>
        <extensions>
          <ns3:TrackPointExtension>
            <ns3:hr>115</ns3:hr>
            <ns3:cad>0</ns3:cad>
          </ns3:TrackPointExtension>
        </extensions>
      </trkpt>
      <trkpt lat="45.262795798480510711669921875" lon="-71.1294993571937084197998046875">
        <ele>654</ele>
        <time>2026-08-22T01:51:04.000Z</time>
        <extensions>
          <ns3:TrackPointExtension>
            <ns3:hr>115</ns3:hr>
            <ns3:cad>0</ns3:cad>
          </ns3:TrackPointExtension>
        </extensions>
      </trkpt>
      <trkpt lat="45.262795798480510711669921875" lon="-71.1294993571937084197998046875">
        <ele>654</ele>
        <time>2026-08-22T01:51:05.000Z</time>
        <extensions>
          <ns3:TrackPointExtension>
            <ns3:hr>115</ns3:hr>
            <ns3:cad>0</ns3:cad>
          </ns3:TrackPointExtension>
        </extensions>
      </trkpt>
      <trkpt lat="45.262795798480510711669921875" lon="-71.1294993571937084197998046875">
        <ele>653.79998779296875</ele>
        <time>2026-08-22T01:51:06.000Z</time>
        <extensions>
          <ns3:TrackPointExtension>
            <ns3:hr>115</ns3:hr>
            <ns3:cad>0</ns3:cad>
          </ns3:TrackPointExtension>
        </extensions>
      </trkpt>
      <trkpt lat="45.262795798480510711669921875" lon="-71.1294993571937084197998046875">
        <ele>653.79998779296875</ele>
        <time>2026-08-22T01:51:07.000Z</time>
        <extensions>
          <ns3:TrackPointExtension>
            <ns3:hr>115</ns3:hr>
            <ns3:cad>0</ns3:cad>
          </ns3:TrackPointExtension>
        </extensions>
      </trkpt>
      <trkpt lat="45.2627889253199100494384765625" lon="-71.12949860282242298126220703125">
        <ele>653.5999755859375</ele>
        <time>2026-08-22T01:51:08.000Z</time>
        <extensions>
          <ns3:TrackPointExtension>
            <ns3:hr>114</ns3:hr>
            <ns3:cad>0</ns3:cad>
          </ns3:TrackPointExtension>
        </extensions>
      </trkpt>
      <trkpt lat="45.26278096251189708709716796875" lon="-71.12949340604245662689208984375">
        <ele>653.79998779296875</ele>
        <time>2026-08-22T01:51:09.000Z</time>
        <extensions>
          <ns3:TrackPointExtension>
            <ns3:hr>115</ns3:hr>
            <ns3:cad>0</ns3:cad>
          </ns3:TrackPointExtension>
        </extensions>
      </trkpt>
      <trkpt lat="45.2627741731703281402587890625" lon="-71.12948971800506114959716796875">
        <ele>653.79998779296875</ele>
        <time>2026-08-22T01:51:10.000Z</time>
        <extensions>
          <ns3:TrackPointExtension>
            <ns3:hr>115</ns3:hr>
            <ns3:cad>0</ns3:cad>
          </ns3:TrackPointExtension>
        </extensions>
      </trkpt>
      <trkpt lat="45.26276520453393459320068359375" lon="-71.129496507346630096435546875">
        <ele>653.79998779296875</ele>
        <time>2026-08-22T01:51:11.000Z</time>
        <extensions>
          <ns3:TrackPointExtension>
            <ns3:hr>114</ns3:hr>
            <ns3:cad>0</ns3:cad>
          </ns3:TrackPointExtension>
        </extensions>
      </trkpt>
      <trkpt lat="45.26275631971657276153564453125" lon="-71.12950019538402557373046875">
        <ele>654</ele>
        <time>2026-08-22T01:51:12.000Z</time>
        <extensions>
          <ns3:TrackPointExtension>
            <ns3:hr>114</ns3:hr>
            <ns3:cad>0</ns3:cad>
          </ns3:TrackPointExtension>
        </extensions>
      </trkpt>
      <trkpt lat="45.26275179348886013031005859375" lon="-71.12949885427951812744140625">
        <ele>654.20001220703125</ele>
        <time>2026-08-22T01:51:13.000Z</time>
        <extensions>
          <ns3:TrackPointExtension>
            <ns3:hr>115</ns3:hr>
            <ns3:cad>0</ns3:cad>
          </ns3:TrackPointExtension>
        </extensions>
      </trkpt>
      <trkpt lat="45.2627446688711643218994140625" lon="-71.12950011156499385833740234375">
        <ele>654.4000244140625</ele>
        <time>2026-08-22T01:51:14.000Z</time>
        <extensions>
          <ns3:TrackPointExtension>
            <ns3:hr>115</ns3:hr>
            <ns3:cad>0</ns3:cad>
          </ns3:TrackPointExtension>
        </extensions>
      </trkpt>
      <trkpt lat="45.2627382986247539520263671875" lon="-71.12950329668819904327392578125">
        <ele>654.5999755859375</ele>
        <time>2026-08-22T01:51:15.000Z</time>
        <extensions>
          <ns3:TrackPointExtension>
            <ns3:hr>116</ns3:hr>
            <ns3:cad>0</ns3:cad>
          </ns3:TrackPointExtension>
        </extensions>
      </trkpt>
      <trkpt lat="45.26273217983543872833251953125" lon="-71.12951084040105342864990234375">
        <ele>654.5999755859375</ele>
        <time>2026-08-22T01:51:16.000Z</time>
        <extensions>
          <ns3:TrackPointExtension>
            <ns3:hr>116</ns3:hr>
            <ns3:cad>0</ns3:cad>
          </ns3:TrackPointExtension>
        </extensions>
      </trkpt>
      <trkpt lat="45.26272765360772609710693359375" lon="-71.129509247839450836181640625">
        <ele>654.79998779296875</ele>
        <time>2026-08-22T01:51:17.000Z</time>
        <extensions>
          <ns3:TrackPointExtension>
            <ns3:hr>115</ns3:hr>
            <ns3:cad>0</ns3:cad>
          </ns3:TrackPointExtension>
        </extensions>
      </trkpt>
      <trkpt lat="45.26272430084645748138427734375" lon="-71.1295104213058948516845703125">
        <ele>654.79998779296875</ele>
        <time>2026-08-22T01:51:18.000Z</time>
        <extensions>
          <ns3:TrackPointExtension>
            <ns3:hr>114</ns3:hr>
            <ns3:cad>0</ns3:cad>
          </ns3:TrackPointExtension>
        </extensions>
      </trkpt>
      <trkpt lat="45.26271902024745941162109375" lon="-71.129517294466495513916015625">
        <ele>655</ele>
        <time>2026-08-22T01:51:19.000Z</time>
        <extensions>
          <ns3:TrackPointExtension>
            <ns3:hr>111</ns3:hr>
            <ns3:cad>0</ns3:cad>
          </ns3:TrackPointExtension>
        </extensions>
      </trkpt>
      <trkpt lat="45.2627111412584781646728515625" lon="-71.12952257506549358367919921875">
        <ele>654.79998779296875</ele>
        <time>2026-08-22T01:51:20.000Z</time>
        <extensions>
          <ns3:TrackPointExtension>
            <ns3:hr>109</ns3:hr>
            <ns3:cad>0</ns3:cad>
          </ns3:TrackPointExtension>
        </extensions>
      </trkpt>
      <trkpt lat="45.2626997418701648712158203125" lon="-71.12952567636966705322265625">
        <ele>654.79998779296875</ele>
        <time>2026-08-22T01:51:21.000Z</time>
        <extensions>
          <ns3:TrackPointExtension>
            <ns3:hr>106</ns3:hr>
            <ns3:cad>0</ns3:cad>
          </ns3:TrackPointExtension>
        </extensions>
      </trkpt>
      <trkpt lat="45.2626876719295978546142578125" lon="-71.1295305378735065460205078125">
        <ele>654.79998779296875</ele>
        <time>2026-08-22T01:51:22.000Z</time>
        <extensions>
          <ns3:TrackPointExtension>
            <ns3:hr>105</ns3:hr>
            <ns3:cad>0</ns3:cad>
          </ns3:TrackPointExtension>
        </extensions>
      </trkpt>
      <trkpt lat="45.26268121786415576934814453125" lon="-71.129530370235443115234375">
        <ele>655</ele>
        <time>2026-08-22T01:51:23.000Z</time>
        <extensions>
          <ns3:TrackPointExtension>
            <ns3:hr>105</ns3:hr>
            <ns3:cad>0</ns3:cad>
          </ns3:TrackPointExtension>
        </extensions>
      </trkpt>
      <trkpt lat="45.26267208158969879150390625" lon="-71.1295281909406185150146484375">
        <ele>655</ele>
        <time>2026-08-22T01:51:24.000Z</time>
        <extensions>
          <ns3:TrackPointExtension>
            <ns3:hr>105</ns3:hr>
            <ns3:cad>0</ns3:cad>
          </ns3:TrackPointExtension>
        </extensions>
      </trkpt>
      <trkpt lat="45.26266663335263729095458984375" lon="-71.12951871939003467559814453125">
        <ele>655.20001220703125</ele>
        <time>2026-08-22T01:51:25.000Z</time>
        <extensions>
          <ns3:TrackPointExtension>
            <ns3:hr>106</ns3:hr>
            <ns3:cad>0</ns3:cad>
          </ns3:TrackPointExtension>
        </extensions>
      </trkpt>
      <trkpt lat="45.2626574970781803131103515625" lon="-71.1295171268284320831298828125">
        <ele>655.4000244140625</ele>
        <time>2026-08-22T01:51:26.000Z</time>
        <extensions>
          <ns3:TrackPointExtension>
            <ns3:hr>106</ns3:hr>
            <ns3:cad>49</ns3:cad>
          </ns3:TrackPointExtension>
        </extensions>
      </trkpt>
      <trkpt lat="45.262644253671169281005859375" lon="-71.12951628863811492919921875">
        <ele>655.5999755859375</ele>
        <time>2026-08-22T01:51:27.000Z</time>
        <extensions>
          <ns3:TrackPointExtension>
            <ns3:hr>107</ns3:hr>
            <ns3:cad>49</ns3:cad>
          </ns3:TrackPointExtension>
        </extensions>
      </trkpt>
      <trkpt lat="45.262632854282855987548828125" lon="-71.129515282809734344482421875">
        <ele>655.79998779296875</ele>
        <time>2026-08-22T01:51:28.000Z</time>
        <extensions>
          <ns3:TrackPointExtension>
            <ns3:hr>108</ns3:hr>
            <ns3:cad>49</ns3:cad>
          </ns3:TrackPointExtension>
        </extensions>
      </trkpt>
      <trkpt lat="45.262618772685527801513671875" lon="-71.12951234914362430572509765625">
        <ele>656</ele>
        <time>2026-08-22T01:51:29.000Z</time>
        <extensions>
          <ns3:TrackPointExtension>
            <ns3:hr>108</ns3:hr>
            <ns3:cad>52</ns3:cad>
          </ns3:TrackPointExtension>
        </extensions>
      </trkpt>
      <trkpt lat="45.26260091923177242279052734375" lon="-71.12951251678168773651123046875">
        <ele>656</ele>
        <time>2026-08-22T01:51:30.000Z</time>
        <extensions>
          <ns3:TrackPointExtension>
            <ns3:hr>108</ns3:hr>
            <ns3:cad>52</ns3:cad>
          </ns3:TrackPointExtension>
        </extensions>
      </trkpt>
      <trkpt lat="45.26258868165314197540283203125" lon="-71.12952299416065216064453125">
        <ele>656.20001220703125</ele>
        <time>2026-08-22T01:51:31.000Z</time>
        <extensions>
          <ns3:TrackPointExtension>
            <ns3:hr>109</ns3:hr>
            <ns3:cad>53</ns3:cad>
          </ns3:TrackPointExtension>
        </extensions>
      </trkpt>
      <trkpt lat="45.26258180849254131317138671875" lon="-71.1295459605753421783447265625">
        <ele>656.20001220703125</ele>
        <time>2026-08-22T01:51:32.000Z</time>
        <extensions>
          <ns3:TrackPointExtension>
            <ns3:hr>109</ns3:hr>
            <ns3:cad>53</ns3:cad>
          </ns3:TrackPointExtension>
        </extensions>
      </trkpt>
      <trkpt lat="45.26257895864546298980712890625" lon="-71.1295692622661590576171875">
        <ele>656.20001220703125</ele>
        <time>2026-08-22T01:51:33.000Z</time>
        <extensions>
          <ns3:TrackPointExtension>
            <ns3:hr>110</ns3:hr>
            <ns3:cad>51</ns3:cad>
          </ns3:TrackPointExtension>
        </extensions>
      </trkpt>
      <trkpt lat="45.26257510297000408172607421875" lon="-71.12959315069019794464111328125">
        <ele>656.20001220703125</ele>
        <time>2026-08-22T01:51:34.000Z</time>
        <extensions>
          <ns3:TrackPointExtension>
            <ns3:hr>111</ns3:hr>
            <ns3:cad>51</ns3:cad>
          </ns3:TrackPointExtension>
        </extensions>
      </trkpt>
      <trkpt lat="45.26257007382810115814208984375" lon="-71.12961108796298503875732421875">
        <ele>656.20001220703125</ele>
        <time>2026-08-22T01:51:35.000Z</time>
        <extensions>
          <ns3:TrackPointExtension>
            <ns3:hr>112</ns3:hr>
            <ns3:cad>51</ns3:cad>
          </ns3:TrackPointExtension>
        </extensions>
      </trkpt>
      <trkpt lat="45.2625639550387859344482421875" lon="-71.12963120453059673309326171875">
        <ele>656</ele>
        <time>2026-08-22T01:51:36.000Z</time>
        <extensions>
          <ns3:TrackPointExtension>
            <ns3:hr>113</ns3:hr>
            <ns3:cad>57</ns3:cad>
          </ns3:TrackPointExtension>
        </extensions>
      </trkpt>
      <trkpt lat="45.26256185956299304962158203125" lon="-71.1296505667269229888916015625">
        <ele>656</ele>
        <time>2026-08-22T01:51:37.000Z</time>
        <extensions>
          <ns3:TrackPointExtension>
            <ns3:hr>114</ns3:hr>
            <ns3:cad>57</ns3:cad>
          </ns3:TrackPointExtension>
        </extensions>
      </trkpt>
      <trkpt lat="45.2625636197626590728759765625" lon="-71.1296773888170719146728515625">
        <ele>655.79998779296875</ele>
        <time>2026-08-22T01:51:38.000Z</time>
        <extensions>
          <ns3:TrackPointExtension>
            <ns3:hr>115</ns3:hr>
            <ns3:cad>57</ns3:cad>
          </ns3:TrackPointExtension>
        </extensions>
      </trkpt>
      <trkpt lat="45.26256722398102283477783203125" lon="-71.12969792447984218597412109375">
        <ele>655.79998779296875</ele>
        <time>2026-08-22T01:51:39.000Z</time>
        <extensions>
          <ns3:TrackPointExtension>
            <ns3:hr>116</ns3:hr>
            <ns3:cad>56</ns3:cad>
          </ns3:TrackPointExtension>
        </extensions>
      </trkpt>
      <trkpt lat="45.26256906799972057342529296875" lon="-71.12971385009586811065673828125">
        <ele>655.79998779296875</ele>
        <time>2026-08-22T01:51:40.000Z</time>
        <extensions>
          <ns3:TrackPointExtension>
            <ns3:hr>117</ns3:hr>
            <ns3:cad>56</ns3:cad>
          </ns3:TrackPointExtension>
        </extensions>
      </trkpt>
      <trkpt lat="45.26257476769387722015380859375" lon="-71.12973086535930633544921875">
        <ele>655.5999755859375</ele>
        <time>2026-08-22T01:51:41.000Z</time>
        <extensions>
          <ns3:TrackPointExtension>
            <ns3:hr>117</ns3:hr>
            <ns3:cad>55</ns3:cad>
          </ns3:TrackPointExtension>
        </extensions>
      </trkpt>
      <trkpt lat="45.26258113794028759002685546875" lon="-71.1297508142888545989990234375">
        <ele>655.4000244140625</ele>
        <time>2026-08-22T01:51:42.000Z</time>
        <extensions>
          <ns3:TrackPointExtension>
            <ns3:hr>117</ns3:hr>
            <ns3:cad>55</ns3:cad>
          </ns3:TrackPointExtension>
        </extensions>
      </trkpt>
      <trkpt lat="45.26258750818669795989990234375" lon="-71.12976707518100738525390625">
        <ele>655</ele>
        <time>2026-08-22T01:51:43.000Z</time>
        <extensions>
          <ns3:TrackPointExtension>
            <ns3:hr>117</ns3:hr>
            <ns3:cad>0</ns3:cad>
          </ns3:TrackPointExtension>
        </extensions>
      </trkpt>
      <trkpt lat="45.2625897713005542755126953125" lon="-71.129779815673828125">
        <ele>654.79998779296875</ele>
        <time>2026-08-22T01:51:44.000Z</time>
        <extensions>
          <ns3:TrackPointExtension>
            <ns3:hr>117</ns3:hr>
            <ns3:cad>0</ns3:cad>
          </ns3:TrackPointExtension>
        </extensions>
      </trkpt>
      <trkpt lat="45.26259304024279117584228515625" lon="-71.12979901023209095001220703125">
        <ele>654.5999755859375</ele>
        <time>2026-08-22T01:51:45.000Z</time>
        <extensions>
          <ns3:TrackPointExtension>
            <ns3:hr>117</ns3:hr>
            <ns3:cad>0</ns3:cad>
          </ns3:TrackPointExtension>
        </extensions>
      </trkpt>
      <trkpt lat="45.262598656117916107177734375" lon="-71.129814349114894866943359375">
        <ele>654.4000244140625</ele>
        <time>2026-08-22T01:51:46.000Z</time>
        <extensions>
          <ns3:TrackPointExtension>
            <ns3:hr>118</ns3:hr>
            <ns3:cad>0</ns3:cad>
          </ns3:TrackPointExtension>
        </extensions>
      </trkpt>
      <trkpt lat="45.26260477490723133087158203125" lon="-71.1298316158354282379150390625">
        <ele>654.20001220703125</ele>
        <time>2026-08-22T01:51:47.000Z</time>
        <extensions>
          <ns3:TrackPointExtension>
            <ns3:hr>118</ns3:hr>
            <ns3:cad>0</ns3:cad>
          </ns3:TrackPointExtension>
        </extensions>
      </trkpt>
      <trkpt lat="45.26260728947818279266357421875" lon="-71.1298430152237415313720703125">
        <ele>654.20001220703125</ele>
        <time>2026-08-22T01:51:48.000Z</time>
        <extensions>
          <ns3:TrackPointExtension>
            <ns3:hr>118</ns3:hr>
            <ns3:cad>0</ns3:cad>
          </ns3:TrackPointExtension>
        </extensions>
      </trkpt>
      <trkpt lat="45.2626082114875316619873046875" lon="-71.12984762527048587799072265625">
        <ele>654</ele>
        <time>2026-08-22T01:51:49.000Z</time>
        <extensions>
          <ns3:TrackPointExtension>
            <ns3:hr>118</ns3:hr>
            <ns3:cad>0</ns3:cad>
          </ns3:TrackPointExtension>
        </extensions>
      </trkpt>
      <trkpt lat="45.2626082114875316619873046875" lon="-71.1298482120037078857421875">
        <ele>653.79998779296875</ele>
        <time>2026-08-22T01:51:50.000Z</time>
        <extensions>
          <ns3:TrackPointExtension>
            <ns3:hr>119</ns3:hr>
            <ns3:cad>0</ns3:cad>
          </ns3:TrackPointExtension>
        </extensions>
      </trkpt>
      <trkpt lat="45.26260796003043651580810546875" lon="-71.12984561361372470855712890625">
        <ele>653.79998779296875</ele>
        <time>2026-08-22T01:51:51.000Z</time>
        <extensions>
          <ns3:TrackPointExtension>
            <ns3:hr>119</ns3:hr>
            <ns3:cad>0</ns3:cad>
          </ns3:TrackPointExtension>
        </extensions>
      </trkpt>
      <trkpt lat="45.26260293088853359222412109375" lon="-71.12985315732657909393310546875">
        <ele>653.79998779296875</ele>
        <time>2026-08-22T01:51:52.000Z</time>
        <extensions>
          <ns3:TrackPointExtension>
            <ns3:hr>119</ns3:hr>
            <ns3:cad>0</ns3:cad>
          </ns3:TrackPointExtension>
        </extensions>
      </trkpt>
      <trkpt lat="45.2626005001366138458251953125" lon="-71.1298611201345920562744140625">
        <ele>653.79998779296875</ele>
        <time>2026-08-22T01:51:53.000Z</time>
        <extensions>
          <ns3:TrackPointExtension>
            <ns3:hr>119</ns3:hr>
            <ns3:cad>0</ns3:cad>
          </ns3:TrackPointExtension>
        </extensions>
      </trkpt>
      <trkpt lat="45.26259270496666431427001953125" lon="-71.12987243570387363433837890625">
        <ele>653.79998779296875</ele>
        <time>2026-08-22T01:51:54.000Z</time>
        <extensions>
          <ns3:TrackPointExtension>
            <ns3:hr>119</ns3:hr>
            <ns3:cad>0</ns3:cad>
          </ns3:TrackPointExtension>
        </extensions>
      </trkpt>
      <trkpt lat="45.26258893311023712158203125" lon="-71.12988919951021671295166015625">
        <ele>653.5999755859375</ele>
        <time>2026-08-22T01:51:55.000Z</time>
        <extensions>
          <ns3:TrackPointExtension>
            <ns3:hr>119</ns3:hr>
            <ns3:cad>0</ns3:cad>
          </ns3:TrackPointExtension>
        </extensions>
      </trkpt>
      <trkpt lat="45.26258599944412708282470703125" lon="-71.12989825196564197540283203125">
        <ele>653.5999755859375</ele>
        <time>2026-08-22T01:51:56.000Z</time>
        <extensions>
          <ns3:TrackPointExtension>
            <ns3:hr>118</ns3:hr>
            <ns3:cad>0</ns3:cad>
          </ns3:TrackPointExtension>
        </extensions>
      </trkpt>
      <trkpt lat="45.2625787071883678436279296875" lon="-71.1299072206020355224609375">
        <ele>653.4000244140625</ele>
        <time>2026-08-22T01:51:57.000Z</time>
        <extensions>
          <ns3:TrackPointExtension>
            <ns3:hr>116</ns3:hr>
            <ns3:cad>0</ns3:cad>
          </ns3:TrackPointExtension>
        </extensions>
      </trkpt>
      <trkpt lat="45.26257191784679889678955078125" lon="-71.1299184523522853851318359375">
        <ele>653.4000244140625</ele>
        <time>2026-08-22T01:51:58.000Z</time>
        <extensions>
          <ns3:TrackPointExtension>
            <ns3:hr>115</ns3:hr>
            <ns3:cad>0</ns3:cad>
          </ns3:TrackPointExtension>
        </extensions>
      </trkpt>
      <trkpt lat="45.26256605051457881927490234375" lon="-71.12992239184677600860595703125">
        <ele>653.4000244140625</ele>
        <time>2026-08-22T01:51:59.000Z</time>
        <extensions>
          <ns3:TrackPointExtension>
            <ns3:hr>115</ns3:hr>
            <ns3:cad>0</ns3:cad>
          </ns3:TrackPointExtension>
        </extensions>
      </trkpt>
      <trkpt lat="45.2625575847923755645751953125" lon="-71.1299311928451061248779296875">
        <ele>653.4000244140625</ele>
        <time>2026-08-22T01:52:00.000Z</time>
        <extensions>
          <ns3:TrackPointExtension>
            <ns3:hr>114</ns3:hr>
            <ns3:cad>0</ns3:cad>
          </ns3:TrackPointExtension>
        </extensions>
      </trkpt>
      <trkpt lat="45.26254844851791858673095703125" lon="-71.12993932329118251800537109375">
        <ele>653.4000244140625</ele>
        <time>2026-08-22T01:52:01.000Z</time>
        <extensions>
          <ns3:TrackPointExtension>
            <ns3:hr>114</ns3:hr>
            <ns3:cad>0</ns3:cad>
          </ns3:TrackPointExtension>
        </extensions>
      </trkpt>
      <trkpt lat="45.2625381387770175933837890625" lon="-71.12994099967181682586669921875">
        <ele>653.4000244140625</ele>
        <time>2026-08-22T01:52:02.000Z</time>
        <extensions>
          <ns3:TrackPointExtension>
            <ns3:hr>114</ns3:hr>
            <ns3:cad>0</ns3:cad>
          </ns3:TrackPointExtension>
        </extensions>
      </trkpt>
      <trkpt lat="45.26253134943544864654541015625" lon="-71.12994384951889514923095703125">
        <ele>653.4000244140625</ele>
        <time>2026-08-22T01:52:03.000Z</time>
        <extensions>
          <ns3:TrackPointExtension>
            <ns3:hr>114</ns3:hr>
            <ns3:cad>0</ns3:cad>
          </ns3:TrackPointExtension>
        </extensions>
      </trkpt>
      <trkpt lat="45.26252548210322856903076171875" lon="-71.1299474537372589111328125">
        <ele>653.20001220703125</ele>
        <time>2026-08-22T01:52:04.000Z</time>
        <extensions>
          <ns3:TrackPointExtension>
            <ns3:hr>114</ns3:hr>
            <ns3:cad>0</ns3:cad>
          </ns3:TrackPointExtension>
        </extensions>
      </trkpt>
      <trkpt lat="45.262518860399723052978515625" lon="-71.12994804047048091888427734375">
        <ele>653.20001220703125</ele>
        <time>2026-08-22T01:52:05.000Z</time>
        <extensions>
          <ns3:TrackPointExtension>
            <ns3:hr>113</ns3:hr>
            <ns3:cad>0</ns3:cad>
          </ns3:TrackPointExtension>
        </extensions>
      </trkpt>
      <trkpt lat="45.262508802115917205810546875" lon="-71.12995147705078125">
        <ele>653.20001220703125</ele>
        <time>2026-08-22T01:52:06.000Z</time>
        <extensions>
          <ns3:TrackPointExtension>
            <ns3:hr>113</ns3:hr>
            <ns3:cad>0</ns3:cad>
          </ns3:TrackPointExtension>
        </extensions>
      </trkpt>
      <trkpt lat="45.2624928764998912811279296875" lon="-71.12995273433625698089599609375">
        <ele>653.20001220703125</ele>
        <time>2026-08-22T01:52:07.000Z</time>
        <extensions>
          <ns3:TrackPointExtension>
            <ns3:hr>112</ns3:hr>
            <ns3:cad>0</ns3:cad>
          </ns3:TrackPointExtension>
        </extensions>
      </trkpt>
      <trkpt lat="45.26248223148286342620849609375" lon="-71.1299533210694789886474609375">
        <ele>653.20001220703125</ele>
        <time>2026-08-22T01:52:08.000Z</time>
        <extensions>
          <ns3:TrackPointExtension>
            <ns3:hr>112</ns3:hr>
            <ns3:cad>0</ns3:cad>
          </ns3:TrackPointExtension>
        </extensions>
      </trkpt>
      <trkpt lat="45.262473262846469879150390625" lon="-71.1299509741365909576416015625">
        <ele>653.20001220703125</ele>
        <time>2026-08-22T01:52:09.000Z</time>
        <extensions>
          <ns3:TrackPointExtension>
            <ns3:hr>112</ns3:hr>
            <ns3:cad>0</ns3:cad>
          </ns3:TrackPointExtension>
        </extensions>
      </trkpt>
      <trkpt lat="45.2624608576297760009765625" lon="-71.1299486272037029266357421875">
        <ele>653.20001220703125</ele>
        <time>2026-08-22T01:52:10.000Z</time>
        <extensions>
          <ns3:TrackPointExtension>
            <ns3:hr>112</ns3:hr>
            <ns3:cad>0</ns3:cad>
          </ns3:TrackPointExtension>
        </extensions>
      </trkpt>
      <trkpt lat="45.26244945824146270751953125" lon="-71.129951812326908111572265625">
        <ele>653.20001220703125</ele>
        <time>2026-08-22T01:52:11.000Z</time>
        <extensions>
          <ns3:TrackPointExtension>
            <ns3:hr>112</ns3:hr>
            <ns3:cad>0</ns3:cad>
          </ns3:TrackPointExtension>
        </extensions>
      </trkpt>
      <trkpt lat="45.2624415792524814605712890625" lon="-71.12995776347815990447998046875">
        <ele>653.4000244140625</ele>
        <time>2026-08-22T01:52:12.000Z</time>
        <extensions>
          <ns3:TrackPointExtension>
            <ns3:hr>112</ns3:hr>
            <ns3:cad>0</ns3:cad>
          </ns3:TrackPointExtension>
        </extensions>
      </trkpt>
      <trkpt lat="45.26243378408253192901611328125" lon="-71.12995675764977931976318359375">
        <ele>653.4000244140625</ele>
        <time>2026-08-22T01:52:13.000Z</time>
        <extensions>
          <ns3:TrackPointExtension>
            <ns3:hr>112</ns3:hr>
            <ns3:cad>0</ns3:cad>
          </ns3:TrackPointExtension>
        </extensions>
      </trkpt>
      <trkpt lat="45.262426324188709259033203125" lon="-71.12995826639235019683837890625">
        <ele>653.4000244140625</ele>
        <time>2026-08-22T01:52:14.000Z</time>
        <extensions>
          <ns3:TrackPointExtension>
            <ns3:hr>112</ns3:hr>
            <ns3:cad>0</ns3:cad>
          </ns3:TrackPointExtension>
        </extensions>
      </trkpt>
      <trkpt lat="45.2624140866100788116455078125" lon="-71.12996153533458709716796875">
        <ele>653.4000244140625</ele>
        <time>2026-08-22T01:52:15.000Z</time>
        <extensions>
          <ns3:TrackPointExtension>
            <ns3:hr>111</ns3:hr>
            <ns3:cad>0</ns3:cad>
          </ns3:TrackPointExtension>
        </extensions>
      </trkpt>
      <trkpt lat="45.2624053694307804107666015625" lon="-71.129967905580997467041015625">
        <ele>653.4000244140625</ele>
        <time>2026-08-22T01:52:16.000Z</time>
        <extensions>
          <ns3:TrackPointExtension>
            <ns3:hr>112</ns3:hr>
            <ns3:cad>0</ns3:cad>
          </ns3:TrackPointExtension>
        </extensions>
      </trkpt>
      <trkpt lat="45.26240444742143154144287109375" lon="-71.12996849231421947479248046875">
        <ele>653.4000244140625</ele>
        <time>2026-08-22T01:52:17.000Z</time>
        <extensions>
          <ns3:TrackPointExtension>
            <ns3:hr>112</ns3:hr>
            <ns3:cad>0</ns3:cad>
          </ns3:TrackPointExtension>
        </extensions>
      </trkpt>
      <trkpt lat="45.2624043636023998260498046875" lon="-71.129969246685504913330078125">
        <ele>653.4000244140625</ele>
        <time>2026-08-22T01:52:18.000Z</time>
        <extensions>
          <ns3:TrackPointExtension>
            <ns3:hr>112</ns3:hr>
            <ns3:cad>0</ns3:cad>
          </ns3:TrackPointExtension>
        </extensions>
      </trkpt>
      <trkpt lat="45.26240427978336811065673828125" lon="-71.12996882759034633636474609375">
        <ele>653.4000244140625</ele>
        <time>2026-08-22T01:52:19.000Z</time>
        <extensions>
          <ns3:TrackPointExtension>
            <ns3:hr>111</ns3:hr>
            <ns3:cad>0</ns3:cad>
          </ns3:TrackPointExtension>
        </extensions>
      </trkpt>
      <trkpt lat="45.26240427978336811065673828125" lon="-71.12996882759034633636474609375">
        <ele>653.4000244140625</ele>
        <time>2026-08-22T01:52:20.000Z</time>
        <extensions>
          <ns3:TrackPointExtension>
            <ns3:hr>112</ns3:hr>
            <ns3:cad>0</ns3:cad>
          </ns3:TrackPointExtension>
        </extensions>
      </trkpt>
      <trkpt lat="45.26240427978336811065673828125" lon="-71.12996882759034633636474609375">
        <ele>653.20001220703125</ele>
        <time>2026-08-22T01:52:21.000Z</time>
        <extensions>
          <ns3:TrackPointExtension>
            <ns3:hr>112</ns3:hr>
            <ns3:cad>0</ns3:cad>
          </ns3:TrackPointExtension>
        </extensions>
      </trkpt>
      <trkpt lat="45.26240444742143154144287109375" lon="-71.1299684084951877593994140625">
        <ele>653.20001220703125</ele>
        <time>2026-08-22T01:52:22.000Z</time>
        <extensions>
          <ns3:TrackPointExtension>
            <ns3:hr>112</ns3:hr>
            <ns3:cad>0</ns3:cad>
          </ns3:TrackPointExtension>
        </extensions>
      </trkpt>
      <trkpt lat="45.2624023519456386566162109375" lon="-71.12996145151555538177490234375">
        <ele>653.20001220703125</ele>
        <time>2026-08-22T01:52:23.000Z</time>
        <extensions>
          <ns3:TrackPointExtension>
            <ns3:hr>113</ns3:hr>
            <ns3:cad>0</ns3:cad>
          </ns3:TrackPointExtension>
        </extensions>
      </trkpt>
      <trkpt lat="45.2623939700424671173095703125" lon="-71.129953153431415557861328125">
        <ele>653.20001220703125</ele>
        <time>2026-08-22T01:52:24.000Z</time>
        <extensions>
          <ns3:TrackPointExtension>
            <ns3:hr>113</ns3:hr>
            <ns3:cad>0</ns3:cad>
          </ns3:TrackPointExtension>
        </extensions>
      </trkpt>
      <trkpt lat="45.26238801889121532440185546875" lon="-71.12994586117565631866455078125">
        <ele>653.4000244140625</ele>
        <time>2026-08-22T01:52:25.000Z</time>
        <extensions>
          <ns3:TrackPointExtension>
            <ns3:hr>113</ns3:hr>
            <ns3:cad>0</ns3:cad>
          </ns3:TrackPointExtension>
        </extensions>
      </trkpt>
      <trkpt lat="45.26237997226417064666748046875" lon="-71.12993529997766017913818359375">
        <ele>653.4000244140625</ele>
        <time>2026-08-22T01:52:26.000Z</time>
        <extensions>
          <ns3:TrackPointExtension>
            <ns3:hr>113</ns3:hr>
            <ns3:cad>0</ns3:cad>
          </ns3:TrackPointExtension>
        </extensions>
      </trkpt>
      <trkpt lat="45.26236790232360363006591796875" lon="-71.129933036863803863525390625">
        <ele>653.5999755859375</ele>
        <time>2026-08-22T01:52:27.000Z</time>
        <extensions>
          <ns3:TrackPointExtension>
            <ns3:hr>113</ns3:hr>
            <ns3:cad>0</ns3:cad>
          </ns3:TrackPointExtension>
        </extensions>
      </trkpt>
      <trkpt lat="45.26235767640173435211181640625" lon="-71.12991954199969768524169921875">
        <ele>653.79998779296875</ele>
        <time>2026-08-22T01:52:28.000Z</time>
        <extensions>
          <ns3:TrackPointExtension>
            <ns3:hr>113</ns3:hr>
            <ns3:cad>0</ns3:cad>
          </ns3:TrackPointExtension>
        </extensions>
      </trkpt>
      <trkpt lat="45.26234476827085018157958984375" lon="-71.12990981899201869964599609375">
        <ele>653.79998779296875</ele>
        <time>2026-08-22T01:52:29.000Z</time>
        <extensions>
          <ns3:TrackPointExtension>
            <ns3:hr>113</ns3:hr>
            <ns3:cad>0</ns3:cad>
          </ns3:TrackPointExtension>
        </extensions>
      </trkpt>
      <trkpt lat="45.2623319439589977264404296875" lon="-71.12990093417465686798095703125">
        <ele>654</ele>
        <time>2026-08-22T01:52:30.000Z</time>
        <extensions>
          <ns3:TrackPointExtension>
            <ns3:hr>113</ns3:hr>
            <ns3:cad>0</ns3:cad>
          </ns3:TrackPointExtension>
        </extensions>
      </trkpt>
      <trkpt lat="45.26231962256133556365966796875" lon="-71.1298996768891811370849609375">
        <ele>654</ele>
        <time>2026-08-22T01:52:31.000Z</time>
        <extensions>
          <ns3:TrackPointExtension>
            <ns3:hr>113</ns3:hr>
            <ns3:cad>0</ns3:cad>
          </ns3:TrackPointExtension>
        </extensions>
      </trkpt>
      <trkpt lat="45.2623017691075801849365234375" lon="-71.12990252673625946044921875">
        <ele>654.20001220703125</ele>
        <time>2026-08-22T01:52:32.000Z</time>
        <extensions>
          <ns3:TrackPointExtension>
            <ns3:hr>113</ns3:hr>
            <ns3:cad>0</ns3:cad>
          </ns3:TrackPointExtension>
        </extensions>
      </trkpt>
      <trkpt lat="45.26228961534798145294189453125" lon="-71.12990277819335460662841796875">
        <ele>654.20001220703125</ele>
        <time>2026-08-22T01:52:33.000Z</time>
        <extensions>
          <ns3:TrackPointExtension>
            <ns3:hr>114</ns3:hr>
            <ns3:cad>0</ns3:cad>
          </ns3:TrackPointExtension>
        </extensions>
      </trkpt>
      <trkpt lat="45.262282155454158782958984375" lon="-71.129901520907878875732421875">
        <ele>654.4000244140625</ele>
        <time>2026-08-22T01:52:34.000Z</time>
        <extensions>
          <ns3:TrackPointExtension>
            <ns3:hr>114</ns3:hr>
            <ns3:cad>0</ns3:cad>
          </ns3:TrackPointExtension>
        </extensions>
      </trkpt>
      <trkpt lat="45.26227016933262348175048828125" lon="-71.1298964917659759521484375">
        <ele>654.4000244140625</ele>
        <time>2026-08-22T01:52:35.000Z</time>
        <extensions>
          <ns3:TrackPointExtension>
            <ns3:hr>115</ns3:hr>
            <ns3:cad>0</ns3:cad>
          </ns3:TrackPointExtension>
        </extensions>
      </trkpt>
      <trkpt lat="45.26226011104881763458251953125" lon="-71.12989188171923160552978515625">
        <ele>654.4000244140625</ele>
        <time>2026-08-22T01:52:36.000Z</time>
        <extensions>
          <ns3:TrackPointExtension>
            <ns3:hr>116</ns3:hr>
            <ns3:cad>0</ns3:cad>
          </ns3:TrackPointExtension>
        </extensions>
      </trkpt>
      <trkpt lat="45.26225030422210693359375" lon="-71.1298862658441066741943359375">
        <ele>654.5999755859375</ele>
        <time>2026-08-22T01:52:37.000Z</time>
        <extensions>
          <ns3:TrackPointExtension>
            <ns3:hr>117</ns3:hr>
            <ns3:cad>0</ns3:cad>
          </ns3:TrackPointExtension>
        </extensions>
      </trkpt>
      <trkpt lat="45.2622397430241107940673828125" lon="-71.1298839189112186431884765625">
        <ele>654.79998779296875</ele>
        <time>2026-08-22T01:52:38.000Z</time>
        <extensions>
          <ns3:TrackPointExtension>
            <ns3:hr>116</ns3:hr>
            <ns3:cad>0</ns3:cad>
          </ns3:TrackPointExtension>
        </extensions>
      </trkpt>
      <trkpt lat="45.2622226439416408538818359375" lon="-71.1298862658441066741943359375">
        <ele>654.79998779296875</ele>
        <time>2026-08-22T01:52:39.000Z</time>
        <extensions>
          <ns3:TrackPointExtension>
            <ns3:hr>116</ns3:hr>
            <ns3:cad>0</ns3:cad>
          </ns3:TrackPointExtension>
        </extensions>
      </trkpt>
      <trkpt lat="45.26220747269690036773681640625" lon="-71.129892803728580474853515625">
        <ele>655</ele>
        <time>2026-08-22T01:52:40.000Z</time>
        <extensions>
          <ns3:TrackPointExtension>
            <ns3:hr>116</ns3:hr>
            <ns3:cad>0</ns3:cad>
          </ns3:TrackPointExtension>
        </extensions>
      </trkpt>
      <trkpt lat="45.2621951512992382049560546875" lon="-71.12989422865211963653564453125">
        <ele>655.20001220703125</ele>
        <time>2026-08-22T01:52:41.000Z</time>
        <extensions>
          <ns3:TrackPointExtension>
            <ns3:hr>117</ns3:hr>
            <ns3:cad>0</ns3:cad>
          </ns3:TrackPointExtension>
        </extensions>
      </trkpt>
      <trkpt lat="45.2621824108064174652099609375" lon="-71.1298983357846736907958984375">
        <ele>655.20001220703125</ele>
        <time>2026-08-22T01:52:42.000Z</time>
        <extensions>
          <ns3:TrackPointExtension>
            <ns3:hr>117</ns3:hr>
            <ns3:cad>0</ns3:cad>
          </ns3:TrackPointExtension>
        </extensions>
      </trkpt>
      <trkpt lat="45.26216992177069187164306640625" lon="-71.1299033649265766143798828125">
        <ele>655.20001220703125</ele>
        <time>2026-08-22T01:52:43.000Z</time>
        <extensions>
          <ns3:TrackPointExtension>
            <ns3:hr>117</ns3:hr>
            <ns3:cad>51</ns3:cad>
          </ns3:TrackPointExtension>
        </extensions>
      </trkpt>
      <trkpt lat="45.262156762182712554931640625" lon="-71.12990931607782840728759765625">
        <ele>655.20001220703125</ele>
        <time>2026-08-22T01:52:44.000Z</time>
        <extensions>
          <ns3:TrackPointExtension>
            <ns3:hr>118</ns3:hr>
            <ns3:cad>51</ns3:cad>
          </ns3:TrackPointExtension>
        </extensions>
      </trkpt>
      <trkpt lat="45.26214494369924068450927734375" lon="-71.1299152672290802001953125">
        <ele>655.20001220703125</ele>
        <time>2026-08-22T01:52:45.000Z</time>
        <extensions>
          <ns3:TrackPointExtension>
            <ns3:hr>118</ns3:hr>
            <ns3:cad>51</ns3:cad>
          </ns3:TrackPointExtension>
        </extensions>
      </trkpt>
      <trkpt lat="45.262133292853832244873046875" lon="-71.12991920672357082366943359375">
        <ele>655.4000244140625</ele>
        <time>2026-08-22T01:52:46.000Z</time>
        <extensions>
          <ns3:TrackPointExtension>
            <ns3:hr>118</ns3:hr>
            <ns3:cad>52</ns3:cad>
          </ns3:TrackPointExtension>
        </extensions>
      </trkpt>
      <trkpt lat="45.26211552321910858154296875" lon="-71.129929013550281524658203125">
        <ele>655.4000244140625</ele>
        <time>2026-08-22T01:52:47.000Z</time>
        <extensions>
          <ns3:TrackPointExtension>
            <ns3:hr>118</ns3:hr>
            <ns3:cad>52</ns3:cad>
          </ns3:TrackPointExtension>
        </extensions>
      </trkpt>
      <trkpt lat="45.2620965801179409027099609375" lon="-71.1299372278153896331787109375">
        <ele>655.4000244140625</ele>
        <time>2026-08-22T01:52:48.000Z</time>
        <extensions>
          <ns3:TrackPointExtension>
            <ns3:hr>119</ns3:hr>
            <ns3:cad>52</ns3:cad>
          </ns3:TrackPointExtension>
        </extensions>
      </trkpt>
      <trkpt lat="45.26208400726318359375" lon="-71.129938401281833648681640625">
        <ele>655.4000244140625</ele>
        <time>2026-08-22T01:52:49.000Z</time>
        <extensions>
          <ns3:TrackPointExtension>
            <ns3:hr>119</ns3:hr>
            <ns3:cad>52</ns3:cad>
          </ns3:TrackPointExtension>
        </extensions>
      </trkpt>
      <trkpt lat="45.2620717696845531463623046875" lon="-71.12995541654527187347412109375">
        <ele>655.5999755859375</ele>
        <time>2026-08-22T01:52:50.000Z</time>
        <extensions>
          <ns3:TrackPointExtension>
            <ns3:hr>119</ns3:hr>
            <ns3:cad>52</ns3:cad>
          </ns3:TrackPointExtension>
        </extensions>
      </trkpt>
      <trkpt lat="45.2620607055723667144775390625" lon="-71.12996279262006282806396484375">
        <ele>655.5999755859375</ele>
        <time>2026-08-22T01:52:51.000Z</time>
        <extensions>
          <ns3:TrackPointExtension>
            <ns3:hr>119</ns3:hr>
            <ns3:cad>52</ns3:cad>
          </ns3:TrackPointExtension>
        </extensions>
      </trkpt>
      <trkpt lat="45.262049138545989990234375" lon="-71.12996832467615604400634765625">
        <ele>655.5999755859375</ele>
        <time>2026-08-22T01:52:52.000Z</time>
        <extensions>
          <ns3:TrackPointExtension>
            <ns3:hr>119</ns3:hr>
            <ns3:cad>52</ns3:cad>
          </ns3:TrackPointExtension>
        </extensions>
      </trkpt>
      <trkpt lat="45.26203664951026439666748046875" lon="-71.1299596913158893585205078125">
        <ele>655.4000244140625</ele>
        <time>2026-08-22T01:52:53.000Z</time>
        <extensions>
          <ns3:TrackPointExtension>
            <ns3:hr>119</ns3:hr>
            <ns3:cad>0</ns3:cad>
          </ns3:TrackPointExtension>
        </extensions>
      </trkpt>
      <trkpt lat="45.26203027926385402679443359375" lon="-71.1299519799649715423583984375">
        <ele>655.4000244140625</ele>
        <time>2026-08-22T01:52:54.000Z</time>
        <extensions>
          <ns3:TrackPointExtension>
            <ns3:hr>120</ns3:hr>
            <ns3:cad>0</ns3:cad>
          </ns3:TrackPointExtension>
        </extensions>
      </trkpt>
      <trkpt lat="45.26201938278973102569580078125" lon="-71.12994854338467121124267578125">
        <ele>655.4000244140625</ele>
        <time>2026-08-22T01:52:55.000Z</time>
        <extensions>
          <ns3:TrackPointExtension>
            <ns3:hr>120</ns3:hr>
            <ns3:cad>0</ns3:cad>
          </ns3:TrackPointExtension>
        </extensions>
      </trkpt>
      <trkpt lat="45.2620075643062591552734375" lon="-71.129950471222400665283203125">
        <ele>655.5999755859375</ele>
        <time>2026-08-22T01:52:56.000Z</time>
        <extensions>
          <ns3:TrackPointExtension>
            <ns3:hr>120</ns3:hr>
            <ns3:cad>0</ns3:cad>
          </ns3:TrackPointExtension>
        </extensions>
      </trkpt>
      <trkpt lat="45.26199289597570896148681640625" lon="-71.12995021976530551910400390625">
        <ele>655.5999755859375</ele>
        <time>2026-08-22T01:52:57.000Z</time>
        <extensions>
          <ns3:TrackPointExtension>
            <ns3:hr>120</ns3:hr>
            <ns3:cad>0</ns3:cad>
          </ns3:TrackPointExtension>
        </extensions>
      </trkpt>
      <trkpt lat="45.26198208332061767578125" lon="-71.12995189614593982696533203125">
        <ele>655.79998779296875</ele>
        <time>2026-08-22T01:52:58.000Z</time>
        <extensions>
          <ns3:TrackPointExtension>
            <ns3:hr>120</ns3:hr>
            <ns3:cad>0</ns3:cad>
          </ns3:TrackPointExtension>
        </extensions>
      </trkpt>
      <trkpt lat="45.26197160594165325164794921875" lon="-71.1299509741365909576416015625">
        <ele>655.79998779296875</ele>
        <time>2026-08-22T01:52:59.000Z</time>
        <extensions>
          <ns3:TrackPointExtension>
            <ns3:hr>120</ns3:hr>
            <ns3:cad>0</ns3:cad>
          </ns3:TrackPointExtension>
        </extensions>
      </trkpt>
      <trkpt lat="45.2619617991149425506591796875" lon="-71.12994602881371974945068359375">
        <ele>656</ele>
        <time>2026-08-22T01:53:00.000Z</time>
        <extensions>
          <ns3:TrackPointExtension>
            <ns3:hr>120</ns3:hr>
            <ns3:cad>0</ns3:cad>
          </ns3:TrackPointExtension>
        </extensions>
      </trkpt>
      <trkpt lat="45.26195031590759754180908203125" lon="-71.12994703464210033416748046875">
        <ele>656</ele>
        <time>2026-08-22T01:53:01.000Z</time>
        <extensions>
          <ns3:TrackPointExtension>
            <ns3:hr>120</ns3:hr>
            <ns3:cad>0</ns3:cad>
          </ns3:TrackPointExtension>
        </extensions>
      </trkpt>
      <trkpt lat="45.261938162147998809814453125" lon="-71.129949130117893218994140625">
        <ele>656.20001220703125</ele>
        <time>2026-08-22T01:53:02.000Z</time>
        <extensions>
          <ns3:TrackPointExtension>
            <ns3:hr>120</ns3:hr>
            <ns3:cad>0</ns3:cad>
          </ns3:TrackPointExtension>
        </extensions>
      </trkpt>
      <trkpt lat="45.2619222365319728851318359375" lon="-71.1299543268978595733642578125">
        <ele>656.20001220703125</ele>
        <time>2026-08-22T01:53:03.000Z</time>
        <extensions>
          <ns3:TrackPointExtension>
            <ns3:hr>121</ns3:hr>
            <ns3:cad>0</ns3:cad>
          </ns3:TrackPointExtension>
        </extensions>
      </trkpt>
      <trkpt lat="45.26190773583948612213134765625" lon="-71.12995885312557220458984375">
        <ele>656.4000244140625</ele>
        <time>2026-08-22T01:53:04.000Z</time>
        <extensions>
          <ns3:TrackPointExtension>
            <ns3:hr>121</ns3:hr>
            <ns3:cad>0</ns3:cad>
          </ns3:TrackPointExtension>
        </extensions>
      </trkpt>
      <trkpt lat="45.261895917356014251708984375" lon="-71.12995994277298450469970703125">
        <ele>656.4000244140625</ele>
        <time>2026-08-22T01:53:05.000Z</time>
        <extensions>
          <ns3:TrackPointExtension>
            <ns3:hr>121</ns3:hr>
            <ns3:cad>0</ns3:cad>
          </ns3:TrackPointExtension>
        </extensions>
      </trkpt>
      <trkpt lat="45.26187940500676631927490234375" lon="-71.1299637146294116973876953125">
        <ele>656.20001220703125</ele>
        <time>2026-08-22T01:53:06.000Z</time>
        <extensions>
          <ns3:TrackPointExtension>
            <ns3:hr>122</ns3:hr>
            <ns3:cad>0</ns3:cad>
          </ns3:TrackPointExtension>
        </extensions>
      </trkpt>
      <trkpt lat="45.2618654072284698486328125" lon="-71.129965893924236297607421875">
        <ele>656.20001220703125</ele>
        <time>2026-08-22T01:53:07.000Z</time>
        <extensions>
          <ns3:TrackPointExtension>
            <ns3:hr>122</ns3:hr>
            <ns3:cad>0</ns3:cad>
          </ns3:TrackPointExtension>
        </extensions>
      </trkpt>
      <trkpt lat="45.26185275055468082427978515625" lon="-71.129967905580997467041015625">
        <ele>656.20001220703125</ele>
        <time>2026-08-22T01:53:08.000Z</time>
        <extensions>
          <ns3:TrackPointExtension>
            <ns3:hr>122</ns3:hr>
            <ns3:cad>0</ns3:cad>
          </ns3:TrackPointExtension>
        </extensions>
      </trkpt>
      <trkpt lat="45.26184202171862125396728515625" lon="-71.129963211715221405029296875">
        <ele>656.20001220703125</ele>
        <time>2026-08-22T01:53:09.000Z</time>
        <extensions>
          <ns3:TrackPointExtension>
            <ns3:hr>122</ns3:hr>
            <ns3:cad>0</ns3:cad>
          </ns3:TrackPointExtension>
        </extensions>
      </trkpt>
      <trkpt lat="45.26182626374065876007080078125" lon="-71.12995524890720844268798828125">
        <ele>656.4000244140625</ele>
        <time>2026-08-22T01:53:10.000Z</time>
        <extensions>
          <ns3:TrackPointExtension>
            <ns3:hr>123</ns3:hr>
            <ns3:cad>0</ns3:cad>
          </ns3:TrackPointExtension>
        </extensions>
      </trkpt>
      <trkpt lat="45.26181385852396488189697265625" lon="-71.12994946539402008056640625">
        <ele>656.5999755859375</ele>
        <time>2026-08-22T01:53:11.000Z</time>
        <extensions>
          <ns3:TrackPointExtension>
            <ns3:hr>124</ns3:hr>
            <ns3:cad>0</ns3:cad>
          </ns3:TrackPointExtension>
        </extensions>
      </trkpt>
      <trkpt lat="45.26180296204984188079833984375" lon="-71.12994301132857799530029296875">
        <ele>656.5999755859375</ele>
        <time>2026-08-22T01:53:12.000Z</time>
        <extensions>
          <ns3:TrackPointExtension>
            <ns3:hr>124</ns3:hr>
            <ns3:cad>0</ns3:cad>
          </ns3:TrackPointExtension>
        </extensions>
      </trkpt>
      <trkpt lat="45.26178820990025997161865234375" lon="-71.1299449391663074493408203125">
        <ele>656.79998779296875</ele>
        <time>2026-08-22T01:53:13.000Z</time>
        <extensions>
          <ns3:TrackPointExtension>
            <ns3:hr>124</ns3:hr>
            <ns3:cad>0</ns3:cad>
          </ns3:TrackPointExtension>
        </extensions>
      </trkpt>
      <trkpt lat="45.261770524084568023681640625" lon="-71.12994871102273464202880859375">
        <ele>656.79998779296875</ele>
        <time>2026-08-22T01:53:14.000Z</time>
        <extensions>
          <ns3:TrackPointExtension>
            <ns3:hr>123</ns3:hr>
            <ns3:cad>0</ns3:cad>
          </ns3:TrackPointExtension>
        </extensions>
      </trkpt>
      <trkpt lat="45.26175250299274921417236328125" lon="-71.1299486272037029266357421875">
        <ele>657</ele>
        <time>2026-08-22T01:53:15.000Z</time>
        <extensions>
          <ns3:TrackPointExtension>
            <ns3:hr>124</ns3:hr>
            <ns3:cad>0</ns3:cad>
          </ns3:TrackPointExtension>
        </extensions>
      </trkpt>
      <trkpt lat="45.26174328289926052093505859375" lon="-71.12994946539402008056640625">
        <ele>657</ele>
        <time>2026-08-22T01:53:16.000Z</time>
        <extensions>
          <ns3:TrackPointExtension>
            <ns3:hr>124</ns3:hr>
            <ns3:cad>0</ns3:cad>
          </ns3:TrackPointExtension>
        </extensions>
      </trkpt>
      <trkpt lat="45.26173121295869350433349609375" lon="-71.12995441071689128875732421875">
        <ele>657</ele>
        <time>2026-08-22T01:53:17.000Z</time>
        <extensions>
          <ns3:TrackPointExtension>
            <ns3:hr>125</ns3:hr>
            <ns3:cad>0</ns3:cad>
          </ns3:TrackPointExtension>
        </extensions>
      </trkpt>
      <trkpt lat="45.26172165758907794952392578125" lon="-71.12995910458266735076904296875">
        <ele>657</ele>
        <time>2026-08-22T01:53:18.000Z</time>
        <extensions>
          <ns3:TrackPointExtension>
            <ns3:hr>125</ns3:hr>
            <ns3:cad>0</ns3:cad>
          </ns3:TrackPointExtension>
        </extensions>
      </trkpt>
      <trkpt lat="45.26170891709625720977783203125" lon="-71.129959858953952789306640625">
        <ele>657.20001220703125</ele>
        <time>2026-08-22T01:53:19.000Z</time>
        <extensions>
          <ns3:TrackPointExtension>
            <ns3:hr>126</ns3:hr>
            <ns3:cad>53</ns3:cad>
          </ns3:TrackPointExtension>
        </extensions>
      </trkpt>
      <trkpt lat="45.26169768534600734710693359375" lon="-71.129962541162967681884765625">
        <ele>657.4000244140625</ele>
        <time>2026-08-22T01:53:20.000Z</time>
        <extensions>
          <ns3:TrackPointExtension>
            <ns3:hr>126</ns3:hr>
            <ns3:cad>53</ns3:cad>
          </ns3:TrackPointExtension>
        </extensions>
      </trkpt>
      <trkpt lat="45.26168326847255229949951171875" lon="-71.129966564476490020751953125">
        <ele>657.4000244140625</ele>
        <time>2026-08-22T01:53:21.000Z</time>
        <extensions>
          <ns3:TrackPointExtension>
            <ns3:hr>126</ns3:hr>
            <ns3:cad>53</ns3:cad>
          </ns3:TrackPointExtension>
        </extensions>
      </trkpt>
      <trkpt lat="45.26167606003582477569580078125" lon="-71.12996983341872692108154296875">
        <ele>657.79998779296875</ele>
        <time>2026-08-22T01:53:22.000Z</time>
        <extensions>
          <ns3:TrackPointExtension>
            <ns3:hr>126</ns3:hr>
            <ns3:cad>53</ns3:cad>
          </ns3:TrackPointExtension>
        </extensions>
      </trkpt>
      <trkpt lat="45.26166616939008235931396484375" lon="-71.12997896969318389892578125">
        <ele>658</ele>
        <time>2026-08-22T01:53:23.000Z</time>
        <extensions>
          <ns3:TrackPointExtension>
            <ns3:hr>126</ns3:hr>
            <ns3:cad>53</ns3:cad>
          </ns3:TrackPointExtension>
        </extensions>
      </trkpt>
      <trkpt lat="45.26165644638240337371826171875" lon="-71.129986345767974853515625">
        <ele>658.20001220703125</ele>
        <time>2026-08-22T01:53:24.000Z</time>
        <extensions>
          <ns3:TrackPointExtension>
            <ns3:hr>126</ns3:hr>
            <ns3:cad>53</ns3:cad>
          </ns3:TrackPointExtension>
        </extensions>
      </trkpt>
      <trkpt lat="45.26164479553699493408203125" lon="-71.12998760305345058441162109375">
        <ele>658.20001220703125</ele>
        <time>2026-08-22T01:53:25.000Z</time>
        <extensions>
          <ns3:TrackPointExtension>
            <ns3:hr>127</ns3:hr>
            <ns3:cad>53</ns3:cad>
          </ns3:TrackPointExtension>
        </extensions>
      </trkpt>
      <trkpt lat="45.26162509806454181671142578125" lon="-71.12998777069151401519775390625">
        <ele>658.20001220703125</ele>
        <time>2026-08-22T01:53:26.000Z</time>
        <extensions>
          <ns3:TrackPointExtension>
            <ns3:hr>127</ns3:hr>
            <ns3:cad>53</ns3:cad>
          </ns3:TrackPointExtension>
        </extensions>
      </trkpt>
      <trkpt lat="45.2616104297339916229248046875" lon="-71.1299912072718143463134765625">
        <ele>658.20001220703125</ele>
        <time>2026-08-22T01:53:27.000Z</time>
        <extensions>
          <ns3:TrackPointExtension>
            <ns3:hr>127</ns3:hr>
            <ns3:cad>0</ns3:cad>
          </ns3:TrackPointExtension>
        </extensions>
      </trkpt>
      <trkpt lat="45.26159291155636310577392578125" lon="-71.1300032772123813629150390625">
        <ele>658.20001220703125</ele>
        <time>2026-08-22T01:53:28.000Z</time>
        <extensions>
          <ns3:TrackPointExtension>
            <ns3:hr>128</ns3:hr>
            <ns3:cad>0</ns3:cad>
          </ns3:TrackPointExtension>
        </extensions>
      </trkpt>
      <trkpt lat="45.26158369146287441253662109375" lon="-71.1300220526754856109619140625">
        <ele>658.4000244140625</ele>
        <time>2026-08-22T01:53:29.000Z</time>
        <extensions>
          <ns3:TrackPointExtension>
            <ns3:hr>128</ns3:hr>
            <ns3:cad>0</ns3:cad>
          </ns3:TrackPointExtension>
        </extensions>
      </trkpt>
      <trkpt lat="45.26157698594033718109130859375" lon="-71.13004267215728759765625">
        <ele>658.4000244140625</ele>
        <time>2026-08-22T01:53:30.000Z</time>
        <extensions>
          <ns3:TrackPointExtension>
            <ns3:hr>128</ns3:hr>
            <ns3:cad>0</ns3:cad>
          </ns3:TrackPointExtension>
        </extensions>
      </trkpt>
      <trkpt lat="45.26157128624618053436279296875" lon="-71.1300602741539478302001953125">
        <ele>658.20001220703125</ele>
        <time>2026-08-22T01:53:31.000Z</time>
        <extensions>
          <ns3:TrackPointExtension>
            <ns3:hr>127</ns3:hr>
            <ns3:cad>0</ns3:cad>
          </ns3:TrackPointExtension>
        </extensions>
      </trkpt>
      <trkpt lat="45.26156030595302581787109375" lon="-71.13007963635027408599853515625">
        <ele>658.20001220703125</ele>
        <time>2026-08-22T01:53:32.000Z</time>
        <extensions>
          <ns3:TrackPointExtension>
            <ns3:hr>127</ns3:hr>
            <ns3:cad>0</ns3:cad>
          </ns3:TrackPointExtension>
        </extensions>
      </trkpt>
      <trkpt lat="45.2615541033446788787841796875" lon="-71.130098663270473480224609375">
        <ele>658</ele>
        <time>2026-08-22T01:53:33.000Z</time>
        <extensions>
          <ns3:TrackPointExtension>
            <ns3:hr>127</ns3:hr>
            <ns3:cad>0</ns3:cad>
          </ns3:TrackPointExtension>
        </extensions>
      </trkpt>
      <trkpt lat="45.2615443803369998931884765625" lon="-71.13011919893324375152587890625">
        <ele>657.79998779296875</ele>
        <time>2026-08-22T01:53:34.000Z</time>
        <extensions>
          <ns3:TrackPointExtension>
            <ns3:hr>126</ns3:hr>
            <ns3:cad>0</ns3:cad>
          </ns3:TrackPointExtension>
        </extensions>
      </trkpt>
      <trkpt lat="45.26153641752898693084716796875" lon="-71.1301390640437602996826171875">
        <ele>657.5999755859375</ele>
        <time>2026-08-22T01:53:35.000Z</time>
        <extensions>
          <ns3:TrackPointExtension>
            <ns3:hr>126</ns3:hr>
            <ns3:cad>0</ns3:cad>
          </ns3:TrackPointExtension>
        </extensions>
      </trkpt>
      <trkpt lat="45.26152568869292736053466796875" lon="-71.1301558278501033782958984375">
        <ele>657.4000244140625</ele>
        <time>2026-08-22T01:53:36.000Z</time>
        <extensions>
          <ns3:TrackPointExtension>
            <ns3:hr>126</ns3:hr>
            <ns3:cad>0</ns3:cad>
          </ns3:TrackPointExtension>
        </extensions>
      </trkpt>
      <trkpt lat="45.26151730678975582122802734375" lon="-71.130171753466129302978515625">
        <ele>657.4000244140625</ele>
        <time>2026-08-22T01:53:37.000Z</time>
        <extensions>
          <ns3:TrackPointExtension>
            <ns3:hr>126</ns3:hr>
            <ns3:cad>0</ns3:cad>
          </ns3:TrackPointExtension>
        </extensions>
      </trkpt>
      <trkpt lat="45.261503644287586212158203125" lon="-71.1301903612911701202392578125">
        <ele>657.20001220703125</ele>
        <time>2026-08-22T01:53:38.000Z</time>
        <extensions>
          <ns3:TrackPointExtension>
            <ns3:hr>126</ns3:hr>
            <ns3:cad>0</ns3:cad>
          </ns3:TrackPointExtension>
        </extensions>
      </trkpt>
      <trkpt lat="45.2614937536418437957763671875" lon="-71.130209304392337799072265625">
        <ele>657.20001220703125</ele>
        <time>2026-08-22T01:53:39.000Z</time>
        <extensions>
          <ns3:TrackPointExtension>
            <ns3:hr>126</ns3:hr>
            <ns3:cad>0</ns3:cad>
          </ns3:TrackPointExtension>
        </extensions>
      </trkpt>
      <trkpt lat="45.26148059405386447906494140625" lon="-71.1302305944263935089111328125">
        <ele>657</ele>
        <time>2026-08-22T01:53:40.000Z</time>
        <extensions>
          <ns3:TrackPointExtension>
            <ns3:hr>126</ns3:hr>
            <ns3:cad>0</ns3:cad>
          </ns3:TrackPointExtension>
        </extensions>
      </trkpt>
      <trkpt lat="45.2614753134548664093017578125" lon="-71.13024677149951457977294921875">
        <ele>657</ele>
        <time>2026-08-22T01:53:41.000Z</time>
        <extensions>
          <ns3:TrackPointExtension>
            <ns3:hr>126</ns3:hr>
            <ns3:cad>0</ns3:cad>
          </ns3:TrackPointExtension>
        </extensions>
      </trkpt>
      <trkpt lat="45.2614657580852508544921875" lon="-71.13026722334325313568115234375">
        <ele>657</ele>
        <time>2026-08-22T01:53:42.000Z</time>
        <extensions>
          <ns3:TrackPointExtension>
            <ns3:hr>126</ns3:hr>
            <ns3:cad>0</ns3:cad>
          </ns3:TrackPointExtension>
        </extensions>
      </trkpt>
      <trkpt lat="45.261458046734333038330078125" lon="-71.130284406244754791259765625">
        <ele>656.79998779296875</ele>
        <time>2026-08-22T01:53:43.000Z</time>
        <extensions>
          <ns3:TrackPointExtension>
            <ns3:hr>126</ns3:hr>
            <ns3:cad>0</ns3:cad>
          </ns3:TrackPointExtension>
        </extensions>
      </trkpt>
      <trkpt lat="45.26144589297473430633544921875" lon="-71.13030494190752506256103515625">
        <ele>656.79998779296875</ele>
        <time>2026-08-22T01:53:44.000Z</time>
        <extensions>
          <ns3:TrackPointExtension>
            <ns3:hr>126</ns3:hr>
            <ns3:cad>0</ns3:cad>
          </ns3:TrackPointExtension>
        </extensions>
      </trkpt>
      <trkpt lat="45.2614362537860870361328125" lon="-71.13031315617263317108154296875">
        <ele>656.79998779296875</ele>
        <time>2026-08-22T01:53:45.000Z</time>
        <extensions>
          <ns3:TrackPointExtension>
            <ns3:hr>126</ns3:hr>
            <ns3:cad>0</ns3:cad>
          </ns3:TrackPointExtension>
        </extensions>
      </trkpt>
      <trkpt lat="45.26142175309360027313232421875" lon="-71.13033159635961055755615234375">
        <ele>656.5999755859375</ele>
        <time>2026-08-22T01:53:46.000Z</time>
        <extensions>
          <ns3:TrackPointExtension>
            <ns3:hr>125</ns3:hr>
            <ns3:cad>0</ns3:cad>
          </ns3:TrackPointExtension>
        </extensions>
      </trkpt>
      <trkpt lat="45.26140431873500347137451171875" lon="-71.13035489805042743682861328125">
        <ele>656.4000244140625</ele>
        <time>2026-08-22T01:53:47.000Z</time>
        <extensions>
          <ns3:TrackPointExtension>
            <ns3:hr>125</ns3:hr>
            <ns3:cad>0</ns3:cad>
          </ns3:TrackPointExtension>
        </extensions>
      </trkpt>
      <trkpt lat="45.2613935060799121856689453125" lon="-71.1303667165338993072509765625">
        <ele>656.4000244140625</ele>
        <time>2026-08-22T01:53:48.000Z</time>
        <extensions>
          <ns3:TrackPointExtension>
            <ns3:hr>125</ns3:hr>
            <ns3:cad>0</ns3:cad>
          </ns3:TrackPointExtension>
        </extensions>
      </trkpt>
      <trkpt lat="45.26138017885386943817138671875" lon="-71.13037752918899059295654296875">
        <ele>656.4000244140625</ele>
        <time>2026-08-22T01:53:49.000Z</time>
        <extensions>
          <ns3:TrackPointExtension>
            <ns3:hr>125</ns3:hr>
            <ns3:cad>0</ns3:cad>
          </ns3:TrackPointExtension>
        </extensions>
      </trkpt>
      <trkpt lat="45.26136592961847782135009765625" lon="-71.13039094023406505584716796875">
        <ele>656.4000244140625</ele>
        <time>2026-08-22T01:53:50.000Z</time>
        <extensions>
          <ns3:TrackPointExtension>
            <ns3:hr>125</ns3:hr>
            <ns3:cad>0</ns3:cad>
          </ns3:TrackPointExtension>
        </extensions>
      </trkpt>
      <trkpt lat="45.2613546140491962432861328125" lon="-71.13039915449917316436767578125">
        <ele>656.4000244140625</ele>
        <time>2026-08-22T01:53:51.000Z</time>
        <extensions>
          <ns3:TrackPointExtension>
            <ns3:hr>124</ns3:hr>
            <ns3:cad>71</ns3:cad>
          </ns3:TrackPointExtension>
        </extensions>
      </trkpt>
      <trkpt lat="45.261339358985424041748046875" lon="-71.1304133199155330657958984375">
        <ele>656.4000244140625</ele>
        <time>2026-08-22T01:53:52.000Z</time>
        <extensions>
          <ns3:TrackPointExtension>
            <ns3:hr>124</ns3:hr>
            <ns3:cad>71</ns3:cad>
          </ns3:TrackPointExtension>
        </extensions>
      </trkpt>
      <trkpt lat="45.26132603175938129425048828125" lon="-71.1304361186921596527099609375">
        <ele>656.4000244140625</ele>
        <time>2026-08-22T01:53:53.000Z</time>
        <extensions>
          <ns3:TrackPointExtension>
            <ns3:hr>125</ns3:hr>
            <ns3:cad>71</ns3:cad>
          </ns3:TrackPointExtension>
        </extensions>
      </trkpt>
      <trkpt lat="45.2613143809139728546142578125" lon="-71.13045036792755126953125">
        <ele>656.20001220703125</ele>
        <time>2026-08-22T01:53:54.000Z</time>
        <extensions>
          <ns3:TrackPointExtension>
            <ns3:hr>124</ns3:hr>
            <ns3:cad>71</ns3:cad>
          </ns3:TrackPointExtension>
        </extensions>
      </trkpt>
      <trkpt lat="45.26130155660212039947509765625" lon="-71.13046671263873577117919921875">
        <ele>656.20001220703125</ele>
        <time>2026-08-22T01:53:55.000Z</time>
        <extensions>
          <ns3:TrackPointExtension>
            <ns3:hr>124</ns3:hr>
            <ns3:cad>71</ns3:cad>
          </ns3:TrackPointExtension>
        </extensions>
      </trkpt>
      <trkpt lat="45.26129216887056827545166015625" lon="-71.13048213534057140350341796875">
        <ele>656</ele>
        <time>2026-08-22T01:53:56.000Z</time>
        <extensions>
          <ns3:TrackPointExtension>
            <ns3:hr>124</ns3:hr>
            <ns3:cad>70</ns3:cad>
          </ns3:TrackPointExtension>
        </extensions>
      </trkpt>
      <trkpt lat="45.2612793445587158203125" lon="-71.13049504347145557403564453125">
        <ele>655.79998779296875</ele>
        <time>2026-08-22T01:53:57.000Z</time>
        <extensions>
          <ns3:TrackPointExtension>
            <ns3:hr>124</ns3:hr>
            <ns3:cad>70</ns3:cad>
          </ns3:TrackPointExtension>
        </extensions>
      </trkpt>
      <trkpt lat="45.26126065291464328765869140625" lon="-71.13051381893455982208251953125">
        <ele>655.79998779296875</ele>
        <time>2026-08-22T01:53:58.000Z</time>
        <extensions>
          <ns3:TrackPointExtension>
            <ns3:hr>124</ns3:hr>
            <ns3:cad>70</ns3:cad>
          </ns3:TrackPointExtension>
        </extensions>
      </trkpt>
      <trkpt lat="45.2612493373453617095947265625" lon="-71.13053276203572750091552734375">
        <ele>655.79998779296875</ele>
        <time>2026-08-22T01:53:59.000Z</time>
        <extensions>
          <ns3:TrackPointExtension>
            <ns3:hr>123</ns3:hr>
            <ns3:cad>70</ns3:cad>
          </ns3:TrackPointExtension>
        </extensions>
      </trkpt>
      <trkpt lat="45.261234752833843231201171875" lon="-71.1305487714707851409912109375">
        <ele>655.5999755859375</ele>
        <time>2026-08-22T01:54:00.000Z</time>
        <extensions>
          <ns3:TrackPointExtension>
            <ns3:hr>122</ns3:hr>
            <ns3:cad>70</ns3:cad>
          </ns3:TrackPointExtension>
        </extensions>
      </trkpt>
      <trkpt lat="45.26122461073100566864013671875" lon="-71.13055832684040069580078125">
        <ele>655.5999755859375</ele>
        <time>2026-08-22T01:54:01.000Z</time>
        <extensions>
          <ns3:TrackPointExtension>
            <ns3:hr>122</ns3:hr>
            <ns3:cad>70</ns3:cad>
          </ns3:TrackPointExtension>
        </extensions>
      </trkpt>
      <trkpt lat="45.2612134627997875213623046875" lon="-71.13056679256260395050048828125">
        <ele>655.5999755859375</ele>
        <time>2026-08-22T01:54:02.000Z</time>
        <extensions>
          <ns3:TrackPointExtension>
            <ns3:hr>122</ns3:hr>
            <ns3:cad>70</ns3:cad>
          </ns3:TrackPointExtension>
        </extensions>
      </trkpt>
      <trkpt lat="45.26120382361114025115966796875" lon="-71.1305782757699489593505859375">
        <ele>655.5999755859375</ele>
        <time>2026-08-22T01:54:03.000Z</time>
        <extensions>
          <ns3:TrackPointExtension>
            <ns3:hr>123</ns3:hr>
            <ns3:cad>70</ns3:cad>
          </ns3:TrackPointExtension>
        </extensions>
      </trkpt>
      <trkpt lat="45.2611873112618923187255859375" lon="-71.13058942370116710662841796875">
        <ele>655.5999755859375</ele>
        <time>2026-08-22T01:54:04.000Z</time>
        <extensions>
          <ns3:TrackPointExtension>
            <ns3:hr>123</ns3:hr>
            <ns3:cad>70</ns3:cad>
          </ns3:TrackPointExtension>
        </extensions>
      </trkpt>
      <trkpt lat="45.26117498986423015594482421875" lon="-71.13060501404106616973876953125">
        <ele>655.5999755859375</ele>
        <time>2026-08-22T01:54:05.000Z</time>
        <extensions>
          <ns3:TrackPointExtension>
            <ns3:hr>123</ns3:hr>
            <ns3:cad>73</ns3:cad>
          </ns3:TrackPointExtension>
        </extensions>
      </trkpt>
      <trkpt lat="45.261162333190441131591796875" lon="-71.13062043674290180206298828125">
        <ele>655.4000244140625</ele>
        <time>2026-08-22T01:54:06.000Z</time>
        <extensions>
          <ns3:TrackPointExtension>
            <ns3:hr>123</ns3:hr>
            <ns3:cad>0</ns3:cad>
          </ns3:TrackPointExtension>
        </extensions>
      </trkpt>
      <trkpt lat="45.2611527778208255767822265625" lon="-71.1306335963308811187744140625">
        <ele>655.20001220703125</ele>
        <time>2026-08-22T01:54:07.000Z</time>
        <extensions>
          <ns3:TrackPointExtension>
            <ns3:hr>123</ns3:hr>
            <ns3:cad>0</ns3:cad>
          </ns3:TrackPointExtension>
        </extensions>
      </trkpt>
      <trkpt lat="45.2611385285854339599609375" lon="-71.1306456662714481353759765625">
        <ele>655</ele>
        <time>2026-08-22T01:54:08.000Z</time>
        <extensions>
          <ns3:TrackPointExtension>
            <ns3:hr>123</ns3:hr>
            <ns3:cad>0</ns3:cad>
          </ns3:TrackPointExtension>
        </extensions>
      </trkpt>
      <trkpt lat="45.2611256204545497894287109375" lon="-71.13065564073622226715087890625">
        <ele>654.79998779296875</ele>
        <time>2026-08-22T01:54:09.000Z</time>
        <extensions>
          <ns3:TrackPointExtension>
            <ns3:hr>124</ns3:hr>
            <ns3:cad>0</ns3:cad>
          </ns3:TrackPointExtension>
        </extensions>
      </trkpt>
      <trkpt lat="45.26111028157174587249755859375" lon="-71.130664609372615814208984375">
        <ele>654.4000244140625</ele>
        <time>2026-08-22T01:54:10.000Z</time>
        <extensions>
          <ns3:TrackPointExtension>
            <ns3:hr>123</ns3:hr>
            <ns3:cad>43</ns3:cad>
          </ns3:TrackPointExtension>
        </extensions>
      </trkpt>
      <trkpt lat="45.26109955273568630218505859375" lon="-71.13066871650516986846923828125">
        <ele>654.20001220703125</ele>
        <time>2026-08-22T01:54:11.000Z</time>
        <extensions>
          <ns3:TrackPointExtension>
            <ns3:hr>123</ns3:hr>
            <ns3:cad>43</ns3:cad>
          </ns3:TrackPointExtension>
        </extensions>
      </trkpt>
      <trkpt lat="45.2610877342522144317626953125" lon="-71.13067232072353363037109375">
        <ele>654</ele>
        <time>2026-08-22T01:54:12.000Z</time>
        <extensions>
          <ns3:TrackPointExtension>
            <ns3:hr>122</ns3:hr>
            <ns3:cad>43</ns3:cad>
          </ns3:TrackPointExtension>
        </extensions>
      </trkpt>
      <trkpt lat="45.26107742451131343841552734375" lon="-71.13067626021802425384521484375">
        <ele>653.79998779296875</ele>
        <time>2026-08-22T01:54:13.000Z</time>
        <extensions>
          <ns3:TrackPointExtension>
            <ns3:hr>122</ns3:hr>
            <ns3:cad>43</ns3:cad>
          </ns3:TrackPointExtension>
        </extensions>
      </trkpt>
      <trkpt lat="45.2610622532665729522705078125" lon="-71.13067743368446826934814453125">
        <ele>653.79998779296875</ele>
        <time>2026-08-22T01:54:14.000Z</time>
        <extensions>
          <ns3:TrackPointExtension>
            <ns3:hr>121</ns3:hr>
            <ns3:cad>43</ns3:cad>
          </ns3:TrackPointExtension>
        </extensions>
      </trkpt>
      <trkpt lat="45.26104859076440334320068359375" lon="-71.1306734941899776458740234375">
        <ele>653.5999755859375</ele>
        <time>2026-08-22T01:54:15.000Z</time>
        <extensions>
          <ns3:TrackPointExtension>
            <ns3:hr>121</ns3:hr>
            <ns3:cad>68</ns3:cad>
          </ns3:TrackPointExtension>
        </extensions>
      </trkpt>
      <trkpt lat="45.2610330842435359954833984375" lon="-71.1306765116751194000244140625">
        <ele>653.5999755859375</ele>
        <time>2026-08-22T01:54:16.000Z</time>
        <extensions>
          <ns3:TrackPointExtension>
            <ns3:hr>123</ns3:hr>
            <ns3:cad>68</ns3:cad>
          </ns3:TrackPointExtension>
        </extensions>
      </trkpt>
      <trkpt lat="45.2610233612358570098876953125" lon="-71.13068195991218090057373046875">
        <ele>653.79998779296875</ele>
        <time>2026-08-22T01:54:17.000Z</time>
        <extensions>
          <ns3:TrackPointExtension>
            <ns3:hr>123</ns3:hr>
            <ns3:cad>68</ns3:cad>
          </ns3:TrackPointExtension>
        </extensions>
      </trkpt>
      <trkpt lat="45.2610169909894466400146484375" lon="-71.1306838877499103546142578125">
        <ele>653.79998779296875</ele>
        <time>2026-08-22T01:54:18.000Z</time>
        <extensions>
          <ns3:TrackPointExtension>
            <ns3:hr>123</ns3:hr>
            <ns3:cad>68</ns3:cad>
          </ns3:TrackPointExtension>
        </extensions>
      </trkpt>
      <trkpt lat="45.26100911200046539306640625" lon="-71.13068816252052783966064453125">
        <ele>654</ele>
        <time>2026-08-22T01:54:19.000Z</time>
        <extensions>
          <ns3:TrackPointExtension>
            <ns3:hr>122</ns3:hr>
            <ns3:cad>68</ns3:cad>
          </ns3:TrackPointExtension>
        </extensions>
      </trkpt>
      <trkpt lat="45.2609938569366931915283203125" lon="-71.1306956224143505096435546875">
        <ele>654</ele>
        <time>2026-08-22T01:54:20.000Z</time>
        <extensions>
          <ns3:TrackPointExtension>
            <ns3:hr>121</ns3:hr>
            <ns3:cad>68</ns3:cad>
          </ns3:TrackPointExtension>
        </extensions>
      </trkpt>
      <trkpt lat="45.260982625186443328857421875" lon="-71.1306966282427310943603515625">
        <ele>654.20001220703125</ele>
        <time>2026-08-22T01:54:21.000Z</time>
        <extensions>
          <ns3:TrackPointExtension>
            <ns3:hr>120</ns3:hr>
            <ns3:cad>68</ns3:cad>
          </ns3:TrackPointExtension>
        </extensions>
      </trkpt>
      <trkpt lat="45.26098321191966533660888671875" lon="-71.130693443119525909423828125">
        <ele>654.20001220703125</ele>
        <time>2026-08-22T01:54:22.000Z</time>
        <extensions>
          <ns3:TrackPointExtension>
            <ns3:hr>117</ns3:hr>
            <ns3:cad>0</ns3:cad>
          </ns3:TrackPointExtension>
        </extensions>
      </trkpt>
      <trkpt lat="45.26098304428160190582275390625" lon="-71.13068983890116214752197265625">
        <ele>654.20001220703125</ele>
        <time>2026-08-22T01:54:23.000Z</time>
        <extensions>
          <ns3:TrackPointExtension>
            <ns3:hr>115</ns3:hr>
            <ns3:cad>0</ns3:cad>
          </ns3:TrackPointExtension>
        </extensions>
      </trkpt>
      <trkpt lat="45.26097097434103488922119140625" lon="-71.1306858994066715240478515625">
        <ele>654.4000244140625</ele>
        <time>2026-08-22T01:54:24.000Z</time>
        <extensions>
          <ns3:TrackPointExtension>
            <ns3:hr>115</ns3:hr>
            <ns3:cad>0</ns3:cad>
          </ns3:TrackPointExtension>
        </extensions>
      </trkpt>
      <trkpt lat="45.26096284389495849609375" lon="-71.13068707287311553955078125">
        <ele>654.5999755859375</ele>
        <time>2026-08-22T01:54:25.000Z</time>
        <extensions>
          <ns3:TrackPointExtension>
            <ns3:hr>115</ns3:hr>
            <ns3:cad>0</ns3:cad>
          </ns3:TrackPointExtension>
        </extensions>
      </trkpt>
      <trkpt lat="45.26095421053469181060791015625" lon="-71.13069134764373302459716796875">
        <ele>654.5999755859375</ele>
        <time>2026-08-22T01:54:26.000Z</time>
        <extensions>
          <ns3:TrackPointExtension>
            <ns3:hr>117</ns3:hr>
            <ns3:cad>0</ns3:cad>
          </ns3:TrackPointExtension>
        </extensions>
      </trkpt>
      <trkpt lat="45.2609480917453765869140625" lon="-71.13069402985274791717529296875">
        <ele>654.79998779296875</ele>
        <time>2026-08-22T01:54:27.000Z</time>
        <extensions>
          <ns3:TrackPointExtension>
            <ns3:hr>122</ns3:hr>
            <ns3:cad>0</ns3:cad>
          </ns3:TrackPointExtension>
        </extensions>
      </trkpt>
      <trkpt lat="45.2609395422041416168212890625" lon="-71.130694784224033355712890625">
        <ele>654.79998779296875</ele>
        <time>2026-08-22T01:54:28.000Z</time>
        <extensions>
          <ns3:TrackPointExtension>
            <ns3:hr>122</ns3:hr>
            <ns3:cad>0</ns3:cad>
          </ns3:TrackPointExtension>
        </extensions>
      </trkpt>
      <trkpt lat="45.26093141175806522369384765625" lon="-71.1306919343769550323486328125">
        <ele>655</ele>
        <time>2026-08-22T01:54:29.000Z</time>
        <extensions>
          <ns3:TrackPointExtension>
            <ns3:hr>122</ns3:hr>
            <ns3:cad>64</ns3:cad>
          </ns3:TrackPointExtension>
        </extensions>
      </trkpt>
      <trkpt lat="45.2609180845320224761962890625" lon="-71.13068900071084499359130859375">
        <ele>655</ele>
        <time>2026-08-22T01:54:30.000Z</time>
        <extensions>
          <ns3:TrackPointExtension>
            <ns3:hr>122</ns3:hr>
            <ns3:cad>64</ns3:cad>
          </ns3:TrackPointExtension>
        </extensions>
      </trkpt>
      <trkpt lat="45.260903835296630859375" lon="-71.13068799488246440887451171875">
        <ele>655.20001220703125</ele>
        <time>2026-08-22T01:54:31.000Z</time>
        <extensions>
          <ns3:TrackPointExtension>
            <ns3:hr>122</ns3:hr>
            <ns3:cad>64</ns3:cad>
          </ns3:TrackPointExtension>
        </extensions>
      </trkpt>
      <trkpt lat="45.26089536957442760467529296875" lon="-71.1306892521679401397705078125">
        <ele>655.4000244140625</ele>
        <time>2026-08-22T01:54:32.000Z</time>
        <extensions>
          <ns3:TrackPointExtension>
            <ns3:hr>123</ns3:hr>
            <ns3:cad>53</ns3:cad>
          </ns3:TrackPointExtension>
        </extensions>
      </trkpt>
      <trkpt lat="45.26088765822350978851318359375" lon="-71.1306882463395595550537109375">
        <ele>655.5999755859375</ele>
        <time>2026-08-22T01:54:33.000Z</time>
        <extensions>
          <ns3:TrackPointExtension>
            <ns3:hr>123</ns3:hr>
            <ns3:cad>53</ns3:cad>
          </ns3:TrackPointExtension>
        </extensions>
      </trkpt>
      <trkpt lat="45.2608758397400379180908203125" lon="-71.13068975508213043212890625">
        <ele>655.79998779296875</ele>
        <time>2026-08-22T01:54:34.000Z</time>
        <extensions>
          <ns3:TrackPointExtension>
            <ns3:hr>123</ns3:hr>
            <ns3:cad>53</ns3:cad>
          </ns3:TrackPointExtension>
        </extensions>
      </trkpt>
      <trkpt lat="45.26086024940013885498046875" lon="-71.13069419749081134796142578125">
        <ele>656</ele>
        <time>2026-08-22T01:54:35.000Z</time>
        <extensions>
          <ns3:TrackPointExtension>
            <ns3:hr>124</ns3:hr>
            <ns3:cad>53</ns3:cad>
          </ns3:TrackPointExtension>
        </extensions>
      </trkpt>
      <trkpt lat="45.26084574870765209197998046875" lon="-71.130699478089809417724609375">
        <ele>656.20001220703125</ele>
        <time>2026-08-22T01:54:36.000Z</time>
        <extensions>
          <ns3:TrackPointExtension>
            <ns3:hr>124</ns3:hr>
            <ns3:cad>52</ns3:cad>
          </ns3:TrackPointExtension>
        </extensions>
      </trkpt>
      <trkpt lat="45.2608322538435459136962890625" lon="-71.13070358522236347198486328125">
        <ele>656.4000244140625</ele>
        <time>2026-08-22T01:54:37.000Z</time>
        <extensions>
          <ns3:TrackPointExtension>
            <ns3:hr>124</ns3:hr>
            <ns3:cad>52</ns3:cad>
          </ns3:TrackPointExtension>
        </extensions>
      </trkpt>
      <trkpt lat="45.26081892661750316619873046875" lon="-71.13071163184940814971923828125">
        <ele>656.5999755859375</ele>
        <time>2026-08-22T01:54:38.000Z</time>
        <extensions>
          <ns3:TrackPointExtension>
            <ns3:hr>124</ns3:hr>
            <ns3:cad>52</ns3:cad>
          </ns3:TrackPointExtension>
        </extensions>
      </trkpt>
      <trkpt lat="45.2608091197907924652099609375" lon="-71.130715906620025634765625">
        <ele>656.79998779296875</ele>
        <time>2026-08-22T01:54:39.000Z</time>
        <extensions>
          <ns3:TrackPointExtension>
            <ns3:hr>124</ns3:hr>
            <ns3:cad>52</ns3:cad>
          </ns3:TrackPointExtension>
        </extensions>
      </trkpt>
      <trkpt lat="45.2608005702495574951171875" lon="-71.13071599043905735015869140625">
        <ele>657</ele>
        <time>2026-08-22T01:54:40.000Z</time>
        <extensions>
          <ns3:TrackPointExtension>
            <ns3:hr>124</ns3:hr>
            <ns3:cad>52</ns3:cad>
          </ns3:TrackPointExtension>
        </extensions>
      </trkpt>
      <trkpt lat="45.26078707538545131683349609375" lon="-71.13072194159030914306640625">
        <ele>657</ele>
        <time>2026-08-22T01:54:41.000Z</time>
        <extensions>
          <ns3:TrackPointExtension>
            <ns3:hr>125</ns3:hr>
            <ns3:cad>48</ns3:cad>
          </ns3:TrackPointExtension>
        </extensions>
      </trkpt>
      <trkpt lat="45.26077441871166229248046875" lon="-71.130728982388973236083984375">
        <ele>657.20001220703125</ele>
        <time>2026-08-22T01:54:42.000Z</time>
        <extensions>
          <ns3:TrackPointExtension>
            <ns3:hr>125</ns3:hr>
            <ns3:cad>47</ns3:cad>
          </ns3:TrackPointExtension>
        </extensions>
      </trkpt>
      <trkpt lat="45.2607605047523975372314453125" lon="-71.1307368613779544830322265625">
        <ele>657.4000244140625</ele>
        <time>2026-08-22T01:54:43.000Z</time>
        <extensions>
          <ns3:TrackPointExtension>
            <ns3:hr>126</ns3:hr>
            <ns3:cad>47</ns3:cad>
          </ns3:TrackPointExtension>
        </extensions>
      </trkpt>
      <trkpt lat="45.26075455360114574432373046875" lon="-71.130745075643062591552734375">
        <ele>657.5999755859375</ele>
        <time>2026-08-22T01:54:44.000Z</time>
        <extensions>
          <ns3:TrackPointExtension>
            <ns3:hr>126</ns3:hr>
            <ns3:cad>47</ns3:cad>
          </ns3:TrackPointExtension>
        </extensions>
      </trkpt>
      <trkpt lat="45.260744579136371612548828125" lon="-71.13075303845107555389404296875">
        <ele>657.79998779296875</ele>
        <time>2026-08-22T01:54:45.000Z</time>
        <extensions>
          <ns3:TrackPointExtension>
            <ns3:hr>127</ns3:hr>
            <ns3:cad>47</ns3:cad>
          </ns3:TrackPointExtension>
        </extensions>
      </trkpt>
      <trkpt lat="45.26073929853737354278564453125" lon="-71.13076125271618366241455078125">
        <ele>658</ele>
        <time>2026-08-22T01:54:46.000Z</time>
        <extensions>
          <ns3:TrackPointExtension>
            <ns3:hr>128</ns3:hr>
            <ns3:cad>48</ns3:cad>
          </ns3:TrackPointExtension>
        </extensions>
      </trkpt>
      <trkpt lat="45.260732509195804595947265625" lon="-71.13076779060065746307373046875">
        <ele>658.20001220703125</ele>
        <time>2026-08-22T01:54:47.000Z</time>
        <extensions>
          <ns3:TrackPointExtension>
            <ns3:hr>128</ns3:hr>
            <ns3:cad>48</ns3:cad>
          </ns3:TrackPointExtension>
        </extensions>
      </trkpt>
      <trkpt lat="45.26072002016007900238037109375" lon="-71.13077566958963871002197265625">
        <ele>658.4000244140625</ele>
        <time>2026-08-22T01:54:48.000Z</time>
        <extensions>
          <ns3:TrackPointExtension>
            <ns3:hr>128</ns3:hr>
            <ns3:cad>48</ns3:cad>
          </ns3:TrackPointExtension>
        </extensions>
      </trkpt>
      <trkpt lat="45.26071080006659030914306640625" lon="-71.13078690133988857269287109375">
        <ele>658.5999755859375</ele>
        <time>2026-08-22T01:54:49.000Z</time>
        <extensions>
          <ns3:TrackPointExtension>
            <ns3:hr>129</ns3:hr>
            <ns3:cad>48</ns3:cad>
          </ns3:TrackPointExtension>
        </extensions>
      </trkpt>
      <trkpt lat="45.26070157997310161590576171875" lon="-71.1307911761105060577392578125">
        <ele>658.5999755859375</ele>
        <time>2026-08-22T01:54:50.000Z</time>
        <extensions>
          <ns3:TrackPointExtension>
            <ns3:hr>129</ns3:hr>
            <ns3:cad>48</ns3:cad>
          </ns3:TrackPointExtension>
        </extensions>
      </trkpt>
      <trkpt lat="45.26068448089063167572021484375" lon="-71.1307931877672672271728515625">
        <ele>658.79998779296875</ele>
        <time>2026-08-22T01:54:51.000Z</time>
        <extensions>
          <ns3:TrackPointExtension>
            <ns3:hr>129</ns3:hr>
            <ns3:cad>45</ns3:cad>
          </ns3:TrackPointExtension>
        </extensions>
      </trkpt>
      <trkpt lat="45.260671488940715789794921875" lon="-71.13079612143337726593017578125">
        <ele>659</ele>
        <time>2026-08-22T01:54:52.000Z</time>
        <extensions>
          <ns3:TrackPointExtension>
            <ns3:hr>130</ns3:hr>
            <ns3:cad>45</ns3:cad>
          </ns3:TrackPointExtension>
        </extensions>
      </trkpt>
      <trkpt lat="45.26066319085657596588134765625" lon="-71.13080249167978763580322265625">
        <ele>659</ele>
        <time>2026-08-22T01:54:53.000Z</time>
        <extensions>
          <ns3:TrackPointExtension>
            <ns3:hr>130</ns3:hr>
            <ns3:cad>0</ns3:cad>
          </ns3:TrackPointExtension>
        </extensions>
      </trkpt>
      <trkpt lat="45.26065380312502384185791015625" lon="-71.13081305287778377532958984375">
        <ele>659.20001220703125</ele>
        <time>2026-08-22T01:54:54.000Z</time>
        <extensions>
          <ns3:TrackPointExtension>
            <ns3:hr>130</ns3:hr>
            <ns3:cad>0</ns3:cad>
          </ns3:TrackPointExtension>
        </extensions>
      </trkpt>
      <trkpt lat="45.2606401406228542327880859375" lon="-71.13082244060933589935302734375">
        <ele>659.20001220703125</ele>
        <time>2026-08-22T01:54:55.000Z</time>
        <extensions>
          <ns3:TrackPointExtension>
            <ns3:hr>130</ns3:hr>
            <ns3:cad>0</ns3:cad>
          </ns3:TrackPointExtension>
        </extensions>
      </trkpt>
      <trkpt lat="45.26063050143420696258544921875" lon="-71.13083434291183948516845703125">
        <ele>659.20001220703125</ele>
        <time>2026-08-22T01:54:56.000Z</time>
        <extensions>
          <ns3:TrackPointExtension>
            <ns3:hr>131</ns3:hr>
            <ns3:cad>0</ns3:cad>
          </ns3:TrackPointExtension>
        </extensions>
      </trkpt>
      <trkpt lat="45.26062287390232086181640625" lon="-71.130846999585628509521484375">
        <ele>659.20001220703125</ele>
        <time>2026-08-22T01:54:57.000Z</time>
        <extensions>
          <ns3:TrackPointExtension>
            <ns3:hr>130</ns3:hr>
            <ns3:cad>0</ns3:cad>
          </ns3:TrackPointExtension>
        </extensions>
      </trkpt>
      <trkpt lat="45.260613821446895599365234375" lon="-71.130861081182956695556640625">
        <ele>659.20001220703125</ele>
        <time>2026-08-22T01:54:58.000Z</time>
        <extensions>
          <ns3:TrackPointExtension>
            <ns3:hr>130</ns3:hr>
            <ns3:cad>50</ns3:cad>
          </ns3:TrackPointExtension>
        </extensions>
      </trkpt>
      <trkpt lat="45.26060049422085285186767578125" lon="-71.1308656074106693267822265625">
        <ele>659.20001220703125</ele>
        <time>2026-08-22T01:54:59.000Z</time>
        <extensions>
          <ns3:TrackPointExtension>
            <ns3:hr>130</ns3:hr>
            <ns3:cad>50</ns3:cad>
          </ns3:TrackPointExtension>
        </extensions>
      </trkpt>
      <trkpt lat="45.26058733463287353515625" lon="-71.1308706365525722503662109375">
        <ele>659</ele>
        <time>2026-08-22T01:55:00.000Z</time>
        <extensions>
          <ns3:TrackPointExtension>
            <ns3:hr>130</ns3:hr>
            <ns3:cad>50</ns3:cad>
          </ns3:TrackPointExtension>
        </extensions>
      </trkpt>
      <trkpt lat="45.26057719253003597259521484375" lon="-71.130876839160919189453125">
        <ele>659</ele>
        <time>2026-08-22T01:55:01.000Z</time>
        <extensions>
          <ns3:TrackPointExtension>
            <ns3:hr>131</ns3:hr>
            <ns3:cad>50</ns3:cad>
          </ns3:TrackPointExtension>
        </extensions>
      </trkpt>
      <trkpt lat="45.26056981645524501800537109375" lon="-71.130889244377613067626953125">
        <ele>659</ele>
        <time>2026-08-22T01:55:02.000Z</time>
        <extensions>
          <ns3:TrackPointExtension>
            <ns3:hr>130</ns3:hr>
            <ns3:cad>50</ns3:cad>
          </ns3:TrackPointExtension>
        </extensions>
      </trkpt>
      <trkpt lat="45.26056009344756603240966796875" lon="-71.1308994702994823455810546875">
        <ele>659</ele>
        <time>2026-08-22T01:55:03.000Z</time>
        <extensions>
          <ns3:TrackPointExtension>
            <ns3:hr>130</ns3:hr>
            <ns3:cad>0</ns3:cad>
          </ns3:TrackPointExtension>
        </extensions>
      </trkpt>
      <trkpt lat="45.2605522982776165008544921875" lon="-71.130906678736209869384765625">
        <ele>659</ele>
        <time>2026-08-22T01:55:04.000Z</time>
        <extensions>
          <ns3:TrackPointExtension>
            <ns3:hr>129</ns3:hr>
            <ns3:cad>0</ns3:cad>
          </ns3:TrackPointExtension>
        </extensions>
      </trkpt>
      <trkpt lat="45.26054550893604755401611328125" lon="-71.13091296516358852386474609375">
        <ele>659</ele>
        <time>2026-08-22T01:55:05.000Z</time>
        <extensions>
          <ns3:TrackPointExtension>
            <ns3:hr>129</ns3:hr>
            <ns3:cad>53</ns3:cad>
          </ns3:TrackPointExtension>
        </extensions>
      </trkpt>
      <trkpt lat="45.26053997687995433807373046875" lon="-71.130921430885791778564453125">
        <ele>659.20001220703125</ele>
        <time>2026-08-22T01:55:06.000Z</time>
        <extensions>
          <ns3:TrackPointExtension>
            <ns3:hr>129</ns3:hr>
            <ns3:cad>53</ns3:cad>
          </ns3:TrackPointExtension>
        </extensions>
      </trkpt>
      <trkpt lat="45.2605308406054973602294921875" lon="-71.1309333331882953643798828125">
        <ele>659</ele>
        <time>2026-08-22T01:55:07.000Z</time>
        <extensions>
          <ns3:TrackPointExtension>
            <ns3:hr>129</ns3:hr>
            <ns3:cad>53</ns3:cad>
          </ns3:TrackPointExtension>
        </extensions>
      </trkpt>
      <trkpt lat="45.260520614683628082275390625" lon="-71.13094297237694263458251953125">
        <ele>659</ele>
        <time>2026-08-22T01:55:08.000Z</time>
        <extensions>
          <ns3:TrackPointExtension>
            <ns3:hr>129</ns3:hr>
            <ns3:cad>53</ns3:cad>
          </ns3:TrackPointExtension>
        </extensions>
      </trkpt>
      <trkpt lat="45.26050963439047336578369140625" lon="-71.13095202483236789703369140625">
        <ele>659</ele>
        <time>2026-08-22T01:55:09.000Z</time>
        <extensions>
          <ns3:TrackPointExtension>
            <ns3:hr>129</ns3:hr>
            <ns3:cad>53</ns3:cad>
          </ns3:TrackPointExtension>
        </extensions>
      </trkpt>
      <trkpt lat="45.260503180325031280517578125" lon="-71.1309561319649219512939453125">
        <ele>658.79998779296875</ele>
        <time>2026-08-22T01:55:10.000Z</time>
        <extensions>
          <ns3:TrackPointExtension>
            <ns3:hr>129</ns3:hr>
            <ns3:cad>50</ns3:cad>
          </ns3:TrackPointExtension>
        </extensions>
      </trkpt>
      <trkpt lat="45.26048851199448108673095703125" lon="-71.13096761517226696014404296875">
        <ele>658.79998779296875</ele>
        <time>2026-08-22T01:55:11.000Z</time>
        <extensions>
          <ns3:TrackPointExtension>
            <ns3:hr>129</ns3:hr>
            <ns3:cad>50</ns3:cad>
          </ns3:TrackPointExtension>
        </extensions>
      </trkpt>
      <trkpt lat="45.26048331521451473236083984375" lon="-71.13097415305674076080322265625">
        <ele>658.79998779296875</ele>
        <time>2026-08-22T01:55:12.000Z</time>
        <extensions>
          <ns3:TrackPointExtension>
            <ns3:hr>128</ns3:hr>
            <ns3:cad>66</ns3:cad>
          </ns3:TrackPointExtension>
        </extensions>
      </trkpt>
      <trkpt lat="45.2604738436639308929443359375" lon="-71.1309846304357051849365234375">
        <ele>658.79998779296875</ele>
        <time>2026-08-22T01:55:13.000Z</time>
        <extensions>
          <ns3:TrackPointExtension>
            <ns3:hr>128</ns3:hr>
            <ns3:cad>66</ns3:cad>
          </ns3:TrackPointExtension>
        </extensions>
      </trkpt>
      <trkpt lat="45.26046420447528362274169921875" lon="-71.13099326379597187042236328125">
        <ele>659</ele>
        <time>2026-08-22T01:55:14.000Z</time>
        <extensions>
          <ns3:TrackPointExtension>
            <ns3:hr>128</ns3:hr>
            <ns3:cad>66</ns3:cad>
          </ns3:TrackPointExtension>
        </extensions>
      </trkpt>
      <trkpt lat="45.2604580856859683990478515625" lon="-71.13099913112819194793701171875">
        <ele>659</ele>
        <time>2026-08-22T01:55:15.000Z</time>
        <extensions>
          <ns3:TrackPointExtension>
            <ns3:hr>128</ns3:hr>
            <ns3:cad>66</ns3:cad>
          </ns3:TrackPointExtension>
        </extensions>
      </trkpt>
      <trkpt lat="45.2604473568499088287353515625" lon="-71.13100214861333370208740234375">
        <ele>659</ele>
        <time>2026-08-22T01:55:16.000Z</time>
        <extensions>
          <ns3:TrackPointExtension>
            <ns3:hr>128</ns3:hr>
            <ns3:cad>66</ns3:cad>
          </ns3:TrackPointExtension>
        </extensions>
      </trkpt>
      <trkpt lat="45.26044207625091075897216796875" lon="-71.13099929876625537872314453125">
        <ele>659.20001220703125</ele>
        <time>2026-08-22T01:55:17.000Z</time>
        <extensions>
          <ns3:TrackPointExtension>
            <ns3:hr>128</ns3:hr>
            <ns3:cad>66</ns3:cad>
          </ns3:TrackPointExtension>
        </extensions>
      </trkpt>
      <trkpt lat="45.26043654419481754302978515625" lon="-71.13099426962435245513916015625">
        <ele>659.20001220703125</ele>
        <time>2026-08-22T01:55:18.000Z</time>
        <extensions>
          <ns3:TrackPointExtension>
            <ns3:hr>128</ns3:hr>
            <ns3:cad>66</ns3:cad>
          </ns3:TrackPointExtension>
        </extensions>
      </trkpt>
      <trkpt lat="45.2604332752525806427001953125" lon="-71.1309910006821155548095703125">
        <ele>659.4000244140625</ele>
        <time>2026-08-22T01:55:19.000Z</time>
        <extensions>
          <ns3:TrackPointExtension>
            <ns3:hr>128</ns3:hr>
            <ns3:cad>66</ns3:cad>
          </ns3:TrackPointExtension>
        </extensions>
      </trkpt>
      <trkpt lat="45.260422043502330780029296875" lon="-71.130987815558910369873046875">
        <ele>659.5999755859375</ele>
        <time>2026-08-22T01:55:20.000Z</time>
        <extensions>
          <ns3:TrackPointExtension>
            <ns3:hr>127</ns3:hr>
            <ns3:cad>66</ns3:cad>
          </ns3:TrackPointExtension>
        </extensions>
      </trkpt>
      <trkpt lat="45.26041223667562007904052734375" lon="-71.1309933476150035858154296875">
        <ele>659.79998779296875</ele>
        <time>2026-08-22T01:55:21.000Z</time>
        <extensions>
          <ns3:TrackPointExtension>
            <ns3:hr>127</ns3:hr>
            <ns3:cad>66</ns3:cad>
          </ns3:TrackPointExtension>
        </extensions>
      </trkpt>
      <trkpt lat="45.2604034356772899627685546875" lon="-71.13099494017660617828369140625">
        <ele>660</ele>
        <time>2026-08-22T01:55:22.000Z</time>
        <extensions>
          <ns3:TrackPointExtension>
            <ns3:hr>126</ns3:hr>
            <ns3:cad>46</ns3:cad>
          </ns3:TrackPointExtension>
        </extensions>
      </trkpt>
      <trkpt lat="45.26039781980216503143310546875" lon="-71.13099527545273303985595703125">
        <ele>660.20001220703125</ele>
        <time>2026-08-22T01:55:23.000Z</time>
        <extensions>
          <ns3:TrackPointExtension>
            <ns3:hr>126</ns3:hr>
            <ns3:cad>46</ns3:cad>
          </ns3:TrackPointExtension>
        </extensions>
      </trkpt>
      <trkpt lat="45.26039220392704010009765625" lon="-71.13099443726241588592529296875">
        <ele>660.4000244140625</ele>
        <time>2026-08-22T01:55:24.000Z</time>
        <extensions>
          <ns3:TrackPointExtension>
            <ns3:hr>125</ns3:hr>
            <ns3:cad>46</ns3:cad>
          </ns3:TrackPointExtension>
        </extensions>
      </trkpt>
      <trkpt lat="45.260381810367107391357421875" lon="-71.130997203290462493896484375">
        <ele>660.5999755859375</ele>
        <time>2026-08-22T01:55:25.000Z</time>
        <extensions>
          <ns3:TrackPointExtension>
            <ns3:hr>125</ns3:hr>
            <ns3:cad>46</ns3:cad>
          </ns3:TrackPointExtension>
        </extensions>
      </trkpt>
      <trkpt lat="45.26037401519715785980224609375" lon="-71.1310037411749362945556640625">
        <ele>661</ele>
        <time>2026-08-22T01:55:26.000Z</time>
        <extensions>
          <ns3:TrackPointExtension>
            <ns3:hr>125</ns3:hr>
            <ns3:cad>46</ns3:cad>
          </ns3:TrackPointExtension>
        </extensions>
      </trkpt>
      <trkpt lat="45.2603660523891448974609375" lon="-71.1310042440891265869140625">
        <ele>661.20001220703125</ele>
        <time>2026-08-22T01:55:27.000Z</time>
        <extensions>
          <ns3:TrackPointExtension>
            <ns3:hr>126</ns3:hr>
            <ns3:cad>0</ns3:cad>
          </ns3:TrackPointExtension>
        </extensions>
      </trkpt>
      <trkpt lat="45.260356329381465911865234375" lon="-71.1310047470033168792724609375">
        <ele>661.4000244140625</ele>
        <time>2026-08-22T01:55:28.000Z</time>
        <extensions>
          <ns3:TrackPointExtension>
            <ns3:hr>126</ns3:hr>
            <ns3:cad>0</ns3:cad>
          </ns3:TrackPointExtension>
        </extensions>
      </trkpt>
      <trkpt lat="45.26035021059215068817138671875" lon="-71.130999885499477386474609375">
        <ele>661.5999755859375</ele>
        <time>2026-08-22T01:55:29.000Z</time>
        <extensions>
          <ns3:TrackPointExtension>
            <ns3:hr>126</ns3:hr>
            <ns3:cad>0</ns3:cad>
          </ns3:TrackPointExtension>
        </extensions>
      </trkpt>
      <trkpt lat="45.2603434212505817413330078125" lon="-71.131001226603984832763671875">
        <ele>661.5999755859375</ele>
        <time>2026-08-22T01:55:30.000Z</time>
        <extensions>
          <ns3:TrackPointExtension>
            <ns3:hr>126</ns3:hr>
            <ns3:cad>0</ns3:cad>
          </ns3:TrackPointExtension>
        </extensions>
      </trkpt>
      <trkpt lat="45.26033679954707622528076171875" lon="-71.13099678419530391693115234375">
        <ele>661.79998779296875</ele>
        <time>2026-08-22T01:55:31.000Z</time>
        <extensions>
          <ns3:TrackPointExtension>
            <ns3:hr>127</ns3:hr>
            <ns3:cad>0</ns3:cad>
          </ns3:TrackPointExtension>
        </extensions>
      </trkpt>
      <trkpt lat="45.26032875292003154754638671875" lon="-71.13098203204572200775146484375">
        <ele>662</ele>
        <time>2026-08-22T01:55:32.000Z</time>
        <extensions>
          <ns3:TrackPointExtension>
            <ns3:hr>127</ns3:hr>
            <ns3:cad>0</ns3:cad>
          </ns3:TrackPointExtension>
        </extensions>
      </trkpt>
      <trkpt lat="45.26031978428363800048828125" lon="-71.13097080029547214508056640625">
        <ele>662.20001220703125</ele>
        <time>2026-08-22T01:55:33.000Z</time>
        <extensions>
          <ns3:TrackPointExtension>
            <ns3:hr>127</ns3:hr>
            <ns3:cad>0</ns3:cad>
          </ns3:TrackPointExtension>
        </extensions>
      </trkpt>
      <trkpt lat="45.2603125758469104766845703125" lon="-71.13096476532518863677978515625">
        <ele>662.20001220703125</ele>
        <time>2026-08-22T01:55:34.000Z</time>
        <extensions>
          <ns3:TrackPointExtension>
            <ns3:hr>127</ns3:hr>
            <ns3:cad>42</ns3:cad>
          </ns3:TrackPointExtension>
        </extensions>
      </trkpt>
      <trkpt lat="45.26030343957245349884033203125" lon="-71.13095101900398731231689453125">
        <ele>662.4000244140625</ele>
        <time>2026-08-22T01:55:35.000Z</time>
        <extensions>
          <ns3:TrackPointExtension>
            <ns3:hr>128</ns3:hr>
            <ns3:cad>42</ns3:cad>
          </ns3:TrackPointExtension>
        </extensions>
      </trkpt>
      <trkpt lat="45.26029807515442371368408203125" lon="-71.13094649277627468109130859375">
        <ele>662.5999755859375</ele>
        <time>2026-08-22T01:55:36.000Z</time>
        <extensions>
          <ns3:TrackPointExtension>
            <ns3:hr>129</ns3:hr>
            <ns3:cad>42</ns3:cad>
          </ns3:TrackPointExtension>
        </extensions>
      </trkpt>
      <trkpt lat="45.26028617285192012786865234375" lon="-71.130933500826358795166015625">
        <ele>663</ele>
        <time>2026-08-22T01:55:37.000Z</time>
        <extensions>
          <ns3:TrackPointExtension>
            <ns3:hr>129</ns3:hr>
            <ns3:cad>42</ns3:cad>
          </ns3:TrackPointExtension>
        </extensions>
      </trkpt>
      <trkpt lat="45.26027510873973369598388671875" lon="-71.1309184134006500244140625">
        <ele>663.20001220703125</ele>
        <time>2026-08-22T01:55:38.000Z</time>
        <extensions>
          <ns3:TrackPointExtension>
            <ns3:hr>130</ns3:hr>
            <ns3:cad>42</ns3:cad>
          </ns3:TrackPointExtension>
        </extensions>
      </trkpt>
      <trkpt lat="45.2602616138756275177001953125" lon="-71.130916066467761993408203125">
        <ele>663.4000244140625</ele>
        <time>2026-08-22T01:55:39.000Z</time>
        <extensions>
          <ns3:TrackPointExtension>
            <ns3:hr>130</ns3:hr>
            <ns3:cad>42</ns3:cad>
          </ns3:TrackPointExtension>
        </extensions>
      </trkpt>
      <trkpt lat="45.26025415398180484771728515625" lon="-71.1309081874787807464599609375">
        <ele>663.4000244140625</ele>
        <time>2026-08-22T01:55:40.000Z</time>
        <extensions>
          <ns3:TrackPointExtension>
            <ns3:hr>131</ns3:hr>
            <ns3:cad>42</ns3:cad>
          </ns3:TrackPointExtension>
        </extensions>
      </trkpt>
      <trkpt lat="45.26024644263088703155517578125" lon="-71.13089762628078460693359375">
        <ele>663.5999755859375</ele>
        <time>2026-08-22T01:55:41.000Z</time>
        <extensions>
          <ns3:TrackPointExtension>
            <ns3:hr>131</ns3:hr>
            <ns3:cad>42</ns3:cad>
          </ns3:TrackPointExtension>
        </extensions>
      </trkpt>
      <trkpt lat="45.26023571379482746124267578125" lon="-71.13088714890182018280029296875">
        <ele>663.79998779296875</ele>
        <time>2026-08-22T01:55:42.000Z</time>
        <extensions>
          <ns3:TrackPointExtension>
            <ns3:hr>132</ns3:hr>
            <ns3:cad>42</ns3:cad>
          </ns3:TrackPointExtension>
        </extensions>
      </trkpt>
      <trkpt lat="45.2602243982255458831787109375" lon="-71.13088211975991725921630859375">
        <ele>663.79998779296875</ele>
        <time>2026-08-22T01:55:43.000Z</time>
        <extensions>
          <ns3:TrackPointExtension>
            <ns3:hr>132</ns3:hr>
            <ns3:cad>42</ns3:cad>
          </ns3:TrackPointExtension>
        </extensions>
      </trkpt>
      <trkpt lat="45.2602180279791355133056640625" lon="-71.13087910227477550506591796875">
        <ele>664</ele>
        <time>2026-08-22T01:55:44.000Z</time>
        <extensions>
          <ns3:TrackPointExtension>
            <ns3:hr>132</ns3:hr>
            <ns3:cad>42</ns3:cad>
          </ns3:TrackPointExtension>
        </extensions>
      </trkpt>
      <trkpt lat="45.26020939461886882781982421875" lon="-71.13087843172252178192138671875">
        <ele>664.20001220703125</ele>
        <time>2026-08-22T01:55:45.000Z</time>
        <extensions>
          <ns3:TrackPointExtension>
            <ns3:hr>132</ns3:hr>
            <ns3:cad>42</ns3:cad>
          </ns3:TrackPointExtension>
        </extensions>
      </trkpt>
      <trkpt lat="45.26019380427896976470947265625" lon="-71.13087792880833148956298828125">
        <ele>664.20001220703125</ele>
        <time>2026-08-22T01:55:46.000Z</time>
        <extensions>
          <ns3:TrackPointExtension>
            <ns3:hr>133</ns3:hr>
            <ns3:cad>42</ns3:cad>
          </ns3:TrackPointExtension>
        </extensions>
      </trkpt>
      <trkpt lat="45.2601808123290538787841796875" lon="-71.13088413141667842864990234375">
        <ele>664.20001220703125</ele>
        <time>2026-08-22T01:55:47.000Z</time>
        <extensions>
          <ns3:TrackPointExtension>
            <ns3:hr>132</ns3:hr>
            <ns3:cad>42</ns3:cad>
          </ns3:TrackPointExtension>
        </extensions>
      </trkpt>
      <trkpt lat="45.2601684071123600006103515625" lon="-71.1308835446834564208984375">
        <ele>664.4000244140625</ele>
        <time>2026-08-22T01:55:48.000Z</time>
        <extensions>
          <ns3:TrackPointExtension>
            <ns3:hr>132</ns3:hr>
            <ns3:cad>61</ns3:cad>
          </ns3:TrackPointExtension>
        </extensions>
      </trkpt>
      <trkpt lat="45.2601590193808078765869140625" lon="-71.130873151123523712158203125">
        <ele>664.4000244140625</ele>
        <time>2026-08-22T01:55:49.000Z</time>
        <extensions>
          <ns3:TrackPointExtension>
            <ns3:hr>133</ns3:hr>
            <ns3:cad>0</ns3:cad>
          </ns3:TrackPointExtension>
        </extensions>
      </trkpt>
      <trkpt lat="45.2601596899330615997314453125" lon="-71.13087373785674571990966796875">
        <ele>664.5999755859375</ele>
        <time>2026-08-22T01:55:50.000Z</time>
        <extensions>
          <ns3:TrackPointExtension>
            <ns3:hr>132</ns3:hr>
            <ns3:cad>0</ns3:cad>
          </ns3:TrackPointExtension>
        </extensions>
      </trkpt>
      <trkpt lat="45.260155498981475830078125" lon="-71.130863092839717864990234375">
        <ele>664.5999755859375</ele>
        <time>2026-08-22T01:55:51.000Z</time>
        <extensions>
          <ns3:TrackPointExtension>
            <ns3:hr>132</ns3:hr>
            <ns3:cad>0</ns3:cad>
          </ns3:TrackPointExtension>
        </extensions>
      </trkpt>
      <trkpt lat="45.2601526491343975067138671875" lon="-71.130859069526195526123046875">
        <ele>664.79998779296875</ele>
        <time>2026-08-22T01:55:52.000Z</time>
        <extensions>
          <ns3:TrackPointExtension>
            <ns3:hr>133</ns3:hr>
            <ns3:cad>0</ns3:cad>
          </ns3:TrackPointExtension>
        </extensions>
      </trkpt>
      <trkpt lat="45.26015005074441432952880859375" lon="-71.13085177727043628692626953125">
        <ele>665</ele>
        <time>2026-08-22T01:55:53.000Z</time>
        <extensions>
          <ns3:TrackPointExtension>
            <ns3:hr>132</ns3:hr>
            <ns3:cad>0</ns3:cad>
          </ns3:TrackPointExtension>
        </extensions>
      </trkpt>
      <trkpt lat="45.2601476199924945831298828125" lon="-71.13084339536726474761962890625">
        <ele>665.20001220703125</ele>
        <time>2026-08-22T01:55:54.000Z</time>
        <extensions>
          <ns3:TrackPointExtension>
            <ns3:hr>132</ns3:hr>
            <ns3:cad>0</ns3:cad>
          </ns3:TrackPointExtension>
        </extensions>
      </trkpt>
      <trkpt lat="45.2601429261267185211181640625" lon="-71.13083568401634693145751953125">
        <ele>665.4000244140625</ele>
        <time>2026-08-22T01:55:55.000Z</time>
        <extensions>
          <ns3:TrackPointExtension>
            <ns3:hr>132</ns3:hr>
            <ns3:cad>0</ns3:cad>
          </ns3:TrackPointExtension>
        </extensions>
      </trkpt>
      <trkpt lat="45.2601368911564350128173828125" lon="-71.13082864321768283843994140625">
        <ele>665.5999755859375</ele>
        <time>2026-08-22T01:55:56.000Z</time>
        <extensions>
          <ns3:TrackPointExtension>
            <ns3:hr>132</ns3:hr>
            <ns3:cad>0</ns3:cad>
          </ns3:TrackPointExtension>
        </extensions>
      </trkpt>
      <trkpt lat="45.26013311930000782012939453125" lon="-71.13082713447511196136474609375">
        <ele>665.79998779296875</ele>
        <time>2026-08-22T01:55:57.000Z</time>
        <extensions>
          <ns3:TrackPointExtension>
            <ns3:hr>131</ns3:hr>
            <ns3:cad>0</ns3:cad>
          </ns3:TrackPointExtension>
        </extensions>
      </trkpt>
      <trkpt lat="45.2601301856338977813720703125" lon="-71.13081892021000385284423828125">
        <ele>666</ele>
        <time>2026-08-22T01:55:58.000Z</time>
        <extensions>
          <ns3:TrackPointExtension>
            <ns3:hr>131</ns3:hr>
            <ns3:cad>0</ns3:cad>
          </ns3:TrackPointExtension>
        </extensions>
      </trkpt>
      <trkpt lat="45.26011987589299678802490234375" lon="-71.13080819137394428253173828125">
        <ele>666.20001220703125</ele>
        <time>2026-08-22T01:55:59.000Z</time>
        <extensions>
          <ns3:TrackPointExtension>
            <ns3:hr>130</ns3:hr>
            <ns3:cad>0</ns3:cad>
          </ns3:TrackPointExtension>
        </extensions>
      </trkpt>
      <trkpt lat="45.26011618785560131072998046875" lon="-71.130800060927867889404296875">
        <ele>666.4000244140625</ele>
        <time>2026-08-22T01:56:00.000Z</time>
        <extensions>
          <ns3:TrackPointExtension>
            <ns3:hr>130</ns3:hr>
            <ns3:cad>0</ns3:cad>
          </ns3:TrackPointExtension>
        </extensions>
      </trkpt>
      <trkpt lat="45.26011132635176181793212890625" lon="-71.1307972110807895660400390625">
        <ele>666.5999755859375</ele>
        <time>2026-08-22T01:56:01.000Z</time>
        <extensions>
          <ns3:TrackPointExtension>
            <ns3:hr>130</ns3:hr>
            <ns3:cad>0</ns3:cad>
          </ns3:TrackPointExtension>
        </extensions>
      </trkpt>
      <trkpt lat="45.260100848972797393798828125" lon="-71.13078639842569828033447265625">
        <ele>666.79998779296875</ele>
        <time>2026-08-22T01:56:02.000Z</time>
        <extensions>
          <ns3:TrackPointExtension>
            <ns3:hr>131</ns3:hr>
            <ns3:cad>0</ns3:cad>
          </ns3:TrackPointExtension>
        </extensions>
      </trkpt>
      <trkpt lat="45.26009422726929187774658203125" lon="-71.1307827942073345184326171875">
        <ele>666.79998779296875</ele>
        <time>2026-08-22T01:56:03.000Z</time>
        <extensions>
          <ns3:TrackPointExtension>
            <ns3:hr>131</ns3:hr>
            <ns3:cad>0</ns3:cad>
          </ns3:TrackPointExtension>
        </extensions>
      </trkpt>
      <trkpt lat="45.26008785702288150787353515625" lon="-71.1307817883789539337158203125">
        <ele>667</ele>
        <time>2026-08-22T01:56:04.000Z</time>
        <extensions>
          <ns3:TrackPointExtension>
            <ns3:hr>131</ns3:hr>
            <ns3:cad>0</ns3:cad>
          </ns3:TrackPointExtension>
        </extensions>
      </trkpt>
      <trkpt lat="45.26007763110101222991943359375" lon="-71.13078187219798564910888671875">
        <ele>667.20001220703125</ele>
        <time>2026-08-22T01:56:05.000Z</time>
        <extensions>
          <ns3:TrackPointExtension>
            <ns3:hr>131</ns3:hr>
            <ns3:cad>0</ns3:cad>
          </ns3:TrackPointExtension>
        </extensions>
      </trkpt>
      <trkpt lat="45.260069333016872406005859375" lon="-71.130777932703495025634765625">
        <ele>667.4000244140625</ele>
        <time>2026-08-22T01:56:06.000Z</time>
        <extensions>
          <ns3:TrackPointExtension>
            <ns3:hr>132</ns3:hr>
            <ns3:cad>0</ns3:cad>
          </ns3:TrackPointExtension>
        </extensions>
      </trkpt>
      <trkpt lat="45.26006162166595458984375" lon="-71.1307713948190212249755859375">
        <ele>667.5999755859375</ele>
        <time>2026-08-22T01:56:07.000Z</time>
        <extensions>
          <ns3:TrackPointExtension>
            <ns3:hr>132</ns3:hr>
            <ns3:cad>0</ns3:cad>
          </ns3:TrackPointExtension>
        </extensions>
      </trkpt>
      <trkpt lat="45.26005231775343418121337890625" lon="-71.13076996989548206329345703125">
        <ele>667.5999755859375</ele>
        <time>2026-08-22T01:56:08.000Z</time>
        <extensions>
          <ns3:TrackPointExtension>
            <ns3:hr>132</ns3:hr>
            <ns3:cad>0</ns3:cad>
          </ns3:TrackPointExtension>
        </extensions>
      </trkpt>
      <trkpt lat="45.2600446902215480804443359375" lon="-71.13077097572386264801025390625">
        <ele>667.79998779296875</ele>
        <time>2026-08-22T01:56:09.000Z</time>
        <extensions>
          <ns3:TrackPointExtension>
            <ns3:hr>132</ns3:hr>
            <ns3:cad>0</ns3:cad>
          </ns3:TrackPointExtension>
        </extensions>
      </trkpt>
      <trkpt lat="45.26003412902355194091796875" lon="-71.13076779060065746307373046875">
        <ele>668</ele>
        <time>2026-08-22T01:56:10.000Z</time>
        <extensions>
          <ns3:TrackPointExtension>
            <ns3:hr>132</ns3:hr>
            <ns3:cad>0</ns3:cad>
          </ns3:TrackPointExtension>
        </extensions>
      </trkpt>
      <trkpt lat="45.2600255794823169708251953125" lon="-71.130765862762928009033203125">
        <ele>668.20001220703125</ele>
        <time>2026-08-22T01:56:11.000Z</time>
        <extensions>
          <ns3:TrackPointExtension>
            <ns3:hr>131</ns3:hr>
            <ns3:cad>86</ns3:cad>
          </ns3:TrackPointExtension>
        </extensions>
      </trkpt>
      <trkpt lat="45.26001937687397003173828125" lon="-71.13076762296259403228759765625">
        <ele>668.4000244140625</ele>
        <time>2026-08-22T01:56:12.000Z</time>
        <extensions>
          <ns3:TrackPointExtension>
            <ns3:hr>131</ns3:hr>
            <ns3:cad>86</ns3:cad>
          </ns3:TrackPointExtension>
        </extensions>
      </trkpt>
      <trkpt lat="45.26001510210335254669189453125" lon="-71.13076477311551570892333984375">
        <ele>668.5999755859375</ele>
        <time>2026-08-22T01:56:13.000Z</time>
        <extensions>
          <ns3:TrackPointExtension>
            <ns3:hr>131</ns3:hr>
            <ns3:cad>0</ns3:cad>
          </ns3:TrackPointExtension>
        </extensions>
      </trkpt>
      <trkpt lat="45.2600141800940036773681640625" lon="-71.13076443783938884735107421875">
        <ele>668.79998779296875</ele>
        <time>2026-08-22T01:56:14.000Z</time>
        <extensions>
          <ns3:TrackPointExtension>
            <ns3:hr>132</ns3:hr>
            <ns3:cad>0</ns3:cad>
          </ns3:TrackPointExtension>
        </extensions>
      </trkpt>
      <trkpt lat="45.2600061334669589996337890625" lon="-71.13075102679431438446044921875">
        <ele>669</ele>
        <time>2026-08-22T01:56:15.000Z</time>
        <extensions>
          <ns3:TrackPointExtension>
            <ns3:hr>132</ns3:hr>
            <ns3:cad>0</ns3:cad>
          </ns3:TrackPointExtension>
        </extensions>
      </trkpt>
      <trkpt lat="45.25999967940151691436767578125" lon="-71.13074381835758686065673828125">
        <ele>669.20001220703125</ele>
        <time>2026-08-22T01:56:16.000Z</time>
        <extensions>
          <ns3:TrackPointExtension>
            <ns3:hr>132</ns3:hr>
            <ns3:cad>0</ns3:cad>
          </ns3:TrackPointExtension>
        </extensions>
      </trkpt>
      <trkpt lat="45.259990878403186798095703125" lon="-71.13074247725307941436767578125">
        <ele>669.4000244140625</ele>
        <time>2026-08-22T01:56:17.000Z</time>
        <extensions>
          <ns3:TrackPointExtension>
            <ns3:hr>132</ns3:hr>
            <ns3:cad>0</ns3:cad>
          </ns3:TrackPointExtension>
        </extensions>
      </trkpt>
      <trkpt lat="45.25997671298682689666748046875" lon="-71.13073912449181079864501953125">
        <ele>669.5999755859375</ele>
        <time>2026-08-22T01:56:18.000Z</time>
        <extensions>
          <ns3:TrackPointExtension>
            <ns3:hr>132</ns3:hr>
            <ns3:cad>0</ns3:cad>
          </ns3:TrackPointExtension>
        </extensions>
      </trkpt>
      <trkpt lat="45.2599669061601161956787109375" lon="-71.1307325027883052825927734375">
        <ele>669.79998779296875</ele>
        <time>2026-08-22T01:56:19.000Z</time>
        <extensions>
          <ns3:TrackPointExtension>
            <ns3:hr>132</ns3:hr>
            <ns3:cad>0</ns3:cad>
          </ns3:TrackPointExtension>
        </extensions>
      </trkpt>
      <trkpt lat="45.259960032999515533447265625" lon="-71.13072604872286319732666015625">
        <ele>669.79998779296875</ele>
        <time>2026-08-22T01:56:20.000Z</time>
        <extensions>
          <ns3:TrackPointExtension>
            <ns3:hr>133</ns3:hr>
            <ns3:cad>0</ns3:cad>
          </ns3:TrackPointExtension>
        </extensions>
      </trkpt>
      <trkpt lat="45.259957015514373779296875" lon="-71.130718253552913665771484375">
        <ele>670</ele>
        <time>2026-08-22T01:56:21.000Z</time>
        <extensions>
          <ns3:TrackPointExtension>
            <ns3:hr>133</ns3:hr>
            <ns3:cad>0</ns3:cad>
          </ns3:TrackPointExtension>
        </extensions>
      </trkpt>
      <trkpt lat="45.25994360446929931640625" lon="-71.1307147331535816192626953125">
        <ele>670.20001220703125</ele>
        <time>2026-08-22T01:56:22.000Z</time>
        <extensions>
          <ns3:TrackPointExtension>
            <ns3:hr>133</ns3:hr>
            <ns3:cad>0</ns3:cad>
          </ns3:TrackPointExtension>
        </extensions>
      </trkpt>
      <trkpt lat="45.25992709212005138397216796875" lon="-71.13070894964039325714111328125">
        <ele>670.4000244140625</ele>
        <time>2026-08-22T01:56:23.000Z</time>
        <extensions>
          <ns3:TrackPointExtension>
            <ns3:hr>133</ns3:hr>
            <ns3:cad>0</ns3:cad>
          </ns3:TrackPointExtension>
        </extensions>
      </trkpt>
      <trkpt lat="45.2599127590656280517578125" lon="-71.1306983046233654022216796875">
        <ele>670.4000244140625</ele>
        <time>2026-08-22T01:56:24.000Z</time>
        <extensions>
          <ns3:TrackPointExtension>
            <ns3:hr>134</ns3:hr>
            <ns3:cad>0</ns3:cad>
          </ns3:TrackPointExtension>
        </extensions>
      </trkpt>
      <trkpt lat="45.2598985098302364349365234375" lon="-71.1306922696530818939208984375">
        <ele>670.4000244140625</ele>
        <time>2026-08-22T01:56:25.000Z</time>
        <extensions>
          <ns3:TrackPointExtension>
            <ns3:hr>133</ns3:hr>
            <ns3:cad>0</ns3:cad>
          </ns3:TrackPointExtension>
        </extensions>
      </trkpt>
      <trkpt lat="45.2598867751657962799072265625" lon="-71.13068698905408382415771484375">
        <ele>670.5999755859375</ele>
        <time>2026-08-22T01:56:26.000Z</time>
        <extensions>
          <ns3:TrackPointExtension>
            <ns3:hr>134</ns3:hr>
            <ns3:cad>0</ns3:cad>
          </ns3:TrackPointExtension>
        </extensions>
      </trkpt>
      <trkpt lat="45.25987361557781696319580078125" lon="-71.13068179227411746978759765625">
        <ele>670.5999755859375</ele>
        <time>2026-08-22T01:56:27.000Z</time>
        <extensions>
          <ns3:TrackPointExtension>
            <ns3:hr>134</ns3:hr>
            <ns3:cad>0</ns3:cad>
          </ns3:TrackPointExtension>
        </extensions>
      </trkpt>
      <trkpt lat="45.25985844433307647705078125" lon="-71.13067626021802425384521484375">
        <ele>670.79998779296875</ele>
        <time>2026-08-22T01:56:28.000Z</time>
        <extensions>
          <ns3:TrackPointExtension>
            <ns3:hr>134</ns3:hr>
            <ns3:cad>0</ns3:cad>
          </ns3:TrackPointExtension>
        </extensions>
      </trkpt>
      <trkpt lat="45.25984637439250946044921875" lon="-71.13067341037094593048095703125">
        <ele>670.79998779296875</ele>
        <time>2026-08-22T01:56:29.000Z</time>
        <extensions>
          <ns3:TrackPointExtension>
            <ns3:hr>134</ns3:hr>
            <ns3:cad>50</ns3:cad>
          </ns3:TrackPointExtension>
        </extensions>
      </trkpt>
      <trkpt lat="45.25983162224292755126953125" lon="-71.1306708119809627532958984375">
        <ele>671</ele>
        <time>2026-08-22T01:56:30.000Z</time>
        <extensions>
          <ns3:TrackPointExtension>
            <ns3:hr>134</ns3:hr>
            <ns3:cad>50</ns3:cad>
          </ns3:TrackPointExtension>
        </extensions>
      </trkpt>
      <trkpt lat="45.25981946848332881927490234375" lon="-71.13066695630550384521484375">
        <ele>671.20001220703125</ele>
        <time>2026-08-22T01:56:31.000Z</time>
        <extensions>
          <ns3:TrackPointExtension>
            <ns3:hr>134</ns3:hr>
            <ns3:cad>50</ns3:cad>
          </ns3:TrackPointExtension>
        </extensions>
      </trkpt>
      <trkpt lat="45.25980756618082523345947265625" lon="-71.13066452555358409881591796875">
        <ele>671.20001220703125</ele>
        <time>2026-08-22T01:56:32.000Z</time>
        <extensions>
          <ns3:TrackPointExtension>
            <ns3:hr>134</ns3:hr>
            <ns3:cad>51</ns3:cad>
          </ns3:TrackPointExtension>
        </extensions>
      </trkpt>
      <trkpt lat="45.25979281403124332427978515625" lon="-71.13066905178129673004150390625">
        <ele>671.4000244140625</ele>
        <time>2026-08-22T01:56:33.000Z</time>
        <extensions>
          <ns3:TrackPointExtension>
            <ns3:hr>135</ns3:hr>
            <ns3:cad>51</ns3:cad>
          </ns3:TrackPointExtension>
        </extensions>
      </trkpt>
      <trkpt lat="45.2597804926335811614990234375" lon="-71.13067324273288249969482421875">
        <ele>671.4000244140625</ele>
        <time>2026-08-22T01:56:34.000Z</time>
        <extensions>
          <ns3:TrackPointExtension>
            <ns3:hr>134</ns3:hr>
            <ns3:cad>50</ns3:cad>
          </ns3:TrackPointExtension>
        </extensions>
      </trkpt>
      <trkpt lat="45.2597640641033649444580078125" lon="-71.13067793659865856170654296875">
        <ele>671.5999755859375</ele>
        <time>2026-08-22T01:56:35.000Z</time>
        <extensions>
          <ns3:TrackPointExtension>
            <ns3:hr>134</ns3:hr>
            <ns3:cad>50</ns3:cad>
          </ns3:TrackPointExtension>
        </extensions>
      </trkpt>
      <trkpt lat="45.2597509883344173431396484375" lon="-71.1306822113692760467529296875">
        <ele>671.5999755859375</ele>
        <time>2026-08-22T01:56:36.000Z</time>
        <extensions>
          <ns3:TrackPointExtension>
            <ns3:hr>134</ns3:hr>
            <ns3:cad>48</ns3:cad>
          </ns3:TrackPointExtension>
        </extensions>
      </trkpt>
      <trkpt lat="45.25973916985094547271728515625" lon="-71.1306823790073394775390625">
        <ele>671.5999755859375</ele>
        <time>2026-08-22T01:56:37.000Z</time>
        <extensions>
          <ns3:TrackPointExtension>
            <ns3:hr>134</ns3:hr>
            <ns3:cad>48</ns3:cad>
          </ns3:TrackPointExtension>
        </extensions>
      </trkpt>
      <trkpt lat="45.25972835719585418701171875" lon="-71.130682714283466339111328125">
        <ele>671.79998779296875</ele>
        <time>2026-08-22T01:56:38.000Z</time>
        <extensions>
          <ns3:TrackPointExtension>
            <ns3:hr>135</ns3:hr>
            <ns3:cad>48</ns3:cad>
          </ns3:TrackPointExtension>
        </extensions>
      </trkpt>
      <trkpt lat="45.25971989147365093231201171875" lon="-71.13068061880767345428466796875">
        <ele>671.79998779296875</ele>
        <time>2026-08-22T01:56:39.000Z</time>
        <extensions>
          <ns3:TrackPointExtension>
            <ns3:hr>134</ns3:hr>
            <ns3:cad>51</ns3:cad>
          </ns3:TrackPointExtension>
        </extensions>
      </trkpt>
      <trkpt lat="45.2597114257514476776123046875" lon="-71.13067458383738994598388671875">
        <ele>672</ele>
        <time>2026-08-22T01:56:40.000Z</time>
        <extensions>
          <ns3:TrackPointExtension>
            <ns3:hr>134</ns3:hr>
            <ns3:cad>51</ns3:cad>
          </ns3:TrackPointExtension>
        </extensions>
      </trkpt>
      <trkpt lat="45.2597033791244029998779296875" lon="-71.13067190162837505340576171875">
        <ele>672</ele>
        <time>2026-08-22T01:56:41.000Z</time>
        <extensions>
          <ns3:TrackPointExtension>
            <ns3:hr>134</ns3:hr>
            <ns3:cad>51</ns3:cad>
          </ns3:TrackPointExtension>
        </extensions>
      </trkpt>
      <trkpt lat="45.2596980147063732147216796875" lon="-71.13066720776259899139404296875">
        <ele>672.20001220703125</ele>
        <time>2026-08-22T01:56:42.000Z</time>
        <extensions>
          <ns3:TrackPointExtension>
            <ns3:hr>135</ns3:hr>
            <ns3:cad>51</ns3:cad>
          </ns3:TrackPointExtension>
        </extensions>
      </trkpt>
      <trkpt lat="45.25969675742089748382568359375" lon="-71.13066502846777439117431640625">
        <ele>672.4000244140625</ele>
        <time>2026-08-22T01:56:43.000Z</time>
        <extensions>
          <ns3:TrackPointExtension>
            <ns3:hr>134</ns3:hr>
            <ns3:cad>51</ns3:cad>
          </ns3:TrackPointExtension>
        </extensions>
      </trkpt>
      <trkpt lat="45.25969021953642368316650390625" lon="-71.130661256611347198486328125">
        <ele>672.5999755859375</ele>
        <time>2026-08-22T01:56:44.000Z</time>
        <extensions>
          <ns3:TrackPointExtension>
            <ns3:hr>134</ns3:hr>
            <ns3:cad>49</ns3:cad>
          </ns3:TrackPointExtension>
        </extensions>
      </trkpt>
      <trkpt lat="45.2596794068813323974609375" lon="-71.13065890967845916748046875">
        <ele>673</ele>
        <time>2026-08-22T01:56:45.000Z</time>
        <extensions>
          <ns3:TrackPointExtension>
            <ns3:hr>134</ns3:hr>
            <ns3:cad>49</ns3:cad>
          </ns3:TrackPointExtension>
        </extensions>
      </trkpt>
      <trkpt lat="45.25967027060687541961669921875" lon="-71.13065488636493682861328125">
        <ele>673.20001220703125</ele>
        <time>2026-08-22T01:56:46.000Z</time>
        <extensions>
          <ns3:TrackPointExtension>
            <ns3:hr>134</ns3:hr>
            <ns3:cad>49</ns3:cad>
          </ns3:TrackPointExtension>
        </extensions>
      </trkpt>
      <trkpt lat="45.259662307798862457275390625" lon="-71.13064491190016269683837890625">
        <ele>673.4000244140625</ele>
        <time>2026-08-22T01:56:47.000Z</time>
        <extensions>
          <ns3:TrackPointExtension>
            <ns3:hr>135</ns3:hr>
            <ns3:cad>49</ns3:cad>
          </ns3:TrackPointExtension>
        </extensions>
      </trkpt>
      <trkpt lat="45.25966205634176731109619140625" lon="-71.13064189441502094268798828125">
        <ele>673.5999755859375</ele>
        <time>2026-08-22T01:56:48.000Z</time>
        <extensions>
          <ns3:TrackPointExtension>
            <ns3:hr>134</ns3:hr>
            <ns3:cad>48</ns3:cad>
          </ns3:TrackPointExtension>
        </extensions>
      </trkpt>
      <trkpt lat="45.25966071523725986480712890625" lon="-71.130634434521198272705078125">
        <ele>673.79998779296875</ele>
        <time>2026-08-22T01:56:49.000Z</time>
        <extensions>
          <ns3:TrackPointExtension>
            <ns3:hr>135</ns3:hr>
            <ns3:cad>48</ns3:cad>
          </ns3:TrackPointExtension>
        </extensions>
      </trkpt>
      <trkpt lat="45.25966356508433818817138671875" lon="-71.13063116557896137237548828125">
        <ele>674</ele>
        <time>2026-08-22T01:56:50.000Z</time>
        <extensions>
          <ns3:TrackPointExtension>
            <ns3:hr>135</ns3:hr>
            <ns3:cad>48</ns3:cad>
          </ns3:TrackPointExtension>
        </extensions>
      </trkpt>
      <trkpt lat="45.2596614696085453033447265625" lon="-71.13062043674290180206298828125">
        <ele>674.20001220703125</ele>
        <time>2026-08-22T01:56:51.000Z</time>
        <extensions>
          <ns3:TrackPointExtension>
            <ns3:hr>136</ns3:hr>
            <ns3:cad>52</ns3:cad>
          </ns3:TrackPointExtension>
        </extensions>
      </trkpt>
      <trkpt lat="45.2596587873995304107666015625" lon="-71.13061842508614063262939453125">
        <ele>674.4000244140625</ele>
        <time>2026-08-22T01:56:52.000Z</time>
        <extensions>
          <ns3:TrackPointExtension>
            <ns3:hr>136</ns3:hr>
            <ns3:cad>52</ns3:cad>
          </ns3:TrackPointExtension>
        </extensions>
      </trkpt>
      <trkpt lat="45.25965635664761066436767578125" lon="-71.130610294640064239501953125">
        <ele>674.5999755859375</ele>
        <time>2026-08-22T01:56:53.000Z</time>
        <extensions>
          <ns3:TrackPointExtension>
            <ns3:hr>135</ns3:hr>
            <ns3:cad>16</ns3:cad>
          </ns3:TrackPointExtension>
        </extensions>
      </trkpt>
      <trkpt lat="45.25965392589569091796875" lon="-71.1306027509272098541259765625">
        <ele>674.79998779296875</ele>
        <time>2026-08-22T01:56:54.000Z</time>
        <extensions>
          <ns3:TrackPointExtension>
            <ns3:hr>135</ns3:hr>
            <ns3:cad>16</ns3:cad>
          </ns3:TrackPointExtension>
        </extensions>
      </trkpt>
      <trkpt lat="45.25965166278183460235595703125" lon="-71.13059814088046550750732421875">
        <ele>674.79998779296875</ele>
        <time>2026-08-22T01:56:55.000Z</time>
        <extensions>
          <ns3:TrackPointExtension>
            <ns3:hr>134</ns3:hr>
            <ns3:cad>16</ns3:cad>
          </ns3:TrackPointExtension>
        </extensions>
      </trkpt>
      <trkpt lat="45.25964847765862941741943359375" lon="-71.13058657385408878326416015625">
        <ele>675</ele>
        <time>2026-08-22T01:56:56.000Z</time>
        <extensions>
          <ns3:TrackPointExtension>
            <ns3:hr>135</ns3:hr>
            <ns3:cad>65</ns3:cad>
          </ns3:TrackPointExtension>
        </extensions>
      </trkpt>
      <trkpt lat="45.25964696891605854034423828125" lon="-71.13058540038764476776123046875">
        <ele>675.20001220703125</ele>
        <time>2026-08-22T01:56:57.000Z</time>
        <extensions>
          <ns3:TrackPointExtension>
            <ns3:hr>135</ns3:hr>
            <ns3:cad>65</ns3:cad>
          </ns3:TrackPointExtension>
        </extensions>
      </trkpt>
      <trkpt lat="45.25964663363993167877197265625" lon="-71.13058456219732761383056640625">
        <ele>675.4000244140625</ele>
        <time>2026-08-22T01:56:58.000Z</time>
        <extensions>
          <ns3:TrackPointExtension>
            <ns3:hr>136</ns3:hr>
            <ns3:cad>0</ns3:cad>
          </ns3:TrackPointExtension>
        </extensions>
      </trkpt>
      <trkpt lat="45.25964261032640933990478515625" lon="-71.13057282753288745880126953125">
        <ele>675.4000244140625</ele>
        <time>2026-08-22T01:56:59.000Z</time>
        <extensions>
          <ns3:TrackPointExtension>
            <ns3:hr>136</ns3:hr>
            <ns3:cad>0</ns3:cad>
          </ns3:TrackPointExtension>
        </extensions>
      </trkpt>
      <trkpt lat="45.2596413530409336090087890625" lon="-71.130570061504840850830078125">
        <ele>675.5999755859375</ele>
        <time>2026-08-22T01:57:00.000Z</time>
        <extensions>
          <ns3:TrackPointExtension>
            <ns3:hr>136</ns3:hr>
            <ns3:cad>0</ns3:cad>
          </ns3:TrackPointExtension>
        </extensions>
      </trkpt>
      <trkpt lat="45.2596393413841724395751953125" lon="-71.13056310452520847320556640625">
        <ele>675.5999755859375</ele>
        <time>2026-08-22T01:57:01.000Z</time>
        <extensions>
          <ns3:TrackPointExtension>
            <ns3:hr>136</ns3:hr>
            <ns3:cad>0</ns3:cad>
          </ns3:TrackPointExtension>
        </extensions>
      </trkpt>
      <trkpt lat="45.2596349827945232391357421875" lon="-71.1305504478514194488525390625">
        <ele>675.79998779296875</ele>
        <time>2026-08-22T01:57:02.000Z</time>
        <extensions>
          <ns3:TrackPointExtension>
            <ns3:hr>136</ns3:hr>
            <ns3:cad>0</ns3:cad>
          </ns3:TrackPointExtension>
        </extensions>
      </trkpt>
      <trkpt lat="45.25963154621422290802001953125" lon="-71.13054332323372364044189453125">
        <ele>676</ele>
        <time>2026-08-22T01:57:03.000Z</time>
        <extensions>
          <ns3:TrackPointExtension>
            <ns3:hr>136</ns3:hr>
            <ns3:cad>0</ns3:cad>
          </ns3:TrackPointExtension>
        </extensions>
      </trkpt>
      <trkpt lat="45.25962534360587596893310546875" lon="-71.13052488304674625396728515625">
        <ele>676.20001220703125</ele>
        <time>2026-08-22T01:57:04.000Z</time>
        <extensions>
          <ns3:TrackPointExtension>
            <ns3:hr>135</ns3:hr>
            <ns3:cad>0</ns3:cad>
          </ns3:TrackPointExtension>
        </extensions>
      </trkpt>
      <trkpt lat="45.259621404111385345458984375" lon="-71.1305159144103527069091796875">
        <ele>676.4000244140625</ele>
        <time>2026-08-22T01:57:05.000Z</time>
        <extensions>
          <ns3:TrackPointExtension>
            <ns3:hr>135</ns3:hr>
            <ns3:cad>0</ns3:cad>
          </ns3:TrackPointExtension>
        </extensions>
      </trkpt>
      <trkpt lat="45.25961478240787982940673828125" lon="-71.13049655221402645111083984375">
        <ele>676.5999755859375</ele>
        <time>2026-08-22T01:57:06.000Z</time>
        <extensions>
          <ns3:TrackPointExtension>
            <ns3:hr>135</ns3:hr>
            <ns3:cad>0</ns3:cad>
          </ns3:TrackPointExtension>
        </extensions>
      </trkpt>
      <trkpt lat="45.2596064843237400054931640625" lon="-71.13047895021736621856689453125">
        <ele>676.79998779296875</ele>
        <time>2026-08-22T01:57:07.000Z</time>
        <extensions>
          <ns3:TrackPointExtension>
            <ns3:hr>135</ns3:hr>
            <ns3:cad>0</ns3:cad>
          </ns3:TrackPointExtension>
        </extensions>
      </trkpt>
      <trkpt lat="45.2595957554876804351806640625" lon="-71.13046872429549694061279296875">
        <ele>677</ele>
        <time>2026-08-22T01:57:08.000Z</time>
        <extensions>
          <ns3:TrackPointExtension>
            <ns3:hr>135</ns3:hr>
            <ns3:cad>0</ns3:cad>
          </ns3:TrackPointExtension>
        </extensions>
      </trkpt>
      <trkpt lat="45.25958963669836521148681640625" lon="-71.1304622702300548553466796875">
        <ele>677.20001220703125</ele>
        <time>2026-08-22T01:57:09.000Z</time>
        <extensions>
          <ns3:TrackPointExtension>
            <ns3:hr>134</ns3:hr>
            <ns3:cad>0</ns3:cad>
          </ns3:TrackPointExtension>
        </extensions>
      </trkpt>
      <trkpt lat="45.2595828473567962646484375" lon="-71.13045346923172473907470703125">
        <ele>677.20001220703125</ele>
        <time>2026-08-22T01:57:10.000Z</time>
        <extensions>
          <ns3:TrackPointExtension>
            <ns3:hr>134</ns3:hr>
            <ns3:cad>0</ns3:cad>
          </ns3:TrackPointExtension>
        </extensions>
      </trkpt>
      <trkpt lat="45.25957689620554447174072265625" lon="-71.13044290803372859954833984375">
        <ele>677.4000244140625</ele>
        <time>2026-08-22T01:57:11.000Z</time>
        <extensions>
          <ns3:TrackPointExtension>
            <ns3:hr>134</ns3:hr>
            <ns3:cad>0</ns3:cad>
          </ns3:TrackPointExtension>
        </extensions>
      </trkpt>
      <trkpt lat="45.25957320816814899444580078125" lon="-71.1304356157779693603515625">
        <ele>677.5999755859375</ele>
        <time>2026-08-22T01:57:12.000Z</time>
        <extensions>
          <ns3:TrackPointExtension>
            <ns3:hr>134</ns3:hr>
            <ns3:cad>0</ns3:cad>
          </ns3:TrackPointExtension>
        </extensions>
      </trkpt>
      <trkpt lat="45.2595689333975315093994140625" lon="-71.1304324306547641754150390625">
        <ele>677.79998779296875</ele>
        <time>2026-08-22T01:57:13.000Z</time>
        <extensions>
          <ns3:TrackPointExtension>
            <ns3:hr>133</ns3:hr>
            <ns3:cad>0</ns3:cad>
          </ns3:TrackPointExtension>
        </extensions>
      </trkpt>
      <trkpt lat="45.25956398807466030120849609375" lon="-71.13042446784675121307373046875">
        <ele>677.79998779296875</ele>
        <time>2026-08-22T01:57:14.000Z</time>
        <extensions>
          <ns3:TrackPointExtension>
            <ns3:hr>134</ns3:hr>
            <ns3:cad>0</ns3:cad>
          </ns3:TrackPointExtension>
        </extensions>
      </trkpt>
      <trkpt lat="45.259565748274326324462890625" lon="-71.13042530603706836700439453125">
        <ele>678</ele>
        <time>2026-08-22T01:57:15.000Z</time>
        <extensions>
          <ns3:TrackPointExtension>
            <ns3:hr>134</ns3:hr>
            <ns3:cad>0</ns3:cad>
          </ns3:TrackPointExtension>
        </extensions>
      </trkpt>
      <trkpt lat="45.25956432335078716278076171875" lon="-71.13041994161903858184814453125">
        <ele>678.20001220703125</ele>
        <time>2026-08-22T01:57:16.000Z</time>
        <extensions>
          <ns3:TrackPointExtension>
            <ns3:hr>134</ns3:hr>
            <ns3:cad>0</ns3:cad>
          </ns3:TrackPointExtension>
        </extensions>
      </trkpt>
      <trkpt lat="45.259560383856296539306640625" lon="-71.13041323609650135040283203125">
        <ele>678.4000244140625</ele>
        <time>2026-08-22T01:57:17.000Z</time>
        <extensions>
          <ns3:TrackPointExtension>
            <ns3:hr>134</ns3:hr>
            <ns3:cad>0</ns3:cad>
          </ns3:TrackPointExtension>
        </extensions>
      </trkpt>
      <trkpt lat="45.25955736637115478515625" lon="-71.13040468655526638031005859375">
        <ele>678.5999755859375</ele>
        <time>2026-08-22T01:57:18.000Z</time>
        <extensions>
          <ns3:TrackPointExtension>
            <ns3:hr>134</ns3:hr>
            <ns3:cad>0</ns3:cad>
          </ns3:TrackPointExtension>
        </extensions>
      </trkpt>
      <trkpt lat="45.2595514990389347076416015625" lon="-71.1303958855569362640380859375">
        <ele>678.79998779296875</ele>
        <time>2026-08-22T01:57:19.000Z</time>
        <extensions>
          <ns3:TrackPointExtension>
            <ns3:hr>134</ns3:hr>
            <ns3:cad>0</ns3:cad>
          </ns3:TrackPointExtension>
        </extensions>
      </trkpt>
      <trkpt lat="45.259549655020236968994140625" lon="-71.1303932033479213714599609375">
        <ele>678.79998779296875</ele>
        <time>2026-08-22T01:57:20.000Z</time>
        <extensions>
          <ns3:TrackPointExtension>
            <ns3:hr>134</ns3:hr>
            <ns3:cad>0</ns3:cad>
          </ns3:TrackPointExtension>
        </extensions>
      </trkpt>
      <trkpt lat="45.25954688899219036102294921875" lon="-71.1303875036537647247314453125">
        <ele>679</ele>
        <time>2026-08-22T01:57:21.000Z</time>
        <extensions>
          <ns3:TrackPointExtension>
            <ns3:hr>135</ns3:hr>
            <ns3:cad>0</ns3:cad>
          </ns3:TrackPointExtension>
        </extensions>
      </trkpt>
      <trkpt lat="45.25954462587833404541015625" lon="-71.1303797923028469085693359375">
        <ele>679.20001220703125</ele>
        <time>2026-08-22T01:57:22.000Z</time>
        <extensions>
          <ns3:TrackPointExtension>
            <ns3:hr>134</ns3:hr>
            <ns3:cad>41</ns3:cad>
          </ns3:TrackPointExtension>
        </extensions>
      </trkpt>
      <trkpt lat="45.25953926146030426025390625" lon="-71.13036763854324817657470703125">
        <ele>679.4000244140625</ele>
        <time>2026-08-22T01:57:23.000Z</time>
        <extensions>
          <ns3:TrackPointExtension>
            <ns3:hr>134</ns3:hr>
            <ns3:cad>41</ns3:cad>
          </ns3:TrackPointExtension>
        </extensions>
      </trkpt>
      <trkpt lat="45.259534902870655059814453125" lon="-71.13036210648715496063232421875">
        <ele>679.5999755859375</ele>
        <time>2026-08-22T01:57:24.000Z</time>
        <extensions>
          <ns3:TrackPointExtension>
            <ns3:hr>135</ns3:hr>
            <ns3:cad>41</ns3:cad>
          </ns3:TrackPointExtension>
        </extensions>
      </trkpt>
      <trkpt lat="45.25952945463359355926513671875" lon="-71.13035556860268115997314453125">
        <ele>679.5999755859375</ele>
        <time>2026-08-22T01:57:25.000Z</time>
        <extensions>
          <ns3:TrackPointExtension>
            <ns3:hr>134</ns3:hr>
            <ns3:cad>41</ns3:cad>
          </ns3:TrackPointExtension>
        </extensions>
      </trkpt>
      <trkpt lat="45.2595226652920246124267578125" lon="-71.130346097052097320556640625">
        <ele>679.79998779296875</ele>
        <time>2026-08-22T01:57:26.000Z</time>
        <extensions>
          <ns3:TrackPointExtension>
            <ns3:hr>134</ns3:hr>
            <ns3:cad>41</ns3:cad>
          </ns3:TrackPointExtension>
        </extensions>
      </trkpt>
      <trkpt lat="45.259517133235931396484375" lon="-71.1303365416824817657470703125">
        <ele>680</ele>
        <time>2026-08-22T01:57:27.000Z</time>
        <extensions>
          <ns3:TrackPointExtension>
            <ns3:hr>135</ns3:hr>
            <ns3:cad>0</ns3:cad>
          </ns3:TrackPointExtension>
        </extensions>
      </trkpt>
      <trkpt lat="45.2595149539411067962646484375" lon="-71.13033235073089599609375">
        <ele>680.20001220703125</ele>
        <time>2026-08-22T01:57:28.000Z</time>
        <extensions>
          <ns3:TrackPointExtension>
            <ns3:hr>135</ns3:hr>
            <ns3:cad>0</ns3:cad>
          </ns3:TrackPointExtension>
        </extensions>
      </trkpt>
      <trkpt lat="45.259507410228252410888671875" lon="-71.13032237626612186431884765625">
        <ele>680.20001220703125</ele>
        <time>2026-08-22T01:57:29.000Z</time>
        <extensions>
          <ns3:TrackPointExtension>
            <ns3:hr>135</ns3:hr>
            <ns3:cad>0</ns3:cad>
          </ns3:TrackPointExtension>
        </extensions>
      </trkpt>
      <trkpt lat="45.2594978548586368560791015625" lon="-71.13031801767647266387939453125">
        <ele>680.4000244140625</ele>
        <time>2026-08-22T01:57:30.000Z</time>
        <extensions>
          <ns3:TrackPointExtension>
            <ns3:hr>135</ns3:hr>
            <ns3:cad>0</ns3:cad>
          </ns3:TrackPointExtension>
        </extensions>
      </trkpt>
      <trkpt lat="45.2594916522502899169921875" lon="-71.1303150840103626251220703125">
        <ele>680.5999755859375</ele>
        <time>2026-08-22T01:57:31.000Z</time>
        <extensions>
          <ns3:TrackPointExtension>
            <ns3:hr>136</ns3:hr>
            <ns3:cad>0</ns3:cad>
          </ns3:TrackPointExtension>
        </extensions>
      </trkpt>
      <trkpt lat="45.25948050431907176971435546875" lon="-71.1303137429058551788330078125">
        <ele>680.79998779296875</ele>
        <time>2026-08-22T01:57:32.000Z</time>
        <extensions>
          <ns3:TrackPointExtension>
            <ns3:hr>137</ns3:hr>
            <ns3:cad>0</ns3:cad>
          </ns3:TrackPointExtension>
        </extensions>
      </trkpt>
      <trkpt lat="45.2594700269401073455810546875" lon="-71.130310557782649993896484375">
        <ele>680.79998779296875</ele>
        <time>2026-08-22T01:57:33.000Z</time>
        <extensions>
          <ns3:TrackPointExtension>
            <ns3:hr>137</ns3:hr>
            <ns3:cad>0</ns3:cad>
          </ns3:TrackPointExtension>
        </extensions>
      </trkpt>
      <trkpt lat="45.259464494884014129638671875" lon="-71.13030812703073024749755859375">
        <ele>681</ele>
        <time>2026-08-22T01:57:34.000Z</time>
        <extensions>
          <ns3:TrackPointExtension>
            <ns3:hr>138</ns3:hr>
            <ns3:cad>0</ns3:cad>
          </ns3:TrackPointExtension>
        </extensions>
      </trkpt>
      <trkpt lat="45.2594552747905254364013671875" lon="-71.1303060315549373626708984375">
        <ele>681.20001220703125</ele>
        <time>2026-08-22T01:57:35.000Z</time>
        <extensions>
          <ns3:TrackPointExtension>
            <ns3:hr>138</ns3:hr>
            <ns3:cad>0</ns3:cad>
          </ns3:TrackPointExtension>
        </extensions>
      </trkpt>
      <trkpt lat="45.259451083838939666748046875" lon="-71.1303030140697956085205078125">
        <ele>681.20001220703125</ele>
        <time>2026-08-22T01:57:36.000Z</time>
        <extensions>
          <ns3:TrackPointExtension>
            <ns3:hr>138</ns3:hr>
            <ns3:cad>0</ns3:cad>
          </ns3:TrackPointExtension>
        </extensions>
      </trkpt>
      <trkpt lat="45.25944647379219532012939453125" lon="-71.13030896522104740142822265625">
        <ele>681.4000244140625</ele>
        <time>2026-08-22T01:57:37.000Z</time>
        <extensions>
          <ns3:TrackPointExtension>
            <ns3:hr>138</ns3:hr>
            <ns3:cad>0</ns3:cad>
          </ns3:TrackPointExtension>
        </extensions>
      </trkpt>
      <trkpt lat="45.25943725369870662689208984375" lon="-71.1303100548684597015380859375">
        <ele>681.5999755859375</ele>
        <time>2026-08-22T01:57:38.000Z</time>
        <extensions>
          <ns3:TrackPointExtension>
            <ns3:hr>139</ns3:hr>
            <ns3:cad>0</ns3:cad>
          </ns3:TrackPointExtension>
        </extensions>
      </trkpt>
      <trkpt lat="45.25943088345229625701904296875" lon="-71.13030158914625644683837890625">
        <ele>681.79998779296875</ele>
        <time>2026-08-22T01:57:39.000Z</time>
        <extensions>
          <ns3:TrackPointExtension>
            <ns3:hr>138</ns3:hr>
            <ns3:cad>0</ns3:cad>
          </ns3:TrackPointExtension>
        </extensions>
      </trkpt>
      <trkpt lat="45.25942317210137844085693359375" lon="-71.1302979849278926849365234375">
        <ele>681.79998779296875</ele>
        <time>2026-08-22T01:57:40.000Z</time>
        <extensions>
          <ns3:TrackPointExtension>
            <ns3:hr>138</ns3:hr>
            <ns3:cad>0</ns3:cad>
          </ns3:TrackPointExtension>
        </extensions>
      </trkpt>
      <trkpt lat="45.25941596366465091705322265625" lon="-71.13029471598565578460693359375">
        <ele>682</ele>
        <time>2026-08-22T01:57:41.000Z</time>
        <extensions>
          <ns3:TrackPointExtension>
            <ns3:hr>138</ns3:hr>
            <ns3:cad>0</ns3:cad>
          </ns3:TrackPointExtension>
        </extensions>
      </trkpt>
      <trkpt lat="45.25940716266632080078125" lon="-71.1302862502634525299072265625">
        <ele>682.20001220703125</ele>
        <time>2026-08-22T01:57:42.000Z</time>
        <extensions>
          <ns3:TrackPointExtension>
            <ns3:hr>139</ns3:hr>
            <ns3:cad>0</ns3:cad>
          </ns3:TrackPointExtension>
        </extensions>
      </trkpt>
      <trkpt lat="45.2594016306102275848388671875" lon="-71.1302832327783107757568359375">
        <ele>682.20001220703125</ele>
        <time>2026-08-22T01:57:43.000Z</time>
        <extensions>
          <ns3:TrackPointExtension>
            <ns3:hr>138</ns3:hr>
            <ns3:cad>0</ns3:cad>
          </ns3:TrackPointExtension>
        </extensions>
      </trkpt>
      <trkpt lat="45.259394757449626922607421875" lon="-71.1302755214273929595947265625">
        <ele>682.4000244140625</ele>
        <time>2026-08-22T01:57:44.000Z</time>
        <extensions>
          <ns3:TrackPointExtension>
            <ns3:hr>138</ns3:hr>
            <ns3:cad>0</ns3:cad>
          </ns3:TrackPointExtension>
        </extensions>
      </trkpt>
      <trkpt lat="45.25938947685062885284423828125" lon="-71.13026864826679229736328125">
        <ele>682.5999755859375</ele>
        <time>2026-08-22T01:57:45.000Z</time>
        <extensions>
          <ns3:TrackPointExtension>
            <ns3:hr>138</ns3:hr>
            <ns3:cad>0</ns3:cad>
          </ns3:TrackPointExtension>
        </extensions>
      </trkpt>
      <trkpt lat="45.25938277132809162139892578125" lon="-71.13026370294392108917236328125">
        <ele>682.79998779296875</ele>
        <time>2026-08-22T01:57:46.000Z</time>
        <extensions>
          <ns3:TrackPointExtension>
            <ns3:hr>138</ns3:hr>
            <ns3:cad>0</ns3:cad>
          </ns3:TrackPointExtension>
        </extensions>
      </trkpt>
      <trkpt lat="45.25937472470104694366455078125" lon="-71.130258925259113311767578125">
        <ele>683</ele>
        <time>2026-08-22T01:57:47.000Z</time>
        <extensions>
          <ns3:TrackPointExtension>
            <ns3:hr>138</ns3:hr>
            <ns3:cad>0</ns3:cad>
          </ns3:TrackPointExtension>
        </extensions>
      </trkpt>
      <trkpt lat="45.25936894118785858154296875" lon="-71.13025532104074954986572265625">
        <ele>683.20001220703125</ele>
        <time>2026-08-22T01:57:48.000Z</time>
        <extensions>
          <ns3:TrackPointExtension>
            <ns3:hr>139</ns3:hr>
            <ns3:cad>0</ns3:cad>
          </ns3:TrackPointExtension>
        </extensions>
      </trkpt>
      <trkpt lat="45.259362570941448211669921875" lon="-71.13025347702205181121826171875">
        <ele>683.4000244140625</ele>
        <time>2026-08-22T01:57:49.000Z</time>
        <extensions>
          <ns3:TrackPointExtension>
            <ns3:hr>138</ns3:hr>
            <ns3:cad>0</ns3:cad>
          </ns3:TrackPointExtension>
        </extensions>
      </trkpt>
      <trkpt lat="45.25935628451406955718994140625" lon="-71.1302510462701320648193359375">
        <ele>683.5999755859375</ele>
        <time>2026-08-22T01:57:50.000Z</time>
        <extensions>
          <ns3:TrackPointExtension>
            <ns3:hr>138</ns3:hr>
            <ns3:cad>0</ns3:cad>
          </ns3:TrackPointExtension>
        </extensions>
      </trkpt>
      <trkpt lat="45.25934488512575626373291015625" lon="-71.13025213591754436492919921875">
        <ele>683.79998779296875</ele>
        <time>2026-08-22T01:57:51.000Z</time>
        <extensions>
          <ns3:TrackPointExtension>
            <ns3:hr>138</ns3:hr>
            <ns3:cad>0</ns3:cad>
          </ns3:TrackPointExtension>
        </extensions>
      </trkpt>
      <trkpt lat="45.2593379281461238861083984375" lon="-71.1302505433559417724609375">
        <ele>683.79998779296875</ele>
        <time>2026-08-22T01:57:52.000Z</time>
        <extensions>
          <ns3:TrackPointExtension>
            <ns3:hr>138</ns3:hr>
            <ns3:cad>0</ns3:cad>
          </ns3:TrackPointExtension>
        </extensions>
      </trkpt>
      <trkpt lat="45.259329378604888916015625" lon="-71.13024341873824596405029296875">
        <ele>684</ele>
        <time>2026-08-22T01:57:53.000Z</time>
        <extensions>
          <ns3:TrackPointExtension>
            <ns3:hr>138</ns3:hr>
            <ns3:cad>0</ns3:cad>
          </ns3:TrackPointExtension>
        </extensions>
      </trkpt>
      <trkpt lat="45.25932275690138339996337890625" lon="-71.1302359588444232940673828125">
        <ele>684</ele>
        <time>2026-08-22T01:57:54.000Z</time>
        <extensions>
          <ns3:TrackPointExtension>
            <ns3:hr>138</ns3:hr>
            <ns3:cad>0</ns3:cad>
          </ns3:TrackPointExtension>
        </extensions>
      </trkpt>
      <trkpt lat="45.25931906886398792266845703125" lon="-71.13023336045444011688232421875">
        <ele>684</ele>
        <time>2026-08-22T01:57:55.000Z</time>
        <extensions>
          <ns3:TrackPointExtension>
            <ns3:hr>138</ns3:hr>
            <ns3:cad>0</ns3:cad>
          </ns3:TrackPointExtension>
        </extensions>
      </trkpt>
      <trkpt lat="45.25931236334145069122314453125" lon="-71.13022950477898120880126953125">
        <ele>684.20001220703125</ele>
        <time>2026-08-22T01:57:56.000Z</time>
        <extensions>
          <ns3:TrackPointExtension>
            <ns3:hr>138</ns3:hr>
            <ns3:cad>0</ns3:cad>
          </ns3:TrackPointExtension>
        </extensions>
      </trkpt>
      <trkpt lat="45.25930884294211864471435546875" lon="-71.130224727094173431396484375">
        <ele>684.4000244140625</ele>
        <time>2026-08-22T01:57:57.000Z</time>
        <extensions>
          <ns3:TrackPointExtension>
            <ns3:hr>138</ns3:hr>
            <ns3:cad>0</ns3:cad>
          </ns3:TrackPointExtension>
        </extensions>
      </trkpt>
      <trkpt lat="45.25930381380021572113037109375" lon="-71.130219362676143646240234375">
        <ele>684.5999755859375</ele>
        <time>2026-08-22T01:57:58.000Z</time>
        <extensions>
          <ns3:TrackPointExtension>
            <ns3:hr>137</ns3:hr>
            <ns3:cad>0</ns3:cad>
          </ns3:TrackPointExtension>
        </extensions>
      </trkpt>
      <trkpt lat="45.25929828174412250518798828125" lon="-71.130216009914875030517578125">
        <ele>684.79998779296875</ele>
        <time>2026-08-22T01:57:59.000Z</time>
        <extensions>
          <ns3:TrackPointExtension>
            <ns3:hr>138</ns3:hr>
            <ns3:cad>0</ns3:cad>
          </ns3:TrackPointExtension>
        </extensions>
      </trkpt>
      <trkpt lat="45.2592970244586467742919921875" lon="-71.130211316049098968505859375">
        <ele>685</ele>
        <time>2026-08-22T01:58:00.000Z</time>
        <extensions>
          <ns3:TrackPointExtension>
            <ns3:hr>138</ns3:hr>
            <ns3:cad>0</ns3:cad>
          </ns3:TrackPointExtension>
        </extensions>
      </trkpt>
      <trkpt lat="45.259291492402553558349609375" lon="-71.13020922057330608367919921875">
        <ele>685.20001220703125</ele>
        <time>2026-08-22T01:58:01.000Z</time>
        <extensions>
          <ns3:TrackPointExtension>
            <ns3:hr>138</ns3:hr>
            <ns3:cad>0</ns3:cad>
          </ns3:TrackPointExtension>
        </extensions>
      </trkpt>
      <trkpt lat="45.2592842839658260345458984375" lon="-71.1302027665078639984130859375">
        <ele>685.4000244140625</ele>
        <time>2026-08-22T01:58:02.000Z</time>
        <extensions>
          <ns3:TrackPointExtension>
            <ns3:hr>138</ns3:hr>
            <ns3:cad>0</ns3:cad>
          </ns3:TrackPointExtension>
        </extensions>
      </trkpt>
      <trkpt lat="45.25927782990038394927978515625" lon="-71.13020419143140316009521484375">
        <ele>685.4000244140625</ele>
        <time>2026-08-22T01:58:03.000Z</time>
        <extensions>
          <ns3:TrackPointExtension>
            <ns3:hr>138</ns3:hr>
            <ns3:cad>0</ns3:cad>
          </ns3:TrackPointExtension>
        </extensions>
      </trkpt>
      <trkpt lat="45.2592718787491321563720703125" lon="-71.13020787946879863739013671875">
        <ele>685.5999755859375</ele>
        <time>2026-08-22T01:58:04.000Z</time>
        <extensions>
          <ns3:TrackPointExtension>
            <ns3:hr>138</ns3:hr>
            <ns3:cad>0</ns3:cad>
          </ns3:TrackPointExtension>
        </extensions>
      </trkpt>
      <trkpt lat="45.25927514769136905670166015625" lon="-71.130203269422054290771484375">
        <ele>685.79998779296875</ele>
        <time>2026-08-22T01:58:05.000Z</time>
        <extensions>
          <ns3:TrackPointExtension>
            <ns3:hr>138</ns3:hr>
            <ns3:cad>0</ns3:cad>
          </ns3:TrackPointExtension>
        </extensions>
      </trkpt>
      <trkpt lat="45.259272046387195587158203125" lon="-71.13020033575594425201416015625">
        <ele>685.79998779296875</ele>
        <time>2026-08-22T01:58:06.000Z</time>
        <extensions>
          <ns3:TrackPointExtension>
            <ns3:hr>138</ns3:hr>
            <ns3:cad>0</ns3:cad>
          </ns3:TrackPointExtension>
        </extensions>
      </trkpt>
      <trkpt lat="45.25926223956048488616943359375" lon="-71.13020251505076885223388671875">
        <ele>685.79998779296875</ele>
        <time>2026-08-22T01:58:07.000Z</time>
        <extensions>
          <ns3:TrackPointExtension>
            <ns3:hr>137</ns3:hr>
            <ns3:cad>0</ns3:cad>
          </ns3:TrackPointExtension>
        </extensions>
      </trkpt>
      <trkpt lat="45.25925536639988422393798828125" lon="-71.13019966520369052886962890625">
        <ele>685.79998779296875</ele>
        <time>2026-08-22T01:58:08.000Z</time>
        <extensions>
          <ns3:TrackPointExtension>
            <ns3:hr>138</ns3:hr>
            <ns3:cad>0</ns3:cad>
          </ns3:TrackPointExtension>
        </extensions>
      </trkpt>
      <trkpt lat="45.2592497505247592926025390625" lon="-71.1301982402801513671875">
        <ele>685.79998779296875</ele>
        <time>2026-08-22T01:58:09.000Z</time>
        <extensions>
          <ns3:TrackPointExtension>
            <ns3:hr>138</ns3:hr>
            <ns3:cad>0</ns3:cad>
          </ns3:TrackPointExtension>
        </extensions>
      </trkpt>
      <trkpt lat="45.2592430450022220611572265625" lon="-71.13019497133791446685791015625">
        <ele>686</ele>
        <time>2026-08-22T01:58:10.000Z</time>
        <extensions>
          <ns3:TrackPointExtension>
            <ns3:hr>137</ns3:hr>
            <ns3:cad>0</ns3:cad>
          </ns3:TrackPointExtension>
        </extensions>
      </trkpt>
      <trkpt lat="45.25924363173544406890869140625" lon="-71.13019916228950023651123046875">
        <ele>686.20001220703125</ele>
        <time>2026-08-22T01:58:11.000Z</time>
        <extensions>
          <ns3:TrackPointExtension>
            <ns3:hr>137</ns3:hr>
            <ns3:cad>0</ns3:cad>
          </ns3:TrackPointExtension>
        </extensions>
      </trkpt>
      <trkpt lat="45.25924363173544406890869140625" lon="-71.13019983284175395965576171875">
        <ele>686.4000244140625</ele>
        <time>2026-08-22T01:58:12.000Z</time>
        <extensions>
          <ns3:TrackPointExtension>
            <ns3:hr>136</ns3:hr>
            <ns3:cad>0</ns3:cad>
          </ns3:TrackPointExtension>
        </extensions>
      </trkpt>
      <trkpt lat="45.2592417038977146148681640625" lon="-71.13019010983407497406005859375">
        <ele>686.5999755859375</ele>
        <time>2026-08-22T01:58:13.000Z</time>
        <extensions>
          <ns3:TrackPointExtension>
            <ns3:hr>136</ns3:hr>
            <ns3:cad>0</ns3:cad>
          </ns3:TrackPointExtension>
        </extensions>
      </trkpt>
      <trkpt lat="45.2592406980693340301513671875" lon="-71.13019010983407497406005859375">
        <ele>686.79998779296875</ele>
        <time>2026-08-22T01:58:14.000Z</time>
        <extensions>
          <ns3:TrackPointExtension>
            <ns3:hr>136</ns3:hr>
            <ns3:cad>0</ns3:cad>
          </ns3:TrackPointExtension>
        </extensions>
      </trkpt>
      <trkpt lat="45.25923793204128742218017578125" lon="-71.13019094802439212799072265625">
        <ele>687</ele>
        <time>2026-08-22T01:58:15.000Z</time>
        <extensions>
          <ns3:TrackPointExtension>
            <ns3:hr>135</ns3:hr>
            <ns3:cad>0</ns3:cad>
          </ns3:TrackPointExtension>
        </extensions>
      </trkpt>
      <trkpt lat="45.25923491455614566802978515625" lon="-71.13018373958766460418701171875">
        <ele>687.20001220703125</ele>
        <time>2026-08-22T01:58:16.000Z</time>
        <extensions>
          <ns3:TrackPointExtension>
            <ns3:hr>135</ns3:hr>
            <ns3:cad>0</ns3:cad>
          </ns3:TrackPointExtension>
        </extensions>
      </trkpt>
      <trkpt lat="45.25923491455614566802978515625" lon="-71.130183152854442596435546875">
        <ele>687.4000244140625</ele>
        <time>2026-08-22T01:58:17.000Z</time>
        <extensions>
          <ns3:TrackPointExtension>
            <ns3:hr>134</ns3:hr>
            <ns3:cad>0</ns3:cad>
          </ns3:TrackPointExtension>
        </extensions>
      </trkpt>
      <trkpt lat="45.2592349983751773834228515625" lon="-71.130179129540920257568359375">
        <ele>687.5999755859375</ele>
        <time>2026-08-22T01:58:18.000Z</time>
        <extensions>
          <ns3:TrackPointExtension>
            <ns3:hr>134</ns3:hr>
            <ns3:cad>0</ns3:cad>
          </ns3:TrackPointExtension>
        </extensions>
      </trkpt>
      <trkpt lat="45.259233824908733367919921875" lon="-71.13016848452389240264892578125">
        <ele>687.79998779296875</ele>
        <time>2026-08-22T01:58:19.000Z</time>
        <extensions>
          <ns3:TrackPointExtension>
            <ns3:hr>134</ns3:hr>
            <ns3:cad>0</ns3:cad>
          </ns3:TrackPointExtension>
        </extensions>
      </trkpt>
      <trkpt lat="45.25923290289938449859619140625" lon="-71.130163371562957763671875">
        <ele>688</ele>
        <time>2026-08-22T01:58:20.000Z</time>
        <extensions>
          <ns3:TrackPointExtension>
            <ns3:hr>134</ns3:hr>
            <ns3:cad>0</ns3:cad>
          </ns3:TrackPointExtension>
        </extensions>
      </trkpt>
      <trkpt lat="45.259233824908733367919921875" lon="-71.130159012973308563232421875">
        <ele>688.4000244140625</ele>
        <time>2026-08-22T01:58:21.000Z</time>
        <extensions>
          <ns3:TrackPointExtension>
            <ns3:hr>135</ns3:hr>
            <ns3:cad>0</ns3:cad>
          </ns3:TrackPointExtension>
        </extensions>
      </trkpt>
      <trkpt lat="45.2592319808900356292724609375" lon="-71.13014350645244121551513671875">
        <ele>688.5999755859375</ele>
        <time>2026-08-22T01:58:22.000Z</time>
        <extensions>
          <ns3:TrackPointExtension>
            <ns3:hr>135</ns3:hr>
            <ns3:cad>0</ns3:cad>
          </ns3:TrackPointExtension>
        </extensions>
      </trkpt>
      <trkpt lat="45.25923307053744792938232421875" lon="-71.130134202539920806884765625">
        <ele>688.79998779296875</ele>
        <time>2026-08-22T01:58:23.000Z</time>
        <extensions>
          <ns3:TrackPointExtension>
            <ns3:hr>135</ns3:hr>
            <ns3:cad>0</ns3:cad>
          </ns3:TrackPointExtension>
        </extensions>
      </trkpt>
      <trkpt lat="45.259232819080352783203125" lon="-71.1301290057599544525146484375">
        <ele>689</ele>
        <time>2026-08-22T01:58:24.000Z</time>
        <extensions>
          <ns3:TrackPointExtension>
            <ns3:hr>135</ns3:hr>
            <ns3:cad>0</ns3:cad>
          </ns3:TrackPointExtension>
        </extensions>
      </trkpt>
      <trkpt lat="45.25923642329871654510498046875" lon="-71.1301199533045291900634765625">
        <ele>689.20001220703125</ele>
        <time>2026-08-22T01:58:25.000Z</time>
        <extensions>
          <ns3:TrackPointExtension>
            <ns3:hr>134</ns3:hr>
            <ns3:cad>0</ns3:cad>
          </ns3:TrackPointExtension>
        </extensions>
      </trkpt>
      <trkpt lat="45.25924162007868289947509765625" lon="-71.13010528497397899627685546875">
        <ele>689.4000244140625</ele>
        <time>2026-08-22T01:58:26.000Z</time>
        <extensions>
          <ns3:TrackPointExtension>
            <ns3:hr>134</ns3:hr>
            <ns3:cad>0</ns3:cad>
          </ns3:TrackPointExtension>
        </extensions>
      </trkpt>
      <trkpt lat="45.25924631394445896148681640625" lon="-71.130089275538921356201171875">
        <ele>689.5999755859375</ele>
        <time>2026-08-22T01:58:27.000Z</time>
        <extensions>
          <ns3:TrackPointExtension>
            <ns3:hr>134</ns3:hr>
            <ns3:cad>44</ns3:cad>
          </ns3:TrackPointExtension>
        </extensions>
      </trkpt>
      <trkpt lat="45.25924799032509326934814453125" lon="-71.1300693266093730926513671875">
        <ele>689.79998779296875</ele>
        <time>2026-08-22T01:58:28.000Z</time>
        <extensions>
          <ns3:TrackPointExtension>
            <ns3:hr>134</ns3:hr>
            <ns3:cad>44</ns3:cad>
          </ns3:TrackPointExtension>
        </extensions>
      </trkpt>
      <trkpt lat="45.25924958288669586181640625" lon="-71.1300562508404254913330078125">
        <ele>689.79998779296875</ele>
        <time>2026-08-22T01:58:29.000Z</time>
        <extensions>
          <ns3:TrackPointExtension>
            <ns3:hr>134</ns3:hr>
            <ns3:cad>44</ns3:cad>
          </ns3:TrackPointExtension>
        </extensions>
      </trkpt>
      <trkpt lat="45.2592510916292667388916015625" lon="-71.13004309125244617462158203125">
        <ele>690</ele>
        <time>2026-08-22T01:58:30.000Z</time>
        <extensions>
          <ns3:TrackPointExtension>
            <ns3:hr>135</ns3:hr>
            <ns3:cad>44</ns3:cad>
          </ns3:TrackPointExtension>
        </extensions>
      </trkpt>
      <trkpt lat="45.25925184600055217742919921875" lon="-71.13002699799835681915283203125">
        <ele>690.20001220703125</ele>
        <time>2026-08-22T01:58:31.000Z</time>
        <extensions>
          <ns3:TrackPointExtension>
            <ns3:hr>135</ns3:hr>
            <ns3:cad>44</ns3:cad>
          </ns3:TrackPointExtension>
        </extensions>
      </trkpt>
      <trkpt lat="45.2592517621815204620361328125" lon="-71.130016185343265533447265625">
        <ele>690.20001220703125</ele>
        <time>2026-08-22T01:58:32.000Z</time>
        <extensions>
          <ns3:TrackPointExtension>
            <ns3:hr>135</ns3:hr>
            <ns3:cad>44</ns3:cad>
          </ns3:TrackPointExtension>
        </extensions>
      </trkpt>
      <trkpt lat="45.25924849323928356170654296875" lon="-71.13000436685979366302490234375">
        <ele>690.4000244140625</ele>
        <time>2026-08-22T01:58:33.000Z</time>
        <extensions>
          <ns3:TrackPointExtension>
            <ns3:hr>135</ns3:hr>
            <ns3:cad>44</ns3:cad>
          </ns3:TrackPointExtension>
        </extensions>
      </trkpt>
      <trkpt lat="45.259243212640285491943359375" lon="-71.12998726777732372283935546875">
        <ele>690.5999755859375</ele>
        <time>2026-08-22T01:58:34.000Z</time>
        <extensions>
          <ns3:TrackPointExtension>
            <ns3:hr>136</ns3:hr>
            <ns3:cad>44</ns3:cad>
          </ns3:TrackPointExtension>
        </extensions>
      </trkpt>
      <trkpt lat="45.25923659093677997589111328125" lon="-71.12997318617999553680419921875">
        <ele>690.79998779296875</ele>
        <time>2026-08-22T01:58:35.000Z</time>
        <extensions>
          <ns3:TrackPointExtension>
            <ns3:hr>136</ns3:hr>
            <ns3:cad>44</ns3:cad>
          </ns3:TrackPointExtension>
        </extensions>
      </trkpt>
      <trkpt lat="45.2592313103377819061279296875" lon="-71.12996689975261688232421875">
        <ele>691</ele>
        <time>2026-08-22T01:58:36.000Z</time>
        <extensions>
          <ns3:TrackPointExtension>
            <ns3:hr>136</ns3:hr>
            <ns3:cad>44</ns3:cad>
          </ns3:TrackPointExtension>
        </extensions>
      </trkpt>
      <trkpt lat="45.259228460490703582763671875" lon="-71.12995424307882785797119140625">
        <ele>691</ele>
        <time>2026-08-22T01:58:37.000Z</time>
        <extensions>
          <ns3:TrackPointExtension>
            <ns3:hr>136</ns3:hr>
            <ns3:cad>0</ns3:cad>
          </ns3:TrackPointExtension>
        </extensions>
      </trkpt>
      <trkpt lat="45.25922452099621295928955078125" lon="-71.12994167022407054901123046875">
        <ele>691.20001220703125</ele>
        <time>2026-08-22T01:58:38.000Z</time>
        <extensions>
          <ns3:TrackPointExtension>
            <ns3:hr>136</ns3:hr>
            <ns3:cad>0</ns3:cad>
          </ns3:TrackPointExtension>
        </extensions>
      </trkpt>
      <trkpt lat="45.25922016240656375885009765625" lon="-71.129927337169647216796875">
        <ele>691.4000244140625</ele>
        <time>2026-08-22T01:58:39.000Z</time>
        <extensions>
          <ns3:TrackPointExtension>
            <ns3:hr>137</ns3:hr>
            <ns3:cad>0</ns3:cad>
          </ns3:TrackPointExtension>
        </extensions>
      </trkpt>
      <trkpt lat="45.25921530090272426605224609375" lon="-71.12991350702941417694091796875">
        <ele>691.5999755859375</ele>
        <time>2026-08-22T01:58:40.000Z</time>
        <extensions>
          <ns3:TrackPointExtension>
            <ns3:hr>137</ns3:hr>
            <ns3:cad>0</ns3:cad>
          </ns3:TrackPointExtension>
        </extensions>
      </trkpt>
      <trkpt lat="45.2592058293521404266357421875" lon="-71.12989976070821285247802734375">
        <ele>691.5999755859375</ele>
        <time>2026-08-22T01:58:41.000Z</time>
        <extensions>
          <ns3:TrackPointExtension>
            <ns3:hr>137</ns3:hr>
            <ns3:cad>0</ns3:cad>
          </ns3:TrackPointExtension>
        </extensions>
      </trkpt>
      <trkpt lat="45.25919853709638118743896484375" lon="-71.12989640794694423675537109375">
        <ele>691.79998779296875</ele>
        <time>2026-08-22T01:58:42.000Z</time>
        <extensions>
          <ns3:TrackPointExtension>
            <ns3:hr>137</ns3:hr>
            <ns3:cad>0</ns3:cad>
          </ns3:TrackPointExtension>
        </extensions>
      </trkpt>
      <trkpt lat="45.2591883949935436248779296875" lon="-71.1298923008143901824951171875">
        <ele>692</ele>
        <time>2026-08-22T01:58:43.000Z</time>
        <extensions>
          <ns3:TrackPointExtension>
            <ns3:hr>137</ns3:hr>
            <ns3:cad>0</ns3:cad>
          </ns3:TrackPointExtension>
        </extensions>
      </trkpt>
      <trkpt lat="45.25917422957718372344970703125" lon="-71.1298902891576290130615234375">
        <ele>692.20001220703125</ele>
        <time>2026-08-22T01:58:44.000Z</time>
        <extensions>
          <ns3:TrackPointExtension>
            <ns3:hr>138</ns3:hr>
            <ns3:cad>0</ns3:cad>
          </ns3:TrackPointExtension>
        </extensions>
      </trkpt>
      <trkpt lat="45.259164087474346160888671875" lon="-71.129890121519565582275390625">
        <ele>692.4000244140625</ele>
        <time>2026-08-22T01:58:45.000Z</time>
        <extensions>
          <ns3:TrackPointExtension>
            <ns3:hr>138</ns3:hr>
            <ns3:cad>0</ns3:cad>
          </ns3:TrackPointExtension>
        </extensions>
      </trkpt>
      <trkpt lat="45.25915495119988918304443359375" lon="-71.1298906244337558746337890625">
        <ele>692.5999755859375</ele>
        <time>2026-08-22T01:58:46.000Z</time>
        <extensions>
          <ns3:TrackPointExtension>
            <ns3:hr>138</ns3:hr>
            <ns3:cad>0</ns3:cad>
          </ns3:TrackPointExtension>
        </extensions>
      </trkpt>
      <trkpt lat="45.259141959249973297119140625" lon="-71.12988601438701152801513671875">
        <ele>692.79998779296875</ele>
        <time>2026-08-22T01:58:47.000Z</time>
        <extensions>
          <ns3:TrackPointExtension>
            <ns3:hr>138</ns3:hr>
            <ns3:cad>0</ns3:cad>
          </ns3:TrackPointExtension>
        </extensions>
      </trkpt>
      <trkpt lat="45.259133242070674896240234375" lon="-71.12988349981606006622314453125">
        <ele>692.79998779296875</ele>
        <time>2026-08-22T01:58:48.000Z</time>
        <extensions>
          <ns3:TrackPointExtension>
            <ns3:hr>138</ns3:hr>
            <ns3:cad>0</ns3:cad>
          </ns3:TrackPointExtension>
        </extensions>
      </trkpt>
      <trkpt lat="45.25912712328135967254638671875" lon="-71.12988148815929889678955078125">
        <ele>693</ele>
        <time>2026-08-22T01:58:49.000Z</time>
        <extensions>
          <ns3:TrackPointExtension>
            <ns3:hr>138</ns3:hr>
            <ns3:cad>0</ns3:cad>
          </ns3:TrackPointExtension>
        </extensions>
      </trkpt>
      <trkpt lat="45.25911949574947357177734375" lon="-71.129874698817729949951171875">
        <ele>693</ele>
        <time>2026-08-22T01:58:50.000Z</time>
        <extensions>
          <ns3:TrackPointExtension>
            <ns3:hr>137</ns3:hr>
            <ns3:cad>0</ns3:cad>
          </ns3:TrackPointExtension>
        </extensions>
      </trkpt>
      <trkpt lat="45.25911136530339717864990234375" lon="-71.129876710474491119384765625">
        <ele>693.20001220703125</ele>
        <time>2026-08-22T01:58:51.000Z</time>
        <extensions>
          <ns3:TrackPointExtension>
            <ns3:hr>137</ns3:hr>
            <ns3:cad>0</ns3:cad>
          </ns3:TrackPointExtension>
        </extensions>
      </trkpt>
      <trkpt lat="45.259104408323764801025390625" lon="-71.1298758722841739654541015625">
        <ele>693.20001220703125</ele>
        <time>2026-08-22T01:58:52.000Z</time>
        <extensions>
          <ns3:TrackPointExtension>
            <ns3:hr>136</ns3:hr>
            <ns3:cad>0</ns3:cad>
          </ns3:TrackPointExtension>
        </extensions>
      </trkpt>
      <trkpt lat="45.25909527204930782318115234375" lon="-71.129865311086177825927734375">
        <ele>693.4000244140625</ele>
        <time>2026-08-22T01:58:53.000Z</time>
        <extensions>
          <ns3:TrackPointExtension>
            <ns3:hr>136</ns3:hr>
            <ns3:cad>0</ns3:cad>
          </ns3:TrackPointExtension>
        </extensions>
      </trkpt>
      <trkpt lat="45.25908722542226314544677734375" lon="-71.1298604495823383331298828125">
        <ele>693.5999755859375</ele>
        <time>2026-08-22T01:58:54.000Z</time>
        <extensions>
          <ns3:TrackPointExtension>
            <ns3:hr>136</ns3:hr>
            <ns3:cad>79</ns3:cad>
          </ns3:TrackPointExtension>
        </extensions>
      </trkpt>
      <trkpt lat="45.25907532311975955963134765625" lon="-71.12985424697399139404296875">
        <ele>693.5999755859375</ele>
        <time>2026-08-22T01:58:55.000Z</time>
        <extensions>
          <ns3:TrackPointExtension>
            <ns3:hr>135</ns3:hr>
            <ns3:cad>79</ns3:cad>
          </ns3:TrackPointExtension>
        </extensions>
      </trkpt>
      <trkpt lat="45.259068869054317474365234375" lon="-71.12984846346080303192138671875">
        <ele>693.79998779296875</ele>
        <time>2026-08-22T01:58:56.000Z</time>
        <extensions>
          <ns3:TrackPointExtension>
            <ns3:hr>135</ns3:hr>
            <ns3:cad>73</ns3:cad>
          </ns3:TrackPointExtension>
        </extensions>
      </trkpt>
      <trkpt lat="45.2590598165988922119140625" lon="-71.12984142266213893890380859375">
        <ele>694</ele>
        <time>2026-08-22T01:58:57.000Z</time>
        <extensions>
          <ns3:TrackPointExtension>
            <ns3:hr>135</ns3:hr>
            <ns3:cad>73</ns3:cad>
          </ns3:TrackPointExtension>
        </extensions>
      </trkpt>
      <trkpt lat="45.2590544521808624267578125" lon="-71.1298369802534580230712890625">
        <ele>694.20001220703125</ele>
        <time>2026-08-22T01:58:58.000Z</time>
        <extensions>
          <ns3:TrackPointExtension>
            <ns3:hr>135</ns3:hr>
            <ns3:cad>0</ns3:cad>
          </ns3:TrackPointExtension>
        </extensions>
      </trkpt>
      <trkpt lat="45.25904330424964427947998046875" lon="-71.1298292689025402069091796875">
        <ele>694.4000244140625</ele>
        <time>2026-08-22T01:58:59.000Z</time>
        <extensions>
          <ns3:TrackPointExtension>
            <ns3:hr>135</ns3:hr>
            <ns3:cad>0</ns3:cad>
          </ns3:TrackPointExtension>
        </extensions>
      </trkpt>
      <trkpt lat="45.25903458707034587860107421875" lon="-71.12982549704611301422119140625">
        <ele>694.5999755859375</ele>
        <time>2026-08-22T01:59:00.000Z</time>
        <extensions>
          <ns3:TrackPointExtension>
            <ns3:hr>135</ns3:hr>
            <ns3:cad>0</ns3:cad>
          </ns3:TrackPointExtension>
        </extensions>
      </trkpt>
      <trkpt lat="45.25902218185365200042724609375" lon="-71.12982197664678096771240234375">
        <ele>694.79998779296875</ele>
        <time>2026-08-22T01:59:01.000Z</time>
        <extensions>
          <ns3:TrackPointExtension>
            <ns3:hr>136</ns3:hr>
            <ns3:cad>0</ns3:cad>
          </ns3:TrackPointExtension>
        </extensions>
      </trkpt>
      <trkpt lat="45.25901195593178272247314453125" lon="-71.1298213899135589599609375">
        <ele>695</ele>
        <time>2026-08-22T01:59:02.000Z</time>
        <extensions>
          <ns3:TrackPointExtension>
            <ns3:hr>136</ns3:hr>
            <ns3:cad>0</ns3:cad>
          </ns3:TrackPointExtension>
        </extensions>
      </trkpt>
      <trkpt lat="45.258999131619930267333984375" lon="-71.12981996499001979827880859375">
        <ele>695.20001220703125</ele>
        <time>2026-08-22T01:59:03.000Z</time>
        <extensions>
          <ns3:TrackPointExtension>
            <ns3:hr>136</ns3:hr>
            <ns3:cad>0</ns3:cad>
          </ns3:TrackPointExtension>
        </extensions>
      </trkpt>
      <trkpt lat="45.2589927613735198974609375" lon="-71.1298208869993686676025390625">
        <ele>695.4000244140625</ele>
        <time>2026-08-22T01:59:04.000Z</time>
        <extensions>
          <ns3:TrackPointExtension>
            <ns3:hr>136</ns3:hr>
            <ns3:cad>0</ns3:cad>
          </ns3:TrackPointExtension>
        </extensions>
      </trkpt>
      <trkpt lat="45.2589872293174266815185546875" lon="-71.12981778569519519805908203125">
        <ele>695.4000244140625</ele>
        <time>2026-08-22T01:59:05.000Z</time>
        <extensions>
          <ns3:TrackPointExtension>
            <ns3:hr>136</ns3:hr>
            <ns3:cad>0</ns3:cad>
          </ns3:TrackPointExtension>
        </extensions>
      </trkpt>
      <trkpt lat="45.25898379273712635040283203125" lon="-71.12981560640037059783935546875">
        <ele>695.5999755859375</ele>
        <time>2026-08-22T01:59:06.000Z</time>
        <extensions>
          <ns3:TrackPointExtension>
            <ns3:hr>136</ns3:hr>
            <ns3:cad>0</ns3:cad>
          </ns3:TrackPointExtension>
        </extensions>
      </trkpt>
      <trkpt lat="45.25898194871842861175537109375" lon="-71.12981476821005344390869140625">
        <ele>695.79998779296875</ele>
        <time>2026-08-22T01:59:07.000Z</time>
        <extensions>
          <ns3:TrackPointExtension>
            <ns3:hr>135</ns3:hr>
            <ns3:cad>0</ns3:cad>
          </ns3:TrackPointExtension>
        </extensions>
      </trkpt>
      <trkpt lat="45.25897557847201824188232421875" lon="-71.1298120021820068359375">
        <ele>696</ele>
        <time>2026-08-22T01:59:08.000Z</time>
        <extensions>
          <ns3:TrackPointExtension>
            <ns3:hr>135</ns3:hr>
            <ns3:cad>0</ns3:cad>
          </ns3:TrackPointExtension>
        </extensions>
      </trkpt>
      <trkpt lat="45.25896820239722728729248046875" lon="-71.12981677986681461334228515625">
        <ele>696.20001220703125</ele>
        <time>2026-08-22T01:59:09.000Z</time>
        <extensions>
          <ns3:TrackPointExtension>
            <ns3:hr>136</ns3:hr>
            <ns3:cad>0</ns3:cad>
          </ns3:TrackPointExtension>
        </extensions>
      </trkpt>
      <trkpt lat="45.25895856320858001708984375" lon="-71.129818372428417205810546875">
        <ele>696.20001220703125</ele>
        <time>2026-08-22T01:59:10.000Z</time>
        <extensions>
          <ns3:TrackPointExtension>
            <ns3:hr>136</ns3:hr>
            <ns3:cad>0</ns3:cad>
          </ns3:TrackPointExtension>
        </extensions>
      </trkpt>
      <trkpt lat="45.2589469961822032928466796875" lon="-71.129817031323909759521484375">
        <ele>696.4000244140625</ele>
        <time>2026-08-22T01:59:11.000Z</time>
        <extensions>
          <ns3:TrackPointExtension>
            <ns3:hr>136</ns3:hr>
            <ns3:cad>0</ns3:cad>
          </ns3:TrackPointExtension>
        </extensions>
      </trkpt>
      <trkpt lat="45.25893785990774631500244140625" lon="-71.12981267273426055908203125">
        <ele>696.5999755859375</ele>
        <time>2026-08-22T01:59:12.000Z</time>
        <extensions>
          <ns3:TrackPointExtension>
            <ns3:hr>136</ns3:hr>
            <ns3:cad>0</ns3:cad>
          </ns3:TrackPointExtension>
        </extensions>
      </trkpt>
      <trkpt lat="45.2589275501668453216552734375" lon="-71.1298084817826747894287109375">
        <ele>696.5999755859375</ele>
        <time>2026-08-22T01:59:13.000Z</time>
        <extensions>
          <ns3:TrackPointExtension>
            <ns3:hr>136</ns3:hr>
            <ns3:cad>0</ns3:cad>
          </ns3:TrackPointExtension>
        </extensions>
      </trkpt>
      <trkpt lat="45.25891791097819805145263671875" lon="-71.12980588339269161224365234375">
        <ele>696.5999755859375</ele>
        <time>2026-08-22T01:59:14.000Z</time>
        <extensions>
          <ns3:TrackPointExtension>
            <ns3:hr>136</ns3:hr>
            <ns3:cad>0</ns3:cad>
          </ns3:TrackPointExtension>
        </extensions>
      </trkpt>
      <trkpt lat="45.25890818797051906585693359375" lon="-71.12980169244110584259033203125">
        <ele>696.79998779296875</ele>
        <time>2026-08-22T01:59:15.000Z</time>
        <extensions>
          <ns3:TrackPointExtension>
            <ns3:hr>137</ns3:hr>
            <ns3:cad>0</ns3:cad>
          </ns3:TrackPointExtension>
        </extensions>
      </trkpt>
      <trkpt lat="45.258900225162506103515625" lon="-71.1297972500324249267578125">
        <ele>697</ele>
        <time>2026-08-22T01:59:16.000Z</time>
        <extensions>
          <ns3:TrackPointExtension>
            <ns3:hr>138</ns3:hr>
            <ns3:cad>0</ns3:cad>
          </ns3:TrackPointExtension>
        </extensions>
      </trkpt>
      <trkpt lat="45.2588960342109203338623046875" lon="-71.12979632802307605743408203125">
        <ele>697</ele>
        <time>2026-08-22T01:59:17.000Z</time>
        <extensions>
          <ns3:TrackPointExtension>
            <ns3:hr>138</ns3:hr>
            <ns3:cad>0</ns3:cad>
          </ns3:TrackPointExtension>
        </extensions>
      </trkpt>
      <trkpt lat="45.25888488627970218658447265625" lon="-71.1297944001853466033935546875">
        <ele>697.20001220703125</ele>
        <time>2026-08-22T01:59:18.000Z</time>
        <extensions>
          <ns3:TrackPointExtension>
            <ns3:hr>138</ns3:hr>
            <ns3:cad>0</ns3:cad>
          </ns3:TrackPointExtension>
        </extensions>
      </trkpt>
      <trkpt lat="45.25887541472911834716796875" lon="-71.12978895194828510284423828125">
        <ele>697.4000244140625</ele>
        <time>2026-08-22T01:59:19.000Z</time>
        <extensions>
          <ns3:TrackPointExtension>
            <ns3:hr>138</ns3:hr>
            <ns3:cad>0</ns3:cad>
          </ns3:TrackPointExtension>
        </extensions>
      </trkpt>
      <trkpt lat="45.25886745192110538482666015625" lon="-71.12978375516831874847412109375">
        <ele>697.79998779296875</ele>
        <time>2026-08-22T01:59:20.000Z</time>
        <extensions>
          <ns3:TrackPointExtension>
            <ns3:hr>138</ns3:hr>
            <ns3:cad>0</ns3:cad>
          </ns3:TrackPointExtension>
        </extensions>
      </trkpt>
      <trkpt lat="45.25886376388370990753173828125" lon="-71.129780821502208709716796875">
        <ele>698</ele>
        <time>2026-08-22T01:59:21.000Z</time>
        <extensions>
          <ns3:TrackPointExtension>
            <ns3:hr>137</ns3:hr>
            <ns3:cad>0</ns3:cad>
          </ns3:TrackPointExtension>
        </extensions>
      </trkpt>
      <trkpt lat="45.258857309818267822265625" lon="-71.12977503798902034759521484375">
        <ele>698.4000244140625</ele>
        <time>2026-08-22T01:59:22.000Z</time>
        <extensions>
          <ns3:TrackPointExtension>
            <ns3:hr>137</ns3:hr>
            <ns3:cad>44</ns3:cad>
          </ns3:TrackPointExtension>
        </extensions>
      </trkpt>
      <trkpt lat="45.25885119102895259857177734375" lon="-71.1297677457332611083984375">
        <ele>698.5999755859375</ele>
        <time>2026-08-22T01:59:23.000Z</time>
        <extensions>
          <ns3:TrackPointExtension>
            <ns3:hr>136</ns3:hr>
            <ns3:cad>44</ns3:cad>
          </ns3:TrackPointExtension>
        </extensions>
      </trkpt>
      <trkpt lat="45.258847586810588836669921875" lon="-71.1297679133713245391845703125">
        <ele>698.79998779296875</ele>
        <time>2026-08-22T01:59:24.000Z</time>
        <extensions>
          <ns3:TrackPointExtension>
            <ns3:hr>136</ns3:hr>
            <ns3:cad>44</ns3:cad>
          </ns3:TrackPointExtension>
        </extensions>
      </trkpt>
      <trkpt lat="45.25884431786835193634033203125" lon="-71.12976447679102420806884765625">
        <ele>699</ele>
        <time>2026-08-22T01:59:25.000Z</time>
        <extensions>
          <ns3:TrackPointExtension>
            <ns3:hr>135</ns3:hr>
            <ns3:cad>44</ns3:cad>
          </ns3:TrackPointExtension>
        </extensions>
      </trkpt>
      <trkpt lat="45.258838869631290435791015625" lon="-71.12975710071623325347900390625">
        <ele>699.20001220703125</ele>
        <time>2026-08-22T01:59:26.000Z</time>
        <extensions>
          <ns3:TrackPointExtension>
            <ns3:hr>135</ns3:hr>
            <ns3:cad>44</ns3:cad>
          </ns3:TrackPointExtension>
        </extensions>
      </trkpt>
      <trkpt lat="45.25883157737553119659423828125" lon="-71.1297461204230785369873046875">
        <ele>699.4000244140625</ele>
        <time>2026-08-22T01:59:27.000Z</time>
        <extensions>
          <ns3:TrackPointExtension>
            <ns3:hr>136</ns3:hr>
            <ns3:cad>0</ns3:cad>
          </ns3:TrackPointExtension>
        </extensions>
      </trkpt>
      <trkpt lat="45.25882353074848651885986328125" lon="-71.1297350563108921051025390625">
        <ele>699.5999755859375</ele>
        <time>2026-08-22T01:59:28.000Z</time>
        <extensions>
          <ns3:TrackPointExtension>
            <ns3:hr>136</ns3:hr>
            <ns3:cad>0</ns3:cad>
          </ns3:TrackPointExtension>
        </extensions>
      </trkpt>
      <trkpt lat="45.2588115446269512176513671875" lon="-71.12973086535930633544921875">
        <ele>699.79998779296875</ele>
        <time>2026-08-22T01:59:29.000Z</time>
        <extensions>
          <ns3:TrackPointExtension>
            <ns3:hr>135</ns3:hr>
            <ns3:cad>0</ns3:cad>
          </ns3:TrackPointExtension>
        </extensions>
      </trkpt>
      <trkpt lat="45.2588024921715259552001953125" lon="-71.1297320388257503509521484375">
        <ele>700</ele>
        <time>2026-08-22T01:59:30.000Z</time>
        <extensions>
          <ns3:TrackPointExtension>
            <ns3:hr>135</ns3:hr>
            <ns3:cad>0</ns3:cad>
          </ns3:TrackPointExtension>
        </extensions>
      </trkpt>
      <trkpt lat="45.258795954287052154541015625" lon="-71.1297310329973697662353515625">
        <ele>700.20001220703125</ele>
        <time>2026-08-22T01:59:31.000Z</time>
        <extensions>
          <ns3:TrackPointExtension>
            <ns3:hr>135</ns3:hr>
            <ns3:cad>0</ns3:cad>
          </ns3:TrackPointExtension>
        </extensions>
      </trkpt>
      <trkpt lat="45.2587914280593395233154296875" lon="-71.12972809933125972747802734375">
        <ele>700.4000244140625</ele>
        <time>2026-08-22T01:59:32.000Z</time>
        <extensions>
          <ns3:TrackPointExtension>
            <ns3:hr>135</ns3:hr>
            <ns3:cad>0</ns3:cad>
          </ns3:TrackPointExtension>
        </extensions>
      </trkpt>
      <trkpt lat="45.258783884346485137939453125" lon="-71.12972147762775421142578125">
        <ele>700.5999755859375</ele>
        <time>2026-08-22T01:59:33.000Z</time>
        <extensions>
          <ns3:TrackPointExtension>
            <ns3:hr>136</ns3:hr>
            <ns3:cad>0</ns3:cad>
          </ns3:TrackPointExtension>
        </extensions>
      </trkpt>
      <trkpt lat="45.258779190480709075927734375" lon="-71.1297129280865192413330078125">
        <ele>700.5999755859375</ele>
        <time>2026-08-22T01:59:34.000Z</time>
        <extensions>
          <ns3:TrackPointExtension>
            <ns3:hr>135</ns3:hr>
            <ns3:cad>0</ns3:cad>
          </ns3:TrackPointExtension>
        </extensions>
      </trkpt>
      <trkpt lat="45.2587709762156009674072265625" lon="-71.12970664165914058685302734375">
        <ele>700.79998779296875</ele>
        <time>2026-08-22T01:59:35.000Z</time>
        <extensions>
          <ns3:TrackPointExtension>
            <ns3:hr>135</ns3:hr>
            <ns3:cad>17</ns3:cad>
          </ns3:TrackPointExtension>
        </extensions>
      </trkpt>
      <trkpt lat="45.25876276195049285888671875" lon="-71.12970781512558460235595703125">
        <ele>701</ele>
        <time>2026-08-22T01:59:36.000Z</time>
        <extensions>
          <ns3:TrackPointExtension>
            <ns3:hr>135</ns3:hr>
            <ns3:cad>17</ns3:cad>
          </ns3:TrackPointExtension>
        </extensions>
      </trkpt>
      <trkpt lat="45.258755721151828765869140625" lon="-71.12970672547817230224609375">
        <ele>701</ele>
        <time>2026-08-22T01:59:37.000Z</time>
        <extensions>
          <ns3:TrackPointExtension>
            <ns3:hr>135</ns3:hr>
            <ns3:cad>0</ns3:cad>
          </ns3:TrackPointExtension>
        </extensions>
      </trkpt>
      <trkpt lat="45.2587465010583400726318359375" lon="-71.12969926558434963226318359375">
        <ele>701.20001220703125</ele>
        <time>2026-08-22T01:59:38.000Z</time>
        <extensions>
          <ns3:TrackPointExtension>
            <ns3:hr>135</ns3:hr>
            <ns3:cad>0</ns3:cad>
          </ns3:TrackPointExtension>
        </extensions>
      </trkpt>
      <trkpt lat="45.25874138809740543365478515625" lon="-71.12969423644244670867919921875">
        <ele>701.4000244140625</ele>
        <time>2026-08-22T01:59:39.000Z</time>
        <extensions>
          <ns3:TrackPointExtension>
            <ns3:hr>134</ns3:hr>
            <ns3:cad>0</ns3:cad>
          </ns3:TrackPointExtension>
        </extensions>
      </trkpt>
      <trkpt lat="45.25873669423162937164306640625" lon="-71.12969021312892436981201171875">
        <ele>701.5999755859375</ele>
        <time>2026-08-22T01:59:40.000Z</time>
        <extensions>
          <ns3:TrackPointExtension>
            <ns3:hr>134</ns3:hr>
            <ns3:cad>0</ns3:cad>
          </ns3:TrackPointExtension>
        </extensions>
      </trkpt>
      <trkpt lat="45.25873082689940929412841796875" lon="-71.12968367524445056915283203125">
        <ele>701.79998779296875</ele>
        <time>2026-08-22T01:59:41.000Z</time>
        <extensions>
          <ns3:TrackPointExtension>
            <ns3:hr>134</ns3:hr>
            <ns3:cad>0</ns3:cad>
          </ns3:TrackPointExtension>
        </extensions>
      </trkpt>
      <trkpt lat="45.258728899061679840087890625" lon="-71.12967747263610363006591796875">
        <ele>702</ele>
        <time>2026-08-22T01:59:42.000Z</time>
        <extensions>
          <ns3:TrackPointExtension>
            <ns3:hr>134</ns3:hr>
            <ns3:cad>0</ns3:cad>
          </ns3:TrackPointExtension>
        </extensions>
      </trkpt>
      <trkpt lat="45.25872479192912578582763671875" lon="-71.1296658217906951904296875">
        <ele>702.20001220703125</ele>
        <time>2026-08-22T01:59:43.000Z</time>
        <extensions>
          <ns3:TrackPointExtension>
            <ns3:hr>134</ns3:hr>
            <ns3:cad>0</ns3:cad>
          </ns3:TrackPointExtension>
        </extensions>
      </trkpt>
      <trkpt lat="45.25871842168271541595458984375" lon="-71.12966607324779033660888671875">
        <ele>702.4000244140625</ele>
        <time>2026-08-22T01:59:44.000Z</time>
        <extensions>
          <ns3:TrackPointExtension>
            <ns3:hr>134</ns3:hr>
            <ns3:cad>0</ns3:cad>
          </ns3:TrackPointExtension>
        </extensions>
      </trkpt>
      <trkpt lat="45.2587106265127658843994140625" lon="-71.12966707907617092132568359375">
        <ele>702.5999755859375</ele>
        <time>2026-08-22T01:59:45.000Z</time>
        <extensions>
          <ns3:TrackPointExtension>
            <ns3:hr>134</ns3:hr>
            <ns3:cad>0</ns3:cad>
          </ns3:TrackPointExtension>
        </extensions>
      </trkpt>
      <trkpt lat="45.25870400480926036834716796875" lon="-71.12966649234294891357421875">
        <ele>702.79998779296875</ele>
        <time>2026-08-22T01:59:46.000Z</time>
        <extensions>
          <ns3:TrackPointExtension>
            <ns3:hr>135</ns3:hr>
            <ns3:cad>0</ns3:cad>
          </ns3:TrackPointExtension>
        </extensions>
      </trkpt>
      <trkpt lat="45.25869436562061309814453125" lon="-71.12966573797166347503662109375">
        <ele>702.79998779296875</ele>
        <time>2026-08-22T01:59:47.000Z</time>
        <extensions>
          <ns3:TrackPointExtension>
            <ns3:hr>134</ns3:hr>
            <ns3:cad>0</ns3:cad>
          </ns3:TrackPointExtension>
        </extensions>
      </trkpt>
      <trkpt lat="45.2586861513555049896240234375" lon="-71.12966381013393402099609375">
        <ele>703</ele>
        <time>2026-08-22T01:59:48.000Z</time>
        <extensions>
          <ns3:TrackPointExtension>
            <ns3:hr>135</ns3:hr>
            <ns3:cad>0</ns3:cad>
          </ns3:TrackPointExtension>
        </extensions>
      </trkpt>
      <trkpt lat="45.2586789429187774658203125" lon="-71.12965852953493595123291015625">
        <ele>703</ele>
        <time>2026-08-22T01:59:49.000Z</time>
        <extensions>
          <ns3:TrackPointExtension>
            <ns3:hr>134</ns3:hr>
            <ns3:cad>0</ns3:cad>
          </ns3:TrackPointExtension>
        </extensions>
      </trkpt>
      <trkpt lat="45.2586730755865573883056640625" lon="-71.12965065054595470428466796875">
        <ele>703.20001220703125</ele>
        <time>2026-08-22T01:59:50.000Z</time>
        <extensions>
          <ns3:TrackPointExtension>
            <ns3:hr>134</ns3:hr>
            <ns3:cad>0</ns3:cad>
          </ns3:TrackPointExtension>
        </extensions>
      </trkpt>
      <trkpt lat="45.2586680464446544647216796875" lon="-71.129643358290195465087890625">
        <ele>703.20001220703125</ele>
        <time>2026-08-22T01:59:51.000Z</time>
        <extensions>
          <ns3:TrackPointExtension>
            <ns3:hr>134</ns3:hr>
            <ns3:cad>0</ns3:cad>
          </ns3:TrackPointExtension>
        </extensions>
      </trkpt>
      <trkpt lat="45.25866645388305187225341796875" lon="-71.12964143045246601104736328125">
        <ele>703.4000244140625</ele>
        <time>2026-08-22T01:59:52.000Z</time>
        <extensions>
          <ns3:TrackPointExtension>
            <ns3:hr>133</ns3:hr>
            <ns3:cad>0</ns3:cad>
          </ns3:TrackPointExtension>
        </extensions>
      </trkpt>
      <trkpt lat="45.25866310112178325653076171875" lon="-71.129629947245121002197265625">
        <ele>703.5999755859375</ele>
        <time>2026-08-22T01:59:53.000Z</time>
        <extensions>
          <ns3:TrackPointExtension>
            <ns3:hr>133</ns3:hr>
            <ns3:cad>0</ns3:cad>
          </ns3:TrackPointExtension>
        </extensions>
      </trkpt>
      <trkpt lat="45.25865840725600719451904296875" lon="-71.1296257562935352325439453125">
        <ele>703.79998779296875</ele>
        <time>2026-08-22T01:59:54.000Z</time>
        <extensions>
          <ns3:TrackPointExtension>
            <ns3:hr>134</ns3:hr>
            <ns3:cad>0</ns3:cad>
          </ns3:TrackPointExtension>
        </extensions>
      </trkpt>
      <trkpt lat="45.2586506120860576629638671875" lon="-71.129617877304553985595703125">
        <ele>704</ele>
        <time>2026-08-22T01:59:55.000Z</time>
        <extensions>
          <ns3:TrackPointExtension>
            <ns3:hr>134</ns3:hr>
            <ns3:cad>0</ns3:cad>
          </ns3:TrackPointExtension>
        </extensions>
      </trkpt>
      <trkpt lat="45.258643738925457000732421875" lon="-71.12960890866816043853759765625">
        <ele>704.20001220703125</ele>
        <time>2026-08-22T01:59:56.000Z</time>
        <extensions>
          <ns3:TrackPointExtension>
            <ns3:hr>134</ns3:hr>
            <ns3:cad>0</ns3:cad>
          </ns3:TrackPointExtension>
        </extensions>
      </trkpt>
      <trkpt lat="45.25864080525934696197509765625" lon="-71.12960555590689182281494140625">
        <ele>704.4000244140625</ele>
        <time>2026-08-22T01:59:57.000Z</time>
        <extensions>
          <ns3:TrackPointExtension>
            <ns3:hr>135</ns3:hr>
            <ns3:cad>0</ns3:cad>
          </ns3:TrackPointExtension>
        </extensions>
      </trkpt>
      <trkpt lat="45.25862856768071651458740234375" lon="-71.1295985989272594451904296875">
        <ele>704.5999755859375</ele>
        <time>2026-08-22T01:59:58.000Z</time>
        <extensions>
          <ns3:TrackPointExtension>
            <ns3:hr>135</ns3:hr>
            <ns3:cad>0</ns3:cad>
          </ns3:TrackPointExtension>
        </extensions>
      </trkpt>
      <trkpt lat="45.25862186215817928314208984375" lon="-71.129595749080181121826171875">
        <ele>704.79998779296875</ele>
        <time>2026-08-22T01:59:59.000Z</time>
        <extensions>
          <ns3:TrackPointExtension>
            <ns3:hr>135</ns3:hr>
            <ns3:cad>0</ns3:cad>
          </ns3:TrackPointExtension>
        </extensions>
      </trkpt>
      <trkpt lat="45.25861280970275402069091796875" lon="-71.129596419632434844970703125">
        <ele>705</ele>
        <time>2026-08-22T02:00:00.000Z</time>
        <extensions>
          <ns3:TrackPointExtension>
            <ns3:hr>135</ns3:hr>
            <ns3:cad>0</ns3:cad>
          </ns3:TrackPointExtension>
        </extensions>
      </trkpt>
      <trkpt lat="45.25859973393380641937255859375" lon="-71.12960136495530605316162109375">
        <ele>705</ele>
        <time>2026-08-22T02:00:01.000Z</time>
        <extensions>
          <ns3:TrackPointExtension>
            <ns3:hr>134</ns3:hr>
            <ns3:cad>49</ns3:cad>
          </ns3:TrackPointExtension>
        </extensions>
      </trkpt>
      <trkpt lat="45.25859084911644458770751953125" lon="-71.1296009458601474761962890625">
        <ele>705.20001220703125</ele>
        <time>2026-08-22T02:00:02.000Z</time>
        <extensions>
          <ns3:TrackPointExtension>
            <ns3:hr>134</ns3:hr>
            <ns3:cad>49</ns3:cad>
          </ns3:TrackPointExtension>
        </extensions>
      </trkpt>
      <trkpt lat="45.2585848979651927947998046875" lon="-71.129600442945957183837890625">
        <ele>705.20001220703125</ele>
        <time>2026-08-22T02:00:03.000Z</time>
        <extensions>
          <ns3:TrackPointExtension>
            <ns3:hr>134</ns3:hr>
            <ns3:cad>49</ns3:cad>
          </ns3:TrackPointExtension>
        </extensions>
      </trkpt>
      <trkpt lat="45.25857827626168727874755859375" lon="-71.12960069440305233001708984375">
        <ele>705.4000244140625</ele>
        <time>2026-08-22T02:00:04.000Z</time>
        <extensions>
          <ns3:TrackPointExtension>
            <ns3:hr>134</ns3:hr>
            <ns3:cad>0</ns3:cad>
          </ns3:TrackPointExtension>
        </extensions>
      </trkpt>
      <trkpt lat="45.2585724927484989166259765625" lon="-71.12959901802241802215576171875">
        <ele>705.4000244140625</ele>
        <time>2026-08-22T02:00:05.000Z</time>
        <extensions>
          <ns3:TrackPointExtension>
            <ns3:hr>133</ns3:hr>
            <ns3:cad>0</ns3:cad>
          </ns3:TrackPointExtension>
        </extensions>
      </trkpt>
      <trkpt lat="45.25856536813080310821533203125" lon="-71.12959918566048145294189453125">
        <ele>705.5999755859375</ele>
        <time>2026-08-22T02:00:06.000Z</time>
        <extensions>
          <ns3:TrackPointExtension>
            <ns3:hr>133</ns3:hr>
            <ns3:cad>0</ns3:cad>
          </ns3:TrackPointExtension>
        </extensions>
      </trkpt>
      <trkpt lat="45.25855581276118755340576171875" lon="-71.12959885038435459136962890625">
        <ele>705.79998779296875</ele>
        <time>2026-08-22T02:00:07.000Z</time>
        <extensions>
          <ns3:TrackPointExtension>
            <ns3:hr>134</ns3:hr>
            <ns3:cad>0</ns3:cad>
          </ns3:TrackPointExtension>
        </extensions>
      </trkpt>
      <trkpt lat="45.25855011306703090667724609375" lon="-71.129603795707225799560546875">
        <ele>706</ele>
        <time>2026-08-22T02:00:08.000Z</time>
        <extensions>
          <ns3:TrackPointExtension>
            <ns3:hr>133</ns3:hr>
            <ns3:cad>0</ns3:cad>
          </ns3:TrackPointExtension>
        </extensions>
      </trkpt>
      <trkpt lat="45.2585416473448276519775390625" lon="-71.12960924394428730010986328125">
        <ele>706</ele>
        <time>2026-08-22T02:00:09.000Z</time>
        <extensions>
          <ns3:TrackPointExtension>
            <ns3:hr>133</ns3:hr>
            <ns3:cad>0</ns3:cad>
          </ns3:TrackPointExtension>
        </extensions>
      </trkpt>
      <trkpt lat="45.2585282362997531890869140625" lon="-71.12962416373193264007568359375">
        <ele>706.20001220703125</ele>
        <time>2026-08-22T02:00:10.000Z</time>
        <extensions>
          <ns3:TrackPointExtension>
            <ns3:hr>133</ns3:hr>
            <ns3:cad>0</ns3:cad>
          </ns3:TrackPointExtension>
        </extensions>
      </trkpt>
      <trkpt lat="45.25852228514850139617919921875" lon="-71.12962617538869380950927734375">
        <ele>706.20001220703125</ele>
        <time>2026-08-22T02:00:11.000Z</time>
        <extensions>
          <ns3:TrackPointExtension>
            <ns3:hr>133</ns3:hr>
            <ns3:cad>0</ns3:cad>
          </ns3:TrackPointExtension>
        </extensions>
      </trkpt>
      <trkpt lat="45.25851407088339328765869140625" lon="-71.1296307854354381561279296875">
        <ele>706.4000244140625</ele>
        <time>2026-08-22T02:00:12.000Z</time>
        <extensions>
          <ns3:TrackPointExtension>
            <ns3:hr>133</ns3:hr>
            <ns3:cad>0</ns3:cad>
          </ns3:TrackPointExtension>
        </extensions>
      </trkpt>
      <trkpt lat="45.25851272977888584136962890625" lon="-71.12962969578802585601806640625">
        <ele>706.4000244140625</ele>
        <time>2026-08-22T02:00:13.000Z</time>
        <extensions>
          <ns3:TrackPointExtension>
            <ns3:hr>132</ns3:hr>
            <ns3:cad>0</ns3:cad>
          </ns3:TrackPointExtension>
        </extensions>
      </trkpt>
      <trkpt lat="45.25850686244666576385498046875" lon="-71.12962835468351840972900390625">
        <ele>706.5999755859375</ele>
        <time>2026-08-22T02:00:14.000Z</time>
        <extensions>
          <ns3:TrackPointExtension>
            <ns3:hr>133</ns3:hr>
            <ns3:cad>0</ns3:cad>
          </ns3:TrackPointExtension>
        </extensions>
      </trkpt>
      <trkpt lat="45.25849579833447933197021484375" lon="-71.1296301148831844329833984375">
        <ele>706.79998779296875</ele>
        <time>2026-08-22T02:00:15.000Z</time>
        <extensions>
          <ns3:TrackPointExtension>
            <ns3:hr>133</ns3:hr>
            <ns3:cad>0</ns3:cad>
          </ns3:TrackPointExtension>
        </extensions>
      </trkpt>
      <trkpt lat="45.25848490186035633087158203125" lon="-71.12963221035897731781005859375">
        <ele>707</ele>
        <time>2026-08-22T02:00:16.000Z</time>
        <extensions>
          <ns3:TrackPointExtension>
            <ns3:hr>133</ns3:hr>
            <ns3:cad>0</ns3:cad>
          </ns3:TrackPointExtension>
        </extensions>
      </trkpt>
      <trkpt lat="45.25847886689007282257080078125" lon="-71.12963673658668994903564453125">
        <ele>707.20001220703125</ele>
        <time>2026-08-22T02:00:17.000Z</time>
        <extensions>
          <ns3:TrackPointExtension>
            <ns3:hr>132</ns3:hr>
            <ns3:cad>0</ns3:cad>
          </ns3:TrackPointExtension>
        </extensions>
      </trkpt>
      <trkpt lat="45.25847040116786956787109375" lon="-71.12964226864278316497802734375">
        <ele>707.20001220703125</ele>
        <time>2026-08-22T02:00:18.000Z</time>
        <extensions>
          <ns3:TrackPointExtension>
            <ns3:hr>133</ns3:hr>
            <ns3:cad>0</ns3:cad>
          </ns3:TrackPointExtension>
        </extensions>
      </trkpt>
      <trkpt lat="45.258469395339488983154296875" lon="-71.12964746542274951934814453125">
        <ele>707.4000244140625</ele>
        <time>2026-08-22T02:00:19.000Z</time>
        <extensions>
          <ns3:TrackPointExtension>
            <ns3:hr>132</ns3:hr>
            <ns3:cad>0</ns3:cad>
          </ns3:TrackPointExtension>
        </extensions>
      </trkpt>
      <trkpt lat="45.2584618516266345977783203125" lon="-71.12966037355363368988037109375">
        <ele>707.4000244140625</ele>
        <time>2026-08-22T02:00:20.000Z</time>
        <extensions>
          <ns3:TrackPointExtension>
            <ns3:hr>132</ns3:hr>
            <ns3:cad>0</ns3:cad>
          </ns3:TrackPointExtension>
        </extensions>
      </trkpt>
      <trkpt lat="45.25845422409474849700927734375" lon="-71.12966774962842464447021484375">
        <ele>707.5999755859375</ele>
        <time>2026-08-22T02:00:21.000Z</time>
        <extensions>
          <ns3:TrackPointExtension>
            <ns3:hr>132</ns3:hr>
            <ns3:cad>0</ns3:cad>
          </ns3:TrackPointExtension>
        </extensions>
      </trkpt>
      <trkpt lat="45.25844818912446498870849609375" lon="-71.12967361696064472198486328125">
        <ele>707.5999755859375</ele>
        <time>2026-08-22T02:00:22.000Z</time>
        <extensions>
          <ns3:TrackPointExtension>
            <ns3:hr>132</ns3:hr>
            <ns3:cad>0</ns3:cad>
          </ns3:TrackPointExtension>
        </extensions>
      </trkpt>
      <trkpt lat="45.2584400586783885955810546875" lon="-71.12967914901673793792724609375">
        <ele>707.79998779296875</ele>
        <time>2026-08-22T02:00:23.000Z</time>
        <extensions>
          <ns3:TrackPointExtension>
            <ns3:hr>131</ns3:hr>
            <ns3:cad>0</ns3:cad>
          </ns3:TrackPointExtension>
        </extensions>
      </trkpt>
      <trkpt lat="45.25843041948974132537841796875" lon="-71.1296770535409450531005859375">
        <ele>707.79998779296875</ele>
        <time>2026-08-22T02:00:24.000Z</time>
        <extensions>
          <ns3:TrackPointExtension>
            <ns3:hr>132</ns3:hr>
            <ns3:cad>0</ns3:cad>
          </ns3:TrackPointExtension>
        </extensions>
      </trkpt>
      <trkpt lat="45.2584269829094409942626953125" lon="-71.12967453896999359130859375">
        <ele>708</ele>
        <time>2026-08-22T02:00:25.000Z</time>
        <extensions>
          <ns3:TrackPointExtension>
            <ns3:hr>132</ns3:hr>
            <ns3:cad>0</ns3:cad>
          </ns3:TrackPointExtension>
        </extensions>
      </trkpt>
      <trkpt lat="45.25841667316854000091552734375" lon="-71.1296787299215793609619140625">
        <ele>708</ele>
        <time>2026-08-22T02:00:26.000Z</time>
        <extensions>
          <ns3:TrackPointExtension>
            <ns3:hr>132</ns3:hr>
            <ns3:cad>0</ns3:cad>
          </ns3:TrackPointExtension>
        </extensions>
      </trkpt>
      <trkpt lat="45.258409716188907623291015625" lon="-71.129681579768657684326171875">
        <ele>708.20001220703125</ele>
        <time>2026-08-22T02:00:27.000Z</time>
        <extensions>
          <ns3:TrackPointExtension>
            <ns3:hr>132</ns3:hr>
            <ns3:cad>0</ns3:cad>
          </ns3:TrackPointExtension>
        </extensions>
      </trkpt>
      <trkpt lat="45.258403010666370391845703125" lon="-71.12968929111957550048828125">
        <ele>708.20001220703125</ele>
        <time>2026-08-22T02:00:28.000Z</time>
        <extensions>
          <ns3:TrackPointExtension>
            <ns3:hr>132</ns3:hr>
            <ns3:cad>0</ns3:cad>
          </ns3:TrackPointExtension>
        </extensions>
      </trkpt>
      <trkpt lat="45.258395634591579437255859375" lon="-71.12969608046114444732666015625">
        <ele>708.4000244140625</ele>
        <time>2026-08-22T02:00:29.000Z</time>
        <extensions>
          <ns3:TrackPointExtension>
            <ns3:hr>131</ns3:hr>
            <ns3:cad>0</ns3:cad>
          </ns3:TrackPointExtension>
        </extensions>
      </trkpt>
      <trkpt lat="45.25838867761194705963134765625" lon="-71.1297055520117282867431640625">
        <ele>708.4000244140625</ele>
        <time>2026-08-22T02:00:30.000Z</time>
        <extensions>
          <ns3:TrackPointExtension>
            <ns3:hr>131</ns3:hr>
            <ns3:cad>0</ns3:cad>
          </ns3:TrackPointExtension>
        </extensions>
      </trkpt>
      <trkpt lat="45.258380882441997528076171875" lon="-71.12971477210521697998046875">
        <ele>708.5999755859375</ele>
        <time>2026-08-22T02:00:31.000Z</time>
        <extensions>
          <ns3:TrackPointExtension>
            <ns3:hr>131</ns3:hr>
            <ns3:cad>0</ns3:cad>
          </ns3:TrackPointExtension>
        </extensions>
      </trkpt>
      <trkpt lat="45.25837518274784088134765625" lon="-71.12972457893192768096923828125">
        <ele>708.5999755859375</ele>
        <time>2026-08-22T02:00:32.000Z</time>
        <extensions>
          <ns3:TrackPointExtension>
            <ns3:hr>131</ns3:hr>
            <ns3:cad>0</ns3:cad>
          </ns3:TrackPointExtension>
        </extensions>
      </trkpt>
      <trkpt lat="45.2583678066730499267578125" lon="-71.12973178736865520477294921875">
        <ele>708.5999755859375</ele>
        <time>2026-08-22T02:00:33.000Z</time>
        <extensions>
          <ns3:TrackPointExtension>
            <ns3:hr>131</ns3:hr>
            <ns3:cad>0</ns3:cad>
          </ns3:TrackPointExtension>
        </extensions>
      </trkpt>
      <trkpt lat="45.25835984386503696441650390625" lon="-71.12973798997700214385986328125">
        <ele>708.4000244140625</ele>
        <time>2026-08-22T02:00:34.000Z</time>
        <extensions>
          <ns3:TrackPointExtension>
            <ns3:hr>132</ns3:hr>
            <ns3:cad>44</ns3:cad>
          </ns3:TrackPointExtension>
        </extensions>
      </trkpt>
      <trkpt lat="45.258350037038326263427734375" lon="-71.1297424323856830596923828125">
        <ele>708.4000244140625</ele>
        <time>2026-08-22T02:00:35.000Z</time>
        <extensions>
          <ns3:TrackPointExtension>
            <ns3:hr>131</ns3:hr>
            <ns3:cad>44</ns3:cad>
          </ns3:TrackPointExtension>
        </extensions>
      </trkpt>
      <trkpt lat="45.25834165513515472412109375" lon="-71.12974318675696849822998046875">
        <ele>708.4000244140625</ele>
        <time>2026-08-22T02:00:36.000Z</time>
        <extensions>
          <ns3:TrackPointExtension>
            <ns3:hr>132</ns3:hr>
            <ns3:cad>44</ns3:cad>
          </ns3:TrackPointExtension>
        </extensions>
      </trkpt>
      <trkpt lat="45.25833805091679096221923828125" lon="-71.1297409236431121826171875">
        <ele>708.5999755859375</ele>
        <time>2026-08-22T02:00:37.000Z</time>
        <extensions>
          <ns3:TrackPointExtension>
            <ns3:hr>132</ns3:hr>
            <ns3:cad>44</ns3:cad>
          </ns3:TrackPointExtension>
        </extensions>
      </trkpt>
      <trkpt lat="45.258331596851348876953125" lon="-71.129741258919239044189453125">
        <ele>708.79998779296875</ele>
        <time>2026-08-22T02:00:38.000Z</time>
        <extensions>
          <ns3:TrackPointExtension>
            <ns3:hr>132</ns3:hr>
            <ns3:cad>44</ns3:cad>
          </ns3:TrackPointExtension>
        </extensions>
      </trkpt>
      <trkpt lat="45.25832564570009708404541015625" lon="-71.12973681651055812835693359375">
        <ele>709</ele>
        <time>2026-08-22T02:00:39.000Z</time>
        <extensions>
          <ns3:TrackPointExtension>
            <ns3:hr>132</ns3:hr>
            <ns3:cad>43</ns3:cad>
          </ns3:TrackPointExtension>
        </extensions>
      </trkpt>
      <trkpt lat="45.2583173476159572601318359375" lon="-71.1297276802361011505126953125">
        <ele>709.20001220703125</ele>
        <time>2026-08-22T02:00:40.000Z</time>
        <extensions>
          <ns3:TrackPointExtension>
            <ns3:hr>131</ns3:hr>
            <ns3:cad>48</ns3:cad>
          </ns3:TrackPointExtension>
        </extensions>
      </trkpt>
      <trkpt lat="45.2583086304366588592529296875" lon="-71.1297196336090564727783203125">
        <ele>709.4000244140625</ele>
        <time>2026-08-22T02:00:41.000Z</time>
        <extensions>
          <ns3:TrackPointExtension>
            <ns3:hr>131</ns3:hr>
            <ns3:cad>48</ns3:cad>
          </ns3:TrackPointExtension>
        </extensions>
      </trkpt>
      <trkpt lat="45.258303098380565643310546875" lon="-71.12971569411456584930419921875">
        <ele>709.5999755859375</ele>
        <time>2026-08-22T02:00:42.000Z</time>
        <extensions>
          <ns3:TrackPointExtension>
            <ns3:hr>130</ns3:hr>
            <ns3:cad>48</ns3:cad>
          </ns3:TrackPointExtension>
        </extensions>
      </trkpt>
      <trkpt lat="45.2582975663244724273681640625" lon="-71.12971418537199497222900390625">
        <ele>709.79998779296875</ele>
        <time>2026-08-22T02:00:43.000Z</time>
        <extensions>
          <ns3:TrackPointExtension>
            <ns3:hr>130</ns3:hr>
            <ns3:cad>48</ns3:cad>
          </ns3:TrackPointExtension>
        </extensions>
      </trkpt>
      <trkpt lat="45.2582915313541889190673828125" lon="-71.12971301190555095672607421875">
        <ele>710</ele>
        <time>2026-08-22T02:00:44.000Z</time>
        <extensions>
          <ns3:TrackPointExtension>
            <ns3:hr>130</ns3:hr>
            <ns3:cad>0</ns3:cad>
          </ns3:TrackPointExtension>
        </extensions>
      </trkpt>
      <trkpt lat="45.258287005126476287841796875" lon="-71.12970848567783832550048828125">
        <ele>710.4000244140625</ele>
        <time>2026-08-22T02:00:45.000Z</time>
        <extensions>
          <ns3:TrackPointExtension>
            <ns3:hr>131</ns3:hr>
            <ns3:cad>0</ns3:cad>
          </ns3:TrackPointExtension>
        </extensions>
      </trkpt>
      <trkpt lat="45.25828189216554164886474609375" lon="-71.1297045461833477020263671875">
        <ele>710.5999755859375</ele>
        <time>2026-08-22T02:00:46.000Z</time>
        <extensions>
          <ns3:TrackPointExtension>
            <ns3:hr>130</ns3:hr>
            <ns3:cad>49</ns3:cad>
          </ns3:TrackPointExtension>
        </extensions>
      </trkpt>
      <trkpt lat="45.2582767792046070098876953125" lon="-71.12970010377466678619384765625">
        <ele>710.79998779296875</ele>
        <time>2026-08-22T02:00:47.000Z</time>
        <extensions>
          <ns3:TrackPointExtension>
            <ns3:hr>131</ns3:hr>
            <ns3:cad>49</ns3:cad>
          </ns3:TrackPointExtension>
        </extensions>
      </trkpt>
      <trkpt lat="45.25827485136687755584716796875" lon="-71.12969465553760528564453125">
        <ele>711</ele>
        <time>2026-08-22T02:00:48.000Z</time>
        <extensions>
          <ns3:TrackPointExtension>
            <ns3:hr>131</ns3:hr>
            <ns3:cad>49</ns3:cad>
          </ns3:TrackPointExtension>
        </extensions>
      </trkpt>
      <trkpt lat="45.2582730911672115325927734375" lon="-71.1296874471008777618408203125">
        <ele>711.20001220703125</ele>
        <time>2026-08-22T02:00:49.000Z</time>
        <extensions>
          <ns3:TrackPointExtension>
            <ns3:hr>131</ns3:hr>
            <ns3:cad>47</ns3:cad>
          </ns3:TrackPointExtension>
        </extensions>
      </trkpt>
      <trkpt lat="45.2582727558910846710205078125" lon="-71.1296770535409450531005859375">
        <ele>711.4000244140625</ele>
        <time>2026-08-22T02:00:50.000Z</time>
        <extensions>
          <ns3:TrackPointExtension>
            <ns3:hr>131</ns3:hr>
            <ns3:cad>47</ns3:cad>
          </ns3:TrackPointExtension>
        </extensions>
      </trkpt>
      <trkpt lat="45.25826781056821346282958984375" lon="-71.12967194058001041412353515625">
        <ele>711.79998779296875</ele>
        <time>2026-08-22T02:00:51.000Z</time>
        <extensions>
          <ns3:TrackPointExtension>
            <ns3:hr>130</ns3:hr>
            <ns3:cad>47</ns3:cad>
          </ns3:TrackPointExtension>
        </extensions>
      </trkpt>
      <trkpt lat="45.25826244615018367767333984375" lon="-71.1296686716377735137939453125">
        <ele>712</ele>
        <time>2026-08-22T02:00:52.000Z</time>
        <extensions>
          <ns3:TrackPointExtension>
            <ns3:hr>129</ns3:hr>
            <ns3:cad>46</ns3:cad>
          </ns3:TrackPointExtension>
        </extensions>
      </trkpt>
      <trkpt lat="45.2582576684653759002685546875" lon="-71.12966422922909259796142578125">
        <ele>712.20001220703125</ele>
        <time>2026-08-22T02:00:53.000Z</time>
        <extensions>
          <ns3:TrackPointExtension>
            <ns3:hr>129</ns3:hr>
            <ns3:cad>46</ns3:cad>
          </ns3:TrackPointExtension>
        </extensions>
      </trkpt>
      <trkpt lat="45.2582524716854095458984375" lon="-71.12965819425880908966064453125">
        <ele>712.4000244140625</ele>
        <time>2026-08-22T02:00:54.000Z</time>
        <extensions>
          <ns3:TrackPointExtension>
            <ns3:hr>128</ns3:hr>
            <ns3:cad>46</ns3:cad>
          </ns3:TrackPointExtension>
        </extensions>
      </trkpt>
      <trkpt lat="45.258247442543506622314453125" lon="-71.129650063812732696533203125">
        <ele>712.5999755859375</ele>
        <time>2026-08-22T02:00:55.000Z</time>
        <extensions>
          <ns3:TrackPointExtension>
            <ns3:hr>128</ns3:hr>
            <ns3:cad>46</ns3:cad>
          </ns3:TrackPointExtension>
        </extensions>
      </trkpt>
      <trkpt lat="45.258242748677730560302734375" lon="-71.12963698804378509521484375">
        <ele>712.79998779296875</ele>
        <time>2026-08-22T02:00:56.000Z</time>
        <extensions>
          <ns3:TrackPointExtension>
            <ns3:hr>129</ns3:hr>
            <ns3:cad>0</ns3:cad>
          </ns3:TrackPointExtension>
        </extensions>
      </trkpt>
      <trkpt lat="45.258240737020969390869140625" lon="-71.12963271327316761016845703125">
        <ele>712.79998779296875</ele>
        <time>2026-08-22T02:00:57.000Z</time>
        <extensions>
          <ns3:TrackPointExtension>
            <ns3:hr>128</ns3:hr>
            <ns3:cad>0</ns3:cad>
          </ns3:TrackPointExtension>
        </extensions>
      </trkpt>
      <trkpt lat="45.2582362107932567596435546875" lon="-71.12962332554161548614501953125">
        <ele>713</ele>
        <time>2026-08-22T02:00:58.000Z</time>
        <extensions>
          <ns3:TrackPointExtension>
            <ns3:hr>128</ns3:hr>
            <ns3:cad>46</ns3:cad>
          </ns3:TrackPointExtension>
        </extensions>
      </trkpt>
      <trkpt lat="45.25823746807873249053955078125" lon="-71.12962081097066402435302734375">
        <ele>713.20001220703125</ele>
        <time>2026-08-22T02:00:59.000Z</time>
        <extensions>
          <ns3:TrackPointExtension>
            <ns3:hr>128</ns3:hr>
            <ns3:cad>0</ns3:cad>
          </ns3:TrackPointExtension>
        </extensions>
      </trkpt>
      <trkpt lat="45.2582365460693836212158203125" lon="-71.1296073161065578460693359375">
        <ele>713.4000244140625</ele>
        <time>2026-08-22T02:01:00.000Z</time>
        <extensions>
          <ns3:TrackPointExtension>
            <ns3:hr>129</ns3:hr>
            <ns3:cad>0</ns3:cad>
          </ns3:TrackPointExtension>
        </extensions>
      </trkpt>
      <trkpt lat="45.25823570787906646728515625" lon="-71.129596419632434844970703125">
        <ele>713.5999755859375</ele>
        <time>2026-08-22T02:01:01.000Z</time>
        <extensions>
          <ns3:TrackPointExtension>
            <ns3:hr>129</ns3:hr>
            <ns3:cad>0</ns3:cad>
          </ns3:TrackPointExtension>
        </extensions>
      </trkpt>
      <trkpt lat="45.258235037326812744140625" lon="-71.1295908875763416290283203125">
        <ele>713.79998779296875</ele>
        <time>2026-08-22T02:01:02.000Z</time>
        <extensions>
          <ns3:TrackPointExtension>
            <ns3:hr>129</ns3:hr>
            <ns3:cad>0</ns3:cad>
          </ns3:TrackPointExtension>
        </extensions>
      </trkpt>
      <trkpt lat="45.25823595933616161346435546875" lon="-71.12957873381674289703369140625">
        <ele>714</ele>
        <time>2026-08-22T02:01:03.000Z</time>
        <extensions>
          <ns3:TrackPointExtension>
            <ns3:hr>129</ns3:hr>
            <ns3:cad>0</ns3:cad>
          </ns3:TrackPointExtension>
        </extensions>
      </trkpt>
      <trkpt lat="45.25823445059359073638916015625" lon="-71.1295650713145732879638671875">
        <ele>714.20001220703125</ele>
        <time>2026-08-22T02:01:04.000Z</time>
        <extensions>
          <ns3:TrackPointExtension>
            <ns3:hr>129</ns3:hr>
            <ns3:cad>0</ns3:cad>
          </ns3:TrackPointExtension>
        </extensions>
      </trkpt>
      <trkpt lat="45.25823277421295642852783203125" lon="-71.129557192325592041015625">
        <ele>714.20001220703125</ele>
        <time>2026-08-22T02:01:05.000Z</time>
        <extensions>
          <ns3:TrackPointExtension>
            <ns3:hr>129</ns3:hr>
            <ns3:cad>0</ns3:cad>
          </ns3:TrackPointExtension>
        </extensions>
      </trkpt>
      <trkpt lat="45.25823143310844898223876953125" lon="-71.129546463489532470703125">
        <ele>714.4000244140625</ele>
        <time>2026-08-22T02:01:06.000Z</time>
        <extensions>
          <ns3:TrackPointExtension>
            <ns3:hr>130</ns3:hr>
            <ns3:cad>0</ns3:cad>
          </ns3:TrackPointExtension>
        </extensions>
      </trkpt>
      <trkpt lat="45.2582288347184658050537109375" lon="-71.1295342259109020233154296875">
        <ele>714.5999755859375</ele>
        <time>2026-08-22T02:01:07.000Z</time>
        <extensions>
          <ns3:TrackPointExtension>
            <ns3:hr>130</ns3:hr>
            <ns3:cad>0</ns3:cad>
          </ns3:TrackPointExtension>
        </extensions>
      </trkpt>
      <trkpt lat="45.25822673924267292022705078125" lon="-71.1295268498361110687255859375">
        <ele>714.5999755859375</ele>
        <time>2026-08-22T02:01:08.000Z</time>
        <extensions>
          <ns3:TrackPointExtension>
            <ns3:hr>130</ns3:hr>
            <ns3:cad>0</ns3:cad>
          </ns3:TrackPointExtension>
        </extensions>
      </trkpt>
      <trkpt lat="45.25822187773883342742919921875" lon="-71.12951486371457576751708984375">
        <ele>714.79998779296875</ele>
        <time>2026-08-22T02:01:09.000Z</time>
        <extensions>
          <ns3:TrackPointExtension>
            <ns3:hr>130</ns3:hr>
            <ns3:cad>0</ns3:cad>
          </ns3:TrackPointExtension>
        </extensions>
      </trkpt>
      <trkpt lat="45.25821684859693050384521484375" lon="-71.12950145266950130462646484375">
        <ele>715</ele>
        <time>2026-08-22T02:01:10.000Z</time>
        <extensions>
          <ns3:TrackPointExtension>
            <ns3:hr>130</ns3:hr>
            <ns3:cad>0</ns3:cad>
          </ns3:TrackPointExtension>
        </extensions>
      </trkpt>
      <trkpt lat="45.2582140825688838958740234375" lon="-71.12949726171791553497314453125">
        <ele>715.20001220703125</ele>
        <time>2026-08-22T02:01:11.000Z</time>
        <extensions>
          <ns3:TrackPointExtension>
            <ns3:hr>130</ns3:hr>
            <ns3:cad>0</ns3:cad>
          </ns3:TrackPointExtension>
        </extensions>
      </trkpt>
      <trkpt lat="45.25821081362664699554443359375" lon="-71.12948753871023654937744140625">
        <ele>715.4000244140625</ele>
        <time>2026-08-22T02:01:12.000Z</time>
        <extensions>
          <ns3:TrackPointExtension>
            <ns3:hr>131</ns3:hr>
            <ns3:cad>0</ns3:cad>
          </ns3:TrackPointExtension>
        </extensions>
      </trkpt>
      <trkpt lat="45.25820754468441009521484375" lon="-71.12947463057935237884521484375">
        <ele>715.5999755859375</ele>
        <time>2026-08-22T02:01:13.000Z</time>
        <extensions>
          <ns3:TrackPointExtension>
            <ns3:hr>131</ns3:hr>
            <ns3:cad>0</ns3:cad>
          </ns3:TrackPointExtension>
        </extensions>
      </trkpt>
      <trkpt lat="45.2582040242850780487060546875" lon="-71.12947194837033748626708984375">
        <ele>715.79998779296875</ele>
        <time>2026-08-22T02:01:14.000Z</time>
        <extensions>
          <ns3:TrackPointExtension>
            <ns3:hr>131</ns3:hr>
            <ns3:cad>0</ns3:cad>
          </ns3:TrackPointExtension>
        </extensions>
      </trkpt>
      <trkpt lat="45.2582000009715557098388671875" lon="-71.12946205772459506988525390625">
        <ele>716.20001220703125</ele>
        <time>2026-08-22T02:01:15.000Z</time>
        <extensions>
          <ns3:TrackPointExtension>
            <ns3:hr>131</ns3:hr>
            <ns3:cad>0</ns3:cad>
          </ns3:TrackPointExtension>
        </extensions>
      </trkpt>
      <trkpt lat="45.25819807313382625579833984375" lon="-71.12945635803043842315673828125">
        <ele>716.4000244140625</ele>
        <time>2026-08-22T02:01:16.000Z</time>
        <extensions>
          <ns3:TrackPointExtension>
            <ns3:hr>132</ns3:hr>
            <ns3:cad>0</ns3:cad>
          </ns3:TrackPointExtension>
        </extensions>
      </trkpt>
      <trkpt lat="45.25819673202931880950927734375" lon="-71.12945233471691608428955078125">
        <ele>716.5999755859375</ele>
        <time>2026-08-22T02:01:17.000Z</time>
        <extensions>
          <ns3:TrackPointExtension>
            <ns3:hr>132</ns3:hr>
            <ns3:cad>0</ns3:cad>
          </ns3:TrackPointExtension>
        </extensions>
      </trkpt>
      <trkpt lat="45.25819036178290843963623046875" lon="-71.12943909130990505218505859375">
        <ele>717</ele>
        <time>2026-08-22T02:01:18.000Z</time>
        <extensions>
          <ns3:TrackPointExtension>
            <ns3:hr>133</ns3:hr>
            <ns3:cad>0</ns3:cad>
          </ns3:TrackPointExtension>
        </extensions>
      </trkpt>
      <trkpt lat="45.258185081183910369873046875" lon="-71.1294286139309406280517578125">
        <ele>717.20001220703125</ele>
        <time>2026-08-22T02:01:19.000Z</time>
        <extensions>
          <ns3:TrackPointExtension>
            <ns3:hr>133</ns3:hr>
            <ns3:cad>0</ns3:cad>
          </ns3:TrackPointExtension>
        </extensions>
      </trkpt>
      <trkpt lat="45.25818466208875179290771484375" lon="-71.12942241132259368896484375">
        <ele>717.4000244140625</ele>
        <time>2026-08-22T02:01:20.000Z</time>
        <extensions>
          <ns3:TrackPointExtension>
            <ns3:hr>134</ns3:hr>
            <ns3:cad>0</ns3:cad>
          </ns3:TrackPointExtension>
        </extensions>
      </trkpt>
      <trkpt lat="45.25817862711846828460693359375" lon="-71.129410676658153533935546875">
        <ele>717.79998779296875</ele>
        <time>2026-08-22T02:01:21.000Z</time>
        <extensions>
          <ns3:TrackPointExtension>
            <ns3:hr>134</ns3:hr>
            <ns3:cad>0</ns3:cad>
          </ns3:TrackPointExtension>
        </extensions>
      </trkpt>
      <trkpt lat="45.25817141868174076080322265625" lon="-71.12940003164112567901611328125">
        <ele>718</ele>
        <time>2026-08-22T02:01:22.000Z</time>
        <extensions>
          <ns3:TrackPointExtension>
            <ns3:hr>134</ns3:hr>
            <ns3:cad>0</ns3:cad>
          </ns3:TrackPointExtension>
        </extensions>
      </trkpt>
      <trkpt lat="45.25816253386437892913818359375" lon="-71.1293964274227619171142578125">
        <ele>718.20001220703125</ele>
        <time>2026-08-22T02:01:23.000Z</time>
        <extensions>
          <ns3:TrackPointExtension>
            <ns3:hr>134</ns3:hr>
            <ns3:cad>0</ns3:cad>
          </ns3:TrackPointExtension>
        </extensions>
      </trkpt>
      <trkpt lat="45.2581507153809070587158203125" lon="-71.12938997335731983184814453125">
        <ele>718.4000244140625</ele>
        <time>2026-08-22T02:01:24.000Z</time>
        <extensions>
          <ns3:TrackPointExtension>
            <ns3:hr>134</ns3:hr>
            <ns3:cad>0</ns3:cad>
          </ns3:TrackPointExtension>
        </extensions>
      </trkpt>
      <trkpt lat="45.25814585387706756591796875" lon="-71.129389889538288116455078125">
        <ele>718.5999755859375</ele>
        <time>2026-08-22T02:01:25.000Z</time>
        <extensions>
          <ns3:TrackPointExtension>
            <ns3:hr>135</ns3:hr>
            <ns3:cad>0</ns3:cad>
          </ns3:TrackPointExtension>
        </extensions>
      </trkpt>
      <trkpt lat="45.2581356279551982879638671875" lon="-71.12938812933862209320068359375">
        <ele>718.79998779296875</ele>
        <time>2026-08-22T02:01:26.000Z</time>
        <extensions>
          <ns3:TrackPointExtension>
            <ns3:hr>136</ns3:hr>
            <ns3:cad>0</ns3:cad>
          </ns3:TrackPointExtension>
        </extensions>
      </trkpt>
      <trkpt lat="45.25812649168074131011962890625" lon="-71.12939248792827129364013671875">
        <ele>718.79998779296875</ele>
        <time>2026-08-22T02:01:27.000Z</time>
        <extensions>
          <ns3:TrackPointExtension>
            <ns3:hr>137</ns3:hr>
            <ns3:cad>0</ns3:cad>
          </ns3:TrackPointExtension>
        </extensions>
      </trkpt>
      <trkpt lat="45.25812095962464809417724609375" lon="-71.1293920688331127166748046875">
        <ele>719</ele>
        <time>2026-08-22T02:01:28.000Z</time>
        <extensions>
          <ns3:TrackPointExtension>
            <ns3:hr>137</ns3:hr>
            <ns3:cad>0</ns3:cad>
          </ns3:TrackPointExtension>
        </extensions>
      </trkpt>
      <trkpt lat="45.25811173953115940093994140625" lon="-71.1293967626988887786865234375">
        <ele>719</ele>
        <time>2026-08-22T02:01:29.000Z</time>
        <extensions>
          <ns3:TrackPointExtension>
            <ns3:hr>137</ns3:hr>
            <ns3:cad>0</ns3:cad>
          </ns3:TrackPointExtension>
        </extensions>
      </trkpt>
      <trkpt lat="45.25810587219893932342529296875" lon="-71.1293984390795230865478515625">
        <ele>719.20001220703125</ele>
        <time>2026-08-22T02:01:30.000Z</time>
        <extensions>
          <ns3:TrackPointExtension>
            <ns3:hr>137</ns3:hr>
            <ns3:cad>0</ns3:cad>
          </ns3:TrackPointExtension>
        </extensions>
      </trkpt>
      <trkpt lat="45.2580995857715606689453125" lon="-71.12938930280506610870361328125">
        <ele>719.20001220703125</ele>
        <time>2026-08-22T02:01:31.000Z</time>
        <extensions>
          <ns3:TrackPointExtension>
            <ns3:hr>137</ns3:hr>
            <ns3:cad>0</ns3:cad>
          </ns3:TrackPointExtension>
        </extensions>
      </trkpt>
      <trkpt lat="45.25809464044868946075439453125" lon="-71.1293873749673366546630859375">
        <ele>719.4000244140625</ele>
        <time>2026-08-22T02:01:32.000Z</time>
        <extensions>
          <ns3:TrackPointExtension>
            <ns3:hr>136</ns3:hr>
            <ns3:cad>0</ns3:cad>
          </ns3:TrackPointExtension>
        </extensions>
      </trkpt>
      <trkpt lat="45.2580843307077884674072265625" lon="-71.1293836869299411773681640625">
        <ele>719.5999755859375</ele>
        <time>2026-08-22T02:01:33.000Z</time>
        <extensions>
          <ns3:TrackPointExtension>
            <ns3:hr>136</ns3:hr>
            <ns3:cad>0</ns3:cad>
          </ns3:TrackPointExtension>
        </extensions>
      </trkpt>
      <trkpt lat="45.25807536207139492034912109375" lon="-71.12938159145414829254150390625">
        <ele>719.79998779296875</ele>
        <time>2026-08-22T02:01:34.000Z</time>
        <extensions>
          <ns3:TrackPointExtension>
            <ns3:hr>136</ns3:hr>
            <ns3:cad>0</ns3:cad>
          </ns3:TrackPointExtension>
        </extensions>
      </trkpt>
      <trkpt lat="45.25807033292949199676513671875" lon="-71.129378490149974822998046875">
        <ele>720</ele>
        <time>2026-08-22T02:01:35.000Z</time>
        <extensions>
          <ns3:TrackPointExtension>
            <ns3:hr>136</ns3:hr>
            <ns3:cad>0</ns3:cad>
          </ns3:TrackPointExtension>
        </extensions>
      </trkpt>
      <trkpt lat="45.25806345976889133453369140625" lon="-71.12937748432159423828125">
        <ele>720.20001220703125</ele>
        <time>2026-08-22T02:01:36.000Z</time>
        <extensions>
          <ns3:TrackPointExtension>
            <ns3:hr>137</ns3:hr>
            <ns3:cad>0</ns3:cad>
          </ns3:TrackPointExtension>
        </extensions>
      </trkpt>
      <trkpt lat="45.2580521441996097564697265625" lon="-71.12937790341675281524658203125">
        <ele>720.20001220703125</ele>
        <time>2026-08-22T02:01:37.000Z</time>
        <extensions>
          <ns3:TrackPointExtension>
            <ns3:hr>137</ns3:hr>
            <ns3:cad>0</ns3:cad>
          </ns3:TrackPointExtension>
        </extensions>
      </trkpt>
      <trkpt lat="45.2580405771732330322265625" lon="-71.12938293255865573883056640625">
        <ele>720.4000244140625</ele>
        <time>2026-08-22T02:01:38.000Z</time>
        <extensions>
          <ns3:TrackPointExtension>
            <ns3:hr>137</ns3:hr>
            <ns3:cad>0</ns3:cad>
          </ns3:TrackPointExtension>
        </extensions>
      </trkpt>
      <trkpt lat="45.2580363862216472625732421875" lon="-71.12938477657735347747802734375">
        <ele>720.5999755859375</ele>
        <time>2026-08-22T02:01:39.000Z</time>
        <extensions>
          <ns3:TrackPointExtension>
            <ns3:hr>137</ns3:hr>
            <ns3:cad>0</ns3:cad>
          </ns3:TrackPointExtension>
        </extensions>
      </trkpt>
      <trkpt lat="45.2580340392887592315673828125" lon="-71.1293810047209262847900390625">
        <ele>720.79998779296875</ele>
        <time>2026-08-22T02:01:40.000Z</time>
        <extensions>
          <ns3:TrackPointExtension>
            <ns3:hr>137</ns3:hr>
            <ns3:cad>0</ns3:cad>
          </ns3:TrackPointExtension>
        </extensions>
      </trkpt>
      <trkpt lat="45.2580310218036174774169921875" lon="-71.12937622703611850738525390625">
        <ele>721</ele>
        <time>2026-08-22T02:01:41.000Z</time>
        <extensions>
          <ns3:TrackPointExtension>
            <ns3:hr>137</ns3:hr>
            <ns3:cad>0</ns3:cad>
          </ns3:TrackPointExtension>
        </extensions>
      </trkpt>
      <trkpt lat="45.2580233104526996612548828125" lon="-71.129370443522930145263671875">
        <ele>721.20001220703125</ele>
        <time>2026-08-22T02:01:42.000Z</time>
        <extensions>
          <ns3:TrackPointExtension>
            <ns3:hr>137</ns3:hr>
            <ns3:cad>0</ns3:cad>
          </ns3:TrackPointExtension>
        </extensions>
      </trkpt>
      <trkpt lat="45.25802054442465305328369140625" lon="-71.129367090761661529541015625">
        <ele>721.4000244140625</ele>
        <time>2026-08-22T02:01:43.000Z</time>
        <extensions>
          <ns3:TrackPointExtension>
            <ns3:hr>137</ns3:hr>
            <ns3:cad>0</ns3:cad>
          </ns3:TrackPointExtension>
        </extensions>
      </trkpt>
      <trkpt lat="45.258013419806957244873046875" lon="-71.12935862503945827484130859375">
        <ele>721.5999755859375</ele>
        <time>2026-08-22T02:01:44.000Z</time>
        <extensions>
          <ns3:TrackPointExtension>
            <ns3:hr>137</ns3:hr>
            <ns3:cad>40</ns3:cad>
          </ns3:TrackPointExtension>
        </extensions>
      </trkpt>
      <trkpt lat="45.258012078702449798583984375" lon="-71.12935527227818965911865234375">
        <ele>721.79998779296875</ele>
        <time>2026-08-22T02:01:45.000Z</time>
        <extensions>
          <ns3:TrackPointExtension>
            <ns3:hr>136</ns3:hr>
            <ns3:cad>40</ns3:cad>
          </ns3:TrackPointExtension>
        </extensions>
      </trkpt>
      <trkpt lat="45.25800696574151515960693359375" lon="-71.129350997507572174072265625">
        <ele>722</ele>
        <time>2026-08-22T02:01:46.000Z</time>
        <extensions>
          <ns3:TrackPointExtension>
            <ns3:hr>136</ns3:hr>
            <ns3:cad>40</ns3:cad>
          </ns3:TrackPointExtension>
        </extensions>
      </trkpt>
      <trkpt lat="45.25800394825637340545654296875" lon="-71.129348315298557281494140625">
        <ele>722.20001220703125</ele>
        <time>2026-08-22T02:01:47.000Z</time>
        <extensions>
          <ns3:TrackPointExtension>
            <ns3:hr>136</ns3:hr>
            <ns3:cad>40</ns3:cad>
          </ns3:TrackPointExtension>
        </extensions>
      </trkpt>
      <trkpt lat="45.25799606926739215850830078125" lon="-71.12934035249054431915283203125">
        <ele>722.20001220703125</ele>
        <time>2026-08-22T02:01:48.000Z</time>
        <extensions>
          <ns3:TrackPointExtension>
            <ns3:hr>136</ns3:hr>
            <ns3:cad>40</ns3:cad>
          </ns3:TrackPointExtension>
        </extensions>
      </trkpt>
      <trkpt lat="45.25799238122999668121337890625" lon="-71.1293374188244342803955078125">
        <ele>722.4000244140625</ele>
        <time>2026-08-22T02:01:49.000Z</time>
        <extensions>
          <ns3:TrackPointExtension>
            <ns3:hr>137</ns3:hr>
            <ns3:cad>40</ns3:cad>
          </ns3:TrackPointExtension>
        </extensions>
      </trkpt>
      <trkpt lat="45.25798617862164974212646484375" lon="-71.1293300427496433258056640625">
        <ele>722.5999755859375</ele>
        <time>2026-08-22T02:01:50.000Z</time>
        <extensions>
          <ns3:TrackPointExtension>
            <ns3:hr>136</ns3:hr>
            <ns3:cad>40</ns3:cad>
          </ns3:TrackPointExtension>
        </extensions>
      </trkpt>
      <trkpt lat="45.25797980837523937225341796875" lon="-71.1293278634548187255859375">
        <ele>722.79998779296875</ele>
        <time>2026-08-22T02:01:51.000Z</time>
        <extensions>
          <ns3:TrackPointExtension>
            <ns3:hr>136</ns3:hr>
            <ns3:cad>0</ns3:cad>
          </ns3:TrackPointExtension>
        </extensions>
      </trkpt>
      <trkpt lat="45.2579743601381778717041015625" lon="-71.12932526506483554840087890625">
        <ele>723</ele>
        <time>2026-08-22T02:01:52.000Z</time>
        <extensions>
          <ns3:TrackPointExtension>
            <ns3:hr>136</ns3:hr>
            <ns3:cad>0</ns3:cad>
          </ns3:TrackPointExtension>
        </extensions>
      </trkpt>
      <trkpt lat="45.2579686604440212249755859375" lon="-71.12932057119905948638916015625">
        <ele>723.20001220703125</ele>
        <time>2026-08-22T02:01:53.000Z</time>
        <extensions>
          <ns3:TrackPointExtension>
            <ns3:hr>136</ns3:hr>
            <ns3:cad>0</ns3:cad>
          </ns3:TrackPointExtension>
        </extensions>
      </trkpt>
      <trkpt lat="45.25796388275921344757080078125" lon="-71.12931520678102970123291015625">
        <ele>723.4000244140625</ele>
        <time>2026-08-22T02:01:54.000Z</time>
        <extensions>
          <ns3:TrackPointExtension>
            <ns3:hr>136</ns3:hr>
            <ns3:cad>0</ns3:cad>
          </ns3:TrackPointExtension>
        </extensions>
      </trkpt>
      <trkpt lat="45.2579601109027862548828125" lon="-71.12930967472493648529052734375">
        <ele>723.5999755859375</ele>
        <time>2026-08-22T02:01:55.000Z</time>
        <extensions>
          <ns3:TrackPointExtension>
            <ns3:hr>136</ns3:hr>
            <ns3:cad>0</ns3:cad>
          </ns3:TrackPointExtension>
        </extensions>
      </trkpt>
      <trkpt lat="45.25795365683734416961669921875" lon="-71.1293022148311138153076171875">
        <ele>723.79998779296875</ele>
        <time>2026-08-22T02:01:56.000Z</time>
        <extensions>
          <ns3:TrackPointExtension>
            <ns3:hr>136</ns3:hr>
            <ns3:cad>0</ns3:cad>
          </ns3:TrackPointExtension>
        </extensions>
      </trkpt>
      <trkpt lat="45.2579458616673946380615234375" lon="-71.1292971856892108917236328125">
        <ele>724</ele>
        <time>2026-08-22T02:01:57.000Z</time>
        <extensions>
          <ns3:TrackPointExtension>
            <ns3:hr>136</ns3:hr>
            <ns3:cad>0</ns3:cad>
          </ns3:TrackPointExtension>
        </extensions>
      </trkpt>
      <trkpt lat="45.2579401619732379913330078125" lon="-71.12929374910891056060791015625">
        <ele>724.20001220703125</ele>
        <time>2026-08-22T02:01:58.000Z</time>
        <extensions>
          <ns3:TrackPointExtension>
            <ns3:hr>136</ns3:hr>
            <ns3:cad>0</ns3:cad>
          </ns3:TrackPointExtension>
        </extensions>
      </trkpt>
      <trkpt lat="45.25793253444135189056396484375" lon="-71.12928888760507106781005859375">
        <ele>724.4000244140625</ele>
        <time>2026-08-22T02:01:59.000Z</time>
        <extensions>
          <ns3:TrackPointExtension>
            <ns3:hr>136</ns3:hr>
            <ns3:cad>0</ns3:cad>
          </ns3:TrackPointExtension>
        </extensions>
      </trkpt>
      <trkpt lat="45.2579237334430217742919921875" lon="-71.1292854510247707366943359375">
        <ele>724.5999755859375</ele>
        <time>2026-08-22T02:02:00.000Z</time>
        <extensions>
          <ns3:TrackPointExtension>
            <ns3:hr>138</ns3:hr>
            <ns3:cad>0</ns3:cad>
          </ns3:TrackPointExtension>
        </extensions>
      </trkpt>
      <trkpt lat="45.257910154759883880615234375" lon="-71.129287965595722198486328125">
        <ele>724.79998779296875</ele>
        <time>2026-08-22T02:02:01.000Z</time>
        <extensions>
          <ns3:TrackPointExtension>
            <ns3:hr>138</ns3:hr>
            <ns3:cad>0</ns3:cad>
          </ns3:TrackPointExtension>
        </extensions>
      </trkpt>
      <trkpt lat="45.2579037845134735107421875" lon="-71.12928939051926136016845703125">
        <ele>724.79998779296875</ele>
        <time>2026-08-22T02:02:02.000Z</time>
        <extensions>
          <ns3:TrackPointExtension>
            <ns3:hr>139</ns3:hr>
            <ns3:cad>0</ns3:cad>
          </ns3:TrackPointExtension>
        </extensions>
      </trkpt>
      <trkpt lat="45.257896073162555694580078125" lon="-71.12928939051926136016845703125">
        <ele>725</ele>
        <time>2026-08-22T02:02:03.000Z</time>
        <extensions>
          <ns3:TrackPointExtension>
            <ns3:hr>139</ns3:hr>
            <ns3:cad>0</ns3:cad>
          </ns3:TrackPointExtension>
        </extensions>
      </trkpt>
      <trkpt lat="45.257886685431003570556640625" lon="-71.12929056398570537567138671875">
        <ele>725.20001220703125</ele>
        <time>2026-08-22T02:02:04.000Z</time>
        <extensions>
          <ns3:TrackPointExtension>
            <ns3:hr>139</ns3:hr>
            <ns3:cad>0</ns3:cad>
          </ns3:TrackPointExtension>
        </extensions>
      </trkpt>
      <trkpt lat="45.25787570513784885406494140625" lon="-71.12929232418537139892578125">
        <ele>725.20001220703125</ele>
        <time>2026-08-22T02:02:05.000Z</time>
        <extensions>
          <ns3:TrackPointExtension>
            <ns3:hr>139</ns3:hr>
            <ns3:cad>0</ns3:cad>
          </ns3:TrackPointExtension>
        </extensions>
      </trkpt>
      <trkpt lat="45.2578640542924404144287109375" lon="-71.12929391674697399139404296875">
        <ele>725.4000244140625</ele>
        <time>2026-08-22T02:02:06.000Z</time>
        <extensions>
          <ns3:TrackPointExtension>
            <ns3:hr>138</ns3:hr>
            <ns3:cad>0</ns3:cad>
          </ns3:TrackPointExtension>
        </extensions>
      </trkpt>
      <trkpt lat="45.25786019861698150634765625" lon="-71.129293330013751983642578125">
        <ele>725.4000244140625</ele>
        <time>2026-08-22T02:02:07.000Z</time>
        <extensions>
          <ns3:TrackPointExtension>
            <ns3:hr>138</ns3:hr>
            <ns3:cad>0</ns3:cad>
          </ns3:TrackPointExtension>
        </extensions>
      </trkpt>
      <trkpt lat="45.257853828370571136474609375" lon="-71.1292894743382930755615234375">
        <ele>725.4000244140625</ele>
        <time>2026-08-22T02:02:08.000Z</time>
        <extensions>
          <ns3:TrackPointExtension>
            <ns3:hr>137</ns3:hr>
            <ns3:cad>0</ns3:cad>
          </ns3:TrackPointExtension>
        </extensions>
      </trkpt>
      <trkpt lat="45.2578499726951122283935546875" lon="-71.12928737886250019073486328125">
        <ele>725.5999755859375</ele>
        <time>2026-08-22T02:02:09.000Z</time>
        <extensions>
          <ns3:TrackPointExtension>
            <ns3:hr>138</ns3:hr>
            <ns3:cad>0</ns3:cad>
          </ns3:TrackPointExtension>
        </extensions>
      </trkpt>
      <trkpt lat="45.2578489668667316436767578125" lon="-71.1292874626815319061279296875">
        <ele>725.79998779296875</ele>
        <time>2026-08-22T02:02:10.000Z</time>
        <extensions>
          <ns3:TrackPointExtension>
            <ns3:hr>138</ns3:hr>
            <ns3:cad>0</ns3:cad>
          </ns3:TrackPointExtension>
        </extensions>
      </trkpt>
      <trkpt lat="45.2578456141054630279541015625" lon="-71.12928871996700763702392578125">
        <ele>726</ele>
        <time>2026-08-22T02:02:11.000Z</time>
        <extensions>
          <ns3:TrackPointExtension>
            <ns3:hr>140</ns3:hr>
            <ns3:cad>0</ns3:cad>
          </ns3:TrackPointExtension>
        </extensions>
      </trkpt>
      <trkpt lat="45.257841087877750396728515625" lon="-71.1292876303195953369140625">
        <ele>726.20001220703125</ele>
        <time>2026-08-22T02:02:12.000Z</time>
        <extensions>
          <ns3:TrackPointExtension>
            <ns3:hr>142</ns3:hr>
            <ns3:cad>0</ns3:cad>
          </ns3:TrackPointExtension>
        </extensions>
      </trkpt>
      <trkpt lat="45.257829688489437103271484375" lon="-71.129283271729946136474609375">
        <ele>726.20001220703125</ele>
        <time>2026-08-22T02:02:13.000Z</time>
        <extensions>
          <ns3:TrackPointExtension>
            <ns3:hr>142</ns3:hr>
            <ns3:cad>0</ns3:cad>
          </ns3:TrackPointExtension>
        </extensions>
      </trkpt>
      <trkpt lat="45.25782532989978790283203125" lon="-71.12927631475031375885009765625">
        <ele>726.4000244140625</ele>
        <time>2026-08-22T02:02:14.000Z</time>
        <extensions>
          <ns3:TrackPointExtension>
            <ns3:hr>141</ns3:hr>
            <ns3:cad>0</ns3:cad>
          </ns3:TrackPointExtension>
        </extensions>
      </trkpt>
      <trkpt lat="45.25781996548175811767578125" lon="-71.12927346490323543548583984375">
        <ele>726.4000244140625</ele>
        <time>2026-08-22T02:02:15.000Z</time>
        <extensions>
          <ns3:TrackPointExtension>
            <ns3:hr>140</ns3:hr>
            <ns3:cad>64</ns3:cad>
          </ns3:TrackPointExtension>
        </extensions>
      </trkpt>
      <trkpt lat="45.2578077279031276702880859375" lon="-71.1292686872184276580810546875">
        <ele>726.5999755859375</ele>
        <time>2026-08-22T02:02:16.000Z</time>
        <extensions>
          <ns3:TrackPointExtension>
            <ns3:hr>139</ns3:hr>
            <ns3:cad>64</ns3:cad>
          </ns3:TrackPointExtension>
        </extensions>
      </trkpt>
      <trkpt lat="45.257792137563228607177734375" lon="-71.12926374189555644989013671875">
        <ele>726.5999755859375</ele>
        <time>2026-08-22T02:02:17.000Z</time>
        <extensions>
          <ns3:TrackPointExtension>
            <ns3:hr>139</ns3:hr>
            <ns3:cad>64</ns3:cad>
          </ns3:TrackPointExtension>
        </extensions>
      </trkpt>
      <trkpt lat="45.257779061794281005859375" lon="-71.1292616464197635650634765625">
        <ele>726.79998779296875</ele>
        <time>2026-08-22T02:02:18.000Z</time>
        <extensions>
          <ns3:TrackPointExtension>
            <ns3:hr>139</ns3:hr>
            <ns3:cad>64</ns3:cad>
          </ns3:TrackPointExtension>
        </extensions>
      </trkpt>
      <trkpt lat="45.2577651478350162506103515625" lon="-71.1292599700391292572021484375">
        <ele>727</ele>
        <time>2026-08-22T02:02:19.000Z</time>
        <extensions>
          <ns3:TrackPointExtension>
            <ns3:hr>139</ns3:hr>
            <ns3:cad>64</ns3:cad>
          </ns3:TrackPointExtension>
        </extensions>
      </trkpt>
      <trkpt lat="45.2577517367899417877197265625" lon="-71.12926072441041469573974609375">
        <ele>727.20001220703125</ele>
        <time>2026-08-22T02:02:20.000Z</time>
        <extensions>
          <ns3:TrackPointExtension>
            <ns3:hr>139</ns3:hr>
            <ns3:cad>0</ns3:cad>
          </ns3:TrackPointExtension>
        </extensions>
      </trkpt>
      <trkpt lat="45.257746875286102294921875" lon="-71.12926089204847812652587890625">
        <ele>727.20001220703125</ele>
        <time>2026-08-22T02:02:21.000Z</time>
        <extensions>
          <ns3:TrackPointExtension>
            <ns3:hr>138</ns3:hr>
            <ns3:cad>0</ns3:cad>
          </ns3:TrackPointExtension>
        </extensions>
      </trkpt>
      <trkpt lat="45.257739834487438201904296875" lon="-71.12925745546817779541015625">
        <ele>727.4000244140625</ele>
        <time>2026-08-22T02:02:22.000Z</time>
        <extensions>
          <ns3:TrackPointExtension>
            <ns3:hr>138</ns3:hr>
            <ns3:cad>0</ns3:cad>
          </ns3:TrackPointExtension>
        </extensions>
      </trkpt>
      <trkpt lat="45.25772835128009319305419921875" lon="-71.12925133667886257171630859375">
        <ele>727.5999755859375</ele>
        <time>2026-08-22T02:02:23.000Z</time>
        <extensions>
          <ns3:TrackPointExtension>
            <ns3:hr>138</ns3:hr>
            <ns3:cad>0</ns3:cad>
          </ns3:TrackPointExtension>
        </extensions>
      </trkpt>
      <trkpt lat="45.25772063992917537689208984375" lon="-71.1292499117553234100341796875">
        <ele>727.79998779296875</ele>
        <time>2026-08-22T02:02:24.000Z</time>
        <extensions>
          <ns3:TrackPointExtension>
            <ns3:hr>139</ns3:hr>
            <ns3:cad>0</ns3:cad>
          </ns3:TrackPointExtension>
        </extensions>
      </trkpt>
      <trkpt lat="45.257717706263065338134765625" lon="-71.12924882210791110992431640625">
        <ele>728.20001220703125</ele>
        <time>2026-08-22T02:02:25.000Z</time>
        <extensions>
          <ns3:TrackPointExtension>
            <ns3:hr>139</ns3:hr>
            <ns3:cad>0</ns3:cad>
          </ns3:TrackPointExtension>
        </extensions>
      </trkpt>
      <trkpt lat="45.2577079832553863525390625" lon="-71.1292535997927188873291015625">
        <ele>728.4000244140625</ele>
        <time>2026-08-22T02:02:26.000Z</time>
        <extensions>
          <ns3:TrackPointExtension>
            <ns3:hr>139</ns3:hr>
            <ns3:cad>0</ns3:cad>
          </ns3:TrackPointExtension>
        </extensions>
      </trkpt>
      <trkpt lat="45.25769666768610477447509765625" lon="-71.12925871275365352630615234375">
        <ele>728.5999755859375</ele>
        <time>2026-08-22T02:02:27.000Z</time>
        <extensions>
          <ns3:TrackPointExtension>
            <ns3:hr>139</ns3:hr>
            <ns3:cad>0</ns3:cad>
          </ns3:TrackPointExtension>
        </extensions>
      </trkpt>
      <trkpt lat="45.25768895633518695831298828125" lon="-71.1292619816958904266357421875">
        <ele>728.79998779296875</ele>
        <time>2026-08-22T02:02:28.000Z</time>
        <extensions>
          <ns3:TrackPointExtension>
            <ns3:hr>140</ns3:hr>
            <ns3:cad>0</ns3:cad>
          </ns3:TrackPointExtension>
        </extensions>
      </trkpt>
      <trkpt lat="45.257682166993618011474609375" lon="-71.12926592119038105010986328125">
        <ele>729</ele>
        <time>2026-08-22T02:02:29.000Z</time>
        <extensions>
          <ns3:TrackPointExtension>
            <ns3:hr>140</ns3:hr>
            <ns3:cad>0</ns3:cad>
          </ns3:TrackPointExtension>
        </extensions>
      </trkpt>
      <trkpt lat="45.25767244398593902587890625" lon="-71.12926960922777652740478515625">
        <ele>729.20001220703125</ele>
        <time>2026-08-22T02:02:30.000Z</time>
        <extensions>
          <ns3:TrackPointExtension>
            <ns3:hr>140</ns3:hr>
            <ns3:cad>0</ns3:cad>
          </ns3:TrackPointExtension>
        </extensions>
      </trkpt>
      <trkpt lat="45.25765811093151569366455078125" lon="-71.12927480600774288177490234375">
        <ele>729.20001220703125</ele>
        <time>2026-08-22T02:02:31.000Z</time>
        <extensions>
          <ns3:TrackPointExtension>
            <ns3:hr>139</ns3:hr>
            <ns3:cad>0</ns3:cad>
          </ns3:TrackPointExtension>
        </extensions>
      </trkpt>
      <trkpt lat="45.2576489746570587158203125" lon="-71.12928871996700763702392578125">
        <ele>729.4000244140625</ele>
        <time>2026-08-22T02:02:32.000Z</time>
        <extensions>
          <ns3:TrackPointExtension>
            <ns3:hr>139</ns3:hr>
            <ns3:cad>0</ns3:cad>
          </ns3:TrackPointExtension>
        </extensions>
      </trkpt>
      <trkpt lat="45.25764386169612407684326171875" lon="-71.12930363975465297698974609375">
        <ele>729.4000244140625</ele>
        <time>2026-08-22T02:02:33.000Z</time>
        <extensions>
          <ns3:TrackPointExtension>
            <ns3:hr>139</ns3:hr>
            <ns3:cad>0</ns3:cad>
          </ns3:TrackPointExtension>
        </extensions>
      </trkpt>
      <trkpt lat="45.2576355636119842529296875" lon="-71.12931051291525363922119140625">
        <ele>729.4000244140625</ele>
        <time>2026-08-22T02:02:34.000Z</time>
        <extensions>
          <ns3:TrackPointExtension>
            <ns3:hr>138</ns3:hr>
            <ns3:cad>0</ns3:cad>
          </ns3:TrackPointExtension>
        </extensions>
      </trkpt>
      <trkpt lat="45.25762441568076610565185546875" lon="-71.12931638024747371673583984375">
        <ele>729.5999755859375</ele>
        <time>2026-08-22T02:02:35.000Z</time>
        <extensions>
          <ns3:TrackPointExtension>
            <ns3:hr>138</ns3:hr>
            <ns3:cad>0</ns3:cad>
          </ns3:TrackPointExtension>
        </extensions>
      </trkpt>
      <trkpt lat="45.2576159499585628509521484375" lon="-71.12932258285582065582275390625">
        <ele>729.79998779296875</ele>
        <time>2026-08-22T02:02:36.000Z</time>
        <extensions>
          <ns3:TrackPointExtension>
            <ns3:hr>138</ns3:hr>
            <ns3:cad>0</ns3:cad>
          </ns3:TrackPointExtension>
        </extensions>
      </trkpt>
      <trkpt lat="45.25760631076991558074951171875" lon="-71.1293327249586582183837890625">
        <ele>730</ele>
        <time>2026-08-22T02:02:37.000Z</time>
        <extensions>
          <ns3:TrackPointExtension>
            <ns3:hr>138</ns3:hr>
            <ns3:cad>0</ns3:cad>
          </ns3:TrackPointExtension>
        </extensions>
      </trkpt>
      <trkpt lat="45.257598347961902618408203125" lon="-71.12934202887117862701416015625">
        <ele>730</ele>
        <time>2026-08-22T02:02:38.000Z</time>
        <extensions>
          <ns3:TrackPointExtension>
            <ns3:hr>138</ns3:hr>
            <ns3:cad>0</ns3:cad>
          </ns3:TrackPointExtension>
        </extensions>
      </trkpt>
      <trkpt lat="45.257587619125843048095703125" lon="-71.1293471418321132659912109375">
        <ele>730.20001220703125</ele>
        <time>2026-08-22T02:02:39.000Z</time>
        <extensions>
          <ns3:TrackPointExtension>
            <ns3:hr>138</ns3:hr>
            <ns3:cad>51</ns3:cad>
          </ns3:TrackPointExtension>
        </extensions>
      </trkpt>
      <trkpt lat="45.2575740404427051544189453125" lon="-71.1293520033359527587890625">
        <ele>730.4000244140625</ele>
        <time>2026-08-22T02:02:40.000Z</time>
        <extensions>
          <ns3:TrackPointExtension>
            <ns3:hr>138</ns3:hr>
            <ns3:cad>51</ns3:cad>
          </ns3:TrackPointExtension>
        </extensions>
      </trkpt>
      <trkpt lat="45.2575658261775970458984375" lon="-71.1293511651456356048583984375">
        <ele>730.4000244140625</ele>
        <time>2026-08-22T02:02:41.000Z</time>
        <extensions>
          <ns3:TrackPointExtension>
            <ns3:hr>138</ns3:hr>
            <ns3:cad>51</ns3:cad>
          </ns3:TrackPointExtension>
        </extensions>
      </trkpt>
      <trkpt lat="45.25755803100764751434326171875" lon="-71.12935191951692104339599609375">
        <ele>730.5999755859375</ele>
        <time>2026-08-22T02:02:42.000Z</time>
        <extensions>
          <ns3:TrackPointExtension>
            <ns3:hr>138</ns3:hr>
            <ns3:cad>51</ns3:cad>
          </ns3:TrackPointExtension>
        </extensions>
      </trkpt>
      <trkpt lat="45.25754612870514392852783203125" lon="-71.12935208715498447418212890625">
        <ele>730.79998779296875</ele>
        <time>2026-08-22T02:02:43.000Z</time>
        <extensions>
          <ns3:TrackPointExtension>
            <ns3:hr>138</ns3:hr>
            <ns3:cad>51</ns3:cad>
          </ns3:TrackPointExtension>
        </extensions>
      </trkpt>
      <trkpt lat="45.257537998259067535400390625" lon="-71.1293602176010608673095703125">
        <ele>730.79998779296875</ele>
        <time>2026-08-22T02:02:44.000Z</time>
        <extensions>
          <ns3:TrackPointExtension>
            <ns3:hr>137</ns3:hr>
            <ns3:cad>51</ns3:cad>
          </ns3:TrackPointExtension>
        </extensions>
      </trkpt>
      <trkpt lat="45.257529281079769134521484375" lon="-71.1293669231235980987548828125">
        <ele>731</ele>
        <time>2026-08-22T02:02:45.000Z</time>
        <extensions>
          <ns3:TrackPointExtension>
            <ns3:hr>138</ns3:hr>
            <ns3:cad>51</ns3:cad>
          </ns3:TrackPointExtension>
        </extensions>
      </trkpt>
      <trkpt lat="45.2575220726430416107177734375" lon="-71.129373796284198760986328125">
        <ele>731.20001220703125</ele>
        <time>2026-08-22T02:02:46.000Z</time>
        <extensions>
          <ns3:TrackPointExtension>
            <ns3:hr>138</ns3:hr>
            <ns3:cad>48</ns3:cad>
          </ns3:TrackPointExtension>
        </extensions>
      </trkpt>
      <trkpt lat="45.25751427747309207916259765625" lon="-71.12937874160706996917724609375">
        <ele>731.4000244140625</ele>
        <time>2026-08-22T02:02:47.000Z</time>
        <extensions>
          <ns3:TrackPointExtension>
            <ns3:hr>138</ns3:hr>
            <ns3:cad>48</ns3:cad>
          </ns3:TrackPointExtension>
        </extensions>
      </trkpt>
      <trkpt lat="45.2575032971799373626708984375" lon="-71.129380166530609130859375">
        <ele>731.4000244140625</ele>
        <time>2026-08-22T02:02:48.000Z</time>
        <extensions>
          <ns3:TrackPointExtension>
            <ns3:hr>138</ns3:hr>
            <ns3:cad>48</ns3:cad>
          </ns3:TrackPointExtension>
        </extensions>
      </trkpt>
      <trkpt lat="45.25749248452484607696533203125" lon="-71.1293793283402919769287109375">
        <ele>731.79998779296875</ele>
        <time>2026-08-22T02:02:49.000Z</time>
        <extensions>
          <ns3:TrackPointExtension>
            <ns3:hr>137</ns3:hr>
            <ns3:cad>48</ns3:cad>
          </ns3:TrackPointExtension>
        </extensions>
      </trkpt>
      <trkpt lat="45.257484018802642822265625" lon="-71.129381172358989715576171875">
        <ele>731.79998779296875</ele>
        <time>2026-08-22T02:02:50.000Z</time>
        <extensions>
          <ns3:TrackPointExtension>
            <ns3:hr>137</ns3:hr>
            <ns3:cad>48</ns3:cad>
          </ns3:TrackPointExtension>
        </extensions>
      </trkpt>
      <trkpt lat="45.25747320614755153656005859375" lon="-71.129386536777019500732421875">
        <ele>732</ele>
        <time>2026-08-22T02:02:51.000Z</time>
        <extensions>
          <ns3:TrackPointExtension>
            <ns3:hr>137</ns3:hr>
            <ns3:cad>48</ns3:cad>
          </ns3:TrackPointExtension>
        </extensions>
      </trkpt>
      <trkpt lat="45.25746054947376251220703125" lon="-71.12939768470823764801025390625">
        <ele>732.20001220703125</ele>
        <time>2026-08-22T02:02:52.000Z</time>
        <extensions>
          <ns3:TrackPointExtension>
            <ns3:hr>137</ns3:hr>
            <ns3:cad>48</ns3:cad>
          </ns3:TrackPointExtension>
        </extensions>
      </trkpt>
      <trkpt lat="45.25745208375155925750732421875" lon="-71.1294034682214260101318359375">
        <ele>732.20001220703125</ele>
        <time>2026-08-22T02:02:53.000Z</time>
        <extensions>
          <ns3:TrackPointExtension>
            <ns3:hr>137</ns3:hr>
            <ns3:cad>46</ns3:cad>
          </ns3:TrackPointExtension>
        </extensions>
      </trkpt>
      <trkpt lat="45.2574452944099903106689453125" lon="-71.1294074915349483489990234375">
        <ele>732.4000244140625</ele>
        <time>2026-08-22T02:02:54.000Z</time>
        <extensions>
          <ns3:TrackPointExtension>
            <ns3:hr>137</ns3:hr>
            <ns3:cad>46</ns3:cad>
          </ns3:TrackPointExtension>
        </extensions>
      </trkpt>
      <trkpt lat="45.25743632577359676361083984375" lon="-71.12941646017134189605712890625">
        <ele>732.4000244140625</ele>
        <time>2026-08-22T02:02:55.000Z</time>
        <extensions>
          <ns3:TrackPointExtension>
            <ns3:hr>136</ns3:hr>
            <ns3:cad>46</ns3:cad>
          </ns3:TrackPointExtension>
        </extensions>
      </trkpt>
      <trkpt lat="45.2574224956333637237548828125" lon="-71.12942081876099109649658203125">
        <ele>732.5999755859375</ele>
        <time>2026-08-22T02:02:56.000Z</time>
        <extensions>
          <ns3:TrackPointExtension>
            <ns3:hr>136</ns3:hr>
            <ns3:cad>46</ns3:cad>
          </ns3:TrackPointExtension>
        </extensions>
      </trkpt>
      <trkpt lat="45.25741755031049251556396484375" lon="-71.12942534498870372772216796875">
        <ele>732.5999755859375</ele>
        <time>2026-08-22T02:02:57.000Z</time>
        <extensions>
          <ns3:TrackPointExtension>
            <ns3:hr>136</ns3:hr>
            <ns3:cad>46</ns3:cad>
          </ns3:TrackPointExtension>
        </extensions>
      </trkpt>
      <trkpt lat="45.25741553865373134613037109375" lon="-71.12943221814930438995361328125">
        <ele>732.5999755859375</ele>
        <time>2026-08-22T02:02:58.000Z</time>
        <extensions>
          <ns3:TrackPointExtension>
            <ns3:hr>136</ns3:hr>
            <ns3:cad>41</ns3:cad>
          </ns3:TrackPointExtension>
        </extensions>
      </trkpt>
      <trkpt lat="45.25741352699697017669677734375" lon="-71.12944060005247592926025390625">
        <ele>732.79998779296875</ele>
        <time>2026-08-22T02:02:59.000Z</time>
        <extensions>
          <ns3:TrackPointExtension>
            <ns3:hr>136</ns3:hr>
            <ns3:cad>41</ns3:cad>
          </ns3:TrackPointExtension>
        </extensions>
      </trkpt>
      <trkpt lat="45.25740824639797210693359375" lon="-71.129446886479854583740234375">
        <ele>732.79998779296875</ele>
        <time>2026-08-22T02:03:00.000Z</time>
        <extensions>
          <ns3:TrackPointExtension>
            <ns3:hr>136</ns3:hr>
            <ns3:cad>41</ns3:cad>
          </ns3:TrackPointExtension>
        </extensions>
      </trkpt>
      <trkpt lat="45.25739374570548534393310546875" lon="-71.12945937551558017730712890625">
        <ele>733</ele>
        <time>2026-08-22T02:03:01.000Z</time>
        <extensions>
          <ns3:TrackPointExtension>
            <ns3:hr>137</ns3:hr>
            <ns3:cad>41</ns3:cad>
          </ns3:TrackPointExtension>
        </extensions>
      </trkpt>
      <trkpt lat="45.25738812983036041259765625" lon="-71.129467003047466278076171875">
        <ele>733</ele>
        <time>2026-08-22T02:03:02.000Z</time>
        <extensions>
          <ns3:TrackPointExtension>
            <ns3:hr>136</ns3:hr>
            <ns3:cad>41</ns3:cad>
          </ns3:TrackPointExtension>
        </extensions>
      </trkpt>
      <trkpt lat="45.25737564079463481903076171875" lon="-71.12947613932192325592041015625">
        <ele>733.20001220703125</ele>
        <time>2026-08-22T02:03:03.000Z</time>
        <extensions>
          <ns3:TrackPointExtension>
            <ns3:hr>137</ns3:hr>
            <ns3:cad>41</ns3:cad>
          </ns3:TrackPointExtension>
        </extensions>
      </trkpt>
      <trkpt lat="45.2573675103485584259033203125" lon="-71.12947605550289154052734375">
        <ele>733.20001220703125</ele>
        <time>2026-08-22T02:03:04.000Z</time>
        <extensions>
          <ns3:TrackPointExtension>
            <ns3:hr>137</ns3:hr>
            <ns3:cad>41</ns3:cad>
          </ns3:TrackPointExtension>
        </extensions>
      </trkpt>
      <trkpt lat="45.2573597989976406097412109375" lon="-71.1294758878648281097412109375">
        <ele>733.20001220703125</ele>
        <time>2026-08-22T02:03:05.000Z</time>
        <extensions>
          <ns3:TrackPointExtension>
            <ns3:hr>138</ns3:hr>
            <ns3:cad>0</ns3:cad>
          </ns3:TrackPointExtension>
        </extensions>
      </trkpt>
      <trkpt lat="45.25735317729413509368896484375" lon="-71.12947463057935237884521484375">
        <ele>733.4000244140625</ele>
        <time>2026-08-22T02:03:06.000Z</time>
        <extensions>
          <ns3:TrackPointExtension>
            <ns3:hr>138</ns3:hr>
            <ns3:cad>0</ns3:cad>
          </ns3:TrackPointExtension>
        </extensions>
      </trkpt>
      <trkpt lat="45.25734663940966129302978515625" lon="-71.1294785700738430023193359375">
        <ele>733.4000244140625</ele>
        <time>2026-08-22T02:03:07.000Z</time>
        <extensions>
          <ns3:TrackPointExtension>
            <ns3:hr>137</ns3:hr>
            <ns3:cad>0</ns3:cad>
          </ns3:TrackPointExtension>
        </extensions>
      </trkpt>
      <trkpt lat="45.2573416940867900848388671875" lon="-71.12947999499738216400146484375">
        <ele>733.5999755859375</ele>
        <time>2026-08-22T02:03:08.000Z</time>
        <extensions>
          <ns3:TrackPointExtension>
            <ns3:hr>136</ns3:hr>
            <ns3:cad>0</ns3:cad>
          </ns3:TrackPointExtension>
        </extensions>
      </trkpt>
      <trkpt lat="45.25733339600265026092529296875" lon="-71.1294866167008876800537109375">
        <ele>733.79998779296875</ele>
        <time>2026-08-22T02:03:09.000Z</time>
        <extensions>
          <ns3:TrackPointExtension>
            <ns3:hr>136</ns3:hr>
            <ns3:cad>0</ns3:cad>
          </ns3:TrackPointExtension>
        </extensions>
      </trkpt>
      <trkpt lat="45.2573225833475589752197265625" lon="-71.129491142928600311279296875">
        <ele>734</ele>
        <time>2026-08-22T02:03:10.000Z</time>
        <extensions>
          <ns3:TrackPointExtension>
            <ns3:hr>136</ns3:hr>
            <ns3:cad>0</ns3:cad>
          </ns3:TrackPointExtension>
        </extensions>
      </trkpt>
      <trkpt lat="45.25731914676725864410400390625" lon="-71.12949617207050323486328125">
        <ele>734.20001220703125</ele>
        <time>2026-08-22T02:03:11.000Z</time>
        <extensions>
          <ns3:TrackPointExtension>
            <ns3:hr>135</ns3:hr>
            <ns3:cad>44</ns3:cad>
          </ns3:TrackPointExtension>
        </extensions>
      </trkpt>
      <trkpt lat="45.25731495581567287445068359375" lon="-71.12949692644178867340087890625">
        <ele>734.20001220703125</ele>
        <time>2026-08-22T02:03:12.000Z</time>
        <extensions>
          <ns3:TrackPointExtension>
            <ns3:hr>135</ns3:hr>
            <ns3:cad>44</ns3:cad>
          </ns3:TrackPointExtension>
        </extensions>
      </trkpt>
      <trkpt lat="45.25731143541634082794189453125" lon="-71.1294886283576488494873046875">
        <ele>734.4000244140625</ele>
        <time>2026-08-22T02:03:13.000Z</time>
        <extensions>
          <ns3:TrackPointExtension>
            <ns3:hr>135</ns3:hr>
            <ns3:cad>0</ns3:cad>
          </ns3:TrackPointExtension>
        </extensions>
      </trkpt>
      <trkpt lat="45.25730908848345279693603515625" lon="-71.1294862814247608184814453125">
        <ele>734.5999755859375</ele>
        <time>2026-08-22T02:03:14.000Z</time>
        <extensions>
          <ns3:TrackPointExtension>
            <ns3:hr>135</ns3:hr>
            <ns3:cad>0</ns3:cad>
          </ns3:TrackPointExtension>
        </extensions>
      </trkpt>
      <trkpt lat="45.25730322115123271942138671875" lon="-71.129483096301555633544921875">
        <ele>734.79998779296875</ele>
        <time>2026-08-22T02:03:15.000Z</time>
        <extensions>
          <ns3:TrackPointExtension>
            <ns3:hr>136</ns3:hr>
            <ns3:cad>0</ns3:cad>
          </ns3:TrackPointExtension>
        </extensions>
      </trkpt>
      <trkpt lat="45.25730003602802753448486328125" lon="-71.1294832639396190643310546875">
        <ele>735</ele>
        <time>2026-08-22T02:03:16.000Z</time>
        <extensions>
          <ns3:TrackPointExtension>
            <ns3:hr>135</ns3:hr>
            <ns3:cad>0</ns3:cad>
          </ns3:TrackPointExtension>
        </extensions>
      </trkpt>
      <trkpt lat="45.25729517452418804168701171875" lon="-71.12948544323444366455078125">
        <ele>735.4000244140625</ele>
        <time>2026-08-22T02:03:17.000Z</time>
        <extensions>
          <ns3:TrackPointExtension>
            <ns3:hr>135</ns3:hr>
            <ns3:cad>0</ns3:cad>
          </ns3:TrackPointExtension>
        </extensions>
      </trkpt>
      <trkpt lat="45.257291235029697418212890625" lon="-71.12947940826416015625">
        <ele>735.5999755859375</ele>
        <time>2026-08-22T02:03:18.000Z</time>
        <extensions>
          <ns3:TrackPointExtension>
            <ns3:hr>135</ns3:hr>
            <ns3:cad>0</ns3:cad>
          </ns3:TrackPointExtension>
        </extensions>
      </trkpt>
      <trkpt lat="45.2572895586490631103515625" lon="-71.1294789053499698638916015625">
        <ele>735.79998779296875</ele>
        <time>2026-08-22T02:03:19.000Z</time>
        <extensions>
          <ns3:TrackPointExtension>
            <ns3:hr>134</ns3:hr>
            <ns3:cad>0</ns3:cad>
          </ns3:TrackPointExtension>
        </extensions>
      </trkpt>
      <trkpt lat="45.25728293694555759429931640625" lon="-71.12947999499738216400146484375">
        <ele>736</ele>
        <time>2026-08-22T02:03:20.000Z</time>
        <extensions>
          <ns3:TrackPointExtension>
            <ns3:hr>134</ns3:hr>
            <ns3:cad>0</ns3:cad>
          </ns3:TrackPointExtension>
        </extensions>
      </trkpt>
      <trkpt lat="45.257274471223354339599609375" lon="-71.12948351539671421051025390625">
        <ele>736.20001220703125</ele>
        <time>2026-08-22T02:03:21.000Z</time>
        <extensions>
          <ns3:TrackPointExtension>
            <ns3:hr>134</ns3:hr>
            <ns3:cad>0</ns3:cad>
          </ns3:TrackPointExtension>
        </extensions>
      </trkpt>
      <trkpt lat="45.2572712861001491546630859375" lon="-71.1294849403202533721923828125">
        <ele>736.4000244140625</ele>
        <time>2026-08-22T02:03:22.000Z</time>
        <extensions>
          <ns3:TrackPointExtension>
            <ns3:hr>134</ns3:hr>
            <ns3:cad>0</ns3:cad>
          </ns3:TrackPointExtension>
        </extensions>
      </trkpt>
      <trkpt lat="45.2572672627866268157958984375" lon="-71.12948083318769931793212890625">
        <ele>736.4000244140625</ele>
        <time>2026-08-22T02:03:23.000Z</time>
        <extensions>
          <ns3:TrackPointExtension>
            <ns3:hr>133</ns3:hr>
            <ns3:cad>0</ns3:cad>
          </ns3:TrackPointExtension>
        </extensions>
      </trkpt>
      <trkpt lat="45.25725938379764556884765625" lon="-71.12947211600840091705322265625">
        <ele>736.79998779296875</ele>
        <time>2026-08-22T02:03:24.000Z</time>
        <extensions>
          <ns3:TrackPointExtension>
            <ns3:hr>134</ns3:hr>
            <ns3:cad>0</ns3:cad>
          </ns3:TrackPointExtension>
        </extensions>
      </trkpt>
      <trkpt lat="45.2572565339505672454833984375" lon="-71.12947295419871807098388671875">
        <ele>736.79998779296875</ele>
        <time>2026-08-22T02:03:25.000Z</time>
        <extensions>
          <ns3:TrackPointExtension>
            <ns3:hr>134</ns3:hr>
            <ns3:cad>0</ns3:cad>
          </ns3:TrackPointExtension>
        </extensions>
      </trkpt>
      <trkpt lat="45.25724236853420734405517578125" lon="-71.129471361637115478515625">
        <ele>737.20001220703125</ele>
        <time>2026-08-22T02:03:26.000Z</time>
        <extensions>
          <ns3:TrackPointExtension>
            <ns3:hr>133</ns3:hr>
            <ns3:cad>0</ns3:cad>
          </ns3:TrackPointExtension>
        </extensions>
      </trkpt>
      <trkpt lat="45.25723633356392383575439453125" lon="-71.12946909852325916290283203125">
        <ele>737.4000244140625</ele>
        <time>2026-08-22T02:03:27.000Z</time>
        <extensions>
          <ns3:TrackPointExtension>
            <ns3:hr>134</ns3:hr>
            <ns3:cad>0</ns3:cad>
          </ns3:TrackPointExtension>
        </extensions>
      </trkpt>
      <trkpt lat="45.25722526945173740386962890625" lon="-71.12946792505681514739990234375">
        <ele>737.5999755859375</ele>
        <time>2026-08-22T02:03:28.000Z</time>
        <extensions>
          <ns3:TrackPointExtension>
            <ns3:hr>134</ns3:hr>
            <ns3:cad>0</ns3:cad>
          </ns3:TrackPointExtension>
        </extensions>
      </trkpt>
      <trkpt lat="45.2572166360914707183837890625" lon="-71.12947211600840091705322265625">
        <ele>737.5999755859375</ele>
        <time>2026-08-22T02:03:29.000Z</time>
        <extensions>
          <ns3:TrackPointExtension>
            <ns3:hr>135</ns3:hr>
            <ns3:cad>0</ns3:cad>
          </ns3:TrackPointExtension>
        </extensions>
      </trkpt>
      <trkpt lat="45.2572112716734409332275390625" lon="-71.12947714515030384063720703125">
        <ele>737.79998779296875</ele>
        <time>2026-08-22T02:03:30.000Z</time>
        <extensions>
          <ns3:TrackPointExtension>
            <ns3:hr>135</ns3:hr>
            <ns3:cad>0</ns3:cad>
          </ns3:TrackPointExtension>
        </extensions>
      </trkpt>
      <trkpt lat="45.2572055719792842864990234375" lon="-71.1294802464544773101806640625">
        <ele>738</ele>
        <time>2026-08-22T02:03:31.000Z</time>
        <extensions>
          <ns3:TrackPointExtension>
            <ns3:hr>136</ns3:hr>
            <ns3:cad>0</ns3:cad>
          </ns3:TrackPointExtension>
        </extensions>
      </trkpt>
      <trkpt lat="45.25719811208546161651611328125" lon="-71.129488460719585418701171875">
        <ele>738.20001220703125</ele>
        <time>2026-08-22T02:03:32.000Z</time>
        <extensions>
          <ns3:TrackPointExtension>
            <ns3:hr>136</ns3:hr>
            <ns3:cad>0</ns3:cad>
          </ns3:TrackPointExtension>
        </extensions>
      </trkpt>
      <trkpt lat="45.25719174183905124664306640625" lon="-71.1294936574995517730712890625">
        <ele>738.4000244140625</ele>
        <time>2026-08-22T02:03:33.000Z</time>
        <extensions>
          <ns3:TrackPointExtension>
            <ns3:hr>136</ns3:hr>
            <ns3:cad>0</ns3:cad>
          </ns3:TrackPointExtension>
        </extensions>
      </trkpt>
      <trkpt lat="45.25718570686876773834228515625" lon="-71.12949860282242298126220703125">
        <ele>738.5999755859375</ele>
        <time>2026-08-22T02:03:34.000Z</time>
        <extensions>
          <ns3:TrackPointExtension>
            <ns3:hr>135</ns3:hr>
            <ns3:cad>0</ns3:cad>
          </ns3:TrackPointExtension>
        </extensions>
      </trkpt>
      <trkpt lat="45.257181935012340545654296875" lon="-71.12950195558369159698486328125">
        <ele>738.5999755859375</ele>
        <time>2026-08-22T02:03:35.000Z</time>
        <extensions>
          <ns3:TrackPointExtension>
            <ns3:hr>135</ns3:hr>
            <ns3:cad>0</ns3:cad>
          </ns3:TrackPointExtension>
        </extensions>
      </trkpt>
      <trkpt lat="45.25717363692820072174072265625" lon="-71.1295048892498016357421875">
        <ele>738.79998779296875</ele>
        <time>2026-08-22T02:03:36.000Z</time>
        <extensions>
          <ns3:TrackPointExtension>
            <ns3:hr>135</ns3:hr>
            <ns3:cad>0</ns3:cad>
          </ns3:TrackPointExtension>
        </extensions>
      </trkpt>
      <trkpt lat="45.25716818869113922119140625" lon="-71.12950497306883335113525390625">
        <ele>739</ele>
        <time>2026-08-22T02:03:37.000Z</time>
        <extensions>
          <ns3:TrackPointExtension>
            <ns3:hr>134</ns3:hr>
            <ns3:cad>0</ns3:cad>
          </ns3:TrackPointExtension>
        </extensions>
      </trkpt>
      <trkpt lat="45.2571599744260311126708984375" lon="-71.1295107565820217132568359375">
        <ele>739.20001220703125</ele>
        <time>2026-08-22T02:03:38.000Z</time>
        <extensions>
          <ns3:TrackPointExtension>
            <ns3:hr>133</ns3:hr>
            <ns3:cad>0</ns3:cad>
          </ns3:TrackPointExtension>
        </extensions>
      </trkpt>
      <trkpt lat="45.25715100578963756561279296875" lon="-71.1295191384851932525634765625">
        <ele>739.5999755859375</ele>
        <time>2026-08-22T02:03:39.000Z</time>
        <extensions>
          <ns3:TrackPointExtension>
            <ns3:hr>133</ns3:hr>
            <ns3:cad>0</ns3:cad>
          </ns3:TrackPointExtension>
        </extensions>
      </trkpt>
      <trkpt lat="45.2571385167539119720458984375" lon="-71.12952844239771366119384765625">
        <ele>739.79998779296875</ele>
        <time>2026-08-22T02:03:40.000Z</time>
        <extensions>
          <ns3:TrackPointExtension>
            <ns3:hr>133</ns3:hr>
            <ns3:cad>0</ns3:cad>
          </ns3:TrackPointExtension>
        </extensions>
      </trkpt>
      <trkpt lat="45.25712653063237667083740234375" lon="-71.12953430972993373870849609375">
        <ele>739.79998779296875</ele>
        <time>2026-08-22T02:03:41.000Z</time>
        <extensions>
          <ns3:TrackPointExtension>
            <ns3:hr>134</ns3:hr>
            <ns3:cad>0</ns3:cad>
          </ns3:TrackPointExtension>
        </extensions>
      </trkpt>
      <trkpt lat="45.2571163885295391082763671875" lon="-71.1295389197766780853271484375">
        <ele>739.79998779296875</ele>
        <time>2026-08-22T02:03:42.000Z</time>
        <extensions>
          <ns3:TrackPointExtension>
            <ns3:hr>133</ns3:hr>
            <ns3:cad>0</ns3:cad>
          </ns3:TrackPointExtension>
        </extensions>
      </trkpt>
      <trkpt lat="45.25710306130349636077880859375" lon="-71.12954084761440753936767578125">
        <ele>739.79998779296875</ele>
        <time>2026-08-22T02:03:43.000Z</time>
        <extensions>
          <ns3:TrackPointExtension>
            <ns3:hr>133</ns3:hr>
            <ns3:cad>0</ns3:cad>
          </ns3:TrackPointExtension>
        </extensions>
      </trkpt>
      <trkpt lat="45.2570986188948154449462890625" lon="-71.12953732721507549285888671875">
        <ele>739.79998779296875</ele>
        <time>2026-08-22T02:03:44.000Z</time>
        <extensions>
          <ns3:TrackPointExtension>
            <ns3:hr>133</ns3:hr>
            <ns3:cad>0</ns3:cad>
          </ns3:TrackPointExtension>
        </extensions>
      </trkpt>
      <trkpt lat="45.2570949308574199676513671875" lon="-71.12953883595764636993408203125">
        <ele>740</ele>
        <time>2026-08-22T02:03:45.000Z</time>
        <extensions>
          <ns3:TrackPointExtension>
            <ns3:hr>133</ns3:hr>
            <ns3:cad>0</ns3:cad>
          </ns3:TrackPointExtension>
        </extensions>
      </trkpt>
      <trkpt lat="45.25708981789648532867431640625" lon="-71.1295429430902004241943359375">
        <ele>740.20001220703125</ele>
        <time>2026-08-22T02:03:46.000Z</time>
        <extensions>
          <ns3:TrackPointExtension>
            <ns3:hr>134</ns3:hr>
            <ns3:cad>0</ns3:cad>
          </ns3:TrackPointExtension>
        </extensions>
      </trkpt>
      <trkpt lat="45.25708328001201152801513671875" lon="-71.12954168580472469329833984375">
        <ele>740.4000244140625</ele>
        <time>2026-08-22T02:03:47.000Z</time>
        <extensions>
          <ns3:TrackPointExtension>
            <ns3:hr>133</ns3:hr>
            <ns3:cad>0</ns3:cad>
          </ns3:TrackPointExtension>
        </extensions>
      </trkpt>
      <trkpt lat="45.25707690976560115814208984375" lon="-71.12954445183277130126953125">
        <ele>740.79998779296875</ele>
        <time>2026-08-22T02:03:48.000Z</time>
        <extensions>
          <ns3:TrackPointExtension>
            <ns3:hr>133</ns3:hr>
            <ns3:cad>47</ns3:cad>
          </ns3:TrackPointExtension>
        </extensions>
      </trkpt>
      <trkpt lat="45.257070958614349365234375" lon="-71.12954403273761272430419921875">
        <ele>741</ele>
        <time>2026-08-22T02:03:49.000Z</time>
        <extensions>
          <ns3:TrackPointExtension>
            <ns3:hr>134</ns3:hr>
            <ns3:cad>47</ns3:cad>
          </ns3:TrackPointExtension>
        </extensions>
      </trkpt>
      <trkpt lat="45.257067270576953887939453125" lon="-71.12954319454729557037353515625">
        <ele>741</ele>
        <time>2026-08-22T02:03:50.000Z</time>
        <extensions>
          <ns3:TrackPointExtension>
            <ns3:hr>133</ns3:hr>
            <ns3:cad>47</ns3:cad>
          </ns3:TrackPointExtension>
        </extensions>
      </trkpt>
      <trkpt lat="45.2570644207298755645751953125" lon="-71.12953984178602695465087890625">
        <ele>741.20001220703125</ele>
        <time>2026-08-22T02:03:51.000Z</time>
        <extensions>
          <ns3:TrackPointExtension>
            <ns3:hr>132</ns3:hr>
            <ns3:cad>40</ns3:cad>
          </ns3:TrackPointExtension>
        </extensions>
      </trkpt>
      <trkpt lat="45.25705679319798946380615234375" lon="-71.12953799776732921600341796875">
        <ele>741.4000244140625</ele>
        <time>2026-08-22T02:03:52.000Z</time>
        <extensions>
          <ns3:TrackPointExtension>
            <ns3:hr>132</ns3:hr>
            <ns3:cad>40</ns3:cad>
          </ns3:TrackPointExtension>
        </extensions>
      </trkpt>
      <trkpt lat="45.25704958476126194000244140625" lon="-71.1295372433960437774658203125">
        <ele>741.5999755859375</ele>
        <time>2026-08-22T02:03:53.000Z</time>
        <extensions>
          <ns3:TrackPointExtension>
            <ns3:hr>132</ns3:hr>
            <ns3:cad>42</ns3:cad>
          </ns3:TrackPointExtension>
        </extensions>
      </trkpt>
      <trkpt lat="45.257041119039058685302734375" lon="-71.129535399377346038818359375">
        <ele>741.5999755859375</ele>
        <time>2026-08-22T02:03:54.000Z</time>
        <extensions>
          <ns3:TrackPointExtension>
            <ns3:hr>131</ns3:hr>
            <ns3:cad>42</ns3:cad>
          </ns3:TrackPointExtension>
        </extensions>
      </trkpt>
      <trkpt lat="45.25703181512653827667236328125" lon="-71.12953648902475833892822265625">
        <ele>741.79998779296875</ele>
        <time>2026-08-22T02:03:55.000Z</time>
        <extensions>
          <ns3:TrackPointExtension>
            <ns3:hr>131</ns3:hr>
            <ns3:cad>42</ns3:cad>
          </ns3:TrackPointExtension>
        </extensions>
      </trkpt>
      <trkpt lat="45.257025696337223052978515625" lon="-71.129536740481853485107421875">
        <ele>742</ele>
        <time>2026-08-22T02:03:56.000Z</time>
        <extensions>
          <ns3:TrackPointExtension>
            <ns3:hr>132</ns3:hr>
            <ns3:cad>41</ns3:cad>
          </ns3:TrackPointExtension>
        </extensions>
      </trkpt>
      <trkpt lat="45.2570181526243686676025390625" lon="-71.1295369081199169158935546875">
        <ele>742</ele>
        <time>2026-08-22T02:03:57.000Z</time>
        <extensions>
          <ns3:TrackPointExtension>
            <ns3:hr>132</ns3:hr>
            <ns3:cad>41</ns3:cad>
          </ns3:TrackPointExtension>
        </extensions>
      </trkpt>
      <trkpt lat="45.2570114471018314361572265625" lon="-71.12953011877834796905517578125">
        <ele>742.20001220703125</ele>
        <time>2026-08-22T02:03:58.000Z</time>
        <extensions>
          <ns3:TrackPointExtension>
            <ns3:hr>132</ns3:hr>
            <ns3:cad>40</ns3:cad>
          </ns3:TrackPointExtension>
        </extensions>
      </trkpt>
      <trkpt lat="45.2570017240941524505615234375" lon="-71.12952609546482563018798828125">
        <ele>742.20001220703125</ele>
        <time>2026-08-22T02:03:59.000Z</time>
        <extensions>
          <ns3:TrackPointExtension>
            <ns3:hr>133</ns3:hr>
            <ns3:cad>40</ns3:cad>
          </ns3:TrackPointExtension>
        </extensions>
      </trkpt>
      <trkpt lat="45.25699677877128124237060546875" lon="-71.1295241676270961761474609375">
        <ele>742.4000244140625</ele>
        <time>2026-08-22T02:04:00.000Z</time>
        <extensions>
          <ns3:TrackPointExtension>
            <ns3:hr>133</ns3:hr>
            <ns3:cad>40</ns3:cad>
          </ns3:TrackPointExtension>
        </extensions>
      </trkpt>
      <trkpt lat="45.25699309073388576507568359375" lon="-71.129525005817413330078125">
        <ele>742.4000244140625</ele>
        <time>2026-08-22T02:04:01.000Z</time>
        <extensions>
          <ns3:TrackPointExtension>
            <ns3:hr>133</ns3:hr>
            <ns3:cad>40</ns3:cad>
          </ns3:TrackPointExtension>
        </extensions>
      </trkpt>
      <trkpt lat="45.25698739103972911834716796875" lon="-71.1295223236083984375">
        <ele>742.5999755859375</ele>
        <time>2026-08-22T02:04:02.000Z</time>
        <extensions>
          <ns3:TrackPointExtension>
            <ns3:hr>134</ns3:hr>
            <ns3:cad>40</ns3:cad>
          </ns3:TrackPointExtension>
        </extensions>
      </trkpt>
      <trkpt lat="45.2569812722504138946533203125" lon="-71.1295211501419544219970703125">
        <ele>742.79998779296875</ele>
        <time>2026-08-22T02:04:03.000Z</time>
        <extensions>
          <ns3:TrackPointExtension>
            <ns3:hr>134</ns3:hr>
            <ns3:cad>43</ns3:cad>
          </ns3:TrackPointExtension>
        </extensions>
      </trkpt>
      <trkpt lat="45.25697448290884494781494140625" lon="-71.129520647227764129638671875">
        <ele>743</ele>
        <time>2026-08-22T02:04:04.000Z</time>
        <extensions>
          <ns3:TrackPointExtension>
            <ns3:hr>134</ns3:hr>
            <ns3:cad>43</ns3:cad>
          </ns3:TrackPointExtension>
        </extensions>
      </trkpt>
      <trkpt lat="45.25696828030049800872802734375" lon="-71.12951905466616153717041015625">
        <ele>743.20001220703125</ele>
        <time>2026-08-22T02:04:05.000Z</time>
        <extensions>
          <ns3:TrackPointExtension>
            <ns3:hr>134</ns3:hr>
            <ns3:cad>46</ns3:cad>
          </ns3:TrackPointExtension>
        </extensions>
      </trkpt>
      <trkpt lat="45.25696056894958019256591796875" lon="-71.12952173687517642974853515625">
        <ele>743.4000244140625</ele>
        <time>2026-08-22T02:04:06.000Z</time>
        <extensions>
          <ns3:TrackPointExtension>
            <ns3:hr>135</ns3:hr>
            <ns3:cad>46</ns3:cad>
          </ns3:TrackPointExtension>
        </extensions>
      </trkpt>
      <trkpt lat="45.256953276693820953369140625" lon="-71.12952525727450847625732421875">
        <ele>743.5999755859375</ele>
        <time>2026-08-22T02:04:07.000Z</time>
        <extensions>
          <ns3:TrackPointExtension>
            <ns3:hr>135</ns3:hr>
            <ns3:cad>46</ns3:cad>
          </ns3:TrackPointExtension>
        </extensions>
      </trkpt>
      <trkpt lat="45.25694849900901317596435546875" lon="-71.1295288614928722381591796875">
        <ele>744</ele>
        <time>2026-08-22T02:04:08.000Z</time>
        <extensions>
          <ns3:TrackPointExtension>
            <ns3:hr>135</ns3:hr>
            <ns3:cad>46</ns3:cad>
          </ns3:TrackPointExtension>
        </extensions>
      </trkpt>
      <trkpt lat="45.25693994946777820587158203125" lon="-71.12952995114028453826904296875">
        <ele>744.20001220703125</ele>
        <time>2026-08-22T02:04:09.000Z</time>
        <extensions>
          <ns3:TrackPointExtension>
            <ns3:hr>135</ns3:hr>
            <ns3:cad>46</ns3:cad>
          </ns3:TrackPointExtension>
        </extensions>
      </trkpt>
      <trkpt lat="45.25692519731819629669189453125" lon="-71.1295362375676631927490234375">
        <ele>744.4000244140625</ele>
        <time>2026-08-22T02:04:10.000Z</time>
        <extensions>
          <ns3:TrackPointExtension>
            <ns3:hr>135</ns3:hr>
            <ns3:cad>43</ns3:cad>
          </ns3:TrackPointExtension>
        </extensions>
      </trkpt>
      <trkpt lat="45.2569199167191982269287109375" lon="-71.1295503191649913787841796875">
        <ele>744.5999755859375</ele>
        <time>2026-08-22T02:04:11.000Z</time>
        <extensions>
          <ns3:TrackPointExtension>
            <ns3:hr>135</ns3:hr>
            <ns3:cad>43</ns3:cad>
          </ns3:TrackPointExtension>
        </extensions>
      </trkpt>
      <trkpt lat="45.2569105289876461029052734375" lon="-71.12956079654395580291748046875">
        <ele>744.5999755859375</ele>
        <time>2026-08-22T02:04:12.000Z</time>
        <extensions>
          <ns3:TrackPointExtension>
            <ns3:hr>136</ns3:hr>
            <ns3:cad>43</ns3:cad>
          </ns3:TrackPointExtension>
        </extensions>
      </trkpt>
      <trkpt lat="45.2569031529128551483154296875" lon="-71.129570938646793365478515625">
        <ele>744.79998779296875</ele>
        <time>2026-08-22T02:04:13.000Z</time>
        <extensions>
          <ns3:TrackPointExtension>
            <ns3:hr>136</ns3:hr>
            <ns3:cad>43</ns3:cad>
          </ns3:TrackPointExtension>
        </extensions>
      </trkpt>
      <trkpt lat="45.25689502246677875518798828125" lon="-71.12958258949220180511474609375">
        <ele>744.79998779296875</ele>
        <time>2026-08-22T02:04:14.000Z</time>
        <extensions>
          <ns3:TrackPointExtension>
            <ns3:hr>135</ns3:hr>
            <ns3:cad>43</ns3:cad>
          </ns3:TrackPointExtension>
        </extensions>
      </trkpt>
      <trkpt lat="45.2568884007632732391357421875" lon="-71.12958845682442188262939453125">
        <ele>744.79998779296875</ele>
        <time>2026-08-22T02:04:15.000Z</time>
        <extensions>
          <ns3:TrackPointExtension>
            <ns3:hr>135</ns3:hr>
            <ns3:cad>0</ns3:cad>
          </ns3:TrackPointExtension>
        </extensions>
      </trkpt>
      <trkpt lat="45.2568818628787994384765625" lon="-71.129591055214405059814453125">
        <ele>744.79998779296875</ele>
        <time>2026-08-22T02:04:16.000Z</time>
        <extensions>
          <ns3:TrackPointExtension>
            <ns3:hr>136</ns3:hr>
            <ns3:cad>0</ns3:cad>
          </ns3:TrackPointExtension>
        </extensions>
      </trkpt>
      <trkpt lat="45.25687716901302337646484375" lon="-71.12960002385079860687255859375">
        <ele>744.79998779296875</ele>
        <time>2026-08-22T02:04:17.000Z</time>
        <extensions>
          <ns3:TrackPointExtension>
            <ns3:hr>136</ns3:hr>
            <ns3:cad>45</ns3:cad>
          </ns3:TrackPointExtension>
        </extensions>
      </trkpt>
      <trkpt lat="45.25687306188046932220458984375" lon="-71.1296123452484607696533203125">
        <ele>745</ele>
        <time>2026-08-22T02:04:18.000Z</time>
        <extensions>
          <ns3:TrackPointExtension>
            <ns3:hr>136</ns3:hr>
            <ns3:cad>45</ns3:cad>
          </ns3:TrackPointExtension>
        </extensions>
      </trkpt>
      <trkpt lat="45.2568672783672809600830078125" lon="-71.1296230740845203399658203125">
        <ele>745</ele>
        <time>2026-08-22T02:04:19.000Z</time>
        <extensions>
          <ns3:TrackPointExtension>
            <ns3:hr>136</ns3:hr>
            <ns3:cad>45</ns3:cad>
          </ns3:TrackPointExtension>
        </extensions>
      </trkpt>
      <trkpt lat="45.256864093244075775146484375" lon="-71.129629276692867279052734375">
        <ele>745.20001220703125</ele>
        <time>2026-08-22T02:04:20.000Z</time>
        <extensions>
          <ns3:TrackPointExtension>
            <ns3:hr>136</ns3:hr>
            <ns3:cad>45</ns3:cad>
          </ns3:TrackPointExtension>
        </extensions>
      </trkpt>
      <trkpt lat="45.25686115957796573638916015625" lon="-71.129630617797374725341796875">
        <ele>745.20001220703125</ele>
        <time>2026-08-22T02:04:21.000Z</time>
        <extensions>
          <ns3:TrackPointExtension>
            <ns3:hr>137</ns3:hr>
            <ns3:cad>45</ns3:cad>
          </ns3:TrackPointExtension>
        </extensions>
      </trkpt>
      <trkpt lat="45.25685596279799938201904296875" lon="-71.129632629454135894775390625">
        <ele>745.4000244140625</ele>
        <time>2026-08-22T02:04:22.000Z</time>
        <extensions>
          <ns3:TrackPointExtension>
            <ns3:hr>137</ns3:hr>
            <ns3:cad>43</ns3:cad>
          </ns3:TrackPointExtension>
        </extensions>
      </trkpt>
      <trkpt lat="45.25685168802738189697265625" lon="-71.12963153980672359466552734375">
        <ele>745.4000244140625</ele>
        <time>2026-08-22T02:04:23.000Z</time>
        <extensions>
          <ns3:TrackPointExtension>
            <ns3:hr>138</ns3:hr>
            <ns3:cad>43</ns3:cad>
          </ns3:TrackPointExtension>
        </extensions>
      </trkpt>
      <trkpt lat="45.256846658885478973388671875" lon="-71.129629276692867279052734375">
        <ele>745.5999755859375</ele>
        <time>2026-08-22T02:04:24.000Z</time>
        <extensions>
          <ns3:TrackPointExtension>
            <ns3:hr>138</ns3:hr>
            <ns3:cad>43</ns3:cad>
          </ns3:TrackPointExtension>
        </extensions>
      </trkpt>
      <trkpt lat="45.256841294467449188232421875" lon="-71.1296297796070575714111328125">
        <ele>745.79998779296875</ele>
        <time>2026-08-22T02:04:25.000Z</time>
        <extensions>
          <ns3:TrackPointExtension>
            <ns3:hr>138</ns3:hr>
            <ns3:cad>42</ns3:cad>
          </ns3:TrackPointExtension>
        </extensions>
      </trkpt>
      <trkpt lat="45.25683668442070484161376953125" lon="-71.12962852232158184051513671875">
        <ele>746</ele>
        <time>2026-08-22T02:04:26.000Z</time>
        <extensions>
          <ns3:TrackPointExtension>
            <ns3:hr>138</ns3:hr>
            <ns3:cad>42</ns3:cad>
          </ns3:TrackPointExtension>
        </extensions>
      </trkpt>
      <trkpt lat="45.25682997889816761016845703125" lon="-71.1296297796070575714111328125">
        <ele>746.20001220703125</ele>
        <time>2026-08-22T02:04:27.000Z</time>
        <extensions>
          <ns3:TrackPointExtension>
            <ns3:hr>138</ns3:hr>
            <ns3:cad>41</ns3:cad>
          </ns3:TrackPointExtension>
        </extensions>
      </trkpt>
      <trkpt lat="45.25682151317596435546875" lon="-71.12963053397834300994873046875">
        <ele>746.5999755859375</ele>
        <time>2026-08-22T02:04:28.000Z</time>
        <extensions>
          <ns3:TrackPointExtension>
            <ns3:hr>138</ns3:hr>
            <ns3:cad>41</ns3:cad>
          </ns3:TrackPointExtension>
        </extensions>
      </trkpt>
      <trkpt lat="45.25681774131953716278076171875" lon="-71.12963355146348476409912109375">
        <ele>746.79998779296875</ele>
        <time>2026-08-22T02:04:29.000Z</time>
        <extensions>
          <ns3:TrackPointExtension>
            <ns3:hr>138</ns3:hr>
            <ns3:cad>41</ns3:cad>
          </ns3:TrackPointExtension>
        </extensions>
      </trkpt>
      <trkpt lat="45.2568109519779682159423828125" lon="-71.12963824532926082611083984375">
        <ele>747</ele>
        <time>2026-08-22T02:04:30.000Z</time>
        <extensions>
          <ns3:TrackPointExtension>
            <ns3:hr>138</ns3:hr>
            <ns3:cad>43</ns3:cad>
          </ns3:TrackPointExtension>
        </extensions>
      </trkpt>
      <trkpt lat="45.2568042464554309844970703125" lon="-71.12964059226214885711669921875">
        <ele>747</ele>
        <time>2026-08-22T02:04:31.000Z</time>
        <extensions>
          <ns3:TrackPointExtension>
            <ns3:hr>138</ns3:hr>
            <ns3:cad>43</ns3:cad>
          </ns3:TrackPointExtension>
        </extensions>
      </trkpt>
      <trkpt lat="45.2567987143993377685546875" lon="-71.1296428553760051727294921875">
        <ele>747.20001220703125</ele>
        <time>2026-08-22T02:04:32.000Z</time>
        <extensions>
          <ns3:TrackPointExtension>
            <ns3:hr>138</ns3:hr>
            <ns3:cad>43</ns3:cad>
          </ns3:TrackPointExtension>
        </extensions>
      </trkpt>
      <trkpt lat="45.25679896585643291473388671875" lon="-71.1296381615102291107177734375">
        <ele>747.4000244140625</ele>
        <time>2026-08-22T02:04:33.000Z</time>
        <extensions>
          <ns3:TrackPointExtension>
            <ns3:hr>138</ns3:hr>
            <ns3:cad>43</ns3:cad>
          </ns3:TrackPointExtension>
        </extensions>
      </trkpt>
      <trkpt lat="45.2567901648581027984619140625" lon="-71.1296403408050537109375">
        <ele>747.5999755859375</ele>
        <time>2026-08-22T02:04:34.000Z</time>
        <extensions>
          <ns3:TrackPointExtension>
            <ns3:hr>138</ns3:hr>
            <ns3:cad>0</ns3:cad>
          </ns3:TrackPointExtension>
        </extensions>
      </trkpt>
      <trkpt lat="45.25678505189716815948486328125" lon="-71.129644699394702911376953125">
        <ele>747.79998779296875</ele>
        <time>2026-08-22T02:04:35.000Z</time>
        <extensions>
          <ns3:TrackPointExtension>
            <ns3:hr>138</ns3:hr>
            <ns3:cad>0</ns3:cad>
          </ns3:TrackPointExtension>
        </extensions>
      </trkpt>
      <trkpt lat="45.25677968747913837432861328125" lon="-71.129641346633434295654296875">
        <ele>748</ele>
        <time>2026-08-22T02:04:36.000Z</time>
        <extensions>
          <ns3:TrackPointExtension>
            <ns3:hr>138</ns3:hr>
            <ns3:cad>41</ns3:cad>
          </ns3:TrackPointExtension>
        </extensions>
      </trkpt>
      <trkpt lat="45.256773568689823150634765625" lon="-71.1296381615102291107177734375">
        <ele>748.20001220703125</ele>
        <time>2026-08-22T02:04:37.000Z</time>
        <extensions>
          <ns3:TrackPointExtension>
            <ns3:hr>138</ns3:hr>
            <ns3:cad>41</ns3:cad>
          </ns3:TrackPointExtension>
        </extensions>
      </trkpt>
      <trkpt lat="45.25676828809082508087158203125" lon="-71.1296418495476245880126953125">
        <ele>748.4000244140625</ele>
        <time>2026-08-22T02:04:38.000Z</time>
        <extensions>
          <ns3:TrackPointExtension>
            <ns3:hr>138</ns3:hr>
            <ns3:cad>41</ns3:cad>
          </ns3:TrackPointExtension>
        </extensions>
      </trkpt>
      <trkpt lat="45.25676309131085872650146484375" lon="-71.1296472139656543731689453125">
        <ele>748.4000244140625</ele>
        <time>2026-08-22T02:04:39.000Z</time>
        <extensions>
          <ns3:TrackPointExtension>
            <ns3:hr>138</ns3:hr>
            <ns3:cad>41</ns3:cad>
          </ns3:TrackPointExtension>
        </extensions>
      </trkpt>
      <trkpt lat="45.256758816540241241455078125" lon="-71.12964964471757411956787109375">
        <ele>748.5999755859375</ele>
        <time>2026-08-22T02:04:40.000Z</time>
        <extensions>
          <ns3:TrackPointExtension>
            <ns3:hr>138</ns3:hr>
            <ns3:cad>41</ns3:cad>
          </ns3:TrackPointExtension>
        </extensions>
      </trkpt>
      <trkpt lat="45.25675370357930660247802734375" lon="-71.12964763306081295013427734375">
        <ele>748.5999755859375</ele>
        <time>2026-08-22T02:04:41.000Z</time>
        <extensions>
          <ns3:TrackPointExtension>
            <ns3:hr>138</ns3:hr>
            <ns3:cad>41</ns3:cad>
          </ns3:TrackPointExtension>
        </extensions>
      </trkpt>
      <trkpt lat="45.25674532167613506317138671875" lon="-71.12964964471757411956787109375">
        <ele>748.79998779296875</ele>
        <time>2026-08-22T02:04:42.000Z</time>
        <extensions>
          <ns3:TrackPointExtension>
            <ns3:hr>138</ns3:hr>
            <ns3:cad>75</ns3:cad>
          </ns3:TrackPointExtension>
        </extensions>
      </trkpt>
      <trkpt lat="45.2567335031926631927490234375" lon="-71.129658780992031097412109375">
        <ele>748.79998779296875</ele>
        <time>2026-08-22T02:04:43.000Z</time>
        <extensions>
          <ns3:TrackPointExtension>
            <ns3:hr>138</ns3:hr>
            <ns3:cad>75</ns3:cad>
          </ns3:TrackPointExtension>
        </extensions>
      </trkpt>
      <trkpt lat="45.25672235526144504547119140625" lon="-71.12966246902942657470703125">
        <ele>748.79998779296875</ele>
        <time>2026-08-22T02:04:44.000Z</time>
        <extensions>
          <ns3:TrackPointExtension>
            <ns3:hr>138</ns3:hr>
            <ns3:cad>75</ns3:cad>
          </ns3:TrackPointExtension>
        </extensions>
      </trkpt>
      <trkpt lat="45.25671766139566898345947265625" lon="-71.12966381013393402099609375">
        <ele>748.79998779296875</ele>
        <time>2026-08-22T02:04:45.000Z</time>
        <extensions>
          <ns3:TrackPointExtension>
            <ns3:hr>138</ns3:hr>
            <ns3:cad>75</ns3:cad>
          </ns3:TrackPointExtension>
        </extensions>
      </trkpt>
      <trkpt lat="45.2567167393863201141357421875" lon="-71.12966523505747318267822265625">
        <ele>749</ele>
        <time>2026-08-22T02:04:46.000Z</time>
        <extensions>
          <ns3:TrackPointExtension>
            <ns3:hr>138</ns3:hr>
            <ns3:cad>75</ns3:cad>
          </ns3:TrackPointExtension>
        </extensions>
      </trkpt>
      <trkpt lat="45.25670475326478481292724609375" lon="-71.1296716891229152679443359375">
        <ele>749</ele>
        <time>2026-08-22T02:04:47.000Z</time>
        <extensions>
          <ns3:TrackPointExtension>
            <ns3:hr>138</ns3:hr>
            <ns3:cad>75</ns3:cad>
          </ns3:TrackPointExtension>
        </extensions>
      </trkpt>
      <trkpt lat="45.25669880211353302001953125" lon="-71.129675209522247314453125">
        <ele>749.4000244140625</ele>
        <time>2026-08-22T02:04:48.000Z</time>
        <extensions>
          <ns3:TrackPointExtension>
            <ns3:hr>138</ns3:hr>
            <ns3:cad>0</ns3:cad>
          </ns3:TrackPointExtension>
        </extensions>
      </trkpt>
      <trkpt lat="45.2566922642290592193603515625" lon="-71.1296777240931987762451171875">
        <ele>749.5999755859375</ele>
        <time>2026-08-22T02:04:49.000Z</time>
        <extensions>
          <ns3:TrackPointExtension>
            <ns3:hr>137</ns3:hr>
            <ns3:cad>0</ns3:cad>
          </ns3:TrackPointExtension>
        </extensions>
      </trkpt>
      <trkpt lat="45.25668941438198089599609375" lon="-71.1296783946454524993896484375">
        <ele>750</ele>
        <time>2026-08-22T02:04:50.000Z</time>
        <extensions>
          <ns3:TrackPointExtension>
            <ns3:hr>138</ns3:hr>
            <ns3:cad>0</ns3:cad>
          </ns3:TrackPointExtension>
        </extensions>
      </trkpt>
      <trkpt lat="45.25668329559266567230224609375" lon="-71.12968258559703826904296875">
        <ele>750.20001220703125</ele>
        <time>2026-08-22T02:04:51.000Z</time>
        <extensions>
          <ns3:TrackPointExtension>
            <ns3:hr>138</ns3:hr>
            <ns3:cad>0</ns3:cad>
          </ns3:TrackPointExtension>
        </extensions>
      </trkpt>
      <trkpt lat="45.2566781826317310333251953125" lon="-71.12968870438635349273681640625">
        <ele>750.4000244140625</ele>
        <time>2026-08-22T02:04:52.000Z</time>
        <extensions>
          <ns3:TrackPointExtension>
            <ns3:hr>138</ns3:hr>
            <ns3:cad>0</ns3:cad>
          </ns3:TrackPointExtension>
        </extensions>
      </trkpt>
      <trkpt lat="45.25667306967079639434814453125" lon="-71.12969390116631984710693359375">
        <ele>750.5999755859375</ele>
        <time>2026-08-22T02:04:53.000Z</time>
        <extensions>
          <ns3:TrackPointExtension>
            <ns3:hr>138</ns3:hr>
            <ns3:cad>0</ns3:cad>
          </ns3:TrackPointExtension>
        </extensions>
      </trkpt>
      <trkpt lat="45.25666167028248310089111328125" lon="-71.12970270216464996337890625">
        <ele>750.79998779296875</ele>
        <time>2026-08-22T02:04:54.000Z</time>
        <extensions>
          <ns3:TrackPointExtension>
            <ns3:hr>139</ns3:hr>
            <ns3:cad>0</ns3:cad>
          </ns3:TrackPointExtension>
        </extensions>
      </trkpt>
      <trkpt lat="45.256657898426055908203125" lon="-71.1297087371349334716796875">
        <ele>750.79998779296875</ele>
        <time>2026-08-22T02:04:55.000Z</time>
        <extensions>
          <ns3:TrackPointExtension>
            <ns3:hr>138</ns3:hr>
            <ns3:cad>0</ns3:cad>
          </ns3:TrackPointExtension>
        </extensions>
      </trkpt>
      <trkpt lat="45.25664960034191608428955078125" lon="-71.1297152750194072723388671875">
        <ele>751</ele>
        <time>2026-08-22T02:04:56.000Z</time>
        <extensions>
          <ns3:TrackPointExtension>
            <ns3:hr>138</ns3:hr>
            <ns3:cad>0</ns3:cad>
          </ns3:TrackPointExtension>
        </extensions>
      </trkpt>
      <trkpt lat="45.25663937442004680633544921875" lon="-71.12972608767449855804443359375">
        <ele>751.20001220703125</ele>
        <time>2026-08-22T02:04:57.000Z</time>
        <extensions>
          <ns3:TrackPointExtension>
            <ns3:hr>138</ns3:hr>
            <ns3:cad>0</ns3:cad>
          </ns3:TrackPointExtension>
        </extensions>
      </trkpt>
      <trkpt lat="45.2566379494965076446533203125" lon="-71.12973195500671863555908203125">
        <ele>751.20001220703125</ele>
        <time>2026-08-22T02:04:58.000Z</time>
        <extensions>
          <ns3:TrackPointExtension>
            <ns3:hr>139</ns3:hr>
            <ns3:cad>0</ns3:cad>
          </ns3:TrackPointExtension>
        </extensions>
      </trkpt>
      <trkpt lat="45.25662965141236782073974609375" lon="-71.1297394149005413055419921875">
        <ele>751.4000244140625</ele>
        <time>2026-08-22T02:04:59.000Z</time>
        <extensions>
          <ns3:TrackPointExtension>
            <ns3:hr>139</ns3:hr>
            <ns3:cad>0</ns3:cad>
          </ns3:TrackPointExtension>
        </extensions>
      </trkpt>
      <trkpt lat="45.25662244297564029693603515625" lon="-71.129744946956634521484375">
        <ele>751.5999755859375</ele>
        <time>2026-08-22T02:05:00.000Z</time>
        <extensions>
          <ns3:TrackPointExtension>
            <ns3:hr>138</ns3:hr>
            <ns3:cad>0</ns3:cad>
          </ns3:TrackPointExtension>
        </extensions>
      </trkpt>
      <trkpt lat="45.256614647805690765380859375" lon="-71.12975089810788631439208984375">
        <ele>751.79998779296875</ele>
        <time>2026-08-22T02:05:01.000Z</time>
        <extensions>
          <ns3:TrackPointExtension>
            <ns3:hr>137</ns3:hr>
            <ns3:cad>0</ns3:cad>
          </ns3:TrackPointExtension>
        </extensions>
      </trkpt>
      <trkpt lat="45.25661054067313671112060546875" lon="-71.129753999412059783935546875">
        <ele>752</ele>
        <time>2026-08-22T02:05:02.000Z</time>
        <extensions>
          <ns3:TrackPointExtension>
            <ns3:hr>137</ns3:hr>
            <ns3:cad>0</ns3:cad>
          </ns3:TrackPointExtension>
        </extensions>
      </trkpt>
      <trkpt lat="45.25660266168415546417236328125" lon="-71.1297602020204067230224609375">
        <ele>752.20001220703125</ele>
        <time>2026-08-22T02:05:03.000Z</time>
        <extensions>
          <ns3:TrackPointExtension>
            <ns3:hr>137</ns3:hr>
            <ns3:cad>40</ns3:cad>
          </ns3:TrackPointExtension>
        </extensions>
      </trkpt>
      <trkpt lat="45.25659729726612567901611328125" lon="-71.12976380623877048492431640625">
        <ele>752.20001220703125</ele>
        <time>2026-08-22T02:05:04.000Z</time>
        <extensions>
          <ns3:TrackPointExtension>
            <ns3:hr>137</ns3:hr>
            <ns3:cad>40</ns3:cad>
          </ns3:TrackPointExtension>
        </extensions>
      </trkpt>
      <trkpt lat="45.25659008882939815521240234375" lon="-71.12977218814194202423095703125">
        <ele>752.20001220703125</ele>
        <time>2026-08-22T02:05:05.000Z</time>
        <extensions>
          <ns3:TrackPointExtension>
            <ns3:hr>137</ns3:hr>
            <ns3:cad>0</ns3:cad>
          </ns3:TrackPointExtension>
        </extensions>
      </trkpt>
      <trkpt lat="45.25658254511654376983642578125" lon="-71.1297816596925258636474609375">
        <ele>752.20001220703125</ele>
        <time>2026-08-22T02:05:06.000Z</time>
        <extensions>
          <ns3:TrackPointExtension>
            <ns3:hr>137</ns3:hr>
            <ns3:cad>0</ns3:cad>
          </ns3:TrackPointExtension>
        </extensions>
      </trkpt>
      <trkpt lat="45.2565745823085308074951171875" lon="-71.1297933943569660186767578125">
        <ele>752.20001220703125</ele>
        <time>2026-08-22T02:05:07.000Z</time>
        <extensions>
          <ns3:TrackPointExtension>
            <ns3:hr>138</ns3:hr>
            <ns3:cad>0</ns3:cad>
          </ns3:TrackPointExtension>
        </extensions>
      </trkpt>
      <trkpt lat="45.25656779296696186065673828125" lon="-71.129798591136932373046875">
        <ele>752.20001220703125</ele>
        <time>2026-08-22T02:05:08.000Z</time>
        <extensions>
          <ns3:TrackPointExtension>
            <ns3:hr>137</ns3:hr>
            <ns3:cad>0</ns3:cad>
          </ns3:TrackPointExtension>
        </extensions>
      </trkpt>
      <trkpt lat="45.25656209327280521392822265625" lon="-71.12980621866881847381591796875">
        <ele>752.20001220703125</ele>
        <time>2026-08-22T02:05:09.000Z</time>
        <extensions>
          <ns3:TrackPointExtension>
            <ns3:hr>138</ns3:hr>
            <ns3:cad>0</ns3:cad>
          </ns3:TrackPointExtension>
        </extensions>
      </trkpt>
      <trkpt lat="45.25655404664576053619384765625" lon="-71.1298185400664806365966796875">
        <ele>752.4000244140625</ele>
        <time>2026-08-22T02:05:10.000Z</time>
        <extensions>
          <ns3:TrackPointExtension>
            <ns3:hr>138</ns3:hr>
            <ns3:cad>50</ns3:cad>
          </ns3:TrackPointExtension>
        </extensions>
      </trkpt>
      <trkpt lat="45.25654935277998447418212890625" lon="-71.12982952035963535308837890625">
        <ele>752.5999755859375</ele>
        <time>2026-08-22T02:05:11.000Z</time>
        <extensions>
          <ns3:TrackPointExtension>
            <ns3:hr>138</ns3:hr>
            <ns3:cad>50</ns3:cad>
          </ns3:TrackPointExtension>
        </extensions>
      </trkpt>
      <trkpt lat="45.256544239819049835205078125" lon="-71.12983253784477710723876953125">
        <ele>752.79998779296875</ele>
        <time>2026-08-22T02:05:12.000Z</time>
        <extensions>
          <ns3:TrackPointExtension>
            <ns3:hr>137</ns3:hr>
            <ns3:cad>50</ns3:cad>
          </ns3:TrackPointExtension>
        </extensions>
      </trkpt>
      <trkpt lat="45.256536863744258880615234375" lon="-71.12984125502407550811767578125">
        <ele>753</ele>
        <time>2026-08-22T02:05:13.000Z</time>
        <extensions>
          <ns3:TrackPointExtension>
            <ns3:hr>137</ns3:hr>
            <ns3:cad>50</ns3:cad>
          </ns3:TrackPointExtension>
        </extensions>
      </trkpt>
      <trkpt lat="45.25652538053691387176513671875" lon="-71.12985399551689624786376953125">
        <ele>753.20001220703125</ele>
        <time>2026-08-22T02:05:14.000Z</time>
        <extensions>
          <ns3:TrackPointExtension>
            <ns3:hr>136</ns3:hr>
            <ns3:cad>50</ns3:cad>
          </ns3:TrackPointExtension>
        </extensions>
      </trkpt>
      <trkpt lat="45.2565149031579494476318359375" lon="-71.129862964153289794921875">
        <ele>753.4000244140625</ele>
        <time>2026-08-22T02:05:15.000Z</time>
        <extensions>
          <ns3:TrackPointExtension>
            <ns3:hr>136</ns3:hr>
            <ns3:cad>50</ns3:cad>
          </ns3:TrackPointExtension>
        </extensions>
      </trkpt>
      <trkpt lat="45.25650828145444393157958984375" lon="-71.12986858002841472625732421875">
        <ele>753.4000244140625</ele>
        <time>2026-08-22T02:05:16.000Z</time>
        <extensions>
          <ns3:TrackPointExtension>
            <ns3:hr>136</ns3:hr>
            <ns3:cad>50</ns3:cad>
          </ns3:TrackPointExtension>
        </extensions>
      </trkpt>
      <trkpt lat="45.2564998157322406768798828125" lon="-71.12987696193158626556396484375">
        <ele>753.5999755859375</ele>
        <time>2026-08-22T02:05:17.000Z</time>
        <extensions>
          <ns3:TrackPointExtension>
            <ns3:hr>135</ns3:hr>
            <ns3:cad>46</ns3:cad>
          </ns3:TrackPointExtension>
        </extensions>
      </trkpt>
      <trkpt lat="45.256499983370304107666015625" lon="-71.129886768758296966552734375">
        <ele>753.5999755859375</ele>
        <time>2026-08-22T02:05:18.000Z</time>
        <extensions>
          <ns3:TrackPointExtension>
            <ns3:hr>135</ns3:hr>
            <ns3:cad>0</ns3:cad>
          </ns3:TrackPointExtension>
        </extensions>
      </trkpt>
      <trkpt lat="45.25649721734225749969482421875" lon="-71.12988718785345554351806640625">
        <ele>753.79998779296875</ele>
        <time>2026-08-22T02:05:19.000Z</time>
        <extensions>
          <ns3:TrackPointExtension>
            <ns3:hr>135</ns3:hr>
            <ns3:cad>0</ns3:cad>
          </ns3:TrackPointExtension>
        </extensions>
      </trkpt>
      <trkpt lat="45.2564914338290691375732421875" lon="-71.12988618202507495880126953125">
        <ele>753.79998779296875</ele>
        <time>2026-08-22T02:05:20.000Z</time>
        <extensions>
          <ns3:TrackPointExtension>
            <ns3:hr>134</ns3:hr>
            <ns3:cad>0</ns3:cad>
          </ns3:TrackPointExtension>
        </extensions>
      </trkpt>
      <trkpt lat="45.256484560668468475341796875" lon="-71.1298886127769947052001953125">
        <ele>753.79998779296875</ele>
        <time>2026-08-22T02:05:21.000Z</time>
        <extensions>
          <ns3:TrackPointExtension>
            <ns3:hr>134</ns3:hr>
            <ns3:cad>0</ns3:cad>
          </ns3:TrackPointExtension>
        </extensions>
      </trkpt>
      <trkpt lat="45.25647441856563091278076171875" lon="-71.129898168146610260009765625">
        <ele>753.79998779296875</ele>
        <time>2026-08-22T02:05:22.000Z</time>
        <extensions>
          <ns3:TrackPointExtension>
            <ns3:hr>134</ns3:hr>
            <ns3:cad>0</ns3:cad>
          </ns3:TrackPointExtension>
        </extensions>
      </trkpt>
      <trkpt lat="45.25647240690886974334716796875" lon="-71.12988634966313838958740234375">
        <ele>753.79998779296875</ele>
        <time>2026-08-22T02:05:23.000Z</time>
        <extensions>
          <ns3:TrackPointExtension>
            <ns3:hr>134</ns3:hr>
            <ns3:cad>0</ns3:cad>
          </ns3:TrackPointExtension>
        </extensions>
      </trkpt>
      <trkpt lat="45.25647056289017200469970703125" lon="-71.129882745444774627685546875">
        <ele>753.79998779296875</ele>
        <time>2026-08-22T02:05:24.000Z</time>
        <extensions>
          <ns3:TrackPointExtension>
            <ns3:hr>134</ns3:hr>
            <ns3:cad>0</ns3:cad>
          </ns3:TrackPointExtension>
        </extensions>
      </trkpt>
      <trkpt lat="45.2564632706344127655029296875" lon="-71.12988500855863094329833984375">
        <ele>754</ele>
        <time>2026-08-22T02:05:25.000Z</time>
        <extensions>
          <ns3:TrackPointExtension>
            <ns3:hr>134</ns3:hr>
            <ns3:cad>0</ns3:cad>
          </ns3:TrackPointExtension>
        </extensions>
      </trkpt>
      <trkpt lat="45.2564569003880023956298828125" lon="-71.12989037297666072845458984375">
        <ele>754.20001220703125</ele>
        <time>2026-08-22T02:05:26.000Z</time>
        <extensions>
          <ns3:TrackPointExtension>
            <ns3:hr>134</ns3:hr>
            <ns3:cad>0</ns3:cad>
          </ns3:TrackPointExtension>
        </extensions>
      </trkpt>
      <trkpt lat="45.25644960813224315643310546875" lon="-71.1298964917659759521484375">
        <ele>754.4000244140625</ele>
        <time>2026-08-22T02:05:27.000Z</time>
        <extensions>
          <ns3:TrackPointExtension>
            <ns3:hr>134</ns3:hr>
            <ns3:cad>51</ns3:cad>
          </ns3:TrackPointExtension>
        </extensions>
      </trkpt>
      <trkpt lat="45.25644139386713504791259765625" lon="-71.12989657558500766754150390625">
        <ele>754.4000244140625</ele>
        <time>2026-08-22T02:05:28.000Z</time>
        <extensions>
          <ns3:TrackPointExtension>
            <ns3:hr>134</ns3:hr>
            <ns3:cad>51</ns3:cad>
          </ns3:TrackPointExtension>
        </extensions>
      </trkpt>
      <trkpt lat="45.256434269249439239501953125" lon="-71.129896156489849090576171875">
        <ele>754.5999755859375</ele>
        <time>2026-08-22T02:05:29.000Z</time>
        <extensions>
          <ns3:TrackPointExtension>
            <ns3:hr>134</ns3:hr>
            <ns3:cad>52</ns3:cad>
          </ns3:TrackPointExtension>
        </extensions>
      </trkpt>
      <trkpt lat="45.25642680935561656951904296875" lon="-71.1298993416130542755126953125">
        <ele>754.79998779296875</ele>
        <time>2026-08-22T02:05:30.000Z</time>
        <extensions>
          <ns3:TrackPointExtension>
            <ns3:hr>134</ns3:hr>
            <ns3:cad>52</ns3:cad>
          </ns3:TrackPointExtension>
        </extensions>
      </trkpt>
      <trkpt lat="45.25642010383307933807373046875" lon="-71.12989858724176883697509765625">
        <ele>754.79998779296875</ele>
        <time>2026-08-22T02:05:31.000Z</time>
        <extensions>
          <ns3:TrackPointExtension>
            <ns3:hr>134</ns3:hr>
            <ns3:cad>49</ns3:cad>
          </ns3:TrackPointExtension>
        </extensions>
      </trkpt>
      <trkpt lat="45.256413482129573822021484375" lon="-71.12989909015595912933349609375">
        <ele>755</ele>
        <time>2026-08-22T02:05:32.000Z</time>
        <extensions>
          <ns3:TrackPointExtension>
            <ns3:hr>134</ns3:hr>
            <ns3:cad>48</ns3:cad>
          </ns3:TrackPointExtension>
        </extensions>
      </trkpt>
      <trkpt lat="45.256409458816051483154296875" lon="-71.1298976652324199676513671875">
        <ele>755.4000244140625</ele>
        <time>2026-08-22T02:05:33.000Z</time>
        <extensions>
          <ns3:TrackPointExtension>
            <ns3:hr>134</ns3:hr>
            <ns3:cad>48</ns3:cad>
          </ns3:TrackPointExtension>
        </extensions>
      </trkpt>
      <trkpt lat="45.2564015798270702362060546875" lon="-71.12989909015595912933349609375">
        <ele>755.5999755859375</ele>
        <time>2026-08-22T02:05:34.000Z</time>
        <extensions>
          <ns3:TrackPointExtension>
            <ns3:hr>135</ns3:hr>
            <ns3:cad>46</ns3:cad>
          </ns3:TrackPointExtension>
        </extensions>
      </trkpt>
      <trkpt lat="45.2563925273716449737548828125" lon="-71.12989925779402256011962890625">
        <ele>755.79998779296875</ele>
        <time>2026-08-22T02:05:35.000Z</time>
        <extensions>
          <ns3:TrackPointExtension>
            <ns3:hr>135</ns3:hr>
            <ns3:cad>46</ns3:cad>
          </ns3:TrackPointExtension>
        </extensions>
      </trkpt>
      <trkpt lat="45.25638842023909091949462890625" lon="-71.129902862012386322021484375">
        <ele>756</ele>
        <time>2026-08-22T02:05:36.000Z</time>
        <extensions>
          <ns3:TrackPointExtension>
            <ns3:hr>135</ns3:hr>
            <ns3:cad>46</ns3:cad>
          </ns3:TrackPointExtension>
        </extensions>
      </trkpt>
      <trkpt lat="45.25638163089752197265625" lon="-71.129909567534923553466796875">
        <ele>756.20001220703125</ele>
        <time>2026-08-22T02:05:37.000Z</time>
        <extensions>
          <ns3:TrackPointExtension>
            <ns3:hr>134</ns3:hr>
            <ns3:cad>45</ns3:cad>
          </ns3:TrackPointExtension>
        </extensions>
      </trkpt>
      <trkpt lat="45.25637350045144557952880859375" lon="-71.12991333939135074615478515625">
        <ele>756.20001220703125</ele>
        <time>2026-08-22T02:05:38.000Z</time>
        <extensions>
          <ns3:TrackPointExtension>
            <ns3:hr>134</ns3:hr>
            <ns3:cad>45</ns3:cad>
          </ns3:TrackPointExtension>
        </extensions>
      </trkpt>
      <trkpt lat="45.256368555128574371337890625" lon="-71.1299181170761585235595703125">
        <ele>756.4000244140625</ele>
        <time>2026-08-22T02:05:39.000Z</time>
        <extensions>
          <ns3:TrackPointExtension>
            <ns3:hr>134</ns3:hr>
            <ns3:cad>43</ns3:cad>
          </ns3:TrackPointExtension>
        </extensions>
      </trkpt>
      <trkpt lat="45.256360508501529693603515625" lon="-71.12991870380938053131103515625">
        <ele>756.5999755859375</ele>
        <time>2026-08-22T02:05:40.000Z</time>
        <extensions>
          <ns3:TrackPointExtension>
            <ns3:hr>133</ns3:hr>
            <ns3:cad>43</ns3:cad>
          </ns3:TrackPointExtension>
        </extensions>
      </trkpt>
      <trkpt lat="45.2563509531319141387939453125" lon="-71.1299171112477779388427734375">
        <ele>756.79998779296875</ele>
        <time>2026-08-22T02:05:41.000Z</time>
        <extensions>
          <ns3:TrackPointExtension>
            <ns3:hr>133</ns3:hr>
            <ns3:cad>43</ns3:cad>
          </ns3:TrackPointExtension>
        </extensions>
      </trkpt>
      <trkpt lat="45.25634516961872577667236328125" lon="-71.12991551868617534637451171875">
        <ele>757</ele>
        <time>2026-08-22T02:05:42.000Z</time>
        <extensions>
          <ns3:TrackPointExtension>
            <ns3:hr>133</ns3:hr>
            <ns3:cad>43</ns3:cad>
          </ns3:TrackPointExtension>
        </extensions>
      </trkpt>
      <trkpt lat="45.25633527897298336029052734375" lon="-71.1299167759716510772705078125">
        <ele>757.4000244140625</ele>
        <time>2026-08-22T02:05:43.000Z</time>
        <extensions>
          <ns3:TrackPointExtension>
            <ns3:hr>132</ns3:hr>
            <ns3:cad>43</ns3:cad>
          </ns3:TrackPointExtension>
        </extensions>
      </trkpt>
      <trkpt lat="45.25633175857365131378173828125" lon="-71.12992054782807826995849609375">
        <ele>757.5999755859375</ele>
        <time>2026-08-22T02:05:44.000Z</time>
        <extensions>
          <ns3:TrackPointExtension>
            <ns3:hr>132</ns3:hr>
            <ns3:cad>0</ns3:cad>
          </ns3:TrackPointExtension>
        </extensions>
      </trkpt>
      <trkpt lat="45.2563284896314144134521484375" lon="-71.12992205657064914703369140625">
        <ele>757.79998779296875</ele>
        <time>2026-08-22T02:05:45.000Z</time>
        <extensions>
          <ns3:TrackPointExtension>
            <ns3:hr>132</ns3:hr>
            <ns3:cad>0</ns3:cad>
          </ns3:TrackPointExtension>
        </extensions>
      </trkpt>
      <trkpt lat="45.256324298679828643798828125" lon="-71.12992532551288604736328125">
        <ele>758</ele>
        <time>2026-08-22T02:05:46.000Z</time>
        <extensions>
          <ns3:TrackPointExtension>
            <ns3:hr>132</ns3:hr>
            <ns3:cad>0</ns3:cad>
          </ns3:TrackPointExtension>
        </extensions>
      </trkpt>
      <trkpt lat="45.25632002390921115875244140625" lon="-71.129929684102535247802734375">
        <ele>758.20001220703125</ele>
        <time>2026-08-22T02:05:47.000Z</time>
        <extensions>
          <ns3:TrackPointExtension>
            <ns3:hr>133</ns3:hr>
            <ns3:cad>0</ns3:cad>
          </ns3:TrackPointExtension>
        </extensions>
      </trkpt>
      <trkpt lat="45.25631214492022991180419921875" lon="-71.12992792390286922454833984375">
        <ele>758.4000244140625</ele>
        <time>2026-08-22T02:05:48.000Z</time>
        <extensions>
          <ns3:TrackPointExtension>
            <ns3:hr>132</ns3:hr>
            <ns3:cad>0</ns3:cad>
          </ns3:TrackPointExtension>
        </extensions>
      </trkpt>
      <trkpt lat="45.25630745105445384979248046875" lon="-71.12992809154093265533447265625">
        <ele>758.5999755859375</ele>
        <time>2026-08-22T02:05:49.000Z</time>
        <extensions>
          <ns3:TrackPointExtension>
            <ns3:hr>132</ns3:hr>
            <ns3:cad>0</ns3:cad>
          </ns3:TrackPointExtension>
        </extensions>
      </trkpt>
      <trkpt lat="45.25629890151321887969970703125" lon="-71.1299275048077106475830078125">
        <ele>758.79998779296875</ele>
        <time>2026-08-22T02:05:50.000Z</time>
        <extensions>
          <ns3:TrackPointExtension>
            <ns3:hr>132</ns3:hr>
            <ns3:cad>0</ns3:cad>
          </ns3:TrackPointExtension>
        </extensions>
      </trkpt>
      <trkpt lat="45.2562832273542881011962890625" lon="-71.12992071546614170074462890625">
        <ele>759.20001220703125</ele>
        <time>2026-08-22T02:05:51.000Z</time>
        <extensions>
          <ns3:TrackPointExtension>
            <ns3:hr>133</ns3:hr>
            <ns3:cad>0</ns3:cad>
          </ns3:TrackPointExtension>
        </extensions>
      </trkpt>
      <trkpt lat="45.25627903640270233154296875" lon="-71.129920966923236846923828125">
        <ele>759.4000244140625</ele>
        <time>2026-08-22T02:05:52.000Z</time>
        <extensions>
          <ns3:TrackPointExtension>
            <ns3:hr>133</ns3:hr>
            <ns3:cad>0</ns3:cad>
          </ns3:TrackPointExtension>
        </extensions>
      </trkpt>
      <trkpt lat="45.25626822374761104583740234375" lon="-71.129920966923236846923828125">
        <ele>759.5999755859375</ele>
        <time>2026-08-22T02:05:53.000Z</time>
        <extensions>
          <ns3:TrackPointExtension>
            <ns3:hr>134</ns3:hr>
            <ns3:cad>43</ns3:cad>
          </ns3:TrackPointExtension>
        </extensions>
      </trkpt>
      <trkpt lat="45.25626151822507381439208984375" lon="-71.12991954199969768524169921875">
        <ele>759.79998779296875</ele>
        <time>2026-08-22T02:05:54.000Z</time>
        <extensions>
          <ns3:TrackPointExtension>
            <ns3:hr>134</ns3:hr>
            <ns3:cad>43</ns3:cad>
          </ns3:TrackPointExtension>
        </extensions>
      </trkpt>
      <trkpt lat="45.2562597580254077911376953125" lon="-71.12992021255195140838623046875">
        <ele>760</ele>
        <time>2026-08-22T02:05:55.000Z</time>
        <extensions>
          <ns3:TrackPointExtension>
            <ns3:hr>134</ns3:hr>
            <ns3:cad>43</ns3:cad>
          </ns3:TrackPointExtension>
        </extensions>
      </trkpt>
      <trkpt lat="45.25625380687415599822998046875" lon="-71.1299157701432704925537109375">
        <ele>760.20001220703125</ele>
        <time>2026-08-22T02:05:56.000Z</time>
        <extensions>
          <ns3:TrackPointExtension>
            <ns3:hr>134</ns3:hr>
            <ns3:cad>0</ns3:cad>
          </ns3:TrackPointExtension>
        </extensions>
      </trkpt>
      <trkpt lat="45.25625296868383884429931640625" lon="-71.129916273057460784912109375">
        <ele>760.4000244140625</ele>
        <time>2026-08-22T02:05:57.000Z</time>
        <extensions>
          <ns3:TrackPointExtension>
            <ns3:hr>134</ns3:hr>
            <ns3:cad>0</ns3:cad>
          </ns3:TrackPointExtension>
        </extensions>
      </trkpt>
      <trkpt lat="45.25624911300837993621826171875" lon="-71.1299110762774944305419921875">
        <ele>760.5999755859375</ele>
        <time>2026-08-22T02:05:58.000Z</time>
        <extensions>
          <ns3:TrackPointExtension>
            <ns3:hr>134</ns3:hr>
            <ns3:cad>0</ns3:cad>
          </ns3:TrackPointExtension>
        </extensions>
      </trkpt>
      <trkpt lat="45.25624726898968219757080078125" lon="-71.12990923225879669189453125">
        <ele>761</ele>
        <time>2026-08-22T02:05:59.000Z</time>
        <extensions>
          <ns3:TrackPointExtension>
            <ns3:hr>134</ns3:hr>
            <ns3:cad>0</ns3:cad>
          </ns3:TrackPointExtension>
        </extensions>
      </trkpt>
      <trkpt lat="45.25624408386647701263427734375" lon="-71.1299018561840057373046875">
        <ele>761.20001220703125</ele>
        <time>2026-08-22T02:06:00.000Z</time>
        <extensions>
          <ns3:TrackPointExtension>
            <ns3:hr>134</ns3:hr>
            <ns3:cad>0</ns3:cad>
          </ns3:TrackPointExtension>
        </extensions>
      </trkpt>
      <trkpt lat="45.256243832409381866455078125" lon="-71.12990210764110088348388671875">
        <ele>761.5999755859375</ele>
        <time>2026-08-22T02:06:01.000Z</time>
        <extensions>
          <ns3:TrackPointExtension>
            <ns3:hr>135</ns3:hr>
            <ns3:cad>0</ns3:cad>
          </ns3:TrackPointExtension>
        </extensions>
      </trkpt>
      <trkpt lat="45.25624022819101810455322265625" lon="-71.12989607267081737518310546875">
        <ele>761.79998779296875</ele>
        <time>2026-08-22T02:06:02.000Z</time>
        <extensions>
          <ns3:TrackPointExtension>
            <ns3:hr>135</ns3:hr>
            <ns3:cad>0</ns3:cad>
          </ns3:TrackPointExtension>
        </extensions>
      </trkpt>
      <trkpt lat="45.25623436085879802703857421875" lon="-71.12989045679569244384765625">
        <ele>762</ele>
        <time>2026-08-22T02:06:03.000Z</time>
        <extensions>
          <ns3:TrackPointExtension>
            <ns3:hr>135</ns3:hr>
            <ns3:cad>0</ns3:cad>
          </ns3:TrackPointExtension>
        </extensions>
      </trkpt>
      <trkpt lat="45.25623134337365627288818359375" lon="-71.12988634966313838958740234375">
        <ele>762.20001220703125</ele>
        <time>2026-08-22T02:06:04.000Z</time>
        <extensions>
          <ns3:TrackPointExtension>
            <ns3:hr>135</ns3:hr>
            <ns3:cad>0</ns3:cad>
          </ns3:TrackPointExtension>
        </extensions>
      </trkpt>
      <trkpt lat="45.25623318739235401153564453125" lon="-71.12988903187215328216552734375">
        <ele>762.4000244140625</ele>
        <time>2026-08-22T02:06:05.000Z</time>
        <extensions>
          <ns3:TrackPointExtension>
            <ns3:hr>136</ns3:hr>
            <ns3:cad>0</ns3:cad>
          </ns3:TrackPointExtension>
        </extensions>
      </trkpt>
      <trkpt lat="45.25623385794460773468017578125" lon="-71.12987897358834743499755859375">
        <ele>762.5999755859375</ele>
        <time>2026-08-22T02:06:06.000Z</time>
        <extensions>
          <ns3:TrackPointExtension>
            <ns3:hr>136</ns3:hr>
            <ns3:cad>0</ns3:cad>
          </ns3:TrackPointExtension>
        </extensions>
      </trkpt>
      <trkpt lat="45.2562302537262439727783203125" lon="-71.1298674903810024261474609375">
        <ele>762.79998779296875</ele>
        <time>2026-08-22T02:06:07.000Z</time>
        <extensions>
          <ns3:TrackPointExtension>
            <ns3:hr>136</ns3:hr>
            <ns3:cad>0</ns3:cad>
          </ns3:TrackPointExtension>
        </extensions>
      </trkpt>
      <trkpt lat="45.25622866116464138031005859375" lon="-71.12986673600971698760986328125">
        <ele>763.20001220703125</ele>
        <time>2026-08-22T02:06:08.000Z</time>
        <extensions>
          <ns3:TrackPointExtension>
            <ns3:hr>138</ns3:hr>
            <ns3:cad>0</ns3:cad>
          </ns3:TrackPointExtension>
        </extensions>
      </trkpt>
      <trkpt lat="45.2562248893082141876220703125" lon="-71.12986170686781406402587890625">
        <ele>763.4000244140625</ele>
        <time>2026-08-22T02:06:09.000Z</time>
        <extensions>
          <ns3:TrackPointExtension>
            <ns3:hr>139</ns3:hr>
            <ns3:cad>0</ns3:cad>
          </ns3:TrackPointExtension>
        </extensions>
      </trkpt>
      <trkpt lat="45.256221033632755279541015625" lon="-71.1298550851643085479736328125">
        <ele>763.5999755859375</ele>
        <time>2026-08-22T02:06:10.000Z</time>
        <extensions>
          <ns3:TrackPointExtension>
            <ns3:hr>139</ns3:hr>
            <ns3:cad>73</ns3:cad>
          </ns3:TrackPointExtension>
        </extensions>
      </trkpt>
      <trkpt lat="45.2562155015766620635986328125" lon="-71.12984511069953441619873046875">
        <ele>763.79998779296875</ele>
        <time>2026-08-22T02:06:11.000Z</time>
        <extensions>
          <ns3:TrackPointExtension>
            <ns3:hr>139</ns3:hr>
            <ns3:cad>73</ns3:cad>
          </ns3:TrackPointExtension>
        </extensions>
      </trkpt>
      <trkpt lat="45.25621877051889896392822265625" lon="-71.129844188690185546875">
        <ele>764</ele>
        <time>2026-08-22T02:06:12.000Z</time>
        <extensions>
          <ns3:TrackPointExtension>
            <ns3:hr>139</ns3:hr>
            <ns3:cad>0</ns3:cad>
          </ns3:TrackPointExtension>
        </extensions>
      </trkpt>
      <trkpt lat="45.25622078217566013336181640625" lon="-71.12983857281506061553955078125">
        <ele>764.20001220703125</ele>
        <time>2026-08-22T02:06:13.000Z</time>
        <extensions>
          <ns3:TrackPointExtension>
            <ns3:hr>139</ns3:hr>
            <ns3:cad>0</ns3:cad>
          </ns3:TrackPointExtension>
        </extensions>
      </trkpt>
      <trkpt lat="45.25621508248150348663330078125" lon="-71.12982633523643016815185546875">
        <ele>764.4000244140625</ele>
        <time>2026-08-22T02:06:14.000Z</time>
        <extensions>
          <ns3:TrackPointExtension>
            <ns3:hr>138</ns3:hr>
            <ns3:cad>0</ns3:cad>
          </ns3:TrackPointExtension>
        </extensions>
      </trkpt>
      <trkpt lat="45.2562101371586322784423828125" lon="-71.129820384085178375244140625">
        <ele>764.5999755859375</ele>
        <time>2026-08-22T02:06:15.000Z</time>
        <extensions>
          <ns3:TrackPointExtension>
            <ns3:hr>138</ns3:hr>
            <ns3:cad>0</ns3:cad>
          </ns3:TrackPointExtension>
        </extensions>
      </trkpt>
      <trkpt lat="45.25620871223509311676025390625" lon="-71.12981812097132205963134765625">
        <ele>765</ele>
        <time>2026-08-22T02:06:16.000Z</time>
        <extensions>
          <ns3:TrackPointExtension>
            <ns3:hr>138</ns3:hr>
            <ns3:cad>0</ns3:cad>
          </ns3:TrackPointExtension>
        </extensions>
      </trkpt>
      <trkpt lat="45.25620519183576107025146484375" lon="-71.12980102188885211944580078125">
        <ele>765.20001220703125</ele>
        <time>2026-08-22T02:06:17.000Z</time>
        <extensions>
          <ns3:TrackPointExtension>
            <ns3:hr>139</ns3:hr>
            <ns3:cad>41</ns3:cad>
          </ns3:TrackPointExtension>
        </extensions>
      </trkpt>
      <trkpt lat="45.256201922893524169921875" lon="-71.129794232547283172607421875">
        <ele>765.4000244140625</ele>
        <time>2026-08-22T02:06:18.000Z</time>
        <extensions>
          <ns3:TrackPointExtension>
            <ns3:hr>138</ns3:hr>
            <ns3:cad>41</ns3:cad>
          </ns3:TrackPointExtension>
        </extensions>
      </trkpt>
      <trkpt lat="45.25619865395128726959228515625" lon="-71.12978174351155757904052734375">
        <ele>765.4000244140625</ele>
        <time>2026-08-22T02:06:19.000Z</time>
        <extensions>
          <ns3:TrackPointExtension>
            <ns3:hr>138</ns3:hr>
            <ns3:cad>41</ns3:cad>
          </ns3:TrackPointExtension>
        </extensions>
      </trkpt>
      <trkpt lat="45.25619697757065296173095703125" lon="-71.12977704964578151702880859375">
        <ele>765.79998779296875</ele>
        <time>2026-08-22T02:06:20.000Z</time>
        <extensions>
          <ns3:TrackPointExtension>
            <ns3:hr>138</ns3:hr>
            <ns3:cad>0</ns3:cad>
          </ns3:TrackPointExtension>
        </extensions>
      </trkpt>
      <trkpt lat="45.25619345717132091522216796875" lon="-71.12977017648518085479736328125">
        <ele>766</ele>
        <time>2026-08-22T02:06:21.000Z</time>
        <extensions>
          <ns3:TrackPointExtension>
            <ns3:hr>139</ns3:hr>
            <ns3:cad>0</ns3:cad>
          </ns3:TrackPointExtension>
        </extensions>
      </trkpt>
      <trkpt lat="45.2561844885349273681640625" lon="-71.1297585256397724151611328125">
        <ele>766.20001220703125</ele>
        <time>2026-08-22T02:06:22.000Z</time>
        <extensions>
          <ns3:TrackPointExtension>
            <ns3:hr>139</ns3:hr>
            <ns3:cad>0</ns3:cad>
          </ns3:TrackPointExtension>
        </extensions>
      </trkpt>
      <trkpt lat="45.256181471049785614013671875" lon="-71.12975743599236011505126953125">
        <ele>766.4000244140625</ele>
        <time>2026-08-22T02:06:23.000Z</time>
        <extensions>
          <ns3:TrackPointExtension>
            <ns3:hr>139</ns3:hr>
            <ns3:cad>0</ns3:cad>
          </ns3:TrackPointExtension>
        </extensions>
      </trkpt>
      <trkpt lat="45.25617568753659725189208984375" lon="-71.12974938936531543731689453125">
        <ele>766.5999755859375</ele>
        <time>2026-08-22T02:06:24.000Z</time>
        <extensions>
          <ns3:TrackPointExtension>
            <ns3:hr>140</ns3:hr>
            <ns3:cad>0</ns3:cad>
          </ns3:TrackPointExtension>
        </extensions>
      </trkpt>
      <trkpt lat="45.25617065839469432830810546875" lon="-71.12973933108150959014892578125">
        <ele>766.79998779296875</ele>
        <time>2026-08-22T02:06:25.000Z</time>
        <extensions>
          <ns3:TrackPointExtension>
            <ns3:hr>141</ns3:hr>
            <ns3:cad>0</ns3:cad>
          </ns3:TrackPointExtension>
        </extensions>
      </trkpt>
      <trkpt lat="45.25616797618567943572998046875" lon="-71.129740588366985321044921875">
        <ele>767.20001220703125</ele>
        <time>2026-08-22T02:06:26.000Z</time>
        <extensions>
          <ns3:TrackPointExtension>
            <ns3:hr>141</ns3:hr>
            <ns3:cad>0</ns3:cad>
          </ns3:TrackPointExtension>
        </extensions>
      </trkpt>
      <trkpt lat="45.25616361759603023529052734375" lon="-71.12973178736865520477294921875">
        <ele>767.4000244140625</ele>
        <time>2026-08-22T02:06:27.000Z</time>
        <extensions>
          <ns3:TrackPointExtension>
            <ns3:hr>141</ns3:hr>
            <ns3:cad>74</ns3:cad>
          </ns3:TrackPointExtension>
        </extensions>
      </trkpt>
      <trkpt lat="45.2561648748815059661865234375" lon="-71.12972038798034191131591796875">
        <ele>767.5999755859375</ele>
        <time>2026-08-22T02:06:28.000Z</time>
        <extensions>
          <ns3:TrackPointExtension>
            <ns3:hr>141</ns3:hr>
            <ns3:cad>74</ns3:cad>
          </ns3:TrackPointExtension>
        </extensions>
      </trkpt>
      <trkpt lat="45.25616127066314220428466796875" lon="-71.1297072283923625946044921875">
        <ele>767.79998779296875</ele>
        <time>2026-08-22T02:06:29.000Z</time>
        <extensions>
          <ns3:TrackPointExtension>
            <ns3:hr>141</ns3:hr>
            <ns3:cad>0</ns3:cad>
          </ns3:TrackPointExtension>
        </extensions>
      </trkpt>
      <trkpt lat="45.2561595104634761810302734375" lon="-71.129696667194366455078125">
        <ele>767.79998779296875</ele>
        <time>2026-08-22T02:06:30.000Z</time>
        <extensions>
          <ns3:TrackPointExtension>
            <ns3:hr>142</ns3:hr>
            <ns3:cad>0</ns3:cad>
          </ns3:TrackPointExtension>
        </extensions>
      </trkpt>
      <trkpt lat="45.2561549842357635498046875" lon="-71.12968032248318195343017578125">
        <ele>768</ele>
        <time>2026-08-22T02:06:31.000Z</time>
        <extensions>
          <ns3:TrackPointExtension>
            <ns3:hr>142</ns3:hr>
            <ns3:cad>0</ns3:cad>
          </ns3:TrackPointExtension>
        </extensions>
      </trkpt>
      <trkpt lat="45.2561501227319240570068359375" lon="-71.12966724671423435211181640625">
        <ele>768</ele>
        <time>2026-08-22T02:06:32.000Z</time>
        <extensions>
          <ns3:TrackPointExtension>
            <ns3:hr>142</ns3:hr>
            <ns3:cad>0</ns3:cad>
          </ns3:TrackPointExtension>
        </extensions>
      </trkpt>
      <trkpt lat="45.2561454288661479949951171875" lon="-71.12966372631490230560302734375">
        <ele>768</ele>
        <time>2026-08-22T02:06:33.000Z</time>
        <extensions>
          <ns3:TrackPointExtension>
            <ns3:hr>142</ns3:hr>
            <ns3:cad>0</ns3:cad>
          </ns3:TrackPointExtension>
        </extensions>
      </trkpt>
      <trkpt lat="45.2561333589255809783935546875" lon="-71.1296532489359378814697265625">
        <ele>768.20001220703125</ele>
        <time>2026-08-22T02:06:34.000Z</time>
        <extensions>
          <ns3:TrackPointExtension>
            <ns3:hr>142</ns3:hr>
            <ns3:cad>0</ns3:cad>
          </ns3:TrackPointExtension>
        </extensions>
      </trkpt>
      <trkpt lat="45.25612791068851947784423828125" lon="-71.12964930944144725799560546875">
        <ele>768.4000244140625</ele>
        <time>2026-08-22T02:06:35.000Z</time>
        <extensions>
          <ns3:TrackPointExtension>
            <ns3:hr>142</ns3:hr>
            <ns3:cad>0</ns3:cad>
          </ns3:TrackPointExtension>
        </extensions>
      </trkpt>
      <trkpt lat="45.25612346827983856201171875" lon="-71.12964679487049579620361328125">
        <ele>768.5999755859375</ele>
        <time>2026-08-22T02:06:36.000Z</time>
        <extensions>
          <ns3:TrackPointExtension>
            <ns3:hr>142</ns3:hr>
            <ns3:cad>0</ns3:cad>
          </ns3:TrackPointExtension>
        </extensions>
      </trkpt>
      <trkpt lat="45.25611718185245990753173828125" lon="-71.12964075990021228790283203125">
        <ele>768.79998779296875</ele>
        <time>2026-08-22T02:06:37.000Z</time>
        <extensions>
          <ns3:TrackPointExtension>
            <ns3:hr>142</ns3:hr>
            <ns3:cad>0</ns3:cad>
          </ns3:TrackPointExtension>
        </extensions>
      </trkpt>
      <trkpt lat="45.25611198507249355316162109375" lon="-71.12964042462408542633056640625">
        <ele>769</ele>
        <time>2026-08-22T02:06:38.000Z</time>
        <extensions>
          <ns3:TrackPointExtension>
            <ns3:hr>142</ns3:hr>
            <ns3:cad>0</ns3:cad>
          </ns3:TrackPointExtension>
        </extensions>
      </trkpt>
      <trkpt lat="45.256105698645114898681640625" lon="-71.12963455729186534881591796875">
        <ele>769.4000244140625</ele>
        <time>2026-08-22T02:06:39.000Z</time>
        <extensions>
          <ns3:TrackPointExtension>
            <ns3:hr>142</ns3:hr>
            <ns3:cad>0</ns3:cad>
          </ns3:TrackPointExtension>
        </extensions>
      </trkpt>
      <trkpt lat="45.2560986578464508056640625" lon="-71.12962600775063037872314453125">
        <ele>769.5999755859375</ele>
        <time>2026-08-22T02:06:40.000Z</time>
        <extensions>
          <ns3:TrackPointExtension>
            <ns3:hr>142</ns3:hr>
            <ns3:cad>0</ns3:cad>
          </ns3:TrackPointExtension>
        </extensions>
      </trkpt>
      <trkpt lat="45.25609555654227733612060546875" lon="-71.12962651066482067108154296875">
        <ele>769.79998779296875</ele>
        <time>2026-08-22T02:06:41.000Z</time>
        <extensions>
          <ns3:TrackPointExtension>
            <ns3:hr>142</ns3:hr>
            <ns3:cad>0</ns3:cad>
          </ns3:TrackPointExtension>
        </extensions>
      </trkpt>
      <trkpt lat="45.25608801282942295074462890625" lon="-71.12961913459002971649169921875">
        <ele>770</ele>
        <time>2026-08-22T02:06:42.000Z</time>
        <extensions>
          <ns3:TrackPointExtension>
            <ns3:hr>142</ns3:hr>
            <ns3:cad>0</ns3:cad>
          </ns3:TrackPointExtension>
        </extensions>
      </trkpt>
      <trkpt lat="45.25608591735363006591796875" lon="-71.12961561419069766998291015625">
        <ele>770.20001220703125</ele>
        <time>2026-08-22T02:06:43.000Z</time>
        <extensions>
          <ns3:TrackPointExtension>
            <ns3:hr>142</ns3:hr>
            <ns3:cad>0</ns3:cad>
          </ns3:TrackPointExtension>
        </extensions>
      </trkpt>
      <trkpt lat="45.25608147494494915008544921875" lon="-71.129607148468494415283203125">
        <ele>770.4000244140625</ele>
        <time>2026-08-22T02:06:44.000Z</time>
        <extensions>
          <ns3:TrackPointExtension>
            <ns3:hr>142</ns3:hr>
            <ns3:cad>0</ns3:cad>
          </ns3:TrackPointExtension>
        </extensions>
      </trkpt>
      <trkpt lat="45.256079547107219696044921875" lon="-71.1296009458601474761962890625">
        <ele>770.5999755859375</ele>
        <time>2026-08-22T02:06:45.000Z</time>
        <extensions>
          <ns3:TrackPointExtension>
            <ns3:hr>142</ns3:hr>
            <ns3:cad>0</ns3:cad>
          </ns3:TrackPointExtension>
        </extensions>
      </trkpt>
      <trkpt lat="45.25607627816498279571533203125" lon="-71.129602454602718353271484375">
        <ele>770.79998779296875</ele>
        <time>2026-08-22T02:06:46.000Z</time>
        <extensions>
          <ns3:TrackPointExtension>
            <ns3:hr>143</ns3:hr>
            <ns3:cad>0</ns3:cad>
          </ns3:TrackPointExtension>
        </extensions>
      </trkpt>
      <trkpt lat="45.2560659684240818023681640625" lon="-71.129592396318912506103515625">
        <ele>771</ele>
        <time>2026-08-22T02:06:47.000Z</time>
        <extensions>
          <ns3:TrackPointExtension>
            <ns3:hr>142</ns3:hr>
            <ns3:cad>0</ns3:cad>
          </ns3:TrackPointExtension>
        </extensions>
      </trkpt>
      <trkpt lat="45.25606043636798858642578125" lon="-71.12958678044378757476806640625">
        <ele>771.20001220703125</ele>
        <time>2026-08-22T02:06:48.000Z</time>
        <extensions>
          <ns3:TrackPointExtension>
            <ns3:hr>141</ns3:hr>
            <ns3:cad>0</ns3:cad>
          </ns3:TrackPointExtension>
        </extensions>
      </trkpt>
      <trkpt lat="45.25605565868318080902099609375" lon="-71.12958225421607494354248046875">
        <ele>771.4000244140625</ele>
        <time>2026-08-22T02:06:49.000Z</time>
        <extensions>
          <ns3:TrackPointExtension>
            <ns3:hr>141</ns3:hr>
            <ns3:cad>0</ns3:cad>
          </ns3:TrackPointExtension>
        </extensions>
      </trkpt>
      <trkpt lat="45.2560505457222461700439453125" lon="-71.129578314721584320068359375">
        <ele>771.5999755859375</ele>
        <time>2026-08-22T02:06:50.000Z</time>
        <extensions>
          <ns3:TrackPointExtension>
            <ns3:hr>141</ns3:hr>
            <ns3:cad>0</ns3:cad>
          </ns3:TrackPointExtension>
        </extensions>
      </trkpt>
      <trkpt lat="45.25604903697967529296875" lon="-71.12958041019737720489501953125">
        <ele>771.5999755859375</ele>
        <time>2026-08-22T02:06:51.000Z</time>
        <extensions>
          <ns3:TrackPointExtension>
            <ns3:hr>141</ns3:hr>
            <ns3:cad>0</ns3:cad>
          </ns3:TrackPointExtension>
        </extensions>
      </trkpt>
      <trkpt lat="45.2560354582965373992919921875" lon="-71.12956993281841278076171875">
        <ele>771.79998779296875</ele>
        <time>2026-08-22T02:06:52.000Z</time>
        <extensions>
          <ns3:TrackPointExtension>
            <ns3:hr>141</ns3:hr>
            <ns3:cad>0</ns3:cad>
          </ns3:TrackPointExtension>
        </extensions>
      </trkpt>
      <trkpt lat="45.25603218935430049896240234375" lon="-71.1295684240758419036865234375">
        <ele>772</ele>
        <time>2026-08-22T02:06:53.000Z</time>
        <extensions>
          <ns3:TrackPointExtension>
            <ns3:hr>141</ns3:hr>
            <ns3:cad>0</ns3:cad>
          </ns3:TrackPointExtension>
        </extensions>
      </trkpt>
      <trkpt lat="45.2560243941843509674072265625" lon="-71.12956431694328784942626953125">
        <ele>772.20001220703125</ele>
        <time>2026-08-22T02:06:54.000Z</time>
        <extensions>
          <ns3:TrackPointExtension>
            <ns3:hr>141</ns3:hr>
            <ns3:cad>0</ns3:cad>
          </ns3:TrackPointExtension>
        </extensions>
      </trkpt>
      <trkpt lat="45.2560203708708286285400390625" lon="-71.1295617185533046722412109375">
        <ele>772.4000244140625</ele>
        <time>2026-08-22T02:06:55.000Z</time>
        <extensions>
          <ns3:TrackPointExtension>
            <ns3:hr>141</ns3:hr>
            <ns3:cad>0</ns3:cad>
          </ns3:TrackPointExtension>
        </extensions>
      </trkpt>
      <trkpt lat="45.256015844643115997314453125" lon="-71.12956414930522441864013671875">
        <ele>772.5999755859375</ele>
        <time>2026-08-22T02:06:56.000Z</time>
        <extensions>
          <ns3:TrackPointExtension>
            <ns3:hr>140</ns3:hr>
            <ns3:cad>0</ns3:cad>
          </ns3:TrackPointExtension>
        </extensions>
      </trkpt>
      <trkpt lat="45.25600771419703960418701171875" lon="-71.12956046126782894134521484375">
        <ele>772.79998779296875</ele>
        <time>2026-08-22T02:06:57.000Z</time>
        <extensions>
          <ns3:TrackPointExtension>
            <ns3:hr>140</ns3:hr>
            <ns3:cad>0</ns3:cad>
          </ns3:TrackPointExtension>
        </extensions>
      </trkpt>
      <trkpt lat="45.2560042776167392730712890625" lon="-71.1295570246875286102294921875">
        <ele>773</ele>
        <time>2026-08-22T02:06:58.000Z</time>
        <extensions>
          <ns3:TrackPointExtension>
            <ns3:hr>140</ns3:hr>
            <ns3:cad>0</ns3:cad>
          </ns3:TrackPointExtension>
        </extensions>
      </trkpt>
      <trkpt lat="45.255996398627758026123046875" lon="-71.1295506544411182403564453125">
        <ele>773.20001220703125</ele>
        <time>2026-08-22T02:06:59.000Z</time>
        <extensions>
          <ns3:TrackPointExtension>
            <ns3:hr>140</ns3:hr>
            <ns3:cad>0</ns3:cad>
          </ns3:TrackPointExtension>
        </extensions>
      </trkpt>
      <trkpt lat="45.25599463842809200286865234375" lon="-71.129551492631435394287109375">
        <ele>773.4000244140625</ele>
        <time>2026-08-22T02:07:00.000Z</time>
        <extensions>
          <ns3:TrackPointExtension>
            <ns3:hr>140</ns3:hr>
            <ns3:cad>0</ns3:cad>
          </ns3:TrackPointExtension>
        </extensions>
      </trkpt>
      <trkpt lat="45.255990363657474517822265625" lon="-71.12954738549888134002685546875">
        <ele>773.5999755859375</ele>
        <time>2026-08-22T02:07:01.000Z</time>
        <extensions>
          <ns3:TrackPointExtension>
            <ns3:hr>139</ns3:hr>
            <ns3:cad>0</ns3:cad>
          </ns3:TrackPointExtension>
        </extensions>
      </trkpt>
      <trkpt lat="45.25598801672458648681640625" lon="-71.1295459605753421783447265625">
        <ele>773.79998779296875</ele>
        <time>2026-08-22T02:07:02.000Z</time>
        <extensions>
          <ns3:TrackPointExtension>
            <ns3:hr>138</ns3:hr>
            <ns3:cad>0</ns3:cad>
          </ns3:TrackPointExtension>
        </extensions>
      </trkpt>
      <trkpt lat="45.25598960928618907928466796875" lon="-71.1295459605753421783447265625">
        <ele>774</ele>
        <time>2026-08-22T02:07:03.000Z</time>
        <extensions>
          <ns3:TrackPointExtension>
            <ns3:hr>137</ns3:hr>
            <ns3:cad>0</ns3:cad>
          </ns3:TrackPointExtension>
        </extensions>
      </trkpt>
      <trkpt lat="45.25599002838134765625" lon="-71.12954487092792987823486328125">
        <ele>774.20001220703125</ele>
        <time>2026-08-22T02:07:04.000Z</time>
        <extensions>
          <ns3:TrackPointExtension>
            <ns3:hr>137</ns3:hr>
            <ns3:cad>0</ns3:cad>
          </ns3:TrackPointExtension>
        </extensions>
      </trkpt>
      <trkpt lat="45.2559860050678253173828125" lon="-71.1295416019856929779052734375">
        <ele>774.4000244140625</ele>
        <time>2026-08-22T02:07:05.000Z</time>
        <extensions>
          <ns3:TrackPointExtension>
            <ns3:hr>136</ns3:hr>
            <ns3:cad>0</ns3:cad>
          </ns3:TrackPointExtension>
        </extensions>
      </trkpt>
      <trkpt lat="45.25598265230655670166015625" lon="-71.12953816540539264678955078125">
        <ele>774.5999755859375</ele>
        <time>2026-08-22T02:07:06.000Z</time>
        <extensions>
          <ns3:TrackPointExtension>
            <ns3:hr>137</ns3:hr>
            <ns3:cad>0</ns3:cad>
          </ns3:TrackPointExtension>
        </extensions>
      </trkpt>
      <trkpt lat="45.255976952612400054931640625" lon="-71.12953933887183666229248046875">
        <ele>774.79998779296875</ele>
        <time>2026-08-22T02:07:07.000Z</time>
        <extensions>
          <ns3:TrackPointExtension>
            <ns3:hr>137</ns3:hr>
            <ns3:cad>0</ns3:cad>
          </ns3:TrackPointExtension>
        </extensions>
      </trkpt>
      <trkpt lat="45.2559754438698291778564453125" lon="-71.129540093243122100830078125">
        <ele>775</ele>
        <time>2026-08-22T02:07:08.000Z</time>
        <extensions>
          <ns3:TrackPointExtension>
            <ns3:hr>137</ns3:hr>
            <ns3:cad>0</ns3:cad>
          </ns3:TrackPointExtension>
        </extensions>
      </trkpt>
      <trkpt lat="45.25597468949854373931884765625" lon="-71.129540763795375823974609375">
        <ele>775.20001220703125</ele>
        <time>2026-08-22T02:07:09.000Z</time>
        <extensions>
          <ns3:TrackPointExtension>
            <ns3:hr>137</ns3:hr>
            <ns3:cad>0</ns3:cad>
          </ns3:TrackPointExtension>
        </extensions>
      </trkpt>
      <trkpt lat="45.25597234256565570831298828125" lon="-71.12953531555831432342529296875">
        <ele>775.5999755859375</ele>
        <time>2026-08-22T02:07:10.000Z</time>
        <extensions>
          <ns3:TrackPointExtension>
            <ns3:hr>137</ns3:hr>
            <ns3:cad>0</ns3:cad>
          </ns3:TrackPointExtension>
        </extensions>
      </trkpt>
      <trkpt lat="45.2559694088995456695556640625" lon="-71.12952978350222110748291015625">
        <ele>775.79998779296875</ele>
        <time>2026-08-22T02:07:11.000Z</time>
        <extensions>
          <ns3:TrackPointExtension>
            <ns3:hr>138</ns3:hr>
            <ns3:cad>0</ns3:cad>
          </ns3:TrackPointExtension>
        </extensions>
      </trkpt>
      <trkpt lat="45.25596228428184986114501953125" lon="-71.12952073104679584503173828125">
        <ele>776</ele>
        <time>2026-08-22T02:07:12.000Z</time>
        <extensions>
          <ns3:TrackPointExtension>
            <ns3:hr>138</ns3:hr>
            <ns3:cad>0</ns3:cad>
          </ns3:TrackPointExtension>
        </extensions>
      </trkpt>
      <trkpt lat="45.25596144609153270721435546875" lon="-71.12952274270355701446533203125">
        <ele>776.4000244140625</ele>
        <time>2026-08-22T02:07:13.000Z</time>
        <extensions>
          <ns3:TrackPointExtension>
            <ns3:hr>138</ns3:hr>
            <ns3:cad>0</ns3:cad>
          </ns3:TrackPointExtension>
        </extensions>
      </trkpt>
      <trkpt lat="45.255957506597042083740234375" lon="-71.12951419316232204437255859375">
        <ele>776.5999755859375</ele>
        <time>2026-08-22T02:07:14.000Z</time>
        <extensions>
          <ns3:TrackPointExtension>
            <ns3:hr>138</ns3:hr>
            <ns3:cad>0</ns3:cad>
          </ns3:TrackPointExtension>
        </extensions>
      </trkpt>
      <trkpt lat="45.25595256127417087554931640625" lon="-71.12951486371457576751708984375">
        <ele>776.5999755859375</ele>
        <time>2026-08-22T02:07:15.000Z</time>
        <extensions>
          <ns3:TrackPointExtension>
            <ns3:hr>137</ns3:hr>
            <ns3:cad>0</ns3:cad>
          </ns3:TrackPointExtension>
        </extensions>
      </trkpt>
      <trkpt lat="45.2559462748467922210693359375" lon="-71.1295110918581485748291015625">
        <ele>776.79998779296875</ele>
        <time>2026-08-22T02:07:16.000Z</time>
        <extensions>
          <ns3:TrackPointExtension>
            <ns3:hr>138</ns3:hr>
            <ns3:cad>0</ns3:cad>
          </ns3:TrackPointExtension>
        </extensions>
      </trkpt>
      <trkpt lat="45.25593864731490612030029296875" lon="-71.1295053921639919281005859375">
        <ele>777</ele>
        <time>2026-08-22T02:07:17.000Z</time>
        <extensions>
          <ns3:TrackPointExtension>
            <ns3:hr>138</ns3:hr>
            <ns3:cad>0</ns3:cad>
          </ns3:TrackPointExtension>
        </extensions>
      </trkpt>
      <trkpt lat="45.25593613274395465850830078125" lon="-71.129500530660152435302734375">
        <ele>777</ele>
        <time>2026-08-22T02:07:18.000Z</time>
        <extensions>
          <ns3:TrackPointExtension>
            <ns3:hr>139</ns3:hr>
            <ns3:cad>0</ns3:cad>
          </ns3:TrackPointExtension>
        </extensions>
      </trkpt>
      <trkpt lat="45.25592766702175140380859375" lon="-71.1294953338801860809326171875">
        <ele>777.20001220703125</ele>
        <time>2026-08-22T02:07:19.000Z</time>
        <extensions>
          <ns3:TrackPointExtension>
            <ns3:hr>139</ns3:hr>
            <ns3:cad>0</ns3:cad>
          </ns3:TrackPointExtension>
        </extensions>
      </trkpt>
      <trkpt lat="45.2559224702417850494384765625" lon="-71.12949474714696407318115234375">
        <ele>777.4000244140625</ele>
        <time>2026-08-22T02:07:20.000Z</time>
        <extensions>
          <ns3:TrackPointExtension>
            <ns3:hr>139</ns3:hr>
            <ns3:cad>0</ns3:cad>
          </ns3:TrackPointExtension>
        </extensions>
      </trkpt>
      <trkpt lat="45.25591433979570865631103515625" lon="-71.12949659116566181182861328125">
        <ele>777.5999755859375</ele>
        <time>2026-08-22T02:07:21.000Z</time>
        <extensions>
          <ns3:TrackPointExtension>
            <ns3:hr>139</ns3:hr>
            <ns3:cad>0</ns3:cad>
          </ns3:TrackPointExtension>
        </extensions>
      </trkpt>
      <trkpt lat="45.2559047006070613861083984375" lon="-71.12949525006115436553955078125">
        <ele>777.79998779296875</ele>
        <time>2026-08-22T02:07:22.000Z</time>
        <extensions>
          <ns3:TrackPointExtension>
            <ns3:hr>139</ns3:hr>
            <ns3:cad>0</ns3:cad>
          </ns3:TrackPointExtension>
        </extensions>
      </trkpt>
      <trkpt lat="45.25589992292225360870361328125" lon="-71.12949625588953495025634765625">
        <ele>778</ele>
        <time>2026-08-22T02:07:23.000Z</time>
        <extensions>
          <ns3:TrackPointExtension>
            <ns3:hr>140</ns3:hr>
            <ns3:cad>0</ns3:cad>
          </ns3:TrackPointExtension>
        </extensions>
      </trkpt>
      <trkpt lat="45.2558921277523040771484375" lon="-71.1294993571937084197998046875">
        <ele>778.20001220703125</ele>
        <time>2026-08-22T02:07:24.000Z</time>
        <extensions>
          <ns3:TrackPointExtension>
            <ns3:hr>141</ns3:hr>
            <ns3:cad>0</ns3:cad>
          </ns3:TrackPointExtension>
        </extensions>
      </trkpt>
      <trkpt lat="45.2558855898678302764892578125" lon="-71.12950061447918415069580078125">
        <ele>778.4000244140625</ele>
        <time>2026-08-22T02:07:25.000Z</time>
        <extensions>
          <ns3:TrackPointExtension>
            <ns3:hr>141</ns3:hr>
            <ns3:cad>0</ns3:cad>
          </ns3:TrackPointExtension>
        </extensions>
      </trkpt>
      <trkpt lat="45.255882404744625091552734375" lon="-71.129503212869167327880859375">
        <ele>778.4000244140625</ele>
        <time>2026-08-22T02:07:26.000Z</time>
        <extensions>
          <ns3:TrackPointExtension>
            <ns3:hr>141</ns3:hr>
            <ns3:cad>0</ns3:cad>
          </ns3:TrackPointExtension>
        </extensions>
      </trkpt>
      <trkpt lat="45.25588349439203739166259765625" lon="-71.12950363196432590484619140625">
        <ele>778.5999755859375</ele>
        <time>2026-08-22T02:07:27.000Z</time>
        <extensions>
          <ns3:TrackPointExtension>
            <ns3:hr>142</ns3:hr>
            <ns3:cad>0</ns3:cad>
          </ns3:TrackPointExtension>
        </extensions>
      </trkpt>
      <trkpt lat="45.25588131509721279144287109375" lon="-71.12950128503143787384033203125">
        <ele>779</ele>
        <time>2026-08-22T02:07:28.000Z</time>
        <extensions>
          <ns3:TrackPointExtension>
            <ns3:hr>142</ns3:hr>
            <ns3:cad>0</ns3:cad>
          </ns3:TrackPointExtension>
        </extensions>
      </trkpt>
      <trkpt lat="45.2558832429349422454833984375" lon="-71.1295017041265964508056640625">
        <ele>779.20001220703125</ele>
        <time>2026-08-22T02:07:29.000Z</time>
        <extensions>
          <ns3:TrackPointExtension>
            <ns3:hr>141</ns3:hr>
            <ns3:cad>0</ns3:cad>
          </ns3:TrackPointExtension>
        </extensions>
      </trkpt>
      <trkpt lat="45.255886428058147430419921875" lon="-71.12950463779270648956298828125">
        <ele>779.4000244140625</ele>
        <time>2026-08-22T02:07:30.000Z</time>
        <extensions>
          <ns3:TrackPointExtension>
            <ns3:hr>141</ns3:hr>
            <ns3:cad>0</ns3:cad>
          </ns3:TrackPointExtension>
        </extensions>
      </trkpt>
      <trkpt lat="45.255885757505893707275390625" lon="-71.1295013688504695892333984375">
        <ele>779.5999755859375</ele>
        <time>2026-08-22T02:07:31.000Z</time>
        <extensions>
          <ns3:TrackPointExtension>
            <ns3:hr>141</ns3:hr>
            <ns3:cad>0</ns3:cad>
          </ns3:TrackPointExtension>
        </extensions>
      </trkpt>
      <trkpt lat="45.25588810443878173828125" lon="-71.1294980160892009735107421875">
        <ele>779.79998779296875</ele>
        <time>2026-08-22T02:07:32.000Z</time>
        <extensions>
          <ns3:TrackPointExtension>
            <ns3:hr>141</ns3:hr>
            <ns3:cad>0</ns3:cad>
          </ns3:TrackPointExtension>
        </extensions>
      </trkpt>
      <trkpt lat="45.25588919408619403839111328125" lon="-71.1295017041265964508056640625">
        <ele>780</ele>
        <time>2026-08-22T02:07:33.000Z</time>
        <extensions>
          <ns3:TrackPointExtension>
            <ns3:hr>141</ns3:hr>
            <ns3:cad>0</ns3:cad>
          </ns3:TrackPointExtension>
        </extensions>
      </trkpt>
      <trkpt lat="45.25588835589587688446044921875" lon="-71.12949541769921779632568359375">
        <ele>780.20001220703125</ele>
        <time>2026-08-22T02:07:34.000Z</time>
        <extensions>
          <ns3:TrackPointExtension>
            <ns3:hr>141</ns3:hr>
            <ns3:cad>0</ns3:cad>
          </ns3:TrackPointExtension>
        </extensions>
      </trkpt>
      <trkpt lat="45.25589087046682834625244140625" lon="-71.12949223257601261138916015625">
        <ele>780.4000244140625</ele>
        <time>2026-08-22T02:07:35.000Z</time>
        <extensions>
          <ns3:TrackPointExtension>
            <ns3:hr>141</ns3:hr>
            <ns3:cad>0</ns3:cad>
          </ns3:TrackPointExtension>
        </extensions>
      </trkpt>
      <trkpt lat="45.25589288212358951568603515625" lon="-71.129484437406063079833984375">
        <ele>780.79998779296875</ele>
        <time>2026-08-22T02:07:36.000Z</time>
        <extensions>
          <ns3:TrackPointExtension>
            <ns3:hr>141</ns3:hr>
            <ns3:cad>0</ns3:cad>
          </ns3:TrackPointExtension>
        </extensions>
      </trkpt>
      <trkpt lat="45.255891121923923492431640625" lon="-71.1294762231409549713134765625">
        <ele>781</ele>
        <time>2026-08-22T02:07:37.000Z</time>
        <extensions>
          <ns3:TrackPointExtension>
            <ns3:hr>141</ns3:hr>
            <ns3:cad>79</ns3:cad>
          </ns3:TrackPointExtension>
        </extensions>
      </trkpt>
      <trkpt lat="45.255890786647796630859375" lon="-71.12946532666683197021484375">
        <ele>781.20001220703125</ele>
        <time>2026-08-22T02:07:38.000Z</time>
        <extensions>
          <ns3:TrackPointExtension>
            <ns3:hr>141</ns3:hr>
            <ns3:cad>79</ns3:cad>
          </ns3:TrackPointExtension>
        </extensions>
      </trkpt>
      <trkpt lat="45.25589145720005035400390625" lon="-71.12945920787751674652099609375">
        <ele>781.4000244140625</ele>
        <time>2026-08-22T02:07:39.000Z</time>
        <extensions>
          <ns3:TrackPointExtension>
            <ns3:hr>141</ns3:hr>
            <ns3:cad>79</ns3:cad>
          </ns3:TrackPointExtension>
        </extensions>
      </trkpt>
      <trkpt lat="45.2558946423232555389404296875" lon="-71.129447557032108306884765625">
        <ele>781.5999755859375</ele>
        <time>2026-08-22T02:07:40.000Z</time>
        <extensions>
          <ns3:TrackPointExtension>
            <ns3:hr>141</ns3:hr>
            <ns3:cad>79</ns3:cad>
          </ns3:TrackPointExtension>
        </extensions>
      </trkpt>
      <trkpt lat="45.25589774362742900848388671875" lon="-71.12943825311958789825439453125">
        <ele>781.5999755859375</ele>
        <time>2026-08-22T02:07:41.000Z</time>
        <extensions>
          <ns3:TrackPointExtension>
            <ns3:hr>141</ns3:hr>
            <ns3:cad>42</ns3:cad>
          </ns3:TrackPointExtension>
        </extensions>
      </trkpt>
      <trkpt lat="45.25589925236999988555908203125" lon="-71.12942534498870372772216796875">
        <ele>781.5999755859375</ele>
        <time>2026-08-22T02:07:42.000Z</time>
        <extensions>
          <ns3:TrackPointExtension>
            <ns3:hr>141</ns3:hr>
            <ns3:cad>42</ns3:cad>
          </ns3:TrackPointExtension>
        </extensions>
      </trkpt>
      <trkpt lat="45.25590059347450733184814453125" lon="-71.12941662780940532684326171875">
        <ele>781.79998779296875</ele>
        <time>2026-08-22T02:07:43.000Z</time>
        <extensions>
          <ns3:TrackPointExtension>
            <ns3:hr>142</ns3:hr>
            <ns3:cad>41</ns3:cad>
          </ns3:TrackPointExtension>
        </extensions>
      </trkpt>
      <trkpt lat="45.25590159930288791656494140625" lon="-71.12940656952559947967529296875">
        <ele>782</ele>
        <time>2026-08-22T02:07:44.000Z</time>
        <extensions>
          <ns3:TrackPointExtension>
            <ns3:hr>141</ns3:hr>
            <ns3:cad>41</ns3:cad>
          </ns3:TrackPointExtension>
        </extensions>
      </trkpt>
      <trkpt lat="45.25590059347450733184814453125" lon="-71.12939969636499881744384765625">
        <ele>782</ele>
        <time>2026-08-22T02:07:45.000Z</time>
        <extensions>
          <ns3:TrackPointExtension>
            <ns3:hr>142</ns3:hr>
            <ns3:cad>41</ns3:cad>
          </ns3:TrackPointExtension>
        </extensions>
      </trkpt>
      <trkpt lat="45.25590327568352222442626953125" lon="-71.1293907277286052703857421875">
        <ele>782.20001220703125</ele>
        <time>2026-08-22T02:07:46.000Z</time>
        <extensions>
          <ns3:TrackPointExtension>
            <ns3:hr>142</ns3:hr>
            <ns3:cad>41</ns3:cad>
          </ns3:TrackPointExtension>
        </extensions>
      </trkpt>
      <trkpt lat="45.2559033595025539398193359375" lon="-71.12938846461474895477294921875">
        <ele>782.4000244140625</ele>
        <time>2026-08-22T02:07:47.000Z</time>
        <extensions>
          <ns3:TrackPointExtension>
            <ns3:hr>141</ns3:hr>
            <ns3:cad>41</ns3:cad>
          </ns3:TrackPointExtension>
        </extensions>
      </trkpt>
      <trkpt lat="45.2559026889503002166748046875" lon="-71.12938008271157741546630859375">
        <ele>782.5999755859375</ele>
        <time>2026-08-22T02:07:48.000Z</time>
        <extensions>
          <ns3:TrackPointExtension>
            <ns3:hr>141</ns3:hr>
            <ns3:cad>41</ns3:cad>
          </ns3:TrackPointExtension>
        </extensions>
      </trkpt>
      <trkpt lat="45.2559040300548076629638671875" lon="-71.129371114075183868408203125">
        <ele>782.79998779296875</ele>
        <time>2026-08-22T02:07:49.000Z</time>
        <extensions>
          <ns3:TrackPointExtension>
            <ns3:hr>141</ns3:hr>
            <ns3:cad>41</ns3:cad>
          </ns3:TrackPointExtension>
        </extensions>
      </trkpt>
      <trkpt lat="45.25590713135898113250732421875" lon="-71.12936340272426605224609375">
        <ele>783</ele>
        <time>2026-08-22T02:07:50.000Z</time>
        <extensions>
          <ns3:TrackPointExtension>
            <ns3:hr>141</ns3:hr>
            <ns3:cad>75</ns3:cad>
          </ns3:TrackPointExtension>
        </extensions>
      </trkpt>
      <trkpt lat="45.25591283105313777923583984375" lon="-71.129350997507572174072265625">
        <ele>783</ele>
        <time>2026-08-22T02:07:51.000Z</time>
        <extensions>
          <ns3:TrackPointExtension>
            <ns3:hr>141</ns3:hr>
            <ns3:cad>75</ns3:cad>
          </ns3:TrackPointExtension>
        </extensions>
      </trkpt>
      <trkpt lat="45.2559134177863597869873046875" lon="-71.12933733500540256500244140625">
        <ele>783.20001220703125</ele>
        <time>2026-08-22T02:07:52.000Z</time>
        <extensions>
          <ns3:TrackPointExtension>
            <ns3:hr>142</ns3:hr>
            <ns3:cad>75</ns3:cad>
          </ns3:TrackPointExtension>
        </extensions>
      </trkpt>
      <trkpt lat="45.2559144236147403717041015625" lon="-71.129325516521930694580078125">
        <ele>783.20001220703125</ele>
        <time>2026-08-22T02:07:53.000Z</time>
        <extensions>
          <ns3:TrackPointExtension>
            <ns3:hr>141</ns3:hr>
            <ns3:cad>75</ns3:cad>
          </ns3:TrackPointExtension>
        </extensions>
      </trkpt>
      <trkpt lat="45.25591718964278697967529296875" lon="-71.12931001000106334686279296875">
        <ele>783.4000244140625</ele>
        <time>2026-08-22T02:07:54.000Z</time>
        <extensions>
          <ns3:TrackPointExtension>
            <ns3:hr>141</ns3:hr>
            <ns3:cad>75</ns3:cad>
          </ns3:TrackPointExtension>
        </extensions>
      </trkpt>
      <trkpt lat="45.25591869838535785675048828125" lon="-71.1292983591556549072265625">
        <ele>783.4000244140625</ele>
        <time>2026-08-22T02:07:55.000Z</time>
        <extensions>
          <ns3:TrackPointExtension>
            <ns3:hr>140</ns3:hr>
            <ns3:cad>43</ns3:cad>
          </ns3:TrackPointExtension>
        </extensions>
      </trkpt>
      <trkpt lat="45.255919285118579864501953125" lon="-71.1292898096144199371337890625">
        <ele>783.4000244140625</ele>
        <time>2026-08-22T02:07:56.000Z</time>
        <extensions>
          <ns3:TrackPointExtension>
            <ns3:hr>140</ns3:hr>
            <ns3:cad>43</ns3:cad>
          </ns3:TrackPointExtension>
        </extensions>
      </trkpt>
      <trkpt lat="45.255919285118579864501953125" lon="-71.12928067333996295928955078125">
        <ele>783.5999755859375</ele>
        <time>2026-08-22T02:07:57.000Z</time>
        <extensions>
          <ns3:TrackPointExtension>
            <ns3:hr>141</ns3:hr>
            <ns3:cad>43</ns3:cad>
          </ns3:TrackPointExtension>
        </extensions>
      </trkpt>
      <trkpt lat="45.25592054240405559539794921875" lon="-71.12926474772393703460693359375">
        <ele>783.79998779296875</ele>
        <time>2026-08-22T02:07:58.000Z</time>
        <extensions>
          <ns3:TrackPointExtension>
            <ns3:hr>141</ns3:hr>
            <ns3:cad>43</ns3:cad>
          </ns3:TrackPointExtension>
        </extensions>
      </trkpt>
      <trkpt lat="45.2559214644134044647216796875" lon="-71.12925485707819461822509765625">
        <ele>784</ele>
        <time>2026-08-22T02:07:59.000Z</time>
        <extensions>
          <ns3:TrackPointExtension>
            <ns3:hr>141</ns3:hr>
            <ns3:cad>43</ns3:cad>
          </ns3:TrackPointExtension>
        </extensions>
      </trkpt>
      <trkpt lat="45.25592364370822906494140625" lon="-71.12924463115632534027099609375">
        <ele>784</ele>
        <time>2026-08-22T02:08:00.000Z</time>
        <extensions>
          <ns3:TrackPointExtension>
            <ns3:hr>140</ns3:hr>
            <ns3:cad>44</ns3:cad>
          </ns3:TrackPointExtension>
        </extensions>
      </trkpt>
      <trkpt lat="45.25592439807951450347900390625" lon="-71.1292261071503162384033203125">
        <ele>784.20001220703125</ele>
        <time>2026-08-22T02:08:01.000Z</time>
        <extensions>
          <ns3:TrackPointExtension>
            <ns3:hr>140</ns3:hr>
            <ns3:cad>44</ns3:cad>
          </ns3:TrackPointExtension>
        </extensions>
      </trkpt>
      <trkpt lat="45.25592456571757793426513671875" lon="-71.12921931780874729156494140625">
        <ele>784.4000244140625</ele>
        <time>2026-08-22T02:08:02.000Z</time>
        <extensions>
          <ns3:TrackPointExtension>
            <ns3:hr>140</ns3:hr>
            <ns3:cad>44</ns3:cad>
          </ns3:TrackPointExtension>
        </extensions>
      </trkpt>
      <trkpt lat="45.2559221349656581878662109375" lon="-71.1292090080678462982177734375">
        <ele>784.5999755859375</ele>
        <time>2026-08-22T02:08:03.000Z</time>
        <extensions>
          <ns3:TrackPointExtension>
            <ns3:hr>140</ns3:hr>
            <ns3:cad>40</ns3:cad>
          </ns3:TrackPointExtension>
        </extensions>
      </trkpt>
      <trkpt lat="45.25591886602342128753662109375" lon="-71.12919836305081844329833984375">
        <ele>784.79998779296875</ele>
        <time>2026-08-22T02:08:04.000Z</time>
        <extensions>
          <ns3:TrackPointExtension>
            <ns3:hr>140</ns3:hr>
            <ns3:cad>40</ns3:cad>
          </ns3:TrackPointExtension>
        </extensions>
      </trkpt>
      <trkpt lat="45.2559150941669940948486328125" lon="-71.129194088280200958251953125">
        <ele>784.79998779296875</ele>
        <time>2026-08-22T02:08:05.000Z</time>
        <extensions>
          <ns3:TrackPointExtension>
            <ns3:hr>140</ns3:hr>
            <ns3:cad>0</ns3:cad>
          </ns3:TrackPointExtension>
        </extensions>
      </trkpt>
      <trkpt lat="45.2559154294431209564208984375" lon="-71.12919467501342296600341796875">
        <ele>785</ele>
        <time>2026-08-22T02:08:06.000Z</time>
        <extensions>
          <ns3:TrackPointExtension>
            <ns3:hr>139</ns3:hr>
            <ns3:cad>0</ns3:cad>
          </ns3:TrackPointExtension>
        </extensions>
      </trkpt>
      <trkpt lat="45.25591266341507434844970703125" lon="-71.1291898973286151885986328125">
        <ele>785.20001220703125</ele>
        <time>2026-08-22T02:08:07.000Z</time>
        <extensions>
          <ns3:TrackPointExtension>
            <ns3:hr>139</ns3:hr>
            <ns3:cad>0</ns3:cad>
          </ns3:TrackPointExtension>
        </extensions>
      </trkpt>
      <trkpt lat="45.2559087239205837249755859375" lon="-71.12917430698871612548828125">
        <ele>785.20001220703125</ele>
        <time>2026-08-22T02:08:08.000Z</time>
        <extensions>
          <ns3:TrackPointExtension>
            <ns3:hr>139</ns3:hr>
            <ns3:cad>0</ns3:cad>
          </ns3:TrackPointExtension>
        </extensions>
      </trkpt>
      <trkpt lat="45.25590629316866397857666015625" lon="-71.12917640246450901031494140625">
        <ele>785.5999755859375</ele>
        <time>2026-08-22T02:08:09.000Z</time>
        <extensions>
          <ns3:TrackPointExtension>
            <ns3:hr>138</ns3:hr>
            <ns3:cad>0</ns3:cad>
          </ns3:TrackPointExtension>
        </extensions>
      </trkpt>
      <trkpt lat="45.25590419769287109375" lon="-71.1291691102087497711181640625">
        <ele>785.79998779296875</ele>
        <time>2026-08-22T02:08:10.000Z</time>
        <extensions>
          <ns3:TrackPointExtension>
            <ns3:hr>138</ns3:hr>
            <ns3:cad>0</ns3:cad>
          </ns3:TrackPointExtension>
        </extensions>
      </trkpt>
      <trkpt lat="45.255902521312236785888671875" lon="-71.129165254533290863037109375">
        <ele>786</ele>
        <time>2026-08-22T02:08:11.000Z</time>
        <extensions>
          <ns3:TrackPointExtension>
            <ns3:hr>138</ns3:hr>
            <ns3:cad>0</ns3:cad>
          </ns3:TrackPointExtension>
        </extensions>
      </trkpt>
      <trkpt lat="45.25589891709387302398681640625" lon="-71.12915662117302417755126953125">
        <ele>786.20001220703125</ele>
        <time>2026-08-22T02:08:12.000Z</time>
        <extensions>
          <ns3:TrackPointExtension>
            <ns3:hr>138</ns3:hr>
            <ns3:cad>0</ns3:cad>
          </ns3:TrackPointExtension>
        </extensions>
      </trkpt>
      <trkpt lat="45.25589539669454097747802734375" lon="-71.1291503347456455230712890625">
        <ele>786.4000244140625</ele>
        <time>2026-08-22T02:08:13.000Z</time>
        <extensions>
          <ns3:TrackPointExtension>
            <ns3:hr>138</ns3:hr>
            <ns3:cad>0</ns3:cad>
          </ns3:TrackPointExtension>
        </extensions>
      </trkpt>
      <trkpt lat="45.25589489378035068511962890625" lon="-71.12915175966918468475341796875">
        <ele>786.5999755859375</ele>
        <time>2026-08-22T02:08:14.000Z</time>
        <extensions>
          <ns3:TrackPointExtension>
            <ns3:hr>138</ns3:hr>
            <ns3:cad>0</ns3:cad>
          </ns3:TrackPointExtension>
        </extensions>
      </trkpt>
      <trkpt lat="45.2558916248381137847900390625" lon="-71.1291466467082500457763671875">
        <ele>786.5999755859375</ele>
        <time>2026-08-22T02:08:15.000Z</time>
        <extensions>
          <ns3:TrackPointExtension>
            <ns3:hr>137</ns3:hr>
            <ns3:cad>0</ns3:cad>
          </ns3:TrackPointExtension>
        </extensions>
      </trkpt>
      <trkpt lat="45.25588986463844776153564453125" lon="-71.12914505414664745330810546875">
        <ele>786.79998779296875</ele>
        <time>2026-08-22T02:08:16.000Z</time>
        <extensions>
          <ns3:TrackPointExtension>
            <ns3:hr>137</ns3:hr>
            <ns3:cad>0</ns3:cad>
          </ns3:TrackPointExtension>
        </extensions>
      </trkpt>
      <trkpt lat="45.25588810443878173828125" lon="-71.12913935445249080657958984375">
        <ele>787</ele>
        <time>2026-08-22T02:08:17.000Z</time>
        <extensions>
          <ns3:TrackPointExtension>
            <ns3:hr>136</ns3:hr>
            <ns3:cad>0</ns3:cad>
          </ns3:TrackPointExtension>
        </extensions>
      </trkpt>
      <trkpt lat="45.2558852545917034149169921875" lon="-71.12912929616868495941162109375">
        <ele>787.20001220703125</ele>
        <time>2026-08-22T02:08:18.000Z</time>
        <extensions>
          <ns3:TrackPointExtension>
            <ns3:hr>136</ns3:hr>
            <ns3:cad>0</ns3:cad>
          </ns3:TrackPointExtension>
        </extensions>
      </trkpt>
      <trkpt lat="45.25588299147784709930419921875" lon="-71.1291240155696868896484375">
        <ele>787.4000244140625</ele>
        <time>2026-08-22T02:08:19.000Z</time>
        <extensions>
          <ns3:TrackPointExtension>
            <ns3:hr>136</ns3:hr>
            <ns3:cad>0</ns3:cad>
          </ns3:TrackPointExtension>
        </extensions>
      </trkpt>
      <trkpt lat="45.255877710878849029541015625" lon="-71.1291158013045787811279296875">
        <ele>787.5999755859375</ele>
        <time>2026-08-22T02:08:20.000Z</time>
        <extensions>
          <ns3:TrackPointExtension>
            <ns3:hr>136</ns3:hr>
            <ns3:cad>0</ns3:cad>
          </ns3:TrackPointExtension>
        </extensions>
      </trkpt>
      <trkpt lat="45.25587326847016811370849609375" lon="-71.1291060782968997955322265625">
        <ele>787.79998779296875</ele>
        <time>2026-08-22T02:08:21.000Z</time>
        <extensions>
          <ns3:TrackPointExtension>
            <ns3:hr>136</ns3:hr>
            <ns3:cad>0</ns3:cad>
          </ns3:TrackPointExtension>
        </extensions>
      </trkpt>
      <trkpt lat="45.2558678202331066131591796875" lon="-71.12909543327987194061279296875">
        <ele>788</ele>
        <time>2026-08-22T02:08:22.000Z</time>
        <extensions>
          <ns3:TrackPointExtension>
            <ns3:hr>136</ns3:hr>
            <ns3:cad>0</ns3:cad>
          </ns3:TrackPointExtension>
        </extensions>
      </trkpt>
      <trkpt lat="45.25586136616766452789306640625" lon="-71.12909208051860332489013671875">
        <ele>788.20001220703125</ele>
        <time>2026-08-22T02:08:23.000Z</time>
        <extensions>
          <ns3:TrackPointExtension>
            <ns3:hr>136</ns3:hr>
            <ns3:cad>0</ns3:cad>
          </ns3:TrackPointExtension>
        </extensions>
      </trkpt>
      <trkpt lat="45.25584812276065349578857421875" lon="-71.1290869675576686859130859375">
        <ele>788.4000244140625</ele>
        <time>2026-08-22T02:08:24.000Z</time>
        <extensions>
          <ns3:TrackPointExtension>
            <ns3:hr>135</ns3:hr>
            <ns3:cad>0</ns3:cad>
          </ns3:TrackPointExtension>
        </extensions>
      </trkpt>
      <trkpt lat="45.25584024377167224884033203125" lon="-71.12908847630023956298828125">
        <ele>788.5999755859375</ele>
        <time>2026-08-22T02:08:25.000Z</time>
        <extensions>
          <ns3:TrackPointExtension>
            <ns3:hr>135</ns3:hr>
            <ns3:cad>0</ns3:cad>
          </ns3:TrackPointExtension>
        </extensions>
      </trkpt>
      <trkpt lat="45.25583538226783275604248046875" lon="-71.12908923067152500152587890625">
        <ele>788.79998779296875</ele>
        <time>2026-08-22T02:08:26.000Z</time>
        <extensions>
          <ns3:TrackPointExtension>
            <ns3:hr>135</ns3:hr>
            <ns3:cad>40</ns3:cad>
          </ns3:TrackPointExtension>
        </extensions>
      </trkpt>
      <trkpt lat="45.2558245696127414703369140625" lon="-71.12909073941409587860107421875">
        <ele>789</ele>
        <time>2026-08-22T02:08:27.000Z</time>
        <extensions>
          <ns3:TrackPointExtension>
            <ns3:hr>135</ns3:hr>
            <ns3:cad>44</ns3:cad>
          </ns3:TrackPointExtension>
        </extensions>
      </trkpt>
      <trkpt lat="45.25581275112926959991455078125" lon="-71.12909384071826934814453125">
        <ele>789.20001220703125</ele>
        <time>2026-08-22T02:08:28.000Z</time>
        <extensions>
          <ns3:TrackPointExtension>
            <ns3:hr>135</ns3:hr>
            <ns3:cad>44</ns3:cad>
          </ns3:TrackPointExtension>
        </extensions>
      </trkpt>
      <trkpt lat="45.25580604560673236846923828125" lon="-71.1290956847369670867919921875">
        <ele>789.20001220703125</ele>
        <time>2026-08-22T02:08:29.000Z</time>
        <extensions>
          <ns3:TrackPointExtension>
            <ns3:hr>135</ns3:hr>
            <ns3:cad>44</ns3:cad>
          </ns3:TrackPointExtension>
        </extensions>
      </trkpt>
      <trkpt lat="45.25579447858035564422607421875" lon="-71.1290940083563327789306640625">
        <ele>789.4000244140625</ele>
        <time>2026-08-22T02:08:30.000Z</time>
        <extensions>
          <ns3:TrackPointExtension>
            <ns3:hr>135</ns3:hr>
            <ns3:cad>44</ns3:cad>
          </ns3:TrackPointExtension>
        </extensions>
      </trkpt>
      <trkpt lat="45.25578794069588184356689453125" lon="-71.12909526564180850982666015625">
        <ele>789.5999755859375</ele>
        <time>2026-08-22T02:08:31.000Z</time>
        <extensions>
          <ns3:TrackPointExtension>
            <ns3:hr>136</ns3:hr>
            <ns3:cad>44</ns3:cad>
          </ns3:TrackPointExtension>
        </extensions>
      </trkpt>
      <trkpt lat="45.25578157044947147369384765625" lon="-71.129095517098903656005859375">
        <ele>789.79998779296875</ele>
        <time>2026-08-22T02:08:32.000Z</time>
        <extensions>
          <ns3:TrackPointExtension>
            <ns3:hr>136</ns3:hr>
            <ns3:cad>44</ns3:cad>
          </ns3:TrackPointExtension>
        </extensions>
      </trkpt>
      <trkpt lat="45.255772769451141357421875" lon="-71.1291023902595043182373046875">
        <ele>789.79998779296875</ele>
        <time>2026-08-22T02:08:33.000Z</time>
        <extensions>
          <ns3:TrackPointExtension>
            <ns3:hr>136</ns3:hr>
            <ns3:cad>0</ns3:cad>
          </ns3:TrackPointExtension>
        </extensions>
      </trkpt>
      <trkpt lat="45.25576497428119182586669921875" lon="-71.12910549156367778778076171875">
        <ele>790</ele>
        <time>2026-08-22T02:08:34.000Z</time>
        <extensions>
          <ns3:TrackPointExtension>
            <ns3:hr>136</ns3:hr>
            <ns3:cad>0</ns3:cad>
          </ns3:TrackPointExtension>
        </extensions>
      </trkpt>
      <trkpt lat="45.2557588554918766021728515625" lon="-71.12910591065883636474609375">
        <ele>790.20001220703125</ele>
        <time>2026-08-22T02:08:35.000Z</time>
        <extensions>
          <ns3:TrackPointExtension>
            <ns3:hr>137</ns3:hr>
            <ns3:cad>0</ns3:cad>
          </ns3:TrackPointExtension>
        </extensions>
      </trkpt>
      <trkpt lat="45.255750305950641632080078125" lon="-71.12910565920174121856689453125">
        <ele>790.4000244140625</ele>
        <time>2026-08-22T02:08:36.000Z</time>
        <extensions>
          <ns3:TrackPointExtension>
            <ns3:hr>137</ns3:hr>
            <ns3:cad>0</ns3:cad>
          </ns3:TrackPointExtension>
        </extensions>
      </trkpt>
      <trkpt lat="45.25574670173227787017822265625" lon="-71.129105575382709503173828125">
        <ele>790.5999755859375</ele>
        <time>2026-08-22T02:08:37.000Z</time>
        <extensions>
          <ns3:TrackPointExtension>
            <ns3:hr>138</ns3:hr>
            <ns3:cad>0</ns3:cad>
          </ns3:TrackPointExtension>
        </extensions>
      </trkpt>
      <trkpt lat="45.25573454797267913818359375" lon="-71.12910850904881954193115234375">
        <ele>791</ele>
        <time>2026-08-22T02:08:38.000Z</time>
        <extensions>
          <ns3:TrackPointExtension>
            <ns3:hr>139</ns3:hr>
            <ns3:cad>0</ns3:cad>
          </ns3:TrackPointExtension>
        </extensions>
      </trkpt>
      <trkpt lat="45.2557303570210933685302734375" lon="-71.1291194893419742584228515625">
        <ele>791.20001220703125</ele>
        <time>2026-08-22T02:08:39.000Z</time>
        <extensions>
          <ns3:TrackPointExtension>
            <ns3:hr>139</ns3:hr>
            <ns3:cad>0</ns3:cad>
          </ns3:TrackPointExtension>
        </extensions>
      </trkpt>
      <trkpt lat="45.25572205893695354461669921875" lon="-71.1291245184838771820068359375">
        <ele>791.4000244140625</ele>
        <time>2026-08-22T02:08:40.000Z</time>
        <extensions>
          <ns3:TrackPointExtension>
            <ns3:hr>139</ns3:hr>
            <ns3:cad>0</ns3:cad>
          </ns3:TrackPointExtension>
        </extensions>
      </trkpt>
      <trkpt lat="45.25570931844413280487060546875" lon="-71.12913583405315876007080078125">
        <ele>791.5999755859375</ele>
        <time>2026-08-22T02:08:41.000Z</time>
        <extensions>
          <ns3:TrackPointExtension>
            <ns3:hr>139</ns3:hr>
            <ns3:cad>0</ns3:cad>
          </ns3:TrackPointExtension>
        </extensions>
      </trkpt>
      <trkpt lat="45.25569540448486804962158203125" lon="-71.12913549877703189849853515625">
        <ele>791.79998779296875</ele>
        <time>2026-08-22T02:08:42.000Z</time>
        <extensions>
          <ns3:TrackPointExtension>
            <ns3:hr>138</ns3:hr>
            <ns3:cad>0</ns3:cad>
          </ns3:TrackPointExtension>
        </extensions>
      </trkpt>
      <trkpt lat="45.2556901238858699798583984375" lon="-71.1291355825960636138916015625">
        <ele>791.79998779296875</ele>
        <time>2026-08-22T02:08:43.000Z</time>
        <extensions>
          <ns3:TrackPointExtension>
            <ns3:hr>138</ns3:hr>
            <ns3:cad>0</ns3:cad>
          </ns3:TrackPointExtension>
        </extensions>
      </trkpt>
      <trkpt lat="45.255678556859493255615234375" lon="-71.12913868390023708343505859375">
        <ele>792</ele>
        <time>2026-08-22T02:08:44.000Z</time>
        <extensions>
          <ns3:TrackPointExtension>
            <ns3:hr>138</ns3:hr>
            <ns3:cad>0</ns3:cad>
          </ns3:TrackPointExtension>
        </extensions>
      </trkpt>
      <trkpt lat="45.25567126460373401641845703125" lon="-71.129147149622440338134765625">
        <ele>792.20001220703125</ele>
        <time>2026-08-22T02:08:45.000Z</time>
        <extensions>
          <ns3:TrackPointExtension>
            <ns3:hr>138</ns3:hr>
            <ns3:cad>0</ns3:cad>
          </ns3:TrackPointExtension>
        </extensions>
      </trkpt>
      <trkpt lat="45.25566355325281620025634765625" lon="-71.129160225391387939453125">
        <ele>792.4000244140625</ele>
        <time>2026-08-22T02:08:46.000Z</time>
        <extensions>
          <ns3:TrackPointExtension>
            <ns3:hr>138</ns3:hr>
            <ns3:cad>0</ns3:cad>
          </ns3:TrackPointExtension>
        </extensions>
      </trkpt>
      <trkpt lat="45.255655087530612945556640625" lon="-71.12916936166584491729736328125">
        <ele>792.5999755859375</ele>
        <time>2026-08-22T02:08:47.000Z</time>
        <extensions>
          <ns3:TrackPointExtension>
            <ns3:hr>138</ns3:hr>
            <ns3:cad>0</ns3:cad>
          </ns3:TrackPointExtension>
        </extensions>
      </trkpt>
      <trkpt lat="45.25564947165548801422119140625" lon="-71.1291751451790332794189453125">
        <ele>792.5999755859375</ele>
        <time>2026-08-22T02:08:48.000Z</time>
        <extensions>
          <ns3:TrackPointExtension>
            <ns3:hr>138</ns3:hr>
            <ns3:cad>0</ns3:cad>
          </ns3:TrackPointExtension>
        </extensions>
      </trkpt>
      <trkpt lat="45.2556400001049041748046875" lon="-71.129184029996395111083984375">
        <ele>792.79998779296875</ele>
        <time>2026-08-22T02:08:49.000Z</time>
        <extensions>
          <ns3:TrackPointExtension>
            <ns3:hr>138</ns3:hr>
            <ns3:cad>0</ns3:cad>
          </ns3:TrackPointExtension>
        </extensions>
      </trkpt>
      <trkpt lat="45.255636982619762420654296875" lon="-71.1291925795376300811767578125">
        <ele>792.79998779296875</ele>
        <time>2026-08-22T02:08:50.000Z</time>
        <extensions>
          <ns3:TrackPointExtension>
            <ns3:hr>138</ns3:hr>
            <ns3:cad>52</ns3:cad>
          </ns3:TrackPointExtension>
        </extensions>
      </trkpt>
      <trkpt lat="45.25563530623912811279296875" lon="-71.12920247018337249755859375">
        <ele>793</ele>
        <time>2026-08-22T02:08:51.000Z</time>
        <extensions>
          <ns3:TrackPointExtension>
            <ns3:hr>138</ns3:hr>
            <ns3:cad>52</ns3:cad>
          </ns3:TrackPointExtension>
        </extensions>
      </trkpt>
      <trkpt lat="45.25562801398336887359619140625" lon="-71.12921630032360553741455078125">
        <ele>793</ele>
        <time>2026-08-22T02:08:52.000Z</time>
        <extensions>
          <ns3:TrackPointExtension>
            <ns3:hr>138</ns3:hr>
            <ns3:cad>52</ns3:cad>
          </ns3:TrackPointExtension>
        </extensions>
      </trkpt>
      <trkpt lat="45.25562047027051448822021484375" lon="-71.12922535277903079986572265625">
        <ele>793</ele>
        <time>2026-08-22T02:08:53.000Z</time>
        <extensions>
          <ns3:TrackPointExtension>
            <ns3:hr>138</ns3:hr>
            <ns3:cad>0</ns3:cad>
          </ns3:TrackPointExtension>
        </extensions>
      </trkpt>
      <trkpt lat="45.2556106634438037872314453125" lon="-71.129239685833454132080078125">
        <ele>792.79998779296875</ele>
        <time>2026-08-22T02:08:54.000Z</time>
        <extensions>
          <ns3:TrackPointExtension>
            <ns3:hr>138</ns3:hr>
            <ns3:cad>0</ns3:cad>
          </ns3:TrackPointExtension>
        </extensions>
      </trkpt>
      <trkpt lat="45.25560538284480571746826171875" lon="-71.129255108535289764404296875">
        <ele>792.79998779296875</ele>
        <time>2026-08-22T02:08:55.000Z</time>
        <extensions>
          <ns3:TrackPointExtension>
            <ns3:hr>138</ns3:hr>
            <ns3:cad>0</ns3:cad>
          </ns3:TrackPointExtension>
        </extensions>
      </trkpt>
      <trkpt lat="45.25559616275131702423095703125" lon="-71.129265166819095611572265625">
        <ele>792.79998779296875</ele>
        <time>2026-08-22T02:08:56.000Z</time>
        <extensions>
          <ns3:TrackPointExtension>
            <ns3:hr>139</ns3:hr>
            <ns3:cad>0</ns3:cad>
          </ns3:TrackPointExtension>
        </extensions>
      </trkpt>
      <trkpt lat="45.25558711029589176177978515625" lon="-71.12927782349288463592529296875">
        <ele>793</ele>
        <time>2026-08-22T02:08:57.000Z</time>
        <extensions>
          <ns3:TrackPointExtension>
            <ns3:hr>139</ns3:hr>
            <ns3:cad>0</ns3:cad>
          </ns3:TrackPointExtension>
        </extensions>
      </trkpt>
      <trkpt lat="45.2555831708014011383056640625" lon="-71.1292894743382930755615234375">
        <ele>793.20001220703125</ele>
        <time>2026-08-22T02:08:58.000Z</time>
        <extensions>
          <ns3:TrackPointExtension>
            <ns3:hr>138</ns3:hr>
            <ns3:cad>0</ns3:cad>
          </ns3:TrackPointExtension>
        </extensions>
      </trkpt>
      <trkpt lat="45.25557118467986583709716796875" lon="-71.12930816598236560821533203125">
        <ele>793.20001220703125</ele>
        <time>2026-08-22T02:08:59.000Z</time>
        <extensions>
          <ns3:TrackPointExtension>
            <ns3:hr>138</ns3:hr>
            <ns3:cad>0</ns3:cad>
          </ns3:TrackPointExtension>
        </extensions>
      </trkpt>
      <trkpt lat="45.2555650658905506134033203125" lon="-71.12932744435966014862060546875">
        <ele>793.4000244140625</ele>
        <time>2026-08-22T02:09:00.000Z</time>
        <extensions>
          <ns3:TrackPointExtension>
            <ns3:hr>138</ns3:hr>
            <ns3:cad>0</ns3:cad>
          </ns3:TrackPointExtension>
        </extensions>
      </trkpt>
      <trkpt lat="45.25556414388120174407958984375" lon="-71.1293350718915462493896484375">
        <ele>793.5999755859375</ele>
        <time>2026-08-22T02:09:01.000Z</time>
        <extensions>
          <ns3:TrackPointExtension>
            <ns3:hr>138</ns3:hr>
            <ns3:cad>0</ns3:cad>
          </ns3:TrackPointExtension>
        </extensions>
      </trkpt>
      <trkpt lat="45.2555586956441402435302734375" lon="-71.12934462726116180419921875">
        <ele>793.5999755859375</ele>
        <time>2026-08-22T02:09:02.000Z</time>
        <extensions>
          <ns3:TrackPointExtension>
            <ns3:hr>138</ns3:hr>
            <ns3:cad>0</ns3:cad>
          </ns3:TrackPointExtension>
        </extensions>
      </trkpt>
      <trkpt lat="45.25555190630257129669189453125" lon="-71.1293508298695087432861328125">
        <ele>793.5999755859375</ele>
        <time>2026-08-22T02:09:03.000Z</time>
        <extensions>
          <ns3:TrackPointExtension>
            <ns3:hr>138</ns3:hr>
            <ns3:cad>0</ns3:cad>
          </ns3:TrackPointExtension>
        </extensions>
      </trkpt>
      <trkpt lat="45.2555407583713531494140625" lon="-71.12936331890523433685302734375">
        <ele>793.79998779296875</ele>
        <time>2026-08-22T02:09:04.000Z</time>
        <extensions>
          <ns3:TrackPointExtension>
            <ns3:hr>138</ns3:hr>
            <ns3:cad>0</ns3:cad>
          </ns3:TrackPointExtension>
        </extensions>
      </trkpt>
      <trkpt lat="45.2555348910391330718994140625" lon="-71.12937253899872303009033203125">
        <ele>793.79998779296875</ele>
        <time>2026-08-22T02:09:05.000Z</time>
        <extensions>
          <ns3:TrackPointExtension>
            <ns3:hr>138</ns3:hr>
            <ns3:cad>0</ns3:cad>
          </ns3:TrackPointExtension>
        </extensions>
      </trkpt>
      <trkpt lat="45.25552977807819843292236328125" lon="-71.129380501806735992431640625">
        <ele>793.79998779296875</ele>
        <time>2026-08-22T02:09:06.000Z</time>
        <extensions>
          <ns3:TrackPointExtension>
            <ns3:hr>138</ns3:hr>
            <ns3:cad>0</ns3:cad>
          </ns3:TrackPointExtension>
        </extensions>
      </trkpt>
      <trkpt lat="45.25552424602210521697998046875" lon="-71.1293900571763515472412109375">
        <ele>794</ele>
        <time>2026-08-22T02:09:07.000Z</time>
        <extensions>
          <ns3:TrackPointExtension>
            <ns3:hr>138</ns3:hr>
            <ns3:cad>0</ns3:cad>
          </ns3:TrackPointExtension>
        </extensions>
      </trkpt>
      <trkpt lat="45.255523659288883209228515625" lon="-71.12939290702342987060546875">
        <ele>794.20001220703125</ele>
        <time>2026-08-22T02:09:08.000Z</time>
        <extensions>
          <ns3:TrackPointExtension>
            <ns3:hr>138</ns3:hr>
            <ns3:cad>0</ns3:cad>
          </ns3:TrackPointExtension>
        </extensions>
      </trkpt>
      <trkpt lat="45.25551469065248966217041015625" lon="-71.1293984390795230865478515625">
        <ele>794.20001220703125</ele>
        <time>2026-08-22T02:09:09.000Z</time>
        <extensions>
          <ns3:TrackPointExtension>
            <ns3:hr>137</ns3:hr>
            <ns3:cad>0</ns3:cad>
          </ns3:TrackPointExtension>
        </extensions>
      </trkpt>
      <trkpt lat="45.25550966151058673858642578125" lon="-71.12939919345080852508544921875">
        <ele>794.4000244140625</ele>
        <time>2026-08-22T02:09:10.000Z</time>
        <extensions>
          <ns3:TrackPointExtension>
            <ns3:hr>138</ns3:hr>
            <ns3:cad>0</ns3:cad>
          </ns3:TrackPointExtension>
        </extensions>
      </trkpt>
      <trkpt lat="45.25550496764481067657470703125" lon="-71.12940036691725254058837890625">
        <ele>794.79998779296875</ele>
        <time>2026-08-22T02:09:11.000Z</time>
        <extensions>
          <ns3:TrackPointExtension>
            <ns3:hr>138</ns3:hr>
            <ns3:cad>0</ns3:cad>
          </ns3:TrackPointExtension>
        </extensions>
      </trkpt>
      <trkpt lat="45.25549943558871746063232421875" lon="-71.12939818762242794036865234375">
        <ele>795</ele>
        <time>2026-08-22T02:09:12.000Z</time>
        <extensions>
          <ns3:TrackPointExtension>
            <ns3:hr>138</ns3:hr>
            <ns3:cad>0</ns3:cad>
          </ns3:TrackPointExtension>
        </extensions>
      </trkpt>
      <trkpt lat="45.25550044141709804534912109375" lon="-71.1293991096317768096923828125">
        <ele>795.20001220703125</ele>
        <time>2026-08-22T02:09:13.000Z</time>
        <extensions>
          <ns3:TrackPointExtension>
            <ns3:hr>138</ns3:hr>
            <ns3:cad>0</ns3:cad>
          </ns3:TrackPointExtension>
        </extensions>
      </trkpt>
      <trkpt lat="45.25550044141709804534912109375" lon="-71.1293977685272693634033203125">
        <ele>795.4000244140625</ele>
        <time>2026-08-22T02:09:14.000Z</time>
        <extensions>
          <ns3:TrackPointExtension>
            <ns3:hr>138</ns3:hr>
            <ns3:cad>0</ns3:cad>
          </ns3:TrackPointExtension>
        </extensions>
      </trkpt>
      <trkpt lat="45.2555013634264469146728515625" lon="-71.129398606717586517333984375">
        <ele>795.79998779296875</ele>
        <time>2026-08-22T02:09:15.000Z</time>
        <extensions>
          <ns3:TrackPointExtension>
            <ns3:hr>137</ns3:hr>
            <ns3:cad>0</ns3:cad>
          </ns3:TrackPointExtension>
        </extensions>
      </trkpt>
      <trkpt lat="45.25550278834998607635498046875" lon="-71.1293947510421276092529296875">
        <ele>796</ele>
        <time>2026-08-22T02:09:16.000Z</time>
        <extensions>
          <ns3:TrackPointExtension>
            <ns3:hr>138</ns3:hr>
            <ns3:cad>0</ns3:cad>
          </ns3:TrackPointExtension>
        </extensions>
      </trkpt>
      <trkpt lat="45.2555033750832080841064453125" lon="-71.129395924508571624755859375">
        <ele>796.20001220703125</ele>
        <time>2026-08-22T02:09:17.000Z</time>
        <extensions>
          <ns3:TrackPointExtension>
            <ns3:hr>138</ns3:hr>
            <ns3:cad>0</ns3:cad>
          </ns3:TrackPointExtension>
        </extensions>
      </trkpt>
      <trkpt lat="45.2555027045309543609619140625" lon="-71.12939282320439815521240234375">
        <ele>796.4000244140625</ele>
        <time>2026-08-22T02:09:18.000Z</time>
        <extensions>
          <ns3:TrackPointExtension>
            <ns3:hr>137</ns3:hr>
            <ns3:cad>0</ns3:cad>
          </ns3:TrackPointExtension>
        </extensions>
      </trkpt>
      <trkpt lat="45.255499519407749176025390625" lon="-71.12938578240573406219482421875">
        <ele>796.5999755859375</ele>
        <time>2026-08-22T02:09:19.000Z</time>
        <extensions>
          <ns3:TrackPointExtension>
            <ns3:hr>137</ns3:hr>
            <ns3:cad>0</ns3:cad>
          </ns3:TrackPointExtension>
        </extensions>
      </trkpt>
      <trkpt lat="45.255500189960002899169921875" lon="-71.12938645295798778533935546875">
        <ele>796.5999755859375</ele>
        <time>2026-08-22T02:09:20.000Z</time>
        <extensions>
          <ns3:TrackPointExtension>
            <ns3:hr>137</ns3:hr>
            <ns3:cad>0</ns3:cad>
          </ns3:TrackPointExtension>
        </extensions>
      </trkpt>
      <trkpt lat="45.25550295598804950714111328125" lon="-71.12938963808119297027587890625">
        <ele>797</ele>
        <time>2026-08-22T02:09:21.000Z</time>
        <extensions>
          <ns3:TrackPointExtension>
            <ns3:hr>137</ns3:hr>
            <ns3:cad>0</ns3:cad>
          </ns3:TrackPointExtension>
        </extensions>
      </trkpt>
      <trkpt lat="45.25550362654030323028564453125" lon="-71.12938393838703632354736328125">
        <ele>797.20001220703125</ele>
        <time>2026-08-22T02:09:22.000Z</time>
        <extensions>
          <ns3:TrackPointExtension>
            <ns3:hr>137</ns3:hr>
            <ns3:cad>0</ns3:cad>
          </ns3:TrackPointExtension>
        </extensions>
      </trkpt>
      <trkpt lat="45.25549993850290775299072265625" lon="-71.12937186844646930694580078125">
        <ele>797.4000244140625</ele>
        <time>2026-08-22T02:09:23.000Z</time>
        <extensions>
          <ns3:TrackPointExtension>
            <ns3:hr>136</ns3:hr>
            <ns3:cad>0</ns3:cad>
          </ns3:TrackPointExtension>
        </extensions>
      </trkpt>
      <trkpt lat="45.25549583137035369873046875" lon="-71.1293719522655010223388671875">
        <ele>797.5999755859375</ele>
        <time>2026-08-22T02:09:24.000Z</time>
        <extensions>
          <ns3:TrackPointExtension>
            <ns3:hr>136</ns3:hr>
            <ns3:cad>0</ns3:cad>
          </ns3:TrackPointExtension>
        </extensions>
      </trkpt>
      <trkpt lat="45.25548870675265789031982421875" lon="-71.12936231307685375213623046875">
        <ele>798</ele>
        <time>2026-08-22T02:09:25.000Z</time>
        <extensions>
          <ns3:TrackPointExtension>
            <ns3:hr>136</ns3:hr>
            <ns3:cad>0</ns3:cad>
          </ns3:TrackPointExtension>
        </extensions>
      </trkpt>
      <trkpt lat="45.25548367761075496673583984375" lon="-71.12935694865882396697998046875">
        <ele>798.20001220703125</ele>
        <time>2026-08-22T02:09:26.000Z</time>
        <extensions>
          <ns3:TrackPointExtension>
            <ns3:hr>136</ns3:hr>
            <ns3:cad>0</ns3:cad>
          </ns3:TrackPointExtension>
        </extensions>
      </trkpt>
      <trkpt lat="45.2554772235453128814697265625" lon="-71.12935393117368221282958984375">
        <ele>798.4000244140625</ele>
        <time>2026-08-22T02:09:27.000Z</time>
        <extensions>
          <ns3:TrackPointExtension>
            <ns3:hr>136</ns3:hr>
            <ns3:cad>0</ns3:cad>
          </ns3:TrackPointExtension>
        </extensions>
      </trkpt>
      <trkpt lat="45.25547303259372711181640625" lon="-71.129353009164333343505859375">
        <ele>798.5999755859375</ele>
        <time>2026-08-22T02:09:28.000Z</time>
        <extensions>
          <ns3:TrackPointExtension>
            <ns3:hr>136</ns3:hr>
            <ns3:cad>0</ns3:cad>
          </ns3:TrackPointExtension>
        </extensions>
      </trkpt>
      <trkpt lat="45.25547194294631481170654296875" lon="-71.12935443408787250518798828125">
        <ele>798.79998779296875</ele>
        <time>2026-08-22T02:09:29.000Z</time>
        <extensions>
          <ns3:TrackPointExtension>
            <ns3:hr>136</ns3:hr>
            <ns3:cad>0</ns3:cad>
          </ns3:TrackPointExtension>
        </extensions>
      </trkpt>
      <trkpt lat="45.255468674004077911376953125" lon="-71.12935426644980907440185546875">
        <ele>799</ele>
        <time>2026-08-22T02:09:30.000Z</time>
        <extensions>
          <ns3:TrackPointExtension>
            <ns3:hr>137</ns3:hr>
            <ns3:cad>0</ns3:cad>
          </ns3:TrackPointExtension>
        </extensions>
      </trkpt>
      <trkpt lat="45.25546859018504619598388671875" lon="-71.1293528415262699127197265625">
        <ele>799.20001220703125</ele>
        <time>2026-08-22T02:09:31.000Z</time>
        <extensions>
          <ns3:TrackPointExtension>
            <ns3:hr>137</ns3:hr>
            <ns3:cad>0</ns3:cad>
          </ns3:TrackPointExtension>
        </extensions>
      </trkpt>
      <trkpt lat="45.2554664947092533111572265625" lon="-71.12934823147952556610107421875">
        <ele>799.4000244140625</ele>
        <time>2026-08-22T02:09:32.000Z</time>
        <extensions>
          <ns3:TrackPointExtension>
            <ns3:hr>137</ns3:hr>
            <ns3:cad>0</ns3:cad>
          </ns3:TrackPointExtension>
        </extensions>
      </trkpt>
      <trkpt lat="45.25546456687152385711669921875" lon="-71.129340939223766326904296875">
        <ele>799.5999755859375</ele>
        <time>2026-08-22T02:09:33.000Z</time>
        <extensions>
          <ns3:TrackPointExtension>
            <ns3:hr>138</ns3:hr>
            <ns3:cad>47</ns3:cad>
          </ns3:TrackPointExtension>
        </extensions>
      </trkpt>
      <trkpt lat="45.25546590797603130340576171875" lon="-71.1293412744998931884765625">
        <ele>799.79998779296875</ele>
        <time>2026-08-22T02:09:34.000Z</time>
        <extensions>
          <ns3:TrackPointExtension>
            <ns3:hr>138</ns3:hr>
            <ns3:cad>47</ns3:cad>
          </ns3:TrackPointExtension>
        </extensions>
      </trkpt>
      <trkpt lat="45.2554664947092533111572265625" lon="-71.12934152595698833465576171875">
        <ele>800</ele>
        <time>2026-08-22T02:09:35.000Z</time>
        <extensions>
          <ns3:TrackPointExtension>
            <ns3:hr>138</ns3:hr>
            <ns3:cad>47</ns3:cad>
          </ns3:TrackPointExtension>
        </extensions>
      </trkpt>
      <trkpt lat="45.25546624325215816497802734375" lon="-71.129342280328273773193359375">
        <ele>800</ele>
        <time>2026-08-22T02:09:36.000Z</time>
        <extensions>
          <ns3:TrackPointExtension>
            <ns3:hr>138</ns3:hr>
            <ns3:cad>0</ns3:cad>
          </ns3:TrackPointExtension>
        </extensions>
      </trkpt>
      <trkpt lat="45.255467332899570465087890625" lon="-71.12933498807251453399658203125">
        <ele>800.20001220703125</ele>
        <time>2026-08-22T02:09:37.000Z</time>
        <extensions>
          <ns3:TrackPointExtension>
            <ns3:hr>137</ns3:hr>
            <ns3:cad>0</ns3:cad>
          </ns3:TrackPointExtension>
        </extensions>
      </trkpt>
      <trkpt lat="45.25547160767018795013427734375" lon="-71.12933012656867504119873046875">
        <ele>800.4000244140625</ele>
        <time>2026-08-22T02:09:38.000Z</time>
        <extensions>
          <ns3:TrackPointExtension>
            <ns3:hr>138</ns3:hr>
            <ns3:cad>0</ns3:cad>
          </ns3:TrackPointExtension>
        </extensions>
      </trkpt>
      <trkpt lat="45.2554711885750293731689453125" lon="-71.129320152103900909423828125">
        <ele>800.4000244140625</ele>
        <time>2026-08-22T02:09:39.000Z</time>
        <extensions>
          <ns3:TrackPointExtension>
            <ns3:hr>137</ns3:hr>
            <ns3:cad>0</ns3:cad>
          </ns3:TrackPointExtension>
        </extensions>
      </trkpt>
      <trkpt lat="45.25546959601342678070068359375" lon="-71.12931218929588794708251953125">
        <ele>800.4000244140625</ele>
        <time>2026-08-22T02:09:40.000Z</time>
        <extensions>
          <ns3:TrackPointExtension>
            <ns3:hr>137</ns3:hr>
            <ns3:cad>0</ns3:cad>
          </ns3:TrackPointExtension>
        </extensions>
      </trkpt>
      <trkpt lat="45.25547035038471221923828125" lon="-71.1293072439730167388916015625">
        <ele>800.5999755859375</ele>
        <time>2026-08-22T02:09:41.000Z</time>
        <extensions>
          <ns3:TrackPointExtension>
            <ns3:hr>138</ns3:hr>
            <ns3:cad>0</ns3:cad>
          </ns3:TrackPointExtension>
        </extensions>
      </trkpt>
      <trkpt lat="45.2554708532989025115966796875" lon="-71.1293005384504795074462890625">
        <ele>800.5999755859375</ele>
        <time>2026-08-22T02:09:42.000Z</time>
        <extensions>
          <ns3:TrackPointExtension>
            <ns3:hr>138</ns3:hr>
            <ns3:cad>0</ns3:cad>
          </ns3:TrackPointExtension>
        </extensions>
      </trkpt>
      <trkpt lat="45.2554711885750293731689453125" lon="-71.12929492257535457611083984375">
        <ele>800.5999755859375</ele>
        <time>2026-08-22T02:09:43.000Z</time>
        <extensions>
          <ns3:TrackPointExtension>
            <ns3:hr>138</ns3:hr>
            <ns3:cad>0</ns3:cad>
          </ns3:TrackPointExtension>
        </extensions>
      </trkpt>
      <trkpt lat="45.2554718591272830963134765625" lon="-71.1292871274054050445556640625">
        <ele>800.79998779296875</ele>
        <time>2026-08-22T02:09:44.000Z</time>
        <extensions>
          <ns3:TrackPointExtension>
            <ns3:hr>138</ns3:hr>
            <ns3:cad>0</ns3:cad>
          </ns3:TrackPointExtension>
        </extensions>
      </trkpt>
      <trkpt lat="45.25547311641275882720947265625" lon="-71.1292769014835357666015625">
        <ele>800.79998779296875</ele>
        <time>2026-08-22T02:09:45.000Z</time>
        <extensions>
          <ns3:TrackPointExtension>
            <ns3:hr>138</ns3:hr>
            <ns3:cad>0</ns3:cad>
          </ns3:TrackPointExtension>
        </extensions>
      </trkpt>
      <trkpt lat="45.25547881610691547393798828125" lon="-71.12925619818270206451416015625">
        <ele>801</ele>
        <time>2026-08-22T02:09:46.000Z</time>
        <extensions>
          <ns3:TrackPointExtension>
            <ns3:hr>138</ns3:hr>
            <ns3:cad>0</ns3:cad>
          </ns3:TrackPointExtension>
        </extensions>
      </trkpt>
      <trkpt lat="45.25548032484948635101318359375" lon="-71.12925083376467227935791015625">
        <ele>801.20001220703125</ele>
        <time>2026-08-22T02:09:47.000Z</time>
        <extensions>
          <ns3:TrackPointExtension>
            <ns3:hr>138</ns3:hr>
            <ns3:cad>0</ns3:cad>
          </ns3:TrackPointExtension>
        </extensions>
      </trkpt>
      <trkpt lat="45.25547931902110576629638671875" lon="-71.1292375065386295318603515625">
        <ele>801.4000244140625</ele>
        <time>2026-08-22T02:09:48.000Z</time>
        <extensions>
          <ns3:TrackPointExtension>
            <ns3:hr>138</ns3:hr>
            <ns3:cad>0</ns3:cad>
          </ns3:TrackPointExtension>
        </extensions>
      </trkpt>
      <trkpt lat="45.25547982193529605865478515625" lon="-71.129224933683872222900390625">
        <ele>801.4000244140625</ele>
        <time>2026-08-22T02:09:49.000Z</time>
        <extensions>
          <ns3:TrackPointExtension>
            <ns3:hr>138</ns3:hr>
            <ns3:cad>0</ns3:cad>
          </ns3:TrackPointExtension>
        </extensions>
      </trkpt>
      <trkpt lat="45.25547797791659832000732421875" lon="-71.129211522638797760009765625">
        <ele>801.5999755859375</ele>
        <time>2026-08-22T02:09:50.000Z</time>
        <extensions>
          <ns3:TrackPointExtension>
            <ns3:hr>139</ns3:hr>
            <ns3:cad>0</ns3:cad>
          </ns3:TrackPointExtension>
        </extensions>
      </trkpt>
      <trkpt lat="45.25547705590724945068359375" lon="-71.12920138053596019744873046875">
        <ele>801.79998779296875</ele>
        <time>2026-08-22T02:09:51.000Z</time>
        <extensions>
          <ns3:TrackPointExtension>
            <ns3:hr>139</ns3:hr>
            <ns3:cad>44</ns3:cad>
          </ns3:TrackPointExtension>
        </extensions>
      </trkpt>
      <trkpt lat="45.25547781027853488922119140625" lon="-71.12919165752828121185302734375">
        <ele>802</ele>
        <time>2026-08-22T02:09:52.000Z</time>
        <extensions>
          <ns3:TrackPointExtension>
            <ns3:hr>139</ns3:hr>
            <ns3:cad>44</ns3:cad>
          </ns3:TrackPointExtension>
        </extensions>
      </trkpt>
      <trkpt lat="45.25547881610691547393798828125" lon="-71.1291788332164287567138671875">
        <ele>802.20001220703125</ele>
        <time>2026-08-22T02:09:53.000Z</time>
        <extensions>
          <ns3:TrackPointExtension>
            <ns3:hr>139</ns3:hr>
            <ns3:cad>44</ns3:cad>
          </ns3:TrackPointExtension>
        </extensions>
      </trkpt>
      <trkpt lat="45.2554822526872158050537109375" lon="-71.12916550599038600921630859375">
        <ele>802.20001220703125</ele>
        <time>2026-08-22T02:09:54.000Z</time>
        <extensions>
          <ns3:TrackPointExtension>
            <ns3:hr>138</ns3:hr>
            <ns3:cad>44</ns3:cad>
          </ns3:TrackPointExtension>
        </extensions>
      </trkpt>
      <trkpt lat="45.2554822526872158050537109375" lon="-71.12915477715432643890380859375">
        <ele>802.4000244140625</ele>
        <time>2026-08-22T02:09:55.000Z</time>
        <extensions>
          <ns3:TrackPointExtension>
            <ns3:hr>138</ns3:hr>
            <ns3:cad>44</ns3:cad>
          </ns3:TrackPointExtension>
        </extensions>
      </trkpt>
      <trkpt lat="45.25547839701175689697265625" lon="-71.12915008328855037689208984375">
        <ele>802.5999755859375</ele>
        <time>2026-08-22T02:09:56.000Z</time>
        <extensions>
          <ns3:TrackPointExtension>
            <ns3:hr>138</ns3:hr>
            <ns3:cad>44</ns3:cad>
          </ns3:TrackPointExtension>
        </extensions>
      </trkpt>
      <trkpt lat="45.25547680445015430450439453125" lon="-71.1291409470140933990478515625">
        <ele>802.79998779296875</ele>
        <time>2026-08-22T02:09:57.000Z</time>
        <extensions>
          <ns3:TrackPointExtension>
            <ns3:hr>139</ns3:hr>
            <ns3:cad>0</ns3:cad>
          </ns3:TrackPointExtension>
        </extensions>
      </trkpt>
      <trkpt lat="45.255475379526615142822265625" lon="-71.12912870943546295166015625">
        <ele>803</ele>
        <time>2026-08-22T02:09:58.000Z</time>
        <extensions>
          <ns3:TrackPointExtension>
            <ns3:hr>139</ns3:hr>
            <ns3:cad>65</ns3:cad>
          </ns3:TrackPointExtension>
        </extensions>
      </trkpt>
      <trkpt lat="45.25547395460307598114013671875" lon="-71.12912468612194061279296875">
        <ele>803.20001220703125</ele>
        <time>2026-08-22T02:09:59.000Z</time>
        <extensions>
          <ns3:TrackPointExtension>
            <ns3:hr>139</ns3:hr>
            <ns3:cad>65</ns3:cad>
          </ns3:TrackPointExtension>
        </extensions>
      </trkpt>
      <trkpt lat="45.255475379526615142822265625" lon="-71.12912175245583057403564453125">
        <ele>803.4000244140625</ele>
        <time>2026-08-22T02:10:00.000Z</time>
        <extensions>
          <ns3:TrackPointExtension>
            <ns3:hr>139</ns3:hr>
            <ns3:cad>0</ns3:cad>
          </ns3:TrackPointExtension>
        </extensions>
      </trkpt>
      <trkpt lat="45.25547831319272518157958984375" lon="-71.12912066280841827392578125">
        <ele>803.5999755859375</ele>
        <time>2026-08-22T02:10:01.000Z</time>
        <extensions>
          <ns3:TrackPointExtension>
            <ns3:hr>139</ns3:hr>
            <ns3:cad>0</ns3:cad>
          </ns3:TrackPointExtension>
        </extensions>
      </trkpt>
      <trkpt lat="45.255481414496898651123046875" lon="-71.12911286763846874237060546875">
        <ele>803.79998779296875</ele>
        <time>2026-08-22T02:10:02.000Z</time>
        <extensions>
          <ns3:TrackPointExtension>
            <ns3:hr>140</ns3:hr>
            <ns3:cad>0</ns3:cad>
          </ns3:TrackPointExtension>
        </extensions>
      </trkpt>
      <trkpt lat="45.2554778940975666046142578125" lon="-71.1290980316698551177978515625">
        <ele>804</ele>
        <time>2026-08-22T02:10:03.000Z</time>
        <extensions>
          <ns3:TrackPointExtension>
            <ns3:hr>140</ns3:hr>
            <ns3:cad>0</ns3:cad>
          </ns3:TrackPointExtension>
        </extensions>
      </trkpt>
      <trkpt lat="45.2554732002317905426025390625" lon="-71.12908520735800266265869140625">
        <ele>804.4000244140625</ele>
        <time>2026-08-22T02:10:04.000Z</time>
        <extensions>
          <ns3:TrackPointExtension>
            <ns3:hr>140</ns3:hr>
            <ns3:cad>0</ns3:cad>
          </ns3:TrackPointExtension>
        </extensions>
      </trkpt>
      <trkpt lat="45.25547160767018795013427734375" lon="-71.12907615490257740020751953125">
        <ele>804.5999755859375</ele>
        <time>2026-08-22T02:10:05.000Z</time>
        <extensions>
          <ns3:TrackPointExtension>
            <ns3:hr>140</ns3:hr>
            <ns3:cad>0</ns3:cad>
          </ns3:TrackPointExtension>
        </extensions>
      </trkpt>
      <trkpt lat="45.25546842254698276519775390625" lon="-71.12906794063746929168701171875">
        <ele>804.79998779296875</ele>
        <time>2026-08-22T02:10:06.000Z</time>
        <extensions>
          <ns3:TrackPointExtension>
            <ns3:hr>140</ns3:hr>
            <ns3:cad>0</ns3:cad>
          </ns3:TrackPointExtension>
        </extensions>
      </trkpt>
      <trkpt lat="45.25545970536768436431884765625" lon="-71.12905561923980712890625">
        <ele>805</ele>
        <time>2026-08-22T02:10:07.000Z</time>
        <extensions>
          <ns3:TrackPointExtension>
            <ns3:hr>139</ns3:hr>
            <ns3:cad>0</ns3:cad>
          </ns3:TrackPointExtension>
        </extensions>
      </trkpt>
      <trkpt lat="45.25545735843479633331298828125" lon="-71.12905017100274562835693359375">
        <ele>805.20001220703125</ele>
        <time>2026-08-22T02:10:08.000Z</time>
        <extensions>
          <ns3:TrackPointExtension>
            <ns3:hr>140</ns3:hr>
            <ns3:cad>0</ns3:cad>
          </ns3:TrackPointExtension>
        </extensions>
      </trkpt>
      <trkpt lat="45.2554530836641788482666015625" lon="-71.129042543470859527587890625">
        <ele>805.4000244140625</ele>
        <time>2026-08-22T02:10:09.000Z</time>
        <extensions>
          <ns3:TrackPointExtension>
            <ns3:hr>140</ns3:hr>
            <ns3:cad>0</ns3:cad>
          </ns3:TrackPointExtension>
        </extensions>
      </trkpt>
      <trkpt lat="45.25544562377035617828369140625" lon="-71.129028797149658203125">
        <ele>805.5999755859375</ele>
        <time>2026-08-22T02:10:10.000Z</time>
        <extensions>
          <ns3:TrackPointExtension>
            <ns3:hr>140</ns3:hr>
            <ns3:cad>0</ns3:cad>
          </ns3:TrackPointExtension>
        </extensions>
      </trkpt>
      <trkpt lat="45.25544260628521442413330078125" lon="-71.12902301363646984100341796875">
        <ele>805.79998779296875</ele>
        <time>2026-08-22T02:10:11.000Z</time>
        <extensions>
          <ns3:TrackPointExtension>
            <ns3:hr>139</ns3:hr>
            <ns3:cad>0</ns3:cad>
          </ns3:TrackPointExtension>
        </extensions>
      </trkpt>
      <trkpt lat="45.2554400078952312469482421875" lon="-71.1290185712277889251708984375">
        <ele>806</ele>
        <time>2026-08-22T02:10:12.000Z</time>
        <extensions>
          <ns3:TrackPointExtension>
            <ns3:hr>139</ns3:hr>
            <ns3:cad>0</ns3:cad>
          </ns3:TrackPointExtension>
        </extensions>
      </trkpt>
      <trkpt lat="45.255429781973361968994140625" lon="-71.12900256179273128509521484375">
        <ele>806.20001220703125</ele>
        <time>2026-08-22T02:10:13.000Z</time>
        <extensions>
          <ns3:TrackPointExtension>
            <ns3:hr>139</ns3:hr>
            <ns3:cad>0</ns3:cad>
          </ns3:TrackPointExtension>
        </extensions>
      </trkpt>
      <trkpt lat="45.255420394241809844970703125" lon="-71.12899518571794033050537109375">
        <ele>806.4000244140625</ele>
        <time>2026-08-22T02:10:14.000Z</time>
        <extensions>
          <ns3:TrackPointExtension>
            <ns3:hr>139</ns3:hr>
            <ns3:cad>0</ns3:cad>
          </ns3:TrackPointExtension>
        </extensions>
      </trkpt>
      <trkpt lat="45.2554151974618434906005859375" lon="-71.12899325788021087646484375">
        <ele>806.5999755859375</ele>
        <time>2026-08-22T02:10:15.000Z</time>
        <extensions>
          <ns3:TrackPointExtension>
            <ns3:hr>139</ns3:hr>
            <ns3:cad>0</ns3:cad>
          </ns3:TrackPointExtension>
        </extensions>
      </trkpt>
      <trkpt lat="45.25541041977703571319580078125" lon="-71.12899082712829113006591796875">
        <ele>806.79998779296875</ele>
        <time>2026-08-22T02:10:16.000Z</time>
        <extensions>
          <ns3:TrackPointExtension>
            <ns3:hr>139</ns3:hr>
            <ns3:cad>0</ns3:cad>
          </ns3:TrackPointExtension>
        </extensions>
      </trkpt>
      <trkpt lat="45.25540421716868877410888671875" lon="-71.1289870552718639373779296875">
        <ele>807.20001220703125</ele>
        <time>2026-08-22T02:10:17.000Z</time>
        <extensions>
          <ns3:TrackPointExtension>
            <ns3:hr>139</ns3:hr>
            <ns3:cad>0</ns3:cad>
          </ns3:TrackPointExtension>
        </extensions>
      </trkpt>
      <trkpt lat="45.25539700873196125030517578125" lon="-71.12898789346218109130859375">
        <ele>807.4000244140625</ele>
        <time>2026-08-22T02:10:18.000Z</time>
        <extensions>
          <ns3:TrackPointExtension>
            <ns3:hr>140</ns3:hr>
            <ns3:cad>0</ns3:cad>
          </ns3:TrackPointExtension>
        </extensions>
      </trkpt>
      <trkpt lat="45.2553923986852169036865234375" lon="-71.1289900727570056915283203125">
        <ele>807.5999755859375</ele>
        <time>2026-08-22T02:10:19.000Z</time>
        <extensions>
          <ns3:TrackPointExtension>
            <ns3:hr>140</ns3:hr>
            <ns3:cad>0</ns3:cad>
          </ns3:TrackPointExtension>
        </extensions>
      </trkpt>
      <trkpt lat="45.2553900517523288726806640625" lon="-71.12899267114698886871337890625">
        <ele>807.79998779296875</ele>
        <time>2026-08-22T02:10:20.000Z</time>
        <extensions>
          <ns3:TrackPointExtension>
            <ns3:hr>140</ns3:hr>
            <ns3:cad>0</ns3:cad>
          </ns3:TrackPointExtension>
        </extensions>
      </trkpt>
      <trkpt lat="45.25539080612361431121826171875" lon="-71.12899468280375003814697265625">
        <ele>808</ele>
        <time>2026-08-22T02:10:21.000Z</time>
        <extensions>
          <ns3:TrackPointExtension>
            <ns3:hr>140</ns3:hr>
            <ns3:cad>0</ns3:cad>
          </ns3:TrackPointExtension>
        </extensions>
      </trkpt>
      <trkpt lat="45.255387537181377410888671875" lon="-71.12899803556501865386962890625">
        <ele>808.20001220703125</ele>
        <time>2026-08-22T02:10:22.000Z</time>
        <extensions>
          <ns3:TrackPointExtension>
            <ns3:hr>140</ns3:hr>
            <ns3:cad>0</ns3:cad>
          </ns3:TrackPointExtension>
        </extensions>
      </trkpt>
      <trkpt lat="45.25538158603012561798095703125" lon="-71.12900591455399990081787109375">
        <ele>808.4000244140625</ele>
        <time>2026-08-22T02:10:23.000Z</time>
        <extensions>
          <ns3:TrackPointExtension>
            <ns3:hr>140</ns3:hr>
            <ns3:cad>0</ns3:cad>
          </ns3:TrackPointExtension>
        </extensions>
      </trkpt>
      <trkpt lat="45.2553749643266201019287109375" lon="-71.1290091834962368011474609375">
        <ele>808.5999755859375</ele>
        <time>2026-08-22T02:10:24.000Z</time>
        <extensions>
          <ns3:TrackPointExtension>
            <ns3:hr>140</ns3:hr>
            <ns3:cad>0</ns3:cad>
          </ns3:TrackPointExtension>
        </extensions>
      </trkpt>
      <trkpt lat="45.25537219829857349395751953125" lon="-71.129006333649158477783203125">
        <ele>808.5999755859375</ele>
        <time>2026-08-22T02:10:25.000Z</time>
        <extensions>
          <ns3:TrackPointExtension>
            <ns3:hr>140</ns3:hr>
            <ns3:cad>0</ns3:cad>
          </ns3:TrackPointExtension>
        </extensions>
      </trkpt>
      <trkpt lat="45.255365408957004547119140625" lon="-71.1290006339550018310546875">
        <ele>808.79998779296875</ele>
        <time>2026-08-22T02:10:26.000Z</time>
        <extensions>
          <ns3:TrackPointExtension>
            <ns3:hr>141</ns3:hr>
            <ns3:cad>0</ns3:cad>
          </ns3:TrackPointExtension>
        </extensions>
      </trkpt>
      <trkpt lat="45.255359373986721038818359375" lon="-71.12900239415466785430908203125">
        <ele>809</ele>
        <time>2026-08-22T02:10:27.000Z</time>
        <extensions>
          <ns3:TrackPointExtension>
            <ns3:hr>140</ns3:hr>
            <ns3:cad>0</ns3:cad>
          </ns3:TrackPointExtension>
        </extensions>
      </trkpt>
      <trkpt lat="45.25535576976835727691650390625" lon="-71.1290033161640167236328125">
        <ele>809.20001220703125</ele>
        <time>2026-08-22T02:10:28.000Z</time>
        <extensions>
          <ns3:TrackPointExtension>
            <ns3:hr>140</ns3:hr>
            <ns3:cad>0</ns3:cad>
          </ns3:TrackPointExtension>
        </extensions>
      </trkpt>
      <trkpt lat="45.25535291992127895355224609375" lon="-71.12899996340274810791015625">
        <ele>809.5999755859375</ele>
        <time>2026-08-22T02:10:29.000Z</time>
        <extensions>
          <ns3:TrackPointExtension>
            <ns3:hr>141</ns3:hr>
            <ns3:cad>0</ns3:cad>
          </ns3:TrackPointExtension>
        </extensions>
      </trkpt>
      <trkpt lat="45.25534830987453460693359375" lon="-71.1290071718394756317138671875">
        <ele>809.79998779296875</ele>
        <time>2026-08-22T02:10:30.000Z</time>
        <extensions>
          <ns3:TrackPointExtension>
            <ns3:hr>140</ns3:hr>
            <ns3:cad>0</ns3:cad>
          </ns3:TrackPointExtension>
        </extensions>
      </trkpt>
      <trkpt lat="45.25534587912261486053466796875" lon="-71.12901077605783939361572265625">
        <ele>810</ele>
        <time>2026-08-22T02:10:31.000Z</time>
        <extensions>
          <ns3:TrackPointExtension>
            <ns3:hr>140</ns3:hr>
            <ns3:cad>0</ns3:cad>
          </ns3:TrackPointExtension>
        </extensions>
      </trkpt>
      <trkpt lat="45.25533892214298248291015625" lon="-71.1290165595710277557373046875">
        <ele>810.20001220703125</ele>
        <time>2026-08-22T02:10:32.000Z</time>
        <extensions>
          <ns3:TrackPointExtension>
            <ns3:hr>141</ns3:hr>
            <ns3:cad>0</ns3:cad>
          </ns3:TrackPointExtension>
        </extensions>
      </trkpt>
      <trkpt lat="45.25533447973430156707763671875" lon="-71.12901873886585235595703125">
        <ele>810.4000244140625</ele>
        <time>2026-08-22T02:10:33.000Z</time>
        <extensions>
          <ns3:TrackPointExtension>
            <ns3:hr>140</ns3:hr>
            <ns3:cad>0</ns3:cad>
          </ns3:TrackPointExtension>
        </extensions>
      </trkpt>
      <trkpt lat="45.255331881344318389892578125" lon="-71.12901848740875720977783203125">
        <ele>810.5999755859375</ele>
        <time>2026-08-22T02:10:34.000Z</time>
        <extensions>
          <ns3:TrackPointExtension>
            <ns3:hr>140</ns3:hr>
            <ns3:cad>0</ns3:cad>
          </ns3:TrackPointExtension>
        </extensions>
      </trkpt>
      <trkpt lat="45.25532861240208148956298828125" lon="-71.1290212534368038177490234375">
        <ele>810.79998779296875</ele>
        <time>2026-08-22T02:10:35.000Z</time>
        <extensions>
          <ns3:TrackPointExtension>
            <ns3:hr>140</ns3:hr>
            <ns3:cad>0</ns3:cad>
          </ns3:TrackPointExtension>
        </extensions>
      </trkpt>
      <trkpt lat="45.25532140396535396575927734375" lon="-71.129028461873531341552734375">
        <ele>810.79998779296875</ele>
        <time>2026-08-22T02:10:36.000Z</time>
        <extensions>
          <ns3:TrackPointExtension>
            <ns3:hr>140</ns3:hr>
            <ns3:cad>0</ns3:cad>
          </ns3:TrackPointExtension>
        </extensions>
      </trkpt>
      <trkpt lat="45.25531302206218242645263671875" lon="-71.12903441302478313446044921875">
        <ele>811</ele>
        <time>2026-08-22T02:10:37.000Z</time>
        <extensions>
          <ns3:TrackPointExtension>
            <ns3:hr>140</ns3:hr>
            <ns3:cad>0</ns3:cad>
          </ns3:TrackPointExtension>
        </extensions>
      </trkpt>
      <trkpt lat="45.255308412015438079833984375" lon="-71.12903659231960773468017578125">
        <ele>811.20001220703125</ele>
        <time>2026-08-22T02:10:38.000Z</time>
        <extensions>
          <ns3:TrackPointExtension>
            <ns3:hr>140</ns3:hr>
            <ns3:cad>0</ns3:cad>
          </ns3:TrackPointExtension>
        </extensions>
      </trkpt>
      <trkpt lat="45.25530480779707431793212890625" lon="-71.1290406994521617889404296875">
        <ele>811.4000244140625</ele>
        <time>2026-08-22T02:10:39.000Z</time>
        <extensions>
          <ns3:TrackPointExtension>
            <ns3:hr>140</ns3:hr>
            <ns3:cad>0</ns3:cad>
          </ns3:TrackPointExtension>
        </extensions>
      </trkpt>
      <trkpt lat="45.25530531071126461029052734375" lon="-71.1290427111089229583740234375">
        <ele>811.5999755859375</ele>
        <time>2026-08-22T02:10:40.000Z</time>
        <extensions>
          <ns3:TrackPointExtension>
            <ns3:hr>140</ns3:hr>
            <ns3:cad>0</ns3:cad>
          </ns3:TrackPointExtension>
        </extensions>
      </trkpt>
      <trkpt lat="45.255301706492900848388671875" lon="-71.12904782406985759735107421875">
        <ele>811.79998779296875</ele>
        <time>2026-08-22T02:10:41.000Z</time>
        <extensions>
          <ns3:TrackPointExtension>
            <ns3:hr>140</ns3:hr>
            <ns3:cad>0</ns3:cad>
          </ns3:TrackPointExtension>
        </extensions>
      </trkpt>
      <trkpt lat="45.25530095212161540985107421875" lon="-71.12904715351760387420654296875">
        <ele>812</ele>
        <time>2026-08-22T02:10:42.000Z</time>
        <extensions>
          <ns3:TrackPointExtension>
            <ns3:hr>140</ns3:hr>
            <ns3:cad>0</ns3:cad>
          </ns3:TrackPointExtension>
        </extensions>
      </trkpt>
      <trkpt lat="45.25529810227453708648681640625" lon="-71.12904882989823818206787109375">
        <ele>812.4000244140625</ele>
        <time>2026-08-22T02:10:43.000Z</time>
        <extensions>
          <ns3:TrackPointExtension>
            <ns3:hr>140</ns3:hr>
            <ns3:cad>0</ns3:cad>
          </ns3:TrackPointExtension>
        </extensions>
      </trkpt>
      <trkpt lat="45.25529994629323482513427734375" lon="-71.12905017100274562835693359375">
        <ele>812.5999755859375</ele>
        <time>2026-08-22T02:10:44.000Z</time>
        <extensions>
          <ns3:TrackPointExtension>
            <ns3:hr>140</ns3:hr>
            <ns3:cad>0</ns3:cad>
          </ns3:TrackPointExtension>
        </extensions>
      </trkpt>
      <trkpt lat="45.25530011393129825592041015625" lon="-71.12904966808855533599853515625">
        <ele>812.79998779296875</ele>
        <time>2026-08-22T02:10:45.000Z</time>
        <extensions>
          <ns3:TrackPointExtension>
            <ns3:hr>140</ns3:hr>
            <ns3:cad>0</ns3:cad>
          </ns3:TrackPointExtension>
        </extensions>
      </trkpt>
      <trkpt lat="45.25529894046485424041748046875" lon="-71.12904950045049190521240234375">
        <ele>813</ele>
        <time>2026-08-22T02:10:46.000Z</time>
        <extensions>
          <ns3:TrackPointExtension>
            <ns3:hr>140</ns3:hr>
            <ns3:cad>0</ns3:cad>
          </ns3:TrackPointExtension>
        </extensions>
      </trkpt>
      <trkpt lat="45.2552988566458225250244140625" lon="-71.12905285321176052093505859375">
        <ele>813.20001220703125</ele>
        <time>2026-08-22T02:10:47.000Z</time>
        <extensions>
          <ns3:TrackPointExtension>
            <ns3:hr>140</ns3:hr>
            <ns3:cad>0</ns3:cad>
          </ns3:TrackPointExtension>
        </extensions>
      </trkpt>
      <trkpt lat="45.25530313141644001007080078125" lon="-71.1290551163256168365478515625">
        <ele>813.5999755859375</ele>
        <time>2026-08-22T02:10:48.000Z</time>
        <extensions>
          <ns3:TrackPointExtension>
            <ns3:hr>140</ns3:hr>
            <ns3:cad>0</ns3:cad>
          </ns3:TrackPointExtension>
        </extensions>
      </trkpt>
      <trkpt lat="45.25530061684548854827880859375" lon="-71.1290494166314601898193359375">
        <ele>813.79998779296875</ele>
        <time>2026-08-22T02:10:49.000Z</time>
        <extensions>
          <ns3:TrackPointExtension>
            <ns3:hr>140</ns3:hr>
            <ns3:cad>0</ns3:cad>
          </ns3:TrackPointExtension>
        </extensions>
      </trkpt>
      <trkpt lat="45.25529692880809307098388671875" lon="-71.12904095090925693511962890625">
        <ele>814</ele>
        <time>2026-08-22T02:10:50.000Z</time>
        <extensions>
          <ns3:TrackPointExtension>
            <ns3:hr>141</ns3:hr>
            <ns3:cad>0</ns3:cad>
          </ns3:TrackPointExtension>
        </extensions>
      </trkpt>
      <trkpt lat="45.2552971802651882171630859375" lon="-71.1290447227656841278076171875">
        <ele>814.20001220703125</ele>
        <time>2026-08-22T02:10:51.000Z</time>
        <extensions>
          <ns3:TrackPointExtension>
            <ns3:hr>141</ns3:hr>
            <ns3:cad>0</ns3:cad>
          </ns3:TrackPointExtension>
        </extensions>
      </trkpt>
      <trkpt lat="45.2552884630858898162841796875" lon="-71.1290427111089229583740234375">
        <ele>814.4000244140625</ele>
        <time>2026-08-22T02:10:52.000Z</time>
        <extensions>
          <ns3:TrackPointExtension>
            <ns3:hr>141</ns3:hr>
            <ns3:cad>0</ns3:cad>
          </ns3:TrackPointExtension>
        </extensions>
      </trkpt>
      <trkpt lat="45.25528804399073123931884765625" lon="-71.12904245965182781219482421875">
        <ele>814.79998779296875</ele>
        <time>2026-08-22T02:10:53.000Z</time>
        <extensions>
          <ns3:TrackPointExtension>
            <ns3:hr>142</ns3:hr>
            <ns3:cad>0</ns3:cad>
          </ns3:TrackPointExtension>
        </extensions>
      </trkpt>
      <trkpt lat="45.25528754107654094696044921875" lon="-71.12904061563313007354736328125">
        <ele>815</ele>
        <time>2026-08-22T02:10:54.000Z</time>
        <extensions>
          <ns3:TrackPointExtension>
            <ns3:hr>142</ns3:hr>
            <ns3:cad>0</ns3:cad>
          </ns3:TrackPointExtension>
        </extensions>
      </trkpt>
      <trkpt lat="45.25528418831527233123779296875" lon="-71.12903173081576824188232421875">
        <ele>815.20001220703125</ele>
        <time>2026-08-22T02:10:55.000Z</time>
        <extensions>
          <ns3:TrackPointExtension>
            <ns3:hr>142</ns3:hr>
            <ns3:cad>0</ns3:cad>
          </ns3:TrackPointExtension>
        </extensions>
      </trkpt>
      <trkpt lat="45.25528251193463802337646484375" lon="-71.12902603112161159515380859375">
        <ele>815.4000244140625</ele>
        <time>2026-08-22T02:10:56.000Z</time>
        <extensions>
          <ns3:TrackPointExtension>
            <ns3:hr>142</ns3:hr>
            <ns3:cad>0</ns3:cad>
          </ns3:TrackPointExtension>
        </extensions>
      </trkpt>
      <trkpt lat="45.25528485886752605438232421875" lon="-71.129026114940643310546875">
        <ele>815.79998779296875</ele>
        <time>2026-08-22T02:10:57.000Z</time>
        <extensions>
          <ns3:TrackPointExtension>
            <ns3:hr>142</ns3:hr>
            <ns3:cad>0</ns3:cad>
          </ns3:TrackPointExtension>
        </extensions>
      </trkpt>
      <trkpt lat="45.2552827633917331695556640625" lon="-71.1290199123322963714599609375">
        <ele>816</ele>
        <time>2026-08-22T02:10:58.000Z</time>
        <extensions>
          <ns3:TrackPointExtension>
            <ns3:hr>142</ns3:hr>
            <ns3:cad>0</ns3:cad>
          </ns3:TrackPointExtension>
        </extensions>
      </trkpt>
      <trkpt lat="45.2552800811827182769775390625" lon="-71.12901178188621997833251953125">
        <ele>816.20001220703125</ele>
        <time>2026-08-22T02:10:59.000Z</time>
        <extensions>
          <ns3:TrackPointExtension>
            <ns3:hr>142</ns3:hr>
            <ns3:cad>0</ns3:cad>
          </ns3:TrackPointExtension>
        </extensions>
      </trkpt>
      <trkpt lat="45.25528284721076488494873046875" lon="-71.1290105246007442474365234375">
        <ele>816.4000244140625</ele>
        <time>2026-08-22T02:11:00.000Z</time>
        <extensions>
          <ns3:TrackPointExtension>
            <ns3:hr>142</ns3:hr>
            <ns3:cad>0</ns3:cad>
          </ns3:TrackPointExtension>
        </extensions>
      </trkpt>
      <trkpt lat="45.2552797459065914154052734375" lon="-71.1290001310408115386962890625">
        <ele>816.5999755859375</ele>
        <time>2026-08-22T02:11:01.000Z</time>
        <extensions>
          <ns3:TrackPointExtension>
            <ns3:hr>142</ns3:hr>
            <ns3:cad>0</ns3:cad>
          </ns3:TrackPointExtension>
        </extensions>
      </trkpt>
      <trkpt lat="45.255278237164020538330078125" lon="-71.12899384461343288421630859375">
        <ele>816.79998779296875</ele>
        <time>2026-08-22T02:11:02.000Z</time>
        <extensions>
          <ns3:TrackPointExtension>
            <ns3:hr>142</ns3:hr>
            <ns3:cad>0</ns3:cad>
          </ns3:TrackPointExtension>
        </extensions>
      </trkpt>
      <trkpt lat="45.25527589023113250732421875" lon="-71.1289883963763713836669921875">
        <ele>817.20001220703125</ele>
        <time>2026-08-22T02:11:03.000Z</time>
        <extensions>
          <ns3:TrackPointExtension>
            <ns3:hr>142</ns3:hr>
            <ns3:cad>0</ns3:cad>
          </ns3:TrackPointExtension>
        </extensions>
      </trkpt>
      <trkpt lat="45.25526876561343669891357421875" lon="-71.12897590734064579010009765625">
        <ele>817.4000244140625</ele>
        <time>2026-08-22T02:11:04.000Z</time>
        <extensions>
          <ns3:TrackPointExtension>
            <ns3:hr>142</ns3:hr>
            <ns3:cad>77</ns3:cad>
          </ns3:TrackPointExtension>
        </extensions>
      </trkpt>
      <trkpt lat="45.25525443255901336669921875" lon="-71.128960065543651580810546875">
        <ele>817.5999755859375</ele>
        <time>2026-08-22T02:11:05.000Z</time>
        <extensions>
          <ns3:TrackPointExtension>
            <ns3:hr>143</ns3:hr>
            <ns3:cad>77</ns3:cad>
          </ns3:TrackPointExtension>
        </extensions>
      </trkpt>
      <trkpt lat="45.25525099597871303558349609375" lon="-71.1289555393159389495849609375">
        <ele>817.79998779296875</ele>
        <time>2026-08-22T02:11:06.000Z</time>
        <extensions>
          <ns3:TrackPointExtension>
            <ns3:hr>144</ns3:hr>
            <ns3:cad>77</ns3:cad>
          </ns3:TrackPointExtension>
        </extensions>
      </trkpt>
      <trkpt lat="45.255248732864856719970703125" lon="-71.1289495043456554412841796875">
        <ele>818</ele>
        <time>2026-08-22T02:11:07.000Z</time>
        <extensions>
          <ns3:TrackPointExtension>
            <ns3:hr>144</ns3:hr>
            <ns3:cad>0</ns3:cad>
          </ns3:TrackPointExtension>
        </extensions>
      </trkpt>
      <trkpt lat="45.25524445809423923492431640625" lon="-71.12894472666084766387939453125">
        <ele>818.20001220703125</ele>
        <time>2026-08-22T02:11:08.000Z</time>
        <extensions>
          <ns3:TrackPointExtension>
            <ns3:hr>144</ns3:hr>
            <ns3:cad>0</ns3:cad>
          </ns3:TrackPointExtension>
        </extensions>
      </trkpt>
      <trkpt lat="45.25524395518004894256591796875" lon="-71.128942631185054779052734375">
        <ele>818.4000244140625</ele>
        <time>2026-08-22T02:11:09.000Z</time>
        <extensions>
          <ns3:TrackPointExtension>
            <ns3:hr>144</ns3:hr>
            <ns3:cad>0</ns3:cad>
          </ns3:TrackPointExtension>
        </extensions>
      </trkpt>
      <trkpt lat="45.25524244643747806549072265625" lon="-71.1289424635469913482666015625">
        <ele>818.5999755859375</ele>
        <time>2026-08-22T02:11:10.000Z</time>
        <extensions>
          <ns3:TrackPointExtension>
            <ns3:hr>144</ns3:hr>
            <ns3:cad>0</ns3:cad>
          </ns3:TrackPointExtension>
        </extensions>
      </trkpt>
      <trkpt lat="45.2552391774952411651611328125" lon="-71.1289354227483272552490234375">
        <ele>818.79998779296875</ele>
        <time>2026-08-22T02:11:11.000Z</time>
        <extensions>
          <ns3:TrackPointExtension>
            <ns3:hr>144</ns3:hr>
            <ns3:cad>0</ns3:cad>
          </ns3:TrackPointExtension>
        </extensions>
      </trkpt>
      <trkpt lat="45.2552376687526702880859375" lon="-71.12893802113831043243408203125">
        <ele>819</ele>
        <time>2026-08-22T02:11:12.000Z</time>
        <extensions>
          <ns3:TrackPointExtension>
            <ns3:hr>144</ns3:hr>
            <ns3:cad>0</ns3:cad>
          </ns3:TrackPointExtension>
        </extensions>
      </trkpt>
      <trkpt lat="45.25523322634398937225341796875" lon="-71.12893248908221721649169921875">
        <ele>819.20001220703125</ele>
        <time>2026-08-22T02:11:13.000Z</time>
        <extensions>
          <ns3:TrackPointExtension>
            <ns3:hr>144</ns3:hr>
            <ns3:cad>0</ns3:cad>
          </ns3:TrackPointExtension>
        </extensions>
      </trkpt>
      <trkpt lat="45.25522937066853046417236328125" lon="-71.12892461009323596954345703125">
        <ele>819.4000244140625</ele>
        <time>2026-08-22T02:11:14.000Z</time>
        <extensions>
          <ns3:TrackPointExtension>
            <ns3:hr>144</ns3:hr>
            <ns3:cad>0</ns3:cad>
          </ns3:TrackPointExtension>
        </extensions>
      </trkpt>
      <trkpt lat="45.255224592983722686767578125" lon="-71.12892352044582366943359375">
        <ele>819.5999755859375</ele>
        <time>2026-08-22T02:11:15.000Z</time>
        <extensions>
          <ns3:TrackPointExtension>
            <ns3:hr>144</ns3:hr>
            <ns3:cad>0</ns3:cad>
          </ns3:TrackPointExtension>
        </extensions>
      </trkpt>
      <trkpt lat="45.25521931238472461700439453125" lon="-71.128921844065189361572265625">
        <ele>819.79998779296875</ele>
        <time>2026-08-22T02:11:16.000Z</time>
        <extensions>
          <ns3:TrackPointExtension>
            <ns3:hr>144</ns3:hr>
            <ns3:cad>0</ns3:cad>
          </ns3:TrackPointExtension>
        </extensions>
      </trkpt>
      <trkpt lat="45.2552193962037563323974609375" lon="-71.1289216764271259307861328125">
        <ele>820</ele>
        <time>2026-08-22T02:11:17.000Z</time>
        <extensions>
          <ns3:TrackPointExtension>
            <ns3:hr>145</ns3:hr>
            <ns3:cad>0</ns3:cad>
          </ns3:TrackPointExtension>
        </extensions>
      </trkpt>
      <trkpt lat="45.25521696545183658599853515625" lon="-71.12892041914165019989013671875">
        <ele>820.20001220703125</ele>
        <time>2026-08-22T02:11:18.000Z</time>
        <extensions>
          <ns3:TrackPointExtension>
            <ns3:hr>145</ns3:hr>
            <ns3:cad>0</ns3:cad>
          </ns3:TrackPointExtension>
        </extensions>
      </trkpt>
      <trkpt lat="45.25521143339574337005615234375" lon="-71.1289159767329692840576171875">
        <ele>820.4000244140625</ele>
        <time>2026-08-22T02:11:19.000Z</time>
        <extensions>
          <ns3:TrackPointExtension>
            <ns3:hr>145</ns3:hr>
            <ns3:cad>0</ns3:cad>
          </ns3:TrackPointExtension>
        </extensions>
      </trkpt>
      <trkpt lat="45.25520808063447475433349609375" lon="-71.12891388125717639923095703125">
        <ele>820.5999755859375</ele>
        <time>2026-08-22T02:11:20.000Z</time>
        <extensions>
          <ns3:TrackPointExtension>
            <ns3:hr>145</ns3:hr>
            <ns3:cad>0</ns3:cad>
          </ns3:TrackPointExtension>
        </extensions>
      </trkpt>
      <trkpt lat="45.25520288385450839996337890625" lon="-71.12891052849590778350830078125">
        <ele>820.79998779296875</ele>
        <time>2026-08-22T02:11:21.000Z</time>
        <extensions>
          <ns3:TrackPointExtension>
            <ns3:hr>145</ns3:hr>
            <ns3:cad>0</ns3:cad>
          </ns3:TrackPointExtension>
        </extensions>
      </trkpt>
      <trkpt lat="45.25520187802612781524658203125" lon="-71.12890901975333690643310546875">
        <ele>821</ele>
        <time>2026-08-22T02:11:22.000Z</time>
        <extensions>
          <ns3:TrackPointExtension>
            <ns3:hr>145</ns3:hr>
            <ns3:cad>0</ns3:cad>
          </ns3:TrackPointExtension>
        </extensions>
      </trkpt>
      <trkpt lat="45.25519651360809803009033203125" lon="-71.12890742719173431396484375">
        <ele>821.20001220703125</ele>
        <time>2026-08-22T02:11:23.000Z</time>
        <extensions>
          <ns3:TrackPointExtension>
            <ns3:hr>146</ns3:hr>
            <ns3:cad>0</ns3:cad>
          </ns3:TrackPointExtension>
        </extensions>
      </trkpt>
      <trkpt lat="45.25519265793263912200927734375" lon="-71.128906421363353729248046875">
        <ele>821.4000244140625</ele>
        <time>2026-08-22T02:11:24.000Z</time>
        <extensions>
          <ns3:TrackPointExtension>
            <ns3:hr>146</ns3:hr>
            <ns3:cad>0</ns3:cad>
          </ns3:TrackPointExtension>
        </extensions>
      </trkpt>
      <trkpt lat="45.25519064627587795257568359375" lon="-71.12890876829624176025390625">
        <ele>821.5999755859375</ele>
        <time>2026-08-22T02:11:25.000Z</time>
        <extensions>
          <ns3:TrackPointExtension>
            <ns3:hr>146</ns3:hr>
            <ns3:cad>0</ns3:cad>
          </ns3:TrackPointExtension>
        </extensions>
      </trkpt>
      <trkpt lat="45.2551893889904022216796875" lon="-71.12891086377203464508056640625">
        <ele>821.79998779296875</ele>
        <time>2026-08-22T02:11:26.000Z</time>
        <extensions>
          <ns3:TrackPointExtension>
            <ns3:hr>147</ns3:hr>
            <ns3:cad>0</ns3:cad>
          </ns3:TrackPointExtension>
        </extensions>
      </trkpt>
      <trkpt lat="45.25518142618238925933837890625" lon="-71.12890918739140033721923828125">
        <ele>822</ele>
        <time>2026-08-22T02:11:27.000Z</time>
        <extensions>
          <ns3:TrackPointExtension>
            <ns3:hr>147</ns3:hr>
            <ns3:cad>0</ns3:cad>
          </ns3:TrackPointExtension>
        </extensions>
      </trkpt>
      <trkpt lat="45.25517790578305721282958984375" lon="-71.12890985794365406036376953125">
        <ele>822.20001220703125</ele>
        <time>2026-08-22T02:11:28.000Z</time>
        <extensions>
          <ns3:TrackPointExtension>
            <ns3:hr>147</ns3:hr>
            <ns3:cad>0</ns3:cad>
          </ns3:TrackPointExtension>
        </extensions>
      </trkpt>
      <trkpt lat="45.25517262518405914306640625" lon="-71.1289136298000812530517578125">
        <ele>822.4000244140625</ele>
        <time>2026-08-22T02:11:29.000Z</time>
        <extensions>
          <ns3:TrackPointExtension>
            <ns3:hr>147</ns3:hr>
            <ns3:cad>0</ns3:cad>
          </ns3:TrackPointExtension>
        </extensions>
      </trkpt>
      <trkpt lat="45.2551652491092681884765625" lon="-71.12891891039907932281494140625">
        <ele>822.4000244140625</ele>
        <time>2026-08-22T02:11:30.000Z</time>
        <extensions>
          <ns3:TrackPointExtension>
            <ns3:hr>148</ns3:hr>
            <ns3:cad>0</ns3:cad>
          </ns3:TrackPointExtension>
        </extensions>
      </trkpt>
      <trkpt lat="45.255162902176380157470703125" lon="-71.12892083823680877685546875">
        <ele>822.5999755859375</ele>
        <time>2026-08-22T02:11:31.000Z</time>
        <extensions>
          <ns3:TrackPointExtension>
            <ns3:hr>147</ns3:hr>
            <ns3:cad>0</ns3:cad>
          </ns3:TrackPointExtension>
        </extensions>
      </trkpt>
      <trkpt lat="45.2551577053964138031005859375" lon="-71.1289226822555065155029296875">
        <ele>823</ele>
        <time>2026-08-22T02:11:32.000Z</time>
        <extensions>
          <ns3:TrackPointExtension>
            <ns3:hr>147</ns3:hr>
            <ns3:cad>0</ns3:cad>
          </ns3:TrackPointExtension>
        </extensions>
      </trkpt>
      <trkpt lat="45.255151502788066864013671875" lon="-71.12892561592161655426025390625">
        <ele>823.20001220703125</ele>
        <time>2026-08-22T02:11:33.000Z</time>
        <extensions>
          <ns3:TrackPointExtension>
            <ns3:hr>146</ns3:hr>
            <ns3:cad>0</ns3:cad>
          </ns3:TrackPointExtension>
        </extensions>
      </trkpt>
      <trkpt lat="45.25515007786452770233154296875" lon="-71.12892486155033111572265625">
        <ele>823.4000244140625</ele>
        <time>2026-08-22T02:11:34.000Z</time>
        <extensions>
          <ns3:TrackPointExtension>
            <ns3:hr>146</ns3:hr>
            <ns3:cad>0</ns3:cad>
          </ns3:TrackPointExtension>
        </extensions>
      </trkpt>
      <trkpt lat="45.2551476471126079559326171875" lon="-71.12892343662679195404052734375">
        <ele>823.79998779296875</ele>
        <time>2026-08-22T02:11:35.000Z</time>
        <extensions>
          <ns3:TrackPointExtension>
            <ns3:hr>146</ns3:hr>
            <ns3:cad>0</ns3:cad>
          </ns3:TrackPointExtension>
        </extensions>
      </trkpt>
      <trkpt lat="45.2551382593810558319091796875" lon="-71.1289277113974094390869140625">
        <ele>824</ele>
        <time>2026-08-22T02:11:36.000Z</time>
        <extensions>
          <ns3:TrackPointExtension>
            <ns3:hr>146</ns3:hr>
            <ns3:cad>0</ns3:cad>
          </ns3:TrackPointExtension>
        </extensions>
      </trkpt>
      <trkpt lat="45.25513239204883575439453125" lon="-71.128932572901248931884765625">
        <ele>824.20001220703125</ele>
        <time>2026-08-22T02:11:37.000Z</time>
        <extensions>
          <ns3:TrackPointExtension>
            <ns3:hr>146</ns3:hr>
            <ns3:cad>0</ns3:cad>
          </ns3:TrackPointExtension>
        </extensions>
      </trkpt>
      <trkpt lat="45.2551204897463321685791015625" lon="-71.12893936224281787872314453125">
        <ele>824.4000244140625</ele>
        <time>2026-08-22T02:11:38.000Z</time>
        <extensions>
          <ns3:TrackPointExtension>
            <ns3:hr>146</ns3:hr>
            <ns3:cad>0</ns3:cad>
          </ns3:TrackPointExtension>
        </extensions>
      </trkpt>
      <trkpt lat="45.2551168017089366912841796875" lon="-71.12894053570926189422607421875">
        <ele>824.5999755859375</ele>
        <time>2026-08-22T02:11:39.000Z</time>
        <extensions>
          <ns3:TrackPointExtension>
            <ns3:hr>146</ns3:hr>
            <ns3:cad>0</ns3:cad>
          </ns3:TrackPointExtension>
        </extensions>
      </trkpt>
      <trkpt lat="45.2551141194999217987060546875" lon="-71.1289389431476593017578125">
        <ele>824.5999755859375</ele>
        <time>2026-08-22T02:11:40.000Z</time>
        <extensions>
          <ns3:TrackPointExtension>
            <ns3:hr>146</ns3:hr>
            <ns3:cad>0</ns3:cad>
          </ns3:TrackPointExtension>
        </extensions>
      </trkpt>
      <trkpt lat="45.255111269652843475341796875" lon="-71.12893668003380298614501953125">
        <ele>824.79998779296875</ele>
        <time>2026-08-22T02:11:41.000Z</time>
        <extensions>
          <ns3:TrackPointExtension>
            <ns3:hr>146</ns3:hr>
            <ns3:cad>0</ns3:cad>
          </ns3:TrackPointExtension>
        </extensions>
      </trkpt>
      <trkpt lat="45.25510825216770172119140625" lon="-71.12893818877637386322021484375">
        <ele>825</ele>
        <time>2026-08-22T02:11:42.000Z</time>
        <extensions>
          <ns3:TrackPointExtension>
            <ns3:hr>146</ns3:hr>
            <ns3:cad>0</ns3:cad>
          </ns3:TrackPointExtension>
        </extensions>
      </trkpt>
      <trkpt lat="45.255105905234813690185546875" lon="-71.12894103862345218658447265625">
        <ele>825.4000244140625</ele>
        <time>2026-08-22T02:11:43.000Z</time>
        <extensions>
          <ns3:TrackPointExtension>
            <ns3:hr>146</ns3:hr>
            <ns3:cad>0</ns3:cad>
          </ns3:TrackPointExtension>
        </extensions>
      </trkpt>
      <trkpt lat="45.255105234682559967041015625" lon="-71.1289411224424839019775390625">
        <ele>825.5999755859375</ele>
        <time>2026-08-22T02:11:44.000Z</time>
        <extensions>
          <ns3:TrackPointExtension>
            <ns3:hr>146</ns3:hr>
            <ns3:cad>0</ns3:cad>
          </ns3:TrackPointExtension>
        </extensions>
      </trkpt>
      <trkpt lat="45.25509618222713470458984375" lon="-71.12894623540341854095458984375">
        <ele>825.79998779296875</ele>
        <time>2026-08-22T02:11:45.000Z</time>
        <extensions>
          <ns3:TrackPointExtension>
            <ns3:hr>146</ns3:hr>
            <ns3:cad>0</ns3:cad>
          </ns3:TrackPointExtension>
        </extensions>
      </trkpt>
      <trkpt lat="45.25508922524750232696533203125" lon="-71.12894707359373569488525390625">
        <ele>826</ele>
        <time>2026-08-22T02:11:46.000Z</time>
        <extensions>
          <ns3:TrackPointExtension>
            <ns3:hr>145</ns3:hr>
            <ns3:cad>0</ns3:cad>
          </ns3:TrackPointExtension>
        </extensions>
      </trkpt>
      <trkpt lat="45.2550859563052654266357421875" lon="-71.12894774414598941802978515625">
        <ele>826.20001220703125</ele>
        <time>2026-08-22T02:11:47.000Z</time>
        <extensions>
          <ns3:TrackPointExtension>
            <ns3:hr>146</ns3:hr>
            <ns3:cad>0</ns3:cad>
          </ns3:TrackPointExtension>
        </extensions>
      </trkpt>
      <trkpt lat="45.2550765685737133026123046875" lon="-71.1289501748979091644287109375">
        <ele>826.4000244140625</ele>
        <time>2026-08-22T02:11:48.000Z</time>
        <extensions>
          <ns3:TrackPointExtension>
            <ns3:hr>146</ns3:hr>
            <ns3:cad>0</ns3:cad>
          </ns3:TrackPointExtension>
        </extensions>
      </trkpt>
      <trkpt lat="45.2550708688795566558837890625" lon="-71.1289558745920658111572265625">
        <ele>826.5999755859375</ele>
        <time>2026-08-22T02:11:49.000Z</time>
        <extensions>
          <ns3:TrackPointExtension>
            <ns3:hr>145</ns3:hr>
            <ns3:cad>0</ns3:cad>
          </ns3:TrackPointExtension>
        </extensions>
      </trkpt>
      <trkpt lat="45.25506173260509967803955078125" lon="-71.12896375358104705810546875">
        <ele>826.79998779296875</ele>
        <time>2026-08-22T02:11:50.000Z</time>
        <extensions>
          <ns3:TrackPointExtension>
            <ns3:hr>146</ns3:hr>
            <ns3:cad>0</ns3:cad>
          </ns3:TrackPointExtension>
        </extensions>
      </trkpt>
      <trkpt lat="45.2550547756254673004150390625" lon="-71.12897322513163089752197265625">
        <ele>827</ele>
        <time>2026-08-22T02:11:51.000Z</time>
        <extensions>
          <ns3:TrackPointExtension>
            <ns3:hr>146</ns3:hr>
            <ns3:cad>0</ns3:cad>
          </ns3:TrackPointExtension>
        </extensions>
      </trkpt>
      <trkpt lat="45.25504681281745433807373046875" lon="-71.12898361869156360626220703125">
        <ele>827</ele>
        <time>2026-08-22T02:11:52.000Z</time>
        <extensions>
          <ns3:TrackPointExtension>
            <ns3:hr>146</ns3:hr>
            <ns3:cad>0</ns3:cad>
          </ns3:TrackPointExtension>
        </extensions>
      </trkpt>
      <trkpt lat="45.25504446588456630706787109375" lon="-71.128987558186054229736328125">
        <ele>827.20001220703125</ele>
        <time>2026-08-22T02:11:53.000Z</time>
        <extensions>
          <ns3:TrackPointExtension>
            <ns3:hr>146</ns3:hr>
            <ns3:cad>0</ns3:cad>
          </ns3:TrackPointExtension>
        </extensions>
      </trkpt>
      <trkpt lat="45.255037508904933929443359375" lon="-71.1289857141673564910888671875">
        <ele>827.5999755859375</ele>
        <time>2026-08-22T02:11:54.000Z</time>
        <extensions>
          <ns3:TrackPointExtension>
            <ns3:hr>146</ns3:hr>
            <ns3:cad>0</ns3:cad>
          </ns3:TrackPointExtension>
        </extensions>
      </trkpt>
      <trkpt lat="45.25503055192530155181884765625" lon="-71.12898797728121280670166015625">
        <ele>827.79998779296875</ele>
        <time>2026-08-22T02:11:55.000Z</time>
        <extensions>
          <ns3:TrackPointExtension>
            <ns3:hr>145</ns3:hr>
            <ns3:cad>0</ns3:cad>
          </ns3:TrackPointExtension>
        </extensions>
      </trkpt>
      <trkpt lat="45.255023427307605743408203125" lon="-71.12899417988955974578857421875">
        <ele>828</ele>
        <time>2026-08-22T02:11:56.000Z</time>
        <extensions>
          <ns3:TrackPointExtension>
            <ns3:hr>146</ns3:hr>
            <ns3:cad>0</ns3:cad>
          </ns3:TrackPointExtension>
        </extensions>
      </trkpt>
      <trkpt lat="45.2550219185650348663330078125" lon="-71.12900264561176300048828125">
        <ele>828.20001220703125</ele>
        <time>2026-08-22T02:11:57.000Z</time>
        <extensions>
          <ns3:TrackPointExtension>
            <ns3:hr>145</ns3:hr>
            <ns3:cad>0</ns3:cad>
          </ns3:TrackPointExtension>
        </extensions>
      </trkpt>
      <trkpt lat="45.25501613505184650421142578125" lon="-71.1290054954588413238525390625">
        <ele>828.20001220703125</ele>
        <time>2026-08-22T02:11:58.000Z</time>
        <extensions>
          <ns3:TrackPointExtension>
            <ns3:hr>145</ns3:hr>
            <ns3:cad>0</ns3:cad>
          </ns3:TrackPointExtension>
        </extensions>
      </trkpt>
      <trkpt lat="45.2550115250051021575927734375" lon="-71.12901262007653713226318359375">
        <ele>828.20001220703125</ele>
        <time>2026-08-22T02:11:59.000Z</time>
        <extensions>
          <ns3:TrackPointExtension>
            <ns3:hr>145</ns3:hr>
            <ns3:cad>0</ns3:cad>
          </ns3:TrackPointExtension>
        </extensions>
      </trkpt>
      <trkpt lat="45.25500230491161346435546875" lon="-71.12901630811393260955810546875">
        <ele>828.4000244140625</ele>
        <time>2026-08-22T02:12:00.000Z</time>
        <extensions>
          <ns3:TrackPointExtension>
            <ns3:hr>145</ns3:hr>
            <ns3:cad>0</ns3:cad>
          </ns3:TrackPointExtension>
        </extensions>
      </trkpt>
      <trkpt lat="45.2550004608929157257080078125" lon="-71.12902267836034297943115234375">
        <ele>828.5999755859375</ele>
        <time>2026-08-22T02:12:01.000Z</time>
        <extensions>
          <ns3:TrackPointExtension>
            <ns3:hr>145</ns3:hr>
            <ns3:cad>0</ns3:cad>
          </ns3:TrackPointExtension>
        </extensions>
      </trkpt>
      <trkpt lat="45.25499953888356685638427734375" lon="-71.12903592176735401153564453125">
        <ele>828.5999755859375</ele>
        <time>2026-08-22T02:12:02.000Z</time>
        <extensions>
          <ns3:TrackPointExtension>
            <ns3:hr>144</ns3:hr>
            <ns3:cad>0</ns3:cad>
          </ns3:TrackPointExtension>
        </extensions>
      </trkpt>
      <trkpt lat="45.254997946321964263916015625" lon="-71.1290457285940647125244140625">
        <ele>828.79998779296875</ele>
        <time>2026-08-22T02:12:03.000Z</time>
        <extensions>
          <ns3:TrackPointExtension>
            <ns3:hr>145</ns3:hr>
            <ns3:cad>0</ns3:cad>
          </ns3:TrackPointExtension>
        </extensions>
      </trkpt>
      <trkpt lat="45.2549924142658710479736328125" lon="-71.1290569603443145751953125">
        <ele>828.79998779296875</ele>
        <time>2026-08-22T02:12:04.000Z</time>
        <extensions>
          <ns3:TrackPointExtension>
            <ns3:hr>145</ns3:hr>
            <ns3:cad>0</ns3:cad>
          </ns3:TrackPointExtension>
        </extensions>
      </trkpt>
      <trkpt lat="45.25498813949525356292724609375" lon="-71.12906291149556636810302734375">
        <ele>828.5999755859375</ele>
        <time>2026-08-22T02:12:05.000Z</time>
        <extensions>
          <ns3:TrackPointExtension>
            <ns3:hr>144</ns3:hr>
            <ns3:cad>0</ns3:cad>
          </ns3:TrackPointExtension>
        </extensions>
      </trkpt>
      <trkpt lat="45.254981517791748046875" lon="-71.12907045520842075347900390625">
        <ele>828.79998779296875</ele>
        <time>2026-08-22T02:12:06.000Z</time>
        <extensions>
          <ns3:TrackPointExtension>
            <ns3:hr>144</ns3:hr>
            <ns3:cad>59</ns3:cad>
          </ns3:TrackPointExtension>
        </extensions>
      </trkpt>
      <trkpt lat="45.254979170858860015869140625" lon="-71.12907213158905506134033203125">
        <ele>828.79998779296875</ele>
        <time>2026-08-22T02:12:07.000Z</time>
        <extensions>
          <ns3:TrackPointExtension>
            <ns3:hr>144</ns3:hr>
            <ns3:cad>59</ns3:cad>
          </ns3:TrackPointExtension>
        </extensions>
      </trkpt>
      <trkpt lat="45.2549759857356548309326171875" lon="-71.1290703713893890380859375">
        <ele>829</ele>
        <time>2026-08-22T02:12:08.000Z</time>
        <extensions>
          <ns3:TrackPointExtension>
            <ns3:hr>144</ns3:hr>
            <ns3:cad>59</ns3:cad>
          </ns3:TrackPointExtension>
        </extensions>
      </trkpt>
      <trkpt lat="45.25497271679341793060302734375" lon="-71.12906970083713531494140625">
        <ele>829.20001220703125</ele>
        <time>2026-08-22T02:12:09.000Z</time>
        <extensions>
          <ns3:TrackPointExtension>
            <ns3:hr>144</ns3:hr>
            <ns3:cad>0</ns3:cad>
          </ns3:TrackPointExtension>
        </extensions>
      </trkpt>
      <trkpt lat="45.2549773268401622772216796875" lon="-71.1290695331990718841552734375">
        <ele>829.4000244140625</ele>
        <time>2026-08-22T02:12:10.000Z</time>
        <extensions>
          <ns3:TrackPointExtension>
            <ns3:hr>144</ns3:hr>
            <ns3:cad>0</ns3:cad>
          </ns3:TrackPointExtension>
        </extensions>
      </trkpt>
      <trkpt lat="45.25497137568891048431396484375" lon="-71.12906643189489841461181640625">
        <ele>829.5999755859375</ele>
        <time>2026-08-22T02:12:11.000Z</time>
        <extensions>
          <ns3:TrackPointExtension>
            <ns3:hr>144</ns3:hr>
            <ns3:cad>0</ns3:cad>
          </ns3:TrackPointExtension>
        </extensions>
      </trkpt>
      <trkpt lat="45.254969783127307891845703125" lon="-71.129063330590724945068359375">
        <ele>829.79998779296875</ele>
        <time>2026-08-22T02:12:12.000Z</time>
        <extensions>
          <ns3:TrackPointExtension>
            <ns3:hr>144</ns3:hr>
            <ns3:cad>0</ns3:cad>
          </ns3:TrackPointExtension>
        </extensions>
      </trkpt>
      <trkpt lat="45.2549672685563564300537109375" lon="-71.12905536778271198272705078125">
        <ele>830</ele>
        <time>2026-08-22T02:12:13.000Z</time>
        <extensions>
          <ns3:TrackPointExtension>
            <ns3:hr>144</ns3:hr>
            <ns3:cad>0</ns3:cad>
          </ns3:TrackPointExtension>
        </extensions>
      </trkpt>
      <trkpt lat="45.2549659274518489837646484375" lon="-71.12905151210725307464599609375">
        <ele>830.20001220703125</ele>
        <time>2026-08-22T02:12:14.000Z</time>
        <extensions>
          <ns3:TrackPointExtension>
            <ns3:hr>144</ns3:hr>
            <ns3:cad>0</ns3:cad>
          </ns3:TrackPointExtension>
        </extensions>
      </trkpt>
      <trkpt lat="45.25496207177639007568359375" lon="-71.12905285321176052093505859375">
        <ele>830.4000244140625</ele>
        <time>2026-08-22T02:12:15.000Z</time>
        <extensions>
          <ns3:TrackPointExtension>
            <ns3:hr>144</ns3:hr>
            <ns3:cad>0</ns3:cad>
          </ns3:TrackPointExtension>
        </extensions>
      </trkpt>
      <trkpt lat="45.2549565397202968597412109375" lon="-71.12905888818204402923583984375">
        <ele>830.5999755859375</ele>
        <time>2026-08-22T02:12:16.000Z</time>
        <extensions>
          <ns3:TrackPointExtension>
            <ns3:hr>144</ns3:hr>
            <ns3:cad>0</ns3:cad>
          </ns3:TrackPointExtension>
        </extensions>
      </trkpt>
      <trkpt lat="45.254950337111949920654296875" lon="-71.12906089983880519866943359375">
        <ele>830.79998779296875</ele>
        <time>2026-08-22T02:12:17.000Z</time>
        <extensions>
          <ns3:TrackPointExtension>
            <ns3:hr>144</ns3:hr>
            <ns3:cad>0</ns3:cad>
          </ns3:TrackPointExtension>
        </extensions>
      </trkpt>
      <trkpt lat="45.25494572706520557403564453125" lon="-71.12906433641910552978515625">
        <ele>831</ele>
        <time>2026-08-22T02:12:18.000Z</time>
        <extensions>
          <ns3:TrackPointExtension>
            <ns3:hr>144</ns3:hr>
            <ns3:cad>0</ns3:cad>
          </ns3:TrackPointExtension>
        </extensions>
      </trkpt>
      <trkpt lat="45.2549374289810657501220703125" lon="-71.12906592898070812225341796875">
        <ele>831.20001220703125</ele>
        <time>2026-08-22T02:12:19.000Z</time>
        <extensions>
          <ns3:TrackPointExtension>
            <ns3:hr>144</ns3:hr>
            <ns3:cad>0</ns3:cad>
          </ns3:TrackPointExtension>
        </extensions>
      </trkpt>
      <trkpt lat="45.25493030436336994171142578125" lon="-71.129064671695232391357421875">
        <ele>831.4000244140625</ele>
        <time>2026-08-22T02:12:20.000Z</time>
        <extensions>
          <ns3:TrackPointExtension>
            <ns3:hr>144</ns3:hr>
            <ns3:cad>0</ns3:cad>
          </ns3:TrackPointExtension>
        </extensions>
      </trkpt>
      <trkpt lat="45.2549292147159576416015625" lon="-71.129064001142978668212890625">
        <ele>831.5999755859375</ele>
        <time>2026-08-22T02:12:21.000Z</time>
        <extensions>
          <ns3:TrackPointExtension>
            <ns3:hr>144</ns3:hr>
            <ns3:cad>0</ns3:cad>
          </ns3:TrackPointExtension>
        </extensions>
      </trkpt>
      <trkpt lat="45.2549186535179615020751953125" lon="-71.1290676891803741455078125">
        <ele>831.79998779296875</ele>
        <time>2026-08-22T02:12:22.000Z</time>
        <extensions>
          <ns3:TrackPointExtension>
            <ns3:hr>143</ns3:hr>
            <ns3:cad>0</ns3:cad>
          </ns3:TrackPointExtension>
        </extensions>
      </trkpt>
      <trkpt lat="45.2549146302044391632080078125" lon="-71.1290702037513256072998046875">
        <ele>832</ele>
        <time>2026-08-22T02:12:23.000Z</time>
        <extensions>
          <ns3:TrackPointExtension>
            <ns3:hr>143</ns3:hr>
            <ns3:cad>0</ns3:cad>
          </ns3:TrackPointExtension>
        </extensions>
      </trkpt>
      <trkpt lat="45.25490851141512393951416015625" lon="-71.1290762387216091156005859375">
        <ele>832.20001220703125</ele>
        <time>2026-08-22T02:12:24.000Z</time>
        <extensions>
          <ns3:TrackPointExtension>
            <ns3:hr>143</ns3:hr>
            <ns3:cad>0</ns3:cad>
          </ns3:TrackPointExtension>
        </extensions>
      </trkpt>
      <trkpt lat="45.25490968488156795501708984375" lon="-71.12907917238771915435791015625">
        <ele>832.4000244140625</ele>
        <time>2026-08-22T02:12:25.000Z</time>
        <extensions>
          <ns3:TrackPointExtension>
            <ns3:hr>144</ns3:hr>
            <ns3:cad>0</ns3:cad>
          </ns3:TrackPointExtension>
        </extensions>
      </trkpt>
      <trkpt lat="45.25490708649158477783203125" lon="-71.12908336333930492401123046875">
        <ele>832.4000244140625</ele>
        <time>2026-08-22T02:12:26.000Z</time>
        <extensions>
          <ns3:TrackPointExtension>
            <ns3:hr>144</ns3:hr>
            <ns3:cad>0</ns3:cad>
          </ns3:TrackPointExtension>
        </extensions>
      </trkpt>
      <trkpt lat="45.2549012191593647003173828125" lon="-71.1290869675576686859130859375">
        <ele>832.5999755859375</ele>
        <time>2026-08-22T02:12:27.000Z</time>
        <extensions>
          <ns3:TrackPointExtension>
            <ns3:hr>144</ns3:hr>
            <ns3:cad>0</ns3:cad>
          </ns3:TrackPointExtension>
        </extensions>
      </trkpt>
      <trkpt lat="45.254897363483905792236328125" lon="-71.1290873028337955474853515625">
        <ele>832.5999755859375</ele>
        <time>2026-08-22T02:12:28.000Z</time>
        <extensions>
          <ns3:TrackPointExtension>
            <ns3:hr>144</ns3:hr>
            <ns3:cad>47</ns3:cad>
          </ns3:TrackPointExtension>
        </extensions>
      </trkpt>
      <trkpt lat="45.25489241816103458404541015625" lon="-71.12908973358571529388427734375">
        <ele>832.79998779296875</ele>
        <time>2026-08-22T02:12:29.000Z</time>
        <extensions>
          <ns3:TrackPointExtension>
            <ns3:hr>144</ns3:hr>
            <ns3:cad>47</ns3:cad>
          </ns3:TrackPointExtension>
        </extensions>
      </trkpt>
      <trkpt lat="45.25489233434200286865234375" lon="-71.1290933378040790557861328125">
        <ele>833</ele>
        <time>2026-08-22T02:12:30.000Z</time>
        <extensions>
          <ns3:TrackPointExtension>
            <ns3:hr>144</ns3:hr>
            <ns3:cad>47</ns3:cad>
          </ns3:TrackPointExtension>
        </extensions>
      </trkpt>
      <trkpt lat="45.2548889815807342529296875" lon="-71.129090823233127593994140625">
        <ele>833.20001220703125</ele>
        <time>2026-08-22T02:12:31.000Z</time>
        <extensions>
          <ns3:TrackPointExtension>
            <ns3:hr>144</ns3:hr>
            <ns3:cad>47</ns3:cad>
          </ns3:TrackPointExtension>
        </extensions>
      </trkpt>
      <trkpt lat="45.25488638319075107574462890625" lon="-71.12909140996634960174560546875">
        <ele>833.4000244140625</ele>
        <time>2026-08-22T02:12:32.000Z</time>
        <extensions>
          <ns3:TrackPointExtension>
            <ns3:hr>144</ns3:hr>
            <ns3:cad>47</ns3:cad>
          </ns3:TrackPointExtension>
        </extensions>
      </trkpt>
      <trkpt lat="45.2548817731440067291259765625" lon="-71.12908990122377872467041015625">
        <ele>833.5999755859375</ele>
        <time>2026-08-22T02:12:33.000Z</time>
        <extensions>
          <ns3:TrackPointExtension>
            <ns3:hr>144</ns3:hr>
            <ns3:cad>0</ns3:cad>
          </ns3:TrackPointExtension>
        </extensions>
      </trkpt>
      <trkpt lat="45.25487917475402355194091796875" lon="-71.12909107469022274017333984375">
        <ele>833.79998779296875</ele>
        <time>2026-08-22T02:12:34.000Z</time>
        <extensions>
          <ns3:TrackPointExtension>
            <ns3:hr>143</ns3:hr>
            <ns3:cad>0</ns3:cad>
          </ns3:TrackPointExtension>
        </extensions>
      </trkpt>
      <trkpt lat="45.25487582199275493621826171875" lon="-71.12909224815666675567626953125">
        <ele>834</ele>
        <time>2026-08-22T02:12:35.000Z</time>
        <extensions>
          <ns3:TrackPointExtension>
            <ns3:hr>143</ns3:hr>
            <ns3:cad>0</ns3:cad>
          </ns3:TrackPointExtension>
        </extensions>
      </trkpt>
      <trkpt lat="45.25487548671662807464599609375" lon="-71.12909526564180850982666015625">
        <ele>834.4000244140625</ele>
        <time>2026-08-22T02:12:36.000Z</time>
        <extensions>
          <ns3:TrackPointExtension>
            <ns3:hr>142</ns3:hr>
            <ns3:cad>0</ns3:cad>
          </ns3:TrackPointExtension>
        </extensions>
      </trkpt>
      <trkpt lat="45.254871211946010589599609375" lon="-71.1290970258414745330810546875">
        <ele>834.5999755859375</ele>
        <time>2026-08-22T02:12:37.000Z</time>
        <extensions>
          <ns3:TrackPointExtension>
            <ns3:hr>142</ns3:hr>
            <ns3:cad>0</ns3:cad>
          </ns3:TrackPointExtension>
        </extensions>
      </trkpt>
      <trkpt lat="45.2548675239086151123046875" lon="-71.12909493036568164825439453125">
        <ele>834.79998779296875</ele>
        <time>2026-08-22T02:12:38.000Z</time>
        <extensions>
          <ns3:TrackPointExtension>
            <ns3:hr>142</ns3:hr>
            <ns3:cad>0</ns3:cad>
          </ns3:TrackPointExtension>
        </extensions>
      </trkpt>
      <trkpt lat="45.25485989637672901153564453125" lon="-71.1290940083563327789306640625">
        <ele>834.79998779296875</ele>
        <time>2026-08-22T02:12:39.000Z</time>
        <extensions>
          <ns3:TrackPointExtension>
            <ns3:hr>142</ns3:hr>
            <ns3:cad>0</ns3:cad>
          </ns3:TrackPointExtension>
        </extensions>
      </trkpt>
      <trkpt lat="45.25485620833933353424072265625" lon="-71.12909241579473018646240234375">
        <ele>835</ele>
        <time>2026-08-22T02:12:40.000Z</time>
        <extensions>
          <ns3:TrackPointExtension>
            <ns3:hr>142</ns3:hr>
            <ns3:cad>0</ns3:cad>
          </ns3:TrackPointExtension>
        </extensions>
      </trkpt>
      <trkpt lat="45.25485570542514324188232421875" lon="-71.129090152680873870849609375">
        <ele>835.20001220703125</ele>
        <time>2026-08-22T02:12:41.000Z</time>
        <extensions>
          <ns3:TrackPointExtension>
            <ns3:hr>142</ns3:hr>
            <ns3:cad>0</ns3:cad>
          </ns3:TrackPointExtension>
        </extensions>
      </trkpt>
      <trkpt lat="45.25485084392130374908447265625" lon="-71.12908721901476383209228515625">
        <ele>835.4000244140625</ele>
        <time>2026-08-22T02:12:42.000Z</time>
        <extensions>
          <ns3:TrackPointExtension>
            <ns3:hr>142</ns3:hr>
            <ns3:cad>0</ns3:cad>
          </ns3:TrackPointExtension>
        </extensions>
      </trkpt>
      <trkpt lat="45.2548502571880817413330078125" lon="-71.12908420152962207794189453125">
        <ele>835.5999755859375</ele>
        <time>2026-08-22T02:12:43.000Z</time>
        <extensions>
          <ns3:TrackPointExtension>
            <ns3:hr>142</ns3:hr>
            <ns3:cad>0</ns3:cad>
          </ns3:TrackPointExtension>
        </extensions>
      </trkpt>
      <trkpt lat="45.254847072064876556396484375" lon="-71.12908042967319488525390625">
        <ele>836</ele>
        <time>2026-08-22T02:12:44.000Z</time>
        <extensions>
          <ns3:TrackPointExtension>
            <ns3:hr>142</ns3:hr>
            <ns3:cad>0</ns3:cad>
          </ns3:TrackPointExtension>
        </extensions>
      </trkpt>
      <trkpt lat="45.2548428811132907867431640625" lon="-71.129074059426784515380859375">
        <ele>836.20001220703125</ele>
        <time>2026-08-22T02:12:45.000Z</time>
        <extensions>
          <ns3:TrackPointExtension>
            <ns3:hr>142</ns3:hr>
            <ns3:cad>0</ns3:cad>
          </ns3:TrackPointExtension>
        </extensions>
      </trkpt>
      <trkpt lat="45.254841707646846771240234375" lon="-71.1290725506842136383056640625">
        <ele>836.4000244140625</ele>
        <time>2026-08-22T02:12:46.000Z</time>
        <extensions>
          <ns3:TrackPointExtension>
            <ns3:hr>143</ns3:hr>
            <ns3:cad>0</ns3:cad>
          </ns3:TrackPointExtension>
        </extensions>
      </trkpt>
      <trkpt lat="45.2548401989042758941650390625" lon="-71.129074729979038238525390625">
        <ele>836.5999755859375</ele>
        <time>2026-08-22T02:12:47.000Z</time>
        <extensions>
          <ns3:TrackPointExtension>
            <ns3:hr>143</ns3:hr>
            <ns3:cad>0</ns3:cad>
          </ns3:TrackPointExtension>
        </extensions>
      </trkpt>
      <trkpt lat="45.25483709760010242462158203125" lon="-71.12907481379806995391845703125">
        <ele>836.79998779296875</ele>
        <time>2026-08-22T02:12:48.000Z</time>
        <extensions>
          <ns3:TrackPointExtension>
            <ns3:hr>143</ns3:hr>
            <ns3:cad>0</ns3:cad>
          </ns3:TrackPointExtension>
        </extensions>
      </trkpt>
      <trkpt lat="45.25483374483883380889892578125" lon="-71.12907162867486476898193359375">
        <ele>837</ele>
        <time>2026-08-22T02:12:49.000Z</time>
        <extensions>
          <ns3:TrackPointExtension>
            <ns3:hr>142</ns3:hr>
            <ns3:cad>0</ns3:cad>
          </ns3:TrackPointExtension>
        </extensions>
      </trkpt>
      <trkpt lat="45.25483123026788234710693359375" lon="-71.1290703713893890380859375">
        <ele>837.20001220703125</ele>
        <time>2026-08-22T02:12:50.000Z</time>
        <extensions>
          <ns3:TrackPointExtension>
            <ns3:hr>142</ns3:hr>
            <ns3:cad>0</ns3:cad>
          </ns3:TrackPointExtension>
        </extensions>
      </trkpt>
      <trkpt lat="45.25482754223048686981201171875" lon="-71.1290655098855495452880859375">
        <ele>837.4000244140625</ele>
        <time>2026-08-22T02:12:51.000Z</time>
        <extensions>
          <ns3:TrackPointExtension>
            <ns3:hr>142</ns3:hr>
            <ns3:cad>0</ns3:cad>
          </ns3:TrackPointExtension>
        </extensions>
      </trkpt>
      <trkpt lat="45.25482603348791599273681640625" lon="-71.1290628276765346527099609375">
        <ele>837.5999755859375</ele>
        <time>2026-08-22T02:12:52.000Z</time>
        <extensions>
          <ns3:TrackPointExtension>
            <ns3:hr>142</ns3:hr>
            <ns3:cad>0</ns3:cad>
          </ns3:TrackPointExtension>
        </extensions>
      </trkpt>
      <trkpt lat="45.25482368655502796173095703125" lon="-71.12906039692461490631103515625">
        <ele>837.5999755859375</ele>
        <time>2026-08-22T02:12:53.000Z</time>
        <extensions>
          <ns3:TrackPointExtension>
            <ns3:hr>143</ns3:hr>
            <ns3:cad>0</ns3:cad>
          </ns3:TrackPointExtension>
        </extensions>
      </trkpt>
      <trkpt lat="45.25481798686087131500244140625" lon="-71.12905872054398059844970703125">
        <ele>837.79998779296875</ele>
        <time>2026-08-22T02:12:54.000Z</time>
        <extensions>
          <ns3:TrackPointExtension>
            <ns3:hr>143</ns3:hr>
            <ns3:cad>0</ns3:cad>
          </ns3:TrackPointExtension>
        </extensions>
      </trkpt>
      <trkpt lat="45.25481362827122211456298828125" lon="-71.12905972637236118316650390625">
        <ele>838</ele>
        <time>2026-08-22T02:12:55.000Z</time>
        <extensions>
          <ns3:TrackPointExtension>
            <ns3:hr>143</ns3:hr>
            <ns3:cad>0</ns3:cad>
          </ns3:TrackPointExtension>
        </extensions>
      </trkpt>
      <trkpt lat="45.254813544452190399169921875" lon="-71.1290621571242809295654296875">
        <ele>838.20001220703125</ele>
        <time>2026-08-22T02:12:56.000Z</time>
        <extensions>
          <ns3:TrackPointExtension>
            <ns3:hr>143</ns3:hr>
            <ns3:cad>0</ns3:cad>
          </ns3:TrackPointExtension>
        </extensions>
      </trkpt>
      <trkpt lat="45.25481211952865123748779296875" lon="-71.12906039692461490631103515625">
        <ele>838.4000244140625</ele>
        <time>2026-08-22T02:12:57.000Z</time>
        <extensions>
          <ns3:TrackPointExtension>
            <ns3:hr>143</ns3:hr>
            <ns3:cad>0</ns3:cad>
          </ns3:TrackPointExtension>
        </extensions>
      </trkpt>
      <trkpt lat="45.25480943731963634490966796875" lon="-71.12905788235366344451904296875">
        <ele>838.5999755859375</ele>
        <time>2026-08-22T02:12:58.000Z</time>
        <extensions>
          <ns3:TrackPointExtension>
            <ns3:hr>143</ns3:hr>
            <ns3:cad>0</ns3:cad>
          </ns3:TrackPointExtension>
        </extensions>
      </trkpt>
      <trkpt lat="45.254808850586414337158203125" lon="-71.1290588043630123138427734375">
        <ele>838.79998779296875</ele>
        <time>2026-08-22T02:12:59.000Z</time>
        <extensions>
          <ns3:TrackPointExtension>
            <ns3:hr>144</ns3:hr>
            <ns3:cad>0</ns3:cad>
          </ns3:TrackPointExtension>
        </extensions>
      </trkpt>
      <trkpt lat="45.25480843149125576019287109375" lon="-71.12905955873429775238037109375">
        <ele>839</ele>
        <time>2026-08-22T02:13:00.000Z</time>
        <extensions>
          <ns3:TrackPointExtension>
            <ns3:hr>144</ns3:hr>
            <ns3:cad>0</ns3:cad>
          </ns3:TrackPointExtension>
        </extensions>
      </trkpt>
      <trkpt lat="45.25480692274868488311767578125" lon="-71.12905737943947315216064453125">
        <ele>839.20001220703125</ele>
        <time>2026-08-22T02:13:01.000Z</time>
        <extensions>
          <ns3:TrackPointExtension>
            <ns3:hr>144</ns3:hr>
            <ns3:cad>0</ns3:cad>
          </ns3:TrackPointExtension>
        </extensions>
      </trkpt>
      <trkpt lat="45.254809521138668060302734375" lon="-71.12905771471560001373291015625">
        <ele>839.20001220703125</ele>
        <time>2026-08-22T02:13:02.000Z</time>
        <extensions>
          <ns3:TrackPointExtension>
            <ns3:hr>144</ns3:hr>
            <ns3:cad>0</ns3:cad>
          </ns3:TrackPointExtension>
        </extensions>
      </trkpt>
      <trkpt lat="45.25481413118541240692138671875" lon="-71.12905452959239482879638671875">
        <ele>839.4000244140625</ele>
        <time>2026-08-22T02:13:03.000Z</time>
        <extensions>
          <ns3:TrackPointExtension>
            <ns3:hr>144</ns3:hr>
            <ns3:cad>0</ns3:cad>
          </ns3:TrackPointExtension>
        </extensions>
      </trkpt>
      <trkpt lat="45.254817567765712738037109375" lon="-71.129047907888889312744140625">
        <ele>839.4000244140625</ele>
        <time>2026-08-22T02:13:04.000Z</time>
        <extensions>
          <ns3:TrackPointExtension>
            <ns3:hr>143</ns3:hr>
            <ns3:cad>0</ns3:cad>
          </ns3:TrackPointExtension>
        </extensions>
      </trkpt>
      <trkpt lat="45.2548174001276493072509765625" lon="-71.12903776578605175018310546875">
        <ele>839.4000244140625</ele>
        <time>2026-08-22T02:13:05.000Z</time>
        <extensions>
          <ns3:TrackPointExtension>
            <ns3:hr>143</ns3:hr>
            <ns3:cad>0</ns3:cad>
          </ns3:TrackPointExtension>
        </extensions>
      </trkpt>
      <trkpt lat="45.254816897213459014892578125" lon="-71.12902569584548473358154296875">
        <ele>839.5999755859375</ele>
        <time>2026-08-22T02:13:06.000Z</time>
        <extensions>
          <ns3:TrackPointExtension>
            <ns3:hr>143</ns3:hr>
            <ns3:cad>0</ns3:cad>
          </ns3:TrackPointExtension>
        </extensions>
      </trkpt>
      <trkpt lat="45.25481496937572956085205078125" lon="-71.12900977022945880889892578125">
        <ele>839.5999755859375</ele>
        <time>2026-08-22T02:13:07.000Z</time>
        <extensions>
          <ns3:TrackPointExtension>
            <ns3:hr>143</ns3:hr>
            <ns3:cad>0</ns3:cad>
          </ns3:TrackPointExtension>
        </extensions>
      </trkpt>
      <trkpt lat="45.254812203347682952880859375" lon="-71.12899719737470149993896484375">
        <ele>839.5999755859375</ele>
        <time>2026-08-22T02:13:08.000Z</time>
        <extensions>
          <ns3:TrackPointExtension>
            <ns3:hr>143</ns3:hr>
            <ns3:cad>0</ns3:cad>
          </ns3:TrackPointExtension>
        </extensions>
      </trkpt>
      <trkpt lat="45.25481186807155609130859375" lon="-71.12898915074765682220458984375">
        <ele>839.5999755859375</ele>
        <time>2026-08-22T02:13:09.000Z</time>
        <extensions>
          <ns3:TrackPointExtension>
            <ns3:hr>143</ns3:hr>
            <ns3:cad>0</ns3:cad>
          </ns3:TrackPointExtension>
        </extensions>
      </trkpt>
      <trkpt lat="45.2548110298812389373779296875" lon="-71.128985881805419921875">
        <ele>839.5999755859375</ele>
        <time>2026-08-22T02:13:10.000Z</time>
        <extensions>
          <ns3:TrackPointExtension>
            <ns3:hr>144</ns3:hr>
            <ns3:cad>0</ns3:cad>
          </ns3:TrackPointExtension>
        </extensions>
      </trkpt>
      <trkpt lat="45.25480918586254119873046875" lon="-71.128983534872531890869140625">
        <ele>839.5999755859375</ele>
        <time>2026-08-22T02:13:11.000Z</time>
        <extensions>
          <ns3:TrackPointExtension>
            <ns3:hr>143</ns3:hr>
            <ns3:cad>0</ns3:cad>
          </ns3:TrackPointExtension>
        </extensions>
      </trkpt>
      <trkpt lat="45.25480893440544605255126953125" lon="-71.128983534872531890869140625">
        <ele>839.5999755859375</ele>
        <time>2026-08-22T02:13:12.000Z</time>
        <extensions>
          <ns3:TrackPointExtension>
            <ns3:hr>143</ns3:hr>
            <ns3:cad>0</ns3:cad>
          </ns3:TrackPointExtension>
        </extensions>
      </trkpt>
      <trkpt lat="45.254808850586414337158203125" lon="-71.12898361869156360626220703125">
        <ele>839.79998779296875</ele>
        <time>2026-08-22T02:13:13.000Z</time>
        <extensions>
          <ns3:TrackPointExtension>
            <ns3:hr>144</ns3:hr>
            <ns3:cad>0</ns3:cad>
          </ns3:TrackPointExtension>
        </extensions>
      </trkpt>
      <trkpt lat="45.25480809621512889862060546875" lon="-71.12898630090057849884033203125">
        <ele>839.79998779296875</ele>
        <time>2026-08-22T02:13:14.000Z</time>
        <extensions>
          <ns3:TrackPointExtension>
            <ns3:hr>144</ns3:hr>
            <ns3:cad>0</ns3:cad>
          </ns3:TrackPointExtension>
        </extensions>
      </trkpt>
      <trkpt lat="45.2548046596348285675048828125" lon="-71.12898546271026134490966796875">
        <ele>840</ele>
        <time>2026-08-22T02:13:15.000Z</time>
        <extensions>
          <ns3:TrackPointExtension>
            <ns3:hr>144</ns3:hr>
            <ns3:cad>0</ns3:cad>
          </ns3:TrackPointExtension>
        </extensions>
      </trkpt>
      <trkpt lat="45.25480088777840137481689453125" lon="-71.128981523215770721435546875">
        <ele>840.20001220703125</ele>
        <time>2026-08-22T02:13:16.000Z</time>
        <extensions>
          <ns3:TrackPointExtension>
            <ns3:hr>143</ns3:hr>
            <ns3:cad>0</ns3:cad>
          </ns3:TrackPointExtension>
        </extensions>
      </trkpt>
      <trkpt lat="45.25479937903583049774169921875" lon="-71.128980852663516998291015625">
        <ele>840.4000244140625</ele>
        <time>2026-08-22T02:13:17.000Z</time>
        <extensions>
          <ns3:TrackPointExtension>
            <ns3:hr>143</ns3:hr>
            <ns3:cad>0</ns3:cad>
          </ns3:TrackPointExtension>
        </extensions>
      </trkpt>
      <trkpt lat="45.25479451753199100494384765625" lon="-71.12897674553096294403076171875">
        <ele>840.4000244140625</ele>
        <time>2026-08-22T02:13:18.000Z</time>
        <extensions>
          <ns3:TrackPointExtension>
            <ns3:hr>143</ns3:hr>
            <ns3:cad>0</ns3:cad>
          </ns3:TrackPointExtension>
        </extensions>
      </trkpt>
      <trkpt lat="45.2547939307987689971923828125" lon="-71.12897657789289951324462890625">
        <ele>840.5999755859375</ele>
        <time>2026-08-22T02:13:19.000Z</time>
        <extensions>
          <ns3:TrackPointExtension>
            <ns3:hr>143</ns3:hr>
            <ns3:cad>0</ns3:cad>
          </ns3:TrackPointExtension>
        </extensions>
      </trkpt>
      <trkpt lat="45.2547922544181346893310546875" lon="-71.1289763264358043670654296875">
        <ele>840.79998779296875</ele>
        <time>2026-08-22T02:13:20.000Z</time>
        <extensions>
          <ns3:TrackPointExtension>
            <ns3:hr>143</ns3:hr>
            <ns3:cad>0</ns3:cad>
          </ns3:TrackPointExtension>
        </extensions>
      </trkpt>
      <trkpt lat="45.2547852136194705963134765625" lon="-71.128974147140979766845703125">
        <ele>841</ele>
        <time>2026-08-22T02:13:21.000Z</time>
        <extensions>
          <ns3:TrackPointExtension>
            <ns3:hr>142</ns3:hr>
            <ns3:cad>0</ns3:cad>
          </ns3:TrackPointExtension>
        </extensions>
      </trkpt>
      <trkpt lat="45.254781357944011688232421875" lon="-71.12897054292261600494384765625">
        <ele>841.20001220703125</ele>
        <time>2026-08-22T02:13:22.000Z</time>
        <extensions>
          <ns3:TrackPointExtension>
            <ns3:hr>142</ns3:hr>
            <ns3:cad>0</ns3:cad>
          </ns3:TrackPointExtension>
        </extensions>
      </trkpt>
      <trkpt lat="45.25478110648691654205322265625" lon="-71.1289696209132671356201171875">
        <ele>841.4000244140625</ele>
        <time>2026-08-22T02:13:23.000Z</time>
        <extensions>
          <ns3:TrackPointExtension>
            <ns3:hr>142</ns3:hr>
            <ns3:cad>0</ns3:cad>
          </ns3:TrackPointExtension>
        </extensions>
      </trkpt>
      <trkpt lat="45.2547776699066162109375" lon="-71.128961741924285888671875">
        <ele>841.5999755859375</ele>
        <time>2026-08-22T02:13:24.000Z</time>
        <extensions>
          <ns3:TrackPointExtension>
            <ns3:hr>142</ns3:hr>
            <ns3:cad>0</ns3:cad>
          </ns3:TrackPointExtension>
        </extensions>
      </trkpt>
      <trkpt lat="45.25477322749793529510498046875" lon="-71.12895813770592212677001953125">
        <ele>841.79998779296875</ele>
        <time>2026-08-22T02:13:25.000Z</time>
        <extensions>
          <ns3:TrackPointExtension>
            <ns3:hr>144</ns3:hr>
            <ns3:cad>0</ns3:cad>
          </ns3:TrackPointExtension>
        </extensions>
      </trkpt>
      <trkpt lat="45.25477071292698383331298828125" lon="-71.12895562313497066497802734375">
        <ele>842</ele>
        <time>2026-08-22T02:13:26.000Z</time>
        <extensions>
          <ns3:TrackPointExtension>
            <ns3:hr>142</ns3:hr>
            <ns3:cad>0</ns3:cad>
          </ns3:TrackPointExtension>
        </extensions>
      </trkpt>
      <trkpt lat="45.25476853363215923309326171875" lon="-71.12895545549690723419189453125">
        <ele>842.20001220703125</ele>
        <time>2026-08-22T02:13:27.000Z</time>
        <extensions>
          <ns3:TrackPointExtension>
            <ns3:hr>142</ns3:hr>
            <ns3:cad>0</ns3:cad>
          </ns3:TrackPointExtension>
        </extensions>
      </trkpt>
      <trkpt lat="45.25475814007222652435302734375" lon="-71.12895646132528781890869140625">
        <ele>842.4000244140625</ele>
        <time>2026-08-22T02:13:28.000Z</time>
        <extensions>
          <ns3:TrackPointExtension>
            <ns3:hr>141</ns3:hr>
            <ns3:cad>0</ns3:cad>
          </ns3:TrackPointExtension>
        </extensions>
      </trkpt>
      <trkpt lat="45.2547548711299896240234375" lon="-71.12895729951560497283935546875">
        <ele>842.4000244140625</ele>
        <time>2026-08-22T02:13:29.000Z</time>
        <extensions>
          <ns3:TrackPointExtension>
            <ns3:hr>140</ns3:hr>
            <ns3:cad>0</ns3:cad>
          </ns3:TrackPointExtension>
        </extensions>
      </trkpt>
      <trkpt lat="45.2547493390738964080810546875" lon="-71.12895629368722438812255859375">
        <ele>842.5999755859375</ele>
        <time>2026-08-22T02:13:30.000Z</time>
        <extensions>
          <ns3:TrackPointExtension>
            <ns3:hr>140</ns3:hr>
            <ns3:cad>0</ns3:cad>
          </ns3:TrackPointExtension>
        </extensions>
      </trkpt>
      <trkpt lat="45.25474405847489833831787109375" lon="-71.12895704805850982666015625">
        <ele>842.79998779296875</ele>
        <time>2026-08-22T02:13:31.000Z</time>
        <extensions>
          <ns3:TrackPointExtension>
            <ns3:hr>140</ns3:hr>
            <ns3:cad>0</ns3:cad>
          </ns3:TrackPointExtension>
        </extensions>
      </trkpt>
      <trkpt lat="45.25473483838140964508056640625" lon="-71.12895461730659008026123046875">
        <ele>843</ele>
        <time>2026-08-22T02:13:32.000Z</time>
        <extensions>
          <ns3:TrackPointExtension>
            <ns3:hr>139</ns3:hr>
            <ns3:cad>0</ns3:cad>
          </ns3:TrackPointExtension>
        </extensions>
      </trkpt>
      <trkpt lat="45.25473383255302906036376953125" lon="-71.12895411439239978790283203125">
        <ele>843.20001220703125</ele>
        <time>2026-08-22T02:13:33.000Z</time>
        <extensions>
          <ns3:TrackPointExtension>
            <ns3:hr>139</ns3:hr>
            <ns3:cad>0</ns3:cad>
          </ns3:TrackPointExtension>
        </extensions>
      </trkpt>
      <trkpt lat="45.25472469627857208251953125" lon="-71.12895143218338489532470703125">
        <ele>843.4000244140625</ele>
        <time>2026-08-22T02:13:34.000Z</time>
        <extensions>
          <ns3:TrackPointExtension>
            <ns3:hr>139</ns3:hr>
            <ns3:cad>0</ns3:cad>
          </ns3:TrackPointExtension>
        </extensions>
      </trkpt>
      <trkpt lat="45.25472025386989116668701171875" lon="-71.12895327620208263397216796875">
        <ele>843.5999755859375</ele>
        <time>2026-08-22T02:13:35.000Z</time>
        <extensions>
          <ns3:TrackPointExtension>
            <ns3:hr>139</ns3:hr>
            <ns3:cad>0</ns3:cad>
          </ns3:TrackPointExtension>
        </extensions>
      </trkpt>
      <trkpt lat="45.25471128523349761962890625" lon="-71.128954030573368072509765625">
        <ele>843.79998779296875</ele>
        <time>2026-08-22T02:13:36.000Z</time>
        <extensions>
          <ns3:TrackPointExtension>
            <ns3:hr>139</ns3:hr>
            <ns3:cad>0</ns3:cad>
          </ns3:TrackPointExtension>
        </extensions>
      </trkpt>
      <trkpt lat="45.25469711981713771820068359375" lon="-71.12895679660141468048095703125">
        <ele>844</ele>
        <time>2026-08-22T02:13:37.000Z</time>
        <extensions>
          <ns3:TrackPointExtension>
            <ns3:hr>139</ns3:hr>
            <ns3:cad>0</ns3:cad>
          </ns3:TrackPointExtension>
        </extensions>
      </trkpt>
      <trkpt lat="45.25468873791396617889404296875" lon="-71.12895797006785869598388671875">
        <ele>844.20001220703125</ele>
        <time>2026-08-22T02:13:38.000Z</time>
        <extensions>
          <ns3:TrackPointExtension>
            <ns3:hr>139</ns3:hr>
            <ns3:cad>0</ns3:cad>
          </ns3:TrackPointExtension>
        </extensions>
      </trkpt>
      <trkpt lat="45.25468186475336551666259765625" lon="-71.128961406648159027099609375">
        <ele>844.4000244140625</ele>
        <time>2026-08-22T02:13:39.000Z</time>
        <extensions>
          <ns3:TrackPointExtension>
            <ns3:hr>138</ns3:hr>
            <ns3:cad>0</ns3:cad>
          </ns3:TrackPointExtension>
        </extensions>
      </trkpt>
      <trkpt lat="45.254676751792430877685546875" lon="-71.1289652623236179351806640625">
        <ele>844.5999755859375</ele>
        <time>2026-08-22T02:13:40.000Z</time>
        <extensions>
          <ns3:TrackPointExtension>
            <ns3:hr>139</ns3:hr>
            <ns3:cad>0</ns3:cad>
          </ns3:TrackPointExtension>
        </extensions>
      </trkpt>
      <trkpt lat="45.25467063300311565399169921875" lon="-71.12897154875099658966064453125">
        <ele>844.79998779296875</ele>
        <time>2026-08-22T02:13:41.000Z</time>
        <extensions>
          <ns3:TrackPointExtension>
            <ns3:hr>139</ns3:hr>
            <ns3:cad>0</ns3:cad>
          </ns3:TrackPointExtension>
        </extensions>
      </trkpt>
      <trkpt lat="45.254661999642848968505859375" lon="-71.1289686150848865509033203125">
        <ele>844.79998779296875</ele>
        <time>2026-08-22T02:13:42.000Z</time>
        <extensions>
          <ns3:TrackPointExtension>
            <ns3:hr>138</ns3:hr>
            <ns3:cad>0</ns3:cad>
          </ns3:TrackPointExtension>
        </extensions>
      </trkpt>
      <trkpt lat="45.25465990416705608367919921875" lon="-71.12896769307553768157958984375">
        <ele>845</ele>
        <time>2026-08-22T02:13:43.000Z</time>
        <extensions>
          <ns3:TrackPointExtension>
            <ns3:hr>138</ns3:hr>
            <ns3:cad>0</ns3:cad>
          </ns3:TrackPointExtension>
        </extensions>
      </trkpt>
      <trkpt lat="45.2546511031687259674072265625" lon="-71.12897071056067943572998046875">
        <ele>845.20001220703125</ele>
        <time>2026-08-22T02:13:44.000Z</time>
        <extensions>
          <ns3:TrackPointExtension>
            <ns3:hr>138</ns3:hr>
            <ns3:cad>0</ns3:cad>
          </ns3:TrackPointExtension>
        </extensions>
      </trkpt>
      <trkpt lat="45.25464288890361785888671875" lon="-71.1289739795029163360595703125">
        <ele>845.5999755859375</ele>
        <time>2026-08-22T02:13:45.000Z</time>
        <extensions>
          <ns3:TrackPointExtension>
            <ns3:hr>139</ns3:hr>
            <ns3:cad>0</ns3:cad>
          </ns3:TrackPointExtension>
        </extensions>
      </trkpt>
      <trkpt lat="45.25464020669460296630859375" lon="-71.1289769969880580902099609375">
        <ele>845.79998779296875</ele>
        <time>2026-08-22T02:13:46.000Z</time>
        <extensions>
          <ns3:TrackPointExtension>
            <ns3:hr>140</ns3:hr>
            <ns3:cad>0</ns3:cad>
          </ns3:TrackPointExtension>
        </extensions>
      </trkpt>
      <trkpt lat="45.25463257916271686553955078125" lon="-71.12898160703480243682861328125">
        <ele>846</ele>
        <time>2026-08-22T02:13:47.000Z</time>
        <extensions>
          <ns3:TrackPointExtension>
            <ns3:hr>143</ns3:hr>
            <ns3:cad>0</ns3:cad>
          </ns3:TrackPointExtension>
        </extensions>
      </trkpt>
      <trkpt lat="45.25462738238275051116943359375" lon="-71.1289890669286251068115234375">
        <ele>846.20001220703125</ele>
        <time>2026-08-22T02:13:48.000Z</time>
        <extensions>
          <ns3:TrackPointExtension>
            <ns3:hr>145</ns3:hr>
            <ns3:cad>0</ns3:cad>
          </ns3:TrackPointExtension>
        </extensions>
      </trkpt>
      <trkpt lat="45.254621095955371856689453125" lon="-71.12899585627019405364990234375">
        <ele>846.20001220703125</ele>
        <time>2026-08-22T02:13:49.000Z</time>
        <extensions>
          <ns3:TrackPointExtension>
            <ns3:hr>145</ns3:hr>
            <ns3:cad>0</ns3:cad>
          </ns3:TrackPointExtension>
        </extensions>
      </trkpt>
      <trkpt lat="45.25461548008024692535400390625" lon="-71.1290021426975727081298828125">
        <ele>846.4000244140625</ele>
        <time>2026-08-22T02:13:50.000Z</time>
        <extensions>
          <ns3:TrackPointExtension>
            <ns3:hr>144</ns3:hr>
            <ns3:cad>0</ns3:cad>
          </ns3:TrackPointExtension>
        </extensions>
      </trkpt>
      <trkpt lat="45.25460609234869480133056640625" lon="-71.129009686410427093505859375">
        <ele>846.4000244140625</ele>
        <time>2026-08-22T02:13:51.000Z</time>
        <extensions>
          <ns3:TrackPointExtension>
            <ns3:hr>142</ns3:hr>
            <ns3:cad>0</ns3:cad>
          </ns3:TrackPointExtension>
        </extensions>
      </trkpt>
      <trkpt lat="45.25460039265453815460205078125" lon="-71.12901563756167888641357421875">
        <ele>846.4000244140625</ele>
        <time>2026-08-22T02:13:52.000Z</time>
        <extensions>
          <ns3:TrackPointExtension>
            <ns3:hr>140</ns3:hr>
            <ns3:cad>0</ns3:cad>
          </ns3:TrackPointExtension>
        </extensions>
      </trkpt>
      <trkpt lat="45.25459703989326953887939453125" lon="-71.12902049906551837921142578125">
        <ele>846.5999755859375</ele>
        <time>2026-08-22T02:13:53.000Z</time>
        <extensions>
          <ns3:TrackPointExtension>
            <ns3:hr>139</ns3:hr>
            <ns3:cad>0</ns3:cad>
          </ns3:TrackPointExtension>
        </extensions>
      </trkpt>
      <trkpt lat="45.2545934356749057769775390625" lon="-71.12902686931192874908447265625">
        <ele>846.5999755859375</ele>
        <time>2026-08-22T02:13:54.000Z</time>
        <extensions>
          <ns3:TrackPointExtension>
            <ns3:hr>139</ns3:hr>
            <ns3:cad>0</ns3:cad>
          </ns3:TrackPointExtension>
        </extensions>
      </trkpt>
      <trkpt lat="45.25459050200879573822021484375" lon="-71.12903156317770481109619140625">
        <ele>846.79998779296875</ele>
        <time>2026-08-22T02:13:55.000Z</time>
        <extensions>
          <ns3:TrackPointExtension>
            <ns3:hr>139</ns3:hr>
            <ns3:cad>0</ns3:cad>
          </ns3:TrackPointExtension>
        </extensions>
      </trkpt>
      <trkpt lat="45.254583545029163360595703125" lon="-71.1290346644818782806396484375">
        <ele>846.79998779296875</ele>
        <time>2026-08-22T02:13:56.000Z</time>
        <extensions>
          <ns3:TrackPointExtension>
            <ns3:hr>139</ns3:hr>
            <ns3:cad>0</ns3:cad>
          </ns3:TrackPointExtension>
        </extensions>
      </trkpt>
      <trkpt lat="45.25457843206822872161865234375" lon="-71.1290383525192737579345703125">
        <ele>847</ele>
        <time>2026-08-22T02:13:57.000Z</time>
        <extensions>
          <ns3:TrackPointExtension>
            <ns3:hr>139</ns3:hr>
            <ns3:cad>0</ns3:cad>
          </ns3:TrackPointExtension>
        </extensions>
      </trkpt>
      <trkpt lat="45.25456787087023258209228515625" lon="-71.12904556095600128173828125">
        <ele>847.20001220703125</ele>
        <time>2026-08-22T02:13:58.000Z</time>
        <extensions>
          <ns3:TrackPointExtension>
            <ns3:hr>139</ns3:hr>
            <ns3:cad>0</ns3:cad>
          </ns3:TrackPointExtension>
        </extensions>
      </trkpt>
      <trkpt lat="45.254564099013805389404296875" lon="-71.129052601754665374755859375">
        <ele>847.20001220703125</ele>
        <time>2026-08-22T02:13:59.000Z</time>
        <extensions>
          <ns3:TrackPointExtension>
            <ns3:hr>140</ns3:hr>
            <ns3:cad>0</ns3:cad>
          </ns3:TrackPointExtension>
        </extensions>
      </trkpt>
      <trkpt lat="45.25455948896706104278564453125" lon="-71.12905670888721942901611328125">
        <ele>847.4000244140625</ele>
        <time>2026-08-22T02:14:00.000Z</time>
        <extensions>
          <ns3:TrackPointExtension>
            <ns3:hr>139</ns3:hr>
            <ns3:cad>0</ns3:cad>
          </ns3:TrackPointExtension>
        </extensions>
      </trkpt>
      <trkpt lat="45.2545528672635555267333984375" lon="-71.129062660038471221923828125">
        <ele>847.4000244140625</ele>
        <time>2026-08-22T02:14:01.000Z</time>
        <extensions>
          <ns3:TrackPointExtension>
            <ns3:hr>139</ns3:hr>
            <ns3:cad>0</ns3:cad>
          </ns3:TrackPointExtension>
        </extensions>
      </trkpt>
      <trkpt lat="45.2545441500842571258544921875" lon="-71.12906944938004016876220703125">
        <ele>847.5999755859375</ele>
        <time>2026-08-22T02:14:02.000Z</time>
        <extensions>
          <ns3:TrackPointExtension>
            <ns3:hr>139</ns3:hr>
            <ns3:cad>0</ns3:cad>
          </ns3:TrackPointExtension>
        </extensions>
      </trkpt>
      <trkpt lat="45.2545397914946079254150390625" lon="-71.1290742270648479461669921875">
        <ele>847.79998779296875</ele>
        <time>2026-08-22T02:14:03.000Z</time>
        <extensions>
          <ns3:TrackPointExtension>
            <ns3:hr>139</ns3:hr>
            <ns3:cad>0</ns3:cad>
          </ns3:TrackPointExtension>
        </extensions>
      </trkpt>
      <trkpt lat="45.2545347623527050018310546875" lon="-71.129085123538970947265625">
        <ele>847.79998779296875</ele>
        <time>2026-08-22T02:14:04.000Z</time>
        <extensions>
          <ns3:TrackPointExtension>
            <ns3:hr>139</ns3:hr>
            <ns3:cad>0</ns3:cad>
          </ns3:TrackPointExtension>
        </extensions>
      </trkpt>
      <trkpt lat="45.254528224468231201171875" lon="-71.12908990122377872467041015625">
        <ele>848</ele>
        <time>2026-08-22T02:14:05.000Z</time>
        <extensions>
          <ns3:TrackPointExtension>
            <ns3:hr>138</ns3:hr>
            <ns3:cad>0</ns3:cad>
          </ns3:TrackPointExtension>
        </extensions>
      </trkpt>
      <trkpt lat="45.2545236982405185699462890625" lon="-71.1290945112705230712890625">
        <ele>848.20001220703125</ele>
        <time>2026-08-22T02:14:06.000Z</time>
        <extensions>
          <ns3:TrackPointExtension>
            <ns3:hr>138</ns3:hr>
            <ns3:cad>0</ns3:cad>
          </ns3:TrackPointExtension>
        </extensions>
      </trkpt>
      <trkpt lat="45.2545139752328395843505859375" lon="-71.1290997080504894256591796875">
        <ele>848.4000244140625</ele>
        <time>2026-08-22T02:14:07.000Z</time>
        <extensions>
          <ns3:TrackPointExtension>
            <ns3:hr>138</ns3:hr>
            <ns3:cad>0</ns3:cad>
          </ns3:TrackPointExtension>
        </extensions>
      </trkpt>
      <trkpt lat="45.25451053865253925323486328125" lon="-71.12910314463078975677490234375">
        <ele>848.4000244140625</ele>
        <time>2026-08-22T02:14:08.000Z</time>
        <extensions>
          <ns3:TrackPointExtension>
            <ns3:hr>138</ns3:hr>
            <ns3:cad>0</ns3:cad>
          </ns3:TrackPointExtension>
        </extensions>
      </trkpt>
      <trkpt lat="45.25450198911130428314208984375" lon="-71.1291047371923923492431640625">
        <ele>848.5999755859375</ele>
        <time>2026-08-22T02:14:09.000Z</time>
        <extensions>
          <ns3:TrackPointExtension>
            <ns3:hr>138</ns3:hr>
            <ns3:cad>0</ns3:cad>
          </ns3:TrackPointExtension>
        </extensions>
      </trkpt>
      <trkpt lat="45.25449846871197223663330078125" lon="-71.129106916487216949462890625">
        <ele>848.79998779296875</ele>
        <time>2026-08-22T02:14:10.000Z</time>
        <extensions>
          <ns3:TrackPointExtension>
            <ns3:hr>138</ns3:hr>
            <ns3:cad>0</ns3:cad>
          </ns3:TrackPointExtension>
        </extensions>
      </trkpt>
      <trkpt lat="45.25449561886489391326904296875" lon="-71.1291124485433101654052734375">
        <ele>848.79998779296875</ele>
        <time>2026-08-22T02:14:11.000Z</time>
        <extensions>
          <ns3:TrackPointExtension>
            <ns3:hr>138</ns3:hr>
            <ns3:cad>0</ns3:cad>
          </ns3:TrackPointExtension>
        </extensions>
      </trkpt>
      <trkpt lat="45.2544888295233249664306640625" lon="-71.12911655567586421966552734375">
        <ele>849</ele>
        <time>2026-08-22T02:14:12.000Z</time>
        <extensions>
          <ns3:TrackPointExtension>
            <ns3:hr>138</ns3:hr>
            <ns3:cad>0</ns3:cad>
          </ns3:TrackPointExtension>
        </extensions>
      </trkpt>
      <trkpt lat="45.2544874884188175201416015625" lon="-71.129123680293560028076171875">
        <ele>849.20001220703125</ele>
        <time>2026-08-22T02:14:13.000Z</time>
        <extensions>
          <ns3:TrackPointExtension>
            <ns3:hr>137</ns3:hr>
            <ns3:cad>0</ns3:cad>
          </ns3:TrackPointExtension>
        </extensions>
      </trkpt>
      <trkpt lat="45.25448472239077091217041015625" lon="-71.12912761978805065155029296875">
        <ele>849.4000244140625</ele>
        <time>2026-08-22T02:14:14.000Z</time>
        <extensions>
          <ns3:TrackPointExtension>
            <ns3:hr>138</ns3:hr>
            <ns3:cad>0</ns3:cad>
          </ns3:TrackPointExtension>
        </extensions>
      </trkpt>
      <trkpt lat="45.25447952561080455780029296875" lon="-71.12913533113896846771240234375">
        <ele>849.5999755859375</ele>
        <time>2026-08-22T02:14:15.000Z</time>
        <extensions>
          <ns3:TrackPointExtension>
            <ns3:hr>137</ns3:hr>
            <ns3:cad>0</ns3:cad>
          </ns3:TrackPointExtension>
        </extensions>
      </trkpt>
      <trkpt lat="45.2544727362692356109619140625" lon="-71.129145808517932891845703125">
        <ele>849.79998779296875</ele>
        <time>2026-08-22T02:14:16.000Z</time>
        <extensions>
          <ns3:TrackPointExtension>
            <ns3:hr>137</ns3:hr>
            <ns3:cad>0</ns3:cad>
          </ns3:TrackPointExtension>
        </extensions>
      </trkpt>
      <trkpt lat="45.25447097606956958770751953125" lon="-71.1291516758501529693603515625">
        <ele>849.79998779296875</ele>
        <time>2026-08-22T02:14:17.000Z</time>
        <extensions>
          <ns3:TrackPointExtension>
            <ns3:hr>137</ns3:hr>
            <ns3:cad>0</ns3:cad>
          </ns3:TrackPointExtension>
        </extensions>
      </trkpt>
      <trkpt lat="45.254465527832508087158203125" lon="-71.12916148267686367034912109375">
        <ele>850</ele>
        <time>2026-08-22T02:14:18.000Z</time>
        <extensions>
          <ns3:TrackPointExtension>
            <ns3:hr>136</ns3:hr>
            <ns3:cad>0</ns3:cad>
          </ns3:TrackPointExtension>
        </extensions>
      </trkpt>
      <trkpt lat="45.25445873849093914031982421875" lon="-71.129170954227447509765625">
        <ele>850.20001220703125</ele>
        <time>2026-08-22T02:14:19.000Z</time>
        <extensions>
          <ns3:TrackPointExtension>
            <ns3:hr>136</ns3:hr>
            <ns3:cad>0</ns3:cad>
          </ns3:TrackPointExtension>
        </extensions>
      </trkpt>
      <trkpt lat="45.2544549666345119476318359375" lon="-71.12917707301676273345947265625">
        <ele>850.20001220703125</ele>
        <time>2026-08-22T02:14:20.000Z</time>
        <extensions>
          <ns3:TrackPointExtension>
            <ns3:hr>136</ns3:hr>
            <ns3:cad>0</ns3:cad>
          </ns3:TrackPointExtension>
        </extensions>
      </trkpt>
      <trkpt lat="45.25445102714002132415771484375" lon="-71.12917321734130382537841796875">
        <ele>850.20001220703125</ele>
        <time>2026-08-22T02:14:21.000Z</time>
        <extensions>
          <ns3:TrackPointExtension>
            <ns3:hr>136</ns3:hr>
            <ns3:cad>75</ns3:cad>
          </ns3:TrackPointExtension>
        </extensions>
      </trkpt>
      <trkpt lat="45.254447758197784423828125" lon="-71.12917372025549411773681640625">
        <ele>850.4000244140625</ele>
        <time>2026-08-22T02:14:22.000Z</time>
        <extensions>
          <ns3:TrackPointExtension>
            <ns3:hr>135</ns3:hr>
            <ns3:cad>75</ns3:cad>
          </ns3:TrackPointExtension>
        </extensions>
      </trkpt>
      <trkpt lat="45.25444381870329380035400390625" lon="-71.12917489372193813323974609375">
        <ele>850.5999755859375</ele>
        <time>2026-08-22T02:14:23.000Z</time>
        <extensions>
          <ns3:TrackPointExtension>
            <ns3:hr>135</ns3:hr>
            <ns3:cad>78</ns3:cad>
          </ns3:TrackPointExtension>
        </extensions>
      </trkpt>
      <trkpt lat="45.25443510152399539947509765625" lon="-71.129183359444141387939453125">
        <ele>850.79998779296875</ele>
        <time>2026-08-22T02:14:24.000Z</time>
        <extensions>
          <ns3:TrackPointExtension>
            <ns3:hr>134</ns3:hr>
            <ns3:cad>78</ns3:cad>
          </ns3:TrackPointExtension>
        </extensions>
      </trkpt>
      <trkpt lat="45.25443325750529766082763671875" lon="-71.129190735518932342529296875">
        <ele>851</ele>
        <time>2026-08-22T02:14:25.000Z</time>
        <extensions>
          <ns3:TrackPointExtension>
            <ns3:hr>133</ns3:hr>
            <ns3:cad>0</ns3:cad>
          </ns3:TrackPointExtension>
        </extensions>
      </trkpt>
      <trkpt lat="45.25442487560212612152099609375" lon="-71.129203476011753082275390625">
        <ele>851.20001220703125</ele>
        <time>2026-08-22T02:14:26.000Z</time>
        <extensions>
          <ns3:TrackPointExtension>
            <ns3:hr>132</ns3:hr>
            <ns3:cad>0</ns3:cad>
          </ns3:TrackPointExtension>
        </extensions>
      </trkpt>
      <trkpt lat="45.25441934354603290557861328125" lon="-71.129211522638797760009765625">
        <ele>851.20001220703125</ele>
        <time>2026-08-22T02:14:27.000Z</time>
        <extensions>
          <ns3:TrackPointExtension>
            <ns3:hr>130</ns3:hr>
            <ns3:cad>0</ns3:cad>
          </ns3:TrackPointExtension>
        </extensions>
      </trkpt>
      <trkpt lat="45.254412554204463958740234375" lon="-71.12921990454196929931640625">
        <ele>851.4000244140625</ele>
        <time>2026-08-22T02:14:28.000Z</time>
        <extensions>
          <ns3:TrackPointExtension>
            <ns3:hr>130</ns3:hr>
            <ns3:cad>0</ns3:cad>
          </ns3:TrackPointExtension>
        </extensions>
      </trkpt>
      <trkpt lat="45.25440308265388011932373046875" lon="-71.12922904081642627716064453125">
        <ele>851.4000244140625</ele>
        <time>2026-08-22T02:14:29.000Z</time>
        <extensions>
          <ns3:TrackPointExtension>
            <ns3:hr>130</ns3:hr>
            <ns3:cad>0</ns3:cad>
          </ns3:TrackPointExtension>
        </extensions>
      </trkpt>
      <trkpt lat="45.25439972989261150360107421875" lon="-71.12923356704413890838623046875">
        <ele>851.5999755859375</ele>
        <time>2026-08-22T02:14:30.000Z</time>
        <extensions>
          <ns3:TrackPointExtension>
            <ns3:hr>131</ns3:hr>
            <ns3:cad>0</ns3:cad>
          </ns3:TrackPointExtension>
        </extensions>
      </trkpt>
      <trkpt lat="45.25439755059778690338134765625" lon="-71.12923842854797840118408203125">
        <ele>851.5999755859375</ele>
        <time>2026-08-22T02:14:31.000Z</time>
        <extensions>
          <ns3:TrackPointExtension>
            <ns3:hr>133</ns3:hr>
            <ns3:cad>0</ns3:cad>
          </ns3:TrackPointExtension>
        </extensions>
      </trkpt>
      <trkpt lat="45.254393108189105987548828125" lon="-71.12925150431692600250244140625">
        <ele>851.79998779296875</ele>
        <time>2026-08-22T02:14:32.000Z</time>
        <extensions>
          <ns3:TrackPointExtension>
            <ns3:hr>133</ns3:hr>
            <ns3:cad>0</ns3:cad>
          </ns3:TrackPointExtension>
        </extensions>
      </trkpt>
      <trkpt lat="45.25438682176172733306884765625" lon="-71.1292613111436367034912109375">
        <ele>851.79998779296875</ele>
        <time>2026-08-22T02:14:33.000Z</time>
        <extensions>
          <ns3:TrackPointExtension>
            <ns3:hr>133</ns3:hr>
            <ns3:cad>0</ns3:cad>
          </ns3:TrackPointExtension>
        </extensions>
      </trkpt>
      <trkpt lat="45.2543781884014606475830078125" lon="-71.1292686872184276580810546875">
        <ele>851.79998779296875</ele>
        <time>2026-08-22T02:14:34.000Z</time>
        <extensions>
          <ns3:TrackPointExtension>
            <ns3:hr>133</ns3:hr>
            <ns3:cad>0</ns3:cad>
          </ns3:TrackPointExtension>
        </extensions>
      </trkpt>
      <trkpt lat="45.25436687283217906951904296875" lon="-71.1292740516364574432373046875">
        <ele>851.79998779296875</ele>
        <time>2026-08-22T02:14:35.000Z</time>
        <extensions>
          <ns3:TrackPointExtension>
            <ns3:hr>132</ns3:hr>
            <ns3:cad>0</ns3:cad>
          </ns3:TrackPointExtension>
        </extensions>
      </trkpt>
      <trkpt lat="45.254358239471912384033203125" lon="-71.1292784102261066436767578125">
        <ele>852</ele>
        <time>2026-08-22T02:14:36.000Z</time>
        <extensions>
          <ns3:TrackPointExtension>
            <ns3:hr>132</ns3:hr>
            <ns3:cad>0</ns3:cad>
          </ns3:TrackPointExtension>
        </extensions>
      </trkpt>
      <trkpt lat="45.2543550543487071990966796875" lon="-71.129281260073184967041015625">
        <ele>852</ele>
        <time>2026-08-22T02:14:37.000Z</time>
        <extensions>
          <ns3:TrackPointExtension>
            <ns3:hr>132</ns3:hr>
            <ns3:cad>47</ns3:cad>
          </ns3:TrackPointExtension>
        </extensions>
      </trkpt>
      <trkpt lat="45.25434843264520168304443359375" lon="-71.12928695976734161376953125">
        <ele>852.4000244140625</ele>
        <time>2026-08-22T02:14:38.000Z</time>
        <extensions>
          <ns3:TrackPointExtension>
            <ns3:hr>132</ns3:hr>
            <ns3:cad>47</ns3:cad>
          </ns3:TrackPointExtension>
        </extensions>
      </trkpt>
      <trkpt lat="45.2543418109416961669921875" lon="-71.12929341383278369903564453125">
        <ele>852.5999755859375</ele>
        <time>2026-08-22T02:14:39.000Z</time>
        <extensions>
          <ns3:TrackPointExtension>
            <ns3:hr>133</ns3:hr>
            <ns3:cad>47</ns3:cad>
          </ns3:TrackPointExtension>
        </extensions>
      </trkpt>
      <trkpt lat="45.25434005074203014373779296875" lon="-71.12929844297468662261962890625">
        <ele>852.79998779296875</ele>
        <time>2026-08-22T02:14:40.000Z</time>
        <extensions>
          <ns3:TrackPointExtension>
            <ns3:hr>134</ns3:hr>
            <ns3:cad>47</ns3:cad>
          </ns3:TrackPointExtension>
        </extensions>
      </trkpt>
      <trkpt lat="45.25433418340981006622314453125" lon="-71.12930967472493648529052734375">
        <ele>853</ele>
        <time>2026-08-22T02:14:41.000Z</time>
        <extensions>
          <ns3:TrackPointExtension>
            <ns3:hr>134</ns3:hr>
            <ns3:cad>47</ns3:cad>
          </ns3:TrackPointExtension>
        </extensions>
      </trkpt>
      <trkpt lat="45.2543252147734165191650390625" lon="-71.12932375632226467132568359375">
        <ele>853</ele>
        <time>2026-08-22T02:14:42.000Z</time>
        <extensions>
          <ns3:TrackPointExtension>
            <ns3:hr>135</ns3:hr>
            <ns3:cad>47</ns3:cad>
          </ns3:TrackPointExtension>
        </extensions>
      </trkpt>
      <trkpt lat="45.25432010181248188018798828125" lon="-71.12933414988219738006591796875">
        <ele>853</ele>
        <time>2026-08-22T02:14:43.000Z</time>
        <extensions>
          <ns3:TrackPointExtension>
            <ns3:hr>135</ns3:hr>
            <ns3:cad>47</ns3:cad>
          </ns3:TrackPointExtension>
        </extensions>
      </trkpt>
      <trkpt lat="45.2543149888515472412109375" lon="-71.1293377541005611419677734375">
        <ele>853</ele>
        <time>2026-08-22T02:14:44.000Z</time>
        <extensions>
          <ns3:TrackPointExtension>
            <ns3:hr>135</ns3:hr>
            <ns3:cad>47</ns3:cad>
          </ns3:TrackPointExtension>
        </extensions>
      </trkpt>
      <trkpt lat="45.25431037880480289459228515625" lon="-71.12933800555765628814697265625">
        <ele>853</ele>
        <time>2026-08-22T02:14:45.000Z</time>
        <extensions>
          <ns3:TrackPointExtension>
            <ns3:hr>135</ns3:hr>
            <ns3:cad>47</ns3:cad>
          </ns3:TrackPointExtension>
        </extensions>
      </trkpt>
      <trkpt lat="45.2543040923774242401123046875" lon="-71.1293380893766880035400390625">
        <ele>853.20001220703125</ele>
        <time>2026-08-22T02:14:46.000Z</time>
        <extensions>
          <ns3:TrackPointExtension>
            <ns3:hr>134</ns3:hr>
            <ns3:cad>47</ns3:cad>
          </ns3:TrackPointExtension>
        </extensions>
      </trkpt>
      <trkpt lat="45.25430249981582164764404296875" lon="-71.12934035249054431915283203125">
        <ele>853.20001220703125</ele>
        <time>2026-08-22T02:14:47.000Z</time>
        <extensions>
          <ns3:TrackPointExtension>
            <ns3:hr>133</ns3:hr>
            <ns3:cad>47</ns3:cad>
          </ns3:TrackPointExtension>
        </extensions>
      </trkpt>
      <trkpt lat="45.25429529137909412384033203125" lon="-71.12934152595698833465576171875">
        <ele>853.5999755859375</ele>
        <time>2026-08-22T02:14:48.000Z</time>
        <extensions>
          <ns3:TrackPointExtension>
            <ns3:hr>133</ns3:hr>
            <ns3:cad>47</ns3:cad>
          </ns3:TrackPointExtension>
        </extensions>
      </trkpt>
      <trkpt lat="45.25429076515138149261474609375" lon="-71.12934328615665435791015625">
        <ele>853.79998779296875</ele>
        <time>2026-08-22T02:14:49.000Z</time>
        <extensions>
          <ns3:TrackPointExtension>
            <ns3:hr>134</ns3:hr>
            <ns3:cad>0</ns3:cad>
          </ns3:TrackPointExtension>
        </extensions>
      </trkpt>
      <trkpt lat="45.25428523309528827667236328125" lon="-71.12934554927051067352294921875">
        <ele>854</ele>
        <time>2026-08-22T02:14:50.000Z</time>
        <extensions>
          <ns3:TrackPointExtension>
            <ns3:hr>134</ns3:hr>
            <ns3:cad>0</ns3:cad>
          </ns3:TrackPointExtension>
        </extensions>
      </trkpt>
      <trkpt lat="45.2542792819440364837646484375" lon="-71.12934588454663753509521484375">
        <ele>854.20001220703125</ele>
        <time>2026-08-22T02:14:51.000Z</time>
        <extensions>
          <ns3:TrackPointExtension>
            <ns3:hr>135</ns3:hr>
            <ns3:cad>0</ns3:cad>
          </ns3:TrackPointExtension>
        </extensions>
      </trkpt>
      <trkpt lat="45.2542702294886112213134765625" lon="-71.12934705801308155059814453125">
        <ele>854.4000244140625</ele>
        <time>2026-08-22T02:14:52.000Z</time>
        <extensions>
          <ns3:TrackPointExtension>
            <ns3:hr>134</ns3:hr>
            <ns3:cad>0</ns3:cad>
          </ns3:TrackPointExtension>
        </extensions>
      </trkpt>
      <trkpt lat="45.25425790809094905853271484375" lon="-71.1293493211269378662109375">
        <ele>854.5999755859375</ele>
        <time>2026-08-22T02:14:53.000Z</time>
        <extensions>
          <ns3:TrackPointExtension>
            <ns3:hr>134</ns3:hr>
            <ns3:cad>0</ns3:cad>
          </ns3:TrackPointExtension>
        </extensions>
      </trkpt>
      <trkpt lat="45.2542487718164920806884765625" lon="-71.12935292534530162811279296875">
        <ele>854.79998779296875</ele>
        <time>2026-08-22T02:14:54.000Z</time>
        <extensions>
          <ns3:TrackPointExtension>
            <ns3:hr>134</ns3:hr>
            <ns3:cad>0</ns3:cad>
          </ns3:TrackPointExtension>
        </extensions>
      </trkpt>
      <trkpt lat="45.25424583815038204193115234375" lon="-71.12935862503945827484130859375">
        <ele>855</ele>
        <time>2026-08-22T02:14:55.000Z</time>
        <extensions>
          <ns3:TrackPointExtension>
            <ns3:hr>134</ns3:hr>
            <ns3:cad>0</ns3:cad>
          </ns3:TrackPointExtension>
        </extensions>
      </trkpt>
      <trkpt lat="45.2542380429804325103759765625" lon="-71.12936935387551784515380859375">
        <ele>855</ele>
        <time>2026-08-22T02:14:56.000Z</time>
        <extensions>
          <ns3:TrackPointExtension>
            <ns3:hr>134</ns3:hr>
            <ns3:cad>0</ns3:cad>
          </ns3:TrackPointExtension>
        </extensions>
      </trkpt>
      <trkpt lat="45.25422857142984867095947265625" lon="-71.129377149045467376708984375">
        <ele>855.20001220703125</ele>
        <time>2026-08-22T02:14:57.000Z</time>
        <extensions>
          <ns3:TrackPointExtension>
            <ns3:hr>134</ns3:hr>
            <ns3:cad>0</ns3:cad>
          </ns3:TrackPointExtension>
        </extensions>
      </trkpt>
      <trkpt lat="45.25422488339245319366455078125" lon="-71.12938025034964084625244140625">
        <ele>855.20001220703125</ele>
        <time>2026-08-22T02:14:58.000Z</time>
        <extensions>
          <ns3:TrackPointExtension>
            <ns3:hr>134</ns3:hr>
            <ns3:cad>0</ns3:cad>
          </ns3:TrackPointExtension>
        </extensions>
      </trkpt>
      <trkpt lat="45.25421633385121822357177734375" lon="-71.12938888370990753173828125">
        <ele>855.4000244140625</ele>
        <time>2026-08-22T02:14:59.000Z</time>
        <extensions>
          <ns3:TrackPointExtension>
            <ns3:hr>134</ns3:hr>
            <ns3:cad>0</ns3:cad>
          </ns3:TrackPointExtension>
        </extensions>
      </trkpt>
      <trkpt lat="45.25421105325222015380859375" lon="-71.12939265556633472442626953125">
        <ele>855.4000244140625</ele>
        <time>2026-08-22T02:15:00.000Z</time>
        <extensions>
          <ns3:TrackPointExtension>
            <ns3:hr>135</ns3:hr>
            <ns3:cad>0</ns3:cad>
          </ns3:TrackPointExtension>
        </extensions>
      </trkpt>
      <trkpt lat="45.25420392863452434539794921875" lon="-71.1293964274227619171142578125">
        <ele>855.5999755859375</ele>
        <time>2026-08-22T02:15:01.000Z</time>
        <extensions>
          <ns3:TrackPointExtension>
            <ns3:hr>135</ns3:hr>
            <ns3:cad>0</ns3:cad>
          </ns3:TrackPointExtension>
        </extensions>
      </trkpt>
      <trkpt lat="45.2541971392929553985595703125" lon="-71.12939768470823764801025390625">
        <ele>855.79998779296875</ele>
        <time>2026-08-22T02:15:02.000Z</time>
        <extensions>
          <ns3:TrackPointExtension>
            <ns3:hr>136</ns3:hr>
            <ns3:cad>0</ns3:cad>
          </ns3:TrackPointExtension>
        </extensions>
      </trkpt>
      <trkpt lat="45.25418766774237155914306640625" lon="-71.1294014565646648406982421875">
        <ele>856</ele>
        <time>2026-08-22T02:15:03.000Z</time>
        <extensions>
          <ns3:TrackPointExtension>
            <ns3:hr>136</ns3:hr>
            <ns3:cad>0</ns3:cad>
          </ns3:TrackPointExtension>
        </extensions>
      </trkpt>
      <trkpt lat="45.2541776932775974273681640625" lon="-71.1294017918407917022705078125">
        <ele>856.20001220703125</ele>
        <time>2026-08-22T02:15:04.000Z</time>
        <extensions>
          <ns3:TrackPointExtension>
            <ns3:hr>136</ns3:hr>
            <ns3:cad>0</ns3:cad>
          </ns3:TrackPointExtension>
        </extensions>
      </trkpt>
      <trkpt lat="45.25417073629796504974365234375" lon="-71.12940254621207714080810546875">
        <ele>856.4000244140625</ele>
        <time>2026-08-22T02:15:05.000Z</time>
        <extensions>
          <ns3:TrackPointExtension>
            <ns3:hr>136</ns3:hr>
            <ns3:cad>0</ns3:cad>
          </ns3:TrackPointExtension>
        </extensions>
      </trkpt>
      <trkpt lat="45.2541626058518886566162109375" lon="-71.129406653344631195068359375">
        <ele>856.5999755859375</ele>
        <time>2026-08-22T02:15:06.000Z</time>
        <extensions>
          <ns3:TrackPointExtension>
            <ns3:hr>136</ns3:hr>
            <ns3:cad>0</ns3:cad>
          </ns3:TrackPointExtension>
        </extensions>
      </trkpt>
      <trkpt lat="45.2541545592248439788818359375" lon="-71.12940891645848751068115234375">
        <ele>856.79998779296875</ele>
        <time>2026-08-22T02:15:07.000Z</time>
        <extensions>
          <ns3:TrackPointExtension>
            <ns3:hr>136</ns3:hr>
            <ns3:cad>0</ns3:cad>
          </ns3:TrackPointExtension>
        </extensions>
      </trkpt>
      <trkpt lat="45.25414257310330867767333984375" lon="-71.12941394560039043426513671875">
        <ele>857</ele>
        <time>2026-08-22T02:15:08.000Z</time>
        <extensions>
          <ns3:TrackPointExtension>
            <ns3:hr>136</ns3:hr>
            <ns3:cad>0</ns3:cad>
          </ns3:TrackPointExtension>
        </extensions>
      </trkpt>
      <trkpt lat="45.25413687340915203094482421875" lon="-71.12941444851458072662353515625">
        <ele>857.20001220703125</ele>
        <time>2026-08-22T02:15:09.000Z</time>
        <extensions>
          <ns3:TrackPointExtension>
            <ns3:hr>136</ns3:hr>
            <ns3:cad>0</ns3:cad>
          </ns3:TrackPointExtension>
        </extensions>
      </trkpt>
      <trkpt lat="45.25412882678210735321044921875" lon="-71.12941646017134189605712890625">
        <ele>857.4000244140625</ele>
        <time>2026-08-22T02:15:10.000Z</time>
        <extensions>
          <ns3:TrackPointExtension>
            <ns3:hr>136</ns3:hr>
            <ns3:cad>0</ns3:cad>
          </ns3:TrackPointExtension>
        </extensions>
      </trkpt>
      <trkpt lat="45.2541193552315235137939453125" lon="-71.12941729836165904998779296875">
        <ele>857.5999755859375</ele>
        <time>2026-08-22T02:15:11.000Z</time>
        <extensions>
          <ns3:TrackPointExtension>
            <ns3:hr>136</ns3:hr>
            <ns3:cad>0</ns3:cad>
          </ns3:TrackPointExtension>
        </extensions>
      </trkpt>
      <trkpt lat="45.2541149966418743133544921875" lon="-71.12941964529454708099365234375">
        <ele>857.79998779296875</ele>
        <time>2026-08-22T02:15:12.000Z</time>
        <extensions>
          <ns3:TrackPointExtension>
            <ns3:hr>136</ns3:hr>
            <ns3:cad>0</ns3:cad>
          </ns3:TrackPointExtension>
        </extensions>
      </trkpt>
      <trkpt lat="45.25410368107259273529052734375" lon="-71.129427440464496612548828125">
        <ele>858</ele>
        <time>2026-08-22T02:15:13.000Z</time>
        <extensions>
          <ns3:TrackPointExtension>
            <ns3:hr>136</ns3:hr>
            <ns3:cad>0</ns3:cad>
          </ns3:TrackPointExtension>
        </extensions>
      </trkpt>
      <trkpt lat="45.25409982539713382720947265625" lon="-71.12943221814930438995361328125">
        <ele>858.20001220703125</ele>
        <time>2026-08-22T02:15:14.000Z</time>
        <extensions>
          <ns3:TrackPointExtension>
            <ns3:hr>136</ns3:hr>
            <ns3:cad>0</ns3:cad>
          </ns3:TrackPointExtension>
        </extensions>
      </trkpt>
      <trkpt lat="45.25409379042685031890869140625" lon="-71.129432804882526397705078125">
        <ele>858.4000244140625</ele>
        <time>2026-08-22T02:15:15.000Z</time>
        <extensions>
          <ns3:TrackPointExtension>
            <ns3:hr>136</ns3:hr>
            <ns3:cad>0</ns3:cad>
          </ns3:TrackPointExtension>
        </extensions>
      </trkpt>
      <trkpt lat="45.25408926419913768768310546875" lon="-71.1294373311102390289306640625">
        <ele>858.5999755859375</ele>
        <time>2026-08-22T02:15:16.000Z</time>
        <extensions>
          <ns3:TrackPointExtension>
            <ns3:hr>136</ns3:hr>
            <ns3:cad>0</ns3:cad>
          </ns3:TrackPointExtension>
        </extensions>
      </trkpt>
      <trkpt lat="45.25407803244888782501220703125" lon="-71.129443533718585968017578125">
        <ele>858.5999755859375</ele>
        <time>2026-08-22T02:15:17.000Z</time>
        <extensions>
          <ns3:TrackPointExtension>
            <ns3:hr>136</ns3:hr>
            <ns3:cad>0</ns3:cad>
          </ns3:TrackPointExtension>
        </extensions>
      </trkpt>
      <trkpt lat="45.2540697343647480010986328125" lon="-71.12944864667952060699462890625">
        <ele>858.79998779296875</ele>
        <time>2026-08-22T02:15:18.000Z</time>
        <extensions>
          <ns3:TrackPointExtension>
            <ns3:hr>137</ns3:hr>
            <ns3:cad>0</ns3:cad>
          </ns3:TrackPointExtension>
        </extensions>
      </trkpt>
      <trkpt lat="45.2540682256221771240234375" lon="-71.12945317290723323822021484375">
        <ele>858.79998779296875</ele>
        <time>2026-08-22T02:15:19.000Z</time>
        <extensions>
          <ns3:TrackPointExtension>
            <ns3:hr>137</ns3:hr>
            <ns3:cad>0</ns3:cad>
          </ns3:TrackPointExtension>
        </extensions>
      </trkpt>
      <trkpt lat="45.2540556527674198150634765625" lon="-71.129458285868167877197265625">
        <ele>859</ele>
        <time>2026-08-22T02:15:20.000Z</time>
        <extensions>
          <ns3:TrackPointExtension>
            <ns3:hr>136</ns3:hr>
            <ns3:cad>0</ns3:cad>
          </ns3:TrackPointExtension>
        </extensions>
      </trkpt>
      <trkpt lat="45.254042409360408782958984375" lon="-71.129461638629436492919921875">
        <ele>859</ele>
        <time>2026-08-22T02:15:21.000Z</time>
        <extensions>
          <ns3:TrackPointExtension>
            <ns3:hr>136</ns3:hr>
            <ns3:cad>0</ns3:cad>
          </ns3:TrackPointExtension>
        </extensions>
      </trkpt>
      <trkpt lat="45.2540395595133304595947265625" lon="-71.12946323119103908538818359375">
        <ele>859.20001220703125</ele>
        <time>2026-08-22T02:15:22.000Z</time>
        <extensions>
          <ns3:TrackPointExtension>
            <ns3:hr>137</ns3:hr>
            <ns3:cad>0</ns3:cad>
          </ns3:TrackPointExtension>
        </extensions>
      </trkpt>
      <trkpt lat="45.254034698009490966796875" lon="-71.129464320838451385498046875">
        <ele>859.4000244140625</ele>
        <time>2026-08-22T02:15:23.000Z</time>
        <extensions>
          <ns3:TrackPointExtension>
            <ns3:hr>137</ns3:hr>
            <ns3:cad>0</ns3:cad>
          </ns3:TrackPointExtension>
        </extensions>
      </trkpt>
      <trkpt lat="45.25402639992535114288330078125" lon="-71.1294654943048954010009765625">
        <ele>859.4000244140625</ele>
        <time>2026-08-22T02:15:24.000Z</time>
        <extensions>
          <ns3:TrackPointExtension>
            <ns3:hr>137</ns3:hr>
            <ns3:cad>0</ns3:cad>
          </ns3:TrackPointExtension>
        </extensions>
      </trkpt>
      <trkpt lat="45.25402388535439968109130859375" lon="-71.12946876324713230133056640625">
        <ele>859.5999755859375</ele>
        <time>2026-08-22T02:15:25.000Z</time>
        <extensions>
          <ns3:TrackPointExtension>
            <ns3:hr>137</ns3:hr>
            <ns3:cad>0</ns3:cad>
          </ns3:TrackPointExtension>
        </extensions>
      </trkpt>
      <trkpt lat="45.25401659309864044189453125" lon="-71.129471026360988616943359375">
        <ele>859.79998779296875</ele>
        <time>2026-08-22T02:15:26.000Z</time>
        <extensions>
          <ns3:TrackPointExtension>
            <ns3:hr>137</ns3:hr>
            <ns3:cad>0</ns3:cad>
          </ns3:TrackPointExtension>
        </extensions>
      </trkpt>
      <trkpt lat="45.25401265360414981842041015625" lon="-71.12947211600840091705322265625">
        <ele>860</ele>
        <time>2026-08-22T02:15:27.000Z</time>
        <extensions>
          <ns3:TrackPointExtension>
            <ns3:hr>136</ns3:hr>
            <ns3:cad>0</ns3:cad>
          </ns3:TrackPointExtension>
        </extensions>
      </trkpt>
      <trkpt lat="45.25400720536708831787109375" lon="-71.12947345711290836334228515625">
        <ele>860.20001220703125</ele>
        <time>2026-08-22T02:15:28.000Z</time>
        <extensions>
          <ns3:TrackPointExtension>
            <ns3:hr>136</ns3:hr>
            <ns3:cad>0</ns3:cad>
          </ns3:TrackPointExtension>
        </extensions>
      </trkpt>
      <trkpt lat="45.2540036849677562713623046875" lon="-71.129476390779018402099609375">
        <ele>860.4000244140625</ele>
        <time>2026-08-22T02:15:29.000Z</time>
        <extensions>
          <ns3:TrackPointExtension>
            <ns3:hr>136</ns3:hr>
            <ns3:cad>0</ns3:cad>
          </ns3:TrackPointExtension>
        </extensions>
      </trkpt>
      <trkpt lat="45.25399404577910900115966796875" lon="-71.129475720226764678955078125">
        <ele>860.5999755859375</ele>
        <time>2026-08-22T02:15:30.000Z</time>
        <extensions>
          <ns3:TrackPointExtension>
            <ns3:hr>136</ns3:hr>
            <ns3:cad>0</ns3:cad>
          </ns3:TrackPointExtension>
        </extensions>
      </trkpt>
      <trkpt lat="45.25398851372301578521728515625" lon="-71.12948100082576274871826171875">
        <ele>860.79998779296875</ele>
        <time>2026-08-22T02:15:31.000Z</time>
        <extensions>
          <ns3:TrackPointExtension>
            <ns3:hr>136</ns3:hr>
            <ns3:cad>0</ns3:cad>
          </ns3:TrackPointExtension>
        </extensions>
      </trkpt>
      <trkpt lat="45.2539797127246856689453125" lon="-71.1294812522828578948974609375">
        <ele>861</ele>
        <time>2026-08-22T02:15:32.000Z</time>
        <extensions>
          <ns3:TrackPointExtension>
            <ns3:hr>136</ns3:hr>
            <ns3:cad>0</ns3:cad>
          </ns3:TrackPointExtension>
        </extensions>
      </trkpt>
      <trkpt lat="45.2539728395640850067138671875" lon="-71.12948183901607990264892578125">
        <ele>861.20001220703125</ele>
        <time>2026-08-22T02:15:33.000Z</time>
        <extensions>
          <ns3:TrackPointExtension>
            <ns3:hr>137</ns3:hr>
            <ns3:cad>0</ns3:cad>
          </ns3:TrackPointExtension>
        </extensions>
      </trkpt>
      <trkpt lat="45.25396705605089664459228515625" lon="-71.12948544323444366455078125">
        <ele>861.4000244140625</ele>
        <time>2026-08-22T02:15:34.000Z</time>
        <extensions>
          <ns3:TrackPointExtension>
            <ns3:hr>136</ns3:hr>
            <ns3:cad>0</ns3:cad>
          </ns3:TrackPointExtension>
        </extensions>
      </trkpt>
      <trkpt lat="45.25395716540515422821044921875" lon="-71.12948971800506114959716796875">
        <ele>861.5999755859375</ele>
        <time>2026-08-22T02:15:35.000Z</time>
        <extensions>
          <ns3:TrackPointExtension>
            <ns3:hr>137</ns3:hr>
            <ns3:cad>0</ns3:cad>
          </ns3:TrackPointExtension>
        </extensions>
      </trkpt>
      <trkpt lat="45.25394693948328495025634765625" lon="-71.12949172966182231903076171875">
        <ele>861.79998779296875</ele>
        <time>2026-08-22T02:15:36.000Z</time>
        <extensions>
          <ns3:TrackPointExtension>
            <ns3:hr>137</ns3:hr>
            <ns3:cad>0</ns3:cad>
          </ns3:TrackPointExtension>
        </extensions>
      </trkpt>
      <trkpt lat="45.25393621064722537994384765625" lon="-71.1294953338801860809326171875">
        <ele>862</ele>
        <time>2026-08-22T02:15:37.000Z</time>
        <extensions>
          <ns3:TrackPointExtension>
            <ns3:hr>137</ns3:hr>
            <ns3:cad>0</ns3:cad>
          </ns3:TrackPointExtension>
        </extensions>
      </trkpt>
      <trkpt lat="45.2539292536675930023193359375" lon="-71.12950011156499385833740234375">
        <ele>862.4000244140625</ele>
        <time>2026-08-22T02:15:38.000Z</time>
        <extensions>
          <ns3:TrackPointExtension>
            <ns3:hr>137</ns3:hr>
            <ns3:cad>0</ns3:cad>
          </ns3:TrackPointExtension>
        </extensions>
      </trkpt>
      <trkpt lat="45.25392296724021434783935546875" lon="-71.12950413487851619720458984375">
        <ele>862.5999755859375</ele>
        <time>2026-08-22T02:15:39.000Z</time>
        <extensions>
          <ns3:TrackPointExtension>
            <ns3:hr>138</ns3:hr>
            <ns3:cad>40</ns3:cad>
          </ns3:TrackPointExtension>
        </extensions>
      </trkpt>
      <trkpt lat="45.25391827337443828582763671875" lon="-71.1295102536678314208984375">
        <ele>862.5999755859375</ele>
        <time>2026-08-22T02:15:40.000Z</time>
        <extensions>
          <ns3:TrackPointExtension>
            <ns3:hr>138</ns3:hr>
            <ns3:cad>40</ns3:cad>
          </ns3:TrackPointExtension>
        </extensions>
      </trkpt>
      <trkpt lat="45.2539128251373767852783203125" lon="-71.1295127682387828826904296875">
        <ele>862.79998779296875</ele>
        <time>2026-08-22T02:15:41.000Z</time>
        <extensions>
          <ns3:TrackPointExtension>
            <ns3:hr>138</ns3:hr>
            <ns3:cad>40</ns3:cad>
          </ns3:TrackPointExtension>
        </extensions>
      </trkpt>
      <trkpt lat="45.25390821509063243865966796875" lon="-71.1295161210000514984130859375">
        <ele>862.79998779296875</ele>
        <time>2026-08-22T02:15:42.000Z</time>
        <extensions>
          <ns3:TrackPointExtension>
            <ns3:hr>138</ns3:hr>
            <ns3:cad>41</ns3:cad>
          </ns3:TrackPointExtension>
        </extensions>
      </trkpt>
      <trkpt lat="45.253904946148395538330078125" lon="-71.12951486371457576751708984375">
        <ele>863</ele>
        <time>2026-08-22T02:15:43.000Z</time>
        <extensions>
          <ns3:TrackPointExtension>
            <ns3:hr>138</ns3:hr>
            <ns3:cad>41</ns3:cad>
          </ns3:TrackPointExtension>
        </extensions>
      </trkpt>
      <trkpt lat="45.2539067901670932769775390625" lon="-71.1295129358768463134765625">
        <ele>863.20001220703125</ele>
        <time>2026-08-22T02:15:44.000Z</time>
        <extensions>
          <ns3:TrackPointExtension>
            <ns3:hr>138</ns3:hr>
            <ns3:cad>0</ns3:cad>
          </ns3:TrackPointExtension>
        </extensions>
      </trkpt>
      <trkpt lat="45.253902263939380645751953125" lon="-71.1295075714588165283203125">
        <ele>863.4000244140625</ele>
        <time>2026-08-22T02:15:45.000Z</time>
        <extensions>
          <ns3:TrackPointExtension>
            <ns3:hr>138</ns3:hr>
            <ns3:cad>0</ns3:cad>
          </ns3:TrackPointExtension>
        </extensions>
      </trkpt>
      <trkpt lat="45.25389547459781169891357421875" lon="-71.12949885427951812744140625">
        <ele>863.79998779296875</ele>
        <time>2026-08-22T02:15:46.000Z</time>
        <extensions>
          <ns3:TrackPointExtension>
            <ns3:hr>138</ns3:hr>
            <ns3:cad>0</ns3:cad>
          </ns3:TrackPointExtension>
        </extensions>
      </trkpt>
      <trkpt lat="45.2538937143981456756591796875" lon="-71.12949541769921779632568359375">
        <ele>864</ele>
        <time>2026-08-22T02:15:47.000Z</time>
        <extensions>
          <ns3:TrackPointExtension>
            <ns3:hr>138</ns3:hr>
            <ns3:cad>0</ns3:cad>
          </ns3:TrackPointExtension>
        </extensions>
      </trkpt>
      <trkpt lat="45.25389027781784534454345703125" lon="-71.1294896341860294342041015625">
        <ele>864.4000244140625</ele>
        <time>2026-08-22T02:15:48.000Z</time>
        <extensions>
          <ns3:TrackPointExtension>
            <ns3:hr>138</ns3:hr>
            <ns3:cad>0</ns3:cad>
          </ns3:TrackPointExtension>
        </extensions>
      </trkpt>
      <trkpt lat="45.2538846619427204132080078125" lon="-71.129482090473175048828125">
        <ele>864.5999755859375</ele>
        <time>2026-08-22T02:15:49.000Z</time>
        <extensions>
          <ns3:TrackPointExtension>
            <ns3:hr>137</ns3:hr>
            <ns3:cad>0</ns3:cad>
          </ns3:TrackPointExtension>
        </extensions>
      </trkpt>
      <trkpt lat="45.25388156063854694366455078125" lon="-71.12947932444512844085693359375">
        <ele>864.79998779296875</ele>
        <time>2026-08-22T02:15:50.000Z</time>
        <extensions>
          <ns3:TrackPointExtension>
            <ns3:hr>138</ns3:hr>
            <ns3:cad>0</ns3:cad>
          </ns3:TrackPointExtension>
        </extensions>
      </trkpt>
      <trkpt lat="45.25387418456375598907470703125" lon="-71.12948007881641387939453125">
        <ele>865</ele>
        <time>2026-08-22T02:15:51.000Z</time>
        <extensions>
          <ns3:TrackPointExtension>
            <ns3:hr>138</ns3:hr>
            <ns3:cad>0</ns3:cad>
          </ns3:TrackPointExtension>
        </extensions>
      </trkpt>
      <trkpt lat="45.25386714376509189605712890625" lon="-71.12947496585547924041748046875">
        <ele>865.20001220703125</ele>
        <time>2026-08-22T02:15:52.000Z</time>
        <extensions>
          <ns3:TrackPointExtension>
            <ns3:hr>138</ns3:hr>
            <ns3:cad>0</ns3:cad>
          </ns3:TrackPointExtension>
        </extensions>
      </trkpt>
      <trkpt lat="45.25386295281350612640380859375" lon="-71.129475049674510955810546875">
        <ele>865.4000244140625</ele>
        <time>2026-08-22T02:15:53.000Z</time>
        <extensions>
          <ns3:TrackPointExtension>
            <ns3:hr>138</ns3:hr>
            <ns3:cad>0</ns3:cad>
          </ns3:TrackPointExtension>
        </extensions>
      </trkpt>
      <trkpt lat="45.25385105051100254058837890625" lon="-71.12947882153093814849853515625">
        <ele>865.5999755859375</ele>
        <time>2026-08-22T02:15:54.000Z</time>
        <extensions>
          <ns3:TrackPointExtension>
            <ns3:hr>138</ns3:hr>
            <ns3:cad>0</ns3:cad>
          </ns3:TrackPointExtension>
        </extensions>
      </trkpt>
      <trkpt lat="45.25383286178112030029296875" lon="-71.129479743540287017822265625">
        <ele>865.79998779296875</ele>
        <time>2026-08-22T02:15:55.000Z</time>
        <extensions>
          <ns3:TrackPointExtension>
            <ns3:hr>138</ns3:hr>
            <ns3:cad>0</ns3:cad>
          </ns3:TrackPointExtension>
        </extensions>
      </trkpt>
      <trkpt lat="45.2538273297250270843505859375" lon="-71.12948116846382617950439453125">
        <ele>866</ele>
        <time>2026-08-22T02:15:56.000Z</time>
        <extensions>
          <ns3:TrackPointExtension>
            <ns3:hr>138</ns3:hr>
            <ns3:cad>0</ns3:cad>
          </ns3:TrackPointExtension>
        </extensions>
      </trkpt>
      <trkpt lat="45.25381500832736492156982421875" lon="-71.129483766853809356689453125">
        <ele>866</ele>
        <time>2026-08-22T02:15:57.000Z</time>
        <extensions>
          <ns3:TrackPointExtension>
            <ns3:hr>138</ns3:hr>
            <ns3:cad>0</ns3:cad>
          </ns3:TrackPointExtension>
        </extensions>
      </trkpt>
      <trkpt lat="45.25380612351000308990478515625" lon="-71.12948804162442684173583984375">
        <ele>866.20001220703125</ele>
        <time>2026-08-22T02:15:58.000Z</time>
        <extensions>
          <ns3:TrackPointExtension>
            <ns3:hr>138</ns3:hr>
            <ns3:cad>0</ns3:cad>
          </ns3:TrackPointExtension>
        </extensions>
      </trkpt>
      <trkpt lat="45.253792293369770050048828125" lon="-71.12949323840439319610595703125">
        <ele>866.20001220703125</ele>
        <time>2026-08-22T02:15:59.000Z</time>
        <extensions>
          <ns3:TrackPointExtension>
            <ns3:hr>138</ns3:hr>
            <ns3:cad>46</ns3:cad>
          </ns3:TrackPointExtension>
        </extensions>
      </trkpt>
      <trkpt lat="45.25378131307661533355712890625" lon="-71.1294943280518054962158203125">
        <ele>866.4000244140625</ele>
        <time>2026-08-22T02:16:00.000Z</time>
        <extensions>
          <ns3:TrackPointExtension>
            <ns3:hr>138</ns3:hr>
            <ns3:cad>46</ns3:cad>
          </ns3:TrackPointExtension>
        </extensions>
      </trkpt>
      <trkpt lat="45.25377242825925350189208984375" lon="-71.1294973455369472503662109375">
        <ele>866.5999755859375</ele>
        <time>2026-08-22T02:16:01.000Z</time>
        <extensions>
          <ns3:TrackPointExtension>
            <ns3:hr>138</ns3:hr>
            <ns3:cad>0</ns3:cad>
          </ns3:TrackPointExtension>
        </extensions>
      </trkpt>
      <trkpt lat="45.253762789070606231689453125" lon="-71.12950019538402557373046875">
        <ele>866.5999755859375</ele>
        <time>2026-08-22T02:16:02.000Z</time>
        <extensions>
          <ns3:TrackPointExtension>
            <ns3:hr>138</ns3:hr>
            <ns3:cad>0</ns3:cad>
          </ns3:TrackPointExtension>
        </extensions>
      </trkpt>
      <trkpt lat="45.253750719130039215087890625" lon="-71.12950245849788188934326171875">
        <ele>866.79998779296875</ele>
        <time>2026-08-22T02:16:03.000Z</time>
        <extensions>
          <ns3:TrackPointExtension>
            <ns3:hr>139</ns3:hr>
            <ns3:cad>0</ns3:cad>
          </ns3:TrackPointExtension>
        </extensions>
      </trkpt>
      <trkpt lat="45.2537381462752819061279296875" lon="-71.1295070685446262359619140625">
        <ele>867</ele>
        <time>2026-08-22T02:16:04.000Z</time>
        <extensions>
          <ns3:TrackPointExtension>
            <ns3:hr>140</ns3:hr>
            <ns3:cad>0</ns3:cad>
          </ns3:TrackPointExtension>
        </extensions>
      </trkpt>
      <trkpt lat="45.2537250705063343048095703125" lon="-71.12951452843844890594482421875">
        <ele>867.20001220703125</ele>
        <time>2026-08-22T02:16:05.000Z</time>
        <extensions>
          <ns3:TrackPointExtension>
            <ns3:hr>140</ns3:hr>
            <ns3:cad>0</ns3:cad>
          </ns3:TrackPointExtension>
        </extensions>
      </trkpt>
      <trkpt lat="45.2537150122225284576416015625" lon="-71.12951838411390781402587890625">
        <ele>867.4000244140625</ele>
        <time>2026-08-22T02:16:06.000Z</time>
        <extensions>
          <ns3:TrackPointExtension>
            <ns3:hr>141</ns3:hr>
            <ns3:cad>0</ns3:cad>
          </ns3:TrackPointExtension>
        </extensions>
      </trkpt>
      <trkpt lat="45.2537069655954837799072265625" lon="-71.12952207215130329132080078125">
        <ele>867.4000244140625</ele>
        <time>2026-08-22T02:16:07.000Z</time>
        <extensions>
          <ns3:TrackPointExtension>
            <ns3:hr>141</ns3:hr>
            <ns3:cad>0</ns3:cad>
          </ns3:TrackPointExtension>
        </extensions>
      </trkpt>
      <trkpt lat="45.253698416054248809814453125" lon="-71.12952743656933307647705078125">
        <ele>867.5999755859375</ele>
        <time>2026-08-22T02:16:08.000Z</time>
        <extensions>
          <ns3:TrackPointExtension>
            <ns3:hr>141</ns3:hr>
            <ns3:cad>0</ns3:cad>
          </ns3:TrackPointExtension>
        </extensions>
      </trkpt>
      <trkpt lat="45.25369129143655300140380859375" lon="-71.12953481264412403106689453125">
        <ele>867.5999755859375</ele>
        <time>2026-08-22T02:16:09.000Z</time>
        <extensions>
          <ns3:TrackPointExtension>
            <ns3:hr>141</ns3:hr>
            <ns3:cad>0</ns3:cad>
          </ns3:TrackPointExtension>
        </extensions>
      </trkpt>
      <trkpt lat="45.2536793053150177001953125" lon="-71.12954151816666126251220703125">
        <ele>867.79998779296875</ele>
        <time>2026-08-22T02:16:10.000Z</time>
        <extensions>
          <ns3:TrackPointExtension>
            <ns3:hr>141</ns3:hr>
            <ns3:cad>0</ns3:cad>
          </ns3:TrackPointExtension>
        </extensions>
      </trkpt>
      <trkpt lat="45.2536724321544170379638671875" lon="-71.12954487092792987823486328125">
        <ele>867.79998779296875</ele>
        <time>2026-08-22T02:16:11.000Z</time>
        <extensions>
          <ns3:TrackPointExtension>
            <ns3:hr>140</ns3:hr>
            <ns3:cad>47</ns3:cad>
          </ns3:TrackPointExtension>
        </extensions>
      </trkpt>
      <trkpt lat="45.25366312824189662933349609375" lon="-71.12954973243176937103271484375">
        <ele>868</ele>
        <time>2026-08-22T02:16:12.000Z</time>
        <extensions>
          <ns3:TrackPointExtension>
            <ns3:hr>140</ns3:hr>
            <ns3:cad>47</ns3:cad>
          </ns3:TrackPointExtension>
        </extensions>
      </trkpt>
      <trkpt lat="45.2536492981016635894775390625" lon="-71.1295563541352748870849609375">
        <ele>868.20001220703125</ele>
        <time>2026-08-22T02:16:13.000Z</time>
        <extensions>
          <ns3:TrackPointExtension>
            <ns3:hr>140</ns3:hr>
            <ns3:cad>47</ns3:cad>
          </ns3:TrackPointExtension>
        </extensions>
      </trkpt>
      <trkpt lat="45.25364150293171405792236328125" lon="-71.12956180237233638763427734375">
        <ele>868.4000244140625</ele>
        <time>2026-08-22T02:16:14.000Z</time>
        <extensions>
          <ns3:TrackPointExtension>
            <ns3:hr>140</ns3:hr>
            <ns3:cad>47</ns3:cad>
          </ns3:TrackPointExtension>
        </extensions>
      </trkpt>
      <trkpt lat="45.2536337077617645263671875" lon="-71.1295690946280956268310546875">
        <ele>868.4000244140625</ele>
        <time>2026-08-22T02:16:15.000Z</time>
        <extensions>
          <ns3:TrackPointExtension>
            <ns3:hr>140</ns3:hr>
            <ns3:cad>47</ns3:cad>
          </ns3:TrackPointExtension>
        </extensions>
      </trkpt>
      <trkpt lat="45.2536254934966564178466796875" lon="-71.1295734532177448272705078125">
        <ele>868.5999755859375</ele>
        <time>2026-08-22T02:16:16.000Z</time>
        <extensions>
          <ns3:TrackPointExtension>
            <ns3:hr>141</ns3:hr>
            <ns3:cad>0</ns3:cad>
          </ns3:TrackPointExtension>
        </extensions>
      </trkpt>
      <trkpt lat="45.2536184526979923248291015625" lon="-71.12957588396966457366943359375">
        <ele>868.79998779296875</ele>
        <time>2026-08-22T02:16:17.000Z</time>
        <extensions>
          <ns3:TrackPointExtension>
            <ns3:hr>140</ns3:hr>
            <ns3:cad>0</ns3:cad>
          </ns3:TrackPointExtension>
        </extensions>
      </trkpt>
      <trkpt lat="45.25361518375575542449951171875" lon="-71.1295746266841888427734375">
        <ele>868.79998779296875</ele>
        <time>2026-08-22T02:16:18.000Z</time>
        <extensions>
          <ns3:TrackPointExtension>
            <ns3:hr>140</ns3:hr>
            <ns3:cad>0</ns3:cad>
          </ns3:TrackPointExtension>
        </extensions>
      </trkpt>
      <trkpt lat="45.25361132808029651641845703125" lon="-71.12957529723644256591796875">
        <ele>869</ele>
        <time>2026-08-22T02:16:19.000Z</time>
        <extensions>
          <ns3:TrackPointExtension>
            <ns3:hr>140</ns3:hr>
            <ns3:cad>0</ns3:cad>
          </ns3:TrackPointExtension>
        </extensions>
      </trkpt>
      <trkpt lat="45.25360764004290103912353515625" lon="-71.12957856617867946624755859375">
        <ele>869</ele>
        <time>2026-08-22T02:16:20.000Z</time>
        <extensions>
          <ns3:TrackPointExtension>
            <ns3:hr>140</ns3:hr>
            <ns3:cad>0</ns3:cad>
          </ns3:TrackPointExtension>
        </extensions>
      </trkpt>
      <trkpt lat="45.25359841994941234588623046875" lon="-71.129580996930599212646484375">
        <ele>869.20001220703125</ele>
        <time>2026-08-22T02:16:21.000Z</time>
        <extensions>
          <ns3:TrackPointExtension>
            <ns3:hr>140</ns3:hr>
            <ns3:cad>0</ns3:cad>
          </ns3:TrackPointExtension>
        </extensions>
      </trkpt>
      <trkpt lat="45.2535961568355560302734375" lon="-71.12958225421607494354248046875">
        <ele>869.5999755859375</ele>
        <time>2026-08-22T02:16:22.000Z</time>
        <extensions>
          <ns3:TrackPointExtension>
            <ns3:hr>140</ns3:hr>
            <ns3:cad>0</ns3:cad>
          </ns3:TrackPointExtension>
        </extensions>
      </trkpt>
      <trkpt lat="45.25358987040817737579345703125" lon="-71.12958309240639209747314453125">
        <ele>869.79998779296875</ele>
        <time>2026-08-22T02:16:23.000Z</time>
        <extensions>
          <ns3:TrackPointExtension>
            <ns3:hr>140</ns3:hr>
            <ns3:cad>0</ns3:cad>
          </ns3:TrackPointExtension>
        </extensions>
      </trkpt>
      <trkpt lat="45.25358333252370357513427734375" lon="-71.12958610989153385162353515625">
        <ele>870</ele>
        <time>2026-08-22T02:16:24.000Z</time>
        <extensions>
          <ns3:TrackPointExtension>
            <ns3:hr>139</ns3:hr>
            <ns3:cad>0</ns3:cad>
          </ns3:TrackPointExtension>
        </extensions>
      </trkpt>
      <trkpt lat="45.25357796810567378997802734375" lon="-71.12958979792892932891845703125">
        <ele>870.20001220703125</ele>
        <time>2026-08-22T02:16:25.000Z</time>
        <extensions>
          <ns3:TrackPointExtension>
            <ns3:hr>138</ns3:hr>
            <ns3:cad>0</ns3:cad>
          </ns3:TrackPointExtension>
        </extensions>
      </trkpt>
      <trkpt lat="45.2535745315253734588623046875" lon="-71.1295925639569759368896484375">
        <ele>870.4000244140625</ele>
        <time>2026-08-22T02:16:26.000Z</time>
        <extensions>
          <ns3:TrackPointExtension>
            <ns3:hr>138</ns3:hr>
            <ns3:cad>0</ns3:cad>
          </ns3:TrackPointExtension>
        </extensions>
      </trkpt>
      <trkpt lat="45.25356489233672618865966796875" lon="-71.12960102967917919158935546875">
        <ele>870.4000244140625</ele>
        <time>2026-08-22T02:16:27.000Z</time>
        <extensions>
          <ns3:TrackPointExtension>
            <ns3:hr>137</ns3:hr>
            <ns3:cad>0</ns3:cad>
          </ns3:TrackPointExtension>
        </extensions>
      </trkpt>
      <trkpt lat="45.25355801917612552642822265625" lon="-71.1296068131923675537109375">
        <ele>870.5999755859375</ele>
        <time>2026-08-22T02:16:28.000Z</time>
        <extensions>
          <ns3:TrackPointExtension>
            <ns3:hr>137</ns3:hr>
            <ns3:cad>0</ns3:cad>
          </ns3:TrackPointExtension>
        </extensions>
      </trkpt>
      <trkpt lat="45.25355030782520771026611328125" lon="-71.12961175851523876190185546875">
        <ele>870.5999755859375</ele>
        <time>2026-08-22T02:16:29.000Z</time>
        <extensions>
          <ns3:TrackPointExtension>
            <ns3:hr>137</ns3:hr>
            <ns3:cad>0</ns3:cad>
          </ns3:TrackPointExtension>
        </extensions>
      </trkpt>
      <trkpt lat="45.253538824617862701416015625" lon="-71.12961578182876110076904296875">
        <ele>870.5999755859375</ele>
        <time>2026-08-22T02:16:30.000Z</time>
        <extensions>
          <ns3:TrackPointExtension>
            <ns3:hr>137</ns3:hr>
            <ns3:cad>0</ns3:cad>
          </ns3:TrackPointExtension>
        </extensions>
      </trkpt>
      <trkpt lat="45.25352885015308856964111328125" lon="-71.12961779348552227020263671875">
        <ele>870.5999755859375</ele>
        <time>2026-08-22T02:16:31.000Z</time>
        <extensions>
          <ns3:TrackPointExtension>
            <ns3:hr>137</ns3:hr>
            <ns3:cad>0</ns3:cad>
          </ns3:TrackPointExtension>
        </extensions>
      </trkpt>
      <trkpt lat="45.25352247990667819976806640625" lon="-71.129620559513568878173828125">
        <ele>870.79998779296875</ele>
        <time>2026-08-22T02:16:32.000Z</time>
        <extensions>
          <ns3:TrackPointExtension>
            <ns3:hr>136</ns3:hr>
            <ns3:cad>52</ns3:cad>
          </ns3:TrackPointExtension>
        </extensions>
      </trkpt>
      <trkpt lat="45.25351895950734615325927734375" lon="-71.12962584011256694793701171875">
        <ele>871</ele>
        <time>2026-08-22T02:16:33.000Z</time>
        <extensions>
          <ns3:TrackPointExtension>
            <ns3:hr>136</ns3:hr>
            <ns3:cad>52</ns3:cad>
          </ns3:TrackPointExtension>
        </extensions>
      </trkpt>
      <trkpt lat="45.25350705720484256744384765625" lon="-71.129635982215404510498046875">
        <ele>871.20001220703125</ele>
        <time>2026-08-22T02:16:34.000Z</time>
        <extensions>
          <ns3:TrackPointExtension>
            <ns3:hr>136</ns3:hr>
            <ns3:cad>52</ns3:cad>
          </ns3:TrackPointExtension>
        </extensions>
      </trkpt>
      <trkpt lat="45.2534964121878147125244140625" lon="-71.129638664424419403076171875">
        <ele>871.4000244140625</ele>
        <time>2026-08-22T02:16:35.000Z</time>
        <extensions>
          <ns3:TrackPointExtension>
            <ns3:hr>136</ns3:hr>
            <ns3:cad>50</ns3:cad>
          </ns3:TrackPointExtension>
        </extensions>
      </trkpt>
      <trkpt lat="45.25349146686494350433349609375" lon="-71.1296403408050537109375">
        <ele>871.5999755859375</ele>
        <time>2026-08-22T02:16:36.000Z</time>
        <extensions>
          <ns3:TrackPointExtension>
            <ns3:hr>135</ns3:hr>
            <ns3:cad>50</ns3:cad>
          </ns3:TrackPointExtension>
        </extensions>
      </trkpt>
      <trkpt lat="45.25348627008497714996337890625" lon="-71.12964075990021228790283203125">
        <ele>871.5999755859375</ele>
        <time>2026-08-22T02:16:37.000Z</time>
        <extensions>
          <ns3:TrackPointExtension>
            <ns3:hr>135</ns3:hr>
            <ns3:cad>47</ns3:cad>
          </ns3:TrackPointExtension>
        </extensions>
      </trkpt>
      <trkpt lat="45.2534783072769641876220703125" lon="-71.12964226864278316497802734375">
        <ele>871.79998779296875</ele>
        <time>2026-08-22T02:16:38.000Z</time>
        <extensions>
          <ns3:TrackPointExtension>
            <ns3:hr>135</ns3:hr>
            <ns3:cad>47</ns3:cad>
          </ns3:TrackPointExtension>
        </extensions>
      </trkpt>
      <trkpt lat="45.25347185321152210235595703125" lon="-71.12964495085179805755615234375">
        <ele>872</ele>
        <time>2026-08-22T02:16:39.000Z</time>
        <extensions>
          <ns3:TrackPointExtension>
            <ns3:hr>135</ns3:hr>
            <ns3:cad>47</ns3:cad>
          </ns3:TrackPointExtension>
        </extensions>
      </trkpt>
      <trkpt lat="45.253464393317699432373046875" lon="-71.1296525783836841583251953125">
        <ele>872</ele>
        <time>2026-08-22T02:16:40.000Z</time>
        <extensions>
          <ns3:TrackPointExtension>
            <ns3:hr>135</ns3:hr>
            <ns3:cad>47</ns3:cad>
          </ns3:TrackPointExtension>
        </extensions>
      </trkpt>
      <trkpt lat="45.25345408357679843902587890625" lon="-71.12966054119169712066650390625">
        <ele>872.20001220703125</ele>
        <time>2026-08-22T02:16:41.000Z</time>
        <extensions>
          <ns3:TrackPointExtension>
            <ns3:hr>135</ns3:hr>
            <ns3:cad>0</ns3:cad>
          </ns3:TrackPointExtension>
        </extensions>
      </trkpt>
      <trkpt lat="45.25344721041619777679443359375" lon="-71.12966875545680522918701171875">
        <ele>872.20001220703125</ele>
        <time>2026-08-22T02:16:42.000Z</time>
        <extensions>
          <ns3:TrackPointExtension>
            <ns3:hr>135</ns3:hr>
            <ns3:cad>0</ns3:cad>
          </ns3:TrackPointExtension>
        </extensions>
      </trkpt>
      <trkpt lat="45.253441594541072845458984375" lon="-71.1296820826828479766845703125">
        <ele>872.20001220703125</ele>
        <time>2026-08-22T02:16:43.000Z</time>
        <extensions>
          <ns3:TrackPointExtension>
            <ns3:hr>135</ns3:hr>
            <ns3:cad>0</ns3:cad>
          </ns3:TrackPointExtension>
        </extensions>
      </trkpt>
      <trkpt lat="45.253431536257266998291015625" lon="-71.1296884529292583465576171875">
        <ele>872.20001220703125</ele>
        <time>2026-08-22T02:16:44.000Z</time>
        <extensions>
          <ns3:TrackPointExtension>
            <ns3:hr>136</ns3:hr>
            <ns3:cad>0</ns3:cad>
          </ns3:TrackPointExtension>
        </extensions>
      </trkpt>
      <trkpt lat="45.25342307053506374359130859375" lon="-71.12969406880438327789306640625">
        <ele>872.4000244140625</ele>
        <time>2026-08-22T02:16:45.000Z</time>
        <extensions>
          <ns3:TrackPointExtension>
            <ns3:hr>136</ns3:hr>
            <ns3:cad>0</ns3:cad>
          </ns3:TrackPointExtension>
        </extensions>
      </trkpt>
      <trkpt lat="45.253417454659938812255859375" lon="-71.12969725392758846282958984375">
        <ele>872.4000244140625</ele>
        <time>2026-08-22T02:16:46.000Z</time>
        <extensions>
          <ns3:TrackPointExtension>
            <ns3:hr>136</ns3:hr>
            <ns3:cad>0</ns3:cad>
          </ns3:TrackPointExtension>
        </extensions>
      </trkpt>
      <trkpt lat="45.25340613909065723419189453125" lon="-71.12970764748752117156982421875">
        <ele>872.5999755859375</ele>
        <time>2026-08-22T02:16:47.000Z</time>
        <extensions>
          <ns3:TrackPointExtension>
            <ns3:hr>136</ns3:hr>
            <ns3:cad>0</ns3:cad>
          </ns3:TrackPointExtension>
        </extensions>
      </trkpt>
      <trkpt lat="45.2534003555774688720703125" lon="-71.1297166161239147186279296875">
        <ele>872.79998779296875</ele>
        <time>2026-08-22T02:16:48.000Z</time>
        <extensions>
          <ns3:TrackPointExtension>
            <ns3:hr>137</ns3:hr>
            <ns3:cad>0</ns3:cad>
          </ns3:TrackPointExtension>
        </extensions>
      </trkpt>
      <trkpt lat="45.25339826010167598724365234375" lon="-71.12972541712224483489990234375">
        <ele>873</ele>
        <time>2026-08-22T02:16:49.000Z</time>
        <extensions>
          <ns3:TrackPointExtension>
            <ns3:hr>136</ns3:hr>
            <ns3:cad>0</ns3:cad>
          </ns3:TrackPointExtension>
        </extensions>
      </trkpt>
      <trkpt lat="45.2533948235213756561279296875" lon="-71.12973983399569988250732421875">
        <ele>873</ele>
        <time>2026-08-22T02:16:50.000Z</time>
        <extensions>
          <ns3:TrackPointExtension>
            <ns3:hr>136</ns3:hr>
            <ns3:cad>0</ns3:cad>
          </ns3:TrackPointExtension>
        </extensions>
      </trkpt>
      <trkpt lat="45.2533887885510921478271484375" lon="-71.12975978292524814605712890625">
        <ele>873</ele>
        <time>2026-08-22T02:16:51.000Z</time>
        <extensions>
          <ns3:TrackPointExtension>
            <ns3:hr>136</ns3:hr>
            <ns3:cad>0</ns3:cad>
          </ns3:TrackPointExtension>
        </extensions>
      </trkpt>
      <trkpt lat="45.253382585942745208740234375" lon="-71.1297731101512908935546875">
        <ele>873</ele>
        <time>2026-08-22T02:16:52.000Z</time>
        <extensions>
          <ns3:TrackPointExtension>
            <ns3:hr>136</ns3:hr>
            <ns3:cad>0</ns3:cad>
          </ns3:TrackPointExtension>
        </extensions>
      </trkpt>
      <trkpt lat="45.25337680242955684661865234375" lon="-71.1297865211963653564453125">
        <ele>872.79998779296875</ele>
        <time>2026-08-22T02:16:53.000Z</time>
        <extensions>
          <ns3:TrackPointExtension>
            <ns3:hr>135</ns3:hr>
            <ns3:cad>0</ns3:cad>
          </ns3:TrackPointExtension>
        </extensions>
      </trkpt>
      <trkpt lat="45.2533706836402416229248046875" lon="-71.1297980882227420806884765625">
        <ele>872.79998779296875</ele>
        <time>2026-08-22T02:16:54.000Z</time>
        <extensions>
          <ns3:TrackPointExtension>
            <ns3:hr>135</ns3:hr>
            <ns3:cad>43</ns3:cad>
          </ns3:TrackPointExtension>
        </extensions>
      </trkpt>
      <trkpt lat="45.25336473248898983001708984375" lon="-71.129803620278835296630859375">
        <ele>872.79998779296875</ele>
        <time>2026-08-22T02:16:55.000Z</time>
        <extensions>
          <ns3:TrackPointExtension>
            <ns3:hr>135</ns3:hr>
            <ns3:cad>43</ns3:cad>
          </ns3:TrackPointExtension>
        </extensions>
      </trkpt>
      <trkpt lat="45.2533586136996746063232421875" lon="-71.1297972500324249267578125">
        <ele>873</ele>
        <time>2026-08-22T02:16:56.000Z</time>
        <extensions>
          <ns3:TrackPointExtension>
            <ns3:hr>136</ns3:hr>
            <ns3:cad>43</ns3:cad>
          </ns3:TrackPointExtension>
        </extensions>
      </trkpt>
      <trkpt lat="45.25335366837680339813232421875" lon="-71.12979632802307605743408203125">
        <ele>873.20001220703125</ele>
        <time>2026-08-22T02:16:57.000Z</time>
        <extensions>
          <ns3:TrackPointExtension>
            <ns3:hr>136</ns3:hr>
            <ns3:cad>43</ns3:cad>
          </ns3:TrackPointExtension>
        </extensions>
      </trkpt>
      <trkpt lat="45.25334428064525127410888671875" lon="-71.12979792058467864990234375">
        <ele>873.4000244140625</ele>
        <time>2026-08-22T02:16:58.000Z</time>
        <extensions>
          <ns3:TrackPointExtension>
            <ns3:hr>136</ns3:hr>
            <ns3:cad>43</ns3:cad>
          </ns3:TrackPointExtension>
        </extensions>
      </trkpt>
      <trkpt lat="45.2533400058746337890625" lon="-71.12980085425078868865966796875">
        <ele>873.5999755859375</ele>
        <time>2026-08-22T02:16:59.000Z</time>
        <extensions>
          <ns3:TrackPointExtension>
            <ns3:hr>135</ns3:hr>
            <ns3:cad>43</ns3:cad>
          </ns3:TrackPointExtension>
        </extensions>
      </trkpt>
      <trkpt lat="45.2533395029604434967041015625" lon="-71.1298017762601375579833984375">
        <ele>873.79998779296875</ele>
        <time>2026-08-22T02:17:00.000Z</time>
        <extensions>
          <ns3:TrackPointExtension>
            <ns3:hr>135</ns3:hr>
            <ns3:cad>43</ns3:cad>
          </ns3:TrackPointExtension>
        </extensions>
      </trkpt>
      <trkpt lat="45.253334976732730865478515625" lon="-71.1298011057078838348388671875">
        <ele>874</ele>
        <time>2026-08-22T02:17:01.000Z</time>
        <extensions>
          <ns3:TrackPointExtension>
            <ns3:hr>134</ns3:hr>
            <ns3:cad>0</ns3:cad>
          </ns3:TrackPointExtension>
        </extensions>
      </trkpt>
      <trkpt lat="45.253332294523715972900390625" lon="-71.12980085425078868865966796875">
        <ele>874.4000244140625</ele>
        <time>2026-08-22T02:17:02.000Z</time>
        <extensions>
          <ns3:TrackPointExtension>
            <ns3:hr>134</ns3:hr>
            <ns3:cad>0</ns3:cad>
          </ns3:TrackPointExtension>
        </extensions>
      </trkpt>
      <trkpt lat="45.25332433171570301055908203125" lon="-71.12980554811656475067138671875">
        <ele>874.5999755859375</ele>
        <time>2026-08-22T02:17:03.000Z</time>
        <extensions>
          <ns3:TrackPointExtension>
            <ns3:hr>134</ns3:hr>
            <ns3:cad>58</ns3:cad>
          </ns3:TrackPointExtension>
        </extensions>
      </trkpt>
      <trkpt lat="45.2533183805644512176513671875" lon="-71.129808984696865081787109375">
        <ele>874.79998779296875</ele>
        <time>2026-08-22T02:17:04.000Z</time>
        <extensions>
          <ns3:TrackPointExtension>
            <ns3:hr>134</ns3:hr>
            <ns3:cad>58</ns3:cad>
          </ns3:TrackPointExtension>
        </extensions>
      </trkpt>
      <trkpt lat="45.25331175886094570159912109375" lon="-71.12981074489653110504150390625">
        <ele>875</ele>
        <time>2026-08-22T02:17:05.000Z</time>
        <extensions>
          <ns3:TrackPointExtension>
            <ns3:hr>134</ns3:hr>
            <ns3:cad>58</ns3:cad>
          </ns3:TrackPointExtension>
        </extensions>
      </trkpt>
      <trkpt lat="45.25330522097647190093994140625" lon="-71.12981258891522884368896484375">
        <ele>875</ele>
        <time>2026-08-22T02:17:06.000Z</time>
        <extensions>
          <ns3:TrackPointExtension>
            <ns3:hr>134</ns3:hr>
            <ns3:cad>0</ns3:cad>
          </ns3:TrackPointExtension>
        </extensions>
      </trkpt>
      <trkpt lat="45.2532989345490932464599609375" lon="-71.12981275655329227447509765625">
        <ele>875.20001220703125</ele>
        <time>2026-08-22T02:17:07.000Z</time>
        <extensions>
          <ns3:TrackPointExtension>
            <ns3:hr>134</ns3:hr>
            <ns3:cad>0</ns3:cad>
          </ns3:TrackPointExtension>
        </extensions>
      </trkpt>
      <trkpt lat="45.25329281575977802276611328125" lon="-71.12981292419135570526123046875">
        <ele>875.4000244140625</ele>
        <time>2026-08-22T02:17:08.000Z</time>
        <extensions>
          <ns3:TrackPointExtension>
            <ns3:hr>134</ns3:hr>
            <ns3:cad>0</ns3:cad>
          </ns3:TrackPointExtension>
        </extensions>
      </trkpt>
      <trkpt lat="45.2532871998846530914306640625" lon="-71.12981359474360942840576171875">
        <ele>875.5999755859375</ele>
        <time>2026-08-22T02:17:09.000Z</time>
        <extensions>
          <ns3:TrackPointExtension>
            <ns3:hr>134</ns3:hr>
            <ns3:cad>0</ns3:cad>
          </ns3:TrackPointExtension>
        </extensions>
      </trkpt>
      <trkpt lat="45.25328108109533786773681640625" lon="-71.12981208600103855133056640625">
        <ele>875.79998779296875</ele>
        <time>2026-08-22T02:17:10.000Z</time>
        <extensions>
          <ns3:TrackPointExtension>
            <ns3:hr>134</ns3:hr>
            <ns3:cad>0</ns3:cad>
          </ns3:TrackPointExtension>
        </extensions>
      </trkpt>
      <trkpt lat="45.25327638722956180572509765625" lon="-71.12980873323976993560791015625">
        <ele>876</ele>
        <time>2026-08-22T02:17:11.000Z</time>
        <extensions>
          <ns3:TrackPointExtension>
            <ns3:hr>134</ns3:hr>
            <ns3:cad>0</ns3:cad>
          </ns3:TrackPointExtension>
        </extensions>
      </trkpt>
      <trkpt lat="45.2532734535634517669677734375" lon="-71.1298106610774993896484375">
        <ele>876.4000244140625</ele>
        <time>2026-08-22T02:17:12.000Z</time>
        <extensions>
          <ns3:TrackPointExtension>
            <ns3:hr>134</ns3:hr>
            <ns3:cad>0</ns3:cad>
          </ns3:TrackPointExtension>
        </extensions>
      </trkpt>
      <trkpt lat="45.25326825678348541259765625" lon="-71.12981133162975311279296875">
        <ele>876.5999755859375</ele>
        <time>2026-08-22T02:17:13.000Z</time>
        <extensions>
          <ns3:TrackPointExtension>
            <ns3:hr>134</ns3:hr>
            <ns3:cad>0</ns3:cad>
          </ns3:TrackPointExtension>
        </extensions>
      </trkpt>
      <trkpt lat="45.25325777940452098846435546875" lon="-71.12981191836297512054443359375">
        <ele>876.79998779296875</ele>
        <time>2026-08-22T02:17:14.000Z</time>
        <extensions>
          <ns3:TrackPointExtension>
            <ns3:hr>134</ns3:hr>
            <ns3:cad>0</ns3:cad>
          </ns3:TrackPointExtension>
        </extensions>
      </trkpt>
      <trkpt lat="45.253249146044254302978515625" lon="-71.12981409765779972076416015625">
        <ele>877.20001220703125</ele>
        <time>2026-08-22T02:17:15.000Z</time>
        <extensions>
          <ns3:TrackPointExtension>
            <ns3:hr>134</ns3:hr>
            <ns3:cad>40</ns3:cad>
          </ns3:TrackPointExtension>
        </extensions>
      </trkpt>
      <trkpt lat="45.2532385848462581634521484375" lon="-71.12981560640037059783935546875">
        <ele>877.4000244140625</ele>
        <time>2026-08-22T02:17:16.000Z</time>
        <extensions>
          <ns3:TrackPointExtension>
            <ns3:hr>134</ns3:hr>
            <ns3:cad>40</ns3:cad>
          </ns3:TrackPointExtension>
        </extensions>
      </trkpt>
      <trkpt lat="45.25323070585727691650390625" lon="-71.12981946207582950592041015625">
        <ele>877.5999755859375</ele>
        <time>2026-08-22T02:17:17.000Z</time>
        <extensions>
          <ns3:TrackPointExtension>
            <ns3:hr>134</ns3:hr>
            <ns3:cad>44</ns3:cad>
          </ns3:TrackPointExtension>
        </extensions>
      </trkpt>
      <trkpt lat="45.2532231621444225311279296875" lon="-71.12982097081840038299560546875">
        <ele>877.5999755859375</ele>
        <time>2026-08-22T02:17:18.000Z</time>
        <extensions>
          <ns3:TrackPointExtension>
            <ns3:hr>135</ns3:hr>
            <ns3:cad>43</ns3:cad>
          </ns3:TrackPointExtension>
        </extensions>
      </trkpt>
      <trkpt lat="45.25321486406028270721435546875" lon="-71.12982365302741527557373046875">
        <ele>877.79998779296875</ele>
        <time>2026-08-22T02:17:19.000Z</time>
        <extensions>
          <ns3:TrackPointExtension>
            <ns3:hr>136</ns3:hr>
            <ns3:cad>43</ns3:cad>
          </ns3:TrackPointExtension>
        </extensions>
      </trkpt>
      <trkpt lat="45.25320614688098430633544921875" lon="-71.1298252455890178680419921875">
        <ele>878</ele>
        <time>2026-08-22T02:17:20.000Z</time>
        <extensions>
          <ns3:TrackPointExtension>
            <ns3:hr>136</ns3:hr>
            <ns3:cad>42</ns3:cad>
          </ns3:TrackPointExtension>
        </extensions>
      </trkpt>
      <trkpt lat="45.25319441221654415130615234375" lon="-71.12982784397900104522705078125">
        <ele>878</ele>
        <time>2026-08-22T02:17:21.000Z</time>
        <extensions>
          <ns3:TrackPointExtension>
            <ns3:hr>136</ns3:hr>
            <ns3:cad>42</ns3:cad>
          </ns3:TrackPointExtension>
        </extensions>
      </trkpt>
      <trkpt lat="45.25318644940853118896484375" lon="-71.12983144819736480712890625">
        <ele>878.20001220703125</ele>
        <time>2026-08-22T02:17:22.000Z</time>
        <extensions>
          <ns3:TrackPointExtension>
            <ns3:hr>136</ns3:hr>
            <ns3:cad>42</ns3:cad>
          </ns3:TrackPointExtension>
        </extensions>
      </trkpt>
      <trkpt lat="45.25317697785794734954833984375" lon="-71.12983505241572856903076171875">
        <ele>878.20001220703125</ele>
        <time>2026-08-22T02:17:23.000Z</time>
        <extensions>
          <ns3:TrackPointExtension>
            <ns3:hr>136</ns3:hr>
            <ns3:cad>42</ns3:cad>
          </ns3:TrackPointExtension>
        </extensions>
      </trkpt>
      <trkpt lat="45.25316675193607807159423828125" lon="-71.1298399977385997772216796875">
        <ele>878.20001220703125</ele>
        <time>2026-08-22T02:17:24.000Z</time>
        <extensions>
          <ns3:TrackPointExtension>
            <ns3:hr>136</ns3:hr>
            <ns3:cad>43</ns3:cad>
          </ns3:TrackPointExtension>
        </extensions>
      </trkpt>
      <trkpt lat="45.253153927624225616455078125" lon="-71.129847876727581024169921875">
        <ele>878.20001220703125</ele>
        <time>2026-08-22T02:17:25.000Z</time>
        <extensions>
          <ns3:TrackPointExtension>
            <ns3:hr>136</ns3:hr>
            <ns3:cad>43</ns3:cad>
          </ns3:TrackPointExtension>
        </extensions>
      </trkpt>
      <trkpt lat="45.25314479134976863861083984375" lon="-71.129853911697864532470703125">
        <ele>878.4000244140625</ele>
        <time>2026-08-22T02:17:26.000Z</time>
        <extensions>
          <ns3:TrackPointExtension>
            <ns3:hr>136</ns3:hr>
            <ns3:cad>43</ns3:cad>
          </ns3:TrackPointExtension>
        </extensions>
      </trkpt>
      <trkpt lat="45.25313758291304111480712890625" lon="-71.129857599735260009765625">
        <ele>878.4000244140625</ele>
        <time>2026-08-22T02:17:27.000Z</time>
        <extensions>
          <ns3:TrackPointExtension>
            <ns3:hr>136</ns3:hr>
            <ns3:cad>42</ns3:cad>
          </ns3:TrackPointExtension>
        </extensions>
      </trkpt>
      <trkpt lat="45.25312819518148899078369140625" lon="-71.12986505962908267974853515625">
        <ele>878.5999755859375</ele>
        <time>2026-08-22T02:17:28.000Z</time>
        <extensions>
          <ns3:TrackPointExtension>
            <ns3:hr>136</ns3:hr>
            <ns3:cad>42</ns3:cad>
          </ns3:TrackPointExtension>
        </extensions>
      </trkpt>
      <trkpt lat="45.25312115438282489776611328125" lon="-71.129869334399700164794921875">
        <ele>878.5999755859375</ele>
        <time>2026-08-22T02:17:29.000Z</time>
        <extensions>
          <ns3:TrackPointExtension>
            <ns3:hr>136</ns3:hr>
            <ns3:cad>42</ns3:cad>
          </ns3:TrackPointExtension>
        </extensions>
      </trkpt>
      <trkpt lat="45.25311294011771678924560546875" lon="-71.129877381026744842529296875">
        <ele>878.79998779296875</ele>
        <time>2026-08-22T02:17:30.000Z</time>
        <extensions>
          <ns3:TrackPointExtension>
            <ns3:hr>136</ns3:hr>
            <ns3:cad>44</ns3:cad>
          </ns3:TrackPointExtension>
        </extensions>
      </trkpt>
      <trkpt lat="45.25310439057648181915283203125" lon="-71.12988266162574291229248046875">
        <ele>878.79998779296875</ele>
        <time>2026-08-22T02:17:31.000Z</time>
        <extensions>
          <ns3:TrackPointExtension>
            <ns3:hr>136</ns3:hr>
            <ns3:cad>44</ns3:cad>
          </ns3:TrackPointExtension>
        </extensions>
      </trkpt>
      <trkpt lat="45.2530997805297374725341796875" lon="-71.12989104352891445159912109375">
        <ele>878.79998779296875</ele>
        <time>2026-08-22T02:17:32.000Z</time>
        <extensions>
          <ns3:TrackPointExtension>
            <ns3:hr>136</ns3:hr>
            <ns3:cad>0</ns3:cad>
          </ns3:TrackPointExtension>
        </extensions>
      </trkpt>
      <trkpt lat="45.25309165008366107940673828125" lon="-71.12989976070821285247802734375">
        <ele>878.5999755859375</ele>
        <time>2026-08-22T02:17:33.000Z</time>
        <extensions>
          <ns3:TrackPointExtension>
            <ns3:hr>136</ns3:hr>
            <ns3:cad>0</ns3:cad>
          </ns3:TrackPointExtension>
        </extensions>
      </trkpt>
      <trkpt lat="45.25308184325695037841796875" lon="-71.12990428693592548370361328125">
        <ele>878.5999755859375</ele>
        <time>2026-08-22T02:17:34.000Z</time>
        <extensions>
          <ns3:TrackPointExtension>
            <ns3:hr>136</ns3:hr>
            <ns3:cad>0</ns3:cad>
          </ns3:TrackPointExtension>
        </extensions>
      </trkpt>
      <trkpt lat="45.253075473010540008544921875" lon="-71.12991048954427242279052734375">
        <ele>878.4000244140625</ele>
        <time>2026-08-22T02:17:35.000Z</time>
        <extensions>
          <ns3:TrackPointExtension>
            <ns3:hr>136</ns3:hr>
            <ns3:cad>0</ns3:cad>
          </ns3:TrackPointExtension>
        </extensions>
      </trkpt>
      <trkpt lat="45.25306985713541507720947265625" lon="-71.1299154348671436309814453125">
        <ele>878.5999755859375</ele>
        <time>2026-08-22T02:17:36.000Z</time>
        <extensions>
          <ns3:TrackPointExtension>
            <ns3:hr>136</ns3:hr>
            <ns3:cad>0</ns3:cad>
          </ns3:TrackPointExtension>
        </extensions>
      </trkpt>
      <trkpt lat="45.2530618943274021148681640625" lon="-71.1299192905426025390625">
        <ele>878.5999755859375</ele>
        <time>2026-08-22T02:17:37.000Z</time>
        <extensions>
          <ns3:TrackPointExtension>
            <ns3:hr>136</ns3:hr>
            <ns3:cad>0</ns3:cad>
          </ns3:TrackPointExtension>
        </extensions>
      </trkpt>
      <trkpt lat="45.25305476970970630645751953125" lon="-71.12992054782807826995849609375">
        <ele>878.5999755859375</ele>
        <time>2026-08-22T02:17:38.000Z</time>
        <extensions>
          <ns3:TrackPointExtension>
            <ns3:hr>136</ns3:hr>
            <ns3:cad>0</ns3:cad>
          </ns3:TrackPointExtension>
        </extensions>
      </trkpt>
      <trkpt lat="45.25304923765361309051513671875" lon="-71.12992390058934688568115234375">
        <ele>878.79998779296875</ele>
        <time>2026-08-22T02:17:39.000Z</time>
        <extensions>
          <ns3:TrackPointExtension>
            <ns3:hr>135</ns3:hr>
            <ns3:cad>0</ns3:cad>
          </ns3:TrackPointExtension>
        </extensions>
      </trkpt>
      <trkpt lat="45.253041945397853851318359375" lon="-71.1299268342554569244384765625">
        <ele>878.79998779296875</ele>
        <time>2026-08-22T02:17:40.000Z</time>
        <extensions>
          <ns3:TrackPointExtension>
            <ns3:hr>135</ns3:hr>
            <ns3:cad>0</ns3:cad>
          </ns3:TrackPointExtension>
        </extensions>
      </trkpt>
      <trkpt lat="45.2530283667147159576416015625" lon="-71.12993471324443817138671875">
        <ele>878.79998779296875</ele>
        <time>2026-08-22T02:17:41.000Z</time>
        <extensions>
          <ns3:TrackPointExtension>
            <ns3:hr>135</ns3:hr>
            <ns3:cad>0</ns3:cad>
          </ns3:TrackPointExtension>
        </extensions>
      </trkpt>
      <trkpt lat="45.25302090682089328765869140625" lon="-71.12994183786213397979736328125">
        <ele>878.5999755859375</ele>
        <time>2026-08-22T02:17:42.000Z</time>
        <extensions>
          <ns3:TrackPointExtension>
            <ns3:hr>136</ns3:hr>
            <ns3:cad>46</ns3:cad>
          </ns3:TrackPointExtension>
        </extensions>
      </trkpt>
      <trkpt lat="45.2530116029083728790283203125" lon="-71.12995089031755924224853515625">
        <ele>878.4000244140625</ele>
        <time>2026-08-22T02:17:43.000Z</time>
        <extensions>
          <ns3:TrackPointExtension>
            <ns3:hr>136</ns3:hr>
            <ns3:cad>46</ns3:cad>
          </ns3:TrackPointExtension>
        </extensions>
      </trkpt>
      <trkpt lat="45.25300313718616962432861328125" lon="-71.12995290197432041168212890625">
        <ele>878.4000244140625</ele>
        <time>2026-08-22T02:17:44.000Z</time>
        <extensions>
          <ns3:TrackPointExtension>
            <ns3:hr>136</ns3:hr>
            <ns3:cad>46</ns3:cad>
          </ns3:TrackPointExtension>
        </extensions>
      </trkpt>
      <trkpt lat="45.25299525819718837738037109375" lon="-71.12995726056396961212158203125">
        <ele>878.20001220703125</ele>
        <time>2026-08-22T02:17:45.000Z</time>
        <extensions>
          <ns3:TrackPointExtension>
            <ns3:hr>135</ns3:hr>
            <ns3:cad>46</ns3:cad>
          </ns3:TrackPointExtension>
        </extensions>
      </trkpt>
      <trkpt lat="45.25298335589468479156494140625" lon="-71.12996111623942852020263671875">
        <ele>878.20001220703125</ele>
        <time>2026-08-22T02:17:46.000Z</time>
        <extensions>
          <ns3:TrackPointExtension>
            <ns3:hr>136</ns3:hr>
            <ns3:cad>46</ns3:cad>
          </ns3:TrackPointExtension>
        </extensions>
      </trkpt>
      <trkpt lat="45.252972543239593505859375" lon="-71.12996430136263370513916015625">
        <ele>878.20001220703125</ele>
        <time>2026-08-22T02:17:47.000Z</time>
        <extensions>
          <ns3:TrackPointExtension>
            <ns3:hr>135</ns3:hr>
            <ns3:cad>46</ns3:cad>
          </ns3:TrackPointExtension>
        </extensions>
      </trkpt>
      <trkpt lat="45.2529603056609630584716796875" lon="-71.1299670673906803131103515625">
        <ele>878.20001220703125</ele>
        <time>2026-08-22T02:17:48.000Z</time>
        <extensions>
          <ns3:TrackPointExtension>
            <ns3:hr>135</ns3:hr>
            <ns3:cad>0</ns3:cad>
          </ns3:TrackPointExtension>
        </extensions>
      </trkpt>
      <trkpt lat="45.2529509179294109344482421875" lon="-71.12997067160904407501220703125">
        <ele>878.20001220703125</ele>
        <time>2026-08-22T02:17:49.000Z</time>
        <extensions>
          <ns3:TrackPointExtension>
            <ns3:hr>134</ns3:hr>
            <ns3:cad>0</ns3:cad>
          </ns3:TrackPointExtension>
        </extensions>
      </trkpt>
      <trkpt lat="45.25294027291238307952880859375" lon="-71.1299788020551204681396484375">
        <ele>878</ele>
        <time>2026-08-22T02:17:50.000Z</time>
        <extensions>
          <ns3:TrackPointExtension>
            <ns3:hr>134</ns3:hr>
            <ns3:cad>0</ns3:cad>
          </ns3:TrackPointExtension>
        </extensions>
      </trkpt>
      <trkpt lat="45.252932645380496978759765625" lon="-71.12998567521572113037109375">
        <ele>878</ele>
        <time>2026-08-22T02:17:51.000Z</time>
        <extensions>
          <ns3:TrackPointExtension>
            <ns3:hr>134</ns3:hr>
            <ns3:cad>0</ns3:cad>
          </ns3:TrackPointExtension>
        </extensions>
      </trkpt>
      <trkpt lat="45.25292317382991313934326171875" lon="-71.129992045462131500244140625">
        <ele>878</ele>
        <time>2026-08-22T02:17:52.000Z</time>
        <extensions>
          <ns3:TrackPointExtension>
            <ns3:hr>133</ns3:hr>
            <ns3:cad>0</ns3:cad>
          </ns3:TrackPointExtension>
        </extensions>
      </trkpt>
      <trkpt lat="45.25291361846029758453369140625" lon="-71.1300002597272396087646484375">
        <ele>877.79998779296875</ele>
        <time>2026-08-22T02:17:53.000Z</time>
        <extensions>
          <ns3:TrackPointExtension>
            <ns3:hr>133</ns3:hr>
            <ns3:cad>0</ns3:cad>
          </ns3:TrackPointExtension>
        </extensions>
      </trkpt>
      <trkpt lat="45.25290138088166713714599609375" lon="-71.13000713288784027099609375">
        <ele>877.79998779296875</ele>
        <time>2026-08-22T02:17:54.000Z</time>
        <extensions>
          <ns3:TrackPointExtension>
            <ns3:hr>133</ns3:hr>
            <ns3:cad>0</ns3:cad>
          </ns3:TrackPointExtension>
        </extensions>
      </trkpt>
      <trkpt lat="45.2528939209878444671630859375" lon="-71.13001744262874126434326171875">
        <ele>877.79998779296875</ele>
        <time>2026-08-22T02:17:55.000Z</time>
        <extensions>
          <ns3:TrackPointExtension>
            <ns3:hr>133</ns3:hr>
            <ns3:cad>0</ns3:cad>
          </ns3:TrackPointExtension>
        </extensions>
      </trkpt>
      <trkpt lat="45.2528862096369266510009765625" lon="-71.13003219477832317352294921875">
        <ele>877.5999755859375</ele>
        <time>2026-08-22T02:17:56.000Z</time>
        <extensions>
          <ns3:TrackPointExtension>
            <ns3:hr>134</ns3:hr>
            <ns3:cad>0</ns3:cad>
          </ns3:TrackPointExtension>
        </extensions>
      </trkpt>
      <trkpt lat="45.25288201868534088134765625" lon="-71.13004359416663646697998046875">
        <ele>877.5999755859375</ele>
        <time>2026-08-22T02:17:57.000Z</time>
        <extensions>
          <ns3:TrackPointExtension>
            <ns3:hr>133</ns3:hr>
            <ns3:cad>0</ns3:cad>
          </ns3:TrackPointExtension>
        </extensions>
      </trkpt>
      <trkpt lat="45.25287757627665996551513671875" lon="-71.1300579272210597991943359375">
        <ele>877.4000244140625</ele>
        <time>2026-08-22T02:17:58.000Z</time>
        <extensions>
          <ns3:TrackPointExtension>
            <ns3:hr>133</ns3:hr>
            <ns3:cad>0</ns3:cad>
          </ns3:TrackPointExtension>
        </extensions>
      </trkpt>
      <trkpt lat="45.25287531316280364990234375" lon="-71.130061782896518707275390625">
        <ele>877.20001220703125</ele>
        <time>2026-08-22T02:17:59.000Z</time>
        <extensions>
          <ns3:TrackPointExtension>
            <ns3:hr>132</ns3:hr>
            <ns3:cad>0</ns3:cad>
          </ns3:TrackPointExtension>
        </extensions>
      </trkpt>
      <trkpt lat="45.2528665959835052490234375" lon="-71.13007661886513233184814453125">
        <ele>877.20001220703125</ele>
        <time>2026-08-22T02:18:00.000Z</time>
        <extensions>
          <ns3:TrackPointExtension>
            <ns3:hr>133</ns3:hr>
            <ns3:cad>0</ns3:cad>
          </ns3:TrackPointExtension>
        </extensions>
      </trkpt>
      <trkpt lat="45.2528603933751583099365234375" lon="-71.13008416257798671722412109375">
        <ele>877</ele>
        <time>2026-08-22T02:18:01.000Z</time>
        <extensions>
          <ns3:TrackPointExtension>
            <ns3:hr>134</ns3:hr>
            <ns3:cad>0</ns3:cad>
          </ns3:TrackPointExtension>
        </extensions>
      </trkpt>
      <trkpt lat="45.25285008363425731658935546875" lon="-71.13009371794760227203369140625">
        <ele>876.79998779296875</ele>
        <time>2026-08-22T02:18:02.000Z</time>
        <extensions>
          <ns3:TrackPointExtension>
            <ns3:hr>134</ns3:hr>
            <ns3:cad>0</ns3:cad>
          </ns3:TrackPointExtension>
        </extensions>
      </trkpt>
      <trkpt lat="45.25284321047365665435791015625" lon="-71.13010142929852008819580078125">
        <ele>876.5999755859375</ele>
        <time>2026-08-22T02:18:03.000Z</time>
        <extensions>
          <ns3:TrackPointExtension>
            <ns3:hr>134</ns3:hr>
            <ns3:cad>0</ns3:cad>
          </ns3:TrackPointExtension>
        </extensions>
      </trkpt>
      <trkpt lat="45.25283734314143657684326171875" lon="-71.13010503351688385009765625">
        <ele>876.5999755859375</ele>
        <time>2026-08-22T02:18:04.000Z</time>
        <extensions>
          <ns3:TrackPointExtension>
            <ns3:hr>133</ns3:hr>
            <ns3:cad>0</ns3:cad>
          </ns3:TrackPointExtension>
        </extensions>
      </trkpt>
      <trkpt lat="45.25282644666731357574462890625" lon="-71.1301068775355815887451171875">
        <ele>876.5999755859375</ele>
        <time>2026-08-22T02:18:05.000Z</time>
        <extensions>
          <ns3:TrackPointExtension>
            <ns3:hr>133</ns3:hr>
            <ns3:cad>0</ns3:cad>
          </ns3:TrackPointExtension>
        </extensions>
      </trkpt>
      <trkpt lat="45.25281052105128765106201171875" lon="-71.13011551089584827423095703125">
        <ele>876.5999755859375</ele>
        <time>2026-08-22T02:18:06.000Z</time>
        <extensions>
          <ns3:TrackPointExtension>
            <ns3:hr>132</ns3:hr>
            <ns3:cad>0</ns3:cad>
          </ns3:TrackPointExtension>
        </extensions>
      </trkpt>
      <trkpt lat="45.25279677473008632659912109375" lon="-71.130121462047100067138671875">
        <ele>876.5999755859375</ele>
        <time>2026-08-22T02:18:07.000Z</time>
        <extensions>
          <ns3:TrackPointExtension>
            <ns3:hr>130</ns3:hr>
            <ns3:cad>0</ns3:cad>
          </ns3:TrackPointExtension>
        </extensions>
      </trkpt>
      <trkpt lat="45.25278822518885135650634765625" lon="-71.1301249824464321136474609375">
        <ele>876.4000244140625</ele>
        <time>2026-08-22T02:18:08.000Z</time>
        <extensions>
          <ns3:TrackPointExtension>
            <ns3:hr>128</ns3:hr>
            <ns3:cad>59</ns3:cad>
          </ns3:TrackPointExtension>
        </extensions>
      </trkpt>
      <trkpt lat="45.25278084911406040191650390625" lon="-71.1301290057599544525146484375">
        <ele>876.4000244140625</ele>
        <time>2026-08-22T02:18:09.000Z</time>
        <extensions>
          <ns3:TrackPointExtension>
            <ns3:hr>127</ns3:hr>
            <ns3:cad>59</ns3:cad>
          </ns3:TrackPointExtension>
        </extensions>
      </trkpt>
      <trkpt lat="45.25277196429669857025146484375" lon="-71.1301360465586185455322265625">
        <ele>876.20001220703125</ele>
        <time>2026-08-22T02:18:10.000Z</time>
        <extensions>
          <ns3:TrackPointExtension>
            <ns3:hr>127</ns3:hr>
            <ns3:cad>59</ns3:cad>
          </ns3:TrackPointExtension>
        </extensions>
      </trkpt>
      <trkpt lat="45.25276458822190761566162109375" lon="-71.13014333881437778472900390625">
        <ele>876.20001220703125</ele>
        <time>2026-08-22T02:18:11.000Z</time>
        <extensions>
          <ns3:TrackPointExtension>
            <ns3:hr>127</ns3:hr>
            <ns3:cad>59</ns3:cad>
          </ns3:TrackPointExtension>
        </extensions>
      </trkpt>
      <trkpt lat="45.25275654159486293792724609375" lon="-71.1301593482494354248046875">
        <ele>876.20001220703125</ele>
        <time>2026-08-22T02:18:12.000Z</time>
        <extensions>
          <ns3:TrackPointExtension>
            <ns3:hr>128</ns3:hr>
            <ns3:cad>59</ns3:cad>
          </ns3:TrackPointExtension>
        </extensions>
      </trkpt>
      <trkpt lat="45.2527460642158985137939453125" lon="-71.13017602823674678802490234375">
        <ele>876</ele>
        <time>2026-08-22T02:18:13.000Z</time>
        <extensions>
          <ns3:TrackPointExtension>
            <ns3:hr>128</ns3:hr>
            <ns3:cad>59</ns3:cad>
          </ns3:TrackPointExtension>
        </extensions>
      </trkpt>
      <trkpt lat="45.2527333237230777740478515625" lon="-71.130190193653106689453125">
        <ele>875.79998779296875</ele>
        <time>2026-08-22T02:18:14.000Z</time>
        <extensions>
          <ns3:TrackPointExtension>
            <ns3:hr>128</ns3:hr>
            <ns3:cad>59</ns3:cad>
          </ns3:TrackPointExtension>
        </extensions>
      </trkpt>
      <trkpt lat="45.25272418744862079620361328125" lon="-71.13019832409918308258056640625">
        <ele>875.5999755859375</ele>
        <time>2026-08-22T02:18:15.000Z</time>
        <extensions>
          <ns3:TrackPointExtension>
            <ns3:hr>127</ns3:hr>
            <ns3:cad>59</ns3:cad>
          </ns3:TrackPointExtension>
        </extensions>
      </trkpt>
      <trkpt lat="45.2527135424315929412841796875" lon="-71.1302081309258937835693359375">
        <ele>875.4000244140625</ele>
        <time>2026-08-22T02:18:16.000Z</time>
        <extensions>
          <ns3:TrackPointExtension>
            <ns3:hr>127</ns3:hr>
            <ns3:cad>59</ns3:cad>
          </ns3:TrackPointExtension>
        </extensions>
      </trkpt>
      <trkpt lat="45.25270775891840457916259765625" lon="-71.13021827302873134613037109375">
        <ele>875.4000244140625</ele>
        <time>2026-08-22T02:18:17.000Z</time>
        <extensions>
          <ns3:TrackPointExtension>
            <ns3:hr>126</ns3:hr>
            <ns3:cad>45</ns3:cad>
          </ns3:TrackPointExtension>
        </extensions>
      </trkpt>
      <trkpt lat="45.2527038194239139556884765625" lon="-71.13022447563707828521728515625">
        <ele>875.20001220703125</ele>
        <time>2026-08-22T02:18:18.000Z</time>
        <extensions>
          <ns3:TrackPointExtension>
            <ns3:hr>126</ns3:hr>
            <ns3:cad>45</ns3:cad>
          </ns3:TrackPointExtension>
        </extensions>
      </trkpt>
      <trkpt lat="45.2527018077671527862548828125" lon="-71.1302269063889980316162109375">
        <ele>875.20001220703125</ele>
        <time>2026-08-22T02:18:19.000Z</time>
        <extensions>
          <ns3:TrackPointExtension>
            <ns3:hr>125</ns3:hr>
            <ns3:cad>61</ns3:cad>
          </ns3:TrackPointExtension>
        </extensions>
      </trkpt>
      <trkpt lat="45.2526964433491230010986328125" lon="-71.13023268990218639373779296875">
        <ele>875</ele>
        <time>2026-08-22T02:18:20.000Z</time>
        <extensions>
          <ns3:TrackPointExtension>
            <ns3:hr>125</ns3:hr>
            <ns3:cad>61</ns3:cad>
          </ns3:TrackPointExtension>
        </extensions>
      </trkpt>
      <trkpt lat="45.25268613360822200775146484375" lon="-71.1302344501018524169921875">
        <ele>875</ele>
        <time>2026-08-22T02:18:21.000Z</time>
        <extensions>
          <ns3:TrackPointExtension>
            <ns3:hr>125</ns3:hr>
            <ns3:cad>61</ns3:cad>
          </ns3:TrackPointExtension>
        </extensions>
      </trkpt>
      <trkpt lat="45.25267892517149448394775390625" lon="-71.13023604266345500946044921875">
        <ele>874.79998779296875</ele>
        <time>2026-08-22T02:18:22.000Z</time>
        <extensions>
          <ns3:TrackPointExtension>
            <ns3:hr>126</ns3:hr>
            <ns3:cad>0</ns3:cad>
          </ns3:TrackPointExtension>
        </extensions>
      </trkpt>
      <trkpt lat="45.25267037563025951385498046875" lon="-71.13023922778666019439697265625">
        <ele>874.79998779296875</ele>
        <time>2026-08-22T02:18:23.000Z</time>
        <extensions>
          <ns3:TrackPointExtension>
            <ns3:hr>125</ns3:hr>
            <ns3:cad>0</ns3:cad>
          </ns3:TrackPointExtension>
        </extensions>
      </trkpt>
      <trkpt lat="45.25266065262258052825927734375" lon="-71.13024123944342136383056640625">
        <ele>874.79998779296875</ele>
        <time>2026-08-22T02:18:24.000Z</time>
        <extensions>
          <ns3:TrackPointExtension>
            <ns3:hr>125</ns3:hr>
            <ns3:cad>0</ns3:cad>
          </ns3:TrackPointExtension>
        </extensions>
      </trkpt>
      <trkpt lat="45.25265243835747241973876953125" lon="-71.13024811260402202606201171875">
        <ele>875</ele>
        <time>2026-08-22T02:18:25.000Z</time>
        <extensions>
          <ns3:TrackPointExtension>
            <ns3:hr>124</ns3:hr>
            <ns3:cad>0</ns3:cad>
          </ns3:TrackPointExtension>
        </extensions>
      </trkpt>
      <trkpt lat="45.252648331224918365478515625" lon="-71.13024660386145114898681640625">
        <ele>875</ele>
        <time>2026-08-22T02:18:26.000Z</time>
        <extensions>
          <ns3:TrackPointExtension>
            <ns3:hr>124</ns3:hr>
            <ns3:cad>0</ns3:cad>
          </ns3:TrackPointExtension>
        </extensions>
      </trkpt>
      <trkpt lat="45.2526404522359371185302734375" lon="-71.1302480287849903106689453125">
        <ele>875.20001220703125</ele>
        <time>2026-08-22T02:18:27.000Z</time>
        <extensions>
          <ns3:TrackPointExtension>
            <ns3:hr>124</ns3:hr>
            <ns3:cad>0</ns3:cad>
          </ns3:TrackPointExtension>
        </extensions>
      </trkpt>
      <trkpt lat="45.2526327408850193023681640625" lon="-71.1302505433559417724609375">
        <ele>875.20001220703125</ele>
        <time>2026-08-22T02:18:28.000Z</time>
        <extensions>
          <ns3:TrackPointExtension>
            <ns3:hr>123</ns3:hr>
            <ns3:cad>0</ns3:cad>
          </ns3:TrackPointExtension>
        </extensions>
      </trkpt>
      <trkpt lat="45.25262008421123027801513671875" lon="-71.13025297410786151885986328125">
        <ele>875.20001220703125</ele>
        <time>2026-08-22T02:18:29.000Z</time>
        <extensions>
          <ns3:TrackPointExtension>
            <ns3:hr>121</ns3:hr>
            <ns3:cad>52</ns3:cad>
          </ns3:TrackPointExtension>
        </extensions>
      </trkpt>
      <trkpt lat="45.25261036120355129241943359375" lon="-71.1302554048597812652587890625">
        <ele>875.20001220703125</ele>
        <time>2026-08-22T02:18:30.000Z</time>
        <extensions>
          <ns3:TrackPointExtension>
            <ns3:hr>119</ns3:hr>
            <ns3:cad>53</ns3:cad>
          </ns3:TrackPointExtension>
        </extensions>
      </trkpt>
      <trkpt lat="45.252592675387859344482421875" lon="-71.13026035018265247344970703125">
        <ele>875.20001220703125</ele>
        <time>2026-08-22T02:18:31.000Z</time>
        <extensions>
          <ns3:TrackPointExtension>
            <ns3:hr>118</ns3:hr>
            <ns3:cad>53</ns3:cad>
          </ns3:TrackPointExtension>
        </extensions>
      </trkpt>
      <trkpt lat="45.2525795996189117431640625" lon="-71.1302631162106990814208984375">
        <ele>875.20001220703125</ele>
        <time>2026-08-22T02:18:32.000Z</time>
        <extensions>
          <ns3:TrackPointExtension>
            <ns3:hr>117</ns3:hr>
            <ns3:cad>53</ns3:cad>
          </ns3:TrackPointExtension>
        </extensions>
      </trkpt>
      <trkpt lat="45.25256811641156673431396484375" lon="-71.130267642438411712646484375">
        <ele>875</ele>
        <time>2026-08-22T02:18:33.000Z</time>
        <extensions>
          <ns3:TrackPointExtension>
            <ns3:hr>117</ns3:hr>
            <ns3:cad>53</ns3:cad>
          </ns3:TrackPointExtension>
        </extensions>
      </trkpt>
      <trkpt lat="45.252558477222919464111328125" lon="-71.13027174957096576690673828125">
        <ele>875</ele>
        <time>2026-08-22T02:18:34.000Z</time>
        <extensions>
          <ns3:TrackPointExtension>
            <ns3:hr>118</ns3:hr>
            <ns3:cad>53</ns3:cad>
          </ns3:TrackPointExtension>
        </extensions>
      </trkpt>
      <trkpt lat="45.25254364125430583953857421875" lon="-71.130281053483486175537109375">
        <ele>875</ele>
        <time>2026-08-22T02:18:35.000Z</time>
        <extensions>
          <ns3:TrackPointExtension>
            <ns3:hr>118</ns3:hr>
            <ns3:cad>53</ns3:cad>
          </ns3:TrackPointExtension>
        </extensions>
      </trkpt>
      <trkpt lat="45.2525351755321025848388671875" lon="-71.130285747349262237548828125">
        <ele>875</ele>
        <time>2026-08-22T02:18:36.000Z</time>
        <extensions>
          <ns3:TrackPointExtension>
            <ns3:hr>118</ns3:hr>
            <ns3:cad>50</ns3:cad>
          </ns3:TrackPointExtension>
        </extensions>
      </trkpt>
      <trkpt lat="45.25253090076148509979248046875" lon="-71.1302889324724674224853515625">
        <ele>875</ele>
        <time>2026-08-22T02:18:37.000Z</time>
        <extensions>
          <ns3:TrackPointExtension>
            <ns3:hr>118</ns3:hr>
            <ns3:cad>50</ns3:cad>
          </ns3:TrackPointExtension>
        </extensions>
      </trkpt>
      <trkpt lat="45.252527631819248199462890625" lon="-71.1302899383008480072021484375">
        <ele>875</ele>
        <time>2026-08-22T02:18:38.000Z</time>
        <extensions>
          <ns3:TrackPointExtension>
            <ns3:hr>119</ns3:hr>
            <ns3:cad>50</ns3:cad>
          </ns3:TrackPointExtension>
        </extensions>
      </trkpt>
      <trkpt lat="45.25252260267734527587890625" lon="-71.13028683699667453765869140625">
        <ele>875</ele>
        <time>2026-08-22T02:18:39.000Z</time>
        <extensions>
          <ns3:TrackPointExtension>
            <ns3:hr>119</ns3:hr>
            <ns3:cad>0</ns3:cad>
          </ns3:TrackPointExtension>
        </extensions>
      </trkpt>
      <trkpt lat="45.25252235122025012969970703125" lon="-71.13028666935861110687255859375">
        <ele>875</ele>
        <time>2026-08-22T02:18:40.000Z</time>
        <extensions>
          <ns3:TrackPointExtension>
            <ns3:hr>119</ns3:hr>
            <ns3:cad>0</ns3:cad>
          </ns3:TrackPointExtension>
        </extensions>
      </trkpt>
      <trkpt lat="45.25252235122025012969970703125" lon="-71.13028666935861110687255859375">
        <ele>875.20001220703125</ele>
        <time>2026-08-22T02:18:41.000Z</time>
        <extensions>
          <ns3:TrackPointExtension>
            <ns3:hr>119</ns3:hr>
            <ns3:cad>0</ns3:cad>
          </ns3:TrackPointExtension>
        </extensions>
      </trkpt>
      <trkpt lat="45.25252235122025012969970703125" lon="-71.13028666935861110687255859375">
        <ele>875.20001220703125</ele>
        <time>2026-08-22T02:18:42.000Z</time>
        <extensions>
          <ns3:TrackPointExtension>
            <ns3:hr>120</ns3:hr>
            <ns3:cad>0</ns3:cad>
          </ns3:TrackPointExtension>
        </extensions>
      </trkpt>
      <trkpt lat="45.25252235122025012969970703125" lon="-71.13028666935861110687255859375">
        <ele>875.20001220703125</ele>
        <time>2026-08-22T02:18:43.000Z</time>
        <extensions>
          <ns3:TrackPointExtension>
            <ns3:hr>121</ns3:hr>
            <ns3:cad>0</ns3:cad>
          </ns3:TrackPointExtension>
        </extensions>
      </trkpt>
      <trkpt lat="45.25252235122025012969970703125" lon="-71.13028666935861110687255859375">
        <ele>875.20001220703125</ele>
        <time>2026-08-22T02:18:44.000Z</time>
        <extensions>
          <ns3:TrackPointExtension>
            <ns3:hr>122</ns3:hr>
            <ns3:cad>0</ns3:cad>
          </ns3:TrackPointExtension>
        </extensions>
      </trkpt>
      <trkpt lat="45.25252235122025012969970703125" lon="-71.13028666935861110687255859375">
        <ele>875.20001220703125</ele>
        <time>2026-08-22T02:18:45.000Z</time>
        <extensions>
          <ns3:TrackPointExtension>
            <ns3:hr>122</ns3:hr>
            <ns3:cad>0</ns3:cad>
          </ns3:TrackPointExtension>
        </extensions>
      </trkpt>
      <trkpt lat="45.25252235122025012969970703125" lon="-71.13028666935861110687255859375">
        <ele>875.20001220703125</ele>
        <time>2026-08-22T02:18:46.000Z</time>
        <extensions>
          <ns3:TrackPointExtension>
            <ns3:hr>122</ns3:hr>
            <ns3:cad>0</ns3:cad>
          </ns3:TrackPointExtension>
        </extensions>
      </trkpt>
      <trkpt lat="45.25252235122025012969970703125" lon="-71.13028666935861110687255859375">
        <ele>875.20001220703125</ele>
        <time>2026-08-22T02:18:47.000Z</time>
        <extensions>
          <ns3:TrackPointExtension>
            <ns3:hr>122</ns3:hr>
            <ns3:cad>0</ns3:cad>
          </ns3:TrackPointExtension>
        </extensions>
      </trkpt>
      <trkpt lat="45.25252235122025012969970703125" lon="-71.13028666935861110687255859375">
        <ele>875.20001220703125</ele>
        <time>2026-08-22T02:18:48.000Z</time>
        <extensions>
          <ns3:TrackPointExtension>
            <ns3:hr>122</ns3:hr>
            <ns3:cad>0</ns3:cad>
          </ns3:TrackPointExtension>
        </extensions>
      </trkpt>
      <trkpt lat="45.25252235122025012969970703125" lon="-71.13028666935861110687255859375">
        <ele>875.20001220703125</ele>
        <time>2026-08-22T02:18:49.000Z</time>
        <extensions>
          <ns3:TrackPointExtension>
            <ns3:hr>122</ns3:hr>
            <ns3:cad>0</ns3:cad>
          </ns3:TrackPointExtension>
        </extensions>
      </trkpt>
      <trkpt lat="45.25252235122025012969970703125" lon="-71.13028666935861110687255859375">
        <ele>875.20001220703125</ele>
        <time>2026-08-22T02:18:50.000Z</time>
        <extensions>
          <ns3:TrackPointExtension>
            <ns3:hr>122</ns3:hr>
            <ns3:cad>0</ns3:cad>
          </ns3:TrackPointExtension>
        </extensions>
      </trkpt>
      <trkpt lat="45.25251531042158603668212890625" lon="-71.13028096966445446014404296875">
        <ele>875.20001220703125</ele>
        <time>2026-08-22T02:18:51.000Z</time>
        <extensions>
          <ns3:TrackPointExtension>
            <ns3:hr>122</ns3:hr>
            <ns3:cad>0</ns3:cad>
          </ns3:TrackPointExtension>
        </extensions>
      </trkpt>
      <trkpt lat="45.2525070123374462127685546875" lon="-71.13028071820735931396484375">
        <ele>875.20001220703125</ele>
        <time>2026-08-22T02:18:52.000Z</time>
        <extensions>
          <ns3:TrackPointExtension>
            <ns3:hr>123</ns3:hr>
            <ns3:cad>0</ns3:cad>
          </ns3:TrackPointExtension>
        </extensions>
      </trkpt>
      <trkpt lat="45.25250173173844814300537109375" lon="-71.1302782036364078521728515625">
        <ele>875</ele>
        <time>2026-08-22T02:18:53.000Z</time>
        <extensions>
          <ns3:TrackPointExtension>
            <ns3:hr>123</ns3:hr>
            <ns3:cad>0</ns3:cad>
          </ns3:TrackPointExtension>
        </extensions>
      </trkpt>
      <trkpt lat="45.25250156410038471221923828125" lon="-71.13027811981737613677978515625">
        <ele>875</ele>
        <time>2026-08-22T02:18:54.000Z</time>
        <extensions>
          <ns3:TrackPointExtension>
            <ns3:hr>124</ns3:hr>
            <ns3:cad>0</ns3:cad>
          </ns3:TrackPointExtension>
        </extensions>
      </trkpt>
      <trkpt lat="45.25250156410038471221923828125" lon="-71.13027811981737613677978515625">
        <ele>875</ele>
        <time>2026-08-22T02:18:55.000Z</time>
        <extensions>
          <ns3:TrackPointExtension>
            <ns3:hr>124</ns3:hr>
            <ns3:cad>0</ns3:cad>
          </ns3:TrackPointExtension>
        </extensions>
      </trkpt>
      <trkpt lat="45.25250156410038471221923828125" lon="-71.13027811981737613677978515625">
        <ele>875</ele>
        <time>2026-08-22T02:18:56.000Z</time>
        <extensions>
          <ns3:TrackPointExtension>
            <ns3:hr>124</ns3:hr>
            <ns3:cad>0</ns3:cad>
          </ns3:TrackPointExtension>
        </extensions>
      </trkpt>
      <trkpt lat="45.2525009773671627044677734375" lon="-71.13027795217931270599365234375">
        <ele>875</ele>
        <time>2026-08-22T02:18:57.000Z</time>
        <extensions>
          <ns3:TrackPointExtension>
            <ns3:hr>124</ns3:hr>
            <ns3:cad>0</ns3:cad>
          </ns3:TrackPointExtension>
        </extensions>
      </trkpt>
      <trkpt lat="45.2524929307401180267333984375" lon="-71.13028029911220073699951171875">
        <ele>875</ele>
        <time>2026-08-22T02:18:58.000Z</time>
        <extensions>
          <ns3:TrackPointExtension>
            <ns3:hr>124</ns3:hr>
            <ns3:cad>0</ns3:cad>
          </ns3:TrackPointExtension>
        </extensions>
      </trkpt>
      <trkpt lat="45.25248480029404163360595703125" lon="-71.13028298132121562957763671875">
        <ele>875</ele>
        <time>2026-08-22T02:18:59.000Z</time>
        <extensions>
          <ns3:TrackPointExtension>
            <ns3:hr>124</ns3:hr>
            <ns3:cad>0</ns3:cad>
          </ns3:TrackPointExtension>
        </extensions>
      </trkpt>
      <trkpt lat="45.25248127989470958709716796875" lon="-71.130288429558277130126953125">
        <ele>875</ele>
        <time>2026-08-22T02:19:00.000Z</time>
        <extensions>
          <ns3:TrackPointExtension>
            <ns3:hr>124</ns3:hr>
            <ns3:cad>55</ns3:cad>
          </ns3:TrackPointExtension>
        </extensions>
      </trkpt>
      <trkpt lat="45.25247541256248950958251953125" lon="-71.130289100110530853271484375">
        <ele>875</ele>
        <time>2026-08-22T02:19:01.000Z</time>
        <extensions>
          <ns3:TrackPointExtension>
            <ns3:hr>124</ns3:hr>
            <ns3:cad>55</ns3:cad>
          </ns3:TrackPointExtension>
        </extensions>
      </trkpt>
      <trkpt lat="45.252465941011905670166015625" lon="-71.130291111767292022705078125">
        <ele>875.20001220703125</ele>
        <time>2026-08-22T02:19:02.000Z</time>
        <extensions>
          <ns3:TrackPointExtension>
            <ns3:hr>123</ns3:hr>
            <ns3:cad>55</ns3:cad>
          </ns3:TrackPointExtension>
        </extensions>
      </trkpt>
      <trkpt lat="45.2524587325751781463623046875" lon="-71.1302929557859897613525390625">
        <ele>875.20001220703125</ele>
        <time>2026-08-22T02:19:03.000Z</time>
        <extensions>
          <ns3:TrackPointExtension>
            <ns3:hr>124</ns3:hr>
            <ns3:cad>51</ns3:cad>
          </ns3:TrackPointExtension>
        </extensions>
      </trkpt>
      <trkpt lat="45.25244389660656452178955078125" lon="-71.13029840402305126190185546875">
        <ele>875.4000244140625</ele>
        <time>2026-08-22T02:19:04.000Z</time>
        <extensions>
          <ns3:TrackPointExtension>
            <ns3:hr>124</ns3:hr>
            <ns3:cad>51</ns3:cad>
          </ns3:TrackPointExtension>
        </extensions>
      </trkpt>
      <trkpt lat="45.25243316777050495147705078125" lon="-71.13030376844108104705810546875">
        <ele>875.20001220703125</ele>
        <time>2026-08-22T02:19:05.000Z</time>
        <extensions>
          <ns3:TrackPointExtension>
            <ns3:hr>125</ns3:hr>
            <ns3:cad>51</ns3:cad>
          </ns3:TrackPointExtension>
        </extensions>
      </trkpt>
      <trkpt lat="45.25242378003895282745361328125" lon="-71.130308210849761962890625">
        <ele>875.20001220703125</ele>
        <time>2026-08-22T02:19:06.000Z</time>
        <extensions>
          <ns3:TrackPointExtension>
            <ns3:hr>125</ns3:hr>
            <ns3:cad>51</ns3:cad>
          </ns3:TrackPointExtension>
        </extensions>
      </trkpt>
      <trkpt lat="45.2524144761264324188232421875" lon="-71.13031282089650630950927734375">
        <ele>875.20001220703125</ele>
        <time>2026-08-22T02:19:07.000Z</time>
        <extensions>
          <ns3:TrackPointExtension>
            <ns3:hr>126</ns3:hr>
            <ns3:cad>0</ns3:cad>
          </ns3:TrackPointExtension>
        </extensions>
      </trkpt>
      <trkpt lat="45.252404920756816864013671875" lon="-71.13031692802906036376953125">
        <ele>875.20001220703125</ele>
        <time>2026-08-22T02:19:08.000Z</time>
        <extensions>
          <ns3:TrackPointExtension>
            <ns3:hr>126</ns3:hr>
            <ns3:cad>0</ns3:cad>
          </ns3:TrackPointExtension>
        </extensions>
      </trkpt>
      <trkpt lat="45.2523972094058990478515625" lon="-71.13031785003840923309326171875">
        <ele>875.20001220703125</ele>
        <time>2026-08-22T02:19:09.000Z</time>
        <extensions>
          <ns3:TrackPointExtension>
            <ns3:hr>125</ns3:hr>
            <ns3:cad>0</ns3:cad>
          </ns3:TrackPointExtension>
        </extensions>
      </trkpt>
      <trkpt lat="45.25238488800823688507080078125" lon="-71.13032053224742412567138671875">
        <ele>875.20001220703125</ele>
        <time>2026-08-22T02:19:10.000Z</time>
        <extensions>
          <ns3:TrackPointExtension>
            <ns3:hr>125</ns3:hr>
            <ns3:cad>0</ns3:cad>
          </ns3:TrackPointExtension>
        </extensions>
      </trkpt>
      <trkpt lat="45.25238019414246082305908203125" lon="-71.13032229244709014892578125">
        <ele>875.20001220703125</ele>
        <time>2026-08-22T02:19:11.000Z</time>
        <extensions>
          <ns3:TrackPointExtension>
            <ns3:hr>124</ns3:hr>
            <ns3:cad>0</ns3:cad>
          </ns3:TrackPointExtension>
        </extensions>
      </trkpt>
      <trkpt lat="45.2523762546479701995849609375" lon="-71.130319274961948394775390625">
        <ele>875.4000244140625</ele>
        <time>2026-08-22T02:19:12.000Z</time>
        <extensions>
          <ns3:TrackPointExtension>
            <ns3:hr>124</ns3:hr>
            <ns3:cad>0</ns3:cad>
          </ns3:TrackPointExtension>
        </extensions>
      </trkpt>
      <trkpt lat="45.2523712255060672760009765625" lon="-71.1303100548684597015380859375">
        <ele>875.4000244140625</ele>
        <time>2026-08-22T02:19:13.000Z</time>
        <extensions>
          <ns3:TrackPointExtension>
            <ns3:hr>124</ns3:hr>
            <ns3:cad>0</ns3:cad>
          </ns3:TrackPointExtension>
        </extensions>
      </trkpt>
      <trkpt lat="45.25236611254513263702392578125" lon="-71.1303023435175418853759765625">
        <ele>875.79998779296875</ele>
        <time>2026-08-22T02:19:14.000Z</time>
        <extensions>
          <ns3:TrackPointExtension>
            <ns3:hr>123</ns3:hr>
            <ns3:cad>0</ns3:cad>
          </ns3:TrackPointExtension>
        </extensions>
      </trkpt>
      <trkpt lat="45.25236594490706920623779296875" lon="-71.13030083477497100830078125">
        <ele>876</ele>
        <time>2026-08-22T02:19:15.000Z</time>
        <extensions>
          <ns3:TrackPointExtension>
            <ns3:hr>124</ns3:hr>
            <ns3:cad>0</ns3:cad>
          </ns3:TrackPointExtension>
        </extensions>
      </trkpt>
      <trkpt lat="45.252361334860324859619140625" lon="-71.13028951920568943023681640625">
        <ele>876.4000244140625</ele>
        <time>2026-08-22T02:19:16.000Z</time>
        <extensions>
          <ns3:TrackPointExtension>
            <ns3:hr>123</ns3:hr>
            <ns3:cad>0</ns3:cad>
          </ns3:TrackPointExtension>
        </extensions>
      </trkpt>
      <trkpt lat="45.25235856883227825164794921875" lon="-71.13028381951153278350830078125">
        <ele>876.79998779296875</ele>
        <time>2026-08-22T02:19:17.000Z</time>
        <extensions>
          <ns3:TrackPointExtension>
            <ns3:hr>123</ns3:hr>
            <ns3:cad>0</ns3:cad>
          </ns3:TrackPointExtension>
        </extensions>
      </trkpt>
      <trkpt lat="45.2523611672222614288330078125" lon="-71.1302899383008480072021484375">
        <ele>877</ele>
        <time>2026-08-22T02:19:18.000Z</time>
        <extensions>
          <ns3:TrackPointExtension>
            <ns3:hr>124</ns3:hr>
            <ns3:cad>0</ns3:cad>
          </ns3:TrackPointExtension>
        </extensions>
      </trkpt>
      <trkpt lat="45.2523598261177539825439453125" lon="-71.13028767518699169158935546875">
        <ele>877.4000244140625</ele>
        <time>2026-08-22T02:19:19.000Z</time>
        <extensions>
          <ns3:TrackPointExtension>
            <ns3:hr>124</ns3:hr>
            <ns3:cad>0</ns3:cad>
          </ns3:TrackPointExtension>
        </extensions>
      </trkpt>
      <trkpt lat="45.252357311546802520751953125" lon="-71.130283735692501068115234375">
        <ele>877.5999755859375</ele>
        <time>2026-08-22T02:19:20.000Z</time>
        <extensions>
          <ns3:TrackPointExtension>
            <ns3:hr>124</ns3:hr>
            <ns3:cad>0</ns3:cad>
          </ns3:TrackPointExtension>
        </extensions>
      </trkpt>
      <trkpt lat="45.25235370732843875885009765625" lon="-71.13027342595160007476806640625">
        <ele>878</ele>
        <time>2026-08-22T02:19:21.000Z</time>
        <extensions>
          <ns3:TrackPointExtension>
            <ns3:hr>124</ns3:hr>
            <ns3:cad>0</ns3:cad>
          </ns3:TrackPointExtension>
        </extensions>
      </trkpt>
      <trkpt lat="45.2523504383862018585205078125" lon="-71.13027426414191722869873046875">
        <ele>878.20001220703125</ele>
        <time>2026-08-22T02:19:22.000Z</time>
        <extensions>
          <ns3:TrackPointExtension>
            <ns3:hr>124</ns3:hr>
            <ns3:cad>44</ns3:cad>
          </ns3:TrackPointExtension>
        </extensions>
      </trkpt>
      <trkpt lat="45.2523457445204257965087890625" lon="-71.13026604987680912017822265625">
        <ele>878.4000244140625</ele>
        <time>2026-08-22T02:19:23.000Z</time>
        <extensions>
          <ns3:TrackPointExtension>
            <ns3:hr>123</ns3:hr>
            <ns3:cad>44</ns3:cad>
          </ns3:TrackPointExtension>
        </extensions>
      </trkpt>
      <trkpt lat="45.25234113447368144989013671875" lon="-71.130258254706859588623046875">
        <ele>878.5999755859375</ele>
        <time>2026-08-22T02:19:24.000Z</time>
        <extensions>
          <ns3:TrackPointExtension>
            <ns3:hr>123</ns3:hr>
            <ns3:cad>44</ns3:cad>
          </ns3:TrackPointExtension>
        </extensions>
      </trkpt>
      <trkpt lat="45.252335183322429656982421875" lon="-71.13025548867881298065185546875">
        <ele>879</ele>
        <time>2026-08-22T02:19:25.000Z</time>
        <extensions>
          <ns3:TrackPointExtension>
            <ns3:hr>123</ns3:hr>
            <ns3:cad>0</ns3:cad>
          </ns3:TrackPointExtension>
        </extensions>
      </trkpt>
      <trkpt lat="45.25232403539121150970458984375" lon="-71.13024693913757801055908203125">
        <ele>879.20001220703125</ele>
        <time>2026-08-22T02:19:26.000Z</time>
        <extensions>
          <ns3:TrackPointExtension>
            <ns3:hr>124</ns3:hr>
            <ns3:cad>0</ns3:cad>
          </ns3:TrackPointExtension>
        </extensions>
      </trkpt>
      <trkpt lat="45.2523142285645008087158203125" lon="-71.13024023361504077911376953125">
        <ele>879.4000244140625</ele>
        <time>2026-08-22T02:19:27.000Z</time>
        <extensions>
          <ns3:TrackPointExtension>
            <ns3:hr>124</ns3:hr>
            <ns3:cad>0</ns3:cad>
          </ns3:TrackPointExtension>
        </extensions>
      </trkpt>
      <trkpt lat="45.25230492465198040008544921875" lon="-71.13023688085377216339111328125">
        <ele>879.79998779296875</ele>
        <time>2026-08-22T02:19:28.000Z</time>
        <extensions>
          <ns3:TrackPointExtension>
            <ns3:hr>125</ns3:hr>
            <ns3:cad>0</ns3:cad>
          </ns3:TrackPointExtension>
        </extensions>
      </trkpt>
      <trkpt lat="45.25229805149137973785400390625" lon="-71.1302339471876621246337890625">
        <ele>880</ele>
        <time>2026-08-22T02:19:29.000Z</time>
        <extensions>
          <ns3:TrackPointExtension>
            <ns3:hr>125</ns3:hr>
            <ns3:cad>0</ns3:cad>
          </ns3:TrackPointExtension>
        </extensions>
      </trkpt>
      <trkpt lat="45.25229017250239849090576171875" lon="-71.13023302517831325531005859375">
        <ele>880.20001220703125</ele>
        <time>2026-08-22T02:19:30.000Z</time>
        <extensions>
          <ns3:TrackPointExtension>
            <ns3:hr>125</ns3:hr>
            <ns3:cad>0</ns3:cad>
          </ns3:TrackPointExtension>
        </extensions>
      </trkpt>
      <trkpt lat="45.252280198037624359130859375" lon="-71.130228079855442047119140625">
        <ele>880.20001220703125</ele>
        <time>2026-08-22T02:19:31.000Z</time>
        <extensions>
          <ns3:TrackPointExtension>
            <ns3:hr>124</ns3:hr>
            <ns3:cad>45</ns3:cad>
          </ns3:TrackPointExtension>
        </extensions>
      </trkpt>
      <trkpt lat="45.2522760070860385894775390625" lon="-71.13022464327514171600341796875">
        <ele>880.4000244140625</ele>
        <time>2026-08-22T02:19:32.000Z</time>
        <extensions>
          <ns3:TrackPointExtension>
            <ns3:hr>125</ns3:hr>
            <ns3:cad>45</ns3:cad>
          </ns3:TrackPointExtension>
        </extensions>
      </trkpt>
      <trkpt lat="45.25226670317351818084716796875" lon="-71.1302156746387481689453125">
        <ele>880.5999755859375</ele>
        <time>2026-08-22T02:19:33.000Z</time>
        <extensions>
          <ns3:TrackPointExtension>
            <ns3:hr>125</ns3:hr>
            <ns3:cad>45</ns3:cad>
          </ns3:TrackPointExtension>
        </extensions>
      </trkpt>
      <trkpt lat="45.2522609196603298187255859375" lon="-71.13021207042038440704345703125">
        <ele>880.79998779296875</ele>
        <time>2026-08-22T02:19:34.000Z</time>
        <extensions>
          <ns3:TrackPointExtension>
            <ns3:hr>126</ns3:hr>
            <ns3:cad>47</ns3:cad>
          </ns3:TrackPointExtension>
        </extensions>
      </trkpt>
      <trkpt lat="45.2522525377571582794189453125" lon="-71.1302074603736400604248046875">
        <ele>880.79998779296875</ele>
        <time>2026-08-22T02:19:35.000Z</time>
        <extensions>
          <ns3:TrackPointExtension>
            <ns3:hr>126</ns3:hr>
            <ns3:cad>47</ns3:cad>
          </ns3:TrackPointExtension>
        </extensions>
      </trkpt>
      <trkpt lat="45.25224608369171619415283203125" lon="-71.13020720891654491424560546875">
        <ele>881</ele>
        <time>2026-08-22T02:19:36.000Z</time>
        <extensions>
          <ns3:TrackPointExtension>
            <ns3:hr>127</ns3:hr>
            <ns3:cad>0</ns3:cad>
          </ns3:TrackPointExtension>
        </extensions>
      </trkpt>
      <trkpt lat="45.252234600484371185302734375" lon="-71.1302010901272296905517578125">
        <ele>881.20001220703125</ele>
        <time>2026-08-22T02:19:37.000Z</time>
        <extensions>
          <ns3:TrackPointExtension>
            <ns3:hr>127</ns3:hr>
            <ns3:cad>0</ns3:cad>
          </ns3:TrackPointExtension>
        </extensions>
      </trkpt>
      <trkpt lat="45.25222697295248508453369140625" lon="-71.130199246108531951904296875">
        <ele>881.4000244140625</ele>
        <time>2026-08-22T02:19:38.000Z</time>
        <extensions>
          <ns3:TrackPointExtension>
            <ns3:hr>128</ns3:hr>
            <ns3:cad>0</ns3:cad>
          </ns3:TrackPointExtension>
        </extensions>
      </trkpt>
      <trkpt lat="45.25221792049705982208251953125" lon="-71.13019597716629505157470703125">
        <ele>881.5999755859375</ele>
        <time>2026-08-22T02:19:39.000Z</time>
        <extensions>
          <ns3:TrackPointExtension>
            <ns3:hr>128</ns3:hr>
            <ns3:cad>0</ns3:cad>
          </ns3:TrackPointExtension>
        </extensions>
      </trkpt>
      <trkpt lat="45.25220618583261966705322265625" lon="-71.1301950551569461822509765625">
        <ele>881.79998779296875</ele>
        <time>2026-08-22T02:19:40.000Z</time>
        <extensions>
          <ns3:TrackPointExtension>
            <ns3:hr>128</ns3:hr>
            <ns3:cad>0</ns3:cad>
          </ns3:TrackPointExtension>
        </extensions>
      </trkpt>
      <trkpt lat="45.2521968819200992584228515625" lon="-71.1301968991756439208984375">
        <ele>881.79998779296875</ele>
        <time>2026-08-22T02:19:41.000Z</time>
        <extensions>
          <ns3:TrackPointExtension>
            <ns3:hr>128</ns3:hr>
            <ns3:cad>0</ns3:cad>
          </ns3:TrackPointExtension>
        </extensions>
      </trkpt>
      <trkpt lat="45.25218305177986621856689453125" lon="-71.13019849173724651336669921875">
        <ele>881.79998779296875</ele>
        <time>2026-08-22T02:19:42.000Z</time>
        <extensions>
          <ns3:TrackPointExtension>
            <ns3:hr>129</ns3:hr>
            <ns3:cad>0</ns3:cad>
          </ns3:TrackPointExtension>
        </extensions>
      </trkpt>
      <trkpt lat="45.25216930545866489410400390625" lon="-71.13020159304141998291015625">
        <ele>882</ele>
        <time>2026-08-22T02:19:43.000Z</time>
        <extensions>
          <ns3:TrackPointExtension>
            <ns3:hr>129</ns3:hr>
            <ns3:cad>0</ns3:cad>
          </ns3:TrackPointExtension>
        </extensions>
      </trkpt>
      <trkpt lat="45.25215706788003444671630859375" lon="-71.13020737655460834503173828125">
        <ele>882</ele>
        <time>2026-08-22T02:19:44.000Z</time>
        <extensions>
          <ns3:TrackPointExtension>
            <ns3:hr>130</ns3:hr>
            <ns3:cad>0</ns3:cad>
          </ns3:TrackPointExtension>
        </extensions>
      </trkpt>
      <trkpt lat="45.25214633904397487640380859375" lon="-71.13020829856395721435546875">
        <ele>882</ele>
        <time>2026-08-22T02:19:45.000Z</time>
        <extensions>
          <ns3:TrackPointExtension>
            <ns3:hr>130</ns3:hr>
            <ns3:cad>0</ns3:cad>
          </ns3:TrackPointExtension>
        </extensions>
      </trkpt>
      <trkpt lat="45.2521398849785327911376953125" lon="-71.13020620308816432952880859375">
        <ele>882</ele>
        <time>2026-08-22T02:19:46.000Z</time>
        <extensions>
          <ns3:TrackPointExtension>
            <ns3:hr>131</ns3:hr>
            <ns3:cad>0</ns3:cad>
          </ns3:TrackPointExtension>
        </extensions>
      </trkpt>
      <trkpt lat="45.25213192217051982879638671875" lon="-71.1302024312317371368408203125">
        <ele>882</ele>
        <time>2026-08-22T02:19:47.000Z</time>
        <extensions>
          <ns3:TrackPointExtension>
            <ns3:hr>132</ns3:hr>
            <ns3:cad>0</ns3:cad>
          </ns3:TrackPointExtension>
        </extensions>
      </trkpt>
      <trkpt lat="45.2521214447915554046630859375" lon="-71.13020301796495914459228515625">
        <ele>882.20001220703125</ele>
        <time>2026-08-22T02:19:48.000Z</time>
        <extensions>
          <ns3:TrackPointExtension>
            <ns3:hr>132</ns3:hr>
            <ns3:cad>0</ns3:cad>
          </ns3:TrackPointExtension>
        </extensions>
      </trkpt>
      <trkpt lat="45.2521113865077495574951171875" lon="-71.130204610526561737060546875">
        <ele>882.20001220703125</ele>
        <time>2026-08-22T02:19:49.000Z</time>
        <extensions>
          <ns3:TrackPointExtension>
            <ns3:hr>132</ns3:hr>
            <ns3:cad>0</ns3:cad>
          </ns3:TrackPointExtension>
        </extensions>
      </trkpt>
      <trkpt lat="45.25210241787135601043701171875" lon="-71.13021005876362323760986328125">
        <ele>882.4000244140625</ele>
        <time>2026-08-22T02:19:50.000Z</time>
        <extensions>
          <ns3:TrackPointExtension>
            <ns3:hr>130</ns3:hr>
            <ns3:cad>0</ns3:cad>
          </ns3:TrackPointExtension>
        </extensions>
      </trkpt>
      <trkpt lat="45.25209688581526279449462890625" lon="-71.13021223805844783782958984375">
        <ele>882.4000244140625</ele>
        <time>2026-08-22T02:19:51.000Z</time>
        <extensions>
          <ns3:TrackPointExtension>
            <ns3:hr>130</ns3:hr>
            <ns3:cad>0</ns3:cad>
          </ns3:TrackPointExtension>
        </extensions>
      </trkpt>
      <trkpt lat="45.25208347477018833160400390625" lon="-71.13021500408649444580078125">
        <ele>882.4000244140625</ele>
        <time>2026-08-22T02:19:52.000Z</time>
        <extensions>
          <ns3:TrackPointExtension>
            <ns3:hr>130</ns3:hr>
            <ns3:cad>0</ns3:cad>
          </ns3:TrackPointExtension>
        </extensions>
      </trkpt>
      <trkpt lat="45.2520741708576679229736328125" lon="-71.1302138306200504302978515625">
        <ele>882.5999755859375</ele>
        <time>2026-08-22T02:19:53.000Z</time>
        <extensions>
          <ns3:TrackPointExtension>
            <ns3:hr>130</ns3:hr>
            <ns3:cad>0</ns3:cad>
          </ns3:TrackPointExtension>
        </extensions>
      </trkpt>
      <trkpt lat="45.25206402875483036041259765625" lon="-71.13021927885711193084716796875">
        <ele>882.5999755859375</ele>
        <time>2026-08-22T02:19:54.000Z</time>
        <extensions>
          <ns3:TrackPointExtension>
            <ns3:hr>130</ns3:hr>
            <ns3:cad>0</ns3:cad>
          </ns3:TrackPointExtension>
        </extensions>
      </trkpt>
      <trkpt lat="45.25205413810908794403076171875" lon="-71.13022145815193653106689453125">
        <ele>882.5999755859375</ele>
        <time>2026-08-22T02:19:55.000Z</time>
        <extensions>
          <ns3:TrackPointExtension>
            <ns3:hr>130</ns3:hr>
            <ns3:cad>0</ns3:cad>
          </ns3:TrackPointExtension>
        </extensions>
      </trkpt>
      <trkpt lat="45.25204651057720184326171875" lon="-71.13022112287580966949462890625">
        <ele>882.5999755859375</ele>
        <time>2026-08-22T02:19:56.000Z</time>
        <extensions>
          <ns3:TrackPointExtension>
            <ns3:hr>129</ns3:hr>
            <ns3:cad>0</ns3:cad>
          </ns3:TrackPointExtension>
        </extensions>
      </trkpt>
      <trkpt lat="45.25203737430274486541748046875" lon="-71.1302212066948413848876953125">
        <ele>882.79998779296875</ele>
        <time>2026-08-22T02:19:57.000Z</time>
        <extensions>
          <ns3:TrackPointExtension>
            <ns3:hr>129</ns3:hr>
            <ns3:cad>0</ns3:cad>
          </ns3:TrackPointExtension>
        </extensions>
      </trkpt>
      <trkpt lat="45.25202496908605098724365234375" lon="-71.130218692123889923095703125">
        <ele>882.79998779296875</ele>
        <time>2026-08-22T02:19:58.000Z</time>
        <extensions>
          <ns3:TrackPointExtension>
            <ns3:hr>130</ns3:hr>
            <ns3:cad>0</ns3:cad>
          </ns3:TrackPointExtension>
        </extensions>
      </trkpt>
      <trkpt lat="45.25201809592545032501220703125" lon="-71.13021559081971645355224609375">
        <ele>883</ele>
        <time>2026-08-22T02:19:59.000Z</time>
        <extensions>
          <ns3:TrackPointExtension>
            <ns3:hr>130</ns3:hr>
            <ns3:cad>0</ns3:cad>
          </ns3:TrackPointExtension>
        </extensions>
      </trkpt>
      <trkpt lat="45.25201591663062572479248046875" lon="-71.1302114836871623992919921875">
        <ele>883.20001220703125</ele>
        <time>2026-08-22T02:20:00.000Z</time>
        <extensions>
          <ns3:TrackPointExtension>
            <ns3:hr>130</ns3:hr>
            <ns3:cad>0</ns3:cad>
          </ns3:TrackPointExtension>
        </extensions>
      </trkpt>
      <trkpt lat="45.2520074509084224700927734375" lon="-71.13020586781203746795654296875">
        <ele>883.4000244140625</ele>
        <time>2026-08-22T02:20:01.000Z</time>
        <extensions>
          <ns3:TrackPointExtension>
            <ns3:hr>131</ns3:hr>
            <ns3:cad>0</ns3:cad>
          </ns3:TrackPointExtension>
        </extensions>
      </trkpt>
      <trkpt lat="45.2519970573484897613525390625" lon="-71.1302077956497669219970703125">
        <ele>883.4000244140625</ele>
        <time>2026-08-22T02:20:02.000Z</time>
        <extensions>
          <ns3:TrackPointExtension>
            <ns3:hr>131</ns3:hr>
            <ns3:cad>0</ns3:cad>
          </ns3:TrackPointExtension>
        </extensions>
      </trkpt>
      <trkpt lat="45.25198507122695446014404296875" lon="-71.130209974944591522216796875">
        <ele>883.5999755859375</ele>
        <time>2026-08-22T02:20:03.000Z</time>
        <extensions>
          <ns3:TrackPointExtension>
            <ns3:hr>131</ns3:hr>
            <ns3:cad>0</ns3:cad>
          </ns3:TrackPointExtension>
        </extensions>
      </trkpt>
      <trkpt lat="45.25197702459990978240966796875" lon="-71.13020963966846466064453125">
        <ele>883.5999755859375</ele>
        <time>2026-08-22T02:20:04.000Z</time>
        <extensions>
          <ns3:TrackPointExtension>
            <ns3:hr>130</ns3:hr>
            <ns3:cad>0</ns3:cad>
          </ns3:TrackPointExtension>
        </extensions>
      </trkpt>
      <trkpt lat="45.25196545757353305816650390625" lon="-71.130207963287830352783203125">
        <ele>883.5999755859375</ele>
        <time>2026-08-22T02:20:05.000Z</time>
        <extensions>
          <ns3:TrackPointExtension>
            <ns3:hr>131</ns3:hr>
            <ns3:cad>0</ns3:cad>
          </ns3:TrackPointExtension>
        </extensions>
      </trkpt>
      <trkpt lat="45.25195724330842494964599609375" lon="-71.1302088014781475067138671875">
        <ele>883.79998779296875</ele>
        <time>2026-08-22T02:20:06.000Z</time>
        <extensions>
          <ns3:TrackPointExtension>
            <ns3:hr>131</ns3:hr>
            <ns3:cad>0</ns3:cad>
          </ns3:TrackPointExtension>
        </extensions>
      </trkpt>
      <trkpt lat="45.25195070542395114898681640625" lon="-71.13021190278232097625732421875">
        <ele>883.79998779296875</ele>
        <time>2026-08-22T02:20:07.000Z</time>
        <extensions>
          <ns3:TrackPointExtension>
            <ns3:hr>131</ns3:hr>
            <ns3:cad>0</ns3:cad>
          </ns3:TrackPointExtension>
        </extensions>
      </trkpt>
      <trkpt lat="45.2519420720636844635009765625" lon="-71.130206286907196044921875">
        <ele>883.79998779296875</ele>
        <time>2026-08-22T02:20:08.000Z</time>
        <extensions>
          <ns3:TrackPointExtension>
            <ns3:hr>132</ns3:hr>
            <ns3:cad>0</ns3:cad>
          </ns3:TrackPointExtension>
        </extensions>
      </trkpt>
      <trkpt lat="45.2519357018172740936279296875" lon="-71.13020536489784717559814453125">
        <ele>884</ele>
        <time>2026-08-22T02:20:09.000Z</time>
        <extensions>
          <ns3:TrackPointExtension>
            <ns3:hr>133</ns3:hr>
            <ns3:cad>0</ns3:cad>
          </ns3:TrackPointExtension>
        </extensions>
      </trkpt>
      <trkpt lat="45.2519316785037517547607421875" lon="-71.13020653836429119110107421875">
        <ele>884.20001220703125</ele>
        <time>2026-08-22T02:20:10.000Z</time>
        <extensions>
          <ns3:TrackPointExtension>
            <ns3:hr>134</ns3:hr>
            <ns3:cad>0</ns3:cad>
          </ns3:TrackPointExtension>
        </extensions>
      </trkpt>
      <trkpt lat="45.25192421860992908477783203125" lon="-71.13019832409918308258056640625">
        <ele>884.4000244140625</ele>
        <time>2026-08-22T02:20:11.000Z</time>
        <extensions>
          <ns3:TrackPointExtension>
            <ns3:hr>135</ns3:hr>
            <ns3:cad>0</ns3:cad>
          </ns3:TrackPointExtension>
        </extensions>
      </trkpt>
      <trkpt lat="45.25191684253513813018798828125" lon="-71.13019094802439212799072265625">
        <ele>884.5999755859375</ele>
        <time>2026-08-22T02:20:12.000Z</time>
        <extensions>
          <ns3:TrackPointExtension>
            <ns3:hr>135</ns3:hr>
            <ns3:cad>41</ns3:cad>
          </ns3:TrackPointExtension>
        </extensions>
      </trkpt>
      <trkpt lat="45.2519105561077594757080078125" lon="-71.1301923729479312896728515625">
        <ele>884.79998779296875</ele>
        <time>2026-08-22T02:20:13.000Z</time>
        <extensions>
          <ns3:TrackPointExtension>
            <ns3:hr>134</ns3:hr>
            <ns3:cad>41</ns3:cad>
          </ns3:TrackPointExtension>
        </extensions>
      </trkpt>
      <trkpt lat="45.2518978156149387359619140625" lon="-71.1301903612911701202392578125">
        <ele>885</ele>
        <time>2026-08-22T02:20:14.000Z</time>
        <extensions>
          <ns3:TrackPointExtension>
            <ns3:hr>134</ns3:hr>
            <ns3:cad>41</ns3:cad>
          </ns3:TrackPointExtension>
        </extensions>
      </trkpt>
      <trkpt lat="45.251888930797576904296875" lon="-71.1301917023956775665283203125">
        <ele>885.20001220703125</ele>
        <time>2026-08-22T02:20:15.000Z</time>
        <extensions>
          <ns3:TrackPointExtension>
            <ns3:hr>134</ns3:hr>
            <ns3:cad>41</ns3:cad>
          </ns3:TrackPointExtension>
        </extensions>
      </trkpt>
      <trkpt lat="45.25187996216118335723876953125" lon="-71.13019161857664585113525390625">
        <ele>885.4000244140625</ele>
        <time>2026-08-22T02:20:16.000Z</time>
        <extensions>
          <ns3:TrackPointExtension>
            <ns3:hr>134</ns3:hr>
            <ns3:cad>41</ns3:cad>
          </ns3:TrackPointExtension>
        </extensions>
      </trkpt>
      <trkpt lat="45.25187090970575809478759765625" lon="-71.1301910318434238433837890625">
        <ele>885.4000244140625</ele>
        <time>2026-08-22T02:20:17.000Z</time>
        <extensions>
          <ns3:TrackPointExtension>
            <ns3:hr>134</ns3:hr>
            <ns3:cad>0</ns3:cad>
          </ns3:TrackPointExtension>
        </extensions>
      </trkpt>
      <trkpt lat="45.25185615755617618560791015625" lon="-71.1301900260150432586669921875">
        <ele>885.5999755859375</ele>
        <time>2026-08-22T02:20:18.000Z</time>
        <extensions>
          <ns3:TrackPointExtension>
            <ns3:hr>134</ns3:hr>
            <ns3:cad>0</ns3:cad>
          </ns3:TrackPointExtension>
        </extensions>
      </trkpt>
      <trkpt lat="45.2518522180616855621337890625" lon="-71.1301900260150432586669921875">
        <ele>885.5999755859375</ele>
        <time>2026-08-22T02:20:19.000Z</time>
        <extensions>
          <ns3:TrackPointExtension>
            <ns3:hr>134</ns3:hr>
            <ns3:cad>0</ns3:cad>
          </ns3:TrackPointExtension>
        </extensions>
      </trkpt>
      <trkpt lat="45.2518441714346408843994140625" lon="-71.13018692471086978912353515625">
        <ele>885.79998779296875</ele>
        <time>2026-08-22T02:20:20.000Z</time>
        <extensions>
          <ns3:TrackPointExtension>
            <ns3:hr>135</ns3:hr>
            <ns3:cad>0</ns3:cad>
          </ns3:TrackPointExtension>
        </extensions>
      </trkpt>
      <trkpt lat="45.25183939374983310699462890625" lon="-71.13018373958766460418701171875">
        <ele>885.79998779296875</ele>
        <time>2026-08-22T02:20:21.000Z</time>
        <extensions>
          <ns3:TrackPointExtension>
            <ns3:hr>134</ns3:hr>
            <ns3:cad>0</ns3:cad>
          </ns3:TrackPointExtension>
        </extensions>
      </trkpt>
      <trkpt lat="45.25183754973113536834716796875" lon="-71.1301813088357448577880859375">
        <ele>886</ele>
        <time>2026-08-22T02:20:22.000Z</time>
        <extensions>
          <ns3:TrackPointExtension>
            <ns3:hr>134</ns3:hr>
            <ns3:cad>0</ns3:cad>
          </ns3:TrackPointExtension>
        </extensions>
      </trkpt>
      <trkpt lat="45.25183302350342273712158203125" lon="-71.13017904572188854217529296875">
        <ele>886.20001220703125</ele>
        <time>2026-08-22T02:20:23.000Z</time>
        <extensions>
          <ns3:TrackPointExtension>
            <ns3:hr>134</ns3:hr>
            <ns3:cad>0</ns3:cad>
          </ns3:TrackPointExtension>
        </extensions>
      </trkpt>
      <trkpt lat="45.25182791054248809814453125" lon="-71.13017535768449306488037109375">
        <ele>886.4000244140625</ele>
        <time>2026-08-22T02:20:24.000Z</time>
        <extensions>
          <ns3:TrackPointExtension>
            <ns3:hr>133</ns3:hr>
            <ns3:cad>0</ns3:cad>
          </ns3:TrackPointExtension>
        </extensions>
      </trkpt>
      <trkpt lat="45.25182095356285572052001953125" lon="-71.13017133437097072601318359375">
        <ele>886.4000244140625</ele>
        <time>2026-08-22T02:20:25.000Z</time>
        <extensions>
          <ns3:TrackPointExtension>
            <ns3:hr>133</ns3:hr>
            <ns3:cad>0</ns3:cad>
          </ns3:TrackPointExtension>
        </extensions>
      </trkpt>
      <trkpt lat="45.251813493669033050537109375" lon="-71.13016563467681407928466796875">
        <ele>886.5999755859375</ele>
        <time>2026-08-22T02:20:26.000Z</time>
        <extensions>
          <ns3:TrackPointExtension>
            <ns3:hr>133</ns3:hr>
            <ns3:cad>0</ns3:cad>
          </ns3:TrackPointExtension>
        </extensions>
      </trkpt>
      <trkpt lat="45.25180586613714694976806640625" lon="-71.13016211427748203277587890625">
        <ele>886.79998779296875</ele>
        <time>2026-08-22T02:20:27.000Z</time>
        <extensions>
          <ns3:TrackPointExtension>
            <ns3:hr>132</ns3:hr>
            <ns3:cad>76</ns3:cad>
          </ns3:TrackPointExtension>
        </extensions>
      </trkpt>
      <trkpt lat="45.251796729862689971923828125" lon="-71.1301566660404205322265625">
        <ele>887</ele>
        <time>2026-08-22T02:20:28.000Z</time>
        <extensions>
          <ns3:TrackPointExtension>
            <ns3:hr>132</ns3:hr>
            <ns3:cad>76</ns3:cad>
          </ns3:TrackPointExtension>
        </extensions>
      </trkpt>
      <trkpt lat="45.2517905272543430328369140625" lon="-71.13015976734459400177001953125">
        <ele>887</ele>
        <time>2026-08-22T02:20:29.000Z</time>
        <extensions>
          <ns3:TrackPointExtension>
            <ns3:hr>132</ns3:hr>
            <ns3:cad>76</ns3:cad>
          </ns3:TrackPointExtension>
        </extensions>
      </trkpt>
      <trkpt lat="45.2517834864556789398193359375" lon="-71.13016244955360889434814453125">
        <ele>887.20001220703125</ele>
        <time>2026-08-22T02:20:30.000Z</time>
        <extensions>
          <ns3:TrackPointExtension>
            <ns3:hr>131</ns3:hr>
            <ns3:cad>76</ns3:cad>
          </ns3:TrackPointExtension>
        </extensions>
      </trkpt>
      <trkpt lat="45.25178038515150547027587890625" lon="-71.13016362302005290985107421875">
        <ele>887.4000244140625</ele>
        <time>2026-08-22T02:20:31.000Z</time>
        <extensions>
          <ns3:TrackPointExtension>
            <ns3:hr>131</ns3:hr>
            <ns3:cad>0</ns3:cad>
          </ns3:TrackPointExtension>
        </extensions>
      </trkpt>
      <trkpt lat="45.25177485309541225433349609375" lon="-71.13015691749751567840576171875">
        <ele>887.4000244140625</ele>
        <time>2026-08-22T02:20:32.000Z</time>
        <extensions>
          <ns3:TrackPointExtension>
            <ns3:hr>131</ns3:hr>
            <ns3:cad>0</ns3:cad>
          </ns3:TrackPointExtension>
        </extensions>
      </trkpt>
      <trkpt lat="45.25177367962896823883056640625" lon="-71.13015758804976940155029296875">
        <ele>887.5999755859375</ele>
        <time>2026-08-22T02:20:33.000Z</time>
        <extensions>
          <ns3:TrackPointExtension>
            <ns3:hr>130</ns3:hr>
            <ns3:cad>0</ns3:cad>
          </ns3:TrackPointExtension>
        </extensions>
      </trkpt>
      <trkpt lat="45.25176965631544589996337890625" lon="-71.13015138544142246246337890625">
        <ele>887.5999755859375</ele>
        <time>2026-08-22T02:20:34.000Z</time>
        <extensions>
          <ns3:TrackPointExtension>
            <ns3:hr>130</ns3:hr>
            <ns3:cad>0</ns3:cad>
          </ns3:TrackPointExtension>
        </extensions>
      </trkpt>
      <trkpt lat="45.251768566668033599853515625" lon="-71.13014836795628070831298828125">
        <ele>887.79998779296875</ele>
        <time>2026-08-22T02:20:35.000Z</time>
        <extensions>
          <ns3:TrackPointExtension>
            <ns3:hr>129</ns3:hr>
            <ns3:cad>0</ns3:cad>
          </ns3:TrackPointExtension>
        </extensions>
      </trkpt>
      <trkpt lat="45.25176613591611385345458984375" lon="-71.13013881258666515350341796875">
        <ele>888</ele>
        <time>2026-08-22T02:20:36.000Z</time>
        <extensions>
          <ns3:TrackPointExtension>
            <ns3:hr>129</ns3:hr>
            <ns3:cad>45</ns3:cad>
          </ns3:TrackPointExtension>
        </extensions>
      </trkpt>
      <trkpt lat="45.2517647109925746917724609375" lon="-71.13013680092990398406982421875">
        <ele>888.20001220703125</ele>
        <time>2026-08-22T02:20:37.000Z</time>
        <extensions>
          <ns3:TrackPointExtension>
            <ns3:hr>129</ns3:hr>
            <ns3:cad>45</ns3:cad>
          </ns3:TrackPointExtension>
        </extensions>
      </trkpt>
      <trkpt lat="45.251763872802257537841796875" lon="-71.13013051450252532958984375">
        <ele>888.5999755859375</ele>
        <time>2026-08-22T02:20:38.000Z</time>
        <extensions>
          <ns3:TrackPointExtension>
            <ns3:hr>129</ns3:hr>
            <ns3:cad>0</ns3:cad>
          </ns3:TrackPointExtension>
        </extensions>
      </trkpt>
      <trkpt lat="45.25176026858389377593994140625" lon="-71.13012473098933696746826171875">
        <ele>888.79998779296875</ele>
        <time>2026-08-22T02:20:39.000Z</time>
        <extensions>
          <ns3:TrackPointExtension>
            <ns3:hr>128</ns3:hr>
            <ns3:cad>0</ns3:cad>
          </ns3:TrackPointExtension>
        </extensions>
      </trkpt>
      <trkpt lat="45.25175389833748340606689453125" lon="-71.13011802546679973602294921875">
        <ele>889</ele>
        <time>2026-08-22T02:20:40.000Z</time>
        <extensions>
          <ns3:TrackPointExtension>
            <ns3:hr>128</ns3:hr>
            <ns3:cad>0</ns3:cad>
          </ns3:TrackPointExtension>
        </extensions>
      </trkpt>
      <trkpt lat="45.2517476119101047515869140625" lon="-71.13010964356362819671630859375">
        <ele>889.20001220703125</ele>
        <time>2026-08-22T02:20:41.000Z</time>
        <extensions>
          <ns3:TrackPointExtension>
            <ns3:hr>128</ns3:hr>
            <ns3:cad>0</ns3:cad>
          </ns3:TrackPointExtension>
        </extensions>
      </trkpt>
      <trkpt lat="45.2517338655889034271240234375" lon="-71.1300981603562831878662109375">
        <ele>889.20001220703125</ele>
        <time>2026-08-22T02:20:42.000Z</time>
        <extensions>
          <ns3:TrackPointExtension>
            <ns3:hr>128</ns3:hr>
            <ns3:cad>0</ns3:cad>
          </ns3:TrackPointExtension>
        </extensions>
      </trkpt>
      <trkpt lat="45.251726321876049041748046875" lon="-71.1300917901098728179931640625">
        <ele>889.4000244140625</ele>
        <time>2026-08-22T02:20:43.000Z</time>
        <extensions>
          <ns3:TrackPointExtension>
            <ns3:hr>128</ns3:hr>
            <ns3:cad>0</ns3:cad>
          </ns3:TrackPointExtension>
        </extensions>
      </trkpt>
      <trkpt lat="45.25171919725835323333740234375" lon="-71.13008516840636730194091796875">
        <ele>889.4000244140625</ele>
        <time>2026-08-22T02:20:44.000Z</time>
        <extensions>
          <ns3:TrackPointExtension>
            <ns3:hr>127</ns3:hr>
            <ns3:cad>0</ns3:cad>
          </ns3:TrackPointExtension>
        </extensions>
      </trkpt>
      <trkpt lat="45.25171433575451374053955078125" lon="-71.130081228911876678466796875">
        <ele>889.5999755859375</ele>
        <time>2026-08-22T02:20:45.000Z</time>
        <extensions>
          <ns3:TrackPointExtension>
            <ns3:hr>128</ns3:hr>
            <ns3:cad>0</ns3:cad>
          </ns3:TrackPointExtension>
        </extensions>
      </trkpt>
      <trkpt lat="45.25170763023197650909423828125" lon="-71.1300756968557834625244140625">
        <ele>889.5999755859375</ele>
        <time>2026-08-22T02:20:46.000Z</time>
        <extensions>
          <ns3:TrackPointExtension>
            <ns3:hr>128</ns3:hr>
            <ns3:cad>0</ns3:cad>
          </ns3:TrackPointExtension>
        </extensions>
      </trkpt>
      <trkpt lat="45.2517016790807247161865234375" lon="-71.13007309846580028533935546875">
        <ele>889.5999755859375</ele>
        <time>2026-08-22T02:20:47.000Z</time>
        <extensions>
          <ns3:TrackPointExtension>
            <ns3:hr>128</ns3:hr>
            <ns3:cad>0</ns3:cad>
          </ns3:TrackPointExtension>
        </extensions>
      </trkpt>
      <trkpt lat="45.2516936324536800384521484375" lon="-71.13006924279034137725830078125">
        <ele>889.79998779296875</ele>
        <time>2026-08-22T02:20:48.000Z</time>
        <extensions>
          <ns3:TrackPointExtension>
            <ns3:hr>129</ns3:hr>
            <ns3:cad>0</ns3:cad>
          </ns3:TrackPointExtension>
        </extensions>
      </trkpt>
      <trkpt lat="45.2516886033117771148681640625" lon="-71.1300689913332462310791015625">
        <ele>889.79998779296875</ele>
        <time>2026-08-22T02:20:49.000Z</time>
        <extensions>
          <ns3:TrackPointExtension>
            <ns3:hr>130</ns3:hr>
            <ns3:cad>0</ns3:cad>
          </ns3:TrackPointExtension>
        </extensions>
      </trkpt>
      <trkpt lat="45.251679718494415283203125" lon="-71.13006991334259510040283203125">
        <ele>889.79998779296875</ele>
        <time>2026-08-22T02:20:50.000Z</time>
        <extensions>
          <ns3:TrackPointExtension>
            <ns3:hr>131</ns3:hr>
            <ns3:cad>0</ns3:cad>
          </ns3:TrackPointExtension>
        </extensions>
      </trkpt>
      <trkpt lat="45.25167527608573436737060546875" lon="-71.13006974570453166961669921875">
        <ele>890</ele>
        <time>2026-08-22T02:20:51.000Z</time>
        <extensions>
          <ns3:TrackPointExtension>
            <ns3:hr>131</ns3:hr>
            <ns3:cad>0</ns3:cad>
          </ns3:TrackPointExtension>
        </extensions>
      </trkpt>
      <trkpt lat="45.25166697800159454345703125" lon="-71.13006589002907276153564453125">
        <ele>890</ele>
        <time>2026-08-22T02:20:52.000Z</time>
        <extensions>
          <ns3:TrackPointExtension>
            <ns3:hr>130</ns3:hr>
            <ns3:cad>0</ns3:cad>
          </ns3:TrackPointExtension>
        </extensions>
      </trkpt>
      <trkpt lat="45.25166270323097705841064453125" lon="-71.1300596036016941070556640625">
        <ele>890.20001220703125</ele>
        <time>2026-08-22T02:20:53.000Z</time>
        <extensions>
          <ns3:TrackPointExtension>
            <ns3:hr>129</ns3:hr>
            <ns3:cad>0</ns3:cad>
          </ns3:TrackPointExtension>
        </extensions>
      </trkpt>
      <trkpt lat="45.25165985338389873504638671875" lon="-71.13005817867815494537353515625">
        <ele>890.20001220703125</ele>
        <time>2026-08-22T02:20:54.000Z</time>
        <extensions>
          <ns3:TrackPointExtension>
            <ns3:hr>129</ns3:hr>
            <ns3:cad>0</ns3:cad>
          </ns3:TrackPointExtension>
        </extensions>
      </trkpt>
      <trkpt lat="45.2516547404229640960693359375" lon="-71.13005650229752063751220703125">
        <ele>890.4000244140625</ele>
        <time>2026-08-22T02:20:55.000Z</time>
        <extensions>
          <ns3:TrackPointExtension>
            <ns3:hr>128</ns3:hr>
            <ns3:cad>0</ns3:cad>
          </ns3:TrackPointExtension>
        </extensions>
      </trkpt>
      <trkpt lat="45.251643843948841094970703125" lon="-71.130041666328907012939453125">
        <ele>890.5999755859375</ele>
        <time>2026-08-22T02:20:56.000Z</time>
        <extensions>
          <ns3:TrackPointExtension>
            <ns3:hr>129</ns3:hr>
            <ns3:cad>0</ns3:cad>
          </ns3:TrackPointExtension>
        </extensions>
      </trkpt>
      <trkpt lat="45.25163688696920871734619140625" lon="-71.13003521226346492767333984375">
        <ele>890.79998779296875</ele>
        <time>2026-08-22T02:20:57.000Z</time>
        <extensions>
          <ns3:TrackPointExtension>
            <ns3:hr>129</ns3:hr>
            <ns3:cad>0</ns3:cad>
          </ns3:TrackPointExtension>
        </extensions>
      </trkpt>
      <trkpt lat="45.2516295947134494781494140625" lon="-71.13003068603575229644775390625">
        <ele>891</ele>
        <time>2026-08-22T02:20:58.000Z</time>
        <extensions>
          <ns3:TrackPointExtension>
            <ns3:hr>129</ns3:hr>
            <ns3:cad>0</ns3:cad>
          </ns3:TrackPointExtension>
        </extensions>
      </trkpt>
      <trkpt lat="45.25162196718156337738037109375" lon="-71.13002230413258075714111328125">
        <ele>891.20001220703125</ele>
        <time>2026-08-22T02:20:59.000Z</time>
        <extensions>
          <ns3:TrackPointExtension>
            <ns3:hr>130</ns3:hr>
            <ns3:cad>0</ns3:cad>
          </ns3:TrackPointExtension>
        </extensions>
      </trkpt>
      <trkpt lat="45.2516192011535167694091796875" lon="-71.13002163358032703399658203125">
        <ele>891.4000244140625</ele>
        <time>2026-08-22T02:21:00.000Z</time>
        <extensions>
          <ns3:TrackPointExtension>
            <ns3:hr>130</ns3:hr>
            <ns3:cad>0</ns3:cad>
          </ns3:TrackPointExtension>
        </extensions>
      </trkpt>
      <trkpt lat="45.2516135014593601226806640625" lon="-71.130016185343265533447265625">
        <ele>891.5999755859375</ele>
        <time>2026-08-22T02:21:01.000Z</time>
        <extensions>
          <ns3:TrackPointExtension>
            <ns3:hr>130</ns3:hr>
            <ns3:cad>0</ns3:cad>
          </ns3:TrackPointExtension>
        </extensions>
      </trkpt>
      <trkpt lat="45.25160419754683971405029296875" lon="-71.13000579178333282470703125">
        <ele>891.5999755859375</ele>
        <time>2026-08-22T02:21:02.000Z</time>
        <extensions>
          <ns3:TrackPointExtension>
            <ns3:hr>130</ns3:hr>
            <ns3:cad>42</ns3:cad>
          </ns3:TrackPointExtension>
        </extensions>
      </trkpt>
      <trkpt lat="45.25159883312880992889404296875" lon="-71.1299995891749858856201171875">
        <ele>891.79998779296875</ele>
        <time>2026-08-22T02:21:03.000Z</time>
        <extensions>
          <ns3:TrackPointExtension>
            <ns3:hr>130</ns3:hr>
            <ns3:cad>42</ns3:cad>
          </ns3:TrackPointExtension>
        </extensions>
      </trkpt>
      <trkpt lat="45.25159514509141445159912109375" lon="-71.12999564968049526214599609375">
        <ele>892</ele>
        <time>2026-08-22T02:21:04.000Z</time>
        <extensions>
          <ns3:TrackPointExtension>
            <ns3:hr>130</ns3:hr>
            <ns3:cad>42</ns3:cad>
          </ns3:TrackPointExtension>
        </extensions>
      </trkpt>
      <trkpt lat="45.2515910379588603973388671875" lon="-71.12998844124376773834228515625">
        <ele>892.20001220703125</ele>
        <time>2026-08-22T02:21:05.000Z</time>
        <extensions>
          <ns3:TrackPointExtension>
            <ns3:hr>130</ns3:hr>
            <ns3:cad>42</ns3:cad>
          </ns3:TrackPointExtension>
        </extensions>
      </trkpt>
      <trkpt lat="45.2515833266079425811767578125" lon="-71.12997201271355152130126953125">
        <ele>892.4000244140625</ele>
        <time>2026-08-22T02:21:06.000Z</time>
        <extensions>
          <ns3:TrackPointExtension>
            <ns3:hr>130</ns3:hr>
            <ns3:cad>42</ns3:cad>
          </ns3:TrackPointExtension>
        </extensions>
      </trkpt>
      <trkpt lat="45.251577794551849365234375" lon="-71.1299608647823333740234375">
        <ele>892.5999755859375</ele>
        <time>2026-08-22T02:21:07.000Z</time>
        <extensions>
          <ns3:TrackPointExtension>
            <ns3:hr>131</ns3:hr>
            <ns3:cad>0</ns3:cad>
          </ns3:TrackPointExtension>
        </extensions>
      </trkpt>
      <trkpt lat="45.25157083757221698760986328125" lon="-71.1299519799649715423583984375">
        <ele>892.79998779296875</ele>
        <time>2026-08-22T02:21:08.000Z</time>
        <extensions>
          <ns3:TrackPointExtension>
            <ns3:hr>131</ns3:hr>
            <ns3:cad>0</ns3:cad>
          </ns3:TrackPointExtension>
        </extensions>
      </trkpt>
      <trkpt lat="45.2515618689358234405517578125" lon="-71.12994410097599029541015625">
        <ele>893</ele>
        <time>2026-08-22T02:21:09.000Z</time>
        <extensions>
          <ns3:TrackPointExtension>
            <ns3:hr>131</ns3:hr>
            <ns3:cad>0</ns3:cad>
          </ns3:TrackPointExtension>
        </extensions>
      </trkpt>
      <trkpt lat="45.2515548281371593475341796875" lon="-71.12993781454861164093017578125">
        <ele>893.20001220703125</ele>
        <time>2026-08-22T02:21:10.000Z</time>
        <extensions>
          <ns3:TrackPointExtension>
            <ns3:hr>132</ns3:hr>
            <ns3:cad>0</ns3:cad>
          </ns3:TrackPointExtension>
        </extensions>
      </trkpt>
      <trkpt lat="45.25154284201562404632568359375" lon="-71.12992255948483943939208984375">
        <ele>893.4000244140625</ele>
        <time>2026-08-22T02:21:11.000Z</time>
        <extensions>
          <ns3:TrackPointExtension>
            <ns3:hr>132</ns3:hr>
            <ns3:cad>0</ns3:cad>
          </ns3:TrackPointExtension>
        </extensions>
      </trkpt>
      <trkpt lat="45.25153152644634246826171875" lon="-71.12991216592490673065185546875">
        <ele>893.5999755859375</ele>
        <time>2026-08-22T02:21:12.000Z</time>
        <extensions>
          <ns3:TrackPointExtension>
            <ns3:hr>133</ns3:hr>
            <ns3:cad>48</ns3:cad>
          </ns3:TrackPointExtension>
        </extensions>
      </trkpt>
      <trkpt lat="45.2515226416289806365966796875" lon="-71.1299026943743228912353515625">
        <ele>893.5999755859375</ele>
        <time>2026-08-22T02:21:13.000Z</time>
        <extensions>
          <ns3:TrackPointExtension>
            <ns3:hr>134</ns3:hr>
            <ns3:cad>48</ns3:cad>
          </ns3:TrackPointExtension>
        </extensions>
      </trkpt>
      <trkpt lat="45.25151534937322139739990234375" lon="-71.129897497594356536865234375">
        <ele>893.79998779296875</ele>
        <time>2026-08-22T02:21:14.000Z</time>
        <extensions>
          <ns3:TrackPointExtension>
            <ns3:hr>134</ns3:hr>
            <ns3:cad>48</ns3:cad>
          </ns3:TrackPointExtension>
        </extensions>
      </trkpt>
      <trkpt lat="45.25150579400360584259033203125" lon="-71.129886098206043243408203125">
        <ele>893.79998779296875</ele>
        <time>2026-08-22T02:21:15.000Z</time>
        <extensions>
          <ns3:TrackPointExtension>
            <ns3:hr>135</ns3:hr>
            <ns3:cad>47</ns3:cad>
          </ns3:TrackPointExtension>
        </extensions>
      </trkpt>
      <trkpt lat="45.25149791501462459564208984375" lon="-71.12987595610320568084716796875">
        <ele>893.79998779296875</ele>
        <time>2026-08-22T02:21:16.000Z</time>
        <extensions>
          <ns3:TrackPointExtension>
            <ns3:hr>135</ns3:hr>
            <ns3:cad>47</ns3:cad>
          </ns3:TrackPointExtension>
        </extensions>
      </trkpt>
      <trkpt lat="45.25148970074951648712158203125" lon="-71.1298616230487823486328125">
        <ele>893.79998779296875</ele>
        <time>2026-08-22T02:21:17.000Z</time>
        <extensions>
          <ns3:TrackPointExtension>
            <ns3:hr>135</ns3:hr>
            <ns3:cad>47</ns3:cad>
          </ns3:TrackPointExtension>
        </extensions>
      </trkpt>
      <trkpt lat="45.2514847554266452789306640625" lon="-71.12985332496464252471923828125">
        <ele>894</ele>
        <time>2026-08-22T02:21:18.000Z</time>
        <extensions>
          <ns3:TrackPointExtension>
            <ns3:hr>135</ns3:hr>
            <ns3:cad>47</ns3:cad>
          </ns3:TrackPointExtension>
        </extensions>
      </trkpt>
      <trkpt lat="45.25147830136120319366455078125" lon="-71.12984142266213893890380859375">
        <ele>894</ele>
        <time>2026-08-22T02:21:19.000Z</time>
        <extensions>
          <ns3:TrackPointExtension>
            <ns3:hr>135</ns3:hr>
            <ns3:cad>0</ns3:cad>
          </ns3:TrackPointExtension>
        </extensions>
      </trkpt>
      <trkpt lat="45.25147545151412487030029296875" lon="-71.129833795130252838134765625">
        <ele>894</ele>
        <time>2026-08-22T02:21:20.000Z</time>
        <extensions>
          <ns3:TrackPointExtension>
            <ns3:hr>136</ns3:hr>
            <ns3:cad>0</ns3:cad>
          </ns3:TrackPointExtension>
        </extensions>
      </trkpt>
      <trkpt lat="45.2514733560383319854736328125" lon="-71.12981610931456089019775390625">
        <ele>894</ele>
        <time>2026-08-22T02:21:21.000Z</time>
        <extensions>
          <ns3:TrackPointExtension>
            <ns3:hr>136</ns3:hr>
            <ns3:cad>0</ns3:cad>
          </ns3:TrackPointExtension>
        </extensions>
      </trkpt>
      <trkpt lat="45.251472182571887969970703125" lon="-71.12979783676564693450927734375">
        <ele>894.20001220703125</ele>
        <time>2026-08-22T02:21:22.000Z</time>
        <extensions>
          <ns3:TrackPointExtension>
            <ns3:hr>135</ns3:hr>
            <ns3:cad>0</ns3:cad>
          </ns3:TrackPointExtension>
        </extensions>
      </trkpt>
      <trkpt lat="45.25147243402898311614990234375" lon="-71.12978761084377765655517578125">
        <ele>894.20001220703125</ele>
        <time>2026-08-22T02:21:23.000Z</time>
        <extensions>
          <ns3:TrackPointExtension>
            <ns3:hr>135</ns3:hr>
            <ns3:cad>0</ns3:cad>
          </ns3:TrackPointExtension>
        </extensions>
      </trkpt>
      <trkpt lat="45.25146874599158763885498046875" lon="-71.129764728248119354248046875">
        <ele>894.4000244140625</ele>
        <time>2026-08-22T02:21:24.000Z</time>
        <extensions>
          <ns3:TrackPointExtension>
            <ns3:hr>135</ns3:hr>
            <ns3:cad>0</ns3:cad>
          </ns3:TrackPointExtension>
        </extensions>
      </trkpt>
      <trkpt lat="45.251463465392589569091796875" lon="-71.12975307740271091461181640625">
        <ele>894.4000244140625</ele>
        <time>2026-08-22T02:21:25.000Z</time>
        <extensions>
          <ns3:TrackPointExtension>
            <ns3:hr>135</ns3:hr>
            <ns3:cad>0</ns3:cad>
          </ns3:TrackPointExtension>
        </extensions>
      </trkpt>
      <trkpt lat="45.25145642459392547607421875" lon="-71.12973849289119243621826171875">
        <ele>894.5999755859375</ele>
        <time>2026-08-22T02:21:26.000Z</time>
        <extensions>
          <ns3:TrackPointExtension>
            <ns3:hr>135</ns3:hr>
            <ns3:cad>0</ns3:cad>
          </ns3:TrackPointExtension>
        </extensions>
      </trkpt>
      <trkpt lat="45.25144343264400959014892578125" lon="-71.1297248303890228271484375">
        <ele>894.79998779296875</ele>
        <time>2026-08-22T02:21:27.000Z</time>
        <extensions>
          <ns3:TrackPointExtension>
            <ns3:hr>134</ns3:hr>
            <ns3:cad>0</ns3:cad>
          </ns3:TrackPointExtension>
        </extensions>
      </trkpt>
      <trkpt lat="45.25143102742731571197509765625" lon="-71.12971401773393154144287109375">
        <ele>895</ele>
        <time>2026-08-22T02:21:28.000Z</time>
        <extensions>
          <ns3:TrackPointExtension>
            <ns3:hr>134</ns3:hr>
            <ns3:cad>47</ns3:cad>
          </ns3:TrackPointExtension>
        </extensions>
      </trkpt>
      <trkpt lat="45.25141828693449497222900390625" lon="-71.1297114193439483642578125">
        <ele>895</ele>
        <time>2026-08-22T02:21:29.000Z</time>
        <extensions>
          <ns3:TrackPointExtension>
            <ns3:hr>134</ns3:hr>
            <ns3:cad>47</ns3:cad>
          </ns3:TrackPointExtension>
        </extensions>
      </trkpt>
      <trkpt lat="45.25140319950878620147705078125" lon="-71.1297055520117282867431640625">
        <ele>895.20001220703125</ele>
        <time>2026-08-22T02:21:30.000Z</time>
        <extensions>
          <ns3:TrackPointExtension>
            <ns3:hr>134</ns3:hr>
            <ns3:cad>47</ns3:cad>
          </ns3:TrackPointExtension>
        </extensions>
      </trkpt>
      <trkpt lat="45.2513885311782360076904296875" lon="-71.12969758920371532440185546875">
        <ele>895.20001220703125</ele>
        <time>2026-08-22T02:21:31.000Z</time>
        <extensions>
          <ns3:TrackPointExtension>
            <ns3:hr>133</ns3:hr>
            <ns3:cad>47</ns3:cad>
          </ns3:TrackPointExtension>
        </extensions>
      </trkpt>
      <trkpt lat="45.25137436576187610626220703125" lon="-71.1296877823770046234130859375">
        <ele>895.4000244140625</ele>
        <time>2026-08-22T02:21:32.000Z</time>
        <extensions>
          <ns3:TrackPointExtension>
            <ns3:hr>133</ns3:hr>
            <ns3:cad>47</ns3:cad>
          </ns3:TrackPointExtension>
        </extensions>
      </trkpt>
      <trkpt lat="45.2513586916029453277587890625" lon="-71.12968266941606998443603515625">
        <ele>895.4000244140625</ele>
        <time>2026-08-22T02:21:33.000Z</time>
        <extensions>
          <ns3:TrackPointExtension>
            <ns3:hr>133</ns3:hr>
            <ns3:cad>48</ns3:cad>
          </ns3:TrackPointExtension>
        </extensions>
      </trkpt>
      <trkpt lat="45.2513499744236469268798828125" lon="-71.12967981956899166107177734375">
        <ele>895.4000244140625</ele>
        <time>2026-08-22T02:21:34.000Z</time>
        <extensions>
          <ns3:TrackPointExtension>
            <ns3:hr>134</ns3:hr>
            <ns3:cad>48</ns3:cad>
          </ns3:TrackPointExtension>
        </extensions>
      </trkpt>
      <trkpt lat="45.25133295916020870208740234375" lon="-71.129674874246120452880859375">
        <ele>895.5999755859375</ele>
        <time>2026-08-22T02:21:35.000Z</time>
        <extensions>
          <ns3:TrackPointExtension>
            <ns3:hr>133</ns3:hr>
            <ns3:cad>48</ns3:cad>
          </ns3:TrackPointExtension>
        </extensions>
      </trkpt>
      <trkpt lat="45.2513231523334980010986328125" lon="-71.12966825254261493682861328125">
        <ele>895.5999755859375</ele>
        <time>2026-08-22T02:21:36.000Z</time>
        <extensions>
          <ns3:TrackPointExtension>
            <ns3:hr>134</ns3:hr>
            <ns3:cad>48</ns3:cad>
          </ns3:TrackPointExtension>
        </extensions>
      </trkpt>
      <trkpt lat="45.25131292641162872314453125" lon="-71.1296604573726654052734375">
        <ele>895.79998779296875</ele>
        <time>2026-08-22T02:21:37.000Z</time>
        <extensions>
          <ns3:TrackPointExtension>
            <ns3:hr>134</ns3:hr>
            <ns3:cad>48</ns3:cad>
          </ns3:TrackPointExtension>
        </extensions>
      </trkpt>
      <trkpt lat="45.2513006888329982757568359375" lon="-71.12965299747884273529052734375">
        <ele>895.79998779296875</ele>
        <time>2026-08-22T02:21:38.000Z</time>
        <extensions>
          <ns3:TrackPointExtension>
            <ns3:hr>134</ns3:hr>
            <ns3:cad>47</ns3:cad>
          </ns3:TrackPointExtension>
        </extensions>
      </trkpt>
      <trkpt lat="45.25129088200628757476806640625" lon="-71.12964863888919353485107421875">
        <ele>895.79998779296875</ele>
        <time>2026-08-22T02:21:39.000Z</time>
        <extensions>
          <ns3:TrackPointExtension>
            <ns3:hr>133</ns3:hr>
            <ns3:cad>47</ns3:cad>
          </ns3:TrackPointExtension>
        </extensions>
      </trkpt>
      <trkpt lat="45.2512799017131328582763671875" lon="-71.12964428029954433441162109375">
        <ele>896</ele>
        <time>2026-08-22T02:21:40.000Z</time>
        <extensions>
          <ns3:TrackPointExtension>
            <ns3:hr>133</ns3:hr>
            <ns3:cad>49</ns3:cad>
          </ns3:TrackPointExtension>
        </extensions>
      </trkpt>
      <trkpt lat="45.25127126835286617279052734375" lon="-71.129640005528926849365234375">
        <ele>896</ele>
        <time>2026-08-22T02:21:41.000Z</time>
        <extensions>
          <ns3:TrackPointExtension>
            <ns3:hr>133</ns3:hr>
            <ns3:cad>49</ns3:cad>
          </ns3:TrackPointExtension>
        </extensions>
      </trkpt>
      <trkpt lat="45.25126037187874317169189453125" lon="-71.12964059226214885711669921875">
        <ele>896</ele>
        <time>2026-08-22T02:21:42.000Z</time>
        <extensions>
          <ns3:TrackPointExtension>
            <ns3:hr>133</ns3:hr>
            <ns3:cad>49</ns3:cad>
          </ns3:TrackPointExtension>
        </extensions>
      </trkpt>
      <trkpt lat="45.2512453682720661163330078125" lon="-71.12963941879570484161376953125">
        <ele>896</ele>
        <time>2026-08-22T02:21:43.000Z</time>
        <extensions>
          <ns3:TrackPointExtension>
            <ns3:hr>132</ns3:hr>
            <ns3:cad>48</ns3:cad>
          </ns3:TrackPointExtension>
        </extensions>
      </trkpt>
      <trkpt lat="45.25123371742665767669677734375" lon="-71.12963556312024593353271484375">
        <ele>896</ele>
        <time>2026-08-22T02:21:44.000Z</time>
        <extensions>
          <ns3:TrackPointExtension>
            <ns3:hr>132</ns3:hr>
            <ns3:cad>48</ns3:cad>
          </ns3:TrackPointExtension>
        </extensions>
      </trkpt>
      <trkpt lat="45.25122164748609066009521484375" lon="-71.1296297796070575714111328125">
        <ele>896</ele>
        <time>2026-08-22T02:21:45.000Z</time>
        <extensions>
          <ns3:TrackPointExtension>
            <ns3:hr>132</ns3:hr>
            <ns3:cad>47</ns3:cad>
          </ns3:TrackPointExtension>
        </extensions>
      </trkpt>
      <trkpt lat="45.25120974518358707427978515625" lon="-71.12962466664612293243408203125">
        <ele>896</ele>
        <time>2026-08-22T02:21:46.000Z</time>
        <extensions>
          <ns3:TrackPointExtension>
            <ns3:hr>132</ns3:hr>
            <ns3:cad>47</ns3:cad>
          </ns3:TrackPointExtension>
        </extensions>
      </trkpt>
      <trkpt lat="45.25119868107140064239501953125" lon="-71.1296146921813488006591796875">
        <ele>896.20001220703125</ele>
        <time>2026-08-22T02:21:47.000Z</time>
        <extensions>
          <ns3:TrackPointExtension>
            <ns3:hr>131</ns3:hr>
            <ns3:cad>48</ns3:cad>
          </ns3:TrackPointExtension>
        </extensions>
      </trkpt>
      <trkpt lat="45.25118744932115077972412109375" lon="-71.1296083219349384307861328125">
        <ele>896.20001220703125</ele>
        <time>2026-08-22T02:21:48.000Z</time>
        <extensions>
          <ns3:TrackPointExtension>
            <ns3:hr>131</ns3:hr>
            <ns3:cad>48</ns3:cad>
          </ns3:TrackPointExtension>
        </extensions>
      </trkpt>
      <trkpt lat="45.2511799894273281097412109375" lon="-71.1296079866588115692138671875">
        <ele>896.20001220703125</ele>
        <time>2026-08-22T02:21:49.000Z</time>
        <extensions>
          <ns3:TrackPointExtension>
            <ns3:hr>130</ns3:hr>
            <ns3:cad>48</ns3:cad>
          </ns3:TrackPointExtension>
        </extensions>
      </trkpt>
      <trkpt lat="45.25117588229477405548095703125" lon="-71.1296016164124011993408203125">
        <ele>896.20001220703125</ele>
        <time>2026-08-22T02:21:50.000Z</time>
        <extensions>
          <ns3:TrackPointExtension>
            <ns3:hr>129</ns3:hr>
            <ns3:cad>0</ns3:cad>
          </ns3:TrackPointExtension>
        </extensions>
      </trkpt>
      <trkpt lat="45.25117345154285430908203125" lon="-71.1295982636511325836181640625">
        <ele>896.4000244140625</ele>
        <time>2026-08-22T02:21:51.000Z</time>
        <extensions>
          <ns3:TrackPointExtension>
            <ns3:hr>129</ns3:hr>
            <ns3:cad>0</ns3:cad>
          </ns3:TrackPointExtension>
        </extensions>
      </trkpt>
      <trkpt lat="45.25116397999227046966552734375" lon="-71.12959004938602447509765625">
        <ele>896.4000244140625</ele>
        <time>2026-08-22T02:21:52.000Z</time>
        <extensions>
          <ns3:TrackPointExtension>
            <ns3:hr>129</ns3:hr>
            <ns3:cad>0</ns3:cad>
          </ns3:TrackPointExtension>
        </extensions>
      </trkpt>
      <trkpt lat="45.25115224532783031463623046875" lon="-71.1295811645686626434326171875">
        <ele>896.4000244140625</ele>
        <time>2026-08-22T02:21:53.000Z</time>
        <extensions>
          <ns3:TrackPointExtension>
            <ns3:hr>130</ns3:hr>
            <ns3:cad>0</ns3:cad>
          </ns3:TrackPointExtension>
        </extensions>
      </trkpt>
      <trkpt lat="45.2511451207101345062255859375" lon="-71.12957336939871311187744140625">
        <ele>896.5999755859375</ele>
        <time>2026-08-22T02:21:54.000Z</time>
        <extensions>
          <ns3:TrackPointExtension>
            <ns3:hr>130</ns3:hr>
            <ns3:cad>0</ns3:cad>
          </ns3:TrackPointExtension>
        </extensions>
      </trkpt>
      <trkpt lat="45.2511370740830898284912109375" lon="-71.12956993281841278076171875">
        <ele>896.79998779296875</ele>
        <time>2026-08-22T02:21:55.000Z</time>
        <extensions>
          <ns3:TrackPointExtension>
            <ns3:hr>130</ns3:hr>
            <ns3:cad>0</ns3:cad>
          </ns3:TrackPointExtension>
        </extensions>
      </trkpt>
      <trkpt lat="45.25112911127507686614990234375" lon="-71.12956616096198558807373046875">
        <ele>897</ele>
        <time>2026-08-22T02:21:56.000Z</time>
        <extensions>
          <ns3:TrackPointExtension>
            <ns3:hr>130</ns3:hr>
            <ns3:cad>0</ns3:cad>
          </ns3:TrackPointExtension>
        </extensions>
      </trkpt>
      <trkpt lat="45.25112156756222248077392578125" lon="-71.12956448458135128021240234375">
        <ele>897.20001220703125</ele>
        <time>2026-08-22T02:21:57.000Z</time>
        <extensions>
          <ns3:TrackPointExtension>
            <ns3:hr>130</ns3:hr>
            <ns3:cad>0</ns3:cad>
          </ns3:TrackPointExtension>
        </extensions>
      </trkpt>
      <trkpt lat="45.251111090183258056640625" lon="-71.12956297583878040313720703125">
        <ele>897.4000244140625</ele>
        <time>2026-08-22T02:21:58.000Z</time>
        <extensions>
          <ns3:TrackPointExtension>
            <ns3:hr>129</ns3:hr>
            <ns3:cad>47</ns3:cad>
          </ns3:TrackPointExtension>
        </extensions>
      </trkpt>
      <trkpt lat="45.2511052228510379791259765625" lon="-71.12955878488719463348388671875">
        <ele>897.4000244140625</ele>
        <time>2026-08-22T02:21:59.000Z</time>
        <extensions>
          <ns3:TrackPointExtension>
            <ns3:hr>129</ns3:hr>
            <ns3:cad>47</ns3:cad>
          </ns3:TrackPointExtension>
        </extensions>
      </trkpt>
      <trkpt lat="45.25110103189945220947265625" lon="-71.1295536719262599945068359375">
        <ele>897.4000244140625</ele>
        <time>2026-08-22T02:22:00.000Z</time>
        <extensions>
          <ns3:TrackPointExtension>
            <ns3:hr>129</ns3:hr>
            <ns3:cad>47</ns3:cad>
          </ns3:TrackPointExtension>
        </extensions>
      </trkpt>
      <trkpt lat="45.251096002757549285888671875" lon="-71.129545457661151885986328125">
        <ele>897.4000244140625</ele>
        <time>2026-08-22T02:22:01.000Z</time>
        <extensions>
          <ns3:TrackPointExtension>
            <ns3:hr>130</ns3:hr>
            <ns3:cad>47</ns3:cad>
          </ns3:TrackPointExtension>
        </extensions>
      </trkpt>
      <trkpt lat="45.251092649996280670166015625" lon="-71.12954017706215381622314453125">
        <ele>897.5999755859375</ele>
        <time>2026-08-22T02:22:02.000Z</time>
        <extensions>
          <ns3:TrackPointExtension>
            <ns3:hr>129</ns3:hr>
            <ns3:cad>43</ns3:cad>
          </ns3:TrackPointExtension>
        </extensions>
      </trkpt>
      <trkpt lat="45.25108535774052143096923828125" lon="-71.1295318789780139923095703125">
        <ele>897.79998779296875</ele>
        <time>2026-08-22T02:22:03.000Z</time>
        <extensions>
          <ns3:TrackPointExtension>
            <ns3:hr>129</ns3:hr>
            <ns3:cad>43</ns3:cad>
          </ns3:TrackPointExtension>
        </extensions>
      </trkpt>
      <trkpt lat="45.25107982568442821502685546875" lon="-71.1295317113399505615234375">
        <ele>898.20001220703125</ele>
        <time>2026-08-22T02:22:04.000Z</time>
        <extensions>
          <ns3:TrackPointExtension>
            <ns3:hr>130</ns3:hr>
            <ns3:cad>43</ns3:cad>
          </ns3:TrackPointExtension>
        </extensions>
      </trkpt>
      <trkpt lat="45.25106607936322689056396484375" lon="-71.1295238323509693145751953125">
        <ele>898.5999755859375</ele>
        <time>2026-08-22T02:22:05.000Z</time>
        <extensions>
          <ns3:TrackPointExtension>
            <ns3:hr>130</ns3:hr>
            <ns3:cad>0</ns3:cad>
          </ns3:TrackPointExtension>
        </extensions>
      </trkpt>
      <trkpt lat="45.2510616369545459747314453125" lon="-71.1295263469219207763671875">
        <ele>899</ele>
        <time>2026-08-22T02:22:06.000Z</time>
        <extensions>
          <ns3:TrackPointExtension>
            <ns3:hr>130</ns3:hr>
            <ns3:cad>0</ns3:cad>
          </ns3:TrackPointExtension>
        </extensions>
      </trkpt>
      <trkpt lat="45.2510519139468669891357421875" lon="-71.129519976675510406494140625">
        <ele>899.20001220703125</ele>
        <time>2026-08-22T02:22:07.000Z</time>
        <extensions>
          <ns3:TrackPointExtension>
            <ns3:hr>130</ns3:hr>
            <ns3:cad>0</ns3:cad>
          </ns3:TrackPointExtension>
        </extensions>
      </trkpt>
      <trkpt lat="45.25103758089244365692138671875" lon="-71.129507236182689666748046875">
        <ele>899.4000244140625</ele>
        <time>2026-08-22T02:22:08.000Z</time>
        <extensions>
          <ns3:TrackPointExtension>
            <ns3:hr>130</ns3:hr>
            <ns3:cad>0</ns3:cad>
          </ns3:TrackPointExtension>
        </extensions>
      </trkpt>
      <trkpt lat="45.2510284446179866790771484375" lon="-71.1295017041265964508056640625">
        <ele>899.5999755859375</ele>
        <time>2026-08-22T02:22:09.000Z</time>
        <extensions>
          <ns3:TrackPointExtension>
            <ns3:hr>129</ns3:hr>
            <ns3:cad>0</ns3:cad>
          </ns3:TrackPointExtension>
        </extensions>
      </trkpt>
      <trkpt lat="45.25101293809711933135986328125" lon="-71.12949223257601261138916015625">
        <ele>899.5999755859375</ele>
        <time>2026-08-22T02:22:10.000Z</time>
        <extensions>
          <ns3:TrackPointExtension>
            <ns3:hr>129</ns3:hr>
            <ns3:cad>0</ns3:cad>
          </ns3:TrackPointExtension>
        </extensions>
      </trkpt>
      <trkpt lat="45.2510022930800914764404296875" lon="-71.1294852755963802337646484375">
        <ele>899.79998779296875</ele>
        <time>2026-08-22T02:22:11.000Z</time>
        <extensions>
          <ns3:TrackPointExtension>
            <ns3:hr>129</ns3:hr>
            <ns3:cad>0</ns3:cad>
          </ns3:TrackPointExtension>
        </extensions>
      </trkpt>
      <trkpt lat="45.25099315680563449859619140625" lon="-71.1294799111783504486083984375">
        <ele>899.79998779296875</ele>
        <time>2026-08-22T02:22:12.000Z</time>
        <extensions>
          <ns3:TrackPointExtension>
            <ns3:hr>129</ns3:hr>
            <ns3:cad>0</ns3:cad>
          </ns3:TrackPointExtension>
        </extensions>
      </trkpt>
      <trkpt lat="45.250976644456386566162109375" lon="-71.129470355808734893798828125">
        <ele>900</ele>
        <time>2026-08-22T02:22:13.000Z</time>
        <extensions>
          <ns3:TrackPointExtension>
            <ns3:hr>130</ns3:hr>
            <ns3:cad>0</ns3:cad>
          </ns3:TrackPointExtension>
        </extensions>
      </trkpt>
      <trkpt lat="45.25096532888710498809814453125" lon="-71.1294665001332759857177734375">
        <ele>900.20001220703125</ele>
        <time>2026-08-22T02:22:14.000Z</time>
        <extensions>
          <ns3:TrackPointExtension>
            <ns3:hr>130</ns3:hr>
            <ns3:cad>0</ns3:cad>
          </ns3:TrackPointExtension>
        </extensions>
      </trkpt>
      <trkpt lat="45.25095828808844089508056640625" lon="-71.1294651590287685394287109375">
        <ele>900.4000244140625</ele>
        <time>2026-08-22T02:22:15.000Z</time>
        <extensions>
          <ns3:TrackPointExtension>
            <ns3:hr>131</ns3:hr>
            <ns3:cad>0</ns3:cad>
          </ns3:TrackPointExtension>
        </extensions>
      </trkpt>
      <trkpt lat="45.25095107965171337127685546875" lon="-71.1294644884765148162841796875">
        <ele>900.5999755859375</ele>
        <time>2026-08-22T02:22:16.000Z</time>
        <extensions>
          <ns3:TrackPointExtension>
            <ns3:hr>132</ns3:hr>
            <ns3:cad>0</ns3:cad>
          </ns3:TrackPointExtension>
        </extensions>
      </trkpt>
      <trkpt lat="45.250947810709476470947265625" lon="-71.12946038134396076202392578125">
        <ele>900.79998779296875</ele>
        <time>2026-08-22T02:22:17.000Z</time>
        <extensions>
          <ns3:TrackPointExtension>
            <ns3:hr>133</ns3:hr>
            <ns3:cad>0</ns3:cad>
          </ns3:TrackPointExtension>
        </extensions>
      </trkpt>
      <trkpt lat="45.2509362436830997467041015625" lon="-71.12946105189621448516845703125">
        <ele>901</ele>
        <time>2026-08-22T02:22:18.000Z</time>
        <extensions>
          <ns3:TrackPointExtension>
            <ns3:hr>133</ns3:hr>
            <ns3:cad>0</ns3:cad>
          </ns3:TrackPointExtension>
        </extensions>
      </trkpt>
      <trkpt lat="45.250921659171581268310546875" lon="-71.12946021370589733123779296875">
        <ele>901.20001220703125</ele>
        <time>2026-08-22T02:22:19.000Z</time>
        <extensions>
          <ns3:TrackPointExtension>
            <ns3:hr>134</ns3:hr>
            <ns3:cad>0</ns3:cad>
          </ns3:TrackPointExtension>
        </extensions>
      </trkpt>
      <trkpt lat="45.2509077452123165130615234375" lon="-71.12946557812392711639404296875">
        <ele>901.5999755859375</ele>
        <time>2026-08-22T02:22:20.000Z</time>
        <extensions>
          <ns3:TrackPointExtension>
            <ns3:hr>134</ns3:hr>
            <ns3:cad>0</ns3:cad>
          </ns3:TrackPointExtension>
        </extensions>
      </trkpt>
      <trkpt lat="45.25090078823268413543701171875" lon="-71.129464320838451385498046875">
        <ele>901.5999755859375</ele>
        <time>2026-08-22T02:22:21.000Z</time>
        <extensions>
          <ns3:TrackPointExtension>
            <ns3:hr>134</ns3:hr>
            <ns3:cad>0</ns3:cad>
          </ns3:TrackPointExtension>
        </extensions>
      </trkpt>
      <trkpt lat="45.25089475326240062713623046875" lon="-71.12946121953427791595458984375">
        <ele>901.79998779296875</ele>
        <time>2026-08-22T02:22:22.000Z</time>
        <extensions>
          <ns3:TrackPointExtension>
            <ns3:hr>133</ns3:hr>
            <ns3:cad>0</ns3:cad>
          </ns3:TrackPointExtension>
        </extensions>
      </trkpt>
      <trkpt lat="45.25088553316891193389892578125" lon="-71.1294566094875335693359375">
        <ele>902</ele>
        <time>2026-08-22T02:22:23.000Z</time>
        <extensions>
          <ns3:TrackPointExtension>
            <ns3:hr>134</ns3:hr>
            <ns3:cad>0</ns3:cad>
          </ns3:TrackPointExtension>
        </extensions>
      </trkpt>
      <trkpt lat="45.25087513960897922515869140625" lon="-71.129449568688869476318359375">
        <ele>902</ele>
        <time>2026-08-22T02:22:24.000Z</time>
        <extensions>
          <ns3:TrackPointExtension>
            <ns3:hr>134</ns3:hr>
            <ns3:cad>0</ns3:cad>
          </ns3:TrackPointExtension>
        </extensions>
      </trkpt>
      <trkpt lat="45.25086390785872936248779296875" lon="-71.12944663502275943756103515625">
        <ele>902.20001220703125</ele>
        <time>2026-08-22T02:22:25.000Z</time>
        <extensions>
          <ns3:TrackPointExtension>
            <ns3:hr>133</ns3:hr>
            <ns3:cad>0</ns3:cad>
          </ns3:TrackPointExtension>
        </extensions>
      </trkpt>
      <trkpt lat="45.25085669942200183868408203125" lon="-71.129444204270839691162109375">
        <ele>902.20001220703125</ele>
        <time>2026-08-22T02:22:26.000Z</time>
        <extensions>
          <ns3:TrackPointExtension>
            <ns3:hr>134</ns3:hr>
            <ns3:cad>0</ns3:cad>
          </ns3:TrackPointExtension>
        </extensions>
      </trkpt>
      <trkpt lat="45.250849239528179168701171875" lon="-71.129441522061824798583984375">
        <ele>902.4000244140625</ele>
        <time>2026-08-22T02:22:27.000Z</time>
        <extensions>
          <ns3:TrackPointExtension>
            <ns3:hr>134</ns3:hr>
            <ns3:cad>0</ns3:cad>
          </ns3:TrackPointExtension>
        </extensions>
      </trkpt>
      <trkpt lat="45.25083281099796295166015625" lon="-71.12943808548152446746826171875">
        <ele>902.5999755859375</ele>
        <time>2026-08-22T02:22:28.000Z</time>
        <extensions>
          <ns3:TrackPointExtension>
            <ns3:hr>134</ns3:hr>
            <ns3:cad>0</ns3:cad>
          </ns3:TrackPointExtension>
        </extensions>
      </trkpt>
      <trkpt lat="45.25082417763769626617431640625" lon="-71.1294316314160823822021484375">
        <ele>902.5999755859375</ele>
        <time>2026-08-22T02:22:29.000Z</time>
        <extensions>
          <ns3:TrackPointExtension>
            <ns3:hr>133</ns3:hr>
            <ns3:cad>0</ns3:cad>
          </ns3:TrackPointExtension>
        </extensions>
      </trkpt>
      <trkpt lat="45.25081411935389041900634765625" lon="-71.12942517735064029693603515625">
        <ele>902.79998779296875</ele>
        <time>2026-08-22T02:22:30.000Z</time>
        <extensions>
          <ns3:TrackPointExtension>
            <ns3:hr>133</ns3:hr>
            <ns3:cad>47</ns3:cad>
          </ns3:TrackPointExtension>
        </extensions>
      </trkpt>
      <trkpt lat="45.25080724619328975677490234375" lon="-71.12941796891391277313232421875">
        <ele>903</ele>
        <time>2026-08-22T02:22:31.000Z</time>
        <extensions>
          <ns3:TrackPointExtension>
            <ns3:hr>133</ns3:hr>
            <ns3:cad>47</ns3:cad>
          </ns3:TrackPointExtension>
        </extensions>
      </trkpt>
      <trkpt lat="45.2508001215755939483642578125" lon="-71.12941210158169269561767578125">
        <ele>903.20001220703125</ele>
        <time>2026-08-22T02:22:32.000Z</time>
        <extensions>
          <ns3:TrackPointExtension>
            <ns3:hr>132</ns3:hr>
            <ns3:cad>47</ns3:cad>
          </ns3:TrackPointExtension>
        </extensions>
      </trkpt>
      <trkpt lat="45.250788889825344085693359375" lon="-71.12940757535398006439208984375">
        <ele>903.4000244140625</ele>
        <time>2026-08-22T02:22:33.000Z</time>
        <extensions>
          <ns3:TrackPointExtension>
            <ns3:hr>132</ns3:hr>
            <ns3:cad>50</ns3:cad>
          </ns3:TrackPointExtension>
        </extensions>
      </trkpt>
      <trkpt lat="45.25077790953218936920166015625" lon="-71.12940070219337940216064453125">
        <ele>903.4000244140625</ele>
        <time>2026-08-22T02:22:34.000Z</time>
        <extensions>
          <ns3:TrackPointExtension>
            <ns3:hr>132</ns3:hr>
            <ns3:cad>50</ns3:cad>
          </ns3:TrackPointExtension>
        </extensions>
      </trkpt>
      <trkpt lat="45.25076751597225666046142578125" lon="-71.12939701415598392486572265625">
        <ele>903.5999755859375</ele>
        <time>2026-08-22T02:22:35.000Z</time>
        <extensions>
          <ns3:TrackPointExtension>
            <ns3:hr>132</ns3:hr>
            <ns3:cad>48</ns3:cad>
          </ns3:TrackPointExtension>
        </extensions>
      </trkpt>
      <trkpt lat="45.25075511075556278228759765625" lon="-71.12939022481441497802734375">
        <ele>903.5999755859375</ele>
        <time>2026-08-22T02:22:36.000Z</time>
        <extensions>
          <ns3:TrackPointExtension>
            <ns3:hr>132</ns3:hr>
            <ns3:cad>48</ns3:cad>
          </ns3:TrackPointExtension>
        </extensions>
      </trkpt>
      <trkpt lat="45.25074622593820095062255859375" lon="-71.1293840222060680389404296875">
        <ele>903.5999755859375</ele>
        <time>2026-08-22T02:22:37.000Z</time>
        <extensions>
          <ns3:TrackPointExtension>
            <ns3:hr>132</ns3:hr>
            <ns3:cad>48</ns3:cad>
          </ns3:TrackPointExtension>
        </extensions>
      </trkpt>
      <trkpt lat="45.2507320605218410491943359375" lon="-71.12938008271157741546630859375">
        <ele>903.5999755859375</ele>
        <time>2026-08-22T02:22:38.000Z</time>
        <extensions>
          <ns3:TrackPointExtension>
            <ns3:hr>132</ns3:hr>
            <ns3:cad>48</ns3:cad>
          </ns3:TrackPointExtension>
        </extensions>
      </trkpt>
      <trkpt lat="45.25071923620998859405517578125" lon="-71.12937748432159423828125">
        <ele>903.79998779296875</ele>
        <time>2026-08-22T02:22:39.000Z</time>
        <extensions>
          <ns3:TrackPointExtension>
            <ns3:hr>132</ns3:hr>
            <ns3:cad>48</ns3:cad>
          </ns3:TrackPointExtension>
        </extensions>
      </trkpt>
      <trkpt lat="45.2507065795361995697021484375" lon="-71.12937807105481624603271484375">
        <ele>903.79998779296875</ele>
        <time>2026-08-22T02:22:40.000Z</time>
        <extensions>
          <ns3:TrackPointExtension>
            <ns3:hr>132</ns3:hr>
            <ns3:cad>47</ns3:cad>
          </ns3:TrackPointExtension>
        </extensions>
      </trkpt>
      <trkpt lat="45.25069341994822025299072265625" lon="-71.12937455065548419952392578125">
        <ele>904</ele>
        <time>2026-08-22T02:22:41.000Z</time>
        <extensions>
          <ns3:TrackPointExtension>
            <ns3:hr>132</ns3:hr>
            <ns3:cad>47</ns3:cad>
          </ns3:TrackPointExtension>
        </extensions>
      </trkpt>
      <trkpt lat="45.2506767399609088897705078125" lon="-71.12937153317034244537353515625">
        <ele>904.20001220703125</ele>
        <time>2026-08-22T02:22:42.000Z</time>
        <extensions>
          <ns3:TrackPointExtension>
            <ns3:hr>131</ns3:hr>
            <ns3:cad>47</ns3:cad>
          </ns3:TrackPointExtension>
        </extensions>
      </trkpt>
      <trkpt lat="45.2506663464009761810302734375" lon="-71.12937052734196186065673828125">
        <ele>904.20001220703125</ele>
        <time>2026-08-22T02:22:43.000Z</time>
        <extensions>
          <ns3:TrackPointExtension>
            <ns3:hr>131</ns3:hr>
            <ns3:cad>45</ns3:cad>
          </ns3:TrackPointExtension>
        </extensions>
      </trkpt>
      <trkpt lat="45.250646062195301055908203125" lon="-71.129373125731945037841796875">
        <ele>904.20001220703125</ele>
        <time>2026-08-22T02:22:44.000Z</time>
        <extensions>
          <ns3:TrackPointExtension>
            <ns3:hr>131</ns3:hr>
            <ns3:cad>45</ns3:cad>
          </ns3:TrackPointExtension>
        </extensions>
      </trkpt>
      <trkpt lat="45.2506358362734317779541015625" lon="-71.1293789930641651153564453125">
        <ele>904.4000244140625</ele>
        <time>2026-08-22T02:22:45.000Z</time>
        <extensions>
          <ns3:TrackPointExtension>
            <ns3:hr>132</ns3:hr>
            <ns3:cad>45</ns3:cad>
          </ns3:TrackPointExtension>
        </extensions>
      </trkpt>
      <trkpt lat="45.25062435306608676910400390625" lon="-71.129386536777019500732421875">
        <ele>904.4000244140625</ele>
        <time>2026-08-22T02:22:46.000Z</time>
        <extensions>
          <ns3:TrackPointExtension>
            <ns3:hr>131</ns3:hr>
            <ns3:cad>45</ns3:cad>
          </ns3:TrackPointExtension>
        </extensions>
      </trkpt>
      <trkpt lat="45.25061312131583690643310546875" lon="-71.1293907277286052703857421875">
        <ele>904.5999755859375</ele>
        <time>2026-08-22T02:22:47.000Z</time>
        <extensions>
          <ns3:TrackPointExtension>
            <ns3:hr>131</ns3:hr>
            <ns3:cad>45</ns3:cad>
          </ns3:TrackPointExtension>
        </extensions>
      </trkpt>
      <trkpt lat="45.2505932562053203582763671875" lon="-71.1293976008892059326171875">
        <ele>904.5999755859375</ele>
        <time>2026-08-22T02:22:48.000Z</time>
        <extensions>
          <ns3:TrackPointExtension>
            <ns3:hr>131</ns3:hr>
            <ns3:cad>45</ns3:cad>
          </ns3:TrackPointExtension>
        </extensions>
      </trkpt>
      <trkpt lat="45.25057590566575527191162109375" lon="-71.12940422259271144866943359375">
        <ele>904.79998779296875</ele>
        <time>2026-08-22T02:22:49.000Z</time>
        <extensions>
          <ns3:TrackPointExtension>
            <ns3:hr>131</ns3:hr>
            <ns3:cad>45</ns3:cad>
          </ns3:TrackPointExtension>
        </extensions>
      </trkpt>
      <trkpt lat="45.250561572611331939697265625" lon="-71.1294135265052318572998046875">
        <ele>905</ele>
        <time>2026-08-22T02:22:50.000Z</time>
        <extensions>
          <ns3:TrackPointExtension>
            <ns3:hr>132</ns3:hr>
            <ns3:cad>0</ns3:cad>
          </ns3:TrackPointExtension>
        </extensions>
      </trkpt>
      <trkpt lat="45.2505479939281940460205078125" lon="-71.12942266277968883514404296875">
        <ele>905</ele>
        <time>2026-08-22T02:22:51.000Z</time>
        <extensions>
          <ns3:TrackPointExtension>
            <ns3:hr>132</ns3:hr>
            <ns3:cad>0</ns3:cad>
          </ns3:TrackPointExtension>
        </extensions>
      </trkpt>
      <trkpt lat="45.2505335770547389984130859375" lon="-71.12943272106349468231201171875">
        <ele>905.20001220703125</ele>
        <time>2026-08-22T02:22:52.000Z</time>
        <extensions>
          <ns3:TrackPointExtension>
            <ns3:hr>132</ns3:hr>
            <ns3:cad>0</ns3:cad>
          </ns3:TrackPointExtension>
        </extensions>
      </trkpt>
      <trkpt lat="45.2505178190767765045166015625" lon="-71.1294416896998882293701171875">
        <ele>905.20001220703125</ele>
        <time>2026-08-22T02:22:53.000Z</time>
        <extensions>
          <ns3:TrackPointExtension>
            <ns3:hr>132</ns3:hr>
            <ns3:cad>0</ns3:cad>
          </ns3:TrackPointExtension>
        </extensions>
      </trkpt>
      <trkpt lat="45.25051094591617584228515625" lon="-71.129448898136615753173828125">
        <ele>905.20001220703125</ele>
        <time>2026-08-22T02:22:54.000Z</time>
        <extensions>
          <ns3:TrackPointExtension>
            <ns3:hr>132</ns3:hr>
            <ns3:cad>0</ns3:cad>
          </ns3:TrackPointExtension>
        </extensions>
      </trkpt>
      <trkpt lat="45.2505000494420528411865234375" lon="-71.1294566094875335693359375">
        <ele>905.20001220703125</ele>
        <time>2026-08-22T02:22:55.000Z</time>
        <extensions>
          <ns3:TrackPointExtension>
            <ns3:hr>132</ns3:hr>
            <ns3:cad>0</ns3:cad>
          </ns3:TrackPointExtension>
        </extensions>
      </trkpt>
      <trkpt lat="45.25048772804439067840576171875" lon="-71.129465997219085693359375">
        <ele>905.20001220703125</ele>
        <time>2026-08-22T02:22:56.000Z</time>
        <extensions>
          <ns3:TrackPointExtension>
            <ns3:hr>132</ns3:hr>
            <ns3:cad>0</ns3:cad>
          </ns3:TrackPointExtension>
        </extensions>
      </trkpt>
      <trkpt lat="45.25047867558896541595458984375" lon="-71.12946473993360996246337890625">
        <ele>905.20001220703125</ele>
        <time>2026-08-22T02:22:57.000Z</time>
        <extensions>
          <ns3:TrackPointExtension>
            <ns3:hr>132</ns3:hr>
            <ns3:cad>0</ns3:cad>
          </ns3:TrackPointExtension>
        </extensions>
      </trkpt>
      <trkpt lat="45.2504655160009860992431640625" lon="-71.12946373410522937774658203125">
        <ele>905.20001220703125</ele>
        <time>2026-08-22T02:22:58.000Z</time>
        <extensions>
          <ns3:TrackPointExtension>
            <ns3:hr>132</ns3:hr>
            <ns3:cad>0</ns3:cad>
          </ns3:TrackPointExtension>
        </extensions>
      </trkpt>
      <trkpt lat="45.2504507638514041900634765625" lon="-71.12946658395230770111083984375">
        <ele>905.4000244140625</ele>
        <time>2026-08-22T02:22:59.000Z</time>
        <extensions>
          <ns3:TrackPointExtension>
            <ns3:hr>132</ns3:hr>
            <ns3:cad>42</ns3:cad>
          </ns3:TrackPointExtension>
        </extensions>
      </trkpt>
      <trkpt lat="45.250438861548900604248046875" lon="-71.1294668354094028472900390625">
        <ele>905.4000244140625</ele>
        <time>2026-08-22T02:23:00.000Z</time>
        <extensions>
          <ns3:TrackPointExtension>
            <ns3:hr>132</ns3:hr>
            <ns3:cad>42</ns3:cad>
          </ns3:TrackPointExtension>
        </extensions>
      </trkpt>
      <trkpt lat="45.25042301975190639495849609375" lon="-71.129465661942958831787109375">
        <ele>905.4000244140625</ele>
        <time>2026-08-22T02:23:01.000Z</time>
        <extensions>
          <ns3:TrackPointExtension>
            <ns3:hr>132</ns3:hr>
            <ns3:cad>0</ns3:cad>
          </ns3:TrackPointExtension>
        </extensions>
      </trkpt>
      <trkpt lat="45.2504098601639270782470703125" lon="-71.12946574576199054718017578125">
        <ele>905.4000244140625</ele>
        <time>2026-08-22T02:23:02.000Z</time>
        <extensions>
          <ns3:TrackPointExtension>
            <ns3:hr>131</ns3:hr>
            <ns3:cad>0</ns3:cad>
          </ns3:TrackPointExtension>
        </extensions>
      </trkpt>
      <trkpt lat="45.2503987960517406463623046875" lon="-71.12946976907551288604736328125">
        <ele>905.4000244140625</ele>
        <time>2026-08-22T02:23:03.000Z</time>
        <extensions>
          <ns3:TrackPointExtension>
            <ns3:hr>131</ns3:hr>
            <ns3:cad>0</ns3:cad>
          </ns3:TrackPointExtension>
        </extensions>
      </trkpt>
      <trkpt lat="45.25038613937795162200927734375" lon="-71.12947295419871807098388671875">
        <ele>905.4000244140625</ele>
        <time>2026-08-22T02:23:04.000Z</time>
        <extensions>
          <ns3:TrackPointExtension>
            <ns3:hr>132</ns3:hr>
            <ns3:cad>0</ns3:cad>
          </ns3:TrackPointExtension>
        </extensions>
      </trkpt>
      <trkpt lat="45.250375159084796905517578125" lon="-71.1294778995215892791748046875">
        <ele>905.4000244140625</ele>
        <time>2026-08-22T02:23:05.000Z</time>
        <extensions>
          <ns3:TrackPointExtension>
            <ns3:hr>132</ns3:hr>
            <ns3:cad>0</ns3:cad>
          </ns3:TrackPointExtension>
        </extensions>
      </trkpt>
      <trkpt lat="45.2503629215061664581298828125" lon="-71.12948753871023654937744140625">
        <ele>905.4000244140625</ele>
        <time>2026-08-22T02:23:06.000Z</time>
        <extensions>
          <ns3:TrackPointExtension>
            <ns3:hr>132</ns3:hr>
            <ns3:cad>0</ns3:cad>
          </ns3:TrackPointExtension>
        </extensions>
      </trkpt>
      <trkpt lat="45.25035680271685123443603515625" lon="-71.1295006982982158660888671875">
        <ele>905.4000244140625</ele>
        <time>2026-08-22T02:23:07.000Z</time>
        <extensions>
          <ns3:TrackPointExtension>
            <ns3:hr>133</ns3:hr>
            <ns3:cad>0</ns3:cad>
          </ns3:TrackPointExtension>
        </extensions>
      </trkpt>
      <trkpt lat="45.25034490041434764862060546875" lon="-71.1295115947723388671875">
        <ele>905.4000244140625</ele>
        <time>2026-08-22T02:23:08.000Z</time>
        <extensions>
          <ns3:TrackPointExtension>
            <ns3:hr>133</ns3:hr>
            <ns3:cad>0</ns3:cad>
          </ns3:TrackPointExtension>
        </extensions>
      </trkpt>
      <trkpt lat="45.25033392012119293212890625" lon="-71.12951704300940036773681640625">
        <ele>905.5999755859375</ele>
        <time>2026-08-22T02:23:09.000Z</time>
        <extensions>
          <ns3:TrackPointExtension>
            <ns3:hr>133</ns3:hr>
            <ns3:cad>0</ns3:cad>
          </ns3:TrackPointExtension>
        </extensions>
      </trkpt>
      <trkpt lat="45.2503240294754505157470703125" lon="-71.12951503135263919830322265625">
        <ele>905.5999755859375</ele>
        <time>2026-08-22T02:23:10.000Z</time>
        <extensions>
          <ns3:TrackPointExtension>
            <ns3:hr>133</ns3:hr>
            <ns3:cad>0</ns3:cad>
          </ns3:TrackPointExtension>
        </extensions>
      </trkpt>
      <trkpt lat="45.2503139711916446685791015625" lon="-71.12951695919036865234375">
        <ele>905.5999755859375</ele>
        <time>2026-08-22T02:23:11.000Z</time>
        <extensions>
          <ns3:TrackPointExtension>
            <ns3:hr>132</ns3:hr>
            <ns3:cad>50</ns3:cad>
          </ns3:TrackPointExtension>
        </extensions>
      </trkpt>
      <trkpt lat="45.25030198507010936737060546875" lon="-71.12952492199838161468505859375">
        <ele>905.5999755859375</ele>
        <time>2026-08-22T02:23:12.000Z</time>
        <extensions>
          <ns3:TrackPointExtension>
            <ns3:hr>132</ns3:hr>
            <ns3:cad>50</ns3:cad>
          </ns3:TrackPointExtension>
        </extensions>
      </trkpt>
      <trkpt lat="45.25028874166309833526611328125" lon="-71.12953062169253826141357421875">
        <ele>905.5999755859375</ele>
        <time>2026-08-22T02:23:13.000Z</time>
        <extensions>
          <ns3:TrackPointExtension>
            <ns3:hr>131</ns3:hr>
            <ns3:cad>50</ns3:cad>
          </ns3:TrackPointExtension>
        </extensions>
      </trkpt>
      <trkpt lat="45.25027734227478504180908203125" lon="-71.12953665666282176971435546875">
        <ele>905.5999755859375</ele>
        <time>2026-08-22T02:23:14.000Z</time>
        <extensions>
          <ns3:TrackPointExtension>
            <ns3:hr>132</ns3:hr>
            <ns3:cad>45</ns3:cad>
          </ns3:TrackPointExtension>
        </extensions>
      </trkpt>
      <trkpt lat="45.25026275776326656341552734375" lon="-71.12954579293727874755859375">
        <ele>905.5999755859375</ele>
        <time>2026-08-22T02:23:15.000Z</time>
        <extensions>
          <ns3:TrackPointExtension>
            <ns3:hr>132</ns3:hr>
            <ns3:cad>45</ns3:cad>
          </ns3:TrackPointExtension>
        </extensions>
      </trkpt>
      <trkpt lat="45.25024943053722381591796875" lon="-71.12955694086849689483642578125">
        <ele>905.5999755859375</ele>
        <time>2026-08-22T02:23:16.000Z</time>
        <extensions>
          <ns3:TrackPointExtension>
            <ns3:hr>131</ns3:hr>
            <ns3:cad>45</ns3:cad>
          </ns3:TrackPointExtension>
        </extensions>
      </trkpt>
      <trkpt lat="45.2502381987869739532470703125" lon="-71.12956515513360500335693359375">
        <ele>905.4000244140625</ele>
        <time>2026-08-22T02:23:17.000Z</time>
        <extensions>
          <ns3:TrackPointExtension>
            <ns3:hr>131</ns3:hr>
            <ns3:cad>45</ns3:cad>
          </ns3:TrackPointExtension>
        </extensions>
      </trkpt>
      <trkpt lat="45.2502219378948211669921875" lon="-71.12957395613193511962890625">
        <ele>905.4000244140625</ele>
        <time>2026-08-22T02:23:18.000Z</time>
        <extensions>
          <ns3:TrackPointExtension>
            <ns3:hr>130</ns3:hr>
            <ns3:cad>45</ns3:cad>
          </ns3:TrackPointExtension>
        </extensions>
      </trkpt>
      <trkpt lat="45.25020810775458812713623046875" lon="-71.1295882053673267364501953125">
        <ele>905.4000244140625</ele>
        <time>2026-08-22T02:23:19.000Z</time>
        <extensions>
          <ns3:TrackPointExtension>
            <ns3:hr>129</ns3:hr>
            <ns3:cad>66</ns3:cad>
          </ns3:TrackPointExtension>
        </extensions>
      </trkpt>
      <trkpt lat="45.2501892484724521636962890625" lon="-71.129595749080181121826171875">
        <ele>905.4000244140625</ele>
        <time>2026-08-22T02:23:20.000Z</time>
        <extensions>
          <ns3:TrackPointExtension>
            <ns3:hr>128</ns3:hr>
            <ns3:cad>66</ns3:cad>
          </ns3:TrackPointExtension>
        </extensions>
      </trkpt>
      <trkpt lat="45.25017273612320423126220703125" lon="-71.12959935329854488372802734375">
        <ele>905.4000244140625</ele>
        <time>2026-08-22T02:23:21.000Z</time>
        <extensions>
          <ns3:TrackPointExtension>
            <ns3:hr>128</ns3:hr>
            <ns3:cad>66</ns3:cad>
          </ns3:TrackPointExtension>
        </extensions>
      </trkpt>
      <trkpt lat="45.25015664286911487579345703125" lon="-71.12960278987884521484375">
        <ele>905.20001220703125</ele>
        <time>2026-08-22T02:23:22.000Z</time>
        <extensions>
          <ns3:TrackPointExtension>
            <ns3:hr>129</ns3:hr>
            <ns3:cad>66</ns3:cad>
          </ns3:TrackPointExtension>
        </extensions>
      </trkpt>
      <trkpt lat="45.250136442482471466064453125" lon="-71.12960756756365299224853515625">
        <ele>905.20001220703125</ele>
        <time>2026-08-22T02:23:23.000Z</time>
        <extensions>
          <ns3:TrackPointExtension>
            <ns3:hr>129</ns3:hr>
            <ns3:cad>66</ns3:cad>
          </ns3:TrackPointExtension>
        </extensions>
      </trkpt>
      <trkpt lat="45.2501200139522552490234375" lon="-71.1296123452484607696533203125">
        <ele>905.20001220703125</ele>
        <time>2026-08-22T02:23:24.000Z</time>
        <extensions>
          <ns3:TrackPointExtension>
            <ns3:hr>129</ns3:hr>
            <ns3:cad>66</ns3:cad>
          </ns3:TrackPointExtension>
        </extensions>
      </trkpt>
      <trkpt lat="45.2501081116497516632080078125" lon="-71.1296321265399456024169921875">
        <ele>905.20001220703125</ele>
        <time>2026-08-22T02:23:25.000Z</time>
        <extensions>
          <ns3:TrackPointExtension>
            <ns3:hr>129</ns3:hr>
            <ns3:cad>66</ns3:cad>
          </ns3:TrackPointExtension>
        </extensions>
      </trkpt>
      <trkpt lat="45.250096209347248077392578125" lon="-71.1296498961746692657470703125">
        <ele>905.20001220703125</ele>
        <time>2026-08-22T02:23:26.000Z</time>
        <extensions>
          <ns3:TrackPointExtension>
            <ns3:hr>129</ns3:hr>
            <ns3:cad>66</ns3:cad>
          </ns3:TrackPointExtension>
        </extensions>
      </trkpt>
      <trkpt lat="45.2500802837312221527099609375" lon="-71.129660792648792266845703125">
        <ele>905</ele>
        <time>2026-08-22T02:23:27.000Z</time>
        <extensions>
          <ns3:TrackPointExtension>
            <ns3:hr>130</ns3:hr>
            <ns3:cad>66</ns3:cad>
          </ns3:TrackPointExtension>
        </extensions>
      </trkpt>
      <trkpt lat="45.25006578303873538970947265625" lon="-71.12967076711356639862060546875">
        <ele>905</ele>
        <time>2026-08-22T02:23:28.000Z</time>
        <extensions>
          <ns3:TrackPointExtension>
            <ns3:hr>130</ns3:hr>
            <ns3:cad>60</ns3:cad>
          </ns3:TrackPointExtension>
        </extensions>
      </trkpt>
      <trkpt lat="45.250051282346248626708984375" lon="-71.1296871118247509002685546875">
        <ele>904.79998779296875</ele>
        <time>2026-08-22T02:23:29.000Z</time>
        <extensions>
          <ns3:TrackPointExtension>
            <ns3:hr>130</ns3:hr>
            <ns3:cad>60</ns3:cad>
          </ns3:TrackPointExtension>
        </extensions>
      </trkpt>
      <trkpt lat="45.25003996677696704864501953125" lon="-71.12969825975596904754638671875">
        <ele>904.79998779296875</ele>
        <time>2026-08-22T02:23:30.000Z</time>
        <extensions>
          <ns3:TrackPointExtension>
            <ns3:hr>129</ns3:hr>
            <ns3:cad>61</ns3:cad>
          </ns3:TrackPointExtension>
        </extensions>
      </trkpt>
      <trkpt lat="45.25002278387546539306640625" lon="-71.12971301190555095672607421875">
        <ele>904.79998779296875</ele>
        <time>2026-08-22T02:23:31.000Z</time>
        <extensions>
          <ns3:TrackPointExtension>
            <ns3:hr>129</ns3:hr>
            <ns3:cad>68</ns3:cad>
          </ns3:TrackPointExtension>
        </extensions>
      </trkpt>
      <trkpt lat="45.250009037554264068603515625" lon="-71.12972910515964031219482421875">
        <ele>904.5999755859375</ele>
        <time>2026-08-22T02:23:32.000Z</time>
        <extensions>
          <ns3:TrackPointExtension>
            <ns3:hr>129</ns3:hr>
            <ns3:cad>68</ns3:cad>
          </ns3:TrackPointExtension>
        </extensions>
      </trkpt>
      <trkpt lat="45.24999571032822132110595703125" lon="-71.12974218092858791351318359375">
        <ele>904.5999755859375</ele>
        <time>2026-08-22T02:23:33.000Z</time>
        <extensions>
          <ns3:TrackPointExtension>
            <ns3:hr>129</ns3:hr>
            <ns3:cad>68</ns3:cad>
          </ns3:TrackPointExtension>
        </extensions>
      </trkpt>
      <trkpt lat="45.249986238777637481689453125" lon="-71.1297655664384365081787109375">
        <ele>904.5999755859375</ele>
        <time>2026-08-22T02:23:34.000Z</time>
        <extensions>
          <ns3:TrackPointExtension>
            <ns3:hr>129</ns3:hr>
            <ns3:cad>68</ns3:cad>
          </ns3:TrackPointExtension>
        </extensions>
      </trkpt>
      <trkpt lat="45.24997173808515071868896484375" lon="-71.129788197576999664306640625">
        <ele>904.4000244140625</ele>
        <time>2026-08-22T02:23:35.000Z</time>
        <extensions>
          <ns3:TrackPointExtension>
            <ns3:hr>129</ns3:hr>
            <ns3:cad>68</ns3:cad>
          </ns3:TrackPointExtension>
        </extensions>
      </trkpt>
      <trkpt lat="45.24996218271553516387939453125" lon="-71.12981007434427738189697265625">
        <ele>904.20001220703125</ele>
        <time>2026-08-22T02:23:36.000Z</time>
        <extensions>
          <ns3:TrackPointExtension>
            <ns3:hr>129</ns3:hr>
            <ns3:cad>68</ns3:cad>
          </ns3:TrackPointExtension>
        </extensions>
      </trkpt>
      <trkpt lat="45.24995547719299793243408203125" lon="-71.129823066294193267822265625">
        <ele>904.20001220703125</ele>
        <time>2026-08-22T02:23:37.000Z</time>
        <extensions>
          <ns3:TrackPointExtension>
            <ns3:hr>129</ns3:hr>
            <ns3:cad>68</ns3:cad>
          </ns3:TrackPointExtension>
        </extensions>
      </trkpt>
      <trkpt lat="45.24994558654725551605224609375" lon="-71.12984376959502696990966796875">
        <ele>904.20001220703125</ele>
        <time>2026-08-22T02:23:38.000Z</time>
        <extensions>
          <ns3:TrackPointExtension>
            <ns3:hr>128</ns3:hr>
            <ns3:cad>67</ns3:cad>
          </ns3:TrackPointExtension>
        </extensions>
      </trkpt>
      <trkpt lat="45.24993720464408397674560546875" lon="-71.12986455671489238739013671875">
        <ele>904</ele>
        <time>2026-08-22T02:23:39.000Z</time>
        <extensions>
          <ns3:TrackPointExtension>
            <ns3:hr>127</ns3:hr>
            <ns3:cad>67</ns3:cad>
          </ns3:TrackPointExtension>
        </extensions>
      </trkpt>
      <trkpt lat="45.24992664344608783721923828125" lon="-71.12988148815929889678955078125">
        <ele>904.20001220703125</ele>
        <time>2026-08-22T02:23:40.000Z</time>
        <extensions>
          <ns3:TrackPointExtension>
            <ns3:hr>126</ns3:hr>
            <ns3:cad>0</ns3:cad>
          </ns3:TrackPointExtension>
        </extensions>
      </trkpt>
      <trkpt lat="45.24991591461002826690673828125" lon="-71.12989556975662708282470703125">
        <ele>904.20001220703125</ele>
        <time>2026-08-22T02:23:41.000Z</time>
        <extensions>
          <ns3:TrackPointExtension>
            <ns3:hr>126</ns3:hr>
            <ns3:cad>0</ns3:cad>
          </ns3:TrackPointExtension>
        </extensions>
      </trkpt>
      <trkpt lat="45.24990334175527095794677734375" lon="-71.1299164406955242156982421875">
        <ele>904.20001220703125</ele>
        <time>2026-08-22T02:23:42.000Z</time>
        <extensions>
          <ns3:TrackPointExtension>
            <ns3:hr>125</ns3:hr>
            <ns3:cad>0</ns3:cad>
          </ns3:TrackPointExtension>
        </extensions>
      </trkpt>
      <trkpt lat="45.2498973906040191650390625" lon="-71.129927001893520355224609375">
        <ele>904.4000244140625</ele>
        <time>2026-08-22T02:23:43.000Z</time>
        <extensions>
          <ns3:TrackPointExtension>
            <ns3:hr>125</ns3:hr>
            <ns3:cad>0</ns3:cad>
          </ns3:TrackPointExtension>
        </extensions>
      </trkpt>
      <trkpt lat="45.24988490156829357147216796875" lon="-71.12993395887315273284912109375">
        <ele>904.5999755859375</ele>
        <time>2026-08-22T02:23:44.000Z</time>
        <extensions>
          <ns3:TrackPointExtension>
            <ns3:hr>125</ns3:hr>
            <ns3:cad>67</ns3:cad>
          </ns3:TrackPointExtension>
        </extensions>
      </trkpt>
      <trkpt lat="45.24987098760902881622314453125" lon="-71.1299543268978595733642578125">
        <ele>904.5999755859375</ele>
        <time>2026-08-22T02:23:45.000Z</time>
        <extensions>
          <ns3:TrackPointExtension>
            <ns3:hr>124</ns3:hr>
            <ns3:cad>67</ns3:cad>
          </ns3:TrackPointExtension>
        </extensions>
      </trkpt>
      <trkpt lat="45.24986159987747669219970703125" lon="-71.1299737729132175445556640625">
        <ele>904.5999755859375</ele>
        <time>2026-08-22T02:23:46.000Z</time>
        <extensions>
          <ns3:TrackPointExtension>
            <ns3:hr>123</ns3:hr>
            <ns3:cad>67</ns3:cad>
          </ns3:TrackPointExtension>
        </extensions>
      </trkpt>
      <trkpt lat="45.24985380470752716064453125" lon="-71.1299938894808292388916015625">
        <ele>904.5999755859375</ele>
        <time>2026-08-22T02:23:47.000Z</time>
        <extensions>
          <ns3:TrackPointExtension>
            <ns3:hr>122</ns3:hr>
            <ns3:cad>67</ns3:cad>
          </ns3:TrackPointExtension>
        </extensions>
      </trkpt>
      <trkpt lat="45.24984366260468959808349609375" lon="-71.13000436685979366302490234375">
        <ele>904.5999755859375</ele>
        <time>2026-08-22T02:23:48.000Z</time>
        <extensions>
          <ns3:TrackPointExtension>
            <ns3:hr>121</ns3:hr>
            <ns3:cad>67</ns3:cad>
          </ns3:TrackPointExtension>
        </extensions>
      </trkpt>
      <trkpt lat="45.24983125738799571990966796875" lon="-71.1300190351903438568115234375">
        <ele>904.5999755859375</ele>
        <time>2026-08-22T02:23:49.000Z</time>
        <extensions>
          <ns3:TrackPointExtension>
            <ns3:hr>121</ns3:hr>
            <ns3:cad>67</ns3:cad>
          </ns3:TrackPointExtension>
        </extensions>
      </trkpt>
      <trkpt lat="45.24982740171253681182861328125" lon="-71.13002833910286426544189453125">
        <ele>904.79998779296875</ele>
        <time>2026-08-22T02:23:50.000Z</time>
        <extensions>
          <ns3:TrackPointExtension>
            <ns3:hr>120</ns3:hr>
            <ns3:cad>0</ns3:cad>
          </ns3:TrackPointExtension>
        </extensions>
      </trkpt>
      <trkpt lat="45.2498196065425872802734375" lon="-71.13004091195762157440185546875">
        <ele>905</ele>
        <time>2026-08-22T02:23:51.000Z</time>
        <extensions>
          <ns3:TrackPointExtension>
            <ns3:hr>120</ns3:hr>
            <ns3:cad>0</ns3:cad>
          </ns3:TrackPointExtension>
        </extensions>
      </trkpt>
      <trkpt lat="45.24982161819934844970703125" lon="-71.13003755919635295867919921875">
        <ele>905.4000244140625</ele>
        <time>2026-08-22T02:23:52.000Z</time>
        <extensions>
          <ns3:TrackPointExtension>
            <ns3:hr>121</ns3:hr>
            <ns3:cad>0</ns3:cad>
          </ns3:TrackPointExtension>
        </extensions>
      </trkpt>
      <trkpt lat="45.249816589057445526123046875" lon="-71.13005147315561771392822265625">
        <ele>905.5999755859375</ele>
        <time>2026-08-22T02:23:53.000Z</time>
        <extensions>
          <ns3:TrackPointExtension>
            <ns3:hr>121</ns3:hr>
            <ns3:cad>0</ns3:cad>
          </ns3:TrackPointExtension>
        </extensions>
      </trkpt>
      <trkpt lat="45.249813906848430633544921875" lon="-71.130053736269474029541015625">
        <ele>905.79998779296875</ele>
        <time>2026-08-22T02:23:54.000Z</time>
        <extensions>
          <ns3:TrackPointExtension>
            <ns3:hr>122</ns3:hr>
            <ns3:cad>0</ns3:cad>
          </ns3:TrackPointExtension>
        </extensions>
      </trkpt>
      <trkpt lat="45.2498097158968448638916015625" lon="-71.130063794553279876708984375">
        <ele>906</ele>
        <time>2026-08-22T02:23:55.000Z</time>
        <extensions>
          <ns3:TrackPointExtension>
            <ns3:hr>122</ns3:hr>
            <ns3:cad>0</ns3:cad>
          </ns3:TrackPointExtension>
        </extensions>
      </trkpt>
      <trkpt lat="45.24979990907013416290283203125" lon="-71.13007284700870513916015625">
        <ele>906.20001220703125</ele>
        <time>2026-08-22T02:23:56.000Z</time>
        <extensions>
          <ns3:TrackPointExtension>
            <ns3:hr>122</ns3:hr>
            <ns3:cad>0</ns3:cad>
          </ns3:TrackPointExtension>
        </extensions>
      </trkpt>
      <trkpt lat="45.249787755310535430908203125" lon="-71.13007946871221065521240234375">
        <ele>906.4000244140625</ele>
        <time>2026-08-22T02:23:57.000Z</time>
        <extensions>
          <ns3:TrackPointExtension>
            <ns3:hr>122</ns3:hr>
            <ns3:cad>0</ns3:cad>
          </ns3:TrackPointExtension>
        </extensions>
      </trkpt>
      <trkpt lat="45.24977895431220531463623046875" lon="-71.13008902408182621002197265625">
        <ele>906.4000244140625</ele>
        <time>2026-08-22T02:23:58.000Z</time>
        <extensions>
          <ns3:TrackPointExtension>
            <ns3:hr>122</ns3:hr>
            <ns3:cad>0</ns3:cad>
          </ns3:TrackPointExtension>
        </extensions>
      </trkpt>
      <trkpt lat="45.24976663291454315185546875" lon="-71.13009975291788578033447265625">
        <ele>906.5999755859375</ele>
        <time>2026-08-22T02:23:59.000Z</time>
        <extensions>
          <ns3:TrackPointExtension>
            <ns3:hr>123</ns3:hr>
            <ns3:cad>43</ns3:cad>
          </ns3:TrackPointExtension>
        </extensions>
      </trkpt>
      <trkpt lat="45.2497577480971813201904296875" lon="-71.1301055364310741424560546875">
        <ele>906.5999755859375</ele>
        <time>2026-08-22T02:24:00.000Z</time>
        <extensions>
          <ns3:TrackPointExtension>
            <ns3:hr>123</ns3:hr>
            <ns3:cad>43</ns3:cad>
          </ns3:TrackPointExtension>
        </extensions>
      </trkpt>
      <trkpt lat="45.24974224157631397247314453125" lon="-71.1301078833639621734619140625">
        <ele>906.79998779296875</ele>
        <time>2026-08-22T02:24:01.000Z</time>
        <extensions>
          <ns3:TrackPointExtension>
            <ns3:hr>124</ns3:hr>
            <ns3:cad>43</ns3:cad>
          </ns3:TrackPointExtension>
        </extensions>
      </trkpt>
      <trkpt lat="45.24973100982606410980224609375" lon="-71.13010494969785213470458984375">
        <ele>906.79998779296875</ele>
        <time>2026-08-22T02:24:02.000Z</time>
        <extensions>
          <ns3:TrackPointExtension>
            <ns3:hr>125</ns3:hr>
            <ns3:cad>43</ns3:cad>
          </ns3:TrackPointExtension>
        </extensions>
      </trkpt>
      <trkpt lat="45.24971977807581424713134765625" lon="-71.13011308014392852783203125">
        <ele>906.79998779296875</ele>
        <time>2026-08-22T02:24:03.000Z</time>
        <extensions>
          <ns3:TrackPointExtension>
            <ns3:hr>126</ns3:hr>
            <ns3:cad>43</ns3:cad>
          </ns3:TrackPointExtension>
        </extensions>
      </trkpt>
      <trkpt lat="45.24970653466880321502685546875" lon="-71.13011433742940425872802734375">
        <ele>906.79998779296875</ele>
        <time>2026-08-22T02:24:04.000Z</time>
        <extensions>
          <ns3:TrackPointExtension>
            <ns3:hr>126</ns3:hr>
            <ns3:cad>43</ns3:cad>
          </ns3:TrackPointExtension>
        </extensions>
      </trkpt>
      <trkpt lat="45.24969278834760189056396484375" lon="-71.13011718727648258209228515625">
        <ele>906.79998779296875</ele>
        <time>2026-08-22T02:24:05.000Z</time>
        <extensions>
          <ns3:TrackPointExtension>
            <ns3:hr>130</ns3:hr>
            <ns3:cad>43</ns3:cad>
          </ns3:TrackPointExtension>
        </extensions>
      </trkpt>
      <trkpt lat="45.24968105368316173553466796875" lon="-71.1301212944090366363525390625">
        <ele>906.79998779296875</ele>
        <time>2026-08-22T02:24:06.000Z</time>
        <extensions>
          <ns3:TrackPointExtension>
            <ns3:hr>130</ns3:hr>
            <ns3:cad>43</ns3:cad>
          </ns3:TrackPointExtension>
        </extensions>
      </trkpt>
      <trkpt lat="45.249671079218387603759765625" lon="-71.1301196180284023284912109375">
        <ele>906.5999755859375</ele>
        <time>2026-08-22T02:24:07.000Z</time>
        <extensions>
          <ns3:TrackPointExtension>
            <ns3:hr>131</ns3:hr>
            <ns3:cad>43</ns3:cad>
          </ns3:TrackPointExtension>
        </extensions>
      </trkpt>
      <trkpt lat="45.24965808726847171783447265625" lon="-71.1301236413419246673583984375">
        <ele>906.5999755859375</ele>
        <time>2026-08-22T02:24:08.000Z</time>
        <extensions>
          <ns3:TrackPointExtension>
            <ns3:hr>131</ns3:hr>
            <ns3:cad>43</ns3:cad>
          </ns3:TrackPointExtension>
        </extensions>
      </trkpt>
      <trkpt lat="45.249648280441761016845703125" lon="-71.13012271933257579803466796875">
        <ele>906.4000244140625</ele>
        <time>2026-08-22T02:24:09.000Z</time>
        <extensions>
          <ns3:TrackPointExtension>
            <ns3:hr>131</ns3:hr>
            <ns3:cad>43</ns3:cad>
          </ns3:TrackPointExtension>
        </extensions>
      </trkpt>
      <trkpt lat="45.24963361211121082305908203125" lon="-71.13011970184743404388427734375">
        <ele>906.5999755859375</ele>
        <time>2026-08-22T02:24:10.000Z</time>
        <extensions>
          <ns3:TrackPointExtension>
            <ns3:hr>131</ns3:hr>
            <ns3:cad>43</ns3:cad>
          </ns3:TrackPointExtension>
        </extensions>
      </trkpt>
      <trkpt lat="45.2496196143329143524169921875" lon="-71.1301189474761486053466796875">
        <ele>906.5999755859375</ele>
        <time>2026-08-22T02:24:11.000Z</time>
        <extensions>
          <ns3:TrackPointExtension>
            <ns3:hr>132</ns3:hr>
            <ns3:cad>43</ns3:cad>
          </ns3:TrackPointExtension>
        </extensions>
      </trkpt>
      <trkpt lat="45.24960846640169620513916015625" lon="-71.13011450506746768951416015625">
        <ele>906.5999755859375</ele>
        <time>2026-08-22T02:24:12.000Z</time>
        <extensions>
          <ns3:TrackPointExtension>
            <ns3:hr>132</ns3:hr>
            <ns3:cad>43</ns3:cad>
          </ns3:TrackPointExtension>
        </extensions>
      </trkpt>
      <trkpt lat="45.24959899485111236572265625" lon="-71.13010478205978870391845703125">
        <ele>906.5999755859375</ele>
        <time>2026-08-22T02:24:13.000Z</time>
        <extensions>
          <ns3:TrackPointExtension>
            <ns3:hr>132</ns3:hr>
            <ns3:cad>43</ns3:cad>
          </ns3:TrackPointExtension>
        </extensions>
      </trkpt>
      <trkpt lat="45.24958734400570392608642578125" lon="-71.1300964839756488800048828125">
        <ele>906.5999755859375</ele>
        <time>2026-08-22T02:24:14.000Z</time>
        <extensions>
          <ns3:TrackPointExtension>
            <ns3:hr>132</ns3:hr>
            <ns3:cad>43</ns3:cad>
          </ns3:TrackPointExtension>
        </extensions>
      </trkpt>
      <trkpt lat="45.249578543007373809814453125" lon="-71.13008181564509868621826171875">
        <ele>906.5999755859375</ele>
        <time>2026-08-22T02:24:15.000Z</time>
        <extensions>
          <ns3:TrackPointExtension>
            <ns3:hr>131</ns3:hr>
            <ns3:cad>43</ns3:cad>
          </ns3:TrackPointExtension>
        </extensions>
      </trkpt>
      <trkpt lat="45.2495659701526165008544921875" lon="-71.1300730146467685699462890625">
        <ele>906.4000244140625</ele>
        <time>2026-08-22T02:24:16.000Z</time>
        <extensions>
          <ns3:TrackPointExtension>
            <ns3:hr>131</ns3:hr>
            <ns3:cad>71</ns3:cad>
          </ns3:TrackPointExtension>
        </extensions>
      </trkpt>
      <trkpt lat="45.24955314584076404571533203125" lon="-71.13006337545812129974365234375">
        <ele>906.5999755859375</ele>
        <time>2026-08-22T02:24:17.000Z</time>
        <extensions>
          <ns3:TrackPointExtension>
            <ns3:hr>131</ns3:hr>
            <ns3:cad>71</ns3:cad>
          </ns3:TrackPointExtension>
        </extensions>
      </trkpt>
      <trkpt lat="45.249544344842433929443359375" lon="-71.1300575919449329376220703125">
        <ele>906.5999755859375</ele>
        <time>2026-08-22T02:24:18.000Z</time>
        <extensions>
          <ns3:TrackPointExtension>
            <ns3:hr>130</ns3:hr>
            <ns3:cad>69</ns3:cad>
          </ns3:TrackPointExtension>
        </extensions>
      </trkpt>
      <trkpt lat="45.24953328073024749755859375" lon="-71.13005164079368114471435546875">
        <ele>906.5999755859375</ele>
        <time>2026-08-22T02:24:19.000Z</time>
        <extensions>
          <ns3:TrackPointExtension>
            <ns3:hr>130</ns3:hr>
            <ns3:cad>69</ns3:cad>
          </ns3:TrackPointExtension>
        </extensions>
      </trkpt>
      <trkpt lat="45.24952330626547336578369140625" lon="-71.1300445161759853363037109375">
        <ele>906.5999755859375</ele>
        <time>2026-08-22T02:24:20.000Z</time>
        <extensions>
          <ns3:TrackPointExtension>
            <ns3:hr>130</ns3:hr>
            <ns3:cad>69</ns3:cad>
          </ns3:TrackPointExtension>
        </extensions>
      </trkpt>
      <trkpt lat="45.24951358325779438018798828125" lon="-71.130041666328907012939453125">
        <ele>906.5999755859375</ele>
        <time>2026-08-22T02:24:21.000Z</time>
        <extensions>
          <ns3:TrackPointExtension>
            <ns3:hr>130</ns3:hr>
            <ns3:cad>69</ns3:cad>
          </ns3:TrackPointExtension>
        </extensions>
      </trkpt>
      <trkpt lat="45.2495012618601322174072265625" lon="-71.130036301910877227783203125">
        <ele>906.5999755859375</ele>
        <time>2026-08-22T02:24:22.000Z</time>
        <extensions>
          <ns3:TrackPointExtension>
            <ns3:hr>130</ns3:hr>
            <ns3:cad>69</ns3:cad>
          </ns3:TrackPointExtension>
        </extensions>
      </trkpt>
      <trkpt lat="45.24949296377599239349365234375" lon="-71.130029596388339996337890625">
        <ele>906.79998779296875</ele>
        <time>2026-08-22T02:24:23.000Z</time>
        <extensions>
          <ns3:TrackPointExtension>
            <ns3:hr>129</ns3:hr>
            <ns3:cad>69</ns3:cad>
          </ns3:TrackPointExtension>
        </extensions>
      </trkpt>
      <trkpt lat="45.24948759935796260833740234375" lon="-71.13002590835094451904296875">
        <ele>907</ele>
        <time>2026-08-22T02:24:24.000Z</time>
        <extensions>
          <ns3:TrackPointExtension>
            <ns3:hr>130</ns3:hr>
            <ns3:cad>69</ns3:cad>
          </ns3:TrackPointExtension>
        </extensions>
      </trkpt>
      <trkpt lat="45.24947502650320529937744140625" lon="-71.130026243627071380615234375">
        <ele>907.20001220703125</ele>
        <time>2026-08-22T02:24:25.000Z</time>
        <extensions>
          <ns3:TrackPointExtension>
            <ns3:hr>130</ns3:hr>
            <ns3:cad>0</ns3:cad>
          </ns3:TrackPointExtension>
        </extensions>
      </trkpt>
      <trkpt lat="45.24946345947682857513427734375" lon="-71.13002414815127849578857421875">
        <ele>907.4000244140625</ele>
        <time>2026-08-22T02:24:26.000Z</time>
        <extensions>
          <ns3:TrackPointExtension>
            <ns3:hr>131</ns3:hr>
            <ns3:cad>0</ns3:cad>
          </ns3:TrackPointExtension>
        </extensions>
      </trkpt>
      <trkpt lat="45.24945457465946674346923828125" lon="-71.13002146594226360321044921875">
        <ele>907.5999755859375</ele>
        <time>2026-08-22T02:24:27.000Z</time>
        <extensions>
          <ns3:TrackPointExtension>
            <ns3:hr>131</ns3:hr>
            <ns3:cad>0</ns3:cad>
          </ns3:TrackPointExtension>
        </extensions>
      </trkpt>
      <trkpt lat="45.24944652803242206573486328125" lon="-71.13001911900937557220458984375">
        <ele>908</ele>
        <time>2026-08-22T02:24:28.000Z</time>
        <extensions>
          <ns3:TrackPointExtension>
            <ns3:hr>131</ns3:hr>
            <ns3:cad>0</ns3:cad>
          </ns3:TrackPointExtension>
        </extensions>
      </trkpt>
      <trkpt lat="45.24944200180470943450927734375" lon="-71.1300200410187244415283203125">
        <ele>908.20001220703125</ele>
        <time>2026-08-22T02:24:29.000Z</time>
        <extensions>
          <ns3:TrackPointExtension>
            <ns3:hr>131</ns3:hr>
            <ns3:cad>0</ns3:cad>
          </ns3:TrackPointExtension>
        </extensions>
      </trkpt>
      <trkpt lat="45.2494315244257450103759765625" lon="-71.13001828081905841827392578125">
        <ele>908.5999755859375</ele>
        <time>2026-08-22T02:24:30.000Z</time>
        <extensions>
          <ns3:TrackPointExtension>
            <ns3:hr>131</ns3:hr>
            <ns3:cad>0</ns3:cad>
          </ns3:TrackPointExtension>
        </extensions>
      </trkpt>
      <trkpt lat="45.249422974884510040283203125" lon="-71.13001744262874126434326171875">
        <ele>908.79998779296875</ele>
        <time>2026-08-22T02:24:31.000Z</time>
        <extensions>
          <ns3:TrackPointExtension>
            <ns3:hr>130</ns3:hr>
            <ns3:cad>0</ns3:cad>
          </ns3:TrackPointExtension>
        </extensions>
      </trkpt>
      <trkpt lat="45.24941249750554561614990234375" lon="-71.1300200410187244415283203125">
        <ele>909</ele>
        <time>2026-08-22T02:24:32.000Z</time>
        <extensions>
          <ns3:TrackPointExtension>
            <ns3:hr>131</ns3:hr>
            <ns3:cad>0</ns3:cad>
          </ns3:TrackPointExtension>
        </extensions>
      </trkpt>
      <trkpt lat="45.24940361268818378448486328125" lon="-71.13002590835094451904296875">
        <ele>909.4000244140625</ele>
        <time>2026-08-22T02:24:33.000Z</time>
        <extensions>
          <ns3:TrackPointExtension>
            <ns3:hr>131</ns3:hr>
            <ns3:cad>0</ns3:cad>
          </ns3:TrackPointExtension>
        </extensions>
      </trkpt>
      <trkpt lat="45.24939254857599735260009765625" lon="-71.13002934493124485015869140625">
        <ele>909.5999755859375</ele>
        <time>2026-08-22T02:24:34.000Z</time>
        <extensions>
          <ns3:TrackPointExtension>
            <ns3:hr>130</ns3:hr>
            <ns3:cad>0</ns3:cad>
          </ns3:TrackPointExtension>
        </extensions>
      </trkpt>
      <trkpt lat="45.24938215501606464385986328125" lon="-71.13002968020737171173095703125">
        <ele>909.79998779296875</ele>
        <time>2026-08-22T02:24:35.000Z</time>
        <extensions>
          <ns3:TrackPointExtension>
            <ns3:hr>131</ns3:hr>
            <ns3:cad>0</ns3:cad>
          </ns3:TrackPointExtension>
        </extensions>
      </trkpt>
      <trkpt lat="45.24936941452324390411376953125" lon="-71.13002590835094451904296875">
        <ele>910</ele>
        <time>2026-08-22T02:24:36.000Z</time>
        <extensions>
          <ns3:TrackPointExtension>
            <ns3:hr>131</ns3:hr>
            <ns3:cad>0</ns3:cad>
          </ns3:TrackPointExtension>
        </extensions>
      </trkpt>
      <trkpt lat="45.24936153553426265716552734375" lon="-71.13002481870353221893310546875">
        <ele>910</ele>
        <time>2026-08-22T02:24:37.000Z</time>
        <extensions>
          <ns3:TrackPointExtension>
            <ns3:hr>131</ns3:hr>
            <ns3:cad>0</ns3:cad>
          </ns3:TrackPointExtension>
        </extensions>
      </trkpt>
      <trkpt lat="45.24934644810855388641357421875" lon="-71.130028255283832550048828125">
        <ele>910.4000244140625</ele>
        <time>2026-08-22T02:24:38.000Z</time>
        <extensions>
          <ns3:TrackPointExtension>
            <ns3:hr>132</ns3:hr>
            <ns3:cad>0</ns3:cad>
          </ns3:TrackPointExtension>
        </extensions>
      </trkpt>
      <trkpt lat="45.24933689273893833160400390625" lon="-71.1300304345786571502685546875">
        <ele>910.5999755859375</ele>
        <time>2026-08-22T02:24:39.000Z</time>
        <extensions>
          <ns3:TrackPointExtension>
            <ns3:hr>132</ns3:hr>
            <ns3:cad>0</ns3:cad>
          </ns3:TrackPointExtension>
        </extensions>
      </trkpt>
      <trkpt lat="45.24932633154094219207763671875" lon="-71.13003537990152835845947265625">
        <ele>910.79998779296875</ele>
        <time>2026-08-22T02:24:40.000Z</time>
        <extensions>
          <ns3:TrackPointExtension>
            <ns3:hr>132</ns3:hr>
            <ns3:cad>0</ns3:cad>
          </ns3:TrackPointExtension>
        </extensions>
      </trkpt>
      <trkpt lat="45.24931610561907291412353515625" lon="-71.13003839738667011260986328125">
        <ele>911</ele>
        <time>2026-08-22T02:24:41.000Z</time>
        <extensions>
          <ns3:TrackPointExtension>
            <ns3:hr>132</ns3:hr>
            <ns3:cad>0</ns3:cad>
          </ns3:TrackPointExtension>
        </extensions>
      </trkpt>
      <trkpt lat="45.24931258521974086761474609375" lon="-71.13003504462540149688720703125">
        <ele>911.4000244140625</ele>
        <time>2026-08-22T02:24:42.000Z</time>
        <extensions>
          <ns3:TrackPointExtension>
            <ns3:hr>132</ns3:hr>
            <ns3:cad>0</ns3:cad>
          </ns3:TrackPointExtension>
        </extensions>
      </trkpt>
      <trkpt lat="45.24930302985012531280517578125" lon="-71.13003118894994258880615234375">
        <ele>911.5999755859375</ele>
        <time>2026-08-22T02:24:43.000Z</time>
        <extensions>
          <ns3:TrackPointExtension>
            <ns3:hr>132</ns3:hr>
            <ns3:cad>0</ns3:cad>
          </ns3:TrackPointExtension>
        </extensions>
      </trkpt>
      <trkpt lat="45.2492910437285900115966796875" lon="-71.1300331167876720428466796875">
        <ele>912</ele>
        <time>2026-08-22T02:24:44.000Z</time>
        <extensions>
          <ns3:TrackPointExtension>
            <ns3:hr>132</ns3:hr>
            <ns3:cad>0</ns3:cad>
          </ns3:TrackPointExtension>
        </extensions>
      </trkpt>
      <trkpt lat="45.2492806501686573028564453125" lon="-71.1300391517579555511474609375">
        <ele>912.20001220703125</ele>
        <time>2026-08-22T02:24:45.000Z</time>
        <extensions>
          <ns3:TrackPointExtension>
            <ns3:hr>132</ns3:hr>
            <ns3:cad>0</ns3:cad>
          </ns3:TrackPointExtension>
        </extensions>
      </trkpt>
      <trkpt lat="45.24927319027483463287353515625" lon="-71.13004376180469989776611328125">
        <ele>912.4000244140625</ele>
        <time>2026-08-22T02:24:46.000Z</time>
        <extensions>
          <ns3:TrackPointExtension>
            <ns3:hr>132</ns3:hr>
            <ns3:cad>0</ns3:cad>
          </ns3:TrackPointExtension>
        </extensions>
      </trkpt>
      <trkpt lat="45.2492648921906948089599609375" lon="-71.130042336881160736083984375">
        <ele>912.5999755859375</ele>
        <time>2026-08-22T02:24:47.000Z</time>
        <extensions>
          <ns3:TrackPointExtension>
            <ns3:hr>133</ns3:hr>
            <ns3:cad>0</ns3:cad>
          </ns3:TrackPointExtension>
        </extensions>
      </trkpt>
      <trkpt lat="45.24925458244979381561279296875" lon="-71.1300359666347503662109375">
        <ele>912.5999755859375</ele>
        <time>2026-08-22T02:24:48.000Z</time>
        <extensions>
          <ns3:TrackPointExtension>
            <ns3:hr>133</ns3:hr>
            <ns3:cad>0</ns3:cad>
          </ns3:TrackPointExtension>
        </extensions>
      </trkpt>
      <trkpt lat="45.24924368597567081451416015625" lon="-71.130028255283832550048828125">
        <ele>912.79998779296875</ele>
        <time>2026-08-22T02:24:49.000Z</time>
        <extensions>
          <ns3:TrackPointExtension>
            <ns3:hr>134</ns3:hr>
            <ns3:cad>0</ns3:cad>
          </ns3:TrackPointExtension>
        </extensions>
      </trkpt>
      <trkpt lat="45.249229185283184051513671875" lon="-71.130018197000026702880859375">
        <ele>912.79998779296875</ele>
        <time>2026-08-22T02:24:50.000Z</time>
        <extensions>
          <ns3:TrackPointExtension>
            <ns3:hr>134</ns3:hr>
            <ns3:cad>0</ns3:cad>
          </ns3:TrackPointExtension>
        </extensions>
      </trkpt>
      <trkpt lat="45.24921971373260021209716796875" lon="-71.13001408986747264862060546875">
        <ele>912.79998779296875</ele>
        <time>2026-08-22T02:24:51.000Z</time>
        <extensions>
          <ns3:TrackPointExtension>
            <ns3:hr>134</ns3:hr>
            <ns3:cad>0</ns3:cad>
          </ns3:TrackPointExtension>
        </extensions>
      </trkpt>
      <trkpt lat="45.249210409820079803466796875" lon="-71.13000805489718914031982421875">
        <ele>912.79998779296875</ele>
        <time>2026-08-22T02:24:52.000Z</time>
        <extensions>
          <ns3:TrackPointExtension>
            <ns3:hr>134</ns3:hr>
            <ns3:cad>47</ns3:cad>
          </ns3:TrackPointExtension>
        </extensions>
      </trkpt>
      <trkpt lat="45.2491986751556396484375" lon="-71.130000762641429901123046875">
        <ele>912.79998779296875</ele>
        <time>2026-08-22T02:24:53.000Z</time>
        <extensions>
          <ns3:TrackPointExtension>
            <ns3:hr>134</ns3:hr>
            <ns3:cad>50</ns3:cad>
          </ns3:TrackPointExtension>
        </extensions>
      </trkpt>
      <trkpt lat="45.249189622700214385986328125" lon="-71.12999497912824153900146484375">
        <ele>912.79998779296875</ele>
        <time>2026-08-22T02:24:54.000Z</time>
        <extensions>
          <ns3:TrackPointExtension>
            <ns3:hr>134</ns3:hr>
            <ns3:cad>50</ns3:cad>
          </ns3:TrackPointExtension>
        </extensions>
      </trkpt>
      <trkpt lat="45.2491763792932033538818359375" lon="-71.12998835742473602294921875">
        <ele>912.79998779296875</ele>
        <time>2026-08-22T02:24:55.000Z</time>
        <extensions>
          <ns3:TrackPointExtension>
            <ns3:hr>136</ns3:hr>
            <ns3:cad>50</ns3:cad>
          </ns3:TrackPointExtension>
        </extensions>
      </trkpt>
      <trkpt lat="45.24916112422943115234375" lon="-71.12998743541538715362548828125">
        <ele>912.79998779296875</ele>
        <time>2026-08-22T02:24:56.000Z</time>
        <extensions>
          <ns3:TrackPointExtension>
            <ns3:hr>136</ns3:hr>
            <ns3:cad>50</ns3:cad>
          </ns3:TrackPointExtension>
        </extensions>
      </trkpt>
      <trkpt lat="45.24914561770856380462646484375" lon="-71.12999481149017810821533203125">
        <ele>912.79998779296875</ele>
        <time>2026-08-22T02:24:57.000Z</time>
        <extensions>
          <ns3:TrackPointExtension>
            <ns3:hr>136</ns3:hr>
            <ns3:cad>50</ns3:cad>
          </ns3:TrackPointExtension>
        </extensions>
      </trkpt>
      <trkpt lat="45.24913120083510875701904296875" lon="-71.12998961471021175384521484375">
        <ele>912.79998779296875</ele>
        <time>2026-08-22T02:24:58.000Z</time>
        <extensions>
          <ns3:TrackPointExtension>
            <ns3:hr>137</ns3:hr>
            <ns3:cad>50</ns3:cad>
          </ns3:TrackPointExtension>
        </extensions>
      </trkpt>
      <trkpt lat="45.24911887943744659423828125" lon="-71.12998642958700656890869140625">
        <ele>912.79998779296875</ele>
        <time>2026-08-22T02:24:59.000Z</time>
        <extensions>
          <ns3:TrackPointExtension>
            <ns3:hr>137</ns3:hr>
            <ns3:cad>50</ns3:cad>
          </ns3:TrackPointExtension>
        </extensions>
      </trkpt>
      <trkpt lat="45.2491066418588161468505859375" lon="-71.12998508848249912261962890625">
        <ele>912.79998779296875</ele>
        <time>2026-08-22T02:25:00.000Z</time>
        <extensions>
          <ns3:TrackPointExtension>
            <ns3:hr>137</ns3:hr>
            <ns3:cad>50</ns3:cad>
          </ns3:TrackPointExtension>
        </extensions>
      </trkpt>
      <trkpt lat="45.24909364990890026092529296875" lon="-71.129984669387340545654296875">
        <ele>912.5999755859375</ele>
        <time>2026-08-22T02:25:01.000Z</time>
        <extensions>
          <ns3:TrackPointExtension>
            <ns3:hr>136</ns3:hr>
            <ns3:cad>0</ns3:cad>
          </ns3:TrackPointExtension>
        </extensions>
      </trkpt>
      <trkpt lat="45.2490774728357791900634765625" lon="-71.12998274154961109161376953125">
        <ele>912.5999755859375</ele>
        <time>2026-08-22T02:25:02.000Z</time>
        <extensions>
          <ns3:TrackPointExtension>
            <ns3:hr>136</ns3:hr>
            <ns3:cad>0</ns3:cad>
          </ns3:TrackPointExtension>
        </extensions>
      </trkpt>
      <trkpt lat="45.249074958264827728271484375" lon="-71.129974611103534698486328125">
        <ele>912.4000244140625</ele>
        <time>2026-08-22T02:25:03.000Z</time>
        <extensions>
          <ns3:TrackPointExtension>
            <ns3:hr>136</ns3:hr>
            <ns3:cad>0</ns3:cad>
          </ns3:TrackPointExtension>
        </extensions>
      </trkpt>
      <trkpt lat="45.249059535562992095947265625" lon="-71.1299715936183929443359375">
        <ele>912.4000244140625</ele>
        <time>2026-08-22T02:25:04.000Z</time>
        <extensions>
          <ns3:TrackPointExtension>
            <ns3:hr>135</ns3:hr>
            <ns3:cad>0</ns3:cad>
          </ns3:TrackPointExtension>
        </extensions>
      </trkpt>
      <trkpt lat="45.24904469959437847137451171875" lon="-71.12996949814260005950927734375">
        <ele>912.4000244140625</ele>
        <time>2026-08-22T02:25:05.000Z</time>
        <extensions>
          <ns3:TrackPointExtension>
            <ns3:hr>135</ns3:hr>
            <ns3:cad>0</ns3:cad>
          </ns3:TrackPointExtension>
        </extensions>
      </trkpt>
      <trkpt lat="45.24902776814997196197509765625" lon="-71.12996555864810943603515625">
        <ele>912.4000244140625</ele>
        <time>2026-08-22T02:25:06.000Z</time>
        <extensions>
          <ns3:TrackPointExtension>
            <ns3:hr>135</ns3:hr>
            <ns3:cad>0</ns3:cad>
          </ns3:TrackPointExtension>
        </extensions>
      </trkpt>
      <trkpt lat="45.24901402182877063751220703125" lon="-71.12996078096330165863037109375">
        <ele>912.4000244140625</ele>
        <time>2026-08-22T02:25:07.000Z</time>
        <extensions>
          <ns3:TrackPointExtension>
            <ns3:hr>135</ns3:hr>
            <ns3:cad>0</ns3:cad>
          </ns3:TrackPointExtension>
        </extensions>
      </trkpt>
      <trkpt lat="45.24900061078369617462158203125" lon="-71.1299581825733184814453125">
        <ele>912.4000244140625</ele>
        <time>2026-08-22T02:25:08.000Z</time>
        <extensions>
          <ns3:TrackPointExtension>
            <ns3:hr>136</ns3:hr>
            <ns3:cad>0</ns3:cad>
          </ns3:TrackPointExtension>
        </extensions>
      </trkpt>
      <trkpt lat="45.24897940456867218017578125" lon="-71.1299539916217327117919921875">
        <ele>912.4000244140625</ele>
        <time>2026-08-22T02:25:09.000Z</time>
        <extensions>
          <ns3:TrackPointExtension>
            <ns3:hr>136</ns3:hr>
            <ns3:cad>0</ns3:cad>
          </ns3:TrackPointExtension>
        </extensions>
      </trkpt>
      <trkpt lat="45.24896423332393169403076171875" lon="-71.12994887866079807281494140625">
        <ele>912.4000244140625</ele>
        <time>2026-08-22T02:25:10.000Z</time>
        <extensions>
          <ns3:TrackPointExtension>
            <ns3:hr>136</ns3:hr>
            <ns3:cad>0</ns3:cad>
          </ns3:TrackPointExtension>
        </extensions>
      </trkpt>
      <trkpt lat="45.24895098991692066192626953125" lon="-71.1299439333379268646240234375">
        <ele>912.4000244140625</ele>
        <time>2026-08-22T02:25:11.000Z</time>
        <extensions>
          <ns3:TrackPointExtension>
            <ns3:hr>136</ns3:hr>
            <ns3:cad>0</ns3:cad>
          </ns3:TrackPointExtension>
        </extensions>
      </trkpt>
      <trkpt lat="45.24893791414797306060791015625" lon="-71.1299395747482776641845703125">
        <ele>912.4000244140625</ele>
        <time>2026-08-22T02:25:12.000Z</time>
        <extensions>
          <ns3:TrackPointExtension>
            <ns3:hr>135</ns3:hr>
            <ns3:cad>0</ns3:cad>
          </ns3:TrackPointExtension>
        </extensions>
      </trkpt>
      <trkpt lat="45.24891377426683902740478515625" lon="-71.12993362359702587127685546875">
        <ele>912.4000244140625</ele>
        <time>2026-08-22T02:25:13.000Z</time>
        <extensions>
          <ns3:TrackPointExtension>
            <ns3:hr>135</ns3:hr>
            <ns3:cad>0</ns3:cad>
          </ns3:TrackPointExtension>
        </extensions>
      </trkpt>
      <trkpt lat="45.24889491498470306396484375" lon="-71.12993680872023105621337890625">
        <ele>912.4000244140625</ele>
        <time>2026-08-22T02:25:14.000Z</time>
        <extensions>
          <ns3:TrackPointExtension>
            <ns3:hr>135</ns3:hr>
            <ns3:cad>0</ns3:cad>
          </ns3:TrackPointExtension>
        </extensions>
      </trkpt>
      <trkpt lat="45.24888142012059688568115234375" lon="-71.12994099967181682586669921875">
        <ele>912.4000244140625</ele>
        <time>2026-08-22T02:25:15.000Z</time>
        <extensions>
          <ns3:TrackPointExtension>
            <ns3:hr>135</ns3:hr>
            <ns3:cad>0</ns3:cad>
          </ns3:TrackPointExtension>
        </extensions>
      </trkpt>
      <trkpt lat="45.24886616505682468414306640625" lon="-71.1299486272037029266357421875">
        <ele>912.4000244140625</ele>
        <time>2026-08-22T02:25:16.000Z</time>
        <extensions>
          <ns3:TrackPointExtension>
            <ns3:hr>135</ns3:hr>
            <ns3:cad>0</ns3:cad>
          </ns3:TrackPointExtension>
        </extensions>
      </trkpt>
      <trkpt lat="45.24885275401175022125244140625" lon="-71.12995390780270099639892578125">
        <ele>912.20001220703125</ele>
        <time>2026-08-22T02:25:17.000Z</time>
        <extensions>
          <ns3:TrackPointExtension>
            <ns3:hr>135</ns3:hr>
            <ns3:cad>69</ns3:cad>
          </ns3:TrackPointExtension>
        </extensions>
      </trkpt>
      <trkpt lat="45.24883733130991458892822265625" lon="-71.12995927222073078155517578125">
        <ele>912.20001220703125</ele>
        <time>2026-08-22T02:25:18.000Z</time>
        <extensions>
          <ns3:TrackPointExtension>
            <ns3:hr>135</ns3:hr>
            <ns3:cad>69</ns3:cad>
          </ns3:TrackPointExtension>
        </extensions>
      </trkpt>
      <trkpt lat="45.248822830617427825927734375" lon="-71.1299580149352550506591796875">
        <ele>912.20001220703125</ele>
        <time>2026-08-22T02:25:19.000Z</time>
        <extensions>
          <ns3:TrackPointExtension>
            <ns3:hr>135</ns3:hr>
            <ns3:cad>69</ns3:cad>
          </ns3:TrackPointExtension>
        </extensions>
      </trkpt>
      <trkpt lat="45.24881084449589252471923828125" lon="-71.12995407544076442718505859375">
        <ele>912.20001220703125</ele>
        <time>2026-08-22T02:25:20.000Z</time>
        <extensions>
          <ns3:TrackPointExtension>
            <ns3:hr>135</ns3:hr>
            <ns3:cad>69</ns3:cad>
          </ns3:TrackPointExtension>
        </extensions>
      </trkpt>
      <trkpt lat="45.2488005347549915313720703125" lon="-71.1299474537372589111328125">
        <ele>912.20001220703125</ele>
        <time>2026-08-22T02:25:21.000Z</time>
        <extensions>
          <ns3:TrackPointExtension>
            <ns3:hr>135</ns3:hr>
            <ns3:cad>69</ns3:cad>
          </ns3:TrackPointExtension>
        </extensions>
      </trkpt>
      <trkpt lat="45.24878569878637790679931640625" lon="-71.1299420893192291259765625">
        <ele>912.20001220703125</ele>
        <time>2026-08-22T02:25:22.000Z</time>
        <extensions>
          <ns3:TrackPointExtension>
            <ns3:hr>134</ns3:hr>
            <ns3:cad>69</ns3:cad>
          </ns3:TrackPointExtension>
        </extensions>
      </trkpt>
      <trkpt lat="45.248775221407413482666015625" lon="-71.12993982620537281036376953125">
        <ele>912.20001220703125</ele>
        <time>2026-08-22T02:25:23.000Z</time>
        <extensions>
          <ns3:TrackPointExtension>
            <ns3:hr>134</ns3:hr>
            <ns3:cad>69</ns3:cad>
          </ns3:TrackPointExtension>
        </extensions>
      </trkpt>
      <trkpt lat="45.2487613074481487274169921875" lon="-71.12993538379669189453125">
        <ele>912.20001220703125</ele>
        <time>2026-08-22T02:25:24.000Z</time>
        <extensions>
          <ns3:TrackPointExtension>
            <ns3:hr>134</ns3:hr>
            <ns3:cad>69</ns3:cad>
          </ns3:TrackPointExtension>
        </extensions>
      </trkpt>
      <trkpt lat="45.24874730966985225677490234375" lon="-71.12992892973124980926513671875">
        <ele>912.20001220703125</ele>
        <time>2026-08-22T02:25:25.000Z</time>
        <extensions>
          <ns3:TrackPointExtension>
            <ns3:hr>134</ns3:hr>
            <ns3:cad>69</ns3:cad>
          </ns3:TrackPointExtension>
        </extensions>
      </trkpt>
      <trkpt lat="45.248736999928951263427734375" lon="-71.12992121838033199310302734375">
        <ele>912.20001220703125</ele>
        <time>2026-08-22T02:25:26.000Z</time>
        <extensions>
          <ns3:TrackPointExtension>
            <ns3:hr>133</ns3:hr>
            <ns3:cad>69</ns3:cad>
          </ns3:TrackPointExtension>
        </extensions>
      </trkpt>
      <trkpt lat="45.248723924160003662109375" lon="-71.12992071546614170074462890625">
        <ele>912</ele>
        <time>2026-08-22T02:25:27.000Z</time>
        <extensions>
          <ns3:TrackPointExtension>
            <ns3:hr>132</ns3:hr>
            <ns3:cad>69</ns3:cad>
          </ns3:TrackPointExtension>
        </extensions>
      </trkpt>
      <trkpt lat="45.24871109984815120697021484375" lon="-71.12991685979068279266357421875">
        <ele>912</ele>
        <time>2026-08-22T02:25:28.000Z</time>
        <extensions>
          <ns3:TrackPointExtension>
            <ns3:hr>132</ns3:hr>
            <ns3:cad>69</ns3:cad>
          </ns3:TrackPointExtension>
        </extensions>
      </trkpt>
      <trkpt lat="45.2486976049840450286865234375" lon="-71.12991451285779476165771484375">
        <ele>912</ele>
        <time>2026-08-22T02:25:29.000Z</time>
        <extensions>
          <ns3:TrackPointExtension>
            <ns3:hr>132</ns3:hr>
            <ns3:cad>0</ns3:cad>
          </ns3:TrackPointExtension>
        </extensions>
      </trkpt>
      <trkpt lat="45.24868830107152462005615234375" lon="-71.12990931607782840728759765625">
        <ele>912.20001220703125</ele>
        <time>2026-08-22T02:25:30.000Z</time>
        <extensions>
          <ns3:TrackPointExtension>
            <ns3:hr>132</ns3:hr>
            <ns3:cad>0</ns3:cad>
          </ns3:TrackPointExtension>
        </extensions>
      </trkpt>
      <trkpt lat="45.24867757223546504974365234375" lon="-71.12990847788751125335693359375">
        <ele>912.20001220703125</ele>
        <time>2026-08-22T02:25:31.000Z</time>
        <extensions>
          <ns3:TrackPointExtension>
            <ns3:hr>132</ns3:hr>
            <ns3:cad>0</ns3:cad>
          </ns3:TrackPointExtension>
        </extensions>
      </trkpt>
      <trkpt lat="45.24866332300007343292236328125" lon="-71.12990680150687694549560546875">
        <ele>912</ele>
        <time>2026-08-22T02:25:32.000Z</time>
        <extensions>
          <ns3:TrackPointExtension>
            <ns3:hr>131</ns3:hr>
            <ns3:cad>0</ns3:cad>
          </ns3:TrackPointExtension>
        </extensions>
      </trkpt>
      <trkpt lat="45.24865276180207729339599609375" lon="-71.12989942543208599090576171875">
        <ele>912</ele>
        <time>2026-08-22T02:25:33.000Z</time>
        <extensions>
          <ns3:TrackPointExtension>
            <ns3:hr>131</ns3:hr>
            <ns3:cad>0</ns3:cad>
          </ns3:TrackPointExtension>
        </extensions>
      </trkpt>
      <trkpt lat="45.2486407756805419921875" lon="-71.12988903187215328216552734375">
        <ele>912</ele>
        <time>2026-08-22T02:25:34.000Z</time>
        <extensions>
          <ns3:TrackPointExtension>
            <ns3:hr>130</ns3:hr>
            <ns3:cad>0</ns3:cad>
          </ns3:TrackPointExtension>
        </extensions>
      </trkpt>
      <trkpt lat="45.2486313879489898681640625" lon="-71.12988215871155261993408203125">
        <ele>912</ele>
        <time>2026-08-22T02:25:35.000Z</time>
        <extensions>
          <ns3:TrackPointExtension>
            <ns3:hr>130</ns3:hr>
            <ns3:cad>0</ns3:cad>
          </ns3:TrackPointExtension>
        </extensions>
      </trkpt>
      <trkpt lat="45.2486208267509937286376953125" lon="-71.12988098524510860443115234375">
        <ele>912</ele>
        <time>2026-08-22T02:25:36.000Z</time>
        <extensions>
          <ns3:TrackPointExtension>
            <ns3:hr>130</ns3:hr>
            <ns3:cad>0</ns3:cad>
          </ns3:TrackPointExtension>
        </extensions>
      </trkpt>
      <trkpt lat="45.2486072480678558349609375" lon="-71.129878722131252288818359375">
        <ele>912</ele>
        <time>2026-08-22T02:25:37.000Z</time>
        <extensions>
          <ns3:TrackPointExtension>
            <ns3:hr>129</ns3:hr>
            <ns3:cad>0</ns3:cad>
          </ns3:TrackPointExtension>
        </extensions>
      </trkpt>
      <trkpt lat="45.24858721531927585601806640625" lon="-71.1298775486648082733154296875">
        <ele>912</ele>
        <time>2026-08-22T02:25:38.000Z</time>
        <extensions>
          <ns3:TrackPointExtension>
            <ns3:hr>129</ns3:hr>
            <ns3:cad>0</ns3:cad>
          </ns3:TrackPointExtension>
        </extensions>
      </trkpt>
      <trkpt lat="45.2485738880932331085205078125" lon="-71.12987210042774677276611328125">
        <ele>912.20001220703125</ele>
        <time>2026-08-22T02:25:39.000Z</time>
        <extensions>
          <ns3:TrackPointExtension>
            <ns3:hr>128</ns3:hr>
            <ns3:cad>56</ns3:cad>
          </ns3:TrackPointExtension>
        </extensions>
      </trkpt>
      <trkpt lat="45.24855695664882659912109375" lon="-71.12987796775996685028076171875">
        <ele>912.20001220703125</ele>
        <time>2026-08-22T02:25:40.000Z</time>
        <extensions>
          <ns3:TrackPointExtension>
            <ns3:hr>127</ns3:hr>
            <ns3:cad>56</ns3:cad>
          </ns3:TrackPointExtension>
        </extensions>
      </trkpt>
      <trkpt lat="45.248541869223117828369140625" lon="-71.12988266162574291229248046875">
        <ele>912.20001220703125</ele>
        <time>2026-08-22T02:25:41.000Z</time>
        <extensions>
          <ns3:TrackPointExtension>
            <ns3:hr>127</ns3:hr>
            <ns3:cad>56</ns3:cad>
          </ns3:TrackPointExtension>
        </extensions>
      </trkpt>
      <trkpt lat="45.248532481491565704345703125" lon="-71.12989020533859729766845703125">
        <ele>912.20001220703125</ele>
        <time>2026-08-22T02:25:42.000Z</time>
        <extensions>
          <ns3:TrackPointExtension>
            <ns3:hr>126</ns3:hr>
            <ns3:cad>51</ns3:cad>
          </ns3:TrackPointExtension>
        </extensions>
      </trkpt>
      <trkpt lat="45.24852284230291843414306640625" lon="-71.12990143708884716033935546875">
        <ele>912.4000244140625</ele>
        <time>2026-08-22T02:25:43.000Z</time>
        <extensions>
          <ns3:TrackPointExtension>
            <ns3:hr>126</ns3:hr>
            <ns3:cad>51</ns3:cad>
          </ns3:TrackPointExtension>
        </extensions>
      </trkpt>
      <trkpt lat="45.24850733578205108642578125" lon="-71.1299114115536212921142578125">
        <ele>912.4000244140625</ele>
        <time>2026-08-22T02:25:44.000Z</time>
        <extensions>
          <ns3:TrackPointExtension>
            <ns3:hr>125</ns3:hr>
            <ns3:cad>51</ns3:cad>
          </ns3:TrackPointExtension>
        </extensions>
      </trkpt>
      <trkpt lat="45.24849870242178440093994140625" lon="-71.12991685979068279266357421875">
        <ele>912.5999755859375</ele>
        <time>2026-08-22T02:25:45.000Z</time>
        <extensions>
          <ns3:TrackPointExtension>
            <ns3:hr>125</ns3:hr>
            <ns3:cad>51</ns3:cad>
          </ns3:TrackPointExtension>
        </extensions>
      </trkpt>
      <trkpt lat="45.248486213386058807373046875" lon="-71.1299325339496135711669921875">
        <ele>912.79998779296875</ele>
        <time>2026-08-22T02:25:46.000Z</time>
        <extensions>
          <ns3:TrackPointExtension>
            <ns3:hr>125</ns3:hr>
            <ns3:cad>51</ns3:cad>
          </ns3:TrackPointExtension>
        </extensions>
      </trkpt>
      <trkpt lat="45.2484758198261260986328125" lon="-71.129938066005706787109375">
        <ele>912.79998779296875</ele>
        <time>2026-08-22T02:25:47.000Z</time>
        <extensions>
          <ns3:TrackPointExtension>
            <ns3:hr>125</ns3:hr>
            <ns3:cad>51</ns3:cad>
          </ns3:TrackPointExtension>
        </extensions>
      </trkpt>
      <trkpt lat="45.24846433661878108978271484375" lon="-71.12994468770921230316162109375">
        <ele>913</ele>
        <time>2026-08-22T02:25:48.000Z</time>
        <extensions>
          <ns3:TrackPointExtension>
            <ns3:hr>125</ns3:hr>
            <ns3:cad>0</ns3:cad>
          </ns3:TrackPointExtension>
        </extensions>
      </trkpt>
      <trkpt lat="45.24844841100275516510009765625" lon="-71.12995608709752559661865234375">
        <ele>913.20001220703125</ele>
        <time>2026-08-22T02:25:49.000Z</time>
        <extensions>
          <ns3:TrackPointExtension>
            <ns3:hr>125</ns3:hr>
            <ns3:cad>0</ns3:cad>
          </ns3:TrackPointExtension>
        </extensions>
      </trkpt>
      <trkpt lat="45.24843416176736354827880859375" lon="-71.129964888095855712890625">
        <ele>913.20001220703125</ele>
        <time>2026-08-22T02:25:50.000Z</time>
        <extensions>
          <ns3:TrackPointExtension>
            <ns3:hr>124</ns3:hr>
            <ns3:cad>0</ns3:cad>
          </ns3:TrackPointExtension>
        </extensions>
      </trkpt>
      <trkpt lat="45.2484196610748767852783203125" lon="-71.1299704201519489288330078125">
        <ele>913.4000244140625</ele>
        <time>2026-08-22T02:25:51.000Z</time>
        <extensions>
          <ns3:TrackPointExtension>
            <ns3:hr>123</ns3:hr>
            <ns3:cad>0</ns3:cad>
          </ns3:TrackPointExtension>
        </extensions>
      </trkpt>
      <trkpt lat="45.24840138852596282958984375" lon="-71.1299811489880084991455078125">
        <ele>913.5999755859375</ele>
        <time>2026-08-22T02:25:52.000Z</time>
        <extensions>
          <ns3:TrackPointExtension>
            <ns3:hr>123</ns3:hr>
            <ns3:cad>0</ns3:cad>
          </ns3:TrackPointExtension>
        </extensions>
      </trkpt>
      <trkpt lat="45.24838688783347606658935546875" lon="-71.12999774515628814697265625">
        <ele>913.5999755859375</ele>
        <time>2026-08-22T02:25:53.000Z</time>
        <extensions>
          <ns3:TrackPointExtension>
            <ns3:hr>123</ns3:hr>
            <ns3:cad>0</ns3:cad>
          </ns3:TrackPointExtension>
        </extensions>
      </trkpt>
      <trkpt lat="45.2483757399022579193115234375" lon="-71.13000235520303249359130859375">
        <ele>913.5999755859375</ele>
        <time>2026-08-22T02:25:54.000Z</time>
        <extensions>
          <ns3:TrackPointExtension>
            <ns3:hr>125</ns3:hr>
            <ns3:cad>0</ns3:cad>
          </ns3:TrackPointExtension>
        </extensions>
      </trkpt>
      <trkpt lat="45.24836760945618152618408203125" lon="-71.13001442514359951019287109375">
        <ele>913.79998779296875</ele>
        <time>2026-08-22T02:25:55.000Z</time>
        <extensions>
          <ns3:TrackPointExtension>
            <ns3:hr>126</ns3:hr>
            <ns3:cad>0</ns3:cad>
          </ns3:TrackPointExtension>
        </extensions>
      </trkpt>
      <trkpt lat="45.2483589760959148406982421875" lon="-71.1300277523696422576904296875">
        <ele>913.79998779296875</ele>
        <time>2026-08-22T02:25:56.000Z</time>
        <extensions>
          <ns3:TrackPointExtension>
            <ns3:hr>126</ns3:hr>
            <ns3:cad>0</ns3:cad>
          </ns3:TrackPointExtension>
        </extensions>
      </trkpt>
      <trkpt lat="45.2483492530882358551025390625" lon="-71.130037643015384674072265625">
        <ele>913.79998779296875</ele>
        <time>2026-08-22T02:25:57.000Z</time>
        <extensions>
          <ns3:TrackPointExtension>
            <ns3:hr>126</ns3:hr>
            <ns3:cad>0</ns3:cad>
          </ns3:TrackPointExtension>
        </extensions>
      </trkpt>
      <trkpt lat="45.2483405359089374542236328125" lon="-71.13004334270954132080078125">
        <ele>914</ele>
        <time>2026-08-22T02:25:58.000Z</time>
        <extensions>
          <ns3:TrackPointExtension>
            <ns3:hr>126</ns3:hr>
            <ns3:cad>0</ns3:cad>
          </ns3:TrackPointExtension>
        </extensions>
      </trkpt>
      <trkpt lat="45.24832955561578273773193359375" lon="-71.130050383508205413818359375">
        <ele>914</ele>
        <time>2026-08-22T02:25:59.000Z</time>
        <extensions>
          <ns3:TrackPointExtension>
            <ns3:hr>127</ns3:hr>
            <ns3:cad>0</ns3:cad>
          </ns3:TrackPointExtension>
        </extensions>
      </trkpt>
      <trkpt lat="45.248322598636150360107421875" lon="-71.13005138933658599853515625">
        <ele>914</ele>
        <time>2026-08-22T02:26:00.000Z</time>
        <extensions>
          <ns3:TrackPointExtension>
            <ns3:hr>128</ns3:hr>
            <ns3:cad>0</ns3:cad>
          </ns3:TrackPointExtension>
        </extensions>
      </trkpt>
      <trkpt lat="45.24831681512296199798583984375" lon="-71.13005063496530055999755859375">
        <ele>914</ele>
        <time>2026-08-22T02:26:01.000Z</time>
        <extensions>
          <ns3:TrackPointExtension>
            <ns3:hr>128</ns3:hr>
            <ns3:cad>0</ns3:cad>
          </ns3:TrackPointExtension>
        </extensions>
      </trkpt>
      <trkpt lat="45.24831446819007396697998046875" lon="-71.13005298189818859100341796875">
        <ele>914</ele>
        <time>2026-08-22T02:26:02.000Z</time>
        <extensions>
          <ns3:TrackPointExtension>
            <ns3:hr>128</ns3:hr>
            <ns3:cad>0</ns3:cad>
          </ns3:TrackPointExtension>
        </extensions>
      </trkpt>
      <trkpt lat="45.248310528695583343505859375" lon="-71.1300539039075374603271484375">
        <ele>914</ele>
        <time>2026-08-22T02:26:03.000Z</time>
        <extensions>
          <ns3:TrackPointExtension>
            <ns3:hr>127</ns3:hr>
            <ns3:cad>0</ns3:cad>
          </ns3:TrackPointExtension>
        </extensions>
      </trkpt>
      <trkpt lat="45.24830088950693607330322265625" lon="-71.1300520598888397216796875">
        <ele>914</ele>
        <time>2026-08-22T02:26:04.000Z</time>
        <extensions>
          <ns3:TrackPointExtension>
            <ns3:hr>128</ns3:hr>
            <ns3:cad>0</ns3:cad>
          </ns3:TrackPointExtension>
        </extensions>
      </trkpt>
      <trkpt lat="45.24828529916703701019287109375" lon="-71.1300512216985225677490234375">
        <ele>914</ele>
        <time>2026-08-22T02:26:05.000Z</time>
        <extensions>
          <ns3:TrackPointExtension>
            <ns3:hr>128</ns3:hr>
            <ns3:cad>0</ns3:cad>
          </ns3:TrackPointExtension>
        </extensions>
      </trkpt>
      <trkpt lat="45.24827264249324798583984375" lon="-71.1300606094300746917724609375">
        <ele>914</ele>
        <time>2026-08-22T02:26:06.000Z</time>
        <extensions>
          <ns3:TrackPointExtension>
            <ns3:hr>128</ns3:hr>
            <ns3:cad>0</ns3:cad>
          </ns3:TrackPointExtension>
        </extensions>
      </trkpt>
      <trkpt lat="45.24826367385685443878173828125" lon="-71.1300703324377536773681640625">
        <ele>914</ele>
        <time>2026-08-22T02:26:07.000Z</time>
        <extensions>
          <ns3:TrackPointExtension>
            <ns3:hr>128</ns3:hr>
            <ns3:cad>0</ns3:cad>
          </ns3:TrackPointExtension>
        </extensions>
      </trkpt>
      <trkpt lat="45.24825445376336574554443359375" lon="-71.1300813965499401092529296875">
        <ele>913.79998779296875</ele>
        <time>2026-08-22T02:26:08.000Z</time>
        <extensions>
          <ns3:TrackPointExtension>
            <ns3:hr>127</ns3:hr>
            <ns3:cad>0</ns3:cad>
          </ns3:TrackPointExtension>
        </extensions>
      </trkpt>
      <trkpt lat="45.2482439763844013214111328125" lon="-71.1300887726247310638427734375">
        <ele>913.79998779296875</ele>
        <time>2026-08-22T02:26:09.000Z</time>
        <extensions>
          <ns3:TrackPointExtension>
            <ns3:hr>126</ns3:hr>
            <ns3:cad>0</ns3:cad>
          </ns3:TrackPointExtension>
        </extensions>
      </trkpt>
      <trkpt lat="45.24823534302413463592529296875" lon="-71.13009656779468059539794921875">
        <ele>913.79998779296875</ele>
        <time>2026-08-22T02:26:10.000Z</time>
        <extensions>
          <ns3:TrackPointExtension>
            <ns3:hr>126</ns3:hr>
            <ns3:cad>0</ns3:cad>
          </ns3:TrackPointExtension>
        </extensions>
      </trkpt>
      <trkpt lat="45.248230732977390289306640625" lon="-71.13010461442172527313232421875">
        <ele>913.79998779296875</ele>
        <time>2026-08-22T02:26:11.000Z</time>
        <extensions>
          <ns3:TrackPointExtension>
            <ns3:hr>126</ns3:hr>
            <ns3:cad>0</ns3:cad>
          </ns3:TrackPointExtension>
        </extensions>
      </trkpt>
      <trkpt lat="45.248219333589076995849609375" lon="-71.1301142536103725433349609375">
        <ele>913.79998779296875</ele>
        <time>2026-08-22T02:26:12.000Z</time>
        <extensions>
          <ns3:TrackPointExtension>
            <ns3:hr>126</ns3:hr>
            <ns3:cad>59</ns3:cad>
          </ns3:TrackPointExtension>
        </extensions>
      </trkpt>
      <trkpt lat="45.2482077665627002716064453125" lon="-71.130120456218719482421875">
        <ele>913.79998779296875</ele>
        <time>2026-08-22T02:26:13.000Z</time>
        <extensions>
          <ns3:TrackPointExtension>
            <ns3:hr>126</ns3:hr>
            <ns3:cad>0</ns3:cad>
          </ns3:TrackPointExtension>
        </extensions>
      </trkpt>
      <trkpt lat="45.2482013963162899017333984375" lon="-71.1301310174167156219482421875">
        <ele>914</ele>
        <time>2026-08-22T02:26:14.000Z</time>
        <extensions>
          <ns3:TrackPointExtension>
            <ns3:hr>126</ns3:hr>
            <ns3:cad>0</ns3:cad>
          </ns3:TrackPointExtension>
        </extensions>
      </trkpt>
      <trkpt lat="45.248197205364704132080078125" lon="-71.1301491223275661468505859375">
        <ele>914.20001220703125</ele>
        <time>2026-08-22T02:26:15.000Z</time>
        <extensions>
          <ns3:TrackPointExtension>
            <ns3:hr>126</ns3:hr>
            <ns3:cad>43</ns3:cad>
          </ns3:TrackPointExtension>
        </extensions>
      </trkpt>
      <trkpt lat="45.24819041602313518524169921875" lon="-71.13016580231487751007080078125">
        <ele>914.20001220703125</ele>
        <time>2026-08-22T02:26:16.000Z</time>
        <extensions>
          <ns3:TrackPointExtension>
            <ns3:hr>126</ns3:hr>
            <ns3:cad>43</ns3:cad>
          </ns3:TrackPointExtension>
        </extensions>
      </trkpt>
      <trkpt lat="45.24818320758640766143798828125" lon="-71.13017971627414226531982421875">
        <ele>914.20001220703125</ele>
        <time>2026-08-22T02:26:17.000Z</time>
        <extensions>
          <ns3:TrackPointExtension>
            <ns3:hr>127</ns3:hr>
            <ns3:cad>43</ns3:cad>
          </ns3:TrackPointExtension>
        </extensions>
      </trkpt>
      <trkpt lat="45.24817608296871185302734375" lon="-71.13018658943474292755126953125">
        <ele>914.20001220703125</ele>
        <time>2026-08-22T02:26:18.000Z</time>
        <extensions>
          <ns3:TrackPointExtension>
            <ns3:hr>127</ns3:hr>
            <ns3:cad>43</ns3:cad>
          </ns3:TrackPointExtension>
        </extensions>
      </trkpt>
      <trkpt lat="45.2481614984571933746337890625" lon="-71.1301990784704685211181640625">
        <ele>914.4000244140625</ele>
        <time>2026-08-22T02:26:19.000Z</time>
        <extensions>
          <ns3:TrackPointExtension>
            <ns3:hr>128</ns3:hr>
            <ns3:cad>0</ns3:cad>
          </ns3:TrackPointExtension>
        </extensions>
      </trkpt>
      <trkpt lat="45.2481423877179622650146484375" lon="-71.13020829856395721435546875">
        <ele>914.20001220703125</ele>
        <time>2026-08-22T02:26:20.000Z</time>
        <extensions>
          <ns3:TrackPointExtension>
            <ns3:hr>128</ns3:hr>
            <ns3:cad>0</ns3:cad>
          </ns3:TrackPointExtension>
        </extensions>
      </trkpt>
      <trkpt lat="45.2481319941580295562744140625" lon="-71.13021357916295528411865234375">
        <ele>914.4000244140625</ele>
        <time>2026-08-22T02:26:21.000Z</time>
        <extensions>
          <ns3:TrackPointExtension>
            <ns3:hr>128</ns3:hr>
            <ns3:cad>0</ns3:cad>
          </ns3:TrackPointExtension>
        </extensions>
      </trkpt>
      <trkpt lat="45.24811615236103534698486328125" lon="-71.13021894358098506927490234375">
        <ele>914.4000244140625</ele>
        <time>2026-08-22T02:26:22.000Z</time>
        <extensions>
          <ns3:TrackPointExtension>
            <ns3:hr>127</ns3:hr>
            <ns3:cad>0</ns3:cad>
          </ns3:TrackPointExtension>
        </extensions>
      </trkpt>
      <trkpt lat="45.2481024898588657379150390625" lon="-71.13022061996161937713623046875">
        <ele>914.4000244140625</ele>
        <time>2026-08-22T02:26:23.000Z</time>
        <extensions>
          <ns3:TrackPointExtension>
            <ns3:hr>127</ns3:hr>
            <ns3:cad>0</ns3:cad>
          </ns3:TrackPointExtension>
        </extensions>
      </trkpt>
      <trkpt lat="45.2480907551944255828857421875" lon="-71.130229420959949493408203125">
        <ele>914.4000244140625</ele>
        <time>2026-08-22T02:26:24.000Z</time>
        <extensions>
          <ns3:TrackPointExtension>
            <ns3:hr>126</ns3:hr>
            <ns3:cad>0</ns3:cad>
          </ns3:TrackPointExtension>
        </extensions>
      </trkpt>
      <trkpt lat="45.24808195419609546661376953125" lon="-71.13023587502539157867431640625">
        <ele>914.4000244140625</ele>
        <time>2026-08-22T02:26:25.000Z</time>
        <extensions>
          <ns3:TrackPointExtension>
            <ns3:hr>126</ns3:hr>
            <ns3:cad>0</ns3:cad>
          </ns3:TrackPointExtension>
        </extensions>
      </trkpt>
      <trkpt lat="45.248067788779735565185546875" lon="-71.13024123944342136383056640625">
        <ele>914.5999755859375</ele>
        <time>2026-08-22T02:26:26.000Z</time>
        <extensions>
          <ns3:TrackPointExtension>
            <ns3:hr>125</ns3:hr>
            <ns3:cad>0</ns3:cad>
          </ns3:TrackPointExtension>
        </extensions>
      </trkpt>
      <trkpt lat="45.24805697612464427947998046875" lon="-71.13024643622338771820068359375">
        <ele>914.5999755859375</ele>
        <time>2026-08-22T02:26:27.000Z</time>
        <extensions>
          <ns3:TrackPointExtension>
            <ns3:hr>125</ns3:hr>
            <ns3:cad>53</ns3:cad>
          </ns3:TrackPointExtension>
        </extensions>
      </trkpt>
      <trkpt lat="45.24804239161312580108642578125" lon="-71.1302533932030200958251953125">
        <ele>914.5999755859375</ele>
        <time>2026-08-22T02:26:28.000Z</time>
        <extensions>
          <ns3:TrackPointExtension>
            <ns3:hr>126</ns3:hr>
            <ns3:cad>53</ns3:cad>
          </ns3:TrackPointExtension>
        </extensions>
      </trkpt>
      <trkpt lat="45.248029567301273345947265625" lon="-71.1302564106881618499755859375">
        <ele>914.79998779296875</ele>
        <time>2026-08-22T02:26:29.000Z</time>
        <extensions>
          <ns3:TrackPointExtension>
            <ns3:hr>126</ns3:hr>
            <ns3:cad>0</ns3:cad>
          </ns3:TrackPointExtension>
        </extensions>
      </trkpt>
      <trkpt lat="45.24801917374134063720703125" lon="-71.13025984726846218109130859375">
        <ele>914.79998779296875</ele>
        <time>2026-08-22T02:26:30.000Z</time>
        <extensions>
          <ns3:TrackPointExtension>
            <ns3:hr>126</ns3:hr>
            <ns3:cad>0</ns3:cad>
          </ns3:TrackPointExtension>
        </extensions>
      </trkpt>
      <trkpt lat="45.24800467304885387420654296875" lon="-71.13026504404842853546142578125">
        <ele>915</ele>
        <time>2026-08-22T02:26:31.000Z</time>
        <extensions>
          <ns3:TrackPointExtension>
            <ns3:hr>126</ns3:hr>
            <ns3:cad>0</ns3:cad>
          </ns3:TrackPointExtension>
        </extensions>
      </trkpt>
      <trkpt lat="45.2479903399944305419921875" lon="-71.1302773654460906982421875">
        <ele>915</ele>
        <time>2026-08-22T02:26:32.000Z</time>
        <extensions>
          <ns3:TrackPointExtension>
            <ns3:hr>126</ns3:hr>
            <ns3:cad>0</ns3:cad>
          </ns3:TrackPointExtension>
        </extensions>
      </trkpt>
      <trkpt lat="45.2479841373860836029052734375" lon="-71.1302818916738033294677734375">
        <ele>915.4000244140625</ele>
        <time>2026-08-22T02:26:33.000Z</time>
        <extensions>
          <ns3:TrackPointExtension>
            <ns3:hr>126</ns3:hr>
            <ns3:cad>0</ns3:cad>
          </ns3:TrackPointExtension>
        </extensions>
      </trkpt>
      <trkpt lat="45.24797768332064151763916015625" lon="-71.1302872560918331146240234375">
        <ele>915.5999755859375</ele>
        <time>2026-08-22T02:26:34.000Z</time>
        <extensions>
          <ns3:TrackPointExtension>
            <ns3:hr>126</ns3:hr>
            <ns3:cad>0</ns3:cad>
          </ns3:TrackPointExtension>
        </extensions>
      </trkpt>
      <trkpt lat="45.247972905635833740234375" lon="-71.1302947998046875">
        <ele>915.79998779296875</ele>
        <time>2026-08-22T02:26:35.000Z</time>
        <extensions>
          <ns3:TrackPointExtension>
            <ns3:hr>126</ns3:hr>
            <ns3:cad>0</ns3:cad>
          </ns3:TrackPointExtension>
        </extensions>
      </trkpt>
      <trkpt lat="45.24797064252197742462158203125" lon="-71.130301840603351593017578125">
        <ele>916.20001220703125</ele>
        <time>2026-08-22T02:26:36.000Z</time>
        <extensions>
          <ns3:TrackPointExtension>
            <ns3:hr>126</ns3:hr>
            <ns3:cad>0</ns3:cad>
          </ns3:TrackPointExtension>
        </extensions>
      </trkpt>
      <trkpt lat="45.24795748293399810791015625" lon="-71.13031290471553802490234375">
        <ele>916.5999755859375</ele>
        <time>2026-08-22T02:26:37.000Z</time>
        <extensions>
          <ns3:TrackPointExtension>
            <ns3:hr>127</ns3:hr>
            <ns3:cad>0</ns3:cad>
          </ns3:TrackPointExtension>
        </extensions>
      </trkpt>
      <trkpt lat="45.24794331751763820648193359375" lon="-71.13032505847513675689697265625">
        <ele>916.79998779296875</ele>
        <time>2026-08-22T02:26:38.000Z</time>
        <extensions>
          <ns3:TrackPointExtension>
            <ns3:hr>127</ns3:hr>
            <ns3:cad>0</ns3:cad>
          </ns3:TrackPointExtension>
        </extensions>
      </trkpt>
      <trkpt lat="45.24793091230094432830810546875" lon="-71.13033545203506946563720703125">
        <ele>917</ele>
        <time>2026-08-22T02:26:39.000Z</time>
        <extensions>
          <ns3:TrackPointExtension>
            <ns3:hr>127</ns3:hr>
            <ns3:cad>0</ns3:cad>
          </ns3:TrackPointExtension>
        </extensions>
      </trkpt>
      <trkpt lat="45.24790861643850803375244140625" lon="-71.13034911453723907470703125">
        <ele>917.20001220703125</ele>
        <time>2026-08-22T02:26:40.000Z</time>
        <extensions>
          <ns3:TrackPointExtension>
            <ns3:hr>127</ns3:hr>
            <ns3:cad>0</ns3:cad>
          </ns3:TrackPointExtension>
        </extensions>
      </trkpt>
      <trkpt lat="45.2479003183543682098388671875" lon="-71.130356825888156890869140625">
        <ele>917.20001220703125</ele>
        <time>2026-08-22T02:26:41.000Z</time>
        <extensions>
          <ns3:TrackPointExtension>
            <ns3:hr>128</ns3:hr>
            <ns3:cad>45</ns3:cad>
          </ns3:TrackPointExtension>
        </extensions>
      </trkpt>
      <trkpt lat="45.24787927977740764617919921875" lon="-71.1303740926086902618408203125">
        <ele>917.4000244140625</ele>
        <time>2026-08-22T02:26:42.000Z</time>
        <extensions>
          <ns3:TrackPointExtension>
            <ns3:hr>128</ns3:hr>
            <ns3:cad>45</ns3:cad>
          </ns3:TrackPointExtension>
        </extensions>
      </trkpt>
      <trkpt lat="45.24786888621747493743896484375" lon="-71.13038071431219577789306640625">
        <ele>917.4000244140625</ele>
        <time>2026-08-22T02:26:43.000Z</time>
        <extensions>
          <ns3:TrackPointExtension>
            <ns3:hr>129</ns3:hr>
            <ns3:cad>0</ns3:cad>
          </ns3:TrackPointExtension>
        </extensions>
      </trkpt>
      <trkpt lat="45.24785564281046390533447265625" lon="-71.13039194606244564056396484375">
        <ele>917.5999755859375</ele>
        <time>2026-08-22T02:26:44.000Z</time>
        <extensions>
          <ns3:TrackPointExtension>
            <ns3:hr>130</ns3:hr>
            <ns3:cad>0</ns3:cad>
          </ns3:TrackPointExtension>
        </extensions>
      </trkpt>
      <trkpt lat="45.24783887900412082672119140625" lon="-71.13040619529783725738525390625">
        <ele>918</ele>
        <time>2026-08-22T02:26:45.000Z</time>
        <extensions>
          <ns3:TrackPointExtension>
            <ns3:hr>129</ns3:hr>
            <ns3:cad>0</ns3:cad>
          </ns3:TrackPointExtension>
        </extensions>
      </trkpt>
      <trkpt lat="45.24782161228358745574951171875" lon="-71.13042094744741916656494140625">
        <ele>918.20001220703125</ele>
        <time>2026-08-22T02:26:46.000Z</time>
        <extensions>
          <ns3:TrackPointExtension>
            <ns3:hr>129</ns3:hr>
            <ns3:cad>0</ns3:cad>
          </ns3:TrackPointExtension>
        </extensions>
      </trkpt>
      <trkpt lat="45.2478064410388469696044921875" lon="-71.13043670542538166046142578125">
        <ele>918.4000244140625</ele>
        <time>2026-08-22T02:26:47.000Z</time>
        <extensions>
          <ns3:TrackPointExtension>
            <ns3:hr>129</ns3:hr>
            <ns3:cad>0</ns3:cad>
          </ns3:TrackPointExtension>
        </extensions>
      </trkpt>
      <trkpt lat="45.247793532907962799072265625" lon="-71.13045196048915386199951171875">
        <ele>918.5999755859375</ele>
        <time>2026-08-22T02:26:48.000Z</time>
        <extensions>
          <ns3:TrackPointExtension>
            <ns3:hr>129</ns3:hr>
            <ns3:cad>0</ns3:cad>
          </ns3:TrackPointExtension>
        </extensions>
      </trkpt>
      <trkpt lat="45.2477782778441905975341796875" lon="-71.13046847283840179443359375">
        <ele>918.5999755859375</ele>
        <time>2026-08-22T02:26:49.000Z</time>
        <extensions>
          <ns3:TrackPointExtension>
            <ns3:hr>129</ns3:hr>
            <ns3:cad>0</ns3:cad>
          </ns3:TrackPointExtension>
        </extensions>
      </trkpt>
      <trkpt lat="45.247759334743022918701171875" lon="-71.1304843984544277191162109375">
        <ele>918.5999755859375</ele>
        <time>2026-08-22T02:26:50.000Z</time>
        <extensions>
          <ns3:TrackPointExtension>
            <ns3:hr>129</ns3:hr>
            <ns3:cad>0</ns3:cad>
          </ns3:TrackPointExtension>
        </extensions>
      </trkpt>
      <trkpt lat="45.2477440796792507171630859375" lon="-71.130497641861438751220703125">
        <ele>918.5999755859375</ele>
        <time>2026-08-22T02:26:51.000Z</time>
        <extensions>
          <ns3:TrackPointExtension>
            <ns3:hr>130</ns3:hr>
            <ns3:cad>0</ns3:cad>
          </ns3:TrackPointExtension>
        </extensions>
      </trkpt>
      <trkpt lat="45.24773008190095424652099609375" lon="-71.1305142380297183990478515625">
        <ele>918.5999755859375</ele>
        <time>2026-08-22T02:26:52.000Z</time>
        <extensions>
          <ns3:TrackPointExtension>
            <ns3:hr>131</ns3:hr>
            <ns3:cad>0</ns3:cad>
          </ns3:TrackPointExtension>
        </extensions>
      </trkpt>
      <trkpt lat="45.247713737189769744873046875" lon="-71.13052890636026859283447265625">
        <ele>918.5999755859375</ele>
        <time>2026-08-22T02:26:53.000Z</time>
        <extensions>
          <ns3:TrackPointExtension>
            <ns3:hr>131</ns3:hr>
            <ns3:cad>0</ns3:cad>
          </ns3:TrackPointExtension>
        </extensions>
      </trkpt>
      <trkpt lat="45.2477018348872661590576171875" lon="-71.130541227757930755615234375">
        <ele>918.79998779296875</ele>
        <time>2026-08-22T02:26:54.000Z</time>
        <extensions>
          <ns3:TrackPointExtension>
            <ns3:hr>132</ns3:hr>
            <ns3:cad>0</ns3:cad>
          </ns3:TrackPointExtension>
        </extensions>
      </trkpt>
      <trkpt lat="45.24769085459411144256591796875" lon="-71.13055321387946605682373046875">
        <ele>918.79998779296875</ele>
        <time>2026-08-22T02:26:55.000Z</time>
        <extensions>
          <ns3:TrackPointExtension>
            <ns3:hr>133</ns3:hr>
            <ns3:cad>0</ns3:cad>
          </ns3:TrackPointExtension>
        </extensions>
      </trkpt>
      <trkpt lat="45.24768264032900333404541015625" lon="-71.130564026534557342529296875">
        <ele>919</ele>
        <time>2026-08-22T02:26:56.000Z</time>
        <extensions>
          <ns3:TrackPointExtension>
            <ns3:hr>133</ns3:hr>
            <ns3:cad>0</ns3:cad>
          </ns3:TrackPointExtension>
        </extensions>
      </trkpt>
      <trkpt lat="45.24766855873167514801025390625" lon="-71.13057668320834636688232421875">
        <ele>919.20001220703125</ele>
        <time>2026-08-22T02:26:57.000Z</time>
        <extensions>
          <ns3:TrackPointExtension>
            <ns3:hr>134</ns3:hr>
            <ns3:cad>0</ns3:cad>
          </ns3:TrackPointExtension>
        </extensions>
      </trkpt>
      <trkpt lat="45.247660093009471893310546875" lon="-71.1305826343595981597900390625">
        <ele>919.4000244140625</ele>
        <time>2026-08-22T02:26:58.000Z</time>
        <extensions>
          <ns3:TrackPointExtension>
            <ns3:hr>135</ns3:hr>
            <ns3:cad>0</ns3:cad>
          </ns3:TrackPointExtension>
        </extensions>
      </trkpt>
      <trkpt lat="45.24765037000179290771484375" lon="-71.13058925606310367584228515625">
        <ele>919.4000244140625</ele>
        <time>2026-08-22T02:26:59.000Z</time>
        <extensions>
          <ns3:TrackPointExtension>
            <ns3:hr>135</ns3:hr>
            <ns3:cad>0</ns3:cad>
          </ns3:TrackPointExtension>
        </extensions>
      </trkpt>
      <trkpt lat="45.24764156900346279144287109375" lon="-71.1305963806807994842529296875">
        <ele>919.5999755859375</ele>
        <time>2026-08-22T02:27:00.000Z</time>
        <extensions>
          <ns3:TrackPointExtension>
            <ns3:hr>136</ns3:hr>
            <ns3:cad>0</ns3:cad>
          </ns3:TrackPointExtension>
        </extensions>
      </trkpt>
      <trkpt lat="45.247627235949039459228515625" lon="-71.13060266710817813873291015625">
        <ele>919.79998779296875</ele>
        <time>2026-08-22T02:27:01.000Z</time>
        <extensions>
          <ns3:TrackPointExtension>
            <ns3:hr>136</ns3:hr>
            <ns3:cad>0</ns3:cad>
          </ns3:TrackPointExtension>
        </extensions>
      </trkpt>
      <trkpt lat="45.24761826731264591217041015625" lon="-71.13060769625008106231689453125">
        <ele>920</ele>
        <time>2026-08-22T02:27:02.000Z</time>
        <extensions>
          <ns3:TrackPointExtension>
            <ns3:hr>137</ns3:hr>
            <ns3:cad>0</ns3:cad>
          </ns3:TrackPointExtension>
        </extensions>
      </trkpt>
      <trkpt lat="45.24760988540947437286376953125" lon="-71.13061591051518917083740234375">
        <ele>920</ele>
        <time>2026-08-22T02:27:03.000Z</time>
        <extensions>
          <ns3:TrackPointExtension>
            <ns3:hr>136</ns3:hr>
            <ns3:cad>50</ns3:cad>
          </ns3:TrackPointExtension>
        </extensions>
      </trkpt>
      <trkpt lat="45.24760083295404911041259765625" lon="-71.13062630407512187957763671875">
        <ele>920</ele>
        <time>2026-08-22T02:27:04.000Z</time>
        <extensions>
          <ns3:TrackPointExtension>
            <ns3:hr>136</ns3:hr>
            <ns3:cad>50</ns3:cad>
          </ns3:TrackPointExtension>
        </extensions>
      </trkpt>
      <trkpt lat="45.24759278632700443267822265625" lon="-71.13063720054924488067626953125">
        <ele>920.20001220703125</ele>
        <time>2026-08-22T02:27:05.000Z</time>
        <extensions>
          <ns3:TrackPointExtension>
            <ns3:hr>137</ns3:hr>
            <ns3:cad>0</ns3:cad>
          </ns3:TrackPointExtension>
        </extensions>
      </trkpt>
      <trkpt lat="45.24758691899478435516357421875" lon="-71.130640469491481781005859375">
        <ele>920.20001220703125</ele>
        <time>2026-08-22T02:27:06.000Z</time>
        <extensions>
          <ns3:TrackPointExtension>
            <ns3:hr>137</ns3:hr>
            <ns3:cad>0</ns3:cad>
          </ns3:TrackPointExtension>
        </extensions>
      </trkpt>
      <trkpt lat="45.247577615082263946533203125" lon="-71.13064893521368503570556640625">
        <ele>920.4000244140625</ele>
        <time>2026-08-22T02:27:07.000Z</time>
        <extensions>
          <ns3:TrackPointExtension>
            <ns3:hr>137</ns3:hr>
            <ns3:cad>52</ns3:cad>
          </ns3:TrackPointExtension>
        </extensions>
      </trkpt>
      <trkpt lat="45.247570239007472991943359375" lon="-71.1306563951075077056884765625">
        <ele>920.5999755859375</ele>
        <time>2026-08-22T02:27:08.000Z</time>
        <extensions>
          <ns3:TrackPointExtension>
            <ns3:hr>137</ns3:hr>
            <ns3:cad>52</ns3:cad>
          </ns3:TrackPointExtension>
        </extensions>
      </trkpt>
      <trkpt lat="45.2475580014288425445556640625" lon="-71.13066083751618862152099609375">
        <ele>921</ele>
        <time>2026-08-22T02:27:09.000Z</time>
        <extensions>
          <ns3:TrackPointExtension>
            <ns3:hr>137</ns3:hr>
            <ns3:cad>50</ns3:cad>
          </ns3:TrackPointExtension>
        </extensions>
      </trkpt>
      <trkpt lat="45.24754710495471954345703125" lon="-71.13066720776259899139404296875">
        <ele>921.20001220703125</ele>
        <time>2026-08-22T02:27:10.000Z</time>
        <extensions>
          <ns3:TrackPointExtension>
            <ns3:hr>137</ns3:hr>
            <ns3:cad>50</ns3:cad>
          </ns3:TrackPointExtension>
        </extensions>
      </trkpt>
      <trkpt lat="45.24753662757575511932373046875" lon="-71.1306689679622650146484375">
        <ele>921.4000244140625</ele>
        <time>2026-08-22T02:27:11.000Z</time>
        <extensions>
          <ns3:TrackPointExtension>
            <ns3:hr>137</ns3:hr>
            <ns3:cad>50</ns3:cad>
          </ns3:TrackPointExtension>
        </extensions>
      </trkpt>
      <trkpt lat="45.247525312006473541259765625" lon="-71.13067475147545337677001953125">
        <ele>921.4000244140625</ele>
        <time>2026-08-22T02:27:12.000Z</time>
        <extensions>
          <ns3:TrackPointExtension>
            <ns3:hr>138</ns3:hr>
            <ns3:cad>48</ns3:cad>
          </ns3:TrackPointExtension>
        </extensions>
      </trkpt>
      <trkpt lat="45.24751265533268451690673828125" lon="-71.1306798644363880157470703125">
        <ele>921.5999755859375</ele>
        <time>2026-08-22T02:27:13.000Z</time>
        <extensions>
          <ns3:TrackPointExtension>
            <ns3:hr>137</ns3:hr>
            <ns3:cad>48</ns3:cad>
          </ns3:TrackPointExtension>
        </extensions>
      </trkpt>
      <trkpt lat="45.24750729091465473175048828125" lon="-71.13068103790283203125">
        <ele>921.79998779296875</ele>
        <time>2026-08-22T02:27:14.000Z</time>
        <extensions>
          <ns3:TrackPointExtension>
            <ns3:hr>138</ns3:hr>
            <ns3:cad>0</ns3:cad>
          </ns3:TrackPointExtension>
        </extensions>
      </trkpt>
      <trkpt lat="45.247496478259563446044921875" lon="-71.13068640232086181640625">
        <ele>922</ele>
        <time>2026-08-22T02:27:15.000Z</time>
        <extensions>
          <ns3:TrackPointExtension>
            <ns3:hr>138</ns3:hr>
            <ns3:cad>0</ns3:cad>
          </ns3:TrackPointExtension>
        </extensions>
      </trkpt>
      <trkpt lat="45.2474953047931194305419921875" lon="-71.1306877434253692626953125">
        <ele>922.20001220703125</ele>
        <time>2026-08-22T02:27:16.000Z</time>
        <extensions>
          <ns3:TrackPointExtension>
            <ns3:hr>138</ns3:hr>
            <ns3:cad>0</ns3:cad>
          </ns3:TrackPointExtension>
        </extensions>
      </trkpt>
      <trkpt lat="45.2474835701286792755126953125" lon="-71.1306904256343841552734375">
        <ele>922.4000244140625</ele>
        <time>2026-08-22T02:27:17.000Z</time>
        <extensions>
          <ns3:TrackPointExtension>
            <ns3:hr>138</ns3:hr>
            <ns3:cad>0</ns3:cad>
          </ns3:TrackPointExtension>
        </extensions>
      </trkpt>
      <trkpt lat="45.2474751882255077362060546875" lon="-71.130689084529876708984375">
        <ele>922.4000244140625</ele>
        <time>2026-08-22T02:27:18.000Z</time>
        <extensions>
          <ns3:TrackPointExtension>
            <ns3:hr>139</ns3:hr>
            <ns3:cad>0</ns3:cad>
          </ns3:TrackPointExtension>
        </extensions>
      </trkpt>
      <trkpt lat="45.247463285923004150390625" lon="-71.13068883307278156280517578125">
        <ele>922.5999755859375</ele>
        <time>2026-08-22T02:27:19.000Z</time>
        <extensions>
          <ns3:TrackPointExtension>
            <ns3:hr>139</ns3:hr>
            <ns3:cad>0</ns3:cad>
          </ns3:TrackPointExtension>
        </extensions>
      </trkpt>
      <trkpt lat="45.24745834060013294219970703125" lon="-71.13069352693855762481689453125">
        <ele>922.79998779296875</ele>
        <time>2026-08-22T02:27:20.000Z</time>
        <extensions>
          <ns3:TrackPointExtension>
            <ns3:hr>140</ns3:hr>
            <ns3:cad>0</ns3:cad>
          </ns3:TrackPointExtension>
        </extensions>
      </trkpt>
      <trkpt lat="45.24744342081248760223388671875" lon="-71.13069654442369937896728515625">
        <ele>922.79998779296875</ele>
        <time>2026-08-22T02:27:21.000Z</time>
        <extensions>
          <ns3:TrackPointExtension>
            <ns3:hr>140</ns3:hr>
            <ns3:cad>0</ns3:cad>
          </ns3:TrackPointExtension>
        </extensions>
      </trkpt>
      <trkpt lat="45.24743084795773029327392578125" lon="-71.13070073537528514862060546875">
        <ele>923</ele>
        <time>2026-08-22T02:27:22.000Z</time>
        <extensions>
          <ns3:TrackPointExtension>
            <ns3:hr>140</ns3:hr>
            <ns3:cad>46</ns3:cad>
          </ns3:TrackPointExtension>
        </extensions>
      </trkpt>
      <trkpt lat="45.24742372334003448486328125" lon="-71.13070509396493434906005859375">
        <ele>923.20001220703125</ele>
        <time>2026-08-22T02:27:23.000Z</time>
        <extensions>
          <ns3:TrackPointExtension>
            <ns3:hr>140</ns3:hr>
            <ns3:cad>46</ns3:cad>
          </ns3:TrackPointExtension>
        </extensions>
      </trkpt>
      <trkpt lat="45.2474171854555606842041015625" lon="-71.1307065188884735107421875">
        <ele>923.20001220703125</ele>
        <time>2026-08-22T02:27:24.000Z</time>
        <extensions>
          <ns3:TrackPointExtension>
            <ns3:hr>140</ns3:hr>
            <ns3:cad>0</ns3:cad>
          </ns3:TrackPointExtension>
        </extensions>
      </trkpt>
      <trkpt lat="45.24740670807659626007080078125" lon="-71.13071012310683727264404296875">
        <ele>923.4000244140625</ele>
        <time>2026-08-22T02:27:25.000Z</time>
        <extensions>
          <ns3:TrackPointExtension>
            <ns3:hr>140</ns3:hr>
            <ns3:cad>0</ns3:cad>
          </ns3:TrackPointExtension>
        </extensions>
      </trkpt>
      <trkpt lat="45.24739681743085384368896484375" lon="-71.13071364350616931915283203125">
        <ele>923.5999755859375</ele>
        <time>2026-08-22T02:27:26.000Z</time>
        <extensions>
          <ns3:TrackPointExtension>
            <ns3:hr>140</ns3:hr>
            <ns3:cad>0</ns3:cad>
          </ns3:TrackPointExtension>
        </extensions>
      </trkpt>
      <trkpt lat="45.247389189898967742919921875" lon="-71.13071850501000881195068359375">
        <ele>923.5999755859375</ele>
        <time>2026-08-22T02:27:27.000Z</time>
        <extensions>
          <ns3:TrackPointExtension>
            <ns3:hr>140</ns3:hr>
            <ns3:cad>0</ns3:cad>
          </ns3:TrackPointExtension>
        </extensions>
      </trkpt>
      <trkpt lat="45.24738173000514507293701171875" lon="-71.130722947418689727783203125">
        <ele>923.79998779296875</ele>
        <time>2026-08-22T02:27:28.000Z</time>
        <extensions>
          <ns3:TrackPointExtension>
            <ns3:hr>140</ns3:hr>
            <ns3:cad>0</ns3:cad>
          </ns3:TrackPointExtension>
        </extensions>
      </trkpt>
      <trkpt lat="45.24737276136875152587890625" lon="-71.13072554580867290496826171875">
        <ele>924</ele>
        <time>2026-08-22T02:27:29.000Z</time>
        <extensions>
          <ns3:TrackPointExtension>
            <ns3:hr>140</ns3:hr>
            <ns3:cad>41</ns3:cad>
          </ns3:TrackPointExtension>
        </extensions>
      </trkpt>
      <trkpt lat="45.24736831896007061004638671875" lon="-71.130721606314182281494140625">
        <ele>924.20001220703125</ele>
        <time>2026-08-22T02:27:30.000Z</time>
        <extensions>
          <ns3:TrackPointExtension>
            <ns3:hr>140</ns3:hr>
            <ns3:cad>41</ns3:cad>
          </ns3:TrackPointExtension>
        </extensions>
      </trkpt>
      <trkpt lat="45.24735935032367706298828125" lon="-71.130730323493480682373046875">
        <ele>924.4000244140625</ele>
        <time>2026-08-22T02:27:31.000Z</time>
        <extensions>
          <ns3:TrackPointExtension>
            <ns3:hr>141</ns3:hr>
            <ns3:cad>41</ns3:cad>
          </ns3:TrackPointExtension>
        </extensions>
      </trkpt>
      <trkpt lat="45.24734199978411197662353515625" lon="-71.1307360231876373291015625">
        <ele>924.5999755859375</ele>
        <time>2026-08-22T02:27:32.000Z</time>
        <extensions>
          <ns3:TrackPointExtension>
            <ns3:hr>141</ns3:hr>
            <ns3:cad>41</ns3:cad>
          </ns3:TrackPointExtension>
        </extensions>
      </trkpt>
      <trkpt lat="45.24732842110097408294677734375" lon="-71.130740381777286529541015625">
        <ele>924.5999755859375</ele>
        <time>2026-08-22T02:27:33.000Z</time>
        <extensions>
          <ns3:TrackPointExtension>
            <ns3:hr>141</ns3:hr>
            <ns3:cad>41</ns3:cad>
          </ns3:TrackPointExtension>
        </extensions>
      </trkpt>
      <trkpt lat="45.24731911718845367431640625" lon="-71.13074180670082569122314453125">
        <ele>924.79998779296875</ele>
        <time>2026-08-22T02:27:34.000Z</time>
        <extensions>
          <ns3:TrackPointExtension>
            <ns3:hr>141</ns3:hr>
            <ns3:cad>41</ns3:cad>
          </ns3:TrackPointExtension>
        </extensions>
      </trkpt>
      <trkpt lat="45.2473041974008083343505859375" lon="-71.1307445727288722991943359375">
        <ele>924.79998779296875</ele>
        <time>2026-08-22T02:27:35.000Z</time>
        <extensions>
          <ns3:TrackPointExtension>
            <ns3:hr>140</ns3:hr>
            <ns3:cad>41</ns3:cad>
          </ns3:TrackPointExtension>
        </extensions>
      </trkpt>
      <trkpt lat="45.2472956478595733642578125" lon="-71.1307440698146820068359375">
        <ele>925</ele>
        <time>2026-08-22T02:27:36.000Z</time>
        <extensions>
          <ns3:TrackPointExtension>
            <ns3:hr>139</ns3:hr>
            <ns3:cad>41</ns3:cad>
          </ns3:TrackPointExtension>
        </extensions>
      </trkpt>
      <trkpt lat="45.24728022515773773193359375" lon="-71.1307465843856334686279296875">
        <ele>925</ele>
        <time>2026-08-22T02:27:37.000Z</time>
        <extensions>
          <ns3:TrackPointExtension>
            <ns3:hr>139</ns3:hr>
            <ns3:cad>41</ns3:cad>
          </ns3:TrackPointExtension>
        </extensions>
      </trkpt>
      <trkpt lat="45.24726756848394870758056640625" lon="-71.130749098956584930419921875">
        <ele>925.20001220703125</ele>
        <time>2026-08-22T02:27:38.000Z</time>
        <extensions>
          <ns3:TrackPointExtension>
            <ns3:hr>139</ns3:hr>
            <ns3:cad>50</ns3:cad>
          </ns3:TrackPointExtension>
        </extensions>
      </trkpt>
      <trkpt lat="45.24725801311433315277099609375" lon="-71.13075354136526584625244140625">
        <ele>925.20001220703125</ele>
        <time>2026-08-22T02:27:39.000Z</time>
        <extensions>
          <ns3:TrackPointExtension>
            <ns3:hr>140</ns3:hr>
            <ns3:cad>50</ns3:cad>
          </ns3:TrackPointExtension>
        </extensions>
      </trkpt>
      <trkpt lat="45.24724560789763927459716796875" lon="-71.13075823523104190826416015625">
        <ele>925.20001220703125</ele>
        <time>2026-08-22T02:27:40.000Z</time>
        <extensions>
          <ns3:TrackPointExtension>
            <ns3:hr>140</ns3:hr>
            <ns3:cad>51</ns3:cad>
          </ns3:TrackPointExtension>
        </extensions>
      </trkpt>
      <trkpt lat="45.24723286740481853485107421875" lon="-71.1307606659829616546630859375">
        <ele>925.4000244140625</ele>
        <time>2026-08-22T02:27:41.000Z</time>
        <extensions>
          <ns3:TrackPointExtension>
            <ns3:hr>141</ns3:hr>
            <ns3:cad>49</ns3:cad>
          </ns3:TrackPointExtension>
        </extensions>
      </trkpt>
      <trkpt lat="45.2472237311303615570068359375" lon="-71.13076074980199337005615234375">
        <ele>925.4000244140625</ele>
        <time>2026-08-22T02:27:42.000Z</time>
        <extensions>
          <ns3:TrackPointExtension>
            <ns3:hr>140</ns3:hr>
            <ns3:cad>49</ns3:cad>
          </ns3:TrackPointExtension>
        </extensions>
      </trkpt>
      <trkpt lat="45.2472086437046527862548828125" lon="-71.1307613365352153778076171875">
        <ele>925.5999755859375</ele>
        <time>2026-08-22T02:27:43.000Z</time>
        <extensions>
          <ns3:TrackPointExtension>
            <ns3:hr>140</ns3:hr>
            <ns3:cad>49</ns3:cad>
          </ns3:TrackPointExtension>
        </extensions>
      </trkpt>
      <trkpt lat="45.24719707667827606201171875" lon="-71.13075957633554935455322265625">
        <ele>925.5999755859375</ele>
        <time>2026-08-22T02:27:44.000Z</time>
        <extensions>
          <ns3:TrackPointExtension>
            <ns3:hr>140</ns3:hr>
            <ns3:cad>49</ns3:cad>
          </ns3:TrackPointExtension>
        </extensions>
      </trkpt>
      <trkpt lat="45.24718257598578929901123046875" lon="-71.1307626776397228240966796875">
        <ele>925.5999755859375</ele>
        <time>2026-08-22T02:27:45.000Z</time>
        <extensions>
          <ns3:TrackPointExtension>
            <ns3:hr>139</ns3:hr>
            <ns3:cad>49</ns3:cad>
          </ns3:TrackPointExtension>
        </extensions>
      </trkpt>
      <trkpt lat="45.24717033840715885162353515625" lon="-71.13076829351484775543212890625">
        <ele>925.79998779296875</ele>
        <time>2026-08-22T02:27:46.000Z</time>
        <extensions>
          <ns3:TrackPointExtension>
            <ns3:hr>140</ns3:hr>
            <ns3:cad>49</ns3:cad>
          </ns3:TrackPointExtension>
        </extensions>
      </trkpt>
      <trkpt lat="45.247160531580448150634765625" lon="-71.13077114336192607879638671875">
        <ele>925.79998779296875</ele>
        <time>2026-08-22T02:27:47.000Z</time>
        <extensions>
          <ns3:TrackPointExtension>
            <ns3:hr>140</ns3:hr>
            <ns3:cad>0</ns3:cad>
          </ns3:TrackPointExtension>
        </extensions>
      </trkpt>
      <trkpt lat="45.24714536033570766448974609375" lon="-71.130777262151241302490234375">
        <ele>925.79998779296875</ele>
        <time>2026-08-22T02:27:48.000Z</time>
        <extensions>
          <ns3:TrackPointExtension>
            <ns3:hr>140</ns3:hr>
            <ns3:cad>0</ns3:cad>
          </ns3:TrackPointExtension>
        </extensions>
      </trkpt>
      <trkpt lat="45.2471372298896312713623046875" lon="-71.1307789385318756103515625">
        <ele>926</ele>
        <time>2026-08-22T02:27:49.000Z</time>
        <extensions>
          <ns3:TrackPointExtension>
            <ns3:hr>139</ns3:hr>
            <ns3:cad>0</ns3:cad>
          </ns3:TrackPointExtension>
        </extensions>
      </trkpt>
      <trkpt lat="45.24712339974939823150634765625" lon="-71.130780279636383056640625">
        <ele>926.20001220703125</ele>
        <time>2026-08-22T02:27:50.000Z</time>
        <extensions>
          <ns3:TrackPointExtension>
            <ns3:hr>139</ns3:hr>
            <ns3:cad>0</ns3:cad>
          </ns3:TrackPointExtension>
        </extensions>
      </trkpt>
      <trkpt lat="45.2471127547323703765869140625" lon="-71.13078170455992221832275390625">
        <ele>926.4000244140625</ele>
        <time>2026-08-22T02:27:51.000Z</time>
        <extensions>
          <ns3:TrackPointExtension>
            <ns3:hr>139</ns3:hr>
            <ns3:cad>0</ns3:cad>
          </ns3:TrackPointExtension>
        </extensions>
      </trkpt>
      <trkpt lat="45.24710378609597682952880859375" lon="-71.13078673370182514190673828125">
        <ele>926.5999755859375</ele>
        <time>2026-08-22T02:27:52.000Z</time>
        <extensions>
          <ns3:TrackPointExtension>
            <ns3:hr>139</ns3:hr>
            <ns3:cad>50</ns3:cad>
          </ns3:TrackPointExtension>
        </extensions>
      </trkpt>
      <trkpt lat="45.247088782489299774169921875" lon="-71.13079075701534748077392578125">
        <ele>926.5999755859375</ele>
        <time>2026-08-22T02:27:53.000Z</time>
        <extensions>
          <ns3:TrackPointExtension>
            <ns3:hr>139</ns3:hr>
            <ns3:cad>50</ns3:cad>
          </ns3:TrackPointExtension>
        </extensions>
      </trkpt>
      <trkpt lat="45.24707495234906673431396484375" lon="-71.13079444505274295806884765625">
        <ele>926.79998779296875</ele>
        <time>2026-08-22T02:27:54.000Z</time>
        <extensions>
          <ns3:TrackPointExtension>
            <ns3:hr>140</ns3:hr>
            <ns3:cad>53</ns3:cad>
          </ns3:TrackPointExtension>
        </extensions>
      </trkpt>
      <trkpt lat="45.24706053547561168670654296875" lon="-71.130798719823360443115234375">
        <ele>926.79998779296875</ele>
        <time>2026-08-22T02:27:55.000Z</time>
        <extensions>
          <ns3:TrackPointExtension>
            <ns3:hr>140</ns3:hr>
            <ns3:cad>53</ns3:cad>
          </ns3:TrackPointExtension>
        </extensions>
      </trkpt>
      <trkpt lat="45.24704896844923496246337890625" lon="-71.130794696509838104248046875">
        <ele>927</ele>
        <time>2026-08-22T02:27:56.000Z</time>
        <extensions>
          <ns3:TrackPointExtension>
            <ns3:hr>139</ns3:hr>
            <ns3:cad>53</ns3:cad>
          </ns3:TrackPointExtension>
        </extensions>
      </trkpt>
      <trkpt lat="45.24703706614673137664794921875" lon="-71.13079628907144069671630859375">
        <ele>927</ele>
        <time>2026-08-22T02:27:57.000Z</time>
        <extensions>
          <ns3:TrackPointExtension>
            <ns3:hr>139</ns3:hr>
            <ns3:cad>53</ns3:cad>
          </ns3:TrackPointExtension>
        </extensions>
      </trkpt>
      <trkpt lat="45.2470229007303714752197265625" lon="-71.130801737308502197265625">
        <ele>927.20001220703125</ele>
        <time>2026-08-22T02:27:58.000Z</time>
        <extensions>
          <ns3:TrackPointExtension>
            <ns3:hr>139</ns3:hr>
            <ns3:cad>53</ns3:cad>
          </ns3:TrackPointExtension>
        </extensions>
      </trkpt>
      <trkpt lat="45.247012339532375335693359375" lon="-71.13080081529915332794189453125">
        <ele>927.20001220703125</ele>
        <time>2026-08-22T02:27:59.000Z</time>
        <extensions>
          <ns3:TrackPointExtension>
            <ns3:hr>138</ns3:hr>
            <ns3:cad>0</ns3:cad>
          </ns3:TrackPointExtension>
        </extensions>
      </trkpt>
      <trkpt lat="45.24699389934539794921875" lon="-71.1308062635362148284912109375">
        <ele>927.4000244140625</ele>
        <time>2026-08-22T02:28:00.000Z</time>
        <extensions>
          <ns3:TrackPointExtension>
            <ns3:hr>138</ns3:hr>
            <ns3:cad>0</ns3:cad>
          </ns3:TrackPointExtension>
        </extensions>
      </trkpt>
      <trkpt lat="45.246966071426868438720703125" lon="-71.13080400042235851287841796875">
        <ele>927.5999755859375</ele>
        <time>2026-08-22T02:28:01.000Z</time>
        <extensions>
          <ns3:TrackPointExtension>
            <ns3:hr>138</ns3:hr>
            <ns3:cad>0</ns3:cad>
          </ns3:TrackPointExtension>
        </extensions>
      </trkpt>
      <trkpt lat="45.24695240892469882965087890625" lon="-71.13079972565174102783203125">
        <ele>927.79998779296875</ele>
        <time>2026-08-22T02:28:02.000Z</time>
        <extensions>
          <ns3:TrackPointExtension>
            <ns3:hr>138</ns3:hr>
            <ns3:cad>0</ns3:cad>
          </ns3:TrackPointExtension>
        </extensions>
      </trkpt>
      <trkpt lat="45.24693363346159458160400390625" lon="-71.1308032460510730743408203125">
        <ele>928</ele>
        <time>2026-08-22T02:28:03.000Z</time>
        <extensions>
          <ns3:TrackPointExtension>
            <ns3:hr>138</ns3:hr>
            <ns3:cad>0</ns3:cad>
          </ns3:TrackPointExtension>
        </extensions>
      </trkpt>
      <trkpt lat="45.246920473873615264892578125" lon="-71.1308049224317073822021484375">
        <ele>928.20001220703125</ele>
        <time>2026-08-22T02:28:04.000Z</time>
        <extensions>
          <ns3:TrackPointExtension>
            <ns3:hr>138</ns3:hr>
            <ns3:cad>0</ns3:cad>
          </ns3:TrackPointExtension>
        </extensions>
      </trkpt>
      <trkpt lat="45.24690865539014339447021484375" lon="-71.13080517388880252838134765625">
        <ele>928.20001220703125</ele>
        <time>2026-08-22T02:28:05.000Z</time>
        <extensions>
          <ns3:TrackPointExtension>
            <ns3:hr>138</ns3:hr>
            <ns3:cad>0</ns3:cad>
          </ns3:TrackPointExtension>
        </extensions>
      </trkpt>
      <trkpt lat="45.24690069258213043212890625" lon="-71.13080886192619800567626953125">
        <ele>928.4000244140625</ele>
        <time>2026-08-22T02:28:06.000Z</time>
        <extensions>
          <ns3:TrackPointExtension>
            <ns3:hr>138</ns3:hr>
            <ns3:cad>0</ns3:cad>
          </ns3:TrackPointExtension>
        </extensions>
      </trkpt>
      <trkpt lat="45.24688401259481906890869140625" lon="-71.1308139748871326446533203125">
        <ele>928.5999755859375</ele>
        <time>2026-08-22T02:28:07.000Z</time>
        <extensions>
          <ns3:TrackPointExtension>
            <ns3:hr>138</ns3:hr>
            <ns3:cad>0</ns3:cad>
          </ns3:TrackPointExtension>
        </extensions>
      </trkpt>
      <trkpt lat="45.24687412194907665252685546875" lon="-71.130820848047733306884765625">
        <ele>928.79998779296875</ele>
        <time>2026-08-22T02:28:08.000Z</time>
        <extensions>
          <ns3:TrackPointExtension>
            <ns3:hr>138</ns3:hr>
            <ns3:cad>0</ns3:cad>
          </ns3:TrackPointExtension>
        </extensions>
      </trkpt>
      <trkpt lat="45.24686255492269992828369140625" lon="-71.1308218538761138916015625">
        <ele>929</ele>
        <time>2026-08-22T02:28:09.000Z</time>
        <extensions>
          <ns3:TrackPointExtension>
            <ns3:hr>138</ns3:hr>
            <ns3:cad>0</ns3:cad>
          </ns3:TrackPointExtension>
        </extensions>
      </trkpt>
      <trkpt lat="45.24684713222086429595947265625" lon="-71.13082311116158962249755859375">
        <ele>929</ele>
        <time>2026-08-22T02:28:10.000Z</time>
        <extensions>
          <ns3:TrackPointExtension>
            <ns3:hr>138</ns3:hr>
            <ns3:cad>0</ns3:cad>
          </ns3:TrackPointExtension>
        </extensions>
      </trkpt>
      <trkpt lat="45.246837995946407318115234375" lon="-71.1308230273425579071044921875">
        <ele>929.20001220703125</ele>
        <time>2026-08-22T02:28:11.000Z</time>
        <extensions>
          <ns3:TrackPointExtension>
            <ns3:hr>138</ns3:hr>
            <ns3:cad>0</ns3:cad>
          </ns3:TrackPointExtension>
        </extensions>
      </trkpt>
      <trkpt lat="45.246822573244571685791015625" lon="-71.13082612864673137664794921875">
        <ele>929.4000244140625</ele>
        <time>2026-08-22T02:28:12.000Z</time>
        <extensions>
          <ns3:TrackPointExtension>
            <ns3:hr>137</ns3:hr>
            <ns3:cad>0</ns3:cad>
          </ns3:TrackPointExtension>
        </extensions>
      </trkpt>
      <trkpt lat="45.24680840782821178436279296875" lon="-71.13082696683704853057861328125">
        <ele>929.4000244140625</ele>
        <time>2026-08-22T02:28:13.000Z</time>
        <extensions>
          <ns3:TrackPointExtension>
            <ns3:hr>137</ns3:hr>
            <ns3:cad>0</ns3:cad>
          </ns3:TrackPointExtension>
        </extensions>
      </trkpt>
      <trkpt lat="45.246802456676959991455078125" lon="-71.1308263801038265228271484375">
        <ele>929.5999755859375</ele>
        <time>2026-08-22T02:28:14.000Z</time>
        <extensions>
          <ns3:TrackPointExtension>
            <ns3:hr>137</ns3:hr>
            <ns3:cad>0</ns3:cad>
          </ns3:TrackPointExtension>
        </extensions>
      </trkpt>
      <trkpt lat="45.24679700843989849090576171875" lon="-71.1308253742754459381103515625">
        <ele>929.79998779296875</ele>
        <time>2026-08-22T02:28:15.000Z</time>
        <extensions>
          <ns3:TrackPointExtension>
            <ns3:hr>138</ns3:hr>
            <ns3:cad>0</ns3:cad>
          </ns3:TrackPointExtension>
        </extensions>
      </trkpt>
      <trkpt lat="45.246784687042236328125" lon="-71.13082864321768283843994140625">
        <ele>930</ele>
        <time>2026-08-22T02:28:16.000Z</time>
        <extensions>
          <ns3:TrackPointExtension>
            <ns3:hr>138</ns3:hr>
            <ns3:cad>0</ns3:cad>
          </ns3:TrackPointExtension>
        </extensions>
      </trkpt>
      <trkpt lat="45.24677328765392303466796875" lon="-71.13083149306476116180419921875">
        <ele>930.20001220703125</ele>
        <time>2026-08-22T02:28:17.000Z</time>
        <extensions>
          <ns3:TrackPointExtension>
            <ns3:hr>138</ns3:hr>
            <ns3:cad>0</ns3:cad>
          </ns3:TrackPointExtension>
        </extensions>
      </trkpt>
      <trkpt lat="45.24676465429365634918212890625" lon="-71.130832917988300323486328125">
        <ele>930.4000244140625</ele>
        <time>2026-08-22T02:28:18.000Z</time>
        <extensions>
          <ns3:TrackPointExtension>
            <ns3:hr>138</ns3:hr>
            <ns3:cad>0</ns3:cad>
          </ns3:TrackPointExtension>
        </extensions>
      </trkpt>
      <trkpt lat="45.24675006978213787078857421875" lon="-71.13083668984472751617431640625">
        <ele>930.4000244140625</ele>
        <time>2026-08-22T02:28:19.000Z</time>
        <extensions>
          <ns3:TrackPointExtension>
            <ns3:hr>138</ns3:hr>
            <ns3:cad>0</ns3:cad>
          </ns3:TrackPointExtension>
        </extensions>
      </trkpt>
      <trkpt lat="45.24674185551702976226806640625" lon="-71.13083903677761554718017578125">
        <ele>930.5999755859375</ele>
        <time>2026-08-22T02:28:20.000Z</time>
        <extensions>
          <ns3:TrackPointExtension>
            <ns3:hr>139</ns3:hr>
            <ns3:cad>0</ns3:cad>
          </ns3:TrackPointExtension>
        </extensions>
      </trkpt>
      <trkpt lat="45.246730037033557891845703125" lon="-71.13083652220666408538818359375">
        <ele>930.79998779296875</ele>
        <time>2026-08-22T02:28:21.000Z</time>
        <extensions>
          <ns3:TrackPointExtension>
            <ns3:hr>139</ns3:hr>
            <ns3:cad>0</ns3:cad>
          </ns3:TrackPointExtension>
        </extensions>
      </trkpt>
      <trkpt lat="45.24671587161719799041748046875" lon="-71.13083065487444400787353515625">
        <ele>931</ele>
        <time>2026-08-22T02:28:22.000Z</time>
        <extensions>
          <ns3:TrackPointExtension>
            <ns3:hr>139</ns3:hr>
            <ns3:cad>0</ns3:cad>
          </ns3:TrackPointExtension>
        </extensions>
      </trkpt>
      <trkpt lat="45.246702544391155242919921875" lon="-71.1308287270367145538330078125">
        <ele>931</ele>
        <time>2026-08-22T02:28:23.000Z</time>
        <extensions>
          <ns3:TrackPointExtension>
            <ns3:hr>139</ns3:hr>
            <ns3:cad>0</ns3:cad>
          </ns3:TrackPointExtension>
        </extensions>
      </trkpt>
      <trkpt lat="45.24669726379215717315673828125" lon="-71.1308280564844608306884765625">
        <ele>931.20001220703125</ele>
        <time>2026-08-22T02:28:24.000Z</time>
        <extensions>
          <ns3:TrackPointExtension>
            <ns3:hr>138</ns3:hr>
            <ns3:cad>0</ns3:cad>
          </ns3:TrackPointExtension>
        </extensions>
      </trkpt>
      <trkpt lat="45.24668653495609760284423828125" lon="-71.130828894674777984619140625">
        <ele>931.4000244140625</ele>
        <time>2026-08-22T02:28:25.000Z</time>
        <extensions>
          <ns3:TrackPointExtension>
            <ns3:hr>138</ns3:hr>
            <ns3:cad>53</ns3:cad>
          </ns3:TrackPointExtension>
        </extensions>
      </trkpt>
      <trkpt lat="45.24667865596711635589599609375" lon="-71.13082763738930225372314453125">
        <ele>931.5999755859375</ele>
        <time>2026-08-22T02:28:26.000Z</time>
        <extensions>
          <ns3:TrackPointExtension>
            <ns3:hr>138</ns3:hr>
            <ns3:cad>53</ns3:cad>
          </ns3:TrackPointExtension>
        </extensions>
      </trkpt>
      <trkpt lat="45.2466665022075176239013671875" lon="-71.13083459436893463134765625">
        <ele>931.79998779296875</ele>
        <time>2026-08-22T02:28:27.000Z</time>
        <extensions>
          <ns3:TrackPointExtension>
            <ns3:hr>140</ns3:hr>
            <ns3:cad>53</ns3:cad>
          </ns3:TrackPointExtension>
        </extensions>
      </trkpt>
      <trkpt lat="45.24665652774274349212646484375" lon="-71.1308414675295352935791015625">
        <ele>932</ele>
        <time>2026-08-22T02:28:28.000Z</time>
        <extensions>
          <ns3:TrackPointExtension>
            <ns3:hr>143</ns3:hr>
            <ns3:cad>53</ns3:cad>
          </ns3:TrackPointExtension>
        </extensions>
      </trkpt>
      <trkpt lat="45.2466470561921596527099609375" lon="-71.130853705108165740966796875">
        <ele>932.20001220703125</ele>
        <time>2026-08-22T02:28:29.000Z</time>
        <extensions>
          <ns3:TrackPointExtension>
            <ns3:hr>145</ns3:hr>
            <ns3:cad>53</ns3:cad>
          </ns3:TrackPointExtension>
        </extensions>
      </trkpt>
      <trkpt lat="45.2466420270502567291259765625" lon="-71.13085697405040264129638671875">
        <ele>932.4000244140625</ele>
        <time>2026-08-22T02:28:30.000Z</time>
        <extensions>
          <ns3:TrackPointExtension>
            <ns3:hr>145</ns3:hr>
            <ns3:cad>0</ns3:cad>
          </ns3:TrackPointExtension>
        </extensions>
      </trkpt>
      <trkpt lat="45.2466299571096897125244140625" lon="-71.13086367957293987274169921875">
        <ele>932.5999755859375</ele>
        <time>2026-08-22T02:28:31.000Z</time>
        <extensions>
          <ns3:TrackPointExtension>
            <ns3:hr>145</ns3:hr>
            <ns3:cad>0</ns3:cad>
          </ns3:TrackPointExtension>
        </extensions>
      </trkpt>
      <trkpt lat="45.246620066463947296142578125" lon="-71.130867116153240203857421875">
        <ele>932.79998779296875</ele>
        <time>2026-08-22T02:28:32.000Z</time>
        <extensions>
          <ns3:TrackPointExtension>
            <ns3:hr>145</ns3:hr>
            <ns3:cad>0</ns3:cad>
          </ns3:TrackPointExtension>
        </extensions>
      </trkpt>
      <trkpt lat="45.246613360941410064697265625" lon="-71.13087172619998455047607421875">
        <ele>933</ele>
        <time>2026-08-22T02:28:33.000Z</time>
        <extensions>
          <ns3:TrackPointExtension>
            <ns3:hr>145</ns3:hr>
            <ns3:cad>0</ns3:cad>
          </ns3:TrackPointExtension>
        </extensions>
      </trkpt>
      <trkpt lat="45.2466078288853168487548828125" lon="-71.1308786831796169281005859375">
        <ele>933.20001220703125</ele>
        <time>2026-08-22T02:28:34.000Z</time>
        <extensions>
          <ns3:TrackPointExtension>
            <ns3:hr>144</ns3:hr>
            <ns3:cad>0</ns3:cad>
          </ns3:TrackPointExtension>
        </extensions>
      </trkpt>
      <trkpt lat="45.24660053662955760955810546875" lon="-71.130885221064090728759765625">
        <ele>933.4000244140625</ele>
        <time>2026-08-22T02:28:35.000Z</time>
        <extensions>
          <ns3:TrackPointExtension>
            <ns3:hr>142</ns3:hr>
            <ns3:cad>0</ns3:cad>
          </ns3:TrackPointExtension>
        </extensions>
      </trkpt>
      <trkpt lat="45.2465984411537647247314453125" lon="-71.13088949583470821380615234375">
        <ele>933.5999755859375</ele>
        <time>2026-08-22T02:28:36.000Z</time>
        <extensions>
          <ns3:TrackPointExtension>
            <ns3:hr>140</ns3:hr>
            <ns3:cad>0</ns3:cad>
          </ns3:TrackPointExtension>
        </extensions>
      </trkpt>
      <trkpt lat="45.24658712558448314666748046875" lon="-71.130898296833038330078125">
        <ele>933.79998779296875</ele>
        <time>2026-08-22T02:28:37.000Z</time>
        <extensions>
          <ns3:TrackPointExtension>
            <ns3:hr>139</ns3:hr>
            <ns3:cad>0</ns3:cad>
          </ns3:TrackPointExtension>
        </extensions>
      </trkpt>
      <trkpt lat="45.24657882750034332275390625" lon="-71.1309055052697658538818359375">
        <ele>934</ele>
        <time>2026-08-22T02:28:38.000Z</time>
        <extensions>
          <ns3:TrackPointExtension>
            <ns3:hr>138</ns3:hr>
            <ns3:cad>0</ns3:cad>
          </ns3:TrackPointExtension>
        </extensions>
      </trkpt>
      <trkpt lat="45.24657438509166240692138671875" lon="-71.13090927712619304656982421875">
        <ele>934.20001220703125</ele>
        <time>2026-08-22T02:28:39.000Z</time>
        <extensions>
          <ns3:TrackPointExtension>
            <ns3:hr>138</ns3:hr>
            <ns3:cad>0</ns3:cad>
          </ns3:TrackPointExtension>
        </extensions>
      </trkpt>
      <trkpt lat="45.24656550027430057525634765625" lon="-71.130918078124523162841796875">
        <ele>934.4000244140625</ele>
        <time>2026-08-22T02:28:40.000Z</time>
        <extensions>
          <ns3:TrackPointExtension>
            <ns3:hr>138</ns3:hr>
            <ns3:cad>0</ns3:cad>
          </ns3:TrackPointExtension>
        </extensions>
      </trkpt>
      <trkpt lat="45.24655359797179698944091796875" lon="-71.13093006424605846405029296875">
        <ele>934.5999755859375</ele>
        <time>2026-08-22T02:28:41.000Z</time>
        <extensions>
          <ns3:TrackPointExtension>
            <ns3:hr>138</ns3:hr>
            <ns3:cad>0</ns3:cad>
          </ns3:TrackPointExtension>
        </extensions>
      </trkpt>
      <trkpt lat="45.24655200541019439697265625" lon="-71.1309329979121685028076171875">
        <ele>934.5999755859375</ele>
        <time>2026-08-22T02:28:42.000Z</time>
        <extensions>
          <ns3:TrackPointExtension>
            <ns3:hr>138</ns3:hr>
            <ns3:cad>49</ns3:cad>
          </ns3:TrackPointExtension>
        </extensions>
      </trkpt>
      <trkpt lat="45.246545970439910888671875" lon="-71.1309383623301982879638671875">
        <ele>934.79998779296875</ele>
        <time>2026-08-22T02:28:43.000Z</time>
        <extensions>
          <ns3:TrackPointExtension>
            <ns3:hr>138</ns3:hr>
            <ns3:cad>49</ns3:cad>
          </ns3:TrackPointExtension>
        </extensions>
      </trkpt>
      <trkpt lat="45.24653415195643901824951171875" lon="-71.130946241319179534912109375">
        <ele>935</ele>
        <time>2026-08-22T02:28:44.000Z</time>
        <extensions>
          <ns3:TrackPointExtension>
            <ns3:hr>138</ns3:hr>
            <ns3:cad>46</ns3:cad>
          </ns3:TrackPointExtension>
        </extensions>
      </trkpt>
      <trkpt lat="45.24652384221553802490234375" lon="-71.130950935184955596923828125">
        <ele>935.20001220703125</ele>
        <time>2026-08-22T02:28:45.000Z</time>
        <extensions>
          <ns3:TrackPointExtension>
            <ns3:hr>138</ns3:hr>
            <ns3:cad>44</ns3:cad>
          </ns3:TrackPointExtension>
        </extensions>
      </trkpt>
      <trkpt lat="45.24651554413139820098876953125" lon="-71.13095420412719249725341796875">
        <ele>935.4000244140625</ele>
        <time>2026-08-22T02:28:46.000Z</time>
        <extensions>
          <ns3:TrackPointExtension>
            <ns3:hr>138</ns3:hr>
            <ns3:cad>44</ns3:cad>
          </ns3:TrackPointExtension>
        </extensions>
      </trkpt>
      <trkpt lat="45.24650397710502147674560546875" lon="-71.13095705397427082061767578125">
        <ele>935.4000244140625</ele>
        <time>2026-08-22T02:28:47.000Z</time>
        <extensions>
          <ns3:TrackPointExtension>
            <ns3:hr>137</ns3:hr>
            <ns3:cad>44</ns3:cad>
          </ns3:TrackPointExtension>
        </extensions>
      </trkpt>
      <trkpt lat="45.2464928291738033294677734375" lon="-71.130965687334537506103515625">
        <ele>935.5999755859375</ele>
        <time>2026-08-22T02:28:48.000Z</time>
        <extensions>
          <ns3:TrackPointExtension>
            <ns3:hr>137</ns3:hr>
            <ns3:cad>44</ns3:cad>
          </ns3:TrackPointExtension>
        </extensions>
      </trkpt>
      <trkpt lat="45.24648402817547321319580078125" lon="-71.13097147084772586822509765625">
        <ele>935.5999755859375</ele>
        <time>2026-08-22T02:28:49.000Z</time>
        <extensions>
          <ns3:TrackPointExtension>
            <ns3:hr>137</ns3:hr>
            <ns3:cad>44</ns3:cad>
          </ns3:TrackPointExtension>
        </extensions>
      </trkpt>
      <trkpt lat="45.24647162295877933502197265625" lon="-71.13097415305674076080322265625">
        <ele>935.79998779296875</ele>
        <time>2026-08-22T02:28:50.000Z</time>
        <extensions>
          <ns3:TrackPointExtension>
            <ns3:hr>137</ns3:hr>
            <ns3:cad>46</ns3:cad>
          </ns3:TrackPointExtension>
        </extensions>
      </trkpt>
      <trkpt lat="45.2464616484940052032470703125" lon="-71.13098018802702426910400390625">
        <ele>935.79998779296875</ele>
        <time>2026-08-22T02:28:51.000Z</time>
        <extensions>
          <ns3:TrackPointExtension>
            <ns3:hr>137</ns3:hr>
            <ns3:cad>48</ns3:cad>
          </ns3:TrackPointExtension>
        </extensions>
      </trkpt>
      <trkpt lat="45.2464542724192142486572265625" lon="-71.13098437897861003875732421875">
        <ele>936</ele>
        <time>2026-08-22T02:28:52.000Z</time>
        <extensions>
          <ns3:TrackPointExtension>
            <ns3:hr>137</ns3:hr>
            <ns3:cad>48</ns3:cad>
          </ns3:TrackPointExtension>
        </extensions>
      </trkpt>
      <trkpt lat="45.2464475668966770172119140625" lon="-71.13098622299730777740478515625">
        <ele>936</ele>
        <time>2026-08-22T02:28:53.000Z</time>
        <extensions>
          <ns3:TrackPointExtension>
            <ns3:hr>137</ns3:hr>
            <ns3:cad>48</ns3:cad>
          </ns3:TrackPointExtension>
        </extensions>
      </trkpt>
      <trkpt lat="45.2464373409748077392578125" lon="-71.13099259324371814727783203125">
        <ele>936.20001220703125</ele>
        <time>2026-08-22T02:28:54.000Z</time>
        <extensions>
          <ns3:TrackPointExtension>
            <ns3:hr>137</ns3:hr>
            <ns3:cad>0</ns3:cad>
          </ns3:TrackPointExtension>
        </extensions>
      </trkpt>
      <trkpt lat="45.24642284028232097625732421875" lon="-71.1310060881078243255615234375">
        <ele>936.5999755859375</ele>
        <time>2026-08-22T02:28:55.000Z</time>
        <extensions>
          <ns3:TrackPointExtension>
            <ns3:hr>137</ns3:hr>
            <ns3:cad>0</ns3:cad>
          </ns3:TrackPointExtension>
        </extensions>
      </trkpt>
      <trkpt lat="45.2464170567691326141357421875" lon="-71.13100893795490264892578125">
        <ele>936.79998779296875</ele>
        <time>2026-08-22T02:28:56.000Z</time>
        <extensions>
          <ns3:TrackPointExtension>
            <ns3:hr>138</ns3:hr>
            <ns3:cad>0</ns3:cad>
          </ns3:TrackPointExtension>
        </extensions>
      </trkpt>
      <trkpt lat="45.24640859104692935943603515625" lon="-71.1310171522200107574462890625">
        <ele>937</ele>
        <time>2026-08-22T02:28:57.000Z</time>
        <extensions>
          <ns3:TrackPointExtension>
            <ns3:hr>138</ns3:hr>
            <ns3:cad>0</ns3:cad>
          </ns3:TrackPointExtension>
        </extensions>
      </trkpt>
      <trkpt lat="45.2463971078395843505859375" lon="-71.13102746196091175079345703125">
        <ele>937.20001220703125</ele>
        <time>2026-08-22T02:28:58.000Z</time>
        <extensions>
          <ns3:TrackPointExtension>
            <ns3:hr>138</ns3:hr>
            <ns3:cad>0</ns3:cad>
          </ns3:TrackPointExtension>
        </extensions>
      </trkpt>
      <trkpt lat="45.24639383889734745025634765625" lon="-71.13102972507476806640625">
        <ele>937.4000244140625</ele>
        <time>2026-08-22T02:28:59.000Z</time>
        <extensions>
          <ns3:TrackPointExtension>
            <ns3:hr>139</ns3:hr>
            <ns3:cad>48</ns3:cad>
          </ns3:TrackPointExtension>
        </extensions>
      </trkpt>
      <trkpt lat="45.24638294242322444915771484375" lon="-71.131039448082447052001953125">
        <ele>937.5999755859375</ele>
        <time>2026-08-22T02:29:00.000Z</time>
        <extensions>
          <ns3:TrackPointExtension>
            <ns3:hr>138</ns3:hr>
            <ns3:cad>48</ns3:cad>
          </ns3:TrackPointExtension>
        </extensions>
      </trkpt>
      <trkpt lat="45.2463791705667972564697265625" lon="-71.131047494709491729736328125">
        <ele>937.79998779296875</ele>
        <time>2026-08-22T02:29:01.000Z</time>
        <extensions>
          <ns3:TrackPointExtension>
            <ns3:hr>138</ns3:hr>
            <ns3:cad>48</ns3:cad>
          </ns3:TrackPointExtension>
        </extensions>
      </trkpt>
      <trkpt lat="45.24636902846395969390869140625" lon="-71.13104959018528461456298828125">
        <ele>938</ele>
        <time>2026-08-22T02:29:02.000Z</time>
        <extensions>
          <ns3:TrackPointExtension>
            <ns3:hr>138</ns3:hr>
            <ns3:cad>48</ns3:cad>
          </ns3:TrackPointExtension>
        </extensions>
      </trkpt>
      <trkpt lat="45.2463624067604541778564453125" lon="-71.13104707561433315277099609375">
        <ele>938.20001220703125</ele>
        <time>2026-08-22T02:29:03.000Z</time>
        <extensions>
          <ns3:TrackPointExtension>
            <ns3:hr>138</ns3:hr>
            <ns3:cad>0</ns3:cad>
          </ns3:TrackPointExtension>
        </extensions>
      </trkpt>
      <trkpt lat="45.24635729379951953887939453125" lon="-71.131046824157238006591796875">
        <ele>938.4000244140625</ele>
        <time>2026-08-22T02:29:04.000Z</time>
        <extensions>
          <ns3:TrackPointExtension>
            <ns3:hr>139</ns3:hr>
            <ns3:cad>0</ns3:cad>
          </ns3:TrackPointExtension>
        </extensions>
      </trkpt>
      <trkpt lat="45.24635058827698230743408203125" lon="-71.1310459859669208526611328125">
        <ele>938.5999755859375</ele>
        <time>2026-08-22T02:29:05.000Z</time>
        <extensions>
          <ns3:TrackPointExtension>
            <ns3:hr>138</ns3:hr>
            <ns3:cad>0</ns3:cad>
          </ns3:TrackPointExtension>
        </extensions>
      </trkpt>
      <trkpt lat="45.24634237401187419891357421875" lon="-71.13104975782334804534912109375">
        <ele>938.79998779296875</ele>
        <time>2026-08-22T02:29:06.000Z</time>
        <extensions>
          <ns3:TrackPointExtension>
            <ns3:hr>138</ns3:hr>
            <ns3:cad>0</ns3:cad>
          </ns3:TrackPointExtension>
        </extensions>
      </trkpt>
      <trkpt lat="45.24633206427097320556640625" lon="-71.13104908727109432220458984375">
        <ele>939.20001220703125</ele>
        <time>2026-08-22T02:29:07.000Z</time>
        <extensions>
          <ns3:TrackPointExtension>
            <ns3:hr>138</ns3:hr>
            <ns3:cad>0</ns3:cad>
          </ns3:TrackPointExtension>
        </extensions>
      </trkpt>
      <trkpt lat="45.24633030407130718231201171875" lon="-71.131050176918506622314453125">
        <ele>939.4000244140625</ele>
        <time>2026-08-22T02:29:08.000Z</time>
        <extensions>
          <ns3:TrackPointExtension>
            <ns3:hr>138</ns3:hr>
            <ns3:cad>0</ns3:cad>
          </ns3:TrackPointExtension>
        </extensions>
      </trkpt>
      <trkpt lat="45.24632443673908710479736328125" lon="-71.1310553736984729766845703125">
        <ele>939.5999755859375</ele>
        <time>2026-08-22T02:29:09.000Z</time>
        <extensions>
          <ns3:TrackPointExtension>
            <ns3:hr>139</ns3:hr>
            <ns3:cad>0</ns3:cad>
          </ns3:TrackPointExtension>
        </extensions>
      </trkpt>
      <trkpt lat="45.24631907232105731964111328125" lon="-71.13105964846909046173095703125">
        <ele>939.79998779296875</ele>
        <time>2026-08-22T02:29:10.000Z</time>
        <extensions>
          <ns3:TrackPointExtension>
            <ns3:hr>139</ns3:hr>
            <ns3:cad>0</ns3:cad>
          </ns3:TrackPointExtension>
        </extensions>
      </trkpt>
      <trkpt lat="45.2463107742369174957275390625" lon="-71.13105855882167816162109375">
        <ele>940</ele>
        <time>2026-08-22T02:29:11.000Z</time>
        <extensions>
          <ns3:TrackPointExtension>
            <ns3:hr>139</ns3:hr>
            <ns3:cad>0</ns3:cad>
          </ns3:TrackPointExtension>
        </extensions>
      </trkpt>
      <trkpt lat="45.2462987042963504791259765625" lon="-71.1310580559074878692626953125">
        <ele>940.20001220703125</ele>
        <time>2026-08-22T02:29:12.000Z</time>
        <extensions>
          <ns3:TrackPointExtension>
            <ns3:hr>139</ns3:hr>
            <ns3:cad>0</ns3:cad>
          </ns3:TrackPointExtension>
        </extensions>
      </trkpt>
      <trkpt lat="45.2462859638035297393798828125" lon="-71.13105855882167816162109375">
        <ele>940.20001220703125</ele>
        <time>2026-08-22T02:29:13.000Z</time>
        <extensions>
          <ns3:TrackPointExtension>
            <ns3:hr>139</ns3:hr>
            <ns3:cad>0</ns3:cad>
          </ns3:TrackPointExtension>
        </extensions>
      </trkpt>
      <trkpt lat="45.24627615697681903839111328125" lon="-71.13106216304004192352294921875">
        <ele>940.4000244140625</ele>
        <time>2026-08-22T02:29:14.000Z</time>
        <extensions>
          <ns3:TrackPointExtension>
            <ns3:hr>139</ns3:hr>
            <ns3:cad>0</ns3:cad>
          </ns3:TrackPointExtension>
        </extensions>
      </trkpt>
      <trkpt lat="45.246272385120391845703125" lon="-71.13106568343937397003173828125">
        <ele>940.5999755859375</ele>
        <time>2026-08-22T02:29:15.000Z</time>
        <extensions>
          <ns3:TrackPointExtension>
            <ns3:hr>139</ns3:hr>
            <ns3:cad>0</ns3:cad>
          </ns3:TrackPointExtension>
        </extensions>
      </trkpt>
      <trkpt lat="45.24625956080853939056396484375" lon="-71.13107205368578433990478515625">
        <ele>940.79998779296875</ele>
        <time>2026-08-22T02:29:16.000Z</time>
        <extensions>
          <ns3:TrackPointExtension>
            <ns3:hr>140</ns3:hr>
            <ns3:cad>0</ns3:cad>
          </ns3:TrackPointExtension>
        </extensions>
      </trkpt>
      <trkpt lat="45.24625905789434909820556640625" lon="-71.13107926212251186370849609375">
        <ele>941</ele>
        <time>2026-08-22T02:29:17.000Z</time>
        <extensions>
          <ns3:TrackPointExtension>
            <ns3:hr>140</ns3:hr>
            <ns3:cad>0</ns3:cad>
          </ns3:TrackPointExtension>
        </extensions>
      </trkpt>
      <trkpt lat="45.24625754915177822113037109375" lon="-71.131087057292461395263671875">
        <ele>941.20001220703125</ele>
        <time>2026-08-22T02:29:18.000Z</time>
        <extensions>
          <ns3:TrackPointExtension>
            <ns3:hr>140</ns3:hr>
            <ns3:cad>0</ns3:cad>
          </ns3:TrackPointExtension>
        </extensions>
      </trkpt>
      <trkpt lat="45.24624682031571865081787109375" lon="-71.13110004924237728118896484375">
        <ele>941.4000244140625</ele>
        <time>2026-08-22T02:29:19.000Z</time>
        <extensions>
          <ns3:TrackPointExtension>
            <ns3:hr>140</ns3:hr>
            <ns3:cad>0</ns3:cad>
          </ns3:TrackPointExtension>
        </extensions>
      </trkpt>
      <trkpt lat="45.2462360076606273651123046875" lon="-71.1311073414981365203857421875">
        <ele>941.4000244140625</ele>
        <time>2026-08-22T02:29:20.000Z</time>
        <extensions>
          <ns3:TrackPointExtension>
            <ns3:hr>140</ns3:hr>
            <ns3:cad>0</ns3:cad>
          </ns3:TrackPointExtension>
        </extensions>
      </trkpt>
      <trkpt lat="45.24623106233775615692138671875" lon="-71.1311133764684200286865234375">
        <ele>941.5999755859375</ele>
        <time>2026-08-22T02:29:21.000Z</time>
        <extensions>
          <ns3:TrackPointExtension>
            <ns3:hr>141</ns3:hr>
            <ns3:cad>0</ns3:cad>
          </ns3:TrackPointExtension>
        </extensions>
      </trkpt>
      <trkpt lat="45.24621999822556972503662109375" lon="-71.1311291344463825225830078125">
        <ele>941.5999755859375</ele>
        <time>2026-08-22T02:29:22.000Z</time>
        <extensions>
          <ns3:TrackPointExtension>
            <ns3:hr>140</ns3:hr>
            <ns3:cad>0</ns3:cad>
          </ns3:TrackPointExtension>
        </extensions>
      </trkpt>
      <trkpt lat="45.24621161632239818572998046875" lon="-71.13113726489245891571044921875">
        <ele>941.79998779296875</ele>
        <time>2026-08-22T02:29:23.000Z</time>
        <extensions>
          <ns3:TrackPointExtension>
            <ns3:hr>140</ns3:hr>
            <ns3:cad>46</ns3:cad>
          </ns3:TrackPointExtension>
        </extensions>
      </trkpt>
      <trkpt lat="45.24620440788567066192626953125" lon="-71.13114363513886928558349609375">
        <ele>942</ele>
        <time>2026-08-22T02:29:24.000Z</time>
        <extensions>
          <ns3:TrackPointExtension>
            <ns3:hr>140</ns3:hr>
            <ns3:cad>46</ns3:cad>
          </ns3:TrackPointExtension>
        </extensions>
      </trkpt>
      <trkpt lat="45.24619770236313343048095703125" lon="-71.1311490833759307861328125">
        <ele>942.20001220703125</ele>
        <time>2026-08-22T02:29:25.000Z</time>
        <extensions>
          <ns3:TrackPointExtension>
            <ns3:hr>140</ns3:hr>
            <ns3:cad>0</ns3:cad>
          </ns3:TrackPointExtension>
        </extensions>
      </trkpt>
      <trkpt lat="45.24618856608867645263671875" lon="-71.13115637563169002532958984375">
        <ele>942.4000244140625</ele>
        <time>2026-08-22T02:29:26.000Z</time>
        <extensions>
          <ns3:TrackPointExtension>
            <ns3:hr>139</ns3:hr>
            <ns3:cad>0</ns3:cad>
          </ns3:TrackPointExtension>
        </extensions>
      </trkpt>
      <trkpt lat="45.2461756579577922821044921875" lon="-71.131164841353893280029296875">
        <ele>942.4000244140625</ele>
        <time>2026-08-22T02:29:27.000Z</time>
        <extensions>
          <ns3:TrackPointExtension>
            <ns3:hr>140</ns3:hr>
            <ns3:cad>48</ns3:cad>
          </ns3:TrackPointExtension>
        </extensions>
      </trkpt>
      <trkpt lat="45.2461702935397624969482421875" lon="-71.131170876324176788330078125">
        <ele>942.5999755859375</ele>
        <time>2026-08-22T02:29:28.000Z</time>
        <extensions>
          <ns3:TrackPointExtension>
            <ns3:hr>140</ns3:hr>
            <ns3:cad>48</ns3:cad>
          </ns3:TrackPointExtension>
        </extensions>
      </trkpt>
      <trkpt lat="45.246162749826908111572265625" lon="-71.131180264055728912353515625">
        <ele>942.79998779296875</ele>
        <time>2026-08-22T02:29:29.000Z</time>
        <extensions>
          <ns3:TrackPointExtension>
            <ns3:hr>140</ns3:hr>
            <ns3:cad>48</ns3:cad>
          </ns3:TrackPointExtension>
        </extensions>
      </trkpt>
      <trkpt lat="45.2461583912372589111328125" lon="-71.1311864666640758514404296875">
        <ele>942.79998779296875</ele>
        <time>2026-08-22T02:29:30.000Z</time>
        <extensions>
          <ns3:TrackPointExtension>
            <ns3:hr>140</ns3:hr>
            <ns3:cad>48</ns3:cad>
          </ns3:TrackPointExtension>
        </extensions>
      </trkpt>
      <trkpt lat="45.2461525239050388336181640625" lon="-71.1311908252537250518798828125">
        <ele>943</ele>
        <time>2026-08-22T02:29:31.000Z</time>
        <extensions>
          <ns3:TrackPointExtension>
            <ns3:hr>141</ns3:hr>
            <ns3:cad>48</ns3:cad>
          </ns3:TrackPointExtension>
        </extensions>
      </trkpt>
      <trkpt lat="45.2461451478302478790283203125" lon="-71.131204068660736083984375">
        <ele>943.20001220703125</ele>
        <time>2026-08-22T02:29:32.000Z</time>
        <extensions>
          <ns3:TrackPointExtension>
            <ns3:hr>140</ns3:hr>
            <ns3:cad>0</ns3:cad>
          </ns3:TrackPointExtension>
        </extensions>
      </trkpt>
      <trkpt lat="45.24614037014544010162353515625" lon="-71.1312134563922882080078125">
        <ele>943.4000244140625</ele>
        <time>2026-08-22T02:29:33.000Z</time>
        <extensions>
          <ns3:TrackPointExtension>
            <ns3:hr>140</ns3:hr>
            <ns3:cad>0</ns3:cad>
          </ns3:TrackPointExtension>
        </extensions>
      </trkpt>
      <trkpt lat="45.246137268841266632080078125" lon="-71.131225191056728363037109375">
        <ele>943.5999755859375</ele>
        <time>2026-08-22T02:29:34.000Z</time>
        <extensions>
          <ns3:TrackPointExtension>
            <ns3:hr>140</ns3:hr>
            <ns3:cad>0</ns3:cad>
          </ns3:TrackPointExtension>
        </extensions>
      </trkpt>
      <trkpt lat="45.24612880311906337738037109375" lon="-71.13123935647308826446533203125">
        <ele>943.79998779296875</ele>
        <time>2026-08-22T02:29:35.000Z</time>
        <extensions>
          <ns3:TrackPointExtension>
            <ns3:hr>140</ns3:hr>
            <ns3:cad>0</ns3:cad>
          </ns3:TrackPointExtension>
        </extensions>
      </trkpt>
      <trkpt lat="45.24612486362457275390625" lon="-71.13125008530914783477783203125">
        <ele>944</ele>
        <time>2026-08-22T02:29:36.000Z</time>
        <extensions>
          <ns3:TrackPointExtension>
            <ns3:hr>140</ns3:hr>
            <ns3:cad>0</ns3:cad>
          </ns3:TrackPointExtension>
        </extensions>
      </trkpt>
      <trkpt lat="45.2461156435310840606689453125" lon="-71.1312649212777614593505859375">
        <ele>944.20001220703125</ele>
        <time>2026-08-22T02:29:37.000Z</time>
        <extensions>
          <ns3:TrackPointExtension>
            <ns3:hr>140</ns3:hr>
            <ns3:cad>0</ns3:cad>
          </ns3:TrackPointExtension>
        </extensions>
      </trkpt>
      <trkpt lat="45.24610986001789569854736328125" lon="-71.13127984106540679931640625">
        <ele>944.4000244140625</ele>
        <time>2026-08-22T02:29:38.000Z</time>
        <extensions>
          <ns3:TrackPointExtension>
            <ns3:hr>140</ns3:hr>
            <ns3:cad>0</ns3:cad>
          </ns3:TrackPointExtension>
        </extensions>
      </trkpt>
      <trkpt lat="45.24610382504761219024658203125" lon="-71.131289564073085784912109375">
        <ele>944.5999755859375</ele>
        <time>2026-08-22T02:29:39.000Z</time>
        <extensions>
          <ns3:TrackPointExtension>
            <ns3:hr>140</ns3:hr>
            <ns3:cad>0</ns3:cad>
          </ns3:TrackPointExtension>
        </extensions>
      </trkpt>
      <trkpt lat="45.24609896354377269744873046875" lon="-71.1312992870807647705078125">
        <ele>944.79998779296875</ele>
        <time>2026-08-22T02:29:40.000Z</time>
        <extensions>
          <ns3:TrackPointExtension>
            <ns3:hr>140</ns3:hr>
            <ns3:cad>0</ns3:cad>
          </ns3:TrackPointExtension>
        </extensions>
      </trkpt>
      <trkpt lat="45.246099047362804412841796875" lon="-71.131307668983936309814453125">
        <ele>945</ele>
        <time>2026-08-22T02:29:41.000Z</time>
        <extensions>
          <ns3:TrackPointExtension>
            <ns3:hr>141</ns3:hr>
            <ns3:cad>0</ns3:cad>
          </ns3:TrackPointExtension>
        </extensions>
      </trkpt>
      <trkpt lat="45.24609628133475780487060546875" lon="-71.13132049329578876495361328125">
        <ele>945.20001220703125</ele>
        <time>2026-08-22T02:29:42.000Z</time>
        <extensions>
          <ns3:TrackPointExtension>
            <ns3:hr>140</ns3:hr>
            <ns3:cad>0</ns3:cad>
          </ns3:TrackPointExtension>
        </extensions>
      </trkpt>
      <trkpt lat="45.24609007872641086578369140625" lon="-71.13132853992283344268798828125">
        <ele>945.4000244140625</ele>
        <time>2026-08-22T02:29:43.000Z</time>
        <extensions>
          <ns3:TrackPointExtension>
            <ns3:hr>140</ns3:hr>
            <ns3:cad>0</ns3:cad>
          </ns3:TrackPointExtension>
        </extensions>
      </trkpt>
      <trkpt lat="45.2460854686796665191650390625" lon="-71.131341196596622467041015625">
        <ele>945.4000244140625</ele>
        <time>2026-08-22T02:29:44.000Z</time>
        <extensions>
          <ns3:TrackPointExtension>
            <ns3:hr>140</ns3:hr>
            <ns3:cad>0</ns3:cad>
          </ns3:TrackPointExtension>
        </extensions>
      </trkpt>
      <trkpt lat="45.24608471430838108062744140625" lon="-71.131349243223667144775390625">
        <ele>945.5999755859375</ele>
        <time>2026-08-22T02:29:45.000Z</time>
        <extensions>
          <ns3:TrackPointExtension>
            <ns3:hr>140</ns3:hr>
            <ns3:cad>0</ns3:cad>
          </ns3:TrackPointExtension>
        </extensions>
      </trkpt>
      <trkpt lat="45.2460747398436069488525390625" lon="-71.13136039115488529205322265625">
        <ele>945.79998779296875</ele>
        <time>2026-08-22T02:29:46.000Z</time>
        <extensions>
          <ns3:TrackPointExtension>
            <ns3:hr>140</ns3:hr>
            <ns3:cad>42</ns3:cad>
          </ns3:TrackPointExtension>
        </extensions>
      </trkpt>
      <trkpt lat="45.24606761522591114044189453125" lon="-71.131371371448040008544921875">
        <ele>945.79998779296875</ele>
        <time>2026-08-22T02:29:47.000Z</time>
        <extensions>
          <ns3:TrackPointExtension>
            <ns3:hr>140</ns3:hr>
            <ns3:cad>42</ns3:cad>
          </ns3:TrackPointExtension>
        </extensions>
      </trkpt>
      <trkpt lat="45.24606476537883281707763671875" lon="-71.13138067536056041717529296875">
        <ele>946</ele>
        <time>2026-08-22T02:29:48.000Z</time>
        <extensions>
          <ns3:TrackPointExtension>
            <ns3:hr>140</ns3:hr>
            <ns3:cad>42</ns3:cad>
          </ns3:TrackPointExtension>
        </extensions>
      </trkpt>
      <trkpt lat="45.24605805985629558563232421875" lon="-71.13138855434954166412353515625">
        <ele>946</ele>
        <time>2026-08-22T02:29:49.000Z</time>
        <extensions>
          <ns3:TrackPointExtension>
            <ns3:hr>140</ns3:hr>
            <ns3:cad>42</ns3:cad>
          </ns3:TrackPointExtension>
        </extensions>
      </trkpt>
      <trkpt lat="45.246054120361804962158203125" lon="-71.13139509223401546478271484375">
        <ele>946.20001220703125</ele>
        <time>2026-08-22T02:29:50.000Z</time>
        <extensions>
          <ns3:TrackPointExtension>
            <ns3:hr>140</ns3:hr>
            <ns3:cad>42</ns3:cad>
          </ns3:TrackPointExtension>
        </extensions>
      </trkpt>
      <trkpt lat="45.2460459060966968536376953125" lon="-71.1314070783555507659912109375">
        <ele>946.4000244140625</ele>
        <time>2026-08-22T02:29:51.000Z</time>
        <extensions>
          <ns3:TrackPointExtension>
            <ns3:hr>140</ns3:hr>
            <ns3:cad>0</ns3:cad>
          </ns3:TrackPointExtension>
        </extensions>
      </trkpt>
      <trkpt lat="45.24603676982223987579345703125" lon="-71.13141671754419803619384765625">
        <ele>946.4000244140625</ele>
        <time>2026-08-22T02:29:52.000Z</time>
        <extensions>
          <ns3:TrackPointExtension>
            <ns3:hr>140</ns3:hr>
            <ns3:cad>0</ns3:cad>
          </ns3:TrackPointExtension>
        </extensions>
      </trkpt>
      <trkpt lat="45.24603165686130523681640625" lon="-71.1314285360276699066162109375">
        <ele>946.5999755859375</ele>
        <time>2026-08-22T02:29:53.000Z</time>
        <extensions>
          <ns3:TrackPointExtension>
            <ns3:hr>140</ns3:hr>
            <ns3:cad>46</ns3:cad>
          </ns3:TrackPointExtension>
        </extensions>
      </trkpt>
      <trkpt lat="45.2460257895290851593017578125" lon="-71.13143742084503173828125">
        <ele>946.79998779296875</ele>
        <time>2026-08-22T02:29:54.000Z</time>
        <extensions>
          <ns3:TrackPointExtension>
            <ns3:hr>140</ns3:hr>
            <ns3:cad>58</ns3:cad>
          </ns3:TrackPointExtension>
        </extensions>
      </trkpt>
      <trkpt lat="45.2460180781781673431396484375" lon="-71.1314463056623935699462890625">
        <ele>947</ele>
        <time>2026-08-22T02:29:55.000Z</time>
        <extensions>
          <ns3:TrackPointExtension>
            <ns3:hr>139</ns3:hr>
            <ns3:cad>58</ns3:cad>
          </ns3:TrackPointExtension>
        </extensions>
      </trkpt>
      <trkpt lat="45.24600994773209095001220703125" lon="-71.13145762123167514801025390625">
        <ele>947.20001220703125</ele>
        <time>2026-08-22T02:29:56.000Z</time>
        <extensions>
          <ns3:TrackPointExtension>
            <ns3:hr>138</ns3:hr>
            <ns3:cad>58</ns3:cad>
          </ns3:TrackPointExtension>
        </extensions>
      </trkpt>
      <trkpt lat="45.24600022472441196441650390625" lon="-71.1314630694687366485595703125">
        <ele>947.4000244140625</ele>
        <time>2026-08-22T02:29:57.000Z</time>
        <extensions>
          <ns3:TrackPointExtension>
            <ns3:hr>138</ns3:hr>
            <ns3:cad>58</ns3:cad>
          </ns3:TrackPointExtension>
        </extensions>
      </trkpt>
      <trkpt lat="45.2459946088492870330810546875" lon="-71.131469272077083587646484375">
        <ele>947.5999755859375</ele>
        <time>2026-08-22T02:29:58.000Z</time>
        <extensions>
          <ns3:TrackPointExtension>
            <ns3:hr>138</ns3:hr>
            <ns3:cad>0</ns3:cad>
          </ns3:TrackPointExtension>
        </extensions>
      </trkpt>
      <trkpt lat="45.2459842152893543243408203125" lon="-71.1314848624169826507568359375">
        <ele>947.79998779296875</ele>
        <time>2026-08-22T02:29:59.000Z</time>
        <extensions>
          <ns3:TrackPointExtension>
            <ns3:hr>138</ns3:hr>
            <ns3:cad>0</ns3:cad>
          </ns3:TrackPointExtension>
        </extensions>
      </trkpt>
      <trkpt lat="45.24597792886197566986083984375" lon="-71.13148779608309268951416015625">
        <ele>948</ele>
        <time>2026-08-22T02:30:00.000Z</time>
        <extensions>
          <ns3:TrackPointExtension>
            <ns3:hr>138</ns3:hr>
            <ns3:cad>0</ns3:cad>
          </ns3:TrackPointExtension>
        </extensions>
      </trkpt>
      <trkpt lat="45.24596502073109149932861328125" lon="-71.13149316050112247467041015625">
        <ele>948.20001220703125</ele>
        <time>2026-08-22T02:30:01.000Z</time>
        <extensions>
          <ns3:TrackPointExtension>
            <ns3:hr>139</ns3:hr>
            <ns3:cad>0</ns3:cad>
          </ns3:TrackPointExtension>
        </extensions>
      </trkpt>
      <trkpt lat="45.24595445953309535980224609375" lon="-71.131503470242023468017578125">
        <ele>948.4000244140625</ele>
        <time>2026-08-22T02:30:02.000Z</time>
        <extensions>
          <ns3:TrackPointExtension>
            <ns3:hr>138</ns3:hr>
            <ns3:cad>0</ns3:cad>
          </ns3:TrackPointExtension>
        </extensions>
      </trkpt>
      <trkpt lat="45.2459449879825115203857421875" lon="-71.1315160430967807769775390625">
        <ele>948.5999755859375</ele>
        <time>2026-08-22T02:30:03.000Z</time>
        <extensions>
          <ns3:TrackPointExtension>
            <ns3:hr>138</ns3:hr>
            <ns3:cad>0</ns3:cad>
          </ns3:TrackPointExtension>
        </extensions>
      </trkpt>
      <trkpt lat="45.2459382824599742889404296875" lon="-71.131516210734844207763671875">
        <ele>948.79998779296875</ele>
        <time>2026-08-22T02:30:04.000Z</time>
        <extensions>
          <ns3:TrackPointExtension>
            <ns3:hr>138</ns3:hr>
            <ns3:cad>0</ns3:cad>
          </ns3:TrackPointExtension>
        </extensions>
      </trkpt>
      <trkpt lat="45.2459265477955341339111328125" lon="-71.13151964731514453887939453125">
        <ele>948.79998779296875</ele>
        <time>2026-08-22T02:30:05.000Z</time>
        <extensions>
          <ns3:TrackPointExtension>
            <ns3:hr>138</ns3:hr>
            <ns3:cad>50</ns3:cad>
          </ns3:TrackPointExtension>
        </extensions>
      </trkpt>
      <trkpt lat="45.245919339358806610107421875" lon="-71.1315257661044597625732421875">
        <ele>949</ele>
        <time>2026-08-22T02:30:06.000Z</time>
        <extensions>
          <ns3:TrackPointExtension>
            <ns3:hr>139</ns3:hr>
            <ns3:cad>50</ns3:cad>
          </ns3:TrackPointExtension>
        </extensions>
      </trkpt>
      <trkpt lat="45.24591355584561824798583984375" lon="-71.13153196871280670166015625">
        <ele>949.20001220703125</ele>
        <time>2026-08-22T02:30:07.000Z</time>
        <extensions>
          <ns3:TrackPointExtension>
            <ns3:hr>139</ns3:hr>
            <ns3:cad>44</ns3:cad>
          </ns3:TrackPointExtension>
        </extensions>
      </trkpt>
      <trkpt lat="45.24590617977082729339599609375" lon="-71.131537668406963348388671875">
        <ele>949.4000244140625</ele>
        <time>2026-08-22T02:30:08.000Z</time>
        <extensions>
          <ns3:TrackPointExtension>
            <ns3:hr>139</ns3:hr>
            <ns3:cad>43</ns3:cad>
          </ns3:TrackPointExtension>
        </extensions>
      </trkpt>
      <trkpt lat="45.2458967082202434539794921875" lon="-71.13154529593884944915771484375">
        <ele>949.4000244140625</ele>
        <time>2026-08-22T02:30:09.000Z</time>
        <extensions>
          <ns3:TrackPointExtension>
            <ns3:hr>139</ns3:hr>
            <ns3:cad>43</ns3:cad>
          </ns3:TrackPointExtension>
        </extensions>
      </trkpt>
      <trkpt lat="45.24588882923126220703125" lon="-71.13154814578592777252197265625">
        <ele>949.5999755859375</ele>
        <time>2026-08-22T02:30:10.000Z</time>
        <extensions>
          <ns3:TrackPointExtension>
            <ns3:hr>140</ns3:hr>
            <ns3:cad>43</ns3:cad>
          </ns3:TrackPointExtension>
        </extensions>
      </trkpt>
      <trkpt lat="45.245886147022247314453125" lon="-71.13154931925237178802490234375">
        <ele>949.79998779296875</ele>
        <time>2026-08-22T02:30:11.000Z</time>
        <extensions>
          <ns3:TrackPointExtension>
            <ns3:hr>140</ns3:hr>
            <ns3:cad>43</ns3:cad>
          </ns3:TrackPointExtension>
        </extensions>
      </trkpt>
      <trkpt lat="45.24587784893810749053955078125" lon="-71.13156055100262165069580078125">
        <ele>950</ele>
        <time>2026-08-22T02:30:12.000Z</time>
        <extensions>
          <ns3:TrackPointExtension>
            <ns3:hr>139</ns3:hr>
            <ns3:cad>42</ns3:cad>
          </ns3:TrackPointExtension>
        </extensions>
      </trkpt>
      <trkpt lat="45.24587315507233142852783203125" lon="-71.13157060928642749786376953125">
        <ele>950</ele>
        <time>2026-08-22T02:30:13.000Z</time>
        <extensions>
          <ns3:TrackPointExtension>
            <ns3:hr>139</ns3:hr>
            <ns3:cad>42</ns3:cad>
          </ns3:TrackPointExtension>
        </extensions>
      </trkpt>
      <trkpt lat="45.245865695178508758544921875" lon="-71.1315763927996158599853515625">
        <ele>950.20001220703125</ele>
        <time>2026-08-22T02:30:14.000Z</time>
        <extensions>
          <ns3:TrackPointExtension>
            <ns3:hr>139</ns3:hr>
            <ns3:cad>42</ns3:cad>
          </ns3:TrackPointExtension>
        </extensions>
      </trkpt>
      <trkpt lat="45.24585588835179805755615234375" lon="-71.13158024847507476806640625">
        <ele>950.4000244140625</ele>
        <time>2026-08-22T02:30:15.000Z</time>
        <extensions>
          <ns3:TrackPointExtension>
            <ns3:hr>139</ns3:hr>
            <ns3:cad>42</ns3:cad>
          </ns3:TrackPointExtension>
        </extensions>
      </trkpt>
      <trkpt lat="45.24585840292274951934814453125" lon="-71.13158871419727802276611328125">
        <ele>950.5999755859375</ele>
        <time>2026-08-22T02:30:16.000Z</time>
        <extensions>
          <ns3:TrackPointExtension>
            <ns3:hr>139</ns3:hr>
            <ns3:cad>42</ns3:cad>
          </ns3:TrackPointExtension>
        </extensions>
      </trkpt>
      <trkpt lat="45.2458524517714977264404296875" lon="-71.1315938271582126617431640625">
        <ele>950.79998779296875</ele>
        <time>2026-08-22T02:30:17.000Z</time>
        <extensions>
          <ns3:TrackPointExtension>
            <ns3:hr>139</ns3:hr>
            <ns3:cad>0</ns3:cad>
          </ns3:TrackPointExtension>
        </extensions>
      </trkpt>
      <trkpt lat="45.2458423934876918792724609375" lon="-71.13160162232816219329833984375">
        <ele>951.20001220703125</ele>
        <time>2026-08-22T02:30:18.000Z</time>
        <extensions>
          <ns3:TrackPointExtension>
            <ns3:hr>140</ns3:hr>
            <ns3:cad>0</ns3:cad>
          </ns3:TrackPointExtension>
        </extensions>
      </trkpt>
      <trkpt lat="45.24583258666098117828369140625" lon="-71.13161251880228519439697265625">
        <ele>951.4000244140625</ele>
        <time>2026-08-22T02:30:19.000Z</time>
        <extensions>
          <ns3:TrackPointExtension>
            <ns3:hr>139</ns3:hr>
            <ns3:cad>0</ns3:cad>
          </ns3:TrackPointExtension>
        </extensions>
      </trkpt>
      <trkpt lat="45.24583049118518829345703125" lon="-71.1316104233264923095703125">
        <ele>951.5999755859375</ele>
        <time>2026-08-22T02:30:20.000Z</time>
        <extensions>
          <ns3:TrackPointExtension>
            <ns3:hr>140</ns3:hr>
            <ns3:cad>0</ns3:cad>
          </ns3:TrackPointExtension>
        </extensions>
      </trkpt>
      <trkpt lat="45.24581565521657466888427734375" lon="-71.131616123020648956298828125">
        <ele>951.79998779296875</ele>
        <time>2026-08-22T02:30:21.000Z</time>
        <extensions>
          <ns3:TrackPointExtension>
            <ns3:hr>139</ns3:hr>
            <ns3:cad>0</ns3:cad>
          </ns3:TrackPointExtension>
        </extensions>
      </trkpt>
      <trkpt lat="45.24580995552241802215576171875" lon="-71.13162090070545673370361328125">
        <ele>952</ele>
        <time>2026-08-22T02:30:22.000Z</time>
        <extensions>
          <ns3:TrackPointExtension>
            <ns3:hr>140</ns3:hr>
            <ns3:cad>0</ns3:cad>
          </ns3:TrackPointExtension>
        </extensions>
      </trkpt>
      <trkpt lat="45.24580903351306915283203125" lon="-71.13162274472415447235107421875">
        <ele>952.20001220703125</ele>
        <time>2026-08-22T02:30:23.000Z</time>
        <extensions>
          <ns3:TrackPointExtension>
            <ns3:hr>140</ns3:hr>
            <ns3:cad>0</ns3:cad>
          </ns3:TrackPointExtension>
        </extensions>
      </trkpt>
      <trkpt lat="45.24579562246799468994140625" lon="-71.13163179717957973480224609375">
        <ele>952.4000244140625</ele>
        <time>2026-08-22T02:30:24.000Z</time>
        <extensions>
          <ns3:TrackPointExtension>
            <ns3:hr>140</ns3:hr>
            <ns3:cad>0</ns3:cad>
          </ns3:TrackPointExtension>
        </extensions>
      </trkpt>
      <trkpt lat="45.24579352699220180511474609375" lon="-71.13163364119827747344970703125">
        <ele>952.5999755859375</ele>
        <time>2026-08-22T02:30:25.000Z</time>
        <extensions>
          <ns3:TrackPointExtension>
            <ns3:hr>140</ns3:hr>
            <ns3:cad>0</ns3:cad>
          </ns3:TrackPointExtension>
        </extensions>
      </trkpt>
      <trkpt lat="45.24578883312642574310302734375" lon="-71.13163850270211696624755859375">
        <ele>952.79998779296875</ele>
        <time>2026-08-22T02:30:26.000Z</time>
        <extensions>
          <ns3:TrackPointExtension>
            <ns3:hr>140</ns3:hr>
            <ns3:cad>0</ns3:cad>
          </ns3:TrackPointExtension>
        </extensions>
      </trkpt>
      <trkpt lat="45.24577952921390533447265625" lon="-71.13164302892982959747314453125">
        <ele>953</ele>
        <time>2026-08-22T02:30:27.000Z</time>
        <extensions>
          <ns3:TrackPointExtension>
            <ns3:hr>140</ns3:hr>
            <ns3:cad>0</ns3:cad>
          </ns3:TrackPointExtension>
        </extensions>
      </trkpt>
      <trkpt lat="45.24577508680522441864013671875" lon="-71.13164135254919528961181640625">
        <ele>953.20001220703125</ele>
        <time>2026-08-22T02:30:28.000Z</time>
        <extensions>
          <ns3:TrackPointExtension>
            <ns3:hr>140</ns3:hr>
            <ns3:cad>0</ns3:cad>
          </ns3:TrackPointExtension>
        </extensions>
      </trkpt>
      <trkpt lat="45.24576921947300434112548828125" lon="-71.13164587877690792083740234375">
        <ele>953.4000244140625</ele>
        <time>2026-08-22T02:30:29.000Z</time>
        <extensions>
          <ns3:TrackPointExtension>
            <ns3:hr>140</ns3:hr>
            <ns3:cad>0</ns3:cad>
          </ns3:TrackPointExtension>
        </extensions>
      </trkpt>
      <trkpt lat="45.2457589097321033477783203125" lon="-71.13165224902331829071044921875">
        <ele>953.5999755859375</ele>
        <time>2026-08-22T02:30:30.000Z</time>
        <extensions>
          <ns3:TrackPointExtension>
            <ns3:hr>140</ns3:hr>
            <ns3:cad>0</ns3:cad>
          </ns3:TrackPointExtension>
        </extensions>
      </trkpt>
      <trkpt lat="45.2457572333514690399169921875" lon="-71.13165643997490406036376953125">
        <ele>954</ele>
        <time>2026-08-22T02:30:31.000Z</time>
        <extensions>
          <ns3:TrackPointExtension>
            <ns3:hr>141</ns3:hr>
            <ns3:cad>0</ns3:cad>
          </ns3:TrackPointExtension>
        </extensions>
      </trkpt>
      <trkpt lat="45.24575396440923213958740234375" lon="-71.13166247494518756866455078125">
        <ele>954.20001220703125</ele>
        <time>2026-08-22T02:30:32.000Z</time>
        <extensions>
          <ns3:TrackPointExtension>
            <ns3:hr>141</ns3:hr>
            <ns3:cad>0</ns3:cad>
          </ns3:TrackPointExtension>
        </extensions>
      </trkpt>
      <trkpt lat="45.24574197828769683837890625" lon="-71.1316685937345027923583984375">
        <ele>954.4000244140625</ele>
        <time>2026-08-22T02:30:33.000Z</time>
        <extensions>
          <ns3:TrackPointExtension>
            <ns3:hr>141</ns3:hr>
            <ns3:cad>0</ns3:cad>
          </ns3:TrackPointExtension>
        </extensions>
      </trkpt>
      <trkpt lat="45.24573284201323986053466796875" lon="-71.13167538307607173919677734375">
        <ele>954.5999755859375</ele>
        <time>2026-08-22T02:30:34.000Z</time>
        <extensions>
          <ns3:TrackPointExtension>
            <ns3:hr>141</ns3:hr>
            <ns3:cad>0</ns3:cad>
          </ns3:TrackPointExtension>
        </extensions>
      </trkpt>
      <trkpt lat="45.2457297407090663909912109375" lon="-71.1316742934286594390869140625">
        <ele>954.79998779296875</ele>
        <time>2026-08-22T02:30:35.000Z</time>
        <extensions>
          <ns3:TrackPointExtension>
            <ns3:hr>141</ns3:hr>
            <ns3:cad>0</ns3:cad>
          </ns3:TrackPointExtension>
        </extensions>
      </trkpt>
      <trkpt lat="45.24572194553911685943603515625" lon="-71.13167990930378437042236328125">
        <ele>954.79998779296875</ele>
        <time>2026-08-22T02:30:36.000Z</time>
        <extensions>
          <ns3:TrackPointExtension>
            <ns3:hr>141</ns3:hr>
            <ns3:cad>40</ns3:cad>
          </ns3:TrackPointExtension>
        </extensions>
      </trkpt>
      <trkpt lat="45.2457123063504695892333984375" lon="-71.131683178246021270751953125">
        <ele>955</ele>
        <time>2026-08-22T02:30:37.000Z</time>
        <extensions>
          <ns3:TrackPointExtension>
            <ns3:hr>141</ns3:hr>
            <ns3:cad>40</ns3:cad>
          </ns3:TrackPointExtension>
        </extensions>
      </trkpt>
      <trkpt lat="45.24570048786699771881103515625" lon="-71.131689213216304779052734375">
        <ele>955.20001220703125</ele>
        <time>2026-08-22T02:30:38.000Z</time>
        <extensions>
          <ns3:TrackPointExtension>
            <ns3:hr>141</ns3:hr>
            <ns3:cad>0</ns3:cad>
          </ns3:TrackPointExtension>
        </extensions>
      </trkpt>
      <trkpt lat="45.2456997334957122802734375" lon="-71.13168879412114620208740234375">
        <ele>955.4000244140625</ele>
        <time>2026-08-22T02:30:39.000Z</time>
        <extensions>
          <ns3:TrackPointExtension>
            <ns3:hr>141</ns3:hr>
            <ns3:cad>0</ns3:cad>
          </ns3:TrackPointExtension>
        </extensions>
      </trkpt>
      <trkpt lat="45.2456925250589847564697265625" lon="-71.13168946467339992523193359375">
        <ele>955.4000244140625</ele>
        <time>2026-08-22T02:30:40.000Z</time>
        <extensions>
          <ns3:TrackPointExtension>
            <ns3:hr>141</ns3:hr>
            <ns3:cad>0</ns3:cad>
          </ns3:TrackPointExtension>
        </extensions>
      </trkpt>
      <trkpt lat="45.2456841431558132171630859375" lon="-71.13169248215854167938232421875">
        <ele>955.5999755859375</ele>
        <time>2026-08-22T02:30:41.000Z</time>
        <extensions>
          <ns3:TrackPointExtension>
            <ns3:hr>141</ns3:hr>
            <ns3:cad>0</ns3:cad>
          </ns3:TrackPointExtension>
        </extensions>
      </trkpt>
      <trkpt lat="45.2456838078796863555908203125" lon="-71.13169491291046142578125">
        <ele>955.79998779296875</ele>
        <time>2026-08-22T02:30:42.000Z</time>
        <extensions>
          <ns3:TrackPointExtension>
            <ns3:hr>141</ns3:hr>
            <ns3:cad>0</ns3:cad>
          </ns3:TrackPointExtension>
        </extensions>
      </trkpt>
      <trkpt lat="45.24567567743360996246337890625" lon="-71.1317071504890918731689453125">
        <ele>956</ele>
        <time>2026-08-22T02:30:43.000Z</time>
        <extensions>
          <ns3:TrackPointExtension>
            <ns3:hr>141</ns3:hr>
            <ns3:cad>0</ns3:cad>
          </ns3:TrackPointExtension>
        </extensions>
      </trkpt>
      <trkpt lat="45.24566746316850185394287109375" lon="-71.131713353097438812255859375">
        <ele>956</ele>
        <time>2026-08-22T02:30:44.000Z</time>
        <extensions>
          <ns3:TrackPointExtension>
            <ns3:hr>141</ns3:hr>
            <ns3:cad>0</ns3:cad>
          </ns3:TrackPointExtension>
        </extensions>
      </trkpt>
      <trkpt lat="45.24566545151174068450927734375" lon="-71.1317128501832485198974609375">
        <ele>956.20001220703125</ele>
        <time>2026-08-22T02:30:45.000Z</time>
        <extensions>
          <ns3:TrackPointExtension>
            <ns3:hr>142</ns3:hr>
            <ns3:cad>0</ns3:cad>
          </ns3:TrackPointExtension>
        </extensions>
      </trkpt>
      <trkpt lat="45.24565748870372772216796875" lon="-71.13171779550611972808837890625">
        <ele>956.4000244140625</ele>
        <time>2026-08-22T02:30:46.000Z</time>
        <extensions>
          <ns3:TrackPointExtension>
            <ns3:hr>142</ns3:hr>
            <ns3:cad>0</ns3:cad>
          </ns3:TrackPointExtension>
        </extensions>
      </trkpt>
      <trkpt lat="45.24565002880990505218505859375" lon="-71.131721399724483489990234375">
        <ele>956.4000244140625</ele>
        <time>2026-08-22T02:30:47.000Z</time>
        <extensions>
          <ns3:TrackPointExtension>
            <ns3:hr>142</ns3:hr>
            <ns3:cad>0</ns3:cad>
          </ns3:TrackPointExtension>
        </extensions>
      </trkpt>
      <trkpt lat="45.24564768187701702117919921875" lon="-71.1317252553999423980712890625">
        <ele>956.5999755859375</ele>
        <time>2026-08-22T02:30:48.000Z</time>
        <extensions>
          <ns3:TrackPointExtension>
            <ns3:hr>141</ns3:hr>
            <ns3:cad>0</ns3:cad>
          </ns3:TrackPointExtension>
        </extensions>
      </trkpt>
      <trkpt lat="45.24564684368669986724853515625" lon="-71.13172533921897411346435546875">
        <ele>956.5999755859375</ele>
        <time>2026-08-22T02:30:49.000Z</time>
        <extensions>
          <ns3:TrackPointExtension>
            <ns3:hr>141</ns3:hr>
            <ns3:cad>0</ns3:cad>
          </ns3:TrackPointExtension>
        </extensions>
      </trkpt>
      <trkpt lat="45.24564097635447978973388671875" lon="-71.1317312903702259063720703125">
        <ele>956.79998779296875</ele>
        <time>2026-08-22T02:30:50.000Z</time>
        <extensions>
          <ns3:TrackPointExtension>
            <ns3:hr>140</ns3:hr>
            <ns3:cad>0</ns3:cad>
          </ns3:TrackPointExtension>
        </extensions>
      </trkpt>
      <trkpt lat="45.24563628248870372772216796875" lon="-71.13173581659793853759765625">
        <ele>957</ele>
        <time>2026-08-22T02:30:51.000Z</time>
        <extensions>
          <ns3:TrackPointExtension>
            <ns3:hr>140</ns3:hr>
            <ns3:cad>0</ns3:cad>
          </ns3:TrackPointExtension>
        </extensions>
      </trkpt>
      <trkpt lat="45.2456331811845302581787109375" lon="-71.13173908554017543792724609375">
        <ele>957.20001220703125</ele>
        <time>2026-08-22T02:30:52.000Z</time>
        <extensions>
          <ns3:TrackPointExtension>
            <ns3:hr>140</ns3:hr>
            <ns3:cad>44</ns3:cad>
          </ns3:TrackPointExtension>
        </extensions>
      </trkpt>
      <trkpt lat="45.24563594721257686614990234375" lon="-71.13173489458858966827392578125">
        <ele>957.4000244140625</ele>
        <time>2026-08-22T02:30:53.000Z</time>
        <extensions>
          <ns3:TrackPointExtension>
            <ns3:hr>139</ns3:hr>
            <ns3:cad>44</ns3:cad>
          </ns3:TrackPointExtension>
        </extensions>
      </trkpt>
      <trkpt lat="45.24563192389905452728271484375" lon="-71.13173707388341426849365234375">
        <ele>957.5999755859375</ele>
        <time>2026-08-22T02:30:54.000Z</time>
        <extensions>
          <ns3:TrackPointExtension>
            <ns3:hr>139</ns3:hr>
            <ns3:cad>44</ns3:cad>
          </ns3:TrackPointExtension>
        </extensions>
      </trkpt>
      <trkpt lat="45.24563091807067394256591796875" lon="-71.13173807971179485321044921875">
        <ele>957.79998779296875</ele>
        <time>2026-08-22T02:30:55.000Z</time>
        <extensions>
          <ns3:TrackPointExtension>
            <ns3:hr>139</ns3:hr>
            <ns3:cad>0</ns3:cad>
          </ns3:TrackPointExtension>
        </extensions>
      </trkpt>
      <trkpt lat="45.245628654956817626953125" lon="-71.1317431926727294921875">
        <ele>958</ele>
        <time>2026-08-22T02:30:56.000Z</time>
        <extensions>
          <ns3:TrackPointExtension>
            <ns3:hr>139</ns3:hr>
            <ns3:cad>0</ns3:cad>
          </ns3:TrackPointExtension>
        </extensions>
      </trkpt>
      <trkpt lat="45.24562655948102474212646484375" lon="-71.13174327649176120758056640625">
        <ele>958.20001220703125</ele>
        <time>2026-08-22T02:30:57.000Z</time>
        <extensions>
          <ns3:TrackPointExtension>
            <ns3:hr>138</ns3:hr>
            <ns3:cad>0</ns3:cad>
          </ns3:TrackPointExtension>
        </extensions>
      </trkpt>
      <trkpt lat="45.2456204406917095184326171875" lon="-71.13175651989877223968505859375">
        <ele>958.4000244140625</ele>
        <time>2026-08-22T02:30:58.000Z</time>
        <extensions>
          <ns3:TrackPointExtension>
            <ns3:hr>137</ns3:hr>
            <ns3:cad>0</ns3:cad>
          </ns3:TrackPointExtension>
        </extensions>
      </trkpt>
      <trkpt lat="45.24561365135014057159423828125" lon="-71.1317728646099567413330078125">
        <ele>958.5999755859375</ele>
        <time>2026-08-22T02:30:59.000Z</time>
        <extensions>
          <ns3:TrackPointExtension>
            <ns3:hr>137</ns3:hr>
            <ns3:cad>0</ns3:cad>
          </ns3:TrackPointExtension>
        </extensions>
      </trkpt>
      <trkpt lat="45.24560946039855480194091796875" lon="-71.1317745409905910491943359375">
        <ele>958.79998779296875</ele>
        <time>2026-08-22T02:31:00.000Z</time>
        <extensions>
          <ns3:TrackPointExtension>
            <ns3:hr>138</ns3:hr>
            <ns3:cad>0</ns3:cad>
          </ns3:TrackPointExtension>
        </extensions>
      </trkpt>
      <trkpt lat="45.2456043474376201629638671875" lon="-71.13179055042564868927001953125">
        <ele>959</ele>
        <time>2026-08-22T02:31:01.000Z</time>
        <extensions>
          <ns3:TrackPointExtension>
            <ns3:hr>137</ns3:hr>
            <ns3:cad>0</ns3:cad>
          </ns3:TrackPointExtension>
        </extensions>
      </trkpt>
      <trkpt lat="45.24560250341892242431640625" lon="-71.13179750740528106689453125">
        <ele>959</ele>
        <time>2026-08-22T02:31:02.000Z</time>
        <extensions>
          <ns3:TrackPointExtension>
            <ns3:hr>137</ns3:hr>
            <ns3:cad>0</ns3:cad>
          </ns3:TrackPointExtension>
        </extensions>
      </trkpt>
      <trkpt lat="45.2456031739711761474609375" lon="-71.131806559860706329345703125">
        <ele>959.20001220703125</ele>
        <time>2026-08-22T02:31:03.000Z</time>
        <extensions>
          <ns3:TrackPointExtension>
            <ns3:hr>138</ns3:hr>
            <ns3:cad>0</ns3:cad>
          </ns3:TrackPointExtension>
        </extensions>
      </trkpt>
      <trkpt lat="45.24559789337217807769775390625" lon="-71.13182575441896915435791015625">
        <ele>959.5999755859375</ele>
        <time>2026-08-22T02:31:04.000Z</time>
        <extensions>
          <ns3:TrackPointExtension>
            <ns3:hr>138</ns3:hr>
            <ns3:cad>0</ns3:cad>
          </ns3:TrackPointExtension>
        </extensions>
      </trkpt>
      <trkpt lat="45.2455966360867023468017578125" lon="-71.13183195702731609344482421875">
        <ele>959.79998779296875</ele>
        <time>2026-08-22T02:31:05.000Z</time>
        <extensions>
          <ns3:TrackPointExtension>
            <ns3:hr>138</ns3:hr>
            <ns3:cad>0</ns3:cad>
          </ns3:TrackPointExtension>
        </extensions>
      </trkpt>
      <trkpt lat="45.24559286423027515411376953125" lon="-71.13184168003499507904052734375">
        <ele>960</ele>
        <time>2026-08-22T02:31:06.000Z</time>
        <extensions>
          <ns3:TrackPointExtension>
            <ns3:hr>138</ns3:hr>
            <ns3:cad>0</ns3:cad>
          </ns3:TrackPointExtension>
        </extensions>
      </trkpt>
      <trkpt lat="45.245588757097721099853515625" lon="-71.13184369169175624847412109375">
        <ele>960.20001220703125</ele>
        <time>2026-08-22T02:31:07.000Z</time>
        <extensions>
          <ns3:TrackPointExtension>
            <ns3:hr>138</ns3:hr>
            <ns3:cad>0</ns3:cad>
          </ns3:TrackPointExtension>
        </extensions>
      </trkpt>
      <trkpt lat="45.2455835603177547454833984375" lon="-71.1318546719849109649658203125">
        <ele>960.4000244140625</ele>
        <time>2026-08-22T02:31:08.000Z</time>
        <extensions>
          <ns3:TrackPointExtension>
            <ns3:hr>138</ns3:hr>
            <ns3:cad>0</ns3:cad>
          </ns3:TrackPointExtension>
        </extensions>
      </trkpt>
      <trkpt lat="45.245576687157154083251953125" lon="-71.13186799921095371246337890625">
        <ele>960.5999755859375</ele>
        <time>2026-08-22T02:31:09.000Z</time>
        <extensions>
          <ns3:TrackPointExtension>
            <ns3:hr>138</ns3:hr>
            <ns3:cad>0</ns3:cad>
          </ns3:TrackPointExtension>
        </extensions>
      </trkpt>
      <trkpt lat="45.2455849014222621917724609375" lon="-71.13186397589743137359619140625">
        <ele>960.79998779296875</ele>
        <time>2026-08-22T02:31:10.000Z</time>
        <extensions>
          <ns3:TrackPointExtension>
            <ns3:hr>138</ns3:hr>
            <ns3:cad>0</ns3:cad>
          </ns3:TrackPointExtension>
        </extensions>
      </trkpt>
      <trkpt lat="45.2455869130790233612060546875" lon="-71.1318711005151271820068359375">
        <ele>961</ele>
        <time>2026-08-22T02:31:11.000Z</time>
        <extensions>
          <ns3:TrackPointExtension>
            <ns3:hr>139</ns3:hr>
            <ns3:cad>0</ns3:cad>
          </ns3:TrackPointExtension>
        </extensions>
      </trkpt>
      <trkpt lat="45.245583057403564453125" lon="-71.13188174553215503692626953125">
        <ele>961.20001220703125</ele>
        <time>2026-08-22T02:31:12.000Z</time>
        <extensions>
          <ns3:TrackPointExtension>
            <ns3:hr>139</ns3:hr>
            <ns3:cad>0</ns3:cad>
          </ns3:TrackPointExtension>
        </extensions>
      </trkpt>
      <trkpt lat="45.24558062665164470672607421875" lon="-71.1318808235228061676025390625">
        <ele>961.4000244140625</ele>
        <time>2026-08-22T02:31:13.000Z</time>
        <extensions>
          <ns3:TrackPointExtension>
            <ns3:hr>139</ns3:hr>
            <ns3:cad>0</ns3:cad>
          </ns3:TrackPointExtension>
        </extensions>
      </trkpt>
      <trkpt lat="45.2455768547952175140380859375" lon="-71.13187906332314014434814453125">
        <ele>961.79998779296875</ele>
        <time>2026-08-22T02:31:14.000Z</time>
        <extensions>
          <ns3:TrackPointExtension>
            <ns3:hr>139</ns3:hr>
            <ns3:cad>0</ns3:cad>
          </ns3:TrackPointExtension>
        </extensions>
      </trkpt>
      <trkpt lat="45.24557157419621944427490234375" lon="-71.13187671639025211334228515625">
        <ele>962</ele>
        <time>2026-08-22T02:31:15.000Z</time>
        <extensions>
          <ns3:TrackPointExtension>
            <ns3:hr>139</ns3:hr>
            <ns3:cad>0</ns3:cad>
          </ns3:TrackPointExtension>
        </extensions>
      </trkpt>
      <trkpt lat="45.24556738324463367462158203125" lon="-71.131876967847347259521484375">
        <ele>962</ele>
        <time>2026-08-22T02:31:16.000Z</time>
        <extensions>
          <ns3:TrackPointExtension>
            <ns3:hr>140</ns3:hr>
            <ns3:cad>0</ns3:cad>
          </ns3:TrackPointExtension>
        </extensions>
      </trkpt>
      <trkpt lat="45.24555581621825695037841796875" lon="-71.13188828341662883758544921875">
        <ele>962.4000244140625</ele>
        <time>2026-08-22T02:31:17.000Z</time>
        <extensions>
          <ns3:TrackPointExtension>
            <ns3:hr>140</ns3:hr>
            <ns3:cad>0</ns3:cad>
          </ns3:TrackPointExtension>
        </extensions>
      </trkpt>
      <trkpt lat="45.24554961360991001129150390625" lon="-71.13189130090177059173583984375">
        <ele>962.5999755859375</ele>
        <time>2026-08-22T02:31:18.000Z</time>
        <extensions>
          <ns3:TrackPointExtension>
            <ns3:hr>140</ns3:hr>
            <ns3:cad>0</ns3:cad>
          </ns3:TrackPointExtension>
        </extensions>
      </trkpt>
      <trkpt lat="45.245539136230945587158203125" lon="-71.1318975873291492462158203125">
        <ele>962.79998779296875</ele>
        <time>2026-08-22T02:31:19.000Z</time>
        <extensions>
          <ns3:TrackPointExtension>
            <ns3:hr>140</ns3:hr>
            <ns3:cad>0</ns3:cad>
          </ns3:TrackPointExtension>
        </extensions>
      </trkpt>
      <trkpt lat="45.2455294132232666015625" lon="-71.13189884461462497711181640625">
        <ele>962.79998779296875</ele>
        <time>2026-08-22T02:31:20.000Z</time>
        <extensions>
          <ns3:TrackPointExtension>
            <ns3:hr>140</ns3:hr>
            <ns3:cad>0</ns3:cad>
          </ns3:TrackPointExtension>
        </extensions>
      </trkpt>
      <trkpt lat="45.24553150869905948638916015625" lon="-71.131906472146511077880859375">
        <ele>963</ele>
        <time>2026-08-22T02:31:21.000Z</time>
        <extensions>
          <ns3:TrackPointExtension>
            <ns3:hr>140</ns3:hr>
            <ns3:cad>0</ns3:cad>
          </ns3:TrackPointExtension>
        </extensions>
      </trkpt>
      <trkpt lat="45.245522372424602508544921875" lon="-71.1319197155535221099853515625">
        <ele>963.20001220703125</ele>
        <time>2026-08-22T02:31:22.000Z</time>
        <extensions>
          <ns3:TrackPointExtension>
            <ns3:hr>140</ns3:hr>
            <ns3:cad>0</ns3:cad>
          </ns3:TrackPointExtension>
        </extensions>
      </trkpt>
      <trkpt lat="45.24552077986299991607666015625" lon="-71.13191560842096805572509765625">
        <ele>963.4000244140625</ele>
        <time>2026-08-22T02:31:23.000Z</time>
        <extensions>
          <ns3:TrackPointExtension>
            <ns3:hr>140</ns3:hr>
            <ns3:cad>0</ns3:cad>
          </ns3:TrackPointExtension>
        </extensions>
      </trkpt>
      <trkpt lat="45.24551558308303356170654296875" lon="-71.1319190450012683868408203125">
        <ele>963.5999755859375</ele>
        <time>2026-08-22T02:31:24.000Z</time>
        <extensions>
          <ns3:TrackPointExtension>
            <ns3:hr>140</ns3:hr>
            <ns3:cad>0</ns3:cad>
          </ns3:TrackPointExtension>
        </extensions>
      </trkpt>
      <trkpt lat="45.24551189504563808441162109375" lon="-71.13192013464868068695068359375">
        <ele>963.79998779296875</ele>
        <time>2026-08-22T02:31:25.000Z</time>
        <extensions>
          <ns3:TrackPointExtension>
            <ns3:hr>140</ns3:hr>
            <ns3:cad>0</ns3:cad>
          </ns3:TrackPointExtension>
        </extensions>
      </trkpt>
      <trkpt lat="45.24550451897084712982177734375" lon="-71.13192331977188587188720703125">
        <ele>964</ele>
        <time>2026-08-22T02:31:26.000Z</time>
        <extensions>
          <ns3:TrackPointExtension>
            <ns3:hr>140</ns3:hr>
            <ns3:cad>0</ns3:cad>
          </ns3:TrackPointExtension>
        </extensions>
      </trkpt>
      <trkpt lat="45.24550192058086395263671875" lon="-71.1319242417812347412109375">
        <ele>964.20001220703125</ele>
        <time>2026-08-22T02:31:27.000Z</time>
        <extensions>
          <ns3:TrackPointExtension>
            <ns3:hr>141</ns3:hr>
            <ns3:cad>0</ns3:cad>
          </ns3:TrackPointExtension>
        </extensions>
      </trkpt>
      <trkpt lat="45.2454933710396289825439453125" lon="-71.13193388096988201141357421875">
        <ele>964.4000244140625</ele>
        <time>2026-08-22T02:31:28.000Z</time>
        <extensions>
          <ns3:TrackPointExtension>
            <ns3:hr>141</ns3:hr>
            <ns3:cad>0</ns3:cad>
          </ns3:TrackPointExtension>
        </extensions>
      </trkpt>
      <trkpt lat="45.2454906888306140899658203125" lon="-71.131933294236660003662109375">
        <ele>964.5999755859375</ele>
        <time>2026-08-22T02:31:29.000Z</time>
        <extensions>
          <ns3:TrackPointExtension>
            <ns3:hr>141</ns3:hr>
            <ns3:cad>0</ns3:cad>
          </ns3:TrackPointExtension>
        </extensions>
      </trkpt>
      <trkpt lat="45.24548725225031375885009765625" lon="-71.13193564116954803466796875">
        <ele>964.79998779296875</ele>
        <time>2026-08-22T02:31:30.000Z</time>
        <extensions>
          <ns3:TrackPointExtension>
            <ns3:hr>141</ns3:hr>
            <ns3:cad>0</ns3:cad>
          </ns3:TrackPointExtension>
        </extensions>
      </trkpt>
      <trkpt lat="45.245479457080364227294921875" lon="-71.13194226287305355072021484375">
        <ele>965</ele>
        <time>2026-08-22T02:31:31.000Z</time>
        <extensions>
          <ns3:TrackPointExtension>
            <ns3:hr>141</ns3:hr>
            <ns3:cad>0</ns3:cad>
          </ns3:TrackPointExtension>
        </extensions>
      </trkpt>
      <trkpt lat="45.24547182954847812652587890625" lon="-71.13195039331912994384765625">
        <ele>965.20001220703125</ele>
        <time>2026-08-22T02:31:32.000Z</time>
        <extensions>
          <ns3:TrackPointExtension>
            <ns3:hr>141</ns3:hr>
            <ns3:cad>0</ns3:cad>
          </ns3:TrackPointExtension>
        </extensions>
      </trkpt>
      <trkpt lat="45.2454682253301143646240234375" lon="-71.13194963894784450531005859375">
        <ele>965.4000244140625</ele>
        <time>2026-08-22T02:31:33.000Z</time>
        <extensions>
          <ns3:TrackPointExtension>
            <ns3:hr>142</ns3:hr>
            <ns3:cad>0</ns3:cad>
          </ns3:TrackPointExtension>
        </extensions>
      </trkpt>
      <trkpt lat="45.2454648725688457489013671875" lon="-71.1319572664797306060791015625">
        <ele>965.5999755859375</ele>
        <time>2026-08-22T02:31:34.000Z</time>
        <extensions>
          <ns3:TrackPointExtension>
            <ns3:hr>142</ns3:hr>
            <ns3:cad>0</ns3:cad>
          </ns3:TrackPointExtension>
        </extensions>
      </trkpt>
      <trkpt lat="45.24546277709305286407470703125" lon="-71.1319596134126186370849609375">
        <ele>965.79998779296875</ele>
        <time>2026-08-22T02:31:35.000Z</time>
        <extensions>
          <ns3:TrackPointExtension>
            <ns3:hr>142</ns3:hr>
            <ns3:cad>0</ns3:cad>
          </ns3:TrackPointExtension>
        </extensions>
      </trkpt>
      <trkpt lat="45.24546043016016483306884765625" lon="-71.13196304999291896820068359375">
        <ele>966</ele>
        <time>2026-08-22T02:31:36.000Z</time>
        <extensions>
          <ns3:TrackPointExtension>
            <ns3:hr>143</ns3:hr>
            <ns3:cad>0</ns3:cad>
          </ns3:TrackPointExtension>
        </extensions>
      </trkpt>
      <trkpt lat="45.2454564906656742095947265625" lon="-71.13197361119091510772705078125">
        <ele>966</ele>
        <time>2026-08-22T02:31:37.000Z</time>
        <extensions>
          <ns3:TrackPointExtension>
            <ns3:hr>143</ns3:hr>
            <ns3:cad>0</ns3:cad>
          </ns3:TrackPointExtension>
        </extensions>
      </trkpt>
      <trkpt lat="45.2454524673521518707275390625" lon="-71.1319817416369915008544921875">
        <ele>966.20001220703125</ele>
        <time>2026-08-22T02:31:38.000Z</time>
        <extensions>
          <ns3:TrackPointExtension>
            <ns3:hr>143</ns3:hr>
            <ns3:cad>0</ns3:cad>
          </ns3:TrackPointExtension>
        </extensions>
      </trkpt>
      <trkpt lat="45.24545053951442241668701171875" lon="-71.13197864033281803131103515625">
        <ele>966.4000244140625</ele>
        <time>2026-08-22T02:31:39.000Z</time>
        <extensions>
          <ns3:TrackPointExtension>
            <ns3:hr>143</ns3:hr>
            <ns3:cad>0</ns3:cad>
          </ns3:TrackPointExtension>
        </extensions>
      </trkpt>
      <trkpt lat="45.24544400162994861602783203125" lon="-71.1319850943982601165771484375">
        <ele>966.5999755859375</ele>
        <time>2026-08-22T02:31:40.000Z</time>
        <extensions>
          <ns3:TrackPointExtension>
            <ns3:hr>144</ns3:hr>
            <ns3:cad>0</ns3:cad>
          </ns3:TrackPointExtension>
        </extensions>
      </trkpt>
      <trkpt lat="45.2454417385160923004150390625" lon="-71.131984926760196685791015625">
        <ele>966.79998779296875</ele>
        <time>2026-08-22T02:31:41.000Z</time>
        <extensions>
          <ns3:TrackPointExtension>
            <ns3:hr>144</ns3:hr>
            <ns3:cad>0</ns3:cad>
          </ns3:TrackPointExtension>
        </extensions>
      </trkpt>
      <trkpt lat="45.24543478153645992279052734375" lon="-71.131988950073719024658203125">
        <ele>967</ele>
        <time>2026-08-22T02:31:42.000Z</time>
        <extensions>
          <ns3:TrackPointExtension>
            <ns3:hr>144</ns3:hr>
            <ns3:cad>0</ns3:cad>
          </ns3:TrackPointExtension>
        </extensions>
      </trkpt>
      <trkpt lat="45.245432518422603607177734375" lon="-71.13199406303465366363525390625">
        <ele>967.20001220703125</ele>
        <time>2026-08-22T02:31:43.000Z</time>
        <extensions>
          <ns3:TrackPointExtension>
            <ns3:hr>144</ns3:hr>
            <ns3:cad>0</ns3:cad>
          </ns3:TrackPointExtension>
        </extensions>
      </trkpt>
      <trkpt lat="45.24542807601392269134521484375" lon="-71.1319991759955883026123046875">
        <ele>967.20001220703125</ele>
        <time>2026-08-22T02:31:44.000Z</time>
        <extensions>
          <ns3:TrackPointExtension>
            <ns3:hr>144</ns3:hr>
            <ns3:cad>0</ns3:cad>
          </ns3:TrackPointExtension>
        </extensions>
      </trkpt>
      <trkpt lat="45.24542103521525859832763671875" lon="-71.13200269639492034912109375">
        <ele>967.4000244140625</ele>
        <time>2026-08-22T02:31:45.000Z</time>
        <extensions>
          <ns3:TrackPointExtension>
            <ns3:hr>144</ns3:hr>
            <ns3:cad>0</ns3:cad>
          </ns3:TrackPointExtension>
        </extensions>
      </trkpt>
      <trkpt lat="45.24541818536818027496337890625" lon="-71.1320048756897449493408203125">
        <ele>967.5999755859375</ele>
        <time>2026-08-22T02:31:46.000Z</time>
        <extensions>
          <ns3:TrackPointExtension>
            <ns3:hr>143</ns3:hr>
            <ns3:cad>0</ns3:cad>
          </ns3:TrackPointExtension>
        </extensions>
      </trkpt>
      <trkpt lat="45.245417766273021697998046875" lon="-71.13201350905001163482666015625">
        <ele>967.79998779296875</ele>
        <time>2026-08-22T02:31:47.000Z</time>
        <extensions>
          <ns3:TrackPointExtension>
            <ns3:hr>143</ns3:hr>
            <ns3:cad>0</ns3:cad>
          </ns3:TrackPointExtension>
        </extensions>
      </trkpt>
      <trkpt lat="45.2454100549221038818359375" lon="-71.13202708773314952850341796875">
        <ele>968</ele>
        <time>2026-08-22T02:31:48.000Z</time>
        <extensions>
          <ns3:TrackPointExtension>
            <ns3:hr>143</ns3:hr>
            <ns3:cad>0</ns3:cad>
          </ns3:TrackPointExtension>
        </extensions>
      </trkpt>
      <trkpt lat="45.24541013874113559722900390625" lon="-71.13203982822597026824951171875">
        <ele>968.20001220703125</ele>
        <time>2026-08-22T02:31:49.000Z</time>
        <extensions>
          <ns3:TrackPointExtension>
            <ns3:hr>144</ns3:hr>
            <ns3:cad>0</ns3:cad>
          </ns3:TrackPointExtension>
        </extensions>
      </trkpt>
      <trkpt lat="45.24541131220757961273193359375" lon="-71.132046617567539215087890625">
        <ele>968.4000244140625</ele>
        <time>2026-08-22T02:31:50.000Z</time>
        <extensions>
          <ns3:TrackPointExtension>
            <ns3:hr>144</ns3:hr>
            <ns3:cad>0</ns3:cad>
          </ns3:TrackPointExtension>
        </extensions>
      </trkpt>
      <trkpt lat="45.245401673018932342529296875" lon="-71.13205944187939167022705078125">
        <ele>968.5999755859375</ele>
        <time>2026-08-22T02:31:51.000Z</time>
        <extensions>
          <ns3:TrackPointExtension>
            <ns3:hr>144</ns3:hr>
            <ns3:cad>0</ns3:cad>
          </ns3:TrackPointExtension>
        </extensions>
      </trkpt>
      <trkpt lat="45.24539572186768054962158203125" lon="-71.13206497393548488616943359375">
        <ele>968.79998779296875</ele>
        <time>2026-08-22T02:31:52.000Z</time>
        <extensions>
          <ns3:TrackPointExtension>
            <ns3:hr>144</ns3:hr>
            <ns3:cad>0</ns3:cad>
          </ns3:TrackPointExtension>
        </extensions>
      </trkpt>
      <trkpt lat="45.24539471603929996490478515625" lon="-71.132068075239658355712890625">
        <ele>969</ele>
        <time>2026-08-22T02:31:53.000Z</time>
        <extensions>
          <ns3:TrackPointExtension>
            <ns3:hr>144</ns3:hr>
            <ns3:cad>0</ns3:cad>
          </ns3:TrackPointExtension>
        </extensions>
      </trkpt>
      <trkpt lat="45.24539723061025142669677734375" lon="-71.132068075239658355712890625">
        <ele>969.20001220703125</ele>
        <time>2026-08-22T02:31:54.000Z</time>
        <extensions>
          <ns3:TrackPointExtension>
            <ns3:hr>143</ns3:hr>
            <ns3:cad>0</ns3:cad>
          </ns3:TrackPointExtension>
        </extensions>
      </trkpt>
      <trkpt lat="45.24539018981158733367919921875" lon="-71.13207385875284671783447265625">
        <ele>969.4000244140625</ele>
        <time>2026-08-22T02:31:55.000Z</time>
        <extensions>
          <ns3:TrackPointExtension>
            <ns3:hr>143</ns3:hr>
            <ns3:cad>0</ns3:cad>
          </ns3:TrackPointExtension>
        </extensions>
      </trkpt>
      <trkpt lat="45.24538926780223846435546875" lon="-71.132078468799591064453125">
        <ele>969.5999755859375</ele>
        <time>2026-08-22T02:31:56.000Z</time>
        <extensions>
          <ns3:TrackPointExtension>
            <ns3:hr>142</ns3:hr>
            <ns3:cad>0</ns3:cad>
          </ns3:TrackPointExtension>
        </extensions>
      </trkpt>
      <trkpt lat="45.245392955839633941650390625" lon="-71.13207905553281307220458984375">
        <ele>969.79998779296875</ele>
        <time>2026-08-22T02:31:57.000Z</time>
        <extensions>
          <ns3:TrackPointExtension>
            <ns3:hr>142</ns3:hr>
            <ns3:cad>0</ns3:cad>
          </ns3:TrackPointExtension>
        </extensions>
      </trkpt>
      <trkpt lat="45.24538750760257244110107421875" lon="-71.13208861090242862701416015625">
        <ele>970</ele>
        <time>2026-08-22T02:31:58.000Z</time>
        <extensions>
          <ns3:TrackPointExtension>
            <ns3:hr>142</ns3:hr>
            <ns3:cad>0</ns3:cad>
          </ns3:TrackPointExtension>
        </extensions>
      </trkpt>
      <trkpt lat="45.24537845514714717864990234375" lon="-71.13209632225334644317626953125">
        <ele>970.20001220703125</ele>
        <time>2026-08-22T02:31:59.000Z</time>
        <extensions>
          <ns3:TrackPointExtension>
            <ns3:hr>141</ns3:hr>
            <ns3:cad>0</ns3:cad>
          </ns3:TrackPointExtension>
        </extensions>
      </trkpt>
      <trkpt lat="45.2453743480145931243896484375" lon="-71.13209682516753673553466796875">
        <ele>970.5999755859375</ele>
        <time>2026-08-22T02:32:00.000Z</time>
        <extensions>
          <ns3:TrackPointExtension>
            <ns3:hr>142</ns3:hr>
            <ns3:cad>0</ns3:cad>
          </ns3:TrackPointExtension>
        </extensions>
      </trkpt>
      <trkpt lat="45.24537585675716400146484375" lon="-71.1320997588336467742919921875">
        <ele>970.79998779296875</ele>
        <time>2026-08-22T02:32:01.000Z</time>
        <extensions>
          <ns3:TrackPointExtension>
            <ns3:hr>142</ns3:hr>
            <ns3:cad>0</ns3:cad>
          </ns3:TrackPointExtension>
        </extensions>
      </trkpt>
      <trkpt lat="45.24537325836718082427978515625" lon="-71.13210596144199371337890625">
        <ele>971</ele>
        <time>2026-08-22T02:32:02.000Z</time>
        <extensions>
          <ns3:TrackPointExtension>
            <ns3:hr>142</ns3:hr>
            <ns3:cad>0</ns3:cad>
          </ns3:TrackPointExtension>
        </extensions>
      </trkpt>
      <trkpt lat="45.2453696541488170623779296875" lon="-71.1321094818413257598876953125">
        <ele>971.20001220703125</ele>
        <time>2026-08-22T02:32:03.000Z</time>
        <extensions>
          <ns3:TrackPointExtension>
            <ns3:hr>142</ns3:hr>
            <ns3:cad>0</ns3:cad>
          </ns3:TrackPointExtension>
        </extensions>
      </trkpt>
      <trkpt lat="45.24536839686334133148193359375" lon="-71.1321061290800571441650390625">
        <ele>971.4000244140625</ele>
        <time>2026-08-22T02:32:04.000Z</time>
        <extensions>
          <ns3:TrackPointExtension>
            <ns3:hr>142</ns3:hr>
            <ns3:cad>0</ns3:cad>
          </ns3:TrackPointExtension>
        </extensions>
      </trkpt>
      <trkpt lat="45.245357416570186614990234375" lon="-71.1321114934980869293212890625">
        <ele>971.5999755859375</ele>
        <time>2026-08-22T02:32:05.000Z</time>
        <extensions>
          <ns3:TrackPointExtension>
            <ns3:hr>142</ns3:hr>
            <ns3:cad>0</ns3:cad>
          </ns3:TrackPointExtension>
        </extensions>
      </trkpt>
      <trkpt lat="45.24535146541893482208251953125" lon="-71.13211895339190959930419921875">
        <ele>971.79998779296875</ele>
        <time>2026-08-22T02:32:06.000Z</time>
        <extensions>
          <ns3:TrackPointExtension>
            <ns3:hr>142</ns3:hr>
            <ns3:cad>0</ns3:cad>
          </ns3:TrackPointExtension>
        </extensions>
      </trkpt>
      <trkpt lat="45.2453512139618396759033203125" lon="-71.13211727701127529144287109375">
        <ele>972</ele>
        <time>2026-08-22T02:32:07.000Z</time>
        <extensions>
          <ns3:TrackPointExtension>
            <ns3:hr>142</ns3:hr>
            <ns3:cad>0</ns3:cad>
          </ns3:TrackPointExtension>
        </extensions>
      </trkpt>
      <trkpt lat="45.24534693919122219085693359375" lon="-71.13211459480226039886474609375">
        <ele>972.20001220703125</ele>
        <time>2026-08-22T02:32:08.000Z</time>
        <extensions>
          <ns3:TrackPointExtension>
            <ns3:hr>142</ns3:hr>
            <ns3:cad>79</ns3:cad>
          </ns3:TrackPointExtension>
        </extensions>
      </trkpt>
      <trkpt lat="45.2453398145735263824462890625" lon="-71.13211710937321186065673828125">
        <ele>972.4000244140625</ele>
        <time>2026-08-22T02:32:09.000Z</time>
        <extensions>
          <ns3:TrackPointExtension>
            <ns3:hr>141</ns3:hr>
            <ns3:cad>79</ns3:cad>
          </ns3:TrackPointExtension>
        </extensions>
      </trkpt>
      <trkpt lat="45.24533671326935291290283203125" lon="-71.132119707763195037841796875">
        <ele>972.5999755859375</ele>
        <time>2026-08-22T02:32:10.000Z</time>
        <extensions>
          <ns3:TrackPointExtension>
            <ns3:hr>141</ns3:hr>
            <ns3:cad>79</ns3:cad>
          </ns3:TrackPointExtension>
        </extensions>
      </trkpt>
      <trkpt lat="45.24533067829906940460205078125" lon="-71.132125742733478546142578125">
        <ele>972.79998779296875</ele>
        <time>2026-08-22T02:32:11.000Z</time>
        <extensions>
          <ns3:TrackPointExtension>
            <ns3:hr>142</ns3:hr>
            <ns3:cad>0</ns3:cad>
          </ns3:TrackPointExtension>
        </extensions>
      </trkpt>
      <trkpt lat="45.24533185176551342010498046875" lon="-71.13212817348539829254150390625">
        <ele>972.79998779296875</ele>
        <time>2026-08-22T02:32:12.000Z</time>
        <extensions>
          <ns3:TrackPointExtension>
            <ns3:hr>142</ns3:hr>
            <ns3:cad>0</ns3:cad>
          </ns3:TrackPointExtension>
        </extensions>
      </trkpt>
      <trkpt lat="45.24532447569072246551513671875" lon="-71.13213278353214263916015625">
        <ele>973</ele>
        <time>2026-08-22T02:32:13.000Z</time>
        <extensions>
          <ns3:TrackPointExtension>
            <ns3:hr>142</ns3:hr>
            <ns3:cad>0</ns3:cad>
          </ns3:TrackPointExtension>
        </extensions>
      </trkpt>
      <trkpt lat="45.24531978182494640350341796875" lon="-71.13213605247437953948974609375">
        <ele>973.20001220703125</ele>
        <time>2026-08-22T02:32:14.000Z</time>
        <extensions>
          <ns3:TrackPointExtension>
            <ns3:hr>142</ns3:hr>
            <ns3:cad>0</ns3:cad>
          </ns3:TrackPointExtension>
        </extensions>
      </trkpt>
      <trkpt lat="45.245313830673694610595703125" lon="-71.13214141689240932464599609375">
        <ele>973.20001220703125</ele>
        <time>2026-08-22T02:32:15.000Z</time>
        <extensions>
          <ns3:TrackPointExtension>
            <ns3:hr>142</ns3:hr>
            <ns3:cad>0</ns3:cad>
          </ns3:TrackPointExtension>
        </extensions>
      </trkpt>
      <trkpt lat="45.24530989117920398712158203125" lon="-71.1321396566927433013916015625">
        <ele>973.4000244140625</ele>
        <time>2026-08-22T02:32:16.000Z</time>
        <extensions>
          <ns3:TrackPointExtension>
            <ns3:hr>142</ns3:hr>
            <ns3:cad>0</ns3:cad>
          </ns3:TrackPointExtension>
        </extensions>
      </trkpt>
      <trkpt lat="45.2453042753040790557861328125" lon="-71.1321495473384857177734375">
        <ele>973.5999755859375</ele>
        <time>2026-08-22T02:32:17.000Z</time>
        <extensions>
          <ns3:TrackPointExtension>
            <ns3:hr>141</ns3:hr>
            <ns3:cad>0</ns3:cad>
          </ns3:TrackPointExtension>
        </extensions>
      </trkpt>
      <trkpt lat="45.24530301801860332489013671875" lon="-71.13215398974716663360595703125">
        <ele>973.79998779296875</ele>
        <time>2026-08-22T02:32:18.000Z</time>
        <extensions>
          <ns3:TrackPointExtension>
            <ns3:hr>142</ns3:hr>
            <ns3:cad>0</ns3:cad>
          </ns3:TrackPointExtension>
        </extensions>
      </trkpt>
      <trkpt lat="45.24530603550374507904052734375" lon="-71.132158935070037841796875">
        <ele>974</ele>
        <time>2026-08-22T02:32:19.000Z</time>
        <extensions>
          <ns3:TrackPointExtension>
            <ns3:hr>142</ns3:hr>
            <ns3:cad>0</ns3:cad>
          </ns3:TrackPointExtension>
        </extensions>
      </trkpt>
      <trkpt lat="45.245297066867351531982421875" lon="-71.13216572441160678863525390625">
        <ele>974.20001220703125</ele>
        <time>2026-08-22T02:32:20.000Z</time>
        <extensions>
          <ns3:TrackPointExtension>
            <ns3:hr>142</ns3:hr>
            <ns3:cad>0</ns3:cad>
          </ns3:TrackPointExtension>
        </extensions>
      </trkpt>
      <trkpt lat="45.2452905289828777313232421875" lon="-71.1321684904396533966064453125">
        <ele>974.4000244140625</ele>
        <time>2026-08-22T02:32:21.000Z</time>
        <extensions>
          <ns3:TrackPointExtension>
            <ns3:hr>141</ns3:hr>
            <ns3:cad>0</ns3:cad>
          </ns3:TrackPointExtension>
        </extensions>
      </trkpt>
      <trkpt lat="45.2452898584306240081787109375" lon="-71.13217058591544628143310546875">
        <ele>974.5999755859375</ele>
        <time>2026-08-22T02:32:22.000Z</time>
        <extensions>
          <ns3:TrackPointExtension>
            <ns3:hr>141</ns3:hr>
            <ns3:cad>0</ns3:cad>
          </ns3:TrackPointExtension>
        </extensions>
      </trkpt>
      <trkpt lat="45.245284326374530792236328125" lon="-71.1321748606860637664794921875">
        <ele>974.79998779296875</ele>
        <time>2026-08-22T02:32:23.000Z</time>
        <extensions>
          <ns3:TrackPointExtension>
            <ns3:hr>141</ns3:hr>
            <ns3:cad>0</ns3:cad>
          </ns3:TrackPointExtension>
        </extensions>
      </trkpt>
      <trkpt lat="45.2452761121094226837158203125" lon="-71.13218081183731555938720703125">
        <ele>975</ele>
        <time>2026-08-22T02:32:24.000Z</time>
        <extensions>
          <ns3:TrackPointExtension>
            <ns3:hr>141</ns3:hr>
            <ns3:cad>0</ns3:cad>
          </ns3:TrackPointExtension>
        </extensions>
      </trkpt>
      <trkpt lat="45.2452761121094226837158203125" lon="-71.1321822367608547210693359375">
        <ele>975.20001220703125</ele>
        <time>2026-08-22T02:32:25.000Z</time>
        <extensions>
          <ns3:TrackPointExtension>
            <ns3:hr>141</ns3:hr>
            <ns3:cad>0</ns3:cad>
          </ns3:TrackPointExtension>
        </extensions>
      </trkpt>
      <trkpt lat="45.2452705800533294677734375" lon="-71.1321862600743770599365234375">
        <ele>975.20001220703125</ele>
        <time>2026-08-22T02:32:26.000Z</time>
        <extensions>
          <ns3:TrackPointExtension>
            <ns3:hr>141</ns3:hr>
            <ns3:cad>0</ns3:cad>
          </ns3:TrackPointExtension>
        </extensions>
      </trkpt>
      <trkpt lat="45.24526395834982395172119140625" lon="-71.1321929655969142913818359375">
        <ele>975.4000244140625</ele>
        <time>2026-08-22T02:32:27.000Z</time>
        <extensions>
          <ns3:TrackPointExtension>
            <ns3:hr>141</ns3:hr>
            <ns3:cad>0</ns3:cad>
          </ns3:TrackPointExtension>
        </extensions>
      </trkpt>
      <trkpt lat="45.24526127614080905914306640625" lon="-71.132196150720119476318359375">
        <ele>975.5999755859375</ele>
        <time>2026-08-22T02:32:28.000Z</time>
        <extensions>
          <ns3:TrackPointExtension>
            <ns3:hr>142</ns3:hr>
            <ns3:cad>0</ns3:cad>
          </ns3:TrackPointExtension>
        </extensions>
      </trkpt>
      <trkpt lat="45.24525892920792102813720703125" lon="-71.1322020180523395538330078125">
        <ele>975.79998779296875</ele>
        <time>2026-08-22T02:32:29.000Z</time>
        <extensions>
          <ns3:TrackPointExtension>
            <ns3:hr>142</ns3:hr>
            <ns3:cad>0</ns3:cad>
          </ns3:TrackPointExtension>
        </extensions>
      </trkpt>
      <trkpt lat="45.2452549897134304046630859375" lon="-71.1322083882987499237060546875">
        <ele>975.79998779296875</ele>
        <time>2026-08-22T02:32:30.000Z</time>
        <extensions>
          <ns3:TrackPointExtension>
            <ns3:hr>142</ns3:hr>
            <ns3:cad>0</ns3:cad>
          </ns3:TrackPointExtension>
        </extensions>
      </trkpt>
      <trkpt lat="45.24525993503630161285400390625" lon="-71.132204532623291015625">
        <ele>976</ele>
        <time>2026-08-22T02:32:31.000Z</time>
        <extensions>
          <ns3:TrackPointExtension>
            <ns3:hr>142</ns3:hr>
            <ns3:cad>0</ns3:cad>
          </ns3:TrackPointExtension>
        </extensions>
      </trkpt>
      <trkpt lat="45.245255492627620697021484375" lon="-71.13220780156552791595458984375">
        <ele>976.20001220703125</ele>
        <time>2026-08-22T02:32:32.000Z</time>
        <extensions>
          <ns3:TrackPointExtension>
            <ns3:hr>141</ns3:hr>
            <ns3:cad>0</ns3:cad>
          </ns3:TrackPointExtension>
        </extensions>
      </trkpt>
      <trkpt lat="45.2452513016760349273681640625" lon="-71.13221450708806514739990234375">
        <ele>976.5999755859375</ele>
        <time>2026-08-22T02:32:33.000Z</time>
        <extensions>
          <ns3:TrackPointExtension>
            <ns3:hr>141</ns3:hr>
            <ns3:cad>0</ns3:cad>
          </ns3:TrackPointExtension>
        </extensions>
      </trkpt>
      <trkpt lat="45.2452449314296245574951171875" lon="-71.132223643362522125244140625">
        <ele>976.79998779296875</ele>
        <time>2026-08-22T02:32:34.000Z</time>
        <extensions>
          <ns3:TrackPointExtension>
            <ns3:hr>141</ns3:hr>
            <ns3:cad>0</ns3:cad>
          </ns3:TrackPointExtension>
        </extensions>
      </trkpt>
      <trkpt lat="45.2452410757541656494140625" lon="-71.13222054205834865570068359375">
        <ele>977</ele>
        <time>2026-08-22T02:32:35.000Z</time>
        <extensions>
          <ns3:TrackPointExtension>
            <ns3:hr>141</ns3:hr>
            <ns3:cad>0</ns3:cad>
          </ns3:TrackPointExtension>
        </extensions>
      </trkpt>
      <trkpt lat="45.245227329432964324951171875" lon="-71.13223160617053508758544921875">
        <ele>977.20001220703125</ele>
        <time>2026-08-22T02:32:36.000Z</time>
        <extensions>
          <ns3:TrackPointExtension>
            <ns3:hr>141</ns3:hr>
            <ns3:cad>0</ns3:cad>
          </ns3:TrackPointExtension>
        </extensions>
      </trkpt>
      <trkpt lat="45.2452182769775390625" lon="-71.13223529420793056488037109375">
        <ele>977.20001220703125</ele>
        <time>2026-08-22T02:32:37.000Z</time>
        <extensions>
          <ns3:TrackPointExtension>
            <ns3:hr>141</ns3:hr>
            <ns3:cad>0</ns3:cad>
          </ns3:TrackPointExtension>
        </extensions>
      </trkpt>
      <trkpt lat="45.24521433748304843902587890625" lon="-71.132237054407596588134765625">
        <ele>977.4000244140625</ele>
        <time>2026-08-22T02:32:38.000Z</time>
        <extensions>
          <ns3:TrackPointExtension>
            <ns3:hr>141</ns3:hr>
            <ns3:cad>0</ns3:cad>
          </ns3:TrackPointExtension>
        </extensions>
      </trkpt>
      <trkpt lat="45.2452164329588413238525390625" lon="-71.1322399042546749114990234375">
        <ele>977.5999755859375</ele>
        <time>2026-08-22T02:32:39.000Z</time>
        <extensions>
          <ns3:TrackPointExtension>
            <ns3:hr>141</ns3:hr>
            <ns3:cad>0</ns3:cad>
          </ns3:TrackPointExtension>
        </extensions>
      </trkpt>
      <trkpt lat="45.24521618150174617767333984375" lon="-71.13223982043564319610595703125">
        <ele>977.79998779296875</ele>
        <time>2026-08-22T02:32:40.000Z</time>
        <extensions>
          <ns3:TrackPointExtension>
            <ns3:hr>141</ns3:hr>
            <ns3:cad>0</ns3:cad>
          </ns3:TrackPointExtension>
        </extensions>
      </trkpt>
      <trkpt lat="45.24521215818822383880615234375" lon="-71.13224401138722896575927734375">
        <ele>978</ele>
        <time>2026-08-22T02:32:41.000Z</time>
        <extensions>
          <ns3:TrackPointExtension>
            <ns3:hr>141</ns3:hr>
            <ns3:cad>0</ns3:cad>
          </ns3:TrackPointExtension>
        </extensions>
      </trkpt>
      <trkpt lat="45.24520729668438434600830078125" lon="-71.13224786706268787384033203125">
        <ele>978</ele>
        <time>2026-08-22T02:32:42.000Z</time>
        <extensions>
          <ns3:TrackPointExtension>
            <ns3:hr>142</ns3:hr>
            <ns3:cad>0</ns3:cad>
          </ns3:TrackPointExtension>
        </extensions>
      </trkpt>
      <trkpt lat="45.2451993338763713836669921875" lon="-71.13225406967103481292724609375">
        <ele>978.20001220703125</ele>
        <time>2026-08-22T02:32:43.000Z</time>
        <extensions>
          <ns3:TrackPointExtension>
            <ns3:hr>142</ns3:hr>
            <ns3:cad>0</ns3:cad>
          </ns3:TrackPointExtension>
        </extensions>
      </trkpt>
      <trkpt lat="45.245189778506755828857421875" lon="-71.13225759007036685943603515625">
        <ele>978.4000244140625</ele>
        <time>2026-08-22T02:32:44.000Z</time>
        <extensions>
          <ns3:TrackPointExtension>
            <ns3:hr>142</ns3:hr>
            <ns3:cad>0</ns3:cad>
          </ns3:TrackPointExtension>
        </extensions>
      </trkpt>
      <trkpt lat="45.24518583901226520538330078125" lon="-71.1322543211281299591064453125">
        <ele>978.4000244140625</ele>
        <time>2026-08-22T02:32:45.000Z</time>
        <extensions>
          <ns3:TrackPointExtension>
            <ns3:hr>142</ns3:hr>
            <ns3:cad>0</ns3:cad>
          </ns3:TrackPointExtension>
        </extensions>
      </trkpt>
      <trkpt lat="45.2451815642416477203369140625" lon="-71.13226027227938175201416015625">
        <ele>978.5999755859375</ele>
        <time>2026-08-22T02:32:46.000Z</time>
        <extensions>
          <ns3:TrackPointExtension>
            <ns3:hr>142</ns3:hr>
            <ns3:cad>0</ns3:cad>
          </ns3:TrackPointExtension>
        </extensions>
      </trkpt>
      <trkpt lat="45.24517645128071308135986328125" lon="-71.132265217602252960205078125">
        <ele>978.79998779296875</ele>
        <time>2026-08-22T02:32:47.000Z</time>
        <extensions>
          <ns3:TrackPointExtension>
            <ns3:hr>141</ns3:hr>
            <ns3:cad>0</ns3:cad>
          </ns3:TrackPointExtension>
        </extensions>
      </trkpt>
      <trkpt lat="45.2451715059578418731689453125" lon="-71.13227083347737789154052734375">
        <ele>979</ele>
        <time>2026-08-22T02:32:48.000Z</time>
        <extensions>
          <ns3:TrackPointExtension>
            <ns3:hr>142</ns3:hr>
            <ns3:cad>0</ns3:cad>
          </ns3:TrackPointExtension>
        </extensions>
      </trkpt>
      <trkpt lat="45.24516136385500431060791015625" lon="-71.13228030502796173095703125">
        <ele>979.20001220703125</ele>
        <time>2026-08-22T02:32:49.000Z</time>
        <extensions>
          <ns3:TrackPointExtension>
            <ns3:hr>142</ns3:hr>
            <ns3:cad>0</ns3:cad>
          </ns3:TrackPointExtension>
        </extensions>
      </trkpt>
      <trkpt lat="45.24516521953046321868896484375" lon="-71.132272593677043914794921875">
        <ele>979.20001220703125</ele>
        <time>2026-08-22T02:32:50.000Z</time>
        <extensions>
          <ns3:TrackPointExtension>
            <ns3:hr>142</ns3:hr>
            <ns3:cad>0</ns3:cad>
          </ns3:TrackPointExtension>
        </extensions>
      </trkpt>
      <trkpt lat="45.24516153149306774139404296875" lon="-71.1322724260389804840087890625">
        <ele>979.4000244140625</ele>
        <time>2026-08-22T02:32:51.000Z</time>
        <extensions>
          <ns3:TrackPointExtension>
            <ns3:hr>142</ns3:hr>
            <ns3:cad>0</ns3:cad>
          </ns3:TrackPointExtension>
        </extensions>
      </trkpt>
      <trkpt lat="45.24515348486602306365966796875" lon="-71.1322809755802154541015625">
        <ele>979.5999755859375</ele>
        <time>2026-08-22T02:32:52.000Z</time>
        <extensions>
          <ns3:TrackPointExtension>
            <ns3:hr>142</ns3:hr>
            <ns3:cad>0</ns3:cad>
          </ns3:TrackPointExtension>
        </extensions>
      </trkpt>
      <trkpt lat="45.24515231139957904815673828125" lon="-71.13228256814181804656982421875">
        <ele>979.79998779296875</ele>
        <time>2026-08-22T02:32:53.000Z</time>
        <extensions>
          <ns3:TrackPointExtension>
            <ns3:hr>142</ns3:hr>
            <ns3:cad>0</ns3:cad>
          </ns3:TrackPointExtension>
        </extensions>
      </trkpt>
      <trkpt lat="45.2451466955244541168212890625" lon="-71.13229346461594104766845703125">
        <ele>980</ele>
        <time>2026-08-22T02:32:54.000Z</time>
        <extensions>
          <ns3:TrackPointExtension>
            <ns3:hr>142</ns3:hr>
            <ns3:cad>0</ns3:cad>
          </ns3:TrackPointExtension>
        </extensions>
      </trkpt>
      <trkpt lat="45.2451403252780437469482421875" lon="-71.13230084069073200225830078125">
        <ele>980.20001220703125</ele>
        <time>2026-08-22T02:32:55.000Z</time>
        <extensions>
          <ns3:TrackPointExtension>
            <ns3:hr>142</ns3:hr>
            <ns3:cad>0</ns3:cad>
          </ns3:TrackPointExtension>
        </extensions>
      </trkpt>
      <trkpt lat="45.2451391518115997314453125" lon="-71.13230067305266857147216796875">
        <ele>980.4000244140625</ele>
        <time>2026-08-22T02:32:56.000Z</time>
        <extensions>
          <ns3:TrackPointExtension>
            <ns3:hr>142</ns3:hr>
            <ns3:cad>0</ns3:cad>
          </ns3:TrackPointExtension>
        </extensions>
      </trkpt>
      <trkpt lat="45.2451262436807155609130859375" lon="-71.13231156952679157257080078125">
        <ele>980.5999755859375</ele>
        <time>2026-08-22T02:32:57.000Z</time>
        <extensions>
          <ns3:TrackPointExtension>
            <ns3:hr>142</ns3:hr>
            <ns3:cad>0</ns3:cad>
          </ns3:TrackPointExtension>
        </extensions>
      </trkpt>
      <trkpt lat="45.24512104690074920654296875" lon="-71.13231710158288478851318359375">
        <ele>980.79998779296875</ele>
        <time>2026-08-22T02:32:58.000Z</time>
        <extensions>
          <ns3:TrackPointExtension>
            <ns3:hr>143</ns3:hr>
            <ns3:cad>0</ns3:cad>
          </ns3:TrackPointExtension>
        </extensions>
      </trkpt>
      <trkpt lat="45.2451123297214508056640625" lon="-71.1323260702192783355712890625">
        <ele>981</ele>
        <time>2026-08-22T02:32:59.000Z</time>
        <extensions>
          <ns3:TrackPointExtension>
            <ns3:hr>143</ns3:hr>
            <ns3:cad>0</ns3:cad>
          </ns3:TrackPointExtension>
        </extensions>
      </trkpt>
      <trkpt lat="45.24510436691343784332275390625" lon="-71.13233529031276702880859375">
        <ele>981.20001220703125</ele>
        <time>2026-08-22T02:33:00.000Z</time>
        <extensions>
          <ns3:TrackPointExtension>
            <ns3:hr>143</ns3:hr>
            <ns3:cad>0</ns3:cad>
          </ns3:TrackPointExtension>
        </extensions>
      </trkpt>
      <trkpt lat="45.2451010979712009429931640625" lon="-71.13233554176986217498779296875">
        <ele>981.4000244140625</ele>
        <time>2026-08-22T02:33:01.000Z</time>
        <extensions>
          <ns3:TrackPointExtension>
            <ns3:hr>143</ns3:hr>
            <ns3:cad>0</ns3:cad>
          </ns3:TrackPointExtension>
        </extensions>
      </trkpt>
      <trkpt lat="45.24509531445801258087158203125" lon="-71.13234124146401882171630859375">
        <ele>981.79998779296875</ele>
        <time>2026-08-22T02:33:02.000Z</time>
        <extensions>
          <ns3:TrackPointExtension>
            <ns3:hr>143</ns3:hr>
            <ns3:cad>0</ns3:cad>
          </ns3:TrackPointExtension>
        </extensions>
      </trkpt>
      <trkpt lat="45.24508944712579250335693359375" lon="-71.13235012628138065338134765625">
        <ele>982</ele>
        <time>2026-08-22T02:33:03.000Z</time>
        <extensions>
          <ns3:TrackPointExtension>
            <ns3:hr>142</ns3:hr>
            <ns3:cad>0</ns3:cad>
          </ns3:TrackPointExtension>
        </extensions>
      </trkpt>
      <trkpt lat="45.24508617818355560302734375" lon="-71.13235180266201496124267578125">
        <ele>982.20001220703125</ele>
        <time>2026-08-22T02:33:04.000Z</time>
        <extensions>
          <ns3:TrackPointExtension>
            <ns3:hr>142</ns3:hr>
            <ns3:cad>0</ns3:cad>
          </ns3:TrackPointExtension>
        </extensions>
      </trkpt>
      <trkpt lat="45.245082490146160125732421875" lon="-71.13236219622194766998291015625">
        <ele>982.4000244140625</ele>
        <time>2026-08-22T02:33:05.000Z</time>
        <extensions>
          <ns3:TrackPointExtension>
            <ns3:hr>141</ns3:hr>
            <ns3:cad>0</ns3:cad>
          </ns3:TrackPointExtension>
        </extensions>
      </trkpt>
      <trkpt lat="45.24508274160325527191162109375" lon="-71.13236638717353343963623046875">
        <ele>982.5999755859375</ele>
        <time>2026-08-22T02:33:06.000Z</time>
        <extensions>
          <ns3:TrackPointExtension>
            <ns3:hr>141</ns3:hr>
            <ns3:cad>0</ns3:cad>
          </ns3:TrackPointExtension>
        </extensions>
      </trkpt>
      <trkpt lat="45.2450729347765445709228515625" lon="-71.132373176515102386474609375">
        <ele>982.79998779296875</ele>
        <time>2026-08-22T02:33:07.000Z</time>
        <extensions>
          <ns3:TrackPointExtension>
            <ns3:hr>142</ns3:hr>
            <ns3:cad>0</ns3:cad>
          </ns3:TrackPointExtension>
        </extensions>
      </trkpt>
      <trkpt lat="45.2450719289481639862060546875" lon="-71.13237820565700531005859375">
        <ele>983</ele>
        <time>2026-08-22T02:33:08.000Z</time>
        <extensions>
          <ns3:TrackPointExtension>
            <ns3:hr>142</ns3:hr>
            <ns3:cad>0</ns3:cad>
          </ns3:TrackPointExtension>
        </extensions>
      </trkpt>
      <trkpt lat="45.24506446905434131622314453125" lon="-71.1323887668550014495849609375">
        <ele>983.20001220703125</ele>
        <time>2026-08-22T02:33:09.000Z</time>
        <extensions>
          <ns3:TrackPointExtension>
            <ns3:hr>142</ns3:hr>
            <ns3:cad>0</ns3:cad>
          </ns3:TrackPointExtension>
        </extensions>
      </trkpt>
      <trkpt lat="45.24505759589374065399169921875" lon="-71.13239740021526813507080078125">
        <ele>983.4000244140625</ele>
        <time>2026-08-22T02:33:10.000Z</time>
        <extensions>
          <ns3:TrackPointExtension>
            <ns3:hr>142</ns3:hr>
            <ns3:cad>0</ns3:cad>
          </ns3:TrackPointExtension>
        </extensions>
      </trkpt>
      <trkpt lat="45.245054662227630615234375" lon="-71.13240100443363189697265625">
        <ele>983.5999755859375</ele>
        <time>2026-08-22T02:33:11.000Z</time>
        <extensions>
          <ns3:TrackPointExtension>
            <ns3:hr>142</ns3:hr>
            <ns3:cad>0</ns3:cad>
          </ns3:TrackPointExtension>
        </extensions>
      </trkpt>
      <trkpt lat="45.24504820816218852996826171875" lon="-71.13240997307002544403076171875">
        <ele>983.79998779296875</ele>
        <time>2026-08-22T02:33:12.000Z</time>
        <extensions>
          <ns3:TrackPointExtension>
            <ns3:hr>142</ns3:hr>
            <ns3:cad>0</ns3:cad>
          </ns3:TrackPointExtension>
        </extensions>
      </trkpt>
      <trkpt lat="45.2450372278690338134765625" lon="-71.1324162594974040985107421875">
        <ele>984</ele>
        <time>2026-08-22T02:33:13.000Z</time>
        <extensions>
          <ns3:TrackPointExtension>
            <ns3:hr>142</ns3:hr>
            <ns3:cad>0</ns3:cad>
          </ns3:TrackPointExtension>
        </extensions>
      </trkpt>
      <trkpt lat="45.2450343780219554901123046875" lon="-71.1324246414005756378173828125">
        <ele>984.20001220703125</ele>
        <time>2026-08-22T02:33:14.000Z</time>
        <extensions>
          <ns3:TrackPointExtension>
            <ns3:hr>142</ns3:hr>
            <ns3:cad>0</ns3:cad>
          </ns3:TrackPointExtension>
        </extensions>
      </trkpt>
      <trkpt lat="45.24502851068973541259765625" lon="-71.1324311792850494384765625">
        <ele>984.4000244140625</ele>
        <time>2026-08-22T02:33:15.000Z</time>
        <extensions>
          <ns3:TrackPointExtension>
            <ns3:hr>142</ns3:hr>
            <ns3:cad>0</ns3:cad>
          </ns3:TrackPointExtension>
        </extensions>
      </trkpt>
      <trkpt lat="45.24502624757587909698486328125" lon="-71.13243679516017436981201171875">
        <ele>984.5999755859375</ele>
        <time>2026-08-22T02:33:16.000Z</time>
        <extensions>
          <ns3:TrackPointExtension>
            <ns3:hr>143</ns3:hr>
            <ns3:cad>0</ns3:cad>
          </ns3:TrackPointExtension>
        </extensions>
      </trkpt>
      <trkpt lat="45.245021469891071319580078125" lon="-71.132444925606250762939453125">
        <ele>984.5999755859375</ele>
        <time>2026-08-22T02:33:17.000Z</time>
        <extensions>
          <ns3:TrackPointExtension>
            <ns3:hr>143</ns3:hr>
            <ns3:cad>0</ns3:cad>
          </ns3:TrackPointExtension>
        </extensions>
      </trkpt>
      <trkpt lat="45.245020128786563873291015625" lon="-71.13245439715683460235595703125">
        <ele>984.79998779296875</ele>
        <time>2026-08-22T02:33:18.000Z</time>
        <extensions>
          <ns3:TrackPointExtension>
            <ns3:hr>143</ns3:hr>
            <ns3:cad>0</ns3:cad>
          </ns3:TrackPointExtension>
        </extensions>
      </trkpt>
      <trkpt lat="45.2450169436633586883544921875" lon="-71.132461018860340118408203125">
        <ele>984.79998779296875</ele>
        <time>2026-08-22T02:33:19.000Z</time>
        <extensions>
          <ns3:TrackPointExtension>
            <ns3:hr>143</ns3:hr>
            <ns3:cad>0</ns3:cad>
          </ns3:TrackPointExtension>
        </extensions>
      </trkpt>
      <trkpt lat="45.245009399950504302978515625" lon="-71.132474429905414581298828125">
        <ele>985</ele>
        <time>2026-08-22T02:33:20.000Z</time>
        <extensions>
          <ns3:TrackPointExtension>
            <ns3:hr>143</ns3:hr>
            <ns3:cad>0</ns3:cad>
          </ns3:TrackPointExtension>
        </extensions>
      </trkpt>
      <trkpt lat="45.245006717741489410400390625" lon="-71.13248775713145732879638671875">
        <ele>985.20001220703125</ele>
        <time>2026-08-22T02:33:21.000Z</time>
        <extensions>
          <ns3:TrackPointExtension>
            <ns3:hr>142</ns3:hr>
            <ns3:cad>0</ns3:cad>
          </ns3:TrackPointExtension>
        </extensions>
      </trkpt>
      <trkpt lat="45.245002694427967071533203125" lon="-71.13248826004564762115478515625">
        <ele>985.20001220703125</ele>
        <time>2026-08-22T02:33:22.000Z</time>
        <extensions>
          <ns3:TrackPointExtension>
            <ns3:hr>138</ns3:hr>
            <ns3:cad>0</ns3:cad>
          </ns3:TrackPointExtension>
        </extensions>
      </trkpt>
      <trkpt lat="45.24499422870576381683349609375" lon="-71.13248758949339389801025390625">
        <ele>985.4000244140625</ele>
        <time>2026-08-22T02:33:23.000Z</time>
        <extensions>
          <ns3:TrackPointExtension>
            <ns3:hr>138</ns3:hr>
            <ns3:cad>0</ns3:cad>
          </ns3:TrackPointExtension>
        </extensions>
      </trkpt>
      <trkpt lat="45.2449847571551799774169921875" lon="-71.1324913613498210906982421875">
        <ele>985.5999755859375</ele>
        <time>2026-08-22T02:33:24.000Z</time>
        <extensions>
          <ns3:TrackPointExtension>
            <ns3:hr>138</ns3:hr>
            <ns3:cad>0</ns3:cad>
          </ns3:TrackPointExtension>
        </extensions>
      </trkpt>
      <trkpt lat="45.2449793927371501922607421875" lon="-71.13248976878821849822998046875">
        <ele>985.79998779296875</ele>
        <time>2026-08-22T02:33:25.000Z</time>
        <extensions>
          <ns3:TrackPointExtension>
            <ns3:hr>139</ns3:hr>
            <ns3:cad>0</ns3:cad>
          </ns3:TrackPointExtension>
        </extensions>
      </trkpt>
      <trkpt lat="45.2449673227965831756591796875" lon="-71.13249379210174083709716796875">
        <ele>985.79998779296875</ele>
        <time>2026-08-22T02:33:26.000Z</time>
        <extensions>
          <ns3:TrackPointExtension>
            <ns3:hr>139</ns3:hr>
            <ns3:cad>0</ns3:cad>
          </ns3:TrackPointExtension>
        </extensions>
      </trkpt>
      <trkpt lat="45.24495768360793590545654296875" lon="-71.132496558129787445068359375">
        <ele>986</ele>
        <time>2026-08-22T02:33:27.000Z</time>
        <extensions>
          <ns3:TrackPointExtension>
            <ns3:hr>139</ns3:hr>
            <ns3:cad>0</ns3:cad>
          </ns3:TrackPointExtension>
        </extensions>
      </trkpt>
      <trkpt lat="45.24495399557054042816162109375" lon="-71.13249848596751689910888671875">
        <ele>986</ele>
        <time>2026-08-22T02:33:28.000Z</time>
        <extensions>
          <ns3:TrackPointExtension>
            <ns3:hr>140</ns3:hr>
            <ns3:cad>0</ns3:cad>
          </ns3:TrackPointExtension>
        </extensions>
      </trkpt>
      <trkpt lat="45.24494670331478118896484375" lon="-71.13250133581459522247314453125">
        <ele>986.20001220703125</ele>
        <time>2026-08-22T02:33:29.000Z</time>
        <extensions>
          <ns3:TrackPointExtension>
            <ns3:hr>141</ns3:hr>
            <ns3:cad>0</ns3:cad>
          </ns3:TrackPointExtension>
        </extensions>
      </trkpt>
      <trkpt lat="45.2449421770870685577392578125" lon="-71.132507286965847015380859375">
        <ele>986.20001220703125</ele>
        <time>2026-08-22T02:33:30.000Z</time>
        <extensions>
          <ns3:TrackPointExtension>
            <ns3:hr>141</ns3:hr>
            <ns3:cad>0</ns3:cad>
          </ns3:TrackPointExtension>
        </extensions>
      </trkpt>
      <trkpt lat="45.244937650859355926513671875" lon="-71.13250938244163990020751953125">
        <ele>986.4000244140625</ele>
        <time>2026-08-22T02:33:31.000Z</time>
        <extensions>
          <ns3:TrackPointExtension>
            <ns3:hr>142</ns3:hr>
            <ns3:cad>0</ns3:cad>
          </ns3:TrackPointExtension>
        </extensions>
      </trkpt>
      <trkpt lat="45.244924239814281463623046875" lon="-71.1325143277645111083984375">
        <ele>986.5999755859375</ele>
        <time>2026-08-22T02:33:32.000Z</time>
        <extensions>
          <ns3:TrackPointExtension>
            <ns3:hr>141</ns3:hr>
            <ns3:cad>0</ns3:cad>
          </ns3:TrackPointExtension>
        </extensions>
      </trkpt>
      <trkpt lat="45.24491250514984130859375" lon="-71.1325131542980670928955078125">
        <ele>986.79998779296875</ele>
        <time>2026-08-22T02:33:33.000Z</time>
        <extensions>
          <ns3:TrackPointExtension>
            <ns3:hr>141</ns3:hr>
            <ns3:cad>0</ns3:cad>
          </ns3:TrackPointExtension>
        </extensions>
      </trkpt>
      <trkpt lat="45.24490554817020893096923828125" lon="-71.1325151659548282623291015625">
        <ele>986.79998779296875</ele>
        <time>2026-08-22T02:33:34.000Z</time>
        <extensions>
          <ns3:TrackPointExtension>
            <ns3:hr>141</ns3:hr>
            <ns3:cad>0</ns3:cad>
          </ns3:TrackPointExtension>
        </extensions>
      </trkpt>
      <trkpt lat="45.24489951319992542266845703125" lon="-71.13251726143062114715576171875">
        <ele>987</ele>
        <time>2026-08-22T02:33:35.000Z</time>
        <extensions>
          <ns3:TrackPointExtension>
            <ns3:hr>141</ns3:hr>
            <ns3:cad>0</ns3:cad>
          </ns3:TrackPointExtension>
        </extensions>
      </trkpt>
      <trkpt lat="45.24488844908773899078369140625" lon="-71.1325218714773654937744140625">
        <ele>987</ele>
        <time>2026-08-22T02:33:36.000Z</time>
        <extensions>
          <ns3:TrackPointExtension>
            <ns3:hr>141</ns3:hr>
            <ns3:cad>0</ns3:cad>
          </ns3:TrackPointExtension>
        </extensions>
      </trkpt>
      <trkpt lat="45.2448861859738826751708984375" lon="-71.132525391876697540283203125">
        <ele>987.20001220703125</ele>
        <time>2026-08-22T02:33:37.000Z</time>
        <extensions>
          <ns3:TrackPointExtension>
            <ns3:hr>140</ns3:hr>
            <ns3:cad>0</ns3:cad>
          </ns3:TrackPointExtension>
        </extensions>
      </trkpt>
      <trkpt lat="45.2448762953281402587890625" lon="-71.13252949900925159454345703125">
        <ele>987.4000244140625</ele>
        <time>2026-08-22T02:33:38.000Z</time>
        <extensions>
          <ns3:TrackPointExtension>
            <ns3:hr>140</ns3:hr>
            <ns3:cad>0</ns3:cad>
          </ns3:TrackPointExtension>
        </extensions>
      </trkpt>
      <trkpt lat="45.24486732669174671173095703125" lon="-71.13253653980791568756103515625">
        <ele>987.5999755859375</ele>
        <time>2026-08-22T02:33:39.000Z</time>
        <extensions>
          <ns3:TrackPointExtension>
            <ns3:hr>140</ns3:hr>
            <ns3:cad>0</ns3:cad>
          </ns3:TrackPointExtension>
        </extensions>
      </trkpt>
      <trkpt lat="45.2448620460927486419677734375" lon="-71.13254006020724773406982421875">
        <ele>987.5999755859375</ele>
        <time>2026-08-22T02:33:40.000Z</time>
        <extensions>
          <ns3:TrackPointExtension>
            <ns3:hr>140</ns3:hr>
            <ns3:cad>0</ns3:cad>
          </ns3:TrackPointExtension>
        </extensions>
      </trkpt>
      <trkpt lat="45.2448596991598606109619140625" lon="-71.13255246542394161224365234375">
        <ele>987.79998779296875</ele>
        <time>2026-08-22T02:33:41.000Z</time>
        <extensions>
          <ns3:TrackPointExtension>
            <ns3:hr>140</ns3:hr>
            <ns3:cad>0</ns3:cad>
          </ns3:TrackPointExtension>
        </extensions>
      </trkpt>
      <trkpt lat="45.2448516525328159332275390625" lon="-71.1325607635080814361572265625">
        <ele>987.79998779296875</ele>
        <time>2026-08-22T02:33:42.000Z</time>
        <extensions>
          <ns3:TrackPointExtension>
            <ns3:hr>140</ns3:hr>
            <ns3:cad>0</ns3:cad>
          </ns3:TrackPointExtension>
        </extensions>
      </trkpt>
      <trkpt lat="45.2448459528386592864990234375" lon="-71.1325657926499843597412109375">
        <ele>988</ele>
        <time>2026-08-22T02:33:43.000Z</time>
        <extensions>
          <ns3:TrackPointExtension>
            <ns3:hr>140</ns3:hr>
            <ns3:cad>47</ns3:cad>
          </ns3:TrackPointExtension>
        </extensions>
      </trkpt>
      <trkpt lat="45.24483799003064632415771484375" lon="-71.13257643766701221466064453125">
        <ele>988.20001220703125</ele>
        <time>2026-08-22T02:33:44.000Z</time>
        <extensions>
          <ns3:TrackPointExtension>
            <ns3:hr>140</ns3:hr>
            <ns3:cad>0</ns3:cad>
          </ns3:TrackPointExtension>
        </extensions>
      </trkpt>
      <trkpt lat="45.24483161978423595428466796875" lon="-71.13258196972310543060302734375">
        <ele>988.20001220703125</ele>
        <time>2026-08-22T02:33:45.000Z</time>
        <extensions>
          <ns3:TrackPointExtension>
            <ns3:hr>141</ns3:hr>
            <ns3:cad>0</ns3:cad>
          </ns3:TrackPointExtension>
        </extensions>
      </trkpt>
      <trkpt lat="45.2448268420994281768798828125" lon="-71.1325813829898834228515625">
        <ele>988.4000244140625</ele>
        <time>2026-08-22T02:33:46.000Z</time>
        <extensions>
          <ns3:TrackPointExtension>
            <ns3:hr>140</ns3:hr>
            <ns3:cad>42</ns3:cad>
          </ns3:TrackPointExtension>
        </extensions>
      </trkpt>
      <trkpt lat="45.24481653235852718353271484375" lon="-71.13258632831275463104248046875">
        <ele>988.5999755859375</ele>
        <time>2026-08-22T02:33:47.000Z</time>
        <extensions>
          <ns3:TrackPointExtension>
            <ns3:hr>140</ns3:hr>
            <ns3:cad>42</ns3:cad>
          </ns3:TrackPointExtension>
        </extensions>
      </trkpt>
      <trkpt lat="45.24480379186570644378662109375" lon="-71.1325947940349578857421875">
        <ele>988.79998779296875</ele>
        <time>2026-08-22T02:33:48.000Z</time>
        <extensions>
          <ns3:TrackPointExtension>
            <ns3:hr>140</ns3:hr>
            <ns3:cad>42</ns3:cad>
          </ns3:TrackPointExtension>
        </extensions>
      </trkpt>
      <trkpt lat="45.24480597116053104400634765625" lon="-71.1325993202626705169677734375">
        <ele>989</ele>
        <time>2026-08-22T02:33:49.000Z</time>
        <extensions>
          <ns3:TrackPointExtension>
            <ns3:hr>141</ns3:hr>
            <ns3:cad>42</ns3:cad>
          </ns3:TrackPointExtension>
        </extensions>
      </trkpt>
      <trkpt lat="45.244801528751850128173828125" lon="-71.13261130638420581817626953125">
        <ele>989</ele>
        <time>2026-08-22T02:33:50.000Z</time>
        <extensions>
          <ns3:TrackPointExtension>
            <ns3:hr>141</ns3:hr>
            <ns3:cad>0</ns3:cad>
          </ns3:TrackPointExtension>
        </extensions>
      </trkpt>
      <trkpt lat="45.24479742161929607391357421875" lon="-71.13261985592544078826904296875">
        <ele>989.20001220703125</ele>
        <time>2026-08-22T02:33:51.000Z</time>
        <extensions>
          <ns3:TrackPointExtension>
            <ns3:hr>141</ns3:hr>
            <ns3:cad>0</ns3:cad>
          </ns3:TrackPointExtension>
        </extensions>
      </trkpt>
      <trkpt lat="45.24479306302964687347412109375" lon="-71.13262404687702655792236328125">
        <ele>989.4000244140625</ele>
        <time>2026-08-22T02:33:52.000Z</time>
        <extensions>
          <ns3:TrackPointExtension>
            <ns3:hr>141</ns3:hr>
            <ns3:cad>0</ns3:cad>
          </ns3:TrackPointExtension>
        </extensions>
      </trkpt>
      <trkpt lat="45.24478317238390445709228515625" lon="-71.132628656923770904541015625">
        <ele>989.5999755859375</ele>
        <time>2026-08-22T02:33:53.000Z</time>
        <extensions>
          <ns3:TrackPointExtension>
            <ns3:hr>141</ns3:hr>
            <ns3:cad>0</ns3:cad>
          </ns3:TrackPointExtension>
        </extensions>
      </trkpt>
      <trkpt lat="45.24477512575685977935791015625" lon="-71.13263276405632495880126953125">
        <ele>989.79998779296875</ele>
        <time>2026-08-22T02:33:54.000Z</time>
        <extensions>
          <ns3:TrackPointExtension>
            <ns3:hr>141</ns3:hr>
            <ns3:cad>0</ns3:cad>
          </ns3:TrackPointExtension>
        </extensions>
      </trkpt>
      <trkpt lat="45.2447663247585296630859375" lon="-71.132639385759830474853515625">
        <ele>990</ele>
        <time>2026-08-22T02:33:55.000Z</time>
        <extensions>
          <ns3:TrackPointExtension>
            <ns3:hr>141</ns3:hr>
            <ns3:cad>0</ns3:cad>
          </ns3:TrackPointExtension>
        </extensions>
      </trkpt>
      <trkpt lat="45.2447594515979290008544921875" lon="-71.13264910876750946044921875">
        <ele>990.20001220703125</ele>
        <time>2026-08-22T02:33:56.000Z</time>
        <extensions>
          <ns3:TrackPointExtension>
            <ns3:hr>140</ns3:hr>
            <ns3:cad>0</ns3:cad>
          </ns3:TrackPointExtension>
        </extensions>
      </trkpt>
      <trkpt lat="45.244753248989582061767578125" lon="-71.1326600052416324615478515625">
        <ele>990.4000244140625</ele>
        <time>2026-08-22T02:33:57.000Z</time>
        <extensions>
          <ns3:TrackPointExtension>
            <ns3:hr>141</ns3:hr>
            <ns3:cad>0</ns3:cad>
          </ns3:TrackPointExtension>
        </extensions>
      </trkpt>
      <trkpt lat="45.24474880658090114593505859375" lon="-71.132668890058994293212890625">
        <ele>990.4000244140625</ele>
        <time>2026-08-22T02:33:58.000Z</time>
        <extensions>
          <ns3:TrackPointExtension>
            <ns3:hr>141</ns3:hr>
            <ns3:cad>0</ns3:cad>
          </ns3:TrackPointExtension>
        </extensions>
      </trkpt>
      <trkpt lat="45.24473891593515872955322265625" lon="-71.1326727457344532012939453125">
        <ele>990.5999755859375</ele>
        <time>2026-08-22T02:33:59.000Z</time>
        <extensions>
          <ns3:TrackPointExtension>
            <ns3:hr>140</ns3:hr>
            <ns3:cad>0</ns3:cad>
          </ns3:TrackPointExtension>
        </extensions>
      </trkpt>
      <trkpt lat="45.24473254568874835968017578125" lon="-71.132679618895053863525390625">
        <ele>990.79998779296875</ele>
        <time>2026-08-22T02:34:00.000Z</time>
        <extensions>
          <ns3:TrackPointExtension>
            <ns3:hr>140</ns3:hr>
            <ns3:cad>0</ns3:cad>
          </ns3:TrackPointExtension>
        </extensions>
      </trkpt>
      <trkpt lat="45.2447234094142913818359375" lon="-71.132684648036956787109375">
        <ele>991</ele>
        <time>2026-08-22T02:34:01.000Z</time>
        <extensions>
          <ns3:TrackPointExtension>
            <ns3:hr>139</ns3:hr>
            <ns3:cad>0</ns3:cad>
          </ns3:TrackPointExtension>
        </extensions>
      </trkpt>
      <trkpt lat="45.24471963755786418914794921875" lon="-71.1326935328543186187744140625">
        <ele>991.20001220703125</ele>
        <time>2026-08-22T02:34:02.000Z</time>
        <extensions>
          <ns3:TrackPointExtension>
            <ns3:hr>139</ns3:hr>
            <ns3:cad>0</ns3:cad>
          </ns3:TrackPointExtension>
        </extensions>
      </trkpt>
      <trkpt lat="45.2447153627872467041015625" lon="-71.1327005736529827117919921875">
        <ele>991.4000244140625</ele>
        <time>2026-08-22T02:34:03.000Z</time>
        <extensions>
          <ns3:TrackPointExtension>
            <ns3:hr>139</ns3:hr>
            <ns3:cad>0</ns3:cad>
          </ns3:TrackPointExtension>
        </extensions>
      </trkpt>
      <trkpt lat="45.24471527896821498870849609375" lon="-71.13270015455782413482666015625">
        <ele>991.4000244140625</ele>
        <time>2026-08-22T02:34:04.000Z</time>
        <extensions>
          <ns3:TrackPointExtension>
            <ns3:hr>140</ns3:hr>
            <ns3:cad>0</ns3:cad>
          </ns3:TrackPointExtension>
        </extensions>
      </trkpt>
      <trkpt lat="45.2447108365595340728759765625" lon="-71.13270568661391735076904296875">
        <ele>991.5999755859375</ele>
        <time>2026-08-22T02:34:05.000Z</time>
        <extensions>
          <ns3:TrackPointExtension>
            <ns3:hr>140</ns3:hr>
            <ns3:cad>0</ns3:cad>
          </ns3:TrackPointExtension>
        </extensions>
      </trkpt>
      <trkpt lat="45.2447014488279819488525390625" lon="-71.13271540962159633636474609375">
        <ele>991.5999755859375</ele>
        <time>2026-08-22T02:34:06.000Z</time>
        <extensions>
          <ns3:TrackPointExtension>
            <ns3:hr>140</ns3:hr>
            <ns3:cad>0</ns3:cad>
          </ns3:TrackPointExtension>
        </extensions>
      </trkpt>
      <trkpt lat="45.24469817988574504852294921875" lon="-71.13272597081959247589111328125">
        <ele>991.79998779296875</ele>
        <time>2026-08-22T02:34:07.000Z</time>
        <extensions>
          <ns3:TrackPointExtension>
            <ns3:hr>141</ns3:hr>
            <ns3:cad>0</ns3:cad>
          </ns3:TrackPointExtension>
        </extensions>
      </trkpt>
      <trkpt lat="45.24469248019158840179443359375" lon="-71.13273334689438343048095703125">
        <ele>992</ele>
        <time>2026-08-22T02:34:08.000Z</time>
        <extensions>
          <ns3:TrackPointExtension>
            <ns3:hr>141</ns3:hr>
            <ns3:cad>0</ns3:cad>
          </ns3:TrackPointExtension>
        </extensions>
      </trkpt>
      <trkpt lat="45.24468116462230682373046875" lon="-71.1327455006539821624755859375">
        <ele>992</ele>
        <time>2026-08-22T02:34:09.000Z</time>
        <extensions>
          <ns3:TrackPointExtension>
            <ns3:hr>140</ns3:hr>
            <ns3:cad>40</ns3:cad>
          </ns3:TrackPointExtension>
        </extensions>
      </trkpt>
      <trkpt lat="45.2446749620139598846435546875" lon="-71.1327503621578216552734375">
        <ele>992.20001220703125</ele>
        <time>2026-08-22T02:34:10.000Z</time>
        <extensions>
          <ns3:TrackPointExtension>
            <ns3:hr>140</ns3:hr>
            <ns3:cad>40</ns3:cad>
          </ns3:TrackPointExtension>
        </extensions>
      </trkpt>
      <trkpt lat="45.24467068724334239959716796875" lon="-71.13275698386132717132568359375">
        <ele>992.4000244140625</ele>
        <time>2026-08-22T02:34:11.000Z</time>
        <extensions>
          <ns3:TrackPointExtension>
            <ns3:hr>139</ns3:hr>
            <ns3:cad>40</ns3:cad>
          </ns3:TrackPointExtension>
        </extensions>
      </trkpt>
      <trkpt lat="45.24466431699693202972412109375" lon="-71.132768802344799041748046875">
        <ele>992.4000244140625</ele>
        <time>2026-08-22T02:34:12.000Z</time>
        <extensions>
          <ns3:TrackPointExtension>
            <ns3:hr>139</ns3:hr>
            <ns3:cad>40</ns3:cad>
          </ns3:TrackPointExtension>
        </extensions>
      </trkpt>
      <trkpt lat="45.244656689465045928955078125" lon="-71.1327766813337802886962890625">
        <ele>992.5999755859375</ele>
        <time>2026-08-22T02:34:13.000Z</time>
        <extensions>
          <ns3:TrackPointExtension>
            <ns3:hr>139</ns3:hr>
            <ns3:cad>40</ns3:cad>
          </ns3:TrackPointExtension>
        </extensions>
      </trkpt>
      <trkpt lat="45.24464990012347698211669921875" lon="-71.132783554494380950927734375">
        <ele>992.79998779296875</ele>
        <time>2026-08-22T02:34:14.000Z</time>
        <extensions>
          <ns3:TrackPointExtension>
            <ns3:hr>139</ns3:hr>
            <ns3:cad>43</ns3:cad>
          </ns3:TrackPointExtension>
        </extensions>
      </trkpt>
      <trkpt lat="45.24464470334351062774658203125" lon="-71.13279067911207675933837890625">
        <ele>993</ele>
        <time>2026-08-22T02:34:15.000Z</time>
        <extensions>
          <ns3:TrackPointExtension>
            <ns3:hr>139</ns3:hr>
            <ns3:cad>43</ns3:cad>
          </ns3:TrackPointExtension>
        </extensions>
      </trkpt>
      <trkpt lat="45.24463380686938762664794921875" lon="-71.1327991448342800140380859375">
        <ele>993</ele>
        <time>2026-08-22T02:34:16.000Z</time>
        <extensions>
          <ns3:TrackPointExtension>
            <ns3:hr>139</ns3:hr>
            <ns3:cad>0</ns3:cad>
          </ns3:TrackPointExtension>
        </extensions>
      </trkpt>
      <trkpt lat="45.2446320466697216033935546875" lon="-71.13280928693711757659912109375">
        <ele>993.20001220703125</ele>
        <time>2026-08-22T02:34:17.000Z</time>
        <extensions>
          <ns3:TrackPointExtension>
            <ns3:hr>139</ns3:hr>
            <ns3:cad>0</ns3:cad>
          </ns3:TrackPointExtension>
        </extensions>
      </trkpt>
      <trkpt lat="45.24462752044200897216796875" lon="-71.132814399898052215576171875">
        <ele>993.20001220703125</ele>
        <time>2026-08-22T02:34:18.000Z</time>
        <extensions>
          <ns3:TrackPointExtension>
            <ns3:hr>139</ns3:hr>
            <ns3:cad>0</ns3:cad>
          </ns3:TrackPointExtension>
        </extensions>
      </trkpt>
      <trkpt lat="45.2446223236620426177978515625" lon="-71.132823787629604339599609375">
        <ele>993.20001220703125</ele>
        <time>2026-08-22T02:34:19.000Z</time>
        <extensions>
          <ns3:TrackPointExtension>
            <ns3:hr>139</ns3:hr>
            <ns3:cad>0</ns3:cad>
          </ns3:TrackPointExtension>
        </extensions>
      </trkpt>
      <trkpt lat="45.24461385793983936309814453125" lon="-71.13283409737050533294677734375">
        <ele>993.4000244140625</ele>
        <time>2026-08-22T02:34:20.000Z</time>
        <extensions>
          <ns3:TrackPointExtension>
            <ns3:hr>139</ns3:hr>
            <ns3:cad>0</ns3:cad>
          </ns3:TrackPointExtension>
        </extensions>
      </trkpt>
      <trkpt lat="45.2446045540273189544677734375" lon="-71.13284784369170665740966796875">
        <ele>993.4000244140625</ele>
        <time>2026-08-22T02:34:21.000Z</time>
        <extensions>
          <ns3:TrackPointExtension>
            <ns3:hr>139</ns3:hr>
            <ns3:cad>0</ns3:cad>
          </ns3:TrackPointExtension>
        </extensions>
      </trkpt>
      <trkpt lat="45.24459977634251117706298828125" lon="-71.1328561417758464813232421875">
        <ele>993.4000244140625</ele>
        <time>2026-08-22T02:34:22.000Z</time>
        <extensions>
          <ns3:TrackPointExtension>
            <ns3:hr>138</ns3:hr>
            <ns3:cad>0</ns3:cad>
          </ns3:TrackPointExtension>
        </extensions>
      </trkpt>
      <trkpt lat="45.24459139443933963775634765625" lon="-71.13286427222192287445068359375">
        <ele>993.5999755859375</ele>
        <time>2026-08-22T02:34:23.000Z</time>
        <extensions>
          <ns3:TrackPointExtension>
            <ns3:hr>138</ns3:hr>
            <ns3:cad>0</ns3:cad>
          </ns3:TrackPointExtension>
        </extensions>
      </trkpt>
      <trkpt lat="45.244587622582912445068359375" lon="-71.13286712206900119781494140625">
        <ele>993.5999755859375</ele>
        <time>2026-08-22T02:34:24.000Z</time>
        <extensions>
          <ns3:TrackPointExtension>
            <ns3:hr>138</ns3:hr>
            <ns3:cad>0</ns3:cad>
          </ns3:TrackPointExtension>
        </extensions>
      </trkpt>
      <trkpt lat="45.24458452127873897552490234375" lon="-71.1328648589551448822021484375">
        <ele>993.5999755859375</ele>
        <time>2026-08-22T02:34:25.000Z</time>
        <extensions>
          <ns3:TrackPointExtension>
            <ns3:hr>139</ns3:hr>
            <ns3:cad>0</ns3:cad>
          </ns3:TrackPointExtension>
        </extensions>
      </trkpt>
      <trkpt lat="45.24458116851747035980224609375" lon="-71.1328611709177494049072265625">
        <ele>993.5999755859375</ele>
        <time>2026-08-22T02:34:26.000Z</time>
        <extensions>
          <ns3:TrackPointExtension>
            <ns3:hr>138</ns3:hr>
            <ns3:cad>0</ns3:cad>
          </ns3:TrackPointExtension>
        </extensions>
      </trkpt>
      <trkpt lat="45.24456792511045932769775390625" lon="-71.13287064246833324432373046875">
        <ele>993.5999755859375</ele>
        <time>2026-08-22T02:34:27.000Z</time>
        <extensions>
          <ns3:TrackPointExtension>
            <ns3:hr>138</ns3:hr>
            <ns3:cad>0</ns3:cad>
          </ns3:TrackPointExtension>
        </extensions>
      </trkpt>
      <trkpt lat="45.24456071667373180389404296875" lon="-71.1328712292015552520751953125">
        <ele>993.79998779296875</ele>
        <time>2026-08-22T02:34:28.000Z</time>
        <extensions>
          <ns3:TrackPointExtension>
            <ns3:hr>138</ns3:hr>
            <ns3:cad>0</ns3:cad>
          </ns3:TrackPointExtension>
        </extensions>
      </trkpt>
      <trkpt lat="45.24455451406538486480712890625" lon="-71.132874079048633575439453125">
        <ele>994</ele>
        <time>2026-08-22T02:34:29.000Z</time>
        <extensions>
          <ns3:TrackPointExtension>
            <ns3:hr>138</ns3:hr>
            <ns3:cad>0</ns3:cad>
          </ns3:TrackPointExtension>
        </extensions>
      </trkpt>
      <trkpt lat="45.24454898200929164886474609375" lon="-71.13288288004696369171142578125">
        <ele>994</ele>
        <time>2026-08-22T02:34:30.000Z</time>
        <extensions>
          <ns3:TrackPointExtension>
            <ns3:hr>138</ns3:hr>
            <ns3:cad>0</ns3:cad>
          </ns3:TrackPointExtension>
        </extensions>
      </trkpt>
      <trkpt lat="45.24454127065837383270263671875" lon="-71.132894866168498992919921875">
        <ele>994</ele>
        <time>2026-08-22T02:34:31.000Z</time>
        <extensions>
          <ns3:TrackPointExtension>
            <ns3:hr>138</ns3:hr>
            <ns3:cad>0</ns3:cad>
          </ns3:TrackPointExtension>
        </extensions>
      </trkpt>
      <trkpt lat="45.24453766644001007080078125" lon="-71.13290048204362392425537109375">
        <ele>994</ele>
        <time>2026-08-22T02:34:32.000Z</time>
        <extensions>
          <ns3:TrackPointExtension>
            <ns3:hr>138</ns3:hr>
            <ns3:cad>0</ns3:cad>
          </ns3:TrackPointExtension>
        </extensions>
      </trkpt>
      <trkpt lat="45.244536660611629486083984375" lon="-71.13290668465197086334228515625">
        <ele>994.20001220703125</ele>
        <time>2026-08-22T02:34:33.000Z</time>
        <extensions>
          <ns3:TrackPointExtension>
            <ns3:hr>138</ns3:hr>
            <ns3:cad>0</ns3:cad>
          </ns3:TrackPointExtension>
        </extensions>
      </trkpt>
      <trkpt lat="45.24453406222164630889892578125" lon="-71.1329139769077301025390625">
        <ele>994.20001220703125</ele>
        <time>2026-08-22T02:34:34.000Z</time>
        <extensions>
          <ns3:TrackPointExtension>
            <ns3:hr>138</ns3:hr>
            <ns3:cad>0</ns3:cad>
          </ns3:TrackPointExtension>
        </extensions>
      </trkpt>
      <trkpt lat="45.24453003890812397003173828125" lon="-71.132919676601886749267578125">
        <ele>994.20001220703125</ele>
        <time>2026-08-22T02:34:35.000Z</time>
        <extensions>
          <ns3:TrackPointExtension>
            <ns3:hr>137</ns3:hr>
            <ns3:cad>0</ns3:cad>
          </ns3:TrackPointExtension>
        </extensions>
      </trkpt>
      <trkpt lat="45.2445264346897602081298828125" lon="-71.13292193971574306488037109375">
        <ele>994.20001220703125</ele>
        <time>2026-08-22T02:34:36.000Z</time>
        <extensions>
          <ns3:TrackPointExtension>
            <ns3:hr>137</ns3:hr>
            <ns3:cad>0</ns3:cad>
          </ns3:TrackPointExtension>
        </extensions>
      </trkpt>
      <trkpt lat="45.2445224113762378692626953125" lon="-71.13292596302926540374755859375">
        <ele>994.4000244140625</ele>
        <time>2026-08-22T02:34:37.000Z</time>
        <extensions>
          <ns3:TrackPointExtension>
            <ns3:hr>137</ns3:hr>
            <ns3:cad>0</ns3:cad>
          </ns3:TrackPointExtension>
        </extensions>
      </trkpt>
      <trkpt lat="45.2445187233388423919677734375" lon="-71.13292696885764598846435546875">
        <ele>994.4000244140625</ele>
        <time>2026-08-22T02:34:38.000Z</time>
        <extensions>
          <ns3:TrackPointExtension>
            <ns3:hr>137</ns3:hr>
            <ns3:cad>0</ns3:cad>
          </ns3:TrackPointExtension>
        </extensions>
      </trkpt>
      <trkpt lat="45.24451796896755695343017578125" lon="-71.13292847760021686553955078125">
        <ele>994.4000244140625</ele>
        <time>2026-08-22T02:34:39.000Z</time>
        <extensions>
          <ns3:TrackPointExtension>
            <ns3:hr>136</ns3:hr>
            <ns3:cad>0</ns3:cad>
          </ns3:TrackPointExtension>
        </extensions>
      </trkpt>
      <trkpt lat="45.24451796896755695343017578125" lon="-71.13292847760021686553955078125">
        <ele>994.4000244140625</ele>
        <time>2026-08-22T02:34:40.000Z</time>
        <extensions>
          <ns3:TrackPointExtension>
            <ns3:hr>136</ns3:hr>
            <ns3:cad>0</ns3:cad>
          </ns3:TrackPointExtension>
        </extensions>
      </trkpt>
      <trkpt lat="45.24451796896755695343017578125" lon="-71.13292847760021686553955078125">
        <ele>994.4000244140625</ele>
        <time>2026-08-22T02:34:41.000Z</time>
        <extensions>
          <ns3:TrackPointExtension>
            <ns3:hr>136</ns3:hr>
            <ns3:cad>0</ns3:cad>
          </ns3:TrackPointExtension>
        </extensions>
      </trkpt>
      <trkpt lat="45.24451796896755695343017578125" lon="-71.13292847760021686553955078125">
        <ele>994.4000244140625</ele>
        <time>2026-08-22T02:34:42.000Z</time>
        <extensions>
          <ns3:TrackPointExtension>
            <ns3:hr>136</ns3:hr>
            <ns3:cad>0</ns3:cad>
          </ns3:TrackPointExtension>
        </extensions>
      </trkpt>
      <trkpt lat="45.24451796896755695343017578125" lon="-71.13292847760021686553955078125">
        <ele>994.4000244140625</ele>
        <time>2026-08-22T02:34:43.000Z</time>
        <extensions>
          <ns3:TrackPointExtension>
            <ns3:hr>136</ns3:hr>
            <ns3:cad>0</ns3:cad>
          </ns3:TrackPointExtension>
        </extensions>
      </trkpt>
      <trkpt lat="45.24451796896755695343017578125" lon="-71.13292847760021686553955078125">
        <ele>994.4000244140625</ele>
        <time>2026-08-22T02:34:44.000Z</time>
        <extensions>
          <ns3:TrackPointExtension>
            <ns3:hr>136</ns3:hr>
            <ns3:cad>0</ns3:cad>
          </ns3:TrackPointExtension>
        </extensions>
      </trkpt>
      <trkpt lat="45.24451763369143009185791015625" lon="-71.132927723228931427001953125">
        <ele>994.5999755859375</ele>
        <time>2026-08-22T02:34:45.000Z</time>
        <extensions>
          <ns3:TrackPointExtension>
            <ns3:hr>135</ns3:hr>
            <ns3:cad>0</ns3:cad>
          </ns3:TrackPointExtension>
        </extensions>
      </trkpt>
      <trkpt lat="45.24451218545436859130859375" lon="-71.13293945789337158203125">
        <ele>994.5999755859375</ele>
        <time>2026-08-22T02:34:46.000Z</time>
        <extensions>
          <ns3:TrackPointExtension>
            <ns3:hr>134</ns3:hr>
            <ns3:cad>0</ns3:cad>
          </ns3:TrackPointExtension>
        </extensions>
      </trkpt>
      <trkpt lat="45.24450908415019512176513671875" lon="-71.13294825889170169830322265625">
        <ele>994.79998779296875</ele>
        <time>2026-08-22T02:34:47.000Z</time>
        <extensions>
          <ns3:TrackPointExtension>
            <ns3:hr>134</ns3:hr>
            <ns3:cad>0</ns3:cad>
          </ns3:TrackPointExtension>
        </extensions>
      </trkpt>
      <trkpt lat="45.2445049770176410675048828125" lon="-71.1329523660242557525634765625">
        <ele>995</ele>
        <time>2026-08-22T02:34:48.000Z</time>
        <extensions>
          <ns3:TrackPointExtension>
            <ns3:hr>132</ns3:hr>
            <ns3:cad>0</ns3:cad>
          </ns3:TrackPointExtension>
        </extensions>
      </trkpt>
      <trkpt lat="45.2445022948086261749267578125" lon="-71.13295613788068294525146484375">
        <ele>995</ele>
        <time>2026-08-22T02:34:49.000Z</time>
        <extensions>
          <ns3:TrackPointExtension>
            <ns3:hr>132</ns3:hr>
            <ns3:cad>0</ns3:cad>
          </ns3:TrackPointExtension>
        </extensions>
      </trkpt>
      <trkpt lat="45.24449835531413555145263671875" lon="-71.13295731134712696075439453125">
        <ele>995.4000244140625</ele>
        <time>2026-08-22T02:34:50.000Z</time>
        <extensions>
          <ns3:TrackPointExtension>
            <ns3:hr>132</ns3:hr>
            <ns3:cad>41</ns3:cad>
          </ns3:TrackPointExtension>
        </extensions>
      </trkpt>
      <trkpt lat="45.244495756924152374267578125" lon="-71.13296535797417163848876953125">
        <ele>995.5999755859375</ele>
        <time>2026-08-22T02:34:51.000Z</time>
        <extensions>
          <ns3:TrackPointExtension>
            <ns3:hr>132</ns3:hr>
            <ns3:cad>41</ns3:cad>
          </ns3:TrackPointExtension>
        </extensions>
      </trkpt>
      <trkpt lat="45.24449064396321773529052734375" lon="-71.132977008819580078125">
        <ele>995.79998779296875</ele>
        <time>2026-08-22T02:34:52.000Z</time>
        <extensions>
          <ns3:TrackPointExtension>
            <ns3:hr>131</ns3:hr>
            <ns3:cad>42</ns3:cad>
          </ns3:TrackPointExtension>
        </extensions>
      </trkpt>
      <trkpt lat="45.2444855310022830963134765625" lon="-71.13298564217984676361083984375">
        <ele>996</ele>
        <time>2026-08-22T02:34:53.000Z</time>
        <extensions>
          <ns3:TrackPointExtension>
            <ns3:hr>132</ns3:hr>
            <ns3:cad>42</ns3:cad>
          </ns3:TrackPointExtension>
        </extensions>
      </trkpt>
      <trkpt lat="45.24447991512715816497802734375" lon="-71.13299251534044742584228515625">
        <ele>996.20001220703125</ele>
        <time>2026-08-22T02:34:54.000Z</time>
        <extensions>
          <ns3:TrackPointExtension>
            <ns3:hr>132</ns3:hr>
            <ns3:cad>42</ns3:cad>
          </ns3:TrackPointExtension>
        </extensions>
      </trkpt>
      <trkpt lat="45.2444761432707309722900390625" lon="-71.13299645483493804931640625">
        <ele>996.4000244140625</ele>
        <time>2026-08-22T02:34:55.000Z</time>
        <extensions>
          <ns3:TrackPointExtension>
            <ns3:hr>132</ns3:hr>
            <ns3:cad>76</ns3:cad>
          </ns3:TrackPointExtension>
        </extensions>
      </trkpt>
      <trkpt lat="45.24447555653750896453857421875" lon="-71.1329969577491283416748046875">
        <ele>996.5999755859375</ele>
        <time>2026-08-22T02:34:56.000Z</time>
        <extensions>
          <ns3:TrackPointExtension>
            <ns3:hr>131</ns3:hr>
            <ns3:cad>76</ns3:cad>
          </ns3:TrackPointExtension>
        </extensions>
      </trkpt>
      <trkpt lat="45.24447337724268436431884765625" lon="-71.13300290890038013458251953125">
        <ele>996.79998779296875</ele>
        <time>2026-08-22T02:34:57.000Z</time>
        <extensions>
          <ns3:TrackPointExtension>
            <ns3:hr>132</ns3:hr>
            <ns3:cad>76</ns3:cad>
          </ns3:TrackPointExtension>
        </extensions>
      </trkpt>
      <trkpt lat="45.2444717846810817718505859375" lon="-71.13300408236682415008544921875">
        <ele>997</ele>
        <time>2026-08-22T02:34:58.000Z</time>
        <extensions>
          <ns3:TrackPointExtension>
            <ns3:hr>131</ns3:hr>
            <ns3:cad>76</ns3:cad>
          </ns3:TrackPointExtension>
        </extensions>
      </trkpt>
      <trkpt lat="45.24446901865303516387939453125" lon="-71.1330091953277587890625">
        <ele>997.20001220703125</ele>
        <time>2026-08-22T02:34:59.000Z</time>
        <extensions>
          <ns3:TrackPointExtension>
            <ns3:hr>131</ns3:hr>
            <ns3:cad>76</ns3:cad>
          </ns3:TrackPointExtension>
        </extensions>
      </trkpt>
      <trkpt lat="45.24446533061563968658447265625" lon="-71.1330190859735012054443359375">
        <ele>997.4000244140625</ele>
        <time>2026-08-22T02:35:00.000Z</time>
        <extensions>
          <ns3:TrackPointExtension>
            <ns3:hr>131</ns3:hr>
            <ns3:cad>76</ns3:cad>
          </ns3:TrackPointExtension>
        </extensions>
      </trkpt>
      <trkpt lat="45.244461558759212493896484375" lon="-71.13302084617316722869873046875">
        <ele>997.5999755859375</ele>
        <time>2026-08-22T02:35:01.000Z</time>
        <extensions>
          <ns3:TrackPointExtension>
            <ns3:hr>131</ns3:hr>
            <ns3:cad>76</ns3:cad>
          </ns3:TrackPointExtension>
        </extensions>
      </trkpt>
      <trkpt lat="45.244459211826324462890625" lon="-71.13302520476281642913818359375">
        <ele>997.79998779296875</ele>
        <time>2026-08-22T02:35:02.000Z</time>
        <extensions>
          <ns3:TrackPointExtension>
            <ns3:hr>131</ns3:hr>
            <ns3:cad>76</ns3:cad>
          </ns3:TrackPointExtension>
        </extensions>
      </trkpt>
      <trkpt lat="45.24445393122732639312744140625" lon="-71.13303693942725658416748046875">
        <ele>998</ele>
        <time>2026-08-22T02:35:03.000Z</time>
        <extensions>
          <ns3:TrackPointExtension>
            <ns3:hr>131</ns3:hr>
            <ns3:cad>76</ns3:cad>
          </ns3:TrackPointExtension>
        </extensions>
      </trkpt>
      <trkpt lat="45.24445510469377040863037109375" lon="-71.13302922807633876800537109375">
        <ele>998.20001220703125</ele>
        <time>2026-08-22T02:35:04.000Z</time>
        <extensions>
          <ns3:TrackPointExtension>
            <ns3:hr>130</ns3:hr>
            <ns3:cad>0</ns3:cad>
          </ns3:TrackPointExtension>
        </extensions>
      </trkpt>
      <trkpt lat="45.24445309303700923919677734375" lon="-71.13302998244762420654296875">
        <ele>998.4000244140625</ele>
        <time>2026-08-22T02:35:05.000Z</time>
        <extensions>
          <ns3:TrackPointExtension>
            <ns3:hr>130</ns3:hr>
            <ns3:cad>0</ns3:cad>
          </ns3:TrackPointExtension>
        </extensions>
      </trkpt>
      <trkpt lat="45.24444320239126682281494140625" lon="-71.1330435611307621002197265625">
        <ele>998.5999755859375</ele>
        <time>2026-08-22T02:35:06.000Z</time>
        <extensions>
          <ns3:TrackPointExtension>
            <ns3:hr>130</ns3:hr>
            <ns3:cad>0</ns3:cad>
          </ns3:TrackPointExtension>
        </extensions>
      </trkpt>
      <trkpt lat="45.24443733505904674530029296875" lon="-71.13305554725229740142822265625">
        <ele>998.79998779296875</ele>
        <time>2026-08-22T02:35:07.000Z</time>
        <extensions>
          <ns3:TrackPointExtension>
            <ns3:hr>130</ns3:hr>
            <ns3:cad>0</ns3:cad>
          </ns3:TrackPointExtension>
        </extensions>
      </trkpt>
      <trkpt lat="45.24443599395453929901123046875" lon="-71.1330603249371051788330078125">
        <ele>999</ele>
        <time>2026-08-22T02:35:08.000Z</time>
        <extensions>
          <ns3:TrackPointExtension>
            <ns3:hr>130</ns3:hr>
            <ns3:cad>0</ns3:cad>
          </ns3:TrackPointExtension>
        </extensions>
      </trkpt>
      <trkpt lat="45.24442861787974834442138671875" lon="-71.1330707184970378875732421875">
        <ele>999.4000244140625</ele>
        <time>2026-08-22T02:35:09.000Z</time>
        <extensions>
          <ns3:TrackPointExtension>
            <ns3:hr>130</ns3:hr>
            <ns3:cad>0</ns3:cad>
          </ns3:TrackPointExtension>
        </extensions>
      </trkpt>
      <trkpt lat="45.244420655071735382080078125" lon="-71.1330841295421123504638671875">
        <ele>999.5999755859375</ele>
        <time>2026-08-22T02:35:10.000Z</time>
        <extensions>
          <ns3:TrackPointExtension>
            <ns3:hr>130</ns3:hr>
            <ns3:cad>0</ns3:cad>
          </ns3:TrackPointExtension>
        </extensions>
      </trkpt>
      <trkpt lat="45.244417972862720489501953125" lon="-71.1330848000943660736083984375">
        <ele>999.79998779296875</ele>
        <time>2026-08-22T02:35:11.000Z</time>
        <extensions>
          <ns3:TrackPointExtension>
            <ns3:hr>130</ns3:hr>
            <ns3:cad>0</ns3:cad>
          </ns3:TrackPointExtension>
        </extensions>
      </trkpt>
      <trkpt lat="45.2444104291498661041259765625" lon="-71.133092343807220458984375">
        <ele>1000</ele>
        <time>2026-08-22T02:35:12.000Z</time>
        <extensions>
          <ns3:TrackPointExtension>
            <ns3:hr>130</ns3:hr>
            <ns3:cad>0</ns3:cad>
          </ns3:TrackPointExtension>
        </extensions>
      </trkpt>
      <trkpt lat="45.2444070763885974884033203125" lon="-71.13309276290237903594970703125">
        <ele>1000.4000244140625</ele>
        <time>2026-08-22T02:35:13.000Z</time>
        <extensions>
          <ns3:TrackPointExtension>
            <ns3:hr>130</ns3:hr>
            <ns3:cad>0</ns3:cad>
          </ns3:TrackPointExtension>
        </extensions>
      </trkpt>
      <trkpt lat="45.244402550160884857177734375" lon="-71.1330972053110599517822265625">
        <ele>1000.5999755859375</ele>
        <time>2026-08-22T02:35:14.000Z</time>
        <extensions>
          <ns3:TrackPointExtension>
            <ns3:hr>130</ns3:hr>
            <ns3:cad>0</ns3:cad>
          </ns3:TrackPointExtension>
        </extensions>
      </trkpt>
      <trkpt lat="45.2443997003138065338134765625" lon="-71.13310215063393115997314453125">
        <ele>1000.79998779296875</ele>
        <time>2026-08-22T02:35:15.000Z</time>
        <extensions>
          <ns3:TrackPointExtension>
            <ns3:hr>130</ns3:hr>
            <ns3:cad>0</ns3:cad>
          </ns3:TrackPointExtension>
        </extensions>
      </trkpt>
      <trkpt lat="45.2444017119705677032470703125" lon="-71.13309795968234539031982421875">
        <ele>1001</ele>
        <time>2026-08-22T02:35:16.000Z</time>
        <extensions>
          <ns3:TrackPointExtension>
            <ns3:hr>131</ns3:hr>
            <ns3:cad>0</ns3:cad>
          </ns3:TrackPointExtension>
        </extensions>
      </trkpt>
      <trkpt lat="45.24440146051347255706787109375" lon="-71.13310106098651885986328125">
        <ele>1001.4000244140625</ele>
        <time>2026-08-22T02:35:17.000Z</time>
        <extensions>
          <ns3:TrackPointExtension>
            <ns3:hr>131</ns3:hr>
            <ns3:cad>0</ns3:cad>
          </ns3:TrackPointExtension>
        </extensions>
      </trkpt>
      <trkpt lat="45.2443946711719036102294921875" lon="-71.13310567103326320648193359375">
        <ele>1001.5999755859375</ele>
        <time>2026-08-22T02:35:18.000Z</time>
        <extensions>
          <ns3:TrackPointExtension>
            <ns3:hr>131</ns3:hr>
            <ns3:cad>0</ns3:cad>
          </ns3:TrackPointExtension>
        </extensions>
      </trkpt>
      <trkpt lat="45.2443883009254932403564453125" lon="-71.1331143043935298919677734375">
        <ele>1001.5999755859375</ele>
        <time>2026-08-22T02:35:19.000Z</time>
        <extensions>
          <ns3:TrackPointExtension>
            <ns3:hr>131</ns3:hr>
            <ns3:cad>0</ns3:cad>
          </ns3:TrackPointExtension>
        </extensions>
      </trkpt>
      <trkpt lat="45.24438821710646152496337890625" lon="-71.13312327302992343902587890625">
        <ele>1001.79998779296875</ele>
        <time>2026-08-22T02:35:20.000Z</time>
        <extensions>
          <ns3:TrackPointExtension>
            <ns3:hr>131</ns3:hr>
            <ns3:cad>0</ns3:cad>
          </ns3:TrackPointExtension>
        </extensions>
      </trkpt>
      <trkpt lat="45.244385786354541778564453125" lon="-71.133134253323078155517578125">
        <ele>1002.20001220703125</ele>
        <time>2026-08-22T02:35:21.000Z</time>
        <extensions>
          <ns3:TrackPointExtension>
            <ns3:hr>131</ns3:hr>
            <ns3:cad>0</ns3:cad>
          </ns3:TrackPointExtension>
        </extensions>
      </trkpt>
      <trkpt lat="45.24438167922198772430419921875" lon="-71.133141629397869110107421875">
        <ele>1002.4000244140625</ele>
        <time>2026-08-22T02:35:22.000Z</time>
        <extensions>
          <ns3:TrackPointExtension>
            <ns3:hr>131</ns3:hr>
            <ns3:cad>0</ns3:cad>
          </ns3:TrackPointExtension>
        </extensions>
      </trkpt>
      <trkpt lat="45.24438075721263885498046875" lon="-71.13315277732908725738525390625">
        <ele>1002.5999755859375</ele>
        <time>2026-08-22T02:35:23.000Z</time>
        <extensions>
          <ns3:TrackPointExtension>
            <ns3:hr>131</ns3:hr>
            <ns3:cad>0</ns3:cad>
          </ns3:TrackPointExtension>
        </extensions>
      </trkpt>
      <trkpt lat="45.2443822659552097320556640625" lon="-71.1331562139093875885009765625">
        <ele>1002.79998779296875</ele>
        <time>2026-08-22T02:35:24.000Z</time>
        <extensions>
          <ns3:TrackPointExtension>
            <ns3:hr>131</ns3:hr>
            <ns3:cad>0</ns3:cad>
          </ns3:TrackPointExtension>
        </extensions>
      </trkpt>
      <trkpt lat="45.24438352324068546295166015625" lon="-71.13315998576581478118896484375">
        <ele>1003</ele>
        <time>2026-08-22T02:35:25.000Z</time>
        <extensions>
          <ns3:TrackPointExtension>
            <ns3:hr>132</ns3:hr>
            <ns3:cad>0</ns3:cad>
          </ns3:TrackPointExtension>
        </extensions>
      </trkpt>
      <trkpt lat="45.24438184686005115509033203125" lon="-71.13317239098250865936279296875">
        <ele>1003.20001220703125</ele>
        <time>2026-08-22T02:35:26.000Z</time>
        <extensions>
          <ns3:TrackPointExtension>
            <ns3:hr>132</ns3:hr>
            <ns3:cad>0</ns3:cad>
          </ns3:TrackPointExtension>
        </extensions>
      </trkpt>
      <trkpt lat="45.24438134394586086273193359375" lon="-71.13318211399018764495849609375">
        <ele>1003.4000244140625</ele>
        <time>2026-08-22T02:35:27.000Z</time>
        <extensions>
          <ns3:TrackPointExtension>
            <ns3:hr>133</ns3:hr>
            <ns3:cad>0</ns3:cad>
          </ns3:TrackPointExtension>
        </extensions>
      </trkpt>
      <trkpt lat="45.24438587017357349395751953125" lon="-71.1331786774098873138427734375">
        <ele>1003.5999755859375</ele>
        <time>2026-08-22T02:35:28.000Z</time>
        <extensions>
          <ns3:TrackPointExtension>
            <ns3:hr>133</ns3:hr>
            <ns3:cad>0</ns3:cad>
          </ns3:TrackPointExtension>
        </extensions>
      </trkpt>
      <trkpt lat="45.24438737891614437103271484375" lon="-71.13317440263926982879638671875">
        <ele>1003.79998779296875</ele>
        <time>2026-08-22T02:35:29.000Z</time>
        <extensions>
          <ns3:TrackPointExtension>
            <ns3:hr>134</ns3:hr>
            <ns3:cad>0</ns3:cad>
          </ns3:TrackPointExtension>
        </extensions>
      </trkpt>
      <trkpt lat="45.2443881332874298095703125" lon="-71.133181191980838775634765625">
        <ele>1004</ele>
        <time>2026-08-22T02:35:30.000Z</time>
        <extensions>
          <ns3:TrackPointExtension>
            <ns3:hr>134</ns3:hr>
            <ns3:cad>0</ns3:cad>
          </ns3:TrackPointExtension>
        </extensions>
      </trkpt>
      <trkpt lat="45.24438704364001750946044921875" lon="-71.13319586031138896942138671875">
        <ele>1004.20001220703125</ele>
        <time>2026-08-22T02:35:31.000Z</time>
        <extensions>
          <ns3:TrackPointExtension>
            <ns3:hr>135</ns3:hr>
            <ns3:cad>0</ns3:cad>
          </ns3:TrackPointExtension>
        </extensions>
      </trkpt>
      <trkpt lat="45.2443903125822544097900390625" lon="-71.133195944130420684814453125">
        <ele>1004.4000244140625</ele>
        <time>2026-08-22T02:35:32.000Z</time>
        <extensions>
          <ns3:TrackPointExtension>
            <ns3:hr>136</ns3:hr>
            <ns3:cad>0</ns3:cad>
          </ns3:TrackPointExtension>
        </extensions>
      </trkpt>
      <trkpt lat="45.24439282715320587158203125" lon="-71.13320809789001941680908203125">
        <ele>1004.5999755859375</ele>
        <time>2026-08-22T02:35:33.000Z</time>
        <extensions>
          <ns3:TrackPointExtension>
            <ns3:hr>136</ns3:hr>
            <ns3:cad>0</ns3:cad>
          </ns3:TrackPointExtension>
        </extensions>
      </trkpt>
      <trkpt lat="45.24439391680061817169189453125" lon="-71.13321228884160518646240234375">
        <ele>1004.79998779296875</ele>
        <time>2026-08-22T02:35:34.000Z</time>
        <extensions>
          <ns3:TrackPointExtension>
            <ns3:hr>136</ns3:hr>
            <ns3:cad>0</ns3:cad>
          </ns3:TrackPointExtension>
        </extensions>
      </trkpt>
      <trkpt lat="45.244391150772571563720703125" lon="-71.13323190249502658843994140625">
        <ele>1005</ele>
        <time>2026-08-22T02:35:35.000Z</time>
        <extensions>
          <ns3:TrackPointExtension>
            <ns3:hr>136</ns3:hr>
            <ns3:cad>0</ns3:cad>
          </ns3:TrackPointExtension>
        </extensions>
      </trkpt>
      <trkpt lat="45.24438637308776378631591796875" lon="-71.13324112258851528167724609375">
        <ele>1005.20001220703125</ele>
        <time>2026-08-22T02:35:36.000Z</time>
        <extensions>
          <ns3:TrackPointExtension>
            <ns3:hr>136</ns3:hr>
            <ns3:cad>0</ns3:cad>
          </ns3:TrackPointExtension>
        </extensions>
      </trkpt>
      <trkpt lat="45.24438201449811458587646484375" lon="-71.13325067795813083648681640625">
        <ele>1005.4000244140625</ele>
        <time>2026-08-22T02:35:37.000Z</time>
        <extensions>
          <ns3:TrackPointExtension>
            <ns3:hr>136</ns3:hr>
            <ns3:cad>0</ns3:cad>
          </ns3:TrackPointExtension>
        </extensions>
      </trkpt>
      <trkpt lat="45.24437807500362396240234375" lon="-71.1332544498145580291748046875">
        <ele>1005.4000244140625</ele>
        <time>2026-08-22T02:35:38.000Z</time>
        <extensions>
          <ns3:TrackPointExtension>
            <ns3:hr>136</ns3:hr>
            <ns3:cad>0</ns3:cad>
          </ns3:TrackPointExtension>
        </extensions>
      </trkpt>
      <trkpt lat="45.24437078274786472320556640625" lon="-71.13327280618250370025634765625">
        <ele>1005.5999755859375</ele>
        <time>2026-08-22T02:35:39.000Z</time>
        <extensions>
          <ns3:TrackPointExtension>
            <ns3:hr>137</ns3:hr>
            <ns3:cad>0</ns3:cad>
          </ns3:TrackPointExtension>
        </extensions>
      </trkpt>
      <trkpt lat="45.24436994455754756927490234375" lon="-71.13327263854444026947021484375">
        <ele>1005.79998779296875</ele>
        <time>2026-08-22T02:35:40.000Z</time>
        <extensions>
          <ns3:TrackPointExtension>
            <ns3:hr>137</ns3:hr>
            <ns3:cad>0</ns3:cad>
          </ns3:TrackPointExtension>
        </extensions>
      </trkpt>
      <trkpt lat="45.2443665079772472381591796875" lon="-71.13328437320888042449951171875">
        <ele>1006.20001220703125</ele>
        <time>2026-08-22T02:35:41.000Z</time>
        <extensions>
          <ns3:TrackPointExtension>
            <ns3:hr>137</ns3:hr>
            <ns3:cad>0</ns3:cad>
          </ns3:TrackPointExtension>
        </extensions>
      </trkpt>
      <trkpt lat="45.2443638257682323455810546875" lon="-71.13329091109335422515869140625">
        <ele>1006.4000244140625</ele>
        <time>2026-08-22T02:35:42.000Z</time>
        <extensions>
          <ns3:TrackPointExtension>
            <ns3:hr>137</ns3:hr>
            <ns3:cad>0</ns3:cad>
          </ns3:TrackPointExtension>
        </extensions>
      </trkpt>
      <trkpt lat="45.2443621493875980377197265625" lon="-71.13329392857849597930908203125">
        <ele>1006.5999755859375</ele>
        <time>2026-08-22T02:35:43.000Z</time>
        <extensions>
          <ns3:TrackPointExtension>
            <ns3:hr>137</ns3:hr>
            <ns3:cad>0</ns3:cad>
          </ns3:TrackPointExtension>
        </extensions>
      </trkpt>
      <trkpt lat="45.24435670115053653717041015625" lon="-71.13330516032874584197998046875">
        <ele>1006.79998779296875</ele>
        <time>2026-08-22T02:35:44.000Z</time>
        <extensions>
          <ns3:TrackPointExtension>
            <ns3:hr>137</ns3:hr>
            <ns3:cad>0</ns3:cad>
          </ns3:TrackPointExtension>
        </extensions>
      </trkpt>
      <trkpt lat="45.244349576532840728759765625" lon="-71.1333109438419342041015625">
        <ele>1007</ele>
        <time>2026-08-22T02:35:45.000Z</time>
        <extensions>
          <ns3:TrackPointExtension>
            <ns3:hr>138</ns3:hr>
            <ns3:cad>0</ns3:cad>
          </ns3:TrackPointExtension>
        </extensions>
      </trkpt>
      <trkpt lat="45.2443514205515384674072265625" lon="-71.1333188228309154510498046875">
        <ele>1007.20001220703125</ele>
        <time>2026-08-22T02:35:46.000Z</time>
        <extensions>
          <ns3:TrackPointExtension>
            <ns3:hr>138</ns3:hr>
            <ns3:cad>0</ns3:cad>
          </ns3:TrackPointExtension>
        </extensions>
      </trkpt>
      <trkpt lat="45.244346894323825836181640625" lon="-71.13332779146730899810791015625">
        <ele>1007.4000244140625</ele>
        <time>2026-08-22T02:35:47.000Z</time>
        <extensions>
          <ns3:TrackPointExtension>
            <ns3:hr>138</ns3:hr>
            <ns3:cad>0</ns3:cad>
          </ns3:TrackPointExtension>
        </extensions>
      </trkpt>
      <trkpt lat="45.244343541562557220458984375" lon="-71.1333315633237361907958984375">
        <ele>1007.79998779296875</ele>
        <time>2026-08-22T02:35:48.000Z</time>
        <extensions>
          <ns3:TrackPointExtension>
            <ns3:hr>138</ns3:hr>
            <ns3:cad>0</ns3:cad>
          </ns3:TrackPointExtension>
        </extensions>
      </trkpt>
      <trkpt lat="45.24433784186840057373046875" lon="-71.13333801738917827606201171875">
        <ele>1008</ele>
        <time>2026-08-22T02:35:49.000Z</time>
        <extensions>
          <ns3:TrackPointExtension>
            <ns3:hr>138</ns3:hr>
            <ns3:cad>0</ns3:cad>
          </ns3:TrackPointExtension>
        </extensions>
      </trkpt>
      <trkpt lat="45.2443299628794193267822265625" lon="-71.13334388472139835357666015625">
        <ele>1008.20001220703125</ele>
        <time>2026-08-22T02:35:50.000Z</time>
        <extensions>
          <ns3:TrackPointExtension>
            <ns3:hr>138</ns3:hr>
            <ns3:cad>0</ns3:cad>
          </ns3:TrackPointExtension>
        </extensions>
      </trkpt>
      <trkpt lat="45.2443205751478672027587890625" lon="-71.13335344009101390838623046875">
        <ele>1008.4000244140625</ele>
        <time>2026-08-22T02:35:51.000Z</time>
        <extensions>
          <ns3:TrackPointExtension>
            <ns3:hr>138</ns3:hr>
            <ns3:cad>0</ns3:cad>
          </ns3:TrackPointExtension>
        </extensions>
      </trkpt>
      <trkpt lat="45.24431311525404453277587890625" lon="-71.13336232490837574005126953125">
        <ele>1008.5999755859375</ele>
        <time>2026-08-22T02:35:52.000Z</time>
        <extensions>
          <ns3:TrackPointExtension>
            <ns3:hr>138</ns3:hr>
            <ns3:cad>0</ns3:cad>
          </ns3:TrackPointExtension>
        </extensions>
      </trkpt>
      <trkpt lat="45.24431043304502964019775390625" lon="-71.13336232490837574005126953125">
        <ele>1008.79998779296875</ele>
        <time>2026-08-22T02:35:53.000Z</time>
        <extensions>
          <ns3:TrackPointExtension>
            <ns3:hr>138</ns3:hr>
            <ns3:cad>0</ns3:cad>
          </ns3:TrackPointExtension>
        </extensions>
      </trkpt>
      <trkpt lat="45.2443011291325092315673828125" lon="-71.13337221555411815643310546875">
        <ele>1009</ele>
        <time>2026-08-22T02:35:54.000Z</time>
        <extensions>
          <ns3:TrackPointExtension>
            <ns3:hr>138</ns3:hr>
            <ns3:cad>0</ns3:cad>
          </ns3:TrackPointExtension>
        </extensions>
      </trkpt>
      <trkpt lat="45.2443058229982852935791015625" lon="-71.13336299546062946319580078125">
        <ele>1009.4000244140625</ele>
        <time>2026-08-22T02:35:55.000Z</time>
        <extensions>
          <ns3:TrackPointExtension>
            <ns3:hr>138</ns3:hr>
            <ns3:cad>0</ns3:cad>
          </ns3:TrackPointExtension>
        </extensions>
      </trkpt>
      <trkpt lat="45.244298279285430908203125" lon="-71.133376322686672210693359375">
        <ele>1009.5999755859375</ele>
        <time>2026-08-22T02:35:56.000Z</time>
        <extensions>
          <ns3:TrackPointExtension>
            <ns3:hr>138</ns3:hr>
            <ns3:cad>0</ns3:cad>
          </ns3:TrackPointExtension>
        </extensions>
      </trkpt>
      <trkpt lat="45.24429366923868656158447265625" lon="-71.1333852075040340423583984375">
        <ele>1009.79998779296875</ele>
        <time>2026-08-22T02:35:57.000Z</time>
        <extensions>
          <ns3:TrackPointExtension>
            <ns3:hr>138</ns3:hr>
            <ns3:cad>0</ns3:cad>
          </ns3:TrackPointExtension>
        </extensions>
      </trkpt>
      <trkpt lat="45.24429090321063995361328125" lon="-71.1333925835788249969482421875">
        <ele>1010.20001220703125</ele>
        <time>2026-08-22T02:35:58.000Z</time>
        <extensions>
          <ns3:TrackPointExtension>
            <ns3:hr>139</ns3:hr>
            <ns3:cad>0</ns3:cad>
          </ns3:TrackPointExtension>
        </extensions>
      </trkpt>
      <trkpt lat="45.24428017437458038330078125" lon="-71.13340842537581920623779296875">
        <ele>1010.20001220703125</ele>
        <time>2026-08-22T02:35:59.000Z</time>
        <extensions>
          <ns3:TrackPointExtension>
            <ns3:hr>139</ns3:hr>
            <ns3:cad>0</ns3:cad>
          </ns3:TrackPointExtension>
        </extensions>
      </trkpt>
      <trkpt lat="45.24427539668977260589599609375" lon="-71.1334096826612949371337890625">
        <ele>1010.4000244140625</ele>
        <time>2026-08-22T02:36:00.000Z</time>
        <extensions>
          <ns3:TrackPointExtension>
            <ns3:hr>140</ns3:hr>
            <ns3:cad>0</ns3:cad>
          </ns3:TrackPointExtension>
        </extensions>
      </trkpt>
      <trkpt lat="45.24426852352917194366455078125" lon="-71.13341714255511760711669921875">
        <ele>1010.5999755859375</ele>
        <time>2026-08-22T02:36:01.000Z</time>
        <extensions>
          <ns3:TrackPointExtension>
            <ns3:hr>140</ns3:hr>
            <ns3:cad>0</ns3:cad>
          </ns3:TrackPointExtension>
        </extensions>
      </trkpt>
      <trkpt lat="45.2442632429301738739013671875" lon="-71.13342418335378170013427734375">
        <ele>1010.5999755859375</ele>
        <time>2026-08-22T02:36:02.000Z</time>
        <extensions>
          <ns3:TrackPointExtension>
            <ns3:hr>140</ns3:hr>
            <ns3:cad>0</ns3:cad>
          </ns3:TrackPointExtension>
        </extensions>
      </trkpt>
      <trkpt lat="45.2442595548927783966064453125" lon="-71.1334284581243991851806640625">
        <ele>1010.79998779296875</ele>
        <time>2026-08-22T02:36:03.000Z</time>
        <extensions>
          <ns3:TrackPointExtension>
            <ns3:hr>140</ns3:hr>
            <ns3:cad>0</ns3:cad>
          </ns3:TrackPointExtension>
        </extensions>
      </trkpt>
      <trkpt lat="45.24425293318927288055419921875" lon="-71.13344714976847171783447265625">
        <ele>1011</ele>
        <time>2026-08-22T02:36:04.000Z</time>
        <extensions>
          <ns3:TrackPointExtension>
            <ns3:hr>139</ns3:hr>
            <ns3:cad>0</ns3:cad>
          </ns3:TrackPointExtension>
        </extensions>
      </trkpt>
      <trkpt lat="45.24425561539828777313232421875" lon="-71.13345854915678501129150390625">
        <ele>1011.20001220703125</ele>
        <time>2026-08-22T02:36:05.000Z</time>
        <extensions>
          <ns3:TrackPointExtension>
            <ns3:hr>140</ns3:hr>
            <ns3:cad>0</ns3:cad>
          </ns3:TrackPointExtension>
        </extensions>
      </trkpt>
      <trkpt lat="45.24425980634987354278564453125" lon="-71.133466847240924835205078125">
        <ele>1011.4000244140625</ele>
        <time>2026-08-22T02:36:06.000Z</time>
        <extensions>
          <ns3:TrackPointExtension>
            <ns3:hr>141</ns3:hr>
            <ns3:cad>0</ns3:cad>
          </ns3:TrackPointExtension>
        </extensions>
      </trkpt>
      <trkpt lat="45.24425469338893890380859375" lon="-71.13347246311604976654052734375">
        <ele>1011.5999755859375</ele>
        <time>2026-08-22T02:36:07.000Z</time>
        <extensions>
          <ns3:TrackPointExtension>
            <ns3:hr>142</ns3:hr>
            <ns3:cad>0</ns3:cad>
          </ns3:TrackPointExtension>
        </extensions>
      </trkpt>
      <trkpt lat="45.24425393901765346527099609375" lon="-71.13348235376179218292236328125">
        <ele>1011.79998779296875</ele>
        <time>2026-08-22T02:36:08.000Z</time>
        <extensions>
          <ns3:TrackPointExtension>
            <ns3:hr>144</ns3:hr>
            <ns3:cad>40</ns3:cad>
          </ns3:TrackPointExtension>
        </extensions>
      </trkpt>
      <trkpt lat="45.24425075389444828033447265625" lon="-71.133491657674312591552734375">
        <ele>1012</ele>
        <time>2026-08-22T02:36:09.000Z</time>
        <extensions>
          <ns3:TrackPointExtension>
            <ns3:hr>144</ns3:hr>
            <ns3:cad>40</ns3:cad>
          </ns3:TrackPointExtension>
        </extensions>
      </trkpt>
      <trkpt lat="45.24424404837191104888916015625" lon="-71.13350548781454563140869140625">
        <ele>1012.20001220703125</ele>
        <time>2026-08-22T02:36:10.000Z</time>
        <extensions>
          <ns3:TrackPointExtension>
            <ns3:hr>145</ns3:hr>
            <ns3:cad>0</ns3:cad>
          </ns3:TrackPointExtension>
        </extensions>
      </trkpt>
      <trkpt lat="45.24424036033451557159423828125" lon="-71.133513115346431732177734375">
        <ele>1012.4000244140625</ele>
        <time>2026-08-22T02:36:11.000Z</time>
        <extensions>
          <ns3:TrackPointExtension>
            <ns3:hr>145</ns3:hr>
            <ns3:cad>0</ns3:cad>
          </ns3:TrackPointExtension>
        </extensions>
      </trkpt>
      <trkpt lat="45.24423499591648578643798828125" lon="-71.133523173630237579345703125">
        <ele>1012.5999755859375</ele>
        <time>2026-08-22T02:36:12.000Z</time>
        <extensions>
          <ns3:TrackPointExtension>
            <ns3:hr>144</ns3:hr>
            <ns3:cad>0</ns3:cad>
          </ns3:TrackPointExtension>
        </extensions>
      </trkpt>
      <trkpt lat="45.24423482827842235565185546875" lon="-71.133525185286998748779296875">
        <ele>1012.5999755859375</ele>
        <time>2026-08-22T02:36:13.000Z</time>
        <extensions>
          <ns3:TrackPointExtension>
            <ns3:hr>143</ns3:hr>
            <ns3:cad>0</ns3:cad>
          </ns3:TrackPointExtension>
        </extensions>
      </trkpt>
      <trkpt lat="45.24422929622232913970947265625" lon="-71.1335300467908382415771484375">
        <ele>1012.79998779296875</ele>
        <time>2026-08-22T02:36:14.000Z</time>
        <extensions>
          <ns3:TrackPointExtension>
            <ns3:hr>143</ns3:hr>
            <ns3:cad>0</ns3:cad>
          </ns3:TrackPointExtension>
        </extensions>
      </trkpt>
      <trkpt lat="45.24421982467174530029296875" lon="-71.13354203291237354278564453125">
        <ele>1013</ele>
        <time>2026-08-22T02:36:15.000Z</time>
        <extensions>
          <ns3:TrackPointExtension>
            <ns3:hr>143</ns3:hr>
            <ns3:cad>0</ns3:cad>
          </ns3:TrackPointExtension>
        </extensions>
      </trkpt>
      <trkpt lat="45.24421957321465015411376953125" lon="-71.13355561159551143646240234375">
        <ele>1013.20001220703125</ele>
        <time>2026-08-22T02:36:16.000Z</time>
        <extensions>
          <ns3:TrackPointExtension>
            <ns3:hr>143</ns3:hr>
            <ns3:cad>0</ns3:cad>
          </ns3:TrackPointExtension>
        </extensions>
      </trkpt>
      <trkpt lat="45.2442142926156520843505859375" lon="-71.1335657536983489990234375">
        <ele>1013.20001220703125</ele>
        <time>2026-08-22T02:36:17.000Z</time>
        <extensions>
          <ns3:TrackPointExtension>
            <ns3:hr>144</ns3:hr>
            <ns3:cad>19</ns3:cad>
          </ns3:TrackPointExtension>
        </extensions>
      </trkpt>
      <trkpt lat="45.244216807186603546142578125" lon="-71.1335753090679645538330078125">
        <ele>1013.4000244140625</ele>
        <time>2026-08-22T02:36:18.000Z</time>
        <extensions>
          <ns3:TrackPointExtension>
            <ns3:hr>145</ns3:hr>
            <ns3:cad>0</ns3:cad>
          </ns3:TrackPointExtension>
        </extensions>
      </trkpt>
      <trkpt lat="45.2442159689962863922119140625" lon="-71.1335857026278972625732421875">
        <ele>1013.5999755859375</ele>
        <time>2026-08-22T02:36:19.000Z</time>
        <extensions>
          <ns3:TrackPointExtension>
            <ns3:hr>146</ns3:hr>
            <ns3:cad>0</ns3:cad>
          </ns3:TrackPointExtension>
        </extensions>
      </trkpt>
      <trkpt lat="45.24421554990112781524658203125" lon="-71.1335900612175464630126953125">
        <ele>1013.79998779296875</ele>
        <time>2026-08-22T02:36:20.000Z</time>
        <extensions>
          <ns3:TrackPointExtension>
            <ns3:hr>147</ns3:hr>
            <ns3:cad>0</ns3:cad>
          </ns3:TrackPointExtension>
        </extensions>
      </trkpt>
      <trkpt lat="45.24421538226306438446044921875" lon="-71.13360221497714519500732421875">
        <ele>1014</ele>
        <time>2026-08-22T02:36:21.000Z</time>
        <extensions>
          <ns3:TrackPointExtension>
            <ns3:hr>147</ns3:hr>
            <ns3:cad>0</ns3:cad>
          </ns3:TrackPointExtension>
        </extensions>
      </trkpt>
      <trkpt lat="45.2442132867872714996337890625" lon="-71.1336168833076953887939453125">
        <ele>1014.20001220703125</ele>
        <time>2026-08-22T02:36:22.000Z</time>
        <extensions>
          <ns3:TrackPointExtension>
            <ns3:hr>146</ns3:hr>
            <ns3:cad>0</ns3:cad>
          </ns3:TrackPointExtension>
        </extensions>
      </trkpt>
      <trkpt lat="45.2442149631679058074951171875" lon="-71.13361612893640995025634765625">
        <ele>1014.4000244140625</ele>
        <time>2026-08-22T02:36:23.000Z</time>
        <extensions>
          <ns3:TrackPointExtension>
            <ns3:hr>145</ns3:hr>
            <ns3:cad>0</ns3:cad>
          </ns3:TrackPointExtension>
        </extensions>
      </trkpt>
      <trkpt lat="45.244208090007305145263671875" lon="-71.1336296238005161285400390625">
        <ele>1014.4000244140625</ele>
        <time>2026-08-22T02:36:24.000Z</time>
        <extensions>
          <ns3:TrackPointExtension>
            <ns3:hr>144</ns3:hr>
            <ns3:cad>0</ns3:cad>
          </ns3:TrackPointExtension>
        </extensions>
      </trkpt>
      <trkpt lat="45.2442052401602268218994140625" lon="-71.13363976590335369110107421875">
        <ele>1014.5999755859375</ele>
        <time>2026-08-22T02:36:25.000Z</time>
        <extensions>
          <ns3:TrackPointExtension>
            <ns3:hr>144</ns3:hr>
            <ns3:cad>0</ns3:cad>
          </ns3:TrackPointExtension>
        </extensions>
      </trkpt>
      <trkpt lat="45.2442002110183238983154296875" lon="-71.1336497403681278228759765625">
        <ele>1014.79998779296875</ele>
        <time>2026-08-22T02:36:26.000Z</time>
        <extensions>
          <ns3:TrackPointExtension>
            <ns3:hr>144</ns3:hr>
            <ns3:cad>0</ns3:cad>
          </ns3:TrackPointExtension>
        </extensions>
      </trkpt>
      <trkpt lat="45.24419694207608699798583984375" lon="-71.13364915363490581512451171875">
        <ele>1015</ele>
        <time>2026-08-22T02:36:27.000Z</time>
        <extensions>
          <ns3:TrackPointExtension>
            <ns3:hr>143</ns3:hr>
            <ns3:cad>0</ns3:cad>
          </ns3:TrackPointExtension>
        </extensions>
      </trkpt>
      <trkpt lat="45.2441945113241672515869140625" lon="-71.1336608044803142547607421875">
        <ele>1015.20001220703125</ele>
        <time>2026-08-22T02:36:28.000Z</time>
        <extensions>
          <ns3:TrackPointExtension>
            <ns3:hr>143</ns3:hr>
            <ns3:cad>0</ns3:cad>
          </ns3:TrackPointExtension>
        </extensions>
      </trkpt>
      <trkpt lat="45.244187302887439727783203125" lon="-71.1336755566298961639404296875">
        <ele>1015.4000244140625</ele>
        <time>2026-08-22T02:36:29.000Z</time>
        <extensions>
          <ns3:TrackPointExtension>
            <ns3:hr>143</ns3:hr>
            <ns3:cad>0</ns3:cad>
          </ns3:TrackPointExtension>
        </extensions>
      </trkpt>
      <trkpt lat="45.24418118409812450408935546875" lon="-71.1336869560182094573974609375">
        <ele>1015.5999755859375</ele>
        <time>2026-08-22T02:36:30.000Z</time>
        <extensions>
          <ns3:TrackPointExtension>
            <ns3:hr>144</ns3:hr>
            <ns3:cad>41</ns3:cad>
          </ns3:TrackPointExtension>
        </extensions>
      </trkpt>
      <trkpt lat="45.2441750653088092803955078125" lon="-71.13369978033006191253662109375">
        <ele>1015.79998779296875</ele>
        <time>2026-08-22T02:36:31.000Z</time>
        <extensions>
          <ns3:TrackPointExtension>
            <ns3:hr>144</ns3:hr>
            <ns3:cad>41</ns3:cad>
          </ns3:TrackPointExtension>
        </extensions>
      </trkpt>
      <trkpt lat="45.24416928179562091827392578125" lon="-71.133705563843250274658203125">
        <ele>1016</ele>
        <time>2026-08-22T02:36:32.000Z</time>
        <extensions>
          <ns3:TrackPointExtension>
            <ns3:hr>144</ns3:hr>
            <ns3:cad>41</ns3:cad>
          </ns3:TrackPointExtension>
        </extensions>
      </trkpt>
      <trkpt lat="45.24416291154921054840087890625" lon="-71.1337191425263881683349609375">
        <ele>1016.20001220703125</ele>
        <time>2026-08-22T02:36:33.000Z</time>
        <extensions>
          <ns3:TrackPointExtension>
            <ns3:hr>144</ns3:hr>
            <ns3:cad>41</ns3:cad>
          </ns3:TrackPointExtension>
        </extensions>
      </trkpt>
      <trkpt lat="45.24415805004537105560302734375" lon="-71.13372509367763996124267578125">
        <ele>1016.4000244140625</ele>
        <time>2026-08-22T02:36:34.000Z</time>
        <extensions>
          <ns3:TrackPointExtension>
            <ns3:hr>144</ns3:hr>
            <ns3:cad>0</ns3:cad>
          </ns3:TrackPointExtension>
        </extensions>
      </trkpt>
      <trkpt lat="45.2441522665321826934814453125" lon="-71.13373213447630405426025390625">
        <ele>1016.5999755859375</ele>
        <time>2026-08-22T02:36:35.000Z</time>
        <extensions>
          <ns3:TrackPointExtension>
            <ns3:hr>145</ns3:hr>
            <ns3:cad>0</ns3:cad>
          </ns3:TrackPointExtension>
        </extensions>
      </trkpt>
      <trkpt lat="45.24414815939962863922119140625" lon="-71.1337406001985073089599609375">
        <ele>1016.5999755859375</ele>
        <time>2026-08-22T02:36:36.000Z</time>
        <extensions>
          <ns3:TrackPointExtension>
            <ns3:hr>145</ns3:hr>
            <ns3:cad>0</ns3:cad>
          </ns3:TrackPointExtension>
        </extensions>
      </trkpt>
      <trkpt lat="45.2441445551812648773193359375" lon="-71.13375392742455005645751953125">
        <ele>1016.79998779296875</ele>
        <time>2026-08-22T02:36:37.000Z</time>
        <extensions>
          <ns3:TrackPointExtension>
            <ns3:hr>145</ns3:hr>
            <ns3:cad>0</ns3:cad>
          </ns3:TrackPointExtension>
        </extensions>
      </trkpt>
      <trkpt lat="45.24414195679128170013427734375" lon="-71.133758537471294403076171875">
        <ele>1017</ele>
        <time>2026-08-22T02:36:38.000Z</time>
        <extensions>
          <ns3:TrackPointExtension>
            <ns3:hr>145</ns3:hr>
            <ns3:cad>0</ns3:cad>
          </ns3:TrackPointExtension>
        </extensions>
      </trkpt>
      <trkpt lat="45.24413575418293476104736328125" lon="-71.13376918248832225799560546875">
        <ele>1017.20001220703125</ele>
        <time>2026-08-22T02:36:39.000Z</time>
        <extensions>
          <ns3:TrackPointExtension>
            <ns3:hr>144</ns3:hr>
            <ns3:cad>0</ns3:cad>
          </ns3:TrackPointExtension>
        </extensions>
      </trkpt>
      <trkpt lat="45.24413533508777618408203125" lon="-71.13378242589533329010009765625">
        <ele>1017.4000244140625</ele>
        <time>2026-08-22T02:36:40.000Z</time>
        <extensions>
          <ns3:TrackPointExtension>
            <ns3:hr>144</ns3:hr>
            <ns3:cad>0</ns3:cad>
          </ns3:TrackPointExtension>
        </extensions>
      </trkpt>
      <trkpt lat="45.24412460625171661376953125" lon="-71.13380136899650096893310546875">
        <ele>1017.5999755859375</ele>
        <time>2026-08-22T02:36:41.000Z</time>
        <extensions>
          <ns3:TrackPointExtension>
            <ns3:hr>145</ns3:hr>
            <ns3:cad>0</ns3:cad>
          </ns3:TrackPointExtension>
        </extensions>
      </trkpt>
      <trkpt lat="45.24412603117525577545166015625" lon="-71.1338019557297229766845703125">
        <ele>1017.79998779296875</ele>
        <time>2026-08-22T02:36:42.000Z</time>
        <extensions>
          <ns3:TrackPointExtension>
            <ns3:hr>145</ns3:hr>
            <ns3:cad>0</ns3:cad>
          </ns3:TrackPointExtension>
        </extensions>
      </trkpt>
      <trkpt lat="45.24412116967141628265380859375" lon="-71.13381762988865375518798828125">
        <ele>1018</ele>
        <time>2026-08-22T02:36:43.000Z</time>
        <extensions>
          <ns3:TrackPointExtension>
            <ns3:hr>145</ns3:hr>
            <ns3:cad>0</ns3:cad>
          </ns3:TrackPointExtension>
        </extensions>
      </trkpt>
      <trkpt lat="45.24411329068243503570556640625" lon="-71.13382953219115734100341796875">
        <ele>1018</ele>
        <time>2026-08-22T02:36:44.000Z</time>
        <extensions>
          <ns3:TrackPointExtension>
            <ns3:hr>145</ns3:hr>
            <ns3:cad>0</ns3:cad>
          </ns3:TrackPointExtension>
        </extensions>
      </trkpt>
      <trkpt lat="45.2441073395311832427978515625" lon="-71.133842356503009796142578125">
        <ele>1018.20001220703125</ele>
        <time>2026-08-22T02:36:45.000Z</time>
        <extensions>
          <ns3:TrackPointExtension>
            <ns3:hr>145</ns3:hr>
            <ns3:cad>0</ns3:cad>
          </ns3:TrackPointExtension>
        </extensions>
      </trkpt>
      <trkpt lat="45.24410189129412174224853515625" lon="-71.13385585136711597442626953125">
        <ele>1018.20001220703125</ele>
        <time>2026-08-22T02:36:46.000Z</time>
        <extensions>
          <ns3:TrackPointExtension>
            <ns3:hr>144</ns3:hr>
            <ns3:cad>0</ns3:cad>
          </ns3:TrackPointExtension>
        </extensions>
      </trkpt>
      <trkpt lat="45.244096778333187103271484375" lon="-71.13387026824057102203369140625">
        <ele>1018.4000244140625</ele>
        <time>2026-08-22T02:36:47.000Z</time>
        <extensions>
          <ns3:TrackPointExtension>
            <ns3:hr>144</ns3:hr>
            <ns3:cad>0</ns3:cad>
          </ns3:TrackPointExtension>
        </extensions>
      </trkpt>
      <trkpt lat="45.24409049190580844879150390625" lon="-71.13388200290501117706298828125">
        <ele>1018.5999755859375</ele>
        <time>2026-08-22T02:36:48.000Z</time>
        <extensions>
          <ns3:TrackPointExtension>
            <ns3:hr>144</ns3:hr>
            <ns3:cad>45</ns3:cad>
          </ns3:TrackPointExtension>
        </extensions>
      </trkpt>
      <trkpt lat="45.24408747442066669464111328125" lon="-71.133893989026546478271484375">
        <ele>1018.79998779296875</ele>
        <time>2026-08-22T02:36:49.000Z</time>
        <extensions>
          <ns3:TrackPointExtension>
            <ns3:hr>143</ns3:hr>
            <ns3:cad>45</ns3:cad>
          </ns3:TrackPointExtension>
        </extensions>
      </trkpt>
      <trkpt lat="45.2440811879932880401611328125" lon="-71.13390505313873291015625">
        <ele>1018.79998779296875</ele>
        <time>2026-08-22T02:36:50.000Z</time>
        <extensions>
          <ns3:TrackPointExtension>
            <ns3:hr>143</ns3:hr>
            <ns3:cad>45</ns3:cad>
          </ns3:TrackPointExtension>
        </extensions>
      </trkpt>
      <trkpt lat="45.244077332317829132080078125" lon="-71.13391838036477565765380859375">
        <ele>1019</ele>
        <time>2026-08-22T02:36:51.000Z</time>
        <extensions>
          <ns3:TrackPointExtension>
            <ns3:hr>143</ns3:hr>
            <ns3:cad>0</ns3:cad>
          </ns3:TrackPointExtension>
        </extensions>
      </trkpt>
      <trkpt lat="45.24407389573752880096435546875" lon="-71.13393162377178668975830078125">
        <ele>1019.20001220703125</ele>
        <time>2026-08-22T02:36:52.000Z</time>
        <extensions>
          <ns3:TrackPointExtension>
            <ns3:hr>143</ns3:hr>
            <ns3:cad>0</ns3:cad>
          </ns3:TrackPointExtension>
        </extensions>
      </trkpt>
      <trkpt lat="45.24407188408076763153076171875" lon="-71.1339439451694488525390625">
        <ele>1019.20001220703125</ele>
        <time>2026-08-22T02:36:53.000Z</time>
        <extensions>
          <ns3:TrackPointExtension>
            <ns3:hr>144</ns3:hr>
            <ns3:cad>0</ns3:cad>
          </ns3:TrackPointExtension>
        </extensions>
      </trkpt>
      <trkpt lat="45.24406953714787960052490234375" lon="-71.1339548416435718536376953125">
        <ele>1019.4000244140625</ele>
        <time>2026-08-22T02:36:54.000Z</time>
        <extensions>
          <ns3:TrackPointExtension>
            <ns3:hr>144</ns3:hr>
            <ns3:cad>0</ns3:cad>
          </ns3:TrackPointExtension>
        </extensions>
      </trkpt>
      <trkpt lat="45.24406827986240386962890625" lon="-71.13397252745926380157470703125">
        <ele>1019.4000244140625</ele>
        <time>2026-08-22T02:36:55.000Z</time>
        <extensions>
          <ns3:TrackPointExtension>
            <ns3:hr>145</ns3:hr>
            <ns3:cad>47</ns3:cad>
          </ns3:TrackPointExtension>
        </extensions>
      </trkpt>
      <trkpt lat="45.24406869895756244659423828125" lon="-71.13399197347462177276611328125">
        <ele>1019.5999755859375</ele>
        <time>2026-08-22T02:36:56.000Z</time>
        <extensions>
          <ns3:TrackPointExtension>
            <ns3:hr>145</ns3:hr>
            <ns3:cad>47</ns3:cad>
          </ns3:TrackPointExtension>
        </extensions>
      </trkpt>
      <trkpt lat="45.24406467564404010772705078125" lon="-71.13400085829198360443115234375">
        <ele>1019.79998779296875</ele>
        <time>2026-08-22T02:36:57.000Z</time>
        <extensions>
          <ns3:TrackPointExtension>
            <ns3:hr>145</ns3:hr>
            <ns3:cad>47</ns3:cad>
          </ns3:TrackPointExtension>
        </extensions>
      </trkpt>
      <trkpt lat="45.24406157433986663818359375" lon="-71.1340192146599292755126953125">
        <ele>1019.79998779296875</ele>
        <time>2026-08-22T02:36:58.000Z</time>
        <extensions>
          <ns3:TrackPointExtension>
            <ns3:hr>144</ns3:hr>
            <ns3:cad>47</ns3:cad>
          </ns3:TrackPointExtension>
        </extensions>
      </trkpt>
      <trkpt lat="45.24406048469245433807373046875" lon="-71.13402868621051311492919921875">
        <ele>1020</ele>
        <time>2026-08-22T02:36:59.000Z</time>
        <extensions>
          <ns3:TrackPointExtension>
            <ns3:hr>144</ns3:hr>
            <ns3:cad>47</ns3:cad>
          </ns3:TrackPointExtension>
        </extensions>
      </trkpt>
      <trkpt lat="45.24405562318861484527587890625" lon="-71.134044863283634185791015625">
        <ele>1020.20001220703125</ele>
        <time>2026-08-22T02:37:00.000Z</time>
        <extensions>
          <ns3:TrackPointExtension>
            <ns3:hr>143</ns3:hr>
            <ns3:cad>47</ns3:cad>
          </ns3:TrackPointExtension>
        </extensions>
      </trkpt>
      <trkpt lat="45.24404707364737987518310546875" lon="-71.1340594477951526641845703125">
        <ele>1020.4000244140625</ele>
        <time>2026-08-22T02:37:01.000Z</time>
        <extensions>
          <ns3:TrackPointExtension>
            <ns3:hr>143</ns3:hr>
            <ns3:cad>47</ns3:cad>
          </ns3:TrackPointExtension>
        </extensions>
      </trkpt>
      <trkpt lat="45.2440446428954601287841796875" lon="-71.13406908698379993438720703125">
        <ele>1020.5999755859375</ele>
        <time>2026-08-22T02:37:02.000Z</time>
        <extensions>
          <ns3:TrackPointExtension>
            <ns3:hr>142</ns3:hr>
            <ns3:cad>47</ns3:cad>
          </ns3:TrackPointExtension>
        </extensions>
      </trkpt>
      <trkpt lat="45.24404489435255527496337890625" lon="-71.13408551551401615142822265625">
        <ele>1020.79998779296875</ele>
        <time>2026-08-22T02:37:03.000Z</time>
        <extensions>
          <ns3:TrackPointExtension>
            <ns3:hr>142</ns3:hr>
            <ns3:cad>47</ns3:cad>
          </ns3:TrackPointExtension>
        </extensions>
      </trkpt>
      <trkpt lat="45.24404682219028472900390625" lon="-71.13410445861518383026123046875">
        <ele>1021</ele>
        <time>2026-08-22T02:37:04.000Z</time>
        <extensions>
          <ns3:TrackPointExtension>
            <ns3:hr>142</ns3:hr>
            <ns3:cad>47</ns3:cad>
          </ns3:TrackPointExtension>
        </extensions>
      </trkpt>
      <trkpt lat="45.24404690600931644439697265625" lon="-71.1341137625277042388916015625">
        <ele>1021.20001220703125</ele>
        <time>2026-08-22T02:37:05.000Z</time>
        <extensions>
          <ns3:TrackPointExtension>
            <ns3:hr>143</ns3:hr>
            <ns3:cad>44</ns3:cad>
          </ns3:TrackPointExtension>
        </extensions>
      </trkpt>
      <trkpt lat="45.2440466545522212982177734375" lon="-71.13413044251501560211181640625">
        <ele>1021.20001220703125</ele>
        <time>2026-08-22T02:37:06.000Z</time>
        <extensions>
          <ns3:TrackPointExtension>
            <ns3:hr>143</ns3:hr>
            <ns3:cad>44</ns3:cad>
          </ns3:TrackPointExtension>
        </extensions>
      </trkpt>
      <trkpt lat="45.24404237978160381317138671875" lon="-71.13414670340716838836669921875">
        <ele>1021.4000244140625</ele>
        <time>2026-08-22T02:37:07.000Z</time>
        <extensions>
          <ns3:TrackPointExtension>
            <ns3:hr>142</ns3:hr>
            <ns3:cad>44</ns3:cad>
          </ns3:TrackPointExtension>
        </extensions>
      </trkpt>
      <trkpt lat="45.24404036812484264373779296875" lon="-71.13416162319481372833251953125">
        <ele>1021.4000244140625</ele>
        <time>2026-08-22T02:37:08.000Z</time>
        <extensions>
          <ns3:TrackPointExtension>
            <ns3:hr>142</ns3:hr>
            <ns3:cad>44</ns3:cad>
          </ns3:TrackPointExtension>
        </extensions>
      </trkpt>
      <trkpt lat="45.2440386079251766204833984375" lon="-71.13418157212436199188232421875">
        <ele>1021.5999755859375</ele>
        <time>2026-08-22T02:37:09.000Z</time>
        <extensions>
          <ns3:TrackPointExtension>
            <ns3:hr>142</ns3:hr>
            <ns3:cad>44</ns3:cad>
          </ns3:TrackPointExtension>
        </extensions>
      </trkpt>
      <trkpt lat="45.24403550662100315093994140625" lon="-71.13419783301651477813720703125">
        <ele>1021.5999755859375</ele>
        <time>2026-08-22T02:37:10.000Z</time>
        <extensions>
          <ns3:TrackPointExtension>
            <ns3:hr>142</ns3:hr>
            <ns3:cad>47</ns3:cad>
          </ns3:TrackPointExtension>
        </extensions>
      </trkpt>
      <trkpt lat="45.24403341114521026611328125" lon="-71.13421141169965267181396484375">
        <ele>1021.5999755859375</ele>
        <time>2026-08-22T02:37:11.000Z</time>
        <extensions>
          <ns3:TrackPointExtension>
            <ns3:hr>142</ns3:hr>
            <ns3:cad>47</ns3:cad>
          </ns3:TrackPointExtension>
        </extensions>
      </trkpt>
      <trkpt lat="45.24402762763202190399169921875" lon="-71.13422431983053684234619140625">
        <ele>1021.5999755859375</ele>
        <time>2026-08-22T02:37:12.000Z</time>
        <extensions>
          <ns3:TrackPointExtension>
            <ns3:hr>142</ns3:hr>
            <ns3:cad>0</ns3:cad>
          </ns3:TrackPointExtension>
        </extensions>
      </trkpt>
      <trkpt lat="45.2440260350704193115234375" lon="-71.1342368088662624359130859375">
        <ele>1021.5999755859375</ele>
        <time>2026-08-22T02:37:13.000Z</time>
        <extensions>
          <ns3:TrackPointExtension>
            <ns3:hr>142</ns3:hr>
            <ns3:cad>0</ns3:cad>
          </ns3:TrackPointExtension>
        </extensions>
      </trkpt>
      <trkpt lat="45.244018323719501495361328125" lon="-71.1342559196054935455322265625">
        <ele>1021.5999755859375</ele>
        <time>2026-08-22T02:37:14.000Z</time>
        <extensions>
          <ns3:TrackPointExtension>
            <ns3:hr>142</ns3:hr>
            <ns3:cad>48</ns3:cad>
          </ns3:TrackPointExtension>
        </extensions>
      </trkpt>
      <trkpt lat="45.24401421658694744110107421875" lon="-71.1342810653150081634521484375">
        <ele>1021.79998779296875</ele>
        <time>2026-08-22T02:37:15.000Z</time>
        <extensions>
          <ns3:TrackPointExtension>
            <ns3:hr>142</ns3:hr>
            <ns3:cad>48</ns3:cad>
          </ns3:TrackPointExtension>
        </extensions>
      </trkpt>
      <trkpt lat="45.24400985799729824066162109375" lon="-71.134297661483287811279296875">
        <ele>1021.79998779296875</ele>
        <time>2026-08-22T02:37:16.000Z</time>
        <extensions>
          <ns3:TrackPointExtension>
            <ns3:hr>141</ns3:hr>
            <ns3:cad>48</ns3:cad>
          </ns3:TrackPointExtension>
        </extensions>
      </trkpt>
      <trkpt lat="45.24400499649345874786376953125" lon="-71.13431735895574092864990234375">
        <ele>1021.79998779296875</ele>
        <time>2026-08-22T02:37:17.000Z</time>
        <extensions>
          <ns3:TrackPointExtension>
            <ns3:hr>141</ns3:hr>
            <ns3:cad>48</ns3:cad>
          </ns3:TrackPointExtension>
        </extensions>
      </trkpt>
      <trkpt lat="45.24399988353252410888671875" lon="-71.13433219492435455322265625">
        <ele>1021.79998779296875</ele>
        <time>2026-08-22T02:37:18.000Z</time>
        <extensions>
          <ns3:TrackPointExtension>
            <ns3:hr>140</ns3:hr>
            <ns3:cad>48</ns3:cad>
          </ns3:TrackPointExtension>
        </extensions>
      </trkpt>
      <trkpt lat="45.24399317800998687744140625" lon="-71.13434904254972934722900390625">
        <ele>1021.79998779296875</ele>
        <time>2026-08-22T02:37:19.000Z</time>
        <extensions>
          <ns3:TrackPointExtension>
            <ns3:hr>140</ns3:hr>
            <ns3:cad>0</ns3:cad>
          </ns3:TrackPointExtension>
        </extensions>
      </trkpt>
      <trkpt lat="45.24398873560130596160888671875" lon="-71.13436597399413585662841796875">
        <ele>1021.79998779296875</ele>
        <time>2026-08-22T02:37:20.000Z</time>
        <extensions>
          <ns3:TrackPointExtension>
            <ns3:hr>140</ns3:hr>
            <ns3:cad>53</ns3:cad>
          </ns3:TrackPointExtension>
        </extensions>
      </trkpt>
      <trkpt lat="45.2439849637448787689208984375" lon="-71.1343833245337009429931640625">
        <ele>1021.79998779296875</ele>
        <time>2026-08-22T02:37:21.000Z</time>
        <extensions>
          <ns3:TrackPointExtension>
            <ns3:hr>139</ns3:hr>
            <ns3:cad>53</ns3:cad>
          </ns3:TrackPointExtension>
        </extensions>
      </trkpt>
      <trkpt lat="45.2439782582223415374755859375" lon="-71.1343990825116634368896484375">
        <ele>1021.79998779296875</ele>
        <time>2026-08-22T02:37:22.000Z</time>
        <extensions>
          <ns3:TrackPointExtension>
            <ns3:hr>139</ns3:hr>
            <ns3:cad>51</ns3:cad>
          </ns3:TrackPointExtension>
        </extensions>
      </trkpt>
      <trkpt lat="45.2439705468714237213134765625" lon="-71.1344133317470550537109375">
        <ele>1021.79998779296875</ele>
        <time>2026-08-22T02:37:23.000Z</time>
        <extensions>
          <ns3:TrackPointExtension>
            <ns3:hr>139</ns3:hr>
            <ns3:cad>51</ns3:cad>
          </ns3:TrackPointExtension>
        </extensions>
      </trkpt>
      <trkpt lat="45.24396325461566448211669921875" lon="-71.13443487323820590972900390625">
        <ele>1021.5999755859375</ele>
        <time>2026-08-22T02:37:24.000Z</time>
        <extensions>
          <ns3:TrackPointExtension>
            <ns3:hr>139</ns3:hr>
            <ns3:cad>51</ns3:cad>
          </ns3:TrackPointExtension>
        </extensions>
      </trkpt>
      <trkpt lat="45.2439562976360321044921875" lon="-71.13445130176842212677001953125">
        <ele>1021.5999755859375</ele>
        <time>2026-08-22T02:37:25.000Z</time>
        <extensions>
          <ns3:TrackPointExtension>
            <ns3:hr>138</ns3:hr>
            <ns3:cad>51</ns3:cad>
          </ns3:TrackPointExtension>
        </extensions>
      </trkpt>
      <trkpt lat="45.243953950703144073486328125" lon="-71.13446605391800403594970703125">
        <ele>1021.79998779296875</ele>
        <time>2026-08-22T02:37:26.000Z</time>
        <extensions>
          <ns3:TrackPointExtension>
            <ns3:hr>138</ns3:hr>
            <ns3:cad>0</ns3:cad>
          </ns3:TrackPointExtension>
        </extensions>
      </trkpt>
      <trkpt lat="45.2439527772367000579833984375" lon="-71.13447879441082477569580078125">
        <ele>1021.79998779296875</ele>
        <time>2026-08-22T02:37:27.000Z</time>
        <extensions>
          <ns3:TrackPointExtension>
            <ns3:hr>138</ns3:hr>
            <ns3:cad>0</ns3:cad>
          </ns3:TrackPointExtension>
        </extensions>
      </trkpt>
      <trkpt lat="45.243946574628353118896484375" lon="-71.1344963125884532928466796875">
        <ele>1021.79998779296875</ele>
        <time>2026-08-22T02:37:28.000Z</time>
        <extensions>
          <ns3:TrackPointExtension>
            <ns3:hr>138</ns3:hr>
            <ns3:cad>0</ns3:cad>
          </ns3:TrackPointExtension>
        </extensions>
      </trkpt>
      <trkpt lat="45.243938528001308441162109375" lon="-71.13451466895639896392822265625">
        <ele>1021.79998779296875</ele>
        <time>2026-08-22T02:37:29.000Z</time>
        <extensions>
          <ns3:TrackPointExtension>
            <ns3:hr>137</ns3:hr>
            <ns3:cad>53</ns3:cad>
          </ns3:TrackPointExtension>
        </extensions>
      </trkpt>
      <trkpt lat="45.243933163583278656005859375" lon="-71.1345321871340274810791015625">
        <ele>1021.79998779296875</ele>
        <time>2026-08-22T02:37:30.000Z</time>
        <extensions>
          <ns3:TrackPointExtension>
            <ns3:hr>136</ns3:hr>
            <ns3:cad>53</ns3:cad>
          </ns3:TrackPointExtension>
        </extensions>
      </trkpt>
      <trkpt lat="45.2439296431839466094970703125" lon="-71.13454283215105533599853515625">
        <ele>1021.79998779296875</ele>
        <time>2026-08-22T02:37:31.000Z</time>
        <extensions>
          <ns3:TrackPointExtension>
            <ns3:hr>136</ns3:hr>
            <ns3:cad>50</ns3:cad>
          </ns3:TrackPointExtension>
        </extensions>
      </trkpt>
      <trkpt lat="45.24392603896558284759521484375" lon="-71.1345553211867809295654296875">
        <ele>1021.79998779296875</ele>
        <time>2026-08-22T02:37:32.000Z</time>
        <extensions>
          <ns3:TrackPointExtension>
            <ns3:hr>135</ns3:hr>
            <ns3:cad>0</ns3:cad>
          </ns3:TrackPointExtension>
        </extensions>
      </trkpt>
      <trkpt lat="45.24392746388912200927734375" lon="-71.134566552937030792236328125">
        <ele>1022</ele>
        <time>2026-08-22T02:37:33.000Z</time>
        <extensions>
          <ns3:TrackPointExtension>
            <ns3:hr>133</ns3:hr>
            <ns3:cad>0</ns3:cad>
          </ns3:TrackPointExtension>
        </extensions>
      </trkpt>
      <trkpt lat="45.24392285384237766265869140625" lon="-71.1345871724188327789306640625">
        <ele>1022</ele>
        <time>2026-08-22T02:37:34.000Z</time>
        <extensions>
          <ns3:TrackPointExtension>
            <ns3:hr>134</ns3:hr>
            <ns3:cad>0</ns3:cad>
          </ns3:TrackPointExtension>
        </extensions>
      </trkpt>
      <trkpt lat="45.2439195849001407623291015625" lon="-71.13460536114871501922607421875">
        <ele>1022</ele>
        <time>2026-08-22T02:37:35.000Z</time>
        <extensions>
          <ns3:TrackPointExtension>
            <ns3:hr>134</ns3:hr>
            <ns3:cad>0</ns3:cad>
          </ns3:TrackPointExtension>
        </extensions>
      </trkpt>
      <trkpt lat="45.24391883052885532379150390625" lon="-71.1346287466585636138916015625">
        <ele>1022</ele>
        <time>2026-08-22T02:37:36.000Z</time>
        <extensions>
          <ns3:TrackPointExtension>
            <ns3:hr>134</ns3:hr>
            <ns3:cad>0</ns3:cad>
          </ns3:TrackPointExtension>
        </extensions>
      </trkpt>
      <trkpt lat="45.243912376463413238525390625" lon="-71.13464559428393840789794921875">
        <ele>1022</ele>
        <time>2026-08-22T02:37:37.000Z</time>
        <extensions>
          <ns3:TrackPointExtension>
            <ns3:hr>134</ns3:hr>
            <ns3:cad>0</ns3:cad>
          </ns3:TrackPointExtension>
        </extensions>
      </trkpt>
      <trkpt lat="45.24390525184571743011474609375" lon="-71.13467073999345302581787109375">
        <ele>1022</ele>
        <time>2026-08-22T02:37:38.000Z</time>
        <extensions>
          <ns3:TrackPointExtension>
            <ns3:hr>135</ns3:hr>
            <ns3:cad>0</ns3:cad>
          </ns3:TrackPointExtension>
        </extensions>
      </trkpt>
      <trkpt lat="45.24390692822635173797607421875" lon="-71.13468934781849384307861328125">
        <ele>1022</ele>
        <time>2026-08-22T02:37:39.000Z</time>
        <extensions>
          <ns3:TrackPointExtension>
            <ns3:hr>135</ns3:hr>
            <ns3:cad>0</ns3:cad>
          </ns3:TrackPointExtension>
        </extensions>
      </trkpt>
      <trkpt lat="45.2439041621983051300048828125" lon="-71.1347092129290103912353515625">
        <ele>1022</ele>
        <time>2026-08-22T02:37:40.000Z</time>
        <extensions>
          <ns3:TrackPointExtension>
            <ns3:hr>135</ns3:hr>
            <ns3:cad>0</ns3:cad>
          </ns3:TrackPointExtension>
        </extensions>
      </trkpt>
      <trkpt lat="45.24389485828578472137451171875" lon="-71.13473377190530300140380859375">
        <ele>1022</ele>
        <time>2026-08-22T02:37:41.000Z</time>
        <extensions>
          <ns3:TrackPointExtension>
            <ns3:hr>135</ns3:hr>
            <ns3:cad>51</ns3:cad>
          </ns3:TrackPointExtension>
        </extensions>
      </trkpt>
      <trkpt lat="45.24388865567743778228759765625" lon="-71.13474902696907520294189453125">
        <ele>1021.79998779296875</ele>
        <time>2026-08-22T02:37:42.000Z</time>
        <extensions>
          <ns3:TrackPointExtension>
            <ns3:hr>134</ns3:hr>
            <ns3:cad>51</ns3:cad>
          </ns3:TrackPointExtension>
        </extensions>
      </trkpt>
      <trkpt lat="45.24388999678194522857666015625" lon="-71.1347752623260021209716796875">
        <ele>1021.5999755859375</ele>
        <time>2026-08-22T02:37:43.000Z</time>
        <extensions>
          <ns3:TrackPointExtension>
            <ns3:hr>134</ns3:hr>
            <ns3:cad>51</ns3:cad>
          </ns3:TrackPointExtension>
        </extensions>
      </trkpt>
      <trkpt lat="45.24388345889747142791748046875" lon="-71.13479797728359699249267578125">
        <ele>1021.4000244140625</ele>
        <time>2026-08-22T02:37:44.000Z</time>
        <extensions>
          <ns3:TrackPointExtension>
            <ns3:hr>133</ns3:hr>
            <ns3:cad>51</ns3:cad>
          </ns3:TrackPointExtension>
        </extensions>
      </trkpt>
      <trkpt lat="45.24387507699429988861083984375" lon="-71.13481407053768634796142578125">
        <ele>1021.20001220703125</ele>
        <time>2026-08-22T02:37:45.000Z</time>
        <extensions>
          <ns3:TrackPointExtension>
            <ns3:hr>133</ns3:hr>
            <ns3:cad>51</ns3:cad>
          </ns3:TrackPointExtension>
        </extensions>
      </trkpt>
      <trkpt lat="45.24386652745306491851806640625" lon="-71.13483016379177570343017578125">
        <ele>1021.20001220703125</ele>
        <time>2026-08-22T02:37:46.000Z</time>
        <extensions>
          <ns3:TrackPointExtension>
            <ns3:hr>134</ns3:hr>
            <ns3:cad>51</ns3:cad>
          </ns3:TrackPointExtension>
        </extensions>
      </trkpt>
      <trkpt lat="45.2438575588166713714599609375" lon="-71.1348517052829265594482421875">
        <ele>1021</ele>
        <time>2026-08-22T02:37:47.000Z</time>
        <extensions>
          <ns3:TrackPointExtension>
            <ns3:hr>134</ns3:hr>
            <ns3:cad>51</ns3:cad>
          </ns3:TrackPointExtension>
        </extensions>
      </trkpt>
      <trkpt lat="45.24385102093219757080078125" lon="-71.134865283966064453125">
        <ele>1020.79998779296875</ele>
        <time>2026-08-22T02:37:48.000Z</time>
        <extensions>
          <ns3:TrackPointExtension>
            <ns3:hr>134</ns3:hr>
            <ns3:cad>0</ns3:cad>
          </ns3:TrackPointExtension>
        </extensions>
      </trkpt>
      <trkpt lat="45.24384431540966033935546875" lon="-71.1348835565149784088134765625">
        <ele>1020.79998779296875</ele>
        <time>2026-08-22T02:37:49.000Z</time>
        <extensions>
          <ns3:TrackPointExtension>
            <ns3:hr>133</ns3:hr>
            <ns3:cad>0</ns3:cad>
          </ns3:TrackPointExtension>
        </extensions>
      </trkpt>
      <trkpt lat="45.2438371069729328155517578125" lon="-71.1348956264555454254150390625">
        <ele>1020.79998779296875</ele>
        <time>2026-08-22T02:37:50.000Z</time>
        <extensions>
          <ns3:TrackPointExtension>
            <ns3:hr>133</ns3:hr>
            <ns3:cad>0</ns3:cad>
          </ns3:TrackPointExtension>
        </extensions>
      </trkpt>
      <trkpt lat="45.24382981471717357635498046875" lon="-71.13491716794669628143310546875">
        <ele>1020.79998779296875</ele>
        <time>2026-08-22T02:37:51.000Z</time>
        <extensions>
          <ns3:TrackPointExtension>
            <ns3:hr>133</ns3:hr>
            <ns3:cad>0</ns3:cad>
          </ns3:TrackPointExtension>
        </extensions>
      </trkpt>
      <trkpt lat="45.243824534118175506591796875" lon="-71.13494147546589374542236328125">
        <ele>1020.79998779296875</ele>
        <time>2026-08-22T02:37:52.000Z</time>
        <extensions>
          <ns3:TrackPointExtension>
            <ns3:hr>133</ns3:hr>
            <ns3:cad>0</ns3:cad>
          </ns3:TrackPointExtension>
        </extensions>
      </trkpt>
      <trkpt lat="45.243819840252399444580078125" lon="-71.1349670402705669403076171875">
        <ele>1020.79998779296875</ele>
        <time>2026-08-22T02:37:53.000Z</time>
        <extensions>
          <ns3:TrackPointExtension>
            <ns3:hr>133</ns3:hr>
            <ns3:cad>0</ns3:cad>
          </ns3:TrackPointExtension>
        </extensions>
      </trkpt>
      <trkpt lat="45.24381606839597225189208984375" lon="-71.13498799502849578857421875">
        <ele>1020.79998779296875</ele>
        <time>2026-08-22T02:37:54.000Z</time>
        <extensions>
          <ns3:TrackPointExtension>
            <ns3:hr>132</ns3:hr>
            <ns3:cad>0</ns3:cad>
          </ns3:TrackPointExtension>
        </extensions>
      </trkpt>
      <trkpt lat="45.2438102848827838897705078125" lon="-71.13500869832932949066162109375">
        <ele>1020.79998779296875</ele>
        <time>2026-08-22T02:37:55.000Z</time>
        <extensions>
          <ns3:TrackPointExtension>
            <ns3:hr>131</ns3:hr>
            <ns3:cad>0</ns3:cad>
          </ns3:TrackPointExtension>
        </extensions>
      </trkpt>
      <trkpt lat="45.24380684830248355865478515625" lon="-71.1350307427346706390380859375">
        <ele>1020.79998779296875</ele>
        <time>2026-08-22T02:37:56.000Z</time>
        <extensions>
          <ns3:TrackPointExtension>
            <ns3:hr>130</ns3:hr>
            <ns3:cad>0</ns3:cad>
          </ns3:TrackPointExtension>
        </extensions>
      </trkpt>
      <trkpt lat="45.24380718357861042022705078125" lon="-71.1350424773991107940673828125">
        <ele>1020.79998779296875</ele>
        <time>2026-08-22T02:37:57.000Z</time>
        <extensions>
          <ns3:TrackPointExtension>
            <ns3:hr>129</ns3:hr>
            <ns3:cad>0</ns3:cad>
          </ns3:TrackPointExtension>
        </extensions>
      </trkpt>
      <trkpt lat="45.24380567483603954315185546875" lon="-71.1350677907466888427734375">
        <ele>1021</ele>
        <time>2026-08-22T02:37:58.000Z</time>
        <extensions>
          <ns3:TrackPointExtension>
            <ns3:hr>129</ns3:hr>
            <ns3:cad>0</ns3:cad>
          </ns3:TrackPointExtension>
        </extensions>
      </trkpt>
      <trkpt lat="45.24380282498896121978759765625" lon="-71.1350907571613788604736328125">
        <ele>1021</ele>
        <time>2026-08-22T02:37:59.000Z</time>
        <extensions>
          <ns3:TrackPointExtension>
            <ns3:hr>129</ns3:hr>
            <ns3:cad>0</ns3:cad>
          </ns3:TrackPointExtension>
        </extensions>
      </trkpt>
      <trkpt lat="45.243797712028026580810546875" lon="-71.135108359158039093017578125">
        <ele>1021.20001220703125</ele>
        <time>2026-08-22T02:38:00.000Z</time>
        <extensions>
          <ns3:TrackPointExtension>
            <ns3:hr>129</ns3:hr>
            <ns3:cad>0</ns3:cad>
          </ns3:TrackPointExtension>
        </extensions>
      </trkpt>
      <trkpt lat="45.2437911741435527801513671875" lon="-71.1351360194385051727294921875">
        <ele>1021.5999755859375</ele>
        <time>2026-08-22T02:38:01.000Z</time>
        <extensions>
          <ns3:TrackPointExtension>
            <ns3:hr>128</ns3:hr>
            <ns3:cad>0</ns3:cad>
          </ns3:TrackPointExtension>
        </extensions>
      </trkpt>
      <trkpt lat="45.2437864802777767181396484375" lon="-71.13516259007155895233154296875">
        <ele>1021.79998779296875</ele>
        <time>2026-08-22T02:38:02.000Z</time>
        <extensions>
          <ns3:TrackPointExtension>
            <ns3:hr>128</ns3:hr>
            <ns3:cad>0</ns3:cad>
          </ns3:TrackPointExtension>
        </extensions>
      </trkpt>
      <trkpt lat="45.243783630430698394775390625" lon="-71.13517901860177516937255859375">
        <ele>1021.79998779296875</ele>
        <time>2026-08-22T02:38:03.000Z</time>
        <extensions>
          <ns3:TrackPointExtension>
            <ns3:hr>128</ns3:hr>
            <ns3:cad>0</ns3:cad>
          </ns3:TrackPointExtension>
        </extensions>
      </trkpt>
      <trkpt lat="45.24377918802201747894287109375" lon="-71.13520324230194091796875">
        <ele>1022</ele>
        <time>2026-08-22T02:38:04.000Z</time>
        <extensions>
          <ns3:TrackPointExtension>
            <ns3:hr>128</ns3:hr>
            <ns3:cad>0</ns3:cad>
          </ns3:TrackPointExtension>
        </extensions>
      </trkpt>
      <trkpt lat="45.2437774278223514556884765625" lon="-71.13522528670728206634521484375">
        <ele>1022.20001220703125</ele>
        <time>2026-08-22T02:38:05.000Z</time>
        <extensions>
          <ns3:TrackPointExtension>
            <ns3:hr>128</ns3:hr>
            <ns3:cad>71</ns3:cad>
          </ns3:TrackPointExtension>
        </extensions>
      </trkpt>
      <trkpt lat="45.243776254355907440185546875" lon="-71.1352480016648769378662109375">
        <ele>1022.20001220703125</ele>
        <time>2026-08-22T02:38:06.000Z</time>
        <extensions>
          <ns3:TrackPointExtension>
            <ns3:hr>127</ns3:hr>
            <ns3:cad>71</ns3:cad>
          </ns3:TrackPointExtension>
        </extensions>
      </trkpt>
      <trkpt lat="45.24377583526074886322021484375" lon="-71.1352684535086154937744140625">
        <ele>1022.20001220703125</ele>
        <time>2026-08-22T02:38:07.000Z</time>
        <extensions>
          <ns3:TrackPointExtension>
            <ns3:hr>127</ns3:hr>
            <ns3:cad>73</ns3:cad>
          </ns3:TrackPointExtension>
        </extensions>
      </trkpt>
      <trkpt lat="45.2437727339565753936767578125" lon="-71.135291755199432373046875">
        <ele>1022.20001220703125</ele>
        <time>2026-08-22T02:38:08.000Z</time>
        <extensions>
          <ns3:TrackPointExtension>
            <ns3:hr>127</ns3:hr>
            <ns3:cad>73</ns3:cad>
          </ns3:TrackPointExtension>
        </extensions>
      </trkpt>
      <trkpt lat="45.24377265013754367828369140625" lon="-71.13531346432864665985107421875">
        <ele>1022.4000244140625</ele>
        <time>2026-08-22T02:38:09.000Z</time>
        <extensions>
          <ns3:TrackPointExtension>
            <ns3:hr>127</ns3:hr>
            <ns3:cad>73</ns3:cad>
          </ns3:TrackPointExtension>
        </extensions>
      </trkpt>
      <trkpt lat="45.2437710575759410858154296875" lon="-71.1353331618010997772216796875">
        <ele>1022.4000244140625</ele>
        <time>2026-08-22T02:38:10.000Z</time>
        <extensions>
          <ns3:TrackPointExtension>
            <ns3:hr>127</ns3:hr>
            <ns3:cad>0</ns3:cad>
          </ns3:TrackPointExtension>
        </extensions>
      </trkpt>
      <trkpt lat="45.24377047084271907806396484375" lon="-71.1353549547493457794189453125">
        <ele>1022.4000244140625</ele>
        <time>2026-08-22T02:38:11.000Z</time>
        <extensions>
          <ns3:TrackPointExtension>
            <ns3:hr>127</ns3:hr>
            <ns3:cad>0</ns3:cad>
          </ns3:TrackPointExtension>
        </extensions>
      </trkpt>
      <trkpt lat="45.2437750808894634246826171875" lon="-71.135373897850513458251953125">
        <ele>1022.5999755859375</ele>
        <time>2026-08-22T02:38:12.000Z</time>
        <extensions>
          <ns3:TrackPointExtension>
            <ns3:hr>127</ns3:hr>
            <ns3:cad>0</ns3:cad>
          </ns3:TrackPointExtension>
        </extensions>
      </trkpt>
      <trkpt lat="45.24377717636525630950927734375" lon="-71.13538973964750766754150390625">
        <ele>1022.5999755859375</ele>
        <time>2026-08-22T02:38:13.000Z</time>
        <extensions>
          <ns3:TrackPointExtension>
            <ns3:hr>127</ns3:hr>
            <ns3:cad>0</ns3:cad>
          </ns3:TrackPointExtension>
        </extensions>
      </trkpt>
      <trkpt lat="45.24377784691751003265380859375" lon="-71.1354099400341510772705078125">
        <ele>1022.79998779296875</ele>
        <time>2026-08-22T02:38:14.000Z</time>
        <extensions>
          <ns3:TrackPointExtension>
            <ns3:hr>127</ns3:hr>
            <ns3:cad>0</ns3:cad>
          </ns3:TrackPointExtension>
        </extensions>
      </trkpt>
      <trkpt lat="45.2437770925462245941162109375" lon="-71.1354243569076061248779296875">
        <ele>1023</ele>
        <time>2026-08-22T02:38:15.000Z</time>
        <extensions>
          <ns3:TrackPointExtension>
            <ns3:hr>126</ns3:hr>
            <ns3:cad>0</ns3:cad>
          </ns3:TrackPointExtension>
        </extensions>
      </trkpt>
      <trkpt lat="45.24377482943236827850341796875" lon="-71.13543885760009288787841796875">
        <ele>1023.20001220703125</ele>
        <time>2026-08-22T02:38:16.000Z</time>
        <extensions>
          <ns3:TrackPointExtension>
            <ns3:hr>127</ns3:hr>
            <ns3:cad>0</ns3:cad>
          </ns3:TrackPointExtension>
        </extensions>
      </trkpt>
      <trkpt lat="45.2437703870236873626708984375" lon="-71.135452687740325927734375">
        <ele>1023.20001220703125</ele>
        <time>2026-08-22T02:38:17.000Z</time>
        <extensions>
          <ns3:TrackPointExtension>
            <ns3:hr>127</ns3:hr>
            <ns3:cad>0</ns3:cad>
          </ns3:TrackPointExtension>
        </extensions>
      </trkpt>
      <trkpt lat="45.24376661516726016998291015625" lon="-71.13546811044216156005859375">
        <ele>1023.5999755859375</ele>
        <time>2026-08-22T02:38:18.000Z</time>
        <extensions>
          <ns3:TrackPointExtension>
            <ns3:hr>126</ns3:hr>
            <ns3:cad>0</ns3:cad>
          </ns3:TrackPointExtension>
        </extensions>
      </trkpt>
      <trkpt lat="45.24376510642468929290771484375" lon="-71.13549090921878814697265625">
        <ele>1023.79998779296875</ele>
        <time>2026-08-22T02:38:19.000Z</time>
        <extensions>
          <ns3:TrackPointExtension>
            <ns3:hr>127</ns3:hr>
            <ns3:cad>0</ns3:cad>
          </ns3:TrackPointExtension>
        </extensions>
      </trkpt>
      <trkpt lat="45.24376527406275272369384765625" lon="-71.13550675101578235626220703125">
        <ele>1024</ele>
        <time>2026-08-22T02:38:20.000Z</time>
        <extensions>
          <ns3:TrackPointExtension>
            <ns3:hr>127</ns3:hr>
            <ns3:cad>0</ns3:cad>
          </ns3:TrackPointExtension>
        </extensions>
      </trkpt>
      <trkpt lat="45.24376242421567440032958984375" lon="-71.1355192400515079498291015625">
        <ele>1024.199951171875</ele>
        <time>2026-08-22T02:38:21.000Z</time>
        <extensions>
          <ns3:TrackPointExtension>
            <ns3:hr>127</ns3:hr>
            <ns3:cad>0</ns3:cad>
          </ns3:TrackPointExtension>
        </extensions>
      </trkpt>
      <trkpt lat="45.24376384913921356201171875" lon="-71.13554195500910282135009765625">
        <ele>1024.4000244140625</ele>
        <time>2026-08-22T02:38:22.000Z</time>
        <extensions>
          <ns3:TrackPointExtension>
            <ns3:hr>128</ns3:hr>
            <ns3:cad>0</ns3:cad>
          </ns3:TrackPointExtension>
        </extensions>
      </trkpt>
      <trkpt lat="45.24376074783504009246826171875" lon="-71.13555536605417728424072265625">
        <ele>1024.5999755859375</ele>
        <time>2026-08-22T02:38:23.000Z</time>
        <extensions>
          <ns3:TrackPointExtension>
            <ns3:hr>128</ns3:hr>
            <ns3:cad>0</ns3:cad>
          </ns3:TrackPointExtension>
        </extensions>
      </trkpt>
      <trkpt lat="45.2437573112547397613525390625" lon="-71.1355702020227909088134765625">
        <ele>1024.5999755859375</ele>
        <time>2026-08-22T02:38:24.000Z</time>
        <extensions>
          <ns3:TrackPointExtension>
            <ns3:hr>128</ns3:hr>
            <ns3:cad>0</ns3:cad>
          </ns3:TrackPointExtension>
        </extensions>
      </trkpt>
      <trkpt lat="45.2437556348741054534912109375" lon="-71.135587133467197418212890625">
        <ele>1024.800048828125</ele>
        <time>2026-08-22T02:38:25.000Z</time>
        <extensions>
          <ns3:TrackPointExtension>
            <ns3:hr>127</ns3:hr>
            <ns3:cad>0</ns3:cad>
          </ns3:TrackPointExtension>
        </extensions>
      </trkpt>
      <trkpt lat="45.243752785027027130126953125" lon="-71.1356054060161113739013671875">
        <ele>1024.800048828125</ele>
        <time>2026-08-22T02:38:26.000Z</time>
        <extensions>
          <ns3:TrackPointExtension>
            <ns3:hr>127</ns3:hr>
            <ns3:cad>0</ns3:cad>
          </ns3:TrackPointExtension>
        </extensions>
      </trkpt>
      <trkpt lat="45.2437465824186801910400390625" lon="-71.13562342710793018341064453125">
        <ele>1025</ele>
        <time>2026-08-22T02:38:27.000Z</time>
        <extensions>
          <ns3:TrackPointExtension>
            <ns3:hr>127</ns3:hr>
            <ns3:cad>0</ns3:cad>
          </ns3:TrackPointExtension>
        </extensions>
      </trkpt>
      <trkpt lat="45.24374599568545818328857421875" lon="-71.13564471714198589324951171875">
        <ele>1024.800048828125</ele>
        <time>2026-08-22T02:38:28.000Z</time>
        <extensions>
          <ns3:TrackPointExtension>
            <ns3:hr>127</ns3:hr>
            <ns3:cad>0</ns3:cad>
          </ns3:TrackPointExtension>
        </extensions>
      </trkpt>
      <trkpt lat="45.24374431930482387542724609375" lon="-71.13566081039607524871826171875">
        <ele>1024.800048828125</ele>
        <time>2026-08-22T02:38:29.000Z</time>
        <extensions>
          <ns3:TrackPointExtension>
            <ns3:hr>127</ns3:hr>
            <ns3:cad>0</ns3:cad>
          </ns3:TrackPointExtension>
        </extensions>
      </trkpt>
      <trkpt lat="45.24373845197260379791259765625" lon="-71.13566986285150051116943359375">
        <ele>1024.800048828125</ele>
        <time>2026-08-22T02:38:30.000Z</time>
        <extensions>
          <ns3:TrackPointExtension>
            <ns3:hr>127</ns3:hr>
            <ns3:cad>0</ns3:cad>
          </ns3:TrackPointExtension>
        </extensions>
      </trkpt>
      <trkpt lat="45.2437331713736057281494140625" lon="-71.13569132052361965179443359375">
        <ele>1024.800048828125</ele>
        <time>2026-08-22T02:38:31.000Z</time>
        <extensions>
          <ns3:TrackPointExtension>
            <ns3:hr>128</ns3:hr>
            <ns3:cad>0</ns3:cad>
          </ns3:TrackPointExtension>
        </extensions>
      </trkpt>
      <trkpt lat="45.24372923187911510467529296875" lon="-71.13570808432996273040771484375">
        <ele>1024.800048828125</ele>
        <time>2026-08-22T02:38:32.000Z</time>
        <extensions>
          <ns3:TrackPointExtension>
            <ns3:hr>128</ns3:hr>
            <ns3:cad>0</ns3:cad>
          </ns3:TrackPointExtension>
        </extensions>
      </trkpt>
      <trkpt lat="45.2437288127839565277099609375" lon="-71.13571562804281711578369140625">
        <ele>1024.800048828125</ele>
        <time>2026-08-22T02:38:33.000Z</time>
        <extensions>
          <ns3:TrackPointExtension>
            <ns3:hr>128</ns3:hr>
            <ns3:cad>0</ns3:cad>
          </ns3:TrackPointExtension>
        </extensions>
      </trkpt>
      <trkpt lat="45.24372470565140247344970703125" lon="-71.13572468049824237823486328125">
        <ele>1024.800048828125</ele>
        <time>2026-08-22T02:38:34.000Z</time>
        <extensions>
          <ns3:TrackPointExtension>
            <ns3:hr>128</ns3:hr>
            <ns3:cad>0</ns3:cad>
          </ns3:TrackPointExtension>
        </extensions>
      </trkpt>
      <trkpt lat="45.24372286163270473480224609375" lon="-71.1357321403920650482177734375">
        <ele>1024.800048828125</ele>
        <time>2026-08-22T02:38:35.000Z</time>
        <extensions>
          <ns3:TrackPointExtension>
            <ns3:hr>128</ns3:hr>
            <ns3:cad>0</ns3:cad>
          </ns3:TrackPointExtension>
        </extensions>
      </trkpt>
      <trkpt lat="45.2437211014330387115478515625" lon="-71.13573825918138027191162109375">
        <ele>1024.800048828125</ele>
        <time>2026-08-22T02:38:36.000Z</time>
        <extensions>
          <ns3:TrackPointExtension>
            <ns3:hr>128</ns3:hr>
            <ns3:cad>0</ns3:cad>
          </ns3:TrackPointExtension>
        </extensions>
      </trkpt>
      <trkpt lat="45.243720598518848419189453125" lon="-71.1357385106384754180908203125">
        <ele>1024.5999755859375</ele>
        <time>2026-08-22T02:38:37.000Z</time>
        <extensions>
          <ns3:TrackPointExtension>
            <ns3:hr>128</ns3:hr>
            <ns3:cad>0</ns3:cad>
          </ns3:TrackPointExtension>
        </extensions>
      </trkpt>
      <trkpt lat="45.24372093379497528076171875" lon="-71.1357385106384754180908203125">
        <ele>1024.4000244140625</ele>
        <time>2026-08-22T02:38:38.000Z</time>
        <extensions>
          <ns3:TrackPointExtension>
            <ns3:hr>129</ns3:hr>
            <ns3:cad>0</ns3:cad>
          </ns3:TrackPointExtension>
        </extensions>
      </trkpt>
      <trkpt lat="45.24371825158596038818359375" lon="-71.13575099967420101165771484375">
        <ele>1024.4000244140625</ele>
        <time>2026-08-22T02:38:39.000Z</time>
        <extensions>
          <ns3:TrackPointExtension>
            <ns3:hr>129</ns3:hr>
            <ns3:cad>0</ns3:cad>
          </ns3:TrackPointExtension>
        </extensions>
      </trkpt>
      <trkpt lat="45.2437164075672626495361328125" lon="-71.13576491363346576690673828125">
        <ele>1024.199951171875</ele>
        <time>2026-08-22T02:38:40.000Z</time>
        <extensions>
          <ns3:TrackPointExtension>
            <ns3:hr>129</ns3:hr>
            <ns3:cad>0</ns3:cad>
          </ns3:TrackPointExtension>
        </extensions>
      </trkpt>
      <trkpt lat="45.24371691048145294189453125" lon="-71.13577413372695446014404296875">
        <ele>1024</ele>
        <time>2026-08-22T02:38:41.000Z</time>
        <extensions>
          <ns3:TrackPointExtension>
            <ns3:hr>130</ns3:hr>
            <ns3:cad>0</ns3:cad>
          </ns3:TrackPointExtension>
        </extensions>
      </trkpt>
      <trkpt lat="45.24371531791985034942626953125" lon="-71.13578972406685352325439453125">
        <ele>1024</ele>
        <time>2026-08-22T02:38:42.000Z</time>
        <extensions>
          <ns3:TrackPointExtension>
            <ns3:hr>130</ns3:hr>
            <ns3:cad>47</ns3:cad>
          </ns3:TrackPointExtension>
        </extensions>
      </trkpt>
      <trkpt lat="45.24371682666242122650146484375" lon="-71.13580380566418170928955078125">
        <ele>1023.79998779296875</ele>
        <time>2026-08-22T02:38:43.000Z</time>
        <extensions>
          <ns3:TrackPointExtension>
            <ns3:hr>130</ns3:hr>
            <ns3:cad>48</ns3:cad>
          </ns3:TrackPointExtension>
        </extensions>
      </trkpt>
      <trkpt lat="45.24372001178562641143798828125" lon="-71.13582224585115909576416015625">
        <ele>1023.5999755859375</ele>
        <time>2026-08-22T02:38:44.000Z</time>
        <extensions>
          <ns3:TrackPointExtension>
            <ns3:hr>129</ns3:hr>
            <ns3:cad>48</ns3:cad>
          </ns3:TrackPointExtension>
        </extensions>
      </trkpt>
      <trkpt lat="45.243719927966594696044921875" lon="-71.13583230413496494293212890625">
        <ele>1023.4000244140625</ele>
        <time>2026-08-22T02:38:45.000Z</time>
        <extensions>
          <ns3:TrackPointExtension>
            <ns3:hr>129</ns3:hr>
            <ns3:cad>56</ns3:cad>
          </ns3:TrackPointExtension>
        </extensions>
      </trkpt>
      <trkpt lat="45.24371967650949954986572265625" lon="-71.135842613875865936279296875">
        <ele>1023</ele>
        <time>2026-08-22T02:38:46.000Z</time>
        <extensions>
          <ns3:TrackPointExtension>
            <ns3:hr>129</ns3:hr>
            <ns3:cad>56</ns3:cad>
          </ns3:TrackPointExtension>
        </extensions>
      </trkpt>
      <trkpt lat="45.2437231130897998809814453125" lon="-71.13586264662444591522216796875">
        <ele>1022.79998779296875</ele>
        <time>2026-08-22T02:38:47.000Z</time>
        <extensions>
          <ns3:TrackPointExtension>
            <ns3:hr>128</ns3:hr>
            <ns3:cad>0</ns3:cad>
          </ns3:TrackPointExtension>
        </extensions>
      </trkpt>
      <trkpt lat="45.24372772313654422760009765625" lon="-71.13587471656501293182373046875">
        <ele>1022.5999755859375</ele>
        <time>2026-08-22T02:38:48.000Z</time>
        <extensions>
          <ns3:TrackPointExtension>
            <ns3:hr>128</ns3:hr>
            <ns3:cad>0</ns3:cad>
          </ns3:TrackPointExtension>
        </extensions>
      </trkpt>
      <trkpt lat="45.24373359046876430511474609375" lon="-71.13588712178170680999755859375">
        <ele>1022.20001220703125</ele>
        <time>2026-08-22T02:38:49.000Z</time>
        <extensions>
          <ns3:TrackPointExtension>
            <ns3:hr>128</ns3:hr>
            <ns3:cad>0</ns3:cad>
          </ns3:TrackPointExtension>
        </extensions>
      </trkpt>
      <trkpt lat="45.24374012835323810577392578125" lon="-71.135903298854827880859375">
        <ele>1022</ele>
        <time>2026-08-22T02:38:50.000Z</time>
        <extensions>
          <ns3:TrackPointExtension>
            <ns3:hr>128</ns3:hr>
            <ns3:cad>0</ns3:cad>
          </ns3:TrackPointExtension>
        </extensions>
      </trkpt>
      <trkpt lat="45.24374649859964847564697265625" lon="-71.13592148758471012115478515625">
        <ele>1021.79998779296875</ele>
        <time>2026-08-22T02:38:51.000Z</time>
        <extensions>
          <ns3:TrackPointExtension>
            <ns3:hr>128</ns3:hr>
            <ns3:cad>0</ns3:cad>
          </ns3:TrackPointExtension>
        </extensions>
      </trkpt>
      <trkpt lat="45.2437475882470607757568359375" lon="-71.1359339766204357147216796875">
        <ele>1021.5999755859375</ele>
        <time>2026-08-22T02:38:52.000Z</time>
        <extensions>
          <ns3:TrackPointExtension>
            <ns3:hr>128</ns3:hr>
            <ns3:cad>0</ns3:cad>
          </ns3:TrackPointExtension>
        </extensions>
      </trkpt>
      <trkpt lat="45.24375136010348796844482421875" lon="-71.13595283590257167816162109375">
        <ele>1021.4000244140625</ele>
        <time>2026-08-22T02:38:53.000Z</time>
        <extensions>
          <ns3:TrackPointExtension>
            <ns3:hr>129</ns3:hr>
            <ns3:cad>0</ns3:cad>
          </ns3:TrackPointExtension>
        </extensions>
      </trkpt>
      <trkpt lat="45.24375312030315399169921875" lon="-71.13596892915666103363037109375">
        <ele>1021.20001220703125</ele>
        <time>2026-08-22T02:38:54.000Z</time>
        <extensions>
          <ns3:TrackPointExtension>
            <ns3:hr>129</ns3:hr>
            <ns3:cad>0</ns3:cad>
          </ns3:TrackPointExtension>
        </extensions>
      </trkpt>
      <trkpt lat="45.2437559701502323150634765625" lon="-71.13598980009555816650390625">
        <ele>1021.20001220703125</ele>
        <time>2026-08-22T02:38:55.000Z</time>
        <extensions>
          <ns3:TrackPointExtension>
            <ns3:hr>129</ns3:hr>
            <ns3:cad>0</ns3:cad>
          </ns3:TrackPointExtension>
        </extensions>
      </trkpt>
      <trkpt lat="45.2437556348741054534912109375" lon="-71.136003546416759490966796875">
        <ele>1021</ele>
        <time>2026-08-22T02:38:56.000Z</time>
        <extensions>
          <ns3:TrackPointExtension>
            <ns3:hr>128</ns3:hr>
            <ns3:cad>0</ns3:cad>
          </ns3:TrackPointExtension>
        </extensions>
      </trkpt>
      <trkpt lat="45.2437559701502323150634765625" lon="-71.13601259887218475341796875">
        <ele>1021</ele>
        <time>2026-08-22T02:38:57.000Z</time>
        <extensions>
          <ns3:TrackPointExtension>
            <ns3:hr>128</ns3:hr>
            <ns3:cad>0</ns3:cad>
          </ns3:TrackPointExtension>
        </extensions>
      </trkpt>
      <trkpt lat="45.24375823326408863067626953125" lon="-71.136033721268177032470703125">
        <ele>1021</ele>
        <time>2026-08-22T02:38:58.000Z</time>
        <extensions>
          <ns3:TrackPointExtension>
            <ns3:hr>127</ns3:hr>
            <ns3:cad>0</ns3:cad>
          </ns3:TrackPointExtension>
        </extensions>
      </trkpt>
      <trkpt lat="45.24375990964472293853759765625" lon="-71.13605006597936153411865234375">
        <ele>1020.79998779296875</ele>
        <time>2026-08-22T02:38:59.000Z</time>
        <extensions>
          <ns3:TrackPointExtension>
            <ns3:hr>127</ns3:hr>
            <ns3:cad>0</ns3:cad>
          </ns3:TrackPointExtension>
        </extensions>
      </trkpt>
      <trkpt lat="45.243758819997310638427734375" lon="-71.136073954403400421142578125">
        <ele>1020.79998779296875</ele>
        <time>2026-08-22T02:39:00.000Z</time>
        <extensions>
          <ns3:TrackPointExtension>
            <ns3:hr>126</ns3:hr>
            <ns3:cad>0</ns3:cad>
          </ns3:TrackPointExtension>
        </extensions>
      </trkpt>
      <trkpt lat="45.2437603287398815155029296875" lon="-71.13609977066516876220703125">
        <ele>1020.5999755859375</ele>
        <time>2026-08-22T02:39:01.000Z</time>
        <extensions>
          <ns3:TrackPointExtension>
            <ns3:hr>125</ns3:hr>
            <ns3:cad>0</ns3:cad>
          </ns3:TrackPointExtension>
        </extensions>
      </trkpt>
      <trkpt lat="45.2437604963779449462890625" lon="-71.13612550310790538787841796875">
        <ele>1020.4000244140625</ele>
        <time>2026-08-22T02:39:02.000Z</time>
        <extensions>
          <ns3:TrackPointExtension>
            <ns3:hr>124</ns3:hr>
            <ns3:cad>0</ns3:cad>
          </ns3:TrackPointExtension>
        </extensions>
      </trkpt>
      <trkpt lat="45.243763513863086700439453125" lon="-71.136150062084197998046875">
        <ele>1020.20001220703125</ele>
        <time>2026-08-22T02:39:03.000Z</time>
        <extensions>
          <ns3:TrackPointExtension>
            <ns3:hr>122</ns3:hr>
            <ns3:cad>0</ns3:cad>
          </ns3:TrackPointExtension>
        </extensions>
      </trkpt>
      <trkpt lat="45.2437626756727695465087890625" lon="-71.13616816699504852294921875">
        <ele>1020</ele>
        <time>2026-08-22T02:39:04.000Z</time>
        <extensions>
          <ns3:TrackPointExtension>
            <ns3:hr>121</ns3:hr>
            <ns3:cad>68</ns3:cad>
          </ns3:TrackPointExtension>
        </extensions>
      </trkpt>
      <trkpt lat="45.2437677048146724700927734375" lon="-71.13619205541908740997314453125">
        <ele>1019.79998779296875</ele>
        <time>2026-08-22T02:39:05.000Z</time>
        <extensions>
          <ns3:TrackPointExtension>
            <ns3:hr>120</ns3:hr>
            <ns3:cad>68</ns3:cad>
          </ns3:TrackPointExtension>
        </extensions>
      </trkpt>
      <trkpt lat="45.243764854967594146728515625" lon="-71.1362062208354473114013671875">
        <ele>1019.4000244140625</ele>
        <time>2026-08-22T02:39:06.000Z</time>
        <extensions>
          <ns3:TrackPointExtension>
            <ns3:hr>120</ns3:hr>
            <ns3:cad>0</ns3:cad>
          </ns3:TrackPointExtension>
        </extensions>
      </trkpt>
      <trkpt lat="45.2437631785869598388671875" lon="-71.136214435100555419921875">
        <ele>1019.4000244140625</ele>
        <time>2026-08-22T02:39:07.000Z</time>
        <extensions>
          <ns3:TrackPointExtension>
            <ns3:hr>119</ns3:hr>
            <ns3:cad>0</ns3:cad>
          </ns3:TrackPointExtension>
        </extensions>
      </trkpt>
      <trkpt lat="45.2437677048146724700927734375" lon="-71.13623388111591339111328125">
        <ele>1019.20001220703125</ele>
        <time>2026-08-22T02:39:08.000Z</time>
        <extensions>
          <ns3:TrackPointExtension>
            <ns3:hr>119</ns3:hr>
            <ns3:cad>0</ns3:cad>
          </ns3:TrackPointExtension>
        </extensions>
      </trkpt>
      <trkpt lat="45.24377298541367053985595703125" lon="-71.13625005818903446197509765625">
        <ele>1019.20001220703125</ele>
        <time>2026-08-22T02:39:09.000Z</time>
        <extensions>
          <ns3:TrackPointExtension>
            <ns3:hr>119</ns3:hr>
            <ns3:cad>0</ns3:cad>
          </ns3:TrackPointExtension>
        </extensions>
      </trkpt>
      <trkpt lat="45.24377323687076568603515625" lon="-71.1362585239112377166748046875">
        <ele>1019</ele>
        <time>2026-08-22T02:39:10.000Z</time>
        <extensions>
          <ns3:TrackPointExtension>
            <ns3:hr>119</ns3:hr>
            <ns3:cad>0</ns3:cad>
          </ns3:TrackPointExtension>
        </extensions>
      </trkpt>
      <trkpt lat="45.24377767927944660186767578125" lon="-71.1362721025943756103515625">
        <ele>1018.79998779296875</ele>
        <time>2026-08-22T02:39:11.000Z</time>
        <extensions>
          <ns3:TrackPointExtension>
            <ns3:hr>118</ns3:hr>
            <ns3:cad>0</ns3:cad>
          </ns3:TrackPointExtension>
        </extensions>
      </trkpt>
      <trkpt lat="45.24377985857427120208740234375" lon="-71.1362893693149089813232421875">
        <ele>1018.5999755859375</ele>
        <time>2026-08-22T02:39:12.000Z</time>
        <extensions>
          <ns3:TrackPointExtension>
            <ns3:hr>118</ns3:hr>
            <ns3:cad>0</ns3:cad>
          </ns3:TrackPointExtension>
        </extensions>
      </trkpt>
      <trkpt lat="45.2437797747552394866943359375" lon="-71.1363042891025543212890625">
        <ele>1018.4000244140625</ele>
        <time>2026-08-22T02:39:13.000Z</time>
        <extensions>
          <ns3:TrackPointExtension>
            <ns3:hr>118</ns3:hr>
            <ns3:cad>0</ns3:cad>
          </ns3:TrackPointExtension>
        </extensions>
      </trkpt>
      <trkpt lat="45.2437817864120006561279296875" lon="-71.13632298074662685394287109375">
        <ele>1018.20001220703125</ele>
        <time>2026-08-22T02:39:14.000Z</time>
        <extensions>
          <ns3:TrackPointExtension>
            <ns3:hr>118</ns3:hr>
            <ns3:cad>0</ns3:cad>
          </ns3:TrackPointExtension>
        </extensions>
      </trkpt>
      <trkpt lat="45.243781618773937225341796875" lon="-71.13634225912392139434814453125">
        <ele>1018</ele>
        <time>2026-08-22T02:39:15.000Z</time>
        <extensions>
          <ns3:TrackPointExtension>
            <ns3:hr>118</ns3:hr>
            <ns3:cad>0</ns3:cad>
          </ns3:TrackPointExtension>
        </extensions>
      </trkpt>
      <trkpt lat="45.2437814511358737945556640625" lon="-71.136348880827426910400390625">
        <ele>1017.5999755859375</ele>
        <time>2026-08-22T02:39:16.000Z</time>
        <extensions>
          <ns3:TrackPointExtension>
            <ns3:hr>119</ns3:hr>
            <ns3:cad>0</ns3:cad>
          </ns3:TrackPointExtension>
        </extensions>
      </trkpt>
      <trkpt lat="45.24378103204071521759033203125" lon="-71.13636220805346965789794921875">
        <ele>1017.4000244140625</ele>
        <time>2026-08-22T02:39:17.000Z</time>
        <extensions>
          <ns3:TrackPointExtension>
            <ns3:hr>118</ns3:hr>
            <ns3:cad>0</ns3:cad>
          </ns3:TrackPointExtension>
        </extensions>
      </trkpt>
      <trkpt lat="45.24378287605941295623779296875" lon="-71.136377044022083282470703125">
        <ele>1017</ele>
        <time>2026-08-22T02:39:18.000Z</time>
        <extensions>
          <ns3:TrackPointExtension>
            <ns3:hr>118</ns3:hr>
            <ns3:cad>0</ns3:cad>
          </ns3:TrackPointExtension>
        </extensions>
      </trkpt>
      <trkpt lat="45.24379092268645763397216796875" lon="-71.136400513350963592529296875">
        <ele>1016.5999755859375</ele>
        <time>2026-08-22T02:39:19.000Z</time>
        <extensions>
          <ns3:TrackPointExtension>
            <ns3:hr>118</ns3:hr>
            <ns3:cad>0</ns3:cad>
          </ns3:TrackPointExtension>
        </extensions>
      </trkpt>
      <trkpt lat="45.24378933012485504150390625" lon="-71.1364047043025493621826171875">
        <ele>1016.20001220703125</ele>
        <time>2026-08-22T02:39:20.000Z</time>
        <extensions>
          <ns3:TrackPointExtension>
            <ns3:hr>118</ns3:hr>
            <ns3:cad>0</ns3:cad>
          </ns3:TrackPointExtension>
        </extensions>
      </trkpt>
      <trkpt lat="45.24379075504839420318603515625" lon="-71.13641568459570407867431640625">
        <ele>1016</ele>
        <time>2026-08-22T02:39:21.000Z</time>
        <extensions>
          <ns3:TrackPointExtension>
            <ns3:hr>118</ns3:hr>
            <ns3:cad>0</ns3:cad>
          </ns3:TrackPointExtension>
        </extensions>
      </trkpt>
      <trkpt lat="45.2437913417816162109375" lon="-71.1364278383553028106689453125">
        <ele>1015.79998779296875</ele>
        <time>2026-08-22T02:39:22.000Z</time>
        <extensions>
          <ns3:TrackPointExtension>
            <ns3:hr>117</ns3:hr>
            <ns3:cad>0</ns3:cad>
          </ns3:TrackPointExtension>
        </extensions>
      </trkpt>
      <trkpt lat="45.243793018162250518798828125" lon="-71.1364464461803436279296875">
        <ele>1015.4000244140625</ele>
        <time>2026-08-22T02:39:23.000Z</time>
        <extensions>
          <ns3:TrackPointExtension>
            <ns3:hr>117</ns3:hr>
            <ns3:cad>0</ns3:cad>
          </ns3:TrackPointExtension>
        </extensions>
      </trkpt>
      <trkpt lat="45.24379444308578968048095703125" lon="-71.1364544928073883056640625">
        <ele>1015.4000244140625</ele>
        <time>2026-08-22T02:39:24.000Z</time>
        <extensions>
          <ns3:TrackPointExtension>
            <ns3:hr>118</ns3:hr>
            <ns3:cad>0</ns3:cad>
          </ns3:TrackPointExtension>
        </extensions>
      </trkpt>
      <trkpt lat="45.2437988854944705963134765625" lon="-71.136476956307888031005859375">
        <ele>1015.20001220703125</ele>
        <time>2026-08-22T02:39:25.000Z</time>
        <extensions>
          <ns3:TrackPointExtension>
            <ns3:hr>118</ns3:hr>
            <ns3:cad>0</ns3:cad>
          </ns3:TrackPointExtension>
        </extensions>
      </trkpt>
      <trkpt lat="45.24380265735089778900146484375" lon="-71.13649732433259487152099609375">
        <ele>1015</ele>
        <time>2026-08-22T02:39:26.000Z</time>
        <extensions>
          <ns3:TrackPointExtension>
            <ns3:hr>119</ns3:hr>
            <ns3:cad>0</ns3:cad>
          </ns3:TrackPointExtension>
        </extensions>
      </trkpt>
      <trkpt lat="45.2438032440841197967529296875" lon="-71.1365163512527942657470703125">
        <ele>1014.79998779296875</ele>
        <time>2026-08-22T02:39:27.000Z</time>
        <extensions>
          <ns3:TrackPointExtension>
            <ns3:hr>118</ns3:hr>
            <ns3:cad>0</ns3:cad>
          </ns3:TrackPointExtension>
        </extensions>
      </trkpt>
      <trkpt lat="45.24380433373153209686279296875" lon="-71.1365354619920253753662109375">
        <ele>1014.5999755859375</ele>
        <time>2026-08-22T02:39:28.000Z</time>
        <extensions>
          <ns3:TrackPointExtension>
            <ns3:hr>118</ns3:hr>
            <ns3:cad>0</ns3:cad>
          </ns3:TrackPointExtension>
        </extensions>
      </trkpt>
      <trkpt lat="45.24380366317927837371826171875" lon="-71.13655063323676586151123046875">
        <ele>1014.4000244140625</ele>
        <time>2026-08-22T02:39:29.000Z</time>
        <extensions>
          <ns3:TrackPointExtension>
            <ns3:hr>118</ns3:hr>
            <ns3:cad>0</ns3:cad>
          </ns3:TrackPointExtension>
        </extensions>
      </trkpt>
      <trkpt lat="45.243805088102817535400390625" lon="-71.13657854497432708740234375">
        <ele>1014.20001220703125</ele>
        <time>2026-08-22T02:39:30.000Z</time>
        <extensions>
          <ns3:TrackPointExtension>
            <ns3:hr>118</ns3:hr>
            <ns3:cad>0</ns3:cad>
          </ns3:TrackPointExtension>
        </extensions>
      </trkpt>
      <trkpt lat="45.2438087761402130126953125" lon="-71.1366005055606365203857421875">
        <ele>1014</ele>
        <time>2026-08-22T02:39:31.000Z</time>
        <extensions>
          <ns3:TrackPointExtension>
            <ns3:hr>117</ns3:hr>
            <ns3:cad>0</ns3:cad>
          </ns3:TrackPointExtension>
        </extensions>
      </trkpt>
      <trkpt lat="45.24381020106375217437744140625" lon="-71.1366181075572967529296875">
        <ele>1013.79998779296875</ele>
        <time>2026-08-22T02:39:32.000Z</time>
        <extensions>
          <ns3:TrackPointExtension>
            <ns3:hr>116</ns3:hr>
            <ns3:cad>66</ns3:cad>
          </ns3:TrackPointExtension>
        </extensions>
      </trkpt>
      <trkpt lat="45.24381590075790882110595703125" lon="-71.13663931377232074737548828125">
        <ele>1013.79998779296875</ele>
        <time>2026-08-22T02:39:33.000Z</time>
        <extensions>
          <ns3:TrackPointExtension>
            <ns3:hr>116</ns3:hr>
            <ns3:cad>66</ns3:cad>
          </ns3:TrackPointExtension>
        </extensions>
      </trkpt>
      <trkpt lat="45.24382160045206546783447265625" lon="-71.13666362129151821136474609375">
        <ele>1013.5999755859375</ele>
        <time>2026-08-22T02:39:34.000Z</time>
        <extensions>
          <ns3:TrackPointExtension>
            <ns3:hr>116</ns3:hr>
            <ns3:cad>66</ns3:cad>
          </ns3:TrackPointExtension>
        </extensions>
      </trkpt>
      <trkpt lat="45.2438206784427165985107421875" lon="-71.136681474745273590087890625">
        <ele>1013.4000244140625</ele>
        <time>2026-08-22T02:39:35.000Z</time>
        <extensions>
          <ns3:TrackPointExtension>
            <ns3:hr>115</ns3:hr>
            <ns3:cad>66</ns3:cad>
          </ns3:TrackPointExtension>
        </extensions>
      </trkpt>
      <trkpt lat="45.2438220195472240447998046875" lon="-71.13670133985579013824462890625">
        <ele>1013.4000244140625</ele>
        <time>2026-08-22T02:39:36.000Z</time>
        <extensions>
          <ns3:TrackPointExtension>
            <ns3:hr>116</ns3:hr>
            <ns3:cad>66</ns3:cad>
          </ns3:TrackPointExtension>
        </extensions>
      </trkpt>
      <trkpt lat="45.24382579140365123748779296875" lon="-71.13672095350921154022216796875">
        <ele>1013.20001220703125</ele>
        <time>2026-08-22T02:39:37.000Z</time>
        <extensions>
          <ns3:TrackPointExtension>
            <ns3:hr>116</ns3:hr>
            <ns3:cad>66</ns3:cad>
          </ns3:TrackPointExtension>
        </extensions>
      </trkpt>
      <trkpt lat="45.24382889270782470703125" lon="-71.13674157299101352691650390625">
        <ele>1013</ele>
        <time>2026-08-22T02:39:38.000Z</time>
        <extensions>
          <ns3:TrackPointExtension>
            <ns3:hr>116</ns3:hr>
            <ns3:cad>66</ns3:cad>
          </ns3:TrackPointExtension>
        </extensions>
      </trkpt>
      <trkpt lat="45.24383182637393474578857421875" lon="-71.13676370121538639068603515625">
        <ele>1013</ele>
        <time>2026-08-22T02:39:39.000Z</time>
        <extensions>
          <ns3:TrackPointExtension>
            <ns3:hr>116</ns3:hr>
            <ns3:cad>0</ns3:cad>
          </ns3:TrackPointExtension>
        </extensions>
      </trkpt>
      <trkpt lat="45.24383224546909332275390625" lon="-71.13677694462239742279052734375">
        <ele>1012.79998779296875</ele>
        <time>2026-08-22T02:39:40.000Z</time>
        <extensions>
          <ns3:TrackPointExtension>
            <ns3:hr>116</ns3:hr>
            <ns3:cad>0</ns3:cad>
          </ns3:TrackPointExtension>
        </extensions>
      </trkpt>
      <trkpt lat="45.24383601732552051544189453125" lon="-71.1368026770651340484619140625">
        <ele>1012.79998779296875</ele>
        <time>2026-08-22T02:39:41.000Z</time>
        <extensions>
          <ns3:TrackPointExtension>
            <ns3:hr>116</ns3:hr>
            <ns3:cad>0</ns3:cad>
          </ns3:TrackPointExtension>
        </extensions>
      </trkpt>
      <trkpt lat="45.24384205229580402374267578125" lon="-71.136825643479824066162109375">
        <ele>1012.79998779296875</ele>
        <time>2026-08-22T02:39:42.000Z</time>
        <extensions>
          <ns3:TrackPointExtension>
            <ns3:hr>115</ns3:hr>
            <ns3:cad>0</ns3:cad>
          </ns3:TrackPointExtension>
        </extensions>
      </trkpt>
      <trkpt lat="45.2438441477715969085693359375" lon="-71.13685213029384613037109375">
        <ele>1012.79998779296875</ele>
        <time>2026-08-22T02:39:43.000Z</time>
        <extensions>
          <ns3:TrackPointExtension>
            <ns3:hr>116</ns3:hr>
            <ns3:cad>0</ns3:cad>
          </ns3:TrackPointExtension>
        </extensions>
      </trkpt>
      <trkpt lat="45.24384540505707263946533203125" lon="-71.13688574172556400299072265625">
        <ele>1012.5999755859375</ele>
        <time>2026-08-22T02:39:44.000Z</time>
        <extensions>
          <ns3:TrackPointExtension>
            <ns3:hr>118</ns3:hr>
            <ns3:cad>0</ns3:cad>
          </ns3:TrackPointExtension>
        </extensions>
      </trkpt>
      <trkpt lat="45.2438449859619140625" lon="-71.1369203589856624603271484375">
        <ele>1012.5999755859375</ele>
        <time>2026-08-22T02:39:45.000Z</time>
        <extensions>
          <ns3:TrackPointExtension>
            <ns3:hr>118</ns3:hr>
            <ns3:cad>0</ns3:cad>
          </ns3:TrackPointExtension>
        </extensions>
      </trkpt>
      <trkpt lat="45.2438491769134998321533203125" lon="-71.136951707303524017333984375">
        <ele>1012.5999755859375</ele>
        <time>2026-08-22T02:39:46.000Z</time>
        <extensions>
          <ns3:TrackPointExtension>
            <ns3:hr>118</ns3:hr>
            <ns3:cad>0</ns3:cad>
          </ns3:TrackPointExtension>
        </extensions>
      </trkpt>
      <trkpt lat="45.2438543736934661865234375" lon="-71.13697928376495838165283203125">
        <ele>1012.5999755859375</ele>
        <time>2026-08-22T02:39:47.000Z</time>
        <extensions>
          <ns3:TrackPointExtension>
            <ns3:hr>117</ns3:hr>
            <ns3:cad>0</ns3:cad>
          </ns3:TrackPointExtension>
        </extensions>
      </trkpt>
      <trkpt lat="45.24385982193052768707275390625" lon="-71.137000657618045806884765625">
        <ele>1012.5999755859375</ele>
        <time>2026-08-22T02:39:48.000Z</time>
        <extensions>
          <ns3:TrackPointExtension>
            <ns3:hr>117</ns3:hr>
            <ns3:cad>0</ns3:cad>
          </ns3:TrackPointExtension>
        </extensions>
      </trkpt>
      <trkpt lat="45.2438649348914623260498046875" lon="-71.1370246298611164093017578125">
        <ele>1012.4000244140625</ele>
        <time>2026-08-22T02:39:49.000Z</time>
        <extensions>
          <ns3:TrackPointExtension>
            <ns3:hr>116</ns3:hr>
            <ns3:cad>0</ns3:cad>
          </ns3:TrackPointExtension>
        </extensions>
      </trkpt>
      <trkpt lat="45.2438679523766040802001953125" lon="-71.1370387114584445953369140625">
        <ele>1012.20001220703125</ele>
        <time>2026-08-22T02:39:50.000Z</time>
        <extensions>
          <ns3:TrackPointExtension>
            <ns3:hr>116</ns3:hr>
            <ns3:cad>0</ns3:cad>
          </ns3:TrackPointExtension>
        </extensions>
      </trkpt>
      <trkpt lat="45.2438719756901264190673828125" lon="-71.1370598338544368743896484375">
        <ele>1012</ele>
        <time>2026-08-22T02:39:51.000Z</time>
        <extensions>
          <ns3:TrackPointExtension>
            <ns3:hr>116</ns3:hr>
            <ns3:cad>0</ns3:cad>
          </ns3:TrackPointExtension>
        </extensions>
      </trkpt>
      <trkpt lat="45.24387373588979244232177734375" lon="-71.137078441679477691650390625">
        <ele>1011.79998779296875</ele>
        <time>2026-08-22T02:39:52.000Z</time>
        <extensions>
          <ns3:TrackPointExtension>
            <ns3:hr>116</ns3:hr>
            <ns3:cad>0</ns3:cad>
          </ns3:TrackPointExtension>
        </extensions>
      </trkpt>
      <trkpt lat="45.24387650191783905029296875" lon="-71.13709595985710620880126953125">
        <ele>1011.5999755859375</ele>
        <time>2026-08-22T02:39:53.000Z</time>
        <extensions>
          <ns3:TrackPointExtension>
            <ns3:hr>115</ns3:hr>
            <ns3:cad>0</ns3:cad>
          </ns3:TrackPointExtension>
        </extensions>
      </trkpt>
      <trkpt lat="45.24388161487877368927001953125" lon="-71.13710383884608745574951171875">
        <ele>1011.5999755859375</ele>
        <time>2026-08-22T02:39:54.000Z</time>
        <extensions>
          <ns3:TrackPointExtension>
            <ns3:hr>115</ns3:hr>
            <ns3:cad>71</ns3:cad>
          </ns3:TrackPointExtension>
        </extensions>
      </trkpt>
      <trkpt lat="45.24388345889747142791748046875" lon="-71.13712043501436710357666015625">
        <ele>1011.4000244140625</ele>
        <time>2026-08-22T02:39:55.000Z</time>
        <extensions>
          <ns3:TrackPointExtension>
            <ns3:hr>115</ns3:hr>
            <ns3:cad>71</ns3:cad>
          </ns3:TrackPointExtension>
        </extensions>
      </trkpt>
      <trkpt lat="45.2438739873468875885009765625" lon="-71.1371362768113613128662109375">
        <ele>1011.20001220703125</ele>
        <time>2026-08-22T02:39:56.000Z</time>
        <extensions>
          <ns3:TrackPointExtension>
            <ns3:hr>115</ns3:hr>
            <ns3:cad>71</ns3:cad>
          </ns3:TrackPointExtension>
        </extensions>
      </trkpt>
      <trkpt lat="45.24386703036725521087646484375" lon="-71.13715647719800472259521484375">
        <ele>1011</ele>
        <time>2026-08-22T02:39:57.000Z</time>
        <extensions>
          <ns3:TrackPointExtension>
            <ns3:hr>114</ns3:hr>
            <ns3:cad>71</ns3:cad>
          </ns3:TrackPointExtension>
        </extensions>
      </trkpt>
      <trkpt lat="45.24386082775890827178955078125" lon="-71.13717542029917240142822265625">
        <ele>1010.79998779296875</ele>
        <time>2026-08-22T02:39:58.000Z</time>
        <extensions>
          <ns3:TrackPointExtension>
            <ns3:hr>114</ns3:hr>
            <ns3:cad>64</ns3:cad>
          </ns3:TrackPointExtension>
        </extensions>
      </trkpt>
      <trkpt lat="45.2438538707792758941650390625" lon="-71.137192435562610626220703125">
        <ele>1010.4000244140625</ele>
        <time>2026-08-22T02:39:59.000Z</time>
        <extensions>
          <ns3:TrackPointExtension>
            <ns3:hr>113</ns3:hr>
            <ns3:cad>0</ns3:cad>
          </ns3:TrackPointExtension>
        </extensions>
      </trkpt>
      <trkpt lat="45.243842303752899169921875" lon="-71.13721364177763462066650390625">
        <ele>1010.20001220703125</ele>
        <time>2026-08-22T02:40:00.000Z</time>
        <extensions>
          <ns3:TrackPointExtension>
            <ns3:hr>113</ns3:hr>
            <ns3:cad>0</ns3:cad>
          </ns3:TrackPointExtension>
        </extensions>
      </trkpt>
      <trkpt lat="45.24383551441133022308349609375" lon="-71.1372268013656139373779296875">
        <ele>1010</ele>
        <time>2026-08-22T02:40:01.000Z</time>
        <extensions>
          <ns3:TrackPointExtension>
            <ns3:hr>113</ns3:hr>
            <ns3:cad>0</ns3:cad>
          </ns3:TrackPointExtension>
        </extensions>
      </trkpt>
      <trkpt lat="45.2438253723084926605224609375" lon="-71.137236692011356353759765625">
        <ele>1009.79998779296875</ele>
        <time>2026-08-22T02:40:02.000Z</time>
        <extensions>
          <ns3:TrackPointExtension>
            <ns3:hr>114</ns3:hr>
            <ns3:cad>0</ns3:cad>
          </ns3:TrackPointExtension>
        </extensions>
      </trkpt>
      <trkpt lat="45.243814475834369659423828125" lon="-71.13725622184574604034423828125">
        <ele>1009.5999755859375</ele>
        <time>2026-08-22T02:40:03.000Z</time>
        <extensions>
          <ns3:TrackPointExtension>
            <ns3:hr>115</ns3:hr>
            <ns3:cad>0</ns3:cad>
          </ns3:TrackPointExtension>
        </extensions>
      </trkpt>
      <trkpt lat="45.2438102848827838897705078125" lon="-71.137270219624042510986328125">
        <ele>1009.4000244140625</ele>
        <time>2026-08-22T02:40:04.000Z</time>
        <extensions>
          <ns3:TrackPointExtension>
            <ns3:hr>116</ns3:hr>
            <ns3:cad>0</ns3:cad>
          </ns3:TrackPointExtension>
        </extensions>
      </trkpt>
      <trkpt lat="45.24379880167543888092041015625" lon="-71.1372928507626056671142578125">
        <ele>1009.20001220703125</ele>
        <time>2026-08-22T02:40:05.000Z</time>
        <extensions>
          <ns3:TrackPointExtension>
            <ns3:hr>116</ns3:hr>
            <ns3:cad>0</ns3:cad>
          </ns3:TrackPointExtension>
        </extensions>
      </trkpt>
      <trkpt lat="45.24379679001867771148681640625" lon="-71.13731171004474163055419921875">
        <ele>1008.79998779296875</ele>
        <time>2026-08-22T02:40:06.000Z</time>
        <extensions>
          <ns3:TrackPointExtension>
            <ns3:hr>116</ns3:hr>
            <ns3:cad>19</ns3:cad>
          </ns3:TrackPointExtension>
        </extensions>
      </trkpt>
      <trkpt lat="45.24379662238061428070068359375" lon="-71.13733358681201934814453125">
        <ele>1008.5999755859375</ele>
        <time>2026-08-22T02:40:07.000Z</time>
        <extensions>
          <ns3:TrackPointExtension>
            <ns3:hr>116</ns3:hr>
            <ns3:cad>19</ns3:cad>
          </ns3:TrackPointExtension>
        </extensions>
      </trkpt>
      <trkpt lat="45.2437935210764408111572265625" lon="-71.137355379760265350341796875">
        <ele>1008.4000244140625</ele>
        <time>2026-08-22T02:40:08.000Z</time>
        <extensions>
          <ns3:TrackPointExtension>
            <ns3:hr>117</ns3:hr>
            <ns3:cad>19</ns3:cad>
          </ns3:TrackPointExtension>
        </extensions>
      </trkpt>
      <trkpt lat="45.24379159323871135711669921875" lon="-71.137372143566608428955078125">
        <ele>1008</ele>
        <time>2026-08-22T02:40:09.000Z</time>
        <extensions>
          <ns3:TrackPointExtension>
            <ns3:hr>116</ns3:hr>
            <ns3:cad>19</ns3:cad>
          </ns3:TrackPointExtension>
        </extensions>
      </trkpt>
      <trkpt lat="45.2437888272106647491455078125" lon="-71.13738530315458774566650390625">
        <ele>1007.79998779296875</ele>
        <time>2026-08-22T02:40:10.000Z</time>
        <extensions>
          <ns3:TrackPointExtension>
            <ns3:hr>117</ns3:hr>
            <ns3:cad>19</ns3:cad>
          </ns3:TrackPointExtension>
        </extensions>
      </trkpt>
      <trkpt lat="45.24378706701099872589111328125" lon="-71.13739972002804279327392578125">
        <ele>1007.5999755859375</ele>
        <time>2026-08-22T02:40:11.000Z</time>
        <extensions>
          <ns3:TrackPointExtension>
            <ns3:hr>117</ns3:hr>
            <ns3:cad>19</ns3:cad>
          </ns3:TrackPointExtension>
        </extensions>
      </trkpt>
      <trkpt lat="45.2437792718410491943359375" lon="-71.13741899840533733367919921875">
        <ele>1007.4000244140625</ele>
        <time>2026-08-22T02:40:12.000Z</time>
        <extensions>
          <ns3:TrackPointExtension>
            <ns3:hr>117</ns3:hr>
            <ns3:cad>19</ns3:cad>
          </ns3:TrackPointExtension>
        </extensions>
      </trkpt>
      <trkpt lat="45.2437712252140045166015625" lon="-71.13743106834590435028076171875">
        <ele>1007.4000244140625</ele>
        <time>2026-08-22T02:40:13.000Z</time>
        <extensions>
          <ns3:TrackPointExtension>
            <ns3:hr>117</ns3:hr>
            <ns3:cad>19</ns3:cad>
          </ns3:TrackPointExtension>
        </extensions>
      </trkpt>
      <trkpt lat="45.243764854967594146728515625" lon="-71.13744297064840793609619140625">
        <ele>1007.20001220703125</ele>
        <time>2026-08-22T02:40:14.000Z</time>
        <extensions>
          <ns3:TrackPointExtension>
            <ns3:hr>118</ns3:hr>
            <ns3:cad>19</ns3:cad>
          </ns3:TrackPointExtension>
        </extensions>
      </trkpt>
      <trkpt lat="45.24376141838729381561279296875" lon="-71.137457974255084991455078125">
        <ele>1007.20001220703125</ele>
        <time>2026-08-22T02:40:15.000Z</time>
        <extensions>
          <ns3:TrackPointExtension>
            <ns3:hr>118</ns3:hr>
            <ns3:cad>19</ns3:cad>
          </ns3:TrackPointExtension>
        </extensions>
      </trkpt>
      <trkpt lat="45.243756137788295745849609375" lon="-71.13747230730950832366943359375">
        <ele>1007.20001220703125</ele>
        <time>2026-08-22T02:40:16.000Z</time>
        <extensions>
          <ns3:TrackPointExtension>
            <ns3:hr>118</ns3:hr>
            <ns3:cad>19</ns3:cad>
          </ns3:TrackPointExtension>
        </extensions>
      </trkpt>
      <trkpt lat="45.24375286884605884552001953125" lon="-71.13748571835458278656005859375">
        <ele>1007.20001220703125</ele>
        <time>2026-08-22T02:40:17.000Z</time>
        <extensions>
          <ns3:TrackPointExtension>
            <ns3:hr>119</ns3:hr>
            <ns3:cad>53</ns3:cad>
          </ns3:TrackPointExtension>
        </extensions>
      </trkpt>
      <trkpt lat="45.24375655688345432281494140625" lon="-71.137504912912845611572265625">
        <ele>1007.20001220703125</ele>
        <time>2026-08-22T02:40:18.000Z</time>
        <extensions>
          <ns3:TrackPointExtension>
            <ns3:hr>119</ns3:hr>
            <ns3:cad>53</ns3:cad>
          </ns3:TrackPointExtension>
        </extensions>
      </trkpt>
      <trkpt lat="45.24375454522669315338134765625" lon="-71.13752402365207672119140625">
        <ele>1007</ele>
        <time>2026-08-22T02:40:19.000Z</time>
        <extensions>
          <ns3:TrackPointExtension>
            <ns3:hr>119</ns3:hr>
            <ns3:cad>53</ns3:cad>
          </ns3:TrackPointExtension>
        </extensions>
      </trkpt>
      <trkpt lat="45.2437519468367099761962890625" lon="-71.1375381052494049072265625">
        <ele>1007</ele>
        <time>2026-08-22T02:40:20.000Z</time>
        <extensions>
          <ns3:TrackPointExtension>
            <ns3:hr>119</ns3:hr>
            <ns3:cad>0</ns3:cad>
          </ns3:TrackPointExtension>
        </extensions>
      </trkpt>
      <trkpt lat="45.243746750056743621826171875" lon="-71.1375570483505725860595703125">
        <ele>1006.79998779296875</ele>
        <time>2026-08-22T02:40:21.000Z</time>
        <extensions>
          <ns3:TrackPointExtension>
            <ns3:hr>119</ns3:hr>
            <ns3:cad>0</ns3:cad>
          </ns3:TrackPointExtension>
        </extensions>
      </trkpt>
      <trkpt lat="45.24374079890549182891845703125" lon="-71.13757004030048847198486328125">
        <ele>1006.79998779296875</ele>
        <time>2026-08-22T02:40:22.000Z</time>
        <extensions>
          <ns3:TrackPointExtension>
            <ns3:hr>119</ns3:hr>
            <ns3:cad>0</ns3:cad>
          </ns3:TrackPointExtension>
        </extensions>
      </trkpt>
      <trkpt lat="45.24373409338295459747314453125" lon="-71.137592084705829620361328125">
        <ele>1006.5999755859375</ele>
        <time>2026-08-22T02:40:23.000Z</time>
        <extensions>
          <ns3:TrackPointExtension>
            <ns3:hr>119</ns3:hr>
            <ns3:cad>0</ns3:cad>
          </ns3:TrackPointExtension>
        </extensions>
      </trkpt>
      <trkpt lat="45.24372822605073451995849609375" lon="-71.137609183788299560546875">
        <ele>1006.5999755859375</ele>
        <time>2026-08-22T02:40:24.000Z</time>
        <extensions>
          <ns3:TrackPointExtension>
            <ns3:hr>118</ns3:hr>
            <ns3:cad>0</ns3:cad>
          </ns3:TrackPointExtension>
        </extensions>
      </trkpt>
      <trkpt lat="45.2437207661569118499755859375" lon="-71.13762862980365753173828125">
        <ele>1006.4000244140625</ele>
        <time>2026-08-22T02:40:25.000Z</time>
        <extensions>
          <ns3:TrackPointExtension>
            <ns3:hr>118</ns3:hr>
            <ns3:cad>0</ns3:cad>
          </ns3:TrackPointExtension>
        </extensions>
      </trkpt>
      <trkpt lat="45.2437190897762775421142578125" lon="-71.1376371793448925018310546875">
        <ele>1006.4000244140625</ele>
        <time>2026-08-22T02:40:26.000Z</time>
        <extensions>
          <ns3:TrackPointExtension>
            <ns3:hr>116</ns3:hr>
            <ns3:cad>0</ns3:cad>
          </ns3:TrackPointExtension>
        </extensions>
      </trkpt>
      <trkpt lat="45.24371431209146976470947265625" lon="-71.13765754736959934234619140625">
        <ele>1006.20001220703125</ele>
        <time>2026-08-22T02:40:27.000Z</time>
        <extensions>
          <ns3:TrackPointExtension>
            <ns3:hr>116</ns3:hr>
            <ns3:cad>56</ns3:cad>
          </ns3:TrackPointExtension>
        </extensions>
      </trkpt>
      <trkpt lat="45.24370978586375713348388671875" lon="-71.137665845453739166259765625">
        <ele>1006.20001220703125</ele>
        <time>2026-08-22T02:40:28.000Z</time>
        <extensions>
          <ns3:TrackPointExtension>
            <ns3:hr>115</ns3:hr>
            <ns3:cad>56</ns3:cad>
          </ns3:TrackPointExtension>
        </extensions>
      </trkpt>
      <trkpt lat="45.24370425380766391754150390625" lon="-71.13768286071717739105224609375">
        <ele>1006</ele>
        <time>2026-08-22T02:40:29.000Z</time>
        <extensions>
          <ns3:TrackPointExtension>
            <ns3:hr>115</ns3:hr>
            <ns3:cad>56</ns3:cad>
          </ns3:TrackPointExtension>
        </extensions>
      </trkpt>
      <trkpt lat="45.24369805119931697845458984375" lon="-71.137700714170932769775390625">
        <ele>1005.79998779296875</ele>
        <time>2026-08-22T02:40:30.000Z</time>
        <extensions>
          <ns3:TrackPointExtension>
            <ns3:hr>115</ns3:hr>
            <ns3:cad>56</ns3:cad>
          </ns3:TrackPointExtension>
        </extensions>
      </trkpt>
      <trkpt lat="45.24369771592319011688232421875" lon="-71.1377204954624176025390625">
        <ele>1005.5999755859375</ele>
        <time>2026-08-22T02:40:31.000Z</time>
        <extensions>
          <ns3:TrackPointExtension>
            <ns3:hr>115</ns3:hr>
            <ns3:cad>56</ns3:cad>
          </ns3:TrackPointExtension>
        </extensions>
      </trkpt>
      <trkpt lat="45.243689082562923431396484375" lon="-71.137733571231365203857421875">
        <ele>1005.4000244140625</ele>
        <time>2026-08-22T02:40:32.000Z</time>
        <extensions>
          <ns3:TrackPointExtension>
            <ns3:hr>116</ns3:hr>
            <ns3:cad>56</ns3:cad>
          </ns3:TrackPointExtension>
        </extensions>
      </trkpt>
      <trkpt lat="45.24368111975491046905517578125" lon="-71.13774136640131473541259765625">
        <ele>1005.20001220703125</ele>
        <time>2026-08-22T02:40:33.000Z</time>
        <extensions>
          <ns3:TrackPointExtension>
            <ns3:hr>116</ns3:hr>
            <ns3:cad>56</ns3:cad>
          </ns3:TrackPointExtension>
        </extensions>
      </trkpt>
      <trkpt lat="45.243678353726863861083984375" lon="-71.13775880075991153717041015625">
        <ele>1005</ele>
        <time>2026-08-22T02:40:34.000Z</time>
        <extensions>
          <ns3:TrackPointExtension>
            <ns3:hr>116</ns3:hr>
            <ns3:cad>56</ns3:cad>
          </ns3:TrackPointExtension>
        </extensions>
      </trkpt>
      <trkpt lat="45.24367441423237323760986328125" lon="-71.1377756483852863311767578125">
        <ele>1004.79998779296875</ele>
        <time>2026-08-22T02:40:35.000Z</time>
        <extensions>
          <ns3:TrackPointExtension>
            <ns3:hr>116</ns3:hr>
            <ns3:cad>0</ns3:cad>
          </ns3:TrackPointExtension>
        </extensions>
      </trkpt>
      <trkpt lat="45.2436634339392185211181640625" lon="-71.1377974413335323333740234375">
        <ele>1004.5999755859375</ele>
        <time>2026-08-22T02:40:36.000Z</time>
        <extensions>
          <ns3:TrackPointExtension>
            <ns3:hr>116</ns3:hr>
            <ns3:cad>0</ns3:cad>
          </ns3:TrackPointExtension>
        </extensions>
      </trkpt>
      <trkpt lat="45.24365848861634731292724609375" lon="-71.1378192342817783355712890625">
        <ele>1004.4000244140625</ele>
        <time>2026-08-22T02:40:37.000Z</time>
        <extensions>
          <ns3:TrackPointExtension>
            <ns3:hr>116</ns3:hr>
            <ns3:cad>0</ns3:cad>
          </ns3:TrackPointExtension>
        </extensions>
      </trkpt>
      <trkpt lat="45.243654884397983551025390625" lon="-71.137842200696468353271484375">
        <ele>1004.20001220703125</ele>
        <time>2026-08-22T02:40:38.000Z</time>
        <extensions>
          <ns3:TrackPointExtension>
            <ns3:hr>115</ns3:hr>
            <ns3:cad>0</ns3:cad>
          </ns3:TrackPointExtension>
        </extensions>
      </trkpt>
      <trkpt lat="45.24364993907511234283447265625" lon="-71.137864999473094940185546875">
        <ele>1004</ele>
        <time>2026-08-22T02:40:39.000Z</time>
        <extensions>
          <ns3:TrackPointExtension>
            <ns3:hr>115</ns3:hr>
            <ns3:cad>0</ns3:cad>
          </ns3:TrackPointExtension>
        </extensions>
      </trkpt>
      <trkpt lat="45.24364071898162364959716796875" lon="-71.13789106719195842742919921875">
        <ele>1003.79998779296875</ele>
        <time>2026-08-22T02:40:40.000Z</time>
        <extensions>
          <ns3:TrackPointExtension>
            <ns3:hr>115</ns3:hr>
            <ns3:cad>0</ns3:cad>
          </ns3:TrackPointExtension>
        </extensions>
      </trkpt>
      <trkpt lat="45.24362982250750064849853515625" lon="-71.13791872747242450714111328125">
        <ele>1003.79998779296875</ele>
        <time>2026-08-22T02:40:41.000Z</time>
        <extensions>
          <ns3:TrackPointExtension>
            <ns3:hr>115</ns3:hr>
            <ns3:cad>0</ns3:cad>
          </ns3:TrackPointExtension>
        </extensions>
      </trkpt>
      <trkpt lat="45.24362211115658283233642578125" lon="-71.1379308812320232391357421875">
        <ele>1003.5999755859375</ele>
        <time>2026-08-22T02:40:42.000Z</time>
        <extensions>
          <ns3:TrackPointExtension>
            <ns3:hr>115</ns3:hr>
            <ns3:cad>0</ns3:cad>
          </ns3:TrackPointExtension>
        </extensions>
      </trkpt>
      <trkpt lat="45.24362127296626567840576171875" lon="-71.137944795191287994384765625">
        <ele>1003.5999755859375</ele>
        <time>2026-08-22T02:40:43.000Z</time>
        <extensions>
          <ns3:TrackPointExtension>
            <ns3:hr>114</ns3:hr>
            <ns3:cad>0</ns3:cad>
          </ns3:TrackPointExtension>
        </extensions>
      </trkpt>
      <trkpt lat="45.24361632764339447021484375" lon="-71.1379677616059780120849609375">
        <ele>1003.4000244140625</ele>
        <time>2026-08-22T02:40:44.000Z</time>
        <extensions>
          <ns3:TrackPointExtension>
            <ns3:hr>114</ns3:hr>
            <ns3:cad>68</ns3:cad>
          </ns3:TrackPointExtension>
        </extensions>
      </trkpt>
      <trkpt lat="45.243605934083461761474609375" lon="-71.13798863254487514495849609375">
        <ele>1003.4000244140625</ele>
        <time>2026-08-22T02:40:45.000Z</time>
        <extensions>
          <ns3:TrackPointExtension>
            <ns3:hr>114</ns3:hr>
            <ns3:cad>68</ns3:cad>
          </ns3:TrackPointExtension>
        </extensions>
      </trkpt>
      <trkpt lat="45.24360031820833683013916015625" lon="-71.1380120180547237396240234375">
        <ele>1003.4000244140625</ele>
        <time>2026-08-22T02:40:46.000Z</time>
        <extensions>
          <ns3:TrackPointExtension>
            <ns3:hr>114</ns3:hr>
            <ns3:cad>0</ns3:cad>
          </ns3:TrackPointExtension>
        </extensions>
      </trkpt>
      <trkpt lat="45.24359361268579959869384765625" lon="-71.13803707994520664215087890625">
        <ele>1003.4000244140625</ele>
        <time>2026-08-22T02:40:47.000Z</time>
        <extensions>
          <ns3:TrackPointExtension>
            <ns3:hr>114</ns3:hr>
            <ns3:cad>0</ns3:cad>
          </ns3:TrackPointExtension>
        </extensions>
      </trkpt>
      <trkpt lat="45.243587493896484375" lon="-71.138058118522167205810546875">
        <ele>1003.4000244140625</ele>
        <time>2026-08-22T02:40:48.000Z</time>
        <extensions>
          <ns3:TrackPointExtension>
            <ns3:hr>115</ns3:hr>
            <ns3:cad>0</ns3:cad>
          </ns3:TrackPointExtension>
        </extensions>
      </trkpt>
      <trkpt lat="45.2435802854597568511962890625" lon="-71.1380743794143199920654296875">
        <ele>1003.4000244140625</ele>
        <time>2026-08-22T02:40:49.000Z</time>
        <extensions>
          <ns3:TrackPointExtension>
            <ns3:hr>114</ns3:hr>
            <ns3:cad>0</ns3:cad>
          </ns3:TrackPointExtension>
        </extensions>
      </trkpt>
      <trkpt lat="45.24357399903237819671630859375" lon="-71.13809801638126373291015625">
        <ele>1003.20001220703125</ele>
        <time>2026-08-22T02:40:50.000Z</time>
        <extensions>
          <ns3:TrackPointExtension>
            <ns3:hr>115</ns3:hr>
            <ns3:cad>0</ns3:cad>
          </ns3:TrackPointExtension>
        </extensions>
      </trkpt>
      <trkpt lat="45.24356729350984096527099609375" lon="-71.13812483847141265869140625">
        <ele>1003.20001220703125</ele>
        <time>2026-08-22T02:40:51.000Z</time>
        <extensions>
          <ns3:TrackPointExtension>
            <ns3:hr>115</ns3:hr>
            <ns3:cad>0</ns3:cad>
          </ns3:TrackPointExtension>
        </extensions>
      </trkpt>
      <trkpt lat="45.24356209672987461090087890625" lon="-71.13813414238393306732177734375">
        <ele>1003.20001220703125</ele>
        <time>2026-08-22T02:40:52.000Z</time>
        <extensions>
          <ns3:TrackPointExtension>
            <ns3:hr>115</ns3:hr>
            <ns3:cad>0</ns3:cad>
          </ns3:TrackPointExtension>
        </extensions>
      </trkpt>
      <trkpt lat="45.24355270899832248687744140625" lon="-71.13814973272383213043212890625">
        <ele>1003.20001220703125</ele>
        <time>2026-08-22T02:40:53.000Z</time>
        <extensions>
          <ns3:TrackPointExtension>
            <ns3:hr>115</ns3:hr>
            <ns3:cad>0</ns3:cad>
          </ns3:TrackPointExtension>
        </extensions>
      </trkpt>
      <trkpt lat="45.243545584380626678466796875" lon="-71.138161383569240570068359375">
        <ele>1003.20001220703125</ele>
        <time>2026-08-22T02:40:54.000Z</time>
        <extensions>
          <ns3:TrackPointExtension>
            <ns3:hr>115</ns3:hr>
            <ns3:cad>0</ns3:cad>
          </ns3:TrackPointExtension>
        </extensions>
      </trkpt>
      <trkpt lat="45.2435373701155185699462890625" lon="-71.1381776444613933563232421875">
        <ele>1003.20001220703125</ele>
        <time>2026-08-22T02:40:55.000Z</time>
        <extensions>
          <ns3:TrackPointExtension>
            <ns3:hr>116</ns3:hr>
            <ns3:cad>0</ns3:cad>
          </ns3:TrackPointExtension>
        </extensions>
      </trkpt>
      <trkpt lat="45.24353326298296451568603515625" lon="-71.13818787038326263427734375">
        <ele>1003.20001220703125</ele>
        <time>2026-08-22T02:40:56.000Z</time>
        <extensions>
          <ns3:TrackPointExtension>
            <ns3:hr>117</ns3:hr>
            <ns3:cad>0</ns3:cad>
          </ns3:TrackPointExtension>
        </extensions>
      </trkpt>
      <trkpt lat="45.24353041313588619232177734375" lon="-71.138202287256717681884765625">
        <ele>1003.20001220703125</ele>
        <time>2026-08-22T02:40:57.000Z</time>
        <extensions>
          <ns3:TrackPointExtension>
            <ns3:hr>118</ns3:hr>
            <ns3:cad>0</ns3:cad>
          </ns3:TrackPointExtension>
        </extensions>
      </trkpt>
      <trkpt lat="45.24352504871785640716552734375" lon="-71.1382140219211578369140625">
        <ele>1003</ele>
        <time>2026-08-22T02:40:58.000Z</time>
        <extensions>
          <ns3:TrackPointExtension>
            <ns3:hr>118</ns3:hr>
            <ns3:cad>0</ns3:cad>
          </ns3:TrackPointExtension>
        </extensions>
      </trkpt>
      <trkpt lat="45.24351582862436771392822265625" lon="-71.13823858089745044708251953125">
        <ele>1003</ele>
        <time>2026-08-22T02:40:59.000Z</time>
        <extensions>
          <ns3:TrackPointExtension>
            <ns3:hr>118</ns3:hr>
            <ns3:cad>0</ns3:cad>
          </ns3:TrackPointExtension>
        </extensions>
      </trkpt>
      <trkpt lat="45.2435102127492427825927734375" lon="-71.13825081847608089447021484375">
        <ele>1003</ele>
        <time>2026-08-22T02:41:00.000Z</time>
        <extensions>
          <ns3:TrackPointExtension>
            <ns3:hr>118</ns3:hr>
            <ns3:cad>0</ns3:cad>
          </ns3:TrackPointExtension>
        </extensions>
      </trkpt>
      <trkpt lat="45.24350224994122982025146484375" lon="-71.13827395252883434295654296875">
        <ele>1002.79998779296875</ele>
        <time>2026-08-22T02:41:01.000Z</time>
        <extensions>
          <ns3:TrackPointExtension>
            <ns3:hr>118</ns3:hr>
            <ns3:cad>0</ns3:cad>
          </ns3:TrackPointExtension>
        </extensions>
      </trkpt>
      <trkpt lat="45.243493616580963134765625" lon="-71.13829113543033599853515625">
        <ele>1002.79998779296875</ele>
        <time>2026-08-22T02:41:02.000Z</time>
        <extensions>
          <ns3:TrackPointExtension>
            <ns3:hr>117</ns3:hr>
            <ns3:cad>0</ns3:cad>
          </ns3:TrackPointExtension>
        </extensions>
      </trkpt>
      <trkpt lat="45.243488252162933349609375" lon="-71.138305552303791046142578125">
        <ele>1002.79998779296875</ele>
        <time>2026-08-22T02:41:03.000Z</time>
        <extensions>
          <ns3:TrackPointExtension>
            <ns3:hr>117</ns3:hr>
            <ns3:cad>0</ns3:cad>
          </ns3:TrackPointExtension>
        </extensions>
      </trkpt>
      <trkpt lat="45.24348313920199871063232421875" lon="-71.13831619732081890106201171875">
        <ele>1002.5999755859375</ele>
        <time>2026-08-22T02:41:04.000Z</time>
        <extensions>
          <ns3:TrackPointExtension>
            <ns3:hr>117</ns3:hr>
            <ns3:cad>0</ns3:cad>
          </ns3:TrackPointExtension>
        </extensions>
      </trkpt>
      <trkpt lat="45.2434820495545864105224609375" lon="-71.1383238248527050018310546875">
        <ele>1002.4000244140625</ele>
        <time>2026-08-22T02:41:05.000Z</time>
        <extensions>
          <ns3:TrackPointExtension>
            <ns3:hr>117</ns3:hr>
            <ns3:cad>0</ns3:cad>
          </ns3:TrackPointExtension>
        </extensions>
      </trkpt>
      <trkpt lat="45.24347878061234951019287109375" lon="-71.13833044655621051788330078125">
        <ele>1002.20001220703125</ele>
        <time>2026-08-22T02:41:06.000Z</time>
        <extensions>
          <ns3:TrackPointExtension>
            <ns3:hr>117</ns3:hr>
            <ns3:cad>0</ns3:cad>
          </ns3:TrackPointExtension>
        </extensions>
      </trkpt>
      <trkpt lat="45.24347676895558834075927734375" lon="-71.1383345536887645721435546875">
        <ele>1002</ele>
        <time>2026-08-22T02:41:07.000Z</time>
        <extensions>
          <ns3:TrackPointExtension>
            <ns3:hr>117</ns3:hr>
            <ns3:cad>0</ns3:cad>
          </ns3:TrackPointExtension>
        </extensions>
      </trkpt>
      <trkpt lat="45.243477188050746917724609375" lon="-71.13833882845938205718994140625">
        <ele>1001.79998779296875</ele>
        <time>2026-08-22T02:41:08.000Z</time>
        <extensions>
          <ns3:TrackPointExtension>
            <ns3:hr>116</ns3:hr>
            <ns3:cad>0</ns3:cad>
          </ns3:TrackPointExtension>
        </extensions>
      </trkpt>
      <trkpt lat="45.2434760145843029022216796875" lon="-71.13834385760128498077392578125">
        <ele>1001.79998779296875</ele>
        <time>2026-08-22T02:41:09.000Z</time>
        <extensions>
          <ns3:TrackPointExtension>
            <ns3:hr>116</ns3:hr>
            <ns3:cad>0</ns3:cad>
          </ns3:TrackPointExtension>
        </extensions>
      </trkpt>
      <trkpt lat="45.24347056634724140167236328125" lon="-71.1383509822189807891845703125">
        <ele>1001.5999755859375</ele>
        <time>2026-08-22T02:41:10.000Z</time>
        <extensions>
          <ns3:TrackPointExtension>
            <ns3:hr>115</ns3:hr>
            <ns3:cad>0</ns3:cad>
          </ns3:TrackPointExtension>
        </extensions>
      </trkpt>
      <trkpt lat="45.2434681355953216552734375" lon="-71.13835760392248630523681640625">
        <ele>1001.5999755859375</ele>
        <time>2026-08-22T02:41:11.000Z</time>
        <extensions>
          <ns3:TrackPointExtension>
            <ns3:hr>114</ns3:hr>
            <ns3:cad>0</ns3:cad>
          </ns3:TrackPointExtension>
        </extensions>
      </trkpt>
      <trkpt lat="45.2434646151959896087646484375" lon="-71.1383640579879283905029296875">
        <ele>1001.5999755859375</ele>
        <time>2026-08-22T02:41:12.000Z</time>
        <extensions>
          <ns3:TrackPointExtension>
            <ns3:hr>113</ns3:hr>
            <ns3:cad>0</ns3:cad>
          </ns3:TrackPointExtension>
        </extensions>
      </trkpt>
      <trkpt lat="45.24345983751118183135986328125" lon="-71.13836984150111675262451171875">
        <ele>1001.5999755859375</ele>
        <time>2026-08-22T02:41:13.000Z</time>
        <extensions>
          <ns3:TrackPointExtension>
            <ns3:hr>114</ns3:hr>
            <ns3:cad>0</ns3:cad>
          </ns3:TrackPointExtension>
        </extensions>
      </trkpt>
      <trkpt lat="45.24345346726477146148681640625" lon="-71.1383774690330028533935546875">
        <ele>1001.5999755859375</ele>
        <time>2026-08-22T02:41:14.000Z</time>
        <extensions>
          <ns3:TrackPointExtension>
            <ns3:hr>114</ns3:hr>
            <ns3:cad>0</ns3:cad>
          </ns3:TrackPointExtension>
        </extensions>
      </trkpt>
      <trkpt lat="45.24344994686543941497802734375" lon="-71.13838627003133296966552734375">
        <ele>1001.4000244140625</ele>
        <time>2026-08-22T02:41:15.000Z</time>
        <extensions>
          <ns3:TrackPointExtension>
            <ns3:hr>114</ns3:hr>
            <ns3:cad>0</ns3:cad>
          </ns3:TrackPointExtension>
        </extensions>
      </trkpt>
      <trkpt lat="45.24344173260033130645751953125" lon="-71.13839230500161647796630859375">
        <ele>1001.4000244140625</ele>
        <time>2026-08-22T02:41:16.000Z</time>
        <extensions>
          <ns3:TrackPointExtension>
            <ns3:hr>115</ns3:hr>
            <ns3:cad>0</ns3:cad>
          </ns3:TrackPointExtension>
        </extensions>
      </trkpt>
      <trkpt lat="45.24343452416360378265380859375" lon="-71.138402111828327178955078125">
        <ele>1001.20001220703125</ele>
        <time>2026-08-22T02:41:17.000Z</time>
        <extensions>
          <ns3:TrackPointExtension>
            <ns3:hr>115</ns3:hr>
            <ns3:cad>47</ns3:cad>
          </ns3:TrackPointExtension>
        </extensions>
      </trkpt>
      <trkpt lat="45.2434287406504154205322265625" lon="-71.13841108046472072601318359375">
        <ele>1001.20001220703125</ele>
        <time>2026-08-22T02:41:18.000Z</time>
        <extensions>
          <ns3:TrackPointExtension>
            <ns3:hr>115</ns3:hr>
            <ns3:cad>47</ns3:cad>
          </ns3:TrackPointExtension>
        </extensions>
      </trkpt>
      <trkpt lat="45.2434166707098484039306640625" lon="-71.13842432387173175811767578125">
        <ele>1001.20001220703125</ele>
        <time>2026-08-22T02:41:19.000Z</time>
        <extensions>
          <ns3:TrackPointExtension>
            <ns3:hr>114</ns3:hr>
            <ns3:cad>103</ns3:cad>
          </ns3:TrackPointExtension>
        </extensions>
      </trkpt>
      <trkpt lat="45.2434042654931545257568359375" lon="-71.13843865692615509033203125">
        <ele>1001</ele>
        <time>2026-08-22T02:41:20.000Z</time>
        <extensions>
          <ns3:TrackPointExtension>
            <ns3:hr>114</ns3:hr>
            <ns3:cad>103</ns3:cad>
          </ns3:TrackPointExtension>
        </extensions>
      </trkpt>
      <trkpt lat="45.2433992363512516021728515625" lon="-71.1384488828480243682861328125">
        <ele>1001</ele>
        <time>2026-08-22T02:41:21.000Z</time>
        <extensions>
          <ns3:TrackPointExtension>
            <ns3:hr>114</ns3:hr>
            <ns3:cad>103</ns3:cad>
          </ns3:TrackPointExtension>
        </extensions>
      </trkpt>
      <trkpt lat="45.24338356219232082366943359375" lon="-71.138471178710460662841796875">
        <ele>1001</ele>
        <time>2026-08-22T02:41:22.000Z</time>
        <extensions>
          <ns3:TrackPointExtension>
            <ns3:hr>114</ns3:hr>
            <ns3:cad>0</ns3:cad>
          </ns3:TrackPointExtension>
        </extensions>
      </trkpt>
      <trkpt lat="45.243371240794658660888671875" lon="-71.138484589755535125732421875">
        <ele>1001</ele>
        <time>2026-08-22T02:41:23.000Z</time>
        <extensions>
          <ns3:TrackPointExtension>
            <ns3:hr>114</ns3:hr>
            <ns3:cad>0</ns3:cad>
          </ns3:TrackPointExtension>
        </extensions>
      </trkpt>
      <trkpt lat="45.24335992522537708282470703125" lon="-71.13849774934351444244384765625">
        <ele>1000.79998779296875</ele>
        <time>2026-08-22T02:41:24.000Z</time>
        <extensions>
          <ns3:TrackPointExtension>
            <ns3:hr>115</ns3:hr>
            <ns3:cad>0</ns3:cad>
          </ns3:TrackPointExtension>
        </extensions>
      </trkpt>
      <trkpt lat="45.24335321970283985137939453125" lon="-71.13850772380828857421875">
        <ele>1000.79998779296875</ele>
        <time>2026-08-22T02:41:25.000Z</time>
        <extensions>
          <ns3:TrackPointExtension>
            <ns3:hr>116</ns3:hr>
            <ns3:cad>0</ns3:cad>
          </ns3:TrackPointExtension>
        </extensions>
      </trkpt>
      <trkpt lat="45.24333595298230648040771484375" lon="-71.13852255977690219879150390625">
        <ele>1000.5999755859375</ele>
        <time>2026-08-22T02:41:26.000Z</time>
        <extensions>
          <ns3:TrackPointExtension>
            <ns3:hr>116</ns3:hr>
            <ns3:cad>0</ns3:cad>
          </ns3:TrackPointExtension>
        </extensions>
      </trkpt>
      <trkpt lat="45.243327319622039794921875" lon="-71.13853261806070804595947265625">
        <ele>1000.4000244140625</ele>
        <time>2026-08-22T02:41:27.000Z</time>
        <extensions>
          <ns3:TrackPointExtension>
            <ns3:hr>116</ns3:hr>
            <ns3:cad>0</ns3:cad>
          </ns3:TrackPointExtension>
        </extensions>
      </trkpt>
      <trkpt lat="45.24331214837729930877685546875" lon="-71.13855441100895404815673828125">
        <ele>1000.20001220703125</ele>
        <time>2026-08-22T02:41:28.000Z</time>
        <extensions>
          <ns3:TrackPointExtension>
            <ns3:hr>117</ns3:hr>
            <ns3:cad>0</ns3:cad>
          </ns3:TrackPointExtension>
        </extensions>
      </trkpt>
      <trkpt lat="45.24330125190317630767822265625" lon="-71.13856564275920391082763671875">
        <ele>1000</ele>
        <time>2026-08-22T02:41:29.000Z</time>
        <extensions>
          <ns3:TrackPointExtension>
            <ns3:hr>117</ns3:hr>
            <ns3:cad>0</ns3:cad>
          </ns3:TrackPointExtension>
        </extensions>
      </trkpt>
      <trkpt lat="45.24328951723873615264892578125" lon="-71.1385793052613735198974609375">
        <ele>999.79998779296875</ele>
        <time>2026-08-22T02:41:30.000Z</time>
        <extensions>
          <ns3:TrackPointExtension>
            <ns3:hr>118</ns3:hr>
            <ns3:cad>0</ns3:cad>
          </ns3:TrackPointExtension>
        </extensions>
      </trkpt>
      <trkpt lat="45.24327727966010570526123046875" lon="-71.1385987512767314910888671875">
        <ele>999.5999755859375</ele>
        <time>2026-08-22T02:41:31.000Z</time>
        <extensions>
          <ns3:TrackPointExtension>
            <ns3:hr>118</ns3:hr>
            <ns3:cad>0</ns3:cad>
          </ns3:TrackPointExtension>
        </extensions>
      </trkpt>
      <trkpt lat="45.24326805956661701202392578125" lon="-71.138607971370220184326171875">
        <ele>999.4000244140625</ele>
        <time>2026-08-22T02:41:32.000Z</time>
        <extensions>
          <ns3:TrackPointExtension>
            <ns3:hr>118</ns3:hr>
            <ns3:cad>0</ns3:cad>
          </ns3:TrackPointExtension>
        </extensions>
      </trkpt>
      <trkpt lat="45.243254564702510833740234375" lon="-71.1386202089488506317138671875">
        <ele>999.20001220703125</ele>
        <time>2026-08-22T02:41:33.000Z</time>
        <extensions>
          <ns3:TrackPointExtension>
            <ns3:hr>117</ns3:hr>
            <ns3:cad>0</ns3:cad>
          </ns3:TrackPointExtension>
        </extensions>
      </trkpt>
      <trkpt lat="45.243243165314197540283203125" lon="-71.1386339552700519561767578125">
        <ele>999</ele>
        <time>2026-08-22T02:41:34.000Z</time>
        <extensions>
          <ns3:TrackPointExtension>
            <ns3:hr>118</ns3:hr>
            <ns3:cad>0</ns3:cad>
          </ns3:TrackPointExtension>
        </extensions>
      </trkpt>
      <trkpt lat="45.243235118687152862548828125" lon="-71.138646863400936126708984375">
        <ele>998.5999755859375</ele>
        <time>2026-08-22T02:41:35.000Z</time>
        <extensions>
          <ns3:TrackPointExtension>
            <ns3:hr>118</ns3:hr>
            <ns3:cad>0</ns3:cad>
          </ns3:TrackPointExtension>
        </extensions>
      </trkpt>
      <trkpt lat="45.243230760097503662109375" lon="-71.1386681534349918365478515625">
        <ele>998.4000244140625</ele>
        <time>2026-08-22T02:41:36.000Z</time>
        <extensions>
          <ns3:TrackPointExtension>
            <ns3:hr>117</ns3:hr>
            <ns3:cad>0</ns3:cad>
          </ns3:TrackPointExtension>
        </extensions>
      </trkpt>
      <trkpt lat="45.24322078563272953033447265625" lon="-71.13868617452681064605712890625">
        <ele>998</ele>
        <time>2026-08-22T02:41:37.000Z</time>
        <extensions>
          <ns3:TrackPointExtension>
            <ns3:hr>117</ns3:hr>
            <ns3:cad>0</ns3:cad>
          </ns3:TrackPointExtension>
        </extensions>
      </trkpt>
      <trkpt lat="45.24320729076862335205078125" lon="-71.13869355060160160064697265625">
        <ele>997.79998779296875</ele>
        <time>2026-08-22T02:41:38.000Z</time>
        <extensions>
          <ns3:TrackPointExtension>
            <ns3:hr>117</ns3:hr>
            <ns3:cad>0</ns3:cad>
          </ns3:TrackPointExtension>
        </extensions>
      </trkpt>
      <trkpt lat="45.2431933768093585968017578125" lon="-71.1387073807418346405029296875">
        <ele>997.5999755859375</ele>
        <time>2026-08-22T02:41:39.000Z</time>
        <extensions>
          <ns3:TrackPointExtension>
            <ns3:hr>118</ns3:hr>
            <ns3:cad>0</ns3:cad>
          </ns3:TrackPointExtension>
        </extensions>
      </trkpt>
      <trkpt lat="45.2431829832494258880615234375" lon="-71.13871986977756023406982421875">
        <ele>997.4000244140625</ele>
        <time>2026-08-22T02:41:40.000Z</time>
        <extensions>
          <ns3:TrackPointExtension>
            <ns3:hr>117</ns3:hr>
            <ns3:cad>0</ns3:cad>
          </ns3:TrackPointExtension>
        </extensions>
      </trkpt>
      <trkpt lat="45.24316982366144657135009765625" lon="-71.13873638212680816650390625">
        <ele>997.4000244140625</ele>
        <time>2026-08-22T02:41:41.000Z</time>
        <extensions>
          <ns3:TrackPointExtension>
            <ns3:hr>117</ns3:hr>
            <ns3:cad>0</ns3:cad>
          </ns3:TrackPointExtension>
        </extensions>
      </trkpt>
      <trkpt lat="45.2431591786444187164306640625" lon="-71.1387539841234683990478515625">
        <ele>997.20001220703125</ele>
        <time>2026-08-22T02:41:42.000Z</time>
        <extensions>
          <ns3:TrackPointExtension>
            <ns3:hr>116</ns3:hr>
            <ns3:cad>0</ns3:cad>
          </ns3:TrackPointExtension>
        </extensions>
      </trkpt>
      <trkpt lat="45.24314786307513713836669921875" lon="-71.13876680843532085418701171875">
        <ele>997.20001220703125</ele>
        <time>2026-08-22T02:41:43.000Z</time>
        <extensions>
          <ns3:TrackPointExtension>
            <ns3:hr>116</ns3:hr>
            <ns3:cad>71</ns3:cad>
          </ns3:TrackPointExtension>
        </extensions>
      </trkpt>
      <trkpt lat="45.243135206401348114013671875" lon="-71.13878667354583740234375">
        <ele>997.20001220703125</ele>
        <time>2026-08-22T02:41:44.000Z</time>
        <extensions>
          <ns3:TrackPointExtension>
            <ns3:hr>116</ns3:hr>
            <ns3:cad>71</ns3:cad>
          </ns3:TrackPointExtension>
        </extensions>
      </trkpt>
      <trkpt lat="45.24312221445143222808837890625" lon="-71.13880234770476818084716796875">
        <ele>997</ele>
        <time>2026-08-22T02:41:45.000Z</time>
        <extensions>
          <ns3:TrackPointExtension>
            <ns3:hr>116</ns3:hr>
            <ns3:cad>71</ns3:cad>
          </ns3:TrackPointExtension>
        </extensions>
      </trkpt>
      <trkpt lat="45.2431078813970088958740234375" lon="-71.13882380537688732147216796875">
        <ele>997</ele>
        <time>2026-08-22T02:41:46.000Z</time>
        <extensions>
          <ns3:TrackPointExtension>
            <ns3:hr>116</ns3:hr>
            <ns3:cad>71</ns3:cad>
          </ns3:TrackPointExtension>
        </extensions>
      </trkpt>
      <trkpt lat="45.2430954761803150177001953125" lon="-71.138839311897754669189453125">
        <ele>996.79998779296875</ele>
        <time>2026-08-22T02:41:47.000Z</time>
        <extensions>
          <ns3:TrackPointExtension>
            <ns3:hr>117</ns3:hr>
            <ns3:cad>71</ns3:cad>
          </ns3:TrackPointExtension>
        </extensions>
      </trkpt>
      <trkpt lat="45.24308566935360431671142578125" lon="-71.1388572491705417633056640625">
        <ele>996.79998779296875</ele>
        <time>2026-08-22T02:41:48.000Z</time>
        <extensions>
          <ns3:TrackPointExtension>
            <ns3:hr>117</ns3:hr>
            <ns3:cad>69</ns3:cad>
          </ns3:TrackPointExtension>
        </extensions>
      </trkpt>
      <trkpt lat="45.2430780418217182159423828125" lon="-71.13887719810009002685546875">
        <ele>996.5999755859375</ele>
        <time>2026-08-22T02:41:49.000Z</time>
        <extensions>
          <ns3:TrackPointExtension>
            <ns3:hr>117</ns3:hr>
            <ns3:cad>69</ns3:cad>
          </ns3:TrackPointExtension>
        </extensions>
      </trkpt>
      <trkpt lat="45.24305935017764568328857421875" lon="-71.138889603316783905029296875">
        <ele>996.5999755859375</ele>
        <time>2026-08-22T02:41:50.000Z</time>
        <extensions>
          <ns3:TrackPointExtension>
            <ns3:hr>117</ns3:hr>
            <ns3:cad>69</ns3:cad>
          </ns3:TrackPointExtension>
        </extensions>
      </trkpt>
      <trkpt lat="45.2430478669703006744384765625" lon="-71.13890728913247585296630859375">
        <ele>996.5999755859375</ele>
        <time>2026-08-22T02:41:51.000Z</time>
        <extensions>
          <ns3:TrackPointExtension>
            <ns3:hr>117</ns3:hr>
            <ns3:cad>69</ns3:cad>
          </ns3:TrackPointExtension>
        </extensions>
      </trkpt>
      <trkpt lat="45.24303822778165340423583984375" lon="-71.1389263160526752471923828125">
        <ele>996.5999755859375</ele>
        <time>2026-08-22T02:41:52.000Z</time>
        <extensions>
          <ns3:TrackPointExtension>
            <ns3:hr>118</ns3:hr>
            <ns3:cad>69</ns3:cad>
          </ns3:TrackPointExtension>
        </extensions>
      </trkpt>
      <trkpt lat="45.24303168989717960357666015625" lon="-71.13894484005868434906005859375">
        <ele>996.4000244140625</ele>
        <time>2026-08-22T02:41:53.000Z</time>
        <extensions>
          <ns3:TrackPointExtension>
            <ns3:hr>118</ns3:hr>
            <ns3:cad>69</ns3:cad>
          </ns3:TrackPointExtension>
        </extensions>
      </trkpt>
      <trkpt lat="45.24302481673657894134521484375" lon="-71.1389569938182830810546875">
        <ele>996.4000244140625</ele>
        <time>2026-08-22T02:41:54.000Z</time>
        <extensions>
          <ns3:TrackPointExtension>
            <ns3:hr>118</ns3:hr>
            <ns3:cad>69</ns3:cad>
          </ns3:TrackPointExtension>
        </extensions>
      </trkpt>
      <trkpt lat="45.24301283061504364013671875" lon="-71.1389719136059284210205078125">
        <ele>996.4000244140625</ele>
        <time>2026-08-22T02:41:55.000Z</time>
        <extensions>
          <ns3:TrackPointExtension>
            <ns3:hr>118</ns3:hr>
            <ns3:cad>0</ns3:cad>
          </ns3:TrackPointExtension>
        </extensions>
      </trkpt>
      <trkpt lat="45.24299816228449344635009765625" lon="-71.13898842595517635345458984375">
        <ele>996.20001220703125</ele>
        <time>2026-08-22T02:41:56.000Z</time>
        <extensions>
          <ns3:TrackPointExtension>
            <ns3:hr>118</ns3:hr>
            <ns3:cad>0</ns3:cad>
          </ns3:TrackPointExtension>
        </extensions>
      </trkpt>
      <trkpt lat="45.24299061857163906097412109375" lon="-71.13899898715317249298095703125">
        <ele>996.20001220703125</ele>
        <time>2026-08-22T02:41:57.000Z</time>
        <extensions>
          <ns3:TrackPointExtension>
            <ns3:hr>119</ns3:hr>
            <ns3:cad>0</ns3:cad>
          </ns3:TrackPointExtension>
        </extensions>
      </trkpt>
      <trkpt lat="45.24297703988850116729736328125" lon="-71.13901290111243724822998046875">
        <ele>996.20001220703125</ele>
        <time>2026-08-22T02:41:58.000Z</time>
        <extensions>
          <ns3:TrackPointExtension>
            <ns3:hr>118</ns3:hr>
            <ns3:cad>0</ns3:cad>
          </ns3:TrackPointExtension>
        </extensions>
      </trkpt>
      <trkpt lat="45.242961533367633819580078125" lon="-71.139033101499080657958984375">
        <ele>996</ele>
        <time>2026-08-22T02:41:59.000Z</time>
        <extensions>
          <ns3:TrackPointExtension>
            <ns3:hr>118</ns3:hr>
            <ns3:cad>0</ns3:cad>
          </ns3:TrackPointExtension>
        </extensions>
      </trkpt>
      <trkpt lat="45.24294711649417877197265625" lon="-71.139048524200916290283203125">
        <ele>996</ele>
        <time>2026-08-22T02:42:00.000Z</time>
        <extensions>
          <ns3:TrackPointExtension>
            <ns3:hr>118</ns3:hr>
            <ns3:cad>0</ns3:cad>
          </ns3:TrackPointExtension>
        </extensions>
      </trkpt>
      <trkpt lat="45.242929346859455108642578125" lon="-71.13906227052211761474609375">
        <ele>996</ele>
        <time>2026-08-22T02:42:01.000Z</time>
        <extensions>
          <ns3:TrackPointExtension>
            <ns3:hr>118</ns3:hr>
            <ns3:cad>0</ns3:cad>
          </ns3:TrackPointExtension>
        </extensions>
      </trkpt>
      <trkpt lat="45.24291384033858776092529296875" lon="-71.1390751786530017852783203125">
        <ele>996</ele>
        <time>2026-08-22T02:42:02.000Z</time>
        <extensions>
          <ns3:TrackPointExtension>
            <ns3:hr>118</ns3:hr>
            <ns3:cad>69</ns3:cad>
          </ns3:TrackPointExtension>
        </extensions>
      </trkpt>
      <trkpt lat="45.2429006807506084442138671875" lon="-71.1390875838696956634521484375">
        <ele>996</ele>
        <time>2026-08-22T02:42:03.000Z</time>
        <extensions>
          <ns3:TrackPointExtension>
            <ns3:hr>118</ns3:hr>
            <ns3:cad>69</ns3:cad>
          </ns3:TrackPointExtension>
        </extensions>
      </trkpt>
      <trkpt lat="45.24288986809551715850830078125" lon="-71.13910241983830928802490234375">
        <ele>996</ele>
        <time>2026-08-22T02:42:04.000Z</time>
        <extensions>
          <ns3:TrackPointExtension>
            <ns3:hr>119</ns3:hr>
            <ns3:cad>69</ns3:cad>
          </ns3:TrackPointExtension>
        </extensions>
      </trkpt>
      <trkpt lat="45.2428778819739818572998046875" lon="-71.139112226665019989013671875">
        <ele>995.79998779296875</ele>
        <time>2026-08-22T02:42:05.000Z</time>
        <extensions>
          <ns3:TrackPointExtension>
            <ns3:hr>118</ns3:hr>
            <ns3:cad>71</ns3:cad>
          </ns3:TrackPointExtension>
        </extensions>
      </trkpt>
      <trkpt lat="45.2428624592721462249755859375" lon="-71.13912756554782390594482421875">
        <ele>995.79998779296875</ele>
        <time>2026-08-22T02:42:06.000Z</time>
        <extensions>
          <ns3:TrackPointExtension>
            <ns3:hr>118</ns3:hr>
            <ns3:cad>71</ns3:cad>
          </ns3:TrackPointExtension>
        </extensions>
      </trkpt>
      <trkpt lat="45.242846198379993438720703125" lon="-71.139143407344818115234375">
        <ele>995.5999755859375</ele>
        <time>2026-08-22T02:42:07.000Z</time>
        <extensions>
          <ns3:TrackPointExtension>
            <ns3:hr>118</ns3:hr>
            <ns3:cad>71</ns3:cad>
          </ns3:TrackPointExtension>
        </extensions>
      </trkpt>
      <trkpt lat="45.24283270351588726043701171875" lon="-71.13916176371276378631591796875">
        <ele>995.5999755859375</ele>
        <time>2026-08-22T02:42:08.000Z</time>
        <extensions>
          <ns3:TrackPointExtension>
            <ns3:hr>119</ns3:hr>
            <ns3:cad>71</ns3:cad>
          </ns3:TrackPointExtension>
        </extensions>
      </trkpt>
      <trkpt lat="45.24281862191855907440185546875" lon="-71.13919042982161045074462890625">
        <ele>995.4000244140625</ele>
        <time>2026-08-22T02:42:09.000Z</time>
        <extensions>
          <ns3:TrackPointExtension>
            <ns3:hr>119</ns3:hr>
            <ns3:cad>69</ns3:cad>
          </ns3:TrackPointExtension>
        </extensions>
      </trkpt>
      <trkpt lat="45.242813341319561004638671875" lon="-71.13921725191175937652587890625">
        <ele>995.20001220703125</ele>
        <time>2026-08-22T02:42:10.000Z</time>
        <extensions>
          <ns3:TrackPointExtension>
            <ns3:hr>119</ns3:hr>
            <ns3:cad>69</ns3:cad>
          </ns3:TrackPointExtension>
        </extensions>
      </trkpt>
      <trkpt lat="45.2428071387112140655517578125" lon="-71.13924340344965457916259765625">
        <ele>995.20001220703125</ele>
        <time>2026-08-22T02:42:11.000Z</time>
        <extensions>
          <ns3:TrackPointExtension>
            <ns3:hr>119</ns3:hr>
            <ns3:cad>69</ns3:cad>
          </ns3:TrackPointExtension>
        </extensions>
      </trkpt>
      <trkpt lat="45.2428061328828334808349609375" lon="-71.1392636038362979888916015625">
        <ele>995</ele>
        <time>2026-08-22T02:42:12.000Z</time>
        <extensions>
          <ns3:TrackPointExtension>
            <ns3:hr>120</ns3:hr>
            <ns3:cad>69</ns3:cad>
          </ns3:TrackPointExtension>
        </extensions>
      </trkpt>
      <trkpt lat="45.24280504323542118072509765625" lon="-71.13928128965198993682861328125">
        <ele>994.79998779296875</ele>
        <time>2026-08-22T02:42:13.000Z</time>
        <extensions>
          <ns3:TrackPointExtension>
            <ns3:hr>121</ns3:hr>
            <ns3:cad>69</ns3:cad>
          </ns3:TrackPointExtension>
        </extensions>
      </trkpt>
      <trkpt lat="45.24280755780637264251708984375" lon="-71.139296628534793853759765625">
        <ele>994.5999755859375</ele>
        <time>2026-08-22T02:42:14.000Z</time>
        <extensions>
          <ns3:TrackPointExtension>
            <ns3:hr>122</ns3:hr>
            <ns3:cad>69</ns3:cad>
          </ns3:TrackPointExtension>
        </extensions>
      </trkpt>
      <trkpt lat="45.24280638433992862701416015625" lon="-71.13932588137686252593994140625">
        <ele>994.5999755859375</ele>
        <time>2026-08-22T02:42:15.000Z</time>
        <extensions>
          <ns3:TrackPointExtension>
            <ns3:hr>122</ns3:hr>
            <ns3:cad>69</ns3:cad>
          </ns3:TrackPointExtension>
        </extensions>
      </trkpt>
      <trkpt lat="45.2428071387112140655517578125" lon="-71.13934457302093505859375">
        <ele>994.5999755859375</ele>
        <time>2026-08-22T02:42:16.000Z</time>
        <extensions>
          <ns3:TrackPointExtension>
            <ns3:hr>123</ns3:hr>
            <ns3:cad>0</ns3:cad>
          </ns3:TrackPointExtension>
        </extensions>
      </trkpt>
      <trkpt lat="45.2428074739873409271240234375" lon="-71.139356978237628936767578125">
        <ele>994.5999755859375</ele>
        <time>2026-08-22T02:42:17.000Z</time>
        <extensions>
          <ns3:TrackPointExtension>
            <ns3:hr>123</ns3:hr>
            <ns3:cad>0</ns3:cad>
          </ns3:TrackPointExtension>
        </extensions>
      </trkpt>
      <trkpt lat="45.24280537851154804229736328125" lon="-71.139383800327777862548828125">
        <ele>994.5999755859375</ele>
        <time>2026-08-22T02:42:18.000Z</time>
        <extensions>
          <ns3:TrackPointExtension>
            <ns3:hr>123</ns3:hr>
            <ns3:cad>0</ns3:cad>
          </ns3:TrackPointExtension>
        </extensions>
      </trkpt>
      <trkpt lat="45.24280252866446971893310546875" lon="-71.13940232433378696441650390625">
        <ele>994.4000244140625</ele>
        <time>2026-08-22T02:42:19.000Z</time>
        <extensions>
          <ns3:TrackPointExtension>
            <ns3:hr>123</ns3:hr>
            <ns3:cad>73</ns3:cad>
          </ns3:TrackPointExtension>
        </extensions>
      </trkpt>
      <trkpt lat="45.2428000979125499725341796875" lon="-71.13942948170006275177001953125">
        <ele>994.4000244140625</ele>
        <time>2026-08-22T02:42:20.000Z</time>
        <extensions>
          <ns3:TrackPointExtension>
            <ns3:hr>123</ns3:hr>
            <ns3:cad>73</ns3:cad>
          </ns3:TrackPointExtension>
        </extensions>
      </trkpt>
      <trkpt lat="45.2427970804274082183837890625" lon="-71.13945445977151393890380859375">
        <ele>994.4000244140625</ele>
        <time>2026-08-22T02:42:21.000Z</time>
        <extensions>
          <ns3:TrackPointExtension>
            <ns3:hr>123</ns3:hr>
            <ns3:cad>73</ns3:cad>
          </ns3:TrackPointExtension>
        </extensions>
      </trkpt>
      <trkpt lat="45.24279800243675708770751953125" lon="-71.1394773423671722412109375">
        <ele>994.4000244140625</ele>
        <time>2026-08-22T02:42:22.000Z</time>
        <extensions>
          <ns3:TrackPointExtension>
            <ns3:hr>123</ns3:hr>
            <ns3:cad>73</ns3:cad>
          </ns3:TrackPointExtension>
        </extensions>
      </trkpt>
      <trkpt lat="45.24280202575027942657470703125" lon="-71.1395073495805263519287109375">
        <ele>994.4000244140625</ele>
        <time>2026-08-22T02:42:23.000Z</time>
        <extensions>
          <ns3:TrackPointExtension>
            <ns3:hr>124</ns3:hr>
            <ns3:cad>73</ns3:cad>
          </ns3:TrackPointExtension>
        </extensions>
      </trkpt>
      <trkpt lat="45.24280470795929431915283203125" lon="-71.139529645442962646484375">
        <ele>994.20001220703125</ele>
        <time>2026-08-22T02:42:24.000Z</time>
        <extensions>
          <ns3:TrackPointExtension>
            <ns3:hr>123</ns3:hr>
            <ns3:cad>73</ns3:cad>
          </ns3:TrackPointExtension>
        </extensions>
      </trkpt>
      <trkpt lat="45.2428042888641357421875" lon="-71.13955655135214328765869140625">
        <ele>994.20001220703125</ele>
        <time>2026-08-22T02:42:25.000Z</time>
        <extensions>
          <ns3:TrackPointExtension>
            <ns3:hr>123</ns3:hr>
            <ns3:cad>73</ns3:cad>
          </ns3:TrackPointExtension>
        </extensions>
      </trkpt>
      <trkpt lat="45.2428034506738185882568359375" lon="-71.139576919376850128173828125">
        <ele>994.20001220703125</ele>
        <time>2026-08-22T02:42:26.000Z</time>
        <extensions>
          <ns3:TrackPointExtension>
            <ns3:hr>123</ns3:hr>
            <ns3:cad>70</ns3:cad>
          </ns3:TrackPointExtension>
        </extensions>
      </trkpt>
      <trkpt lat="45.2428031153976917266845703125" lon="-71.13960801623761653900146484375">
        <ele>994</ele>
        <time>2026-08-22T02:42:27.000Z</time>
        <extensions>
          <ns3:TrackPointExtension>
            <ns3:hr>122</ns3:hr>
            <ns3:cad>70</ns3:cad>
          </ns3:TrackPointExtension>
        </extensions>
      </trkpt>
      <trkpt lat="45.24280202575027942657470703125" lon="-71.1396330781280994415283203125">
        <ele>994</ele>
        <time>2026-08-22T02:42:28.000Z</time>
        <extensions>
          <ns3:TrackPointExtension>
            <ns3:hr>122</ns3:hr>
            <ns3:cad>69</ns3:cad>
          </ns3:TrackPointExtension>
        </extensions>
      </trkpt>
      <trkpt lat="45.242801941931247711181640625" lon="-71.13965545780956745147705078125">
        <ele>993.79998779296875</ele>
        <time>2026-08-22T02:42:29.000Z</time>
        <extensions>
          <ns3:TrackPointExtension>
            <ns3:hr>122</ns3:hr>
            <ns3:cad>69</ns3:cad>
          </ns3:TrackPointExtension>
        </extensions>
      </trkpt>
      <trkpt lat="45.2428027801215648651123046875" lon="-71.1396669410169124603271484375">
        <ele>993.79998779296875</ele>
        <time>2026-08-22T02:42:30.000Z</time>
        <extensions>
          <ns3:TrackPointExtension>
            <ns3:hr>123</ns3:hr>
            <ns3:cad>69</ns3:cad>
          </ns3:TrackPointExtension>
        </extensions>
      </trkpt>
      <trkpt lat="45.24280571378767490386962890625" lon="-71.13969099707901477813720703125">
        <ele>993.79998779296875</ele>
        <time>2026-08-22T02:42:31.000Z</time>
        <extensions>
          <ns3:TrackPointExtension>
            <ns3:hr>123</ns3:hr>
            <ns3:cad>69</ns3:cad>
          </ns3:TrackPointExtension>
        </extensions>
      </trkpt>
      <trkpt lat="45.242805294692516326904296875" lon="-71.13971010781824588775634765625">
        <ele>993.79998779296875</ele>
        <time>2026-08-22T02:42:32.000Z</time>
        <extensions>
          <ns3:TrackPointExtension>
            <ns3:hr>122</ns3:hr>
            <ns3:cad>69</ns3:cad>
          </ns3:TrackPointExtension>
        </extensions>
      </trkpt>
      <trkpt lat="45.24280437268316745758056640625" lon="-71.13973022438585758209228515625">
        <ele>993.79998779296875</ele>
        <time>2026-08-22T02:42:33.000Z</time>
        <extensions>
          <ns3:TrackPointExtension>
            <ns3:hr>122</ns3:hr>
            <ns3:cad>16</ns3:cad>
          </ns3:TrackPointExtension>
        </extensions>
      </trkpt>
      <trkpt lat="45.24280336685478687286376953125" lon="-71.13974757492542266845703125">
        <ele>993.79998779296875</ele>
        <time>2026-08-22T02:42:34.000Z</time>
        <extensions>
          <ns3:TrackPointExtension>
            <ns3:hr>122</ns3:hr>
            <ns3:cad>0</ns3:cad>
          </ns3:TrackPointExtension>
        </extensions>
      </trkpt>
      <trkpt lat="45.2428051270544528961181640625" lon="-71.1397643387317657470703125">
        <ele>993.79998779296875</ele>
        <time>2026-08-22T02:42:35.000Z</time>
        <extensions>
          <ns3:TrackPointExtension>
            <ns3:hr>122</ns3:hr>
            <ns3:cad>0</ns3:cad>
          </ns3:TrackPointExtension>
        </extensions>
      </trkpt>
      <trkpt lat="45.2428042888641357421875" lon="-71.13978370092809200286865234375">
        <ele>993.5999755859375</ele>
        <time>2026-08-22T02:42:36.000Z</time>
        <extensions>
          <ns3:TrackPointExtension>
            <ns3:hr>122</ns3:hr>
            <ns3:cad>0</ns3:cad>
          </ns3:TrackPointExtension>
        </extensions>
      </trkpt>
      <trkpt lat="45.2428041212260723114013671875" lon="-71.13979862071573734283447265625">
        <ele>993.5999755859375</ele>
        <time>2026-08-22T02:42:37.000Z</time>
        <extensions>
          <ns3:TrackPointExtension>
            <ns3:hr>122</ns3:hr>
            <ns3:cad>0</ns3:cad>
          </ns3:TrackPointExtension>
        </extensions>
      </trkpt>
      <trkpt lat="45.2428004331886768341064453125" lon="-71.13981328904628753662109375">
        <ele>993.5999755859375</ele>
        <time>2026-08-22T02:42:38.000Z</time>
        <extensions>
          <ns3:TrackPointExtension>
            <ns3:hr>122</ns3:hr>
            <ns3:cad>0</ns3:cad>
          </ns3:TrackPointExtension>
        </extensions>
      </trkpt>
      <trkpt lat="45.2427970804274082183837890625" lon="-71.1398312263190746307373046875">
        <ele>993.5999755859375</ele>
        <time>2026-08-22T02:42:39.000Z</time>
        <extensions>
          <ns3:TrackPointExtension>
            <ns3:hr>121</ns3:hr>
            <ns3:cad>0</ns3:cad>
          </ns3:TrackPointExtension>
        </extensions>
      </trkpt>
      <trkpt lat="45.2427947334945201873779296875" lon="-71.1398493312299251556396484375">
        <ele>993.5999755859375</ele>
        <time>2026-08-22T02:42:40.000Z</time>
        <extensions>
          <ns3:TrackPointExtension>
            <ns3:hr>121</ns3:hr>
            <ns3:cad>0</ns3:cad>
          </ns3:TrackPointExtension>
        </extensions>
      </trkpt>
      <trkpt lat="45.242793560028076171875" lon="-71.13987053744494915008544921875">
        <ele>993.5999755859375</ele>
        <time>2026-08-22T02:42:41.000Z</time>
        <extensions>
          <ns3:TrackPointExtension>
            <ns3:hr>121</ns3:hr>
            <ns3:cad>0</ns3:cad>
          </ns3:TrackPointExtension>
        </extensions>
      </trkpt>
      <trkpt lat="45.24279213510453701019287109375" lon="-71.1398902349174022674560546875">
        <ele>993.5999755859375</ele>
        <time>2026-08-22T02:42:42.000Z</time>
        <extensions>
          <ns3:TrackPointExtension>
            <ns3:hr>121</ns3:hr>
            <ns3:cad>0</ns3:cad>
          </ns3:TrackPointExtension>
        </extensions>
      </trkpt>
      <trkpt lat="45.2427893690764904022216796875" lon="-71.1399133689701557159423828125">
        <ele>993.5999755859375</ele>
        <time>2026-08-22T02:42:43.000Z</time>
        <extensions>
          <ns3:TrackPointExtension>
            <ns3:hr>121</ns3:hr>
            <ns3:cad>56</ns3:cad>
          </ns3:TrackPointExtension>
        </extensions>
      </trkpt>
      <trkpt lat="45.24278978817164897918701171875" lon="-71.13993256352841854095458984375">
        <ele>993.5999755859375</ele>
        <time>2026-08-22T02:42:44.000Z</time>
        <extensions>
          <ns3:TrackPointExtension>
            <ns3:hr>120</ns3:hr>
            <ns3:cad>56</ns3:cad>
          </ns3:TrackPointExtension>
        </extensions>
      </trkpt>
      <trkpt lat="45.2427880279719829559326171875" lon="-71.13995083607733249664306640625">
        <ele>993.5999755859375</ele>
        <time>2026-08-22T02:42:45.000Z</time>
        <extensions>
          <ns3:TrackPointExtension>
            <ns3:hr>120</ns3:hr>
            <ns3:cad>56</ns3:cad>
          </ns3:TrackPointExtension>
        </extensions>
      </trkpt>
      <trkpt lat="45.24278677068650722503662109375" lon="-71.13996961154043674468994140625">
        <ele>993.5999755859375</ele>
        <time>2026-08-22T02:42:46.000Z</time>
        <extensions>
          <ns3:TrackPointExtension>
            <ns3:hr>119</ns3:hr>
            <ns3:cad>56</ns3:cad>
          </ns3:TrackPointExtension>
        </extensions>
      </trkpt>
      <trkpt lat="45.2427850104868412017822265625" lon="-71.1399884708225727081298828125">
        <ele>993.5999755859375</ele>
        <time>2026-08-22T02:42:47.000Z</time>
        <extensions>
          <ns3:TrackPointExtension>
            <ns3:hr>119</ns3:hr>
            <ns3:cad>56</ns3:cad>
          </ns3:TrackPointExtension>
        </extensions>
      </trkpt>
      <trkpt lat="45.242785848677158355712890625" lon="-71.14000934176146984100341796875">
        <ele>993.79998779296875</ele>
        <time>2026-08-22T02:42:48.000Z</time>
        <extensions>
          <ns3:TrackPointExtension>
            <ns3:hr>119</ns3:hr>
            <ns3:cad>55</ns3:cad>
          </ns3:TrackPointExtension>
        </extensions>
      </trkpt>
      <trkpt lat="45.242787189781665802001953125" lon="-71.14004018716514110565185546875">
        <ele>993.79998779296875</ele>
        <time>2026-08-22T02:42:49.000Z</time>
        <extensions>
          <ns3:TrackPointExtension>
            <ns3:hr>119</ns3:hr>
            <ns3:cad>55</ns3:cad>
          </ns3:TrackPointExtension>
        </extensions>
      </trkpt>
      <trkpt lat="45.24279163219034671783447265625" lon="-71.1400645785033702850341796875">
        <ele>993.79998779296875</ele>
        <time>2026-08-22T02:42:50.000Z</time>
        <extensions>
          <ns3:TrackPointExtension>
            <ns3:hr>119</ns3:hr>
            <ns3:cad>55</ns3:cad>
          </ns3:TrackPointExtension>
        </extensions>
      </trkpt>
      <trkpt lat="45.24279381148517131805419921875" lon="-71.14008729346096515655517578125">
        <ele>993.79998779296875</ele>
        <time>2026-08-22T02:42:51.000Z</time>
        <extensions>
          <ns3:TrackPointExtension>
            <ns3:hr>120</ns3:hr>
            <ns3:cad>55</ns3:cad>
          </ns3:TrackPointExtension>
        </extensions>
      </trkpt>
      <trkpt lat="45.24279397912323474884033203125" lon="-71.140116043388843536376953125">
        <ele>993.79998779296875</ele>
        <time>2026-08-22T02:42:52.000Z</time>
        <extensions>
          <ns3:TrackPointExtension>
            <ns3:hr>121</ns3:hr>
            <ns3:cad>75</ns3:cad>
          </ns3:TrackPointExtension>
        </extensions>
      </trkpt>
      <trkpt lat="45.24279247038066387176513671875" lon="-71.1401359923183917999267578125">
        <ele>993.79998779296875</ele>
        <time>2026-08-22T02:42:53.000Z</time>
        <extensions>
          <ns3:TrackPointExtension>
            <ns3:hr>122</ns3:hr>
            <ns3:cad>75</ns3:cad>
          </ns3:TrackPointExtension>
        </extensions>
      </trkpt>
      <trkpt lat="45.2427923865616321563720703125" lon="-71.14016373641788959503173828125">
        <ele>993.79998779296875</ele>
        <time>2026-08-22T02:42:54.000Z</time>
        <extensions>
          <ns3:TrackPointExtension>
            <ns3:hr>122</ns3:hr>
            <ns3:cad>75</ns3:cad>
          </ns3:TrackPointExtension>
        </extensions>
      </trkpt>
      <trkpt lat="45.24279515258967876434326171875" lon="-71.1401800811290740966796875">
        <ele>993.79998779296875</ele>
        <time>2026-08-22T02:42:55.000Z</time>
        <extensions>
          <ns3:TrackPointExtension>
            <ns3:hr>122</ns3:hr>
            <ns3:cad>75</ns3:cad>
          </ns3:TrackPointExtension>
        </extensions>
      </trkpt>
      <trkpt lat="45.2427977509796619415283203125" lon="-71.140200197696685791015625">
        <ele>993.79998779296875</ele>
        <time>2026-08-22T02:42:56.000Z</time>
        <extensions>
          <ns3:TrackPointExtension>
            <ns3:hr>122</ns3:hr>
            <ns3:cad>75</ns3:cad>
          </ns3:TrackPointExtension>
        </extensions>
      </trkpt>
      <trkpt lat="45.2427975833415985107421875" lon="-71.1402127705514430999755859375">
        <ele>993.79998779296875</ele>
        <time>2026-08-22T02:42:57.000Z</time>
        <extensions>
          <ns3:TrackPointExtension>
            <ns3:hr>122</ns3:hr>
            <ns3:cad>75</ns3:cad>
          </ns3:TrackPointExtension>
        </extensions>
      </trkpt>
      <trkpt lat="45.24279481731355190277099609375" lon="-71.14023263566195964813232421875">
        <ele>993.79998779296875</ele>
        <time>2026-08-22T02:42:58.000Z</time>
        <extensions>
          <ns3:TrackPointExtension>
            <ns3:hr>122</ns3:hr>
            <ns3:cad>75</ns3:cad>
          </ns3:TrackPointExtension>
        </extensions>
      </trkpt>
      <trkpt lat="45.24279498495161533355712890625" lon="-71.14025308750569820404052734375">
        <ele>993.79998779296875</ele>
        <time>2026-08-22T02:42:59.000Z</time>
        <extensions>
          <ns3:TrackPointExtension>
            <ns3:hr>122</ns3:hr>
            <ns3:cad>75</ns3:cad>
          </ns3:TrackPointExtension>
        </extensions>
      </trkpt>
      <trkpt lat="45.24279666133224964141845703125" lon="-71.14027638919651508331298828125">
        <ele>993.79998779296875</ele>
        <time>2026-08-22T02:43:00.000Z</time>
        <extensions>
          <ns3:TrackPointExtension>
            <ns3:hr>122</ns3:hr>
            <ns3:cad>75</ns3:cad>
          </ns3:TrackPointExtension>
        </extensions>
      </trkpt>
      <trkpt lat="45.24279749952256679534912109375" lon="-71.140293069183826446533203125">
        <ele>993.79998779296875</ele>
        <time>2026-08-22T02:43:01.000Z</time>
        <extensions>
          <ns3:TrackPointExtension>
            <ns3:hr>123</ns3:hr>
            <ns3:cad>75</ns3:cad>
          </ns3:TrackPointExtension>
        </extensions>
      </trkpt>
      <trkpt lat="45.24279557168483734130859375" lon="-71.14030455239117145538330078125">
        <ele>993.5999755859375</ele>
        <time>2026-08-22T02:43:02.000Z</time>
        <extensions>
          <ns3:TrackPointExtension>
            <ns3:hr>122</ns3:hr>
            <ns3:cad>0</ns3:cad>
          </ns3:TrackPointExtension>
        </extensions>
      </trkpt>
      <trkpt lat="45.24279347620904445648193359375" lon="-71.14033120684325695037841796875">
        <ele>993.5999755859375</ele>
        <time>2026-08-22T02:43:03.000Z</time>
        <extensions>
          <ns3:TrackPointExtension>
            <ns3:hr>122</ns3:hr>
            <ns3:cad>0</ns3:cad>
          </ns3:TrackPointExtension>
        </extensions>
      </trkpt>
      <trkpt lat="45.2427917160093784332275390625" lon="-71.140348725020885467529296875">
        <ele>993.5999755859375</ele>
        <time>2026-08-22T02:43:04.000Z</time>
        <extensions>
          <ns3:TrackPointExtension>
            <ns3:hr>122</ns3:hr>
            <ns3:cad>0</ns3:cad>
          </ns3:TrackPointExtension>
        </extensions>
      </trkpt>
      <trkpt lat="45.2427930571138858795166015625" lon="-71.14037395454943180084228515625">
        <ele>993.5999755859375</ele>
        <time>2026-08-22T02:43:05.000Z</time>
        <extensions>
          <ns3:TrackPointExtension>
            <ns3:hr>122</ns3:hr>
            <ns3:cad>0</ns3:cad>
          </ns3:TrackPointExtension>
        </extensions>
      </trkpt>
      <trkpt lat="45.2427954040467739105224609375" lon="-71.140388958156108856201171875">
        <ele>993.4000244140625</ele>
        <time>2026-08-22T02:43:06.000Z</time>
        <extensions>
          <ns3:TrackPointExtension>
            <ns3:hr>122</ns3:hr>
            <ns3:cad>0</ns3:cad>
          </ns3:TrackPointExtension>
        </extensions>
      </trkpt>
      <trkpt lat="45.2427943982183933258056640625" lon="-71.14040739834308624267578125">
        <ele>993.4000244140625</ele>
        <time>2026-08-22T02:43:07.000Z</time>
        <extensions>
          <ns3:TrackPointExtension>
            <ns3:hr>122</ns3:hr>
            <ns3:cad>0</ns3:cad>
          </ns3:TrackPointExtension>
        </extensions>
      </trkpt>
      <trkpt lat="45.2427856810390949249267578125" lon="-71.14042625762522220611572265625">
        <ele>993.4000244140625</ele>
        <time>2026-08-22T02:43:08.000Z</time>
        <extensions>
          <ns3:TrackPointExtension>
            <ns3:hr>122</ns3:hr>
            <ns3:cad>0</ns3:cad>
          </ns3:TrackPointExtension>
        </extensions>
      </trkpt>
      <trkpt lat="45.2427789755165576934814453125" lon="-71.14043933339416980743408203125">
        <ele>993.20001220703125</ele>
        <time>2026-08-22T02:43:09.000Z</time>
        <extensions>
          <ns3:TrackPointExtension>
            <ns3:hr>122</ns3:hr>
            <ns3:cad>0</ns3:cad>
          </ns3:TrackPointExtension>
        </extensions>
      </trkpt>
      <trkpt lat="45.242773778736591339111328125" lon="-71.14046028815209865570068359375">
        <ele>993.20001220703125</ele>
        <time>2026-08-22T02:43:10.000Z</time>
        <extensions>
          <ns3:TrackPointExtension>
            <ns3:hr>121</ns3:hr>
            <ns3:cad>0</ns3:cad>
          </ns3:TrackPointExtension>
        </extensions>
      </trkpt>
      <trkpt lat="45.24277009069919586181640625" lon="-71.140477471053600311279296875">
        <ele>993.20001220703125</ele>
        <time>2026-08-22T02:43:11.000Z</time>
        <extensions>
          <ns3:TrackPointExtension>
            <ns3:hr>121</ns3:hr>
            <ns3:cad>0</ns3:cad>
          </ns3:TrackPointExtension>
        </extensions>
      </trkpt>
      <trkpt lat="45.24277067743241786956787109375" lon="-71.1404990963637828826904296875">
        <ele>993.20001220703125</ele>
        <time>2026-08-22T02:43:12.000Z</time>
        <extensions>
          <ns3:TrackPointExtension>
            <ns3:hr>120</ns3:hr>
            <ns3:cad>0</ns3:cad>
          </ns3:TrackPointExtension>
        </extensions>
      </trkpt>
      <trkpt lat="45.24276548065245151519775390625" lon="-71.1405161954462528228759765625">
        <ele>993.20001220703125</ele>
        <time>2026-08-22T02:43:13.000Z</time>
        <extensions>
          <ns3:TrackPointExtension>
            <ns3:hr>120</ns3:hr>
            <ns3:cad>0</ns3:cad>
          </ns3:TrackPointExtension>
        </extensions>
      </trkpt>
      <trkpt lat="45.2427642233669757843017578125" lon="-71.1405383236706256866455078125">
        <ele>993.20001220703125</ele>
        <time>2026-08-22T02:43:14.000Z</time>
        <extensions>
          <ns3:TrackPointExtension>
            <ns3:hr>120</ns3:hr>
            <ns3:cad>0</ns3:cad>
          </ns3:TrackPointExtension>
        </extensions>
      </trkpt>
      <trkpt lat="45.2427625469863414764404296875" lon="-71.14055802114307880401611328125">
        <ele>993.20001220703125</ele>
        <time>2026-08-22T02:43:15.000Z</time>
        <extensions>
          <ns3:TrackPointExtension>
            <ns3:hr>120</ns3:hr>
            <ns3:cad>0</ns3:cad>
          </ns3:TrackPointExtension>
        </extensions>
      </trkpt>
      <trkpt lat="45.2427635528147220611572265625" lon="-71.14057830534875392913818359375">
        <ele>993.20001220703125</ele>
        <time>2026-08-22T02:43:16.000Z</time>
        <extensions>
          <ns3:TrackPointExtension>
            <ns3:hr>120</ns3:hr>
            <ns3:cad>0</ns3:cad>
          </ns3:TrackPointExtension>
        </extensions>
      </trkpt>
      <trkpt lat="45.242759026587009429931640625" lon="-71.1405904591083526611328125">
        <ele>993</ele>
        <time>2026-08-22T02:43:17.000Z</time>
        <extensions>
          <ns3:TrackPointExtension>
            <ns3:hr>119</ns3:hr>
            <ns3:cad>0</ns3:cad>
          </ns3:TrackPointExtension>
        </extensions>
      </trkpt>
      <trkpt lat="45.24275399744510650634765625" lon="-71.14061317406594753265380859375">
        <ele>993</ele>
        <time>2026-08-22T02:43:18.000Z</time>
        <extensions>
          <ns3:TrackPointExtension>
            <ns3:hr>120</ns3:hr>
            <ns3:cad>0</ns3:cad>
          </ns3:TrackPointExtension>
        </extensions>
      </trkpt>
      <trkpt lat="45.24274863302707672119140625" lon="-71.14063345827162265777587890625">
        <ele>993</ele>
        <time>2026-08-22T02:43:19.000Z</time>
        <extensions>
          <ns3:TrackPointExtension>
            <ns3:hr>120</ns3:hr>
            <ns3:cad>0</ns3:cad>
          </ns3:TrackPointExtension>
        </extensions>
      </trkpt>
      <trkpt lat="45.24274352006614208221435546875" lon="-71.1406549997627735137939453125">
        <ele>992.79998779296875</ele>
        <time>2026-08-22T02:43:20.000Z</time>
        <extensions>
          <ns3:TrackPointExtension>
            <ns3:hr>120</ns3:hr>
            <ns3:cad>0</ns3:cad>
          </ns3:TrackPointExtension>
        </extensions>
      </trkpt>
      <trkpt lat="45.24274050258100032806396484375" lon="-71.14067436195909976959228515625">
        <ele>992.79998779296875</ele>
        <time>2026-08-22T02:43:21.000Z</time>
        <extensions>
          <ns3:TrackPointExtension>
            <ns3:hr>120</ns3:hr>
            <ns3:cad>0</ns3:cad>
          </ns3:TrackPointExtension>
        </extensions>
      </trkpt>
      <trkpt lat="45.2427370660006999969482421875" lon="-71.1406885273754596710205078125">
        <ele>992.79998779296875</ele>
        <time>2026-08-22T02:43:22.000Z</time>
        <extensions>
          <ns3:TrackPointExtension>
            <ns3:hr>119</ns3:hr>
            <ns3:cad>0</ns3:cad>
          </ns3:TrackPointExtension>
        </extensions>
      </trkpt>
      <trkpt lat="45.24273111484944820404052734375" lon="-71.14071048796176910400390625">
        <ele>992.79998779296875</ele>
        <time>2026-08-22T02:43:23.000Z</time>
        <extensions>
          <ns3:TrackPointExtension>
            <ns3:hr>120</ns3:hr>
            <ns3:cad>0</ns3:cad>
          </ns3:TrackPointExtension>
        </extensions>
      </trkpt>
      <trkpt lat="45.24272759445011615753173828125" lon="-71.140722893178462982177734375">
        <ele>992.79998779296875</ele>
        <time>2026-08-22T02:43:24.000Z</time>
        <extensions>
          <ns3:TrackPointExtension>
            <ns3:hr>120</ns3:hr>
            <ns3:cad>0</ns3:cad>
          </ns3:TrackPointExtension>
        </extensions>
      </trkpt>
      <trkpt lat="45.2427243255078792572021484375" lon="-71.1407455243170261383056640625">
        <ele>992.79998779296875</ele>
        <time>2026-08-22T02:43:25.000Z</time>
        <extensions>
          <ns3:TrackPointExtension>
            <ns3:hr>120</ns3:hr>
            <ns3:cad>0</ns3:cad>
          </ns3:TrackPointExtension>
        </extensions>
      </trkpt>
      <trkpt lat="45.242716781795024871826171875" lon="-71.14076002500951290130615234375">
        <ele>992.79998779296875</ele>
        <time>2026-08-22T02:43:26.000Z</time>
        <extensions>
          <ns3:TrackPointExtension>
            <ns3:hr>120</ns3:hr>
            <ns3:cad>0</ns3:cad>
          </ns3:TrackPointExtension>
        </extensions>
      </trkpt>
      <trkpt lat="45.24270831607282161712646484375" lon="-71.14077846519649028778076171875">
        <ele>992.79998779296875</ele>
        <time>2026-08-22T02:43:27.000Z</time>
        <extensions>
          <ns3:TrackPointExtension>
            <ns3:hr>120</ns3:hr>
            <ns3:cad>0</ns3:cad>
          </ns3:TrackPointExtension>
        </extensions>
      </trkpt>
      <trkpt lat="45.24269809015095233917236328125" lon="-71.1408038623631000518798828125">
        <ele>993</ele>
        <time>2026-08-22T02:43:28.000Z</time>
        <extensions>
          <ns3:TrackPointExtension>
            <ns3:hr>120</ns3:hr>
            <ns3:cad>0</ns3:cad>
          </ns3:TrackPointExtension>
        </extensions>
      </trkpt>
      <trkpt lat="45.24269205518066883087158203125" lon="-71.14082138054072856903076171875">
        <ele>993</ele>
        <time>2026-08-22T02:43:29.000Z</time>
        <extensions>
          <ns3:TrackPointExtension>
            <ns3:hr>120</ns3:hr>
            <ns3:cad>0</ns3:cad>
          </ns3:TrackPointExtension>
        </extensions>
      </trkpt>
      <trkpt lat="45.2426929771900177001953125" lon="-71.14082490094006061553955078125">
        <ele>993</ele>
        <time>2026-08-22T02:43:30.000Z</time>
        <extensions>
          <ns3:TrackPointExtension>
            <ns3:hr>120</ns3:hr>
            <ns3:cad>0</ns3:cad>
          </ns3:TrackPointExtension>
        </extensions>
      </trkpt>
      <trkpt lat="45.24269188754260540008544921875" lon="-71.140833534300327301025390625">
        <ele>993</ele>
        <time>2026-08-22T02:43:31.000Z</time>
        <extensions>
          <ns3:TrackPointExtension>
            <ns3:hr>120</ns3:hr>
            <ns3:cad>0</ns3:cad>
          </ns3:TrackPointExtension>
        </extensions>
      </trkpt>
      <trkpt lat="45.24269255809485912322998046875" lon="-71.140834204852581024169921875">
        <ele>993</ele>
        <time>2026-08-22T02:43:32.000Z</time>
        <extensions>
          <ns3:TrackPointExtension>
            <ns3:hr>119</ns3:hr>
            <ns3:cad>0</ns3:cad>
          </ns3:TrackPointExtension>
        </extensions>
      </trkpt>
      <trkpt lat="45.24269037880003452301025390625" lon="-71.1408605240285396575927734375">
        <ele>992.79998779296875</ele>
        <time>2026-08-22T02:43:33.000Z</time>
        <extensions>
          <ns3:TrackPointExtension>
            <ns3:hr>119</ns3:hr>
            <ns3:cad>0</ns3:cad>
          </ns3:TrackPointExtension>
        </extensions>
      </trkpt>
      <trkpt lat="45.24268853478133678436279296875" lon="-71.14087318070232868194580078125">
        <ele>992.79998779296875</ele>
        <time>2026-08-22T02:43:34.000Z</time>
        <extensions>
          <ns3:TrackPointExtension>
            <ns3:hr>119</ns3:hr>
            <ns3:cad>0</ns3:cad>
          </ns3:TrackPointExtension>
        </extensions>
      </trkpt>
      <trkpt lat="45.24268283508718013763427734375" lon="-71.14090352319180965423583984375">
        <ele>992.79998779296875</ele>
        <time>2026-08-22T02:43:35.000Z</time>
        <extensions>
          <ns3:TrackPointExtension>
            <ns3:hr>119</ns3:hr>
            <ns3:cad>0</ns3:cad>
          </ns3:TrackPointExtension>
        </extensions>
      </trkpt>
      <trkpt lat="45.242678225040435791015625" lon="-71.14092229865491390228271484375">
        <ele>993</ele>
        <time>2026-08-22T02:43:36.000Z</time>
        <extensions>
          <ns3:TrackPointExtension>
            <ns3:hr>119</ns3:hr>
            <ns3:cad>0</ns3:cad>
          </ns3:TrackPointExtension>
        </extensions>
      </trkpt>
      <trkpt lat="45.242672525346279144287109375" lon="-71.14095054566860198974609375">
        <ele>993</ele>
        <time>2026-08-22T02:43:37.000Z</time>
        <extensions>
          <ns3:TrackPointExtension>
            <ns3:hr>119</ns3:hr>
            <ns3:cad>0</ns3:cad>
          </ns3:TrackPointExtension>
        </extensions>
      </trkpt>
      <trkpt lat="45.242670513689517974853515625" lon="-71.14097661338746547698974609375">
        <ele>993</ele>
        <time>2026-08-22T02:43:38.000Z</time>
        <extensions>
          <ns3:TrackPointExtension>
            <ns3:hr>119</ns3:hr>
            <ns3:cad>64</ns3:cad>
          </ns3:TrackPointExtension>
        </extensions>
      </trkpt>
      <trkpt lat="45.24266523309051990509033203125" lon="-71.14099974744021892547607421875">
        <ele>993</ele>
        <time>2026-08-22T02:43:39.000Z</time>
        <extensions>
          <ns3:TrackPointExtension>
            <ns3:hr>120</ns3:hr>
            <ns3:cad>64</ns3:cad>
          </ns3:TrackPointExtension>
        </extensions>
      </trkpt>
      <trkpt lat="45.2426602877676486968994140625" lon="-71.1410271562635898590087890625">
        <ele>993</ele>
        <time>2026-08-22T02:43:40.000Z</time>
        <extensions>
          <ns3:TrackPointExtension>
            <ns3:hr>120</ns3:hr>
            <ns3:cad>64</ns3:cad>
          </ns3:TrackPointExtension>
        </extensions>
      </trkpt>
      <trkpt lat="45.242657102644443511962890625" lon="-71.14105003885924816131591796875">
        <ele>993</ele>
        <time>2026-08-22T02:43:41.000Z</time>
        <extensions>
          <ns3:TrackPointExtension>
            <ns3:hr>120</ns3:hr>
            <ns3:cad>64</ns3:cad>
          </ns3:TrackPointExtension>
        </extensions>
      </trkpt>
      <trkpt lat="45.2426488883793354034423828125" lon="-71.14106831140816211700439453125">
        <ele>993.20001220703125</ele>
        <time>2026-08-22T02:43:42.000Z</time>
        <extensions>
          <ns3:TrackPointExtension>
            <ns3:hr>120</ns3:hr>
            <ns3:cad>69</ns3:cad>
          </ns3:TrackPointExtension>
        </extensions>
      </trkpt>
      <trkpt lat="45.24264260195195674896240234375" lon="-71.14109043963253498077392578125">
        <ele>993.20001220703125</ele>
        <time>2026-08-22T02:43:43.000Z</time>
        <extensions>
          <ns3:TrackPointExtension>
            <ns3:hr>120</ns3:hr>
            <ns3:cad>70</ns3:cad>
          </ns3:TrackPointExtension>
        </extensions>
      </trkpt>
      <trkpt lat="45.24263874627649784088134765625" lon="-71.1411119811236858367919921875">
        <ele>993.20001220703125</ele>
        <time>2026-08-22T02:43:44.000Z</time>
        <extensions>
          <ns3:TrackPointExtension>
            <ns3:hr>120</ns3:hr>
            <ns3:cad>70</ns3:cad>
          </ns3:TrackPointExtension>
        </extensions>
      </trkpt>
      <trkpt lat="45.2426321245729923248291015625" lon="-71.1411364562809467315673828125">
        <ele>993.20001220703125</ele>
        <time>2026-08-22T02:43:45.000Z</time>
        <extensions>
          <ns3:TrackPointExtension>
            <ns3:hr>120</ns3:hr>
            <ns3:cad>70</ns3:cad>
          </ns3:TrackPointExtension>
        </extensions>
      </trkpt>
      <trkpt lat="45.24262533523142337799072265625" lon="-71.14115732721984386444091796875">
        <ele>993.20001220703125</ele>
        <time>2026-08-22T02:43:46.000Z</time>
        <extensions>
          <ns3:TrackPointExtension>
            <ns3:hr>120</ns3:hr>
            <ns3:cad>70</ns3:cad>
          </ns3:TrackPointExtension>
        </extensions>
      </trkpt>
      <trkpt lat="45.24262499995529651641845703125" lon="-71.1411753483116626739501953125">
        <ele>993.20001220703125</ele>
        <time>2026-08-22T02:43:47.000Z</time>
        <extensions>
          <ns3:TrackPointExtension>
            <ns3:hr>121</ns3:hr>
            <ns3:cad>0</ns3:cad>
          </ns3:TrackPointExtension>
        </extensions>
      </trkpt>
      <trkpt lat="45.24262064136564731597900390625" lon="-71.14120158366858959197998046875">
        <ele>993.20001220703125</ele>
        <time>2026-08-22T02:43:48.000Z</time>
        <extensions>
          <ns3:TrackPointExtension>
            <ns3:hr>121</ns3:hr>
            <ns3:cad>0</ns3:cad>
          </ns3:TrackPointExtension>
        </extensions>
      </trkpt>
      <trkpt lat="45.24261427111923694610595703125" lon="-71.1412202753126621246337890625">
        <ele>993.4000244140625</ele>
        <time>2026-08-22T02:43:49.000Z</time>
        <extensions>
          <ns3:TrackPointExtension>
            <ns3:hr>122</ns3:hr>
            <ns3:cad>68</ns3:cad>
          </ns3:TrackPointExtension>
        </extensions>
      </trkpt>
      <trkpt lat="45.24260756559669971466064453125" lon="-71.14124718122184276580810546875">
        <ele>993.4000244140625</ele>
        <time>2026-08-22T02:43:50.000Z</time>
        <extensions>
          <ns3:TrackPointExtension>
            <ns3:hr>121</ns3:hr>
            <ns3:cad>68</ns3:cad>
          </ns3:TrackPointExtension>
        </extensions>
      </trkpt>
      <trkpt lat="45.24260404519736766815185546875" lon="-71.14127182401716709136962890625">
        <ele>993.5999755859375</ele>
        <time>2026-08-22T02:43:51.000Z</time>
        <extensions>
          <ns3:TrackPointExtension>
            <ns3:hr>121</ns3:hr>
            <ns3:cad>68</ns3:cad>
          </ns3:TrackPointExtension>
        </extensions>
      </trkpt>
      <trkpt lat="45.24259708821773529052734375" lon="-71.14129328168928623199462890625">
        <ele>993.5999755859375</ele>
        <time>2026-08-22T02:43:52.000Z</time>
        <extensions>
          <ns3:TrackPointExtension>
            <ns3:hr>122</ns3:hr>
            <ns3:cad>66</ns3:cad>
          </ns3:TrackPointExtension>
        </extensions>
      </trkpt>
      <trkpt lat="45.2425918914377689361572265625" lon="-71.1413227021694183349609375">
        <ele>993.5999755859375</ele>
        <time>2026-08-22T02:43:53.000Z</time>
        <extensions>
          <ns3:TrackPointExtension>
            <ns3:hr>123</ns3:hr>
            <ns3:cad>66</ns3:cad>
          </ns3:TrackPointExtension>
        </extensions>
      </trkpt>
      <trkpt lat="45.24258426390588283538818359375" lon="-71.14134407602250576019287109375">
        <ele>993.79998779296875</ele>
        <time>2026-08-22T02:43:54.000Z</time>
        <extensions>
          <ns3:TrackPointExtension>
            <ns3:hr>123</ns3:hr>
            <ns3:cad>66</ns3:cad>
          </ns3:TrackPointExtension>
        </extensions>
      </trkpt>
      <trkpt lat="45.24257739074528217315673828125" lon="-71.1413701437413692474365234375">
        <ele>993.79998779296875</ele>
        <time>2026-08-22T02:43:55.000Z</time>
        <extensions>
          <ns3:TrackPointExtension>
            <ns3:hr>123</ns3:hr>
            <ns3:cad>66</ns3:cad>
          </ns3:TrackPointExtension>
        </extensions>
      </trkpt>
      <trkpt lat="45.2425737865269184112548828125" lon="-71.1413892544806003570556640625">
        <ele>993.79998779296875</ele>
        <time>2026-08-22T02:43:56.000Z</time>
        <extensions>
          <ns3:TrackPointExtension>
            <ns3:hr>123</ns3:hr>
            <ns3:cad>66</ns3:cad>
          </ns3:TrackPointExtension>
        </extensions>
      </trkpt>
      <trkpt lat="45.2425680868327617645263671875" lon="-71.14140844903886318206787109375">
        <ele>993.79998779296875</ele>
        <time>2026-08-22T02:43:57.000Z</time>
        <extensions>
          <ns3:TrackPointExtension>
            <ns3:hr>123</ns3:hr>
            <ns3:cad>66</ns3:cad>
          </ns3:TrackPointExtension>
        </extensions>
      </trkpt>
      <trkpt lat="45.24256356060504913330078125" lon="-71.141426973044872283935546875">
        <ele>994</ele>
        <time>2026-08-22T02:43:58.000Z</time>
        <extensions>
          <ns3:TrackPointExtension>
            <ns3:hr>124</ns3:hr>
            <ns3:cad>66</ns3:cad>
          </ns3:TrackPointExtension>
        </extensions>
      </trkpt>
      <trkpt lat="45.2425597049295902252197265625" lon="-71.14144801162183284759521484375">
        <ele>994</ele>
        <time>2026-08-22T02:43:59.000Z</time>
        <extensions>
          <ns3:TrackPointExtension>
            <ns3:hr>124</ns3:hr>
            <ns3:cad>66</ns3:cad>
          </ns3:TrackPointExtension>
        </extensions>
      </trkpt>
      <trkpt lat="45.2425533346831798553466796875" lon="-71.1414690501987934112548828125">
        <ele>994.20001220703125</ele>
        <time>2026-08-22T02:44:00.000Z</time>
        <extensions>
          <ns3:TrackPointExtension>
            <ns3:hr>124</ns3:hr>
            <ns3:cad>66</ns3:cad>
          </ns3:TrackPointExtension>
        </extensions>
      </trkpt>
      <trkpt lat="45.24254822172224521636962890625" lon="-71.1414854787290096282958984375">
        <ele>994.20001220703125</ele>
        <time>2026-08-22T02:44:01.000Z</time>
        <extensions>
          <ns3:TrackPointExtension>
            <ns3:hr>124</ns3:hr>
            <ns3:cad>57</ns3:cad>
          </ns3:TrackPointExtension>
        </extensions>
      </trkpt>
      <trkpt lat="45.24254704825580120086669921875" lon="-71.141503416001796722412109375">
        <ele>994.20001220703125</ele>
        <time>2026-08-22T02:44:02.000Z</time>
        <extensions>
          <ns3:TrackPointExtension>
            <ns3:hr>124</ns3:hr>
            <ns3:cad>57</ns3:cad>
          </ns3:TrackPointExtension>
        </extensions>
      </trkpt>
      <trkpt lat="45.24254671297967433929443359375" lon="-71.1415250413119792938232421875">
        <ele>994.4000244140625</ele>
        <time>2026-08-22T02:44:03.000Z</time>
        <extensions>
          <ns3:TrackPointExtension>
            <ns3:hr>124</ns3:hr>
            <ns3:cad>57</ns3:cad>
          </ns3:TrackPointExtension>
        </extensions>
      </trkpt>
      <trkpt lat="45.24254453368484973907470703125" lon="-71.14154373295605182647705078125">
        <ele>994.4000244140625</ele>
        <time>2026-08-22T02:44:04.000Z</time>
        <extensions>
          <ns3:TrackPointExtension>
            <ns3:hr>124</ns3:hr>
            <ns3:cad>55</ns3:cad>
          </ns3:TrackPointExtension>
        </extensions>
      </trkpt>
      <trkpt lat="45.24254101328551769256591796875" lon="-71.141559071838855743408203125">
        <ele>994.4000244140625</ele>
        <time>2026-08-22T02:44:05.000Z</time>
        <extensions>
          <ns3:TrackPointExtension>
            <ns3:hr>124</ns3:hr>
            <ns3:cad>55</ns3:cad>
          </ns3:TrackPointExtension>
        </extensions>
      </trkpt>
      <trkpt lat="45.24253967218101024627685546875" lon="-71.1415793560445308685302734375">
        <ele>994.4000244140625</ele>
        <time>2026-08-22T02:44:06.000Z</time>
        <extensions>
          <ns3:TrackPointExtension>
            <ns3:hr>124</ns3:hr>
            <ns3:cad>54</ns3:cad>
          </ns3:TrackPointExtension>
        </extensions>
      </trkpt>
      <trkpt lat="45.24253866635262966156005859375" lon="-71.141601316630840301513671875">
        <ele>994.5999755859375</ele>
        <time>2026-08-22T02:44:07.000Z</time>
        <extensions>
          <ns3:TrackPointExtension>
            <ns3:hr>124</ns3:hr>
            <ns3:cad>54</ns3:cad>
          </ns3:TrackPointExtension>
        </extensions>
      </trkpt>
      <trkpt lat="45.24253866635262966156005859375" lon="-71.141618750989437103271484375">
        <ele>994.5999755859375</ele>
        <time>2026-08-22T02:44:08.000Z</time>
        <extensions>
          <ns3:TrackPointExtension>
            <ns3:hr>124</ns3:hr>
            <ns3:cad>54</ns3:cad>
          </ns3:TrackPointExtension>
        </extensions>
      </trkpt>
      <trkpt lat="45.24253464303910732269287109375" lon="-71.14163895137608051300048828125">
        <ele>994.5999755859375</ele>
        <time>2026-08-22T02:44:09.000Z</time>
        <extensions>
          <ns3:TrackPointExtension>
            <ns3:hr>125</ns3:hr>
            <ns3:cad>55</ns3:cad>
          </ns3:TrackPointExtension>
        </extensions>
      </trkpt>
      <trkpt lat="45.24253665469586849212646484375" lon="-71.14166409708559513092041015625">
        <ele>994.5999755859375</ele>
        <time>2026-08-22T02:44:10.000Z</time>
        <extensions>
          <ns3:TrackPointExtension>
            <ns3:hr>125</ns3:hr>
            <ns3:cad>55</ns3:cad>
          </ns3:TrackPointExtension>
        </extensions>
      </trkpt>
      <trkpt lat="45.242539756000041961669921875" lon="-71.14168656058609485626220703125">
        <ele>994.5999755859375</ele>
        <time>2026-08-22T02:44:11.000Z</time>
        <extensions>
          <ns3:TrackPointExtension>
            <ns3:hr>125</ns3:hr>
            <ns3:cad>55</ns3:cad>
          </ns3:TrackPointExtension>
        </extensions>
      </trkpt>
      <trkpt lat="45.2425395883619785308837890625" lon="-71.14170667715370655059814453125">
        <ele>994.5999755859375</ele>
        <time>2026-08-22T02:44:12.000Z</time>
        <extensions>
          <ns3:TrackPointExtension>
            <ns3:hr>126</ns3:hr>
            <ns3:cad>55</ns3:cad>
          </ns3:TrackPointExtension>
        </extensions>
      </trkpt>
      <trkpt lat="45.242537744343280792236328125" lon="-71.141726039350032806396484375">
        <ele>994.5999755859375</ele>
        <time>2026-08-22T02:44:13.000Z</time>
        <extensions>
          <ns3:TrackPointExtension>
            <ns3:hr>126</ns3:hr>
            <ns3:cad>55</ns3:cad>
          </ns3:TrackPointExtension>
        </extensions>
      </trkpt>
      <trkpt lat="45.24253916926681995391845703125" lon="-71.1417466588318347930908203125">
        <ele>994.79998779296875</ele>
        <time>2026-08-22T02:44:14.000Z</time>
        <extensions>
          <ns3:TrackPointExtension>
            <ns3:hr>126</ns3:hr>
            <ns3:cad>55</ns3:cad>
          </ns3:TrackPointExtension>
        </extensions>
      </trkpt>
      <trkpt lat="45.2425392530858516693115234375" lon="-71.1417614109814167022705078125">
        <ele>994.79998779296875</ele>
        <time>2026-08-22T02:44:15.000Z</time>
        <extensions>
          <ns3:TrackPointExtension>
            <ns3:hr>126</ns3:hr>
            <ns3:cad>53</ns3:cad>
          </ns3:TrackPointExtension>
        </extensions>
      </trkpt>
      <trkpt lat="45.24253849871456623077392578125" lon="-71.141779683530330657958984375">
        <ele>995</ele>
        <time>2026-08-22T02:44:16.000Z</time>
        <extensions>
          <ns3:TrackPointExtension>
            <ns3:hr>126</ns3:hr>
            <ns3:cad>53</ns3:cad>
          </ns3:TrackPointExtension>
        </extensions>
      </trkpt>
      <trkpt lat="45.2425416000187397003173828125" lon="-71.1417992971837520599365234375">
        <ele>995</ele>
        <time>2026-08-22T02:44:17.000Z</time>
        <extensions>
          <ns3:TrackPointExtension>
            <ns3:hr>126</ns3:hr>
            <ns3:cad>53</ns3:cad>
          </ns3:TrackPointExtension>
        </extensions>
      </trkpt>
      <trkpt lat="45.2425442822277545928955078125" lon="-71.14181664772331714630126953125">
        <ele>995.20001220703125</ele>
        <time>2026-08-22T02:44:18.000Z</time>
        <extensions>
          <ns3:TrackPointExtension>
            <ns3:hr>126</ns3:hr>
            <ns3:cad>55</ns3:cad>
          </ns3:TrackPointExtension>
        </extensions>
      </trkpt>
      <trkpt lat="45.24254671297967433929443359375" lon="-71.14183391444385051727294921875">
        <ele>995.20001220703125</ele>
        <time>2026-08-22T02:44:19.000Z</time>
        <extensions>
          <ns3:TrackPointExtension>
            <ns3:hr>126</ns3:hr>
            <ns3:cad>55</ns3:cad>
          </ns3:TrackPointExtension>
        </extensions>
      </trkpt>
      <trkpt lat="45.2425496466457843780517578125" lon="-71.14185042679309844970703125">
        <ele>995.20001220703125</ele>
        <time>2026-08-22T02:44:20.000Z</time>
        <extensions>
          <ns3:TrackPointExtension>
            <ns3:hr>127</ns3:hr>
            <ns3:cad>54</ns3:cad>
          </ns3:TrackPointExtension>
        </extensions>
      </trkpt>
      <trkpt lat="45.24255073629319667816162109375" lon="-71.141868196427822113037109375">
        <ele>995.20001220703125</ele>
        <time>2026-08-22T02:44:21.000Z</time>
        <extensions>
          <ns3:TrackPointExtension>
            <ns3:hr>128</ns3:hr>
            <ns3:cad>54</ns3:cad>
          </ns3:TrackPointExtension>
        </extensions>
      </trkpt>
      <trkpt lat="45.24255375377833843231201171875" lon="-71.1418847925961017608642578125">
        <ele>995.4000244140625</ele>
        <time>2026-08-22T02:44:22.000Z</time>
        <extensions>
          <ns3:TrackPointExtension>
            <ns3:hr>129</ns3:hr>
            <ns3:cad>55</ns3:cad>
          </ns3:TrackPointExtension>
        </extensions>
      </trkpt>
      <trkpt lat="45.24255928583443164825439453125" lon="-71.14190415479242801666259765625">
        <ele>995.4000244140625</ele>
        <time>2026-08-22T02:44:23.000Z</time>
        <extensions>
          <ns3:TrackPointExtension>
            <ns3:hr>129</ns3:hr>
            <ns3:cad>55</ns3:cad>
          </ns3:TrackPointExtension>
        </extensions>
      </trkpt>
      <trkpt lat="45.2425642311573028564453125" lon="-71.14192175678908824920654296875">
        <ele>995.4000244140625</ele>
        <time>2026-08-22T02:44:24.000Z</time>
        <extensions>
          <ns3:TrackPointExtension>
            <ns3:hr>130</ns3:hr>
            <ns3:cad>55</ns3:cad>
          </ns3:TrackPointExtension>
        </extensions>
      </trkpt>
      <trkpt lat="45.2425643987953662872314453125" lon="-71.141940616071224212646484375">
        <ele>995.5999755859375</ele>
        <time>2026-08-22T02:44:25.000Z</time>
        <extensions>
          <ns3:TrackPointExtension>
            <ns3:hr>130</ns3:hr>
            <ns3:cad>54</ns3:cad>
          </ns3:TrackPointExtension>
        </extensions>
      </trkpt>
      <trkpt lat="45.242563225328922271728515625" lon="-71.1419619061052799224853515625">
        <ele>995.5999755859375</ele>
        <time>2026-08-22T02:44:26.000Z</time>
        <extensions>
          <ns3:TrackPointExtension>
            <ns3:hr>131</ns3:hr>
            <ns3:cad>54</ns3:cad>
          </ns3:TrackPointExtension>
        </extensions>
      </trkpt>
      <trkpt lat="45.242567248642444610595703125" lon="-71.14198244176805019378662109375">
        <ele>995.4000244140625</ele>
        <time>2026-08-22T02:44:27.000Z</time>
        <extensions>
          <ns3:TrackPointExtension>
            <ns3:hr>131</ns3:hr>
            <ns3:cad>52</ns3:cad>
          </ns3:TrackPointExtension>
        </extensions>
      </trkpt>
      <trkpt lat="45.242564566433429718017578125" lon="-71.1419977806508541107177734375">
        <ele>995.4000244140625</ele>
        <time>2026-08-22T02:44:28.000Z</time>
        <extensions>
          <ns3:TrackPointExtension>
            <ns3:hr>131</ns3:hr>
            <ns3:cad>52</ns3:cad>
          </ns3:TrackPointExtension>
        </extensions>
      </trkpt>
      <trkpt lat="45.242566578090190887451171875" lon="-71.1420162208378314971923828125">
        <ele>995.4000244140625</ele>
        <time>2026-08-22T02:44:29.000Z</time>
        <extensions>
          <ns3:TrackPointExtension>
            <ns3:hr>131</ns3:hr>
            <ns3:cad>52</ns3:cad>
          </ns3:TrackPointExtension>
        </extensions>
      </trkpt>
      <trkpt lat="45.242566578090190887451171875" lon="-71.142033152282238006591796875">
        <ele>995.5999755859375</ele>
        <time>2026-08-22T02:44:30.000Z</time>
        <extensions>
          <ns3:TrackPointExtension>
            <ns3:hr>130</ns3:hr>
            <ns3:cad>55</ns3:cad>
          </ns3:TrackPointExtension>
        </extensions>
      </trkpt>
      <trkpt lat="45.24256565608084201812744140625" lon="-71.14204891026020050048828125">
        <ele>995.5999755859375</ele>
        <time>2026-08-22T02:44:31.000Z</time>
        <extensions>
          <ns3:TrackPointExtension>
            <ns3:hr>129</ns3:hr>
            <ns3:cad>55</ns3:cad>
          </ns3:TrackPointExtension>
        </extensions>
      </trkpt>
      <trkpt lat="45.2425654046237468719482421875" lon="-71.14206810481846332550048828125">
        <ele>995.79998779296875</ele>
        <time>2026-08-22T02:44:32.000Z</time>
        <extensions>
          <ns3:TrackPointExtension>
            <ns3:hr>129</ns3:hr>
            <ns3:cad>56</ns3:cad>
          </ns3:TrackPointExtension>
        </extensions>
      </trkpt>
      <trkpt lat="45.24256582371890544891357421875" lon="-71.1420857906341552734375">
        <ele>995.79998779296875</ele>
        <time>2026-08-22T02:44:33.000Z</time>
        <extensions>
          <ns3:TrackPointExtension>
            <ns3:hr>128</ns3:hr>
            <ns3:cad>56</ns3:cad>
          </ns3:TrackPointExtension>
        </extensions>
      </trkpt>
      <trkpt lat="45.24256381206214427947998046875" lon="-71.142097525298595428466796875">
        <ele>995.79998779296875</ele>
        <time>2026-08-22T02:44:34.000Z</time>
        <extensions>
          <ns3:TrackPointExtension>
            <ns3:hr>127</ns3:hr>
            <ns3:cad>56</ns3:cad>
          </ns3:TrackPointExtension>
        </extensions>
      </trkpt>
      <trkpt lat="45.24256045930087566375732421875" lon="-71.14210833795368671417236328125">
        <ele>995.79998779296875</ele>
        <time>2026-08-22T02:44:35.000Z</time>
        <extensions>
          <ns3:TrackPointExtension>
            <ns3:hr>127</ns3:hr>
            <ns3:cad>55</ns3:cad>
          </ns3:TrackPointExtension>
        </extensions>
      </trkpt>
      <trkpt lat="45.2425523288547992706298828125" lon="-71.1421164683997631072998046875">
        <ele>996</ele>
        <time>2026-08-22T02:44:36.000Z</time>
        <extensions>
          <ns3:TrackPointExtension>
            <ns3:hr>127</ns3:hr>
            <ns3:cad>55</ns3:cad>
          </ns3:TrackPointExtension>
        </extensions>
      </trkpt>
      <trkpt lat="45.2425509877502918243408203125" lon="-71.14213180728256702423095703125">
        <ele>996</ele>
        <time>2026-08-22T02:44:37.000Z</time>
        <extensions>
          <ns3:TrackPointExtension>
            <ns3:hr>127</ns3:hr>
            <ns3:cad>51</ns3:cad>
          </ns3:TrackPointExtension>
        </extensions>
      </trkpt>
      <trkpt lat="45.24254755116999149322509765625" lon="-71.14214974455535411834716796875">
        <ele>996</ele>
        <time>2026-08-22T02:44:38.000Z</time>
        <extensions>
          <ns3:TrackPointExtension>
            <ns3:hr>126</ns3:hr>
            <ns3:cad>51</ns3:cad>
          </ns3:TrackPointExtension>
        </extensions>
      </trkpt>
      <trkpt lat="45.2425479702651500701904296875" lon="-71.142168603837490081787109375">
        <ele>996</ele>
        <time>2026-08-22T02:44:39.000Z</time>
        <extensions>
          <ns3:TrackPointExtension>
            <ns3:hr>126</ns3:hr>
            <ns3:cad>51</ns3:cad>
          </ns3:TrackPointExtension>
        </extensions>
      </trkpt>
      <trkpt lat="45.242548473179340362548828125" lon="-71.1421882174909114837646484375">
        <ele>996.20001220703125</ele>
        <time>2026-08-22T02:44:40.000Z</time>
        <extensions>
          <ns3:TrackPointExtension>
            <ns3:hr>125</ns3:hr>
            <ns3:cad>51</ns3:cad>
          </ns3:TrackPointExtension>
        </extensions>
      </trkpt>
      <trkpt lat="45.2425483055412769317626953125" lon="-71.14220674149692058563232421875">
        <ele>996.20001220703125</ele>
        <time>2026-08-22T02:44:41.000Z</time>
        <extensions>
          <ns3:TrackPointExtension>
            <ns3:hr>125</ns3:hr>
            <ns3:cad>53</ns3:cad>
          </ns3:TrackPointExtension>
        </extensions>
      </trkpt>
      <trkpt lat="45.24254973046481609344482421875" lon="-71.14222568459808826446533203125">
        <ele>996.20001220703125</ele>
        <time>2026-08-22T02:44:42.000Z</time>
        <extensions>
          <ns3:TrackPointExtension>
            <ns3:hr>124</ns3:hr>
            <ns3:cad>53</ns3:cad>
          </ns3:TrackPointExtension>
        </extensions>
      </trkpt>
      <trkpt lat="45.24255107156932353973388671875" lon="-71.142243035137653350830078125">
        <ele>996.4000244140625</ele>
        <time>2026-08-22T02:44:43.000Z</time>
        <extensions>
          <ns3:TrackPointExtension>
            <ns3:hr>124</ns3:hr>
            <ns3:cad>53</ns3:cad>
          </ns3:TrackPointExtension>
        </extensions>
      </trkpt>
      <trkpt lat="45.24255392141640186309814453125" lon="-71.14226206205785274505615234375">
        <ele>996.4000244140625</ele>
        <time>2026-08-22T02:44:44.000Z</time>
        <extensions>
          <ns3:TrackPointExtension>
            <ns3:hr>123</ns3:hr>
            <ns3:cad>53</ns3:cad>
          </ns3:TrackPointExtension>
        </extensions>
      </trkpt>
      <trkpt lat="45.2425550110638141632080078125" lon="-71.1422760598361492156982421875">
        <ele>996.4000244140625</ele>
        <time>2026-08-22T02:44:45.000Z</time>
        <extensions>
          <ns3:TrackPointExtension>
            <ns3:hr>123</ns3:hr>
            <ns3:cad>53</ns3:cad>
          </ns3:TrackPointExtension>
        </extensions>
      </trkpt>
      <trkpt lat="45.24255551397800445556640625" lon="-71.142291985452175140380859375">
        <ele>996.4000244140625</ele>
        <time>2026-08-22T02:44:46.000Z</time>
        <extensions>
          <ns3:TrackPointExtension>
            <ns3:hr>123</ns3:hr>
            <ns3:cad>55</ns3:cad>
          </ns3:TrackPointExtension>
        </extensions>
      </trkpt>
      <trkpt lat="45.24255610071122646331787109375" lon="-71.14230816252529621124267578125">
        <ele>996.4000244140625</ele>
        <time>2026-08-22T02:44:47.000Z</time>
        <extensions>
          <ns3:TrackPointExtension>
            <ns3:hr>123</ns3:hr>
            <ns3:cad>52</ns3:cad>
          </ns3:TrackPointExtension>
        </extensions>
      </trkpt>
      <trkpt lat="45.2425583638250827789306640625" lon="-71.14232291467487812042236328125">
        <ele>996.5999755859375</ele>
        <time>2026-08-22T02:44:48.000Z</time>
        <extensions>
          <ns3:TrackPointExtension>
            <ns3:hr>123</ns3:hr>
            <ns3:cad>52</ns3:cad>
          </ns3:TrackPointExtension>
        </extensions>
      </trkpt>
      <trkpt lat="45.242559872567653656005859375" lon="-71.1423387564718723297119140625">
        <ele>996.5999755859375</ele>
        <time>2026-08-22T02:44:49.000Z</time>
        <extensions>
          <ns3:TrackPointExtension>
            <ns3:hr>122</ns3:hr>
            <ns3:cad>52</ns3:cad>
          </ns3:TrackPointExtension>
        </extensions>
      </trkpt>
      <trkpt lat="45.2425588667392730712890625" lon="-71.14235208369791507720947265625">
        <ele>996.79998779296875</ele>
        <time>2026-08-22T02:44:50.000Z</time>
        <extensions>
          <ns3:TrackPointExtension>
            <ns3:hr>122</ns3:hr>
            <ns3:cad>52</ns3:cad>
          </ns3:TrackPointExtension>
        </extensions>
      </trkpt>
      <trkpt lat="45.24255794472992420196533203125" lon="-71.1423719488084316253662109375">
        <ele>996.79998779296875</ele>
        <time>2026-08-22T02:44:51.000Z</time>
        <extensions>
          <ns3:TrackPointExtension>
            <ns3:hr>123</ns3:hr>
            <ns3:cad>53</ns3:cad>
          </ns3:TrackPointExtension>
        </extensions>
      </trkpt>
      <trkpt lat="45.24255811236798763275146484375" lon="-71.14239131100475788116455078125">
        <ele>997</ele>
        <time>2026-08-22T02:44:52.000Z</time>
        <extensions>
          <ns3:TrackPointExtension>
            <ns3:hr>123</ns3:hr>
            <ns3:cad>53</ns3:cad>
          </ns3:TrackPointExtension>
        </extensions>
      </trkpt>
      <trkpt lat="45.24255392141640186309814453125" lon="-71.142410673201084136962890625">
        <ele>997</ele>
        <time>2026-08-22T02:44:53.000Z</time>
        <extensions>
          <ns3:TrackPointExtension>
            <ns3:hr>124</ns3:hr>
            <ns3:cad>52</ns3:cad>
          </ns3:TrackPointExtension>
        </extensions>
      </trkpt>
      <trkpt lat="45.24255190975964069366455078125" lon="-71.14242970012128353118896484375">
        <ele>997</ele>
        <time>2026-08-22T02:44:54.000Z</time>
        <extensions>
          <ns3:TrackPointExtension>
            <ns3:hr>124</ns3:hr>
            <ns3:cad>51</ns3:cad>
          </ns3:TrackPointExtension>
        </extensions>
      </trkpt>
      <trkpt lat="45.24255325086414813995361328125" lon="-71.14244679920375347137451171875">
        <ele>997</ele>
        <time>2026-08-22T02:44:55.000Z</time>
        <extensions>
          <ns3:TrackPointExtension>
            <ns3:hr>124</ns3:hr>
            <ns3:cad>51</ns3:cad>
          </ns3:TrackPointExtension>
        </extensions>
      </trkpt>
      <trkpt lat="45.24255543015897274017333984375" lon="-71.14246607758104801177978515625">
        <ele>997</ele>
        <time>2026-08-22T02:44:56.000Z</time>
        <extensions>
          <ns3:TrackPointExtension>
            <ns3:hr>124</ns3:hr>
            <ns3:cad>51</ns3:cad>
          </ns3:TrackPointExtension>
        </extensions>
      </trkpt>
      <trkpt lat="45.242557525634765625" lon="-71.14248569123446941375732421875">
        <ele>997</ele>
        <time>2026-08-22T02:44:57.000Z</time>
        <extensions>
          <ns3:TrackPointExtension>
            <ns3:hr>125</ns3:hr>
            <ns3:cad>51</ns3:cad>
          </ns3:TrackPointExtension>
        </extensions>
      </trkpt>
      <trkpt lat="45.2425593696534633636474609375" lon="-71.14250354468822479248046875">
        <ele>996.79998779296875</ele>
        <time>2026-08-22T02:44:58.000Z</time>
        <extensions>
          <ns3:TrackPointExtension>
            <ns3:hr>125</ns3:hr>
            <ns3:cad>53</ns3:cad>
          </ns3:TrackPointExtension>
        </extensions>
      </trkpt>
      <trkpt lat="45.24255928583443164825439453125" lon="-71.14251905120909214019775390625">
        <ele>996.79998779296875</ele>
        <time>2026-08-22T02:44:59.000Z</time>
        <extensions>
          <ns3:TrackPointExtension>
            <ns3:hr>125</ns3:hr>
            <ns3:cad>55</ns3:cad>
          </ns3:TrackPointExtension>
        </extensions>
      </trkpt>
      <trkpt lat="45.2425610460340976715087890625" lon="-71.14253816194832324981689453125">
        <ele>997</ele>
        <time>2026-08-22T02:45:00.000Z</time>
        <extensions>
          <ns3:TrackPointExtension>
            <ns3:hr>125</ns3:hr>
            <ns3:cad>55</ns3:cad>
          </ns3:TrackPointExtension>
        </extensions>
      </trkpt>
      <trkpt lat="45.24256196804344654083251953125" lon="-71.14255660213530063629150390625">
        <ele>997</ele>
        <time>2026-08-22T02:45:01.000Z</time>
        <extensions>
          <ns3:TrackPointExtension>
            <ns3:hr>125</ns3:hr>
            <ns3:cad>55</ns3:cad>
          </ns3:TrackPointExtension>
        </extensions>
      </trkpt>
      <trkpt lat="45.24255828000605106353759765625" lon="-71.1425764672458171844482421875">
        <ele>997.20001220703125</ele>
        <time>2026-08-22T02:45:02.000Z</time>
        <extensions>
          <ns3:TrackPointExtension>
            <ns3:hr>125</ns3:hr>
            <ns3:cad>55</ns3:cad>
          </ns3:TrackPointExtension>
        </extensions>
      </trkpt>
      <trkpt lat="45.242557190358638763427734375" lon="-71.14259331487119197845458984375">
        <ele>997.20001220703125</ele>
        <time>2026-08-22T02:45:03.000Z</time>
        <extensions>
          <ns3:TrackPointExtension>
            <ns3:hr>125</ns3:hr>
            <ns3:cad>55</ns3:cad>
          </ns3:TrackPointExtension>
        </extensions>
      </trkpt>
      <trkpt lat="45.242558531463146209716796875" lon="-71.142619885504245758056640625">
        <ele>997.20001220703125</ele>
        <time>2026-08-22T02:45:04.000Z</time>
        <extensions>
          <ns3:TrackPointExtension>
            <ns3:hr>125</ns3:hr>
            <ns3:cad>55</ns3:cad>
          </ns3:TrackPointExtension>
        </extensions>
      </trkpt>
      <trkpt lat="45.24255995638668537139892578125" lon="-71.1426371522247791290283203125">
        <ele>997.20001220703125</ele>
        <time>2026-08-22T02:45:05.000Z</time>
        <extensions>
          <ns3:TrackPointExtension>
            <ns3:hr>125</ns3:hr>
            <ns3:cad>55</ns3:cad>
          </ns3:TrackPointExtension>
        </extensions>
      </trkpt>
      <trkpt lat="45.242556519806385040283203125" lon="-71.14264578558504581451416015625">
        <ele>997.4000244140625</ele>
        <time>2026-08-22T02:45:06.000Z</time>
        <extensions>
          <ns3:TrackPointExtension>
            <ns3:hr>125</ns3:hr>
            <ns3:cad>55</ns3:cad>
          </ns3:TrackPointExtension>
        </extensions>
      </trkpt>
      <trkpt lat="45.2425560168921947479248046875" lon="-71.1426638066768646240234375">
        <ele>997.4000244140625</ele>
        <time>2026-08-22T02:45:07.000Z</time>
        <extensions>
          <ns3:TrackPointExtension>
            <ns3:hr>124</ns3:hr>
            <ns3:cad>55</ns3:cad>
          </ns3:TrackPointExtension>
        </extensions>
      </trkpt>
      <trkpt lat="45.24255744181573390960693359375" lon="-71.1426772177219390869140625">
        <ele>997.5999755859375</ele>
        <time>2026-08-22T02:45:08.000Z</time>
        <extensions>
          <ns3:TrackPointExtension>
            <ns3:hr>125</ns3:hr>
            <ns3:cad>53</ns3:cad>
          </ns3:TrackPointExtension>
        </extensions>
      </trkpt>
      <trkpt lat="45.242549814283847808837890625" lon="-71.14269054494798183441162109375">
        <ele>997.79998779296875</ele>
        <time>2026-08-22T02:45:09.000Z</time>
        <extensions>
          <ns3:TrackPointExtension>
            <ns3:hr>125</ns3:hr>
            <ns3:cad>53</ns3:cad>
          </ns3:TrackPointExtension>
        </extensions>
      </trkpt>
      <trkpt lat="45.2425454556941986083984375" lon="-71.1427065543830394744873046875">
        <ele>997.79998779296875</ele>
        <time>2026-08-22T02:45:10.000Z</time>
        <extensions>
          <ns3:TrackPointExtension>
            <ns3:hr>124</ns3:hr>
            <ns3:cad>51</ns3:cad>
          </ns3:TrackPointExtension>
        </extensions>
      </trkpt>
      <trkpt lat="45.2425405941903591156005859375" lon="-71.142719797790050506591796875">
        <ele>998</ele>
        <time>2026-08-22T02:45:11.000Z</time>
        <extensions>
          <ns3:TrackPointExtension>
            <ns3:hr>125</ns3:hr>
            <ns3:cad>51</ns3:cad>
          </ns3:TrackPointExtension>
        </extensions>
      </trkpt>
      <trkpt lat="45.2425338886678218841552734375" lon="-71.142735220491886138916015625">
        <ele>998</ele>
        <time>2026-08-22T02:45:12.000Z</time>
        <extensions>
          <ns3:TrackPointExtension>
            <ns3:hr>125</ns3:hr>
            <ns3:cad>51</ns3:cad>
          </ns3:TrackPointExtension>
        </extensions>
      </trkpt>
      <trkpt lat="45.24253263138234615325927734375" lon="-71.1427491344511508941650390625">
        <ele>998</ele>
        <time>2026-08-22T02:45:13.000Z</time>
        <extensions>
          <ns3:TrackPointExtension>
            <ns3:hr>125</ns3:hr>
            <ns3:cad>52</ns3:cad>
          </ns3:TrackPointExtension>
        </extensions>
      </trkpt>
      <trkpt lat="45.2425308711826801300048828125" lon="-71.142763383686542510986328125">
        <ele>998</ele>
        <time>2026-08-22T02:45:14.000Z</time>
        <extensions>
          <ns3:TrackPointExtension>
            <ns3:hr>124</ns3:hr>
            <ns3:cad>52</ns3:cad>
          </ns3:TrackPointExtension>
        </extensions>
      </trkpt>
      <trkpt lat="45.24252575822174549102783203125" lon="-71.142782829701900482177734375">
        <ele>998</ele>
        <time>2026-08-22T02:45:15.000Z</time>
        <extensions>
          <ns3:TrackPointExtension>
            <ns3:hr>125</ns3:hr>
            <ns3:cad>53</ns3:cad>
          </ns3:TrackPointExtension>
        </extensions>
      </trkpt>
      <trkpt lat="45.24252458475530147552490234375" lon="-71.142803616821765899658203125">
        <ele>998.20001220703125</ele>
        <time>2026-08-22T02:45:16.000Z</time>
        <extensions>
          <ns3:TrackPointExtension>
            <ns3:hr>126</ns3:hr>
            <ns3:cad>53</ns3:cad>
          </ns3:TrackPointExtension>
        </extensions>
      </trkpt>
      <trkpt lat="45.24252844043076038360595703125" lon="-71.14283203147351741790771484375">
        <ele>998.20001220703125</ele>
        <time>2026-08-22T02:45:17.000Z</time>
        <extensions>
          <ns3:TrackPointExtension>
            <ns3:hr>127</ns3:hr>
            <ns3:cad>54</ns3:cad>
          </ns3:TrackPointExtension>
        </extensions>
      </trkpt>
      <trkpt lat="45.2425369061529636383056640625" lon="-71.14285835064947605133056640625">
        <ele>998.20001220703125</ele>
        <time>2026-08-22T02:45:18.000Z</time>
        <extensions>
          <ns3:TrackPointExtension>
            <ns3:hr>129</ns3:hr>
            <ns3:cad>54</ns3:cad>
          </ns3:TrackPointExtension>
        </extensions>
      </trkpt>
      <trkpt lat="45.242541097104549407958984375" lon="-71.14288047887384891510009765625">
        <ele>998.20001220703125</ele>
        <time>2026-08-22T02:45:19.000Z</time>
        <extensions>
          <ns3:TrackPointExtension>
            <ns3:hr>131</ns3:hr>
            <ns3:cad>54</ns3:cad>
          </ns3:TrackPointExtension>
        </extensions>
      </trkpt>
      <trkpt lat="45.2425442822277545928955078125" lon="-71.14290260709822177886962890625">
        <ele>998</ele>
        <time>2026-08-22T02:45:20.000Z</time>
        <extensions>
          <ns3:TrackPointExtension>
            <ns3:hr>133</ns3:hr>
            <ns3:cad>54</ns3:cad>
          </ns3:TrackPointExtension>
        </extensions>
      </trkpt>
      <trkpt lat="45.242548473179340362548828125" lon="-71.142927668988704681396484375">
        <ele>998</ele>
        <time>2026-08-22T02:45:21.000Z</time>
        <extensions>
          <ns3:TrackPointExtension>
            <ns3:hr>134</ns3:hr>
            <ns3:cad>54</ns3:cad>
          </ns3:TrackPointExtension>
        </extensions>
      </trkpt>
      <trkpt lat="45.24254872463643550872802734375" lon="-71.1429519765079021453857421875">
        <ele>997.79998779296875</ele>
        <time>2026-08-22T02:45:22.000Z</time>
        <extensions>
          <ns3:TrackPointExtension>
            <ns3:hr>134</ns3:hr>
            <ns3:cad>55</ns3:cad>
          </ns3:TrackPointExtension>
        </extensions>
      </trkpt>
      <trkpt lat="45.24255056865513324737548828125" lon="-71.1429737694561481475830078125">
        <ele>997.79998779296875</ele>
        <time>2026-08-22T02:45:23.000Z</time>
        <extensions>
          <ns3:TrackPointExtension>
            <ns3:hr>135</ns3:hr>
            <ns3:cad>55</ns3:cad>
          </ns3:TrackPointExtension>
        </extensions>
      </trkpt>
      <trkpt lat="45.24254905991256237030029296875" lon="-71.14299573004245758056640625">
        <ele>997.79998779296875</ele>
        <time>2026-08-22T02:45:24.000Z</time>
        <extensions>
          <ns3:TrackPointExtension>
            <ns3:hr>135</ns3:hr>
            <ns3:cad>55</ns3:cad>
          </ns3:TrackPointExtension>
        </extensions>
      </trkpt>
      <trkpt lat="45.2425509877502918243408203125" lon="-71.14301559515297412872314453125">
        <ele>997.79998779296875</ele>
        <time>2026-08-22T02:45:25.000Z</time>
        <extensions>
          <ns3:TrackPointExtension>
            <ns3:hr>135</ns3:hr>
            <ns3:cad>55</ns3:cad>
          </ns3:TrackPointExtension>
        </extensions>
      </trkpt>
      <trkpt lat="45.24255425669252872467041015625" lon="-71.1430357955396175384521484375">
        <ele>998</ele>
        <time>2026-08-22T02:45:26.000Z</time>
        <extensions>
          <ns3:TrackPointExtension>
            <ns3:hr>136</ns3:hr>
            <ns3:cad>55</ns3:cad>
          </ns3:TrackPointExtension>
        </extensions>
      </trkpt>
      <trkpt lat="45.24255157448351383209228515625" lon="-71.1430539004504680633544921875">
        <ele>998</ele>
        <time>2026-08-22T02:45:27.000Z</time>
        <extensions>
          <ns3:TrackPointExtension>
            <ns3:hr>136</ns3:hr>
            <ns3:cad>55</ns3:cad>
          </ns3:TrackPointExtension>
        </extensions>
      </trkpt>
      <trkpt lat="45.2425503171980381011962890625" lon="-71.1430740170180797576904296875">
        <ele>998.20001220703125</ele>
        <time>2026-08-22T02:45:28.000Z</time>
        <extensions>
          <ns3:TrackPointExtension>
            <ns3:hr>136</ns3:hr>
            <ns3:cad>55</ns3:cad>
          </ns3:TrackPointExtension>
        </extensions>
      </trkpt>
      <trkpt lat="45.24255040101706981658935546875" lon="-71.1430971510708332061767578125">
        <ele>998.4000244140625</ele>
        <time>2026-08-22T02:45:29.000Z</time>
        <extensions>
          <ns3:TrackPointExtension>
            <ns3:hr>137</ns3:hr>
            <ns3:cad>62</ns3:cad>
          </ns3:TrackPointExtension>
        </extensions>
      </trkpt>
      <trkpt lat="45.2425493113696575164794921875" lon="-71.14311651326715946197509765625">
        <ele>998.5999755859375</ele>
        <time>2026-08-22T02:45:30.000Z</time>
        <extensions>
          <ns3:TrackPointExtension>
            <ns3:hr>137</ns3:hr>
            <ns3:cad>62</ns3:cad>
          </ns3:TrackPointExtension>
        </extensions>
      </trkpt>
      <trkpt lat="45.24254973046481609344482421875" lon="-71.14313579164445400238037109375">
        <ele>998.79998779296875</ele>
        <time>2026-08-22T02:45:31.000Z</time>
        <extensions>
          <ns3:TrackPointExtension>
            <ns3:hr>136</ns3:hr>
            <ns3:cad>58</ns3:cad>
          </ns3:TrackPointExtension>
        </extensions>
      </trkpt>
      <trkpt lat="45.24255283176898956298828125" lon="-71.143156327307224273681640625">
        <ele>998.79998779296875</ele>
        <time>2026-08-22T02:45:32.000Z</time>
        <extensions>
          <ns3:TrackPointExtension>
            <ns3:hr>136</ns3:hr>
            <ns3:cad>58</ns3:cad>
          </ns3:TrackPointExtension>
        </extensions>
      </trkpt>
      <trkpt lat="45.242556519806385040283203125" lon="-71.143180467188358306884765625">
        <ele>998.79998779296875</ele>
        <time>2026-08-22T02:45:33.000Z</time>
        <extensions>
          <ns3:TrackPointExtension>
            <ns3:hr>136</ns3:hr>
            <ns3:cad>58</ns3:cad>
          </ns3:TrackPointExtension>
        </extensions>
      </trkpt>
      <trkpt lat="45.24255744181573390960693359375" lon="-71.143198907375335693359375">
        <ele>998.79998779296875</ele>
        <time>2026-08-22T02:45:34.000Z</time>
        <extensions>
          <ns3:TrackPointExtension>
            <ns3:hr>137</ns3:hr>
            <ns3:cad>58</ns3:cad>
          </ns3:TrackPointExtension>
        </extensions>
      </trkpt>
      <trkpt lat="45.24255777709186077117919921875" lon="-71.14321642555296421051025390625">
        <ele>998.5999755859375</ele>
        <time>2026-08-22T02:45:35.000Z</time>
        <extensions>
          <ns3:TrackPointExtension>
            <ns3:hr>137</ns3:hr>
            <ns3:cad>58</ns3:cad>
          </ns3:TrackPointExtension>
        </extensions>
      </trkpt>
      <trkpt lat="45.24255895055830478668212890625" lon="-71.14323310554027557373046875">
        <ele>998.5999755859375</ele>
        <time>2026-08-22T02:45:36.000Z</time>
        <extensions>
          <ns3:TrackPointExtension>
            <ns3:hr>137</ns3:hr>
            <ns3:cad>55</ns3:cad>
          </ns3:TrackPointExtension>
        </extensions>
      </trkpt>
      <trkpt lat="45.24256112985312938690185546875" lon="-71.14325045607984066009521484375">
        <ele>998.79998779296875</ele>
        <time>2026-08-22T02:45:37.000Z</time>
        <extensions>
          <ns3:TrackPointExtension>
            <ns3:hr>136</ns3:hr>
            <ns3:cad>55</ns3:cad>
          </ns3:TrackPointExtension>
        </extensions>
      </trkpt>
      <trkpt lat="45.2425643987953662872314453125" lon="-71.1432711593806743621826171875">
        <ele>998.79998779296875</ele>
        <time>2026-08-22T02:45:38.000Z</time>
        <extensions>
          <ns3:TrackPointExtension>
            <ns3:hr>137</ns3:hr>
            <ns3:cad>55</ns3:cad>
          </ns3:TrackPointExtension>
        </extensions>
      </trkpt>
      <trkpt lat="45.24256758391857147216796875" lon="-71.1432862468063831329345703125">
        <ele>998.79998779296875</ele>
        <time>2026-08-22T02:45:39.000Z</time>
        <extensions>
          <ns3:TrackPointExtension>
            <ns3:hr>135</ns3:hr>
            <ns3:cad>55</ns3:cad>
          </ns3:TrackPointExtension>
        </extensions>
      </trkpt>
      <trkpt lat="45.24256917648017406463623046875" lon="-71.14330141805112361907958984375">
        <ele>999</ele>
        <time>2026-08-22T02:45:40.000Z</time>
        <extensions>
          <ns3:TrackPointExtension>
            <ns3:hr>130</ns3:hr>
            <ns3:cad>55</ns3:cad>
          </ns3:TrackPointExtension>
        </extensions>
      </trkpt>
      <trkpt lat="45.2425700984895229339599609375" lon="-71.14332136698067188262939453125">
        <ele>999</ele>
        <time>2026-08-22T02:45:41.000Z</time>
        <extensions>
          <ns3:TrackPointExtension>
            <ns3:hr>127</ns3:hr>
            <ns3:cad>54</ns3:cad>
          </ns3:TrackPointExtension>
        </extensions>
      </trkpt>
      <trkpt lat="45.24256716482341289520263671875" lon="-71.1433372087776660919189453125">
        <ele>999.20001220703125</ele>
        <time>2026-08-22T02:45:42.000Z</time>
        <extensions>
          <ns3:TrackPointExtension>
            <ns3:hr>126</ns3:hr>
            <ns3:cad>54</ns3:cad>
          </ns3:TrackPointExtension>
        </extensions>
      </trkpt>
      <trkpt lat="45.24256817065179347991943359375" lon="-71.14335640333592891693115234375">
        <ele>999</ele>
        <time>2026-08-22T02:45:43.000Z</time>
        <extensions>
          <ns3:TrackPointExtension>
            <ns3:hr>125</ns3:hr>
            <ns3:cad>54</ns3:cad>
          </ns3:TrackPointExtension>
        </extensions>
      </trkpt>
      <trkpt lat="45.24256800301373004913330078125" lon="-71.143379621207714080810546875">
        <ele>999</ele>
        <time>2026-08-22T02:45:44.000Z</time>
        <extensions>
          <ns3:TrackPointExtension>
            <ns3:hr>125</ns3:hr>
            <ns3:cad>54</ns3:cad>
          </ns3:TrackPointExtension>
        </extensions>
      </trkpt>
      <trkpt lat="45.24256289005279541015625" lon="-71.14339479245245456695556640625">
        <ele>999</ele>
        <time>2026-08-22T02:45:45.000Z</time>
        <extensions>
          <ns3:TrackPointExtension>
            <ns3:hr>125</ns3:hr>
            <ns3:cad>54</ns3:cad>
          </ns3:TrackPointExtension>
        </extensions>
      </trkpt>
      <trkpt lat="45.2425593696534633636474609375" lon="-71.14340971224009990692138671875">
        <ele>999</ele>
        <time>2026-08-22T02:45:46.000Z</time>
        <extensions>
          <ns3:TrackPointExtension>
            <ns3:hr>125</ns3:hr>
            <ns3:cad>53</ns3:cad>
          </ns3:TrackPointExtension>
        </extensions>
      </trkpt>
      <trkpt lat="45.24256750009953975677490234375" lon="-71.14342756569385528564453125">
        <ele>999.20001220703125</ele>
        <time>2026-08-22T02:45:47.000Z</time>
        <extensions>
          <ns3:TrackPointExtension>
            <ns3:hr>125</ns3:hr>
            <ns3:cad>53</ns3:cad>
          </ns3:TrackPointExtension>
        </extensions>
      </trkpt>
      <trkpt lat="45.24257085286080837249755859375" lon="-71.14344634115695953369140625">
        <ele>999.20001220703125</ele>
        <time>2026-08-22T02:45:48.000Z</time>
        <extensions>
          <ns3:TrackPointExtension>
            <ns3:hr>125</ns3:hr>
            <ns3:cad>53</ns3:cad>
          </ns3:TrackPointExtension>
        </extensions>
      </trkpt>
      <trkpt lat="45.242571942508220672607421875" lon="-71.14346251823008060455322265625">
        <ele>999.20001220703125</ele>
        <time>2026-08-22T02:45:49.000Z</time>
        <extensions>
          <ns3:TrackPointExtension>
            <ns3:hr>125</ns3:hr>
            <ns3:cad>53</ns3:cad>
          </ns3:TrackPointExtension>
        </extensions>
      </trkpt>
      <trkpt lat="45.24256867356598377227783203125" lon="-71.14347727037966251373291015625">
        <ele>999.20001220703125</ele>
        <time>2026-08-22T02:45:50.000Z</time>
        <extensions>
          <ns3:TrackPointExtension>
            <ns3:hr>124</ns3:hr>
            <ns3:cad>52</ns3:cad>
          </ns3:TrackPointExtension>
        </extensions>
      </trkpt>
      <trkpt lat="45.242565907537937164306640625" lon="-71.14349755458533763885498046875">
        <ele>999</ele>
        <time>2026-08-22T02:45:51.000Z</time>
        <extensions>
          <ns3:TrackPointExtension>
            <ns3:hr>125</ns3:hr>
            <ns3:cad>52</ns3:cad>
          </ns3:TrackPointExtension>
        </extensions>
      </trkpt>
      <trkpt lat="45.2425623871386051177978515625" lon="-71.14351482130587100982666015625">
        <ele>998.79998779296875</ele>
        <time>2026-08-22T02:45:52.000Z</time>
        <extensions>
          <ns3:TrackPointExtension>
            <ns3:hr>125</ns3:hr>
            <ns3:cad>52</ns3:cad>
          </ns3:TrackPointExtension>
        </extensions>
      </trkpt>
      <trkpt lat="45.24256330914795398712158203125" lon="-71.14353342913091182708740234375">
        <ele>998.79998779296875</ele>
        <time>2026-08-22T02:45:53.000Z</time>
        <extensions>
          <ns3:TrackPointExtension>
            <ns3:hr>125</ns3:hr>
            <ns3:cad>52</ns3:cad>
          </ns3:TrackPointExtension>
        </extensions>
      </trkpt>
      <trkpt lat="45.2425623871386051177978515625" lon="-71.143550612032413482666015625">
        <ele>998.5999755859375</ele>
        <time>2026-08-22T02:45:54.000Z</time>
        <extensions>
          <ns3:TrackPointExtension>
            <ns3:hr>125</ns3:hr>
            <ns3:cad>52</ns3:cad>
          </ns3:TrackPointExtension>
        </extensions>
      </trkpt>
      <trkpt lat="45.24256180040538311004638671875" lon="-71.14357148297131061553955078125">
        <ele>998.5999755859375</ele>
        <time>2026-08-22T02:45:55.000Z</time>
        <extensions>
          <ns3:TrackPointExtension>
            <ns3:hr>125</ns3:hr>
            <ns3:cad>0</ns3:cad>
          </ns3:TrackPointExtension>
        </extensions>
      </trkpt>
      <trkpt lat="45.2425617165863513946533203125" lon="-71.143580116331577301025390625">
        <ele>998.4000244140625</ele>
        <time>2026-08-22T02:45:56.000Z</time>
        <extensions>
          <ns3:TrackPointExtension>
            <ns3:hr>126</ns3:hr>
            <ns3:cad>57</ns3:cad>
          </ns3:TrackPointExtension>
        </extensions>
      </trkpt>
      <trkpt lat="45.24256129749119281768798828125" lon="-71.1435846425592899322509765625">
        <ele>998.4000244140625</ele>
        <time>2026-08-22T02:45:57.000Z</time>
        <extensions>
          <ns3:TrackPointExtension>
            <ns3:hr>126</ns3:hr>
            <ns3:cad>57</ns3:cad>
          </ns3:TrackPointExtension>
        </extensions>
      </trkpt>
      <trkpt lat="45.24256297387182712554931640625" lon="-71.14359654486179351806640625">
        <ele>998.20001220703125</ele>
        <time>2026-08-22T02:45:58.000Z</time>
        <extensions>
          <ns3:TrackPointExtension>
            <ns3:hr>125</ns3:hr>
            <ns3:cad>57</ns3:cad>
          </ns3:TrackPointExtension>
        </extensions>
      </trkpt>
      <trkpt lat="45.24256129749119281768798828125" lon="-71.14360199309885501861572265625">
        <ele>998</ele>
        <time>2026-08-22T02:45:59.000Z</time>
        <extensions>
          <ns3:TrackPointExtension>
            <ns3:hr>125</ns3:hr>
            <ns3:cad>57</ns3:cad>
          </ns3:TrackPointExtension>
        </extensions>
      </trkpt>
      <trkpt lat="45.24255341850221157073974609375" lon="-71.1436124704778194427490234375">
        <ele>998</ele>
        <time>2026-08-22T02:46:00.000Z</time>
        <extensions>
          <ns3:TrackPointExtension>
            <ns3:hr>125</ns3:hr>
            <ns3:cad>52</ns3:cad>
          </ns3:TrackPointExtension>
        </extensions>
      </trkpt>
      <trkpt lat="45.24254553951323032379150390625" lon="-71.14362579770386219024658203125">
        <ele>997.79998779296875</ele>
        <time>2026-08-22T02:46:01.000Z</time>
        <extensions>
          <ns3:TrackPointExtension>
            <ns3:hr>125</ns3:hr>
            <ns3:cad>52</ns3:cad>
          </ns3:TrackPointExtension>
        </extensions>
      </trkpt>
      <trkpt lat="45.2425409294664859771728515625" lon="-71.1436446569859981536865234375">
        <ele>997.5999755859375</ele>
        <time>2026-08-22T02:46:02.000Z</time>
        <extensions>
          <ns3:TrackPointExtension>
            <ns3:hr>124</ns3:hr>
            <ns3:cad>52</ns3:cad>
          </ns3:TrackPointExtension>
        </extensions>
      </trkpt>
      <trkpt lat="45.242535062134265899658203125" lon="-71.1436533741652965545654296875">
        <ele>997.5999755859375</ele>
        <time>2026-08-22T02:46:03.000Z</time>
        <extensions>
          <ns3:TrackPointExtension>
            <ns3:hr>124</ns3:hr>
            <ns3:cad>52</ns3:cad>
          </ns3:TrackPointExtension>
        </extensions>
      </trkpt>
      <trkpt lat="45.24253078736364841461181640625" lon="-71.14366494119167327880859375">
        <ele>997.4000244140625</ele>
        <time>2026-08-22T02:46:04.000Z</time>
        <extensions>
          <ns3:TrackPointExtension>
            <ns3:hr>124</ns3:hr>
            <ns3:cad>52</ns3:cad>
          </ns3:TrackPointExtension>
        </extensions>
      </trkpt>
      <trkpt lat="45.24252827279269695281982421875" lon="-71.14367826841771602630615234375">
        <ele>997.4000244140625</ele>
        <time>2026-08-22T02:46:05.000Z</time>
        <extensions>
          <ns3:TrackPointExtension>
            <ns3:hr>123</ns3:hr>
            <ns3:cad>52</ns3:cad>
          </ns3:TrackPointExtension>
        </extensions>
      </trkpt>
      <trkpt lat="45.2425221540033817291259765625" lon="-71.143688075244426727294921875">
        <ele>997.20001220703125</ele>
        <time>2026-08-22T02:46:06.000Z</time>
        <extensions>
          <ns3:TrackPointExtension>
            <ns3:hr>124</ns3:hr>
            <ns3:cad>52</ns3:cad>
          </ns3:TrackPointExtension>
        </extensions>
      </trkpt>
      <trkpt lat="45.242520980536937713623046875" lon="-71.1436892487108707427978515625">
        <ele>997.20001220703125</ele>
        <time>2026-08-22T02:46:07.000Z</time>
        <extensions>
          <ns3:TrackPointExtension>
            <ns3:hr>123</ns3:hr>
            <ns3:cad>52</ns3:cad>
          </ns3:TrackPointExtension>
        </extensions>
      </trkpt>
      <trkpt lat="45.24252056144177913665771484375" lon="-71.14368765614926815032958984375">
        <ele>997.20001220703125</ele>
        <time>2026-08-22T02:46:08.000Z</time>
        <extensions>
          <ns3:TrackPointExtension>
            <ns3:hr>123</ns3:hr>
            <ns3:cad>0</ns3:cad>
          </ns3:TrackPointExtension>
        </extensions>
      </trkpt>
      <trkpt lat="45.242520980536937713623046875" lon="-71.14368631504476070404052734375">
        <ele>997.20001220703125</ele>
        <time>2026-08-22T02:46:09.000Z</time>
        <extensions>
          <ns3:TrackPointExtension>
            <ns3:hr>123</ns3:hr>
            <ns3:cad>0</ns3:cad>
          </ns3:TrackPointExtension>
        </extensions>
      </trkpt>
      <trkpt lat="45.242520980536937713623046875" lon="-71.14368631504476070404052734375">
        <ele>997.20001220703125</ele>
        <time>2026-08-22T02:46:10.000Z</time>
        <extensions>
          <ns3:TrackPointExtension>
            <ns3:hr>124</ns3:hr>
            <ns3:cad>0</ns3:cad>
          </ns3:TrackPointExtension>
        </extensions>
      </trkpt>
      <trkpt lat="45.242520980536937713623046875" lon="-71.14368631504476070404052734375">
        <ele>997.20001220703125</ele>
        <time>2026-08-22T02:46:11.000Z</time>
        <extensions>
          <ns3:TrackPointExtension>
            <ns3:hr>123</ns3:hr>
            <ns3:cad>0</ns3:cad>
          </ns3:TrackPointExtension>
        </extensions>
      </trkpt>
      <trkpt lat="45.242520980536937713623046875" lon="-71.14368631504476070404052734375">
        <ele>997.20001220703125</ele>
        <time>2026-08-22T02:46:12.000Z</time>
        <extensions>
          <ns3:TrackPointExtension>
            <ns3:hr>124</ns3:hr>
            <ns3:cad>0</ns3:cad>
          </ns3:TrackPointExtension>
        </extensions>
      </trkpt>
      <trkpt lat="45.24252156727015972137451171875" lon="-71.14368715323507785797119140625">
        <ele>997.20001220703125</ele>
        <time>2026-08-22T02:46:13.000Z</time>
        <extensions>
          <ns3:TrackPointExtension>
            <ns3:hr>124</ns3:hr>
            <ns3:cad>0</ns3:cad>
          </ns3:TrackPointExtension>
        </extensions>
      </trkpt>
      <trkpt lat="45.2425248362123966217041015625" lon="-71.1436855606734752655029296875">
        <ele>997.20001220703125</ele>
        <time>2026-08-22T02:46:14.000Z</time>
        <extensions>
          <ns3:TrackPointExtension>
            <ns3:hr>123</ns3:hr>
            <ns3:cad>0</ns3:cad>
          </ns3:TrackPointExtension>
        </extensions>
      </trkpt>
      <trkpt lat="45.2425281889736652374267578125" lon="-71.14368195645511150360107421875">
        <ele>997.20001220703125</ele>
        <time>2026-08-22T02:46:15.000Z</time>
        <extensions>
          <ns3:TrackPointExtension>
            <ns3:hr>122</ns3:hr>
            <ns3:cad>0</ns3:cad>
          </ns3:TrackPointExtension>
        </extensions>
      </trkpt>
      <trkpt lat="45.24253531359136104583740234375" lon="-71.1436723172664642333984375">
        <ele>997.4000244140625</ele>
        <time>2026-08-22T02:46:16.000Z</time>
        <extensions>
          <ns3:TrackPointExtension>
            <ns3:hr>121</ns3:hr>
            <ns3:cad>0</ns3:cad>
          </ns3:TrackPointExtension>
        </extensions>
      </trkpt>
      <trkpt lat="45.242541767656803131103515625" lon="-71.14366091787815093994140625">
        <ele>997.4000244140625</ele>
        <time>2026-08-22T02:46:17.000Z</time>
        <extensions>
          <ns3:TrackPointExtension>
            <ns3:hr>120</ns3:hr>
            <ns3:cad>41</ns3:cad>
          </ns3:TrackPointExtension>
        </extensions>
      </trkpt>
      <trkpt lat="45.24254738353192806243896484375" lon="-71.14365194924175739288330078125">
        <ele>997.5999755859375</ele>
        <time>2026-08-22T02:46:18.000Z</time>
        <extensions>
          <ns3:TrackPointExtension>
            <ns3:hr>119</ns3:hr>
            <ns3:cad>41</ns3:cad>
          </ns3:TrackPointExtension>
        </extensions>
      </trkpt>
      <trkpt lat="45.24255216121673583984375" lon="-71.1436500214040279388427734375">
        <ele>997.79998779296875</ele>
        <time>2026-08-22T02:46:19.000Z</time>
        <extensions>
          <ns3:TrackPointExtension>
            <ns3:hr>118</ns3:hr>
            <ns3:cad>41</ns3:cad>
          </ns3:TrackPointExtension>
        </extensions>
      </trkpt>
      <trkpt lat="45.24256280623376369476318359375" lon="-71.14365748129785060882568359375">
        <ele>997.79998779296875</ele>
        <time>2026-08-22T02:46:20.000Z</time>
        <extensions>
          <ns3:TrackPointExtension>
            <ns3:hr>118</ns3:hr>
            <ns3:cad>41</ns3:cad>
          </ns3:TrackPointExtension>
        </extensions>
      </trkpt>
      <trkpt lat="45.24256967939436435699462890625" lon="-71.14366133697330951690673828125">
        <ele>997.79998779296875</ele>
        <time>2026-08-22T02:46:21.000Z</time>
        <extensions>
          <ns3:TrackPointExtension>
            <ns3:hr>118</ns3:hr>
            <ns3:cad>47</ns3:cad>
          </ns3:TrackPointExtension>
        </extensions>
      </trkpt>
      <trkpt lat="45.24258091114461421966552734375" lon="-71.14366628229618072509765625">
        <ele>997.79998779296875</ele>
        <time>2026-08-22T02:46:22.000Z</time>
        <extensions>
          <ns3:TrackPointExtension>
            <ns3:hr>118</ns3:hr>
            <ns3:cad>47</ns3:cad>
          </ns3:TrackPointExtension>
        </extensions>
      </trkpt>
      <trkpt lat="45.2425942383706569671630859375" lon="-71.14367139525711536407470703125">
        <ele>997.79998779296875</ele>
        <time>2026-08-22T02:46:23.000Z</time>
        <extensions>
          <ns3:TrackPointExtension>
            <ns3:hr>118</ns3:hr>
            <ns3:cad>47</ns3:cad>
          </ns3:TrackPointExtension>
        </extensions>
      </trkpt>
      <trkpt lat="45.242611505091190338134765625" lon="-71.1436641030013561248779296875">
        <ele>997.5999755859375</ele>
        <time>2026-08-22T02:46:24.000Z</time>
        <extensions>
          <ns3:TrackPointExtension>
            <ns3:hr>119</ns3:hr>
            <ns3:cad>47</ns3:cad>
          </ns3:TrackPointExtension>
        </extensions>
      </trkpt>
      <trkpt lat="45.2426281012594699859619140625" lon="-71.14364993758499622344970703125">
        <ele>997.4000244140625</ele>
        <time>2026-08-22T02:46:25.000Z</time>
        <extensions>
          <ns3:TrackPointExtension>
            <ns3:hr>119</ns3:hr>
            <ns3:cad>47</ns3:cad>
          </ns3:TrackPointExtension>
        </extensions>
      </trkpt>
      <trkpt lat="45.24263732135295867919921875" lon="-71.14364591427147388458251953125">
        <ele>997.4000244140625</ele>
        <time>2026-08-22T02:46:26.000Z</time>
        <extensions>
          <ns3:TrackPointExtension>
            <ns3:hr>120</ns3:hr>
            <ns3:cad>47</ns3:cad>
          </ns3:TrackPointExtension>
        </extensions>
      </trkpt>
      <trkpt lat="45.24264595471322536468505859375" lon="-71.14365094341337680816650390625">
        <ele>997.20001220703125</ele>
        <time>2026-08-22T02:46:27.000Z</time>
        <extensions>
          <ns3:TrackPointExtension>
            <ns3:hr>120</ns3:hr>
            <ns3:cad>0</ns3:cad>
          </ns3:TrackPointExtension>
        </extensions>
      </trkpt>
      <trkpt lat="45.2426500618457794189453125" lon="-71.143658570945262908935546875">
        <ele>997</ele>
        <time>2026-08-22T02:46:28.000Z</time>
        <extensions>
          <ns3:TrackPointExtension>
            <ns3:hr>120</ns3:hr>
            <ns3:cad>0</ns3:cad>
          </ns3:TrackPointExtension>
        </extensions>
      </trkpt>
      <trkpt lat="45.2426542527973651885986328125" lon="-71.14366183988749980926513671875">
        <ele>997</ele>
        <time>2026-08-22T02:46:29.000Z</time>
        <extensions>
          <ns3:TrackPointExtension>
            <ns3:hr>119</ns3:hr>
            <ns3:cad>53</ns3:cad>
          </ns3:TrackPointExtension>
        </extensions>
      </trkpt>
      <trkpt lat="45.24265743792057037353515625" lon="-71.14367323927581310272216796875">
        <ele>997</ele>
        <time>2026-08-22T02:46:30.000Z</time>
        <extensions>
          <ns3:TrackPointExtension>
            <ns3:hr>120</ns3:hr>
            <ns3:cad>53</ns3:cad>
          </ns3:TrackPointExtension>
        </extensions>
      </trkpt>
      <trkpt lat="45.24265936575829982757568359375" lon="-71.143682710826396942138671875">
        <ele>996.79998779296875</ele>
        <time>2026-08-22T02:46:31.000Z</time>
        <extensions>
          <ns3:TrackPointExtension>
            <ns3:hr>121</ns3:hr>
            <ns3:cad>53</ns3:cad>
          </ns3:TrackPointExtension>
        </extensions>
      </trkpt>
      <trkpt lat="45.24266171269118785858154296875" lon="-71.1436939425766468048095703125">
        <ele>996.5999755859375</ele>
        <time>2026-08-22T02:46:32.000Z</time>
        <extensions>
          <ns3:TrackPointExtension>
            <ns3:hr>121</ns3:hr>
            <ns3:cad>53</ns3:cad>
          </ns3:TrackPointExtension>
        </extensions>
      </trkpt>
      <trkpt lat="45.24266875348985195159912109375" lon="-71.1436999775469303131103515625">
        <ele>996.4000244140625</ele>
        <time>2026-08-22T02:46:33.000Z</time>
        <extensions>
          <ns3:TrackPointExtension>
            <ns3:hr>122</ns3:hr>
            <ns3:cad>0</ns3:cad>
          </ns3:TrackPointExtension>
        </extensions>
      </trkpt>
      <trkpt lat="45.2426780574023723602294921875" lon="-71.1437097005546092987060546875">
        <ele>996.20001220703125</ele>
        <time>2026-08-22T02:46:34.000Z</time>
        <extensions>
          <ns3:TrackPointExtension>
            <ns3:hr>122</ns3:hr>
            <ns3:cad>0</ns3:cad>
          </ns3:TrackPointExtension>
        </extensions>
      </trkpt>
      <trkpt lat="45.24268367327749729156494140625" lon="-71.14372151903808116912841796875">
        <ele>995.79998779296875</ele>
        <time>2026-08-22T02:46:35.000Z</time>
        <extensions>
          <ns3:TrackPointExtension>
            <ns3:hr>121</ns3:hr>
            <ns3:cad>0</ns3:cad>
          </ns3:TrackPointExtension>
        </extensions>
      </trkpt>
      <trkpt lat="45.2426894567906856536865234375" lon="-71.14373375661671161651611328125">
        <ele>995.5999755859375</ele>
        <time>2026-08-22T02:46:36.000Z</time>
        <extensions>
          <ns3:TrackPointExtension>
            <ns3:hr>121</ns3:hr>
            <ns3:cad>0</ns3:cad>
          </ns3:TrackPointExtension>
        </extensions>
      </trkpt>
      <trkpt lat="45.24269892834126949310302734375" lon="-71.14374213851988315582275390625">
        <ele>995.4000244140625</ele>
        <time>2026-08-22T02:46:37.000Z</time>
        <extensions>
          <ns3:TrackPointExtension>
            <ns3:hr>122</ns3:hr>
            <ns3:cad>0</ns3:cad>
          </ns3:TrackPointExtension>
        </extensions>
      </trkpt>
      <trkpt lat="45.2427112497389316558837890625" lon="-71.1437393724918365478515625">
        <ele>995.20001220703125</ele>
        <time>2026-08-22T02:46:38.000Z</time>
        <extensions>
          <ns3:TrackPointExtension>
            <ns3:hr>122</ns3:hr>
            <ns3:cad>0</ns3:cad>
          </ns3:TrackPointExtension>
        </extensions>
      </trkpt>
      <trkpt lat="45.2427224814891815185546875" lon="-71.14374138414859771728515625">
        <ele>995</ele>
        <time>2026-08-22T02:46:39.000Z</time>
        <extensions>
          <ns3:TrackPointExtension>
            <ns3:hr>122</ns3:hr>
            <ns3:cad>0</ns3:cad>
          </ns3:TrackPointExtension>
        </extensions>
      </trkpt>
      <trkpt lat="45.242735557258129119873046875" lon="-71.14374565891921520233154296875">
        <ele>994.5999755859375</ele>
        <time>2026-08-22T02:46:40.000Z</time>
        <extensions>
          <ns3:TrackPointExtension>
            <ns3:hr>121</ns3:hr>
            <ns3:cad>0</ns3:cad>
          </ns3:TrackPointExtension>
        </extensions>
      </trkpt>
      <trkpt lat="45.24274326860904693603515625" lon="-71.14374850876629352569580078125">
        <ele>994.4000244140625</ele>
        <time>2026-08-22T02:46:41.000Z</time>
        <extensions>
          <ns3:TrackPointExtension>
            <ns3:hr>120</ns3:hr>
            <ns3:cad>0</ns3:cad>
          </ns3:TrackPointExtension>
        </extensions>
      </trkpt>
      <trkpt lat="45.2427541650831699371337890625" lon="-71.14374943077564239501953125">
        <ele>994.20001220703125</ele>
        <time>2026-08-22T02:46:42.000Z</time>
        <extensions>
          <ns3:TrackPointExtension>
            <ns3:hr>120</ns3:hr>
            <ns3:cad>0</ns3:cad>
          </ns3:TrackPointExtension>
        </extensions>
      </trkpt>
      <trkpt lat="45.2427675761282444000244140625" lon="-71.14375211298465728759765625">
        <ele>994</ele>
        <time>2026-08-22T02:46:43.000Z</time>
        <extensions>
          <ns3:TrackPointExtension>
            <ns3:hr>120</ns3:hr>
            <ns3:cad>0</ns3:cad>
          </ns3:TrackPointExtension>
        </extensions>
      </trkpt>
      <trkpt lat="45.24277746677398681640625" lon="-71.1437556333839893341064453125">
        <ele>993.5999755859375</ele>
        <time>2026-08-22T02:46:44.000Z</time>
        <extensions>
          <ns3:TrackPointExtension>
            <ns3:hr>120</ns3:hr>
            <ns3:cad>0</ns3:cad>
          </ns3:TrackPointExtension>
        </extensions>
      </trkpt>
      <trkpt lat="45.242785178124904632568359375" lon="-71.1437509395182132720947265625">
        <ele>993.4000244140625</ele>
        <time>2026-08-22T02:46:45.000Z</time>
        <extensions>
          <ns3:TrackPointExtension>
            <ns3:hr>120</ns3:hr>
            <ns3:cad>0</ns3:cad>
          </ns3:TrackPointExtension>
        </extensions>
      </trkpt>
      <trkpt lat="45.24279682897031307220458984375" lon="-71.14374565891921520233154296875">
        <ele>993</ele>
        <time>2026-08-22T02:46:46.000Z</time>
        <extensions>
          <ns3:TrackPointExtension>
            <ns3:hr>120</ns3:hr>
            <ns3:cad>0</ns3:cad>
          </ns3:TrackPointExtension>
        </extensions>
      </trkpt>
      <trkpt lat="45.2428051270544528961181640625" lon="-71.14374029450118541717529296875">
        <ele>992.79998779296875</ele>
        <time>2026-08-22T02:46:47.000Z</time>
        <extensions>
          <ns3:TrackPointExtension>
            <ns3:hr>120</ns3:hr>
            <ns3:cad>0</ns3:cad>
          </ns3:TrackPointExtension>
        </extensions>
      </trkpt>
      <trkpt lat="45.24281292222440242767333984375" lon="-71.14373694173991680145263671875">
        <ele>992.5999755859375</ele>
        <time>2026-08-22T02:46:48.000Z</time>
        <extensions>
          <ns3:TrackPointExtension>
            <ns3:hr>120</ns3:hr>
            <ns3:cad>0</ns3:cad>
          </ns3:TrackPointExtension>
        </extensions>
      </trkpt>
      <trkpt lat="45.24281845428049564361572265625" lon="-71.14373601973056793212890625">
        <ele>992.4000244140625</ele>
        <time>2026-08-22T02:46:49.000Z</time>
        <extensions>
          <ns3:TrackPointExtension>
            <ns3:hr>121</ns3:hr>
            <ns3:cad>0</ns3:cad>
          </ns3:TrackPointExtension>
        </extensions>
      </trkpt>
      <trkpt lat="45.24282465688884258270263671875" lon="-71.14373610354959964752197265625">
        <ele>992.20001220703125</ele>
        <time>2026-08-22T02:46:50.000Z</time>
        <extensions>
          <ns3:TrackPointExtension>
            <ns3:hr>121</ns3:hr>
            <ns3:cad>0</ns3:cad>
          </ns3:TrackPointExtension>
        </extensions>
      </trkpt>
      <trkpt lat="45.24283454753458499908447265625" lon="-71.14373526535928249359130859375">
        <ele>991.79998779296875</ele>
        <time>2026-08-22T02:46:51.000Z</time>
        <extensions>
          <ns3:TrackPointExtension>
            <ns3:hr>121</ns3:hr>
            <ns3:cad>0</ns3:cad>
          </ns3:TrackPointExtension>
        </extensions>
      </trkpt>
      <trkpt lat="45.2428456954658031463623046875" lon="-71.1437331698834896087646484375">
        <ele>991.5999755859375</ele>
        <time>2026-08-22T02:46:52.000Z</time>
        <extensions>
          <ns3:TrackPointExtension>
            <ns3:hr>121</ns3:hr>
            <ns3:cad>0</ns3:cad>
          </ns3:TrackPointExtension>
        </extensions>
      </trkpt>
      <trkpt lat="45.24285432882606983184814453125" lon="-71.14372906275093555450439453125">
        <ele>991.20001220703125</ele>
        <time>2026-08-22T02:46:53.000Z</time>
        <extensions>
          <ns3:TrackPointExtension>
            <ns3:hr>120</ns3:hr>
            <ns3:cad>0</ns3:cad>
          </ns3:TrackPointExtension>
        </extensions>
      </trkpt>
      <trkpt lat="45.24286170490086078643798828125" lon="-71.1437271349132061004638671875">
        <ele>990.79998779296875</ele>
        <time>2026-08-22T02:46:54.000Z</time>
        <extensions>
          <ns3:TrackPointExtension>
            <ns3:hr>119</ns3:hr>
            <ns3:cad>0</ns3:cad>
          </ns3:TrackPointExtension>
        </extensions>
      </trkpt>
      <trkpt lat="45.24286841042339801788330078125" lon="-71.143728308379650115966796875">
        <ele>990.4000244140625</ele>
        <time>2026-08-22T02:46:55.000Z</time>
        <extensions>
          <ns3:TrackPointExtension>
            <ns3:hr>119</ns3:hr>
            <ns3:cad>0</ns3:cad>
          </ns3:TrackPointExtension>
        </extensions>
      </trkpt>
      <trkpt lat="45.24287478066980838775634765625" lon="-71.14373140968382358551025390625">
        <ele>990.20001220703125</ele>
        <time>2026-08-22T02:46:56.000Z</time>
        <extensions>
          <ns3:TrackPointExtension>
            <ns3:hr>119</ns3:hr>
            <ns3:cad>0</ns3:cad>
          </ns3:TrackPointExtension>
        </extensions>
      </trkpt>
      <trkpt lat="45.2428762055933475494384765625" lon="-71.14373601973056793212890625">
        <ele>989.79998779296875</ele>
        <time>2026-08-22T02:46:57.000Z</time>
        <extensions>
          <ns3:TrackPointExtension>
            <ns3:hr>119</ns3:hr>
            <ns3:cad>0</ns3:cad>
          </ns3:TrackPointExtension>
        </extensions>
      </trkpt>
      <trkpt lat="45.24287561886012554168701171875" lon="-71.14374465309083461761474609375">
        <ele>989.4000244140625</ele>
        <time>2026-08-22T02:46:58.000Z</time>
        <extensions>
          <ns3:TrackPointExtension>
            <ns3:hr>118</ns3:hr>
            <ns3:cad>0</ns3:cad>
          </ns3:TrackPointExtension>
        </extensions>
      </trkpt>
      <trkpt lat="45.24287695996463298797607421875" lon="-71.1437549628317356109619140625">
        <ele>989</ele>
        <time>2026-08-22T02:46:59.000Z</time>
        <extensions>
          <ns3:TrackPointExtension>
            <ns3:hr>118</ns3:hr>
            <ns3:cad>0</ns3:cad>
          </ns3:TrackPointExtension>
        </extensions>
      </trkpt>
      <trkpt lat="45.2428819052875041961669921875" lon="-71.143761165440082550048828125">
        <ele>988.79998779296875</ele>
        <time>2026-08-22T02:47:00.000Z</time>
        <extensions>
          <ns3:TrackPointExtension>
            <ns3:hr>117</ns3:hr>
            <ns3:cad>0</ns3:cad>
          </ns3:TrackPointExtension>
        </extensions>
      </trkpt>
      <trkpt lat="45.24288618005812168121337890625" lon="-71.14376845769584178924560546875">
        <ele>988.4000244140625</ele>
        <time>2026-08-22T02:47:01.000Z</time>
        <extensions>
          <ns3:TrackPointExtension>
            <ns3:hr>117</ns3:hr>
            <ns3:cad>0</ns3:cad>
          </ns3:TrackPointExtension>
        </extensions>
      </trkpt>
      <trkpt lat="45.24288802407681941986083984375" lon="-71.1437760852277278900146484375">
        <ele>988</ele>
        <time>2026-08-22T02:47:02.000Z</time>
        <extensions>
          <ns3:TrackPointExtension>
            <ns3:hr>116</ns3:hr>
            <ns3:cad>0</ns3:cad>
          </ns3:TrackPointExtension>
        </extensions>
      </trkpt>
      <trkpt lat="45.24288081564009189605712890625" lon="-71.14378237165510654449462890625">
        <ele>987.79998779296875</ele>
        <time>2026-08-22T02:47:03.000Z</time>
        <extensions>
          <ns3:TrackPointExtension>
            <ns3:hr>116</ns3:hr>
            <ns3:cad>0</ns3:cad>
          </ns3:TrackPointExtension>
        </extensions>
      </trkpt>
      <trkpt lat="45.24287058971822261810302734375" lon="-71.14379368722438812255859375">
        <ele>987.79998779296875</ele>
        <time>2026-08-22T02:47:04.000Z</time>
        <extensions>
          <ns3:TrackPointExtension>
            <ns3:hr>115</ns3:hr>
            <ns3:cad>0</ns3:cad>
          </ns3:TrackPointExtension>
        </extensions>
      </trkpt>
      <trkpt lat="45.2428681589663028717041015625" lon="-71.14380852319300174713134765625">
        <ele>987.5999755859375</ele>
        <time>2026-08-22T02:47:05.000Z</time>
        <extensions>
          <ns3:TrackPointExtension>
            <ns3:hr>115</ns3:hr>
            <ns3:cad>0</ns3:cad>
          </ns3:TrackPointExtension>
        </extensions>
      </trkpt>
      <trkpt lat="45.24286237545311450958251953125" lon="-71.1438270471990108489990234375">
        <ele>987.5999755859375</ele>
        <time>2026-08-22T02:47:06.000Z</time>
        <extensions>
          <ns3:TrackPointExtension>
            <ns3:hr>115</ns3:hr>
            <ns3:cad>0</ns3:cad>
          </ns3:TrackPointExtension>
        </extensions>
      </trkpt>
      <trkpt lat="45.24285592138767242431640625" lon="-71.14384322427213191986083984375">
        <ele>987.5999755859375</ele>
        <time>2026-08-22T02:47:07.000Z</time>
        <extensions>
          <ns3:TrackPointExtension>
            <ns3:hr>115</ns3:hr>
            <ns3:cad>0</ns3:cad>
          </ns3:TrackPointExtension>
        </extensions>
      </trkpt>
      <trkpt lat="45.24285458028316497802734375" lon="-71.1438555456697940826416015625">
        <ele>987.5999755859375</ele>
        <time>2026-08-22T02:47:08.000Z</time>
        <extensions>
          <ns3:TrackPointExtension>
            <ns3:hr>115</ns3:hr>
            <ns3:cad>0</ns3:cad>
          </ns3:TrackPointExtension>
        </extensions>
      </trkpt>
      <trkpt lat="45.24285986088216304779052734375" lon="-71.14387817680835723876953125">
        <ele>987.5999755859375</ele>
        <time>2026-08-22T02:47:09.000Z</time>
        <extensions>
          <ns3:TrackPointExtension>
            <ns3:hr>115</ns3:hr>
            <ns3:cad>0</ns3:cad>
          </ns3:TrackPointExtension>
        </extensions>
      </trkpt>
      <trkpt lat="45.24286606349050998687744140625" lon="-71.14389351569116115570068359375">
        <ele>987.4000244140625</ele>
        <time>2026-08-22T02:47:10.000Z</time>
        <extensions>
          <ns3:TrackPointExtension>
            <ns3:hr>115</ns3:hr>
            <ns3:cad>0</ns3:cad>
          </ns3:TrackPointExtension>
        </extensions>
      </trkpt>
      <trkpt lat="45.2428721822798252105712890625" lon="-71.14392067305743694305419921875">
        <ele>987.20001220703125</ele>
        <time>2026-08-22T02:47:11.000Z</time>
        <extensions>
          <ns3:TrackPointExtension>
            <ns3:hr>115</ns3:hr>
            <ns3:cad>0</ns3:cad>
          </ns3:TrackPointExtension>
        </extensions>
      </trkpt>
      <trkpt lat="45.24288400076329708099365234375" lon="-71.1439453996717929840087890625">
        <ele>986.79998779296875</ele>
        <time>2026-08-22T02:47:12.000Z</time>
        <extensions>
          <ns3:TrackPointExtension>
            <ns3:hr>115</ns3:hr>
            <ns3:cad>0</ns3:cad>
          </ns3:TrackPointExtension>
        </extensions>
      </trkpt>
      <trkpt lat="45.2428936399519443511962890625" lon="-71.1439578048884868621826171875">
        <ele>986.4000244140625</ele>
        <time>2026-08-22T02:47:13.000Z</time>
        <extensions>
          <ns3:TrackPointExtension>
            <ns3:hr>115</ns3:hr>
            <ns3:cad>0</ns3:cad>
          </ns3:TrackPointExtension>
        </extensions>
      </trkpt>
      <trkpt lat="45.24290529079735279083251953125" lon="-71.1439715512096881866455078125">
        <ele>986</ele>
        <time>2026-08-22T02:47:14.000Z</time>
        <extensions>
          <ns3:TrackPointExtension>
            <ns3:hr>115</ns3:hr>
            <ns3:cad>0</ns3:cad>
          </ns3:TrackPointExtension>
        </extensions>
      </trkpt>
      <trkpt lat="45.2429161034524440765380859375" lon="-71.14398135803639888763427734375">
        <ele>985.5999755859375</ele>
        <time>2026-08-22T02:47:15.000Z</time>
        <extensions>
          <ns3:TrackPointExtension>
            <ns3:hr>115</ns3:hr>
            <ns3:cad>0</ns3:cad>
          </ns3:TrackPointExtension>
        </extensions>
      </trkpt>
      <trkpt lat="45.2429244853556156158447265625" lon="-71.1439915001392364501953125">
        <ele>985.20001220703125</ele>
        <time>2026-08-22T02:47:16.000Z</time>
        <extensions>
          <ns3:TrackPointExtension>
            <ns3:hr>114</ns3:hr>
            <ns3:cad>0</ns3:cad>
          </ns3:TrackPointExtension>
        </extensions>
      </trkpt>
      <trkpt lat="45.2429397404193878173828125" lon="-71.144002564251422882080078125">
        <ele>984.79998779296875</ele>
        <time>2026-08-22T02:47:17.000Z</time>
        <extensions>
          <ns3:TrackPointExtension>
            <ns3:hr>114</ns3:hr>
            <ns3:cad>0</ns3:cad>
          </ns3:TrackPointExtension>
        </extensions>
      </trkpt>
      <trkpt lat="45.24295139126479625701904296875" lon="-71.144009269773960113525390625">
        <ele>984.4000244140625</ele>
        <time>2026-08-22T02:47:18.000Z</time>
        <extensions>
          <ns3:TrackPointExtension>
            <ns3:hr>114</ns3:hr>
            <ns3:cad>0</ns3:cad>
          </ns3:TrackPointExtension>
        </extensions>
      </trkpt>
      <trkpt lat="45.24296480230987071990966796875" lon="-71.14401974715292453765869140625">
        <ele>984</ele>
        <time>2026-08-22T02:47:19.000Z</time>
        <extensions>
          <ns3:TrackPointExtension>
            <ns3:hr>114</ns3:hr>
            <ns3:cad>0</ns3:cad>
          </ns3:TrackPointExtension>
        </extensions>
      </trkpt>
      <trkpt lat="45.2429791353642940521240234375" lon="-71.14402930252254009246826171875">
        <ele>983.5999755859375</ele>
        <time>2026-08-22T02:47:20.000Z</time>
        <extensions>
          <ns3:TrackPointExtension>
            <ns3:hr>115</ns3:hr>
            <ns3:cad>0</ns3:cad>
          </ns3:TrackPointExtension>
        </extensions>
      </trkpt>
      <trkpt lat="45.24298978038132190704345703125" lon="-71.14403449930250644683837890625">
        <ele>983.20001220703125</ele>
        <time>2026-08-22T02:47:21.000Z</time>
        <extensions>
          <ns3:TrackPointExtension>
            <ns3:hr>115</ns3:hr>
            <ns3:cad>0</ns3:cad>
          </ns3:TrackPointExtension>
        </extensions>
      </trkpt>
      <trkpt lat="45.24300050921738147735595703125" lon="-71.14404045045375823974609375">
        <ele>982.79998779296875</ele>
        <time>2026-08-22T02:47:22.000Z</time>
        <extensions>
          <ns3:TrackPointExtension>
            <ns3:hr>115</ns3:hr>
            <ns3:cad>0</ns3:cad>
          </ns3:TrackPointExtension>
        </extensions>
      </trkpt>
      <trkpt lat="45.24300838820636272430419921875" lon="-71.1440473236143589019775390625">
        <ele>982.4000244140625</ele>
        <time>2026-08-22T02:47:23.000Z</time>
        <extensions>
          <ns3:TrackPointExtension>
            <ns3:hr>116</ns3:hr>
            <ns3:cad>0</ns3:cad>
          </ns3:TrackPointExtension>
        </extensions>
      </trkpt>
      <trkpt lat="45.243013836443424224853515625" lon="-71.1440587230026721954345703125">
        <ele>982.20001220703125</ele>
        <time>2026-08-22T02:47:24.000Z</time>
        <extensions>
          <ns3:TrackPointExtension>
            <ns3:hr>116</ns3:hr>
            <ns3:cad>0</ns3:cad>
          </ns3:TrackPointExtension>
        </extensions>
      </trkpt>
      <trkpt lat="45.24302129633724689483642578125" lon="-71.1440692842006683349609375">
        <ele>981.79998779296875</ele>
        <time>2026-08-22T02:47:25.000Z</time>
        <extensions>
          <ns3:TrackPointExtension>
            <ns3:hr>117</ns3:hr>
            <ns3:cad>0</ns3:cad>
          </ns3:TrackPointExtension>
        </extensions>
      </trkpt>
      <trkpt lat="45.243029929697513580322265625" lon="-71.14408546127378940582275390625">
        <ele>981.4000244140625</ele>
        <time>2026-08-22T02:47:26.000Z</time>
        <extensions>
          <ns3:TrackPointExtension>
            <ns3:hr>117</ns3:hr>
            <ns3:cad>0</ns3:cad>
          </ns3:TrackPointExtension>
        </extensions>
      </trkpt>
      <trkpt lat="45.24303319863975048065185546875" lon="-71.14410616457462310791015625">
        <ele>981</ele>
        <time>2026-08-22T02:47:27.000Z</time>
        <extensions>
          <ns3:TrackPointExtension>
            <ns3:hr>117</ns3:hr>
            <ns3:cad>0</ns3:cad>
          </ns3:TrackPointExtension>
        </extensions>
      </trkpt>
      <trkpt lat="45.243037976324558258056640625" lon="-71.14412653259932994842529296875">
        <ele>980.79998779296875</ele>
        <time>2026-08-22T02:47:28.000Z</time>
        <extensions>
          <ns3:TrackPointExtension>
            <ns3:hr>117</ns3:hr>
            <ns3:cad>0</ns3:cad>
          </ns3:TrackPointExtension>
        </extensions>
      </trkpt>
      <trkpt lat="45.24304493330419063568115234375" lon="-71.14414681680500507354736328125">
        <ele>980.5999755859375</ele>
        <time>2026-08-22T02:47:29.000Z</time>
        <extensions>
          <ns3:TrackPointExtension>
            <ns3:hr>118</ns3:hr>
            <ns3:cad>0</ns3:cad>
          </ns3:TrackPointExtension>
        </extensions>
      </trkpt>
      <trkpt lat="45.2430523931980133056640625" lon="-71.1441631615161895751953125">
        <ele>980.4000244140625</ele>
        <time>2026-08-22T02:47:30.000Z</time>
        <extensions>
          <ns3:TrackPointExtension>
            <ns3:hr>118</ns3:hr>
            <ns3:cad>0</ns3:cad>
          </ns3:TrackPointExtension>
        </extensions>
      </trkpt>
      <trkpt lat="45.24305197410285472869873046875" lon="-71.14417933858931064605712890625">
        <ele>980.20001220703125</ele>
        <time>2026-08-22T02:47:31.000Z</time>
        <extensions>
          <ns3:TrackPointExtension>
            <ns3:hr>118</ns3:hr>
            <ns3:cad>0</ns3:cad>
          </ns3:TrackPointExtension>
        </extensions>
      </trkpt>
      <trkpt lat="45.243046693503856658935546875" lon="-71.14419224672019481658935546875">
        <ele>980.20001220703125</ele>
        <time>2026-08-22T02:47:32.000Z</time>
        <extensions>
          <ns3:TrackPointExtension>
            <ns3:hr>118</ns3:hr>
            <ns3:cad>0</ns3:cad>
          </ns3:TrackPointExtension>
        </extensions>
      </trkpt>
      <trkpt lat="45.2430425025522708892822265625" lon="-71.14421001635491847991943359375">
        <ele>980.20001220703125</ele>
        <time>2026-08-22T02:47:33.000Z</time>
        <extensions>
          <ns3:TrackPointExtension>
            <ns3:hr>119</ns3:hr>
            <ns3:cad>75</ns3:cad>
          </ns3:TrackPointExtension>
        </extensions>
      </trkpt>
      <trkpt lat="45.24304057471454143524169921875" lon="-71.14422619342803955078125">
        <ele>980.20001220703125</ele>
        <time>2026-08-22T02:47:34.000Z</time>
        <extensions>
          <ns3:TrackPointExtension>
            <ns3:hr>119</ns3:hr>
            <ns3:cad>75</ns3:cad>
          </ns3:TrackPointExtension>
        </extensions>
      </trkpt>
      <trkpt lat="45.2430403232574462890625" lon="-71.14424807019531726837158203125">
        <ele>980.20001220703125</ele>
        <time>2026-08-22T02:47:35.000Z</time>
        <extensions>
          <ns3:TrackPointExtension>
            <ns3:hr>119</ns3:hr>
            <ns3:cad>0</ns3:cad>
          </ns3:TrackPointExtension>
        </extensions>
      </trkpt>
      <trkpt lat="45.24304308928549289703369140625" lon="-71.14427246153354644775390625">
        <ele>980.20001220703125</ele>
        <time>2026-08-22T02:47:36.000Z</time>
        <extensions>
          <ns3:TrackPointExtension>
            <ns3:hr>119</ns3:hr>
            <ns3:cad>0</ns3:cad>
          </ns3:TrackPointExtension>
        </extensions>
      </trkpt>
      <trkpt lat="45.243046693503856658935546875" lon="-71.1442944221198558807373046875">
        <ele>980.20001220703125</ele>
        <time>2026-08-22T02:47:37.000Z</time>
        <extensions>
          <ns3:TrackPointExtension>
            <ns3:hr>118</ns3:hr>
            <ns3:cad>0</ns3:cad>
          </ns3:TrackPointExtension>
        </extensions>
      </trkpt>
      <trkpt lat="45.2430582605302333831787109375" lon="-71.14431093446910381317138671875">
        <ele>980.20001220703125</ele>
        <time>2026-08-22T02:47:38.000Z</time>
        <extensions>
          <ns3:TrackPointExtension>
            <ns3:hr>118</ns3:hr>
            <ns3:cad>0</ns3:cad>
          </ns3:TrackPointExtension>
        </extensions>
      </trkpt>
      <trkpt lat="45.24307091720402240753173828125" lon="-71.14432803355157375335693359375">
        <ele>979.79998779296875</ele>
        <time>2026-08-22T02:47:39.000Z</time>
        <extensions>
          <ns3:TrackPointExtension>
            <ns3:hr>117</ns3:hr>
            <ns3:cad>0</ns3:cad>
          </ns3:TrackPointExtension>
        </extensions>
      </trkpt>
      <trkpt lat="45.24308315478265285491943359375" lon="-71.1443473957479000091552734375">
        <ele>979.5999755859375</ele>
        <time>2026-08-22T02:47:40.000Z</time>
        <extensions>
          <ns3:TrackPointExtension>
            <ns3:hr>116</ns3:hr>
            <ns3:cad>0</ns3:cad>
          </ns3:TrackPointExtension>
        </extensions>
      </trkpt>
      <trkpt lat="45.2430872619152069091796875" lon="-71.144360639154911041259765625">
        <ele>979.20001220703125</ele>
        <time>2026-08-22T02:47:41.000Z</time>
        <extensions>
          <ns3:TrackPointExtension>
            <ns3:hr>116</ns3:hr>
            <ns3:cad>0</ns3:cad>
          </ns3:TrackPointExtension>
        </extensions>
      </trkpt>
      <trkpt lat="45.2430926263332366943359375" lon="-71.14437530748546123504638671875">
        <ele>979</ele>
        <time>2026-08-22T02:47:42.000Z</time>
        <extensions>
          <ns3:TrackPointExtension>
            <ns3:hr>116</ns3:hr>
            <ns3:cad>56</ns3:cad>
          </ns3:TrackPointExtension>
        </extensions>
      </trkpt>
      <trkpt lat="45.243098996579647064208984375" lon="-71.14439106546342372894287109375">
        <ele>978.5999755859375</ele>
        <time>2026-08-22T02:47:43.000Z</time>
        <extensions>
          <ns3:TrackPointExtension>
            <ns3:hr>117</ns3:hr>
            <ns3:cad>56</ns3:cad>
          </ns3:TrackPointExtension>
        </extensions>
      </trkpt>
      <trkpt lat="45.2431065402925014495849609375" lon="-71.14440581761300563812255859375">
        <ele>978.5999755859375</ele>
        <time>2026-08-22T02:47:44.000Z</time>
        <extensions>
          <ns3:TrackPointExtension>
            <ns3:hr>117</ns3:hr>
            <ns3:cad>56</ns3:cad>
          </ns3:TrackPointExtension>
        </extensions>
      </trkpt>
      <trkpt lat="45.2431152574717998504638671875" lon="-71.14442224614322185516357421875">
        <ele>978.4000244140625</ele>
        <time>2026-08-22T02:47:45.000Z</time>
        <extensions>
          <ns3:TrackPointExtension>
            <ns3:hr>117</ns3:hr>
            <ns3:cad>58</ns3:cad>
          </ns3:TrackPointExtension>
        </extensions>
      </trkpt>
      <trkpt lat="45.24312439374625682830810546875" lon="-71.1444382555782794952392578125">
        <ele>978.20001220703125</ele>
        <time>2026-08-22T02:47:46.000Z</time>
        <extensions>
          <ns3:TrackPointExtension>
            <ns3:hr>117</ns3:hr>
            <ns3:cad>58</ns3:cad>
          </ns3:TrackPointExtension>
        </extensions>
      </trkpt>
      <trkpt lat="45.2431274950504302978515625" lon="-71.14445325918495655059814453125">
        <ele>978</ele>
        <time>2026-08-22T02:47:47.000Z</time>
        <extensions>
          <ns3:TrackPointExtension>
            <ns3:hr>117</ns3:hr>
            <ns3:cad>58</ns3:cad>
          </ns3:TrackPointExtension>
        </extensions>
      </trkpt>
      <trkpt lat="45.2431343682110309600830078125" lon="-71.14446901716291904449462890625">
        <ele>977.79998779296875</ele>
        <time>2026-08-22T02:47:48.000Z</time>
        <extensions>
          <ns3:TrackPointExtension>
            <ns3:hr>117</ns3:hr>
            <ns3:cad>58</ns3:cad>
          </ns3:TrackPointExtension>
        </extensions>
      </trkpt>
      <trkpt lat="45.24314249865710735321044921875" lon="-71.14448561333119869232177734375">
        <ele>977.5999755859375</ele>
        <time>2026-08-22T02:47:49.000Z</time>
        <extensions>
          <ns3:TrackPointExtension>
            <ns3:hr>117</ns3:hr>
            <ns3:cad>58</ns3:cad>
          </ns3:TrackPointExtension>
        </extensions>
      </trkpt>
      <trkpt lat="45.2431450970470905303955078125" lon="-71.144501455128192901611328125">
        <ele>977.4000244140625</ele>
        <time>2026-08-22T02:47:50.000Z</time>
        <extensions>
          <ns3:TrackPointExtension>
            <ns3:hr>117</ns3:hr>
            <ns3:cad>58</ns3:cad>
          </ns3:TrackPointExtension>
        </extensions>
      </trkpt>
      <trkpt lat="45.2431434206664562225341796875" lon="-71.14451494999229907989501953125">
        <ele>977.20001220703125</ele>
        <time>2026-08-22T02:47:51.000Z</time>
        <extensions>
          <ns3:TrackPointExtension>
            <ns3:hr>118</ns3:hr>
            <ns3:cad>58</ns3:cad>
          </ns3:TrackPointExtension>
        </extensions>
      </trkpt>
      <trkpt lat="45.2431373856961727142333984375" lon="-71.14452115260064601898193359375">
        <ele>977.20001220703125</ele>
        <time>2026-08-22T02:47:52.000Z</time>
        <extensions>
          <ns3:TrackPointExtension>
            <ns3:hr>117</ns3:hr>
            <ns3:cad>58</ns3:cad>
          </ns3:TrackPointExtension>
        </extensions>
      </trkpt>
      <trkpt lat="45.24313193745911121368408203125" lon="-71.14453640766441822052001953125">
        <ele>977.20001220703125</ele>
        <time>2026-08-22T02:47:53.000Z</time>
        <extensions>
          <ns3:TrackPointExtension>
            <ns3:hr>117</ns3:hr>
            <ns3:cad>58</ns3:cad>
          </ns3:TrackPointExtension>
        </extensions>
      </trkpt>
      <trkpt lat="45.2431343682110309600830078125" lon="-71.14455082453787326812744140625">
        <ele>977.20001220703125</ele>
        <time>2026-08-22T02:47:54.000Z</time>
        <extensions>
          <ns3:TrackPointExtension>
            <ns3:hr>117</ns3:hr>
            <ns3:cad>67</ns3:cad>
          </ns3:TrackPointExtension>
        </extensions>
      </trkpt>
      <trkpt lat="45.24314082227647304534912109375" lon="-71.14456440322101116180419921875">
        <ele>977.20001220703125</ele>
        <time>2026-08-22T02:47:55.000Z</time>
        <extensions>
          <ns3:TrackPointExtension>
            <ns3:hr>116</ns3:hr>
            <ns3:cad>67</ns3:cad>
          </ns3:TrackPointExtension>
        </extensions>
      </trkpt>
      <trkpt lat="45.24314618669450283050537109375" lon="-71.1445789039134979248046875">
        <ele>977</ele>
        <time>2026-08-22T02:47:56.000Z</time>
        <extensions>
          <ns3:TrackPointExtension>
            <ns3:hr>116</ns3:hr>
            <ns3:cad>67</ns3:cad>
          </ns3:TrackPointExtension>
        </extensions>
      </trkpt>
      <trkpt lat="45.24315054528415203094482421875" lon="-71.14459223113954067230224609375">
        <ele>976.79998779296875</ele>
        <time>2026-08-22T02:47:57.000Z</time>
        <extensions>
          <ns3:TrackPointExtension>
            <ns3:hr>115</ns3:hr>
            <ns3:cad>67</ns3:cad>
          </ns3:TrackPointExtension>
        </extensions>
      </trkpt>
      <trkpt lat="45.24315624497830867767333984375" lon="-71.144611425697803497314453125">
        <ele>976.5999755859375</ele>
        <time>2026-08-22T02:47:58.000Z</time>
        <extensions>
          <ns3:TrackPointExtension>
            <ns3:hr>115</ns3:hr>
            <ns3:cad>67</ns3:cad>
          </ns3:TrackPointExtension>
        </extensions>
      </trkpt>
      <trkpt lat="45.24316211231052875518798828125" lon="-71.144632883369922637939453125">
        <ele>976.4000244140625</ele>
        <time>2026-08-22T02:47:59.000Z</time>
        <extensions>
          <ns3:TrackPointExtension>
            <ns3:hr>115</ns3:hr>
            <ns3:cad>67</ns3:cad>
          </ns3:TrackPointExtension>
        </extensions>
      </trkpt>
      <trkpt lat="45.24316839873790740966796875" lon="-71.144657693803310394287109375">
        <ele>976</ele>
        <time>2026-08-22T02:48:00.000Z</time>
        <extensions>
          <ns3:TrackPointExtension>
            <ns3:hr>116</ns3:hr>
            <ns3:cad>67</ns3:cad>
          </ns3:TrackPointExtension>
        </extensions>
      </trkpt>
      <trkpt lat="45.2431782893836498260498046875" lon="-71.14468418061733245849609375">
        <ele>975.5999755859375</ele>
        <time>2026-08-22T02:48:01.000Z</time>
        <extensions>
          <ns3:TrackPointExtension>
            <ns3:hr>116</ns3:hr>
            <ns3:cad>0</ns3:cad>
          </ns3:TrackPointExtension>
        </extensions>
      </trkpt>
      <trkpt lat="45.24318625219166278839111328125" lon="-71.14470790140330791473388671875">
        <ele>975.4000244140625</ele>
        <time>2026-08-22T02:48:02.000Z</time>
        <extensions>
          <ns3:TrackPointExtension>
            <ns3:hr>117</ns3:hr>
            <ns3:cad>0</ns3:cad>
          </ns3:TrackPointExtension>
        </extensions>
      </trkpt>
      <trkpt lat="45.24319413118064403533935546875" lon="-71.144733130931854248046875">
        <ele>975</ele>
        <time>2026-08-22T02:48:03.000Z</time>
        <extensions>
          <ns3:TrackPointExtension>
            <ns3:hr>118</ns3:hr>
            <ns3:cad>0</ns3:cad>
          </ns3:TrackPointExtension>
        </extensions>
      </trkpt>
      <trkpt lat="45.24319865740835666656494140625" lon="-71.144756935536861419677734375">
        <ele>974.79998779296875</ele>
        <time>2026-08-22T02:48:04.000Z</time>
        <extensions>
          <ns3:TrackPointExtension>
            <ns3:hr>119</ns3:hr>
            <ns3:cad>68</ns3:cad>
          </ns3:TrackPointExtension>
        </extensions>
      </trkpt>
      <trkpt lat="45.2432010881602764129638671875" lon="-71.14478300325572490692138671875">
        <ele>974.5999755859375</ele>
        <time>2026-08-22T02:48:05.000Z</time>
        <extensions>
          <ns3:TrackPointExtension>
            <ns3:hr>120</ns3:hr>
            <ns3:cad>68</ns3:cad>
          </ns3:TrackPointExtension>
        </extensions>
      </trkpt>
      <trkpt lat="45.2432091347873210906982421875" lon="-71.14480664022266864776611328125">
        <ele>974.4000244140625</ele>
        <time>2026-08-22T02:48:06.000Z</time>
        <extensions>
          <ns3:TrackPointExtension>
            <ns3:hr>121</ns3:hr>
            <ns3:cad>70</ns3:cad>
          </ns3:TrackPointExtension>
        </extensions>
      </trkpt>
      <trkpt lat="45.2432160079479217529296875" lon="-71.1448241584002971649169921875">
        <ele>974.20001220703125</ele>
        <time>2026-08-22T02:48:07.000Z</time>
        <extensions>
          <ns3:TrackPointExtension>
            <ns3:hr>122</ns3:hr>
            <ns3:cad>70</ns3:cad>
          </ns3:TrackPointExtension>
        </extensions>
      </trkpt>
      <trkpt lat="45.2432175166904926300048828125" lon="-71.1448389105498790740966796875">
        <ele>974</ele>
        <time>2026-08-22T02:48:08.000Z</time>
        <extensions>
          <ns3:TrackPointExtension>
            <ns3:hr>122</ns3:hr>
            <ns3:cad>72</ns3:cad>
          </ns3:TrackPointExtension>
        </extensions>
      </trkpt>
      <trkpt lat="45.24321491830050945281982421875" lon="-71.14485047757625579833984375">
        <ele>973.79998779296875</ele>
        <time>2026-08-22T02:48:09.000Z</time>
        <extensions>
          <ns3:TrackPointExtension>
            <ns3:hr>122</ns3:hr>
            <ns3:cad>72</ns3:cad>
          </ns3:TrackPointExtension>
        </extensions>
      </trkpt>
      <trkpt lat="45.24321340955793857574462890625" lon="-71.14486346952617168426513671875">
        <ele>973.5999755859375</ele>
        <time>2026-08-22T02:48:10.000Z</time>
        <extensions>
          <ns3:TrackPointExtension>
            <ns3:hr>122</ns3:hr>
            <ns3:cad>72</ns3:cad>
          </ns3:TrackPointExtension>
        </extensions>
      </trkpt>
      <trkpt lat="45.24321609176695346832275390625" lon="-71.14487193524837493896484375">
        <ele>973.5999755859375</ele>
        <time>2026-08-22T02:48:11.000Z</time>
        <extensions>
          <ns3:TrackPointExtension>
            <ns3:hr>122</ns3:hr>
            <ns3:cad>0</ns3:cad>
          </ns3:TrackPointExtension>
        </extensions>
      </trkpt>
      <trkpt lat="45.2432191930711269378662109375" lon="-71.14487520419061183929443359375">
        <ele>973.4000244140625</ele>
        <time>2026-08-22T02:48:12.000Z</time>
        <extensions>
          <ns3:TrackPointExtension>
            <ns3:hr>122</ns3:hr>
            <ns3:cad>0</ns3:cad>
          </ns3:TrackPointExtension>
        </extensions>
      </trkpt>
      <trkpt lat="45.24321927689015865325927734375" lon="-71.1448754556477069854736328125">
        <ele>973.20001220703125</ele>
        <time>2026-08-22T02:48:13.000Z</time>
        <extensions>
          <ns3:TrackPointExtension>
            <ns3:hr>122</ns3:hr>
            <ns3:cad>0</ns3:cad>
          </ns3:TrackPointExtension>
        </extensions>
      </trkpt>
      <trkpt lat="45.24321927689015865325927734375" lon="-71.1448754556477069854736328125">
        <ele>973.20001220703125</ele>
        <time>2026-08-22T02:48:14.000Z</time>
        <extensions>
          <ns3:TrackPointExtension>
            <ns3:hr>122</ns3:hr>
            <ns3:cad>0</ns3:cad>
          </ns3:TrackPointExtension>
        </extensions>
      </trkpt>
      <trkpt lat="45.243219695985317230224609375" lon="-71.14487587474286556243896484375">
        <ele>973</ele>
        <time>2026-08-22T02:48:15.000Z</time>
        <extensions>
          <ns3:TrackPointExtension>
            <ns3:hr>122</ns3:hr>
            <ns3:cad>0</ns3:cad>
          </ns3:TrackPointExtension>
        </extensions>
      </trkpt>
      <trkpt lat="45.24322447367012500762939453125" lon="-71.1448838375508785247802734375">
        <ele>972.79998779296875</ele>
        <time>2026-08-22T02:48:16.000Z</time>
        <extensions>
          <ns3:TrackPointExtension>
            <ns3:hr>122</ns3:hr>
            <ns3:cad>0</ns3:cad>
          </ns3:TrackPointExtension>
        </extensions>
      </trkpt>
      <trkpt lat="45.2432346157729625701904296875" lon="-71.1448962427675724029541015625">
        <ele>972.5999755859375</ele>
        <time>2026-08-22T02:48:17.000Z</time>
        <extensions>
          <ns3:TrackPointExtension>
            <ns3:hr>121</ns3:hr>
            <ns3:cad>0</ns3:cad>
          </ns3:TrackPointExtension>
        </extensions>
      </trkpt>
      <trkpt lat="45.24324844591319561004638671875" lon="-71.14491979591548442840576171875">
        <ele>972.20001220703125</ele>
        <time>2026-08-22T02:48:18.000Z</time>
        <extensions>
          <ns3:TrackPointExtension>
            <ns3:hr>120</ns3:hr>
            <ns3:cad>0</ns3:cad>
          </ns3:TrackPointExtension>
        </extensions>
      </trkpt>
      <trkpt lat="45.24326487444341182708740234375" lon="-71.1449378170073032379150390625">
        <ele>971.79998779296875</ele>
        <time>2026-08-22T02:48:19.000Z</time>
        <extensions>
          <ns3:TrackPointExtension>
            <ns3:hr>119</ns3:hr>
            <ns3:cad>0</ns3:cad>
          </ns3:TrackPointExtension>
        </extensions>
      </trkpt>
      <trkpt lat="45.2432776987552642822265625" lon="-71.1449396610260009765625">
        <ele>971.20001220703125</ele>
        <time>2026-08-22T02:48:20.000Z</time>
        <extensions>
          <ns3:TrackPointExtension>
            <ns3:hr>118</ns3:hr>
            <ns3:cad>70</ns3:cad>
          </ns3:TrackPointExtension>
        </extensions>
      </trkpt>
      <trkpt lat="45.24329002015292644500732421875" lon="-71.14494561217725276947021484375">
        <ele>971</ele>
        <time>2026-08-22T02:48:21.000Z</time>
        <extensions>
          <ns3:TrackPointExtension>
            <ns3:hr>117</ns3:hr>
            <ns3:cad>72</ns3:cad>
          </ns3:TrackPointExtension>
        </extensions>
      </trkpt>
      <trkpt lat="45.243301503360271453857421875" lon="-71.1449465341866016387939453125">
        <ele>970.5999755859375</ele>
        <time>2026-08-22T02:48:22.000Z</time>
        <extensions>
          <ns3:TrackPointExtension>
            <ns3:hr>117</ns3:hr>
            <ns3:cad>72</ns3:cad>
          </ns3:TrackPointExtension>
        </extensions>
      </trkpt>
      <trkpt lat="45.24331684224307537078857421875" lon="-71.144944019615650177001953125">
        <ele>970.4000244140625</ele>
        <time>2026-08-22T02:48:23.000Z</time>
        <extensions>
          <ns3:TrackPointExtension>
            <ns3:hr>117</ns3:hr>
            <ns3:cad>72</ns3:cad>
          </ns3:TrackPointExtension>
        </extensions>
      </trkpt>
      <trkpt lat="45.243328996002674102783203125" lon="-71.14493773318827152252197265625">
        <ele>970.20001220703125</ele>
        <time>2026-08-22T02:48:24.000Z</time>
        <extensions>
          <ns3:TrackPointExtension>
            <ns3:hr>117</ns3:hr>
            <ns3:cad>72</ns3:cad>
          </ns3:TrackPointExtension>
        </extensions>
      </trkpt>
      <trkpt lat="45.24334140121936798095703125" lon="-71.1449290998280048370361328125">
        <ele>970</ele>
        <time>2026-08-22T02:48:25.000Z</time>
        <extensions>
          <ns3:TrackPointExtension>
            <ns3:hr>118</ns3:hr>
            <ns3:cad>72</ns3:cad>
          </ns3:TrackPointExtension>
        </extensions>
      </trkpt>
      <trkpt lat="45.24335640482604503631591796875" lon="-71.14491577260196208953857421875">
        <ele>969.79998779296875</ele>
        <time>2026-08-22T02:48:26.000Z</time>
        <extensions>
          <ns3:TrackPointExtension>
            <ns3:hr>118</ns3:hr>
            <ns3:cad>0</ns3:cad>
          </ns3:TrackPointExtension>
        </extensions>
      </trkpt>
      <trkpt lat="45.24337031878530979156494140625" lon="-71.14491191692650318145751953125">
        <ele>969.79998779296875</ele>
        <time>2026-08-22T02:48:27.000Z</time>
        <extensions>
          <ns3:TrackPointExtension>
            <ns3:hr>118</ns3:hr>
            <ns3:cad>0</ns3:cad>
          </ns3:TrackPointExtension>
        </extensions>
      </trkpt>
      <trkpt lat="45.24338423274457454681396484375" lon="-71.14491661079227924346923828125">
        <ele>969.4000244140625</ele>
        <time>2026-08-22T02:48:28.000Z</time>
        <extensions>
          <ns3:TrackPointExtension>
            <ns3:hr>118</ns3:hr>
            <ns3:cad>0</ns3:cad>
          </ns3:TrackPointExtension>
        </extensions>
      </trkpt>
      <trkpt lat="45.24339177645742893218994140625" lon="-71.14492985419929027557373046875">
        <ele>969.20001220703125</ele>
        <time>2026-08-22T02:48:29.000Z</time>
        <extensions>
          <ns3:TrackPointExtension>
            <ns3:hr>118</ns3:hr>
            <ns3:cad>0</ns3:cad>
          </ns3:TrackPointExtension>
        </extensions>
      </trkpt>
      <trkpt lat="45.2434010803699493408203125" lon="-71.144950054585933685302734375">
        <ele>968.79998779296875</ele>
        <time>2026-08-22T02:48:30.000Z</time>
        <extensions>
          <ns3:TrackPointExtension>
            <ns3:hr>118</ns3:hr>
            <ns3:cad>0</ns3:cad>
          </ns3:TrackPointExtension>
        </extensions>
      </trkpt>
      <trkpt lat="45.24341155774891376495361328125" lon="-71.1449666507542133331298828125">
        <ele>968.4000244140625</ele>
        <time>2026-08-22T02:48:31.000Z</time>
        <extensions>
          <ns3:TrackPointExtension>
            <ns3:hr>117</ns3:hr>
            <ns3:cad>0</ns3:cad>
          </ns3:TrackPointExtension>
        </extensions>
      </trkpt>
      <trkpt lat="45.24342496879398822784423828125" lon="-71.1449767090380191802978515625">
        <ele>968</ele>
        <time>2026-08-22T02:48:32.000Z</time>
        <extensions>
          <ns3:TrackPointExtension>
            <ns3:hr>117</ns3:hr>
            <ns3:cad>0</ns3:cad>
          </ns3:TrackPointExtension>
        </extensions>
      </trkpt>
      <trkpt lat="45.2434371225535869598388671875" lon="-71.14497880451381206512451171875">
        <ele>967.79998779296875</ele>
        <time>2026-08-22T02:48:33.000Z</time>
        <extensions>
          <ns3:TrackPointExtension>
            <ns3:hr>118</ns3:hr>
            <ns3:cad>0</ns3:cad>
          </ns3:TrackPointExtension>
        </extensions>
      </trkpt>
      <trkpt lat="45.24345380254089832305908203125" lon="-71.1449797265231609344482421875">
        <ele>967.4000244140625</ele>
        <time>2026-08-22T02:48:34.000Z</time>
        <extensions>
          <ns3:TrackPointExtension>
            <ns3:hr>118</ns3:hr>
            <ns3:cad>0</ns3:cad>
          </ns3:TrackPointExtension>
        </extensions>
      </trkpt>
      <trkpt lat="45.2434713207185268402099609375" lon="-71.14497721195220947265625">
        <ele>967</ele>
        <time>2026-08-22T02:48:35.000Z</time>
        <extensions>
          <ns3:TrackPointExtension>
            <ns3:hr>118</ns3:hr>
            <ns3:cad>77</ns3:cad>
          </ns3:TrackPointExtension>
        </extensions>
      </trkpt>
      <trkpt lat="45.243488252162933349609375" lon="-71.1449693329632282257080078125">
        <ele>966.5999755859375</ele>
        <time>2026-08-22T02:48:36.000Z</time>
        <extensions>
          <ns3:TrackPointExtension>
            <ns3:hr>118</ns3:hr>
            <ns3:cad>77</ns3:cad>
          </ns3:TrackPointExtension>
        </extensions>
      </trkpt>
      <trkpt lat="45.24350124411284923553466796875" lon="-71.14496254362165927886962890625">
        <ele>966.4000244140625</ele>
        <time>2026-08-22T02:48:37.000Z</time>
        <extensions>
          <ns3:TrackPointExtension>
            <ns3:hr>118</ns3:hr>
            <ns3:cad>77</ns3:cad>
          </ns3:TrackPointExtension>
        </extensions>
      </trkpt>
      <trkpt lat="45.24351314641535282135009765625" lon="-71.1449525691568851470947265625">
        <ele>966.20001220703125</ele>
        <time>2026-08-22T02:48:38.000Z</time>
        <extensions>
          <ns3:TrackPointExtension>
            <ns3:hr>119</ns3:hr>
            <ns3:cad>77</ns3:cad>
          </ns3:TrackPointExtension>
        </extensions>
      </trkpt>
      <trkpt lat="45.24352890439331531524658203125" lon="-71.1449421755969524383544921875">
        <ele>965.79998779296875</ele>
        <time>2026-08-22T02:48:39.000Z</time>
        <extensions>
          <ns3:TrackPointExtension>
            <ns3:hr>119</ns3:hr>
            <ns3:cad>75</ns3:cad>
          </ns3:TrackPointExtension>
        </extensions>
      </trkpt>
      <trkpt lat="45.2435434050858020782470703125" lon="-71.14492935128509998321533203125">
        <ele>965.5999755859375</ele>
        <time>2026-08-22T02:48:40.000Z</time>
        <extensions>
          <ns3:TrackPointExtension>
            <ns3:hr>120</ns3:hr>
            <ns3:cad>75</ns3:cad>
          </ns3:TrackPointExtension>
        </extensions>
      </trkpt>
      <trkpt lat="45.24355673231184482574462890625" lon="-71.14491694606840610504150390625">
        <ele>965.4000244140625</ele>
        <time>2026-08-22T02:48:41.000Z</time>
        <extensions>
          <ns3:TrackPointExtension>
            <ns3:hr>120</ns3:hr>
            <ns3:cad>75</ns3:cad>
          </ns3:TrackPointExtension>
        </extensions>
      </trkpt>
      <trkpt lat="45.24356410838663578033447265625" lon="-71.14490169100463390350341796875">
        <ele>965.20001220703125</ele>
        <time>2026-08-22T02:48:42.000Z</time>
        <extensions>
          <ns3:TrackPointExtension>
            <ns3:hr>120</ns3:hr>
            <ns3:cad>75</ns3:cad>
          </ns3:TrackPointExtension>
        </extensions>
      </trkpt>
      <trkpt lat="45.2435735799372196197509765625" lon="-71.144883334636688232421875">
        <ele>964.79998779296875</ele>
        <time>2026-08-22T02:48:43.000Z</time>
        <extensions>
          <ns3:TrackPointExtension>
            <ns3:hr>121</ns3:hr>
            <ns3:cad>75</ns3:cad>
          </ns3:TrackPointExtension>
        </extensions>
      </trkpt>
      <trkpt lat="45.2435786090791225433349609375" lon="-71.1448710970580577850341796875">
        <ele>964.5999755859375</ele>
        <time>2026-08-22T02:48:44.000Z</time>
        <extensions>
          <ns3:TrackPointExtension>
            <ns3:hr>121</ns3:hr>
            <ns3:cad>60</ns3:cad>
          </ns3:TrackPointExtension>
        </extensions>
      </trkpt>
      <trkpt lat="45.24358891882002353668212890625" lon="-71.1448610387742519378662109375">
        <ele>964.4000244140625</ele>
        <time>2026-08-22T02:48:45.000Z</time>
        <extensions>
          <ns3:TrackPointExtension>
            <ns3:hr>120</ns3:hr>
            <ns3:cad>60</ns3:cad>
          </ns3:TrackPointExtension>
        </extensions>
      </trkpt>
      <trkpt lat="45.24359461851418018341064453125" lon="-71.14484972320497035980224609375">
        <ele>964.4000244140625</ele>
        <time>2026-08-22T02:48:46.000Z</time>
        <extensions>
          <ns3:TrackPointExtension>
            <ns3:hr>121</ns3:hr>
            <ns3:cad>63</ns3:cad>
          </ns3:TrackPointExtension>
        </extensions>
      </trkpt>
      <trkpt lat="45.2435977198183536529541015625" lon="-71.14483631215989589691162109375">
        <ele>964.4000244140625</ele>
        <time>2026-08-22T02:48:47.000Z</time>
        <extensions>
          <ns3:TrackPointExtension>
            <ns3:hr>121</ns3:hr>
            <ns3:cad>63</ns3:cad>
          </ns3:TrackPointExtension>
        </extensions>
      </trkpt>
      <trkpt lat="45.2436049282550811767578125" lon="-71.14482499659061431884765625">
        <ele>964.4000244140625</ele>
        <time>2026-08-22T02:48:48.000Z</time>
        <extensions>
          <ns3:TrackPointExtension>
            <ns3:hr>121</ns3:hr>
            <ns3:cad>63</ns3:cad>
          </ns3:TrackPointExtension>
        </extensions>
      </trkpt>
      <trkpt lat="45.2436154894530773162841796875" lon="-71.14481854252517223358154296875">
        <ele>964.20001220703125</ele>
        <time>2026-08-22T02:48:49.000Z</time>
        <extensions>
          <ns3:TrackPointExtension>
            <ns3:hr>121</ns3:hr>
            <ns3:cad>63</ns3:cad>
          </ns3:TrackPointExtension>
        </extensions>
      </trkpt>
      <trkpt lat="45.24362496100366115570068359375" lon="-71.14479758776724338531494140625">
        <ele>964</ele>
        <time>2026-08-22T02:48:50.000Z</time>
        <extensions>
          <ns3:TrackPointExtension>
            <ns3:hr>120</ns3:hr>
            <ns3:cad>63</ns3:cad>
          </ns3:TrackPointExtension>
        </extensions>
      </trkpt>
      <trkpt lat="45.24363644421100616455078125" lon="-71.14477948285639286041259765625">
        <ele>963.5999755859375</ele>
        <time>2026-08-22T02:48:51.000Z</time>
        <extensions>
          <ns3:TrackPointExtension>
            <ns3:hr>120</ns3:hr>
            <ns3:cad>63</ns3:cad>
          </ns3:TrackPointExtension>
        </extensions>
      </trkpt>
      <trkpt lat="45.24364692158997058868408203125" lon="-71.1447644792497158050537109375">
        <ele>963.4000244140625</ele>
        <time>2026-08-22T02:48:52.000Z</time>
        <extensions>
          <ns3:TrackPointExtension>
            <ns3:hr>120</ns3:hr>
            <ns3:cad>63</ns3:cad>
          </ns3:TrackPointExtension>
        </extensions>
      </trkpt>
      <trkpt lat="45.2436557225883007049560546875" lon="-71.14475031383335590362548828125">
        <ele>963.20001220703125</ele>
        <time>2026-08-22T02:48:53.000Z</time>
        <extensions>
          <ns3:TrackPointExtension>
            <ns3:hr>119</ns3:hr>
            <ns3:cad>63</ns3:cad>
          </ns3:TrackPointExtension>
        </extensions>
      </trkpt>
      <trkpt lat="45.2436612546443939208984375" lon="-71.14474176429212093353271484375">
        <ele>963</ele>
        <time>2026-08-22T02:48:54.000Z</time>
        <extensions>
          <ns3:TrackPointExtension>
            <ns3:hr>119</ns3:hr>
            <ns3:cad>0</ns3:cad>
          </ns3:TrackPointExtension>
        </extensions>
      </trkpt>
      <trkpt lat="45.2436687983572483062744140625" lon="-71.14473941735923290252685546875">
        <ele>962.79998779296875</ele>
        <time>2026-08-22T02:48:55.000Z</time>
        <extensions>
          <ns3:TrackPointExtension>
            <ns3:hr>119</ns3:hr>
            <ns3:cad>0</ns3:cad>
          </ns3:TrackPointExtension>
        </extensions>
      </trkpt>
      <trkpt lat="45.2436788566410541534423828125" lon="-71.14473539404571056365966796875">
        <ele>962.79998779296875</ele>
        <time>2026-08-22T02:48:56.000Z</time>
        <extensions>
          <ns3:TrackPointExtension>
            <ns3:hr>119</ns3:hr>
            <ns3:cad>0</ns3:cad>
          </ns3:TrackPointExtension>
        </extensions>
      </trkpt>
      <trkpt lat="45.243686400353908538818359375" lon="-71.144730113446712493896484375">
        <ele>962.4000244140625</ele>
        <time>2026-08-22T02:48:57.000Z</time>
        <extensions>
          <ns3:TrackPointExtension>
            <ns3:hr>120</ns3:hr>
            <ns3:cad>0</ns3:cad>
          </ns3:TrackPointExtension>
        </extensions>
      </trkpt>
      <trkpt lat="45.24369151331484317779541015625" lon="-71.14471980370581150054931640625">
        <ele>962</ele>
        <time>2026-08-22T02:48:58.000Z</time>
        <extensions>
          <ns3:TrackPointExtension>
            <ns3:hr>120</ns3:hr>
            <ns3:cad>0</ns3:cad>
          </ns3:TrackPointExtension>
        </extensions>
      </trkpt>
      <trkpt lat="45.2436942793428897857666015625" lon="-71.14470153115689754486083984375">
        <ele>961.5999755859375</ele>
        <time>2026-08-22T02:48:59.000Z</time>
        <extensions>
          <ns3:TrackPointExtension>
            <ns3:hr>119</ns3:hr>
            <ns3:cad>0</ns3:cad>
          </ns3:TrackPointExtension>
        </extensions>
      </trkpt>
      <trkpt lat="45.2436961233615875244140625" lon="-71.144684515893459320068359375">
        <ele>961.4000244140625</ele>
        <time>2026-08-22T02:49:00.000Z</time>
        <extensions>
          <ns3:TrackPointExtension>
            <ns3:hr>119</ns3:hr>
            <ns3:cad>0</ns3:cad>
          </ns3:TrackPointExtension>
        </extensions>
      </trkpt>
      <trkpt lat="45.243700481951236724853515625" lon="-71.1446766369044780731201171875">
        <ele>961</ele>
        <time>2026-08-22T02:49:01.000Z</time>
        <extensions>
          <ns3:TrackPointExtension>
            <ns3:hr>118</ns3:hr>
            <ns3:cad>0</ns3:cad>
          </ns3:TrackPointExtension>
        </extensions>
      </trkpt>
      <trkpt lat="45.2437050081789493560791015625" lon="-71.14467068575322628021240234375">
        <ele>961</ele>
        <time>2026-08-22T02:49:02.000Z</time>
        <extensions>
          <ns3:TrackPointExtension>
            <ns3:hr>118</ns3:hr>
            <ns3:cad>0</ns3:cad>
          </ns3:TrackPointExtension>
        </extensions>
      </trkpt>
      <trkpt lat="45.2437113784253597259521484375" lon="-71.1446565203368663787841796875">
        <ele>960.79998779296875</ele>
        <time>2026-08-22T02:49:03.000Z</time>
        <extensions>
          <ns3:TrackPointExtension>
            <ns3:hr>118</ns3:hr>
            <ns3:cad>0</ns3:cad>
          </ns3:TrackPointExtension>
        </extensions>
      </trkpt>
      <trkpt lat="45.243719257414340972900390625" lon="-71.1446437798440456390380859375">
        <ele>960.79998779296875</ele>
        <time>2026-08-22T02:49:04.000Z</time>
        <extensions>
          <ns3:TrackPointExtension>
            <ns3:hr>117</ns3:hr>
            <ns3:cad>0</ns3:cad>
          </ns3:TrackPointExtension>
        </extensions>
      </trkpt>
      <trkpt lat="45.24372554384171962738037109375" lon="-71.1446273513138294219970703125">
        <ele>960.4000244140625</ele>
        <time>2026-08-22T02:49:05.000Z</time>
        <extensions>
          <ns3:TrackPointExtension>
            <ns3:hr>116</ns3:hr>
            <ns3:cad>0</ns3:cad>
          </ns3:TrackPointExtension>
        </extensions>
      </trkpt>
      <trkpt lat="45.24373124353587627410888671875" lon="-71.144610755145549774169921875">
        <ele>960.20001220703125</ele>
        <time>2026-08-22T02:49:06.000Z</time>
        <extensions>
          <ns3:TrackPointExtension>
            <ns3:hr>115</ns3:hr>
            <ns3:cad>0</ns3:cad>
          </ns3:TrackPointExtension>
        </extensions>
      </trkpt>
      <trkpt lat="45.2437442354857921600341796875" lon="-71.14459742791950702667236328125">
        <ele>959.79998779296875</ele>
        <time>2026-08-22T02:49:07.000Z</time>
        <extensions>
          <ns3:TrackPointExtension>
            <ns3:hr>115</ns3:hr>
            <ns3:cad>0</ns3:cad>
          </ns3:TrackPointExtension>
        </extensions>
      </trkpt>
      <trkpt lat="45.2437516115605831146240234375" lon="-71.14458837546408176422119140625">
        <ele>959.4000244140625</ele>
        <time>2026-08-22T02:49:08.000Z</time>
        <extensions>
          <ns3:TrackPointExtension>
            <ns3:hr>115</ns3:hr>
            <ns3:cad>0</ns3:cad>
          </ns3:TrackPointExtension>
        </extensions>
      </trkpt>
      <trkpt lat="45.24376208893954753875732421875" lon="-71.1445867829024791717529296875">
        <ele>959</ele>
        <time>2026-08-22T02:49:09.000Z</time>
        <extensions>
          <ns3:TrackPointExtension>
            <ns3:hr>115</ns3:hr>
            <ns3:cad>0</ns3:cad>
          </ns3:TrackPointExtension>
        </extensions>
      </trkpt>
      <trkpt lat="45.24376996792852878570556640625" lon="-71.1445854417979717254638671875">
        <ele>958.79998779296875</ele>
        <time>2026-08-22T02:49:10.000Z</time>
        <extensions>
          <ns3:TrackPointExtension>
            <ns3:hr>115</ns3:hr>
            <ns3:cad>0</ns3:cad>
          </ns3:TrackPointExtension>
        </extensions>
      </trkpt>
      <trkpt lat="45.2437777630984783172607421875" lon="-71.14458435215055942535400390625">
        <ele>958.4000244140625</ele>
        <time>2026-08-22T02:49:11.000Z</time>
        <extensions>
          <ns3:TrackPointExtension>
            <ns3:hr>115</ns3:hr>
            <ns3:cad>0</ns3:cad>
          </ns3:TrackPointExtension>
        </extensions>
      </trkpt>
      <trkpt lat="45.243791677057743072509765625" lon="-71.14457328803837299346923828125">
        <ele>958</ele>
        <time>2026-08-22T02:49:12.000Z</time>
        <extensions>
          <ns3:TrackPointExtension>
            <ns3:hr>115</ns3:hr>
            <ns3:cad>0</ns3:cad>
          </ns3:TrackPointExtension>
        </extensions>
      </trkpt>
      <trkpt lat="45.24379762820899486541748046875" lon="-71.14456390030682086944580078125">
        <ele>957.5999755859375</ele>
        <time>2026-08-22T02:49:13.000Z</time>
        <extensions>
          <ns3:TrackPointExtension>
            <ns3:hr>115</ns3:hr>
            <ns3:cad>0</ns3:cad>
          </ns3:TrackPointExtension>
        </extensions>
      </trkpt>
      <trkpt lat="45.24380450136959552764892578125" lon="-71.14455409348011016845703125">
        <ele>957.20001220703125</ele>
        <time>2026-08-22T02:49:14.000Z</time>
        <extensions>
          <ns3:TrackPointExtension>
            <ns3:hr>115</ns3:hr>
            <ns3:cad>0</ns3:cad>
          </ns3:TrackPointExtension>
        </extensions>
      </trkpt>
      <trkpt lat="45.2438122965395450592041015625" lon="-71.14454931579530239105224609375">
        <ele>956.79998779296875</ele>
        <time>2026-08-22T02:49:15.000Z</time>
        <extensions>
          <ns3:TrackPointExtension>
            <ns3:hr>115</ns3:hr>
            <ns3:cad>0</ns3:cad>
          </ns3:TrackPointExtension>
        </extensions>
      </trkpt>
      <trkpt lat="45.24381925351917743682861328125" lon="-71.1445445381104946136474609375">
        <ele>956.5999755859375</ele>
        <time>2026-08-22T02:49:16.000Z</time>
        <extensions>
          <ns3:TrackPointExtension>
            <ns3:hr>115</ns3:hr>
            <ns3:cad>0</ns3:cad>
          </ns3:TrackPointExtension>
        </extensions>
      </trkpt>
      <trkpt lat="45.24382688105106353759765625" lon="-71.14453825168311595916748046875">
        <ele>956.4000244140625</ele>
        <time>2026-08-22T02:49:17.000Z</time>
        <extensions>
          <ns3:TrackPointExtension>
            <ns3:hr>115</ns3:hr>
            <ns3:cad>0</ns3:cad>
          </ns3:TrackPointExtension>
        </extensions>
      </trkpt>
      <trkpt lat="45.243835262954235076904296875" lon="-71.144530288875102996826171875">
        <ele>956.20001220703125</ele>
        <time>2026-08-22T02:49:18.000Z</time>
        <extensions>
          <ns3:TrackPointExtension>
            <ns3:hr>115</ns3:hr>
            <ns3:cad>0</ns3:cad>
          </ns3:TrackPointExtension>
        </extensions>
      </trkpt>
      <trkpt lat="45.24383601732552051544189453125" lon="-71.144521236419677734375">
        <ele>956</ele>
        <time>2026-08-22T02:49:19.000Z</time>
        <extensions>
          <ns3:TrackPointExtension>
            <ns3:hr>115</ns3:hr>
            <ns3:cad>0</ns3:cad>
          </ns3:TrackPointExtension>
        </extensions>
      </trkpt>
      <trkpt lat="45.24383584968745708465576171875" lon="-71.14450925029814243316650390625">
        <ele>955.79998779296875</ele>
        <time>2026-08-22T02:49:20.000Z</time>
        <extensions>
          <ns3:TrackPointExtension>
            <ns3:hr>114</ns3:hr>
            <ns3:cad>0</ns3:cad>
          </ns3:TrackPointExtension>
        </extensions>
      </trkpt>
      <trkpt lat="45.24384004063904285430908203125" lon="-71.14449919201433658599853515625">
        <ele>955.5999755859375</ele>
        <time>2026-08-22T02:49:21.000Z</time>
        <extensions>
          <ns3:TrackPointExtension>
            <ns3:hr>114</ns3:hr>
            <ns3:cad>0</ns3:cad>
          </ns3:TrackPointExtension>
        </extensions>
      </trkpt>
      <trkpt lat="45.2438434772193431854248046875" lon="-71.1444878764450550079345703125">
        <ele>955.4000244140625</ele>
        <time>2026-08-22T02:49:22.000Z</time>
        <extensions>
          <ns3:TrackPointExtension>
            <ns3:hr>114</ns3:hr>
            <ns3:cad>57</ns3:cad>
          </ns3:TrackPointExtension>
        </extensions>
      </trkpt>
      <trkpt lat="45.2438501827418804168701171875" lon="-71.1444744653999805450439453125">
        <ele>955</ele>
        <time>2026-08-22T02:49:23.000Z</time>
        <extensions>
          <ns3:TrackPointExtension>
            <ns3:hr>114</ns3:hr>
            <ns3:cad>46</ns3:cad>
          </ns3:TrackPointExtension>
        </extensions>
      </trkpt>
      <trkpt lat="45.24386032484471797943115234375" lon="-71.1444674246013164520263671875">
        <ele>955</ele>
        <time>2026-08-22T02:49:24.000Z</time>
        <extensions>
          <ns3:TrackPointExtension>
            <ns3:hr>114</ns3:hr>
            <ns3:cad>46</ns3:cad>
          </ns3:TrackPointExtension>
        </extensions>
      </trkpt>
      <trkpt lat="45.243868790566921234130859375" lon="-71.14446289837360382080078125">
        <ele>954.79998779296875</ele>
        <time>2026-08-22T02:49:25.000Z</time>
        <extensions>
          <ns3:TrackPointExtension>
            <ns3:hr>114</ns3:hr>
            <ns3:cad>46</ns3:cad>
          </ns3:TrackPointExtension>
        </extensions>
      </trkpt>
      <trkpt lat="45.24388127960264682769775390625" lon="-71.14445895887911319732666015625">
        <ele>954.4000244140625</ele>
        <time>2026-08-22T02:49:26.000Z</time>
        <extensions>
          <ns3:TrackPointExtension>
            <ns3:hr>114</ns3:hr>
            <ns3:cad>46</ns3:cad>
          </ns3:TrackPointExtension>
        </extensions>
      </trkpt>
      <trkpt lat="45.2438924275338649749755859375" lon="-71.14445845596492290496826171875">
        <ele>954.20001220703125</ele>
        <time>2026-08-22T02:49:27.000Z</time>
        <extensions>
          <ns3:TrackPointExtension>
            <ns3:hr>113</ns3:hr>
            <ns3:cad>46</ns3:cad>
          </ns3:TrackPointExtension>
        </extensions>
      </trkpt>
      <trkpt lat="45.24389686994254589080810546875" lon="-71.14444638602435588836669921875">
        <ele>954</ele>
        <time>2026-08-22T02:49:28.000Z</time>
        <extensions>
          <ns3:TrackPointExtension>
            <ns3:hr>114</ns3:hr>
            <ns3:cad>46</ns3:cad>
          </ns3:TrackPointExtension>
        </extensions>
      </trkpt>
      <trkpt lat="45.24390692822635173797607421875" lon="-71.14443951286375522613525390625">
        <ele>953.5999755859375</ele>
        <time>2026-08-22T02:49:29.000Z</time>
        <extensions>
          <ns3:TrackPointExtension>
            <ns3:hr>114</ns3:hr>
            <ns3:cad>46</ns3:cad>
          </ns3:TrackPointExtension>
        </extensions>
      </trkpt>
      <trkpt lat="45.24392184801399707794189453125" lon="-71.14443565718829631805419921875">
        <ele>953.20001220703125</ele>
        <time>2026-08-22T02:49:30.000Z</time>
        <extensions>
          <ns3:TrackPointExtension>
            <ns3:hr>114</ns3:hr>
            <ns3:cad>46</ns3:cad>
          </ns3:TrackPointExtension>
        </extensions>
      </trkpt>
      <trkpt lat="45.2439370192587375640869140625" lon="-71.14442937076091766357421875">
        <ele>952.79998779296875</ele>
        <time>2026-08-22T02:49:31.000Z</time>
        <extensions>
          <ns3:TrackPointExtension>
            <ns3:hr>114</ns3:hr>
            <ns3:cad>46</ns3:cad>
          </ns3:TrackPointExtension>
        </extensions>
      </trkpt>
      <trkpt lat="45.2439450658857822418212890625" lon="-71.14441587589681148529052734375">
        <ele>952.4000244140625</ele>
        <time>2026-08-22T02:49:32.000Z</time>
        <extensions>
          <ns3:TrackPointExtension>
            <ns3:hr>113</ns3:hr>
            <ns3:cad>46</ns3:cad>
          </ns3:TrackPointExtension>
        </extensions>
      </trkpt>
      <trkpt lat="45.24395789019763469696044921875" lon="-71.14440849982202053070068359375">
        <ele>952</ele>
        <time>2026-08-22T02:49:33.000Z</time>
        <extensions>
          <ns3:TrackPointExtension>
            <ns3:hr>113</ns3:hr>
            <ns3:cad>46</ns3:cad>
          </ns3:TrackPointExtension>
        </extensions>
      </trkpt>
      <trkpt lat="45.2439705468714237213134765625" lon="-71.1443983577191829681396484375">
        <ele>951.5999755859375</ele>
        <time>2026-08-22T02:49:34.000Z</time>
        <extensions>
          <ns3:TrackPointExtension>
            <ns3:hr>113</ns3:hr>
            <ns3:cad>46</ns3:cad>
          </ns3:TrackPointExtension>
        </extensions>
      </trkpt>
      <trkpt lat="45.24397934786975383758544921875" lon="-71.144386120140552520751953125">
        <ele>951.4000244140625</ele>
        <time>2026-08-22T02:49:35.000Z</time>
        <extensions>
          <ns3:TrackPointExtension>
            <ns3:hr>113</ns3:hr>
            <ns3:cad>46</ns3:cad>
          </ns3:TrackPointExtension>
        </extensions>
      </trkpt>
      <trkpt lat="45.243990160524845123291015625" lon="-71.14437178708612918853759765625">
        <ele>951.20001220703125</ele>
        <time>2026-08-22T02:49:36.000Z</time>
        <extensions>
          <ns3:TrackPointExtension>
            <ns3:hr>113</ns3:hr>
            <ns3:cad>46</ns3:cad>
          </ns3:TrackPointExtension>
        </extensions>
      </trkpt>
      <trkpt lat="45.2440040744841098785400390625" lon="-71.14435200579464435577392578125">
        <ele>951</ele>
        <time>2026-08-22T02:49:37.000Z</time>
        <extensions>
          <ns3:TrackPointExtension>
            <ns3:hr>113</ns3:hr>
            <ns3:cad>46</ns3:cad>
          </ns3:TrackPointExtension>
        </extensions>
      </trkpt>
      <trkpt lat="45.24401329457759857177734375" lon="-71.14432954229414463043212890625">
        <ele>950.5999755859375</ele>
        <time>2026-08-22T02:49:38.000Z</time>
        <extensions>
          <ns3:TrackPointExtension>
            <ns3:hr>114</ns3:hr>
            <ns3:cad>46</ns3:cad>
          </ns3:TrackPointExtension>
        </extensions>
      </trkpt>
      <trkpt lat="45.24402142502367496490478515625" lon="-71.1443101800978183746337890625">
        <ele>950.20001220703125</ele>
        <time>2026-08-22T02:49:39.000Z</time>
        <extensions>
          <ns3:TrackPointExtension>
            <ns3:hr>114</ns3:hr>
            <ns3:cad>46</ns3:cad>
          </ns3:TrackPointExtension>
        </extensions>
      </trkpt>
      <trkpt lat="45.2440305612981319427490234375" lon="-71.1442964337766170501708984375">
        <ele>950</ele>
        <time>2026-08-22T02:49:40.000Z</time>
        <extensions>
          <ns3:TrackPointExtension>
            <ns3:hr>114</ns3:hr>
            <ns3:cad>46</ns3:cad>
          </ns3:TrackPointExtension>
        </extensions>
      </trkpt>
      <trkpt lat="45.24403131566941738128662109375" lon="-71.1442649178206920623779296875">
        <ele>949.79998779296875</ele>
        <time>2026-08-22T02:49:41.000Z</time>
        <extensions>
          <ns3:TrackPointExtension>
            <ns3:hr>114</ns3:hr>
            <ns3:cad>46</ns3:cad>
          </ns3:TrackPointExtension>
        </extensions>
      </trkpt>
      <trkpt lat="45.24403265677392482757568359375" lon="-71.14424186758697032928466796875">
        <ele>949.5999755859375</ele>
        <time>2026-08-22T02:49:42.000Z</time>
        <extensions>
          <ns3:TrackPointExtension>
            <ns3:hr>114</ns3:hr>
            <ns3:cad>46</ns3:cad>
          </ns3:TrackPointExtension>
        </extensions>
      </trkpt>
      <trkpt lat="45.2440362609922885894775390625" lon="-71.144225858151912689208984375">
        <ele>949.5999755859375</ele>
        <time>2026-08-22T02:49:43.000Z</time>
        <extensions>
          <ns3:TrackPointExtension>
            <ns3:hr>114</ns3:hr>
            <ns3:cad>46</ns3:cad>
          </ns3:TrackPointExtension>
        </extensions>
      </trkpt>
      <trkpt lat="45.2440386079251766204833984375" lon="-71.144211776554584503173828125">
        <ele>949.4000244140625</ele>
        <time>2026-08-22T02:49:44.000Z</time>
        <extensions>
          <ns3:TrackPointExtension>
            <ns3:hr>114</ns3:hr>
            <ns3:cad>46</ns3:cad>
          </ns3:TrackPointExtension>
        </extensions>
      </trkpt>
      <trkpt lat="45.24403877556324005126953125" lon="-71.14419124089181423187255859375">
        <ele>949.4000244140625</ele>
        <time>2026-08-22T02:49:45.000Z</time>
        <extensions>
          <ns3:TrackPointExtension>
            <ns3:hr>114</ns3:hr>
            <ns3:cad>46</ns3:cad>
          </ns3:TrackPointExtension>
        </extensions>
      </trkpt>
      <trkpt lat="45.24404413998126983642578125" lon="-71.14417950622737407684326171875">
        <ele>949.4000244140625</ele>
        <time>2026-08-22T02:49:46.000Z</time>
        <extensions>
          <ns3:TrackPointExtension>
            <ns3:hr>114</ns3:hr>
            <ns3:cad>0</ns3:cad>
          </ns3:TrackPointExtension>
        </extensions>
      </trkpt>
      <trkpt lat="45.24404288269579410552978515625" lon="-71.144173555076122283935546875">
        <ele>949.4000244140625</ele>
        <time>2026-08-22T02:49:47.000Z</time>
        <extensions>
          <ns3:TrackPointExtension>
            <ns3:hr>114</ns3:hr>
            <ns3:cad>0</ns3:cad>
          </ns3:TrackPointExtension>
        </extensions>
      </trkpt>
      <trkpt lat="45.24404548108577728271484375" lon="-71.14416542463004589080810546875">
        <ele>949.4000244140625</ele>
        <time>2026-08-22T02:49:48.000Z</time>
        <extensions>
          <ns3:TrackPointExtension>
            <ns3:hr>114</ns3:hr>
            <ns3:cad>0</ns3:cad>
          </ns3:TrackPointExtension>
        </extensions>
      </trkpt>
      <trkpt lat="45.24404908530414104461669921875" lon="-71.1441646702587604522705078125">
        <ele>949.4000244140625</ele>
        <time>2026-08-22T02:49:49.000Z</time>
        <extensions>
          <ns3:TrackPointExtension>
            <ns3:hr>114</ns3:hr>
            <ns3:cad>0</ns3:cad>
          </ns3:TrackPointExtension>
        </extensions>
      </trkpt>
      <trkpt lat="45.2440490014851093292236328125" lon="-71.1441609822213649749755859375">
        <ele>949.20001220703125</ele>
        <time>2026-08-22T02:49:50.000Z</time>
        <extensions>
          <ns3:TrackPointExtension>
            <ns3:hr>113</ns3:hr>
            <ns3:cad>0</ns3:cad>
          </ns3:TrackPointExtension>
        </extensions>
      </trkpt>
      <trkpt lat="45.24405009113252162933349609375" lon="-71.144146062433719635009765625">
        <ele>949.20001220703125</ele>
        <time>2026-08-22T02:49:51.000Z</time>
        <extensions>
          <ns3:TrackPointExtension>
            <ns3:hr>113</ns3:hr>
            <ns3:cad>0</ns3:cad>
          </ns3:TrackPointExtension>
        </extensions>
      </trkpt>
      <trkpt lat="45.24405394680798053741455078125" lon="-71.14412762224674224853515625">
        <ele>949</ele>
        <time>2026-08-22T02:49:52.000Z</time>
        <extensions>
          <ns3:TrackPointExtension>
            <ns3:hr>113</ns3:hr>
            <ns3:cad>0</ns3:cad>
          </ns3:TrackPointExtension>
        </extensions>
      </trkpt>
      <trkpt lat="45.2440617419779300689697265625" lon="-71.14411982707679271697998046875">
        <ele>948.5999755859375</ele>
        <time>2026-08-22T02:49:53.000Z</time>
        <extensions>
          <ns3:TrackPointExtension>
            <ns3:hr>113</ns3:hr>
            <ns3:cad>0</ns3:cad>
          </ns3:TrackPointExtension>
        </extensions>
      </trkpt>
      <trkpt lat="45.24406316690146923065185546875" lon="-71.14411915652453899383544921875">
        <ele>948.4000244140625</ele>
        <time>2026-08-22T02:49:54.000Z</time>
        <extensions>
          <ns3:TrackPointExtension>
            <ns3:hr>113</ns3:hr>
            <ns3:cad>0</ns3:cad>
          </ns3:TrackPointExtension>
        </extensions>
      </trkpt>
      <trkpt lat="45.24406869895756244659423828125" lon="-71.144117899239063262939453125">
        <ele>948.20001220703125</ele>
        <time>2026-08-22T02:49:55.000Z</time>
        <extensions>
          <ns3:TrackPointExtension>
            <ns3:hr>112</ns3:hr>
            <ns3:cad>0</ns3:cad>
          </ns3:TrackPointExtension>
        </extensions>
      </trkpt>
      <trkpt lat="45.24408009834587574005126953125" lon="-71.14411245100200176239013671875">
        <ele>947.79998779296875</ele>
        <time>2026-08-22T02:49:56.000Z</time>
        <extensions>
          <ns3:TrackPointExtension>
            <ns3:hr>111</ns3:hr>
            <ns3:cad>0</ns3:cad>
          </ns3:TrackPointExtension>
        </extensions>
      </trkpt>
      <trkpt lat="45.24408479221165180206298828125" lon="-71.14410038106143474578857421875">
        <ele>947.4000244140625</ele>
        <time>2026-08-22T02:49:57.000Z</time>
        <extensions>
          <ns3:TrackPointExtension>
            <ns3:hr>111</ns3:hr>
            <ns3:cad>0</ns3:cad>
          </ns3:TrackPointExtension>
        </extensions>
      </trkpt>
      <trkpt lat="45.24409049190580844879150390625" lon="-71.1440899036824703216552734375">
        <ele>947</ele>
        <time>2026-08-22T02:49:58.000Z</time>
        <extensions>
          <ns3:TrackPointExtension>
            <ns3:hr>112</ns3:hr>
            <ns3:cad>0</ns3:cad>
          </ns3:TrackPointExtension>
        </extensions>
      </trkpt>
      <trkpt lat="45.244094766676425933837890625" lon="-71.14408059976994991302490234375">
        <ele>946.5999755859375</ele>
        <time>2026-08-22T02:49:59.000Z</time>
        <extensions>
          <ns3:TrackPointExtension>
            <ns3:hr>112</ns3:hr>
            <ns3:cad>0</ns3:cad>
          </ns3:TrackPointExtension>
        </extensions>
      </trkpt>
      <trkpt lat="45.24410105310380458831787109375" lon="-71.14407205022871494293212890625">
        <ele>946.20001220703125</ele>
        <time>2026-08-22T02:50:00.000Z</time>
        <extensions>
          <ns3:TrackPointExtension>
            <ns3:hr>112</ns3:hr>
            <ns3:cad>0</ns3:cad>
          </ns3:TrackPointExtension>
        </extensions>
      </trkpt>
      <trkpt lat="45.24410943500697612762451171875" lon="-71.1440610699355602264404296875">
        <ele>946</ele>
        <time>2026-08-22T02:50:01.000Z</time>
        <extensions>
          <ns3:TrackPointExtension>
            <ns3:hr>112</ns3:hr>
            <ns3:cad>0</ns3:cad>
          </ns3:TrackPointExtension>
        </extensions>
      </trkpt>
      <trkpt lat="45.24411915801465511322021484375" lon="-71.14405545406043529510498046875">
        <ele>945.79998779296875</ele>
        <time>2026-08-22T02:50:02.000Z</time>
        <extensions>
          <ns3:TrackPointExtension>
            <ns3:hr>112</ns3:hr>
            <ns3:cad>0</ns3:cad>
          </ns3:TrackPointExtension>
        </extensions>
      </trkpt>
      <trkpt lat="45.244126617908477783203125" lon="-71.14404874853789806365966796875">
        <ele>945.4000244140625</ele>
        <time>2026-08-22T02:50:03.000Z</time>
        <extensions>
          <ns3:TrackPointExtension>
            <ns3:hr>112</ns3:hr>
            <ns3:cad>0</ns3:cad>
          </ns3:TrackPointExtension>
        </extensions>
      </trkpt>
      <trkpt lat="45.244130976498126983642578125" lon="-71.1440469883382320404052734375">
        <ele>945.20001220703125</ele>
        <time>2026-08-22T02:50:04.000Z</time>
        <extensions>
          <ns3:TrackPointExtension>
            <ns3:hr>112</ns3:hr>
            <ns3:cad>0</ns3:cad>
          </ns3:TrackPointExtension>
        </extensions>
      </trkpt>
      <trkpt lat="45.24413743056356906890869140625" lon="-71.14405478350818157196044921875">
        <ele>944.79998779296875</ele>
        <time>2026-08-22T02:50:05.000Z</time>
        <extensions>
          <ns3:TrackPointExtension>
            <ns3:hr>112</ns3:hr>
            <ns3:cad>55</ns3:cad>
          </ns3:TrackPointExtension>
        </extensions>
      </trkpt>
      <trkpt lat="45.24414447136223316192626953125" lon="-71.144058890640735626220703125">
        <ele>944.4000244140625</ele>
        <time>2026-08-22T02:50:06.000Z</time>
        <extensions>
          <ns3:TrackPointExtension>
            <ns3:hr>113</ns3:hr>
            <ns3:cad>55</ns3:cad>
          </ns3:TrackPointExtension>
        </extensions>
      </trkpt>
      <trkpt lat="45.24415017105638980865478515625" lon="-71.14406199194490909576416015625">
        <ele>944</ele>
        <time>2026-08-22T02:50:07.000Z</time>
        <extensions>
          <ns3:TrackPointExtension>
            <ns3:hr>112</ns3:hr>
            <ns3:cad>54</ns3:cad>
          </ns3:TrackPointExtension>
        </extensions>
      </trkpt>
      <trkpt lat="45.24415737949311733245849609375" lon="-71.1440694518387317657470703125">
        <ele>943.5999755859375</ele>
        <time>2026-08-22T02:50:08.000Z</time>
        <extensions>
          <ns3:TrackPointExtension>
            <ns3:hr>112</ns3:hr>
            <ns3:cad>54</ns3:cad>
          </ns3:TrackPointExtension>
        </extensions>
      </trkpt>
      <trkpt lat="45.24416425265371799468994140625" lon="-71.14407741464674472808837890625">
        <ele>943.4000244140625</ele>
        <time>2026-08-22T02:50:09.000Z</time>
        <extensions>
          <ns3:TrackPointExtension>
            <ns3:hr>112</ns3:hr>
            <ns3:cad>54</ns3:cad>
          </ns3:TrackPointExtension>
        </extensions>
      </trkpt>
      <trkpt lat="45.244165174663066864013671875" lon="-71.1440818570554256439208984375">
        <ele>943</ele>
        <time>2026-08-22T02:50:10.000Z</time>
        <extensions>
          <ns3:TrackPointExtension>
            <ns3:hr>112</ns3:hr>
            <ns3:cad>54</ns3:cad>
          </ns3:TrackPointExtension>
        </extensions>
      </trkpt>
      <trkpt lat="45.24417028762400150299072265625" lon="-71.14408797584474086761474609375">
        <ele>942.79998779296875</ele>
        <time>2026-08-22T02:50:11.000Z</time>
        <extensions>
          <ns3:TrackPointExtension>
            <ns3:hr>112</ns3:hr>
            <ns3:cad>54</ns3:cad>
          </ns3:TrackPointExtension>
        </extensions>
      </trkpt>
      <trkpt lat="45.24417556822299957275390625" lon="-71.1440942622721195220947265625">
        <ele>942.5999755859375</ele>
        <time>2026-08-22T02:50:12.000Z</time>
        <extensions>
          <ns3:TrackPointExtension>
            <ns3:hr>112</ns3:hr>
            <ns3:cad>57</ns3:cad>
          </ns3:TrackPointExtension>
        </extensions>
      </trkpt>
      <trkpt lat="45.244179926812648773193359375" lon="-71.14409702830016613006591796875">
        <ele>942.5999755859375</ele>
        <time>2026-08-22T02:50:13.000Z</time>
        <extensions>
          <ns3:TrackPointExtension>
            <ns3:hr>112</ns3:hr>
            <ns3:cad>57</ns3:cad>
          </ns3:TrackPointExtension>
        </extensions>
      </trkpt>
      <trkpt lat="45.24418856017291545867919921875" lon="-71.1441026441752910614013671875">
        <ele>942.4000244140625</ele>
        <time>2026-08-22T02:50:14.000Z</time>
        <extensions>
          <ns3:TrackPointExtension>
            <ns3:hr>113</ns3:hr>
            <ns3:cad>57</ns3:cad>
          </ns3:TrackPointExtension>
        </extensions>
      </trkpt>
      <trkpt lat="45.2441951818764209747314453125" lon="-71.1441076733171939849853515625">
        <ele>942.4000244140625</ele>
        <time>2026-08-22T02:50:15.000Z</time>
        <extensions>
          <ns3:TrackPointExtension>
            <ns3:hr>112</ns3:hr>
            <ns3:cad>57</ns3:cad>
          </ns3:TrackPointExtension>
        </extensions>
      </trkpt>
      <trkpt lat="45.2442052401602268218994140625" lon="-71.144120581448078155517578125">
        <ele>942.20001220703125</ele>
        <time>2026-08-22T02:50:16.000Z</time>
        <extensions>
          <ns3:TrackPointExtension>
            <ns3:hr>113</ns3:hr>
            <ns3:cad>57</ns3:cad>
          </ns3:TrackPointExtension>
        </extensions>
      </trkpt>
      <trkpt lat="45.24421974085271358489990234375" lon="-71.144139356911182403564453125">
        <ele>941.79998779296875</ele>
        <time>2026-08-22T02:50:17.000Z</time>
        <extensions>
          <ns3:TrackPointExtension>
            <ns3:hr>113</ns3:hr>
            <ns3:cad>57</ns3:cad>
          </ns3:TrackPointExtension>
        </extensions>
      </trkpt>
      <trkpt lat="45.24423214606940746307373046875" lon="-71.1441492475569248199462890625">
        <ele>941.4000244140625</ele>
        <time>2026-08-22T02:50:18.000Z</time>
        <extensions>
          <ns3:TrackPointExtension>
            <ns3:hr>113</ns3:hr>
            <ns3:cad>57</ns3:cad>
          </ns3:TrackPointExtension>
        </extensions>
      </trkpt>
      <trkpt lat="45.24424371309578418731689453125" lon="-71.14415938965976238250732421875">
        <ele>941</ele>
        <time>2026-08-22T02:50:19.000Z</time>
        <extensions>
          <ns3:TrackPointExtension>
            <ns3:hr>114</ns3:hr>
            <ns3:cad>57</ns3:cad>
          </ns3:TrackPointExtension>
        </extensions>
      </trkpt>
      <trkpt lat="45.24425159208476543426513671875" lon="-71.1441626586019992828369140625">
        <ele>940.79998779296875</ele>
        <time>2026-08-22T02:50:20.000Z</time>
        <extensions>
          <ns3:TrackPointExtension>
            <ns3:hr>114</ns3:hr>
            <ns3:cad>0</ns3:cad>
          </ns3:TrackPointExtension>
        </extensions>
      </trkpt>
      <trkpt lat="45.24426274001598358154296875" lon="-71.1441717110574245452880859375">
        <ele>940.5999755859375</ele>
        <time>2026-08-22T02:50:21.000Z</time>
        <extensions>
          <ns3:TrackPointExtension>
            <ns3:hr>113</ns3:hr>
            <ns3:cad>0</ns3:cad>
          </ns3:TrackPointExtension>
        </extensions>
      </trkpt>
      <trkpt lat="45.24426433257758617401123046875" lon="-71.1441787518560886383056640625">
        <ele>940.20001220703125</ele>
        <time>2026-08-22T02:50:22.000Z</time>
        <extensions>
          <ns3:TrackPointExtension>
            <ns3:hr>113</ns3:hr>
            <ns3:cad>0</ns3:cad>
          </ns3:TrackPointExtension>
        </extensions>
      </trkpt>
      <trkpt lat="45.2442629076540470123291015625" lon="-71.1441978625953197479248046875">
        <ele>940</ele>
        <time>2026-08-22T02:50:23.000Z</time>
        <extensions>
          <ns3:TrackPointExtension>
            <ns3:hr>113</ns3:hr>
            <ns3:cad>0</ns3:cad>
          </ns3:TrackPointExtension>
        </extensions>
      </trkpt>
      <trkpt lat="45.24426617659628391265869140625" lon="-71.1442168056964874267578125">
        <ele>939.79998779296875</ele>
        <time>2026-08-22T02:50:24.000Z</time>
        <extensions>
          <ns3:TrackPointExtension>
            <ns3:hr>114</ns3:hr>
            <ns3:cad>56</ns3:cad>
          </ns3:TrackPointExtension>
        </extensions>
      </trkpt>
      <trkpt lat="45.244268439710140228271484375" lon="-71.144239269196987152099609375">
        <ele>939.79998779296875</ele>
        <time>2026-08-22T02:50:25.000Z</time>
        <extensions>
          <ns3:TrackPointExtension>
            <ns3:hr>114</ns3:hr>
            <ns3:cad>56</ns3:cad>
          </ns3:TrackPointExtension>
        </extensions>
      </trkpt>
      <trkpt lat="45.24427372030913829803466796875" lon="-71.144254021346569061279296875">
        <ele>939.5999755859375</ele>
        <time>2026-08-22T02:50:26.000Z</time>
        <extensions>
          <ns3:TrackPointExtension>
            <ns3:hr>113</ns3:hr>
            <ns3:cad>0</ns3:cad>
          </ns3:TrackPointExtension>
        </extensions>
      </trkpt>
      <trkpt lat="45.2442803420126438140869140625" lon="-71.1442659236490726470947265625">
        <ele>939.5999755859375</ele>
        <time>2026-08-22T02:50:27.000Z</time>
        <extensions>
          <ns3:TrackPointExtension>
            <ns3:hr>113</ns3:hr>
            <ns3:cad>0</ns3:cad>
          </ns3:TrackPointExtension>
        </extensions>
      </trkpt>
      <trkpt lat="45.24429031647741794586181640625" lon="-71.14428578875958919525146484375">
        <ele>939.4000244140625</ele>
        <time>2026-08-22T02:50:28.000Z</time>
        <extensions>
          <ns3:TrackPointExtension>
            <ns3:hr>113</ns3:hr>
            <ns3:cad>0</ns3:cad>
          </ns3:TrackPointExtension>
        </extensions>
      </trkpt>
      <trkpt lat="45.24429752491414546966552734375" lon="-71.14430422894656658172607421875">
        <ele>939.20001220703125</ele>
        <time>2026-08-22T02:50:29.000Z</time>
        <extensions>
          <ns3:TrackPointExtension>
            <ns3:hr>113</ns3:hr>
            <ns3:cad>63</ns3:cad>
          </ns3:TrackPointExtension>
        </extensions>
      </trkpt>
      <trkpt lat="45.24430439807474613189697265625" lon="-71.14432300440967082977294921875">
        <ele>939</ele>
        <time>2026-08-22T02:50:30.000Z</time>
        <extensions>
          <ns3:TrackPointExtension>
            <ns3:hr>113</ns3:hr>
            <ns3:cad>63</ns3:cad>
          </ns3:TrackPointExtension>
        </extensions>
      </trkpt>
      <trkpt lat="45.2443118579685688018798828125" lon="-71.14434177987277507781982421875">
        <ele>938.79998779296875</ele>
        <time>2026-08-22T02:50:31.000Z</time>
        <extensions>
          <ns3:TrackPointExtension>
            <ns3:hr>113</ns3:hr>
            <ns3:cad>63</ns3:cad>
          </ns3:TrackPointExtension>
        </extensions>
      </trkpt>
      <trkpt lat="45.24432267062366008758544921875" lon="-71.14435770548880100250244140625">
        <ele>938.5999755859375</ele>
        <time>2026-08-22T02:50:32.000Z</time>
        <extensions>
          <ns3:TrackPointExtension>
            <ns3:hr>114</ns3:hr>
            <ns3:cad>63</ns3:cad>
          </ns3:TrackPointExtension>
        </extensions>
      </trkpt>
      <trkpt lat="45.2443306334316730499267578125" lon="-71.14437899552285671234130859375">
        <ele>938.20001220703125</ele>
        <time>2026-08-22T02:50:33.000Z</time>
        <extensions>
          <ns3:TrackPointExtension>
            <ns3:hr>114</ns3:hr>
            <ns3:cad>63</ns3:cad>
          </ns3:TrackPointExtension>
        </extensions>
      </trkpt>
      <trkpt lat="45.2443386800587177276611328125" lon="-71.14439676515758037567138671875">
        <ele>938</ele>
        <time>2026-08-22T02:50:34.000Z</time>
        <extensions>
          <ns3:TrackPointExtension>
            <ns3:hr>115</ns3:hr>
            <ns3:cad>63</ns3:cad>
          </ns3:TrackPointExtension>
        </extensions>
      </trkpt>
      <trkpt lat="45.24434714578092098236083984375" lon="-71.14440648816525936126708984375">
        <ele>937.79998779296875</ele>
        <time>2026-08-22T02:50:35.000Z</time>
        <extensions>
          <ns3:TrackPointExtension>
            <ns3:hr>116</ns3:hr>
            <ns3:cad>63</ns3:cad>
          </ns3:TrackPointExtension>
        </extensions>
      </trkpt>
      <trkpt lat="45.24435921572148799896240234375" lon="-71.144423671066761016845703125">
        <ele>937.5999755859375</ele>
        <time>2026-08-22T02:50:36.000Z</time>
        <extensions>
          <ns3:TrackPointExtension>
            <ns3:hr>116</ns3:hr>
            <ns3:cad>63</ns3:cad>
          </ns3:TrackPointExtension>
        </extensions>
      </trkpt>
      <trkpt lat="45.244371034204959869384765625" lon="-71.14444085396826267242431640625">
        <ele>937.20001220703125</ele>
        <time>2026-08-22T02:50:37.000Z</time>
        <extensions>
          <ns3:TrackPointExtension>
            <ns3:hr>117</ns3:hr>
            <ns3:cad>63</ns3:cad>
          </ns3:TrackPointExtension>
        </extensions>
      </trkpt>
      <trkpt lat="45.2443805895745754241943359375" lon="-71.14445778541266918182373046875">
        <ele>937</ele>
        <time>2026-08-22T02:50:38.000Z</time>
        <extensions>
          <ns3:TrackPointExtension>
            <ns3:hr>117</ns3:hr>
            <ns3:cad>63</ns3:cad>
          </ns3:TrackPointExtension>
        </extensions>
      </trkpt>
      <trkpt lat="45.2443881332874298095703125" lon="-71.14447119645774364471435546875">
        <ele>936.79998779296875</ele>
        <time>2026-08-22T02:50:39.000Z</time>
        <extensions>
          <ns3:TrackPointExtension>
            <ns3:hr>117</ns3:hr>
            <ns3:cad>63</ns3:cad>
          </ns3:TrackPointExtension>
        </extensions>
      </trkpt>
      <trkpt lat="45.24439341388642787933349609375" lon="-71.14448477514088153839111328125">
        <ele>936.5999755859375</ele>
        <time>2026-08-22T02:50:40.000Z</time>
        <extensions>
          <ns3:TrackPointExtension>
            <ns3:hr>117</ns3:hr>
            <ns3:cad>63</ns3:cad>
          </ns3:TrackPointExtension>
        </extensions>
      </trkpt>
      <trkpt lat="45.244397185742855072021484375" lon="-71.14450313150882720947265625">
        <ele>936.4000244140625</ele>
        <time>2026-08-22T02:50:41.000Z</time>
        <extensions>
          <ns3:TrackPointExtension>
            <ns3:hr>117</ns3:hr>
            <ns3:cad>63</ns3:cad>
          </ns3:TrackPointExtension>
        </extensions>
      </trkpt>
      <trkpt lat="45.2444013766944408416748046875" lon="-71.1445180512964725494384765625">
        <ele>936.4000244140625</ele>
        <time>2026-08-22T02:50:42.000Z</time>
        <extensions>
          <ns3:TrackPointExtension>
            <ns3:hr>118</ns3:hr>
            <ns3:cad>63</ns3:cad>
          </ns3:TrackPointExtension>
        </extensions>
      </trkpt>
      <trkpt lat="45.2444094233214855194091796875" lon="-71.14453204907476902008056640625">
        <ele>936.4000244140625</ele>
        <time>2026-08-22T02:50:43.000Z</time>
        <extensions>
          <ns3:TrackPointExtension>
            <ns3:hr>118</ns3:hr>
            <ns3:cad>65</ns3:cad>
          </ns3:TrackPointExtension>
        </extensions>
      </trkpt>
      <trkpt lat="45.244416296482086181640625" lon="-71.1445438675582408905029296875">
        <ele>936.20001220703125</ele>
        <time>2026-08-22T02:50:44.000Z</time>
        <extensions>
          <ns3:TrackPointExtension>
            <ns3:hr>118</ns3:hr>
            <ns3:cad>65</ns3:cad>
          </ns3:TrackPointExtension>
        </extensions>
      </trkpt>
      <trkpt lat="45.24443146772682666778564453125" lon="-71.14456473849713802337646484375">
        <ele>936.20001220703125</ele>
        <time>2026-08-22T02:50:45.000Z</time>
        <extensions>
          <ns3:TrackPointExtension>
            <ns3:hr>118</ns3:hr>
            <ns3:cad>65</ns3:cad>
          </ns3:TrackPointExtension>
        </extensions>
      </trkpt>
      <trkpt lat="45.24444504640996456146240234375" lon="-71.14458166994154453277587890625">
        <ele>936</ele>
        <time>2026-08-22T02:50:46.000Z</time>
        <extensions>
          <ns3:TrackPointExtension>
            <ns3:hr>119</ns3:hr>
            <ns3:cad>65</ns3:cad>
          </ns3:TrackPointExtension>
        </extensions>
      </trkpt>
      <trkpt lat="45.24445828981697559356689453125" lon="-71.14459977485239505767822265625">
        <ele>935.79998779296875</ele>
        <time>2026-08-22T02:50:47.000Z</time>
        <extensions>
          <ns3:TrackPointExtension>
            <ns3:hr>119</ns3:hr>
            <ns3:cad>65</ns3:cad>
          </ns3:TrackPointExtension>
        </extensions>
      </trkpt>
      <trkpt lat="45.24447052739560604095458984375" lon="-71.14461452700197696685791015625">
        <ele>935.4000244140625</ele>
        <time>2026-08-22T02:50:48.000Z</time>
        <extensions>
          <ns3:TrackPointExtension>
            <ns3:hr>119</ns3:hr>
            <ns3:cad>65</ns3:cad>
          </ns3:TrackPointExtension>
        </extensions>
      </trkpt>
      <trkpt lat="45.2444778196513652801513671875" lon="-71.1446218192577362060546875">
        <ele>935</ele>
        <time>2026-08-22T02:50:49.000Z</time>
        <extensions>
          <ns3:TrackPointExtension>
            <ns3:hr>119</ns3:hr>
            <ns3:cad>65</ns3:cad>
          </ns3:TrackPointExtension>
        </extensions>
      </trkpt>
      <trkpt lat="45.24448125623166561126708984375" lon="-71.14463531412184238433837890625">
        <ele>934.79998779296875</ele>
        <time>2026-08-22T02:50:50.000Z</time>
        <extensions>
          <ns3:TrackPointExtension>
            <ns3:hr>119</ns3:hr>
            <ns3:cad>65</ns3:cad>
          </ns3:TrackPointExtension>
        </extensions>
      </trkpt>
      <trkpt lat="45.2444892190396785736083984375" lon="-71.14464906044304370880126953125">
        <ele>934.4000244140625</ele>
        <time>2026-08-22T02:50:51.000Z</time>
        <extensions>
          <ns3:TrackPointExtension>
            <ns3:hr>119</ns3:hr>
            <ns3:cad>65</ns3:cad>
          </ns3:TrackPointExtension>
        </extensions>
      </trkpt>
      <trkpt lat="45.24449198506772518157958984375" lon="-71.1446635611355304718017578125">
        <ele>934.20001220703125</ele>
        <time>2026-08-22T02:50:52.000Z</time>
        <extensions>
          <ns3:TrackPointExtension>
            <ns3:hr>119</ns3:hr>
            <ns3:cad>65</ns3:cad>
          </ns3:TrackPointExtension>
        </extensions>
      </trkpt>
      <trkpt lat="45.244496762752532958984375" lon="-71.1446752957999706268310546875">
        <ele>934</ele>
        <time>2026-08-22T02:50:53.000Z</time>
        <extensions>
          <ns3:TrackPointExtension>
            <ns3:hr>119</ns3:hr>
            <ns3:cad>0</ns3:cad>
          </ns3:TrackPointExtension>
        </extensions>
      </trkpt>
      <trkpt lat="45.2445034682750701904296875" lon="-71.14468342624604701995849609375">
        <ele>933.79998779296875</ele>
        <time>2026-08-22T02:50:54.000Z</time>
        <extensions>
          <ns3:TrackPointExtension>
            <ns3:hr>120</ns3:hr>
            <ns3:cad>0</ns3:cad>
          </ns3:TrackPointExtension>
        </extensions>
      </trkpt>
      <trkpt lat="45.24451076053082942962646484375" lon="-71.1446947418153285980224609375">
        <ele>933.5999755859375</ele>
        <time>2026-08-22T02:50:55.000Z</time>
        <extensions>
          <ns3:TrackPointExtension>
            <ns3:hr>120</ns3:hr>
            <ns3:cad>0</ns3:cad>
          </ns3:TrackPointExtension>
        </extensions>
      </trkpt>
      <trkpt lat="45.2445168793201446533203125" lon="-71.14470588974654674530029296875">
        <ele>933.4000244140625</ele>
        <time>2026-08-22T02:50:56.000Z</time>
        <extensions>
          <ns3:TrackPointExtension>
            <ns3:hr>121</ns3:hr>
            <ns3:cad>0</ns3:cad>
          </ns3:TrackPointExtension>
        </extensions>
      </trkpt>
      <trkpt lat="45.24452559649944305419921875" lon="-71.14472282119095325469970703125">
        <ele>933</ele>
        <time>2026-08-22T02:50:57.000Z</time>
        <extensions>
          <ns3:TrackPointExtension>
            <ns3:hr>121</ns3:hr>
            <ns3:cad>0</ns3:cad>
          </ns3:TrackPointExtension>
        </extensions>
      </trkpt>
      <trkpt lat="45.2445302903652191162109375" lon="-71.14473287947475910186767578125">
        <ele>932.79998779296875</ele>
        <time>2026-08-22T02:50:58.000Z</time>
        <extensions>
          <ns3:TrackPointExtension>
            <ns3:hr>122</ns3:hr>
            <ns3:cad>57</ns3:cad>
          </ns3:TrackPointExtension>
        </extensions>
      </trkpt>
      <trkpt lat="45.24453590624034404754638671875" lon="-71.14474092610180377960205078125">
        <ele>932.5999755859375</ele>
        <time>2026-08-22T02:50:59.000Z</time>
        <extensions>
          <ns3:TrackPointExtension>
            <ns3:hr>122</ns3:hr>
            <ns3:cad>57</ns3:cad>
          </ns3:TrackPointExtension>
        </extensions>
      </trkpt>
      <trkpt lat="45.24454462341964244842529296875" lon="-71.14475718699395656585693359375">
        <ele>932.4000244140625</ele>
        <time>2026-08-22T02:51:00.000Z</time>
        <extensions>
          <ns3:TrackPointExtension>
            <ns3:hr>123</ns3:hr>
            <ns3:cad>57</ns3:cad>
          </ns3:TrackPointExtension>
        </extensions>
      </trkpt>
      <trkpt lat="45.24454948492348194122314453125" lon="-71.1447715200483798980712890625">
        <ele>932</ele>
        <time>2026-08-22T02:51:01.000Z</time>
        <extensions>
          <ns3:TrackPointExtension>
            <ns3:hr>123</ns3:hr>
            <ns3:cad>57</ns3:cad>
          </ns3:TrackPointExtension>
        </extensions>
      </trkpt>
      <trkpt lat="45.244559459388256072998046875" lon="-71.14478384144604206085205078125">
        <ele>931.79998779296875</ele>
        <time>2026-08-22T02:51:02.000Z</time>
        <extensions>
          <ns3:TrackPointExtension>
            <ns3:hr>123</ns3:hr>
            <ns3:cad>57</ns3:cad>
          </ns3:TrackPointExtension>
        </extensions>
      </trkpt>
      <trkpt lat="45.24456859566271305084228515625" lon="-71.144792474806308746337890625">
        <ele>931.5999755859375</ele>
        <time>2026-08-22T02:51:03.000Z</time>
        <extensions>
          <ns3:TrackPointExtension>
            <ns3:hr>123</ns3:hr>
            <ns3:cad>57</ns3:cad>
          </ns3:TrackPointExtension>
        </extensions>
      </trkpt>
      <trkpt lat="45.2445794083178043365478515625" lon="-71.144801191985607147216796875">
        <ele>931.20001220703125</ele>
        <time>2026-08-22T02:51:04.000Z</time>
        <extensions>
          <ns3:TrackPointExtension>
            <ns3:hr>122</ns3:hr>
            <ns3:cad>57</ns3:cad>
          </ns3:TrackPointExtension>
        </extensions>
      </trkpt>
      <trkpt lat="45.24459139443933963775634765625" lon="-71.14481049589812755584716796875">
        <ele>930.79998779296875</ele>
        <time>2026-08-22T02:51:05.000Z</time>
        <extensions>
          <ns3:TrackPointExtension>
            <ns3:hr>122</ns3:hr>
            <ns3:cad>57</ns3:cad>
          </ns3:TrackPointExtension>
        </extensions>
      </trkpt>
      <trkpt lat="45.2446069009602069854736328125" lon="-71.14481569267809391021728515625">
        <ele>930.5999755859375</ele>
        <time>2026-08-22T02:51:06.000Z</time>
        <extensions>
          <ns3:TrackPointExtension>
            <ns3:hr>122</ns3:hr>
            <ns3:cad>57</ns3:cad>
          </ns3:TrackPointExtension>
        </extensions>
      </trkpt>
      <trkpt lat="45.24462190456688404083251953125" lon="-71.14481627941131591796875">
        <ele>930.20001220703125</ele>
        <time>2026-08-22T02:51:07.000Z</time>
        <extensions>
          <ns3:TrackPointExtension>
            <ns3:hr>122</ns3:hr>
            <ns3:cad>57</ns3:cad>
          </ns3:TrackPointExtension>
        </extensions>
      </trkpt>
      <trkpt lat="45.24463581852614879608154296875" lon="-71.14480915479362010955810546875">
        <ele>929.79998779296875</ele>
        <time>2026-08-22T02:51:08.000Z</time>
        <extensions>
          <ns3:TrackPointExtension>
            <ns3:hr>122</ns3:hr>
            <ns3:cad>57</ns3:cad>
          </ns3:TrackPointExtension>
        </extensions>
      </trkpt>
      <trkpt lat="45.24464855901896953582763671875" lon="-71.14479775540530681610107421875">
        <ele>929.5999755859375</ele>
        <time>2026-08-22T02:51:09.000Z</time>
        <extensions>
          <ns3:TrackPointExtension>
            <ns3:hr>122</ns3:hr>
            <ns3:cad>0</ns3:cad>
          </ns3:TrackPointExtension>
        </extensions>
      </trkpt>
      <trkpt lat="45.244658030569553375244140625" lon="-71.1447882838547229766845703125">
        <ele>929.4000244140625</ele>
        <time>2026-08-22T02:51:10.000Z</time>
        <extensions>
          <ns3:TrackPointExtension>
            <ns3:hr>122</ns3:hr>
            <ns3:cad>0</ns3:cad>
          </ns3:TrackPointExtension>
        </extensions>
      </trkpt>
      <trkpt lat="45.24466750212013721466064453125" lon="-71.14477864466607570648193359375">
        <ele>929.20001220703125</ele>
        <time>2026-08-22T02:51:11.000Z</time>
        <extensions>
          <ns3:TrackPointExtension>
            <ns3:hr>122</ns3:hr>
            <ns3:cad>0</ns3:cad>
          </ns3:TrackPointExtension>
        </extensions>
      </trkpt>
      <trkpt lat="45.24467890150845050811767578125" lon="-71.14475919865071773529052734375">
        <ele>928.79998779296875</ele>
        <time>2026-08-22T02:51:12.000Z</time>
        <extensions>
          <ns3:TrackPointExtension>
            <ns3:hr>121</ns3:hr>
            <ns3:cad>0</ns3:cad>
          </ns3:TrackPointExtension>
        </extensions>
      </trkpt>
      <trkpt lat="45.2446803264319896697998046875" lon="-71.144743524491786956787109375">
        <ele>928.5999755859375</ele>
        <time>2026-08-22T02:51:13.000Z</time>
        <extensions>
          <ns3:TrackPointExtension>
            <ns3:hr>121</ns3:hr>
            <ns3:cad>0</ns3:cad>
          </ns3:TrackPointExtension>
        </extensions>
      </trkpt>
      <trkpt lat="45.24468074552714824676513671875" lon="-71.1447299458086490631103515625">
        <ele>928.4000244140625</ele>
        <time>2026-08-22T02:51:14.000Z</time>
        <extensions>
          <ns3:TrackPointExtension>
            <ns3:hr>121</ns3:hr>
            <ns3:cad>0</ns3:cad>
          </ns3:TrackPointExtension>
        </extensions>
      </trkpt>
      <trkpt lat="45.2446806617081165313720703125" lon="-71.14470723085105419158935546875">
        <ele>928.4000244140625</ele>
        <time>2026-08-22T02:51:15.000Z</time>
        <extensions>
          <ns3:TrackPointExtension>
            <ns3:hr>121</ns3:hr>
            <ns3:cad>0</ns3:cad>
          </ns3:TrackPointExtension>
        </extensions>
      </trkpt>
      <trkpt lat="45.24468476884067058563232421875" lon="-71.144685856997966766357421875">
        <ele>928.4000244140625</ele>
        <time>2026-08-22T02:51:16.000Z</time>
        <extensions>
          <ns3:TrackPointExtension>
            <ns3:hr>120</ns3:hr>
            <ns3:cad>0</ns3:cad>
          </ns3:TrackPointExtension>
        </extensions>
      </trkpt>
      <trkpt lat="45.244691558182239532470703125" lon="-71.1446662433445453643798828125">
        <ele>928.4000244140625</ele>
        <time>2026-08-22T02:51:17.000Z</time>
        <extensions>
          <ns3:TrackPointExtension>
            <ns3:hr>120</ns3:hr>
            <ns3:cad>0</ns3:cad>
          </ns3:TrackPointExtension>
        </extensions>
      </trkpt>
      <trkpt lat="45.24469583295285701751708984375" lon="-71.14463967271149158477783203125">
        <ele>928.20001220703125</ele>
        <time>2026-08-22T02:51:18.000Z</time>
        <extensions>
          <ns3:TrackPointExtension>
            <ns3:hr>120</ns3:hr>
            <ns3:cad>0</ns3:cad>
          </ns3:TrackPointExtension>
        </extensions>
      </trkpt>
      <trkpt lat="45.2447001077234745025634765625" lon="-71.144615449011325836181640625">
        <ele>928</ele>
        <time>2026-08-22T02:51:19.000Z</time>
        <extensions>
          <ns3:TrackPointExtension>
            <ns3:hr>120</ns3:hr>
            <ns3:cad>0</ns3:cad>
          </ns3:TrackPointExtension>
        </extensions>
      </trkpt>
      <trkpt lat="45.24470823816955089569091796875" lon="-71.1445944942533969879150390625">
        <ele>927.79998779296875</ele>
        <time>2026-08-22T02:51:20.000Z</time>
        <extensions>
          <ns3:TrackPointExtension>
            <ns3:hr>119</ns3:hr>
            <ns3:cad>0</ns3:cad>
          </ns3:TrackPointExtension>
        </extensions>
      </trkpt>
      <trkpt lat="45.24471611715853214263916015625" lon="-71.1445730365812778472900390625">
        <ele>927.79998779296875</ele>
        <time>2026-08-22T02:51:21.000Z</time>
        <extensions>
          <ns3:TrackPointExtension>
            <ns3:hr>118</ns3:hr>
            <ns3:cad>0</ns3:cad>
          </ns3:TrackPointExtension>
        </extensions>
      </trkpt>
      <trkpt lat="45.24472231976687908172607421875" lon="-71.1445411853492259979248046875">
        <ele>927.79998779296875</ele>
        <time>2026-08-22T02:51:22.000Z</time>
        <extensions>
          <ns3:TrackPointExtension>
            <ns3:hr>117</ns3:hr>
            <ns3:cad>62</ns3:cad>
          </ns3:TrackPointExtension>
        </extensions>
      </trkpt>
      <trkpt lat="45.24472366087138652801513671875" lon="-71.14451796747744083404541015625">
        <ele>927.79998779296875</ele>
        <time>2026-08-22T02:51:23.000Z</time>
        <extensions>
          <ns3:TrackPointExtension>
            <ns3:hr>117</ns3:hr>
            <ns3:cad>62</ns3:cad>
          </ns3:TrackPointExtension>
        </extensions>
      </trkpt>
      <trkpt lat="45.24472718127071857452392578125" lon="-71.14450120367109775543212890625">
        <ele>927.79998779296875</ele>
        <time>2026-08-22T02:51:24.000Z</time>
        <extensions>
          <ns3:TrackPointExtension>
            <ns3:hr>117</ns3:hr>
            <ns3:cad>62</ns3:cad>
          </ns3:TrackPointExtension>
        </extensions>
      </trkpt>
      <trkpt lat="45.24473221041262149810791015625" lon="-71.14448611624538898468017578125">
        <ele>927.5999755859375</ele>
        <time>2026-08-22T02:51:25.000Z</time>
        <extensions>
          <ns3:TrackPointExtension>
            <ns3:hr>117</ns3:hr>
            <ns3:cad>62</ns3:cad>
          </ns3:TrackPointExtension>
        </extensions>
      </trkpt>
      <trkpt lat="45.244738496840000152587890625" lon="-71.1444650776684284210205078125">
        <ele>927.4000244140625</ele>
        <time>2026-08-22T02:51:26.000Z</time>
        <extensions>
          <ns3:TrackPointExtension>
            <ns3:hr>118</ns3:hr>
            <ns3:cad>62</ns3:cad>
          </ns3:TrackPointExtension>
        </extensions>
      </trkpt>
      <trkpt lat="45.24474327452480792999267578125" lon="-71.14444571547210216522216796875">
        <ele>927.20001220703125</ele>
        <time>2026-08-22T02:51:27.000Z</time>
        <extensions>
          <ns3:TrackPointExtension>
            <ns3:hr>118</ns3:hr>
            <ns3:cad>62</ns3:cad>
          </ns3:TrackPointExtension>
        </extensions>
      </trkpt>
      <trkpt lat="45.24474042467772960662841796875" lon="-71.1444134451448917388916015625">
        <ele>927</ele>
        <time>2026-08-22T02:51:28.000Z</time>
        <extensions>
          <ns3:TrackPointExtension>
            <ns3:hr>118</ns3:hr>
            <ns3:cad>62</ns3:cad>
          </ns3:TrackPointExtension>
        </extensions>
      </trkpt>
      <trkpt lat="45.24473975412547588348388671875" lon="-71.1443929933011531829833984375">
        <ele>927</ele>
        <time>2026-08-22T02:51:29.000Z</time>
        <extensions>
          <ns3:TrackPointExtension>
            <ns3:hr>118</ns3:hr>
            <ns3:cad>62</ns3:cad>
          </ns3:TrackPointExtension>
        </extensions>
      </trkpt>
      <trkpt lat="45.24473908357322216033935546875" lon="-71.1443777382373809814453125">
        <ele>927</ele>
        <time>2026-08-22T02:51:30.000Z</time>
        <extensions>
          <ns3:TrackPointExtension>
            <ns3:hr>118</ns3:hr>
            <ns3:cad>62</ns3:cad>
          </ns3:TrackPointExtension>
        </extensions>
      </trkpt>
      <trkpt lat="45.244735814630985260009765625" lon="-71.14436105825006961822509765625">
        <ele>927</ele>
        <time>2026-08-22T02:51:31.000Z</time>
        <extensions>
          <ns3:TrackPointExtension>
            <ns3:hr>119</ns3:hr>
            <ns3:cad>62</ns3:cad>
          </ns3:TrackPointExtension>
        </extensions>
      </trkpt>
      <trkpt lat="45.2447329647839069366455078125" lon="-71.14434043876826763153076171875">
        <ele>927.20001220703125</ele>
        <time>2026-08-22T02:51:32.000Z</time>
        <extensions>
          <ns3:TrackPointExtension>
            <ns3:hr>120</ns3:hr>
            <ns3:cad>62</ns3:cad>
          </ns3:TrackPointExtension>
        </extensions>
      </trkpt>
      <trkpt lat="45.2447353117167949676513671875" lon="-71.1443262733519077301025390625">
        <ele>927.20001220703125</ele>
        <time>2026-08-22T02:51:33.000Z</time>
        <extensions>
          <ns3:TrackPointExtension>
            <ns3:hr>120</ns3:hr>
            <ns3:cad>62</ns3:cad>
          </ns3:TrackPointExtension>
        </extensions>
      </trkpt>
      <trkpt lat="45.24473723955452442169189453125" lon="-71.1443061567842960357666015625">
        <ele>927</ele>
        <time>2026-08-22T02:51:34.000Z</time>
        <extensions>
          <ns3:TrackPointExtension>
            <ns3:hr>120</ns3:hr>
            <ns3:cad>62</ns3:cad>
          </ns3:TrackPointExtension>
        </extensions>
      </trkpt>
      <trkpt lat="45.24474042467772960662841796875" lon="-71.144290901720523834228515625">
        <ele>926.79998779296875</ele>
        <time>2026-08-22T02:51:35.000Z</time>
        <extensions>
          <ns3:TrackPointExtension>
            <ns3:hr>120</ns3:hr>
            <ns3:cad>62</ns3:cad>
          </ns3:TrackPointExtension>
        </extensions>
      </trkpt>
      <trkpt lat="45.24474821984767913818359375" lon="-71.14426600746810436248779296875">
        <ele>926.5999755859375</ele>
        <time>2026-08-22T02:51:36.000Z</time>
        <extensions>
          <ns3:TrackPointExtension>
            <ns3:hr>121</ns3:hr>
            <ns3:cad>62</ns3:cad>
          </ns3:TrackPointExtension>
        </extensions>
      </trkpt>
      <trkpt lat="45.24475551210343837738037109375" lon="-71.14424807019531726837158203125">
        <ele>926.20001220703125</ele>
        <time>2026-08-22T02:51:37.000Z</time>
        <extensions>
          <ns3:TrackPointExtension>
            <ns3:hr>121</ns3:hr>
            <ns3:cad>62</ns3:cad>
          </ns3:TrackPointExtension>
        </extensions>
      </trkpt>
      <trkpt lat="45.24475492537021636962890625" lon="-71.1442297138273715972900390625">
        <ele>926</ele>
        <time>2026-08-22T02:51:38.000Z</time>
        <extensions>
          <ns3:TrackPointExtension>
            <ns3:hr>121</ns3:hr>
            <ns3:cad>62</ns3:cad>
          </ns3:TrackPointExtension>
        </extensions>
      </trkpt>
      <trkpt lat="45.24475534446537494659423828125" lon="-71.14421211183071136474609375">
        <ele>925.5999755859375</ele>
        <time>2026-08-22T02:51:39.000Z</time>
        <extensions>
          <ns3:TrackPointExtension>
            <ns3:hr>121</ns3:hr>
            <ns3:cad>62</ns3:cad>
          </ns3:TrackPointExtension>
        </extensions>
      </trkpt>
      <trkpt lat="45.24476422928273677825927734375" lon="-71.14418487064540386199951171875">
        <ele>925.20001220703125</ele>
        <time>2026-08-22T02:51:40.000Z</time>
        <extensions>
          <ns3:TrackPointExtension>
            <ns3:hr>121</ns3:hr>
            <ns3:cad>71</ns3:cad>
          </ns3:TrackPointExtension>
        </extensions>
      </trkpt>
      <trkpt lat="45.2447725273668766021728515625" lon="-71.14416710101068019866943359375">
        <ele>924.79998779296875</ele>
        <time>2026-08-22T02:51:41.000Z</time>
        <extensions>
          <ns3:TrackPointExtension>
            <ns3:hr>121</ns3:hr>
            <ns3:cad>0</ns3:cad>
          </ns3:TrackPointExtension>
        </extensions>
      </trkpt>
      <trkpt lat="45.24477965198457241058349609375" lon="-71.1441569589078426361083984375">
        <ele>924.4000244140625</ele>
        <time>2026-08-22T02:51:42.000Z</time>
        <extensions>
          <ns3:TrackPointExtension>
            <ns3:hr>120</ns3:hr>
            <ns3:cad>0</ns3:cad>
          </ns3:TrackPointExtension>
        </extensions>
      </trkpt>
      <trkpt lat="45.24478518404066562652587890625" lon="-71.14415821619331836700439453125">
        <ele>924</ele>
        <time>2026-08-22T02:51:43.000Z</time>
        <extensions>
          <ns3:TrackPointExtension>
            <ns3:hr>120</ns3:hr>
            <ns3:cad>0</ns3:cad>
          </ns3:TrackPointExtension>
        </extensions>
      </trkpt>
      <trkpt lat="45.24479356594383716583251953125" lon="-71.14416609518229961395263671875">
        <ele>923.5999755859375</ele>
        <time>2026-08-22T02:51:44.000Z</time>
        <extensions>
          <ns3:TrackPointExtension>
            <ns3:hr>120</ns3:hr>
            <ns3:cad>0</ns3:cad>
          </ns3:TrackPointExtension>
        </extensions>
      </trkpt>
      <trkpt lat="45.2447986789047718048095703125" lon="-71.1441723816096782684326171875">
        <ele>923.4000244140625</ele>
        <time>2026-08-22T02:51:45.000Z</time>
        <extensions>
          <ns3:TrackPointExtension>
            <ns3:hr>120</ns3:hr>
            <ns3:cad>0</ns3:cad>
          </ns3:TrackPointExtension>
        </extensions>
      </trkpt>
      <trkpt lat="45.24480965919792652130126953125" lon="-71.14418453536927700042724609375">
        <ele>923.20001220703125</ele>
        <time>2026-08-22T02:51:46.000Z</time>
        <extensions>
          <ns3:TrackPointExtension>
            <ns3:hr>120</ns3:hr>
            <ns3:cad>0</ns3:cad>
          </ns3:TrackPointExtension>
        </extensions>
      </trkpt>
      <trkpt lat="45.24481661617755889892578125" lon="-71.144189648330211639404296875">
        <ele>923</ele>
        <time>2026-08-22T02:51:47.000Z</time>
        <extensions>
          <ns3:TrackPointExtension>
            <ns3:hr>120</ns3:hr>
            <ns3:cad>0</ns3:cad>
          </ns3:TrackPointExtension>
        </extensions>
      </trkpt>
      <trkpt lat="45.2448238246142864227294921875" lon="-71.144195683300495147705078125">
        <ele>922.79998779296875</ele>
        <time>2026-08-22T02:51:48.000Z</time>
        <extensions>
          <ns3:TrackPointExtension>
            <ns3:hr>120</ns3:hr>
            <ns3:cad>0</ns3:cad>
          </ns3:TrackPointExtension>
        </extensions>
      </trkpt>
      <trkpt lat="45.2448275126516819000244140625" lon="-71.1442033946514129638671875">
        <ele>922.5999755859375</ele>
        <time>2026-08-22T02:51:49.000Z</time>
        <extensions>
          <ns3:TrackPointExtension>
            <ns3:hr>119</ns3:hr>
            <ns3:cad>0</ns3:cad>
          </ns3:TrackPointExtension>
        </extensions>
      </trkpt>
      <trkpt lat="45.2448288537561893463134765625" lon="-71.14420984871685504913330078125">
        <ele>922.4000244140625</ele>
        <time>2026-08-22T02:51:50.000Z</time>
        <extensions>
          <ns3:TrackPointExtension>
            <ns3:hr>119</ns3:hr>
            <ns3:cad>0</ns3:cad>
          </ns3:TrackPointExtension>
        </extensions>
      </trkpt>
      <trkpt lat="45.24481929838657379150390625" lon="-71.1442300491034984588623046875">
        <ele>922.20001220703125</ele>
        <time>2026-08-22T02:51:51.000Z</time>
        <extensions>
          <ns3:TrackPointExtension>
            <ns3:hr>117</ns3:hr>
            <ns3:cad>0</ns3:cad>
          </ns3:TrackPointExtension>
        </extensions>
      </trkpt>
      <trkpt lat="45.244818627834320068359375" lon="-71.14423231221735477447509765625">
        <ele>922</ele>
        <time>2026-08-22T02:51:52.000Z</time>
        <extensions>
          <ns3:TrackPointExtension>
            <ns3:hr>115</ns3:hr>
            <ns3:cad>0</ns3:cad>
          </ns3:TrackPointExtension>
        </extensions>
      </trkpt>
      <trkpt lat="45.2448201365768909454345703125" lon="-71.14423759281635284423828125">
        <ele>922</ele>
        <time>2026-08-22T02:51:53.000Z</time>
        <extensions>
          <ns3:TrackPointExtension>
            <ns3:hr>113</ns3:hr>
            <ns3:cad>0</ns3:cad>
          </ns3:TrackPointExtension>
        </extensions>
      </trkpt>
      <trkpt lat="45.24482038803398609161376953125" lon="-71.1442488245666027069091796875">
        <ele>921.79998779296875</ele>
        <time>2026-08-22T02:51:54.000Z</time>
        <extensions>
          <ns3:TrackPointExtension>
            <ns3:hr>112</ns3:hr>
            <ns3:cad>0</ns3:cad>
          </ns3:TrackPointExtension>
        </extensions>
      </trkpt>
      <trkpt lat="45.2448238246142864227294921875" lon="-71.14425846375524997711181640625">
        <ele>921.79998779296875</ele>
        <time>2026-08-22T02:51:55.000Z</time>
        <extensions>
          <ns3:TrackPointExtension>
            <ns3:hr>113</ns3:hr>
            <ns3:cad>0</ns3:cad>
          </ns3:TrackPointExtension>
        </extensions>
      </trkpt>
      <trkpt lat="45.24482994340360164642333984375" lon="-71.14426315762102603912353515625">
        <ele>921.79998779296875</ele>
        <time>2026-08-22T02:51:56.000Z</time>
        <extensions>
          <ns3:TrackPointExtension>
            <ns3:hr>115</ns3:hr>
            <ns3:cad>0</ns3:cad>
          </ns3:TrackPointExtension>
        </extensions>
      </trkpt>
      <trkpt lat="45.24484050460159778594970703125" lon="-71.1442716233432292938232421875">
        <ele>921.5999755859375</ele>
        <time>2026-08-22T02:51:57.000Z</time>
        <extensions>
          <ns3:TrackPointExtension>
            <ns3:hr>116</ns3:hr>
            <ns3:cad>0</ns3:cad>
          </ns3:TrackPointExtension>
        </extensions>
      </trkpt>
      <trkpt lat="45.244849137961864471435546875" lon="-71.14426936022937297821044921875">
        <ele>921.4000244140625</ele>
        <time>2026-08-22T02:51:58.000Z</time>
        <extensions>
          <ns3:TrackPointExtension>
            <ns3:hr>115</ns3:hr>
            <ns3:cad>0</ns3:cad>
          </ns3:TrackPointExtension>
        </extensions>
      </trkpt>
      <trkpt lat="45.24485643021762371063232421875" lon="-71.1442645825445652008056640625">
        <ele>921</ele>
        <time>2026-08-22T02:51:59.000Z</time>
        <extensions>
          <ns3:TrackPointExtension>
            <ns3:hr>115</ns3:hr>
            <ns3:cad>0</ns3:cad>
          </ns3:TrackPointExtension>
        </extensions>
      </trkpt>
      <trkpt lat="45.24486766196787357330322265625" lon="-71.1442558653652667999267578125">
        <ele>920.79998779296875</ele>
        <time>2026-08-22T02:52:00.000Z</time>
        <extensions>
          <ns3:TrackPointExtension>
            <ns3:hr>115</ns3:hr>
            <ns3:cad>0</ns3:cad>
          </ns3:TrackPointExtension>
        </extensions>
      </trkpt>
      <trkpt lat="45.2448764629662036895751953125" lon="-71.144247315824031829833984375">
        <ele>920.4000244140625</ele>
        <time>2026-08-22T02:52:01.000Z</time>
        <extensions>
          <ns3:TrackPointExtension>
            <ns3:hr>116</ns3:hr>
            <ns3:cad>0</ns3:cad>
          </ns3:TrackPointExtension>
        </extensions>
      </trkpt>
      <trkpt lat="45.244879312813282012939453125" lon="-71.14424320869147777557373046875">
        <ele>920</ele>
        <time>2026-08-22T02:52:02.000Z</time>
        <extensions>
          <ns3:TrackPointExtension>
            <ns3:hr>116</ns3:hr>
            <ns3:cad>0</ns3:cad>
          </ns3:TrackPointExtension>
        </extensions>
      </trkpt>
      <trkpt lat="45.2448747865855693817138671875" lon="-71.1442444659769535064697265625">
        <ele>919.79998779296875</ele>
        <time>2026-08-22T02:52:03.000Z</time>
        <extensions>
          <ns3:TrackPointExtension>
            <ns3:hr>117</ns3:hr>
            <ns3:cad>0</ns3:cad>
          </ns3:TrackPointExtension>
        </extensions>
      </trkpt>
      <trkpt lat="45.2448778040707111358642578125" lon="-71.14424488507211208343505859375">
        <ele>919.5999755859375</ele>
        <time>2026-08-22T02:52:04.000Z</time>
        <extensions>
          <ns3:TrackPointExtension>
            <ns3:hr>118</ns3:hr>
            <ns3:cad>0</ns3:cad>
          </ns3:TrackPointExtension>
        </extensions>
      </trkpt>
      <trkpt lat="45.24488040246069431304931640625" lon="-71.1442441307008266448974609375">
        <ele>919.4000244140625</ele>
        <time>2026-08-22T02:52:05.000Z</time>
        <extensions>
          <ns3:TrackPointExtension>
            <ns3:hr>119</ns3:hr>
            <ns3:cad>0</ns3:cad>
          </ns3:TrackPointExtension>
        </extensions>
      </trkpt>
      <trkpt lat="45.244879312813282012939453125" lon="-71.1442441307008266448974609375">
        <ele>919.4000244140625</ele>
        <time>2026-08-22T02:52:06.000Z</time>
        <extensions>
          <ns3:TrackPointExtension>
            <ns3:hr>119</ns3:hr>
            <ns3:cad>0</ns3:cad>
          </ns3:TrackPointExtension>
        </extensions>
      </trkpt>
      <trkpt lat="45.244882665574550628662109375" lon="-71.14424429833889007568359375">
        <ele>919.4000244140625</ele>
        <time>2026-08-22T02:52:07.000Z</time>
        <extensions>
          <ns3:TrackPointExtension>
            <ns3:hr>120</ns3:hr>
            <ns3:cad>0</ns3:cad>
          </ns3:TrackPointExtension>
        </extensions>
      </trkpt>
      <trkpt lat="45.24488425813615322113037109375" lon="-71.14424522034823894500732421875">
        <ele>919.20001220703125</ele>
        <time>2026-08-22T02:52:08.000Z</time>
        <extensions>
          <ns3:TrackPointExtension>
            <ns3:hr>120</ns3:hr>
            <ns3:cad>0</ns3:cad>
          </ns3:TrackPointExtension>
        </extensions>
      </trkpt>
      <trkpt lat="45.2448818273842334747314453125" lon="-71.14425578154623508453369140625">
        <ele>919</ele>
        <time>2026-08-22T02:52:09.000Z</time>
        <extensions>
          <ns3:TrackPointExtension>
            <ns3:hr>120</ns3:hr>
            <ns3:cad>0</ns3:cad>
          </ns3:TrackPointExtension>
        </extensions>
      </trkpt>
      <trkpt lat="45.2448831684887409210205078125" lon="-71.14426709711551666259765625">
        <ele>918.79998779296875</ele>
        <time>2026-08-22T02:52:10.000Z</time>
        <extensions>
          <ns3:TrackPointExtension>
            <ns3:hr>120</ns3:hr>
            <ns3:cad>0</ns3:cad>
          </ns3:TrackPointExtension>
        </extensions>
      </trkpt>
      <trkpt lat="45.24489079602062702178955078125" lon="-71.14427606575191020965576171875">
        <ele>918.5999755859375</ele>
        <time>2026-08-22T02:52:11.000Z</time>
        <extensions>
          <ns3:TrackPointExtension>
            <ns3:hr>119</ns3:hr>
            <ns3:cad>0</ns3:cad>
          </ns3:TrackPointExtension>
        </extensions>
      </trkpt>
      <trkpt lat="45.24489917792379856109619140625" lon="-71.1442850343883037567138671875">
        <ele>918.4000244140625</ele>
        <time>2026-08-22T02:52:12.000Z</time>
        <extensions>
          <ns3:TrackPointExtension>
            <ns3:hr>118</ns3:hr>
            <ns3:cad>0</ns3:cad>
          </ns3:TrackPointExtension>
        </extensions>
      </trkpt>
      <trkpt lat="45.2448995970189571380615234375" lon="-71.144296936690807342529296875">
        <ele>918.20001220703125</ele>
        <time>2026-08-22T02:52:13.000Z</time>
        <extensions>
          <ns3:TrackPointExtension>
            <ns3:hr>116</ns3:hr>
            <ns3:cad>0</ns3:cad>
          </ns3:TrackPointExtension>
        </extensions>
      </trkpt>
      <trkpt lat="45.2449002675712108612060546875" lon="-71.1443105153739452362060546875">
        <ele>918.20001220703125</ele>
        <time>2026-08-22T02:52:14.000Z</time>
        <extensions>
          <ns3:TrackPointExtension>
            <ns3:hr>116</ns3:hr>
            <ns3:cad>0</ns3:cad>
          </ns3:TrackPointExtension>
        </extensions>
      </trkpt>
      <trkpt lat="45.24490672163665294647216796875" lon="-71.144328452646732330322265625">
        <ele>918</ele>
        <time>2026-08-22T02:52:15.000Z</time>
        <extensions>
          <ns3:TrackPointExtension>
            <ns3:hr>115</ns3:hr>
            <ns3:cad>0</ns3:cad>
          </ns3:TrackPointExtension>
        </extensions>
      </trkpt>
      <trkpt lat="45.2449133433401584625244140625" lon="-71.14434613846242427825927734375">
        <ele>918</ele>
        <time>2026-08-22T02:52:16.000Z</time>
        <extensions>
          <ns3:TrackPointExtension>
            <ns3:hr>115</ns3:hr>
            <ns3:cad>45</ns3:cad>
          </ns3:TrackPointExtension>
        </extensions>
      </trkpt>
      <trkpt lat="45.2449192106723785400390625" lon="-71.1443562805652618408203125">
        <ele>917.79998779296875</ele>
        <time>2026-08-22T02:52:17.000Z</time>
        <extensions>
          <ns3:TrackPointExtension>
            <ns3:hr>115</ns3:hr>
            <ns3:cad>45</ns3:cad>
          </ns3:TrackPointExtension>
        </extensions>
      </trkpt>
      <trkpt lat="45.24492683820426464080810546875" lon="-71.1443547718226909637451171875">
        <ele>917.5999755859375</ele>
        <time>2026-08-22T02:52:18.000Z</time>
        <extensions>
          <ns3:TrackPointExtension>
            <ns3:hr>115</ns3:hr>
            <ns3:cad>45</ns3:cad>
          </ns3:TrackPointExtension>
        </extensions>
      </trkpt>
      <trkpt lat="45.24493773467838764190673828125" lon="-71.144352592527866363525390625">
        <ele>917.4000244140625</ele>
        <time>2026-08-22T02:52:19.000Z</time>
        <extensions>
          <ns3:TrackPointExtension>
            <ns3:hr>115</ns3:hr>
            <ns3:cad>64</ns3:cad>
          </ns3:TrackPointExtension>
        </extensions>
      </trkpt>
      <trkpt lat="45.24494192562997341156005859375" lon="-71.1443509161472320556640625">
        <ele>917.20001220703125</ele>
        <time>2026-08-22T02:52:20.000Z</time>
        <extensions>
          <ns3:TrackPointExtension>
            <ns3:hr>115</ns3:hr>
            <ns3:cad>64</ns3:cad>
          </ns3:TrackPointExtension>
        </extensions>
      </trkpt>
      <trkpt lat="45.2449475415050983428955078125" lon="-71.1443482339382171630859375">
        <ele>916.79998779296875</ele>
        <time>2026-08-22T02:52:21.000Z</time>
        <extensions>
          <ns3:TrackPointExtension>
            <ns3:hr>115</ns3:hr>
            <ns3:cad>0</ns3:cad>
          </ns3:TrackPointExtension>
        </extensions>
      </trkpt>
      <trkpt lat="45.2449482120573520660400390625" lon="-71.14434898830950260162353515625">
        <ele>916.5999755859375</ele>
        <time>2026-08-22T02:52:22.000Z</time>
        <extensions>
          <ns3:TrackPointExtension>
            <ns3:hr>115</ns3:hr>
            <ns3:cad>0</ns3:cad>
          </ns3:TrackPointExtension>
        </extensions>
      </trkpt>
      <trkpt lat="45.244951061904430389404296875" lon="-71.14435217343270778656005859375">
        <ele>916.4000244140625</ele>
        <time>2026-08-22T02:52:23.000Z</time>
        <extensions>
          <ns3:TrackPointExtension>
            <ns3:hr>116</ns3:hr>
            <ns3:cad>0</ns3:cad>
          </ns3:TrackPointExtension>
        </extensions>
      </trkpt>
      <trkpt lat="45.24496053345501422882080078125" lon="-71.1443628184497356414794921875">
        <ele>916.4000244140625</ele>
        <time>2026-08-22T02:52:24.000Z</time>
        <extensions>
          <ns3:TrackPointExtension>
            <ns3:hr>116</ns3:hr>
            <ns3:cad>0</ns3:cad>
          </ns3:TrackPointExtension>
        </extensions>
      </trkpt>
      <trkpt lat="45.24496681988239288330078125" lon="-71.1443712003529071807861328125">
        <ele>916.4000244140625</ele>
        <time>2026-08-22T02:52:25.000Z</time>
        <extensions>
          <ns3:TrackPointExtension>
            <ns3:hr>116</ns3:hr>
            <ns3:cad>0</ns3:cad>
          </ns3:TrackPointExtension>
        </extensions>
      </trkpt>
      <trkpt lat="45.24497461505234241485595703125" lon="-71.14437983371317386627197265625">
        <ele>916.20001220703125</ele>
        <time>2026-08-22T02:52:26.000Z</time>
        <extensions>
          <ns3:TrackPointExtension>
            <ns3:hr>116</ns3:hr>
            <ns3:cad>0</ns3:cad>
          </ns3:TrackPointExtension>
        </extensions>
      </trkpt>
      <trkpt lat="45.2449753694236278533935546875" lon="-71.14438352175056934356689453125">
        <ele>916.20001220703125</ele>
        <time>2026-08-22T02:52:27.000Z</time>
        <extensions>
          <ns3:TrackPointExtension>
            <ns3:hr>117</ns3:hr>
            <ns3:cad>0</ns3:cad>
          </ns3:TrackPointExtension>
        </extensions>
      </trkpt>
      <trkpt lat="45.2449780516326427459716796875" lon="-71.14438871853053569793701171875">
        <ele>916.20001220703125</ele>
        <time>2026-08-22T02:52:28.000Z</time>
        <extensions>
          <ns3:TrackPointExtension>
            <ns3:hr>117</ns3:hr>
            <ns3:cad>0</ns3:cad>
          </ns3:TrackPointExtension>
        </extensions>
      </trkpt>
      <trkpt lat="45.2449837513267993927001953125" lon="-71.144390814006328582763671875">
        <ele>916</ele>
        <time>2026-08-22T02:52:29.000Z</time>
        <extensions>
          <ns3:TrackPointExtension>
            <ns3:hr>118</ns3:hr>
            <ns3:cad>0</ns3:cad>
          </ns3:TrackPointExtension>
        </extensions>
      </trkpt>
      <trkpt lat="45.24498618207871913909912109375" lon="-71.14439190365374088287353515625">
        <ele>916</ele>
        <time>2026-08-22T02:52:30.000Z</time>
        <extensions>
          <ns3:TrackPointExtension>
            <ns3:hr>118</ns3:hr>
            <ns3:cad>0</ns3:cad>
          </ns3:TrackPointExtension>
        </extensions>
      </trkpt>
      <trkpt lat="45.24498936720192432403564453125" lon="-71.14439525641500949859619140625">
        <ele>915.79998779296875</ele>
        <time>2026-08-22T02:52:31.000Z</time>
        <extensions>
          <ns3:TrackPointExtension>
            <ns3:hr>118</ns3:hr>
            <ns3:cad>0</ns3:cad>
          </ns3:TrackPointExtension>
        </extensions>
      </trkpt>
      <trkpt lat="45.24499322287738323211669921875" lon="-71.14439492113888263702392578125">
        <ele>915.79998779296875</ele>
        <time>2026-08-22T02:52:32.000Z</time>
        <extensions>
          <ns3:TrackPointExtension>
            <ns3:hr>118</ns3:hr>
            <ns3:cad>0</ns3:cad>
          </ns3:TrackPointExtension>
        </extensions>
      </trkpt>
      <trkpt lat="45.2449948154389858245849609375" lon="-71.1443943344056606292724609375">
        <ele>915.4000244140625</ele>
        <time>2026-08-22T02:52:33.000Z</time>
        <extensions>
          <ns3:TrackPointExtension>
            <ns3:hr>118</ns3:hr>
            <ns3:cad>0</ns3:cad>
          </ns3:TrackPointExtension>
        </extensions>
      </trkpt>
      <trkpt lat="45.24500034749507904052734375" lon="-71.14439676515758037567138671875">
        <ele>915.20001220703125</ele>
        <time>2026-08-22T02:52:34.000Z</time>
        <extensions>
          <ns3:TrackPointExtension>
            <ns3:hr>118</ns3:hr>
            <ns3:cad>0</ns3:cad>
          </ns3:TrackPointExtension>
        </extensions>
      </trkpt>
      <trkpt lat="45.24500445462763309478759765625" lon="-71.14439743570983409881591796875">
        <ele>915</ele>
        <time>2026-08-22T02:52:35.000Z</time>
        <extensions>
          <ns3:TrackPointExtension>
            <ns3:hr>118</ns3:hr>
            <ns3:cad>0</ns3:cad>
          </ns3:TrackPointExtension>
        </extensions>
      </trkpt>
      <trkpt lat="45.24500981904566287994384765625" lon="-71.14439986646175384521484375">
        <ele>914.5999755859375</ele>
        <time>2026-08-22T02:52:36.000Z</time>
        <extensions>
          <ns3:TrackPointExtension>
            <ns3:hr>118</ns3:hr>
            <ns3:cad>0</ns3:cad>
          </ns3:TrackPointExtension>
        </extensions>
      </trkpt>
      <trkpt lat="45.2450102381408214569091796875" lon="-71.144400872290134429931640625">
        <ele>914.20001220703125</ele>
        <time>2026-08-22T02:52:37.000Z</time>
        <extensions>
          <ns3:TrackPointExtension>
            <ns3:hr>117</ns3:hr>
            <ns3:cad>0</ns3:cad>
          </ns3:TrackPointExtension>
        </extensions>
      </trkpt>
      <trkpt lat="45.24500160478055477142333984375" lon="-71.1444064043462276458740234375">
        <ele>914</ele>
        <time>2026-08-22T02:52:38.000Z</time>
        <extensions>
          <ns3:TrackPointExtension>
            <ns3:hr>117</ns3:hr>
            <ns3:cad>0</ns3:cad>
          </ns3:TrackPointExtension>
        </extensions>
      </trkpt>
      <trkpt lat="45.2449968270957469940185546875" lon="-71.14441872574388980865478515625">
        <ele>913.79998779296875</ele>
        <time>2026-08-22T02:52:39.000Z</time>
        <extensions>
          <ns3:TrackPointExtension>
            <ns3:hr>117</ns3:hr>
            <ns3:cad>0</ns3:cad>
          </ns3:TrackPointExtension>
        </extensions>
      </trkpt>
      <trkpt lat="45.244998000562191009521484375" lon="-71.14442710764706134796142578125">
        <ele>913.79998779296875</ele>
        <time>2026-08-22T02:52:40.000Z</time>
        <extensions>
          <ns3:TrackPointExtension>
            <ns3:hr>116</ns3:hr>
            <ns3:cad>0</ns3:cad>
          </ns3:TrackPointExtension>
        </extensions>
      </trkpt>
      <trkpt lat="45.24500143714249134063720703125" lon="-71.14444286562502384185791015625">
        <ele>913.79998779296875</ele>
        <time>2026-08-22T02:52:41.000Z</time>
        <extensions>
          <ns3:TrackPointExtension>
            <ns3:hr>115</ns3:hr>
            <ns3:cad>0</ns3:cad>
          </ns3:TrackPointExtension>
        </extensions>
      </trkpt>
      <trkpt lat="45.245004706084728240966796875" lon="-71.1444590426981449127197265625">
        <ele>913.79998779296875</ele>
        <time>2026-08-22T02:52:42.000Z</time>
        <extensions>
          <ns3:TrackPointExtension>
            <ns3:hr>114</ns3:hr>
            <ns3:cad>0</ns3:cad>
          </ns3:TrackPointExtension>
        </extensions>
      </trkpt>
      <trkpt lat="45.2450129203498363494873046875" lon="-71.14447765052318572998046875">
        <ele>913.79998779296875</ele>
        <time>2026-08-22T02:52:43.000Z</time>
        <extensions>
          <ns3:TrackPointExtension>
            <ns3:hr>114</ns3:hr>
            <ns3:cad>0</ns3:cad>
          </ns3:TrackPointExtension>
        </extensions>
      </trkpt>
      <trkpt lat="45.24502289481461048126220703125" lon="-71.1444952525198459625244140625">
        <ele>913.5999755859375</ele>
        <time>2026-08-22T02:52:44.000Z</time>
        <extensions>
          <ns3:TrackPointExtension>
            <ns3:hr>113</ns3:hr>
            <ns3:cad>0</ns3:cad>
          </ns3:TrackPointExtension>
        </extensions>
      </trkpt>
      <trkpt lat="45.24503521621227264404296875" lon="-71.14450992085039615631103515625">
        <ele>913.4000244140625</ele>
        <time>2026-08-22T02:52:45.000Z</time>
        <extensions>
          <ns3:TrackPointExtension>
            <ns3:hr>113</ns3:hr>
            <ns3:cad>0</ns3:cad>
          </ns3:TrackPointExtension>
        </extensions>
      </trkpt>
      <trkpt lat="45.24504938162863254547119140625" lon="-71.1445237509906291961669921875">
        <ele>913</ele>
        <time>2026-08-22T02:52:46.000Z</time>
        <extensions>
          <ns3:TrackPointExtension>
            <ns3:hr>113</ns3:hr>
            <ns3:cad>0</ns3:cad>
          </ns3:TrackPointExtension>
        </extensions>
      </trkpt>
      <trkpt lat="45.24506270885467529296875" lon="-71.14454193972051143646240234375">
        <ele>912.5999755859375</ele>
        <time>2026-08-22T02:52:47.000Z</time>
        <extensions>
          <ns3:TrackPointExtension>
            <ns3:hr>113</ns3:hr>
            <ns3:cad>0</ns3:cad>
          </ns3:TrackPointExtension>
        </extensions>
      </trkpt>
      <trkpt lat="45.2450766228139400482177734375" lon="-71.1445505730807781219482421875">
        <ele>912.20001220703125</ele>
        <time>2026-08-22T02:52:48.000Z</time>
        <extensions>
          <ns3:TrackPointExtension>
            <ns3:hr>113</ns3:hr>
            <ns3:cad>0</ns3:cad>
          </ns3:TrackPointExtension>
        </extensions>
      </trkpt>
      <trkpt lat="45.2450907044112682342529296875" lon="-71.144557110965251922607421875">
        <ele>911.79998779296875</ele>
        <time>2026-08-22T02:52:49.000Z</time>
        <extensions>
          <ns3:TrackPointExtension>
            <ns3:hr>113</ns3:hr>
            <ns3:cad>74</ns3:cad>
          </ns3:TrackPointExtension>
        </extensions>
      </trkpt>
      <trkpt lat="45.2450970746576786041259765625" lon="-71.1445690132677555084228515625">
        <ele>911.4000244140625</ele>
        <time>2026-08-22T02:52:50.000Z</time>
        <extensions>
          <ns3:TrackPointExtension>
            <ns3:hr>113</ns3:hr>
            <ns3:cad>74</ns3:cad>
          </ns3:TrackPointExtension>
        </extensions>
      </trkpt>
      <trkpt lat="45.24510436691343784332275390625" lon="-71.14458804018795490264892578125">
        <ele>911.20001220703125</ele>
        <time>2026-08-22T02:52:51.000Z</time>
        <extensions>
          <ns3:TrackPointExtension>
            <ns3:hr>114</ns3:hr>
            <ns3:cad>74</ns3:cad>
          </ns3:TrackPointExtension>
        </extensions>
      </trkpt>
      <trkpt lat="45.24511300027370452880859375" lon="-71.14459566771984100341796875">
        <ele>911</ele>
        <time>2026-08-22T02:52:52.000Z</time>
        <extensions>
          <ns3:TrackPointExtension>
            <ns3:hr>114</ns3:hr>
            <ns3:cad>74</ns3:cad>
          </ns3:TrackPointExtension>
        </extensions>
      </trkpt>
      <trkpt lat="45.2451275847852230072021484375" lon="-71.14460011012852191925048828125">
        <ele>910.79998779296875</ele>
        <time>2026-08-22T02:52:53.000Z</time>
        <extensions>
          <ns3:TrackPointExtension>
            <ns3:hr>115</ns3:hr>
            <ns3:cad>74</ns3:cad>
          </ns3:TrackPointExtension>
        </extensions>
      </trkpt>
      <trkpt lat="45.24513387121260166168212890625" lon="-71.14459943957626819610595703125">
        <ele>910.5999755859375</ele>
        <time>2026-08-22T02:52:54.000Z</time>
        <extensions>
          <ns3:TrackPointExtension>
            <ns3:hr>116</ns3:hr>
            <ns3:cad>74</ns3:cad>
          </ns3:TrackPointExtension>
        </extensions>
      </trkpt>
      <trkpt lat="45.24514024145901203155517578125" lon="-71.14460027776658535003662109375">
        <ele>910.4000244140625</ele>
        <time>2026-08-22T02:52:55.000Z</time>
        <extensions>
          <ns3:TrackPointExtension>
            <ns3:hr>117</ns3:hr>
            <ns3:cad>74</ns3:cad>
          </ns3:TrackPointExtension>
        </extensions>
      </trkpt>
      <trkpt lat="45.2451480366289615631103515625" lon="-71.14460312761366367340087890625">
        <ele>910.20001220703125</ele>
        <time>2026-08-22T02:52:56.000Z</time>
        <extensions>
          <ns3:TrackPointExtension>
            <ns3:hr>117</ns3:hr>
            <ns3:cad>74</ns3:cad>
          </ns3:TrackPointExtension>
        </extensions>
      </trkpt>
      <trkpt lat="45.24515666998922824859619140625" lon="-71.14460798911750316619873046875">
        <ele>910</ele>
        <time>2026-08-22T02:52:57.000Z</time>
        <extensions>
          <ns3:TrackPointExtension>
            <ns3:hr>117</ns3:hr>
            <ns3:cad>74</ns3:cad>
          </ns3:TrackPointExtension>
        </extensions>
      </trkpt>
      <trkpt lat="45.245168991386890411376953125" lon="-71.14461201243102550506591796875">
        <ele>909.79998779296875</ele>
        <time>2026-08-22T02:52:58.000Z</time>
        <extensions>
          <ns3:TrackPointExtension>
            <ns3:hr>117</ns3:hr>
            <ns3:cad>74</ns3:cad>
          </ns3:TrackPointExtension>
        </extensions>
      </trkpt>
      <trkpt lat="45.24518080987036228179931640625" lon="-71.14461922086775302886962890625">
        <ele>909.4000244140625</ele>
        <time>2026-08-22T02:52:59.000Z</time>
        <extensions>
          <ns3:TrackPointExtension>
            <ns3:hr>117</ns3:hr>
            <ns3:cad>74</ns3:cad>
          </ns3:TrackPointExtension>
        </extensions>
      </trkpt>
      <trkpt lat="45.245196819305419921875" lon="-71.1446260102093219757080078125">
        <ele>909</ele>
        <time>2026-08-22T02:53:00.000Z</time>
        <extensions>
          <ns3:TrackPointExtension>
            <ns3:hr>117</ns3:hr>
            <ns3:cad>74</ns3:cad>
          </ns3:TrackPointExtension>
        </extensions>
      </trkpt>
      <trkpt lat="45.24520964361727237701416015625" lon="-71.1446337215602397918701171875">
        <ele>908.4000244140625</ele>
        <time>2026-08-22T02:53:01.000Z</time>
        <extensions>
          <ns3:TrackPointExtension>
            <ns3:hr>118</ns3:hr>
            <ns3:cad>75</ns3:cad>
          </ns3:TrackPointExtension>
        </extensions>
      </trkpt>
      <trkpt lat="45.2452201209962368011474609375" lon="-71.14463699050247669219970703125">
        <ele>908</ele>
        <time>2026-08-22T02:53:02.000Z</time>
        <extensions>
          <ns3:TrackPointExtension>
            <ns3:hr>118</ns3:hr>
            <ns3:cad>75</ns3:cad>
          </ns3:TrackPointExtension>
        </extensions>
      </trkpt>
      <trkpt lat="45.24523160420358180999755859375" lon="-71.1446424387395381927490234375">
        <ele>907.5999755859375</ele>
        <time>2026-08-22T02:53:03.000Z</time>
        <extensions>
          <ns3:TrackPointExtension>
            <ns3:hr>118</ns3:hr>
            <ns3:cad>75</ns3:cad>
          </ns3:TrackPointExtension>
        </extensions>
      </trkpt>
      <trkpt lat="45.245244763791561126708984375" lon="-71.144649647176265716552734375">
        <ele>907.20001220703125</ele>
        <time>2026-08-22T02:53:04.000Z</time>
        <extensions>
          <ns3:TrackPointExtension>
            <ns3:hr>118</ns3:hr>
            <ns3:cad>71</ns3:cad>
          </ns3:TrackPointExtension>
        </extensions>
      </trkpt>
      <trkpt lat="45.24525624699890613555908203125" lon="-71.1446585319936275482177734375">
        <ele>906.79998779296875</ele>
        <time>2026-08-22T02:53:05.000Z</time>
        <extensions>
          <ns3:TrackPointExtension>
            <ns3:hr>118</ns3:hr>
            <ns3:cad>71</ns3:cad>
          </ns3:TrackPointExtension>
        </extensions>
      </trkpt>
      <trkpt lat="45.24526529945433139801025390625" lon="-71.14466515369713306427001953125">
        <ele>906.4000244140625</ele>
        <time>2026-08-22T02:53:06.000Z</time>
        <extensions>
          <ns3:TrackPointExtension>
            <ns3:hr>120</ns3:hr>
            <ns3:cad>70</ns3:cad>
          </ns3:TrackPointExtension>
        </extensions>
      </trkpt>
      <trkpt lat="45.24527468718588352203369140625" lon="-71.144672445952892303466796875">
        <ele>906.20001220703125</ele>
        <time>2026-08-22T02:53:07.000Z</time>
        <extensions>
          <ns3:TrackPointExtension>
            <ns3:hr>121</ns3:hr>
            <ns3:cad>70</ns3:cad>
          </ns3:TrackPointExtension>
        </extensions>
      </trkpt>
      <trkpt lat="45.24528776295483112335205078125" lon="-71.1446781456470489501953125">
        <ele>905.79998779296875</ele>
        <time>2026-08-22T02:53:08.000Z</time>
        <extensions>
          <ns3:TrackPointExtension>
            <ns3:hr>121</ns3:hr>
            <ns3:cad>70</ns3:cad>
          </ns3:TrackPointExtension>
        </extensions>
      </trkpt>
      <trkpt lat="45.245298407971858978271484375" lon="-71.144687198102474212646484375">
        <ele>905.5999755859375</ele>
        <time>2026-08-22T02:53:09.000Z</time>
        <extensions>
          <ns3:TrackPointExtension>
            <ns3:hr>122</ns3:hr>
            <ns3:cad>70</ns3:cad>
          </ns3:TrackPointExtension>
        </extensions>
      </trkpt>
      <trkpt lat="45.2453066222369670867919921875" lon="-71.14469281397759914398193359375">
        <ele>905.4000244140625</ele>
        <time>2026-08-22T02:53:10.000Z</time>
        <extensions>
          <ns3:TrackPointExtension>
            <ns3:hr>122</ns3:hr>
            <ns3:cad>70</ns3:cad>
          </ns3:TrackPointExtension>
        </extensions>
      </trkpt>
      <trkpt lat="45.24532095529139041900634765625" lon="-71.14469516091048717498779296875">
        <ele>905</ele>
        <time>2026-08-22T02:53:11.000Z</time>
        <extensions>
          <ns3:TrackPointExtension>
            <ns3:hr>122</ns3:hr>
            <ns3:cad>70</ns3:cad>
          </ns3:TrackPointExtension>
        </extensions>
      </trkpt>
      <trkpt lat="45.24533160030841827392578125" lon="-71.14469281397759914398193359375">
        <ele>904.5999755859375</ele>
        <time>2026-08-22T02:53:12.000Z</time>
        <extensions>
          <ns3:TrackPointExtension>
            <ns3:hr>123</ns3:hr>
            <ns3:cad>70</ns3:cad>
          </ns3:TrackPointExtension>
        </extensions>
      </trkpt>
      <trkpt lat="45.24534341879189014434814453125" lon="-71.14467806182801723480224609375">
        <ele>904.4000244140625</ele>
        <time>2026-08-22T02:53:13.000Z</time>
        <extensions>
          <ns3:TrackPointExtension>
            <ns3:hr>123</ns3:hr>
            <ns3:cad>70</ns3:cad>
          </ns3:TrackPointExtension>
        </extensions>
      </trkpt>
      <trkpt lat="45.245352052152156829833984375" lon="-71.144656352698802947998046875">
        <ele>903.79998779296875</ele>
        <time>2026-08-22T02:53:14.000Z</time>
        <extensions>
          <ns3:TrackPointExtension>
            <ns3:hr>123</ns3:hr>
            <ns3:cad>70</ns3:cad>
          </ns3:TrackPointExtension>
        </extensions>
      </trkpt>
      <trkpt lat="45.24535750038921833038330078125" lon="-71.14464554004371166229248046875">
        <ele>903.4000244140625</ele>
        <time>2026-08-22T02:53:15.000Z</time>
        <extensions>
          <ns3:TrackPointExtension>
            <ns3:hr>123</ns3:hr>
            <ns3:cad>70</ns3:cad>
          </ns3:TrackPointExtension>
        </extensions>
      </trkpt>
      <trkpt lat="45.245365798473358154296875" lon="-71.14463548175990581512451171875">
        <ele>902.79998779296875</ele>
        <time>2026-08-22T02:53:16.000Z</time>
        <extensions>
          <ns3:TrackPointExtension>
            <ns3:hr>124</ns3:hr>
            <ns3:cad>0</ns3:cad>
          </ns3:TrackPointExtension>
        </extensions>
      </trkpt>
      <trkpt lat="45.24537325836718082427978515625" lon="-71.14461486227810382843017578125">
        <ele>902.20001220703125</ele>
        <time>2026-08-22T02:53:17.000Z</time>
        <extensions>
          <ns3:TrackPointExtension>
            <ns3:hr>124</ns3:hr>
            <ns3:cad>0</ns3:cad>
          </ns3:TrackPointExtension>
        </extensions>
      </trkpt>
      <trkpt lat="45.24537879042327404022216796875" lon="-71.144602037966251373291015625">
        <ele>901.79998779296875</ele>
        <time>2026-08-22T02:53:18.000Z</time>
        <extensions>
          <ns3:TrackPointExtension>
            <ns3:hr>124</ns3:hr>
            <ns3:cad>0</ns3:cad>
          </ns3:TrackPointExtension>
        </extensions>
      </trkpt>
      <trkpt lat="45.24538113735616207122802734375" lon="-71.1445948295295238494873046875">
        <ele>901.20001220703125</ele>
        <time>2026-08-22T02:53:19.000Z</time>
        <extensions>
          <ns3:TrackPointExtension>
            <ns3:hr>124</ns3:hr>
            <ns3:cad>0</ns3:cad>
          </ns3:TrackPointExtension>
        </extensions>
      </trkpt>
      <trkpt lat="45.24538733996450901031494140625" lon="-71.14459323696792125701904296875">
        <ele>900.79998779296875</ele>
        <time>2026-08-22T02:53:20.000Z</time>
        <extensions>
          <ns3:TrackPointExtension>
            <ns3:hr>124</ns3:hr>
            <ns3:cad>0</ns3:cad>
          </ns3:TrackPointExtension>
        </extensions>
      </trkpt>
      <trkpt lat="45.24539387784898281097412109375" lon="-71.144587956368923187255859375">
        <ele>900.4000244140625</ele>
        <time>2026-08-22T02:53:21.000Z</time>
        <extensions>
          <ns3:TrackPointExtension>
            <ns3:hr>124</ns3:hr>
            <ns3:cad>41</ns3:cad>
          </ns3:TrackPointExtension>
        </extensions>
      </trkpt>
      <trkpt lat="45.245399661362171173095703125" lon="-71.1445914767682552337646484375">
        <ele>900</ele>
        <time>2026-08-22T02:53:22.000Z</time>
        <extensions>
          <ns3:TrackPointExtension>
            <ns3:hr>125</ns3:hr>
            <ns3:cad>41</ns3:cad>
          </ns3:TrackPointExtension>
        </extensions>
      </trkpt>
      <trkpt lat="45.2454048581421375274658203125" lon="-71.14460011012852191925048828125">
        <ele>899.5999755859375</ele>
        <time>2026-08-22T02:53:23.000Z</time>
        <extensions>
          <ns3:TrackPointExtension>
            <ns3:hr>124</ns3:hr>
            <ns3:cad>0</ns3:cad>
          </ns3:TrackPointExtension>
        </extensions>
      </trkpt>
      <trkpt lat="45.24540913291275501251220703125" lon="-71.1446115933358669281005859375">
        <ele>899.20001220703125</ele>
        <time>2026-08-22T02:53:24.000Z</time>
        <extensions>
          <ns3:TrackPointExtension>
            <ns3:hr>124</ns3:hr>
            <ns3:cad>0</ns3:cad>
          </ns3:TrackPointExtension>
        </extensions>
      </trkpt>
      <trkpt lat="45.24541298858821392059326171875" lon="-71.1446263454854488372802734375">
        <ele>898.79998779296875</ele>
        <time>2026-08-22T02:53:25.000Z</time>
        <extensions>
          <ns3:TrackPointExtension>
            <ns3:hr>125</ns3:hr>
            <ns3:cad>71</ns3:cad>
          </ns3:TrackPointExtension>
        </extensions>
      </trkpt>
      <trkpt lat="45.245414413511753082275390625" lon="-71.14463724195957183837890625">
        <ele>898.5999755859375</ele>
        <time>2026-08-22T02:53:26.000Z</time>
        <extensions>
          <ns3:TrackPointExtension>
            <ns3:hr>125</ns3:hr>
            <ns3:cad>71</ns3:cad>
          </ns3:TrackPointExtension>
        </extensions>
      </trkpt>
      <trkpt lat="45.2454155869781970977783203125" lon="-71.14464721642434597015380859375">
        <ele>898.5999755859375</ele>
        <time>2026-08-22T02:53:27.000Z</time>
        <extensions>
          <ns3:TrackPointExtension>
            <ns3:hr>125</ns3:hr>
            <ns3:cad>0</ns3:cad>
          </ns3:TrackPointExtension>
        </extensions>
      </trkpt>
      <trkpt lat="45.24541852064430713653564453125" lon="-71.14466263912618160247802734375">
        <ele>898.4000244140625</ele>
        <time>2026-08-22T02:53:28.000Z</time>
        <extensions>
          <ns3:TrackPointExtension>
            <ns3:hr>125</ns3:hr>
            <ns3:cad>0</ns3:cad>
          </ns3:TrackPointExtension>
        </extensions>
      </trkpt>
      <trkpt lat="45.24542170576751232147216796875" lon="-71.1446706019341945648193359375">
        <ele>898.5999755859375</ele>
        <time>2026-08-22T02:53:29.000Z</time>
        <extensions>
          <ns3:TrackPointExtension>
            <ns3:hr>125</ns3:hr>
            <ns3:cad>0</ns3:cad>
          </ns3:TrackPointExtension>
        </extensions>
      </trkpt>
      <trkpt lat="45.24542271159589290618896484375" lon="-71.14467772655189037322998046875">
        <ele>898.5999755859375</ele>
        <time>2026-08-22T02:53:30.000Z</time>
        <extensions>
          <ns3:TrackPointExtension>
            <ns3:hr>125</ns3:hr>
            <ns3:cad>0</ns3:cad>
          </ns3:TrackPointExtension>
        </extensions>
      </trkpt>
      <trkpt lat="45.24542908184230327606201171875" lon="-71.1446903832256793975830078125">
        <ele>898.4000244140625</ele>
        <time>2026-08-22T02:53:31.000Z</time>
        <extensions>
          <ns3:TrackPointExtension>
            <ns3:hr>124</ns3:hr>
            <ns3:cad>0</ns3:cad>
          </ns3:TrackPointExtension>
        </extensions>
      </trkpt>
      <trkpt lat="45.24543679319322109222412109375" lon="-71.14469616673886775970458984375">
        <ele>898.4000244140625</ele>
        <time>2026-08-22T02:53:32.000Z</time>
        <extensions>
          <ns3:TrackPointExtension>
            <ns3:hr>124</ns3:hr>
            <ns3:cad>68</ns3:cad>
          </ns3:TrackPointExtension>
        </extensions>
      </trkpt>
      <trkpt lat="45.245449282228946685791015625" lon="-71.14470857195556163787841796875">
        <ele>898.20001220703125</ele>
        <time>2026-08-22T02:53:33.000Z</time>
        <extensions>
          <ns3:TrackPointExtension>
            <ns3:hr>123</ns3:hr>
            <ns3:cad>68</ns3:cad>
          </ns3:TrackPointExtension>
        </extensions>
      </trkpt>
      <trkpt lat="45.24545942433178424835205078125" lon="-71.1447178758680820465087890625">
        <ele>898</ele>
        <time>2026-08-22T02:53:34.000Z</time>
        <extensions>
          <ns3:TrackPointExtension>
            <ns3:hr>123</ns3:hr>
            <ns3:cad>68</ns3:cad>
          </ns3:TrackPointExtension>
        </extensions>
      </trkpt>
      <trkpt lat="45.245470069348812103271484375" lon="-71.1447235755622386932373046875">
        <ele>897.79998779296875</ele>
        <time>2026-08-22T02:53:35.000Z</time>
        <extensions>
          <ns3:TrackPointExtension>
            <ns3:hr>122</ns3:hr>
            <ns3:cad>68</ns3:cad>
          </ns3:TrackPointExtension>
        </extensions>
      </trkpt>
      <trkpt lat="45.24548255838453769683837890625" lon="-71.1447329632937908172607421875">
        <ele>897.5999755859375</ele>
        <time>2026-08-22T02:53:36.000Z</time>
        <extensions>
          <ns3:TrackPointExtension>
            <ns3:hr>122</ns3:hr>
            <ns3:cad>68</ns3:cad>
          </ns3:TrackPointExtension>
        </extensions>
      </trkpt>
      <trkpt lat="45.24548741988837718963623046875" lon="-71.1447376571595668792724609375">
        <ele>897.20001220703125</ele>
        <time>2026-08-22T02:53:37.000Z</time>
        <extensions>
          <ns3:TrackPointExtension>
            <ns3:hr>122</ns3:hr>
            <ns3:cad>0</ns3:cad>
          </ns3:TrackPointExtension>
        </extensions>
      </trkpt>
      <trkpt lat="45.24550259113311767578125" lon="-71.144740171730518341064453125">
        <ele>896.79998779296875</ele>
        <time>2026-08-22T02:53:38.000Z</time>
        <extensions>
          <ns3:TrackPointExtension>
            <ns3:hr>122</ns3:hr>
            <ns3:cad>0</ns3:cad>
          </ns3:TrackPointExtension>
        </extensions>
      </trkpt>
      <trkpt lat="45.2455081231892108917236328125" lon="-71.144738830626010894775390625">
        <ele>896.4000244140625</ele>
        <time>2026-08-22T02:53:39.000Z</time>
        <extensions>
          <ns3:TrackPointExtension>
            <ns3:hr>123</ns3:hr>
            <ns3:cad>0</ns3:cad>
          </ns3:TrackPointExtension>
        </extensions>
      </trkpt>
      <trkpt lat="45.245512314140796661376953125" lon="-71.14473975263535976409912109375">
        <ele>896</ele>
        <time>2026-08-22T02:53:40.000Z</time>
        <extensions>
          <ns3:TrackPointExtension>
            <ns3:hr>122</ns3:hr>
            <ns3:cad>0</ns3:cad>
          </ns3:TrackPointExtension>
        </extensions>
      </trkpt>
      <trkpt lat="45.24552430026233196258544921875" lon="-71.14474796690046787261962890625">
        <ele>895.5999755859375</ele>
        <time>2026-08-22T02:53:41.000Z</time>
        <extensions>
          <ns3:TrackPointExtension>
            <ns3:hr>122</ns3:hr>
            <ns3:cad>0</ns3:cad>
          </ns3:TrackPointExtension>
        </extensions>
      </trkpt>
      <trkpt lat="45.24553737603127956390380859375" lon="-71.144758276641368865966796875">
        <ele>895</ele>
        <time>2026-08-22T02:53:42.000Z</time>
        <extensions>
          <ns3:TrackPointExtension>
            <ns3:hr>122</ns3:hr>
            <ns3:cad>0</ns3:cad>
          </ns3:TrackPointExtension>
        </extensions>
      </trkpt>
      <trkpt lat="45.2455490268766880035400390625" lon="-71.14476774819195270538330078125">
        <ele>894.5999755859375</ele>
        <time>2026-08-22T02:53:43.000Z</time>
        <extensions>
          <ns3:TrackPointExtension>
            <ns3:hr>122</ns3:hr>
            <ns3:cad>0</ns3:cad>
          </ns3:TrackPointExtension>
        </extensions>
      </trkpt>
      <trkpt lat="45.245555229485034942626953125" lon="-71.14477747119963169097900390625">
        <ele>894.20001220703125</ele>
        <time>2026-08-22T02:53:44.000Z</time>
        <extensions>
          <ns3:TrackPointExtension>
            <ns3:hr>122</ns3:hr>
            <ns3:cad>0</ns3:cad>
          </ns3:TrackPointExtension>
        </extensions>
      </trkpt>
      <trkpt lat="45.24556503631174564361572265625" lon="-71.14478870294988155364990234375">
        <ele>894</ele>
        <time>2026-08-22T02:53:45.000Z</time>
        <extensions>
          <ns3:TrackPointExtension>
            <ns3:hr>122</ns3:hr>
            <ns3:cad>0</ns3:cad>
          </ns3:TrackPointExtension>
        </extensions>
      </trkpt>
      <trkpt lat="45.2455728314816951751708984375" lon="-71.14479708485305309295654296875">
        <ele>893.79998779296875</ele>
        <time>2026-08-22T02:53:46.000Z</time>
        <extensions>
          <ns3:TrackPointExtension>
            <ns3:hr>122</ns3:hr>
            <ns3:cad>0</ns3:cad>
          </ns3:TrackPointExtension>
        </extensions>
      </trkpt>
      <trkpt lat="45.2455802075564861297607421875" lon="-71.14480462856590747833251953125">
        <ele>893.5999755859375</ele>
        <time>2026-08-22T02:53:47.000Z</time>
        <extensions>
          <ns3:TrackPointExtension>
            <ns3:hr>122</ns3:hr>
            <ns3:cad>0</ns3:cad>
          </ns3:TrackPointExtension>
        </extensions>
      </trkpt>
      <trkpt lat="45.2455889247357845306396484375" lon="-71.14481301046907901763916015625">
        <ele>893.4000244140625</ele>
        <time>2026-08-22T02:53:48.000Z</time>
        <extensions>
          <ns3:TrackPointExtension>
            <ns3:hr>121</ns3:hr>
            <ns3:cad>0</ns3:cad>
          </ns3:TrackPointExtension>
        </extensions>
      </trkpt>
      <trkpt lat="45.2455969713628292083740234375" lon="-71.1448203027248382568359375">
        <ele>893</ele>
        <time>2026-08-22T02:53:49.000Z</time>
        <extensions>
          <ns3:TrackPointExtension>
            <ns3:hr>121</ns3:hr>
            <ns3:cad>0</ns3:cad>
          </ns3:TrackPointExtension>
        </extensions>
      </trkpt>
      <trkpt lat="45.2455942891538143157958984375" lon="-71.14483832381665706634521484375">
        <ele>892.79998779296875</ele>
        <time>2026-08-22T02:53:50.000Z</time>
        <extensions>
          <ns3:TrackPointExtension>
            <ns3:hr>122</ns3:hr>
            <ns3:cad>0</ns3:cad>
          </ns3:TrackPointExtension>
        </extensions>
      </trkpt>
      <trkpt lat="45.24559353478252887725830078125" lon="-71.14484569989144802093505859375">
        <ele>892.4000244140625</ele>
        <time>2026-08-22T02:53:51.000Z</time>
        <extensions>
          <ns3:TrackPointExtension>
            <ns3:hr>122</ns3:hr>
            <ns3:cad>0</ns3:cad>
          </ns3:TrackPointExtension>
        </extensions>
      </trkpt>
      <trkpt lat="45.24559671990573406219482421875" lon="-71.14485760219395160675048828125">
        <ele>892.20001220703125</ele>
        <time>2026-08-22T02:53:52.000Z</time>
        <extensions>
          <ns3:TrackPointExtension>
            <ns3:hr>122</ns3:hr>
            <ns3:cad>0</ns3:cad>
          </ns3:TrackPointExtension>
        </extensions>
      </trkpt>
      <trkpt lat="45.24559906683862209320068359375" lon="-71.144866906106472015380859375">
        <ele>892</ele>
        <time>2026-08-22T02:53:53.000Z</time>
        <extensions>
          <ns3:TrackPointExtension>
            <ns3:hr>122</ns3:hr>
            <ns3:cad>0</ns3:cad>
          </ns3:TrackPointExtension>
        </extensions>
      </trkpt>
      <trkpt lat="45.2456006594002246856689453125" lon="-71.1448814906179904937744140625">
        <ele>892</ele>
        <time>2026-08-22T02:53:54.000Z</time>
        <extensions>
          <ns3:TrackPointExtension>
            <ns3:hr>121</ns3:hr>
            <ns3:cad>0</ns3:cad>
          </ns3:TrackPointExtension>
        </extensions>
      </trkpt>
      <trkpt lat="45.24560376070439815521240234375" lon="-71.14489381201565265655517578125">
        <ele>892</ele>
        <time>2026-08-22T02:53:55.000Z</time>
        <extensions>
          <ns3:TrackPointExtension>
            <ns3:hr>122</ns3:hr>
            <ns3:cad>0</ns3:cad>
          </ns3:TrackPointExtension>
        </extensions>
      </trkpt>
      <trkpt lat="45.2456083707511425018310546875" lon="-71.1449006013572216033935546875">
        <ele>892</ele>
        <time>2026-08-22T02:53:56.000Z</time>
        <extensions>
          <ns3:TrackPointExtension>
            <ns3:hr>122</ns3:hr>
            <ns3:cad>0</ns3:cad>
          </ns3:TrackPointExtension>
        </extensions>
      </trkpt>
      <trkpt lat="45.24561197496950626373291015625" lon="-71.1449130065739154815673828125">
        <ele>891.79998779296875</ele>
        <time>2026-08-22T02:53:57.000Z</time>
        <extensions>
          <ns3:TrackPointExtension>
            <ns3:hr>122</ns3:hr>
            <ns3:cad>0</ns3:cad>
          </ns3:TrackPointExtension>
        </extensions>
      </trkpt>
      <trkpt lat="45.24561365135014057159423828125" lon="-71.1449267528951168060302734375">
        <ele>891.4000244140625</ele>
        <time>2026-08-22T02:53:58.000Z</time>
        <extensions>
          <ns3:TrackPointExtension>
            <ns3:hr>122</ns3:hr>
            <ns3:cad>0</ns3:cad>
          </ns3:TrackPointExtension>
        </extensions>
      </trkpt>
      <trkpt lat="45.245617590844631195068359375" lon="-71.1449458636343479156494140625">
        <ele>891.20001220703125</ele>
        <time>2026-08-22T02:53:59.000Z</time>
        <extensions>
          <ns3:TrackPointExtension>
            <ns3:hr>121</ns3:hr>
            <ns3:cad>0</ns3:cad>
          </ns3:TrackPointExtension>
        </extensions>
      </trkpt>
      <trkpt lat="45.24562136270105838775634765625" lon="-71.14495432935655117034912109375">
        <ele>891</ele>
        <time>2026-08-22T02:54:00.000Z</time>
        <extensions>
          <ns3:TrackPointExtension>
            <ns3:hr>122</ns3:hr>
            <ns3:cad>0</ns3:cad>
          </ns3:TrackPointExtension>
        </extensions>
      </trkpt>
      <trkpt lat="45.24562505073845386505126953125" lon="-71.14496857859194278717041015625">
        <ele>890.79998779296875</ele>
        <time>2026-08-22T02:54:01.000Z</time>
        <extensions>
          <ns3:TrackPointExtension>
            <ns3:hr>122</ns3:hr>
            <ns3:cad>0</ns3:cad>
          </ns3:TrackPointExtension>
        </extensions>
      </trkpt>
      <trkpt lat="45.2456345222890377044677734375" lon="-71.14498618058860301971435546875">
        <ele>890.5999755859375</ele>
        <time>2026-08-22T02:54:02.000Z</time>
        <extensions>
          <ns3:TrackPointExtension>
            <ns3:hr>121</ns3:hr>
            <ns3:cad>0</ns3:cad>
          </ns3:TrackPointExtension>
        </extensions>
      </trkpt>
      <trkpt lat="45.24564214982092380523681640625" lon="-71.14499506540596485137939453125">
        <ele>890.4000244140625</ele>
        <time>2026-08-22T02:54:03.000Z</time>
        <extensions>
          <ns3:TrackPointExtension>
            <ns3:hr>121</ns3:hr>
            <ns3:cad>0</ns3:cad>
          </ns3:TrackPointExtension>
        </extensions>
      </trkpt>
      <trkpt lat="45.2456526271998882293701171875" lon="-71.1450132541358470916748046875">
        <ele>890.20001220703125</ele>
        <time>2026-08-22T02:54:04.000Z</time>
        <extensions>
          <ns3:TrackPointExtension>
            <ns3:hr>121</ns3:hr>
            <ns3:cad>0</ns3:cad>
          </ns3:TrackPointExtension>
        </extensions>
      </trkpt>
      <trkpt lat="45.2456621825695037841796875" lon="-71.1450259946286678314208984375">
        <ele>889.79998779296875</ele>
        <time>2026-08-22T02:54:05.000Z</time>
        <extensions>
          <ns3:TrackPointExtension>
            <ns3:hr>120</ns3:hr>
            <ns3:cad>0</ns3:cad>
          </ns3:TrackPointExtension>
        </extensions>
      </trkpt>
      <trkpt lat="45.24567115120589733123779296875" lon="-71.1450420878827571868896484375">
        <ele>889.4000244140625</ele>
        <time>2026-08-22T02:54:06.000Z</time>
        <extensions>
          <ns3:TrackPointExtension>
            <ns3:hr>120</ns3:hr>
            <ns3:cad>0</ns3:cad>
          </ns3:TrackPointExtension>
        </extensions>
      </trkpt>
      <trkpt lat="45.24568640626966953277587890625" lon="-71.1450474523007869720458984375">
        <ele>889</ele>
        <time>2026-08-22T02:54:07.000Z</time>
        <extensions>
          <ns3:TrackPointExtension>
            <ns3:hr>120</ns3:hr>
            <ns3:cad>0</ns3:cad>
          </ns3:TrackPointExtension>
        </extensions>
      </trkpt>
      <trkpt lat="45.24570182897150516510009765625" lon="-71.14505189470946788787841796875">
        <ele>888.5999755859375</ele>
        <time>2026-08-22T02:54:08.000Z</time>
        <extensions>
          <ns3:TrackPointExtension>
            <ns3:hr>120</ns3:hr>
            <ns3:cad>0</ns3:cad>
          </ns3:TrackPointExtension>
        </extensions>
      </trkpt>
      <trkpt lat="45.24570979177951812744140625" lon="-71.14505055360496044158935546875">
        <ele>888.4000244140625</ele>
        <time>2026-08-22T02:54:09.000Z</time>
        <extensions>
          <ns3:TrackPointExtension>
            <ns3:hr>119</ns3:hr>
            <ns3:cad>0</ns3:cad>
          </ns3:TrackPointExtension>
        </extensions>
      </trkpt>
      <trkpt lat="45.24571808986365795135498046875" lon="-71.145047284662723541259765625">
        <ele>888</ele>
        <time>2026-08-22T02:54:10.000Z</time>
        <extensions>
          <ns3:TrackPointExtension>
            <ns3:hr>119</ns3:hr>
            <ns3:cad>0</ns3:cad>
          </ns3:TrackPointExtension>
        </extensions>
      </trkpt>
      <trkpt lat="45.245735943317413330078125" lon="-71.14504761993885040283203125">
        <ele>887.5999755859375</ele>
        <time>2026-08-22T02:54:11.000Z</time>
        <extensions>
          <ns3:TrackPointExtension>
            <ns3:hr>118</ns3:hr>
            <ns3:cad>0</ns3:cad>
          </ns3:TrackPointExtension>
        </extensions>
      </trkpt>
      <trkpt lat="45.24575614370405673980712890625" lon="-71.14504627883434295654296875">
        <ele>887.20001220703125</ele>
        <time>2026-08-22T02:54:12.000Z</time>
        <extensions>
          <ns3:TrackPointExtension>
            <ns3:hr>118</ns3:hr>
            <ns3:cad>77</ns3:cad>
          </ns3:TrackPointExtension>
        </extensions>
      </trkpt>
      <trkpt lat="45.2457723207771778106689453125" lon="-71.14503965713083744049072265625">
        <ele>886.79998779296875</ele>
        <time>2026-08-22T02:54:13.000Z</time>
        <extensions>
          <ns3:TrackPointExtension>
            <ns3:hr>119</ns3:hr>
            <ns3:cad>77</ns3:cad>
          </ns3:TrackPointExtension>
        </extensions>
      </trkpt>
      <trkpt lat="45.24579101242125034332275390625" lon="-71.14503043703734874725341796875">
        <ele>886.4000244140625</ele>
        <time>2026-08-22T02:54:14.000Z</time>
        <extensions>
          <ns3:TrackPointExtension>
            <ns3:hr>119</ns3:hr>
            <ns3:cad>77</ns3:cad>
          </ns3:TrackPointExtension>
        </extensions>
      </trkpt>
      <trkpt lat="45.2458024956285953521728515625" lon="-71.14502490498125553131103515625">
        <ele>886</ele>
        <time>2026-08-22T02:54:15.000Z</time>
        <extensions>
          <ns3:TrackPointExtension>
            <ns3:hr>119</ns3:hr>
            <ns3:cad>77</ns3:cad>
          </ns3:TrackPointExtension>
        </extensions>
      </trkpt>
      <trkpt lat="45.24581917561590671539306640625" lon="-71.14501920528709888458251953125">
        <ele>885.5999755859375</ele>
        <time>2026-08-22T02:54:16.000Z</time>
        <extensions>
          <ns3:TrackPointExtension>
            <ns3:hr>119</ns3:hr>
            <ns3:cad>77</ns3:cad>
          </ns3:TrackPointExtension>
        </extensions>
      </trkpt>
      <trkpt lat="45.2458283118903636932373046875" lon="-71.14500939846038818359375">
        <ele>885.20001220703125</ele>
        <time>2026-08-22T02:54:17.000Z</time>
        <extensions>
          <ns3:TrackPointExtension>
            <ns3:hr>120</ns3:hr>
            <ns3:cad>77</ns3:cad>
          </ns3:TrackPointExtension>
        </extensions>
      </trkpt>
      <trkpt lat="45.2458376996219158172607421875" lon="-71.1450053751468658447265625">
        <ele>884.79998779296875</ele>
        <time>2026-08-22T02:54:18.000Z</time>
        <extensions>
          <ns3:TrackPointExtension>
            <ns3:hr>120</ns3:hr>
            <ns3:cad>77</ns3:cad>
          </ns3:TrackPointExtension>
        </extensions>
      </trkpt>
      <trkpt lat="45.24585253559052944183349609375" lon="-71.14500227384269237518310546875">
        <ele>884.4000244140625</ele>
        <time>2026-08-22T02:54:19.000Z</time>
        <extensions>
          <ns3:TrackPointExtension>
            <ns3:hr>120</ns3:hr>
            <ns3:cad>77</ns3:cad>
          </ns3:TrackPointExtension>
        </extensions>
      </trkpt>
      <trkpt lat="45.2458655275404453277587890625" lon="-71.1449941433966159820556640625">
        <ele>884</ele>
        <time>2026-08-22T02:54:20.000Z</time>
        <extensions>
          <ns3:TrackPointExtension>
            <ns3:hr>120</ns3:hr>
            <ns3:cad>76</ns3:cad>
          </ns3:TrackPointExtension>
        </extensions>
      </trkpt>
      <trkpt lat="45.245873071253299713134765625" lon="-71.1449830792844295501708984375">
        <ele>883.5999755859375</ele>
        <time>2026-08-22T02:54:21.000Z</time>
        <extensions>
          <ns3:TrackPointExtension>
            <ns3:hr>119</ns3:hr>
            <ns3:cad>76</ns3:cad>
          </ns3:TrackPointExtension>
        </extensions>
      </trkpt>
      <trkpt lat="45.245883129537105560302734375" lon="-71.14496774040162563323974609375">
        <ele>883.4000244140625</ele>
        <time>2026-08-22T02:54:22.000Z</time>
        <extensions>
          <ns3:TrackPointExtension>
            <ns3:hr>120</ns3:hr>
            <ns3:cad>73</ns3:cad>
          </ns3:TrackPointExtension>
        </extensions>
      </trkpt>
      <trkpt lat="45.24588438682258129119873046875" lon="-71.1449575982987880706787109375">
        <ele>883.4000244140625</ele>
        <time>2026-08-22T02:54:23.000Z</time>
        <extensions>
          <ns3:TrackPointExtension>
            <ns3:hr>120</ns3:hr>
            <ns3:cad>73</ns3:cad>
          </ns3:TrackPointExtension>
        </extensions>
      </trkpt>
      <trkpt lat="45.2458873204886913299560546875" lon="-71.14494192413985729217529296875">
        <ele>883.20001220703125</ele>
        <time>2026-08-22T02:54:24.000Z</time>
        <extensions>
          <ns3:TrackPointExtension>
            <ns3:hr>120</ns3:hr>
            <ns3:cad>73</ns3:cad>
          </ns3:TrackPointExtension>
        </extensions>
      </trkpt>
      <trkpt lat="45.24588824249804019927978515625" lon="-71.14492566324770450592041015625">
        <ele>883.20001220703125</ele>
        <time>2026-08-22T02:54:25.000Z</time>
        <extensions>
          <ns3:TrackPointExtension>
            <ns3:hr>120</ns3:hr>
            <ns3:cad>72</ns3:cad>
          </ns3:TrackPointExtension>
        </extensions>
      </trkpt>
      <trkpt lat="45.24589352309703826904296875" lon="-71.144899427890777587890625">
        <ele>883.20001220703125</ele>
        <time>2026-08-22T02:54:26.000Z</time>
        <extensions>
          <ns3:TrackPointExtension>
            <ns3:hr>120</ns3:hr>
            <ns3:cad>72</ns3:cad>
          </ns3:TrackPointExtension>
        </extensions>
      </trkpt>
      <trkpt lat="45.24589444510638713836669921875" lon="-71.14488258026540279388427734375">
        <ele>883</ele>
        <time>2026-08-22T02:54:27.000Z</time>
        <extensions>
          <ns3:TrackPointExtension>
            <ns3:hr>121</ns3:hr>
            <ns3:cad>71</ns3:cad>
          </ns3:TrackPointExtension>
        </extensions>
      </trkpt>
      <trkpt lat="45.245897211134433746337890625" lon="-71.1448623798787593841552734375">
        <ele>882.5999755859375</ele>
        <time>2026-08-22T02:54:28.000Z</time>
        <extensions>
          <ns3:TrackPointExtension>
            <ns3:hr>121</ns3:hr>
            <ns3:cad>71</ns3:cad>
          </ns3:TrackPointExtension>
        </extensions>
      </trkpt>
      <trkpt lat="45.245901905000209808349609375" lon="-71.14485852420330047607421875">
        <ele>882.4000244140625</ele>
        <time>2026-08-22T02:54:29.000Z</time>
        <extensions>
          <ns3:TrackPointExtension>
            <ns3:hr>121</ns3:hr>
            <ns3:cad>71</ns3:cad>
          </ns3:TrackPointExtension>
        </extensions>
      </trkpt>
      <trkpt lat="45.2459089457988739013671875" lon="-71.14486296661198139190673828125">
        <ele>882.20001220703125</ele>
        <time>2026-08-22T02:54:30.000Z</time>
        <extensions>
          <ns3:TrackPointExtension>
            <ns3:hr>122</ns3:hr>
            <ns3:cad>71</ns3:cad>
          </ns3:TrackPointExtension>
        </extensions>
      </trkpt>
      <trkpt lat="45.24591674096882343292236328125" lon="-71.14486447535455226898193359375">
        <ele>882</ele>
        <time>2026-08-22T02:54:31.000Z</time>
        <extensions>
          <ns3:TrackPointExtension>
            <ns3:hr>122</ns3:hr>
            <ns3:cad>71</ns3:cad>
          </ns3:TrackPointExtension>
        </extensions>
      </trkpt>
      <trkpt lat="45.2459288947284221649169921875" lon="-71.14486648701131343841552734375">
        <ele>881.79998779296875</ele>
        <time>2026-08-22T02:54:32.000Z</time>
        <extensions>
          <ns3:TrackPointExtension>
            <ns3:hr>122</ns3:hr>
            <ns3:cad>71</ns3:cad>
          </ns3:TrackPointExtension>
        </extensions>
      </trkpt>
      <trkpt lat="45.24593836627900600433349609375" lon="-71.1448647268116474151611328125">
        <ele>881.5999755859375</ele>
        <time>2026-08-22T02:54:33.000Z</time>
        <extensions>
          <ns3:TrackPointExtension>
            <ns3:hr>122</ns3:hr>
            <ns3:cad>71</ns3:cad>
          </ns3:TrackPointExtension>
        </extensions>
      </trkpt>
      <trkpt lat="45.24594356305897235870361328125" lon="-71.1448583565652370452880859375">
        <ele>881.4000244140625</ele>
        <time>2026-08-22T02:54:34.000Z</time>
        <extensions>
          <ns3:TrackPointExtension>
            <ns3:hr>122</ns3:hr>
            <ns3:cad>0</ns3:cad>
          </ns3:TrackPointExtension>
        </extensions>
      </trkpt>
      <trkpt lat="45.24594792164862155914306640625" lon="-71.144845448434352874755859375">
        <ele>881.20001220703125</ele>
        <time>2026-08-22T02:54:35.000Z</time>
        <extensions>
          <ns3:TrackPointExtension>
            <ns3:hr>122</ns3:hr>
            <ns3:cad>0</ns3:cad>
          </ns3:TrackPointExtension>
        </extensions>
      </trkpt>
      <trkpt lat="45.2459550462663173675537109375" lon="-71.14482524804770946502685546875">
        <ele>881</ele>
        <time>2026-08-22T02:54:36.000Z</time>
        <extensions>
          <ns3:TrackPointExtension>
            <ns3:hr>121</ns3:hr>
            <ns3:cad>0</ns3:cad>
          </ns3:TrackPointExtension>
        </extensions>
      </trkpt>
      <trkpt lat="45.24595714174211025238037109375" lon="-71.144820638000965118408203125">
        <ele>880.5999755859375</ele>
        <time>2026-08-22T02:54:37.000Z</time>
        <extensions>
          <ns3:TrackPointExtension>
            <ns3:hr>121</ns3:hr>
            <ns3:cad>0</ns3:cad>
          </ns3:TrackPointExtension>
        </extensions>
      </trkpt>
      <trkpt lat="45.24596250616014003753662109375" lon="-71.14481099881231784820556640625">
        <ele>880.4000244140625</ele>
        <time>2026-08-22T02:54:38.000Z</time>
        <extensions>
          <ns3:TrackPointExtension>
            <ns3:hr>121</ns3:hr>
            <ns3:cad>0</ns3:cad>
          </ns3:TrackPointExtension>
        </extensions>
      </trkpt>
      <trkpt lat="45.2459674514830112457275390625" lon="-71.144804544746875762939453125">
        <ele>880.20001220703125</ele>
        <time>2026-08-22T02:54:39.000Z</time>
        <extensions>
          <ns3:TrackPointExtension>
            <ns3:hr>121</ns3:hr>
            <ns3:cad>52</ns3:cad>
          </ns3:TrackPointExtension>
        </extensions>
      </trkpt>
      <trkpt lat="45.24597139097750186920166015625" lon="-71.144808568060398101806640625">
        <ele>880</ele>
        <time>2026-08-22T02:54:40.000Z</time>
        <extensions>
          <ns3:TrackPointExtension>
            <ns3:hr>121</ns3:hr>
            <ns3:cad>52</ns3:cad>
          </ns3:TrackPointExtension>
        </extensions>
      </trkpt>
      <trkpt lat="45.24597474373877048492431640625" lon="-71.144811920821666717529296875">
        <ele>879.5999755859375</ele>
        <time>2026-08-22T02:54:41.000Z</time>
        <extensions>
          <ns3:TrackPointExtension>
            <ns3:hr>122</ns3:hr>
            <ns3:cad>52</ns3:cad>
          </ns3:TrackPointExtension>
        </extensions>
      </trkpt>
      <trkpt lat="45.2459805272519588470458984375" lon="-71.14482223056256771087646484375">
        <ele>879.4000244140625</ele>
        <time>2026-08-22T02:54:42.000Z</time>
        <extensions>
          <ns3:TrackPointExtension>
            <ns3:hr>122</ns3:hr>
            <ns3:cad>52</ns3:cad>
          </ns3:TrackPointExtension>
        </extensions>
      </trkpt>
      <trkpt lat="45.2459862269461154937744140625" lon="-71.14482809789478778839111328125">
        <ele>879.20001220703125</ele>
        <time>2026-08-22T02:54:43.000Z</time>
        <extensions>
          <ns3:TrackPointExtension>
            <ns3:hr>121</ns3:hr>
            <ns3:cad>52</ns3:cad>
          </ns3:TrackPointExtension>
        </extensions>
      </trkpt>
      <trkpt lat="45.2459922619163990020751953125" lon="-71.14483161829411983489990234375">
        <ele>879.20001220703125</ele>
        <time>2026-08-22T02:54:44.000Z</time>
        <extensions>
          <ns3:TrackPointExtension>
            <ns3:hr>121</ns3:hr>
            <ns3:cad>52</ns3:cad>
          </ns3:TrackPointExtension>
        </extensions>
      </trkpt>
      <trkpt lat="45.245995782315731048583984375" lon="-71.14484720863401889801025390625">
        <ele>879</ele>
        <time>2026-08-22T02:54:45.000Z</time>
        <extensions>
          <ns3:TrackPointExtension>
            <ns3:hr>121</ns3:hr>
            <ns3:cad>52</ns3:cad>
          </ns3:TrackPointExtension>
        </extensions>
      </trkpt>
      <trkpt lat="45.2459969557821750640869140625" lon="-71.1448546685278415679931640625">
        <ele>879</ele>
        <time>2026-08-22T02:54:46.000Z</time>
        <extensions>
          <ns3:TrackPointExtension>
            <ns3:hr>121</ns3:hr>
            <ns3:cad>52</ns3:cad>
          </ns3:TrackPointExtension>
        </extensions>
      </trkpt>
      <trkpt lat="45.24600190110504627227783203125" lon="-71.1448607034981250762939453125">
        <ele>878.79998779296875</ele>
        <time>2026-08-22T02:54:47.000Z</time>
        <extensions>
          <ns3:TrackPointExtension>
            <ns3:hr>120</ns3:hr>
            <ns3:cad>52</ns3:cad>
          </ns3:TrackPointExtension>
        </extensions>
      </trkpt>
      <trkpt lat="45.24600726552307605743408203125" lon="-71.14488132297992706298828125">
        <ele>878.5999755859375</ele>
        <time>2026-08-22T02:54:48.000Z</time>
        <extensions>
          <ns3:TrackPointExtension>
            <ns3:hr>119</ns3:hr>
            <ns3:cad>64</ns3:cad>
          </ns3:TrackPointExtension>
        </extensions>
      </trkpt>
      <trkpt lat="45.24600810371339321136474609375" lon="-71.14489582367241382598876953125">
        <ele>878.4000244140625</ele>
        <time>2026-08-22T02:54:49.000Z</time>
        <extensions>
          <ns3:TrackPointExtension>
            <ns3:hr>118</ns3:hr>
            <ns3:cad>64</ns3:cad>
          </ns3:TrackPointExtension>
        </extensions>
      </trkpt>
      <trkpt lat="45.2460096962749958038330078125" lon="-71.1449180357158184051513671875">
        <ele>878.20001220703125</ele>
        <time>2026-08-22T02:54:50.000Z</time>
        <extensions>
          <ns3:TrackPointExtension>
            <ns3:hr>117</ns3:hr>
            <ns3:cad>64</ns3:cad>
          </ns3:TrackPointExtension>
        </extensions>
      </trkpt>
      <trkpt lat="45.24601246230304241180419921875" lon="-71.14493538625538349151611328125">
        <ele>878.20001220703125</ele>
        <time>2026-08-22T02:54:51.000Z</time>
        <extensions>
          <ns3:TrackPointExtension>
            <ns3:hr>116</ns3:hr>
            <ns3:cad>64</ns3:cad>
          </ns3:TrackPointExtension>
        </extensions>
      </trkpt>
      <trkpt lat="45.24601413868367671966552734375" lon="-71.1449525691568851470947265625">
        <ele>878</ele>
        <time>2026-08-22T02:54:52.000Z</time>
        <extensions>
          <ns3:TrackPointExtension>
            <ns3:hr>117</ns3:hr>
            <ns3:cad>64</ns3:cad>
          </ns3:TrackPointExtension>
        </extensions>
      </trkpt>
      <trkpt lat="45.2460221014916896820068359375" lon="-71.14497008733451366424560546875">
        <ele>878</ele>
        <time>2026-08-22T02:54:53.000Z</time>
        <extensions>
          <ns3:TrackPointExtension>
            <ns3:hr>117</ns3:hr>
            <ns3:cad>64</ns3:cad>
          </ns3:TrackPointExtension>
        </extensions>
      </trkpt>
      <trkpt lat="45.2460323274135589599609375" lon="-71.14498349837958812713623046875">
        <ele>878</ele>
        <time>2026-08-22T02:54:54.000Z</time>
        <extensions>
          <ns3:TrackPointExtension>
            <ns3:hr>117</ns3:hr>
            <ns3:cad>64</ns3:cad>
          </ns3:TrackPointExtension>
        </extensions>
      </trkpt>
      <trkpt lat="45.24604515172541141510009765625" lon="-71.1450001783668994903564453125">
        <ele>877.79998779296875</ele>
        <time>2026-08-22T02:54:55.000Z</time>
        <extensions>
          <ns3:TrackPointExtension>
            <ns3:hr>117</ns3:hr>
            <ns3:cad>0</ns3:cad>
          </ns3:TrackPointExtension>
        </extensions>
      </trkpt>
      <trkpt lat="45.24605688638985157012939453125" lon="-71.145019792020320892333984375">
        <ele>877.5999755859375</ele>
        <time>2026-08-22T02:54:56.000Z</time>
        <extensions>
          <ns3:TrackPointExtension>
            <ns3:hr>118</ns3:hr>
            <ns3:cad>0</ns3:cad>
          </ns3:TrackPointExtension>
        </extensions>
      </trkpt>
      <trkpt lat="45.2460671961307525634765625" lon="-71.14505030214786529541015625">
        <ele>877.20001220703125</ele>
        <time>2026-08-22T02:54:57.000Z</time>
        <extensions>
          <ns3:TrackPointExtension>
            <ns3:hr>118</ns3:hr>
            <ns3:cad>0</ns3:cad>
          </ns3:TrackPointExtension>
        </extensions>
      </trkpt>
      <trkpt lat="45.24607650004327297210693359375" lon="-71.14507050253450870513916015625">
        <ele>876.79998779296875</ele>
        <time>2026-08-22T02:54:58.000Z</time>
        <extensions>
          <ns3:TrackPointExtension>
            <ns3:hr>119</ns3:hr>
            <ns3:cad>0</ns3:cad>
          </ns3:TrackPointExtension>
        </extensions>
      </trkpt>
      <trkpt lat="45.246082283556461334228515625" lon="-71.14508382976055145263671875">
        <ele>876.5999755859375</ele>
        <time>2026-08-22T02:54:59.000Z</time>
        <extensions>
          <ns3:TrackPointExtension>
            <ns3:hr>120</ns3:hr>
            <ns3:cad>0</ns3:cad>
          </ns3:TrackPointExtension>
        </extensions>
      </trkpt>
      <trkpt lat="45.24608924053609371185302734375" lon="-71.1450947262346744537353515625">
        <ele>876.4000244140625</ele>
        <time>2026-08-22T02:55:00.000Z</time>
        <extensions>
          <ns3:TrackPointExtension>
            <ns3:hr>120</ns3:hr>
            <ns3:cad>0</ns3:cad>
          </ns3:TrackPointExtension>
        </extensions>
      </trkpt>
      <trkpt lat="45.2460975386202335357666015625" lon="-71.14511425606906414031982421875">
        <ele>876.4000244140625</ele>
        <time>2026-08-22T02:55:01.000Z</time>
        <extensions>
          <ns3:TrackPointExtension>
            <ns3:hr>120</ns3:hr>
            <ns3:cad>0</ns3:cad>
          </ns3:TrackPointExtension>
        </extensions>
      </trkpt>
      <trkpt lat="45.2461059205234050750732421875" lon="-71.145120374858379364013671875">
        <ele>876.20001220703125</ele>
        <time>2026-08-22T02:55:02.000Z</time>
        <extensions>
          <ns3:TrackPointExtension>
            <ns3:hr>120</ns3:hr>
            <ns3:cad>0</ns3:cad>
          </ns3:TrackPointExtension>
        </extensions>
      </trkpt>
      <trkpt lat="45.24611555971205234527587890625" lon="-71.14513303153216838836669921875">
        <ele>876.20001220703125</ele>
        <time>2026-08-22T02:55:03.000Z</time>
        <extensions>
          <ns3:TrackPointExtension>
            <ns3:hr>119</ns3:hr>
            <ns3:cad>17</ns3:cad>
          </ns3:TrackPointExtension>
        </extensions>
      </trkpt>
      <trkpt lat="45.2461230196058750152587890625" lon="-71.14514124579727649688720703125">
        <ele>876</ele>
        <time>2026-08-22T02:55:04.000Z</time>
        <extensions>
          <ns3:TrackPointExtension>
            <ns3:hr>119</ns3:hr>
            <ns3:cad>17</ns3:cad>
          </ns3:TrackPointExtension>
        </extensions>
      </trkpt>
      <trkpt lat="45.2461347542703151702880859375" lon="-71.1451560817658901214599609375">
        <ele>876</ele>
        <time>2026-08-22T02:55:05.000Z</time>
        <extensions>
          <ns3:TrackPointExtension>
            <ns3:hr>120</ns3:hr>
            <ns3:cad>17</ns3:cad>
          </ns3:TrackPointExtension>
        </extensions>
      </trkpt>
      <trkpt lat="45.2461454831063747406005859375" lon="-71.14516831934452056884765625">
        <ele>875.79998779296875</ele>
        <time>2026-08-22T02:55:06.000Z</time>
        <extensions>
          <ns3:TrackPointExtension>
            <ns3:hr>120</ns3:hr>
            <ns3:cad>17</ns3:cad>
          </ns3:TrackPointExtension>
        </extensions>
      </trkpt>
      <trkpt lat="45.2461528591811656951904296875" lon="-71.14518516696989536285400390625">
        <ele>875.79998779296875</ele>
        <time>2026-08-22T02:55:07.000Z</time>
        <extensions>
          <ns3:TrackPointExtension>
            <ns3:hr>120</ns3:hr>
            <ns3:cad>62</ns3:cad>
          </ns3:TrackPointExtension>
        </extensions>
      </trkpt>
      <trkpt lat="45.24615964852273464202880859375" lon="-71.14519338123500347137451171875">
        <ele>875.5999755859375</ele>
        <time>2026-08-22T02:55:08.000Z</time>
        <extensions>
          <ns3:TrackPointExtension>
            <ns3:hr>120</ns3:hr>
            <ns3:cad>62</ns3:cad>
          </ns3:TrackPointExtension>
        </extensions>
      </trkpt>
      <trkpt lat="45.2461679466068744659423828125" lon="-71.14520184695720672607421875">
        <ele>875.20001220703125</ele>
        <time>2026-08-22T02:55:09.000Z</time>
        <extensions>
          <ns3:TrackPointExtension>
            <ns3:hr>121</ns3:hr>
            <ns3:cad>62</ns3:cad>
          </ns3:TrackPointExtension>
        </extensions>
      </trkpt>
      <trkpt lat="45.2461786754429340362548828125" lon="-71.14520494826138019561767578125">
        <ele>875</ele>
        <time>2026-08-22T02:55:10.000Z</time>
        <extensions>
          <ns3:TrackPointExtension>
            <ns3:hr>121</ns3:hr>
            <ns3:cad>62</ns3:cad>
          </ns3:TrackPointExtension>
        </extensions>
      </trkpt>
      <trkpt lat="45.24618856608867645263671875" lon="-71.14520763047039508819580078125">
        <ele>874.79998779296875</ele>
        <time>2026-08-22T02:55:11.000Z</time>
        <extensions>
          <ns3:TrackPointExtension>
            <ns3:hr>122</ns3:hr>
            <ns3:cad>62</ns3:cad>
          </ns3:TrackPointExtension>
        </extensions>
      </trkpt>
      <trkpt lat="45.24619770236313343048095703125" lon="-71.14520855247974395751953125">
        <ele>874.4000244140625</ele>
        <time>2026-08-22T02:55:12.000Z</time>
        <extensions>
          <ns3:TrackPointExtension>
            <ns3:hr>122</ns3:hr>
            <ns3:cad>62</ns3:cad>
          </ns3:TrackPointExtension>
        </extensions>
      </trkpt>
      <trkpt lat="45.246207676827907562255859375" lon="-71.14521123468875885009765625">
        <ele>874</ele>
        <time>2026-08-22T02:55:13.000Z</time>
        <extensions>
          <ns3:TrackPointExtension>
            <ns3:hr>121</ns3:hr>
            <ns3:cad>61</ns3:cad>
          </ns3:TrackPointExtension>
        </extensions>
      </trkpt>
      <trkpt lat="45.246221087872982025146484375" lon="-71.14521819166839122772216796875">
        <ele>873.5999755859375</ele>
        <time>2026-08-22T02:55:14.000Z</time>
        <extensions>
          <ns3:TrackPointExtension>
            <ns3:hr>121</ns3:hr>
            <ns3:cad>61</ns3:cad>
          </ns3:TrackPointExtension>
        </extensions>
      </trkpt>
      <trkpt lat="45.2462363429367542266845703125" lon="-71.145226322114467620849609375">
        <ele>873.20001220703125</ele>
        <time>2026-08-22T02:55:15.000Z</time>
        <extensions>
          <ns3:TrackPointExtension>
            <ns3:hr>121</ns3:hr>
            <ns3:cad>61</ns3:cad>
          </ns3:TrackPointExtension>
        </extensions>
      </trkpt>
      <trkpt lat="45.24624598212540149688720703125" lon="-71.14523445256054401397705078125">
        <ele>872.79998779296875</ele>
        <time>2026-08-22T02:55:16.000Z</time>
        <extensions>
          <ns3:TrackPointExtension>
            <ns3:hr>120</ns3:hr>
            <ns3:cad>61</ns3:cad>
          </ns3:TrackPointExtension>
        </extensions>
      </trkpt>
      <trkpt lat="45.24625402875244617462158203125" lon="-71.14523914642632007598876953125">
        <ele>872.4000244140625</ele>
        <time>2026-08-22T02:55:17.000Z</time>
        <extensions>
          <ns3:TrackPointExtension>
            <ns3:hr>119</ns3:hr>
            <ns3:cad>61</ns3:cad>
          </ns3:TrackPointExtension>
        </extensions>
      </trkpt>
      <trkpt lat="45.246263332664966583251953125" lon="-71.145248450338840484619140625">
        <ele>872.20001220703125</ele>
        <time>2026-08-22T02:55:18.000Z</time>
        <extensions>
          <ns3:TrackPointExtension>
            <ns3:hr>118</ns3:hr>
            <ns3:cad>61</ns3:cad>
          </ns3:TrackPointExtension>
        </extensions>
      </trkpt>
      <trkpt lat="45.24627565406262874603271484375" lon="-71.14525616168975830078125">
        <ele>871.79998779296875</ele>
        <time>2026-08-22T02:55:19.000Z</time>
        <extensions>
          <ns3:TrackPointExtension>
            <ns3:hr>118</ns3:hr>
            <ns3:cad>61</ns3:cad>
          </ns3:TrackPointExtension>
        </extensions>
      </trkpt>
      <trkpt lat="45.246288813650608062744140625" lon="-71.1452650465071201324462890625">
        <ele>871.5999755859375</ele>
        <time>2026-08-22T02:55:20.000Z</time>
        <extensions>
          <ns3:TrackPointExtension>
            <ns3:hr>117</ns3:hr>
            <ns3:cad>61</ns3:cad>
          </ns3:TrackPointExtension>
        </extensions>
      </trkpt>
      <trkpt lat="45.24629987776279449462890625" lon="-71.14527502097189426422119140625">
        <ele>871.4000244140625</ele>
        <time>2026-08-22T02:55:21.000Z</time>
        <extensions>
          <ns3:TrackPointExtension>
            <ns3:hr>117</ns3:hr>
            <ns3:cad>61</ns3:cad>
          </ns3:TrackPointExtension>
        </extensions>
      </trkpt>
      <trkpt lat="45.24631085805594921112060546875" lon="-71.1452794633805751800537109375">
        <ele>871</ele>
        <time>2026-08-22T02:55:22.000Z</time>
        <extensions>
          <ns3:TrackPointExtension>
            <ns3:hr>118</ns3:hr>
            <ns3:cad>0</ns3:cad>
          </ns3:TrackPointExtension>
        </extensions>
      </trkpt>
      <trkpt lat="45.24631840176880359649658203125" lon="-71.1452797986567020416259765625">
        <ele>870.79998779296875</ele>
        <time>2026-08-22T02:55:23.000Z</time>
        <extensions>
          <ns3:TrackPointExtension>
            <ns3:hr>119</ns3:hr>
            <ns3:cad>0</ns3:cad>
          </ns3:TrackPointExtension>
        </extensions>
      </trkpt>
      <trkpt lat="45.24632644839584827423095703125" lon="-71.1452831514179706573486328125">
        <ele>870.4000244140625</ele>
        <time>2026-08-22T02:55:24.000Z</time>
        <extensions>
          <ns3:TrackPointExtension>
            <ns3:hr>119</ns3:hr>
            <ns3:cad>69</ns3:cad>
          </ns3:TrackPointExtension>
        </extensions>
      </trkpt>
      <trkpt lat="45.24633382447063922882080078125" lon="-71.145282648503780364990234375">
        <ele>870.20001220703125</ele>
        <time>2026-08-22T02:55:25.000Z</time>
        <extensions>
          <ns3:TrackPointExtension>
            <ns3:hr>120</ns3:hr>
            <ns3:cad>69</ns3:cad>
          </ns3:TrackPointExtension>
        </extensions>
      </trkpt>
      <trkpt lat="45.24633751250803470611572265625" lon="-71.1452808044850826263427734375">
        <ele>869.79998779296875</ele>
        <time>2026-08-22T02:55:26.000Z</time>
        <extensions>
          <ns3:TrackPointExtension>
            <ns3:hr>121</ns3:hr>
            <ns3:cad>69</ns3:cad>
          </ns3:TrackPointExtension>
        </extensions>
      </trkpt>
      <trkpt lat="45.24633751250803470611572265625" lon="-71.14528239704668521881103515625">
        <ele>869.4000244140625</ele>
        <time>2026-08-22T02:55:27.000Z</time>
        <extensions>
          <ns3:TrackPointExtension>
            <ns3:hr>123</ns3:hr>
            <ns3:cad>69</ns3:cad>
          </ns3:TrackPointExtension>
        </extensions>
      </trkpt>
      <trkpt lat="45.24633583612740039825439453125" lon="-71.14528424106538295745849609375">
        <ele>869</ele>
        <time>2026-08-22T02:55:28.000Z</time>
        <extensions>
          <ns3:TrackPointExtension>
            <ns3:hr>123</ns3:hr>
            <ns3:cad>69</ns3:cad>
          </ns3:TrackPointExtension>
        </extensions>
      </trkpt>
      <trkpt lat="45.24633876979351043701171875" lon="-71.14528407342731952667236328125">
        <ele>868.79998779296875</ele>
        <time>2026-08-22T02:55:29.000Z</time>
        <extensions>
          <ns3:TrackPointExtension>
            <ns3:hr>123</ns3:hr>
            <ns3:cad>69</ns3:cad>
          </ns3:TrackPointExtension>
        </extensions>
      </trkpt>
      <trkpt lat="45.24634958244860172271728515625" lon="-71.14528558216989040374755859375">
        <ele>868.5999755859375</ele>
        <time>2026-08-22T02:55:30.000Z</time>
        <extensions>
          <ns3:TrackPointExtension>
            <ns3:hr>124</ns3:hr>
            <ns3:cad>69</ns3:cad>
          </ns3:TrackPointExtension>
        </extensions>
      </trkpt>
      <trkpt lat="45.24636282585561275482177734375" lon="-71.145287342369556427001953125">
        <ele>868.4000244140625</ele>
        <time>2026-08-22T02:55:31.000Z</time>
        <extensions>
          <ns3:TrackPointExtension>
            <ns3:hr>124</ns3:hr>
            <ns3:cad>69</ns3:cad>
          </ns3:TrackPointExtension>
        </extensions>
      </trkpt>
      <trkpt lat="45.24637405760586261749267578125" lon="-71.1452911980450153350830078125">
        <ele>868.20001220703125</ele>
        <time>2026-08-22T02:55:32.000Z</time>
        <extensions>
          <ns3:TrackPointExtension>
            <ns3:hr>124</ns3:hr>
            <ns3:cad>69</ns3:cad>
          </ns3:TrackPointExtension>
        </extensions>
      </trkpt>
      <trkpt lat="45.246386043727397918701171875" lon="-71.14530335180461406707763671875">
        <ele>868</ele>
        <time>2026-08-22T02:55:33.000Z</time>
        <extensions>
          <ns3:TrackPointExtension>
            <ns3:hr>123</ns3:hr>
            <ns3:cad>0</ns3:cad>
          </ns3:TrackPointExtension>
        </extensions>
      </trkpt>
      <trkpt lat="45.24639283306896686553955078125" lon="-71.14531290717422962188720703125">
        <ele>867.79998779296875</ele>
        <time>2026-08-22T02:55:34.000Z</time>
        <extensions>
          <ns3:TrackPointExtension>
            <ns3:hr>123</ns3:hr>
            <ns3:cad>0</ns3:cad>
          </ns3:TrackPointExtension>
        </extensions>
      </trkpt>
      <trkpt lat="45.2463997900485992431640625" lon="-71.14531927742063999176025390625">
        <ele>867.4000244140625</ele>
        <time>2026-08-22T02:55:35.000Z</time>
        <extensions>
          <ns3:TrackPointExtension>
            <ns3:hr>122</ns3:hr>
            <ns3:cad>0</ns3:cad>
          </ns3:TrackPointExtension>
        </extensions>
      </trkpt>
      <trkpt lat="45.24641177617013454437255859375" lon="-71.1453334428369998931884765625">
        <ele>867</ele>
        <time>2026-08-22T02:55:36.000Z</time>
        <extensions>
          <ns3:TrackPointExtension>
            <ns3:hr>122</ns3:hr>
            <ns3:cad>0</ns3:cad>
          </ns3:TrackPointExtension>
        </extensions>
      </trkpt>
      <trkpt lat="45.2464266121387481689453125" lon="-71.14535196684300899505615234375">
        <ele>866.5999755859375</ele>
        <time>2026-08-22T02:55:37.000Z</time>
        <extensions>
          <ns3:TrackPointExtension>
            <ns3:hr>122</ns3:hr>
            <ns3:cad>0</ns3:cad>
          </ns3:TrackPointExtension>
        </extensions>
      </trkpt>
      <trkpt lat="45.24643742479383945465087890625" lon="-71.145366467535495758056640625">
        <ele>866.20001220703125</ele>
        <time>2026-08-22T02:55:38.000Z</time>
        <extensions>
          <ns3:TrackPointExtension>
            <ns3:hr>123</ns3:hr>
            <ns3:cad>0</ns3:cad>
          </ns3:TrackPointExtension>
        </extensions>
      </trkpt>
      <trkpt lat="45.2464398555457592010498046875" lon="-71.14538155496120452880859375">
        <ele>866</ele>
        <time>2026-08-22T02:55:39.000Z</time>
        <extensions>
          <ns3:TrackPointExtension>
            <ns3:hr>123</ns3:hr>
            <ns3:cad>0</ns3:cad>
          </ns3:TrackPointExtension>
        </extensions>
      </trkpt>
      <trkpt lat="45.246447734534740447998046875" lon="-71.1454025097191333770751953125">
        <ele>865.5999755859375</ele>
        <time>2026-08-22T02:55:40.000Z</time>
        <extensions>
          <ns3:TrackPointExtension>
            <ns3:hr>123</ns3:hr>
            <ns3:cad>0</ns3:cad>
          </ns3:TrackPointExtension>
        </extensions>
      </trkpt>
      <trkpt lat="45.2464556135237216949462890625" lon="-71.1454152502119541168212890625">
        <ele>865.5999755859375</ele>
        <time>2026-08-22T02:55:41.000Z</time>
        <extensions>
          <ns3:TrackPointExtension>
            <ns3:hr>123</ns3:hr>
            <ns3:cad>76</ns3:cad>
          </ns3:TrackPointExtension>
        </extensions>
      </trkpt>
      <trkpt lat="45.246462486684322357177734375" lon="-71.145425140857696533203125">
        <ele>865.5999755859375</ele>
        <time>2026-08-22T02:55:42.000Z</time>
        <extensions>
          <ns3:TrackPointExtension>
            <ns3:hr>122</ns3:hr>
            <ns3:cad>76</ns3:cad>
          </ns3:TrackPointExtension>
        </extensions>
      </trkpt>
      <trkpt lat="45.2464707009494304656982421875" lon="-71.14543679170310497283935546875">
        <ele>865.4000244140625</ele>
        <time>2026-08-22T02:55:43.000Z</time>
        <extensions>
          <ns3:TrackPointExtension>
            <ns3:hr>122</ns3:hr>
            <ns3:cad>76</ns3:cad>
          </ns3:TrackPointExtension>
        </extensions>
      </trkpt>
      <trkpt lat="45.2464784123003482818603515625" lon="-71.14544467069208621978759765625">
        <ele>865.20001220703125</ele>
        <time>2026-08-22T02:55:44.000Z</time>
        <extensions>
          <ns3:TrackPointExtension>
            <ns3:hr>123</ns3:hr>
            <ns3:cad>76</ns3:cad>
          </ns3:TrackPointExtension>
        </extensions>
      </trkpt>
      <trkpt lat="45.24648603983223438262939453125" lon="-71.14545741118490695953369140625">
        <ele>864.79998779296875</ele>
        <time>2026-08-22T02:55:45.000Z</time>
        <extensions>
          <ns3:TrackPointExtension>
            <ns3:hr>123</ns3:hr>
            <ns3:cad>76</ns3:cad>
          </ns3:TrackPointExtension>
        </extensions>
      </trkpt>
      <trkpt lat="45.246493332087993621826171875" lon="-71.14546646364033222198486328125">
        <ele>864.5999755859375</ele>
        <time>2026-08-22T02:55:46.000Z</time>
        <extensions>
          <ns3:TrackPointExtension>
            <ns3:hr>123</ns3:hr>
            <ns3:cad>76</ns3:cad>
          </ns3:TrackPointExtension>
        </extensions>
      </trkpt>
      <trkpt lat="45.2464991994202136993408203125" lon="-71.145476438105106353759765625">
        <ele>864.20001220703125</ele>
        <time>2026-08-22T02:55:47.000Z</time>
        <extensions>
          <ns3:TrackPointExtension>
            <ns3:hr>123</ns3:hr>
            <ns3:cad>76</ns3:cad>
          </ns3:TrackPointExtension>
        </extensions>
      </trkpt>
      <trkpt lat="45.24650649167597293853759765625" lon="-71.14548406563699245452880859375">
        <ele>864</ele>
        <time>2026-08-22T02:55:48.000Z</time>
        <extensions>
          <ns3:TrackPointExtension>
            <ns3:hr>123</ns3:hr>
            <ns3:cad>62</ns3:cad>
          </ns3:TrackPointExtension>
        </extensions>
      </trkpt>
      <trkpt lat="45.24651688523590564727783203125" lon="-71.14550049416720867156982421875">
        <ele>863.79998779296875</ele>
        <time>2026-08-22T02:55:49.000Z</time>
        <extensions>
          <ns3:TrackPointExtension>
            <ns3:hr>124</ns3:hr>
            <ns3:cad>62</ns3:cad>
          </ns3:TrackPointExtension>
        </extensions>
      </trkpt>
      <trkpt lat="45.2465250156819820404052734375" lon="-71.145509295165538787841796875">
        <ele>863.5999755859375</ele>
        <time>2026-08-22T02:55:50.000Z</time>
        <extensions>
          <ns3:TrackPointExtension>
            <ns3:hr>124</ns3:hr>
            <ns3:cad>0</ns3:cad>
          </ns3:TrackPointExtension>
        </extensions>
      </trkpt>
      <trkpt lat="45.2465317212045192718505859375" lon="-71.1455181799829006195068359375">
        <ele>863.4000244140625</ele>
        <time>2026-08-22T02:55:51.000Z</time>
        <extensions>
          <ns3:TrackPointExtension>
            <ns3:hr>124</ns3:hr>
            <ns3:cad>0</ns3:cad>
          </ns3:TrackPointExtension>
        </extensions>
      </trkpt>
      <trkpt lat="45.24654337204992771148681640625" lon="-71.14553402177989482879638671875">
        <ele>863.20001220703125</ele>
        <time>2026-08-22T02:55:52.000Z</time>
        <extensions>
          <ns3:TrackPointExtension>
            <ns3:hr>124</ns3:hr>
            <ns3:cad>0</ns3:cad>
          </ns3:TrackPointExtension>
        </extensions>
      </trkpt>
      <trkpt lat="45.24655661545693874359130859375" lon="-71.14554944448173046112060546875">
        <ele>863</ele>
        <time>2026-08-22T02:55:53.000Z</time>
        <extensions>
          <ns3:TrackPointExtension>
            <ns3:hr>124</ns3:hr>
            <ns3:cad>0</ns3:cad>
          </ns3:TrackPointExtension>
        </extensions>
      </trkpt>
      <trkpt lat="45.24656617082655429840087890625" lon="-71.14556553773581981658935546875">
        <ele>862.79998779296875</ele>
        <time>2026-08-22T02:55:54.000Z</time>
        <extensions>
          <ns3:TrackPointExtension>
            <ns3:hr>123</ns3:hr>
            <ns3:cad>0</ns3:cad>
          </ns3:TrackPointExtension>
        </extensions>
      </trkpt>
      <trkpt lat="45.2465766482055187225341796875" lon="-71.1455845646560192108154296875">
        <ele>862.4000244140625</ele>
        <time>2026-08-22T02:55:55.000Z</time>
        <extensions>
          <ns3:TrackPointExtension>
            <ns3:hr>122</ns3:hr>
            <ns3:cad>0</ns3:cad>
          </ns3:TrackPointExtension>
        </extensions>
      </trkpt>
      <trkpt lat="45.24658595211803913116455078125" lon="-71.14559101872146129608154296875">
        <ele>862.20001220703125</ele>
        <time>2026-08-22T02:55:56.000Z</time>
        <extensions>
          <ns3:TrackPointExtension>
            <ns3:hr>120</ns3:hr>
            <ns3:cad>0</ns3:cad>
          </ns3:TrackPointExtension>
        </extensions>
      </trkpt>
      <trkpt lat="45.24659869261085987091064453125" lon="-71.145597137510776519775390625">
        <ele>861.79998779296875</ele>
        <time>2026-08-22T02:55:57.000Z</time>
        <extensions>
          <ns3:TrackPointExtension>
            <ns3:hr>119</ns3:hr>
            <ns3:cad>0</ns3:cad>
          </ns3:TrackPointExtension>
        </extensions>
      </trkpt>
      <trkpt lat="45.24660606868565082550048828125" lon="-71.14559906534850597381591796875">
        <ele>861.5999755859375</ele>
        <time>2026-08-22T02:55:58.000Z</time>
        <extensions>
          <ns3:TrackPointExtension>
            <ns3:hr>119</ns3:hr>
            <ns3:cad>0</ns3:cad>
          </ns3:TrackPointExtension>
        </extensions>
      </trkpt>
      <trkpt lat="45.2466118521988391876220703125" lon="-71.1456006579101085662841796875">
        <ele>861.4000244140625</ele>
        <time>2026-08-22T02:55:59.000Z</time>
        <extensions>
          <ns3:TrackPointExtension>
            <ns3:hr>118</ns3:hr>
            <ns3:cad>0</ns3:cad>
          </ns3:TrackPointExtension>
        </extensions>
      </trkpt>
      <trkpt lat="45.246616043150424957275390625" lon="-71.14560476504266262054443359375">
        <ele>861.20001220703125</ele>
        <time>2026-08-22T02:56:00.000Z</time>
        <extensions>
          <ns3:TrackPointExtension>
            <ns3:hr>118</ns3:hr>
            <ns3:cad>0</ns3:cad>
          </ns3:TrackPointExtension>
        </extensions>
      </trkpt>
      <trkpt lat="45.24662417359650135040283203125" lon="-71.14561180584132671356201171875">
        <ele>860.79998779296875</ele>
        <time>2026-08-22T02:56:01.000Z</time>
        <extensions>
          <ns3:TrackPointExtension>
            <ns3:hr>118</ns3:hr>
            <ns3:cad>0</ns3:cad>
          </ns3:TrackPointExtension>
        </extensions>
      </trkpt>
      <trkpt lat="45.2466289512813091278076171875" lon="-71.14562052302062511444091796875">
        <ele>860.5999755859375</ele>
        <time>2026-08-22T02:56:02.000Z</time>
        <extensions>
          <ns3:TrackPointExtension>
            <ns3:hr>118</ns3:hr>
            <ns3:cad>0</ns3:cad>
          </ns3:TrackPointExtension>
        </extensions>
      </trkpt>
      <trkpt lat="45.24663540534675121307373046875" lon="-71.1456244625151157379150390625">
        <ele>860.4000244140625</ele>
        <time>2026-08-22T02:56:03.000Z</time>
        <extensions>
          <ns3:TrackPointExtension>
            <ns3:hr>118</ns3:hr>
            <ns3:cad>0</ns3:cad>
          </ns3:TrackPointExtension>
        </extensions>
      </trkpt>
      <trkpt lat="45.24664345197379589080810546875" lon="-71.14562965929508209228515625">
        <ele>860.20001220703125</ele>
        <time>2026-08-22T02:56:04.000Z</time>
        <extensions>
          <ns3:TrackPointExtension>
            <ns3:hr>118</ns3:hr>
            <ns3:cad>0</ns3:cad>
          </ns3:TrackPointExtension>
        </extensions>
      </trkpt>
      <trkpt lat="45.2466520853340625762939453125" lon="-71.1456308327615261077880859375">
        <ele>860</ele>
        <time>2026-08-22T02:56:05.000Z</time>
        <extensions>
          <ns3:TrackPointExtension>
            <ns3:hr>118</ns3:hr>
            <ns3:cad>0</ns3:cad>
          </ns3:TrackPointExtension>
        </extensions>
      </trkpt>
      <trkpt lat="45.2466688491404056549072265625" lon="-71.14563678391277790069580078125">
        <ele>859.79998779296875</ele>
        <time>2026-08-22T02:56:06.000Z</time>
        <extensions>
          <ns3:TrackPointExtension>
            <ns3:hr>118</ns3:hr>
            <ns3:cad>0</ns3:cad>
          </ns3:TrackPointExtension>
        </extensions>
      </trkpt>
      <trkpt lat="45.24667899124324321746826171875" lon="-71.14564147777855396270751953125">
        <ele>859.5999755859375</ele>
        <time>2026-08-22T02:56:07.000Z</time>
        <extensions>
          <ns3:TrackPointExtension>
            <ns3:hr>118</ns3:hr>
            <ns3:cad>0</ns3:cad>
          </ns3:TrackPointExtension>
        </extensions>
      </trkpt>
      <trkpt lat="45.24669013917446136474609375" lon="-71.1456517875194549560546875">
        <ele>859.4000244140625</ele>
        <time>2026-08-22T02:56:08.000Z</time>
        <extensions>
          <ns3:TrackPointExtension>
            <ns3:hr>118</ns3:hr>
            <ns3:cad>0</ns3:cad>
          </ns3:TrackPointExtension>
        </extensions>
      </trkpt>
      <trkpt lat="45.2466990239918231964111328125" lon="-71.14565782248973846435546875">
        <ele>859</ele>
        <time>2026-08-22T02:56:09.000Z</time>
        <extensions>
          <ns3:TrackPointExtension>
            <ns3:hr>117</ns3:hr>
            <ns3:cad>0</ns3:cad>
          </ns3:TrackPointExtension>
        </extensions>
      </trkpt>
      <trkpt lat="45.2467057295143604278564453125" lon="-71.14566260017454624176025390625">
        <ele>858.79998779296875</ele>
        <time>2026-08-22T02:56:10.000Z</time>
        <extensions>
          <ns3:TrackPointExtension>
            <ns3:hr>116</ns3:hr>
            <ns3:cad>0</ns3:cad>
          </ns3:TrackPointExtension>
        </extensions>
      </trkpt>
      <trkpt lat="45.24671318940818309783935546875" lon="-71.14566779695451259613037109375">
        <ele>858.5999755859375</ele>
        <time>2026-08-22T02:56:11.000Z</time>
        <extensions>
          <ns3:TrackPointExtension>
            <ns3:hr>115</ns3:hr>
            <ns3:cad>0</ns3:cad>
          </ns3:TrackPointExtension>
        </extensions>
      </trkpt>
      <trkpt lat="45.24671872146427631378173828125" lon="-71.1456771008670330047607421875">
        <ele>858.20001220703125</ele>
        <time>2026-08-22T02:56:12.000Z</time>
        <extensions>
          <ns3:TrackPointExtension>
            <ns3:hr>115</ns3:hr>
            <ns3:cad>0</ns3:cad>
          </ns3:TrackPointExtension>
        </extensions>
      </trkpt>
      <trkpt lat="45.24672500789165496826171875" lon="-71.14568690769374370574951171875">
        <ele>858</ele>
        <time>2026-08-22T02:56:13.000Z</time>
        <extensions>
          <ns3:TrackPointExtension>
            <ns3:hr>115</ns3:hr>
            <ns3:cad>0</ns3:cad>
          </ns3:TrackPointExtension>
        </extensions>
      </trkpt>
      <trkpt lat="45.24673028849065303802490234375" lon="-71.1456947028636932373046875">
        <ele>858</ele>
        <time>2026-08-22T02:56:14.000Z</time>
        <extensions>
          <ns3:TrackPointExtension>
            <ns3:hr>116</ns3:hr>
            <ns3:cad>0</ns3:cad>
          </ns3:TrackPointExtension>
        </extensions>
      </trkpt>
      <trkpt lat="45.246735401451587677001953125" lon="-71.1456945352256298065185546875">
        <ele>857.79998779296875</ele>
        <time>2026-08-22T02:56:15.000Z</time>
        <extensions>
          <ns3:TrackPointExtension>
            <ns3:hr>117</ns3:hr>
            <ns3:cad>0</ns3:cad>
          </ns3:TrackPointExtension>
        </extensions>
      </trkpt>
      <trkpt lat="45.24674135260283946990966796875" lon="-71.14569730125367641448974609375">
        <ele>857.5999755859375</ele>
        <time>2026-08-22T02:56:16.000Z</time>
        <extensions>
          <ns3:TrackPointExtension>
            <ns3:hr>117</ns3:hr>
            <ns3:cad>0</ns3:cad>
          </ns3:TrackPointExtension>
        </extensions>
      </trkpt>
      <trkpt lat="45.2467436157166957855224609375" lon="-71.1456985585391521453857421875">
        <ele>857.4000244140625</ele>
        <time>2026-08-22T02:56:17.000Z</time>
        <extensions>
          <ns3:TrackPointExtension>
            <ns3:hr>118</ns3:hr>
            <ns3:cad>0</ns3:cad>
          </ns3:TrackPointExtension>
        </extensions>
      </trkpt>
      <trkpt lat="45.24674646556377410888671875" lon="-71.145697049796581268310546875">
        <ele>857.4000244140625</ele>
        <time>2026-08-22T02:56:18.000Z</time>
        <extensions>
          <ns3:TrackPointExtension>
            <ns3:hr>118</ns3:hr>
            <ns3:cad>0</ns3:cad>
          </ns3:TrackPointExtension>
        </extensions>
      </trkpt>
      <trkpt lat="45.24674872867763042449951171875" lon="-71.14569663070142269134521484375">
        <ele>857.20001220703125</ele>
        <time>2026-08-22T02:56:19.000Z</time>
        <extensions>
          <ns3:TrackPointExtension>
            <ns3:hr>118</ns3:hr>
            <ns3:cad>0</ns3:cad>
          </ns3:TrackPointExtension>
        </extensions>
      </trkpt>
      <trkpt lat="45.24676113389432430267333984375" lon="-71.1457086168229579925537109375">
        <ele>857</ele>
        <time>2026-08-22T02:56:20.000Z</time>
        <extensions>
          <ns3:TrackPointExtension>
            <ns3:hr>118</ns3:hr>
            <ns3:cad>0</ns3:cad>
          </ns3:TrackPointExtension>
        </extensions>
      </trkpt>
      <trkpt lat="45.24677504785358905792236328125" lon="-71.1457193456590175628662109375">
        <ele>856.79998779296875</ele>
        <time>2026-08-22T02:56:21.000Z</time>
        <extensions>
          <ns3:TrackPointExtension>
            <ns3:hr>117</ns3:hr>
            <ns3:cad>0</ns3:cad>
          </ns3:TrackPointExtension>
        </extensions>
      </trkpt>
      <trkpt lat="45.24679030291736125946044921875" lon="-71.14572823047637939453125">
        <ele>856.5999755859375</ele>
        <time>2026-08-22T02:56:22.000Z</time>
        <extensions>
          <ns3:TrackPointExtension>
            <ns3:hr>118</ns3:hr>
            <ns3:cad>0</ns3:cad>
          </ns3:TrackPointExtension>
        </extensions>
      </trkpt>
      <trkpt lat="45.24679918773472309112548828125" lon="-71.14573267288506031036376953125">
        <ele>856.4000244140625</ele>
        <time>2026-08-22T02:56:23.000Z</time>
        <extensions>
          <ns3:TrackPointExtension>
            <ns3:hr>117</ns3:hr>
            <ns3:cad>0</ns3:cad>
          </ns3:TrackPointExtension>
        </extensions>
      </trkpt>
      <trkpt lat="45.2468089945614337921142578125" lon="-71.14573485217988491058349609375">
        <ele>856</ele>
        <time>2026-08-22T02:56:24.000Z</time>
        <extensions>
          <ns3:TrackPointExtension>
            <ns3:hr>117</ns3:hr>
            <ns3:cad>48</ns3:cad>
          </ns3:TrackPointExtension>
        </extensions>
      </trkpt>
      <trkpt lat="45.24682098068296909332275390625" lon="-71.1457374505698680877685546875">
        <ele>855.79998779296875</ele>
        <time>2026-08-22T02:56:25.000Z</time>
        <extensions>
          <ns3:TrackPointExtension>
            <ns3:hr>118</ns3:hr>
            <ns3:cad>48</ns3:cad>
          </ns3:TrackPointExtension>
        </extensions>
      </trkpt>
      <trkpt lat="45.24683103896677494049072265625" lon="-71.14573518745601177215576171875">
        <ele>855.5999755859375</ele>
        <time>2026-08-22T02:56:26.000Z</time>
        <extensions>
          <ns3:TrackPointExtension>
            <ns3:hr>117</ns3:hr>
            <ns3:cad>48</ns3:cad>
          </ns3:TrackPointExtension>
        </extensions>
      </trkpt>
      <trkpt lat="45.24684168398380279541015625" lon="-71.1457344330847263336181640625">
        <ele>855.4000244140625</ele>
        <time>2026-08-22T02:56:27.000Z</time>
        <extensions>
          <ns3:TrackPointExtension>
            <ns3:hr>117</ns3:hr>
            <ns3:cad>48</ns3:cad>
          </ns3:TrackPointExtension>
        </extensions>
      </trkpt>
      <trkpt lat="45.24684947915375232696533203125" lon="-71.14573183469474315643310546875">
        <ele>855</ele>
        <time>2026-08-22T02:56:28.000Z</time>
        <extensions>
          <ns3:TrackPointExtension>
            <ns3:hr>118</ns3:hr>
            <ns3:cad>41</ns3:cad>
          </ns3:TrackPointExtension>
        </extensions>
      </trkpt>
      <trkpt lat="45.24685769341886043548583984375" lon="-71.14572227932512760162353515625">
        <ele>854.79998779296875</ele>
        <time>2026-08-22T02:56:29.000Z</time>
        <extensions>
          <ns3:TrackPointExtension>
            <ns3:hr>118</ns3:hr>
            <ns3:cad>0</ns3:cad>
          </ns3:TrackPointExtension>
        </extensions>
      </trkpt>
      <trkpt lat="45.24686372838914394378662109375" lon="-71.14571406506001949310302734375">
        <ele>854.4000244140625</ele>
        <time>2026-08-22T02:56:30.000Z</time>
        <extensions>
          <ns3:TrackPointExtension>
            <ns3:hr>119</ns3:hr>
            <ns3:cad>0</ns3:cad>
          </ns3:TrackPointExtension>
        </extensions>
      </trkpt>
      <trkpt lat="45.2468700148165225982666015625" lon="-71.1457059346139430999755859375">
        <ele>854.20001220703125</ele>
        <time>2026-08-22T02:56:31.000Z</time>
        <extensions>
          <ns3:TrackPointExtension>
            <ns3:hr>120</ns3:hr>
            <ns3:cad>0</ns3:cad>
          </ns3:TrackPointExtension>
        </extensions>
      </trkpt>
      <trkpt lat="45.2468760497868061065673828125" lon="-71.1456975527107715606689453125">
        <ele>853.5999755859375</ele>
        <time>2026-08-22T02:56:32.000Z</time>
        <extensions>
          <ns3:TrackPointExtension>
            <ns3:hr>119</ns3:hr>
            <ns3:cad>0</ns3:cad>
          </ns3:TrackPointExtension>
        </extensions>
      </trkpt>
      <trkpt lat="45.24688820354640483856201171875" lon="-71.14568204618990421295166015625">
        <ele>853.20001220703125</ele>
        <time>2026-08-22T02:56:33.000Z</time>
        <extensions>
          <ns3:TrackPointExtension>
            <ns3:hr>119</ns3:hr>
            <ns3:cad>18</ns3:cad>
          </ns3:TrackPointExtension>
        </extensions>
      </trkpt>
      <trkpt lat="45.24688686244189739227294921875" lon="-71.14566855132579803466796875">
        <ele>852.79998779296875</ele>
        <time>2026-08-22T02:56:34.000Z</time>
        <extensions>
          <ns3:TrackPointExtension>
            <ns3:hr>119</ns3:hr>
            <ns3:cad>18</ns3:cad>
          </ns3:TrackPointExtension>
        </extensions>
      </trkpt>
      <trkpt lat="45.24689373560249805450439453125" lon="-71.14565379917621612548828125">
        <ele>852.4000244140625</ele>
        <time>2026-08-22T02:56:35.000Z</time>
        <extensions>
          <ns3:TrackPointExtension>
            <ns3:hr>120</ns3:hr>
            <ns3:cad>18</ns3:cad>
          </ns3:TrackPointExtension>
        </extensions>
      </trkpt>
      <trkpt lat="45.2469022013247013092041015625" lon="-71.1456445790827274322509765625">
        <ele>851.79998779296875</ele>
        <time>2026-08-22T02:56:36.000Z</time>
        <extensions>
          <ns3:TrackPointExtension>
            <ns3:hr>120</ns3:hr>
            <ns3:cad>18</ns3:cad>
          </ns3:TrackPointExtension>
        </extensions>
      </trkpt>
      <trkpt lat="45.246912427246570587158203125" lon="-71.14563041366636753082275390625">
        <ele>851.4000244140625</ele>
        <time>2026-08-22T02:56:37.000Z</time>
        <extensions>
          <ns3:TrackPointExtension>
            <ns3:hr>120</ns3:hr>
            <ns3:cad>18</ns3:cad>
          </ns3:TrackPointExtension>
        </extensions>
      </trkpt>
      <trkpt lat="45.24691955186426639556884765625" lon="-71.1456164158880710601806640625">
        <ele>851</ele>
        <time>2026-08-22T02:56:38.000Z</time>
        <extensions>
          <ns3:TrackPointExtension>
            <ns3:hr>120</ns3:hr>
            <ns3:cad>49</ns3:cad>
          </ns3:TrackPointExtension>
        </extensions>
      </trkpt>
      <trkpt lat="45.24692156352102756500244140625" lon="-71.145609207451343536376953125">
        <ele>850.5999755859375</ele>
        <time>2026-08-22T02:56:39.000Z</time>
        <extensions>
          <ns3:TrackPointExtension>
            <ns3:hr>120</ns3:hr>
            <ns3:cad>49</ns3:cad>
          </ns3:TrackPointExtension>
        </extensions>
      </trkpt>
      <trkpt lat="45.2469303645193576812744140625" lon="-71.14559789188206195831298828125">
        <ele>850.20001220703125</ele>
        <time>2026-08-22T02:56:40.000Z</time>
        <extensions>
          <ns3:TrackPointExtension>
            <ns3:hr>119</ns3:hr>
            <ns3:cad>49</ns3:cad>
          </ns3:TrackPointExtension>
        </extensions>
      </trkpt>
      <trkpt lat="45.2469367347657680511474609375" lon="-71.14559554494917392730712890625">
        <ele>849.79998779296875</ele>
        <time>2026-08-22T02:56:41.000Z</time>
        <extensions>
          <ns3:TrackPointExtension>
            <ns3:hr>118</ns3:hr>
            <ns3:cad>49</ns3:cad>
          </ns3:TrackPointExtension>
        </extensions>
      </trkpt>
      <trkpt lat="45.2469504810869693756103515625" lon="-71.14558682776987552642822265625">
        <ele>849.4000244140625</ele>
        <time>2026-08-22T02:56:42.000Z</time>
        <extensions>
          <ns3:TrackPointExtension>
            <ns3:hr>118</ns3:hr>
            <ns3:cad>49</ns3:cad>
          </ns3:TrackPointExtension>
        </extensions>
      </trkpt>
      <trkpt lat="45.2469578571617603302001953125" lon="-71.1455792002379894256591796875">
        <ele>849.20001220703125</ele>
        <time>2026-08-22T02:56:43.000Z</time>
        <extensions>
          <ns3:TrackPointExtension>
            <ns3:hr>118</ns3:hr>
            <ns3:cad>49</ns3:cad>
          </ns3:TrackPointExtension>
        </extensions>
      </trkpt>
      <trkpt lat="45.246956348419189453125" lon="-71.1455574072897434234619140625">
        <ele>849</ele>
        <time>2026-08-22T02:56:44.000Z</time>
        <extensions>
          <ns3:TrackPointExtension>
            <ns3:hr>117</ns3:hr>
            <ns3:cad>49</ns3:cad>
          </ns3:TrackPointExtension>
        </extensions>
      </trkpt>
      <trkpt lat="45.2469541691243648529052734375" lon="-71.14554760046303272247314453125">
        <ele>848.79998779296875</ele>
        <time>2026-08-22T02:56:45.000Z</time>
        <extensions>
          <ns3:TrackPointExtension>
            <ns3:hr>117</ns3:hr>
            <ns3:cad>49</ns3:cad>
          </ns3:TrackPointExtension>
        </extensions>
      </trkpt>
      <trkpt lat="45.246954001486301422119140625" lon="-71.1455309204757213592529296875">
        <ele>848.5999755859375</ele>
        <time>2026-08-22T02:56:46.000Z</time>
        <extensions>
          <ns3:TrackPointExtension>
            <ns3:hr>117</ns3:hr>
            <ns3:cad>49</ns3:cad>
          </ns3:TrackPointExtension>
        </extensions>
      </trkpt>
      <trkpt lat="45.246954672038555145263671875" lon="-71.1455165036022663116455078125">
        <ele>848.5999755859375</ele>
        <time>2026-08-22T02:56:47.000Z</time>
        <extensions>
          <ns3:TrackPointExtension>
            <ns3:hr>117</ns3:hr>
            <ns3:cad>49</ns3:cad>
          </ns3:TrackPointExtension>
        </extensions>
      </trkpt>
      <trkpt lat="45.24695433676242828369140625" lon="-71.1455051042139530181884765625">
        <ele>848.4000244140625</ele>
        <time>2026-08-22T02:56:48.000Z</time>
        <extensions>
          <ns3:TrackPointExtension>
            <ns3:hr>117</ns3:hr>
            <ns3:cad>0</ns3:cad>
          </ns3:TrackPointExtension>
        </extensions>
      </trkpt>
      <trkpt lat="45.24695559404790401458740234375" lon="-71.14548339508473873138427734375">
        <ele>848.4000244140625</ele>
        <time>2026-08-22T02:56:49.000Z</time>
        <extensions>
          <ns3:TrackPointExtension>
            <ns3:hr>117</ns3:hr>
            <ns3:cad>0</ns3:cad>
          </ns3:TrackPointExtension>
        </extensions>
      </trkpt>
      <trkpt lat="45.24695224128663539886474609375" lon="-71.14546277560293674468994140625">
        <ele>848.20001220703125</ele>
        <time>2026-08-22T02:56:50.000Z</time>
        <extensions>
          <ns3:TrackPointExtension>
            <ns3:hr>117</ns3:hr>
            <ns3:cad>0</ns3:cad>
          </ns3:TrackPointExtension>
        </extensions>
      </trkpt>
      <trkpt lat="45.24694704450666904449462890625" lon="-71.14544995129108428955078125">
        <ele>848</ele>
        <time>2026-08-22T02:56:51.000Z</time>
        <extensions>
          <ns3:TrackPointExtension>
            <ns3:hr>117</ns3:hr>
            <ns3:cad>0</ns3:cad>
          </ns3:TrackPointExtension>
        </extensions>
      </trkpt>
      <trkpt lat="45.2469467930495738983154296875" lon="-71.14543930627405643463134765625">
        <ele>847.79998779296875</ele>
        <time>2026-08-22T02:56:52.000Z</time>
        <extensions>
          <ns3:TrackPointExtension>
            <ns3:hr>117</ns3:hr>
            <ns3:cad>0</ns3:cad>
          </ns3:TrackPointExtension>
        </extensions>
      </trkpt>
      <trkpt lat="45.246946625411510467529296875" lon="-71.14543193019926548004150390625">
        <ele>847.5999755859375</ele>
        <time>2026-08-22T02:56:53.000Z</time>
        <extensions>
          <ns3:TrackPointExtension>
            <ns3:hr>117</ns3:hr>
            <ns3:cad>0</ns3:cad>
          </ns3:TrackPointExtension>
        </extensions>
      </trkpt>
      <trkpt lat="45.2469523251056671142578125" lon="-71.145418100059032440185546875">
        <ele>847.4000244140625</ele>
        <time>2026-08-22T02:56:54.000Z</time>
        <extensions>
          <ns3:TrackPointExtension>
            <ns3:hr>116</ns3:hr>
            <ns3:cad>0</ns3:cad>
          </ns3:TrackPointExtension>
        </extensions>
      </trkpt>
      <trkpt lat="45.24696012027561664581298828125" lon="-71.14540091715753078460693359375">
        <ele>847.20001220703125</ele>
        <time>2026-08-22T02:56:55.000Z</time>
        <extensions>
          <ns3:TrackPointExtension>
            <ns3:hr>115</ns3:hr>
            <ns3:cad>0</ns3:cad>
          </ns3:TrackPointExtension>
        </extensions>
      </trkpt>
      <trkpt lat="45.24696263484656810760498046875" lon="-71.14539496600627899169921875">
        <ele>847</ele>
        <time>2026-08-22T02:56:56.000Z</time>
        <extensions>
          <ns3:TrackPointExtension>
            <ns3:hr>115</ns3:hr>
            <ns3:cad>0</ns3:cad>
          </ns3:TrackPointExtension>
        </extensions>
      </trkpt>
      <trkpt lat="45.2469699271023273468017578125" lon="-71.1453971453011035919189453125">
        <ele>846.79998779296875</ele>
        <time>2026-08-22T02:56:57.000Z</time>
        <extensions>
          <ns3:TrackPointExtension>
            <ns3:hr>115</ns3:hr>
            <ns3:cad>0</ns3:cad>
          </ns3:TrackPointExtension>
        </extensions>
      </trkpt>
      <trkpt lat="45.2469773031771183013916015625" lon="-71.14539588801562786102294921875">
        <ele>846.5999755859375</ele>
        <time>2026-08-22T02:56:58.000Z</time>
        <extensions>
          <ns3:TrackPointExtension>
            <ns3:hr>115</ns3:hr>
            <ns3:cad>0</ns3:cad>
          </ns3:TrackPointExtension>
        </extensions>
      </trkpt>
      <trkpt lat="45.24698677472770214080810546875" lon="-71.1453917808830738067626953125">
        <ele>846.4000244140625</ele>
        <time>2026-08-22T02:56:59.000Z</time>
        <extensions>
          <ns3:TrackPointExtension>
            <ns3:hr>116</ns3:hr>
            <ns3:cad>42</ns3:cad>
          </ns3:TrackPointExtension>
        </extensions>
      </trkpt>
      <trkpt lat="45.24699280969798564910888671875" lon="-71.14538834430277347564697265625">
        <ele>846.20001220703125</ele>
        <time>2026-08-22T02:57:00.000Z</time>
        <extensions>
          <ns3:TrackPointExtension>
            <ns3:hr>116</ns3:hr>
            <ns3:cad>50</ns3:cad>
          </ns3:TrackPointExtension>
        </extensions>
      </trkpt>
      <trkpt lat="45.2470027841627597808837890625" lon="-71.1453847400844097137451171875">
        <ele>845.79998779296875</ele>
        <time>2026-08-22T02:57:01.000Z</time>
        <extensions>
          <ns3:TrackPointExtension>
            <ns3:hr>116</ns3:hr>
            <ns3:cad>50</ns3:cad>
          </ns3:TrackPointExtension>
        </extensions>
      </trkpt>
      <trkpt lat="45.247009657323360443115234375" lon="-71.1453770287334918975830078125">
        <ele>845.5999755859375</ele>
        <time>2026-08-22T02:57:02.000Z</time>
        <extensions>
          <ns3:TrackPointExtension>
            <ns3:hr>116</ns3:hr>
            <ns3:cad>50</ns3:cad>
          </ns3:TrackPointExtension>
        </extensions>
      </trkpt>
      <trkpt lat="45.247019045054912567138671875" lon="-71.1453676410019397735595703125">
        <ele>845.20001220703125</ele>
        <time>2026-08-22T02:57:03.000Z</time>
        <extensions>
          <ns3:TrackPointExtension>
            <ns3:hr>116</ns3:hr>
            <ns3:cad>50</ns3:cad>
          </ns3:TrackPointExtension>
        </extensions>
      </trkpt>
      <trkpt lat="45.24702918715775012969970703125" lon="-71.1453621089458465576171875">
        <ele>845</ele>
        <time>2026-08-22T02:57:04.000Z</time>
        <extensions>
          <ns3:TrackPointExtension>
            <ns3:hr>116</ns3:hr>
            <ns3:cad>56</ns3:cad>
          </ns3:TrackPointExtension>
        </extensions>
      </trkpt>
      <trkpt lat="45.247041843831539154052734375" lon="-71.14536420442163944244384765625">
        <ele>844.5999755859375</ele>
        <time>2026-08-22T02:57:05.000Z</time>
        <extensions>
          <ns3:TrackPointExtension>
            <ns3:hr>116</ns3:hr>
            <ns3:cad>56</ns3:cad>
          </ns3:TrackPointExtension>
        </extensions>
      </trkpt>
      <trkpt lat="45.2470510639250278472900390625" lon="-71.14536152221262454986572265625">
        <ele>844.20001220703125</ele>
        <time>2026-08-22T02:57:06.000Z</time>
        <extensions>
          <ns3:TrackPointExtension>
            <ns3:hr>116</ns3:hr>
            <ns3:cad>0</ns3:cad>
          </ns3:TrackPointExtension>
        </extensions>
      </trkpt>
      <trkpt lat="45.2470617927610874176025390625" lon="-71.1453606002032756805419921875">
        <ele>844</ele>
        <time>2026-08-22T02:57:07.000Z</time>
        <extensions>
          <ns3:TrackPointExtension>
            <ns3:hr>116</ns3:hr>
            <ns3:cad>0</ns3:cad>
          </ns3:TrackPointExtension>
        </extensions>
      </trkpt>
      <trkpt lat="45.2470715157687664031982421875" lon="-71.14536286331713199615478515625">
        <ele>843.5999755859375</ele>
        <time>2026-08-22T02:57:08.000Z</time>
        <extensions>
          <ns3:TrackPointExtension>
            <ns3:hr>117</ns3:hr>
            <ns3:cad>0</ns3:cad>
          </ns3:TrackPointExtension>
        </extensions>
      </trkpt>
      <trkpt lat="45.24709121324121952056884765625" lon="-71.1453701555728912353515625">
        <ele>843.4000244140625</ele>
        <time>2026-08-22T02:57:09.000Z</time>
        <extensions>
          <ns3:TrackPointExtension>
            <ns3:hr>117</ns3:hr>
            <ns3:cad>0</ns3:cad>
          </ns3:TrackPointExtension>
        </extensions>
      </trkpt>
      <trkpt lat="45.24710278026759624481201171875" lon="-71.1453719995915889739990234375">
        <ele>843.20001220703125</ele>
        <time>2026-08-22T02:57:10.000Z</time>
        <extensions>
          <ns3:TrackPointExtension>
            <ns3:hr>118</ns3:hr>
            <ns3:cad>0</ns3:cad>
          </ns3:TrackPointExtension>
        </extensions>
      </trkpt>
      <trkpt lat="45.24711987935006618499755859375" lon="-71.1453701555728912353515625">
        <ele>843</ele>
        <time>2026-08-22T02:57:11.000Z</time>
        <extensions>
          <ns3:TrackPointExtension>
            <ns3:hr>119</ns3:hr>
            <ns3:cad>0</ns3:cad>
          </ns3:TrackPointExtension>
        </extensions>
      </trkpt>
      <trkpt lat="45.247129686176776885986328125" lon="-71.14536353386938571929931640625">
        <ele>842.79998779296875</ele>
        <time>2026-08-22T02:57:12.000Z</time>
        <extensions>
          <ns3:TrackPointExtension>
            <ns3:hr>119</ns3:hr>
            <ns3:cad>0</ns3:cad>
          </ns3:TrackPointExtension>
        </extensions>
      </trkpt>
      <trkpt lat="45.247139744460582733154296875" lon="-71.14536252804100513458251953125">
        <ele>842.5999755859375</ele>
        <time>2026-08-22T02:57:13.000Z</time>
        <extensions>
          <ns3:TrackPointExtension>
            <ns3:hr>119</ns3:hr>
            <ns3:cad>0</ns3:cad>
          </ns3:TrackPointExtension>
        </extensions>
      </trkpt>
      <trkpt lat="45.247151143848896026611328125" lon="-71.14535875618457794189453125">
        <ele>842.20001220703125</ele>
        <time>2026-08-22T02:57:14.000Z</time>
        <extensions>
          <ns3:TrackPointExtension>
            <ns3:hr>119</ns3:hr>
            <ns3:cad>0</ns3:cad>
          </ns3:TrackPointExtension>
        </extensions>
      </trkpt>
      <trkpt lat="45.24715608917176723480224609375" lon="-71.14535029046237468719482421875">
        <ele>842</ele>
        <time>2026-08-22T02:57:15.000Z</time>
        <extensions>
          <ns3:TrackPointExtension>
            <ns3:hr>118</ns3:hr>
            <ns3:cad>0</ns3:cad>
          </ns3:TrackPointExtension>
        </extensions>
      </trkpt>
      <trkpt lat="45.24717050604522228240966796875" lon="-71.14534425549209117889404296875">
        <ele>841.79998779296875</ele>
        <time>2026-08-22T02:57:16.000Z</time>
        <extensions>
          <ns3:TrackPointExtension>
            <ns3:hr>118</ns3:hr>
            <ns3:cad>64</ns3:cad>
          </ns3:TrackPointExtension>
        </extensions>
      </trkpt>
      <trkpt lat="45.24717620573937892913818359375" lon="-71.1453414894640445709228515625">
        <ele>841.5999755859375</ele>
        <time>2026-08-22T02:57:17.000Z</time>
        <extensions>
          <ns3:TrackPointExtension>
            <ns3:hr>116</ns3:hr>
            <ns3:cad>64</ns3:cad>
          </ns3:TrackPointExtension>
        </extensions>
      </trkpt>
      <trkpt lat="45.24718006141483783721923828125" lon="-71.1453379690647125244140625">
        <ele>841.4000244140625</ele>
        <time>2026-08-22T02:57:18.000Z</time>
        <extensions>
          <ns3:TrackPointExtension>
            <ns3:hr>115</ns3:hr>
            <ns3:cad>0</ns3:cad>
          </ns3:TrackPointExtension>
        </extensions>
      </trkpt>
      <trkpt lat="45.24718442000448703765869140625" lon="-71.14533067680895328521728515625">
        <ele>841.20001220703125</ele>
        <time>2026-08-22T02:57:19.000Z</time>
        <extensions>
          <ns3:TrackPointExtension>
            <ns3:hr>115</ns3:hr>
            <ns3:cad>0</ns3:cad>
          </ns3:TrackPointExtension>
        </extensions>
      </trkpt>
      <trkpt lat="45.24718626402318477630615234375" lon="-71.14532682113349437713623046875">
        <ele>841</ele>
        <time>2026-08-22T02:57:20.000Z</time>
        <extensions>
          <ns3:TrackPointExtension>
            <ns3:hr>115</ns3:hr>
            <ns3:cad>0</ns3:cad>
          </ns3:TrackPointExtension>
        </extensions>
      </trkpt>
      <trkpt lat="45.2471845038235187530517578125" lon="-71.14532430656254291534423828125">
        <ele>840.79998779296875</ele>
        <time>2026-08-22T02:57:21.000Z</time>
        <extensions>
          <ns3:TrackPointExtension>
            <ns3:hr>115</ns3:hr>
            <ns3:cad>0</ns3:cad>
          </ns3:TrackPointExtension>
        </extensions>
      </trkpt>
      <trkpt lat="45.24718701839447021484375" lon="-71.145323216915130615234375">
        <ele>840.79998779296875</ele>
        <time>2026-08-22T02:57:22.000Z</time>
        <extensions>
          <ns3:TrackPointExtension>
            <ns3:hr>114</ns3:hr>
            <ns3:cad>0</ns3:cad>
          </ns3:TrackPointExtension>
        </extensions>
      </trkpt>
      <trkpt lat="45.24719129316508769989013671875" lon="-71.1453250609338283538818359375">
        <ele>840.5999755859375</ele>
        <time>2026-08-22T02:57:23.000Z</time>
        <extensions>
          <ns3:TrackPointExtension>
            <ns3:hr>114</ns3:hr>
            <ns3:cad>0</ns3:cad>
          </ns3:TrackPointExtension>
        </extensions>
      </trkpt>
      <trkpt lat="45.247193388640880584716796875" lon="-71.145324893295764923095703125">
        <ele>840.4000244140625</ele>
        <time>2026-08-22T02:57:24.000Z</time>
        <extensions>
          <ns3:TrackPointExtension>
            <ns3:hr>114</ns3:hr>
            <ns3:cad>0</ns3:cad>
          </ns3:TrackPointExtension>
        </extensions>
      </trkpt>
      <trkpt lat="45.24719162844121456146240234375" lon="-71.1453253962099552154541015625">
        <ele>840.4000244140625</ele>
        <time>2026-08-22T02:57:25.000Z</time>
        <extensions>
          <ns3:TrackPointExtension>
            <ns3:hr>114</ns3:hr>
            <ns3:cad>0</ns3:cad>
          </ns3:TrackPointExtension>
        </extensions>
      </trkpt>
      <trkpt lat="45.24720051325857639312744140625" lon="-71.14533218555152416229248046875">
        <ele>840.4000244140625</ele>
        <time>2026-08-22T02:57:26.000Z</time>
        <extensions>
          <ns3:TrackPointExtension>
            <ns3:hr>114</ns3:hr>
            <ns3:cad>0</ns3:cad>
          </ns3:TrackPointExtension>
        </extensions>
      </trkpt>
      <trkpt lat="45.247198753058910369873046875" lon="-71.14533084444701671600341796875">
        <ele>840.20001220703125</ele>
        <time>2026-08-22T02:57:27.000Z</time>
        <extensions>
          <ns3:TrackPointExtension>
            <ns3:hr>113</ns3:hr>
            <ns3:cad>0</ns3:cad>
          </ns3:TrackPointExtension>
        </extensions>
      </trkpt>
      <trkpt lat="45.24720286019146442413330078125" lon="-71.14533185027539730072021484375">
        <ele>840.20001220703125</ele>
        <time>2026-08-22T02:57:28.000Z</time>
        <extensions>
          <ns3:TrackPointExtension>
            <ns3:hr>113</ns3:hr>
            <ns3:cad>0</ns3:cad>
          </ns3:TrackPointExtension>
        </extensions>
      </trkpt>
      <trkpt lat="45.2472183667123317718505859375" lon="-71.145338304340839385986328125">
        <ele>840</ele>
        <time>2026-08-22T02:57:29.000Z</time>
        <extensions>
          <ns3:TrackPointExtension>
            <ns3:hr>112</ns3:hr>
            <ns3:cad>0</ns3:cad>
          </ns3:TrackPointExtension>
        </extensions>
      </trkpt>
      <trkpt lat="45.247222222387790679931640625" lon="-71.14533922635018825531005859375">
        <ele>840</ele>
        <time>2026-08-22T02:57:30.000Z</time>
        <extensions>
          <ns3:TrackPointExtension>
            <ns3:hr>112</ns3:hr>
            <ns3:cad>0</ns3:cad>
          </ns3:TrackPointExtension>
        </extensions>
      </trkpt>
      <trkpt lat="45.247225575149059295654296875" lon="-71.1453421600162982940673828125">
        <ele>839.5999755859375</ele>
        <time>2026-08-22T02:57:31.000Z</time>
        <extensions>
          <ns3:TrackPointExtension>
            <ns3:hr>112</ns3:hr>
            <ns3:cad>0</ns3:cad>
          </ns3:TrackPointExtension>
        </extensions>
      </trkpt>
      <trkpt lat="45.24723001755774021148681640625" lon="-71.145345680415630340576171875">
        <ele>839.4000244140625</ele>
        <time>2026-08-22T02:57:32.000Z</time>
        <extensions>
          <ns3:TrackPointExtension>
            <ns3:hr>113</ns3:hr>
            <ns3:cad>0</ns3:cad>
          </ns3:TrackPointExtension>
        </extensions>
      </trkpt>
      <trkpt lat="45.24723999202251434326171875" lon="-71.14534936845302581787109375">
        <ele>839.20001220703125</ele>
        <time>2026-08-22T02:57:33.000Z</time>
        <extensions>
          <ns3:TrackPointExtension>
            <ns3:hr>112</ns3:hr>
            <ns3:cad>0</ns3:cad>
          </ns3:TrackPointExtension>
        </extensions>
      </trkpt>
      <trkpt lat="45.24725164286792278289794921875" lon="-71.145361773669719696044921875">
        <ele>839</ele>
        <time>2026-08-22T02:57:34.000Z</time>
        <extensions>
          <ns3:TrackPointExtension>
            <ns3:hr>112</ns3:hr>
            <ns3:cad>0</ns3:cad>
          </ns3:TrackPointExtension>
        </extensions>
      </trkpt>
      <trkpt lat="45.24726086296141147613525390625" lon="-71.14537417888641357421875">
        <ele>838.79998779296875</ele>
        <time>2026-08-22T02:57:35.000Z</time>
        <extensions>
          <ns3:TrackPointExtension>
            <ns3:hr>112</ns3:hr>
            <ns3:cad>0</ns3:cad>
          </ns3:TrackPointExtension>
        </extensions>
      </trkpt>
      <trkpt lat="45.24727326817810535430908203125" lon="-71.14538482390344142913818359375">
        <ele>838.79998779296875</ele>
        <time>2026-08-22T02:57:36.000Z</time>
        <extensions>
          <ns3:TrackPointExtension>
            <ns3:hr>113</ns3:hr>
            <ns3:cad>0</ns3:cad>
          </ns3:TrackPointExtension>
        </extensions>
      </trkpt>
      <trkpt lat="45.2472840808331966400146484375" lon="-71.14539437927305698394775390625">
        <ele>838.5999755859375</ele>
        <time>2026-08-22T02:57:37.000Z</time>
        <extensions>
          <ns3:TrackPointExtension>
            <ns3:hr>113</ns3:hr>
            <ns3:cad>0</ns3:cad>
          </ns3:TrackPointExtension>
        </extensions>
      </trkpt>
      <trkpt lat="45.2472902834415435791015625" lon="-71.1454058624804019927978515625">
        <ele>838.5999755859375</ele>
        <time>2026-08-22T02:57:38.000Z</time>
        <extensions>
          <ns3:TrackPointExtension>
            <ns3:hr>113</ns3:hr>
            <ns3:cad>0</ns3:cad>
          </ns3:TrackPointExtension>
        </extensions>
      </trkpt>
      <trkpt lat="45.24730034172534942626953125" lon="-71.14541600458323955535888671875">
        <ele>838.5999755859375</ele>
        <time>2026-08-22T02:57:39.000Z</time>
        <extensions>
          <ns3:TrackPointExtension>
            <ns3:hr>113</ns3:hr>
            <ns3:cad>0</ns3:cad>
          </ns3:TrackPointExtension>
        </extensions>
      </trkpt>
      <trkpt lat="45.2473102323710918426513671875" lon="-71.14542639814317226409912109375">
        <ele>838.5999755859375</ele>
        <time>2026-08-22T02:57:40.000Z</time>
        <extensions>
          <ns3:TrackPointExtension>
            <ns3:hr>113</ns3:hr>
            <ns3:cad>0</ns3:cad>
          </ns3:TrackPointExtension>
        </extensions>
      </trkpt>
      <trkpt lat="45.2473189495503902435302734375" lon="-71.145432852208614349365234375">
        <ele>838.4000244140625</ele>
        <time>2026-08-22T02:57:41.000Z</time>
        <extensions>
          <ns3:TrackPointExtension>
            <ns3:hr>114</ns3:hr>
            <ns3:cad>0</ns3:cad>
          </ns3:TrackPointExtension>
        </extensions>
      </trkpt>
      <trkpt lat="45.2473269961774349212646484375" lon="-71.1454360373318195343017578125">
        <ele>838.4000244140625</ele>
        <time>2026-08-22T02:57:42.000Z</time>
        <extensions>
          <ns3:TrackPointExtension>
            <ns3:hr>114</ns3:hr>
            <ns3:cad>56</ns3:cad>
          </ns3:TrackPointExtension>
        </extensions>
      </trkpt>
      <trkpt lat="45.2473380602896213531494140625" lon="-71.14543880335986614227294921875">
        <ele>838.4000244140625</ele>
        <time>2026-08-22T02:57:43.000Z</time>
        <extensions>
          <ns3:TrackPointExtension>
            <ns3:hr>115</ns3:hr>
            <ns3:cad>57</ns3:cad>
          </ns3:TrackPointExtension>
        </extensions>
      </trkpt>
      <trkpt lat="45.24734736420214176177978515625" lon="-71.1454400606453418731689453125">
        <ele>838.20001220703125</ele>
        <time>2026-08-22T02:57:44.000Z</time>
        <extensions>
          <ns3:TrackPointExtension>
            <ns3:hr>115</ns3:hr>
            <ns3:cad>57</ns3:cad>
          </ns3:TrackPointExtension>
        </extensions>
      </trkpt>
      <trkpt lat="45.247354321181774139404296875" lon="-71.14544215612113475799560546875">
        <ele>838</ele>
        <time>2026-08-22T02:57:45.000Z</time>
        <extensions>
          <ns3:TrackPointExtension>
            <ns3:hr>116</ns3:hr>
            <ns3:cad>57</ns3:cad>
          </ns3:TrackPointExtension>
        </extensions>
      </trkpt>
      <trkpt lat="45.2473680675029754638671875" lon="-71.14544349722564220428466796875">
        <ele>837.79998779296875</ele>
        <time>2026-08-22T02:57:46.000Z</time>
        <extensions>
          <ns3:TrackPointExtension>
            <ns3:hr>116</ns3:hr>
            <ns3:cad>57</ns3:cad>
          </ns3:TrackPointExtension>
        </extensions>
      </trkpt>
      <trkpt lat="45.24738038890063762664794921875" lon="-71.14544651471078395843505859375">
        <ele>837.5999755859375</ele>
        <time>2026-08-22T02:57:47.000Z</time>
        <extensions>
          <ns3:TrackPointExtension>
            <ns3:hr>116</ns3:hr>
            <ns3:cad>64</ns3:cad>
          </ns3:TrackPointExtension>
        </extensions>
      </trkpt>
      <trkpt lat="45.24738944135606288909912109375" lon="-71.145448274910449981689453125">
        <ele>837.20001220703125</ele>
        <time>2026-08-22T02:57:48.000Z</time>
        <extensions>
          <ns3:TrackPointExtension>
            <ns3:hr>115</ns3:hr>
            <ns3:cad>64</ns3:cad>
          </ns3:TrackPointExtension>
        </extensions>
      </trkpt>
      <trkpt lat="45.2473975718021392822265625" lon="-71.14544718526303768157958984375">
        <ele>837</ele>
        <time>2026-08-22T02:57:49.000Z</time>
        <extensions>
          <ns3:TrackPointExtension>
            <ns3:hr>115</ns3:hr>
            <ns3:cad>64</ns3:cad>
          </ns3:TrackPointExtension>
        </extensions>
      </trkpt>
      <trkpt lat="45.24740553461015224456787109375" lon="-71.145447604358196258544921875">
        <ele>836.5999755859375</ele>
        <time>2026-08-22T02:57:50.000Z</time>
        <extensions>
          <ns3:TrackPointExtension>
            <ns3:hr>115</ns3:hr>
            <ns3:cad>64</ns3:cad>
          </ns3:TrackPointExtension>
        </extensions>
      </trkpt>
      <trkpt lat="45.247420370578765869140625" lon="-71.14545799791812896728515625">
        <ele>836.4000244140625</ele>
        <time>2026-08-22T02:57:51.000Z</time>
        <extensions>
          <ns3:TrackPointExtension>
            <ns3:hr>115</ns3:hr>
            <ns3:cad>64</ns3:cad>
          </ns3:TrackPointExtension>
        </extensions>
      </trkpt>
      <trkpt lat="45.247428752481937408447265625" lon="-71.14546529017388820648193359375">
        <ele>836</ele>
        <time>2026-08-22T02:57:52.000Z</time>
        <extensions>
          <ns3:TrackPointExtension>
            <ns3:hr>116</ns3:hr>
            <ns3:cad>64</ns3:cad>
          </ns3:TrackPointExtension>
        </extensions>
      </trkpt>
      <trkpt lat="45.24743788875639438629150390625" lon="-71.14547316916286945343017578125">
        <ele>835.79998779296875</ele>
        <time>2026-08-22T02:57:53.000Z</time>
        <extensions>
          <ns3:TrackPointExtension>
            <ns3:hr>115</ns3:hr>
            <ns3:cad>64</ns3:cad>
          </ns3:TrackPointExtension>
        </extensions>
      </trkpt>
      <trkpt lat="45.2474473603069782257080078125" lon="-71.145478785037994384765625">
        <ele>835.4000244140625</ele>
        <time>2026-08-22T02:57:54.000Z</time>
        <extensions>
          <ns3:TrackPointExtension>
            <ns3:hr>115</ns3:hr>
            <ns3:cad>77</ns3:cad>
          </ns3:TrackPointExtension>
        </extensions>
      </trkpt>
      <trkpt lat="45.247457921504974365234375" lon="-71.14548322744667530059814453125">
        <ele>835.20001220703125</ele>
        <time>2026-08-22T02:57:55.000Z</time>
        <extensions>
          <ns3:TrackPointExtension>
            <ns3:hr>115</ns3:hr>
            <ns3:cad>77</ns3:cad>
          </ns3:TrackPointExtension>
        </extensions>
      </trkpt>
      <trkpt lat="45.2474691532552242279052734375" lon="-71.14548213779926300048828125">
        <ele>834.79998779296875</ele>
        <time>2026-08-22T02:57:56.000Z</time>
        <extensions>
          <ns3:TrackPointExtension>
            <ns3:hr>115</ns3:hr>
            <ns3:cad>77</ns3:cad>
          </ns3:TrackPointExtension>
        </extensions>
      </trkpt>
      <trkpt lat="45.24747870862483978271484375" lon="-71.14548155106604099273681640625">
        <ele>834.4000244140625</ele>
        <time>2026-08-22T02:57:57.000Z</time>
        <extensions>
          <ns3:TrackPointExtension>
            <ns3:hr>114</ns3:hr>
            <ns3:cad>57</ns3:cad>
          </ns3:TrackPointExtension>
        </extensions>
      </trkpt>
      <trkpt lat="45.24748541414737701416015625" lon="-71.1454833112657070159912109375">
        <ele>834.20001220703125</ele>
        <time>2026-08-22T02:57:58.000Z</time>
        <extensions>
          <ns3:TrackPointExtension>
            <ns3:hr>114</ns3:hr>
            <ns3:cad>57</ns3:cad>
          </ns3:TrackPointExtension>
        </extensions>
      </trkpt>
      <trkpt lat="45.247497819364070892333984375" lon="-71.14548775367438793182373046875">
        <ele>833.5999755859375</ele>
        <time>2026-08-22T02:57:59.000Z</time>
        <extensions>
          <ns3:TrackPointExtension>
            <ns3:hr>114</ns3:hr>
            <ns3:cad>0</ns3:cad>
          </ns3:TrackPointExtension>
        </extensions>
      </trkpt>
      <trkpt lat="45.24750108830630779266357421875" lon="-71.1454836465418338775634765625">
        <ele>833.4000244140625</ele>
        <time>2026-08-22T02:58:00.000Z</time>
        <extensions>
          <ns3:TrackPointExtension>
            <ns3:hr>115</ns3:hr>
            <ns3:cad>0</ns3:cad>
          </ns3:TrackPointExtension>
        </extensions>
      </trkpt>
      <trkpt lat="45.24751030839979648590087890625" lon="-71.14548356272280216217041015625">
        <ele>832.79998779296875</ele>
        <time>2026-08-22T02:58:01.000Z</time>
        <extensions>
          <ns3:TrackPointExtension>
            <ns3:hr>115</ns3:hr>
            <ns3:cad>0</ns3:cad>
          </ns3:TrackPointExtension>
        </extensions>
      </trkpt>
      <trkpt lat="45.247514583170413970947265625" lon="-71.14548272453248500823974609375">
        <ele>832.20001220703125</ele>
        <time>2026-08-22T02:58:02.000Z</time>
        <extensions>
          <ns3:TrackPointExtension>
            <ns3:hr>115</ns3:hr>
            <ns3:cad>0</ns3:cad>
          </ns3:TrackPointExtension>
        </extensions>
      </trkpt>
      <trkpt lat="45.247516594827175140380859375" lon="-71.14548674784600734710693359375">
        <ele>832</ele>
        <time>2026-08-22T02:58:03.000Z</time>
        <extensions>
          <ns3:TrackPointExtension>
            <ns3:hr>116</ns3:hr>
            <ns3:cad>0</ns3:cad>
          </ns3:TrackPointExtension>
        </extensions>
      </trkpt>
      <trkpt lat="45.24752120487391948699951171875" lon="-71.1454957164824008941650390625">
        <ele>831.5999755859375</ele>
        <time>2026-08-22T02:58:04.000Z</time>
        <extensions>
          <ns3:TrackPointExtension>
            <ns3:hr>115</ns3:hr>
            <ns3:cad>0</ns3:cad>
          </ns3:TrackPointExtension>
        </extensions>
      </trkpt>
      <trkpt lat="45.2475227974355220794677734375" lon="-71.1455074511468410491943359375">
        <ele>831.20001220703125</ele>
        <time>2026-08-22T02:58:05.000Z</time>
        <extensions>
          <ns3:TrackPointExtension>
            <ns3:hr>115</ns3:hr>
            <ns3:cad>0</ns3:cad>
          </ns3:TrackPointExtension>
        </extensions>
      </trkpt>
      <trkpt lat="45.24752304889261722564697265625" lon="-71.14551541395485401153564453125">
        <ele>831.20001220703125</ele>
        <time>2026-08-22T02:58:06.000Z</time>
        <extensions>
          <ns3:TrackPointExtension>
            <ns3:hr>115</ns3:hr>
            <ns3:cad>0</ns3:cad>
          </ns3:TrackPointExtension>
        </extensions>
      </trkpt>
      <trkpt lat="45.24752824567258358001708984375" lon="-71.14553167484700679779052734375">
        <ele>831</ele>
        <time>2026-08-22T02:58:07.000Z</time>
        <extensions>
          <ns3:TrackPointExtension>
            <ns3:hr>114</ns3:hr>
            <ns3:cad>0</ns3:cad>
          </ns3:TrackPointExtension>
        </extensions>
      </trkpt>
      <trkpt lat="45.24753243662416934967041015625" lon="-71.14554190076887607574462890625">
        <ele>831</ele>
        <time>2026-08-22T02:58:08.000Z</time>
        <extensions>
          <ns3:TrackPointExtension>
            <ns3:hr>115</ns3:hr>
            <ns3:cad>0</ns3:cad>
          </ns3:TrackPointExtension>
        </extensions>
      </trkpt>
      <trkpt lat="45.24753713048994541168212890625" lon="-71.14555145613849163055419921875">
        <ele>831</ele>
        <time>2026-08-22T02:58:09.000Z</time>
        <extensions>
          <ns3:TrackPointExtension>
            <ns3:hr>115</ns3:hr>
            <ns3:cad>0</ns3:cad>
          </ns3:TrackPointExtension>
        </extensions>
      </trkpt>
      <trkpt lat="45.24754174053668975830078125" lon="-71.14556000567972660064697265625">
        <ele>830.79998779296875</ele>
        <time>2026-08-22T02:58:10.000Z</time>
        <extensions>
          <ns3:TrackPointExtension>
            <ns3:hr>115</ns3:hr>
            <ns3:cad>0</ns3:cad>
          </ns3:TrackPointExtension>
        </extensions>
      </trkpt>
      <trkpt lat="45.24755246937274932861328125" lon="-71.1455701477825641632080078125">
        <ele>830.5999755859375</ele>
        <time>2026-08-22T02:58:11.000Z</time>
        <extensions>
          <ns3:TrackPointExtension>
            <ns3:hr>115</ns3:hr>
            <ns3:cad>0</ns3:cad>
          </ns3:TrackPointExtension>
        </extensions>
      </trkpt>
      <trkpt lat="45.24755783379077911376953125" lon="-71.14557811059057712554931640625">
        <ele>830.4000244140625</ele>
        <time>2026-08-22T02:58:12.000Z</time>
        <extensions>
          <ns3:TrackPointExtension>
            <ns3:hr>115</ns3:hr>
            <ns3:cad>0</ns3:cad>
          </ns3:TrackPointExtension>
        </extensions>
      </trkpt>
      <trkpt lat="45.24756697006523609161376953125" lon="-71.14559001289308071136474609375">
        <ele>830.20001220703125</ele>
        <time>2026-08-22T02:58:13.000Z</time>
        <extensions>
          <ns3:TrackPointExtension>
            <ns3:hr>116</ns3:hr>
            <ns3:cad>0</ns3:cad>
          </ns3:TrackPointExtension>
        </extensions>
      </trkpt>
      <trkpt lat="45.24757468141615390777587890625" lon="-71.14559688605368137359619140625">
        <ele>829.79998779296875</ele>
        <time>2026-08-22T02:58:14.000Z</time>
        <extensions>
          <ns3:TrackPointExtension>
            <ns3:hr>117</ns3:hr>
            <ns3:cad>0</ns3:cad>
          </ns3:TrackPointExtension>
        </extensions>
      </trkpt>
      <trkpt lat="45.24758423678576946258544921875" lon="-71.14560677669942378997802734375">
        <ele>829.5999755859375</ele>
        <time>2026-08-22T02:58:15.000Z</time>
        <extensions>
          <ns3:TrackPointExtension>
            <ns3:hr>117</ns3:hr>
            <ns3:cad>0</ns3:cad>
          </ns3:TrackPointExtension>
        </extensions>
      </trkpt>
      <trkpt lat="45.2475962229073047637939453125" lon="-71.14561767317354679107666015625">
        <ele>829.20001220703125</ele>
        <time>2026-08-22T02:58:16.000Z</time>
        <extensions>
          <ns3:TrackPointExtension>
            <ns3:hr>117</ns3:hr>
            <ns3:cad>0</ns3:cad>
          </ns3:TrackPointExtension>
        </extensions>
      </trkpt>
      <trkpt lat="45.24760586209595203399658203125" lon="-71.14562789909541606903076171875">
        <ele>829</ele>
        <time>2026-08-22T02:58:17.000Z</time>
        <extensions>
          <ns3:TrackPointExtension>
            <ns3:hr>117</ns3:hr>
            <ns3:cad>0</ns3:cad>
          </ns3:TrackPointExtension>
        </extensions>
      </trkpt>
      <trkpt lat="45.247619859874248504638671875" lon="-71.145646758377552032470703125">
        <ele>828.79998779296875</ele>
        <time>2026-08-22T02:58:18.000Z</time>
        <extensions>
          <ns3:TrackPointExtension>
            <ns3:hr>116</ns3:hr>
            <ns3:cad>0</ns3:cad>
          </ns3:TrackPointExtension>
        </extensions>
      </trkpt>
      <trkpt lat="45.24762690067291259765625" lon="-71.14565539173781871795654296875">
        <ele>828.5999755859375</ele>
        <time>2026-08-22T02:58:19.000Z</time>
        <extensions>
          <ns3:TrackPointExtension>
            <ns3:hr>115</ns3:hr>
            <ns3:cad>0</ns3:cad>
          </ns3:TrackPointExtension>
        </extensions>
      </trkpt>
      <trkpt lat="45.24763553403317928314208984375" lon="-71.1456626839935779571533203125">
        <ele>828.4000244140625</ele>
        <time>2026-08-22T02:58:20.000Z</time>
        <extensions>
          <ns3:TrackPointExtension>
            <ns3:hr>114</ns3:hr>
            <ns3:cad>0</ns3:cad>
          </ns3:TrackPointExtension>
        </extensions>
      </trkpt>
      <trkpt lat="45.2476451732218265533447265625" lon="-71.14566855132579803466796875">
        <ele>828.4000244140625</ele>
        <time>2026-08-22T02:58:21.000Z</time>
        <extensions>
          <ns3:TrackPointExtension>
            <ns3:hr>114</ns3:hr>
            <ns3:cad>0</ns3:cad>
          </ns3:TrackPointExtension>
        </extensions>
      </trkpt>
      <trkpt lat="45.24765481241047382354736328125" lon="-71.1456734128296375274658203125">
        <ele>828.20001220703125</ele>
        <time>2026-08-22T02:58:22.000Z</time>
        <extensions>
          <ns3:TrackPointExtension>
            <ns3:hr>114</ns3:hr>
            <ns3:cad>0</ns3:cad>
          </ns3:TrackPointExtension>
        </extensions>
      </trkpt>
      <trkpt lat="45.24766218848526477813720703125" lon="-71.14567391574382781982421875">
        <ele>828</ele>
        <time>2026-08-22T02:58:23.000Z</time>
        <extensions>
          <ns3:TrackPointExtension>
            <ns3:hr>114</ns3:hr>
            <ns3:cad>0</ns3:cad>
          </ns3:TrackPointExtension>
        </extensions>
      </trkpt>
      <trkpt lat="45.24767073802649974822998046875" lon="-71.14567567594349384307861328125">
        <ele>827.79998779296875</ele>
        <time>2026-08-22T02:58:24.000Z</time>
        <extensions>
          <ns3:TrackPointExtension>
            <ns3:hr>114</ns3:hr>
            <ns3:cad>0</ns3:cad>
          </ns3:TrackPointExtension>
        </extensions>
      </trkpt>
      <trkpt lat="45.2476818859577178955078125" lon="-71.1456828005611896514892578125">
        <ele>827.5999755859375</ele>
        <time>2026-08-22T02:58:25.000Z</time>
        <extensions>
          <ns3:TrackPointExtension>
            <ns3:hr>114</ns3:hr>
            <ns3:cad>0</ns3:cad>
          </ns3:TrackPointExtension>
        </extensions>
      </trkpt>
      <trkpt lat="45.2476884238421916961669921875" lon="-71.14568606950342655181884765625">
        <ele>827.4000244140625</ele>
        <time>2026-08-22T02:58:26.000Z</time>
        <extensions>
          <ns3:TrackPointExtension>
            <ns3:hr>114</ns3:hr>
            <ns3:cad>0</ns3:cad>
          </ns3:TrackPointExtension>
        </extensions>
      </trkpt>
      <trkpt lat="45.24769789539277553558349609375" lon="-71.1456925235688686370849609375">
        <ele>827</ele>
        <time>2026-08-22T02:58:27.000Z</time>
        <extensions>
          <ns3:TrackPointExtension>
            <ns3:hr>114</ns3:hr>
            <ns3:cad>0</ns3:cad>
          </ns3:TrackPointExtension>
        </extensions>
      </trkpt>
      <trkpt lat="45.247707366943359375" lon="-71.14569998346269130706787109375">
        <ele>826.79998779296875</ele>
        <time>2026-08-22T02:58:28.000Z</time>
        <extensions>
          <ns3:TrackPointExtension>
            <ns3:hr>114</ns3:hr>
            <ns3:cad>52</ns3:cad>
          </ns3:TrackPointExtension>
        </extensions>
      </trkpt>
      <trkpt lat="45.24771474301815032958984375" lon="-71.1457076109945774078369140625">
        <ele>826.5999755859375</ele>
        <time>2026-08-22T02:58:29.000Z</time>
        <extensions>
          <ns3:TrackPointExtension>
            <ns3:hr>114</ns3:hr>
            <ns3:cad>52</ns3:cad>
          </ns3:TrackPointExtension>
        </extensions>
      </trkpt>
      <trkpt lat="45.24772153235971927642822265625" lon="-71.1457123048603534698486328125">
        <ele>826.4000244140625</ele>
        <time>2026-08-22T02:58:30.000Z</time>
        <extensions>
          <ns3:TrackPointExtension>
            <ns3:hr>114</ns3:hr>
            <ns3:cad>0</ns3:cad>
          </ns3:TrackPointExtension>
        </extensions>
      </trkpt>
      <trkpt lat="45.24772555567324161529541015625" lon="-71.14572747610509395599365234375">
        <ele>826.20001220703125</ele>
        <time>2026-08-22T02:58:31.000Z</time>
        <extensions>
          <ns3:TrackPointExtension>
            <ns3:hr>114</ns3:hr>
            <ns3:cad>0</ns3:cad>
          </ns3:TrackPointExtension>
        </extensions>
      </trkpt>
      <trkpt lat="45.247730500996112823486328125" lon="-71.14574122242629528045654296875">
        <ele>826</ele>
        <time>2026-08-22T02:58:32.000Z</time>
        <extensions>
          <ns3:TrackPointExtension>
            <ns3:hr>114</ns3:hr>
            <ns3:cad>0</ns3:cad>
          </ns3:TrackPointExtension>
        </extensions>
      </trkpt>
      <trkpt lat="45.2477328479290008544921875" lon="-71.14575035870075225830078125">
        <ele>825.79998779296875</ele>
        <time>2026-08-22T02:58:33.000Z</time>
        <extensions>
          <ns3:TrackPointExtension>
            <ns3:hr>114</ns3:hr>
            <ns3:cad>0</ns3:cad>
          </ns3:TrackPointExtension>
        </extensions>
      </trkpt>
      <trkpt lat="45.247737206518650054931640625" lon="-71.14577223546802997589111328125">
        <ele>825.5999755859375</ele>
        <time>2026-08-22T02:58:34.000Z</time>
        <extensions>
          <ns3:TrackPointExtension>
            <ns3:hr>115</ns3:hr>
            <ns3:cad>0</ns3:cad>
          </ns3:TrackPointExtension>
        </extensions>
      </trkpt>
      <trkpt lat="45.247741900384426116943359375" lon="-71.1457820422947406768798828125">
        <ele>825.5999755859375</ele>
        <time>2026-08-22T02:58:35.000Z</time>
        <extensions>
          <ns3:TrackPointExtension>
            <ns3:hr>114</ns3:hr>
            <ns3:cad>0</ns3:cad>
          </ns3:TrackPointExtension>
        </extensions>
      </trkpt>
      <trkpt lat="45.24775053374469280242919921875" lon="-71.1457981355488300323486328125">
        <ele>825.5999755859375</ele>
        <time>2026-08-22T02:58:36.000Z</time>
        <extensions>
          <ns3:TrackPointExtension>
            <ns3:hr>114</ns3:hr>
            <ns3:cad>0</ns3:cad>
          </ns3:TrackPointExtension>
        </extensions>
      </trkpt>
      <trkpt lat="45.2477611787617206573486328125" lon="-71.1458075232803821563720703125">
        <ele>825.79998779296875</ele>
        <time>2026-08-22T02:58:37.000Z</time>
        <extensions>
          <ns3:TrackPointExtension>
            <ns3:hr>114</ns3:hr>
            <ns3:cad>0</ns3:cad>
          </ns3:TrackPointExtension>
        </extensions>
      </trkpt>
      <trkpt lat="45.2477658726274967193603515625" lon="-71.145817078649997711181640625">
        <ele>825.79998779296875</ele>
        <time>2026-08-22T02:58:38.000Z</time>
        <extensions>
          <ns3:TrackPointExtension>
            <ns3:hr>114</ns3:hr>
            <ns3:cad>0</ns3:cad>
          </ns3:TrackPointExtension>
        </extensions>
      </trkpt>
      <trkpt lat="45.24777282960712909698486328125" lon="-71.1458276398479938507080078125">
        <ele>825.5999755859375</ele>
        <time>2026-08-22T02:58:39.000Z</time>
        <extensions>
          <ns3:TrackPointExtension>
            <ns3:hr>114</ns3:hr>
            <ns3:cad>0</ns3:cad>
          </ns3:TrackPointExtension>
        </extensions>
      </trkpt>
      <trkpt lat="45.2477786131203174591064453125" lon="-71.14584381692111492156982421875">
        <ele>825.5999755859375</ele>
        <time>2026-08-22T02:58:40.000Z</time>
        <extensions>
          <ns3:TrackPointExtension>
            <ns3:hr>114</ns3:hr>
            <ns3:cad>0</ns3:cad>
          </ns3:TrackPointExtension>
        </extensions>
      </trkpt>
      <trkpt lat="45.24778674356639385223388671875" lon="-71.1458551324903964996337890625">
        <ele>825.4000244140625</ele>
        <time>2026-08-22T02:58:41.000Z</time>
        <extensions>
          <ns3:TrackPointExtension>
            <ns3:hr>114</ns3:hr>
            <ns3:cad>0</ns3:cad>
          </ns3:TrackPointExtension>
        </extensions>
      </trkpt>
      <trkpt lat="45.24779512546956539154052734375" lon="-71.1458588205277919769287109375">
        <ele>825</ele>
        <time>2026-08-22T02:58:42.000Z</time>
        <extensions>
          <ns3:TrackPointExtension>
            <ns3:hr>114</ns3:hr>
            <ns3:cad>0</ns3:cad>
          </ns3:TrackPointExtension>
        </extensions>
      </trkpt>
      <trkpt lat="45.2478007413446903228759765625" lon="-71.14586611278355121612548828125">
        <ele>824.5999755859375</ele>
        <time>2026-08-22T02:58:43.000Z</time>
        <extensions>
          <ns3:TrackPointExtension>
            <ns3:hr>114</ns3:hr>
            <ns3:cad>0</ns3:cad>
          </ns3:TrackPointExtension>
        </extensions>
      </trkpt>
      <trkpt lat="45.24780887179076671600341796875" lon="-71.1458786018192768096923828125">
        <ele>824.4000244140625</ele>
        <time>2026-08-22T02:58:44.000Z</time>
        <extensions>
          <ns3:TrackPointExtension>
            <ns3:hr>114</ns3:hr>
            <ns3:cad>0</ns3:cad>
          </ns3:TrackPointExtension>
        </extensions>
      </trkpt>
      <trkpt lat="45.24781339801847934722900390625" lon="-71.14588689990341663360595703125">
        <ele>824.20001220703125</ele>
        <time>2026-08-22T02:58:45.000Z</time>
        <extensions>
          <ns3:TrackPointExtension>
            <ns3:hr>114</ns3:hr>
            <ns3:cad>0</ns3:cad>
          </ns3:TrackPointExtension>
        </extensions>
      </trkpt>
      <trkpt lat="45.24782295338809490203857421875" lon="-71.1459064297378063201904296875">
        <ele>824</ele>
        <time>2026-08-22T02:58:46.000Z</time>
        <extensions>
          <ns3:TrackPointExtension>
            <ns3:hr>114</ns3:hr>
            <ns3:cad>0</ns3:cad>
          </ns3:TrackPointExtension>
        </extensions>
      </trkpt>
      <trkpt lat="45.2478315867483615875244140625" lon="-71.1459238640964031219482421875">
        <ele>823.79998779296875</ele>
        <time>2026-08-22T02:58:47.000Z</time>
        <extensions>
          <ns3:TrackPointExtension>
            <ns3:hr>114</ns3:hr>
            <ns3:cad>0</ns3:cad>
          </ns3:TrackPointExtension>
        </extensions>
      </trkpt>
      <trkpt lat="45.24783921428024768829345703125" lon="-71.1459352634847164154052734375">
        <ele>824</ele>
        <time>2026-08-22T02:58:48.000Z</time>
        <extensions>
          <ns3:TrackPointExtension>
            <ns3:hr>114</ns3:hr>
            <ns3:cad>0</ns3:cad>
          </ns3:TrackPointExtension>
        </extensions>
      </trkpt>
      <trkpt lat="45.2478490211069583892822265625" lon="-71.1459449864923954010009765625">
        <ele>824</ele>
        <time>2026-08-22T02:58:49.000Z</time>
        <extensions>
          <ns3:TrackPointExtension>
            <ns3:hr>114</ns3:hr>
            <ns3:cad>0</ns3:cad>
          </ns3:TrackPointExtension>
        </extensions>
      </trkpt>
      <trkpt lat="45.24785815738141536712646484375" lon="-71.1459557153284549713134765625">
        <ele>824</ele>
        <time>2026-08-22T02:58:50.000Z</time>
        <extensions>
          <ns3:TrackPointExtension>
            <ns3:hr>114</ns3:hr>
            <ns3:cad>0</ns3:cad>
          </ns3:TrackPointExtension>
        </extensions>
      </trkpt>
      <trkpt lat="45.24786897003650665283203125" lon="-71.14596837200224399566650390625">
        <ele>824</ele>
        <time>2026-08-22T02:58:51.000Z</time>
        <extensions>
          <ns3:TrackPointExtension>
            <ns3:hr>114</ns3:hr>
            <ns3:cad>0</ns3:cad>
          </ns3:TrackPointExtension>
        </extensions>
      </trkpt>
      <trkpt lat="45.2478768490254878997802734375" lon="-71.14598228596150875091552734375">
        <ele>824</ele>
        <time>2026-08-22T02:58:52.000Z</time>
        <extensions>
          <ns3:TrackPointExtension>
            <ns3:hr>114</ns3:hr>
            <ns3:cad>0</ns3:cad>
          </ns3:TrackPointExtension>
        </extensions>
      </trkpt>
      <trkpt lat="45.2478852309286594390869140625" lon="-71.1459977924823760986328125">
        <ele>823.79998779296875</ele>
        <time>2026-08-22T02:58:53.000Z</time>
        <extensions>
          <ns3:TrackPointExtension>
            <ns3:hr>114</ns3:hr>
            <ns3:cad>0</ns3:cad>
          </ns3:TrackPointExtension>
        </extensions>
      </trkpt>
      <trkpt lat="45.2478936128318309783935546875" lon="-71.1460043303668498992919921875">
        <ele>823.5999755859375</ele>
        <time>2026-08-22T02:58:54.000Z</time>
        <extensions>
          <ns3:TrackPointExtension>
            <ns3:hr>114</ns3:hr>
            <ns3:cad>0</ns3:cad>
          </ns3:TrackPointExtension>
        </extensions>
      </trkpt>
      <trkpt lat="45.24789235554635524749755859375" lon="-71.14601279608905315399169921875">
        <ele>823.5999755859375</ele>
        <time>2026-08-22T02:58:55.000Z</time>
        <extensions>
          <ns3:TrackPointExtension>
            <ns3:hr>114</ns3:hr>
            <ns3:cad>0</ns3:cad>
          </ns3:TrackPointExtension>
        </extensions>
      </trkpt>
      <trkpt lat="45.24789386428892612457275390625" lon="-71.14603157155215740203857421875">
        <ele>823.5999755859375</ele>
        <time>2026-08-22T02:58:56.000Z</time>
        <extensions>
          <ns3:TrackPointExtension>
            <ns3:hr>114</ns3:hr>
            <ns3:cad>0</ns3:cad>
          </ns3:TrackPointExtension>
        </extensions>
      </trkpt>
      <trkpt lat="45.24789805524051189422607421875" lon="-71.14604716189205646514892578125">
        <ele>823.79998779296875</ele>
        <time>2026-08-22T02:58:57.000Z</time>
        <extensions>
          <ns3:TrackPointExtension>
            <ns3:hr>114</ns3:hr>
            <ns3:cad>0</ns3:cad>
          </ns3:TrackPointExtension>
        </extensions>
      </trkpt>
      <trkpt lat="45.24790861643850803375244140625" lon="-71.14606359042227268218994140625">
        <ele>823.79998779296875</ele>
        <time>2026-08-22T02:58:58.000Z</time>
        <extensions>
          <ns3:TrackPointExtension>
            <ns3:hr>114</ns3:hr>
            <ns3:cad>0</ns3:cad>
          </ns3:TrackPointExtension>
        </extensions>
      </trkpt>
      <trkpt lat="45.24791347794234752655029296875" lon="-71.14607800729572772979736328125">
        <ele>823.79998779296875</ele>
        <time>2026-08-22T02:58:59.000Z</time>
        <extensions>
          <ns3:TrackPointExtension>
            <ns3:hr>114</ns3:hr>
            <ns3:cad>0</ns3:cad>
          </ns3:TrackPointExtension>
        </extensions>
      </trkpt>
      <trkpt lat="45.2479174174368381500244140625" lon="-71.14609611220657825469970703125">
        <ele>823.79998779296875</ele>
        <time>2026-08-22T02:59:00.000Z</time>
        <extensions>
          <ns3:TrackPointExtension>
            <ns3:hr>114</ns3:hr>
            <ns3:cad>0</ns3:cad>
          </ns3:TrackPointExtension>
        </extensions>
      </trkpt>
      <trkpt lat="45.24792001582682132720947265625" lon="-71.1461104452610015869140625">
        <ele>823.79998779296875</ele>
        <time>2026-08-22T02:59:01.000Z</time>
        <extensions>
          <ns3:TrackPointExtension>
            <ns3:hr>114</ns3:hr>
            <ns3:cad>48</ns3:cad>
          </ns3:TrackPointExtension>
        </extensions>
      </trkpt>
      <trkpt lat="45.24792772717773914337158203125" lon="-71.14612142555415630340576171875">
        <ele>823.79998779296875</ele>
        <time>2026-08-22T02:59:02.000Z</time>
        <extensions>
          <ns3:TrackPointExtension>
            <ns3:hr>114</ns3:hr>
            <ns3:cad>48</ns3:cad>
          </ns3:TrackPointExtension>
        </extensions>
      </trkpt>
      <trkpt lat="45.24793208576738834381103515625" lon="-71.1461344175040721893310546875">
        <ele>823.79998779296875</ele>
        <time>2026-08-22T02:59:03.000Z</time>
        <extensions>
          <ns3:TrackPointExtension>
            <ns3:hr>114</ns3:hr>
            <ns3:cad>48</ns3:cad>
          </ns3:TrackPointExtension>
        </extensions>
      </trkpt>
      <trkpt lat="45.247935689985752105712890625" lon="-71.14615327678620815277099609375">
        <ele>823.5999755859375</ele>
        <time>2026-08-22T02:59:04.000Z</time>
        <extensions>
          <ns3:TrackPointExtension>
            <ns3:hr>114</ns3:hr>
            <ns3:cad>53</ns3:cad>
          </ns3:TrackPointExtension>
        </extensions>
      </trkpt>
      <trkpt lat="45.24794851429760456085205078125" lon="-71.1461645923554897308349609375">
        <ele>823.5999755859375</ele>
        <time>2026-08-22T02:59:05.000Z</time>
        <extensions>
          <ns3:TrackPointExtension>
            <ns3:hr>115</ns3:hr>
            <ns3:cad>53</ns3:cad>
          </ns3:TrackPointExtension>
        </extensions>
      </trkpt>
      <trkpt lat="45.24796418845653533935546875" lon="-71.1461652629077434539794921875">
        <ele>823.4000244140625</ele>
        <time>2026-08-22T02:59:06.000Z</time>
        <extensions>
          <ns3:TrackPointExtension>
            <ns3:hr>115</ns3:hr>
            <ns3:cad>53</ns3:cad>
          </ns3:TrackPointExtension>
        </extensions>
      </trkpt>
      <trkpt lat="45.24797785095870494842529296875" lon="-71.14616769365966320037841796875">
        <ele>823.20001220703125</ele>
        <time>2026-08-22T02:59:07.000Z</time>
        <extensions>
          <ns3:TrackPointExtension>
            <ns3:hr>116</ns3:hr>
            <ns3:cad>53</ns3:cad>
          </ns3:TrackPointExtension>
        </extensions>
      </trkpt>
      <trkpt lat="45.2479911781847476959228515625" lon="-71.14616568200290203094482421875">
        <ele>823.20001220703125</ele>
        <time>2026-08-22T02:59:08.000Z</time>
        <extensions>
          <ns3:TrackPointExtension>
            <ns3:hr>116</ns3:hr>
            <ns3:cad>55</ns3:cad>
          </ns3:TrackPointExtension>
        </extensions>
      </trkpt>
      <trkpt lat="45.24800500832498073577880859375" lon="-71.14615931175649166107177734375">
        <ele>823</ele>
        <time>2026-08-22T02:59:09.000Z</time>
        <extensions>
          <ns3:TrackPointExtension>
            <ns3:hr>116</ns3:hr>
            <ns3:cad>55</ns3:cad>
          </ns3:TrackPointExtension>
        </extensions>
      </trkpt>
      <trkpt lat="45.2480143122375011444091796875" lon="-71.14615160040557384490966796875">
        <ele>823</ele>
        <time>2026-08-22T02:59:10.000Z</time>
        <extensions>
          <ns3:TrackPointExtension>
            <ns3:hr>116</ns3:hr>
            <ns3:cad>55</ns3:cad>
          </ns3:TrackPointExtension>
        </extensions>
      </trkpt>
      <trkpt lat="45.24801841937005519866943359375" lon="-71.1461334116756916046142578125">
        <ele>822.79998779296875</ele>
        <time>2026-08-22T02:59:11.000Z</time>
        <extensions>
          <ns3:TrackPointExtension>
            <ns3:hr>116</ns3:hr>
            <ns3:cad>55</ns3:cad>
          </ns3:TrackPointExtension>
        </extensions>
      </trkpt>
      <trkpt lat="45.248017497360706329345703125" lon="-71.1461129598319530487060546875">
        <ele>822.5999755859375</ele>
        <time>2026-08-22T02:59:12.000Z</time>
        <extensions>
          <ns3:TrackPointExtension>
            <ns3:hr>116</ns3:hr>
            <ns3:cad>55</ns3:cad>
          </ns3:TrackPointExtension>
        </extensions>
      </trkpt>
      <trkpt lat="45.2480185031890869140625" lon="-71.14609368145465850830078125">
        <ele>822.5999755859375</ele>
        <time>2026-08-22T02:59:13.000Z</time>
        <extensions>
          <ns3:TrackPointExtension>
            <ns3:hr>116</ns3:hr>
            <ns3:cad>55</ns3:cad>
          </ns3:TrackPointExtension>
        </extensions>
      </trkpt>
      <trkpt lat="45.248021185398101806640625" lon="-71.1460790969431400299072265625">
        <ele>822.4000244140625</ele>
        <time>2026-08-22T02:59:14.000Z</time>
        <extensions>
          <ns3:TrackPointExtension>
            <ns3:hr>115</ns3:hr>
            <ns3:cad>55</ns3:cad>
          </ns3:TrackPointExtension>
        </extensions>
      </trkpt>
      <trkpt lat="45.24802613072097301483154296875" lon="-71.14606929011642932891845703125">
        <ele>822.20001220703125</ele>
        <time>2026-08-22T02:59:15.000Z</time>
        <extensions>
          <ns3:TrackPointExtension>
            <ns3:hr>115</ns3:hr>
            <ns3:cad>0</ns3:cad>
          </ns3:TrackPointExtension>
        </extensions>
      </trkpt>
      <trkpt lat="45.2480304054915904998779296875" lon="-71.146065182983875274658203125">
        <ele>822</ele>
        <time>2026-08-22T02:59:16.000Z</time>
        <extensions>
          <ns3:TrackPointExtension>
            <ns3:hr>114</ns3:hr>
            <ns3:cad>0</ns3:cad>
          </ns3:TrackPointExtension>
        </extensions>
      </trkpt>
      <trkpt lat="45.2480364404618740081787109375" lon="-71.146066188812255859375">
        <ele>821.79998779296875</ele>
        <time>2026-08-22T02:59:17.000Z</time>
        <extensions>
          <ns3:TrackPointExtension>
            <ns3:hr>114</ns3:hr>
            <ns3:cad>0</ns3:cad>
          </ns3:TrackPointExtension>
        </extensions>
      </trkpt>
      <trkpt lat="45.24804557673633098602294921875" lon="-71.14606308750808238983154296875">
        <ele>821.5999755859375</ele>
        <time>2026-08-22T02:59:18.000Z</time>
        <extensions>
          <ns3:TrackPointExtension>
            <ns3:hr>113</ns3:hr>
            <ns3:cad>56</ns3:cad>
          </ns3:TrackPointExtension>
        </extensions>
      </trkpt>
      <trkpt lat="45.2480565570294857025146484375" lon="-71.14606090821325778961181640625">
        <ele>821.4000244140625</ele>
        <time>2026-08-22T02:59:19.000Z</time>
        <extensions>
          <ns3:TrackPointExtension>
            <ns3:hr>112</ns3:hr>
            <ns3:cad>56</ns3:cad>
          </ns3:TrackPointExtension>
        </extensions>
      </trkpt>
      <trkpt lat="45.2480659447610378265380859375" lon="-71.14605939947068691253662109375">
        <ele>821.20001220703125</ele>
        <time>2026-08-22T02:59:20.000Z</time>
        <extensions>
          <ns3:TrackPointExtension>
            <ns3:hr>112</ns3:hr>
            <ns3:cad>56</ns3:cad>
          </ns3:TrackPointExtension>
        </extensions>
      </trkpt>
      <trkpt lat="45.24807550013065338134765625" lon="-71.146062500774860382080078125">
        <ele>820.79998779296875</ele>
        <time>2026-08-22T02:59:21.000Z</time>
        <extensions>
          <ns3:TrackPointExtension>
            <ns3:hr>112</ns3:hr>
            <ns3:cad>56</ns3:cad>
          </ns3:TrackPointExtension>
        </extensions>
      </trkpt>
      <trkpt lat="45.2480833791196346282958984375" lon="-71.146063171327114105224609375">
        <ele>820.5999755859375</ele>
        <time>2026-08-22T02:59:22.000Z</time>
        <extensions>
          <ns3:TrackPointExtension>
            <ns3:hr>113</ns3:hr>
            <ns3:cad>56</ns3:cad>
          </ns3:TrackPointExtension>
        </extensions>
      </trkpt>
      <trkpt lat="45.24809368886053562164306640625" lon="-71.146061830222606658935546875">
        <ele>820.4000244140625</ele>
        <time>2026-08-22T02:59:23.000Z</time>
        <extensions>
          <ns3:TrackPointExtension>
            <ns3:hr>112</ns3:hr>
            <ns3:cad>56</ns3:cad>
          </ns3:TrackPointExtension>
        </extensions>
      </trkpt>
      <trkpt lat="45.2481018193066120147705078125" lon="-71.1460616625845432281494140625">
        <ele>820.20001220703125</ele>
        <time>2026-08-22T02:59:24.000Z</time>
        <extensions>
          <ns3:TrackPointExtension>
            <ns3:hr>112</ns3:hr>
            <ns3:cad>56</ns3:cad>
          </ns3:TrackPointExtension>
        </extensions>
      </trkpt>
      <trkpt lat="45.248114056885242462158203125" lon="-71.14606811664998531341552734375">
        <ele>820</ele>
        <time>2026-08-22T02:59:25.000Z</time>
        <extensions>
          <ns3:TrackPointExtension>
            <ns3:hr>112</ns3:hr>
            <ns3:cad>0</ns3:cad>
          </ns3:TrackPointExtension>
        </extensions>
      </trkpt>
      <trkpt lat="45.24812101386487483978271484375" lon="-71.14607356488704681396484375">
        <ele>819.79998779296875</ele>
        <time>2026-08-22T02:59:26.000Z</time>
        <extensions>
          <ns3:TrackPointExtension>
            <ns3:hr>112</ns3:hr>
            <ns3:cad>0</ns3:cad>
          </ns3:TrackPointExtension>
        </extensions>
      </trkpt>
      <trkpt lat="45.24813157506287097930908203125" lon="-71.14608571864664554595947265625">
        <ele>819.5999755859375</ele>
        <time>2026-08-22T02:59:27.000Z</time>
        <extensions>
          <ns3:TrackPointExtension>
            <ns3:hr>112</ns3:hr>
            <ns3:cad>0</ns3:cad>
          </ns3:TrackPointExtension>
        </extensions>
      </trkpt>
      <trkpt lat="45.2481405436992645263671875" lon="-71.14609007723629474639892578125">
        <ele>819.4000244140625</ele>
        <time>2026-08-22T02:59:28.000Z</time>
        <extensions>
          <ns3:TrackPointExtension>
            <ns3:hr>112</ns3:hr>
            <ns3:cad>64</ns3:cad>
          </ns3:TrackPointExtension>
        </extensions>
      </trkpt>
      <trkpt lat="45.248149596154689788818359375" lon="-71.14609980024397373199462890625">
        <ele>819.20001220703125</ele>
        <time>2026-08-22T02:59:29.000Z</time>
        <extensions>
          <ns3:TrackPointExtension>
            <ns3:hr>112</ns3:hr>
            <ns3:cad>64</ns3:cad>
          </ns3:TrackPointExtension>
        </extensions>
      </trkpt>
      <trkpt lat="45.24815890006721019744873046875" lon="-71.146107427775859832763671875">
        <ele>819</ele>
        <time>2026-08-22T02:59:30.000Z</time>
        <extensions>
          <ns3:TrackPointExtension>
            <ns3:hr>112</ns3:hr>
            <ns3:cad>0</ns3:cad>
          </ns3:TrackPointExtension>
        </extensions>
      </trkpt>
      <trkpt lat="45.2481700479984283447265625" lon="-71.14611891098320484161376953125">
        <ele>818.79998779296875</ele>
        <time>2026-08-22T02:59:31.000Z</time>
        <extensions>
          <ns3:TrackPointExtension>
            <ns3:hr>113</ns3:hr>
            <ns3:cad>0</ns3:cad>
          </ns3:TrackPointExtension>
        </extensions>
      </trkpt>
      <trkpt lat="45.2481792680919170379638671875" lon="-71.14612796343863010406494140625">
        <ele>818.5999755859375</ele>
        <time>2026-08-22T02:59:32.000Z</time>
        <extensions>
          <ns3:TrackPointExtension>
            <ns3:hr>112</ns3:hr>
            <ns3:cad>0</ns3:cad>
          </ns3:TrackPointExtension>
        </extensions>
      </trkpt>
      <trkpt lat="45.24818957783281803131103515625" lon="-71.14614053629338741302490234375">
        <ele>818.5999755859375</ele>
        <time>2026-08-22T02:59:33.000Z</time>
        <extensions>
          <ns3:TrackPointExtension>
            <ns3:hr>112</ns3:hr>
            <ns3:cad>0</ns3:cad>
          </ns3:TrackPointExtension>
        </extensions>
      </trkpt>
      <trkpt lat="45.24819980375468730926513671875" lon="-71.1461454816162586212158203125">
        <ele>818.4000244140625</ele>
        <time>2026-08-22T02:59:34.000Z</time>
        <extensions>
          <ns3:TrackPointExtension>
            <ns3:hr>112</ns3:hr>
            <ns3:cad>0</ns3:cad>
          </ns3:TrackPointExtension>
        </extensions>
      </trkpt>
      <trkpt lat="45.24820785038173198699951171875" lon="-71.14615269005298614501953125">
        <ele>818.20001220703125</ele>
        <time>2026-08-22T02:59:35.000Z</time>
        <extensions>
          <ns3:TrackPointExtension>
            <ns3:hr>112</ns3:hr>
            <ns3:cad>0</ns3:cad>
          </ns3:TrackPointExtension>
        </extensions>
      </trkpt>
      <trkpt lat="45.2482195012271404266357421875" lon="-71.146166436374187469482421875">
        <ele>818.20001220703125</ele>
        <time>2026-08-22T02:59:36.000Z</time>
        <extensions>
          <ns3:TrackPointExtension>
            <ns3:hr>112</ns3:hr>
            <ns3:cad>0</ns3:cad>
          </ns3:TrackPointExtension>
        </extensions>
      </trkpt>
      <trkpt lat="45.248223356902599334716796875" lon="-71.14618043415248394012451171875">
        <ele>818</ele>
        <time>2026-08-22T02:59:37.000Z</time>
        <extensions>
          <ns3:TrackPointExtension>
            <ns3:hr>111</ns3:hr>
            <ns3:cad>0</ns3:cad>
          </ns3:TrackPointExtension>
        </extensions>
      </trkpt>
      <trkpt lat="45.24823014624416828155517578125" lon="-71.14619267173111438751220703125">
        <ele>818</ele>
        <time>2026-08-22T02:59:38.000Z</time>
        <extensions>
          <ns3:TrackPointExtension>
            <ns3:hr>110</ns3:hr>
            <ns3:cad>0</ns3:cad>
          </ns3:TrackPointExtension>
        </extensions>
      </trkpt>
      <trkpt lat="45.24823282845318317413330078125" lon="-71.1462038196623325347900390625">
        <ele>818</ele>
        <time>2026-08-22T02:59:39.000Z</time>
        <extensions>
          <ns3:TrackPointExtension>
            <ns3:hr>109</ns3:hr>
            <ns3:cad>0</ns3:cad>
          </ns3:TrackPointExtension>
        </extensions>
      </trkpt>
      <trkpt lat="45.24823484010994434356689453125" lon="-71.14621572196483612060546875">
        <ele>818</ele>
        <time>2026-08-22T02:59:40.000Z</time>
        <extensions>
          <ns3:TrackPointExtension>
            <ns3:hr>109</ns3:hr>
            <ns3:cad>0</ns3:cad>
          </ns3:TrackPointExtension>
        </extensions>
      </trkpt>
      <trkpt lat="45.2482399530708789825439453125" lon="-71.1462309770286083221435546875">
        <ele>818</ele>
        <time>2026-08-22T02:59:41.000Z</time>
        <extensions>
          <ns3:TrackPointExtension>
            <ns3:hr>108</ns3:hr>
            <ns3:cad>0</ns3:cad>
          </ns3:TrackPointExtension>
        </extensions>
      </trkpt>
      <trkpt lat="45.2482486702501773834228515625" lon="-71.14624246023595333099365234375">
        <ele>818</ele>
        <time>2026-08-22T02:59:42.000Z</time>
        <extensions>
          <ns3:TrackPointExtension>
            <ns3:hr>108</ns3:hr>
            <ns3:cad>0</ns3:cad>
          </ns3:TrackPointExtension>
        </extensions>
      </trkpt>
      <trkpt lat="45.248257219791412353515625" lon="-71.14625972695648670196533203125">
        <ele>818</ele>
        <time>2026-08-22T02:59:43.000Z</time>
        <extensions>
          <ns3:TrackPointExtension>
            <ns3:hr>108</ns3:hr>
            <ns3:cad>0</ns3:cad>
          </ns3:TrackPointExtension>
        </extensions>
      </trkpt>
      <trkpt lat="45.24826333858072757720947265625" lon="-71.1462772451341152191162109375">
        <ele>817.79998779296875</ele>
        <time>2026-08-22T02:59:44.000Z</time>
        <extensions>
          <ns3:TrackPointExtension>
            <ns3:hr>107</ns3:hr>
            <ns3:cad>0</ns3:cad>
          </ns3:TrackPointExtension>
        </extensions>
      </trkpt>
      <trkpt lat="45.24827524088323116302490234375" lon="-71.146291159093379974365234375">
        <ele>817.79998779296875</ele>
        <time>2026-08-22T02:59:45.000Z</time>
        <extensions>
          <ns3:TrackPointExtension>
            <ns3:hr>107</ns3:hr>
            <ns3:cad>0</ns3:cad>
          </ns3:TrackPointExtension>
        </extensions>
      </trkpt>
      <trkpt lat="45.2482832036912441253662109375" lon="-71.146304570138454437255859375">
        <ele>817.79998779296875</ele>
        <time>2026-08-22T02:59:46.000Z</time>
        <extensions>
          <ns3:TrackPointExtension>
            <ns3:hr>107</ns3:hr>
            <ns3:cad>0</ns3:cad>
          </ns3:TrackPointExtension>
        </extensions>
      </trkpt>
      <trkpt lat="45.2482935972511768341064453125" lon="-71.14631638862192630767822265625">
        <ele>817.79998779296875</ele>
        <time>2026-08-22T02:59:47.000Z</time>
        <extensions>
          <ns3:TrackPointExtension>
            <ns3:hr>107</ns3:hr>
            <ns3:cad>0</ns3:cad>
          </ns3:TrackPointExtension>
        </extensions>
      </trkpt>
      <trkpt lat="45.24829988367855548858642578125" lon="-71.146334074437618255615234375">
        <ele>817.79998779296875</ele>
        <time>2026-08-22T02:59:48.000Z</time>
        <extensions>
          <ns3:TrackPointExtension>
            <ns3:hr>107</ns3:hr>
            <ns3:cad>0</ns3:cad>
          </ns3:TrackPointExtension>
        </extensions>
      </trkpt>
      <trkpt lat="45.24830524809658527374267578125" lon="-71.1463476531207561492919921875">
        <ele>817.5999755859375</ele>
        <time>2026-08-22T02:59:49.000Z</time>
        <extensions>
          <ns3:TrackPointExtension>
            <ns3:hr>107</ns3:hr>
            <ns3:cad>0</ns3:cad>
          </ns3:TrackPointExtension>
        </extensions>
      </trkpt>
      <trkpt lat="45.2483130432665348052978515625" lon="-71.14635963924229145050048828125">
        <ele>817.5999755859375</ele>
        <time>2026-08-22T02:59:50.000Z</time>
        <extensions>
          <ns3:TrackPointExtension>
            <ns3:hr>107</ns3:hr>
            <ns3:cad>55</ns3:cad>
          </ns3:TrackPointExtension>
        </extensions>
      </trkpt>
      <trkpt lat="45.24832368828356266021728515625" lon="-71.1463724635541439056396484375">
        <ele>817.4000244140625</ele>
        <time>2026-08-22T02:59:51.000Z</time>
        <extensions>
          <ns3:TrackPointExtension>
            <ns3:hr>107</ns3:hr>
            <ns3:cad>55</ns3:cad>
          </ns3:TrackPointExtension>
        </extensions>
      </trkpt>
      <trkpt lat="45.24833433330059051513671875" lon="-71.14638067781925201416015625">
        <ele>817.4000244140625</ele>
        <time>2026-08-22T02:59:52.000Z</time>
        <extensions>
          <ns3:TrackPointExtension>
            <ns3:hr>108</ns3:hr>
            <ns3:cad>56</ns3:cad>
          </ns3:TrackPointExtension>
        </extensions>
      </trkpt>
      <trkpt lat="45.248338021337985992431640625" lon="-71.1463878862559795379638671875">
        <ele>817.20001220703125</ele>
        <time>2026-08-22T02:59:53.000Z</time>
        <extensions>
          <ns3:TrackPointExtension>
            <ns3:hr>108</ns3:hr>
            <ns3:cad>56</ns3:cad>
          </ns3:TrackPointExtension>
        </extensions>
      </trkpt>
      <trkpt lat="45.24834640324115753173828125" lon="-71.14640339277684688568115234375">
        <ele>817</ele>
        <time>2026-08-22T02:59:54.000Z</time>
        <extensions>
          <ns3:TrackPointExtension>
            <ns3:hr>108</ns3:hr>
            <ns3:cad>57</ns3:cad>
          </ns3:TrackPointExtension>
        </extensions>
      </trkpt>
      <trkpt lat="45.24835470132529735565185546875" lon="-71.1464210785925388336181640625">
        <ele>816.79998779296875</ele>
        <time>2026-08-22T02:59:55.000Z</time>
        <extensions>
          <ns3:TrackPointExtension>
            <ns3:hr>108</ns3:hr>
            <ns3:cad>57</ns3:cad>
          </ns3:TrackPointExtension>
        </extensions>
      </trkpt>
      <trkpt lat="45.24835771881043910980224609375" lon="-71.146443374454975128173828125">
        <ele>816.5999755859375</ele>
        <time>2026-08-22T02:59:56.000Z</time>
        <extensions>
          <ns3:TrackPointExtension>
            <ns3:hr>108</ns3:hr>
            <ns3:cad>0</ns3:cad>
          </ns3:TrackPointExtension>
        </extensions>
      </trkpt>
      <trkpt lat="45.2483586408197879791259765625" lon="-71.14646156318485736846923828125">
        <ele>816.4000244140625</ele>
        <time>2026-08-22T02:59:57.000Z</time>
        <extensions>
          <ns3:TrackPointExtension>
            <ns3:hr>108</ns3:hr>
            <ns3:cad>0</ns3:cad>
          </ns3:TrackPointExtension>
        </extensions>
      </trkpt>
      <trkpt lat="45.248364172875881195068359375" lon="-71.146476566791534423828125">
        <ele>816.4000244140625</ele>
        <time>2026-08-22T02:59:58.000Z</time>
        <extensions>
          <ns3:TrackPointExtension>
            <ns3:hr>107</ns3:hr>
            <ns3:cad>0</ns3:cad>
          </ns3:TrackPointExtension>
        </extensions>
      </trkpt>
      <trkpt lat="45.2483723871409893035888671875" lon="-71.14648922346532344818115234375">
        <ele>816.20001220703125</ele>
        <time>2026-08-22T02:59:59.000Z</time>
        <extensions>
          <ns3:TrackPointExtension>
            <ns3:hr>108</ns3:hr>
            <ns3:cad>0</ns3:cad>
          </ns3:TrackPointExtension>
        </extensions>
      </trkpt>
      <trkpt lat="45.248382277786731719970703125" lon="-71.1465045623481273651123046875">
        <ele>816.20001220703125</ele>
        <time>2026-08-22T03:00:00.000Z</time>
        <extensions>
          <ns3:TrackPointExtension>
            <ns3:hr>108</ns3:hr>
            <ns3:cad>0</ns3:cad>
          </ns3:TrackPointExtension>
        </extensions>
      </trkpt>
      <trkpt lat="45.24838722310960292816162109375" lon="-71.14651856012642383575439453125">
        <ele>816</ele>
        <time>2026-08-22T03:00:01.000Z</time>
        <extensions>
          <ns3:TrackPointExtension>
            <ns3:hr>108</ns3:hr>
            <ns3:cad>0</ns3:cad>
          </ns3:TrackPointExtension>
        </extensions>
      </trkpt>
      <trkpt lat="45.2483945153653621673583984375" lon="-71.14652778021991252899169921875">
        <ele>815.79998779296875</ele>
        <time>2026-08-22T03:00:02.000Z</time>
        <extensions>
          <ns3:TrackPointExtension>
            <ns3:hr>107</ns3:hr>
            <ns3:cad>0</ns3:cad>
          </ns3:TrackPointExtension>
        </extensions>
      </trkpt>
      <trkpt lat="45.24840398691594600677490234375" lon="-71.1465390957891941070556640625">
        <ele>815.5999755859375</ele>
        <time>2026-08-22T03:00:03.000Z</time>
        <extensions>
          <ns3:TrackPointExtension>
            <ns3:hr>107</ns3:hr>
            <ns3:cad>0</ns3:cad>
          </ns3:TrackPointExtension>
        </extensions>
      </trkpt>
      <trkpt lat="45.2484163083136081695556640625" lon="-71.14655359648168087005615234375">
        <ele>815.20001220703125</ele>
        <time>2026-08-22T03:00:04.000Z</time>
        <extensions>
          <ns3:TrackPointExtension>
            <ns3:hr>107</ns3:hr>
            <ns3:cad>0</ns3:cad>
          </ns3:TrackPointExtension>
        </extensions>
      </trkpt>
      <trkpt lat="45.2484263665974140167236328125" lon="-71.14656566642224788665771484375">
        <ele>815</ele>
        <time>2026-08-22T03:00:05.000Z</time>
        <extensions>
          <ns3:TrackPointExtension>
            <ns3:hr>107</ns3:hr>
            <ns3:cad>0</ns3:cad>
          </ns3:TrackPointExtension>
        </extensions>
      </trkpt>
      <trkpt lat="45.2484360896050930023193359375" lon="-71.146573461592197418212890625">
        <ele>814.79998779296875</ele>
        <time>2026-08-22T03:00:06.000Z</time>
        <extensions>
          <ns3:TrackPointExtension>
            <ns3:hr>106</ns3:hr>
            <ns3:cad>56</ns3:cad>
          </ns3:TrackPointExtension>
        </extensions>
      </trkpt>
      <trkpt lat="45.24845260195434093475341796875" lon="-71.14657890982925891876220703125">
        <ele>814.79998779296875</ele>
        <time>2026-08-22T03:00:07.000Z</time>
        <extensions>
          <ns3:TrackPointExtension>
            <ns3:hr>106</ns3:hr>
            <ns3:cad>56</ns3:cad>
          </ns3:TrackPointExtension>
        </extensions>
      </trkpt>
      <trkpt lat="45.24846835993230342864990234375" lon="-71.14658511243760585784912109375">
        <ele>814.5999755859375</ele>
        <time>2026-08-22T03:00:08.000Z</time>
        <extensions>
          <ns3:TrackPointExtension>
            <ns3:hr>106</ns3:hr>
            <ns3:cad>0</ns3:cad>
          </ns3:TrackPointExtension>
        </extensions>
      </trkpt>
      <trkpt lat="45.2484823577105998992919921875" lon="-71.1465900577604770660400390625">
        <ele>814.4000244140625</ele>
        <time>2026-08-22T03:00:09.000Z</time>
        <extensions>
          <ns3:TrackPointExtension>
            <ns3:hr>107</ns3:hr>
            <ns3:cad>0</ns3:cad>
          </ns3:TrackPointExtension>
        </extensions>
      </trkpt>
      <trkpt lat="45.2484940923750400543212890625" lon="-71.14659919403493404388427734375">
        <ele>814</ele>
        <time>2026-08-22T03:00:10.000Z</time>
        <extensions>
          <ns3:TrackPointExtension>
            <ns3:hr>108</ns3:hr>
            <ns3:cad>0</ns3:cad>
          </ns3:TrackPointExtension>
        </extensions>
      </trkpt>
      <trkpt lat="45.24850691668689250946044921875" lon="-71.14661126397550106048583984375">
        <ele>813.79998779296875</ele>
        <time>2026-08-22T03:00:11.000Z</time>
        <extensions>
          <ns3:TrackPointExtension>
            <ns3:hr>109</ns3:hr>
            <ns3:cad>0</ns3:cad>
          </ns3:TrackPointExtension>
        </extensions>
      </trkpt>
      <trkpt lat="45.2485132031142711639404296875" lon="-71.1466168798506259918212890625">
        <ele>813.5999755859375</ele>
        <time>2026-08-22T03:00:12.000Z</time>
        <extensions>
          <ns3:TrackPointExtension>
            <ns3:hr>109</ns3:hr>
            <ns3:cad>0</ns3:cad>
          </ns3:TrackPointExtension>
        </extensions>
      </trkpt>
      <trkpt lat="45.2485232613980770111083984375" lon="-71.14662945270538330078125">
        <ele>813.4000244140625</ele>
        <time>2026-08-22T03:00:13.000Z</time>
        <extensions>
          <ns3:TrackPointExtension>
            <ns3:hr>108</ns3:hr>
            <ns3:cad>0</ns3:cad>
          </ns3:TrackPointExtension>
        </extensions>
      </trkpt>
      <trkpt lat="45.2485329844057559967041015625" lon="-71.14663758315145969390869140625">
        <ele>813.20001220703125</ele>
        <time>2026-08-22T03:00:14.000Z</time>
        <extensions>
          <ns3:TrackPointExtension>
            <ns3:hr>108</ns3:hr>
            <ns3:cad>0</ns3:cad>
          </ns3:TrackPointExtension>
        </extensions>
      </trkpt>
      <trkpt lat="45.2485433779656887054443359375" lon="-71.14665292203426361083984375">
        <ele>813</ele>
        <time>2026-08-22T03:00:15.000Z</time>
        <extensions>
          <ns3:TrackPointExtension>
            <ns3:hr>108</ns3:hr>
            <ns3:cad>0</ns3:cad>
          </ns3:TrackPointExtension>
        </extensions>
      </trkpt>
      <trkpt lat="45.24855318479239940643310546875" lon="-71.1466675065457820892333984375">
        <ele>812.79998779296875</ele>
        <time>2026-08-22T03:00:16.000Z</time>
        <extensions>
          <ns3:TrackPointExtension>
            <ns3:hr>108</ns3:hr>
            <ns3:cad>0</ns3:cad>
          </ns3:TrackPointExtension>
        </extensions>
      </trkpt>
      <trkpt lat="45.2485634945333003997802734375" lon="-71.14667714573442935943603515625">
        <ele>812.5999755859375</ele>
        <time>2026-08-22T03:00:17.000Z</time>
        <extensions>
          <ns3:TrackPointExtension>
            <ns3:hr>108</ns3:hr>
            <ns3:cad>0</ns3:cad>
          </ns3:TrackPointExtension>
        </extensions>
      </trkpt>
      <trkpt lat="45.24857145734131336212158203125" lon="-71.1466866172850131988525390625">
        <ele>812.4000244140625</ele>
        <time>2026-08-22T03:00:18.000Z</time>
        <extensions>
          <ns3:TrackPointExtension>
            <ns3:hr>108</ns3:hr>
            <ns3:cad>0</ns3:cad>
          </ns3:TrackPointExtension>
        </extensions>
      </trkpt>
      <trkpt lat="45.24858000688254833221435546875" lon="-71.14669944159686565399169921875">
        <ele>812</ele>
        <time>2026-08-22T03:00:19.000Z</time>
        <extensions>
          <ns3:TrackPointExtension>
            <ns3:hr>108</ns3:hr>
            <ns3:cad>0</ns3:cad>
          </ns3:TrackPointExtension>
        </extensions>
      </trkpt>
      <trkpt lat="45.2485866285860538482666015625" lon="-71.1467077396810054779052734375">
        <ele>811.79998779296875</ele>
        <time>2026-08-22T03:00:20.000Z</time>
        <extensions>
          <ns3:TrackPointExtension>
            <ns3:hr>108</ns3:hr>
            <ns3:cad>0</ns3:cad>
          </ns3:TrackPointExtension>
        </extensions>
      </trkpt>
      <trkpt lat="45.2485976926982402801513671875" lon="-71.146725006401538848876953125">
        <ele>811.5999755859375</ele>
        <time>2026-08-22T03:00:21.000Z</time>
        <extensions>
          <ns3:TrackPointExtension>
            <ns3:hr>108</ns3:hr>
            <ns3:cad>0</ns3:cad>
          </ns3:TrackPointExtension>
        </extensions>
      </trkpt>
      <trkpt lat="45.24860682897269725799560546875" lon="-71.14673615433275699615478515625">
        <ele>811.20001220703125</ele>
        <time>2026-08-22T03:00:22.000Z</time>
        <extensions>
          <ns3:TrackPointExtension>
            <ns3:hr>109</ns3:hr>
            <ns3:cad>0</ns3:cad>
          </ns3:TrackPointExtension>
        </extensions>
      </trkpt>
      <trkpt lat="45.2486127801239490509033203125" lon="-71.14674168638885021209716796875">
        <ele>811</ele>
        <time>2026-08-22T03:00:23.000Z</time>
        <extensions>
          <ns3:TrackPointExtension>
            <ns3:hr>109</ns3:hr>
            <ns3:cad>0</ns3:cad>
          </ns3:TrackPointExtension>
        </extensions>
      </trkpt>
      <trkpt lat="45.248617641627788543701171875" lon="-71.14675576798617839813232421875">
        <ele>810.79998779296875</ele>
        <time>2026-08-22T03:00:24.000Z</time>
        <extensions>
          <ns3:TrackPointExtension>
            <ns3:hr>109</ns3:hr>
            <ns3:cad>0</ns3:cad>
          </ns3:TrackPointExtension>
        </extensions>
      </trkpt>
      <trkpt lat="45.2486241795122623443603515625" lon="-71.1467637307941913604736328125">
        <ele>810.5999755859375</ele>
        <time>2026-08-22T03:00:25.000Z</time>
        <extensions>
          <ns3:TrackPointExtension>
            <ns3:hr>109</ns3:hr>
            <ns3:cad>45</ns3:cad>
          </ns3:TrackPointExtension>
        </extensions>
      </trkpt>
      <trkpt lat="45.248633064329624176025390625" lon="-71.146780662238597869873046875">
        <ele>810.20001220703125</ele>
        <time>2026-08-22T03:00:26.000Z</time>
        <extensions>
          <ns3:TrackPointExtension>
            <ns3:hr>109</ns3:hr>
            <ns3:cad>45</ns3:cad>
          </ns3:TrackPointExtension>
        </extensions>
      </trkpt>
      <trkpt lat="45.2486419491469860076904296875" lon="-71.14679650403559207916259765625">
        <ele>810</ele>
        <time>2026-08-22T03:00:27.000Z</time>
        <extensions>
          <ns3:TrackPointExtension>
            <ns3:hr>109</ns3:hr>
            <ns3:cad>45</ns3:cad>
          </ns3:TrackPointExtension>
        </extensions>
      </trkpt>
      <trkpt lat="45.24864873848855495452880859375" lon="-71.146806813776493072509765625">
        <ele>809.79998779296875</ele>
        <time>2026-08-22T03:00:28.000Z</time>
        <extensions>
          <ns3:TrackPointExtension>
            <ns3:hr>109</ns3:hr>
            <ns3:cad>50</ns3:cad>
          </ns3:TrackPointExtension>
        </extensions>
      </trkpt>
      <trkpt lat="45.24865829385817050933837890625" lon="-71.14681896753609180450439453125">
        <ele>809.5999755859375</ele>
        <time>2026-08-22T03:00:29.000Z</time>
        <extensions>
          <ns3:TrackPointExtension>
            <ns3:hr>109</ns3:hr>
            <ns3:cad>50</ns3:cad>
          </ns3:TrackPointExtension>
        </extensions>
      </trkpt>
      <trkpt lat="45.24866533465683460235595703125" lon="-71.14682282321155071258544921875">
        <ele>809.4000244140625</ele>
        <time>2026-08-22T03:00:30.000Z</time>
        <extensions>
          <ns3:TrackPointExtension>
            <ns3:hr>110</ns3:hr>
            <ns3:cad>50</ns3:cad>
          </ns3:TrackPointExtension>
        </extensions>
      </trkpt>
      <trkpt lat="45.2486838586628437042236328125" lon="-71.14683405496180057525634765625">
        <ele>809.20001220703125</ele>
        <time>2026-08-22T03:00:31.000Z</time>
        <extensions>
          <ns3:TrackPointExtension>
            <ns3:hr>109</ns3:hr>
            <ns3:cad>50</ns3:cad>
          </ns3:TrackPointExtension>
        </extensions>
      </trkpt>
      <trkpt lat="45.24869567714631557464599609375" lon="-71.14683891646564006805419921875">
        <ele>809</ele>
        <time>2026-08-22T03:00:32.000Z</time>
        <extensions>
          <ns3:TrackPointExtension>
            <ns3:hr>109</ns3:hr>
            <ns3:cad>79</ns3:cad>
          </ns3:TrackPointExtension>
        </extensions>
      </trkpt>
      <trkpt lat="45.24870791472494602203369140625" lon="-71.1468475498259067535400390625">
        <ele>808.5999755859375</ele>
        <time>2026-08-22T03:00:33.000Z</time>
        <extensions>
          <ns3:TrackPointExtension>
            <ns3:hr>110</ns3:hr>
            <ns3:cad>79</ns3:cad>
          </ns3:TrackPointExtension>
        </extensions>
      </trkpt>
      <trkpt lat="45.248718895018100738525390625" lon="-71.146853081881999969482421875">
        <ele>808.4000244140625</ele>
        <time>2026-08-22T03:00:34.000Z</time>
        <extensions>
          <ns3:TrackPointExtension>
            <ns3:hr>110</ns3:hr>
            <ns3:cad>64</ns3:cad>
          </ns3:TrackPointExtension>
        </extensions>
      </trkpt>
      <trkpt lat="45.24872995913028717041015625" lon="-71.14686624146997928619384765625">
        <ele>808</ele>
        <time>2026-08-22T03:00:35.000Z</time>
        <extensions>
          <ns3:TrackPointExtension>
            <ns3:hr>110</ns3:hr>
            <ns3:cad>64</ns3:cad>
          </ns3:TrackPointExtension>
        </extensions>
      </trkpt>
      <trkpt lat="45.2487413585186004638671875" lon="-71.14688803441822528839111328125">
        <ele>807.79998779296875</ele>
        <time>2026-08-22T03:00:36.000Z</time>
        <extensions>
          <ns3:TrackPointExtension>
            <ns3:hr>110</ns3:hr>
            <ns3:cad>64</ns3:cad>
          </ns3:TrackPointExtension>
        </extensions>
      </trkpt>
      <trkpt lat="45.24875770322978496551513671875" lon="-71.14690949209034442901611328125">
        <ele>807.4000244140625</ele>
        <time>2026-08-22T03:00:37.000Z</time>
        <extensions>
          <ns3:TrackPointExtension>
            <ns3:hr>110</ns3:hr>
            <ns3:cad>64</ns3:cad>
          </ns3:TrackPointExtension>
        </extensions>
      </trkpt>
      <trkpt lat="45.24876910261809825897216796875" lon="-71.14692508243024349212646484375">
        <ele>807.20001220703125</ele>
        <time>2026-08-22T03:00:38.000Z</time>
        <extensions>
          <ns3:TrackPointExtension>
            <ns3:hr>110</ns3:hr>
            <ns3:cad>64</ns3:cad>
          </ns3:TrackPointExtension>
        </extensions>
      </trkpt>
      <trkpt lat="45.24877597577869892120361328125" lon="-71.1469477973878383636474609375">
        <ele>807</ele>
        <time>2026-08-22T03:00:39.000Z</time>
        <extensions>
          <ns3:TrackPointExtension>
            <ns3:hr>110</ns3:hr>
            <ns3:cad>72</ns3:cad>
          </ns3:TrackPointExtension>
        </extensions>
      </trkpt>
      <trkpt lat="45.248782932758331298828125" lon="-71.1469652317464351654052734375">
        <ele>806.5999755859375</ele>
        <time>2026-08-22T03:00:40.000Z</time>
        <extensions>
          <ns3:TrackPointExtension>
            <ns3:hr>110</ns3:hr>
            <ns3:cad>72</ns3:cad>
          </ns3:TrackPointExtension>
        </extensions>
      </trkpt>
      <trkpt lat="45.24879030883312225341796875" lon="-71.1469897069036960601806640625">
        <ele>806.4000244140625</ele>
        <time>2026-08-22T03:00:41.000Z</time>
        <extensions>
          <ns3:TrackPointExtension>
            <ns3:hr>111</ns3:hr>
            <ns3:cad>72</ns3:cad>
          </ns3:TrackPointExtension>
        </extensions>
      </trkpt>
      <trkpt lat="45.24879743345081806182861328125" lon="-71.14700655452907085418701171875">
        <ele>806.20001220703125</ele>
        <time>2026-08-22T03:00:42.000Z</time>
        <extensions>
          <ns3:TrackPointExtension>
            <ns3:hr>111</ns3:hr>
            <ns3:cad>73</ns3:cad>
          </ns3:TrackPointExtension>
        </extensions>
      </trkpt>
      <trkpt lat="45.24880413897335529327392578125" lon="-71.14703086204826831817626953125">
        <ele>805.79998779296875</ele>
        <time>2026-08-22T03:00:43.000Z</time>
        <extensions>
          <ns3:TrackPointExtension>
            <ns3:hr>111</ns3:hr>
            <ns3:cad>73</ns3:cad>
          </ns3:TrackPointExtension>
        </extensions>
      </trkpt>
      <trkpt lat="45.2488089166581630706787109375" lon="-71.14705793559551239013671875">
        <ele>805.5999755859375</ele>
        <time>2026-08-22T03:00:44.000Z</time>
        <extensions>
          <ns3:TrackPointExtension>
            <ns3:hr>111</ns3:hr>
            <ns3:cad>70</ns3:cad>
          </ns3:TrackPointExtension>
        </extensions>
      </trkpt>
      <trkpt lat="45.2488129399716854095458984375" lon="-71.14707394503057003021240234375">
        <ele>805.4000244140625</ele>
        <time>2026-08-22T03:00:45.000Z</time>
        <extensions>
          <ns3:TrackPointExtension>
            <ns3:hr>112</ns3:hr>
            <ns3:cad>68</ns3:cad>
          </ns3:TrackPointExtension>
        </extensions>
      </trkpt>
      <trkpt lat="45.24881981313228607177734375" lon="-71.147097162902355194091796875">
        <ele>805.20001220703125</ele>
        <time>2026-08-22T03:00:46.000Z</time>
        <extensions>
          <ns3:TrackPointExtension>
            <ns3:hr>112</ns3:hr>
            <ns3:cad>68</ns3:cad>
          </ns3:TrackPointExtension>
        </extensions>
      </trkpt>
      <trkpt lat="45.24882123805582523345947265625" lon="-71.14711551927030086517333984375">
        <ele>805.20001220703125</ele>
        <time>2026-08-22T03:00:47.000Z</time>
        <extensions>
          <ns3:TrackPointExtension>
            <ns3:hr>113</ns3:hr>
            <ns3:cad>68</ns3:cad>
          </ns3:TrackPointExtension>
        </extensions>
      </trkpt>
      <trkpt lat="45.248824842274188995361328125" lon="-71.147134713828563690185546875">
        <ele>805.20001220703125</ele>
        <time>2026-08-22T03:00:48.000Z</time>
        <extensions>
          <ns3:TrackPointExtension>
            <ns3:hr>113</ns3:hr>
            <ns3:cad>68</ns3:cad>
          </ns3:TrackPointExtension>
        </extensions>
      </trkpt>
      <trkpt lat="45.24882995523512363433837890625" lon="-71.14715307019650936126708984375">
        <ele>805.20001220703125</ele>
        <time>2026-08-22T03:00:49.000Z</time>
        <extensions>
          <ns3:TrackPointExtension>
            <ns3:hr>113</ns3:hr>
            <ns3:cad>68</ns3:cad>
          </ns3:TrackPointExtension>
        </extensions>
      </trkpt>
      <trkpt lat="45.2488370798528194427490234375" lon="-71.14717218093574047088623046875">
        <ele>805.20001220703125</ele>
        <time>2026-08-22T03:00:50.000Z</time>
        <extensions>
          <ns3:TrackPointExtension>
            <ns3:hr>113</ns3:hr>
            <ns3:cad>68</ns3:cad>
          </ns3:TrackPointExtension>
        </extensions>
      </trkpt>
      <trkpt lat="45.24884395301342010498046875" lon="-71.1471989192068576812744140625">
        <ele>805</ele>
        <time>2026-08-22T03:00:51.000Z</time>
        <extensions>
          <ns3:TrackPointExtension>
            <ns3:hr>113</ns3:hr>
            <ns3:cad>0</ns3:cad>
          </ns3:TrackPointExtension>
        </extensions>
      </trkpt>
      <trkpt lat="45.248850993812084197998046875" lon="-71.14721777848899364471435546875">
        <ele>805</ele>
        <time>2026-08-22T03:00:52.000Z</time>
        <extensions>
          <ns3:TrackPointExtension>
            <ns3:hr>113</ns3:hr>
            <ns3:cad>0</ns3:cad>
          </ns3:TrackPointExtension>
        </extensions>
      </trkpt>
      <trkpt lat="45.2488582022488117218017578125" lon="-71.14723554812371730804443359375">
        <ele>805</ele>
        <time>2026-08-22T03:00:53.000Z</time>
        <extensions>
          <ns3:TrackPointExtension>
            <ns3:hr>113</ns3:hr>
            <ns3:cad>0</ns3:cad>
          </ns3:TrackPointExtension>
        </extensions>
      </trkpt>
      <trkpt lat="45.24887270294129848480224609375" lon="-71.14725247956812381744384765625">
        <ele>804.79998779296875</ele>
        <time>2026-08-22T03:00:54.000Z</time>
        <extensions>
          <ns3:TrackPointExtension>
            <ns3:hr>113</ns3:hr>
            <ns3:cad>0</ns3:cad>
          </ns3:TrackPointExtension>
        </extensions>
      </trkpt>
      <trkpt lat="45.24888510815799236297607421875" lon="-71.14726890809834003448486328125">
        <ele>804.5999755859375</ele>
        <time>2026-08-22T03:00:55.000Z</time>
        <extensions>
          <ns3:TrackPointExtension>
            <ns3:hr>113</ns3:hr>
            <ns3:cad>0</ns3:cad>
          </ns3:TrackPointExtension>
        </extensions>
      </trkpt>
      <trkpt lat="45.24889147840440273284912109375" lon="-71.14728768356144428253173828125">
        <ele>804.5999755859375</ele>
        <time>2026-08-22T03:00:56.000Z</time>
        <extensions>
          <ns3:TrackPointExtension>
            <ns3:hr>113</ns3:hr>
            <ns3:cad>0</ns3:cad>
          </ns3:TrackPointExtension>
        </extensions>
      </trkpt>
      <trkpt lat="45.248899273574352264404296875" lon="-71.1472981609404087066650390625">
        <ele>804.4000244140625</ele>
        <time>2026-08-22T03:00:57.000Z</time>
        <extensions>
          <ns3:TrackPointExtension>
            <ns3:hr>113</ns3:hr>
            <ns3:cad>0</ns3:cad>
          </ns3:TrackPointExtension>
        </extensions>
      </trkpt>
      <trkpt lat="45.24890991859138011932373046875" lon="-71.14730914123356342315673828125">
        <ele>804.20001220703125</ele>
        <time>2026-08-22T03:00:58.000Z</time>
        <extensions>
          <ns3:TrackPointExtension>
            <ns3:hr>112</ns3:hr>
            <ns3:cad>0</ns3:cad>
          </ns3:TrackPointExtension>
        </extensions>
      </trkpt>
      <trkpt lat="45.24891846813261508941650390625" lon="-71.14732204936444759368896484375">
        <ele>804</ele>
        <time>2026-08-22T03:00:59.000Z</time>
        <extensions>
          <ns3:TrackPointExtension>
            <ns3:hr>112</ns3:hr>
            <ns3:cad>0</ns3:cad>
          </ns3:TrackPointExtension>
        </extensions>
      </trkpt>
      <trkpt lat="45.24893087334930896759033203125" lon="-71.14734216593205928802490234375">
        <ele>804</ele>
        <time>2026-08-22T03:01:00.000Z</time>
        <extensions>
          <ns3:TrackPointExtension>
            <ns3:hr>112</ns3:hr>
            <ns3:cad>0</ns3:cad>
          </ns3:TrackPointExtension>
        </extensions>
      </trkpt>
      <trkpt lat="45.248944200575351715087890625" lon="-71.14735834300518035888671875">
        <ele>803.79998779296875</ele>
        <time>2026-08-22T03:01:01.000Z</time>
        <extensions>
          <ns3:TrackPointExtension>
            <ns3:hr>112</ns3:hr>
            <ns3:cad>0</ns3:cad>
          </ns3:TrackPointExtension>
        </extensions>
      </trkpt>
      <trkpt lat="45.2489550970494747161865234375" lon="-71.14736731164157390594482421875">
        <ele>803.5999755859375</ele>
        <time>2026-08-22T03:01:02.000Z</time>
        <extensions>
          <ns3:TrackPointExtension>
            <ns3:hr>112</ns3:hr>
            <ns3:cad>0</ns3:cad>
          </ns3:TrackPointExtension>
        </extensions>
      </trkpt>
      <trkpt lat="45.24896473623812198638916015625" lon="-71.1473806388676166534423828125">
        <ele>803.5999755859375</ele>
        <time>2026-08-22T03:01:03.000Z</time>
        <extensions>
          <ns3:TrackPointExtension>
            <ns3:hr>112</ns3:hr>
            <ns3:cad>60</ns3:cad>
          </ns3:TrackPointExtension>
        </extensions>
      </trkpt>
      <trkpt lat="45.248973704874515533447265625" lon="-71.14739329554140567779541015625">
        <ele>803.4000244140625</ele>
        <time>2026-08-22T03:01:04.000Z</time>
        <extensions>
          <ns3:TrackPointExtension>
            <ns3:hr>112</ns3:hr>
            <ns3:cad>60</ns3:cad>
          </ns3:TrackPointExtension>
        </extensions>
      </trkpt>
      <trkpt lat="45.24898736737668514251708984375" lon="-71.14740519784390926361083984375">
        <ele>803.4000244140625</ele>
        <time>2026-08-22T03:01:05.000Z</time>
        <extensions>
          <ns3:TrackPointExtension>
            <ns3:hr>111</ns3:hr>
            <ns3:cad>60</ns3:cad>
          </ns3:TrackPointExtension>
        </extensions>
      </trkpt>
      <trkpt lat="45.24900027550756931304931640625" lon="-71.14741341210901737213134765625">
        <ele>803.4000244140625</ele>
        <time>2026-08-22T03:01:06.000Z</time>
        <extensions>
          <ns3:TrackPointExtension>
            <ns3:hr>112</ns3:hr>
            <ns3:cad>60</ns3:cad>
          </ns3:TrackPointExtension>
        </extensions>
      </trkpt>
      <trkpt lat="45.24901284836232662200927734375" lon="-71.1474161781370639801025390625">
        <ele>803.20001220703125</ele>
        <time>2026-08-22T03:01:07.000Z</time>
        <extensions>
          <ns3:TrackPointExtension>
            <ns3:hr>112</ns3:hr>
            <ns3:cad>60</ns3:cad>
          </ns3:TrackPointExtension>
        </extensions>
      </trkpt>
      <trkpt lat="45.2490214817225933074951171875" lon="-71.14741961471736431121826171875">
        <ele>803</ele>
        <time>2026-08-22T03:01:08.000Z</time>
        <extensions>
          <ns3:TrackPointExtension>
            <ns3:hr>113</ns3:hr>
            <ns3:cad>0</ns3:cad>
          </ns3:TrackPointExtension>
        </extensions>
      </trkpt>
      <trkpt lat="45.24902927689254283905029296875" lon="-71.14742933772504329681396484375">
        <ele>802.79998779296875</ele>
        <time>2026-08-22T03:01:09.000Z</time>
        <extensions>
          <ns3:TrackPointExtension>
            <ns3:hr>114</ns3:hr>
            <ns3:cad>0</ns3:cad>
          </ns3:TrackPointExtension>
        </extensions>
      </trkpt>
      <trkpt lat="45.2490369044244289398193359375" lon="-71.14744040183722972869873046875">
        <ele>802.4000244140625</ele>
        <time>2026-08-22T03:01:10.000Z</time>
        <extensions>
          <ns3:TrackPointExtension>
            <ns3:hr>115</ns3:hr>
            <ns3:cad>0</ns3:cad>
          </ns3:TrackPointExtension>
        </extensions>
      </trkpt>
      <trkpt lat="45.24904721416532993316650390625" lon="-71.14745649509131908416748046875">
        <ele>802.20001220703125</ele>
        <time>2026-08-22T03:01:11.000Z</time>
        <extensions>
          <ns3:TrackPointExtension>
            <ns3:hr>115</ns3:hr>
            <ns3:cad>0</ns3:cad>
          </ns3:TrackPointExtension>
        </extensions>
      </trkpt>
      <trkpt lat="45.24905827827751636505126953125" lon="-71.14746018312871456146240234375">
        <ele>802</ele>
        <time>2026-08-22T03:01:12.000Z</time>
        <extensions>
          <ns3:TrackPointExtension>
            <ns3:hr>116</ns3:hr>
            <ns3:cad>0</ns3:cad>
          </ns3:TrackPointExtension>
        </extensions>
      </trkpt>
      <trkpt lat="45.24907118640840053558349609375" lon="-71.14746806211769580841064453125">
        <ele>801.79998779296875</ele>
        <time>2026-08-22T03:01:13.000Z</time>
        <extensions>
          <ns3:TrackPointExtension>
            <ns3:hr>116</ns3:hr>
            <ns3:cad>50</ns3:cad>
          </ns3:TrackPointExtension>
        </extensions>
      </trkpt>
      <trkpt lat="45.24908535182476043701171875" lon="-71.147476695477962493896484375">
        <ele>801.4000244140625</ele>
        <time>2026-08-22T03:01:14.000Z</time>
        <extensions>
          <ns3:TrackPointExtension>
            <ns3:hr>115</ns3:hr>
            <ns3:cad>50</ns3:cad>
          </ns3:TrackPointExtension>
        </extensions>
      </trkpt>
      <trkpt lat="45.24909951724112033843994140625" lon="-71.147476024925708770751953125">
        <ele>801.20001220703125</ele>
        <time>2026-08-22T03:01:15.000Z</time>
        <extensions>
          <ns3:TrackPointExtension>
            <ns3:hr>115</ns3:hr>
            <ns3:cad>50</ns3:cad>
          </ns3:TrackPointExtension>
        </extensions>
      </trkpt>
      <trkpt lat="45.24910840205848217010498046875" lon="-71.147472001612186431884765625">
        <ele>800.79998779296875</ele>
        <time>2026-08-22T03:01:16.000Z</time>
        <extensions>
          <ns3:TrackPointExtension>
            <ns3:hr>115</ns3:hr>
            <ns3:cad>50</ns3:cad>
          </ns3:TrackPointExtension>
        </extensions>
      </trkpt>
      <trkpt lat="45.24911477230489253997802734375" lon="-71.147473342716693878173828125">
        <ele>800.4000244140625</ele>
        <time>2026-08-22T03:01:17.000Z</time>
        <extensions>
          <ns3:TrackPointExtension>
            <ns3:hr>116</ns3:hr>
            <ns3:cad>50</ns3:cad>
          </ns3:TrackPointExtension>
        </extensions>
      </trkpt>
      <trkpt lat="45.249126590788364410400390625" lon="-71.14747895859181880950927734375">
        <ele>799.79998779296875</ele>
        <time>2026-08-22T03:01:18.000Z</time>
        <extensions>
          <ns3:TrackPointExtension>
            <ns3:hr>115</ns3:hr>
            <ns3:cad>50</ns3:cad>
          </ns3:TrackPointExtension>
        </extensions>
      </trkpt>
      <trkpt lat="45.24914159439504146575927734375" lon="-71.1474785394966602325439453125">
        <ele>799.4000244140625</ele>
        <time>2026-08-22T03:01:19.000Z</time>
        <extensions>
          <ns3:TrackPointExtension>
            <ns3:hr>115</ns3:hr>
            <ns3:cad>50</ns3:cad>
          </ns3:TrackPointExtension>
        </extensions>
      </trkpt>
      <trkpt lat="45.24915752001106739044189453125" lon="-71.14747233688831329345703125">
        <ele>799.20001220703125</ele>
        <time>2026-08-22T03:01:20.000Z</time>
        <extensions>
          <ns3:TrackPointExtension>
            <ns3:hr>114</ns3:hr>
            <ns3:cad>68</ns3:cad>
          </ns3:TrackPointExtension>
        </extensions>
      </trkpt>
      <trkpt lat="45.24917042814195156097412109375" lon="-71.1474622786045074462890625">
        <ele>798.79998779296875</ele>
        <time>2026-08-22T03:01:21.000Z</time>
        <extensions>
          <ns3:TrackPointExtension>
            <ns3:hr>114</ns3:hr>
            <ns3:cad>68</ns3:cad>
          </ns3:TrackPointExtension>
        </extensions>
      </trkpt>
      <trkpt lat="45.24918098933994770050048828125" lon="-71.14744844846427440643310546875">
        <ele>798.5999755859375</ele>
        <time>2026-08-22T03:01:22.000Z</time>
        <extensions>
          <ns3:TrackPointExtension>
            <ns3:hr>113</ns3:hr>
            <ns3:cad>45</ns3:cad>
          </ns3:TrackPointExtension>
        </extensions>
      </trkpt>
      <trkpt lat="45.2491934783756732940673828125" lon="-71.14743570797145366668701171875">
        <ele>798.4000244140625</ele>
        <time>2026-08-22T03:01:23.000Z</time>
        <extensions>
          <ns3:TrackPointExtension>
            <ns3:hr>113</ns3:hr>
            <ns3:cad>45</ns3:cad>
          </ns3:TrackPointExtension>
        </extensions>
      </trkpt>
      <trkpt lat="45.24920605123043060302734375" lon="-71.1474198661744594573974609375">
        <ele>798</ele>
        <time>2026-08-22T03:01:24.000Z</time>
        <extensions>
          <ns3:TrackPointExtension>
            <ns3:hr>113</ns3:hr>
            <ns3:cad>45</ns3:cad>
          </ns3:TrackPointExtension>
        </extensions>
      </trkpt>
      <trkpt lat="45.2492162771522998809814453125" lon="-71.14740737713873386383056640625">
        <ele>797.79998779296875</ele>
        <time>2026-08-22T03:01:25.000Z</time>
        <extensions>
          <ns3:TrackPointExtension>
            <ns3:hr>113</ns3:hr>
            <ns3:cad>45</ns3:cad>
          </ns3:TrackPointExtension>
        </extensions>
      </trkpt>
      <trkpt lat="45.24922541342675685882568359375" lon="-71.14738793112337589263916015625">
        <ele>797.5999755859375</ele>
        <time>2026-08-22T03:01:26.000Z</time>
        <extensions>
          <ns3:TrackPointExtension>
            <ns3:hr>113</ns3:hr>
            <ns3:cad>45</ns3:cad>
          </ns3:TrackPointExtension>
        </extensions>
      </trkpt>
      <trkpt lat="45.24923647753894329071044921875" lon="-71.14736814983189105987548828125">
        <ele>797.4000244140625</ele>
        <time>2026-08-22T03:01:27.000Z</time>
        <extensions>
          <ns3:TrackPointExtension>
            <ns3:hr>112</ns3:hr>
            <ns3:cad>45</ns3:cad>
          </ns3:TrackPointExtension>
        </extensions>
      </trkpt>
      <trkpt lat="45.24924972094595432281494140625" lon="-71.14735088311135768890380859375">
        <ele>797</ele>
        <time>2026-08-22T03:01:28.000Z</time>
        <extensions>
          <ns3:TrackPointExtension>
            <ns3:hr>113</ns3:hr>
            <ns3:cad>45</ns3:cad>
          </ns3:TrackPointExtension>
        </extensions>
      </trkpt>
      <trkpt lat="45.24926313199102878570556640625" lon="-71.1473273299634456634521484375">
        <ele>796.79998779296875</ele>
        <time>2026-08-22T03:01:29.000Z</time>
        <extensions>
          <ns3:TrackPointExtension>
            <ns3:hr>113</ns3:hr>
            <ns3:cad>45</ns3:cad>
          </ns3:TrackPointExtension>
        </extensions>
      </trkpt>
      <trkpt lat="45.24927218444645404815673828125" lon="-71.1473155952990055084228515625">
        <ele>796.5999755859375</ele>
        <time>2026-08-22T03:01:30.000Z</time>
        <extensions>
          <ns3:TrackPointExtension>
            <ns3:hr>112</ns3:hr>
            <ns3:cad>45</ns3:cad>
          </ns3:TrackPointExtension>
        </extensions>
      </trkpt>
      <trkpt lat="45.24928391911089420318603515625" lon="-71.14730712957680225372314453125">
        <ele>796.4000244140625</ele>
        <time>2026-08-22T03:01:31.000Z</time>
        <extensions>
          <ns3:TrackPointExtension>
            <ns3:hr>112</ns3:hr>
            <ns3:cad>45</ns3:cad>
          </ns3:TrackPointExtension>
        </extensions>
      </trkpt>
      <trkpt lat="45.2492920495569705963134765625" lon="-71.14730411209166049957275390625">
        <ele>796</ele>
        <time>2026-08-22T03:01:32.000Z</time>
        <extensions>
          <ns3:TrackPointExtension>
            <ns3:hr>112</ns3:hr>
            <ns3:cad>67</ns3:cad>
          </ns3:TrackPointExtension>
        </extensions>
      </trkpt>
      <trkpt lat="45.2493007667362689971923828125" lon="-71.1473078839480876922607421875">
        <ele>795.79998779296875</ele>
        <time>2026-08-22T03:01:33.000Z</time>
        <extensions>
          <ns3:TrackPointExtension>
            <ns3:hr>113</ns3:hr>
            <ns3:cad>67</ns3:cad>
          </ns3:TrackPointExtension>
        </extensions>
      </trkpt>
      <trkpt lat="45.24930638261139392852783203125" lon="-71.1473105661571025848388671875">
        <ele>795.79998779296875</ele>
        <time>2026-08-22T03:01:34.000Z</time>
        <extensions>
          <ns3:TrackPointExtension>
            <ns3:hr>113</ns3:hr>
            <ns3:cad>67</ns3:cad>
          </ns3:TrackPointExtension>
        </extensions>
      </trkpt>
      <trkpt lat="45.24931442923843860626220703125" lon="-71.14731031470000743865966796875">
        <ele>795.4000244140625</ele>
        <time>2026-08-22T03:01:35.000Z</time>
        <extensions>
          <ns3:TrackPointExtension>
            <ns3:hr>113</ns3:hr>
            <ns3:cad>67</ns3:cad>
          </ns3:TrackPointExtension>
        </extensions>
      </trkpt>
      <trkpt lat="45.24932130239903926849365234375" lon="-71.147313080728054046630859375">
        <ele>795.20001220703125</ele>
        <time>2026-08-22T03:01:36.000Z</time>
        <extensions>
          <ns3:TrackPointExtension>
            <ns3:hr>113</ns3:hr>
            <ns3:cad>67</ns3:cad>
          </ns3:TrackPointExtension>
        </extensions>
      </trkpt>
      <trkpt lat="45.24932540953159332275390625" lon="-71.14731752313673496246337890625">
        <ele>795</ele>
        <time>2026-08-22T03:01:37.000Z</time>
        <extensions>
          <ns3:TrackPointExtension>
            <ns3:hr>113</ns3:hr>
            <ns3:cad>0</ns3:cad>
          </ns3:TrackPointExtension>
        </extensions>
      </trkpt>
      <trkpt lat="45.249333791434764862060546875" lon="-71.14732422865927219390869140625">
        <ele>794.5999755859375</ele>
        <time>2026-08-22T03:01:38.000Z</time>
        <extensions>
          <ns3:TrackPointExtension>
            <ns3:hr>113</ns3:hr>
            <ns3:cad>0</ns3:cad>
          </ns3:TrackPointExtension>
        </extensions>
      </trkpt>
      <trkpt lat="45.24934074841439723968505859375" lon="-71.14733043126761913299560546875">
        <ele>794.20001220703125</ele>
        <time>2026-08-22T03:01:39.000Z</time>
        <extensions>
          <ns3:TrackPointExtension>
            <ns3:hr>113</ns3:hr>
            <ns3:cad>0</ns3:cad>
          </ns3:TrackPointExtension>
        </extensions>
      </trkpt>
      <trkpt lat="45.249354578554630279541015625" lon="-71.1473362147808074951171875">
        <ele>793.79998779296875</ele>
        <time>2026-08-22T03:01:40.000Z</time>
        <extensions>
          <ns3:TrackPointExtension>
            <ns3:hr>113</ns3:hr>
            <ns3:cad>0</ns3:cad>
          </ns3:TrackPointExtension>
        </extensions>
      </trkpt>
      <trkpt lat="45.249366648495197296142578125" lon="-71.14734233357012271881103515625">
        <ele>793.4000244140625</ele>
        <time>2026-08-22T03:01:41.000Z</time>
        <extensions>
          <ns3:TrackPointExtension>
            <ns3:hr>114</ns3:hr>
            <ns3:cad>0</ns3:cad>
          </ns3:TrackPointExtension>
        </extensions>
      </trkpt>
      <trkpt lat="45.24937494657933712005615234375" lon="-71.14734853617846965789794921875">
        <ele>792.79998779296875</ele>
        <time>2026-08-22T03:01:42.000Z</time>
        <extensions>
          <ns3:TrackPointExtension>
            <ns3:hr>113</ns3:hr>
            <ns3:cad>72</ns3:cad>
          </ns3:TrackPointExtension>
        </extensions>
      </trkpt>
      <trkpt lat="45.24938550777733325958251953125" lon="-71.147359348833560943603515625">
        <ele>792.4000244140625</ele>
        <time>2026-08-22T03:01:43.000Z</time>
        <extensions>
          <ns3:TrackPointExtension>
            <ns3:hr>113</ns3:hr>
            <ns3:cad>72</ns3:cad>
          </ns3:TrackPointExtension>
        </extensions>
      </trkpt>
      <trkpt lat="45.24939573369920253753662109375" lon="-71.14737250842154026031494140625">
        <ele>792</ele>
        <time>2026-08-22T03:01:44.000Z</time>
        <extensions>
          <ns3:TrackPointExtension>
            <ns3:hr>112</ns3:hr>
            <ns3:cad>72</ns3:cad>
          </ns3:TrackPointExtension>
        </extensions>
      </trkpt>
      <trkpt lat="45.24940378032624721527099609375" lon="-71.14738642238080501556396484375">
        <ele>791.5999755859375</ele>
        <time>2026-08-22T03:01:45.000Z</time>
        <extensions>
          <ns3:TrackPointExtension>
            <ns3:hr>112</ns3:hr>
            <ns3:cad>72</ns3:cad>
          </ns3:TrackPointExtension>
        </extensions>
      </trkpt>
      <trkpt lat="45.24941258132457733154296875" lon="-71.14739723503589630126953125">
        <ele>791</ele>
        <time>2026-08-22T03:01:46.000Z</time>
        <extensions>
          <ns3:TrackPointExtension>
            <ns3:hr>112</ns3:hr>
            <ns3:cad>79</ns3:cad>
          </ns3:TrackPointExtension>
        </extensions>
      </trkpt>
      <trkpt lat="45.24942205287516117095947265625" lon="-71.14741039462387561798095703125">
        <ele>790.79998779296875</ele>
        <time>2026-08-22T03:01:47.000Z</time>
        <extensions>
          <ns3:TrackPointExtension>
            <ns3:hr>112</ns3:hr>
            <ns3:cad>79</ns3:cad>
          </ns3:TrackPointExtension>
        </extensions>
      </trkpt>
      <trkpt lat="45.24943144060671329498291015625" lon="-71.14742263220250606536865234375">
        <ele>790.4000244140625</ele>
        <time>2026-08-22T03:01:48.000Z</time>
        <extensions>
          <ns3:TrackPointExtension>
            <ns3:hr>112</ns3:hr>
            <ns3:cad>79</ns3:cad>
          </ns3:TrackPointExtension>
        </extensions>
      </trkpt>
      <trkpt lat="45.2494429238140583038330078125" lon="-71.14744191057980060577392578125">
        <ele>790.20001220703125</ele>
        <time>2026-08-22T03:01:49.000Z</time>
        <extensions>
          <ns3:TrackPointExtension>
            <ns3:hr>112</ns3:hr>
            <ns3:cad>79</ns3:cad>
          </ns3:TrackPointExtension>
        </extensions>
      </trkpt>
      <trkpt lat="45.24945641867816448211669921875" lon="-71.14745716564357280731201171875">
        <ele>789.79998779296875</ele>
        <time>2026-08-22T03:01:50.000Z</time>
        <extensions>
          <ns3:TrackPointExtension>
            <ns3:hr>112</ns3:hr>
            <ns3:cad>79</ns3:cad>
          </ns3:TrackPointExtension>
        </extensions>
      </trkpt>
      <trkpt lat="45.24946832098066806793212890625" lon="-71.1474688164889812469482421875">
        <ele>789.4000244140625</ele>
        <time>2026-08-22T03:01:51.000Z</time>
        <extensions>
          <ns3:TrackPointExtension>
            <ns3:hr>112</ns3:hr>
            <ns3:cad>79</ns3:cad>
          </ns3:TrackPointExtension>
        </extensions>
      </trkpt>
      <trkpt lat="45.24947904981672763824462890625" lon="-71.14747367799282073974609375">
        <ele>789.20001220703125</ele>
        <time>2026-08-22T03:01:52.000Z</time>
        <extensions>
          <ns3:TrackPointExtension>
            <ns3:hr>113</ns3:hr>
            <ns3:cad>79</ns3:cad>
          </ns3:TrackPointExtension>
        </extensions>
      </trkpt>
      <trkpt lat="45.24949095211923122406005859375" lon="-71.147482730448246002197265625">
        <ele>788.79998779296875</ele>
        <time>2026-08-22T03:01:53.000Z</time>
        <extensions>
          <ns3:TrackPointExtension>
            <ns3:hr>113</ns3:hr>
            <ns3:cad>79</ns3:cad>
          </ns3:TrackPointExtension>
        </extensions>
      </trkpt>
      <trkpt lat="45.24949816055595874786376953125" lon="-71.14748616702854633331298828125">
        <ele>788.5999755859375</ele>
        <time>2026-08-22T03:01:54.000Z</time>
        <extensions>
          <ns3:TrackPointExtension>
            <ns3:hr>113</ns3:hr>
            <ns3:cad>79</ns3:cad>
          </ns3:TrackPointExtension>
        </extensions>
      </trkpt>
      <trkpt lat="45.24949983693659305572509765625" lon="-71.147484071552753448486328125">
        <ele>788.4000244140625</ele>
        <time>2026-08-22T03:01:55.000Z</time>
        <extensions>
          <ns3:TrackPointExtension>
            <ns3:hr>113</ns3:hr>
            <ns3:cad>79</ns3:cad>
          </ns3:TrackPointExtension>
        </extensions>
      </trkpt>
      <trkpt lat="45.24949564598500728607177734375" lon="-71.14748013205826282501220703125">
        <ele>788.4000244140625</ele>
        <time>2026-08-22T03:01:56.000Z</time>
        <extensions>
          <ns3:TrackPointExtension>
            <ns3:hr>114</ns3:hr>
            <ns3:cad>0</ns3:cad>
          </ns3:TrackPointExtension>
        </extensions>
      </trkpt>
      <trkpt lat="45.2495049498975276947021484375" lon="-71.14749773405492305755615234375">
        <ele>788.20001220703125</ele>
        <time>2026-08-22T03:01:57.000Z</time>
        <extensions>
          <ns3:TrackPointExtension>
            <ns3:hr>114</ns3:hr>
            <ns3:cad>0</ns3:cad>
          </ns3:TrackPointExtension>
        </extensions>
      </trkpt>
      <trkpt lat="45.24950654245913028717041015625" lon="-71.1475060321390628814697265625">
        <ele>788.4000244140625</ele>
        <time>2026-08-22T03:01:58.000Z</time>
        <extensions>
          <ns3:TrackPointExtension>
            <ns3:hr>114</ns3:hr>
            <ns3:cad>0</ns3:cad>
          </ns3:TrackPointExtension>
        </extensions>
      </trkpt>
      <trkpt lat="45.24951106868684291839599609375" lon="-71.147516258060932159423828125">
        <ele>788.4000244140625</ele>
        <time>2026-08-22T03:01:59.000Z</time>
        <extensions>
          <ns3:TrackPointExtension>
            <ns3:hr>114</ns3:hr>
            <ns3:cad>0</ns3:cad>
          </ns3:TrackPointExtension>
        </extensions>
      </trkpt>
      <trkpt lat="45.24951777420938014984130859375" lon="-71.14753746427595615386962890625">
        <ele>788.4000244140625</ele>
        <time>2026-08-22T03:02:00.000Z</time>
        <extensions>
          <ns3:TrackPointExtension>
            <ns3:hr>114</ns3:hr>
            <ns3:cad>0</ns3:cad>
          </ns3:TrackPointExtension>
        </extensions>
      </trkpt>
      <trkpt lat="45.24952313862740993499755859375" lon="-71.14754551090300083160400390625">
        <ele>788.4000244140625</ele>
        <time>2026-08-22T03:02:01.000Z</time>
        <extensions>
          <ns3:TrackPointExtension>
            <ns3:hr>114</ns3:hr>
            <ns3:cad>0</ns3:cad>
          </ns3:TrackPointExtension>
        </extensions>
      </trkpt>
      <trkpt lat="45.249534957110881805419921875" lon="-71.14756328053772449493408203125">
        <ele>788.4000244140625</ele>
        <time>2026-08-22T03:02:02.000Z</time>
        <extensions>
          <ns3:TrackPointExtension>
            <ns3:hr>114</ns3:hr>
            <ns3:cad>0</ns3:cad>
          </ns3:TrackPointExtension>
        </extensions>
      </trkpt>
      <trkpt lat="45.24954291991889476776123046875" lon="-71.14757183007895946502685546875">
        <ele>788.20001220703125</ele>
        <time>2026-08-22T03:02:03.000Z</time>
        <extensions>
          <ns3:TrackPointExtension>
            <ns3:hr>113</ns3:hr>
            <ns3:cad>44</ns3:cad>
          </ns3:TrackPointExtension>
        </extensions>
      </trkpt>
      <trkpt lat="45.24955247528851032257080078125" lon="-71.147587336599826812744140625">
        <ele>788</ele>
        <time>2026-08-22T03:02:04.000Z</time>
        <extensions>
          <ns3:TrackPointExtension>
            <ns3:hr>113</ns3:hr>
            <ns3:cad>44</ns3:cad>
          </ns3:TrackPointExtension>
        </extensions>
      </trkpt>
      <trkpt lat="45.24956278502941131591796875" lon="-71.147598065435886383056640625">
        <ele>788</ele>
        <time>2026-08-22T03:02:05.000Z</time>
        <extensions>
          <ns3:TrackPointExtension>
            <ns3:hr>113</ns3:hr>
            <ns3:cad>44</ns3:cad>
          </ns3:TrackPointExtension>
        </extensions>
      </trkpt>
      <trkpt lat="45.249572508037090301513671875" lon="-71.14760418422520160675048828125">
        <ele>787.79998779296875</ele>
        <time>2026-08-22T03:02:06.000Z</time>
        <extensions>
          <ns3:TrackPointExtension>
            <ns3:hr>113</ns3:hr>
            <ns3:cad>44</ns3:cad>
          </ns3:TrackPointExtension>
        </extensions>
      </trkpt>
      <trkpt lat="45.24957728572189807891845703125" lon="-71.14760586060583591461181640625">
        <ele>787.79998779296875</ele>
        <time>2026-08-22T03:02:07.000Z</time>
        <extensions>
          <ns3:TrackPointExtension>
            <ns3:hr>112</ns3:hr>
            <ns3:cad>44</ns3:cad>
          </ns3:TrackPointExtension>
        </extensions>
      </trkpt>
      <trkpt lat="45.249588601291179656982421875" lon="-71.14761021919548511505126953125">
        <ele>787.79998779296875</ele>
        <time>2026-08-22T03:02:08.000Z</time>
        <extensions>
          <ns3:TrackPointExtension>
            <ns3:hr>112</ns3:hr>
            <ns3:cad>44</ns3:cad>
          </ns3:TrackPointExtension>
        </extensions>
      </trkpt>
      <trkpt lat="45.2495974861085414886474609375" lon="-71.147613488137722015380859375">
        <ele>787.5999755859375</ele>
        <time>2026-08-22T03:02:09.000Z</time>
        <extensions>
          <ns3:TrackPointExtension>
            <ns3:hr>112</ns3:hr>
            <ns3:cad>44</ns3:cad>
          </ns3:TrackPointExtension>
        </extensions>
      </trkpt>
      <trkpt lat="45.24960410781204700469970703125" lon="-71.147612147033214569091796875">
        <ele>787.5999755859375</ele>
        <time>2026-08-22T03:02:10.000Z</time>
        <extensions>
          <ns3:TrackPointExtension>
            <ns3:hr>112</ns3:hr>
            <ns3:cad>44</ns3:cad>
          </ns3:TrackPointExtension>
        </extensions>
      </trkpt>
      <trkpt lat="45.2496132440865039825439453125" lon="-71.14761943928897380828857421875">
        <ele>787.4000244140625</ele>
        <time>2026-08-22T03:02:11.000Z</time>
        <extensions>
          <ns3:TrackPointExtension>
            <ns3:hr>112</ns3:hr>
            <ns3:cad>44</ns3:cad>
          </ns3:TrackPointExtension>
        </extensions>
      </trkpt>
      <trkpt lat="45.24962321855127811431884765625" lon="-71.14762379787862300872802734375">
        <ele>787.4000244140625</ele>
        <time>2026-08-22T03:02:12.000Z</time>
        <extensions>
          <ns3:TrackPointExtension>
            <ns3:hr>112</ns3:hr>
            <ns3:cad>44</ns3:cad>
          </ns3:TrackPointExtension>
        </extensions>
      </trkpt>
      <trkpt lat="45.2496326901018619537353515625" lon="-71.147626228630542755126953125">
        <ele>787.20001220703125</ele>
        <time>2026-08-22T03:02:13.000Z</time>
        <extensions>
          <ns3:TrackPointExtension>
            <ns3:hr>112</ns3:hr>
            <ns3:cad>44</ns3:cad>
          </ns3:TrackPointExtension>
        </extensions>
      </trkpt>
      <trkpt lat="45.2496417425572872161865234375" lon="-71.14762681536376476287841796875">
        <ele>787.20001220703125</ele>
        <time>2026-08-22T03:02:14.000Z</time>
        <extensions>
          <ns3:TrackPointExtension>
            <ns3:hr>112</ns3:hr>
            <ns3:cad>44</ns3:cad>
          </ns3:TrackPointExtension>
        </extensions>
      </trkpt>
      <trkpt lat="45.24965138174593448638916015625" lon="-71.14763201214373111724853515625">
        <ele>787.20001220703125</ele>
        <time>2026-08-22T03:02:15.000Z</time>
        <extensions>
          <ns3:TrackPointExtension>
            <ns3:hr>112</ns3:hr>
            <ns3:cad>44</ns3:cad>
          </ns3:TrackPointExtension>
        </extensions>
      </trkpt>
      <trkpt lat="45.24965842254459857940673828125" lon="-71.14764575846493244171142578125">
        <ele>787</ele>
        <time>2026-08-22T03:02:16.000Z</time>
        <extensions>
          <ns3:TrackPointExtension>
            <ns3:hr>112</ns3:hr>
            <ns3:cad>44</ns3:cad>
          </ns3:TrackPointExtension>
        </extensions>
      </trkpt>
      <trkpt lat="45.249659679830074310302734375" lon="-71.147658415138721466064453125">
        <ele>786.79998779296875</ele>
        <time>2026-08-22T03:02:17.000Z</time>
        <extensions>
          <ns3:TrackPointExtension>
            <ns3:hr>113</ns3:hr>
            <ns3:cad>44</ns3:cad>
          </ns3:TrackPointExtension>
        </extensions>
      </trkpt>
      <trkpt lat="45.2496668882668018341064453125" lon="-71.14766771905124187469482421875">
        <ele>786.79998779296875</ele>
        <time>2026-08-22T03:02:18.000Z</time>
        <extensions>
          <ns3:TrackPointExtension>
            <ns3:hr>113</ns3:hr>
            <ns3:cad>44</ns3:cad>
          </ns3:TrackPointExtension>
        </extensions>
      </trkpt>
      <trkpt lat="45.249669738113880157470703125" lon="-71.14767258055508136749267578125">
        <ele>786.5999755859375</ele>
        <time>2026-08-22T03:02:19.000Z</time>
        <extensions>
          <ns3:TrackPointExtension>
            <ns3:hr>114</ns3:hr>
            <ns3:cad>44</ns3:cad>
          </ns3:TrackPointExtension>
        </extensions>
      </trkpt>
      <trkpt lat="45.24967786855995655059814453125" lon="-71.147681884467601776123046875">
        <ele>786.4000244140625</ele>
        <time>2026-08-22T03:02:20.000Z</time>
        <extensions>
          <ns3:TrackPointExtension>
            <ns3:hr>114</ns3:hr>
            <ns3:cad>46</ns3:cad>
          </ns3:TrackPointExtension>
        </extensions>
      </trkpt>
      <trkpt lat="45.24968725629150867462158203125" lon="-71.14769051782786846160888671875">
        <ele>786.20001220703125</ele>
        <time>2026-08-22T03:02:21.000Z</time>
        <extensions>
          <ns3:TrackPointExtension>
            <ns3:hr>115</ns3:hr>
            <ns3:cad>46</ns3:cad>
          </ns3:TrackPointExtension>
        </extensions>
      </trkpt>
      <trkpt lat="45.24969899095594882965087890625" lon="-71.147699989378452301025390625">
        <ele>786</ele>
        <time>2026-08-22T03:02:22.000Z</time>
        <extensions>
          <ns3:TrackPointExtension>
            <ns3:hr>115</ns3:hr>
            <ns3:cad>0</ns3:cad>
          </ns3:TrackPointExtension>
        </extensions>
      </trkpt>
      <trkpt lat="45.24970720522105693817138671875" lon="-71.14770560525357723236083984375">
        <ele>785.79998779296875</ele>
        <time>2026-08-22T03:02:23.000Z</time>
        <extensions>
          <ns3:TrackPointExtension>
            <ns3:hr>115</ns3:hr>
            <ns3:cad>0</ns3:cad>
          </ns3:TrackPointExtension>
        </extensions>
      </trkpt>
      <trkpt lat="45.24972028099000453948974609375" lon="-71.14771147258579730987548828125">
        <ele>785.5999755859375</ele>
        <time>2026-08-22T03:02:24.000Z</time>
        <extensions>
          <ns3:TrackPointExtension>
            <ns3:hr>115</ns3:hr>
            <ns3:cad>0</ns3:cad>
          </ns3:TrackPointExtension>
        </extensions>
      </trkpt>
      <trkpt lat="45.249732099473476409912109375" lon="-71.1477170884609222412109375">
        <ele>785.20001220703125</ele>
        <time>2026-08-22T03:02:25.000Z</time>
        <extensions>
          <ns3:TrackPointExtension>
            <ns3:hr>116</ns3:hr>
            <ns3:cad>75</ns3:cad>
          </ns3:TrackPointExtension>
        </extensions>
      </trkpt>
      <trkpt lat="45.24974609725177288055419921875" lon="-71.14772354252636432647705078125">
        <ele>784.79998779296875</ele>
        <time>2026-08-22T03:02:26.000Z</time>
        <extensions>
          <ns3:TrackPointExtension>
            <ns3:hr>116</ns3:hr>
            <ns3:cad>75</ns3:cad>
          </ns3:TrackPointExtension>
        </extensions>
      </trkpt>
      <trkpt lat="45.2497607655823230743408203125" lon="-71.1477306671440601348876953125">
        <ele>784.5999755859375</ele>
        <time>2026-08-22T03:02:27.000Z</time>
        <extensions>
          <ns3:TrackPointExtension>
            <ns3:hr>116</ns3:hr>
            <ns3:cad>75</ns3:cad>
          </ns3:TrackPointExtension>
        </extensions>
      </trkpt>
      <trkpt lat="45.2497728355228900909423828125" lon="-71.1477336846292018890380859375">
        <ele>784.20001220703125</ele>
        <time>2026-08-22T03:02:28.000Z</time>
        <extensions>
          <ns3:TrackPointExtension>
            <ns3:hr>117</ns3:hr>
            <ns3:cad>75</ns3:cad>
          </ns3:TrackPointExtension>
        </extensions>
      </trkpt>
      <trkpt lat="45.24979353882372379302978515625" lon="-71.14774365909397602081298828125">
        <ele>783.79998779296875</ele>
        <time>2026-08-22T03:02:29.000Z</time>
        <extensions>
          <ns3:TrackPointExtension>
            <ns3:hr>117</ns3:hr>
            <ns3:cad>75</ns3:cad>
          </ns3:TrackPointExtension>
        </extensions>
      </trkpt>
      <trkpt lat="45.249807871878147125244140625" lon="-71.1477521248161792755126953125">
        <ele>783.4000244140625</ele>
        <time>2026-08-22T03:02:30.000Z</time>
        <extensions>
          <ns3:TrackPointExtension>
            <ns3:hr>118</ns3:hr>
            <ns3:cad>75</ns3:cad>
          </ns3:TrackPointExtension>
        </extensions>
      </trkpt>
      <trkpt lat="45.24982404895126819610595703125" lon="-71.14775455556809902191162109375">
        <ele>783</ele>
        <time>2026-08-22T03:02:31.000Z</time>
        <extensions>
          <ns3:TrackPointExtension>
            <ns3:hr>119</ns3:hr>
            <ns3:cad>75</ns3:cad>
          </ns3:TrackPointExtension>
        </extensions>
      </trkpt>
      <trkpt lat="45.24983963929116725921630859375" lon="-71.14776193164288997650146484375">
        <ele>782.79998779296875</ele>
        <time>2026-08-22T03:02:32.000Z</time>
        <extensions>
          <ns3:TrackPointExtension>
            <ns3:hr>120</ns3:hr>
            <ns3:cad>75</ns3:cad>
          </ns3:TrackPointExtension>
        </extensions>
      </trkpt>
      <trkpt lat="45.24985087104141712188720703125" lon="-71.1477625183761119842529296875">
        <ele>782.4000244140625</ele>
        <time>2026-08-22T03:02:33.000Z</time>
        <extensions>
          <ns3:TrackPointExtension>
            <ns3:hr>120</ns3:hr>
            <ns3:cad>75</ns3:cad>
          </ns3:TrackPointExtension>
        </extensions>
      </trkpt>
      <trkpt lat="45.2498586662113666534423828125" lon="-71.147754304111003875732421875">
        <ele>782.20001220703125</ele>
        <time>2026-08-22T03:02:34.000Z</time>
        <extensions>
          <ns3:TrackPointExtension>
            <ns3:hr>121</ns3:hr>
            <ns3:cad>0</ns3:cad>
          </ns3:TrackPointExtension>
        </extensions>
      </trkpt>
      <trkpt lat="45.24986864067614078521728515625" lon="-71.147748939692974090576171875">
        <ele>782</ele>
        <time>2026-08-22T03:02:35.000Z</time>
        <extensions>
          <ns3:TrackPointExtension>
            <ns3:hr>121</ns3:hr>
            <ns3:cad>64</ns3:cad>
          </ns3:TrackPointExtension>
        </extensions>
      </trkpt>
      <trkpt lat="45.24987467564642429351806640625" lon="-71.14774198271334171295166015625">
        <ele>781.79998779296875</ele>
        <time>2026-08-22T03:02:36.000Z</time>
        <extensions>
          <ns3:TrackPointExtension>
            <ns3:hr>120</ns3:hr>
            <ns3:cad>64</ns3:cad>
          </ns3:TrackPointExtension>
        </extensions>
      </trkpt>
      <trkpt lat="45.249881632626056671142578125" lon="-71.1477380432188510894775390625">
        <ele>781.4000244140625</ele>
        <time>2026-08-22T03:02:37.000Z</time>
        <extensions>
          <ns3:TrackPointExtension>
            <ns3:hr>120</ns3:hr>
            <ns3:cad>64</ns3:cad>
          </ns3:TrackPointExtension>
        </extensions>
      </trkpt>
      <trkpt lat="45.24988741613924503326416015625" lon="-71.1477390490472316741943359375">
        <ele>781.20001220703125</ele>
        <time>2026-08-22T03:02:38.000Z</time>
        <extensions>
          <ns3:TrackPointExtension>
            <ns3:hr>120</ns3:hr>
            <ns3:cad>64</ns3:cad>
          </ns3:TrackPointExtension>
        </extensions>
      </trkpt>
      <trkpt lat="45.24988791905343532562255859375" lon="-71.147735528647899627685546875">
        <ele>781.20001220703125</ele>
        <time>2026-08-22T03:02:39.000Z</time>
        <extensions>
          <ns3:TrackPointExtension>
            <ns3:hr>120</ns3:hr>
            <ns3:cad>0</ns3:cad>
          </ns3:TrackPointExtension>
        </extensions>
      </trkpt>
      <trkpt lat="45.24989537894725799560546875" lon="-71.1477377079427242279052734375">
        <ele>781</ele>
        <time>2026-08-22T03:02:40.000Z</time>
        <extensions>
          <ns3:TrackPointExtension>
            <ns3:hr>120</ns3:hr>
            <ns3:cad>0</ns3:cad>
          </ns3:TrackPointExtension>
        </extensions>
      </trkpt>
      <trkpt lat="45.24990535341203212738037109375" lon="-71.14774164743721485137939453125">
        <ele>780.79998779296875</ele>
        <time>2026-08-22T03:02:41.000Z</time>
        <extensions>
          <ns3:TrackPointExtension>
            <ns3:hr>120</ns3:hr>
            <ns3:cad>0</ns3:cad>
          </ns3:TrackPointExtension>
        </extensions>
      </trkpt>
      <trkpt lat="45.24991289712488651275634765625" lon="-71.1477492749691009521484375">
        <ele>780.5999755859375</ele>
        <time>2026-08-22T03:02:42.000Z</time>
        <extensions>
          <ns3:TrackPointExtension>
            <ns3:hr>119</ns3:hr>
            <ns3:cad>0</ns3:cad>
          </ns3:TrackPointExtension>
        </extensions>
      </trkpt>
      <trkpt lat="45.24991859681904315948486328125" lon="-71.14775740541517734527587890625">
        <ele>780.20001220703125</ele>
        <time>2026-08-22T03:02:43.000Z</time>
        <extensions>
          <ns3:TrackPointExtension>
            <ns3:hr>119</ns3:hr>
            <ns3:cad>0</ns3:cad>
          </ns3:TrackPointExtension>
        </extensions>
      </trkpt>
      <trkpt lat="45.24993167258799076080322265625" lon="-71.14776947535574436187744140625">
        <ele>780</ele>
        <time>2026-08-22T03:02:44.000Z</time>
        <extensions>
          <ns3:TrackPointExtension>
            <ns3:hr>118</ns3:hr>
            <ns3:cad>0</ns3:cad>
          </ns3:TrackPointExtension>
        </extensions>
      </trkpt>
      <trkpt lat="45.249941647052764892578125" lon="-71.14778020419180393218994140625">
        <ele>779.79998779296875</ele>
        <time>2026-08-22T03:02:45.000Z</time>
        <extensions>
          <ns3:TrackPointExtension>
            <ns3:hr>118</ns3:hr>
            <ns3:cad>0</ns3:cad>
          </ns3:TrackPointExtension>
        </extensions>
      </trkpt>
      <trkpt lat="45.24995095096528530120849609375" lon="-71.14779462106525897979736328125">
        <ele>779.4000244140625</ele>
        <time>2026-08-22T03:02:46.000Z</time>
        <extensions>
          <ns3:TrackPointExtension>
            <ns3:hr>117</ns3:hr>
            <ns3:cad>0</ns3:cad>
          </ns3:TrackPointExtension>
        </extensions>
      </trkpt>
      <trkpt lat="45.24995505809783935546875" lon="-71.14780501462519168853759765625">
        <ele>779.20001220703125</ele>
        <time>2026-08-22T03:02:47.000Z</time>
        <extensions>
          <ns3:TrackPointExtension>
            <ns3:hr>117</ns3:hr>
            <ns3:cad>0</ns3:cad>
          </ns3:TrackPointExtension>
        </extensions>
      </trkpt>
      <trkpt lat="45.249964781105518341064453125" lon="-71.1478238739073276519775390625">
        <ele>779</ele>
        <time>2026-08-22T03:02:48.000Z</time>
        <extensions>
          <ns3:TrackPointExtension>
            <ns3:hr>117</ns3:hr>
            <ns3:cad>0</ns3:cad>
          </ns3:TrackPointExtension>
        </extensions>
      </trkpt>
      <trkpt lat="45.2499713189899921417236328125" lon="-71.14784038625657558441162109375">
        <ele>778.5999755859375</ele>
        <time>2026-08-22T03:02:49.000Z</time>
        <extensions>
          <ns3:TrackPointExtension>
            <ns3:hr>117</ns3:hr>
            <ns3:cad>0</ns3:cad>
          </ns3:TrackPointExtension>
        </extensions>
      </trkpt>
      <trkpt lat="45.24997509084641933441162109375" lon="-71.14785430021584033966064453125">
        <ele>778.4000244140625</ele>
        <time>2026-08-22T03:02:50.000Z</time>
        <extensions>
          <ns3:TrackPointExtension>
            <ns3:hr>117</ns3:hr>
            <ns3:cad>0</ns3:cad>
          </ns3:TrackPointExtension>
        </extensions>
      </trkpt>
      <trkpt lat="45.2499807067215442657470703125" lon="-71.1478718183934688568115234375">
        <ele>778</ele>
        <time>2026-08-22T03:02:51.000Z</time>
        <extensions>
          <ns3:TrackPointExtension>
            <ns3:hr>117</ns3:hr>
            <ns3:cad>0</ns3:cad>
          </ns3:TrackPointExtension>
        </extensions>
      </trkpt>
      <trkpt lat="45.2499885857105255126953125" lon="-71.1478869058191776275634765625">
        <ele>777.5999755859375</ele>
        <time>2026-08-22T03:02:52.000Z</time>
        <extensions>
          <ns3:TrackPointExtension>
            <ns3:hr>118</ns3:hr>
            <ns3:cad>0</ns3:cad>
          </ns3:TrackPointExtension>
        </extensions>
      </trkpt>
      <trkpt lat="45.25000224821269512176513671875" lon="-71.147896461188793182373046875">
        <ele>777.4000244140625</ele>
        <time>2026-08-22T03:02:53.000Z</time>
        <extensions>
          <ns3:TrackPointExtension>
            <ns3:hr>118</ns3:hr>
            <ns3:cad>0</ns3:cad>
          </ns3:TrackPointExtension>
        </extensions>
      </trkpt>
      <trkpt lat="45.25001130066812038421630859375" lon="-71.1479107104241847991943359375">
        <ele>777.20001220703125</ele>
        <time>2026-08-22T03:02:54.000Z</time>
        <extensions>
          <ns3:TrackPointExtension>
            <ns3:hr>118</ns3:hr>
            <ns3:cad>0</ns3:cad>
          </ns3:TrackPointExtension>
        </extensions>
      </trkpt>
      <trkpt lat="45.2500189282000064849853515625" lon="-71.14792604930698871612548828125">
        <ele>776.79998779296875</ele>
        <time>2026-08-22T03:02:55.000Z</time>
        <extensions>
          <ns3:TrackPointExtension>
            <ns3:hr>118</ns3:hr>
            <ns3:cad>0</ns3:cad>
          </ns3:TrackPointExtension>
        </extensions>
      </trkpt>
      <trkpt lat="45.250027813017368316650390625" lon="-71.14793644286692142486572265625">
        <ele>776.5999755859375</ele>
        <time>2026-08-22T03:02:56.000Z</time>
        <extensions>
          <ns3:TrackPointExtension>
            <ns3:hr>119</ns3:hr>
            <ns3:cad>0</ns3:cad>
          </ns3:TrackPointExtension>
        </extensions>
      </trkpt>
      <trkpt lat="45.2500383742153644561767578125" lon="-71.14794951863586902618408203125">
        <ele>776.4000244140625</ele>
        <time>2026-08-22T03:02:57.000Z</time>
        <extensions>
          <ns3:TrackPointExtension>
            <ns3:hr>119</ns3:hr>
            <ns3:cad>0</ns3:cad>
          </ns3:TrackPointExtension>
        </extensions>
      </trkpt>
      <trkpt lat="45.25004466064274311065673828125" lon="-71.14796628244221210479736328125">
        <ele>776</ele>
        <time>2026-08-22T03:02:58.000Z</time>
        <extensions>
          <ns3:TrackPointExtension>
            <ns3:hr>119</ns3:hr>
            <ns3:cad>0</ns3:cad>
          </ns3:TrackPointExtension>
        </extensions>
      </trkpt>
      <trkpt lat="45.2500504441559314727783203125" lon="-71.14797986112534999847412109375">
        <ele>775.5999755859375</ele>
        <time>2026-08-22T03:02:59.000Z</time>
        <extensions>
          <ns3:TrackPointExtension>
            <ns3:hr>118</ns3:hr>
            <ns3:cad>0</ns3:cad>
          </ns3:TrackPointExtension>
        </extensions>
      </trkpt>
      <trkpt lat="45.250057317316532135009765625" lon="-71.14799209870398044586181640625">
        <ele>775.20001220703125</ele>
        <time>2026-08-22T03:03:00.000Z</time>
        <extensions>
          <ns3:TrackPointExtension>
            <ns3:hr>118</ns3:hr>
            <ns3:cad>0</ns3:cad>
          </ns3:TrackPointExtension>
        </extensions>
      </trkpt>
      <trkpt lat="45.25006310082972049713134765625" lon="-71.14799930714070796966552734375">
        <ele>774.79998779296875</ele>
        <time>2026-08-22T03:03:01.000Z</time>
        <extensions>
          <ns3:TrackPointExtension>
            <ns3:hr>117</ns3:hr>
            <ns3:cad>0</ns3:cad>
          </ns3:TrackPointExtension>
        </extensions>
      </trkpt>
      <trkpt lat="45.25007014162838459014892578125" lon="-71.14801020361483097076416015625">
        <ele>774.4000244140625</ele>
        <time>2026-08-22T03:03:02.000Z</time>
        <extensions>
          <ns3:TrackPointExtension>
            <ns3:hr>116</ns3:hr>
            <ns3:cad>0</ns3:cad>
          </ns3:TrackPointExtension>
        </extensions>
      </trkpt>
      <trkpt lat="45.25007500313222408294677734375" lon="-71.1480193398892879486083984375">
        <ele>774</ele>
        <time>2026-08-22T03:03:03.000Z</time>
        <extensions>
          <ns3:TrackPointExtension>
            <ns3:hr>115</ns3:hr>
            <ns3:cad>0</ns3:cad>
          </ns3:TrackPointExtension>
        </extensions>
      </trkpt>
      <trkpt lat="45.25008372031152248382568359375" lon="-71.1480330862104892730712890625">
        <ele>773.79998779296875</ele>
        <time>2026-08-22T03:03:04.000Z</time>
        <extensions>
          <ns3:TrackPointExtension>
            <ns3:hr>114</ns3:hr>
            <ns3:cad>0</ns3:cad>
          </ns3:TrackPointExtension>
        </extensions>
      </trkpt>
      <trkpt lat="45.2500849775969982147216796875" lon="-71.14804725162684917449951171875">
        <ele>773.5999755859375</ele>
        <time>2026-08-22T03:03:05.000Z</time>
        <extensions>
          <ns3:TrackPointExtension>
            <ns3:hr>114</ns3:hr>
            <ns3:cad>0</ns3:cad>
          </ns3:TrackPointExtension>
        </extensions>
      </trkpt>
      <trkpt lat="45.2500886656343936920166015625" lon="-71.14805965684354305267333984375">
        <ele>773.4000244140625</ele>
        <time>2026-08-22T03:03:06.000Z</time>
        <extensions>
          <ns3:TrackPointExtension>
            <ns3:hr>113</ns3:hr>
            <ns3:cad>0</ns3:cad>
          </ns3:TrackPointExtension>
        </extensions>
      </trkpt>
      <trkpt lat="45.2500933595001697540283203125" lon="-71.1480760015547275543212890625">
        <ele>773</ele>
        <time>2026-08-22T03:03:07.000Z</time>
        <extensions>
          <ns3:TrackPointExtension>
            <ns3:hr>113</ns3:hr>
            <ns3:cad>0</ns3:cad>
          </ns3:TrackPointExtension>
        </extensions>
      </trkpt>
      <trkpt lat="45.2500967122614383697509765625" lon="-71.14809134043753147125244140625">
        <ele>772.79998779296875</ele>
        <time>2026-08-22T03:03:08.000Z</time>
        <extensions>
          <ns3:TrackPointExtension>
            <ns3:hr>113</ns3:hr>
            <ns3:cad>0</ns3:cad>
          </ns3:TrackPointExtension>
        </extensions>
      </trkpt>
      <trkpt lat="45.250101573765277862548828125" lon="-71.14810190163552761077880859375">
        <ele>772.5999755859375</ele>
        <time>2026-08-22T03:03:09.000Z</time>
        <extensions>
          <ns3:TrackPointExtension>
            <ns3:hr>113</ns3:hr>
            <ns3:cad>0</ns3:cad>
          </ns3:TrackPointExtension>
        </extensions>
      </trkpt>
      <trkpt lat="45.25010886602103710174560546875" lon="-71.1481229402124881744384765625">
        <ele>772.20001220703125</ele>
        <time>2026-08-22T03:03:10.000Z</time>
        <extensions>
          <ns3:TrackPointExtension>
            <ns3:hr>112</ns3:hr>
            <ns3:cad>65</ns3:cad>
          </ns3:TrackPointExtension>
        </extensions>
      </trkpt>
      <trkpt lat="45.2501144818961620330810546875" lon="-71.14813618361949920654296875">
        <ele>772</ele>
        <time>2026-08-22T03:03:11.000Z</time>
        <extensions>
          <ns3:TrackPointExtension>
            <ns3:hr>112</ns3:hr>
            <ns3:cad>65</ns3:cad>
          </ns3:TrackPointExtension>
        </extensions>
      </trkpt>
      <trkpt lat="45.25012244470417499542236328125" lon="-71.14814951084554195404052734375">
        <ele>771.5999755859375</ele>
        <time>2026-08-22T03:03:12.000Z</time>
        <extensions>
          <ns3:TrackPointExtension>
            <ns3:hr>112</ns3:hr>
            <ns3:cad>0</ns3:cad>
          </ns3:TrackPointExtension>
        </extensions>
      </trkpt>
      <trkpt lat="45.25014021433889865875244140625" lon="-71.148175410926342010498046875">
        <ele>771.4000244140625</ele>
        <time>2026-08-22T03:03:13.000Z</time>
        <extensions>
          <ns3:TrackPointExtension>
            <ns3:hr>112</ns3:hr>
            <ns3:cad>0</ns3:cad>
          </ns3:TrackPointExtension>
        </extensions>
      </trkpt>
      <trkpt lat="45.250150859355926513671875" lon="-71.1481960304081439971923828125">
        <ele>771</ele>
        <time>2026-08-22T03:03:14.000Z</time>
        <extensions>
          <ns3:TrackPointExtension>
            <ns3:hr>113</ns3:hr>
            <ns3:cad>0</ns3:cad>
          </ns3:TrackPointExtension>
        </extensions>
      </trkpt>
      <trkpt lat="45.2501577325165271759033203125" lon="-71.14821287803351879119873046875">
        <ele>770.5999755859375</ele>
        <time>2026-08-22T03:03:15.000Z</time>
        <extensions>
          <ns3:TrackPointExtension>
            <ns3:hr>113</ns3:hr>
            <ns3:cad>0</ns3:cad>
          </ns3:TrackPointExtension>
        </extensions>
      </trkpt>
      <trkpt lat="45.25016888044774532318115234375" lon="-71.14822226576507091522216796875">
        <ele>770.20001220703125</ele>
        <time>2026-08-22T03:03:16.000Z</time>
        <extensions>
          <ns3:TrackPointExtension>
            <ns3:hr>113</ns3:hr>
            <ns3:cad>0</ns3:cad>
          </ns3:TrackPointExtension>
        </extensions>
      </trkpt>
      <trkpt lat="45.25018329732120037078857421875" lon="-71.1482315696775913238525390625">
        <ele>770</ele>
        <time>2026-08-22T03:03:17.000Z</time>
        <extensions>
          <ns3:TrackPointExtension>
            <ns3:hr>113</ns3:hr>
            <ns3:cad>0</ns3:cad>
          </ns3:TrackPointExtension>
        </extensions>
      </trkpt>
      <trkpt lat="45.2501959539949893951416015625" lon="-71.1482382752001285552978515625">
        <ele>769.5999755859375</ele>
        <time>2026-08-22T03:03:18.000Z</time>
        <extensions>
          <ns3:TrackPointExtension>
            <ns3:hr>114</ns3:hr>
            <ns3:cad>0</ns3:cad>
          </ns3:TrackPointExtension>
        </extensions>
      </trkpt>
      <trkpt lat="45.25020726956427097320556640625" lon="-71.1482441425323486328125">
        <ele>769.4000244140625</ele>
        <time>2026-08-22T03:03:19.000Z</time>
        <extensions>
          <ns3:TrackPointExtension>
            <ns3:hr>114</ns3:hr>
            <ns3:cad>0</ns3:cad>
          </ns3:TrackPointExtension>
        </extensions>
      </trkpt>
      <trkpt lat="45.25022202171385288238525390625" lon="-71.14824824966490268707275390625">
        <ele>769</ele>
        <time>2026-08-22T03:03:20.000Z</time>
        <extensions>
          <ns3:TrackPointExtension>
            <ns3:hr>114</ns3:hr>
            <ns3:cad>71</ns3:cad>
          </ns3:TrackPointExtension>
        </extensions>
      </trkpt>
      <trkpt lat="45.25023593567311763763427734375" lon="-71.14824892021715641021728515625">
        <ele>768.5999755859375</ele>
        <time>2026-08-22T03:03:21.000Z</time>
        <extensions>
          <ns3:TrackPointExtension>
            <ns3:hr>114</ns3:hr>
            <ns3:cad>71</ns3:cad>
          </ns3:TrackPointExtension>
        </extensions>
      </trkpt>
      <trkpt lat="45.2502519451081752777099609375" lon="-71.14824347198009490966796875">
        <ele>768.20001220703125</ele>
        <time>2026-08-22T03:03:22.000Z</time>
        <extensions>
          <ns3:TrackPointExtension>
            <ns3:hr>115</ns3:hr>
            <ns3:cad>70</ns3:cad>
          </ns3:TrackPointExtension>
        </extensions>
      </trkpt>
      <trkpt lat="45.25026954710483551025390625" lon="-71.1482372693717479705810546875">
        <ele>767.79998779296875</ele>
        <time>2026-08-22T03:03:23.000Z</time>
        <extensions>
          <ns3:TrackPointExtension>
            <ns3:hr>115</ns3:hr>
            <ns3:cad>70</ns3:cad>
          </ns3:TrackPointExtension>
        </extensions>
      </trkpt>
      <trkpt lat="45.250287987291812896728515625" lon="-71.148229725658893585205078125">
        <ele>767.20001220703125</ele>
        <time>2026-08-22T03:03:24.000Z</time>
        <extensions>
          <ns3:TrackPointExtension>
            <ns3:hr>115</ns3:hr>
            <ns3:cad>70</ns3:cad>
          </ns3:TrackPointExtension>
        </extensions>
      </trkpt>
      <trkpt lat="45.25030651129782199859619140625" lon="-71.14821321330964565277099609375">
        <ele>766.5999755859375</ele>
        <time>2026-08-22T03:03:25.000Z</time>
        <extensions>
          <ns3:TrackPointExtension>
            <ns3:hr>115</ns3:hr>
            <ns3:cad>70</ns3:cad>
          </ns3:TrackPointExtension>
        </extensions>
      </trkpt>
      <trkpt lat="45.25031824596226215362548828125" lon="-71.14819996990263462066650390625">
        <ele>766.20001220703125</ele>
        <time>2026-08-22T03:03:26.000Z</time>
        <extensions>
          <ns3:TrackPointExtension>
            <ns3:hr>115</ns3:hr>
            <ns3:cad>70</ns3:cad>
          </ns3:TrackPointExtension>
        </extensions>
      </trkpt>
      <trkpt lat="45.2503265440464019775390625" lon="-71.14818471483886241912841796875">
        <ele>766</ele>
        <time>2026-08-22T03:03:27.000Z</time>
        <extensions>
          <ns3:TrackPointExtension>
            <ns3:hr>115</ns3:hr>
            <ns3:cad>0</ns3:cad>
          </ns3:TrackPointExtension>
        </extensions>
      </trkpt>
      <trkpt lat="45.25033199228346347808837890625" lon="-71.1481671966612339019775390625">
        <ele>765.79998779296875</ele>
        <time>2026-08-22T03:03:28.000Z</time>
        <extensions>
          <ns3:TrackPointExtension>
            <ns3:hr>116</ns3:hr>
            <ns3:cad>0</ns3:cad>
          </ns3:TrackPointExtension>
        </extensions>
      </trkpt>
      <trkpt lat="45.25033526122570037841796875" lon="-71.14814783446490764617919921875">
        <ele>765.5999755859375</ele>
        <time>2026-08-22T03:03:29.000Z</time>
        <extensions>
          <ns3:TrackPointExtension>
            <ns3:hr>115</ns3:hr>
            <ns3:cad>0</ns3:cad>
          </ns3:TrackPointExtension>
        </extensions>
      </trkpt>
      <trkpt lat="45.25033735670149326324462890625" lon="-71.14813878200948238372802734375">
        <ele>765.5999755859375</ele>
        <time>2026-08-22T03:03:30.000Z</time>
        <extensions>
          <ns3:TrackPointExtension>
            <ns3:hr>115</ns3:hr>
            <ns3:cad>0</ns3:cad>
          </ns3:TrackPointExtension>
        </extensions>
      </trkpt>
      <trkpt lat="45.25034196674823760986328125" lon="-71.1481323279440402984619140625">
        <ele>765.5999755859375</ele>
        <time>2026-08-22T03:03:31.000Z</time>
        <extensions>
          <ns3:TrackPointExtension>
            <ns3:hr>115</ns3:hr>
            <ns3:cad>0</ns3:cad>
          </ns3:TrackPointExtension>
        </extensions>
      </trkpt>
      <trkpt lat="45.25034691207110881805419921875" lon="-71.14812838844954967498779296875">
        <ele>765.5999755859375</ele>
        <time>2026-08-22T03:03:32.000Z</time>
        <extensions>
          <ns3:TrackPointExtension>
            <ns3:hr>114</ns3:hr>
            <ns3:cad>0</ns3:cad>
          </ns3:TrackPointExtension>
        </extensions>
      </trkpt>
      <trkpt lat="45.2503485046327114105224609375" lon="-71.1481266282498836517333984375">
        <ele>765.4000244140625</ele>
        <time>2026-08-22T03:03:33.000Z</time>
        <extensions>
          <ns3:TrackPointExtension>
            <ns3:hr>114</ns3:hr>
            <ns3:cad>0</ns3:cad>
          </ns3:TrackPointExtension>
        </extensions>
      </trkpt>
      <trkpt lat="45.25035311467945575714111328125" lon="-71.148123107850551605224609375">
        <ele>765.20001220703125</ele>
        <time>2026-08-22T03:03:34.000Z</time>
        <extensions>
          <ns3:TrackPointExtension>
            <ns3:hr>115</ns3:hr>
            <ns3:cad>0</ns3:cad>
          </ns3:TrackPointExtension>
        </extensions>
      </trkpt>
      <trkpt lat="45.250352360308170318603515625" lon="-71.1481222696602344512939453125">
        <ele>765</ele>
        <time>2026-08-22T03:03:35.000Z</time>
        <extensions>
          <ns3:TrackPointExtension>
            <ns3:hr>115</ns3:hr>
            <ns3:cad>0</ns3:cad>
          </ns3:TrackPointExtension>
        </extensions>
      </trkpt>
      <trkpt lat="45.25035361759364604949951171875" lon="-71.14811833016574382781982421875">
        <ele>764.79998779296875</ele>
        <time>2026-08-22T03:03:36.000Z</time>
        <extensions>
          <ns3:TrackPointExtension>
            <ns3:hr>115</ns3:hr>
            <ns3:cad>0</ns3:cad>
          </ns3:TrackPointExtension>
        </extensions>
      </trkpt>
      <trkpt lat="45.25034992955625057220458984375" lon="-71.14812101237475872039794921875">
        <ele>764.79998779296875</ele>
        <time>2026-08-22T03:03:37.000Z</time>
        <extensions>
          <ns3:TrackPointExtension>
            <ns3:hr>116</ns3:hr>
            <ns3:cad>0</ns3:cad>
          </ns3:TrackPointExtension>
        </extensions>
      </trkpt>
      <trkpt lat="45.25034473277628421783447265625" lon="-71.14811900071799755096435546875">
        <ele>765</ele>
        <time>2026-08-22T03:03:38.000Z</time>
        <extensions>
          <ns3:TrackPointExtension>
            <ns3:hr>116</ns3:hr>
            <ns3:cad>0</ns3:cad>
          </ns3:TrackPointExtension>
        </extensions>
      </trkpt>
      <trkpt lat="45.2503458224236965179443359375" lon="-71.148123778402805328369140625">
        <ele>765</ele>
        <time>2026-08-22T03:03:39.000Z</time>
        <extensions>
          <ns3:TrackPointExtension>
            <ns3:hr>116</ns3:hr>
            <ns3:cad>0</ns3:cad>
          </ns3:TrackPointExtension>
        </extensions>
      </trkpt>
      <trkpt lat="45.25034733116626739501953125" lon="-71.14812956191599369049072265625">
        <ele>765</ele>
        <time>2026-08-22T03:03:40.000Z</time>
        <extensions>
          <ns3:TrackPointExtension>
            <ns3:hr>115</ns3:hr>
            <ns3:cad>0</ns3:cad>
          </ns3:TrackPointExtension>
        </extensions>
      </trkpt>
      <trkpt lat="45.25035194121301174163818359375" lon="-71.1481368541717529296875">
        <ele>765</ele>
        <time>2026-08-22T03:03:41.000Z</time>
        <extensions>
          <ns3:TrackPointExtension>
            <ns3:hr>115</ns3:hr>
            <ns3:cad>0</ns3:cad>
          </ns3:TrackPointExtension>
        </extensions>
      </trkpt>
      <trkpt lat="45.2503548748791217803955078125" lon="-71.1481373570859432220458984375">
        <ele>765</ele>
        <time>2026-08-22T03:03:42.000Z</time>
        <extensions>
          <ns3:TrackPointExtension>
            <ns3:hr>114</ns3:hr>
            <ns3:cad>0</ns3:cad>
          </ns3:TrackPointExtension>
        </extensions>
      </trkpt>
      <trkpt lat="45.2503582276403903961181640625" lon="-71.148136518895626068115234375">
        <ele>765</ele>
        <time>2026-08-22T03:03:43.000Z</time>
        <extensions>
          <ns3:TrackPointExtension>
            <ns3:hr>114</ns3:hr>
            <ns3:cad>0</ns3:cad>
          </ns3:TrackPointExtension>
        </extensions>
      </trkpt>
      <trkpt lat="45.2503605745732784271240234375" lon="-71.14813492633402347564697265625">
        <ele>764.79998779296875</ele>
        <time>2026-08-22T03:03:44.000Z</time>
        <extensions>
          <ns3:TrackPointExtension>
            <ns3:hr>114</ns3:hr>
            <ns3:cad>0</ns3:cad>
          </ns3:TrackPointExtension>
        </extensions>
      </trkpt>
      <trkpt lat="45.25036954320967197418212890625" lon="-71.148131154477596282958984375">
        <ele>764.5999755859375</ele>
        <time>2026-08-22T03:03:45.000Z</time>
        <extensions>
          <ns3:TrackPointExtension>
            <ns3:hr>114</ns3:hr>
            <ns3:cad>0</ns3:cad>
          </ns3:TrackPointExtension>
        </extensions>
      </trkpt>
      <trkpt lat="45.25037826038897037506103515625" lon="-71.14812520332634449005126953125">
        <ele>764.4000244140625</ele>
        <time>2026-08-22T03:03:46.000Z</time>
        <extensions>
          <ns3:TrackPointExtension>
            <ns3:hr>114</ns3:hr>
            <ns3:cad>51</ns3:cad>
          </ns3:TrackPointExtension>
        </extensions>
      </trkpt>
      <trkpt lat="45.25038245134055614471435546875" lon="-71.1481199227273464202880859375">
        <ele>764.20001220703125</ele>
        <time>2026-08-22T03:03:47.000Z</time>
        <extensions>
          <ns3:TrackPointExtension>
            <ns3:hr>114</ns3:hr>
            <ns3:cad>51</ns3:cad>
          </ns3:TrackPointExtension>
        </extensions>
      </trkpt>
      <trkpt lat="45.25038798339664936065673828125" lon="-71.14811472594738006591796875">
        <ele>764</ele>
        <time>2026-08-22T03:03:48.000Z</time>
        <extensions>
          <ns3:TrackPointExtension>
            <ns3:hr>114</ns3:hr>
            <ns3:cad>51</ns3:cad>
          </ns3:TrackPointExtension>
        </extensions>
      </trkpt>
      <trkpt lat="45.25039468891918659210205078125" lon="-71.14811413921415805816650390625">
        <ele>763.79998779296875</ele>
        <time>2026-08-22T03:03:49.000Z</time>
        <extensions>
          <ns3:TrackPointExtension>
            <ns3:hr>114</ns3:hr>
            <ns3:cad>51</ns3:cad>
          </ns3:TrackPointExtension>
        </extensions>
      </trkpt>
      <trkpt lat="45.250404663383960723876953125" lon="-71.14811045117676258087158203125">
        <ele>763.5999755859375</ele>
        <time>2026-08-22T03:03:50.000Z</time>
        <extensions>
          <ns3:TrackPointExtension>
            <ns3:hr>114</ns3:hr>
            <ns3:cad>51</ns3:cad>
          </ns3:TrackPointExtension>
        </extensions>
      </trkpt>
      <trkpt lat="45.25041849352419376373291015625" lon="-71.14809754304587841033935546875">
        <ele>763.4000244140625</ele>
        <time>2026-08-22T03:03:51.000Z</time>
        <extensions>
          <ns3:TrackPointExtension>
            <ns3:hr>114</ns3:hr>
            <ns3:cad>51</ns3:cad>
          </ns3:TrackPointExtension>
        </extensions>
      </trkpt>
      <trkpt lat="45.25042779743671417236328125" lon="-71.1480910889804363250732421875">
        <ele>763</ele>
        <time>2026-08-22T03:03:52.000Z</time>
        <extensions>
          <ns3:TrackPointExtension>
            <ns3:hr>114</ns3:hr>
            <ns3:cad>51</ns3:cad>
          </ns3:TrackPointExtension>
        </extensions>
      </trkpt>
      <trkpt lat="45.2504336647689342498779296875" lon="-71.148096956312656402587890625">
        <ele>762.5999755859375</ele>
        <time>2026-08-22T03:03:53.000Z</time>
        <extensions>
          <ns3:TrackPointExtension>
            <ns3:hr>114</ns3:hr>
            <ns3:cad>0</ns3:cad>
          </ns3:TrackPointExtension>
        </extensions>
      </trkpt>
      <trkpt lat="45.25043995119631290435791015625" lon="-71.14810139872133731842041015625">
        <ele>762.20001220703125</ele>
        <time>2026-08-22T03:03:54.000Z</time>
        <extensions>
          <ns3:TrackPointExtension>
            <ns3:hr>115</ns3:hr>
            <ns3:cad>0</ns3:cad>
          </ns3:TrackPointExtension>
        </extensions>
      </trkpt>
      <trkpt lat="45.2504500932991504669189453125" lon="-71.14810642786324024200439453125">
        <ele>761.79998779296875</ele>
        <time>2026-08-22T03:03:55.000Z</time>
        <extensions>
          <ns3:TrackPointExtension>
            <ns3:hr>115</ns3:hr>
            <ns3:cad>0</ns3:cad>
          </ns3:TrackPointExtension>
        </extensions>
      </trkpt>
      <trkpt lat="45.25046157650649547576904296875" lon="-71.148111708462238311767578125">
        <ele>761.4000244140625</ele>
        <time>2026-08-22T03:03:56.000Z</time>
        <extensions>
          <ns3:TrackPointExtension>
            <ns3:hr>116</ns3:hr>
            <ns3:cad>79</ns3:cad>
          </ns3:TrackPointExtension>
        </extensions>
      </trkpt>
      <trkpt lat="45.2504728920757770538330078125" lon="-71.14811631850898265838623046875">
        <ele>761</ele>
        <time>2026-08-22T03:03:57.000Z</time>
        <extensions>
          <ns3:TrackPointExtension>
            <ns3:hr>117</ns3:hr>
            <ns3:cad>79</ns3:cad>
          </ns3:TrackPointExtension>
        </extensions>
      </trkpt>
      <trkpt lat="45.2504806034266948699951171875" lon="-71.1481189168989658355712890625">
        <ele>760.4000244140625</ele>
        <time>2026-08-22T03:03:58.000Z</time>
        <extensions>
          <ns3:TrackPointExtension>
            <ns3:hr>117</ns3:hr>
            <ns3:cad>79</ns3:cad>
          </ns3:TrackPointExtension>
        </extensions>
      </trkpt>
      <trkpt lat="45.25049041025340557098388671875" lon="-71.14812319166958332061767578125">
        <ele>760</ele>
        <time>2026-08-22T03:03:59.000Z</time>
        <extensions>
          <ns3:TrackPointExtension>
            <ns3:hr>118</ns3:hr>
            <ns3:cad>79</ns3:cad>
          </ns3:TrackPointExtension>
        </extensions>
      </trkpt>
      <trkpt lat="45.25049979798495769500732421875" lon="-71.148128472268581390380859375">
        <ele>759.5999755859375</ele>
        <time>2026-08-22T03:04:00.000Z</time>
        <extensions>
          <ns3:TrackPointExtension>
            <ns3:hr>118</ns3:hr>
            <ns3:cad>80</ns3:cad>
          </ns3:TrackPointExtension>
        </extensions>
      </trkpt>
      <trkpt lat="45.250510275363922119140625" lon="-71.14813760854303836822509765625">
        <ele>759.20001220703125</ele>
        <time>2026-08-22T03:04:01.000Z</time>
        <extensions>
          <ns3:TrackPointExtension>
            <ns3:hr>119</ns3:hr>
            <ns3:cad>80</ns3:cad>
          </ns3:TrackPointExtension>
        </extensions>
      </trkpt>
      <trkpt lat="45.25052460841834545135498046875" lon="-71.14814414642751216888427734375">
        <ele>758.79998779296875</ele>
        <time>2026-08-22T03:04:02.000Z</time>
        <extensions>
          <ns3:TrackPointExtension>
            <ns3:hr>119</ns3:hr>
            <ns3:cad>80</ns3:cad>
          </ns3:TrackPointExtension>
        </extensions>
      </trkpt>
      <trkpt lat="45.2505359239876270294189453125" lon="-71.14814833737909793853759765625">
        <ele>758.20001220703125</ele>
        <time>2026-08-22T03:04:03.000Z</time>
        <extensions>
          <ns3:TrackPointExtension>
            <ns3:hr>120</ns3:hr>
            <ns3:cad>80</ns3:cad>
          </ns3:TrackPointExtension>
        </extensions>
      </trkpt>
      <trkpt lat="45.25054858066141605377197265625" lon="-71.14814749918878078460693359375">
        <ele>757.79998779296875</ele>
        <time>2026-08-22T03:04:04.000Z</time>
        <extensions>
          <ns3:TrackPointExtension>
            <ns3:hr>120</ns3:hr>
            <ns3:cad>80</ns3:cad>
          </ns3:TrackPointExtension>
        </extensions>
      </trkpt>
      <trkpt lat="45.25056266225874423980712890625" lon="-71.1481467448174953460693359375">
        <ele>757.20001220703125</ele>
        <time>2026-08-22T03:04:05.000Z</time>
        <extensions>
          <ns3:TrackPointExtension>
            <ns3:hr>120</ns3:hr>
            <ns3:cad>0</ns3:cad>
          </ns3:TrackPointExtension>
        </extensions>
      </trkpt>
      <trkpt lat="45.2505714632570743560791015625" lon="-71.14814381115138530731201171875">
        <ele>756.79998779296875</ele>
        <time>2026-08-22T03:04:06.000Z</time>
        <extensions>
          <ns3:TrackPointExtension>
            <ns3:hr>119</ns3:hr>
            <ns3:cad>0</ns3:cad>
          </ns3:TrackPointExtension>
        </extensions>
      </trkpt>
      <trkpt lat="45.250585712492465972900390625" lon="-71.148139201104640960693359375">
        <ele>756.4000244140625</ele>
        <time>2026-08-22T03:04:07.000Z</time>
        <extensions>
          <ns3:TrackPointExtension>
            <ns3:hr>120</ns3:hr>
            <ns3:cad>0</ns3:cad>
          </ns3:TrackPointExtension>
        </extensions>
      </trkpt>
      <trkpt lat="45.2505912445485591888427734375" lon="-71.14813978783786296844482421875">
        <ele>755.79998779296875</ele>
        <time>2026-08-22T03:04:08.000Z</time>
        <extensions>
          <ns3:TrackPointExtension>
            <ns3:hr>120</ns3:hr>
            <ns3:cad>0</ns3:cad>
          </ns3:TrackPointExtension>
        </extensions>
      </trkpt>
      <trkpt lat="45.250601805746555328369140625" lon="-71.1481355130672454833984375">
        <ele>755.4000244140625</ele>
        <time>2026-08-22T03:04:09.000Z</time>
        <extensions>
          <ns3:TrackPointExtension>
            <ns3:hr>120</ns3:hr>
            <ns3:cad>0</ns3:cad>
          </ns3:TrackPointExtension>
        </extensions>
      </trkpt>
      <trkpt lat="45.2506049908697605133056640625" lon="-71.14813257940113544464111328125">
        <ele>755</ele>
        <time>2026-08-22T03:04:10.000Z</time>
        <extensions>
          <ns3:TrackPointExtension>
            <ns3:hr>120</ns3:hr>
            <ns3:cad>71</ns3:cad>
          </ns3:TrackPointExtension>
        </extensions>
      </trkpt>
      <trkpt lat="45.25061798281967639923095703125" lon="-71.1481239460408687591552734375">
        <ele>754.5999755859375</ele>
        <time>2026-08-22T03:04:11.000Z</time>
        <extensions>
          <ns3:TrackPointExtension>
            <ns3:hr>120</ns3:hr>
            <ns3:cad>71</ns3:cad>
          </ns3:TrackPointExtension>
        </extensions>
      </trkpt>
      <trkpt lat="45.250626616179943084716796875" lon="-71.1481167376041412353515625">
        <ele>754.20001220703125</ele>
        <time>2026-08-22T03:04:12.000Z</time>
        <extensions>
          <ns3:TrackPointExtension>
            <ns3:hr>120</ns3:hr>
            <ns3:cad>71</ns3:cad>
          </ns3:TrackPointExtension>
        </extensions>
      </trkpt>
      <trkpt lat="45.25063424371182918548583984375" lon="-71.1481088586151599884033203125">
        <ele>753.79998779296875</ele>
        <time>2026-08-22T03:04:13.000Z</time>
        <extensions>
          <ns3:TrackPointExtension>
            <ns3:hr>119</ns3:hr>
            <ns3:cad>71</ns3:cad>
          </ns3:TrackPointExtension>
        </extensions>
      </trkpt>
      <trkpt lat="45.2506432123482227325439453125" lon="-71.1481045000255107879638671875">
        <ele>753.4000244140625</ele>
        <time>2026-08-22T03:04:14.000Z</time>
        <extensions>
          <ns3:TrackPointExtension>
            <ns3:hr>119</ns3:hr>
            <ns3:cad>71</ns3:cad>
          </ns3:TrackPointExtension>
        </extensions>
      </trkpt>
      <trkpt lat="45.2506469003856182098388671875" lon="-71.14811078645288944244384765625">
        <ele>753</ele>
        <time>2026-08-22T03:04:15.000Z</time>
        <extensions>
          <ns3:TrackPointExtension>
            <ns3:hr>119</ns3:hr>
            <ns3:cad>71</ns3:cad>
          </ns3:TrackPointExtension>
        </extensions>
      </trkpt>
      <trkpt lat="45.25065251626074314117431640625" lon="-71.14812755025923252105712890625">
        <ele>752.5999755859375</ele>
        <time>2026-08-22T03:04:16.000Z</time>
        <extensions>
          <ns3:TrackPointExtension>
            <ns3:hr>119</ns3:hr>
            <ns3:cad>71</ns3:cad>
          </ns3:TrackPointExtension>
        </extensions>
      </trkpt>
      <trkpt lat="45.250655449926853179931640625" lon="-71.14813844673335552215576171875">
        <ele>752</ele>
        <time>2026-08-22T03:04:17.000Z</time>
        <extensions>
          <ns3:TrackPointExtension>
            <ns3:hr>119</ns3:hr>
            <ns3:cad>71</ns3:cad>
          </ns3:TrackPointExtension>
        </extensions>
      </trkpt>
      <trkpt lat="45.2506586350500583648681640625" lon="-71.148145236074924468994140625">
        <ele>751.79998779296875</ele>
        <time>2026-08-22T03:04:18.000Z</time>
        <extensions>
          <ns3:TrackPointExtension>
            <ns3:hr>119</ns3:hr>
            <ns3:cad>71</ns3:cad>
          </ns3:TrackPointExtension>
        </extensions>
      </trkpt>
      <trkpt lat="45.2506670169532299041748046875" lon="-71.14816166460514068603515625">
        <ele>751.5999755859375</ele>
        <time>2026-08-22T03:04:19.000Z</time>
        <extensions>
          <ns3:TrackPointExtension>
            <ns3:hr>119</ns3:hr>
            <ns3:cad>71</ns3:cad>
          </ns3:TrackPointExtension>
        </extensions>
      </trkpt>
      <trkpt lat="45.2506696991622447967529296875" lon="-71.1481775902211666107177734375">
        <ele>751.4000244140625</ele>
        <time>2026-08-22T03:04:20.000Z</time>
        <extensions>
          <ns3:TrackPointExtension>
            <ns3:hr>118</ns3:hr>
            <ns3:cad>71</ns3:cad>
          </ns3:TrackPointExtension>
        </extensions>
      </trkpt>
      <trkpt lat="45.2506743930280208587646484375" lon="-71.14819049835205078125">
        <ele>751.20001220703125</ele>
        <time>2026-08-22T03:04:21.000Z</time>
        <extensions>
          <ns3:TrackPointExtension>
            <ns3:hr>116</ns3:hr>
            <ns3:cad>71</ns3:cad>
          </ns3:TrackPointExtension>
        </extensions>
      </trkpt>
      <trkpt lat="45.25067833252251148223876953125" lon="-71.1482054181396961212158203125">
        <ele>751</ele>
        <time>2026-08-22T03:04:22.000Z</time>
        <extensions>
          <ns3:TrackPointExtension>
            <ns3:hr>115</ns3:hr>
            <ns3:cad>71</ns3:cad>
          </ns3:TrackPointExtension>
        </extensions>
      </trkpt>
      <trkpt lat="45.25068235583603382110595703125" lon="-71.14821991883218288421630859375">
        <ele>750.79998779296875</ele>
        <time>2026-08-22T03:04:23.000Z</time>
        <extensions>
          <ns3:TrackPointExtension>
            <ns3:hr>115</ns3:hr>
            <ns3:cad>71</ns3:cad>
          </ns3:TrackPointExtension>
        </extensions>
      </trkpt>
      <trkpt lat="45.25068671442568302154541015625" lon="-71.1482433043420314788818359375">
        <ele>750.5999755859375</ele>
        <time>2026-08-22T03:04:24.000Z</time>
        <extensions>
          <ns3:TrackPointExtension>
            <ns3:hr>115</ns3:hr>
            <ns3:cad>59</ns3:cad>
          </ns3:TrackPointExtension>
        </extensions>
      </trkpt>
      <trkpt lat="45.25068855844438076019287109375" lon="-71.148259229958057403564453125">
        <ele>750.4000244140625</ele>
        <time>2026-08-22T03:04:25.000Z</time>
        <extensions>
          <ns3:TrackPointExtension>
            <ns3:hr>114</ns3:hr>
            <ns3:cad>59</ns3:cad>
          </ns3:TrackPointExtension>
        </extensions>
      </trkpt>
      <trkpt lat="45.25069157592952251434326171875" lon="-71.1482749879360198974609375">
        <ele>750.20001220703125</ele>
        <time>2026-08-22T03:04:26.000Z</time>
        <extensions>
          <ns3:TrackPointExtension>
            <ns3:hr>114</ns3:hr>
            <ns3:cad>59</ns3:cad>
          </ns3:TrackPointExtension>
        </extensions>
      </trkpt>
      <trkpt lat="45.25069023482501506805419921875" lon="-71.14828228019177913665771484375">
        <ele>750</ele>
        <time>2026-08-22T03:04:27.000Z</time>
        <extensions>
          <ns3:TrackPointExtension>
            <ns3:hr>114</ns3:hr>
            <ns3:cad>59</ns3:cad>
          </ns3:TrackPointExtension>
        </extensions>
      </trkpt>
      <trkpt lat="45.2506911568343639373779296875" lon="-71.14829468540847301483154296875">
        <ele>750</ele>
        <time>2026-08-22T03:04:28.000Z</time>
        <extensions>
          <ns3:TrackPointExtension>
            <ns3:hr>114</ns3:hr>
            <ns3:cad>59</ns3:cad>
          </ns3:TrackPointExtension>
        </extensions>
      </trkpt>
      <trkpt lat="45.25069274939596652984619140625" lon="-71.1483063362538814544677734375">
        <ele>749.79998779296875</ele>
        <time>2026-08-22T03:04:29.000Z</time>
        <extensions>
          <ns3:TrackPointExtension>
            <ns3:hr>115</ns3:hr>
            <ns3:cad>59</ns3:cad>
          </ns3:TrackPointExtension>
        </extensions>
      </trkpt>
      <trkpt lat="45.25069442577660083770751953125" lon="-71.1483207531273365020751953125">
        <ele>749.5999755859375</ele>
        <time>2026-08-22T03:04:30.000Z</time>
        <extensions>
          <ns3:TrackPointExtension>
            <ns3:hr>114</ns3:hr>
            <ns3:cad>59</ns3:cad>
          </ns3:TrackPointExtension>
        </extensions>
      </trkpt>
      <trkpt lat="45.25069358758628368377685546875" lon="-71.14832930266857147216796875">
        <ele>749.4000244140625</ele>
        <time>2026-08-22T03:04:31.000Z</time>
        <extensions>
          <ns3:TrackPointExtension>
            <ns3:hr>115</ns3:hr>
            <ns3:cad>59</ns3:cad>
          </ns3:TrackPointExtension>
        </extensions>
      </trkpt>
      <trkpt lat="45.250692330300807952880859375" lon="-71.148340702056884765625">
        <ele>749.20001220703125</ele>
        <time>2026-08-22T03:04:32.000Z</time>
        <extensions>
          <ns3:TrackPointExtension>
            <ns3:hr>115</ns3:hr>
            <ns3:cad>0</ns3:cad>
          </ns3:TrackPointExtension>
        </extensions>
      </trkpt>
      <trkpt lat="45.2506908215582370758056640625" lon="-71.1483606509864330291748046875">
        <ele>748.79998779296875</ele>
        <time>2026-08-22T03:04:33.000Z</time>
        <extensions>
          <ns3:TrackPointExtension>
            <ns3:hr>115</ns3:hr>
            <ns3:cad>0</ns3:cad>
          </ns3:TrackPointExtension>
        </extensions>
      </trkpt>
      <trkpt lat="45.250693000853061676025390625" lon="-71.14837464876472949981689453125">
        <ele>748.4000244140625</ele>
        <time>2026-08-22T03:04:34.000Z</time>
        <extensions>
          <ns3:TrackPointExtension>
            <ns3:hr>115</ns3:hr>
            <ns3:cad>0</ns3:cad>
          </ns3:TrackPointExtension>
        </extensions>
      </trkpt>
      <trkpt lat="45.250692330300807952880859375" lon="-71.14839711226522922515869140625">
        <ele>748</ele>
        <time>2026-08-22T03:04:35.000Z</time>
        <extensions>
          <ns3:TrackPointExtension>
            <ns3:hr>116</ns3:hr>
            <ns3:cad>0</ns3:cad>
          </ns3:TrackPointExtension>
        </extensions>
      </trkpt>
      <trkpt lat="45.2506924979388713836669921875" lon="-71.1484171450138092041015625">
        <ele>747.5999755859375</ele>
        <time>2026-08-22T03:04:36.000Z</time>
        <extensions>
          <ns3:TrackPointExtension>
            <ns3:hr>115</ns3:hr>
            <ns3:cad>0</ns3:cad>
          </ns3:TrackPointExtension>
        </extensions>
      </trkpt>
      <trkpt lat="45.2506935037672519683837890625" lon="-71.1484287120401859283447265625">
        <ele>747.20001220703125</ele>
        <time>2026-08-22T03:04:37.000Z</time>
        <extensions>
          <ns3:TrackPointExtension>
            <ns3:hr>115</ns3:hr>
            <ns3:cad>0</ns3:cad>
          </ns3:TrackPointExtension>
        </extensions>
      </trkpt>
      <trkpt lat="45.250692330300807952880859375" lon="-71.148442961275577545166015625">
        <ele>746.5999755859375</ele>
        <time>2026-08-22T03:04:38.000Z</time>
        <extensions>
          <ns3:TrackPointExtension>
            <ns3:hr>115</ns3:hr>
            <ns3:cad>0</ns3:cad>
          </ns3:TrackPointExtension>
        </extensions>
      </trkpt>
      <trkpt lat="45.25069375522434711456298828125" lon="-71.14845142699778079986572265625">
        <ele>746.20001220703125</ele>
        <time>2026-08-22T03:04:39.000Z</time>
        <extensions>
          <ns3:TrackPointExtension>
            <ns3:hr>114</ns3:hr>
            <ns3:cad>0</ns3:cad>
          </ns3:TrackPointExtension>
        </extensions>
      </trkpt>
      <trkpt lat="45.2506894804537296295166015625" lon="-71.14847154356539249420166015625">
        <ele>745.79998779296875</ele>
        <time>2026-08-22T03:04:40.000Z</time>
        <extensions>
          <ns3:TrackPointExtension>
            <ns3:hr>114</ns3:hr>
            <ns3:cad>0</ns3:cad>
          </ns3:TrackPointExtension>
        </extensions>
      </trkpt>
      <trkpt lat="45.25068621151149272918701171875" lon="-71.1484816856682300567626953125">
        <ele>745.4000244140625</ele>
        <time>2026-08-22T03:04:41.000Z</time>
        <extensions>
          <ns3:TrackPointExtension>
            <ns3:hr>114</ns3:hr>
            <ns3:cad>0</ns3:cad>
          </ns3:TrackPointExtension>
        </extensions>
      </trkpt>
      <trkpt lat="45.250680930912494659423828125" lon="-71.1484930850565433502197265625">
        <ele>745.20001220703125</ele>
        <time>2026-08-22T03:04:42.000Z</time>
        <extensions>
          <ns3:TrackPointExtension>
            <ns3:hr>114</ns3:hr>
            <ns3:cad>0</ns3:cad>
          </ns3:TrackPointExtension>
        </extensions>
      </trkpt>
      <trkpt lat="45.25068017654120922088623046875" lon="-71.14850188605487346649169921875">
        <ele>745</ele>
        <time>2026-08-22T03:04:43.000Z</time>
        <extensions>
          <ns3:TrackPointExtension>
            <ns3:hr>114</ns3:hr>
            <ns3:cad>0</ns3:cad>
          </ns3:TrackPointExtension>
        </extensions>
      </trkpt>
      <trkpt lat="45.25067866779863834381103515625" lon="-71.14851705729961395263671875">
        <ele>744.79998779296875</ele>
        <time>2026-08-22T03:04:44.000Z</time>
        <extensions>
          <ns3:TrackPointExtension>
            <ns3:hr>114</ns3:hr>
            <ns3:cad>0</ns3:cad>
          </ns3:TrackPointExtension>
        </extensions>
      </trkpt>
      <trkpt lat="45.25067900307476520538330078125" lon="-71.14853507839143276214599609375">
        <ele>744.79998779296875</ele>
        <time>2026-08-22T03:04:45.000Z</time>
        <extensions>
          <ns3:TrackPointExtension>
            <ns3:hr>114</ns3:hr>
            <ns3:cad>0</ns3:cad>
          </ns3:TrackPointExtension>
        </extensions>
      </trkpt>
      <trkpt lat="45.250677578151226043701171875" lon="-71.14854983054101467132568359375">
        <ele>744.5999755859375</ele>
        <time>2026-08-22T03:04:46.000Z</time>
        <extensions>
          <ns3:TrackPointExtension>
            <ns3:hr>114</ns3:hr>
            <ns3:cad>0</ns3:cad>
          </ns3:TrackPointExtension>
        </extensions>
      </trkpt>
      <trkpt lat="45.25067280046641826629638671875" lon="-71.1485745571553707122802734375">
        <ele>744.20001220703125</ele>
        <time>2026-08-22T03:04:47.000Z</time>
        <extensions>
          <ns3:TrackPointExtension>
            <ns3:hr>114</ns3:hr>
            <ns3:cad>0</ns3:cad>
          </ns3:TrackPointExtension>
        </extensions>
      </trkpt>
      <trkpt lat="45.25067548267543315887451171875" lon="-71.148585788905620574951171875">
        <ele>743.79998779296875</ele>
        <time>2026-08-22T03:04:48.000Z</time>
        <extensions>
          <ns3:TrackPointExtension>
            <ns3:hr>114</ns3:hr>
            <ns3:cad>0</ns3:cad>
          </ns3:TrackPointExtension>
        </extensions>
      </trkpt>
      <trkpt lat="45.250676572322845458984375" lon="-71.148603223264217376708984375">
        <ele>743.5999755859375</ele>
        <time>2026-08-22T03:04:49.000Z</time>
        <extensions>
          <ns3:TrackPointExtension>
            <ns3:hr>114</ns3:hr>
            <ns3:cad>0</ns3:cad>
          </ns3:TrackPointExtension>
        </extensions>
      </trkpt>
      <trkpt lat="45.250674225389957427978515625" lon="-71.14862023852765560150146484375">
        <ele>743.20001220703125</ele>
        <time>2026-08-22T03:04:50.000Z</time>
        <extensions>
          <ns3:TrackPointExtension>
            <ns3:hr>114</ns3:hr>
            <ns3:cad>0</ns3:cad>
          </ns3:TrackPointExtension>
        </extensions>
      </trkpt>
      <trkpt lat="45.25067514739930629730224609375" lon="-71.148634068667888641357421875">
        <ele>743</ele>
        <time>2026-08-22T03:04:51.000Z</time>
        <extensions>
          <ns3:TrackPointExtension>
            <ns3:hr>114</ns3:hr>
            <ns3:cad>0</ns3:cad>
          </ns3:TrackPointExtension>
        </extensions>
      </trkpt>
      <trkpt lat="45.250682272017002105712890625" lon="-71.14865074865520000457763671875">
        <ele>742.5999755859375</ele>
        <time>2026-08-22T03:04:52.000Z</time>
        <extensions>
          <ns3:TrackPointExtension>
            <ns3:hr>114</ns3:hr>
            <ns3:cad>0</ns3:cad>
          </ns3:TrackPointExtension>
        </extensions>
      </trkpt>
      <trkpt lat="45.25068671442568302154541015625" lon="-71.1486721225082874298095703125">
        <ele>742.4000244140625</ele>
        <time>2026-08-22T03:04:53.000Z</time>
        <extensions>
          <ns3:TrackPointExtension>
            <ns3:hr>114</ns3:hr>
            <ns3:cad>0</ns3:cad>
          </ns3:TrackPointExtension>
        </extensions>
      </trkpt>
      <trkpt lat="45.25069274939596652984619140625" lon="-71.14868829958140850067138671875">
        <ele>742</ele>
        <time>2026-08-22T03:04:54.000Z</time>
        <extensions>
          <ns3:TrackPointExtension>
            <ns3:hr>114</ns3:hr>
            <ns3:cad>0</ns3:cad>
          </ns3:TrackPointExtension>
        </extensions>
      </trkpt>
      <trkpt lat="45.250699706375598907470703125" lon="-71.14869936369359493255615234375">
        <ele>741.79998779296875</ele>
        <time>2026-08-22T03:04:55.000Z</time>
        <extensions>
          <ns3:TrackPointExtension>
            <ns3:hr>113</ns3:hr>
            <ns3:cad>0</ns3:cad>
          </ns3:TrackPointExtension>
        </extensions>
      </trkpt>
      <trkpt lat="45.25070666335523128509521484375" lon="-71.1487066559493541717529296875">
        <ele>741.5999755859375</ele>
        <time>2026-08-22T03:04:56.000Z</time>
        <extensions>
          <ns3:TrackPointExtension>
            <ns3:hr>114</ns3:hr>
            <ns3:cad>0</ns3:cad>
          </ns3:TrackPointExtension>
        </extensions>
      </trkpt>
      <trkpt lat="45.25071152485907077789306640625" lon="-71.1487150378525257110595703125">
        <ele>741.4000244140625</ele>
        <time>2026-08-22T03:04:57.000Z</time>
        <extensions>
          <ns3:TrackPointExtension>
            <ns3:hr>114</ns3:hr>
            <ns3:cad>0</ns3:cad>
          </ns3:TrackPointExtension>
        </extensions>
      </trkpt>
      <trkpt lat="45.25071102194488048553466796875" lon="-71.1487247608602046966552734375">
        <ele>741.20001220703125</ele>
        <time>2026-08-22T03:04:58.000Z</time>
        <extensions>
          <ns3:TrackPointExtension>
            <ns3:hr>113</ns3:hr>
            <ns3:cad>0</ns3:cad>
          </ns3:TrackPointExtension>
        </extensions>
      </trkpt>
      <trkpt lat="45.25071320123970508575439453125" lon="-71.14873540587723255157470703125">
        <ele>741.20001220703125</ele>
        <time>2026-08-22T03:04:59.000Z</time>
        <extensions>
          <ns3:TrackPointExtension>
            <ns3:hr>113</ns3:hr>
            <ns3:cad>0</ns3:cad>
          </ns3:TrackPointExtension>
        </extensions>
      </trkpt>
      <trkpt lat="45.2507173083722591400146484375" lon="-71.14873758517205715179443359375">
        <ele>741</ele>
        <time>2026-08-22T03:05:00.000Z</time>
        <extensions>
          <ns3:TrackPointExtension>
            <ns3:hr>113</ns3:hr>
            <ns3:cad>0</ns3:cad>
          </ns3:TrackPointExtension>
        </extensions>
      </trkpt>
      <trkpt lat="45.2507260255515575408935546875" lon="-71.1487445421516895294189453125">
        <ele>740.79998779296875</ele>
        <time>2026-08-22T03:05:01.000Z</time>
        <extensions>
          <ns3:TrackPointExtension>
            <ns3:hr>112</ns3:hr>
            <ns3:cad>0</ns3:cad>
          </ns3:TrackPointExtension>
        </extensions>
      </trkpt>
      <trkpt lat="45.250729881227016448974609375" lon="-71.1487482301890850067138671875">
        <ele>740.5999755859375</ele>
        <time>2026-08-22T03:05:02.000Z</time>
        <extensions>
          <ns3:TrackPointExtension>
            <ns3:hr>112</ns3:hr>
            <ns3:cad>0</ns3:cad>
          </ns3:TrackPointExtension>
        </extensions>
      </trkpt>
      <trkpt lat="45.2507337369024753570556640625" lon="-71.14876113831996917724609375">
        <ele>740.20001220703125</ele>
        <time>2026-08-22T03:05:03.000Z</time>
        <extensions>
          <ns3:TrackPointExtension>
            <ns3:hr>112</ns3:hr>
            <ns3:cad>0</ns3:cad>
          </ns3:TrackPointExtension>
        </extensions>
      </trkpt>
      <trkpt lat="45.25073968805372714996337890625" lon="-71.1487673409283161163330078125">
        <ele>740</ele>
        <time>2026-08-22T03:05:04.000Z</time>
        <extensions>
          <ns3:TrackPointExtension>
            <ns3:hr>112</ns3:hr>
            <ns3:cad>0</ns3:cad>
          </ns3:TrackPointExtension>
        </extensions>
      </trkpt>
      <trkpt lat="45.25074924342334270477294921875" lon="-71.1487727053463459014892578125">
        <ele>739.79998779296875</ele>
        <time>2026-08-22T03:05:05.000Z</time>
        <extensions>
          <ns3:TrackPointExtension>
            <ns3:hr>111</ns3:hr>
            <ns3:cad>0</ns3:cad>
          </ns3:TrackPointExtension>
        </extensions>
      </trkpt>
      <trkpt lat="45.2507592178881168365478515625" lon="-71.14877630956470966339111328125">
        <ele>739.79998779296875</ele>
        <time>2026-08-22T03:05:06.000Z</time>
        <extensions>
          <ns3:TrackPointExtension>
            <ns3:hr>111</ns3:hr>
            <ns3:cad>0</ns3:cad>
          </ns3:TrackPointExtension>
        </extensions>
      </trkpt>
      <trkpt lat="45.2507732994854450225830078125" lon="-71.14877228625118732452392578125">
        <ele>739.5999755859375</ele>
        <time>2026-08-22T03:05:07.000Z</time>
        <extensions>
          <ns3:TrackPointExtension>
            <ns3:hr>111</ns3:hr>
            <ns3:cad>0</ns3:cad>
          </ns3:TrackPointExtension>
        </extensions>
      </trkpt>
      <trkpt lat="45.250780843198299407958984375" lon="-71.14876423962414264678955078125">
        <ele>739.4000244140625</ele>
        <time>2026-08-22T03:05:08.000Z</time>
        <extensions>
          <ns3:TrackPointExtension>
            <ns3:hr>111</ns3:hr>
            <ns3:cad>0</ns3:cad>
          </ns3:TrackPointExtension>
        </extensions>
      </trkpt>
      <trkpt lat="45.25078310631215572357177734375" lon="-71.14875803701579570770263671875">
        <ele>739.4000244140625</ele>
        <time>2026-08-22T03:05:09.000Z</time>
        <extensions>
          <ns3:TrackPointExtension>
            <ns3:hr>111</ns3:hr>
            <ns3:cad>0</ns3:cad>
          </ns3:TrackPointExtension>
        </extensions>
      </trkpt>
      <trkpt lat="45.25078319013118743896484375" lon="-71.14874931983649730682373046875">
        <ele>739.4000244140625</ele>
        <time>2026-08-22T03:05:10.000Z</time>
        <extensions>
          <ns3:TrackPointExtension>
            <ns3:hr>112</ns3:hr>
            <ns3:cad>0</ns3:cad>
          </ns3:TrackPointExtension>
        </extensions>
      </trkpt>
      <trkpt lat="45.25079014711081981658935546875" lon="-71.14874345250427722930908203125">
        <ele>739.4000244140625</ele>
        <time>2026-08-22T03:05:11.000Z</time>
        <extensions>
          <ns3:TrackPointExtension>
            <ns3:hr>112</ns3:hr>
            <ns3:cad>0</ns3:cad>
          </ns3:TrackPointExtension>
        </extensions>
      </trkpt>
      <trkpt lat="45.25080255232751369476318359375" lon="-71.14872417412698268890380859375">
        <ele>739.20001220703125</ele>
        <time>2026-08-22T03:05:12.000Z</time>
        <extensions>
          <ns3:TrackPointExtension>
            <ns3:hr>112</ns3:hr>
            <ns3:cad>47</ns3:cad>
          </ns3:TrackPointExtension>
        </extensions>
      </trkpt>
      <trkpt lat="45.2508128620684146881103515625" lon="-71.1487083323299884796142578125">
        <ele>739.20001220703125</ele>
        <time>2026-08-22T03:05:13.000Z</time>
        <extensions>
          <ns3:TrackPointExtension>
            <ns3:hr>111</ns3:hr>
            <ns3:cad>62</ns3:cad>
          </ns3:TrackPointExtension>
        </extensions>
      </trkpt>
      <trkpt lat="45.25082484818994998931884765625" lon="-71.14869014360010623931884765625">
        <ele>739</ele>
        <time>2026-08-22T03:05:14.000Z</time>
        <extensions>
          <ns3:TrackPointExtension>
            <ns3:hr>112</ns3:hr>
            <ns3:cad>62</ns3:cad>
          </ns3:TrackPointExtension>
        </extensions>
      </trkpt>
      <trkpt lat="45.2508309669792652130126953125" lon="-71.14868008531630039215087890625">
        <ele>739</ele>
        <time>2026-08-22T03:05:15.000Z</time>
        <extensions>
          <ns3:TrackPointExtension>
            <ns3:hr>112</ns3:hr>
            <ns3:cad>0</ns3:cad>
          </ns3:TrackPointExtension>
        </extensions>
      </trkpt>
      <trkpt lat="45.25083557702600955963134765625" lon="-71.148674301803112030029296875">
        <ele>738.79998779296875</ele>
        <time>2026-08-22T03:05:16.000Z</time>
        <extensions>
          <ns3:TrackPointExtension>
            <ns3:hr>112</ns3:hr>
            <ns3:cad>0</ns3:cad>
          </ns3:TrackPointExtension>
        </extensions>
      </trkpt>
      <trkpt lat="45.25084312073886394500732421875" lon="-71.14867187105119228363037109375">
        <ele>738.79998779296875</ele>
        <time>2026-08-22T03:05:17.000Z</time>
        <extensions>
          <ns3:TrackPointExtension>
            <ns3:hr>112</ns3:hr>
            <ns3:cad>0</ns3:cad>
          </ns3:TrackPointExtension>
        </extensions>
      </trkpt>
      <trkpt lat="45.25085234083235263824462890625" lon="-71.14865795709192752838134765625">
        <ele>738.5999755859375</ele>
        <time>2026-08-22T03:05:18.000Z</time>
        <extensions>
          <ns3:TrackPointExtension>
            <ns3:hr>112</ns3:hr>
            <ns3:cad>0</ns3:cad>
          </ns3:TrackPointExtension>
        </extensions>
      </trkpt>
      <trkpt lat="45.25085938163101673126220703125" lon="-71.14864052273333072662353515625">
        <ele>738.4000244140625</ele>
        <time>2026-08-22T03:05:19.000Z</time>
        <extensions>
          <ns3:TrackPointExtension>
            <ns3:hr>112</ns3:hr>
            <ns3:cad>0</ns3:cad>
          </ns3:TrackPointExtension>
        </extensions>
      </trkpt>
      <trkpt lat="45.25086441077291965484619140625" lon="-71.14862811751663684844970703125">
        <ele>738.20001220703125</ele>
        <time>2026-08-22T03:05:20.000Z</time>
        <extensions>
          <ns3:TrackPointExtension>
            <ns3:hr>112</ns3:hr>
            <ns3:cad>0</ns3:cad>
          </ns3:TrackPointExtension>
        </extensions>
      </trkpt>
      <trkpt lat="45.250873379409313201904296875" lon="-71.148611605167388916015625">
        <ele>738</ele>
        <time>2026-08-22T03:05:21.000Z</time>
        <extensions>
          <ns3:TrackPointExtension>
            <ns3:hr>113</ns3:hr>
            <ns3:cad>0</ns3:cad>
          </ns3:TrackPointExtension>
        </extensions>
      </trkpt>
      <trkpt lat="45.2508785761892795562744140625" lon="-71.148605234920978546142578125">
        <ele>737.79998779296875</ele>
        <time>2026-08-22T03:05:22.000Z</time>
        <extensions>
          <ns3:TrackPointExtension>
            <ns3:hr>113</ns3:hr>
            <ns3:cad>0</ns3:cad>
          </ns3:TrackPointExtension>
        </extensions>
      </trkpt>
      <trkpt lat="45.25088620372116565704345703125" lon="-71.14859073422849178314208984375">
        <ele>737.5999755859375</ele>
        <time>2026-08-22T03:05:23.000Z</time>
        <extensions>
          <ns3:TrackPointExtension>
            <ns3:hr>114</ns3:hr>
            <ns3:cad>0</ns3:cad>
          </ns3:TrackPointExtension>
        </extensions>
      </trkpt>
      <trkpt lat="45.2508933283388614654541015625" lon="-71.14858210086822509765625">
        <ele>737.4000244140625</ele>
        <time>2026-08-22T03:05:24.000Z</time>
        <extensions>
          <ns3:TrackPointExtension>
            <ns3:hr>114</ns3:hr>
            <ns3:cad>0</ns3:cad>
          </ns3:TrackPointExtension>
        </extensions>
      </trkpt>
      <trkpt lat="45.25090347044169902801513671875" lon="-71.14856894128024578094482421875">
        <ele>737.20001220703125</ele>
        <time>2026-08-22T03:05:25.000Z</time>
        <extensions>
          <ns3:TrackPointExtension>
            <ns3:hr>114</ns3:hr>
            <ns3:cad>0</ns3:cad>
          </ns3:TrackPointExtension>
        </extensions>
      </trkpt>
      <trkpt lat="45.25091327726840972900390625" lon="-71.148558966815471649169921875">
        <ele>736.79998779296875</ele>
        <time>2026-08-22T03:05:26.000Z</time>
        <extensions>
          <ns3:TrackPointExtension>
            <ns3:hr>114</ns3:hr>
            <ns3:cad>0</ns3:cad>
          </ns3:TrackPointExtension>
        </extensions>
      </trkpt>
      <trkpt lat="45.25091587565839290618896484375" lon="-71.14855385385453701019287109375">
        <ele>736.5999755859375</ele>
        <time>2026-08-22T03:05:27.000Z</time>
        <extensions>
          <ns3:TrackPointExtension>
            <ns3:hr>114</ns3:hr>
            <ns3:cad>0</ns3:cad>
          </ns3:TrackPointExtension>
        </extensions>
      </trkpt>
      <trkpt lat="45.25092224590480327606201171875" lon="-71.14854295738041400909423828125">
        <ele>736.4000244140625</ele>
        <time>2026-08-22T03:05:28.000Z</time>
        <extensions>
          <ns3:TrackPointExtension>
            <ns3:hr>114</ns3:hr>
            <ns3:cad>0</ns3:cad>
          </ns3:TrackPointExtension>
        </extensions>
      </trkpt>
      <trkpt lat="45.25092911906540393829345703125" lon="-71.14852937869727611541748046875">
        <ele>736.20001220703125</ele>
        <time>2026-08-22T03:05:29.000Z</time>
        <extensions>
          <ns3:TrackPointExtension>
            <ns3:hr>115</ns3:hr>
            <ns3:cad>0</ns3:cad>
          </ns3:TrackPointExtension>
        </extensions>
      </trkpt>
      <trkpt lat="45.25093481875956058502197265625" lon="-71.1485195718705654144287109375">
        <ele>735.79998779296875</ele>
        <time>2026-08-22T03:05:30.000Z</time>
        <extensions>
          <ns3:TrackPointExtension>
            <ns3:hr>115</ns3:hr>
            <ns3:cad>0</ns3:cad>
          </ns3:TrackPointExtension>
        </extensions>
      </trkpt>
      <trkpt lat="45.25094755925238132476806640625" lon="-71.1485034786164760589599609375">
        <ele>735.5999755859375</ele>
        <time>2026-08-22T03:05:31.000Z</time>
        <extensions>
          <ns3:TrackPointExtension>
            <ns3:hr>115</ns3:hr>
            <ns3:cad>0</ns3:cad>
          </ns3:TrackPointExtension>
        </extensions>
      </trkpt>
      <trkpt lat="45.25095426477491855621337890625" lon="-71.148491911590099334716796875">
        <ele>735.4000244140625</ele>
        <time>2026-08-22T03:05:32.000Z</time>
        <extensions>
          <ns3:TrackPointExtension>
            <ns3:hr>116</ns3:hr>
            <ns3:cad>0</ns3:cad>
          </ns3:TrackPointExtension>
        </extensions>
      </trkpt>
      <trkpt lat="45.25096063502132892608642578125" lon="-71.14847975783050060272216796875">
        <ele>735</ele>
        <time>2026-08-22T03:05:33.000Z</time>
        <extensions>
          <ns3:TrackPointExtension>
            <ns3:hr>116</ns3:hr>
            <ns3:cad>0</ns3:cad>
          </ns3:TrackPointExtension>
        </extensions>
      </trkpt>
      <trkpt lat="45.25096516124904155731201171875" lon="-71.1484776623547077178955078125">
        <ele>734.79998779296875</ele>
        <time>2026-08-22T03:05:34.000Z</time>
        <extensions>
          <ns3:TrackPointExtension>
            <ns3:hr>116</ns3:hr>
            <ns3:cad>0</ns3:cad>
          </ns3:TrackPointExtension>
        </extensions>
      </trkpt>
      <trkpt lat="45.2509714476764202117919921875" lon="-71.14847690798342227935791015625">
        <ele>734.5999755859375</ele>
        <time>2026-08-22T03:05:35.000Z</time>
        <extensions>
          <ns3:TrackPointExtension>
            <ns3:hr>116</ns3:hr>
            <ns3:cad>0</ns3:cad>
          </ns3:TrackPointExtension>
        </extensions>
      </trkpt>
      <trkpt lat="45.250977315008640289306640625" lon="-71.1484716273844242095947265625">
        <ele>734.4000244140625</ele>
        <time>2026-08-22T03:05:36.000Z</time>
        <extensions>
          <ns3:TrackPointExtension>
            <ns3:hr>116</ns3:hr>
            <ns3:cad>0</ns3:cad>
          </ns3:TrackPointExtension>
        </extensions>
      </trkpt>
      <trkpt lat="45.25098075158894062042236328125" lon="-71.1484689451754093170166015625">
        <ele>734.20001220703125</ele>
        <time>2026-08-22T03:05:37.000Z</time>
        <extensions>
          <ns3:TrackPointExtension>
            <ns3:hr>116</ns3:hr>
            <ns3:cad>0</ns3:cad>
          </ns3:TrackPointExtension>
        </extensions>
      </trkpt>
      <trkpt lat="45.2509771473705768585205078125" lon="-71.14846617914736270904541015625">
        <ele>734</ele>
        <time>2026-08-22T03:05:38.000Z</time>
        <extensions>
          <ns3:TrackPointExtension>
            <ns3:hr>117</ns3:hr>
            <ns3:cad>0</ns3:cad>
          </ns3:TrackPointExtension>
        </extensions>
      </trkpt>
      <trkpt lat="45.2509788237512111663818359375" lon="-71.14846282638609409332275390625">
        <ele>733.79998779296875</ele>
        <time>2026-08-22T03:05:39.000Z</time>
        <extensions>
          <ns3:TrackPointExtension>
            <ns3:hr>117</ns3:hr>
            <ns3:cad>0</ns3:cad>
          </ns3:TrackPointExtension>
        </extensions>
      </trkpt>
      <trkpt lat="45.25098041631281375885009765625" lon="-71.1484627425670623779296875">
        <ele>733.79998779296875</ele>
        <time>2026-08-22T03:05:40.000Z</time>
        <extensions>
          <ns3:TrackPointExtension>
            <ns3:hr>117</ns3:hr>
            <ns3:cad>0</ns3:cad>
          </ns3:TrackPointExtension>
        </extensions>
      </trkpt>
      <trkpt lat="45.2509845234453678131103515625" lon="-71.14846500568091869354248046875">
        <ele>733.5999755859375</ele>
        <time>2026-08-22T03:05:41.000Z</time>
        <extensions>
          <ns3:TrackPointExtension>
            <ns3:hr>117</ns3:hr>
            <ns3:cad>47</ns3:cad>
          </ns3:TrackPointExtension>
        </extensions>
      </trkpt>
      <trkpt lat="45.2509932406246662139892578125" lon="-71.14847305230796337127685546875">
        <ele>733.4000244140625</ele>
        <time>2026-08-22T03:05:42.000Z</time>
        <extensions>
          <ns3:TrackPointExtension>
            <ns3:hr>117</ns3:hr>
            <ns3:cad>47</ns3:cad>
          </ns3:TrackPointExtension>
        </extensions>
      </trkpt>
      <trkpt lat="45.25099868886172771453857421875" lon="-71.14847523160278797149658203125">
        <ele>733.20001220703125</ele>
        <time>2026-08-22T03:05:43.000Z</time>
        <extensions>
          <ns3:TrackPointExtension>
            <ns3:hr>117</ns3:hr>
            <ns3:cad>47</ns3:cad>
          </ns3:TrackPointExtension>
        </extensions>
      </trkpt>
      <trkpt lat="45.25100522674620151519775390625" lon="-71.14847556687891483306884765625">
        <ele>733</ele>
        <time>2026-08-22T03:05:44.000Z</time>
        <extensions>
          <ns3:TrackPointExtension>
            <ns3:hr>117</ns3:hr>
            <ns3:cad>47</ns3:cad>
          </ns3:TrackPointExtension>
        </extensions>
      </trkpt>
      <trkpt lat="45.2510131895542144775390625" lon="-71.1484746448695659637451171875">
        <ele>732.5999755859375</ele>
        <time>2026-08-22T03:05:45.000Z</time>
        <extensions>
          <ns3:TrackPointExtension>
            <ns3:hr>116</ns3:hr>
            <ns3:cad>47</ns3:cad>
          </ns3:TrackPointExtension>
        </extensions>
      </trkpt>
      <trkpt lat="45.25102383457124233245849609375" lon="-71.1484769918024539947509765625">
        <ele>732.20001220703125</ele>
        <time>2026-08-22T03:05:46.000Z</time>
        <extensions>
          <ns3:TrackPointExtension>
            <ns3:hr>115</ns3:hr>
            <ns3:cad>47</ns3:cad>
          </ns3:TrackPointExtension>
        </extensions>
      </trkpt>
      <trkpt lat="45.2510301209986209869384765625" lon="-71.14847690798342227935791015625">
        <ele>732</ele>
        <time>2026-08-22T03:05:47.000Z</time>
        <extensions>
          <ns3:TrackPointExtension>
            <ns3:hr>115</ns3:hr>
            <ns3:cad>47</ns3:cad>
          </ns3:TrackPointExtension>
        </extensions>
      </trkpt>
      <trkpt lat="45.25104294531047344207763671875" lon="-71.148470453917980194091796875">
        <ele>731.5999755859375</ele>
        <time>2026-08-22T03:05:48.000Z</time>
        <extensions>
          <ns3:TrackPointExtension>
            <ns3:hr>114</ns3:hr>
            <ns3:cad>0</ns3:cad>
          </ns3:TrackPointExtension>
        </extensions>
      </trkpt>
      <trkpt lat="45.25105518288910388946533203125" lon="-71.1484595574438571929931640625">
        <ele>731.20001220703125</ele>
        <time>2026-08-22T03:05:49.000Z</time>
        <extensions>
          <ns3:TrackPointExtension>
            <ns3:hr>114</ns3:hr>
            <ns3:cad>0</ns3:cad>
          </ns3:TrackPointExtension>
        </extensions>
      </trkpt>
      <trkpt lat="45.25106339715421199798583984375" lon="-71.1484493315219879150390625">
        <ele>731</ele>
        <time>2026-08-22T03:05:50.000Z</time>
        <extensions>
          <ns3:TrackPointExtension>
            <ns3:hr>114</ns3:hr>
            <ns3:cad>0</ns3:cad>
          </ns3:TrackPointExtension>
        </extensions>
      </trkpt>
      <trkpt lat="45.25107278488576412200927734375" lon="-71.14843784831464290618896484375">
        <ele>730.5999755859375</ele>
        <time>2026-08-22T03:05:51.000Z</time>
        <extensions>
          <ns3:TrackPointExtension>
            <ns3:hr>113</ns3:hr>
            <ns3:cad>0</ns3:cad>
          </ns3:TrackPointExtension>
        </extensions>
      </trkpt>
      <trkpt lat="45.25108116678893566131591796875" lon="-71.1484278738498687744140625">
        <ele>730.4000244140625</ele>
        <time>2026-08-22T03:05:52.000Z</time>
        <extensions>
          <ns3:TrackPointExtension>
            <ns3:hr>114</ns3:hr>
            <ns3:cad>0</ns3:cad>
          </ns3:TrackPointExtension>
        </extensions>
      </trkpt>
      <trkpt lat="45.25108938105404376983642578125" lon="-71.14841915667057037353515625">
        <ele>730.20001220703125</ele>
        <time>2026-08-22T03:05:53.000Z</time>
        <extensions>
          <ns3:TrackPointExtension>
            <ns3:hr>114</ns3:hr>
            <ns3:cad>60</ns3:cad>
          </ns3:TrackPointExtension>
        </extensions>
      </trkpt>
      <trkpt lat="45.2510985173285007476806640625" lon="-71.14840968511998653411865234375">
        <ele>729.79998779296875</ele>
        <time>2026-08-22T03:05:54.000Z</time>
        <extensions>
          <ns3:TrackPointExtension>
            <ns3:hr>114</ns3:hr>
            <ns3:cad>60</ns3:cad>
          </ns3:TrackPointExtension>
        </extensions>
      </trkpt>
      <trkpt lat="45.25110815651714801788330078125" lon="-71.14840482361614704132080078125">
        <ele>729.4000244140625</ele>
        <time>2026-08-22T03:05:55.000Z</time>
        <extensions>
          <ns3:TrackPointExtension>
            <ns3:hr>114</ns3:hr>
            <ns3:cad>60</ns3:cad>
          </ns3:TrackPointExtension>
        </extensions>
      </trkpt>
      <trkpt lat="45.2511186338961124420166015625" lon="-71.14840147085487842559814453125">
        <ele>729</ele>
        <time>2026-08-22T03:05:56.000Z</time>
        <extensions>
          <ns3:TrackPointExtension>
            <ns3:hr>114</ns3:hr>
            <ns3:cad>41</ns3:cad>
          </ns3:TrackPointExtension>
        </extensions>
      </trkpt>
      <trkpt lat="45.251131542026996612548828125" lon="-71.14839660935103893280029296875">
        <ele>728.5999755859375</ele>
        <time>2026-08-22T03:05:57.000Z</time>
        <extensions>
          <ns3:TrackPointExtension>
            <ns3:hr>115</ns3:hr>
            <ns3:cad>41</ns3:cad>
          </ns3:TrackPointExtension>
        </extensions>
      </trkpt>
      <trkpt lat="45.2511451207101345062255859375" lon="-71.14839610643684864044189453125">
        <ele>728</ele>
        <time>2026-08-22T03:05:58.000Z</time>
        <extensions>
          <ns3:TrackPointExtension>
            <ns3:hr>115</ns3:hr>
            <ns3:cad>41</ns3:cad>
          </ns3:TrackPointExtension>
        </extensions>
      </trkpt>
      <trkpt lat="45.25115442462265491485595703125" lon="-71.1483903229236602783203125">
        <ele>727.5999755859375</ele>
        <time>2026-08-22T03:05:59.000Z</time>
        <extensions>
          <ns3:TrackPointExtension>
            <ns3:hr>115</ns3:hr>
            <ns3:cad>41</ns3:cad>
          </ns3:TrackPointExtension>
        </extensions>
      </trkpt>
      <trkpt lat="45.25116364471614360809326171875" lon="-71.1483894847333431243896484375">
        <ele>727.20001220703125</ele>
        <time>2026-08-22T03:06:00.000Z</time>
        <extensions>
          <ns3:TrackPointExtension>
            <ns3:hr>116</ns3:hr>
            <ns3:cad>0</ns3:cad>
          </ns3:TrackPointExtension>
        </extensions>
      </trkpt>
      <trkpt lat="45.25117479264736175537109375" lon="-71.14839225076138973236083984375">
        <ele>726.79998779296875</ele>
        <time>2026-08-22T03:06:01.000Z</time>
        <extensions>
          <ns3:TrackPointExtension>
            <ns3:hr>116</ns3:hr>
            <ns3:cad>0</ns3:cad>
          </ns3:TrackPointExtension>
        </extensions>
      </trkpt>
      <trkpt lat="45.2511853538453578948974609375" lon="-71.14839443005621433258056640625">
        <ele>726.4000244140625</ele>
        <time>2026-08-22T03:06:02.000Z</time>
        <extensions>
          <ns3:TrackPointExtension>
            <ns3:hr>116</ns3:hr>
            <ns3:cad>0</ns3:cad>
          </ns3:TrackPointExtension>
        </extensions>
      </trkpt>
      <trkpt lat="45.251192562282085418701171875" lon="-71.14839476533234119415283203125">
        <ele>726.20001220703125</ele>
        <time>2026-08-22T03:06:03.000Z</time>
        <extensions>
          <ns3:TrackPointExtension>
            <ns3:hr>116</ns3:hr>
            <ns3:cad>0</ns3:cad>
          </ns3:TrackPointExtension>
        </extensions>
      </trkpt>
      <trkpt lat="45.25119784288108348846435546875" lon="-71.14840038120746612548828125">
        <ele>726</ele>
        <time>2026-08-22T03:06:04.000Z</time>
        <extensions>
          <ns3:TrackPointExtension>
            <ns3:hr>116</ns3:hr>
            <ns3:cad>0</ns3:cad>
          </ns3:TrackPointExtension>
        </extensions>
      </trkpt>
      <trkpt lat="45.2512084878981113433837890625" lon="-71.14840582944452762603759765625">
        <ele>725.5999755859375</ele>
        <time>2026-08-22T03:06:05.000Z</time>
        <extensions>
          <ns3:TrackPointExtension>
            <ns3:hr>116</ns3:hr>
            <ns3:cad>0</ns3:cad>
          </ns3:TrackPointExtension>
        </extensions>
      </trkpt>
      <trkpt lat="45.25122097693383693695068359375" lon="-71.148411445319652557373046875">
        <ele>725.20001220703125</ele>
        <time>2026-08-22T03:06:06.000Z</time>
        <extensions>
          <ns3:TrackPointExtension>
            <ns3:hr>116</ns3:hr>
            <ns3:cad>0</ns3:cad>
          </ns3:TrackPointExtension>
        </extensions>
      </trkpt>
      <trkpt lat="45.25123019702732563018798828125" lon="-71.1484169773757457733154296875">
        <ele>724.79998779296875</ele>
        <time>2026-08-22T03:06:07.000Z</time>
        <extensions>
          <ns3:TrackPointExtension>
            <ns3:hr>117</ns3:hr>
            <ns3:cad>0</ns3:cad>
          </ns3:TrackPointExtension>
        </extensions>
      </trkpt>
      <trkpt lat="45.251239500939846038818359375" lon="-71.14842762239277362823486328125">
        <ele>724.4000244140625</ele>
        <time>2026-08-22T03:06:08.000Z</time>
        <extensions>
          <ns3:TrackPointExtension>
            <ns3:hr>117</ns3:hr>
            <ns3:cad>0</ns3:cad>
          </ns3:TrackPointExtension>
        </extensions>
      </trkpt>
      <trkpt lat="45.25124629028141498565673828125" lon="-71.14843516610562801361083984375">
        <ele>724</ele>
        <time>2026-08-22T03:06:09.000Z</time>
        <extensions>
          <ns3:TrackPointExtension>
            <ns3:hr>117</ns3:hr>
            <ns3:cad>0</ns3:cad>
          </ns3:TrackPointExtension>
        </extensions>
      </trkpt>
      <trkpt lat="45.25125953368842601776123046875" lon="-71.1484411172568798065185546875">
        <ele>723.5999755859375</ele>
        <time>2026-08-22T03:06:10.000Z</time>
        <extensions>
          <ns3:TrackPointExtension>
            <ns3:hr>117</ns3:hr>
            <ns3:cad>0</ns3:cad>
          </ns3:TrackPointExtension>
        </extensions>
      </trkpt>
      <trkpt lat="45.25126774795353412628173828125" lon="-71.1484538577497005462646484375">
        <ele>723.20001220703125</ele>
        <time>2026-08-22T03:06:11.000Z</time>
        <extensions>
          <ns3:TrackPointExtension>
            <ns3:hr>116</ns3:hr>
            <ns3:cad>0</ns3:cad>
          </ns3:TrackPointExtension>
        </extensions>
      </trkpt>
      <trkpt lat="45.2512728609144687652587890625" lon="-71.1484598927199840545654296875">
        <ele>722.79998779296875</ele>
        <time>2026-08-22T03:06:12.000Z</time>
        <extensions>
          <ns3:TrackPointExtension>
            <ns3:hr>117</ns3:hr>
            <ns3:cad>0</ns3:cad>
          </ns3:TrackPointExtension>
        </extensions>
      </trkpt>
      <trkpt lat="45.25128400884568691253662109375" lon="-71.14847037009894847869873046875">
        <ele>722.4000244140625</ele>
        <time>2026-08-22T03:06:13.000Z</time>
        <extensions>
          <ns3:TrackPointExtension>
            <ns3:hr>117</ns3:hr>
            <ns3:cad>0</ns3:cad>
          </ns3:TrackPointExtension>
        </extensions>
      </trkpt>
      <trkpt lat="45.25129188783466815948486328125" lon="-71.14848126657307147979736328125">
        <ele>722</ele>
        <time>2026-08-22T03:06:14.000Z</time>
        <extensions>
          <ns3:TrackPointExtension>
            <ns3:hr>117</ns3:hr>
            <ns3:cad>0</ns3:cad>
          </ns3:TrackPointExtension>
        </extensions>
      </trkpt>
      <trkpt lat="45.2513037063181400299072265625" lon="-71.14849627017974853515625">
        <ele>721.79998779296875</ele>
        <time>2026-08-22T03:06:15.000Z</time>
        <extensions>
          <ns3:TrackPointExtension>
            <ns3:hr>117</ns3:hr>
            <ns3:cad>0</ns3:cad>
          </ns3:TrackPointExtension>
        </extensions>
      </trkpt>
      <trkpt lat="45.25131267495453357696533203125" lon="-71.1485075019299983978271484375">
        <ele>721.20001220703125</ele>
        <time>2026-08-22T03:06:16.000Z</time>
        <extensions>
          <ns3:TrackPointExtension>
            <ns3:hr>118</ns3:hr>
            <ns3:cad>0</ns3:cad>
          </ns3:TrackPointExtension>
        </extensions>
      </trkpt>
      <trkpt lat="45.25132055394351482391357421875" lon="-71.148520410060882568359375">
        <ele>720.79998779296875</ele>
        <time>2026-08-22T03:06:17.000Z</time>
        <extensions>
          <ns3:TrackPointExtension>
            <ns3:hr>118</ns3:hr>
            <ns3:cad>0</ns3:cad>
          </ns3:TrackPointExtension>
        </extensions>
      </trkpt>
      <trkpt lat="45.2513295225799083709716796875" lon="-71.1485376767814159393310546875">
        <ele>720.5999755859375</ele>
        <time>2026-08-22T03:06:18.000Z</time>
        <extensions>
          <ns3:TrackPointExtension>
            <ns3:hr>118</ns3:hr>
            <ns3:cad>0</ns3:cad>
          </ns3:TrackPointExtension>
        </extensions>
      </trkpt>
      <trkpt lat="45.2513385750353336334228515625" lon="-71.14855594933032989501953125">
        <ele>720.20001220703125</ele>
        <time>2026-08-22T03:06:19.000Z</time>
        <extensions>
          <ns3:TrackPointExtension>
            <ns3:hr>117</ns3:hr>
            <ns3:cad>0</ns3:cad>
          </ns3:TrackPointExtension>
        </extensions>
      </trkpt>
      <trkpt lat="45.25134268216788768768310546875" lon="-71.1485705338418483734130859375">
        <ele>720</ele>
        <time>2026-08-22T03:06:20.000Z</time>
        <extensions>
          <ns3:TrackPointExtension>
            <ns3:hr>118</ns3:hr>
            <ns3:cad>0</ns3:cad>
          </ns3:TrackPointExtension>
        </extensions>
      </trkpt>
      <trkpt lat="45.25134603492915630340576171875" lon="-71.1485946737229824066162109375">
        <ele>719.79998779296875</ele>
        <time>2026-08-22T03:06:21.000Z</time>
        <extensions>
          <ns3:TrackPointExtension>
            <ns3:hr>118</ns3:hr>
            <ns3:cad>0</ns3:cad>
          </ns3:TrackPointExtension>
        </extensions>
      </trkpt>
      <trkpt lat="45.25135290808975696563720703125" lon="-71.14861336536705493927001953125">
        <ele>719.79998779296875</ele>
        <time>2026-08-22T03:06:22.000Z</time>
        <extensions>
          <ns3:TrackPointExtension>
            <ns3:hr>119</ns3:hr>
            <ns3:cad>0</ns3:cad>
          </ns3:TrackPointExtension>
        </extensions>
      </trkpt>
      <trkpt lat="45.25136078707873821258544921875" lon="-71.1486362479627132415771484375">
        <ele>719.5999755859375</ele>
        <time>2026-08-22T03:06:23.000Z</time>
        <extensions>
          <ns3:TrackPointExtension>
            <ns3:hr>119</ns3:hr>
            <ns3:cad>0</ns3:cad>
          </ns3:TrackPointExtension>
        </extensions>
      </trkpt>
      <trkpt lat="45.251361541450023651123046875" lon="-71.14864923991262912750244140625">
        <ele>719.4000244140625</ele>
        <time>2026-08-22T03:06:24.000Z</time>
        <extensions>
          <ns3:TrackPointExtension>
            <ns3:hr>119</ns3:hr>
            <ns3:cad>0</ns3:cad>
          </ns3:TrackPointExtension>
        </extensions>
      </trkpt>
      <trkpt lat="45.2513643912971019744873046875" lon="-71.14866994321346282958984375">
        <ele>719.20001220703125</ele>
        <time>2026-08-22T03:06:25.000Z</time>
        <extensions>
          <ns3:TrackPointExtension>
            <ns3:hr>119</ns3:hr>
            <ns3:cad>0</ns3:cad>
          </ns3:TrackPointExtension>
        </extensions>
      </trkpt>
      <trkpt lat="45.2513687498867511749267578125" lon="-71.1486811749637126922607421875">
        <ele>719</ele>
        <time>2026-08-22T03:06:26.000Z</time>
        <extensions>
          <ns3:TrackPointExtension>
            <ns3:hr>119</ns3:hr>
            <ns3:cad>0</ns3:cad>
          </ns3:TrackPointExtension>
        </extensions>
      </trkpt>
      <trkpt lat="45.2513710968196392059326171875" lon="-71.14870020188391208648681640625">
        <ele>719</ele>
        <time>2026-08-22T03:06:27.000Z</time>
        <extensions>
          <ns3:TrackPointExtension>
            <ns3:hr>118</ns3:hr>
            <ns3:cad>67</ns3:cad>
          </ns3:TrackPointExtension>
        </extensions>
      </trkpt>
      <trkpt lat="45.251369588077068328857421875" lon="-71.1487177200615406036376953125">
        <ele>719.20001220703125</ele>
        <time>2026-08-22T03:06:28.000Z</time>
        <extensions>
          <ns3:TrackPointExtension>
            <ns3:hr>118</ns3:hr>
            <ns3:cad>67</ns3:cad>
          </ns3:TrackPointExtension>
        </extensions>
      </trkpt>
      <trkpt lat="45.25136791169643402099609375" lon="-71.148732639849185943603515625">
        <ele>719.20001220703125</ele>
        <time>2026-08-22T03:06:29.000Z</time>
        <extensions>
          <ns3:TrackPointExtension>
            <ns3:hr>119</ns3:hr>
            <ns3:cad>67</ns3:cad>
          </ns3:TrackPointExtension>
        </extensions>
      </trkpt>
      <trkpt lat="45.25136791169643402099609375" lon="-71.14874714054167270660400390625">
        <ele>719.20001220703125</ele>
        <time>2026-08-22T03:06:30.000Z</time>
        <extensions>
          <ns3:TrackPointExtension>
            <ns3:hr>119</ns3:hr>
            <ns3:cad>67</ns3:cad>
          </ns3:TrackPointExtension>
        </extensions>
      </trkpt>
      <trkpt lat="45.25137252174317836761474609375" lon="-71.1487666703760623931884765625">
        <ele>719</ele>
        <time>2026-08-22T03:06:31.000Z</time>
        <extensions>
          <ns3:TrackPointExtension>
            <ns3:hr>119</ns3:hr>
            <ns3:cad>67</ns3:cad>
          </ns3:TrackPointExtension>
        </extensions>
      </trkpt>
      <trkpt lat="45.25137889198958873748779296875" lon="-71.14878988824784755706787109375">
        <ele>718.79998779296875</ele>
        <time>2026-08-22T03:06:32.000Z</time>
        <extensions>
          <ns3:TrackPointExtension>
            <ns3:hr>120</ns3:hr>
            <ns3:cad>48</ns3:cad>
          </ns3:TrackPointExtension>
        </extensions>
      </trkpt>
      <trkpt lat="45.25138308294117450714111328125" lon="-71.14880631677806377410888671875">
        <ele>718.5999755859375</ele>
        <time>2026-08-22T03:06:33.000Z</time>
        <extensions>
          <ns3:TrackPointExtension>
            <ns3:hr>120</ns3:hr>
            <ns3:cad>48</ns3:cad>
          </ns3:TrackPointExtension>
        </extensions>
      </trkpt>
      <trkpt lat="45.2513902075588703155517578125" lon="-71.14882844500243663787841796875">
        <ele>718.4000244140625</ele>
        <time>2026-08-22T03:06:34.000Z</time>
        <extensions>
          <ns3:TrackPointExtension>
            <ns3:hr>120</ns3:hr>
            <ns3:cad>48</ns3:cad>
          </ns3:TrackPointExtension>
        </extensions>
      </trkpt>
      <trkpt lat="45.2513959072530269622802734375" lon="-71.1488531716167926788330078125">
        <ele>718</ele>
        <time>2026-08-22T03:06:35.000Z</time>
        <extensions>
          <ns3:TrackPointExtension>
            <ns3:hr>120</ns3:hr>
            <ns3:cad>48</ns3:cad>
          </ns3:TrackPointExtension>
        </extensions>
      </trkpt>
      <trkpt lat="45.25139934383332729339599609375" lon="-71.14887387491762638092041015625">
        <ele>717.79998779296875</ele>
        <time>2026-08-22T03:06:36.000Z</time>
        <extensions>
          <ns3:TrackPointExtension>
            <ns3:hr>120</ns3:hr>
            <ns3:cad>48</ns3:cad>
          </ns3:TrackPointExtension>
        </extensions>
      </trkpt>
      <trkpt lat="45.251404456794261932373046875" lon="-71.14889751188457012176513671875">
        <ele>717.5999755859375</ele>
        <time>2026-08-22T03:06:37.000Z</time>
        <extensions>
          <ns3:TrackPointExtension>
            <ns3:hr>120</ns3:hr>
            <ns3:cad>48</ns3:cad>
          </ns3:TrackPointExtension>
        </extensions>
      </trkpt>
      <trkpt lat="45.25141007266938686370849609375" lon="-71.14891611970961093902587890625">
        <ele>717.4000244140625</ele>
        <time>2026-08-22T03:06:38.000Z</time>
        <extensions>
          <ns3:TrackPointExtension>
            <ns3:hr>120</ns3:hr>
            <ns3:cad>48</ns3:cad>
          </ns3:TrackPointExtension>
        </extensions>
      </trkpt>
      <trkpt lat="45.25141929276287555694580078125" lon="-71.148931123316287994384765625">
        <ele>717.20001220703125</ele>
        <time>2026-08-22T03:06:39.000Z</time>
        <extensions>
          <ns3:TrackPointExtension>
            <ns3:hr>120</ns3:hr>
            <ns3:cad>48</ns3:cad>
          </ns3:TrackPointExtension>
        </extensions>
      </trkpt>
      <trkpt lat="45.25142767466604709625244140625" lon="-71.1489557661116123199462890625">
        <ele>717.20001220703125</ele>
        <time>2026-08-22T03:06:40.000Z</time>
        <extensions>
          <ns3:TrackPointExtension>
            <ns3:hr>120</ns3:hr>
            <ns3:cad>48</ns3:cad>
          </ns3:TrackPointExtension>
        </extensions>
      </trkpt>
      <trkpt lat="45.25143505074083805084228515625" lon="-71.14897965453565120697021484375">
        <ele>717</ele>
        <time>2026-08-22T03:06:41.000Z</time>
        <extensions>
          <ns3:TrackPointExtension>
            <ns3:hr>120</ns3:hr>
            <ns3:cad>48</ns3:cad>
          </ns3:TrackPointExtension>
        </extensions>
      </trkpt>
      <trkpt lat="45.25144494138658046722412109375" lon="-71.14899826236069202423095703125">
        <ele>716.79998779296875</ele>
        <time>2026-08-22T03:06:42.000Z</time>
        <extensions>
          <ns3:TrackPointExtension>
            <ns3:hr>121</ns3:hr>
            <ns3:cad>48</ns3:cad>
          </ns3:TrackPointExtension>
        </extensions>
      </trkpt>
      <trkpt lat="45.25145013816654682159423828125" lon="-71.14902541972696781158447265625">
        <ele>716.4000244140625</ele>
        <time>2026-08-22T03:06:43.000Z</time>
        <extensions>
          <ns3:TrackPointExtension>
            <ns3:hr>120</ns3:hr>
            <ns3:cad>48</ns3:cad>
          </ns3:TrackPointExtension>
        </extensions>
      </trkpt>
      <trkpt lat="45.251458100974559783935546875" lon="-71.14904411137104034423828125">
        <ele>716.20001220703125</ele>
        <time>2026-08-22T03:06:44.000Z</time>
        <extensions>
          <ns3:TrackPointExtension>
            <ns3:hr>120</ns3:hr>
            <ns3:cad>48</ns3:cad>
          </ns3:TrackPointExtension>
        </extensions>
      </trkpt>
      <trkpt lat="45.25146715342998504638671875" lon="-71.14905760623514652252197265625">
        <ele>715.79998779296875</ele>
        <time>2026-08-22T03:06:45.000Z</time>
        <extensions>
          <ns3:TrackPointExtension>
            <ns3:hr>120</ns3:hr>
            <ns3:cad>48</ns3:cad>
          </ns3:TrackPointExtension>
        </extensions>
      </trkpt>
      <trkpt lat="45.25147293694317340850830078125" lon="-71.14907084964215755462646484375">
        <ele>715.5999755859375</ele>
        <time>2026-08-22T03:06:46.000Z</time>
        <extensions>
          <ns3:TrackPointExtension>
            <ns3:hr>121</ns3:hr>
            <ns3:cad>0</ns3:cad>
          </ns3:TrackPointExtension>
        </extensions>
      </trkpt>
      <trkpt lat="45.25147947482764720916748046875" lon="-71.14908794872462749481201171875">
        <ele>715.4000244140625</ele>
        <time>2026-08-22T03:06:47.000Z</time>
        <extensions>
          <ns3:TrackPointExtension>
            <ns3:hr>121</ns3:hr>
            <ns3:cad>0</ns3:cad>
          </ns3:TrackPointExtension>
        </extensions>
      </trkpt>
      <trkpt lat="45.25148148648440837860107421875" lon="-71.14910253323614597320556640625">
        <ele>715.20001220703125</ele>
        <time>2026-08-22T03:06:48.000Z</time>
        <extensions>
          <ns3:TrackPointExtension>
            <ns3:hr>121</ns3:hr>
            <ns3:cad>0</ns3:cad>
          </ns3:TrackPointExtension>
        </extensions>
      </trkpt>
      <trkpt lat="45.251480229198932647705078125" lon="-71.1491239070892333984375">
        <ele>714.79998779296875</ele>
        <time>2026-08-22T03:06:49.000Z</time>
        <extensions>
          <ns3:TrackPointExtension>
            <ns3:hr>121</ns3:hr>
            <ns3:cad>0</ns3:cad>
          </ns3:TrackPointExtension>
        </extensions>
      </trkpt>
      <trkpt lat="45.251478217542171478271484375" lon="-71.14914226345717906951904296875">
        <ele>714.5999755859375</ele>
        <time>2026-08-22T03:06:50.000Z</time>
        <extensions>
          <ns3:TrackPointExtension>
            <ns3:hr>121</ns3:hr>
            <ns3:cad>49</ns3:cad>
          </ns3:TrackPointExtension>
        </extensions>
      </trkpt>
      <trkpt lat="45.251478888094425201416015625" lon="-71.14916187711060047149658203125">
        <ele>714.4000244140625</ele>
        <time>2026-08-22T03:06:51.000Z</time>
        <extensions>
          <ns3:TrackPointExtension>
            <ns3:hr>120</ns3:hr>
            <ns3:cad>49</ns3:cad>
          </ns3:TrackPointExtension>
        </extensions>
      </trkpt>
      <trkpt lat="45.25148031301796436309814453125" lon="-71.1491894535720348358154296875">
        <ele>714</ele>
        <time>2026-08-22T03:06:52.000Z</time>
        <extensions>
          <ns3:TrackPointExtension>
            <ns3:hr>121</ns3:hr>
            <ns3:cad>49</ns3:cad>
          </ns3:TrackPointExtension>
        </extensions>
      </trkpt>
      <trkpt lat="45.25148198939859867095947265625" lon="-71.1492082290351390838623046875">
        <ele>713.5999755859375</ele>
        <time>2026-08-22T03:06:53.000Z</time>
        <extensions>
          <ns3:TrackPointExtension>
            <ns3:hr>121</ns3:hr>
            <ns3:cad>0</ns3:cad>
          </ns3:TrackPointExtension>
        </extensions>
      </trkpt>
      <trkpt lat="45.25148592889308929443359375" lon="-71.14923278801143169403076171875">
        <ele>713.4000244140625</ele>
        <time>2026-08-22T03:06:54.000Z</time>
        <extensions>
          <ns3:TrackPointExtension>
            <ns3:hr>120</ns3:hr>
            <ns3:cad>0</ns3:cad>
          </ns3:TrackPointExtension>
        </extensions>
      </trkpt>
      <trkpt lat="45.25149037130177021026611328125" lon="-71.14925860427320003509521484375">
        <ele>713</ele>
        <time>2026-08-22T03:06:55.000Z</time>
        <extensions>
          <ns3:TrackPointExtension>
            <ns3:hr>120</ns3:hr>
            <ns3:cad>0</ns3:cad>
          </ns3:TrackPointExtension>
        </extensions>
      </trkpt>
      <trkpt lat="45.25149531662464141845703125" lon="-71.14928014576435089111328125">
        <ele>712.5999755859375</ele>
        <time>2026-08-22T03:06:56.000Z</time>
        <extensions>
          <ns3:TrackPointExtension>
            <ns3:hr>120</ns3:hr>
            <ns3:cad>0</ns3:cad>
          </ns3:TrackPointExtension>
        </extensions>
      </trkpt>
      <trkpt lat="45.25150160305202007293701171875" lon="-71.1492980830371379852294921875">
        <ele>712.20001220703125</ele>
        <time>2026-08-22T03:06:57.000Z</time>
        <extensions>
          <ns3:TrackPointExtension>
            <ns3:hr>120</ns3:hr>
            <ns3:cad>0</ns3:cad>
          </ns3:TrackPointExtension>
        </extensions>
      </trkpt>
      <trkpt lat="45.25151006877422332763671875" lon="-71.14931928925216197967529296875">
        <ele>711.79998779296875</ele>
        <time>2026-08-22T03:06:58.000Z</time>
        <extensions>
          <ns3:TrackPointExtension>
            <ns3:hr>120</ns3:hr>
            <ns3:cad>40</ns3:cad>
          </ns3:TrackPointExtension>
        </extensions>
      </trkpt>
      <trkpt lat="45.25151669047772884368896484375" lon="-71.14933454431593418121337890625">
        <ele>711.20001220703125</ele>
        <time>2026-08-22T03:06:59.000Z</time>
        <extensions>
          <ns3:TrackPointExtension>
            <ns3:hr>120</ns3:hr>
            <ns3:cad>40</ns3:cad>
          </ns3:TrackPointExtension>
        </extensions>
      </trkpt>
      <trkpt lat="45.251524150371551513671875" lon="-71.1493554152548313140869140625">
        <ele>711</ele>
        <time>2026-08-22T03:07:00.000Z</time>
        <extensions>
          <ns3:TrackPointExtension>
            <ns3:hr>121</ns3:hr>
            <ns3:cad>40</ns3:cad>
          </ns3:TrackPointExtension>
        </extensions>
      </trkpt>
      <trkpt lat="45.251529179513454437255859375" lon="-71.1493721790611743927001953125">
        <ele>710.5999755859375</ele>
        <time>2026-08-22T03:07:01.000Z</time>
        <extensions>
          <ns3:TrackPointExtension>
            <ns3:hr>121</ns3:hr>
            <ns3:cad>40</ns3:cad>
          </ns3:TrackPointExtension>
        </extensions>
      </trkpt>
      <trkpt lat="45.25153932161629199981689453125" lon="-71.1493907868862152099609375">
        <ele>710.20001220703125</ele>
        <time>2026-08-22T03:07:02.000Z</time>
        <extensions>
          <ns3:TrackPointExtension>
            <ns3:hr>121</ns3:hr>
            <ns3:cad>40</ns3:cad>
          </ns3:TrackPointExtension>
        </extensions>
      </trkpt>
      <trkpt lat="45.25155122391879558563232421875" lon="-71.14940763451159000396728515625">
        <ele>710</ele>
        <time>2026-08-22T03:07:03.000Z</time>
        <extensions>
          <ns3:TrackPointExtension>
            <ns3:hr>121</ns3:hr>
            <ns3:cad>40</ns3:cad>
          </ns3:TrackPointExtension>
        </extensions>
      </trkpt>
      <trkpt lat="45.2515662275254726409912109375" lon="-71.149431355297565460205078125">
        <ele>709.5999755859375</ele>
        <time>2026-08-22T03:07:04.000Z</time>
        <extensions>
          <ns3:TrackPointExtension>
            <ns3:hr>121</ns3:hr>
            <ns3:cad>40</ns3:cad>
          </ns3:TrackPointExtension>
        </extensions>
      </trkpt>
      <trkpt lat="45.25157720781862735748291015625" lon="-71.1494497954845428466796875">
        <ele>709.20001220703125</ele>
        <time>2026-08-22T03:07:05.000Z</time>
        <extensions>
          <ns3:TrackPointExtension>
            <ns3:hr>122</ns3:hr>
            <ns3:cad>40</ns3:cad>
          </ns3:TrackPointExtension>
        </extensions>
      </trkpt>
      <trkpt lat="45.2515893615782260894775390625" lon="-71.1494712531566619873046875">
        <ele>708.79998779296875</ele>
        <time>2026-08-22T03:07:06.000Z</time>
        <extensions>
          <ns3:TrackPointExtension>
            <ns3:hr>122</ns3:hr>
            <ns3:cad>40</ns3:cad>
          </ns3:TrackPointExtension>
        </extensions>
      </trkpt>
      <trkpt lat="45.25160260498523712158203125" lon="-71.14949430339038372039794921875">
        <ele>708.4000244140625</ele>
        <time>2026-08-22T03:07:07.000Z</time>
        <extensions>
          <ns3:TrackPointExtension>
            <ns3:hr>122</ns3:hr>
            <ns3:cad>40</ns3:cad>
          </ns3:TrackPointExtension>
        </extensions>
      </trkpt>
      <trkpt lat="45.25161392055451869964599609375" lon="-71.1495153419673442840576171875">
        <ele>708</ele>
        <time>2026-08-22T03:07:08.000Z</time>
        <extensions>
          <ns3:TrackPointExtension>
            <ns3:hr>122</ns3:hr>
            <ns3:cad>40</ns3:cad>
          </ns3:TrackPointExtension>
        </extensions>
      </trkpt>
      <trkpt lat="45.25162406265735626220703125" lon="-71.14952933974564075469970703125">
        <ele>707.79998779296875</ele>
        <time>2026-08-22T03:07:09.000Z</time>
        <extensions>
          <ns3:TrackPointExtension>
            <ns3:hr>122</ns3:hr>
            <ns3:cad>40</ns3:cad>
          </ns3:TrackPointExtension>
        </extensions>
      </trkpt>
      <trkpt lat="45.2516369707882404327392578125" lon="-71.1495455168187618255615234375">
        <ele>707.5999755859375</ele>
        <time>2026-08-22T03:07:10.000Z</time>
        <extensions>
          <ns3:TrackPointExtension>
            <ns3:hr>123</ns3:hr>
            <ns3:cad>40</ns3:cad>
          </ns3:TrackPointExtension>
        </extensions>
      </trkpt>
      <trkpt lat="45.25165650062263011932373046875" lon="-71.1495632864534854888916015625">
        <ele>707.5999755859375</ele>
        <time>2026-08-22T03:07:11.000Z</time>
        <extensions>
          <ns3:TrackPointExtension>
            <ns3:hr>122</ns3:hr>
            <ns3:cad>40</ns3:cad>
          </ns3:TrackPointExtension>
        </extensions>
      </trkpt>
      <trkpt lat="45.251676701009273529052734375" lon="-71.14957191981375217437744140625">
        <ele>707.4000244140625</ele>
        <time>2026-08-22T03:07:12.000Z</time>
        <extensions>
          <ns3:TrackPointExtension>
            <ns3:hr>122</ns3:hr>
            <ns3:cad>40</ns3:cad>
          </ns3:TrackPointExtension>
        </extensions>
      </trkpt>
      <trkpt lat="45.25169380009174346923828125" lon="-71.149573512375354766845703125">
        <ele>707.20001220703125</ele>
        <time>2026-08-22T03:07:13.000Z</time>
        <extensions>
          <ns3:TrackPointExtension>
            <ns3:hr>122</ns3:hr>
            <ns3:cad>40</ns3:cad>
          </ns3:TrackPointExtension>
        </extensions>
      </trkpt>
      <trkpt lat="45.251706875860691070556640625" lon="-71.14956940524280071258544921875">
        <ele>706.79998779296875</ele>
        <time>2026-08-22T03:07:14.000Z</time>
        <extensions>
          <ns3:TrackPointExtension>
            <ns3:hr>122</ns3:hr>
            <ns3:cad>40</ns3:cad>
          </ns3:TrackPointExtension>
        </extensions>
      </trkpt>
      <trkpt lat="45.25171668268740177154541015625" lon="-71.14956320263445377349853515625">
        <ele>706.4000244140625</ele>
        <time>2026-08-22T03:07:15.000Z</time>
        <extensions>
          <ns3:TrackPointExtension>
            <ns3:hr>122</ns3:hr>
            <ns3:cad>40</ns3:cad>
          </ns3:TrackPointExtension>
        </extensions>
      </trkpt>
      <trkpt lat="45.25172405876219272613525390625" lon="-71.14954300224781036376953125">
        <ele>706</ele>
        <time>2026-08-22T03:07:16.000Z</time>
        <extensions>
          <ns3:TrackPointExtension>
            <ns3:hr>122</ns3:hr>
            <ns3:cad>40</ns3:cad>
          </ns3:TrackPointExtension>
        </extensions>
      </trkpt>
      <trkpt lat="45.25172590278089046478271484375" lon="-71.14951618015766143798828125">
        <ele>705.79998779296875</ele>
        <time>2026-08-22T03:07:17.000Z</time>
        <extensions>
          <ns3:TrackPointExtension>
            <ns3:hr>122</ns3:hr>
            <ns3:cad>40</ns3:cad>
          </ns3:TrackPointExtension>
        </extensions>
      </trkpt>
      <trkpt lat="45.25172992609441280364990234375" lon="-71.14949899725615978240966796875">
        <ele>705.4000244140625</ele>
        <time>2026-08-22T03:07:18.000Z</time>
        <extensions>
          <ns3:TrackPointExtension>
            <ns3:hr>122</ns3:hr>
            <ns3:cad>40</ns3:cad>
          </ns3:TrackPointExtension>
        </extensions>
      </trkpt>
      <trkpt lat="45.2517347037792205810546875" lon="-71.14947284571826457977294921875">
        <ele>705.4000244140625</ele>
        <time>2026-08-22T03:07:19.000Z</time>
        <extensions>
          <ns3:TrackPointExtension>
            <ns3:hr>121</ns3:hr>
            <ns3:cad>40</ns3:cad>
          </ns3:TrackPointExtension>
        </extensions>
      </trkpt>
      <trkpt lat="45.25173998437821865081787109375" lon="-71.1494516395032405853271484375">
        <ele>705.20001220703125</ele>
        <time>2026-08-22T03:07:20.000Z</time>
        <extensions>
          <ns3:TrackPointExtension>
            <ns3:hr>121</ns3:hr>
            <ns3:cad>40</ns3:cad>
          </ns3:TrackPointExtension>
        </extensions>
      </trkpt>
      <trkpt lat="45.2517395652830600738525390625" lon="-71.1494258232414722442626953125">
        <ele>705.20001220703125</ele>
        <time>2026-08-22T03:07:21.000Z</time>
        <extensions>
          <ns3:TrackPointExtension>
            <ns3:hr>120</ns3:hr>
            <ns3:cad>40</ns3:cad>
          </ns3:TrackPointExtension>
        </extensions>
      </trkpt>
      <trkpt lat="45.25174082256853580474853515625" lon="-71.14939791150391101837158203125">
        <ele>705.20001220703125</ele>
        <time>2026-08-22T03:07:22.000Z</time>
        <extensions>
          <ns3:TrackPointExtension>
            <ns3:hr>121</ns3:hr>
            <ns3:cad>40</ns3:cad>
          </ns3:TrackPointExtension>
        </extensions>
      </trkpt>
      <trkpt lat="45.25174233131110668182373046875" lon="-71.14937578327953815460205078125">
        <ele>705</ele>
        <time>2026-08-22T03:07:23.000Z</time>
        <extensions>
          <ns3:TrackPointExtension>
            <ns3:hr>120</ns3:hr>
            <ns3:cad>40</ns3:cad>
          </ns3:TrackPointExtension>
        </extensions>
      </trkpt>
      <trkpt lat="45.25174082256853580474853515625" lon="-71.1493534035980701446533203125">
        <ele>705</ele>
        <time>2026-08-22T03:07:24.000Z</time>
        <extensions>
          <ns3:TrackPointExtension>
            <ns3:hr>120</ns3:hr>
            <ns3:cad>40</ns3:cad>
          </ns3:TrackPointExtension>
        </extensions>
      </trkpt>
      <trkpt lat="45.251741074025630950927734375" lon="-71.149328760802745819091796875">
        <ele>705</ele>
        <time>2026-08-22T03:07:25.000Z</time>
        <extensions>
          <ns3:TrackPointExtension>
            <ns3:hr>120</ns3:hr>
            <ns3:cad>64</ns3:cad>
          </ns3:TrackPointExtension>
        </extensions>
      </trkpt>
      <trkpt lat="45.25174207985401153564453125" lon="-71.14930336363613605499267578125">
        <ele>705</ele>
        <time>2026-08-22T03:07:26.000Z</time>
        <extensions>
          <ns3:TrackPointExtension>
            <ns3:hr>120</ns3:hr>
            <ns3:cad>64</ns3:cad>
          </ns3:TrackPointExtension>
        </extensions>
      </trkpt>
      <trkpt lat="45.25174350477755069732666015625" lon="-71.1492907069623470306396484375">
        <ele>705</ele>
        <time>2026-08-22T03:07:27.000Z</time>
        <extensions>
          <ns3:TrackPointExtension>
            <ns3:hr>120</ns3:hr>
            <ns3:cad>64</ns3:cad>
          </ns3:TrackPointExtension>
        </extensions>
      </trkpt>
      <trkpt lat="45.25174233131110668182373046875" lon="-71.14926899783313274383544921875">
        <ele>705</ele>
        <time>2026-08-22T03:07:28.000Z</time>
        <extensions>
          <ns3:TrackPointExtension>
            <ns3:hr>120</ns3:hr>
            <ns3:cad>64</ns3:cad>
          </ns3:TrackPointExtension>
        </extensions>
      </trkpt>
      <trkpt lat="45.25174283422529697418212890625" lon="-71.14925198256969451904296875">
        <ele>704.79998779296875</ele>
        <time>2026-08-22T03:07:29.000Z</time>
        <extensions>
          <ns3:TrackPointExtension>
            <ns3:hr>119</ns3:hr>
            <ns3:cad>64</ns3:cad>
          </ns3:TrackPointExtension>
        </extensions>
      </trkpt>
      <trkpt lat="45.2517435885965824127197265625" lon="-71.14923714660108089447021484375">
        <ele>704.5999755859375</ele>
        <time>2026-08-22T03:07:30.000Z</time>
        <extensions>
          <ns3:TrackPointExtension>
            <ns3:hr>120</ns3:hr>
            <ns3:cad>64</ns3:cad>
          </ns3:TrackPointExtension>
        </extensions>
      </trkpt>
      <trkpt lat="45.25174819864332675933837890625" lon="-71.14921384491026401519775390625">
        <ele>704.4000244140625</ele>
        <time>2026-08-22T03:07:31.000Z</time>
        <extensions>
          <ns3:TrackPointExtension>
            <ns3:hr>120</ns3:hr>
            <ns3:cad>64</ns3:cad>
          </ns3:TrackPointExtension>
        </extensions>
      </trkpt>
      <trkpt lat="45.251753143966197967529296875" lon="-71.1491985060274600982666015625">
        <ele>704</ele>
        <time>2026-08-22T03:07:32.000Z</time>
        <extensions>
          <ns3:TrackPointExtension>
            <ns3:hr>120</ns3:hr>
            <ns3:cad>64</ns3:cad>
          </ns3:TrackPointExtension>
        </extensions>
      </trkpt>
      <trkpt lat="45.25175859220325946807861328125" lon="-71.14917512051761150360107421875">
        <ele>703.5999755859375</ele>
        <time>2026-08-22T03:07:33.000Z</time>
        <extensions>
          <ns3:TrackPointExtension>
            <ns3:hr>120</ns3:hr>
            <ns3:cad>64</ns3:cad>
          </ns3:TrackPointExtension>
        </extensions>
      </trkpt>
      <trkpt lat="45.25176445953547954559326171875" lon="-71.14915139973163604736328125">
        <ele>703.20001220703125</ele>
        <time>2026-08-22T03:07:34.000Z</time>
        <extensions>
          <ns3:TrackPointExtension>
            <ns3:hr>120</ns3:hr>
            <ns3:cad>77</ns3:cad>
          </ns3:TrackPointExtension>
        </extensions>
      </trkpt>
      <trkpt lat="45.2517740987241268157958984375" lon="-71.14912566728889942169189453125">
        <ele>702.79998779296875</ele>
        <time>2026-08-22T03:07:35.000Z</time>
        <extensions>
          <ns3:TrackPointExtension>
            <ns3:hr>120</ns3:hr>
            <ns3:cad>77</ns3:cad>
          </ns3:TrackPointExtension>
        </extensions>
      </trkpt>
      <trkpt lat="45.25178373791277408599853515625" lon="-71.14910169504582881927490234375">
        <ele>702.5999755859375</ele>
        <time>2026-08-22T03:07:36.000Z</time>
        <extensions>
          <ns3:TrackPointExtension>
            <ns3:hr>120</ns3:hr>
            <ns3:cad>77</ns3:cad>
          </ns3:TrackPointExtension>
        </extensions>
      </trkpt>
      <trkpt lat="45.25179010815918445587158203125" lon="-71.14908761344850063323974609375">
        <ele>702.4000244140625</ele>
        <time>2026-08-22T03:07:37.000Z</time>
        <extensions>
          <ns3:TrackPointExtension>
            <ns3:hr>120</ns3:hr>
            <ns3:cad>77</ns3:cad>
          </ns3:TrackPointExtension>
        </extensions>
      </trkpt>
      <trkpt lat="45.251798070967197418212890625" lon="-71.1490761302411556243896484375">
        <ele>702.20001220703125</ele>
        <time>2026-08-22T03:07:38.000Z</time>
        <extensions>
          <ns3:TrackPointExtension>
            <ns3:hr>120</ns3:hr>
            <ns3:cad>77</ns3:cad>
          </ns3:TrackPointExtension>
        </extensions>
      </trkpt>
      <trkpt lat="45.2518079616129398345947265625" lon="-71.149075292050838470458984375">
        <ele>702.20001220703125</ele>
        <time>2026-08-22T03:07:39.000Z</time>
        <extensions>
          <ns3:TrackPointExtension>
            <ns3:hr>121</ns3:hr>
            <ns3:cad>77</ns3:cad>
          </ns3:TrackPointExtension>
        </extensions>
      </trkpt>
      <trkpt lat="45.25181525386869907379150390625" lon="-71.14907487295567989349365234375">
        <ele>702.20001220703125</ele>
        <time>2026-08-22T03:07:40.000Z</time>
        <extensions>
          <ns3:TrackPointExtension>
            <ns3:hr>121</ns3:hr>
            <ns3:cad>77</ns3:cad>
          </ns3:TrackPointExtension>
        </extensions>
      </trkpt>
      <trkpt lat="45.25181860662996768951416015625" lon="-71.14906732924282550811767578125">
        <ele>702</ele>
        <time>2026-08-22T03:07:41.000Z</time>
        <extensions>
          <ns3:TrackPointExtension>
            <ns3:hr>121</ns3:hr>
            <ns3:cad>0</ns3:cad>
          </ns3:TrackPointExtension>
        </extensions>
      </trkpt>
      <trkpt lat="45.2518237195909023284912109375" lon="-71.14905542694032192230224609375">
        <ele>701.79998779296875</ele>
        <time>2026-08-22T03:07:42.000Z</time>
        <extensions>
          <ns3:TrackPointExtension>
            <ns3:hr>121</ns3:hr>
            <ns3:cad>0</ns3:cad>
          </ns3:TrackPointExtension>
        </extensions>
      </trkpt>
      <trkpt lat="45.25182430632412433624267578125" lon="-71.14904880523681640625">
        <ele>701.5999755859375</ele>
        <time>2026-08-22T03:07:43.000Z</time>
        <extensions>
          <ns3:TrackPointExtension>
            <ns3:hr>121</ns3:hr>
            <ns3:cad>0</ns3:cad>
          </ns3:TrackPointExtension>
        </extensions>
      </trkpt>
      <trkpt lat="45.2518290840089321136474609375" lon="-71.14903631620109081268310546875">
        <ele>701.5999755859375</ele>
        <time>2026-08-22T03:07:44.000Z</time>
        <extensions>
          <ns3:TrackPointExtension>
            <ns3:hr>120</ns3:hr>
            <ns3:cad>0</ns3:cad>
          </ns3:TrackPointExtension>
        </extensions>
      </trkpt>
      <trkpt lat="45.2518321014940738677978515625" lon="-71.1490285210311412811279296875">
        <ele>701.4000244140625</ele>
        <time>2026-08-22T03:07:45.000Z</time>
        <extensions>
          <ns3:TrackPointExtension>
            <ns3:hr>120</ns3:hr>
            <ns3:cad>0</ns3:cad>
          </ns3:TrackPointExtension>
        </extensions>
      </trkpt>
      <trkpt lat="45.25184123776853084564208984375" lon="-71.14901100285351276397705078125">
        <ele>701.20001220703125</ele>
        <time>2026-08-22T03:07:46.000Z</time>
        <extensions>
          <ns3:TrackPointExtension>
            <ns3:hr>120</ns3:hr>
            <ns3:cad>55</ns3:cad>
          </ns3:TrackPointExtension>
        </extensions>
      </trkpt>
      <trkpt lat="45.2518473565578460693359375" lon="-71.1490010283887386322021484375">
        <ele>701</ele>
        <time>2026-08-22T03:07:47.000Z</time>
        <extensions>
          <ns3:TrackPointExtension>
            <ns3:hr>120</ns3:hr>
            <ns3:cad>55</ns3:cad>
          </ns3:TrackPointExtension>
        </extensions>
      </trkpt>
      <trkpt lat="45.2518569119274616241455078125" lon="-71.14898451603949069976806640625">
        <ele>700.5999755859375</ele>
        <time>2026-08-22T03:07:48.000Z</time>
        <extensions>
          <ns3:TrackPointExtension>
            <ns3:hr>120</ns3:hr>
            <ns3:cad>55</ns3:cad>
          </ns3:TrackPointExtension>
        </extensions>
      </trkpt>
      <trkpt lat="45.2518686465919017791748046875" lon="-71.14896942861378192901611328125">
        <ele>700.20001220703125</ele>
        <time>2026-08-22T03:07:49.000Z</time>
        <extensions>
          <ns3:TrackPointExtension>
            <ns3:hr>121</ns3:hr>
            <ns3:cad>55</ns3:cad>
          </ns3:TrackPointExtension>
        </extensions>
      </trkpt>
      <trkpt lat="45.25188046507537364959716796875" lon="-71.1489624716341495513916015625">
        <ele>699.79998779296875</ele>
        <time>2026-08-22T03:07:50.000Z</time>
        <extensions>
          <ns3:TrackPointExtension>
            <ns3:hr>121</ns3:hr>
            <ns3:cad>55</ns3:cad>
          </ns3:TrackPointExtension>
        </extensions>
      </trkpt>
      <trkpt lat="45.25189303793013095855712890625" lon="-71.14896456710994243621826171875">
        <ele>699.4000244140625</ele>
        <time>2026-08-22T03:07:51.000Z</time>
        <extensions>
          <ns3:TrackPointExtension>
            <ns3:hr>122</ns3:hr>
            <ns3:cad>55</ns3:cad>
          </ns3:TrackPointExtension>
        </extensions>
      </trkpt>
      <trkpt lat="45.2519023418426513671875" lon="-71.14897303283214569091796875">
        <ele>699</ele>
        <time>2026-08-22T03:07:52.000Z</time>
        <extensions>
          <ns3:TrackPointExtension>
            <ns3:hr>122</ns3:hr>
            <ns3:cad>55</ns3:cad>
          </ns3:TrackPointExtension>
        </extensions>
      </trkpt>
      <trkpt lat="45.2519117295742034912109375" lon="-71.14897613413631916046142578125">
        <ele>698.4000244140625</ele>
        <time>2026-08-22T03:07:53.000Z</time>
        <extensions>
          <ns3:TrackPointExtension>
            <ns3:hr>122</ns3:hr>
            <ns3:cad>17</ns3:cad>
          </ns3:TrackPointExtension>
        </extensions>
      </trkpt>
      <trkpt lat="45.25191483087837696075439453125" lon="-71.14897931925952434539794921875">
        <ele>698.20001220703125</ele>
        <time>2026-08-22T03:07:54.000Z</time>
        <extensions>
          <ns3:TrackPointExtension>
            <ns3:hr>122</ns3:hr>
            <ns3:cad>17</ns3:cad>
          </ns3:TrackPointExtension>
        </extensions>
      </trkpt>
      <trkpt lat="45.25192254222929477691650390625" lon="-71.14898602478206157684326171875">
        <ele>697.79998779296875</ele>
        <time>2026-08-22T03:07:55.000Z</time>
        <extensions>
          <ns3:TrackPointExtension>
            <ns3:hr>122</ns3:hr>
            <ns3:cad>17</ns3:cad>
          </ns3:TrackPointExtension>
        </extensions>
      </trkpt>
      <trkpt lat="45.25192388333380222320556640625" lon="-71.14899449050426483154296875">
        <ele>697.4000244140625</ele>
        <time>2026-08-22T03:07:56.000Z</time>
        <extensions>
          <ns3:TrackPointExtension>
            <ns3:hr>122</ns3:hr>
            <ns3:cad>17</ns3:cad>
          </ns3:TrackPointExtension>
        </extensions>
      </trkpt>
      <trkpt lat="45.25192690081894397735595703125" lon="-71.1490045487880706787109375">
        <ele>697</ele>
        <time>2026-08-22T03:07:57.000Z</time>
        <extensions>
          <ns3:TrackPointExtension>
            <ns3:hr>121</ns3:hr>
            <ns3:cad>17</ns3:cad>
          </ns3:TrackPointExtension>
        </extensions>
      </trkpt>
      <trkpt lat="45.251926146447658538818359375" lon="-71.1490154452621936798095703125">
        <ele>696.79998779296875</ele>
        <time>2026-08-22T03:07:58.000Z</time>
        <extensions>
          <ns3:TrackPointExtension>
            <ns3:hr>120</ns3:hr>
            <ns3:cad>17</ns3:cad>
          </ns3:TrackPointExtension>
        </extensions>
      </trkpt>
      <trkpt lat="45.2519222907721996307373046875" lon="-71.14903380163013935089111328125">
        <ele>696.5999755859375</ele>
        <time>2026-08-22T03:07:59.000Z</time>
        <extensions>
          <ns3:TrackPointExtension>
            <ns3:hr>121</ns3:hr>
            <ns3:cad>17</ns3:cad>
          </ns3:TrackPointExtension>
        </extensions>
      </trkpt>
      <trkpt lat="45.2519202791154384613037109375" lon="-71.14904419519007205963134765625">
        <ele>696.4000244140625</ele>
        <time>2026-08-22T03:08:00.000Z</time>
        <extensions>
          <ns3:TrackPointExtension>
            <ns3:hr>121</ns3:hr>
            <ns3:cad>52</ns3:cad>
          </ns3:TrackPointExtension>
        </extensions>
      </trkpt>
      <trkpt lat="45.2519253082573413848876953125" lon="-71.14905643276870250701904296875">
        <ele>696.4000244140625</ele>
        <time>2026-08-22T03:08:01.000Z</time>
        <extensions>
          <ns3:TrackPointExtension>
            <ns3:hr>121</ns3:hr>
            <ns3:cad>52</ns3:cad>
          </ns3:TrackPointExtension>
        </extensions>
      </trkpt>
      <trkpt lat="45.2519259788095951080322265625" lon="-71.1490607075393199920654296875">
        <ele>696.20001220703125</ele>
        <time>2026-08-22T03:08:02.000Z</time>
        <extensions>
          <ns3:TrackPointExtension>
            <ns3:hr>121</ns3:hr>
            <ns3:cad>52</ns3:cad>
          </ns3:TrackPointExtension>
        </extensions>
      </trkpt>
      <trkpt lat="45.2519316785037517547607421875" lon="-71.14907621406018733978271484375">
        <ele>696.20001220703125</ele>
        <time>2026-08-22T03:08:03.000Z</time>
        <extensions>
          <ns3:TrackPointExtension>
            <ns3:hr>122</ns3:hr>
            <ns3:cad>52</ns3:cad>
          </ns3:TrackPointExtension>
        </extensions>
      </trkpt>
      <trkpt lat="45.25193109177052974700927734375" lon="-71.14908291958272457122802734375">
        <ele>696</ele>
        <time>2026-08-22T03:08:04.000Z</time>
        <extensions>
          <ns3:TrackPointExtension>
            <ns3:hr>122</ns3:hr>
            <ns3:cad>52</ns3:cad>
          </ns3:TrackPointExtension>
        </extensions>
      </trkpt>
      <trkpt lat="45.2519300021231174468994140625" lon="-71.1491016112267971038818359375">
        <ele>695.5999755859375</ele>
        <time>2026-08-22T03:08:05.000Z</time>
        <extensions>
          <ns3:TrackPointExtension>
            <ns3:hr>122</ns3:hr>
            <ns3:cad>52</ns3:cad>
          </ns3:TrackPointExtension>
        </extensions>
      </trkpt>
      <trkpt lat="45.25193343870341777801513671875" lon="-71.14911057986319065093994140625">
        <ele>695.20001220703125</ele>
        <time>2026-08-22T03:08:06.000Z</time>
        <extensions>
          <ns3:TrackPointExtension>
            <ns3:hr>122</ns3:hr>
            <ns3:cad>52</ns3:cad>
          </ns3:TrackPointExtension>
        </extensions>
      </trkpt>
      <trkpt lat="45.25193444453179836273193359375" lon="-71.14911787211894989013671875">
        <ele>695</ele>
        <time>2026-08-22T03:08:07.000Z</time>
        <extensions>
          <ns3:TrackPointExtension>
            <ns3:hr>123</ns3:hr>
            <ns3:cad>0</ns3:cad>
          </ns3:TrackPointExtension>
        </extensions>
      </trkpt>
      <trkpt lat="45.2519346959888935089111328125" lon="-71.14912969060242176055908203125">
        <ele>694.5999755859375</ele>
        <time>2026-08-22T03:08:08.000Z</time>
        <extensions>
          <ns3:TrackPointExtension>
            <ns3:hr>124</ns3:hr>
            <ns3:cad>0</ns3:cad>
          </ns3:TrackPointExtension>
        </extensions>
      </trkpt>
      <trkpt lat="45.25193519890308380126953125" lon="-71.14914477802813053131103515625">
        <ele>694.4000244140625</ele>
        <time>2026-08-22T03:08:09.000Z</time>
        <extensions>
          <ns3:TrackPointExtension>
            <ns3:hr>125</ns3:hr>
            <ns3:cad>0</ns3:cad>
          </ns3:TrackPointExtension>
        </extensions>
      </trkpt>
      <trkpt lat="45.251934193074703216552734375" lon="-71.14916137419641017913818359375">
        <ele>694.20001220703125</ele>
        <time>2026-08-22T03:08:10.000Z</time>
        <extensions>
          <ns3:TrackPointExtension>
            <ns3:hr>125</ns3:hr>
            <ns3:cad>71</ns3:cad>
          </ns3:TrackPointExtension>
        </extensions>
      </trkpt>
      <trkpt lat="45.251932181417942047119140625" lon="-71.14916858263313770294189453125">
        <ele>694</ele>
        <time>2026-08-22T03:08:11.000Z</time>
        <extensions>
          <ns3:TrackPointExtension>
            <ns3:hr>126</ns3:hr>
            <ns3:cad>71</ns3:cad>
          </ns3:TrackPointExtension>
        </extensions>
      </trkpt>
      <trkpt lat="45.251930840313434600830078125" lon="-71.14918534643948078155517578125">
        <ele>694</ele>
        <time>2026-08-22T03:08:12.000Z</time>
        <extensions>
          <ns3:TrackPointExtension>
            <ns3:hr>126</ns3:hr>
            <ns3:cad>71</ns3:cad>
          </ns3:TrackPointExtension>
        </extensions>
      </trkpt>
      <trkpt lat="45.25192849338054656982421875" lon="-71.1491887830197811126708984375">
        <ele>693.79998779296875</ele>
        <time>2026-08-22T03:08:13.000Z</time>
        <extensions>
          <ns3:TrackPointExtension>
            <ns3:hr>126</ns3:hr>
            <ns3:cad>71</ns3:cad>
          </ns3:TrackPointExtension>
        </extensions>
      </trkpt>
      <trkpt lat="45.25192572735249996185302734375" lon="-71.14920361898839473724365234375">
        <ele>693.79998779296875</ele>
        <time>2026-08-22T03:08:14.000Z</time>
        <extensions>
          <ns3:TrackPointExtension>
            <ns3:hr>125</ns3:hr>
            <ns3:cad>71</ns3:cad>
          </ns3:TrackPointExtension>
        </extensions>
      </trkpt>
      <trkpt lat="45.25192472152411937713623046875" lon="-71.14921719767153263092041015625">
        <ele>693.5999755859375</ele>
        <time>2026-08-22T03:08:15.000Z</time>
        <extensions>
          <ns3:TrackPointExtension>
            <ns3:hr>123</ns3:hr>
            <ns3:cad>71</ns3:cad>
          </ns3:TrackPointExtension>
        </extensions>
      </trkpt>
      <trkpt lat="45.2519266493618488311767578125" lon="-71.1492367275059223175048828125">
        <ele>693.4000244140625</ele>
        <time>2026-08-22T03:08:16.000Z</time>
        <extensions>
          <ns3:TrackPointExtension>
            <ns3:hr>120</ns3:hr>
            <ns3:cad>71</ns3:cad>
          </ns3:TrackPointExtension>
        </extensions>
      </trkpt>
      <trkpt lat="45.25192941538989543914794921875" lon="-71.1492410860955715179443359375">
        <ele>693</ele>
        <time>2026-08-22T03:08:17.000Z</time>
        <extensions>
          <ns3:TrackPointExtension>
            <ns3:hr>119</ns3:hr>
            <ns3:cad>71</ns3:cad>
          </ns3:TrackPointExtension>
        </extensions>
      </trkpt>
      <trkpt lat="45.25193612091243267059326171875" lon="-71.14925022237002849578857421875">
        <ele>692.79998779296875</ele>
        <time>2026-08-22T03:08:18.000Z</time>
        <extensions>
          <ns3:TrackPointExtension>
            <ns3:hr>119</ns3:hr>
            <ns3:cad>71</ns3:cad>
          </ns3:TrackPointExtension>
        </extensions>
      </trkpt>
      <trkpt lat="45.2519414015114307403564453125" lon="-71.14927000366151332855224609375">
        <ele>692.4000244140625</ele>
        <time>2026-08-22T03:08:19.000Z</time>
        <extensions>
          <ns3:TrackPointExtension>
            <ns3:hr>119</ns3:hr>
            <ns3:cad>0</ns3:cad>
          </ns3:TrackPointExtension>
        </extensions>
      </trkpt>
      <trkpt lat="45.25194450281560420989990234375" lon="-71.1492781341075897216796875">
        <ele>692</ele>
        <time>2026-08-22T03:08:20.000Z</time>
        <extensions>
          <ns3:TrackPointExtension>
            <ns3:hr>119</ns3:hr>
            <ns3:cad>0</ns3:cad>
          </ns3:TrackPointExtension>
        </extensions>
      </trkpt>
      <trkpt lat="45.25195824913680553436279296875" lon="-71.14929699338972568511962890625">
        <ele>691.5999755859375</ele>
        <time>2026-08-22T03:08:21.000Z</time>
        <extensions>
          <ns3:TrackPointExtension>
            <ns3:hr>118</ns3:hr>
            <ns3:cad>0</ns3:cad>
          </ns3:TrackPointExtension>
        </extensions>
      </trkpt>
      <trkpt lat="45.25196629576385021209716796875" lon="-71.14930939860641956329345703125">
        <ele>691.20001220703125</ele>
        <time>2026-08-22T03:08:22.000Z</time>
        <extensions>
          <ns3:TrackPointExtension>
            <ns3:hr>118</ns3:hr>
            <ns3:cad>0</ns3:cad>
          </ns3:TrackPointExtension>
        </extensions>
      </trkpt>
      <trkpt lat="45.25197367183864116668701171875" lon="-71.14932172000408172607421875">
        <ele>690.79998779296875</ele>
        <time>2026-08-22T03:08:23.000Z</time>
        <extensions>
          <ns3:TrackPointExtension>
            <ns3:hr>118</ns3:hr>
            <ns3:cad>0</ns3:cad>
          </ns3:TrackPointExtension>
        </extensions>
      </trkpt>
      <trkpt lat="45.25198188610374927520751953125" lon="-71.14932934753596782684326171875">
        <ele>690.4000244140625</ele>
        <time>2026-08-22T03:08:24.000Z</time>
        <extensions>
          <ns3:TrackPointExtension>
            <ns3:hr>118</ns3:hr>
            <ns3:cad>47</ns3:cad>
          </ns3:TrackPointExtension>
        </extensions>
      </trkpt>
      <trkpt lat="45.2519950456917285919189453125" lon="-71.14934242330491542816162109375">
        <ele>689.79998779296875</ele>
        <time>2026-08-22T03:08:25.000Z</time>
        <extensions>
          <ns3:TrackPointExtension>
            <ns3:hr>118</ns3:hr>
            <ns3:cad>47</ns3:cad>
          </ns3:TrackPointExtension>
        </extensions>
      </trkpt>
      <trkpt lat="45.25200770236551761627197265625" lon="-71.14934979937970638275146484375">
        <ele>689.5999755859375</ele>
        <time>2026-08-22T03:08:26.000Z</time>
        <extensions>
          <ns3:TrackPointExtension>
            <ns3:hr>119</ns3:hr>
            <ns3:cad>47</ns3:cad>
          </ns3:TrackPointExtension>
        </extensions>
      </trkpt>
      <trkpt lat="45.252017341554164886474609375" lon="-71.149354241788387298583984375">
        <ele>689.20001220703125</ele>
        <time>2026-08-22T03:08:27.000Z</time>
        <extensions>
          <ns3:TrackPointExtension>
            <ns3:hr>120</ns3:hr>
            <ns3:cad>47</ns3:cad>
          </ns3:TrackPointExtension>
        </extensions>
      </trkpt>
      <trkpt lat="45.25202999822795391082763671875" lon="-71.14936706610023975372314453125">
        <ele>688.79998779296875</ele>
        <time>2026-08-22T03:08:28.000Z</time>
        <extensions>
          <ns3:TrackPointExtension>
            <ns3:hr>120</ns3:hr>
            <ns3:cad>47</ns3:cad>
          </ns3:TrackPointExtension>
        </extensions>
      </trkpt>
      <trkpt lat="45.25204458273947238922119140625" lon="-71.1493778787553310394287109375">
        <ele>688.4000244140625</ele>
        <time>2026-08-22T03:08:29.000Z</time>
        <extensions>
          <ns3:TrackPointExtension>
            <ns3:hr>120</ns3:hr>
            <ns3:cad>47</ns3:cad>
          </ns3:TrackPointExtension>
        </extensions>
      </trkpt>
      <trkpt lat="45.25206101126968860626220703125" lon="-71.1493813991546630859375">
        <ele>688.20001220703125</ele>
        <time>2026-08-22T03:08:30.000Z</time>
        <extensions>
          <ns3:TrackPointExtension>
            <ns3:hr>120</ns3:hr>
            <ns3:cad>47</ns3:cad>
          </ns3:TrackPointExtension>
        </extensions>
      </trkpt>
      <trkpt lat="45.25207542814314365386962890625" lon="-71.1493788845837116241455078125">
        <ele>688</ele>
        <time>2026-08-22T03:08:31.000Z</time>
        <extensions>
          <ns3:TrackPointExtension>
            <ns3:hr>120</ns3:hr>
            <ns3:cad>47</ns3:cad>
          </ns3:TrackPointExtension>
        </extensions>
      </trkpt>
      <trkpt lat="45.25208632461726665496826171875" lon="-71.14937460981309413909912109375">
        <ele>687.5999755859375</ele>
        <time>2026-08-22T03:08:32.000Z</time>
        <extensions>
          <ns3:TrackPointExtension>
            <ns3:hr>120</ns3:hr>
            <ns3:cad>47</ns3:cad>
          </ns3:TrackPointExtension>
        </extensions>
      </trkpt>
      <trkpt lat="45.2521003223955631256103515625" lon="-71.1493718437850475311279296875">
        <ele>687.4000244140625</ele>
        <time>2026-08-22T03:08:33.000Z</time>
        <extensions>
          <ns3:TrackPointExtension>
            <ns3:hr>121</ns3:hr>
            <ns3:cad>47</ns3:cad>
          </ns3:TrackPointExtension>
        </extensions>
      </trkpt>
      <trkpt lat="45.25211163796484470367431640625" lon="-71.149373687803745269775390625">
        <ele>687</ele>
        <time>2026-08-22T03:08:34.000Z</time>
        <extensions>
          <ns3:TrackPointExtension>
            <ns3:hr>121</ns3:hr>
            <ns3:cad>47</ns3:cad>
          </ns3:TrackPointExtension>
        </extensions>
      </trkpt>
      <trkpt lat="45.25212555192410945892333984375" lon="-71.14938014186918735504150390625">
        <ele>686.5999755859375</ele>
        <time>2026-08-22T03:08:35.000Z</time>
        <extensions>
          <ns3:TrackPointExtension>
            <ns3:hr>121</ns3:hr>
            <ns3:cad>47</ns3:cad>
          </ns3:TrackPointExtension>
        </extensions>
      </trkpt>
      <trkpt lat="45.25214097462594509124755859375" lon="-71.14937880076467990875244140625">
        <ele>686.4000244140625</ele>
        <time>2026-08-22T03:08:36.000Z</time>
        <extensions>
          <ns3:TrackPointExtension>
            <ns3:hr>120</ns3:hr>
            <ns3:cad>47</ns3:cad>
          </ns3:TrackPointExtension>
        </extensions>
      </trkpt>
      <trkpt lat="45.2521553076803684234619140625" lon="-71.14937963895499706268310546875">
        <ele>686</ele>
        <time>2026-08-22T03:08:37.000Z</time>
        <extensions>
          <ns3:TrackPointExtension>
            <ns3:hr>120</ns3:hr>
            <ns3:cad>47</ns3:cad>
          </ns3:TrackPointExtension>
        </extensions>
      </trkpt>
      <trkpt lat="45.2521750889718532562255859375" lon="-71.1493782140314579010009765625">
        <ele>685.5999755859375</ele>
        <time>2026-08-22T03:08:38.000Z</time>
        <extensions>
          <ns3:TrackPointExtension>
            <ns3:hr>120</ns3:hr>
            <ns3:cad>47</ns3:cad>
          </ns3:TrackPointExtension>
        </extensions>
      </trkpt>
      <trkpt lat="45.252193026244640350341796875" lon="-71.14937377162277698516845703125">
        <ele>685.4000244140625</ele>
        <time>2026-08-22T03:08:39.000Z</time>
        <extensions>
          <ns3:TrackPointExtension>
            <ns3:hr>120</ns3:hr>
            <ns3:cad>47</ns3:cad>
          </ns3:TrackPointExtension>
        </extensions>
      </trkpt>
      <trkpt lat="45.25221104733645915985107421875" lon="-71.149364300072193145751953125">
        <ele>685</ele>
        <time>2026-08-22T03:08:40.000Z</time>
        <extensions>
          <ns3:TrackPointExtension>
            <ns3:hr>120</ns3:hr>
            <ns3:cad>47</ns3:cad>
          </ns3:TrackPointExtension>
        </extensions>
      </trkpt>
      <trkpt lat="45.2522257156670093536376953125" lon="-71.14935256540775299072265625">
        <ele>684.5999755859375</ele>
        <time>2026-08-22T03:08:41.000Z</time>
        <extensions>
          <ns3:TrackPointExtension>
            <ns3:hr>120</ns3:hr>
            <ns3:cad>0</ns3:cad>
          </ns3:TrackPointExtension>
        </extensions>
      </trkpt>
      <trkpt lat="45.25224088691174983978271484375" lon="-71.14933781325817108154296875">
        <ele>684.4000244140625</ele>
        <time>2026-08-22T03:08:42.000Z</time>
        <extensions>
          <ns3:TrackPointExtension>
            <ns3:hr>120</ns3:hr>
            <ns3:cad>0</ns3:cad>
          </ns3:TrackPointExtension>
        </extensions>
      </trkpt>
      <trkpt lat="45.2522542141377925872802734375" lon="-71.14932817406952381134033203125">
        <ele>684.20001220703125</ele>
        <time>2026-08-22T03:08:43.000Z</time>
        <extensions>
          <ns3:TrackPointExtension>
            <ns3:hr>120</ns3:hr>
            <ns3:cad>0</ns3:cad>
          </ns3:TrackPointExtension>
        </extensions>
      </trkpt>
      <trkpt lat="45.2522639371454715728759765625" lon="-71.14931501448154449462890625">
        <ele>684</ele>
        <time>2026-08-22T03:08:44.000Z</time>
        <extensions>
          <ns3:TrackPointExtension>
            <ns3:hr>120</ns3:hr>
            <ns3:cad>0</ns3:cad>
          </ns3:TrackPointExtension>
        </extensions>
      </trkpt>
      <trkpt lat="45.25227692909538745880126953125" lon="-71.1493000946938991546630859375">
        <ele>683.79998779296875</ele>
        <time>2026-08-22T03:08:45.000Z</time>
        <extensions>
          <ns3:TrackPointExtension>
            <ns3:hr>119</ns3:hr>
            <ns3:cad>0</ns3:cad>
          </ns3:TrackPointExtension>
        </extensions>
      </trkpt>
      <trkpt lat="45.25228849612176418304443359375" lon="-71.14929045550525188446044921875">
        <ele>683.5999755859375</ele>
        <time>2026-08-22T03:08:46.000Z</time>
        <extensions>
          <ns3:TrackPointExtension>
            <ns3:hr>119</ns3:hr>
            <ns3:cad>0</ns3:cad>
          </ns3:TrackPointExtension>
        </extensions>
      </trkpt>
      <trkpt lat="45.25229553692042827606201171875" lon="-71.1492834985256195068359375">
        <ele>683.5999755859375</ele>
        <time>2026-08-22T03:08:47.000Z</time>
        <extensions>
          <ns3:TrackPointExtension>
            <ns3:hr>118</ns3:hr>
            <ns3:cad>0</ns3:cad>
          </ns3:TrackPointExtension>
        </extensions>
      </trkpt>
      <trkpt lat="45.252303667366504669189453125" lon="-71.14927771501243114471435546875">
        <ele>683.4000244140625</ele>
        <time>2026-08-22T03:08:48.000Z</time>
        <extensions>
          <ns3:TrackPointExtension>
            <ns3:hr>118</ns3:hr>
            <ns3:cad>56</ns3:cad>
          </ns3:TrackPointExtension>
        </extensions>
      </trkpt>
      <trkpt lat="45.2523145638406276702880859375" lon="-71.14927880465984344482421875">
        <ele>683.20001220703125</ele>
        <time>2026-08-22T03:08:49.000Z</time>
        <extensions>
          <ns3:TrackPointExtension>
            <ns3:hr>118</ns3:hr>
            <ns3:cad>56</ns3:cad>
          </ns3:TrackPointExtension>
        </extensions>
      </trkpt>
      <trkpt lat="45.25232755579054355621337890625" lon="-71.1492816545069217681884765625">
        <ele>683</ele>
        <time>2026-08-22T03:08:50.000Z</time>
        <extensions>
          <ns3:TrackPointExtension>
            <ns3:hr>117</ns3:hr>
            <ns3:cad>55</ns3:cad>
          </ns3:TrackPointExtension>
        </extensions>
      </trkpt>
      <trkpt lat="45.25234130211174488067626953125" lon="-71.14928123541176319122314453125">
        <ele>682.5999755859375</ele>
        <time>2026-08-22T03:08:51.000Z</time>
        <extensions>
          <ns3:TrackPointExtension>
            <ns3:hr>117</ns3:hr>
            <ns3:cad>53</ns3:cad>
          </ns3:TrackPointExtension>
        </extensions>
      </trkpt>
      <trkpt lat="45.252357311546802520751953125" lon="-71.14927955903112888336181640625">
        <ele>682.4000244140625</ele>
        <time>2026-08-22T03:08:52.000Z</time>
        <extensions>
          <ns3:TrackPointExtension>
            <ns3:hr>117</ns3:hr>
            <ns3:cad>53</ns3:cad>
          </ns3:TrackPointExtension>
        </extensions>
      </trkpt>
      <trkpt lat="45.25237105786800384521484375" lon="-71.14927687682211399078369140625">
        <ele>682.20001220703125</ele>
        <time>2026-08-22T03:08:53.000Z</time>
        <extensions>
          <ns3:TrackPointExtension>
            <ns3:hr>116</ns3:hr>
            <ns3:cad>53</ns3:cad>
          </ns3:TrackPointExtension>
        </extensions>
      </trkpt>
      <trkpt lat="45.252384133636951446533203125" lon="-71.1492732726037502288818359375">
        <ele>682</ele>
        <time>2026-08-22T03:08:54.000Z</time>
        <extensions>
          <ns3:TrackPointExtension>
            <ns3:hr>116</ns3:hr>
            <ns3:cad>53</ns3:cad>
          </ns3:TrackPointExtension>
        </extensions>
      </trkpt>
      <trkpt lat="45.25239410810172557830810546875" lon="-71.14927344024181365966796875">
        <ele>681.79998779296875</ele>
        <time>2026-08-22T03:08:55.000Z</time>
        <extensions>
          <ns3:TrackPointExtension>
            <ns3:hr>116</ns3:hr>
            <ns3:cad>0</ns3:cad>
          </ns3:TrackPointExtension>
        </extensions>
      </trkpt>
      <trkpt lat="45.25241171009838581085205078125" lon="-71.1492803134024143218994140625">
        <ele>681.4000244140625</ele>
        <time>2026-08-22T03:08:56.000Z</time>
        <extensions>
          <ns3:TrackPointExtension>
            <ns3:hr>117</ns3:hr>
            <ns3:cad>0</ns3:cad>
          </ns3:TrackPointExtension>
        </extensions>
      </trkpt>
      <trkpt lat="45.25242797099053859710693359375" lon="-71.14927821792662143707275390625">
        <ele>681.20001220703125</ele>
        <time>2026-08-22T03:08:57.000Z</time>
        <extensions>
          <ns3:TrackPointExtension>
            <ns3:hr>117</ns3:hr>
            <ns3:cad>0</ns3:cad>
          </ns3:TrackPointExtension>
        </extensions>
      </trkpt>
      <trkpt lat="45.25243601761758327484130859375" lon="-71.14927017129957675933837890625">
        <ele>680.79998779296875</ele>
        <time>2026-08-22T03:08:58.000Z</time>
        <extensions>
          <ns3:TrackPointExtension>
            <ns3:hr>117</ns3:hr>
            <ns3:cad>67</ns3:cad>
          </ns3:TrackPointExtension>
        </extensions>
      </trkpt>
      <trkpt lat="45.25244942866265773773193359375" lon="-71.14926497451961040496826171875">
        <ele>680.5999755859375</ele>
        <time>2026-08-22T03:08:59.000Z</time>
        <extensions>
          <ns3:TrackPointExtension>
            <ns3:hr>117</ns3:hr>
            <ns3:cad>67</ns3:cad>
          </ns3:TrackPointExtension>
        </extensions>
      </trkpt>
      <trkpt lat="45.25246166624128818511962890625" lon="-71.1492699198424816131591796875">
        <ele>680.4000244140625</ele>
        <time>2026-08-22T03:09:00.000Z</time>
        <extensions>
          <ns3:TrackPointExtension>
            <ns3:hr>117</ns3:hr>
            <ns3:cad>67</ns3:cad>
          </ns3:TrackPointExtension>
        </extensions>
      </trkpt>
      <trkpt lat="45.252474658191204071044921875" lon="-71.14927637390792369842529296875">
        <ele>680</ele>
        <time>2026-08-22T03:09:01.000Z</time>
        <extensions>
          <ns3:TrackPointExtension>
            <ns3:hr>117</ns3:hr>
            <ns3:cad>67</ns3:cad>
          </ns3:TrackPointExtension>
        </extensions>
      </trkpt>
      <trkpt lat="45.252489410340785980224609375" lon="-71.14926748909056186676025390625">
        <ele>679.79998779296875</ele>
        <time>2026-08-22T03:09:02.000Z</time>
        <extensions>
          <ns3:TrackPointExtension>
            <ns3:hr>118</ns3:hr>
            <ns3:cad>67</ns3:cad>
          </ns3:TrackPointExtension>
        </extensions>
      </trkpt>
      <trkpt lat="45.252500139176845550537109375" lon="-71.14925474859774112701416015625">
        <ele>679.5999755859375</ele>
        <time>2026-08-22T03:09:03.000Z</time>
        <extensions>
          <ns3:TrackPointExtension>
            <ns3:hr>117</ns3:hr>
            <ns3:cad>67</ns3:cad>
          </ns3:TrackPointExtension>
        </extensions>
      </trkpt>
      <trkpt lat="45.25251279585063457489013671875" lon="-71.1492434330284595489501953125">
        <ele>679.4000244140625</ele>
        <time>2026-08-22T03:09:04.000Z</time>
        <extensions>
          <ns3:TrackPointExtension>
            <ns3:hr>117</ns3:hr>
            <ns3:cad>67</ns3:cad>
          </ns3:TrackPointExtension>
        </extensions>
      </trkpt>
      <trkpt lat="45.25252503342926502227783203125" lon="-71.1492249928414821624755859375">
        <ele>679.20001220703125</ele>
        <time>2026-08-22T03:09:05.000Z</time>
        <extensions>
          <ns3:TrackPointExtension>
            <ns3:hr>117</ns3:hr>
            <ns3:cad>0</ns3:cad>
          </ns3:TrackPointExtension>
        </extensions>
      </trkpt>
      <trkpt lat="45.252536348998546600341796875" lon="-71.14920948632061481475830078125">
        <ele>679</ele>
        <time>2026-08-22T03:09:06.000Z</time>
        <extensions>
          <ns3:TrackPointExtension>
            <ns3:hr>117</ns3:hr>
            <ns3:cad>0</ns3:cad>
          </ns3:TrackPointExtension>
        </extensions>
      </trkpt>
      <trkpt lat="45.2525505982339382171630859375" lon="-71.14918752573430538177490234375">
        <ele>678.5999755859375</ele>
        <time>2026-08-22T03:09:07.000Z</time>
        <extensions>
          <ns3:TrackPointExtension>
            <ns3:hr>116</ns3:hr>
            <ns3:cad>0</ns3:cad>
          </ns3:TrackPointExtension>
        </extensions>
      </trkpt>
      <trkpt lat="45.25256124325096607208251953125" lon="-71.14916455931961536407470703125">
        <ele>678.4000244140625</ele>
        <time>2026-08-22T03:09:08.000Z</time>
        <extensions>
          <ns3:TrackPointExtension>
            <ns3:hr>116</ns3:hr>
            <ns3:cad>75</ns3:cad>
          </ns3:TrackPointExtension>
        </extensions>
      </trkpt>
      <trkpt lat="45.252566523849964141845703125" lon="-71.14914377219974994659423828125">
        <ele>678</ele>
        <time>2026-08-22T03:09:09.000Z</time>
        <extensions>
          <ns3:TrackPointExtension>
            <ns3:hr>116</ns3:hr>
            <ns3:cad>75</ns3:cad>
          </ns3:TrackPointExtension>
        </extensions>
      </trkpt>
      <trkpt lat="45.25257566012442111968994140625" lon="-71.14912684075534343719482421875">
        <ele>677.79998779296875</ele>
        <time>2026-08-22T03:09:10.000Z</time>
        <extensions>
          <ns3:TrackPointExtension>
            <ns3:hr>116</ns3:hr>
            <ns3:cad>75</ns3:cad>
          </ns3:TrackPointExtension>
        </extensions>
      </trkpt>
      <trkpt lat="45.252583958208560943603515625" lon="-71.1491140164434909820556640625">
        <ele>677.5999755859375</ele>
        <time>2026-08-22T03:09:11.000Z</time>
        <extensions>
          <ns3:TrackPointExtension>
            <ns3:hr>116</ns3:hr>
            <ns3:cad>75</ns3:cad>
          </ns3:TrackPointExtension>
        </extensions>
      </trkpt>
      <trkpt lat="45.25259141810238361358642578125" lon="-71.1490938998758792877197265625">
        <ele>677.4000244140625</ele>
        <time>2026-08-22T03:09:12.000Z</time>
        <extensions>
          <ns3:TrackPointExtension>
            <ns3:hr>116</ns3:hr>
            <ns3:cad>0</ns3:cad>
          </ns3:TrackPointExtension>
        </extensions>
      </trkpt>
      <trkpt lat="45.252595357596874237060546875" lon="-71.149071939289569854736328125">
        <ele>677.20001220703125</ele>
        <time>2026-08-22T03:09:13.000Z</time>
        <extensions>
          <ns3:TrackPointExtension>
            <ns3:hr>116</ns3:hr>
            <ns3:cad>0</ns3:cad>
          </ns3:TrackPointExtension>
        </extensions>
      </trkpt>
      <trkpt lat="45.2525998838245868682861328125" lon="-71.1490483023226261138916015625">
        <ele>677.20001220703125</ele>
        <time>2026-08-22T03:09:14.000Z</time>
        <extensions>
          <ns3:TrackPointExtension>
            <ns3:hr>116</ns3:hr>
            <ns3:cad>0</ns3:cad>
          </ns3:TrackPointExtension>
        </extensions>
      </trkpt>
      <trkpt lat="45.25260466150939464569091796875" lon="-71.14903204143047332763671875">
        <ele>677</ele>
        <time>2026-08-22T03:09:15.000Z</time>
        <extensions>
          <ns3:TrackPointExtension>
            <ns3:hr>116</ns3:hr>
            <ns3:cad>0</ns3:cad>
          </ns3:TrackPointExtension>
        </extensions>
      </trkpt>
      <trkpt lat="45.25260667316615581512451171875" lon="-71.14900798536837100982666015625">
        <ele>676.79998779296875</ele>
        <time>2026-08-22T03:09:16.000Z</time>
        <extensions>
          <ns3:TrackPointExtension>
            <ns3:hr>118</ns3:hr>
            <ns3:cad>0</ns3:cad>
          </ns3:TrackPointExtension>
        </extensions>
      </trkpt>
      <trkpt lat="45.25261036120355129241943359375" lon="-71.1489991843700408935546875">
        <ele>676.5999755859375</ele>
        <time>2026-08-22T03:09:17.000Z</time>
        <extensions>
          <ns3:TrackPointExtension>
            <ns3:hr>119</ns3:hr>
            <ns3:cad>69</ns3:cad>
          </ns3:TrackPointExtension>
        </extensions>
      </trkpt>
      <trkpt lat="45.25261287577450275421142578125" lon="-71.1489835940301418304443359375">
        <ele>676.4000244140625</ele>
        <time>2026-08-22T03:09:18.000Z</time>
        <extensions>
          <ns3:TrackPointExtension>
            <ns3:hr>119</ns3:hr>
            <ns3:cad>69</ns3:cad>
          </ns3:TrackPointExtension>
        </extensions>
      </trkpt>
      <trkpt lat="45.25261522270739078521728515625" lon="-71.14896791987121105194091796875">
        <ele>676.20001220703125</ele>
        <time>2026-08-22T03:09:19.000Z</time>
        <extensions>
          <ns3:TrackPointExtension>
            <ns3:hr>119</ns3:hr>
            <ns3:cad>63</ns3:cad>
          </ns3:TrackPointExtension>
        </extensions>
      </trkpt>
      <trkpt lat="45.25261589325964450836181640625" lon="-71.1489544250071048736572265625">
        <ele>676</ele>
        <time>2026-08-22T03:09:20.000Z</time>
        <extensions>
          <ns3:TrackPointExtension>
            <ns3:hr>118</ns3:hr>
            <ns3:cad>0</ns3:cad>
          </ns3:TrackPointExtension>
        </extensions>
      </trkpt>
      <trkpt lat="45.25261723436415195465087890625" lon="-71.1489299498498439788818359375">
        <ele>675.79998779296875</ele>
        <time>2026-08-22T03:09:21.000Z</time>
        <extensions>
          <ns3:TrackPointExtension>
            <ns3:hr>118</ns3:hr>
            <ns3:cad>0</ns3:cad>
          </ns3:TrackPointExtension>
        </extensions>
      </trkpt>
      <trkpt lat="45.2526116184890270233154296875" lon="-71.148906983435153961181640625">
        <ele>675.4000244140625</ele>
        <time>2026-08-22T03:09:22.000Z</time>
        <extensions>
          <ns3:TrackPointExtension>
            <ns3:hr>118</ns3:hr>
            <ns3:cad>0</ns3:cad>
          </ns3:TrackPointExtension>
        </extensions>
      </trkpt>
      <trkpt lat="45.2526119537651538848876953125" lon="-71.14888711832463741302490234375">
        <ele>675.20001220703125</ele>
        <time>2026-08-22T03:09:23.000Z</time>
        <extensions>
          <ns3:TrackPointExtension>
            <ns3:hr>118</ns3:hr>
            <ns3:cad>0</ns3:cad>
          </ns3:TrackPointExtension>
        </extensions>
      </trkpt>
      <trkpt lat="45.25261388160288333892822265625" lon="-71.14886364899575710296630859375">
        <ele>675</ele>
        <time>2026-08-22T03:09:24.000Z</time>
        <extensions>
          <ns3:TrackPointExtension>
            <ns3:hr>118</ns3:hr>
            <ns3:cad>0</ns3:cad>
          </ns3:TrackPointExtension>
        </extensions>
      </trkpt>
      <trkpt lat="45.25261857546865940093994140625" lon="-71.14884034730494022369384765625">
        <ele>674.79998779296875</ele>
        <time>2026-08-22T03:09:25.000Z</time>
        <extensions>
          <ns3:TrackPointExtension>
            <ns3:hr>118</ns3:hr>
            <ns3:cad>0</ns3:cad>
          </ns3:TrackPointExtension>
        </extensions>
      </trkpt>
      <trkpt lat="45.25261824019253253936767578125" lon="-71.14882341586053371429443359375">
        <ele>674.5999755859375</ele>
        <time>2026-08-22T03:09:26.000Z</time>
        <extensions>
          <ns3:TrackPointExtension>
            <ns3:hr>118</ns3:hr>
            <ns3:cad>73</ns3:cad>
          </ns3:TrackPointExtension>
        </extensions>
      </trkpt>
      <trkpt lat="45.25262511335313320159912109375" lon="-71.14879977889358997344970703125">
        <ele>674.5999755859375</ele>
        <time>2026-08-22T03:09:27.000Z</time>
        <extensions>
          <ns3:TrackPointExtension>
            <ns3:hr>119</ns3:hr>
            <ns3:cad>73</ns3:cad>
          </ns3:TrackPointExtension>
        </extensions>
      </trkpt>
      <trkpt lat="45.25263064540922641754150390625" lon="-71.148783601820468902587890625">
        <ele>674.5999755859375</ele>
        <time>2026-08-22T03:09:28.000Z</time>
        <extensions>
          <ns3:TrackPointExtension>
            <ns3:hr>119</ns3:hr>
            <ns3:cad>73</ns3:cad>
          </ns3:TrackPointExtension>
        </extensions>
      </trkpt>
      <trkpt lat="45.25263450108468532562255859375" lon="-71.1487633176147937774658203125">
        <ele>674.4000244140625</ele>
        <time>2026-08-22T03:09:29.000Z</time>
        <extensions>
          <ns3:TrackPointExtension>
            <ns3:hr>119</ns3:hr>
            <ns3:cad>73</ns3:cad>
          </ns3:TrackPointExtension>
        </extensions>
      </trkpt>
      <trkpt lat="45.25263701565563678741455078125" lon="-71.1487435363233089447021484375">
        <ele>674.20001220703125</ele>
        <time>2026-08-22T03:09:30.000Z</time>
        <extensions>
          <ns3:TrackPointExtension>
            <ns3:hr>119</ns3:hr>
            <ns3:cad>73</ns3:cad>
          </ns3:TrackPointExtension>
        </extensions>
      </trkpt>
      <trkpt lat="45.2526387758553028106689453125" lon="-71.14872157573699951171875">
        <ele>674</ele>
        <time>2026-08-22T03:09:31.000Z</time>
        <extensions>
          <ns3:TrackPointExtension>
            <ns3:hr>118</ns3:hr>
            <ns3:cad>73</ns3:cad>
          </ns3:TrackPointExtension>
        </extensions>
      </trkpt>
      <trkpt lat="45.25264598429203033447265625" lon="-71.1487029679119586944580078125">
        <ele>673.79998779296875</ele>
        <time>2026-08-22T03:09:32.000Z</time>
        <extensions>
          <ns3:TrackPointExtension>
            <ns3:hr>118</ns3:hr>
            <ns3:cad>0</ns3:cad>
          </ns3:TrackPointExtension>
        </extensions>
      </trkpt>
      <trkpt lat="45.25265478529036045074462890625" lon="-71.14869249053299427032470703125">
        <ele>673.5999755859375</ele>
        <time>2026-08-22T03:09:33.000Z</time>
        <extensions>
          <ns3:TrackPointExtension>
            <ns3:hr>118</ns3:hr>
            <ns3:cad>0</ns3:cad>
          </ns3:TrackPointExtension>
        </extensions>
      </trkpt>
      <trkpt lat="45.252664089202880859375" lon="-71.1486801691353321075439453125">
        <ele>673.4000244140625</ele>
        <time>2026-08-22T03:09:34.000Z</time>
        <extensions>
          <ns3:TrackPointExtension>
            <ns3:hr>118</ns3:hr>
            <ns3:cad>0</ns3:cad>
          </ns3:TrackPointExtension>
        </extensions>
      </trkpt>
      <trkpt lat="45.25267356075346469879150390625" lon="-71.14867187105119228363037109375">
        <ele>673.4000244140625</ele>
        <time>2026-08-22T03:09:35.000Z</time>
        <extensions>
          <ns3:TrackPointExtension>
            <ns3:hr>117</ns3:hr>
            <ns3:cad>0</ns3:cad>
          </ns3:TrackPointExtension>
        </extensions>
      </trkpt>
      <trkpt lat="45.2526843734085559844970703125" lon="-71.148670278489589691162109375">
        <ele>673.20001220703125</ele>
        <time>2026-08-22T03:09:36.000Z</time>
        <extensions>
          <ns3:TrackPointExtension>
            <ns3:hr>116</ns3:hr>
            <ns3:cad>64</ns3:cad>
          </ns3:TrackPointExtension>
        </extensions>
      </trkpt>
      <trkpt lat="45.25270138867199420928955078125" lon="-71.14867371506989002227783203125">
        <ele>673</ele>
        <time>2026-08-22T03:09:37.000Z</time>
        <extensions>
          <ns3:TrackPointExtension>
            <ns3:hr>116</ns3:hr>
            <ns3:cad>64</ns3:cad>
          </ns3:TrackPointExtension>
        </extensions>
      </trkpt>
      <trkpt lat="45.25271479971706867218017578125" lon="-71.1486781574785709381103515625">
        <ele>673</ele>
        <time>2026-08-22T03:09:38.000Z</time>
        <extensions>
          <ns3:TrackPointExtension>
            <ns3:hr>116</ns3:hr>
            <ns3:cad>0</ns3:cad>
          </ns3:TrackPointExtension>
        </extensions>
      </trkpt>
      <trkpt lat="45.25272242724895477294921875" lon="-71.14867589436471462249755859375">
        <ele>672.79998779296875</ele>
        <time>2026-08-22T03:09:39.000Z</time>
        <extensions>
          <ns3:TrackPointExtension>
            <ns3:hr>116</ns3:hr>
            <ns3:cad>0</ns3:cad>
          </ns3:TrackPointExtension>
        </extensions>
      </trkpt>
      <trkpt lat="45.25273223407566547393798828125" lon="-71.14867539145052433013916015625">
        <ele>672.5999755859375</ele>
        <time>2026-08-22T03:09:40.000Z</time>
        <extensions>
          <ns3:TrackPointExtension>
            <ns3:hr>115</ns3:hr>
            <ns3:cad>0</ns3:cad>
          </ns3:TrackPointExtension>
        </extensions>
      </trkpt>
      <trkpt lat="45.25274346582591533660888671875" lon="-71.14867798984050750732421875">
        <ele>672.4000244140625</ele>
        <time>2026-08-22T03:09:41.000Z</time>
        <extensions>
          <ns3:TrackPointExtension>
            <ns3:hr>115</ns3:hr>
            <ns3:cad>69</ns3:cad>
          </ns3:TrackPointExtension>
        </extensions>
      </trkpt>
      <trkpt lat="45.2527551166713237762451171875" lon="-71.1486791633069515228271484375">
        <ele>672.20001220703125</ele>
        <time>2026-08-22T03:09:42.000Z</time>
        <extensions>
          <ns3:TrackPointExtension>
            <ns3:hr>115</ns3:hr>
            <ns3:cad>69</ns3:cad>
          </ns3:TrackPointExtension>
        </extensions>
      </trkpt>
      <trkpt lat="45.25276542641222476959228515625" lon="-71.1486858688294887542724609375">
        <ele>672</ele>
        <time>2026-08-22T03:09:43.000Z</time>
        <extensions>
          <ns3:TrackPointExtension>
            <ns3:hr>114</ns3:hr>
            <ns3:cad>65</ns3:cad>
          </ns3:TrackPointExtension>
        </extensions>
      </trkpt>
      <trkpt lat="45.2527816034853458404541015625" lon="-71.148703135550022125244140625">
        <ele>671.79998779296875</ele>
        <time>2026-08-22T03:09:44.000Z</time>
        <extensions>
          <ns3:TrackPointExtension>
            <ns3:hr>114</ns3:hr>
            <ns3:cad>65</ns3:cad>
          </ns3:TrackPointExtension>
        </extensions>
      </trkpt>
      <trkpt lat="45.25279174558818340301513671875" lon="-71.1487106792628765106201171875">
        <ele>671.5999755859375</ele>
        <time>2026-08-22T03:09:45.000Z</time>
        <extensions>
          <ns3:TrackPointExtension>
            <ns3:hr>114</ns3:hr>
            <ns3:cad>65</ns3:cad>
          </ns3:TrackPointExtension>
        </extensions>
      </trkpt>
      <trkpt lat="45.2528020553290843963623046875" lon="-71.14871880970895290374755859375">
        <ele>671.20001220703125</ele>
        <time>2026-08-22T03:09:46.000Z</time>
        <extensions>
          <ns3:TrackPointExtension>
            <ns3:hr>114</ns3:hr>
            <ns3:cad>65</ns3:cad>
          </ns3:TrackPointExtension>
        </extensions>
      </trkpt>
      <trkpt lat="45.25281487964093685150146484375" lon="-71.1487227492034435272216796875">
        <ele>671</ele>
        <time>2026-08-22T03:09:47.000Z</time>
        <extensions>
          <ns3:TrackPointExtension>
            <ns3:hr>114</ns3:hr>
            <ns3:cad>65</ns3:cad>
          </ns3:TrackPointExtension>
        </extensions>
      </trkpt>
      <trkpt lat="45.2528236806392669677734375" lon="-71.14872031845152378082275390625">
        <ele>670.5999755859375</ele>
        <time>2026-08-22T03:09:48.000Z</time>
        <extensions>
          <ns3:TrackPointExtension>
            <ns3:hr>114</ns3:hr>
            <ns3:cad>0</ns3:cad>
          </ns3:TrackPointExtension>
        </extensions>
      </trkpt>
      <trkpt lat="45.2528317272663116455078125" lon="-71.1487157084047794342041015625">
        <ele>670.4000244140625</ele>
        <time>2026-08-22T03:09:49.000Z</time>
        <extensions>
          <ns3:TrackPointExtension>
            <ns3:hr>113</ns3:hr>
            <ns3:cad>0</ns3:cad>
          </ns3:TrackPointExtension>
        </extensions>
      </trkpt>
      <trkpt lat="45.25284103117883205413818359375" lon="-71.14870774559676647186279296875">
        <ele>670.20001220703125</ele>
        <time>2026-08-22T03:09:50.000Z</time>
        <extensions>
          <ns3:TrackPointExtension>
            <ns3:hr>113</ns3:hr>
            <ns3:cad>0</ns3:cad>
          </ns3:TrackPointExtension>
        </extensions>
      </trkpt>
      <trkpt lat="45.25285460986196994781494140625" lon="-71.14869701676070690155029296875">
        <ele>669.79998779296875</ele>
        <time>2026-08-22T03:09:51.000Z</time>
        <extensions>
          <ns3:TrackPointExtension>
            <ns3:hr>113</ns3:hr>
            <ns3:cad>0</ns3:cad>
          </ns3:TrackPointExtension>
        </extensions>
      </trkpt>
      <trkpt lat="45.25286500342190265655517578125" lon="-71.1486898921430110931396484375">
        <ele>669.79998779296875</ele>
        <time>2026-08-22T03:09:52.000Z</time>
        <extensions>
          <ns3:TrackPointExtension>
            <ns3:hr>113</ns3:hr>
            <ns3:cad>0</ns3:cad>
          </ns3:TrackPointExtension>
        </extensions>
      </trkpt>
      <trkpt lat="45.2528748102486133575439453125" lon="-71.14868913777172565460205078125">
        <ele>669.5999755859375</ele>
        <time>2026-08-22T03:09:53.000Z</time>
        <extensions>
          <ns3:TrackPointExtension>
            <ns3:hr>113</ns3:hr>
            <ns3:cad>0</ns3:cad>
          </ns3:TrackPointExtension>
        </extensions>
      </trkpt>
      <trkpt lat="45.252883695065975189208984375" lon="-71.14868737757205963134765625">
        <ele>669.4000244140625</ele>
        <time>2026-08-22T03:09:54.000Z</time>
        <extensions>
          <ns3:TrackPointExtension>
            <ns3:hr>113</ns3:hr>
            <ns3:cad>0</ns3:cad>
          </ns3:TrackPointExtension>
        </extensions>
      </trkpt>
      <trkpt lat="45.25289333425462245941162109375" lon="-71.14868025295436382293701171875">
        <ele>669.20001220703125</ele>
        <time>2026-08-22T03:09:55.000Z</time>
        <extensions>
          <ns3:TrackPointExtension>
            <ns3:hr>113</ns3:hr>
            <ns3:cad>0</ns3:cad>
          </ns3:TrackPointExtension>
        </extensions>
      </trkpt>
      <trkpt lat="45.25290154851973056793212890625" lon="-71.14867589436471462249755859375">
        <ele>669.20001220703125</ele>
        <time>2026-08-22T03:09:56.000Z</time>
        <extensions>
          <ns3:TrackPointExtension>
            <ns3:hr>114</ns3:hr>
            <ns3:cad>0</ns3:cad>
          </ns3:TrackPointExtension>
        </extensions>
      </trkpt>
      <trkpt lat="45.2529133670032024383544921875" lon="-71.1486680991947650909423828125">
        <ele>669</ele>
        <time>2026-08-22T03:09:57.000Z</time>
        <extensions>
          <ns3:TrackPointExtension>
            <ns3:hr>114</ns3:hr>
            <ns3:cad>0</ns3:cad>
          </ns3:TrackPointExtension>
        </extensions>
      </trkpt>
      <trkpt lat="45.25292099453508853912353515625" lon="-71.14865963347256183624267578125">
        <ele>668.79998779296875</ele>
        <time>2026-08-22T03:09:58.000Z</time>
        <extensions>
          <ns3:TrackPointExtension>
            <ns3:hr>115</ns3:hr>
            <ns3:cad>0</ns3:cad>
          </ns3:TrackPointExtension>
        </extensions>
      </trkpt>
      <trkpt lat="45.25293591432273387908935546875" lon="-71.1486496590077877044677734375">
        <ele>668.5999755859375</ele>
        <time>2026-08-22T03:09:59.000Z</time>
        <extensions>
          <ns3:TrackPointExtension>
            <ns3:hr>116</ns3:hr>
            <ns3:cad>0</ns3:cad>
          </ns3:TrackPointExtension>
        </extensions>
      </trkpt>
      <trkpt lat="45.25295251049101352691650390625" lon="-71.14863750524818897247314453125">
        <ele>668.4000244140625</ele>
        <time>2026-08-22T03:10:00.000Z</time>
        <extensions>
          <ns3:TrackPointExtension>
            <ns3:hr>117</ns3:hr>
            <ns3:cad>0</ns3:cad>
          </ns3:TrackPointExtension>
        </extensions>
      </trkpt>
      <trkpt lat="45.25296072475612163543701171875" lon="-71.1486317217350006103515625">
        <ele>668.4000244140625</ele>
        <time>2026-08-22T03:10:01.000Z</time>
        <extensions>
          <ns3:TrackPointExtension>
            <ns3:hr>117</ns3:hr>
            <ns3:cad>60</ns3:cad>
          </ns3:TrackPointExtension>
        </extensions>
      </trkpt>
      <trkpt lat="45.2529740519821643829345703125" lon="-71.14862292073667049407958984375">
        <ele>668.4000244140625</ele>
        <time>2026-08-22T03:10:02.000Z</time>
        <extensions>
          <ns3:TrackPointExtension>
            <ns3:hr>117</ns3:hr>
            <ns3:cad>60</ns3:cad>
          </ns3:TrackPointExtension>
        </extensions>
      </trkpt>
      <trkpt lat="45.252986289560794830322265625" lon="-71.14861688576638698577880859375">
        <ele>668.20001220703125</ele>
        <time>2026-08-22T03:10:03.000Z</time>
        <extensions>
          <ns3:TrackPointExtension>
            <ns3:hr>116</ns3:hr>
            <ns3:cad>0</ns3:cad>
          </ns3:TrackPointExtension>
        </extensions>
      </trkpt>
      <trkpt lat="45.25299760513007640838623046875" lon="-71.14861319772899150848388671875">
        <ele>668</ele>
        <time>2026-08-22T03:10:04.000Z</time>
        <extensions>
          <ns3:TrackPointExtension>
            <ns3:hr>116</ns3:hr>
            <ns3:cad>0</ns3:cad>
          </ns3:TrackPointExtension>
        </extensions>
      </trkpt>
      <trkpt lat="45.2530092559754848480224609375" lon="-71.14861168898642063140869140625">
        <ele>668</ele>
        <time>2026-08-22T03:10:05.000Z</time>
        <extensions>
          <ns3:TrackPointExtension>
            <ns3:hr>116</ns3:hr>
            <ns3:cad>0</ns3:cad>
          </ns3:TrackPointExtension>
        </extensions>
      </trkpt>
      <trkpt lat="45.2530275285243988037109375" lon="-71.1486050672829151153564453125">
        <ele>667.79998779296875</ele>
        <time>2026-08-22T03:10:06.000Z</time>
        <extensions>
          <ns3:TrackPointExtension>
            <ns3:hr>116</ns3:hr>
            <ns3:cad>0</ns3:cad>
          </ns3:TrackPointExtension>
        </extensions>
      </trkpt>
      <trkpt lat="45.2530427835881710052490234375" lon="-71.14859207533299922943115234375">
        <ele>667.4000244140625</ele>
        <time>2026-08-22T03:10:07.000Z</time>
        <extensions>
          <ns3:TrackPointExtension>
            <ns3:hr>116</ns3:hr>
            <ns3:cad>0</ns3:cad>
          </ns3:TrackPointExtension>
        </extensions>
      </trkpt>
      <trkpt lat="45.25305896066129207611083984375" lon="-71.14857832901179790496826171875">
        <ele>667.20001220703125</ele>
        <time>2026-08-22T03:10:08.000Z</time>
        <extensions>
          <ns3:TrackPointExtension>
            <ns3:hr>116</ns3:hr>
            <ns3:cad>56</ns3:cad>
          </ns3:TrackPointExtension>
        </extensions>
      </trkpt>
      <trkpt lat="45.25306901894509792327880859375" lon="-71.14856407977640628814697265625">
        <ele>667</ele>
        <time>2026-08-22T03:10:09.000Z</time>
        <extensions>
          <ns3:TrackPointExtension>
            <ns3:hr>116</ns3:hr>
            <ns3:cad>56</ns3:cad>
          </ns3:TrackPointExtension>
        </extensions>
      </trkpt>
      <trkpt lat="45.25308276526629924774169921875" lon="-71.14855368621647357940673828125">
        <ele>666.79998779296875</ele>
        <time>2026-08-22T03:10:10.000Z</time>
        <extensions>
          <ns3:TrackPointExtension>
            <ns3:hr>116</ns3:hr>
            <ns3:cad>56</ns3:cad>
          </ns3:TrackPointExtension>
        </extensions>
      </trkpt>
      <trkpt lat="45.25309550575911998748779296875" lon="-71.14854698069393634796142578125">
        <ele>666.5999755859375</ele>
        <time>2026-08-22T03:10:11.000Z</time>
        <extensions>
          <ns3:TrackPointExtension>
            <ns3:hr>116</ns3:hr>
            <ns3:cad>56</ns3:cad>
          </ns3:TrackPointExtension>
        </extensions>
      </trkpt>
      <trkpt lat="45.2531108446419239044189453125" lon="-71.148544214665889739990234375">
        <ele>666.4000244140625</ele>
        <time>2026-08-22T03:10:12.000Z</time>
        <extensions>
          <ns3:TrackPointExtension>
            <ns3:hr>116</ns3:hr>
            <ns3:cad>56</ns3:cad>
          </ns3:TrackPointExtension>
        </extensions>
      </trkpt>
      <trkpt lat="45.25312534533441066741943359375" lon="-71.14853558130562305450439453125">
        <ele>666.20001220703125</ele>
        <time>2026-08-22T03:10:13.000Z</time>
        <extensions>
          <ns3:TrackPointExtension>
            <ns3:hr>116</ns3:hr>
            <ns3:cad>56</ns3:cad>
          </ns3:TrackPointExtension>
        </extensions>
      </trkpt>
      <trkpt lat="45.25313691236078739166259765625" lon="-71.1485296301543712615966796875">
        <ele>666.20001220703125</ele>
        <time>2026-08-22T03:10:14.000Z</time>
        <extensions>
          <ns3:TrackPointExtension>
            <ns3:hr>116</ns3:hr>
            <ns3:cad>0</ns3:cad>
          </ns3:TrackPointExtension>
        </extensions>
      </trkpt>
      <trkpt lat="45.253151915967464447021484375" lon="-71.14852451719343662261962890625">
        <ele>666</ele>
        <time>2026-08-22T03:10:15.000Z</time>
        <extensions>
          <ns3:TrackPointExtension>
            <ns3:hr>115</ns3:hr>
            <ns3:cad>0</ns3:cad>
          </ns3:TrackPointExtension>
        </extensions>
      </trkpt>
      <trkpt lat="45.253163315355777740478515625" lon="-71.14852636121213436126708984375">
        <ele>665.79998779296875</ele>
        <time>2026-08-22T03:10:16.000Z</time>
        <extensions>
          <ns3:TrackPointExtension>
            <ns3:hr>116</ns3:hr>
            <ns3:cad>0</ns3:cad>
          </ns3:TrackPointExtension>
        </extensions>
      </trkpt>
      <trkpt lat="45.2531762234866619110107421875" lon="-71.14850993268191814422607421875">
        <ele>665.5999755859375</ele>
        <time>2026-08-22T03:10:17.000Z</time>
        <extensions>
          <ns3:TrackPointExtension>
            <ns3:hr>116</ns3:hr>
            <ns3:cad>0</ns3:cad>
          </ns3:TrackPointExtension>
        </extensions>
      </trkpt>
      <trkpt lat="45.25318871252238750457763671875" lon="-71.14848612807691097259521484375">
        <ele>665.5999755859375</ele>
        <time>2026-08-22T03:10:18.000Z</time>
        <extensions>
          <ns3:TrackPointExtension>
            <ns3:hr>116</ns3:hr>
            <ns3:cad>0</ns3:cad>
          </ns3:TrackPointExtension>
        </extensions>
      </trkpt>
      <trkpt lat="45.25319960899651050567626953125" lon="-71.14846869371831417083740234375">
        <ele>665.4000244140625</ele>
        <time>2026-08-22T03:10:19.000Z</time>
        <extensions>
          <ns3:TrackPointExtension>
            <ns3:hr>116</ns3:hr>
            <ns3:cad>58</ns3:cad>
          </ns3:TrackPointExtension>
        </extensions>
      </trkpt>
      <trkpt lat="45.2532131038606166839599609375" lon="-71.1484548635780811309814453125">
        <ele>665.20001220703125</ele>
        <time>2026-08-22T03:10:20.000Z</time>
        <extensions>
          <ns3:TrackPointExtension>
            <ns3:hr>116</ns3:hr>
            <ns3:cad>58</ns3:cad>
          </ns3:TrackPointExtension>
        </extensions>
      </trkpt>
      <trkpt lat="45.25322693400084972381591796875" lon="-71.14844338037073612213134765625">
        <ele>665</ele>
        <time>2026-08-22T03:10:21.000Z</time>
        <extensions>
          <ns3:TrackPointExtension>
            <ns3:hr>116</ns3:hr>
            <ns3:cad>58</ns3:cad>
          </ns3:TrackPointExtension>
        </extensions>
      </trkpt>
      <trkpt lat="45.25324269197881221771240234375" lon="-71.14842745475471019744873046875">
        <ele>665</ele>
        <time>2026-08-22T03:10:22.000Z</time>
        <extensions>
          <ns3:TrackPointExtension>
            <ns3:hr>116</ns3:hr>
            <ns3:cad>58</ns3:cad>
          </ns3:TrackPointExtension>
        </extensions>
      </trkpt>
      <trkpt lat="45.25325484573841094970703125" lon="-71.14841781556606292724609375">
        <ele>664.79998779296875</ele>
        <time>2026-08-22T03:10:23.000Z</time>
        <extensions>
          <ns3:TrackPointExtension>
            <ns3:hr>116</ns3:hr>
            <ns3:cad>58</ns3:cad>
          </ns3:TrackPointExtension>
        </extensions>
      </trkpt>
      <trkpt lat="45.2532684244215488433837890625" lon="-71.1484069190919399261474609375">
        <ele>664.5999755859375</ele>
        <time>2026-08-22T03:10:24.000Z</time>
        <extensions>
          <ns3:TrackPointExtension>
            <ns3:hr>116</ns3:hr>
            <ns3:cad>58</ns3:cad>
          </ns3:TrackPointExtension>
        </extensions>
      </trkpt>
      <trkpt lat="45.2532801590859889984130859375" lon="-71.14840080030262470245361328125">
        <ele>664.4000244140625</ele>
        <time>2026-08-22T03:10:25.000Z</time>
        <extensions>
          <ns3:TrackPointExtension>
            <ns3:hr>117</ns3:hr>
            <ns3:cad>58</ns3:cad>
          </ns3:TrackPointExtension>
        </extensions>
      </trkpt>
      <trkpt lat="45.253296755254268646240234375" lon="-71.148389987647533416748046875">
        <ele>664.4000244140625</ele>
        <time>2026-08-22T03:10:26.000Z</time>
        <extensions>
          <ns3:TrackPointExtension>
            <ns3:hr>117</ns3:hr>
            <ns3:cad>58</ns3:cad>
          </ns3:TrackPointExtension>
        </extensions>
      </trkpt>
      <trkpt lat="45.2533076517283916473388671875" lon="-71.14837087690830230712890625">
        <ele>664.20001220703125</ele>
        <time>2026-08-22T03:10:27.000Z</time>
        <extensions>
          <ns3:TrackPointExtension>
            <ns3:hr>118</ns3:hr>
            <ns3:cad>58</ns3:cad>
          </ns3:TrackPointExtension>
        </extensions>
      </trkpt>
      <trkpt lat="45.2533240802586078643798828125" lon="-71.148349754512310028076171875">
        <ele>664</ele>
        <time>2026-08-22T03:10:28.000Z</time>
        <extensions>
          <ns3:TrackPointExtension>
            <ns3:hr>118</ns3:hr>
            <ns3:cad>58</ns3:cad>
          </ns3:TrackPointExtension>
        </extensions>
      </trkpt>
      <trkpt lat="45.25333556346595287322998046875" lon="-71.14832452498376369476318359375">
        <ele>663.79998779296875</ele>
        <time>2026-08-22T03:10:29.000Z</time>
        <extensions>
          <ns3:TrackPointExtension>
            <ns3:hr>118</ns3:hr>
            <ns3:cad>58</ns3:cad>
          </ns3:TrackPointExtension>
        </extensions>
      </trkpt>
      <trkpt lat="45.25334729813039302825927734375" lon="-71.14830918610095977783203125">
        <ele>663.79998779296875</ele>
        <time>2026-08-22T03:10:30.000Z</time>
        <extensions>
          <ns3:TrackPointExtension>
            <ns3:hr>118</ns3:hr>
            <ns3:cad>58</ns3:cad>
          </ns3:TrackPointExtension>
        </extensions>
      </trkpt>
      <trkpt lat="45.25336087681353092193603515625" lon="-71.14829602651298046112060546875">
        <ele>663.5999755859375</ele>
        <time>2026-08-22T03:10:31.000Z</time>
        <extensions>
          <ns3:TrackPointExtension>
            <ns3:hr>118</ns3:hr>
            <ns3:cad>58</ns3:cad>
          </ns3:TrackPointExtension>
        </extensions>
      </trkpt>
      <trkpt lat="45.2533760480582714080810546875" lon="-71.148282699286937713623046875">
        <ele>663.5999755859375</ele>
        <time>2026-08-22T03:10:32.000Z</time>
        <extensions>
          <ns3:TrackPointExtension>
            <ns3:hr>117</ns3:hr>
            <ns3:cad>0</ns3:cad>
          </ns3:TrackPointExtension>
        </extensions>
      </trkpt>
      <trkpt lat="45.25339163839817047119140625" lon="-71.1482751555740833282470703125">
        <ele>663.4000244140625</ele>
        <time>2026-08-22T03:10:33.000Z</time>
        <extensions>
          <ns3:TrackPointExtension>
            <ns3:hr>116</ns3:hr>
            <ns3:cad>0</ns3:cad>
          </ns3:TrackPointExtension>
        </extensions>
      </trkpt>
      <trkpt lat="45.25340379215776920318603515625" lon="-71.148271299898624420166015625">
        <ele>663.20001220703125</ele>
        <time>2026-08-22T03:10:34.000Z</time>
        <extensions>
          <ns3:TrackPointExtension>
            <ns3:hr>116</ns3:hr>
            <ns3:cad>0</ns3:cad>
          </ns3:TrackPointExtension>
        </extensions>
      </trkpt>
      <trkpt lat="45.25341980159282684326171875" lon="-71.14826031960546970367431640625">
        <ele>663</ele>
        <time>2026-08-22T03:10:35.000Z</time>
        <extensions>
          <ns3:TrackPointExtension>
            <ns3:hr>116</ns3:hr>
            <ns3:cad>0</ns3:cad>
          </ns3:TrackPointExtension>
        </extensions>
      </trkpt>
      <trkpt lat="45.25343589484691619873046875" lon="-71.14824120886623859405517578125">
        <ele>662.5999755859375</ele>
        <time>2026-08-22T03:10:36.000Z</time>
        <extensions>
          <ns3:TrackPointExtension>
            <ns3:hr>116</ns3:hr>
            <ns3:cad>0</ns3:cad>
          </ns3:TrackPointExtension>
        </extensions>
      </trkpt>
      <trkpt lat="45.2534498088061809539794921875" lon="-71.14822310395538806915283203125">
        <ele>662.4000244140625</ele>
        <time>2026-08-22T03:10:37.000Z</time>
        <extensions>
          <ns3:TrackPointExtension>
            <ns3:hr>117</ns3:hr>
            <ns3:cad>0</ns3:cad>
          </ns3:TrackPointExtension>
        </extensions>
      </trkpt>
      <trkpt lat="45.25346363894641399383544921875" lon="-71.14820323884487152099609375">
        <ele>662</ele>
        <time>2026-08-22T03:10:38.000Z</time>
        <extensions>
          <ns3:TrackPointExtension>
            <ns3:hr>116</ns3:hr>
            <ns3:cad>0</ns3:cad>
          </ns3:TrackPointExtension>
        </extensions>
      </trkpt>
      <trkpt lat="45.25347336195409297943115234375" lon="-71.14818773232400417327880859375">
        <ele>661.79998779296875</ele>
        <time>2026-08-22T03:10:39.000Z</time>
        <extensions>
          <ns3:TrackPointExtension>
            <ns3:hr>116</ns3:hr>
            <ns3:cad>0</ns3:cad>
          </ns3:TrackPointExtension>
        </extensions>
      </trkpt>
      <trkpt lat="45.2534843422472476959228515625" lon="-71.1481665261089801788330078125">
        <ele>661.5999755859375</ele>
        <time>2026-08-22T03:10:40.000Z</time>
        <extensions>
          <ns3:TrackPointExtension>
            <ns3:hr>117</ns3:hr>
            <ns3:cad>0</ns3:cad>
          </ns3:TrackPointExtension>
        </extensions>
      </trkpt>
      <trkpt lat="45.25349834002554416656494140625" lon="-71.14814800210297107696533203125">
        <ele>661.4000244140625</ele>
        <time>2026-08-22T03:10:41.000Z</time>
        <extensions>
          <ns3:TrackPointExtension>
            <ns3:hr>117</ns3:hr>
            <ns3:cad>0</ns3:cad>
          </ns3:TrackPointExtension>
        </extensions>
      </trkpt>
      <trkpt lat="45.253509320318698883056640625" lon="-71.14813073538243770599365234375">
        <ele>661.20001220703125</ele>
        <time>2026-08-22T03:10:42.000Z</time>
        <extensions>
          <ns3:TrackPointExtension>
            <ns3:hr>118</ns3:hr>
            <ns3:cad>0</ns3:cad>
          </ns3:TrackPointExtension>
        </extensions>
      </trkpt>
      <trkpt lat="45.2535228990018367767333984375" lon="-71.14811698906123638153076171875">
        <ele>661.20001220703125</ele>
        <time>2026-08-22T03:10:43.000Z</time>
        <extensions>
          <ns3:TrackPointExtension>
            <ns3:hr>118</ns3:hr>
            <ns3:cad>0</ns3:cad>
          </ns3:TrackPointExtension>
        </extensions>
      </trkpt>
      <trkpt lat="45.25353647768497467041015625" lon="-71.148107014596462249755859375">
        <ele>661</ele>
        <time>2026-08-22T03:10:44.000Z</time>
        <extensions>
          <ns3:TrackPointExtension>
            <ns3:hr>118</ns3:hr>
            <ns3:cad>0</ns3:cad>
          </ns3:TrackPointExtension>
        </extensions>
      </trkpt>
      <trkpt lat="45.25354863144457340240478515625" lon="-71.1480952799320220947265625">
        <ele>660.5999755859375</ele>
        <time>2026-08-22T03:10:45.000Z</time>
        <extensions>
          <ns3:TrackPointExtension>
            <ns3:hr>119</ns3:hr>
            <ns3:cad>0</ns3:cad>
          </ns3:TrackPointExtension>
        </extensions>
      </trkpt>
      <trkpt lat="45.25356070138514041900634765625" lon="-71.1480793543159961700439453125">
        <ele>660.4000244140625</ele>
        <time>2026-08-22T03:10:46.000Z</time>
        <extensions>
          <ns3:TrackPointExtension>
            <ns3:hr>119</ns3:hr>
            <ns3:cad>69</ns3:cad>
          </ns3:TrackPointExtension>
        </extensions>
      </trkpt>
      <trkpt lat="45.25357008911669254302978515625" lon="-71.14805915392935276031494140625">
        <ele>660.20001220703125</ele>
        <time>2026-08-22T03:10:47.000Z</time>
        <extensions>
          <ns3:TrackPointExtension>
            <ns3:hr>120</ns3:hr>
            <ns3:cad>69</ns3:cad>
          </ns3:TrackPointExtension>
        </extensions>
      </trkpt>
      <trkpt lat="45.2535788901150226593017578125" lon="-71.14802964963018894195556640625">
        <ele>660</ele>
        <time>2026-08-22T03:10:48.000Z</time>
        <extensions>
          <ns3:TrackPointExtension>
            <ns3:hr>120</ns3:hr>
            <ns3:cad>72</ns3:cad>
          </ns3:TrackPointExtension>
        </extensions>
      </trkpt>
      <trkpt lat="45.253587774932384490966796875" lon="-71.148011125624179840087890625">
        <ele>659.5999755859375</ele>
        <time>2026-08-22T03:10:49.000Z</time>
        <extensions>
          <ns3:TrackPointExtension>
            <ns3:hr>120</ns3:hr>
            <ns3:cad>72</ns3:cad>
          </ns3:TrackPointExtension>
        </extensions>
      </trkpt>
      <trkpt lat="45.25359238497912883758544921875" lon="-71.1479866504669189453125">
        <ele>659.4000244140625</ele>
        <time>2026-08-22T03:10:50.000Z</time>
        <extensions>
          <ns3:TrackPointExtension>
            <ns3:hr>120</ns3:hr>
            <ns3:cad>72</ns3:cad>
          </ns3:TrackPointExtension>
        </extensions>
      </trkpt>
      <trkpt lat="45.253600180149078369140625" lon="-71.1479620076715946197509765625">
        <ele>659.4000244140625</ele>
        <time>2026-08-22T03:10:51.000Z</time>
        <extensions>
          <ns3:TrackPointExtension>
            <ns3:hr>120</ns3:hr>
            <ns3:cad>72</ns3:cad>
          </ns3:TrackPointExtension>
        </extensions>
      </trkpt>
      <trkpt lat="45.25360621511936187744140625" lon="-71.1479345150291919708251953125">
        <ele>659.20001220703125</ele>
        <time>2026-08-22T03:10:52.000Z</time>
        <extensions>
          <ns3:TrackPointExtension>
            <ns3:hr>121</ns3:hr>
            <ns3:cad>72</ns3:cad>
          </ns3:TrackPointExtension>
        </extensions>
      </trkpt>
      <trkpt lat="45.253611244261264801025390625" lon="-71.147903837263584136962890625">
        <ele>659</ele>
        <time>2026-08-22T03:10:53.000Z</time>
        <extensions>
          <ns3:TrackPointExtension>
            <ns3:hr>121</ns3:hr>
            <ns3:cad>71</ns3:cad>
          </ns3:TrackPointExtension>
        </extensions>
      </trkpt>
      <trkpt lat="45.25361132808029651641845703125" lon="-71.14788229577243328094482421875">
        <ele>658.79998779296875</ele>
        <time>2026-08-22T03:10:54.000Z</time>
        <extensions>
          <ns3:TrackPointExtension>
            <ns3:hr>121</ns3:hr>
            <ns3:cad>71</ns3:cad>
          </ns3:TrackPointExtension>
        </extensions>
      </trkpt>
      <trkpt lat="45.25361426174640655517578125" lon="-71.1478537134826183319091796875">
        <ele>658.79998779296875</ele>
        <time>2026-08-22T03:10:55.000Z</time>
        <extensions>
          <ns3:TrackPointExtension>
            <ns3:hr>121</ns3:hr>
            <ns3:cad>71</ns3:cad>
          </ns3:TrackPointExtension>
        </extensions>
      </trkpt>
      <trkpt lat="45.25362105108797550201416015625" lon="-71.147830747067928314208984375">
        <ele>658.5999755859375</ele>
        <time>2026-08-22T03:10:56.000Z</time>
        <extensions>
          <ns3:TrackPointExtension>
            <ns3:hr>120</ns3:hr>
            <ns3:cad>71</ns3:cad>
          </ns3:TrackPointExtension>
        </extensions>
      </trkpt>
      <trkpt lat="45.25362406857311725616455078125" lon="-71.14780962467193603515625">
        <ele>658.4000244140625</ele>
        <time>2026-08-22T03:10:57.000Z</time>
        <extensions>
          <ns3:TrackPointExtension>
            <ns3:hr>121</ns3:hr>
            <ns3:cad>71</ns3:cad>
          </ns3:TrackPointExtension>
        </extensions>
      </trkpt>
      <trkpt lat="45.2536308579146862030029296875" lon="-71.1477787792682647705078125">
        <ele>658.4000244140625</ele>
        <time>2026-08-22T03:10:58.000Z</time>
        <extensions>
          <ns3:TrackPointExtension>
            <ns3:hr>120</ns3:hr>
            <ns3:cad>72</ns3:cad>
          </ns3:TrackPointExtension>
        </extensions>
      </trkpt>
      <trkpt lat="45.25363915599882602691650390625" lon="-71.1477615125477313995361328125">
        <ele>658.4000244140625</ele>
        <time>2026-08-22T03:10:59.000Z</time>
        <extensions>
          <ns3:TrackPointExtension>
            <ns3:hr>120</ns3:hr>
            <ns3:cad>72</ns3:cad>
          </ns3:TrackPointExtension>
        </extensions>
      </trkpt>
      <trkpt lat="45.25365172885358333587646484375" lon="-71.14774215035140514373779296875">
        <ele>658.20001220703125</ele>
        <time>2026-08-22T03:11:00.000Z</time>
        <extensions>
          <ns3:TrackPointExtension>
            <ns3:hr>120</ns3:hr>
            <ns3:cad>72</ns3:cad>
          </ns3:TrackPointExtension>
        </extensions>
      </trkpt>
      <trkpt lat="45.2536630444228649139404296875" lon="-71.147721111774444580078125">
        <ele>658.20001220703125</ele>
        <time>2026-08-22T03:11:01.000Z</time>
        <extensions>
          <ns3:TrackPointExtension>
            <ns3:hr>120</ns3:hr>
            <ns3:cad>72</ns3:cad>
          </ns3:TrackPointExtension>
        </extensions>
      </trkpt>
      <trkpt lat="45.25367184542119503021240234375" lon="-71.14769873209297657012939453125">
        <ele>658</ele>
        <time>2026-08-22T03:11:02.000Z</time>
        <extensions>
          <ns3:TrackPointExtension>
            <ns3:hr>121</ns3:hr>
            <ns3:cad>72</ns3:cad>
          </ns3:TrackPointExtension>
        </extensions>
      </trkpt>
      <trkpt lat="45.253685005009174346923828125" lon="-71.1476726643741130828857421875">
        <ele>657.79998779296875</ele>
        <time>2026-08-22T03:11:03.000Z</time>
        <extensions>
          <ns3:TrackPointExtension>
            <ns3:hr>120</ns3:hr>
            <ns3:cad>72</ns3:cad>
          </ns3:TrackPointExtension>
        </extensions>
      </trkpt>
      <trkpt lat="45.253703109920024871826171875" lon="-71.1476485244929790496826171875">
        <ele>657.5999755859375</ele>
        <time>2026-08-22T03:11:04.000Z</time>
        <extensions>
          <ns3:TrackPointExtension>
            <ns3:hr>120</ns3:hr>
            <ns3:cad>72</ns3:cad>
          </ns3:TrackPointExtension>
        </extensions>
      </trkpt>
      <trkpt lat="45.25371643714606761932373046875" lon="-71.147630922496318817138671875">
        <ele>657.4000244140625</ele>
        <time>2026-08-22T03:11:05.000Z</time>
        <extensions>
          <ns3:TrackPointExtension>
            <ns3:hr>120</ns3:hr>
            <ns3:cad>72</ns3:cad>
          </ns3:TrackPointExtension>
        </extensions>
      </trkpt>
      <trkpt lat="45.25372817181050777435302734375" lon="-71.14761725999414920806884765625">
        <ele>657.20001220703125</ele>
        <time>2026-08-22T03:11:06.000Z</time>
        <extensions>
          <ns3:TrackPointExtension>
            <ns3:hr>120</ns3:hr>
            <ns3:cad>72</ns3:cad>
          </ns3:TrackPointExtension>
        </extensions>
      </trkpt>
      <trkpt lat="45.25373638607561588287353515625" lon="-71.1476032622158527374267578125">
        <ele>657.20001220703125</ele>
        <time>2026-08-22T03:11:07.000Z</time>
        <extensions>
          <ns3:TrackPointExtension>
            <ns3:hr>121</ns3:hr>
            <ns3:cad>0</ns3:cad>
          </ns3:TrackPointExtension>
        </extensions>
      </trkpt>
      <trkpt lat="45.25374711491167545318603515625" lon="-71.1475829780101776123046875">
        <ele>657</ele>
        <time>2026-08-22T03:11:08.000Z</time>
        <extensions>
          <ns3:TrackPointExtension>
            <ns3:hr>120</ns3:hr>
            <ns3:cad>0</ns3:cad>
          </ns3:TrackPointExtension>
        </extensions>
      </trkpt>
      <trkpt lat="45.2537559159100055694580078125" lon="-71.147563867270946502685546875">
        <ele>657</ele>
        <time>2026-08-22T03:11:09.000Z</time>
        <extensions>
          <ns3:TrackPointExtension>
            <ns3:hr>121</ns3:hr>
            <ns3:cad>0</ns3:cad>
          </ns3:TrackPointExtension>
        </extensions>
      </trkpt>
      <trkpt lat="45.253767482936382293701171875" lon="-71.14755137823522090911865234375">
        <ele>656.79998779296875</ele>
        <time>2026-08-22T03:11:10.000Z</time>
        <extensions>
          <ns3:TrackPointExtension>
            <ns3:hr>121</ns3:hr>
            <ns3:cad>78</ns3:cad>
          </ns3:TrackPointExtension>
        </extensions>
      </trkpt>
      <trkpt lat="45.25378449819982051849365234375" lon="-71.14753796719014644622802734375">
        <ele>656.5999755859375</ele>
        <time>2026-08-22T03:11:11.000Z</time>
        <extensions>
          <ns3:TrackPointExtension>
            <ns3:hr>121</ns3:hr>
            <ns3:cad>78</ns3:cad>
          </ns3:TrackPointExtension>
        </extensions>
      </trkpt>
      <trkpt lat="45.25379220955073833465576171875" lon="-71.14753000438213348388671875">
        <ele>656.5999755859375</ele>
        <time>2026-08-22T03:11:12.000Z</time>
        <extensions>
          <ns3:TrackPointExtension>
            <ns3:hr>122</ns3:hr>
            <ns3:cad>78</ns3:cad>
          </ns3:TrackPointExtension>
        </extensions>
      </trkpt>
      <trkpt lat="45.25380226783454418182373046875" lon="-71.1475137434899806976318359375">
        <ele>656.4000244140625</ele>
        <time>2026-08-22T03:11:13.000Z</time>
        <extensions>
          <ns3:TrackPointExtension>
            <ns3:hr>122</ns3:hr>
            <ns3:cad>78</ns3:cad>
          </ns3:TrackPointExtension>
        </extensions>
      </trkpt>
      <trkpt lat="45.2538112364709377288818359375" lon="-71.147498153150081634521484375">
        <ele>656.20001220703125</ele>
        <time>2026-08-22T03:11:14.000Z</time>
        <extensions>
          <ns3:TrackPointExtension>
            <ns3:hr>122</ns3:hr>
            <ns3:cad>78</ns3:cad>
          </ns3:TrackPointExtension>
        </extensions>
      </trkpt>
      <trkpt lat="45.25381886400282382965087890625" lon="-71.14748440682888031005859375">
        <ele>656.20001220703125</ele>
        <time>2026-08-22T03:11:15.000Z</time>
        <extensions>
          <ns3:TrackPointExtension>
            <ns3:hr>121</ns3:hr>
            <ns3:cad>78</ns3:cad>
          </ns3:TrackPointExtension>
        </extensions>
      </trkpt>
      <trkpt lat="45.253829173743724822998046875" lon="-71.1474751867353916168212890625">
        <ele>655.79998779296875</ele>
        <time>2026-08-22T03:11:16.000Z</time>
        <extensions>
          <ns3:TrackPointExtension>
            <ns3:hr>122</ns3:hr>
            <ns3:cad>78</ns3:cad>
          </ns3:TrackPointExtension>
        </extensions>
      </trkpt>
      <trkpt lat="45.25383881293237209320068359375" lon="-71.14747233688831329345703125">
        <ele>655.5999755859375</ele>
        <time>2026-08-22T03:11:17.000Z</time>
        <extensions>
          <ns3:TrackPointExtension>
            <ns3:hr>122</ns3:hr>
            <ns3:cad>78</ns3:cad>
          </ns3:TrackPointExtension>
        </extensions>
      </trkpt>
      <trkpt lat="45.253849290311336517333984375" lon="-71.1474684812128543853759765625">
        <ele>655.4000244140625</ele>
        <time>2026-08-22T03:11:18.000Z</time>
        <extensions>
          <ns3:TrackPointExtension>
            <ns3:hr>123</ns3:hr>
            <ns3:cad>78</ns3:cad>
          </ns3:TrackPointExtension>
        </extensions>
      </trkpt>
      <trkpt lat="45.25385641492903232574462890625" lon="-71.1474622786045074462890625">
        <ele>655</ele>
        <time>2026-08-22T03:11:19.000Z</time>
        <extensions>
          <ns3:TrackPointExtension>
            <ns3:hr>123</ns3:hr>
            <ns3:cad>78</ns3:cad>
          </ns3:TrackPointExtension>
        </extensions>
      </trkpt>
      <trkpt lat="45.25386982597410678863525390625" lon="-71.1474435031414031982421875">
        <ele>654.79998779296875</ele>
        <time>2026-08-22T03:11:20.000Z</time>
        <extensions>
          <ns3:TrackPointExtension>
            <ns3:hr>123</ns3:hr>
            <ns3:cad>78</ns3:cad>
          </ns3:TrackPointExtension>
        </extensions>
      </trkpt>
      <trkpt lat="45.253884494304656982421875" lon="-71.14742883481085300445556640625">
        <ele>654.5999755859375</ele>
        <time>2026-08-22T03:11:21.000Z</time>
        <extensions>
          <ns3:TrackPointExtension>
            <ns3:hr>123</ns3:hr>
            <ns3:cad>78</ns3:cad>
          </ns3:TrackPointExtension>
        </extensions>
      </trkpt>
      <trkpt lat="45.25390134193003177642822265625" lon="-71.1474181897938251495361328125">
        <ele>654.20001220703125</ele>
        <time>2026-08-22T03:11:22.000Z</time>
        <extensions>
          <ns3:TrackPointExtension>
            <ns3:hr>122</ns3:hr>
            <ns3:cad>78</ns3:cad>
          </ns3:TrackPointExtension>
        </extensions>
      </trkpt>
      <trkpt lat="45.2539151720702648162841796875" lon="-71.14741290919482707977294921875">
        <ele>654</ele>
        <time>2026-08-22T03:11:23.000Z</time>
        <extensions>
          <ns3:TrackPointExtension>
            <ns3:hr>123</ns3:hr>
            <ns3:cad>78</ns3:cad>
          </ns3:TrackPointExtension>
        </extensions>
      </trkpt>
      <trkpt lat="45.25393067859113216400146484375" lon="-71.147413663566112518310546875">
        <ele>653.79998779296875</ele>
        <time>2026-08-22T03:11:24.000Z</time>
        <extensions>
          <ns3:TrackPointExtension>
            <ns3:hr>123</ns3:hr>
            <ns3:cad>68</ns3:cad>
          </ns3:TrackPointExtension>
        </extensions>
      </trkpt>
      <trkpt lat="45.2539421617984771728515625" lon="-71.14741408266127109527587890625">
        <ele>653.79998779296875</ele>
        <time>2026-08-22T03:11:25.000Z</time>
        <extensions>
          <ns3:TrackPointExtension>
            <ns3:hr>124</ns3:hr>
            <ns3:cad>68</ns3:cad>
          </ns3:TrackPointExtension>
        </extensions>
      </trkpt>
      <trkpt lat="45.25395691394805908203125" lon="-71.147415675222873687744140625">
        <ele>653.5999755859375</ele>
        <time>2026-08-22T03:11:26.000Z</time>
        <extensions>
          <ns3:TrackPointExtension>
            <ns3:hr>124</ns3:hr>
            <ns3:cad>68</ns3:cad>
          </ns3:TrackPointExtension>
        </extensions>
      </trkpt>
      <trkpt lat="45.2539770305156707763671875" lon="-71.147418357431888580322265625">
        <ele>653.4000244140625</ele>
        <time>2026-08-22T03:11:27.000Z</time>
        <extensions>
          <ns3:TrackPointExtension>
            <ns3:hr>124</ns3:hr>
            <ns3:cad>68</ns3:cad>
          </ns3:TrackPointExtension>
        </extensions>
      </trkpt>
      <trkpt lat="45.2539966441690921783447265625" lon="-71.147420704364776611328125">
        <ele>653.20001220703125</ele>
        <time>2026-08-22T03:11:28.000Z</time>
        <extensions>
          <ns3:TrackPointExtension>
            <ns3:hr>124</ns3:hr>
            <ns3:cad>68</ns3:cad>
          </ns3:TrackPointExtension>
        </extensions>
      </trkpt>
      <trkpt lat="45.2540120668709278106689453125" lon="-71.147423051297664642333984375">
        <ele>653</ele>
        <time>2026-08-22T03:11:29.000Z</time>
        <extensions>
          <ns3:TrackPointExtension>
            <ns3:hr>125</ns3:hr>
            <ns3:cad>71</ns3:cad>
          </ns3:TrackPointExtension>
        </extensions>
      </trkpt>
      <trkpt lat="45.254033692181110382080078125" lon="-71.14742447622120380401611328125">
        <ele>652.5999755859375</ele>
        <time>2026-08-22T03:11:30.000Z</time>
        <extensions>
          <ns3:TrackPointExtension>
            <ns3:hr>125</ns3:hr>
            <ns3:cad>71</ns3:cad>
          </ns3:TrackPointExtension>
        </extensions>
      </trkpt>
      <trkpt lat="45.2540512941777706146240234375" lon="-71.1474275775253772735595703125">
        <ele>652.5999755859375</ele>
        <time>2026-08-22T03:11:31.000Z</time>
        <extensions>
          <ns3:TrackPointExtension>
            <ns3:hr>126</ns3:hr>
            <ns3:cad>71</ns3:cad>
          </ns3:TrackPointExtension>
        </extensions>
      </trkpt>
      <trkpt lat="45.25406814180314540863037109375" lon="-71.147425062954425811767578125">
        <ele>652.5999755859375</ele>
        <time>2026-08-22T03:11:32.000Z</time>
        <extensions>
          <ns3:TrackPointExtension>
            <ns3:hr>126</ns3:hr>
            <ns3:cad>75</ns3:cad>
          </ns3:TrackPointExtension>
        </extensions>
      </trkpt>
      <trkpt lat="45.25408658199012279510498046875" lon="-71.14741207100450992584228515625">
        <ele>652.5999755859375</ele>
        <time>2026-08-22T03:11:33.000Z</time>
        <extensions>
          <ns3:TrackPointExtension>
            <ns3:hr>126</ns3:hr>
            <ns3:cad>75</ns3:cad>
          </ns3:TrackPointExtension>
        </extensions>
      </trkpt>
      <trkpt lat="45.2541039325296878814697265625" lon="-71.1473967321217060089111328125">
        <ele>652.5999755859375</ele>
        <time>2026-08-22T03:11:34.000Z</time>
        <extensions>
          <ns3:TrackPointExtension>
            <ns3:hr>127</ns3:hr>
            <ns3:cad>77</ns3:cad>
          </ns3:TrackPointExtension>
        </extensions>
      </trkpt>
      <trkpt lat="45.25412111543118953704833984375" lon="-71.14738558419048786163330078125">
        <ele>652.5999755859375</ele>
        <time>2026-08-22T03:11:35.000Z</time>
        <extensions>
          <ns3:TrackPointExtension>
            <ns3:hr>127</ns3:hr>
            <ns3:cad>77</ns3:cad>
          </ns3:TrackPointExtension>
        </extensions>
      </trkpt>
      <trkpt lat="45.25414265692234039306640625" lon="-71.14738248288631439208984375">
        <ele>652.5999755859375</ele>
        <time>2026-08-22T03:11:36.000Z</time>
        <extensions>
          <ns3:TrackPointExtension>
            <ns3:hr>127</ns3:hr>
            <ns3:cad>79</ns3:cad>
          </ns3:TrackPointExtension>
        </extensions>
      </trkpt>
      <trkpt lat="45.254160426557064056396484375" lon="-71.14738089032471179962158203125">
        <ele>652.5999755859375</ele>
        <time>2026-08-22T03:11:37.000Z</time>
        <extensions>
          <ns3:TrackPointExtension>
            <ns3:hr>127</ns3:hr>
            <ns3:cad>79</ns3:cad>
          </ns3:TrackPointExtension>
        </extensions>
      </trkpt>
      <trkpt lat="45.254177190363407135009765625" lon="-71.14738021977245807647705078125">
        <ele>652.4000244140625</ele>
        <time>2026-08-22T03:11:38.000Z</time>
        <extensions>
          <ns3:TrackPointExtension>
            <ns3:hr>126</ns3:hr>
            <ns3:cad>79</ns3:cad>
          </ns3:TrackPointExtension>
        </extensions>
      </trkpt>
      <trkpt lat="45.25419286452233791351318359375" lon="-71.14738005213439464569091796875">
        <ele>652.4000244140625</ele>
        <time>2026-08-22T03:11:39.000Z</time>
        <extensions>
          <ns3:TrackPointExtension>
            <ns3:hr>127</ns3:hr>
            <ns3:cad>77</ns3:cad>
          </ns3:TrackPointExtension>
        </extensions>
      </trkpt>
      <trkpt lat="45.25420443154871463775634765625" lon="-71.14737552590668201446533203125">
        <ele>652.4000244140625</ele>
        <time>2026-08-22T03:11:40.000Z</time>
        <extensions>
          <ns3:TrackPointExtension>
            <ns3:hr>126</ns3:hr>
            <ns3:cad>77</ns3:cad>
          </ns3:TrackPointExtension>
        </extensions>
      </trkpt>
      <trkpt lat="45.2542159147560596466064453125" lon="-71.14737183786928653717041015625">
        <ele>652.4000244140625</ele>
        <time>2026-08-22T03:11:41.000Z</time>
        <extensions>
          <ns3:TrackPointExtension>
            <ns3:hr>126</ns3:hr>
            <ns3:cad>76</ns3:cad>
          </ns3:TrackPointExtension>
        </extensions>
      </trkpt>
      <trkpt lat="45.254224799573421478271484375" lon="-71.14737066440284252166748046875">
        <ele>652.4000244140625</ele>
        <time>2026-08-22T03:11:42.000Z</time>
        <extensions>
          <ns3:TrackPointExtension>
            <ns3:hr>127</ns3:hr>
            <ns3:cad>76</ns3:cad>
          </ns3:TrackPointExtension>
        </extensions>
      </trkpt>
      <trkpt lat="45.25423745624721050262451171875" lon="-71.14737820811569690704345703125">
        <ele>652.4000244140625</ele>
        <time>2026-08-22T03:11:43.000Z</time>
        <extensions>
          <ns3:TrackPointExtension>
            <ns3:hr>127</ns3:hr>
            <ns3:cad>76</ns3:cad>
          </ns3:TrackPointExtension>
        </extensions>
      </trkpt>
      <trkpt lat="45.2542413957417011260986328125" lon="-71.1473772861063480377197265625">
        <ele>652.5999755859375</ele>
        <time>2026-08-22T03:11:44.000Z</time>
        <extensions>
          <ns3:TrackPointExtension>
            <ns3:hr>127</ns3:hr>
            <ns3:cad>76</ns3:cad>
          </ns3:TrackPointExtension>
        </extensions>
      </trkpt>
      <trkpt lat="45.2542427368462085723876953125" lon="-71.14737519063055515289306640625">
        <ele>652.5999755859375</ele>
        <time>2026-08-22T03:11:45.000Z</time>
        <extensions>
          <ns3:TrackPointExtension>
            <ns3:hr>127</ns3:hr>
            <ns3:cad>76</ns3:cad>
          </ns3:TrackPointExtension>
        </extensions>
      </trkpt>
      <trkpt lat="45.25425187312066555023193359375" lon="-71.14737980067729949951171875">
        <ele>652.79998779296875</ele>
        <time>2026-08-22T03:11:46.000Z</time>
        <extensions>
          <ns3:TrackPointExtension>
            <ns3:hr>127</ns3:hr>
            <ns3:cad>0</ns3:cad>
          </ns3:TrackPointExtension>
        </extensions>
      </trkpt>
      <trkpt lat="45.25427131913602352142333984375" lon="-71.147385500371456146240234375">
        <ele>652.79998779296875</ele>
        <time>2026-08-22T03:11:47.000Z</time>
        <extensions>
          <ns3:TrackPointExtension>
            <ns3:hr>127</ns3:hr>
            <ns3:cad>0</ns3:cad>
          </ns3:TrackPointExtension>
        </extensions>
      </trkpt>
      <trkpt lat="45.254281125962734222412109375" lon="-71.1473871767520904541015625">
        <ele>653</ele>
        <time>2026-08-22T03:11:48.000Z</time>
        <extensions>
          <ns3:TrackPointExtension>
            <ns3:hr>127</ns3:hr>
            <ns3:cad>0</ns3:cad>
          </ns3:TrackPointExtension>
        </extensions>
      </trkpt>
      <trkpt lat="45.2542910166084766387939453125" lon="-71.1473927088081836700439453125">
        <ele>653</ele>
        <time>2026-08-22T03:11:49.000Z</time>
        <extensions>
          <ns3:TrackPointExtension>
            <ns3:hr>126</ns3:hr>
            <ns3:cad>0</ns3:cad>
          </ns3:TrackPointExtension>
        </extensions>
      </trkpt>
      <trkpt lat="45.254301913082599639892578125" lon="-71.1473937146365642547607421875">
        <ele>653</ele>
        <time>2026-08-22T03:11:50.000Z</time>
        <extensions>
          <ns3:TrackPointExtension>
            <ns3:hr>126</ns3:hr>
            <ns3:cad>0</ns3:cad>
          </ns3:TrackPointExtension>
        </extensions>
      </trkpt>
      <trkpt lat="45.25431088171899318695068359375" lon="-71.14739916287362575531005859375">
        <ele>653.20001220703125</ele>
        <time>2026-08-22T03:11:51.000Z</time>
        <extensions>
          <ns3:TrackPointExtension>
            <ns3:hr>126</ns3:hr>
            <ns3:cad>0</ns3:cad>
          </ns3:TrackPointExtension>
        </extensions>
      </trkpt>
      <trkpt lat="45.25431876070797443389892578125" lon="-71.1474027670919895172119140625">
        <ele>653.20001220703125</ele>
        <time>2026-08-22T03:11:52.000Z</time>
        <extensions>
          <ns3:TrackPointExtension>
            <ns3:hr>125</ns3:hr>
            <ns3:cad>0</ns3:cad>
          </ns3:TrackPointExtension>
        </extensions>
      </trkpt>
      <trkpt lat="45.25433032773435115814208984375" lon="-71.14741257391870021820068359375">
        <ele>653.4000244140625</ele>
        <time>2026-08-22T03:11:53.000Z</time>
        <extensions>
          <ns3:TrackPointExtension>
            <ns3:hr>125</ns3:hr>
            <ns3:cad>0</ns3:cad>
          </ns3:TrackPointExtension>
        </extensions>
      </trkpt>
      <trkpt lat="45.2543418109416961669921875" lon="-71.147421710193157196044921875">
        <ele>653.5999755859375</ele>
        <time>2026-08-22T03:11:54.000Z</time>
        <extensions>
          <ns3:TrackPointExtension>
            <ns3:hr>125</ns3:hr>
            <ns3:cad>0</ns3:cad>
          </ns3:TrackPointExtension>
        </extensions>
      </trkpt>
      <trkpt lat="45.2543503604829311370849609375" lon="-71.14742715843021869659423828125">
        <ele>653.79998779296875</ele>
        <time>2026-08-22T03:11:55.000Z</time>
        <extensions>
          <ns3:TrackPointExtension>
            <ns3:hr>125</ns3:hr>
            <ns3:cad>0</ns3:cad>
          </ns3:TrackPointExtension>
        </extensions>
      </trkpt>
      <trkpt lat="45.2543644420802593231201171875" lon="-71.14743973128497600555419921875">
        <ele>653.79998779296875</ele>
        <time>2026-08-22T03:11:56.000Z</time>
        <extensions>
          <ns3:TrackPointExtension>
            <ns3:hr>126</ns3:hr>
            <ns3:cad>0</ns3:cad>
          </ns3:TrackPointExtension>
        </extensions>
      </trkpt>
      <trkpt lat="45.25436804629862308502197265625" lon="-71.14744291640818119049072265625">
        <ele>654</ele>
        <time>2026-08-22T03:11:57.000Z</time>
        <extensions>
          <ns3:TrackPointExtension>
            <ns3:hr>126</ns3:hr>
            <ns3:cad>0</ns3:cad>
          </ns3:TrackPointExtension>
        </extensions>
      </trkpt>
      <trkpt lat="45.2543781884014606475830078125" lon="-71.14745046012103557586669921875">
        <ele>654.20001220703125</ele>
        <time>2026-08-22T03:11:58.000Z</time>
        <extensions>
          <ns3:TrackPointExtension>
            <ns3:hr>126</ns3:hr>
            <ns3:cad>0</ns3:cad>
          </ns3:TrackPointExtension>
        </extensions>
      </trkpt>
      <trkpt lat="45.25439076125621795654296875" lon="-71.14746001549065113067626953125">
        <ele>654.4000244140625</ele>
        <time>2026-08-22T03:11:59.000Z</time>
        <extensions>
          <ns3:TrackPointExtension>
            <ns3:hr>127</ns3:hr>
            <ns3:cad>0</ns3:cad>
          </ns3:TrackPointExtension>
        </extensions>
      </trkpt>
      <trkpt lat="45.254399143159389495849609375" lon="-71.1474664695560932159423828125">
        <ele>654.5999755859375</ele>
        <time>2026-08-22T03:12:00.000Z</time>
        <extensions>
          <ns3:TrackPointExtension>
            <ns3:hr>128</ns3:hr>
            <ns3:cad>0</ns3:cad>
          </ns3:TrackPointExtension>
        </extensions>
      </trkpt>
      <trkpt lat="45.25441096164286136627197265625" lon="-71.14747292362153530120849609375">
        <ele>654.5999755859375</ele>
        <time>2026-08-22T03:12:01.000Z</time>
        <extensions>
          <ns3:TrackPointExtension>
            <ns3:hr>128</ns3:hr>
            <ns3:cad>0</ns3:cad>
          </ns3:TrackPointExtension>
        </extensions>
      </trkpt>
      <trkpt lat="45.25442018173635005950927734375" lon="-71.14747728221118450164794921875">
        <ele>654.79998779296875</ele>
        <time>2026-08-22T03:12:02.000Z</time>
        <extensions>
          <ns3:TrackPointExtension>
            <ns3:hr>129</ns3:hr>
            <ns3:cad>0</ns3:cad>
          </ns3:TrackPointExtension>
        </extensions>
      </trkpt>
      <trkpt lat="45.25443728081881999969482421875" lon="-71.147487424314022064208984375">
        <ele>655</ele>
        <time>2026-08-22T03:12:03.000Z</time>
        <extensions>
          <ns3:TrackPointExtension>
            <ns3:hr>129</ns3:hr>
            <ns3:cad>0</ns3:cad>
          </ns3:TrackPointExtension>
        </extensions>
      </trkpt>
      <trkpt lat="45.25445320643484592437744140625" lon="-71.14749438129365444183349609375">
        <ele>655.20001220703125</ele>
        <time>2026-08-22T03:12:04.000Z</time>
        <extensions>
          <ns3:TrackPointExtension>
            <ns3:hr>129</ns3:hr>
            <ns3:cad>0</ns3:cad>
          </ns3:TrackPointExtension>
        </extensions>
      </trkpt>
      <trkpt lat="45.2544653601944446563720703125" lon="-71.14749756641685962677001953125">
        <ele>655.4000244140625</ele>
        <time>2026-08-22T03:12:05.000Z</time>
        <extensions>
          <ns3:TrackPointExtension>
            <ns3:hr>130</ns3:hr>
            <ns3:cad>0</ns3:cad>
          </ns3:TrackPointExtension>
        </extensions>
      </trkpt>
      <trkpt lat="45.25447365827858448028564453125" lon="-71.14749287255108356475830078125">
        <ele>655.4000244140625</ele>
        <time>2026-08-22T03:12:06.000Z</time>
        <extensions>
          <ns3:TrackPointExtension>
            <ns3:hr>130</ns3:hr>
            <ns3:cad>0</ns3:cad>
          </ns3:TrackPointExtension>
        </extensions>
      </trkpt>
      <trkpt lat="45.2544824592769145965576171875" lon="-71.14747342653572559356689453125">
        <ele>655.4000244140625</ele>
        <time>2026-08-22T03:12:07.000Z</time>
        <extensions>
          <ns3:TrackPointExtension>
            <ns3:hr>130</ns3:hr>
            <ns3:cad>0</ns3:cad>
          </ns3:TrackPointExtension>
        </extensions>
      </trkpt>
      <trkpt lat="45.25448757223784923553466796875" lon="-71.14747703075408935546875">
        <ele>655.4000244140625</ele>
        <time>2026-08-22T03:12:08.000Z</time>
        <extensions>
          <ns3:TrackPointExtension>
            <ns3:hr>130</ns3:hr>
            <ns3:cad>0</ns3:cad>
          </ns3:TrackPointExtension>
        </extensions>
      </trkpt>
      <trkpt lat="45.2544995583593845367431640625" lon="-71.1474735103547573089599609375">
        <ele>655.4000244140625</ele>
        <time>2026-08-22T03:12:09.000Z</time>
        <extensions>
          <ns3:TrackPointExtension>
            <ns3:hr>131</ns3:hr>
            <ns3:cad>0</ns3:cad>
          </ns3:TrackPointExtension>
        </extensions>
      </trkpt>
      <trkpt lat="45.25451146066188812255859375" lon="-71.14746152423322200775146484375">
        <ele>655.4000244140625</ele>
        <time>2026-08-22T03:12:10.000Z</time>
        <extensions>
          <ns3:TrackPointExtension>
            <ns3:hr>132</ns3:hr>
            <ns3:cad>0</ns3:cad>
          </ns3:TrackPointExtension>
        </extensions>
      </trkpt>
      <trkpt lat="45.254522860050201416015625" lon="-71.1474510468542575836181640625">
        <ele>655.20001220703125</ele>
        <time>2026-08-22T03:12:11.000Z</time>
        <extensions>
          <ns3:TrackPointExtension>
            <ns3:hr>132</ns3:hr>
            <ns3:cad>0</ns3:cad>
          </ns3:TrackPointExtension>
        </extensions>
      </trkpt>
      <trkpt lat="45.25453065522015094757080078125" lon="-71.147445179522037506103515625">
        <ele>655.20001220703125</ele>
        <time>2026-08-22T03:12:12.000Z</time>
        <extensions>
          <ns3:TrackPointExtension>
            <ns3:hr>133</ns3:hr>
            <ns3:cad>0</ns3:cad>
          </ns3:TrackPointExtension>
        </extensions>
      </trkpt>
      <trkpt lat="45.25453853420913219451904296875" lon="-71.14743956364691257476806640625">
        <ele>655.20001220703125</ele>
        <time>2026-08-22T03:12:13.000Z</time>
        <extensions>
          <ns3:TrackPointExtension>
            <ns3:hr>134</ns3:hr>
            <ns3:cad>55</ns3:cad>
          </ns3:TrackPointExtension>
        </extensions>
      </trkpt>
      <trkpt lat="45.2545483410358428955078125" lon="-71.14743872545659542083740234375">
        <ele>655.20001220703125</ele>
        <time>2026-08-22T03:12:14.000Z</time>
        <extensions>
          <ns3:TrackPointExtension>
            <ns3:hr>135</ns3:hr>
            <ns3:cad>55</ns3:cad>
          </ns3:TrackPointExtension>
        </extensions>
      </trkpt>
      <trkpt lat="45.254556722939014434814453125" lon="-71.1474329419434070587158203125">
        <ele>655</ele>
        <time>2026-08-22T03:12:15.000Z</time>
        <extensions>
          <ns3:TrackPointExtension>
            <ns3:hr>135</ns3:hr>
            <ns3:cad>55</ns3:cad>
          </ns3:TrackPointExtension>
        </extensions>
      </trkpt>
      <trkpt lat="45.2545669488608837127685546875" lon="-71.1474202014505863189697265625">
        <ele>655</ele>
        <time>2026-08-22T03:12:16.000Z</time>
        <extensions>
          <ns3:TrackPointExtension>
            <ns3:hr>136</ns3:hr>
            <ns3:cad>55</ns3:cad>
          </ns3:TrackPointExtension>
        </extensions>
      </trkpt>
      <trkpt lat="45.25457591749727725982666015625" lon="-71.14740796387195587158203125">
        <ele>654.79998779296875</ele>
        <time>2026-08-22T03:12:17.000Z</time>
        <extensions>
          <ns3:TrackPointExtension>
            <ns3:hr>136</ns3:hr>
            <ns3:cad>53</ns3:cad>
          </ns3:TrackPointExtension>
        </extensions>
      </trkpt>
      <trkpt lat="45.25458480231463909149169921875" lon="-71.1473957262933254241943359375">
        <ele>654.79998779296875</ele>
        <time>2026-08-22T03:12:18.000Z</time>
        <extensions>
          <ns3:TrackPointExtension>
            <ns3:hr>136</ns3:hr>
            <ns3:cad>53</ns3:cad>
          </ns3:TrackPointExtension>
        </extensions>
      </trkpt>
      <trkpt lat="45.254592932760715484619140625" lon="-71.14738072268664836883544921875">
        <ele>654.5999755859375</ele>
        <time>2026-08-22T03:12:19.000Z</time>
        <extensions>
          <ns3:TrackPointExtension>
            <ns3:hr>136</ns3:hr>
            <ns3:cad>53</ns3:cad>
          </ns3:TrackPointExtension>
        </extensions>
      </trkpt>
      <trkpt lat="45.254599638283252716064453125" lon="-71.14737133495509624481201171875">
        <ele>654.4000244140625</ele>
        <time>2026-08-22T03:12:20.000Z</time>
        <extensions>
          <ns3:TrackPointExtension>
            <ns3:hr>136</ns3:hr>
            <ns3:cad>55</ns3:cad>
          </ns3:TrackPointExtension>
        </extensions>
      </trkpt>
      <trkpt lat="45.254608355462551116943359375" lon="-71.14736831746995449066162109375">
        <ele>654.4000244140625</ele>
        <time>2026-08-22T03:12:21.000Z</time>
        <extensions>
          <ns3:TrackPointExtension>
            <ns3:hr>136</ns3:hr>
            <ns3:cad>55</ns3:cad>
          </ns3:TrackPointExtension>
        </extensions>
      </trkpt>
      <trkpt lat="45.25461983866989612579345703125" lon="-71.147371418774127960205078125">
        <ele>654.20001220703125</ele>
        <time>2026-08-22T03:12:22.000Z</time>
        <extensions>
          <ns3:TrackPointExtension>
            <ns3:hr>137</ns3:hr>
            <ns3:cad>55</ns3:cad>
          </ns3:TrackPointExtension>
        </extensions>
      </trkpt>
      <trkpt lat="45.2546313218772411346435546875" lon="-71.147375442087650299072265625">
        <ele>654.20001220703125</ele>
        <time>2026-08-22T03:12:23.000Z</time>
        <extensions>
          <ns3:TrackPointExtension>
            <ns3:hr>137</ns3:hr>
            <ns3:cad>55</ns3:cad>
          </ns3:TrackPointExtension>
        </extensions>
      </trkpt>
      <trkpt lat="45.25464314036071300506591796875" lon="-71.14738055504858493804931640625">
        <ele>654.20001220703125</ele>
        <time>2026-08-22T03:12:24.000Z</time>
        <extensions>
          <ns3:TrackPointExtension>
            <ns3:hr>137</ns3:hr>
            <ns3:cad>55</ns3:cad>
          </ns3:TrackPointExtension>
        </extensions>
      </trkpt>
      <trkpt lat="45.25465604849159717559814453125" lon="-71.147380135953426361083984375">
        <ele>654.4000244140625</ele>
        <time>2026-08-22T03:12:25.000Z</time>
        <extensions>
          <ns3:TrackPointExtension>
            <ns3:hr>138</ns3:hr>
            <ns3:cad>0</ns3:cad>
          </ns3:TrackPointExtension>
        </extensions>
      </trkpt>
      <trkpt lat="45.25467113591730594635009765625" lon="-71.1473749391734600067138671875">
        <ele>654.4000244140625</ele>
        <time>2026-08-22T03:12:26.000Z</time>
        <extensions>
          <ns3:TrackPointExtension>
            <ns3:hr>137</ns3:hr>
            <ns3:cad>0</ns3:cad>
          </ns3:TrackPointExtension>
        </extensions>
      </trkpt>
      <trkpt lat="45.25468337349593639373779296875" lon="-71.1473657190799713134765625">
        <ele>654.4000244140625</ele>
        <time>2026-08-22T03:12:27.000Z</time>
        <extensions>
          <ns3:TrackPointExtension>
            <ns3:hr>137</ns3:hr>
            <ns3:cad>0</ns3:cad>
          </ns3:TrackPointExtension>
        </extensions>
      </trkpt>
      <trkpt lat="45.2546953596174716949462890625" lon="-71.14735658280551433563232421875">
        <ele>654.4000244140625</ele>
        <time>2026-08-22T03:12:28.000Z</time>
        <extensions>
          <ns3:TrackPointExtension>
            <ns3:hr>136</ns3:hr>
            <ns3:cad>0</ns3:cad>
          </ns3:TrackPointExtension>
        </extensions>
      </trkpt>
      <trkpt lat="45.25472075678408145904541015625" lon="-71.14734132774174213409423828125">
        <ele>654.20001220703125</ele>
        <time>2026-08-22T03:12:29.000Z</time>
        <extensions>
          <ns3:TrackPointExtension>
            <ns3:hr>136</ns3:hr>
            <ns3:cad>0</ns3:cad>
          </ns3:TrackPointExtension>
        </extensions>
      </trkpt>
      <trkpt lat="45.25473500601947307586669921875" lon="-71.14733152091503143310546875">
        <ele>654.20001220703125</ele>
        <time>2026-08-22T03:12:30.000Z</time>
        <extensions>
          <ns3:TrackPointExtension>
            <ns3:hr>136</ns3:hr>
            <ns3:cad>0</ns3:cad>
          </ns3:TrackPointExtension>
        </extensions>
      </trkpt>
      <trkpt lat="45.25475294329226016998291015625" lon="-71.1473166011273860931396484375">
        <ele>654</ele>
        <time>2026-08-22T03:12:31.000Z</time>
        <extensions>
          <ns3:TrackPointExtension>
            <ns3:hr>137</ns3:hr>
            <ns3:cad>0</ns3:cad>
          </ns3:TrackPointExtension>
        </extensions>
      </trkpt>
      <trkpt lat="45.25476601906120777130126953125" lon="-71.147308386862277984619140625">
        <ele>654</ele>
        <time>2026-08-22T03:12:32.000Z</time>
        <extensions>
          <ns3:TrackPointExtension>
            <ns3:hr>137</ns3:hr>
            <ns3:cad>64</ns3:cad>
          </ns3:TrackPointExtension>
        </extensions>
      </trkpt>
      <trkpt lat="45.2547744847834110260009765625" lon="-71.14730377681553363800048828125">
        <ele>653.79998779296875</ele>
        <time>2026-08-22T03:12:33.000Z</time>
        <extensions>
          <ns3:TrackPointExtension>
            <ns3:hr>137</ns3:hr>
            <ns3:cad>64</ns3:cad>
          </ns3:TrackPointExtension>
        </extensions>
      </trkpt>
      <trkpt lat="45.254780352115631103515625" lon="-71.1472961492836475372314453125">
        <ele>653.5999755859375</ele>
        <time>2026-08-22T03:12:34.000Z</time>
        <extensions>
          <ns3:TrackPointExtension>
            <ns3:hr>137</ns3:hr>
            <ns3:cad>0</ns3:cad>
          </ns3:TrackPointExtension>
        </extensions>
      </trkpt>
      <trkpt lat="45.25478965602815151214599609375" lon="-71.14727527834475040435791015625">
        <ele>653.5999755859375</ele>
        <time>2026-08-22T03:12:35.000Z</time>
        <extensions>
          <ns3:TrackPointExtension>
            <ns3:hr>136</ns3:hr>
            <ns3:cad>0</ns3:cad>
          </ns3:TrackPointExtension>
        </extensions>
      </trkpt>
      <trkpt lat="45.25479904375970363616943359375" lon="-71.14725734107196331024169921875">
        <ele>653.5999755859375</ele>
        <time>2026-08-22T03:12:36.000Z</time>
        <extensions>
          <ns3:TrackPointExtension>
            <ns3:hr>136</ns3:hr>
            <ns3:cad>0</ns3:cad>
          </ns3:TrackPointExtension>
        </extensions>
      </trkpt>
      <trkpt lat="45.254810191690921783447265625" lon="-71.147247366607189178466796875">
        <ele>653.5999755859375</ele>
        <time>2026-08-22T03:12:37.000Z</time>
        <extensions>
          <ns3:TrackPointExtension>
            <ns3:hr>136</ns3:hr>
            <ns3:cad>0</ns3:cad>
          </ns3:TrackPointExtension>
        </extensions>
      </trkpt>
      <trkpt lat="45.25482125580310821533203125" lon="-71.1472351290285587310791015625">
        <ele>653.4000244140625</ele>
        <time>2026-08-22T03:12:38.000Z</time>
        <extensions>
          <ns3:TrackPointExtension>
            <ns3:hr>135</ns3:hr>
            <ns3:cad>0</ns3:cad>
          </ns3:TrackPointExtension>
        </extensions>
      </trkpt>
      <trkpt lat="45.2548361755907535552978515625" lon="-71.14721191115677356719970703125">
        <ele>653.20001220703125</ele>
        <time>2026-08-22T03:12:39.000Z</time>
        <extensions>
          <ns3:TrackPointExtension>
            <ns3:hr>135</ns3:hr>
            <ns3:cad>61</ns3:cad>
          </ns3:TrackPointExtension>
        </extensions>
      </trkpt>
      <trkpt lat="45.25484397076070308685302734375" lon="-71.14719699136912822723388671875">
        <ele>653</ele>
        <time>2026-08-22T03:12:40.000Z</time>
        <extensions>
          <ns3:TrackPointExtension>
            <ns3:hr>134</ns3:hr>
            <ns3:cad>61</ns3:cad>
          </ns3:TrackPointExtension>
        </extensions>
      </trkpt>
      <trkpt lat="45.254854448139667510986328125" lon="-71.1471752822399139404296875">
        <ele>652.79998779296875</ele>
        <time>2026-08-22T03:12:41.000Z</time>
        <extensions>
          <ns3:TrackPointExtension>
            <ns3:hr>135</ns3:hr>
            <ns3:cad>57</ns3:cad>
          </ns3:TrackPointExtension>
        </extensions>
      </trkpt>
      <trkpt lat="45.2548633329570293426513671875" lon="-71.14715055562555789947509765625">
        <ele>652.5999755859375</ele>
        <time>2026-08-22T03:12:42.000Z</time>
        <extensions>
          <ns3:TrackPointExtension>
            <ns3:hr>135</ns3:hr>
            <ns3:cad>0</ns3:cad>
          </ns3:TrackPointExtension>
        </extensions>
      </trkpt>
      <trkpt lat="45.25487146340310573577880859375" lon="-71.14713077433407306671142578125">
        <ele>652.4000244140625</ele>
        <time>2026-08-22T03:12:43.000Z</time>
        <extensions>
          <ns3:TrackPointExtension>
            <ns3:hr>135</ns3:hr>
            <ns3:cad>0</ns3:cad>
          </ns3:TrackPointExtension>
        </extensions>
      </trkpt>
      <trkpt lat="45.2548784203827381134033203125" lon="-71.14711384288966655731201171875">
        <ele>652.20001220703125</ele>
        <time>2026-08-22T03:12:44.000Z</time>
        <extensions>
          <ns3:TrackPointExtension>
            <ns3:hr>135</ns3:hr>
            <ns3:cad>0</ns3:cad>
          </ns3:TrackPointExtension>
        </extensions>
      </trkpt>
      <trkpt lat="45.2548844553530216217041015625" lon="-71.14710613153874874114990234375">
        <ele>652.20001220703125</ele>
        <time>2026-08-22T03:12:45.000Z</time>
        <extensions>
          <ns3:TrackPointExtension>
            <ns3:hr>135</ns3:hr>
            <ns3:cad>0</ns3:cad>
          </ns3:TrackPointExtension>
        </extensions>
      </trkpt>
      <trkpt lat="45.25488940067589282989501953125" lon="-71.14710395224392414093017578125">
        <ele>652</ele>
        <time>2026-08-22T03:12:46.000Z</time>
        <extensions>
          <ns3:TrackPointExtension>
            <ns3:hr>135</ns3:hr>
            <ns3:cad>0</ns3:cad>
          </ns3:TrackPointExtension>
        </extensions>
      </trkpt>
      <trkpt lat="45.2548961900174617767333984375" lon="-71.1470943130552768707275390625">
        <ele>651.79998779296875</ele>
        <time>2026-08-22T03:12:47.000Z</time>
        <extensions>
          <ns3:TrackPointExtension>
            <ns3:hr>134</ns3:hr>
            <ns3:cad>0</ns3:cad>
          </ns3:TrackPointExtension>
        </extensions>
      </trkpt>
      <trkpt lat="45.25490364991128444671630859375" lon="-71.14708316512405872344970703125">
        <ele>651.5999755859375</ele>
        <time>2026-08-22T03:12:48.000Z</time>
        <extensions>
          <ns3:TrackPointExtension>
            <ns3:hr>133</ns3:hr>
            <ns3:cad>0</ns3:cad>
          </ns3:TrackPointExtension>
        </extensions>
      </trkpt>
      <trkpt lat="45.25491647422313690185546875" lon="-71.14707109518349170684814453125">
        <ele>651.5999755859375</ele>
        <time>2026-08-22T03:12:49.000Z</time>
        <extensions>
          <ns3:TrackPointExtension>
            <ns3:hr>132</ns3:hr>
            <ns3:cad>0</ns3:cad>
          </ns3:TrackPointExtension>
        </extensions>
      </trkpt>
      <trkpt lat="45.2549307234585285186767578125" lon="-71.147066652774810791015625">
        <ele>651.4000244140625</ele>
        <time>2026-08-22T03:12:50.000Z</time>
        <extensions>
          <ns3:TrackPointExtension>
            <ns3:hr>131</ns3:hr>
            <ns3:cad>0</ns3:cad>
          </ns3:TrackPointExtension>
        </extensions>
      </trkpt>
      <trkpt lat="45.25494069792330265045166015625" lon="-71.14705433137714862823486328125">
        <ele>651.20001220703125</ele>
        <time>2026-08-22T03:12:51.000Z</time>
        <extensions>
          <ns3:TrackPointExtension>
            <ns3:hr>130</ns3:hr>
            <ns3:cad>0</ns3:cad>
          </ns3:TrackPointExtension>
        </extensions>
      </trkpt>
      <trkpt lat="45.2549506723880767822265625" lon="-71.1470423452556133270263671875">
        <ele>651</ele>
        <time>2026-08-22T03:12:52.000Z</time>
        <extensions>
          <ns3:TrackPointExtension>
            <ns3:hr>129</ns3:hr>
            <ns3:cad>0</ns3:cad>
          </ns3:TrackPointExtension>
        </extensions>
      </trkpt>
      <trkpt lat="45.254957377910614013671875" lon="-71.1470356397330760955810546875">
        <ele>650.79998779296875</ele>
        <time>2026-08-22T03:12:53.000Z</time>
        <extensions>
          <ns3:TrackPointExtension>
            <ns3:hr>128</ns3:hr>
            <ns3:cad>0</ns3:cad>
          </ns3:TrackPointExtension>
        </extensions>
      </trkpt>
      <trkpt lat="45.25496752001345157623291015625" lon="-71.14702264778316020965576171875">
        <ele>650.5999755859375</ele>
        <time>2026-08-22T03:12:54.000Z</time>
        <extensions>
          <ns3:TrackPointExtension>
            <ns3:hr>128</ns3:hr>
            <ns3:cad>0</ns3:cad>
          </ns3:TrackPointExtension>
        </extensions>
      </trkpt>
      <trkpt lat="45.2549813501536846160888671875" lon="-71.14700471051037311553955078125">
        <ele>650.4000244140625</ele>
        <time>2026-08-22T03:12:55.000Z</time>
        <extensions>
          <ns3:TrackPointExtension>
            <ns3:hr>127</ns3:hr>
            <ns3:cad>0</ns3:cad>
          </ns3:TrackPointExtension>
        </extensions>
      </trkpt>
      <trkpt lat="45.25498998351395130157470703125" lon="-71.1469860188663005828857421875">
        <ele>650.20001220703125</ele>
        <time>2026-08-22T03:12:56.000Z</time>
        <extensions>
          <ns3:TrackPointExtension>
            <ns3:hr>127</ns3:hr>
            <ns3:cad>0</ns3:cad>
          </ns3:TrackPointExtension>
        </extensions>
      </trkpt>
      <trkpt lat="45.2549991197884082794189453125" lon="-71.1469716019928455352783203125">
        <ele>650</ele>
        <time>2026-08-22T03:12:57.000Z</time>
        <extensions>
          <ns3:TrackPointExtension>
            <ns3:hr>127</ns3:hr>
            <ns3:cad>0</ns3:cad>
          </ns3:TrackPointExtension>
        </extensions>
      </trkpt>
      <trkpt lat="45.2550123631954193115234375" lon="-71.14695911295711994171142578125">
        <ele>649.79998779296875</ele>
        <time>2026-08-22T03:12:58.000Z</time>
        <extensions>
          <ns3:TrackPointExtension>
            <ns3:hr>126</ns3:hr>
            <ns3:cad>71</ns3:cad>
          </ns3:TrackPointExtension>
        </extensions>
      </trkpt>
      <trkpt lat="45.2550272829830646514892578125" lon="-71.14694486372172832489013671875">
        <ele>649.5999755859375</ele>
        <time>2026-08-22T03:12:59.000Z</time>
        <extensions>
          <ns3:TrackPointExtension>
            <ns3:hr>126</ns3:hr>
            <ns3:cad>75</ns3:cad>
          </ns3:TrackPointExtension>
        </extensions>
      </trkpt>
      <trkpt lat="45.2550423704087734222412109375" lon="-71.14693681709468364715576171875">
        <ele>649.4000244140625</ele>
        <time>2026-08-22T03:13:00.000Z</time>
        <extensions>
          <ns3:TrackPointExtension>
            <ns3:hr>126</ns3:hr>
            <ns3:cad>75</ns3:cad>
          </ns3:TrackPointExtension>
        </extensions>
      </trkpt>
      <trkpt lat="45.25505787692964076995849609375" lon="-71.14693547599017620086669921875">
        <ele>649.4000244140625</ele>
        <time>2026-08-22T03:13:01.000Z</time>
        <extensions>
          <ns3:TrackPointExtension>
            <ns3:hr>126</ns3:hr>
            <ns3:cad>75</ns3:cad>
          </ns3:TrackPointExtension>
        </extensions>
      </trkpt>
      <trkpt lat="45.25507179088890552520751953125" lon="-71.14693044684827327728271484375">
        <ele>649.20001220703125</ele>
        <time>2026-08-22T03:13:02.000Z</time>
        <extensions>
          <ns3:TrackPointExtension>
            <ns3:hr>126</ns3:hr>
            <ns3:cad>75</ns3:cad>
          </ns3:TrackPointExtension>
        </extensions>
      </trkpt>
      <trkpt lat="45.2550842799246311187744140625" lon="-71.14692156203091144561767578125">
        <ele>649</ele>
        <time>2026-08-22T03:13:03.000Z</time>
        <extensions>
          <ns3:TrackPointExtension>
            <ns3:hr>125</ns3:hr>
            <ns3:cad>75</ns3:cad>
          </ns3:TrackPointExtension>
        </extensions>
      </trkpt>
      <trkpt lat="45.25509861297905445098876953125" lon="-71.1469105817377567291259765625">
        <ele>648.79998779296875</ele>
        <time>2026-08-22T03:13:04.000Z</time>
        <extensions>
          <ns3:TrackPointExtension>
            <ns3:hr>125</ns3:hr>
            <ns3:cad>75</ns3:cad>
          </ns3:TrackPointExtension>
        </extensions>
      </trkpt>
      <trkpt lat="45.2551111020147800445556640625" lon="-71.14690303802490234375">
        <ele>648.5999755859375</ele>
        <time>2026-08-22T03:13:05.000Z</time>
        <extensions>
          <ns3:TrackPointExtension>
            <ns3:hr>124</ns3:hr>
            <ns3:cad>75</ns3:cad>
          </ns3:TrackPointExtension>
        </extensions>
      </trkpt>
      <trkpt lat="45.2551298774778842926025390625" lon="-71.1468911357223987579345703125">
        <ele>648.4000244140625</ele>
        <time>2026-08-22T03:13:06.000Z</time>
        <extensions>
          <ns3:TrackPointExtension>
            <ns3:hr>124</ns3:hr>
            <ns3:cad>66</ns3:cad>
          </ns3:TrackPointExtension>
        </extensions>
      </trkpt>
      <trkpt lat="45.25514169596135616302490234375" lon="-71.1468676663935184478759765625">
        <ele>648.4000244140625</ele>
        <time>2026-08-22T03:13:07.000Z</time>
        <extensions>
          <ns3:TrackPointExtension>
            <ns3:hr>124</ns3:hr>
            <ns3:cad>66</ns3:cad>
          </ns3:TrackPointExtension>
        </extensions>
      </trkpt>
      <trkpt lat="45.25515326298773288726806640625" lon="-71.14684629254043102264404296875">
        <ele>648.20001220703125</ele>
        <time>2026-08-22T03:13:08.000Z</time>
        <extensions>
          <ns3:TrackPointExtension>
            <ns3:hr>124</ns3:hr>
            <ns3:cad>66</ns3:cad>
          </ns3:TrackPointExtension>
        </extensions>
      </trkpt>
      <trkpt lat="45.25516583584249019622802734375" lon="-71.1468341387808322906494140625">
        <ele>648</ele>
        <time>2026-08-22T03:13:09.000Z</time>
        <extensions>
          <ns3:TrackPointExtension>
            <ns3:hr>124</ns3:hr>
            <ns3:cad>66</ns3:cad>
          </ns3:TrackPointExtension>
        </extensions>
      </trkpt>
      <trkpt lat="45.2551835216581821441650390625" lon="-71.14682164974510669708251953125">
        <ele>647.79998779296875</ele>
        <time>2026-08-22T03:13:10.000Z</time>
        <extensions>
          <ns3:TrackPointExtension>
            <ns3:hr>125</ns3:hr>
            <ns3:cad>66</ns3:cad>
          </ns3:TrackPointExtension>
        </extensions>
      </trkpt>
      <trkpt lat="45.25519601069390773773193359375" lon="-71.1468185484409332275390625">
        <ele>647.5999755859375</ele>
        <time>2026-08-22T03:13:11.000Z</time>
        <extensions>
          <ns3:TrackPointExtension>
            <ns3:hr>124</ns3:hr>
            <ns3:cad>66</ns3:cad>
          </ns3:TrackPointExtension>
        </extensions>
      </trkpt>
      <trkpt lat="45.25520707480609416961669921875" lon="-71.14681879989802837371826171875">
        <ele>647.4000244140625</ele>
        <time>2026-08-22T03:13:12.000Z</time>
        <extensions>
          <ns3:TrackPointExtension>
            <ns3:hr>124</ns3:hr>
            <ns3:cad>66</ns3:cad>
          </ns3:TrackPointExtension>
        </extensions>
      </trkpt>
      <trkpt lat="45.25521512143313884735107421875" lon="-71.1468247510492801666259765625">
        <ele>647.20001220703125</ele>
        <time>2026-08-22T03:13:13.000Z</time>
        <extensions>
          <ns3:TrackPointExtension>
            <ns3:hr>124</ns3:hr>
            <ns3:cad>66</ns3:cad>
          </ns3:TrackPointExtension>
        </extensions>
      </trkpt>
      <trkpt lat="45.2552217431366443634033203125" lon="-71.14683606661856174468994140625">
        <ele>647</ele>
        <time>2026-08-22T03:13:14.000Z</time>
        <extensions>
          <ns3:TrackPointExtension>
            <ns3:hr>124</ns3:hr>
            <ns3:cad>66</ns3:cad>
          </ns3:TrackPointExtension>
        </extensions>
      </trkpt>
      <trkpt lat="45.25523222051560878753662109375" lon="-71.14685182459652423858642578125">
        <ele>646.79998779296875</ele>
        <time>2026-08-22T03:13:15.000Z</time>
        <extensions>
          <ns3:TrackPointExtension>
            <ns3:hr>124</ns3:hr>
            <ns3:cad>65</ns3:cad>
          </ns3:TrackPointExtension>
        </extensions>
      </trkpt>
      <trkpt lat="45.2552432008087635040283203125" lon="-71.14685886539518833160400390625">
        <ele>646.5999755859375</ele>
        <time>2026-08-22T03:13:16.000Z</time>
        <extensions>
          <ns3:TrackPointExtension>
            <ns3:hr>124</ns3:hr>
            <ns3:cad>65</ns3:cad>
          </ns3:TrackPointExtension>
        </extensions>
      </trkpt>
      <trkpt lat="45.25525451637804508209228515625" lon="-71.14686037413775920867919921875">
        <ele>646.5999755859375</ele>
        <time>2026-08-22T03:13:17.000Z</time>
        <extensions>
          <ns3:TrackPointExtension>
            <ns3:hr>124</ns3:hr>
            <ns3:cad>65</ns3:cad>
          </ns3:TrackPointExtension>
        </extensions>
      </trkpt>
      <trkpt lat="45.2552671730518341064453125" lon="-71.14686137996613979339599609375">
        <ele>646.4000244140625</ele>
        <time>2026-08-22T03:13:18.000Z</time>
        <extensions>
          <ns3:TrackPointExtension>
            <ns3:hr>125</ns3:hr>
            <ns3:cad>65</ns3:cad>
          </ns3:TrackPointExtension>
        </extensions>
      </trkpt>
      <trkpt lat="45.255278237164020538330078125" lon="-71.14686121232807636260986328125">
        <ele>646.20001220703125</ele>
        <time>2026-08-22T03:13:19.000Z</time>
        <extensions>
          <ns3:TrackPointExtension>
            <ns3:hr>125</ns3:hr>
            <ns3:cad>65</ns3:cad>
          </ns3:TrackPointExtension>
        </extensions>
      </trkpt>
      <trkpt lat="45.255292989313602447509765625" lon="-71.14686213433742523193359375">
        <ele>646</ele>
        <time>2026-08-22T03:13:20.000Z</time>
        <extensions>
          <ns3:TrackPointExtension>
            <ns3:hr>125</ns3:hr>
            <ns3:cad>0</ns3:cad>
          </ns3:TrackPointExtension>
        </extensions>
      </trkpt>
      <trkpt lat="45.25530883111059665679931640625" lon="-71.14686339162290096282958984375">
        <ele>646</ele>
        <time>2026-08-22T03:13:21.000Z</time>
        <extensions>
          <ns3:TrackPointExtension>
            <ns3:hr>125</ns3:hr>
            <ns3:cad>0</ns3:cad>
          </ns3:TrackPointExtension>
        </extensions>
      </trkpt>
      <trkpt lat="45.2553260140120983123779296875" lon="-71.1468579433858394622802734375">
        <ele>645.79998779296875</ele>
        <time>2026-08-22T03:13:22.000Z</time>
        <extensions>
          <ns3:TrackPointExtension>
            <ns3:hr>124</ns3:hr>
            <ns3:cad>0</ns3:cad>
          </ns3:TrackPointExtension>
        </extensions>
      </trkpt>
      <trkpt lat="45.25534772314131259918212890625" lon="-71.1468492262065410614013671875">
        <ele>645.5999755859375</ele>
        <time>2026-08-22T03:13:23.000Z</time>
        <extensions>
          <ns3:TrackPointExtension>
            <ns3:hr>124</ns3:hr>
            <ns3:cad>0</ns3:cad>
          </ns3:TrackPointExtension>
        </extensions>
      </trkpt>
      <trkpt lat="45.25536306202411651611328125" lon="-71.14683070220053195953369140625">
        <ele>645.5999755859375</ele>
        <time>2026-08-22T03:13:24.000Z</time>
        <extensions>
          <ns3:TrackPointExtension>
            <ns3:hr>124</ns3:hr>
            <ns3:cad>0</ns3:cad>
          </ns3:TrackPointExtension>
        </extensions>
      </trkpt>
      <trkpt lat="45.2553752996027469635009765625" lon="-71.14681092090904712677001953125">
        <ele>645.4000244140625</ele>
        <time>2026-08-22T03:13:25.000Z</time>
        <extensions>
          <ns3:TrackPointExtension>
            <ns3:hr>124</ns3:hr>
            <ns3:cad>68</ns3:cad>
          </ns3:TrackPointExtension>
        </extensions>
      </trkpt>
      <trkpt lat="45.2553887106478214263916015625" lon="-71.1467959173023700714111328125">
        <ele>645.4000244140625</ele>
        <time>2026-08-22T03:13:26.000Z</time>
        <extensions>
          <ns3:TrackPointExtension>
            <ns3:hr>123</ns3:hr>
            <ns3:cad>68</ns3:cad>
          </ns3:TrackPointExtension>
        </extensions>
      </trkpt>
      <trkpt lat="45.255402624607086181640625" lon="-71.14679113961756229400634765625">
        <ele>645.20001220703125</ele>
        <time>2026-08-22T03:13:27.000Z</time>
        <extensions>
          <ns3:TrackPointExtension>
            <ns3:hr>123</ns3:hr>
            <ns3:cad>68</ns3:cad>
          </ns3:TrackPointExtension>
        </extensions>
      </trkpt>
      <trkpt lat="45.25541679002344608306884765625" lon="-71.14679968915879726409912109375">
        <ele>645</ele>
        <time>2026-08-22T03:13:28.000Z</time>
        <extensions>
          <ns3:TrackPointExtension>
            <ns3:hr>123</ns3:hr>
            <ns3:cad>68</ns3:cad>
          </ns3:TrackPointExtension>
        </extensions>
      </trkpt>
      <trkpt lat="45.25543405674397945404052734375" lon="-71.1468123458325862884521484375">
        <ele>645</ele>
        <time>2026-08-22T03:13:29.000Z</time>
        <extensions>
          <ns3:TrackPointExtension>
            <ns3:hr>122</ns3:hr>
            <ns3:cad>68</ns3:cad>
          </ns3:TrackPointExtension>
        </extensions>
      </trkpt>
      <trkpt lat="45.255452580749988555908203125" lon="-71.14683086983859539031982421875">
        <ele>644.79998779296875</ele>
        <time>2026-08-22T03:13:30.000Z</time>
        <extensions>
          <ns3:TrackPointExtension>
            <ns3:hr>122</ns3:hr>
            <ns3:cad>66</ns3:cad>
          </ns3:TrackPointExtension>
        </extensions>
      </trkpt>
      <trkpt lat="45.25546708144247531890869140625" lon="-71.14684469997882843017578125">
        <ele>644.79998779296875</ele>
        <time>2026-08-22T03:13:31.000Z</time>
        <extensions>
          <ns3:TrackPointExtension>
            <ns3:hr>121</ns3:hr>
            <ns3:cad>66</ns3:cad>
          </ns3:TrackPointExtension>
        </extensions>
      </trkpt>
      <trkpt lat="45.25548468343913555145263671875" lon="-71.14685115404427051544189453125">
        <ele>644.79998779296875</ele>
        <time>2026-08-22T03:13:32.000Z</time>
        <extensions>
          <ns3:TrackPointExtension>
            <ns3:hr>120</ns3:hr>
            <ns3:cad>66</ns3:cad>
          </ns3:TrackPointExtension>
        </extensions>
      </trkpt>
      <trkpt lat="45.25550027377903461456298828125" lon="-71.146859116852283477783203125">
        <ele>644.79998779296875</ele>
        <time>2026-08-22T03:13:33.000Z</time>
        <extensions>
          <ns3:TrackPointExtension>
            <ns3:hr>120</ns3:hr>
            <ns3:cad>66</ns3:cad>
          </ns3:TrackPointExtension>
        </extensions>
      </trkpt>
      <trkpt lat="45.25551594793796539306640625" lon="-71.14687713794410228729248046875">
        <ele>644.79998779296875</ele>
        <time>2026-08-22T03:13:34.000Z</time>
        <extensions>
          <ns3:TrackPointExtension>
            <ns3:hr>120</ns3:hr>
            <ns3:cad>79</ns3:cad>
          </ns3:TrackPointExtension>
        </extensions>
      </trkpt>
      <trkpt lat="45.25552156381309032440185546875" lon="-71.14690496586263179779052734375">
        <ele>644.5999755859375</ele>
        <time>2026-08-22T03:13:35.000Z</time>
        <extensions>
          <ns3:TrackPointExtension>
            <ns3:hr>120</ns3:hr>
            <ns3:cad>79</ns3:cad>
          </ns3:TrackPointExtension>
        </extensions>
      </trkpt>
      <trkpt lat="45.25552935898303985595703125" lon="-71.146924495697021484375">
        <ele>644.5999755859375</ele>
        <time>2026-08-22T03:13:36.000Z</time>
        <extensions>
          <ns3:TrackPointExtension>
            <ns3:hr>120</ns3:hr>
            <ns3:cad>79</ns3:cad>
          </ns3:TrackPointExtension>
        </extensions>
      </trkpt>
      <trkpt lat="45.255538411438465118408203125" lon="-71.1469491384923458099365234375">
        <ele>644.4000244140625</ele>
        <time>2026-08-22T03:13:37.000Z</time>
        <extensions>
          <ns3:TrackPointExtension>
            <ns3:hr>121</ns3:hr>
            <ns3:cad>79</ns3:cad>
          </ns3:TrackPointExtension>
        </extensions>
      </trkpt>
      <trkpt lat="45.2555449493229389190673828125" lon="-71.1469662375748157501220703125">
        <ele>644.4000244140625</ele>
        <time>2026-08-22T03:13:38.000Z</time>
        <extensions>
          <ns3:TrackPointExtension>
            <ns3:hr>122</ns3:hr>
            <ns3:cad>79</ns3:cad>
          </ns3:TrackPointExtension>
        </extensions>
      </trkpt>
      <trkpt lat="45.25555442087352275848388671875" lon="-71.14698610268533229827880859375">
        <ele>644.20001220703125</ele>
        <time>2026-08-22T03:13:39.000Z</time>
        <extensions>
          <ns3:TrackPointExtension>
            <ns3:hr>122</ns3:hr>
            <ns3:cad>79</ns3:cad>
          </ns3:TrackPointExtension>
        </extensions>
      </trkpt>
      <trkpt lat="45.2555694244801998138427734375" lon="-71.146999262273311614990234375">
        <ele>644</ele>
        <time>2026-08-22T03:13:40.000Z</time>
        <extensions>
          <ns3:TrackPointExtension>
            <ns3:hr>123</ns3:hr>
            <ns3:cad>79</ns3:cad>
          </ns3:TrackPointExtension>
        </extensions>
      </trkpt>
      <trkpt lat="45.255581326782703399658203125" lon="-71.14701024256646633148193359375">
        <ele>644</ele>
        <time>2026-08-22T03:13:41.000Z</time>
        <extensions>
          <ns3:TrackPointExtension>
            <ns3:hr>123</ns3:hr>
            <ns3:cad>79</ns3:cad>
          </ns3:TrackPointExtension>
        </extensions>
      </trkpt>
      <trkpt lat="45.25559381581842899322509765625" lon="-71.14701828919351100921630859375">
        <ele>644</ele>
        <time>2026-08-22T03:13:42.000Z</time>
        <extensions>
          <ns3:TrackPointExtension>
            <ns3:hr>123</ns3:hr>
            <ns3:cad>79</ns3:cad>
          </ns3:TrackPointExtension>
        </extensions>
      </trkpt>
      <trkpt lat="45.2556066401302814483642578125" lon="-71.1470252461731433868408203125">
        <ele>644</ele>
        <time>2026-08-22T03:13:43.000Z</time>
        <extensions>
          <ns3:TrackPointExtension>
            <ns3:hr>124</ns3:hr>
            <ns3:cad>79</ns3:cad>
          </ns3:TrackPointExtension>
        </extensions>
      </trkpt>
      <trkpt lat="45.2556197158992290496826171875" lon="-71.147036142647266387939453125">
        <ele>644</ele>
        <time>2026-08-22T03:13:44.000Z</time>
        <extensions>
          <ns3:TrackPointExtension>
            <ns3:hr>124</ns3:hr>
            <ns3:cad>79</ns3:cad>
          </ns3:TrackPointExtension>
        </extensions>
      </trkpt>
      <trkpt lat="45.25562969036400318145751953125" lon="-71.14705332554876804351806640625">
        <ele>644</ele>
        <time>2026-08-22T03:13:45.000Z</time>
        <extensions>
          <ns3:TrackPointExtension>
            <ns3:hr>123</ns3:hr>
            <ns3:cad>79</ns3:cad>
          </ns3:TrackPointExtension>
        </extensions>
      </trkpt>
      <trkpt lat="45.25563798844814300537109375" lon="-71.14706891588866710662841796875">
        <ele>643.79998779296875</ele>
        <time>2026-08-22T03:13:46.000Z</time>
        <extensions>
          <ns3:TrackPointExtension>
            <ns3:hr>123</ns3:hr>
            <ns3:cad>79</ns3:cad>
          </ns3:TrackPointExtension>
        </extensions>
      </trkpt>
      <trkpt lat="45.2556475438177585601806640625" lon="-71.14708207547664642333984375">
        <ele>643.5999755859375</ele>
        <time>2026-08-22T03:13:47.000Z</time>
        <extensions>
          <ns3:TrackPointExtension>
            <ns3:hr>123</ns3:hr>
            <ns3:cad>0</ns3:cad>
          </ns3:TrackPointExtension>
        </extensions>
      </trkpt>
      <trkpt lat="45.25565684773027896881103515625" lon="-71.14709171466529369354248046875">
        <ele>643.4000244140625</ele>
        <time>2026-08-22T03:13:48.000Z</time>
        <extensions>
          <ns3:TrackPointExtension>
            <ns3:hr>123</ns3:hr>
            <ns3:cad>0</ns3:cad>
          </ns3:TrackPointExtension>
        </extensions>
      </trkpt>
      <trkpt lat="45.2556659840047359466552734375" lon="-71.1471068859100341796875">
        <ele>643.20001220703125</ele>
        <time>2026-08-22T03:13:49.000Z</time>
        <extensions>
          <ns3:TrackPointExtension>
            <ns3:hr>124</ns3:hr>
            <ns3:cad>0</ns3:cad>
          </ns3:TrackPointExtension>
        </extensions>
      </trkpt>
      <trkpt lat="45.25567411445081233978271484375" lon="-71.14712499082088470458984375">
        <ele>642.79998779296875</ele>
        <time>2026-08-22T03:13:50.000Z</time>
        <extensions>
          <ns3:TrackPointExtension>
            <ns3:hr>124</ns3:hr>
            <ns3:cad>0</ns3:cad>
          </ns3:TrackPointExtension>
        </extensions>
      </trkpt>
      <trkpt lat="45.255682580173015594482421875" lon="-71.14714016206562519073486328125">
        <ele>642.79998779296875</ele>
        <time>2026-08-22T03:13:51.000Z</time>
        <extensions>
          <ns3:TrackPointExtension>
            <ns3:hr>124</ns3:hr>
            <ns3:cad>0</ns3:cad>
          </ns3:TrackPointExtension>
        </extensions>
      </trkpt>
      <trkpt lat="45.25568132288753986358642578125" lon="-71.1471591889858245849609375">
        <ele>642.5999755859375</ele>
        <time>2026-08-22T03:13:52.000Z</time>
        <extensions>
          <ns3:TrackPointExtension>
            <ns3:hr>124</ns3:hr>
            <ns3:cad>0</ns3:cad>
          </ns3:TrackPointExtension>
        </extensions>
      </trkpt>
      <trkpt lat="45.2556807361543178558349609375" lon="-71.1471645534038543701171875">
        <ele>642.4000244140625</ele>
        <time>2026-08-22T03:13:53.000Z</time>
        <extensions>
          <ns3:TrackPointExtension>
            <ns3:hr>124</ns3:hr>
            <ns3:cad>0</ns3:cad>
          </ns3:TrackPointExtension>
        </extensions>
      </trkpt>
      <trkpt lat="45.25568090379238128662109375" lon="-71.1471752822399139404296875">
        <ele>642.4000244140625</ele>
        <time>2026-08-22T03:13:54.000Z</time>
        <extensions>
          <ns3:TrackPointExtension>
            <ns3:hr>125</ns3:hr>
            <ns3:cad>0</ns3:cad>
          </ns3:TrackPointExtension>
        </extensions>
      </trkpt>
      <trkpt lat="45.25568115524947643280029296875" lon="-71.1471845023334026336669921875">
        <ele>642.20001220703125</ele>
        <time>2026-08-22T03:13:55.000Z</time>
        <extensions>
          <ns3:TrackPointExtension>
            <ns3:hr>125</ns3:hr>
            <ns3:cad>0</ns3:cad>
          </ns3:TrackPointExtension>
        </extensions>
      </trkpt>
      <trkpt lat="45.25567629374563694000244140625" lon="-71.14719447679817676544189453125">
        <ele>642.20001220703125</ele>
        <time>2026-08-22T03:13:56.000Z</time>
        <extensions>
          <ns3:TrackPointExtension>
            <ns3:hr>125</ns3:hr>
            <ns3:cad>0</ns3:cad>
          </ns3:TrackPointExtension>
        </extensions>
      </trkpt>
      <trkpt lat="45.25567193515598773956298828125" lon="-71.1472116596996784210205078125">
        <ele>642.20001220703125</ele>
        <time>2026-08-22T03:13:57.000Z</time>
        <extensions>
          <ns3:TrackPointExtension>
            <ns3:hr>125</ns3:hr>
            <ns3:cad>0</ns3:cad>
          </ns3:TrackPointExtension>
        </extensions>
      </trkpt>
      <trkpt lat="45.25566640309989452362060546875" lon="-71.1472213827073574066162109375">
        <ele>642.20001220703125</ele>
        <time>2026-08-22T03:13:58.000Z</time>
        <extensions>
          <ns3:TrackPointExtension>
            <ns3:hr>125</ns3:hr>
            <ns3:cad>0</ns3:cad>
          </ns3:TrackPointExtension>
        </extensions>
      </trkpt>
      <trkpt lat="45.25566170923411846160888671875" lon="-71.14724703133106231689453125">
        <ele>642.20001220703125</ele>
        <time>2026-08-22T03:13:59.000Z</time>
        <extensions>
          <ns3:TrackPointExtension>
            <ns3:hr>125</ns3:hr>
            <ns3:cad>0</ns3:cad>
          </ns3:TrackPointExtension>
        </extensions>
      </trkpt>
      <trkpt lat="45.25566221214830875396728515625" lon="-71.14726907573640346527099609375">
        <ele>642.4000244140625</ele>
        <time>2026-08-22T03:14:00.000Z</time>
        <extensions>
          <ns3:TrackPointExtension>
            <ns3:hr>125</ns3:hr>
            <ns3:cad>0</ns3:cad>
          </ns3:TrackPointExtension>
        </extensions>
      </trkpt>
      <trkpt lat="45.2556633017957210540771484375" lon="-71.147302687168121337890625">
        <ele>642.5999755859375</ele>
        <time>2026-08-22T03:14:01.000Z</time>
        <extensions>
          <ns3:TrackPointExtension>
            <ns3:hr>126</ns3:hr>
            <ns3:cad>0</ns3:cad>
          </ns3:TrackPointExtension>
        </extensions>
      </trkpt>
      <trkpt lat="45.255661793053150177001953125" lon="-71.14732909016311168670654296875">
        <ele>642.79998779296875</ele>
        <time>2026-08-22T03:14:02.000Z</time>
        <extensions>
          <ns3:TrackPointExtension>
            <ns3:hr>126</ns3:hr>
            <ns3:cad>0</ns3:cad>
          </ns3:TrackPointExtension>
        </extensions>
      </trkpt>
      <trkpt lat="45.2556606195867061614990234375" lon="-71.1473497934639453887939453125">
        <ele>642.79998779296875</ele>
        <time>2026-08-22T03:14:03.000Z</time>
        <extensions>
          <ns3:TrackPointExtension>
            <ns3:hr>126</ns3:hr>
            <ns3:cad>0</ns3:cad>
          </ns3:TrackPointExtension>
        </extensions>
      </trkpt>
      <trkpt lat="45.2556626312434673309326171875" lon="-71.14736932329833507537841796875">
        <ele>642.79998779296875</ele>
        <time>2026-08-22T03:14:04.000Z</time>
        <extensions>
          <ns3:TrackPointExtension>
            <ns3:hr>126</ns3:hr>
            <ns3:cad>0</ns3:cad>
          </ns3:TrackPointExtension>
        </extensions>
      </trkpt>
      <trkpt lat="45.255665145814418792724609375" lon="-71.147383488714694976806640625">
        <ele>642.79998779296875</ele>
        <time>2026-08-22T03:14:05.000Z</time>
        <extensions>
          <ns3:TrackPointExtension>
            <ns3:hr>127</ns3:hr>
            <ns3:cad>0</ns3:cad>
          </ns3:TrackPointExtension>
        </extensions>
      </trkpt>
      <trkpt lat="45.2556690014898777008056640625" lon="-71.14740972407162189483642578125">
        <ele>642.79998779296875</ele>
        <time>2026-08-22T03:14:06.000Z</time>
        <extensions>
          <ns3:TrackPointExtension>
            <ns3:hr>127</ns3:hr>
            <ns3:cad>0</ns3:cad>
          </ns3:TrackPointExtension>
        </extensions>
      </trkpt>
      <trkpt lat="45.25567059405148029327392578125" lon="-71.1474208720028400421142578125">
        <ele>642.79998779296875</ele>
        <time>2026-08-22T03:14:07.000Z</time>
        <extensions>
          <ns3:TrackPointExtension>
            <ns3:hr>127</ns3:hr>
            <ns3:cad>0</ns3:cad>
          </ns3:TrackPointExtension>
        </extensions>
      </trkpt>
      <trkpt lat="45.25567159987986087799072265625" lon="-71.147440485656261444091796875">
        <ele>642.79998779296875</ele>
        <time>2026-08-22T03:14:08.000Z</time>
        <extensions>
          <ns3:TrackPointExtension>
            <ns3:hr>127</ns3:hr>
            <ns3:cad>0</ns3:cad>
          </ns3:TrackPointExtension>
        </extensions>
      </trkpt>
      <trkpt lat="45.25567361153662204742431640625" lon="-71.14746202714741230010986328125">
        <ele>642.79998779296875</ele>
        <time>2026-08-22T03:14:09.000Z</time>
        <extensions>
          <ns3:TrackPointExtension>
            <ns3:hr>127</ns3:hr>
            <ns3:cad>0</ns3:cad>
          </ns3:TrackPointExtension>
        </extensions>
      </trkpt>
      <trkpt lat="45.255674533545970916748046875" lon="-71.14748331718146800994873046875">
        <ele>643</ele>
        <time>2026-08-22T03:14:10.000Z</time>
        <extensions>
          <ns3:TrackPointExtension>
            <ns3:hr>128</ns3:hr>
            <ns3:cad>0</ns3:cad>
          </ns3:TrackPointExtension>
        </extensions>
      </trkpt>
      <trkpt lat="45.2556787244975566864013671875" lon="-71.14750477485358715057373046875">
        <ele>643</ele>
        <time>2026-08-22T03:14:11.000Z</time>
        <extensions>
          <ns3:TrackPointExtension>
            <ns3:hr>128</ns3:hr>
            <ns3:cad>0</ns3:cad>
          </ns3:TrackPointExtension>
        </extensions>
      </trkpt>
      <trkpt lat="45.2556894533336162567138671875" lon="-71.1475318484008312225341796875">
        <ele>643</ele>
        <time>2026-08-22T03:14:12.000Z</time>
        <extensions>
          <ns3:TrackPointExtension>
            <ns3:hr>128</ns3:hr>
            <ns3:cad>0</ns3:cad>
          </ns3:TrackPointExtension>
        </extensions>
      </trkpt>
      <trkpt lat="45.25569741614162921905517578125" lon="-71.147559843957424163818359375">
        <ele>642.79998779296875</ele>
        <time>2026-08-22T03:14:13.000Z</time>
        <extensions>
          <ns3:TrackPointExtension>
            <ns3:hr>128</ns3:hr>
            <ns3:cad>71</ns3:cad>
          </ns3:TrackPointExtension>
        </extensions>
      </trkpt>
      <trkpt lat="45.255706720054149627685546875" lon="-71.14759161137044429779052734375">
        <ele>642.79998779296875</ele>
        <time>2026-08-22T03:14:14.000Z</time>
        <extensions>
          <ns3:TrackPointExtension>
            <ns3:hr>128</ns3:hr>
            <ns3:cad>71</ns3:cad>
          </ns3:TrackPointExtension>
        </extensions>
      </trkpt>
      <trkpt lat="45.25571401230990886688232421875" lon="-71.1476183496415615081787109375">
        <ele>642.79998779296875</ele>
        <time>2026-08-22T03:14:15.000Z</time>
        <extensions>
          <ns3:TrackPointExtension>
            <ns3:hr>128</ns3:hr>
            <ns3:cad>71</ns3:cad>
          </ns3:TrackPointExtension>
        </extensions>
      </trkpt>
      <trkpt lat="45.2557159401476383209228515625" lon="-71.1476401425898075103759765625">
        <ele>642.5999755859375</ele>
        <time>2026-08-22T03:14:16.000Z</time>
        <extensions>
          <ns3:TrackPointExtension>
            <ns3:hr>128</ns3:hr>
            <ns3:cad>71</ns3:cad>
          </ns3:TrackPointExtension>
        </extensions>
      </trkpt>
      <trkpt lat="45.2557139284908771514892578125" lon="-71.14766654558479785919189453125">
        <ele>642.5999755859375</ele>
        <time>2026-08-22T03:14:17.000Z</time>
        <extensions>
          <ns3:TrackPointExtension>
            <ns3:hr>128</ns3:hr>
            <ns3:cad>71</ns3:cad>
          </ns3:TrackPointExtension>
        </extensions>
      </trkpt>
      <trkpt lat="45.25571686215698719024658203125" lon="-71.14768599160015583038330078125">
        <ele>642.5999755859375</ele>
        <time>2026-08-22T03:14:18.000Z</time>
        <extensions>
          <ns3:TrackPointExtension>
            <ns3:hr>129</ns3:hr>
            <ns3:cad>0</ns3:cad>
          </ns3:TrackPointExtension>
        </extensions>
      </trkpt>
      <trkpt lat="45.25571652688086032867431640625" lon="-71.14771063439548015594482421875">
        <ele>642.5999755859375</ele>
        <time>2026-08-22T03:14:19.000Z</time>
        <extensions>
          <ns3:TrackPointExtension>
            <ns3:hr>129</ns3:hr>
            <ns3:cad>0</ns3:cad>
          </ns3:TrackPointExtension>
        </extensions>
      </trkpt>
      <trkpt lat="45.255714096128940582275390625" lon="-71.1477323435246944427490234375">
        <ele>642.5999755859375</ele>
        <time>2026-08-22T03:14:20.000Z</time>
        <extensions>
          <ns3:TrackPointExtension>
            <ns3:hr>129</ns3:hr>
            <ns3:cad>0</ns3:cad>
          </ns3:TrackPointExtension>
        </extensions>
      </trkpt>
      <trkpt lat="45.25571602396667003631591796875" lon="-71.1477578245103359222412109375">
        <ele>642.5999755859375</ele>
        <time>2026-08-22T03:14:21.000Z</time>
        <extensions>
          <ns3:TrackPointExtension>
            <ns3:hr>128</ns3:hr>
            <ns3:cad>0</ns3:cad>
          </ns3:TrackPointExtension>
        </extensions>
      </trkpt>
      <trkpt lat="45.25572105310857295989990234375" lon="-71.14777819253504276275634765625">
        <ele>642.4000244140625</ele>
        <time>2026-08-22T03:14:22.000Z</time>
        <extensions>
          <ns3:TrackPointExtension>
            <ns3:hr>129</ns3:hr>
            <ns3:cad>0</ns3:cad>
          </ns3:TrackPointExtension>
        </extensions>
      </trkpt>
      <trkpt lat="45.255729854106903076171875" lon="-71.14779763855040073394775390625">
        <ele>642.4000244140625</ele>
        <time>2026-08-22T03:14:23.000Z</time>
        <extensions>
          <ns3:TrackPointExtension>
            <ns3:hr>129</ns3:hr>
            <ns3:cad>64</ns3:cad>
          </ns3:TrackPointExtension>
        </extensions>
      </trkpt>
      <trkpt lat="45.2557410858571529388427734375" lon="-71.14781825803220272064208984375">
        <ele>642.20001220703125</ele>
        <time>2026-08-22T03:14:24.000Z</time>
        <extensions>
          <ns3:TrackPointExtension>
            <ns3:hr>128</ns3:hr>
            <ns3:cad>64</ns3:cad>
          </ns3:TrackPointExtension>
        </extensions>
      </trkpt>
      <trkpt lat="45.25574217550456523895263671875" lon="-71.14784038625657558441162109375">
        <ele>642.20001220703125</ele>
        <time>2026-08-22T03:14:25.000Z</time>
        <extensions>
          <ns3:TrackPointExtension>
            <ns3:hr>129</ns3:hr>
            <ns3:cad>64</ns3:cad>
          </ns3:TrackPointExtension>
        </extensions>
      </trkpt>
      <trkpt lat="45.255746953189373016357421875" lon="-71.14786352030932903289794921875">
        <ele>642</ele>
        <time>2026-08-22T03:14:26.000Z</time>
        <extensions>
          <ns3:TrackPointExtension>
            <ns3:hr>128</ns3:hr>
            <ns3:cad>64</ns3:cad>
          </ns3:TrackPointExtension>
        </extensions>
      </trkpt>
      <trkpt lat="45.255752988159656524658203125" lon="-71.147887744009494781494140625">
        <ele>642</ele>
        <time>2026-08-22T03:14:27.000Z</time>
        <extensions>
          <ns3:TrackPointExtension>
            <ns3:hr>128</ns3:hr>
            <ns3:cad>64</ns3:cad>
          </ns3:TrackPointExtension>
        </extensions>
      </trkpt>
      <trkpt lat="45.25576329790055751800537109375" lon="-71.14791490137577056884765625">
        <ele>641.79998779296875</ele>
        <time>2026-08-22T03:14:28.000Z</time>
        <extensions>
          <ns3:TrackPointExtension>
            <ns3:hr>129</ns3:hr>
            <ns3:cad>64</ns3:cad>
          </ns3:TrackPointExtension>
        </extensions>
      </trkpt>
      <trkpt lat="45.255771093070507049560546875" lon="-71.14793795160949230194091796875">
        <ele>641.79998779296875</ele>
        <time>2026-08-22T03:14:29.000Z</time>
        <extensions>
          <ns3:TrackPointExtension>
            <ns3:hr>129</ns3:hr>
            <ns3:cad>64</ns3:cad>
          </ns3:TrackPointExtension>
        </extensions>
      </trkpt>
      <trkpt lat="45.255781151354312896728515625" lon="-71.147961504757404327392578125">
        <ele>641.79998779296875</ele>
        <time>2026-08-22T03:14:30.000Z</time>
        <extensions>
          <ns3:TrackPointExtension>
            <ns3:hr>129</ns3:hr>
            <ns3:cad>71</ns3:cad>
          </ns3:TrackPointExtension>
        </extensions>
      </trkpt>
      <trkpt lat="45.25579079054296016693115234375" lon="-71.14798489026725292205810546875">
        <ele>641.5999755859375</ele>
        <time>2026-08-22T03:14:31.000Z</time>
        <extensions>
          <ns3:TrackPointExtension>
            <ns3:hr>131</ns3:hr>
            <ns3:cad>71</ns3:cad>
          </ns3:TrackPointExtension>
        </extensions>
      </trkpt>
      <trkpt lat="45.25580403394997119903564453125" lon="-71.14800953306257724761962890625">
        <ele>641.5999755859375</ele>
        <time>2026-08-22T03:14:32.000Z</time>
        <extensions>
          <ns3:TrackPointExtension>
            <ns3:hr>131</ns3:hr>
            <ns3:cad>71</ns3:cad>
          </ns3:TrackPointExtension>
        </extensions>
      </trkpt>
      <trkpt lat="45.25581543333828449249267578125" lon="-71.1480193398892879486083984375">
        <ele>641.5999755859375</ele>
        <time>2026-08-22T03:14:33.000Z</time>
        <extensions>
          <ns3:TrackPointExtension>
            <ns3:hr>132</ns3:hr>
            <ns3:cad>71</ns3:cad>
          </ns3:TrackPointExtension>
        </extensions>
      </trkpt>
      <trkpt lat="45.2558295987546443939208984375" lon="-71.1480309069156646728515625">
        <ele>641.4000244140625</ele>
        <time>2026-08-22T03:14:34.000Z</time>
        <extensions>
          <ns3:TrackPointExtension>
            <ns3:hr>132</ns3:hr>
            <ns3:cad>71</ns3:cad>
          </ns3:TrackPointExtension>
        </extensions>
      </trkpt>
      <trkpt lat="45.2558505535125732421875" lon="-71.1480416357517242431640625">
        <ele>641.4000244140625</ele>
        <time>2026-08-22T03:14:35.000Z</time>
        <extensions>
          <ns3:TrackPointExtension>
            <ns3:hr>132</ns3:hr>
            <ns3:cad>69</ns3:cad>
          </ns3:TrackPointExtension>
        </extensions>
      </trkpt>
      <trkpt lat="45.25586840696632862091064453125" lon="-71.1480454914271831512451171875">
        <ele>641.20001220703125</ele>
        <time>2026-08-22T03:14:36.000Z</time>
        <extensions>
          <ns3:TrackPointExtension>
            <ns3:hr>132</ns3:hr>
            <ns3:cad>69</ns3:cad>
          </ns3:TrackPointExtension>
        </extensions>
      </trkpt>
      <trkpt lat="45.25588366203010082244873046875" lon="-71.14804624579846858978271484375">
        <ele>641</ele>
        <time>2026-08-22T03:14:37.000Z</time>
        <extensions>
          <ns3:TrackPointExtension>
            <ns3:hr>132</ns3:hr>
            <ns3:cad>70</ns3:cad>
          </ns3:TrackPointExtension>
        </extensions>
      </trkpt>
      <trkpt lat="45.2558956481516361236572265625" lon="-71.1480521969497203826904296875">
        <ele>641</ele>
        <time>2026-08-22T03:14:38.000Z</time>
        <extensions>
          <ns3:TrackPointExtension>
            <ns3:hr>132</ns3:hr>
            <ns3:cad>70</ns3:cad>
          </ns3:TrackPointExtension>
        </extensions>
      </trkpt>
      <trkpt lat="45.25591031648218631744384765625" lon="-71.14805714227259159088134765625">
        <ele>640.79998779296875</ele>
        <time>2026-08-22T03:14:39.000Z</time>
        <extensions>
          <ns3:TrackPointExtension>
            <ns3:hr>132</ns3:hr>
            <ns3:cad>70</ns3:cad>
          </ns3:TrackPointExtension>
        </extensions>
      </trkpt>
      <trkpt lat="45.25592456571757793426513671875" lon="-71.14805881865322589874267578125">
        <ele>640.79998779296875</ele>
        <time>2026-08-22T03:14:40.000Z</time>
        <extensions>
          <ns3:TrackPointExtension>
            <ns3:hr>132</ns3:hr>
            <ns3:cad>67</ns3:cad>
          </ns3:TrackPointExtension>
        </extensions>
      </trkpt>
      <trkpt lat="45.25593982078135013580322265625" lon="-71.148061417043209075927734375">
        <ele>640.5999755859375</ele>
        <time>2026-08-22T03:14:41.000Z</time>
        <extensions>
          <ns3:TrackPointExtension>
            <ns3:hr>132</ns3:hr>
            <ns3:cad>67</ns3:cad>
          </ns3:TrackPointExtension>
        </extensions>
      </trkpt>
      <trkpt lat="45.2559479512274265289306640625" lon="-71.1480763368308544158935546875">
        <ele>640.79998779296875</ele>
        <time>2026-08-22T03:14:42.000Z</time>
        <extensions>
          <ns3:TrackPointExtension>
            <ns3:hr>132</ns3:hr>
            <ns3:cad>0</ns3:cad>
          </ns3:TrackPointExtension>
        </extensions>
      </trkpt>
      <trkpt lat="45.2559566684067249298095703125" lon="-71.14808899350464344024658203125">
        <ele>640.5999755859375</ele>
        <time>2026-08-22T03:14:43.000Z</time>
        <extensions>
          <ns3:TrackPointExtension>
            <ns3:hr>132</ns3:hr>
            <ns3:cad>0</ns3:cad>
          </ns3:TrackPointExtension>
        </extensions>
      </trkpt>
      <trkpt lat="45.25596664287149906158447265625" lon="-71.1481014825403690338134765625">
        <ele>640.5999755859375</ele>
        <time>2026-08-22T03:14:44.000Z</time>
        <extensions>
          <ns3:TrackPointExtension>
            <ns3:hr>132</ns3:hr>
            <ns3:cad>0</ns3:cad>
          </ns3:TrackPointExtension>
        </extensions>
      </trkpt>
      <trkpt lat="45.25597586296498775482177734375" lon="-71.1481095291674137115478515625">
        <ele>640.5999755859375</ele>
        <time>2026-08-22T03:14:45.000Z</time>
        <extensions>
          <ns3:TrackPointExtension>
            <ns3:hr>133</ns3:hr>
            <ns3:cad>0</ns3:cad>
          </ns3:TrackPointExtension>
        </extensions>
      </trkpt>
      <trkpt lat="45.2559881843626499176025390625" lon="-71.1481172405183315277099609375">
        <ele>640.79998779296875</ele>
        <time>2026-08-22T03:14:46.000Z</time>
        <extensions>
          <ns3:TrackPointExtension>
            <ns3:hr>133</ns3:hr>
            <ns3:cad>0</ns3:cad>
          </ns3:TrackPointExtension>
        </extensions>
      </trkpt>
      <trkpt lat="45.25600553490221500396728515625" lon="-71.14812218584120273590087890625">
        <ele>640.79998779296875</ele>
        <time>2026-08-22T03:14:47.000Z</time>
        <extensions>
          <ns3:TrackPointExtension>
            <ns3:hr>134</ns3:hr>
            <ns3:cad>0</ns3:cad>
          </ns3:TrackPointExtension>
        </extensions>
      </trkpt>
      <trkpt lat="45.25602011941373348236083984375" lon="-71.1481329984962940216064453125">
        <ele>640.5999755859375</ele>
        <time>2026-08-22T03:14:48.000Z</time>
        <extensions>
          <ns3:TrackPointExtension>
            <ns3:hr>133</ns3:hr>
            <ns3:cad>0</ns3:cad>
          </ns3:TrackPointExtension>
        </extensions>
      </trkpt>
      <trkpt lat="45.256039313971996307373046875" lon="-71.14813928492367267608642578125">
        <ele>640.5999755859375</ele>
        <time>2026-08-22T03:14:49.000Z</time>
        <extensions>
          <ns3:TrackPointExtension>
            <ns3:hr>133</ns3:hr>
            <ns3:cad>0</ns3:cad>
          </ns3:TrackPointExtension>
        </extensions>
      </trkpt>
      <trkpt lat="45.2560530602931976318359375" lon="-71.14814967848360538482666015625">
        <ele>640.4000244140625</ele>
        <time>2026-08-22T03:14:50.000Z</time>
        <extensions>
          <ns3:TrackPointExtension>
            <ns3:hr>132</ns3:hr>
            <ns3:cad>0</ns3:cad>
          </ns3:TrackPointExtension>
        </extensions>
      </trkpt>
      <trkpt lat="45.256067812442779541015625" lon="-71.14816040731966495513916015625">
        <ele>640.20001220703125</ele>
        <time>2026-08-22T03:14:51.000Z</time>
        <extensions>
          <ns3:TrackPointExtension>
            <ns3:hr>131</ns3:hr>
            <ns3:cad>0</ns3:cad>
          </ns3:TrackPointExtension>
        </extensions>
      </trkpt>
      <trkpt lat="45.25608499534428119659423828125" lon="-71.14816711284220218658447265625">
        <ele>639.79998779296875</ele>
        <time>2026-08-22T03:14:52.000Z</time>
        <extensions>
          <ns3:TrackPointExtension>
            <ns3:hr>130</ns3:hr>
            <ns3:cad>0</ns3:cad>
          </ns3:TrackPointExtension>
        </extensions>
      </trkpt>
      <trkpt lat="45.2560994960367679595947265625" lon="-71.14816962741315364837646484375">
        <ele>639.79998779296875</ele>
        <time>2026-08-22T03:14:53.000Z</time>
        <extensions>
          <ns3:TrackPointExtension>
            <ns3:hr>129</ns3:hr>
            <ns3:cad>0</ns3:cad>
          </ns3:TrackPointExtension>
        </extensions>
      </trkpt>
      <trkpt lat="45.25611684657633304595947265625" lon="-71.148174069821834564208984375">
        <ele>639.5999755859375</ele>
        <time>2026-08-22T03:14:54.000Z</time>
        <extensions>
          <ns3:TrackPointExtension>
            <ns3:hr>128</ns3:hr>
            <ns3:cad>0</ns3:cad>
          </ns3:TrackPointExtension>
        </extensions>
      </trkpt>
      <trkpt lat="45.25613293983042240142822265625" lon="-71.14817901514470577239990234375">
        <ele>639.4000244140625</ele>
        <time>2026-08-22T03:14:55.000Z</time>
        <extensions>
          <ns3:TrackPointExtension>
            <ns3:hr>128</ns3:hr>
            <ns3:cad>0</ns3:cad>
          </ns3:TrackPointExtension>
        </extensions>
      </trkpt>
      <trkpt lat="45.25614953599870204925537109375" lon="-71.14818446338176727294921875">
        <ele>639.4000244140625</ele>
        <time>2026-08-22T03:14:56.000Z</time>
        <extensions>
          <ns3:TrackPointExtension>
            <ns3:hr>127</ns3:hr>
            <ns3:cad>0</ns3:cad>
          </ns3:TrackPointExtension>
        </extensions>
      </trkpt>
      <trkpt lat="45.25616328231990337371826171875" lon="-71.14818236790597438812255859375">
        <ele>639.20001220703125</ele>
        <time>2026-08-22T03:14:57.000Z</time>
        <extensions>
          <ns3:TrackPointExtension>
            <ns3:hr>127</ns3:hr>
            <ns3:cad>0</ns3:cad>
          </ns3:TrackPointExtension>
        </extensions>
      </trkpt>
      <trkpt lat="45.25618004612624645233154296875" lon="-71.14817348308861255645751953125">
        <ele>639.20001220703125</ele>
        <time>2026-08-22T03:14:58.000Z</time>
        <extensions>
          <ns3:TrackPointExtension>
            <ns3:hr>127</ns3:hr>
            <ns3:cad>0</ns3:cad>
          </ns3:TrackPointExtension>
        </extensions>
      </trkpt>
      <trkpt lat="45.25620033033192157745361328125" lon="-71.14816660992801189422607421875">
        <ele>639</ele>
        <time>2026-08-22T03:14:59.000Z</time>
        <extensions>
          <ns3:TrackPointExtension>
            <ns3:hr>127</ns3:hr>
            <ns3:cad>73</ns3:cad>
          </ns3:TrackPointExtension>
        </extensions>
      </trkpt>
      <trkpt lat="45.2562161721289157867431640625" lon="-71.14816040731966495513916015625">
        <ele>638.79998779296875</ele>
        <time>2026-08-22T03:15:00.000Z</time>
        <extensions>
          <ns3:TrackPointExtension>
            <ns3:hr>127</ns3:hr>
            <ns3:cad>73</ns3:cad>
          </ns3:TrackPointExtension>
        </extensions>
      </trkpt>
      <trkpt lat="45.25623620487749576568603515625" lon="-71.14815671928226947784423828125">
        <ele>638.5999755859375</ele>
        <time>2026-08-22T03:15:01.000Z</time>
        <extensions>
          <ns3:TrackPointExtension>
            <ns3:hr>128</ns3:hr>
            <ns3:cad>73</ns3:cad>
          </ns3:TrackPointExtension>
        </extensions>
      </trkpt>
      <trkpt lat="45.256253890693187713623046875" lon="-71.14815403707325458526611328125">
        <ele>638.5999755859375</ele>
        <time>2026-08-22T03:15:02.000Z</time>
        <extensions>
          <ns3:TrackPointExtension>
            <ns3:hr>127</ns3:hr>
            <ns3:cad>73</ns3:cad>
          </ns3:TrackPointExtension>
        </extensions>
      </trkpt>
      <trkpt lat="45.256271995604038238525390625" lon="-71.1481450684368610382080078125">
        <ele>638.4000244140625</ele>
        <time>2026-08-22T03:15:03.000Z</time>
        <extensions>
          <ns3:TrackPointExtension>
            <ns3:hr>128</ns3:hr>
            <ns3:cad>73</ns3:cad>
          </ns3:TrackPointExtension>
        </extensions>
      </trkpt>
      <trkpt lat="45.2562926150858402252197265625" lon="-71.14813081920146942138671875">
        <ele>638.4000244140625</ele>
        <time>2026-08-22T03:15:04.000Z</time>
        <extensions>
          <ns3:TrackPointExtension>
            <ns3:hr>128</ns3:hr>
            <ns3:cad>73</ns3:cad>
          </ns3:TrackPointExtension>
        </extensions>
      </trkpt>
      <trkpt lat="45.256309211254119873046875" lon="-71.14812419749796390533447265625">
        <ele>638.20001220703125</ele>
        <time>2026-08-22T03:15:05.000Z</time>
        <extensions>
          <ns3:TrackPointExtension>
            <ns3:hr>129</ns3:hr>
            <ns3:cad>73</ns3:cad>
          </ns3:TrackPointExtension>
        </extensions>
      </trkpt>
      <trkpt lat="45.25632840581238269805908203125" lon="-71.1481269635260105133056640625">
        <ele>638.20001220703125</ele>
        <time>2026-08-22T03:15:06.000Z</time>
        <extensions>
          <ns3:TrackPointExtension>
            <ns3:hr>130</ns3:hr>
            <ns3:cad>73</ns3:cad>
          </ns3:TrackPointExtension>
        </extensions>
      </trkpt>
      <trkpt lat="45.2563462592661380767822265625" lon="-71.1481306515634059906005859375">
        <ele>638.20001220703125</ele>
        <time>2026-08-22T03:15:07.000Z</time>
        <extensions>
          <ns3:TrackPointExtension>
            <ns3:hr>130</ns3:hr>
            <ns3:cad>73</ns3:cad>
          </ns3:TrackPointExtension>
        </extensions>
      </trkpt>
      <trkpt lat="45.25636218488216400146484375" lon="-71.14813492633402347564697265625">
        <ele>638</ele>
        <time>2026-08-22T03:15:08.000Z</time>
        <extensions>
          <ns3:TrackPointExtension>
            <ns3:hr>130</ns3:hr>
            <ns3:cad>73</ns3:cad>
          </ns3:TrackPointExtension>
        </extensions>
      </trkpt>
      <trkpt lat="45.25637685321271419525146484375" lon="-71.14814364351332187652587890625">
        <ele>638</ele>
        <time>2026-08-22T03:15:09.000Z</time>
        <extensions>
          <ns3:TrackPointExtension>
            <ns3:hr>130</ns3:hr>
            <ns3:cad>73</ns3:cad>
          </ns3:TrackPointExtension>
        </extensions>
      </trkpt>
      <trkpt lat="45.25638506747782230377197265625" lon="-71.14815537817776203155517578125">
        <ele>638</ele>
        <time>2026-08-22T03:15:10.000Z</time>
        <extensions>
          <ns3:TrackPointExtension>
            <ns3:hr>130</ns3:hr>
            <ns3:cad>73</ns3:cad>
          </ns3:TrackPointExtension>
        </extensions>
      </trkpt>
      <trkpt lat="45.25639747269451618194580078125" lon="-71.1481702141463756561279296875">
        <ele>638</ele>
        <time>2026-08-22T03:15:11.000Z</time>
        <extensions>
          <ns3:TrackPointExtension>
            <ns3:hr>130</ns3:hr>
            <ns3:cad>0</ns3:cad>
          </ns3:TrackPointExtension>
        </extensions>
      </trkpt>
      <trkpt lat="45.25641071610152721405029296875" lon="-71.1481822840869426727294921875">
        <ele>637.79998779296875</ele>
        <time>2026-08-22T03:15:12.000Z</time>
        <extensions>
          <ns3:TrackPointExtension>
            <ns3:hr>130</ns3:hr>
            <ns3:cad>0</ns3:cad>
          </ns3:TrackPointExtension>
        </extensions>
      </trkpt>
      <trkpt lat="45.25642119348049163818359375" lon="-71.1481973715126514434814453125">
        <ele>637.79998779296875</ele>
        <time>2026-08-22T03:15:13.000Z</time>
        <extensions>
          <ns3:TrackPointExtension>
            <ns3:hr>130</ns3:hr>
            <ns3:cad>0</ns3:cad>
          </ns3:TrackPointExtension>
        </extensions>
      </trkpt>
      <trkpt lat="45.25643133558332920074462890625" lon="-71.14822058938443660736083984375">
        <ele>637.5999755859375</ele>
        <time>2026-08-22T03:15:14.000Z</time>
        <extensions>
          <ns3:TrackPointExtension>
            <ns3:hr>130</ns3:hr>
            <ns3:cad>0</ns3:cad>
          </ns3:TrackPointExtension>
        </extensions>
      </trkpt>
      <trkpt lat="45.25644122622907161712646484375" lon="-71.14824154414236545562744140625">
        <ele>637.4000244140625</ele>
        <time>2026-08-22T03:15:15.000Z</time>
        <extensions>
          <ns3:TrackPointExtension>
            <ns3:hr>130</ns3:hr>
            <ns3:cad>0</ns3:cad>
          </ns3:TrackPointExtension>
        </extensions>
      </trkpt>
      <trkpt lat="45.25645514018833637237548828125" lon="-71.1482614092528820037841796875">
        <ele>637.4000244140625</ele>
        <time>2026-08-22T03:15:16.000Z</time>
        <extensions>
          <ns3:TrackPointExtension>
            <ns3:hr>130</ns3:hr>
            <ns3:cad>0</ns3:cad>
          </ns3:TrackPointExtension>
        </extensions>
      </trkpt>
      <trkpt lat="45.2564686350524425506591796875" lon="-71.148287393152713775634765625">
        <ele>637.20001220703125</ele>
        <time>2026-08-22T03:15:17.000Z</time>
        <extensions>
          <ns3:TrackPointExtension>
            <ns3:hr>130</ns3:hr>
            <ns3:cad>0</ns3:cad>
          </ns3:TrackPointExtension>
        </extensions>
      </trkpt>
      <trkpt lat="45.2564768493175506591796875" lon="-71.1483071744441986083984375">
        <ele>637.20001220703125</ele>
        <time>2026-08-22T03:15:18.000Z</time>
        <extensions>
          <ns3:TrackPointExtension>
            <ns3:hr>130</ns3:hr>
            <ns3:cad>0</ns3:cad>
          </ns3:TrackPointExtension>
        </extensions>
      </trkpt>
      <trkpt lat="45.25648824870586395263671875" lon="-71.14833005703985691070556640625">
        <ele>637</ele>
        <time>2026-08-22T03:15:19.000Z</time>
        <extensions>
          <ns3:TrackPointExtension>
            <ns3:hr>130</ns3:hr>
            <ns3:cad>0</ns3:cad>
          </ns3:TrackPointExtension>
        </extensions>
      </trkpt>
      <trkpt lat="45.2564957924187183380126953125" lon="-71.1483442224562168121337890625">
        <ele>637</ele>
        <time>2026-08-22T03:15:20.000Z</time>
        <extensions>
          <ns3:TrackPointExtension>
            <ns3:hr>130</ns3:hr>
            <ns3:cad>0</ns3:cad>
          </ns3:TrackPointExtension>
        </extensions>
      </trkpt>
      <trkpt lat="45.25650861673057079315185546875" lon="-71.14835612475872039794921875">
        <ele>637</ele>
        <time>2026-08-22T03:15:21.000Z</time>
        <extensions>
          <ns3:TrackPointExtension>
            <ns3:hr>130</ns3:hr>
            <ns3:cad>0</ns3:cad>
          </ns3:TrackPointExtension>
        </extensions>
      </trkpt>
      <trkpt lat="45.25652387179434299468994140625" lon="-71.1483635008335113525390625">
        <ele>637</ele>
        <time>2026-08-22T03:15:22.000Z</time>
        <extensions>
          <ns3:TrackPointExtension>
            <ns3:hr>130</ns3:hr>
            <ns3:cad>0</ns3:cad>
          </ns3:TrackPointExtension>
        </extensions>
      </trkpt>
      <trkpt lat="45.25653610937297344207763671875" lon="-71.14836257882416248321533203125">
        <ele>636.79998779296875</ele>
        <time>2026-08-22T03:15:23.000Z</time>
        <extensions>
          <ns3:TrackPointExtension>
            <ns3:hr>130</ns3:hr>
            <ns3:cad>0</ns3:cad>
          </ns3:TrackPointExtension>
        </extensions>
      </trkpt>
      <trkpt lat="45.25654532946646213531494140625" lon="-71.1483581364154815673828125">
        <ele>636.79998779296875</ele>
        <time>2026-08-22T03:15:24.000Z</time>
        <extensions>
          <ns3:TrackPointExtension>
            <ns3:hr>130</ns3:hr>
            <ns3:cad>0</ns3:cad>
          </ns3:TrackPointExtension>
        </extensions>
      </trkpt>
      <trkpt lat="45.256556309759616851806640625" lon="-71.1483529396355152130126953125">
        <ele>636.79998779296875</ele>
        <time>2026-08-22T03:15:25.000Z</time>
        <extensions>
          <ns3:TrackPointExtension>
            <ns3:hr>131</ns3:hr>
            <ns3:cad>65</ns3:cad>
          </ns3:TrackPointExtension>
        </extensions>
      </trkpt>
      <trkpt lat="45.25656645186245441436767578125" lon="-71.14834950305521488189697265625">
        <ele>636.79998779296875</ele>
        <time>2026-08-22T03:15:26.000Z</time>
        <extensions>
          <ns3:TrackPointExtension>
            <ns3:hr>131</ns3:hr>
            <ns3:cad>65</ns3:cad>
          </ns3:TrackPointExtension>
        </extensions>
      </trkpt>
      <trkpt lat="45.256578437983989715576171875" lon="-71.14835201762616634368896484375">
        <ele>636.79998779296875</ele>
        <time>2026-08-22T03:15:27.000Z</time>
        <extensions>
          <ns3:TrackPointExtension>
            <ns3:hr>131</ns3:hr>
            <ns3:cad>65</ns3:cad>
          </ns3:TrackPointExtension>
        </extensions>
      </trkpt>
      <trkpt lat="45.25659277103841304779052734375" lon="-71.14836425520479679107666015625">
        <ele>636.79998779296875</ele>
        <time>2026-08-22T03:15:28.000Z</time>
        <extensions>
          <ns3:TrackPointExtension>
            <ns3:hr>131</ns3:hr>
            <ns3:cad>57</ns3:cad>
          </ns3:TrackPointExtension>
        </extensions>
      </trkpt>
      <trkpt lat="45.25660266168415546417236328125" lon="-71.148374564945697784423828125">
        <ele>636.79998779296875</ele>
        <time>2026-08-22T03:15:29.000Z</time>
        <extensions>
          <ns3:TrackPointExtension>
            <ns3:hr>130</ns3:hr>
            <ns3:cad>57</ns3:cad>
          </ns3:TrackPointExtension>
        </extensions>
      </trkpt>
      <trkpt lat="45.25662395171821117401123046875" lon="-71.1483876407146453857421875">
        <ele>636.79998779296875</ele>
        <time>2026-08-22T03:15:30.000Z</time>
        <extensions>
          <ns3:TrackPointExtension>
            <ns3:hr>130</ns3:hr>
            <ns3:cad>57</ns3:cad>
          </ns3:TrackPointExtension>
        </extensions>
      </trkpt>
      <trkpt lat="45.25663719512522220611572265625" lon="-71.14838697016239166259765625">
        <ele>636.5999755859375</ele>
        <time>2026-08-22T03:15:31.000Z</time>
        <extensions>
          <ns3:TrackPointExtension>
            <ns3:hr>130</ns3:hr>
            <ns3:cad>57</ns3:cad>
          </ns3:TrackPointExtension>
        </extensions>
      </trkpt>
      <trkpt lat="45.2566510252654552459716796875" lon="-71.14838286302983760833740234375">
        <ele>636.4000244140625</ele>
        <time>2026-08-22T03:15:32.000Z</time>
        <extensions>
          <ns3:TrackPointExtension>
            <ns3:hr>130</ns3:hr>
            <ns3:cad>57</ns3:cad>
          </ns3:TrackPointExtension>
        </extensions>
      </trkpt>
      <trkpt lat="45.25666284374892711639404296875" lon="-71.148391664028167724609375">
        <ele>636.20001220703125</ele>
        <time>2026-08-22T03:15:33.000Z</time>
        <extensions>
          <ns3:TrackPointExtension>
            <ns3:hr>130</ns3:hr>
            <ns3:cad>57</ns3:cad>
          </ns3:TrackPointExtension>
        </extensions>
      </trkpt>
      <trkpt lat="45.2566708065569400787353515625" lon="-71.14840172231197357177734375">
        <ele>636</ele>
        <time>2026-08-22T03:15:34.000Z</time>
        <extensions>
          <ns3:TrackPointExtension>
            <ns3:hr>130</ns3:hr>
            <ns3:cad>57</ns3:cad>
          </ns3:TrackPointExtension>
        </extensions>
      </trkpt>
      <trkpt lat="45.25667876936495304107666015625" lon="-71.14841974340379238128662109375">
        <ele>635.79998779296875</ele>
        <time>2026-08-22T03:15:35.000Z</time>
        <extensions>
          <ns3:TrackPointExtension>
            <ns3:hr>130</ns3:hr>
            <ns3:cad>57</ns3:cad>
          </ns3:TrackPointExtension>
        </extensions>
      </trkpt>
      <trkpt lat="45.25668497197329998016357421875" lon="-71.14843466319143772125244140625">
        <ele>635.5999755859375</ele>
        <time>2026-08-22T03:15:36.000Z</time>
        <extensions>
          <ns3:TrackPointExtension>
            <ns3:hr>130</ns3:hr>
            <ns3:cad>57</ns3:cad>
          </ns3:TrackPointExtension>
        </extensions>
      </trkpt>
      <trkpt lat="45.25669637136161327362060546875" lon="-71.1484521813690662384033203125">
        <ele>635.4000244140625</ele>
        <time>2026-08-22T03:15:37.000Z</time>
        <extensions>
          <ns3:TrackPointExtension>
            <ns3:hr>130</ns3:hr>
            <ns3:cad>57</ns3:cad>
          </ns3:TrackPointExtension>
        </extensions>
      </trkpt>
      <trkpt lat="45.256707184016704559326171875" lon="-71.14846617914736270904541015625">
        <ele>635.20001220703125</ele>
        <time>2026-08-22T03:15:38.000Z</time>
        <extensions>
          <ns3:TrackPointExtension>
            <ns3:hr>130</ns3:hr>
            <ns3:cad>57</ns3:cad>
          </ns3:TrackPointExtension>
        </extensions>
      </trkpt>
      <trkpt lat="45.25671615265309810638427734375" lon="-71.14847640506923198699951171875">
        <ele>635</ele>
        <time>2026-08-22T03:15:39.000Z</time>
        <extensions>
          <ns3:TrackPointExtension>
            <ns3:hr>130</ns3:hr>
            <ns3:cad>57</ns3:cad>
          </ns3:TrackPointExtension>
        </extensions>
      </trkpt>
      <trkpt lat="45.25672906078398227691650390625" lon="-71.14849166013300418853759765625">
        <ele>634.79998779296875</ele>
        <time>2026-08-22T03:15:40.000Z</time>
        <extensions>
          <ns3:TrackPointExtension>
            <ns3:hr>130</ns3:hr>
            <ns3:cad>63</ns3:cad>
          </ns3:TrackPointExtension>
        </extensions>
      </trkpt>
      <trkpt lat="45.25674046017229557037353515625" lon="-71.14850339479744434356689453125">
        <ele>634.5999755859375</ele>
        <time>2026-08-22T03:15:41.000Z</time>
        <extensions>
          <ns3:TrackPointExtension>
            <ns3:hr>130</ns3:hr>
            <ns3:cad>63</ns3:cad>
          </ns3:TrackPointExtension>
        </extensions>
      </trkpt>
      <trkpt lat="45.25675051845610141754150390625" lon="-71.1485091783106327056884765625">
        <ele>634.5999755859375</ele>
        <time>2026-08-22T03:15:42.000Z</time>
        <extensions>
          <ns3:TrackPointExtension>
            <ns3:hr>131</ns3:hr>
            <ns3:cad>63</ns3:cad>
          </ns3:TrackPointExtension>
        </extensions>
      </trkpt>
      <trkpt lat="45.2567611634731292724609375" lon="-71.148516051471233367919921875">
        <ele>634.4000244140625</ele>
        <time>2026-08-22T03:15:43.000Z</time>
        <extensions>
          <ns3:TrackPointExtension>
            <ns3:hr>131</ns3:hr>
            <ns3:cad>0</ns3:cad>
          </ns3:TrackPointExtension>
        </extensions>
      </trkpt>
      <trkpt lat="45.25677834637463092803955078125" lon="-71.148528121411800384521484375">
        <ele>634.20001220703125</ele>
        <time>2026-08-22T03:15:44.000Z</time>
        <extensions>
          <ns3:TrackPointExtension>
            <ns3:hr>131</ns3:hr>
            <ns3:cad>0</ns3:cad>
          </ns3:TrackPointExtension>
        </extensions>
      </trkpt>
      <trkpt lat="45.25679527781903743743896484375" lon="-71.14853759296238422393798828125">
        <ele>633.79998779296875</ele>
        <time>2026-08-22T03:15:45.000Z</time>
        <extensions>
          <ns3:TrackPointExtension>
            <ns3:hr>131</ns3:hr>
            <ns3:cad>0</ns3:cad>
          </ns3:TrackPointExtension>
        </extensions>
      </trkpt>
      <trkpt lat="45.25680935941636562347412109375" lon="-71.1485433764755725860595703125">
        <ele>633.5999755859375</ele>
        <time>2026-08-22T03:15:46.000Z</time>
        <extensions>
          <ns3:TrackPointExtension>
            <ns3:hr>132</ns3:hr>
            <ns3:cad>0</ns3:cad>
          </ns3:TrackPointExtension>
        </extensions>
      </trkpt>
      <trkpt lat="45.2568236924707889556884765625" lon="-71.148548237979412078857421875">
        <ele>633.20001220703125</ele>
        <time>2026-08-22T03:15:47.000Z</time>
        <extensions>
          <ns3:TrackPointExtension>
            <ns3:hr>131</ns3:hr>
            <ns3:cad>0</ns3:cad>
          </ns3:TrackPointExtension>
        </extensions>
      </trkpt>
      <trkpt lat="45.2568431384861469268798828125" lon="-71.14855326712131500244140625">
        <ele>632.79998779296875</ele>
        <time>2026-08-22T03:15:48.000Z</time>
        <extensions>
          <ns3:TrackPointExtension>
            <ns3:hr>131</ns3:hr>
            <ns3:cad>0</ns3:cad>
          </ns3:TrackPointExtension>
        </extensions>
      </trkpt>
      <trkpt lat="45.25685445405542850494384765625" lon="-71.14855586551129817962646484375">
        <ele>632.4000244140625</ele>
        <time>2026-08-22T03:15:49.000Z</time>
        <extensions>
          <ns3:TrackPointExtension>
            <ns3:hr>130</ns3:hr>
            <ns3:cad>0</ns3:cad>
          </ns3:TrackPointExtension>
        </extensions>
      </trkpt>
      <trkpt lat="45.25686350651085376739501953125" lon="-71.14855838008224964141845703125">
        <ele>632.20001220703125</ele>
        <time>2026-08-22T03:15:50.000Z</time>
        <extensions>
          <ns3:TrackPointExtension>
            <ns3:hr>130</ns3:hr>
            <ns3:cad>79</ns3:cad>
          </ns3:TrackPointExtension>
        </extensions>
      </trkpt>
      <trkpt lat="45.2568749897181987762451171875" lon="-71.14856525324285030364990234375">
        <ele>632</ele>
        <time>2026-08-22T03:15:51.000Z</time>
        <extensions>
          <ns3:TrackPointExtension>
            <ns3:hr>129</ns3:hr>
            <ns3:cad>79</ns3:cad>
          </ns3:TrackPointExtension>
        </extensions>
      </trkpt>
      <trkpt lat="45.2568904124200344085693359375" lon="-71.1485742218792438507080078125">
        <ele>631.79998779296875</ele>
        <time>2026-08-22T03:15:52.000Z</time>
        <extensions>
          <ns3:TrackPointExtension>
            <ns3:hr>128</ns3:hr>
            <ns3:cad>79</ns3:cad>
          </ns3:TrackPointExtension>
        </extensions>
      </trkpt>
      <trkpt lat="45.25690399110317230224609375" lon="-71.1485775746405124664306640625">
        <ele>631.79998779296875</ele>
        <time>2026-08-22T03:15:53.000Z</time>
        <extensions>
          <ns3:TrackPointExtension>
            <ns3:hr>127</ns3:hr>
            <ns3:cad>79</ns3:cad>
          </ns3:TrackPointExtension>
        </extensions>
      </trkpt>
      <trkpt lat="45.25692318566143512725830078125" lon="-71.14857799373567104339599609375">
        <ele>631.5999755859375</ele>
        <time>2026-08-22T03:15:54.000Z</time>
        <extensions>
          <ns3:TrackPointExtension>
            <ns3:hr>126</ns3:hr>
            <ns3:cad>79</ns3:cad>
          </ns3:TrackPointExtension>
        </extensions>
      </trkpt>
      <trkpt lat="45.25693894363939762115478515625" lon="-71.1485819332301616668701171875">
        <ele>631.4000244140625</ele>
        <time>2026-08-22T03:15:55.000Z</time>
        <extensions>
          <ns3:TrackPointExtension>
            <ns3:hr>127</ns3:hr>
            <ns3:cad>79</ns3:cad>
          </ns3:TrackPointExtension>
        </extensions>
      </trkpt>
      <trkpt lat="45.2569544501602649688720703125" lon="-71.14858620800077915191650390625">
        <ele>631.20001220703125</ele>
        <time>2026-08-22T03:15:56.000Z</time>
        <extensions>
          <ns3:TrackPointExtension>
            <ns3:hr>127</ns3:hr>
            <ns3:cad>79</ns3:cad>
          </ns3:TrackPointExtension>
        </extensions>
      </trkpt>
      <trkpt lat="45.25697230361402034759521484375" lon="-71.1485916562378406524658203125">
        <ele>631</ele>
        <time>2026-08-22T03:15:57.000Z</time>
        <extensions>
          <ns3:TrackPointExtension>
            <ns3:hr>127</ns3:hr>
            <ns3:cad>79</ns3:cad>
          </ns3:TrackPointExtension>
        </extensions>
      </trkpt>
      <trkpt lat="45.2569930069148540496826171875" lon="-71.14858905784785747528076171875">
        <ele>630.79998779296875</ele>
        <time>2026-08-22T03:15:58.000Z</time>
        <extensions>
          <ns3:TrackPointExtension>
            <ns3:hr>127</ns3:hr>
            <ns3:cad>79</ns3:cad>
          </ns3:TrackPointExtension>
        </extensions>
      </trkpt>
      <trkpt lat="45.25701664388179779052734375" lon="-71.14857883192598819732666015625">
        <ele>630.5999755859375</ele>
        <time>2026-08-22T03:15:59.000Z</time>
        <extensions>
          <ns3:TrackPointExtension>
            <ns3:hr>126</ns3:hr>
            <ns3:cad>79</ns3:cad>
          </ns3:TrackPointExtension>
        </extensions>
      </trkpt>
      <trkpt lat="45.25703282095491886138916015625" lon="-71.148567683994770050048828125">
        <ele>630.4000244140625</ele>
        <time>2026-08-22T03:16:00.000Z</time>
        <extensions>
          <ns3:TrackPointExtension>
            <ns3:hr>126</ns3:hr>
            <ns3:cad>79</ns3:cad>
          </ns3:TrackPointExtension>
        </extensions>
      </trkpt>
      <trkpt lat="45.2570546977221965789794921875" lon="-71.1485512554645538330078125">
        <ele>630</ele>
        <time>2026-08-22T03:16:01.000Z</time>
        <extensions>
          <ns3:TrackPointExtension>
            <ns3:hr>126</ns3:hr>
            <ns3:cad>75</ns3:cad>
          </ns3:TrackPointExtension>
        </extensions>
      </trkpt>
      <trkpt lat="45.25707297027111053466796875" lon="-71.14854119718074798583984375">
        <ele>629.79998779296875</ele>
        <time>2026-08-22T03:16:02.000Z</time>
        <extensions>
          <ns3:TrackPointExtension>
            <ns3:hr>127</ns3:hr>
            <ns3:cad>75</ns3:cad>
          </ns3:TrackPointExtension>
        </extensions>
      </trkpt>
      <trkpt lat="45.25709099136292934417724609375" lon="-71.14853977225720882415771484375">
        <ele>629.4000244140625</ele>
        <time>2026-08-22T03:16:03.000Z</time>
        <extensions>
          <ns3:TrackPointExtension>
            <ns3:hr>126</ns3:hr>
            <ns3:cad>75</ns3:cad>
          </ns3:TrackPointExtension>
        </extensions>
      </trkpt>
      <trkpt lat="45.2571096830070018768310546875" lon="-71.1485373415052890777587890625">
        <ele>629.20001220703125</ele>
        <time>2026-08-22T03:16:04.000Z</time>
        <extensions>
          <ns3:TrackPointExtension>
            <ns3:hr>126</ns3:hr>
            <ns3:cad>74</ns3:cad>
          </ns3:TrackPointExtension>
        </extensions>
      </trkpt>
      <trkpt lat="45.257128290832042694091796875" lon="-71.1485339887440204620361328125">
        <ele>628.79998779296875</ele>
        <time>2026-08-22T03:16:05.000Z</time>
        <extensions>
          <ns3:TrackPointExtension>
            <ns3:hr>126</ns3:hr>
            <ns3:cad>74</ns3:cad>
          </ns3:TrackPointExtension>
        </extensions>
      </trkpt>
      <trkpt lat="45.25714346207678318023681640625" lon="-71.1485271155834197998046875">
        <ele>628.79998779296875</ele>
        <time>2026-08-22T03:16:06.000Z</time>
        <extensions>
          <ns3:TrackPointExtension>
            <ns3:hr>126</ns3:hr>
            <ns3:cad>74</ns3:cad>
          </ns3:TrackPointExtension>
        </extensions>
      </trkpt>
      <trkpt lat="45.2571639977395534515380859375" lon="-71.14852376282215118408203125">
        <ele>628.5999755859375</ele>
        <time>2026-08-22T03:16:07.000Z</time>
        <extensions>
          <ns3:TrackPointExtension>
            <ns3:hr>126</ns3:hr>
            <ns3:cad>74</ns3:cad>
          </ns3:TrackPointExtension>
        </extensions>
      </trkpt>
      <trkpt lat="45.2571824379265308380126953125" lon="-71.1485246010124683380126953125">
        <ele>628.4000244140625</ele>
        <time>2026-08-22T03:16:08.000Z</time>
        <extensions>
          <ns3:TrackPointExtension>
            <ns3:hr>126</ns3:hr>
            <ns3:cad>74</ns3:cad>
          </ns3:TrackPointExtension>
        </extensions>
      </trkpt>
      <trkpt lat="45.25719928555190563201904296875" lon="-71.1485192365944385528564453125">
        <ele>628.4000244140625</ele>
        <time>2026-08-22T03:16:09.000Z</time>
        <extensions>
          <ns3:TrackPointExtension>
            <ns3:hr>125</ns3:hr>
            <ns3:cad>74</ns3:cad>
          </ns3:TrackPointExtension>
        </extensions>
      </trkpt>
      <trkpt lat="45.25721387006342411041259765625" lon="-71.14851546473801136016845703125">
        <ele>628.20001220703125</ele>
        <time>2026-08-22T03:16:10.000Z</time>
        <extensions>
          <ns3:TrackPointExtension>
            <ns3:hr>125</ns3:hr>
            <ns3:cad>74</ns3:cad>
          </ns3:TrackPointExtension>
        </extensions>
      </trkpt>
      <trkpt lat="45.2572278678417205810546875" lon="-71.1485075019299983978271484375">
        <ele>628.20001220703125</ele>
        <time>2026-08-22T03:16:11.000Z</time>
        <extensions>
          <ns3:TrackPointExtension>
            <ns3:hr>125</ns3:hr>
            <ns3:cad>74</ns3:cad>
          </ns3:TrackPointExtension>
        </extensions>
      </trkpt>
      <trkpt lat="45.2572421170771121978759765625" lon="-71.14850222133100032806396484375">
        <ele>628</ele>
        <time>2026-08-22T03:16:12.000Z</time>
        <extensions>
          <ns3:TrackPointExtension>
            <ns3:hr>125</ns3:hr>
            <ns3:cad>74</ns3:cad>
          </ns3:TrackPointExtension>
        </extensions>
      </trkpt>
      <trkpt lat="45.2572568692266941070556640625" lon="-71.14850389771163463592529296875">
        <ele>628</ele>
        <time>2026-08-22T03:16:13.000Z</time>
        <extensions>
          <ns3:TrackPointExtension>
            <ns3:hr>124</ns3:hr>
            <ns3:cad>74</ns3:cad>
          </ns3:TrackPointExtension>
        </extensions>
      </trkpt>
      <trkpt lat="45.257275141775608062744140625" lon="-71.148514710366725921630859375">
        <ele>628</ele>
        <time>2026-08-22T03:16:14.000Z</time>
        <extensions>
          <ns3:TrackPointExtension>
            <ns3:hr>123</ns3:hr>
            <ns3:cad>74</ns3:cad>
          </ns3:TrackPointExtension>
        </extensions>
      </trkpt>
      <trkpt lat="45.25729115121066570281982421875" lon="-71.14851797930896282196044921875">
        <ele>627.79998779296875</ele>
        <time>2026-08-22T03:16:15.000Z</time>
        <extensions>
          <ns3:TrackPointExtension>
            <ns3:hr>122</ns3:hr>
            <ns3:cad>74</ns3:cad>
          </ns3:TrackPointExtension>
        </extensions>
      </trkpt>
      <trkpt lat="45.25730841793119907379150390625" lon="-71.14851864986121654510498046875">
        <ele>627.5999755859375</ele>
        <time>2026-08-22T03:16:16.000Z</time>
        <extensions>
          <ns3:TrackPointExtension>
            <ns3:hr>122</ns3:hr>
            <ns3:cad>0</ns3:cad>
          </ns3:TrackPointExtension>
        </extensions>
      </trkpt>
      <trkpt lat="45.25731612928211688995361328125" lon="-71.14852066151797771453857421875">
        <ele>627.5999755859375</ele>
        <time>2026-08-22T03:16:17.000Z</time>
        <extensions>
          <ns3:TrackPointExtension>
            <ns3:hr>121</ns3:hr>
            <ns3:cad>0</ns3:cad>
          </ns3:TrackPointExtension>
        </extensions>
      </trkpt>
      <trkpt lat="45.2573262713849544525146484375" lon="-71.14852686412632465362548828125">
        <ele>627.4000244140625</ele>
        <time>2026-08-22T03:16:18.000Z</time>
        <extensions>
          <ns3:TrackPointExtension>
            <ns3:hr>121</ns3:hr>
            <ns3:cad>0</ns3:cad>
          </ns3:TrackPointExtension>
        </extensions>
      </trkpt>
      <trkpt lat="45.2573383413255214691162109375" lon="-71.148536503314971923828125">
        <ele>627.4000244140625</ele>
        <time>2026-08-22T03:16:19.000Z</time>
        <extensions>
          <ns3:TrackPointExtension>
            <ns3:hr>120</ns3:hr>
            <ns3:cad>59</ns3:cad>
          </ns3:TrackPointExtension>
        </extensions>
      </trkpt>
      <trkpt lat="45.2573504112660884857177734375" lon="-71.14854111336171627044677734375">
        <ele>627.20001220703125</ele>
        <time>2026-08-22T03:16:20.000Z</time>
        <extensions>
          <ns3:TrackPointExtension>
            <ns3:hr>120</ns3:hr>
            <ns3:cad>59</ns3:cad>
          </ns3:TrackPointExtension>
        </extensions>
      </trkpt>
      <trkpt lat="45.2573621459305286407470703125" lon="-71.14854329265654087066650390625">
        <ele>627.20001220703125</ele>
        <time>2026-08-22T03:16:21.000Z</time>
        <extensions>
          <ns3:TrackPointExtension>
            <ns3:hr>119</ns3:hr>
            <ns3:cad>57</ns3:cad>
          </ns3:TrackPointExtension>
        </extensions>
      </trkpt>
      <trkpt lat="45.2573705278337001800537109375" lon="-71.1485460586845874786376953125">
        <ele>627</ele>
        <time>2026-08-22T03:16:22.000Z</time>
        <extensions>
          <ns3:TrackPointExtension>
            <ns3:hr>119</ns3:hr>
            <ns3:cad>57</ns3:cad>
          </ns3:TrackPointExtension>
        </extensions>
      </trkpt>
      <trkpt lat="45.2573825977742671966552734375" lon="-71.14855871535837650299072265625">
        <ele>627</ele>
        <time>2026-08-22T03:16:23.000Z</time>
        <extensions>
          <ns3:TrackPointExtension>
            <ns3:hr>119</ns3:hr>
            <ns3:cad>57</ns3:cad>
          </ns3:TrackPointExtension>
        </extensions>
      </trkpt>
      <trkpt lat="45.25739491917192935943603515625" lon="-71.14857137203216552734375">
        <ele>626.79998779296875</ele>
        <time>2026-08-22T03:16:24.000Z</time>
        <extensions>
          <ns3:TrackPointExtension>
            <ns3:hr>119</ns3:hr>
            <ns3:cad>57</ns3:cad>
          </ns3:TrackPointExtension>
        </extensions>
      </trkpt>
      <trkpt lat="45.2574040554463863372802734375" lon="-71.1485762335360050201416015625">
        <ele>626.79998779296875</ele>
        <time>2026-08-22T03:16:25.000Z</time>
        <extensions>
          <ns3:TrackPointExtension>
            <ns3:hr>119</ns3:hr>
            <ns3:cad>57</ns3:cad>
          </ns3:TrackPointExtension>
        </extensions>
      </trkpt>
      <trkpt lat="45.25741570629179477691650390625" lon="-71.14857866428792476654052734375">
        <ele>626.79998779296875</ele>
        <time>2026-08-22T03:16:26.000Z</time>
        <extensions>
          <ns3:TrackPointExtension>
            <ns3:hr>119</ns3:hr>
            <ns3:cad>57</ns3:cad>
          </ns3:TrackPointExtension>
        </extensions>
      </trkpt>
      <trkpt lat="45.25742593221366405487060546875" lon="-71.14858134649693965911865234375">
        <ele>626.5999755859375</ele>
        <time>2026-08-22T03:16:27.000Z</time>
        <extensions>
          <ns3:TrackPointExtension>
            <ns3:hr>119</ns3:hr>
            <ns3:cad>57</ns3:cad>
          </ns3:TrackPointExtension>
        </extensions>
      </trkpt>
      <trkpt lat="45.25743431411683559417724609375" lon="-71.14858285523951053619384765625">
        <ele>626.5999755859375</ele>
        <time>2026-08-22T03:16:28.000Z</time>
        <extensions>
          <ns3:TrackPointExtension>
            <ns3:hr>120</ns3:hr>
            <ns3:cad>61</ns3:cad>
          </ns3:TrackPointExtension>
        </extensions>
      </trkpt>
      <trkpt lat="45.25744537822902202606201171875" lon="-71.14859006367623805999755859375">
        <ele>626.4000244140625</ele>
        <time>2026-08-22T03:16:29.000Z</time>
        <extensions>
          <ns3:TrackPointExtension>
            <ns3:hr>119</ns3:hr>
            <ns3:cad>61</ns3:cad>
          </ns3:TrackPointExtension>
        </extensions>
      </trkpt>
      <trkpt lat="45.2574519999325275421142578125" lon="-71.1485923267900943756103515625">
        <ele>626.4000244140625</ele>
        <time>2026-08-22T03:16:30.000Z</time>
        <extensions>
          <ns3:TrackPointExtension>
            <ns3:hr>119</ns3:hr>
            <ns3:cad>62</ns3:cad>
          </ns3:TrackPointExtension>
        </extensions>
      </trkpt>
      <trkpt lat="45.2574600465595722198486328125" lon="-71.14858922548592090606689453125">
        <ele>626.20001220703125</ele>
        <time>2026-08-22T03:16:31.000Z</time>
        <extensions>
          <ns3:TrackPointExtension>
            <ns3:hr>119</ns3:hr>
            <ns3:cad>62</ns3:cad>
          </ns3:TrackPointExtension>
        </extensions>
      </trkpt>
      <trkpt lat="45.25746599771082401275634765625" lon="-71.1485950089991092681884765625">
        <ele>626.20001220703125</ele>
        <time>2026-08-22T03:16:32.000Z</time>
        <extensions>
          <ns3:TrackPointExtension>
            <ns3:hr>119</ns3:hr>
            <ns3:cad>62</ns3:cad>
          </ns3:TrackPointExtension>
        </extensions>
      </trkpt>
      <trkpt lat="45.25747404433786869049072265625" lon="-71.14859978668391704559326171875">
        <ele>626.20001220703125</ele>
        <time>2026-08-22T03:16:33.000Z</time>
        <extensions>
          <ns3:TrackPointExtension>
            <ns3:hr>119</ns3:hr>
            <ns3:cad>60</ns3:cad>
          </ns3:TrackPointExtension>
        </extensions>
      </trkpt>
      <trkpt lat="45.2574821747839450836181640625" lon="-71.14860422909259796142578125">
        <ele>626.4000244140625</ele>
        <time>2026-08-22T03:16:34.000Z</time>
        <extensions>
          <ns3:TrackPointExtension>
            <ns3:hr>119</ns3:hr>
            <ns3:cad>60</ns3:cad>
          </ns3:TrackPointExtension>
        </extensions>
      </trkpt>
      <trkpt lat="45.2574908919632434844970703125" lon="-71.14860431291162967681884765625">
        <ele>626.4000244140625</ele>
        <time>2026-08-22T03:16:35.000Z</time>
        <extensions>
          <ns3:TrackPointExtension>
            <ns3:hr>118</ns3:hr>
            <ns3:cad>60</ns3:cad>
          </ns3:TrackPointExtension>
        </extensions>
      </trkpt>
      <trkpt lat="45.2574999444186687469482421875" lon="-71.14860557019710540771484375">
        <ele>626.4000244140625</ele>
        <time>2026-08-22T03:16:36.000Z</time>
        <extensions>
          <ns3:TrackPointExtension>
            <ns3:hr>118</ns3:hr>
            <ns3:cad>60</ns3:cad>
          </ns3:TrackPointExtension>
        </extensions>
      </trkpt>
      <trkpt lat="45.2575121819972991943359375" lon="-71.14860766567289829254150390625">
        <ele>626.4000244140625</ele>
        <time>2026-08-22T03:16:37.000Z</time>
        <extensions>
          <ns3:TrackPointExtension>
            <ns3:hr>117</ns3:hr>
            <ns3:cad>60</ns3:cad>
          </ns3:TrackPointExtension>
        </extensions>
      </trkpt>
      <trkpt lat="45.25752718560397624969482421875" lon="-71.14860665984451770782470703125">
        <ele>626.20001220703125</ele>
        <time>2026-08-22T03:16:38.000Z</time>
        <extensions>
          <ns3:TrackPointExtension>
            <ns3:hr>115</ns3:hr>
            <ns3:cad>60</ns3:cad>
          </ns3:TrackPointExtension>
        </extensions>
      </trkpt>
      <trkpt lat="45.2575415186583995819091796875" lon="-71.14860557019710540771484375">
        <ele>626.20001220703125</ele>
        <time>2026-08-22T03:16:39.000Z</time>
        <extensions>
          <ns3:TrackPointExtension>
            <ns3:hr>114</ns3:hr>
            <ns3:cad>60</ns3:cad>
          </ns3:TrackPointExtension>
        </extensions>
      </trkpt>
      <trkpt lat="45.25755300186574459075927734375" lon="-71.14860330708324909210205078125">
        <ele>626</ele>
        <time>2026-08-22T03:16:40.000Z</time>
        <extensions>
          <ns3:TrackPointExtension>
            <ns3:hr>113</ns3:hr>
            <ns3:cad>56</ns3:cad>
          </ns3:TrackPointExtension>
        </extensions>
      </trkpt>
      <trkpt lat="45.25756607763469219207763671875" lon="-71.148601211607456207275390625">
        <ele>626</ele>
        <time>2026-08-22T03:16:41.000Z</time>
        <extensions>
          <ns3:TrackPointExtension>
            <ns3:hr>113</ns3:hr>
            <ns3:cad>56</ns3:cad>
          </ns3:TrackPointExtension>
        </extensions>
      </trkpt>
      <trkpt lat="45.25757563300430774688720703125" lon="-71.14860045723617076873779296875">
        <ele>626</ele>
        <time>2026-08-22T03:16:42.000Z</time>
        <extensions>
          <ns3:TrackPointExtension>
            <ns3:hr>113</ns3:hr>
            <ns3:cad>56</ns3:cad>
          </ns3:TrackPointExtension>
        </extensions>
      </trkpt>
      <trkpt lat="45.25758921168744564056396484375" lon="-71.1485950089991092681884765625">
        <ele>625.79998779296875</ele>
        <time>2026-08-22T03:16:43.000Z</time>
        <extensions>
          <ns3:TrackPointExtension>
            <ns3:hr>113</ns3:hr>
            <ns3:cad>56</ns3:cad>
          </ns3:TrackPointExtension>
        </extensions>
      </trkpt>
      <trkpt lat="45.25760279037058353424072265625" lon="-71.1485859565436840057373046875">
        <ele>625.79998779296875</ele>
        <time>2026-08-22T03:16:44.000Z</time>
        <extensions>
          <ns3:TrackPointExtension>
            <ns3:hr>114</ns3:hr>
            <ns3:cad>56</ns3:cad>
          </ns3:TrackPointExtension>
        </extensions>
      </trkpt>
      <trkpt lat="45.2576129324734210968017578125" lon="-71.14858050830662250518798828125">
        <ele>626</ele>
        <time>2026-08-22T03:16:45.000Z</time>
        <extensions>
          <ns3:TrackPointExtension>
            <ns3:hr>114</ns3:hr>
            <ns3:cad>56</ns3:cad>
          </ns3:TrackPointExtension>
        </extensions>
      </trkpt>
      <trkpt lat="45.25762391276657581329345703125" lon="-71.14857145585119724273681640625">
        <ele>626</ele>
        <time>2026-08-22T03:16:46.000Z</time>
        <extensions>
          <ns3:TrackPointExtension>
            <ns3:hr>114</ns3:hr>
            <ns3:cad>56</ns3:cad>
          </ns3:TrackPointExtension>
        </extensions>
      </trkpt>
      <trkpt lat="45.25763447396457195281982421875" lon="-71.14856190048158168792724609375">
        <ele>626.20001220703125</ele>
        <time>2026-08-22T03:16:47.000Z</time>
        <extensions>
          <ns3:TrackPointExtension>
            <ns3:hr>114</ns3:hr>
            <ns3:cad>56</ns3:cad>
          </ns3:TrackPointExtension>
        </extensions>
      </trkpt>
      <trkpt lat="45.2576464600861072540283203125" lon="-71.148555278778076171875">
        <ele>626.20001220703125</ele>
        <time>2026-08-22T03:16:48.000Z</time>
        <extensions>
          <ns3:TrackPointExtension>
            <ns3:hr>113</ns3:hr>
            <ns3:cad>55</ns3:cad>
          </ns3:TrackPointExtension>
        </extensions>
      </trkpt>
      <trkpt lat="45.25765769183635711669921875" lon="-71.14855594933032989501953125">
        <ele>626.20001220703125</ele>
        <time>2026-08-22T03:16:49.000Z</time>
        <extensions>
          <ns3:TrackPointExtension>
            <ns3:hr>114</ns3:hr>
            <ns3:cad>55</ns3:cad>
          </ns3:TrackPointExtension>
        </extensions>
      </trkpt>
      <trkpt lat="45.25766632519662380218505859375" lon="-71.14856374450027942657470703125">
        <ele>626</ele>
        <time>2026-08-22T03:16:50.000Z</time>
        <extensions>
          <ns3:TrackPointExtension>
            <ns3:hr>114</ns3:hr>
            <ns3:cad>55</ns3:cad>
          </ns3:TrackPointExtension>
        </extensions>
      </trkpt>
      <trkpt lat="45.25767655111849308013916015625" lon="-71.1485673487186431884765625">
        <ele>625.79998779296875</ele>
        <time>2026-08-22T03:16:51.000Z</time>
        <extensions>
          <ns3:TrackPointExtension>
            <ns3:hr>114</ns3:hr>
            <ns3:cad>55</ns3:cad>
          </ns3:TrackPointExtension>
        </extensions>
      </trkpt>
      <trkpt lat="45.25768560357391834259033203125" lon="-71.14856324158608913421630859375">
        <ele>625.5999755859375</ele>
        <time>2026-08-22T03:16:52.000Z</time>
        <extensions>
          <ns3:TrackPointExtension>
            <ns3:hr>115</ns3:hr>
            <ns3:cad>54</ns3:cad>
          </ns3:TrackPointExtension>
        </extensions>
      </trkpt>
      <trkpt lat="45.25769331492483615875244140625" lon="-71.1485598050057888031005859375">
        <ele>625.5999755859375</ele>
        <time>2026-08-22T03:16:53.000Z</time>
        <extensions>
          <ns3:TrackPointExtension>
            <ns3:hr>114</ns3:hr>
            <ns3:cad>54</ns3:cad>
          </ns3:TrackPointExtension>
        </extensions>
      </trkpt>
      <trkpt lat="45.25770203210413455963134765625" lon="-71.1485577933490276336669921875">
        <ele>625.5999755859375</ele>
        <time>2026-08-22T03:16:54.000Z</time>
        <extensions>
          <ns3:TrackPointExtension>
            <ns3:hr>114</ns3:hr>
            <ns3:cad>56</ns3:cad>
          </ns3:TrackPointExtension>
        </extensions>
      </trkpt>
      <trkpt lat="45.257703624665737152099609375" lon="-71.14856005646288394927978515625">
        <ele>625.5999755859375</ele>
        <time>2026-08-22T03:16:55.000Z</time>
        <extensions>
          <ns3:TrackPointExtension>
            <ns3:hr>114</ns3:hr>
            <ns3:cad>56</ns3:cad>
          </ns3:TrackPointExtension>
        </extensions>
      </trkpt>
      <trkpt lat="45.25770722888410091400146484375" lon="-71.14856265485286712646484375">
        <ele>625.79998779296875</ele>
        <time>2026-08-22T03:16:56.000Z</time>
        <extensions>
          <ns3:TrackPointExtension>
            <ns3:hr>114</ns3:hr>
            <ns3:cad>56</ns3:cad>
          </ns3:TrackPointExtension>
        </extensions>
      </trkpt>
      <trkpt lat="45.25771242566406726837158203125" lon="-71.14856558851897716522216796875">
        <ele>625.79998779296875</ele>
        <time>2026-08-22T03:16:57.000Z</time>
        <extensions>
          <ns3:TrackPointExtension>
            <ns3:hr>115</ns3:hr>
            <ns3:cad>0</ns3:cad>
          </ns3:TrackPointExtension>
        </extensions>
      </trkpt>
      <trkpt lat="45.257725417613983154296875" lon="-71.14857011474668979644775390625">
        <ele>625.5999755859375</ele>
        <time>2026-08-22T03:16:58.000Z</time>
        <extensions>
          <ns3:TrackPointExtension>
            <ns3:hr>114</ns3:hr>
            <ns3:cad>0</ns3:cad>
          </ns3:TrackPointExtension>
        </extensions>
      </trkpt>
      <trkpt lat="45.2577401697635650634765625" lon="-71.14857799373567104339599609375">
        <ele>625.4000244140625</ele>
        <time>2026-08-22T03:16:59.000Z</time>
        <extensions>
          <ns3:TrackPointExtension>
            <ns3:hr>114</ns3:hr>
            <ns3:cad>0</ns3:cad>
          </ns3:TrackPointExtension>
        </extensions>
      </trkpt>
      <trkpt lat="45.25775601156055927276611328125" lon="-71.14859039895236492156982421875">
        <ele>625.20001220703125</ele>
        <time>2026-08-22T03:17:00.000Z</time>
        <extensions>
          <ns3:TrackPointExtension>
            <ns3:hr>114</ns3:hr>
            <ns3:cad>0</ns3:cad>
          </ns3:TrackPointExtension>
        </extensions>
      </trkpt>
      <trkpt lat="45.25777059607207775115966796875" lon="-71.14860263653099536895751953125">
        <ele>624.79998779296875</ele>
        <time>2026-08-22T03:17:01.000Z</time>
        <extensions>
          <ns3:TrackPointExtension>
            <ns3:hr>114</ns3:hr>
            <ns3:cad>0</ns3:cad>
          </ns3:TrackPointExtension>
        </extensions>
      </trkpt>
      <trkpt lat="45.25778383947908878326416015625" lon="-71.14861001260578632354736328125">
        <ele>624.5999755859375</ele>
        <time>2026-08-22T03:17:02.000Z</time>
        <extensions>
          <ns3:TrackPointExtension>
            <ns3:hr>114</ns3:hr>
            <ns3:cad>0</ns3:cad>
          </ns3:TrackPointExtension>
        </extensions>
      </trkpt>
      <trkpt lat="45.25779540650546550750732421875" lon="-71.14861772395670413970947265625">
        <ele>624.5999755859375</ele>
        <time>2026-08-22T03:17:03.000Z</time>
        <extensions>
          <ns3:TrackPointExtension>
            <ns3:hr>114</ns3:hr>
            <ns3:cad>0</ns3:cad>
          </ns3:TrackPointExtension>
        </extensions>
      </trkpt>
      <trkpt lat="45.25780630297958850860595703125" lon="-71.1486298777163028717041015625">
        <ele>624.5999755859375</ele>
        <time>2026-08-22T03:17:04.000Z</time>
        <extensions>
          <ns3:TrackPointExtension>
            <ns3:hr>114</ns3:hr>
            <ns3:cad>61</ns3:cad>
          </ns3:TrackPointExtension>
        </extensions>
      </trkpt>
      <trkpt lat="45.2578167803585529327392578125" lon="-71.1486396007239818572998046875">
        <ele>624.79998779296875</ele>
        <time>2026-08-22T03:17:05.000Z</time>
        <extensions>
          <ns3:TrackPointExtension>
            <ns3:hr>113</ns3:hr>
            <ns3:cad>61</ns3:cad>
          </ns3:TrackPointExtension>
        </extensions>
      </trkpt>
      <trkpt lat="45.25783295743167400360107421875" lon="-71.14865343086421489715576171875">
        <ele>624.79998779296875</ele>
        <time>2026-08-22T03:17:06.000Z</time>
        <extensions>
          <ns3:TrackPointExtension>
            <ns3:hr>113</ns3:hr>
            <ns3:cad>61</ns3:cad>
          </ns3:TrackPointExtension>
        </extensions>
      </trkpt>
      <trkpt lat="45.257843434810638427734375" lon="-71.1486687697470188140869140625">
        <ele>624.79998779296875</ele>
        <time>2026-08-22T03:17:07.000Z</time>
        <extensions>
          <ns3:TrackPointExtension>
            <ns3:hr>114</ns3:hr>
            <ns3:cad>61</ns3:cad>
          </ns3:TrackPointExtension>
        </extensions>
      </trkpt>
      <trkpt lat="45.25785575620830059051513671875" lon="-71.14868444390594959259033203125">
        <ele>624.5999755859375</ele>
        <time>2026-08-22T03:17:08.000Z</time>
        <extensions>
          <ns3:TrackPointExtension>
            <ns3:hr>115</ns3:hr>
            <ns3:cad>61</ns3:cad>
          </ns3:TrackPointExtension>
        </extensions>
      </trkpt>
      <trkpt lat="45.25786715559661388397216796875" lon="-71.14869953133165836334228515625">
        <ele>624.4000244140625</ele>
        <time>2026-08-22T03:17:09.000Z</time>
        <extensions>
          <ns3:TrackPointExtension>
            <ns3:hr>115</ns3:hr>
            <ns3:cad>53</ns3:cad>
          </ns3:TrackPointExtension>
        </extensions>
      </trkpt>
      <trkpt lat="45.2578791417181491851806640625" lon="-71.14871411584317684173583984375">
        <ele>624.20001220703125</ele>
        <time>2026-08-22T03:17:10.000Z</time>
        <extensions>
          <ns3:TrackPointExtension>
            <ns3:hr>116</ns3:hr>
            <ns3:cad>53</ns3:cad>
          </ns3:TrackPointExtension>
        </extensions>
      </trkpt>
      <trkpt lat="45.25789028964936733245849609375" lon="-71.14872065372765064239501953125">
        <ele>624.20001220703125</ele>
        <time>2026-08-22T03:17:11.000Z</time>
        <extensions>
          <ns3:TrackPointExtension>
            <ns3:hr>116</ns3:hr>
            <ns3:cad>75</ns3:cad>
          </ns3:TrackPointExtension>
        </extensions>
      </trkpt>
      <trkpt lat="45.25790185667574405670166015625" lon="-71.1487324722111225128173828125">
        <ele>624</ele>
        <time>2026-08-22T03:17:12.000Z</time>
        <extensions>
          <ns3:TrackPointExtension>
            <ns3:hr>116</ns3:hr>
            <ns3:cad>75</ns3:cad>
          </ns3:TrackPointExtension>
        </extensions>
      </trkpt>
      <trkpt lat="45.257912836968898773193359375" lon="-71.14874412305653095245361328125">
        <ele>624</ele>
        <time>2026-08-22T03:17:13.000Z</time>
        <extensions>
          <ns3:TrackPointExtension>
            <ns3:hr>116</ns3:hr>
            <ns3:cad>75</ns3:cad>
          </ns3:TrackPointExtension>
        </extensions>
      </trkpt>
      <trkpt lat="45.2579250745475292205810546875" lon="-71.14875401370227336883544921875">
        <ele>624</ele>
        <time>2026-08-22T03:17:14.000Z</time>
        <extensions>
          <ns3:TrackPointExtension>
            <ns3:hr>117</ns3:hr>
            <ns3:cad>75</ns3:cad>
          </ns3:TrackPointExtension>
        </extensions>
      </trkpt>
      <trkpt lat="45.257936976850032806396484375" lon="-71.14876574836671352386474609375">
        <ele>624</ele>
        <time>2026-08-22T03:17:15.000Z</time>
        <extensions>
          <ns3:TrackPointExtension>
            <ns3:hr>117</ns3:hr>
            <ns3:cad>75</ns3:cad>
          </ns3:TrackPointExtension>
        </extensions>
      </trkpt>
      <trkpt lat="45.25794695131480693817138671875" lon="-71.148777902126312255859375">
        <ele>624</ele>
        <time>2026-08-22T03:17:16.000Z</time>
        <extensions>
          <ns3:TrackPointExtension>
            <ns3:hr>117</ns3:hr>
            <ns3:cad>64</ns3:cad>
          </ns3:TrackPointExtension>
        </extensions>
      </trkpt>
      <trkpt lat="45.25795751251280307769775390625" lon="-71.1487901397049427032470703125">
        <ele>624.20001220703125</ele>
        <time>2026-08-22T03:17:17.000Z</time>
        <extensions>
          <ns3:TrackPointExtension>
            <ns3:hr>117</ns3:hr>
            <ns3:cad>64</ns3:cad>
          </ns3:TrackPointExtension>
        </extensions>
      </trkpt>
      <trkpt lat="45.257965810596942901611328125" lon="-71.148799024522304534912109375">
        <ele>624.20001220703125</ele>
        <time>2026-08-22T03:17:18.000Z</time>
        <extensions>
          <ns3:TrackPointExtension>
            <ns3:hr>117</ns3:hr>
            <ns3:cad>57</ns3:cad>
          </ns3:TrackPointExtension>
        </extensions>
      </trkpt>
      <trkpt lat="45.257971845567226409912109375" lon="-71.14881151355803012847900390625">
        <ele>624.20001220703125</ele>
        <time>2026-08-22T03:17:19.000Z</time>
        <extensions>
          <ns3:TrackPointExtension>
            <ns3:hr>118</ns3:hr>
            <ns3:cad>57</ns3:cad>
          </ns3:TrackPointExtension>
        </extensions>
      </trkpt>
      <trkpt lat="45.25797997601330280303955078125" lon="-71.14882961846888065338134765625">
        <ele>624</ele>
        <time>2026-08-22T03:17:20.000Z</time>
        <extensions>
          <ns3:TrackPointExtension>
            <ns3:hr>118</ns3:hr>
            <ns3:cad>57</ns3:cad>
          </ns3:TrackPointExtension>
        </extensions>
      </trkpt>
      <trkpt lat="45.25798802264034748077392578125" lon="-71.14884587936103343963623046875">
        <ele>624</ele>
        <time>2026-08-22T03:17:21.000Z</time>
        <extensions>
          <ns3:TrackPointExtension>
            <ns3:hr>119</ns3:hr>
            <ns3:cad>54</ns3:cad>
          </ns3:TrackPointExtension>
        </extensions>
      </trkpt>
      <trkpt lat="45.25799456052482128143310546875" lon="-71.1488568596541881561279296875">
        <ele>624</ele>
        <time>2026-08-22T03:17:22.000Z</time>
        <extensions>
          <ns3:TrackPointExtension>
            <ns3:hr>119</ns3:hr>
            <ns3:cad>54</ns3:cad>
          </ns3:TrackPointExtension>
        </extensions>
      </trkpt>
      <trkpt lat="45.258001349866390228271484375" lon="-71.14886934868991374969482421875">
        <ele>624.20001220703125</ele>
        <time>2026-08-22T03:17:23.000Z</time>
        <extensions>
          <ns3:TrackPointExtension>
            <ns3:hr>118</ns3:hr>
            <ns3:cad>54</ns3:cad>
          </ns3:TrackPointExtension>
        </extensions>
      </trkpt>
      <trkpt lat="45.25801308453083038330078125" lon="-71.14888393320143222808837890625">
        <ele>624.4000244140625</ele>
        <time>2026-08-22T03:17:24.000Z</time>
        <extensions>
          <ns3:TrackPointExtension>
            <ns3:hr>118</ns3:hr>
            <ns3:cad>54</ns3:cad>
          </ns3:TrackPointExtension>
        </extensions>
      </trkpt>
      <trkpt lat="45.2580233104526996612548828125" lon="-71.14889390766620635986328125">
        <ele>624.5999755859375</ele>
        <time>2026-08-22T03:17:25.000Z</time>
        <extensions>
          <ns3:TrackPointExtension>
            <ns3:hr>118</ns3:hr>
            <ns3:cad>59</ns3:cad>
          </ns3:TrackPointExtension>
        </extensions>
      </trkpt>
      <trkpt lat="45.25803730823099613189697265625" lon="-71.14890254102647304534912109375">
        <ele>624.79998779296875</ele>
        <time>2026-08-22T03:17:26.000Z</time>
        <extensions>
          <ns3:TrackPointExtension>
            <ns3:hr>118</ns3:hr>
            <ns3:cad>59</ns3:cad>
          </ns3:TrackPointExtension>
        </extensions>
      </trkpt>
      <trkpt lat="45.2580486238002777099609375" lon="-71.14890857599675655364990234375">
        <ele>624.79998779296875</ele>
        <time>2026-08-22T03:17:27.000Z</time>
        <extensions>
          <ns3:TrackPointExtension>
            <ns3:hr>118</ns3:hr>
            <ns3:cad>59</ns3:cad>
          </ns3:TrackPointExtension>
        </extensions>
      </trkpt>
      <trkpt lat="45.25805868208408355712890625" lon="-71.14891461096704006195068359375">
        <ele>625</ele>
        <time>2026-08-22T03:17:28.000Z</time>
        <extensions>
          <ns3:TrackPointExtension>
            <ns3:hr>118</ns3:hr>
            <ns3:cad>59</ns3:cad>
          </ns3:TrackPointExtension>
        </extensions>
      </trkpt>
      <trkpt lat="45.258069075644016265869140625" lon="-71.14892466925084590911865234375">
        <ele>624.79998779296875</ele>
        <time>2026-08-22T03:17:29.000Z</time>
        <extensions>
          <ns3:TrackPointExtension>
            <ns3:hr>118</ns3:hr>
            <ns3:cad>59</ns3:cad>
          </ns3:TrackPointExtension>
        </extensions>
      </trkpt>
      <trkpt lat="45.258076451718807220458984375" lon="-71.14894076250493526458740234375">
        <ele>624.79998779296875</ele>
        <time>2026-08-22T03:17:30.000Z</time>
        <extensions>
          <ns3:TrackPointExtension>
            <ns3:hr>118</ns3:hr>
            <ns3:cad>55</ns3:cad>
          </ns3:TrackPointExtension>
        </extensions>
      </trkpt>
      <trkpt lat="45.25808609090745449066162109375" lon="-71.1489527486264705657958984375">
        <ele>624.79998779296875</ele>
        <time>2026-08-22T03:17:31.000Z</time>
        <extensions>
          <ns3:TrackPointExtension>
            <ns3:hr>118</ns3:hr>
            <ns3:cad>59</ns3:cad>
          </ns3:TrackPointExtension>
        </extensions>
      </trkpt>
      <trkpt lat="45.25809430517256259918212890625" lon="-71.1489651538431644439697265625">
        <ele>625</ele>
        <time>2026-08-22T03:17:32.000Z</time>
        <extensions>
          <ns3:TrackPointExtension>
            <ns3:hr>118</ns3:hr>
            <ns3:cad>59</ns3:cad>
          </ns3:TrackPointExtension>
        </extensions>
      </trkpt>
      <trkpt lat="45.25810402818024158477783203125" lon="-71.14897378720343112945556640625">
        <ele>625.20001220703125</ele>
        <time>2026-08-22T03:17:33.000Z</time>
        <extensions>
          <ns3:TrackPointExtension>
            <ns3:hr>119</ns3:hr>
            <ns3:cad>59</ns3:cad>
          </ns3:TrackPointExtension>
        </extensions>
      </trkpt>
      <trkpt lat="45.25811425410211086273193359375" lon="-71.1489822529256343841552734375">
        <ele>625.4000244140625</ele>
        <time>2026-08-22T03:17:34.000Z</time>
        <extensions>
          <ns3:TrackPointExtension>
            <ns3:hr>119</ns3:hr>
            <ns3:cad>59</ns3:cad>
          </ns3:TrackPointExtension>
        </extensions>
      </trkpt>
      <trkpt lat="45.2581269107758998870849609375" lon="-71.14899222739040851593017578125">
        <ele>625.5999755859375</ele>
        <time>2026-08-22T03:17:35.000Z</time>
        <extensions>
          <ns3:TrackPointExtension>
            <ns3:hr>119</ns3:hr>
            <ns3:cad>59</ns3:cad>
          </ns3:TrackPointExtension>
        </extensions>
      </trkpt>
      <trkpt lat="45.25813780725002288818359375" lon="-71.14900295622646808624267578125">
        <ele>625.79998779296875</ele>
        <time>2026-08-22T03:17:36.000Z</time>
        <extensions>
          <ns3:TrackPointExtension>
            <ns3:hr>119</ns3:hr>
            <ns3:cad>59</ns3:cad>
          </ns3:TrackPointExtension>
        </extensions>
      </trkpt>
      <trkpt lat="45.25814912281930446624755859375" lon="-71.149016283452510833740234375">
        <ele>625.79998779296875</ele>
        <time>2026-08-22T03:17:37.000Z</time>
        <extensions>
          <ns3:TrackPointExtension>
            <ns3:hr>120</ns3:hr>
            <ns3:cad>59</ns3:cad>
          </ns3:TrackPointExtension>
        </extensions>
      </trkpt>
      <trkpt lat="45.2581604383885860443115234375" lon="-71.14902776665985584259033203125">
        <ele>626</ele>
        <time>2026-08-22T03:17:38.000Z</time>
        <extensions>
          <ns3:TrackPointExtension>
            <ns3:hr>121</ns3:hr>
            <ns3:cad>59</ns3:cad>
          </ns3:TrackPointExtension>
        </extensions>
      </trkpt>
      <trkpt lat="45.25817804038524627685546875" lon="-71.1490369029343128204345703125">
        <ele>626</ele>
        <time>2026-08-22T03:17:39.000Z</time>
        <extensions>
          <ns3:TrackPointExtension>
            <ns3:hr>122</ns3:hr>
            <ns3:cad>59</ns3:cad>
          </ns3:TrackPointExtension>
        </extensions>
      </trkpt>
      <trkpt lat="45.2581889368593692779541015625" lon="-71.14904168061912059783935546875">
        <ele>626.20001220703125</ele>
        <time>2026-08-22T03:17:40.000Z</time>
        <extensions>
          <ns3:TrackPointExtension>
            <ns3:hr>123</ns3:hr>
            <ns3:cad>59</ns3:cad>
          </ns3:TrackPointExtension>
        </extensions>
      </trkpt>
      <trkpt lat="45.25819907896220684051513671875" lon="-71.1490442790091037750244140625">
        <ele>626.20001220703125</ele>
        <time>2026-08-22T03:17:41.000Z</time>
        <extensions>
          <ns3:TrackPointExtension>
            <ns3:hr>123</ns3:hr>
            <ns3:cad>59</ns3:cad>
          </ns3:TrackPointExtension>
        </extensions>
      </trkpt>
      <trkpt lat="45.2582073770463466644287109375" lon="-71.14904939197003841400146484375">
        <ele>626.20001220703125</ele>
        <time>2026-08-22T03:17:42.000Z</time>
        <extensions>
          <ns3:TrackPointExtension>
            <ns3:hr>124</ns3:hr>
            <ns3:cad>59</ns3:cad>
          </ns3:TrackPointExtension>
        </extensions>
      </trkpt>
      <trkpt lat="45.2582187764346599578857421875" lon="-71.1490647308528423309326171875">
        <ele>626.4000244140625</ele>
        <time>2026-08-22T03:17:43.000Z</time>
        <extensions>
          <ns3:TrackPointExtension>
            <ns3:hr>125</ns3:hr>
            <ns3:cad>59</ns3:cad>
          </ns3:TrackPointExtension>
        </extensions>
      </trkpt>
      <trkpt lat="45.258226655423641204833984375" lon="-71.14907336421310901641845703125">
        <ele>626.5999755859375</ele>
        <time>2026-08-22T03:17:44.000Z</time>
        <extensions>
          <ns3:TrackPointExtension>
            <ns3:hr>125</ns3:hr>
            <ns3:cad>59</ns3:cad>
          </ns3:TrackPointExtension>
        </extensions>
      </trkpt>
      <trkpt lat="45.2582352049648761749267578125" lon="-71.1490848474204540252685546875">
        <ele>626.5999755859375</ele>
        <time>2026-08-22T03:17:45.000Z</time>
        <extensions>
          <ns3:TrackPointExtension>
            <ns3:hr>126</ns3:hr>
            <ns3:cad>52</ns3:cad>
          </ns3:TrackPointExtension>
        </extensions>
      </trkpt>
      <trkpt lat="45.25823981501162052154541015625" lon="-71.14909750409424304962158203125">
        <ele>626.79998779296875</ele>
        <time>2026-08-22T03:17:46.000Z</time>
        <extensions>
          <ns3:TrackPointExtension>
            <ns3:hr>127</ns3:hr>
            <ns3:cad>52</ns3:cad>
          </ns3:TrackPointExtension>
        </extensions>
      </trkpt>
      <trkpt lat="45.25824165903031826019287109375" lon="-71.1491118371486663818359375">
        <ele>627</ele>
        <time>2026-08-22T03:17:47.000Z</time>
        <extensions>
          <ns3:TrackPointExtension>
            <ns3:hr>127</ns3:hr>
            <ns3:cad>0</ns3:cad>
          </ns3:TrackPointExtension>
        </extensions>
      </trkpt>
      <trkpt lat="45.25824400596320629119873046875" lon="-71.1491344682872295379638671875">
        <ele>627.20001220703125</ele>
        <time>2026-08-22T03:17:48.000Z</time>
        <extensions>
          <ns3:TrackPointExtension>
            <ns3:hr>127</ns3:hr>
            <ns3:cad>0</ns3:cad>
          </ns3:TrackPointExtension>
        </extensions>
      </trkpt>
      <trkpt lat="45.25824316777288913726806640625" lon="-71.1491386592388153076171875">
        <ele>627.4000244140625</ele>
        <time>2026-08-22T03:17:49.000Z</time>
        <extensions>
          <ns3:TrackPointExtension>
            <ns3:hr>129</ns3:hr>
            <ns3:cad>0</ns3:cad>
          </ns3:TrackPointExtension>
        </extensions>
      </trkpt>
      <trkpt lat="45.25824232958257198333740234375" lon="-71.1491512320935726165771484375">
        <ele>627.5999755859375</ele>
        <time>2026-08-22T03:17:50.000Z</time>
        <extensions>
          <ns3:TrackPointExtension>
            <ns3:hr>129</ns3:hr>
            <ns3:cad>0</ns3:cad>
          </ns3:TrackPointExtension>
        </extensions>
      </trkpt>
      <trkpt lat="45.25824375450611114501953125" lon="-71.14915919490158557891845703125">
        <ele>627.79998779296875</ele>
        <time>2026-08-22T03:17:51.000Z</time>
        <extensions>
          <ns3:TrackPointExtension>
            <ns3:hr>130</ns3:hr>
            <ns3:cad>0</ns3:cad>
          </ns3:TrackPointExtension>
        </extensions>
      </trkpt>
      <trkpt lat="45.25824584998190402984619140625" lon="-71.1491753719747066497802734375">
        <ele>628</ele>
        <time>2026-08-22T03:17:52.000Z</time>
        <extensions>
          <ns3:TrackPointExtension>
            <ns3:hr>130</ns3:hr>
            <ns3:cad>0</ns3:cad>
          </ns3:TrackPointExtension>
        </extensions>
      </trkpt>
      <trkpt lat="45.258252136409282684326171875" lon="-71.1491968296468257904052734375">
        <ele>628.20001220703125</ele>
        <time>2026-08-22T03:17:53.000Z</time>
        <extensions>
          <ns3:TrackPointExtension>
            <ns3:hr>131</ns3:hr>
            <ns3:cad>0</ns3:cad>
          </ns3:TrackPointExtension>
        </extensions>
      </trkpt>
      <trkpt lat="45.2582553215324878692626953125" lon="-71.14921200089156627655029296875">
        <ele>628.4000244140625</ele>
        <time>2026-08-22T03:17:54.000Z</time>
        <extensions>
          <ns3:TrackPointExtension>
            <ns3:hr>131</ns3:hr>
            <ns3:cad>0</ns3:cad>
          </ns3:TrackPointExtension>
        </extensions>
      </trkpt>
      <trkpt lat="45.2582600153982639312744140625" lon="-71.14923228509724140167236328125">
        <ele>628.5999755859375</ele>
        <time>2026-08-22T03:17:55.000Z</time>
        <extensions>
          <ns3:TrackPointExtension>
            <ns3:hr>131</ns3:hr>
            <ns3:cad>0</ns3:cad>
          </ns3:TrackPointExtension>
        </extensions>
      </trkpt>
      <trkpt lat="45.2582643739879131317138671875" lon="-71.1492367275059223175048828125">
        <ele>628.79998779296875</ele>
        <time>2026-08-22T03:17:56.000Z</time>
        <extensions>
          <ns3:TrackPointExtension>
            <ns3:hr>131</ns3:hr>
            <ns3:cad>0</ns3:cad>
          </ns3:TrackPointExtension>
        </extensions>
      </trkpt>
      <trkpt lat="45.25827082805335521697998046875" lon="-71.14924938417971134185791015625">
        <ele>629</ele>
        <time>2026-08-22T03:17:57.000Z</time>
        <extensions>
          <ns3:TrackPointExtension>
            <ns3:hr>131</ns3:hr>
            <ns3:cad>0</ns3:cad>
          </ns3:TrackPointExtension>
        </extensions>
      </trkpt>
      <trkpt lat="45.25827602483332157135009765625" lon="-71.14926271140575408935546875">
        <ele>629.20001220703125</ele>
        <time>2026-08-22T03:17:58.000Z</time>
        <extensions>
          <ns3:TrackPointExtension>
            <ns3:hr>132</ns3:hr>
            <ns3:cad>0</ns3:cad>
          </ns3:TrackPointExtension>
        </extensions>
      </trkpt>
      <trkpt lat="45.25827585719525814056396484375" lon="-71.149279810488224029541015625">
        <ele>629.5999755859375</ele>
        <time>2026-08-22T03:17:59.000Z</time>
        <extensions>
          <ns3:TrackPointExtension>
            <ns3:hr>132</ns3:hr>
            <ns3:cad>0</ns3:cad>
          </ns3:TrackPointExtension>
        </extensions>
      </trkpt>
      <trkpt lat="45.25827988050878047943115234375" lon="-71.149295233190059661865234375">
        <ele>629.79998779296875</ele>
        <time>2026-08-22T03:18:00.000Z</time>
        <extensions>
          <ns3:TrackPointExtension>
            <ns3:hr>132</ns3:hr>
            <ns3:cad>51</ns3:cad>
          </ns3:TrackPointExtension>
        </extensions>
      </trkpt>
      <trkpt lat="45.2582858316600322723388671875" lon="-71.14931006915867328643798828125">
        <ele>630</ele>
        <time>2026-08-22T03:18:01.000Z</time>
        <extensions>
          <ns3:TrackPointExtension>
            <ns3:hr>133</ns3:hr>
            <ns3:cad>51</ns3:cad>
          </ns3:TrackPointExtension>
        </extensions>
      </trkpt>
      <trkpt lat="45.25828960351645946502685546875" lon="-71.14932733587920665740966796875">
        <ele>630.20001220703125</ele>
        <time>2026-08-22T03:18:02.000Z</time>
        <extensions>
          <ns3:TrackPointExtension>
            <ns3:hr>133</ns3:hr>
            <ns3:cad>49</ns3:cad>
          </ns3:TrackPointExtension>
        </extensions>
      </trkpt>
      <trkpt lat="45.25829195044934749603271484375" lon="-71.149337477982044219970703125">
        <ele>630.4000244140625</ele>
        <time>2026-08-22T03:18:03.000Z</time>
        <extensions>
          <ns3:TrackPointExtension>
            <ns3:hr>134</ns3:hr>
            <ns3:cad>49</ns3:cad>
          </ns3:TrackPointExtension>
        </extensions>
      </trkpt>
      <trkpt lat="45.25829295627772808074951171875" lon="-71.14935399033129215240478515625">
        <ele>630.5999755859375</ele>
        <time>2026-08-22T03:18:04.000Z</time>
        <extensions>
          <ns3:TrackPointExtension>
            <ns3:hr>133</ns3:hr>
            <ns3:cad>48</ns3:cad>
          </ns3:TrackPointExtension>
        </extensions>
      </trkpt>
      <trkpt lat="45.25829731486737728118896484375" lon="-71.14936740137636661529541015625">
        <ele>631</ele>
        <time>2026-08-22T03:18:05.000Z</time>
        <extensions>
          <ns3:TrackPointExtension>
            <ns3:hr>133</ns3:hr>
            <ns3:cad>48</ns3:cad>
          </ns3:TrackPointExtension>
        </extensions>
      </trkpt>
      <trkpt lat="45.25830217637121677398681640625" lon="-71.14937938749790191650390625">
        <ele>631</ele>
        <time>2026-08-22T03:18:06.000Z</time>
        <extensions>
          <ns3:TrackPointExtension>
            <ns3:hr>133</ns3:hr>
            <ns3:cad>48</ns3:cad>
          </ns3:TrackPointExtension>
        </extensions>
      </trkpt>
      <trkpt lat="45.2583099715411663055419921875" lon="-71.14939439110457897186279296875">
        <ele>631.20001220703125</ele>
        <time>2026-08-22T03:18:07.000Z</time>
        <extensions>
          <ns3:TrackPointExtension>
            <ns3:hr>133</ns3:hr>
            <ns3:cad>48</ns3:cad>
          </ns3:TrackPointExtension>
        </extensions>
      </trkpt>
      <trkpt lat="45.25831776671111583709716796875" lon="-71.14940620958805084228515625">
        <ele>631.4000244140625</ele>
        <time>2026-08-22T03:18:08.000Z</time>
        <extensions>
          <ns3:TrackPointExtension>
            <ns3:hr>133</ns3:hr>
            <ns3:cad>48</ns3:cad>
          </ns3:TrackPointExtension>
        </extensions>
      </trkpt>
      <trkpt lat="45.25833453051745891571044921875" lon="-71.14941434003412723541259765625">
        <ele>631.5999755859375</ele>
        <time>2026-08-22T03:18:09.000Z</time>
        <extensions>
          <ns3:TrackPointExtension>
            <ns3:hr>133</ns3:hr>
            <ns3:cad>46</ns3:cad>
          </ns3:TrackPointExtension>
        </extensions>
      </trkpt>
      <trkpt lat="45.25835028849542140960693359375" lon="-71.1494258232414722442626953125">
        <ele>631.5999755859375</ele>
        <time>2026-08-22T03:18:10.000Z</time>
        <extensions>
          <ns3:TrackPointExtension>
            <ns3:hr>133</ns3:hr>
            <ns3:cad>46</ns3:cad>
          </ns3:TrackPointExtension>
        </extensions>
      </trkpt>
      <trkpt lat="45.2583609335124492645263671875" lon="-71.14943026565015316009521484375">
        <ele>631.5999755859375</ele>
        <time>2026-08-22T03:18:11.000Z</time>
        <extensions>
          <ns3:TrackPointExtension>
            <ns3:hr>133</ns3:hr>
            <ns3:cad>44</ns3:cad>
          </ns3:TrackPointExtension>
        </extensions>
      </trkpt>
      <trkpt lat="45.25836638174951076507568359375" lon="-71.149425990879535675048828125">
        <ele>631.5999755859375</ele>
        <time>2026-08-22T03:18:12.000Z</time>
        <extensions>
          <ns3:TrackPointExtension>
            <ns3:hr>133</ns3:hr>
            <ns3:cad>44</ns3:cad>
          </ns3:TrackPointExtension>
        </extensions>
      </trkpt>
      <trkpt lat="45.258375518023967742919921875" lon="-71.14941920153796672821044921875">
        <ele>631.5999755859375</ele>
        <time>2026-08-22T03:18:13.000Z</time>
        <extensions>
          <ns3:TrackPointExtension>
            <ns3:hr>134</ns3:hr>
            <ns3:cad>44</ns3:cad>
          </ns3:TrackPointExtension>
        </extensions>
      </trkpt>
      <trkpt lat="45.2583877556025981903076171875" lon="-71.14941668696701526641845703125">
        <ele>631.5999755859375</ele>
        <time>2026-08-22T03:18:14.000Z</time>
        <extensions>
          <ns3:TrackPointExtension>
            <ns3:hr>134</ns3:hr>
            <ns3:cad>44</ns3:cad>
          </ns3:TrackPointExtension>
        </extensions>
      </trkpt>
      <trkpt lat="45.25840091519057750701904296875" lon="-71.14941333420574665069580078125">
        <ele>631.5999755859375</ele>
        <time>2026-08-22T03:18:15.000Z</time>
        <extensions>
          <ns3:TrackPointExtension>
            <ns3:hr>134</ns3:hr>
            <ns3:cad>44</ns3:cad>
          </ns3:TrackPointExtension>
        </extensions>
      </trkpt>
      <trkpt lat="45.25841030292212963104248046875" lon="-71.1494050361216068267822265625">
        <ele>631.4000244140625</ele>
        <time>2026-08-22T03:18:16.000Z</time>
        <extensions>
          <ns3:TrackPointExtension>
            <ns3:hr>134</ns3:hr>
            <ns3:cad>44</ns3:cad>
          </ns3:TrackPointExtension>
        </extensions>
      </trkpt>
      <trkpt lat="45.258419774472713470458984375" lon="-71.14939749240875244140625">
        <ele>631.4000244140625</ele>
        <time>2026-08-22T03:18:17.000Z</time>
        <extensions>
          <ns3:TrackPointExtension>
            <ns3:hr>135</ns3:hr>
            <ns3:cad>44</ns3:cad>
          </ns3:TrackPointExtension>
        </extensions>
      </trkpt>
      <trkpt lat="45.25843109004199504852294921875" lon="-71.14938986487686634063720703125">
        <ele>631.4000244140625</ele>
        <time>2026-08-22T03:18:18.000Z</time>
        <extensions>
          <ns3:TrackPointExtension>
            <ns3:hr>134</ns3:hr>
            <ns3:cad>44</ns3:cad>
          </ns3:TrackPointExtension>
        </extensions>
      </trkpt>
      <trkpt lat="45.25844802148640155792236328125" lon="-71.1493741907179355621337890625">
        <ele>631.20001220703125</ele>
        <time>2026-08-22T03:18:19.000Z</time>
        <extensions>
          <ns3:TrackPointExtension>
            <ns3:hr>135</ns3:hr>
            <ns3:cad>44</ns3:cad>
          </ns3:TrackPointExtension>
        </extensions>
      </trkpt>
      <trkpt lat="45.2584581635892391204833984375" lon="-71.14936471916735172271728515625">
        <ele>631</ele>
        <time>2026-08-22T03:18:20.000Z</time>
        <extensions>
          <ns3:TrackPointExtension>
            <ns3:hr>135</ns3:hr>
            <ns3:cad>44</ns3:cad>
          </ns3:TrackPointExtension>
        </extensions>
      </trkpt>
      <trkpt lat="45.25846595875918865203857421875" lon="-71.1493554152548313140869140625">
        <ele>630.79998779296875</ele>
        <time>2026-08-22T03:18:21.000Z</time>
        <extensions>
          <ns3:TrackPointExtension>
            <ns3:hr>135</ns3:hr>
            <ns3:cad>44</ns3:cad>
          </ns3:TrackPointExtension>
        </extensions>
      </trkpt>
      <trkpt lat="45.25847853161394596099853515625" lon="-71.14935432560741901397705078125">
        <ele>630.5999755859375</ele>
        <time>2026-08-22T03:18:22.000Z</time>
        <extensions>
          <ns3:TrackPointExtension>
            <ns3:hr>136</ns3:hr>
            <ns3:cad>44</ns3:cad>
          </ns3:TrackPointExtension>
        </extensions>
      </trkpt>
      <trkpt lat="45.25848506949841976165771484375" lon="-71.14934627898037433624267578125">
        <ele>630.20001220703125</ele>
        <time>2026-08-22T03:18:23.000Z</time>
        <extensions>
          <ns3:TrackPointExtension>
            <ns3:hr>136</ns3:hr>
            <ns3:cad>44</ns3:cad>
          </ns3:TrackPointExtension>
        </extensions>
      </trkpt>
      <trkpt lat="45.2584933675825595855712890625" lon="-71.14934384822845458984375">
        <ele>629.79998779296875</ele>
        <time>2026-08-22T03:18:24.000Z</time>
        <extensions>
          <ns3:TrackPointExtension>
            <ns3:hr>136</ns3:hr>
            <ns3:cad>0</ns3:cad>
          </ns3:TrackPointExtension>
        </extensions>
      </trkpt>
      <trkpt lat="45.2585067786276340484619140625" lon="-71.14934745244681835174560546875">
        <ele>629.5999755859375</ele>
        <time>2026-08-22T03:18:25.000Z</time>
        <extensions>
          <ns3:TrackPointExtension>
            <ns3:hr>136</ns3:hr>
            <ns3:cad>0</ns3:cad>
          </ns3:TrackPointExtension>
        </extensions>
      </trkpt>
      <trkpt lat="45.25851524434983730316162109375" lon="-71.14934585988521575927734375">
        <ele>629.20001220703125</ele>
        <time>2026-08-22T03:18:26.000Z</time>
        <extensions>
          <ns3:TrackPointExtension>
            <ns3:hr>136</ns3:hr>
            <ns3:cad>0</ns3:cad>
          </ns3:TrackPointExtension>
        </extensions>
      </trkpt>
      <trkpt lat="45.258527733385562896728515625" lon="-71.1493379808962345123291015625">
        <ele>629</ele>
        <time>2026-08-22T03:18:27.000Z</time>
        <extensions>
          <ns3:TrackPointExtension>
            <ns3:hr>136</ns3:hr>
            <ns3:cad>0</ns3:cad>
          </ns3:TrackPointExtension>
        </extensions>
      </trkpt>
      <trkpt lat="45.2585429884493350982666015625" lon="-71.1493252404034137725830078125">
        <ele>628.79998779296875</ele>
        <time>2026-08-22T03:18:28.000Z</time>
        <extensions>
          <ns3:TrackPointExtension>
            <ns3:hr>136</ns3:hr>
            <ns3:cad>0</ns3:cad>
          </ns3:TrackPointExtension>
        </extensions>
      </trkpt>
      <trkpt lat="45.25855983607470989227294921875" lon="-71.149316020309925079345703125">
        <ele>628.5999755859375</ele>
        <time>2026-08-22T03:18:29.000Z</time>
        <extensions>
          <ns3:TrackPointExtension>
            <ns3:hr>136</ns3:hr>
            <ns3:cad>0</ns3:cad>
          </ns3:TrackPointExtension>
        </extensions>
      </trkpt>
      <trkpt lat="45.2585743367671966552734375" lon="-71.149313338100910186767578125">
        <ele>628.4000244140625</ele>
        <time>2026-08-22T03:18:30.000Z</time>
        <extensions>
          <ns3:TrackPointExtension>
            <ns3:hr>136</ns3:hr>
            <ns3:cad>0</ns3:cad>
          </ns3:TrackPointExtension>
        </extensions>
      </trkpt>
      <trkpt lat="45.2585889212787151336669921875" lon="-71.14930906333029270172119140625">
        <ele>628.4000244140625</ele>
        <time>2026-08-22T03:18:31.000Z</time>
        <extensions>
          <ns3:TrackPointExtension>
            <ns3:hr>135</ns3:hr>
            <ns3:cad>0</ns3:cad>
          </ns3:TrackPointExtension>
        </extensions>
      </trkpt>
      <trkpt lat="45.25860048830509185791015625" lon="-71.149305962026119232177734375">
        <ele>628.4000244140625</ele>
        <time>2026-08-22T03:18:32.000Z</time>
        <extensions>
          <ns3:TrackPointExtension>
            <ns3:hr>135</ns3:hr>
            <ns3:cad>0</ns3:cad>
          </ns3:TrackPointExtension>
        </extensions>
      </trkpt>
      <trkpt lat="45.2586113847792148590087890625" lon="-71.14930319599807262420654296875">
        <ele>628.4000244140625</ele>
        <time>2026-08-22T03:18:33.000Z</time>
        <extensions>
          <ns3:TrackPointExtension>
            <ns3:hr>135</ns3:hr>
            <ns3:cad>62</ns3:cad>
          </ns3:TrackPointExtension>
        </extensions>
      </trkpt>
      <trkpt lat="45.2586226165294647216796875" lon="-71.1493044532835483551025390625">
        <ele>628.4000244140625</ele>
        <time>2026-08-22T03:18:34.000Z</time>
        <extensions>
          <ns3:TrackPointExtension>
            <ns3:hr>136</ns3:hr>
            <ns3:cad>62</ns3:cad>
          </ns3:TrackPointExtension>
        </extensions>
      </trkpt>
      <trkpt lat="45.25863644666969776153564453125" lon="-71.14931141026318073272705078125">
        <ele>628.4000244140625</ele>
        <time>2026-08-22T03:18:35.000Z</time>
        <extensions>
          <ns3:TrackPointExtension>
            <ns3:hr>136</ns3:hr>
            <ns3:cad>0</ns3:cad>
          </ns3:TrackPointExtension>
        </extensions>
      </trkpt>
      <trkpt lat="45.25865203700959682464599609375" lon="-71.14931560121476650238037109375">
        <ele>628.5999755859375</ele>
        <time>2026-08-22T03:18:36.000Z</time>
        <extensions>
          <ns3:TrackPointExtension>
            <ns3:hr>136</ns3:hr>
            <ns3:cad>0</ns3:cad>
          </ns3:TrackPointExtension>
        </extensions>
      </trkpt>
      <trkpt lat="45.258663184940814971923828125" lon="-71.1493183672428131103515625">
        <ele>628.4000244140625</ele>
        <time>2026-08-22T03:18:37.000Z</time>
        <extensions>
          <ns3:TrackPointExtension>
            <ns3:hr>135</ns3:hr>
            <ns3:cad>0</ns3:cad>
          </ns3:TrackPointExtension>
        </extensions>
      </trkpt>
      <trkpt lat="45.25867299176752567291259765625" lon="-71.14932197146117687225341796875">
        <ele>628.4000244140625</ele>
        <time>2026-08-22T03:18:38.000Z</time>
        <extensions>
          <ns3:TrackPointExtension>
            <ns3:hr>135</ns3:hr>
            <ns3:cad>0</ns3:cad>
          </ns3:TrackPointExtension>
        </extensions>
      </trkpt>
      <trkpt lat="45.258680619299411773681640625" lon="-71.1493249051272869110107421875">
        <ele>628.4000244140625</ele>
        <time>2026-08-22T03:18:39.000Z</time>
        <extensions>
          <ns3:TrackPointExtension>
            <ns3:hr>136</ns3:hr>
            <ns3:cad>0</ns3:cad>
          </ns3:TrackPointExtension>
        </extensions>
      </trkpt>
      <trkpt lat="45.25868807919323444366455078125" lon="-71.1493336223065853118896484375">
        <ele>628.4000244140625</ele>
        <time>2026-08-22T03:18:40.000Z</time>
        <extensions>
          <ns3:TrackPointExtension>
            <ns3:hr>135</ns3:hr>
            <ns3:cad>0</ns3:cad>
          </ns3:TrackPointExtension>
        </extensions>
      </trkpt>
      <trkpt lat="45.258693359792232513427734375" lon="-71.1493363045156002044677734375">
        <ele>628.20001220703125</ele>
        <time>2026-08-22T03:18:41.000Z</time>
        <extensions>
          <ns3:TrackPointExtension>
            <ns3:hr>134</ns3:hr>
            <ns3:cad>0</ns3:cad>
          </ns3:TrackPointExtension>
        </extensions>
      </trkpt>
      <trkpt lat="45.2587057650089263916015625" lon="-71.149341501295566558837890625">
        <ele>628.4000244140625</ele>
        <time>2026-08-22T03:18:42.000Z</time>
        <extensions>
          <ns3:TrackPointExtension>
            <ns3:hr>133</ns3:hr>
            <ns3:cad>0</ns3:cad>
          </ns3:TrackPointExtension>
        </extensions>
      </trkpt>
      <trkpt lat="45.2587173320353031158447265625" lon="-71.14934585988521575927734375">
        <ele>628.4000244140625</ele>
        <time>2026-08-22T03:18:43.000Z</time>
        <extensions>
          <ns3:TrackPointExtension>
            <ns3:hr>132</ns3:hr>
            <ns3:cad>0</ns3:cad>
          </ns3:TrackPointExtension>
        </extensions>
      </trkpt>
      <trkpt lat="45.2587223611772060394287109375" lon="-71.14934242330491542816162109375">
        <ele>628.5999755859375</ele>
        <time>2026-08-22T03:18:44.000Z</time>
        <extensions>
          <ns3:TrackPointExtension>
            <ns3:hr>131</ns3:hr>
            <ns3:cad>0</ns3:cad>
          </ns3:TrackPointExtension>
        </extensions>
      </trkpt>
      <trkpt lat="45.25873283855617046356201171875" lon="-71.14934493787586688995361328125">
        <ele>628.79998779296875</ele>
        <time>2026-08-22T03:18:45.000Z</time>
        <extensions>
          <ns3:TrackPointExtension>
            <ns3:hr>131</ns3:hr>
            <ns3:cad>0</ns3:cad>
          </ns3:TrackPointExtension>
        </extensions>
      </trkpt>
      <trkpt lat="45.258744321763515472412109375" lon="-71.14934560842812061309814453125">
        <ele>628.79998779296875</ele>
        <time>2026-08-22T03:18:46.000Z</time>
        <extensions>
          <ns3:TrackPointExtension>
            <ns3:hr>132</ns3:hr>
            <ns3:cad>0</ns3:cad>
          </ns3:TrackPointExtension>
        </extensions>
      </trkpt>
      <trkpt lat="45.25876142084598541259765625" lon="-71.14934527315199375152587890625">
        <ele>629</ele>
        <time>2026-08-22T03:18:47.000Z</time>
        <extensions>
          <ns3:TrackPointExtension>
            <ns3:hr>131</ns3:hr>
            <ns3:cad>0</ns3:cad>
          </ns3:TrackPointExtension>
        </extensions>
      </trkpt>
      <trkpt lat="45.25877323932945728302001953125" lon="-71.14934141747653484344482421875">
        <ele>629.20001220703125</ele>
        <time>2026-08-22T03:18:48.000Z</time>
        <extensions>
          <ns3:TrackPointExtension>
            <ns3:hr>131</ns3:hr>
            <ns3:cad>0</ns3:cad>
          </ns3:TrackPointExtension>
        </extensions>
      </trkpt>
      <trkpt lat="45.25878849439322948455810546875" lon="-71.1493359692394733428955078125">
        <ele>629.20001220703125</ele>
        <time>2026-08-22T03:18:49.000Z</time>
        <extensions>
          <ns3:TrackPointExtension>
            <ns3:hr>130</ns3:hr>
            <ns3:cad>0</ns3:cad>
          </ns3:TrackPointExtension>
        </extensions>
      </trkpt>
      <trkpt lat="45.25880559347569942474365234375" lon="-71.14932901225984096527099609375">
        <ele>629.20001220703125</ele>
        <time>2026-08-22T03:18:50.000Z</time>
        <extensions>
          <ns3:TrackPointExtension>
            <ns3:hr>129</ns3:hr>
            <ns3:cad>0</ns3:cad>
          </ns3:TrackPointExtension>
        </extensions>
      </trkpt>
      <trkpt lat="45.25881045497953891754150390625" lon="-71.1493265815079212188720703125">
        <ele>629.20001220703125</ele>
        <time>2026-08-22T03:18:51.000Z</time>
        <extensions>
          <ns3:TrackPointExtension>
            <ns3:hr>128</ns3:hr>
            <ns3:cad>0</ns3:cad>
          </ns3:TrackPointExtension>
        </extensions>
      </trkpt>
      <trkpt lat="45.25881498120725154876708984375" lon="-71.14932901225984096527099609375">
        <ele>629.20001220703125</ele>
        <time>2026-08-22T03:18:52.000Z</time>
        <extensions>
          <ns3:TrackPointExtension>
            <ns3:hr>128</ns3:hr>
            <ns3:cad>0</ns3:cad>
          </ns3:TrackPointExtension>
        </extensions>
      </trkpt>
      <trkpt lat="45.25882973335683345794677734375" lon="-71.1493299342691898345947265625">
        <ele>629.20001220703125</ele>
        <time>2026-08-22T03:18:53.000Z</time>
        <extensions>
          <ns3:TrackPointExtension>
            <ns3:hr>128</ns3:hr>
            <ns3:cad>0</ns3:cad>
          </ns3:TrackPointExtension>
        </extensions>
      </trkpt>
      <trkpt lat="45.2588452398777008056640625" lon="-71.1493316106498241424560546875">
        <ele>629.20001220703125</ele>
        <time>2026-08-22T03:18:54.000Z</time>
        <extensions>
          <ns3:TrackPointExtension>
            <ns3:hr>128</ns3:hr>
            <ns3:cad>0</ns3:cad>
          </ns3:TrackPointExtension>
        </extensions>
      </trkpt>
      <trkpt lat="45.25885529816150665283203125" lon="-71.14932465367019176483154296875">
        <ele>629.4000244140625</ele>
        <time>2026-08-22T03:18:55.000Z</time>
        <extensions>
          <ns3:TrackPointExtension>
            <ns3:hr>128</ns3:hr>
            <ns3:cad>0</ns3:cad>
          </ns3:TrackPointExtension>
        </extensions>
      </trkpt>
      <trkpt lat="45.25886577554047107696533203125" lon="-71.14931543357670307159423828125">
        <ele>629.4000244140625</ele>
        <time>2026-08-22T03:18:56.000Z</time>
        <extensions>
          <ns3:TrackPointExtension>
            <ns3:hr>128</ns3:hr>
            <ns3:cad>0</ns3:cad>
          </ns3:TrackPointExtension>
        </extensions>
      </trkpt>
      <trkpt lat="45.25887432508170604705810546875" lon="-71.14931090734899044036865234375">
        <ele>629.5999755859375</ele>
        <time>2026-08-22T03:18:57.000Z</time>
        <extensions>
          <ns3:TrackPointExtension>
            <ns3:hr>128</ns3:hr>
            <ns3:cad>0</ns3:cad>
          </ns3:TrackPointExtension>
        </extensions>
      </trkpt>
      <trkpt lat="45.2588819526135921478271484375" lon="-71.1493101529777050018310546875">
        <ele>629.5999755859375</ele>
        <time>2026-08-22T03:18:58.000Z</time>
        <extensions>
          <ns3:TrackPointExtension>
            <ns3:hr>128</ns3:hr>
            <ns3:cad>0</ns3:cad>
          </ns3:TrackPointExtension>
        </extensions>
      </trkpt>
      <trkpt lat="45.25888748466968536376953125" lon="-71.149311996996402740478515625">
        <ele>629.79998779296875</ele>
        <time>2026-08-22T03:18:59.000Z</time>
        <extensions>
          <ns3:TrackPointExtension>
            <ns3:hr>128</ns3:hr>
            <ns3:cad>0</ns3:cad>
          </ns3:TrackPointExtension>
        </extensions>
      </trkpt>
      <trkpt lat="45.25890014134347438812255859375" lon="-71.14931928925216197967529296875">
        <ele>630</ele>
        <time>2026-08-22T03:19:00.000Z</time>
        <extensions>
          <ns3:TrackPointExtension>
            <ns3:hr>128</ns3:hr>
            <ns3:cad>0</ns3:cad>
          </ns3:TrackPointExtension>
        </extensions>
      </trkpt>
      <trkpt lat="45.258912630379199981689453125" lon="-71.14932172000408172607421875">
        <ele>630.20001220703125</ele>
        <time>2026-08-22T03:19:01.000Z</time>
        <extensions>
          <ns3:TrackPointExtension>
            <ns3:hr>129</ns3:hr>
            <ns3:cad>0</ns3:cad>
          </ns3:TrackPointExtension>
        </extensions>
      </trkpt>
      <trkpt lat="45.25892578996717929840087890625" lon="-71.14931861869990825653076171875">
        <ele>630.4000244140625</ele>
        <time>2026-08-22T03:19:02.000Z</time>
        <extensions>
          <ns3:TrackPointExtension>
            <ns3:hr>130</ns3:hr>
            <ns3:cad>0</ns3:cad>
          </ns3:TrackPointExtension>
        </extensions>
      </trkpt>
      <trkpt lat="45.25893534533679485321044921875" lon="-71.14931459538638591766357421875">
        <ele>630.5999755859375</ele>
        <time>2026-08-22T03:19:03.000Z</time>
        <extensions>
          <ns3:TrackPointExtension>
            <ns3:hr>131</ns3:hr>
            <ns3:cad>0</ns3:cad>
          </ns3:TrackPointExtension>
        </extensions>
      </trkpt>
      <trkpt lat="45.2589473314583301544189453125" lon="-71.14930562674999237060546875">
        <ele>630.79998779296875</ele>
        <time>2026-08-22T03:19:04.000Z</time>
        <extensions>
          <ns3:TrackPointExtension>
            <ns3:hr>131</ns3:hr>
            <ns3:cad>0</ns3:cad>
          </ns3:TrackPointExtension>
        </extensions>
      </trkpt>
      <trkpt lat="45.25895479135215282440185546875" lon="-71.149300597608089447021484375">
        <ele>630.79998779296875</ele>
        <time>2026-08-22T03:19:05.000Z</time>
        <extensions>
          <ns3:TrackPointExtension>
            <ns3:hr>132</ns3:hr>
            <ns3:cad>0</ns3:cad>
          </ns3:TrackPointExtension>
        </extensions>
      </trkpt>
      <trkpt lat="45.2589624188840389251708984375" lon="-71.1492943949997425079345703125">
        <ele>630.79998779296875</ele>
        <time>2026-08-22T03:19:06.000Z</time>
        <extensions>
          <ns3:TrackPointExtension>
            <ns3:hr>132</ns3:hr>
            <ns3:cad>0</ns3:cad>
          </ns3:TrackPointExtension>
        </extensions>
      </trkpt>
      <trkpt lat="45.2589754946529865264892578125" lon="-71.14928425289690494537353515625">
        <ele>630.79998779296875</ele>
        <time>2026-08-22T03:19:07.000Z</time>
        <extensions>
          <ns3:TrackPointExtension>
            <ns3:hr>132</ns3:hr>
            <ns3:cad>0</ns3:cad>
          </ns3:TrackPointExtension>
        </extensions>
      </trkpt>
      <trkpt lat="45.258986391127109527587890625" lon="-71.14927318878471851348876953125">
        <ele>630.79998779296875</ele>
        <time>2026-08-22T03:19:08.000Z</time>
        <extensions>
          <ns3:TrackPointExtension>
            <ns3:hr>132</ns3:hr>
            <ns3:cad>0</ns3:cad>
          </ns3:TrackPointExtension>
        </extensions>
      </trkpt>
      <trkpt lat="45.25899653322994709014892578125" lon="-71.14926405251026153564453125">
        <ele>630.79998779296875</ele>
        <time>2026-08-22T03:19:09.000Z</time>
        <extensions>
          <ns3:TrackPointExtension>
            <ns3:hr>133</ns3:hr>
            <ns3:cad>0</ns3:cad>
          </ns3:TrackPointExtension>
        </extensions>
      </trkpt>
      <trkpt lat="45.25900726206600666046142578125" lon="-71.149255670607089996337890625">
        <ele>630.5999755859375</ele>
        <time>2026-08-22T03:19:10.000Z</time>
        <extensions>
          <ns3:TrackPointExtension>
            <ns3:hr>133</ns3:hr>
            <ns3:cad>0</ns3:cad>
          </ns3:TrackPointExtension>
        </extensions>
      </trkpt>
      <trkpt lat="45.2590086869895458221435546875" lon="-71.14924536086618900299072265625">
        <ele>630.5999755859375</ele>
        <time>2026-08-22T03:19:11.000Z</time>
        <extensions>
          <ns3:TrackPointExtension>
            <ns3:hr>133</ns3:hr>
            <ns3:cad>0</ns3:cad>
          </ns3:TrackPointExtension>
        </extensions>
      </trkpt>
      <trkpt lat="45.2590103633701801300048828125" lon="-71.14924150519073009490966796875">
        <ele>630.5999755859375</ele>
        <time>2026-08-22T03:19:12.000Z</time>
        <extensions>
          <ns3:TrackPointExtension>
            <ns3:hr>133</ns3:hr>
            <ns3:cad>0</ns3:cad>
          </ns3:TrackPointExtension>
        </extensions>
      </trkpt>
      <trkpt lat="45.259013883769512176513671875" lon="-71.149242930114269256591796875">
        <ele>630.5999755859375</ele>
        <time>2026-08-22T03:19:13.000Z</time>
        <extensions>
          <ns3:TrackPointExtension>
            <ns3:hr>133</ns3:hr>
            <ns3:cad>0</ns3:cad>
          </ns3:TrackPointExtension>
        </extensions>
      </trkpt>
      <trkpt lat="45.25902704335749149322509765625" lon="-71.1492477916181087493896484375">
        <ele>630.4000244140625</ele>
        <time>2026-08-22T03:19:14.000Z</time>
        <extensions>
          <ns3:TrackPointExtension>
            <ns3:hr>132</ns3:hr>
            <ns3:cad>0</ns3:cad>
          </ns3:TrackPointExtension>
        </extensions>
      </trkpt>
      <trkpt lat="45.25903877802193164825439453125" lon="-71.1492457799613475799560546875">
        <ele>630.4000244140625</ele>
        <time>2026-08-22T03:19:15.000Z</time>
        <extensions>
          <ns3:TrackPointExtension>
            <ns3:hr>132</ns3:hr>
            <ns3:cad>0</ns3:cad>
          </ns3:TrackPointExtension>
        </extensions>
      </trkpt>
      <trkpt lat="45.25904732756316661834716796875" lon="-71.1492404155433177947998046875">
        <ele>630.4000244140625</ele>
        <time>2026-08-22T03:19:16.000Z</time>
        <extensions>
          <ns3:TrackPointExtension>
            <ns3:hr>132</ns3:hr>
            <ns3:cad>0</ns3:cad>
          </ns3:TrackPointExtension>
        </extensions>
      </trkpt>
      <trkpt lat="45.2590562961995601654052734375" lon="-71.14923848770558834075927734375">
        <ele>630.4000244140625</ele>
        <time>2026-08-22T03:19:17.000Z</time>
        <extensions>
          <ns3:TrackPointExtension>
            <ns3:hr>132</ns3:hr>
            <ns3:cad>0</ns3:cad>
          </ns3:TrackPointExtension>
        </extensions>
      </trkpt>
      <trkpt lat="45.259069539606571197509765625" lon="-71.1492370627820491790771484375">
        <ele>630.4000244140625</ele>
        <time>2026-08-22T03:19:18.000Z</time>
        <extensions>
          <ns3:TrackPointExtension>
            <ns3:hr>132</ns3:hr>
            <ns3:cad>0</ns3:cad>
          </ns3:TrackPointExtension>
        </extensions>
      </trkpt>
      <trkpt lat="45.25907850824296474456787109375" lon="-71.14923798479139804840087890625">
        <ele>630.5999755859375</ele>
        <time>2026-08-22T03:19:19.000Z</time>
        <extensions>
          <ns3:TrackPointExtension>
            <ns3:hr>133</ns3:hr>
            <ns3:cad>0</ns3:cad>
          </ns3:TrackPointExtension>
        </extensions>
      </trkpt>
      <trkpt lat="45.25909527204930782318115234375" lon="-71.14924100227653980255126953125">
        <ele>630.5999755859375</ele>
        <time>2026-08-22T03:19:20.000Z</time>
        <extensions>
          <ns3:TrackPointExtension>
            <ns3:hr>133</ns3:hr>
            <ns3:cad>0</ns3:cad>
          </ns3:TrackPointExtension>
        </extensions>
      </trkpt>
      <trkpt lat="45.25910432450473308563232421875" lon="-71.14924184046685695648193359375">
        <ele>630.5999755859375</ele>
        <time>2026-08-22T03:19:21.000Z</time>
        <extensions>
          <ns3:TrackPointExtension>
            <ns3:hr>134</ns3:hr>
            <ns3:cad>0</ns3:cad>
          </ns3:TrackPointExtension>
        </extensions>
      </trkpt>
      <trkpt lat="45.2591173164546489715576171875" lon="-71.14924603141844272613525390625">
        <ele>630.79998779296875</ele>
        <time>2026-08-22T03:19:22.000Z</time>
        <extensions>
          <ns3:TrackPointExtension>
            <ns3:hr>134</ns3:hr>
            <ns3:cad>0</ns3:cad>
          </ns3:TrackPointExtension>
        </extensions>
      </trkpt>
      <trkpt lat="45.2591310627758502960205078125" lon="-71.14924728870391845703125">
        <ele>631.20001220703125</ele>
        <time>2026-08-22T03:19:23.000Z</time>
        <extensions>
          <ns3:TrackPointExtension>
            <ns3:hr>134</ns3:hr>
            <ns3:cad>0</ns3:cad>
          </ns3:TrackPointExtension>
        </extensions>
      </trkpt>
      <trkpt lat="45.2591434679925441741943359375" lon="-71.14924527704715728759765625">
        <ele>631.20001220703125</ele>
        <time>2026-08-22T03:19:24.000Z</time>
        <extensions>
          <ns3:TrackPointExtension>
            <ns3:hr>134</ns3:hr>
            <ns3:cad>0</ns3:cad>
          </ns3:TrackPointExtension>
        </extensions>
      </trkpt>
      <trkpt lat="45.25915595702826976776123046875" lon="-71.14924435503780841827392578125">
        <ele>631.4000244140625</ele>
        <time>2026-08-22T03:19:25.000Z</time>
        <extensions>
          <ns3:TrackPointExtension>
            <ns3:hr>134</ns3:hr>
            <ns3:cad>0</ns3:cad>
          </ns3:TrackPointExtension>
        </extensions>
      </trkpt>
      <trkpt lat="45.259162746369838714599609375" lon="-71.149249635636806488037109375">
        <ele>631.5999755859375</ele>
        <time>2026-08-22T03:19:26.000Z</time>
        <extensions>
          <ns3:TrackPointExtension>
            <ns3:hr>134</ns3:hr>
            <ns3:cad>0</ns3:cad>
          </ns3:TrackPointExtension>
        </extensions>
      </trkpt>
      <trkpt lat="45.25916836224496364593505859375" lon="-71.14925608970224857330322265625">
        <ele>631.79998779296875</ele>
        <time>2026-08-22T03:19:27.000Z</time>
        <extensions>
          <ns3:TrackPointExtension>
            <ns3:hr>135</ns3:hr>
            <ns3:cad>0</ns3:cad>
          </ns3:TrackPointExtension>
        </extensions>
      </trkpt>
      <trkpt lat="45.2591805160045623779296875" lon="-71.14926832728087902069091796875">
        <ele>631.79998779296875</ele>
        <time>2026-08-22T03:19:28.000Z</time>
        <extensions>
          <ns3:TrackPointExtension>
            <ns3:hr>135</ns3:hr>
            <ns3:cad>0</ns3:cad>
          </ns3:TrackPointExtension>
        </extensions>
      </trkpt>
      <trkpt lat="45.2591860480606555938720703125" lon="-71.14927553571760654449462890625">
        <ele>632</ele>
        <time>2026-08-22T03:19:29.000Z</time>
        <extensions>
          <ns3:TrackPointExtension>
            <ns3:hr>135</ns3:hr>
            <ns3:cad>0</ns3:cad>
          </ns3:TrackPointExtension>
        </extensions>
      </trkpt>
      <trkpt lat="45.25920323096215724945068359375" lon="-71.14928727038204669952392578125">
        <ele>632</ele>
        <time>2026-08-22T03:19:30.000Z</time>
        <extensions>
          <ns3:TrackPointExtension>
            <ns3:hr>135</ns3:hr>
            <ns3:cad>0</ns3:cad>
          </ns3:TrackPointExtension>
        </extensions>
      </trkpt>
      <trkpt lat="45.25921664200723171234130859375" lon="-71.14929179660975933074951171875">
        <ele>632.20001220703125</ele>
        <time>2026-08-22T03:19:31.000Z</time>
        <extensions>
          <ns3:TrackPointExtension>
            <ns3:hr>135</ns3:hr>
            <ns3:cad>0</ns3:cad>
          </ns3:TrackPointExtension>
        </extensions>
      </trkpt>
      <trkpt lat="45.25923256762325763702392578125" lon="-71.14929347299039363861083984375">
        <ele>632.4000244140625</ele>
        <time>2026-08-22T03:19:32.000Z</time>
        <extensions>
          <ns3:TrackPointExtension>
            <ns3:hr>135</ns3:hr>
            <ns3:cad>0</ns3:cad>
          </ns3:TrackPointExtension>
        </extensions>
      </trkpt>
      <trkpt lat="45.259248577058315277099609375" lon="-71.1492907069623470306396484375">
        <ele>632.4000244140625</ele>
        <time>2026-08-22T03:19:33.000Z</time>
        <extensions>
          <ns3:TrackPointExtension>
            <ns3:hr>135</ns3:hr>
            <ns3:cad>0</ns3:cad>
          </ns3:TrackPointExtension>
        </extensions>
      </trkpt>
      <trkpt lat="45.25926810689270496368408203125" lon="-71.149279139935970306396484375">
        <ele>632.4000244140625</ele>
        <time>2026-08-22T03:19:34.000Z</time>
        <extensions>
          <ns3:TrackPointExtension>
            <ns3:hr>135</ns3:hr>
            <ns3:cad>0</ns3:cad>
          </ns3:TrackPointExtension>
        </extensions>
      </trkpt>
      <trkpt lat="45.25928168557584285736083984375" lon="-71.1492662318050861358642578125">
        <ele>632.5999755859375</ele>
        <time>2026-08-22T03:19:35.000Z</time>
        <extensions>
          <ns3:TrackPointExtension>
            <ns3:hr>135</ns3:hr>
            <ns3:cad>68</ns3:cad>
          </ns3:TrackPointExtension>
        </extensions>
      </trkpt>
      <trkpt lat="45.25929828174412250518798828125" lon="-71.149250306189060211181640625">
        <ele>632.5999755859375</ele>
        <time>2026-08-22T03:19:36.000Z</time>
        <extensions>
          <ns3:TrackPointExtension>
            <ns3:hr>135</ns3:hr>
            <ns3:cad>68</ns3:cad>
          </ns3:TrackPointExtension>
        </extensions>
      </trkpt>
      <trkpt lat="45.2593144588172435760498046875" lon="-71.14924234338104724884033203125">
        <ele>632.4000244140625</ele>
        <time>2026-08-22T03:19:37.000Z</time>
        <extensions>
          <ns3:TrackPointExtension>
            <ns3:hr>134</ns3:hr>
            <ns3:cad>68</ns3:cad>
          </ns3:TrackPointExtension>
        </extensions>
      </trkpt>
      <trkpt lat="45.25933030061423778533935546875" lon="-71.14923865534365177154541015625">
        <ele>632.4000244140625</ele>
        <time>2026-08-22T03:19:38.000Z</time>
        <extensions>
          <ns3:TrackPointExtension>
            <ns3:hr>134</ns3:hr>
            <ns3:cad>70</ns3:cad>
          </ns3:TrackPointExtension>
        </extensions>
      </trkpt>
      <trkpt lat="45.259348489344120025634765625" lon="-71.14923982881009578704833984375">
        <ele>632.20001220703125</ele>
        <time>2026-08-22T03:19:39.000Z</time>
        <extensions>
          <ns3:TrackPointExtension>
            <ns3:hr>134</ns3:hr>
            <ns3:cad>70</ns3:cad>
          </ns3:TrackPointExtension>
        </extensions>
      </trkpt>
      <trkpt lat="45.25936315767467021942138671875" lon="-71.149246282875537872314453125">
        <ele>632.20001220703125</ele>
        <time>2026-08-22T03:19:40.000Z</time>
        <extensions>
          <ns3:TrackPointExtension>
            <ns3:hr>135</ns3:hr>
            <ns3:cad>69</ns3:cad>
          </ns3:TrackPointExtension>
        </extensions>
      </trkpt>
      <trkpt lat="45.25937422178685665130615234375" lon="-71.14925064146518707275390625">
        <ele>632</ele>
        <time>2026-08-22T03:19:41.000Z</time>
        <extensions>
          <ns3:TrackPointExtension>
            <ns3:hr>135</ns3:hr>
            <ns3:cad>69</ns3:cad>
          </ns3:TrackPointExtension>
        </extensions>
      </trkpt>
      <trkpt lat="45.25938830338418483734130859375" lon="-71.1492571793496608734130859375">
        <ele>632.20001220703125</ele>
        <time>2026-08-22T03:19:42.000Z</time>
        <extensions>
          <ns3:TrackPointExtension>
            <ns3:hr>135</ns3:hr>
            <ns3:cad>69</ns3:cad>
          </ns3:TrackPointExtension>
        </extensions>
      </trkpt>
      <trkpt lat="45.25939970277249813079833984375" lon="-71.14925709553062915802001953125">
        <ele>632.20001220703125</ele>
        <time>2026-08-22T03:19:43.000Z</time>
        <extensions>
          <ns3:TrackPointExtension>
            <ns3:hr>135</ns3:hr>
            <ns3:cad>69</ns3:cad>
          </ns3:TrackPointExtension>
        </extensions>
      </trkpt>
      <trkpt lat="45.25941227562725543975830078125" lon="-71.149260699748992919921875">
        <ele>632.20001220703125</ele>
        <time>2026-08-22T03:19:44.000Z</time>
        <extensions>
          <ns3:TrackPointExtension>
            <ns3:hr>136</ns3:hr>
            <ns3:cad>69</ns3:cad>
          </ns3:TrackPointExtension>
        </extensions>
      </trkpt>
      <trkpt lat="45.25942753069102764129638671875" lon="-71.14926732145249843597412109375">
        <ele>632.20001220703125</ele>
        <time>2026-08-22T03:19:45.000Z</time>
        <extensions>
          <ns3:TrackPointExtension>
            <ns3:hr>135</ns3:hr>
            <ns3:cad>69</ns3:cad>
          </ns3:TrackPointExtension>
        </extensions>
      </trkpt>
      <trkpt lat="45.25944462977349758148193359375" lon="-71.1492736078798770904541015625">
        <ele>632.20001220703125</ele>
        <time>2026-08-22T03:19:46.000Z</time>
        <extensions>
          <ns3:TrackPointExtension>
            <ns3:hr>135</ns3:hr>
            <ns3:cad>69</ns3:cad>
          </ns3:TrackPointExtension>
        </extensions>
      </trkpt>
      <trkpt lat="45.259457789361476898193359375" lon="-71.14927670918405055999755859375">
        <ele>632.20001220703125</ele>
        <time>2026-08-22T03:19:47.000Z</time>
        <extensions>
          <ns3:TrackPointExtension>
            <ns3:hr>136</ns3:hr>
            <ns3:cad>57</ns3:cad>
          </ns3:TrackPointExtension>
        </extensions>
      </trkpt>
      <trkpt lat="45.25947329588234424591064453125" lon="-71.1492789722979068756103515625">
        <ele>632.4000244140625</ele>
        <time>2026-08-22T03:19:48.000Z</time>
        <extensions>
          <ns3:TrackPointExtension>
            <ns3:hr>136</ns3:hr>
            <ns3:cad>57</ns3:cad>
          </ns3:TrackPointExtension>
        </extensions>
      </trkpt>
      <trkpt lat="45.259489305317401885986328125" lon="-71.1492846719920635223388671875">
        <ele>632.4000244140625</ele>
        <time>2026-08-22T03:19:49.000Z</time>
        <extensions>
          <ns3:TrackPointExtension>
            <ns3:hr>135</ns3:hr>
            <ns3:cad>57</ns3:cad>
          </ns3:TrackPointExtension>
        </extensions>
      </trkpt>
      <trkpt lat="45.25951118208467960357666015625" lon="-71.1492955684661865234375">
        <ele>632.4000244140625</ele>
        <time>2026-08-22T03:19:50.000Z</time>
        <extensions>
          <ns3:TrackPointExtension>
            <ns3:hr>134</ns3:hr>
            <ns3:cad>57</ns3:cad>
          </ns3:TrackPointExtension>
        </extensions>
      </trkpt>
      <trkpt lat="45.2595233358442783355712890625" lon="-71.14930319599807262420654296875">
        <ele>632.4000244140625</ele>
        <time>2026-08-22T03:19:51.000Z</time>
        <extensions>
          <ns3:TrackPointExtension>
            <ns3:hr>134</ns3:hr>
            <ns3:cad>57</ns3:cad>
          </ns3:TrackPointExtension>
        </extensions>
      </trkpt>
      <trkpt lat="45.2595360763370990753173828125" lon="-71.149308644235134124755859375">
        <ele>632.4000244140625</ele>
        <time>2026-08-22T03:19:52.000Z</time>
        <extensions>
          <ns3:TrackPointExtension>
            <ns3:hr>133</ns3:hr>
            <ns3:cad>57</ns3:cad>
          </ns3:TrackPointExtension>
        </extensions>
      </trkpt>
      <trkpt lat="45.2595506608486175537109375" lon="-71.14931241609156131744384765625">
        <ele>632.4000244140625</ele>
        <time>2026-08-22T03:19:53.000Z</time>
        <extensions>
          <ns3:TrackPointExtension>
            <ns3:hr>133</ns3:hr>
            <ns3:cad>57</ns3:cad>
          </ns3:TrackPointExtension>
        </extensions>
      </trkpt>
      <trkpt lat="45.25956281460821628570556640625" lon="-71.14931526593863964080810546875">
        <ele>632.20001220703125</ele>
        <time>2026-08-22T03:19:54.000Z</time>
        <extensions>
          <ns3:TrackPointExtension>
            <ns3:hr>133</ns3:hr>
            <ns3:cad>57</ns3:cad>
          </ns3:TrackPointExtension>
        </extensions>
      </trkpt>
      <trkpt lat="45.259573459625244140625" lon="-71.14931308664381504058837890625">
        <ele>632.20001220703125</ele>
        <time>2026-08-22T03:19:55.000Z</time>
        <extensions>
          <ns3:TrackPointExtension>
            <ns3:hr>133</ns3:hr>
            <ns3:cad>57</ns3:cad>
          </ns3:TrackPointExtension>
        </extensions>
      </trkpt>
      <trkpt lat="45.2595820091664791107177734375" lon="-71.1493138410151004791259765625">
        <ele>632.20001220703125</ele>
        <time>2026-08-22T03:19:56.000Z</time>
        <extensions>
          <ns3:TrackPointExtension>
            <ns3:hr>133</ns3:hr>
            <ns3:cad>57</ns3:cad>
          </ns3:TrackPointExtension>
        </extensions>
      </trkpt>
      <trkpt lat="45.25959617458283901214599609375" lon="-71.14932431839406490325927734375">
        <ele>632</ele>
        <time>2026-08-22T03:19:57.000Z</time>
        <extensions>
          <ns3:TrackPointExtension>
            <ns3:hr>133</ns3:hr>
            <ns3:cad>0</ns3:cad>
          </ns3:TrackPointExtension>
        </extensions>
      </trkpt>
      <trkpt lat="45.259608663618564605712890625" lon="-71.1493349634110927581787109375">
        <ele>631.79998779296875</ele>
        <time>2026-08-22T03:19:58.000Z</time>
        <extensions>
          <ns3:TrackPointExtension>
            <ns3:hr>132</ns3:hr>
            <ns3:cad>0</ns3:cad>
          </ns3:TrackPointExtension>
        </extensions>
      </trkpt>
      <trkpt lat="45.25962215848267078399658203125" lon="-71.14934309385716915130615234375">
        <ele>631.79998779296875</ele>
        <time>2026-08-22T03:19:59.000Z</time>
        <extensions>
          <ns3:TrackPointExtension>
            <ns3:hr>132</ns3:hr>
            <ns3:cad>0</ns3:cad>
          </ns3:TrackPointExtension>
        </extensions>
      </trkpt>
      <trkpt lat="45.2596343122422695159912109375" lon="-71.1493493802845478057861328125">
        <ele>631.79998779296875</ele>
        <time>2026-08-22T03:20:00.000Z</time>
        <extensions>
          <ns3:TrackPointExtension>
            <ns3:hr>132</ns3:hr>
            <ns3:cad>0</ns3:cad>
          </ns3:TrackPointExtension>
        </extensions>
      </trkpt>
      <trkpt lat="45.25964613072574138641357421875" lon="-71.149351894855499267578125">
        <ele>631.79998779296875</ele>
        <time>2026-08-22T03:20:01.000Z</time>
        <extensions>
          <ns3:TrackPointExtension>
            <ns3:hr>132</ns3:hr>
            <ns3:cad>0</ns3:cad>
          </ns3:TrackPointExtension>
        </extensions>
      </trkpt>
      <trkpt lat="45.25965585373342037200927734375" lon="-71.1493559181690216064453125">
        <ele>632</ele>
        <time>2026-08-22T03:20:02.000Z</time>
        <extensions>
          <ns3:TrackPointExtension>
            <ns3:hr>132</ns3:hr>
            <ns3:cad>0</ns3:cad>
          </ns3:TrackPointExtension>
        </extensions>
      </trkpt>
      <trkpt lat="45.25967010296881198883056640625" lon="-71.149369664490222930908203125">
        <ele>632</ele>
        <time>2026-08-22T03:20:03.000Z</time>
        <extensions>
          <ns3:TrackPointExtension>
            <ns3:hr>132</ns3:hr>
            <ns3:cad>0</ns3:cad>
          </ns3:TrackPointExtension>
        </extensions>
      </trkpt>
      <trkpt lat="45.25968519039452075958251953125" lon="-71.14939036779105663299560546875">
        <ele>632.20001220703125</ele>
        <time>2026-08-22T03:20:04.000Z</time>
        <extensions>
          <ns3:TrackPointExtension>
            <ns3:hr>132</ns3:hr>
            <ns3:cad>0</ns3:cad>
          </ns3:TrackPointExtension>
        </extensions>
      </trkpt>
      <trkpt lat="45.25969751179218292236328125" lon="-71.14940696395933628082275390625">
        <ele>632.20001220703125</ele>
        <time>2026-08-22T03:20:05.000Z</time>
        <extensions>
          <ns3:TrackPointExtension>
            <ns3:hr>131</ns3:hr>
            <ns3:cad>0</ns3:cad>
          </ns3:TrackPointExtension>
        </extensions>
      </trkpt>
      <trkpt lat="45.2597110904753208160400390625" lon="-71.1494150944054126739501953125">
        <ele>632.4000244140625</ele>
        <time>2026-08-22T03:20:06.000Z</time>
        <extensions>
          <ns3:TrackPointExtension>
            <ns3:hr>132</ns3:hr>
            <ns3:cad>0</ns3:cad>
          </ns3:TrackPointExtension>
        </extensions>
      </trkpt>
      <trkpt lat="45.25972433388233184814453125" lon="-71.14942439831793308258056640625">
        <ele>632.4000244140625</ele>
        <time>2026-08-22T03:20:07.000Z</time>
        <extensions>
          <ns3:TrackPointExtension>
            <ns3:hr>132</ns3:hr>
            <ns3:cad>0</ns3:cad>
          </ns3:TrackPointExtension>
        </extensions>
      </trkpt>
      <trkpt lat="45.2597348950803279876708984375" lon="-71.1494368873536586761474609375">
        <ele>632.5999755859375</ele>
        <time>2026-08-22T03:20:08.000Z</time>
        <extensions>
          <ns3:TrackPointExtension>
            <ns3:hr>132</ns3:hr>
            <ns3:cad>0</ns3:cad>
          </ns3:TrackPointExtension>
        </extensions>
      </trkpt>
      <trkpt lat="45.25974855758249759674072265625" lon="-71.14944552071392536163330078125">
        <ele>632.79998779296875</ele>
        <time>2026-08-22T03:20:09.000Z</time>
        <extensions>
          <ns3:TrackPointExtension>
            <ns3:hr>131</ns3:hr>
            <ns3:cad>0</ns3:cad>
          </ns3:TrackPointExtension>
        </extensions>
      </trkpt>
      <trkpt lat="45.259762220084667205810546875" lon="-71.14945675246417522430419921875">
        <ele>632.79998779296875</ele>
        <time>2026-08-22T03:20:10.000Z</time>
        <extensions>
          <ns3:TrackPointExtension>
            <ns3:hr>132</ns3:hr>
            <ns3:cad>0</ns3:cad>
          </ns3:TrackPointExtension>
        </extensions>
      </trkpt>
      <trkpt lat="45.25977487675845623016357421875" lon="-71.14947284571826457977294921875">
        <ele>633</ele>
        <time>2026-08-22T03:20:11.000Z</time>
        <extensions>
          <ns3:TrackPointExtension>
            <ns3:hr>132</ns3:hr>
            <ns3:cad>0</ns3:cad>
          </ns3:TrackPointExtension>
        </extensions>
      </trkpt>
      <trkpt lat="45.2597865276038646697998046875" lon="-71.1494828201830387115478515625">
        <ele>633.20001220703125</ele>
        <time>2026-08-22T03:20:12.000Z</time>
        <extensions>
          <ns3:TrackPointExtension>
            <ns3:hr>132</ns3:hr>
            <ns3:cad>0</ns3:cad>
          </ns3:TrackPointExtension>
        </extensions>
      </trkpt>
      <trkpt lat="45.25980480015277862548828125" lon="-71.14949011243879795074462890625">
        <ele>633.20001220703125</ele>
        <time>2026-08-22T03:20:13.000Z</time>
        <extensions>
          <ns3:TrackPointExtension>
            <ns3:hr>131</ns3:hr>
            <ns3:cad>0</ns3:cad>
          </ns3:TrackPointExtension>
        </extensions>
      </trkpt>
      <trkpt lat="45.2598156966269016265869140625" lon="-71.14949648268520832061767578125">
        <ele>633.20001220703125</ele>
        <time>2026-08-22T03:20:14.000Z</time>
        <extensions>
          <ns3:TrackPointExtension>
            <ns3:hr>132</ns3:hr>
            <ns3:cad>0</ns3:cad>
          </ns3:TrackPointExtension>
        </extensions>
      </trkpt>
      <trkpt lat="45.2598274312913417816162109375" lon="-71.14950687624514102935791015625">
        <ele>633.4000244140625</ele>
        <time>2026-08-22T03:20:15.000Z</time>
        <extensions>
          <ns3:TrackPointExtension>
            <ns3:hr>132</ns3:hr>
            <ns3:cad>0</ns3:cad>
          </ns3:TrackPointExtension>
        </extensions>
      </trkpt>
      <trkpt lat="45.2598361484706401824951171875" lon="-71.14951458759605884552001953125">
        <ele>633.4000244140625</ele>
        <time>2026-08-22T03:20:16.000Z</time>
        <extensions>
          <ns3:TrackPointExtension>
            <ns3:hr>132</ns3:hr>
            <ns3:cad>0</ns3:cad>
          </ns3:TrackPointExtension>
        </extensions>
      </trkpt>
      <trkpt lat="45.259845368564128875732421875" lon="-71.1495230533182621002197265625">
        <ele>633.4000244140625</ele>
        <time>2026-08-22T03:20:17.000Z</time>
        <extensions>
          <ns3:TrackPointExtension>
            <ns3:hr>132</ns3:hr>
            <ns3:cad>0</ns3:cad>
          </ns3:TrackPointExtension>
        </extensions>
      </trkpt>
      <trkpt lat="45.25985567830502986907958984375" lon="-71.14953001029789447784423828125">
        <ele>633.5999755859375</ele>
        <time>2026-08-22T03:20:18.000Z</time>
        <extensions>
          <ns3:TrackPointExtension>
            <ns3:hr>132</ns3:hr>
            <ns3:cad>0</ns3:cad>
          </ns3:TrackPointExtension>
        </extensions>
      </trkpt>
      <trkpt lat="45.25986573658883571624755859375" lon="-71.14954325370490550994873046875">
        <ele>633.5999755859375</ele>
        <time>2026-08-22T03:20:19.000Z</time>
        <extensions>
          <ns3:TrackPointExtension>
            <ns3:hr>132</ns3:hr>
            <ns3:cad>55</ns3:cad>
          </ns3:TrackPointExtension>
        </extensions>
      </trkpt>
      <trkpt lat="45.25987587869167327880859375" lon="-71.1495545692741870880126953125">
        <ele>633.5999755859375</ele>
        <time>2026-08-22T03:20:20.000Z</time>
        <extensions>
          <ns3:TrackPointExtension>
            <ns3:hr>132</ns3:hr>
            <ns3:cad>55</ns3:cad>
          </ns3:TrackPointExtension>
        </extensions>
      </trkpt>
      <trkpt lat="45.259887278079986572265625" lon="-71.1495636217296123504638671875">
        <ele>633.5999755859375</ele>
        <time>2026-08-22T03:20:21.000Z</time>
        <extensions>
          <ns3:TrackPointExtension>
            <ns3:hr>132</ns3:hr>
            <ns3:cad>55</ns3:cad>
          </ns3:TrackPointExtension>
        </extensions>
      </trkpt>
      <trkpt lat="45.25990345515310764312744140625" lon="-71.14956714212894439697265625">
        <ele>633.79998779296875</ele>
        <time>2026-08-22T03:20:22.000Z</time>
        <extensions>
          <ns3:TrackPointExtension>
            <ns3:hr>133</ns3:hr>
            <ns3:cad>55</ns3:cad>
          </ns3:TrackPointExtension>
        </extensions>
      </trkpt>
      <trkpt lat="45.259918458759784698486328125" lon="-71.14957124926149845123291015625">
        <ele>633.79998779296875</ele>
        <time>2026-08-22T03:20:23.000Z</time>
        <extensions>
          <ns3:TrackPointExtension>
            <ns3:hr>132</ns3:hr>
            <ns3:cad>55</ns3:cad>
          </ns3:TrackPointExtension>
        </extensions>
      </trkpt>
      <trkpt lat="45.2599313668906688690185546875" lon="-71.149574853479862213134765625">
        <ele>634</ele>
        <time>2026-08-22T03:20:24.000Z</time>
        <extensions>
          <ns3:TrackPointExtension>
            <ns3:hr>132</ns3:hr>
            <ns3:cad>55</ns3:cad>
          </ns3:TrackPointExtension>
        </extensions>
      </trkpt>
      <trkpt lat="45.25994720868766307830810546875" lon="-71.1495743505656719207763671875">
        <ele>634</ele>
        <time>2026-08-22T03:20:25.000Z</time>
        <extensions>
          <ns3:TrackPointExtension>
            <ns3:hr>132</ns3:hr>
            <ns3:cad>55</ns3:cad>
          </ns3:TrackPointExtension>
        </extensions>
      </trkpt>
      <trkpt lat="45.25996581651270389556884765625" lon="-71.14957611076533794403076171875">
        <ele>634.20001220703125</ele>
        <time>2026-08-22T03:20:26.000Z</time>
        <extensions>
          <ns3:TrackPointExtension>
            <ns3:hr>132</ns3:hr>
            <ns3:cad>55</ns3:cad>
          </ns3:TrackPointExtension>
        </extensions>
      </trkpt>
      <trkpt lat="45.25998174212872982025146484375" lon="-71.1495756916701793670654296875">
        <ele>634.20001220703125</ele>
        <time>2026-08-22T03:20:27.000Z</time>
        <extensions>
          <ns3:TrackPointExtension>
            <ns3:hr>133</ns3:hr>
            <ns3:cad>55</ns3:cad>
          </ns3:TrackPointExtension>
        </extensions>
      </trkpt>
      <trkpt lat="45.2599943988025188446044921875" lon="-71.14957694895565509796142578125">
        <ele>634.4000244140625</ele>
        <time>2026-08-22T03:20:28.000Z</time>
        <extensions>
          <ns3:TrackPointExtension>
            <ns3:hr>133</ns3:hr>
            <ns3:cad>53</ns3:cad>
          </ns3:TrackPointExtension>
        </extensions>
      </trkpt>
      <trkpt lat="45.2600078098475933074951171875" lon="-71.1495793797075748443603515625">
        <ele>634.4000244140625</ele>
        <time>2026-08-22T03:20:29.000Z</time>
        <extensions>
          <ns3:TrackPointExtension>
            <ns3:hr>133</ns3:hr>
            <ns3:cad>53</ns3:cad>
          </ns3:TrackPointExtension>
        </extensions>
      </trkpt>
      <trkpt lat="45.26001828722655773162841796875" lon="-71.1495810560882091522216796875">
        <ele>634.4000244140625</ele>
        <time>2026-08-22T03:20:30.000Z</time>
        <extensions>
          <ns3:TrackPointExtension>
            <ns3:hr>133</ns3:hr>
            <ns3:cad>53</ns3:cad>
          </ns3:TrackPointExtension>
        </extensions>
      </trkpt>
      <trkpt lat="45.260034464299678802490234375" lon="-71.1495865881443023681640625">
        <ele>634.4000244140625</ele>
        <time>2026-08-22T03:20:31.000Z</time>
        <extensions>
          <ns3:TrackPointExtension>
            <ns3:hr>133</ns3:hr>
            <ns3:cad>53</ns3:cad>
          </ns3:TrackPointExtension>
        </extensions>
      </trkpt>
      <trkpt lat="45.26004862971603870391845703125" lon="-71.14959128201007843017578125">
        <ele>634.5999755859375</ele>
        <time>2026-08-22T03:20:32.000Z</time>
        <extensions>
          <ns3:TrackPointExtension>
            <ns3:hr>133</ns3:hr>
            <ns3:cad>53</ns3:cad>
          </ns3:TrackPointExtension>
        </extensions>
      </trkpt>
      <trkpt lat="45.26006673462688922882080078125" lon="-71.149593293666839599609375">
        <ele>634.5999755859375</ele>
        <time>2026-08-22T03:20:33.000Z</time>
        <extensions>
          <ns3:TrackPointExtension>
            <ns3:hr>134</ns3:hr>
            <ns3:cad>0</ns3:cad>
          </ns3:TrackPointExtension>
        </extensions>
      </trkpt>
      <trkpt lat="45.2600772120058536529541015625" lon="-71.14959354512393474578857421875">
        <ele>634.5999755859375</ele>
        <time>2026-08-22T03:20:34.000Z</time>
        <extensions>
          <ns3:TrackPointExtension>
            <ns3:hr>134</ns3:hr>
            <ns3:cad>0</ns3:cad>
          </ns3:TrackPointExtension>
        </extensions>
      </trkpt>
      <trkpt lat="45.260098837316036224365234375" lon="-71.14960226230323314666748046875">
        <ele>634.79998779296875</ele>
        <time>2026-08-22T03:20:35.000Z</time>
        <extensions>
          <ns3:TrackPointExtension>
            <ns3:hr>134</ns3:hr>
            <ns3:cad>0</ns3:cad>
          </ns3:TrackPointExtension>
        </extensions>
      </trkpt>
      <trkpt lat="45.26011769659817218780517578125" lon="-71.14961005747318267822265625">
        <ele>634.79998779296875</ele>
        <time>2026-08-22T03:20:36.000Z</time>
        <extensions>
          <ns3:TrackPointExtension>
            <ns3:hr>134</ns3:hr>
            <ns3:cad>0</ns3:cad>
          </ns3:TrackPointExtension>
        </extensions>
      </trkpt>
      <trkpt lat="45.260136388242244720458984375" lon="-71.14961399696767330169677734375">
        <ele>635</ele>
        <time>2026-08-22T03:20:37.000Z</time>
        <extensions>
          <ns3:TrackPointExtension>
            <ns3:hr>134</ns3:hr>
            <ns3:cad>0</ns3:cad>
          </ns3:TrackPointExtension>
        </extensions>
      </trkpt>
      <trkpt lat="45.26016044430434703826904296875" lon="-71.149620115756988525390625">
        <ele>635.20001220703125</ele>
        <time>2026-08-22T03:20:38.000Z</time>
        <extensions>
          <ns3:TrackPointExtension>
            <ns3:hr>134</ns3:hr>
            <ns3:cad>0</ns3:cad>
          </ns3:TrackPointExtension>
        </extensions>
      </trkpt>
      <trkpt lat="45.26018139906227588653564453125" lon="-71.14963243715465068817138671875">
        <ele>635.20001220703125</ele>
        <time>2026-08-22T03:20:39.000Z</time>
        <extensions>
          <ns3:TrackPointExtension>
            <ns3:hr>135</ns3:hr>
            <ns3:cad>0</ns3:cad>
          </ns3:TrackPointExtension>
        </extensions>
      </trkpt>
      <trkpt lat="45.26020704768598079681396484375" lon="-71.14964090287685394287109375">
        <ele>635.4000244140625</ele>
        <time>2026-08-22T03:20:40.000Z</time>
        <extensions>
          <ns3:TrackPointExtension>
            <ns3:hr>134</ns3:hr>
            <ns3:cad>0</ns3:cad>
          </ns3:TrackPointExtension>
        </extensions>
      </trkpt>
      <trkpt lat="45.26022213511168956756591796875" lon="-71.149645932018756866455078125">
        <ele>635.5999755859375</ele>
        <time>2026-08-22T03:20:41.000Z</time>
        <extensions>
          <ns3:TrackPointExtension>
            <ns3:hr>134</ns3:hr>
            <ns3:cad>0</ns3:cad>
          </ns3:TrackPointExtension>
        </extensions>
      </trkpt>
      <trkpt lat="45.26023705489933490753173828125" lon="-71.14964081905782222747802734375">
        <ele>635.5999755859375</ele>
        <time>2026-08-22T03:20:42.000Z</time>
        <extensions>
          <ns3:TrackPointExtension>
            <ns3:hr>135</ns3:hr>
            <ns3:cad>0</ns3:cad>
          </ns3:TrackPointExtension>
        </extensions>
      </trkpt>
      <trkpt lat="45.260246694087982177734375" lon="-71.1496380530297756195068359375">
        <ele>635.79998779296875</ele>
        <time>2026-08-22T03:20:43.000Z</time>
        <extensions>
          <ns3:TrackPointExtension>
            <ns3:hr>135</ns3:hr>
            <ns3:cad>0</ns3:cad>
          </ns3:TrackPointExtension>
        </extensions>
      </trkpt>
      <trkpt lat="45.2602616138756275177001953125" lon="-71.14964165724813938140869140625">
        <ele>635.79998779296875</ele>
        <time>2026-08-22T03:20:44.000Z</time>
        <extensions>
          <ns3:TrackPointExtension>
            <ns3:hr>135</ns3:hr>
            <ns3:cad>0</ns3:cad>
          </ns3:TrackPointExtension>
        </extensions>
      </trkpt>
      <trkpt lat="45.26027527637779712677001953125" lon="-71.14964316599071025848388671875">
        <ele>636</ele>
        <time>2026-08-22T03:20:45.000Z</time>
        <extensions>
          <ns3:TrackPointExtension>
            <ns3:hr>136</ns3:hr>
            <ns3:cad>73</ns3:cad>
          </ns3:TrackPointExtension>
        </extensions>
      </trkpt>
      <trkpt lat="45.26028399355709552764892578125" lon="-71.1496363766491413116455078125">
        <ele>636</ele>
        <time>2026-08-22T03:20:46.000Z</time>
        <extensions>
          <ns3:TrackPointExtension>
            <ns3:hr>136</ns3:hr>
            <ns3:cad>73</ns3:cad>
          </ns3:TrackPointExtension>
        </extensions>
      </trkpt>
      <trkpt lat="45.26028617285192012786865234375" lon="-71.14962522871792316436767578125">
        <ele>636</ele>
        <time>2026-08-22T03:20:47.000Z</time>
        <extensions>
          <ns3:TrackPointExtension>
            <ns3:hr>136</ns3:hr>
            <ns3:cad>73</ns3:cad>
          </ns3:TrackPointExtension>
        </extensions>
      </trkpt>
      <trkpt lat="45.2602963149547576904296875" lon="-71.14962036721408367156982421875">
        <ele>636</ele>
        <time>2026-08-22T03:20:48.000Z</time>
        <extensions>
          <ns3:TrackPointExtension>
            <ns3:hr>136</ns3:hr>
            <ns3:cad>0</ns3:cad>
          </ns3:TrackPointExtension>
        </extensions>
      </trkpt>
      <trkpt lat="45.26030813343822956085205078125" lon="-71.14962103776633739471435546875">
        <ele>636</ele>
        <time>2026-08-22T03:20:49.000Z</time>
        <extensions>
          <ns3:TrackPointExtension>
            <ns3:hr>137</ns3:hr>
            <ns3:cad>0</ns3:cad>
          </ns3:TrackPointExtension>
        </extensions>
      </trkpt>
      <trkpt lat="45.260316096246242523193359375" lon="-71.1496243067085742950439453125">
        <ele>636</ele>
        <time>2026-08-22T03:20:50.000Z</time>
        <extensions>
          <ns3:TrackPointExtension>
            <ns3:hr>137</ns3:hr>
            <ns3:cad>0</ns3:cad>
          </ns3:TrackPointExtension>
        </extensions>
      </trkpt>
      <trkpt lat="45.26032422669231891632080078125" lon="-71.14963059313595294952392578125">
        <ele>636.20001220703125</ele>
        <time>2026-08-22T03:20:51.000Z</time>
        <extensions>
          <ns3:TrackPointExtension>
            <ns3:hr>138</ns3:hr>
            <ns3:cad>0</ns3:cad>
          </ns3:TrackPointExtension>
        </extensions>
      </trkpt>
      <trkpt lat="45.2603377215564250946044921875" lon="-71.1496388912200927734375">
        <ele>636.20001220703125</ele>
        <time>2026-08-22T03:20:52.000Z</time>
        <extensions>
          <ns3:TrackPointExtension>
            <ns3:hr>137</ns3:hr>
            <ns3:cad>0</ns3:cad>
          </ns3:TrackPointExtension>
        </extensions>
      </trkpt>
      <trkpt lat="45.2603526413440704345703125" lon="-71.14964568056166172027587890625">
        <ele>636.4000244140625</ele>
        <time>2026-08-22T03:20:53.000Z</time>
        <extensions>
          <ns3:TrackPointExtension>
            <ns3:hr>137</ns3:hr>
            <ns3:cad>0</ns3:cad>
          </ns3:TrackPointExtension>
        </extensions>
      </trkpt>
      <trkpt lat="45.2603632025420665740966796875" lon="-71.14965188317000865936279296875">
        <ele>636.5999755859375</ele>
        <time>2026-08-22T03:20:54.000Z</time>
        <extensions>
          <ns3:TrackPointExtension>
            <ns3:hr>137</ns3:hr>
            <ns3:cad>0</ns3:cad>
          </ns3:TrackPointExtension>
        </extensions>
      </trkpt>
      <trkpt lat="45.260374434292316436767578125" lon="-71.149663366377353668212890625">
        <ele>637</ele>
        <time>2026-08-22T03:20:55.000Z</time>
        <extensions>
          <ns3:TrackPointExtension>
            <ns3:hr>136</ns3:hr>
            <ns3:cad>0</ns3:cad>
          </ns3:TrackPointExtension>
        </extensions>
      </trkpt>
      <trkpt lat="45.2603843249380588531494140625" lon="-71.14967451430857181549072265625">
        <ele>637.20001220703125</ele>
        <time>2026-08-22T03:20:56.000Z</time>
        <extensions>
          <ns3:TrackPointExtension>
            <ns3:hr>136</ns3:hr>
            <ns3:cad>0</ns3:cad>
          </ns3:TrackPointExtension>
        </extensions>
      </trkpt>
      <trkpt lat="45.26039714924991130828857421875" lon="-71.14968524314463138580322265625">
        <ele>637.5999755859375</ele>
        <time>2026-08-22T03:20:57.000Z</time>
        <extensions>
          <ns3:TrackPointExtension>
            <ns3:hr>136</ns3:hr>
            <ns3:cad>72</ns3:cad>
          </ns3:TrackPointExtension>
        </extensions>
      </trkpt>
      <trkpt lat="45.26040553115308284759521484375" lon="-71.14968423731625080108642578125">
        <ele>637.79998779296875</ele>
        <time>2026-08-22T03:20:58.000Z</time>
        <extensions>
          <ns3:TrackPointExtension>
            <ns3:hr>136</ns3:hr>
            <ns3:cad>72</ns3:cad>
          </ns3:TrackPointExtension>
        </extensions>
      </trkpt>
      <trkpt lat="45.2604181878268718719482421875" lon="-71.149684488773345947265625">
        <ele>638</ele>
        <time>2026-08-22T03:20:59.000Z</time>
        <extensions>
          <ns3:TrackPointExtension>
            <ns3:hr>136</ns3:hr>
            <ns3:cad>71</ns3:cad>
          </ns3:TrackPointExtension>
        </extensions>
      </trkpt>
      <trkpt lat="45.2604349516332149505615234375" lon="-71.14968457259237766265869140625">
        <ele>638.20001220703125</ele>
        <time>2026-08-22T03:21:00.000Z</time>
        <extensions>
          <ns3:TrackPointExtension>
            <ns3:hr>136</ns3:hr>
            <ns3:cad>71</ns3:cad>
          </ns3:TrackPointExtension>
        </extensions>
      </trkpt>
      <trkpt lat="45.26045146398246288299560546875" lon="-71.1496849916875362396240234375">
        <ele>638.20001220703125</ele>
        <time>2026-08-22T03:21:01.000Z</time>
        <extensions>
          <ns3:TrackPointExtension>
            <ns3:hr>137</ns3:hr>
            <ns3:cad>71</ns3:cad>
          </ns3:TrackPointExtension>
        </extensions>
      </trkpt>
      <trkpt lat="45.26046286337077617645263671875" lon="-71.149685494601726531982421875">
        <ele>638.20001220703125</ele>
        <time>2026-08-22T03:21:02.000Z</time>
        <extensions>
          <ns3:TrackPointExtension>
            <ns3:hr>138</ns3:hr>
            <ns3:cad>71</ns3:cad>
          </ns3:TrackPointExtension>
        </extensions>
      </trkpt>
      <trkpt lat="45.2604785375297069549560546875" lon="-71.14968918263912200927734375">
        <ele>638.20001220703125</ele>
        <time>2026-08-22T03:21:03.000Z</time>
        <extensions>
          <ns3:TrackPointExtension>
            <ns3:hr>138</ns3:hr>
            <ns3:cad>71</ns3:cad>
          </ns3:TrackPointExtension>
        </extensions>
      </trkpt>
      <trkpt lat="45.2604909427464008331298828125" lon="-71.14969077520072460174560546875">
        <ele>638.4000244140625</ele>
        <time>2026-08-22T03:21:04.000Z</time>
        <extensions>
          <ns3:TrackPointExtension>
            <ns3:hr>139</ns3:hr>
            <ns3:cad>0</ns3:cad>
          </ns3:TrackPointExtension>
        </extensions>
      </trkpt>
      <trkpt lat="45.260509550571441650390625" lon="-71.149703599512577056884765625">
        <ele>638.4000244140625</ele>
        <time>2026-08-22T03:21:05.000Z</time>
        <extensions>
          <ns3:TrackPointExtension>
            <ns3:hr>139</ns3:hr>
            <ns3:cad>0</ns3:cad>
          </ns3:TrackPointExtension>
        </extensions>
      </trkpt>
      <trkpt lat="45.26051717810332775115966796875" lon="-71.149710975587368011474609375">
        <ele>638.4000244140625</ele>
        <time>2026-08-22T03:21:06.000Z</time>
        <extensions>
          <ns3:TrackPointExtension>
            <ns3:hr>139</ns3:hr>
            <ns3:cad>0</ns3:cad>
          </ns3:TrackPointExtension>
        </extensions>
      </trkpt>
      <trkpt lat="45.26053704321384429931640625" lon="-71.14972497336566448211669921875">
        <ele>638.5999755859375</ele>
        <time>2026-08-22T03:21:07.000Z</time>
        <extensions>
          <ns3:TrackPointExtension>
            <ns3:hr>139</ns3:hr>
            <ns3:cad>0</ns3:cad>
          </ns3:TrackPointExtension>
        </extensions>
      </trkpt>
      <trkpt lat="45.26055120863020420074462890625" lon="-71.14973033778369426727294921875">
        <ele>638.79998779296875</ele>
        <time>2026-08-22T03:21:08.000Z</time>
        <extensions>
          <ns3:TrackPointExtension>
            <ns3:hr>139</ns3:hr>
            <ns3:cad>0</ns3:cad>
          </ns3:TrackPointExtension>
        </extensions>
      </trkpt>
      <trkpt lat="45.2605640329420566558837890625" lon="-71.149739138782024383544921875">
        <ele>639.20001220703125</ele>
        <time>2026-08-22T03:21:09.000Z</time>
        <extensions>
          <ns3:TrackPointExtension>
            <ns3:hr>139</ns3:hr>
            <ns3:cad>0</ns3:cad>
          </ns3:TrackPointExtension>
        </extensions>
      </trkpt>
      <trkpt lat="45.26057752780616283416748046875" lon="-71.1497429944574832916259765625">
        <ele>639.20001220703125</ele>
        <time>2026-08-22T03:21:10.000Z</time>
        <extensions>
          <ns3:TrackPointExtension>
            <ns3:hr>139</ns3:hr>
            <ns3:cad>0</ns3:cad>
          </ns3:TrackPointExtension>
        </extensions>
      </trkpt>
      <trkpt lat="45.260586328804492950439453125" lon="-71.14974014461040496826171875">
        <ele>639.4000244140625</ele>
        <time>2026-08-22T03:21:11.000Z</time>
        <extensions>
          <ns3:TrackPointExtension>
            <ns3:hr>139</ns3:hr>
            <ns3:cad>0</ns3:cad>
          </ns3:TrackPointExtension>
        </extensions>
      </trkpt>
      <trkpt lat="45.26059714145958423614501953125" lon="-71.14972899667918682098388671875">
        <ele>639.4000244140625</ele>
        <time>2026-08-22T03:21:12.000Z</time>
        <extensions>
          <ns3:TrackPointExtension>
            <ns3:hr>139</ns3:hr>
            <ns3:cad>0</ns3:cad>
          </ns3:TrackPointExtension>
        </extensions>
      </trkpt>
      <trkpt lat="45.26060619391500949859619140625" lon="-71.14972002804279327392578125">
        <ele>639.20001220703125</ele>
        <time>2026-08-22T03:21:13.000Z</time>
        <extensions>
          <ns3:TrackPointExtension>
            <ns3:hr>139</ns3:hr>
            <ns3:cad>0</ns3:cad>
          </ns3:TrackPointExtension>
        </extensions>
      </trkpt>
      <trkpt lat="45.26060812175273895263671875" lon="-71.14971357397735118865966796875">
        <ele>639.20001220703125</ele>
        <time>2026-08-22T03:21:14.000Z</time>
        <extensions>
          <ns3:TrackPointExtension>
            <ns3:hr>139</ns3:hr>
            <ns3:cad>0</ns3:cad>
          </ns3:TrackPointExtension>
        </extensions>
      </trkpt>
      <trkpt lat="45.26061885058879852294921875" lon="-71.14970586262643337249755859375">
        <ele>639</ele>
        <time>2026-08-22T03:21:15.000Z</time>
        <extensions>
          <ns3:TrackPointExtension>
            <ns3:hr>139</ns3:hr>
            <ns3:cad>0</ns3:cad>
          </ns3:TrackPointExtension>
        </extensions>
      </trkpt>
      <trkpt lat="45.2606307528913021087646484375" lon="-71.1497027613222599029541015625">
        <ele>639</ele>
        <time>2026-08-22T03:21:16.000Z</time>
        <extensions>
          <ns3:TrackPointExtension>
            <ns3:hr>140</ns3:hr>
            <ns3:cad>53</ns3:cad>
          </ns3:TrackPointExtension>
        </extensions>
      </trkpt>
      <trkpt lat="45.26064525358378887176513671875" lon="-71.1496967263519763946533203125">
        <ele>638.79998779296875</ele>
        <time>2026-08-22T03:21:17.000Z</time>
        <extensions>
          <ns3:TrackPointExtension>
            <ns3:hr>140</ns3:hr>
            <ns3:cad>53</ns3:cad>
          </ns3:TrackPointExtension>
        </extensions>
      </trkpt>
      <trkpt lat="45.2606584131717681884765625" lon="-71.1496876738965511322021484375">
        <ele>638.5999755859375</ele>
        <time>2026-08-22T03:21:18.000Z</time>
        <extensions>
          <ns3:TrackPointExtension>
            <ns3:hr>140</ns3:hr>
            <ns3:cad>53</ns3:cad>
          </ns3:TrackPointExtension>
        </extensions>
      </trkpt>
      <trkpt lat="45.26066847145557403564453125" lon="-71.14968088455498218536376953125">
        <ele>638.4000244140625</ele>
        <time>2026-08-22T03:21:19.000Z</time>
        <extensions>
          <ns3:TrackPointExtension>
            <ns3:hr>140</ns3:hr>
            <ns3:cad>53</ns3:cad>
          </ns3:TrackPointExtension>
        </extensions>
      </trkpt>
      <trkpt lat="45.2606766857206821441650390625" lon="-71.14967803470790386199951171875">
        <ele>638.20001220703125</ele>
        <time>2026-08-22T03:21:20.000Z</time>
        <extensions>
          <ns3:TrackPointExtension>
            <ns3:hr>140</ns3:hr>
            <ns3:cad>53</ns3:cad>
          </ns3:TrackPointExtension>
        </extensions>
      </trkpt>
      <trkpt lat="45.26069588027894496917724609375" lon="-71.14967451430857181549072265625">
        <ele>638.20001220703125</ele>
        <time>2026-08-22T03:21:21.000Z</time>
        <extensions>
          <ns3:TrackPointExtension>
            <ns3:hr>140</ns3:hr>
            <ns3:cad>0</ns3:cad>
          </ns3:TrackPointExtension>
        </extensions>
      </trkpt>
      <trkpt lat="45.260708369314670562744140625" lon="-71.14967132918536663055419921875">
        <ele>638.20001220703125</ele>
        <time>2026-08-22T03:21:22.000Z</time>
        <extensions>
          <ns3:TrackPointExtension>
            <ns3:hr>140</ns3:hr>
            <ns3:cad>0</ns3:cad>
          </ns3:TrackPointExtension>
        </extensions>
      </trkpt>
      <trkpt lat="45.260720439255237579345703125" lon="-71.14966831170022487640380859375">
        <ele>638.20001220703125</ele>
        <time>2026-08-22T03:21:23.000Z</time>
        <extensions>
          <ns3:TrackPointExtension>
            <ns3:hr>140</ns3:hr>
            <ns3:cad>0</ns3:cad>
          </ns3:TrackPointExtension>
        </extensions>
      </trkpt>
      <trkpt lat="45.260731838643550872802734375" lon="-71.149664707481861114501953125">
        <ele>638.4000244140625</ele>
        <time>2026-08-22T03:21:24.000Z</time>
        <extensions>
          <ns3:TrackPointExtension>
            <ns3:hr>140</ns3:hr>
            <ns3:cad>0</ns3:cad>
          </ns3:TrackPointExtension>
        </extensions>
      </trkpt>
      <trkpt lat="45.26074416004121303558349609375" lon="-71.14966076798737049102783203125">
        <ele>638.4000244140625</ele>
        <time>2026-08-22T03:21:25.000Z</time>
        <extensions>
          <ns3:TrackPointExtension>
            <ns3:hr>140</ns3:hr>
            <ns3:cad>0</ns3:cad>
          </ns3:TrackPointExtension>
        </extensions>
      </trkpt>
      <trkpt lat="45.26075254194438457489013671875" lon="-71.14966236054897308349609375">
        <ele>638.5999755859375</ele>
        <time>2026-08-22T03:21:26.000Z</time>
        <extensions>
          <ns3:TrackPointExtension>
            <ns3:hr>139</ns3:hr>
            <ns3:cad>0</ns3:cad>
          </ns3:TrackPointExtension>
        </extensions>
      </trkpt>
      <trkpt lat="45.26076578535139560699462890625" lon="-71.14966428838670253753662109375">
        <ele>638.5999755859375</ele>
        <time>2026-08-22T03:21:27.000Z</time>
        <extensions>
          <ns3:TrackPointExtension>
            <ns3:hr>139</ns3:hr>
            <ns3:cad>0</ns3:cad>
          </ns3:TrackPointExtension>
        </extensions>
      </trkpt>
      <trkpt lat="45.26077986694872379302978515625" lon="-71.1496672220528125762939453125">
        <ele>638.79998779296875</ele>
        <time>2026-08-22T03:21:28.000Z</time>
        <extensions>
          <ns3:TrackPointExtension>
            <ns3:hr>139</ns3:hr>
            <ns3:cad>0</ns3:cad>
          </ns3:TrackPointExtension>
        </extensions>
      </trkpt>
      <trkpt lat="45.26078917086124420166015625" lon="-71.1496625281870365142822265625">
        <ele>638.79998779296875</ele>
        <time>2026-08-22T03:21:29.000Z</time>
        <extensions>
          <ns3:TrackPointExtension>
            <ns3:hr>139</ns3:hr>
            <ns3:cad>0</ns3:cad>
          </ns3:TrackPointExtension>
        </extensions>
      </trkpt>
      <trkpt lat="45.260798893868923187255859375" lon="-71.14965171553194522857666015625">
        <ele>638.79998779296875</ele>
        <time>2026-08-22T03:21:30.000Z</time>
        <extensions>
          <ns3:TrackPointExtension>
            <ns3:hr>139</ns3:hr>
            <ns3:cad>0</ns3:cad>
          </ns3:TrackPointExtension>
        </extensions>
      </trkpt>
      <trkpt lat="45.260806269943714141845703125" lon="-71.14964383654296398162841796875">
        <ele>639</ele>
        <time>2026-08-22T03:21:31.000Z</time>
        <extensions>
          <ns3:TrackPointExtension>
            <ns3:hr>139</ns3:hr>
            <ns3:cad>0</ns3:cad>
          </ns3:TrackPointExtension>
        </extensions>
      </trkpt>
      <trkpt lat="45.26081507094204425811767578125" lon="-71.14963763393461704254150390625">
        <ele>639</ele>
        <time>2026-08-22T03:21:32.000Z</time>
        <extensions>
          <ns3:TrackPointExtension>
            <ns3:hr>139</ns3:hr>
            <ns3:cad>0</ns3:cad>
          </ns3:TrackPointExtension>
        </extensions>
      </trkpt>
      <trkpt lat="45.260831750929355621337890625" lon="-71.14962707273662090301513671875">
        <ele>639</ele>
        <time>2026-08-22T03:21:33.000Z</time>
        <extensions>
          <ns3:TrackPointExtension>
            <ns3:hr>138</ns3:hr>
            <ns3:cad>0</ns3:cad>
          </ns3:TrackPointExtension>
        </extensions>
      </trkpt>
      <trkpt lat="45.26084055192768573760986328125" lon="-71.149625144898891448974609375">
        <ele>639.20001220703125</ele>
        <time>2026-08-22T03:21:34.000Z</time>
        <extensions>
          <ns3:TrackPointExtension>
            <ns3:hr>139</ns3:hr>
            <ns3:cad>0</ns3:cad>
          </ns3:TrackPointExtension>
        </extensions>
      </trkpt>
      <trkpt lat="45.26085815392434597015380859375" lon="-71.14962749183177947998046875">
        <ele>639.20001220703125</ele>
        <time>2026-08-22T03:21:35.000Z</time>
        <extensions>
          <ns3:TrackPointExtension>
            <ns3:hr>138</ns3:hr>
            <ns3:cad>0</ns3:cad>
          </ns3:TrackPointExtension>
        </extensions>
      </trkpt>
      <trkpt lat="45.26087542064487934112548828125" lon="-71.14962975494563579559326171875">
        <ele>639.20001220703125</ele>
        <time>2026-08-22T03:21:36.000Z</time>
        <extensions>
          <ns3:TrackPointExtension>
            <ns3:hr>138</ns3:hr>
            <ns3:cad>0</ns3:cad>
          </ns3:TrackPointExtension>
        </extensions>
      </trkpt>
      <trkpt lat="45.260890759527683258056640625" lon="-71.149634532630443572998046875">
        <ele>639.4000244140625</ele>
        <time>2026-08-22T03:21:37.000Z</time>
        <extensions>
          <ns3:TrackPointExtension>
            <ns3:hr>138</ns3:hr>
            <ns3:cad>0</ns3:cad>
          </ns3:TrackPointExtension>
        </extensions>
      </trkpt>
      <trkpt lat="45.26090492494404315948486328125" lon="-71.14962480962276458740234375">
        <ele>639.5999755859375</ele>
        <time>2026-08-22T03:21:38.000Z</time>
        <extensions>
          <ns3:TrackPointExtension>
            <ns3:hr>137</ns3:hr>
            <ns3:cad>0</ns3:cad>
          </ns3:TrackPointExtension>
        </extensions>
      </trkpt>
      <trkpt lat="45.26091850362718105316162109375" lon="-71.1496139131486415863037109375">
        <ele>639.5999755859375</ele>
        <time>2026-08-22T03:21:39.000Z</time>
        <extensions>
          <ns3:TrackPointExtension>
            <ns3:hr>137</ns3:hr>
            <ns3:cad>0</ns3:cad>
          </ns3:TrackPointExtension>
        </extensions>
      </trkpt>
      <trkpt lat="45.260928981006145477294921875" lon="-71.14960712380707263946533203125">
        <ele>639.79998779296875</ele>
        <time>2026-08-22T03:21:40.000Z</time>
        <extensions>
          <ns3:TrackPointExtension>
            <ns3:hr>138</ns3:hr>
            <ns3:cad>0</ns3:cad>
          </ns3:TrackPointExtension>
        </extensions>
      </trkpt>
      <trkpt lat="45.26094012893736362457275390625" lon="-71.1495994962751865386962890625">
        <ele>640</ele>
        <time>2026-08-22T03:21:41.000Z</time>
        <extensions>
          <ns3:TrackPointExtension>
            <ns3:hr>138</ns3:hr>
            <ns3:cad>0</ns3:cad>
          </ns3:TrackPointExtension>
        </extensions>
      </trkpt>
      <trkpt lat="45.2609586529433727264404296875" lon="-71.14958952181041240692138671875">
        <ele>640</ele>
        <time>2026-08-22T03:21:42.000Z</time>
        <extensions>
          <ns3:TrackPointExtension>
            <ns3:hr>138</ns3:hr>
            <ns3:cad>0</ns3:cad>
          </ns3:TrackPointExtension>
        </extensions>
      </trkpt>
      <trkpt lat="45.26097365655004978179931640625" lon="-71.14958231337368488311767578125">
        <ele>640.20001220703125</ele>
        <time>2026-08-22T03:21:43.000Z</time>
        <extensions>
          <ns3:TrackPointExtension>
            <ns3:hr>137</ns3:hr>
            <ns3:cad>0</ns3:cad>
          </ns3:TrackPointExtension>
        </extensions>
      </trkpt>
      <trkpt lat="45.2609936892986297607421875" lon="-71.14957359619438648223876953125">
        <ele>640.20001220703125</ele>
        <time>2026-08-22T03:21:44.000Z</time>
        <extensions>
          <ns3:TrackPointExtension>
            <ns3:hr>138</ns3:hr>
            <ns3:cad>0</ns3:cad>
          </ns3:TrackPointExtension>
        </extensions>
      </trkpt>
      <trkpt lat="45.26101447641849517822265625" lon="-71.14956504665315151214599609375">
        <ele>640.20001220703125</ele>
        <time>2026-08-22T03:21:45.000Z</time>
        <extensions>
          <ns3:TrackPointExtension>
            <ns3:hr>138</ns3:hr>
            <ns3:cad>71</ns3:cad>
          </ns3:TrackPointExtension>
        </extensions>
      </trkpt>
      <trkpt lat="45.26103132404386997222900390625" lon="-71.1495549045503139495849609375">
        <ele>640.20001220703125</ele>
        <time>2026-08-22T03:21:46.000Z</time>
        <extensions>
          <ns3:TrackPointExtension>
            <ns3:hr>138</ns3:hr>
            <ns3:cad>71</ns3:cad>
          </ns3:TrackPointExtension>
        </extensions>
      </trkpt>
      <trkpt lat="45.261051692068576812744140625" lon="-71.14954434335231781005859375">
        <ele>640.20001220703125</ele>
        <time>2026-08-22T03:21:47.000Z</time>
        <extensions>
          <ns3:TrackPointExtension>
            <ns3:hr>138</ns3:hr>
            <ns3:cad>73</ns3:cad>
          </ns3:TrackPointExtension>
        </extensions>
      </trkpt>
      <trkpt lat="45.261066444218158721923828125" lon="-71.14954157732427120208740234375">
        <ele>640.4000244140625</ele>
        <time>2026-08-22T03:21:48.000Z</time>
        <extensions>
          <ns3:TrackPointExtension>
            <ns3:hr>138</ns3:hr>
            <ns3:cad>73</ns3:cad>
          </ns3:TrackPointExtension>
        </extensions>
      </trkpt>
      <trkpt lat="45.261085219681262969970703125" lon="-71.14954358898103237152099609375">
        <ele>640.4000244140625</ele>
        <time>2026-08-22T03:21:49.000Z</time>
        <extensions>
          <ns3:TrackPointExtension>
            <ns3:hr>138</ns3:hr>
            <ns3:cad>73</ns3:cad>
          </ns3:TrackPointExtension>
        </extensions>
      </trkpt>
      <trkpt lat="45.26110290549695491790771484375" lon="-71.14954493008553981781005859375">
        <ele>640.5999755859375</ele>
        <time>2026-08-22T03:21:50.000Z</time>
        <extensions>
          <ns3:TrackPointExtension>
            <ns3:hr>139</ns3:hr>
            <ns3:cad>73</ns3:cad>
          </ns3:TrackPointExtension>
        </extensions>
      </trkpt>
      <trkpt lat="45.261118076741695404052734375" lon="-71.14953855983912944793701171875">
        <ele>640.5999755859375</ele>
        <time>2026-08-22T03:21:51.000Z</time>
        <extensions>
          <ns3:TrackPointExtension>
            <ns3:hr>139</ns3:hr>
            <ns3:cad>73</ns3:cad>
          </ns3:TrackPointExtension>
        </extensions>
      </trkpt>
      <trkpt lat="45.26113173924386501312255859375" lon="-71.14953470416367053985595703125">
        <ele>640.79998779296875</ele>
        <time>2026-08-22T03:21:52.000Z</time>
        <extensions>
          <ns3:TrackPointExtension>
            <ns3:hr>140</ns3:hr>
            <ns3:cad>73</ns3:cad>
          </ns3:TrackPointExtension>
        </extensions>
      </trkpt>
      <trkpt lat="45.2611447311937808990478515625" lon="-71.149528920650482177734375">
        <ele>640.79998779296875</ele>
        <time>2026-08-22T03:21:53.000Z</time>
        <extensions>
          <ns3:TrackPointExtension>
            <ns3:hr>140</ns3:hr>
            <ns3:cad>73</ns3:cad>
          </ns3:TrackPointExtension>
        </extensions>
      </trkpt>
      <trkpt lat="45.2611564658582210540771484375" lon="-71.1495248973369598388671875">
        <ele>641</ele>
        <time>2026-08-22T03:21:54.000Z</time>
        <extensions>
          <ns3:TrackPointExtension>
            <ns3:hr>140</ns3:hr>
            <ns3:cad>73</ns3:cad>
          </ns3:TrackPointExtension>
        </extensions>
      </trkpt>
      <trkpt lat="45.26116929017007350921630859375" lon="-71.14951483905315399169921875">
        <ele>641</ele>
        <time>2026-08-22T03:21:55.000Z</time>
        <extensions>
          <ns3:TrackPointExtension>
            <ns3:hr>139</ns3:hr>
            <ns3:cad>73</ns3:cad>
          </ns3:TrackPointExtension>
        </extensions>
      </trkpt>
      <trkpt lat="45.26118286885321140289306640625" lon="-71.14950872026383876800537109375">
        <ele>641</ele>
        <time>2026-08-22T03:21:56.000Z</time>
        <extensions>
          <ns3:TrackPointExtension>
            <ns3:hr>138</ns3:hr>
            <ns3:cad>73</ns3:cad>
          </ns3:TrackPointExtension>
        </extensions>
      </trkpt>
      <trkpt lat="45.26119695045053958892822265625" lon="-71.149508468806743621826171875">
        <ele>641</ele>
        <time>2026-08-22T03:21:57.000Z</time>
        <extensions>
          <ns3:TrackPointExtension>
            <ns3:hr>138</ns3:hr>
            <ns3:cad>73</ns3:cad>
          </ns3:TrackPointExtension>
        </extensions>
      </trkpt>
      <trkpt lat="45.26121220551431179046630859375" lon="-71.149507127702236175537109375">
        <ele>641</ele>
        <time>2026-08-22T03:21:58.000Z</time>
        <extensions>
          <ns3:TrackPointExtension>
            <ns3:hr>138</ns3:hr>
            <ns3:cad>73</ns3:cad>
          </ns3:TrackPointExtension>
        </extensions>
      </trkpt>
      <trkpt lat="45.26122611947357654571533203125" lon="-71.14950737915933132171630859375">
        <ele>641</ele>
        <time>2026-08-22T03:21:59.000Z</time>
        <extensions>
          <ns3:TrackPointExtension>
            <ns3:hr>138</ns3:hr>
            <ns3:cad>73</ns3:cad>
          </ns3:TrackPointExtension>
        </extensions>
      </trkpt>
      <trkpt lat="45.261239111423492431640625" lon="-71.14950947463512420654296875">
        <ele>641</ele>
        <time>2026-08-22T03:22:00.000Z</time>
        <extensions>
          <ns3:TrackPointExtension>
            <ns3:hr>138</ns3:hr>
            <ns3:cad>73</ns3:cad>
          </ns3:TrackPointExtension>
        </extensions>
      </trkpt>
      <trkpt lat="45.26125319302082061767578125" lon="-71.1495106481015682220458984375">
        <ele>641</ele>
        <time>2026-08-22T03:22:01.000Z</time>
        <extensions>
          <ns3:TrackPointExtension>
            <ns3:hr>138</ns3:hr>
            <ns3:cad>73</ns3:cad>
          </ns3:TrackPointExtension>
        </extensions>
      </trkpt>
      <trkpt lat="45.26126534678041934967041015625" lon="-71.149511821568012237548828125">
        <ele>641.20001220703125</ele>
        <time>2026-08-22T03:22:02.000Z</time>
        <extensions>
          <ns3:TrackPointExtension>
            <ns3:hr>137</ns3:hr>
            <ns3:cad>73</ns3:cad>
          </ns3:TrackPointExtension>
        </extensions>
      </trkpt>
      <trkpt lat="45.26127540506422519683837890625" lon="-71.14951425231993198394775390625">
        <ele>641.20001220703125</ele>
        <time>2026-08-22T03:22:03.000Z</time>
        <extensions>
          <ns3:TrackPointExtension>
            <ns3:hr>137</ns3:hr>
            <ns3:cad>73</ns3:cad>
          </ns3:TrackPointExtension>
        </extensions>
      </trkpt>
      <trkpt lat="45.261290073394775390625" lon="-71.14951877854764461517333984375">
        <ele>641.4000244140625</ele>
        <time>2026-08-22T03:22:04.000Z</time>
        <extensions>
          <ns3:TrackPointExtension>
            <ns3:hr>138</ns3:hr>
            <ns3:cad>55</ns3:cad>
          </ns3:TrackPointExtension>
        </extensions>
      </trkpt>
      <trkpt lat="45.26130138896405696868896484375" lon="-71.14952229894697666168212890625">
        <ele>641.5999755859375</ele>
        <time>2026-08-22T03:22:05.000Z</time>
        <extensions>
          <ns3:TrackPointExtension>
            <ns3:hr>138</ns3:hr>
            <ns3:cad>55</ns3:cad>
          </ns3:TrackPointExtension>
        </extensions>
      </trkpt>
      <trkpt lat="45.26131111197173595428466796875" lon="-71.149520538747310638427734375">
        <ele>641.5999755859375</ele>
        <time>2026-08-22T03:22:06.000Z</time>
        <extensions>
          <ns3:TrackPointExtension>
            <ns3:hr>138</ns3:hr>
            <ns3:cad>55</ns3:cad>
          </ns3:TrackPointExtension>
        </extensions>
      </trkpt>
      <trkpt lat="45.2613163925707340240478515625" lon="-71.149526573717594146728515625">
        <ele>641.79998779296875</ele>
        <time>2026-08-22T03:22:07.000Z</time>
        <extensions>
          <ns3:TrackPointExtension>
            <ns3:hr>138</ns3:hr>
            <ns3:cad>55</ns3:cad>
          </ns3:TrackPointExtension>
        </extensions>
      </trkpt>
      <trkpt lat="45.2613298036158084869384765625" lon="-71.149539984762668609619140625">
        <ele>642</ele>
        <time>2026-08-22T03:22:08.000Z</time>
        <extensions>
          <ns3:TrackPointExtension>
            <ns3:hr>139</ns3:hr>
            <ns3:cad>55</ns3:cad>
          </ns3:TrackPointExtension>
        </extensions>
      </trkpt>
      <trkpt lat="45.26134346611797809600830078125" lon="-71.14955431781709194183349609375">
        <ele>642</ele>
        <time>2026-08-22T03:22:09.000Z</time>
        <extensions>
          <ns3:TrackPointExtension>
            <ns3:hr>139</ns3:hr>
            <ns3:cad>56</ns3:cad>
          </ns3:TrackPointExtension>
        </extensions>
      </trkpt>
      <trkpt lat="45.2613544464111328125" lon="-71.1495612747967243194580078125">
        <ele>642</ele>
        <time>2026-08-22T03:22:10.000Z</time>
        <extensions>
          <ns3:TrackPointExtension>
            <ns3:hr>139</ns3:hr>
            <ns3:cad>56</ns3:cad>
          </ns3:TrackPointExtension>
        </extensions>
      </trkpt>
      <trkpt lat="45.26136324740946292877197265625" lon="-71.14956445991992950439453125">
        <ele>642.20001220703125</ele>
        <time>2026-08-22T03:22:11.000Z</time>
        <extensions>
          <ns3:TrackPointExtension>
            <ns3:hr>139</ns3:hr>
            <ns3:cad>56</ns3:cad>
          </ns3:TrackPointExtension>
        </extensions>
      </trkpt>
      <trkpt lat="45.26137397624552249908447265625" lon="-71.14956219680607318878173828125">
        <ele>642.20001220703125</ele>
        <time>2026-08-22T03:22:12.000Z</time>
        <extensions>
          <ns3:TrackPointExtension>
            <ns3:hr>139</ns3:hr>
            <ns3:cad>51</ns3:cad>
          </ns3:TrackPointExtension>
        </extensions>
      </trkpt>
      <trkpt lat="45.26139643974602222442626953125" lon="-71.14955750294029712677001953125">
        <ele>642.4000244140625</ele>
        <time>2026-08-22T03:22:13.000Z</time>
        <extensions>
          <ns3:TrackPointExtension>
            <ns3:hr>139</ns3:hr>
            <ns3:cad>51</ns3:cad>
          </ns3:TrackPointExtension>
        </extensions>
      </trkpt>
      <trkpt lat="45.26141102425754070281982421875" lon="-71.1495532281696796417236328125">
        <ele>642.4000244140625</ele>
        <time>2026-08-22T03:22:14.000Z</time>
        <extensions>
          <ns3:TrackPointExtension>
            <ns3:hr>139</ns3:hr>
            <ns3:cad>47</ns3:cad>
          </ns3:TrackPointExtension>
        </extensions>
      </trkpt>
      <trkpt lat="45.261421501636505126953125" lon="-71.149548701941967010498046875">
        <ele>642.4000244140625</ele>
        <time>2026-08-22T03:22:15.000Z</time>
        <extensions>
          <ns3:TrackPointExtension>
            <ns3:hr>139</ns3:hr>
            <ns3:cad>47</ns3:cad>
          </ns3:TrackPointExtension>
        </extensions>
      </trkpt>
      <trkpt lat="45.261439941823482513427734375" lon="-71.14954308606684207916259765625">
        <ele>642.4000244140625</ele>
        <time>2026-08-22T03:22:16.000Z</time>
        <extensions>
          <ns3:TrackPointExtension>
            <ns3:hr>139</ns3:hr>
            <ns3:cad>47</ns3:cad>
          </ns3:TrackPointExtension>
        </extensions>
      </trkpt>
      <trkpt lat="45.26145427487790584564208984375" lon="-71.14953227341175079345703125">
        <ele>642.4000244140625</ele>
        <time>2026-08-22T03:22:17.000Z</time>
        <extensions>
          <ns3:TrackPointExtension>
            <ns3:hr>138</ns3:hr>
            <ns3:cad>47</ns3:cad>
          </ns3:TrackPointExtension>
        </extensions>
      </trkpt>
      <trkpt lat="45.26147179305553436279296875" lon="-71.149515174329280853271484375">
        <ele>642.4000244140625</ele>
        <time>2026-08-22T03:22:18.000Z</time>
        <extensions>
          <ns3:TrackPointExtension>
            <ns3:hr>138</ns3:hr>
            <ns3:cad>47</ns3:cad>
          </ns3:TrackPointExtension>
        </extensions>
      </trkpt>
      <trkpt lat="45.26148981414735317230224609375" lon="-71.14950100891292095184326171875">
        <ele>642.4000244140625</ele>
        <time>2026-08-22T03:22:19.000Z</time>
        <extensions>
          <ns3:TrackPointExtension>
            <ns3:hr>137</ns3:hr>
            <ns3:cad>47</ns3:cad>
          </ns3:TrackPointExtension>
        </extensions>
      </trkpt>
      <trkpt lat="45.26150775142014026641845703125" lon="-71.149480640888214111328125">
        <ele>642.20001220703125</ele>
        <time>2026-08-22T03:22:20.000Z</time>
        <extensions>
          <ns3:TrackPointExtension>
            <ns3:hr>136</ns3:hr>
            <ns3:cad>47</ns3:cad>
          </ns3:TrackPointExtension>
        </extensions>
      </trkpt>
      <trkpt lat="45.26152015663683414459228515625" lon="-71.1494660563766956329345703125">
        <ele>642.20001220703125</ele>
        <time>2026-08-22T03:22:21.000Z</time>
        <extensions>
          <ns3:TrackPointExtension>
            <ns3:hr>136</ns3:hr>
            <ns3:cad>0</ns3:cad>
          </ns3:TrackPointExtension>
        </extensions>
      </trkpt>
      <trkpt lat="45.2615316398441791534423828125" lon="-71.149464547634124755859375">
        <ele>642</ele>
        <time>2026-08-22T03:22:22.000Z</time>
        <extensions>
          <ns3:TrackPointExtension>
            <ns3:hr>135</ns3:hr>
            <ns3:cad>0</ns3:cad>
          </ns3:TrackPointExtension>
        </extensions>
      </trkpt>
      <trkpt lat="45.2615463919937610626220703125" lon="-71.1494606919586658477783203125">
        <ele>642</ele>
        <time>2026-08-22T03:22:23.000Z</time>
        <extensions>
          <ns3:TrackPointExtension>
            <ns3:hr>135</ns3:hr>
            <ns3:cad>0</ns3:cad>
          </ns3:TrackPointExtension>
        </extensions>
      </trkpt>
      <trkpt lat="45.26155334897339344024658203125" lon="-71.14945180714130401611328125">
        <ele>642</ele>
        <time>2026-08-22T03:22:24.000Z</time>
        <extensions>
          <ns3:TrackPointExtension>
            <ns3:hr>135</ns3:hr>
            <ns3:cad>41</ns3:cad>
          </ns3:TrackPointExtension>
        </extensions>
      </trkpt>
      <trkpt lat="45.26156977750360965728759765625" lon="-71.149443425238132476806640625">
        <ele>642</ele>
        <time>2026-08-22T03:22:25.000Z</time>
        <extensions>
          <ns3:TrackPointExtension>
            <ns3:hr>134</ns3:hr>
            <ns3:cad>41</ns3:cad>
          </ns3:TrackPointExtension>
        </extensions>
      </trkpt>
      <trkpt lat="45.2615829370915889739990234375" lon="-71.149440072476863861083984375">
        <ele>642</ele>
        <time>2026-08-22T03:22:26.000Z</time>
        <extensions>
          <ns3:TrackPointExtension>
            <ns3:hr>134</ns3:hr>
            <ns3:cad>57</ns3:cad>
          </ns3:TrackPointExtension>
        </extensions>
      </trkpt>
      <trkpt lat="45.26159391738474369049072265625" lon="-71.14943462423980236053466796875">
        <ele>642</ele>
        <time>2026-08-22T03:22:27.000Z</time>
        <extensions>
          <ns3:TrackPointExtension>
            <ns3:hr>134</ns3:hr>
            <ns3:cad>57</ns3:cad>
          </ns3:TrackPointExtension>
        </extensions>
      </trkpt>
      <trkpt lat="45.261603891849517822265625" lon="-71.14942171610891819000244140625">
        <ele>641.79998779296875</ele>
        <time>2026-08-22T03:22:28.000Z</time>
        <extensions>
          <ns3:TrackPointExtension>
            <ns3:hr>133</ns3:hr>
            <ns3:cad>0</ns3:cad>
          </ns3:TrackPointExtension>
        </extensions>
      </trkpt>
      <trkpt lat="45.26161101646721363067626953125" lon="-71.14940998144447803497314453125">
        <ele>641.5999755859375</ele>
        <time>2026-08-22T03:22:29.000Z</time>
        <extensions>
          <ns3:TrackPointExtension>
            <ns3:hr>133</ns3:hr>
            <ns3:cad>0</ns3:cad>
          </ns3:TrackPointExtension>
        </extensions>
      </trkpt>
      <trkpt lat="45.261620990931987762451171875" lon="-71.14940847270190715789794921875">
        <ele>641.5999755859375</ele>
        <time>2026-08-22T03:22:30.000Z</time>
        <extensions>
          <ns3:TrackPointExtension>
            <ns3:hr>133</ns3:hr>
            <ns3:cad>0</ns3:cad>
          </ns3:TrackPointExtension>
        </extensions>
      </trkpt>
      <trkpt lat="45.261635743081569671630859375" lon="-71.1494090594351291656494140625">
        <ele>641.4000244140625</ele>
        <time>2026-08-22T03:22:31.000Z</time>
        <extensions>
          <ns3:TrackPointExtension>
            <ns3:hr>134</ns3:hr>
            <ns3:cad>53</ns3:cad>
          </ns3:TrackPointExtension>
        </extensions>
      </trkpt>
      <trkpt lat="45.26164337061345577239990234375" lon="-71.14940947853028774261474609375">
        <ele>641.4000244140625</ele>
        <time>2026-08-22T03:22:32.000Z</time>
        <extensions>
          <ns3:TrackPointExtension>
            <ns3:hr>134</ns3:hr>
            <ns3:cad>53</ns3:cad>
          </ns3:TrackPointExtension>
        </extensions>
      </trkpt>
      <trkpt lat="45.26165443472564220428466796875" lon="-71.14941132254898548126220703125">
        <ele>641.20001220703125</ele>
        <time>2026-08-22T03:22:33.000Z</time>
        <extensions>
          <ns3:TrackPointExtension>
            <ns3:hr>135</ns3:hr>
            <ns3:cad>61</ns3:cad>
          </ns3:TrackPointExtension>
        </extensions>
      </trkpt>
      <trkpt lat="45.26166683994233608245849609375" lon="-71.1494122445583343505859375">
        <ele>641.20001220703125</ele>
        <time>2026-08-22T03:22:34.000Z</time>
        <extensions>
          <ns3:TrackPointExtension>
            <ns3:hr>137</ns3:hr>
            <ns3:cad>61</ns3:cad>
          </ns3:TrackPointExtension>
        </extensions>
      </trkpt>
      <trkpt lat="45.26168393902480602264404296875" lon="-71.14941115491092205047607421875">
        <ele>641.20001220703125</ele>
        <time>2026-08-22T03:22:35.000Z</time>
        <extensions>
          <ns3:TrackPointExtension>
            <ns3:hr>137</ns3:hr>
            <ns3:cad>61</ns3:cad>
          </ns3:TrackPointExtension>
        </extensions>
      </trkpt>
      <trkpt lat="45.2616929076611995697021484375" lon="-71.1494040302932262420654296875">
        <ele>641.4000244140625</ele>
        <time>2026-08-22T03:22:36.000Z</time>
        <extensions>
          <ns3:TrackPointExtension>
            <ns3:hr>137</ns3:hr>
            <ns3:cad>0</ns3:cad>
          </ns3:TrackPointExtension>
        </extensions>
      </trkpt>
      <trkpt lat="45.26170204393565654754638671875" lon="-71.14939212799072265625">
        <ele>641.4000244140625</ele>
        <time>2026-08-22T03:22:37.000Z</time>
        <extensions>
          <ns3:TrackPointExtension>
            <ns3:hr>138</ns3:hr>
            <ns3:cad>0</ns3:cad>
          </ns3:TrackPointExtension>
        </extensions>
      </trkpt>
      <trkpt lat="45.26170522905886173248291015625" lon="-71.14938617683947086334228515625">
        <ele>641.5999755859375</ele>
        <time>2026-08-22T03:22:38.000Z</time>
        <extensions>
          <ns3:TrackPointExtension>
            <ns3:hr>138</ns3:hr>
            <ns3:cad>0</ns3:cad>
          </ns3:TrackPointExtension>
        </extensions>
      </trkpt>
      <trkpt lat="45.26171025820076465606689453125" lon="-71.14938609302043914794921875">
        <ele>641.5999755859375</ele>
        <time>2026-08-22T03:22:39.000Z</time>
        <extensions>
          <ns3:TrackPointExtension>
            <ns3:hr>138</ns3:hr>
            <ns3:cad>0</ns3:cad>
          </ns3:TrackPointExtension>
        </extensions>
      </trkpt>
      <trkpt lat="45.261724255979061126708984375" lon="-71.149381063878536224365234375">
        <ele>641.5999755859375</ele>
        <time>2026-08-22T03:22:40.000Z</time>
        <extensions>
          <ns3:TrackPointExtension>
            <ns3:hr>137</ns3:hr>
            <ns3:cad>0</ns3:cad>
          </ns3:TrackPointExtension>
        </extensions>
      </trkpt>
      <trkpt lat="45.26173959486186504364013671875" lon="-71.1493708379566669464111328125">
        <ele>641.5999755859375</ele>
        <time>2026-08-22T03:22:41.000Z</time>
        <extensions>
          <ns3:TrackPointExtension>
            <ns3:hr>136</ns3:hr>
            <ns3:cad>0</ns3:cad>
          </ns3:TrackPointExtension>
        </extensions>
      </trkpt>
      <trkpt lat="45.26175451464951038360595703125" lon="-71.14936270751059055328369140625">
        <ele>641.5999755859375</ele>
        <time>2026-08-22T03:22:42.000Z</time>
        <extensions>
          <ns3:TrackPointExtension>
            <ns3:hr>136</ns3:hr>
            <ns3:cad>0</ns3:cad>
          </ns3:TrackPointExtension>
        </extensions>
      </trkpt>
      <trkpt lat="45.2617700211703777313232421875" lon="-71.14935122430324554443359375">
        <ele>641.5999755859375</ele>
        <time>2026-08-22T03:22:43.000Z</time>
        <extensions>
          <ns3:TrackPointExtension>
            <ns3:hr>136</ns3:hr>
            <ns3:cad>0</ns3:cad>
          </ns3:TrackPointExtension>
        </extensions>
      </trkpt>
      <trkpt lat="45.261780582368373870849609375" lon="-71.1493453569710254669189453125">
        <ele>641.5999755859375</ele>
        <time>2026-08-22T03:22:44.000Z</time>
        <extensions>
          <ns3:TrackPointExtension>
            <ns3:hr>136</ns3:hr>
            <ns3:cad>0</ns3:cad>
          </ns3:TrackPointExtension>
        </extensions>
      </trkpt>
      <trkpt lat="45.2617965079843997955322265625" lon="-71.1493406631052494049072265625">
        <ele>641.4000244140625</ele>
        <time>2026-08-22T03:22:45.000Z</time>
        <extensions>
          <ns3:TrackPointExtension>
            <ns3:hr>135</ns3:hr>
            <ns3:cad>50</ns3:cad>
          </ns3:TrackPointExtension>
        </extensions>
      </trkpt>
      <trkpt lat="45.261808075010776519775390625" lon="-71.14933957345783710479736328125">
        <ele>641.4000244140625</ele>
        <time>2026-08-22T03:22:46.000Z</time>
        <extensions>
          <ns3:TrackPointExtension>
            <ns3:hr>135</ns3:hr>
            <ns3:cad>50</ns3:cad>
          </ns3:TrackPointExtension>
        </extensions>
      </trkpt>
      <trkpt lat="45.26181855238974094390869140625" lon="-71.14933873526751995086669921875">
        <ele>641.4000244140625</ele>
        <time>2026-08-22T03:22:47.000Z</time>
        <extensions>
          <ns3:TrackPointExtension>
            <ns3:hr>136</ns3:hr>
            <ns3:cad>50</ns3:cad>
          </ns3:TrackPointExtension>
        </extensions>
      </trkpt>
      <trkpt lat="45.2618323825299739837646484375" lon="-71.14933873526751995086669921875">
        <ele>641.4000244140625</ele>
        <time>2026-08-22T03:22:48.000Z</time>
        <extensions>
          <ns3:TrackPointExtension>
            <ns3:hr>136</ns3:hr>
            <ns3:cad>50</ns3:cad>
          </ns3:TrackPointExtension>
        </extensions>
      </trkpt>
      <trkpt lat="45.26184151880443096160888671875" lon="-71.14934041164815425872802734375">
        <ele>641.4000244140625</ele>
        <time>2026-08-22T03:22:49.000Z</time>
        <extensions>
          <ns3:TrackPointExtension>
            <ns3:hr>136</ns3:hr>
            <ns3:cad>50</ns3:cad>
          </ns3:TrackPointExtension>
        </extensions>
      </trkpt>
      <trkpt lat="45.261856354773044586181640625" lon="-71.14934225566685199737548828125">
        <ele>641.4000244140625</ele>
        <time>2026-08-22T03:22:50.000Z</time>
        <extensions>
          <ns3:TrackPointExtension>
            <ns3:hr>136</ns3:hr>
            <ns3:cad>0</ns3:cad>
          </ns3:TrackPointExtension>
        </extensions>
      </trkpt>
      <trkpt lat="45.2618672512471675872802734375" lon="-71.14934477023780345916748046875">
        <ele>641.5999755859375</ele>
        <time>2026-08-22T03:22:51.000Z</time>
        <extensions>
          <ns3:TrackPointExtension>
            <ns3:hr>136</ns3:hr>
            <ns3:cad>0</ns3:cad>
          </ns3:TrackPointExtension>
        </extensions>
      </trkpt>
      <trkpt lat="45.26187948882579803466796875" lon="-71.14934544079005718231201171875">
        <ele>641.5999755859375</ele>
        <time>2026-08-22T03:22:52.000Z</time>
        <extensions>
          <ns3:TrackPointExtension>
            <ns3:hr>136</ns3:hr>
            <ns3:cad>0</ns3:cad>
          </ns3:TrackPointExtension>
        </extensions>
      </trkpt>
      <trkpt lat="45.2618949115276336669921875" lon="-71.14934049546718597412109375">
        <ele>641.5999755859375</ele>
        <time>2026-08-22T03:22:53.000Z</time>
        <extensions>
          <ns3:TrackPointExtension>
            <ns3:hr>136</ns3:hr>
            <ns3:cad>0</ns3:cad>
          </ns3:TrackPointExtension>
        </extensions>
      </trkpt>
      <trkpt lat="45.2618975937366485595703125" lon="-71.1493356339633464813232421875">
        <ele>641.5999755859375</ele>
        <time>2026-08-22T03:22:54.000Z</time>
        <extensions>
          <ns3:TrackPointExtension>
            <ns3:hr>135</ns3:hr>
            <ns3:cad>0</ns3:cad>
          </ns3:TrackPointExtension>
        </extensions>
      </trkpt>
      <trkpt lat="45.26190941222012042999267578125" lon="-71.1493346281349658966064453125">
        <ele>641.5999755859375</ele>
        <time>2026-08-22T03:22:55.000Z</time>
        <extensions>
          <ns3:TrackPointExtension>
            <ns3:hr>135</ns3:hr>
            <ns3:cad>0</ns3:cad>
          </ns3:TrackPointExtension>
        </extensions>
      </trkpt>
      <trkpt lat="45.26192642748355865478515625" lon="-71.149330437183380126953125">
        <ele>641.5999755859375</ele>
        <time>2026-08-22T03:22:56.000Z</time>
        <extensions>
          <ns3:TrackPointExtension>
            <ns3:hr>134</ns3:hr>
            <ns3:cad>0</ns3:cad>
          </ns3:TrackPointExtension>
        </extensions>
      </trkpt>
      <trkpt lat="45.26193715631961822509765625" lon="-71.14932079799473285675048828125">
        <ele>641.5999755859375</ele>
        <time>2026-08-22T03:22:57.000Z</time>
        <extensions>
          <ns3:TrackPointExtension>
            <ns3:hr>133</ns3:hr>
            <ns3:cad>0</ns3:cad>
          </ns3:TrackPointExtension>
        </extensions>
      </trkpt>
      <trkpt lat="45.26195333339273929595947265625" lon="-71.14932599477469921112060546875">
        <ele>641.5999755859375</ele>
        <time>2026-08-22T03:22:58.000Z</time>
        <extensions>
          <ns3:TrackPointExtension>
            <ns3:hr>133</ns3:hr>
            <ns3:cad>0</ns3:cad>
          </ns3:TrackPointExtension>
        </extensions>
      </trkpt>
      <trkpt lat="45.26197562925517559051513671875" lon="-71.149329431354999542236328125">
        <ele>641.79998779296875</ele>
        <time>2026-08-22T03:22:59.000Z</time>
        <extensions>
          <ns3:TrackPointExtension>
            <ns3:hr>134</ns3:hr>
            <ns3:cad>0</ns3:cad>
          </ns3:TrackPointExtension>
        </extensions>
      </trkpt>
      <trkpt lat="45.26199080049991607666015625" lon="-71.1493317782878875732421875">
        <ele>642</ele>
        <time>2026-08-22T03:23:00.000Z</time>
        <extensions>
          <ns3:TrackPointExtension>
            <ns3:hr>134</ns3:hr>
            <ns3:cad>0</ns3:cad>
          </ns3:TrackPointExtension>
        </extensions>
      </trkpt>
      <trkpt lat="45.2620047144591808319091796875" lon="-71.149334125220775604248046875">
        <ele>642.20001220703125</ele>
        <time>2026-08-22T03:23:01.000Z</time>
        <extensions>
          <ns3:TrackPointExtension>
            <ns3:hr>135</ns3:hr>
            <ns3:cad>0</ns3:cad>
          </ns3:TrackPointExtension>
        </extensions>
      </trkpt>
      <trkpt lat="45.2620191313326358795166015625" lon="-71.14933588542044162750244140625">
        <ele>642.4000244140625</ele>
        <time>2026-08-22T03:23:02.000Z</time>
        <extensions>
          <ns3:TrackPointExtension>
            <ns3:hr>136</ns3:hr>
            <ns3:cad>0</ns3:cad>
          </ns3:TrackPointExtension>
        </extensions>
      </trkpt>
      <trkpt lat="45.262032710015773773193359375" lon="-71.1493326164782047271728515625">
        <ele>642.79998779296875</ele>
        <time>2026-08-22T03:23:03.000Z</time>
        <extensions>
          <ns3:TrackPointExtension>
            <ns3:hr>136</ns3:hr>
            <ns3:cad>0</ns3:cad>
          </ns3:TrackPointExtension>
        </extensions>
      </trkpt>
      <trkpt lat="45.26205056346952915191650390625" lon="-71.1493292637169361114501953125">
        <ele>642.79998779296875</ele>
        <time>2026-08-22T03:23:04.000Z</time>
        <extensions>
          <ns3:TrackPointExtension>
            <ns3:hr>136</ns3:hr>
            <ns3:cad>0</ns3:cad>
          </ns3:TrackPointExtension>
        </extensions>
      </trkpt>
      <trkpt lat="45.2620637230575084686279296875" lon="-71.14933035336434841156005859375">
        <ele>642.79998779296875</ele>
        <time>2026-08-22T03:23:05.000Z</time>
        <extensions>
          <ns3:TrackPointExtension>
            <ns3:hr>137</ns3:hr>
            <ns3:cad>0</ns3:cad>
          </ns3:TrackPointExtension>
        </extensions>
      </trkpt>
      <trkpt lat="45.26207839138805866241455078125" lon="-71.1493317782878875732421875">
        <ele>643</ele>
        <time>2026-08-22T03:23:06.000Z</time>
        <extensions>
          <ns3:TrackPointExtension>
            <ns3:hr>136</ns3:hr>
            <ns3:cad>0</ns3:cad>
          </ns3:TrackPointExtension>
        </extensions>
      </trkpt>
      <trkpt lat="45.2620945684611797332763671875" lon="-71.149319373071193695068359375">
        <ele>643</ele>
        <time>2026-08-22T03:23:07.000Z</time>
        <extensions>
          <ns3:TrackPointExtension>
            <ns3:hr>136</ns3:hr>
            <ns3:cad>0</ns3:cad>
          </ns3:TrackPointExtension>
        </extensions>
      </trkpt>
      <trkpt lat="45.2621076442301273345947265625" lon="-71.14931501448154449462890625">
        <ele>642.79998779296875</ele>
        <time>2026-08-22T03:23:08.000Z</time>
        <extensions>
          <ns3:TrackPointExtension>
            <ns3:hr>136</ns3:hr>
            <ns3:cad>0</ns3:cad>
          </ns3:TrackPointExtension>
        </extensions>
      </trkpt>
      <trkpt lat="45.262124575674533843994140625" lon="-71.14931794814765453338623046875">
        <ele>642.79998779296875</ele>
        <time>2026-08-22T03:23:09.000Z</time>
        <extensions>
          <ns3:TrackPointExtension>
            <ns3:hr>137</ns3:hr>
            <ns3:cad>0</ns3:cad>
          </ns3:TrackPointExtension>
        </extensions>
      </trkpt>
      <trkpt lat="45.26213739998638629913330078125" lon="-71.1493091471493244171142578125">
        <ele>642.79998779296875</ele>
        <time>2026-08-22T03:23:10.000Z</time>
        <extensions>
          <ns3:TrackPointExtension>
            <ns3:hr>136</ns3:hr>
            <ns3:cad>0</ns3:cad>
          </ns3:TrackPointExtension>
        </extensions>
      </trkpt>
      <trkpt lat="45.26214393787086009979248046875" lon="-71.1492960713803768157958984375">
        <ele>642.5999755859375</ele>
        <time>2026-08-22T03:23:11.000Z</time>
        <extensions>
          <ns3:TrackPointExtension>
            <ns3:hr>136</ns3:hr>
            <ns3:cad>0</ns3:cad>
          </ns3:TrackPointExtension>
        </extensions>
      </trkpt>
      <trkpt lat="45.262152738869190216064453125" lon="-71.14928207360208034515380859375">
        <ele>642.4000244140625</ele>
        <time>2026-08-22T03:23:12.000Z</time>
        <extensions>
          <ns3:TrackPointExtension>
            <ns3:hr>136</ns3:hr>
            <ns3:cad>53</ns3:cad>
          </ns3:TrackPointExtension>
        </extensions>
      </trkpt>
      <trkpt lat="45.26216304861009120941162109375" lon="-71.149272434413433074951171875">
        <ele>642.4000244140625</ele>
        <time>2026-08-22T03:23:13.000Z</time>
        <extensions>
          <ns3:TrackPointExtension>
            <ns3:hr>136</ns3:hr>
            <ns3:cad>53</ns3:cad>
          </ns3:TrackPointExtension>
        </extensions>
      </trkpt>
      <trkpt lat="45.26218031533062458038330078125" lon="-71.1492669023573398590087890625">
        <ele>642.20001220703125</ele>
        <time>2026-08-22T03:23:14.000Z</time>
        <extensions>
          <ns3:TrackPointExtension>
            <ns3:hr>136</ns3:hr>
            <ns3:cad>57</ns3:cad>
          </ns3:TrackPointExtension>
        </extensions>
      </trkpt>
      <trkpt lat="45.26219372637569904327392578125" lon="-71.14926279522478580474853515625">
        <ele>642</ele>
        <time>2026-08-22T03:23:15.000Z</time>
        <extensions>
          <ns3:TrackPointExtension>
            <ns3:hr>136</ns3:hr>
            <ns3:cad>57</ns3:cad>
          </ns3:TrackPointExtension>
        </extensions>
      </trkpt>
      <trkpt lat="45.2622055448591709136962890625" lon="-71.14926095120608806610107421875">
        <ele>641.79998779296875</ele>
        <time>2026-08-22T03:23:16.000Z</time>
        <extensions>
          <ns3:TrackPointExtension>
            <ns3:hr>136</ns3:hr>
            <ns3:cad>57</ns3:cad>
          </ns3:TrackPointExtension>
        </extensions>
      </trkpt>
      <trkpt lat="45.2622196264564990997314453125" lon="-71.1492578499019145965576171875">
        <ele>641.79998779296875</ele>
        <time>2026-08-22T03:23:17.000Z</time>
        <extensions>
          <ns3:TrackPointExtension>
            <ns3:hr>136</ns3:hr>
            <ns3:cad>57</ns3:cad>
          </ns3:TrackPointExtension>
        </extensions>
      </trkpt>
      <trkpt lat="45.262229852378368377685546875" lon="-71.14925843663513660430908203125">
        <ele>641.79998779296875</ele>
        <time>2026-08-22T03:23:18.000Z</time>
        <extensions>
          <ns3:TrackPointExtension>
            <ns3:hr>136</ns3:hr>
            <ns3:cad>57</ns3:cad>
          </ns3:TrackPointExtension>
        </extensions>
      </trkpt>
      <trkpt lat="45.2622404135763645172119140625" lon="-71.14926195703446865081787109375">
        <ele>641.79998779296875</ele>
        <time>2026-08-22T03:23:19.000Z</time>
        <extensions>
          <ns3:TrackPointExtension>
            <ns3:hr>136</ns3:hr>
            <ns3:cad>0</ns3:cad>
          </ns3:TrackPointExtension>
        </extensions>
      </trkpt>
      <trkpt lat="45.26225172914564609527587890625" lon="-71.1492665670812129974365234375">
        <ele>642</ele>
        <time>2026-08-22T03:23:20.000Z</time>
        <extensions>
          <ns3:TrackPointExtension>
            <ns3:hr>135</ns3:hr>
            <ns3:cad>0</ns3:cad>
          </ns3:TrackPointExtension>
        </extensions>
      </trkpt>
      <trkpt lat="45.2622628770768642425537109375" lon="-71.149271428585052490234375">
        <ele>642</ele>
        <time>2026-08-22T03:23:21.000Z</time>
        <extensions>
          <ns3:TrackPointExtension>
            <ns3:hr>135</ns3:hr>
            <ns3:cad>0</ns3:cad>
          </ns3:TrackPointExtension>
        </extensions>
      </trkpt>
      <trkpt lat="45.26227586902678012847900390625" lon="-71.14926799200475215911865234375">
        <ele>642</ele>
        <time>2026-08-22T03:23:22.000Z</time>
        <extensions>
          <ns3:TrackPointExtension>
            <ns3:hr>135</ns3:hr>
            <ns3:cad>0</ns3:cad>
          </ns3:TrackPointExtension>
        </extensions>
      </trkpt>
      <trkpt lat="45.2622863464057445526123046875" lon="-71.14925944246351718902587890625">
        <ele>642</ele>
        <time>2026-08-22T03:23:23.000Z</time>
        <extensions>
          <ns3:TrackPointExtension>
            <ns3:hr>134</ns3:hr>
            <ns3:cad>0</ns3:cad>
          </ns3:TrackPointExtension>
        </extensions>
      </trkpt>
      <trkpt lat="45.262296237051486968994140625" lon="-71.149253658950328826904296875">
        <ele>642</ele>
        <time>2026-08-22T03:23:24.000Z</time>
        <extensions>
          <ns3:TrackPointExtension>
            <ns3:hr>134</ns3:hr>
            <ns3:cad>0</ns3:cad>
          </ns3:TrackPointExtension>
        </extensions>
      </trkpt>
      <trkpt lat="45.2623141743242740631103515625" lon="-71.14925273694097995758056640625">
        <ele>642</ele>
        <time>2026-08-22T03:23:25.000Z</time>
        <extensions>
          <ns3:TrackPointExtension>
            <ns3:hr>133</ns3:hr>
            <ns3:cad>0</ns3:cad>
          </ns3:TrackPointExtension>
        </extensions>
      </trkpt>
      <trkpt lat="45.26232699863612651824951171875" lon="-71.1492486298084259033203125">
        <ele>642</ele>
        <time>2026-08-22T03:23:26.000Z</time>
        <extensions>
          <ns3:TrackPointExtension>
            <ns3:hr>133</ns3:hr>
            <ns3:cad>0</ns3:cad>
          </ns3:TrackPointExtension>
        </extensions>
      </trkpt>
      <trkpt lat="45.26234216988086700439453125" lon="-71.14924234338104724884033203125">
        <ele>642</ele>
        <time>2026-08-22T03:23:27.000Z</time>
        <extensions>
          <ns3:TrackPointExtension>
            <ns3:hr>133</ns3:hr>
            <ns3:cad>0</ns3:cad>
          </ns3:TrackPointExtension>
        </extensions>
      </trkpt>
      <trkpt lat="45.26235633529722690582275390625" lon="-71.14923597313463687896728515625">
        <ele>642</ele>
        <time>2026-08-22T03:23:28.000Z</time>
        <extensions>
          <ns3:TrackPointExtension>
            <ns3:hr>132</ns3:hr>
            <ns3:cad>0</ns3:cad>
          </ns3:TrackPointExtension>
        </extensions>
      </trkpt>
      <trkpt lat="45.26236974634230136871337890625" lon="-71.14923228509724140167236328125">
        <ele>642</ele>
        <time>2026-08-22T03:23:29.000Z</time>
        <extensions>
          <ns3:TrackPointExtension>
            <ns3:hr>132</ns3:hr>
            <ns3:cad>0</ns3:cad>
          </ns3:TrackPointExtension>
        </extensions>
      </trkpt>
      <trkpt lat="45.26238374412059783935546875" lon="-71.14923563785851001739501953125">
        <ele>642</ele>
        <time>2026-08-22T03:23:30.000Z</time>
        <extensions>
          <ns3:TrackPointExtension>
            <ns3:hr>132</ns3:hr>
            <ns3:cad>0</ns3:cad>
          </ns3:TrackPointExtension>
        </extensions>
      </trkpt>
      <trkpt lat="45.26239455677568912506103515625" lon="-71.1492417566478252410888671875">
        <ele>641.79998779296875</ele>
        <time>2026-08-22T03:23:31.000Z</time>
        <extensions>
          <ns3:TrackPointExtension>
            <ns3:hr>131</ns3:hr>
            <ns3:cad>0</ns3:cad>
          </ns3:TrackPointExtension>
        </extensions>
      </trkpt>
      <trkpt lat="45.2624046988785266876220703125" lon="-71.14923848770558834075927734375">
        <ele>641.5999755859375</ele>
        <time>2026-08-22T03:23:32.000Z</time>
        <extensions>
          <ns3:TrackPointExtension>
            <ns3:hr>131</ns3:hr>
            <ns3:cad>0</ns3:cad>
          </ns3:TrackPointExtension>
        </extensions>
      </trkpt>
      <trkpt lat="45.26241450570523738861083984375" lon="-71.1492303572595119476318359375">
        <ele>641.5999755859375</ele>
        <time>2026-08-22T03:23:33.000Z</time>
        <extensions>
          <ns3:TrackPointExtension>
            <ns3:hr>131</ns3:hr>
            <ns3:cad>0</ns3:cad>
          </ns3:TrackPointExtension>
        </extensions>
      </trkpt>
      <trkpt lat="45.2624288387596607208251953125" lon="-71.14922423847019672393798828125">
        <ele>641.4000244140625</ele>
        <time>2026-08-22T03:23:34.000Z</time>
        <extensions>
          <ns3:TrackPointExtension>
            <ns3:hr>132</ns3:hr>
            <ns3:cad>0</ns3:cad>
          </ns3:TrackPointExtension>
        </extensions>
      </trkpt>
      <trkpt lat="45.26244367472827434539794921875" lon="-71.14922583103179931640625">
        <ele>641.4000244140625</ele>
        <time>2026-08-22T03:23:35.000Z</time>
        <extensions>
          <ns3:TrackPointExtension>
            <ns3:hr>132</ns3:hr>
            <ns3:cad>0</ns3:cad>
          </ns3:TrackPointExtension>
        </extensions>
      </trkpt>
      <trkpt lat="45.26246286928653717041015625" lon="-71.14923211745917797088623046875">
        <ele>641.4000244140625</ele>
        <time>2026-08-22T03:23:36.000Z</time>
        <extensions>
          <ns3:TrackPointExtension>
            <ns3:hr>132</ns3:hr>
            <ns3:cad>0</ns3:cad>
          </ns3:TrackPointExtension>
        </extensions>
      </trkpt>
      <trkpt lat="45.2624720893800258636474609375" lon="-71.1492384038865566253662109375">
        <ele>641.4000244140625</ele>
        <time>2026-08-22T03:23:37.000Z</time>
        <extensions>
          <ns3:TrackPointExtension>
            <ns3:hr>131</ns3:hr>
            <ns3:cad>0</ns3:cad>
          </ns3:TrackPointExtension>
        </extensions>
      </trkpt>
      <trkpt lat="45.26248843409121036529541015625" lon="-71.14924318157136440277099609375">
        <ele>641.4000244140625</ele>
        <time>2026-08-22T03:23:38.000Z</time>
        <extensions>
          <ns3:TrackPointExtension>
            <ns3:hr>131</ns3:hr>
            <ns3:cad>0</ns3:cad>
          </ns3:TrackPointExtension>
        </extensions>
      </trkpt>
      <trkpt lat="45.26250444352626800537109375" lon="-71.14924536086618900299072265625">
        <ele>641.4000244140625</ele>
        <time>2026-08-22T03:23:39.000Z</time>
        <extensions>
          <ns3:TrackPointExtension>
            <ns3:hr>131</ns3:hr>
            <ns3:cad>0</ns3:cad>
          </ns3:TrackPointExtension>
        </extensions>
      </trkpt>
      <trkpt lat="45.26251383125782012939453125" lon="-71.14924334920942783355712890625">
        <ele>641.4000244140625</ele>
        <time>2026-08-22T03:23:40.000Z</time>
        <extensions>
          <ns3:TrackPointExtension>
            <ns3:hr>131</ns3:hr>
            <ns3:cad>68</ns3:cad>
          </ns3:TrackPointExtension>
        </extensions>
      </trkpt>
      <trkpt lat="45.26253000833094120025634765625" lon="-71.14924393594264984130859375">
        <ele>641.4000244140625</ele>
        <time>2026-08-22T03:23:41.000Z</time>
        <extensions>
          <ns3:TrackPointExtension>
            <ns3:hr>130</ns3:hr>
            <ns3:cad>68</ns3:cad>
          </ns3:TrackPointExtension>
        </extensions>
      </trkpt>
      <trkpt lat="45.26254610158503055572509765625" lon="-71.14924469031393527984619140625">
        <ele>641.4000244140625</ele>
        <time>2026-08-22T03:23:42.000Z</time>
        <extensions>
          <ns3:TrackPointExtension>
            <ns3:hr>130</ns3:hr>
            <ns3:cad>68</ns3:cad>
          </ns3:TrackPointExtension>
        </extensions>
      </trkpt>
      <trkpt lat="45.26256345212459564208984375" lon="-71.14925072528421878814697265625">
        <ele>641.4000244140625</ele>
        <time>2026-08-22T03:23:43.000Z</time>
        <extensions>
          <ns3:TrackPointExtension>
            <ns3:hr>130</ns3:hr>
            <ns3:cad>68</ns3:cad>
          </ns3:TrackPointExtension>
        </extensions>
      </trkpt>
      <trkpt lat="45.2625797130167484283447265625" lon="-71.14925407804548740386962890625">
        <ele>641.4000244140625</ele>
        <time>2026-08-22T03:23:44.000Z</time>
        <extensions>
          <ns3:TrackPointExtension>
            <ns3:hr>130</ns3:hr>
            <ns3:cad>68</ns3:cad>
          </ns3:TrackPointExtension>
        </extensions>
      </trkpt>
      <trkpt lat="45.26259287260472774505615234375" lon="-71.14925307221710681915283203125">
        <ele>641.4000244140625</ele>
        <time>2026-08-22T03:23:45.000Z</time>
        <extensions>
          <ns3:TrackPointExtension>
            <ns3:hr>130</ns3:hr>
            <ns3:cad>68</ns3:cad>
          </ns3:TrackPointExtension>
        </extensions>
      </trkpt>
      <trkpt lat="45.26260192506015300750732421875" lon="-71.14925407804548740386962890625">
        <ele>641.4000244140625</ele>
        <time>2026-08-22T03:23:46.000Z</time>
        <extensions>
          <ns3:TrackPointExtension>
            <ns3:hr>130</ns3:hr>
            <ns3:cad>68</ns3:cad>
          </ns3:TrackPointExtension>
        </extensions>
      </trkpt>
      <trkpt lat="45.2626102231442928314208984375" lon="-71.14926195703446865081787109375">
        <ele>641.4000244140625</ele>
        <time>2026-08-22T03:23:47.000Z</time>
        <extensions>
          <ns3:TrackPointExtension>
            <ns3:hr>130</ns3:hr>
            <ns3:cad>68</ns3:cad>
          </ns3:TrackPointExtension>
        </extensions>
      </trkpt>
      <trkpt lat="45.26262036524713039398193359375" lon="-71.1492732726037502288818359375">
        <ele>641.4000244140625</ele>
        <time>2026-08-22T03:23:48.000Z</time>
        <extensions>
          <ns3:TrackPointExtension>
            <ns3:hr>130</ns3:hr>
            <ns3:cad>68</ns3:cad>
          </ns3:TrackPointExtension>
        </extensions>
      </trkpt>
      <trkpt lat="45.26263243518769741058349609375" lon="-71.1492840014398097991943359375">
        <ele>641.5999755859375</ele>
        <time>2026-08-22T03:23:49.000Z</time>
        <extensions>
          <ns3:TrackPointExtension>
            <ns3:hr>130</ns3:hr>
            <ns3:cad>68</ns3:cad>
          </ns3:TrackPointExtension>
        </extensions>
      </trkpt>
      <trkpt lat="45.26265020482242107391357421875" lon="-71.14929632283747196197509765625">
        <ele>641.5999755859375</ele>
        <time>2026-08-22T03:23:50.000Z</time>
        <extensions>
          <ns3:TrackPointExtension>
            <ns3:hr>130</ns3:hr>
            <ns3:cad>0</ns3:cad>
          </ns3:TrackPointExtension>
        </extensions>
      </trkpt>
      <trkpt lat="45.26266445405781269073486328125" lon="-71.1493031121790409088134765625">
        <ele>641.5999755859375</ele>
        <time>2026-08-22T03:23:51.000Z</time>
        <extensions>
          <ns3:TrackPointExtension>
            <ns3:hr>130</ns3:hr>
            <ns3:cad>0</ns3:cad>
          </ns3:TrackPointExtension>
        </extensions>
      </trkpt>
      <trkpt lat="45.26267652399837970733642578125" lon="-71.1493094824254512786865234375">
        <ele>641.5999755859375</ele>
        <time>2026-08-22T03:23:52.000Z</time>
        <extensions>
          <ns3:TrackPointExtension>
            <ns3:hr>130</ns3:hr>
            <ns3:cad>0</ns3:cad>
          </ns3:TrackPointExtension>
        </extensions>
      </trkpt>
      <trkpt lat="45.2626856602728366851806640625" lon="-71.1493118293583393096923828125">
        <ele>641.79998779296875</ele>
        <time>2026-08-22T03:23:53.000Z</time>
        <extensions>
          <ns3:TrackPointExtension>
            <ns3:hr>130</ns3:hr>
            <ns3:cad>0</ns3:cad>
          </ns3:TrackPointExtension>
        </extensions>
      </trkpt>
      <trkpt lat="45.2626955509185791015625" lon="-71.1493178643286228179931640625">
        <ele>641.79998779296875</ele>
        <time>2026-08-22T03:23:54.000Z</time>
        <extensions>
          <ns3:TrackPointExtension>
            <ns3:hr>130</ns3:hr>
            <ns3:cad>0</ns3:cad>
          </ns3:TrackPointExtension>
        </extensions>
      </trkpt>
      <trkpt lat="45.26270384900271892547607421875" lon="-71.1493259109556674957275390625">
        <ele>641.79998779296875</ele>
        <time>2026-08-22T03:23:55.000Z</time>
        <extensions>
          <ns3:TrackPointExtension>
            <ns3:hr>130</ns3:hr>
            <ns3:cad>70</ns3:cad>
          </ns3:TrackPointExtension>
        </extensions>
      </trkpt>
      <trkpt lat="45.26271097362041473388671875" lon="-71.149330101907253265380859375">
        <ele>641.79998779296875</ele>
        <time>2026-08-22T03:23:56.000Z</time>
        <extensions>
          <ns3:TrackPointExtension>
            <ns3:hr>130</ns3:hr>
            <ns3:cad>70</ns3:cad>
          </ns3:TrackPointExtension>
        </extensions>
      </trkpt>
      <trkpt lat="45.262719690799713134765625" lon="-71.149335801601409912109375">
        <ele>642</ele>
        <time>2026-08-22T03:23:57.000Z</time>
        <extensions>
          <ns3:TrackPointExtension>
            <ns3:hr>130</ns3:hr>
            <ns3:cad>0</ns3:cad>
          </ns3:TrackPointExtension>
        </extensions>
      </trkpt>
      <trkpt lat="45.26272899471223354339599609375" lon="-71.14933940581977367401123046875">
        <ele>642</ele>
        <time>2026-08-22T03:23:58.000Z</time>
        <extensions>
          <ns3:TrackPointExtension>
            <ns3:hr>130</ns3:hr>
            <ns3:cad>0</ns3:cad>
          </ns3:TrackPointExtension>
        </extensions>
      </trkpt>
      <trkpt lat="45.26274005882441997528076171875" lon="-71.14934108220040798187255859375">
        <ele>642</ele>
        <time>2026-08-22T03:23:59.000Z</time>
        <extensions>
          <ns3:TrackPointExtension>
            <ns3:hr>130</ns3:hr>
            <ns3:cad>0</ns3:cad>
          </ns3:TrackPointExtension>
        </extensions>
      </trkpt>
      <trkpt lat="45.26275011710822582244873046875" lon="-71.14933689124882221221923828125">
        <ele>642.20001220703125</ele>
        <time>2026-08-22T03:24:00.000Z</time>
        <extensions>
          <ns3:TrackPointExtension>
            <ns3:hr>130</ns3:hr>
            <ns3:cad>0</ns3:cad>
          </ns3:TrackPointExtension>
        </extensions>
      </trkpt>
      <trkpt lat="45.26275397278368473052978515625" lon="-71.1493285931646823883056640625">
        <ele>642</ele>
        <time>2026-08-22T03:24:01.000Z</time>
        <extensions>
          <ns3:TrackPointExtension>
            <ns3:hr>129</ns3:hr>
            <ns3:cad>0</ns3:cad>
          </ns3:TrackPointExtension>
        </extensions>
      </trkpt>
      <trkpt lat="45.26276252232491970062255859375" lon="-71.14932197146117687225341796875">
        <ele>641.79998779296875</ele>
        <time>2026-08-22T03:24:02.000Z</time>
        <extensions>
          <ns3:TrackPointExtension>
            <ns3:hr>129</ns3:hr>
            <ns3:cad>0</ns3:cad>
          </ns3:TrackPointExtension>
        </extensions>
      </trkpt>
      <trkpt lat="45.262781046330928802490234375" lon="-71.14931174553930759429931640625">
        <ele>641.5999755859375</ele>
        <time>2026-08-22T03:24:03.000Z</time>
        <extensions>
          <ns3:TrackPointExtension>
            <ns3:hr>129</ns3:hr>
            <ns3:cad>0</ns3:cad>
          </ns3:TrackPointExtension>
        </extensions>
      </trkpt>
      <trkpt lat="45.26279286481440067291259765625" lon="-71.1493124999105930328369140625">
        <ele>641.4000244140625</ele>
        <time>2026-08-22T03:24:04.000Z</time>
        <extensions>
          <ns3:TrackPointExtension>
            <ns3:hr>129</ns3:hr>
            <ns3:cad>0</ns3:cad>
          </ns3:TrackPointExtension>
        </extensions>
      </trkpt>
      <trkpt lat="45.26280392892658710479736328125" lon="-71.1493084765970706939697265625">
        <ele>641.20001220703125</ele>
        <time>2026-08-22T03:24:05.000Z</time>
        <extensions>
          <ns3:TrackPointExtension>
            <ns3:hr>128</ns3:hr>
            <ns3:cad>0</ns3:cad>
          </ns3:TrackPointExtension>
        </extensions>
      </trkpt>
      <trkpt lat="45.26281465776264667510986328125" lon="-71.14930554293096065521240234375">
        <ele>641</ele>
        <time>2026-08-22T03:24:06.000Z</time>
        <extensions>
          <ns3:TrackPointExtension>
            <ns3:hr>128</ns3:hr>
            <ns3:cad>0</ns3:cad>
          </ns3:TrackPointExtension>
        </extensions>
      </trkpt>
      <trkpt lat="45.26282052509486675262451171875" lon="-71.14930772222578525543212890625">
        <ele>641</ele>
        <time>2026-08-22T03:24:07.000Z</time>
        <extensions>
          <ns3:TrackPointExtension>
            <ns3:hr>128</ns3:hr>
            <ns3:cad>0</ns3:cad>
          </ns3:TrackPointExtension>
        </extensions>
      </trkpt>
      <trkpt lat="45.26283041574060916900634765625" lon="-71.14931493066251277923583984375">
        <ele>641</ele>
        <time>2026-08-22T03:24:08.000Z</time>
        <extensions>
          <ns3:TrackPointExtension>
            <ns3:hr>128</ns3:hr>
            <ns3:cad>0</ns3:cad>
          </ns3:TrackPointExtension>
        </extensions>
      </trkpt>
      <trkpt lat="45.2628418989479541778564453125" lon="-71.149332784116268157958984375">
        <ele>641.20001220703125</ele>
        <time>2026-08-22T03:24:09.000Z</time>
        <extensions>
          <ns3:TrackPointExtension>
            <ns3:hr>128</ns3:hr>
            <ns3:cad>0</ns3:cad>
          </ns3:TrackPointExtension>
        </extensions>
      </trkpt>
      <trkpt lat="45.26284634135663509368896484375" lon="-71.14934049546718597412109375">
        <ele>641.20001220703125</ele>
        <time>2026-08-22T03:24:10.000Z</time>
        <extensions>
          <ns3:TrackPointExtension>
            <ns3:hr>127</ns3:hr>
            <ns3:cad>0</ns3:cad>
          </ns3:TrackPointExtension>
        </extensions>
      </trkpt>
      <trkpt lat="45.2628522925078868865966796875" lon="-71.14934611134231090545654296875">
        <ele>641.20001220703125</ele>
        <time>2026-08-22T03:24:11.000Z</time>
        <extensions>
          <ns3:TrackPointExtension>
            <ns3:hr>127</ns3:hr>
            <ns3:cad>0</ns3:cad>
          </ns3:TrackPointExtension>
        </extensions>
      </trkpt>
      <trkpt lat="45.26285707019269466400146484375" lon="-71.149347536265850067138671875">
        <ele>641.20001220703125</ele>
        <time>2026-08-22T03:24:12.000Z</time>
        <extensions>
          <ns3:TrackPointExtension>
            <ns3:hr>127</ns3:hr>
            <ns3:cad>0</ns3:cad>
          </ns3:TrackPointExtension>
        </extensions>
      </trkpt>
      <trkpt lat="45.26286075823009014129638671875" lon="-71.14934929646551609039306640625">
        <ele>641.20001220703125</ele>
        <time>2026-08-22T03:24:13.000Z</time>
        <extensions>
          <ns3:TrackPointExtension>
            <ns3:hr>129</ns3:hr>
            <ns3:cad>0</ns3:cad>
          </ns3:TrackPointExtension>
        </extensions>
      </trkpt>
      <trkpt lat="45.26287098415195941925048828125" lon="-71.14935432560741901397705078125">
        <ele>641.20001220703125</ele>
        <time>2026-08-22T03:24:14.000Z</time>
        <extensions>
          <ns3:TrackPointExtension>
            <ns3:hr>129</ns3:hr>
            <ns3:cad>0</ns3:cad>
          </ns3:TrackPointExtension>
        </extensions>
      </trkpt>
      <trkpt lat="45.26288003660738468170166015625" lon="-71.149362288415431976318359375">
        <ele>641.20001220703125</ele>
        <time>2026-08-22T03:24:15.000Z</time>
        <extensions>
          <ns3:TrackPointExtension>
            <ns3:hr>129</ns3:hr>
            <ns3:cad>0</ns3:cad>
          </ns3:TrackPointExtension>
        </extensions>
      </trkpt>
      <trkpt lat="45.2628888376057147979736328125" lon="-71.14936874248087406158447265625">
        <ele>641.4000244140625</ele>
        <time>2026-08-22T03:24:16.000Z</time>
        <extensions>
          <ns3:TrackPointExtension>
            <ns3:hr>129</ns3:hr>
            <ns3:cad>0</ns3:cad>
          </ns3:TrackPointExtension>
        </extensions>
      </trkpt>
      <trkpt lat="45.2628992311656475067138671875" lon="-71.1493721790611743927001953125">
        <ele>641.4000244140625</ele>
        <time>2026-08-22T03:24:17.000Z</time>
        <extensions>
          <ns3:TrackPointExtension>
            <ns3:hr>129</ns3:hr>
            <ns3:cad>0</ns3:cad>
          </ns3:TrackPointExtension>
        </extensions>
      </trkpt>
      <trkpt lat="45.2629079483449459075927734375" lon="-71.1493778787553310394287109375">
        <ele>641.4000244140625</ele>
        <time>2026-08-22T03:24:18.000Z</time>
        <extensions>
          <ns3:TrackPointExtension>
            <ns3:hr>130</ns3:hr>
            <ns3:cad>0</ns3:cad>
          </ns3:TrackPointExtension>
        </extensions>
      </trkpt>
      <trkpt lat="45.2629203535616397857666015625" lon="-71.149390451610088348388671875">
        <ele>641.4000244140625</ele>
        <time>2026-08-22T03:24:19.000Z</time>
        <extensions>
          <ns3:TrackPointExtension>
            <ns3:hr>130</ns3:hr>
            <ns3:cad>0</ns3:cad>
          </ns3:TrackPointExtension>
        </extensions>
      </trkpt>
      <trkpt lat="45.262929908931255340576171875" lon="-71.14940059371292591094970703125">
        <ele>641.4000244140625</ele>
        <time>2026-08-22T03:24:20.000Z</time>
        <extensions>
          <ns3:TrackPointExtension>
            <ns3:hr>130</ns3:hr>
            <ns3:cad>0</ns3:cad>
          </ns3:TrackPointExtension>
        </extensions>
      </trkpt>
      <trkpt lat="45.262943319976329803466796875" lon="-71.1494068801403045654296875">
        <ele>641.4000244140625</ele>
        <time>2026-08-22T03:24:21.000Z</time>
        <extensions>
          <ns3:TrackPointExtension>
            <ns3:hr>131</ns3:hr>
            <ns3:cad>0</ns3:cad>
          </ns3:TrackPointExtension>
        </extensions>
      </trkpt>
      <trkpt lat="45.262950360774993896484375" lon="-71.149410903453826904296875">
        <ele>641.5999755859375</ele>
        <time>2026-08-22T03:24:22.000Z</time>
        <extensions>
          <ns3:TrackPointExtension>
            <ns3:hr>131</ns3:hr>
            <ns3:cad>0</ns3:cad>
          </ns3:TrackPointExtension>
        </extensions>
      </trkpt>
      <trkpt lat="45.26296335272490978240966796875" lon="-71.14942238666117191314697265625">
        <ele>641.5999755859375</ele>
        <time>2026-08-22T03:24:23.000Z</time>
        <extensions>
          <ns3:TrackPointExtension>
            <ns3:hr>131</ns3:hr>
            <ns3:cad>0</ns3:cad>
          </ns3:TrackPointExtension>
        </extensions>
      </trkpt>
      <trkpt lat="45.2629729919135570526123046875" lon="-71.149428673088550567626953125">
        <ele>641.5999755859375</ele>
        <time>2026-08-22T03:24:24.000Z</time>
        <extensions>
          <ns3:TrackPointExtension>
            <ns3:hr>131</ns3:hr>
            <ns3:cad>0</ns3:cad>
          </ns3:TrackPointExtension>
        </extensions>
      </trkpt>
      <trkpt lat="45.26298858225345611572265625" lon="-71.14944082684814929962158203125">
        <ele>641.79998779296875</ele>
        <time>2026-08-22T03:24:25.000Z</time>
        <extensions>
          <ns3:TrackPointExtension>
            <ns3:hr>130</ns3:hr>
            <ns3:cad>0</ns3:cad>
          </ns3:TrackPointExtension>
        </extensions>
      </trkpt>
      <trkpt lat="45.263006687164306640625" lon="-71.14944870583713054656982421875">
        <ele>642</ele>
        <time>2026-08-22T03:24:26.000Z</time>
        <extensions>
          <ns3:TrackPointExtension>
            <ns3:hr>129</ns3:hr>
            <ns3:cad>0</ns3:cad>
          </ns3:TrackPointExtension>
        </extensions>
      </trkpt>
      <trkpt lat="45.26301515288650989532470703125" lon="-71.14944719709455966949462890625">
        <ele>642</ele>
        <time>2026-08-22T03:24:27.000Z</time>
        <extensions>
          <ns3:TrackPointExtension>
            <ns3:hr>129</ns3:hr>
            <ns3:cad>0</ns3:cad>
          </ns3:TrackPointExtension>
        </extensions>
      </trkpt>
      <trkpt lat="45.263025127351284027099609375" lon="-71.14944568835198879241943359375">
        <ele>642.20001220703125</ele>
        <time>2026-08-22T03:24:28.000Z</time>
        <extensions>
          <ns3:TrackPointExtension>
            <ns3:hr>128</ns3:hr>
            <ns3:cad>0</ns3:cad>
          </ns3:TrackPointExtension>
        </extensions>
      </trkpt>
      <trkpt lat="45.26303845457732677459716796875" lon="-71.14944451488554477691650390625">
        <ele>642.20001220703125</ele>
        <time>2026-08-22T03:24:29.000Z</time>
        <extensions>
          <ns3:TrackPointExtension>
            <ns3:hr>127</ns3:hr>
            <ns3:cad>71</ns3:cad>
          </ns3:TrackPointExtension>
        </extensions>
      </trkpt>
      <trkpt lat="45.2630477584898471832275390625" lon="-71.149443089962005615234375">
        <ele>642.20001220703125</ele>
        <time>2026-08-22T03:24:30.000Z</time>
        <extensions>
          <ns3:TrackPointExtension>
            <ns3:hr>127</ns3:hr>
            <ns3:cad>71</ns3:cad>
          </ns3:TrackPointExtension>
        </extensions>
      </trkpt>
      <trkpt lat="45.2630589902400970458984375" lon="-71.149446107447147369384765625">
        <ele>642</ele>
        <time>2026-08-22T03:24:31.000Z</time>
        <extensions>
          <ns3:TrackPointExtension>
            <ns3:hr>127</ns3:hr>
            <ns3:cad>71</ns3:cad>
          </ns3:TrackPointExtension>
        </extensions>
      </trkpt>
      <trkpt lat="45.26306569576263427734375" lon="-71.14944954402744770050048828125">
        <ele>642</ele>
        <time>2026-08-22T03:24:32.000Z</time>
        <extensions>
          <ns3:TrackPointExtension>
            <ns3:hr>128</ns3:hr>
            <ns3:cad>71</ns3:cad>
          </ns3:TrackPointExtension>
        </extensions>
      </trkpt>
      <trkpt lat="45.26307047344744205474853515625" lon="-71.149460189044475555419921875">
        <ele>642</ele>
        <time>2026-08-22T03:24:33.000Z</time>
        <extensions>
          <ns3:TrackPointExtension>
            <ns3:hr>128</ns3:hr>
            <ns3:cad>71</ns3:cad>
          </ns3:TrackPointExtension>
        </extensions>
      </trkpt>
      <trkpt lat="45.26307114399969577789306640625" lon="-71.14946119487285614013671875">
        <ele>642</ele>
        <time>2026-08-22T03:24:34.000Z</time>
        <extensions>
          <ns3:TrackPointExtension>
            <ns3:hr>128</ns3:hr>
            <ns3:cad>0</ns3:cad>
          </ns3:TrackPointExtension>
        </extensions>
      </trkpt>
      <trkpt lat="45.2630688808858394622802734375" lon="-71.14946614019572734832763671875">
        <ele>642.20001220703125</ele>
        <time>2026-08-22T03:24:35.000Z</time>
        <extensions>
          <ns3:TrackPointExtension>
            <ns3:hr>127</ns3:hr>
            <ns3:cad>0</ns3:cad>
          </ns3:TrackPointExtension>
        </extensions>
      </trkpt>
      <trkpt lat="45.26306561194360256195068359375" lon="-71.1494714207947254180908203125">
        <ele>642.20001220703125</ele>
        <time>2026-08-22T03:24:36.000Z</time>
        <extensions>
          <ns3:TrackPointExtension>
            <ns3:hr>127</ns3:hr>
            <ns3:cad>0</ns3:cad>
          </ns3:TrackPointExtension>
        </extensions>
      </trkpt>
      <trkpt lat="45.2630611695349216461181640625" lon="-71.14947334863245487213134765625">
        <ele>642.4000244140625</ele>
        <time>2026-08-22T03:24:37.000Z</time>
        <extensions>
          <ns3:TrackPointExtension>
            <ns3:hr>127</ns3:hr>
            <ns3:cad>0</ns3:cad>
          </ns3:TrackPointExtension>
        </extensions>
      </trkpt>
      <trkpt lat="45.26306259445846080780029296875" lon="-71.14948055706918239593505859375">
        <ele>642.5999755859375</ele>
        <time>2026-08-22T03:24:38.000Z</time>
        <extensions>
          <ns3:TrackPointExtension>
            <ns3:hr>127</ns3:hr>
            <ns3:cad>0</ns3:cad>
          </ns3:TrackPointExtension>
        </extensions>
      </trkpt>
      <trkpt lat="45.263063013553619384765625" lon="-71.1494858376681804656982421875">
        <ele>642.79998779296875</ele>
        <time>2026-08-22T03:24:39.000Z</time>
        <extensions>
          <ns3:TrackPointExtension>
            <ns3:hr>127</ns3:hr>
            <ns3:cad>60</ns3:cad>
          </ns3:TrackPointExtension>
        </extensions>
      </trkpt>
      <trkpt lat="45.263070054352283477783203125" lon="-71.14949497394263744354248046875">
        <ele>643</ele>
        <time>2026-08-22T03:24:40.000Z</time>
        <extensions>
          <ns3:TrackPointExtension>
            <ns3:hr>128</ns3:hr>
            <ns3:cad>60</ns3:cad>
          </ns3:TrackPointExtension>
        </extensions>
      </trkpt>
      <trkpt lat="45.26307399384677410125732421875" lon="-71.14949597977101802825927734375">
        <ele>643.20001220703125</ele>
        <time>2026-08-22T03:24:41.000Z</time>
        <extensions>
          <ns3:TrackPointExtension>
            <ns3:hr>129</ns3:hr>
            <ns3:cad>0</ns3:cad>
          </ns3:TrackPointExtension>
        </extensions>
      </trkpt>
      <trkpt lat="45.26308857835829257965087890625" lon="-71.14951123483479022979736328125">
        <ele>643.20001220703125</ele>
        <time>2026-08-22T03:24:42.000Z</time>
        <extensions>
          <ns3:TrackPointExtension>
            <ns3:hr>129</ns3:hr>
            <ns3:cad>0</ns3:cad>
          </ns3:TrackPointExtension>
        </extensions>
      </trkpt>
      <trkpt lat="45.26309796608984470367431640625" lon="-71.149522550404071807861328125">
        <ele>643.4000244140625</ele>
        <time>2026-08-22T03:24:43.000Z</time>
        <extensions>
          <ns3:TrackPointExtension>
            <ns3:hr>129</ns3:hr>
            <ns3:cad>0</ns3:cad>
          </ns3:TrackPointExtension>
        </extensions>
      </trkpt>
      <trkpt lat="45.26310550980269908905029296875" lon="-71.14953453652560710906982421875">
        <ele>643.4000244140625</ele>
        <time>2026-08-22T03:24:44.000Z</time>
        <extensions>
          <ns3:TrackPointExtension>
            <ns3:hr>130</ns3:hr>
            <ns3:cad>0</ns3:cad>
          </ns3:TrackPointExtension>
        </extensions>
      </trkpt>
      <trkpt lat="45.2631107904016971588134765625" lon="-71.14954409189522266387939453125">
        <ele>643.4000244140625</ele>
        <time>2026-08-22T03:24:45.000Z</time>
        <extensions>
          <ns3:TrackPointExtension>
            <ns3:hr>130</ns3:hr>
            <ns3:cad>0</ns3:cad>
          </ns3:TrackPointExtension>
        </extensions>
      </trkpt>
      <trkpt lat="45.2631161548197269439697265625" lon="-71.1495626159012317657470703125">
        <ele>643.4000244140625</ele>
        <time>2026-08-22T03:24:46.000Z</time>
        <extensions>
          <ns3:TrackPointExtension>
            <ns3:hr>129</ns3:hr>
            <ns3:cad>0</ns3:cad>
          </ns3:TrackPointExtension>
        </extensions>
      </trkpt>
      <trkpt lat="45.263119675219058990478515625" lon="-71.14957108162343502044677734375">
        <ele>643.4000244140625</ele>
        <time>2026-08-22T03:24:47.000Z</time>
        <extensions>
          <ns3:TrackPointExtension>
            <ns3:hr>129</ns3:hr>
            <ns3:cad>0</ns3:cad>
          </ns3:TrackPointExtension>
        </extensions>
      </trkpt>
      <trkpt lat="45.2631319127976894378662109375" lon="-71.14958751015365123748779296875">
        <ele>643.4000244140625</ele>
        <time>2026-08-22T03:24:48.000Z</time>
        <extensions>
          <ns3:TrackPointExtension>
            <ns3:hr>129</ns3:hr>
            <ns3:cad>0</ns3:cad>
          </ns3:TrackPointExtension>
        </extensions>
      </trkpt>
      <trkpt lat="45.26314088143408298492431640625" lon="-71.14960025064647197723388671875">
        <ele>643.5999755859375</ele>
        <time>2026-08-22T03:24:49.000Z</time>
        <extensions>
          <ns3:TrackPointExtension>
            <ns3:hr>129</ns3:hr>
            <ns3:cad>0</ns3:cad>
          </ns3:TrackPointExtension>
        </extensions>
      </trkpt>
      <trkpt lat="45.26315026916563510894775390625" lon="-71.149616427719593048095703125">
        <ele>643.79998779296875</ele>
        <time>2026-08-22T03:24:50.000Z</time>
        <extensions>
          <ns3:TrackPointExtension>
            <ns3:hr>130</ns3:hr>
            <ns3:cad>0</ns3:cad>
          </ns3:TrackPointExtension>
        </extensions>
      </trkpt>
      <trkpt lat="45.2631555497646331787109375" lon="-71.1496236361563205718994140625">
        <ele>643.79998779296875</ele>
        <time>2026-08-22T03:24:51.000Z</time>
        <extensions>
          <ns3:TrackPointExtension>
            <ns3:hr>130</ns3:hr>
            <ns3:cad>0</ns3:cad>
          </ns3:TrackPointExtension>
        </extensions>
      </trkpt>
      <trkpt lat="45.26316485367715358734130859375" lon="-71.14963662810623645782470703125">
        <ele>644</ele>
        <time>2026-08-22T03:24:52.000Z</time>
        <extensions>
          <ns3:TrackPointExtension>
            <ns3:hr>130</ns3:hr>
            <ns3:cad>0</ns3:cad>
          </ns3:TrackPointExtension>
        </extensions>
      </trkpt>
      <trkpt lat="45.26317365467548370361328125" lon="-71.14964266307651996612548828125">
        <ele>644.20001220703125</ele>
        <time>2026-08-22T03:24:53.000Z</time>
        <extensions>
          <ns3:TrackPointExtension>
            <ns3:hr>131</ns3:hr>
            <ns3:cad>0</ns3:cad>
          </ns3:TrackPointExtension>
        </extensions>
      </trkpt>
      <trkpt lat="45.26318932883441448211669921875" lon="-71.149656660854816436767578125">
        <ele>644.4000244140625</ele>
        <time>2026-08-22T03:24:54.000Z</time>
        <extensions>
          <ns3:TrackPointExtension>
            <ns3:hr>131</ns3:hr>
            <ns3:cad>0</ns3:cad>
          </ns3:TrackPointExtension>
        </extensions>
      </trkpt>
      <trkpt lat="45.26319838128983974456787109375" lon="-71.14966772496700286865234375">
        <ele>644.4000244140625</ele>
        <time>2026-08-22T03:24:55.000Z</time>
        <extensions>
          <ns3:TrackPointExtension>
            <ns3:hr>131</ns3:hr>
            <ns3:cad>0</ns3:cad>
          </ns3:TrackPointExtension>
        </extensions>
      </trkpt>
      <trkpt lat="45.2632096968591213226318359375" lon="-71.149682141840457916259765625">
        <ele>644.4000244140625</ele>
        <time>2026-08-22T03:24:56.000Z</time>
        <extensions>
          <ns3:TrackPointExtension>
            <ns3:hr>131</ns3:hr>
            <ns3:cad>0</ns3:cad>
          </ns3:TrackPointExtension>
        </extensions>
      </trkpt>
      <trkpt lat="45.2632174082100391387939453125" lon="-71.14969446323812007904052734375">
        <ele>644.5999755859375</ele>
        <time>2026-08-22T03:24:57.000Z</time>
        <extensions>
          <ns3:TrackPointExtension>
            <ns3:hr>132</ns3:hr>
            <ns3:cad>0</ns3:cad>
          </ns3:TrackPointExtension>
        </extensions>
      </trkpt>
      <trkpt lat="45.263224281370639801025390625" lon="-71.1497061140835285186767578125">
        <ele>644.5999755859375</ele>
        <time>2026-08-22T03:24:58.000Z</time>
        <extensions>
          <ns3:TrackPointExtension>
            <ns3:hr>132</ns3:hr>
            <ns3:cad>0</ns3:cad>
          </ns3:TrackPointExtension>
        </extensions>
      </trkpt>
      <trkpt lat="45.26322327554225921630859375" lon="-71.14972078241407871246337890625">
        <ele>644.79998779296875</ele>
        <time>2026-08-22T03:24:59.000Z</time>
        <extensions>
          <ns3:TrackPointExtension>
            <ns3:hr>132</ns3:hr>
            <ns3:cad>0</ns3:cad>
          </ns3:TrackPointExtension>
        </extensions>
      </trkpt>
      <trkpt lat="45.26322470046579837799072265625" lon="-71.14973218180239200592041015625">
        <ele>644.79998779296875</ele>
        <time>2026-08-22T03:25:00.000Z</time>
        <extensions>
          <ns3:TrackPointExtension>
            <ns3:hr>132</ns3:hr>
            <ns3:cad>0</ns3:cad>
          </ns3:TrackPointExtension>
        </extensions>
      </trkpt>
      <trkpt lat="45.2632204256951808929443359375" lon="-71.14973871968686580657958984375">
        <ele>645.20001220703125</ele>
        <time>2026-08-22T03:25:01.000Z</time>
        <extensions>
          <ns3:TrackPointExtension>
            <ns3:hr>133</ns3:hr>
            <ns3:cad>0</ns3:cad>
          </ns3:TrackPointExtension>
        </extensions>
      </trkpt>
      <trkpt lat="45.263218246400356292724609375" lon="-71.149755232036113739013671875">
        <ele>645.4000244140625</ele>
        <time>2026-08-22T03:25:02.000Z</time>
        <extensions>
          <ns3:TrackPointExtension>
            <ns3:hr>134</ns3:hr>
            <ns3:cad>0</ns3:cad>
          </ns3:TrackPointExtension>
        </extensions>
      </trkpt>
      <trkpt lat="45.2632214315235614776611328125" lon="-71.14977140910923480987548828125">
        <ele>645.5999755859375</ele>
        <time>2026-08-22T03:25:03.000Z</time>
        <extensions>
          <ns3:TrackPointExtension>
            <ns3:hr>134</ns3:hr>
            <ns3:cad>0</ns3:cad>
          </ns3:TrackPointExtension>
        </extensions>
      </trkpt>
      <trkpt lat="45.2632252871990203857421875" lon="-71.1497812159359455108642578125">
        <ele>645.79998779296875</ele>
        <time>2026-08-22T03:25:04.000Z</time>
        <extensions>
          <ns3:TrackPointExtension>
            <ns3:hr>135</ns3:hr>
            <ns3:cad>0</ns3:cad>
          </ns3:TrackPointExtension>
        </extensions>
      </trkpt>
      <trkpt lat="45.263232327997684478759765625" lon="-71.14979370497167110443115234375">
        <ele>646</ele>
        <time>2026-08-22T03:25:05.000Z</time>
        <extensions>
          <ns3:TrackPointExtension>
            <ns3:hr>135</ns3:hr>
            <ns3:cad>0</ns3:cad>
          </ns3:TrackPointExtension>
        </extensions>
      </trkpt>
      <trkpt lat="45.26323978789150714874267578125" lon="-71.1498038470745086669921875">
        <ele>646.20001220703125</ele>
        <time>2026-08-22T03:25:06.000Z</time>
        <extensions>
          <ns3:TrackPointExtension>
            <ns3:hr>135</ns3:hr>
            <ns3:cad>0</ns3:cad>
          </ns3:TrackPointExtension>
        </extensions>
      </trkpt>
      <trkpt lat="45.2632563002407550811767578125" lon="-71.1498207785189151763916015625">
        <ele>646.4000244140625</ele>
        <time>2026-08-22T03:25:07.000Z</time>
        <extensions>
          <ns3:TrackPointExtension>
            <ns3:hr>135</ns3:hr>
            <ns3:cad>0</ns3:cad>
          </ns3:TrackPointExtension>
        </extensions>
      </trkpt>
      <trkpt lat="45.26326258666813373565673828125" lon="-71.14983402192592620849609375">
        <ele>646.4000244140625</ele>
        <time>2026-08-22T03:25:08.000Z</time>
        <extensions>
          <ns3:TrackPointExtension>
            <ns3:hr>135</ns3:hr>
            <ns3:cad>0</ns3:cad>
          </ns3:TrackPointExtension>
        </extensions>
      </trkpt>
      <trkpt lat="45.26327767409384250640869140625" lon="-71.14984986372292041778564453125">
        <ele>646.5999755859375</ele>
        <time>2026-08-22T03:25:09.000Z</time>
        <extensions>
          <ns3:TrackPointExtension>
            <ns3:hr>135</ns3:hr>
            <ns3:cad>0</ns3:cad>
          </ns3:TrackPointExtension>
        </extensions>
      </trkpt>
      <trkpt lat="45.26328773237764835357666015625" lon="-71.1498636938631534576416015625">
        <ele>646.5999755859375</ele>
        <time>2026-08-22T03:25:10.000Z</time>
        <extensions>
          <ns3:TrackPointExtension>
            <ns3:hr>134</ns3:hr>
            <ns3:cad>0</ns3:cad>
          </ns3:TrackPointExtension>
        </extensions>
      </trkpt>
      <trkpt lat="45.26329980231821537017822265625" lon="-71.1498737521469593048095703125">
        <ele>646.5999755859375</ele>
        <time>2026-08-22T03:25:11.000Z</time>
        <extensions>
          <ns3:TrackPointExtension>
            <ns3:hr>134</ns3:hr>
            <ns3:cad>0</ns3:cad>
          </ns3:TrackPointExtension>
        </extensions>
      </trkpt>
      <trkpt lat="45.26330835185945034027099609375" lon="-71.1498747579753398895263671875">
        <ele>646.5999755859375</ele>
        <time>2026-08-22T03:25:12.000Z</time>
        <extensions>
          <ns3:TrackPointExtension>
            <ns3:hr>134</ns3:hr>
            <ns3:cad>0</ns3:cad>
          </ns3:TrackPointExtension>
        </extensions>
      </trkpt>
      <trkpt lat="45.263325534760951995849609375" lon="-71.14987852983176708221435546875">
        <ele>646.5999755859375</ele>
        <time>2026-08-22T03:25:13.000Z</time>
        <extensions>
          <ns3:TrackPointExtension>
            <ns3:hr>134</ns3:hr>
            <ns3:cad>0</ns3:cad>
          </ns3:TrackPointExtension>
        </extensions>
      </trkpt>
      <trkpt lat="45.26334087364375591278076171875" lon="-71.14987567998468875885009765625">
        <ele>646.5999755859375</ele>
        <time>2026-08-22T03:25:14.000Z</time>
        <extensions>
          <ns3:TrackPointExtension>
            <ns3:hr>135</ns3:hr>
            <ns3:cad>0</ns3:cad>
          </ns3:TrackPointExtension>
        </extensions>
      </trkpt>
      <trkpt lat="45.2633612416684627532958984375" lon="-71.14987165667116641998291015625">
        <ele>646.5999755859375</ele>
        <time>2026-08-22T03:25:15.000Z</time>
        <extensions>
          <ns3:TrackPointExtension>
            <ns3:hr>135</ns3:hr>
            <ns3:cad>0</ns3:cad>
          </ns3:TrackPointExtension>
        </extensions>
      </trkpt>
      <trkpt lat="45.26338228024542331695556640625" lon="-71.14988087676465511322021484375">
        <ele>646.5999755859375</ele>
        <time>2026-08-22T03:25:16.000Z</time>
        <extensions>
          <ns3:TrackPointExtension>
            <ns3:hr>135</ns3:hr>
            <ns3:cad>0</ns3:cad>
          </ns3:TrackPointExtension>
        </extensions>
      </trkpt>
      <trkpt lat="45.26340139098465442657470703125" lon="-71.14988900721073150634765625">
        <ele>646.5999755859375</ele>
        <time>2026-08-22T03:25:17.000Z</time>
        <extensions>
          <ns3:TrackPointExtension>
            <ns3:hr>136</ns3:hr>
            <ns3:cad>0</ns3:cad>
          </ns3:TrackPointExtension>
        </extensions>
      </trkpt>
      <trkpt lat="45.26342184282839298248291015625" lon="-71.1498918570578098297119140625">
        <ele>646.5999755859375</ele>
        <time>2026-08-22T03:25:18.000Z</time>
        <extensions>
          <ns3:TrackPointExtension>
            <ns3:hr>136</ns3:hr>
            <ns3:cad>0</ns3:cad>
          </ns3:TrackPointExtension>
        </extensions>
      </trkpt>
      <trkpt lat="45.2634427137672901153564453125" lon="-71.14989311434328556060791015625">
        <ele>646.5999755859375</ele>
        <time>2026-08-22T03:25:19.000Z</time>
        <extensions>
          <ns3:TrackPointExtension>
            <ns3:hr>137</ns3:hr>
            <ns3:cad>0</ns3:cad>
          </ns3:TrackPointExtension>
        </extensions>
      </trkpt>
      <trkpt lat="45.26345671154558658599853515625" lon="-71.14989747293293476104736328125">
        <ele>646.5999755859375</ele>
        <time>2026-08-22T03:25:20.000Z</time>
        <extensions>
          <ns3:TrackPointExtension>
            <ns3:hr>137</ns3:hr>
            <ns3:cad>0</ns3:cad>
          </ns3:TrackPointExtension>
        </extensions>
      </trkpt>
      <trkpt lat="45.2634782530367374420166015625" lon="-71.14990870468318462371826171875">
        <ele>646.5999755859375</ele>
        <time>2026-08-22T03:25:21.000Z</time>
        <extensions>
          <ns3:TrackPointExtension>
            <ns3:hr>137</ns3:hr>
            <ns3:cad>0</ns3:cad>
          </ns3:TrackPointExtension>
        </extensions>
      </trkpt>
      <trkpt lat="45.263501219451427459716796875" lon="-71.1499233730137348175048828125">
        <ele>646.5999755859375</ele>
        <time>2026-08-22T03:25:22.000Z</time>
        <extensions>
          <ns3:TrackPointExtension>
            <ns3:hr>137</ns3:hr>
            <ns3:cad>73</ns3:cad>
          </ns3:TrackPointExtension>
        </extensions>
      </trkpt>
      <trkpt lat="45.26352175511419773101806640625" lon="-71.1499290727078914642333984375">
        <ele>646.5999755859375</ele>
        <time>2026-08-22T03:25:23.000Z</time>
        <extensions>
          <ns3:TrackPointExtension>
            <ns3:hr>138</ns3:hr>
            <ns3:cad>73</ns3:cad>
          </ns3:TrackPointExtension>
        </extensions>
      </trkpt>
      <trkpt lat="45.26353550143539905548095703125" lon="-71.1499304138123989105224609375">
        <ele>646.5999755859375</ele>
        <time>2026-08-22T03:25:24.000Z</time>
        <extensions>
          <ns3:TrackPointExtension>
            <ns3:hr>138</ns3:hr>
            <ns3:cad>74</ns3:cad>
          </ns3:TrackPointExtension>
        </extensions>
      </trkpt>
      <trkpt lat="45.2635506726801395416259765625" lon="-71.14993267692625522613525390625">
        <ele>646.5999755859375</ele>
        <time>2026-08-22T03:25:25.000Z</time>
        <extensions>
          <ns3:TrackPointExtension>
            <ns3:hr>138</ns3:hr>
            <ns3:cad>74</ns3:cad>
          </ns3:TrackPointExtension>
        </extensions>
      </trkpt>
      <trkpt lat="45.26356584392488002777099609375" lon="-71.1499327607452869415283203125">
        <ele>646.79998779296875</ele>
        <time>2026-08-22T03:25:26.000Z</time>
        <extensions>
          <ns3:TrackPointExtension>
            <ns3:hr>138</ns3:hr>
            <ns3:cad>74</ns3:cad>
          </ns3:TrackPointExtension>
        </extensions>
      </trkpt>
      <trkpt lat="45.263582356274127960205078125" lon="-71.14993393421173095703125">
        <ele>646.79998779296875</ele>
        <time>2026-08-22T03:25:27.000Z</time>
        <extensions>
          <ns3:TrackPointExtension>
            <ns3:hr>138</ns3:hr>
            <ns3:cad>74</ns3:cad>
          </ns3:TrackPointExtension>
        </extensions>
      </trkpt>
      <trkpt lat="45.2635945938527584075927734375" lon="-71.1499371193349361419677734375">
        <ele>646.79998779296875</ele>
        <time>2026-08-22T03:25:28.000Z</time>
        <extensions>
          <ns3:TrackPointExtension>
            <ns3:hr>138</ns3:hr>
            <ns3:cad>74</ns3:cad>
          </ns3:TrackPointExtension>
        </extensions>
      </trkpt>
      <trkpt lat="45.26361613534390926361083984375" lon="-71.14994323812425136566162109375">
        <ele>646.5999755859375</ele>
        <time>2026-08-22T03:25:29.000Z</time>
        <extensions>
          <ns3:TrackPointExtension>
            <ns3:hr>138</ns3:hr>
            <ns3:cad>74</ns3:cad>
          </ns3:TrackPointExtension>
        </extensions>
      </trkpt>
      <trkpt lat="45.2636318095028400421142578125" lon="-71.1499458365142345428466796875">
        <ele>646.5999755859375</ele>
        <time>2026-08-22T03:25:30.000Z</time>
        <extensions>
          <ns3:TrackPointExtension>
            <ns3:hr>139</ns3:hr>
            <ns3:cad>74</ns3:cad>
          </ns3:TrackPointExtension>
        </extensions>
      </trkpt>
      <trkpt lat="45.26364949531853199005126953125" lon="-71.1499513685703277587890625">
        <ele>646.4000244140625</ele>
        <time>2026-08-22T03:25:31.000Z</time>
        <extensions>
          <ns3:TrackPointExtension>
            <ns3:hr>139</ns3:hr>
            <ns3:cad>61</ns3:cad>
          </ns3:TrackPointExtension>
        </extensions>
      </trkpt>
      <trkpt lat="45.263664163649082183837890625" lon="-71.14996033720672130584716796875">
        <ele>646.4000244140625</ele>
        <time>2026-08-22T03:25:32.000Z</time>
        <extensions>
          <ns3:TrackPointExtension>
            <ns3:hr>139</ns3:hr>
            <ns3:cad>61</ns3:cad>
          </ns3:TrackPointExtension>
        </extensions>
      </trkpt>
      <trkpt lat="45.2636767365038394927978515625" lon="-71.149963103234767913818359375">
        <ele>646.4000244140625</ele>
        <time>2026-08-22T03:25:33.000Z</time>
        <extensions>
          <ns3:TrackPointExtension>
            <ns3:hr>138</ns3:hr>
            <ns3:cad>61</ns3:cad>
          </ns3:TrackPointExtension>
        </extensions>
      </trkpt>
      <trkpt lat="45.26369006372988224029541015625" lon="-71.1499632708728313446044921875">
        <ele>646.4000244140625</ele>
        <time>2026-08-22T03:25:34.000Z</time>
        <extensions>
          <ns3:TrackPointExtension>
            <ns3:hr>138</ns3:hr>
            <ns3:cad>62</ns3:cad>
          </ns3:TrackPointExtension>
        </extensions>
      </trkpt>
      <trkpt lat="45.26370414532721042633056640625" lon="-71.1499619297683238983154296875">
        <ele>646.20001220703125</ele>
        <time>2026-08-22T03:25:35.000Z</time>
        <extensions>
          <ns3:TrackPointExtension>
            <ns3:hr>138</ns3:hr>
            <ns3:cad>62</ns3:cad>
          </ns3:TrackPointExtension>
        </extensions>
      </trkpt>
      <trkpt lat="45.2637169696390628814697265625" lon="-71.1499585770070552825927734375">
        <ele>646.20001220703125</ele>
        <time>2026-08-22T03:25:36.000Z</time>
        <extensions>
          <ns3:TrackPointExtension>
            <ns3:hr>138</ns3:hr>
            <ns3:cad>62</ns3:cad>
          </ns3:TrackPointExtension>
        </extensions>
      </trkpt>
      <trkpt lat="45.26373331435024738311767578125" lon="-71.14994893781840801239013671875">
        <ele>646.20001220703125</ele>
        <time>2026-08-22T03:25:37.000Z</time>
        <extensions>
          <ns3:TrackPointExtension>
            <ns3:hr>137</ns3:hr>
            <ns3:cad>62</ns3:cad>
          </ns3:TrackPointExtension>
        </extensions>
      </trkpt>
      <trkpt lat="45.26374186389148235321044921875" lon="-71.14994533360004425048828125">
        <ele>646.20001220703125</ele>
        <time>2026-08-22T03:25:38.000Z</time>
        <extensions>
          <ns3:TrackPointExtension>
            <ns3:hr>137</ns3:hr>
            <ns3:cad>62</ns3:cad>
          </ns3:TrackPointExtension>
        </extensions>
      </trkpt>
      <trkpt lat="45.26375661604106426239013671875" lon="-71.1499434895813465118408203125">
        <ele>646.20001220703125</ele>
        <time>2026-08-22T03:25:39.000Z</time>
        <extensions>
          <ns3:TrackPointExtension>
            <ns3:hr>137</ns3:hr>
            <ns3:cad>62</ns3:cad>
          </ns3:TrackPointExtension>
        </extensions>
      </trkpt>
      <trkpt lat="45.263768769800662994384765625" lon="-71.1499337665736675262451171875">
        <ele>646</ele>
        <time>2026-08-22T03:25:40.000Z</time>
        <extensions>
          <ns3:TrackPointExtension>
            <ns3:hr>136</ns3:hr>
            <ns3:cad>62</ns3:cad>
          </ns3:TrackPointExtension>
        </extensions>
      </trkpt>
      <trkpt lat="45.26377790607511997222900390625" lon="-71.14992848597466945648193359375">
        <ele>646</ele>
        <time>2026-08-22T03:25:41.000Z</time>
        <extensions>
          <ns3:TrackPointExtension>
            <ns3:hr>136</ns3:hr>
            <ns3:cad>62</ns3:cad>
          </ns3:TrackPointExtension>
        </extensions>
      </trkpt>
      <trkpt lat="45.26379668153822422027587890625" lon="-71.14992320537567138671875">
        <ele>645.79998779296875</ele>
        <time>2026-08-22T03:25:42.000Z</time>
        <extensions>
          <ns3:TrackPointExtension>
            <ns3:hr>136</ns3:hr>
            <ns3:cad>62</ns3:cad>
          </ns3:TrackPointExtension>
        </extensions>
      </trkpt>
      <trkpt lat="45.26381009258329868316650390625" lon="-71.14992513321340084075927734375">
        <ele>645.79998779296875</ele>
        <time>2026-08-22T03:25:43.000Z</time>
        <extensions>
          <ns3:TrackPointExtension>
            <ns3:hr>136</ns3:hr>
            <ns3:cad>62</ns3:cad>
          </ns3:TrackPointExtension>
        </extensions>
      </trkpt>
      <trkpt lat="45.263826437294483184814453125" lon="-71.14992513321340084075927734375">
        <ele>645.5999755859375</ele>
        <time>2026-08-22T03:25:44.000Z</time>
        <extensions>
          <ns3:TrackPointExtension>
            <ns3:hr>136</ns3:hr>
            <ns3:cad>62</ns3:cad>
          </ns3:TrackPointExtension>
        </extensions>
      </trkpt>
      <trkpt lat="45.26384026743471622467041015625" lon="-71.1499237082898616790771484375">
        <ele>645.5999755859375</ele>
        <time>2026-08-22T03:25:45.000Z</time>
        <extensions>
          <ns3:TrackPointExtension>
            <ns3:hr>135</ns3:hr>
            <ns3:cad>62</ns3:cad>
          </ns3:TrackPointExtension>
        </extensions>
      </trkpt>
      <trkpt lat="45.26385485194623470306396484375" lon="-71.149908788502216339111328125">
        <ele>645.5999755859375</ele>
        <time>2026-08-22T03:25:46.000Z</time>
        <extensions>
          <ns3:TrackPointExtension>
            <ns3:hr>136</ns3:hr>
            <ns3:cad>62</ns3:cad>
          </ns3:TrackPointExtension>
        </extensions>
      </trkpt>
      <trkpt lat="45.26386776007711887359619140625" lon="-71.14990401081740856170654296875">
        <ele>645.5999755859375</ele>
        <time>2026-08-22T03:25:47.000Z</time>
        <extensions>
          <ns3:TrackPointExtension>
            <ns3:hr>136</ns3:hr>
            <ns3:cad>62</ns3:cad>
          </ns3:TrackPointExtension>
        </extensions>
      </trkpt>
      <trkpt lat="45.26388217695057392120361328125" lon="-71.14990099333226680755615234375">
        <ele>645.5999755859375</ele>
        <time>2026-08-22T03:25:48.000Z</time>
        <extensions>
          <ns3:TrackPointExtension>
            <ns3:hr>136</ns3:hr>
            <ns3:cad>62</ns3:cad>
          </ns3:TrackPointExtension>
        </extensions>
      </trkpt>
      <trkpt lat="45.2638970129191875457763671875" lon="-71.1499089561402797698974609375">
        <ele>645.4000244140625</ele>
        <time>2026-08-22T03:25:49.000Z</time>
        <extensions>
          <ns3:TrackPointExtension>
            <ns3:hr>135</ns3:hr>
            <ns3:cad>62</ns3:cad>
          </ns3:TrackPointExtension>
        </extensions>
      </trkpt>
      <trkpt lat="45.26390992105007171630859375" lon="-71.1499176733195781707763671875">
        <ele>645.4000244140625</ele>
        <time>2026-08-22T03:25:50.000Z</time>
        <extensions>
          <ns3:TrackPointExtension>
            <ns3:hr>135</ns3:hr>
            <ns3:cad>62</ns3:cad>
          </ns3:TrackPointExtension>
        </extensions>
      </trkpt>
      <trkpt lat="45.2639234997332096099853515625" lon="-71.1499277316033840179443359375">
        <ele>645.4000244140625</ele>
        <time>2026-08-22T03:25:51.000Z</time>
        <extensions>
          <ns3:TrackPointExtension>
            <ns3:hr>135</ns3:hr>
            <ns3:cad>0</ns3:cad>
          </ns3:TrackPointExtension>
        </extensions>
      </trkpt>
      <trkpt lat="45.26393263600766658782958984375" lon="-71.14993636496365070343017578125">
        <ele>645.5999755859375</ele>
        <time>2026-08-22T03:25:52.000Z</time>
        <extensions>
          <ns3:TrackPointExtension>
            <ns3:hr>135</ns3:hr>
            <ns3:cad>0</ns3:cad>
          </ns3:TrackPointExtension>
        </extensions>
      </trkpt>
      <trkpt lat="45.26394152082502841949462890625" lon="-71.1499458365142345428466796875">
        <ele>645.5999755859375</ele>
        <time>2026-08-22T03:25:53.000Z</time>
        <extensions>
          <ns3:TrackPointExtension>
            <ns3:hr>135</ns3:hr>
            <ns3:cad>0</ns3:cad>
          </ns3:TrackPointExtension>
        </extensions>
      </trkpt>
      <trkpt lat="45.2639493159949779510498046875" lon="-71.14996268413960933685302734375">
        <ele>645.79998779296875</ele>
        <time>2026-08-22T03:25:54.000Z</time>
        <extensions>
          <ns3:TrackPointExtension>
            <ns3:hr>135</ns3:hr>
            <ns3:cad>0</ns3:cad>
          </ns3:TrackPointExtension>
        </extensions>
      </trkpt>
      <trkpt lat="45.263964235782623291015625" lon="-71.14998347125947475433349609375">
        <ele>645.79998779296875</ele>
        <time>2026-08-22T03:25:55.000Z</time>
        <extensions>
          <ns3:TrackPointExtension>
            <ns3:hr>135</ns3:hr>
            <ns3:cad>69</ns3:cad>
          </ns3:TrackPointExtension>
        </extensions>
      </trkpt>
      <trkpt lat="45.2639784850180149078369140625" lon="-71.14999487064778804779052734375">
        <ele>646</ele>
        <time>2026-08-22T03:25:56.000Z</time>
        <extensions>
          <ns3:TrackPointExtension>
            <ns3:hr>135</ns3:hr>
            <ns3:cad>69</ns3:cad>
          </ns3:TrackPointExtension>
        </extensions>
      </trkpt>
      <trkpt lat="45.26399516500532627105712890625" lon="-71.15000165998935699462890625">
        <ele>646</ele>
        <time>2026-08-22T03:25:57.000Z</time>
        <extensions>
          <ns3:TrackPointExtension>
            <ns3:hr>135</ns3:hr>
            <ns3:cad>69</ns3:cad>
          </ns3:TrackPointExtension>
        </extensions>
      </trkpt>
      <trkpt lat="45.26400782167911529541015625" lon="-71.1500085331499576568603515625">
        <ele>646</ele>
        <time>2026-08-22T03:25:58.000Z</time>
        <extensions>
          <ns3:TrackPointExtension>
            <ns3:hr>134</ns3:hr>
            <ns3:cad>0</ns3:cad>
          </ns3:TrackPointExtension>
        </extensions>
      </trkpt>
      <trkpt lat="45.264019556343555450439453125" lon="-71.15001029334962368011474609375">
        <ele>646</ele>
        <time>2026-08-22T03:25:59.000Z</time>
        <extensions>
          <ns3:TrackPointExtension>
            <ns3:hr>135</ns3:hr>
            <ns3:cad>0</ns3:cad>
          </ns3:TrackPointExtension>
        </extensions>
      </trkpt>
      <trkpt lat="45.26403598487377166748046875" lon="-71.15001968108117580413818359375">
        <ele>645.79998779296875</ele>
        <time>2026-08-22T03:26:00.000Z</time>
        <extensions>
          <ns3:TrackPointExtension>
            <ns3:hr>135</ns3:hr>
            <ns3:cad>0</ns3:cad>
          </ns3:TrackPointExtension>
        </extensions>
      </trkpt>
      <trkpt lat="45.26405266486108303070068359375" lon="-71.150032840669155120849609375">
        <ele>645.79998779296875</ele>
        <time>2026-08-22T03:26:01.000Z</time>
        <extensions>
          <ns3:TrackPointExtension>
            <ns3:hr>134</ns3:hr>
            <ns3:cad>0</ns3:cad>
          </ns3:TrackPointExtension>
        </extensions>
      </trkpt>
      <trkpt lat="45.26407093740999698638916015625" lon="-71.15004189312458038330078125">
        <ele>645.79998779296875</ele>
        <time>2026-08-22T03:26:02.000Z</time>
        <extensions>
          <ns3:TrackPointExtension>
            <ns3:hr>135</ns3:hr>
            <ns3:cad>0</ns3:cad>
          </ns3:TrackPointExtension>
        </extensions>
      </trkpt>
      <trkpt lat="45.26407965458929538726806640625" lon="-71.15004482679069042205810546875">
        <ele>645.79998779296875</ele>
        <time>2026-08-22T03:26:03.000Z</time>
        <extensions>
          <ns3:TrackPointExtension>
            <ns3:hr>135</ns3:hr>
            <ns3:cad>71</ns3:cad>
          </ns3:TrackPointExtension>
        </extensions>
      </trkpt>
      <trkpt lat="45.26409558020532131195068359375" lon="-71.15004600025713443756103515625">
        <ele>645.79998779296875</ele>
        <time>2026-08-22T03:26:04.000Z</time>
        <extensions>
          <ns3:TrackPointExtension>
            <ns3:hr>135</ns3:hr>
            <ns3:cad>71</ns3:cad>
          </ns3:TrackPointExtension>
        </extensions>
      </trkpt>
      <trkpt lat="45.2641048841178417205810546875" lon="-71.15004700608551502227783203125">
        <ele>646</ele>
        <time>2026-08-22T03:26:05.000Z</time>
        <extensions>
          <ns3:TrackPointExtension>
            <ns3:hr>135</ns3:hr>
            <ns3:cad>71</ns3:cad>
          </ns3:TrackPointExtension>
        </extensions>
      </trkpt>
      <trkpt lat="45.26411251164972782135009765625" lon="-71.15005454979836940765380859375">
        <ele>646</ele>
        <time>2026-08-22T03:26:06.000Z</time>
        <extensions>
          <ns3:TrackPointExtension>
            <ns3:hr>135</ns3:hr>
            <ns3:cad>71</ns3:cad>
          </ns3:TrackPointExtension>
        </extensions>
      </trkpt>
      <trkpt lat="45.2641273476183414459228515625" lon="-71.1500702239573001861572265625">
        <ele>646</ele>
        <time>2026-08-22T03:26:07.000Z</time>
        <extensions>
          <ns3:TrackPointExtension>
            <ns3:hr>135</ns3:hr>
            <ns3:cad>0</ns3:cad>
          </ns3:TrackPointExtension>
        </extensions>
      </trkpt>
      <trkpt lat="45.2641404233872890472412109375" lon="-71.1500879935920238494873046875">
        <ele>646</ele>
        <time>2026-08-22T03:26:08.000Z</time>
        <extensions>
          <ns3:TrackPointExtension>
            <ns3:hr>134</ns3:hr>
            <ns3:cad>0</ns3:cad>
          </ns3:TrackPointExtension>
        </extensions>
      </trkpt>
      <trkpt lat="45.26415190659463405609130859375" lon="-71.15010903216898441314697265625">
        <ele>645.79998779296875</ele>
        <time>2026-08-22T03:26:09.000Z</time>
        <extensions>
          <ns3:TrackPointExtension>
            <ns3:hr>134</ns3:hr>
            <ns3:cad>0</ns3:cad>
          </ns3:TrackPointExtension>
        </extensions>
      </trkpt>
      <trkpt lat="45.26416699402034282684326171875" lon="-71.15013015456497669219970703125">
        <ele>646</ele>
        <time>2026-08-22T03:26:10.000Z</time>
        <extensions>
          <ns3:TrackPointExtension>
            <ns3:hr>133</ns3:hr>
            <ns3:cad>49</ns3:cad>
          </ns3:TrackPointExtension>
        </extensions>
      </trkpt>
      <trkpt lat="45.26417772285640239715576171875" lon="-71.1501470021903514862060546875">
        <ele>646</ele>
        <time>2026-08-22T03:26:11.000Z</time>
        <extensions>
          <ns3:TrackPointExtension>
            <ns3:hr>133</ns3:hr>
            <ns3:cad>49</ns3:cad>
          </ns3:TrackPointExtension>
        </extensions>
      </trkpt>
      <trkpt lat="45.26419012807309627532958984375" lon="-71.15016418509185314178466796875">
        <ele>646</ele>
        <time>2026-08-22T03:26:12.000Z</time>
        <extensions>
          <ns3:TrackPointExtension>
            <ns3:hr>132</ns3:hr>
            <ns3:cad>49</ns3:cad>
          </ns3:TrackPointExtension>
        </extensions>
      </trkpt>
      <trkpt lat="45.26420538313686847686767578125" lon="-71.15017508156597614288330078125">
        <ele>646.20001220703125</ele>
        <time>2026-08-22T03:26:13.000Z</time>
        <extensions>
          <ns3:TrackPointExtension>
            <ns3:hr>132</ns3:hr>
            <ns3:cad>49</ns3:cad>
          </ns3:TrackPointExtension>
        </extensions>
      </trkpt>
      <trkpt lat="45.264221727848052978515625" lon="-71.1501874029636383056640625">
        <ele>646</ele>
        <time>2026-08-22T03:26:14.000Z</time>
        <extensions>
          <ns3:TrackPointExtension>
            <ns3:hr>132</ns3:hr>
            <ns3:cad>49</ns3:cad>
          </ns3:TrackPointExtension>
        </extensions>
      </trkpt>
      <trkpt lat="45.26423572562634944915771484375" lon="-71.1501959525048732757568359375">
        <ele>646</ele>
        <time>2026-08-22T03:26:15.000Z</time>
        <extensions>
          <ns3:TrackPointExtension>
            <ns3:hr>132</ns3:hr>
            <ns3:cad>49</ns3:cad>
          </ns3:TrackPointExtension>
        </extensions>
      </trkpt>
      <trkpt lat="45.2642513997852802276611328125" lon="-71.1502050049602985382080078125">
        <ele>645.79998779296875</ele>
        <time>2026-08-22T03:26:16.000Z</time>
        <extensions>
          <ns3:TrackPointExtension>
            <ns3:hr>132</ns3:hr>
            <ns3:cad>49</ns3:cad>
          </ns3:TrackPointExtension>
        </extensions>
      </trkpt>
      <trkpt lat="45.264264978468418121337890625" lon="-71.15021732635796070098876953125">
        <ele>645.5999755859375</ele>
        <time>2026-08-22T03:26:17.000Z</time>
        <extensions>
          <ns3:TrackPointExtension>
            <ns3:hr>132</ns3:hr>
            <ns3:cad>69</ns3:cad>
          </ns3:TrackPointExtension>
        </extensions>
      </trkpt>
      <trkpt lat="45.2642805688083171844482421875" lon="-71.15022964775562286376953125">
        <ele>645.5999755859375</ele>
        <time>2026-08-22T03:26:18.000Z</time>
        <extensions>
          <ns3:TrackPointExtension>
            <ns3:hr>132</ns3:hr>
            <ns3:cad>69</ns3:cad>
          </ns3:TrackPointExtension>
        </extensions>
      </trkpt>
      <trkpt lat="45.26429791934788227081298828125" lon="-71.1502358503639698028564453125">
        <ele>645.4000244140625</ele>
        <time>2026-08-22T03:26:19.000Z</time>
        <extensions>
          <ns3:TrackPointExtension>
            <ns3:hr>132</ns3:hr>
            <ns3:cad>69</ns3:cad>
          </ns3:TrackPointExtension>
        </extensions>
      </trkpt>
      <trkpt lat="45.26431887410581111907958984375" lon="-71.15024263970553874969482421875">
        <ele>645.4000244140625</ele>
        <time>2026-08-22T03:26:20.000Z</time>
        <extensions>
          <ns3:TrackPointExtension>
            <ns3:hr>132</ns3:hr>
            <ns3:cad>69</ns3:cad>
          </ns3:TrackPointExtension>
        </extensions>
      </trkpt>
      <trkpt lat="45.264336057007312774658203125" lon="-71.15025051869451999664306640625">
        <ele>645.4000244140625</ele>
        <time>2026-08-22T03:26:21.000Z</time>
        <extensions>
          <ns3:TrackPointExtension>
            <ns3:hr>132</ns3:hr>
            <ns3:cad>69</ns3:cad>
          </ns3:TrackPointExtension>
        </extensions>
      </trkpt>
      <trkpt lat="45.264354161918163299560546875" lon="-71.15025437436997890472412109375">
        <ele>645.20001220703125</ele>
        <time>2026-08-22T03:26:22.000Z</time>
        <extensions>
          <ns3:TrackPointExtension>
            <ns3:hr>132</ns3:hr>
            <ns3:cad>69</ns3:cad>
          </ns3:TrackPointExtension>
        </extensions>
      </trkpt>
      <trkpt lat="45.26437017135322093963623046875" lon="-71.15025789476931095123291015625">
        <ele>645</ele>
        <time>2026-08-22T03:26:23.000Z</time>
        <extensions>
          <ns3:TrackPointExtension>
            <ns3:hr>132</ns3:hr>
            <ns3:cad>69</ns3:cad>
          </ns3:TrackPointExtension>
        </extensions>
      </trkpt>
      <trkpt lat="45.2643881924450397491455078125" lon="-71.15026560612022876739501953125">
        <ele>645</ele>
        <time>2026-08-22T03:26:24.000Z</time>
        <extensions>
          <ns3:TrackPointExtension>
            <ns3:hr>132</ns3:hr>
            <ns3:cad>69</ns3:cad>
          </ns3:TrackPointExtension>
        </extensions>
      </trkpt>
      <trkpt lat="45.26440185494720935821533203125" lon="-71.1502707190811634063720703125">
        <ele>644.79998779296875</ele>
        <time>2026-08-22T03:26:25.000Z</time>
        <extensions>
          <ns3:TrackPointExtension>
            <ns3:hr>131</ns3:hr>
            <ns3:cad>69</ns3:cad>
          </ns3:TrackPointExtension>
        </extensions>
      </trkpt>
      <trkpt lat="45.26441576890647411346435546875" lon="-71.15027801133692264556884765625">
        <ele>644.5999755859375</ele>
        <time>2026-08-22T03:26:26.000Z</time>
        <extensions>
          <ns3:TrackPointExtension>
            <ns3:hr>132</ns3:hr>
            <ns3:cad>69</ns3:cad>
          </ns3:TrackPointExtension>
        </extensions>
      </trkpt>
      <trkpt lat="45.2644294314086437225341796875" lon="-71.1502866446971893310546875">
        <ele>644.5999755859375</ele>
        <time>2026-08-22T03:26:27.000Z</time>
        <extensions>
          <ns3:TrackPointExtension>
            <ns3:hr>132</ns3:hr>
            <ns3:cad>69</ns3:cad>
          </ns3:TrackPointExtension>
        </extensions>
      </trkpt>
      <trkpt lat="45.2644475363194942474365234375" lon="-71.1503000557422637939453125">
        <ele>644.5999755859375</ele>
        <time>2026-08-22T03:26:28.000Z</time>
        <extensions>
          <ns3:TrackPointExtension>
            <ns3:hr>133</ns3:hr>
            <ns3:cad>69</ns3:cad>
          </ns3:TrackPointExtension>
        </extensions>
      </trkpt>
      <trkpt lat="45.26446807198226451873779296875" lon="-71.150309778749942779541015625">
        <ele>644.5999755859375</ele>
        <time>2026-08-22T03:26:29.000Z</time>
        <extensions>
          <ns3:TrackPointExtension>
            <ns3:hr>133</ns3:hr>
            <ns3:cad>69</ns3:cad>
          </ns3:TrackPointExtension>
        </extensions>
      </trkpt>
      <trkpt lat="45.26448391377925872802734375" lon="-71.15031279623508453369140625">
        <ele>644.4000244140625</ele>
        <time>2026-08-22T03:26:30.000Z</time>
        <extensions>
          <ns3:TrackPointExtension>
            <ns3:hr>133</ns3:hr>
            <ns3:cad>0</ns3:cad>
          </ns3:TrackPointExtension>
        </extensions>
      </trkpt>
      <trkpt lat="45.26450143195688724517822265625" lon="-71.15031673572957515716552734375">
        <ele>644.4000244140625</ele>
        <time>2026-08-22T03:26:31.000Z</time>
        <extensions>
          <ns3:TrackPointExtension>
            <ns3:hr>133</ns3:hr>
            <ns3:cad>0</ns3:cad>
          </ns3:TrackPointExtension>
        </extensions>
      </trkpt>
      <trkpt lat="45.2645135857164859771728515625" lon="-71.15032352507114410400390625">
        <ele>644.4000244140625</ele>
        <time>2026-08-22T03:26:32.000Z</time>
        <extensions>
          <ns3:TrackPointExtension>
            <ns3:hr>133</ns3:hr>
            <ns3:cad>0</ns3:cad>
          </ns3:TrackPointExtension>
        </extensions>
      </trkpt>
      <trkpt lat="45.2645326964557170867919921875" lon="-71.1503236927092075347900390625">
        <ele>644.20001220703125</ele>
        <time>2026-08-22T03:26:33.000Z</time>
        <extensions>
          <ns3:TrackPointExtension>
            <ns3:hr>133</ns3:hr>
            <ns3:cad>0</ns3:cad>
          </ns3:TrackPointExtension>
        </extensions>
      </trkpt>
      <trkpt lat="45.26454828679561614990234375" lon="-71.1503255367279052734375">
        <ele>644</ele>
        <time>2026-08-22T03:26:34.000Z</time>
        <extensions>
          <ns3:TrackPointExtension>
            <ns3:hr>133</ns3:hr>
            <ns3:cad>71</ns3:cad>
          </ns3:TrackPointExtension>
        </extensions>
      </trkpt>
      <trkpt lat="45.26456614024937152862548828125" lon="-71.15032511763274669647216796875">
        <ele>643.79998779296875</ele>
        <time>2026-08-22T03:26:35.000Z</time>
        <extensions>
          <ns3:TrackPointExtension>
            <ns3:hr>133</ns3:hr>
            <ns3:cad>71</ns3:cad>
          </ns3:TrackPointExtension>
        </extensions>
      </trkpt>
      <trkpt lat="45.2645826525986194610595703125" lon="-71.15032696165144443511962890625">
        <ele>643.79998779296875</ele>
        <time>2026-08-22T03:26:36.000Z</time>
        <extensions>
          <ns3:TrackPointExtension>
            <ns3:hr>133</ns3:hr>
            <ns3:cad>71</ns3:cad>
          </ns3:TrackPointExtension>
        </extensions>
      </trkpt>
      <trkpt lat="45.26460461318492889404296875" lon="-71.1503300629556179046630859375">
        <ele>643.5999755859375</ele>
        <time>2026-08-22T03:26:37.000Z</time>
        <extensions>
          <ns3:TrackPointExtension>
            <ns3:hr>133</ns3:hr>
            <ns3:cad>71</ns3:cad>
          </ns3:TrackPointExtension>
        </extensions>
      </trkpt>
      <trkpt lat="45.26462414301931858062744140625" lon="-71.15032696165144443511962890625">
        <ele>643.4000244140625</ele>
        <time>2026-08-22T03:26:38.000Z</time>
        <extensions>
          <ns3:TrackPointExtension>
            <ns3:hr>133</ns3:hr>
            <ns3:cad>71</ns3:cad>
          </ns3:TrackPointExtension>
        </extensions>
      </trkpt>
      <trkpt lat="45.26464442722499370574951171875" lon="-71.1503233574330806732177734375">
        <ele>643.20001220703125</ele>
        <time>2026-08-22T03:26:39.000Z</time>
        <extensions>
          <ns3:TrackPointExtension>
            <ns3:hr>133</ns3:hr>
            <ns3:cad>71</ns3:cad>
          </ns3:TrackPointExtension>
        </extensions>
      </trkpt>
      <trkpt lat="45.264660604298114776611328125" lon="-71.150320507586002349853515625">
        <ele>643</ele>
        <time>2026-08-22T03:26:40.000Z</time>
        <extensions>
          <ns3:TrackPointExtension>
            <ns3:hr>133</ns3:hr>
            <ns3:cad>71</ns3:cad>
          </ns3:TrackPointExtension>
        </extensions>
      </trkpt>
      <trkpt lat="45.26467594318091869354248046875" lon="-71.15031673572957515716552734375">
        <ele>642.79998779296875</ele>
        <time>2026-08-22T03:26:41.000Z</time>
        <extensions>
          <ns3:TrackPointExtension>
            <ns3:hr>133</ns3:hr>
            <ns3:cad>71</ns3:cad>
          </ns3:TrackPointExtension>
        </extensions>
      </trkpt>
      <trkpt lat="45.2646892704069614410400390625" lon="-71.1503139697015285491943359375">
        <ele>642.5999755859375</ele>
        <time>2026-08-22T03:26:42.000Z</time>
        <extensions>
          <ns3:TrackPointExtension>
            <ns3:hr>133</ns3:hr>
            <ns3:cad>71</ns3:cad>
          </ns3:TrackPointExtension>
        </extensions>
      </trkpt>
      <trkpt lat="45.2647031843662261962890625" lon="-71.15031338296830654144287109375">
        <ele>642.4000244140625</ele>
        <time>2026-08-22T03:26:43.000Z</time>
        <extensions>
          <ns3:TrackPointExtension>
            <ns3:hr>133</ns3:hr>
            <ns3:cad>51</ns3:cad>
          </ns3:TrackPointExtension>
        </extensions>
      </trkpt>
      <trkpt lat="45.26471751742064952850341796875" lon="-71.15031824447214603424072265625">
        <ele>642.20001220703125</ele>
        <time>2026-08-22T03:26:44.000Z</time>
        <extensions>
          <ns3:TrackPointExtension>
            <ns3:hr>133</ns3:hr>
            <ns3:cad>51</ns3:cad>
          </ns3:TrackPointExtension>
        </extensions>
      </trkpt>
      <trkpt lat="45.264734365046024322509765625" lon="-71.1503196693956851959228515625">
        <ele>642.20001220703125</ele>
        <time>2026-08-22T03:26:45.000Z</time>
        <extensions>
          <ns3:TrackPointExtension>
            <ns3:hr>133</ns3:hr>
            <ns3:cad>51</ns3:cad>
          </ns3:TrackPointExtension>
        </extensions>
      </trkpt>
      <trkpt lat="45.2647496201097965240478515625" lon="-71.15031681954860687255859375">
        <ele>642.20001220703125</ele>
        <time>2026-08-22T03:26:46.000Z</time>
        <extensions>
          <ns3:TrackPointExtension>
            <ns3:hr>133</ns3:hr>
            <ns3:cad>75</ns3:cad>
          </ns3:TrackPointExtension>
        </extensions>
      </trkpt>
      <trkpt lat="45.26476462371647357940673828125" lon="-71.15031816065311431884765625">
        <ele>642</ele>
        <time>2026-08-22T03:26:47.000Z</time>
        <extensions>
          <ns3:TrackPointExtension>
            <ns3:hr>132</ns3:hr>
            <ns3:cad>75</ns3:cad>
          </ns3:TrackPointExtension>
        </extensions>
      </trkpt>
      <trkpt lat="45.2647771127521991729736328125" lon="-71.15032712928950786590576171875">
        <ele>642</ele>
        <time>2026-08-22T03:26:48.000Z</time>
        <extensions>
          <ns3:TrackPointExtension>
            <ns3:hr>132</ns3:hr>
            <ns3:cad>0</ns3:cad>
          </ns3:TrackPointExtension>
        </extensions>
      </trkpt>
      <trkpt lat="45.2647901885211467742919921875" lon="-71.15034691058099269866943359375">
        <ele>642</ele>
        <time>2026-08-22T03:26:49.000Z</time>
        <extensions>
          <ns3:TrackPointExtension>
            <ns3:hr>131</ns3:hr>
            <ns3:cad>0</ns3:cad>
          </ns3:TrackPointExtension>
        </extensions>
      </trkpt>
      <trkpt lat="45.26479496620595455169677734375" lon="-71.1503644287586212158203125">
        <ele>642</ele>
        <time>2026-08-22T03:26:50.000Z</time>
        <extensions>
          <ns3:TrackPointExtension>
            <ns3:hr>131</ns3:hr>
            <ns3:cad>0</ns3:cad>
          </ns3:TrackPointExtension>
        </extensions>
      </trkpt>
      <trkpt lat="45.26480133645236492156982421875" lon="-71.15038446150720119476318359375">
        <ele>642</ele>
        <time>2026-08-22T03:26:51.000Z</time>
        <extensions>
          <ns3:TrackPointExtension>
            <ns3:hr>131</ns3:hr>
            <ns3:cad>0</ns3:cad>
          </ns3:TrackPointExtension>
        </extensions>
      </trkpt>
      <trkpt lat="45.26480234228074550628662109375" lon="-71.15039527416229248046875">
        <ele>642</ele>
        <time>2026-08-22T03:26:52.000Z</time>
        <extensions>
          <ns3:TrackPointExtension>
            <ns3:hr>130</ns3:hr>
            <ns3:cad>0</ns3:cad>
          </ns3:TrackPointExtension>
        </extensions>
      </trkpt>
      <trkpt lat="45.26480770669877529144287109375" lon="-71.1504256166517734527587890625">
        <ele>642.20001220703125</ele>
        <time>2026-08-22T03:26:53.000Z</time>
        <extensions>
          <ns3:TrackPointExtension>
            <ns3:hr>129</ns3:hr>
            <ns3:cad>0</ns3:cad>
          </ns3:TrackPointExtension>
        </extensions>
      </trkpt>
      <trkpt lat="45.26481022126972675323486328125" lon="-71.15044229663908481597900390625">
        <ele>642.4000244140625</ele>
        <time>2026-08-22T03:26:54.000Z</time>
        <extensions>
          <ns3:TrackPointExtension>
            <ns3:hr>129</ns3:hr>
            <ns3:cad>0</ns3:cad>
          </ns3:TrackPointExtension>
        </extensions>
      </trkpt>
      <trkpt lat="45.26481449604034423828125" lon="-71.15047213621437549591064453125">
        <ele>642.5999755859375</ele>
        <time>2026-08-22T03:26:55.000Z</time>
        <extensions>
          <ns3:TrackPointExtension>
            <ns3:hr>128</ns3:hr>
            <ns3:cad>0</ns3:cad>
          </ns3:TrackPointExtension>
        </extensions>
      </trkpt>
      <trkpt lat="45.26481759734451770782470703125" lon="-71.15049786865711212158203125">
        <ele>642.79998779296875</ele>
        <time>2026-08-22T03:26:56.000Z</time>
        <extensions>
          <ns3:TrackPointExtension>
            <ns3:hr>128</ns3:hr>
            <ns3:cad>0</ns3:cad>
          </ns3:TrackPointExtension>
        </extensions>
      </trkpt>
      <trkpt lat="45.2648210339248180389404296875" lon="-71.1505225114524364471435546875">
        <ele>643.20001220703125</ele>
        <time>2026-08-22T03:26:57.000Z</time>
        <extensions>
          <ns3:TrackPointExtension>
            <ns3:hr>128</ns3:hr>
            <ns3:cad>0</ns3:cad>
          </ns3:TrackPointExtension>
        </extensions>
      </trkpt>
      <trkpt lat="45.2648257277905941009521484375" lon="-71.15054321475327014923095703125">
        <ele>643.4000244140625</ele>
        <time>2026-08-22T03:26:58.000Z</time>
        <extensions>
          <ns3:TrackPointExtension>
            <ns3:hr>128</ns3:hr>
            <ns3:cad>0</ns3:cad>
          </ns3:TrackPointExtension>
        </extensions>
      </trkpt>
      <trkpt lat="45.26482589542865753173828125" lon="-71.15056651644408702850341796875">
        <ele>643.5999755859375</ele>
        <time>2026-08-22T03:26:59.000Z</time>
        <extensions>
          <ns3:TrackPointExtension>
            <ns3:hr>128</ns3:hr>
            <ns3:cad>0</ns3:cad>
          </ns3:TrackPointExtension>
        </extensions>
      </trkpt>
      <trkpt lat="45.26482799090445041656494140625" lon="-71.15058076567947864532470703125">
        <ele>643.79998779296875</ele>
        <time>2026-08-22T03:27:00.000Z</time>
        <extensions>
          <ns3:TrackPointExtension>
            <ns3:hr>128</ns3:hr>
            <ns3:cad>51</ns3:cad>
          </ns3:TrackPointExtension>
        </extensions>
      </trkpt>
      <trkpt lat="45.2648314274847507476806640625" lon="-71.15058830939233303070068359375">
        <ele>644</ele>
        <time>2026-08-22T03:27:01.000Z</time>
        <extensions>
          <ns3:TrackPointExtension>
            <ns3:hr>128</ns3:hr>
            <ns3:cad>51</ns3:cad>
          </ns3:TrackPointExtension>
        </extensions>
      </trkpt>
      <trkpt lat="45.26483888737857341766357421875" lon="-71.15059752948582172393798828125">
        <ele>644</ele>
        <time>2026-08-22T03:27:02.000Z</time>
        <extensions>
          <ns3:TrackPointExtension>
            <ns3:hr>129</ns3:hr>
            <ns3:cad>51</ns3:cad>
          </ns3:TrackPointExtension>
        </extensions>
      </trkpt>
      <trkpt lat="45.26485196314752101898193359375" lon="-71.15060272626578807830810546875">
        <ele>644.20001220703125</ele>
        <time>2026-08-22T03:27:03.000Z</time>
        <extensions>
          <ns3:TrackPointExtension>
            <ns3:hr>129</ns3:hr>
            <ns3:cad>51</ns3:cad>
          </ns3:TrackPointExtension>
        </extensions>
      </trkpt>
      <trkpt lat="45.264863111078739166259765625" lon="-71.150604151189327239990234375">
        <ele>644.20001220703125</ele>
        <time>2026-08-22T03:27:04.000Z</time>
        <extensions>
          <ns3:TrackPointExtension>
            <ns3:hr>131</ns3:hr>
            <ns3:cad>51</ns3:cad>
          </ns3:TrackPointExtension>
        </extensions>
      </trkpt>
      <trkpt lat="45.26487509720027446746826171875" lon="-71.15060247480869293212890625">
        <ele>644.20001220703125</ele>
        <time>2026-08-22T03:27:05.000Z</time>
        <extensions>
          <ns3:TrackPointExtension>
            <ns3:hr>131</ns3:hr>
            <ns3:cad>51</ns3:cad>
          </ns3:TrackPointExtension>
        </extensions>
      </trkpt>
      <trkpt lat="45.264887250959873199462890625" lon="-71.15059887059032917022705078125">
        <ele>644.20001220703125</ele>
        <time>2026-08-22T03:27:06.000Z</time>
        <extensions>
          <ns3:TrackPointExtension>
            <ns3:hr>131</ns3:hr>
            <ns3:cad>51</ns3:cad>
          </ns3:TrackPointExtension>
        </extensions>
      </trkpt>
      <trkpt lat="45.264897309243679046630859375" lon="-71.1505939252674579620361328125">
        <ele>644.20001220703125</ele>
        <time>2026-08-22T03:27:07.000Z</time>
        <extensions>
          <ns3:TrackPointExtension>
            <ns3:hr>130</ns3:hr>
            <ns3:cad>51</ns3:cad>
          </ns3:TrackPointExtension>
        </extensions>
      </trkpt>
      <trkpt lat="45.2649070322513580322265625" lon="-71.1505895666778087615966796875">
        <ele>644.20001220703125</ele>
        <time>2026-08-22T03:27:08.000Z</time>
        <extensions>
          <ns3:TrackPointExtension>
            <ns3:hr>130</ns3:hr>
            <ns3:cad>0</ns3:cad>
          </ns3:TrackPointExtension>
        </extensions>
      </trkpt>
      <trkpt lat="45.26491935364902019500732421875" lon="-71.15058160386979579925537109375">
        <ele>644</ele>
        <time>2026-08-22T03:27:09.000Z</time>
        <extensions>
          <ns3:TrackPointExtension>
            <ns3:hr>128</ns3:hr>
            <ns3:cad>0</ns3:cad>
          </ns3:TrackPointExtension>
        </extensions>
      </trkpt>
      <trkpt lat="45.26492807082831859588623046875" lon="-71.150573976337909698486328125">
        <ele>643.79998779296875</ele>
        <time>2026-08-22T03:27:10.000Z</time>
        <extensions>
          <ns3:TrackPointExtension>
            <ns3:hr>128</ns3:hr>
            <ns3:cad>0</ns3:cad>
          </ns3:TrackPointExtension>
        </extensions>
      </trkpt>
      <trkpt lat="45.26493720710277557373046875" lon="-71.15056903101503849029541015625">
        <ele>643.79998779296875</ele>
        <time>2026-08-22T03:27:11.000Z</time>
        <extensions>
          <ns3:TrackPointExtension>
            <ns3:hr>128</ns3:hr>
            <ns3:cad>0</ns3:cad>
          </ns3:TrackPointExtension>
        </extensions>
      </trkpt>
      <trkpt lat="45.26494299061596393585205078125" lon="-71.1505717970430850982666015625">
        <ele>643.5999755859375</ele>
        <time>2026-08-22T03:27:12.000Z</time>
        <extensions>
          <ns3:TrackPointExtension>
            <ns3:hr>130</ns3:hr>
            <ns3:cad>58</ns3:cad>
          </ns3:TrackPointExtension>
        </extensions>
      </trkpt>
      <trkpt lat="45.26495371945202350616455078125" lon="-71.15057808347046375274658203125">
        <ele>643.4000244140625</ele>
        <time>2026-08-22T03:27:13.000Z</time>
        <extensions>
          <ns3:TrackPointExtension>
            <ns3:hr>130</ns3:hr>
            <ns3:cad>58</ns3:cad>
          </ns3:TrackPointExtension>
        </extensions>
      </trkpt>
      <trkpt lat="45.2649665437638759613037109375" lon="-71.15058009512722492218017578125">
        <ele>643.20001220703125</ele>
        <time>2026-08-22T03:27:14.000Z</time>
        <extensions>
          <ns3:TrackPointExtension>
            <ns3:hr>130</ns3:hr>
            <ns3:cad>58</ns3:cad>
          </ns3:TrackPointExtension>
        </extensions>
      </trkpt>
      <trkpt lat="45.26497852988541126251220703125" lon="-71.15058395080268383026123046875">
        <ele>643.20001220703125</ele>
        <time>2026-08-22T03:27:15.000Z</time>
        <extensions>
          <ns3:TrackPointExtension>
            <ns3:hr>130</ns3:hr>
            <ns3:cad>58</ns3:cad>
          </ns3:TrackPointExtension>
        </extensions>
      </trkpt>
      <trkpt lat="45.2649874985218048095703125" lon="-71.15058713592588901519775390625">
        <ele>643</ele>
        <time>2026-08-22T03:27:16.000Z</time>
        <extensions>
          <ns3:TrackPointExtension>
            <ns3:hr>130</ns3:hr>
            <ns3:cad>58</ns3:cad>
          </ns3:TrackPointExtension>
        </extensions>
      </trkpt>
      <trkpt lat="45.26499864645302295684814453125" lon="-71.15058906376361846923828125">
        <ele>642.79998779296875</ele>
        <time>2026-08-22T03:27:17.000Z</time>
        <extensions>
          <ns3:TrackPointExtension>
            <ns3:hr>129</ns3:hr>
            <ns3:cad>58</ns3:cad>
          </ns3:TrackPointExtension>
        </extensions>
      </trkpt>
      <trkpt lat="45.2650077827274799346923828125" lon="-71.150596104562282562255859375">
        <ele>642.79998779296875</ele>
        <time>2026-08-22T03:27:18.000Z</time>
        <extensions>
          <ns3:TrackPointExtension>
            <ns3:hr>129</ns3:hr>
            <ns3:cad>58</ns3:cad>
          </ns3:TrackPointExtension>
        </extensions>
      </trkpt>
      <trkpt lat="45.26501767337322235107421875" lon="-71.15061429329216480255126953125">
        <ele>642.5999755859375</ele>
        <time>2026-08-22T03:27:19.000Z</time>
        <extensions>
          <ns3:TrackPointExtension>
            <ns3:hr>129</ns3:hr>
            <ns3:cad>58</ns3:cad>
          </ns3:TrackPointExtension>
        </extensions>
      </trkpt>
      <trkpt lat="45.26503108441829681396484375" lon="-71.15062016062438488006591796875">
        <ele>642.5999755859375</ele>
        <time>2026-08-22T03:27:20.000Z</time>
        <extensions>
          <ns3:TrackPointExtension>
            <ns3:hr>129</ns3:hr>
            <ns3:cad>58</ns3:cad>
          </ns3:TrackPointExtension>
        </extensions>
      </trkpt>
      <trkpt lat="45.2650446631014347076416015625" lon="-71.15062351338565349578857421875">
        <ele>642.5999755859375</ele>
        <time>2026-08-22T03:27:21.000Z</time>
        <extensions>
          <ns3:TrackPointExtension>
            <ns3:hr>129</ns3:hr>
            <ns3:cad>58</ns3:cad>
          </ns3:TrackPointExtension>
        </extensions>
      </trkpt>
      <trkpt lat="45.2650570683181285858154296875" lon="-71.1506277881562709808349609375">
        <ele>642.5999755859375</ele>
        <time>2026-08-22T03:27:22.000Z</time>
        <extensions>
          <ns3:TrackPointExtension>
            <ns3:hr>129</ns3:hr>
            <ns3:cad>70</ns3:cad>
          </ns3:TrackPointExtension>
        </extensions>
      </trkpt>
      <trkpt lat="45.265072323381900787353515625" lon="-71.1506338231265544891357421875">
        <ele>642.5999755859375</ele>
        <time>2026-08-22T03:27:23.000Z</time>
        <extensions>
          <ns3:TrackPointExtension>
            <ns3:hr>129</ns3:hr>
            <ns3:cad>70</ns3:cad>
          </ns3:TrackPointExtension>
        </extensions>
      </trkpt>
      <trkpt lat="45.265087746083736419677734375" lon="-71.15064044483006000518798828125">
        <ele>642.4000244140625</ele>
        <time>2026-08-22T03:27:24.000Z</time>
        <extensions>
          <ns3:TrackPointExtension>
            <ns3:hr>130</ns3:hr>
            <ns3:cad>0</ns3:cad>
          </ns3:TrackPointExtension>
        </extensions>
      </trkpt>
      <trkpt lat="45.26510484516620635986328125" lon="-71.15064807236194610595703125">
        <ele>642.4000244140625</ele>
        <time>2026-08-22T03:27:25.000Z</time>
        <extensions>
          <ns3:TrackPointExtension>
            <ns3:hr>130</ns3:hr>
            <ns3:cad>0</ns3:cad>
          </ns3:TrackPointExtension>
        </extensions>
      </trkpt>
      <trkpt lat="45.265119932591915130615234375" lon="-71.150650084018707275390625">
        <ele>642.4000244140625</ele>
        <time>2026-08-22T03:27:26.000Z</time>
        <extensions>
          <ns3:TrackPointExtension>
            <ns3:hr>130</ns3:hr>
            <ns3:cad>0</ns3:cad>
          </ns3:TrackPointExtension>
        </extensions>
      </trkpt>
      <trkpt lat="45.26513242162764072418212890625" lon="-71.15065452642738819122314453125">
        <ele>642.4000244140625</ele>
        <time>2026-08-22T03:27:27.000Z</time>
        <extensions>
          <ns3:TrackPointExtension>
            <ns3:hr>130</ns3:hr>
            <ns3:cad>0</ns3:cad>
          </ns3:TrackPointExtension>
        </extensions>
      </trkpt>
      <trkpt lat="45.26514952071011066436767578125" lon="-71.1506660096347332000732421875">
        <ele>642.4000244140625</ele>
        <time>2026-08-22T03:27:28.000Z</time>
        <extensions>
          <ns3:TrackPointExtension>
            <ns3:hr>130</ns3:hr>
            <ns3:cad>0</ns3:cad>
          </ns3:TrackPointExtension>
        </extensions>
      </trkpt>
      <trkpt lat="45.2651626802980899810791015625" lon="-71.15067799575626850128173828125">
        <ele>642.4000244140625</ele>
        <time>2026-08-22T03:27:29.000Z</time>
        <extensions>
          <ns3:TrackPointExtension>
            <ns3:hr>129</ns3:hr>
            <ns3:cad>0</ns3:cad>
          </ns3:TrackPointExtension>
        </extensions>
      </trkpt>
      <trkpt lat="45.2651683799922466278076171875" lon="-71.1506911553442478179931640625">
        <ele>642.4000244140625</ele>
        <time>2026-08-22T03:27:30.000Z</time>
        <extensions>
          <ns3:TrackPointExtension>
            <ns3:hr>129</ns3:hr>
            <ns3:cad>0</ns3:cad>
          </ns3:TrackPointExtension>
        </extensions>
      </trkpt>
      <trkpt lat="45.26517835445702075958251953125" lon="-71.15070917643606662750244140625">
        <ele>642.4000244140625</ele>
        <time>2026-08-22T03:27:31.000Z</time>
        <extensions>
          <ns3:TrackPointExtension>
            <ns3:hr>130</ns3:hr>
            <ns3:cad>0</ns3:cad>
          </ns3:TrackPointExtension>
        </extensions>
      </trkpt>
      <trkpt lat="45.26518941856920719146728515625" lon="-71.15071713924407958984375">
        <ele>642.20001220703125</ele>
        <time>2026-08-22T03:27:32.000Z</time>
        <extensions>
          <ns3:TrackPointExtension>
            <ns3:hr>130</ns3:hr>
            <ns3:cad>64</ns3:cad>
          </ns3:TrackPointExtension>
        </extensions>
      </trkpt>
      <trkpt lat="45.26519880630075931549072265625" lon="-71.1507292091846466064453125">
        <ele>642.20001220703125</ele>
        <time>2026-08-22T03:27:33.000Z</time>
        <extensions>
          <ns3:TrackPointExtension>
            <ns3:hr>130</ns3:hr>
            <ns3:cad>64</ns3:cad>
          </ns3:TrackPointExtension>
        </extensions>
      </trkpt>
      <trkpt lat="45.26520802639424800872802734375" lon="-71.15073859691619873046875">
        <ele>642.4000244140625</ele>
        <time>2026-08-22T03:27:34.000Z</time>
        <extensions>
          <ns3:TrackPointExtension>
            <ns3:hr>129</ns3:hr>
            <ns3:cad>62</ns3:cad>
          </ns3:TrackPointExtension>
        </extensions>
      </trkpt>
      <trkpt lat="45.265219844877719879150390625" lon="-71.15074069239199161529541015625">
        <ele>642.4000244140625</ele>
        <time>2026-08-22T03:27:35.000Z</time>
        <extensions>
          <ns3:TrackPointExtension>
            <ns3:hr>129</ns3:hr>
            <ns3:cad>62</ns3:cad>
          </ns3:TrackPointExtension>
        </extensions>
      </trkpt>
      <trkpt lat="45.2652314119040966033935546875" lon="-71.15074035711586475372314453125">
        <ele>642.20001220703125</ele>
        <time>2026-08-22T03:27:36.000Z</time>
        <extensions>
          <ns3:TrackPointExtension>
            <ns3:hr>129</ns3:hr>
            <ns3:cad>55</ns3:cad>
          </ns3:TrackPointExtension>
        </extensions>
      </trkpt>
      <trkpt lat="45.26524574495851993560791015625" lon="-71.15074119530618190765380859375">
        <ele>642.20001220703125</ele>
        <time>2026-08-22T03:27:37.000Z</time>
        <extensions>
          <ns3:TrackPointExtension>
            <ns3:hr>129</ns3:hr>
            <ns3:cad>55</ns3:cad>
          </ns3:TrackPointExtension>
        </extensions>
      </trkpt>
      <trkpt lat="45.2652578987181186676025390625" lon="-71.1507411114871501922607421875">
        <ele>642</ele>
        <time>2026-08-22T03:27:38.000Z</time>
        <extensions>
          <ns3:TrackPointExtension>
            <ns3:hr>129</ns3:hr>
            <ns3:cad>55</ns3:cad>
          </ns3:TrackPointExtension>
        </extensions>
      </trkpt>
      <trkpt lat="45.2652706392109394073486328125" lon="-71.150742284953594207763671875">
        <ele>641.79998779296875</ele>
        <time>2026-08-22T03:27:39.000Z</time>
        <extensions>
          <ns3:TrackPointExtension>
            <ns3:hr>129</ns3:hr>
            <ns3:cad>57</ns3:cad>
          </ns3:TrackPointExtension>
        </extensions>
      </trkpt>
      <trkpt lat="45.2652843855321407318115234375" lon="-71.150744296610355377197265625">
        <ele>641.79998779296875</ele>
        <time>2026-08-22T03:27:40.000Z</time>
        <extensions>
          <ns3:TrackPointExtension>
            <ns3:hr>129</ns3:hr>
            <ns3:cad>57</ns3:cad>
          </ns3:TrackPointExtension>
        </extensions>
      </trkpt>
      <trkpt lat="45.2653004787862300872802734375" lon="-71.15074505098164081573486328125">
        <ele>641.5999755859375</ele>
        <time>2026-08-22T03:27:41.000Z</time>
        <extensions>
          <ns3:TrackPointExtension>
            <ns3:hr>129</ns3:hr>
            <ns3:cad>57</ns3:cad>
          </ns3:TrackPointExtension>
        </extensions>
      </trkpt>
      <trkpt lat="45.2653128840029239654541015625" lon="-71.15074370987713336944580078125">
        <ele>641.5999755859375</ele>
        <time>2026-08-22T03:27:42.000Z</time>
        <extensions>
          <ns3:TrackPointExtension>
            <ns3:hr>129</ns3:hr>
            <ns3:cad>57</ns3:cad>
          </ns3:TrackPointExtension>
        </extensions>
      </trkpt>
      <trkpt lat="45.2653254568576812744140625" lon="-71.15074303932487964630126953125">
        <ele>641.5999755859375</ele>
        <time>2026-08-22T03:27:43.000Z</time>
        <extensions>
          <ns3:TrackPointExtension>
            <ns3:hr>130</ns3:hr>
            <ns3:cad>57</ns3:cad>
          </ns3:TrackPointExtension>
        </extensions>
      </trkpt>
      <trkpt lat="45.265338532626628875732421875" lon="-71.15073516033589839935302734375">
        <ele>641.5999755859375</ele>
        <time>2026-08-22T03:27:44.000Z</time>
        <extensions>
          <ns3:TrackPointExtension>
            <ns3:hr>130</ns3:hr>
            <ns3:cad>0</ns3:cad>
          </ns3:TrackPointExtension>
        </extensions>
      </trkpt>
      <trkpt lat="45.26534817181527614593505859375" lon="-71.150728873908519744873046875">
        <ele>641.4000244140625</ele>
        <time>2026-08-22T03:27:45.000Z</time>
        <extensions>
          <ns3:TrackPointExtension>
            <ns3:hr>130</ns3:hr>
            <ns3:cad>0</ns3:cad>
          </ns3:TrackPointExtension>
        </extensions>
      </trkpt>
      <trkpt lat="45.26536862365901470184326171875" lon="-71.15072476677596569061279296875">
        <ele>641.20001220703125</ele>
        <time>2026-08-22T03:27:46.000Z</time>
        <extensions>
          <ns3:TrackPointExtension>
            <ns3:hr>130</ns3:hr>
            <ns3:cad>0</ns3:cad>
          </ns3:TrackPointExtension>
        </extensions>
      </trkpt>
      <trkpt lat="45.26537784375250339508056640625" lon="-71.15071713924407958984375">
        <ele>641.20001220703125</ele>
        <time>2026-08-22T03:27:47.000Z</time>
        <extensions>
          <ns3:TrackPointExtension>
            <ns3:hr>130</ns3:hr>
            <ns3:cad>0</ns3:cad>
          </ns3:TrackPointExtension>
        </extensions>
      </trkpt>
      <trkpt lat="45.26539343409240245819091796875" lon="-71.15070641040802001953125">
        <ele>641</ele>
        <time>2026-08-22T03:27:48.000Z</time>
        <extensions>
          <ns3:TrackPointExtension>
            <ns3:hr>129</ns3:hr>
            <ns3:cad>0</ns3:cad>
          </ns3:TrackPointExtension>
        </extensions>
      </trkpt>
      <trkpt lat="45.26540298946201801300048828125" lon="-71.15070213563740253448486328125">
        <ele>641</ele>
        <time>2026-08-22T03:27:49.000Z</time>
        <extensions>
          <ns3:TrackPointExtension>
            <ns3:hr>129</ns3:hr>
            <ns3:cad>0</ns3:cad>
          </ns3:TrackPointExtension>
        </extensions>
      </trkpt>
      <trkpt lat="45.26541841216385364532470703125" lon="-71.15069928579032421112060546875">
        <ele>640.79998779296875</ele>
        <time>2026-08-22T03:27:50.000Z</time>
        <extensions>
          <ns3:TrackPointExtension>
            <ns3:hr>129</ns3:hr>
            <ns3:cad>0</ns3:cad>
          </ns3:TrackPointExtension>
        </extensions>
      </trkpt>
      <trkpt lat="45.2654285542666912078857421875" lon="-71.15070012398064136505126953125">
        <ele>640.79998779296875</ele>
        <time>2026-08-22T03:27:51.000Z</time>
        <extensions>
          <ns3:TrackPointExtension>
            <ns3:hr>129</ns3:hr>
            <ns3:cad>0</ns3:cad>
          </ns3:TrackPointExtension>
        </extensions>
      </trkpt>
      <trkpt lat="45.2654381096363067626953125" lon="-71.15070280618965625762939453125">
        <ele>640.5999755859375</ele>
        <time>2026-08-22T03:27:52.000Z</time>
        <extensions>
          <ns3:TrackPointExtension>
            <ns3:hr>128</ns3:hr>
            <ns3:cad>0</ns3:cad>
          </ns3:TrackPointExtension>
        </extensions>
      </trkpt>
      <trkpt lat="45.26544414460659027099609375" lon="-71.1507050693035125732421875">
        <ele>640.5999755859375</ele>
        <time>2026-08-22T03:27:53.000Z</time>
        <extensions>
          <ns3:TrackPointExtension>
            <ns3:hr>128</ns3:hr>
            <ns3:cad>0</ns3:cad>
          </ns3:TrackPointExtension>
        </extensions>
      </trkpt>
      <trkpt lat="45.2654540352523326873779296875" lon="-71.1507129482924938201904296875">
        <ele>640.4000244140625</ele>
        <time>2026-08-22T03:27:54.000Z</time>
        <extensions>
          <ns3:TrackPointExtension>
            <ns3:hr>128</ns3:hr>
            <ns3:cad>0</ns3:cad>
          </ns3:TrackPointExtension>
        </extensions>
      </trkpt>
      <trkpt lat="45.26546484790742397308349609375" lon="-71.1507184803485870361328125">
        <ele>640.4000244140625</ele>
        <time>2026-08-22T03:27:55.000Z</time>
        <extensions>
          <ns3:TrackPointExtension>
            <ns3:hr>128</ns3:hr>
            <ns3:cad>0</ns3:cad>
          </ns3:TrackPointExtension>
        </extensions>
      </trkpt>
      <trkpt lat="45.26548077352344989776611328125" lon="-71.15072258748114109039306640625">
        <ele>640.4000244140625</ele>
        <time>2026-08-22T03:27:56.000Z</time>
        <extensions>
          <ns3:TrackPointExtension>
            <ns3:hr>128</ns3:hr>
            <ns3:cad>0</ns3:cad>
          </ns3:TrackPointExtension>
        </extensions>
      </trkpt>
      <trkpt lat="45.265490077435970306396484375" lon="-71.15072057582437992095947265625">
        <ele>640.20001220703125</ele>
        <time>2026-08-22T03:27:57.000Z</time>
        <extensions>
          <ns3:TrackPointExtension>
            <ns3:hr>128</ns3:hr>
            <ns3:cad>0</ns3:cad>
          </ns3:TrackPointExtension>
        </extensions>
      </trkpt>
      <trkpt lat="45.26549602858722209930419921875" lon="-71.1507236771285533905029296875">
        <ele>640.20001220703125</ele>
        <time>2026-08-22T03:27:58.000Z</time>
        <extensions>
          <ns3:TrackPointExtension>
            <ns3:hr>128</ns3:hr>
            <ns3:cad>49</ns3:cad>
          </ns3:TrackPointExtension>
        </extensions>
      </trkpt>
      <trkpt lat="45.26550893671810626983642578125" lon="-71.150730550289154052734375">
        <ele>640.20001220703125</ele>
        <time>2026-08-22T03:27:59.000Z</time>
        <extensions>
          <ns3:TrackPointExtension>
            <ns3:hr>128</ns3:hr>
            <ns3:cad>49</ns3:cad>
          </ns3:TrackPointExtension>
        </extensions>
      </trkpt>
      <trkpt lat="45.26551790535449981689453125" lon="-71.150738932192325592041015625">
        <ele>640.20001220703125</ele>
        <time>2026-08-22T03:28:00.000Z</time>
        <extensions>
          <ns3:TrackPointExtension>
            <ns3:hr>128</ns3:hr>
            <ns3:cad>49</ns3:cad>
          </ns3:TrackPointExtension>
        </extensions>
      </trkpt>
      <trkpt lat="45.26552972383797168731689453125" lon="-71.1507427878677845001220703125">
        <ele>640</ele>
        <time>2026-08-22T03:28:01.000Z</time>
        <extensions>
          <ns3:TrackPointExtension>
            <ns3:hr>128</ns3:hr>
            <ns3:cad>0</ns3:cad>
          </ns3:TrackPointExtension>
        </extensions>
      </trkpt>
      <trkpt lat="45.26553802192211151123046875" lon="-71.1507464759051799774169921875">
        <ele>640</ele>
        <time>2026-08-22T03:28:02.000Z</time>
        <extensions>
          <ns3:TrackPointExtension>
            <ns3:hr>127</ns3:hr>
            <ns3:cad>0</ns3:cad>
          </ns3:TrackPointExtension>
        </extensions>
      </trkpt>
      <trkpt lat="45.26555419899523258209228515625" lon="-71.1507528461515903472900390625">
        <ele>640</ele>
        <time>2026-08-22T03:28:03.000Z</time>
        <extensions>
          <ns3:TrackPointExtension>
            <ns3:hr>127</ns3:hr>
            <ns3:cad>0</ns3:cad>
          </ns3:TrackPointExtension>
        </extensions>
      </trkpt>
      <trkpt lat="45.26556978933513164520263671875" lon="-71.150762736797332763671875">
        <ele>640</ele>
        <time>2026-08-22T03:28:04.000Z</time>
        <extensions>
          <ns3:TrackPointExtension>
            <ns3:hr>127</ns3:hr>
            <ns3:cad>0</ns3:cad>
          </ns3:TrackPointExtension>
        </extensions>
      </trkpt>
      <trkpt lat="45.265586636960506439208984375" lon="-71.1507769860327243804931640625">
        <ele>640</ele>
        <time>2026-08-22T03:28:05.000Z</time>
        <extensions>
          <ns3:TrackPointExtension>
            <ns3:hr>127</ns3:hr>
            <ns3:cad>0</ns3:cad>
          </ns3:TrackPointExtension>
        </extensions>
      </trkpt>
      <trkpt lat="45.26560449041426181793212890625" lon="-71.1507908999919891357421875">
        <ele>640</ele>
        <time>2026-08-22T03:28:06.000Z</time>
        <extensions>
          <ns3:TrackPointExtension>
            <ns3:hr>127</ns3:hr>
            <ns3:cad>0</ns3:cad>
          </ns3:TrackPointExtension>
        </extensions>
      </trkpt>
      <trkpt lat="45.26562125422060489654541015625" lon="-71.1508031375706195831298828125">
        <ele>640</ele>
        <time>2026-08-22T03:28:07.000Z</time>
        <extensions>
          <ns3:TrackPointExtension>
            <ns3:hr>127</ns3:hr>
            <ns3:cad>0</ns3:cad>
          </ns3:TrackPointExtension>
        </extensions>
      </trkpt>
      <trkpt lat="45.26563365943729877471923828125" lon="-71.150811351835727691650390625">
        <ele>639.79998779296875</ele>
        <time>2026-08-22T03:28:08.000Z</time>
        <extensions>
          <ns3:TrackPointExtension>
            <ns3:hr>127</ns3:hr>
            <ns3:cad>70</ns3:cad>
          </ns3:TrackPointExtension>
        </extensions>
      </trkpt>
      <trkpt lat="45.2656518481671810150146484375" lon="-71.15081881172955036163330078125">
        <ele>639.79998779296875</ele>
        <time>2026-08-22T03:28:09.000Z</time>
        <extensions>
          <ns3:TrackPointExtension>
            <ns3:hr>128</ns3:hr>
            <ns3:cad>70</ns3:cad>
          </ns3:TrackPointExtension>
        </extensions>
      </trkpt>
      <trkpt lat="45.2656686119735240936279296875" lon="-71.150821745395660400390625">
        <ele>639.79998779296875</ele>
        <time>2026-08-22T03:28:10.000Z</time>
        <extensions>
          <ns3:TrackPointExtension>
            <ns3:hr>128</ns3:hr>
            <ns3:cad>70</ns3:cad>
          </ns3:TrackPointExtension>
        </extensions>
      </trkpt>
      <trkpt lat="45.26568126864731311798095703125" lon="-71.150820739567279815673828125">
        <ele>639.5999755859375</ele>
        <time>2026-08-22T03:28:11.000Z</time>
        <extensions>
          <ns3:TrackPointExtension>
            <ns3:hr>128</ns3:hr>
            <ns3:cad>70</ns3:cad>
          </ns3:TrackPointExtension>
        </extensions>
      </trkpt>
      <trkpt lat="45.26569467969238758087158203125" lon="-71.15081730298697948455810546875">
        <ele>639.5999755859375</ele>
        <time>2026-08-22T03:28:12.000Z</time>
        <extensions>
          <ns3:TrackPointExtension>
            <ns3:hr>127</ns3:hr>
            <ns3:cad>70</ns3:cad>
          </ns3:TrackPointExtension>
        </extensions>
      </trkpt>
      <trkpt lat="45.26570708490908145904541015625" lon="-71.1508145369589328765869140625">
        <ele>639.4000244140625</ele>
        <time>2026-08-22T03:28:13.000Z</time>
        <extensions>
          <ns3:TrackPointExtension>
            <ns3:hr>127</ns3:hr>
            <ns3:cad>70</ns3:cad>
          </ns3:TrackPointExtension>
        </extensions>
      </trkpt>
      <trkpt lat="45.26571680791676044464111328125" lon="-71.1508155427873134613037109375">
        <ele>639.20001220703125</ele>
        <time>2026-08-22T03:28:14.000Z</time>
        <extensions>
          <ns3:TrackPointExtension>
            <ns3:hr>126</ns3:hr>
            <ns3:cad>70</ns3:cad>
          </ns3:TrackPointExtension>
        </extensions>
      </trkpt>
      <trkpt lat="45.265723764896392822265625" lon="-71.150824092328548431396484375">
        <ele>639.20001220703125</ele>
        <time>2026-08-22T03:28:15.000Z</time>
        <extensions>
          <ns3:TrackPointExtension>
            <ns3:hr>126</ns3:hr>
            <ns3:cad>0</ns3:cad>
          </ns3:TrackPointExtension>
        </extensions>
      </trkpt>
      <trkpt lat="45.2657286264002323150634765625" lon="-71.15082786418497562408447265625">
        <ele>639</ele>
        <time>2026-08-22T03:28:16.000Z</time>
        <extensions>
          <ns3:TrackPointExtension>
            <ns3:hr>126</ns3:hr>
            <ns3:cad>0</ns3:cad>
          </ns3:TrackPointExtension>
        </extensions>
      </trkpt>
      <trkpt lat="45.26573558337986469268798828125" lon="-71.15083582699298858642578125">
        <ele>639</ele>
        <time>2026-08-22T03:28:17.000Z</time>
        <extensions>
          <ns3:TrackPointExtension>
            <ns3:hr>126</ns3:hr>
            <ns3:cad>0</ns3:cad>
          </ns3:TrackPointExtension>
        </extensions>
      </trkpt>
      <trkpt lat="45.265746228396892547607421875" lon="-71.1508467234671115875244140625">
        <ele>639</ele>
        <time>2026-08-22T03:28:18.000Z</time>
        <extensions>
          <ns3:TrackPointExtension>
            <ns3:hr>126</ns3:hr>
            <ns3:cad>0</ns3:cad>
          </ns3:TrackPointExtension>
        </extensions>
      </trkpt>
      <trkpt lat="45.26574798859655857086181640625" lon="-71.15085518918931484222412109375">
        <ele>639.20001220703125</ele>
        <time>2026-08-22T03:28:19.000Z</time>
        <extensions>
          <ns3:TrackPointExtension>
            <ns3:hr>126</ns3:hr>
            <ns3:cad>0</ns3:cad>
          </ns3:TrackPointExtension>
        </extensions>
      </trkpt>
      <trkpt lat="45.26575569994747638702392578125" lon="-71.150864996016025543212890625">
        <ele>639.20001220703125</ele>
        <time>2026-08-22T03:28:20.000Z</time>
        <extensions>
          <ns3:TrackPointExtension>
            <ns3:hr>126</ns3:hr>
            <ns3:cad>0</ns3:cad>
          </ns3:TrackPointExtension>
        </extensions>
      </trkpt>
      <trkpt lat="45.2657695300877094268798828125" lon="-71.15087899379432201385498046875">
        <ele>639.20001220703125</ele>
        <time>2026-08-22T03:28:21.000Z</time>
        <extensions>
          <ns3:TrackPointExtension>
            <ns3:hr>126</ns3:hr>
            <ns3:cad>0</ns3:cad>
          </ns3:TrackPointExtension>
        </extensions>
      </trkpt>
      <trkpt lat="45.26577967219054698944091796875" lon="-71.1508832685649394989013671875">
        <ele>639.20001220703125</ele>
        <time>2026-08-22T03:28:22.000Z</time>
        <extensions>
          <ns3:TrackPointExtension>
            <ns3:hr>126</ns3:hr>
            <ns3:cad>0</ns3:cad>
          </ns3:TrackPointExtension>
        </extensions>
      </trkpt>
      <trkpt lat="45.26578553952276706695556640625" lon="-71.15088653750717639923095703125">
        <ele>639.20001220703125</ele>
        <time>2026-08-22T03:28:23.000Z</time>
        <extensions>
          <ns3:TrackPointExtension>
            <ns3:hr>126</ns3:hr>
            <ns3:cad>0</ns3:cad>
          </ns3:TrackPointExtension>
        </extensions>
      </trkpt>
      <trkpt lat="45.2657943405210971832275390625" lon="-71.1508913151919841766357421875">
        <ele>639.20001220703125</ele>
        <time>2026-08-22T03:28:24.000Z</time>
        <extensions>
          <ns3:TrackPointExtension>
            <ns3:hr>124</ns3:hr>
            <ns3:cad>0</ns3:cad>
          </ns3:TrackPointExtension>
        </extensions>
      </trkpt>
      <trkpt lat="45.26580967940390110015869140625" lon="-71.1509048938751220703125">
        <ele>639.20001220703125</ele>
        <time>2026-08-22T03:28:25.000Z</time>
        <extensions>
          <ns3:TrackPointExtension>
            <ns3:hr>123</ns3:hr>
            <ns3:cad>0</ns3:cad>
          </ns3:TrackPointExtension>
        </extensions>
      </trkpt>
      <trkpt lat="45.26582627557218074798583984375" lon="-71.150911264121532440185546875">
        <ele>639</ele>
        <time>2026-08-22T03:28:26.000Z</time>
        <extensions>
          <ns3:TrackPointExtension>
            <ns3:hr>123</ns3:hr>
            <ns3:cad>0</ns3:cad>
          </ns3:TrackPointExtension>
        </extensions>
      </trkpt>
      <trkpt lat="45.26583583094179630279541015625" lon="-71.1509169638156890869140625">
        <ele>639</ele>
        <time>2026-08-22T03:28:27.000Z</time>
        <extensions>
          <ns3:TrackPointExtension>
            <ns3:hr>123</ns3:hr>
            <ns3:cad>47</ns3:cad>
          </ns3:TrackPointExtension>
        </extensions>
      </trkpt>
      <trkpt lat="45.26584639213979244232177734375" lon="-71.1509268544614315032958984375">
        <ele>638.79998779296875</ele>
        <time>2026-08-22T03:28:28.000Z</time>
        <extensions>
          <ns3:TrackPointExtension>
            <ns3:hr>122</ns3:hr>
            <ns3:cad>47</ns3:cad>
          </ns3:TrackPointExtension>
        </extensions>
      </trkpt>
      <trkpt lat="45.26586298830807209014892578125" lon="-71.1509411036968231201171875">
        <ele>638.79998779296875</ele>
        <time>2026-08-22T03:28:29.000Z</time>
        <extensions>
          <ns3:TrackPointExtension>
            <ns3:hr>123</ns3:hr>
            <ns3:cad>47</ns3:cad>
          </ns3:TrackPointExtension>
        </extensions>
      </trkpt>
      <trkpt lat="45.26587304659187793731689453125" lon="-71.15095652639865875244140625">
        <ele>638.79998779296875</ele>
        <time>2026-08-22T03:28:30.000Z</time>
        <extensions>
          <ns3:TrackPointExtension>
            <ns3:hr>123</ns3:hr>
            <ns3:cad>0</ns3:cad>
          </ns3:TrackPointExtension>
        </extensions>
      </trkpt>
      <trkpt lat="45.26588662527501583099365234375" lon="-71.15096968598663806915283203125">
        <ele>638.79998779296875</ele>
        <time>2026-08-22T03:28:31.000Z</time>
        <extensions>
          <ns3:TrackPointExtension>
            <ns3:hr>123</ns3:hr>
            <ns3:cad>0</ns3:cad>
          </ns3:TrackPointExtension>
        </extensions>
      </trkpt>
      <trkpt lat="45.26589819230139255523681640625" lon="-71.15097798407077789306640625">
        <ele>638.79998779296875</ele>
        <time>2026-08-22T03:28:32.000Z</time>
        <extensions>
          <ns3:TrackPointExtension>
            <ns3:hr>123</ns3:hr>
            <ns3:cad>0</ns3:cad>
          </ns3:TrackPointExtension>
        </extensions>
      </trkpt>
      <trkpt lat="45.26591110043227672576904296875" lon="-71.1509908922016620635986328125">
        <ele>638.79998779296875</ele>
        <time>2026-08-22T03:28:33.000Z</time>
        <extensions>
          <ns3:TrackPointExtension>
            <ns3:hr>123</ns3:hr>
            <ns3:cad>0</ns3:cad>
          </ns3:TrackPointExtension>
        </extensions>
      </trkpt>
      <trkpt lat="45.265925265848636627197265625" lon="-71.15100287832319736480712890625">
        <ele>638.79998779296875</ele>
        <time>2026-08-22T03:28:34.000Z</time>
        <extensions>
          <ns3:TrackPointExtension>
            <ns3:hr>123</ns3:hr>
            <ns3:cad>0</ns3:cad>
          </ns3:TrackPointExtension>
        </extensions>
      </trkpt>
      <trkpt lat="45.2659398503601551055908203125" lon="-71.15101763047277927398681640625">
        <ele>638.79998779296875</ele>
        <time>2026-08-22T03:28:35.000Z</time>
        <extensions>
          <ns3:TrackPointExtension>
            <ns3:hr>123</ns3:hr>
            <ns3:cad>0</ns3:cad>
          </ns3:TrackPointExtension>
        </extensions>
      </trkpt>
      <trkpt lat="45.26596105657517910003662109375" lon="-71.1510281078517436981201171875">
        <ele>638.5999755859375</ele>
        <time>2026-08-22T03:28:36.000Z</time>
        <extensions>
          <ns3:TrackPointExtension>
            <ns3:hr>124</ns3:hr>
            <ns3:cad>0</ns3:cad>
          </ns3:TrackPointExtension>
        </extensions>
      </trkpt>
      <trkpt lat="45.26597631163895130157470703125" lon="-71.15103296935558319091796875">
        <ele>638.5999755859375</ele>
        <time>2026-08-22T03:28:37.000Z</time>
        <extensions>
          <ns3:TrackPointExtension>
            <ns3:hr>124</ns3:hr>
            <ns3:cad>0</ns3:cad>
          </ns3:TrackPointExtension>
        </extensions>
      </trkpt>
      <trkpt lat="45.26598938740789890289306640625" lon="-71.15103975869715213775634765625">
        <ele>638.4000244140625</ele>
        <time>2026-08-22T03:28:38.000Z</time>
        <extensions>
          <ns3:TrackPointExtension>
            <ns3:hr>124</ns3:hr>
            <ns3:cad>0</ns3:cad>
          </ns3:TrackPointExtension>
        </extensions>
      </trkpt>
      <trkpt lat="45.26601143181324005126953125" lon="-71.15105099044740200042724609375">
        <ele>638.4000244140625</ele>
        <time>2026-08-22T03:28:39.000Z</time>
        <extensions>
          <ns3:TrackPointExtension>
            <ns3:hr>124</ns3:hr>
            <ns3:cad>0</ns3:cad>
          </ns3:TrackPointExtension>
        </extensions>
      </trkpt>
      <trkpt lat="45.266029872000217437744140625" lon="-71.1510519124567508697509765625">
        <ele>638.20001220703125</ele>
        <time>2026-08-22T03:28:40.000Z</time>
        <extensions>
          <ns3:TrackPointExtension>
            <ns3:hr>125</ns3:hr>
            <ns3:cad>0</ns3:cad>
          </ns3:TrackPointExtension>
        </extensions>
      </trkpt>
      <trkpt lat="45.26604227721691131591796875" lon="-71.15105845034122467041015625">
        <ele>638</ele>
        <time>2026-08-22T03:28:41.000Z</time>
        <extensions>
          <ns3:TrackPointExtension>
            <ns3:hr>125</ns3:hr>
            <ns3:cad>0</ns3:cad>
          </ns3:TrackPointExtension>
        </extensions>
      </trkpt>
      <trkpt lat="45.266063399612903594970703125" lon="-71.151065491139888763427734375">
        <ele>637.79998779296875</ele>
        <time>2026-08-22T03:28:42.000Z</time>
        <extensions>
          <ns3:TrackPointExtension>
            <ns3:hr>125</ns3:hr>
            <ns3:cad>71</ns3:cad>
          </ns3:TrackPointExtension>
        </extensions>
      </trkpt>
      <trkpt lat="45.2660793252289295196533203125" lon="-71.15107345394790172576904296875">
        <ele>637.79998779296875</ele>
        <time>2026-08-22T03:28:43.000Z</time>
        <extensions>
          <ns3:TrackPointExtension>
            <ns3:hr>126</ns3:hr>
            <ns3:cad>71</ns3:cad>
          </ns3:TrackPointExtension>
        </extensions>
      </trkpt>
      <trkpt lat="45.2660913951694965362548828125" lon="-71.15108351223170757293701171875">
        <ele>637.5999755859375</ele>
        <time>2026-08-22T03:28:44.000Z</time>
        <extensions>
          <ns3:TrackPointExtension>
            <ns3:hr>126</ns3:hr>
            <ns3:cad>71</ns3:cad>
          </ns3:TrackPointExtension>
        </extensions>
      </trkpt>
      <trkpt lat="45.26610589586198329925537109375" lon="-71.151093654334545135498046875">
        <ele>637.4000244140625</ele>
        <time>2026-08-22T03:28:45.000Z</time>
        <extensions>
          <ns3:TrackPointExtension>
            <ns3:hr>127</ns3:hr>
            <ns3:cad>71</ns3:cad>
          </ns3:TrackPointExtension>
        </extensions>
      </trkpt>
      <trkpt lat="45.26612115092575550079345703125" lon="-71.15110941231250762939453125">
        <ele>637.4000244140625</ele>
        <time>2026-08-22T03:28:46.000Z</time>
        <extensions>
          <ns3:TrackPointExtension>
            <ns3:hr>128</ns3:hr>
            <ns3:cad>71</ns3:cad>
          </ns3:TrackPointExtension>
        </extensions>
      </trkpt>
      <trkpt lat="45.26613791473209857940673828125" lon="-71.15112542174756526947021484375">
        <ele>637.4000244140625</ele>
        <time>2026-08-22T03:28:47.000Z</time>
        <extensions>
          <ns3:TrackPointExtension>
            <ns3:hr>128</ns3:hr>
            <ns3:cad>71</ns3:cad>
          </ns3:TrackPointExtension>
        </extensions>
      </trkpt>
      <trkpt lat="45.26616121642291545867919921875" lon="-71.15113598294556140899658203125">
        <ele>637.20001220703125</ele>
        <time>2026-08-22T03:28:48.000Z</time>
        <extensions>
          <ns3:TrackPointExtension>
            <ns3:hr>129</ns3:hr>
            <ns3:cad>71</ns3:cad>
          </ns3:TrackPointExtension>
        </extensions>
      </trkpt>
      <trkpt lat="45.26617563329637050628662109375" lon="-71.15114537067711353302001953125">
        <ele>637.20001220703125</ele>
        <time>2026-08-22T03:28:49.000Z</time>
        <extensions>
          <ns3:TrackPointExtension>
            <ns3:hr>129</ns3:hr>
            <ns3:cad>0</ns3:cad>
          </ns3:TrackPointExtension>
        </extensions>
      </trkpt>
      <trkpt lat="45.26618569158017635345458984375" lon="-71.1511565186083316802978515625">
        <ele>637</ele>
        <time>2026-08-22T03:28:50.000Z</time>
        <extensions>
          <ns3:TrackPointExtension>
            <ns3:hr>129</ns3:hr>
            <ns3:cad>0</ns3:cad>
          </ns3:TrackPointExtension>
        </extensions>
      </trkpt>
      <trkpt lat="45.26620228774845600128173828125" lon="-71.1511669121682643890380859375">
        <ele>637</ele>
        <time>2026-08-22T03:28:51.000Z</time>
        <extensions>
          <ns3:TrackPointExtension>
            <ns3:hr>128</ns3:hr>
            <ns3:cad>0</ns3:cad>
          </ns3:TrackPointExtension>
        </extensions>
      </trkpt>
      <trkpt lat="45.26621905155479907989501953125" lon="-71.1511736176908016204833984375">
        <ele>636.79998779296875</ele>
        <time>2026-08-22T03:28:52.000Z</time>
        <extensions>
          <ns3:TrackPointExtension>
            <ns3:hr>129</ns3:hr>
            <ns3:cad>0</ns3:cad>
          </ns3:TrackPointExtension>
        </extensions>
      </trkpt>
      <trkpt lat="45.266231708228588104248046875" lon="-71.151179485023021697998046875">
        <ele>636.79998779296875</ele>
        <time>2026-08-22T03:28:53.000Z</time>
        <extensions>
          <ns3:TrackPointExtension>
            <ns3:hr>129</ns3:hr>
            <ns3:cad>0</ns3:cad>
          </ns3:TrackPointExtension>
        </extensions>
      </trkpt>
      <trkpt lat="45.26624201796948909759521484375" lon="-71.1511853523552417755126953125">
        <ele>636.5999755859375</ele>
        <time>2026-08-22T03:28:54.000Z</time>
        <extensions>
          <ns3:TrackPointExtension>
            <ns3:hr>129</ns3:hr>
            <ns3:cad>0</ns3:cad>
          </ns3:TrackPointExtension>
        </extensions>
      </trkpt>
      <trkpt lat="45.2662575244903564453125" lon="-71.1511970870196819305419921875">
        <ele>636.5999755859375</ele>
        <time>2026-08-22T03:28:55.000Z</time>
        <extensions>
          <ns3:TrackPointExtension>
            <ns3:hr>129</ns3:hr>
            <ns3:cad>0</ns3:cad>
          </ns3:TrackPointExtension>
        </extensions>
      </trkpt>
      <trkpt lat="45.266269259154796600341796875" lon="-71.15120940841734409332275390625">
        <ele>636.4000244140625</ele>
        <time>2026-08-22T03:28:56.000Z</time>
        <extensions>
          <ns3:TrackPointExtension>
            <ns3:hr>129</ns3:hr>
            <ns3:cad>0</ns3:cad>
          </ns3:TrackPointExtension>
        </extensions>
      </trkpt>
      <trkpt lat="45.2662771381437778472900390625" lon="-71.15121695213019847869873046875">
        <ele>636.4000244140625</ele>
        <time>2026-08-22T03:28:57.000Z</time>
        <extensions>
          <ns3:TrackPointExtension>
            <ns3:hr>129</ns3:hr>
            <ns3:cad>0</ns3:cad>
          </ns3:TrackPointExtension>
        </extensions>
      </trkpt>
      <trkpt lat="45.26628233492374420166015625" lon="-71.15122281946241855621337890625">
        <ele>636.20001220703125</ele>
        <time>2026-08-22T03:28:58.000Z</time>
        <extensions>
          <ns3:TrackPointExtension>
            <ns3:hr>129</ns3:hr>
            <ns3:cad>0</ns3:cad>
          </ns3:TrackPointExtension>
        </extensions>
      </trkpt>
      <trkpt lat="45.2662912197411060333251953125" lon="-71.1512359790503978729248046875">
        <ele>636.20001220703125</ele>
        <time>2026-08-22T03:28:59.000Z</time>
        <extensions>
          <ns3:TrackPointExtension>
            <ns3:hr>129</ns3:hr>
            <ns3:cad>0</ns3:cad>
          </ns3:TrackPointExtension>
        </extensions>
      </trkpt>
      <trkpt lat="45.26630580425262451171875" lon="-71.15125031210482120513916015625">
        <ele>636.20001220703125</ele>
        <time>2026-08-22T03:29:00.000Z</time>
        <extensions>
          <ns3:TrackPointExtension>
            <ns3:hr>129</ns3:hr>
            <ns3:cad>0</ns3:cad>
          </ns3:TrackPointExtension>
        </extensions>
      </trkpt>
      <trkpt lat="45.2663177065551280975341796875" lon="-71.15126254968345165252685546875">
        <ele>636</ele>
        <time>2026-08-22T03:29:01.000Z</time>
        <extensions>
          <ns3:TrackPointExtension>
            <ns3:hr>128</ns3:hr>
            <ns3:cad>60</ns3:cad>
          </ns3:TrackPointExtension>
        </extensions>
      </trkpt>
      <trkpt lat="45.266329608857631683349609375" lon="-71.15127260796725749969482421875">
        <ele>636</ele>
        <time>2026-08-22T03:29:02.000Z</time>
        <extensions>
          <ns3:TrackPointExtension>
            <ns3:hr>128</ns3:hr>
            <ns3:cad>60</ns3:cad>
          </ns3:TrackPointExtension>
        </extensions>
      </trkpt>
      <trkpt lat="45.26634410955011844635009765625" lon="-71.151282079517841339111328125">
        <ele>635.79998779296875</ele>
        <time>2026-08-22T03:29:03.000Z</time>
        <extensions>
          <ns3:TrackPointExtension>
            <ns3:hr>128</ns3:hr>
            <ns3:cad>70</ns3:cad>
          </ns3:TrackPointExtension>
        </extensions>
      </trkpt>
      <trkpt lat="45.2663549222052097320556640625" lon="-71.1512911319732666015625">
        <ele>635.79998779296875</ele>
        <time>2026-08-22T03:29:04.000Z</time>
        <extensions>
          <ns3:TrackPointExtension>
            <ns3:hr>127</ns3:hr>
            <ns3:cad>70</ns3:cad>
          </ns3:TrackPointExtension>
        </extensions>
      </trkpt>
      <trkpt lat="45.266359783709049224853515625" lon="-71.151312924921512603759765625">
        <ele>635.5999755859375</ele>
        <time>2026-08-22T03:29:05.000Z</time>
        <extensions>
          <ns3:TrackPointExtension>
            <ns3:hr>127</ns3:hr>
            <ns3:cad>70</ns3:cad>
          </ns3:TrackPointExtension>
        </extensions>
      </trkpt>
      <trkpt lat="45.26636942289769649505615234375" lon="-71.15132625214755535125732421875">
        <ele>635.5999755859375</ele>
        <time>2026-08-22T03:29:06.000Z</time>
        <extensions>
          <ns3:TrackPointExtension>
            <ns3:hr>127</ns3:hr>
            <ns3:cad>70</ns3:cad>
          </ns3:TrackPointExtension>
        </extensions>
      </trkpt>
      <trkpt lat="45.26637889444828033447265625" lon="-71.15133882500231266021728515625">
        <ele>635.4000244140625</ele>
        <time>2026-08-22T03:29:07.000Z</time>
        <extensions>
          <ns3:TrackPointExtension>
            <ns3:hr>127</ns3:hr>
            <ns3:cad>70</ns3:cad>
          </ns3:TrackPointExtension>
        </extensions>
      </trkpt>
      <trkpt lat="45.26638786308467388153076171875" lon="-71.15135441534221172332763671875">
        <ele>635.4000244140625</ele>
        <time>2026-08-22T03:29:08.000Z</time>
        <extensions>
          <ns3:TrackPointExtension>
            <ns3:hr>127</ns3:hr>
            <ns3:cad>70</ns3:cad>
          </ns3:TrackPointExtension>
        </extensions>
      </trkpt>
      <trkpt lat="45.266396999359130859375" lon="-71.15136556327342987060546875">
        <ele>635.20001220703125</ele>
        <time>2026-08-22T03:29:09.000Z</time>
        <extensions>
          <ns3:TrackPointExtension>
            <ns3:hr>126</ns3:hr>
            <ns3:cad>70</ns3:cad>
          </ns3:TrackPointExtension>
        </extensions>
      </trkpt>
      <trkpt lat="45.26640764437615871429443359375" lon="-71.151373945176601409912109375">
        <ele>635</ele>
        <time>2026-08-22T03:29:10.000Z</time>
        <extensions>
          <ns3:TrackPointExtension>
            <ns3:hr>126</ns3:hr>
            <ns3:cad>70</ns3:cad>
          </ns3:TrackPointExtension>
        </extensions>
      </trkpt>
      <trkpt lat="45.26641778647899627685546875" lon="-71.1513804830610752105712890625">
        <ele>635</ele>
        <time>2026-08-22T03:29:11.000Z</time>
        <extensions>
          <ns3:TrackPointExtension>
            <ns3:hr>126</ns3:hr>
            <ns3:cad>60</ns3:cad>
          </ns3:TrackPointExtension>
        </extensions>
      </trkpt>
      <trkpt lat="45.26642759330570697784423828125" lon="-71.1513858474791049957275390625">
        <ele>634.79998779296875</ele>
        <time>2026-08-22T03:29:12.000Z</time>
        <extensions>
          <ns3:TrackPointExtension>
            <ns3:hr>125</ns3:hr>
            <ns3:cad>60</ns3:cad>
          </ns3:TrackPointExtension>
        </extensions>
      </trkpt>
      <trkpt lat="45.2664343826472759246826171875" lon="-71.1513902060687541961669921875">
        <ele>634.5999755859375</ele>
        <time>2026-08-22T03:29:13.000Z</time>
        <extensions>
          <ns3:TrackPointExtension>
            <ns3:hr>125</ns3:hr>
            <ns3:cad>60</ns3:cad>
          </ns3:TrackPointExtension>
        </extensions>
      </trkpt>
      <trkpt lat="45.2664444409310817718505859375" lon="-71.15140001289546489715576171875">
        <ele>634.4000244140625</ele>
        <time>2026-08-22T03:29:14.000Z</time>
        <extensions>
          <ns3:TrackPointExtension>
            <ns3:hr>125</ns3:hr>
            <ns3:cad>60</ns3:cad>
          </ns3:TrackPointExtension>
        </extensions>
      </trkpt>
      <trkpt lat="45.2664518170058727264404296875" lon="-71.15140990354120731353759765625">
        <ele>634</ele>
        <time>2026-08-22T03:29:15.000Z</time>
        <extensions>
          <ns3:TrackPointExtension>
            <ns3:hr>125</ns3:hr>
            <ns3:cad>60</ns3:cad>
          </ns3:TrackPointExtension>
        </extensions>
      </trkpt>
      <trkpt lat="45.26646145619451999664306640625" lon="-71.15141811780631542205810546875">
        <ele>633.79998779296875</ele>
        <time>2026-08-22T03:29:16.000Z</time>
        <extensions>
          <ns3:TrackPointExtension>
            <ns3:hr>124</ns3:hr>
            <ns3:cad>60</ns3:cad>
          </ns3:TrackPointExtension>
        </extensions>
      </trkpt>
      <trkpt lat="45.26647570542991161346435546875" lon="-71.15143337287008762359619140625">
        <ele>633.79998779296875</ele>
        <time>2026-08-22T03:29:17.000Z</time>
        <extensions>
          <ns3:TrackPointExtension>
            <ns3:hr>123</ns3:hr>
            <ns3:cad>60</ns3:cad>
          </ns3:TrackPointExtension>
        </extensions>
      </trkpt>
      <trkpt lat="45.2664856798946857452392578125" lon="-71.15144426934421062469482421875">
        <ele>633.79998779296875</ele>
        <time>2026-08-22T03:29:18.000Z</time>
        <extensions>
          <ns3:TrackPointExtension>
            <ns3:hr>123</ns3:hr>
            <ns3:cad>61</ns3:cad>
          </ns3:TrackPointExtension>
        </extensions>
      </trkpt>
      <trkpt lat="45.2664980851113796234130859375" lon="-71.1514542438089847564697265625">
        <ele>633.79998779296875</ele>
        <time>2026-08-22T03:29:19.000Z</time>
        <extensions>
          <ns3:TrackPointExtension>
            <ns3:hr>122</ns3:hr>
            <ns3:cad>61</ns3:cad>
          </ns3:TrackPointExtension>
        </extensions>
      </trkpt>
      <trkpt lat="45.26650755666196346282958984375" lon="-71.1514700017869472503662109375">
        <ele>633.79998779296875</ele>
        <time>2026-08-22T03:29:20.000Z</time>
        <extensions>
          <ns3:TrackPointExtension>
            <ns3:hr>122</ns3:hr>
            <ns3:cad>61</ns3:cad>
          </ns3:TrackPointExtension>
        </extensions>
      </trkpt>
      <trkpt lat="45.2665190398693084716796875" lon="-71.1514854244887828826904296875">
        <ele>633.79998779296875</ele>
        <time>2026-08-22T03:29:21.000Z</time>
        <extensions>
          <ns3:TrackPointExtension>
            <ns3:hr>121</ns3:hr>
            <ns3:cad>61</ns3:cad>
          </ns3:TrackPointExtension>
        </extensions>
      </trkpt>
      <trkpt lat="45.266534797847270965576171875" lon="-71.151502691209316253662109375">
        <ele>633.5999755859375</ele>
        <time>2026-08-22T03:29:22.000Z</time>
        <extensions>
          <ns3:TrackPointExtension>
            <ns3:hr>121</ns3:hr>
            <ns3:cad>61</ns3:cad>
          </ns3:TrackPointExtension>
        </extensions>
      </trkpt>
      <trkpt lat="45.26655080728232860565185546875" lon="-71.15151174366474151611328125">
        <ele>633.4000244140625</ele>
        <time>2026-08-22T03:29:23.000Z</time>
        <extensions>
          <ns3:TrackPointExtension>
            <ns3:hr>121</ns3:hr>
            <ns3:cad>61</ns3:cad>
          </ns3:TrackPointExtension>
        </extensions>
      </trkpt>
      <trkpt lat="45.26656371541321277618408203125" lon="-71.15151585079729557037353515625">
        <ele>633.4000244140625</ele>
        <time>2026-08-22T03:29:24.000Z</time>
        <extensions>
          <ns3:TrackPointExtension>
            <ns3:hr>122</ns3:hr>
            <ns3:cad>61</ns3:cad>
          </ns3:TrackPointExtension>
        </extensions>
      </trkpt>
      <trkpt lat="45.2665711753070354461669921875" lon="-71.15151987411081790924072265625">
        <ele>633.4000244140625</ele>
        <time>2026-08-22T03:29:25.000Z</time>
        <extensions>
          <ns3:TrackPointExtension>
            <ns3:hr>122</ns3:hr>
            <ns3:cad>0</ns3:cad>
          </ns3:TrackPointExtension>
        </extensions>
      </trkpt>
      <trkpt lat="45.266579724848270416259765625" lon="-71.1515306867659091949462890625">
        <ele>633.20001220703125</ele>
        <time>2026-08-22T03:29:26.000Z</time>
        <extensions>
          <ns3:TrackPointExtension>
            <ns3:hr>122</ns3:hr>
            <ns3:cad>0</ns3:cad>
          </ns3:TrackPointExtension>
        </extensions>
      </trkpt>
      <trkpt lat="45.26658634655177593231201171875" lon="-71.1515440978109836578369140625">
        <ele>633.4000244140625</ele>
        <time>2026-08-22T03:29:27.000Z</time>
        <extensions>
          <ns3:TrackPointExtension>
            <ns3:hr>122</ns3:hr>
            <ns3:cad>0</ns3:cad>
          </ns3:TrackPointExtension>
        </extensions>
      </trkpt>
      <trkpt lat="45.2665912918746471405029296875" lon="-71.1515518091619014739990234375">
        <ele>633.4000244140625</ele>
        <time>2026-08-22T03:29:28.000Z</time>
        <extensions>
          <ns3:TrackPointExtension>
            <ns3:hr>121</ns3:hr>
            <ns3:cad>0</ns3:cad>
          </ns3:TrackPointExtension>
        </extensions>
      </trkpt>
      <trkpt lat="45.26659489609301090240478515625" lon="-71.15155591629445552825927734375">
        <ele>633.4000244140625</ele>
        <time>2026-08-22T03:29:29.000Z</time>
        <extensions>
          <ns3:TrackPointExtension>
            <ns3:hr>121</ns3:hr>
            <ns3:cad>0</ns3:cad>
          </ns3:TrackPointExtension>
        </extensions>
      </trkpt>
      <trkpt lat="45.26659883558750152587890625" lon="-71.151567399501800537109375">
        <ele>633.4000244140625</ele>
        <time>2026-08-22T03:29:30.000Z</time>
        <extensions>
          <ns3:TrackPointExtension>
            <ns3:hr>121</ns3:hr>
            <ns3:cad>0</ns3:cad>
          </ns3:TrackPointExtension>
        </extensions>
      </trkpt>
      <trkpt lat="45.2666129171848297119140625" lon="-71.15158223547041416168212890625">
        <ele>633.4000244140625</ele>
        <time>2026-08-22T03:29:31.000Z</time>
        <extensions>
          <ns3:TrackPointExtension>
            <ns3:hr>120</ns3:hr>
            <ns3:cad>0</ns3:cad>
          </ns3:TrackPointExtension>
        </extensions>
      </trkpt>
      <trkpt lat="45.2666236460208892822265625" lon="-71.15159179084002971649169921875">
        <ele>633.20001220703125</ele>
        <time>2026-08-22T03:29:32.000Z</time>
        <extensions>
          <ns3:TrackPointExtension>
            <ns3:hr>120</ns3:hr>
            <ns3:cad>0</ns3:cad>
          </ns3:TrackPointExtension>
        </extensions>
      </trkpt>
      <trkpt lat="45.266630686819553375244140625" lon="-71.15159950219094753265380859375">
        <ele>633.20001220703125</ele>
        <time>2026-08-22T03:29:33.000Z</time>
        <extensions>
          <ns3:TrackPointExtension>
            <ns3:hr>120</ns3:hr>
            <ns3:cad>44</ns3:cad>
          </ns3:TrackPointExtension>
        </extensions>
      </trkpt>
      <trkpt lat="45.266638733446598052978515625" lon="-71.1516094766557216644287109375">
        <ele>633.20001220703125</ele>
        <time>2026-08-22T03:29:34.000Z</time>
        <extensions>
          <ns3:TrackPointExtension>
            <ns3:hr>121</ns3:hr>
            <ns3:cad>44</ns3:cad>
          </ns3:TrackPointExtension>
        </extensions>
      </trkpt>
      <trkpt lat="45.266651473939418792724609375" lon="-71.15162246860563755035400390625">
        <ele>633.20001220703125</ele>
        <time>2026-08-22T03:29:35.000Z</time>
        <extensions>
          <ns3:TrackPointExtension>
            <ns3:hr>121</ns3:hr>
            <ns3:cad>44</ns3:cad>
          </ns3:TrackPointExtension>
        </extensions>
      </trkpt>
      <trkpt lat="45.26666429825127124786376953125" lon="-71.1516366340219974517822265625">
        <ele>633.20001220703125</ele>
        <time>2026-08-22T03:29:36.000Z</time>
        <extensions>
          <ns3:TrackPointExtension>
            <ns3:hr>122</ns3:hr>
            <ns3:cad>44</ns3:cad>
          </ns3:TrackPointExtension>
        </extensions>
      </trkpt>
      <trkpt lat="45.26667770929634571075439453125" lon="-71.15164862014353275299072265625">
        <ele>633.20001220703125</ele>
        <time>2026-08-22T03:29:37.000Z</time>
        <extensions>
          <ns3:TrackPointExtension>
            <ns3:hr>122</ns3:hr>
            <ns3:cad>44</ns3:cad>
          </ns3:TrackPointExtension>
        </extensions>
      </trkpt>
      <trkpt lat="45.2666824869811534881591796875" lon="-71.15165524184703826904296875">
        <ele>633.4000244140625</ele>
        <time>2026-08-22T03:29:38.000Z</time>
        <extensions>
          <ns3:TrackPointExtension>
            <ns3:hr>122</ns3:hr>
            <ns3:cad>44</ns3:cad>
          </ns3:TrackPointExtension>
        </extensions>
      </trkpt>
      <trkpt lat="45.26669447310268878936767578125" lon="-71.1516567505896091461181640625">
        <ele>633.4000244140625</ele>
        <time>2026-08-22T03:29:39.000Z</time>
        <extensions>
          <ns3:TrackPointExtension>
            <ns3:hr>122</ns3:hr>
            <ns3:cad>0</ns3:cad>
          </ns3:TrackPointExtension>
        </extensions>
      </trkpt>
      <trkpt lat="45.2667103148996829986572265625" lon="-71.15166286937892436981201171875">
        <ele>633.4000244140625</ele>
        <time>2026-08-22T03:29:40.000Z</time>
        <extensions>
          <ns3:TrackPointExtension>
            <ns3:hr>122</ns3:hr>
            <ns3:cad>0</ns3:cad>
          </ns3:TrackPointExtension>
        </extensions>
      </trkpt>
      <trkpt lat="45.26672766543924808502197265625" lon="-71.1516681499779224395751953125">
        <ele>633.20001220703125</ele>
        <time>2026-08-22T03:29:41.000Z</time>
        <extensions>
          <ns3:TrackPointExtension>
            <ns3:hr>122</ns3:hr>
            <ns3:cad>0</ns3:cad>
          </ns3:TrackPointExtension>
        </extensions>
      </trkpt>
      <trkpt lat="45.26673587970435619354248046875" lon="-71.1516725085675716400146484375">
        <ele>633.20001220703125</ele>
        <time>2026-08-22T03:29:42.000Z</time>
        <extensions>
          <ns3:TrackPointExtension>
            <ns3:hr>122</ns3:hr>
            <ns3:cad>0</ns3:cad>
          </ns3:TrackPointExtension>
        </extensions>
      </trkpt>
      <trkpt lat="45.266741998493671417236328125" lon="-71.151675023138523101806640625">
        <ele>633</ele>
        <time>2026-08-22T03:29:43.000Z</time>
        <extensions>
          <ns3:TrackPointExtension>
            <ns3:hr>123</ns3:hr>
            <ns3:cad>0</ns3:cad>
          </ns3:TrackPointExtension>
        </extensions>
      </trkpt>
      <trkpt lat="45.26674903929233551025390625" lon="-71.15167678333818912506103515625">
        <ele>633</ele>
        <time>2026-08-22T03:29:44.000Z</time>
        <extensions>
          <ns3:TrackPointExtension>
            <ns3:hr>123</ns3:hr>
            <ns3:cad>0</ns3:cad>
          </ns3:TrackPointExtension>
        </extensions>
      </trkpt>
      <trkpt lat="45.26676370762288570404052734375" lon="-71.15167963318526744842529296875">
        <ele>632.79998779296875</ele>
        <time>2026-08-22T03:29:45.000Z</time>
        <extensions>
          <ns3:TrackPointExtension>
            <ns3:hr>123</ns3:hr>
            <ns3:cad>0</ns3:cad>
          </ns3:TrackPointExtension>
        </extensions>
      </trkpt>
      <trkpt lat="45.26677276007831096649169921875" lon="-71.15167745389044284820556640625">
        <ele>632.79998779296875</ele>
        <time>2026-08-22T03:29:46.000Z</time>
        <extensions>
          <ns3:TrackPointExtension>
            <ns3:hr>124</ns3:hr>
            <ns3:cad>0</ns3:cad>
          </ns3:TrackPointExtension>
        </extensions>
      </trkpt>
      <trkpt lat="45.26678281836211681365966796875" lon="-71.1516802199184894561767578125">
        <ele>632.5999755859375</ele>
        <time>2026-08-22T03:29:47.000Z</time>
        <extensions>
          <ns3:TrackPointExtension>
            <ns3:hr>124</ns3:hr>
            <ns3:cad>0</ns3:cad>
          </ns3:TrackPointExtension>
        </extensions>
      </trkpt>
      <trkpt lat="45.26679857634007930755615234375" lon="-71.151688098907470703125">
        <ele>632.5999755859375</ele>
        <time>2026-08-22T03:29:48.000Z</time>
        <extensions>
          <ns3:TrackPointExtension>
            <ns3:hr>124</ns3:hr>
            <ns3:cad>0</ns3:cad>
          </ns3:TrackPointExtension>
        </extensions>
      </trkpt>
      <trkpt lat="45.26681584306061267852783203125" lon="-71.15168969146907329559326171875">
        <ele>632.4000244140625</ele>
        <time>2026-08-22T03:29:49.000Z</time>
        <extensions>
          <ns3:TrackPointExtension>
            <ns3:hr>123</ns3:hr>
            <ns3:cad>0</ns3:cad>
          </ns3:TrackPointExtension>
        </extensions>
      </trkpt>
      <trkpt lat="45.266828499734401702880859375" lon="-71.15168382413685321807861328125">
        <ele>632.4000244140625</ele>
        <time>2026-08-22T03:29:50.000Z</time>
        <extensions>
          <ns3:TrackPointExtension>
            <ns3:hr>123</ns3:hr>
            <ns3:cad>0</ns3:cad>
          </ns3:TrackPointExtension>
        </extensions>
      </trkpt>
      <trkpt lat="45.26683176867663860321044921875" lon="-71.15167913027107715606689453125">
        <ele>632.20001220703125</ele>
        <time>2026-08-22T03:29:51.000Z</time>
        <extensions>
          <ns3:TrackPointExtension>
            <ns3:hr>123</ns3:hr>
            <ns3:cad>0</ns3:cad>
          </ns3:TrackPointExtension>
        </extensions>
      </trkpt>
      <trkpt lat="45.2668393962085247039794921875" lon="-71.1516782082617282867431640625">
        <ele>632</ele>
        <time>2026-08-22T03:29:52.000Z</time>
        <extensions>
          <ns3:TrackPointExtension>
            <ns3:hr>123</ns3:hr>
            <ns3:cad>0</ns3:cad>
          </ns3:TrackPointExtension>
        </extensions>
      </trkpt>
      <trkpt lat="45.26685037650167942047119140625" lon="-71.15168474614620208740234375">
        <ele>631.79998779296875</ele>
        <time>2026-08-22T03:29:53.000Z</time>
        <extensions>
          <ns3:TrackPointExtension>
            <ns3:hr>123</ns3:hr>
            <ns3:cad>0</ns3:cad>
          </ns3:TrackPointExtension>
        </extensions>
      </trkpt>
      <trkpt lat="45.26686445809900760650634765625" lon="-71.15168952383100986480712890625">
        <ele>631.4000244140625</ele>
        <time>2026-08-22T03:29:54.000Z</time>
        <extensions>
          <ns3:TrackPointExtension>
            <ns3:hr>123</ns3:hr>
            <ns3:cad>0</ns3:cad>
          </ns3:TrackPointExtension>
        </extensions>
      </trkpt>
      <trkpt lat="45.26687837205827236175537109375" lon="-71.1516943015158176422119140625">
        <ele>631.20001220703125</ele>
        <time>2026-08-22T03:29:55.000Z</time>
        <extensions>
          <ns3:TrackPointExtension>
            <ns3:hr>122</ns3:hr>
            <ns3:cad>0</ns3:cad>
          </ns3:TrackPointExtension>
        </extensions>
      </trkpt>
      <trkpt lat="45.26689060963690280914306640625" lon="-71.15169891156256198883056640625">
        <ele>631</ele>
        <time>2026-08-22T03:29:56.000Z</time>
        <extensions>
          <ns3:TrackPointExtension>
            <ns3:hr>122</ns3:hr>
            <ns3:cad>0</ns3:cad>
          </ns3:TrackPointExtension>
        </extensions>
      </trkpt>
      <trkpt lat="45.26690058410167694091796875" lon="-71.15170293487608432769775390625">
        <ele>630.79998779296875</ele>
        <time>2026-08-22T03:29:57.000Z</time>
        <extensions>
          <ns3:TrackPointExtension>
            <ns3:hr>122</ns3:hr>
            <ns3:cad>0</ns3:cad>
          </ns3:TrackPointExtension>
        </extensions>
      </trkpt>
      <trkpt lat="45.266906954348087310791015625" lon="-71.15170595236122608184814453125">
        <ele>630.79998779296875</ele>
        <time>2026-08-22T03:29:58.000Z</time>
        <extensions>
          <ns3:TrackPointExtension>
            <ns3:hr>122</ns3:hr>
            <ns3:cad>0</ns3:cad>
          </ns3:TrackPointExtension>
        </extensions>
      </trkpt>
      <trkpt lat="45.2669175155460834503173828125" lon="-71.15170863457024097442626953125">
        <ele>630.5999755859375</ele>
        <time>2026-08-22T03:29:59.000Z</time>
        <extensions>
          <ns3:TrackPointExtension>
            <ns3:hr>122</ns3:hr>
            <ns3:cad>0</ns3:cad>
          </ns3:TrackPointExtension>
        </extensions>
      </trkpt>
      <trkpt lat="45.26692631654441356658935546875" lon="-71.15171148441731929779052734375">
        <ele>630.5999755859375</ele>
        <time>2026-08-22T03:30:00.000Z</time>
        <extensions>
          <ns3:TrackPointExtension>
            <ns3:hr>122</ns3:hr>
            <ns3:cad>0</ns3:cad>
          </ns3:TrackPointExtension>
        </extensions>
      </trkpt>
      <trkpt lat="45.26693419553339481353759765625" lon="-71.1517189443111419677734375">
        <ele>630.5999755859375</ele>
        <time>2026-08-22T03:30:01.000Z</time>
        <extensions>
          <ns3:TrackPointExtension>
            <ns3:hr>122</ns3:hr>
            <ns3:cad>0</ns3:cad>
          </ns3:TrackPointExtension>
        </extensions>
      </trkpt>
      <trkpt lat="45.26694006286561489105224609375" lon="-71.15172556601464748382568359375">
        <ele>630.4000244140625</ele>
        <time>2026-08-22T03:30:02.000Z</time>
        <extensions>
          <ns3:TrackPointExtension>
            <ns3:hr>122</ns3:hr>
            <ns3:cad>0</ns3:cad>
          </ns3:TrackPointExtension>
        </extensions>
      </trkpt>
      <trkpt lat="45.266950540244579315185546875" lon="-71.15172958932816982269287109375">
        <ele>630.4000244140625</ele>
        <time>2026-08-22T03:30:03.000Z</time>
        <extensions>
          <ns3:TrackPointExtension>
            <ns3:hr>122</ns3:hr>
            <ns3:cad>0</ns3:cad>
          </ns3:TrackPointExtension>
        </extensions>
      </trkpt>
      <trkpt lat="45.266958586871623992919921875" lon="-71.151728667318820953369140625">
        <ele>630.4000244140625</ele>
        <time>2026-08-22T03:30:04.000Z</time>
        <extensions>
          <ns3:TrackPointExtension>
            <ns3:hr>122</ns3:hr>
            <ns3:cad>0</ns3:cad>
          </ns3:TrackPointExtension>
        </extensions>
      </trkpt>
      <trkpt lat="45.2669657953083515167236328125" lon="-71.151725985109806060791015625">
        <ele>630.20001220703125</ele>
        <time>2026-08-22T03:30:05.000Z</time>
        <extensions>
          <ns3:TrackPointExtension>
            <ns3:hr>121</ns3:hr>
            <ns3:cad>0</ns3:cad>
          </ns3:TrackPointExtension>
        </extensions>
      </trkpt>
      <trkpt lat="45.26697962544858455657958984375" lon="-71.15173143334686756134033203125">
        <ele>630.20001220703125</ele>
        <time>2026-08-22T03:30:06.000Z</time>
        <extensions>
          <ns3:TrackPointExtension>
            <ns3:hr>121</ns3:hr>
            <ns3:cad>0</ns3:cad>
          </ns3:TrackPointExtension>
        </extensions>
      </trkpt>
      <trkpt lat="45.26698901318013668060302734375" lon="-71.151733696460723876953125">
        <ele>630</ele>
        <time>2026-08-22T03:30:07.000Z</time>
        <extensions>
          <ns3:TrackPointExtension>
            <ns3:hr>121</ns3:hr>
            <ns3:cad>0</ns3:cad>
          </ns3:TrackPointExtension>
        </extensions>
      </trkpt>
      <trkpt lat="45.26700611226260662078857421875" lon="-71.15173931233584880828857421875">
        <ele>630</ele>
        <time>2026-08-22T03:30:08.000Z</time>
        <extensions>
          <ns3:TrackPointExtension>
            <ns3:hr>121</ns3:hr>
            <ns3:cad>0</ns3:cad>
          </ns3:TrackPointExtension>
        </extensions>
      </trkpt>
      <trkpt lat="45.26701818220317363739013671875" lon="-71.1517429165542125701904296875">
        <ele>630</ele>
        <time>2026-08-22T03:30:09.000Z</time>
        <extensions>
          <ns3:TrackPointExtension>
            <ns3:hr>122</ns3:hr>
            <ns3:cad>0</ns3:cad>
          </ns3:TrackPointExtension>
        </extensions>
      </trkpt>
      <trkpt lat="45.26702689938247203826904296875" lon="-71.15174534730613231658935546875">
        <ele>630</ele>
        <time>2026-08-22T03:30:10.000Z</time>
        <extensions>
          <ns3:TrackPointExtension>
            <ns3:hr>122</ns3:hr>
            <ns3:cad>0</ns3:cad>
          </ns3:TrackPointExtension>
        </extensions>
      </trkpt>
      <trkpt lat="45.26703469455242156982421875" lon="-71.15174585022032260894775390625">
        <ele>630</ele>
        <time>2026-08-22T03:30:11.000Z</time>
        <extensions>
          <ns3:TrackPointExtension>
            <ns3:hr>122</ns3:hr>
            <ns3:cad>0</ns3:cad>
          </ns3:TrackPointExtension>
        </extensions>
      </trkpt>
      <trkpt lat="45.26705221273005008697509765625" lon="-71.15175272338092327117919921875">
        <ele>630</ele>
        <time>2026-08-22T03:30:12.000Z</time>
        <extensions>
          <ns3:TrackPointExtension>
            <ns3:hr>121</ns3:hr>
            <ns3:cad>0</ns3:cad>
          </ns3:TrackPointExtension>
        </extensions>
      </trkpt>
      <trkpt lat="45.26706612668931484222412109375" lon="-71.1517618596553802490234375">
        <ele>630</ele>
        <time>2026-08-22T03:30:13.000Z</time>
        <extensions>
          <ns3:TrackPointExtension>
            <ns3:hr>121</ns3:hr>
            <ns3:cad>0</ns3:cad>
          </ns3:TrackPointExtension>
        </extensions>
      </trkpt>
      <trkpt lat="45.26708138175308704376220703125" lon="-71.15177133120596408843994140625">
        <ele>630</ele>
        <time>2026-08-22T03:30:14.000Z</time>
        <extensions>
          <ns3:TrackPointExtension>
            <ns3:hr>121</ns3:hr>
            <ns3:cad>0</ns3:cad>
          </ns3:TrackPointExtension>
        </extensions>
      </trkpt>
      <trkpt lat="45.2670992352068424224853515625" lon="-71.1517818085849285125732421875">
        <ele>630.20001220703125</ele>
        <time>2026-08-22T03:30:15.000Z</time>
        <extensions>
          <ns3:TrackPointExtension>
            <ns3:hr>121</ns3:hr>
            <ns3:cad>0</ns3:cad>
          </ns3:TrackPointExtension>
        </extensions>
      </trkpt>
      <trkpt lat="45.2671139873564243316650390625" lon="-71.15179329179227352142333984375">
        <ele>630.5999755859375</ele>
        <time>2026-08-22T03:30:16.000Z</time>
        <extensions>
          <ns3:TrackPointExtension>
            <ns3:hr>121</ns3:hr>
            <ns3:cad>0</ns3:cad>
          </ns3:TrackPointExtension>
        </extensions>
      </trkpt>
      <trkpt lat="45.2671334333717823028564453125" lon="-71.15180200897157192230224609375">
        <ele>630.79998779296875</ele>
        <time>2026-08-22T03:30:17.000Z</time>
        <extensions>
          <ns3:TrackPointExtension>
            <ns3:hr>121</ns3:hr>
            <ns3:cad>0</ns3:cad>
          </ns3:TrackPointExtension>
        </extensions>
      </trkpt>
      <trkpt lat="45.26714265346527099609375" lon="-71.151802428066730499267578125">
        <ele>631.20001220703125</ele>
        <time>2026-08-22T03:30:18.000Z</time>
        <extensions>
          <ns3:TrackPointExtension>
            <ns3:hr>121</ns3:hr>
            <ns3:cad>0</ns3:cad>
          </ns3:TrackPointExtension>
        </extensions>
      </trkpt>
      <trkpt lat="45.2671547234058380126953125" lon="-71.15180335007607936859130859375">
        <ele>631.5999755859375</ele>
        <time>2026-08-22T03:30:19.000Z</time>
        <extensions>
          <ns3:TrackPointExtension>
            <ns3:hr>122</ns3:hr>
            <ns3:cad>0</ns3:cad>
          </ns3:TrackPointExtension>
        </extensions>
      </trkpt>
      <trkpt lat="45.26716453023254871368408203125" lon="-71.15180787630379199981689453125">
        <ele>631.79998779296875</ele>
        <time>2026-08-22T03:30:20.000Z</time>
        <extensions>
          <ns3:TrackPointExtension>
            <ns3:hr>122</ns3:hr>
            <ns3:cad>0</ns3:cad>
          </ns3:TrackPointExtension>
        </extensions>
      </trkpt>
      <trkpt lat="45.2671753428876399993896484375" lon="-71.1518213711678981781005859375">
        <ele>631.79998779296875</ele>
        <time>2026-08-22T03:30:21.000Z</time>
        <extensions>
          <ns3:TrackPointExtension>
            <ns3:hr>122</ns3:hr>
            <ns3:cad>0</ns3:cad>
          </ns3:TrackPointExtension>
        </extensions>
      </trkpt>
      <trkpt lat="45.26718313805758953094482421875" lon="-71.15184039808809757232666015625">
        <ele>631.79998779296875</ele>
        <time>2026-08-22T03:30:22.000Z</time>
        <extensions>
          <ns3:TrackPointExtension>
            <ns3:hr>124</ns3:hr>
            <ns3:cad>0</ns3:cad>
          </ns3:TrackPointExtension>
        </extensions>
      </trkpt>
      <trkpt lat="45.26719830930233001708984375" lon="-71.151862777769565582275390625">
        <ele>631.5999755859375</ele>
        <time>2026-08-22T03:30:23.000Z</time>
        <extensions>
          <ns3:TrackPointExtension>
            <ns3:hr>124</ns3:hr>
            <ns3:cad>0</ns3:cad>
          </ns3:TrackPointExtension>
        </extensions>
      </trkpt>
      <trkpt lat="45.26721264235675334930419921875" lon="-71.15187627263367176055908203125">
        <ele>631.5999755859375</ele>
        <time>2026-08-22T03:30:24.000Z</time>
        <extensions>
          <ns3:TrackPointExtension>
            <ns3:hr>124</ns3:hr>
            <ns3:cad>0</ns3:cad>
          </ns3:TrackPointExtension>
        </extensions>
      </trkpt>
      <trkpt lat="45.26722823269665241241455078125" lon="-71.1518941260874271392822265625">
        <ele>631.4000244140625</ele>
        <time>2026-08-22T03:30:25.000Z</time>
        <extensions>
          <ns3:TrackPointExtension>
            <ns3:hr>126</ns3:hr>
            <ns3:cad>0</ns3:cad>
          </ns3:TrackPointExtension>
        </extensions>
      </trkpt>
      <trkpt lat="45.267241895198822021484375" lon="-71.1519051901996135711669921875">
        <ele>631.4000244140625</ele>
        <time>2026-08-22T03:30:26.000Z</time>
        <extensions>
          <ns3:TrackPointExtension>
            <ns3:hr>126</ns3:hr>
            <ns3:cad>0</ns3:cad>
          </ns3:TrackPointExtension>
        </extensions>
      </trkpt>
      <trkpt lat="45.26725790463387966156005859375" lon="-71.15191248245537281036376953125">
        <ele>631.20001220703125</ele>
        <time>2026-08-22T03:30:27.000Z</time>
        <extensions>
          <ns3:TrackPointExtension>
            <ns3:hr>127</ns3:hr>
            <ns3:cad>0</ns3:cad>
          </ns3:TrackPointExtension>
        </extensions>
      </trkpt>
      <trkpt lat="45.2672700583934783935546875" lon="-71.1519196070730686187744140625">
        <ele>631</ele>
        <time>2026-08-22T03:30:28.000Z</time>
        <extensions>
          <ns3:TrackPointExtension>
            <ns3:hr>128</ns3:hr>
            <ns3:cad>0</ns3:cad>
          </ns3:TrackPointExtension>
        </extensions>
      </trkpt>
      <trkpt lat="45.26727986522018909454345703125" lon="-71.15192455239593982696533203125">
        <ele>630.79998779296875</ele>
        <time>2026-08-22T03:30:29.000Z</time>
        <extensions>
          <ns3:TrackPointExtension>
            <ns3:hr>129</ns3:hr>
            <ns3:cad>0</ns3:cad>
          </ns3:TrackPointExtension>
        </extensions>
      </trkpt>
      <trkpt lat="45.267289169132709503173828125" lon="-71.151921115815639495849609375">
        <ele>630.5999755859375</ele>
        <time>2026-08-22T03:30:30.000Z</time>
        <extensions>
          <ns3:TrackPointExtension>
            <ns3:hr>129</ns3:hr>
            <ns3:cad>0</ns3:cad>
          </ns3:TrackPointExtension>
        </extensions>
      </trkpt>
      <trkpt lat="45.267294533550739288330078125" lon="-71.15192421711981296539306640625">
        <ele>630.5999755859375</ele>
        <time>2026-08-22T03:30:31.000Z</time>
        <extensions>
          <ns3:TrackPointExtension>
            <ns3:hr>129</ns3:hr>
            <ns3:cad>0</ns3:cad>
          </ns3:TrackPointExtension>
        </extensions>
      </trkpt>
      <trkpt lat="45.2672957070171833038330078125" lon="-71.15192270837724208831787109375">
        <ele>630.20001220703125</ele>
        <time>2026-08-22T03:30:32.000Z</time>
        <extensions>
          <ns3:TrackPointExtension>
            <ns3:hr>129</ns3:hr>
            <ns3:cad>0</ns3:cad>
          </ns3:TrackPointExtension>
        </extensions>
      </trkpt>
      <trkpt lat="45.26730199344456195831298828125" lon="-71.15192673169076442718505859375">
        <ele>630</ele>
        <time>2026-08-22T03:30:33.000Z</time>
        <extensions>
          <ns3:TrackPointExtension>
            <ns3:hr>130</ns3:hr>
            <ns3:cad>0</ns3:cad>
          </ns3:TrackPointExtension>
        </extensions>
      </trkpt>
      <trkpt lat="45.26732127182185649871826171875" lon="-71.15193025209009647369384765625">
        <ele>629.79998779296875</ele>
        <time>2026-08-22T03:30:34.000Z</time>
        <extensions>
          <ns3:TrackPointExtension>
            <ns3:hr>130</ns3:hr>
            <ns3:cad>0</ns3:cad>
          </ns3:TrackPointExtension>
        </extensions>
      </trkpt>
      <trkpt lat="45.2673329226672649383544921875" lon="-71.1519335210323333740234375">
        <ele>629.4000244140625</ele>
        <time>2026-08-22T03:30:35.000Z</time>
        <extensions>
          <ns3:TrackPointExtension>
            <ns3:hr>130</ns3:hr>
            <ns3:cad>0</ns3:cad>
          </ns3:TrackPointExtension>
        </extensions>
      </trkpt>
      <trkpt lat="45.2673463337123394012451171875" lon="-71.15193880163133144378662109375">
        <ele>629.20001220703125</ele>
        <time>2026-08-22T03:30:36.000Z</time>
        <extensions>
          <ns3:TrackPointExtension>
            <ns3:hr>130</ns3:hr>
            <ns3:cad>0</ns3:cad>
          </ns3:TrackPointExtension>
        </extensions>
      </trkpt>
      <trkpt lat="45.26735664345324039459228515625" lon="-71.1519440822303295135498046875">
        <ele>629</ele>
        <time>2026-08-22T03:30:37.000Z</time>
        <extensions>
          <ns3:TrackPointExtension>
            <ns3:hr>130</ns3:hr>
            <ns3:cad>0</ns3:cad>
          </ns3:TrackPointExtension>
        </extensions>
      </trkpt>
      <trkpt lat="45.2673612534999847412109375" lon="-71.15195028483867645263671875">
        <ele>629</ele>
        <time>2026-08-22T03:30:38.000Z</time>
        <extensions>
          <ns3:TrackPointExtension>
            <ns3:hr>130</ns3:hr>
            <ns3:cad>0</ns3:cad>
          </ns3:TrackPointExtension>
        </extensions>
      </trkpt>
      <trkpt lat="45.267368294298648834228515625" lon="-71.151957325637340545654296875">
        <ele>629</ele>
        <time>2026-08-22T03:30:39.000Z</time>
        <extensions>
          <ns3:TrackPointExtension>
            <ns3:hr>129</ns3:hr>
            <ns3:cad>0</ns3:cad>
          </ns3:TrackPointExtension>
        </extensions>
      </trkpt>
      <trkpt lat="45.26736997067928314208984375" lon="-71.15195673890411853790283203125">
        <ele>629.20001220703125</ele>
        <time>2026-08-22T03:30:40.000Z</time>
        <extensions>
          <ns3:TrackPointExtension>
            <ns3:hr>129</ns3:hr>
            <ns3:cad>0</ns3:cad>
          </ns3:TrackPointExtension>
        </extensions>
      </trkpt>
      <trkpt lat="45.26737189851701259613037109375" lon="-71.15195162594318389892578125">
        <ele>629.20001220703125</ele>
        <time>2026-08-22T03:30:41.000Z</time>
        <extensions>
          <ns3:TrackPointExtension>
            <ns3:hr>129</ns3:hr>
            <ns3:cad>0</ns3:cad>
          </ns3:TrackPointExtension>
        </extensions>
      </trkpt>
      <trkpt lat="45.2673681266605854034423828125" lon="-71.1519454233348369598388671875">
        <ele>629.4000244140625</ele>
        <time>2026-08-22T03:30:42.000Z</time>
        <extensions>
          <ns3:TrackPointExtension>
            <ns3:hr>129</ns3:hr>
            <ns3:cad>0</ns3:cad>
          </ns3:TrackPointExtension>
        </extensions>
      </trkpt>
      <trkpt lat="45.26736795902252197265625" lon="-71.1519457586109638214111328125">
        <ele>629.4000244140625</ele>
        <time>2026-08-22T03:30:43.000Z</time>
        <extensions>
          <ns3:TrackPointExtension>
            <ns3:hr>128</ns3:hr>
            <ns3:cad>0</ns3:cad>
          </ns3:TrackPointExtension>
        </extensions>
      </trkpt>
      <trkpt lat="45.2673677913844585418701171875" lon="-71.15194584242999553680419921875">
        <ele>629.5999755859375</ele>
        <time>2026-08-22T03:30:44.000Z</time>
        <extensions>
          <ns3:TrackPointExtension>
            <ns3:hr>128</ns3:hr>
            <ns3:cad>0</ns3:cad>
          </ns3:TrackPointExtension>
        </extensions>
      </trkpt>
      <trkpt lat="45.2673625946044921875" lon="-71.15195606835186481475830078125">
        <ele>629.5999755859375</ele>
        <time>2026-08-22T03:30:45.000Z</time>
        <extensions>
          <ns3:TrackPointExtension>
            <ns3:hr>127</ns3:hr>
            <ns3:cad>0</ns3:cad>
          </ns3:TrackPointExtension>
        </extensions>
      </trkpt>
      <trkpt lat="45.267360918223857879638671875" lon="-71.15196260623633861541748046875">
        <ele>629.5999755859375</ele>
        <time>2026-08-22T03:30:46.000Z</time>
        <extensions>
          <ns3:TrackPointExtension>
            <ns3:hr>126</ns3:hr>
            <ns3:cad>0</ns3:cad>
          </ns3:TrackPointExtension>
        </extensions>
      </trkpt>
      <trkpt lat="45.267358236014842987060546875" lon="-71.15197400562465190887451171875">
        <ele>629.5999755859375</ele>
        <time>2026-08-22T03:30:47.000Z</time>
        <extensions>
          <ns3:TrackPointExtension>
            <ns3:hr>126</ns3:hr>
            <ns3:cad>0</ns3:cad>
          </ns3:TrackPointExtension>
        </extensions>
      </trkpt>
      <trkpt lat="45.26735496707260608673095703125" lon="-71.15198339335620403289794921875">
        <ele>629.79998779296875</ele>
        <time>2026-08-22T03:30:48.000Z</time>
        <extensions>
          <ns3:TrackPointExtension>
            <ns3:hr>126</ns3:hr>
            <ns3:cad>0</ns3:cad>
          </ns3:TrackPointExtension>
        </extensions>
      </trkpt>
      <trkpt lat="45.26735228486359119415283203125" lon="-71.15199345164000988006591796875">
        <ele>629.79998779296875</ele>
        <time>2026-08-22T03:30:49.000Z</time>
        <extensions>
          <ns3:TrackPointExtension>
            <ns3:hr>126</ns3:hr>
            <ns3:cad>80</ns3:cad>
          </ns3:TrackPointExtension>
        </extensions>
      </trkpt>
      <trkpt lat="45.267348177731037139892578125" lon="-71.1520054377615451812744140625">
        <ele>630</ele>
        <time>2026-08-22T03:30:50.000Z</time>
        <extensions>
          <ns3:TrackPointExtension>
            <ns3:hr>126</ns3:hr>
            <ns3:cad>42</ns3:cad>
          </ns3:TrackPointExtension>
        </extensions>
      </trkpt>
      <trkpt lat="45.267346166074275970458984375" lon="-71.1520166695117950439453125">
        <ele>630.20001220703125</ele>
        <time>2026-08-22T03:30:51.000Z</time>
        <extensions>
          <ns3:TrackPointExtension>
            <ns3:hr>126</ns3:hr>
            <ns3:cad>42</ns3:cad>
          </ns3:TrackPointExtension>
        </extensions>
      </trkpt>
      <trkpt lat="45.26734306477010250091552734375" lon="-71.1520248837769031524658203125">
        <ele>630.4000244140625</ele>
        <time>2026-08-22T03:30:52.000Z</time>
        <extensions>
          <ns3:TrackPointExtension>
            <ns3:hr>127</ns3:hr>
            <ns3:cad>42</ns3:cad>
          </ns3:TrackPointExtension>
        </extensions>
      </trkpt>
      <trkpt lat="45.2673392929136753082275390625" lon="-71.15203385241329669952392578125">
        <ele>630.5999755859375</ele>
        <time>2026-08-22T03:30:53.000Z</time>
        <extensions>
          <ns3:TrackPointExtension>
            <ns3:hr>127</ns3:hr>
            <ns3:cad>42</ns3:cad>
          </ns3:TrackPointExtension>
        </extensions>
      </trkpt>
      <trkpt lat="45.2673382870852947235107421875" lon="-71.1520461738109588623046875">
        <ele>630.79998779296875</ele>
        <time>2026-08-22T03:30:54.000Z</time>
        <extensions>
          <ns3:TrackPointExtension>
            <ns3:hr>127</ns3:hr>
            <ns3:cad>43</ns3:cad>
          </ns3:TrackPointExtension>
        </extensions>
      </trkpt>
      <trkpt lat="45.26733778417110443115234375" lon="-71.15205715410411357879638671875">
        <ele>631</ele>
        <time>2026-08-22T03:30:55.000Z</time>
        <extensions>
          <ns3:TrackPointExtension>
            <ns3:hr>126</ns3:hr>
            <ns3:cad>44</ns3:cad>
          </ns3:TrackPointExtension>
        </extensions>
      </trkpt>
      <trkpt lat="45.26733434759080410003662109375" lon="-71.15207358263432979583740234375">
        <ele>631.20001220703125</ele>
        <time>2026-08-22T03:30:56.000Z</time>
        <extensions>
          <ns3:TrackPointExtension>
            <ns3:hr>126</ns3:hr>
            <ns3:cad>44</ns3:cad>
          </ns3:TrackPointExtension>
        </extensions>
      </trkpt>
      <trkpt lat="45.26733015663921833038330078125" lon="-71.1520879156887531280517578125">
        <ele>631.20001220703125</ele>
        <time>2026-08-22T03:30:57.000Z</time>
        <extensions>
          <ns3:TrackPointExtension>
            <ns3:hr>126</ns3:hr>
            <ns3:cad>45</ns3:cad>
          </ns3:TrackPointExtension>
        </extensions>
      </trkpt>
      <trkpt lat="45.26732697151601314544677734375" lon="-71.15210451185703277587890625">
        <ele>631.5999755859375</ele>
        <time>2026-08-22T03:30:58.000Z</time>
        <extensions>
          <ns3:TrackPointExtension>
            <ns3:hr>126</ns3:hr>
            <ns3:cad>45</ns3:cad>
          </ns3:TrackPointExtension>
        </extensions>
      </trkpt>
      <trkpt lat="45.26732378639280796051025390625" lon="-71.15212052129209041595458984375">
        <ele>631.79998779296875</ele>
        <time>2026-08-22T03:30:59.000Z</time>
        <extensions>
          <ns3:TrackPointExtension>
            <ns3:hr>126</ns3:hr>
            <ns3:cad>48</ns3:cad>
          </ns3:TrackPointExtension>
        </extensions>
      </trkpt>
      <trkpt lat="45.26731967926025390625" lon="-71.15213460288941860198974609375">
        <ele>632</ele>
        <time>2026-08-22T03:31:00.000Z</time>
        <extensions>
          <ns3:TrackPointExtension>
            <ns3:hr>127</ns3:hr>
            <ns3:cad>48</ns3:cad>
          </ns3:TrackPointExtension>
        </extensions>
      </trkpt>
      <trkpt lat="45.26731490157544612884521484375" lon="-71.15214767865836620330810546875">
        <ele>632.20001220703125</ele>
        <time>2026-08-22T03:31:01.000Z</time>
        <extensions>
          <ns3:TrackPointExtension>
            <ns3:hr>128</ns3:hr>
            <ns3:cad>49</ns3:cad>
          </ns3:TrackPointExtension>
        </extensions>
      </trkpt>
      <trkpt lat="45.26731071062386035919189453125" lon="-71.1521603353321552276611328125">
        <ele>632.4000244140625</ele>
        <time>2026-08-22T03:31:02.000Z</time>
        <extensions>
          <ns3:TrackPointExtension>
            <ns3:hr>128</ns3:hr>
            <ns3:cad>50</ns3:cad>
          </ns3:TrackPointExtension>
        </extensions>
      </trkpt>
      <trkpt lat="45.2673077769577503204345703125" lon="-71.1521720699965953826904296875">
        <ele>632.5999755859375</ele>
        <time>2026-08-22T03:31:03.000Z</time>
        <extensions>
          <ns3:TrackPointExtension>
            <ns3:hr>129</ns3:hr>
            <ns3:cad>50</ns3:cad>
          </ns3:TrackPointExtension>
        </extensions>
      </trkpt>
      <trkpt lat="45.267305262386798858642578125" lon="-71.1521824635565280914306640625">
        <ele>632.79998779296875</ele>
        <time>2026-08-22T03:31:04.000Z</time>
        <extensions>
          <ns3:TrackPointExtension>
            <ns3:hr>129</ns3:hr>
            <ns3:cad>50</ns3:cad>
          </ns3:TrackPointExtension>
        </extensions>
      </trkpt>
      <trkpt lat="45.26729964651167392730712890625" lon="-71.152195371687412261962890625">
        <ele>633.20001220703125</ele>
        <time>2026-08-22T03:31:05.000Z</time>
        <extensions>
          <ns3:TrackPointExtension>
            <ns3:hr>129</ns3:hr>
            <ns3:cad>50</ns3:cad>
          </ns3:TrackPointExtension>
        </extensions>
      </trkpt>
      <trkpt lat="45.2672987245023250579833984375" lon="-71.15220911800861358642578125">
        <ele>633.4000244140625</ele>
        <time>2026-08-22T03:31:06.000Z</time>
        <extensions>
          <ns3:TrackPointExtension>
            <ns3:hr>129</ns3:hr>
            <ns3:cad>49</ns3:cad>
          </ns3:TrackPointExtension>
        </extensions>
      </trkpt>
      <trkpt lat="45.26729696430265903472900390625" lon="-71.152222193777561187744140625">
        <ele>633.79998779296875</ele>
        <time>2026-08-22T03:31:07.000Z</time>
        <extensions>
          <ns3:TrackPointExtension>
            <ns3:hr>129</ns3:hr>
            <ns3:cad>49</ns3:cad>
          </ns3:TrackPointExtension>
        </extensions>
      </trkpt>
      <trkpt lat="45.2672957070171833038330078125" lon="-71.15223468281328678131103515625">
        <ele>634</ele>
        <time>2026-08-22T03:31:08.000Z</time>
        <extensions>
          <ns3:TrackPointExtension>
            <ns3:hr>129</ns3:hr>
            <ns3:cad>49</ns3:cad>
          </ns3:TrackPointExtension>
        </extensions>
      </trkpt>
      <trkpt lat="45.26729545556008815765380859375" lon="-71.1522615887224674224853515625">
        <ele>634.20001220703125</ele>
        <time>2026-08-22T03:31:09.000Z</time>
        <extensions>
          <ns3:TrackPointExtension>
            <ns3:hr>130</ns3:hr>
            <ns3:cad>50</ns3:cad>
          </ns3:TrackPointExtension>
        </extensions>
      </trkpt>
      <trkpt lat="45.26729344390332698822021484375" lon="-71.15228095091879367828369140625">
        <ele>634.4000244140625</ele>
        <time>2026-08-22T03:31:10.000Z</time>
        <extensions>
          <ns3:TrackPointExtension>
            <ns3:hr>131</ns3:hr>
            <ns3:cad>50</ns3:cad>
          </ns3:TrackPointExtension>
        </extensions>
      </trkpt>
      <trkpt lat="45.26729285717010498046875" lon="-71.1522929370403289794921875">
        <ele>634.5999755859375</ele>
        <time>2026-08-22T03:31:11.000Z</time>
        <extensions>
          <ns3:TrackPointExtension>
            <ns3:hr>131</ns3:hr>
            <ns3:cad>50</ns3:cad>
          </ns3:TrackPointExtension>
        </extensions>
      </trkpt>
      <trkpt lat="45.267291851341724395751953125" lon="-71.15231296978890895843505859375">
        <ele>634.79998779296875</ele>
        <time>2026-08-22T03:31:12.000Z</time>
        <extensions>
          <ns3:TrackPointExtension>
            <ns3:hr>131</ns3:hr>
            <ns3:cad>50</ns3:cad>
          </ns3:TrackPointExtension>
        </extensions>
      </trkpt>
      <trkpt lat="45.2672861516475677490234375" lon="-71.15233878605067729949951171875">
        <ele>635.20001220703125</ele>
        <time>2026-08-22T03:31:13.000Z</time>
        <extensions>
          <ns3:TrackPointExtension>
            <ns3:hr>131</ns3:hr>
            <ns3:cad>52</ns3:cad>
          </ns3:TrackPointExtension>
        </extensions>
      </trkpt>
      <trkpt lat="45.26728590019047260284423828125" lon="-71.15236024372279644012451171875">
        <ele>635.4000244140625</ele>
        <time>2026-08-22T03:31:14.000Z</time>
        <extensions>
          <ns3:TrackPointExtension>
            <ns3:hr>131</ns3:hr>
            <ns3:cad>52</ns3:cad>
          </ns3:TrackPointExtension>
        </extensions>
      </trkpt>
      <trkpt lat="45.267285816371440887451171875" lon="-71.15237583406269550323486328125">
        <ele>635.79998779296875</ele>
        <time>2026-08-22T03:31:15.000Z</time>
        <extensions>
          <ns3:TrackPointExtension>
            <ns3:hr>132</ns3:hr>
            <ns3:cad>52</ns3:cad>
          </ns3:TrackPointExtension>
        </extensions>
      </trkpt>
      <trkpt lat="45.2672843076288700103759765625" lon="-71.15239494480192661285400390625">
        <ele>636</ele>
        <time>2026-08-22T03:31:16.000Z</time>
        <extensions>
          <ns3:TrackPointExtension>
            <ns3:hr>133</ns3:hr>
            <ns3:cad>52</ns3:cad>
          </ns3:TrackPointExtension>
        </extensions>
      </trkpt>
      <trkpt lat="45.2672822959721088409423828125" lon="-71.15241321735084056854248046875">
        <ele>636.20001220703125</ele>
        <time>2026-08-22T03:31:17.000Z</time>
        <extensions>
          <ns3:TrackPointExtension>
            <ns3:hr>133</ns3:hr>
            <ns3:cad>52</ns3:cad>
          </ns3:TrackPointExtension>
        </extensions>
      </trkpt>
      <trkpt lat="45.2672792784869670867919921875" lon="-71.15242780186235904693603515625">
        <ele>636.4000244140625</ele>
        <time>2026-08-22T03:31:18.000Z</time>
        <extensions>
          <ns3:TrackPointExtension>
            <ns3:hr>133</ns3:hr>
            <ns3:cad>53</ns3:cad>
          </ns3:TrackPointExtension>
        </extensions>
      </trkpt>
      <trkpt lat="45.26727768592536449432373046875" lon="-71.15244389511644840240478515625">
        <ele>636.5999755859375</ele>
        <time>2026-08-22T03:31:19.000Z</time>
        <extensions>
          <ns3:TrackPointExtension>
            <ns3:hr>134</ns3:hr>
            <ns3:cad>53</ns3:cad>
          </ns3:TrackPointExtension>
        </extensions>
      </trkpt>
      <trkpt lat="45.2672792784869670867919921875" lon="-71.15246384404599666595458984375">
        <ele>636.79998779296875</ele>
        <time>2026-08-22T03:31:20.000Z</time>
        <extensions>
          <ns3:TrackPointExtension>
            <ns3:hr>134</ns3:hr>
            <ns3:cad>53</ns3:cad>
          </ns3:TrackPointExtension>
        </extensions>
      </trkpt>
      <trkpt lat="45.26727902702987194061279296875" lon="-71.1524808593094348907470703125">
        <ele>637</ele>
        <time>2026-08-22T03:31:21.000Z</time>
        <extensions>
          <ns3:TrackPointExtension>
            <ns3:hr>134</ns3:hr>
            <ns3:cad>54</ns3:cad>
          </ns3:TrackPointExtension>
        </extensions>
      </trkpt>
      <trkpt lat="45.2672776021063327789306640625" lon="-71.15250105969607830047607421875">
        <ele>637.20001220703125</ele>
        <time>2026-08-22T03:31:22.000Z</time>
        <extensions>
          <ns3:TrackPointExtension>
            <ns3:hr>135</ns3:hr>
            <ns3:cad>54</ns3:cad>
          </ns3:TrackPointExtension>
        </extensions>
      </trkpt>
      <trkpt lat="45.2672782726585865020751953125" lon="-71.15252117626368999481201171875">
        <ele>637.4000244140625</ele>
        <time>2026-08-22T03:31:23.000Z</time>
        <extensions>
          <ns3:TrackPointExtension>
            <ns3:hr>135</ns3:hr>
            <ns3:cad>52</ns3:cad>
          </ns3:TrackPointExtension>
        </extensions>
      </trkpt>
      <trkpt lat="45.26727936230599880218505859375" lon="-71.15254129283130168914794921875">
        <ele>637.5999755859375</ele>
        <time>2026-08-22T03:31:24.000Z</time>
        <extensions>
          <ns3:TrackPointExtension>
            <ns3:hr>136</ns3:hr>
            <ns3:cad>52</ns3:cad>
          </ns3:TrackPointExtension>
        </extensions>
      </trkpt>
      <trkpt lat="45.26727902702987194061279296875" lon="-71.15255436860024929046630859375">
        <ele>637.79998779296875</ele>
        <time>2026-08-22T03:31:25.000Z</time>
        <extensions>
          <ns3:TrackPointExtension>
            <ns3:hr>137</ns3:hr>
            <ns3:cad>51</ns3:cad>
          </ns3:TrackPointExtension>
        </extensions>
      </trkpt>
      <trkpt lat="45.26727785356342792510986328125" lon="-71.15256928838789463043212890625">
        <ele>638</ele>
        <time>2026-08-22T03:31:26.000Z</time>
        <extensions>
          <ns3:TrackPointExtension>
            <ns3:hr>137</ns3:hr>
            <ns3:cad>51</ns3:cad>
          </ns3:TrackPointExtension>
        </extensions>
      </trkpt>
      <trkpt lat="45.26727869175374507904052734375" lon="-71.15258638747036457061767578125">
        <ele>638.20001220703125</ele>
        <time>2026-08-22T03:31:27.000Z</time>
        <extensions>
          <ns3:TrackPointExtension>
            <ns3:hr>138</ns3:hr>
            <ns3:cad>51</ns3:cad>
          </ns3:TrackPointExtension>
        </extensions>
      </trkpt>
      <trkpt lat="45.267276763916015625" lon="-71.15260340273380279541015625">
        <ele>638.4000244140625</ele>
        <time>2026-08-22T03:31:28.000Z</time>
        <extensions>
          <ns3:TrackPointExtension>
            <ns3:hr>138</ns3:hr>
            <ns3:cad>51</ns3:cad>
          </ns3:TrackPointExtension>
        </extensions>
      </trkpt>
      <trkpt lat="45.26727299205958843231201171875" lon="-71.1526186577975749969482421875">
        <ele>638.5999755859375</ele>
        <time>2026-08-22T03:31:29.000Z</time>
        <extensions>
          <ns3:TrackPointExtension>
            <ns3:hr>138</ns3:hr>
            <ns3:cad>51</ns3:cad>
          </ns3:TrackPointExtension>
        </extensions>
      </trkpt>
      <trkpt lat="45.267276428639888763427734375" lon="-71.152637265622615814208984375">
        <ele>638.79998779296875</ele>
        <time>2026-08-22T03:31:30.000Z</time>
        <extensions>
          <ns3:TrackPointExtension>
            <ns3:hr>139</ns3:hr>
            <ns3:cad>51</ns3:cad>
          </ns3:TrackPointExtension>
        </extensions>
      </trkpt>
      <trkpt lat="45.26728070341050624847412109375" lon="-71.1526541970670223236083984375">
        <ele>639</ele>
        <time>2026-08-22T03:31:31.000Z</time>
        <extensions>
          <ns3:TrackPointExtension>
            <ns3:hr>140</ns3:hr>
            <ns3:cad>51</ns3:cad>
          </ns3:TrackPointExtension>
        </extensions>
      </trkpt>
      <trkpt lat="45.26728145778179168701171875" lon="-71.15267137996852397918701171875">
        <ele>639.20001220703125</ele>
        <time>2026-08-22T03:31:32.000Z</time>
        <extensions>
          <ns3:TrackPointExtension>
            <ns3:hr>139</ns3:hr>
            <ns3:cad>51</ns3:cad>
          </ns3:TrackPointExtension>
        </extensions>
      </trkpt>
      <trkpt lat="45.267284810543060302734375" lon="-71.15269451402127742767333984375">
        <ele>639.4000244140625</ele>
        <time>2026-08-22T03:31:33.000Z</time>
        <extensions>
          <ns3:TrackPointExtension>
            <ns3:hr>139</ns3:hr>
            <ns3:cad>51</ns3:cad>
          </ns3:TrackPointExtension>
        </extensions>
      </trkpt>
      <trkpt lat="45.2672849781811237335205078125" lon="-71.1527140438556671142578125">
        <ele>639.5999755859375</ele>
        <time>2026-08-22T03:31:34.000Z</time>
        <extensions>
          <ns3:TrackPointExtension>
            <ns3:hr>139</ns3:hr>
            <ns3:cad>51</ns3:cad>
          </ns3:TrackPointExtension>
        </extensions>
      </trkpt>
      <trkpt lat="45.26728020049631595611572265625" lon="-71.1527353338897228240966796875">
        <ele>639.79998779296875</ele>
        <time>2026-08-22T03:31:35.000Z</time>
        <extensions>
          <ns3:TrackPointExtension>
            <ns3:hr>139</ns3:hr>
            <ns3:cad>50</ns3:cad>
          </ns3:TrackPointExtension>
        </extensions>
      </trkpt>
      <trkpt lat="45.2672799490392208099365234375" lon="-71.15275855176150798797607421875">
        <ele>640</ele>
        <time>2026-08-22T03:31:36.000Z</time>
        <extensions>
          <ns3:TrackPointExtension>
            <ns3:hr>139</ns3:hr>
            <ns3:cad>50</ns3:cad>
          </ns3:TrackPointExtension>
        </extensions>
      </trkpt>
      <trkpt lat="45.2672796137630939483642578125" lon="-71.1527748964726924896240234375">
        <ele>640.20001220703125</ele>
        <time>2026-08-22T03:31:37.000Z</time>
        <extensions>
          <ns3:TrackPointExtension>
            <ns3:hr>140</ns3:hr>
            <ns3:cad>49</ns3:cad>
          </ns3:TrackPointExtension>
        </extensions>
      </trkpt>
      <trkpt lat="45.2672802843153476715087890625" lon="-71.15279308520257472991943359375">
        <ele>640.4000244140625</ele>
        <time>2026-08-22T03:31:38.000Z</time>
        <extensions>
          <ns3:TrackPointExtension>
            <ns3:hr>140</ns3:hr>
            <ns3:cad>50</ns3:cad>
          </ns3:TrackPointExtension>
        </extensions>
      </trkpt>
      <trkpt lat="45.26728388853371143341064453125" lon="-71.152808926999568939208984375">
        <ele>640.5999755859375</ele>
        <time>2026-08-22T03:31:39.000Z</time>
        <extensions>
          <ns3:TrackPointExtension>
            <ns3:hr>140</ns3:hr>
            <ns3:cad>50</ns3:cad>
          </ns3:TrackPointExtension>
        </extensions>
      </trkpt>
      <trkpt lat="45.26727852411568164825439453125" lon="-71.15282309241592884063720703125">
        <ele>640.79998779296875</ele>
        <time>2026-08-22T03:31:40.000Z</time>
        <extensions>
          <ns3:TrackPointExtension>
            <ns3:hr>140</ns3:hr>
            <ns3:cad>52</ns3:cad>
          </ns3:TrackPointExtension>
        </extensions>
      </trkpt>
      <trkpt lat="45.26727332733571529388427734375" lon="-71.15283817984163761138916015625">
        <ele>640.79998779296875</ele>
        <time>2026-08-22T03:31:41.000Z</time>
        <extensions>
          <ns3:TrackPointExtension>
            <ns3:hr>140</ns3:hr>
            <ns3:cad>52</ns3:cad>
          </ns3:TrackPointExtension>
        </extensions>
      </trkpt>
      <trkpt lat="45.2672719024121761322021484375" lon="-71.15285309962928295135498046875">
        <ele>641</ele>
        <time>2026-08-22T03:31:42.000Z</time>
        <extensions>
          <ns3:TrackPointExtension>
            <ns3:hr>140</ns3:hr>
            <ns3:cad>52</ns3:cad>
          </ns3:TrackPointExtension>
        </extensions>
      </trkpt>
      <trkpt lat="45.26726863346993923187255859375" lon="-71.1528714559972286224365234375">
        <ele>641.20001220703125</ele>
        <time>2026-08-22T03:31:43.000Z</time>
        <extensions>
          <ns3:TrackPointExtension>
            <ns3:hr>140</ns3:hr>
            <ns3:cad>51</ns3:cad>
          </ns3:TrackPointExtension>
        </extensions>
      </trkpt>
      <trkpt lat="45.2672665379941463470458984375" lon="-71.1528868786990642547607421875">
        <ele>641.4000244140625</ele>
        <time>2026-08-22T03:31:44.000Z</time>
        <extensions>
          <ns3:TrackPointExtension>
            <ns3:hr>141</ns3:hr>
            <ns3:cad>51</ns3:cad>
          </ns3:TrackPointExtension>
        </extensions>
      </trkpt>
      <trkpt lat="45.26726209558546543121337890625" lon="-71.152900792658329010009765625">
        <ele>641.5999755859375</ele>
        <time>2026-08-22T03:31:45.000Z</time>
        <extensions>
          <ns3:TrackPointExtension>
            <ns3:hr>141</ns3:hr>
            <ns3:cad>51</ns3:cad>
          </ns3:TrackPointExtension>
        </extensions>
      </trkpt>
      <trkpt lat="45.26726025156676769256591796875" lon="-71.15291814319789409637451171875">
        <ele>641.5999755859375</ele>
        <time>2026-08-22T03:31:46.000Z</time>
        <extensions>
          <ns3:TrackPointExtension>
            <ns3:hr>141</ns3:hr>
            <ns3:cad>51</ns3:cad>
          </ns3:TrackPointExtension>
        </extensions>
      </trkpt>
      <trkpt lat="45.26725731790065765380859375" lon="-71.1529401876032352447509765625">
        <ele>641.79998779296875</ele>
        <time>2026-08-22T03:31:47.000Z</time>
        <extensions>
          <ns3:TrackPointExtension>
            <ns3:hr>141</ns3:hr>
            <ns3:cad>51</ns3:cad>
          </ns3:TrackPointExtension>
        </extensions>
      </trkpt>
      <trkpt lat="45.2672551386058330535888671875" lon="-71.15296122618019580841064453125">
        <ele>642</ele>
        <time>2026-08-22T03:31:48.000Z</time>
        <extensions>
          <ns3:TrackPointExtension>
            <ns3:hr>141</ns3:hr>
            <ns3:cad>51</ns3:cad>
          </ns3:TrackPointExtension>
        </extensions>
      </trkpt>
      <trkpt lat="45.2672537975013256072998046875" lon="-71.15298050455749034881591796875">
        <ele>642.20001220703125</ele>
        <time>2026-08-22T03:31:49.000Z</time>
        <extensions>
          <ns3:TrackPointExtension>
            <ns3:hr>141</ns3:hr>
            <ns3:cad>51</ns3:cad>
          </ns3:TrackPointExtension>
        </extensions>
      </trkpt>
      <trkpt lat="45.2672554738819599151611328125" lon="-71.153001375496387481689453125">
        <ele>642.4000244140625</ele>
        <time>2026-08-22T03:31:50.000Z</time>
        <extensions>
          <ns3:TrackPointExtension>
            <ns3:hr>141</ns3:hr>
            <ns3:cad>51</ns3:cad>
          </ns3:TrackPointExtension>
        </extensions>
      </trkpt>
      <trkpt lat="45.2672539651393890380859375" lon="-71.153018809854984283447265625">
        <ele>642.5999755859375</ele>
        <time>2026-08-22T03:31:51.000Z</time>
        <extensions>
          <ns3:TrackPointExtension>
            <ns3:hr>141</ns3:hr>
            <ns3:cad>51</ns3:cad>
          </ns3:TrackPointExtension>
        </extensions>
      </trkpt>
      <trkpt lat="45.2672554738819599151611328125" lon="-71.1530359089374542236328125">
        <ele>642.5999755859375</ele>
        <time>2026-08-22T03:31:52.000Z</time>
        <extensions>
          <ns3:TrackPointExtension>
            <ns3:hr>141</ns3:hr>
            <ns3:cad>51</ns3:cad>
          </ns3:TrackPointExtension>
        </extensions>
      </trkpt>
      <trkpt lat="45.26725731790065765380859375" lon="-71.15305258892476558685302734375">
        <ele>642.79998779296875</ele>
        <time>2026-08-22T03:31:53.000Z</time>
        <extensions>
          <ns3:TrackPointExtension>
            <ns3:hr>141</ns3:hr>
            <ns3:cad>51</ns3:cad>
          </ns3:TrackPointExtension>
        </extensions>
      </trkpt>
      <trkpt lat="45.267257988452911376953125" lon="-71.153070442378520965576171875">
        <ele>643</ele>
        <time>2026-08-22T03:31:54.000Z</time>
        <extensions>
          <ns3:TrackPointExtension>
            <ns3:hr>141</ns3:hr>
            <ns3:cad>51</ns3:cad>
          </ns3:TrackPointExtension>
        </extensions>
      </trkpt>
      <trkpt lat="45.26725857518613338470458984375" lon="-71.153091900050640106201171875">
        <ele>643.20001220703125</ele>
        <time>2026-08-22T03:31:55.000Z</time>
        <extensions>
          <ns3:TrackPointExtension>
            <ns3:hr>141</ns3:hr>
            <ns3:cad>51</ns3:cad>
          </ns3:TrackPointExtension>
        </extensions>
      </trkpt>
      <trkpt lat="45.26725807227194309234619140625" lon="-71.15311763249337673187255859375">
        <ele>643.4000244140625</ele>
        <time>2026-08-22T03:31:56.000Z</time>
        <extensions>
          <ns3:TrackPointExtension>
            <ns3:hr>142</ns3:hr>
            <ns3:cad>51</ns3:cad>
          </ns3:TrackPointExtension>
        </extensions>
      </trkpt>
      <trkpt lat="45.267258994281291961669921875" lon="-71.1531403474509716033935546875">
        <ele>643.4000244140625</ele>
        <time>2026-08-22T03:31:57.000Z</time>
        <extensions>
          <ns3:TrackPointExtension>
            <ns3:hr>142</ns3:hr>
            <ns3:cad>52</ns3:cad>
          </ns3:TrackPointExtension>
        </extensions>
      </trkpt>
      <trkpt lat="45.267257988452911376953125" lon="-71.15316038019955158233642578125">
        <ele>643.5999755859375</ele>
        <time>2026-08-22T03:31:58.000Z</time>
        <extensions>
          <ns3:TrackPointExtension>
            <ns3:hr>142</ns3:hr>
            <ns3:cad>52</ns3:cad>
          </ns3:TrackPointExtension>
        </extensions>
      </trkpt>
      <trkpt lat="45.2672564797103404998779296875" lon="-71.15318301133811473846435546875">
        <ele>643.79998779296875</ele>
        <time>2026-08-22T03:31:59.000Z</time>
        <extensions>
          <ns3:TrackPointExtension>
            <ns3:hr>142</ns3:hr>
            <ns3:cad>52</ns3:cad>
          </ns3:TrackPointExtension>
        </extensions>
      </trkpt>
      <trkpt lat="45.267253629863262176513671875" lon="-71.15319709293544292449951171875">
        <ele>643.79998779296875</ele>
        <time>2026-08-22T03:32:00.000Z</time>
        <extensions>
          <ns3:TrackPointExtension>
            <ns3:hr>142</ns3:hr>
            <ns3:cad>51</ns3:cad>
          </ns3:TrackPointExtension>
        </extensions>
      </trkpt>
      <trkpt lat="45.2672566473484039306640625" lon="-71.153214275836944580078125">
        <ele>644</ele>
        <time>2026-08-22T03:32:01.000Z</time>
        <extensions>
          <ns3:TrackPointExtension>
            <ns3:hr>143</ns3:hr>
            <ns3:cad>52</ns3:cad>
          </ns3:TrackPointExtension>
        </extensions>
      </trkpt>
      <trkpt lat="45.2672548033297061920166015625" lon="-71.15323246456682682037353515625">
        <ele>644</ele>
        <time>2026-08-22T03:32:02.000Z</time>
        <extensions>
          <ns3:TrackPointExtension>
            <ns3:hr>143</ns3:hr>
            <ns3:cad>52</ns3:cad>
          </ns3:TrackPointExtension>
        </extensions>
      </trkpt>
      <trkpt lat="45.267252624034881591796875" lon="-71.1532550118863582611083984375">
        <ele>644.20001220703125</ele>
        <time>2026-08-22T03:32:03.000Z</time>
        <extensions>
          <ns3:TrackPointExtension>
            <ns3:hr>143</ns3:hr>
            <ns3:cad>52</ns3:cad>
          </ns3:TrackPointExtension>
        </extensions>
      </trkpt>
      <trkpt lat="45.26725572533905506134033203125" lon="-71.15327856503427028656005859375">
        <ele>644.20001220703125</ele>
        <time>2026-08-22T03:32:04.000Z</time>
        <extensions>
          <ns3:TrackPointExtension>
            <ns3:hr>144</ns3:hr>
            <ns3:cad>52</ns3:cad>
          </ns3:TrackPointExtension>
        </extensions>
      </trkpt>
      <trkpt lat="45.2672564797103404998779296875" lon="-71.1533049680292606353759765625">
        <ele>644.4000244140625</ele>
        <time>2026-08-22T03:32:05.000Z</time>
        <extensions>
          <ns3:TrackPointExtension>
            <ns3:hr>144</ns3:hr>
            <ns3:cad>52</ns3:cad>
          </ns3:TrackPointExtension>
        </extensions>
      </trkpt>
      <trkpt lat="45.2672581560909748077392578125" lon="-71.1533274315297603607177734375">
        <ele>644.5999755859375</ele>
        <time>2026-08-22T03:32:06.000Z</time>
        <extensions>
          <ns3:TrackPointExtension>
            <ns3:hr>144</ns3:hr>
            <ns3:cad>52</ns3:cad>
          </ns3:TrackPointExtension>
        </extensions>
      </trkpt>
      <trkpt lat="45.26725823991000652313232421875" lon="-71.153346039354801177978515625">
        <ele>644.5999755859375</ele>
        <time>2026-08-22T03:32:07.000Z</time>
        <extensions>
          <ns3:TrackPointExtension>
            <ns3:hr>144</ns3:hr>
            <ns3:cad>52</ns3:cad>
          </ns3:TrackPointExtension>
        </extensions>
      </trkpt>
      <trkpt lat="45.2672561444342136383056640625" lon="-71.1533658206462860107421875">
        <ele>644.79998779296875</ele>
        <time>2026-08-22T03:32:08.000Z</time>
        <extensions>
          <ns3:TrackPointExtension>
            <ns3:hr>143</ns3:hr>
            <ns3:cad>52</ns3:cad>
          </ns3:TrackPointExtension>
        </extensions>
      </trkpt>
      <trkpt lat="45.26725606061518192291259765625" lon="-71.15338317118585109710693359375">
        <ele>644.79998779296875</ele>
        <time>2026-08-22T03:32:09.000Z</time>
        <extensions>
          <ns3:TrackPointExtension>
            <ns3:hr>143</ns3:hr>
            <ns3:cad>53</ns3:cad>
          </ns3:TrackPointExtension>
        </extensions>
      </trkpt>
      <trkpt lat="45.2672558091580867767333984375" lon="-71.1534018628299236297607421875">
        <ele>644.79998779296875</ele>
        <time>2026-08-22T03:32:10.000Z</time>
        <extensions>
          <ns3:TrackPointExtension>
            <ns3:hr>142</ns3:hr>
            <ns3:cad>53</ns3:cad>
          </ns3:TrackPointExtension>
        </extensions>
      </trkpt>
      <trkpt lat="45.26725689880549907684326171875" lon="-71.15342290140688419342041015625">
        <ele>645</ele>
        <time>2026-08-22T03:32:11.000Z</time>
        <extensions>
          <ns3:TrackPointExtension>
            <ns3:hr>142</ns3:hr>
            <ns3:cad>52</ns3:cad>
          </ns3:TrackPointExtension>
        </extensions>
      </trkpt>
      <trkpt lat="45.267257988452911376953125" lon="-71.15344033576548099517822265625">
        <ele>645</ele>
        <time>2026-08-22T03:32:12.000Z</time>
        <extensions>
          <ns3:TrackPointExtension>
            <ns3:hr>141</ns3:hr>
            <ns3:cad>51</ns3:cad>
          </ns3:TrackPointExtension>
        </extensions>
      </trkpt>
      <trkpt lat="45.26725790463387966156005859375" lon="-71.1534568481147289276123046875">
        <ele>645.20001220703125</ele>
        <time>2026-08-22T03:32:13.000Z</time>
        <extensions>
          <ns3:TrackPointExtension>
            <ns3:hr>141</ns3:hr>
            <ns3:cad>51</ns3:cad>
          </ns3:TrackPointExtension>
        </extensions>
      </trkpt>
      <trkpt lat="45.26725857518613338470458984375" lon="-71.15347285754978656768798828125">
        <ele>645.20001220703125</ele>
        <time>2026-08-22T03:32:14.000Z</time>
        <extensions>
          <ns3:TrackPointExtension>
            <ns3:hr>141</ns3:hr>
            <ns3:cad>52</ns3:cad>
          </ns3:TrackPointExtension>
        </extensions>
      </trkpt>
      <trkpt lat="45.267258994281291961669921875" lon="-71.15348744206130504608154296875">
        <ele>645.4000244140625</ele>
        <time>2026-08-22T03:32:15.000Z</time>
        <extensions>
          <ns3:TrackPointExtension>
            <ns3:hr>140</ns3:hr>
            <ns3:cad>52</ns3:cad>
          </ns3:TrackPointExtension>
        </extensions>
      </trkpt>
      <trkpt lat="45.26725958101451396942138671875" lon="-71.15350588224828243255615234375">
        <ele>645.5999755859375</ele>
        <time>2026-08-22T03:32:16.000Z</time>
        <extensions>
          <ns3:TrackPointExtension>
            <ns3:hr>140</ns3:hr>
            <ns3:cad>52</ns3:cad>
          </ns3:TrackPointExtension>
        </extensions>
      </trkpt>
      <trkpt lat="45.2672598324716091156005859375" lon="-71.15351946093142032623291015625">
        <ele>645.79998779296875</ele>
        <time>2026-08-22T03:32:17.000Z</time>
        <extensions>
          <ns3:TrackPointExtension>
            <ns3:hr>140</ns3:hr>
            <ns3:cad>52</ns3:cad>
          </ns3:TrackPointExtension>
        </extensions>
      </trkpt>
      <trkpt lat="45.26725438423454761505126953125" lon="-71.1535376496613025665283203125">
        <ele>646</ele>
        <time>2026-08-22T03:32:18.000Z</time>
        <extensions>
          <ns3:TrackPointExtension>
            <ns3:hr>139</ns3:hr>
            <ns3:cad>49</ns3:cad>
          </ns3:TrackPointExtension>
        </extensions>
      </trkpt>
      <trkpt lat="45.2672581560909748077392578125" lon="-71.15355785004794597625732421875">
        <ele>646.20001220703125</ele>
        <time>2026-08-22T03:32:19.000Z</time>
        <extensions>
          <ns3:TrackPointExtension>
            <ns3:hr>139</ns3:hr>
            <ns3:cad>49</ns3:cad>
          </ns3:TrackPointExtension>
        </extensions>
      </trkpt>
      <trkpt lat="45.2672588266432285308837890625" lon="-71.15357662551105022430419921875">
        <ele>646.4000244140625</ele>
        <time>2026-08-22T03:32:20.000Z</time>
        <extensions>
          <ns3:TrackPointExtension>
            <ns3:hr>139</ns3:hr>
            <ns3:cad>49</ns3:cad>
          </ns3:TrackPointExtension>
        </extensions>
      </trkpt>
      <trkpt lat="45.26726067066192626953125" lon="-71.15359573625028133392333984375">
        <ele>646.5999755859375</ele>
        <time>2026-08-22T03:32:21.000Z</time>
        <extensions>
          <ns3:TrackPointExtension>
            <ns3:hr>139</ns3:hr>
            <ns3:cad>51</ns3:cad>
          </ns3:TrackPointExtension>
        </extensions>
      </trkpt>
      <trkpt lat="45.2672635205090045928955078125" lon="-71.1536099016666412353515625">
        <ele>646.5999755859375</ele>
        <time>2026-08-22T03:32:22.000Z</time>
        <extensions>
          <ns3:TrackPointExtension>
            <ns3:hr>138</ns3:hr>
            <ns3:cad>51</ns3:cad>
          </ns3:TrackPointExtension>
        </extensions>
      </trkpt>
      <trkpt lat="45.2672618441283702850341796875" lon="-71.1536264978349208831787109375">
        <ele>646.5999755859375</ele>
        <time>2026-08-22T03:32:23.000Z</time>
        <extensions>
          <ns3:TrackPointExtension>
            <ns3:hr>138</ns3:hr>
            <ns3:cad>54</ns3:cad>
          </ns3:TrackPointExtension>
        </extensions>
      </trkpt>
      <trkpt lat="45.267262347042560577392578125" lon="-71.15363680757582187652587890625">
        <ele>646.79998779296875</ele>
        <time>2026-08-22T03:32:24.000Z</time>
        <extensions>
          <ns3:TrackPointExtension>
            <ns3:hr>138</ns3:hr>
            <ns3:cad>54</ns3:cad>
          </ns3:TrackPointExtension>
        </extensions>
      </trkpt>
      <trkpt lat="45.26726142503321170806884765625" lon="-71.15364837460219860076904296875">
        <ele>646.79998779296875</ele>
        <time>2026-08-22T03:32:25.000Z</time>
        <extensions>
          <ns3:TrackPointExtension>
            <ns3:hr>138</ns3:hr>
            <ns3:cad>53</ns3:cad>
          </ns3:TrackPointExtension>
        </extensions>
      </trkpt>
      <trkpt lat="45.26725773699581623077392578125" lon="-71.15366631187498569488525390625">
        <ele>647</ele>
        <time>2026-08-22T03:32:26.000Z</time>
        <extensions>
          <ns3:TrackPointExtension>
            <ns3:hr>138</ns3:hr>
            <ns3:cad>53</ns3:cad>
          </ns3:TrackPointExtension>
        </extensions>
      </trkpt>
      <trkpt lat="45.26725840754806995391845703125" lon="-71.153680644929409027099609375">
        <ele>647.20001220703125</ele>
        <time>2026-08-22T03:32:27.000Z</time>
        <extensions>
          <ns3:TrackPointExtension>
            <ns3:hr>138</ns3:hr>
            <ns3:cad>53</ns3:cad>
          </ns3:TrackPointExtension>
        </extensions>
      </trkpt>
      <trkpt lat="45.267262347042560577392578125" lon="-71.15369531325995922088623046875">
        <ele>647.4000244140625</ele>
        <time>2026-08-22T03:32:28.000Z</time>
        <extensions>
          <ns3:TrackPointExtension>
            <ns3:hr>138</ns3:hr>
            <ns3:cad>52</ns3:cad>
          </ns3:TrackPointExtension>
        </extensions>
      </trkpt>
      <trkpt lat="45.26726410724222660064697265625" lon="-71.153711490333080291748046875">
        <ele>647.5999755859375</ele>
        <time>2026-08-22T03:32:29.000Z</time>
        <extensions>
          <ns3:TrackPointExtension>
            <ns3:hr>138</ns3:hr>
            <ns3:cad>52</ns3:cad>
          </ns3:TrackPointExtension>
        </extensions>
      </trkpt>
      <trkpt lat="45.26726662181317806243896484375" lon="-71.153729595243930816650390625">
        <ele>647.5999755859375</ele>
        <time>2026-08-22T03:32:30.000Z</time>
        <extensions>
          <ns3:TrackPointExtension>
            <ns3:hr>138</ns3:hr>
            <ns3:cad>52</ns3:cad>
          </ns3:TrackPointExtension>
        </extensions>
      </trkpt>
      <trkpt lat="45.2672678790986537933349609375" lon="-71.15374610759317874908447265625">
        <ele>647.79998779296875</ele>
        <time>2026-08-22T03:32:31.000Z</time>
        <extensions>
          <ns3:TrackPointExtension>
            <ns3:hr>138</ns3:hr>
            <ns3:cad>52</ns3:cad>
          </ns3:TrackPointExtension>
        </extensions>
      </trkpt>
      <trkpt lat="45.26726863346993923187255859375" lon="-71.1537676490843296051025390625">
        <ele>648</ele>
        <time>2026-08-22T03:32:32.000Z</time>
        <extensions>
          <ns3:TrackPointExtension>
            <ns3:hr>138</ns3:hr>
            <ns3:cad>52</ns3:cad>
          </ns3:TrackPointExtension>
        </extensions>
      </trkpt>
      <trkpt lat="45.26726980693638324737548828125" lon="-71.15379036404192447662353515625">
        <ele>648.20001220703125</ele>
        <time>2026-08-22T03:32:33.000Z</time>
        <extensions>
          <ns3:TrackPointExtension>
            <ns3:hr>138</ns3:hr>
            <ns3:cad>51</ns3:cad>
          </ns3:TrackPointExtension>
        </extensions>
      </trkpt>
      <trkpt lat="45.26727341115474700927734375" lon="-71.15381215699017047882080078125">
        <ele>648.20001220703125</ele>
        <time>2026-08-22T03:32:34.000Z</time>
        <extensions>
          <ns3:TrackPointExtension>
            <ns3:hr>140</ns3:hr>
            <ns3:cad>51</ns3:cad>
          </ns3:TrackPointExtension>
        </extensions>
      </trkpt>
      <trkpt lat="45.26726712472736835479736328125" lon="-71.1538353748619556427001953125">
        <ele>648.4000244140625</ele>
        <time>2026-08-22T03:32:35.000Z</time>
        <extensions>
          <ns3:TrackPointExtension>
            <ns3:hr>140</ns3:hr>
            <ns3:cad>51</ns3:cad>
          </ns3:TrackPointExtension>
        </extensions>
      </trkpt>
      <trkpt lat="45.26726561598479747772216796875" lon="-71.15385926328599452972412109375">
        <ele>648.5999755859375</ele>
        <time>2026-08-22T03:32:36.000Z</time>
        <extensions>
          <ns3:TrackPointExtension>
            <ns3:hr>140</ns3:hr>
            <ns3:cad>51</ns3:cad>
          </ns3:TrackPointExtension>
        </extensions>
      </trkpt>
      <trkpt lat="45.2672705613076686859130859375" lon="-71.1538843251764774322509765625">
        <ele>648.79998779296875</ele>
        <time>2026-08-22T03:32:37.000Z</time>
        <extensions>
          <ns3:TrackPointExtension>
            <ns3:hr>140</ns3:hr>
            <ns3:cad>51</ns3:cad>
          </ns3:TrackPointExtension>
        </extensions>
      </trkpt>
      <trkpt lat="45.26726997457444667816162109375" lon="-71.153909973800182342529296875">
        <ele>649</ele>
        <time>2026-08-22T03:32:38.000Z</time>
        <extensions>
          <ns3:TrackPointExtension>
            <ns3:hr>140</ns3:hr>
            <ns3:cad>51</ns3:cad>
          </ns3:TrackPointExtension>
        </extensions>
      </trkpt>
      <trkpt lat="45.2672725729644298553466796875" lon="-71.153935454785823822021484375">
        <ele>649.20001220703125</ele>
        <time>2026-08-22T03:32:39.000Z</time>
        <extensions>
          <ns3:TrackPointExtension>
            <ns3:hr>141</ns3:hr>
            <ns3:cad>51</ns3:cad>
          </ns3:TrackPointExtension>
        </extensions>
      </trkpt>
      <trkpt lat="45.2672739140689373016357421875" lon="-71.1539587564766407012939453125">
        <ele>649.4000244140625</ele>
        <time>2026-08-22T03:32:40.000Z</time>
        <extensions>
          <ns3:TrackPointExtension>
            <ns3:hr>140</ns3:hr>
            <ns3:cad>0</ns3:cad>
          </ns3:TrackPointExtension>
        </extensions>
      </trkpt>
      <trkpt lat="45.2672749198973178863525390625" lon="-71.15398432128131389617919921875">
        <ele>649.79998779296875</ele>
        <time>2026-08-22T03:32:41.000Z</time>
        <extensions>
          <ns3:TrackPointExtension>
            <ns3:hr>140</ns3:hr>
            <ns3:cad>0</ns3:cad>
          </ns3:TrackPointExtension>
        </extensions>
      </trkpt>
      <trkpt lat="45.2672722376883029937744140625" lon="-71.15400619804859161376953125">
        <ele>650</ele>
        <time>2026-08-22T03:32:42.000Z</time>
        <extensions>
          <ns3:TrackPointExtension>
            <ns3:hr>140</ns3:hr>
            <ns3:cad>0</ns3:cad>
          </ns3:TrackPointExtension>
        </extensions>
      </trkpt>
      <trkpt lat="45.26726813055574893951416015625" lon="-71.15403260104358196258544921875">
        <ele>650.20001220703125</ele>
        <time>2026-08-22T03:32:43.000Z</time>
        <extensions>
          <ns3:TrackPointExtension>
            <ns3:hr>141</ns3:hr>
            <ns3:cad>0</ns3:cad>
          </ns3:TrackPointExtension>
        </extensions>
      </trkpt>
      <trkpt lat="45.2672660350799560546875" lon="-71.15405757911503314971923828125">
        <ele>650.4000244140625</ele>
        <time>2026-08-22T03:32:44.000Z</time>
        <extensions>
          <ns3:TrackPointExtension>
            <ns3:hr>140</ns3:hr>
            <ns3:cad>0</ns3:cad>
          </ns3:TrackPointExtension>
        </extensions>
      </trkpt>
      <trkpt lat="45.26726578362286090850830078125" lon="-71.15408088080585002899169921875">
        <ele>650.5999755859375</ele>
        <time>2026-08-22T03:32:45.000Z</time>
        <extensions>
          <ns3:TrackPointExtension>
            <ns3:hr>140</ns3:hr>
            <ns3:cad>0</ns3:cad>
          </ns3:TrackPointExtension>
        </extensions>
      </trkpt>
      <trkpt lat="45.26726662181317806243896484375" lon="-71.15409848280251026153564453125">
        <ele>650.79998779296875</ele>
        <time>2026-08-22T03:32:46.000Z</time>
        <extensions>
          <ns3:TrackPointExtension>
            <ns3:hr>141</ns3:hr>
            <ns3:cad>0</ns3:cad>
          </ns3:TrackPointExtension>
        </extensions>
      </trkpt>
      <trkpt lat="45.26726628653705120086669921875" lon="-71.1541139893233776092529296875">
        <ele>651</ele>
        <time>2026-08-22T03:32:47.000Z</time>
        <extensions>
          <ns3:TrackPointExtension>
            <ns3:hr>141</ns3:hr>
            <ns3:cad>0</ns3:cad>
          </ns3:TrackPointExtension>
        </extensions>
      </trkpt>
      <trkpt lat="45.26726938784122467041015625" lon="-71.1541341058909893035888671875">
        <ele>651</ele>
        <time>2026-08-22T03:32:48.000Z</time>
        <extensions>
          <ns3:TrackPointExtension>
            <ns3:hr>140</ns3:hr>
            <ns3:cad>0</ns3:cad>
          </ns3:TrackPointExtension>
        </extensions>
      </trkpt>
      <trkpt lat="45.26727064512670040130615234375" lon="-71.1541525460779666900634765625">
        <ele>651.20001220703125</ele>
        <time>2026-08-22T03:32:49.000Z</time>
        <extensions>
          <ns3:TrackPointExtension>
            <ns3:hr>141</ns3:hr>
            <ns3:cad>0</ns3:cad>
          </ns3:TrackPointExtension>
        </extensions>
      </trkpt>
      <trkpt lat="45.26727131567895412445068359375" lon="-71.1541669629514217376708984375">
        <ele>651.4000244140625</ele>
        <time>2026-08-22T03:32:50.000Z</time>
        <extensions>
          <ns3:TrackPointExtension>
            <ns3:hr>141</ns3:hr>
            <ns3:cad>0</ns3:cad>
          </ns3:TrackPointExtension>
        </extensions>
      </trkpt>
      <trkpt lat="45.2672732435166835784912109375" lon="-71.15418590605258941650390625">
        <ele>651.4000244140625</ele>
        <time>2026-08-22T03:32:51.000Z</time>
        <extensions>
          <ns3:TrackPointExtension>
            <ns3:hr>140</ns3:hr>
            <ns3:cad>0</ns3:cad>
          </ns3:TrackPointExtension>
        </extensions>
      </trkpt>
      <trkpt lat="45.26727483607828617095947265625" lon="-71.15420828573405742645263671875">
        <ele>651.5999755859375</ele>
        <time>2026-08-22T03:32:52.000Z</time>
        <extensions>
          <ns3:TrackPointExtension>
            <ns3:hr>141</ns3:hr>
            <ns3:cad>0</ns3:cad>
          </ns3:TrackPointExtension>
        </extensions>
      </trkpt>
      <trkpt lat="45.267271064221858978271484375" lon="-71.154229156672954559326171875">
        <ele>651.79998779296875</ele>
        <time>2026-08-22T03:32:53.000Z</time>
        <extensions>
          <ns3:TrackPointExtension>
            <ns3:hr>141</ns3:hr>
            <ns3:cad>52</ns3:cad>
          </ns3:TrackPointExtension>
        </extensions>
      </trkpt>
      <trkpt lat="45.26726980693638324737548828125" lon="-71.154250614345073699951171875">
        <ele>652</ele>
        <time>2026-08-22T03:32:54.000Z</time>
        <extensions>
          <ns3:TrackPointExtension>
            <ns3:hr>140</ns3:hr>
            <ns3:cad>52</ns3:cad>
          </ns3:TrackPointExtension>
        </extensions>
      </trkpt>
      <trkpt lat="45.2672715671360492706298828125" lon="-71.1542695574462413787841796875">
        <ele>652.20001220703125</ele>
        <time>2026-08-22T03:32:55.000Z</time>
        <extensions>
          <ns3:TrackPointExtension>
            <ns3:hr>141</ns3:hr>
            <ns3:cad>52</ns3:cad>
          </ns3:TrackPointExtension>
        </extensions>
      </trkpt>
      <trkpt lat="45.26727475225925445556640625" lon="-71.1542876623570919036865234375">
        <ele>652.4000244140625</ele>
        <time>2026-08-22T03:32:56.000Z</time>
        <extensions>
          <ns3:TrackPointExtension>
            <ns3:hr>140</ns3:hr>
            <ns3:cad>52</ns3:cad>
          </ns3:TrackPointExtension>
        </extensions>
      </trkpt>
      <trkpt lat="45.26727383024990558624267578125" lon="-71.1543064378201961517333984375">
        <ele>652.5999755859375</ele>
        <time>2026-08-22T03:32:57.000Z</time>
        <extensions>
          <ns3:TrackPointExtension>
            <ns3:hr>140</ns3:hr>
            <ns3:cad>51</ns3:cad>
          </ns3:TrackPointExtension>
        </extensions>
      </trkpt>
      <trkpt lat="45.26727466844022274017333984375" lon="-71.1543255485594272613525390625">
        <ele>652.5999755859375</ele>
        <time>2026-08-22T03:32:58.000Z</time>
        <extensions>
          <ns3:TrackPointExtension>
            <ns3:hr>140</ns3:hr>
            <ns3:cad>51</ns3:cad>
          </ns3:TrackPointExtension>
        </extensions>
      </trkpt>
      <trkpt lat="45.267277099192142486572265625" lon="-71.1543446592986583709716796875">
        <ele>652.79998779296875</ele>
        <time>2026-08-22T03:32:59.000Z</time>
        <extensions>
          <ns3:TrackPointExtension>
            <ns3:hr>140</ns3:hr>
            <ns3:cad>52</ns3:cad>
          </ns3:TrackPointExtension>
        </extensions>
      </trkpt>
      <trkpt lat="45.26728003285825252532958984375" lon="-71.1543647758662700653076171875">
        <ele>653</ele>
        <time>2026-08-22T03:33:00.000Z</time>
        <extensions>
          <ns3:TrackPointExtension>
            <ns3:hr>140</ns3:hr>
            <ns3:cad>52</ns3:cad>
          </ns3:TrackPointExtension>
        </extensions>
      </trkpt>
      <trkpt lat="45.26727919466793537139892578125" lon="-71.15438564680516719818115234375">
        <ele>653.20001220703125</ele>
        <time>2026-08-22T03:33:01.000Z</time>
        <extensions>
          <ns3:TrackPointExtension>
            <ns3:hr>140</ns3:hr>
            <ns3:cad>52</ns3:cad>
          </ns3:TrackPointExtension>
        </extensions>
      </trkpt>
      <trkpt lat="45.26727936230599880218505859375" lon="-71.15440526045858860015869140625">
        <ele>653.4000244140625</ele>
        <time>2026-08-22T03:33:02.000Z</time>
        <extensions>
          <ns3:TrackPointExtension>
            <ns3:hr>140</ns3:hr>
            <ns3:cad>52</ns3:cad>
          </ns3:TrackPointExtension>
        </extensions>
      </trkpt>
      <trkpt lat="45.267284810543060302734375" lon="-71.1544231139123439788818359375">
        <ele>653.5999755859375</ele>
        <time>2026-08-22T03:33:03.000Z</time>
        <extensions>
          <ns3:TrackPointExtension>
            <ns3:hr>140</ns3:hr>
            <ns3:cad>52</ns3:cad>
          </ns3:TrackPointExtension>
        </extensions>
      </trkpt>
      <trkpt lat="45.26728548109531402587890625" lon="-71.15443979389965534210205078125">
        <ele>653.79998779296875</ele>
        <time>2026-08-22T03:33:04.000Z</time>
        <extensions>
          <ns3:TrackPointExtension>
            <ns3:hr>140</ns3:hr>
            <ns3:cad>51</ns3:cad>
          </ns3:TrackPointExtension>
        </extensions>
      </trkpt>
      <trkpt lat="45.2672846429049968719482421875" lon="-71.15445605479180812835693359375">
        <ele>654</ele>
        <time>2026-08-22T03:33:05.000Z</time>
        <extensions>
          <ns3:TrackPointExtension>
            <ns3:hr>140</ns3:hr>
            <ns3:cad>51</ns3:cad>
          </ns3:TrackPointExtension>
        </extensions>
      </trkpt>
      <trkpt lat="45.267284475266933441162109375" lon="-71.154477931559085845947265625">
        <ele>654.20001220703125</ele>
        <time>2026-08-22T03:33:06.000Z</time>
        <extensions>
          <ns3:TrackPointExtension>
            <ns3:hr>140</ns3:hr>
            <ns3:cad>51</ns3:cad>
          </ns3:TrackPointExtension>
        </extensions>
      </trkpt>
      <trkpt lat="45.267284810543060302734375" lon="-71.15449436008930206298828125">
        <ele>654.4000244140625</ele>
        <time>2026-08-22T03:33:07.000Z</time>
        <extensions>
          <ns3:TrackPointExtension>
            <ns3:hr>140</ns3:hr>
            <ns3:cad>51</ns3:cad>
          </ns3:TrackPointExtension>
        </extensions>
      </trkpt>
      <trkpt lat="45.26728657074272632598876953125" lon="-71.15450986661016941070556640625">
        <ele>654.5999755859375</ele>
        <time>2026-08-22T03:33:08.000Z</time>
        <extensions>
          <ns3:TrackPointExtension>
            <ns3:hr>140</ns3:hr>
            <ns3:cad>51</ns3:cad>
          </ns3:TrackPointExtension>
        </extensions>
      </trkpt>
      <trkpt lat="45.26728724129498004913330078125" lon="-71.154530234634876251220703125">
        <ele>654.79998779296875</ele>
        <time>2026-08-22T03:33:09.000Z</time>
        <extensions>
          <ns3:TrackPointExtension>
            <ns3:hr>140</ns3:hr>
            <ns3:cad>50</ns3:cad>
          </ns3:TrackPointExtension>
        </extensions>
      </trkpt>
      <trkpt lat="45.267282463610172271728515625" lon="-71.154544986784458160400390625">
        <ele>655</ele>
        <time>2026-08-22T03:33:10.000Z</time>
        <extensions>
          <ns3:TrackPointExtension>
            <ns3:hr>140</ns3:hr>
            <ns3:cad>50</ns3:cad>
          </ns3:TrackPointExtension>
        </extensions>
      </trkpt>
      <trkpt lat="45.26728212833404541015625" lon="-71.15456015802919864654541015625">
        <ele>655.20001220703125</ele>
        <time>2026-08-22T03:33:11.000Z</time>
        <extensions>
          <ns3:TrackPointExtension>
            <ns3:hr>140</ns3:hr>
            <ns3:cad>51</ns3:cad>
          </ns3:TrackPointExtension>
        </extensions>
      </trkpt>
      <trkpt lat="45.2672826312482357025146484375" lon="-71.15458421409130096435546875">
        <ele>655.4000244140625</ele>
        <time>2026-08-22T03:33:12.000Z</time>
        <extensions>
          <ns3:TrackPointExtension>
            <ns3:hr>140</ns3:hr>
            <ns3:cad>51</ns3:cad>
          </ns3:TrackPointExtension>
        </extensions>
      </trkpt>
      <trkpt lat="45.2672802843153476715087890625" lon="-71.15459628403186798095703125">
        <ele>655.5999755859375</ele>
        <time>2026-08-22T03:33:13.000Z</time>
        <extensions>
          <ns3:TrackPointExtension>
            <ns3:hr>140</ns3:hr>
            <ns3:cad>51</ns3:cad>
          </ns3:TrackPointExtension>
        </extensions>
      </trkpt>
      <trkpt lat="45.2672755904495716094970703125" lon="-71.1546128802001476287841796875">
        <ele>655.79998779296875</ele>
        <time>2026-08-22T03:33:14.000Z</time>
        <extensions>
          <ns3:TrackPointExtension>
            <ns3:hr>140</ns3:hr>
            <ns3:cad>51</ns3:cad>
          </ns3:TrackPointExtension>
        </extensions>
      </trkpt>
      <trkpt lat="45.26727433316409587860107421875" lon="-71.15462553687393665313720703125">
        <ele>656</ele>
        <time>2026-08-22T03:33:15.000Z</time>
        <extensions>
          <ns3:TrackPointExtension>
            <ns3:hr>140</ns3:hr>
            <ns3:cad>51</ns3:cad>
          </ns3:TrackPointExtension>
        </extensions>
      </trkpt>
      <trkpt lat="45.26727550663053989410400390625" lon="-71.15463827736675739288330078125">
        <ele>656</ele>
        <time>2026-08-22T03:33:16.000Z</time>
        <extensions>
          <ns3:TrackPointExtension>
            <ns3:hr>140</ns3:hr>
            <ns3:cad>51</ns3:cad>
          </ns3:TrackPointExtension>
        </extensions>
      </trkpt>
      <trkpt lat="45.26727609336376190185546875" lon="-71.15465235896408557891845703125">
        <ele>656.4000244140625</ele>
        <time>2026-08-22T03:33:17.000Z</time>
        <extensions>
          <ns3:TrackPointExtension>
            <ns3:hr>140</ns3:hr>
            <ns3:cad>51</ns3:cad>
          </ns3:TrackPointExtension>
        </extensions>
      </trkpt>
      <trkpt lat="45.26727450080215930938720703125" lon="-71.1546688713133335113525390625">
        <ele>656.5999755859375</ele>
        <time>2026-08-22T03:33:18.000Z</time>
        <extensions>
          <ns3:TrackPointExtension>
            <ns3:hr>141</ns3:hr>
            <ns3:cad>51</ns3:cad>
          </ns3:TrackPointExtension>
        </extensions>
      </trkpt>
      <trkpt lat="45.2672727406024932861328125" lon="-71.15468689240515232086181640625">
        <ele>656.79998779296875</ele>
        <time>2026-08-22T03:33:19.000Z</time>
        <extensions>
          <ns3:TrackPointExtension>
            <ns3:hr>142</ns3:hr>
            <ns3:cad>50</ns3:cad>
          </ns3:TrackPointExtension>
        </extensions>
      </trkpt>
      <trkpt lat="45.26727383024990558624267578125" lon="-71.15471153520047664642333984375">
        <ele>657</ele>
        <time>2026-08-22T03:33:20.000Z</time>
        <extensions>
          <ns3:TrackPointExtension>
            <ns3:hr>142</ns3:hr>
            <ns3:cad>50</ns3:cad>
          </ns3:TrackPointExtension>
        </extensions>
      </trkpt>
      <trkpt lat="45.2672732435166835784912109375" lon="-71.15473332814872264862060546875">
        <ele>657.20001220703125</ele>
        <time>2026-08-22T03:33:21.000Z</time>
        <extensions>
          <ns3:TrackPointExtension>
            <ns3:hr>142</ns3:hr>
            <ns3:cad>50</ns3:cad>
          </ns3:TrackPointExtension>
        </extensions>
      </trkpt>
      <trkpt lat="45.26727416552603244781494140625" lon="-71.15475562401115894317626953125">
        <ele>657.4000244140625</ele>
        <time>2026-08-22T03:33:22.000Z</time>
        <extensions>
          <ns3:TrackPointExtension>
            <ns3:hr>142</ns3:hr>
            <ns3:cad>50</ns3:cad>
          </ns3:TrackPointExtension>
        </extensions>
      </trkpt>
      <trkpt lat="45.26727248914539813995361328125" lon="-71.1547712981700897216796875">
        <ele>657.5999755859375</ele>
        <time>2026-08-22T03:33:23.000Z</time>
        <extensions>
          <ns3:TrackPointExtension>
            <ns3:hr>142</ns3:hr>
            <ns3:cad>51</ns3:cad>
          </ns3:TrackPointExtension>
        </extensions>
      </trkpt>
      <trkpt lat="45.2672735787928104400634765625" lon="-71.154786385595798492431640625">
        <ele>657.79998779296875</ele>
        <time>2026-08-22T03:33:24.000Z</time>
        <extensions>
          <ns3:TrackPointExtension>
            <ns3:hr>142</ns3:hr>
            <ns3:cad>51</ns3:cad>
          </ns3:TrackPointExtension>
        </extensions>
      </trkpt>
      <trkpt lat="45.267273075878620147705078125" lon="-71.1548059992492198944091796875">
        <ele>658</ele>
        <time>2026-08-22T03:33:25.000Z</time>
        <extensions>
          <ns3:TrackPointExtension>
            <ns3:hr>142</ns3:hr>
            <ns3:cad>51</ns3:cad>
          </ns3:TrackPointExtension>
        </extensions>
      </trkpt>
      <trkpt lat="45.2672712318599224090576171875" lon="-71.154827289283275604248046875">
        <ele>658.20001220703125</ele>
        <time>2026-08-22T03:33:26.000Z</time>
        <extensions>
          <ns3:TrackPointExtension>
            <ns3:hr>142</ns3:hr>
            <ns3:cad>51</ns3:cad>
          </ns3:TrackPointExtension>
        </extensions>
      </trkpt>
      <trkpt lat="45.26727248914539813995361328125" lon="-71.1548455618321895599365234375">
        <ele>658.4000244140625</ele>
        <time>2026-08-22T03:33:27.000Z</time>
        <extensions>
          <ns3:TrackPointExtension>
            <ns3:hr>142</ns3:hr>
            <ns3:cad>51</ns3:cad>
          </ns3:TrackPointExtension>
        </extensions>
      </trkpt>
      <trkpt lat="45.26727718301117420196533203125" lon="-71.15486408583819866180419921875">
        <ele>658.5999755859375</ele>
        <time>2026-08-22T03:33:28.000Z</time>
        <extensions>
          <ns3:TrackPointExtension>
            <ns3:hr>143</ns3:hr>
            <ns3:cad>50</ns3:cad>
          </ns3:TrackPointExtension>
        </extensions>
      </trkpt>
      <trkpt lat="45.26727986522018909454345703125" lon="-71.15487950854003429412841796875">
        <ele>658.79998779296875</ele>
        <time>2026-08-22T03:33:29.000Z</time>
        <extensions>
          <ns3:TrackPointExtension>
            <ns3:hr>143</ns3:hr>
            <ns3:cad>50</ns3:cad>
          </ns3:TrackPointExtension>
        </extensions>
      </trkpt>
      <trkpt lat="45.26728011667728424072265625" lon="-71.1548935063183307647705078125">
        <ele>659</ele>
        <time>2026-08-22T03:33:30.000Z</time>
        <extensions>
          <ns3:TrackPointExtension>
            <ns3:hr>143</ns3:hr>
            <ns3:cad>50</ns3:cad>
          </ns3:TrackPointExtension>
        </extensions>
      </trkpt>
      <trkpt lat="45.267279110848903656005859375" lon="-71.15491420961916446685791015625">
        <ele>659.20001220703125</ele>
        <time>2026-08-22T03:33:31.000Z</time>
        <extensions>
          <ns3:TrackPointExtension>
            <ns3:hr>143</ns3:hr>
            <ns3:cad>50</ns3:cad>
          </ns3:TrackPointExtension>
        </extensions>
      </trkpt>
      <trkpt lat="45.26728372089564800262451171875" lon="-71.15492829121649265289306640625">
        <ele>659.5999755859375</ele>
        <time>2026-08-22T03:33:32.000Z</time>
        <extensions>
          <ns3:TrackPointExtension>
            <ns3:hr>143</ns3:hr>
            <ns3:cad>50</ns3:cad>
          </ns3:TrackPointExtension>
        </extensions>
      </trkpt>
      <trkpt lat="45.26728489436209201812744140625" lon="-71.154939271509647369384765625">
        <ele>659.79998779296875</ele>
        <time>2026-08-22T03:33:33.000Z</time>
        <extensions>
          <ns3:TrackPointExtension>
            <ns3:hr>143</ns3:hr>
            <ns3:cad>49</ns3:cad>
          </ns3:TrackPointExtension>
        </extensions>
      </trkpt>
      <trkpt lat="45.26729025878012180328369140625" lon="-71.15495108999311923980712890625">
        <ele>660</ele>
        <time>2026-08-22T03:33:34.000Z</time>
        <extensions>
          <ns3:TrackPointExtension>
            <ns3:hr>144</ns3:hr>
            <ns3:cad>49</ns3:cad>
          </ns3:TrackPointExtension>
        </extensions>
      </trkpt>
      <trkpt lat="45.26729109697043895721435546875" lon="-71.15496148355305194854736328125">
        <ele>660.20001220703125</ele>
        <time>2026-08-22T03:33:35.000Z</time>
        <extensions>
          <ns3:TrackPointExtension>
            <ns3:hr>144</ns3:hr>
            <ns3:cad>49</ns3:cad>
          </ns3:TrackPointExtension>
        </extensions>
      </trkpt>
      <trkpt lat="45.2672903425991535186767578125" lon="-71.1549796722829341888427734375">
        <ele>660.5999755859375</ele>
        <time>2026-08-22T03:33:36.000Z</time>
        <extensions>
          <ns3:TrackPointExtension>
            <ns3:hr>144</ns3:hr>
            <ns3:cad>49</ns3:cad>
          </ns3:TrackPointExtension>
        </extensions>
      </trkpt>
      <trkpt lat="45.26728875003755092620849609375" lon="-71.15499325096607208251953125">
        <ele>660.79998779296875</ele>
        <time>2026-08-22T03:33:37.000Z</time>
        <extensions>
          <ns3:TrackPointExtension>
            <ns3:hr>145</ns3:hr>
            <ns3:cad>49</ns3:cad>
          </ns3:TrackPointExtension>
        </extensions>
      </trkpt>
      <trkpt lat="45.2672859840095043182373046875" lon="-71.15500607527792453765869140625">
        <ele>661</ele>
        <time>2026-08-22T03:33:38.000Z</time>
        <extensions>
          <ns3:TrackPointExtension>
            <ns3:hr>145</ns3:hr>
            <ns3:cad>49</ns3:cad>
          </ns3:TrackPointExtension>
        </extensions>
      </trkpt>
      <trkpt lat="45.26728338561952114105224609375" lon="-71.1550138704478740692138671875">
        <ele>661.20001220703125</ele>
        <time>2026-08-22T03:33:39.000Z</time>
        <extensions>
          <ns3:TrackPointExtension>
            <ns3:hr>144</ns3:hr>
            <ns3:cad>49</ns3:cad>
          </ns3:TrackPointExtension>
        </extensions>
      </trkpt>
      <trkpt lat="45.26728137396275997161865234375" lon="-71.15503004752099514007568359375">
        <ele>661.4000244140625</ele>
        <time>2026-08-22T03:33:40.000Z</time>
        <extensions>
          <ns3:TrackPointExtension>
            <ns3:hr>144</ns3:hr>
            <ns3:cad>47</ns3:cad>
          </ns3:TrackPointExtension>
        </extensions>
      </trkpt>
      <trkpt lat="45.26727885939180850982666015625" lon="-71.1550475656986236572265625">
        <ele>661.5999755859375</ele>
        <time>2026-08-22T03:33:41.000Z</time>
        <extensions>
          <ns3:TrackPointExtension>
            <ns3:hr>144</ns3:hr>
            <ns3:cad>46</ns3:cad>
          </ns3:TrackPointExtension>
        </extensions>
      </trkpt>
      <trkpt lat="45.26727651245892047882080078125" lon="-71.1550638265907764434814453125">
        <ele>661.79998779296875</ele>
        <time>2026-08-22T03:33:42.000Z</time>
        <extensions>
          <ns3:TrackPointExtension>
            <ns3:hr>143</ns3:hr>
            <ns3:cad>46</ns3:cad>
          </ns3:TrackPointExtension>
        </extensions>
      </trkpt>
      <trkpt lat="45.26727651245892047882080078125" lon="-71.15507665090262889862060546875">
        <ele>662</ele>
        <time>2026-08-22T03:33:43.000Z</time>
        <extensions>
          <ns3:TrackPointExtension>
            <ns3:hr>142</ns3:hr>
            <ns3:cad>46</ns3:cad>
          </ns3:TrackPointExtension>
        </extensions>
      </trkpt>
      <trkpt lat="45.26727165095508098602294921875" lon="-71.1550883017480373382568359375">
        <ele>662.20001220703125</ele>
        <time>2026-08-22T03:33:44.000Z</time>
        <extensions>
          <ns3:TrackPointExtension>
            <ns3:hr>143</ns3:hr>
            <ns3:cad>46</ns3:cad>
          </ns3:TrackPointExtension>
        </extensions>
      </trkpt>
      <trkpt lat="45.26727282442152500152587890625" lon="-71.15509140305221080780029296875">
        <ele>662.4000244140625</ele>
        <time>2026-08-22T03:33:45.000Z</time>
        <extensions>
          <ns3:TrackPointExtension>
            <ns3:hr>143</ns3:hr>
            <ns3:cad>44</ns3:cad>
          </ns3:TrackPointExtension>
        </extensions>
      </trkpt>
      <trkpt lat="45.2672722376883029937744140625" lon="-71.15511856041848659515380859375">
        <ele>662.5999755859375</ele>
        <time>2026-08-22T03:33:46.000Z</time>
        <extensions>
          <ns3:TrackPointExtension>
            <ns3:hr>144</ns3:hr>
            <ns3:cad>44</ns3:cad>
          </ns3:TrackPointExtension>
        </extensions>
      </trkpt>
      <trkpt lat="45.267275087535381317138671875" lon="-71.155124008655548095703125">
        <ele>662.79998779296875</ele>
        <time>2026-08-22T03:33:47.000Z</time>
        <extensions>
          <ns3:TrackPointExtension>
            <ns3:hr>144</ns3:hr>
            <ns3:cad>47</ns3:cad>
          </ns3:TrackPointExtension>
        </extensions>
      </trkpt>
      <trkpt lat="45.2672786079347133636474609375" lon="-71.1551379226148128509521484375">
        <ele>662.79998779296875</ele>
        <time>2026-08-22T03:33:48.000Z</time>
        <extensions>
          <ns3:TrackPointExtension>
            <ns3:hr>143</ns3:hr>
            <ns3:cad>47</ns3:cad>
          </ns3:TrackPointExtension>
        </extensions>
      </trkpt>
      <trkpt lat="45.26727366261184215545654296875" lon="-71.15515225566923618316650390625">
        <ele>662.79998779296875</ele>
        <time>2026-08-22T03:33:49.000Z</time>
        <extensions>
          <ns3:TrackPointExtension>
            <ns3:hr>143</ns3:hr>
            <ns3:cad>47</ns3:cad>
          </ns3:TrackPointExtension>
        </extensions>
      </trkpt>
      <trkpt lat="45.2672719024121761322021484375" lon="-71.155168600380420684814453125">
        <ele>663</ele>
        <time>2026-08-22T03:33:50.000Z</time>
        <extensions>
          <ns3:TrackPointExtension>
            <ns3:hr>143</ns3:hr>
            <ns3:cad>47</ns3:cad>
          </ns3:TrackPointExtension>
        </extensions>
      </trkpt>
      <trkpt lat="45.267263688147068023681640625" lon="-71.1551821790635585784912109375">
        <ele>663</ele>
        <time>2026-08-22T03:33:51.000Z</time>
        <extensions>
          <ns3:TrackPointExtension>
            <ns3:hr>143</ns3:hr>
            <ns3:cad>47</ns3:cad>
          </ns3:TrackPointExtension>
        </extensions>
      </trkpt>
      <trkpt lat="45.2672611735761165618896484375" lon="-71.15519617684185504913330078125">
        <ele>663.20001220703125</ele>
        <time>2026-08-22T03:33:52.000Z</time>
        <extensions>
          <ns3:TrackPointExtension>
            <ns3:hr>143</ns3:hr>
            <ns3:cad>50</ns3:cad>
          </ns3:TrackPointExtension>
        </extensions>
      </trkpt>
      <trkpt lat="45.26725924573838710784912109375" lon="-71.15520925261080265045166015625">
        <ele>663.4000244140625</ele>
        <time>2026-08-22T03:33:53.000Z</time>
        <extensions>
          <ns3:TrackPointExtension>
            <ns3:hr>143</ns3:hr>
            <ns3:cad>51</ns3:cad>
          </ns3:TrackPointExtension>
        </extensions>
      </trkpt>
      <trkpt lat="45.26725857518613338470458984375" lon="-71.155226938426494598388671875">
        <ele>663.5999755859375</ele>
        <time>2026-08-22T03:33:54.000Z</time>
        <extensions>
          <ns3:TrackPointExtension>
            <ns3:hr>142</ns3:hr>
            <ns3:cad>51</ns3:cad>
          </ns3:TrackPointExtension>
        </extensions>
      </trkpt>
      <trkpt lat="45.26725924573838710784912109375" lon="-71.155247054994106292724609375">
        <ele>663.79998779296875</ele>
        <time>2026-08-22T03:33:55.000Z</time>
        <extensions>
          <ns3:TrackPointExtension>
            <ns3:hr>143</ns3:hr>
            <ns3:cad>51</ns3:cad>
          </ns3:TrackPointExtension>
        </extensions>
      </trkpt>
      <trkpt lat="45.26726025156676769256591796875" lon="-71.15526306442916393280029296875">
        <ele>664</ele>
        <time>2026-08-22T03:33:56.000Z</time>
        <extensions>
          <ns3:TrackPointExtension>
            <ns3:hr>143</ns3:hr>
            <ns3:cad>51</ns3:cad>
          </ns3:TrackPointExtension>
        </extensions>
      </trkpt>
      <trkpt lat="45.2672621794044971466064453125" lon="-71.15527614019811153411865234375">
        <ele>664.20001220703125</ele>
        <time>2026-08-22T03:33:57.000Z</time>
        <extensions>
          <ns3:TrackPointExtension>
            <ns3:hr>143</ns3:hr>
            <ns3:cad>50</ns3:cad>
          </ns3:TrackPointExtension>
        </extensions>
      </trkpt>
      <trkpt lat="45.2672620117664337158203125" lon="-71.15528787486255168914794921875">
        <ele>664.4000244140625</ele>
        <time>2026-08-22T03:33:58.000Z</time>
        <extensions>
          <ns3:TrackPointExtension>
            <ns3:hr>144</ns3:hr>
            <ns3:cad>50</ns3:cad>
          </ns3:TrackPointExtension>
        </extensions>
      </trkpt>
      <trkpt lat="45.2672645263373851776123046875" lon="-71.15530312992632389068603515625">
        <ele>664.5999755859375</ele>
        <time>2026-08-22T03:33:59.000Z</time>
        <extensions>
          <ns3:TrackPointExtension>
            <ns3:hr>144</ns3:hr>
            <ns3:cad>48</ns3:cad>
          </ns3:TrackPointExtension>
        </extensions>
      </trkpt>
      <trkpt lat="45.267264358699321746826171875" lon="-71.15532626397907733917236328125">
        <ele>664.79998779296875</ele>
        <time>2026-08-22T03:34:00.000Z</time>
        <extensions>
          <ns3:TrackPointExtension>
            <ns3:hr>144</ns3:hr>
            <ns3:cad>48</ns3:cad>
          </ns3:TrackPointExtension>
        </extensions>
      </trkpt>
      <trkpt lat="45.2672673761844635009765625" lon="-71.1553457938134670257568359375">
        <ele>664.79998779296875</ele>
        <time>2026-08-22T03:34:01.000Z</time>
        <extensions>
          <ns3:TrackPointExtension>
            <ns3:hr>144</ns3:hr>
            <ns3:cad>48</ns3:cad>
          </ns3:TrackPointExtension>
        </extensions>
      </trkpt>
      <trkpt lat="45.26727139949798583984375" lon="-71.155364401638507843017578125">
        <ele>665</ele>
        <time>2026-08-22T03:34:02.000Z</time>
        <extensions>
          <ns3:TrackPointExtension>
            <ns3:hr>144</ns3:hr>
            <ns3:cad>48</ns3:cad>
          </ns3:TrackPointExtension>
        </extensions>
      </trkpt>
      <trkpt lat="45.267274081707000732421875" lon="-71.15538175217807292938232421875">
        <ele>665.20001220703125</ele>
        <time>2026-08-22T03:34:03.000Z</time>
        <extensions>
          <ns3:TrackPointExtension>
            <ns3:hr>144</ns3:hr>
            <ns3:cad>48</ns3:cad>
          </ns3:TrackPointExtension>
        </extensions>
      </trkpt>
      <trkpt lat="45.26727517135441303253173828125" lon="-71.155398599803447723388671875">
        <ele>665.4000244140625</ele>
        <time>2026-08-22T03:34:04.000Z</time>
        <extensions>
          <ns3:TrackPointExtension>
            <ns3:hr>143</ns3:hr>
            <ns3:cad>51</ns3:cad>
          </ns3:TrackPointExtension>
        </extensions>
      </trkpt>
      <trkpt lat="45.26727651245892047882080078125" lon="-71.15541192702949047088623046875">
        <ele>665.5999755859375</ele>
        <time>2026-08-22T03:34:05.000Z</time>
        <extensions>
          <ns3:TrackPointExtension>
            <ns3:hr>143</ns3:hr>
            <ns3:cad>51</ns3:cad>
          </ns3:TrackPointExtension>
        </extensions>
      </trkpt>
      <trkpt lat="45.26727248914539813995361328125" lon="-71.1554265953600406646728515625">
        <ele>665.5999755859375</ele>
        <time>2026-08-22T03:34:06.000Z</time>
        <extensions>
          <ns3:TrackPointExtension>
            <ns3:hr>143</ns3:hr>
            <ns3:cad>51</ns3:cad>
          </ns3:TrackPointExtension>
        </extensions>
      </trkpt>
      <trkpt lat="45.2672719024121761322021484375" lon="-71.15544310770928859710693359375">
        <ele>665.79998779296875</ele>
        <time>2026-08-22T03:34:07.000Z</time>
        <extensions>
          <ns3:TrackPointExtension>
            <ns3:hr>144</ns3:hr>
            <ns3:cad>51</ns3:cad>
          </ns3:TrackPointExtension>
        </extensions>
      </trkpt>
      <trkpt lat="45.267274081707000732421875" lon="-71.155460961163043975830078125">
        <ele>666</ele>
        <time>2026-08-22T03:34:08.000Z</time>
        <extensions>
          <ns3:TrackPointExtension>
            <ns3:hr>144</ns3:hr>
            <ns3:cad>51</ns3:cad>
          </ns3:TrackPointExtension>
        </extensions>
      </trkpt>
      <trkpt lat="45.26727433316409587860107421875" lon="-71.15547831170260906219482421875">
        <ele>666.20001220703125</ele>
        <time>2026-08-22T03:34:09.000Z</time>
        <extensions>
          <ns3:TrackPointExtension>
            <ns3:hr>144</ns3:hr>
            <ns3:cad>50</ns3:cad>
          </ns3:TrackPointExtension>
        </extensions>
      </trkpt>
      <trkpt lat="45.26727450080215930938720703125" lon="-71.1554939858615398406982421875">
        <ele>666.4000244140625</ele>
        <time>2026-08-22T03:34:10.000Z</time>
        <extensions>
          <ns3:TrackPointExtension>
            <ns3:hr>143</ns3:hr>
            <ns3:cad>50</ns3:cad>
          </ns3:TrackPointExtension>
        </extensions>
      </trkpt>
      <trkpt lat="45.26727299205958843231201171875" lon="-71.1555090732872486114501953125">
        <ele>666.5999755859375</ele>
        <time>2026-08-22T03:34:11.000Z</time>
        <extensions>
          <ns3:TrackPointExtension>
            <ns3:hr>143</ns3:hr>
            <ns3:cad>51</ns3:cad>
          </ns3:TrackPointExtension>
        </extensions>
      </trkpt>
      <trkpt lat="45.267274416983127593994140625" lon="-71.1555261723697185516357421875">
        <ele>666.79998779296875</ele>
        <time>2026-08-22T03:34:12.000Z</time>
        <extensions>
          <ns3:TrackPointExtension>
            <ns3:hr>143</ns3:hr>
            <ns3:cad>50</ns3:cad>
          </ns3:TrackPointExtension>
        </extensions>
      </trkpt>
      <trkpt lat="45.2672722376883029937744140625" lon="-71.15554503165185451507568359375">
        <ele>667</ele>
        <time>2026-08-22T03:34:13.000Z</time>
        <extensions>
          <ns3:TrackPointExtension>
            <ns3:hr>144</ns3:hr>
            <ns3:cad>50</ns3:cad>
          </ns3:TrackPointExtension>
        </extensions>
      </trkpt>
      <trkpt lat="45.267272405326366424560546875" lon="-71.15556431002914905548095703125">
        <ele>667.20001220703125</ele>
        <time>2026-08-22T03:34:14.000Z</time>
        <extensions>
          <ns3:TrackPointExtension>
            <ns3:hr>144</ns3:hr>
            <ns3:cad>50</ns3:cad>
          </ns3:TrackPointExtension>
        </extensions>
      </trkpt>
      <trkpt lat="45.26727081276476383209228515625" lon="-71.1555818282067775726318359375">
        <ele>667.4000244140625</ele>
        <time>2026-08-22T03:34:15.000Z</time>
        <extensions>
          <ns3:TrackPointExtension>
            <ns3:hr>144</ns3:hr>
            <ns3:cad>50</ns3:cad>
          </ns3:TrackPointExtension>
        </extensions>
      </trkpt>
      <trkpt lat="45.2672742493450641632080078125" lon="-71.15560051985085010528564453125">
        <ele>667.4000244140625</ele>
        <time>2026-08-22T03:34:16.000Z</time>
        <extensions>
          <ns3:TrackPointExtension>
            <ns3:hr>144</ns3:hr>
            <ns3:cad>49</ns3:cad>
          </ns3:TrackPointExtension>
        </extensions>
      </trkpt>
      <trkpt lat="45.2672755904495716094970703125" lon="-71.1556187085807323455810546875">
        <ele>667.5999755859375</ele>
        <time>2026-08-22T03:34:17.000Z</time>
        <extensions>
          <ns3:TrackPointExtension>
            <ns3:hr>144</ns3:hr>
            <ns3:cad>50</ns3:cad>
          </ns3:TrackPointExtension>
        </extensions>
      </trkpt>
      <trkpt lat="45.26727735064923763275146484375" lon="-71.15563740022480487823486328125">
        <ele>667.79998779296875</ele>
        <time>2026-08-22T03:34:18.000Z</time>
        <extensions>
          <ns3:TrackPointExtension>
            <ns3:hr>144</ns3:hr>
            <ns3:cad>50</ns3:cad>
          </ns3:TrackPointExtension>
        </extensions>
      </trkpt>
      <trkpt lat="45.267276763916015625" lon="-71.15565785206854343414306640625">
        <ele>668</ele>
        <time>2026-08-22T03:34:19.000Z</time>
        <extensions>
          <ns3:TrackPointExtension>
            <ns3:hr>144</ns3:hr>
            <ns3:cad>50</ns3:cad>
          </ns3:TrackPointExtension>
        </extensions>
      </trkpt>
      <trkpt lat="45.2672735787928104400634765625" lon="-71.155677549540996551513671875">
        <ele>668.20001220703125</ele>
        <time>2026-08-22T03:34:20.000Z</time>
        <extensions>
          <ns3:TrackPointExtension>
            <ns3:hr>143</ns3:hr>
            <ns3:cad>50</ns3:cad>
          </ns3:TrackPointExtension>
        </extensions>
      </trkpt>
      <trkpt lat="45.26727299205958843231201171875" lon="-71.1556971631944179534912109375">
        <ele>668.20001220703125</ele>
        <time>2026-08-22T03:34:21.000Z</time>
        <extensions>
          <ns3:TrackPointExtension>
            <ns3:hr>143</ns3:hr>
            <ns3:cad>50</ns3:cad>
          </ns3:TrackPointExtension>
        </extensions>
      </trkpt>
      <trkpt lat="45.26727232150733470916748046875" lon="-71.155715771019458770751953125">
        <ele>668.4000244140625</ele>
        <time>2026-08-22T03:34:22.000Z</time>
        <extensions>
          <ns3:TrackPointExtension>
            <ns3:hr>144</ns3:hr>
            <ns3:cad>50</ns3:cad>
          </ns3:TrackPointExtension>
        </extensions>
      </trkpt>
      <trkpt lat="45.26726913638412952423095703125" lon="-71.15573546849191188812255859375">
        <ele>668.5999755859375</ele>
        <time>2026-08-22T03:34:23.000Z</time>
        <extensions>
          <ns3:TrackPointExtension>
            <ns3:hr>144</ns3:hr>
            <ns3:cad>51</ns3:cad>
          </ns3:TrackPointExtension>
        </extensions>
      </trkpt>
      <trkpt lat="45.26726813055574893951416015625" lon="-71.15575407631695270538330078125">
        <ele>668.5999755859375</ele>
        <time>2026-08-22T03:34:24.000Z</time>
        <extensions>
          <ns3:TrackPointExtension>
            <ns3:hr>144</ns3:hr>
            <ns3:cad>51</ns3:cad>
          </ns3:TrackPointExtension>
        </extensions>
      </trkpt>
      <trkpt lat="45.267269723117351531982421875" lon="-71.15577804856002330780029296875">
        <ele>668.79998779296875</ele>
        <time>2026-08-22T03:34:25.000Z</time>
        <extensions>
          <ns3:TrackPointExtension>
            <ns3:hr>143</ns3:hr>
            <ns3:cad>51</ns3:cad>
          </ns3:TrackPointExtension>
        </extensions>
      </trkpt>
      <trkpt lat="45.26726963929831981658935546875" lon="-71.15580587647855281829833984375">
        <ele>668.79998779296875</ele>
        <time>2026-08-22T03:34:26.000Z</time>
        <extensions>
          <ns3:TrackPointExtension>
            <ns3:hr>143</ns3:hr>
            <ns3:cad>51</ns3:cad>
          </ns3:TrackPointExtension>
        </extensions>
      </trkpt>
      <trkpt lat="45.26726846583187580108642578125" lon="-71.1558269150555133819580078125">
        <ele>669</ele>
        <time>2026-08-22T03:34:27.000Z</time>
        <extensions>
          <ns3:TrackPointExtension>
            <ns3:hr>143</ns3:hr>
            <ns3:cad>51</ns3:cad>
          </ns3:TrackPointExtension>
        </extensions>
      </trkpt>
      <trkpt lat="45.2672660350799560546875" lon="-71.15584678016602993011474609375">
        <ele>669</ele>
        <time>2026-08-22T03:34:28.000Z</time>
        <extensions>
          <ns3:TrackPointExtension>
            <ns3:hr>143</ns3:hr>
            <ns3:cad>50</ns3:cad>
          </ns3:TrackPointExtension>
        </extensions>
      </trkpt>
      <trkpt lat="45.26726980693638324737548828125" lon="-71.15586605854332447052001953125">
        <ele>669.20001220703125</ele>
        <time>2026-08-22T03:34:29.000Z</time>
        <extensions>
          <ns3:TrackPointExtension>
            <ns3:hr>143</ns3:hr>
            <ns3:cad>50</ns3:cad>
          </ns3:TrackPointExtension>
        </extensions>
      </trkpt>
      <trkpt lat="45.2672722376883029937744140625" lon="-71.15588751621544361114501953125">
        <ele>669.20001220703125</ele>
        <time>2026-08-22T03:34:30.000Z</time>
        <extensions>
          <ns3:TrackPointExtension>
            <ns3:hr>143</ns3:hr>
            <ns3:cad>50</ns3:cad>
          </ns3:TrackPointExtension>
        </extensions>
      </trkpt>
      <trkpt lat="45.2672729082405567169189453125" lon="-71.1559063754975795745849609375">
        <ele>669.4000244140625</ele>
        <time>2026-08-22T03:34:31.000Z</time>
        <extensions>
          <ns3:TrackPointExtension>
            <ns3:hr>142</ns3:hr>
            <ns3:cad>50</ns3:cad>
          </ns3:TrackPointExtension>
        </extensions>
      </trkpt>
      <trkpt lat="45.26727265678346157073974609375" lon="-71.15592590533196926116943359375">
        <ele>669.4000244140625</ele>
        <time>2026-08-22T03:34:32.000Z</time>
        <extensions>
          <ns3:TrackPointExtension>
            <ns3:hr>142</ns3:hr>
            <ns3:cad>50</ns3:cad>
          </ns3:TrackPointExtension>
        </extensions>
      </trkpt>
      <trkpt lat="45.2672765962779521942138671875" lon="-71.15594719536602497100830078125">
        <ele>669.5999755859375</ele>
        <time>2026-08-22T03:34:33.000Z</time>
        <extensions>
          <ns3:TrackPointExtension>
            <ns3:hr>142</ns3:hr>
            <ns3:cad>50</ns3:cad>
          </ns3:TrackPointExtension>
        </extensions>
      </trkpt>
      <trkpt lat="45.2672759257256984710693359375" lon="-71.15596965886652469635009765625">
        <ele>669.5999755859375</ele>
        <time>2026-08-22T03:34:34.000Z</time>
        <extensions>
          <ns3:TrackPointExtension>
            <ns3:hr>141</ns3:hr>
            <ns3:cad>50</ns3:cad>
          </ns3:TrackPointExtension>
        </extensions>
      </trkpt>
      <trkpt lat="45.2672755904495716094970703125" lon="-71.15599111653864383697509765625">
        <ele>669.5999755859375</ele>
        <time>2026-08-22T03:34:35.000Z</time>
        <extensions>
          <ns3:TrackPointExtension>
            <ns3:hr>141</ns3:hr>
            <ns3:cad>53</ns3:cad>
          </ns3:TrackPointExtension>
        </extensions>
      </trkpt>
      <trkpt lat="45.2672772668302059173583984375" lon="-71.156012155115604400634765625">
        <ele>669.5999755859375</ele>
        <time>2026-08-22T03:34:36.000Z</time>
        <extensions>
          <ns3:TrackPointExtension>
            <ns3:hr>141</ns3:hr>
            <ns3:cad>53</ns3:cad>
          </ns3:TrackPointExtension>
        </extensions>
      </trkpt>
      <trkpt lat="45.26727835647761821746826171875" lon="-71.15603185258805751800537109375">
        <ele>669.79998779296875</ele>
        <time>2026-08-22T03:34:37.000Z</time>
        <extensions>
          <ns3:TrackPointExtension>
            <ns3:hr>140</ns3:hr>
            <ns3:cad>53</ns3:cad>
          </ns3:TrackPointExtension>
        </extensions>
      </trkpt>
      <trkpt lat="45.26727651245892047882080078125" lon="-71.1560502089560031890869140625">
        <ele>669.79998779296875</ele>
        <time>2026-08-22T03:34:38.000Z</time>
        <extensions>
          <ns3:TrackPointExtension>
            <ns3:hr>140</ns3:hr>
            <ns3:cad>53</ns3:cad>
          </ns3:TrackPointExtension>
        </extensions>
      </trkpt>
      <trkpt lat="45.267273746430873870849609375" lon="-71.1560676433145999908447265625">
        <ele>670</ele>
        <time>2026-08-22T03:34:39.000Z</time>
        <extensions>
          <ns3:TrackPointExtension>
            <ns3:hr>140</ns3:hr>
            <ns3:cad>53</ns3:cad>
          </ns3:TrackPointExtension>
        </extensions>
      </trkpt>
      <trkpt lat="45.2672727406024932861328125" lon="-71.15608868189156055450439453125">
        <ele>670.20001220703125</ele>
        <time>2026-08-22T03:34:40.000Z</time>
        <extensions>
          <ns3:TrackPointExtension>
            <ns3:hr>139</ns3:hr>
            <ns3:cad>55</ns3:cad>
          </ns3:TrackPointExtension>
        </extensions>
      </trkpt>
      <trkpt lat="45.26727315969765186309814453125" lon="-71.15610846318304538726806640625">
        <ele>670.20001220703125</ele>
        <time>2026-08-22T03:34:41.000Z</time>
        <extensions>
          <ns3:TrackPointExtension>
            <ns3:hr>139</ns3:hr>
            <ns3:cad>55</ns3:cad>
          </ns3:TrackPointExtension>
        </extensions>
      </trkpt>
      <trkpt lat="45.267276428639888763427734375" lon="-71.1561286635696887969970703125">
        <ele>670.4000244140625</ele>
        <time>2026-08-22T03:34:42.000Z</time>
        <extensions>
          <ns3:TrackPointExtension>
            <ns3:hr>139</ns3:hr>
            <ns3:cad>55</ns3:cad>
          </ns3:TrackPointExtension>
        </extensions>
      </trkpt>
      <trkpt lat="45.26727114804089069366455078125" lon="-71.15614785812795162200927734375">
        <ele>670.4000244140625</ele>
        <time>2026-08-22T03:34:43.000Z</time>
        <extensions>
          <ns3:TrackPointExtension>
            <ns3:hr>138</ns3:hr>
            <ns3:cad>55</ns3:cad>
          </ns3:TrackPointExtension>
        </extensions>
      </trkpt>
      <trkpt lat="45.26727248914539813995361328125" lon="-71.1561712436378002166748046875">
        <ele>670.5999755859375</ele>
        <time>2026-08-22T03:34:44.000Z</time>
        <extensions>
          <ns3:TrackPointExtension>
            <ns3:hr>138</ns3:hr>
            <ns3:cad>55</ns3:cad>
          </ns3:TrackPointExtension>
        </extensions>
      </trkpt>
      <trkpt lat="45.267273746430873870849609375" lon="-71.15619446150958538055419921875">
        <ele>670.5999755859375</ele>
        <time>2026-08-22T03:34:45.000Z</time>
        <extensions>
          <ns3:TrackPointExtension>
            <ns3:hr>138</ns3:hr>
            <ns3:cad>55</ns3:cad>
          </ns3:TrackPointExtension>
        </extensions>
      </trkpt>
      <trkpt lat="45.26727366261184215545654296875" lon="-71.15621625445783138275146484375">
        <ele>670.5999755859375</ele>
        <time>2026-08-22T03:34:46.000Z</time>
        <extensions>
          <ns3:TrackPointExtension>
            <ns3:hr>138</ns3:hr>
            <ns3:cad>55</ns3:cad>
          </ns3:TrackPointExtension>
        </extensions>
      </trkpt>
      <trkpt lat="45.26727265678346157073974609375" lon="-71.15624156780540943145751953125">
        <ele>670.79998779296875</ele>
        <time>2026-08-22T03:34:47.000Z</time>
        <extensions>
          <ns3:TrackPointExtension>
            <ns3:hr>138</ns3:hr>
            <ns3:cad>56</ns3:cad>
          </ns3:TrackPointExtension>
        </extensions>
      </trkpt>
      <trkpt lat="45.26727500371634960174560546875" lon="-71.15626436658203601837158203125">
        <ele>670.79998779296875</ele>
        <time>2026-08-22T03:34:48.000Z</time>
        <extensions>
          <ns3:TrackPointExtension>
            <ns3:hr>138</ns3:hr>
            <ns3:cad>56</ns3:cad>
          </ns3:TrackPointExtension>
        </extensions>
      </trkpt>
      <trkpt lat="45.26727651245892047882080078125" lon="-71.1562859080731868743896484375">
        <ele>671</ele>
        <time>2026-08-22T03:34:49.000Z</time>
        <extensions>
          <ns3:TrackPointExtension>
            <ns3:hr>138</ns3:hr>
            <ns3:cad>56</ns3:cad>
          </ns3:TrackPointExtension>
        </extensions>
      </trkpt>
      <trkpt lat="45.267275758087635040283203125" lon="-71.15630761720240116119384765625">
        <ele>671</ele>
        <time>2026-08-22T03:34:50.000Z</time>
        <extensions>
          <ns3:TrackPointExtension>
            <ns3:hr>138</ns3:hr>
            <ns3:cad>56</ns3:cad>
          </ns3:TrackPointExtension>
        </extensions>
      </trkpt>
      <trkpt lat="45.2672765962779521942138671875" lon="-71.15633167326450347900390625">
        <ele>671.20001220703125</ele>
        <time>2026-08-22T03:34:51.000Z</time>
        <extensions>
          <ns3:TrackPointExtension>
            <ns3:hr>138</ns3:hr>
            <ns3:cad>56</ns3:cad>
          </ns3:TrackPointExtension>
        </extensions>
      </trkpt>
      <trkpt lat="45.267279781401157379150390625" lon="-71.15635455586016178131103515625">
        <ele>671.20001220703125</ele>
        <time>2026-08-22T03:34:52.000Z</time>
        <extensions>
          <ns3:TrackPointExtension>
            <ns3:hr>138</ns3:hr>
            <ns3:cad>56</ns3:cad>
          </ns3:TrackPointExtension>
        </extensions>
      </trkpt>
      <trkpt lat="45.26727969758212566375732421875" lon="-71.1563781090080738067626953125">
        <ele>671.4000244140625</ele>
        <time>2026-08-22T03:34:53.000Z</time>
        <extensions>
          <ns3:TrackPointExtension>
            <ns3:hr>138</ns3:hr>
            <ns3:cad>56</ns3:cad>
          </ns3:TrackPointExtension>
        </extensions>
      </trkpt>
      <trkpt lat="45.26728154160082340240478515625" lon="-71.15640216507017612457275390625">
        <ele>671.4000244140625</ele>
        <time>2026-08-22T03:34:54.000Z</time>
        <extensions>
          <ns3:TrackPointExtension>
            <ns3:hr>138</ns3:hr>
            <ns3:cad>56</ns3:cad>
          </ns3:TrackPointExtension>
        </extensions>
      </trkpt>
      <trkpt lat="45.26728573255240917205810546875" lon="-71.156420521438121795654296875">
        <ele>671.4000244140625</ele>
        <time>2026-08-22T03:34:55.000Z</time>
        <extensions>
          <ns3:TrackPointExtension>
            <ns3:hr>138</ns3:hr>
            <ns3:cad>56</ns3:cad>
          </ns3:TrackPointExtension>
        </extensions>
      </trkpt>
      <trkpt lat="45.26728992350399494171142578125" lon="-71.15644189529120922088623046875">
        <ele>671.5999755859375</ele>
        <time>2026-08-22T03:34:56.000Z</time>
        <extensions>
          <ns3:TrackPointExtension>
            <ns3:hr>137</ns3:hr>
            <ns3:cad>56</ns3:cad>
          </ns3:TrackPointExtension>
        </extensions>
      </trkpt>
      <trkpt lat="45.26729478500783443450927734375" lon="-71.1564595811069011688232421875">
        <ele>671.5999755859375</ele>
        <time>2026-08-22T03:34:57.000Z</time>
        <extensions>
          <ns3:TrackPointExtension>
            <ns3:hr>137</ns3:hr>
            <ns3:cad>56</ns3:cad>
          </ns3:TrackPointExtension>
        </extensions>
      </trkpt>
      <trkpt lat="45.26729696430265903472900390625" lon="-71.15648053586483001708984375">
        <ele>671.5999755859375</ele>
        <time>2026-08-22T03:34:58.000Z</time>
        <extensions>
          <ns3:TrackPointExtension>
            <ns3:hr>136</ns3:hr>
            <ns3:cad>56</ns3:cad>
          </ns3:TrackPointExtension>
        </extensions>
      </trkpt>
      <trkpt lat="45.26729495264589786529541015625" lon="-71.156502664089202880859375">
        <ele>671.5999755859375</ele>
        <time>2026-08-22T03:34:59.000Z</time>
        <extensions>
          <ns3:TrackPointExtension>
            <ns3:hr>136</ns3:hr>
            <ns3:cad>57</ns3:cad>
          </ns3:TrackPointExtension>
        </extensions>
      </trkpt>
      <trkpt lat="45.26729218661785125732421875" lon="-71.15652345120906829833984375">
        <ele>671.5999755859375</ele>
        <time>2026-08-22T03:35:00.000Z</time>
        <extensions>
          <ns3:TrackPointExtension>
            <ns3:hr>136</ns3:hr>
            <ns3:cad>57</ns3:cad>
          </ns3:TrackPointExtension>
        </extensions>
      </trkpt>
      <trkpt lat="45.2672910131514072418212890625" lon="-71.15654365159571170806884765625">
        <ele>671.5999755859375</ele>
        <time>2026-08-22T03:35:01.000Z</time>
        <extensions>
          <ns3:TrackPointExtension>
            <ns3:hr>137</ns3:hr>
            <ns3:cad>57</ns3:cad>
          </ns3:TrackPointExtension>
        </extensions>
      </trkpt>
      <trkpt lat="45.267290174961090087890625" lon="-71.15656712092459201812744140625">
        <ele>671.5999755859375</ele>
        <time>2026-08-22T03:35:02.000Z</time>
        <extensions>
          <ns3:TrackPointExtension>
            <ns3:hr>137</ns3:hr>
            <ns3:cad>57</ns3:cad>
          </ns3:TrackPointExtension>
        </extensions>
      </trkpt>
      <trkpt lat="45.267287828028202056884765625" lon="-71.156590171158313751220703125">
        <ele>671.5999755859375</ele>
        <time>2026-08-22T03:35:03.000Z</time>
        <extensions>
          <ns3:TrackPointExtension>
            <ns3:hr>137</ns3:hr>
            <ns3:cad>57</ns3:cad>
          </ns3:TrackPointExtension>
        </extensions>
      </trkpt>
      <trkpt lat="45.26728891767561435699462890625" lon="-71.1566086113452911376953125">
        <ele>671.5999755859375</ele>
        <time>2026-08-22T03:35:04.000Z</time>
        <extensions>
          <ns3:TrackPointExtension>
            <ns3:hr>137</ns3:hr>
            <ns3:cad>57</ns3:cad>
          </ns3:TrackPointExtension>
        </extensions>
      </trkpt>
      <trkpt lat="45.2672936953604221343994140625" lon="-71.1566389538347721099853515625">
        <ele>671.79998779296875</ele>
        <time>2026-08-22T03:35:05.000Z</time>
        <extensions>
          <ns3:TrackPointExtension>
            <ns3:hr>137</ns3:hr>
            <ns3:cad>57</ns3:cad>
          </ns3:TrackPointExtension>
        </extensions>
      </trkpt>
      <trkpt lat="45.26729579083621501922607421875" lon="-71.15666870959103107452392578125">
        <ele>671.79998779296875</ele>
        <time>2026-08-22T03:35:06.000Z</time>
        <extensions>
          <ns3:TrackPointExtension>
            <ns3:hr>136</ns3:hr>
            <ns3:cad>57</ns3:cad>
          </ns3:TrackPointExtension>
        </extensions>
      </trkpt>
      <trkpt lat="45.2672977186739444732666015625" lon="-71.156701147556304931640625">
        <ele>671.79998779296875</ele>
        <time>2026-08-22T03:35:07.000Z</time>
        <extensions>
          <ns3:TrackPointExtension>
            <ns3:hr>137</ns3:hr>
            <ns3:cad>57</ns3:cad>
          </ns3:TrackPointExtension>
        </extensions>
      </trkpt>
      <trkpt lat="45.26730149053037166595458984375" lon="-71.156733669340610504150390625">
        <ele>671.79998779296875</ele>
        <time>2026-08-22T03:35:08.000Z</time>
        <extensions>
          <ns3:TrackPointExtension>
            <ns3:hr>136</ns3:hr>
            <ns3:cad>57</ns3:cad>
          </ns3:TrackPointExtension>
        </extensions>
      </trkpt>
      <trkpt lat="45.26730132289230823516845703125" lon="-71.15677432157099246978759765625">
        <ele>671.79998779296875</ele>
        <time>2026-08-22T03:35:09.000Z</time>
        <extensions>
          <ns3:TrackPointExtension>
            <ns3:hr>136</ns3:hr>
            <ns3:cad>0</ns3:cad>
          </ns3:TrackPointExtension>
        </extensions>
      </trkpt>
      <trkpt lat="45.2672970481216907501220703125" lon="-71.156812794506549835205078125">
        <ele>671.79998779296875</ele>
        <time>2026-08-22T03:35:10.000Z</time>
        <extensions>
          <ns3:TrackPointExtension>
            <ns3:hr>136</ns3:hr>
            <ns3:cad>0</ns3:cad>
          </ns3:TrackPointExtension>
        </extensions>
      </trkpt>
      <trkpt lat="45.26730249635875225067138671875" lon="-71.1568458192050457000732421875">
        <ele>671.79998779296875</ele>
        <time>2026-08-22T03:35:11.000Z</time>
        <extensions>
          <ns3:TrackPointExtension>
            <ns3:hr>136</ns3:hr>
            <ns3:cad>81</ns3:cad>
          </ns3:TrackPointExtension>
        </extensions>
      </trkpt>
      <trkpt lat="45.26730685494840145111083984375" lon="-71.15689150057733058929443359375">
        <ele>671.79998779296875</ele>
        <time>2026-08-22T03:35:12.000Z</time>
        <extensions>
          <ns3:TrackPointExtension>
            <ns3:hr>136</ns3:hr>
            <ns3:cad>81</ns3:cad>
          </ns3:TrackPointExtension>
        </extensions>
      </trkpt>
      <trkpt lat="45.2673076093196868896484375" lon="-71.15693089552223682403564453125">
        <ele>671.79998779296875</ele>
        <time>2026-08-22T03:35:13.000Z</time>
        <extensions>
          <ns3:TrackPointExtension>
            <ns3:hr>136</ns3:hr>
            <ns3:cad>81</ns3:cad>
          </ns3:TrackPointExtension>
        </extensions>
      </trkpt>
      <trkpt lat="45.2673081122338771820068359375" lon="-71.15696727298200130462646484375">
        <ele>671.79998779296875</ele>
        <time>2026-08-22T03:35:14.000Z</time>
        <extensions>
          <ns3:TrackPointExtension>
            <ns3:hr>136</ns3:hr>
            <ns3:cad>83</ns3:cad>
          </ns3:TrackPointExtension>
        </extensions>
      </trkpt>
      <trkpt lat="45.26730786077678203582763671875" lon="-71.15700633265078067779541015625">
        <ele>671.5999755859375</ele>
        <time>2026-08-22T03:35:15.000Z</time>
        <extensions>
          <ns3:TrackPointExtension>
            <ns3:hr>136</ns3:hr>
            <ns3:cad>83</ns3:cad>
          </ns3:TrackPointExtension>
        </extensions>
      </trkpt>
      <trkpt lat="45.26730853132903575897216796875" lon="-71.15704606287181377410888671875">
        <ele>671.5999755859375</ele>
        <time>2026-08-22T03:35:16.000Z</time>
        <extensions>
          <ns3:TrackPointExtension>
            <ns3:hr>136</ns3:hr>
            <ns3:cad>83</ns3:cad>
          </ns3:TrackPointExtension>
        </extensions>
      </trkpt>
      <trkpt lat="45.26730953715741634368896484375" lon="-71.15707925520837306976318359375">
        <ele>671.5999755859375</ele>
        <time>2026-08-22T03:35:17.000Z</time>
        <extensions>
          <ns3:TrackPointExtension>
            <ns3:hr>137</ns3:hr>
            <ns3:cad>83</ns3:cad>
          </ns3:TrackPointExtension>
        </extensions>
      </trkpt>
      <trkpt lat="45.2673102915287017822265625" lon="-71.1571167223155498504638671875">
        <ele>671.4000244140625</ele>
        <time>2026-08-22T03:35:18.000Z</time>
        <extensions>
          <ns3:TrackPointExtension>
            <ns3:hr>136</ns3:hr>
            <ns3:cad>83</ns3:cad>
          </ns3:TrackPointExtension>
        </extensions>
      </trkpt>
      <trkpt lat="45.26731473393738269805908203125" lon="-71.15715301595628261566162109375">
        <ele>671.4000244140625</ele>
        <time>2026-08-22T03:35:19.000Z</time>
        <extensions>
          <ns3:TrackPointExtension>
            <ns3:hr>136</ns3:hr>
            <ns3:cad>83</ns3:cad>
          </ns3:TrackPointExtension>
        </extensions>
      </trkpt>
      <trkpt lat="45.267316661775112152099609375" lon="-71.1571861244738101959228515625">
        <ele>671.4000244140625</ele>
        <time>2026-08-22T03:35:20.000Z</time>
        <extensions>
          <ns3:TrackPointExtension>
            <ns3:hr>136</ns3:hr>
            <ns3:cad>83</ns3:cad>
          </ns3:TrackPointExtension>
        </extensions>
      </trkpt>
      <trkpt lat="45.26731825433671474456787109375" lon="-71.1572209931910037994384765625">
        <ele>671.20001220703125</ele>
        <time>2026-08-22T03:35:21.000Z</time>
        <extensions>
          <ns3:TrackPointExtension>
            <ns3:hr>136</ns3:hr>
            <ns3:cad>84</ns3:cad>
          </ns3:TrackPointExtension>
        </extensions>
      </trkpt>
      <trkpt lat="45.267322361469268798828125" lon="-71.1572577059268951416015625">
        <ele>671</ele>
        <time>2026-08-22T03:35:22.000Z</time>
        <extensions>
          <ns3:TrackPointExtension>
            <ns3:hr>136</ns3:hr>
            <ns3:cad>84</ns3:cad>
          </ns3:TrackPointExtension>
        </extensions>
      </trkpt>
      <trkpt lat="45.26732563041150569915771484375" lon="-71.1572853662073612213134765625">
        <ele>671</ele>
        <time>2026-08-22T03:35:23.000Z</time>
        <extensions>
          <ns3:TrackPointExtension>
            <ns3:hr>136</ns3:hr>
            <ns3:cad>84</ns3:cad>
          </ns3:TrackPointExtension>
        </extensions>
      </trkpt>
      <trkpt lat="45.26732881553471088409423828125" lon="-71.15730590187013149261474609375">
        <ele>670.79998779296875</ele>
        <time>2026-08-22T03:35:24.000Z</time>
        <extensions>
          <ns3:TrackPointExtension>
            <ns3:hr>135</ns3:hr>
            <ns3:cad>84</ns3:cad>
          </ns3:TrackPointExtension>
        </extensions>
      </trkpt>
      <trkpt lat="45.26732780970633029937744140625" lon="-71.157325096428394317626953125">
        <ele>670.79998779296875</ele>
        <time>2026-08-22T03:35:25.000Z</time>
        <extensions>
          <ns3:TrackPointExtension>
            <ns3:hr>135</ns3:hr>
            <ns3:cad>84</ns3:cad>
          </ns3:TrackPointExtension>
        </extensions>
      </trkpt>
      <trkpt lat="45.2673225291073322296142578125" lon="-71.15734345279633998870849609375">
        <ele>670.5999755859375</ele>
        <time>2026-08-22T03:35:26.000Z</time>
        <extensions>
          <ns3:TrackPointExtension>
            <ns3:hr>135</ns3:hr>
            <ns3:cad>84</ns3:cad>
          </ns3:TrackPointExtension>
        </extensions>
      </trkpt>
      <trkpt lat="45.2673228643834590911865234375" lon="-71.1573668383061885833740234375">
        <ele>670.79998779296875</ele>
        <time>2026-08-22T03:35:27.000Z</time>
        <extensions>
          <ns3:TrackPointExtension>
            <ns3:hr>134</ns3:hr>
            <ns3:cad>84</ns3:cad>
          </ns3:TrackPointExtension>
        </extensions>
      </trkpt>
      <trkpt lat="45.267318673431873321533203125" lon="-71.15738653577864170074462890625">
        <ele>670.79998779296875</ele>
        <time>2026-08-22T03:35:28.000Z</time>
        <extensions>
          <ns3:TrackPointExtension>
            <ns3:hr>134</ns3:hr>
            <ns3:cad>71</ns3:cad>
          </ns3:TrackPointExtension>
        </extensions>
      </trkpt>
      <trkpt lat="45.267314650118350982666015625" lon="-71.15741285495460033416748046875">
        <ele>670.79998779296875</ele>
        <time>2026-08-22T03:35:29.000Z</time>
        <extensions>
          <ns3:TrackPointExtension>
            <ns3:hr>134</ns3:hr>
            <ns3:cad>0</ns3:cad>
          </ns3:TrackPointExtension>
        </extensions>
      </trkpt>
      <trkpt lat="45.26730953715741634368896484375" lon="-71.15743565373122692108154296875">
        <ele>670.79998779296875</ele>
        <time>2026-08-22T03:35:30.000Z</time>
        <extensions>
          <ns3:TrackPointExtension>
            <ns3:hr>135</ns3:hr>
            <ns3:cad>0</ns3:cad>
          </ns3:TrackPointExtension>
        </extensions>
      </trkpt>
      <trkpt lat="45.26730702258646488189697265625" lon="-71.15745694376528263092041015625">
        <ele>670.79998779296875</ele>
        <time>2026-08-22T03:35:31.000Z</time>
        <extensions>
          <ns3:TrackPointExtension>
            <ns3:hr>134</ns3:hr>
            <ns3:cad>0</ns3:cad>
          </ns3:TrackPointExtension>
        </extensions>
      </trkpt>
      <trkpt lat="45.26730023324489593505859375" lon="-71.1574868671596050262451171875">
        <ele>670.5999755859375</ele>
        <time>2026-08-22T03:35:32.000Z</time>
        <extensions>
          <ns3:TrackPointExtension>
            <ns3:hr>134</ns3:hr>
            <ns3:cad>0</ns3:cad>
          </ns3:TrackPointExtension>
        </extensions>
      </trkpt>
      <trkpt lat="45.2672947011888027191162109375" lon="-71.1575173772871494293212890625">
        <ele>670.5999755859375</ele>
        <time>2026-08-22T03:35:33.000Z</time>
        <extensions>
          <ns3:TrackPointExtension>
            <ns3:hr>134</ns3:hr>
            <ns3:cad>77</ns3:cad>
          </ns3:TrackPointExtension>
        </extensions>
      </trkpt>
      <trkpt lat="45.26729042641818523406982421875" lon="-71.15754528902471065521240234375">
        <ele>670.5999755859375</ele>
        <time>2026-08-22T03:35:34.000Z</time>
        <extensions>
          <ns3:TrackPointExtension>
            <ns3:hr>133</ns3:hr>
            <ns3:cad>77</ns3:cad>
          </ns3:TrackPointExtension>
        </extensions>
      </trkpt>
      <trkpt lat="45.26728506200015544891357421875" lon="-71.1575854383409023284912109375">
        <ele>670.4000244140625</ele>
        <time>2026-08-22T03:35:35.000Z</time>
        <extensions>
          <ns3:TrackPointExtension>
            <ns3:hr>133</ns3:hr>
            <ns3:cad>77</ns3:cad>
          </ns3:TrackPointExtension>
        </extensions>
      </trkpt>
      <trkpt lat="45.26728237979114055633544921875" lon="-71.1576198041439056396484375">
        <ele>670.4000244140625</ele>
        <time>2026-08-22T03:35:36.000Z</time>
        <extensions>
          <ns3:TrackPointExtension>
            <ns3:hr>132</ns3:hr>
            <ns3:cad>79</ns3:cad>
          </ns3:TrackPointExtension>
        </extensions>
      </trkpt>
      <trkpt lat="45.2672742493450641632080078125" lon="-71.1576538346707820892333984375">
        <ele>670.4000244140625</ele>
        <time>2026-08-22T03:35:37.000Z</time>
        <extensions>
          <ns3:TrackPointExtension>
            <ns3:hr>132</ns3:hr>
            <ns3:cad>79</ns3:cad>
          </ns3:TrackPointExtension>
        </extensions>
      </trkpt>
      <trkpt lat="45.267264358699321746826171875" lon="-71.15769247524440288543701171875">
        <ele>670.20001220703125</ele>
        <time>2026-08-22T03:35:38.000Z</time>
        <extensions>
          <ns3:TrackPointExtension>
            <ns3:hr>132</ns3:hr>
            <ns3:cad>81</ns3:cad>
          </ns3:TrackPointExtension>
        </extensions>
      </trkpt>
      <trkpt lat="45.267263688147068023681640625" lon="-71.15773044526576995849609375">
        <ele>670</ele>
        <time>2026-08-22T03:35:39.000Z</time>
        <extensions>
          <ns3:TrackPointExtension>
            <ns3:hr>132</ns3:hr>
            <ns3:cad>81</ns3:cad>
          </ns3:TrackPointExtension>
        </extensions>
      </trkpt>
      <trkpt lat="45.26726134121417999267578125" lon="-71.15776472724974155426025390625">
        <ele>670</ele>
        <time>2026-08-22T03:35:40.000Z</time>
        <extensions>
          <ns3:TrackPointExtension>
            <ns3:hr>132</ns3:hr>
            <ns3:cad>83</ns3:cad>
          </ns3:TrackPointExtension>
        </extensions>
      </trkpt>
      <trkpt lat="45.2672601677477359771728515625" lon="-71.15780361928045749664306640625">
        <ele>669.79998779296875</ele>
        <time>2026-08-22T03:35:41.000Z</time>
        <extensions>
          <ns3:TrackPointExtension>
            <ns3:hr>132</ns3:hr>
            <ns3:cad>83</ns3:cad>
          </ns3:TrackPointExtension>
        </extensions>
      </trkpt>
      <trkpt lat="45.26725463569164276123046875" lon="-71.15783949382603168487548828125">
        <ele>669.4000244140625</ele>
        <time>2026-08-22T03:35:42.000Z</time>
        <extensions>
          <ns3:TrackPointExtension>
            <ns3:hr>132</ns3:hr>
            <ns3:cad>83</ns3:cad>
          </ns3:TrackPointExtension>
        </extensions>
      </trkpt>
      <trkpt lat="45.26724767871201038360595703125" lon="-71.15786815993487834930419921875">
        <ele>669.20001220703125</ele>
        <time>2026-08-22T03:35:43.000Z</time>
        <extensions>
          <ns3:TrackPointExtension>
            <ns3:hr>132</ns3:hr>
            <ns3:cad>81</ns3:cad>
          </ns3:TrackPointExtension>
        </extensions>
      </trkpt>
      <trkpt lat="45.26724348776042461395263671875" lon="-71.15790369920432567596435546875">
        <ele>668.79998779296875</ele>
        <time>2026-08-22T03:35:44.000Z</time>
        <extensions>
          <ns3:TrackPointExtension>
            <ns3:hr>133</ns3:hr>
            <ns3:cad>81</ns3:cad>
          </ns3:TrackPointExtension>
        </extensions>
      </trkpt>
      <trkpt lat="45.267242901027202606201171875" lon="-71.157938651740550994873046875">
        <ele>668.5999755859375</ele>
        <time>2026-08-22T03:35:45.000Z</time>
        <extensions>
          <ns3:TrackPointExtension>
            <ns3:hr>132</ns3:hr>
            <ns3:cad>81</ns3:cad>
          </ns3:TrackPointExtension>
        </extensions>
      </trkpt>
      <trkpt lat="45.26723996736109256744384765625" lon="-71.15797226317226886749267578125">
        <ele>668.4000244140625</ele>
        <time>2026-08-22T03:35:46.000Z</time>
        <extensions>
          <ns3:TrackPointExtension>
            <ns3:hr>132</ns3:hr>
            <ns3:cad>81</ns3:cad>
          </ns3:TrackPointExtension>
        </extensions>
      </trkpt>
      <trkpt lat="45.26723342947661876678466796875" lon="-71.1580025218427181243896484375">
        <ele>668.20001220703125</ele>
        <time>2026-08-22T03:35:47.000Z</time>
        <extensions>
          <ns3:TrackPointExtension>
            <ns3:hr>132</ns3:hr>
            <ns3:cad>80</ns3:cad>
          </ns3:TrackPointExtension>
        </extensions>
      </trkpt>
      <trkpt lat="45.26722756214439868927001953125" lon="-71.15803160704672336578369140625">
        <ele>668</ele>
        <time>2026-08-22T03:35:48.000Z</time>
        <extensions>
          <ns3:TrackPointExtension>
            <ns3:hr>133</ns3:hr>
            <ns3:cad>80</ns3:cad>
          </ns3:TrackPointExtension>
        </extensions>
      </trkpt>
      <trkpt lat="45.2672212757170200347900390625" lon="-71.1580591835081577301025390625">
        <ele>667.79998779296875</ele>
        <time>2026-08-22T03:35:49.000Z</time>
        <extensions>
          <ns3:TrackPointExtension>
            <ns3:hr>132</ns3:hr>
            <ns3:cad>80</ns3:cad>
          </ns3:TrackPointExtension>
        </extensions>
      </trkpt>
      <trkpt lat="45.26721985079348087310791015625" lon="-71.15808759815990924835205078125">
        <ele>667.5999755859375</ele>
        <time>2026-08-22T03:35:50.000Z</time>
        <extensions>
          <ns3:TrackPointExtension>
            <ns3:hr>132</ns3:hr>
            <ns3:cad>81</ns3:cad>
          </ns3:TrackPointExtension>
        </extensions>
      </trkpt>
      <trkpt lat="45.267218090593814849853515625" lon="-71.158117689192295074462890625">
        <ele>667.4000244140625</ele>
        <time>2026-08-22T03:35:51.000Z</time>
        <extensions>
          <ns3:TrackPointExtension>
            <ns3:hr>133</ns3:hr>
            <ns3:cad>81</ns3:cad>
          </ns3:TrackPointExtension>
        </extensions>
      </trkpt>
      <trkpt lat="45.26722169481217861175537109375" lon="-71.1581535637378692626953125">
        <ele>667</ele>
        <time>2026-08-22T03:35:52.000Z</time>
        <extensions>
          <ns3:TrackPointExtension>
            <ns3:hr>133</ns3:hr>
            <ns3:cad>80</ns3:cad>
          </ns3:TrackPointExtension>
        </extensions>
      </trkpt>
      <trkpt lat="45.26721834205090999603271484375" lon="-71.15818315185606479644775390625">
        <ele>666.79998779296875</ele>
        <time>2026-08-22T03:35:53.000Z</time>
        <extensions>
          <ns3:TrackPointExtension>
            <ns3:hr>133</ns3:hr>
            <ns3:cad>79</ns3:cad>
          </ns3:TrackPointExtension>
        </extensions>
      </trkpt>
      <trkpt lat="45.2672115527093410491943359375" lon="-71.15820787847042083740234375">
        <ele>666.5999755859375</ele>
        <time>2026-08-22T03:35:54.000Z</time>
        <extensions>
          <ns3:TrackPointExtension>
            <ns3:hr>132</ns3:hr>
            <ns3:cad>79</ns3:cad>
          </ns3:TrackPointExtension>
        </extensions>
      </trkpt>
      <trkpt lat="45.267209708690643310546875" lon="-71.15824031643569469451904296875">
        <ele>666.4000244140625</ele>
        <time>2026-08-22T03:35:55.000Z</time>
        <extensions>
          <ns3:TrackPointExtension>
            <ns3:hr>133</ns3:hr>
            <ns3:cad>77</ns3:cad>
          </ns3:TrackPointExtension>
        </extensions>
      </trkpt>
      <trkpt lat="45.26722035370767116546630859375" lon="-71.158273257315158843994140625">
        <ele>666</ele>
        <time>2026-08-22T03:35:56.000Z</time>
        <extensions>
          <ns3:TrackPointExtension>
            <ns3:hr>133</ns3:hr>
            <ns3:cad>77</ns3:cad>
          </ns3:TrackPointExtension>
        </extensions>
      </trkpt>
      <trkpt lat="45.26722756214439868927001953125" lon="-71.15830787457525730133056640625">
        <ele>665.79998779296875</ele>
        <time>2026-08-22T03:35:57.000Z</time>
        <extensions>
          <ns3:TrackPointExtension>
            <ns3:hr>133</ns3:hr>
            <ns3:cad>78</ns3:cad>
          </ns3:TrackPointExtension>
        </extensions>
      </trkpt>
      <trkpt lat="45.2672380395233631134033203125" lon="-71.158340312540531158447265625">
        <ele>665.5999755859375</ele>
        <time>2026-08-22T03:35:58.000Z</time>
        <extensions>
          <ns3:TrackPointExtension>
            <ns3:hr>132</ns3:hr>
            <ns3:cad>78</ns3:cad>
          </ns3:TrackPointExtension>
        </extensions>
      </trkpt>
      <trkpt lat="45.267242230474948883056640625" lon="-71.15837291814386844635009765625">
        <ele>665.20001220703125</ele>
        <time>2026-08-22T03:35:59.000Z</time>
        <extensions>
          <ns3:TrackPointExtension>
            <ns3:hr>132</ns3:hr>
            <ns3:cad>78</ns3:cad>
          </ns3:TrackPointExtension>
        </extensions>
      </trkpt>
      <trkpt lat="45.26724616996943950653076171875" lon="-71.15840359590947628021240234375">
        <ele>665</ele>
        <time>2026-08-22T03:36:00.000Z</time>
        <extensions>
          <ns3:TrackPointExtension>
            <ns3:hr>131</ns3:hr>
            <ns3:cad>78</ns3:cad>
          </ns3:TrackPointExtension>
        </extensions>
      </trkpt>
      <trkpt lat="45.267251618206501007080078125" lon="-71.1584346927702426910400390625">
        <ele>664.5999755859375</ele>
        <time>2026-08-22T03:36:01.000Z</time>
        <extensions>
          <ns3:TrackPointExtension>
            <ns3:hr>131</ns3:hr>
            <ns3:cad>78</ns3:cad>
          </ns3:TrackPointExtension>
        </extensions>
      </trkpt>
      <trkpt lat="45.2672615088522434234619140625" lon="-71.1584662087261676788330078125">
        <ele>664.20001220703125</ele>
        <time>2026-08-22T03:36:02.000Z</time>
        <extensions>
          <ns3:TrackPointExtension>
            <ns3:hr>131</ns3:hr>
            <ns3:cad>78</ns3:cad>
          </ns3:TrackPointExtension>
        </extensions>
      </trkpt>
      <trkpt lat="45.26726678945124149322509765625" lon="-71.1584937013685703277587890625">
        <ele>663.79998779296875</ele>
        <time>2026-08-22T03:36:03.000Z</time>
        <extensions>
          <ns3:TrackPointExtension>
            <ns3:hr>130</ns3:hr>
            <ns3:cad>78</ns3:cad>
          </ns3:TrackPointExtension>
        </extensions>
      </trkpt>
      <trkpt lat="45.26727081276476383209228515625" lon="-71.15852647460997104644775390625">
        <ele>663.4000244140625</ele>
        <time>2026-08-22T03:36:04.000Z</time>
        <extensions>
          <ns3:TrackPointExtension>
            <ns3:hr>130</ns3:hr>
            <ns3:cad>78</ns3:cad>
          </ns3:TrackPointExtension>
        </extensions>
      </trkpt>
      <trkpt lat="45.267275087535381317138671875" lon="-71.15855715237557888031005859375">
        <ele>662.79998779296875</ele>
        <time>2026-08-22T03:36:05.000Z</time>
        <extensions>
          <ns3:TrackPointExtension>
            <ns3:hr>130</ns3:hr>
            <ns3:cad>78</ns3:cad>
          </ns3:TrackPointExtension>
        </extensions>
      </trkpt>
      <trkpt lat="45.2672792784869670867919921875" lon="-71.15858363918960094451904296875">
        <ele>662.4000244140625</ele>
        <time>2026-08-22T03:36:06.000Z</time>
        <extensions>
          <ns3:TrackPointExtension>
            <ns3:hr>129</ns3:hr>
            <ns3:cad>78</ns3:cad>
          </ns3:TrackPointExtension>
        </extensions>
      </trkpt>
      <trkpt lat="45.26728305034339427947998046875" lon="-71.15861582569777965545654296875">
        <ele>662</ele>
        <time>2026-08-22T03:36:07.000Z</time>
        <extensions>
          <ns3:TrackPointExtension>
            <ns3:hr>129</ns3:hr>
            <ns3:cad>83</ns3:cad>
          </ns3:TrackPointExtension>
        </extensions>
      </trkpt>
      <trkpt lat="45.2672886662185192108154296875" lon="-71.1586485989391803741455078125">
        <ele>661.5999755859375</ele>
        <time>2026-08-22T03:36:08.000Z</time>
        <extensions>
          <ns3:TrackPointExtension>
            <ns3:hr>128</ns3:hr>
            <ns3:cad>83</ns3:cad>
          </ns3:TrackPointExtension>
        </extensions>
      </trkpt>
      <trkpt lat="45.26729377917945384979248046875" lon="-71.158680617809295654296875">
        <ele>661.4000244140625</ele>
        <time>2026-08-22T03:36:09.000Z</time>
        <extensions>
          <ns3:TrackPointExtension>
            <ns3:hr>128</ns3:hr>
            <ns3:cad>83</ns3:cad>
          </ns3:TrackPointExtension>
        </extensions>
      </trkpt>
      <trkpt lat="45.26729780249297618865966796875" lon="-71.15871640853583812713623046875">
        <ele>661</ele>
        <time>2026-08-22T03:36:10.000Z</time>
        <extensions>
          <ns3:TrackPointExtension>
            <ns3:hr>128</ns3:hr>
            <ns3:cad>83</ns3:cad>
          </ns3:TrackPointExtension>
        </extensions>
      </trkpt>
      <trkpt lat="45.2672990597784519195556640625" lon="-71.1587475053966045379638671875">
        <ele>660.5999755859375</ele>
        <time>2026-08-22T03:36:11.000Z</time>
        <extensions>
          <ns3:TrackPointExtension>
            <ns3:hr>128</ns3:hr>
            <ns3:cad>83</ns3:cad>
          </ns3:TrackPointExtension>
        </extensions>
      </trkpt>
      <trkpt lat="45.26729780249297618865966796875" lon="-71.15878011099994182586669921875">
        <ele>660.20001220703125</ele>
        <time>2026-08-22T03:36:12.000Z</time>
        <extensions>
          <ns3:TrackPointExtension>
            <ns3:hr>127</ns3:hr>
            <ns3:cad>83</ns3:cad>
          </ns3:TrackPointExtension>
        </extensions>
      </trkpt>
      <trkpt lat="45.26730232872068881988525390625" lon="-71.15881598554551601409912109375">
        <ele>659.79998779296875</ele>
        <time>2026-08-22T03:36:13.000Z</time>
        <extensions>
          <ns3:TrackPointExtension>
            <ns3:hr>129</ns3:hr>
            <ns3:cad>83</ns3:cad>
          </ns3:TrackPointExtension>
        </extensions>
      </trkpt>
      <trkpt lat="45.267307274043560028076171875" lon="-71.158843226730823516845703125">
        <ele>659.4000244140625</ele>
        <time>2026-08-22T03:36:14.000Z</time>
        <extensions>
          <ns3:TrackPointExtension>
            <ns3:hr>129</ns3:hr>
            <ns3:cad>41</ns3:cad>
          </ns3:TrackPointExtension>
        </extensions>
      </trkpt>
      <trkpt lat="45.26730836369097232818603515625" lon="-71.15887172520160675048828125">
        <ele>659.20001220703125</ele>
        <time>2026-08-22T03:36:15.000Z</time>
        <extensions>
          <ns3:TrackPointExtension>
            <ns3:hr>130</ns3:hr>
            <ns3:cad>41</ns3:cad>
          </ns3:TrackPointExtension>
        </extensions>
      </trkpt>
      <trkpt lat="45.267307274043560028076171875" lon="-71.15890231914818286895751953125">
        <ele>658.79998779296875</ele>
        <time>2026-08-22T03:36:16.000Z</time>
        <extensions>
          <ns3:TrackPointExtension>
            <ns3:hr>130</ns3:hr>
            <ns3:cad>41</ns3:cad>
          </ns3:TrackPointExtension>
        </extensions>
      </trkpt>
      <trkpt lat="45.2673077769577503204345703125" lon="-71.15893073379993438720703125">
        <ele>658.5999755859375</ele>
        <time>2026-08-22T03:36:17.000Z</time>
        <extensions>
          <ns3:TrackPointExtension>
            <ns3:hr>130</ns3:hr>
            <ns3:cad>41</ns3:cad>
          </ns3:TrackPointExtension>
        </extensions>
      </trkpt>
      <trkpt lat="45.26731121353805065155029296875" lon="-71.15896065719425678253173828125">
        <ele>658.4000244140625</ele>
        <time>2026-08-22T03:36:18.000Z</time>
        <extensions>
          <ns3:TrackPointExtension>
            <ns3:hr>130</ns3:hr>
            <ns3:cad>41</ns3:cad>
          </ns3:TrackPointExtension>
        </extensions>
      </trkpt>
      <trkpt lat="45.26730886660516262054443359375" lon="-71.15899267606437206268310546875">
        <ele>658</ele>
        <time>2026-08-22T03:36:19.000Z</time>
        <extensions>
          <ns3:TrackPointExtension>
            <ns3:hr>129</ns3:hr>
            <ns3:cad>41</ns3:cad>
          </ns3:TrackPointExtension>
        </extensions>
      </trkpt>
      <trkpt lat="45.26730157434940338134765625" lon="-71.159020923078060150146484375">
        <ele>657.79998779296875</ele>
        <time>2026-08-22T03:36:20.000Z</time>
        <extensions>
          <ns3:TrackPointExtension>
            <ns3:hr>129</ns3:hr>
            <ns3:cad>41</ns3:cad>
          </ns3:TrackPointExtension>
        </extensions>
      </trkpt>
      <trkpt lat="45.26730484329164028167724609375" lon="-71.15905235521495342254638671875">
        <ele>657.5999755859375</ele>
        <time>2026-08-22T03:36:21.000Z</time>
        <extensions>
          <ns3:TrackPointExtension>
            <ns3:hr>128</ns3:hr>
            <ns3:cad>41</ns3:cad>
          </ns3:TrackPointExtension>
        </extensions>
      </trkpt>
      <trkpt lat="45.26730903424322605133056640625" lon="-71.15909166634082794189453125">
        <ele>657.20001220703125</ele>
        <time>2026-08-22T03:36:22.000Z</time>
        <extensions>
          <ns3:TrackPointExtension>
            <ns3:hr>128</ns3:hr>
            <ns3:cad>41</ns3:cad>
          </ns3:TrackPointExtension>
        </extensions>
      </trkpt>
      <trkpt lat="45.2673089504241943359375" lon="-71.15912812761962413787841796875">
        <ele>656.79998779296875</ele>
        <time>2026-08-22T03:36:23.000Z</time>
        <extensions>
          <ns3:TrackPointExtension>
            <ns3:hr>128</ns3:hr>
            <ns3:cad>41</ns3:cad>
          </ns3:TrackPointExtension>
        </extensions>
      </trkpt>
      <trkpt lat="45.267307944595813751220703125" lon="-71.1591575480997562408447265625">
        <ele>656.5999755859375</ele>
        <time>2026-08-22T03:36:24.000Z</time>
        <extensions>
          <ns3:TrackPointExtension>
            <ns3:hr>128</ns3:hr>
            <ns3:cad>41</ns3:cad>
          </ns3:TrackPointExtension>
        </extensions>
      </trkpt>
      <trkpt lat="45.2673071064054965972900390625" lon="-71.1591900698840618133544921875">
        <ele>656.4000244140625</ele>
        <time>2026-08-22T03:36:25.000Z</time>
        <extensions>
          <ns3:TrackPointExtension>
            <ns3:hr>128</ns3:hr>
            <ns3:cad>41</ns3:cad>
          </ns3:TrackPointExtension>
        </extensions>
      </trkpt>
      <trkpt lat="45.26730651967227458953857421875" lon="-71.15921580232679843902587890625">
        <ele>656.20001220703125</ele>
        <time>2026-08-22T03:36:26.000Z</time>
        <extensions>
          <ns3:TrackPointExtension>
            <ns3:hr>128</ns3:hr>
            <ns3:cad>41</ns3:cad>
          </ns3:TrackPointExtension>
        </extensions>
      </trkpt>
      <trkpt lat="45.2673111297190189361572265625" lon="-71.159254610538482666015625">
        <ele>655.79998779296875</ele>
        <time>2026-08-22T03:36:27.000Z</time>
        <extensions>
          <ns3:TrackPointExtension>
            <ns3:hr>128</ns3:hr>
            <ns3:cad>41</ns3:cad>
          </ns3:TrackPointExtension>
        </extensions>
      </trkpt>
      <trkpt lat="45.2673101238906383514404296875" lon="-71.15929283201694488525390625">
        <ele>655.5999755859375</ele>
        <time>2026-08-22T03:36:28.000Z</time>
        <extensions>
          <ns3:TrackPointExtension>
            <ns3:hr>128</ns3:hr>
            <ns3:cad>80</ns3:cad>
          </ns3:TrackPointExtension>
        </extensions>
      </trkpt>
      <trkpt lat="45.26730802841484546661376953125" lon="-71.159333400428295135498046875">
        <ele>655.4000244140625</ele>
        <time>2026-08-22T03:36:29.000Z</time>
        <extensions>
          <ns3:TrackPointExtension>
            <ns3:hr>128</ns3:hr>
            <ns3:cad>80</ns3:cad>
          </ns3:TrackPointExtension>
        </extensions>
      </trkpt>
      <trkpt lat="45.2673091180622577667236328125" lon="-71.159372627735137939453125">
        <ele>655</ele>
        <time>2026-08-22T03:36:30.000Z</time>
        <extensions>
          <ns3:TrackPointExtension>
            <ns3:hr>128</ns3:hr>
            <ns3:cad>40</ns3:cad>
          </ns3:TrackPointExtension>
        </extensions>
      </trkpt>
      <trkpt lat="45.267315320670604705810546875" lon="-71.1594069935381412506103515625">
        <ele>655</ele>
        <time>2026-08-22T03:36:31.000Z</time>
        <extensions>
          <ns3:TrackPointExtension>
            <ns3:hr>128</ns3:hr>
            <ns3:cad>40</ns3:cad>
          </ns3:TrackPointExtension>
        </extensions>
      </trkpt>
      <trkpt lat="45.2673114649951457977294921875" lon="-71.15943775512278079986572265625">
        <ele>654.5999755859375</ele>
        <time>2026-08-22T03:36:32.000Z</time>
        <extensions>
          <ns3:TrackPointExtension>
            <ns3:hr>128</ns3:hr>
            <ns3:cad>40</ns3:cad>
          </ns3:TrackPointExtension>
        </extensions>
      </trkpt>
      <trkpt lat="45.2673111297190189361572265625" lon="-71.15946717560291290283203125">
        <ele>654.4000244140625</ele>
        <time>2026-08-22T03:36:33.000Z</time>
        <extensions>
          <ns3:TrackPointExtension>
            <ns3:hr>129</ns3:hr>
            <ns3:cad>40</ns3:cad>
          </ns3:TrackPointExtension>
        </extensions>
      </trkpt>
      <trkpt lat="45.267316661775112152099609375" lon="-71.1594988591969013214111328125">
        <ele>654.20001220703125</ele>
        <time>2026-08-22T03:36:34.000Z</time>
        <extensions>
          <ns3:TrackPointExtension>
            <ns3:hr>128</ns3:hr>
            <ns3:cad>40</ns3:cad>
          </ns3:TrackPointExtension>
        </extensions>
      </trkpt>
      <trkpt lat="45.2673195116221904754638671875" lon="-71.1595354042947292327880859375">
        <ele>653.79998779296875</ele>
        <time>2026-08-22T03:36:35.000Z</time>
        <extensions>
          <ns3:TrackPointExtension>
            <ns3:hr>128</ns3:hr>
            <ns3:cad>40</ns3:cad>
          </ns3:TrackPointExtension>
        </extensions>
      </trkpt>
      <trkpt lat="45.26732194237411022186279296875" lon="-71.15956784226000308990478515625">
        <ele>653.4000244140625</ele>
        <time>2026-08-22T03:36:36.000Z</time>
        <extensions>
          <ns3:TrackPointExtension>
            <ns3:hr>128</ns3:hr>
            <ns3:cad>81</ns3:cad>
          </ns3:TrackPointExtension>
        </extensions>
      </trkpt>
      <trkpt lat="45.26732194237411022186279296875" lon="-71.15959768183529376983642578125">
        <ele>653.20001220703125</ele>
        <time>2026-08-22T03:36:37.000Z</time>
        <extensions>
          <ns3:TrackPointExtension>
            <ns3:hr>128</ns3:hr>
            <ns3:cad>81</ns3:cad>
          </ns3:TrackPointExtension>
        </extensions>
      </trkpt>
      <trkpt lat="45.2673237025737762451171875" lon="-71.159629784524440765380859375">
        <ele>652.79998779296875</ele>
        <time>2026-08-22T03:36:38.000Z</time>
        <extensions>
          <ns3:TrackPointExtension>
            <ns3:hr>128</ns3:hr>
            <ns3:cad>80</ns3:cad>
          </ns3:TrackPointExtension>
        </extensions>
      </trkpt>
      <trkpt lat="45.267325378954410552978515625" lon="-71.15966700017452239990234375">
        <ele>652.5999755859375</ele>
        <time>2026-08-22T03:36:39.000Z</time>
        <extensions>
          <ns3:TrackPointExtension>
            <ns3:hr>129</ns3:hr>
            <ns3:cad>80</ns3:cad>
          </ns3:TrackPointExtension>
        </extensions>
      </trkpt>
      <trkpt lat="45.26732680387794971466064453125" lon="-71.1596990190446376800537109375">
        <ele>652.20001220703125</ele>
        <time>2026-08-22T03:36:40.000Z</time>
        <extensions>
          <ns3:TrackPointExtension>
            <ns3:hr>129</ns3:hr>
            <ns3:cad>81</ns3:cad>
          </ns3:TrackPointExtension>
        </extensions>
      </trkpt>
      <trkpt lat="45.26732646860182285308837890625" lon="-71.159736402332782745361328125">
        <ele>652</ele>
        <time>2026-08-22T03:36:41.000Z</time>
        <extensions>
          <ns3:TrackPointExtension>
            <ns3:hr>129</ns3:hr>
            <ns3:cad>81</ns3:cad>
          </ns3:TrackPointExtension>
        </extensions>
      </trkpt>
      <trkpt lat="45.26732378639280796051025390625" lon="-71.15977001376450061798095703125">
        <ele>651.5999755859375</ele>
        <time>2026-08-22T03:36:42.000Z</time>
        <extensions>
          <ns3:TrackPointExtension>
            <ns3:hr>129</ns3:hr>
            <ns3:cad>81</ns3:cad>
          </ns3:TrackPointExtension>
        </extensions>
      </trkpt>
      <trkpt lat="45.267324708402156829833984375" lon="-71.15980739705264568328857421875">
        <ele>651.4000244140625</ele>
        <time>2026-08-22T03:36:43.000Z</time>
        <extensions>
          <ns3:TrackPointExtension>
            <ns3:hr>128</ns3:hr>
            <ns3:cad>81</ns3:cad>
          </ns3:TrackPointExtension>
        </extensions>
      </trkpt>
      <trkpt lat="45.26732915081083774566650390625" lon="-71.15984930656850337982177734375">
        <ele>651</ele>
        <time>2026-08-22T03:36:44.000Z</time>
        <extensions>
          <ns3:TrackPointExtension>
            <ns3:hr>129</ns3:hr>
            <ns3:cad>81</ns3:cad>
          </ns3:TrackPointExtension>
        </extensions>
      </trkpt>
      <trkpt lat="45.26732831262052059173583984375" lon="-71.15988769568502902984619140625">
        <ele>650.79998779296875</ele>
        <time>2026-08-22T03:36:45.000Z</time>
        <extensions>
          <ns3:TrackPointExtension>
            <ns3:hr>129</ns3:hr>
            <ns3:cad>81</ns3:cad>
          </ns3:TrackPointExtension>
        </extensions>
      </trkpt>
      <trkpt lat="45.26732973754405975341796875" lon="-71.15992222912609577178955078125">
        <ele>650.4000244140625</ele>
        <time>2026-08-22T03:36:46.000Z</time>
        <extensions>
          <ns3:TrackPointExtension>
            <ns3:hr>129</ns3:hr>
            <ns3:cad>81</ns3:cad>
          </ns3:TrackPointExtension>
        </extensions>
      </trkpt>
      <trkpt lat="45.267332084476947784423828125" lon="-71.1599560081958770751953125">
        <ele>650.20001220703125</ele>
        <time>2026-08-22T03:36:47.000Z</time>
        <extensions>
          <ns3:TrackPointExtension>
            <ns3:hr>129</ns3:hr>
            <ns3:cad>41</ns3:cad>
          </ns3:TrackPointExtension>
        </extensions>
      </trkpt>
      <trkpt lat="45.2673325873911380767822265625" lon="-71.1599933914840221405029296875">
        <ele>649.79998779296875</ele>
        <time>2026-08-22T03:36:48.000Z</time>
        <extensions>
          <ns3:TrackPointExtension>
            <ns3:hr>129</ns3:hr>
            <ns3:cad>41</ns3:cad>
          </ns3:TrackPointExtension>
        </extensions>
      </trkpt>
      <trkpt lat="45.26733183301985263824462890625" lon="-71.16002784110605716705322265625">
        <ele>649.4000244140625</ele>
        <time>2026-08-22T03:36:49.000Z</time>
        <extensions>
          <ns3:TrackPointExtension>
            <ns3:hr>129</ns3:hr>
            <ns3:cad>41</ns3:cad>
          </ns3:TrackPointExtension>
        </extensions>
      </trkpt>
      <trkpt lat="45.2673322521150112152099609375" lon="-71.16006824187934398651123046875">
        <ele>649.20001220703125</ele>
        <time>2026-08-22T03:36:50.000Z</time>
        <extensions>
          <ns3:TrackPointExtension>
            <ns3:hr>128</ns3:hr>
            <ns3:cad>41</ns3:cad>
          </ns3:TrackPointExtension>
        </extensions>
      </trkpt>
      <trkpt lat="45.26733267121016979217529296875" lon="-71.16010294295847415924072265625">
        <ele>649</ele>
        <time>2026-08-22T03:36:51.000Z</time>
        <extensions>
          <ns3:TrackPointExtension>
            <ns3:hr>129</ns3:hr>
            <ns3:cad>41</ns3:cad>
          </ns3:TrackPointExtension>
        </extensions>
      </trkpt>
      <trkpt lat="45.26733376085758209228515625" lon="-71.160132028162479400634765625">
        <ele>648.79998779296875</ele>
        <time>2026-08-22T03:36:52.000Z</time>
        <extensions>
          <ns3:TrackPointExtension>
            <ns3:hr>129</ns3:hr>
            <ns3:cad>41</ns3:cad>
          </ns3:TrackPointExtension>
        </extensions>
      </trkpt>
      <trkpt lat="45.26733904145658016204833984375" lon="-71.1601673997938632965087890625">
        <ele>648.4000244140625</ele>
        <time>2026-08-22T03:36:53.000Z</time>
        <extensions>
          <ns3:TrackPointExtension>
            <ns3:hr>131</ns3:hr>
            <ns3:cad>41</ns3:cad>
          </ns3:TrackPointExtension>
        </extensions>
      </trkpt>
      <trkpt lat="45.26733954437077045440673828125" lon="-71.16019497625529766082763671875">
        <ele>648.20001220703125</ele>
        <time>2026-08-22T03:36:54.000Z</time>
        <extensions>
          <ns3:TrackPointExtension>
            <ns3:hr>131</ns3:hr>
            <ns3:cad>41</ns3:cad>
          </ns3:TrackPointExtension>
        </extensions>
      </trkpt>
      <trkpt lat="45.26734004728496074676513671875" lon="-71.16022028960287570953369140625">
        <ele>647.79998779296875</ele>
        <time>2026-08-22T03:36:55.000Z</time>
        <extensions>
          <ns3:TrackPointExtension>
            <ns3:hr>130</ns3:hr>
            <ns3:cad>42</ns3:cad>
          </ns3:TrackPointExtension>
        </extensions>
      </trkpt>
      <trkpt lat="45.267338454723358154296875" lon="-71.16025180555880069732666015625">
        <ele>647.5999755859375</ele>
        <time>2026-08-22T03:36:56.000Z</time>
        <extensions>
          <ns3:TrackPointExtension>
            <ns3:hr>130</ns3:hr>
            <ns3:cad>42</ns3:cad>
          </ns3:TrackPointExtension>
        </extensions>
      </trkpt>
      <trkpt lat="45.267330743372440338134765625" lon="-71.160276867449283599853515625">
        <ele>647.20001220703125</ele>
        <time>2026-08-22T03:36:57.000Z</time>
        <extensions>
          <ns3:TrackPointExtension>
            <ns3:hr>129</ns3:hr>
            <ns3:cad>42</ns3:cad>
          </ns3:TrackPointExtension>
        </extensions>
      </trkpt>
      <trkpt lat="45.26732596568763256072998046875" lon="-71.16031735204160213470458984375">
        <ele>647</ele>
        <time>2026-08-22T03:36:58.000Z</time>
        <extensions>
          <ns3:TrackPointExtension>
            <ns3:hr>128</ns3:hr>
            <ns3:cad>42</ns3:cad>
          </ns3:TrackPointExtension>
        </extensions>
      </trkpt>
      <trkpt lat="45.26732462458312511444091796875" lon="-71.16035171784460544586181640625">
        <ele>646.79998779296875</ele>
        <time>2026-08-22T03:36:59.000Z</time>
        <extensions>
          <ns3:TrackPointExtension>
            <ns3:hr>127</ns3:hr>
            <ns3:cad>42</ns3:cad>
          </ns3:TrackPointExtension>
        </extensions>
      </trkpt>
      <trkpt lat="45.2673252113163471221923828125" lon="-71.1603796295821666717529296875">
        <ele>646.4000244140625</ele>
        <time>2026-08-22T03:37:00.000Z</time>
        <extensions>
          <ns3:TrackPointExtension>
            <ns3:hr>127</ns3:hr>
            <ns3:cad>0</ns3:cad>
          </ns3:TrackPointExtension>
        </extensions>
      </trkpt>
      <trkpt lat="45.26732646860182285308837890625" lon="-71.16042648442089557647705078125">
        <ele>646.20001220703125</ele>
        <time>2026-08-22T03:37:01.000Z</time>
        <extensions>
          <ns3:TrackPointExtension>
            <ns3:hr>127</ns3:hr>
            <ns3:cad>0</ns3:cad>
          </ns3:TrackPointExtension>
        </extensions>
      </trkpt>
      <trkpt lat="45.267328731715679168701171875" lon="-71.1604664660990238189697265625">
        <ele>645.79998779296875</ele>
        <time>2026-08-22T03:37:02.000Z</time>
        <extensions>
          <ns3:TrackPointExtension>
            <ns3:hr>127</ns3:hr>
            <ns3:cad>0</ns3:cad>
          </ns3:TrackPointExtension>
        </extensions>
      </trkpt>
      <trkpt lat="45.26732797734439373016357421875" lon="-71.1605016700923442840576171875">
        <ele>645.4000244140625</ele>
        <time>2026-08-22T03:37:03.000Z</time>
        <extensions>
          <ns3:TrackPointExtension>
            <ns3:hr>127</ns3:hr>
            <ns3:cad>0</ns3:cad>
          </ns3:TrackPointExtension>
        </extensions>
      </trkpt>
      <trkpt lat="45.2673282288014888763427734375" lon="-71.1605378799140453338623046875">
        <ele>645.20001220703125</ele>
        <time>2026-08-22T03:37:04.000Z</time>
        <extensions>
          <ns3:TrackPointExtension>
            <ns3:hr>127</ns3:hr>
            <ns3:cad>0</ns3:cad>
          </ns3:TrackPointExtension>
        </extensions>
      </trkpt>
      <trkpt lat="45.26733216829597949981689453125" lon="-71.16057568229734897613525390625">
        <ele>644.5999755859375</ele>
        <time>2026-08-22T03:37:05.000Z</time>
        <extensions>
          <ns3:TrackPointExtension>
            <ns3:hr>128</ns3:hr>
            <ns3:cad>0</ns3:cad>
          </ns3:TrackPointExtension>
        </extensions>
      </trkpt>
      <trkpt lat="45.26733384467661380767822265625" lon="-71.16060166619718074798583984375">
        <ele>644.20001220703125</ele>
        <time>2026-08-22T03:37:06.000Z</time>
        <extensions>
          <ns3:TrackPointExtension>
            <ns3:hr>128</ns3:hr>
            <ns3:cad>41</ns3:cad>
          </ns3:TrackPointExtension>
        </extensions>
      </trkpt>
      <trkpt lat="45.26733686216175556182861328125" lon="-71.1606387980282306671142578125">
        <ele>644</ele>
        <time>2026-08-22T03:37:07.000Z</time>
        <extensions>
          <ns3:TrackPointExtension>
            <ns3:hr>129</ns3:hr>
            <ns3:cad>41</ns3:cad>
          </ns3:TrackPointExtension>
        </extensions>
      </trkpt>
      <trkpt lat="45.267334096133708953857421875" lon="-71.16067375056445598602294921875">
        <ele>643.5999755859375</ele>
        <time>2026-08-22T03:37:08.000Z</time>
        <extensions>
          <ns3:TrackPointExtension>
            <ns3:hr>130</ns3:hr>
            <ns3:cad>41</ns3:cad>
          </ns3:TrackPointExtension>
        </extensions>
      </trkpt>
      <trkpt lat="45.26733577251434326171875" lon="-71.1607021652162075042724609375">
        <ele>643.4000244140625</ele>
        <time>2026-08-22T03:37:09.000Z</time>
        <extensions>
          <ns3:TrackPointExtension>
            <ns3:hr>129</ns3:hr>
            <ns3:cad>41</ns3:cad>
          </ns3:TrackPointExtension>
        </extensions>
      </trkpt>
      <trkpt lat="45.267338119447231292724609375" lon="-71.16072856821119785308837890625">
        <ele>643</ele>
        <time>2026-08-22T03:37:10.000Z</time>
        <extensions>
          <ns3:TrackPointExtension>
            <ns3:hr>129</ns3:hr>
            <ns3:cad>41</ns3:cad>
          </ns3:TrackPointExtension>
        </extensions>
      </trkpt>
      <trkpt lat="45.26733853854238986968994140625" lon="-71.16076947189867496490478515625">
        <ele>642.5999755859375</ele>
        <time>2026-08-22T03:37:11.000Z</time>
        <extensions>
          <ns3:TrackPointExtension>
            <ns3:hr>129</ns3:hr>
            <ns3:cad>41</ns3:cad>
          </ns3:TrackPointExtension>
        </extensions>
      </trkpt>
      <trkpt lat="45.2673406340181827545166015625" lon="-71.16080299951136112213134765625">
        <ele>642.20001220703125</ele>
        <time>2026-08-22T03:37:12.000Z</time>
        <extensions>
          <ns3:TrackPointExtension>
            <ns3:hr>130</ns3:hr>
            <ns3:cad>41</ns3:cad>
          </ns3:TrackPointExtension>
        </extensions>
      </trkpt>
      <trkpt lat="45.26734373532235622406005859375" lon="-71.16083317436277866363525390625">
        <ele>641.79998779296875</ele>
        <time>2026-08-22T03:37:13.000Z</time>
        <extensions>
          <ns3:TrackPointExtension>
            <ns3:hr>130</ns3:hr>
            <ns3:cad>41</ns3:cad>
          </ns3:TrackPointExtension>
        </extensions>
      </trkpt>
      <trkpt lat="45.2673496864736080169677734375" lon="-71.1608733236789703369140625">
        <ele>641.5999755859375</ele>
        <time>2026-08-22T03:37:14.000Z</time>
        <extensions>
          <ns3:TrackPointExtension>
            <ns3:hr>130</ns3:hr>
            <ns3:cad>41</ns3:cad>
          </ns3:TrackPointExtension>
        </extensions>
      </trkpt>
      <trkpt lat="45.26735161431133747100830078125" lon="-71.1609006486833095550537109375">
        <ele>641.20001220703125</ele>
        <time>2026-08-22T03:37:15.000Z</time>
        <extensions>
          <ns3:TrackPointExtension>
            <ns3:hr>130</ns3:hr>
            <ns3:cad>41</ns3:cad>
          </ns3:TrackPointExtension>
        </extensions>
      </trkpt>
      <trkpt lat="45.26735245250165462493896484375" lon="-71.16092755459249019622802734375">
        <ele>641</ele>
        <time>2026-08-22T03:37:16.000Z</time>
        <extensions>
          <ns3:TrackPointExtension>
            <ns3:hr>130</ns3:hr>
            <ns3:cad>41</ns3:cad>
          </ns3:TrackPointExtension>
        </extensions>
      </trkpt>
      <trkpt lat="45.26735723018646240234375" lon="-71.160965524613857269287109375">
        <ele>640.5999755859375</ele>
        <time>2026-08-22T03:37:17.000Z</time>
        <extensions>
          <ns3:TrackPointExtension>
            <ns3:hr>130</ns3:hr>
            <ns3:cad>41</ns3:cad>
          </ns3:TrackPointExtension>
        </extensions>
      </trkpt>
      <trkpt lat="45.2673584036529064178466796875" lon="-71.160992346704006195068359375">
        <ele>640</ele>
        <time>2026-08-22T03:37:18.000Z</time>
        <extensions>
          <ns3:TrackPointExtension>
            <ns3:hr>130</ns3:hr>
            <ns3:cad>41</ns3:cad>
          </ns3:TrackPointExtension>
        </extensions>
      </trkpt>
      <trkpt lat="45.26735831983387470245361328125" lon="-71.16101858206093311309814453125">
        <ele>639.5999755859375</ele>
        <time>2026-08-22T03:37:19.000Z</time>
        <extensions>
          <ns3:TrackPointExtension>
            <ns3:hr>130</ns3:hr>
            <ns3:cad>41</ns3:cad>
          </ns3:TrackPointExtension>
        </extensions>
      </trkpt>
      <trkpt lat="45.26735647581517696380615234375" lon="-71.16104842163622379302978515625">
        <ele>639.20001220703125</ele>
        <time>2026-08-22T03:37:20.000Z</time>
        <extensions>
          <ns3:TrackPointExtension>
            <ns3:hr>130</ns3:hr>
            <ns3:cad>41</ns3:cad>
          </ns3:TrackPointExtension>
        </extensions>
      </trkpt>
      <trkpt lat="45.26735396124422550201416015625" lon="-71.161074824631214141845703125">
        <ele>638.5999755859375</ele>
        <time>2026-08-22T03:37:21.000Z</time>
        <extensions>
          <ns3:TrackPointExtension>
            <ns3:hr>130</ns3:hr>
            <ns3:cad>41</ns3:cad>
          </ns3:TrackPointExtension>
        </extensions>
      </trkpt>
      <trkpt lat="45.26735521852970123291015625" lon="-71.161104328930377960205078125">
        <ele>638.20001220703125</ele>
        <time>2026-08-22T03:37:22.000Z</time>
        <extensions>
          <ns3:TrackPointExtension>
            <ns3:hr>131</ns3:hr>
            <ns3:cad>41</ns3:cad>
          </ns3:TrackPointExtension>
        </extensions>
      </trkpt>
      <trkpt lat="45.26734859682619571685791015625" lon="-71.161133162677288055419921875">
        <ele>637.79998779296875</ele>
        <time>2026-08-22T03:37:23.000Z</time>
        <extensions>
          <ns3:TrackPointExtension>
            <ns3:hr>131</ns3:hr>
            <ns3:cad>43</ns3:cad>
          </ns3:TrackPointExtension>
        </extensions>
      </trkpt>
      <trkpt lat="45.26734574697911739349365234375" lon="-71.1611567996442317962646484375">
        <ele>637.4000244140625</ele>
        <time>2026-08-22T03:37:24.000Z</time>
        <extensions>
          <ns3:TrackPointExtension>
            <ns3:hr>131</ns3:hr>
            <ns3:cad>43</ns3:cad>
          </ns3:TrackPointExtension>
        </extensions>
      </trkpt>
      <trkpt lat="45.26735329069197177886962890625" lon="-71.1611930094659328460693359375">
        <ele>637</ele>
        <time>2026-08-22T03:37:25.000Z</time>
        <extensions>
          <ns3:TrackPointExtension>
            <ns3:hr>131</ns3:hr>
            <ns3:cad>86</ns3:cad>
          </ns3:TrackPointExtension>
        </extensions>
      </trkpt>
      <trkpt lat="45.2673533745110034942626953125" lon="-71.16122812964022159576416015625">
        <ele>636.5999755859375</ele>
        <time>2026-08-22T03:37:26.000Z</time>
        <extensions>
          <ns3:TrackPointExtension>
            <ns3:hr>131</ns3:hr>
            <ns3:cad>86</ns3:cad>
          </ns3:TrackPointExtension>
        </extensions>
      </trkpt>
      <trkpt lat="45.267355553805828094482421875" lon="-71.1612610705196857452392578125">
        <ele>636.20001220703125</ele>
        <time>2026-08-22T03:37:27.000Z</time>
        <extensions>
          <ns3:TrackPointExtension>
            <ns3:hr>131</ns3:hr>
            <ns3:cad>86</ns3:cad>
          </ns3:TrackPointExtension>
        </extensions>
      </trkpt>
      <trkpt lat="45.2673540450632572174072265625" lon="-71.16128361783921718597412109375">
        <ele>635.79998779296875</ele>
        <time>2026-08-22T03:37:28.000Z</time>
        <extensions>
          <ns3:TrackPointExtension>
            <ns3:hr>131</ns3:hr>
            <ns3:cad>86</ns3:cad>
          </ns3:TrackPointExtension>
        </extensions>
      </trkpt>
      <trkpt lat="45.26736116968095302581787109375" lon="-71.1613234318792819976806640625">
        <ele>635.5999755859375</ele>
        <time>2026-08-22T03:37:29.000Z</time>
        <extensions>
          <ns3:TrackPointExtension>
            <ns3:hr>131</ns3:hr>
            <ns3:cad>86</ns3:cad>
          </ns3:TrackPointExtension>
        </extensions>
      </trkpt>
      <trkpt lat="45.2673624269664287567138671875" lon="-71.1613614857196807861328125">
        <ele>635.4000244140625</ele>
        <time>2026-08-22T03:37:30.000Z</time>
        <extensions>
          <ns3:TrackPointExtension>
            <ns3:hr>131</ns3:hr>
            <ns3:cad>86</ns3:cad>
          </ns3:TrackPointExtension>
        </extensions>
      </trkpt>
      <trkpt lat="45.26736150495707988739013671875" lon="-71.16139610297977924346923828125">
        <ele>635</ele>
        <time>2026-08-22T03:37:31.000Z</time>
        <extensions>
          <ns3:TrackPointExtension>
            <ns3:hr>131</ns3:hr>
            <ns3:cad>86</ns3:cad>
          </ns3:TrackPointExtension>
        </extensions>
      </trkpt>
      <trkpt lat="45.267359912395477294921875" lon="-71.16143113933503627777099609375">
        <ele>634.5999755859375</ele>
        <time>2026-08-22T03:37:32.000Z</time>
        <extensions>
          <ns3:TrackPointExtension>
            <ns3:hr>131</ns3:hr>
            <ns3:cad>86</ns3:cad>
          </ns3:TrackPointExtension>
        </extensions>
      </trkpt>
      <trkpt lat="45.26736016385257244110107421875" lon="-71.16146584041416645050048828125">
        <ele>634.4000244140625</ele>
        <time>2026-08-22T03:37:33.000Z</time>
        <extensions>
          <ns3:TrackPointExtension>
            <ns3:hr>132</ns3:hr>
            <ns3:cad>86</ns3:cad>
          </ns3:TrackPointExtension>
        </extensions>
      </trkpt>
      <trkpt lat="45.26735865511000156402587890625" lon="-71.1614994518458843231201171875">
        <ele>634</ele>
        <time>2026-08-22T03:37:34.000Z</time>
        <extensions>
          <ns3:TrackPointExtension>
            <ns3:hr>133</ns3:hr>
            <ns3:cad>86</ns3:cad>
          </ns3:TrackPointExtension>
        </extensions>
      </trkpt>
      <trkpt lat="45.26735697872936725616455078125" lon="-71.161538176238536834716796875">
        <ele>633.79998779296875</ele>
        <time>2026-08-22T03:37:35.000Z</time>
        <extensions>
          <ns3:TrackPointExtension>
            <ns3:hr>134</ns3:hr>
            <ns3:cad>86</ns3:cad>
          </ns3:TrackPointExtension>
        </extensions>
      </trkpt>
      <trkpt lat="45.26735681109130382537841796875" lon="-71.16157530806958675384521484375">
        <ele>633.4000244140625</ele>
        <time>2026-08-22T03:37:36.000Z</time>
        <extensions>
          <ns3:TrackPointExtension>
            <ns3:hr>134</ns3:hr>
            <ns3:cad>86</ns3:cad>
          </ns3:TrackPointExtension>
        </extensions>
      </trkpt>
      <trkpt lat="45.2673560567200183868408203125" lon="-71.16160866804420948028564453125">
        <ele>633.20001220703125</ele>
        <time>2026-08-22T03:37:37.000Z</time>
        <extensions>
          <ns3:TrackPointExtension>
            <ns3:hr>134</ns3:hr>
            <ns3:cad>84</ns3:cad>
          </ns3:TrackPointExtension>
        </extensions>
      </trkpt>
      <trkpt lat="45.26735211722552776336669921875" lon="-71.161648146808147430419921875">
        <ele>632.79998779296875</ele>
        <time>2026-08-22T03:37:38.000Z</time>
        <extensions>
          <ns3:TrackPointExtension>
            <ns3:hr>133</ns3:hr>
            <ns3:cad>84</ns3:cad>
          </ns3:TrackPointExtension>
        </extensions>
      </trkpt>
      <trkpt lat="45.2673530392348766326904296875" lon="-71.16168402135372161865234375">
        <ele>632.5999755859375</ele>
        <time>2026-08-22T03:37:39.000Z</time>
        <extensions>
          <ns3:TrackPointExtension>
            <ns3:hr>132</ns3:hr>
            <ns3:cad>84</ns3:cad>
          </ns3:TrackPointExtension>
        </extensions>
      </trkpt>
      <trkpt lat="45.2673523686826229095458984375" lon="-71.16172400303184986114501953125">
        <ele>632.20001220703125</ele>
        <time>2026-08-22T03:37:40.000Z</time>
        <extensions>
          <ns3:TrackPointExtension>
            <ns3:hr>131</ns3:hr>
            <ns3:cad>84</ns3:cad>
          </ns3:TrackPointExtension>
        </extensions>
      </trkpt>
      <trkpt lat="45.26734893210232257843017578125" lon="-71.16175903938710689544677734375">
        <ele>632</ele>
        <time>2026-08-22T03:37:41.000Z</time>
        <extensions>
          <ns3:TrackPointExtension>
            <ns3:hr>131</ns3:hr>
            <ns3:cad>84</ns3:cad>
          </ns3:TrackPointExtension>
        </extensions>
      </trkpt>
      <trkpt lat="45.2673490159213542938232421875" lon="-71.16179692558944225311279296875">
        <ele>631.79998779296875</ele>
        <time>2026-08-22T03:37:42.000Z</time>
        <extensions>
          <ns3:TrackPointExtension>
            <ns3:hr>131</ns3:hr>
            <ns3:cad>84</ns3:cad>
          </ns3:TrackPointExtension>
        </extensions>
      </trkpt>
      <trkpt lat="45.26734842918813228607177734375" lon="-71.16182793863117694854736328125">
        <ele>631.4000244140625</ele>
        <time>2026-08-22T03:37:43.000Z</time>
        <extensions>
          <ns3:TrackPointExtension>
            <ns3:hr>131</ns3:hr>
            <ns3:cad>84</ns3:cad>
          </ns3:TrackPointExtension>
        </extensions>
      </trkpt>
      <trkpt lat="45.26734591461718082427978515625" lon="-71.1618602089583873748779296875">
        <ele>631.20001220703125</ele>
        <time>2026-08-22T03:37:44.000Z</time>
        <extensions>
          <ns3:TrackPointExtension>
            <ns3:hr>130</ns3:hr>
            <ns3:cad>84</ns3:cad>
          </ns3:TrackPointExtension>
        </extensions>
      </trkpt>
      <trkpt lat="45.2673466689884662628173828125" lon="-71.16189482621848583221435546875">
        <ele>631</ele>
        <time>2026-08-22T03:37:45.000Z</time>
        <extensions>
          <ns3:TrackPointExtension>
            <ns3:hr>130</ns3:hr>
            <ns3:cad>84</ns3:cad>
          </ns3:TrackPointExtension>
        </extensions>
      </trkpt>
      <trkpt lat="45.2673459984362125396728515625" lon="-71.16192667745053768157958984375">
        <ele>630.5999755859375</ele>
        <time>2026-08-22T03:37:46.000Z</time>
        <extensions>
          <ns3:TrackPointExtension>
            <ns3:hr>130</ns3:hr>
            <ns3:cad>84</ns3:cad>
          </ns3:TrackPointExtension>
        </extensions>
      </trkpt>
      <trkpt lat="45.26734373532235622406005859375" lon="-71.16195836104452610015869140625">
        <ele>630.20001220703125</ele>
        <time>2026-08-22T03:37:47.000Z</time>
        <extensions>
          <ns3:TrackPointExtension>
            <ns3:hr>129</ns3:hr>
            <ns3:cad>84</ns3:cad>
          </ns3:TrackPointExtension>
        </extensions>
      </trkpt>
      <trkpt lat="45.26734038256108760833740234375" lon="-71.1619933135807514190673828125">
        <ele>630</ele>
        <time>2026-08-22T03:37:48.000Z</time>
        <extensions>
          <ns3:TrackPointExtension>
            <ns3:hr>129</ns3:hr>
            <ns3:cad>84</ns3:cad>
          </ns3:TrackPointExtension>
        </extensions>
      </trkpt>
      <trkpt lat="45.26733778417110443115234375" lon="-71.1620201356709003448486328125">
        <ele>629.5999755859375</ele>
        <time>2026-08-22T03:37:49.000Z</time>
        <extensions>
          <ns3:TrackPointExtension>
            <ns3:hr>129</ns3:hr>
            <ns3:cad>41</ns3:cad>
          </ns3:TrackPointExtension>
        </extensions>
      </trkpt>
      <trkpt lat="45.2673332579433917999267578125" lon="-71.16204570047557353973388671875">
        <ele>629.20001220703125</ele>
        <time>2026-08-22T03:37:50.000Z</time>
        <extensions>
          <ns3:TrackPointExtension>
            <ns3:hr>129</ns3:hr>
            <ns3:cad>41</ns3:cad>
          </ns3:TrackPointExtension>
        </extensions>
      </trkpt>
      <trkpt lat="45.2673302404582500457763671875" lon="-71.1620697565376758575439453125">
        <ele>628.79998779296875</ele>
        <time>2026-08-22T03:37:51.000Z</time>
        <extensions>
          <ns3:TrackPointExtension>
            <ns3:hr>128</ns3:hr>
            <ns3:cad>41</ns3:cad>
          </ns3:TrackPointExtension>
        </extensions>
      </trkpt>
      <trkpt lat="45.267326049506664276123046875" lon="-71.1621029488742351531982421875">
        <ele>628.4000244140625</ele>
        <time>2026-08-22T03:37:52.000Z</time>
        <extensions>
          <ns3:TrackPointExtension>
            <ns3:hr>127</ns3:hr>
            <ns3:cad>41</ns3:cad>
          </ns3:TrackPointExtension>
        </extensions>
      </trkpt>
      <trkpt lat="45.267327725887298583984375" lon="-71.16213639266788959503173828125">
        <ele>628</ele>
        <time>2026-08-22T03:37:53.000Z</time>
        <extensions>
          <ns3:TrackPointExtension>
            <ns3:hr>126</ns3:hr>
            <ns3:cad>41</ns3:cad>
          </ns3:TrackPointExtension>
        </extensions>
      </trkpt>
      <trkpt lat="45.26732931844890117645263671875" lon="-71.16216690279543399810791015625">
        <ele>627.5999755859375</ele>
        <time>2026-08-22T03:37:54.000Z</time>
        <extensions>
          <ns3:TrackPointExtension>
            <ns3:hr>126</ns3:hr>
            <ns3:cad>41</ns3:cad>
          </ns3:TrackPointExtension>
        </extensions>
      </trkpt>
      <trkpt lat="45.2673295699059963226318359375" lon="-71.16220210678875446319580078125">
        <ele>627.4000244140625</ele>
        <time>2026-08-22T03:37:55.000Z</time>
        <extensions>
          <ns3:TrackPointExtension>
            <ns3:hr>125</ns3:hr>
            <ns3:cad>41</ns3:cad>
          </ns3:TrackPointExtension>
        </extensions>
      </trkpt>
      <trkpt lat="45.26733300648629665374755859375" lon="-71.16224535740911960601806640625">
        <ele>627</ele>
        <time>2026-08-22T03:37:56.000Z</time>
        <extensions>
          <ns3:TrackPointExtension>
            <ns3:hr>125</ns3:hr>
            <ns3:cad>41</ns3:cad>
          </ns3:TrackPointExtension>
        </extensions>
      </trkpt>
      <trkpt lat="45.26733099482953548431396484375" lon="-71.1622769571840763092041015625">
        <ele>626.5999755859375</ele>
        <time>2026-08-22T03:37:57.000Z</time>
        <extensions>
          <ns3:TrackPointExtension>
            <ns3:hr>125</ns3:hr>
            <ns3:cad>41</ns3:cad>
          </ns3:TrackPointExtension>
        </extensions>
      </trkpt>
      <trkpt lat="45.26733032427728176116943359375" lon="-71.1623084731400012969970703125">
        <ele>626.20001220703125</ele>
        <time>2026-08-22T03:37:58.000Z</time>
        <extensions>
          <ns3:TrackPointExtension>
            <ns3:hr>125</ns3:hr>
            <ns3:cad>41</ns3:cad>
          </ns3:TrackPointExtension>
        </extensions>
      </trkpt>
      <trkpt lat="45.2673305757343769073486328125" lon="-71.1623477004468441009521484375">
        <ele>626</ele>
        <time>2026-08-22T03:37:59.000Z</time>
        <extensions>
          <ns3:TrackPointExtension>
            <ns3:hr>126</ns3:hr>
            <ns3:cad>41</ns3:cad>
          </ns3:TrackPointExtension>
        </extensions>
      </trkpt>
      <trkpt lat="45.26732973754405975341796875" lon="-71.16237577982246875762939453125">
        <ele>625.79998779296875</ele>
        <time>2026-08-22T03:38:00.000Z</time>
        <extensions>
          <ns3:TrackPointExtension>
            <ns3:hr>126</ns3:hr>
            <ns3:cad>41</ns3:cad>
          </ns3:TrackPointExtension>
        </extensions>
      </trkpt>
      <trkpt lat="45.26733116246759891510009765625" lon="-71.16239883005619049072265625">
        <ele>625.5999755859375</ele>
        <time>2026-08-22T03:38:01.000Z</time>
        <extensions>
          <ns3:TrackPointExtension>
            <ns3:hr>126</ns3:hr>
            <ns3:cad>41</ns3:cad>
          </ns3:TrackPointExtension>
        </extensions>
      </trkpt>
      <trkpt lat="45.26733376085758209228515625" lon="-71.1624291725456714630126953125">
        <ele>625.4000244140625</ele>
        <time>2026-08-22T03:38:02.000Z</time>
        <extensions>
          <ns3:TrackPointExtension>
            <ns3:hr>126</ns3:hr>
            <ns3:cad>82</ns3:cad>
          </ns3:TrackPointExtension>
        </extensions>
      </trkpt>
      <trkpt lat="45.2673342637717723846435546875" lon="-71.16247116588056087493896484375">
        <ele>625</ele>
        <time>2026-08-22T03:38:03.000Z</time>
        <extensions>
          <ns3:TrackPointExtension>
            <ns3:hr>126</ns3:hr>
            <ns3:cad>82</ns3:cad>
          </ns3:TrackPointExtension>
        </extensions>
      </trkpt>
      <trkpt lat="45.267329402267932891845703125" lon="-71.16249731741845607757568359375">
        <ele>624.5999755859375</ele>
        <time>2026-08-22T03:38:04.000Z</time>
        <extensions>
          <ns3:TrackPointExtension>
            <ns3:hr>126</ns3:hr>
            <ns3:cad>82</ns3:cad>
          </ns3:TrackPointExtension>
        </extensions>
      </trkpt>
      <trkpt lat="45.2673265524208545684814453125" lon="-71.16252548061311244964599609375">
        <ele>624.20001220703125</ele>
        <time>2026-08-22T03:38:05.000Z</time>
        <extensions>
          <ns3:TrackPointExtension>
            <ns3:hr>126</ns3:hr>
            <ns3:cad>82</ns3:cad>
          </ns3:TrackPointExtension>
        </extensions>
      </trkpt>
      <trkpt lat="45.267331413924694061279296875" lon="-71.1625512130558490753173828125">
        <ele>623.79998779296875</ele>
        <time>2026-08-22T03:38:06.000Z</time>
        <extensions>
          <ns3:TrackPointExtension>
            <ns3:hr>127</ns3:hr>
            <ns3:cad>81</ns3:cad>
          </ns3:TrackPointExtension>
        </extensions>
      </trkpt>
      <trkpt lat="45.26733317412436008453369140625" lon="-71.16257778368890285491943359375">
        <ele>623.4000244140625</ele>
        <time>2026-08-22T03:38:07.000Z</time>
        <extensions>
          <ns3:TrackPointExtension>
            <ns3:hr>126</ns3:hr>
            <ns3:cad>81</ns3:cad>
          </ns3:TrackPointExtension>
        </extensions>
      </trkpt>
      <trkpt lat="45.2673304080963134765625" lon="-71.16260510869324207305908203125">
        <ele>623.20001220703125</ele>
        <time>2026-08-22T03:38:08.000Z</time>
        <extensions>
          <ns3:TrackPointExtension>
            <ns3:hr>127</ns3:hr>
            <ns3:cad>81</ns3:cad>
          </ns3:TrackPointExtension>
        </extensions>
      </trkpt>
      <trkpt lat="45.2673322521150112152099609375" lon="-71.16263042204082012176513671875">
        <ele>623</ele>
        <time>2026-08-22T03:38:09.000Z</time>
        <extensions>
          <ns3:TrackPointExtension>
            <ns3:hr>127</ns3:hr>
            <ns3:cad>80</ns3:cad>
          </ns3:TrackPointExtension>
        </extensions>
      </trkpt>
      <trkpt lat="45.26733116246759891510009765625" lon="-71.16266277618706226348876953125">
        <ele>622.5999755859375</ele>
        <time>2026-08-22T03:38:10.000Z</time>
        <extensions>
          <ns3:TrackPointExtension>
            <ns3:hr>126</ns3:hr>
            <ns3:cad>80</ns3:cad>
          </ns3:TrackPointExtension>
        </extensions>
      </trkpt>
      <trkpt lat="45.26733350940048694610595703125" lon="-71.16269395686686038970947265625">
        <ele>622.4000244140625</ele>
        <time>2026-08-22T03:38:11.000Z</time>
        <extensions>
          <ns3:TrackPointExtension>
            <ns3:hr>126</ns3:hr>
            <ns3:cad>78</ns3:cad>
          </ns3:TrackPointExtension>
        </extensions>
      </trkpt>
      <trkpt lat="45.2673366107046604156494140625" lon="-71.16273142397403717041015625">
        <ele>622.20001220703125</ele>
        <time>2026-08-22T03:38:12.000Z</time>
        <extensions>
          <ns3:TrackPointExtension>
            <ns3:hr>126</ns3:hr>
            <ns3:cad>78</ns3:cad>
          </ns3:TrackPointExtension>
        </extensions>
      </trkpt>
      <trkpt lat="45.26733577251434326171875" lon="-71.1627637781202793121337890625">
        <ele>621.79998779296875</ele>
        <time>2026-08-22T03:38:13.000Z</time>
        <extensions>
          <ns3:TrackPointExtension>
            <ns3:hr>126</ns3:hr>
            <ns3:cad>78</ns3:cad>
          </ns3:TrackPointExtension>
        </extensions>
      </trkpt>
      <trkpt lat="45.26732982136309146881103515625" lon="-71.162792779505252838134765625">
        <ele>621.4000244140625</ele>
        <time>2026-08-22T03:38:14.000Z</time>
        <extensions>
          <ns3:TrackPointExtension>
            <ns3:hr>126</ns3:hr>
            <ns3:cad>78</ns3:cad>
          </ns3:TrackPointExtension>
        </extensions>
      </trkpt>
      <trkpt lat="45.267324708402156829833984375" lon="-71.16282203234732151031494140625">
        <ele>621</ele>
        <time>2026-08-22T03:38:15.000Z</time>
        <extensions>
          <ns3:TrackPointExtension>
            <ns3:hr>127</ns3:hr>
            <ns3:cad>78</ns3:cad>
          </ns3:TrackPointExtension>
        </extensions>
      </trkpt>
      <trkpt lat="45.26732076890766620635986328125" lon="-71.16284449584782123565673828125">
        <ele>620.5999755859375</ele>
        <time>2026-08-22T03:38:16.000Z</time>
        <extensions>
          <ns3:TrackPointExtension>
            <ns3:hr>126</ns3:hr>
            <ns3:cad>78</ns3:cad>
          </ns3:TrackPointExtension>
        </extensions>
      </trkpt>
      <trkpt lat="45.26732194237411022186279296875" lon="-71.162871234118938446044921875">
        <ele>620.20001220703125</ele>
        <time>2026-08-22T03:38:17.000Z</time>
        <extensions>
          <ns3:TrackPointExtension>
            <ns3:hr>126</ns3:hr>
            <ns3:cad>78</ns3:cad>
          </ns3:TrackPointExtension>
        </extensions>
      </trkpt>
      <trkpt lat="45.26732613332569599151611328125" lon="-71.162900738418102264404296875">
        <ele>619.79998779296875</ele>
        <time>2026-08-22T03:38:18.000Z</time>
        <extensions>
          <ns3:TrackPointExtension>
            <ns3:hr>126</ns3:hr>
            <ns3:cad>78</ns3:cad>
          </ns3:TrackPointExtension>
        </extensions>
      </trkpt>
      <trkpt lat="45.26732596568763256072998046875" lon="-71.16292714141309261322021484375">
        <ele>619.5999755859375</ele>
        <time>2026-08-22T03:38:19.000Z</time>
        <extensions>
          <ns3:TrackPointExtension>
            <ns3:hr>125</ns3:hr>
            <ns3:cad>82</ns3:cad>
          </ns3:TrackPointExtension>
        </extensions>
      </trkpt>
      <trkpt lat="45.26731976307928562164306640625" lon="-71.16295396350324153900146484375">
        <ele>619.20001220703125</ele>
        <time>2026-08-22T03:38:20.000Z</time>
        <extensions>
          <ns3:TrackPointExtension>
            <ns3:hr>125</ns3:hr>
            <ns3:cad>82</ns3:cad>
          </ns3:TrackPointExtension>
        </extensions>
      </trkpt>
      <trkpt lat="45.267318673431873321533203125" lon="-71.162987239658832550048828125">
        <ele>619</ele>
        <time>2026-08-22T03:38:21.000Z</time>
        <extensions>
          <ns3:TrackPointExtension>
            <ns3:hr>125</ns3:hr>
            <ns3:cad>82</ns3:cad>
          </ns3:TrackPointExtension>
        </extensions>
      </trkpt>
      <trkpt lat="45.2673195116221904754638671875" lon="-71.1630190908908843994140625">
        <ele>618.5999755859375</ele>
        <time>2026-08-22T03:38:22.000Z</time>
        <extensions>
          <ns3:TrackPointExtension>
            <ns3:hr>125</ns3:hr>
            <ns3:cad>82</ns3:cad>
          </ns3:TrackPointExtension>
        </extensions>
      </trkpt>
      <trkpt lat="45.2673191763460636138916015625" lon="-71.1630507744848728179931640625">
        <ele>618.20001220703125</ele>
        <time>2026-08-22T03:38:23.000Z</time>
        <extensions>
          <ns3:TrackPointExtension>
            <ns3:hr>124</ns3:hr>
            <ns3:cad>81</ns3:cad>
          </ns3:TrackPointExtension>
        </extensions>
      </trkpt>
      <trkpt lat="45.2673218585550785064697265625" lon="-71.16308103315532207489013671875">
        <ele>618</ele>
        <time>2026-08-22T03:38:24.000Z</time>
        <extensions>
          <ns3:TrackPointExtension>
            <ns3:hr>123</ns3:hr>
            <ns3:cad>81</ns3:cad>
          </ns3:TrackPointExtension>
        </extensions>
      </trkpt>
      <trkpt lat="45.26732445694506168365478515625" lon="-71.16311095654964447021484375">
        <ele>617.5999755859375</ele>
        <time>2026-08-22T03:38:25.000Z</time>
        <extensions>
          <ns3:TrackPointExtension>
            <ns3:hr>123</ns3:hr>
            <ns3:cad>81</ns3:cad>
          </ns3:TrackPointExtension>
        </extensions>
      </trkpt>
      <trkpt lat="45.2673265524208545684814453125" lon="-71.1631426401436328887939453125">
        <ele>617.4000244140625</ele>
        <time>2026-08-22T03:38:26.000Z</time>
        <extensions>
          <ns3:TrackPointExtension>
            <ns3:hr>123</ns3:hr>
            <ns3:cad>81</ns3:cad>
          </ns3:TrackPointExtension>
        </extensions>
      </trkpt>
      <trkpt lat="45.26732998900115489959716796875" lon="-71.163177676498889923095703125">
        <ele>617</ele>
        <time>2026-08-22T03:38:27.000Z</time>
        <extensions>
          <ns3:TrackPointExtension>
            <ns3:hr>123</ns3:hr>
            <ns3:cad>81</ns3:cad>
          </ns3:TrackPointExtension>
        </extensions>
      </trkpt>
      <trkpt lat="45.26733384467661380767822265625" lon="-71.16321782581508159637451171875">
        <ele>616.5999755859375</ele>
        <time>2026-08-22T03:38:28.000Z</time>
        <extensions>
          <ns3:TrackPointExtension>
            <ns3:hr>123</ns3:hr>
            <ns3:cad>81</ns3:cad>
          </ns3:TrackPointExtension>
        </extensions>
      </trkpt>
      <trkpt lat="45.26733753271400928497314453125" lon="-71.1632489226758480072021484375">
        <ele>616.4000244140625</ele>
        <time>2026-08-22T03:38:29.000Z</time>
        <extensions>
          <ns3:TrackPointExtension>
            <ns3:hr>123</ns3:hr>
            <ns3:cad>81</ns3:cad>
          </ns3:TrackPointExtension>
        </extensions>
      </trkpt>
      <trkpt lat="45.2673423103988170623779296875" lon="-71.16328102536499500274658203125">
        <ele>616</ele>
        <time>2026-08-22T03:38:30.000Z</time>
        <extensions>
          <ns3:TrackPointExtension>
            <ns3:hr>124</ns3:hr>
            <ns3:cad>81</ns3:cad>
          </ns3:TrackPointExtension>
        </extensions>
      </trkpt>
      <trkpt lat="45.26734356768429279327392578125" lon="-71.163310445845127105712890625">
        <ele>615.5999755859375</ele>
        <time>2026-08-22T03:38:31.000Z</time>
        <extensions>
          <ns3:TrackPointExtension>
            <ns3:hr>124</ns3:hr>
            <ns3:cad>81</ns3:cad>
          </ns3:TrackPointExtension>
        </extensions>
      </trkpt>
      <trkpt lat="45.26734071783721446990966796875" lon="-71.1633396148681640625">
        <ele>615.20001220703125</ele>
        <time>2026-08-22T03:38:32.000Z</time>
        <extensions>
          <ns3:TrackPointExtension>
            <ns3:hr>124</ns3:hr>
            <ns3:cad>81</ns3:cad>
          </ns3:TrackPointExtension>
        </extensions>
      </trkpt>
      <trkpt lat="45.26733987964689731597900390625" lon="-71.16336978971958160400390625">
        <ele>614.79998779296875</ele>
        <time>2026-08-22T03:38:33.000Z</time>
        <extensions>
          <ns3:TrackPointExtension>
            <ns3:hr>124</ns3:hr>
            <ns3:cad>81</ns3:cad>
          </ns3:TrackPointExtension>
        </extensions>
      </trkpt>
      <trkpt lat="45.26734272949397563934326171875" lon="-71.163402982056140899658203125">
        <ele>614.5999755859375</ele>
        <time>2026-08-22T03:38:34.000Z</time>
        <extensions>
          <ns3:TrackPointExtension>
            <ns3:hr>124</ns3:hr>
            <ns3:cad>81</ns3:cad>
          </ns3:TrackPointExtension>
        </extensions>
      </trkpt>
      <trkpt lat="45.2673423103988170623779296875" lon="-71.16343575529754161834716796875">
        <ele>614.20001220703125</ele>
        <time>2026-08-22T03:38:35.000Z</time>
        <extensions>
          <ns3:TrackPointExtension>
            <ns3:hr>125</ns3:hr>
            <ns3:cad>83</ns3:cad>
          </ns3:TrackPointExtension>
        </extensions>
      </trkpt>
      <trkpt lat="45.2673399634659290313720703125" lon="-71.1634732224047183990478515625">
        <ele>614</ele>
        <time>2026-08-22T03:38:36.000Z</time>
        <extensions>
          <ns3:TrackPointExtension>
            <ns3:hr>125</ns3:hr>
            <ns3:cad>83</ns3:cad>
          </ns3:TrackPointExtension>
        </extensions>
      </trkpt>
      <trkpt lat="45.26733887381851673126220703125" lon="-71.16351454518735408782958984375">
        <ele>613.5999755859375</ele>
        <time>2026-08-22T03:38:37.000Z</time>
        <extensions>
          <ns3:TrackPointExtension>
            <ns3:hr>125</ns3:hr>
            <ns3:cad>83</ns3:cad>
          </ns3:TrackPointExtension>
        </extensions>
      </trkpt>
      <trkpt lat="45.26733786799013614654541015625" lon="-71.16354991681873798370361328125">
        <ele>613.20001220703125</ele>
        <time>2026-08-22T03:38:38.000Z</time>
        <extensions>
          <ns3:TrackPointExtension>
            <ns3:hr>125</ns3:hr>
            <ns3:cad>81</ns3:cad>
          </ns3:TrackPointExtension>
        </extensions>
      </trkpt>
      <trkpt lat="45.26733786799013614654541015625" lon="-71.16358327679336071014404296875">
        <ele>613</ele>
        <time>2026-08-22T03:38:39.000Z</time>
        <extensions>
          <ns3:TrackPointExtension>
            <ns3:hr>124</ns3:hr>
            <ns3:cad>81</ns3:cad>
          </ns3:TrackPointExtension>
        </extensions>
      </trkpt>
      <trkpt lat="45.2673436515033245086669921875" lon="-71.1636123619973659515380859375">
        <ele>612.5999755859375</ele>
        <time>2026-08-22T03:38:40.000Z</time>
        <extensions>
          <ns3:TrackPointExtension>
            <ns3:hr>124</ns3:hr>
            <ns3:cad>81</ns3:cad>
          </ns3:TrackPointExtension>
        </extensions>
      </trkpt>
      <trkpt lat="45.26734440587460994720458984375" lon="-71.16363977082073688507080078125">
        <ele>612.4000244140625</ele>
        <time>2026-08-22T03:38:41.000Z</time>
        <extensions>
          <ns3:TrackPointExtension>
            <ns3:hr>124</ns3:hr>
            <ns3:cad>81</ns3:cad>
          </ns3:TrackPointExtension>
        </extensions>
      </trkpt>
      <trkpt lat="45.26734457351267337799072265625" lon="-71.16367497481405735015869140625">
        <ele>612</ele>
        <time>2026-08-22T03:38:42.000Z</time>
        <extensions>
          <ns3:TrackPointExtension>
            <ns3:hr>124</ns3:hr>
            <ns3:cad>81</ns3:cad>
          </ns3:TrackPointExtension>
        </extensions>
      </trkpt>
      <trkpt lat="45.26734289713203907012939453125" lon="-71.16370799951255321502685546875">
        <ele>611.79998779296875</ele>
        <time>2026-08-22T03:38:43.000Z</time>
        <extensions>
          <ns3:TrackPointExtension>
            <ns3:hr>123</ns3:hr>
            <ns3:cad>81</ns3:cad>
          </ns3:TrackPointExtension>
        </extensions>
      </trkpt>
      <trkpt lat="45.267340131103992462158203125" lon="-71.16374127566814422607421875">
        <ele>611.4000244140625</ele>
        <time>2026-08-22T03:38:44.000Z</time>
        <extensions>
          <ns3:TrackPointExtension>
            <ns3:hr>123</ns3:hr>
            <ns3:cad>81</ns3:cad>
          </ns3:TrackPointExtension>
        </extensions>
      </trkpt>
      <trkpt lat="45.26733937673270702362060546875" lon="-71.16376717574894428253173828125">
        <ele>611</ele>
        <time>2026-08-22T03:38:45.000Z</time>
        <extensions>
          <ns3:TrackPointExtension>
            <ns3:hr>123</ns3:hr>
            <ns3:cad>81</ns3:cad>
          </ns3:TrackPointExtension>
        </extensions>
      </trkpt>
      <trkpt lat="45.2673419751226902008056640625" lon="-71.16380573250353336334228515625">
        <ele>610.5999755859375</ele>
        <time>2026-08-22T03:38:46.000Z</time>
        <extensions>
          <ns3:TrackPointExtension>
            <ns3:hr>124</ns3:hr>
            <ns3:cad>81</ns3:cad>
          </ns3:TrackPointExtension>
        </extensions>
      </trkpt>
      <trkpt lat="45.2673463337123394012451171875" lon="-71.1638316325843334197998046875">
        <ele>610.20001220703125</ele>
        <time>2026-08-22T03:38:47.000Z</time>
        <extensions>
          <ns3:TrackPointExtension>
            <ns3:hr>125</ns3:hr>
            <ns3:cad>81</ns3:cad>
          </ns3:TrackPointExtension>
        </extensions>
      </trkpt>
      <trkpt lat="45.26734474115073680877685546875" lon="-71.1638551019132137298583984375">
        <ele>610</ele>
        <time>2026-08-22T03:38:48.000Z</time>
        <extensions>
          <ns3:TrackPointExtension>
            <ns3:hr>125</ns3:hr>
            <ns3:cad>81</ns3:cad>
          </ns3:TrackPointExtension>
        </extensions>
      </trkpt>
      <trkpt lat="45.267342813313007354736328125" lon="-71.1638856120407581329345703125">
        <ele>609.79998779296875</ele>
        <time>2026-08-22T03:38:49.000Z</time>
        <extensions>
          <ns3:TrackPointExtension>
            <ns3:hr>125</ns3:hr>
            <ns3:cad>41</ns3:cad>
          </ns3:TrackPointExtension>
        </extensions>
      </trkpt>
      <trkpt lat="45.2673476748168468475341796875" lon="-71.163914613425731658935546875">
        <ele>609.4000244140625</ele>
        <time>2026-08-22T03:38:50.000Z</time>
        <extensions>
          <ns3:TrackPointExtension>
            <ns3:hr>125</ns3:hr>
            <ns3:cad>41</ns3:cad>
          </ns3:TrackPointExtension>
        </extensions>
      </trkpt>
      <trkpt lat="45.26734909974038600921630859375" lon="-71.16394244134426116943359375">
        <ele>609.20001220703125</ele>
        <time>2026-08-22T03:38:51.000Z</time>
        <extensions>
          <ns3:TrackPointExtension>
            <ns3:hr>125</ns3:hr>
            <ns3:cad>41</ns3:cad>
          </ns3:TrackPointExtension>
        </extensions>
      </trkpt>
      <trkpt lat="45.2673523686826229095458984375" lon="-71.16397504694759845733642578125">
        <ele>609</ele>
        <time>2026-08-22T03:38:52.000Z</time>
        <extensions>
          <ns3:TrackPointExtension>
            <ns3:hr>124</ns3:hr>
            <ns3:cad>41</ns3:cad>
          </ns3:TrackPointExtension>
        </extensions>
      </trkpt>
      <trkpt lat="45.267349183559417724609375" lon="-71.16400949656963348388671875">
        <ele>608.5999755859375</ele>
        <time>2026-08-22T03:38:53.000Z</time>
        <extensions>
          <ns3:TrackPointExtension>
            <ns3:hr>124</ns3:hr>
            <ns3:cad>41</ns3:cad>
          </ns3:TrackPointExtension>
        </extensions>
      </trkpt>
      <trkpt lat="45.2673470042645931243896484375" lon="-71.16403774358332157135009765625">
        <ele>608.20001220703125</ele>
        <time>2026-08-22T03:38:54.000Z</time>
        <extensions>
          <ns3:TrackPointExtension>
            <ns3:hr>124</ns3:hr>
            <ns3:cad>79</ns3:cad>
          </ns3:TrackPointExtension>
        </extensions>
      </trkpt>
      <trkpt lat="45.26734717190265655517578125" lon="-71.1640669964253902435302734375">
        <ele>607.79998779296875</ele>
        <time>2026-08-22T03:38:55.000Z</time>
        <extensions>
          <ns3:TrackPointExtension>
            <ns3:hr>124</ns3:hr>
            <ns3:cad>79</ns3:cad>
          </ns3:TrackPointExtension>
        </extensions>
      </trkpt>
      <trkpt lat="45.26734624989330768585205078125" lon="-71.16409666836261749267578125">
        <ele>607.5999755859375</ele>
        <time>2026-08-22T03:38:56.000Z</time>
        <extensions>
          <ns3:TrackPointExtension>
            <ns3:hr>123</ns3:hr>
            <ns3:cad>81</ns3:cad>
          </ns3:TrackPointExtension>
        </extensions>
      </trkpt>
      <trkpt lat="45.26734624989330768585205078125" lon="-71.1641276814043521881103515625">
        <ele>607.20001220703125</ele>
        <time>2026-08-22T03:38:57.000Z</time>
        <extensions>
          <ns3:TrackPointExtension>
            <ns3:hr>123</ns3:hr>
            <ns3:cad>81</ns3:cad>
          </ns3:TrackPointExtension>
        </extensions>
      </trkpt>
      <trkpt lat="45.2673480100929737091064453125" lon="-71.16416045464575290679931640625">
        <ele>607</ele>
        <time>2026-08-22T03:38:58.000Z</time>
        <extensions>
          <ns3:TrackPointExtension>
            <ns3:hr>123</ns3:hr>
            <ns3:cad>81</ns3:cad>
          </ns3:TrackPointExtension>
        </extensions>
      </trkpt>
      <trkpt lat="45.267347507178783416748046875" lon="-71.164191551506519317626953125">
        <ele>606.79998779296875</ele>
        <time>2026-08-22T03:38:59.000Z</time>
        <extensions>
          <ns3:TrackPointExtension>
            <ns3:hr>123</ns3:hr>
            <ns3:cad>81</ns3:cad>
          </ns3:TrackPointExtension>
        </extensions>
      </trkpt>
      <trkpt lat="45.26734591461718082427978515625" lon="-71.1642175354063510894775390625">
        <ele>606.4000244140625</ele>
        <time>2026-08-22T03:39:00.000Z</time>
        <extensions>
          <ns3:TrackPointExtension>
            <ns3:hr>123</ns3:hr>
            <ns3:cad>81</ns3:cad>
          </ns3:TrackPointExtension>
        </extensions>
      </trkpt>
      <trkpt lat="45.2673439867794513702392578125" lon="-71.16424527950584888458251953125">
        <ele>606</ele>
        <time>2026-08-22T03:39:01.000Z</time>
        <extensions>
          <ns3:TrackPointExtension>
            <ns3:hr>124</ns3:hr>
            <ns3:cad>81</ns3:cad>
          </ns3:TrackPointExtension>
        </extensions>
      </trkpt>
      <trkpt lat="45.2673439867794513702392578125" lon="-71.16427277214825153350830078125">
        <ele>605.5999755859375</ele>
        <time>2026-08-22T03:39:02.000Z</time>
        <extensions>
          <ns3:TrackPointExtension>
            <ns3:hr>124</ns3:hr>
            <ns3:cad>81</ns3:cad>
          </ns3:TrackPointExtension>
        </extensions>
      </trkpt>
      <trkpt lat="45.26734138838946819305419921875" lon="-71.16430898196995258331298828125">
        <ele>605.4000244140625</ele>
        <time>2026-08-22T03:39:03.000Z</time>
        <extensions>
          <ns3:TrackPointExtension>
            <ns3:hr>124</ns3:hr>
            <ns3:cad>81</ns3:cad>
          </ns3:TrackPointExtension>
        </extensions>
      </trkpt>
      <trkpt lat="45.26734088547527790069580078125" lon="-71.1643382348120212554931640625">
        <ele>605</ele>
        <time>2026-08-22T03:39:04.000Z</time>
        <extensions>
          <ns3:TrackPointExtension>
            <ns3:hr>124</ns3:hr>
            <ns3:cad>82</ns3:cad>
          </ns3:TrackPointExtension>
        </extensions>
      </trkpt>
      <trkpt lat="45.26734272949397563934326171875" lon="-71.16437201388180255889892578125">
        <ele>604.5999755859375</ele>
        <time>2026-08-22T03:39:05.000Z</time>
        <extensions>
          <ns3:TrackPointExtension>
            <ns3:hr>124</ns3:hr>
            <ns3:cad>82</ns3:cad>
          </ns3:TrackPointExtension>
        </extensions>
      </trkpt>
      <trkpt lat="45.267344154417514801025390625" lon="-71.16441023536026477813720703125">
        <ele>604.20001220703125</ele>
        <time>2026-08-22T03:39:06.000Z</time>
        <extensions>
          <ns3:TrackPointExtension>
            <ns3:hr>125</ns3:hr>
            <ns3:cad>82</ns3:cad>
          </ns3:TrackPointExtension>
        </extensions>
      </trkpt>
      <trkpt lat="45.267345495522022247314453125" lon="-71.1644421704113483428955078125">
        <ele>604</ele>
        <time>2026-08-22T03:39:07.000Z</time>
        <extensions>
          <ns3:TrackPointExtension>
            <ns3:hr>124</ns3:hr>
            <ns3:cad>82</ns3:cad>
          </ns3:TrackPointExtension>
        </extensions>
      </trkpt>
      <trkpt lat="45.267349518835544586181640625" lon="-71.16447041742503643035888671875">
        <ele>603.5999755859375</ele>
        <time>2026-08-22T03:39:08.000Z</time>
        <extensions>
          <ns3:TrackPointExtension>
            <ns3:hr>126</ns3:hr>
            <ns3:cad>80</ns3:cad>
          </ns3:TrackPointExtension>
        </extensions>
      </trkpt>
      <trkpt lat="45.26735345833003520965576171875" lon="-71.16450302302837371826171875">
        <ele>603.20001220703125</ele>
        <time>2026-08-22T03:39:09.000Z</time>
        <extensions>
          <ns3:TrackPointExtension>
            <ns3:hr>127</ns3:hr>
            <ns3:cad>80</ns3:cad>
          </ns3:TrackPointExtension>
        </extensions>
      </trkpt>
      <trkpt lat="45.26735228486359119415283203125" lon="-71.16453093476593494415283203125">
        <ele>603</ele>
        <time>2026-08-22T03:39:10.000Z</time>
        <extensions>
          <ns3:TrackPointExtension>
            <ns3:hr>128</ns3:hr>
            <ns3:cad>80</ns3:cad>
          </ns3:TrackPointExtension>
        </extensions>
      </trkpt>
      <trkpt lat="45.26735161431133747100830078125" lon="-71.16455775685608386993408203125">
        <ele>602.5999755859375</ele>
        <time>2026-08-22T03:39:11.000Z</time>
        <extensions>
          <ns3:TrackPointExtension>
            <ns3:hr>128</ns3:hr>
            <ns3:cad>81</ns3:cad>
          </ns3:TrackPointExtension>
        </extensions>
      </trkpt>
      <trkpt lat="45.2673505246639251708984375" lon="-71.164589188992977142333984375">
        <ele>602.4000244140625</ele>
        <time>2026-08-22T03:39:12.000Z</time>
        <extensions>
          <ns3:TrackPointExtension>
            <ns3:hr>128</ns3:hr>
            <ns3:cad>81</ns3:cad>
          </ns3:TrackPointExtension>
        </extensions>
      </trkpt>
      <trkpt lat="45.2673510275781154632568359375" lon="-71.1646168492734432220458984375">
        <ele>602</ele>
        <time>2026-08-22T03:39:13.000Z</time>
        <extensions>
          <ns3:TrackPointExtension>
            <ns3:hr>128</ns3:hr>
            <ns3:cad>80</ns3:cad>
          </ns3:TrackPointExtension>
        </extensions>
      </trkpt>
      <trkpt lat="45.267352871596813201904296875" lon="-71.16464811377227306365966796875">
        <ele>601.5999755859375</ele>
        <time>2026-08-22T03:39:14.000Z</time>
        <extensions>
          <ns3:TrackPointExtension>
            <ns3:hr>129</ns3:hr>
            <ns3:cad>80</ns3:cad>
          </ns3:TrackPointExtension>
        </extensions>
      </trkpt>
      <trkpt lat="45.26735245250165462493896484375" lon="-71.164673678576946258544921875">
        <ele>601.4000244140625</ele>
        <time>2026-08-22T03:39:15.000Z</time>
        <extensions>
          <ns3:TrackPointExtension>
            <ns3:hr>128</ns3:hr>
            <ns3:cad>80</ns3:cad>
          </ns3:TrackPointExtension>
        </extensions>
      </trkpt>
      <trkpt lat="45.26735387742519378662109375" lon="-71.16470645181834697723388671875">
        <ele>601.20001220703125</ele>
        <time>2026-08-22T03:39:16.000Z</time>
        <extensions>
          <ns3:TrackPointExtension>
            <ns3:hr>127</ns3:hr>
            <ns3:cad>80</ns3:cad>
          </ns3:TrackPointExtension>
        </extensions>
      </trkpt>
      <trkpt lat="45.26735580526292324066162109375" lon="-71.16473679430782794952392578125">
        <ele>600.79998779296875</ele>
        <time>2026-08-22T03:39:17.000Z</time>
        <extensions>
          <ns3:TrackPointExtension>
            <ns3:hr>126</ns3:hr>
            <ns3:cad>80</ns3:cad>
          </ns3:TrackPointExtension>
        </extensions>
      </trkpt>
      <trkpt lat="45.26735664345324039459228515625" lon="-71.16476864553987979888916015625">
        <ele>600.5999755859375</ele>
        <time>2026-08-22T03:39:18.000Z</time>
        <extensions>
          <ns3:TrackPointExtension>
            <ns3:hr>126</ns3:hr>
            <ns3:cad>40</ns3:cad>
          </ns3:TrackPointExtension>
        </extensions>
      </trkpt>
      <trkpt lat="45.2673573978245258331298828125" lon="-71.16479798220098018646240234375">
        <ele>600.20001220703125</ele>
        <time>2026-08-22T03:39:19.000Z</time>
        <extensions>
          <ns3:TrackPointExtension>
            <ns3:hr>125</ns3:hr>
            <ns3:cad>40</ns3:cad>
          </ns3:TrackPointExtension>
        </extensions>
      </trkpt>
      <trkpt lat="45.26736351661384105682373046875" lon="-71.164824552834033966064453125">
        <ele>600</ele>
        <time>2026-08-22T03:39:20.000Z</time>
        <extensions>
          <ns3:TrackPointExtension>
            <ns3:hr>125</ns3:hr>
            <ns3:cad>40</ns3:cad>
          </ns3:TrackPointExtension>
        </extensions>
      </trkpt>
      <trkpt lat="45.267361588776111602783203125" lon="-71.16484944708645343780517578125">
        <ele>599.5999755859375</ele>
        <time>2026-08-22T03:39:21.000Z</time>
        <extensions>
          <ns3:TrackPointExtension>
            <ns3:hr>125</ns3:hr>
            <ns3:cad>40</ns3:cad>
          </ns3:TrackPointExtension>
        </extensions>
      </trkpt>
      <trkpt lat="45.267362929880619049072265625" lon="-71.164881885051727294921875">
        <ele>599.4000244140625</ele>
        <time>2026-08-22T03:39:22.000Z</time>
        <extensions>
          <ns3:TrackPointExtension>
            <ns3:hr>125</ns3:hr>
            <ns3:cad>40</ns3:cad>
          </ns3:TrackPointExtension>
        </extensions>
      </trkpt>
      <trkpt lat="45.26736955158412456512451171875" lon="-71.164911054074764251708984375">
        <ele>599</ele>
        <time>2026-08-22T03:39:23.000Z</time>
        <extensions>
          <ns3:TrackPointExtension>
            <ns3:hr>124</ns3:hr>
            <ns3:cad>40</ns3:cad>
          </ns3:TrackPointExtension>
        </extensions>
      </trkpt>
      <trkpt lat="45.26737944222986698150634765625" lon="-71.1649387143552303314208984375">
        <ele>598.79998779296875</ele>
        <time>2026-08-22T03:39:24.000Z</time>
        <extensions>
          <ns3:TrackPointExtension>
            <ns3:hr>125</ns3:hr>
            <ns3:cad>40</ns3:cad>
          </ns3:TrackPointExtension>
        </extensions>
      </trkpt>
      <trkpt lat="45.26738933287560939788818359375" lon="-71.16497299633920192718505859375">
        <ele>598.4000244140625</ele>
        <time>2026-08-22T03:39:25.000Z</time>
        <extensions>
          <ns3:TrackPointExtension>
            <ns3:hr>124</ns3:hr>
            <ns3:cad>79</ns3:cad>
          </ns3:TrackPointExtension>
        </extensions>
      </trkpt>
      <trkpt lat="45.26739520020782947540283203125" lon="-71.16500115953385829925537109375">
        <ele>598.20001220703125</ele>
        <time>2026-08-22T03:39:26.000Z</time>
        <extensions>
          <ns3:TrackPointExtension>
            <ns3:hr>124</ns3:hr>
            <ns3:cad>79</ns3:cad>
          </ns3:TrackPointExtension>
        </extensions>
      </trkpt>
      <trkpt lat="45.26739637367427349090576171875" lon="-71.16502982564270496368408203125">
        <ele>597.79998779296875</ele>
        <time>2026-08-22T03:39:27.000Z</time>
        <extensions>
          <ns3:TrackPointExtension>
            <ns3:hr>123</ns3:hr>
            <ns3:cad>80</ns3:cad>
          </ns3:TrackPointExtension>
        </extensions>
      </trkpt>
      <trkpt lat="45.26739452965557575225830078125" lon="-71.16506251506507396697998046875">
        <ele>597.5999755859375</ele>
        <time>2026-08-22T03:39:28.000Z</time>
        <extensions>
          <ns3:TrackPointExtension>
            <ns3:hr>123</ns3:hr>
            <ns3:cad>80</ns3:cad>
          </ns3:TrackPointExtension>
        </extensions>
      </trkpt>
      <trkpt lat="45.26739117689430713653564453125" lon="-71.16509520448744297027587890625">
        <ele>597.20001220703125</ele>
        <time>2026-08-22T03:39:29.000Z</time>
        <extensions>
          <ns3:TrackPointExtension>
            <ns3:hr>123</ns3:hr>
            <ns3:cad>80</ns3:cad>
          </ns3:TrackPointExtension>
        </extensions>
      </trkpt>
      <trkpt lat="45.26739151217043399810791015625" lon="-71.16512303240597248077392578125">
        <ele>596.79998779296875</ele>
        <time>2026-08-22T03:39:30.000Z</time>
        <extensions>
          <ns3:TrackPointExtension>
            <ns3:hr>123</ns3:hr>
            <ns3:cad>81</ns3:cad>
          </ns3:TrackPointExtension>
        </extensions>
      </trkpt>
      <trkpt lat="45.26739276945590972900390625" lon="-71.1651536263525485992431640625">
        <ele>596.5999755859375</ele>
        <time>2026-08-22T03:39:31.000Z</time>
        <extensions>
          <ns3:TrackPointExtension>
            <ns3:hr>123</ns3:hr>
            <ns3:cad>81</ns3:cad>
          </ns3:TrackPointExtension>
        </extensions>
      </trkpt>
      <trkpt lat="45.26739084161818027496337890625" lon="-71.16517969407141208648681640625">
        <ele>596.20001220703125</ele>
        <time>2026-08-22T03:39:32.000Z</time>
        <extensions>
          <ns3:TrackPointExtension>
            <ns3:hr>123</ns3:hr>
            <ns3:cad>80</ns3:cad>
          </ns3:TrackPointExtension>
        </extensions>
      </trkpt>
      <trkpt lat="45.26738698594272136688232421875" lon="-71.16520500741899013519287109375">
        <ele>596</ele>
        <time>2026-08-22T03:39:33.000Z</time>
        <extensions>
          <ns3:TrackPointExtension>
            <ns3:hr>123</ns3:hr>
            <ns3:cad>80</ns3:cad>
          </ns3:TrackPointExtension>
        </extensions>
      </trkpt>
      <trkpt lat="45.267379693686962127685546875" lon="-71.16523669101297855377197265625">
        <ele>595.5999755859375</ele>
        <time>2026-08-22T03:39:34.000Z</time>
        <extensions>
          <ns3:TrackPointExtension>
            <ns3:hr>123</ns3:hr>
            <ns3:cad>80</ns3:cad>
          </ns3:TrackPointExtension>
        </extensions>
      </trkpt>
      <trkpt lat="45.26738380081951618194580078125" lon="-71.16526770405471324920654296875">
        <ele>595.4000244140625</ele>
        <time>2026-08-22T03:39:35.000Z</time>
        <extensions>
          <ns3:TrackPointExtension>
            <ns3:hr>123</ns3:hr>
            <ns3:cad>80</ns3:cad>
          </ns3:TrackPointExtension>
        </extensions>
      </trkpt>
      <trkpt lat="45.2673818729817867279052734375" lon="-71.165296621620655059814453125">
        <ele>595</ele>
        <time>2026-08-22T03:39:36.000Z</time>
        <extensions>
          <ns3:TrackPointExtension>
            <ns3:hr>123</ns3:hr>
            <ns3:cad>80</ns3:cad>
          </ns3:TrackPointExtension>
        </extensions>
      </trkpt>
      <trkpt lat="45.26737960986793041229248046875" lon="-71.16533006541430950164794921875">
        <ele>594.79998779296875</ele>
        <time>2026-08-22T03:39:37.000Z</time>
        <extensions>
          <ns3:TrackPointExtension>
            <ns3:hr>122</ns3:hr>
            <ns3:cad>80</ns3:cad>
          </ns3:TrackPointExtension>
        </extensions>
      </trkpt>
      <trkpt lat="45.26737743057310581207275390625" lon="-71.16535755805671215057373046875">
        <ele>594.4000244140625</ele>
        <time>2026-08-22T03:39:38.000Z</time>
        <extensions>
          <ns3:TrackPointExtension>
            <ns3:hr>122</ns3:hr>
            <ns3:cad>79</ns3:cad>
          </ns3:TrackPointExtension>
        </extensions>
      </trkpt>
      <trkpt lat="45.26737491600215435028076171875" lon="-71.16538957692682743072509765625">
        <ele>594.20001220703125</ele>
        <time>2026-08-22T03:39:39.000Z</time>
        <extensions>
          <ns3:TrackPointExtension>
            <ns3:hr>122</ns3:hr>
            <ns3:cad>79</ns3:cad>
          </ns3:TrackPointExtension>
        </extensions>
      </trkpt>
      <trkpt lat="45.26737173087894916534423828125" lon="-71.16541690193116664886474609375">
        <ele>593.79998779296875</ele>
        <time>2026-08-22T03:39:40.000Z</time>
        <extensions>
          <ns3:TrackPointExtension>
            <ns3:hr>122</ns3:hr>
            <ns3:cad>79</ns3:cad>
          </ns3:TrackPointExtension>
        </extensions>
      </trkpt>
      <trkpt lat="45.2673744969069957733154296875" lon="-71.1654510162770748138427734375">
        <ele>593.5999755859375</ele>
        <time>2026-08-22T03:39:41.000Z</time>
        <extensions>
          <ns3:TrackPointExtension>
            <ns3:hr>122</ns3:hr>
            <ns3:cad>79</ns3:cad>
          </ns3:TrackPointExtension>
        </extensions>
      </trkpt>
      <trkpt lat="45.26737273670732975006103515625" lon="-71.1654858849942684173583984375">
        <ele>593.20001220703125</ele>
        <time>2026-08-22T03:39:42.000Z</time>
        <extensions>
          <ns3:TrackPointExtension>
            <ns3:hr>122</ns3:hr>
            <ns3:cad>79</ns3:cad>
          </ns3:TrackPointExtension>
        </extensions>
      </trkpt>
      <trkpt lat="45.26737005449831485748291015625" lon="-71.165515221655368804931640625">
        <ele>593</ele>
        <time>2026-08-22T03:39:43.000Z</time>
        <extensions>
          <ns3:TrackPointExtension>
            <ns3:hr>122</ns3:hr>
            <ns3:cad>79</ns3:cad>
          </ns3:TrackPointExtension>
        </extensions>
      </trkpt>
      <trkpt lat="45.26736469008028507232666015625" lon="-71.16554313339293003082275390625">
        <ele>592.79998779296875</ele>
        <time>2026-08-22T03:39:44.000Z</time>
        <extensions>
          <ns3:TrackPointExtension>
            <ns3:hr>122</ns3:hr>
            <ns3:cad>79</ns3:cad>
          </ns3:TrackPointExtension>
        </extensions>
      </trkpt>
      <trkpt lat="45.26736301369965076446533203125" lon="-71.16557112894952297210693359375">
        <ele>592.4000244140625</ele>
        <time>2026-08-22T03:39:45.000Z</time>
        <extensions>
          <ns3:TrackPointExtension>
            <ns3:hr>121</ns3:hr>
            <ns3:cad>79</ns3:cad>
          </ns3:TrackPointExtension>
        </extensions>
      </trkpt>
      <trkpt lat="45.26736150495707988739013671875" lon="-71.16559845395386219024658203125">
        <ele>592.20001220703125</ele>
        <time>2026-08-22T03:39:46.000Z</time>
        <extensions>
          <ns3:TrackPointExtension>
            <ns3:hr>121</ns3:hr>
            <ns3:cad>79</ns3:cad>
          </ns3:TrackPointExtension>
        </extensions>
      </trkpt>
      <trkpt lat="45.2673614211380481719970703125" lon="-71.165621168911457061767578125">
        <ele>592</ele>
        <time>2026-08-22T03:39:47.000Z</time>
        <extensions>
          <ns3:TrackPointExtension>
            <ns3:hr>120</ns3:hr>
            <ns3:cad>79</ns3:cad>
          </ns3:TrackPointExtension>
        </extensions>
      </trkpt>
      <trkpt lat="45.26736100204288959503173828125" lon="-71.1656454764306545257568359375">
        <ele>591.5999755859375</ele>
        <time>2026-08-22T03:39:48.000Z</time>
        <extensions>
          <ns3:TrackPointExtension>
            <ns3:hr>120</ns3:hr>
            <ns3:cad>79</ns3:cad>
          </ns3:TrackPointExtension>
        </extensions>
      </trkpt>
      <trkpt lat="45.26735915802419185638427734375" lon="-71.16566869430243968963623046875">
        <ele>591.4000244140625</ele>
        <time>2026-08-22T03:39:49.000Z</time>
        <extensions>
          <ns3:TrackPointExtension>
            <ns3:hr>120</ns3:hr>
            <ns3:cad>77</ns3:cad>
          </ns3:TrackPointExtension>
        </extensions>
      </trkpt>
      <trkpt lat="45.26735848747193813323974609375" lon="-71.1656870506703853607177734375">
        <ele>591.20001220703125</ele>
        <time>2026-08-22T03:39:50.000Z</time>
        <extensions>
          <ns3:TrackPointExtension>
            <ns3:hr>120</ns3:hr>
            <ns3:cad>76</ns3:cad>
          </ns3:TrackPointExtension>
        </extensions>
      </trkpt>
      <trkpt lat="45.26735748164355754852294921875" lon="-71.165711022913455963134765625">
        <ele>591</ele>
        <time>2026-08-22T03:39:51.000Z</time>
        <extensions>
          <ns3:TrackPointExtension>
            <ns3:hr>120</ns3:hr>
            <ns3:cad>74</ns3:cad>
          </ns3:TrackPointExtension>
        </extensions>
      </trkpt>
      <trkpt lat="45.267358906567096710205078125" lon="-71.16573683917522430419921875">
        <ele>590.79998779296875</ele>
        <time>2026-08-22T03:39:52.000Z</time>
        <extensions>
          <ns3:TrackPointExtension>
            <ns3:hr>119</ns3:hr>
            <ns3:cad>74</ns3:cad>
          </ns3:TrackPointExtension>
        </extensions>
      </trkpt>
      <trkpt lat="45.26735831983387470245361328125" lon="-71.165759302675724029541015625">
        <ele>590.5999755859375</ele>
        <time>2026-08-22T03:39:53.000Z</time>
        <extensions>
          <ns3:TrackPointExtension>
            <ns3:hr>120</ns3:hr>
            <ns3:cad>74</ns3:cad>
          </ns3:TrackPointExtension>
        </extensions>
      </trkpt>
      <trkpt lat="45.26735723018646240234375" lon="-71.16578243672847747802734375">
        <ele>590.20001220703125</ele>
        <time>2026-08-22T03:39:54.000Z</time>
        <extensions>
          <ns3:TrackPointExtension>
            <ns3:hr>120</ns3:hr>
            <ns3:cad>74</ns3:cad>
          </ns3:TrackPointExtension>
        </extensions>
      </trkpt>
      <trkpt lat="45.267354547977447509765625" lon="-71.16580196656286716461181640625">
        <ele>590</ele>
        <time>2026-08-22T03:39:55.000Z</time>
        <extensions>
          <ns3:TrackPointExtension>
            <ns3:hr>120</ns3:hr>
            <ns3:cad>74</ns3:cad>
          </ns3:TrackPointExtension>
        </extensions>
      </trkpt>
      <trkpt lat="45.26735379360616207122802734375" lon="-71.1658322252333164215087890625">
        <ele>589.79998779296875</ele>
        <time>2026-08-22T03:39:56.000Z</time>
        <extensions>
          <ns3:TrackPointExtension>
            <ns3:hr>120</ns3:hr>
            <ns3:cad>76</ns3:cad>
          </ns3:TrackPointExtension>
        </extensions>
      </trkpt>
      <trkpt lat="45.26735848747193813323974609375" lon="-71.16586533375084400177001953125">
        <ele>589.5999755859375</ele>
        <time>2026-08-22T03:39:57.000Z</time>
        <extensions>
          <ns3:TrackPointExtension>
            <ns3:hr>121</ns3:hr>
            <ns3:cad>76</ns3:cad>
          </ns3:TrackPointExtension>
        </extensions>
      </trkpt>
      <trkpt lat="45.267362259328365325927734375" lon="-71.165893413126468658447265625">
        <ele>589.20001220703125</ele>
        <time>2026-08-22T03:39:58.000Z</time>
        <extensions>
          <ns3:TrackPointExtension>
            <ns3:hr>120</ns3:hr>
            <ns3:cad>76</ns3:cad>
          </ns3:TrackPointExtension>
        </extensions>
      </trkpt>
      <trkpt lat="45.2673634327948093414306640625" lon="-71.16592065431177616119384765625">
        <ele>589</ele>
        <time>2026-08-22T03:39:59.000Z</time>
        <extensions>
          <ns3:TrackPointExtension>
            <ns3:hr>120</ns3:hr>
            <ns3:cad>77</ns3:cad>
          </ns3:TrackPointExtension>
        </extensions>
      </trkpt>
      <trkpt lat="45.26736653409898281097412109375" lon="-71.1659532599151134490966796875">
        <ele>588.79998779296875</ele>
        <time>2026-08-22T03:40:00.000Z</time>
        <extensions>
          <ns3:TrackPointExtension>
            <ns3:hr>120</ns3:hr>
            <ns3:cad>77</ns3:cad>
          </ns3:TrackPointExtension>
        </extensions>
      </trkpt>
      <trkpt lat="45.26736184023320674896240234375" lon="-71.16598100401461124420166015625">
        <ele>588.5999755859375</ele>
        <time>2026-08-22T03:40:01.000Z</time>
        <extensions>
          <ns3:TrackPointExtension>
            <ns3:hr>120</ns3:hr>
            <ns3:cad>0</ns3:cad>
          </ns3:TrackPointExtension>
        </extensions>
      </trkpt>
      <trkpt lat="45.26735982857644557952880859375" lon="-71.16600849665701389312744140625">
        <ele>588.20001220703125</ele>
        <time>2026-08-22T03:40:02.000Z</time>
        <extensions>
          <ns3:TrackPointExtension>
            <ns3:hr>120</ns3:hr>
            <ns3:cad>0</ns3:cad>
          </ns3:TrackPointExtension>
        </extensions>
      </trkpt>
      <trkpt lat="45.2673617564141750335693359375" lon="-71.16604252718389034271240234375">
        <ele>588</ele>
        <time>2026-08-22T03:40:03.000Z</time>
        <extensions>
          <ns3:TrackPointExtension>
            <ns3:hr>120</ns3:hr>
            <ns3:cad>0</ns3:cad>
          </ns3:TrackPointExtension>
        </extensions>
      </trkpt>
      <trkpt lat="45.26736150495707988739013671875" lon="-71.1660789884626865386962890625">
        <ele>587.4000244140625</ele>
        <time>2026-08-22T03:40:04.000Z</time>
        <extensions>
          <ns3:TrackPointExtension>
            <ns3:hr>119</ns3:hr>
            <ns3:cad>0</ns3:cad>
          </ns3:TrackPointExtension>
        </extensions>
      </trkpt>
      <trkpt lat="45.2673667855560779571533203125" lon="-71.16611444391310214996337890625">
        <ele>587.20001220703125</ele>
        <time>2026-08-22T03:40:05.000Z</time>
        <extensions>
          <ns3:TrackPointExtension>
            <ns3:hr>120</ns3:hr>
            <ns3:cad>0</ns3:cad>
          </ns3:TrackPointExtension>
        </extensions>
      </trkpt>
      <trkpt lat="45.26736737228929996490478515625" lon="-71.16614026017487049102783203125">
        <ele>586.5999755859375</ele>
        <time>2026-08-22T03:40:06.000Z</time>
        <extensions>
          <ns3:TrackPointExtension>
            <ns3:hr>121</ns3:hr>
            <ns3:cad>0</ns3:cad>
          </ns3:TrackPointExtension>
        </extensions>
      </trkpt>
      <trkpt lat="45.26736703701317310333251953125" lon="-71.16617077030241489410400390625">
        <ele>586.4000244140625</ele>
        <time>2026-08-22T03:40:07.000Z</time>
        <extensions>
          <ns3:TrackPointExtension>
            <ns3:hr>121</ns3:hr>
            <ns3:cad>0</ns3:cad>
          </ns3:TrackPointExtension>
        </extensions>
      </trkpt>
      <trkpt lat="45.26736971922218799591064453125" lon="-71.16620429791510105133056640625">
        <ele>586</ele>
        <time>2026-08-22T03:40:08.000Z</time>
        <extensions>
          <ns3:TrackPointExtension>
            <ns3:hr>122</ns3:hr>
            <ns3:cad>0</ns3:cad>
          </ns3:TrackPointExtension>
        </extensions>
      </trkpt>
      <trkpt lat="45.26736871339380741119384765625" lon="-71.16624453105032444000244140625">
        <ele>585.79998779296875</ele>
        <time>2026-08-22T03:40:09.000Z</time>
        <extensions>
          <ns3:TrackPointExtension>
            <ns3:hr>122</ns3:hr>
            <ns3:cad>0</ns3:cad>
          </ns3:TrackPointExtension>
        </extensions>
      </trkpt>
      <trkpt lat="45.2673691324889659881591796875" lon="-71.16627671755850315093994140625">
        <ele>585.4000244140625</ele>
        <time>2026-08-22T03:40:10.000Z</time>
        <extensions>
          <ns3:TrackPointExtension>
            <ns3:hr>121</ns3:hr>
            <ns3:cad>0</ns3:cad>
          </ns3:TrackPointExtension>
        </extensions>
      </trkpt>
      <trkpt lat="45.2673667855560779571533203125" lon="-71.16631493903696537017822265625">
        <ele>585.20001220703125</ele>
        <time>2026-08-22T03:40:11.000Z</time>
        <extensions>
          <ns3:TrackPointExtension>
            <ns3:hr>121</ns3:hr>
            <ns3:cad>0</ns3:cad>
          </ns3:TrackPointExtension>
        </extensions>
      </trkpt>
      <trkpt lat="45.2673644386231899261474609375" lon="-71.16634972393512725830078125">
        <ele>584.79998779296875</ele>
        <time>2026-08-22T03:40:12.000Z</time>
        <extensions>
          <ns3:TrackPointExtension>
            <ns3:hr>120</ns3:hr>
            <ns3:cad>0</ns3:cad>
          </ns3:TrackPointExtension>
        </extensions>
      </trkpt>
      <trkpt lat="45.2673664502799510955810546875" lon="-71.1663861013948917388916015625">
        <ele>584.4000244140625</ele>
        <time>2026-08-22T03:40:13.000Z</time>
        <extensions>
          <ns3:TrackPointExtension>
            <ns3:hr>119</ns3:hr>
            <ns3:cad>81</ns3:cad>
          </ns3:TrackPointExtension>
        </extensions>
      </trkpt>
      <trkpt lat="45.2673661150038242340087890625" lon="-71.1664256639778614044189453125">
        <ele>584.20001220703125</ele>
        <time>2026-08-22T03:40:14.000Z</time>
        <extensions>
          <ns3:TrackPointExtension>
            <ns3:hr>118</ns3:hr>
            <ns3:cad>81</ns3:cad>
          </ns3:TrackPointExtension>
        </extensions>
      </trkpt>
      <trkpt lat="45.2673617564141750335693359375" lon="-71.166467405855655670166015625">
        <ele>583.79998779296875</ele>
        <time>2026-08-22T03:40:15.000Z</time>
        <extensions>
          <ns3:TrackPointExtension>
            <ns3:hr>118</ns3:hr>
            <ns3:cad>81</ns3:cad>
          </ns3:TrackPointExtension>
        </extensions>
      </trkpt>
      <trkpt lat="45.26736066676676273345947265625" lon="-71.16650654934346675872802734375">
        <ele>583.4000244140625</ele>
        <time>2026-08-22T03:40:16.000Z</time>
        <extensions>
          <ns3:TrackPointExtension>
            <ns3:hr>117</ns3:hr>
            <ns3:cad>40</ns3:cad>
          </ns3:TrackPointExtension>
        </extensions>
      </trkpt>
      <trkpt lat="45.2673647738993167877197265625" lon="-71.1665403284132480621337890625">
        <ele>583</ele>
        <time>2026-08-22T03:40:17.000Z</time>
        <extensions>
          <ns3:TrackPointExtension>
            <ns3:hr>117</ns3:hr>
            <ns3:cad>40</ns3:cad>
          </ns3:TrackPointExtension>
        </extensions>
      </trkpt>
      <trkpt lat="45.267366953194141387939453125" lon="-71.16658232174813747406005859375">
        <ele>582.79998779296875</ele>
        <time>2026-08-22T03:40:18.000Z</time>
        <extensions>
          <ns3:TrackPointExtension>
            <ns3:hr>118</ns3:hr>
            <ns3:cad>42</ns3:cad>
          </ns3:TrackPointExtension>
        </extensions>
      </trkpt>
      <trkpt lat="45.2673634327948093414306640625" lon="-71.16662071086466312408447265625">
        <ele>582.4000244140625</ele>
        <time>2026-08-22T03:40:19.000Z</time>
        <extensions>
          <ns3:TrackPointExtension>
            <ns3:hr>118</ns3:hr>
            <ns3:cad>42</ns3:cad>
          </ns3:TrackPointExtension>
        </extensions>
      </trkpt>
      <trkpt lat="45.26736351661384105682373046875" lon="-71.1666570045053958892822265625">
        <ele>582</ele>
        <time>2026-08-22T03:40:20.000Z</time>
        <extensions>
          <ns3:TrackPointExtension>
            <ns3:hr>119</ns3:hr>
            <ns3:cad>86</ns3:cad>
          </ns3:TrackPointExtension>
        </extensions>
      </trkpt>
      <trkpt lat="45.267363600432872772216796875" lon="-71.16669966839253902435302734375">
        <ele>581.5999755859375</ele>
        <time>2026-08-22T03:40:21.000Z</time>
        <extensions>
          <ns3:TrackPointExtension>
            <ns3:hr>120</ns3:hr>
            <ns3:cad>86</ns3:cad>
          </ns3:TrackPointExtension>
        </extensions>
      </trkpt>
      <trkpt lat="45.26736519299447536468505859375" lon="-71.166736297309398651123046875">
        <ele>581</ele>
        <time>2026-08-22T03:40:22.000Z</time>
        <extensions>
          <ns3:TrackPointExtension>
            <ns3:hr>121</ns3:hr>
            <ns3:cad>87</ns3:cad>
          </ns3:TrackPointExtension>
        </extensions>
      </trkpt>
      <trkpt lat="45.2673657797276973724365234375" lon="-71.16677376441657543182373046875">
        <ele>580.5999755859375</ele>
        <time>2026-08-22T03:40:23.000Z</time>
        <extensions>
          <ns3:TrackPointExtension>
            <ns3:hr>123</ns3:hr>
            <ns3:cad>87</ns3:cad>
          </ns3:TrackPointExtension>
        </extensions>
      </trkpt>
      <trkpt lat="45.26736536063253879547119140625" lon="-71.1668095551431179046630859375">
        <ele>580.20001220703125</ele>
        <time>2026-08-22T03:40:24.000Z</time>
        <extensions>
          <ns3:TrackPointExtension>
            <ns3:hr>124</ns3:hr>
            <ns3:cad>87</ns3:cad>
          </ns3:TrackPointExtension>
        </extensions>
      </trkpt>
      <trkpt lat="45.2673684619367122650146484375" lon="-71.1668481118977069854736328125">
        <ele>580</ele>
        <time>2026-08-22T03:40:25.000Z</time>
        <extensions>
          <ns3:TrackPointExtension>
            <ns3:hr>124</ns3:hr>
            <ns3:cad>0</ns3:cad>
          </ns3:TrackPointExtension>
        </extensions>
      </trkpt>
      <trkpt lat="45.2673711441457271575927734375" lon="-71.16688339971005916595458984375">
        <ele>579.5999755859375</ele>
        <time>2026-08-22T03:40:26.000Z</time>
        <extensions>
          <ns3:TrackPointExtension>
            <ns3:hr>124</ns3:hr>
            <ns3:cad>0</ns3:cad>
          </ns3:TrackPointExtension>
        </extensions>
      </trkpt>
      <trkpt lat="45.2673694677650928497314453125" lon="-71.166915334761142730712890625">
        <ele>579.4000244140625</ele>
        <time>2026-08-22T03:40:27.000Z</time>
        <extensions>
          <ns3:TrackPointExtension>
            <ns3:hr>124</ns3:hr>
            <ns3:cad>42</ns3:cad>
          </ns3:TrackPointExtension>
        </extensions>
      </trkpt>
      <trkpt lat="45.267370641231536865234375" lon="-71.1669507063925266265869140625">
        <ele>579</ele>
        <time>2026-08-22T03:40:28.000Z</time>
        <extensions>
          <ns3:TrackPointExtension>
            <ns3:hr>124</ns3:hr>
            <ns3:cad>42</ns3:cad>
          </ns3:TrackPointExtension>
        </extensions>
      </trkpt>
      <trkpt lat="45.26737206615507602691650390625" lon="-71.16698968224227428436279296875">
        <ele>578.5999755859375</ele>
        <time>2026-08-22T03:40:29.000Z</time>
        <extensions>
          <ns3:TrackPointExtension>
            <ns3:hr>124</ns3:hr>
            <ns3:cad>42</ns3:cad>
          </ns3:TrackPointExtension>
        </extensions>
      </trkpt>
      <trkpt lat="45.26737290434539318084716796875" lon="-71.16702966392040252685546875">
        <ele>578.4000244140625</ele>
        <time>2026-08-22T03:40:30.000Z</time>
        <extensions>
          <ns3:TrackPointExtension>
            <ns3:hr>124</ns3:hr>
            <ns3:cad>42</ns3:cad>
          </ns3:TrackPointExtension>
        </extensions>
      </trkpt>
      <trkpt lat="45.26737323962152004241943359375" lon="-71.16706176660954952239990234375">
        <ele>578</ele>
        <time>2026-08-22T03:40:31.000Z</time>
        <extensions>
          <ns3:TrackPointExtension>
            <ns3:hr>125</ns3:hr>
            <ns3:cad>42</ns3:cad>
          </ns3:TrackPointExtension>
        </extensions>
      </trkpt>
      <trkpt lat="45.2673721499741077423095703125" lon="-71.16709730587899684906005859375">
        <ele>577.5999755859375</ele>
        <time>2026-08-22T03:40:32.000Z</time>
        <extensions>
          <ns3:TrackPointExtension>
            <ns3:hr>125</ns3:hr>
            <ns3:cad>41</ns3:cad>
          </ns3:TrackPointExtension>
        </extensions>
      </trkpt>
      <trkpt lat="45.26737038977444171905517578125" lon="-71.16713452152907848358154296875">
        <ele>577.20001220703125</ele>
        <time>2026-08-22T03:40:33.000Z</time>
        <extensions>
          <ns3:TrackPointExtension>
            <ns3:hr>126</ns3:hr>
            <ns3:cad>83</ns3:cad>
          </ns3:TrackPointExtension>
        </extensions>
      </trkpt>
      <trkpt lat="45.26737173087894916534423828125" lon="-71.16716779768466949462890625">
        <ele>576.79998779296875</ele>
        <time>2026-08-22T03:40:34.000Z</time>
        <extensions>
          <ns3:TrackPointExtension>
            <ns3:hr>126</ns3:hr>
            <ns3:cad>83</ns3:cad>
          </ns3:TrackPointExtension>
        </extensions>
      </trkpt>
      <trkpt lat="45.26737533509731292724609375" lon="-71.16720643825829029083251953125">
        <ele>576.5999755859375</ele>
        <time>2026-08-22T03:40:35.000Z</time>
        <extensions>
          <ns3:TrackPointExtension>
            <ns3:hr>126</ns3:hr>
            <ns3:cad>83</ns3:cad>
          </ns3:TrackPointExtension>
        </extensions>
      </trkpt>
      <trkpt lat="45.26737592183053493499755859375" lon="-71.16724289953708648681640625">
        <ele>576.20001220703125</ele>
        <time>2026-08-22T03:40:36.000Z</time>
        <extensions>
          <ns3:TrackPointExtension>
            <ns3:hr>127</ns3:hr>
            <ns3:cad>83</ns3:cad>
          </ns3:TrackPointExtension>
        </extensions>
      </trkpt>
      <trkpt lat="45.2673738263547420501708984375" lon="-71.1672762595117092132568359375">
        <ele>575.79998779296875</ele>
        <time>2026-08-22T03:40:37.000Z</time>
        <extensions>
          <ns3:TrackPointExtension>
            <ns3:hr>127</ns3:hr>
            <ns3:cad>84</ns3:cad>
          </ns3:TrackPointExtension>
        </extensions>
      </trkpt>
      <trkpt lat="45.2673719823360443115234375" lon="-71.16731691174209117889404296875">
        <ele>575.5999755859375</ele>
        <time>2026-08-22T03:40:38.000Z</time>
        <extensions>
          <ns3:TrackPointExtension>
            <ns3:hr>127</ns3:hr>
            <ns3:cad>84</ns3:cad>
          </ns3:TrackPointExtension>
        </extensions>
      </trkpt>
      <trkpt lat="45.26737055741250514984130859375" lon="-71.1673473380506038665771484375">
        <ele>575.20001220703125</ele>
        <time>2026-08-22T03:40:39.000Z</time>
        <extensions>
          <ns3:TrackPointExtension>
            <ns3:hr>127</ns3:hr>
            <ns3:cad>84</ns3:cad>
          </ns3:TrackPointExtension>
        </extensions>
      </trkpt>
      <trkpt lat="45.26736837811768054962158203125" lon="-71.16737826727330684661865234375">
        <ele>574.79998779296875</ele>
        <time>2026-08-22T03:40:40.000Z</time>
        <extensions>
          <ns3:TrackPointExtension>
            <ns3:hr>127</ns3:hr>
            <ns3:cad>84</ns3:cad>
          </ns3:TrackPointExtension>
        </extensions>
      </trkpt>
      <trkpt lat="45.26737206615507602691650390625" lon="-71.1674150638282299041748046875">
        <ele>574.5999755859375</ele>
        <time>2026-08-22T03:40:41.000Z</time>
        <extensions>
          <ns3:TrackPointExtension>
            <ns3:hr>128</ns3:hr>
            <ns3:cad>84</ns3:cad>
          </ns3:TrackPointExtension>
        </extensions>
      </trkpt>
      <trkpt lat="45.2673746645450592041015625" lon="-71.16745286621153354644775390625">
        <ele>574.20001220703125</ele>
        <time>2026-08-22T03:40:42.000Z</time>
        <extensions>
          <ns3:TrackPointExtension>
            <ns3:hr>128</ns3:hr>
            <ns3:cad>83</ns3:cad>
          </ns3:TrackPointExtension>
        </extensions>
      </trkpt>
      <trkpt lat="45.26737399399280548095703125" lon="-71.1674915067851543426513671875">
        <ele>574</ele>
        <time>2026-08-22T03:40:43.000Z</time>
        <extensions>
          <ns3:TrackPointExtension>
            <ns3:hr>128</ns3:hr>
            <ns3:cad>83</ns3:cad>
          </ns3:TrackPointExtension>
        </extensions>
      </trkpt>
      <trkpt lat="45.2673724852502346038818359375" lon="-71.16752394475042819976806640625">
        <ele>573.79998779296875</ele>
        <time>2026-08-22T03:40:44.000Z</time>
        <extensions>
          <ns3:TrackPointExtension>
            <ns3:hr>128</ns3:hr>
            <ns3:cad>41</ns3:cad>
          </ns3:TrackPointExtension>
        </extensions>
      </trkpt>
      <trkpt lat="45.2673724852502346038818359375" lon="-71.1675599031150341033935546875">
        <ele>573.4000244140625</ele>
        <time>2026-08-22T03:40:45.000Z</time>
        <extensions>
          <ns3:TrackPointExtension>
            <ns3:hr>128</ns3:hr>
            <ns3:cad>41</ns3:cad>
          </ns3:TrackPointExtension>
        </extensions>
      </trkpt>
      <trkpt lat="45.26737273670732975006103515625" lon="-71.1675887368619441986083984375">
        <ele>573.20001220703125</ele>
        <time>2026-08-22T03:40:46.000Z</time>
        <extensions>
          <ns3:TrackPointExtension>
            <ns3:hr>129</ns3:hr>
            <ns3:cad>41</ns3:cad>
          </ns3:TrackPointExtension>
        </extensions>
      </trkpt>
      <trkpt lat="45.26737910695374011993408203125" lon="-71.16762519814074039459228515625">
        <ele>572.79998779296875</ele>
        <time>2026-08-22T03:40:47.000Z</time>
        <extensions>
          <ns3:TrackPointExtension>
            <ns3:hr>129</ns3:hr>
            <ns3:cad>41</ns3:cad>
          </ns3:TrackPointExtension>
        </extensions>
      </trkpt>
      <trkpt lat="45.267376340925693511962890625" lon="-71.1676658503711223602294921875">
        <ele>572.5999755859375</ele>
        <time>2026-08-22T03:40:48.000Z</time>
        <extensions>
          <ns3:TrackPointExtension>
            <ns3:hr>130</ns3:hr>
            <ns3:cad>41</ns3:cad>
          </ns3:TrackPointExtension>
        </extensions>
      </trkpt>
      <trkpt lat="45.26737935841083526611328125" lon="-71.16770046763122081756591796875">
        <ele>572.4000244140625</ele>
        <time>2026-08-22T03:40:49.000Z</time>
        <extensions>
          <ns3:TrackPointExtension>
            <ns3:hr>131</ns3:hr>
            <ns3:cad>41</ns3:cad>
          </ns3:TrackPointExtension>
        </extensions>
      </trkpt>
      <trkpt lat="45.2673801966011524200439453125" lon="-71.167735755443572998046875">
        <ele>572</ele>
        <time>2026-08-22T03:40:50.000Z</time>
        <extensions>
          <ns3:TrackPointExtension>
            <ns3:hr>131</ns3:hr>
            <ns3:cad>41</ns3:cad>
          </ns3:TrackPointExtension>
        </extensions>
      </trkpt>
      <trkpt lat="45.2673800289630889892578125" lon="-71.16777305491268634796142578125">
        <ele>571.79998779296875</ele>
        <time>2026-08-22T03:40:51.000Z</time>
        <extensions>
          <ns3:TrackPointExtension>
            <ns3:hr>131</ns3:hr>
            <ns3:cad>40</ns3:cad>
          </ns3:TrackPointExtension>
        </extensions>
      </trkpt>
      <trkpt lat="45.2673812024295330047607421875" lon="-71.16781110875308513641357421875">
        <ele>571.5999755859375</ele>
        <time>2026-08-22T03:40:52.000Z</time>
        <extensions>
          <ns3:TrackPointExtension>
            <ns3:hr>131</ns3:hr>
            <ns3:cad>40</ns3:cad>
          </ns3:TrackPointExtension>
        </extensions>
      </trkpt>
      <trkpt lat="45.2673825435340404510498046875" lon="-71.16784371435642242431640625">
        <ele>571.20001220703125</ele>
        <time>2026-08-22T03:40:53.000Z</time>
        <extensions>
          <ns3:TrackPointExtension>
            <ns3:hr>131</ns3:hr>
            <ns3:cad>40</ns3:cad>
          </ns3:TrackPointExtension>
        </extensions>
      </trkpt>
      <trkpt lat="45.2673848904669284820556640625" lon="-71.16787363775074481964111328125">
        <ele>571</ele>
        <time>2026-08-22T03:40:54.000Z</time>
        <extensions>
          <ns3:TrackPointExtension>
            <ns3:hr>130</ns3:hr>
            <ns3:cad>40</ns3:cad>
          </ns3:TrackPointExtension>
        </extensions>
      </trkpt>
      <trkpt lat="45.26738832704722881317138671875" lon="-71.167904399335384368896484375">
        <ele>570.79998779296875</ele>
        <time>2026-08-22T03:40:55.000Z</time>
        <extensions>
          <ns3:TrackPointExtension>
            <ns3:hr>130</ns3:hr>
            <ns3:cad>40</ns3:cad>
          </ns3:TrackPointExtension>
        </extensions>
      </trkpt>
      <trkpt lat="45.2673909254372119903564453125" lon="-71.16793633438646793365478515625">
        <ele>570.4000244140625</ele>
        <time>2026-08-22T03:40:56.000Z</time>
        <extensions>
          <ns3:TrackPointExtension>
            <ns3:hr>129</ns3:hr>
            <ns3:cad>40</ns3:cad>
          </ns3:TrackPointExtension>
        </extensions>
      </trkpt>
      <trkpt lat="45.26739486493170261383056640625" lon="-71.16797002963721752166748046875">
        <ele>570.20001220703125</ele>
        <time>2026-08-22T03:40:57.000Z</time>
        <extensions>
          <ns3:TrackPointExtension>
            <ns3:hr>128</ns3:hr>
            <ns3:cad>40</ns3:cad>
          </ns3:TrackPointExtension>
        </extensions>
      </trkpt>
      <trkpt lat="45.26739788241684436798095703125" lon="-71.16800129413604736328125">
        <ele>569.79998779296875</ele>
        <time>2026-08-22T03:40:58.000Z</time>
        <extensions>
          <ns3:TrackPointExtension>
            <ns3:hr>127</ns3:hr>
            <ns3:cad>40</ns3:cad>
          </ns3:TrackPointExtension>
        </extensions>
      </trkpt>
      <trkpt lat="45.26739813387393951416015625" lon="-71.1680289544165134429931640625">
        <ele>569.5999755859375</ele>
        <time>2026-08-22T03:40:59.000Z</time>
        <extensions>
          <ns3:TrackPointExtension>
            <ns3:hr>127</ns3:hr>
            <ns3:cad>40</ns3:cad>
          </ns3:TrackPointExtension>
        </extensions>
      </trkpt>
      <trkpt lat="45.26740240864455699920654296875" lon="-71.16806139238178730010986328125">
        <ele>569.4000244140625</ele>
        <time>2026-08-22T03:41:00.000Z</time>
        <extensions>
          <ns3:TrackPointExtension>
            <ns3:hr>128</ns3:hr>
            <ns3:cad>40</ns3:cad>
          </ns3:TrackPointExtension>
        </extensions>
      </trkpt>
      <trkpt lat="45.26740224100649356842041015625" lon="-71.16809207014739513397216796875">
        <ele>569</ele>
        <time>2026-08-22T03:41:01.000Z</time>
        <extensions>
          <ns3:TrackPointExtension>
            <ns3:hr>128</ns3:hr>
            <ns3:cad>40</ns3:cad>
          </ns3:TrackPointExtension>
        </extensions>
      </trkpt>
      <trkpt lat="45.2674016542732715606689453125" lon="-71.16812475956976413726806640625">
        <ele>568.5999755859375</ele>
        <time>2026-08-22T03:41:02.000Z</time>
        <extensions>
          <ns3:TrackPointExtension>
            <ns3:hr>129</ns3:hr>
            <ns3:cad>40</ns3:cad>
          </ns3:TrackPointExtension>
        </extensions>
      </trkpt>
      <trkpt lat="45.26740274392068386077880859375" lon="-71.16815887391567230224609375">
        <ele>568.4000244140625</ele>
        <time>2026-08-22T03:41:03.000Z</time>
        <extensions>
          <ns3:TrackPointExtension>
            <ns3:hr>129</ns3:hr>
            <ns3:cad>82</ns3:cad>
          </ns3:TrackPointExtension>
        </extensions>
      </trkpt>
      <trkpt lat="45.2674043364822864532470703125" lon="-71.16819441318511962890625">
        <ele>568</ele>
        <time>2026-08-22T03:41:04.000Z</time>
        <extensions>
          <ns3:TrackPointExtension>
            <ns3:hr>129</ns3:hr>
            <ns3:cad>82</ns3:cad>
          </ns3:TrackPointExtension>
        </extensions>
      </trkpt>
      <trkpt lat="45.2674093656241893768310546875" lon="-71.16823087446391582489013671875">
        <ele>567.5999755859375</ele>
        <time>2026-08-22T03:41:05.000Z</time>
        <extensions>
          <ns3:TrackPointExtension>
            <ns3:hr>129</ns3:hr>
            <ns3:cad>82</ns3:cad>
          </ns3:TrackPointExtension>
        </extensions>
      </trkpt>
      <trkpt lat="45.26741028763353824615478515625" lon="-71.1682656593620777130126953125">
        <ele>567.4000244140625</ele>
        <time>2026-08-22T03:41:06.000Z</time>
        <extensions>
          <ns3:TrackPointExtension>
            <ns3:hr>129</ns3:hr>
            <ns3:cad>82</ns3:cad>
          </ns3:TrackPointExtension>
        </extensions>
      </trkpt>
      <trkpt lat="45.2674110420048236846923828125" lon="-71.16830597631633281707763671875">
        <ele>567</ele>
        <time>2026-08-22T03:41:07.000Z</time>
        <extensions>
          <ns3:TrackPointExtension>
            <ns3:hr>129</ns3:hr>
            <ns3:cad>82</ns3:cad>
          </ns3:TrackPointExtension>
        </extensions>
      </trkpt>
      <trkpt lat="45.2674095332622528076171875" lon="-71.16834403015673160552978515625">
        <ele>566.79998779296875</ele>
        <time>2026-08-22T03:41:08.000Z</time>
        <extensions>
          <ns3:TrackPointExtension>
            <ns3:hr>130</ns3:hr>
            <ns3:cad>82</ns3:cad>
          </ns3:TrackPointExtension>
        </extensions>
      </trkpt>
      <trkpt lat="45.26741062290966510772705078125" lon="-71.16837873123586177825927734375">
        <ele>566.5999755859375</ele>
        <time>2026-08-22T03:41:09.000Z</time>
        <extensions>
          <ns3:TrackPointExtension>
            <ns3:hr>130</ns3:hr>
            <ns3:cad>82</ns3:cad>
          </ns3:TrackPointExtension>
        </extensions>
      </trkpt>
      <trkpt lat="45.26740961708128452301025390625" lon="-71.1684145219624042510986328125">
        <ele>566.4000244140625</ele>
        <time>2026-08-22T03:41:10.000Z</time>
        <extensions>
          <ns3:TrackPointExtension>
            <ns3:hr>130</ns3:hr>
            <ns3:cad>82</ns3:cad>
          </ns3:TrackPointExtension>
        </extensions>
      </trkpt>
      <trkpt lat="45.26740727014839649200439453125" lon="-71.168452911078929901123046875">
        <ele>566.20001220703125</ele>
        <time>2026-08-22T03:41:11.000Z</time>
        <extensions>
          <ns3:TrackPointExtension>
            <ns3:hr>130</ns3:hr>
            <ns3:cad>81</ns3:cad>
          </ns3:TrackPointExtension>
        </extensions>
      </trkpt>
      <trkpt lat="45.2674063481390476226806640625" lon="-71.16848786361515522003173828125">
        <ele>566</ele>
        <time>2026-08-22T03:41:12.000Z</time>
        <extensions>
          <ns3:TrackPointExtension>
            <ns3:hr>130</ns3:hr>
            <ns3:cad>81</ns3:cad>
          </ns3:TrackPointExtension>
        </extensions>
      </trkpt>
      <trkpt lat="45.26740509085357189178466796875" lon="-71.16852306760847568511962890625">
        <ele>565.79998779296875</ele>
        <time>2026-08-22T03:41:13.000Z</time>
        <extensions>
          <ns3:TrackPointExtension>
            <ns3:hr>130</ns3:hr>
            <ns3:cad>81</ns3:cad>
          </ns3:TrackPointExtension>
        </extensions>
      </trkpt>
      <trkpt lat="45.26740341447293758392333984375" lon="-71.1685566790401935577392578125">
        <ele>565.5999755859375</ele>
        <time>2026-08-22T03:41:14.000Z</time>
        <extensions>
          <ns3:TrackPointExtension>
            <ns3:hr>130</ns3:hr>
            <ns3:cad>81</ns3:cad>
          </ns3:TrackPointExtension>
        </extensions>
      </trkpt>
      <trkpt lat="45.267405174672603607177734375" lon="-71.16858660243451595306396484375">
        <ele>565.4000244140625</ele>
        <time>2026-08-22T03:41:15.000Z</time>
        <extensions>
          <ns3:TrackPointExtension>
            <ns3:hr>130</ns3:hr>
            <ns3:cad>84</ns3:cad>
          </ns3:TrackPointExtension>
        </extensions>
      </trkpt>
      <trkpt lat="45.26740458793938159942626953125" lon="-71.168620884418487548828125">
        <ele>565.4000244140625</ele>
        <time>2026-08-22T03:41:16.000Z</time>
        <extensions>
          <ns3:TrackPointExtension>
            <ns3:hr>130</ns3:hr>
            <ns3:cad>84</ns3:cad>
          </ns3:TrackPointExtension>
        </extensions>
      </trkpt>
      <trkpt lat="45.26740358211100101470947265625" lon="-71.16865533404052257537841796875">
        <ele>565.20001220703125</ele>
        <time>2026-08-22T03:41:17.000Z</time>
        <extensions>
          <ns3:TrackPointExtension>
            <ns3:hr>130</ns3:hr>
            <ns3:cad>84</ns3:cad>
          </ns3:TrackPointExtension>
        </extensions>
      </trkpt>
      <trkpt lat="45.2674036659300327301025390625" lon="-71.16868995130062103271484375">
        <ele>565</ele>
        <time>2026-08-22T03:41:18.000Z</time>
        <extensions>
          <ns3:TrackPointExtension>
            <ns3:hr>130</ns3:hr>
            <ns3:cad>81</ns3:cad>
          </ns3:TrackPointExtension>
        </extensions>
      </trkpt>
      <trkpt lat="45.26740056462585926055908203125" lon="-71.16872808896005153656005859375">
        <ele>565</ele>
        <time>2026-08-22T03:41:19.000Z</time>
        <extensions>
          <ns3:TrackPointExtension>
            <ns3:hr>130</ns3:hr>
            <ns3:cad>81</ns3:cad>
          </ns3:TrackPointExtension>
        </extensions>
      </trkpt>
      <trkpt lat="45.2673996426165103912353515625" lon="-71.16875390522181987762451171875">
        <ele>564.79998779296875</ele>
        <time>2026-08-22T03:41:20.000Z</time>
        <extensions>
          <ns3:TrackPointExtension>
            <ns3:hr>130</ns3:hr>
            <ns3:cad>81</ns3:cad>
          </ns3:TrackPointExtension>
        </extensions>
      </trkpt>
      <trkpt lat="45.2674026601016521453857421875" lon="-71.168787181377410888671875">
        <ele>564.5999755859375</ele>
        <time>2026-08-22T03:41:21.000Z</time>
        <extensions>
          <ns3:TrackPointExtension>
            <ns3:hr>130</ns3:hr>
            <ns3:cad>81</ns3:cad>
          </ns3:TrackPointExtension>
        </extensions>
      </trkpt>
      <trkpt lat="45.2674046717584133148193359375" lon="-71.16882230155169963836669921875">
        <ele>564.4000244140625</ele>
        <time>2026-08-22T03:41:22.000Z</time>
        <extensions>
          <ns3:TrackPointExtension>
            <ns3:hr>129</ns3:hr>
            <ns3:cad>81</ns3:cad>
          </ns3:TrackPointExtension>
        </extensions>
      </trkpt>
      <trkpt lat="45.267401821911334991455078125" lon="-71.168851219117641448974609375">
        <ele>564.20001220703125</ele>
        <time>2026-08-22T03:41:23.000Z</time>
        <extensions>
          <ns3:TrackPointExtension>
            <ns3:hr>128</ns3:hr>
            <ns3:cad>81</ns3:cad>
          </ns3:TrackPointExtension>
        </extensions>
      </trkpt>
      <trkpt lat="45.26740173809230327606201171875" lon="-71.16888700984418392181396484375">
        <ele>564.20001220703125</ele>
        <time>2026-08-22T03:41:24.000Z</time>
        <extensions>
          <ns3:TrackPointExtension>
            <ns3:hr>127</ns3:hr>
            <ns3:cad>81</ns3:cad>
          </ns3:TrackPointExtension>
        </extensions>
      </trkpt>
      <trkpt lat="45.2674023248255252838134765625" lon="-71.1689224652945995330810546875">
        <ele>564</ele>
        <time>2026-08-22T03:41:25.000Z</time>
        <extensions>
          <ns3:TrackPointExtension>
            <ns3:hr>127</ns3:hr>
            <ns3:cad>82</ns3:cad>
          </ns3:TrackPointExtension>
        </extensions>
      </trkpt>
      <trkpt lat="45.26740157045423984527587890625" lon="-71.16895607672631740570068359375">
        <ele>563.79998779296875</ele>
        <time>2026-08-22T03:41:26.000Z</time>
        <extensions>
          <ns3:TrackPointExtension>
            <ns3:hr>127</ns3:hr>
            <ns3:cad>82</ns3:cad>
          </ns3:TrackPointExtension>
        </extensions>
      </trkpt>
      <trkpt lat="45.2674026601016521453857421875" lon="-71.168990693986415863037109375">
        <ele>563.79998779296875</ele>
        <time>2026-08-22T03:41:27.000Z</time>
        <extensions>
          <ns3:TrackPointExtension>
            <ns3:hr>127</ns3:hr>
            <ns3:cad>82</ns3:cad>
          </ns3:TrackPointExtension>
        </extensions>
      </trkpt>
      <trkpt lat="45.267408192157745361328125" lon="-71.16903034038841724395751953125">
        <ele>563.5999755859375</ele>
        <time>2026-08-22T03:41:28.000Z</time>
        <extensions>
          <ns3:TrackPointExtension>
            <ns3:hr>127</ns3:hr>
            <ns3:cad>82</ns3:cad>
          </ns3:TrackPointExtension>
        </extensions>
      </trkpt>
      <trkpt lat="45.26740618050098419189453125" lon="-71.169065795838832855224609375">
        <ele>563.5999755859375</ele>
        <time>2026-08-22T03:41:29.000Z</time>
        <extensions>
          <ns3:TrackPointExtension>
            <ns3:hr>126</ns3:hr>
            <ns3:cad>82</ns3:cad>
          </ns3:TrackPointExtension>
        </extensions>
      </trkpt>
      <trkpt lat="45.26740743778645992279052734375" lon="-71.16910024546086788177490234375">
        <ele>563.4000244140625</ele>
        <time>2026-08-22T03:41:30.000Z</time>
        <extensions>
          <ns3:TrackPointExtension>
            <ns3:hr>126</ns3:hr>
            <ns3:cad>82</ns3:cad>
          </ns3:TrackPointExtension>
        </extensions>
      </trkpt>
      <trkpt lat="45.26741062290966510772705078125" lon="-71.1691353656351566314697265625">
        <ele>563.4000244140625</ele>
        <time>2026-08-22T03:41:31.000Z</time>
        <extensions>
          <ns3:TrackPointExtension>
            <ns3:hr>127</ns3:hr>
            <ns3:cad>82</ns3:cad>
          </ns3:TrackPointExtension>
        </extensions>
      </trkpt>
      <trkpt lat="45.2674100361764430999755859375" lon="-71.16916947998106479644775390625">
        <ele>563.20001220703125</ele>
        <time>2026-08-22T03:41:32.000Z</time>
        <extensions>
          <ns3:TrackPointExtension>
            <ns3:hr>127</ns3:hr>
            <ns3:cad>82</ns3:cad>
          </ns3:TrackPointExtension>
        </extensions>
      </trkpt>
      <trkpt lat="45.267409868538379669189453125" lon="-71.169201247394084930419921875">
        <ele>563</ele>
        <time>2026-08-22T03:41:33.000Z</time>
        <extensions>
          <ns3:TrackPointExtension>
            <ns3:hr>127</ns3:hr>
            <ns3:cad>82</ns3:cad>
          </ns3:TrackPointExtension>
        </extensions>
      </trkpt>
      <trkpt lat="45.26741364039480686187744140625" lon="-71.16923586465418338775634765625">
        <ele>562.79998779296875</ele>
        <time>2026-08-22T03:41:34.000Z</time>
        <extensions>
          <ns3:TrackPointExtension>
            <ns3:hr>127</ns3:hr>
            <ns3:cad>83</ns3:cad>
          </ns3:TrackPointExtension>
        </extensions>
      </trkpt>
      <trkpt lat="45.2674140594899654388427734375" lon="-71.16927425377070903778076171875">
        <ele>562.5999755859375</ele>
        <time>2026-08-22T03:41:35.000Z</time>
        <extensions>
          <ns3:TrackPointExtension>
            <ns3:hr>127</ns3:hr>
            <ns3:cad>83</ns3:cad>
          </ns3:TrackPointExtension>
        </extensions>
      </trkpt>
      <trkpt lat="45.2674143947660923004150390625" lon="-71.16930912248790264129638671875">
        <ele>562.4000244140625</ele>
        <time>2026-08-22T03:41:36.000Z</time>
        <extensions>
          <ns3:TrackPointExtension>
            <ns3:hr>128</ns3:hr>
            <ns3:cad>83</ns3:cad>
          </ns3:TrackPointExtension>
        </extensions>
      </trkpt>
      <trkpt lat="45.26741347275674343109130859375" lon="-71.1693405546247959136962890625">
        <ele>562.20001220703125</ele>
        <time>2026-08-22T03:41:37.000Z</time>
        <extensions>
          <ns3:TrackPointExtension>
            <ns3:hr>128</ns3:hr>
            <ns3:cad>82</ns3:cad>
          </ns3:TrackPointExtension>
        </extensions>
      </trkpt>
      <trkpt lat="45.26741280220448970794677734375" lon="-71.1693774349987506866455078125">
        <ele>562</ele>
        <time>2026-08-22T03:41:38.000Z</time>
        <extensions>
          <ns3:TrackPointExtension>
            <ns3:hr>129</ns3:hr>
            <ns3:cad>82</ns3:cad>
          </ns3:TrackPointExtension>
        </extensions>
      </trkpt>
      <trkpt lat="45.267414562404155731201171875" lon="-71.16940869949758052825927734375">
        <ele>561.5999755859375</ele>
        <time>2026-08-22T03:41:39.000Z</time>
        <extensions>
          <ns3:TrackPointExtension>
            <ns3:hr>130</ns3:hr>
            <ns3:cad>82</ns3:cad>
          </ns3:TrackPointExtension>
        </extensions>
      </trkpt>
      <trkpt lat="45.26741380803287029266357421875" lon="-71.1694465018808841705322265625">
        <ele>561.4000244140625</ele>
        <time>2026-08-22T03:41:40.000Z</time>
        <extensions>
          <ns3:TrackPointExtension>
            <ns3:hr>130</ns3:hr>
            <ns3:cad>82</ns3:cad>
          </ns3:TrackPointExtension>
        </extensions>
      </trkpt>
      <trkpt lat="45.26741481386125087738037109375" lon="-71.1694837175309658050537109375">
        <ele>561.20001220703125</ele>
        <time>2026-08-22T03:41:41.000Z</time>
        <extensions>
          <ns3:TrackPointExtension>
            <ns3:hr>130</ns3:hr>
            <ns3:cad>82</ns3:cad>
          </ns3:TrackPointExtension>
        </extensions>
      </trkpt>
      <trkpt lat="45.26741565205156803131103515625" lon="-71.169519089162349700927734375">
        <ele>560.79998779296875</ele>
        <time>2026-08-22T03:41:42.000Z</time>
        <extensions>
          <ns3:TrackPointExtension>
            <ns3:hr>130</ns3:hr>
            <ns3:cad>82</ns3:cad>
          </ns3:TrackPointExtension>
        </extensions>
      </trkpt>
      <trkpt lat="45.26741447858512401580810546875" lon="-71.1695568077266216278076171875">
        <ele>560.5999755859375</ele>
        <time>2026-08-22T03:41:43.000Z</time>
        <extensions>
          <ns3:TrackPointExtension>
            <ns3:hr>130</ns3:hr>
            <ns3:cad>82</ns3:cad>
          </ns3:TrackPointExtension>
        </extensions>
      </trkpt>
      <trkpt lat="45.2674122154712677001953125" lon="-71.16958958096802234649658203125">
        <ele>560.4000244140625</ele>
        <time>2026-08-22T03:41:44.000Z</time>
        <extensions>
          <ns3:TrackPointExtension>
            <ns3:hr>130</ns3:hr>
            <ns3:cad>82</ns3:cad>
          </ns3:TrackPointExtension>
        </extensions>
      </trkpt>
      <trkpt lat="45.26740978471934795379638671875" lon="-71.16962998174130916595458984375">
        <ele>560</ele>
        <time>2026-08-22T03:41:45.000Z</time>
        <extensions>
          <ns3:TrackPointExtension>
            <ns3:hr>130</ns3:hr>
            <ns3:cad>82</ns3:cad>
          </ns3:TrackPointExtension>
        </extensions>
      </trkpt>
      <trkpt lat="45.2674107067286968231201171875" lon="-71.1696687899529933929443359375">
        <ele>559.79998779296875</ele>
        <time>2026-08-22T03:41:46.000Z</time>
        <extensions>
          <ns3:TrackPointExtension>
            <ns3:hr>131</ns3:hr>
            <ns3:cad>82</ns3:cad>
          </ns3:TrackPointExtension>
        </extensions>
      </trkpt>
      <trkpt lat="45.26741179637610912322998046875" lon="-71.1697026528418064117431640625">
        <ele>559.5999755859375</ele>
        <time>2026-08-22T03:41:47.000Z</time>
        <extensions>
          <ns3:TrackPointExtension>
            <ns3:hr>131</ns3:hr>
            <ns3:cad>84</ns3:cad>
          </ns3:TrackPointExtension>
        </extensions>
      </trkpt>
      <trkpt lat="45.26741288602352142333984375" lon="-71.1697368510067462921142578125">
        <ele>559.4000244140625</ele>
        <time>2026-08-22T03:41:48.000Z</time>
        <extensions>
          <ns3:TrackPointExtension>
            <ns3:hr>131</ns3:hr>
            <ns3:cad>84</ns3:cad>
          </ns3:TrackPointExtension>
        </extensions>
      </trkpt>
      <trkpt lat="45.26741288602352142333984375" lon="-71.16977683268487453460693359375">
        <ele>559</ele>
        <time>2026-08-22T03:41:49.000Z</time>
        <extensions>
          <ns3:TrackPointExtension>
            <ns3:hr>131</ns3:hr>
            <ns3:cad>84</ns3:cad>
          </ns3:TrackPointExtension>
        </extensions>
      </trkpt>
      <trkpt lat="45.26741431094706058502197265625" lon="-71.16981203667819499969482421875">
        <ele>558.79998779296875</ele>
        <time>2026-08-22T03:41:50.000Z</time>
        <extensions>
          <ns3:TrackPointExtension>
            <ns3:hr>130</ns3:hr>
            <ns3:cad>84</ns3:cad>
          </ns3:TrackPointExtension>
        </extensions>
      </trkpt>
      <trkpt lat="45.26741397567093372344970703125" lon="-71.169849336147308349609375">
        <ele>558.5999755859375</ele>
        <time>2026-08-22T03:41:51.000Z</time>
        <extensions>
          <ns3:TrackPointExtension>
            <ns3:hr>130</ns3:hr>
            <ns3:cad>84</ns3:cad>
          </ns3:TrackPointExtension>
        </extensions>
      </trkpt>
      <trkpt lat="45.26741347275674343109130859375" lon="-71.169886551797389984130859375">
        <ele>558.4000244140625</ele>
        <time>2026-08-22T03:41:52.000Z</time>
        <extensions>
          <ns3:TrackPointExtension>
            <ns3:hr>130</ns3:hr>
            <ns3:cad>84</ns3:cad>
          </ns3:TrackPointExtension>
        </extensions>
      </trkpt>
      <trkpt lat="45.267414562404155731201171875" lon="-71.169921420514583587646484375">
        <ele>558</ele>
        <time>2026-08-22T03:41:53.000Z</time>
        <extensions>
          <ns3:TrackPointExtension>
            <ns3:hr>130</ns3:hr>
            <ns3:cad>41</ns3:cad>
          </ns3:TrackPointExtension>
        </extensions>
      </trkpt>
      <trkpt lat="45.267417915165424346923828125" lon="-71.1699507571756839752197265625">
        <ele>557.79998779296875</ele>
        <time>2026-08-22T03:41:54.000Z</time>
        <extensions>
          <ns3:TrackPointExtension>
            <ns3:hr>130</ns3:hr>
            <ns3:cad>41</ns3:cad>
          </ns3:TrackPointExtension>
        </extensions>
      </trkpt>
      <trkpt lat="45.2674197591841220855712890625" lon="-71.169989816844463348388671875">
        <ele>557.5999755859375</ele>
        <time>2026-08-22T03:41:55.000Z</time>
        <extensions>
          <ns3:TrackPointExtension>
            <ns3:hr>130</ns3:hr>
            <ns3:cad>41</ns3:cad>
          </ns3:TrackPointExtension>
        </extensions>
      </trkpt>
      <trkpt lat="45.267417244613170623779296875" lon="-71.17002510465681552886962890625">
        <ele>557.5999755859375</ele>
        <time>2026-08-22T03:41:56.000Z</time>
        <extensions>
          <ns3:TrackPointExtension>
            <ns3:hr>130</ns3:hr>
            <ns3:cad>41</ns3:cad>
          </ns3:TrackPointExtension>
        </extensions>
      </trkpt>
      <trkpt lat="45.26741917245090007781982421875" lon="-71.17005879990756511688232421875">
        <ele>557.4000244140625</ele>
        <time>2026-08-22T03:41:57.000Z</time>
        <extensions>
          <ns3:TrackPointExtension>
            <ns3:hr>130</ns3:hr>
            <ns3:cad>41</ns3:cad>
          </ns3:TrackPointExtension>
        </extensions>
      </trkpt>
      <trkpt lat="45.267418585717678070068359375" lon="-71.17009685374796390533447265625">
        <ele>557.20001220703125</ele>
        <time>2026-08-22T03:41:58.000Z</time>
        <extensions>
          <ns3:TrackPointExtension>
            <ns3:hr>130</ns3:hr>
            <ns3:cad>82</ns3:cad>
          </ns3:TrackPointExtension>
        </extensions>
      </trkpt>
      <trkpt lat="45.2674180828034877777099609375" lon="-71.17013507522642612457275390625">
        <ele>557</ele>
        <time>2026-08-22T03:41:59.000Z</time>
        <extensions>
          <ns3:TrackPointExtension>
            <ns3:hr>130</ns3:hr>
            <ns3:cad>83</ns3:cad>
          </ns3:TrackPointExtension>
        </extensions>
      </trkpt>
      <trkpt lat="45.26741598732769489288330078125" lon="-71.17016910575330257415771484375">
        <ele>557</ele>
        <time>2026-08-22T03:42:00.000Z</time>
        <extensions>
          <ns3:TrackPointExtension>
            <ns3:hr>130</ns3:hr>
            <ns3:cad>83</ns3:cad>
          </ns3:TrackPointExtension>
        </extensions>
      </trkpt>
      <trkpt lat="45.267414562404155731201171875" lon="-71.17020539939403533935546875">
        <ele>556.79998779296875</ele>
        <time>2026-08-22T03:42:01.000Z</time>
        <extensions>
          <ns3:TrackPointExtension>
            <ns3:hr>130</ns3:hr>
            <ns3:cad>83</ns3:cad>
          </ns3:TrackPointExtension>
        </extensions>
      </trkpt>
      <trkpt lat="45.26741020381450653076171875" lon="-71.17024160921573638916015625">
        <ele>556.79998779296875</ele>
        <time>2026-08-22T03:42:02.000Z</time>
        <extensions>
          <ns3:TrackPointExtension>
            <ns3:hr>130</ns3:hr>
            <ns3:cad>83</ns3:cad>
          </ns3:TrackPointExtension>
        </extensions>
      </trkpt>
      <trkpt lat="45.26740995235741138458251953125" lon="-71.17027907632291316986083984375">
        <ele>556.5999755859375</ele>
        <time>2026-08-22T03:42:03.000Z</time>
        <extensions>
          <ns3:TrackPointExtension>
            <ns3:hr>131</ns3:hr>
            <ns3:cad>83</ns3:cad>
          </ns3:TrackPointExtension>
        </extensions>
      </trkpt>
      <trkpt lat="45.26741020381450653076171875" lon="-71.17031277157366275787353515625">
        <ele>556.4000244140625</ele>
        <time>2026-08-22T03:42:04.000Z</time>
        <extensions>
          <ns3:TrackPointExtension>
            <ns3:hr>131</ns3:hr>
            <ns3:cad>83</ns3:cad>
          </ns3:TrackPointExtension>
        </extensions>
      </trkpt>
      <trkpt lat="45.2674093656241893768310546875" lon="-71.17035183124244213104248046875">
        <ele>556.4000244140625</ele>
        <time>2026-08-22T03:42:05.000Z</time>
        <extensions>
          <ns3:TrackPointExtension>
            <ns3:hr>132</ns3:hr>
            <ns3:cad>83</ns3:cad>
          </ns3:TrackPointExtension>
        </extensions>
      </trkpt>
      <trkpt lat="45.26741196401417255401611328125" lon="-71.17038653232157230377197265625">
        <ele>556.20001220703125</ele>
        <time>2026-08-22T03:42:06.000Z</time>
        <extensions>
          <ns3:TrackPointExtension>
            <ns3:hr>132</ns3:hr>
            <ns3:cad>83</ns3:cad>
          </ns3:TrackPointExtension>
        </extensions>
      </trkpt>
      <trkpt lat="45.267415903508663177490234375" lon="-71.17042022757232189178466796875">
        <ele>556</ele>
        <time>2026-08-22T03:42:07.000Z</time>
        <extensions>
          <ns3:TrackPointExtension>
            <ns3:hr>132</ns3:hr>
            <ns3:cad>83</ns3:cad>
          </ns3:TrackPointExtension>
        </extensions>
      </trkpt>
      <trkpt lat="45.26741447858512401580810546875" lon="-71.17045911960303783416748046875">
        <ele>556</ele>
        <time>2026-08-22T03:42:08.000Z</time>
        <extensions>
          <ns3:TrackPointExtension>
            <ns3:hr>132</ns3:hr>
            <ns3:cad>84</ns3:cad>
          </ns3:TrackPointExtension>
        </extensions>
      </trkpt>
      <trkpt lat="45.26741498149931430816650390625" lon="-71.1704945750534534454345703125">
        <ele>556</ele>
        <time>2026-08-22T03:42:09.000Z</time>
        <extensions>
          <ns3:TrackPointExtension>
            <ns3:hr>132</ns3:hr>
            <ns3:cad>84</ns3:cad>
          </ns3:TrackPointExtension>
        </extensions>
      </trkpt>
      <trkpt lat="45.26741364039480686187744140625" lon="-71.17052734829485416412353515625">
        <ele>555.79998779296875</ele>
        <time>2026-08-22T03:42:10.000Z</time>
        <extensions>
          <ns3:TrackPointExtension>
            <ns3:hr>132</ns3:hr>
            <ns3:cad>84</ns3:cad>
          </ns3:TrackPointExtension>
        </extensions>
      </trkpt>
      <trkpt lat="45.26741330511868000030517578125" lon="-71.170565150678157806396484375">
        <ele>555.5999755859375</ele>
        <time>2026-08-22T03:42:11.000Z</time>
        <extensions>
          <ns3:TrackPointExtension>
            <ns3:hr>132</ns3:hr>
            <ns3:cad>83</ns3:cad>
          </ns3:TrackPointExtension>
        </extensions>
      </trkpt>
      <trkpt lat="45.26741263456642627716064453125" lon="-71.17059968411922454833984375">
        <ele>555.5999755859375</ele>
        <time>2026-08-22T03:42:12.000Z</time>
        <extensions>
          <ns3:TrackPointExtension>
            <ns3:hr>132</ns3:hr>
            <ns3:cad>83</ns3:cad>
          </ns3:TrackPointExtension>
        </extensions>
      </trkpt>
      <trkpt lat="45.26741280220448970794677734375" lon="-71.1706317029893398284912109375">
        <ele>555.4000244140625</ele>
        <time>2026-08-22T03:42:13.000Z</time>
        <extensions>
          <ns3:TrackPointExtension>
            <ns3:hr>132</ns3:hr>
            <ns3:cad>83</ns3:cad>
          </ns3:TrackPointExtension>
        </extensions>
      </trkpt>
      <trkpt lat="45.2674123831093311309814453125" lon="-71.1706615425646305084228515625">
        <ele>555.4000244140625</ele>
        <time>2026-08-22T03:42:14.000Z</time>
        <extensions>
          <ns3:TrackPointExtension>
            <ns3:hr>132</ns3:hr>
            <ns3:cad>83</ns3:cad>
          </ns3:TrackPointExtension>
        </extensions>
      </trkpt>
      <trkpt lat="45.26741196401417255401611328125" lon="-71.1706994287669658660888671875">
        <ele>555.20001220703125</ele>
        <time>2026-08-22T03:42:15.000Z</time>
        <extensions>
          <ns3:TrackPointExtension>
            <ns3:hr>132</ns3:hr>
            <ns3:cad>83</ns3:cad>
          </ns3:TrackPointExtension>
        </extensions>
      </trkpt>
      <trkpt lat="45.26741213165223598480224609375" lon="-71.1707339622080326080322265625">
        <ele>555</ele>
        <time>2026-08-22T03:42:16.000Z</time>
        <extensions>
          <ns3:TrackPointExtension>
            <ns3:hr>132</ns3:hr>
            <ns3:cad>83</ns3:cad>
          </ns3:TrackPointExtension>
        </extensions>
      </trkpt>
      <trkpt lat="45.26741288602352142333984375" lon="-71.1707648076117038726806640625">
        <ele>555</ele>
        <time>2026-08-22T03:42:17.000Z</time>
        <extensions>
          <ns3:TrackPointExtension>
            <ns3:hr>132</ns3:hr>
            <ns3:cad>83</ns3:cad>
          </ns3:TrackPointExtension>
        </extensions>
      </trkpt>
      <trkpt lat="45.26741447858512401580810546875" lon="-71.1708028614521026611328125">
        <ele>555</ele>
        <time>2026-08-22T03:42:18.000Z</time>
        <extensions>
          <ns3:TrackPointExtension>
            <ns3:hr>131</ns3:hr>
            <ns3:cad>83</ns3:cad>
          </ns3:TrackPointExtension>
        </extensions>
      </trkpt>
      <trkpt lat="45.2674150653183460235595703125" lon="-71.17084150202572345733642578125">
        <ele>554.79998779296875</ele>
        <time>2026-08-22T03:42:19.000Z</time>
        <extensions>
          <ns3:TrackPointExtension>
            <ns3:hr>132</ns3:hr>
            <ns3:cad>83</ns3:cad>
          </ns3:TrackPointExtension>
        </extensions>
      </trkpt>
      <trkpt lat="45.26741690933704376220703125" lon="-71.170876286923885345458984375">
        <ele>554.79998779296875</ele>
        <time>2026-08-22T03:42:20.000Z</time>
        <extensions>
          <ns3:TrackPointExtension>
            <ns3:hr>131</ns3:hr>
            <ns3:cad>84</ns3:cad>
          </ns3:TrackPointExtension>
        </extensions>
      </trkpt>
      <trkpt lat="45.267417244613170623779296875" lon="-71.17091425694525241851806640625">
        <ele>554.79998779296875</ele>
        <time>2026-08-22T03:42:21.000Z</time>
        <extensions>
          <ns3:TrackPointExtension>
            <ns3:hr>131</ns3:hr>
            <ns3:cad>84</ns3:cad>
          </ns3:TrackPointExtension>
        </extensions>
      </trkpt>
      <trkpt lat="45.267417915165424346923828125" lon="-71.1709557473659515380859375">
        <ele>554.79998779296875</ele>
        <time>2026-08-22T03:42:22.000Z</time>
        <extensions>
          <ns3:TrackPointExtension>
            <ns3:hr>131</ns3:hr>
            <ns3:cad>84</ns3:cad>
          </ns3:TrackPointExtension>
        </extensions>
      </trkpt>
      <trkpt lat="45.26742051355540752410888671875" lon="-71.17099204100668430328369140625">
        <ele>554.5999755859375</ele>
        <time>2026-08-22T03:42:23.000Z</time>
        <extensions>
          <ns3:TrackPointExtension>
            <ns3:hr>132</ns3:hr>
            <ns3:cad>83</ns3:cad>
          </ns3:TrackPointExtension>
        </extensions>
      </trkpt>
      <trkpt lat="45.267423279583454132080078125" lon="-71.17103814147412776947021484375">
        <ele>554.5999755859375</ele>
        <time>2026-08-22T03:42:24.000Z</time>
        <extensions>
          <ns3:TrackPointExtension>
            <ns3:hr>132</ns3:hr>
            <ns3:cad>83</ns3:cad>
          </ns3:TrackPointExtension>
        </extensions>
      </trkpt>
      <trkpt lat="45.26742671616375446319580078125" lon="-71.17107233963906764984130859375">
        <ele>554.5999755859375</ele>
        <time>2026-08-22T03:42:25.000Z</time>
        <extensions>
          <ns3:TrackPointExtension>
            <ns3:hr>132</ns3:hr>
            <ns3:cad>83</ns3:cad>
          </ns3:TrackPointExtension>
        </extensions>
      </trkpt>
      <trkpt lat="45.26743073947727680206298828125" lon="-71.1711128242313861846923828125">
        <ele>554.5999755859375</ele>
        <time>2026-08-22T03:42:26.000Z</time>
        <extensions>
          <ns3:TrackPointExtension>
            <ns3:hr>131</ns3:hr>
            <ns3:cad>83</ns3:cad>
          </ns3:TrackPointExtension>
        </extensions>
      </trkpt>
      <trkpt lat="45.267429649829864501953125" lon="-71.17115733213722705841064453125">
        <ele>554.5999755859375</ele>
        <time>2026-08-22T03:42:27.000Z</time>
        <extensions>
          <ns3:TrackPointExtension>
            <ns3:hr>131</ns3:hr>
            <ns3:cad>83</ns3:cad>
          </ns3:TrackPointExtension>
        </extensions>
      </trkpt>
      <trkpt lat="45.267427973449230194091796875" lon="-71.17119915783405303955078125">
        <ele>554.5999755859375</ele>
        <time>2026-08-22T03:42:28.000Z</time>
        <extensions>
          <ns3:TrackPointExtension>
            <ns3:hr>131</ns3:hr>
            <ns3:cad>83</ns3:cad>
          </ns3:TrackPointExtension>
        </extensions>
      </trkpt>
      <trkpt lat="45.2674294821918010711669921875" lon="-71.17123662494122982025146484375">
        <ele>554.5999755859375</ele>
        <time>2026-08-22T03:42:29.000Z</time>
        <extensions>
          <ns3:TrackPointExtension>
            <ns3:hr>132</ns3:hr>
            <ns3:cad>83</ns3:cad>
          </ns3:TrackPointExtension>
        </extensions>
      </trkpt>
      <trkpt lat="45.26743300259113311767578125" lon="-71.17127828299999237060546875">
        <ele>554.5999755859375</ele>
        <time>2026-08-22T03:42:30.000Z</time>
        <extensions>
          <ns3:TrackPointExtension>
            <ns3:hr>132</ns3:hr>
            <ns3:cad>43</ns3:cad>
          </ns3:TrackPointExtension>
        </extensions>
      </trkpt>
      <trkpt lat="45.26743425987660884857177734375" lon="-71.17131088860332965850830078125">
        <ele>554.5999755859375</ele>
        <time>2026-08-22T03:42:31.000Z</time>
        <extensions>
          <ns3:TrackPointExtension>
            <ns3:hr>131</ns3:hr>
            <ns3:cad>43</ns3:cad>
          </ns3:TrackPointExtension>
        </extensions>
      </trkpt>
      <trkpt lat="45.2674371935427188873291015625" lon="-71.1713508702814579010009765625">
        <ele>554.4000244140625</ele>
        <time>2026-08-22T03:42:32.000Z</time>
        <extensions>
          <ns3:TrackPointExtension>
            <ns3:hr>131</ns3:hr>
            <ns3:cad>43</ns3:cad>
          </ns3:TrackPointExtension>
        </extensions>
      </trkpt>
      <trkpt lat="45.26743677444756031036376953125" lon="-71.1713900975883007049560546875">
        <ele>554.4000244140625</ele>
        <time>2026-08-22T03:42:33.000Z</time>
        <extensions>
          <ns3:TrackPointExtension>
            <ns3:hr>131</ns3:hr>
            <ns3:cad>43</ns3:cad>
          </ns3:TrackPointExtension>
        </extensions>
      </trkpt>
      <trkpt lat="45.26743543334305286407470703125" lon="-71.1714202724397182464599609375">
        <ele>554.4000244140625</ele>
        <time>2026-08-22T03:42:34.000Z</time>
        <extensions>
          <ns3:TrackPointExtension>
            <ns3:hr>131</ns3:hr>
            <ns3:cad>43</ns3:cad>
          </ns3:TrackPointExtension>
        </extensions>
      </trkpt>
      <trkpt lat="45.2674361877143383026123046875" lon="-71.1714584939181804656982421875">
        <ele>554.4000244140625</ele>
        <time>2026-08-22T03:42:35.000Z</time>
        <extensions>
          <ns3:TrackPointExtension>
            <ns3:hr>132</ns3:hr>
            <ns3:cad>43</ns3:cad>
          </ns3:TrackPointExtension>
        </extensions>
      </trkpt>
      <trkpt lat="45.26744104921817779541015625" lon="-71.17149478755891323089599609375">
        <ele>554.4000244140625</ele>
        <time>2026-08-22T03:42:36.000Z</time>
        <extensions>
          <ns3:TrackPointExtension>
            <ns3:hr>132</ns3:hr>
            <ns3:cad>85</ns3:cad>
          </ns3:TrackPointExtension>
        </extensions>
      </trkpt>
      <trkpt lat="45.26744046248495578765869140625" lon="-71.17152915336191654205322265625">
        <ele>554.4000244140625</ele>
        <time>2026-08-22T03:42:37.000Z</time>
        <extensions>
          <ns3:TrackPointExtension>
            <ns3:hr>133</ns3:hr>
            <ns3:cad>85</ns3:cad>
          </ns3:TrackPointExtension>
        </extensions>
      </trkpt>
      <trkpt lat="45.26744130067527294158935546875" lon="-71.17156284861266613006591796875">
        <ele>554.20001220703125</ele>
        <time>2026-08-22T03:42:38.000Z</time>
        <extensions>
          <ns3:TrackPointExtension>
            <ns3:hr>133</ns3:hr>
            <ns3:cad>85</ns3:cad>
          </ns3:TrackPointExtension>
        </extensions>
      </trkpt>
      <trkpt lat="45.2674445696175098419189453125" lon="-71.17160056717693805694580078125">
        <ele>554.20001220703125</ele>
        <time>2026-08-22T03:42:39.000Z</time>
        <extensions>
          <ns3:TrackPointExtension>
            <ns3:hr>133</ns3:hr>
            <ns3:cad>85</ns3:cad>
          </ns3:TrackPointExtension>
        </extensions>
      </trkpt>
      <trkpt lat="45.267445407807826995849609375" lon="-71.17163241840898990631103515625">
        <ele>554.20001220703125</ele>
        <time>2026-08-22T03:42:40.000Z</time>
        <extensions>
          <ns3:TrackPointExtension>
            <ns3:hr>132</ns3:hr>
            <ns3:cad>85</ns3:cad>
          </ns3:TrackPointExtension>
        </extensions>
      </trkpt>
      <trkpt lat="45.26744280941784381866455078125" lon="-71.17166661657392978668212890625">
        <ele>554.20001220703125</ele>
        <time>2026-08-22T03:42:41.000Z</time>
        <extensions>
          <ns3:TrackPointExtension>
            <ns3:hr>132</ns3:hr>
            <ns3:cad>85</ns3:cad>
          </ns3:TrackPointExtension>
        </extensions>
      </trkpt>
      <trkpt lat="45.26744096539914608001708984375" lon="-71.1717005632817745208740234375">
        <ele>554</ele>
        <time>2026-08-22T03:42:42.000Z</time>
        <extensions>
          <ns3:TrackPointExtension>
            <ns3:hr>132</ns3:hr>
            <ns3:cad>85</ns3:cad>
          </ns3:TrackPointExtension>
        </extensions>
      </trkpt>
      <trkpt lat="45.26743627153337001800537109375" lon="-71.1717335879802703857421875">
        <ele>554</ele>
        <time>2026-08-22T03:42:43.000Z</time>
        <extensions>
          <ns3:TrackPointExtension>
            <ns3:hr>132</ns3:hr>
            <ns3:cad>85</ns3:cad>
          </ns3:TrackPointExtension>
        </extensions>
      </trkpt>
      <trkpt lat="45.26743694208562374114990234375" lon="-71.17176451720297336578369140625">
        <ele>554</ele>
        <time>2026-08-22T03:42:44.000Z</time>
        <extensions>
          <ns3:TrackPointExtension>
            <ns3:hr>133</ns3:hr>
            <ns3:cad>83</ns3:cad>
          </ns3:TrackPointExtension>
        </extensions>
      </trkpt>
      <trkpt lat="45.26743710972368717193603515625" lon="-71.17180122993886470794677734375">
        <ele>554</ele>
        <time>2026-08-22T03:42:45.000Z</time>
        <extensions>
          <ns3:TrackPointExtension>
            <ns3:hr>133</ns3:hr>
            <ns3:cad>83</ns3:cad>
          </ns3:TrackPointExtension>
        </extensions>
      </trkpt>
      <trkpt lat="45.26743576861917972564697265625" lon="-71.17183559574186801910400390625">
        <ele>554</ele>
        <time>2026-08-22T03:42:46.000Z</time>
        <extensions>
          <ns3:TrackPointExtension>
            <ns3:hr>134</ns3:hr>
            <ns3:cad>83</ns3:cad>
          </ns3:TrackPointExtension>
        </extensions>
      </trkpt>
      <trkpt lat="45.2674338407814502716064453125" lon="-71.17186644114553928375244140625">
        <ele>554</ele>
        <time>2026-08-22T03:42:47.000Z</time>
        <extensions>
          <ns3:TrackPointExtension>
            <ns3:hr>134</ns3:hr>
            <ns3:cad>83</ns3:cad>
          </ns3:TrackPointExtension>
        </extensions>
      </trkpt>
      <trkpt lat="45.267438702285289764404296875" lon="-71.17190114222466945648193359375">
        <ele>554</ele>
        <time>2026-08-22T03:42:48.000Z</time>
        <extensions>
          <ns3:TrackPointExtension>
            <ns3:hr>134</ns3:hr>
            <ns3:cad>82</ns3:cad>
          </ns3:TrackPointExtension>
        </extensions>
      </trkpt>
      <trkpt lat="45.26744113303720951080322265625" lon="-71.17193785496056079864501953125">
        <ele>553.79998779296875</ele>
        <time>2026-08-22T03:42:49.000Z</time>
        <extensions>
          <ns3:TrackPointExtension>
            <ns3:hr>134</ns3:hr>
            <ns3:cad>82</ns3:cad>
          </ns3:TrackPointExtension>
        </extensions>
      </trkpt>
      <trkpt lat="45.26743912138044834136962890625" lon="-71.17196652106940746307373046875">
        <ele>553.79998779296875</ele>
        <time>2026-08-22T03:42:50.000Z</time>
        <extensions>
          <ns3:TrackPointExtension>
            <ns3:hr>134</ns3:hr>
            <ns3:cad>82</ns3:cad>
          </ns3:TrackPointExtension>
        </extensions>
      </trkpt>
      <trkpt lat="45.26744079776108264923095703125" lon="-71.172004155814647674560546875">
        <ele>553.5999755859375</ele>
        <time>2026-08-22T03:42:51.000Z</time>
        <extensions>
          <ns3:TrackPointExtension>
            <ns3:hr>134</ns3:hr>
            <ns3:cad>82</ns3:cad>
          </ns3:TrackPointExtension>
        </extensions>
      </trkpt>
      <trkpt lat="45.26743576861917972564697265625" lon="-71.17204229347407817840576171875">
        <ele>553.5999755859375</ele>
        <time>2026-08-22T03:42:52.000Z</time>
        <extensions>
          <ns3:TrackPointExtension>
            <ns3:hr>134</ns3:hr>
            <ns3:cad>82</ns3:cad>
          </ns3:TrackPointExtension>
        </extensions>
      </trkpt>
      <trkpt lat="45.26743157766759395599365234375" lon="-71.17207934148609638214111328125">
        <ele>553.4000244140625</ele>
        <time>2026-08-22T03:42:53.000Z</time>
        <extensions>
          <ns3:TrackPointExtension>
            <ns3:hr>134</ns3:hr>
            <ns3:cad>83</ns3:cad>
          </ns3:TrackPointExtension>
        </extensions>
      </trkpt>
      <trkpt lat="45.26743107475340366363525390625" lon="-71.1721149645745754241943359375">
        <ele>553.4000244140625</ele>
        <time>2026-08-22T03:42:54.000Z</time>
        <extensions>
          <ns3:TrackPointExtension>
            <ns3:hr>134</ns3:hr>
            <ns3:cad>83</ns3:cad>
          </ns3:TrackPointExtension>
        </extensions>
      </trkpt>
      <trkpt lat="45.26743258349597454071044921875" lon="-71.1721498332917690277099609375">
        <ele>553.4000244140625</ele>
        <time>2026-08-22T03:42:55.000Z</time>
        <extensions>
          <ns3:TrackPointExtension>
            <ns3:hr>134</ns3:hr>
            <ns3:cad>83</ns3:cad>
          </ns3:TrackPointExtension>
        </extensions>
      </trkpt>
      <trkpt lat="45.26743459515273571014404296875" lon="-71.17218755185604095458984375">
        <ele>553.20001220703125</ele>
        <time>2026-08-22T03:42:56.000Z</time>
        <extensions>
          <ns3:TrackPointExtension>
            <ns3:hr>134</ns3:hr>
            <ns3:cad>83</ns3:cad>
          </ns3:TrackPointExtension>
        </extensions>
      </trkpt>
      <trkpt lat="45.26743300259113311767578125" lon="-71.17222183384001255035400390625">
        <ele>553</ele>
        <time>2026-08-22T03:42:57.000Z</time>
        <extensions>
          <ns3:TrackPointExtension>
            <ns3:hr>134</ns3:hr>
            <ns3:cad>83</ns3:cad>
          </ns3:TrackPointExtension>
        </extensions>
      </trkpt>
      <trkpt lat="45.26742939837276935577392578125" lon="-71.17224966175854206085205078125">
        <ele>552.79998779296875</ele>
        <time>2026-08-22T03:42:58.000Z</time>
        <extensions>
          <ns3:TrackPointExtension>
            <ns3:hr>134</ns3:hr>
            <ns3:cad>83</ns3:cad>
          </ns3:TrackPointExtension>
        </extensions>
      </trkpt>
      <trkpt lat="45.26742755435407161712646484375" lon="-71.17227715440094470977783203125">
        <ele>552.79998779296875</ele>
        <time>2026-08-22T03:42:59.000Z</time>
        <extensions>
          <ns3:TrackPointExtension>
            <ns3:hr>134</ns3:hr>
            <ns3:cad>83</ns3:cad>
          </ns3:TrackPointExtension>
        </extensions>
      </trkpt>
      <trkpt lat="45.26742856018245220184326171875" lon="-71.17231738753616809844970703125">
        <ele>552.5999755859375</ele>
        <time>2026-08-22T03:43:00.000Z</time>
        <extensions>
          <ns3:TrackPointExtension>
            <ns3:hr>134</ns3:hr>
            <ns3:cad>83</ns3:cad>
          </ns3:TrackPointExtension>
        </extensions>
      </trkpt>
      <trkpt lat="45.26743233203887939453125" lon="-71.172352172434329986572265625">
        <ele>552.5999755859375</ele>
        <time>2026-08-22T03:43:01.000Z</time>
        <extensions>
          <ns3:TrackPointExtension>
            <ns3:hr>134</ns3:hr>
            <ns3:cad>83</ns3:cad>
          </ns3:TrackPointExtension>
        </extensions>
      </trkpt>
      <trkpt lat="45.267434678971767425537109375" lon="-71.17238335311412811279296875">
        <ele>552.5999755859375</ele>
        <time>2026-08-22T03:43:02.000Z</time>
        <extensions>
          <ns3:TrackPointExtension>
            <ns3:hr>134</ns3:hr>
            <ns3:cad>83</ns3:cad>
          </ns3:TrackPointExtension>
        </extensions>
      </trkpt>
      <trkpt lat="45.26743392460048198699951171875" lon="-71.1724160425364971160888671875">
        <ele>552.4000244140625</ele>
        <time>2026-08-22T03:43:03.000Z</time>
        <extensions>
          <ns3:TrackPointExtension>
            <ns3:hr>134</ns3:hr>
            <ns3:cad>84</ns3:cad>
          </ns3:TrackPointExtension>
        </extensions>
      </trkpt>
      <trkpt lat="45.26743291877210140228271484375" lon="-71.17245401255786418914794921875">
        <ele>552.4000244140625</ele>
        <time>2026-08-22T03:43:04.000Z</time>
        <extensions>
          <ns3:TrackPointExtension>
            <ns3:hr>134</ns3:hr>
            <ns3:cad>84</ns3:cad>
          </ns3:TrackPointExtension>
        </extensions>
      </trkpt>
      <trkpt lat="45.26743358932435512542724609375" lon="-71.172488965094089508056640625">
        <ele>552.20001220703125</ele>
        <time>2026-08-22T03:43:05.000Z</time>
        <extensions>
          <ns3:TrackPointExtension>
            <ns3:hr>134</ns3:hr>
            <ns3:cad>83</ns3:cad>
          </ns3:TrackPointExtension>
        </extensions>
      </trkpt>
      <trkpt lat="45.26743845082819461822509765625" lon="-71.17252877913415431976318359375">
        <ele>552.20001220703125</ele>
        <time>2026-08-22T03:43:06.000Z</time>
        <extensions>
          <ns3:TrackPointExtension>
            <ns3:hr>134</ns3:hr>
            <ns3:cad>83</ns3:cad>
          </ns3:TrackPointExtension>
        </extensions>
      </trkpt>
      <trkpt lat="45.26744063012301921844482421875" lon="-71.17257085628807544708251953125">
        <ele>552</ele>
        <time>2026-08-22T03:43:07.000Z</time>
        <extensions>
          <ns3:TrackPointExtension>
            <ns3:hr>134</ns3:hr>
            <ns3:cad>83</ns3:cad>
          </ns3:TrackPointExtension>
        </extensions>
      </trkpt>
      <trkpt lat="45.26743979193270206451416015625" lon="-71.1726079881191253662109375">
        <ele>552</ele>
        <time>2026-08-22T03:43:08.000Z</time>
        <extensions>
          <ns3:TrackPointExtension>
            <ns3:hr>134</ns3:hr>
            <ns3:cad>83</ns3:cad>
          </ns3:TrackPointExtension>
        </extensions>
      </trkpt>
      <trkpt lat="45.26744096539914608001708984375" lon="-71.17264092899858951568603515625">
        <ele>551.79998779296875</ele>
        <time>2026-08-22T03:43:09.000Z</time>
        <extensions>
          <ns3:TrackPointExtension>
            <ns3:hr>135</ns3:hr>
            <ns3:cad>83</ns3:cad>
          </ns3:TrackPointExtension>
        </extensions>
      </trkpt>
      <trkpt lat="45.26743995957076549530029296875" lon="-71.172673702239990234375">
        <ele>551.5999755859375</ele>
        <time>2026-08-22T03:43:10.000Z</time>
        <extensions>
          <ns3:TrackPointExtension>
            <ns3:hr>135</ns3:hr>
            <ns3:cad>84</ns3:cad>
          </ns3:TrackPointExtension>
        </extensions>
      </trkpt>
      <trkpt lat="45.26743861846625804901123046875" lon="-71.17270764894783496856689453125">
        <ele>551.5999755859375</ele>
        <time>2026-08-22T03:43:11.000Z</time>
        <extensions>
          <ns3:TrackPointExtension>
            <ns3:hr>134</ns3:hr>
            <ns3:cad>84</ns3:cad>
          </ns3:TrackPointExtension>
        </extensions>
      </trkpt>
      <trkpt lat="45.2674405463039875030517578125" lon="-71.17274469695985317230224609375">
        <ele>551.4000244140625</ele>
        <time>2026-08-22T03:43:12.000Z</time>
        <extensions>
          <ns3:TrackPointExtension>
            <ns3:hr>134</ns3:hr>
            <ns3:cad>84</ns3:cad>
          </ns3:TrackPointExtension>
        </extensions>
      </trkpt>
      <trkpt lat="45.26744239032268524169921875" lon="-71.172784008085727691650390625">
        <ele>551.4000244140625</ele>
        <time>2026-08-22T03:43:13.000Z</time>
        <extensions>
          <ns3:TrackPointExtension>
            <ns3:hr>134</ns3:hr>
            <ns3:cad>84</ns3:cad>
          </ns3:TrackPointExtension>
        </extensions>
      </trkpt>
      <trkpt lat="45.2674428932368755340576171875" lon="-71.17282055318355560302734375">
        <ele>551.20001220703125</ele>
        <time>2026-08-22T03:43:14.000Z</time>
        <extensions>
          <ns3:TrackPointExtension>
            <ns3:hr>134</ns3:hr>
            <ns3:cad>84</ns3:cad>
          </ns3:TrackPointExtension>
        </extensions>
      </trkpt>
      <trkpt lat="45.26744565926492214202880859375" lon="-71.1728572659194469451904296875">
        <ele>551.20001220703125</ele>
        <time>2026-08-22T03:43:15.000Z</time>
        <extensions>
          <ns3:TrackPointExtension>
            <ns3:hr>134</ns3:hr>
            <ns3:cad>84</ns3:cad>
          </ns3:TrackPointExtension>
        </extensions>
      </trkpt>
      <trkpt lat="45.26744482107460498809814453125" lon="-71.17289272136986255645751953125">
        <ele>551.20001220703125</ele>
        <time>2026-08-22T03:43:16.000Z</time>
        <extensions>
          <ns3:TrackPointExtension>
            <ns3:hr>135</ns3:hr>
            <ns3:cad>84</ns3:cad>
          </ns3:TrackPointExtension>
        </extensions>
      </trkpt>
      <trkpt lat="45.2674472518265247344970703125" lon="-71.17292381823062896728515625">
        <ele>551</ele>
        <time>2026-08-22T03:43:17.000Z</time>
        <extensions>
          <ns3:TrackPointExtension>
            <ns3:hr>134</ns3:hr>
            <ns3:cad>84</ns3:cad>
          </ns3:TrackPointExtension>
        </extensions>
      </trkpt>
      <trkpt lat="45.26744884438812732696533203125" lon="-71.17295893840491771697998046875">
        <ele>551</ele>
        <time>2026-08-22T03:43:18.000Z</time>
        <extensions>
          <ns3:TrackPointExtension>
            <ns3:hr>134</ns3:hr>
            <ns3:cad>84</ns3:cad>
          </ns3:TrackPointExtension>
        </extensions>
      </trkpt>
      <trkpt lat="45.26745018549263477325439453125" lon="-71.17299481295049190521240234375">
        <ele>551</ele>
        <time>2026-08-22T03:43:19.000Z</time>
        <extensions>
          <ns3:TrackPointExtension>
            <ns3:hr>135</ns3:hr>
            <ns3:cad>84</ns3:cad>
          </ns3:TrackPointExtension>
        </extensions>
      </trkpt>
      <trkpt lat="45.2674512751400470733642578125" lon="-71.17302683182060718536376953125">
        <ele>550.79998779296875</ele>
        <time>2026-08-22T03:43:20.000Z</time>
        <extensions>
          <ns3:TrackPointExtension>
            <ns3:hr>134</ns3:hr>
            <ns3:cad>84</ns3:cad>
          </ns3:TrackPointExtension>
        </extensions>
      </trkpt>
      <trkpt lat="45.26745119132101535797119140625" lon="-71.173059940338134765625">
        <ele>550.79998779296875</ele>
        <time>2026-08-22T03:43:21.000Z</time>
        <extensions>
          <ns3:TrackPointExtension>
            <ns3:hr>134</ns3:hr>
            <ns3:cad>84</ns3:cad>
          </ns3:TrackPointExtension>
        </extensions>
      </trkpt>
      <trkpt lat="45.26745253242552280426025390625" lon="-71.173093132674694061279296875">
        <ele>550.5999755859375</ele>
        <time>2026-08-22T03:43:22.000Z</time>
        <extensions>
          <ns3:TrackPointExtension>
            <ns3:hr>134</ns3:hr>
            <ns3:cad>82</ns3:cad>
          </ns3:TrackPointExtension>
        </extensions>
      </trkpt>
      <trkpt lat="45.267452113330364227294921875" lon="-71.17312774993479251861572265625">
        <ele>550.5999755859375</ele>
        <time>2026-08-22T03:43:23.000Z</time>
        <extensions>
          <ns3:TrackPointExtension>
            <ns3:hr>134</ns3:hr>
            <ns3:cad>82</ns3:cad>
          </ns3:TrackPointExtension>
        </extensions>
      </trkpt>
      <trkpt lat="45.26745085604488849639892578125" lon="-71.1731620319187641143798828125">
        <ele>550.4000244140625</ele>
        <time>2026-08-22T03:43:24.000Z</time>
        <extensions>
          <ns3:TrackPointExtension>
            <ns3:hr>134</ns3:hr>
            <ns3:cad>82</ns3:cad>
          </ns3:TrackPointExtension>
        </extensions>
      </trkpt>
      <trkpt lat="45.26745177805423736572265625" lon="-71.17320385761559009552001953125">
        <ele>550.4000244140625</ele>
        <time>2026-08-22T03:43:25.000Z</time>
        <extensions>
          <ns3:TrackPointExtension>
            <ns3:hr>134</ns3:hr>
            <ns3:cad>81</ns3:cad>
          </ns3:TrackPointExtension>
        </extensions>
      </trkpt>
      <trkpt lat="45.26745169423520565032958984375" lon="-71.17324073798954486846923828125">
        <ele>550.4000244140625</ele>
        <time>2026-08-22T03:43:26.000Z</time>
        <extensions>
          <ns3:TrackPointExtension>
            <ns3:hr>134</ns3:hr>
            <ns3:cad>81</ns3:cad>
          </ns3:TrackPointExtension>
        </extensions>
      </trkpt>
      <trkpt lat="45.2674522809684276580810546875" lon="-71.17327594198286533355712890625">
        <ele>550.4000244140625</ele>
        <time>2026-08-22T03:43:27.000Z</time>
        <extensions>
          <ns3:TrackPointExtension>
            <ns3:hr>134</ns3:hr>
            <ns3:cad>82</ns3:cad>
          </ns3:TrackPointExtension>
        </extensions>
      </trkpt>
      <trkpt lat="45.26745169423520565032958984375" lon="-71.17331114597618579864501953125">
        <ele>550.4000244140625</ele>
        <time>2026-08-22T03:43:28.000Z</time>
        <extensions>
          <ns3:TrackPointExtension>
            <ns3:hr>134</ns3:hr>
            <ns3:cad>82</ns3:cad>
          </ns3:TrackPointExtension>
        </extensions>
      </trkpt>
      <trkpt lat="45.26745320297777652740478515625" lon="-71.17334970273077487945556640625">
        <ele>550.20001220703125</ele>
        <time>2026-08-22T03:43:29.000Z</time>
        <extensions>
          <ns3:TrackPointExtension>
            <ns3:hr>134</ns3:hr>
            <ns3:cad>83</ns3:cad>
          </ns3:TrackPointExtension>
        </extensions>
      </trkpt>
      <trkpt lat="45.26745471172034740447998046875" lon="-71.173384152352809906005859375">
        <ele>550.20001220703125</ele>
        <time>2026-08-22T03:43:30.000Z</time>
        <extensions>
          <ns3:TrackPointExtension>
            <ns3:hr>133</ns3:hr>
            <ns3:cad>83</ns3:cad>
          </ns3:TrackPointExtension>
        </extensions>
      </trkpt>
      <trkpt lat="45.2674539573490619659423828125" lon="-71.17341960780322551727294921875">
        <ele>550</ele>
        <time>2026-08-22T03:43:31.000Z</time>
        <extensions>
          <ns3:TrackPointExtension>
            <ns3:hr>133</ns3:hr>
            <ns3:cad>84</ns3:cad>
          </ns3:TrackPointExtension>
        </extensions>
      </trkpt>
      <trkpt lat="45.26745554991066455841064453125" lon="-71.1734528839588165283203125">
        <ele>550</ele>
        <time>2026-08-22T03:43:32.000Z</time>
        <extensions>
          <ns3:TrackPointExtension>
            <ns3:hr>133</ns3:hr>
            <ns3:cad>85</ns3:cad>
          </ns3:TrackPointExtension>
        </extensions>
      </trkpt>
      <trkpt lat="45.267454795539379119873046875" lon="-71.17348171770572662353515625">
        <ele>549.79998779296875</ele>
        <time>2026-08-22T03:43:33.000Z</time>
        <extensions>
          <ns3:TrackPointExtension>
            <ns3:hr>133</ns3:hr>
            <ns3:cad>85</ns3:cad>
          </ns3:TrackPointExtension>
        </extensions>
      </trkpt>
      <trkpt lat="45.26745789684355258941650390625" lon="-71.17351398803293704986572265625">
        <ele>549.79998779296875</ele>
        <time>2026-08-22T03:43:34.000Z</time>
        <extensions>
          <ns3:TrackPointExtension>
            <ns3:hr>132</ns3:hr>
            <ns3:cad>85</ns3:cad>
          </ns3:TrackPointExtension>
        </extensions>
      </trkpt>
      <trkpt lat="45.2674606628715991973876953125" lon="-71.1735462583601474761962890625">
        <ele>549.5999755859375</ele>
        <time>2026-08-22T03:43:35.000Z</time>
        <extensions>
          <ns3:TrackPointExtension>
            <ns3:hr>131</ns3:hr>
            <ns3:cad>85</ns3:cad>
          </ns3:TrackPointExtension>
        </extensions>
      </trkpt>
      <trkpt lat="45.26746124960482120513916015625" lon="-71.17357819341123104095458984375">
        <ele>549.4000244140625</ele>
        <time>2026-08-22T03:43:36.000Z</time>
        <extensions>
          <ns3:TrackPointExtension>
            <ns3:hr>131</ns3:hr>
            <ns3:cad>83</ns3:cad>
          </ns3:TrackPointExtension>
        </extensions>
      </trkpt>
      <trkpt lat="45.26745890267193317413330078125" lon="-71.17360778152942657470703125">
        <ele>549.4000244140625</ele>
        <time>2026-08-22T03:43:37.000Z</time>
        <extensions>
          <ns3:TrackPointExtension>
            <ns3:hr>131</ns3:hr>
            <ns3:cad>82</ns3:cad>
          </ns3:TrackPointExtension>
        </extensions>
      </trkpt>
      <trkpt lat="45.26745907030999660491943359375" lon="-71.17363904602825641632080078125">
        <ele>549.4000244140625</ele>
        <time>2026-08-22T03:43:38.000Z</time>
        <extensions>
          <ns3:TrackPointExtension>
            <ns3:hr>131</ns3:hr>
            <ns3:cad>82</ns3:cad>
          </ns3:TrackPointExtension>
        </extensions>
      </trkpt>
      <trkpt lat="45.2674589864909648895263671875" lon="-71.17367357946932315826416015625">
        <ele>549.4000244140625</ele>
        <time>2026-08-22T03:43:39.000Z</time>
        <extensions>
          <ns3:TrackPointExtension>
            <ns3:hr>132</ns3:hr>
            <ns3:cad>82</ns3:cad>
          </ns3:TrackPointExtension>
        </extensions>
      </trkpt>
      <trkpt lat="45.26745923794806003570556640625" lon="-71.1737041734158992767333984375">
        <ele>549.4000244140625</ele>
        <time>2026-08-22T03:43:40.000Z</time>
        <extensions>
          <ns3:TrackPointExtension>
            <ns3:hr>132</ns3:hr>
            <ns3:cad>82</ns3:cad>
          </ns3:TrackPointExtension>
        </extensions>
      </trkpt>
      <trkpt lat="45.26745789684355258941650390625" lon="-71.17373610846698284149169921875">
        <ele>549.4000244140625</ele>
        <time>2026-08-22T03:43:41.000Z</time>
        <extensions>
          <ns3:TrackPointExtension>
            <ns3:hr>132</ns3:hr>
            <ns3:cad>81</ns3:cad>
          </ns3:TrackPointExtension>
        </extensions>
      </trkpt>
      <trkpt lat="45.2674589864909648895263671875" lon="-71.17377198301255702972412109375">
        <ele>549.20001220703125</ele>
        <time>2026-08-22T03:43:42.000Z</time>
        <extensions>
          <ns3:TrackPointExtension>
            <ns3:hr>132</ns3:hr>
            <ns3:cad>81</ns3:cad>
          </ns3:TrackPointExtension>
        </extensions>
      </trkpt>
      <trkpt lat="45.2674583159387111663818359375" lon="-71.1738017387688159942626953125">
        <ele>549.20001220703125</ele>
        <time>2026-08-22T03:43:43.000Z</time>
        <extensions>
          <ns3:TrackPointExtension>
            <ns3:hr>132</ns3:hr>
            <ns3:cad>81</ns3:cad>
          </ns3:TrackPointExtension>
        </extensions>
      </trkpt>
      <trkpt lat="45.26745655573904514312744140625" lon="-71.17383752949535846710205078125">
        <ele>549.20001220703125</ele>
        <time>2026-08-22T03:43:44.000Z</time>
        <extensions>
          <ns3:TrackPointExtension>
            <ns3:hr>132</ns3:hr>
            <ns3:cad>82</ns3:cad>
          </ns3:TrackPointExtension>
        </extensions>
      </trkpt>
      <trkpt lat="45.2674536220729351043701171875" lon="-71.1738681234419345855712890625">
        <ele>549</ele>
        <time>2026-08-22T03:43:45.000Z</time>
        <extensions>
          <ns3:TrackPointExtension>
            <ns3:hr>132</ns3:hr>
            <ns3:cad>82</ns3:cad>
          </ns3:TrackPointExtension>
        </extensions>
      </trkpt>
      <trkpt lat="45.26745043694972991943359375" lon="-71.17390290834009647369384765625">
        <ele>549</ele>
        <time>2026-08-22T03:43:46.000Z</time>
        <extensions>
          <ns3:TrackPointExtension>
            <ns3:hr>131</ns3:hr>
            <ns3:cad>81</ns3:cad>
          </ns3:TrackPointExtension>
        </extensions>
      </trkpt>
      <trkpt lat="45.26744842529296875" lon="-71.173938699066638946533203125">
        <ele>548.79998779296875</ele>
        <time>2026-08-22T03:43:47.000Z</time>
        <extensions>
          <ns3:TrackPointExtension>
            <ns3:hr>132</ns3:hr>
            <ns3:cad>81</ns3:cad>
          </ns3:TrackPointExtension>
        </extensions>
      </trkpt>
      <trkpt lat="45.26744783855974674224853515625" lon="-71.17397096939384937286376953125">
        <ele>548.79998779296875</ele>
        <time>2026-08-22T03:43:48.000Z</time>
        <extensions>
          <ns3:TrackPointExtension>
            <ns3:hr>132</ns3:hr>
            <ns3:cad>81</ns3:cad>
          </ns3:TrackPointExtension>
        </extensions>
      </trkpt>
      <trkpt lat="45.26744632981717586517333984375" lon="-71.17400533519685268402099609375">
        <ele>548.79998779296875</ele>
        <time>2026-08-22T03:43:49.000Z</time>
        <extensions>
          <ns3:TrackPointExtension>
            <ns3:hr>132</ns3:hr>
            <ns3:cad>82</ns3:cad>
          </ns3:TrackPointExtension>
        </extensions>
      </trkpt>
      <trkpt lat="45.267443396151065826416015625" lon="-71.1740367673337459564208984375">
        <ele>548.5999755859375</ele>
        <time>2026-08-22T03:43:50.000Z</time>
        <extensions>
          <ns3:TrackPointExtension>
            <ns3:hr>132</ns3:hr>
            <ns3:cad>82</ns3:cad>
          </ns3:TrackPointExtension>
        </extensions>
      </trkpt>
      <trkpt lat="45.2674455754458904266357421875" lon="-71.1740671098232269287109375">
        <ele>548.5999755859375</ele>
        <time>2026-08-22T03:43:51.000Z</time>
        <extensions>
          <ns3:TrackPointExtension>
            <ns3:hr>133</ns3:hr>
            <ns3:cad>82</ns3:cad>
          </ns3:TrackPointExtension>
        </extensions>
      </trkpt>
      <trkpt lat="45.2674444019794464111328125" lon="-71.17409862577915191650390625">
        <ele>548.5999755859375</ele>
        <time>2026-08-22T03:43:52.000Z</time>
        <extensions>
          <ns3:TrackPointExtension>
            <ns3:hr>133</ns3:hr>
            <ns3:cad>82</ns3:cad>
          </ns3:TrackPointExtension>
        </extensions>
      </trkpt>
      <trkpt lat="45.26744163595139980316162109375" lon="-71.1741296388208866119384765625">
        <ele>548.4000244140625</ele>
        <time>2026-08-22T03:43:53.000Z</time>
        <extensions>
          <ns3:TrackPointExtension>
            <ns3:hr>133</ns3:hr>
            <ns3:cad>82</ns3:cad>
          </ns3:TrackPointExtension>
        </extensions>
      </trkpt>
      <trkpt lat="45.26743979193270206451416015625" lon="-71.174166686832904815673828125">
        <ele>548.4000244140625</ele>
        <time>2026-08-22T03:43:54.000Z</time>
        <extensions>
          <ns3:TrackPointExtension>
            <ns3:hr>132</ns3:hr>
            <ns3:cad>82</ns3:cad>
          </ns3:TrackPointExtension>
        </extensions>
      </trkpt>
      <trkpt lat="45.2674376964569091796875" lon="-71.174203567206859588623046875">
        <ele>548.20001220703125</ele>
        <time>2026-08-22T03:43:55.000Z</time>
        <extensions>
          <ns3:TrackPointExtension>
            <ns3:hr>133</ns3:hr>
            <ns3:cad>81</ns3:cad>
          </ns3:TrackPointExtension>
        </extensions>
      </trkpt>
      <trkpt lat="45.2674371935427188873291015625" lon="-71.174234412610530853271484375">
        <ele>548.20001220703125</ele>
        <time>2026-08-22T03:43:56.000Z</time>
        <extensions>
          <ns3:TrackPointExtension>
            <ns3:hr>133</ns3:hr>
            <ns3:cad>81</ns3:cad>
          </ns3:TrackPointExtension>
        </extensions>
      </trkpt>
      <trkpt lat="45.2674388699233531951904296875" lon="-71.1742707900702953338623046875">
        <ele>548.20001220703125</ele>
        <time>2026-08-22T03:43:57.000Z</time>
        <extensions>
          <ns3:TrackPointExtension>
            <ns3:hr>134</ns3:hr>
            <ns3:cad>81</ns3:cad>
          </ns3:TrackPointExtension>
        </extensions>
      </trkpt>
      <trkpt lat="45.26743811555206775665283203125" lon="-71.17430775426328182220458984375">
        <ele>548</ele>
        <time>2026-08-22T03:43:58.000Z</time>
        <extensions>
          <ns3:TrackPointExtension>
            <ns3:hr>134</ns3:hr>
            <ns3:cad>82</ns3:cad>
          </ns3:TrackPointExtension>
        </extensions>
      </trkpt>
      <trkpt lat="45.26743912138044834136962890625" lon="-71.17434027604758739471435546875">
        <ele>548</ele>
        <time>2026-08-22T03:43:59.000Z</time>
        <extensions>
          <ns3:TrackPointExtension>
            <ns3:hr>134</ns3:hr>
            <ns3:cad>82</ns3:cad>
          </ns3:TrackPointExtension>
        </extensions>
      </trkpt>
      <trkpt lat="45.267442055046558380126953125" lon="-71.1743795871734619140625">
        <ele>547.79998779296875</ele>
        <time>2026-08-22T03:44:00.000Z</time>
        <extensions>
          <ns3:TrackPointExtension>
            <ns3:hr>134</ns3:hr>
            <ns3:cad>83</ns3:cad>
          </ns3:TrackPointExtension>
        </extensions>
      </trkpt>
      <trkpt lat="45.26744381524622440338134765625" lon="-71.1744156293570995330810546875">
        <ele>547.79998779296875</ele>
        <time>2026-08-22T03:44:01.000Z</time>
        <extensions>
          <ns3:TrackPointExtension>
            <ns3:hr>134</ns3:hr>
            <ns3:cad>83</ns3:cad>
          </ns3:TrackPointExtension>
        </extensions>
      </trkpt>
      <trkpt lat="45.26744113303720951080322265625" lon="-71.1744488216936588287353515625">
        <ele>547.5999755859375</ele>
        <time>2026-08-22T03:44:02.000Z</time>
        <extensions>
          <ns3:TrackPointExtension>
            <ns3:hr>135</ns3:hr>
            <ns3:cad>83</ns3:cad>
          </ns3:TrackPointExtension>
        </extensions>
      </trkpt>
      <trkpt lat="45.26744079776108264923095703125" lon="-71.1744880490005016326904296875">
        <ele>547.5999755859375</ele>
        <time>2026-08-22T03:44:03.000Z</time>
        <extensions>
          <ns3:TrackPointExtension>
            <ns3:hr>135</ns3:hr>
            <ns3:cad>83</ns3:cad>
          </ns3:TrackPointExtension>
        </extensions>
      </trkpt>
      <trkpt lat="45.267445743083953857421875" lon="-71.17452300153672695159912109375">
        <ele>547.5999755859375</ele>
        <time>2026-08-22T03:44:04.000Z</time>
        <extensions>
          <ns3:TrackPointExtension>
            <ns3:hr>135</ns3:hr>
            <ns3:cad>83</ns3:cad>
          </ns3:TrackPointExtension>
        </extensions>
      </trkpt>
      <trkpt lat="45.2674418874084949493408203125" lon="-71.17455703206360340118408203125">
        <ele>547.4000244140625</ele>
        <time>2026-08-22T03:44:05.000Z</time>
        <extensions>
          <ns3:TrackPointExtension>
            <ns3:hr>135</ns3:hr>
            <ns3:cad>83</ns3:cad>
          </ns3:TrackPointExtension>
        </extensions>
      </trkpt>
      <trkpt lat="45.2674432285130023956298828125" lon="-71.17459206841886043548583984375">
        <ele>547.4000244140625</ele>
        <time>2026-08-22T03:44:06.000Z</time>
        <extensions>
          <ns3:TrackPointExtension>
            <ns3:hr>135</ns3:hr>
            <ns3:cad>83</ns3:cad>
          </ns3:TrackPointExtension>
        </extensions>
      </trkpt>
      <trkpt lat="45.2674459107220172882080078125" lon="-71.17462827824056148529052734375">
        <ele>547.4000244140625</ele>
        <time>2026-08-22T03:44:07.000Z</time>
        <extensions>
          <ns3:TrackPointExtension>
            <ns3:hr>136</ns3:hr>
            <ns3:cad>83</ns3:cad>
          </ns3:TrackPointExtension>
        </extensions>
      </trkpt>
      <trkpt lat="45.26744632981717586517333984375" lon="-71.1746627278625965118408203125">
        <ele>547.20001220703125</ele>
        <time>2026-08-22T03:44:08.000Z</time>
        <extensions>
          <ns3:TrackPointExtension>
            <ns3:hr>136</ns3:hr>
            <ns3:cad>83</ns3:cad>
          </ns3:TrackPointExtension>
        </extensions>
      </trkpt>
      <trkpt lat="45.26744683273136615753173828125" lon="-71.17469566874206066131591796875">
        <ele>547.20001220703125</ele>
        <time>2026-08-22T03:44:09.000Z</time>
        <extensions>
          <ns3:TrackPointExtension>
            <ns3:hr>136</ns3:hr>
            <ns3:cad>83</ns3:cad>
          </ns3:TrackPointExtension>
        </extensions>
      </trkpt>
      <trkpt lat="45.26744415052235126495361328125" lon="-71.17472751997411251068115234375">
        <ele>547</ele>
        <time>2026-08-22T03:44:10.000Z</time>
        <extensions>
          <ns3:TrackPointExtension>
            <ns3:hr>136</ns3:hr>
            <ns3:cad>83</ns3:cad>
          </ns3:TrackPointExtension>
        </extensions>
      </trkpt>
      <trkpt lat="45.2674444019794464111328125" lon="-71.1747612990438938140869140625">
        <ele>547</ele>
        <time>2026-08-22T03:44:11.000Z</time>
        <extensions>
          <ns3:TrackPointExtension>
            <ns3:hr>135</ns3:hr>
            <ns3:cad>83</ns3:cad>
          </ns3:TrackPointExtension>
        </extensions>
      </trkpt>
      <trkpt lat="45.2674417197704315185546875" lon="-71.1747939884662628173828125">
        <ele>547</ele>
        <time>2026-08-22T03:44:12.000Z</time>
        <extensions>
          <ns3:TrackPointExtension>
            <ns3:hr>136</ns3:hr>
            <ns3:cad>83</ns3:cad>
          </ns3:TrackPointExtension>
        </extensions>
      </trkpt>
      <trkpt lat="45.2674417197704315185546875" lon="-71.1748290248215198516845703125">
        <ele>547</ele>
        <time>2026-08-22T03:44:13.000Z</time>
        <extensions>
          <ns3:TrackPointExtension>
            <ns3:hr>136</ns3:hr>
            <ns3:cad>83</ns3:cad>
          </ns3:TrackPointExtension>
        </extensions>
      </trkpt>
      <trkpt lat="45.26744130067527294158935546875" lon="-71.17486179806292057037353515625">
        <ele>546.79998779296875</ele>
        <time>2026-08-22T03:44:14.000Z</time>
        <extensions>
          <ns3:TrackPointExtension>
            <ns3:hr>136</ns3:hr>
            <ns3:cad>83</ns3:cad>
          </ns3:TrackPointExtension>
        </extensions>
      </trkpt>
      <trkpt lat="45.2674402110278606414794921875" lon="-71.17489147000014781951904296875">
        <ele>546.79998779296875</ele>
        <time>2026-08-22T03:44:15.000Z</time>
        <extensions>
          <ns3:TrackPointExtension>
            <ns3:hr>136</ns3:hr>
            <ns3:cad>83</ns3:cad>
          </ns3:TrackPointExtension>
        </extensions>
      </trkpt>
      <trkpt lat="45.267439372837543487548828125" lon="-71.17492583580315113067626953125">
        <ele>546.79998779296875</ele>
        <time>2026-08-22T03:44:16.000Z</time>
        <extensions>
          <ns3:TrackPointExtension>
            <ns3:hr>136</ns3:hr>
            <ns3:cad>83</ns3:cad>
          </ns3:TrackPointExtension>
        </extensions>
      </trkpt>
      <trkpt lat="45.26743878610432147979736328125" lon="-71.1749607883393764495849609375">
        <ele>546.79998779296875</ele>
        <time>2026-08-22T03:44:17.000Z</time>
        <extensions>
          <ns3:TrackPointExtension>
            <ns3:hr>137</ns3:hr>
            <ns3:cad>83</ns3:cad>
          </ns3:TrackPointExtension>
        </extensions>
      </trkpt>
      <trkpt lat="45.26743643917143344879150390625" lon="-71.1749993450939655303955078125">
        <ele>546.79998779296875</ele>
        <time>2026-08-22T03:44:18.000Z</time>
        <extensions>
          <ns3:TrackPointExtension>
            <ns3:hr>137</ns3:hr>
            <ns3:cad>83</ns3:cad>
          </ns3:TrackPointExtension>
        </extensions>
      </trkpt>
      <trkpt lat="45.26744213886559009552001953125" lon="-71.17503446526825428009033203125">
        <ele>546.79998779296875</ele>
        <time>2026-08-22T03:44:19.000Z</time>
        <extensions>
          <ns3:TrackPointExtension>
            <ns3:hr>137</ns3:hr>
            <ns3:cad>84</ns3:cad>
          </ns3:TrackPointExtension>
        </extensions>
      </trkpt>
      <trkpt lat="45.2674388699233531951904296875" lon="-71.17507000453770160675048828125">
        <ele>546.79998779296875</ele>
        <time>2026-08-22T03:44:20.000Z</time>
        <extensions>
          <ns3:TrackPointExtension>
            <ns3:hr>137</ns3:hr>
            <ns3:cad>84</ns3:cad>
          </ns3:TrackPointExtension>
        </extensions>
      </trkpt>
      <trkpt lat="45.26744104921817779541015625" lon="-71.17510822601616382598876953125">
        <ele>546.5999755859375</ele>
        <time>2026-08-22T03:44:21.000Z</time>
        <extensions>
          <ns3:TrackPointExtension>
            <ns3:hr>136</ns3:hr>
            <ns3:cad>84</ns3:cad>
          </ns3:TrackPointExtension>
        </extensions>
      </trkpt>
      <trkpt lat="45.26744230650365352630615234375" lon="-71.17514594458043575286865234375">
        <ele>546.4000244140625</ele>
        <time>2026-08-22T03:44:22.000Z</time>
        <extensions>
          <ns3:TrackPointExtension>
            <ns3:hr>137</ns3:hr>
            <ns3:cad>84</ns3:cad>
          </ns3:TrackPointExtension>
        </extensions>
      </trkpt>
      <trkpt lat="45.267445407807826995849609375" lon="-71.17518316023051738739013671875">
        <ele>546.4000244140625</ele>
        <time>2026-08-22T03:44:23.000Z</time>
        <extensions>
          <ns3:TrackPointExtension>
            <ns3:hr>137</ns3:hr>
            <ns3:cad>84</ns3:cad>
          </ns3:TrackPointExtension>
        </extensions>
      </trkpt>
      <trkpt lat="45.2674470841884613037109375" lon="-71.1752166040241718292236328125">
        <ele>546.20001220703125</ele>
        <time>2026-08-22T03:44:24.000Z</time>
        <extensions>
          <ns3:TrackPointExtension>
            <ns3:hr>137</ns3:hr>
            <ns3:cad>83</ns3:cad>
          </ns3:TrackPointExtension>
        </extensions>
      </trkpt>
      <trkpt lat="45.26744465343654155731201171875" lon="-71.17524652741849422454833984375">
        <ele>546</ele>
        <time>2026-08-22T03:44:25.000Z</time>
        <extensions>
          <ns3:TrackPointExtension>
            <ns3:hr>136</ns3:hr>
            <ns3:cad>83</ns3:cad>
          </ns3:TrackPointExtension>
        </extensions>
      </trkpt>
      <trkpt lat="45.267453454434871673583984375" lon="-71.17528039030730724334716796875">
        <ele>546</ele>
        <time>2026-08-22T03:44:26.000Z</time>
        <extensions>
          <ns3:TrackPointExtension>
            <ns3:hr>136</ns3:hr>
            <ns3:cad>84</ns3:cad>
          </ns3:TrackPointExtension>
        </extensions>
      </trkpt>
      <trkpt lat="45.26745907030999660491943359375" lon="-71.17531408555805683135986328125">
        <ele>546</ele>
        <time>2026-08-22T03:44:27.000Z</time>
        <extensions>
          <ns3:TrackPointExtension>
            <ns3:hr>136</ns3:hr>
            <ns3:cad>84</ns3:cad>
          </ns3:TrackPointExtension>
        </extensions>
      </trkpt>
      <trkpt lat="45.2674599923193454742431640625" lon="-71.17534761317074298858642578125">
        <ele>546</ele>
        <time>2026-08-22T03:44:28.000Z</time>
        <extensions>
          <ns3:TrackPointExtension>
            <ns3:hr>137</ns3:hr>
            <ns3:cad>84</ns3:cad>
          </ns3:TrackPointExtension>
        </extensions>
      </trkpt>
      <trkpt lat="45.26746451854705810546875" lon="-71.17538700811564922332763671875">
        <ele>546</ele>
        <time>2026-08-22T03:44:29.000Z</time>
        <extensions>
          <ns3:TrackPointExtension>
            <ns3:hr>137</ns3:hr>
            <ns3:cad>84</ns3:cad>
          </ns3:TrackPointExtension>
        </extensions>
      </trkpt>
      <trkpt lat="45.267468206584453582763671875" lon="-71.175420284271240234375">
        <ele>546</ele>
        <time>2026-08-22T03:44:30.000Z</time>
        <extensions>
          <ns3:TrackPointExtension>
            <ns3:hr>136</ns3:hr>
            <ns3:cad>84</ns3:cad>
          </ns3:TrackPointExtension>
        </extensions>
      </trkpt>
      <trkpt lat="45.26746963150799274444580078125" lon="-71.175450123846530914306640625">
        <ele>545.79998779296875</ele>
        <time>2026-08-22T03:44:31.000Z</time>
        <extensions>
          <ns3:TrackPointExtension>
            <ns3:hr>136</ns3:hr>
            <ns3:cad>84</ns3:cad>
          </ns3:TrackPointExtension>
        </extensions>
      </trkpt>
      <trkpt lat="45.26747231371700763702392578125" lon="-71.17548289708793163299560546875">
        <ele>545.79998779296875</ele>
        <time>2026-08-22T03:44:32.000Z</time>
        <extensions>
          <ns3:TrackPointExtension>
            <ns3:hr>136</ns3:hr>
            <ns3:cad>84</ns3:cad>
          </ns3:TrackPointExtension>
        </extensions>
      </trkpt>
      <trkpt lat="45.267472900450229644775390625" lon="-71.17551290430128574371337890625">
        <ele>545.5999755859375</ele>
        <time>2026-08-22T03:44:33.000Z</time>
        <extensions>
          <ns3:TrackPointExtension>
            <ns3:hr>136</ns3:hr>
            <ns3:cad>84</ns3:cad>
          </ns3:TrackPointExtension>
        </extensions>
      </trkpt>
      <trkpt lat="45.267471559345722198486328125" lon="-71.1755458451807498931884765625">
        <ele>545.4000244140625</ele>
        <time>2026-08-22T03:44:34.000Z</time>
        <extensions>
          <ns3:TrackPointExtension>
            <ns3:hr>136</ns3:hr>
            <ns3:cad>83</ns3:cad>
          </ns3:TrackPointExtension>
        </extensions>
      </trkpt>
      <trkpt lat="45.2674710564315319061279296875" lon="-71.17557727731764316558837890625">
        <ele>545.4000244140625</ele>
        <time>2026-08-22T03:44:35.000Z</time>
        <extensions>
          <ns3:TrackPointExtension>
            <ns3:hr>136</ns3:hr>
            <ns3:cad>83</ns3:cad>
          </ns3:TrackPointExtension>
        </extensions>
      </trkpt>
      <trkpt lat="45.267470218241214752197265625" lon="-71.1756065301597118377685546875">
        <ele>545.4000244140625</ele>
        <time>2026-08-22T03:44:36.000Z</time>
        <extensions>
          <ns3:TrackPointExtension>
            <ns3:hr>135</ns3:hr>
            <ns3:cad>82</ns3:cad>
          </ns3:TrackPointExtension>
        </extensions>
      </trkpt>
      <trkpt lat="45.26746946386992931365966796875" lon="-71.1756373755633831024169921875">
        <ele>545.20001220703125</ele>
        <time>2026-08-22T03:44:37.000Z</time>
        <extensions>
          <ns3:TrackPointExtension>
            <ns3:hr>135</ns3:hr>
            <ns3:cad>82</ns3:cad>
          </ns3:TrackPointExtension>
        </extensions>
      </trkpt>
      <trkpt lat="45.2674690447747707366943359375" lon="-71.175668053328990936279296875">
        <ele>545.20001220703125</ele>
        <time>2026-08-22T03:44:38.000Z</time>
        <extensions>
          <ns3:TrackPointExtension>
            <ns3:hr>135</ns3:hr>
            <ns3:cad>82</ns3:cad>
          </ns3:TrackPointExtension>
        </extensions>
      </trkpt>
      <trkpt lat="45.26746912859380245208740234375" lon="-71.17569965310394763946533203125">
        <ele>545</ele>
        <time>2026-08-22T03:44:39.000Z</time>
        <extensions>
          <ns3:TrackPointExtension>
            <ns3:hr>134</ns3:hr>
            <ns3:cad>82</ns3:cad>
          </ns3:TrackPointExtension>
        </extensions>
      </trkpt>
      <trkpt lat="45.2674677036702632904052734375" lon="-71.17572764866054058074951171875">
        <ele>544.79998779296875</ele>
        <time>2026-08-22T03:44:40.000Z</time>
        <extensions>
          <ns3:TrackPointExtension>
            <ns3:hr>134</ns3:hr>
            <ns3:cad>82</ns3:cad>
          </ns3:TrackPointExtension>
        </extensions>
      </trkpt>
      <trkpt lat="45.267464853823184967041015625" lon="-71.17575497366487979888916015625">
        <ele>544.79998779296875</ele>
        <time>2026-08-22T03:44:41.000Z</time>
        <extensions>
          <ns3:TrackPointExtension>
            <ns3:hr>133</ns3:hr>
            <ns3:cad>82</ns3:cad>
          </ns3:TrackPointExtension>
        </extensions>
      </trkpt>
      <trkpt lat="45.26746309362351894378662109375" lon="-71.17578783072531223297119140625">
        <ele>544.79998779296875</ele>
        <time>2026-08-22T03:44:42.000Z</time>
        <extensions>
          <ns3:TrackPointExtension>
            <ns3:hr>133</ns3:hr>
            <ns3:cad>82</ns3:cad>
          </ns3:TrackPointExtension>
        </extensions>
      </trkpt>
      <trkpt lat="45.26746359653770923614501953125" lon="-71.17581800557672977447509765625">
        <ele>544.79998779296875</ele>
        <time>2026-08-22T03:44:43.000Z</time>
        <extensions>
          <ns3:TrackPointExtension>
            <ns3:hr>133</ns3:hr>
            <ns3:cad>81</ns3:cad>
          </ns3:TrackPointExtension>
        </extensions>
      </trkpt>
      <trkpt lat="45.26746259070932865142822265625" lon="-71.17584382183849811553955078125">
        <ele>544.79998779296875</ele>
        <time>2026-08-22T03:44:44.000Z</time>
        <extensions>
          <ns3:TrackPointExtension>
            <ns3:hr>133</ns3:hr>
            <ns3:cad>81</ns3:cad>
          </ns3:TrackPointExtension>
        </extensions>
      </trkpt>
      <trkpt lat="45.26745990850031375885009765625" lon="-71.17587097920477390289306640625">
        <ele>544.79998779296875</ele>
        <time>2026-08-22T03:44:45.000Z</time>
        <extensions>
          <ns3:TrackPointExtension>
            <ns3:hr>133</ns3:hr>
            <ns3:cad>80</ns3:cad>
          </ns3:TrackPointExtension>
        </extensions>
      </trkpt>
      <trkpt lat="45.2674606628715991973876953125" lon="-71.17590048350393772125244140625">
        <ele>544.79998779296875</ele>
        <time>2026-08-22T03:44:46.000Z</time>
        <extensions>
          <ns3:TrackPointExtension>
            <ns3:hr>132</ns3:hr>
            <ns3:cad>80</ns3:cad>
          </ns3:TrackPointExtension>
        </extensions>
      </trkpt>
      <trkpt lat="45.26746477000415325164794921875" lon="-71.175932921469211578369140625">
        <ele>544.79998779296875</ele>
        <time>2026-08-22T03:44:47.000Z</time>
        <extensions>
          <ns3:TrackPointExtension>
            <ns3:hr>132</ns3:hr>
            <ns3:cad>80</ns3:cad>
          </ns3:TrackPointExtension>
        </extensions>
      </trkpt>
      <trkpt lat="45.26746711693704128265380859375" lon="-71.1759642697870731353759765625">
        <ele>544.79998779296875</ele>
        <time>2026-08-22T03:44:48.000Z</time>
        <extensions>
          <ns3:TrackPointExtension>
            <ns3:hr>132</ns3:hr>
            <ns3:cad>81</ns3:cad>
          </ns3:TrackPointExtension>
        </extensions>
      </trkpt>
      <trkpt lat="45.26746393181383609771728515625" lon="-71.175997965037822723388671875">
        <ele>544.4000244140625</ele>
        <time>2026-08-22T03:44:49.000Z</time>
        <extensions>
          <ns3:TrackPointExtension>
            <ns3:hr>132</ns3:hr>
            <ns3:cad>81</ns3:cad>
          </ns3:TrackPointExtension>
        </extensions>
      </trkpt>
      <trkpt lat="45.267461501061916351318359375" lon="-71.1760383658111095428466796875">
        <ele>544.4000244140625</ele>
        <time>2026-08-22T03:44:50.000Z</time>
        <extensions>
          <ns3:TrackPointExtension>
            <ns3:hr>132</ns3:hr>
            <ns3:cad>82</ns3:cad>
          </ns3:TrackPointExtension>
        </extensions>
      </trkpt>
      <trkpt lat="45.267456807196140289306640625" lon="-71.1760745756328105926513671875">
        <ele>544.20001220703125</ele>
        <time>2026-08-22T03:44:51.000Z</time>
        <extensions>
          <ns3:TrackPointExtension>
            <ns3:hr>132</ns3:hr>
            <ns3:cad>83</ns3:cad>
          </ns3:TrackPointExtension>
        </extensions>
      </trkpt>
      <trkpt lat="45.26745303533971309661865234375" lon="-71.17611304856836795806884765625">
        <ele>544</ele>
        <time>2026-08-22T03:44:52.000Z</time>
        <extensions>
          <ns3:TrackPointExtension>
            <ns3:hr>132</ns3:hr>
            <ns3:cad>83</ns3:cad>
          </ns3:TrackPointExtension>
        </extensions>
      </trkpt>
      <trkpt lat="45.267452783882617950439453125" lon="-71.17614992894232273101806640625">
        <ele>544</ele>
        <time>2026-08-22T03:44:53.000Z</time>
        <extensions>
          <ns3:TrackPointExtension>
            <ns3:hr>133</ns3:hr>
            <ns3:cad>83</ns3:cad>
          </ns3:TrackPointExtension>
        </extensions>
      </trkpt>
      <trkpt lat="45.26744909584522247314453125" lon="-71.17618714459240436553955078125">
        <ele>543.79998779296875</ele>
        <time>2026-08-22T03:44:54.000Z</time>
        <extensions>
          <ns3:TrackPointExtension>
            <ns3:hr>133</ns3:hr>
            <ns3:cad>83</ns3:cad>
          </ns3:TrackPointExtension>
        </extensions>
      </trkpt>
      <trkpt lat="45.2674459107220172882080078125" lon="-71.17622293531894683837890625">
        <ele>543.5999755859375</ele>
        <time>2026-08-22T03:44:55.000Z</time>
        <extensions>
          <ns3:TrackPointExtension>
            <ns3:hr>134</ns3:hr>
            <ns3:cad>83</ns3:cad>
          </ns3:TrackPointExtension>
        </extensions>
      </trkpt>
      <trkpt lat="45.2674462459981441497802734375" lon="-71.17625855840742588043212890625">
        <ele>543.4000244140625</ele>
        <time>2026-08-22T03:44:56.000Z</time>
        <extensions>
          <ns3:TrackPointExtension>
            <ns3:hr>134</ns3:hr>
            <ns3:cad>83</ns3:cad>
          </ns3:TrackPointExtension>
        </extensions>
      </trkpt>
      <trkpt lat="45.26744431816041469573974609375" lon="-71.17629761807620525360107421875">
        <ele>543.20001220703125</ele>
        <time>2026-08-22T03:44:57.000Z</time>
        <extensions>
          <ns3:TrackPointExtension>
            <ns3:hr>134</ns3:hr>
            <ns3:cad>83</ns3:cad>
          </ns3:TrackPointExtension>
        </extensions>
      </trkpt>
      <trkpt lat="45.26744280941784381866455078125" lon="-71.17633290588855743408203125">
        <ele>543.20001220703125</ele>
        <time>2026-08-22T03:44:58.000Z</time>
        <extensions>
          <ns3:TrackPointExtension>
            <ns3:hr>134</ns3:hr>
            <ns3:cad>83</ns3:cad>
          </ns3:TrackPointExtension>
        </extensions>
      </trkpt>
      <trkpt lat="45.267444066703319549560546875" lon="-71.1763686127960681915283203125">
        <ele>543</ele>
        <time>2026-08-22T03:44:59.000Z</time>
        <extensions>
          <ns3:TrackPointExtension>
            <ns3:hr>134</ns3:hr>
            <ns3:cad>83</ns3:cad>
          </ns3:TrackPointExtension>
        </extensions>
      </trkpt>
      <trkpt lat="45.2674438990652561187744140625" lon="-71.17640708573162555694580078125">
        <ele>542.79998779296875</ele>
        <time>2026-08-22T03:45:00.000Z</time>
        <extensions>
          <ns3:TrackPointExtension>
            <ns3:hr>134</ns3:hr>
            <ns3:cad>83</ns3:cad>
          </ns3:TrackPointExtension>
        </extensions>
      </trkpt>
      <trkpt lat="45.26744239032268524169921875" lon="-71.176444552838802337646484375">
        <ele>542.5999755859375</ele>
        <time>2026-08-22T03:45:01.000Z</time>
        <extensions>
          <ns3:TrackPointExtension>
            <ns3:hr>134</ns3:hr>
            <ns3:cad>83</ns3:cad>
          </ns3:TrackPointExtension>
        </extensions>
      </trkpt>
      <trkpt lat="45.26744239032268524169921875" lon="-71.17648218758404254913330078125">
        <ele>542.4000244140625</ele>
        <time>2026-08-22T03:45:02.000Z</time>
        <extensions>
          <ns3:TrackPointExtension>
            <ns3:hr>134</ns3:hr>
            <ns3:cad>83</ns3:cad>
          </ns3:TrackPointExtension>
        </extensions>
      </trkpt>
      <trkpt lat="45.2674470841884613037109375" lon="-71.1765194870531558990478515625">
        <ele>542.20001220703125</ele>
        <time>2026-08-22T03:45:03.000Z</time>
        <extensions>
          <ns3:TrackPointExtension>
            <ns3:hr>135</ns3:hr>
            <ns3:cad>83</ns3:cad>
          </ns3:TrackPointExtension>
        </extensions>
      </trkpt>
      <trkpt lat="45.26745253242552280426025390625" lon="-71.17655293084681034088134765625">
        <ele>542.20001220703125</ele>
        <time>2026-08-22T03:45:04.000Z</time>
        <extensions>
          <ns3:TrackPointExtension>
            <ns3:hr>135</ns3:hr>
            <ns3:cad>83</ns3:cad>
          </ns3:TrackPointExtension>
        </extensions>
      </trkpt>
      <trkpt lat="45.26745714247226715087890625" lon="-71.1765831895172595977783203125">
        <ele>542</ele>
        <time>2026-08-22T03:45:05.000Z</time>
        <extensions>
          <ns3:TrackPointExtension>
            <ns3:hr>135</ns3:hr>
            <ns3:cad>83</ns3:cad>
          </ns3:TrackPointExtension>
        </extensions>
      </trkpt>
      <trkpt lat="45.26745839975774288177490234375" lon="-71.17661445401608943939208984375">
        <ele>541.79998779296875</ele>
        <time>2026-08-22T03:45:06.000Z</time>
        <extensions>
          <ns3:TrackPointExtension>
            <ns3:hr>135</ns3:hr>
            <ns3:cad>83</ns3:cad>
          </ns3:TrackPointExtension>
        </extensions>
      </trkpt>
      <trkpt lat="45.26745739392936229705810546875" lon="-71.176644377410411834716796875">
        <ele>541.5999755859375</ele>
        <time>2026-08-22T03:45:07.000Z</time>
        <extensions>
          <ns3:TrackPointExtension>
            <ns3:hr>136</ns3:hr>
            <ns3:cad>83</ns3:cad>
          </ns3:TrackPointExtension>
        </extensions>
      </trkpt>
      <trkpt lat="45.2674569748342037200927734375" lon="-71.17667916230857372283935546875">
        <ele>541.4000244140625</ele>
        <time>2026-08-22T03:45:08.000Z</time>
        <extensions>
          <ns3:TrackPointExtension>
            <ns3:hr>136</ns3:hr>
            <ns3:cad>83</ns3:cad>
          </ns3:TrackPointExtension>
        </extensions>
      </trkpt>
      <trkpt lat="45.26745772920548915863037109375" lon="-71.176716126501560211181640625">
        <ele>541.20001220703125</ele>
        <time>2026-08-22T03:45:09.000Z</time>
        <extensions>
          <ns3:TrackPointExtension>
            <ns3:hr>136</ns3:hr>
            <ns3:cad>82</ns3:cad>
          </ns3:TrackPointExtension>
        </extensions>
      </trkpt>
      <trkpt lat="45.26745789684355258941650390625" lon="-71.176753677427768707275390625">
        <ele>541.20001220703125</ele>
        <time>2026-08-22T03:45:10.000Z</time>
        <extensions>
          <ns3:TrackPointExtension>
            <ns3:hr>136</ns3:hr>
            <ns3:cad>82</ns3:cad>
          </ns3:TrackPointExtension>
        </extensions>
      </trkpt>
      <trkpt lat="45.26745638810098171234130859375" lon="-71.17679022252559661865234375">
        <ele>541</ele>
        <time>2026-08-22T03:45:11.000Z</time>
        <extensions>
          <ns3:TrackPointExtension>
            <ns3:hr>135</ns3:hr>
            <ns3:cad>82</ns3:cad>
          </ns3:TrackPointExtension>
        </extensions>
      </trkpt>
      <trkpt lat="45.267456807196140289306640625" lon="-71.1768225766718387603759765625">
        <ele>540.79998779296875</ele>
        <time>2026-08-22T03:45:12.000Z</time>
        <extensions>
          <ns3:TrackPointExtension>
            <ns3:hr>135</ns3:hr>
            <ns3:cad>82</ns3:cad>
          </ns3:TrackPointExtension>
        </extensions>
      </trkpt>
      <trkpt lat="45.26745571754872798919677734375" lon="-71.17686130106449127197265625">
        <ele>540.5999755859375</ele>
        <time>2026-08-22T03:45:13.000Z</time>
        <extensions>
          <ns3:TrackPointExtension>
            <ns3:hr>135</ns3:hr>
            <ns3:cad>82</ns3:cad>
          </ns3:TrackPointExtension>
        </extensions>
      </trkpt>
      <trkpt lat="45.26745638810098171234130859375" lon="-71.17690044455230236053466796875">
        <ele>540.4000244140625</ele>
        <time>2026-08-22T03:45:14.000Z</time>
        <extensions>
          <ns3:TrackPointExtension>
            <ns3:hr>135</ns3:hr>
            <ns3:cad>83</ns3:cad>
          </ns3:TrackPointExtension>
        </extensions>
      </trkpt>
      <trkpt lat="45.26745848357677459716796875" lon="-71.1769355647265911102294921875">
        <ele>540.20001220703125</ele>
        <time>2026-08-22T03:45:15.000Z</time>
        <extensions>
          <ns3:TrackPointExtension>
            <ns3:hr>135</ns3:hr>
            <ns3:cad>83</ns3:cad>
          </ns3:TrackPointExtension>
        </extensions>
      </trkpt>
      <trkpt lat="45.2674576453864574432373046875" lon="-71.17697236128151416778564453125">
        <ele>540</ele>
        <time>2026-08-22T03:45:16.000Z</time>
        <extensions>
          <ns3:TrackPointExtension>
            <ns3:hr>135</ns3:hr>
            <ns3:cad>83</ns3:cad>
          </ns3:TrackPointExtension>
        </extensions>
      </trkpt>
      <trkpt lat="45.26745789684355258941650390625" lon="-71.17700672708451747894287109375">
        <ele>539.79998779296875</ele>
        <time>2026-08-22T03:45:17.000Z</time>
        <extensions>
          <ns3:TrackPointExtension>
            <ns3:hr>135</ns3:hr>
            <ns3:cad>83</ns3:cad>
          </ns3:TrackPointExtension>
        </extensions>
      </trkpt>
      <trkpt lat="45.26745789684355258941650390625" lon="-71.177040003240108489990234375">
        <ele>539.5999755859375</ele>
        <time>2026-08-22T03:45:18.000Z</time>
        <extensions>
          <ns3:TrackPointExtension>
            <ns3:hr>135</ns3:hr>
            <ns3:cad>83</ns3:cad>
          </ns3:TrackPointExtension>
        </extensions>
      </trkpt>
      <trkpt lat="45.267460159957408905029296875" lon="-71.1770760454237461090087890625">
        <ele>539.4000244140625</ele>
        <time>2026-08-22T03:45:19.000Z</time>
        <extensions>
          <ns3:TrackPointExtension>
            <ns3:hr>134</ns3:hr>
            <ns3:cad>83</ns3:cad>
          </ns3:TrackPointExtension>
        </extensions>
      </trkpt>
      <trkpt lat="45.26745806448161602020263671875" lon="-71.17710865102708339691162109375">
        <ele>539.20001220703125</ele>
        <time>2026-08-22T03:45:20.000Z</time>
        <extensions>
          <ns3:TrackPointExtension>
            <ns3:hr>135</ns3:hr>
            <ns3:cad>83</ns3:cad>
          </ns3:TrackPointExtension>
        </extensions>
      </trkpt>
      <trkpt lat="45.26745672337710857391357421875" lon="-71.1771437712013721466064453125">
        <ele>538.79998779296875</ele>
        <time>2026-08-22T03:45:21.000Z</time>
        <extensions>
          <ns3:TrackPointExtension>
            <ns3:hr>135</ns3:hr>
            <ns3:cad>83</ns3:cad>
          </ns3:TrackPointExtension>
        </extensions>
      </trkpt>
      <trkpt lat="45.2674563042819499969482421875" lon="-71.17717805318534374237060546875">
        <ele>538.5999755859375</ele>
        <time>2026-08-22T03:45:22.000Z</time>
        <extensions>
          <ns3:TrackPointExtension>
            <ns3:hr>134</ns3:hr>
            <ns3:cad>83</ns3:cad>
          </ns3:TrackPointExtension>
        </extensions>
      </trkpt>
      <trkpt lat="45.26745437644422054290771484375" lon="-71.17721493355929851531982421875">
        <ele>538.4000244140625</ele>
        <time>2026-08-22T03:45:23.000Z</time>
        <extensions>
          <ns3:TrackPointExtension>
            <ns3:hr>135</ns3:hr>
            <ns3:cad>83</ns3:cad>
          </ns3:TrackPointExtension>
        </extensions>
      </trkpt>
      <trkpt lat="45.26745152659714221954345703125" lon="-71.1772517301142215728759765625">
        <ele>538.20001220703125</ele>
        <time>2026-08-22T03:45:24.000Z</time>
        <extensions>
          <ns3:TrackPointExtension>
            <ns3:hr>135</ns3:hr>
            <ns3:cad>82</ns3:cad>
          </ns3:TrackPointExtension>
        </extensions>
      </trkpt>
      <trkpt lat="45.2674485929310321807861328125" lon="-71.17728869430720806121826171875">
        <ele>538</ele>
        <time>2026-08-22T03:45:25.000Z</time>
        <extensions>
          <ns3:TrackPointExtension>
            <ns3:hr>134</ns3:hr>
            <ns3:cad>82</ns3:cad>
          </ns3:TrackPointExtension>
        </extensions>
      </trkpt>
      <trkpt lat="45.267446748912334442138671875" lon="-71.17732264101505279541015625">
        <ele>537.79998779296875</ele>
        <time>2026-08-22T03:45:26.000Z</time>
        <extensions>
          <ns3:TrackPointExtension>
            <ns3:hr>135</ns3:hr>
            <ns3:cad>82</ns3:cad>
          </ns3:TrackPointExtension>
        </extensions>
      </trkpt>
      <trkpt lat="45.26744347997009754180908203125" lon="-71.17735683917999267578125">
        <ele>537.4000244140625</ele>
        <time>2026-08-22T03:45:27.000Z</time>
        <extensions>
          <ns3:TrackPointExtension>
            <ns3:hr>135</ns3:hr>
            <ns3:cad>82</ns3:cad>
          </ns3:TrackPointExtension>
        </extensions>
      </trkpt>
      <trkpt lat="45.26744230650365352630615234375" lon="-71.17739095352590084075927734375">
        <ele>537.20001220703125</ele>
        <time>2026-08-22T03:45:28.000Z</time>
        <extensions>
          <ns3:TrackPointExtension>
            <ns3:hr>134</ns3:hr>
            <ns3:cad>83</ns3:cad>
          </ns3:TrackPointExtension>
        </extensions>
      </trkpt>
      <trkpt lat="45.26743945665657520294189453125" lon="-71.1774290911853313446044921875">
        <ele>537</ele>
        <time>2026-08-22T03:45:29.000Z</time>
        <extensions>
          <ns3:TrackPointExtension>
            <ns3:hr>134</ns3:hr>
            <ns3:cad>83</ns3:cad>
          </ns3:TrackPointExtension>
        </extensions>
      </trkpt>
      <trkpt lat="45.26744163595139980316162109375" lon="-71.17746270261704921722412109375">
        <ele>536.79998779296875</ele>
        <time>2026-08-22T03:45:30.000Z</time>
        <extensions>
          <ns3:TrackPointExtension>
            <ns3:hr>134</ns3:hr>
            <ns3:cad>83</ns3:cad>
          </ns3:TrackPointExtension>
        </extensions>
      </trkpt>
      <trkpt lat="45.26744306087493896484375" lon="-71.17749698460102081298828125">
        <ele>536.5999755859375</ele>
        <time>2026-08-22T03:45:31.000Z</time>
        <extensions>
          <ns3:TrackPointExtension>
            <ns3:hr>135</ns3:hr>
            <ns3:cad>83</ns3:cad>
          </ns3:TrackPointExtension>
        </extensions>
      </trkpt>
      <trkpt lat="45.267449431121349334716796875" lon="-71.1775340326130390167236328125">
        <ele>536.4000244140625</ele>
        <time>2026-08-22T03:45:32.000Z</time>
        <extensions>
          <ns3:TrackPointExtension>
            <ns3:hr>134</ns3:hr>
            <ns3:cad>83</ns3:cad>
          </ns3:TrackPointExtension>
        </extensions>
      </trkpt>
      <trkpt lat="45.26745471172034740447998046875" lon="-71.17756680585443973541259765625">
        <ele>536</ele>
        <time>2026-08-22T03:45:33.000Z</time>
        <extensions>
          <ns3:TrackPointExtension>
            <ns3:hr>134</ns3:hr>
            <ns3:cad>82</ns3:cad>
          </ns3:TrackPointExtension>
        </extensions>
      </trkpt>
      <trkpt lat="45.267455466091632843017578125" lon="-71.17760402150452136993408203125">
        <ele>535.79998779296875</ele>
        <time>2026-08-22T03:45:34.000Z</time>
        <extensions>
          <ns3:TrackPointExtension>
            <ns3:hr>135</ns3:hr>
            <ns3:cad>82</ns3:cad>
          </ns3:TrackPointExtension>
        </extensions>
      </trkpt>
      <trkpt lat="45.2674576453864574432373046875" lon="-71.17763905785977840423583984375">
        <ele>535.79998779296875</ele>
        <time>2026-08-22T03:45:35.000Z</time>
        <extensions>
          <ns3:TrackPointExtension>
            <ns3:hr>134</ns3:hr>
            <ns3:cad>82</ns3:cad>
          </ns3:TrackPointExtension>
        </extensions>
      </trkpt>
      <trkpt lat="45.267456136643886566162109375" lon="-71.17767442949116230010986328125">
        <ele>535.5999755859375</ele>
        <time>2026-08-22T03:45:36.000Z</time>
        <extensions>
          <ns3:TrackPointExtension>
            <ns3:hr>134</ns3:hr>
            <ns3:cad>82</ns3:cad>
          </ns3:TrackPointExtension>
        </extensions>
      </trkpt>
      <trkpt lat="45.26745446026325225830078125" lon="-71.1777056939899921417236328125">
        <ele>535.5999755859375</ele>
        <time>2026-08-22T03:45:37.000Z</time>
        <extensions>
          <ns3:TrackPointExtension>
            <ns3:hr>134</ns3:hr>
            <ns3:cad>82</ns3:cad>
          </ns3:TrackPointExtension>
        </extensions>
      </trkpt>
      <trkpt lat="45.26745270006358623504638671875" lon="-71.17773461155593395233154296875">
        <ele>535.5999755859375</ele>
        <time>2026-08-22T03:45:38.000Z</time>
        <extensions>
          <ns3:TrackPointExtension>
            <ns3:hr>134</ns3:hr>
            <ns3:cad>82</ns3:cad>
          </ns3:TrackPointExtension>
        </extensions>
      </trkpt>
      <trkpt lat="45.26745454408228397369384765625" lon="-71.177772246301174163818359375">
        <ele>535.4000244140625</ele>
        <time>2026-08-22T03:45:39.000Z</time>
        <extensions>
          <ns3:TrackPointExtension>
            <ns3:hr>133</ns3:hr>
            <ns3:cad>82</ns3:cad>
          </ns3:TrackPointExtension>
        </extensions>
      </trkpt>
      <trkpt lat="45.26745219714939594268798828125" lon="-71.17780451662838459014892578125">
        <ele>535.20001220703125</ele>
        <time>2026-08-22T03:45:40.000Z</time>
        <extensions>
          <ns3:TrackPointExtension>
            <ns3:hr>133</ns3:hr>
            <ns3:cad>84</ns3:cad>
          </ns3:TrackPointExtension>
        </extensions>
      </trkpt>
      <trkpt lat="45.267452783882617950439453125" lon="-71.17783636786043643951416015625">
        <ele>535.20001220703125</ele>
        <time>2026-08-22T03:45:41.000Z</time>
        <extensions>
          <ns3:TrackPointExtension>
            <ns3:hr>133</ns3:hr>
            <ns3:cad>84</ns3:cad>
          </ns3:TrackPointExtension>
        </extensions>
      </trkpt>
      <trkpt lat="45.2674583159387111663818359375" lon="-71.17787106893956661224365234375">
        <ele>535</ele>
        <time>2026-08-22T03:45:42.000Z</time>
        <extensions>
          <ns3:TrackPointExtension>
            <ns3:hr>132</ns3:hr>
            <ns3:cad>84</ns3:cad>
          </ns3:TrackPointExtension>
        </extensions>
      </trkpt>
      <trkpt lat="45.26746041141450405120849609375" lon="-71.17790476419031620025634765625">
        <ele>534.79998779296875</ele>
        <time>2026-08-22T03:45:43.000Z</time>
        <extensions>
          <ns3:TrackPointExtension>
            <ns3:hr>132</ns3:hr>
            <ns3:cad>83</ns3:cad>
          </ns3:TrackPointExtension>
        </extensions>
      </trkpt>
      <trkpt lat="45.26746091432869434356689453125" lon="-71.17793963290750980377197265625">
        <ele>534.79998779296875</ele>
        <time>2026-08-22T03:45:44.000Z</time>
        <extensions>
          <ns3:TrackPointExtension>
            <ns3:hr>132</ns3:hr>
            <ns3:cad>83</ns3:cad>
          </ns3:TrackPointExtension>
        </extensions>
      </trkpt>
      <trkpt lat="45.2674631774425506591796875" lon="-71.1779752559959888458251953125">
        <ele>534.79998779296875</ele>
        <time>2026-08-22T03:45:45.000Z</time>
        <extensions>
          <ns3:TrackPointExtension>
            <ns3:hr>133</ns3:hr>
            <ns3:cad>82</ns3:cad>
          </ns3:TrackPointExtension>
        </extensions>
      </trkpt>
      <trkpt lat="45.2674640156328678131103515625" lon="-71.1780087836086750030517578125">
        <ele>534.5999755859375</ele>
        <time>2026-08-22T03:45:46.000Z</time>
        <extensions>
          <ns3:TrackPointExtension>
            <ns3:hr>132</ns3:hr>
            <ns3:cad>82</ns3:cad>
          </ns3:TrackPointExtension>
        </extensions>
      </trkpt>
      <trkpt lat="45.26746074669063091278076171875" lon="-71.17804524488747119903564453125">
        <ele>534.5999755859375</ele>
        <time>2026-08-22T03:45:47.000Z</time>
        <extensions>
          <ns3:TrackPointExtension>
            <ns3:hr>132</ns3:hr>
            <ns3:cad>82</ns3:cad>
          </ns3:TrackPointExtension>
        </extensions>
      </trkpt>
      <trkpt lat="45.267464853823184967041015625" lon="-71.17808396928012371063232421875">
        <ele>534.5999755859375</ele>
        <time>2026-08-22T03:45:48.000Z</time>
        <extensions>
          <ns3:TrackPointExtension>
            <ns3:hr>132</ns3:hr>
            <ns3:cad>82</ns3:cad>
          </ns3:TrackPointExtension>
        </extensions>
      </trkpt>
      <trkpt lat="45.267467200756072998046875" lon="-71.1781199276447296142578125">
        <ele>534.4000244140625</ele>
        <time>2026-08-22T03:45:49.000Z</time>
        <extensions>
          <ns3:TrackPointExtension>
            <ns3:hr>132</ns3:hr>
            <ns3:cad>82</ns3:cad>
          </ns3:TrackPointExtension>
        </extensions>
      </trkpt>
      <trkpt lat="45.2674650214612483978271484375" lon="-71.17815270088613033294677734375">
        <ele>534.4000244140625</ele>
        <time>2026-08-22T03:45:50.000Z</time>
        <extensions>
          <ns3:TrackPointExtension>
            <ns3:hr>132</ns3:hr>
            <ns3:cad>83</ns3:cad>
          </ns3:TrackPointExtension>
        </extensions>
      </trkpt>
      <trkpt lat="45.2674650214612483978271484375" lon="-71.178183965384960174560546875">
        <ele>534.20001220703125</ele>
        <time>2026-08-22T03:45:51.000Z</time>
        <extensions>
          <ns3:TrackPointExtension>
            <ns3:hr>132</ns3:hr>
            <ns3:cad>83</ns3:cad>
          </ns3:TrackPointExtension>
        </extensions>
      </trkpt>
      <trkpt lat="45.26746661402285099029541015625" lon="-71.17822310887277126312255859375">
        <ele>534.20001220703125</ele>
        <time>2026-08-22T03:45:52.000Z</time>
        <extensions>
          <ns3:TrackPointExtension>
            <ns3:hr>132</ns3:hr>
            <ns3:cad>83</ns3:cad>
          </ns3:TrackPointExtension>
        </extensions>
      </trkpt>
      <trkpt lat="45.26746384799480438232421875" lon="-71.17825797758996486663818359375">
        <ele>534</ele>
        <time>2026-08-22T03:45:53.000Z</time>
        <extensions>
          <ns3:TrackPointExtension>
            <ns3:hr>132</ns3:hr>
            <ns3:cad>83</ns3:cad>
          </ns3:TrackPointExtension>
        </extensions>
      </trkpt>
      <trkpt lat="45.2674646861851215362548828125" lon="-71.17829033173620700836181640625">
        <ele>534</ele>
        <time>2026-08-22T03:45:54.000Z</time>
        <extensions>
          <ns3:TrackPointExtension>
            <ns3:hr>133</ns3:hr>
            <ns3:cad>83</ns3:cad>
          </ns3:TrackPointExtension>
        </extensions>
      </trkpt>
      <trkpt lat="45.2674643509089946746826171875" lon="-71.17832788266241550445556640625">
        <ele>534</ele>
        <time>2026-08-22T03:45:55.000Z</time>
        <extensions>
          <ns3:TrackPointExtension>
            <ns3:hr>132</ns3:hr>
            <ns3:cad>83</ns3:cad>
          </ns3:TrackPointExtension>
        </extensions>
      </trkpt>
      <trkpt lat="45.267460830509662628173828125" lon="-71.178362332284450531005859375">
        <ele>534</ele>
        <time>2026-08-22T03:45:56.000Z</time>
        <extensions>
          <ns3:TrackPointExtension>
            <ns3:hr>132</ns3:hr>
            <ns3:cad>83</ns3:cad>
          </ns3:TrackPointExtension>
        </extensions>
      </trkpt>
      <trkpt lat="45.2674586512148380279541015625" lon="-71.17839820683002471923828125">
        <ele>534</ele>
        <time>2026-08-22T03:45:57.000Z</time>
        <extensions>
          <ns3:TrackPointExtension>
            <ns3:hr>133</ns3:hr>
            <ns3:cad>83</ns3:cad>
          </ns3:TrackPointExtension>
        </extensions>
      </trkpt>
      <trkpt lat="45.26745705865323543548583984375" lon="-71.178432404994964599609375">
        <ele>534.20001220703125</ele>
        <time>2026-08-22T03:45:58.000Z</time>
        <extensions>
          <ns3:TrackPointExtension>
            <ns3:hr>132</ns3:hr>
            <ns3:cad>83</ns3:cad>
          </ns3:TrackPointExtension>
        </extensions>
      </trkpt>
      <trkpt lat="45.26745940558612346649169921875" lon="-71.1784744821488857269287109375">
        <ele>534.20001220703125</ele>
        <time>2026-08-22T03:45:59.000Z</time>
        <extensions>
          <ns3:TrackPointExtension>
            <ns3:hr>132</ns3:hr>
            <ns3:cad>83</ns3:cad>
          </ns3:TrackPointExtension>
        </extensions>
      </trkpt>
      <trkpt lat="45.26746175251901149749755859375" lon="-71.1785137094557285308837890625">
        <ele>534.4000244140625</ele>
        <time>2026-08-22T03:46:00.000Z</time>
        <extensions>
          <ns3:TrackPointExtension>
            <ns3:hr>133</ns3:hr>
            <ns3:cad>83</ns3:cad>
          </ns3:TrackPointExtension>
        </extensions>
      </trkpt>
      <trkpt lat="45.26746041141450405120849609375" lon="-71.17855033837258815765380859375">
        <ele>534.4000244140625</ele>
        <time>2026-08-22T03:46:01.000Z</time>
        <extensions>
          <ns3:TrackPointExtension>
            <ns3:hr>132</ns3:hr>
            <ns3:cad>83</ns3:cad>
          </ns3:TrackPointExtension>
        </extensions>
      </trkpt>
      <trkpt lat="45.2674613334238529205322265625" lon="-71.178586967289447784423828125">
        <ele>534.5999755859375</ele>
        <time>2026-08-22T03:46:02.000Z</time>
        <extensions>
          <ns3:TrackPointExtension>
            <ns3:hr>132</ns3:hr>
            <ns3:cad>85</ns3:cad>
          </ns3:TrackPointExtension>
        </extensions>
      </trkpt>
      <trkpt lat="45.26746074669063091278076171875" lon="-71.1786161363124847412109375">
        <ele>534.79998779296875</ele>
        <time>2026-08-22T03:46:03.000Z</time>
        <extensions>
          <ns3:TrackPointExtension>
            <ns3:hr>133</ns3:hr>
            <ns3:cad>85</ns3:cad>
          </ns3:TrackPointExtension>
        </extensions>
      </trkpt>
      <trkpt lat="45.26746242307126522064208984375" lon="-71.1786471493542194366455078125">
        <ele>534.79998779296875</ele>
        <time>2026-08-22T03:46:04.000Z</time>
        <extensions>
          <ns3:TrackPointExtension>
            <ns3:hr>132</ns3:hr>
            <ns3:cad>85</ns3:cad>
          </ns3:TrackPointExtension>
        </extensions>
      </trkpt>
      <trkpt lat="45.26746384799480438232421875" lon="-71.1786783300340175628662109375">
        <ele>535</ele>
        <time>2026-08-22T03:46:05.000Z</time>
        <extensions>
          <ns3:TrackPointExtension>
            <ns3:hr>132</ns3:hr>
            <ns3:cad>85</ns3:cad>
          </ns3:TrackPointExtension>
        </extensions>
      </trkpt>
      <trkpt lat="45.26746342889964580535888671875" lon="-71.17871093563735485076904296875">
        <ele>535.20001220703125</ele>
        <time>2026-08-22T03:46:06.000Z</time>
        <extensions>
          <ns3:TrackPointExtension>
            <ns3:hr>133</ns3:hr>
            <ns3:cad>85</ns3:cad>
          </ns3:TrackPointExtension>
        </extensions>
      </trkpt>
      <trkpt lat="45.26746460236608982086181640625" lon="-71.1787457205355167388916015625">
        <ele>535.4000244140625</ele>
        <time>2026-08-22T03:46:07.000Z</time>
        <extensions>
          <ns3:TrackPointExtension>
            <ns3:hr>133</ns3:hr>
            <ns3:cad>85</ns3:cad>
          </ns3:TrackPointExtension>
        </extensions>
      </trkpt>
      <trkpt lat="45.26746477000415325164794921875" lon="-71.17877882905304431915283203125">
        <ele>535.5999755859375</ele>
        <time>2026-08-22T03:46:08.000Z</time>
        <extensions>
          <ns3:TrackPointExtension>
            <ns3:hr>133</ns3:hr>
            <ns3:cad>85</ns3:cad>
          </ns3:TrackPointExtension>
        </extensions>
      </trkpt>
      <trkpt lat="45.26746761985123157501220703125" lon="-71.17881520651280879974365234375">
        <ele>535.79998779296875</ele>
        <time>2026-08-22T03:46:09.000Z</time>
        <extensions>
          <ns3:TrackPointExtension>
            <ns3:hr>133</ns3:hr>
            <ns3:cad>0</ns3:cad>
          </ns3:TrackPointExtension>
        </extensions>
      </trkpt>
      <trkpt lat="45.26746963150799274444580078125" lon="-71.178849823772907257080078125">
        <ele>536</ele>
        <time>2026-08-22T03:46:10.000Z</time>
        <extensions>
          <ns3:TrackPointExtension>
            <ns3:hr>133</ns3:hr>
            <ns3:cad>0</ns3:cad>
          </ns3:TrackPointExtension>
        </extensions>
      </trkpt>
      <trkpt lat="45.26746912859380245208740234375" lon="-71.178888715803623199462890625">
        <ele>536</ele>
        <time>2026-08-22T03:46:11.000Z</time>
        <extensions>
          <ns3:TrackPointExtension>
            <ns3:hr>133</ns3:hr>
            <ns3:cad>41</ns3:cad>
          </ns3:TrackPointExtension>
        </extensions>
      </trkpt>
      <trkpt lat="45.2674717269837856292724609375" lon="-71.1789203993976116180419921875">
        <ele>536.20001220703125</ele>
        <time>2026-08-22T03:46:12.000Z</time>
        <extensions>
          <ns3:TrackPointExtension>
            <ns3:hr>133</ns3:hr>
            <ns3:cad>42</ns3:cad>
          </ns3:TrackPointExtension>
        </extensions>
      </trkpt>
      <trkpt lat="45.2674713917076587677001953125" lon="-71.178947724401950836181640625">
        <ele>536.4000244140625</ele>
        <time>2026-08-22T03:46:13.000Z</time>
        <extensions>
          <ns3:TrackPointExtension>
            <ns3:hr>133</ns3:hr>
            <ns3:cad>42</ns3:cad>
          </ns3:TrackPointExtension>
        </extensions>
      </trkpt>
      <trkpt lat="45.267474241554737091064453125" lon="-71.17898619733750820159912109375">
        <ele>536.5999755859375</ele>
        <time>2026-08-22T03:46:14.000Z</time>
        <extensions>
          <ns3:TrackPointExtension>
            <ns3:hr>133</ns3:hr>
            <ns3:cad>42</ns3:cad>
          </ns3:TrackPointExtension>
        </extensions>
      </trkpt>
      <trkpt lat="45.26747767813503742218017578125" lon="-71.1790176294744014739990234375">
        <ele>536.5999755859375</ele>
        <time>2026-08-22T03:46:15.000Z</time>
        <extensions>
          <ns3:TrackPointExtension>
            <ns3:hr>133</ns3:hr>
            <ns3:cad>42</ns3:cad>
          </ns3:TrackPointExtension>
        </extensions>
      </trkpt>
      <trkpt lat="45.26747583411633968353271484375" lon="-71.1790452897548675537109375">
        <ele>536.79998779296875</ele>
        <time>2026-08-22T03:46:16.000Z</time>
        <extensions>
          <ns3:TrackPointExtension>
            <ns3:hr>134</ns3:hr>
            <ns3:cad>41</ns3:cad>
          </ns3:TrackPointExtension>
        </extensions>
      </trkpt>
      <trkpt lat="45.2674760855734348297119140625" lon="-71.1790793202817440032958984375">
        <ele>537</ele>
        <time>2026-08-22T03:46:17.000Z</time>
        <extensions>
          <ns3:TrackPointExtension>
            <ns3:hr>134</ns3:hr>
            <ns3:cad>41</ns3:cad>
          </ns3:TrackPointExtension>
        </extensions>
      </trkpt>
      <trkpt lat="45.26747700758278369903564453125" lon="-71.179112009704113006591796875">
        <ele>537</ele>
        <time>2026-08-22T03:46:18.000Z</time>
        <extensions>
          <ns3:TrackPointExtension>
            <ns3:hr>135</ns3:hr>
            <ns3:cad>82</ns3:cad>
          </ns3:TrackPointExtension>
        </extensions>
      </trkpt>
      <trkpt lat="45.2674739062786102294921875" lon="-71.1791594512760639190673828125">
        <ele>537</ele>
        <time>2026-08-22T03:46:19.000Z</time>
        <extensions>
          <ns3:TrackPointExtension>
            <ns3:hr>135</ns3:hr>
            <ns3:cad>82</ns3:cad>
          </ns3:TrackPointExtension>
        </extensions>
      </trkpt>
      <trkpt lat="45.26747549884021282196044921875" lon="-71.17919691838324069976806640625">
        <ele>537.20001220703125</ele>
        <time>2026-08-22T03:46:20.000Z</time>
        <extensions>
          <ns3:TrackPointExtension>
            <ns3:hr>136</ns3:hr>
            <ns3:cad>82</ns3:cad>
          </ns3:TrackPointExtension>
        </extensions>
      </trkpt>
      <trkpt lat="45.267474241554737091064453125" lon="-71.179230697453022003173828125">
        <ele>537</ele>
        <time>2026-08-22T03:46:21.000Z</time>
        <extensions>
          <ns3:TrackPointExtension>
            <ns3:hr>136</ns3:hr>
            <ns3:cad>82</ns3:cad>
          </ns3:TrackPointExtension>
        </extensions>
      </trkpt>
      <trkpt lat="45.26747516356408596038818359375" lon="-71.17926799692213535308837890625">
        <ele>537</ele>
        <time>2026-08-22T03:46:22.000Z</time>
        <extensions>
          <ns3:TrackPointExtension>
            <ns3:hr>137</ns3:hr>
            <ns3:cad>82</ns3:cad>
          </ns3:TrackPointExtension>
        </extensions>
      </trkpt>
      <trkpt lat="45.267476253211498260498046875" lon="-71.179301105439662933349609375">
        <ele>537</ele>
        <time>2026-08-22T03:46:23.000Z</time>
        <extensions>
          <ns3:TrackPointExtension>
            <ns3:hr>138</ns3:hr>
            <ns3:cad>83</ns3:cad>
          </ns3:TrackPointExtension>
        </extensions>
      </trkpt>
      <trkpt lat="45.267476923763751983642578125" lon="-71.17933069355785846710205078125">
        <ele>536.79998779296875</ele>
        <time>2026-08-22T03:46:24.000Z</time>
        <extensions>
          <ns3:TrackPointExtension>
            <ns3:hr>138</ns3:hr>
            <ns3:cad>83</ns3:cad>
          </ns3:TrackPointExtension>
        </extensions>
      </trkpt>
      <trkpt lat="45.26747767813503742218017578125" lon="-71.17936288006603717803955078125">
        <ele>536.79998779296875</ele>
        <time>2026-08-22T03:46:25.000Z</time>
        <extensions>
          <ns3:TrackPointExtension>
            <ns3:hr>139</ns3:hr>
            <ns3:cad>83</ns3:cad>
          </ns3:TrackPointExtension>
        </extensions>
      </trkpt>
      <trkpt lat="45.26748069562017917633056640625" lon="-71.17939489893615245819091796875">
        <ele>536.5999755859375</ele>
        <time>2026-08-22T03:46:26.000Z</time>
        <extensions>
          <ns3:TrackPointExtension>
            <ns3:hr>139</ns3:hr>
            <ns3:cad>83</ns3:cad>
          </ns3:TrackPointExtension>
        </extensions>
      </trkpt>
      <trkpt lat="45.26748622767627239227294921875" lon="-71.17942809127271175384521484375">
        <ele>536.5999755859375</ele>
        <time>2026-08-22T03:46:27.000Z</time>
        <extensions>
          <ns3:TrackPointExtension>
            <ns3:hr>139</ns3:hr>
            <ns3:cad>83</ns3:cad>
          </ns3:TrackPointExtension>
        </extensions>
      </trkpt>
      <trkpt lat="45.26748790405690670013427734375" lon="-71.17946312762796878814697265625">
        <ele>536.5999755859375</ele>
        <time>2026-08-22T03:46:28.000Z</time>
        <extensions>
          <ns3:TrackPointExtension>
            <ns3:hr>139</ns3:hr>
            <ns3:cad>84</ns3:cad>
          </ns3:TrackPointExtension>
        </extensions>
      </trkpt>
      <trkpt lat="45.26748756878077983856201171875" lon="-71.1794970743358135223388671875">
        <ele>536.5999755859375</ele>
        <time>2026-08-22T03:46:29.000Z</time>
        <extensions>
          <ns3:TrackPointExtension>
            <ns3:hr>140</ns3:hr>
            <ns3:cad>84</ns3:cad>
          </ns3:TrackPointExtension>
        </extensions>
      </trkpt>
      <trkpt lat="45.267488993704319000244140625" lon="-71.17953269742429256439208984375">
        <ele>536.5999755859375</ele>
        <time>2026-08-22T03:46:30.000Z</time>
        <extensions>
          <ns3:TrackPointExtension>
            <ns3:hr>140</ns3:hr>
            <ns3:cad>84</ns3:cad>
          </ns3:TrackPointExtension>
        </extensions>
      </trkpt>
      <trkpt lat="45.267483629286289215087890625" lon="-71.17956555448472499847412109375">
        <ele>536.5999755859375</ele>
        <time>2026-08-22T03:46:31.000Z</time>
        <extensions>
          <ns3:TrackPointExtension>
            <ns3:hr>140</ns3:hr>
            <ns3:cad>84</ns3:cad>
          </ns3:TrackPointExtension>
        </extensions>
      </trkpt>
      <trkpt lat="45.26748103089630603790283203125" lon="-71.17959916591644287109375">
        <ele>536.5999755859375</ele>
        <time>2026-08-22T03:46:32.000Z</time>
        <extensions>
          <ns3:TrackPointExtension>
            <ns3:hr>140</ns3:hr>
            <ns3:cad>84</ns3:cad>
          </ns3:TrackPointExtension>
        </extensions>
      </trkpt>
      <trkpt lat="45.2674844674766063690185546875" lon="-71.1796331964433193206787109375">
        <ele>536.5999755859375</ele>
        <time>2026-08-22T03:46:33.000Z</time>
        <extensions>
          <ns3:TrackPointExtension>
            <ns3:hr>140</ns3:hr>
            <ns3:cad>84</ns3:cad>
          </ns3:TrackPointExtension>
        </extensions>
      </trkpt>
      <trkpt lat="45.26748404838144779205322265625" lon="-71.179667226970195770263671875">
        <ele>536.5999755859375</ele>
        <time>2026-08-22T03:46:34.000Z</time>
        <extensions>
          <ns3:TrackPointExtension>
            <ns3:hr>140</ns3:hr>
            <ns3:cad>84</ns3:cad>
          </ns3:TrackPointExtension>
        </extensions>
      </trkpt>
      <trkpt lat="45.2674858085811138153076171875" lon="-71.17970502935349941253662109375">
        <ele>536.5999755859375</ele>
        <time>2026-08-22T03:46:35.000Z</time>
        <extensions>
          <ns3:TrackPointExtension>
            <ns3:hr>140</ns3:hr>
            <ns3:cad>84</ns3:cad>
          </ns3:TrackPointExtension>
        </extensions>
      </trkpt>
      <trkpt lat="45.267485640943050384521484375" lon="-71.1797388084232807159423828125">
        <ele>536.79998779296875</ele>
        <time>2026-08-22T03:46:36.000Z</time>
        <extensions>
          <ns3:TrackPointExtension>
            <ns3:hr>140</ns3:hr>
            <ns3:cad>84</ns3:cad>
          </ns3:TrackPointExtension>
        </extensions>
      </trkpt>
      <trkpt lat="45.26748538948595523834228515625" lon="-71.1797740124166011810302734375">
        <ele>536.79998779296875</ele>
        <time>2026-08-22T03:46:37.000Z</time>
        <extensions>
          <ns3:TrackPointExtension>
            <ns3:hr>141</ns3:hr>
            <ns3:cad>84</ns3:cad>
          </ns3:TrackPointExtension>
        </extensions>
      </trkpt>
      <trkpt lat="45.26748673059046268463134765625" lon="-71.17981038987636566162109375">
        <ele>537</ele>
        <time>2026-08-22T03:46:38.000Z</time>
        <extensions>
          <ns3:TrackPointExtension>
            <ns3:hr>140</ns3:hr>
            <ns3:cad>85</ns3:cad>
          </ns3:TrackPointExtension>
        </extensions>
      </trkpt>
      <trkpt lat="45.26748337782919406890869140625" lon="-71.17984567768871784210205078125">
        <ele>537</ele>
        <time>2026-08-22T03:46:39.000Z</time>
        <extensions>
          <ns3:TrackPointExtension>
            <ns3:hr>141</ns3:hr>
            <ns3:cad>85</ns3:cad>
          </ns3:TrackPointExtension>
        </extensions>
      </trkpt>
      <trkpt lat="45.26748807169497013092041015625" lon="-71.17987719364464282989501953125">
        <ele>537.20001220703125</ele>
        <time>2026-08-22T03:46:40.000Z</time>
        <extensions>
          <ns3:TrackPointExtension>
            <ns3:hr>141</ns3:hr>
            <ns3:cad>85</ns3:cad>
          </ns3:TrackPointExtension>
        </extensions>
      </trkpt>
      <trkpt lat="45.26748823933303356170654296875" lon="-71.17990502156317234039306640625">
        <ele>537.4000244140625</ele>
        <time>2026-08-22T03:46:41.000Z</time>
        <extensions>
          <ns3:TrackPointExtension>
            <ns3:hr>141</ns3:hr>
            <ns3:cad>85</ns3:cad>
          </ns3:TrackPointExtension>
        </extensions>
      </trkpt>
      <trkpt lat="45.2674915082752704620361328125" lon="-71.1799476854503154754638671875">
        <ele>537.4000244140625</ele>
        <time>2026-08-22T03:46:42.000Z</time>
        <extensions>
          <ns3:TrackPointExtension>
            <ns3:hr>141</ns3:hr>
            <ns3:cad>84</ns3:cad>
          </ns3:TrackPointExtension>
        </extensions>
      </trkpt>
      <trkpt lat="45.26749410666525363922119140625" lon="-71.17997995577752590179443359375">
        <ele>537.5999755859375</ele>
        <time>2026-08-22T03:46:43.000Z</time>
        <extensions>
          <ns3:TrackPointExtension>
            <ns3:hr>141</ns3:hr>
            <ns3:cad>84</ns3:cad>
          </ns3:TrackPointExtension>
        </extensions>
      </trkpt>
      <trkpt lat="45.26749108918011188507080078125" lon="-71.1800123937427997589111328125">
        <ele>537.5999755859375</ele>
        <time>2026-08-22T03:46:44.000Z</time>
        <extensions>
          <ns3:TrackPointExtension>
            <ns3:hr>142</ns3:hr>
            <ns3:cad>84</ns3:cad>
          </ns3:TrackPointExtension>
        </extensions>
      </trkpt>
      <trkpt lat="45.267492346465587615966796875" lon="-71.18004969321191310882568359375">
        <ele>537.79998779296875</ele>
        <time>2026-08-22T03:46:45.000Z</time>
        <extensions>
          <ns3:TrackPointExtension>
            <ns3:hr>141</ns3:hr>
            <ns3:cad>84</ns3:cad>
          </ns3:TrackPointExtension>
        </extensions>
      </trkpt>
      <trkpt lat="45.26749108918011188507080078125" lon="-71.180086992681026458740234375">
        <ele>538</ele>
        <time>2026-08-22T03:46:46.000Z</time>
        <extensions>
          <ns3:TrackPointExtension>
            <ns3:hr>141</ns3:hr>
            <ns3:cad>84</ns3:cad>
          </ns3:TrackPointExtension>
        </extensions>
      </trkpt>
      <trkpt lat="45.26749041862785816192626953125" lon="-71.18011808954179286956787109375">
        <ele>538.20001220703125</ele>
        <time>2026-08-22T03:46:47.000Z</time>
        <extensions>
          <ns3:TrackPointExtension>
            <ns3:hr>141</ns3:hr>
            <ns3:cad>84</ns3:cad>
          </ns3:TrackPointExtension>
        </extensions>
      </trkpt>
      <trkpt lat="45.2674928493797779083251953125" lon="-71.18014859966933727264404296875">
        <ele>538.4000244140625</ele>
        <time>2026-08-22T03:46:48.000Z</time>
        <extensions>
          <ns3:TrackPointExtension>
            <ns3:hr>141</ns3:hr>
            <ns3:cad>84</ns3:cad>
          </ns3:TrackPointExtension>
        </extensions>
      </trkpt>
      <trkpt lat="45.2674938552081584930419921875" lon="-71.18018564768135547637939453125">
        <ele>538.4000244140625</ele>
        <time>2026-08-22T03:46:49.000Z</time>
        <extensions>
          <ns3:TrackPointExtension>
            <ns3:hr>141</ns3:hr>
            <ns3:cad>42</ns3:cad>
          </ns3:TrackPointExtension>
        </extensions>
      </trkpt>
      <trkpt lat="45.26749628596007823944091796875" lon="-71.18021884001791477203369140625">
        <ele>538.5999755859375</ele>
        <time>2026-08-22T03:46:50.000Z</time>
        <extensions>
          <ns3:TrackPointExtension>
            <ns3:hr>142</ns3:hr>
            <ns3:cad>42</ns3:cad>
          </ns3:TrackPointExtension>
        </extensions>
      </trkpt>
      <trkpt lat="45.26749528013169765472412109375" lon="-71.1802450753748416900634765625">
        <ele>538.79998779296875</ele>
        <time>2026-08-22T03:46:51.000Z</time>
        <extensions>
          <ns3:TrackPointExtension>
            <ns3:hr>142</ns3:hr>
            <ns3:cad>42</ns3:cad>
          </ns3:TrackPointExtension>
        </extensions>
      </trkpt>
      <trkpt lat="45.26749628596007823944091796875" lon="-71.18028002791106700897216796875">
        <ele>539</ele>
        <time>2026-08-22T03:46:52.000Z</time>
        <extensions>
          <ns3:TrackPointExtension>
            <ns3:hr>142</ns3:hr>
            <ns3:cad>42</ns3:cad>
          </ns3:TrackPointExtension>
        </extensions>
      </trkpt>
      <trkpt lat="45.26750366203486919403076171875" lon="-71.180309616029262542724609375">
        <ele>539.20001220703125</ele>
        <time>2026-08-22T03:46:53.000Z</time>
        <extensions>
          <ns3:TrackPointExtension>
            <ns3:hr>143</ns3:hr>
            <ns3:cad>42</ns3:cad>
          </ns3:TrackPointExtension>
        </extensions>
      </trkpt>
      <trkpt lat="45.26750248856842517852783203125" lon="-71.1803372763097286224365234375">
        <ele>539.4000244140625</ele>
        <time>2026-08-22T03:46:54.000Z</time>
        <extensions>
          <ns3:TrackPointExtension>
            <ns3:hr>144</ns3:hr>
            <ns3:cad>82</ns3:cad>
          </ns3:TrackPointExtension>
        </extensions>
      </trkpt>
      <trkpt lat="45.26750030927360057830810546875" lon="-71.18036694824695587158203125">
        <ele>539.5999755859375</ele>
        <time>2026-08-22T03:46:55.000Z</time>
        <extensions>
          <ns3:TrackPointExtension>
            <ns3:hr>144</ns3:hr>
            <ns3:cad>82</ns3:cad>
          </ns3:TrackPointExtension>
        </extensions>
      </trkpt>
      <trkpt lat="45.26750198565423488616943359375" lon="-71.18039318360388278961181640625">
        <ele>539.5999755859375</ele>
        <time>2026-08-22T03:46:56.000Z</time>
        <extensions>
          <ns3:TrackPointExtension>
            <ns3:hr>145</ns3:hr>
            <ns3:cad>82</ns3:cad>
          </ns3:TrackPointExtension>
        </extensions>
      </trkpt>
      <trkpt lat="45.267498381435871124267578125" lon="-71.180416233837604522705078125">
        <ele>539.79998779296875</ele>
        <time>2026-08-22T03:46:57.000Z</time>
        <extensions>
          <ns3:TrackPointExtension>
            <ns3:hr>145</ns3:hr>
            <ns3:cad>82</ns3:cad>
          </ns3:TrackPointExtension>
        </extensions>
      </trkpt>
      <trkpt lat="45.26749528013169765472412109375" lon="-71.18044205009937286376953125">
        <ele>539.79998779296875</ele>
        <time>2026-08-22T03:46:58.000Z</time>
        <extensions>
          <ns3:TrackPointExtension>
            <ns3:hr>146</ns3:hr>
            <ns3:cad>82</ns3:cad>
          </ns3:TrackPointExtension>
        </extensions>
      </trkpt>
      <trkpt lat="45.26749662123620510101318359375" lon="-71.180470883846282958984375">
        <ele>540</ele>
        <time>2026-08-22T03:46:59.000Z</time>
        <extensions>
          <ns3:TrackPointExtension>
            <ns3:hr>146</ns3:hr>
            <ns3:cad>82</ns3:cad>
          </ns3:TrackPointExtension>
        </extensions>
      </trkpt>
      <trkpt lat="45.26749561540782451629638671875" lon="-71.18049259297549724578857421875">
        <ele>540</ele>
        <time>2026-08-22T03:47:00.000Z</time>
        <extensions>
          <ns3:TrackPointExtension>
            <ns3:hr>146</ns3:hr>
            <ns3:cad>82</ns3:cad>
          </ns3:TrackPointExtension>
        </extensions>
      </trkpt>
      <trkpt lat="45.26749310083687305450439453125" lon="-71.18051656521856784820556640625">
        <ele>540.20001220703125</ele>
        <time>2026-08-22T03:47:01.000Z</time>
        <extensions>
          <ns3:TrackPointExtension>
            <ns3:hr>145</ns3:hr>
            <ns3:cad>59</ns3:cad>
          </ns3:TrackPointExtension>
        </extensions>
      </trkpt>
      <trkpt lat="45.2674871496856212615966796875" lon="-71.1805397830903530120849609375">
        <ele>540.4000244140625</ele>
        <time>2026-08-22T03:47:02.000Z</time>
        <extensions>
          <ns3:TrackPointExtension>
            <ns3:hr>145</ns3:hr>
            <ns3:cad>59</ns3:cad>
          </ns3:TrackPointExtension>
        </extensions>
      </trkpt>
      <trkpt lat="45.26748421601951122283935546875" lon="-71.1805602349340915679931640625">
        <ele>540.4000244140625</ele>
        <time>2026-08-22T03:47:03.000Z</time>
        <extensions>
          <ns3:TrackPointExtension>
            <ns3:hr>145</ns3:hr>
            <ns3:cad>59</ns3:cad>
          </ns3:TrackPointExtension>
        </extensions>
      </trkpt>
      <trkpt lat="45.26748220436275005340576171875" lon="-71.1805833689868450164794921875">
        <ele>540.5999755859375</ele>
        <time>2026-08-22T03:47:04.000Z</time>
        <extensions>
          <ns3:TrackPointExtension>
            <ns3:hr>145</ns3:hr>
            <ns3:cad>58</ns3:cad>
          </ns3:TrackPointExtension>
        </extensions>
      </trkpt>
      <trkpt lat="45.26748237200081348419189453125" lon="-71.1806101910769939422607421875">
        <ele>540.5999755859375</ele>
        <time>2026-08-22T03:47:05.000Z</time>
        <extensions>
          <ns3:TrackPointExtension>
            <ns3:hr>145</ns3:hr>
            <ns3:cad>58</ns3:cad>
          </ns3:TrackPointExtension>
        </extensions>
      </trkpt>
      <trkpt lat="45.26747818104922771453857421875" lon="-71.18063114583492279052734375">
        <ele>540.79998779296875</ele>
        <time>2026-08-22T03:47:06.000Z</time>
        <extensions>
          <ns3:TrackPointExtension>
            <ns3:hr>145</ns3:hr>
            <ns3:cad>57</ns3:cad>
          </ns3:TrackPointExtension>
        </extensions>
      </trkpt>
      <trkpt lat="45.267477594316005706787109375" lon="-71.180653609335422515869140625">
        <ele>540.79998779296875</ele>
        <time>2026-08-22T03:47:07.000Z</time>
        <extensions>
          <ns3:TrackPointExtension>
            <ns3:hr>145</ns3:hr>
            <ns3:cad>57</ns3:cad>
          </ns3:TrackPointExtension>
        </extensions>
      </trkpt>
      <trkpt lat="45.26747751049697399139404296875" lon="-71.1806782521307468414306640625">
        <ele>540.79998779296875</ele>
        <time>2026-08-22T03:47:08.000Z</time>
        <extensions>
          <ns3:TrackPointExtension>
            <ns3:hr>144</ns3:hr>
            <ns3:cad>58</ns3:cad>
          </ns3:TrackPointExtension>
        </extensions>
      </trkpt>
      <trkpt lat="45.2674794383347034454345703125" lon="-71.180699206888675689697265625">
        <ele>541</ele>
        <time>2026-08-22T03:47:09.000Z</time>
        <extensions>
          <ns3:TrackPointExtension>
            <ns3:hr>144</ns3:hr>
            <ns3:cad>58</ns3:cad>
          </ns3:TrackPointExtension>
        </extensions>
      </trkpt>
      <trkpt lat="45.26747860014438629150390625" lon="-71.180718652904033660888671875">
        <ele>541</ele>
        <time>2026-08-22T03:47:10.000Z</time>
        <extensions>
          <ns3:TrackPointExtension>
            <ns3:hr>144</ns3:hr>
            <ns3:cad>58</ns3:cad>
          </ns3:TrackPointExtension>
        </extensions>
      </trkpt>
      <trkpt lat="45.26748002506792545318603515625" lon="-71.180741786956787109375">
        <ele>541.20001220703125</ele>
        <time>2026-08-22T03:47:11.000Z</time>
        <extensions>
          <ns3:TrackPointExtension>
            <ns3:hr>143</ns3:hr>
            <ns3:cad>57</ns3:cad>
          </ns3:TrackPointExtension>
        </extensions>
      </trkpt>
      <trkpt lat="45.26747935451567173004150390625" lon="-71.18076450191438198089599609375">
        <ele>541.20001220703125</ele>
        <time>2026-08-22T03:47:12.000Z</time>
        <extensions>
          <ns3:TrackPointExtension>
            <ns3:hr>144</ns3:hr>
            <ns3:cad>57</ns3:cad>
          </ns3:TrackPointExtension>
        </extensions>
      </trkpt>
      <trkpt lat="45.26747767813503742218017578125" lon="-71.18078361265361309051513671875">
        <ele>541.20001220703125</ele>
        <time>2026-08-22T03:47:13.000Z</time>
        <extensions>
          <ns3:TrackPointExtension>
            <ns3:hr>144</ns3:hr>
            <ns3:cad>56</ns3:cad>
          </ns3:TrackPointExtension>
        </extensions>
      </trkpt>
      <trkpt lat="45.267476923763751983642578125" lon="-71.18080154992640018463134765625">
        <ele>541.4000244140625</ele>
        <time>2026-08-22T03:47:14.000Z</time>
        <extensions>
          <ns3:TrackPointExtension>
            <ns3:hr>143</ns3:hr>
            <ns3:cad>56</ns3:cad>
          </ns3:TrackPointExtension>
        </extensions>
      </trkpt>
      <trkpt lat="45.26747751049697399139404296875" lon="-71.1808182299137115478515625">
        <ele>541.4000244140625</ele>
        <time>2026-08-22T03:47:15.000Z</time>
        <extensions>
          <ns3:TrackPointExtension>
            <ns3:hr>144</ns3:hr>
            <ns3:cad>56</ns3:cad>
          </ns3:TrackPointExtension>
        </extensions>
      </trkpt>
      <trkpt lat="45.267477929592132568359375" lon="-71.1808378435671329498291015625">
        <ele>541.5999755859375</ele>
        <time>2026-08-22T03:47:16.000Z</time>
        <extensions>
          <ns3:TrackPointExtension>
            <ns3:hr>144</ns3:hr>
            <ns3:cad>56</ns3:cad>
          </ns3:TrackPointExtension>
        </extensions>
      </trkpt>
      <trkpt lat="45.26747700758278369903564453125" lon="-71.1808532662689685821533203125">
        <ele>541.79998779296875</ele>
        <time>2026-08-22T03:47:17.000Z</time>
        <extensions>
          <ns3:TrackPointExtension>
            <ns3:hr>143</ns3:hr>
            <ns3:cad>57</ns3:cad>
          </ns3:TrackPointExtension>
        </extensions>
      </trkpt>
      <trkpt lat="45.26747901923954486846923828125" lon="-71.1808770708739757537841796875">
        <ele>542</ele>
        <time>2026-08-22T03:47:18.000Z</time>
        <extensions>
          <ns3:TrackPointExtension>
            <ns3:hr>143</ns3:hr>
            <ns3:cad>57</ns3:cad>
          </ns3:TrackPointExtension>
        </extensions>
      </trkpt>
      <trkpt lat="45.2674814499914646148681640625" lon="-71.18089810945093631744384765625">
        <ele>542.20001220703125</ele>
        <time>2026-08-22T03:47:19.000Z</time>
        <extensions>
          <ns3:TrackPointExtension>
            <ns3:hr>143</ns3:hr>
            <ns3:cad>57</ns3:cad>
          </ns3:TrackPointExtension>
        </extensions>
      </trkpt>
      <trkpt lat="45.2674834616482257843017578125" lon="-71.1809287033975124359130859375">
        <ele>542.4000244140625</ele>
        <time>2026-08-22T03:47:20.000Z</time>
        <extensions>
          <ns3:TrackPointExtension>
            <ns3:hr>143</ns3:hr>
            <ns3:cad>0</ns3:cad>
          </ns3:TrackPointExtension>
        </extensions>
      </trkpt>
      <trkpt lat="45.26748664677143096923828125" lon="-71.18096181191504001617431640625">
        <ele>542.5999755859375</ele>
        <time>2026-08-22T03:47:21.000Z</time>
        <extensions>
          <ns3:TrackPointExtension>
            <ns3:hr>143</ns3:hr>
            <ns3:cad>0</ns3:cad>
          </ns3:TrackPointExtension>
        </extensions>
      </trkpt>
      <trkpt lat="45.267488993704319000244140625" lon="-71.18098863400518894195556640625">
        <ele>542.79998779296875</ele>
        <time>2026-08-22T03:47:22.000Z</time>
        <extensions>
          <ns3:TrackPointExtension>
            <ns3:hr>142</ns3:hr>
            <ns3:cad>0</ns3:cad>
          </ns3:TrackPointExtension>
        </extensions>
      </trkpt>
      <trkpt lat="45.2674905024468898773193359375" lon="-71.18102232925593852996826171875">
        <ele>542.79998779296875</ele>
        <time>2026-08-22T03:47:23.000Z</time>
        <extensions>
          <ns3:TrackPointExtension>
            <ns3:hr>142</ns3:hr>
            <ns3:cad>78</ns3:cad>
          </ns3:TrackPointExtension>
        </extensions>
      </trkpt>
      <trkpt lat="45.267492346465587615966796875" lon="-71.18105049245059490203857421875">
        <ele>542.79998779296875</ele>
        <time>2026-08-22T03:47:24.000Z</time>
        <extensions>
          <ns3:TrackPointExtension>
            <ns3:hr>143</ns3:hr>
            <ns3:cad>78</ns3:cad>
          </ns3:TrackPointExtension>
        </extensions>
      </trkpt>
      <trkpt lat="45.2674921788275241851806640625" lon="-71.1810743808746337890625">
        <ele>542.79998779296875</ele>
        <time>2026-08-22T03:47:25.000Z</time>
        <extensions>
          <ns3:TrackPointExtension>
            <ns3:hr>143</ns3:hr>
            <ns3:cad>78</ns3:cad>
          </ns3:TrackPointExtension>
        </extensions>
      </trkpt>
      <trkpt lat="45.26749276556074619293212890625" lon="-71.18110799230635166168212890625">
        <ele>543</ele>
        <time>2026-08-22T03:47:26.000Z</time>
        <extensions>
          <ns3:TrackPointExtension>
            <ns3:hr>143</ns3:hr>
            <ns3:cad>78</ns3:cad>
          </ns3:TrackPointExtension>
        </extensions>
      </trkpt>
      <trkpt lat="45.2674901671707630157470703125" lon="-71.18114084936678409576416015625">
        <ele>543</ele>
        <time>2026-08-22T03:47:27.000Z</time>
        <extensions>
          <ns3:TrackPointExtension>
            <ns3:hr>143</ns3:hr>
            <ns3:cad>78</ns3:cad>
          </ns3:TrackPointExtension>
        </extensions>
      </trkpt>
      <trkpt lat="45.2674931846559047698974609375" lon="-71.18116532452404499053955078125">
        <ele>543</ele>
        <time>2026-08-22T03:47:28.000Z</time>
        <extensions>
          <ns3:TrackPointExtension>
            <ns3:hr>144</ns3:hr>
            <ns3:cad>78</ns3:cad>
          </ns3:TrackPointExtension>
        </extensions>
      </trkpt>
      <trkpt lat="45.26749075390398502349853515625" lon="-71.18120002560317516326904296875">
        <ele>543</ele>
        <time>2026-08-22T03:47:29.000Z</time>
        <extensions>
          <ns3:TrackPointExtension>
            <ns3:hr>144</ns3:hr>
            <ns3:cad>79</ns3:cad>
          </ns3:TrackPointExtension>
        </extensions>
      </trkpt>
      <trkpt lat="45.2674891613423824310302734375" lon="-71.181232295930385589599609375">
        <ele>543.20001220703125</ele>
        <time>2026-08-22T03:47:30.000Z</time>
        <extensions>
          <ns3:TrackPointExtension>
            <ns3:hr>144</ns3:hr>
            <ns3:cad>81</ns3:cad>
          </ns3:TrackPointExtension>
        </extensions>
      </trkpt>
      <trkpt lat="45.2674915082752704620361328125" lon="-71.18126004002988338470458984375">
        <ele>543.20001220703125</ele>
        <time>2026-08-22T03:47:31.000Z</time>
        <extensions>
          <ns3:TrackPointExtension>
            <ns3:hr>144</ns3:hr>
            <ns3:cad>81</ns3:cad>
          </ns3:TrackPointExtension>
        </extensions>
      </trkpt>
      <trkpt lat="45.26749108918011188507080078125" lon="-71.1812929809093475341796875">
        <ele>543.20001220703125</ele>
        <time>2026-08-22T03:47:32.000Z</time>
        <extensions>
          <ns3:TrackPointExtension>
            <ns3:hr>143</ns3:hr>
            <ns3:cad>81</ns3:cad>
          </ns3:TrackPointExtension>
        </extensions>
      </trkpt>
      <trkpt lat="45.2674915082752704620361328125" lon="-71.181327514350414276123046875">
        <ele>543.4000244140625</ele>
        <time>2026-08-22T03:47:33.000Z</time>
        <extensions>
          <ns3:TrackPointExtension>
            <ns3:hr>143</ns3:hr>
            <ns3:cad>81</ns3:cad>
          </ns3:TrackPointExtension>
        </extensions>
      </trkpt>
      <trkpt lat="45.26749393902719020843505859375" lon="-71.18135475553572177886962890625">
        <ele>543.4000244140625</ele>
        <time>2026-08-22T03:47:34.000Z</time>
        <extensions>
          <ns3:TrackPointExtension>
            <ns3:hr>144</ns3:hr>
            <ns3:cad>81</ns3:cad>
          </ns3:TrackPointExtension>
        </extensions>
      </trkpt>
      <trkpt lat="45.26749544776976108551025390625" lon="-71.18138727732002735137939453125">
        <ele>543.4000244140625</ele>
        <time>2026-08-22T03:47:35.000Z</time>
        <extensions>
          <ns3:TrackPointExtension>
            <ns3:hr>144</ns3:hr>
            <ns3:cad>81</ns3:cad>
          </ns3:TrackPointExtension>
        </extensions>
      </trkpt>
      <trkpt lat="45.26749662123620510101318359375" lon="-71.18141845799982547760009765625">
        <ele>543.4000244140625</ele>
        <time>2026-08-22T03:47:36.000Z</time>
        <extensions>
          <ns3:TrackPointExtension>
            <ns3:hr>144</ns3:hr>
            <ns3:cad>81</ns3:cad>
          </ns3:TrackPointExtension>
        </extensions>
      </trkpt>
      <trkpt lat="45.26749779470264911651611328125" lon="-71.1814450286328792572021484375">
        <ele>543.4000244140625</ele>
        <time>2026-08-22T03:47:37.000Z</time>
        <extensions>
          <ns3:TrackPointExtension>
            <ns3:hr>144</ns3:hr>
            <ns3:cad>81</ns3:cad>
          </ns3:TrackPointExtension>
        </extensions>
      </trkpt>
      <trkpt lat="45.2674980461597442626953125" lon="-71.18147595785558223724365234375">
        <ele>543.5999755859375</ele>
        <time>2026-08-22T03:47:38.000Z</time>
        <extensions>
          <ns3:TrackPointExtension>
            <ns3:hr>144</ns3:hr>
            <ns3:cad>81</ns3:cad>
          </ns3:TrackPointExtension>
        </extensions>
      </trkpt>
      <trkpt lat="45.26749963872134685516357421875" lon="-71.18150596506893634796142578125">
        <ele>543.5999755859375</ele>
        <time>2026-08-22T03:47:39.000Z</time>
        <extensions>
          <ns3:TrackPointExtension>
            <ns3:hr>144</ns3:hr>
            <ns3:cad>81</ns3:cad>
          </ns3:TrackPointExtension>
        </extensions>
      </trkpt>
      <trkpt lat="45.26750131510198116302490234375" lon="-71.1815372295677661895751953125">
        <ele>543.5999755859375</ele>
        <time>2026-08-22T03:47:40.000Z</time>
        <extensions>
          <ns3:TrackPointExtension>
            <ns3:hr>144</ns3:hr>
            <ns3:cad>81</ns3:cad>
          </ns3:TrackPointExtension>
        </extensions>
      </trkpt>
      <trkpt lat="45.2675045840442180633544921875" lon="-71.181570254266262054443359375">
        <ele>543.79998779296875</ele>
        <time>2026-08-22T03:47:41.000Z</time>
        <extensions>
          <ns3:TrackPointExtension>
            <ns3:hr>144</ns3:hr>
            <ns3:cad>81</ns3:cad>
          </ns3:TrackPointExtension>
        </extensions>
      </trkpt>
      <trkpt lat="45.26750768534839153289794921875" lon="-71.18160604499280452728271484375">
        <ele>543.79998779296875</ele>
        <time>2026-08-22T03:47:42.000Z</time>
        <extensions>
          <ns3:TrackPointExtension>
            <ns3:hr>143</ns3:hr>
            <ns3:cad>81</ns3:cad>
          </ns3:TrackPointExtension>
        </extensions>
      </trkpt>
      <trkpt lat="45.26751003228127956390380859375" lon="-71.18163655512034893035888671875">
        <ele>544</ele>
        <time>2026-08-22T03:47:43.000Z</time>
        <extensions>
          <ns3:TrackPointExtension>
            <ns3:hr>144</ns3:hr>
            <ns3:cad>81</ns3:cad>
          </ns3:TrackPointExtension>
        </extensions>
      </trkpt>
      <trkpt lat="45.267513133585453033447265625" lon="-71.18166991509497165679931640625">
        <ele>544</ele>
        <time>2026-08-22T03:47:44.000Z</time>
        <extensions>
          <ns3:TrackPointExtension>
            <ns3:hr>144</ns3:hr>
            <ns3:cad>81</ns3:cad>
          </ns3:TrackPointExtension>
        </extensions>
      </trkpt>
      <trkpt lat="45.26751221157610416412353515625" lon="-71.18171031586825847625732421875">
        <ele>544.20001220703125</ele>
        <time>2026-08-22T03:47:45.000Z</time>
        <extensions>
          <ns3:TrackPointExtension>
            <ns3:hr>143</ns3:hr>
            <ns3:cad>81</ns3:cad>
          </ns3:TrackPointExtension>
        </extensions>
      </trkpt>
      <trkpt lat="45.2675168216228485107421875" lon="-71.18175105191767215728759765625">
        <ele>544.20001220703125</ele>
        <time>2026-08-22T03:47:46.000Z</time>
        <extensions>
          <ns3:TrackPointExtension>
            <ns3:hr>143</ns3:hr>
            <ns3:cad>80</ns3:cad>
          </ns3:TrackPointExtension>
        </extensions>
      </trkpt>
      <trkpt lat="45.267521180212497711181640625" lon="-71.1817849986255168914794921875">
        <ele>544.20001220703125</ele>
        <time>2026-08-22T03:47:47.000Z</time>
        <extensions>
          <ns3:TrackPointExtension>
            <ns3:hr>143</ns3:hr>
            <ns3:cad>80</ns3:cad>
          </ns3:TrackPointExtension>
        </extensions>
      </trkpt>
      <trkpt lat="45.26751707307994365692138671875" lon="-71.18182514794170856475830078125">
        <ele>544.4000244140625</ele>
        <time>2026-08-22T03:47:48.000Z</time>
        <extensions>
          <ns3:TrackPointExtension>
            <ns3:hr>143</ns3:hr>
            <ns3:cad>80</ns3:cad>
          </ns3:TrackPointExtension>
        </extensions>
      </trkpt>
      <trkpt lat="45.26751807890832424163818359375" lon="-71.1818621121346950531005859375">
        <ele>544.4000244140625</ele>
        <time>2026-08-22T03:47:49.000Z</time>
        <extensions>
          <ns3:TrackPointExtension>
            <ns3:hr>143</ns3:hr>
            <ns3:cad>84</ns3:cad>
          </ns3:TrackPointExtension>
        </extensions>
      </trkpt>
      <trkpt lat="45.26752042584121227264404296875" lon="-71.18189471773803234100341796875">
        <ele>544.5999755859375</ele>
        <time>2026-08-22T03:47:50.000Z</time>
        <extensions>
          <ns3:TrackPointExtension>
            <ns3:hr>143</ns3:hr>
            <ns3:cad>84</ns3:cad>
          </ns3:TrackPointExtension>
        </extensions>
      </trkpt>
      <trkpt lat="45.26751908473670482635498046875" lon="-71.18193461559712886810302734375">
        <ele>544.5999755859375</ele>
        <time>2026-08-22T03:47:51.000Z</time>
        <extensions>
          <ns3:TrackPointExtension>
            <ns3:hr>143</ns3:hr>
            <ns3:cad>85</ns3:cad>
          </ns3:TrackPointExtension>
        </extensions>
      </trkpt>
      <trkpt lat="45.267521850764751434326171875" lon="-71.18197216652333736419677734375">
        <ele>544.5999755859375</ele>
        <time>2026-08-22T03:47:52.000Z</time>
        <extensions>
          <ns3:TrackPointExtension>
            <ns3:hr>143</ns3:hr>
            <ns3:cad>85</ns3:cad>
          </ns3:TrackPointExtension>
        </extensions>
      </trkpt>
      <trkpt lat="45.2675223536789417266845703125" lon="-71.18201156146824359893798828125">
        <ele>544.79998779296875</ele>
        <time>2026-08-22T03:47:53.000Z</time>
        <extensions>
          <ns3:TrackPointExtension>
            <ns3:hr>142</ns3:hr>
            <ns3:cad>84</ns3:cad>
          </ns3:TrackPointExtension>
        </extensions>
      </trkpt>
      <trkpt lat="45.2675230242311954498291015625" lon="-71.18204089812934398651123046875">
        <ele>544.79998779296875</ele>
        <time>2026-08-22T03:47:54.000Z</time>
        <extensions>
          <ns3:TrackPointExtension>
            <ns3:hr>143</ns3:hr>
            <ns3:cad>84</ns3:cad>
          </ns3:TrackPointExtension>
        </extensions>
      </trkpt>
      <trkpt lat="45.26752076111733913421630859375" lon="-71.18207660503685474395751953125">
        <ele>544.79998779296875</ele>
        <time>2026-08-22T03:47:55.000Z</time>
        <extensions>
          <ns3:TrackPointExtension>
            <ns3:hr>143</ns3:hr>
            <ns3:cad>84</ns3:cad>
          </ns3:TrackPointExtension>
        </extensions>
      </trkpt>
      <trkpt lat="45.267521850764751434326171875" lon="-71.18210996501147747039794921875">
        <ele>545</ele>
        <time>2026-08-22T03:47:56.000Z</time>
        <extensions>
          <ns3:TrackPointExtension>
            <ns3:hr>144</ns3:hr>
            <ns3:cad>84</ns3:cad>
          </ns3:TrackPointExtension>
        </extensions>
      </trkpt>
      <trkpt lat="45.26752243749797344207763671875" lon="-71.18214114569127559661865234375">
        <ele>545</ele>
        <time>2026-08-22T03:47:57.000Z</time>
        <extensions>
          <ns3:TrackPointExtension>
            <ns3:hr>144</ns3:hr>
            <ns3:cad>84</ns3:cad>
          </ns3:TrackPointExtension>
        </extensions>
      </trkpt>
      <trkpt lat="45.26752361096441745758056640625" lon="-71.18217743933200836181640625">
        <ele>545.20001220703125</ele>
        <time>2026-08-22T03:47:58.000Z</time>
        <extensions>
          <ns3:TrackPointExtension>
            <ns3:hr>144</ns3:hr>
            <ns3:cad>84</ns3:cad>
          </ns3:TrackPointExtension>
        </extensions>
      </trkpt>
      <trkpt lat="45.267525874078273773193359375" lon="-71.1822116374969482421875">
        <ele>545.20001220703125</ele>
        <time>2026-08-22T03:47:59.000Z</time>
        <extensions>
          <ns3:TrackPointExtension>
            <ns3:hr>144</ns3:hr>
            <ns3:cad>84</ns3:cad>
          </ns3:TrackPointExtension>
        </extensions>
      </trkpt>
      <trkpt lat="45.26752662844955921173095703125" lon="-71.182241477072238922119140625">
        <ele>545.20001220703125</ele>
        <time>2026-08-22T03:48:00.000Z</time>
        <extensions>
          <ns3:TrackPointExtension>
            <ns3:hr>144</ns3:hr>
            <ns3:cad>83</ns3:cad>
          </ns3:TrackPointExtension>
        </extensions>
      </trkpt>
      <trkpt lat="45.26752411387860774993896484375" lon="-71.1822760105133056640625">
        <ele>545.20001220703125</ele>
        <time>2026-08-22T03:48:01.000Z</time>
        <extensions>
          <ns3:TrackPointExtension>
            <ns3:hr>144</ns3:hr>
            <ns3:cad>83</ns3:cad>
          </ns3:TrackPointExtension>
        </extensions>
      </trkpt>
      <trkpt lat="45.26752159930765628814697265625" lon="-71.18231046013534069061279296875">
        <ele>545.20001220703125</ele>
        <time>2026-08-22T03:48:02.000Z</time>
        <extensions>
          <ns3:TrackPointExtension>
            <ns3:hr>144</ns3:hr>
            <ns3:cad>83</ns3:cad>
          </ns3:TrackPointExtension>
        </extensions>
      </trkpt>
      <trkpt lat="45.2675221860408782958984375" lon="-71.18234331719577312469482421875">
        <ele>545.4000244140625</ele>
        <time>2026-08-22T03:48:03.000Z</time>
        <extensions>
          <ns3:TrackPointExtension>
            <ns3:hr>144</ns3:hr>
            <ns3:cad>83</ns3:cad>
          </ns3:TrackPointExtension>
        </extensions>
      </trkpt>
      <trkpt lat="45.26752294041216373443603515625" lon="-71.18238002993166446685791015625">
        <ele>545.4000244140625</ele>
        <time>2026-08-22T03:48:04.000Z</time>
        <extensions>
          <ns3:TrackPointExtension>
            <ns3:hr>145</ns3:hr>
            <ns3:cad>83</ns3:cad>
          </ns3:TrackPointExtension>
        </extensions>
      </trkpt>
      <trkpt lat="45.26752344332635402679443359375" lon="-71.18241372518241405487060546875">
        <ele>545.4000244140625</ele>
        <time>2026-08-22T03:48:05.000Z</time>
        <extensions>
          <ns3:TrackPointExtension>
            <ns3:hr>145</ns3:hr>
            <ns3:cad>82</ns3:cad>
          </ns3:TrackPointExtension>
        </extensions>
      </trkpt>
      <trkpt lat="45.267523862421512603759765625" lon="-71.18244524113833904266357421875">
        <ele>545.5999755859375</ele>
        <time>2026-08-22T03:48:06.000Z</time>
        <extensions>
          <ns3:TrackPointExtension>
            <ns3:hr>145</ns3:hr>
            <ns3:cad>82</ns3:cad>
          </ns3:TrackPointExtension>
        </extensions>
      </trkpt>
      <trkpt lat="45.26752294041216373443603515625" lon="-71.18247658945620059967041015625">
        <ele>545.5999755859375</ele>
        <time>2026-08-22T03:48:07.000Z</time>
        <extensions>
          <ns3:TrackPointExtension>
            <ns3:hr>145</ns3:hr>
            <ns3:cad>82</ns3:cad>
          </ns3:TrackPointExtension>
        </extensions>
      </trkpt>
      <trkpt lat="45.2675236947834491729736328125" lon="-71.18250860832631587982177734375">
        <ele>545.79998779296875</ele>
        <time>2026-08-22T03:48:08.000Z</time>
        <extensions>
          <ns3:TrackPointExtension>
            <ns3:hr>145</ns3:hr>
            <ns3:cad>81</ns3:cad>
          </ns3:TrackPointExtension>
        </extensions>
      </trkpt>
      <trkpt lat="45.2675263769924640655517578125" lon="-71.18253828026354312896728515625">
        <ele>545.79998779296875</ele>
        <time>2026-08-22T03:48:09.000Z</time>
        <extensions>
          <ns3:TrackPointExtension>
            <ns3:hr>144</ns3:hr>
            <ns3:cad>81</ns3:cad>
          </ns3:TrackPointExtension>
        </extensions>
      </trkpt>
      <trkpt lat="45.2675273828208446502685546875" lon="-71.18257247842848300933837890625">
        <ele>545.79998779296875</ele>
        <time>2026-08-22T03:48:10.000Z</time>
        <extensions>
          <ns3:TrackPointExtension>
            <ns3:hr>144</ns3:hr>
            <ns3:cad>81</ns3:cad>
          </ns3:TrackPointExtension>
        </extensions>
      </trkpt>
      <trkpt lat="45.26752612553536891937255859375" lon="-71.1825997196137905120849609375">
        <ele>546</ele>
        <time>2026-08-22T03:48:11.000Z</time>
        <extensions>
          <ns3:TrackPointExtension>
            <ns3:hr>145</ns3:hr>
            <ns3:cad>81</ns3:cad>
          </ns3:TrackPointExtension>
        </extensions>
      </trkpt>
      <trkpt lat="45.26752419769763946533203125" lon="-71.1826355941593647003173828125">
        <ele>546</ele>
        <time>2026-08-22T03:48:12.000Z</time>
        <extensions>
          <ns3:TrackPointExtension>
            <ns3:hr>145</ns3:hr>
            <ns3:cad>81</ns3:cad>
          </ns3:TrackPointExtension>
        </extensions>
      </trkpt>
      <trkpt lat="45.26752612553536891937255859375" lon="-71.182671301066875457763671875">
        <ele>546</ele>
        <time>2026-08-22T03:48:13.000Z</time>
        <extensions>
          <ns3:TrackPointExtension>
            <ns3:hr>145</ns3:hr>
            <ns3:cad>81</ns3:cad>
          </ns3:TrackPointExtension>
        </extensions>
      </trkpt>
      <trkpt lat="45.26752310805022716522216796875" lon="-71.18270072154700756072998046875">
        <ele>546.20001220703125</ele>
        <time>2026-08-22T03:48:14.000Z</time>
        <extensions>
          <ns3:TrackPointExtension>
            <ns3:hr>146</ns3:hr>
            <ns3:cad>81</ns3:cad>
          </ns3:TrackPointExtension>
        </extensions>
      </trkpt>
      <trkpt lat="45.2675236947834491729736328125" lon="-71.182732321321964263916015625">
        <ele>546.4000244140625</ele>
        <time>2026-08-22T03:48:15.000Z</time>
        <extensions>
          <ns3:TrackPointExtension>
            <ns3:hr>146</ns3:hr>
            <ns3:cad>81</ns3:cad>
          </ns3:TrackPointExtension>
        </extensions>
      </trkpt>
      <trkpt lat="45.26752629317343235015869140625" lon="-71.18276375345885753631591796875">
        <ele>546.4000244140625</ele>
        <time>2026-08-22T03:48:16.000Z</time>
        <extensions>
          <ns3:TrackPointExtension>
            <ns3:hr>146</ns3:hr>
            <ns3:cad>81</ns3:cad>
          </ns3:TrackPointExtension>
        </extensions>
      </trkpt>
      <trkpt lat="45.26752478443086147308349609375" lon="-71.18279895745217800140380859375">
        <ele>546.5999755859375</ele>
        <time>2026-08-22T03:48:17.000Z</time>
        <extensions>
          <ns3:TrackPointExtension>
            <ns3:hr>146</ns3:hr>
            <ns3:cad>41</ns3:cad>
          </ns3:TrackPointExtension>
        </extensions>
      </trkpt>
      <trkpt lat="45.26752444915473461151123046875" lon="-71.18283282034099102020263671875">
        <ele>546.5999755859375</ele>
        <time>2026-08-22T03:48:18.000Z</time>
        <extensions>
          <ns3:TrackPointExtension>
            <ns3:hr>145</ns3:hr>
            <ns3:cad>41</ns3:cad>
          </ns3:TrackPointExtension>
        </extensions>
      </trkpt>
      <trkpt lat="45.2675297297537326812744140625" lon="-71.18285578675568103790283203125">
        <ele>546.79998779296875</ele>
        <time>2026-08-22T03:48:19.000Z</time>
        <extensions>
          <ns3:TrackPointExtension>
            <ns3:hr>145</ns3:hr>
            <ns3:cad>41</ns3:cad>
          </ns3:TrackPointExtension>
        </extensions>
      </trkpt>
      <trkpt lat="45.2675327472388744354248046875" lon="-71.182890236377716064453125">
        <ele>546.79998779296875</ele>
        <time>2026-08-22T03:48:20.000Z</time>
        <extensions>
          <ns3:TrackPointExtension>
            <ns3:hr>145</ns3:hr>
            <ns3:cad>41</ns3:cad>
          </ns3:TrackPointExtension>
        </extensions>
      </trkpt>
      <trkpt lat="45.26753366924822330474853515625" lon="-71.18292300961911678314208984375">
        <ele>546.79998779296875</ele>
        <time>2026-08-22T03:48:21.000Z</time>
        <extensions>
          <ns3:TrackPointExtension>
            <ns3:hr>144</ns3:hr>
            <ns3:cad>41</ns3:cad>
          </ns3:TrackPointExtension>
        </extensions>
      </trkpt>
      <trkpt lat="45.2675293944776058197021484375" lon="-71.18294815532863140106201171875">
        <ele>547</ele>
        <time>2026-08-22T03:48:22.000Z</time>
        <extensions>
          <ns3:TrackPointExtension>
            <ns3:hr>144</ns3:hr>
            <ns3:cad>41</ns3:cad>
          </ns3:TrackPointExtension>
        </extensions>
      </trkpt>
      <trkpt lat="45.2675302326679229736328125" lon="-71.18298034183681011199951171875">
        <ele>547</ele>
        <time>2026-08-22T03:48:23.000Z</time>
        <extensions>
          <ns3:TrackPointExtension>
            <ns3:hr>144</ns3:hr>
            <ns3:cad>41</ns3:cad>
          </ns3:TrackPointExtension>
        </extensions>
      </trkpt>
      <trkpt lat="45.26753350161015987396240234375" lon="-71.183013282716274261474609375">
        <ele>547.20001220703125</ele>
        <time>2026-08-22T03:48:24.000Z</time>
        <extensions>
          <ns3:TrackPointExtension>
            <ns3:hr>144</ns3:hr>
            <ns3:cad>41</ns3:cad>
          </ns3:TrackPointExtension>
        </extensions>
      </trkpt>
      <trkpt lat="45.26753618381917476654052734375" lon="-71.183041445910930633544921875">
        <ele>547.20001220703125</ele>
        <time>2026-08-22T03:48:25.000Z</time>
        <extensions>
          <ns3:TrackPointExtension>
            <ns3:hr>144</ns3:hr>
            <ns3:cad>41</ns3:cad>
          </ns3:TrackPointExtension>
        </extensions>
      </trkpt>
      <trkpt lat="45.26753936894237995147705078125" lon="-71.18307103402912616729736328125">
        <ele>547.4000244140625</ele>
        <time>2026-08-22T03:48:26.000Z</time>
        <extensions>
          <ns3:TrackPointExtension>
            <ns3:hr>144</ns3:hr>
            <ns3:cad>41</ns3:cad>
          </ns3:TrackPointExtension>
        </extensions>
      </trkpt>
      <trkpt lat="45.267541296780109405517578125" lon="-71.18310816586017608642578125">
        <ele>547.4000244140625</ele>
        <time>2026-08-22T03:48:27.000Z</time>
        <extensions>
          <ns3:TrackPointExtension>
            <ns3:hr>144</ns3:hr>
            <ns3:cad>41</ns3:cad>
          </ns3:TrackPointExtension>
        </extensions>
      </trkpt>
      <trkpt lat="45.2675434760749340057373046875" lon="-71.18313523940742015838623046875">
        <ele>547.5999755859375</ele>
        <time>2026-08-22T03:48:28.000Z</time>
        <extensions>
          <ns3:TrackPointExtension>
            <ns3:hr>144</ns3:hr>
            <ns3:cad>41</ns3:cad>
          </ns3:TrackPointExtension>
        </extensions>
      </trkpt>
      <trkpt lat="45.26754708029329776763916015625" lon="-71.1831683479249477386474609375">
        <ele>547.79998779296875</ele>
        <time>2026-08-22T03:48:29.000Z</time>
        <extensions>
          <ns3:TrackPointExtension>
            <ns3:hr>145</ns3:hr>
            <ns3:cad>41</ns3:cad>
          </ns3:TrackPointExtension>
        </extensions>
      </trkpt>
      <trkpt lat="45.26754506863653659820556640625" lon="-71.18320405483245849609375">
        <ele>547.79998779296875</ele>
        <time>2026-08-22T03:48:30.000Z</time>
        <extensions>
          <ns3:TrackPointExtension>
            <ns3:hr>145</ns3:hr>
            <ns3:cad>41</ns3:cad>
          </ns3:TrackPointExtension>
        </extensions>
      </trkpt>
      <trkpt lat="45.26754967868328094482421875" lon="-71.18323557078838348388671875">
        <ele>547.79998779296875</ele>
        <time>2026-08-22T03:48:31.000Z</time>
        <extensions>
          <ns3:TrackPointExtension>
            <ns3:hr>145</ns3:hr>
            <ns3:cad>82</ns3:cad>
          </ns3:TrackPointExtension>
        </extensions>
      </trkpt>
      <trkpt lat="45.26754708029329776763916015625" lon="-71.18326398544013500213623046875">
        <ele>548</ele>
        <time>2026-08-22T03:48:32.000Z</time>
        <extensions>
          <ns3:TrackPointExtension>
            <ns3:hr>145</ns3:hr>
            <ns3:cad>82</ns3:cad>
          </ns3:TrackPointExtension>
        </extensions>
      </trkpt>
      <trkpt lat="45.267547331750392913818359375" lon="-71.18329835124313831329345703125">
        <ele>548</ele>
        <time>2026-08-22T03:48:33.000Z</time>
        <extensions>
          <ns3:TrackPointExtension>
            <ns3:hr>146</ns3:hr>
            <ns3:cad>40</ns3:cad>
          </ns3:TrackPointExtension>
        </extensions>
      </trkpt>
      <trkpt lat="45.26754590682685375213623046875" lon="-71.18333087302744388580322265625">
        <ele>548</ele>
        <time>2026-08-22T03:48:34.000Z</time>
        <extensions>
          <ns3:TrackPointExtension>
            <ns3:hr>146</ns3:hr>
            <ns3:cad>40</ns3:cad>
          </ns3:TrackPointExtension>
        </extensions>
      </trkpt>
      <trkpt lat="45.26754640974104404449462890625" lon="-71.18335819803178310394287109375">
        <ele>548.20001220703125</ele>
        <time>2026-08-22T03:48:35.000Z</time>
        <extensions>
          <ns3:TrackPointExtension>
            <ns3:hr>146</ns3:hr>
            <ns3:cad>40</ns3:cad>
          </ns3:TrackPointExtension>
        </extensions>
      </trkpt>
      <trkpt lat="45.2675463259220123291015625" lon="-71.18338988162577152252197265625">
        <ele>548.20001220703125</ele>
        <time>2026-08-22T03:48:36.000Z</time>
        <extensions>
          <ns3:TrackPointExtension>
            <ns3:hr>146</ns3:hr>
            <ns3:cad>82</ns3:cad>
          </ns3:TrackPointExtension>
        </extensions>
      </trkpt>
      <trkpt lat="45.2675488404929637908935546875" lon="-71.183420307934284210205078125">
        <ele>548.20001220703125</ele>
        <time>2026-08-22T03:48:37.000Z</time>
        <extensions>
          <ns3:TrackPointExtension>
            <ns3:hr>146</ns3:hr>
            <ns3:cad>82</ns3:cad>
          </ns3:TrackPointExtension>
        </extensions>
      </trkpt>
      <trkpt lat="45.26754724793136119842529296875" lon="-71.183445118367671966552734375">
        <ele>548.4000244140625</ele>
        <time>2026-08-22T03:48:38.000Z</time>
        <extensions>
          <ns3:TrackPointExtension>
            <ns3:hr>146</ns3:hr>
            <ns3:cad>82</ns3:cad>
          </ns3:TrackPointExtension>
        </extensions>
      </trkpt>
      <trkpt lat="45.2675478346645832061767578125" lon="-71.1834751255810260772705078125">
        <ele>548.4000244140625</ele>
        <time>2026-08-22T03:48:39.000Z</time>
        <extensions>
          <ns3:TrackPointExtension>
            <ns3:hr>146</ns3:hr>
            <ns3:cad>82</ns3:cad>
          </ns3:TrackPointExtension>
        </extensions>
      </trkpt>
      <trkpt lat="45.2675481699407100677490234375" lon="-71.1835042946040630340576171875">
        <ele>548.5999755859375</ele>
        <time>2026-08-22T03:48:40.000Z</time>
        <extensions>
          <ns3:TrackPointExtension>
            <ns3:hr>146</ns3:hr>
            <ns3:cad>82</ns3:cad>
          </ns3:TrackPointExtension>
        </extensions>
      </trkpt>
      <trkpt lat="45.26754833757877349853515625" lon="-71.18353572674095630645751953125">
        <ele>548.5999755859375</ele>
        <time>2026-08-22T03:48:41.000Z</time>
        <extensions>
          <ns3:TrackPointExtension>
            <ns3:hr>146</ns3:hr>
            <ns3:cad>82</ns3:cad>
          </ns3:TrackPointExtension>
        </extensions>
      </trkpt>
      <trkpt lat="45.267549343407154083251953125" lon="-71.18356439284980297088623046875">
        <ele>548.5999755859375</ele>
        <time>2026-08-22T03:48:42.000Z</time>
        <extensions>
          <ns3:TrackPointExtension>
            <ns3:hr>146</ns3:hr>
            <ns3:cad>82</ns3:cad>
          </ns3:TrackPointExtension>
        </extensions>
      </trkpt>
      <trkpt lat="45.26754825375974178314208984375" lon="-71.18359289132058620452880859375">
        <ele>548.79998779296875</ele>
        <time>2026-08-22T03:48:43.000Z</time>
        <extensions>
          <ns3:TrackPointExtension>
            <ns3:hr>146</ns3:hr>
            <ns3:cad>80</ns3:cad>
          </ns3:TrackPointExtension>
        </extensions>
      </trkpt>
      <trkpt lat="45.26754976250231266021728515625" lon="-71.18362046778202056884765625">
        <ele>548.79998779296875</ele>
        <time>2026-08-22T03:48:44.000Z</time>
        <extensions>
          <ns3:TrackPointExtension>
            <ns3:hr>146</ns3:hr>
            <ns3:cad>80</ns3:cad>
          </ns3:TrackPointExtension>
        </extensions>
      </trkpt>
      <trkpt lat="45.26754942722618579864501953125" lon="-71.1836471222341060638427734375">
        <ele>549</ele>
        <time>2026-08-22T03:48:45.000Z</time>
        <extensions>
          <ns3:TrackPointExtension>
            <ns3:hr>146</ns3:hr>
            <ns3:cad>79</ns3:cad>
          </ns3:TrackPointExtension>
        </extensions>
      </trkpt>
      <trkpt lat="45.26755026541650295257568359375" lon="-71.1836752854287624359130859375">
        <ele>549</ele>
        <time>2026-08-22T03:48:46.000Z</time>
        <extensions>
          <ns3:TrackPointExtension>
            <ns3:hr>146</ns3:hr>
            <ns3:cad>79</ns3:cad>
          </ns3:TrackPointExtension>
        </extensions>
      </trkpt>
      <trkpt lat="45.2675498463213443756103515625" lon="-71.18370168842375278472900390625">
        <ele>549.20001220703125</ele>
        <time>2026-08-22T03:48:47.000Z</time>
        <extensions>
          <ns3:TrackPointExtension>
            <ns3:hr>146</ns3:hr>
            <ns3:cad>79</ns3:cad>
          </ns3:TrackPointExtension>
        </extensions>
      </trkpt>
      <trkpt lat="45.267545990645885467529296875" lon="-71.18373270146548748016357421875">
        <ele>549.4000244140625</ele>
        <time>2026-08-22T03:48:48.000Z</time>
        <extensions>
          <ns3:TrackPointExtension>
            <ns3:hr>145</ns3:hr>
            <ns3:cad>79</ns3:cad>
          </ns3:TrackPointExtension>
        </extensions>
      </trkpt>
      <trkpt lat="45.26755076833069324493408203125" lon="-71.18376254104077816009521484375">
        <ele>549.4000244140625</ele>
        <time>2026-08-22T03:48:49.000Z</time>
        <extensions>
          <ns3:TrackPointExtension>
            <ns3:hr>145</ns3:hr>
            <ns3:cad>79</ns3:cad>
          </ns3:TrackPointExtension>
        </extensions>
      </trkpt>
      <trkpt lat="45.267553366720676422119140625" lon="-71.18379171006381511688232421875">
        <ele>549.5999755859375</ele>
        <time>2026-08-22T03:48:50.000Z</time>
        <extensions>
          <ns3:TrackPointExtension>
            <ns3:hr>145</ns3:hr>
            <ns3:cad>80</ns3:cad>
          </ns3:TrackPointExtension>
        </extensions>
      </trkpt>
      <trkpt lat="45.26755110360682010650634765625" lon="-71.183825992047786712646484375">
        <ele>549.5999755859375</ele>
        <time>2026-08-22T03:48:51.000Z</time>
        <extensions>
          <ns3:TrackPointExtension>
            <ns3:hr>145</ns3:hr>
            <ns3:cad>80</ns3:cad>
          </ns3:TrackPointExtension>
        </extensions>
      </trkpt>
      <trkpt lat="45.26755009777843952178955078125" lon="-71.18385759182274341583251953125">
        <ele>549.79998779296875</ele>
        <time>2026-08-22T03:48:52.000Z</time>
        <extensions>
          <ns3:TrackPointExtension>
            <ns3:hr>144</ns3:hr>
            <ns3:cad>80</ns3:cad>
          </ns3:TrackPointExtension>
        </extensions>
      </trkpt>
      <trkpt lat="45.26755043305456638336181640625" lon="-71.18388541974127292633056640625">
        <ele>549.79998779296875</ele>
        <time>2026-08-22T03:48:53.000Z</time>
        <extensions>
          <ns3:TrackPointExtension>
            <ns3:hr>144</ns3:hr>
            <ns3:cad>80</ns3:cad>
          </ns3:TrackPointExtension>
        </extensions>
      </trkpt>
      <trkpt lat="45.26755101978778839111328125" lon="-71.18391945026814937591552734375">
        <ele>550</ele>
        <time>2026-08-22T03:48:54.000Z</time>
        <extensions>
          <ns3:TrackPointExtension>
            <ns3:hr>144</ns3:hr>
            <ns3:cad>80</ns3:cad>
          </ns3:TrackPointExtension>
        </extensions>
      </trkpt>
      <trkpt lat="45.267555378377437591552734375" lon="-71.18395130150020122528076171875">
        <ele>550.20001220703125</ele>
        <time>2026-08-22T03:48:55.000Z</time>
        <extensions>
          <ns3:TrackPointExtension>
            <ns3:hr>144</ns3:hr>
            <ns3:cad>80</ns3:cad>
          </ns3:TrackPointExtension>
        </extensions>
      </trkpt>
      <trkpt lat="45.26755495928227901458740234375" lon="-71.183981560170650482177734375">
        <ele>550.20001220703125</ele>
        <time>2026-08-22T03:48:56.000Z</time>
        <extensions>
          <ns3:TrackPointExtension>
            <ns3:hr>144</ns3:hr>
            <ns3:cad>80</ns3:cad>
          </ns3:TrackPointExtension>
        </extensions>
      </trkpt>
      <trkpt lat="45.26755361817777156829833984375" lon="-71.18401668034493923187255859375">
        <ele>550.20001220703125</ele>
        <time>2026-08-22T03:48:57.000Z</time>
        <extensions>
          <ns3:TrackPointExtension>
            <ns3:hr>144</ns3:hr>
            <ns3:cad>80</ns3:cad>
          </ns3:TrackPointExtension>
        </extensions>
      </trkpt>
      <trkpt lat="45.26755328290164470672607421875" lon="-71.18404828011989593505859375">
        <ele>550.4000244140625</ele>
        <time>2026-08-22T03:48:58.000Z</time>
        <extensions>
          <ns3:TrackPointExtension>
            <ns3:hr>145</ns3:hr>
            <ns3:cad>81</ns3:cad>
          </ns3:TrackPointExtension>
        </extensions>
      </trkpt>
      <trkpt lat="45.26755110360682010650634765625" lon="-71.1840772815048694610595703125">
        <ele>550.4000244140625</ele>
        <time>2026-08-22T03:48:59.000Z</time>
        <extensions>
          <ns3:TrackPointExtension>
            <ns3:hr>145</ns3:hr>
            <ns3:cad>81</ns3:cad>
          </ns3:TrackPointExtension>
        </extensions>
      </trkpt>
      <trkpt lat="45.267550684511661529541015625" lon="-71.184112317860126495361328125">
        <ele>550.5999755859375</ele>
        <time>2026-08-22T03:49:00.000Z</time>
        <extensions>
          <ns3:TrackPointExtension>
            <ns3:hr>145</ns3:hr>
            <ns3:cad>81</ns3:cad>
          </ns3:TrackPointExtension>
        </extensions>
      </trkpt>
      <trkpt lat="45.26755378581583499908447265625" lon="-71.1841436661779880523681640625">
        <ele>550.79998779296875</ele>
        <time>2026-08-22T03:49:01.000Z</time>
        <extensions>
          <ns3:TrackPointExtension>
            <ns3:hr>146</ns3:hr>
            <ns3:cad>81</ns3:cad>
          </ns3:TrackPointExtension>
        </extensions>
      </trkpt>
      <trkpt lat="45.26755906641483306884765625" lon="-71.184172667562961578369140625">
        <ele>551</ele>
        <time>2026-08-22T03:49:02.000Z</time>
        <extensions>
          <ns3:TrackPointExtension>
            <ns3:hr>146</ns3:hr>
            <ns3:cad>80</ns3:cad>
          </ns3:TrackPointExtension>
        </extensions>
      </trkpt>
      <trkpt lat="45.26755998842418193817138671875" lon="-71.18420560844242572784423828125">
        <ele>551</ele>
        <time>2026-08-22T03:49:03.000Z</time>
        <extensions>
          <ns3:TrackPointExtension>
            <ns3:hr>146</ns3:hr>
            <ns3:cad>80</ns3:cad>
          </ns3:TrackPointExtension>
        </extensions>
      </trkpt>
      <trkpt lat="45.26756267063319683074951171875" lon="-71.18424139916896820068359375">
        <ele>551</ele>
        <time>2026-08-22T03:49:04.000Z</time>
        <extensions>
          <ns3:TrackPointExtension>
            <ns3:hr>146</ns3:hr>
            <ns3:cad>81</ns3:cad>
          </ns3:TrackPointExtension>
        </extensions>
      </trkpt>
      <trkpt lat="45.26755864731967449188232421875" lon="-71.18426964618265628814697265625">
        <ele>551.20001220703125</ele>
        <time>2026-08-22T03:49:05.000Z</time>
        <extensions>
          <ns3:TrackPointExtension>
            <ns3:hr>146</ns3:hr>
            <ns3:cad>81</ns3:cad>
          </ns3:TrackPointExtension>
        </extensions>
      </trkpt>
      <trkpt lat="45.2675572223961353302001953125" lon="-71.18430350907146930694580078125">
        <ele>551.20001220703125</ele>
        <time>2026-08-22T03:49:06.000Z</time>
        <extensions>
          <ns3:TrackPointExtension>
            <ns3:hr>147</ns3:hr>
            <ns3:cad>81</ns3:cad>
          </ns3:TrackPointExtension>
        </extensions>
      </trkpt>
      <trkpt lat="45.26756040751934051513671875" lon="-71.1843361146748065948486328125">
        <ele>551.20001220703125</ele>
        <time>2026-08-22T03:49:07.000Z</time>
        <extensions>
          <ns3:TrackPointExtension>
            <ns3:hr>146</ns3:hr>
            <ns3:cad>81</ns3:cad>
          </ns3:TrackPointExtension>
        </extensions>
      </trkpt>
      <trkpt lat="45.267564095556735992431640625" lon="-71.1843656189739704132080078125">
        <ele>551.4000244140625</ele>
        <time>2026-08-22T03:49:08.000Z</time>
        <extensions>
          <ns3:TrackPointExtension>
            <ns3:hr>146</ns3:hr>
            <ns3:cad>81</ns3:cad>
          </ns3:TrackPointExtension>
        </extensions>
      </trkpt>
      <trkpt lat="45.26756300590932369232177734375" lon="-71.18439571000635623931884765625">
        <ele>551.5999755859375</ele>
        <time>2026-08-22T03:49:09.000Z</time>
        <extensions>
          <ns3:TrackPointExtension>
            <ns3:hr>147</ns3:hr>
            <ns3:cad>81</ns3:cad>
          </ns3:TrackPointExtension>
        </extensions>
      </trkpt>
      <trkpt lat="45.26756602339446544647216796875" lon="-71.18442471139132976531982421875">
        <ele>551.79998779296875</ele>
        <time>2026-08-22T03:49:10.000Z</time>
        <extensions>
          <ns3:TrackPointExtension>
            <ns3:hr>146</ns3:hr>
            <ns3:cad>81</ns3:cad>
          </ns3:TrackPointExtension>
        </extensions>
      </trkpt>
      <trkpt lat="45.2675706334412097930908203125" lon="-71.1844494380056858062744140625">
        <ele>551.79998779296875</ele>
        <time>2026-08-22T03:49:11.000Z</time>
        <extensions>
          <ns3:TrackPointExtension>
            <ns3:hr>147</ns3:hr>
            <ns3:cad>81</ns3:cad>
          </ns3:TrackPointExtension>
        </extensions>
      </trkpt>
      <trkpt lat="45.2675696276128292083740234375" lon="-71.18447743356227874755859375">
        <ele>552</ele>
        <time>2026-08-22T03:49:12.000Z</time>
        <extensions>
          <ns3:TrackPointExtension>
            <ns3:hr>147</ns3:hr>
            <ns3:cad>81</ns3:cad>
          </ns3:TrackPointExtension>
        </extensions>
      </trkpt>
      <trkpt lat="45.2675652690231800079345703125" lon="-71.18450199253857135772705078125">
        <ele>552</ele>
        <time>2026-08-22T03:49:13.000Z</time>
        <extensions>
          <ns3:TrackPointExtension>
            <ns3:hr>147</ns3:hr>
            <ns3:cad>81</ns3:cad>
          </ns3:TrackPointExtension>
        </extensions>
      </trkpt>
      <trkpt lat="45.26756401173770427703857421875" lon="-71.1845164932310581207275390625">
        <ele>552</ele>
        <time>2026-08-22T03:49:14.000Z</time>
        <extensions>
          <ns3:TrackPointExtension>
            <ns3:hr>147</ns3:hr>
            <ns3:cad>81</ns3:cad>
          </ns3:TrackPointExtension>
        </extensions>
      </trkpt>
      <trkpt lat="45.2675639279186725616455078125" lon="-71.18452596478164196014404296875">
        <ele>552</ele>
        <time>2026-08-22T03:49:15.000Z</time>
        <extensions>
          <ns3:TrackPointExtension>
            <ns3:hr>147</ns3:hr>
            <ns3:cad>81</ns3:cad>
          </ns3:TrackPointExtension>
        </extensions>
      </trkpt>
      <trkpt lat="45.2675597369670867919921875" lon="-71.18454121984541416168212890625">
        <ele>552</ele>
        <time>2026-08-22T03:49:16.000Z</time>
        <extensions>
          <ns3:TrackPointExtension>
            <ns3:hr>147</ns3:hr>
            <ns3:cad>81</ns3:cad>
          </ns3:TrackPointExtension>
        </extensions>
      </trkpt>
      <trkpt lat="45.26756099425256252288818359375" lon="-71.18456435389816761016845703125">
        <ele>552</ele>
        <time>2026-08-22T03:49:17.000Z</time>
        <extensions>
          <ns3:TrackPointExtension>
            <ns3:hr>147</ns3:hr>
            <ns3:cad>81</ns3:cad>
          </ns3:TrackPointExtension>
        </extensions>
      </trkpt>
      <trkpt lat="45.26756183244287967681884765625" lon="-71.18457667529582977294921875">
        <ele>552</ele>
        <time>2026-08-22T03:49:18.000Z</time>
        <extensions>
          <ns3:TrackPointExtension>
            <ns3:hr>147</ns3:hr>
            <ns3:cad>0</ns3:cad>
          </ns3:TrackPointExtension>
        </extensions>
      </trkpt>
      <trkpt lat="45.26756334118545055389404296875" lon="-71.1845889128744602203369140625">
        <ele>552</ele>
        <time>2026-08-22T03:49:19.000Z</time>
        <extensions>
          <ns3:TrackPointExtension>
            <ns3:hr>147</ns3:hr>
            <ns3:cad>0</ns3:cad>
          </ns3:TrackPointExtension>
        </extensions>
      </trkpt>
      <trkpt lat="45.26756845414638519287109375" lon="-71.18460140191018581390380859375">
        <ele>552</ele>
        <time>2026-08-22T03:49:20.000Z</time>
        <extensions>
          <ns3:TrackPointExtension>
            <ns3:hr>147</ns3:hr>
            <ns3:cad>0</ns3:cad>
          </ns3:TrackPointExtension>
        </extensions>
      </trkpt>
      <trkpt lat="45.2675719745457172393798828125" lon="-71.1846148967742919921875">
        <ele>552</ele>
        <time>2026-08-22T03:49:21.000Z</time>
        <extensions>
          <ns3:TrackPointExtension>
            <ns3:hr>147</ns3:hr>
            <ns3:cad>0</ns3:cad>
          </ns3:TrackPointExtension>
        </extensions>
      </trkpt>
      <trkpt lat="45.26757247745990753173828125" lon="-71.1846055090427398681640625">
        <ele>552</ele>
        <time>2026-08-22T03:49:22.000Z</time>
        <extensions>
          <ns3:TrackPointExtension>
            <ns3:hr>147</ns3:hr>
            <ns3:cad>0</ns3:cad>
          </ns3:TrackPointExtension>
        </extensions>
      </trkpt>
      <trkpt lat="45.26757071726024150848388671875" lon="-71.1845894157886505126953125">
        <ele>552</ele>
        <time>2026-08-22T03:49:23.000Z</time>
        <extensions>
          <ns3:TrackPointExtension>
            <ns3:hr>147</ns3:hr>
            <ns3:cad>46</ns3:cad>
          </ns3:TrackPointExtension>
        </extensions>
      </trkpt>
      <trkpt lat="45.26756920851767063140869140625" lon="-71.184574663639068603515625">
        <ele>552</ele>
        <time>2026-08-22T03:49:24.000Z</time>
        <extensions>
          <ns3:TrackPointExtension>
            <ns3:hr>147</ns3:hr>
            <ns3:cad>46</ns3:cad>
          </ns3:TrackPointExtension>
        </extensions>
      </trkpt>
      <trkpt lat="45.26756669394671916961669921875" lon="-71.18455815128982067108154296875">
        <ele>552</ele>
        <time>2026-08-22T03:49:25.000Z</time>
        <extensions>
          <ns3:TrackPointExtension>
            <ns3:hr>146</ns3:hr>
            <ns3:cad>46</ns3:cad>
          </ns3:TrackPointExtension>
        </extensions>
      </trkpt>
      <trkpt lat="45.26756200008094310760498046875" lon="-71.1845413036644458770751953125">
        <ele>552</ele>
        <time>2026-08-22T03:49:26.000Z</time>
        <extensions>
          <ns3:TrackPointExtension>
            <ns3:hr>146</ns3:hr>
            <ns3:cad>46</ns3:cad>
          </ns3:TrackPointExtension>
        </extensions>
      </trkpt>
      <trkpt lat="45.2675572223961353302001953125" lon="-71.1845231987535953521728515625">
        <ele>552</ele>
        <time>2026-08-22T03:49:27.000Z</time>
        <extensions>
          <ns3:TrackPointExtension>
            <ns3:hr>145</ns3:hr>
            <ns3:cad>46</ns3:cad>
          </ns3:TrackPointExtension>
        </extensions>
      </trkpt>
      <trkpt lat="45.2675488404929637908935546875" lon="-71.1845091171562671661376953125">
        <ele>552</ele>
        <time>2026-08-22T03:49:28.000Z</time>
        <extensions>
          <ns3:TrackPointExtension>
            <ns3:hr>145</ns3:hr>
            <ns3:cad>46</ns3:cad>
          </ns3:TrackPointExtension>
        </extensions>
      </trkpt>
      <trkpt lat="45.26754163205623626708984375" lon="-71.1844936944544315338134765625">
        <ele>552</ele>
        <time>2026-08-22T03:49:29.000Z</time>
        <extensions>
          <ns3:TrackPointExtension>
            <ns3:hr>145</ns3:hr>
            <ns3:cad>46</ns3:cad>
          </ns3:TrackPointExtension>
        </extensions>
      </trkpt>
      <trkpt lat="45.26753467507660388946533203125" lon="-71.18447818793356418609619140625">
        <ele>552</ele>
        <time>2026-08-22T03:49:30.000Z</time>
        <extensions>
          <ns3:TrackPointExtension>
            <ns3:hr>144</ns3:hr>
            <ns3:cad>49</ns3:cad>
          </ns3:TrackPointExtension>
        </extensions>
      </trkpt>
      <trkpt lat="45.26752713136374950408935546875" lon="-71.1844638548791408538818359375">
        <ele>552</ele>
        <time>2026-08-22T03:49:31.000Z</time>
        <extensions>
          <ns3:TrackPointExtension>
            <ns3:hr>144</ns3:hr>
            <ns3:cad>49</ns3:cad>
          </ns3:TrackPointExtension>
        </extensions>
      </trkpt>
      <trkpt lat="45.26751506142318248748779296875" lon="-71.18445505388081073760986328125">
        <ele>552</ele>
        <time>2026-08-22T03:49:32.000Z</time>
        <extensions>
          <ns3:TrackPointExtension>
            <ns3:hr>145</ns3:hr>
            <ns3:cad>49</ns3:cad>
          </ns3:TrackPointExtension>
        </extensions>
      </trkpt>
      <trkpt lat="45.2675015665590763092041015625" lon="-71.18444935418665409088134765625">
        <ele>552</ele>
        <time>2026-08-22T03:49:33.000Z</time>
        <extensions>
          <ns3:TrackPointExtension>
            <ns3:hr>145</ns3:hr>
            <ns3:cad>52</ns3:cad>
          </ns3:TrackPointExtension>
        </extensions>
      </trkpt>
      <trkpt lat="45.267488658428192138671875" lon="-71.1844423972070217132568359375">
        <ele>552.20001220703125</ele>
        <time>2026-08-22T03:49:34.000Z</time>
        <extensions>
          <ns3:TrackPointExtension>
            <ns3:hr>144</ns3:hr>
            <ns3:cad>52</ns3:cad>
          </ns3:TrackPointExtension>
        </extensions>
      </trkpt>
      <trkpt lat="45.26747751049697399139404296875" lon="-71.18443049490451812744140625">
        <ele>552.20001220703125</ele>
        <time>2026-08-22T03:49:35.000Z</time>
        <extensions>
          <ns3:TrackPointExtension>
            <ns3:hr>144</ns3:hr>
            <ns3:cad>53</ns3:cad>
          </ns3:TrackPointExtension>
        </extensions>
      </trkpt>
      <trkpt lat="45.26746510528028011322021484375" lon="-71.18441641330718994140625">
        <ele>552.20001220703125</ele>
        <time>2026-08-22T03:49:36.000Z</time>
        <extensions>
          <ns3:TrackPointExtension>
            <ns3:hr>144</ns3:hr>
            <ns3:cad>53</ns3:cad>
          </ns3:TrackPointExtension>
        </extensions>
      </trkpt>
      <trkpt lat="45.2674529515206813812255859375" lon="-71.18440635502338409423828125">
        <ele>552.20001220703125</ele>
        <time>2026-08-22T03:49:37.000Z</time>
        <extensions>
          <ns3:TrackPointExtension>
            <ns3:hr>144</ns3:hr>
            <ns3:cad>53</ns3:cad>
          </ns3:TrackPointExtension>
        </extensions>
      </trkpt>
      <trkpt lat="45.26744146831333637237548828125" lon="-71.1843962967395782470703125">
        <ele>552.20001220703125</ele>
        <time>2026-08-22T03:49:38.000Z</time>
        <extensions>
          <ns3:TrackPointExtension>
            <ns3:hr>144</ns3:hr>
            <ns3:cad>55</ns3:cad>
          </ns3:TrackPointExtension>
        </extensions>
      </trkpt>
      <trkpt lat="45.26742856018245220184326171875" lon="-71.18438548408448696136474609375">
        <ele>552.20001220703125</ele>
        <time>2026-08-22T03:49:39.000Z</time>
        <extensions>
          <ns3:TrackPointExtension>
            <ns3:hr>143</ns3:hr>
            <ns3:cad>55</ns3:cad>
          </ns3:TrackPointExtension>
        </extensions>
      </trkpt>
      <trkpt lat="45.26741749607026576995849609375" lon="-71.18437592871487140655517578125">
        <ele>552.20001220703125</ele>
        <time>2026-08-22T03:49:40.000Z</time>
        <extensions>
          <ns3:TrackPointExtension>
            <ns3:hr>142</ns3:hr>
            <ns3:cad>58</ns3:cad>
          </ns3:TrackPointExtension>
        </extensions>
      </trkpt>
      <trkpt lat="45.26740106754004955291748046875" lon="-71.18436821736395359039306640625">
        <ele>552.4000244140625</ele>
        <time>2026-08-22T03:49:41.000Z</time>
        <extensions>
          <ns3:TrackPointExtension>
            <ns3:hr>142</ns3:hr>
            <ns3:cad>58</ns3:cad>
          </ns3:TrackPointExtension>
        </extensions>
      </trkpt>
      <trkpt lat="45.26738815940916538238525390625" lon="-71.18435966782271862030029296875">
        <ele>552.4000244140625</ele>
        <time>2026-08-22T03:49:42.000Z</time>
        <extensions>
          <ns3:TrackPointExtension>
            <ns3:hr>141</ns3:hr>
            <ns3:cad>59</ns3:cad>
          </ns3:TrackPointExtension>
        </extensions>
      </trkpt>
      <trkpt lat="45.26737307198345661163330078125" lon="-71.184348352253437042236328125">
        <ele>552.4000244140625</ele>
        <time>2026-08-22T03:49:43.000Z</time>
        <extensions>
          <ns3:TrackPointExtension>
            <ns3:hr>140</ns3:hr>
            <ns3:cad>59</ns3:cad>
          </ns3:TrackPointExtension>
        </extensions>
      </trkpt>
      <trkpt lat="45.26735723018646240234375" lon="-71.18433821015059947967529296875">
        <ele>552.4000244140625</ele>
        <time>2026-08-22T03:49:44.000Z</time>
        <extensions>
          <ns3:TrackPointExtension>
            <ns3:hr>140</ns3:hr>
            <ns3:cad>59</ns3:cad>
          </ns3:TrackPointExtension>
        </extensions>
      </trkpt>
      <trkpt lat="45.2673392929136753082275390625" lon="-71.184322871267795562744140625">
        <ele>552.4000244140625</ele>
        <time>2026-08-22T03:49:45.000Z</time>
        <extensions>
          <ns3:TrackPointExtension>
            <ns3:hr>140</ns3:hr>
            <ns3:cad>80</ns3:cad>
          </ns3:TrackPointExtension>
        </extensions>
      </trkpt>
      <trkpt lat="45.26731858961284160614013671875" lon="-71.1843099631369113922119140625">
        <ele>552.4000244140625</ele>
        <time>2026-08-22T03:49:46.000Z</time>
        <extensions>
          <ns3:TrackPointExtension>
            <ns3:hr>139</ns3:hr>
            <ns3:cad>80</ns3:cad>
          </ns3:TrackPointExtension>
        </extensions>
      </trkpt>
      <trkpt lat="45.26730014942586421966552734375" lon="-71.1842931993305683135986328125">
        <ele>552.4000244140625</ele>
        <time>2026-08-22T03:49:47.000Z</time>
        <extensions>
          <ns3:TrackPointExtension>
            <ns3:hr>139</ns3:hr>
            <ns3:cad>81</ns3:cad>
          </ns3:TrackPointExtension>
        </extensions>
      </trkpt>
      <trkpt lat="45.2672836370766162872314453125" lon="-71.1842757649719715118408203125">
        <ele>552.5999755859375</ele>
        <time>2026-08-22T03:49:48.000Z</time>
        <extensions>
          <ns3:TrackPointExtension>
            <ns3:hr>139</ns3:hr>
            <ns3:cad>81</ns3:cad>
          </ns3:TrackPointExtension>
        </extensions>
      </trkpt>
      <trkpt lat="45.26726880110800266265869140625" lon="-71.1842630244791507720947265625">
        <ele>552.5999755859375</ele>
        <time>2026-08-22T03:49:49.000Z</time>
        <extensions>
          <ns3:TrackPointExtension>
            <ns3:hr>139</ns3:hr>
            <ns3:cad>81</ns3:cad>
          </ns3:TrackPointExtension>
        </extensions>
      </trkpt>
      <trkpt lat="45.267254970967769622802734375" lon="-71.184248439967632293701171875">
        <ele>552.5999755859375</ele>
        <time>2026-08-22T03:49:50.000Z</time>
        <extensions>
          <ns3:TrackPointExtension>
            <ns3:hr>138</ns3:hr>
            <ns3:cad>81</ns3:cad>
          </ns3:TrackPointExtension>
        </extensions>
      </trkpt>
      <trkpt lat="45.26724122464656829833984375" lon="-71.18423678912222385406494140625">
        <ele>552.5999755859375</ele>
        <time>2026-08-22T03:49:51.000Z</time>
        <extensions>
          <ns3:TrackPointExtension>
            <ns3:hr>138</ns3:hr>
            <ns3:cad>81</ns3:cad>
          </ns3:TrackPointExtension>
        </extensions>
      </trkpt>
      <trkpt lat="45.26722823269665241241455078125" lon="-71.1842248030006885528564453125">
        <ele>552.4000244140625</ele>
        <time>2026-08-22T03:49:52.000Z</time>
        <extensions>
          <ns3:TrackPointExtension>
            <ns3:hr>138</ns3:hr>
            <ns3:cad>81</ns3:cad>
          </ns3:TrackPointExtension>
        </extensions>
      </trkpt>
      <trkpt lat="45.267212055623531341552734375" lon="-71.18420527316629886627197265625">
        <ele>552.4000244140625</ele>
        <time>2026-08-22T03:49:53.000Z</time>
        <extensions>
          <ns3:TrackPointExtension>
            <ns3:hr>138</ns3:hr>
            <ns3:cad>81</ns3:cad>
          </ns3:TrackPointExtension>
        </extensions>
      </trkpt>
      <trkpt lat="45.2672041766345500946044921875" lon="-71.18418264202773571014404296875">
        <ele>552.4000244140625</ele>
        <time>2026-08-22T03:49:54.000Z</time>
        <extensions>
          <ns3:TrackPointExtension>
            <ns3:hr>138</ns3:hr>
            <ns3:cad>81</ns3:cad>
          </ns3:TrackPointExtension>
        </extensions>
      </trkpt>
      <trkpt lat="45.267193950712680816650390625" lon="-71.18416671641170978546142578125">
        <ele>552.4000244140625</ele>
        <time>2026-08-22T03:49:55.000Z</time>
        <extensions>
          <ns3:TrackPointExtension>
            <ns3:hr>138</ns3:hr>
            <ns3:cad>81</ns3:cad>
          </ns3:TrackPointExtension>
        </extensions>
      </trkpt>
      <trkpt lat="45.2671763487160205841064453125" lon="-71.1841647885739803314208984375">
        <ele>552.20001220703125</ele>
        <time>2026-08-22T03:49:56.000Z</time>
        <extensions>
          <ns3:TrackPointExtension>
            <ns3:hr>138</ns3:hr>
            <ns3:cad>0</ns3:cad>
          </ns3:TrackPointExtension>
        </extensions>
      </trkpt>
      <trkpt lat="45.26716721244156360626220703125" lon="-71.1841564066708087921142578125">
        <ele>552.20001220703125</ele>
        <time>2026-08-22T03:49:57.000Z</time>
        <extensions>
          <ns3:TrackPointExtension>
            <ns3:hr>137</ns3:hr>
            <ns3:cad>0</ns3:cad>
          </ns3:TrackPointExtension>
        </extensions>
      </trkpt>
      <trkpt lat="45.267157740890979766845703125" lon="-71.1841483600437641143798828125">
        <ele>552.20001220703125</ele>
        <time>2026-08-22T03:49:58.000Z</time>
        <extensions>
          <ns3:TrackPointExtension>
            <ns3:hr>135</ns3:hr>
            <ns3:cad>61</ns3:cad>
          </ns3:TrackPointExtension>
        </extensions>
      </trkpt>
      <trkpt lat="45.2671448327600955963134765625" lon="-71.184130422770977020263671875">
        <ele>552.20001220703125</ele>
        <time>2026-08-22T03:49:59.000Z</time>
        <extensions>
          <ns3:TrackPointExtension>
            <ns3:hr>134</ns3:hr>
            <ns3:cad>61</ns3:cad>
          </ns3:TrackPointExtension>
        </extensions>
      </trkpt>
      <trkpt lat="45.267134942114353179931640625" lon="-71.18411474861204624176025390625">
        <ele>552.20001220703125</ele>
        <time>2026-08-22T03:50:00.000Z</time>
        <extensions>
          <ns3:TrackPointExtension>
            <ns3:hr>133</ns3:hr>
            <ns3:cad>61</ns3:cad>
          </ns3:TrackPointExtension>
        </extensions>
      </trkpt>
      <trkpt lat="45.267124213278293609619140625" lon="-71.18409915827214717864990234375">
        <ele>552</ele>
        <time>2026-08-22T03:50:01.000Z</time>
        <extensions>
          <ns3:TrackPointExtension>
            <ns3:hr>133</ns3:hr>
            <ns3:cad>61</ns3:cad>
          </ns3:TrackPointExtension>
        </extensions>
      </trkpt>
      <trkpt lat="45.2671113051474094390869140625" lon="-71.18408826179802417755126953125">
        <ele>552</ele>
        <time>2026-08-22T03:50:02.000Z</time>
        <extensions>
          <ns3:TrackPointExtension>
            <ns3:hr>133</ns3:hr>
            <ns3:cad>61</ns3:cad>
          </ns3:TrackPointExtension>
        </extensions>
      </trkpt>
      <trkpt lat="45.26709361933171749114990234375" lon="-71.1840682290494441986083984375">
        <ele>552</ele>
        <time>2026-08-22T03:50:03.000Z</time>
        <extensions>
          <ns3:TrackPointExtension>
            <ns3:hr>133</ns3:hr>
            <ns3:cad>61</ns3:cad>
          </ns3:TrackPointExtension>
        </extensions>
      </trkpt>
      <trkpt lat="45.2670784480869770050048828125" lon="-71.1840511299669742584228515625">
        <ele>552</ele>
        <time>2026-08-22T03:50:04.000Z</time>
        <extensions>
          <ns3:TrackPointExtension>
            <ns3:hr>133</ns3:hr>
            <ns3:cad>61</ns3:cad>
          </ns3:TrackPointExtension>
        </extensions>
      </trkpt>
      <trkpt lat="45.26705975644290447235107421875" lon="-71.18403621017932891845703125">
        <ele>552</ele>
        <time>2026-08-22T03:50:05.000Z</time>
        <extensions>
          <ns3:TrackPointExtension>
            <ns3:hr>133</ns3:hr>
            <ns3:cad>61</ns3:cad>
          </ns3:TrackPointExtension>
        </extensions>
      </trkpt>
      <trkpt lat="45.26704181917011737823486328125" lon="-71.1840155906975269317626953125">
        <ele>552</ele>
        <time>2026-08-22T03:50:06.000Z</time>
        <extensions>
          <ns3:TrackPointExtension>
            <ns3:hr>132</ns3:hr>
            <ns3:cad>80</ns3:cad>
          </ns3:TrackPointExtension>
        </extensions>
      </trkpt>
      <trkpt lat="45.2670251391828060150146484375" lon="-71.1839951388537883758544921875">
        <ele>552</ele>
        <time>2026-08-22T03:50:07.000Z</time>
        <extensions>
          <ns3:TrackPointExtension>
            <ns3:hr>132</ns3:hr>
            <ns3:cad>80</ns3:cad>
          </ns3:TrackPointExtension>
        </extensions>
      </trkpt>
      <trkpt lat="45.26700594462454319000244140625" lon="-71.18397443555295467376708984375">
        <ele>551.79998779296875</ele>
        <time>2026-08-22T03:50:08.000Z</time>
        <extensions>
          <ns3:TrackPointExtension>
            <ns3:hr>131</ns3:hr>
            <ns3:cad>82</ns3:cad>
          </ns3:TrackPointExtension>
        </extensions>
      </trkpt>
      <trkpt lat="45.2669822238385677337646484375" lon="-71.18395574390888214111328125">
        <ele>551.79998779296875</ele>
        <time>2026-08-22T03:50:09.000Z</time>
        <extensions>
          <ns3:TrackPointExtension>
            <ns3:hr>131</ns3:hr>
            <ns3:cad>82</ns3:cad>
          </ns3:TrackPointExtension>
        </extensions>
      </trkpt>
      <trkpt lat="45.266962610185146331787109375" lon="-71.1839324422180652618408203125">
        <ele>551.79998779296875</ele>
        <time>2026-08-22T03:50:10.000Z</time>
        <extensions>
          <ns3:TrackPointExtension>
            <ns3:hr>131</ns3:hr>
            <ns3:cad>82</ns3:cad>
          </ns3:TrackPointExtension>
        </extensions>
      </trkpt>
      <trkpt lat="45.26694375090301036834716796875" lon="-71.1839140020310878753662109375">
        <ele>551.79998779296875</ele>
        <time>2026-08-22T03:50:11.000Z</time>
        <extensions>
          <ns3:TrackPointExtension>
            <ns3:hr>131</ns3:hr>
            <ns3:cad>82</ns3:cad>
          </ns3:TrackPointExtension>
        </extensions>
      </trkpt>
      <trkpt lat="45.26692070066928863525390625" lon="-71.1838958971202373504638671875">
        <ele>551.79998779296875</ele>
        <time>2026-08-22T03:50:12.000Z</time>
        <extensions>
          <ns3:TrackPointExtension>
            <ns3:hr>132</ns3:hr>
            <ns3:cad>82</ns3:cad>
          </ns3:TrackPointExtension>
        </extensions>
      </trkpt>
      <trkpt lat="45.26689379476010799407958984375" lon="-71.18388039059937000274658203125">
        <ele>551.79998779296875</ele>
        <time>2026-08-22T03:50:13.000Z</time>
        <extensions>
          <ns3:TrackPointExtension>
            <ns3:hr>132</ns3:hr>
            <ns3:cad>82</ns3:cad>
          </ns3:TrackPointExtension>
        </extensions>
      </trkpt>
      <trkpt lat="45.2668704092502593994140625" lon="-71.1838714219629764556884765625">
        <ele>551.79998779296875</ele>
        <time>2026-08-22T03:50:14.000Z</time>
        <extensions>
          <ns3:TrackPointExtension>
            <ns3:hr>132</ns3:hr>
            <ns3:cad>82</ns3:cad>
          </ns3:TrackPointExtension>
        </extensions>
      </trkpt>
      <trkpt lat="45.26684668846428394317626953125" lon="-71.18386211805045604705810546875">
        <ele>551.79998779296875</ele>
        <time>2026-08-22T03:50:15.000Z</time>
        <extensions>
          <ns3:TrackPointExtension>
            <ns3:hr>132</ns3:hr>
            <ns3:cad>82</ns3:cad>
          </ns3:TrackPointExtension>
        </extensions>
      </trkpt>
      <trkpt lat="45.26682078838348388671875" lon="-71.183854155242443084716796875">
        <ele>551.79998779296875</ele>
        <time>2026-08-22T03:50:16.000Z</time>
        <extensions>
          <ns3:TrackPointExtension>
            <ns3:hr>132</ns3:hr>
            <ns3:cad>82</ns3:cad>
          </ns3:TrackPointExtension>
        </extensions>
      </trkpt>
      <trkpt lat="45.26679924689233303070068359375" lon="-71.18384770117700099945068359375">
        <ele>551.79998779296875</ele>
        <time>2026-08-22T03:50:17.000Z</time>
        <extensions>
          <ns3:TrackPointExtension>
            <ns3:hr>132</ns3:hr>
            <ns3:cad>82</ns3:cad>
          </ns3:TrackPointExtension>
        </extensions>
      </trkpt>
      <trkpt lat="45.26677276007831096649169921875" lon="-71.18384652771055698394775390625">
        <ele>552</ele>
        <time>2026-08-22T03:50:18.000Z</time>
        <extensions>
          <ns3:TrackPointExtension>
            <ns3:hr>133</ns3:hr>
            <ns3:cad>82</ns3:cad>
          </ns3:TrackPointExtension>
        </extensions>
      </trkpt>
      <trkpt lat="45.2667495422065258026123046875" lon="-71.1838425882160663604736328125">
        <ele>552</ele>
        <time>2026-08-22T03:50:19.000Z</time>
        <extensions>
          <ns3:TrackPointExtension>
            <ns3:hr>133</ns3:hr>
            <ns3:cad>82</ns3:cad>
          </ns3:TrackPointExtension>
        </extensions>
      </trkpt>
      <trkpt lat="45.26672984473407268524169921875" lon="-71.1838432587683200836181640625">
        <ele>552</ele>
        <time>2026-08-22T03:50:20.000Z</time>
        <extensions>
          <ns3:TrackPointExtension>
            <ns3:hr>133</ns3:hr>
            <ns3:cad>83</ns3:cad>
          </ns3:TrackPointExtension>
        </extensions>
      </trkpt>
      <trkpt lat="45.266704447567462921142578125" lon="-71.18384351022541522979736328125">
        <ele>552</ele>
        <time>2026-08-22T03:50:21.000Z</time>
        <extensions>
          <ns3:TrackPointExtension>
            <ns3:hr>133</ns3:hr>
            <ns3:cad>83</ns3:cad>
          </ns3:TrackPointExtension>
        </extensions>
      </trkpt>
      <trkpt lat="45.2666774578392505645751953125" lon="-71.18384778499603271484375">
        <ele>552</ele>
        <time>2026-08-22T03:50:22.000Z</time>
        <extensions>
          <ns3:TrackPointExtension>
            <ns3:hr>133</ns3:hr>
            <ns3:cad>83</ns3:cad>
          </ns3:TrackPointExtension>
        </extensions>
      </trkpt>
      <trkpt lat="45.26665423996746540069580078125" lon="-71.18384703062474727630615234375">
        <ele>552</ele>
        <time>2026-08-22T03:50:23.000Z</time>
        <extensions>
          <ns3:TrackPointExtension>
            <ns3:hr>134</ns3:hr>
            <ns3:cad>82</ns3:cad>
          </ns3:TrackPointExtension>
        </extensions>
      </trkpt>
      <trkpt lat="45.266633369028568267822265625" lon="-71.183848790824413299560546875">
        <ele>552</ele>
        <time>2026-08-22T03:50:24.000Z</time>
        <extensions>
          <ns3:TrackPointExtension>
            <ns3:hr>135</ns3:hr>
            <ns3:cad>82</ns3:cad>
          </ns3:TrackPointExtension>
        </extensions>
      </trkpt>
      <trkpt lat="45.2666127495467662811279296875" lon="-71.18384887464344501495361328125">
        <ele>552</ele>
        <time>2026-08-22T03:50:25.000Z</time>
        <extensions>
          <ns3:TrackPointExtension>
            <ns3:hr>135</ns3:hr>
            <ns3:cad>82</ns3:cad>
          </ns3:TrackPointExtension>
        </extensions>
      </trkpt>
      <trkpt lat="45.266585089266300201416015625" lon="-71.18384979665279388427734375">
        <ele>552</ele>
        <time>2026-08-22T03:50:26.000Z</time>
        <extensions>
          <ns3:TrackPointExtension>
            <ns3:hr>134</ns3:hr>
            <ns3:cad>82</ns3:cad>
          </ns3:TrackPointExtension>
        </extensions>
      </trkpt>
      <trkpt lat="45.26655902154743671417236328125" lon="-71.1838544905185699462890625">
        <ele>552.20001220703125</ele>
        <time>2026-08-22T03:50:27.000Z</time>
        <extensions>
          <ns3:TrackPointExtension>
            <ns3:hr>134</ns3:hr>
            <ns3:cad>82</ns3:cad>
          </ns3:TrackPointExtension>
        </extensions>
      </trkpt>
      <trkpt lat="45.26653991080820560455322265625" lon="-71.18385742418467998504638671875">
        <ele>552.4000244140625</ele>
        <time>2026-08-22T03:50:28.000Z</time>
        <extensions>
          <ns3:TrackPointExtension>
            <ns3:hr>134</ns3:hr>
            <ns3:cad>82</ns3:cad>
          </ns3:TrackPointExtension>
        </extensions>
      </trkpt>
      <trkpt lat="45.26651300489902496337890625" lon="-71.18386052548885345458984375">
        <ele>552.4000244140625</ele>
        <time>2026-08-22T03:50:29.000Z</time>
        <extensions>
          <ns3:TrackPointExtension>
            <ns3:hr>135</ns3:hr>
            <ns3:cad>82</ns3:cad>
          </ns3:TrackPointExtension>
        </extensions>
      </trkpt>
      <trkpt lat="45.26648777537047863006591796875" lon="-71.18386010639369487762451171875">
        <ele>552.4000244140625</ele>
        <time>2026-08-22T03:50:30.000Z</time>
        <extensions>
          <ns3:TrackPointExtension>
            <ns3:hr>135</ns3:hr>
            <ns3:cad>82</ns3:cad>
          </ns3:TrackPointExtension>
        </extensions>
      </trkpt>
      <trkpt lat="45.2664679102599620819091796875" lon="-71.18386094458401203155517578125">
        <ele>552.5999755859375</ele>
        <time>2026-08-22T03:50:31.000Z</time>
        <extensions>
          <ns3:TrackPointExtension>
            <ns3:hr>135</ns3:hr>
            <ns3:cad>82</ns3:cad>
          </ns3:TrackPointExtension>
        </extensions>
      </trkpt>
      <trkpt lat="45.266444943845272064208984375" lon="-71.183866895735263824462890625">
        <ele>552.5999755859375</ele>
        <time>2026-08-22T03:50:32.000Z</time>
        <extensions>
          <ns3:TrackPointExtension>
            <ns3:hr>135</ns3:hr>
            <ns3:cad>82</ns3:cad>
          </ns3:TrackPointExtension>
        </extensions>
      </trkpt>
      <trkpt lat="45.2664197981357574462890625" lon="-71.18387066759169101715087890625">
        <ele>552.5999755859375</ele>
        <time>2026-08-22T03:50:33.000Z</time>
        <extensions>
          <ns3:TrackPointExtension>
            <ns3:hr>135</ns3:hr>
            <ns3:cad>82</ns3:cad>
          </ns3:TrackPointExtension>
        </extensions>
      </trkpt>
      <trkpt lat="45.266398005187511444091796875" lon="-71.1838710866868495941162109375">
        <ele>552.79998779296875</ele>
        <time>2026-08-22T03:50:34.000Z</time>
        <extensions>
          <ns3:TrackPointExtension>
            <ns3:hr>136</ns3:hr>
            <ns3:cad>82</ns3:cad>
          </ns3:TrackPointExtension>
        </extensions>
      </trkpt>
      <trkpt lat="45.266375206410884857177734375" lon="-71.183871589601039886474609375">
        <ele>552.79998779296875</ele>
        <time>2026-08-22T03:50:35.000Z</time>
        <extensions>
          <ns3:TrackPointExtension>
            <ns3:hr>136</ns3:hr>
            <ns3:cad>82</ns3:cad>
          </ns3:TrackPointExtension>
        </extensions>
      </trkpt>
      <trkpt lat="45.266351066529750823974609375" lon="-71.18387016467750072479248046875">
        <ele>553</ele>
        <time>2026-08-22T03:50:36.000Z</time>
        <extensions>
          <ns3:TrackPointExtension>
            <ns3:hr>136</ns3:hr>
            <ns3:cad>82</ns3:cad>
          </ns3:TrackPointExtension>
        </extensions>
      </trkpt>
      <trkpt lat="45.26632768101990222930908203125" lon="-71.183873601257801055908203125">
        <ele>553</ele>
        <time>2026-08-22T03:50:37.000Z</time>
        <extensions>
          <ns3:TrackPointExtension>
            <ns3:hr>136</ns3:hr>
            <ns3:cad>81</ns3:cad>
          </ns3:TrackPointExtension>
        </extensions>
      </trkpt>
      <trkpt lat="45.26630354113876819610595703125" lon="-71.18387854658067226409912109375">
        <ele>553</ele>
        <time>2026-08-22T03:50:38.000Z</time>
        <extensions>
          <ns3:TrackPointExtension>
            <ns3:hr>135</ns3:hr>
            <ns3:cad>81</ns3:cad>
          </ns3:TrackPointExtension>
        </extensions>
      </trkpt>
      <trkpt lat="45.266281664371490478515625" lon="-71.1838781274855136871337890625">
        <ele>553</ele>
        <time>2026-08-22T03:50:39.000Z</time>
        <extensions>
          <ns3:TrackPointExtension>
            <ns3:hr>136</ns3:hr>
            <ns3:cad>82</ns3:cad>
          </ns3:TrackPointExtension>
        </extensions>
      </trkpt>
      <trkpt lat="45.2662588655948638916015625" lon="-71.1838798038661479949951171875">
        <ele>553</ele>
        <time>2026-08-22T03:50:40.000Z</time>
        <extensions>
          <ns3:TrackPointExtension>
            <ns3:hr>136</ns3:hr>
            <ns3:cad>82</ns3:cad>
          </ns3:TrackPointExtension>
        </extensions>
      </trkpt>
      <trkpt lat="45.2662375755608081817626953125" lon="-71.18388039059937000274658203125">
        <ele>553</ele>
        <time>2026-08-22T03:50:41.000Z</time>
        <extensions>
          <ns3:TrackPointExtension>
            <ns3:hr>136</ns3:hr>
            <ns3:cad>82</ns3:cad>
          </ns3:TrackPointExtension>
        </extensions>
      </trkpt>
      <trkpt lat="45.2662157826125621795654296875" lon="-71.18388609029352664947509765625">
        <ele>553</ele>
        <time>2026-08-22T03:50:42.000Z</time>
        <extensions>
          <ns3:TrackPointExtension>
            <ns3:hr>136</ns3:hr>
            <ns3:cad>82</ns3:cad>
          </ns3:TrackPointExtension>
        </extensions>
      </trkpt>
      <trkpt lat="45.26619222946465015411376953125" lon="-71.18388709612190723419189453125">
        <ele>553</ele>
        <time>2026-08-22T03:50:43.000Z</time>
        <extensions>
          <ns3:TrackPointExtension>
            <ns3:hr>136</ns3:hr>
            <ns3:cad>83</ns3:cad>
          </ns3:TrackPointExtension>
        </extensions>
      </trkpt>
      <trkpt lat="45.26616741903126239776611328125" lon="-71.18388793431222438812255859375">
        <ele>553.20001220703125</ele>
        <time>2026-08-22T03:50:44.000Z</time>
        <extensions>
          <ns3:TrackPointExtension>
            <ns3:hr>136</ns3:hr>
            <ns3:cad>82</ns3:cad>
          </ns3:TrackPointExtension>
        </extensions>
      </trkpt>
      <trkpt lat="45.26614579372107982635498046875" lon="-71.18389162234961986541748046875">
        <ele>553.4000244140625</ele>
        <time>2026-08-22T03:50:45.000Z</time>
        <extensions>
          <ns3:TrackPointExtension>
            <ns3:hr>137</ns3:hr>
            <ns3:cad>82</ns3:cad>
          </ns3:TrackPointExtension>
        </extensions>
      </trkpt>
      <trkpt lat="45.266123749315738677978515625" lon="-71.183893382549285888671875">
        <ele>553.4000244140625</ele>
        <time>2026-08-22T03:50:46.000Z</time>
        <extensions>
          <ns3:TrackPointExtension>
            <ns3:hr>137</ns3:hr>
            <ns3:cad>80</ns3:cad>
          </ns3:TrackPointExtension>
        </extensions>
      </trkpt>
      <trkpt lat="45.26609885506331920623779296875" lon="-71.18389396928250789642333984375">
        <ele>553.5999755859375</ele>
        <time>2026-08-22T03:50:47.000Z</time>
        <extensions>
          <ns3:TrackPointExtension>
            <ns3:hr>137</ns3:hr>
            <ns3:cad>80</ns3:cad>
          </ns3:TrackPointExtension>
        </extensions>
      </trkpt>
      <trkpt lat="45.2660783194005489349365234375" lon="-71.18389430455863475799560546875">
        <ele>553.5999755859375</ele>
        <time>2026-08-22T03:50:48.000Z</time>
        <extensions>
          <ns3:TrackPointExtension>
            <ns3:hr>138</ns3:hr>
            <ns3:cad>80</ns3:cad>
          </ns3:TrackPointExtension>
        </extensions>
      </trkpt>
      <trkpt lat="45.26605702936649322509765625" lon="-71.1838898621499538421630859375">
        <ele>553.5999755859375</ele>
        <time>2026-08-22T03:50:49.000Z</time>
        <extensions>
          <ns3:TrackPointExtension>
            <ns3:hr>138</ns3:hr>
            <ns3:cad>80</ns3:cad>
          </ns3:TrackPointExtension>
        </extensions>
      </trkpt>
      <trkpt lat="45.266034565865993499755859375" lon="-71.18389262817800045013427734375">
        <ele>553.79998779296875</ele>
        <time>2026-08-22T03:50:50.000Z</time>
        <extensions>
          <ns3:TrackPointExtension>
            <ns3:hr>138</ns3:hr>
            <ns3:cad>80</ns3:cad>
          </ns3:TrackPointExtension>
        </extensions>
      </trkpt>
      <trkpt lat="45.26601084508001804351806640625" lon="-71.18389681912958621978759765625">
        <ele>554</ele>
        <time>2026-08-22T03:50:51.000Z</time>
        <extensions>
          <ns3:TrackPointExtension>
            <ns3:hr>138</ns3:hr>
            <ns3:cad>81</ns3:cad>
          </ns3:TrackPointExtension>
        </extensions>
      </trkpt>
      <trkpt lat="45.26598863303661346435546875" lon="-71.1838989146053791046142578125">
        <ele>554</ele>
        <time>2026-08-22T03:50:52.000Z</time>
        <extensions>
          <ns3:TrackPointExtension>
            <ns3:hr>138</ns3:hr>
            <ns3:cad>81</ns3:cad>
          </ns3:TrackPointExtension>
        </extensions>
      </trkpt>
      <trkpt lat="45.26596876792609691619873046875" lon="-71.18390436284244060516357421875">
        <ele>554.20001220703125</ele>
        <time>2026-08-22T03:50:53.000Z</time>
        <extensions>
          <ns3:TrackPointExtension>
            <ns3:hr>139</ns3:hr>
            <ns3:cad>81</ns3:cad>
          </ns3:TrackPointExtension>
        </extensions>
      </trkpt>
      <trkpt lat="45.265949070453643798828125" lon="-71.1839083023369312286376953125">
        <ele>554.20001220703125</ele>
        <time>2026-08-22T03:50:54.000Z</time>
        <extensions>
          <ns3:TrackPointExtension>
            <ns3:hr>138</ns3:hr>
            <ns3:cad>81</ns3:cad>
          </ns3:TrackPointExtension>
        </extensions>
      </trkpt>
      <trkpt lat="45.2659230865538120269775390625" lon="-71.18391056545078754425048828125">
        <ele>554.4000244140625</ele>
        <time>2026-08-22T03:50:55.000Z</time>
        <extensions>
          <ns3:TrackPointExtension>
            <ns3:hr>138</ns3:hr>
            <ns3:cad>81</ns3:cad>
          </ns3:TrackPointExtension>
        </extensions>
      </trkpt>
      <trkpt lat="45.26590120978653430938720703125" lon="-71.18390955962240695953369140625">
        <ele>554.4000244140625</ele>
        <time>2026-08-22T03:50:56.000Z</time>
        <extensions>
          <ns3:TrackPointExtension>
            <ns3:hr>139</ns3:hr>
            <ns3:cad>81</ns3:cad>
          </ns3:TrackPointExtension>
        </extensions>
      </trkpt>
      <trkpt lat="45.265873968601226806640625" lon="-71.18391777388751506805419921875">
        <ele>554.4000244140625</ele>
        <time>2026-08-22T03:50:57.000Z</time>
        <extensions>
          <ns3:TrackPointExtension>
            <ns3:hr>139</ns3:hr>
            <ns3:cad>81</ns3:cad>
          </ns3:TrackPointExtension>
        </extensions>
      </trkpt>
      <trkpt lat="45.26585242711007595062255859375" lon="-71.18391509167850017547607421875">
        <ele>554.5999755859375</ele>
        <time>2026-08-22T03:50:58.000Z</time>
        <extensions>
          <ns3:TrackPointExtension>
            <ns3:hr>138</ns3:hr>
            <ns3:cad>81</ns3:cad>
          </ns3:TrackPointExtension>
        </extensions>
      </trkpt>
      <trkpt lat="45.26583381928503513336181640625" lon="-71.1839146725833415985107421875">
        <ele>554.5999755859375</ele>
        <time>2026-08-22T03:50:59.000Z</time>
        <extensions>
          <ns3:TrackPointExtension>
            <ns3:hr>138</ns3:hr>
            <ns3:cad>81</ns3:cad>
          </ns3:TrackPointExtension>
        </extensions>
      </trkpt>
      <trkpt lat="45.26581252925097942352294921875" lon="-71.1839150078594684600830078125">
        <ele>554.79998779296875</ele>
        <time>2026-08-22T03:51:00.000Z</time>
        <extensions>
          <ns3:TrackPointExtension>
            <ns3:hr>139</ns3:hr>
            <ns3:cad>82</ns3:cad>
          </ns3:TrackPointExtension>
        </extensions>
      </trkpt>
      <trkpt lat="45.2657899819314479827880859375" lon="-71.18391877971589565277099609375">
        <ele>555</ele>
        <time>2026-08-22T03:51:01.000Z</time>
        <extensions>
          <ns3:TrackPointExtension>
            <ns3:hr>139</ns3:hr>
            <ns3:cad>82</ns3:cad>
          </ns3:TrackPointExtension>
        </extensions>
      </trkpt>
      <trkpt lat="45.2657707035541534423828125" lon="-71.1839254014194011688232421875">
        <ele>555.20001220703125</ele>
        <time>2026-08-22T03:51:02.000Z</time>
        <extensions>
          <ns3:TrackPointExtension>
            <ns3:hr>139</ns3:hr>
            <ns3:cad>81</ns3:cad>
          </ns3:TrackPointExtension>
        </extensions>
      </trkpt>
      <trkpt lat="45.26575125753879547119140625" lon="-71.18392716161906719207763671875">
        <ele>555.4000244140625</ele>
        <time>2026-08-22T03:51:03.000Z</time>
        <extensions>
          <ns3:TrackPointExtension>
            <ns3:hr>140</ns3:hr>
            <ns3:cad>81</ns3:cad>
          </ns3:TrackPointExtension>
        </extensions>
      </trkpt>
      <trkpt lat="45.26572820730507373809814453125" lon="-71.18393034674227237701416015625">
        <ele>555.5999755859375</ele>
        <time>2026-08-22T03:51:04.000Z</time>
        <extensions>
          <ns3:TrackPointExtension>
            <ns3:hr>141</ns3:hr>
            <ns3:cad>81</ns3:cad>
          </ns3:TrackPointExtension>
        </extensions>
      </trkpt>
      <trkpt lat="45.26570742018520832061767578125" lon="-71.18393504060804843902587890625">
        <ele>555.5999755859375</ele>
        <time>2026-08-22T03:51:05.000Z</time>
        <extensions>
          <ns3:TrackPointExtension>
            <ns3:hr>141</ns3:hr>
            <ns3:cad>81</ns3:cad>
          </ns3:TrackPointExtension>
        </extensions>
      </trkpt>
      <trkpt lat="45.26568822562694549560546875" lon="-71.1839374713599681854248046875">
        <ele>555.79998779296875</ele>
        <time>2026-08-22T03:51:06.000Z</time>
        <extensions>
          <ns3:TrackPointExtension>
            <ns3:hr>141</ns3:hr>
            <ns3:cad>81</ns3:cad>
          </ns3:TrackPointExtension>
        </extensions>
      </trkpt>
      <trkpt lat="45.265664756298065185546875" lon="-71.18393973447382450103759765625">
        <ele>556</ele>
        <time>2026-08-22T03:51:07.000Z</time>
        <extensions>
          <ns3:TrackPointExtension>
            <ns3:hr>141</ns3:hr>
            <ns3:cad>81</ns3:cad>
          </ns3:TrackPointExtension>
        </extensions>
      </trkpt>
      <trkpt lat="45.2656444720923900604248046875" lon="-71.1839430034160614013671875">
        <ele>556</ele>
        <time>2026-08-22T03:51:08.000Z</time>
        <extensions>
          <ns3:TrackPointExtension>
            <ns3:hr>141</ns3:hr>
            <ns3:cad>81</ns3:cad>
          </ns3:TrackPointExtension>
        </extensions>
      </trkpt>
      <trkpt lat="45.26562678627669811248779296875" lon="-71.1839430034160614013671875">
        <ele>556.20001220703125</ele>
        <time>2026-08-22T03:51:09.000Z</time>
        <extensions>
          <ns3:TrackPointExtension>
            <ns3:hr>141</ns3:hr>
            <ns3:cad>81</ns3:cad>
          </ns3:TrackPointExtension>
        </extensions>
      </trkpt>
      <trkpt lat="45.26560180820524692535400390625" lon="-71.18394359014928340911865234375">
        <ele>556.4000244140625</ele>
        <time>2026-08-22T03:51:10.000Z</time>
        <extensions>
          <ns3:TrackPointExtension>
            <ns3:hr>141</ns3:hr>
            <ns3:cad>81</ns3:cad>
          </ns3:TrackPointExtension>
        </extensions>
      </trkpt>
      <trkpt lat="45.26557817123830318450927734375" lon="-71.18394409306347370147705078125">
        <ele>556.4000244140625</ele>
        <time>2026-08-22T03:51:11.000Z</time>
        <extensions>
          <ns3:TrackPointExtension>
            <ns3:hr>141</ns3:hr>
            <ns3:cad>81</ns3:cad>
          </ns3:TrackPointExtension>
        </extensions>
      </trkpt>
      <trkpt lat="45.26555822230875492095947265625" lon="-71.183947026729583740234375">
        <ele>556.5999755859375</ele>
        <time>2026-08-22T03:51:12.000Z</time>
        <extensions>
          <ns3:TrackPointExtension>
            <ns3:hr>141</ns3:hr>
            <ns3:cad>79</ns3:cad>
          </ns3:TrackPointExtension>
        </extensions>
      </trkpt>
      <trkpt lat="45.26553559117019176483154296875" lon="-71.1839485354721546173095703125">
        <ele>556.5999755859375</ele>
        <time>2026-08-22T03:51:13.000Z</time>
        <extensions>
          <ns3:TrackPointExtension>
            <ns3:hr>141</ns3:hr>
            <ns3:cad>79</ns3:cad>
          </ns3:TrackPointExtension>
        </extensions>
      </trkpt>
      <trkpt lat="45.26551111601293087005615234375" lon="-71.18395079858601093292236328125">
        <ele>556.5999755859375</ele>
        <time>2026-08-22T03:51:14.000Z</time>
        <extensions>
          <ns3:TrackPointExtension>
            <ns3:hr>141</ns3:hr>
            <ns3:cad>79</ns3:cad>
          </ns3:TrackPointExtension>
        </extensions>
      </trkpt>
      <trkpt lat="45.2654915861785411834716796875" lon="-71.1839451827108860015869140625">
        <ele>556.5999755859375</ele>
        <time>2026-08-22T03:51:15.000Z</time>
        <extensions>
          <ns3:TrackPointExtension>
            <ns3:hr>141</ns3:hr>
            <ns3:cad>79</ns3:cad>
          </ns3:TrackPointExtension>
        </extensions>
      </trkpt>
      <trkpt lat="45.26546903885900974273681640625" lon="-71.1839448474347591400146484375">
        <ele>556.79998779296875</ele>
        <time>2026-08-22T03:51:16.000Z</time>
        <extensions>
          <ns3:TrackPointExtension>
            <ns3:hr>141</ns3:hr>
            <ns3:cad>81</ns3:cad>
          </ns3:TrackPointExtension>
        </extensions>
      </trkpt>
      <trkpt lat="45.265447162091732025146484375" lon="-71.18394861929118633270263671875">
        <ele>556.79998779296875</ele>
        <time>2026-08-22T03:51:17.000Z</time>
        <extensions>
          <ns3:TrackPointExtension>
            <ns3:hr>141</ns3:hr>
            <ns3:cad>81</ns3:cad>
          </ns3:TrackPointExtension>
        </extensions>
      </trkpt>
      <trkpt lat="45.2654302306473255157470703125" lon="-71.18395096622407436370849609375">
        <ele>557</ele>
        <time>2026-08-22T03:51:18.000Z</time>
        <extensions>
          <ns3:TrackPointExtension>
            <ns3:hr>142</ns3:hr>
            <ns3:cad>81</ns3:cad>
          </ns3:TrackPointExtension>
        </extensions>
      </trkpt>
      <trkpt lat="45.26540583930909633636474609375" lon="-71.1839508824050426483154296875">
        <ele>557.20001220703125</ele>
        <time>2026-08-22T03:51:19.000Z</time>
        <extensions>
          <ns3:TrackPointExtension>
            <ns3:hr>142</ns3:hr>
            <ns3:cad>81</ns3:cad>
          </ns3:TrackPointExtension>
        </extensions>
      </trkpt>
      <trkpt lat="45.26538312435150146484375" lon="-71.18395281024277210235595703125">
        <ele>557.4000244140625</ele>
        <time>2026-08-22T03:51:20.000Z</time>
        <extensions>
          <ns3:TrackPointExtension>
            <ns3:hr>143</ns3:hr>
            <ns3:cad>81</ns3:cad>
          </ns3:TrackPointExtension>
        </extensions>
      </trkpt>
      <trkpt lat="45.26536409743130207061767578125" lon="-71.18395415134727954864501953125">
        <ele>557.5999755859375</ele>
        <time>2026-08-22T03:51:21.000Z</time>
        <extensions>
          <ns3:TrackPointExtension>
            <ns3:hr>143</ns3:hr>
            <ns3:cad>81</ns3:cad>
          </ns3:TrackPointExtension>
        </extensions>
      </trkpt>
      <trkpt lat="45.26534020900726318359375" lon="-71.18395440280437469482421875">
        <ele>557.79998779296875</ele>
        <time>2026-08-22T03:51:22.000Z</time>
        <extensions>
          <ns3:TrackPointExtension>
            <ns3:hr>143</ns3:hr>
            <ns3:cad>81</ns3:cad>
          </ns3:TrackPointExtension>
        </extensions>
      </trkpt>
      <trkpt lat="45.26531866751611232757568359375" lon="-71.18395842611789703369140625">
        <ele>558</ele>
        <time>2026-08-22T03:51:23.000Z</time>
        <extensions>
          <ns3:TrackPointExtension>
            <ns3:hr>143</ns3:hr>
            <ns3:cad>81</ns3:cad>
          </ns3:TrackPointExtension>
        </extensions>
      </trkpt>
      <trkpt lat="45.26530324481427669525146484375" lon="-71.1839606054127216339111328125">
        <ele>558</ele>
        <time>2026-08-22T03:51:24.000Z</time>
        <extensions>
          <ns3:TrackPointExtension>
            <ns3:hr>143</ns3:hr>
            <ns3:cad>81</ns3:cad>
          </ns3:TrackPointExtension>
        </extensions>
      </trkpt>
      <trkpt lat="45.26528044603765010833740234375" lon="-71.1839629523456096649169921875">
        <ele>558.20001220703125</ele>
        <time>2026-08-22T03:51:25.000Z</time>
        <extensions>
          <ns3:TrackPointExtension>
            <ns3:hr>143</ns3:hr>
            <ns3:cad>81</ns3:cad>
          </ns3:TrackPointExtension>
        </extensions>
      </trkpt>
      <trkpt lat="45.2652625925838947296142578125" lon="-71.18396571837365627288818359375">
        <ele>558.4000244140625</ele>
        <time>2026-08-22T03:51:26.000Z</time>
        <extensions>
          <ns3:TrackPointExtension>
            <ns3:hr>143</ns3:hr>
            <ns3:cad>40</ns3:cad>
          </ns3:TrackPointExtension>
        </extensions>
      </trkpt>
      <trkpt lat="45.2652461640536785125732421875" lon="-71.183966808021068572998046875">
        <ele>558.4000244140625</ele>
        <time>2026-08-22T03:51:27.000Z</time>
        <extensions>
          <ns3:TrackPointExtension>
            <ns3:hr>143</ns3:hr>
            <ns3:cad>40</ns3:cad>
          </ns3:TrackPointExtension>
        </extensions>
      </trkpt>
      <trkpt lat="45.26522286236286163330078125" lon="-71.1839703284204006195068359375">
        <ele>558.4000244140625</ele>
        <time>2026-08-22T03:51:28.000Z</time>
        <extensions>
          <ns3:TrackPointExtension>
            <ns3:hr>143</ns3:hr>
            <ns3:cad>79</ns3:cad>
          </ns3:TrackPointExtension>
        </extensions>
      </trkpt>
      <trkpt lat="45.26520601473748683929443359375" lon="-71.18396873585879802703857421875">
        <ele>558.5999755859375</ele>
        <time>2026-08-22T03:51:29.000Z</time>
        <extensions>
          <ns3:TrackPointExtension>
            <ns3:hr>143</ns3:hr>
            <ns3:cad>79</ns3:cad>
          </ns3:TrackPointExtension>
        </extensions>
      </trkpt>
      <trkpt lat="45.265188328921794891357421875" lon="-71.18397049605846405029296875">
        <ele>558.5999755859375</ele>
        <time>2026-08-22T03:51:30.000Z</time>
        <extensions>
          <ns3:TrackPointExtension>
            <ns3:hr>143</ns3:hr>
            <ns3:cad>79</ns3:cad>
          </ns3:TrackPointExtension>
        </extensions>
      </trkpt>
      <trkpt lat="45.26516393758356571197509765625" lon="-71.1839743517339229583740234375">
        <ele>558.79998779296875</ele>
        <time>2026-08-22T03:51:31.000Z</time>
        <extensions>
          <ns3:TrackPointExtension>
            <ns3:hr>143</ns3:hr>
            <ns3:cad>79</ns3:cad>
          </ns3:TrackPointExtension>
        </extensions>
      </trkpt>
      <trkpt lat="45.26514281518757343292236328125" lon="-71.1839736811816692352294921875">
        <ele>558.79998779296875</ele>
        <time>2026-08-22T03:51:32.000Z</time>
        <extensions>
          <ns3:TrackPointExtension>
            <ns3:hr>143</ns3:hr>
            <ns3:cad>79</ns3:cad>
          </ns3:TrackPointExtension>
        </extensions>
      </trkpt>
      <trkpt lat="45.26512362062931060791015625" lon="-71.18397443555295467376708984375">
        <ele>559</ele>
        <time>2026-08-22T03:51:33.000Z</time>
        <extensions>
          <ns3:TrackPointExtension>
            <ns3:hr>143</ns3:hr>
            <ns3:cad>79</ns3:cad>
          </ns3:TrackPointExtension>
        </extensions>
      </trkpt>
      <trkpt lat="45.26510140858590602874755859375" lon="-71.183976866304874420166015625">
        <ele>559.20001220703125</ele>
        <time>2026-08-22T03:51:34.000Z</time>
        <extensions>
          <ns3:TrackPointExtension>
            <ns3:hr>144</ns3:hr>
            <ns3:cad>79</ns3:cad>
          </ns3:TrackPointExtension>
        </extensions>
      </trkpt>
      <trkpt lat="45.265079028904438018798828125" lon="-71.18397862650454044342041015625">
        <ele>559.4000244140625</ele>
        <time>2026-08-22T03:51:35.000Z</time>
        <extensions>
          <ns3:TrackPointExtension>
            <ns3:hr>144</ns3:hr>
            <ns3:cad>79</ns3:cad>
          </ns3:TrackPointExtension>
        </extensions>
      </trkpt>
      <trkpt lat="45.26506033726036548614501953125" lon="-71.183978207409381866455078125">
        <ele>559.4000244140625</ele>
        <time>2026-08-22T03:51:36.000Z</time>
        <extensions>
          <ns3:TrackPointExtension>
            <ns3:hr>144</ns3:hr>
            <ns3:cad>79</ns3:cad>
          </ns3:TrackPointExtension>
        </extensions>
      </trkpt>
      <trkpt lat="45.26503804139792919158935546875" lon="-71.18397929705679416656494140625">
        <ele>559.5999755859375</ele>
        <time>2026-08-22T03:51:37.000Z</time>
        <extensions>
          <ns3:TrackPointExtension>
            <ns3:hr>145</ns3:hr>
            <ns3:cad>79</ns3:cad>
          </ns3:TrackPointExtension>
        </extensions>
      </trkpt>
      <trkpt lat="45.26501775719225406646728515625" lon="-71.18398147635161876678466796875">
        <ele>559.5999755859375</ele>
        <time>2026-08-22T03:51:38.000Z</time>
        <extensions>
          <ns3:TrackPointExtension>
            <ns3:hr>145</ns3:hr>
            <ns3:cad>80</ns3:cad>
          </ns3:TrackPointExtension>
        </extensions>
      </trkpt>
      <trkpt lat="45.264998562633991241455078125" lon="-71.183982901275157928466796875">
        <ele>559.5999755859375</ele>
        <time>2026-08-22T03:51:39.000Z</time>
        <extensions>
          <ns3:TrackPointExtension>
            <ns3:hr>145</ns3:hr>
            <ns3:cad>80</ns3:cad>
          </ns3:TrackPointExtension>
        </extensions>
      </trkpt>
      <trkpt lat="45.2649745903909206390380859375" lon="-71.183984912931919097900390625">
        <ele>559.79998779296875</ele>
        <time>2026-08-22T03:51:40.000Z</time>
        <extensions>
          <ns3:TrackPointExtension>
            <ns3:hr>145</ns3:hr>
            <ns3:cad>80</ns3:cad>
          </ns3:TrackPointExtension>
        </extensions>
      </trkpt>
      <trkpt lat="45.2649511210620403289794921875" lon="-71.1839860863983631134033203125">
        <ele>559.79998779296875</ele>
        <time>2026-08-22T03:51:41.000Z</time>
        <extensions>
          <ns3:TrackPointExtension>
            <ns3:hr>145</ns3:hr>
            <ns3:cad>80</ns3:cad>
          </ns3:TrackPointExtension>
        </extensions>
      </trkpt>
      <trkpt lat="45.26493326760828495025634765625" lon="-71.183985583484172821044921875">
        <ele>560</ele>
        <time>2026-08-22T03:51:42.000Z</time>
        <extensions>
          <ns3:TrackPointExtension>
            <ns3:hr>144</ns3:hr>
            <ns3:cad>80</ns3:cad>
          </ns3:TrackPointExtension>
        </extensions>
      </trkpt>
      <trkpt lat="45.26490678079426288604736328125" lon="-71.18398667313158512115478515625">
        <ele>560</ele>
        <time>2026-08-22T03:51:43.000Z</time>
        <extensions>
          <ns3:TrackPointExtension>
            <ns3:hr>145</ns3:hr>
            <ns3:cad>80</ns3:cad>
          </ns3:TrackPointExtension>
        </extensions>
      </trkpt>
      <trkpt lat="45.26488482020795345306396484375" lon="-71.1839891038835048675537109375">
        <ele>560.20001220703125</ele>
        <time>2026-08-22T03:51:44.000Z</time>
        <extensions>
          <ns3:TrackPointExtension>
            <ns3:hr>145</ns3:hr>
            <ns3:cad>80</ns3:cad>
          </ns3:TrackPointExtension>
        </extensions>
      </trkpt>
      <trkpt lat="45.26486721821129322052001953125" lon="-71.18399136699736118316650390625">
        <ele>560.20001220703125</ele>
        <time>2026-08-22T03:51:45.000Z</time>
        <extensions>
          <ns3:TrackPointExtension>
            <ns3:hr>146</ns3:hr>
            <ns3:cad>80</ns3:cad>
          </ns3:TrackPointExtension>
        </extensions>
      </trkpt>
      <trkpt lat="45.26484743691980838775634765625" lon="-71.18399388156831264495849609375">
        <ele>560.4000244140625</ele>
        <time>2026-08-22T03:51:46.000Z</time>
        <extensions>
          <ns3:TrackPointExtension>
            <ns3:hr>146</ns3:hr>
            <ns3:cad>80</ns3:cad>
          </ns3:TrackPointExtension>
        </extensions>
      </trkpt>
      <trkpt lat="45.264825560152530670166015625" lon="-71.18399572558701038360595703125">
        <ele>560.4000244140625</ele>
        <time>2026-08-22T03:51:47.000Z</time>
        <extensions>
          <ns3:TrackPointExtension>
            <ns3:hr>146</ns3:hr>
            <ns3:cad>81</ns3:cad>
          </ns3:TrackPointExtension>
        </extensions>
      </trkpt>
      <trkpt lat="45.26480753906071186065673828125" lon="-71.18399756960570812225341796875">
        <ele>560.5999755859375</ele>
        <time>2026-08-22T03:51:48.000Z</time>
        <extensions>
          <ns3:TrackPointExtension>
            <ns3:hr>146</ns3:hr>
            <ns3:cad>81</ns3:cad>
          </ns3:TrackPointExtension>
        </extensions>
      </trkpt>
      <trkpt lat="45.264783985912799835205078125" lon="-71.18399840779602527618408203125">
        <ele>560.5999755859375</ele>
        <time>2026-08-22T03:51:49.000Z</time>
        <extensions>
          <ns3:TrackPointExtension>
            <ns3:hr>146</ns3:hr>
            <ns3:cad>79</ns3:cad>
          </ns3:TrackPointExtension>
        </extensions>
      </trkpt>
      <trkpt lat="45.26476412080228328704833984375" lon="-71.18399865925312042236328125">
        <ele>560.79998779296875</ele>
        <time>2026-08-22T03:51:50.000Z</time>
        <extensions>
          <ns3:TrackPointExtension>
            <ns3:hr>146</ns3:hr>
            <ns3:cad>79</ns3:cad>
          </ns3:TrackPointExtension>
        </extensions>
      </trkpt>
      <trkpt lat="45.264747776091098785400390625" lon="-71.1839978210628032684326171875">
        <ele>560.79998779296875</ele>
        <time>2026-08-22T03:51:51.000Z</time>
        <extensions>
          <ns3:TrackPointExtension>
            <ns3:hr>146</ns3:hr>
            <ns3:cad>79</ns3:cad>
          </ns3:TrackPointExtension>
        </extensions>
      </trkpt>
      <trkpt lat="45.26472405530512332916259765625" lon="-71.18400008417665958404541015625">
        <ele>561</ele>
        <time>2026-08-22T03:51:52.000Z</time>
        <extensions>
          <ns3:TrackPointExtension>
            <ns3:hr>146</ns3:hr>
            <ns3:cad>79</ns3:cad>
          </ns3:TrackPointExtension>
        </extensions>
      </trkpt>
      <trkpt lat="45.26470343582332134246826171875" lon="-71.18400444276630878448486328125">
        <ele>561</ele>
        <time>2026-08-22T03:51:53.000Z</time>
        <extensions>
          <ns3:TrackPointExtension>
            <ns3:hr>146</ns3:hr>
            <ns3:cad>79</ns3:cad>
          </ns3:TrackPointExtension>
        </extensions>
      </trkpt>
      <trkpt lat="45.26468650437891483306884765625" lon="-71.1840038560330867767333984375">
        <ele>561.20001220703125</ele>
        <time>2026-08-22T03:51:54.000Z</time>
        <extensions>
          <ns3:TrackPointExtension>
            <ns3:hr>146</ns3:hr>
            <ns3:cad>79</ns3:cad>
          </ns3:TrackPointExtension>
        </extensions>
      </trkpt>
      <trkpt lat="45.26466437615454196929931640625" lon="-71.18400645442306995391845703125">
        <ele>561.4000244140625</ele>
        <time>2026-08-22T03:51:55.000Z</time>
        <extensions>
          <ns3:TrackPointExtension>
            <ns3:hr>146</ns3:hr>
            <ns3:cad>79</ns3:cad>
          </ns3:TrackPointExtension>
        </extensions>
      </trkpt>
      <trkpt lat="45.26464392431080341339111328125" lon="-71.18400804698467254638671875">
        <ele>561.4000244140625</ele>
        <time>2026-08-22T03:51:56.000Z</time>
        <extensions>
          <ns3:TrackPointExtension>
            <ns3:hr>146</ns3:hr>
            <ns3:cad>79</ns3:cad>
          </ns3:TrackPointExtension>
        </extensions>
      </trkpt>
      <trkpt lat="45.26462196372449398040771484375" lon="-71.184010393917560577392578125">
        <ele>561.5999755859375</ele>
        <time>2026-08-22T03:51:57.000Z</time>
        <extensions>
          <ns3:TrackPointExtension>
            <ns3:hr>146</ns3:hr>
            <ns3:cad>79</ns3:cad>
          </ns3:TrackPointExtension>
        </extensions>
      </trkpt>
      <trkpt lat="45.26459983550012111663818359375" lon="-71.1840154230594635009765625">
        <ele>561.5999755859375</ele>
        <time>2026-08-22T03:51:58.000Z</time>
        <extensions>
          <ns3:TrackPointExtension>
            <ns3:hr>145</ns3:hr>
            <ns3:cad>79</ns3:cad>
          </ns3:TrackPointExtension>
        </extensions>
      </trkpt>
      <trkpt lat="45.2645732648670673370361328125" lon="-71.18401416577398777008056640625">
        <ele>561.5999755859375</ele>
        <time>2026-08-22T03:51:59.000Z</time>
        <extensions>
          <ns3:TrackPointExtension>
            <ns3:hr>144</ns3:hr>
            <ns3:cad>80</ns3:cad>
          </ns3:TrackPointExtension>
        </extensions>
      </trkpt>
      <trkpt lat="45.2645544894039630889892578125" lon="-71.18401483632624149322509765625">
        <ele>561.79998779296875</ele>
        <time>2026-08-22T03:52:00.000Z</time>
        <extensions>
          <ns3:TrackPointExtension>
            <ns3:hr>143</ns3:hr>
            <ns3:cad>80</ns3:cad>
          </ns3:TrackPointExtension>
        </extensions>
      </trkpt>
      <trkpt lat="45.26453479193150997161865234375" lon="-71.18401651270687580108642578125">
        <ele>561.79998779296875</ele>
        <time>2026-08-22T03:52:01.000Z</time>
        <extensions>
          <ns3:TrackPointExtension>
            <ns3:hr>144</ns3:hr>
            <ns3:cad>80</ns3:cad>
          </ns3:TrackPointExtension>
        </extensions>
      </trkpt>
      <trkpt lat="45.26451081968843936920166015625" lon="-71.18401802144944667816162109375">
        <ele>561.79998779296875</ele>
        <time>2026-08-22T03:52:02.000Z</time>
        <extensions>
          <ns3:TrackPointExtension>
            <ns3:hr>144</ns3:hr>
            <ns3:cad>80</ns3:cad>
          </ns3:TrackPointExtension>
        </extensions>
      </trkpt>
      <trkpt lat="45.2644894458353519439697265625" lon="-71.1840176023542881011962890625">
        <ele>562</ele>
        <time>2026-08-22T03:52:03.000Z</time>
        <extensions>
          <ns3:TrackPointExtension>
            <ns3:hr>144</ns3:hr>
            <ns3:cad>80</ns3:cad>
          </ns3:TrackPointExtension>
        </extensions>
      </trkpt>
      <trkpt lat="45.264468155801296234130859375" lon="-71.18402011692523956298828125">
        <ele>562</ele>
        <time>2026-08-22T03:52:04.000Z</time>
        <extensions>
          <ns3:TrackPointExtension>
            <ns3:hr>144</ns3:hr>
            <ns3:cad>80</ns3:cad>
          </ns3:TrackPointExtension>
        </extensions>
      </trkpt>
      <trkpt lat="45.264447033405303955078125" lon="-71.1840222962200641632080078125">
        <ele>562.20001220703125</ele>
        <time>2026-08-22T03:52:05.000Z</time>
        <extensions>
          <ns3:TrackPointExtension>
            <ns3:hr>144</ns3:hr>
            <ns3:cad>80</ns3:cad>
          </ns3:TrackPointExtension>
        </extensions>
      </trkpt>
      <trkpt lat="45.26442599482834339141845703125" lon="-71.184030510485172271728515625">
        <ele>562.20001220703125</ele>
        <time>2026-08-22T03:52:06.000Z</time>
        <extensions>
          <ns3:TrackPointExtension>
            <ns3:hr>144</ns3:hr>
            <ns3:cad>81</ns3:cad>
          </ns3:TrackPointExtension>
        </extensions>
      </trkpt>
      <trkpt lat="45.264409147202968597412109375" lon="-71.1840286664664745330810546875">
        <ele>562.4000244140625</ele>
        <time>2026-08-22T03:52:07.000Z</time>
        <extensions>
          <ns3:TrackPointExtension>
            <ns3:hr>144</ns3:hr>
            <ns3:cad>81</ns3:cad>
          </ns3:TrackPointExtension>
        </extensions>
      </trkpt>
      <trkpt lat="45.26438576169312000274658203125" lon="-71.18403243832290172576904296875">
        <ele>562.5999755859375</ele>
        <time>2026-08-22T03:52:08.000Z</time>
        <extensions>
          <ns3:TrackPointExtension>
            <ns3:hr>144</ns3:hr>
            <ns3:cad>81</ns3:cad>
          </ns3:TrackPointExtension>
        </extensions>
      </trkpt>
      <trkpt lat="45.2643650583922863006591796875" lon="-71.18403579108417034149169921875">
        <ele>562.79998779296875</ele>
        <time>2026-08-22T03:52:09.000Z</time>
        <extensions>
          <ns3:TrackPointExtension>
            <ns3:hr>144</ns3:hr>
            <ns3:cad>80</ns3:cad>
          </ns3:TrackPointExtension>
        </extensions>
      </trkpt>
      <trkpt lat="45.26435122825205326080322265625" lon="-71.18403830565512180328369140625">
        <ele>563</ele>
        <time>2026-08-22T03:52:10.000Z</time>
        <extensions>
          <ns3:TrackPointExtension>
            <ns3:hr>144</ns3:hr>
            <ns3:cad>80</ns3:cad>
          </ns3:TrackPointExtension>
        </extensions>
      </trkpt>
      <trkpt lat="45.264326669275760650634765625" lon="-71.18404090404510498046875">
        <ele>563.20001220703125</ele>
        <time>2026-08-22T03:52:11.000Z</time>
        <extensions>
          <ns3:TrackPointExtension>
            <ns3:hr>145</ns3:hr>
            <ns3:cad>81</ns3:cad>
          </ns3:TrackPointExtension>
        </extensions>
      </trkpt>
      <trkpt lat="45.26430613361299037933349609375" lon="-71.1840434186160564422607421875">
        <ele>563.20001220703125</ele>
        <time>2026-08-22T03:52:12.000Z</time>
        <extensions>
          <ns3:TrackPointExtension>
            <ns3:hr>145</ns3:hr>
            <ns3:cad>81</ns3:cad>
          </ns3:TrackPointExtension>
        </extensions>
      </trkpt>
      <trkpt lat="45.26428811252117156982421875" lon="-71.18404635228216648101806640625">
        <ele>563.5999755859375</ele>
        <time>2026-08-22T03:52:13.000Z</time>
        <extensions>
          <ns3:TrackPointExtension>
            <ns3:hr>145</ns3:hr>
            <ns3:cad>81</ns3:cad>
          </ns3:TrackPointExtension>
        </extensions>
      </trkpt>
      <trkpt lat="45.26426824741065502166748046875" lon="-71.1840491183102130889892578125">
        <ele>563.79998779296875</ele>
        <time>2026-08-22T03:52:14.000Z</time>
        <extensions>
          <ns3:TrackPointExtension>
            <ns3:hr>145</ns3:hr>
            <ns3:cad>81</ns3:cad>
          </ns3:TrackPointExtension>
        </extensions>
      </trkpt>
      <trkpt lat="45.2642487175762653350830078125" lon="-71.1840524710714817047119140625">
        <ele>563.79998779296875</ele>
        <time>2026-08-22T03:52:15.000Z</time>
        <extensions>
          <ns3:TrackPointExtension>
            <ns3:hr>145</ns3:hr>
            <ns3:cad>81</ns3:cad>
          </ns3:TrackPointExtension>
        </extensions>
      </trkpt>
      <trkpt lat="45.26423002593219280242919921875" lon="-71.18405993096530437469482421875">
        <ele>564</ele>
        <time>2026-08-22T03:52:16.000Z</time>
        <extensions>
          <ns3:TrackPointExtension>
            <ns3:hr>145</ns3:hr>
            <ns3:cad>80</ns3:cad>
          </ns3:TrackPointExtension>
        </extensions>
      </trkpt>
      <trkpt lat="45.26421342976391315460205078125" lon="-71.18406462483108043670654296875">
        <ele>564.20001220703125</ele>
        <time>2026-08-22T03:52:17.000Z</time>
        <extensions>
          <ns3:TrackPointExtension>
            <ns3:hr>146</ns3:hr>
            <ns3:cad>80</ns3:cad>
          </ns3:TrackPointExtension>
        </extensions>
      </trkpt>
      <trkpt lat="45.26419264264404773712158203125" lon="-71.18406697176396846771240234375">
        <ele>564.20001220703125</ele>
        <time>2026-08-22T03:52:18.000Z</time>
        <extensions>
          <ns3:TrackPointExtension>
            <ns3:hr>145</ns3:hr>
            <ns3:cad>80</ns3:cad>
          </ns3:TrackPointExtension>
        </extensions>
      </trkpt>
      <trkpt lat="45.26417336426675319671630859375" lon="-71.1840709112584590911865234375">
        <ele>564.4000244140625</ele>
        <time>2026-08-22T03:52:19.000Z</time>
        <extensions>
          <ns3:TrackPointExtension>
            <ns3:hr>145</ns3:hr>
            <ns3:cad>80</ns3:cad>
          </ns3:TrackPointExtension>
        </extensions>
      </trkpt>
      <trkpt lat="45.26415693573653697967529296875" lon="-71.18406848050653934478759765625">
        <ele>564.4000244140625</ele>
        <time>2026-08-22T03:52:20.000Z</time>
        <extensions>
          <ns3:TrackPointExtension>
            <ns3:hr>145</ns3:hr>
            <ns3:cad>79</ns3:cad>
          </ns3:TrackPointExtension>
        </extensions>
      </trkpt>
      <trkpt lat="45.26413883082568645477294921875" lon="-71.18407719768583774566650390625">
        <ele>564.4000244140625</ele>
        <time>2026-08-22T03:52:21.000Z</time>
        <extensions>
          <ns3:TrackPointExtension>
            <ns3:hr>145</ns3:hr>
            <ns3:cad>79</ns3:cad>
          </ns3:TrackPointExtension>
        </extensions>
      </trkpt>
      <trkpt lat="45.26412106119096279144287109375" lon="-71.1840823106467723846435546875">
        <ele>564.5999755859375</ele>
        <time>2026-08-22T03:52:22.000Z</time>
        <extensions>
          <ns3:TrackPointExtension>
            <ns3:hr>145</ns3:hr>
            <ns3:cad>79</ns3:cad>
          </ns3:TrackPointExtension>
        </extensions>
      </trkpt>
      <trkpt lat="45.26410329155623912811279296875" lon="-71.18408826179802417755126953125">
        <ele>564.5999755859375</ele>
        <time>2026-08-22T03:52:23.000Z</time>
        <extensions>
          <ns3:TrackPointExtension>
            <ns3:hr>145</ns3:hr>
            <ns3:cad>79</ns3:cad>
          </ns3:TrackPointExtension>
        </extensions>
      </trkpt>
      <trkpt lat="45.26407931931316852569580078125" lon="-71.18409253656864166259765625">
        <ele>564.79998779296875</ele>
        <time>2026-08-22T03:52:24.000Z</time>
        <extensions>
          <ns3:TrackPointExtension>
            <ns3:hr>145</ns3:hr>
            <ns3:cad>79</ns3:cad>
          </ns3:TrackPointExtension>
        </extensions>
      </trkpt>
      <trkpt lat="45.26405878365039825439453125" lon="-71.18409915827214717864990234375">
        <ele>564.79998779296875</ele>
        <time>2026-08-22T03:52:25.000Z</time>
        <extensions>
          <ns3:TrackPointExtension>
            <ns3:hr>145</ns3:hr>
            <ns3:cad>79</ns3:cad>
          </ns3:TrackPointExtension>
        </extensions>
      </trkpt>
      <trkpt lat="45.26404143311083316802978515625" lon="-71.184104941785335540771484375">
        <ele>565</ele>
        <time>2026-08-22T03:52:26.000Z</time>
        <extensions>
          <ns3:TrackPointExtension>
            <ns3:hr>145</ns3:hr>
            <ns3:cad>79</ns3:cad>
          </ns3:TrackPointExtension>
        </extensions>
      </trkpt>
      <trkpt lat="45.2640245854854583740234375" lon="-71.18410686962306499481201171875">
        <ele>565.20001220703125</ele>
        <time>2026-08-22T03:52:27.000Z</time>
        <extensions>
          <ns3:TrackPointExtension>
            <ns3:hr>146</ns3:hr>
            <ns3:cad>79</ns3:cad>
          </ns3:TrackPointExtension>
        </extensions>
      </trkpt>
      <trkpt lat="45.26400438509881496429443359375" lon="-71.18410904891788959503173828125">
        <ele>565.20001220703125</ele>
        <time>2026-08-22T03:52:28.000Z</time>
        <extensions>
          <ns3:TrackPointExtension>
            <ns3:hr>146</ns3:hr>
            <ns3:cad>79</ns3:cad>
          </ns3:TrackPointExtension>
        </extensions>
      </trkpt>
      <trkpt lat="45.2639875374734401702880859375" lon="-71.18411206640303134918212890625">
        <ele>565.4000244140625</ele>
        <time>2026-08-22T03:52:29.000Z</time>
        <extensions>
          <ns3:TrackPointExtension>
            <ns3:hr>146</ns3:hr>
            <ns3:cad>79</ns3:cad>
          </ns3:TrackPointExtension>
        </extensions>
      </trkpt>
      <trkpt lat="45.26396264322102069854736328125" lon="-71.18411759845912456512451171875">
        <ele>565.5999755859375</ele>
        <time>2026-08-22T03:52:30.000Z</time>
        <extensions>
          <ns3:TrackPointExtension>
            <ns3:hr>147</ns3:hr>
            <ns3:cad>79</ns3:cad>
          </ns3:TrackPointExtension>
        </extensions>
      </trkpt>
      <trkpt lat="45.26394076645374298095703125" lon="-71.1841200292110443115234375">
        <ele>565.79998779296875</ele>
        <time>2026-08-22T03:52:31.000Z</time>
        <extensions>
          <ns3:TrackPointExtension>
            <ns3:hr>147</ns3:hr>
            <ns3:cad>79</ns3:cad>
          </ns3:TrackPointExtension>
        </extensions>
      </trkpt>
      <trkpt lat="45.2639231644570827484130859375" lon="-71.1841201968491077423095703125">
        <ele>565.79998779296875</ele>
        <time>2026-08-22T03:52:32.000Z</time>
        <extensions>
          <ns3:TrackPointExtension>
            <ns3:hr>147</ns3:hr>
            <ns3:cad>79</ns3:cad>
          </ns3:TrackPointExtension>
        </extensions>
      </trkpt>
      <trkpt lat="45.26389776729047298431396484375" lon="-71.1841212026774883270263671875">
        <ele>566</ele>
        <time>2026-08-22T03:52:33.000Z</time>
        <extensions>
          <ns3:TrackPointExtension>
            <ns3:hr>148</ns3:hr>
            <ns3:cad>79</ns3:cad>
          </ns3:TrackPointExtension>
        </extensions>
      </trkpt>
      <trkpt lat="45.26387748308479785919189453125" lon="-71.18413067422807216644287109375">
        <ele>566.20001220703125</ele>
        <time>2026-08-22T03:52:34.000Z</time>
        <extensions>
          <ns3:TrackPointExtension>
            <ns3:hr>148</ns3:hr>
            <ns3:cad>78</ns3:cad>
          </ns3:TrackPointExtension>
        </extensions>
      </trkpt>
      <trkpt lat="45.26385837234556674957275390625" lon="-71.184136457741260528564453125">
        <ele>566.4000244140625</ele>
        <time>2026-08-22T03:52:35.000Z</time>
        <extensions>
          <ns3:TrackPointExtension>
            <ns3:hr>148</ns3:hr>
            <ns3:cad>78</ns3:cad>
          </ns3:TrackPointExtension>
        </extensions>
      </trkpt>
      <trkpt lat="45.26384077034890651702880859375" lon="-71.1841428279876708984375">
        <ele>566.5999755859375</ele>
        <time>2026-08-22T03:52:36.000Z</time>
        <extensions>
          <ns3:TrackPointExtension>
            <ns3:hr>148</ns3:hr>
            <ns3:cad>78</ns3:cad>
          </ns3:TrackPointExtension>
        </extensions>
      </trkpt>
      <trkpt lat="45.26381763629615306854248046875" lon="-71.1841453425586223602294921875">
        <ele>566.5999755859375</ele>
        <time>2026-08-22T03:52:37.000Z</time>
        <extensions>
          <ns3:TrackPointExtension>
            <ns3:hr>148</ns3:hr>
            <ns3:cad>79</ns3:cad>
          </ns3:TrackPointExtension>
        </extensions>
      </trkpt>
      <trkpt lat="45.26379265822470188140869140625" lon="-71.18414576165378093719482421875">
        <ele>566.5999755859375</ele>
        <time>2026-08-22T03:52:38.000Z</time>
        <extensions>
          <ns3:TrackPointExtension>
            <ns3:hr>148</ns3:hr>
            <ns3:cad>79</ns3:cad>
          </ns3:TrackPointExtension>
        </extensions>
      </trkpt>
      <trkpt lat="45.26377656497061252593994140625" lon="-71.18414727039635181427001953125">
        <ele>566.79998779296875</ele>
        <time>2026-08-22T03:52:39.000Z</time>
        <extensions>
          <ns3:TrackPointExtension>
            <ns3:hr>147</ns3:hr>
            <ns3:cad>79</ns3:cad>
          </ns3:TrackPointExtension>
        </extensions>
      </trkpt>
      <trkpt lat="45.26375569403171539306640625" lon="-71.18414743803441524505615234375">
        <ele>567</ele>
        <time>2026-08-22T03:52:40.000Z</time>
        <extensions>
          <ns3:TrackPointExtension>
            <ns3:hr>147</ns3:hr>
            <ns3:cad>80</ns3:cad>
          </ns3:TrackPointExtension>
        </extensions>
      </trkpt>
      <trkpt lat="45.26373557746410369873046875" lon="-71.18415196426212787628173828125">
        <ele>567</ele>
        <time>2026-08-22T03:52:41.000Z</time>
        <extensions>
          <ns3:TrackPointExtension>
            <ns3:hr>147</ns3:hr>
            <ns3:cad>80</ns3:cad>
          </ns3:TrackPointExtension>
        </extensions>
      </trkpt>
      <trkpt lat="45.26371286250650882720947265625" lon="-71.184149868786334991455078125">
        <ele>567.20001220703125</ele>
        <time>2026-08-22T03:52:42.000Z</time>
        <extensions>
          <ns3:TrackPointExtension>
            <ns3:hr>146</ns3:hr>
            <ns3:cad>80</ns3:cad>
          </ns3:TrackPointExtension>
        </extensions>
      </trkpt>
      <trkpt lat="45.26368687860667705535888671875" lon="-71.184155903756618499755859375">
        <ele>567.4000244140625</ele>
        <time>2026-08-22T03:52:43.000Z</time>
        <extensions>
          <ns3:TrackPointExtension>
            <ns3:hr>146</ns3:hr>
            <ns3:cad>80</ns3:cad>
          </ns3:TrackPointExtension>
        </extensions>
      </trkpt>
      <trkpt lat="45.2636686898767948150634765625" lon="-71.1841547302901744842529296875">
        <ele>567.4000244140625</ele>
        <time>2026-08-22T03:52:44.000Z</time>
        <extensions>
          <ns3:TrackPointExtension>
            <ns3:hr>147</ns3:hr>
            <ns3:cad>81</ns3:cad>
          </ns3:TrackPointExtension>
        </extensions>
      </trkpt>
      <trkpt lat="45.26364714838564395904541015625" lon="-71.18415280245244503021240234375">
        <ele>567.5999755859375</ele>
        <time>2026-08-22T03:52:45.000Z</time>
        <extensions>
          <ns3:TrackPointExtension>
            <ns3:hr>148</ns3:hr>
            <ns3:cad>81</ns3:cad>
          </ns3:TrackPointExtension>
        </extensions>
      </trkpt>
      <trkpt lat="45.26362158358097076416015625" lon="-71.18415464647114276885986328125">
        <ele>567.79998779296875</ele>
        <time>2026-08-22T03:52:46.000Z</time>
        <extensions>
          <ns3:TrackPointExtension>
            <ns3:hr>149</ns3:hr>
            <ns3:cad>80</ns3:cad>
          </ns3:TrackPointExtension>
        </extensions>
      </trkpt>
      <trkpt lat="45.26360624469816684722900390625" lon="-71.18415229953825473785400390625">
        <ele>567.79998779296875</ele>
        <time>2026-08-22T03:52:47.000Z</time>
        <extensions>
          <ns3:TrackPointExtension>
            <ns3:hr>149</ns3:hr>
            <ns3:cad>80</ns3:cad>
          </ns3:TrackPointExtension>
        </extensions>
      </trkpt>
      <trkpt lat="45.2635862119495868682861328125" lon="-71.18415154516696929931640625">
        <ele>568</ele>
        <time>2026-08-22T03:52:48.000Z</time>
        <extensions>
          <ns3:TrackPointExtension>
            <ns3:hr>148</ns3:hr>
            <ns3:cad>80</ns3:cad>
          </ns3:TrackPointExtension>
        </extensions>
      </trkpt>
      <trkpt lat="45.26356165297329425811767578125" lon="-71.18415581993758678436279296875">
        <ele>568</ele>
        <time>2026-08-22T03:52:49.000Z</time>
        <extensions>
          <ns3:TrackPointExtension>
            <ns3:hr>148</ns3:hr>
            <ns3:cad>80</ns3:cad>
          </ns3:TrackPointExtension>
        </extensions>
      </trkpt>
      <trkpt lat="45.26354304514825344085693359375" lon="-71.18415816687047481536865234375">
        <ele>568.20001220703125</ele>
        <time>2026-08-22T03:52:50.000Z</time>
        <extensions>
          <ns3:TrackPointExtension>
            <ns3:hr>148</ns3:hr>
            <ns3:cad>80</ns3:cad>
          </ns3:TrackPointExtension>
        </extensions>
      </trkpt>
      <trkpt lat="45.2635231800377368927001953125" lon="-71.18415581993758678436279296875">
        <ele>568.4000244140625</ele>
        <time>2026-08-22T03:52:51.000Z</time>
        <extensions>
          <ns3:TrackPointExtension>
            <ns3:hr>148</ns3:hr>
            <ns3:cad>40</ns3:cad>
          </ns3:TrackPointExtension>
        </extensions>
      </trkpt>
      <trkpt lat="45.26350281201303005218505859375" lon="-71.1841590888798236846923828125">
        <ele>568.4000244140625</ele>
        <time>2026-08-22T03:52:52.000Z</time>
        <extensions>
          <ns3:TrackPointExtension>
            <ns3:hr>149</ns3:hr>
            <ns3:cad>40</ns3:cad>
          </ns3:TrackPointExtension>
        </extensions>
      </trkpt>
      <trkpt lat="45.263489820063114166259765625" lon="-71.1841574124991893768310546875">
        <ele>568.5999755859375</ele>
        <time>2026-08-22T03:52:53.000Z</time>
        <extensions>
          <ns3:TrackPointExtension>
            <ns3:hr>148</ns3:hr>
            <ns3:cad>40</ns3:cad>
          </ns3:TrackPointExtension>
        </extensions>
      </trkpt>
      <trkpt lat="45.26346609927713871002197265625" lon="-71.18415481410920619964599609375">
        <ele>568.79998779296875</ele>
        <time>2026-08-22T03:52:54.000Z</time>
        <extensions>
          <ns3:TrackPointExtension>
            <ns3:hr>148</ns3:hr>
            <ns3:cad>40</ns3:cad>
          </ns3:TrackPointExtension>
        </extensions>
      </trkpt>
      <trkpt lat="45.26344321668148040771484375" lon="-71.18415749631822109222412109375">
        <ele>568.79998779296875</ele>
        <time>2026-08-22T03:52:55.000Z</time>
        <extensions>
          <ns3:TrackPointExtension>
            <ns3:hr>148</ns3:hr>
            <ns3:cad>40</ns3:cad>
          </ns3:TrackPointExtension>
        </extensions>
      </trkpt>
      <trkpt lat="45.26342787779867649078369140625" lon="-71.1841564066708087921142578125">
        <ele>569</ele>
        <time>2026-08-22T03:52:56.000Z</time>
        <extensions>
          <ns3:TrackPointExtension>
            <ns3:hr>148</ns3:hr>
            <ns3:cad>40</ns3:cad>
          </ns3:TrackPointExtension>
        </extensions>
      </trkpt>
      <trkpt lat="45.2634041570127010345458984375" lon="-71.18415716104209423065185546875">
        <ele>569.20001220703125</ele>
        <time>2026-08-22T03:52:57.000Z</time>
        <extensions>
          <ns3:TrackPointExtension>
            <ns3:hr>148</ns3:hr>
            <ns3:cad>40</ns3:cad>
          </ns3:TrackPointExtension>
        </extensions>
      </trkpt>
      <trkpt lat="45.26338378898799419403076171875" lon="-71.18415959179401397705078125">
        <ele>569.20001220703125</ele>
        <time>2026-08-22T03:52:58.000Z</time>
        <extensions>
          <ns3:TrackPointExtension>
            <ns3:hr>148</ns3:hr>
            <ns3:cad>40</ns3:cad>
          </ns3:TrackPointExtension>
        </extensions>
      </trkpt>
      <trkpt lat="45.26337004266679286956787109375" lon="-71.1841614358127117156982421875">
        <ele>569.4000244140625</ele>
        <time>2026-08-22T03:52:59.000Z</time>
        <extensions>
          <ns3:TrackPointExtension>
            <ns3:hr>148</ns3:hr>
            <ns3:cad>40</ns3:cad>
          </ns3:TrackPointExtension>
        </extensions>
      </trkpt>
      <trkpt lat="45.26334405876696109771728515625" lon="-71.18415959179401397705078125">
        <ele>569.4000244140625</ele>
        <time>2026-08-22T03:53:00.000Z</time>
        <extensions>
          <ns3:TrackPointExtension>
            <ns3:hr>148</ns3:hr>
            <ns3:cad>80</ns3:cad>
          </ns3:TrackPointExtension>
        </extensions>
      </trkpt>
      <trkpt lat="45.2633245289325714111328125" lon="-71.184156239032745361328125">
        <ele>569.5999755859375</ele>
        <time>2026-08-22T03:53:01.000Z</time>
        <extensions>
          <ns3:TrackPointExtension>
            <ns3:hr>148</ns3:hr>
            <ns3:cad>80</ns3:cad>
          </ns3:TrackPointExtension>
        </extensions>
      </trkpt>
      <trkpt lat="45.26330835185945034027099609375" lon="-71.18415816687047481536865234375">
        <ele>569.5999755859375</ele>
        <time>2026-08-22T03:53:02.000Z</time>
        <extensions>
          <ns3:TrackPointExtension>
            <ns3:hr>148</ns3:hr>
            <ns3:cad>80</ns3:cad>
          </ns3:TrackPointExtension>
        </extensions>
      </trkpt>
      <trkpt lat="45.26328572072088718414306640625" lon="-71.18415481410920619964599609375">
        <ele>569.79998779296875</ele>
        <time>2026-08-22T03:53:03.000Z</time>
        <extensions>
          <ns3:TrackPointExtension>
            <ns3:hr>148</ns3:hr>
            <ns3:cad>82</ns3:cad>
          </ns3:TrackPointExtension>
        </extensions>
      </trkpt>
      <trkpt lat="45.26325956918299198150634765625" lon="-71.184157244861125946044921875">
        <ele>570</ele>
        <time>2026-08-22T03:53:04.000Z</time>
        <extensions>
          <ns3:TrackPointExtension>
            <ns3:hr>148</ns3:hr>
            <ns3:cad>82</ns3:cad>
          </ns3:TrackPointExtension>
        </extensions>
      </trkpt>
      <trkpt lat="45.26324431411921977996826171875" lon="-71.184156239032745361328125">
        <ele>570</ele>
        <time>2026-08-22T03:53:05.000Z</time>
        <extensions>
          <ns3:TrackPointExtension>
            <ns3:hr>148</ns3:hr>
            <ns3:cad>80</ns3:cad>
          </ns3:TrackPointExtension>
        </extensions>
      </trkpt>
      <trkpt lat="45.2632207609713077545166015625" lon="-71.18415422737598419189453125">
        <ele>570.20001220703125</ele>
        <time>2026-08-22T03:53:06.000Z</time>
        <extensions>
          <ns3:TrackPointExtension>
            <ns3:hr>148</ns3:hr>
            <ns3:cad>80</ns3:cad>
          </ns3:TrackPointExtension>
        </extensions>
      </trkpt>
      <trkpt lat="45.2631966210901737213134765625" lon="-71.184156239032745361328125">
        <ele>570.4000244140625</ele>
        <time>2026-08-22T03:53:07.000Z</time>
        <extensions>
          <ns3:TrackPointExtension>
            <ns3:hr>148</ns3:hr>
            <ns3:cad>80</ns3:cad>
          </ns3:TrackPointExtension>
        </extensions>
      </trkpt>
      <trkpt lat="45.26318128220736980438232421875" lon="-71.1841575801372528076171875">
        <ele>570.4000244140625</ele>
        <time>2026-08-22T03:53:08.000Z</time>
        <extensions>
          <ns3:TrackPointExtension>
            <ns3:hr>148</ns3:hr>
            <ns3:cad>79</ns3:cad>
          </ns3:TrackPointExtension>
        </extensions>
      </trkpt>
      <trkpt lat="45.263160578906536102294921875" lon="-71.18415699340403079986572265625">
        <ele>570.5999755859375</ele>
        <time>2026-08-22T03:53:09.000Z</time>
        <extensions>
          <ns3:TrackPointExtension>
            <ns3:hr>148</ns3:hr>
            <ns3:cad>79</ns3:cad>
          </ns3:TrackPointExtension>
        </extensions>
      </trkpt>
      <trkpt lat="45.26314054615795612335205078125" lon="-71.18416001088917255401611328125">
        <ele>570.79998779296875</ele>
        <time>2026-08-22T03:53:10.000Z</time>
        <extensions>
          <ns3:TrackPointExtension>
            <ns3:hr>148</ns3:hr>
            <ns3:cad>79</ns3:cad>
          </ns3:TrackPointExtension>
        </extensions>
      </trkpt>
      <trkpt lat="45.26312629692256450653076171875" lon="-71.18416034616529941558837890625">
        <ele>571</ele>
        <time>2026-08-22T03:53:11.000Z</time>
        <extensions>
          <ns3:TrackPointExtension>
            <ns3:hr>149</ns3:hr>
            <ns3:cad>79</ns3:cad>
          </ns3:TrackPointExtension>
        </extensions>
      </trkpt>
      <trkpt lat="45.26310659945011138916015625" lon="-71.1841580830514430999755859375">
        <ele>571.20001220703125</ele>
        <time>2026-08-22T03:53:12.000Z</time>
        <extensions>
          <ns3:TrackPointExtension>
            <ns3:hr>148</ns3:hr>
            <ns3:cad>78</ns3:cad>
          </ns3:TrackPointExtension>
        </extensions>
      </trkpt>
      <trkpt lat="45.2630829624831676483154296875" lon="-71.1841631121933460235595703125">
        <ele>571.20001220703125</ele>
        <time>2026-08-22T03:53:13.000Z</time>
        <extensions>
          <ns3:TrackPointExtension>
            <ns3:hr>148</ns3:hr>
            <ns3:cad>78</ns3:cad>
          </ns3:TrackPointExtension>
        </extensions>
      </trkpt>
      <trkpt lat="45.263066031038761138916015625" lon="-71.184163950383663177490234375">
        <ele>571.4000244140625</ele>
        <time>2026-08-22T03:53:14.000Z</time>
        <extensions>
          <ns3:TrackPointExtension>
            <ns3:hr>148</ns3:hr>
            <ns3:cad>78</ns3:cad>
          </ns3:TrackPointExtension>
        </extensions>
      </trkpt>
      <trkpt lat="45.26304599829018115997314453125" lon="-71.18416235782206058502197265625">
        <ele>571.5999755859375</ele>
        <time>2026-08-22T03:53:15.000Z</time>
        <extensions>
          <ns3:TrackPointExtension>
            <ns3:hr>148</ns3:hr>
            <ns3:cad>79</ns3:cad>
          </ns3:TrackPointExtension>
        </extensions>
      </trkpt>
      <trkpt lat="45.26302387006580829620361328125" lon="-71.18416151963174343109130859375">
        <ele>571.5999755859375</ele>
        <time>2026-08-22T03:53:16.000Z</time>
        <extensions>
          <ns3:TrackPointExtension>
            <ns3:hr>148</ns3:hr>
            <ns3:cad>79</ns3:cad>
          </ns3:TrackPointExtension>
        </extensions>
      </trkpt>
      <trkpt lat="45.26300693862140178680419921875" lon="-71.18416151963174343109130859375">
        <ele>571.79998779296875</ele>
        <time>2026-08-22T03:53:17.000Z</time>
        <extensions>
          <ns3:TrackPointExtension>
            <ns3:hr>148</ns3:hr>
            <ns3:cad>79</ns3:cad>
          </ns3:TrackPointExtension>
        </extensions>
      </trkpt>
      <trkpt lat="45.2629857324063777923583984375" lon="-71.1841661296784877777099609375">
        <ele>571.79998779296875</ele>
        <time>2026-08-22T03:53:18.000Z</time>
        <extensions>
          <ns3:TrackPointExtension>
            <ns3:hr>148</ns3:hr>
            <ns3:cad>79</ns3:cad>
          </ns3:TrackPointExtension>
        </extensions>
      </trkpt>
      <trkpt lat="45.26296653784811496734619140625" lon="-71.1841661296784877777099609375">
        <ele>572</ele>
        <time>2026-08-22T03:53:19.000Z</time>
        <extensions>
          <ns3:TrackPointExtension>
            <ns3:hr>148</ns3:hr>
            <ns3:cad>79</ns3:cad>
          </ns3:TrackPointExtension>
        </extensions>
      </trkpt>
      <trkpt lat="45.26294566690921783447265625" lon="-71.18416604585945606231689453125">
        <ele>572</ele>
        <time>2026-08-22T03:53:20.000Z</time>
        <extensions>
          <ns3:TrackPointExtension>
            <ns3:hr>148</ns3:hr>
            <ns3:cad>79</ns3:cad>
          </ns3:TrackPointExtension>
        </extensions>
      </trkpt>
      <trkpt lat="45.26292563416063785552978515625" lon="-71.18416403420269489288330078125">
        <ele>572.20001220703125</ele>
        <time>2026-08-22T03:53:21.000Z</time>
        <extensions>
          <ns3:TrackPointExtension>
            <ns3:hr>148</ns3:hr>
            <ns3:cad>79</ns3:cad>
          </ns3:TrackPointExtension>
        </extensions>
      </trkpt>
      <trkpt lat="45.2629109658300876617431640625" lon="-71.184162609279155731201171875">
        <ele>572.4000244140625</ele>
        <time>2026-08-22T03:53:22.000Z</time>
        <extensions>
          <ns3:TrackPointExtension>
            <ns3:hr>149</ns3:hr>
            <ns3:cad>78</ns3:cad>
          </ns3:TrackPointExtension>
        </extensions>
      </trkpt>
      <trkpt lat="45.26289143599569797515869140625" lon="-71.18416135199368000030517578125">
        <ele>572.4000244140625</ele>
        <time>2026-08-22T03:53:23.000Z</time>
        <extensions>
          <ns3:TrackPointExtension>
            <ns3:hr>148</ns3:hr>
            <ns3:cad>78</ns3:cad>
          </ns3:TrackPointExtension>
        </extensions>
      </trkpt>
      <trkpt lat="45.2628712356090545654296875" lon="-71.18415967561304569244384765625">
        <ele>572.5999755859375</ele>
        <time>2026-08-22T03:53:24.000Z</time>
        <extensions>
          <ns3:TrackPointExtension>
            <ns3:hr>148</ns3:hr>
            <ns3:cad>78</ns3:cad>
          </ns3:TrackPointExtension>
        </extensions>
      </trkpt>
      <trkpt lat="45.26285757310688495635986328125" lon="-71.184156239032745361328125">
        <ele>572.5999755859375</ele>
        <time>2026-08-22T03:53:25.000Z</time>
        <extensions>
          <ns3:TrackPointExtension>
            <ns3:hr>148</ns3:hr>
            <ns3:cad>78</ns3:cad>
          </ns3:TrackPointExtension>
        </extensions>
      </trkpt>
      <trkpt lat="45.2628385461866855621337890625" lon="-71.1841564066708087921142578125">
        <ele>572.5999755859375</ele>
        <time>2026-08-22T03:53:26.000Z</time>
        <extensions>
          <ns3:TrackPointExtension>
            <ns3:hr>148</ns3:hr>
            <ns3:cad>78</ns3:cad>
          </ns3:TrackPointExtension>
        </extensions>
      </trkpt>
      <trkpt lat="45.2628170885145664215087890625" lon="-71.18415783159434795379638671875">
        <ele>572.79998779296875</ele>
        <time>2026-08-22T03:53:27.000Z</time>
        <extensions>
          <ns3:TrackPointExtension>
            <ns3:hr>148</ns3:hr>
            <ns3:cad>78</ns3:cad>
          </ns3:TrackPointExtension>
        </extensions>
      </trkpt>
      <trkpt lat="45.2628040127456188201904296875" lon="-71.18415950797498226165771484375">
        <ele>572.79998779296875</ele>
        <time>2026-08-22T03:53:28.000Z</time>
        <extensions>
          <ns3:TrackPointExtension>
            <ns3:hr>148</ns3:hr>
            <ns3:cad>78</ns3:cad>
          </ns3:TrackPointExtension>
        </extensions>
      </trkpt>
      <trkpt lat="45.26277995668351650238037109375" lon="-71.18415850214660167694091796875">
        <ele>573</ele>
        <time>2026-08-22T03:53:29.000Z</time>
        <extensions>
          <ns3:TrackPointExtension>
            <ns3:hr>147</ns3:hr>
            <ns3:cad>78</ns3:cad>
          </ns3:TrackPointExtension>
        </extensions>
      </trkpt>
      <trkpt lat="45.2627590857446193695068359375" lon="-71.18415632285177707672119140625">
        <ele>573</ele>
        <time>2026-08-22T03:53:30.000Z</time>
        <extensions>
          <ns3:TrackPointExtension>
            <ns3:hr>148</ns3:hr>
            <ns3:cad>78</ns3:cad>
          </ns3:TrackPointExtension>
        </extensions>
      </trkpt>
      <trkpt lat="45.26274424977600574493408203125" lon="-71.18415347300469875335693359375">
        <ele>573</ele>
        <time>2026-08-22T03:53:31.000Z</time>
        <extensions>
          <ns3:TrackPointExtension>
            <ns3:hr>148</ns3:hr>
            <ns3:cad>79</ns3:cad>
          </ns3:TrackPointExtension>
        </extensions>
      </trkpt>
      <trkpt lat="45.26272279210388660430908203125" lon="-71.18414844386279582977294921875">
        <ele>573.20001220703125</ele>
        <time>2026-08-22T03:53:32.000Z</time>
        <extensions>
          <ns3:TrackPointExtension>
            <ns3:hr>147</ns3:hr>
            <ns3:cad>79</ns3:cad>
          </ns3:TrackPointExtension>
        </extensions>
      </trkpt>
      <trkpt lat="45.2627000771462917327880859375" lon="-71.18414886295795440673828125">
        <ele>573.20001220703125</ele>
        <time>2026-08-22T03:53:33.000Z</time>
        <extensions>
          <ns3:TrackPointExtension>
            <ns3:hr>148</ns3:hr>
            <ns3:cad>77</ns3:cad>
          </ns3:TrackPointExtension>
        </extensions>
      </trkpt>
      <trkpt lat="45.26268205605447292327880859375" lon="-71.18414944969117641448974609375">
        <ele>573.4000244140625</ele>
        <time>2026-08-22T03:53:34.000Z</time>
        <extensions>
          <ns3:TrackPointExtension>
            <ns3:hr>147</ns3:hr>
            <ns3:cad>78</ns3:cad>
          </ns3:TrackPointExtension>
        </extensions>
      </trkpt>
      <trkpt lat="45.26265867054462432861328125" lon="-71.1841473542153835296630859375">
        <ele>573.5999755859375</ele>
        <time>2026-08-22T03:53:35.000Z</time>
        <extensions>
          <ns3:TrackPointExtension>
            <ns3:hr>147</ns3:hr>
            <ns3:cad>78</ns3:cad>
          </ns3:TrackPointExtension>
        </extensions>
      </trkpt>
      <trkpt lat="45.26263042353093624114990234375" lon="-71.1841453425586223602294921875">
        <ele>573.5999755859375</ele>
        <time>2026-08-22T03:53:36.000Z</time>
        <extensions>
          <ns3:TrackPointExtension>
            <ns3:hr>147</ns3:hr>
            <ns3:cad>79</ns3:cad>
          </ns3:TrackPointExtension>
        </extensions>
      </trkpt>
      <trkpt lat="45.26261164806783199310302734375" lon="-71.1841414868831634521484375">
        <ele>573.79998779296875</ele>
        <time>2026-08-22T03:53:37.000Z</time>
        <extensions>
          <ns3:TrackPointExtension>
            <ns3:hr>147</ns3:hr>
            <ns3:cad>79</ns3:cad>
          </ns3:TrackPointExtension>
        </extensions>
      </trkpt>
      <trkpt lat="45.26258625090122222900390625" lon="-71.184139810502529144287109375">
        <ele>574</ele>
        <time>2026-08-22T03:53:38.000Z</time>
        <extensions>
          <ns3:TrackPointExtension>
            <ns3:hr>146</ns3:hr>
            <ns3:cad>80</ns3:cad>
          </ns3:TrackPointExtension>
        </extensions>
      </trkpt>
      <trkpt lat="45.26256135664880275726318359375" lon="-71.18414140306413173675537109375">
        <ele>574</ele>
        <time>2026-08-22T03:53:39.000Z</time>
        <extensions>
          <ns3:TrackPointExtension>
            <ns3:hr>146</ns3:hr>
            <ns3:cad>80</ns3:cad>
          </ns3:TrackPointExtension>
        </extensions>
      </trkpt>
      <trkpt lat="45.2625391446053981781005859375" lon="-71.18413587100803852081298828125">
        <ele>574.20001220703125</ele>
        <time>2026-08-22T03:53:40.000Z</time>
        <extensions>
          <ns3:TrackPointExtension>
            <ns3:hr>146</ns3:hr>
            <ns3:cad>83</ns3:cad>
          </ns3:TrackPointExtension>
        </extensions>
      </trkpt>
      <trkpt lat="45.26251441799104213714599609375" lon="-71.184134781360626220703125">
        <ele>574.20001220703125</ele>
        <time>2026-08-22T03:53:41.000Z</time>
        <extensions>
          <ns3:TrackPointExtension>
            <ns3:hr>146</ns3:hr>
            <ns3:cad>83</ns3:cad>
          </ns3:TrackPointExtension>
        </extensions>
      </trkpt>
      <trkpt lat="45.26248742826282978057861328125" lon="-71.18413603864610195159912109375">
        <ele>574.4000244140625</ele>
        <time>2026-08-22T03:53:42.000Z</time>
        <extensions>
          <ns3:TrackPointExtension>
            <ns3:hr>146</ns3:hr>
            <ns3:cad>83</ns3:cad>
          </ns3:TrackPointExtension>
        </extensions>
      </trkpt>
      <trkpt lat="45.2624623663723468780517578125" lon="-71.18413670919835567474365234375">
        <ele>574.4000244140625</ele>
        <time>2026-08-22T03:53:43.000Z</time>
        <extensions>
          <ns3:TrackPointExtension>
            <ns3:hr>146</ns3:hr>
            <ns3:cad>83</ns3:cad>
          </ns3:TrackPointExtension>
        </extensions>
      </trkpt>
      <trkpt lat="45.262441076338291168212890625" lon="-71.18413679301738739013671875">
        <ele>574.5999755859375</ele>
        <time>2026-08-22T03:53:44.000Z</time>
        <extensions>
          <ns3:TrackPointExtension>
            <ns3:hr>146</ns3:hr>
            <ns3:cad>83</ns3:cad>
          </ns3:TrackPointExtension>
        </extensions>
      </trkpt>
      <trkpt lat="45.262417607009410858154296875" lon="-71.1841362901031970977783203125">
        <ele>574.5999755859375</ele>
        <time>2026-08-22T03:53:45.000Z</time>
        <extensions>
          <ns3:TrackPointExtension>
            <ns3:hr>146</ns3:hr>
            <ns3:cad>83</ns3:cad>
          </ns3:TrackPointExtension>
        </extensions>
      </trkpt>
      <trkpt lat="45.2623922936618328094482421875" lon="-71.18414140306413173675537109375">
        <ele>574.5999755859375</ele>
        <time>2026-08-22T03:53:46.000Z</time>
        <extensions>
          <ns3:TrackPointExtension>
            <ns3:hr>147</ns3:hr>
            <ns3:cad>83</ns3:cad>
          </ns3:TrackPointExtension>
        </extensions>
      </trkpt>
      <trkpt lat="45.2623723447322845458984375" lon="-71.18414358235895633697509765625">
        <ele>574.79998779296875</ele>
        <time>2026-08-22T03:53:47.000Z</time>
        <extensions>
          <ns3:TrackPointExtension>
            <ns3:hr>146</ns3:hr>
            <ns3:cad>83</ns3:cad>
          </ns3:TrackPointExtension>
        </extensions>
      </trkpt>
      <trkpt lat="45.2623480372130870819091796875" lon="-71.184145510196685791015625">
        <ele>574.79998779296875</ele>
        <time>2026-08-22T03:53:48.000Z</time>
        <extensions>
          <ns3:TrackPointExtension>
            <ns3:hr>146</ns3:hr>
            <ns3:cad>83</ns3:cad>
          </ns3:TrackPointExtension>
        </extensions>
      </trkpt>
      <trkpt lat="45.262325070798397064208984375" lon="-71.1841520480811595916748046875">
        <ele>575</ele>
        <time>2026-08-22T03:53:49.000Z</time>
        <extensions>
          <ns3:TrackPointExtension>
            <ns3:hr>146</ns3:hr>
            <ns3:cad>83</ns3:cad>
          </ns3:TrackPointExtension>
        </extensions>
      </trkpt>
      <trkpt lat="45.262306965887546539306640625" lon="-71.18415632285177707672119140625">
        <ele>575</ele>
        <time>2026-08-22T03:53:50.000Z</time>
        <extensions>
          <ns3:TrackPointExtension>
            <ns3:hr>146</ns3:hr>
            <ns3:cad>83</ns3:cad>
          </ns3:TrackPointExtension>
        </extensions>
      </trkpt>
      <trkpt lat="45.26227972470223903656005859375" lon="-71.18416227400302886962890625">
        <ele>575.20001220703125</ele>
        <time>2026-08-22T03:53:51.000Z</time>
        <extensions>
          <ns3:TrackPointExtension>
            <ns3:hr>146</ns3:hr>
            <ns3:cad>83</ns3:cad>
          </ns3:TrackPointExtension>
        </extensions>
      </trkpt>
      <trkpt lat="45.262256674468517303466796875" lon="-71.184165962040424346923828125">
        <ele>575.20001220703125</ele>
        <time>2026-08-22T03:53:52.000Z</time>
        <extensions>
          <ns3:TrackPointExtension>
            <ns3:hr>146</ns3:hr>
            <ns3:cad>83</ns3:cad>
          </ns3:TrackPointExtension>
        </extensions>
      </trkpt>
      <trkpt lat="45.26223496533930301666259765625" lon="-71.18416889570653438568115234375">
        <ele>575.4000244140625</ele>
        <time>2026-08-22T03:53:53.000Z</time>
        <extensions>
          <ns3:TrackPointExtension>
            <ns3:hr>147</ns3:hr>
            <ns3:cad>83</ns3:cad>
          </ns3:TrackPointExtension>
        </extensions>
      </trkpt>
      <trkpt lat="45.2622145973145961761474609375" lon="-71.18417560122907161712646484375">
        <ele>575.4000244140625</ele>
        <time>2026-08-22T03:53:54.000Z</time>
        <extensions>
          <ns3:TrackPointExtension>
            <ns3:hr>147</ns3:hr>
            <ns3:cad>83</ns3:cad>
          </ns3:TrackPointExtension>
        </extensions>
      </trkpt>
      <trkpt lat="45.262192301452159881591796875" lon="-71.1841812171041965484619140625">
        <ele>575.5999755859375</ele>
        <time>2026-08-22T03:53:55.000Z</time>
        <extensions>
          <ns3:TrackPointExtension>
            <ns3:hr>147</ns3:hr>
            <ns3:cad>82</ns3:cad>
          </ns3:TrackPointExtension>
        </extensions>
      </trkpt>
      <trkpt lat="45.26217092759907245635986328125" lon="-71.1841855756938457489013671875">
        <ele>575.5999755859375</ele>
        <time>2026-08-22T03:53:56.000Z</time>
        <extensions>
          <ns3:TrackPointExtension>
            <ns3:hr>147</ns3:hr>
            <ns3:cad>82</ns3:cad>
          </ns3:TrackPointExtension>
        </extensions>
      </trkpt>
      <trkpt lat="45.26214745827019214630126953125" lon="-71.18419236503541469573974609375">
        <ele>575.79998779296875</ele>
        <time>2026-08-22T03:53:57.000Z</time>
        <extensions>
          <ns3:TrackPointExtension>
            <ns3:hr>147</ns3:hr>
            <ns3:cad>82</ns3:cad>
          </ns3:TrackPointExtension>
        </extensions>
      </trkpt>
      <trkpt lat="45.26212499476969242095947265625" lon="-71.18419580161571502685546875">
        <ele>575.79998779296875</ele>
        <time>2026-08-22T03:53:58.000Z</time>
        <extensions>
          <ns3:TrackPointExtension>
            <ns3:hr>146</ns3:hr>
            <ns3:cad>82</ns3:cad>
          </ns3:TrackPointExtension>
        </extensions>
      </trkpt>
      <trkpt lat="45.26210286654531955718994140625" lon="-71.184199489653110504150390625">
        <ele>576</ele>
        <time>2026-08-22T03:53:59.000Z</time>
        <extensions>
          <ns3:TrackPointExtension>
            <ns3:hr>146</ns3:hr>
            <ns3:cad>82</ns3:cad>
          </ns3:TrackPointExtension>
        </extensions>
      </trkpt>
      <trkpt lat="45.2620845101773738861083984375" lon="-71.1842033453285694122314453125">
        <ele>576</ele>
        <time>2026-08-22T03:54:00.000Z</time>
        <extensions>
          <ns3:TrackPointExtension>
            <ns3:hr>147</ns3:hr>
            <ns3:cad>82</ns3:cad>
          </ns3:TrackPointExtension>
        </extensions>
      </trkpt>
      <trkpt lat="45.262059532105922698974609375" lon="-71.18420778773725032806396484375">
        <ele>576</ele>
        <time>2026-08-22T03:54:01.000Z</time>
        <extensions>
          <ns3:TrackPointExtension>
            <ns3:hr>147</ns3:hr>
            <ns3:cad>82</ns3:cad>
          </ns3:TrackPointExtension>
        </extensions>
      </trkpt>
      <trkpt lat="45.2620370686054229736328125" lon="-71.18421256542205810546875">
        <ele>576</ele>
        <time>2026-08-22T03:54:02.000Z</time>
        <extensions>
          <ns3:TrackPointExtension>
            <ns3:hr>146</ns3:hr>
            <ns3:cad>81</ns3:cad>
          </ns3:TrackPointExtension>
        </extensions>
      </trkpt>
      <trkpt lat="45.26201762259006500244140625" lon="-71.1842139065265655517578125">
        <ele>576.20001220703125</ele>
        <time>2026-08-22T03:54:03.000Z</time>
        <extensions>
          <ns3:TrackPointExtension>
            <ns3:hr>146</ns3:hr>
            <ns3:cad>81</ns3:cad>
          </ns3:TrackPointExtension>
        </extensions>
      </trkpt>
      <trkpt lat="45.26199356652796268463134765625" lon="-71.184217929840087890625">
        <ele>576.20001220703125</ele>
        <time>2026-08-22T03:54:04.000Z</time>
        <extensions>
          <ns3:TrackPointExtension>
            <ns3:hr>146</ns3:hr>
            <ns3:cad>82</ns3:cad>
          </ns3:TrackPointExtension>
        </extensions>
      </trkpt>
      <trkpt lat="45.26197068393230438232421875" lon="-71.18422421626746654510498046875">
        <ele>576.4000244140625</ele>
        <time>2026-08-22T03:54:05.000Z</time>
        <extensions>
          <ns3:TrackPointExtension>
            <ns3:hr>147</ns3:hr>
            <ns3:cad>82</ns3:cad>
          </ns3:TrackPointExtension>
        </extensions>
      </trkpt>
      <trkpt lat="45.2619510702788829803466796875" lon="-71.1842271499335765838623046875">
        <ele>576.4000244140625</ele>
        <time>2026-08-22T03:54:06.000Z</time>
        <extensions>
          <ns3:TrackPointExtension>
            <ns3:hr>146</ns3:hr>
            <ns3:cad>83</ns3:cad>
          </ns3:TrackPointExtension>
        </extensions>
      </trkpt>
      <trkpt lat="45.261926762759685516357421875" lon="-71.18422798812389373779296875">
        <ele>576.4000244140625</ele>
        <time>2026-08-22T03:54:07.000Z</time>
        <extensions>
          <ns3:TrackPointExtension>
            <ns3:hr>146</ns3:hr>
            <ns3:cad>83</ns3:cad>
          </ns3:TrackPointExtension>
        </extensions>
      </trkpt>
      <trkpt lat="45.261901952326297760009765625" lon="-71.18422991596162319183349609375">
        <ele>576.5999755859375</ele>
        <time>2026-08-22T03:54:08.000Z</time>
        <extensions>
          <ns3:TrackPointExtension>
            <ns3:hr>147</ns3:hr>
            <ns3:cad>83</ns3:cad>
          </ns3:TrackPointExtension>
        </extensions>
      </trkpt>
      <trkpt lat="45.261882841587066650390625" lon="-71.18422958068549633026123046875">
        <ele>576.5999755859375</ele>
        <time>2026-08-22T03:54:09.000Z</time>
        <extensions>
          <ns3:TrackPointExtension>
            <ns3:hr>147</ns3:hr>
            <ns3:cad>82</ns3:cad>
          </ns3:TrackPointExtension>
        </extensions>
      </trkpt>
      <trkpt lat="45.26185979135334491729736328125" lon="-71.1842288263142108917236328125">
        <ele>576.79998779296875</ele>
        <time>2026-08-22T03:54:10.000Z</time>
        <extensions>
          <ns3:TrackPointExtension>
            <ns3:hr>148</ns3:hr>
            <ns3:cad>82</ns3:cad>
          </ns3:TrackPointExtension>
        </extensions>
      </trkpt>
      <trkpt lat="45.26183481328189373016357421875" lon="-71.1842288263142108917236328125">
        <ele>576.79998779296875</ele>
        <time>2026-08-22T03:54:11.000Z</time>
        <extensions>
          <ns3:TrackPointExtension>
            <ns3:hr>148</ns3:hr>
            <ns3:cad>82</ns3:cad>
          </ns3:TrackPointExtension>
        </extensions>
      </trkpt>
      <trkpt lat="45.26181302033364772796630859375" lon="-71.18422019295394420623779296875">
        <ele>576.79998779296875</ele>
        <time>2026-08-22T03:54:12.000Z</time>
        <extensions>
          <ns3:TrackPointExtension>
            <ns3:hr>148</ns3:hr>
            <ns3:cad>82</ns3:cad>
          </ns3:TrackPointExtension>
        </extensions>
      </trkpt>
      <trkpt lat="45.26179424487054347991943359375" lon="-71.1842130683362483978271484375">
        <ele>576.79998779296875</ele>
        <time>2026-08-22T03:54:13.000Z</time>
        <extensions>
          <ns3:TrackPointExtension>
            <ns3:hr>148</ns3:hr>
            <ns3:cad>82</ns3:cad>
          </ns3:TrackPointExtension>
        </extensions>
      </trkpt>
      <trkpt lat="45.26177496649324893951416015625" lon="-71.1842090450227260589599609375">
        <ele>576.79998779296875</ele>
        <time>2026-08-22T03:54:14.000Z</time>
        <extensions>
          <ns3:TrackPointExtension>
            <ns3:hr>148</ns3:hr>
            <ns3:cad>82</ns3:cad>
          </ns3:TrackPointExtension>
        </extensions>
      </trkpt>
      <trkpt lat="45.2617482282221317291259765625" lon="-71.184208206832408905029296875">
        <ele>577</ele>
        <time>2026-08-22T03:54:15.000Z</time>
        <extensions>
          <ns3:TrackPointExtension>
            <ns3:hr>148</ns3:hr>
            <ns3:cad>82</ns3:cad>
          </ns3:TrackPointExtension>
        </extensions>
      </trkpt>
      <trkpt lat="45.261725597083568572998046875" lon="-71.184207536280155181884765625">
        <ele>577</ele>
        <time>2026-08-22T03:54:16.000Z</time>
        <extensions>
          <ns3:TrackPointExtension>
            <ns3:hr>148</ns3:hr>
            <ns3:cad>82</ns3:cad>
          </ns3:TrackPointExtension>
        </extensions>
      </trkpt>
      <trkpt lat="45.26170539669692516326904296875" lon="-71.1842050217092037200927734375">
        <ele>577.20001220703125</ele>
        <time>2026-08-22T03:54:17.000Z</time>
        <extensions>
          <ns3:TrackPointExtension>
            <ns3:hr>148</ns3:hr>
            <ns3:cad>82</ns3:cad>
          </ns3:TrackPointExtension>
        </extensions>
      </trkpt>
      <trkpt lat="45.26168427430093288421630859375" lon="-71.18420124985277652740478515625">
        <ele>577.20001220703125</ele>
        <time>2026-08-22T03:54:18.000Z</time>
        <extensions>
          <ns3:TrackPointExtension>
            <ns3:hr>148</ns3:hr>
            <ns3:cad>82</ns3:cad>
          </ns3:TrackPointExtension>
        </extensions>
      </trkpt>
      <trkpt lat="45.261663235723972320556640625" lon="-71.1841946281492710113525390625">
        <ele>577.20001220703125</ele>
        <time>2026-08-22T03:54:19.000Z</time>
        <extensions>
          <ns3:TrackPointExtension>
            <ns3:hr>148</ns3:hr>
            <ns3:cad>82</ns3:cad>
          </ns3:TrackPointExtension>
        </extensions>
      </trkpt>
      <trkpt lat="45.26163934729993343353271484375" lon="-71.1841912753880023956298828125">
        <ele>577.20001220703125</ele>
        <time>2026-08-22T03:54:20.000Z</time>
        <extensions>
          <ns3:TrackPointExtension>
            <ns3:hr>148</ns3:hr>
            <ns3:cad>82</ns3:cad>
          </ns3:TrackPointExtension>
        </extensions>
      </trkpt>
      <trkpt lat="45.26162073947489261627197265625" lon="-71.184184066951274871826171875">
        <ele>577.20001220703125</ele>
        <time>2026-08-22T03:54:21.000Z</time>
        <extensions>
          <ns3:TrackPointExtension>
            <ns3:hr>148</ns3:hr>
            <ns3:cad>81</ns3:cad>
          </ns3:TrackPointExtension>
        </extensions>
      </trkpt>
      <trkpt lat="45.26160188019275665283203125" lon="-71.1841765232384204864501953125">
        <ele>577.20001220703125</ele>
        <time>2026-08-22T03:54:22.000Z</time>
        <extensions>
          <ns3:TrackPointExtension>
            <ns3:hr>148</ns3:hr>
            <ns3:cad>81</ns3:cad>
          </ns3:TrackPointExtension>
        </extensions>
      </trkpt>
      <trkpt lat="45.261580757796764373779296875" lon="-71.18417409248650074005126953125">
        <ele>577.4000244140625</ele>
        <time>2026-08-22T03:54:23.000Z</time>
        <extensions>
          <ns3:TrackPointExtension>
            <ns3:hr>148</ns3:hr>
            <ns3:cad>81</ns3:cad>
          </ns3:TrackPointExtension>
        </extensions>
      </trkpt>
      <trkpt lat="45.26155988685786724090576171875" lon="-71.18417426012456417083740234375">
        <ele>577.4000244140625</ele>
        <time>2026-08-22T03:54:24.000Z</time>
        <extensions>
          <ns3:TrackPointExtension>
            <ns3:hr>148</ns3:hr>
            <ns3:cad>81</ns3:cad>
          </ns3:TrackPointExtension>
        </extensions>
      </trkpt>
      <trkpt lat="45.26153742335736751556396484375" lon="-71.18417342193424701690673828125">
        <ele>577.4000244140625</ele>
        <time>2026-08-22T03:54:25.000Z</time>
        <extensions>
          <ns3:TrackPointExtension>
            <ns3:hr>148</ns3:hr>
            <ns3:cad>81</ns3:cad>
          </ns3:TrackPointExtension>
        </extensions>
      </trkpt>
      <trkpt lat="45.26151630096137523651123046875" lon="-71.18416889570653438568115234375">
        <ele>577.5999755859375</ele>
        <time>2026-08-22T03:54:26.000Z</time>
        <extensions>
          <ns3:TrackPointExtension>
            <ns3:hr>148</ns3:hr>
            <ns3:cad>80</ns3:cad>
          </ns3:TrackPointExtension>
        </extensions>
      </trkpt>
      <trkpt lat="45.26149819605052471160888671875" lon="-71.1841664649546146392822265625">
        <ele>577.5999755859375</ele>
        <time>2026-08-22T03:54:27.000Z</time>
        <extensions>
          <ns3:TrackPointExtension>
            <ns3:hr>147</ns3:hr>
            <ns3:cad>80</ns3:cad>
          </ns3:TrackPointExtension>
        </extensions>
      </trkpt>
      <trkpt lat="45.26147640310227870941162109375" lon="-71.18416151963174343109130859375">
        <ele>577.79998779296875</ele>
        <time>2026-08-22T03:54:28.000Z</time>
        <extensions>
          <ns3:TrackPointExtension>
            <ns3:hr>147</ns3:hr>
            <ns3:cad>80</ns3:cad>
          </ns3:TrackPointExtension>
        </extensions>
      </trkpt>
      <trkpt lat="45.26145729236304759979248046875" lon="-71.18415799923241138458251953125">
        <ele>577.79998779296875</ele>
        <time>2026-08-22T03:54:29.000Z</time>
        <extensions>
          <ns3:TrackPointExtension>
            <ns3:hr>146</ns3:hr>
            <ns3:cad>80</ns3:cad>
          </ns3:TrackPointExtension>
        </extensions>
      </trkpt>
      <trkpt lat="45.2614389359951019287109375" lon="-71.18415649048984050750732421875">
        <ele>578</ele>
        <time>2026-08-22T03:54:30.000Z</time>
        <extensions>
          <ns3:TrackPointExtension>
            <ns3:hr>147</ns3:hr>
            <ns3:cad>80</ns3:cad>
          </ns3:TrackPointExtension>
        </extensions>
      </trkpt>
      <trkpt lat="45.261417143046855926513671875" lon="-71.18415313772857189178466796875">
        <ele>578</ele>
        <time>2026-08-22T03:54:31.000Z</time>
        <extensions>
          <ns3:TrackPointExtension>
            <ns3:hr>147</ns3:hr>
            <ns3:cad>80</ns3:cad>
          </ns3:TrackPointExtension>
        </extensions>
      </trkpt>
      <trkpt lat="45.261393673717975616455078125" lon="-71.184148527681827545166015625">
        <ele>578</ele>
        <time>2026-08-22T03:54:32.000Z</time>
        <extensions>
          <ns3:TrackPointExtension>
            <ns3:hr>147</ns3:hr>
            <ns3:cad>80</ns3:cad>
          </ns3:TrackPointExtension>
        </extensions>
      </trkpt>
      <trkpt lat="45.261376239359378814697265625" lon="-71.1841450072824954986572265625">
        <ele>578.20001220703125</ele>
        <time>2026-08-22T03:54:33.000Z</time>
        <extensions>
          <ns3:TrackPointExtension>
            <ns3:hr>147</ns3:hr>
            <ns3:cad>80</ns3:cad>
          </ns3:TrackPointExtension>
        </extensions>
      </trkpt>
      <trkpt lat="45.261350758373737335205078125" lon="-71.1841413192451000213623046875">
        <ele>578.20001220703125</ele>
        <time>2026-08-22T03:54:34.000Z</time>
        <extensions>
          <ns3:TrackPointExtension>
            <ns3:hr>148</ns3:hr>
            <ns3:cad>80</ns3:cad>
          </ns3:TrackPointExtension>
        </extensions>
      </trkpt>
      <trkpt lat="45.2613224275410175323486328125" lon="-71.18413872085511684417724609375">
        <ele>578.20001220703125</ele>
        <time>2026-08-22T03:54:35.000Z</time>
        <extensions>
          <ns3:TrackPointExtension>
            <ns3:hr>148</ns3:hr>
            <ns3:cad>80</ns3:cad>
          </ns3:TrackPointExtension>
        </extensions>
      </trkpt>
      <trkpt lat="45.26130641810595989227294921875" lon="-71.184133775532245635986328125">
        <ele>578.4000244140625</ele>
        <time>2026-08-22T03:54:36.000Z</time>
        <extensions>
          <ns3:TrackPointExtension>
            <ns3:hr>147</ns3:hr>
            <ns3:cad>80</ns3:cad>
          </ns3:TrackPointExtension>
        </extensions>
      </trkpt>
      <trkpt lat="45.26128278113901615142822265625" lon="-71.1841258965432643890380859375">
        <ele>578.4000244140625</ele>
        <time>2026-08-22T03:54:37.000Z</time>
        <extensions>
          <ns3:TrackPointExtension>
            <ns3:hr>147</ns3:hr>
            <ns3:cad>80</ns3:cad>
          </ns3:TrackPointExtension>
        </extensions>
      </trkpt>
      <trkpt lat="45.26125344447791576385498046875" lon="-71.18412212468683719635009765625">
        <ele>578.4000244140625</ele>
        <time>2026-08-22T03:54:38.000Z</time>
        <extensions>
          <ns3:TrackPointExtension>
            <ns3:hr>146</ns3:hr>
            <ns3:cad>80</ns3:cad>
          </ns3:TrackPointExtension>
        </extensions>
      </trkpt>
      <trkpt lat="45.26123617775738239288330078125" lon="-71.184119023382663726806640625">
        <ele>578.4000244140625</ele>
        <time>2026-08-22T03:54:39.000Z</time>
        <extensions>
          <ns3:TrackPointExtension>
            <ns3:hr>146</ns3:hr>
            <ns3:cad>80</ns3:cad>
          </ns3:TrackPointExtension>
        </extensions>
      </trkpt>
      <trkpt lat="45.26121086440980434417724609375" lon="-71.1841111443936824798583984375">
        <ele>578.4000244140625</ele>
        <time>2026-08-22T03:54:40.000Z</time>
        <extensions>
          <ns3:TrackPointExtension>
            <ns3:hr>145</ns3:hr>
            <ns3:cad>80</ns3:cad>
          </ns3:TrackPointExtension>
        </extensions>
      </trkpt>
      <trkpt lat="45.26118303649127483367919921875" lon="-71.1841020919382572174072265625">
        <ele>578.4000244140625</ele>
        <time>2026-08-22T03:54:41.000Z</time>
        <extensions>
          <ns3:TrackPointExtension>
            <ns3:hr>145</ns3:hr>
            <ns3:cad>80</ns3:cad>
          </ns3:TrackPointExtension>
        </extensions>
      </trkpt>
      <trkpt lat="45.2611665241420269012451171875" lon="-71.184092871844768524169921875">
        <ele>578.4000244140625</ele>
        <time>2026-08-22T03:54:42.000Z</time>
        <extensions>
          <ns3:TrackPointExtension>
            <ns3:hr>145</ns3:hr>
            <ns3:cad>81</ns3:cad>
          </ns3:TrackPointExtension>
        </extensions>
      </trkpt>
      <trkpt lat="45.26114414446055889129638671875" lon="-71.184082143008708953857421875">
        <ele>578.4000244140625</ele>
        <time>2026-08-22T03:54:43.000Z</time>
        <extensions>
          <ns3:TrackPointExtension>
            <ns3:hr>144</ns3:hr>
            <ns3:cad>81</ns3:cad>
          </ns3:TrackPointExtension>
        </extensions>
      </trkpt>
      <trkpt lat="45.26111665181815624237060546875" lon="-71.18407233618199825286865234375">
        <ele>578.4000244140625</ele>
        <time>2026-08-22T03:54:44.000Z</time>
        <extensions>
          <ns3:TrackPointExtension>
            <ns3:hr>144</ns3:hr>
            <ns3:cad>81</ns3:cad>
          </ns3:TrackPointExtension>
        </extensions>
      </trkpt>
      <trkpt lat="45.26109904982149600982666015625" lon="-71.184063367545604705810546875">
        <ele>578.4000244140625</ele>
        <time>2026-08-22T03:54:45.000Z</time>
        <extensions>
          <ns3:TrackPointExtension>
            <ns3:hr>144</ns3:hr>
            <ns3:cad>81</ns3:cad>
          </ns3:TrackPointExtension>
        </extensions>
      </trkpt>
      <trkpt lat="45.2610753290355205535888671875" lon="-71.1840571649372577667236328125">
        <ele>578.4000244140625</ele>
        <time>2026-08-22T03:54:46.000Z</time>
        <extensions>
          <ns3:TrackPointExtension>
            <ns3:hr>145</ns3:hr>
            <ns3:cad>81</ns3:cad>
          </ns3:TrackPointExtension>
        </extensions>
      </trkpt>
      <trkpt lat="45.261053033173084259033203125" lon="-71.18404534645378589630126953125">
        <ele>578.4000244140625</ele>
        <time>2026-08-22T03:54:47.000Z</time>
        <extensions>
          <ns3:TrackPointExtension>
            <ns3:hr>145</ns3:hr>
            <ns3:cad>82</ns3:cad>
          </ns3:TrackPointExtension>
        </extensions>
      </trkpt>
      <trkpt lat="45.26103350333869457244873046875" lon="-71.184031181037425994873046875">
        <ele>578.4000244140625</ele>
        <time>2026-08-22T03:54:48.000Z</time>
        <extensions>
          <ns3:TrackPointExtension>
            <ns3:hr>145</ns3:hr>
            <ns3:cad>82</ns3:cad>
          </ns3:TrackPointExtension>
        </extensions>
      </trkpt>
      <trkpt lat="45.26100642979145050048828125" lon="-71.1840202845633029937744140625">
        <ele>578.4000244140625</ele>
        <time>2026-08-22T03:54:49.000Z</time>
        <extensions>
          <ns3:TrackPointExtension>
            <ns3:hr>145</ns3:hr>
            <ns3:cad>82</ns3:cad>
          </ns3:TrackPointExtension>
        </extensions>
      </trkpt>
      <trkpt lat="45.2609910070896148681640625" lon="-71.1840100586414337158203125">
        <ele>578.4000244140625</ele>
        <time>2026-08-22T03:54:50.000Z</time>
        <extensions>
          <ns3:TrackPointExtension>
            <ns3:hr>146</ns3:hr>
            <ns3:cad>82</ns3:cad>
          </ns3:TrackPointExtension>
        </extensions>
      </trkpt>
      <trkpt lat="45.2609633468091487884521484375" lon="-71.1839958094060420989990234375">
        <ele>578.4000244140625</ele>
        <time>2026-08-22T03:54:51.000Z</time>
        <extensions>
          <ns3:TrackPointExtension>
            <ns3:hr>145</ns3:hr>
            <ns3:cad>82</ns3:cad>
          </ns3:TrackPointExtension>
        </extensions>
      </trkpt>
      <trkpt lat="45.2609452418982982635498046875" lon="-71.18398264981806278228759765625">
        <ele>578.4000244140625</ele>
        <time>2026-08-22T03:54:52.000Z</time>
        <extensions>
          <ns3:TrackPointExtension>
            <ns3:hr>145</ns3:hr>
            <ns3:cad>82</ns3:cad>
          </ns3:TrackPointExtension>
        </extensions>
      </trkpt>
      <trkpt lat="45.26092302985489368438720703125" lon="-71.18396990932524204254150390625">
        <ele>578.4000244140625</ele>
        <time>2026-08-22T03:54:53.000Z</time>
        <extensions>
          <ns3:TrackPointExtension>
            <ns3:hr>144</ns3:hr>
            <ns3:cad>82</ns3:cad>
          </ns3:TrackPointExtension>
        </extensions>
      </trkpt>
      <trkpt lat="45.260898806154727935791015625" lon="-71.1839555762708187103271484375">
        <ele>578.4000244140625</ele>
        <time>2026-08-22T03:54:54.000Z</time>
        <extensions>
          <ns3:TrackPointExtension>
            <ns3:hr>144</ns3:hr>
            <ns3:cad>82</ns3:cad>
          </ns3:TrackPointExtension>
        </extensions>
      </trkpt>
      <trkpt lat="45.260882042348384857177734375" lon="-71.18394442833960056304931640625">
        <ele>578.4000244140625</ele>
        <time>2026-08-22T03:54:55.000Z</time>
        <extensions>
          <ns3:TrackPointExtension>
            <ns3:hr>143</ns3:hr>
            <ns3:cad>82</ns3:cad>
          </ns3:TrackPointExtension>
        </extensions>
      </trkpt>
      <trkpt lat="45.26085915975272655487060546875" lon="-71.18393068201839923858642578125">
        <ele>578.4000244140625</ele>
        <time>2026-08-22T03:54:56.000Z</time>
        <extensions>
          <ns3:TrackPointExtension>
            <ns3:hr>143</ns3:hr>
            <ns3:cad>82</ns3:cad>
          </ns3:TrackPointExtension>
        </extensions>
      </trkpt>
      <trkpt lat="45.2608346007764339447021484375" lon="-71.18391710333526134490966796875">
        <ele>578.4000244140625</ele>
        <time>2026-08-22T03:54:57.000Z</time>
        <extensions>
          <ns3:TrackPointExtension>
            <ns3:hr>143</ns3:hr>
            <ns3:cad>82</ns3:cad>
          </ns3:TrackPointExtension>
        </extensions>
      </trkpt>
      <trkpt lat="45.2608144842088222503662109375" lon="-71.18390184827148914337158203125">
        <ele>578.20001220703125</ele>
        <time>2026-08-22T03:54:58.000Z</time>
        <extensions>
          <ns3:TrackPointExtension>
            <ns3:hr>143</ns3:hr>
            <ns3:cad>83</ns3:cad>
          </ns3:TrackPointExtension>
        </extensions>
      </trkpt>
      <trkpt lat="45.260791517794132232666015625" lon="-71.183887012302875518798828125">
        <ele>578.20001220703125</ele>
        <time>2026-08-22T03:54:59.000Z</time>
        <extensions>
          <ns3:TrackPointExtension>
            <ns3:hr>143</ns3:hr>
            <ns3:cad>83</ns3:cad>
          </ns3:TrackPointExtension>
        </extensions>
      </trkpt>
      <trkpt lat="45.2607675455510616302490234375" lon="-71.18386798538267612457275390625">
        <ele>578.20001220703125</ele>
        <time>2026-08-22T03:55:00.000Z</time>
        <extensions>
          <ns3:TrackPointExtension>
            <ns3:hr>144</ns3:hr>
            <ns3:cad>83</ns3:cad>
          </ns3:TrackPointExtension>
        </extensions>
      </trkpt>
      <trkpt lat="45.26074801571667194366455078125" lon="-71.18385055102407932281494140625">
        <ele>578.20001220703125</ele>
        <time>2026-08-22T03:55:01.000Z</time>
        <extensions>
          <ns3:TrackPointExtension>
            <ns3:hr>144</ns3:hr>
            <ns3:cad>84</ns3:cad>
          </ns3:TrackPointExtension>
        </extensions>
      </trkpt>
      <trkpt lat="45.26072479784488677978515625" lon="-71.183834038674831390380859375">
        <ele>578</ele>
        <time>2026-08-22T03:55:02.000Z</time>
        <extensions>
          <ns3:TrackPointExtension>
            <ns3:hr>144</ns3:hr>
            <ns3:cad>84</ns3:cad>
          </ns3:TrackPointExtension>
        </extensions>
      </trkpt>
      <trkpt lat="45.2607008256018161773681640625" lon="-71.1838181130588054656982421875">
        <ele>578</ele>
        <time>2026-08-22T03:55:03.000Z</time>
        <extensions>
          <ns3:TrackPointExtension>
            <ns3:hr>144</ns3:hr>
            <ns3:cad>83</ns3:cad>
          </ns3:TrackPointExtension>
        </extensions>
      </trkpt>
      <trkpt lat="45.2606736682355403900146484375" lon="-71.18380495347082614898681640625">
        <ele>578</ele>
        <time>2026-08-22T03:55:04.000Z</time>
        <extensions>
          <ns3:TrackPointExtension>
            <ns3:hr>145</ns3:hr>
            <ns3:cad>83</ns3:cad>
          </ns3:TrackPointExtension>
        </extensions>
      </trkpt>
      <trkpt lat="45.26065447367727756500244140625" lon="-71.18379455991089344024658203125">
        <ele>578</ele>
        <time>2026-08-22T03:55:05.000Z</time>
        <extensions>
          <ns3:TrackPointExtension>
            <ns3:hr>145</ns3:hr>
            <ns3:cad>83</ns3:cad>
          </ns3:TrackPointExtension>
        </extensions>
      </trkpt>
      <trkpt lat="45.260629914700984954833984375" lon="-71.18377863429486751556396484375">
        <ele>577.79998779296875</ele>
        <time>2026-08-22T03:55:06.000Z</time>
        <extensions>
          <ns3:TrackPointExtension>
            <ns3:hr>145</ns3:hr>
            <ns3:cad>83</ns3:cad>
          </ns3:TrackPointExtension>
        </extensions>
      </trkpt>
      <trkpt lat="45.26061390526592731475830078125" lon="-71.18376086466014385223388671875">
        <ele>577.79998779296875</ele>
        <time>2026-08-22T03:55:07.000Z</time>
        <extensions>
          <ns3:TrackPointExtension>
            <ns3:hr>144</ns3:hr>
            <ns3:cad>83</ns3:cad>
          </ns3:TrackPointExtension>
        </extensions>
      </trkpt>
      <trkpt lat="45.26059244759380817413330078125" lon="-71.18374577723443508148193359375">
        <ele>577.79998779296875</ele>
        <time>2026-08-22T03:55:08.000Z</time>
        <extensions>
          <ns3:TrackPointExtension>
            <ns3:hr>145</ns3:hr>
            <ns3:cad>84</ns3:cad>
          </ns3:TrackPointExtension>
        </extensions>
      </trkpt>
      <trkpt lat="45.260564871132373809814453125" lon="-71.1837336234748363494873046875">
        <ele>577.79998779296875</ele>
        <time>2026-08-22T03:55:09.000Z</time>
        <extensions>
          <ns3:TrackPointExtension>
            <ns3:hr>145</ns3:hr>
            <ns3:cad>84</ns3:cad>
          </ns3:TrackPointExtension>
        </extensions>
      </trkpt>
      <trkpt lat="45.26054282672703266143798828125" lon="-71.18372029624879360198974609375">
        <ele>577.5999755859375</ele>
        <time>2026-08-22T03:55:10.000Z</time>
        <extensions>
          <ns3:TrackPointExtension>
            <ns3:hr>145</ns3:hr>
            <ns3:cad>84</ns3:cad>
          </ns3:TrackPointExtension>
        </extensions>
      </trkpt>
      <trkpt lat="45.26052631437778472900390625" lon="-71.18370135314762592315673828125">
        <ele>577.5999755859375</ele>
        <time>2026-08-22T03:55:11.000Z</time>
        <extensions>
          <ns3:TrackPointExtension>
            <ns3:hr>145</ns3:hr>
            <ns3:cad>83</ns3:cad>
          </ns3:TrackPointExtension>
        </extensions>
      </trkpt>
      <trkpt lat="45.2605080418288707733154296875" lon="-71.18368442170321941375732421875">
        <ele>577.5999755859375</ele>
        <time>2026-08-22T03:55:12.000Z</time>
        <extensions>
          <ns3:TrackPointExtension>
            <ns3:hr>145</ns3:hr>
            <ns3:cad>83</ns3:cad>
          </ns3:TrackPointExtension>
        </extensions>
      </trkpt>
      <trkpt lat="45.26048381812870502471923828125" lon="-71.18366966955363750457763671875">
        <ele>577.5999755859375</ele>
        <time>2026-08-22T03:55:13.000Z</time>
        <extensions>
          <ns3:TrackPointExtension>
            <ns3:hr>146</ns3:hr>
            <ns3:cad>83</ns3:cad>
          </ns3:TrackPointExtension>
        </extensions>
      </trkpt>
      <trkpt lat="45.26046168990433216094970703125" lon="-71.18365357629954814910888671875">
        <ele>577.5999755859375</ele>
        <time>2026-08-22T03:55:14.000Z</time>
        <extensions>
          <ns3:TrackPointExtension>
            <ns3:hr>147</ns3:hr>
            <ns3:cad>83</ns3:cad>
          </ns3:TrackPointExtension>
        </extensions>
      </trkpt>
      <trkpt lat="45.26044316589832305908203125" lon="-71.18363932706415653228759765625">
        <ele>577.79998779296875</ele>
        <time>2026-08-22T03:55:15.000Z</time>
        <extensions>
          <ns3:TrackPointExtension>
            <ns3:hr>148</ns3:hr>
            <ns3:cad>84</ns3:cad>
          </ns3:TrackPointExtension>
        </extensions>
      </trkpt>
      <trkpt lat="45.26042078621685504913330078125" lon="-71.18362356908619403839111328125">
        <ele>577.79998779296875</ele>
        <time>2026-08-22T03:55:16.000Z</time>
        <extensions>
          <ns3:TrackPointExtension>
            <ns3:hr>148</ns3:hr>
            <ns3:cad>84</ns3:cad>
          </ns3:TrackPointExtension>
        </extensions>
      </trkpt>
      <trkpt lat="45.26039647869765758514404296875" lon="-71.1836095713078975677490234375">
        <ele>577.5999755859375</ele>
        <time>2026-08-22T03:55:17.000Z</time>
        <extensions>
          <ns3:TrackPointExtension>
            <ns3:hr>148</ns3:hr>
            <ns3:cad>83</ns3:cad>
          </ns3:TrackPointExtension>
        </extensions>
      </trkpt>
      <trkpt lat="45.26037988252937793731689453125" lon="-71.1835951544344425201416015625">
        <ele>577.5999755859375</ele>
        <time>2026-08-22T03:55:18.000Z</time>
        <extensions>
          <ns3:TrackPointExtension>
            <ns3:hr>148</ns3:hr>
            <ns3:cad>83</ns3:cad>
          </ns3:TrackPointExtension>
        </extensions>
      </trkpt>
      <trkpt lat="45.26035993359982967376708984375" lon="-71.1835770495235919952392578125">
        <ele>577.5999755859375</ele>
        <time>2026-08-22T03:55:19.000Z</time>
        <extensions>
          <ns3:TrackPointExtension>
            <ns3:hr>147</ns3:hr>
            <ns3:cad>83</ns3:cad>
          </ns3:TrackPointExtension>
        </extensions>
      </trkpt>
      <trkpt lat="45.2603343687951564788818359375" lon="-71.18356145918369293212890625">
        <ele>577.5999755859375</ele>
        <time>2026-08-22T03:55:20.000Z</time>
        <extensions>
          <ns3:TrackPointExtension>
            <ns3:hr>147</ns3:hr>
            <ns3:cad>82</ns3:cad>
          </ns3:TrackPointExtension>
        </extensions>
      </trkpt>
      <trkpt lat="45.26031601242721080780029296875" lon="-71.18354628793895244598388671875">
        <ele>577.5999755859375</ele>
        <time>2026-08-22T03:55:21.000Z</time>
        <extensions>
          <ns3:TrackPointExtension>
            <ns3:hr>147</ns3:hr>
            <ns3:cad>82</ns3:cad>
          </ns3:TrackPointExtension>
        </extensions>
      </trkpt>
      <trkpt lat="45.26029421947896480560302734375" lon="-71.18352885358035564422607421875">
        <ele>577.5999755859375</ele>
        <time>2026-08-22T03:55:22.000Z</time>
        <extensions>
          <ns3:TrackPointExtension>
            <ns3:hr>146</ns3:hr>
            <ns3:cad>82</ns3:cad>
          </ns3:TrackPointExtension>
        </extensions>
      </trkpt>
      <trkpt lat="45.2602716721594333648681640625" lon="-71.18351049721240997314453125">
        <ele>577.4000244140625</ele>
        <time>2026-08-22T03:55:23.000Z</time>
        <extensions>
          <ns3:TrackPointExtension>
            <ns3:hr>146</ns3:hr>
            <ns3:cad>82</ns3:cad>
          </ns3:TrackPointExtension>
        </extensions>
      </trkpt>
      <trkpt lat="45.260251723229885101318359375" lon="-71.1834918893873691558837890625">
        <ele>577.4000244140625</ele>
        <time>2026-08-22T03:55:24.000Z</time>
        <extensions>
          <ns3:TrackPointExtension>
            <ns3:hr>145</ns3:hr>
            <ns3:cad>83</ns3:cad>
          </ns3:TrackPointExtension>
        </extensions>
      </trkpt>
      <trkpt lat="45.26022900827229022979736328125" lon="-71.18347453884780406951904296875">
        <ele>577.4000244140625</ele>
        <time>2026-08-22T03:55:25.000Z</time>
        <extensions>
          <ns3:TrackPointExtension>
            <ns3:hr>145</ns3:hr>
            <ns3:cad>83</ns3:cad>
          </ns3:TrackPointExtension>
        </extensions>
      </trkpt>
      <trkpt lat="45.26020503602921962738037109375" lon="-71.18345945142209529876708984375">
        <ele>577.4000244140625</ele>
        <time>2026-08-22T03:55:26.000Z</time>
        <extensions>
          <ns3:TrackPointExtension>
            <ns3:hr>144</ns3:hr>
            <ns3:cad>83</ns3:cad>
          </ns3:TrackPointExtension>
        </extensions>
      </trkpt>
      <trkpt lat="45.26018626056611537933349609375" lon="-71.1834415979683399200439453125">
        <ele>577.4000244140625</ele>
        <time>2026-08-22T03:55:27.000Z</time>
        <extensions>
          <ns3:TrackPointExtension>
            <ns3:hr>143</ns3:hr>
            <ns3:cad>83</ns3:cad>
          </ns3:TrackPointExtension>
        </extensions>
      </trkpt>
      <trkpt lat="45.26016497053205966949462890625" lon="-71.183422319591045379638671875">
        <ele>577.4000244140625</ele>
        <time>2026-08-22T03:55:28.000Z</time>
        <extensions>
          <ns3:TrackPointExtension>
            <ns3:hr>143</ns3:hr>
            <ns3:cad>83</ns3:cad>
          </ns3:TrackPointExtension>
        </extensions>
      </trkpt>
      <trkpt lat="45.26014485396444797515869140625" lon="-71.183404885232448577880859375">
        <ele>577.20001220703125</ele>
        <time>2026-08-22T03:55:29.000Z</time>
        <extensions>
          <ns3:TrackPointExtension>
            <ns3:hr>143</ns3:hr>
            <ns3:cad>83</ns3:cad>
          </ns3:TrackPointExtension>
        </extensions>
      </trkpt>
      <trkpt lat="45.26012574322521686553955078125" lon="-71.18339172564446926116943359375">
        <ele>577</ele>
        <time>2026-08-22T03:55:30.000Z</time>
        <extensions>
          <ns3:TrackPointExtension>
            <ns3:hr>142</ns3:hr>
            <ns3:cad>83</ns3:cad>
          </ns3:TrackPointExtension>
        </extensions>
      </trkpt>
      <trkpt lat="45.2601090632379055023193359375" lon="-71.1833839304745197296142578125">
        <ele>577</ele>
        <time>2026-08-22T03:55:31.000Z</time>
        <extensions>
          <ns3:TrackPointExtension>
            <ns3:hr>142</ns3:hr>
            <ns3:cad>83</ns3:cad>
          </ns3:TrackPointExtension>
        </extensions>
      </trkpt>
      <trkpt lat="45.26009053923189640045166015625" lon="-71.18336088024079799652099609375">
        <ele>577</ele>
        <time>2026-08-22T03:55:32.000Z</time>
        <extensions>
          <ns3:TrackPointExtension>
            <ns3:hr>141</ns3:hr>
            <ns3:cad>83</ns3:cad>
          </ns3:TrackPointExtension>
        </extensions>
      </trkpt>
      <trkpt lat="45.26006757281720638275146484375" lon="-71.18334076367318630218505859375">
        <ele>577</ele>
        <time>2026-08-22T03:55:33.000Z</time>
        <extensions>
          <ns3:TrackPointExtension>
            <ns3:hr>141</ns3:hr>
            <ns3:cad>83</ns3:cad>
          </ns3:TrackPointExtension>
        </extensions>
      </trkpt>
      <trkpt lat="45.2600460313260555267333984375" lon="-71.183324418962001800537109375">
        <ele>577</ele>
        <time>2026-08-22T03:55:34.000Z</time>
        <extensions>
          <ns3:TrackPointExtension>
            <ns3:hr>140</ns3:hr>
            <ns3:cad>83</ns3:cad>
          </ns3:TrackPointExtension>
        </extensions>
      </trkpt>
      <trkpt lat="45.26002163998782634735107421875" lon="-71.18330958299338817596435546875">
        <ele>577</ele>
        <time>2026-08-22T03:55:35.000Z</time>
        <extensions>
          <ns3:TrackPointExtension>
            <ns3:hr>140</ns3:hr>
            <ns3:cad>83</ns3:cad>
          </ns3:TrackPointExtension>
        </extensions>
      </trkpt>
      <trkpt lat="45.26000034995377063751220703125" lon="-71.18329382501542568206787109375">
        <ele>577.20001220703125</ele>
        <time>2026-08-22T03:55:36.000Z</time>
        <extensions>
          <ns3:TrackPointExtension>
            <ns3:hr>140</ns3:hr>
            <ns3:cad>83</ns3:cad>
          </ns3:TrackPointExtension>
        </extensions>
      </trkpt>
      <trkpt lat="45.259978473186492919921875" lon="-71.1832789890468120574951171875">
        <ele>577.20001220703125</ele>
        <time>2026-08-22T03:55:37.000Z</time>
        <extensions>
          <ns3:TrackPointExtension>
            <ns3:hr>140</ns3:hr>
            <ns3:cad>82</ns3:cad>
          </ns3:TrackPointExtension>
        </extensions>
      </trkpt>
      <trkpt lat="45.2599583566188812255859375" lon="-71.183270104229450225830078125">
        <ele>577.20001220703125</ele>
        <time>2026-08-22T03:55:38.000Z</time>
        <extensions>
          <ns3:TrackPointExtension>
            <ns3:hr>140</ns3:hr>
            <ns3:cad>82</ns3:cad>
          </ns3:TrackPointExtension>
        </extensions>
      </trkpt>
      <trkpt lat="45.25993748567998409271240234375" lon="-71.18326230905950069427490234375">
        <ele>577.20001220703125</ele>
        <time>2026-08-22T03:55:39.000Z</time>
        <extensions>
          <ns3:TrackPointExtension>
            <ns3:hr>140</ns3:hr>
            <ns3:cad>82</ns3:cad>
          </ns3:TrackPointExtension>
        </extensions>
      </trkpt>
      <trkpt lat="45.25991518981754779815673828125" lon="-71.183249652385711669921875">
        <ele>577.20001220703125</ele>
        <time>2026-08-22T03:55:40.000Z</time>
        <extensions>
          <ns3:TrackPointExtension>
            <ns3:hr>139</ns3:hr>
            <ns3:cad>82</ns3:cad>
          </ns3:TrackPointExtension>
        </extensions>
      </trkpt>
      <trkpt lat="45.25989356450736522674560546875" lon="-71.183240599930286407470703125">
        <ele>577.20001220703125</ele>
        <time>2026-08-22T03:55:41.000Z</time>
        <extensions>
          <ns3:TrackPointExtension>
            <ns3:hr>139</ns3:hr>
            <ns3:cad>81</ns3:cad>
          </ns3:TrackPointExtension>
        </extensions>
      </trkpt>
      <trkpt lat="45.25987076573073863983154296875" lon="-71.18323364295065402984619140625">
        <ele>577.20001220703125</ele>
        <time>2026-08-22T03:55:42.000Z</time>
        <extensions>
          <ns3:TrackPointExtension>
            <ns3:hr>139</ns3:hr>
            <ns3:cad>81</ns3:cad>
          </ns3:TrackPointExtension>
        </extensions>
      </trkpt>
      <trkpt lat="45.25985031388700008392333984375" lon="-71.1832250095903873443603515625">
        <ele>577.20001220703125</ele>
        <time>2026-08-22T03:55:43.000Z</time>
        <extensions>
          <ns3:TrackPointExtension>
            <ns3:hr>140</ns3:hr>
            <ns3:cad>80</ns3:cad>
          </ns3:TrackPointExtension>
        </extensions>
      </trkpt>
      <trkpt lat="45.25983028113842010498046875" lon="-71.18321654386818408966064453125">
        <ele>577.20001220703125</ele>
        <time>2026-08-22T03:55:44.000Z</time>
        <extensions>
          <ns3:TrackPointExtension>
            <ns3:hr>139</ns3:hr>
            <ns3:cad>80</ns3:cad>
          </ns3:TrackPointExtension>
        </extensions>
      </trkpt>
      <trkpt lat="45.25980840437114238739013671875" lon="-71.183209754526615142822265625">
        <ele>577.20001220703125</ele>
        <time>2026-08-22T03:55:45.000Z</time>
        <extensions>
          <ns3:TrackPointExtension>
            <ns3:hr>139</ns3:hr>
            <ns3:cad>80</ns3:cad>
          </ns3:TrackPointExtension>
        </extensions>
      </trkpt>
      <trkpt lat="45.2597841806709766387939453125" lon="-71.1832038871943950653076171875">
        <ele>577.4000244140625</ele>
        <time>2026-08-22T03:55:46.000Z</time>
        <extensions>
          <ns3:TrackPointExtension>
            <ns3:hr>140</ns3:hr>
            <ns3:cad>80</ns3:cad>
          </ns3:TrackPointExtension>
        </extensions>
      </trkpt>
      <trkpt lat="45.25976180098950862884521484375" lon="-71.18319910950958728790283203125">
        <ele>577.4000244140625</ele>
        <time>2026-08-22T03:55:47.000Z</time>
        <extensions>
          <ns3:TrackPointExtension>
            <ns3:hr>139</ns3:hr>
            <ns3:cad>80</ns3:cad>
          </ns3:TrackPointExtension>
        </extensions>
      </trkpt>
      <trkpt lat="45.25973816402256488800048828125" lon="-71.1831944994628429412841796875">
        <ele>577.4000244140625</ele>
        <time>2026-08-22T03:55:48.000Z</time>
        <extensions>
          <ns3:TrackPointExtension>
            <ns3:hr>140</ns3:hr>
            <ns3:cad>81</ns3:cad>
          </ns3:TrackPointExtension>
        </extensions>
      </trkpt>
      <trkpt lat="45.2597171254456043243408203125" lon="-71.18319106288254261016845703125">
        <ele>577.5999755859375</ele>
        <time>2026-08-22T03:55:49.000Z</time>
        <extensions>
          <ns3:TrackPointExtension>
            <ns3:hr>140</ns3:hr>
            <ns3:cad>81</ns3:cad>
          </ns3:TrackPointExtension>
        </extensions>
      </trkpt>
      <trkpt lat="45.2596929855644702911376953125" lon="-71.183188967406749725341796875">
        <ele>577.5999755859375</ele>
        <time>2026-08-22T03:55:50.000Z</time>
        <extensions>
          <ns3:TrackPointExtension>
            <ns3:hr>140</ns3:hr>
            <ns3:cad>81</ns3:cad>
          </ns3:TrackPointExtension>
        </extensions>
      </trkpt>
      <trkpt lat="45.2596688456833362579345703125" lon="-71.18318201042711734771728515625">
        <ele>577.5999755859375</ele>
        <time>2026-08-22T03:55:51.000Z</time>
        <extensions>
          <ns3:TrackPointExtension>
            <ns3:hr>139</ns3:hr>
            <ns3:cad>81</ns3:cad>
          </ns3:TrackPointExtension>
        </extensions>
      </trkpt>
      <trkpt lat="45.25964495725929737091064453125" lon="-71.18318083696067333221435546875">
        <ele>577.79998779296875</ele>
        <time>2026-08-22T03:55:52.000Z</time>
        <extensions>
          <ns3:TrackPointExtension>
            <ns3:hr>139</ns3:hr>
            <ns3:cad>81</ns3:cad>
          </ns3:TrackPointExtension>
        </extensions>
      </trkpt>
      <trkpt lat="45.25962182320654392242431640625" lon="-71.18317882530391216278076171875">
        <ele>577.79998779296875</ele>
        <time>2026-08-22T03:55:53.000Z</time>
        <extensions>
          <ns3:TrackPointExtension>
            <ns3:hr>139</ns3:hr>
            <ns3:cad>81</ns3:cad>
          </ns3:TrackPointExtension>
        </extensions>
      </trkpt>
      <trkpt lat="45.25960036553442478179931640625" lon="-71.18317429907619953155517578125">
        <ele>577.79998779296875</ele>
        <time>2026-08-22T03:55:54.000Z</time>
        <extensions>
          <ns3:TrackPointExtension>
            <ns3:hr>139</ns3:hr>
            <ns3:cad>81</ns3:cad>
          </ns3:TrackPointExtension>
        </extensions>
      </trkpt>
      <trkpt lat="45.2595719508826732635498046875" lon="-71.183180920779705047607421875">
        <ele>577.79998779296875</ele>
        <time>2026-08-22T03:55:55.000Z</time>
        <extensions>
          <ns3:TrackPointExtension>
            <ns3:hr>140</ns3:hr>
            <ns3:cad>82</ns3:cad>
          </ns3:TrackPointExtension>
        </extensions>
      </trkpt>
      <trkpt lat="45.25955275632441043853759765625" lon="-71.18317999877035617828369140625">
        <ele>577.79998779296875</ele>
        <time>2026-08-22T03:55:56.000Z</time>
        <extensions>
          <ns3:TrackPointExtension>
            <ns3:hr>139</ns3:hr>
            <ns3:cad>82</ns3:cad>
          </ns3:TrackPointExtension>
        </extensions>
      </trkpt>
      <trkpt lat="45.25952911935746669769287109375" lon="-71.18317790329456329345703125">
        <ele>578</ele>
        <time>2026-08-22T03:55:57.000Z</time>
        <extensions>
          <ns3:TrackPointExtension>
            <ns3:hr>139</ns3:hr>
            <ns3:cad>82</ns3:cad>
          </ns3:TrackPointExtension>
        </extensions>
      </trkpt>
      <trkpt lat="45.25950749404728412628173828125" lon="-71.18317765183746814727783203125">
        <ele>578</ele>
        <time>2026-08-22T03:55:58.000Z</time>
        <extensions>
          <ns3:TrackPointExtension>
            <ns3:hr>139</ns3:hr>
            <ns3:cad>82</ns3:cad>
          </ns3:TrackPointExtension>
        </extensions>
      </trkpt>
      <trkpt lat="45.25948695838451385498046875" lon="-71.183180920779705047607421875">
        <ele>577.79998779296875</ele>
        <time>2026-08-22T03:55:59.000Z</time>
        <extensions>
          <ns3:TrackPointExtension>
            <ns3:hr>140</ns3:hr>
            <ns3:cad>82</ns3:cad>
          </ns3:TrackPointExtension>
        </extensions>
      </trkpt>
      <trkpt lat="45.25946072302758693695068359375" lon="-71.1831841059029102325439453125">
        <ele>577.79998779296875</ele>
        <time>2026-08-22T03:56:00.000Z</time>
        <extensions>
          <ns3:TrackPointExtension>
            <ns3:hr>140</ns3:hr>
            <ns3:cad>82</ns3:cad>
          </ns3:TrackPointExtension>
        </extensions>
      </trkpt>
      <trkpt lat="45.2594406902790069580078125" lon="-71.18318569846451282501220703125">
        <ele>577.79998779296875</ele>
        <time>2026-08-22T03:56:01.000Z</time>
        <extensions>
          <ns3:TrackPointExtension>
            <ns3:hr>140</ns3:hr>
            <ns3:cad>82</ns3:cad>
          </ns3:TrackPointExtension>
        </extensions>
      </trkpt>
      <trkpt lat="45.25942065753042697906494140625" lon="-71.18318351916968822479248046875">
        <ele>577.79998779296875</ele>
        <time>2026-08-22T03:56:02.000Z</time>
        <extensions>
          <ns3:TrackPointExtension>
            <ns3:hr>140</ns3:hr>
            <ns3:cad>82</ns3:cad>
          </ns3:TrackPointExtension>
        </extensions>
      </trkpt>
      <trkpt lat="45.25939567945897579193115234375" lon="-71.183182932436466217041015625">
        <ele>577.79998779296875</ele>
        <time>2026-08-22T03:56:03.000Z</time>
        <extensions>
          <ns3:TrackPointExtension>
            <ns3:hr>139</ns3:hr>
            <ns3:cad>81</ns3:cad>
          </ns3:TrackPointExtension>
        </extensions>
      </trkpt>
      <trkpt lat="45.25937296450138092041015625" lon="-71.18318259716033935546875">
        <ele>577.5999755859375</ele>
        <time>2026-08-22T03:56:04.000Z</time>
        <extensions>
          <ns3:TrackPointExtension>
            <ns3:hr>140</ns3:hr>
            <ns3:cad>81</ns3:cad>
          </ns3:TrackPointExtension>
        </extensions>
      </trkpt>
      <trkpt lat="45.25935276411473751068115234375" lon="-71.183182261884212493896484375">
        <ele>577.5999755859375</ele>
        <time>2026-08-22T03:56:05.000Z</time>
        <extensions>
          <ns3:TrackPointExtension>
            <ns3:hr>140</ns3:hr>
            <ns3:cad>81</ns3:cad>
          </ns3:TrackPointExtension>
        </extensions>
      </trkpt>
      <trkpt lat="45.2593268640339374542236328125" lon="-71.1831820942461490631103515625">
        <ele>577.79998779296875</ele>
        <time>2026-08-22T03:56:06.000Z</time>
        <extensions>
          <ns3:TrackPointExtension>
            <ns3:hr>141</ns3:hr>
            <ns3:cad>81</ns3:cad>
          </ns3:TrackPointExtension>
        </extensions>
      </trkpt>
      <trkpt lat="45.259306244552135467529296875" lon="-71.18318050168454647064208984375">
        <ele>577.79998779296875</ele>
        <time>2026-08-22T03:56:07.000Z</time>
        <extensions>
          <ns3:TrackPointExtension>
            <ns3:hr>141</ns3:hr>
            <ns3:cad>81</ns3:cad>
          </ns3:TrackPointExtension>
        </extensions>
      </trkpt>
      <trkpt lat="45.25928352959454059600830078125" lon="-71.183179914951324462890625">
        <ele>578</ele>
        <time>2026-08-22T03:56:08.000Z</time>
        <extensions>
          <ns3:TrackPointExtension>
            <ns3:hr>141</ns3:hr>
            <ns3:cad>81</ns3:cad>
          </ns3:TrackPointExtension>
        </extensions>
      </trkpt>
      <trkpt lat="45.2592591382563114166259765625" lon="-71.1831790767610073089599609375">
        <ele>578.20001220703125</ele>
        <time>2026-08-22T03:56:09.000Z</time>
        <extensions>
          <ns3:TrackPointExtension>
            <ns3:hr>140</ns3:hr>
            <ns3:cad>82</ns3:cad>
          </ns3:TrackPointExtension>
        </extensions>
      </trkpt>
      <trkpt lat="45.25923508219420909881591796875" lon="-71.183179579675197601318359375">
        <ele>578.20001220703125</ele>
        <time>2026-08-22T03:56:10.000Z</time>
        <extensions>
          <ns3:TrackPointExtension>
            <ns3:hr>140</ns3:hr>
            <ns3:cad>82</ns3:cad>
          </ns3:TrackPointExtension>
        </extensions>
      </trkpt>
      <trkpt lat="45.2592138759791851043701171875" lon="-71.183177568018436431884765625">
        <ele>578</ele>
        <time>2026-08-22T03:56:11.000Z</time>
        <extensions>
          <ns3:TrackPointExtension>
            <ns3:hr>140</ns3:hr>
            <ns3:cad>82</ns3:cad>
          </ns3:TrackPointExtension>
        </extensions>
      </trkpt>
      <trkpt lat="45.2591934241354465484619140625" lon="-71.18317446671426296234130859375">
        <ele>577.79998779296875</ele>
        <time>2026-08-22T03:56:12.000Z</time>
        <extensions>
          <ns3:TrackPointExtension>
            <ns3:hr>140</ns3:hr>
            <ns3:cad>82</ns3:cad>
          </ns3:TrackPointExtension>
        </extensions>
      </trkpt>
      <trkpt lat="45.2591733075678348541259765625" lon="-71.18316960521042346954345703125">
        <ele>577.79998779296875</ele>
        <time>2026-08-22T03:56:13.000Z</time>
        <extensions>
          <ns3:TrackPointExtension>
            <ns3:hr>140</ns3:hr>
            <ns3:cad>82</ns3:cad>
          </ns3:TrackPointExtension>
        </extensions>
      </trkpt>
      <trkpt lat="45.25915495119988918304443359375" lon="-71.18316139094531536102294921875">
        <ele>577.79998779296875</ele>
        <time>2026-08-22T03:56:14.000Z</time>
        <extensions>
          <ns3:TrackPointExtension>
            <ns3:hr>140</ns3:hr>
            <ns3:cad>83</ns3:cad>
          </ns3:TrackPointExtension>
        </extensions>
      </trkpt>
      <trkpt lat="45.259135253727436065673828125" lon="-71.18315837346017360687255859375">
        <ele>578</ele>
        <time>2026-08-22T03:56:15.000Z</time>
        <extensions>
          <ns3:TrackPointExtension>
            <ns3:hr>140</ns3:hr>
            <ns3:cad>83</ns3:cad>
          </ns3:TrackPointExtension>
        </extensions>
      </trkpt>
      <trkpt lat="45.25910901837050914764404296875" lon="-71.18315719999372959136962890625">
        <ele>578.20001220703125</ele>
        <time>2026-08-22T03:56:16.000Z</time>
        <extensions>
          <ns3:TrackPointExtension>
            <ns3:hr>140</ns3:hr>
            <ns3:cad>82</ns3:cad>
          </ns3:TrackPointExtension>
        </extensions>
      </trkpt>
      <trkpt lat="45.25908387266099452972412109375" lon="-71.18315669707953929901123046875">
        <ele>578.20001220703125</ele>
        <time>2026-08-22T03:56:17.000Z</time>
        <extensions>
          <ns3:TrackPointExtension>
            <ns3:hr>140</ns3:hr>
            <ns3:cad>80</ns3:cad>
          </ns3:TrackPointExtension>
        </extensions>
      </trkpt>
      <trkpt lat="45.25906459428369998931884765625" lon="-71.183155439794063568115234375">
        <ele>578.4000244140625</ele>
        <time>2026-08-22T03:56:18.000Z</time>
        <extensions>
          <ns3:TrackPointExtension>
            <ns3:hr>140</ns3:hr>
            <ns3:cad>80</ns3:cad>
          </ns3:TrackPointExtension>
        </extensions>
      </trkpt>
      <trkpt lat="45.25903793983161449432373046875" lon="-71.1831549368798732757568359375">
        <ele>578.4000244140625</ele>
        <time>2026-08-22T03:56:19.000Z</time>
        <extensions>
          <ns3:TrackPointExtension>
            <ns3:hr>140</ns3:hr>
            <ns3:cad>80</ns3:cad>
          </ns3:TrackPointExtension>
        </extensions>
      </trkpt>
      <trkpt lat="45.25901212356984615325927734375" lon="-71.18315518833696842193603515625">
        <ele>578.4000244140625</ele>
        <time>2026-08-22T03:56:20.000Z</time>
        <extensions>
          <ns3:TrackPointExtension>
            <ns3:hr>140</ns3:hr>
            <ns3:cad>80</ns3:cad>
          </ns3:TrackPointExtension>
        </extensions>
      </trkpt>
      <trkpt lat="45.2589895762503147125244140625" lon="-71.1831544339656829833984375">
        <ele>578.5999755859375</ele>
        <time>2026-08-22T03:56:21.000Z</time>
        <extensions>
          <ns3:TrackPointExtension>
            <ns3:hr>140</ns3:hr>
            <ns3:cad>82</ns3:cad>
          </ns3:TrackPointExtension>
        </extensions>
      </trkpt>
      <trkpt lat="45.2589674480259418487548828125" lon="-71.1831522546708583831787109375">
        <ele>578.5999755859375</ele>
        <time>2026-08-22T03:56:22.000Z</time>
        <extensions>
          <ns3:TrackPointExtension>
            <ns3:hr>140</ns3:hr>
            <ns3:cad>82</ns3:cad>
          </ns3:TrackPointExtension>
        </extensions>
      </trkpt>
      <trkpt lat="45.2589419670403003692626953125" lon="-71.1831482313573360443115234375">
        <ele>578.4000244140625</ele>
        <time>2026-08-22T03:56:23.000Z</time>
        <extensions>
          <ns3:TrackPointExtension>
            <ns3:hr>140</ns3:hr>
            <ns3:cad>82</ns3:cad>
          </ns3:TrackPointExtension>
        </extensions>
      </trkpt>
      <trkpt lat="45.25891807861626148223876953125" lon="-71.1831492371857166290283203125">
        <ele>578.4000244140625</ele>
        <time>2026-08-22T03:56:24.000Z</time>
        <extensions>
          <ns3:TrackPointExtension>
            <ns3:hr>140</ns3:hr>
            <ns3:cad>82</ns3:cad>
          </ns3:TrackPointExtension>
        </extensions>
      </trkpt>
      <trkpt lat="45.2588935196399688720703125" lon="-71.183148734271526336669921875">
        <ele>578.5999755859375</ele>
        <time>2026-08-22T03:56:25.000Z</time>
        <extensions>
          <ns3:TrackPointExtension>
            <ns3:hr>141</ns3:hr>
            <ns3:cad>82</ns3:cad>
          </ns3:TrackPointExtension>
        </extensions>
      </trkpt>
      <trkpt lat="45.2588722296059131622314453125" lon="-71.18314814753830432891845703125">
        <ele>578.5999755859375</ele>
        <time>2026-08-22T03:56:26.000Z</time>
        <extensions>
          <ns3:TrackPointExtension>
            <ns3:hr>141</ns3:hr>
            <ns3:cad>82</ns3:cad>
          </ns3:TrackPointExtension>
        </extensions>
      </trkpt>
      <trkpt lat="45.2588511072099208831787109375" lon="-71.18314647115767002105712890625">
        <ele>578.5999755859375</ele>
        <time>2026-08-22T03:56:27.000Z</time>
        <extensions>
          <ns3:TrackPointExtension>
            <ns3:hr>141</ns3:hr>
            <ns3:cad>82</ns3:cad>
          </ns3:TrackPointExtension>
        </extensions>
      </trkpt>
      <trkpt lat="45.2588309906423091888427734375" lon="-71.18314328603446483612060546875">
        <ele>578.5999755859375</ele>
        <time>2026-08-22T03:56:28.000Z</time>
        <extensions>
          <ns3:TrackPointExtension>
            <ns3:hr>142</ns3:hr>
            <ns3:cad>82</ns3:cad>
          </ns3:TrackPointExtension>
        </extensions>
      </trkpt>
      <trkpt lat="45.25880576111376285552978515625" lon="-71.18314311839640140533447265625">
        <ele>578.5999755859375</ele>
        <time>2026-08-22T03:56:29.000Z</time>
        <extensions>
          <ns3:TrackPointExtension>
            <ns3:hr>142</ns3:hr>
            <ns3:cad>82</ns3:cad>
          </ns3:TrackPointExtension>
        </extensions>
      </trkpt>
      <trkpt lat="45.2587813697755336761474609375" lon="-71.18314705789089202880859375">
        <ele>578.5999755859375</ele>
        <time>2026-08-22T03:56:30.000Z</time>
        <extensions>
          <ns3:TrackPointExtension>
            <ns3:hr>142</ns3:hr>
            <ns3:cad>82</ns3:cad>
          </ns3:TrackPointExtension>
        </extensions>
      </trkpt>
      <trkpt lat="45.25876033119857311248779296875" lon="-71.1831472255289554595947265625">
        <ele>578.5999755859375</ele>
        <time>2026-08-22T03:56:31.000Z</time>
        <extensions>
          <ns3:TrackPointExtension>
            <ns3:hr>142</ns3:hr>
            <ns3:cad>82</ns3:cad>
          </ns3:TrackPointExtension>
        </extensions>
      </trkpt>
      <trkpt lat="45.25873485021293163299560546875" lon="-71.183144710958003997802734375">
        <ele>578.5999755859375</ele>
        <time>2026-08-22T03:56:32.000Z</time>
        <extensions>
          <ns3:TrackPointExtension>
            <ns3:hr>142</ns3:hr>
            <ns3:cad>82</ns3:cad>
          </ns3:TrackPointExtension>
        </extensions>
      </trkpt>
      <trkpt lat="45.25871087796986103057861328125" lon="-71.18314127437770366668701171875">
        <ele>578.79998779296875</ele>
        <time>2026-08-22T03:56:33.000Z</time>
        <extensions>
          <ns3:TrackPointExtension>
            <ns3:hr>142</ns3:hr>
            <ns3:cad>82</ns3:cad>
          </ns3:TrackPointExtension>
        </extensions>
      </trkpt>
      <trkpt lat="45.258690677583217620849609375" lon="-71.183142364025115966796875">
        <ele>578.79998779296875</ele>
        <time>2026-08-22T03:56:34.000Z</time>
        <extensions>
          <ns3:TrackPointExtension>
            <ns3:hr>142</ns3:hr>
            <ns3:cad>82</ns3:cad>
          </ns3:TrackPointExtension>
        </extensions>
      </trkpt>
      <trkpt lat="45.25866561569273471832275390625" lon="-71.1831410229206085205078125">
        <ele>579</ele>
        <time>2026-08-22T03:56:35.000Z</time>
        <extensions>
          <ns3:TrackPointExtension>
            <ns3:hr>142</ns3:hr>
            <ns3:cad>82</ns3:cad>
          </ns3:TrackPointExtension>
        </extensions>
      </trkpt>
      <trkpt lat="45.25864340364933013916015625" lon="-71.18314077146351337432861328125">
        <ele>579</ele>
        <time>2026-08-22T03:56:36.000Z</time>
        <extensions>
          <ns3:TrackPointExtension>
            <ns3:hr>143</ns3:hr>
            <ns3:cad>82</ns3:cad>
          </ns3:TrackPointExtension>
        </extensions>
      </trkpt>
      <trkpt lat="45.25862219743430614471435546875" lon="-71.18314043618738651275634765625">
        <ele>579.20001220703125</ele>
        <time>2026-08-22T03:56:37.000Z</time>
        <extensions>
          <ns3:TrackPointExtension>
            <ns3:hr>143</ns3:hr>
            <ns3:cad>82</ns3:cad>
          </ns3:TrackPointExtension>
        </extensions>
      </trkpt>
      <trkpt lat="45.2585973031818866729736328125" lon="-71.18313926272094249725341796875">
        <ele>579.20001220703125</ele>
        <time>2026-08-22T03:56:38.000Z</time>
        <extensions>
          <ns3:TrackPointExtension>
            <ns3:hr>143</ns3:hr>
            <ns3:cad>81</ns3:cad>
          </ns3:TrackPointExtension>
        </extensions>
      </trkpt>
      <trkpt lat="45.258571319282054901123046875" lon="-71.1831388436257839202880859375">
        <ele>579.20001220703125</ele>
        <time>2026-08-22T03:56:39.000Z</time>
        <extensions>
          <ns3:TrackPointExtension>
            <ns3:hr>142</ns3:hr>
            <ns3:cad>81</ns3:cad>
          </ns3:TrackPointExtension>
        </extensions>
      </trkpt>
      <trkpt lat="45.25854977779090404510498046875" lon="-71.18313758634030818939208984375">
        <ele>579.20001220703125</ele>
        <time>2026-08-22T03:56:40.000Z</time>
        <extensions>
          <ns3:TrackPointExtension>
            <ns3:hr>142</ns3:hr>
            <ns3:cad>81</ns3:cad>
          </ns3:TrackPointExtension>
        </extensions>
      </trkpt>
      <trkpt lat="45.2585309185087680816650390625" lon="-71.18313498795032501220703125">
        <ele>579.4000244140625</ele>
        <time>2026-08-22T03:56:41.000Z</time>
        <extensions>
          <ns3:TrackPointExtension>
            <ns3:hr>143</ns3:hr>
            <ns3:cad>81</ns3:cad>
          </ns3:TrackPointExtension>
        </extensions>
      </trkpt>
      <trkpt lat="45.25850736536085605621337890625" lon="-71.18313423357903957366943359375">
        <ele>579.4000244140625</ele>
        <time>2026-08-22T03:56:42.000Z</time>
        <extensions>
          <ns3:TrackPointExtension>
            <ns3:hr>143</ns3:hr>
            <ns3:cad>81</ns3:cad>
          </ns3:TrackPointExtension>
        </extensions>
      </trkpt>
      <trkpt lat="45.25848389603197574615478515625" lon="-71.18313624523580074310302734375">
        <ele>579.4000244140625</ele>
        <time>2026-08-22T03:56:43.000Z</time>
        <extensions>
          <ns3:TrackPointExtension>
            <ns3:hr>143</ns3:hr>
            <ns3:cad>83</ns3:cad>
          </ns3:TrackPointExtension>
        </extensions>
      </trkpt>
      <trkpt lat="45.258464701473712921142578125" lon="-71.18313507176935672760009765625">
        <ele>579.5999755859375</ele>
        <time>2026-08-22T03:56:44.000Z</time>
        <extensions>
          <ns3:TrackPointExtension>
            <ns3:hr>144</ns3:hr>
            <ns3:cad>83</ns3:cad>
          </ns3:TrackPointExtension>
        </extensions>
      </trkpt>
      <trkpt lat="45.25843997485935688018798828125" lon="-71.18313523940742015838623046875">
        <ele>579.5999755859375</ele>
        <time>2026-08-22T03:56:45.000Z</time>
        <extensions>
          <ns3:TrackPointExtension>
            <ns3:hr>144</ns3:hr>
            <ns3:cad>82</ns3:cad>
          </ns3:TrackPointExtension>
        </extensions>
      </trkpt>
      <trkpt lat="45.25841332040727138519287109375" lon="-71.18313230574131011962890625">
        <ele>579.79998779296875</ele>
        <time>2026-08-22T03:56:46.000Z</time>
        <extensions>
          <ns3:TrackPointExtension>
            <ns3:hr>144</ns3:hr>
            <ns3:cad>82</ns3:cad>
          </ns3:TrackPointExtension>
        </extensions>
      </trkpt>
      <trkpt lat="45.25839588604867458343505859375" lon="-71.1831311322748661041259765625">
        <ele>579.79998779296875</ele>
        <time>2026-08-22T03:56:47.000Z</time>
        <extensions>
          <ns3:TrackPointExtension>
            <ns3:hr>145</ns3:hr>
            <ns3:cad>83</ns3:cad>
          </ns3:TrackPointExtension>
        </extensions>
      </trkpt>
      <trkpt lat="45.2583716623485088348388671875" lon="-71.1831311322748661041259765625">
        <ele>580</ele>
        <time>2026-08-22T03:56:48.000Z</time>
        <extensions>
          <ns3:TrackPointExtension>
            <ns3:hr>144</ns3:hr>
            <ns3:cad>83</ns3:cad>
          </ns3:TrackPointExtension>
        </extensions>
      </trkpt>
      <trkpt lat="45.2583468519151210784912109375" lon="-71.18313364684581756591796875">
        <ele>580</ele>
        <time>2026-08-22T03:56:49.000Z</time>
        <extensions>
          <ns3:TrackPointExtension>
            <ns3:hr>144</ns3:hr>
            <ns3:cad>83</ns3:cad>
          </ns3:TrackPointExtension>
        </extensions>
      </trkpt>
      <trkpt lat="45.25832514278590679168701171875" lon="-71.183131299912929534912109375">
        <ele>580</ele>
        <time>2026-08-22T03:56:50.000Z</time>
        <extensions>
          <ns3:TrackPointExtension>
            <ns3:hr>145</ns3:hr>
            <ns3:cad>83</ns3:cad>
          </ns3:TrackPointExtension>
        </extensions>
      </trkpt>
      <trkpt lat="45.2583005838096141815185546875" lon="-71.18313230574131011962890625">
        <ele>580</ele>
        <time>2026-08-22T03:56:51.000Z</time>
        <extensions>
          <ns3:TrackPointExtension>
            <ns3:hr>144</ns3:hr>
            <ns3:cad>83</ns3:cad>
          </ns3:TrackPointExtension>
        </extensions>
      </trkpt>
      <trkpt lat="45.25827283971011638641357421875" lon="-71.1831328086555004119873046875">
        <ele>579.79998779296875</ele>
        <time>2026-08-22T03:56:52.000Z</time>
        <extensions>
          <ns3:TrackPointExtension>
            <ns3:hr>144</ns3:hr>
            <ns3:cad>82</ns3:cad>
          </ns3:TrackPointExtension>
        </extensions>
      </trkpt>
      <trkpt lat="45.25825188495218753814697265625" lon="-71.1831301264464855194091796875">
        <ele>579.79998779296875</ele>
        <time>2026-08-22T03:56:53.000Z</time>
        <extensions>
          <ns3:TrackPointExtension>
            <ns3:hr>144</ns3:hr>
            <ns3:cad>82</ns3:cad>
          </ns3:TrackPointExtension>
        </extensions>
      </trkpt>
      <trkpt lat="45.2582274936139583587646484375" lon="-71.18312962353229522705078125">
        <ele>579.79998779296875</ele>
        <time>2026-08-22T03:56:54.000Z</time>
        <extensions>
          <ns3:TrackPointExtension>
            <ns3:hr>144</ns3:hr>
            <ns3:cad>82</ns3:cad>
          </ns3:TrackPointExtension>
        </extensions>
      </trkpt>
      <trkpt lat="45.25820511393249034881591796875" lon="-71.18312828242778778076171875">
        <ele>580</ele>
        <time>2026-08-22T03:56:55.000Z</time>
        <extensions>
          <ns3:TrackPointExtension>
            <ns3:hr>144</ns3:hr>
            <ns3:cad>82</ns3:cad>
          </ns3:TrackPointExtension>
        </extensions>
      </trkpt>
      <trkpt lat="45.2581839077174663543701171875" lon="-71.1831277795135974884033203125">
        <ele>579.79998779296875</ele>
        <time>2026-08-22T03:56:56.000Z</time>
        <extensions>
          <ns3:TrackPointExtension>
            <ns3:hr>144</ns3:hr>
            <ns3:cad>83</ns3:cad>
          </ns3:TrackPointExtension>
        </extensions>
      </trkpt>
      <trkpt lat="45.25815968401730060577392578125" lon="-71.18312752805650234222412109375">
        <ele>580</ele>
        <time>2026-08-22T03:56:57.000Z</time>
        <extensions>
          <ns3:TrackPointExtension>
            <ns3:hr>144</ns3:hr>
            <ns3:cad>83</ns3:cad>
          </ns3:TrackPointExtension>
        </extensions>
      </trkpt>
      <trkpt lat="45.25813671760261058807373046875" lon="-71.18312618695199489593505859375">
        <ele>580</ele>
        <time>2026-08-22T03:56:58.000Z</time>
        <extensions>
          <ns3:TrackPointExtension>
            <ns3:hr>144</ns3:hr>
            <ns3:cad>83</ns3:cad>
          </ns3:TrackPointExtension>
        </extensions>
      </trkpt>
      <trkpt lat="45.2581111527979373931884765625" lon="-71.18312819860875606536865234375">
        <ele>580</ele>
        <time>2026-08-22T03:56:59.000Z</time>
        <extensions>
          <ns3:TrackPointExtension>
            <ns3:hr>144</ns3:hr>
            <ns3:cad>83</ns3:cad>
          </ns3:TrackPointExtension>
        </extensions>
      </trkpt>
      <trkpt lat="45.25808818638324737548828125" lon="-71.18312836624681949615478515625">
        <ele>580</ele>
        <time>2026-08-22T03:57:00.000Z</time>
        <extensions>
          <ns3:TrackPointExtension>
            <ns3:hr>144</ns3:hr>
            <ns3:cad>83</ns3:cad>
          </ns3:TrackPointExtension>
        </extensions>
      </trkpt>
      <trkpt lat="45.25806262157857418060302734375" lon="-71.183125264942646026611328125">
        <ele>580.20001220703125</ele>
        <time>2026-08-22T03:57:01.000Z</time>
        <extensions>
          <ns3:TrackPointExtension>
            <ns3:hr>144</ns3:hr>
            <ns3:cad>83</ns3:cad>
          </ns3:TrackPointExtension>
        </extensions>
      </trkpt>
      <trkpt lat="45.25803999044001102447509765625" lon="-71.18312149308621883392333984375">
        <ele>580.20001220703125</ele>
        <time>2026-08-22T03:57:02.000Z</time>
        <extensions>
          <ns3:TrackPointExtension>
            <ns3:hr>144</ns3:hr>
            <ns3:cad>83</ns3:cad>
          </ns3:TrackPointExtension>
        </extensions>
      </trkpt>
      <trkpt lat="45.258022136986255645751953125" lon="-71.1831220798194408416748046875">
        <ele>580.20001220703125</ele>
        <time>2026-08-22T03:57:03.000Z</time>
        <extensions>
          <ns3:TrackPointExtension>
            <ns3:hr>144</ns3:hr>
            <ns3:cad>82</ns3:cad>
          </ns3:TrackPointExtension>
        </extensions>
      </trkpt>
      <trkpt lat="45.2579988352954387664794921875" lon="-71.183117218315601348876953125">
        <ele>580.4000244140625</ele>
        <time>2026-08-22T03:57:04.000Z</time>
        <extensions>
          <ns3:TrackPointExtension>
            <ns3:hr>143</ns3:hr>
            <ns3:cad>82</ns3:cad>
          </ns3:TrackPointExtension>
        </extensions>
      </trkpt>
      <trkpt lat="45.2579757012426853179931640625" lon="-71.1831115186214447021484375">
        <ele>580.4000244140625</ele>
        <time>2026-08-22T03:57:05.000Z</time>
        <extensions>
          <ns3:TrackPointExtension>
            <ns3:hr>144</ns3:hr>
            <ns3:cad>82</ns3:cad>
          </ns3:TrackPointExtension>
        </extensions>
      </trkpt>
      <trkpt lat="45.2579555846750736236572265625" lon="-71.18311042897403240203857421875">
        <ele>580.4000244140625</ele>
        <time>2026-08-22T03:57:06.000Z</time>
        <extensions>
          <ns3:TrackPointExtension>
            <ns3:hr>144</ns3:hr>
            <ns3:cad>82</ns3:cad>
          </ns3:TrackPointExtension>
        </extensions>
      </trkpt>
      <trkpt lat="45.2579321153461933135986328125" lon="-71.18310640566051006317138671875">
        <ele>580.4000244140625</ele>
        <time>2026-08-22T03:57:07.000Z</time>
        <extensions>
          <ns3:TrackPointExtension>
            <ns3:hr>144</ns3:hr>
            <ns3:cad>82</ns3:cad>
          </ns3:TrackPointExtension>
        </extensions>
      </trkpt>
      <trkpt lat="45.25790772400796413421630859375" lon="-71.1831039749085903167724609375">
        <ele>580.4000244140625</ele>
        <time>2026-08-22T03:57:08.000Z</time>
        <extensions>
          <ns3:TrackPointExtension>
            <ns3:hr>145</ns3:hr>
            <ns3:cad>82</ns3:cad>
          </ns3:TrackPointExtension>
        </extensions>
      </trkpt>
      <trkpt lat="45.25788760744035243988037109375" lon="-71.1831022985279560089111328125">
        <ele>580.4000244140625</ele>
        <time>2026-08-22T03:57:09.000Z</time>
        <extensions>
          <ns3:TrackPointExtension>
            <ns3:hr>145</ns3:hr>
            <ns3:cad>82</ns3:cad>
          </ns3:TrackPointExtension>
        </extensions>
      </trkpt>
      <trkpt lat="45.25786397047340869903564453125" lon="-71.18310355581343173980712890625">
        <ele>580.5999755859375</ele>
        <time>2026-08-22T03:57:10.000Z</time>
        <extensions>
          <ns3:TrackPointExtension>
            <ns3:hr>145</ns3:hr>
            <ns3:cad>82</ns3:cad>
          </ns3:TrackPointExtension>
        </extensions>
      </trkpt>
      <trkpt lat="45.25783949531614780426025390625" lon="-71.1831029690802097320556640625">
        <ele>580.5999755859375</ele>
        <time>2026-08-22T03:57:11.000Z</time>
        <extensions>
          <ns3:TrackPointExtension>
            <ns3:hr>145</ns3:hr>
            <ns3:cad>82</ns3:cad>
          </ns3:TrackPointExtension>
        </extensions>
      </trkpt>
      <trkpt lat="45.2578147687017917633056640625" lon="-71.183099113404750823974609375">
        <ele>580.5999755859375</ele>
        <time>2026-08-22T03:57:12.000Z</time>
        <extensions>
          <ns3:TrackPointExtension>
            <ns3:hr>145</ns3:hr>
            <ns3:cad>82</ns3:cad>
          </ns3:TrackPointExtension>
        </extensions>
      </trkpt>
      <trkpt lat="45.2577919699251651763916015625" lon="-71.18309986777603626251220703125">
        <ele>580.5999755859375</ele>
        <time>2026-08-22T03:57:13.000Z</time>
        <extensions>
          <ns3:TrackPointExtension>
            <ns3:hr>146</ns3:hr>
            <ns3:cad>82</ns3:cad>
          </ns3:TrackPointExtension>
        </extensions>
      </trkpt>
      <trkpt lat="45.25777093134820461273193359375" lon="-71.18309953249990940093994140625">
        <ele>580.5999755859375</ele>
        <time>2026-08-22T03:57:14.000Z</time>
        <extensions>
          <ns3:TrackPointExtension>
            <ns3:hr>146</ns3:hr>
            <ns3:cad>82</ns3:cad>
          </ns3:TrackPointExtension>
        </extensions>
      </trkpt>
      <trkpt lat="45.2577500604093074798583984375" lon="-71.1830959282815456390380859375">
        <ele>580.5999755859375</ele>
        <time>2026-08-22T03:57:15.000Z</time>
        <extensions>
          <ns3:TrackPointExtension>
            <ns3:hr>146</ns3:hr>
            <ns3:cad>82</ns3:cad>
          </ns3:TrackPointExtension>
        </extensions>
      </trkpt>
      <trkpt lat="45.2577265910804271697998046875" lon="-71.183094419538974761962890625">
        <ele>580.5999755859375</ele>
        <time>2026-08-22T03:57:16.000Z</time>
        <extensions>
          <ns3:TrackPointExtension>
            <ns3:hr>146</ns3:hr>
            <ns3:cad>81</ns3:cad>
          </ns3:TrackPointExtension>
        </extensions>
      </trkpt>
      <trkpt lat="45.2577041275799274444580078125" lon="-71.1830932460725307464599609375">
        <ele>580.79998779296875</ele>
        <time>2026-08-22T03:57:17.000Z</time>
        <extensions>
          <ns3:TrackPointExtension>
            <ns3:hr>146</ns3:hr>
            <ns3:cad>81</ns3:cad>
          </ns3:TrackPointExtension>
        </extensions>
      </trkpt>
      <trkpt lat="45.25767990387976169586181640625" lon="-71.18309048004448413848876953125">
        <ele>580.79998779296875</ele>
        <time>2026-08-22T03:57:18.000Z</time>
        <extensions>
          <ns3:TrackPointExtension>
            <ns3:hr>145</ns3:hr>
            <ns3:cad>82</ns3:cad>
          </ns3:TrackPointExtension>
        </extensions>
      </trkpt>
      <trkpt lat="45.257658697664737701416015625" lon="-71.18308796547353267669677734375">
        <ele>581</ele>
        <time>2026-08-22T03:57:19.000Z</time>
        <extensions>
          <ns3:TrackPointExtension>
            <ns3:hr>145</ns3:hr>
            <ns3:cad>82</ns3:cad>
          </ns3:TrackPointExtension>
        </extensions>
      </trkpt>
      <trkpt lat="45.25763749144971370697021484375" lon="-71.18308360688388347625732421875">
        <ele>581</ele>
        <time>2026-08-22T03:57:20.000Z</time>
        <extensions>
          <ns3:TrackPointExtension>
            <ns3:hr>145</ns3:hr>
            <ns3:cad>82</ns3:cad>
          </ns3:TrackPointExtension>
        </extensions>
      </trkpt>
      <trkpt lat="45.2576085738837718963623046875" lon="-71.18308394216001033782958984375">
        <ele>581.20001220703125</ele>
        <time>2026-08-22T03:57:21.000Z</time>
        <extensions>
          <ns3:TrackPointExtension>
            <ns3:hr>145</ns3:hr>
            <ns3:cad>82</ns3:cad>
          </ns3:TrackPointExtension>
        </extensions>
      </trkpt>
      <trkpt lat="45.25758703239262104034423828125" lon="-71.1830815114080905914306640625">
        <ele>581.20001220703125</ele>
        <time>2026-08-22T03:57:22.000Z</time>
        <extensions>
          <ns3:TrackPointExtension>
            <ns3:hr>146</ns3:hr>
            <ns3:cad>82</ns3:cad>
          </ns3:TrackPointExtension>
        </extensions>
      </trkpt>
      <trkpt lat="45.25756875984370708465576171875" lon="-71.183080337941646575927734375">
        <ele>581.4000244140625</ele>
        <time>2026-08-22T03:57:23.000Z</time>
        <extensions>
          <ns3:TrackPointExtension>
            <ns3:hr>145</ns3:hr>
            <ns3:cad>84</ns3:cad>
          </ns3:TrackPointExtension>
        </extensions>
      </trkpt>
      <trkpt lat="45.2575448714196681976318359375" lon="-71.1830811761319637298583984375">
        <ele>581.5999755859375</ele>
        <time>2026-08-22T03:57:24.000Z</time>
        <extensions>
          <ns3:TrackPointExtension>
            <ns3:hr>145</ns3:hr>
            <ns3:cad>84</ns3:cad>
          </ns3:TrackPointExtension>
        </extensions>
      </trkpt>
      <trkpt lat="45.25752433575689792633056640625" lon="-71.1830873787403106689453125">
        <ele>581.79998779296875</ele>
        <time>2026-08-22T03:57:25.000Z</time>
        <extensions>
          <ns3:TrackPointExtension>
            <ns3:hr>145</ns3:hr>
            <ns3:cad>84</ns3:cad>
          </ns3:TrackPointExtension>
        </extensions>
      </trkpt>
      <trkpt lat="45.257505141198635101318359375" lon="-71.1830927431583404541015625">
        <ele>582</ele>
        <time>2026-08-22T03:57:26.000Z</time>
        <extensions>
          <ns3:TrackPointExtension>
            <ns3:hr>146</ns3:hr>
            <ns3:cad>84</ns3:cad>
          </ns3:TrackPointExtension>
        </extensions>
      </trkpt>
      <trkpt lat="45.2574808336794376373291015625" lon="-71.18309483863413333892822265625">
        <ele>582.20001220703125</ele>
        <time>2026-08-22T03:57:27.000Z</time>
        <extensions>
          <ns3:TrackPointExtension>
            <ns3:hr>146</ns3:hr>
            <ns3:cad>0</ns3:cad>
          </ns3:TrackPointExtension>
        </extensions>
      </trkpt>
      <trkpt lat="45.25745878927409648895263671875" lon="-71.18309634737670421600341796875">
        <ele>582.4000244140625</ele>
        <time>2026-08-22T03:57:28.000Z</time>
        <extensions>
          <ns3:TrackPointExtension>
            <ns3:hr>146</ns3:hr>
            <ns3:cad>0</ns3:cad>
          </ns3:TrackPointExtension>
        </extensions>
      </trkpt>
      <trkpt lat="45.2574406005442142486572265625" lon="-71.183097101747989654541015625">
        <ele>582.4000244140625</ele>
        <time>2026-08-22T03:57:29.000Z</time>
        <extensions>
          <ns3:TrackPointExtension>
            <ns3:hr>146</ns3:hr>
            <ns3:cad>0</ns3:cad>
          </ns3:TrackPointExtension>
        </extensions>
      </trkpt>
      <trkpt lat="45.257424004375934600830078125" lon="-71.18310037069022655487060546875">
        <ele>582.5999755859375</ele>
        <time>2026-08-22T03:57:30.000Z</time>
        <extensions>
          <ns3:TrackPointExtension>
            <ns3:hr>146</ns3:hr>
            <ns3:cad>79</ns3:cad>
          </ns3:TrackPointExtension>
        </extensions>
      </trkpt>
      <trkpt lat="45.25740078650414943695068359375" lon="-71.183107830584049224853515625">
        <ele>582.5999755859375</ele>
        <time>2026-08-22T03:57:31.000Z</time>
        <extensions>
          <ns3:TrackPointExtension>
            <ns3:hr>145</ns3:hr>
            <ns3:cad>79</ns3:cad>
          </ns3:TrackPointExtension>
        </extensions>
      </trkpt>
      <trkpt lat="45.257381089031696319580078125" lon="-71.1831043101847171783447265625">
        <ele>582.5999755859375</ele>
        <time>2026-08-22T03:57:32.000Z</time>
        <extensions>
          <ns3:TrackPointExtension>
            <ns3:hr>146</ns3:hr>
            <ns3:cad>79</ns3:cad>
          </ns3:TrackPointExtension>
        </extensions>
      </trkpt>
      <trkpt lat="45.25736373849213123321533203125" lon="-71.18310858495533466339111328125">
        <ele>582.79998779296875</ele>
        <time>2026-08-22T03:57:33.000Z</time>
        <extensions>
          <ns3:TrackPointExtension>
            <ns3:hr>146</ns3:hr>
            <ns3:cad>79</ns3:cad>
          </ns3:TrackPointExtension>
        </extensions>
      </trkpt>
      <trkpt lat="45.2573485672473907470703125" lon="-71.18311244063079357147216796875">
        <ele>583</ele>
        <time>2026-08-22T03:57:34.000Z</time>
        <extensions>
          <ns3:TrackPointExtension>
            <ns3:hr>145</ns3:hr>
            <ns3:cad>79</ns3:cad>
          </ns3:TrackPointExtension>
        </extensions>
      </trkpt>
      <trkpt lat="45.25732803158462047576904296875" lon="-71.1831143684685230255126953125">
        <ele>583.20001220703125</ele>
        <time>2026-08-22T03:57:35.000Z</time>
        <extensions>
          <ns3:TrackPointExtension>
            <ns3:hr>145</ns3:hr>
            <ns3:cad>79</ns3:cad>
          </ns3:TrackPointExtension>
        </extensions>
      </trkpt>
      <trkpt lat="45.25731042958796024322509765625" lon="-71.1831195652484893798828125">
        <ele>583.4000244140625</ele>
        <time>2026-08-22T03:57:36.000Z</time>
        <extensions>
          <ns3:TrackPointExtension>
            <ns3:hr>145</ns3:hr>
            <ns3:cad>79</ns3:cad>
          </ns3:TrackPointExtension>
        </extensions>
      </trkpt>
      <trkpt lat="45.257296599447727203369140625" lon="-71.183120906352996826171875">
        <ele>583.79998779296875</ele>
        <time>2026-08-22T03:57:37.000Z</time>
        <extensions>
          <ns3:TrackPointExtension>
            <ns3:hr>145</ns3:hr>
            <ns3:cad>79</ns3:cad>
          </ns3:TrackPointExtension>
        </extensions>
      </trkpt>
      <trkpt lat="45.25727472268044948577880859375" lon="-71.18312300182878971099853515625">
        <ele>583.79998779296875</ele>
        <time>2026-08-22T03:57:38.000Z</time>
        <extensions>
          <ns3:TrackPointExtension>
            <ns3:hr>145</ns3:hr>
            <ns3:cad>79</ns3:cad>
          </ns3:TrackPointExtension>
        </extensions>
      </trkpt>
      <trkpt lat="45.2572573721408843994140625" lon="-71.183124594390392303466796875">
        <ele>584</ele>
        <time>2026-08-22T03:57:39.000Z</time>
        <extensions>
          <ns3:TrackPointExtension>
            <ns3:hr>145</ns3:hr>
            <ns3:cad>78</ns3:cad>
          </ns3:TrackPointExtension>
        </extensions>
      </trkpt>
      <trkpt lat="45.257239602506160736083984375" lon="-71.1831234209239482879638671875">
        <ele>584.20001220703125</ele>
        <time>2026-08-22T03:57:40.000Z</time>
        <extensions>
          <ns3:TrackPointExtension>
            <ns3:hr>146</ns3:hr>
            <ns3:cad>78</ns3:cad>
          </ns3:TrackPointExtension>
        </extensions>
      </trkpt>
      <trkpt lat="45.25721915066242218017578125" lon="-71.18312668986618518829345703125">
        <ele>584.4000244140625</ele>
        <time>2026-08-22T03:57:41.000Z</time>
        <extensions>
          <ns3:TrackPointExtension>
            <ns3:hr>146</ns3:hr>
            <ns3:cad>78</ns3:cad>
          </ns3:TrackPointExtension>
        </extensions>
      </trkpt>
      <trkpt lat="45.2571992017328739166259765625" lon="-71.1831297911703586578369140625">
        <ele>584.5999755859375</ele>
        <time>2026-08-22T03:57:42.000Z</time>
        <extensions>
          <ns3:TrackPointExtension>
            <ns3:hr>146</ns3:hr>
            <ns3:cad>78</ns3:cad>
          </ns3:TrackPointExtension>
        </extensions>
      </trkpt>
      <trkpt lat="45.25718285702168941497802734375" lon="-71.18312685750424861907958984375">
        <ele>584.79998779296875</ele>
        <time>2026-08-22T03:57:43.000Z</time>
        <extensions>
          <ns3:TrackPointExtension>
            <ns3:hr>147</ns3:hr>
            <ns3:cad>78</ns3:cad>
          </ns3:TrackPointExtension>
        </extensions>
      </trkpt>
      <trkpt lat="45.2571673505008220672607421875" lon="-71.1831249296665191650390625">
        <ele>585</ele>
        <time>2026-08-22T03:57:44.000Z</time>
        <extensions>
          <ns3:TrackPointExtension>
            <ns3:hr>147</ns3:hr>
            <ns3:cad>78</ns3:cad>
          </ns3:TrackPointExtension>
        </extensions>
      </trkpt>
      <trkpt lat="45.25714966468513011932373046875" lon="-71.18312367238104343414306640625">
        <ele>585.20001220703125</ele>
        <time>2026-08-22T03:57:45.000Z</time>
        <extensions>
          <ns3:TrackPointExtension>
            <ns3:hr>147</ns3:hr>
            <ns3:cad>78</ns3:cad>
          </ns3:TrackPointExtension>
        </extensions>
      </trkpt>
      <trkpt lat="45.25713290087878704071044921875" lon="-71.18312451057136058807373046875">
        <ele>585.4000244140625</ele>
        <time>2026-08-22T03:57:46.000Z</time>
        <extensions>
          <ns3:TrackPointExtension>
            <ns3:hr>147</ns3:hr>
            <ns3:cad>78</ns3:cad>
          </ns3:TrackPointExtension>
        </extensions>
      </trkpt>
      <trkpt lat="45.25711948983371257781982421875" lon="-71.18312434293329715728759765625">
        <ele>585.5999755859375</ele>
        <time>2026-08-22T03:57:47.000Z</time>
        <extensions>
          <ns3:TrackPointExtension>
            <ns3:hr>147</ns3:hr>
            <ns3:cad>78</ns3:cad>
          </ns3:TrackPointExtension>
        </extensions>
      </trkpt>
      <trkpt lat="45.2571033127605915069580078125" lon="-71.18312434293329715728759765625">
        <ele>585.5999755859375</ele>
        <time>2026-08-22T03:57:48.000Z</time>
        <extensions>
          <ns3:TrackPointExtension>
            <ns3:hr>147</ns3:hr>
            <ns3:cad>78</ns3:cad>
          </ns3:TrackPointExtension>
        </extensions>
      </trkpt>
      <trkpt lat="45.25708612985908985137939453125" lon="-71.18312358856201171875">
        <ele>585.79998779296875</ele>
        <time>2026-08-22T03:57:49.000Z</time>
        <extensions>
          <ns3:TrackPointExtension>
            <ns3:hr>147</ns3:hr>
            <ns3:cad>19</ns3:cad>
          </ns3:TrackPointExtension>
        </extensions>
      </trkpt>
      <trkpt lat="45.25707808323204517364501953125" lon="-71.18312668986618518829345703125">
        <ele>586</ele>
        <time>2026-08-22T03:57:50.000Z</time>
        <extensions>
          <ns3:TrackPointExtension>
            <ns3:hr>147</ns3:hr>
            <ns3:cad>19</ns3:cad>
          </ns3:TrackPointExtension>
        </extensions>
      </trkpt>
      <trkpt lat="45.257069282233715057373046875" lon="-71.18312618695199489593505859375">
        <ele>586</ele>
        <time>2026-08-22T03:57:51.000Z</time>
        <extensions>
          <ns3:TrackPointExtension>
            <ns3:hr>147</ns3:hr>
            <ns3:cad>19</ns3:cad>
          </ns3:TrackPointExtension>
        </extensions>
      </trkpt>
      <trkpt lat="45.2570647560060024261474609375" lon="-71.1831250973045825958251953125">
        <ele>586.20001220703125</ele>
        <time>2026-08-22T03:57:52.000Z</time>
        <extensions>
          <ns3:TrackPointExtension>
            <ns3:hr>146</ns3:hr>
            <ns3:cad>19</ns3:cad>
          </ns3:TrackPointExtension>
        </extensions>
      </trkpt>
      <trkpt lat="45.25704748928546905517578125" lon="-71.183125264942646026611328125">
        <ele>586.4000244140625</ele>
        <time>2026-08-22T03:57:53.000Z</time>
        <extensions>
          <ns3:TrackPointExtension>
            <ns3:hr>147</ns3:hr>
            <ns3:cad>57</ns3:cad>
          </ns3:TrackPointExtension>
        </extensions>
      </trkpt>
      <trkpt lat="45.2570325694978237152099609375" lon="-71.183128617703914642333984375">
        <ele>586.5999755859375</ele>
        <time>2026-08-22T03:57:54.000Z</time>
        <extensions>
          <ns3:TrackPointExtension>
            <ns3:hr>147</ns3:hr>
            <ns3:cad>57</ns3:cad>
          </ns3:TrackPointExtension>
        </extensions>
      </trkpt>
      <trkpt lat="45.2570211701095104217529296875" lon="-71.18313205428421497344970703125">
        <ele>586.79998779296875</ele>
        <time>2026-08-22T03:57:55.000Z</time>
        <extensions>
          <ns3:TrackPointExtension>
            <ns3:hr>147</ns3:hr>
            <ns3:cad>57</ns3:cad>
          </ns3:TrackPointExtension>
        </extensions>
      </trkpt>
      <trkpt lat="45.25700717233121395111083984375" lon="-71.18313121609389781951904296875">
        <ele>586.79998779296875</ele>
        <time>2026-08-22T03:57:56.000Z</time>
        <extensions>
          <ns3:TrackPointExtension>
            <ns3:hr>147</ns3:hr>
            <ns3:cad>57</ns3:cad>
          </ns3:TrackPointExtension>
        </extensions>
      </trkpt>
      <trkpt lat="45.25699040852487087249755859375" lon="-71.18313088081777095794677734375">
        <ele>587</ele>
        <time>2026-08-22T03:57:57.000Z</time>
        <extensions>
          <ns3:TrackPointExtension>
            <ns3:hr>147</ns3:hr>
            <ns3:cad>57</ns3:cad>
          </ns3:TrackPointExtension>
        </extensions>
      </trkpt>
      <trkpt lat="45.25697506964206695556640625" lon="-71.18312903679907321929931640625">
        <ele>587.20001220703125</ele>
        <time>2026-08-22T03:57:58.000Z</time>
        <extensions>
          <ns3:TrackPointExtension>
            <ns3:hr>146</ns3:hr>
            <ns3:cad>55</ns3:cad>
          </ns3:TrackPointExtension>
        </extensions>
      </trkpt>
      <trkpt lat="45.2569598145782947540283203125" lon="-71.1831291206181049346923828125">
        <ele>587.20001220703125</ele>
        <time>2026-08-22T03:57:59.000Z</time>
        <extensions>
          <ns3:TrackPointExtension>
            <ns3:hr>146</ns3:hr>
            <ns3:cad>55</ns3:cad>
          </ns3:TrackPointExtension>
        </extensions>
      </trkpt>
      <trkpt lat="45.256943218410015106201171875" lon="-71.18312920443713665008544921875">
        <ele>587.4000244140625</ele>
        <time>2026-08-22T03:58:00.000Z</time>
        <extensions>
          <ns3:TrackPointExtension>
            <ns3:hr>146</ns3:hr>
            <ns3:cad>55</ns3:cad>
          </ns3:TrackPointExtension>
        </extensions>
      </trkpt>
      <trkpt lat="45.25692905299365520477294921875" lon="-71.18313238956034183502197265625">
        <ele>587.4000244140625</ele>
        <time>2026-08-22T03:58:01.000Z</time>
        <extensions>
          <ns3:TrackPointExtension>
            <ns3:hr>147</ns3:hr>
            <ns3:cad>55</ns3:cad>
          </ns3:TrackPointExtension>
        </extensions>
      </trkpt>
      <trkpt lat="45.2569135464727878570556640625" lon="-71.1831356585025787353515625">
        <ele>587.5999755859375</ele>
        <time>2026-08-22T03:58:02.000Z</time>
        <extensions>
          <ns3:TrackPointExtension>
            <ns3:hr>146</ns3:hr>
            <ns3:cad>55</ns3:cad>
          </ns3:TrackPointExtension>
        </extensions>
      </trkpt>
      <trkpt lat="45.256900973618030548095703125" lon="-71.1831381730735301971435546875">
        <ele>587.5999755859375</ele>
        <time>2026-08-22T03:58:03.000Z</time>
        <extensions>
          <ns3:TrackPointExtension>
            <ns3:hr>147</ns3:hr>
            <ns3:cad>55</ns3:cad>
          </ns3:TrackPointExtension>
        </extensions>
      </trkpt>
      <trkpt lat="45.25688781403005123138427734375" lon="-71.18313875980675220489501953125">
        <ele>587.79998779296875</ele>
        <time>2026-08-22T03:58:04.000Z</time>
        <extensions>
          <ns3:TrackPointExtension>
            <ns3:hr>147</ns3:hr>
            <ns3:cad>55</ns3:cad>
          </ns3:TrackPointExtension>
        </extensions>
      </trkpt>
      <trkpt lat="45.256875492632389068603515625" lon="-71.1831383407115936279296875">
        <ele>587.79998779296875</ele>
        <time>2026-08-22T03:58:05.000Z</time>
        <extensions>
          <ns3:TrackPointExtension>
            <ns3:hr>147</ns3:hr>
            <ns3:cad>56</ns3:cad>
          </ns3:TrackPointExtension>
        </extensions>
      </trkpt>
      <trkpt lat="45.25686216540634632110595703125" lon="-71.18313926272094249725341796875">
        <ele>588</ele>
        <time>2026-08-22T03:58:06.000Z</time>
        <extensions>
          <ns3:TrackPointExtension>
            <ns3:hr>147</ns3:hr>
            <ns3:cad>56</ns3:cad>
          </ns3:TrackPointExtension>
        </extensions>
      </trkpt>
      <trkpt lat="45.256846658885478973388671875" lon="-71.18314177729189395904541015625">
        <ele>588.20001220703125</ele>
        <time>2026-08-22T03:58:07.000Z</time>
        <extensions>
          <ns3:TrackPointExtension>
            <ns3:hr>147</ns3:hr>
            <ns3:cad>56</ns3:cad>
          </ns3:TrackPointExtension>
        </extensions>
      </trkpt>
      <trkpt lat="45.25682947598397731781005859375" lon="-71.18314378894865512847900390625">
        <ele>588.20001220703125</ele>
        <time>2026-08-22T03:58:08.000Z</time>
        <extensions>
          <ns3:TrackPointExtension>
            <ns3:hr>147</ns3:hr>
            <ns3:cad>56</ns3:cad>
          </ns3:TrackPointExtension>
        </extensions>
      </trkpt>
      <trkpt lat="45.25681824423372745513916015625" lon="-71.18314278312027454376220703125">
        <ele>588.4000244140625</ele>
        <time>2026-08-22T03:58:09.000Z</time>
        <extensions>
          <ns3:TrackPointExtension>
            <ns3:hr>148</ns3:hr>
            <ns3:cad>56</ns3:cad>
          </ns3:TrackPointExtension>
        </extensions>
      </trkpt>
      <trkpt lat="45.25680131278932094573974609375" lon="-71.1831455491483211517333984375">
        <ele>588.4000244140625</ele>
        <time>2026-08-22T03:58:10.000Z</time>
        <extensions>
          <ns3:TrackPointExtension>
            <ns3:hr>148</ns3:hr>
            <ns3:cad>56</ns3:cad>
          </ns3:TrackPointExtension>
        </extensions>
      </trkpt>
      <trkpt lat="45.256786309182643890380859375" lon="-71.183147728443145751953125">
        <ele>588.5999755859375</ele>
        <time>2026-08-22T03:58:11.000Z</time>
        <extensions>
          <ns3:TrackPointExtension>
            <ns3:hr>148</ns3:hr>
            <ns3:cad>56</ns3:cad>
          </ns3:TrackPointExtension>
        </extensions>
      </trkpt>
      <trkpt lat="45.25677365250885486602783203125" lon="-71.1831489019095897674560546875">
        <ele>588.5999755859375</ele>
        <time>2026-08-22T03:58:12.000Z</time>
        <extensions>
          <ns3:TrackPointExtension>
            <ns3:hr>147</ns3:hr>
            <ns3:cad>54</ns3:cad>
          </ns3:TrackPointExtension>
        </extensions>
      </trkpt>
      <trkpt lat="45.25675923563539981842041015625" lon="-71.18314948864281177520751953125">
        <ele>588.79998779296875</ele>
        <time>2026-08-22T03:58:13.000Z</time>
        <extensions>
          <ns3:TrackPointExtension>
            <ns3:hr>147</ns3:hr>
            <ns3:cad>54</ns3:cad>
          </ns3:TrackPointExtension>
        </extensions>
      </trkpt>
      <trkpt lat="45.25674439966678619384765625" lon="-71.18315041065216064453125">
        <ele>589</ele>
        <time>2026-08-22T03:58:14.000Z</time>
        <extensions>
          <ns3:TrackPointExtension>
            <ns3:hr>147</ns3:hr>
            <ns3:cad>54</ns3:cad>
          </ns3:TrackPointExtension>
        </extensions>
      </trkpt>
      <trkpt lat="45.25673274882137775421142578125" lon="-71.18315233848989009857177734375">
        <ele>589.20001220703125</ele>
        <time>2026-08-22T03:58:15.000Z</time>
        <extensions>
          <ns3:TrackPointExtension>
            <ns3:hr>147</ns3:hr>
            <ns3:cad>54</ns3:cad>
          </ns3:TrackPointExtension>
        </extensions>
      </trkpt>
      <trkpt lat="45.25671682320535182952880859375" lon="-71.1831542663276195526123046875">
        <ele>589.4000244140625</ele>
        <time>2026-08-22T03:58:16.000Z</time>
        <extensions>
          <ns3:TrackPointExtension>
            <ns3:hr>147</ns3:hr>
            <ns3:cad>54</ns3:cad>
          </ns3:TrackPointExtension>
        </extensions>
      </trkpt>
      <trkpt lat="45.25670425035059452056884765625" lon="-71.18315317668020725250244140625">
        <ele>589.5999755859375</ele>
        <time>2026-08-22T03:58:17.000Z</time>
        <extensions>
          <ns3:TrackPointExtension>
            <ns3:hr>147</ns3:hr>
            <ns3:cad>53</ns3:cad>
          </ns3:TrackPointExtension>
        </extensions>
      </trkpt>
      <trkpt lat="45.25668798945844173431396484375" lon="-71.1831562779843807220458984375">
        <ele>589.5999755859375</ele>
        <time>2026-08-22T03:58:18.000Z</time>
        <extensions>
          <ns3:TrackPointExtension>
            <ns3:hr>148</ns3:hr>
            <ns3:cad>53</ns3:cad>
          </ns3:TrackPointExtension>
        </extensions>
      </trkpt>
      <trkpt lat="45.25667357258498668670654296875" lon="-71.183157451450824737548828125">
        <ele>589.79998779296875</ele>
        <time>2026-08-22T03:58:19.000Z</time>
        <extensions>
          <ns3:TrackPointExtension>
            <ns3:hr>148</ns3:hr>
            <ns3:cad>53</ns3:cad>
          </ns3:TrackPointExtension>
        </extensions>
      </trkpt>
      <trkpt lat="45.2566594071686267852783203125" lon="-71.18315485306084156036376953125">
        <ele>590</ele>
        <time>2026-08-22T03:58:20.000Z</time>
        <extensions>
          <ns3:TrackPointExtension>
            <ns3:hr>147</ns3:hr>
            <ns3:cad>53</ns3:cad>
          </ns3:TrackPointExtension>
        </extensions>
      </trkpt>
      <trkpt lat="45.256645493209362030029296875" lon="-71.18315376341342926025390625">
        <ele>590.20001220703125</ele>
        <time>2026-08-22T03:58:21.000Z</time>
        <extensions>
          <ns3:TrackPointExtension>
            <ns3:hr>147</ns3:hr>
            <ns3:cad>53</ns3:cad>
          </ns3:TrackPointExtension>
        </extensions>
      </trkpt>
      <trkpt lat="45.25663048960268497467041015625" lon="-71.1831539310514926910400390625">
        <ele>590.4000244140625</ele>
        <time>2026-08-22T03:58:22.000Z</time>
        <extensions>
          <ns3:TrackPointExtension>
            <ns3:hr>147</ns3:hr>
            <ns3:cad>53</ns3:cad>
          </ns3:TrackPointExtension>
        </extensions>
      </trkpt>
      <trkpt lat="45.25661607272922992706298828125" lon="-71.18315778672695159912109375">
        <ele>590.5999755859375</ele>
        <time>2026-08-22T03:58:23.000Z</time>
        <extensions>
          <ns3:TrackPointExtension>
            <ns3:hr>146</ns3:hr>
            <ns3:cad>53</ns3:cad>
          </ns3:TrackPointExtension>
        </extensions>
      </trkpt>
      <trkpt lat="45.25660417042672634124755859375" lon="-71.18315971456468105316162109375">
        <ele>590.5999755859375</ele>
        <time>2026-08-22T03:58:24.000Z</time>
        <extensions>
          <ns3:TrackPointExtension>
            <ns3:hr>146</ns3:hr>
            <ns3:cad>53</ns3:cad>
          </ns3:TrackPointExtension>
        </extensions>
      </trkpt>
      <trkpt lat="45.2565853111445903778076171875" lon="-71.183163486421108245849609375">
        <ele>590.79998779296875</ele>
        <time>2026-08-22T03:58:25.000Z</time>
        <extensions>
          <ns3:TrackPointExtension>
            <ns3:hr>146</ns3:hr>
            <ns3:cad>53</ns3:cad>
          </ns3:TrackPointExtension>
        </extensions>
      </trkpt>
      <trkpt lat="45.25657407939434051513671875" lon="-71.1831579543650150299072265625">
        <ele>590.79998779296875</ele>
        <time>2026-08-22T03:58:26.000Z</time>
        <extensions>
          <ns3:TrackPointExtension>
            <ns3:hr>146</ns3:hr>
            <ns3:cad>55</ns3:cad>
          </ns3:TrackPointExtension>
        </extensions>
      </trkpt>
      <trkpt lat="45.25656242854893207550048828125" lon="-71.18315518833696842193603515625">
        <ele>591</ele>
        <time>2026-08-22T03:58:27.000Z</time>
        <extensions>
          <ns3:TrackPointExtension>
            <ns3:hr>145</ns3:hr>
            <ns3:cad>55</ns3:cad>
          </ns3:TrackPointExtension>
        </extensions>
      </trkpt>
      <trkpt lat="45.25654859840869903564453125" lon="-71.18315854109823703765869140625">
        <ele>591</ele>
        <time>2026-08-22T03:58:28.000Z</time>
        <extensions>
          <ns3:TrackPointExtension>
            <ns3:hr>146</ns3:hr>
            <ns3:cad>55</ns3:cad>
          </ns3:TrackPointExtension>
        </extensions>
      </trkpt>
      <trkpt lat="45.2565316669642925262451171875" lon="-71.18315837346017360687255859375">
        <ele>591.20001220703125</ele>
        <time>2026-08-22T03:58:29.000Z</time>
        <extensions>
          <ns3:TrackPointExtension>
            <ns3:hr>146</ns3:hr>
            <ns3:cad>55</ns3:cad>
          </ns3:TrackPointExtension>
        </extensions>
      </trkpt>
      <trkpt lat="45.2565185911953449249267578125" lon="-71.18315602652728557586669921875">
        <ele>591.4000244140625</ele>
        <time>2026-08-22T03:58:30.000Z</time>
        <extensions>
          <ns3:TrackPointExtension>
            <ns3:hr>146</ns3:hr>
            <ns3:cad>55</ns3:cad>
          </ns3:TrackPointExtension>
        </extensions>
      </trkpt>
      <trkpt lat="45.25650006718933582305908203125" lon="-71.18315367959439754486083984375">
        <ele>591.5999755859375</ele>
        <time>2026-08-22T03:58:31.000Z</time>
        <extensions>
          <ns3:TrackPointExtension>
            <ns3:hr>146</ns3:hr>
            <ns3:cad>55</ns3:cad>
          </ns3:TrackPointExtension>
        </extensions>
      </trkpt>
      <trkpt lat="45.256486237049102783203125" lon="-71.18315535597503185272216796875">
        <ele>591.5999755859375</ele>
        <time>2026-08-22T03:58:32.000Z</time>
        <extensions>
          <ns3:TrackPointExtension>
            <ns3:hr>147</ns3:hr>
            <ns3:cad>55</ns3:cad>
          </ns3:TrackPointExtension>
        </extensions>
      </trkpt>
      <trkpt lat="45.25647257454693317413330078125" lon="-71.183152757585048675537109375">
        <ele>591.79998779296875</ele>
        <time>2026-08-22T03:58:33.000Z</time>
        <extensions>
          <ns3:TrackPointExtension>
            <ns3:hr>147</ns3:hr>
            <ns3:cad>55</ns3:cad>
          </ns3:TrackPointExtension>
        </extensions>
      </trkpt>
      <trkpt lat="45.2564595825970172882080078125" lon="-71.18315401487052440643310546875">
        <ele>591.79998779296875</ele>
        <time>2026-08-22T03:58:34.000Z</time>
        <extensions>
          <ns3:TrackPointExtension>
            <ns3:hr>147</ns3:hr>
            <ns3:cad>55</ns3:cad>
          </ns3:TrackPointExtension>
        </extensions>
      </trkpt>
      <trkpt lat="45.2564471773803234100341796875" lon="-71.1831532604992389678955078125">
        <ele>591.79998779296875</ele>
        <time>2026-08-22T03:58:35.000Z</time>
        <extensions>
          <ns3:TrackPointExtension>
            <ns3:hr>147</ns3:hr>
            <ns3:cad>56</ns3:cad>
          </ns3:TrackPointExtension>
        </extensions>
      </trkpt>
      <trkpt lat="45.25643250904977321624755859375" lon="-71.18315200321376323699951171875">
        <ele>592</ele>
        <time>2026-08-22T03:58:36.000Z</time>
        <extensions>
          <ns3:TrackPointExtension>
            <ns3:hr>146</ns3:hr>
            <ns3:cad>56</ns3:cad>
          </ns3:TrackPointExtension>
        </extensions>
      </trkpt>
      <trkpt lat="45.25641842745244503021240234375" lon="-71.183152087032794952392578125">
        <ele>592.20001220703125</ele>
        <time>2026-08-22T03:58:37.000Z</time>
        <extensions>
          <ns3:TrackPointExtension>
            <ns3:hr>146</ns3:hr>
            <ns3:cad>56</ns3:cad>
          </ns3:TrackPointExtension>
        </extensions>
      </trkpt>
      <trkpt lat="45.256404764950275421142578125" lon="-71.18315183557569980621337890625">
        <ele>592.20001220703125</ele>
        <time>2026-08-22T03:58:38.000Z</time>
        <extensions>
          <ns3:TrackPointExtension>
            <ns3:hr>146</ns3:hr>
            <ns3:cad>55</ns3:cad>
          </ns3:TrackPointExtension>
        </extensions>
      </trkpt>
      <trkpt lat="45.25639311410486698150634765625" lon="-71.18315041065216064453125">
        <ele>592.4000244140625</ele>
        <time>2026-08-22T03:58:39.000Z</time>
        <extensions>
          <ns3:TrackPointExtension>
            <ns3:hr>146</ns3:hr>
            <ns3:cad>55</ns3:cad>
          </ns3:TrackPointExtension>
        </extensions>
      </trkpt>
      <trkpt lat="45.256380625069141387939453125" lon="-71.1831502430140972137451171875">
        <ele>592.5999755859375</ele>
        <time>2026-08-22T03:58:40.000Z</time>
        <extensions>
          <ns3:TrackPointExtension>
            <ns3:hr>146</ns3:hr>
            <ns3:cad>55</ns3:cad>
          </ns3:TrackPointExtension>
        </extensions>
      </trkpt>
      <trkpt lat="45.25636696256697177886962890625" lon="-71.1831502430140972137451171875">
        <ele>592.5999755859375</ele>
        <time>2026-08-22T03:58:41.000Z</time>
        <extensions>
          <ns3:TrackPointExtension>
            <ns3:hr>146</ns3:hr>
            <ns3:cad>55</ns3:cad>
          </ns3:TrackPointExtension>
        </extensions>
      </trkpt>
      <trkpt lat="45.256352461874485015869140625" lon="-71.18314932100474834442138671875">
        <ele>592.79998779296875</ele>
        <time>2026-08-22T03:58:42.000Z</time>
        <extensions>
          <ns3:TrackPointExtension>
            <ns3:hr>146</ns3:hr>
            <ns3:cad>55</ns3:cad>
          </ns3:TrackPointExtension>
        </extensions>
      </trkpt>
      <trkpt lat="45.25633846409618854522705078125" lon="-71.18315166793763637542724609375">
        <ele>592.79998779296875</ele>
        <time>2026-08-22T03:58:43.000Z</time>
        <extensions>
          <ns3:TrackPointExtension>
            <ns3:hr>146</ns3:hr>
            <ns3:cad>55</ns3:cad>
          </ns3:TrackPointExtension>
        </extensions>
      </trkpt>
      <trkpt lat="45.25632404722273349761962890625" lon="-71.18315116502344608306884765625">
        <ele>593</ele>
        <time>2026-08-22T03:58:44.000Z</time>
        <extensions>
          <ns3:TrackPointExtension>
            <ns3:hr>146</ns3:hr>
            <ns3:cad>55</ns3:cad>
          </ns3:TrackPointExtension>
        </extensions>
      </trkpt>
      <trkpt lat="45.25631122291088104248046875" lon="-71.18315217085182666778564453125">
        <ele>593</ele>
        <time>2026-08-22T03:58:45.000Z</time>
        <extensions>
          <ns3:TrackPointExtension>
            <ns3:hr>146</ns3:hr>
            <ns3:cad>56</ns3:cad>
          </ns3:TrackPointExtension>
        </extensions>
      </trkpt>
      <trkpt lat="45.25629739277064800262451171875" lon="-71.1831517517566680908203125">
        <ele>593.20001220703125</ele>
        <time>2026-08-22T03:58:46.000Z</time>
        <extensions>
          <ns3:TrackPointExtension>
            <ns3:hr>146</ns3:hr>
            <ns3:cad>56</ns3:cad>
          </ns3:TrackPointExtension>
        </extensions>
      </trkpt>
      <trkpt lat="45.25628129951655864715576171875" lon="-71.18315015919506549835205078125">
        <ele>593.4000244140625</ele>
        <time>2026-08-22T03:58:47.000Z</time>
        <extensions>
          <ns3:TrackPointExtension>
            <ns3:hr>146</ns3:hr>
            <ns3:cad>56</ns3:cad>
          </ns3:TrackPointExtension>
        </extensions>
      </trkpt>
      <trkpt lat="45.256266631186008453369140625" lon="-71.18314999155700206756591796875">
        <ele>593.4000244140625</ele>
        <time>2026-08-22T03:58:48.000Z</time>
        <extensions>
          <ns3:TrackPointExtension>
            <ns3:hr>146</ns3:hr>
            <ns3:cad>56</ns3:cad>
          </ns3:TrackPointExtension>
        </extensions>
      </trkpt>
      <trkpt lat="45.25625263340771198272705078125" lon="-71.1831482313573360443115234375">
        <ele>593.5999755859375</ele>
        <time>2026-08-22T03:58:49.000Z</time>
        <extensions>
          <ns3:TrackPointExtension>
            <ns3:hr>146</ns3:hr>
            <ns3:cad>56</ns3:cad>
          </ns3:TrackPointExtension>
        </extensions>
      </trkpt>
      <trkpt lat="45.25623737834393978118896484375" lon="-71.18314974009990692138671875">
        <ele>593.5999755859375</ele>
        <time>2026-08-22T03:58:50.000Z</time>
        <extensions>
          <ns3:TrackPointExtension>
            <ns3:hr>145</ns3:hr>
            <ns3:cad>56</ns3:cad>
          </ns3:TrackPointExtension>
        </extensions>
      </trkpt>
      <trkpt lat="45.25622279383242130279541015625" lon="-71.183147393167018890380859375">
        <ele>593.79998779296875</ele>
        <time>2026-08-22T03:58:51.000Z</time>
        <extensions>
          <ns3:TrackPointExtension>
            <ns3:hr>145</ns3:hr>
            <ns3:cad>56</ns3:cad>
          </ns3:TrackPointExtension>
        </extensions>
      </trkpt>
      <trkpt lat="45.25620921514928340911865234375" lon="-71.18314529769122600555419921875">
        <ele>593.79998779296875</ele>
        <time>2026-08-22T03:58:52.000Z</time>
        <extensions>
          <ns3:TrackPointExtension>
            <ns3:hr>145</ns3:hr>
            <ns3:cad>55</ns3:cad>
          </ns3:TrackPointExtension>
        </extensions>
      </trkpt>
      <trkpt lat="45.25619396008551120758056640625" lon="-71.18314328603446483612060546875">
        <ele>593.79998779296875</ele>
        <time>2026-08-22T03:58:53.000Z</time>
        <extensions>
          <ns3:TrackPointExtension>
            <ns3:hr>144</ns3:hr>
            <ns3:cad>55</ns3:cad>
          </ns3:TrackPointExtension>
        </extensions>
      </trkpt>
      <trkpt lat="45.25617769919335842132568359375" lon="-71.18314160965383052825927734375">
        <ele>594</ele>
        <time>2026-08-22T03:58:54.000Z</time>
        <extensions>
          <ns3:TrackPointExtension>
            <ns3:hr>144</ns3:hr>
            <ns3:cad>54</ns3:cad>
          </ns3:TrackPointExtension>
        </extensions>
      </trkpt>
      <trkpt lat="45.256160683929920196533203125" lon="-71.18314261548221111297607421875">
        <ele>594</ele>
        <time>2026-08-22T03:58:55.000Z</time>
        <extensions>
          <ns3:TrackPointExtension>
            <ns3:hr>144</ns3:hr>
            <ns3:cad>54</ns3:cad>
          </ns3:TrackPointExtension>
        </extensions>
      </trkpt>
      <trkpt lat="45.2561454288661479949951171875" lon="-71.183146722614765167236328125">
        <ele>594.20001220703125</ele>
        <time>2026-08-22T03:58:56.000Z</time>
        <extensions>
          <ns3:TrackPointExtension>
            <ns3:hr>144</ns3:hr>
            <ns3:cad>54</ns3:cad>
          </ns3:TrackPointExtension>
        </extensions>
      </trkpt>
      <trkpt lat="45.256129838526248931884765625" lon="-71.1831463873386383056640625">
        <ele>594.20001220703125</ele>
        <time>2026-08-22T03:58:57.000Z</time>
        <extensions>
          <ns3:TrackPointExtension>
            <ns3:hr>144</ns3:hr>
            <ns3:cad>55</ns3:cad>
          </ns3:TrackPointExtension>
        </extensions>
      </trkpt>
      <trkpt lat="45.25611667893826961517333984375" lon="-71.18314797990024089813232421875">
        <ele>594.4000244140625</ele>
        <time>2026-08-22T03:58:58.000Z</time>
        <extensions>
          <ns3:TrackPointExtension>
            <ns3:hr>144</ns3:hr>
            <ns3:cad>55</ns3:cad>
          </ns3:TrackPointExtension>
        </extensions>
      </trkpt>
      <trkpt lat="45.2561040222644805908203125" lon="-71.18314714170992374420166015625">
        <ele>594.5999755859375</ele>
        <time>2026-08-22T03:58:59.000Z</time>
        <extensions>
          <ns3:TrackPointExtension>
            <ns3:hr>144</ns3:hr>
            <ns3:cad>55</ns3:cad>
          </ns3:TrackPointExtension>
        </extensions>
      </trkpt>
      <trkpt lat="45.25609019212424755096435546875" lon="-71.18314898572862148284912109375">
        <ele>594.79998779296875</ele>
        <time>2026-08-22T03:59:00.000Z</time>
        <extensions>
          <ns3:TrackPointExtension>
            <ns3:hr>144</ns3:hr>
            <ns3:cad>55</ns3:cad>
          </ns3:TrackPointExtension>
        </extensions>
      </trkpt>
      <trkpt lat="45.2560773678123950958251953125" lon="-71.1831539310514926910400390625">
        <ele>595</ele>
        <time>2026-08-22T03:59:01.000Z</time>
        <extensions>
          <ns3:TrackPointExtension>
            <ns3:hr>144</ns3:hr>
            <ns3:cad>56</ns3:cad>
          </ns3:TrackPointExtension>
        </extensions>
      </trkpt>
      <trkpt lat="45.2560629509389400482177734375" lon="-71.18315418250858783721923828125">
        <ele>595</ele>
        <time>2026-08-22T03:59:02.000Z</time>
        <extensions>
          <ns3:TrackPointExtension>
            <ns3:hr>144</ns3:hr>
            <ns3:cad>56</ns3:cad>
          </ns3:TrackPointExtension>
        </extensions>
      </trkpt>
      <trkpt lat="45.2560481987893581390380859375" lon="-71.1831542663276195526123046875">
        <ele>595.20001220703125</ele>
        <time>2026-08-22T03:59:03.000Z</time>
        <extensions>
          <ns3:TrackPointExtension>
            <ns3:hr>144</ns3:hr>
            <ns3:cad>56</ns3:cad>
          </ns3:TrackPointExtension>
        </extensions>
      </trkpt>
      <trkpt lat="45.2560337819159030914306640625" lon="-71.18314865045249462127685546875">
        <ele>595.20001220703125</ele>
        <time>2026-08-22T03:59:04.000Z</time>
        <extensions>
          <ns3:TrackPointExtension>
            <ns3:hr>143</ns3:hr>
            <ns3:cad>57</ns3:cad>
          </ns3:TrackPointExtension>
        </extensions>
      </trkpt>
      <trkpt lat="45.2560153417289257049560546875" lon="-71.18314496241509914398193359375">
        <ele>595.20001220703125</ele>
        <time>2026-08-22T03:59:05.000Z</time>
        <extensions>
          <ns3:TrackPointExtension>
            <ns3:hr>143</ns3:hr>
            <ns3:cad>57</ns3:cad>
          </ns3:TrackPointExtension>
        </extensions>
      </trkpt>
      <trkpt lat="45.25600017048418521881103515625" lon="-71.18314228020608425140380859375">
        <ele>595.4000244140625</ele>
        <time>2026-08-22T03:59:06.000Z</time>
        <extensions>
          <ns3:TrackPointExtension>
            <ns3:hr>143</ns3:hr>
            <ns3:cad>57</ns3:cad>
          </ns3:TrackPointExtension>
        </extensions>
      </trkpt>
      <trkpt lat="45.25598290376365184783935546875" lon="-71.1831428669393062591552734375">
        <ele>595.4000244140625</ele>
        <time>2026-08-22T03:59:07.000Z</time>
        <extensions>
          <ns3:TrackPointExtension>
            <ns3:hr>143</ns3:hr>
            <ns3:cad>57</ns3:cad>
          </ns3:TrackPointExtension>
        </extensions>
      </trkpt>
      <trkpt lat="45.25596613995730876922607421875" lon="-71.18314278312027454376220703125">
        <ele>595.5999755859375</ele>
        <time>2026-08-22T03:59:08.000Z</time>
        <extensions>
          <ns3:TrackPointExtension>
            <ns3:hr>142</ns3:hr>
            <ns3:cad>57</ns3:cad>
          </ns3:TrackPointExtension>
        </extensions>
      </trkpt>
      <trkpt lat="45.255941413342952728271484375" lon="-71.1831463873386383056640625">
        <ele>595.79998779296875</ele>
        <time>2026-08-22T03:59:09.000Z</time>
        <extensions>
          <ns3:TrackPointExtension>
            <ns3:hr>142</ns3:hr>
            <ns3:cad>57</ns3:cad>
          </ns3:TrackPointExtension>
        </extensions>
      </trkpt>
      <trkpt lat="45.25592339225113391876220703125" lon="-71.183146722614765167236328125">
        <ele>596</ele>
        <time>2026-08-22T03:59:10.000Z</time>
        <extensions>
          <ns3:TrackPointExtension>
            <ns3:hr>142</ns3:hr>
            <ns3:cad>57</ns3:cad>
          </ns3:TrackPointExtension>
        </extensions>
      </trkpt>
      <trkpt lat="45.25590428151190280914306640625" lon="-71.18314797990024089813232421875">
        <ele>596.20001220703125</ele>
        <time>2026-08-22T03:59:11.000Z</time>
        <extensions>
          <ns3:TrackPointExtension>
            <ns3:hr>141</ns3:hr>
            <ns3:cad>0</ns3:cad>
          </ns3:TrackPointExtension>
        </extensions>
      </trkpt>
      <trkpt lat="45.25589019991457462310791015625" lon="-71.18314730934798717498779296875">
        <ele>596.4000244140625</ele>
        <time>2026-08-22T03:59:12.000Z</time>
        <extensions>
          <ns3:TrackPointExtension>
            <ns3:hr>141</ns3:hr>
            <ns3:cad>0</ns3:cad>
          </ns3:TrackPointExtension>
        </extensions>
      </trkpt>
      <trkpt lat="45.25586991570889949798583984375" lon="-71.1831438727676868438720703125">
        <ele>596.4000244140625</ele>
        <time>2026-08-22T03:59:13.000Z</time>
        <extensions>
          <ns3:TrackPointExtension>
            <ns3:hr>141</ns3:hr>
            <ns3:cad>0</ns3:cad>
          </ns3:TrackPointExtension>
        </extensions>
      </trkpt>
      <trkpt lat="45.25584158487617969512939453125" lon="-71.1831405200064182281494140625">
        <ele>596.5999755859375</ele>
        <time>2026-08-22T03:59:14.000Z</time>
        <extensions>
          <ns3:TrackPointExtension>
            <ns3:hr>140</ns3:hr>
            <ns3:cad>0</ns3:cad>
          </ns3:TrackPointExtension>
        </extensions>
      </trkpt>
      <trkpt lat="45.2558249048888683319091796875" lon="-71.1831385083496570587158203125">
        <ele>596.79998779296875</ele>
        <time>2026-08-22T03:59:15.000Z</time>
        <extensions>
          <ns3:TrackPointExtension>
            <ns3:hr>140</ns3:hr>
            <ns3:cad>0</ns3:cad>
          </ns3:TrackPointExtension>
        </extensions>
      </trkpt>
      <trkpt lat="45.25580604560673236846923828125" lon="-71.1831425316631793975830078125">
        <ele>596.79998779296875</ele>
        <time>2026-08-22T03:59:16.000Z</time>
        <extensions>
          <ns3:TrackPointExtension>
            <ns3:hr>141</ns3:hr>
            <ns3:cad>81</ns3:cad>
          </ns3:TrackPointExtension>
        </extensions>
      </trkpt>
      <trkpt lat="45.25578743778169155120849609375" lon="-71.18314663879573345184326171875">
        <ele>597</ele>
        <time>2026-08-22T03:59:17.000Z</time>
        <extensions>
          <ns3:TrackPointExtension>
            <ns3:hr>141</ns3:hr>
            <ns3:cad>81</ns3:cad>
          </ns3:TrackPointExtension>
        </extensions>
      </trkpt>
      <trkpt lat="45.25577067397534847259521484375" lon="-71.18314831517636775970458984375">
        <ele>597.20001220703125</ele>
        <time>2026-08-22T03:59:18.000Z</time>
        <extensions>
          <ns3:TrackPointExtension>
            <ns3:hr>142</ns3:hr>
            <ns3:cad>78</ns3:cad>
          </ns3:TrackPointExtension>
        </extensions>
      </trkpt>
      <trkpt lat="45.25574930012226104736328125" lon="-71.1831452138721942901611328125">
        <ele>597.20001220703125</ele>
        <time>2026-08-22T03:59:19.000Z</time>
        <extensions>
          <ns3:TrackPointExtension>
            <ns3:hr>142</ns3:hr>
            <ns3:cad>78</ns3:cad>
          </ns3:TrackPointExtension>
        </extensions>
      </trkpt>
      <trkpt lat="45.25573010556399822235107421875" lon="-71.183144040405750274658203125">
        <ele>597.4000244140625</ele>
        <time>2026-08-22T03:59:20.000Z</time>
        <extensions>
          <ns3:TrackPointExtension>
            <ns3:hr>142</ns3:hr>
            <ns3:cad>78</ns3:cad>
          </ns3:TrackPointExtension>
        </extensions>
      </trkpt>
      <trkpt lat="45.25571200065314769744873046875" lon="-71.18314295075833797454833984375">
        <ele>597.5999755859375</ele>
        <time>2026-08-22T03:59:21.000Z</time>
        <extensions>
          <ns3:TrackPointExtension>
            <ns3:hr>142</ns3:hr>
            <ns3:cad>79</ns3:cad>
          </ns3:TrackPointExtension>
        </extensions>
      </trkpt>
      <trkpt lat="45.25569029152393341064453125" lon="-71.1831432022154331207275390625">
        <ele>597.79998779296875</ele>
        <time>2026-08-22T03:59:22.000Z</time>
        <extensions>
          <ns3:TrackPointExtension>
            <ns3:hr>142</ns3:hr>
            <ns3:cad>79</ns3:cad>
          </ns3:TrackPointExtension>
        </extensions>
      </trkpt>
      <trkpt lat="45.25567294098436832427978515625" lon="-71.18314328603446483612060546875">
        <ele>598</ele>
        <time>2026-08-22T03:59:23.000Z</time>
        <extensions>
          <ns3:TrackPointExtension>
            <ns3:hr>142</ns3:hr>
            <ns3:cad>79</ns3:cad>
          </ns3:TrackPointExtension>
        </extensions>
      </trkpt>
      <trkpt lat="45.2556542493402957916259765625" lon="-71.18314529769122600555419921875">
        <ele>598</ele>
        <time>2026-08-22T03:59:24.000Z</time>
        <extensions>
          <ns3:TrackPointExtension>
            <ns3:hr>143</ns3:hr>
            <ns3:cad>79</ns3:cad>
          </ns3:TrackPointExtension>
        </extensions>
      </trkpt>
      <trkpt lat="45.25563740171492099761962890625" lon="-71.18315166793763637542724609375">
        <ele>598.20001220703125</ele>
        <time>2026-08-22T03:59:25.000Z</time>
        <extensions>
          <ns3:TrackPointExtension>
            <ns3:hr>143</ns3:hr>
            <ns3:cad>76</ns3:cad>
          </ns3:TrackPointExtension>
        </extensions>
      </trkpt>
      <trkpt lat="45.255620889365673065185546875" lon="-71.18315284140408039093017578125">
        <ele>598.4000244140625</ele>
        <time>2026-08-22T03:59:26.000Z</time>
        <extensions>
          <ns3:TrackPointExtension>
            <ns3:hr>143</ns3:hr>
            <ns3:cad>76</ns3:cad>
          </ns3:TrackPointExtension>
        </extensions>
      </trkpt>
      <trkpt lat="45.25559934787452220916748046875" lon="-71.1831515841186046600341796875">
        <ele>598.4000244140625</ele>
        <time>2026-08-22T03:59:27.000Z</time>
        <extensions>
          <ns3:TrackPointExtension>
            <ns3:hr>143</ns3:hr>
            <ns3:cad>76</ns3:cad>
          </ns3:TrackPointExtension>
        </extensions>
      </trkpt>
      <trkpt lat="45.25557822547852993011474609375" lon="-71.18314915336668491363525390625">
        <ele>598.5999755859375</ele>
        <time>2026-08-22T03:59:28.000Z</time>
        <extensions>
          <ns3:TrackPointExtension>
            <ns3:hr>143</ns3:hr>
            <ns3:cad>76</ns3:cad>
          </ns3:TrackPointExtension>
        </extensions>
      </trkpt>
      <trkpt lat="45.255559198558330535888671875" lon="-71.1831463873386383056640625">
        <ele>598.79998779296875</ele>
        <time>2026-08-22T03:59:29.000Z</time>
        <extensions>
          <ns3:TrackPointExtension>
            <ns3:hr>143</ns3:hr>
            <ns3:cad>76</ns3:cad>
          </ns3:TrackPointExtension>
        </extensions>
      </trkpt>
      <trkpt lat="45.25553899817168712615966796875" lon="-71.1831371672451496124267578125">
        <ele>599</ele>
        <time>2026-08-22T03:59:30.000Z</time>
        <extensions>
          <ns3:TrackPointExtension>
            <ns3:hr>142</ns3:hr>
            <ns3:cad>76</ns3:cad>
          </ns3:TrackPointExtension>
        </extensions>
      </trkpt>
      <trkpt lat="45.25551594793796539306640625" lon="-71.18313373066484928131103515625">
        <ele>599</ele>
        <time>2026-08-22T03:59:31.000Z</time>
        <extensions>
          <ns3:TrackPointExtension>
            <ns3:hr>142</ns3:hr>
            <ns3:cad>76</ns3:cad>
          </ns3:TrackPointExtension>
        </extensions>
      </trkpt>
      <trkpt lat="45.25549775920808315277099609375" lon="-71.18313423357903957366943359375">
        <ele>599.20001220703125</ele>
        <time>2026-08-22T03:59:32.000Z</time>
        <extensions>
          <ns3:TrackPointExtension>
            <ns3:hr>143</ns3:hr>
            <ns3:cad>76</ns3:cad>
          </ns3:TrackPointExtension>
        </extensions>
      </trkpt>
      <trkpt lat="45.2554748766124248504638671875" lon="-71.1831341497600078582763671875">
        <ele>599.4000244140625</ele>
        <time>2026-08-22T03:59:33.000Z</time>
        <extensions>
          <ns3:TrackPointExtension>
            <ns3:hr>143</ns3:hr>
            <ns3:cad>76</ns3:cad>
          </ns3:TrackPointExtension>
        </extensions>
      </trkpt>
      <trkpt lat="45.25545291602611541748046875" lon="-71.18313205428421497344970703125">
        <ele>599.5999755859375</ele>
        <time>2026-08-22T03:59:34.000Z</time>
        <extensions>
          <ns3:TrackPointExtension>
            <ns3:hr>143</ns3:hr>
            <ns3:cad>76</ns3:cad>
          </ns3:TrackPointExtension>
        </extensions>
      </trkpt>
      <trkpt lat="45.2554322965443134307861328125" lon="-71.18313188664615154266357421875">
        <ele>599.5999755859375</ele>
        <time>2026-08-22T03:59:35.000Z</time>
        <extensions>
          <ns3:TrackPointExtension>
            <ns3:hr>143</ns3:hr>
            <ns3:cad>79</ns3:cad>
          </ns3:TrackPointExtension>
        </extensions>
      </trkpt>
      <trkpt lat="45.2554111741483211517333984375" lon="-71.1831343173980712890625">
        <ele>599.79998779296875</ele>
        <time>2026-08-22T03:59:36.000Z</time>
        <extensions>
          <ns3:TrackPointExtension>
            <ns3:hr>144</ns3:hr>
            <ns3:cad>79</ns3:cad>
          </ns3:TrackPointExtension>
        </extensions>
      </trkpt>
      <trkpt lat="45.25538996793329715728759765625" lon="-71.18313373066484928131103515625">
        <ele>599.79998779296875</ele>
        <time>2026-08-22T03:59:37.000Z</time>
        <extensions>
          <ns3:TrackPointExtension>
            <ns3:hr>143</ns3:hr>
            <ns3:cad>79</ns3:cad>
          </ns3:TrackPointExtension>
        </extensions>
      </trkpt>
      <trkpt lat="45.25536918081343173980712890625" lon="-71.183131299912929534912109375">
        <ele>600</ele>
        <time>2026-08-22T03:59:38.000Z</time>
        <extensions>
          <ns3:TrackPointExtension>
            <ns3:hr>142</ns3:hr>
            <ns3:cad>79</ns3:cad>
          </ns3:TrackPointExtension>
        </extensions>
      </trkpt>
      <trkpt lat="45.25535023771226406097412109375" lon="-71.18313037790358066558837890625">
        <ele>600</ele>
        <time>2026-08-22T03:59:39.000Z</time>
        <extensions>
          <ns3:TrackPointExtension>
            <ns3:hr>142</ns3:hr>
            <ns3:cad>40</ns3:cad>
          </ns3:TrackPointExtension>
        </extensions>
      </trkpt>
      <trkpt lat="45.25532928295433521270751953125" lon="-71.183128617703914642333984375">
        <ele>600.20001220703125</ele>
        <time>2026-08-22T03:59:40.000Z</time>
        <extensions>
          <ns3:TrackPointExtension>
            <ns3:hr>142</ns3:hr>
            <ns3:cad>78</ns3:cad>
          </ns3:TrackPointExtension>
        </extensions>
      </trkpt>
      <trkpt lat="45.25530765764415264129638671875" lon="-71.183129288256168365478515625">
        <ele>600.20001220703125</ele>
        <time>2026-08-22T03:59:41.000Z</time>
        <extensions>
          <ns3:TrackPointExtension>
            <ns3:hr>142</ns3:hr>
            <ns3:cad>78</ns3:cad>
          </ns3:TrackPointExtension>
        </extensions>
      </trkpt>
      <trkpt lat="45.25528972037136554718017578125" lon="-71.18312425911426544189453125">
        <ele>600.4000244140625</ele>
        <time>2026-08-22T03:59:42.000Z</time>
        <extensions>
          <ns3:TrackPointExtension>
            <ns3:hr>142</ns3:hr>
            <ns3:cad>78</ns3:cad>
          </ns3:TrackPointExtension>
        </extensions>
      </trkpt>
      <trkpt lat="45.25526574812829494476318359375" lon="-71.1831200681626796722412109375">
        <ele>600.4000244140625</ele>
        <time>2026-08-22T03:59:43.000Z</time>
        <extensions>
          <ns3:TrackPointExtension>
            <ns3:hr>143</ns3:hr>
            <ns3:cad>78</ns3:cad>
          </ns3:TrackPointExtension>
        </extensions>
      </trkpt>
      <trkpt lat="45.25524579919874668121337890625" lon="-71.1831230856478214263916015625">
        <ele>600.5999755859375</ele>
        <time>2026-08-22T03:59:44.000Z</time>
        <extensions>
          <ns3:TrackPointExtension>
            <ns3:hr>143</ns3:hr>
            <ns3:cad>78</ns3:cad>
          </ns3:TrackPointExtension>
        </extensions>
      </trkpt>
      <trkpt lat="45.25523154996335506439208984375" lon="-71.18312216363847255706787109375">
        <ele>600.5999755859375</ele>
        <time>2026-08-22T03:59:45.000Z</time>
        <extensions>
          <ns3:TrackPointExtension>
            <ns3:hr>144</ns3:hr>
            <ns3:cad>78</ns3:cad>
          </ns3:TrackPointExtension>
        </extensions>
      </trkpt>
      <trkpt lat="45.25521176867187023162841796875" lon="-71.18311931379139423370361328125">
        <ele>600.5999755859375</ele>
        <time>2026-08-22T03:59:46.000Z</time>
        <extensions>
          <ns3:TrackPointExtension>
            <ns3:hr>144</ns3:hr>
            <ns3:cad>78</ns3:cad>
          </ns3:TrackPointExtension>
        </extensions>
      </trkpt>
      <trkpt lat="45.25519676506519317626953125" lon="-71.1831115186214447021484375">
        <ele>600.5999755859375</ele>
        <time>2026-08-22T03:59:47.000Z</time>
        <extensions>
          <ns3:TrackPointExtension>
            <ns3:hr>144</ns3:hr>
            <ns3:cad>78</ns3:cad>
          </ns3:TrackPointExtension>
        </extensions>
      </trkpt>
      <trkpt lat="45.25518612004816532135009765625" lon="-71.18310824967920780181884765625">
        <ele>600.5999755859375</ele>
        <time>2026-08-22T03:59:48.000Z</time>
        <extensions>
          <ns3:TrackPointExtension>
            <ns3:hr>145</ns3:hr>
            <ns3:cad>78</ns3:cad>
          </ns3:TrackPointExtension>
        </extensions>
      </trkpt>
      <trkpt lat="45.25517304427921772003173828125" lon="-71.1831049807369709014892578125">
        <ele>600.79998779296875</ele>
        <time>2026-08-22T03:59:49.000Z</time>
        <extensions>
          <ns3:TrackPointExtension>
            <ns3:hr>145</ns3:hr>
            <ns3:cad>78</ns3:cad>
          </ns3:TrackPointExtension>
        </extensions>
      </trkpt>
      <trkpt lat="45.25515393353998661041259765625" lon="-71.18310037069022655487060546875">
        <ele>600.79998779296875</ele>
        <time>2026-08-22T03:59:50.000Z</time>
        <extensions>
          <ns3:TrackPointExtension>
            <ns3:hr>145</ns3:hr>
            <ns3:cad>78</ns3:cad>
          </ns3:TrackPointExtension>
        </extensions>
      </trkpt>
      <trkpt lat="45.255136750638484954833984375" lon="-71.18309835903346538543701171875">
        <ele>601</ele>
        <time>2026-08-22T03:59:51.000Z</time>
        <extensions>
          <ns3:TrackPointExtension>
            <ns3:hr>145</ns3:hr>
            <ns3:cad>59</ns3:cad>
          </ns3:TrackPointExtension>
        </extensions>
      </trkpt>
      <trkpt lat="45.255123674869537353515625" lon="-71.183094419538974761962890625">
        <ele>601.20001220703125</ele>
        <time>2026-08-22T03:59:52.000Z</time>
        <extensions>
          <ns3:TrackPointExtension>
            <ns3:hr>144</ns3:hr>
            <ns3:cad>58</ns3:cad>
          </ns3:TrackPointExtension>
        </extensions>
      </trkpt>
      <trkpt lat="45.25511093437671661376953125" lon="-71.18309718556702136993408203125">
        <ele>601.20001220703125</ele>
        <time>2026-08-22T03:59:53.000Z</time>
        <extensions>
          <ns3:TrackPointExtension>
            <ns3:hr>145</ns3:hr>
            <ns3:cad>58</ns3:cad>
          </ns3:TrackPointExtension>
        </extensions>
      </trkpt>
      <trkpt lat="45.25509961880743503570556640625" lon="-71.1831006221473217010498046875">
        <ele>601.4000244140625</ele>
        <time>2026-08-22T03:59:54.000Z</time>
        <extensions>
          <ns3:TrackPointExtension>
            <ns3:hr>144</ns3:hr>
            <ns3:cad>57</ns3:cad>
          </ns3:TrackPointExtension>
        </extensions>
      </trkpt>
      <trkpt lat="45.25508922524750232696533203125" lon="-71.18309919722378253936767578125">
        <ele>601.4000244140625</ele>
        <time>2026-08-22T03:59:55.000Z</time>
        <extensions>
          <ns3:TrackPointExtension>
            <ns3:hr>144</ns3:hr>
            <ns3:cad>57</ns3:cad>
          </ns3:TrackPointExtension>
        </extensions>
      </trkpt>
      <trkpt lat="45.25507514365017414093017578125" lon="-71.1830969341099262237548828125">
        <ele>601.5999755859375</ele>
        <time>2026-08-22T03:59:56.000Z</time>
        <extensions>
          <ns3:TrackPointExtension>
            <ns3:hr>144</ns3:hr>
            <ns3:cad>55</ns3:cad>
          </ns3:TrackPointExtension>
        </extensions>
      </trkpt>
      <trkpt lat="45.255062989890575408935546875" lon="-71.18309617973864078521728515625">
        <ele>601.79998779296875</ele>
        <time>2026-08-22T03:59:57.000Z</time>
        <extensions>
          <ns3:TrackPointExtension>
            <ns3:hr>143</ns3:hr>
            <ns3:cad>55</ns3:cad>
          </ns3:TrackPointExtension>
        </extensions>
      </trkpt>
      <trkpt lat="45.25504882447421550750732421875" lon="-71.1830965988337993621826171875">
        <ele>601.79998779296875</ele>
        <time>2026-08-22T03:59:58.000Z</time>
        <extensions>
          <ns3:TrackPointExtension>
            <ns3:hr>143</ns3:hr>
            <ns3:cad>55</ns3:cad>
          </ns3:TrackPointExtension>
        </extensions>
      </trkpt>
      <trkpt lat="45.25503608398139476776123046875" lon="-71.18310120888054370880126953125">
        <ele>602</ele>
        <time>2026-08-22T03:59:59.000Z</time>
        <extensions>
          <ns3:TrackPointExtension>
            <ns3:hr>142</ns3:hr>
            <ns3:cad>55</ns3:cad>
          </ns3:TrackPointExtension>
        </extensions>
      </trkpt>
      <trkpt lat="45.2550262771546840667724609375" lon="-71.18310070596635341644287109375">
        <ele>602.20001220703125</ele>
        <time>2026-08-22T04:00:00.000Z</time>
        <extensions>
          <ns3:TrackPointExtension>
            <ns3:hr>142</ns3:hr>
            <ns3:cad>54</ns3:cad>
          </ns3:TrackPointExtension>
        </extensions>
      </trkpt>
      <trkpt lat="45.2550132013857364654541015625" lon="-71.18310305289924144744873046875">
        <ele>602.4000244140625</ele>
        <time>2026-08-22T04:00:01.000Z</time>
        <extensions>
          <ns3:TrackPointExtension>
            <ns3:hr>142</ns3:hr>
            <ns3:cad>54</ns3:cad>
          </ns3:TrackPointExtension>
        </extensions>
      </trkpt>
      <trkpt lat="45.2550014667212963104248046875" lon="-71.18310322053730487823486328125">
        <ele>602.5999755859375</ele>
        <time>2026-08-22T04:00:02.000Z</time>
        <extensions>
          <ns3:TrackPointExtension>
            <ns3:hr>142</ns3:hr>
            <ns3:cad>54</ns3:cad>
          </ns3:TrackPointExtension>
        </extensions>
      </trkpt>
      <trkpt lat="45.254984535276889801025390625" lon="-71.18311260826885700225830078125">
        <ele>602.5999755859375</ele>
        <time>2026-08-22T04:00:03.000Z</time>
        <extensions>
          <ns3:TrackPointExtension>
            <ns3:hr>143</ns3:hr>
            <ns3:cad>55</ns3:cad>
          </ns3:TrackPointExtension>
        </extensions>
      </trkpt>
      <trkpt lat="45.25496936403214931488037109375" lon="-71.1831214092671871185302734375">
        <ele>602.79998779296875</ele>
        <time>2026-08-22T04:00:04.000Z</time>
        <extensions>
          <ns3:TrackPointExtension>
            <ns3:hr>142</ns3:hr>
            <ns3:cad>55</ns3:cad>
          </ns3:TrackPointExtension>
        </extensions>
      </trkpt>
      <trkpt lat="45.25495578534901142120361328125" lon="-71.18312836624681949615478515625">
        <ele>603</ele>
        <time>2026-08-22T04:00:05.000Z</time>
        <extensions>
          <ns3:TrackPointExtension>
            <ns3:hr>141</ns3:hr>
            <ns3:cad>55</ns3:cad>
          </ns3:TrackPointExtension>
        </extensions>
      </trkpt>
      <trkpt lat="45.2549421228468418121337890625" lon="-71.1831368319690227508544921875">
        <ele>603.20001220703125</ele>
        <time>2026-08-22T04:00:06.000Z</time>
        <extensions>
          <ns3:TrackPointExtension>
            <ns3:hr>141</ns3:hr>
            <ns3:cad>55</ns3:cad>
          </ns3:TrackPointExtension>
        </extensions>
      </trkpt>
      <trkpt lat="45.25493164546787738800048828125" lon="-71.1831468902528285980224609375">
        <ele>603.4000244140625</ele>
        <time>2026-08-22T04:00:07.000Z</time>
        <extensions>
          <ns3:TrackPointExtension>
            <ns3:hr>141</ns3:hr>
            <ns3:cad>55</ns3:cad>
          </ns3:TrackPointExtension>
        </extensions>
      </trkpt>
      <trkpt lat="45.25492007844150066375732421875" lon="-71.18315870873630046844482421875">
        <ele>603.5999755859375</ele>
        <time>2026-08-22T04:00:08.000Z</time>
        <extensions>
          <ns3:TrackPointExtension>
            <ns3:hr>141</ns3:hr>
            <ns3:cad>55</ns3:cad>
          </ns3:TrackPointExtension>
        </extensions>
      </trkpt>
      <trkpt lat="45.25490750558674335479736328125" lon="-71.18317161686718463897705078125">
        <ele>603.79998779296875</ele>
        <time>2026-08-22T04:00:09.000Z</time>
        <extensions>
          <ns3:TrackPointExtension>
            <ns3:hr>141</ns3:hr>
            <ns3:cad>55</ns3:cad>
          </ns3:TrackPointExtension>
        </extensions>
      </trkpt>
      <trkpt lat="45.25489677675068378448486328125" lon="-71.183185279369354248046875">
        <ele>604</ele>
        <time>2026-08-22T04:00:10.000Z</time>
        <extensions>
          <ns3:TrackPointExtension>
            <ns3:hr>140</ns3:hr>
            <ns3:cad>0</ns3:cad>
          </ns3:TrackPointExtension>
        </extensions>
      </trkpt>
      <trkpt lat="45.25489191524684429168701171875" lon="-71.18320162408053874969482421875">
        <ele>604.20001220703125</ele>
        <time>2026-08-22T04:00:11.000Z</time>
        <extensions>
          <ns3:TrackPointExtension>
            <ns3:hr>141</ns3:hr>
            <ns3:cad>0</ns3:cad>
          </ns3:TrackPointExtension>
        </extensions>
      </trkpt>
      <trkpt lat="45.25488722138106822967529296875" lon="-71.1832152865827083587646484375">
        <ele>604.4000244140625</ele>
        <time>2026-08-22T04:00:12.000Z</time>
        <extensions>
          <ns3:TrackPointExtension>
            <ns3:hr>141</ns3:hr>
            <ns3:cad>0</ns3:cad>
          </ns3:TrackPointExtension>
        </extensions>
      </trkpt>
      <trkpt lat="45.2548784203827381134033203125" lon="-71.18322945199906826019287109375">
        <ele>604.4000244140625</ele>
        <time>2026-08-22T04:00:13.000Z</time>
        <extensions>
          <ns3:TrackPointExtension>
            <ns3:hr>141</ns3:hr>
            <ns3:cad>52</ns3:cad>
          </ns3:TrackPointExtension>
        </extensions>
      </trkpt>
      <trkpt lat="45.25487280450761318206787109375" lon="-71.18324495851993560791015625">
        <ele>604.5999755859375</ele>
        <time>2026-08-22T04:00:14.000Z</time>
        <extensions>
          <ns3:TrackPointExtension>
            <ns3:hr>142</ns3:hr>
            <ns3:cad>52</ns3:cad>
          </ns3:TrackPointExtension>
        </extensions>
      </trkpt>
      <trkpt lat="45.2548650093376636505126953125" lon="-71.18326214142143726348876953125">
        <ele>604.79998779296875</ele>
        <time>2026-08-22T04:00:15.000Z</time>
        <extensions>
          <ns3:TrackPointExtension>
            <ns3:hr>142</ns3:hr>
            <ns3:cad>52</ns3:cad>
          </ns3:TrackPointExtension>
        </extensions>
      </trkpt>
      <trkpt lat="45.2548603154718875885009765625" lon="-71.183281838893890380859375">
        <ele>605</ele>
        <time>2026-08-22T04:00:16.000Z</time>
        <extensions>
          <ns3:TrackPointExtension>
            <ns3:hr>142</ns3:hr>
            <ns3:cad>52</ns3:cad>
          </ns3:TrackPointExtension>
        </extensions>
      </trkpt>
      <trkpt lat="45.25485704652965068817138671875" lon="-71.1833011172711849212646484375">
        <ele>605.20001220703125</ele>
        <time>2026-08-22T04:00:17.000Z</time>
        <extensions>
          <ns3:TrackPointExtension>
            <ns3:hr>142</ns3:hr>
            <ns3:cad>51</ns3:cad>
          </ns3:TrackPointExtension>
        </extensions>
      </trkpt>
      <trkpt lat="45.2548566274344921112060546875" lon="-71.18331830017268657684326171875">
        <ele>605.4000244140625</ele>
        <time>2026-08-22T04:00:18.000Z</time>
        <extensions>
          <ns3:TrackPointExtension>
            <ns3:hr>142</ns3:hr>
            <ns3:cad>51</ns3:cad>
          </ns3:TrackPointExtension>
        </extensions>
      </trkpt>
      <trkpt lat="45.25485637597739696502685546875" lon="-71.18333355523645877838134765625">
        <ele>605.5999755859375</ele>
        <time>2026-08-22T04:00:19.000Z</time>
        <extensions>
          <ns3:TrackPointExtension>
            <ns3:hr>142</ns3:hr>
            <ns3:cad>51</ns3:cad>
          </ns3:TrackPointExtension>
        </extensions>
      </trkpt>
      <trkpt lat="45.25485754944384098052978515625" lon="-71.183351576328277587890625">
        <ele>605.79998779296875</ele>
        <time>2026-08-22T04:00:20.000Z</time>
        <extensions>
          <ns3:TrackPointExtension>
            <ns3:hr>142</ns3:hr>
            <ns3:cad>51</ns3:cad>
          </ns3:TrackPointExtension>
        </extensions>
      </trkpt>
      <trkpt lat="45.25485637597739696502685546875" lon="-71.18336808867752552032470703125">
        <ele>606</ele>
        <time>2026-08-22T04:00:21.000Z</time>
        <extensions>
          <ns3:TrackPointExtension>
            <ns3:hr>143</ns3:hr>
            <ns3:cad>51</ns3:cad>
          </ns3:TrackPointExtension>
        </extensions>
      </trkpt>
      <trkpt lat="45.254857130348682403564453125" lon="-71.18338854052126407623291015625">
        <ele>606.20001220703125</ele>
        <time>2026-08-22T04:00:22.000Z</time>
        <extensions>
          <ns3:TrackPointExtension>
            <ns3:hr>143</ns3:hr>
            <ns3:cad>51</ns3:cad>
          </ns3:TrackPointExtension>
        </extensions>
      </trkpt>
      <trkpt lat="45.2548606507480144500732421875" lon="-71.183407567441463470458984375">
        <ele>606.4000244140625</ele>
        <time>2026-08-22T04:00:23.000Z</time>
        <extensions>
          <ns3:TrackPointExtension>
            <ns3:hr>143</ns3:hr>
            <ns3:cad>51</ns3:cad>
          </ns3:TrackPointExtension>
        </extensions>
      </trkpt>
      <trkpt lat="45.25485821999609470367431640625" lon="-71.18342609144747257232666015625">
        <ele>606.5999755859375</ele>
        <time>2026-08-22T04:00:24.000Z</time>
        <extensions>
          <ns3:TrackPointExtension>
            <ns3:hr>143</ns3:hr>
            <ns3:cad>50</ns3:cad>
          </ns3:TrackPointExtension>
        </extensions>
      </trkpt>
      <trkpt lat="45.25485738180577754974365234375" lon="-71.18344570510089397430419921875">
        <ele>606.79998779296875</ele>
        <time>2026-08-22T04:00:25.000Z</time>
        <extensions>
          <ns3:TrackPointExtension>
            <ns3:hr>143</ns3:hr>
            <ns3:cad>50</ns3:cad>
          </ns3:TrackPointExtension>
        </extensions>
      </trkpt>
      <trkpt lat="45.25485671125352382659912109375" lon="-71.18346347473561763763427734375">
        <ele>607</ele>
        <time>2026-08-22T04:00:26.000Z</time>
        <extensions>
          <ns3:TrackPointExtension>
            <ns3:hr>142</ns3:hr>
            <ns3:cad>50</ns3:cad>
          </ns3:TrackPointExtension>
        </extensions>
      </trkpt>
      <trkpt lat="45.2548616565763950347900390625" lon="-71.18348057381808757781982421875">
        <ele>607.20001220703125</ele>
        <time>2026-08-22T04:00:27.000Z</time>
        <extensions>
          <ns3:TrackPointExtension>
            <ns3:hr>143</ns3:hr>
            <ns3:cad>50</ns3:cad>
          </ns3:TrackPointExtension>
        </extensions>
      </trkpt>
      <trkpt lat="45.25486224330961704254150390625" lon="-71.183498762547969818115234375">
        <ele>607.4000244140625</ele>
        <time>2026-08-22T04:00:28.000Z</time>
        <extensions>
          <ns3:TrackPointExtension>
            <ns3:hr>143</ns3:hr>
            <ns3:cad>50</ns3:cad>
          </ns3:TrackPointExtension>
        </extensions>
      </trkpt>
      <trkpt lat="45.254862494766712188720703125" lon="-71.1835165321826934814453125">
        <ele>607.5999755859375</ele>
        <time>2026-08-22T04:00:29.000Z</time>
        <extensions>
          <ns3:TrackPointExtension>
            <ns3:hr>143</ns3:hr>
            <ns3:cad>53</ns3:cad>
          </ns3:TrackPointExtension>
        </extensions>
      </trkpt>
      <trkpt lat="45.2548579685389995574951171875" lon="-71.18353488855063915252685546875">
        <ele>607.79998779296875</ele>
        <time>2026-08-22T04:00:30.000Z</time>
        <extensions>
          <ns3:TrackPointExtension>
            <ns3:hr>143</ns3:hr>
            <ns3:cad>53</ns3:cad>
          </ns3:TrackPointExtension>
        </extensions>
      </trkpt>
      <trkpt lat="45.25485746562480926513671875" lon="-71.18355668149888515472412109375">
        <ele>608</ele>
        <time>2026-08-22T04:00:31.000Z</time>
        <extensions>
          <ns3:TrackPointExtension>
            <ns3:hr>143</ns3:hr>
            <ns3:cad>54</ns3:cad>
          </ns3:TrackPointExtension>
        </extensions>
      </trkpt>
      <trkpt lat="45.25485637597739696502685546875" lon="-71.18357696570456027984619140625">
        <ele>608</ele>
        <time>2026-08-22T04:00:32.000Z</time>
        <extensions>
          <ns3:TrackPointExtension>
            <ns3:hr>143</ns3:hr>
            <ns3:cad>54</ns3:cad>
          </ns3:TrackPointExtension>
        </extensions>
      </trkpt>
      <trkpt lat="45.25485553778707981109619140625" lon="-71.18359942920506000518798828125">
        <ele>608.20001220703125</ele>
        <time>2026-08-22T04:00:33.000Z</time>
        <extensions>
          <ns3:TrackPointExtension>
            <ns3:hr>144</ns3:hr>
            <ns3:cad>54</ns3:cad>
          </ns3:TrackPointExtension>
        </extensions>
      </trkpt>
      <trkpt lat="45.2548536099493503570556640625" lon="-71.18361971341073513031005859375">
        <ele>608.4000244140625</ele>
        <time>2026-08-22T04:00:34.000Z</time>
        <extensions>
          <ns3:TrackPointExtension>
            <ns3:hr>144</ns3:hr>
            <ns3:cad>53</ns3:cad>
          </ns3:TrackPointExtension>
        </extensions>
      </trkpt>
      <trkpt lat="45.25485134683549404144287109375" lon="-71.183640249073505401611328125">
        <ele>608.4000244140625</ele>
        <time>2026-08-22T04:00:35.000Z</time>
        <extensions>
          <ns3:TrackPointExtension>
            <ns3:hr>144</ns3:hr>
            <ns3:cad>53</ns3:cad>
          </ns3:TrackPointExtension>
        </extensions>
      </trkpt>
      <trkpt lat="45.25484916754066944122314453125" lon="-71.183662377297878265380859375">
        <ele>608.5999755859375</ele>
        <time>2026-08-22T04:00:36.000Z</time>
        <extensions>
          <ns3:TrackPointExtension>
            <ns3:hr>144</ns3:hr>
            <ns3:cad>53</ns3:cad>
          </ns3:TrackPointExtension>
        </extensions>
      </trkpt>
      <trkpt lat="45.25484749116003513336181640625" lon="-71.18368291296064853668212890625">
        <ele>608.5999755859375</ele>
        <time>2026-08-22T04:00:37.000Z</time>
        <extensions>
          <ns3:TrackPointExtension>
            <ns3:hr>143</ns3:hr>
            <ns3:cad>53</ns3:cad>
          </ns3:TrackPointExtension>
        </extensions>
      </trkpt>
      <trkpt lat="45.25484631769359111785888671875" lon="-71.18370654992759227752685546875">
        <ele>608.79998779296875</ele>
        <time>2026-08-22T04:00:38.000Z</time>
        <extensions>
          <ns3:TrackPointExtension>
            <ns3:hr>143</ns3:hr>
            <ns3:cad>55</ns3:cad>
          </ns3:TrackPointExtension>
        </extensions>
      </trkpt>
      <trkpt lat="45.2548445574939250946044921875" lon="-71.1837311089038848876953125">
        <ele>608.79998779296875</ele>
        <time>2026-08-22T04:00:39.000Z</time>
        <extensions>
          <ns3:TrackPointExtension>
            <ns3:hr>144</ns3:hr>
            <ns3:cad>55</ns3:cad>
          </ns3:TrackPointExtension>
        </extensions>
      </trkpt>
      <trkpt lat="45.25483944453299045562744140625" lon="-71.1837530694901943206787109375">
        <ele>609</ele>
        <time>2026-08-22T04:00:40.000Z</time>
        <extensions>
          <ns3:TrackPointExtension>
            <ns3:hr>144</ns3:hr>
            <ns3:cad>55</ns3:cad>
          </ns3:TrackPointExtension>
        </extensions>
      </trkpt>
      <trkpt lat="45.25484003126621246337890625" lon="-71.18377410806715488433837890625">
        <ele>609.20001220703125</ele>
        <time>2026-08-22T04:00:41.000Z</time>
        <extensions>
          <ns3:TrackPointExtension>
            <ns3:hr>144</ns3:hr>
            <ns3:cad>55</ns3:cad>
          </ns3:TrackPointExtension>
        </extensions>
      </trkpt>
      <trkpt lat="45.254839025437831878662109375" lon="-71.183797828853130340576171875">
        <ele>609.20001220703125</ele>
        <time>2026-08-22T04:00:42.000Z</time>
        <extensions>
          <ns3:TrackPointExtension>
            <ns3:hr>144</ns3:hr>
            <ns3:cad>55</ns3:cad>
          </ns3:TrackPointExtension>
        </extensions>
      </trkpt>
      <trkpt lat="45.2548378519713878631591796875" lon="-71.1838209629058837890625">
        <ele>609.4000244140625</ele>
        <time>2026-08-22T04:00:43.000Z</time>
        <extensions>
          <ns3:TrackPointExtension>
            <ns3:hr>144</ns3:hr>
            <ns3:cad>54</ns3:cad>
          </ns3:TrackPointExtension>
        </extensions>
      </trkpt>
      <trkpt lat="45.254838354885578155517578125" lon="-71.18383915163576602935791015625">
        <ele>609.5999755859375</ele>
        <time>2026-08-22T04:00:44.000Z</time>
        <extensions>
          <ns3:TrackPointExtension>
            <ns3:hr>144</ns3:hr>
            <ns3:cad>54</ns3:cad>
          </ns3:TrackPointExtension>
        </extensions>
      </trkpt>
      <trkpt lat="45.25483667850494384765625" lon="-71.18386161513626575469970703125">
        <ele>609.5999755859375</ele>
        <time>2026-08-22T04:00:45.000Z</time>
        <extensions>
          <ns3:TrackPointExtension>
            <ns3:hr>144</ns3:hr>
            <ns3:cad>54</ns3:cad>
          </ns3:TrackPointExtension>
        </extensions>
      </trkpt>
      <trkpt lat="45.25483575649559497833251953125" lon="-71.18388173170387744903564453125">
        <ele>609.79998779296875</ele>
        <time>2026-08-22T04:00:46.000Z</time>
        <extensions>
          <ns3:TrackPointExtension>
            <ns3:hr>143</ns3:hr>
            <ns3:cad>54</ns3:cad>
          </ns3:TrackPointExtension>
        </extensions>
      </trkpt>
      <trkpt lat="45.254834331572055816650390625" lon="-71.1839005909860134124755859375">
        <ele>610</ele>
        <time>2026-08-22T04:00:47.000Z</time>
        <extensions>
          <ns3:TrackPointExtension>
            <ns3:hr>143</ns3:hr>
            <ns3:cad>54</ns3:cad>
          </ns3:TrackPointExtension>
        </extensions>
      </trkpt>
      <trkpt lat="45.25483424775302410125732421875" lon="-71.1839134991168975830078125">
        <ele>610.20001220703125</ele>
        <time>2026-08-22T04:00:48.000Z</time>
        <extensions>
          <ns3:TrackPointExtension>
            <ns3:hr>143</ns3:hr>
            <ns3:cad>55</ns3:cad>
          </ns3:TrackPointExtension>
        </extensions>
      </trkpt>
      <trkpt lat="45.2548331581056118011474609375" lon="-71.18393504060804843902587890625">
        <ele>610.4000244140625</ele>
        <time>2026-08-22T04:00:49.000Z</time>
        <extensions>
          <ns3:TrackPointExtension>
            <ns3:hr>144</ns3:hr>
            <ns3:cad>55</ns3:cad>
          </ns3:TrackPointExtension>
        </extensions>
      </trkpt>
      <trkpt lat="45.25483022443950176239013671875" lon="-71.183941997587680816650390625">
        <ele>610.79998779296875</ele>
        <time>2026-08-22T04:00:50.000Z</time>
        <extensions>
          <ns3:TrackPointExtension>
            <ns3:hr>144</ns3:hr>
            <ns3:cad>54</ns3:cad>
          </ns3:TrackPointExtension>
        </extensions>
      </trkpt>
      <trkpt lat="45.25482888333499431610107421875" lon="-71.1839572526514530181884765625">
        <ele>611</ele>
        <time>2026-08-22T04:00:51.000Z</time>
        <extensions>
          <ns3:TrackPointExtension>
            <ns3:hr>143</ns3:hr>
            <ns3:cad>55</ns3:cad>
          </ns3:TrackPointExtension>
        </extensions>
      </trkpt>
      <trkpt lat="45.25482770986855030059814453125" lon="-71.18397711776196956634521484375">
        <ele>611.20001220703125</ele>
        <time>2026-08-22T04:00:52.000Z</time>
        <extensions>
          <ns3:TrackPointExtension>
            <ns3:hr>143</ns3:hr>
            <ns3:cad>55</ns3:cad>
          </ns3:TrackPointExtension>
        </extensions>
      </trkpt>
      <trkpt lat="45.2548274584114551544189453125" lon="-71.18399589322507381439208984375">
        <ele>611.20001220703125</ele>
        <time>2026-08-22T04:00:53.000Z</time>
        <extensions>
          <ns3:TrackPointExtension>
            <ns3:hr>142</ns3:hr>
            <ns3:cad>55</ns3:cad>
          </ns3:TrackPointExtension>
        </extensions>
      </trkpt>
      <trkpt lat="45.2548313140869140625" lon="-71.18401148356497287750244140625">
        <ele>611.20001220703125</ele>
        <time>2026-08-22T04:00:54.000Z</time>
        <extensions>
          <ns3:TrackPointExtension>
            <ns3:hr>143</ns3:hr>
            <ns3:cad>55</ns3:cad>
          </ns3:TrackPointExtension>
        </extensions>
      </trkpt>
      <trkpt lat="45.25483273901045322418212890625" lon="-71.1840293370187282562255859375">
        <ele>611.4000244140625</ele>
        <time>2026-08-22T04:00:55.000Z</time>
        <extensions>
          <ns3:TrackPointExtension>
            <ns3:hr>142</ns3:hr>
            <ns3:cad>55</ns3:cad>
          </ns3:TrackPointExtension>
        </extensions>
      </trkpt>
      <trkpt lat="45.25483340956270694732666015625" lon="-71.18404501117765903472900390625">
        <ele>611.4000244140625</ele>
        <time>2026-08-22T04:00:56.000Z</time>
        <extensions>
          <ns3:TrackPointExtension>
            <ns3:hr>143</ns3:hr>
            <ns3:cad>55</ns3:cad>
          </ns3:TrackPointExtension>
        </extensions>
      </trkpt>
      <trkpt lat="45.25483743287622928619384765625" lon="-71.184063367545604705810546875">
        <ele>611.5999755859375</ele>
        <time>2026-08-22T04:00:57.000Z</time>
        <extensions>
          <ns3:TrackPointExtension>
            <ns3:hr>143</ns3:hr>
            <ns3:cad>54</ns3:cad>
          </ns3:TrackPointExtension>
        </extensions>
      </trkpt>
      <trkpt lat="45.2548388577997684478759765625" lon="-71.1840816400945186614990234375">
        <ele>611.79998779296875</ele>
        <time>2026-08-22T04:00:58.000Z</time>
        <extensions>
          <ns3:TrackPointExtension>
            <ns3:hr>144</ns3:hr>
            <ns3:cad>54</ns3:cad>
          </ns3:TrackPointExtension>
        </extensions>
      </trkpt>
      <trkpt lat="45.25483810342848300933837890625" lon="-71.18409848771989345550537109375">
        <ele>612</ele>
        <time>2026-08-22T04:00:59.000Z</time>
        <extensions>
          <ns3:TrackPointExtension>
            <ns3:hr>144</ns3:hr>
            <ns3:cad>54</ns3:cad>
          </ns3:TrackPointExtension>
        </extensions>
      </trkpt>
      <trkpt lat="45.25483961217105388641357421875" lon="-71.18411826901137828826904296875">
        <ele>612.20001220703125</ele>
        <time>2026-08-22T04:01:00.000Z</time>
        <extensions>
          <ns3:TrackPointExtension>
            <ns3:hr>144</ns3:hr>
            <ns3:cad>54</ns3:cad>
          </ns3:TrackPointExtension>
        </extensions>
      </trkpt>
      <trkpt lat="45.25484246201813220977783203125" lon="-71.184141822159290313720703125">
        <ele>612.5999755859375</ele>
        <time>2026-08-22T04:01:01.000Z</time>
        <extensions>
          <ns3:TrackPointExtension>
            <ns3:hr>144</ns3:hr>
            <ns3:cad>54</ns3:cad>
          </ns3:TrackPointExtension>
        </extensions>
      </trkpt>
      <trkpt lat="45.2548462338745594024658203125" lon="-71.184166967868804931640625">
        <ele>612.79998779296875</ele>
        <time>2026-08-22T04:01:02.000Z</time>
        <extensions>
          <ns3:TrackPointExtension>
            <ns3:hr>145</ns3:hr>
            <ns3:cad>52</ns3:cad>
          </ns3:TrackPointExtension>
        </extensions>
      </trkpt>
      <trkpt lat="45.25485034100711345672607421875" lon="-71.18418901227414608001708984375">
        <ele>612.79998779296875</ele>
        <time>2026-08-22T04:01:03.000Z</time>
        <extensions>
          <ns3:TrackPointExtension>
            <ns3:hr>144</ns3:hr>
            <ns3:cad>52</ns3:cad>
          </ns3:TrackPointExtension>
        </extensions>
      </trkpt>
      <trkpt lat="45.2548542805016040802001953125" lon="-71.18420996703207492828369140625">
        <ele>613</ele>
        <time>2026-08-22T04:01:04.000Z</time>
        <extensions>
          <ns3:TrackPointExtension>
            <ns3:hr>144</ns3:hr>
            <ns3:cad>52</ns3:cad>
          </ns3:TrackPointExtension>
        </extensions>
      </trkpt>
      <trkpt lat="45.25485687889158725738525390625" lon="-71.18422639556229114532470703125">
        <ele>613.20001220703125</ele>
        <time>2026-08-22T04:01:05.000Z</time>
        <extensions>
          <ns3:TrackPointExtension>
            <ns3:hr>144</ns3:hr>
            <ns3:cad>52</ns3:cad>
          </ns3:TrackPointExtension>
        </extensions>
      </trkpt>
      <trkpt lat="45.2548589743673801422119140625" lon="-71.18424165062606334686279296875">
        <ele>613.4000244140625</ele>
        <time>2026-08-22T04:01:06.000Z</time>
        <extensions>
          <ns3:TrackPointExtension>
            <ns3:hr>144</ns3:hr>
            <ns3:cad>52</ns3:cad>
          </ns3:TrackPointExtension>
        </extensions>
      </trkpt>
      <trkpt lat="45.2548593096435070037841796875" lon="-71.18426076136529445648193359375">
        <ele>613.5999755859375</ele>
        <time>2026-08-22T04:01:07.000Z</time>
        <extensions>
          <ns3:TrackPointExtension>
            <ns3:hr>144</ns3:hr>
            <ns3:cad>52</ns3:cad>
          </ns3:TrackPointExtension>
        </extensions>
      </trkpt>
      <trkpt lat="45.25486341677606105804443359375" lon="-71.1842814646661281585693359375">
        <ele>613.79998779296875</ele>
        <time>2026-08-22T04:01:08.000Z</time>
        <extensions>
          <ns3:TrackPointExtension>
            <ns3:hr>144</ns3:hr>
            <ns3:cad>52</ns3:cad>
          </ns3:TrackPointExtension>
        </extensions>
      </trkpt>
      <trkpt lat="45.25486148893833160400390625" lon="-71.1843022517859935760498046875">
        <ele>614</ele>
        <time>2026-08-22T04:01:09.000Z</time>
        <extensions>
          <ns3:TrackPointExtension>
            <ns3:hr>144</ns3:hr>
            <ns3:cad>52</ns3:cad>
          </ns3:TrackPointExtension>
        </extensions>
      </trkpt>
      <trkpt lat="45.25486148893833160400390625" lon="-71.18432186543941497802734375">
        <ele>614.20001220703125</ele>
        <time>2026-08-22T04:01:10.000Z</time>
        <extensions>
          <ns3:TrackPointExtension>
            <ns3:hr>144</ns3:hr>
            <ns3:cad>52</ns3:cad>
          </ns3:TrackPointExtension>
        </extensions>
      </trkpt>
      <trkpt lat="45.2548629976809024810791015625" lon="-71.1843451671302318572998046875">
        <ele>614.20001220703125</ele>
        <time>2026-08-22T04:01:11.000Z</time>
        <extensions>
          <ns3:TrackPointExtension>
            <ns3:hr>144</ns3:hr>
            <ns3:cad>51</ns3:cad>
          </ns3:TrackPointExtension>
        </extensions>
      </trkpt>
      <trkpt lat="45.25486744008958339691162109375" lon="-71.1843636073172092437744140625">
        <ele>614.4000244140625</ele>
        <time>2026-08-22T04:01:12.000Z</time>
        <extensions>
          <ns3:TrackPointExtension>
            <ns3:hr>144</ns3:hr>
            <ns3:cad>52</ns3:cad>
          </ns3:TrackPointExtension>
        </extensions>
      </trkpt>
      <trkpt lat="45.2548723854124546051025390625" lon="-71.1843817122280597686767578125">
        <ele>614.5999755859375</ele>
        <time>2026-08-22T04:01:13.000Z</time>
        <extensions>
          <ns3:TrackPointExtension>
            <ns3:hr>144</ns3:hr>
            <ns3:cad>52</ns3:cad>
          </ns3:TrackPointExtension>
        </extensions>
      </trkpt>
      <trkpt lat="45.25487749837338924407958984375" lon="-71.1843967996537685394287109375">
        <ele>614.5999755859375</ele>
        <time>2026-08-22T04:01:14.000Z</time>
        <extensions>
          <ns3:TrackPointExtension>
            <ns3:hr>144</ns3:hr>
            <ns3:cad>53</ns3:cad>
          </ns3:TrackPointExtension>
        </extensions>
      </trkpt>
      <trkpt lat="45.254881270229816436767578125" lon="-71.18441984988749027252197265625">
        <ele>614.79998779296875</ele>
        <time>2026-08-22T04:01:15.000Z</time>
        <extensions>
          <ns3:TrackPointExtension>
            <ns3:hr>144</ns3:hr>
            <ns3:cad>53</ns3:cad>
          </ns3:TrackPointExtension>
        </extensions>
      </trkpt>
      <trkpt lat="45.2548827789723873138427734375" lon="-71.18444331921637058258056640625">
        <ele>615</ele>
        <time>2026-08-22T04:01:16.000Z</time>
        <extensions>
          <ns3:TrackPointExtension>
            <ns3:hr>144</ns3:hr>
            <ns3:cad>53</ns3:cad>
          </ns3:TrackPointExtension>
        </extensions>
      </trkpt>
      <trkpt lat="45.25488621555268764495849609375" lon="-71.1844765953719615936279296875">
        <ele>615</ele>
        <time>2026-08-22T04:01:17.000Z</time>
        <extensions>
          <ns3:TrackPointExtension>
            <ns3:hr>143</ns3:hr>
            <ns3:cad>53</ns3:cad>
          </ns3:TrackPointExtension>
        </extensions>
      </trkpt>
      <trkpt lat="45.25488822720944881439208984375" lon="-71.18450182490050792694091796875">
        <ele>615.20001220703125</ele>
        <time>2026-08-22T04:01:18.000Z</time>
        <extensions>
          <ns3:TrackPointExtension>
            <ns3:hr>143</ns3:hr>
            <ns3:cad>53</ns3:cad>
          </ns3:TrackPointExtension>
        </extensions>
      </trkpt>
      <trkpt lat="45.25488696992397308349609375" lon="-71.1845312453806400299072265625">
        <ele>615.4000244140625</ele>
        <time>2026-08-22T04:01:19.000Z</time>
        <extensions>
          <ns3:TrackPointExtension>
            <ns3:hr>142</ns3:hr>
            <ns3:cad>53</ns3:cad>
          </ns3:TrackPointExtension>
        </extensions>
      </trkpt>
      <trkpt lat="45.25488940067589282989501953125" lon="-71.18455647490918636322021484375">
        <ele>615.79998779296875</ele>
        <time>2026-08-22T04:01:20.000Z</time>
        <extensions>
          <ns3:TrackPointExtension>
            <ns3:hr>142</ns3:hr>
            <ns3:cad>53</ns3:cad>
          </ns3:TrackPointExtension>
        </extensions>
      </trkpt>
      <trkpt lat="45.2548925019800662994384765625" lon="-71.18458866141736507415771484375">
        <ele>616</ele>
        <time>2026-08-22T04:01:21.000Z</time>
        <extensions>
          <ns3:TrackPointExtension>
            <ns3:hr>142</ns3:hr>
            <ns3:cad>80</ns3:cad>
          </ns3:TrackPointExtension>
        </extensions>
      </trkpt>
      <trkpt lat="45.2548948489129543304443359375" lon="-71.18461196310818195343017578125">
        <ele>616</ele>
        <time>2026-08-22T04:01:22.000Z</time>
        <extensions>
          <ns3:TrackPointExtension>
            <ns3:hr>143</ns3:hr>
            <ns3:cad>80</ns3:cad>
          </ns3:TrackPointExtension>
        </extensions>
      </trkpt>
      <trkpt lat="45.25489769876003265380859375" lon="-71.18463174439966678619384765625">
        <ele>616.20001220703125</ele>
        <time>2026-08-22T04:01:23.000Z</time>
        <extensions>
          <ns3:TrackPointExtension>
            <ns3:hr>144</ns3:hr>
            <ns3:cad>77</ns3:cad>
          </ns3:TrackPointExtension>
        </extensions>
      </trkpt>
      <trkpt lat="45.2548997104167938232421875" lon="-71.18465186096727848052978515625">
        <ele>616.20001220703125</ele>
        <time>2026-08-22T04:01:24.000Z</time>
        <extensions>
          <ns3:TrackPointExtension>
            <ns3:hr>145</ns3:hr>
            <ns3:cad>77</ns3:cad>
          </ns3:TrackPointExtension>
        </extensions>
      </trkpt>
      <trkpt lat="45.25490080006420612335205078125" lon="-71.1846734024584293365478515625">
        <ele>616.4000244140625</ele>
        <time>2026-08-22T04:01:25.000Z</time>
        <extensions>
          <ns3:TrackPointExtension>
            <ns3:hr>146</ns3:hr>
            <ns3:cad>77</ns3:cad>
          </ns3:TrackPointExtension>
        </extensions>
      </trkpt>
      <trkpt lat="45.254902727901935577392578125" lon="-71.18469377048313617706298828125">
        <ele>616.4000244140625</ele>
        <time>2026-08-22T04:01:26.000Z</time>
        <extensions>
          <ns3:TrackPointExtension>
            <ns3:hr>147</ns3:hr>
            <ns3:cad>77</ns3:cad>
          </ns3:TrackPointExtension>
        </extensions>
      </trkpt>
      <trkpt lat="45.25490532629191875457763671875" lon="-71.1847163178026676177978515625">
        <ele>616.5999755859375</ele>
        <time>2026-08-22T04:01:27.000Z</time>
        <extensions>
          <ns3:TrackPointExtension>
            <ns3:hr>147</ns3:hr>
            <ns3:cad>77</ns3:cad>
          </ns3:TrackPointExtension>
        </extensions>
      </trkpt>
      <trkpt lat="45.25490968488156795501708984375" lon="-71.18473852984607219696044921875">
        <ele>616.79998779296875</ele>
        <time>2026-08-22T04:01:28.000Z</time>
        <extensions>
          <ns3:TrackPointExtension>
            <ns3:hr>147</ns3:hr>
            <ns3:cad>77</ns3:cad>
          </ns3:TrackPointExtension>
        </extensions>
      </trkpt>
      <trkpt lat="45.2549104392528533935546875" lon="-71.184762753546237945556640625">
        <ele>617</ele>
        <time>2026-08-22T04:01:29.000Z</time>
        <extensions>
          <ns3:TrackPointExtension>
            <ns3:hr>146</ns3:hr>
            <ns3:cad>77</ns3:cad>
          </ns3:TrackPointExtension>
        </extensions>
      </trkpt>
      <trkpt lat="45.25491102598607540130615234375" lon="-71.18478513322770595550537109375">
        <ele>617</ele>
        <time>2026-08-22T04:01:30.000Z</time>
        <extensions>
          <ns3:TrackPointExtension>
            <ns3:hr>145</ns3:hr>
            <ns3:cad>56</ns3:cad>
          </ns3:TrackPointExtension>
        </extensions>
      </trkpt>
      <trkpt lat="45.25491270236670970916748046875" lon="-71.18480944074690341949462890625">
        <ele>617.20001220703125</ele>
        <time>2026-08-22T04:01:31.000Z</time>
        <extensions>
          <ns3:TrackPointExtension>
            <ns3:hr>145</ns3:hr>
            <ns3:cad>56</ns3:cad>
          </ns3:TrackPointExtension>
        </extensions>
      </trkpt>
      <trkpt lat="45.254916809499263763427734375" lon="-71.1848303116858005523681640625">
        <ele>617.20001220703125</ele>
        <time>2026-08-22T04:01:32.000Z</time>
        <extensions>
          <ns3:TrackPointExtension>
            <ns3:hr>145</ns3:hr>
            <ns3:cad>56</ns3:cad>
          </ns3:TrackPointExtension>
        </extensions>
      </trkpt>
      <trkpt lat="45.25491722859442234039306640625" lon="-71.1848500929772853851318359375">
        <ele>617.4000244140625</ele>
        <time>2026-08-22T04:01:33.000Z</time>
        <extensions>
          <ns3:TrackPointExtension>
            <ns3:hr>145</ns3:hr>
            <ns3:cad>56</ns3:cad>
          </ns3:TrackPointExtension>
        </extensions>
      </trkpt>
      <trkpt lat="45.2549176476895809173583984375" lon="-71.18486911989748477935791015625">
        <ele>617.4000244140625</ele>
        <time>2026-08-22T04:01:34.000Z</time>
        <extensions>
          <ns3:TrackPointExtension>
            <ns3:hr>144</ns3:hr>
            <ns3:cad>56</ns3:cad>
          </ns3:TrackPointExtension>
        </extensions>
      </trkpt>
      <trkpt lat="45.2549176476895809173583984375" lon="-71.1848859675228595733642578125">
        <ele>617.4000244140625</ele>
        <time>2026-08-22T04:01:35.000Z</time>
        <extensions>
          <ns3:TrackPointExtension>
            <ns3:hr>144</ns3:hr>
            <ns3:cad>57</ns3:cad>
          </ns3:TrackPointExtension>
        </extensions>
      </trkpt>
      <trkpt lat="45.2549193240702152252197265625" lon="-71.1849054135382175445556640625">
        <ele>617.5999755859375</ele>
        <time>2026-08-22T04:01:36.000Z</time>
        <extensions>
          <ns3:TrackPointExtension>
            <ns3:hr>144</ns3:hr>
            <ns3:cad>56</ns3:cad>
          </ns3:TrackPointExtension>
        </extensions>
      </trkpt>
      <trkpt lat="45.25492049753665924072265625" lon="-71.18492628447711467742919921875">
        <ele>617.5999755859375</ele>
        <time>2026-08-22T04:01:37.000Z</time>
        <extensions>
          <ns3:TrackPointExtension>
            <ns3:hr>145</ns3:hr>
            <ns3:cad>56</ns3:cad>
          </ns3:TrackPointExtension>
        </extensions>
      </trkpt>
      <trkpt lat="45.25491756387054920196533203125" lon="-71.184942461550235748291015625">
        <ele>617.5999755859375</ele>
        <time>2026-08-22T04:01:38.000Z</time>
        <extensions>
          <ns3:TrackPointExtension>
            <ns3:hr>145</ns3:hr>
            <ns3:cad>56</ns3:cad>
          </ns3:TrackPointExtension>
        </extensions>
      </trkpt>
      <trkpt lat="45.2549189887940883636474609375" lon="-71.18496350012719631195068359375">
        <ele>617.79998779296875</ele>
        <time>2026-08-22T04:01:39.000Z</time>
        <extensions>
          <ns3:TrackPointExtension>
            <ns3:hr>145</ns3:hr>
            <ns3:cad>56</ns3:cad>
          </ns3:TrackPointExtension>
        </extensions>
      </trkpt>
      <trkpt lat="45.25492024607956409454345703125" lon="-71.18498571217060089111328125">
        <ele>617.79998779296875</ele>
        <time>2026-08-22T04:01:40.000Z</time>
        <extensions>
          <ns3:TrackPointExtension>
            <ns3:hr>144</ns3:hr>
            <ns3:cad>55</ns3:cad>
          </ns3:TrackPointExtension>
        </extensions>
      </trkpt>
      <trkpt lat="45.25492125190794467926025390625" lon="-71.1850083433091640472412109375">
        <ele>617.79998779296875</ele>
        <time>2026-08-22T04:01:41.000Z</time>
        <extensions>
          <ns3:TrackPointExtension>
            <ns3:hr>144</ns3:hr>
            <ns3:cad>55</ns3:cad>
          </ns3:TrackPointExtension>
        </extensions>
      </trkpt>
      <trkpt lat="45.2549196593463420867919921875" lon="-71.18503055535256862640380859375">
        <ele>617.79998779296875</ele>
        <time>2026-08-22T04:01:42.000Z</time>
        <extensions>
          <ns3:TrackPointExtension>
            <ns3:hr>144</ns3:hr>
            <ns3:cad>55</ns3:cad>
          </ns3:TrackPointExtension>
        </extensions>
      </trkpt>
      <trkpt lat="45.25491806678473949432373046875" lon="-71.18505720980465412139892578125">
        <ele>617.79998779296875</ele>
        <time>2026-08-22T04:01:43.000Z</time>
        <extensions>
          <ns3:TrackPointExtension>
            <ns3:hr>144</ns3:hr>
            <ns3:cad>55</ns3:cad>
          </ns3:TrackPointExtension>
        </extensions>
      </trkpt>
      <trkpt lat="45.25491873733699321746826171875" lon="-71.18507866747677326202392578125">
        <ele>618</ele>
        <time>2026-08-22T04:01:44.000Z</time>
        <extensions>
          <ns3:TrackPointExtension>
            <ns3:hr>144</ns3:hr>
            <ns3:cad>55</ns3:cad>
          </ns3:TrackPointExtension>
        </extensions>
      </trkpt>
      <trkpt lat="45.25492058135569095611572265625" lon="-71.1851106025278568267822265625">
        <ele>618</ele>
        <time>2026-08-22T04:01:45.000Z</time>
        <extensions>
          <ns3:TrackPointExtension>
            <ns3:hr>144</ns3:hr>
            <ns3:cad>62</ns3:cad>
          </ns3:TrackPointExtension>
        </extensions>
      </trkpt>
      <trkpt lat="45.2549216710031032562255859375" lon="-71.1851434595882892608642578125">
        <ele>618</ele>
        <time>2026-08-22T04:01:46.000Z</time>
        <extensions>
          <ns3:TrackPointExtension>
            <ns3:hr>144</ns3:hr>
            <ns3:cad>62</ns3:cad>
          </ns3:TrackPointExtension>
        </extensions>
      </trkpt>
      <trkpt lat="45.25492393411695957183837890625" lon="-71.18517137132585048675537109375">
        <ele>618</ele>
        <time>2026-08-22T04:01:47.000Z</time>
        <extensions>
          <ns3:TrackPointExtension>
            <ns3:hr>144</ns3:hr>
            <ns3:cad>62</ns3:cad>
          </ns3:TrackPointExtension>
        </extensions>
      </trkpt>
      <trkpt lat="45.25492460466921329498291015625" lon="-71.18520774878561496734619140625">
        <ele>618.20001220703125</ele>
        <time>2026-08-22T04:01:48.000Z</time>
        <extensions>
          <ns3:TrackPointExtension>
            <ns3:hr>144</ns3:hr>
            <ns3:cad>62</ns3:cad>
          </ns3:TrackPointExtension>
        </extensions>
      </trkpt>
      <trkpt lat="45.2549265325069427490234375" lon="-71.1852465569972991943359375">
        <ele>618.20001220703125</ele>
        <time>2026-08-22T04:01:49.000Z</time>
        <extensions>
          <ns3:TrackPointExtension>
            <ns3:hr>143</ns3:hr>
            <ns3:cad>75</ns3:cad>
          </ns3:TrackPointExtension>
        </extensions>
      </trkpt>
      <trkpt lat="45.254926197230815887451171875" lon="-71.18527631275355815887451171875">
        <ele>618.20001220703125</ele>
        <time>2026-08-22T04:01:50.000Z</time>
        <extensions>
          <ns3:TrackPointExtension>
            <ns3:hr>143</ns3:hr>
            <ns3:cad>79</ns3:cad>
          </ns3:TrackPointExtension>
        </extensions>
      </trkpt>
      <trkpt lat="45.254926867783069610595703125" lon="-71.18531252257525920867919921875">
        <ele>618.20001220703125</ele>
        <time>2026-08-22T04:01:51.000Z</time>
        <extensions>
          <ns3:TrackPointExtension>
            <ns3:hr>142</ns3:hr>
            <ns3:cad>79</ns3:cad>
          </ns3:TrackPointExtension>
        </extensions>
      </trkpt>
      <trkpt lat="45.25492778979241847991943359375" lon="-71.1853446252644062042236328125">
        <ele>618.20001220703125</ele>
        <time>2026-08-22T04:01:52.000Z</time>
        <extensions>
          <ns3:TrackPointExtension>
            <ns3:hr>142</ns3:hr>
            <ns3:cad>79</ns3:cad>
          </ns3:TrackPointExtension>
        </extensions>
      </trkpt>
      <trkpt lat="45.2549267001450061798095703125" lon="-71.1853704415261745452880859375">
        <ele>618.4000244140625</ele>
        <time>2026-08-22T04:01:53.000Z</time>
        <extensions>
          <ns3:TrackPointExtension>
            <ns3:hr>142</ns3:hr>
            <ns3:cad>79</ns3:cad>
          </ns3:TrackPointExtension>
        </extensions>
      </trkpt>
      <trkpt lat="45.25492452085018157958984375" lon="-71.1854063160717487335205078125">
        <ele>618.4000244140625</ele>
        <time>2026-08-22T04:01:54.000Z</time>
        <extensions>
          <ns3:TrackPointExtension>
            <ns3:hr>141</ns3:hr>
            <ns3:cad>80</ns3:cad>
          </ns3:TrackPointExtension>
        </extensions>
      </trkpt>
      <trkpt lat="45.2549238502979278564453125" lon="-71.185439340770244598388671875">
        <ele>618.5999755859375</ele>
        <time>2026-08-22T04:01:55.000Z</time>
        <extensions>
          <ns3:TrackPointExtension>
            <ns3:hr>141</ns3:hr>
            <ns3:cad>80</ns3:cad>
          </ns3:TrackPointExtension>
        </extensions>
      </trkpt>
      <trkpt lat="45.25492376647889614105224609375" lon="-71.1854643188416957855224609375">
        <ele>618.79998779296875</ele>
        <time>2026-08-22T04:01:56.000Z</time>
        <extensions>
          <ns3:TrackPointExtension>
            <ns3:hr>141</ns3:hr>
            <ns3:cad>80</ns3:cad>
          </ns3:TrackPointExtension>
        </extensions>
      </trkpt>
      <trkpt lat="45.25492359884083271026611328125" lon="-71.18549809791147708892822265625">
        <ele>618.79998779296875</ele>
        <time>2026-08-22T04:01:57.000Z</time>
        <extensions>
          <ns3:TrackPointExtension>
            <ns3:hr>142</ns3:hr>
            <ns3:cad>80</ns3:cad>
          </ns3:TrackPointExtension>
        </extensions>
      </trkpt>
      <trkpt lat="45.254925526678562164306640625" lon="-71.18553212843835353851318359375">
        <ele>619</ele>
        <time>2026-08-22T04:01:58.000Z</time>
        <extensions>
          <ns3:TrackPointExtension>
            <ns3:hr>142</ns3:hr>
            <ns3:cad>80</ns3:cad>
          </ns3:TrackPointExtension>
        </extensions>
      </trkpt>
      <trkpt lat="45.254925191402435302734375" lon="-71.18555492721498012542724609375">
        <ele>619</ele>
        <time>2026-08-22T04:01:59.000Z</time>
        <extensions>
          <ns3:TrackPointExtension>
            <ns3:hr>142</ns3:hr>
            <ns3:cad>80</ns3:cad>
          </ns3:TrackPointExtension>
        </extensions>
      </trkpt>
      <trkpt lat="45.25492762215435504913330078125" lon="-71.18558225221931934356689453125">
        <ele>619</ele>
        <time>2026-08-22T04:02:00.000Z</time>
        <extensions>
          <ns3:TrackPointExtension>
            <ns3:hr>142</ns3:hr>
            <ns3:cad>80</ns3:cad>
          </ns3:TrackPointExtension>
        </extensions>
      </trkpt>
      <trkpt lat="45.2549303881824016571044921875" lon="-71.185608990490436553955078125">
        <ele>619</ele>
        <time>2026-08-22T04:02:01.000Z</time>
        <extensions>
          <ns3:TrackPointExtension>
            <ns3:hr>142</ns3:hr>
            <ns3:cad>80</ns3:cad>
          </ns3:TrackPointExtension>
        </extensions>
      </trkpt>
      <trkpt lat="45.25493382476270198822021484375" lon="-71.18562902323901653289794921875">
        <ele>619</ele>
        <time>2026-08-22T04:02:02.000Z</time>
        <extensions>
          <ns3:TrackPointExtension>
            <ns3:hr>142</ns3:hr>
            <ns3:cad>80</ns3:cad>
          </ns3:TrackPointExtension>
        </extensions>
      </trkpt>
      <trkpt lat="45.25493700988590717315673828125" lon="-71.18565433658659458160400390625">
        <ele>619</ele>
        <time>2026-08-22T04:02:03.000Z</time>
        <extensions>
          <ns3:TrackPointExtension>
            <ns3:hr>142</ns3:hr>
            <ns3:cad>80</ns3:cad>
          </ns3:TrackPointExtension>
        </extensions>
      </trkpt>
      <trkpt lat="45.25494304485619068145751953125" lon="-71.185676045715808868408203125">
        <ele>619</ele>
        <time>2026-08-22T04:02:04.000Z</time>
        <extensions>
          <ns3:TrackPointExtension>
            <ns3:hr>142</ns3:hr>
            <ns3:cad>59</ns3:cad>
          </ns3:TrackPointExtension>
        </extensions>
      </trkpt>
      <trkpt lat="45.2549479901790618896484375" lon="-71.18569741956889629364013671875">
        <ele>618.79998779296875</ele>
        <time>2026-08-22T04:02:05.000Z</time>
        <extensions>
          <ns3:TrackPointExtension>
            <ns3:hr>141</ns3:hr>
            <ns3:cad>59</ns3:cad>
          </ns3:TrackPointExtension>
        </extensions>
      </trkpt>
      <trkpt lat="45.2549582161009311676025390625" lon="-71.18571569211781024932861328125">
        <ele>618.79998779296875</ele>
        <time>2026-08-22T04:02:06.000Z</time>
        <extensions>
          <ns3:TrackPointExtension>
            <ns3:hr>141</ns3:hr>
            <ns3:cad>59</ns3:cad>
          </ns3:TrackPointExtension>
        </extensions>
      </trkpt>
      <trkpt lat="45.25496969930827617645263671875" lon="-71.18573111481964588165283203125">
        <ele>618.5999755859375</ele>
        <time>2026-08-22T04:02:07.000Z</time>
        <extensions>
          <ns3:TrackPointExtension>
            <ns3:hr>141</ns3:hr>
            <ns3:cad>59</ns3:cad>
          </ns3:TrackPointExtension>
        </extensions>
      </trkpt>
      <trkpt lat="45.254983194172382354736328125" lon="-71.1857446096837520599365234375">
        <ele>618.5999755859375</ele>
        <time>2026-08-22T04:02:08.000Z</time>
        <extensions>
          <ns3:TrackPointExtension>
            <ns3:hr>141</ns3:hr>
            <ns3:cad>59</ns3:cad>
          </ns3:TrackPointExtension>
        </extensions>
      </trkpt>
      <trkpt lat="45.25499568320810794830322265625" lon="-71.1857539974153041839599609375">
        <ele>618.4000244140625</ele>
        <time>2026-08-22T04:02:09.000Z</time>
        <extensions>
          <ns3:TrackPointExtension>
            <ns3:hr>140</ns3:hr>
            <ns3:cad>58</ns3:cad>
          </ns3:TrackPointExtension>
        </extensions>
      </trkpt>
      <trkpt lat="45.255007334053516387939453125" lon="-71.18576221168041229248046875">
        <ele>618.4000244140625</ele>
        <time>2026-08-22T04:02:10.000Z</time>
        <extensions>
          <ns3:TrackPointExtension>
            <ns3:hr>140</ns3:hr>
            <ns3:cad>58</ns3:cad>
          </ns3:TrackPointExtension>
        </extensions>
      </trkpt>
      <trkpt lat="45.2550199069082736968994140625" lon="-71.18576833046972751617431640625">
        <ele>618.20001220703125</ele>
        <time>2026-08-22T04:02:11.000Z</time>
        <extensions>
          <ns3:TrackPointExtension>
            <ns3:hr>140</ns3:hr>
            <ns3:cad>56</ns3:cad>
          </ns3:TrackPointExtension>
        </extensions>
      </trkpt>
      <trkpt lat="45.25503122247755527496337890625" lon="-71.1857724376022815704345703125">
        <ele>618.20001220703125</ele>
        <time>2026-08-22T04:02:12.000Z</time>
        <extensions>
          <ns3:TrackPointExtension>
            <ns3:hr>140</ns3:hr>
            <ns3:cad>56</ns3:cad>
          </ns3:TrackPointExtension>
        </extensions>
      </trkpt>
      <trkpt lat="45.25504329241812229156494140625" lon="-71.1857794784009456634521484375">
        <ele>618</ele>
        <time>2026-08-22T04:02:13.000Z</time>
        <extensions>
          <ns3:TrackPointExtension>
            <ns3:hr>139</ns3:hr>
            <ns3:cad>55</ns3:cad>
          </ns3:TrackPointExtension>
        </extensions>
      </trkpt>
      <trkpt lat="45.2550581283867359161376953125" lon="-71.1857905425131320953369140625">
        <ele>617.79998779296875</ele>
        <time>2026-08-22T04:02:14.000Z</time>
        <extensions>
          <ns3:TrackPointExtension>
            <ns3:hr>139</ns3:hr>
            <ns3:cad>56</ns3:cad>
          </ns3:TrackPointExtension>
        </extensions>
      </trkpt>
      <trkpt lat="45.2550715394318103790283203125" lon="-71.185799427330493927001953125">
        <ele>617.79998779296875</ele>
        <time>2026-08-22T04:02:15.000Z</time>
        <extensions>
          <ns3:TrackPointExtension>
            <ns3:hr>138</ns3:hr>
            <ns3:cad>56</ns3:cad>
          </ns3:TrackPointExtension>
        </extensions>
      </trkpt>
      <trkpt lat="45.2550901472568511962890625" lon="-71.185811497271060943603515625">
        <ele>617.5999755859375</ele>
        <time>2026-08-22T04:02:16.000Z</time>
        <extensions>
          <ns3:TrackPointExtension>
            <ns3:hr>138</ns3:hr>
            <ns3:cad>56</ns3:cad>
          </ns3:TrackPointExtension>
        </extensions>
      </trkpt>
      <trkpt lat="45.25510196574032306671142578125" lon="-71.18582884781062602996826171875">
        <ele>617.20001220703125</ele>
        <time>2026-08-22T04:02:17.000Z</time>
        <extensions>
          <ns3:TrackPointExtension>
            <ns3:hr>138</ns3:hr>
            <ns3:cad>56</ns3:cad>
          </ns3:TrackPointExtension>
        </extensions>
      </trkpt>
      <trkpt lat="45.25511202402412891387939453125" lon="-71.1858425103127956390380859375">
        <ele>617</ele>
        <time>2026-08-22T04:02:18.000Z</time>
        <extensions>
          <ns3:TrackPointExtension>
            <ns3:hr>138</ns3:hr>
            <ns3:cad>56</ns3:cad>
          </ns3:TrackPointExtension>
        </extensions>
      </trkpt>
      <trkpt lat="45.25512392632663249969482421875" lon="-71.18585516698658466339111328125">
        <ele>616.79998779296875</ele>
        <time>2026-08-22T04:02:19.000Z</time>
        <extensions>
          <ns3:TrackPointExtension>
            <ns3:hr>138</ns3:hr>
            <ns3:cad>56</ns3:cad>
          </ns3:TrackPointExtension>
        </extensions>
      </trkpt>
      <trkpt lat="45.2551419474184513092041015625" lon="-71.1858720146119594573974609375">
        <ele>616.5999755859375</ele>
        <time>2026-08-22T04:02:20.000Z</time>
        <extensions>
          <ns3:TrackPointExtension>
            <ns3:hr>137</ns3:hr>
            <ns3:cad>74</ns3:cad>
          </ns3:TrackPointExtension>
        </extensions>
      </trkpt>
      <trkpt lat="45.25515460409224033355712890625" lon="-71.18588232435286045074462890625">
        <ele>616.4000244140625</ele>
        <time>2026-08-22T04:02:21.000Z</time>
        <extensions>
          <ns3:TrackPointExtension>
            <ns3:hr>137</ns3:hr>
            <ns3:cad>75</ns3:cad>
          </ns3:TrackPointExtension>
        </extensions>
      </trkpt>
      <trkpt lat="45.25517220608890056610107421875" lon="-71.18590034544467926025390625">
        <ele>616.4000244140625</ele>
        <time>2026-08-22T04:02:22.000Z</time>
        <extensions>
          <ns3:TrackPointExtension>
            <ns3:hr>137</ns3:hr>
            <ns3:cad>75</ns3:cad>
          </ns3:TrackPointExtension>
        </extensions>
      </trkpt>
      <trkpt lat="45.2551872096955776214599609375" lon="-71.185920126736164093017578125">
        <ele>616.4000244140625</ele>
        <time>2026-08-22T04:02:23.000Z</time>
        <extensions>
          <ns3:TrackPointExtension>
            <ns3:hr>136</ns3:hr>
            <ns3:cad>75</ns3:cad>
          </ns3:TrackPointExtension>
        </extensions>
      </trkpt>
      <trkpt lat="45.25519651360809803009033203125" lon="-71.18593479506671428680419921875">
        <ele>616.20001220703125</ele>
        <time>2026-08-22T04:02:24.000Z</time>
        <extensions>
          <ns3:TrackPointExtension>
            <ns3:hr>136</ns3:hr>
            <ns3:cad>75</ns3:cad>
          </ns3:TrackPointExtension>
        </extensions>
      </trkpt>
      <trkpt lat="45.2552130259573459625244140625" lon="-71.18595742620527744293212890625">
        <ele>616.20001220703125</ele>
        <time>2026-08-22T04:02:25.000Z</time>
        <extensions>
          <ns3:TrackPointExtension>
            <ns3:hr>136</ns3:hr>
            <ns3:cad>75</ns3:cad>
          </ns3:TrackPointExtension>
        </extensions>
      </trkpt>
      <trkpt lat="45.2552287839353084564208984375" lon="-71.185973770916461944580078125">
        <ele>616.20001220703125</ele>
        <time>2026-08-22T04:02:26.000Z</time>
        <extensions>
          <ns3:TrackPointExtension>
            <ns3:hr>135</ns3:hr>
            <ns3:cad>75</ns3:cad>
          </ns3:TrackPointExtension>
        </extensions>
      </trkpt>
      <trkpt lat="45.25524294935166835784912109375" lon="-71.18598927743732929229736328125">
        <ele>616</ele>
        <time>2026-08-22T04:02:27.000Z</time>
        <extensions>
          <ns3:TrackPointExtension>
            <ns3:hr>135</ns3:hr>
            <ns3:cad>75</ns3:cad>
          </ns3:TrackPointExtension>
        </extensions>
      </trkpt>
      <trkpt lat="45.2552602998912334442138671875" lon="-71.18600763380527496337890625">
        <ele>616</ele>
        <time>2026-08-22T04:02:28.000Z</time>
        <extensions>
          <ns3:TrackPointExtension>
            <ns3:hr>134</ns3:hr>
            <ns3:cad>75</ns3:cad>
          </ns3:TrackPointExtension>
        </extensions>
      </trkpt>
      <trkpt lat="45.25527178309857845306396484375" lon="-71.18602029047906398773193359375">
        <ele>616</ele>
        <time>2026-08-22T04:02:29.000Z</time>
        <extensions>
          <ns3:TrackPointExtension>
            <ns3:hr>133</ns3:hr>
            <ns3:cad>75</ns3:cad>
          </ns3:TrackPointExtension>
        </extensions>
      </trkpt>
      <trkpt lat="45.25528619997203350067138671875" lon="-71.1860386468470096588134765625">
        <ele>615.79998779296875</ele>
        <time>2026-08-22T04:02:30.000Z</time>
        <extensions>
          <ns3:TrackPointExtension>
            <ns3:hr>133</ns3:hr>
            <ns3:cad>77</ns3:cad>
          </ns3:TrackPointExtension>
        </extensions>
      </trkpt>
      <trkpt lat="45.25530447252094745635986328125" lon="-71.18606471456587314605712890625">
        <ele>615.79998779296875</ele>
        <time>2026-08-22T04:02:31.000Z</time>
        <extensions>
          <ns3:TrackPointExtension>
            <ns3:hr>132</ns3:hr>
            <ns3:cad>77</ns3:cad>
          </ns3:TrackPointExtension>
        </extensions>
      </trkpt>
      <trkpt lat="45.2553166262805461883544921875" lon="-71.18608131073415279388427734375">
        <ele>615.5999755859375</ele>
        <time>2026-08-22T04:02:32.000Z</time>
        <extensions>
          <ns3:TrackPointExtension>
            <ns3:hr>132</ns3:hr>
            <ns3:cad>77</ns3:cad>
          </ns3:TrackPointExtension>
        </extensions>
      </trkpt>
      <trkpt lat="45.25533355772495269775390625" lon="-71.186104528605937957763671875">
        <ele>615.5999755859375</ele>
        <time>2026-08-22T04:02:33.000Z</time>
        <extensions>
          <ns3:TrackPointExtension>
            <ns3:hr>131</ns3:hr>
            <ns3:cad>77</ns3:cad>
          </ns3:TrackPointExtension>
        </extensions>
      </trkpt>
      <trkpt lat="45.25535157881677150726318359375" lon="-71.18612104095518589019775390625">
        <ele>615.4000244140625</ele>
        <time>2026-08-22T04:02:34.000Z</time>
        <extensions>
          <ns3:TrackPointExtension>
            <ns3:hr>130</ns3:hr>
            <ns3:cad>76</ns3:cad>
          </ns3:TrackPointExtension>
        </extensions>
      </trkpt>
      <trkpt lat="45.25536683388054370880126953125" lon="-71.18613847531378269195556640625">
        <ele>615.20001220703125</ele>
        <time>2026-08-22T04:02:35.000Z</time>
        <extensions>
          <ns3:TrackPointExtension>
            <ns3:hr>130</ns3:hr>
            <ns3:cad>76</ns3:cad>
          </ns3:TrackPointExtension>
        </extensions>
      </trkpt>
      <trkpt lat="45.255382172763347625732421875" lon="-71.18615808896720409393310546875">
        <ele>615.20001220703125</ele>
        <time>2026-08-22T04:02:36.000Z</time>
        <extensions>
          <ns3:TrackPointExtension>
            <ns3:hr>130</ns3:hr>
            <ns3:cad>76</ns3:cad>
          </ns3:TrackPointExtension>
        </extensions>
      </trkpt>
      <trkpt lat="45.255398266017436981201171875" lon="-71.186180301010608673095703125">
        <ele>615</ele>
        <time>2026-08-22T04:02:37.000Z</time>
        <extensions>
          <ns3:TrackPointExtension>
            <ns3:hr>129</ns3:hr>
            <ns3:cad>77</ns3:cad>
          </ns3:TrackPointExtension>
        </extensions>
      </trkpt>
      <trkpt lat="45.25541025213897228240966796875" lon="-71.18620016612112522125244140625">
        <ele>615</ele>
        <time>2026-08-22T04:02:38.000Z</time>
        <extensions>
          <ns3:TrackPointExtension>
            <ns3:hr>128</ns3:hr>
            <ns3:cad>77</ns3:cad>
          </ns3:TrackPointExtension>
        </extensions>
      </trkpt>
      <trkpt lat="45.255426429212093353271484375" lon="-71.186223886907100677490234375">
        <ele>615</ele>
        <time>2026-08-22T04:02:39.000Z</time>
        <extensions>
          <ns3:TrackPointExtension>
            <ns3:hr>127</ns3:hr>
            <ns3:cad>77</ns3:cad>
          </ns3:TrackPointExtension>
        </extensions>
      </trkpt>
      <trkpt lat="45.25544260628521442413330078125" lon="-71.18624693714082241058349609375">
        <ele>615</ele>
        <time>2026-08-22T04:02:40.000Z</time>
        <extensions>
          <ns3:TrackPointExtension>
            <ns3:hr>126</ns3:hr>
            <ns3:cad>77</ns3:cad>
          </ns3:TrackPointExtension>
        </extensions>
      </trkpt>
      <trkpt lat="45.2554571069777011871337890625" lon="-71.1862662993371486663818359375">
        <ele>615</ele>
        <time>2026-08-22T04:02:41.000Z</time>
        <extensions>
          <ns3:TrackPointExtension>
            <ns3:hr>125</ns3:hr>
            <ns3:cad>77</ns3:cad>
          </ns3:TrackPointExtension>
        </extensions>
      </trkpt>
      <trkpt lat="45.25547211058437824249267578125" lon="-71.18629328906536102294921875">
        <ele>615</ele>
        <time>2026-08-22T04:02:42.000Z</time>
        <extensions>
          <ns3:TrackPointExtension>
            <ns3:hr>125</ns3:hr>
            <ns3:cad>78</ns3:cad>
          </ns3:TrackPointExtension>
        </extensions>
      </trkpt>
      <trkpt lat="45.25548133067786693572998046875" lon="-71.18632103316485881805419921875">
        <ele>615</ele>
        <time>2026-08-22T04:02:43.000Z</time>
        <extensions>
          <ns3:TrackPointExtension>
            <ns3:hr>124</ns3:hr>
            <ns3:cad>78</ns3:cad>
          </ns3:TrackPointExtension>
        </extensions>
      </trkpt>
      <trkpt lat="45.25549088604748249053955078125" lon="-71.1863420717418193817138671875">
        <ele>615</ele>
        <time>2026-08-22T04:02:44.000Z</time>
        <extensions>
          <ns3:TrackPointExtension>
            <ns3:hr>123</ns3:hr>
            <ns3:cad>78</ns3:cad>
          </ns3:TrackPointExtension>
        </extensions>
      </trkpt>
      <trkpt lat="45.25550195015966892242431640625" lon="-71.1863722465932369232177734375">
        <ele>615</ele>
        <time>2026-08-22T04:02:45.000Z</time>
        <extensions>
          <ns3:TrackPointExtension>
            <ns3:hr>123</ns3:hr>
            <ns3:cad>78</ns3:cad>
          </ns3:TrackPointExtension>
        </extensions>
      </trkpt>
      <trkpt lat="45.255504883825778961181640625" lon="-71.18639948777854442596435546875">
        <ele>615</ele>
        <time>2026-08-22T04:02:46.000Z</time>
        <extensions>
          <ns3:TrackPointExtension>
            <ns3:hr>122</ns3:hr>
            <ns3:cad>80</ns3:cad>
          </ns3:TrackPointExtension>
        </extensions>
      </trkpt>
      <trkpt lat="45.25551184080541133880615234375" lon="-71.18642211891710758209228515625">
        <ele>615.20001220703125</ele>
        <time>2026-08-22T04:02:47.000Z</time>
        <extensions>
          <ns3:TrackPointExtension>
            <ns3:hr>121</ns3:hr>
            <ns3:cad>80</ns3:cad>
          </ns3:TrackPointExtension>
        </extensions>
      </trkpt>
      <trkpt lat="45.25551904924213886260986328125" lon="-71.18645179085433483123779296875">
        <ele>615.20001220703125</ele>
        <time>2026-08-22T04:02:48.000Z</time>
        <extensions>
          <ns3:TrackPointExtension>
            <ns3:hr>121</ns3:hr>
            <ns3:cad>80</ns3:cad>
          </ns3:TrackPointExtension>
        </extensions>
      </trkpt>
      <trkpt lat="45.2555179595947265625" lon="-71.18648062460124492645263671875">
        <ele>615.20001220703125</ele>
        <time>2026-08-22T04:02:49.000Z</time>
        <extensions>
          <ns3:TrackPointExtension>
            <ns3:hr>121</ns3:hr>
            <ns3:cad>79</ns3:cad>
          </ns3:TrackPointExtension>
        </extensions>
      </trkpt>
      <trkpt lat="45.2555179595947265625" lon="-71.1865060217678546905517578125">
        <ele>615.4000244140625</ele>
        <time>2026-08-22T04:02:50.000Z</time>
        <extensions>
          <ns3:TrackPointExtension>
            <ns3:hr>121</ns3:hr>
            <ns3:cad>79</ns3:cad>
          </ns3:TrackPointExtension>
        </extensions>
      </trkpt>
      <trkpt lat="45.255520306527614593505859375" lon="-71.1865385435521602630615234375">
        <ele>615.4000244140625</ele>
        <time>2026-08-22T04:02:51.000Z</time>
        <extensions>
          <ns3:TrackPointExtension>
            <ns3:hr>121</ns3:hr>
            <ns3:cad>79</ns3:cad>
          </ns3:TrackPointExtension>
        </extensions>
      </trkpt>
      <trkpt lat="45.25552332401275634765625" lon="-71.1865543015301227569580078125">
        <ele>615.5999755859375</ele>
        <time>2026-08-22T04:02:52.000Z</time>
        <extensions>
          <ns3:TrackPointExtension>
            <ns3:hr>122</ns3:hr>
            <ns3:cad>79</ns3:cad>
          </ns3:TrackPointExtension>
        </extensions>
      </trkpt>
      <trkpt lat="45.2555295266211032867431640625" lon="-71.18658539839088916778564453125">
        <ele>615.5999755859375</ele>
        <time>2026-08-22T04:02:53.000Z</time>
        <extensions>
          <ns3:TrackPointExtension>
            <ns3:hr>124</ns3:hr>
            <ns3:cad>79</ns3:cad>
          </ns3:TrackPointExtension>
        </extensions>
      </trkpt>
      <trkpt lat="45.255533047020435333251953125" lon="-71.18661020882427692413330078125">
        <ele>615.79998779296875</ele>
        <time>2026-08-22T04:02:54.000Z</time>
        <extensions>
          <ns3:TrackPointExtension>
            <ns3:hr>126</ns3:hr>
            <ns3:cad>79</ns3:cad>
          </ns3:TrackPointExtension>
        </extensions>
      </trkpt>
      <trkpt lat="45.25553581304848194122314453125" lon="-71.18663317523896694183349609375">
        <ele>616</ele>
        <time>2026-08-22T04:02:55.000Z</time>
        <extensions>
          <ns3:TrackPointExtension>
            <ns3:hr>130</ns3:hr>
            <ns3:cad>79</ns3:cad>
          </ns3:TrackPointExtension>
        </extensions>
      </trkpt>
      <trkpt lat="45.2555446140468120574951171875" lon="-71.18666418828070163726806640625">
        <ele>616</ele>
        <time>2026-08-22T04:02:56.000Z</time>
        <extensions>
          <ns3:TrackPointExtension>
            <ns3:hr>131</ns3:hr>
            <ns3:cad>79</ns3:cad>
          </ns3:TrackPointExtension>
        </extensions>
      </trkpt>
      <trkpt lat="45.255552493035793304443359375" lon="-71.18669251911342144012451171875">
        <ele>616.20001220703125</ele>
        <time>2026-08-22T04:02:57.000Z</time>
        <extensions>
          <ns3:TrackPointExtension>
            <ns3:hr>131</ns3:hr>
            <ns3:cad>79</ns3:cad>
          </ns3:TrackPointExtension>
        </extensions>
      </trkpt>
      <trkpt lat="45.255558192729949951171875" lon="-71.18671632371842861175537109375">
        <ele>616.20001220703125</ele>
        <time>2026-08-22T04:02:58.000Z</time>
        <extensions>
          <ns3:TrackPointExtension>
            <ns3:hr>132</ns3:hr>
            <ns3:cad>79</ns3:cad>
          </ns3:TrackPointExtension>
        </extensions>
      </trkpt>
      <trkpt lat="45.25556699372828006744384765625" lon="-71.18673493154346942901611328125">
        <ele>616.4000244140625</ele>
        <time>2026-08-22T04:02:59.000Z</time>
        <extensions>
          <ns3:TrackPointExtension>
            <ns3:hr>133</ns3:hr>
            <ns3:cad>79</ns3:cad>
          </ns3:TrackPointExtension>
        </extensions>
      </trkpt>
      <trkpt lat="45.255573950707912445068359375" lon="-71.1867527849972248077392578125">
        <ele>616.5999755859375</ele>
        <time>2026-08-22T04:03:00.000Z</time>
        <extensions>
          <ns3:TrackPointExtension>
            <ns3:hr>134</ns3:hr>
            <ns3:cad>79</ns3:cad>
          </ns3:TrackPointExtension>
        </extensions>
      </trkpt>
      <trkpt lat="45.25557705201208591461181640625" lon="-71.1867688782513141632080078125">
        <ele>616.5999755859375</ele>
        <time>2026-08-22T04:03:01.000Z</time>
        <extensions>
          <ns3:TrackPointExtension>
            <ns3:hr>134</ns3:hr>
            <ns3:cad>79</ns3:cad>
          </ns3:TrackPointExtension>
        </extensions>
      </trkpt>
      <trkpt lat="45.25558275170624256134033203125" lon="-71.1867926828563213348388671875">
        <ele>616.79998779296875</ele>
        <time>2026-08-22T04:03:02.000Z</time>
        <extensions>
          <ns3:TrackPointExtension>
            <ns3:hr>135</ns3:hr>
            <ns3:cad>79</ns3:cad>
          </ns3:TrackPointExtension>
        </extensions>
      </trkpt>
      <trkpt lat="45.2555868588387966156005859375" lon="-71.18681455962359905242919921875">
        <ele>617</ele>
        <time>2026-08-22T04:03:03.000Z</time>
        <extensions>
          <ns3:TrackPointExtension>
            <ns3:hr>135</ns3:hr>
            <ns3:cad>61</ns3:cad>
          </ns3:TrackPointExtension>
        </extensions>
      </trkpt>
      <trkpt lat="45.25559230707585811614990234375" lon="-71.18682931177318096160888671875">
        <ele>617</ele>
        <time>2026-08-22T04:03:04.000Z</time>
        <extensions>
          <ns3:TrackPointExtension>
            <ns3:hr>136</ns3:hr>
            <ns3:cad>61</ns3:cad>
          </ns3:TrackPointExtension>
        </extensions>
      </trkpt>
      <trkpt lat="45.25559599511325359344482421875" lon="-71.1868443153798580169677734375">
        <ele>617.20001220703125</ele>
        <time>2026-08-22T04:03:05.000Z</time>
        <extensions>
          <ns3:TrackPointExtension>
            <ns3:hr>136</ns3:hr>
            <ns3:cad>54</ns3:cad>
          </ns3:TrackPointExtension>
        </extensions>
      </trkpt>
      <trkpt lat="45.25559817440807819366455078125" lon="-71.18686200119554996490478515625">
        <ele>617.20001220703125</ele>
        <time>2026-08-22T04:03:06.000Z</time>
        <extensions>
          <ns3:TrackPointExtension>
            <ns3:hr>136</ns3:hr>
            <ns3:cad>55</ns3:cad>
          </ns3:TrackPointExtension>
        </extensions>
      </trkpt>
      <trkpt lat="45.2556024491786956787109375" lon="-71.18688069283962249755859375">
        <ele>617.20001220703125</ele>
        <time>2026-08-22T04:03:07.000Z</time>
        <extensions>
          <ns3:TrackPointExtension>
            <ns3:hr>136</ns3:hr>
            <ns3:cad>55</ns3:cad>
          </ns3:TrackPointExtension>
        </extensions>
      </trkpt>
      <trkpt lat="45.25560772977769374847412109375" lon="-71.18690223433077335357666015625">
        <ele>617.4000244140625</ele>
        <time>2026-08-22T04:03:08.000Z</time>
        <extensions>
          <ns3:TrackPointExtension>
            <ns3:hr>137</ns3:hr>
            <ns3:cad>54</ns3:cad>
          </ns3:TrackPointExtension>
        </extensions>
      </trkpt>
      <trkpt lat="45.255613513290882110595703125" lon="-71.18692360818386077880859375">
        <ele>617.4000244140625</ele>
        <time>2026-08-22T04:03:09.000Z</time>
        <extensions>
          <ns3:TrackPointExtension>
            <ns3:hr>137</ns3:hr>
            <ns3:cad>54</ns3:cad>
          </ns3:TrackPointExtension>
        </extensions>
      </trkpt>
      <trkpt lat="45.255617536604404449462890625" lon="-71.1869363486766815185546875">
        <ele>617.5999755859375</ele>
        <time>2026-08-22T04:03:10.000Z</time>
        <extensions>
          <ns3:TrackPointExtension>
            <ns3:hr>137</ns3:hr>
            <ns3:cad>54</ns3:cad>
          </ns3:TrackPointExtension>
        </extensions>
      </trkpt>
      <trkpt lat="45.2556180395185947418212890625" lon="-71.1869536153972148895263671875">
        <ele>617.79998779296875</ele>
        <time>2026-08-22T04:03:11.000Z</time>
        <extensions>
          <ns3:TrackPointExtension>
            <ns3:hr>137</ns3:hr>
            <ns3:cad>53</ns3:cad>
          </ns3:TrackPointExtension>
        </extensions>
      </trkpt>
      <trkpt lat="45.2556212246417999267578125" lon="-71.18697331286966800689697265625">
        <ele>618</ele>
        <time>2026-08-22T04:03:12.000Z</time>
        <extensions>
          <ns3:TrackPointExtension>
            <ns3:hr>137</ns3:hr>
            <ns3:cad>53</ns3:cad>
          </ns3:TrackPointExtension>
        </extensions>
      </trkpt>
      <trkpt lat="45.2556113339960575103759765625" lon="-71.18699041195213794708251953125">
        <ele>618.20001220703125</ele>
        <time>2026-08-22T04:03:13.000Z</time>
        <extensions>
          <ns3:TrackPointExtension>
            <ns3:hr>137</ns3:hr>
            <ns3:cad>53</ns3:cad>
          </ns3:TrackPointExtension>
        </extensions>
      </trkpt>
      <trkpt lat="45.25560119189321994781494140625" lon="-71.18701907806098461151123046875">
        <ele>618.20001220703125</ele>
        <time>2026-08-22T04:03:14.000Z</time>
        <extensions>
          <ns3:TrackPointExtension>
            <ns3:hr>137</ns3:hr>
            <ns3:cad>53</ns3:cad>
          </ns3:TrackPointExtension>
        </extensions>
      </trkpt>
      <trkpt lat="45.255602784454822540283203125" lon="-71.18703768588602542877197265625">
        <ele>618.4000244140625</ele>
        <time>2026-08-22T04:03:15.000Z</time>
        <extensions>
          <ns3:TrackPointExtension>
            <ns3:hr>137</ns3:hr>
            <ns3:cad>53</ns3:cad>
          </ns3:TrackPointExtension>
        </extensions>
      </trkpt>
      <trkpt lat="45.25560756213963031768798828125" lon="-71.187058053910732269287109375">
        <ele>618.5999755859375</ele>
        <time>2026-08-22T04:03:16.000Z</time>
        <extensions>
          <ns3:TrackPointExtension>
            <ns3:hr>136</ns3:hr>
            <ns3:cad>53</ns3:cad>
          </ns3:TrackPointExtension>
        </extensions>
      </trkpt>
      <trkpt lat="45.25561024434864521026611328125" lon="-71.18707783520221710205078125">
        <ele>618.5999755859375</ele>
        <time>2026-08-22T04:03:17.000Z</time>
        <extensions>
          <ns3:TrackPointExtension>
            <ns3:hr>136</ns3:hr>
            <ns3:cad>51</ns3:cad>
          </ns3:TrackPointExtension>
        </extensions>
      </trkpt>
      <trkpt lat="45.25561225600540637969970703125" lon="-71.187098287045955657958984375">
        <ele>618.5999755859375</ele>
        <time>2026-08-22T04:03:18.000Z</time>
        <extensions>
          <ns3:TrackPointExtension>
            <ns3:hr>136</ns3:hr>
            <ns3:cad>51</ns3:cad>
          </ns3:TrackPointExtension>
        </extensions>
      </trkpt>
      <trkpt lat="45.25561477057635784149169921875" lon="-71.187111698091030120849609375">
        <ele>618.79998779296875</ele>
        <time>2026-08-22T04:03:19.000Z</time>
        <extensions>
          <ns3:TrackPointExtension>
            <ns3:hr>135</ns3:hr>
            <ns3:cad>51</ns3:cad>
          </ns3:TrackPointExtension>
        </extensions>
      </trkpt>
      <trkpt lat="45.2556197158992290496826171875" lon="-71.1871241033077239990234375">
        <ele>619</ele>
        <time>2026-08-22T04:03:20.000Z</time>
        <extensions>
          <ns3:TrackPointExtension>
            <ns3:hr>134</ns3:hr>
            <ns3:cad>51</ns3:cad>
          </ns3:TrackPointExtension>
        </extensions>
      </trkpt>
      <trkpt lat="45.25562013499438762664794921875" lon="-71.18713357485830783843994140625">
        <ele>619</ele>
        <time>2026-08-22T04:03:21.000Z</time>
        <extensions>
          <ns3:TrackPointExtension>
            <ns3:hr>133</ns3:hr>
            <ns3:cad>51</ns3:cad>
          </ns3:TrackPointExtension>
        </extensions>
      </trkpt>
      <trkpt lat="45.25562164373695850372314453125" lon="-71.18714849464595317840576171875">
        <ele>619.20001220703125</ele>
        <time>2026-08-22T04:03:22.000Z</time>
        <extensions>
          <ns3:TrackPointExtension>
            <ns3:hr>133</ns3:hr>
            <ns3:cad>50</ns3:cad>
          </ns3:TrackPointExtension>
        </extensions>
      </trkpt>
      <trkpt lat="45.255627930164337158203125" lon="-71.187164671719074249267578125">
        <ele>619.4000244140625</ele>
        <time>2026-08-22T04:03:23.000Z</time>
        <extensions>
          <ns3:TrackPointExtension>
            <ns3:hr>132</ns3:hr>
            <ns3:cad>50</ns3:cad>
          </ns3:TrackPointExtension>
        </extensions>
      </trkpt>
      <trkpt lat="45.25562818162143230438232421875" lon="-71.1871750652790069580078125">
        <ele>619.5999755859375</ele>
        <time>2026-08-22T04:03:24.000Z</time>
        <extensions>
          <ns3:TrackPointExtension>
            <ns3:hr>132</ns3:hr>
            <ns3:cad>49</ns3:cad>
          </ns3:TrackPointExtension>
        </extensions>
      </trkpt>
      <trkpt lat="45.25563354603946208953857421875" lon="-71.1871879734098911285400390625">
        <ele>619.79998779296875</ele>
        <time>2026-08-22T04:03:25.000Z</time>
        <extensions>
          <ns3:TrackPointExtension>
            <ns3:hr>132</ns3:hr>
            <ns3:cad>50</ns3:cad>
          </ns3:TrackPointExtension>
        </extensions>
      </trkpt>
      <trkpt lat="45.2556378208100795745849609375" lon="-71.18720666505396366119384765625">
        <ele>620</ele>
        <time>2026-08-22T04:03:26.000Z</time>
        <extensions>
          <ns3:TrackPointExtension>
            <ns3:hr>132</ns3:hr>
            <ns3:cad>50</ns3:cad>
          </ns3:TrackPointExtension>
        </extensions>
      </trkpt>
      <trkpt lat="45.25564134120941162109375" lon="-71.187227033078670501708984375">
        <ele>620.20001220703125</ele>
        <time>2026-08-22T04:03:27.000Z</time>
        <extensions>
          <ns3:TrackPointExtension>
            <ns3:hr>133</ns3:hr>
            <ns3:cad>50</ns3:cad>
          </ns3:TrackPointExtension>
        </extensions>
      </trkpt>
      <trkpt lat="45.25564494542777538299560546875" lon="-71.187241114675998687744140625">
        <ele>620.20001220703125</ele>
        <time>2026-08-22T04:03:28.000Z</time>
        <extensions>
          <ns3:TrackPointExtension>
            <ns3:hr>133</ns3:hr>
            <ns3:cad>50</ns3:cad>
          </ns3:TrackPointExtension>
        </extensions>
      </trkpt>
      <trkpt lat="45.25564561598002910614013671875" lon="-71.1872582137584686279296875">
        <ele>620.4000244140625</ele>
        <time>2026-08-22T04:03:29.000Z</time>
        <extensions>
          <ns3:TrackPointExtension>
            <ns3:hr>133</ns3:hr>
            <ns3:cad>51</ns3:cad>
          </ns3:TrackPointExtension>
        </extensions>
      </trkpt>
      <trkpt lat="45.2556498907506465911865234375" lon="-71.18727757595479488372802734375">
        <ele>620.4000244140625</ele>
        <time>2026-08-22T04:03:30.000Z</time>
        <extensions>
          <ns3:TrackPointExtension>
            <ns3:hr>133</ns3:hr>
            <ns3:cad>51</ns3:cad>
          </ns3:TrackPointExtension>
        </extensions>
      </trkpt>
      <trkpt lat="45.255654752254486083984375" lon="-71.18729350157082080841064453125">
        <ele>620.5999755859375</ele>
        <time>2026-08-22T04:03:31.000Z</time>
        <extensions>
          <ns3:TrackPointExtension>
            <ns3:hr>132</ns3:hr>
            <ns3:cad>53</ns3:cad>
          </ns3:TrackPointExtension>
        </extensions>
      </trkpt>
      <trkpt lat="45.25565735064446926116943359375" lon="-71.18730716407299041748046875">
        <ele>620.79998779296875</ele>
        <time>2026-08-22T04:03:32.000Z</time>
        <extensions>
          <ns3:TrackPointExtension>
            <ns3:hr>133</ns3:hr>
            <ns3:cad>53</ns3:cad>
          </ns3:TrackPointExtension>
        </extensions>
      </trkpt>
      <trkpt lat="45.255658440291881561279296875" lon="-71.1873214133083820343017578125">
        <ele>621</ele>
        <time>2026-08-22T04:03:33.000Z</time>
        <extensions>
          <ns3:TrackPointExtension>
            <ns3:hr>133</ns3:hr>
            <ns3:cad>53</ns3:cad>
          </ns3:TrackPointExtension>
        </extensions>
      </trkpt>
      <trkpt lat="45.25565751828253269195556640625" lon="-71.18733457289636135101318359375">
        <ele>621.20001220703125</ele>
        <time>2026-08-22T04:03:34.000Z</time>
        <extensions>
          <ns3:TrackPointExtension>
            <ns3:hr>133</ns3:hr>
            <ns3:cad>53</ns3:cad>
          </ns3:TrackPointExtension>
        </extensions>
      </trkpt>
      <trkpt lat="45.2556612901389598846435546875" lon="-71.18735217489302158355712890625">
        <ele>621.4000244140625</ele>
        <time>2026-08-22T04:03:35.000Z</time>
        <extensions>
          <ns3:TrackPointExtension>
            <ns3:hr>133</ns3:hr>
            <ns3:cad>53</ns3:cad>
          </ns3:TrackPointExtension>
        </extensions>
      </trkpt>
      <trkpt lat="45.2556626312434673309326171875" lon="-71.1873681843280792236328125">
        <ele>621.4000244140625</ele>
        <time>2026-08-22T04:03:36.000Z</time>
        <extensions>
          <ns3:TrackPointExtension>
            <ns3:hr>134</ns3:hr>
            <ns3:cad>53</ns3:cad>
          </ns3:TrackPointExtension>
        </extensions>
      </trkpt>
      <trkpt lat="45.25566506199538707733154296875" lon="-71.18738268502056598663330078125">
        <ele>621.5999755859375</ele>
        <time>2026-08-22T04:03:37.000Z</time>
        <extensions>
          <ns3:TrackPointExtension>
            <ns3:hr>134</ns3:hr>
            <ns3:cad>53</ns3:cad>
          </ns3:TrackPointExtension>
        </extensions>
      </trkpt>
      <trkpt lat="45.25566858239471912384033203125" lon="-71.1873965151607990264892578125">
        <ele>621.79998779296875</ele>
        <time>2026-08-22T04:03:38.000Z</time>
        <extensions>
          <ns3:TrackPointExtension>
            <ns3:hr>134</ns3:hr>
            <ns3:cad>53</ns3:cad>
          </ns3:TrackPointExtension>
        </extensions>
      </trkpt>
      <trkpt lat="45.25566875003278255462646484375" lon="-71.18740816600620746612548828125">
        <ele>621.79998779296875</ele>
        <time>2026-08-22T04:03:39.000Z</time>
        <extensions>
          <ns3:TrackPointExtension>
            <ns3:hr>134</ns3:hr>
            <ns3:cad>53</ns3:cad>
          </ns3:TrackPointExtension>
        </extensions>
      </trkpt>
      <trkpt lat="45.25567285716533660888671875" lon="-71.18742107413709163665771484375">
        <ele>622</ele>
        <time>2026-08-22T04:03:40.000Z</time>
        <extensions>
          <ns3:TrackPointExtension>
            <ns3:hr>135</ns3:hr>
            <ns3:cad>53</ns3:cad>
          </ns3:TrackPointExtension>
        </extensions>
      </trkpt>
      <trkpt lat="45.25567880831658840179443359375" lon="-71.18743297643959522247314453125">
        <ele>622</ele>
        <time>2026-08-22T04:03:41.000Z</time>
        <extensions>
          <ns3:TrackPointExtension>
            <ns3:hr>135</ns3:hr>
            <ns3:cad>53</ns3:cad>
          </ns3:TrackPointExtension>
        </extensions>
      </trkpt>
      <trkpt lat="45.25567998178303241729736328125" lon="-71.187445633113384246826171875">
        <ele>622.20001220703125</ele>
        <time>2026-08-22T04:03:42.000Z</time>
        <extensions>
          <ns3:TrackPointExtension>
            <ns3:hr>135</ns3:hr>
            <ns3:cad>53</ns3:cad>
          </ns3:TrackPointExtension>
        </extensions>
      </trkpt>
      <trkpt lat="45.2556797303259372711181640625" lon="-71.18745870888233184814453125">
        <ele>622.4000244140625</ele>
        <time>2026-08-22T04:03:43.000Z</time>
        <extensions>
          <ns3:TrackPointExtension>
            <ns3:hr>136</ns3:hr>
            <ns3:cad>52</ns3:cad>
          </ns3:TrackPointExtension>
        </extensions>
      </trkpt>
      <trkpt lat="45.25567679665982723236083984375" lon="-71.18747438304126262664794921875">
        <ele>622.4000244140625</ele>
        <time>2026-08-22T04:03:44.000Z</time>
        <extensions>
          <ns3:TrackPointExtension>
            <ns3:hr>136</ns3:hr>
            <ns3:cad>52</ns3:cad>
          </ns3:TrackPointExtension>
        </extensions>
      </trkpt>
      <trkpt lat="45.2556804008781909942626953125" lon="-71.1874957568943500518798828125">
        <ele>622.5999755859375</ele>
        <time>2026-08-22T04:03:45.000Z</time>
        <extensions>
          <ns3:TrackPointExtension>
            <ns3:hr>136</ns3:hr>
            <ns3:cad>52</ns3:cad>
          </ns3:TrackPointExtension>
        </extensions>
      </trkpt>
      <trkpt lat="45.2556840889155864715576171875" lon="-71.18751293979585170745849609375">
        <ele>622.79998779296875</ele>
        <time>2026-08-22T04:03:46.000Z</time>
        <extensions>
          <ns3:TrackPointExtension>
            <ns3:hr>136</ns3:hr>
            <ns3:cad>51</ns3:cad>
          </ns3:TrackPointExtension>
        </extensions>
      </trkpt>
      <trkpt lat="45.25568752549588680267333984375" lon="-71.18753322400152683258056640625">
        <ele>623</ele>
        <time>2026-08-22T04:03:47.000Z</time>
        <extensions>
          <ns3:TrackPointExtension>
            <ns3:hr>137</ns3:hr>
            <ns3:cad>51</ns3:cad>
          </ns3:TrackPointExtension>
        </extensions>
      </trkpt>
      <trkpt lat="45.2556904591619968414306640625" lon="-71.18755334056913852691650390625">
        <ele>623</ele>
        <time>2026-08-22T04:03:48.000Z</time>
        <extensions>
          <ns3:TrackPointExtension>
            <ns3:hr>137</ns3:hr>
            <ns3:cad>52</ns3:cad>
          </ns3:TrackPointExtension>
        </extensions>
      </trkpt>
      <trkpt lat="45.2556911297142505645751953125" lon="-71.18757278658449649810791015625">
        <ele>623.20001220703125</ele>
        <time>2026-08-22T04:03:49.000Z</time>
        <extensions>
          <ns3:TrackPointExtension>
            <ns3:hr>137</ns3:hr>
            <ns3:cad>52</ns3:cad>
          </ns3:TrackPointExtension>
        </extensions>
      </trkpt>
      <trkpt lat="45.25569171644747257232666015625" lon="-71.18759147822856903076171875">
        <ele>623.20001220703125</ele>
        <time>2026-08-22T04:03:50.000Z</time>
        <extensions>
          <ns3:TrackPointExtension>
            <ns3:hr>137</ns3:hr>
            <ns3:cad>52</ns3:cad>
          </ns3:TrackPointExtension>
        </extensions>
      </trkpt>
      <trkpt lat="45.2556931413710117340087890625" lon="-71.1876080743968486785888671875">
        <ele>623.4000244140625</ele>
        <time>2026-08-22T04:03:51.000Z</time>
        <extensions>
          <ns3:TrackPointExtension>
            <ns3:hr>137</ns3:hr>
            <ns3:cad>52</ns3:cad>
          </ns3:TrackPointExtension>
        </extensions>
      </trkpt>
      <trkpt lat="45.2556918002665042877197265625" lon="-71.1876261793076992034912109375">
        <ele>623.4000244140625</ele>
        <time>2026-08-22T04:03:52.000Z</time>
        <extensions>
          <ns3:TrackPointExtension>
            <ns3:hr>138</ns3:hr>
            <ns3:cad>52</ns3:cad>
          </ns3:TrackPointExtension>
        </extensions>
      </trkpt>
      <trkpt lat="45.25569087825715541839599609375" lon="-71.1876476369798183441162109375">
        <ele>623.5999755859375</ele>
        <time>2026-08-22T04:03:53.000Z</time>
        <extensions>
          <ns3:TrackPointExtension>
            <ns3:hr>137</ns3:hr>
            <ns3:cad>52</ns3:cad>
          </ns3:TrackPointExtension>
        </extensions>
      </trkpt>
      <trkpt lat="45.25569071061909198760986328125" lon="-71.1876654066145420074462890625">
        <ele>623.79998779296875</ele>
        <time>2026-08-22T04:03:54.000Z</time>
        <extensions>
          <ns3:TrackPointExtension>
            <ns3:hr>137</ns3:hr>
            <ns3:cad>52</ns3:cad>
          </ns3:TrackPointExtension>
        </extensions>
      </trkpt>
      <trkpt lat="45.255693309009075164794921875" lon="-71.18768359534442424774169921875">
        <ele>624</ele>
        <time>2026-08-22T04:03:55.000Z</time>
        <extensions>
          <ns3:TrackPointExtension>
            <ns3:hr>137</ns3:hr>
            <ns3:cad>53</ns3:cad>
          </ns3:TrackPointExtension>
        </extensions>
      </trkpt>
      <trkpt lat="45.25569473393261432647705078125" lon="-71.18770589120686054229736328125">
        <ele>624</ele>
        <time>2026-08-22T04:03:56.000Z</time>
        <extensions>
          <ns3:TrackPointExtension>
            <ns3:hr>137</ns3:hr>
            <ns3:cad>52</ns3:cad>
          </ns3:TrackPointExtension>
        </extensions>
      </trkpt>
      <trkpt lat="45.2556995116174221038818359375" lon="-71.18772282265126705169677734375">
        <ele>624.20001220703125</ele>
        <time>2026-08-22T04:03:57.000Z</time>
        <extensions>
          <ns3:TrackPointExtension>
            <ns3:hr>138</ns3:hr>
            <ns3:cad>52</ns3:cad>
          </ns3:TrackPointExtension>
        </extensions>
      </trkpt>
      <trkpt lat="45.255700014531612396240234375" lon="-71.18773874826729297637939453125">
        <ele>624.4000244140625</ele>
        <time>2026-08-22T04:03:58.000Z</time>
        <extensions>
          <ns3:TrackPointExtension>
            <ns3:hr>137</ns3:hr>
            <ns3:cad>52</ns3:cad>
          </ns3:TrackPointExtension>
        </extensions>
      </trkpt>
      <trkpt lat="45.25569926016032695770263671875" lon="-71.1877576075494289398193359375">
        <ele>624.5999755859375</ele>
        <time>2026-08-22T04:03:59.000Z</time>
        <extensions>
          <ns3:TrackPointExtension>
            <ns3:hr>137</ns3:hr>
            <ns3:cad>52</ns3:cad>
          </ns3:TrackPointExtension>
        </extensions>
      </trkpt>
      <trkpt lat="45.25570043362677097320556640625" lon="-71.18778082542121410369873046875">
        <ele>624.5999755859375</ele>
        <time>2026-08-22T04:04:00.000Z</time>
        <extensions>
          <ns3:TrackPointExtension>
            <ns3:hr>137</ns3:hr>
            <ns3:cad>51</ns3:cad>
          </ns3:TrackPointExtension>
        </extensions>
      </trkpt>
      <trkpt lat="45.25570160709321498870849609375" lon="-71.1878015287220478057861328125">
        <ele>625</ele>
        <time>2026-08-22T04:04:01.000Z</time>
        <extensions>
          <ns3:TrackPointExtension>
            <ns3:hr>137</ns3:hr>
            <ns3:cad>51</ns3:cad>
          </ns3:TrackPointExtension>
        </extensions>
      </trkpt>
      <trkpt lat="45.2557018585503101348876953125" lon="-71.18782206438481807708740234375">
        <ele>625.20001220703125</ele>
        <time>2026-08-22T04:04:02.000Z</time>
        <extensions>
          <ns3:TrackPointExtension>
            <ns3:hr>136</ns3:hr>
            <ns3:cad>51</ns3:cad>
          </ns3:TrackPointExtension>
        </extensions>
      </trkpt>
      <trkpt lat="45.25570378638803958892822265625" lon="-71.18783614598214626312255859375">
        <ele>625.4000244140625</ele>
        <time>2026-08-22T04:04:03.000Z</time>
        <extensions>
          <ns3:TrackPointExtension>
            <ns3:hr>136</ns3:hr>
            <ns3:cad>51</ns3:cad>
          </ns3:TrackPointExtension>
        </extensions>
      </trkpt>
      <trkpt lat="45.25570630095899105072021484375" lon="-71.18784762918949127197265625">
        <ele>625.5999755859375</ele>
        <time>2026-08-22T04:04:04.000Z</time>
        <extensions>
          <ns3:TrackPointExtension>
            <ns3:hr>136</ns3:hr>
            <ns3:cad>51</ns3:cad>
          </ns3:TrackPointExtension>
        </extensions>
      </trkpt>
      <trkpt lat="45.2557018585503101348876953125" lon="-71.18786372244358062744140625">
        <ele>625.79998779296875</ele>
        <time>2026-08-22T04:04:05.000Z</time>
        <extensions>
          <ns3:TrackPointExtension>
            <ns3:hr>136</ns3:hr>
            <ns3:cad>50</ns3:cad>
          </ns3:TrackPointExtension>
        </extensions>
      </trkpt>
      <trkpt lat="45.2556998468935489654541015625" lon="-71.1878809891641139984130859375">
        <ele>626</ele>
        <time>2026-08-22T04:04:06.000Z</time>
        <extensions>
          <ns3:TrackPointExtension>
            <ns3:hr>136</ns3:hr>
            <ns3:cad>50</ns3:cad>
          </ns3:TrackPointExtension>
        </extensions>
      </trkpt>
      <trkpt lat="45.25570236146450042724609375" lon="-71.18790236301720142364501953125">
        <ele>626.20001220703125</ele>
        <time>2026-08-22T04:04:07.000Z</time>
        <extensions>
          <ns3:TrackPointExtension>
            <ns3:hr>136</ns3:hr>
            <ns3:cad>50</ns3:cad>
          </ns3:TrackPointExtension>
        </extensions>
      </trkpt>
      <trkpt lat="45.25570177473127841949462890625" lon="-71.18792164139449596405029296875">
        <ele>626.4000244140625</ele>
        <time>2026-08-22T04:04:08.000Z</time>
        <extensions>
          <ns3:TrackPointExtension>
            <ns3:hr>136</ns3:hr>
            <ns3:cad>50</ns3:cad>
          </ns3:TrackPointExtension>
        </extensions>
      </trkpt>
      <trkpt lat="45.25569699704647064208984375" lon="-71.1879349686205387115478515625">
        <ele>626.5999755859375</ele>
        <time>2026-08-22T04:04:09.000Z</time>
        <extensions>
          <ns3:TrackPointExtension>
            <ns3:hr>136</ns3:hr>
            <ns3:cad>51</ns3:cad>
          </ns3:TrackPointExtension>
        </extensions>
      </trkpt>
      <trkpt lat="45.255698002874851226806640625" lon="-71.1879527382552623748779296875">
        <ele>626.79998779296875</ele>
        <time>2026-08-22T04:04:10.000Z</time>
        <extensions>
          <ns3:TrackPointExtension>
            <ns3:hr>135</ns3:hr>
            <ns3:cad>51</ns3:cad>
          </ns3:TrackPointExtension>
        </extensions>
      </trkpt>
      <trkpt lat="45.25569842197000980377197265625" lon="-71.18796824477612972259521484375">
        <ele>627</ele>
        <time>2026-08-22T04:04:11.000Z</time>
        <extensions>
          <ns3:TrackPointExtension>
            <ns3:hr>135</ns3:hr>
            <ns3:cad>51</ns3:cad>
          </ns3:TrackPointExtension>
        </extensions>
      </trkpt>
      <trkpt lat="45.2556988410651683807373046875" lon="-71.18798702023923397064208984375">
        <ele>627.20001220703125</ele>
        <time>2026-08-22T04:04:12.000Z</time>
        <extensions>
          <ns3:TrackPointExtension>
            <ns3:hr>135</ns3:hr>
            <ns3:cad>51</ns3:cad>
          </ns3:TrackPointExtension>
        </extensions>
      </trkpt>
      <trkpt lat="45.2556944824755191802978515625" lon="-71.1880030296742916107177734375">
        <ele>627.4000244140625</ele>
        <time>2026-08-22T04:04:13.000Z</time>
        <extensions>
          <ns3:TrackPointExtension>
            <ns3:hr>136</ns3:hr>
            <ns3:cad>51</ns3:cad>
          </ns3:TrackPointExtension>
        </extensions>
      </trkpt>
      <trkpt lat="45.25569406338036060333251953125" lon="-71.18801501579582691192626953125">
        <ele>627.5999755859375</ele>
        <time>2026-08-22T04:04:14.000Z</time>
        <extensions>
          <ns3:TrackPointExtension>
            <ns3:hr>136</ns3:hr>
            <ns3:cad>50</ns3:cad>
          </ns3:TrackPointExtension>
        </extensions>
      </trkpt>
      <trkpt lat="45.25570127181708812713623046875" lon="-71.18802708573639392852783203125">
        <ele>627.79998779296875</ele>
        <time>2026-08-22T04:04:15.000Z</time>
        <extensions>
          <ns3:TrackPointExtension>
            <ns3:hr>136</ns3:hr>
            <ns3:cad>51</ns3:cad>
          </ns3:TrackPointExtension>
        </extensions>
      </trkpt>
      <trkpt lat="45.2557075582444667816162109375" lon="-71.18804267607629299163818359375">
        <ele>627.79998779296875</ele>
        <time>2026-08-22T04:04:16.000Z</time>
        <extensions>
          <ns3:TrackPointExtension>
            <ns3:hr>136</ns3:hr>
            <ns3:cad>51</ns3:cad>
          </ns3:TrackPointExtension>
        </extensions>
      </trkpt>
      <trkpt lat="45.25570898316800594329833984375" lon="-71.18805642239749431610107421875">
        <ele>628</ele>
        <time>2026-08-22T04:04:17.000Z</time>
        <extensions>
          <ns3:TrackPointExtension>
            <ns3:hr>136</ns3:hr>
            <ns3:cad>50</ns3:cad>
          </ns3:TrackPointExtension>
        </extensions>
      </trkpt>
      <trkpt lat="45.25571233592927455902099609375" lon="-71.18807352147996425628662109375">
        <ele>628.20001220703125</ele>
        <time>2026-08-22T04:04:18.000Z</time>
        <extensions>
          <ns3:TrackPointExtension>
            <ns3:hr>136</ns3:hr>
            <ns3:cad>50</ns3:cad>
          </ns3:TrackPointExtension>
        </extensions>
      </trkpt>
      <trkpt lat="45.2557129226624965667724609375" lon="-71.18808827362954616546630859375">
        <ele>628.4000244140625</ele>
        <time>2026-08-22T04:04:19.000Z</time>
        <extensions>
          <ns3:TrackPointExtension>
            <ns3:hr>137</ns3:hr>
            <ns3:cad>50</ns3:cad>
          </ns3:TrackPointExtension>
        </extensions>
      </trkpt>
      <trkpt lat="45.255713425576686859130859375" lon="-71.1881029419600963592529296875">
        <ele>628.4000244140625</ele>
        <time>2026-08-22T04:04:20.000Z</time>
        <extensions>
          <ns3:TrackPointExtension>
            <ns3:hr>136</ns3:hr>
            <ns3:cad>50</ns3:cad>
          </ns3:TrackPointExtension>
        </extensions>
      </trkpt>
      <trkpt lat="45.255714766681194305419921875" lon="-71.1881183646619319915771484375">
        <ele>628.5999755859375</ele>
        <time>2026-08-22T04:04:21.000Z</time>
        <extensions>
          <ns3:TrackPointExtension>
            <ns3:hr>136</ns3:hr>
            <ns3:cad>51</ns3:cad>
          </ns3:TrackPointExtension>
        </extensions>
      </trkpt>
      <trkpt lat="45.25571736507117748260498046875" lon="-71.18813102133572101593017578125">
        <ele>628.79998779296875</ele>
        <time>2026-08-22T04:04:22.000Z</time>
        <extensions>
          <ns3:TrackPointExtension>
            <ns3:hr>136</ns3:hr>
            <ns3:cad>51</ns3:cad>
          </ns3:TrackPointExtension>
        </extensions>
      </trkpt>
      <trkpt lat="45.255717448890209197998046875" lon="-71.1881460249423980712890625">
        <ele>629</ele>
        <time>2026-08-22T04:04:23.000Z</time>
        <extensions>
          <ns3:TrackPointExtension>
            <ns3:hr>136</ns3:hr>
            <ns3:cad>51</ns3:cad>
          </ns3:TrackPointExtension>
        </extensions>
      </trkpt>
      <trkpt lat="45.2557152695953845977783203125" lon="-71.1881663091480731964111328125">
        <ele>629.20001220703125</ele>
        <time>2026-08-22T04:04:24.000Z</time>
        <extensions>
          <ns3:TrackPointExtension>
            <ns3:hr>136</ns3:hr>
            <ns3:cad>51</ns3:cad>
          </ns3:TrackPointExtension>
        </extensions>
      </trkpt>
      <trkpt lat="45.25571451522409915924072265625" lon="-71.18818852119147777557373046875">
        <ele>629.20001220703125</ele>
        <time>2026-08-22T04:04:25.000Z</time>
        <extensions>
          <ns3:TrackPointExtension>
            <ns3:hr>136</ns3:hr>
            <ns3:cad>51</ns3:cad>
          </ns3:TrackPointExtension>
        </extensions>
      </trkpt>
      <trkpt lat="45.25571417994797229766845703125" lon="-71.18821232579648494720458984375">
        <ele>629.4000244140625</ele>
        <time>2026-08-22T04:04:26.000Z</time>
        <extensions>
          <ns3:TrackPointExtension>
            <ns3:hr>136</ns3:hr>
            <ns3:cad>48</ns3:cad>
          </ns3:TrackPointExtension>
        </extensions>
      </trkpt>
      <trkpt lat="45.2557149343192577362060546875" lon="-71.18823160417377948760986328125">
        <ele>629.5999755859375</ele>
        <time>2026-08-22T04:04:27.000Z</time>
        <extensions>
          <ns3:TrackPointExtension>
            <ns3:hr>137</ns3:hr>
            <ns3:cad>48</ns3:cad>
          </ns3:TrackPointExtension>
        </extensions>
      </trkpt>
      <trkpt lat="45.25571602396667003631591796875" lon="-71.18824803270399570465087890625">
        <ele>629.79998779296875</ele>
        <time>2026-08-22T04:04:28.000Z</time>
        <extensions>
          <ns3:TrackPointExtension>
            <ns3:hr>137</ns3:hr>
            <ns3:cad>50</ns3:cad>
          </ns3:TrackPointExtension>
        </extensions>
      </trkpt>
      <trkpt lat="45.2557151019573211669921875" lon="-71.18827485479414463043212890625">
        <ele>630</ele>
        <time>2026-08-22T04:04:29.000Z</time>
        <extensions>
          <ns3:TrackPointExtension>
            <ns3:hr>137</ns3:hr>
            <ns3:cad>50</ns3:cad>
          </ns3:TrackPointExtension>
        </extensions>
      </trkpt>
      <trkpt lat="45.2557162754237651824951171875" lon="-71.18829631246626377105712890625">
        <ele>630.20001220703125</ele>
        <time>2026-08-22T04:04:30.000Z</time>
        <extensions>
          <ns3:TrackPointExtension>
            <ns3:hr>136</ns3:hr>
            <ns3:cad>50</ns3:cad>
          </ns3:TrackPointExtension>
        </extensions>
      </trkpt>
      <trkpt lat="45.25571711361408233642578125" lon="-71.18831634521484375">
        <ele>630.20001220703125</ele>
        <time>2026-08-22T04:04:31.000Z</time>
        <extensions>
          <ns3:TrackPointExtension>
            <ns3:hr>136</ns3:hr>
            <ns3:cad>50</ns3:cad>
          </ns3:TrackPointExtension>
        </extensions>
      </trkpt>
      <trkpt lat="45.25571820326149463653564453125" lon="-71.1883337795734405517578125">
        <ele>630.4000244140625</ele>
        <time>2026-08-22T04:04:32.000Z</time>
        <extensions>
          <ns3:TrackPointExtension>
            <ns3:hr>137</ns3:hr>
            <ns3:cad>50</ns3:cad>
          </ns3:TrackPointExtension>
        </extensions>
      </trkpt>
      <trkpt lat="45.25572004728019237518310546875" lon="-71.1883525550365447998046875">
        <ele>630.4000244140625</ele>
        <time>2026-08-22T04:04:33.000Z</time>
        <extensions>
          <ns3:TrackPointExtension>
            <ns3:hr>137</ns3:hr>
            <ns3:cad>50</ns3:cad>
          </ns3:TrackPointExtension>
        </extensions>
      </trkpt>
      <trkpt lat="45.255718789994716644287109375" lon="-71.1883711628615856170654296875">
        <ele>630.5999755859375</ele>
        <time>2026-08-22T04:04:34.000Z</time>
        <extensions>
          <ns3:TrackPointExtension>
            <ns3:hr>137</ns3:hr>
            <ns3:cad>50</ns3:cad>
          </ns3:TrackPointExtension>
        </extensions>
      </trkpt>
      <trkpt lat="45.2557186223566532135009765625" lon="-71.18838608264923095703125">
        <ele>630.79998779296875</ele>
        <time>2026-08-22T04:04:35.000Z</time>
        <extensions>
          <ns3:TrackPointExtension>
            <ns3:hr>137</ns3:hr>
            <ns3:cad>50</ns3:cad>
          </ns3:TrackPointExtension>
        </extensions>
      </trkpt>
      <trkpt lat="45.25571971200406551361083984375" lon="-71.1884010024368762969970703125">
        <ele>631</ele>
        <time>2026-08-22T04:04:36.000Z</time>
        <extensions>
          <ns3:TrackPointExtension>
            <ns3:hr>137</ns3:hr>
            <ns3:cad>50</ns3:cad>
          </ns3:TrackPointExtension>
        </extensions>
      </trkpt>
      <trkpt lat="45.2557149343192577362060546875" lon="-71.18843042291700839996337890625">
        <ele>631.4000244140625</ele>
        <time>2026-08-22T04:04:37.000Z</time>
        <extensions>
          <ns3:TrackPointExtension>
            <ns3:hr>137</ns3:hr>
            <ns3:cad>50</ns3:cad>
          </ns3:TrackPointExtension>
        </extensions>
      </trkpt>
      <trkpt lat="45.25571535341441631317138671875" lon="-71.188453473150730133056640625">
        <ele>631.5999755859375</ele>
        <time>2026-08-22T04:04:38.000Z</time>
        <extensions>
          <ns3:TrackPointExtension>
            <ns3:hr>136</ns3:hr>
            <ns3:cad>50</ns3:cad>
          </ns3:TrackPointExtension>
        </extensions>
      </trkpt>
      <trkpt lat="45.255716107785701751708984375" lon="-71.188488006591796875">
        <ele>631.79998779296875</ele>
        <time>2026-08-22T04:04:39.000Z</time>
        <extensions>
          <ns3:TrackPointExtension>
            <ns3:hr>136</ns3:hr>
            <ns3:cad>50</ns3:cad>
          </ns3:TrackPointExtension>
        </extensions>
      </trkpt>
      <trkpt lat="45.2557169459760189056396484375" lon="-71.188514493405818939208984375">
        <ele>632.20001220703125</ele>
        <time>2026-08-22T04:04:40.000Z</time>
        <extensions>
          <ns3:TrackPointExtension>
            <ns3:hr>136</ns3:hr>
            <ns3:cad>50</ns3:cad>
          </ns3:TrackPointExtension>
        </extensions>
      </trkpt>
      <trkpt lat="45.25571300648152828216552734375" lon="-71.1885418184101581573486328125">
        <ele>632.4000244140625</ele>
        <time>2026-08-22T04:04:41.000Z</time>
        <extensions>
          <ns3:TrackPointExtension>
            <ns3:hr>135</ns3:hr>
            <ns3:cad>76</ns3:cad>
          </ns3:TrackPointExtension>
        </extensions>
      </trkpt>
      <trkpt lat="45.25571200065314769744873046875" lon="-71.1885729990899562835693359375">
        <ele>632.5999755859375</ele>
        <time>2026-08-22T04:04:42.000Z</time>
        <extensions>
          <ns3:TrackPointExtension>
            <ns3:hr>136</ns3:hr>
            <ns3:cad>76</ns3:cad>
          </ns3:TrackPointExtension>
        </extensions>
      </trkpt>
      <trkpt lat="45.25571367703378200531005859375" lon="-71.188600324094295501708984375">
        <ele>632.79998779296875</ele>
        <time>2026-08-22T04:04:43.000Z</time>
        <extensions>
          <ns3:TrackPointExtension>
            <ns3:hr>136</ns3:hr>
            <ns3:cad>76</ns3:cad>
          </ns3:TrackPointExtension>
        </extensions>
      </trkpt>
      <trkpt lat="45.2557129226624965667724609375" lon="-71.1886239610612392425537109375">
        <ele>632.79998779296875</ele>
        <time>2026-08-22T04:04:44.000Z</time>
        <extensions>
          <ns3:TrackPointExtension>
            <ns3:hr>136</ns3:hr>
            <ns3:cad>76</ns3:cad>
          </ns3:TrackPointExtension>
        </extensions>
      </trkpt>
      <trkpt lat="45.255711413919925689697265625" lon="-71.18864499963819980621337890625">
        <ele>633</ele>
        <time>2026-08-22T04:04:45.000Z</time>
        <extensions>
          <ns3:TrackPointExtension>
            <ns3:hr>137</ns3:hr>
            <ns3:cad>76</ns3:cad>
          </ns3:TrackPointExtension>
        </extensions>
      </trkpt>
      <trkpt lat="45.2557112462818622589111328125" lon="-71.18866503238677978515625">
        <ele>633</ele>
        <time>2026-08-22T04:04:46.000Z</time>
        <extensions>
          <ns3:TrackPointExtension>
            <ns3:hr>137</ns3:hr>
            <ns3:cad>76</ns3:cad>
          </ns3:TrackPointExtension>
        </extensions>
      </trkpt>
      <trkpt lat="45.25571267120540142059326171875" lon="-71.1886824667453765869140625">
        <ele>633.20001220703125</ele>
        <time>2026-08-22T04:04:47.000Z</time>
        <extensions>
          <ns3:TrackPointExtension>
            <ns3:hr>138</ns3:hr>
            <ns3:cad>57</ns3:cad>
          </ns3:TrackPointExtension>
        </extensions>
      </trkpt>
      <trkpt lat="45.2557152695953845977783203125" lon="-71.1887030862271785736083984375">
        <ele>633.20001220703125</ele>
        <time>2026-08-22T04:04:48.000Z</time>
        <extensions>
          <ns3:TrackPointExtension>
            <ns3:hr>138</ns3:hr>
            <ns3:cad>57</ns3:cad>
          </ns3:TrackPointExtension>
        </extensions>
      </trkpt>
      <trkpt lat="45.25571367703378200531005859375" lon="-71.18872605264186859130859375">
        <ele>633.4000244140625</ele>
        <time>2026-08-22T04:04:49.000Z</time>
        <extensions>
          <ns3:TrackPointExtension>
            <ns3:hr>138</ns3:hr>
            <ns3:cad>57</ns3:cad>
          </ns3:TrackPointExtension>
        </extensions>
      </trkpt>
      <trkpt lat="45.25571183301508426666259765625" lon="-71.18874608539044857025146484375">
        <ele>633.5999755859375</ele>
        <time>2026-08-22T04:04:50.000Z</time>
        <extensions>
          <ns3:TrackPointExtension>
            <ns3:hr>138</ns3:hr>
            <ns3:cad>57</ns3:cad>
          </ns3:TrackPointExtension>
        </extensions>
      </trkpt>
      <trkpt lat="45.25571250356733798980712890625" lon="-71.18876972235739231109619140625">
        <ele>633.5999755859375</ele>
        <time>2026-08-22T04:04:51.000Z</time>
        <extensions>
          <ns3:TrackPointExtension>
            <ns3:hr>139</ns3:hr>
            <ns3:cad>57</ns3:cad>
          </ns3:TrackPointExtension>
        </extensions>
      </trkpt>
      <trkpt lat="45.25571350939571857452392578125" lon="-71.18879252113401889801025390625">
        <ele>633.79998779296875</ele>
        <time>2026-08-22T04:04:52.000Z</time>
        <extensions>
          <ns3:TrackPointExtension>
            <ns3:hr>139</ns3:hr>
            <ns3:cad>55</ns3:cad>
          </ns3:TrackPointExtension>
        </extensions>
      </trkpt>
      <trkpt lat="45.2557152695953845977783203125" lon="-71.18881682865321636199951171875">
        <ele>634</ele>
        <time>2026-08-22T04:04:53.000Z</time>
        <extensions>
          <ns3:TrackPointExtension>
            <ns3:hr>139</ns3:hr>
            <ns3:cad>55</ns3:cad>
          </ns3:TrackPointExtension>
        </extensions>
      </trkpt>
      <trkpt lat="45.2557142637670040130615234375" lon="-71.188838370144367218017578125">
        <ele>634.20001220703125</ele>
        <time>2026-08-22T04:04:54.000Z</time>
        <extensions>
          <ns3:TrackPointExtension>
            <ns3:hr>139</ns3:hr>
            <ns3:cad>55</ns3:cad>
          </ns3:TrackPointExtension>
        </extensions>
      </trkpt>
      <trkpt lat="45.25571644306182861328125" lon="-71.18885940872132778167724609375">
        <ele>634.4000244140625</ele>
        <time>2026-08-22T04:04:55.000Z</time>
        <extensions>
          <ns3:TrackPointExtension>
            <ns3:hr>139</ns3:hr>
            <ns3:cad>53</ns3:cad>
          </ns3:TrackPointExtension>
        </extensions>
      </trkpt>
      <trkpt lat="45.2557176165282726287841796875" lon="-71.188875250518321990966796875">
        <ele>634.5999755859375</ele>
        <time>2026-08-22T04:04:56.000Z</time>
        <extensions>
          <ns3:TrackPointExtension>
            <ns3:hr>140</ns3:hr>
            <ns3:cad>53</ns3:cad>
          </ns3:TrackPointExtension>
        </extensions>
      </trkpt>
      <trkpt lat="45.25571904145181179046630859375" lon="-71.18889033794403076171875">
        <ele>634.79998779296875</ele>
        <time>2026-08-22T04:04:57.000Z</time>
        <extensions>
          <ns3:TrackPointExtension>
            <ns3:hr>140</ns3:hr>
            <ns3:cad>53</ns3:cad>
          </ns3:TrackPointExtension>
        </extensions>
      </trkpt>
      <trkpt lat="45.25572071783244609832763671875" lon="-71.18891456164419651031494140625">
        <ele>634.79998779296875</ele>
        <time>2026-08-22T04:04:58.000Z</time>
        <extensions>
          <ns3:TrackPointExtension>
            <ns3:hr>140</ns3:hr>
            <ns3:cad>53</ns3:cad>
          </ns3:TrackPointExtension>
        </extensions>
      </trkpt>
      <trkpt lat="45.25572516024112701416015625" lon="-71.18893819861114025115966796875">
        <ele>635</ele>
        <time>2026-08-22T04:04:59.000Z</time>
        <extensions>
          <ns3:TrackPointExtension>
            <ns3:hr>140</ns3:hr>
            <ns3:cad>53</ns3:cad>
          </ns3:TrackPointExtension>
        </extensions>
      </trkpt>
      <trkpt lat="45.25572926737368106842041015625" lon="-71.1889599077403545379638671875">
        <ele>635.20001220703125</ele>
        <time>2026-08-22T04:05:00.000Z</time>
        <extensions>
          <ns3:TrackPointExtension>
            <ns3:hr>140</ns3:hr>
            <ns3:cad>52</ns3:cad>
          </ns3:TrackPointExtension>
        </extensions>
      </trkpt>
      <trkpt lat="45.25572943501174449920654296875" lon="-71.1889796890318393707275390625">
        <ele>635.4000244140625</ele>
        <time>2026-08-22T04:05:01.000Z</time>
        <extensions>
          <ns3:TrackPointExtension>
            <ns3:hr>141</ns3:hr>
            <ns3:cad>52</ns3:cad>
          </ns3:TrackPointExtension>
        </extensions>
      </trkpt>
      <trkpt lat="45.25573161430656909942626953125" lon="-71.18899829685688018798828125">
        <ele>635.4000244140625</ele>
        <time>2026-08-22T04:05:02.000Z</time>
        <extensions>
          <ns3:TrackPointExtension>
            <ns3:hr>141</ns3:hr>
            <ns3:cad>52</ns3:cad>
          </ns3:TrackPointExtension>
        </extensions>
      </trkpt>
      <trkpt lat="45.25573295541107654571533203125" lon="-71.18901573121547698974609375">
        <ele>635.5999755859375</ele>
        <time>2026-08-22T04:05:03.000Z</time>
        <extensions>
          <ns3:TrackPointExtension>
            <ns3:hr>141</ns3:hr>
            <ns3:cad>52</ns3:cad>
          </ns3:TrackPointExtension>
        </extensions>
      </trkpt>
      <trkpt lat="45.25573714636266231536865234375" lon="-71.1890336684882640838623046875">
        <ele>635.79998779296875</ele>
        <time>2026-08-22T04:05:04.000Z</time>
        <extensions>
          <ns3:TrackPointExtension>
            <ns3:hr>141</ns3:hr>
            <ns3:cad>52</ns3:cad>
          </ns3:TrackPointExtension>
        </extensions>
      </trkpt>
      <trkpt lat="45.2557424269616603851318359375" lon="-71.18904925882816314697265625">
        <ele>636</ele>
        <time>2026-08-22T04:05:05.000Z</time>
        <extensions>
          <ns3:TrackPointExtension>
            <ns3:hr>141</ns3:hr>
            <ns3:cad>52</ns3:cad>
          </ns3:TrackPointExtension>
        </extensions>
      </trkpt>
      <trkpt lat="45.255746953189373016357421875" lon="-71.18906979449093341827392578125">
        <ele>636.20001220703125</ele>
        <time>2026-08-22T04:05:06.000Z</time>
        <extensions>
          <ns3:TrackPointExtension>
            <ns3:hr>140</ns3:hr>
            <ns3:cad>53</ns3:cad>
          </ns3:TrackPointExtension>
        </extensions>
      </trkpt>
      <trkpt lat="45.25575173087418079376220703125" lon="-71.18908521719276905059814453125">
        <ele>636.4000244140625</ele>
        <time>2026-08-22T04:05:07.000Z</time>
        <extensions>
          <ns3:TrackPointExtension>
            <ns3:hr>140</ns3:hr>
            <ns3:cad>53</ns3:cad>
          </ns3:TrackPointExtension>
        </extensions>
      </trkpt>
      <trkpt lat="45.2557571791112422943115234375" lon="-71.1890993826091289520263671875">
        <ele>636.5999755859375</ele>
        <time>2026-08-22T04:05:08.000Z</time>
        <extensions>
          <ns3:TrackPointExtension>
            <ns3:hr>140</ns3:hr>
            <ns3:cad>53</ns3:cad>
          </ns3:TrackPointExtension>
        </extensions>
      </trkpt>
      <trkpt lat="45.2557608671486377716064453125" lon="-71.18911623023450374603271484375">
        <ele>636.5999755859375</ele>
        <time>2026-08-22T04:05:09.000Z</time>
        <extensions>
          <ns3:TrackPointExtension>
            <ns3:hr>140</ns3:hr>
            <ns3:cad>51</ns3:cad>
          </ns3:TrackPointExtension>
        </extensions>
      </trkpt>
      <trkpt lat="45.2557642199099063873291015625" lon="-71.18912964127957820892333984375">
        <ele>636.79998779296875</ele>
        <time>2026-08-22T04:05:10.000Z</time>
        <extensions>
          <ns3:TrackPointExtension>
            <ns3:hr>140</ns3:hr>
            <ns3:cad>51</ns3:cad>
          </ns3:TrackPointExtension>
        </extensions>
      </trkpt>
      <trkpt lat="45.25576807558536529541015625" lon="-71.18914640508592128753662109375">
        <ele>637</ele>
        <time>2026-08-22T04:05:11.000Z</time>
        <extensions>
          <ns3:TrackPointExtension>
            <ns3:hr>140</ns3:hr>
            <ns3:cad>50</ns3:cad>
          </ns3:TrackPointExtension>
        </extensions>
      </trkpt>
      <trkpt lat="45.25577318854629993438720703125" lon="-71.18916333653032779693603515625">
        <ele>637.20001220703125</ele>
        <time>2026-08-22T04:05:12.000Z</time>
        <extensions>
          <ns3:TrackPointExtension>
            <ns3:hr>140</ns3:hr>
            <ns3:cad>50</ns3:cad>
          </ns3:TrackPointExtension>
        </extensions>
      </trkpt>
      <trkpt lat="45.25577553547918796539306640625" lon="-71.18917892687022686004638671875">
        <ele>637.4000244140625</ele>
        <time>2026-08-22T04:05:13.000Z</time>
        <extensions>
          <ns3:TrackPointExtension>
            <ns3:hr>140</ns3:hr>
            <ns3:cad>50</ns3:cad>
          </ns3:TrackPointExtension>
        </extensions>
      </trkpt>
      <trkpt lat="45.25578190572559833526611328125" lon="-71.1891952715814113616943359375">
        <ele>637.5999755859375</ele>
        <time>2026-08-22T04:05:14.000Z</time>
        <extensions>
          <ns3:TrackPointExtension>
            <ns3:hr>140</ns3:hr>
            <ns3:cad>52</ns3:cad>
          </ns3:TrackPointExtension>
        </extensions>
      </trkpt>
      <trkpt lat="45.25578559376299381256103515625" lon="-71.18920977227389812469482421875">
        <ele>637.5999755859375</ele>
        <time>2026-08-22T04:05:15.000Z</time>
        <extensions>
          <ns3:TrackPointExtension>
            <ns3:hr>140</ns3:hr>
            <ns3:cad>52</ns3:cad>
          </ns3:TrackPointExtension>
        </extensions>
      </trkpt>
      <trkpt lat="45.25578760541975498199462890625" lon="-71.18922351859509944915771484375">
        <ele>637.79998779296875</ele>
        <time>2026-08-22T04:05:16.000Z</time>
        <extensions>
          <ns3:TrackPointExtension>
            <ns3:hr>140</ns3:hr>
            <ns3:cad>52</ns3:cad>
          </ns3:TrackPointExtension>
        </extensions>
      </trkpt>
      <trkpt lat="45.25579464621841907501220703125" lon="-71.18924011476337909698486328125">
        <ele>638</ele>
        <time>2026-08-22T04:05:17.000Z</time>
        <extensions>
          <ns3:TrackPointExtension>
            <ns3:hr>141</ns3:hr>
            <ns3:cad>52</ns3:cad>
          </ns3:TrackPointExtension>
        </extensions>
      </trkpt>
      <trkpt lat="45.25579464621841907501220703125" lon="-71.18925570510327816009521484375">
        <ele>638.20001220703125</ele>
        <time>2026-08-22T04:05:18.000Z</time>
        <extensions>
          <ns3:TrackPointExtension>
            <ns3:hr>141</ns3:hr>
            <ns3:cad>50</ns3:cad>
          </ns3:TrackPointExtension>
        </extensions>
      </trkpt>
      <trkpt lat="45.255792550742626190185546875" lon="-71.18927481584250926971435546875">
        <ele>638.4000244140625</ele>
        <time>2026-08-22T04:05:19.000Z</time>
        <extensions>
          <ns3:TrackPointExtension>
            <ns3:hr>140</ns3:hr>
            <ns3:cad>50</ns3:cad>
          </ns3:TrackPointExtension>
        </extensions>
      </trkpt>
      <trkpt lat="45.25579833425581455230712890625" lon="-71.18929644115269184112548828125">
        <ele>638.5999755859375</ele>
        <time>2026-08-22T04:05:20.000Z</time>
        <extensions>
          <ns3:TrackPointExtension>
            <ns3:hr>140</ns3:hr>
            <ns3:cad>50</ns3:cad>
          </ns3:TrackPointExtension>
        </extensions>
      </trkpt>
      <trkpt lat="45.25579900480806827545166015625" lon="-71.18931890465319156646728515625">
        <ele>638.79998779296875</ele>
        <time>2026-08-22T04:05:21.000Z</time>
        <extensions>
          <ns3:TrackPointExtension>
            <ns3:hr>140</ns3:hr>
            <ns3:cad>51</ns3:cad>
          </ns3:TrackPointExtension>
        </extensions>
      </trkpt>
      <trkpt lat="45.25580168701708316802978515625" lon="-71.189337261021137237548828125">
        <ele>639</ele>
        <time>2026-08-22T04:05:22.000Z</time>
        <extensions>
          <ns3:TrackPointExtension>
            <ns3:hr>140</ns3:hr>
            <ns3:cad>51</ns3:cad>
          </ns3:TrackPointExtension>
        </extensions>
      </trkpt>
      <trkpt lat="45.25580705143511295318603515625" lon="-71.1893565393984317779541015625">
        <ele>639.20001220703125</ele>
        <time>2026-08-22T04:05:23.000Z</time>
        <extensions>
          <ns3:TrackPointExtension>
            <ns3:hr>139</ns3:hr>
            <ns3:cad>50</ns3:cad>
          </ns3:TrackPointExtension>
        </extensions>
      </trkpt>
      <trkpt lat="45.255812667310237884521484375" lon="-71.1893825232982635498046875">
        <ele>639.4000244140625</ele>
        <time>2026-08-22T04:05:24.000Z</time>
        <extensions>
          <ns3:TrackPointExtension>
            <ns3:hr>139</ns3:hr>
            <ns3:cad>50</ns3:cad>
          </ns3:TrackPointExtension>
        </extensions>
      </trkpt>
      <trkpt lat="45.25581367313861846923828125" lon="-71.18940155021846294403076171875">
        <ele>639.5999755859375</ele>
        <time>2026-08-22T04:05:25.000Z</time>
        <extensions>
          <ns3:TrackPointExtension>
            <ns3:hr>139</ns3:hr>
            <ns3:cad>49</ns3:cad>
          </ns3:TrackPointExtension>
        </extensions>
      </trkpt>
      <trkpt lat="45.2558181993663311004638671875" lon="-71.18941730819642543792724609375">
        <ele>639.79998779296875</ele>
        <time>2026-08-22T04:05:26.000Z</time>
        <extensions>
          <ns3:TrackPointExtension>
            <ns3:hr>139</ns3:hr>
            <ns3:cad>49</ns3:cad>
          </ns3:TrackPointExtension>
        </extensions>
      </trkpt>
      <trkpt lat="45.25582306087017059326171875" lon="-71.1894309706985950469970703125">
        <ele>639.79998779296875</ele>
        <time>2026-08-22T04:05:27.000Z</time>
        <extensions>
          <ns3:TrackPointExtension>
            <ns3:hr>138</ns3:hr>
            <ns3:cad>49</ns3:cad>
          </ns3:TrackPointExtension>
        </extensions>
      </trkpt>
      <trkpt lat="45.25582230649888515472412109375" lon="-71.18944144807755947113037109375">
        <ele>640</ele>
        <time>2026-08-22T04:05:28.000Z</time>
        <extensions>
          <ns3:TrackPointExtension>
            <ns3:hr>139</ns3:hr>
            <ns3:cad>50</ns3:cad>
          </ns3:TrackPointExtension>
        </extensions>
      </trkpt>
      <trkpt lat="45.2558205462992191314697265625" lon="-71.18946273811161518096923828125">
        <ele>640.20001220703125</ele>
        <time>2026-08-22T04:05:29.000Z</time>
        <extensions>
          <ns3:TrackPointExtension>
            <ns3:hr>139</ns3:hr>
            <ns3:cad>50</ns3:cad>
          </ns3:TrackPointExtension>
        </extensions>
      </trkpt>
      <trkpt lat="45.25582197122275829315185546875" lon="-71.18948017247021198272705078125">
        <ele>640.4000244140625</ele>
        <time>2026-08-22T04:05:30.000Z</time>
        <extensions>
          <ns3:TrackPointExtension>
            <ns3:hr>138</ns3:hr>
            <ns3:cad>49</ns3:cad>
          </ns3:TrackPointExtension>
        </extensions>
      </trkpt>
      <trkpt lat="45.2558218874037265777587890625" lon="-71.18949986994266510009765625">
        <ele>640.5999755859375</ele>
        <time>2026-08-22T04:05:31.000Z</time>
        <extensions>
          <ns3:TrackPointExtension>
            <ns3:hr>138</ns3:hr>
            <ns3:cad>48</ns3:cad>
          </ns3:TrackPointExtension>
        </extensions>
      </trkpt>
      <trkpt lat="45.2558252401649951934814453125" lon="-71.18951604701578617095947265625">
        <ele>640.79998779296875</ele>
        <time>2026-08-22T04:05:32.000Z</time>
        <extensions>
          <ns3:TrackPointExtension>
            <ns3:hr>137</ns3:hr>
            <ns3:cad>48</ns3:cad>
          </ns3:TrackPointExtension>
        </extensions>
      </trkpt>
      <trkpt lat="45.25582842528820037841796875" lon="-71.18953079916536808013916015625">
        <ele>641</ele>
        <time>2026-08-22T04:05:33.000Z</time>
        <extensions>
          <ns3:TrackPointExtension>
            <ns3:hr>137</ns3:hr>
            <ns3:cad>47</ns3:cad>
          </ns3:TrackPointExtension>
        </extensions>
      </trkpt>
      <trkpt lat="45.25583253242075443267822265625" lon="-71.1895456351339817047119140625">
        <ele>641.20001220703125</ele>
        <time>2026-08-22T04:05:34.000Z</time>
        <extensions>
          <ns3:TrackPointExtension>
            <ns3:hr>137</ns3:hr>
            <ns3:cad>47</ns3:cad>
          </ns3:TrackPointExtension>
        </extensions>
      </trkpt>
      <trkpt lat="45.25583923794329166412353515625" lon="-71.189559213817119598388671875">
        <ele>641.4000244140625</ele>
        <time>2026-08-22T04:05:35.000Z</time>
        <extensions>
          <ns3:TrackPointExtension>
            <ns3:hr>137</ns3:hr>
            <ns3:cad>47</ns3:cad>
          </ns3:TrackPointExtension>
        </extensions>
      </trkpt>
      <trkpt lat="45.25584627874195575714111328125" lon="-71.18957404978573322296142578125">
        <ele>641.5999755859375</ele>
        <time>2026-08-22T04:05:36.000Z</time>
        <extensions>
          <ns3:TrackPointExtension>
            <ns3:hr>137</ns3:hr>
            <ns3:cad>47</ns3:cad>
          </ns3:TrackPointExtension>
        </extensions>
      </trkpt>
      <trkpt lat="45.25585298426449298858642578125" lon="-71.18958947248756885528564453125">
        <ele>641.79998779296875</ele>
        <time>2026-08-22T04:05:37.000Z</time>
        <extensions>
          <ns3:TrackPointExtension>
            <ns3:hr>137</ns3:hr>
            <ns3:cad>48</ns3:cad>
          </ns3:TrackPointExtension>
        </extensions>
      </trkpt>
      <trkpt lat="45.2558587677776813507080078125" lon="-71.18959902785718441009521484375">
        <ele>642</ele>
        <time>2026-08-22T04:05:38.000Z</time>
        <extensions>
          <ns3:TrackPointExtension>
            <ns3:hr>138</ns3:hr>
            <ns3:cad>48</ns3:cad>
          </ns3:TrackPointExtension>
        </extensions>
      </trkpt>
      <trkpt lat="45.2558694966137409210205078125" lon="-71.18961310945451259613037109375">
        <ele>642.20001220703125</ele>
        <time>2026-08-22T04:05:39.000Z</time>
        <extensions>
          <ns3:TrackPointExtension>
            <ns3:hr>140</ns3:hr>
            <ns3:cad>48</ns3:cad>
          </ns3:TrackPointExtension>
        </extensions>
      </trkpt>
      <trkpt lat="45.25587460957467555999755859375" lon="-71.18963188491761684417724609375">
        <ele>642.4000244140625</ele>
        <time>2026-08-22T04:05:40.000Z</time>
        <extensions>
          <ns3:TrackPointExtension>
            <ns3:hr>142</ns3:hr>
            <ns3:cad>48</ns3:cad>
          </ns3:TrackPointExtension>
        </extensions>
      </trkpt>
      <trkpt lat="45.2558813989162445068359375" lon="-71.18964831344783306121826171875">
        <ele>642.5999755859375</ele>
        <time>2026-08-22T04:05:41.000Z</time>
        <extensions>
          <ns3:TrackPointExtension>
            <ns3:hr>142</ns3:hr>
            <ns3:cad>48</ns3:cad>
          </ns3:TrackPointExtension>
        </extensions>
      </trkpt>
      <trkpt lat="45.25588743388652801513671875" lon="-71.18965988047420978546142578125">
        <ele>642.79998779296875</ele>
        <time>2026-08-22T04:05:42.000Z</time>
        <extensions>
          <ns3:TrackPointExtension>
            <ns3:hr>141</ns3:hr>
            <ns3:cad>48</ns3:cad>
          </ns3:TrackPointExtension>
        </extensions>
      </trkpt>
      <trkpt lat="45.25589858181774616241455078125" lon="-71.1896666698157787322998046875">
        <ele>643</ele>
        <time>2026-08-22T04:05:43.000Z</time>
        <extensions>
          <ns3:TrackPointExtension>
            <ns3:hr>141</ns3:hr>
            <ns3:cad>48</ns3:cad>
          </ns3:TrackPointExtension>
        </extensions>
      </trkpt>
      <trkpt lat="45.255907215178012847900390625" lon="-71.18967547081410884857177734375">
        <ele>643.20001220703125</ele>
        <time>2026-08-22T04:05:44.000Z</time>
        <extensions>
          <ns3:TrackPointExtension>
            <ns3:hr>140</ns3:hr>
            <ns3:cad>48</ns3:cad>
          </ns3:TrackPointExtension>
        </extensions>
      </trkpt>
      <trkpt lat="45.25591559708118438720703125" lon="-71.1896894685924053192138671875">
        <ele>643.4000244140625</ele>
        <time>2026-08-22T04:05:45.000Z</time>
        <extensions>
          <ns3:TrackPointExtension>
            <ns3:hr>140</ns3:hr>
            <ns3:cad>49</ns3:cad>
          </ns3:TrackPointExtension>
        </extensions>
      </trkpt>
      <trkpt lat="45.25592456571757793426513671875" lon="-71.1897069029510021209716796875">
        <ele>643.5999755859375</ele>
        <time>2026-08-22T04:05:46.000Z</time>
        <extensions>
          <ns3:TrackPointExtension>
            <ns3:hr>140</ns3:hr>
            <ns3:cad>49</ns3:cad>
          </ns3:TrackPointExtension>
        </extensions>
      </trkpt>
      <trkpt lat="45.25592959485948085784912109375" lon="-71.18971838615834712982177734375">
        <ele>643.79998779296875</ele>
        <time>2026-08-22T04:05:47.000Z</time>
        <extensions>
          <ns3:TrackPointExtension>
            <ns3:hr>140</ns3:hr>
            <ns3:cad>50</ns3:cad>
          </ns3:TrackPointExtension>
        </extensions>
      </trkpt>
      <trkpt lat="45.25593412108719348907470703125" lon="-71.18972743861377239227294921875">
        <ele>644</ele>
        <time>2026-08-22T04:05:48.000Z</time>
        <extensions>
          <ns3:TrackPointExtension>
            <ns3:hr>140</ns3:hr>
            <ns3:cad>50</ns3:cad>
          </ns3:TrackPointExtension>
        </extensions>
      </trkpt>
      <trkpt lat="45.25593663565814495086669921875" lon="-71.1897400952875614166259765625">
        <ele>644.20001220703125</ele>
        <time>2026-08-22T04:05:49.000Z</time>
        <extensions>
          <ns3:TrackPointExtension>
            <ns3:hr>140</ns3:hr>
            <ns3:cad>50</ns3:cad>
          </ns3:TrackPointExtension>
        </extensions>
      </trkpt>
      <trkpt lat="45.2559419162571430206298828125" lon="-71.1897521652281284332275390625">
        <ele>644.4000244140625</ele>
        <time>2026-08-22T04:05:50.000Z</time>
        <extensions>
          <ns3:TrackPointExtension>
            <ns3:hr>140</ns3:hr>
            <ns3:cad>51</ns3:cad>
          </ns3:TrackPointExtension>
        </extensions>
      </trkpt>
      <trkpt lat="45.2559459395706653594970703125" lon="-71.18976901285350322723388671875">
        <ele>644.5999755859375</ele>
        <time>2026-08-22T04:05:51.000Z</time>
        <extensions>
          <ns3:TrackPointExtension>
            <ns3:hr>140</ns3:hr>
            <ns3:cad>51</ns3:cad>
          </ns3:TrackPointExtension>
        </extensions>
      </trkpt>
      <trkpt lat="45.25594912469387054443359375" lon="-71.1897875368595123291015625">
        <ele>644.79998779296875</ele>
        <time>2026-08-22T04:05:52.000Z</time>
        <extensions>
          <ns3:TrackPointExtension>
            <ns3:hr>140</ns3:hr>
            <ns3:cad>50</ns3:cad>
          </ns3:TrackPointExtension>
        </extensions>
      </trkpt>
      <trkpt lat="45.25594719685614109039306640625" lon="-71.18980136699974536895751953125">
        <ele>645</ele>
        <time>2026-08-22T04:05:53.000Z</time>
        <extensions>
          <ns3:TrackPointExtension>
            <ns3:hr>140</ns3:hr>
            <ns3:cad>50</ns3:cad>
          </ns3:TrackPointExtension>
        </extensions>
      </trkpt>
      <trkpt lat="45.255947113037109375" lon="-71.18981427513062953948974609375">
        <ele>645.4000244140625</ele>
        <time>2026-08-22T04:05:54.000Z</time>
        <extensions>
          <ns3:TrackPointExtension>
            <ns3:hr>141</ns3:hr>
            <ns3:cad>49</ns3:cad>
          </ns3:TrackPointExtension>
        </extensions>
      </trkpt>
      <trkpt lat="45.25595054961740970611572265625" lon="-71.18982936255633831024169921875">
        <ele>645.5999755859375</ele>
        <time>2026-08-22T04:05:55.000Z</time>
        <extensions>
          <ns3:TrackPointExtension>
            <ns3:hr>141</ns3:hr>
            <ns3:cad>49</ns3:cad>
          </ns3:TrackPointExtension>
        </extensions>
      </trkpt>
      <trkpt lat="45.2559536509215831756591796875" lon="-71.18984512053430080413818359375">
        <ele>645.79998779296875</ele>
        <time>2026-08-22T04:05:56.000Z</time>
        <extensions>
          <ns3:TrackPointExtension>
            <ns3:hr>142</ns3:hr>
            <ns3:cad>49</ns3:cad>
          </ns3:TrackPointExtension>
        </extensions>
      </trkpt>
      <trkpt lat="45.25595624931156635284423828125" lon="-71.18985819630324840545654296875">
        <ele>646</ele>
        <time>2026-08-22T04:05:57.000Z</time>
        <extensions>
          <ns3:TrackPointExtension>
            <ns3:hr>142</ns3:hr>
            <ns3:cad>49</ns3:cad>
          </ns3:TrackPointExtension>
        </extensions>
      </trkpt>
      <trkpt lat="45.2559549920260906219482421875" lon="-71.18986557237803936004638671875">
        <ele>646</ele>
        <time>2026-08-22T04:05:58.000Z</time>
        <extensions>
          <ns3:TrackPointExtension>
            <ns3:hr>142</ns3:hr>
            <ns3:cad>49</ns3:cad>
          </ns3:TrackPointExtension>
        </extensions>
      </trkpt>
      <trkpt lat="45.25595608167350292205810546875" lon="-71.18987361900508403778076171875">
        <ele>646.20001220703125</ele>
        <time>2026-08-22T04:05:59.000Z</time>
        <extensions>
          <ns3:TrackPointExtension>
            <ns3:hr>143</ns3:hr>
            <ns3:cad>50</ns3:cad>
          </ns3:TrackPointExtension>
        </extensions>
      </trkpt>
      <trkpt lat="45.25596094317734241485595703125" lon="-71.1898852698504924774169921875">
        <ele>646.4000244140625</ele>
        <time>2026-08-22T04:06:00.000Z</time>
        <extensions>
          <ns3:TrackPointExtension>
            <ns3:hr>143</ns3:hr>
            <ns3:cad>50</ns3:cad>
          </ns3:TrackPointExtension>
        </extensions>
      </trkpt>
      <trkpt lat="45.255964212119579315185546875" lon="-71.18989557959139347076416015625">
        <ele>646.5999755859375</ele>
        <time>2026-08-22T04:06:01.000Z</time>
        <extensions>
          <ns3:TrackPointExtension>
            <ns3:hr>143</ns3:hr>
            <ns3:cad>47</ns3:cad>
          </ns3:TrackPointExtension>
        </extensions>
      </trkpt>
      <trkpt lat="45.25597016327083110809326171875" lon="-71.189902536571025848388671875">
        <ele>646.79998779296875</ele>
        <time>2026-08-22T04:06:02.000Z</time>
        <extensions>
          <ns3:TrackPointExtension>
            <ns3:hr>143</ns3:hr>
            <ns3:cad>45</ns3:cad>
          </ns3:TrackPointExtension>
        </extensions>
      </trkpt>
      <trkpt lat="45.255978293716907501220703125" lon="-71.1899141035974025726318359375">
        <ele>647</ele>
        <time>2026-08-22T04:06:03.000Z</time>
        <extensions>
          <ns3:TrackPointExtension>
            <ns3:hr>143</ns3:hr>
            <ns3:cad>44</ns3:cad>
          </ns3:TrackPointExtension>
        </extensions>
      </trkpt>
      <trkpt lat="45.2559806406497955322265625" lon="-71.18992575444281101226806640625">
        <ele>647.20001220703125</ele>
        <time>2026-08-22T04:06:04.000Z</time>
        <extensions>
          <ns3:TrackPointExtension>
            <ns3:hr>143</ns3:hr>
            <ns3:cad>44</ns3:cad>
          </ns3:TrackPointExtension>
        </extensions>
      </trkpt>
      <trkpt lat="45.255993045866489410400390625" lon="-71.18993346579372882843017578125">
        <ele>647.4000244140625</ele>
        <time>2026-08-22T04:06:05.000Z</time>
        <extensions>
          <ns3:TrackPointExtension>
            <ns3:hr>143</ns3:hr>
            <ns3:cad>44</ns3:cad>
          </ns3:TrackPointExtension>
        </extensions>
      </trkpt>
      <trkpt lat="45.25600218214094638824462890625" lon="-71.18994737975299358367919921875">
        <ele>647.5999755859375</ele>
        <time>2026-08-22T04:06:06.000Z</time>
        <extensions>
          <ns3:TrackPointExtension>
            <ns3:hr>142</ns3:hr>
            <ns3:cad>47</ns3:cad>
          </ns3:TrackPointExtension>
        </extensions>
      </trkpt>
      <trkpt lat="45.25600637309253215789794921875" lon="-71.18996129371225833892822265625">
        <ele>647.5999755859375</ele>
        <time>2026-08-22T04:06:07.000Z</time>
        <extensions>
          <ns3:TrackPointExtension>
            <ns3:hr>142</ns3:hr>
            <ns3:cad>47</ns3:cad>
          </ns3:TrackPointExtension>
        </extensions>
      </trkpt>
      <trkpt lat="45.25601257570087909698486328125" lon="-71.1899752914905548095703125">
        <ele>647.79998779296875</ele>
        <time>2026-08-22T04:06:08.000Z</time>
        <extensions>
          <ns3:TrackPointExtension>
            <ns3:hr>142</ns3:hr>
            <ns3:cad>43</ns3:cad>
          </ns3:TrackPointExtension>
        </extensions>
      </trkpt>
      <trkpt lat="45.2560210414230823516845703125" lon="-71.18999339640140533447265625">
        <ele>648</ele>
        <time>2026-08-22T04:06:09.000Z</time>
        <extensions>
          <ns3:TrackPointExtension>
            <ns3:hr>142</ns3:hr>
            <ns3:cad>43</ns3:cad>
          </ns3:TrackPointExtension>
        </extensions>
      </trkpt>
      <trkpt lat="45.2560304291546344757080078125" lon="-71.19000940583646297454833984375">
        <ele>648.20001220703125</ele>
        <time>2026-08-22T04:06:10.000Z</time>
        <extensions>
          <ns3:TrackPointExtension>
            <ns3:hr>142</ns3:hr>
            <ns3:cad>43</ns3:cad>
          </ns3:TrackPointExtension>
        </extensions>
      </trkpt>
      <trkpt lat="45.25603554211556911468505859375" lon="-71.1900220625102519989013671875">
        <ele>648.4000244140625</ele>
        <time>2026-08-22T04:06:11.000Z</time>
        <extensions>
          <ns3:TrackPointExtension>
            <ns3:hr>143</ns3:hr>
            <ns3:cad>47</ns3:cad>
          </ns3:TrackPointExtension>
        </extensions>
      </trkpt>
      <trkpt lat="45.25604560039937496185302734375" lon="-71.1900321207940578460693359375">
        <ele>648.5999755859375</ele>
        <time>2026-08-22T04:06:12.000Z</time>
        <extensions>
          <ns3:TrackPointExtension>
            <ns3:hr>142</ns3:hr>
            <ns3:cad>47</ns3:cad>
          </ns3:TrackPointExtension>
        </extensions>
      </trkpt>
      <trkpt lat="45.256052054464817047119140625" lon="-71.1900351382791996002197265625">
        <ele>648.79998779296875</ele>
        <time>2026-08-22T04:06:13.000Z</time>
        <extensions>
          <ns3:TrackPointExtension>
            <ns3:hr>142</ns3:hr>
            <ns3:cad>47</ns3:cad>
          </ns3:TrackPointExtension>
        </extensions>
      </trkpt>
      <trkpt lat="45.25606504641473293304443359375" lon="-71.19004167616367340087890625">
        <ele>649</ele>
        <time>2026-08-22T04:06:14.000Z</time>
        <extensions>
          <ns3:TrackPointExtension>
            <ns3:hr>142</ns3:hr>
            <ns3:cad>47</ns3:cad>
          </ns3:TrackPointExtension>
        </extensions>
      </trkpt>
      <trkpt lat="45.256087593734264373779296875" lon="-71.190053410828113555908203125">
        <ele>649.20001220703125</ele>
        <time>2026-08-22T04:06:15.000Z</time>
        <extensions>
          <ns3:TrackPointExtension>
            <ns3:hr>142</ns3:hr>
            <ns3:cad>46</ns3:cad>
          </ns3:TrackPointExtension>
        </extensions>
      </trkpt>
      <trkpt lat="45.25609857402741909027099609375" lon="-71.19006321765482425689697265625">
        <ele>649.4000244140625</ele>
        <time>2026-08-22T04:06:16.000Z</time>
        <extensions>
          <ns3:TrackPointExtension>
            <ns3:hr>142</ns3:hr>
            <ns3:cad>46</ns3:cad>
          </ns3:TrackPointExtension>
        </extensions>
      </trkpt>
      <trkpt lat="45.2561135776340961456298828125" lon="-71.19007746689021587371826171875">
        <ele>649.4000244140625</ele>
        <time>2026-08-22T04:06:17.000Z</time>
        <extensions>
          <ns3:TrackPointExtension>
            <ns3:hr>141</ns3:hr>
            <ns3:cad>46</ns3:cad>
          </ns3:TrackPointExtension>
        </extensions>
      </trkpt>
      <trkpt lat="45.25612673722207546234130859375" lon="-71.19008517824113368988037109375">
        <ele>649.5999755859375</ele>
        <time>2026-08-22T04:06:18.000Z</time>
        <extensions>
          <ns3:TrackPointExtension>
            <ns3:hr>142</ns3:hr>
            <ns3:cad>47</ns3:cad>
          </ns3:TrackPointExtension>
        </extensions>
      </trkpt>
      <trkpt lat="45.25613780133426189422607421875" lon="-71.1900928057730197906494140625">
        <ele>649.79998779296875</ele>
        <time>2026-08-22T04:06:19.000Z</time>
        <extensions>
          <ns3:TrackPointExtension>
            <ns3:hr>141</ns3:hr>
            <ns3:cad>47</ns3:cad>
          </ns3:TrackPointExtension>
        </extensions>
      </trkpt>
      <trkpt lat="45.2561484463512897491455078125" lon="-71.190099678933620452880859375">
        <ele>649.79998779296875</ele>
        <time>2026-08-22T04:06:20.000Z</time>
        <extensions>
          <ns3:TrackPointExtension>
            <ns3:hr>141</ns3:hr>
            <ns3:cad>47</ns3:cad>
          </ns3:TrackPointExtension>
        </extensions>
      </trkpt>
      <trkpt lat="45.256160013377666473388671875" lon="-71.19010412134230136871337890625">
        <ele>650</ele>
        <time>2026-08-22T04:06:21.000Z</time>
        <extensions>
          <ns3:TrackPointExtension>
            <ns3:hr>141</ns3:hr>
            <ns3:cad>47</ns3:cad>
          </ns3:TrackPointExtension>
        </extensions>
      </trkpt>
      <trkpt lat="45.2561735920608043670654296875" lon="-71.19010227732360363006591796875">
        <ele>650.20001220703125</ele>
        <time>2026-08-22T04:06:22.000Z</time>
        <extensions>
          <ns3:TrackPointExtension>
            <ns3:hr>141</ns3:hr>
            <ns3:cad>51</ns3:cad>
          </ns3:TrackPointExtension>
        </extensions>
      </trkpt>
      <trkpt lat="45.2561859972774982452392578125" lon="-71.19010202586650848388671875">
        <ele>650.20001220703125</ele>
        <time>2026-08-22T04:06:23.000Z</time>
        <extensions>
          <ns3:TrackPointExtension>
            <ns3:hr>141</ns3:hr>
            <ns3:cad>51</ns3:cad>
          </ns3:TrackPointExtension>
        </extensions>
      </trkpt>
      <trkpt lat="45.25619915686547756195068359375" lon="-71.1901001818478107452392578125">
        <ele>650.4000244140625</ele>
        <time>2026-08-22T04:06:24.000Z</time>
        <extensions>
          <ns3:TrackPointExtension>
            <ns3:hr>142</ns3:hr>
            <ns3:cad>51</ns3:cad>
          </ns3:TrackPointExtension>
        </extensions>
      </trkpt>
      <trkpt lat="45.256212316453456878662109375" lon="-71.190099678933620452880859375">
        <ele>650.5999755859375</ele>
        <time>2026-08-22T04:06:25.000Z</time>
        <extensions>
          <ns3:TrackPointExtension>
            <ns3:hr>142</ns3:hr>
            <ns3:cad>51</ns3:cad>
          </ns3:TrackPointExtension>
        </extensions>
      </trkpt>
      <trkpt lat="45.25622581131756305694580078125" lon="-71.1901001818478107452392578125">
        <ele>650.5999755859375</ele>
        <time>2026-08-22T04:06:26.000Z</time>
        <extensions>
          <ns3:TrackPointExtension>
            <ns3:hr>142</ns3:hr>
            <ns3:cad>51</ns3:cad>
          </ns3:TrackPointExtension>
        </extensions>
      </trkpt>
      <trkpt lat="45.25623972527682781219482421875" lon="-71.19010202586650848388671875">
        <ele>650.79998779296875</ele>
        <time>2026-08-22T04:06:27.000Z</time>
        <extensions>
          <ns3:TrackPointExtension>
            <ns3:hr>142</ns3:hr>
            <ns3:cad>51</ns3:cad>
          </ns3:TrackPointExtension>
        </extensions>
      </trkpt>
      <trkpt lat="45.25624995119869709014892578125" lon="-71.19010780937969684600830078125">
        <ele>650.79998779296875</ele>
        <time>2026-08-22T04:06:28.000Z</time>
        <extensions>
          <ns3:TrackPointExtension>
            <ns3:hr>142</ns3:hr>
            <ns3:cad>51</ns3:cad>
          </ns3:TrackPointExtension>
        </extensions>
      </trkpt>
      <trkpt lat="45.256265290081501007080078125" lon="-71.19011543691158294677734375">
        <ele>651</ele>
        <time>2026-08-22T04:06:29.000Z</time>
        <extensions>
          <ns3:TrackPointExtension>
            <ns3:hr>143</ns3:hr>
            <ns3:cad>51</ns3:cad>
          </ns3:TrackPointExtension>
        </extensions>
      </trkpt>
      <trkpt lat="45.25627727620303630828857421875" lon="-71.1901199631392955780029296875">
        <ele>651</ele>
        <time>2026-08-22T04:06:30.000Z</time>
        <extensions>
          <ns3:TrackPointExtension>
            <ns3:hr>142</ns3:hr>
            <ns3:cad>50</ns3:cad>
          </ns3:TrackPointExtension>
        </extensions>
      </trkpt>
      <trkpt lat="45.25628968141973018646240234375" lon="-71.19012474082410335540771484375">
        <ele>651.20001220703125</ele>
        <time>2026-08-22T04:06:31.000Z</time>
        <extensions>
          <ns3:TrackPointExtension>
            <ns3:hr>142</ns3:hr>
            <ns3:cad>50</ns3:cad>
          </ns3:TrackPointExtension>
        </extensions>
      </trkpt>
      <trkpt lat="45.2563025057315826416015625" lon="-71.190127842128276824951171875">
        <ele>651.4000244140625</ele>
        <time>2026-08-22T04:06:32.000Z</time>
        <extensions>
          <ns3:TrackPointExtension>
            <ns3:hr>142</ns3:hr>
            <ns3:cad>50</ns3:cad>
          </ns3:TrackPointExtension>
        </extensions>
      </trkpt>
      <trkpt lat="45.2563150785863399505615234375" lon="-71.19013111107051372528076171875">
        <ele>651.4000244140625</ele>
        <time>2026-08-22T04:06:33.000Z</time>
        <extensions>
          <ns3:TrackPointExtension>
            <ns3:hr>142</ns3:hr>
            <ns3:cad>50</ns3:cad>
          </ns3:TrackPointExtension>
        </extensions>
      </trkpt>
      <trkpt lat="45.25632924400269985198974609375" lon="-71.1901343800127506256103515625">
        <ele>651.4000244140625</ele>
        <time>2026-08-22T04:06:34.000Z</time>
        <extensions>
          <ns3:TrackPointExtension>
            <ns3:hr>141</ns3:hr>
            <ns3:cad>51</ns3:cad>
          </ns3:TrackPointExtension>
        </extensions>
      </trkpt>
      <trkpt lat="45.25634198449552059173583984375" lon="-71.1901362240314483642578125">
        <ele>651.5999755859375</ele>
        <time>2026-08-22T04:06:35.000Z</time>
        <extensions>
          <ns3:TrackPointExtension>
            <ns3:hr>140</ns3:hr>
            <ns3:cad>51</ns3:cad>
          </ns3:TrackPointExtension>
        </extensions>
      </trkpt>
      <trkpt lat="45.2563553117215633392333984375" lon="-71.19013714604079723358154296875">
        <ele>651.5999755859375</ele>
        <time>2026-08-22T04:06:36.000Z</time>
        <extensions>
          <ns3:TrackPointExtension>
            <ns3:hr>140</ns3:hr>
            <ns3:cad>51</ns3:cad>
          </ns3:TrackPointExtension>
        </extensions>
      </trkpt>
      <trkpt lat="45.25636914186179637908935546875" lon="-71.19013966061174869537353515625">
        <ele>651.79998779296875</ele>
        <time>2026-08-22T04:06:37.000Z</time>
        <extensions>
          <ns3:TrackPointExtension>
            <ns3:hr>140</ns3:hr>
            <ns3:cad>51</ns3:cad>
          </ns3:TrackPointExtension>
        </extensions>
      </trkpt>
      <trkpt lat="45.25638121180236339569091796875" lon="-71.190141923725605010986328125">
        <ele>651.79998779296875</ele>
        <time>2026-08-22T04:06:38.000Z</time>
        <extensions>
          <ns3:TrackPointExtension>
            <ns3:hr>139</ns3:hr>
            <ns3:cad>51</ns3:cad>
          </ns3:TrackPointExtension>
        </extensions>
      </trkpt>
      <trkpt lat="45.25639344938099384307861328125" lon="-71.19014762341976165771484375">
        <ele>652</ele>
        <time>2026-08-22T04:06:39.000Z</time>
        <extensions>
          <ns3:TrackPointExtension>
            <ns3:hr>139</ns3:hr>
            <ns3:cad>51</ns3:cad>
          </ns3:TrackPointExtension>
        </extensions>
      </trkpt>
      <trkpt lat="45.256404764950275421142578125" lon="-71.19015072472393512725830078125">
        <ele>652</ele>
        <time>2026-08-22T04:06:40.000Z</time>
        <extensions>
          <ns3:TrackPointExtension>
            <ns3:hr>139</ns3:hr>
            <ns3:cad>52</ns3:cad>
          </ns3:TrackPointExtension>
        </extensions>
      </trkpt>
      <trkpt lat="45.25641675107181072235107421875" lon="-71.190153658390045166015625">
        <ele>652.20001220703125</ele>
        <time>2026-08-22T04:06:41.000Z</time>
        <extensions>
          <ns3:TrackPointExtension>
            <ns3:hr>139</ns3:hr>
            <ns3:cad>52</ns3:cad>
          </ns3:TrackPointExtension>
        </extensions>
      </trkpt>
      <trkpt lat="45.25642965920269489288330078125" lon="-71.19015835225582122802734375">
        <ele>652.20001220703125</ele>
        <time>2026-08-22T04:06:42.000Z</time>
        <extensions>
          <ns3:TrackPointExtension>
            <ns3:hr>138</ns3:hr>
            <ns3:cad>52</ns3:cad>
          </ns3:TrackPointExtension>
        </extensions>
      </trkpt>
      <trkpt lat="45.25644256733357906341552734375" lon="-71.19016564451158046722412109375">
        <ele>652.4000244140625</ele>
        <time>2026-08-22T04:06:43.000Z</time>
        <extensions>
          <ns3:TrackPointExtension>
            <ns3:hr>138</ns3:hr>
            <ns3:cad>52</ns3:cad>
          </ns3:TrackPointExtension>
        </extensions>
      </trkpt>
      <trkpt lat="45.25645514018833637237548828125" lon="-71.19017184711992740631103515625">
        <ele>652.4000244140625</ele>
        <time>2026-08-22T04:06:44.000Z</time>
        <extensions>
          <ns3:TrackPointExtension>
            <ns3:hr>138</ns3:hr>
            <ns3:cad>52</ns3:cad>
          </ns3:TrackPointExtension>
        </extensions>
      </trkpt>
      <trkpt lat="45.25646503083407878875732421875" lon="-71.19018358178436756134033203125">
        <ele>652.5999755859375</ele>
        <time>2026-08-22T04:06:45.000Z</time>
        <extensions>
          <ns3:TrackPointExtension>
            <ns3:hr>138</ns3:hr>
            <ns3:cad>52</ns3:cad>
          </ns3:TrackPointExtension>
        </extensions>
      </trkpt>
      <trkpt lat="45.25647257454693317413330078125" lon="-71.1901923827826976776123046875">
        <ele>652.79998779296875</ele>
        <time>2026-08-22T04:06:46.000Z</time>
        <extensions>
          <ns3:TrackPointExtension>
            <ns3:hr>138</ns3:hr>
            <ns3:cad>53</ns3:cad>
          </ns3:TrackPointExtension>
        </extensions>
      </trkpt>
      <trkpt lat="45.2564830519258975982666015625" lon="-71.19020135141909122467041015625">
        <ele>653</ele>
        <time>2026-08-22T04:06:47.000Z</time>
        <extensions>
          <ns3:TrackPointExtension>
            <ns3:hr>138</ns3:hr>
            <ns3:cad>53</ns3:cad>
          </ns3:TrackPointExtension>
        </extensions>
      </trkpt>
      <trkpt lat="45.25649302639067173004150390625" lon="-71.19021040387451648712158203125">
        <ele>653</ele>
        <time>2026-08-22T04:06:48.000Z</time>
        <extensions>
          <ns3:TrackPointExtension>
            <ns3:hr>138</ns3:hr>
            <ns3:cad>53</ns3:cad>
          </ns3:TrackPointExtension>
        </extensions>
      </trkpt>
      <trkpt lat="45.25650576688349246978759765625" lon="-71.19022549130022525787353515625">
        <ele>653.20001220703125</ele>
        <time>2026-08-22T04:06:49.000Z</time>
        <extensions>
          <ns3:TrackPointExtension>
            <ns3:hr>138</ns3:hr>
            <ns3:cad>53</ns3:cad>
          </ns3:TrackPointExtension>
        </extensions>
      </trkpt>
      <trkpt lat="45.25651398114860057830810546875" lon="-71.19023747742176055908203125">
        <ele>653.20001220703125</ele>
        <time>2026-08-22T04:06:50.000Z</time>
        <extensions>
          <ns3:TrackPointExtension>
            <ns3:hr>138</ns3:hr>
            <ns3:cad>53</ns3:cad>
          </ns3:TrackPointExtension>
        </extensions>
      </trkpt>
      <trkpt lat="45.25652470998466014862060546875" lon="-71.19025046937167644500732421875">
        <ele>653.4000244140625</ele>
        <time>2026-08-22T04:06:51.000Z</time>
        <extensions>
          <ns3:TrackPointExtension>
            <ns3:hr>138</ns3:hr>
            <ns3:cad>53</ns3:cad>
          </ns3:TrackPointExtension>
        </extensions>
      </trkpt>
      <trkpt lat="45.2565370313823223114013671875" lon="-71.1902654729783535003662109375">
        <ele>653.4000244140625</ele>
        <time>2026-08-22T04:06:52.000Z</time>
        <extensions>
          <ns3:TrackPointExtension>
            <ns3:hr>138</ns3:hr>
            <ns3:cad>53</ns3:cad>
          </ns3:TrackPointExtension>
        </extensions>
      </trkpt>
      <trkpt lat="45.25654591619968414306640625" lon="-71.1902782134711742401123046875">
        <ele>653.4000244140625</ele>
        <time>2026-08-22T04:06:53.000Z</time>
        <extensions>
          <ns3:TrackPointExtension>
            <ns3:hr>137</ns3:hr>
            <ns3:cad>55</ns3:cad>
          </ns3:TrackPointExtension>
        </extensions>
      </trkpt>
      <trkpt lat="45.25655471719801425933837890625" lon="-71.1902882717549800872802734375">
        <ele>653.5999755859375</ele>
        <time>2026-08-22T04:06:54.000Z</time>
        <extensions>
          <ns3:TrackPointExtension>
            <ns3:hr>137</ns3:hr>
            <ns3:cad>55</ns3:cad>
          </ns3:TrackPointExtension>
        </extensions>
      </trkpt>
      <trkpt lat="45.256565026938915252685546875" lon="-71.19029690511524677276611328125">
        <ele>653.79998779296875</ele>
        <time>2026-08-22T04:06:55.000Z</time>
        <extensions>
          <ns3:TrackPointExtension>
            <ns3:hr>137</ns3:hr>
            <ns3:cad>55</ns3:cad>
          </ns3:TrackPointExtension>
        </extensions>
      </trkpt>
      <trkpt lat="45.2565725706517696380615234375" lon="-71.1903077177703380584716796875">
        <ele>654</ele>
        <time>2026-08-22T04:06:56.000Z</time>
        <extensions>
          <ns3:TrackPointExtension>
            <ns3:hr>136</ns3:hr>
            <ns3:cad>55</ns3:cad>
          </ns3:TrackPointExtension>
        </extensions>
      </trkpt>
      <trkpt lat="45.2565841376781463623046875" lon="-71.19032221846282482147216796875">
        <ele>654.20001220703125</ele>
        <time>2026-08-22T04:06:57.000Z</time>
        <extensions>
          <ns3:TrackPointExtension>
            <ns3:hr>136</ns3:hr>
            <ns3:cad>55</ns3:cad>
          </ns3:TrackPointExtension>
        </extensions>
      </trkpt>
      <trkpt lat="45.25659394450485706329345703125" lon="-71.1903378926217555999755859375">
        <ele>654.4000244140625</ele>
        <time>2026-08-22T04:06:58.000Z</time>
        <extensions>
          <ns3:TrackPointExtension>
            <ns3:hr>136</ns3:hr>
            <ns3:cad>53</ns3:cad>
          </ns3:TrackPointExtension>
        </extensions>
      </trkpt>
      <trkpt lat="45.256601236760616302490234375" lon="-71.190352477133274078369140625">
        <ele>654.4000244140625</ele>
        <time>2026-08-22T04:06:59.000Z</time>
        <extensions>
          <ns3:TrackPointExtension>
            <ns3:hr>135</ns3:hr>
            <ns3:cad>53</ns3:cad>
          </ns3:TrackPointExtension>
        </extensions>
      </trkpt>
      <trkpt lat="45.2566060982644557952880859375" lon="-71.19036697782576084136962890625">
        <ele>654.4000244140625</ele>
        <time>2026-08-22T04:07:00.000Z</time>
        <extensions>
          <ns3:TrackPointExtension>
            <ns3:hr>135</ns3:hr>
            <ns3:cad>53</ns3:cad>
          </ns3:TrackPointExtension>
        </extensions>
      </trkpt>
      <trkpt lat="45.25661104358732700347900390625" lon="-71.19038592092692852020263671875">
        <ele>654.4000244140625</ele>
        <time>2026-08-22T04:07:01.000Z</time>
        <extensions>
          <ns3:TrackPointExtension>
            <ns3:hr>135</ns3:hr>
            <ns3:cad>54</ns3:cad>
          </ns3:TrackPointExtension>
        </extensions>
      </trkpt>
      <trkpt lat="45.25661825202405452728271484375" lon="-71.1904019303619861602783203125">
        <ele>654.4000244140625</ele>
        <time>2026-08-22T04:07:02.000Z</time>
        <extensions>
          <ns3:TrackPointExtension>
            <ns3:hr>135</ns3:hr>
            <ns3:cad>54</ns3:cad>
          </ns3:TrackPointExtension>
        </extensions>
      </trkpt>
      <trkpt lat="45.2566268853843212127685546875" lon="-71.190416850149631500244140625">
        <ele>654.4000244140625</ele>
        <time>2026-08-22T04:07:03.000Z</time>
        <extensions>
          <ns3:TrackPointExtension>
            <ns3:hr>135</ns3:hr>
            <ns3:cad>53</ns3:cad>
          </ns3:TrackPointExtension>
        </extensions>
      </trkpt>
      <trkpt lat="45.25663367472589015960693359375" lon="-71.19043336249887943267822265625">
        <ele>654.4000244140625</ele>
        <time>2026-08-22T04:07:04.000Z</time>
        <extensions>
          <ns3:TrackPointExtension>
            <ns3:hr>135</ns3:hr>
            <ns3:cad>53</ns3:cad>
          </ns3:TrackPointExtension>
        </extensions>
      </trkpt>
      <trkpt lat="45.256638787686824798583984375" lon="-71.19045012630522251129150390625">
        <ele>654.5999755859375</ele>
        <time>2026-08-22T04:07:05.000Z</time>
        <extensions>
          <ns3:TrackPointExtension>
            <ns3:hr>136</ns3:hr>
            <ns3:cad>51</ns3:cad>
          </ns3:TrackPointExtension>
        </extensions>
      </trkpt>
      <trkpt lat="45.25664188899099826812744140625" lon="-71.190462447702884674072265625">
        <ele>654.5999755859375</ele>
        <time>2026-08-22T04:07:06.000Z</time>
        <extensions>
          <ns3:TrackPointExtension>
            <ns3:hr>136</ns3:hr>
            <ns3:cad>51</ns3:cad>
          </ns3:TrackPointExtension>
        </extensions>
      </trkpt>
      <trkpt lat="45.2566453255712985992431640625" lon="-71.19047644548118114471435546875">
        <ele>654.79998779296875</ele>
        <time>2026-08-22T04:07:07.000Z</time>
        <extensions>
          <ns3:TrackPointExtension>
            <ns3:hr>136</ns3:hr>
            <ns3:cad>51</ns3:cad>
          </ns3:TrackPointExtension>
        </extensions>
      </trkpt>
      <trkpt lat="45.256649516522884368896484375" lon="-71.19049069471657276153564453125">
        <ele>654.79998779296875</ele>
        <time>2026-08-22T04:07:08.000Z</time>
        <extensions>
          <ns3:TrackPointExtension>
            <ns3:hr>135</ns3:hr>
            <ns3:cad>51</ns3:cad>
          </ns3:TrackPointExtension>
        </extensions>
      </trkpt>
      <trkpt lat="45.25665479712188243865966796875" lon="-71.190506033599376678466796875">
        <ele>654.79998779296875</ele>
        <time>2026-08-22T04:07:09.000Z</time>
        <extensions>
          <ns3:TrackPointExtension>
            <ns3:hr>134</ns3:hr>
            <ns3:cad>51</ns3:cad>
          </ns3:TrackPointExtension>
        </extensions>
      </trkpt>
      <trkpt lat="45.256657898426055908203125" lon="-71.19052154012024402618408203125">
        <ele>655</ele>
        <time>2026-08-22T04:07:10.000Z</time>
        <extensions>
          <ns3:TrackPointExtension>
            <ns3:hr>133</ns3:hr>
            <ns3:cad>51</ns3:cad>
          </ns3:TrackPointExtension>
        </extensions>
      </trkpt>
      <trkpt lat="45.256660915911197662353515625" lon="-71.19053763337433338165283203125">
        <ele>655</ele>
        <time>2026-08-22T04:07:11.000Z</time>
        <extensions>
          <ns3:TrackPointExtension>
            <ns3:hr>133</ns3:hr>
            <ns3:cad>51</ns3:cad>
          </ns3:TrackPointExtension>
        </extensions>
      </trkpt>
      <trkpt lat="45.25666384957730770111083984375" lon="-71.1905534751713275909423828125">
        <ele>655</ele>
        <time>2026-08-22T04:07:12.000Z</time>
        <extensions>
          <ns3:TrackPointExtension>
            <ns3:hr>133</ns3:hr>
            <ns3:cad>51</ns3:cad>
          </ns3:TrackPointExtension>
        </extensions>
      </trkpt>
      <trkpt lat="45.25666602887213230133056640625" lon="-71.19057065807282924652099609375">
        <ele>655</ele>
        <time>2026-08-22T04:07:13.000Z</time>
        <extensions>
          <ns3:TrackPointExtension>
            <ns3:hr>133</ns3:hr>
            <ns3:cad>51</ns3:cad>
          </ns3:TrackPointExtension>
        </extensions>
      </trkpt>
      <trkpt lat="45.2566681243479251861572265625" lon="-71.19058742187917232513427734375">
        <ele>655</ele>
        <time>2026-08-22T04:07:14.000Z</time>
        <extensions>
          <ns3:TrackPointExtension>
            <ns3:hr>132</ns3:hr>
            <ns3:cad>51</ns3:cad>
          </ns3:TrackPointExtension>
        </extensions>
      </trkpt>
      <trkpt lat="45.256672985851764678955078125" lon="-71.19060225784778594970703125">
        <ele>655</ele>
        <time>2026-08-22T04:07:15.000Z</time>
        <extensions>
          <ns3:TrackPointExtension>
            <ns3:hr>132</ns3:hr>
            <ns3:cad>52</ns3:cad>
          </ns3:TrackPointExtension>
        </extensions>
      </trkpt>
      <trkpt lat="45.2566755004227161407470703125" lon="-71.19061910547316074371337890625">
        <ele>655</ele>
        <time>2026-08-22T04:07:16.000Z</time>
        <extensions>
          <ns3:TrackPointExtension>
            <ns3:hr>132</ns3:hr>
            <ns3:cad>52</ns3:cad>
          </ns3:TrackPointExtension>
        </extensions>
      </trkpt>
      <trkpt lat="45.25667776353657245635986328125" lon="-71.190636120736598968505859375">
        <ele>655</ele>
        <time>2026-08-22T04:07:17.000Z</time>
        <extensions>
          <ns3:TrackPointExtension>
            <ns3:hr>132</ns3:hr>
            <ns3:cad>52</ns3:cad>
          </ns3:TrackPointExtension>
        </extensions>
      </trkpt>
      <trkpt lat="45.25667994283139705657958984375" lon="-71.19065481238067150115966796875">
        <ele>655</ele>
        <time>2026-08-22T04:07:18.000Z</time>
        <extensions>
          <ns3:TrackPointExtension>
            <ns3:hr>132</ns3:hr>
            <ns3:cad>51</ns3:cad>
          </ns3:TrackPointExtension>
        </extensions>
      </trkpt>
      <trkpt lat="45.2566822059452533721923828125" lon="-71.19067241437733173370361328125">
        <ele>655</ele>
        <time>2026-08-22T04:07:19.000Z</time>
        <extensions>
          <ns3:TrackPointExtension>
            <ns3:hr>132</ns3:hr>
            <ns3:cad>51</ns3:cad>
          </ns3:TrackPointExtension>
        </extensions>
      </trkpt>
      <trkpt lat="45.2566874027252197265625" lon="-71.19069018401205539703369140625">
        <ele>655</ele>
        <time>2026-08-22T04:07:20.000Z</time>
        <extensions>
          <ns3:TrackPointExtension>
            <ns3:hr>131</ns3:hr>
            <ns3:cad>51</ns3:cad>
          </ns3:TrackPointExtension>
        </extensions>
      </trkpt>
      <trkpt lat="45.25669218041002750396728515625" lon="-71.1907087080180644989013671875">
        <ele>654.79998779296875</ele>
        <time>2026-08-22T04:07:21.000Z</time>
        <extensions>
          <ns3:TrackPointExtension>
            <ns3:hr>131</ns3:hr>
            <ns3:cad>51</ns3:cad>
          </ns3:TrackPointExtension>
        </extensions>
      </trkpt>
      <trkpt lat="45.25669737718999385833740234375" lon="-71.1907298304140567779541015625">
        <ele>654.79998779296875</ele>
        <time>2026-08-22T04:07:22.000Z</time>
        <extensions>
          <ns3:TrackPointExtension>
            <ns3:hr>130</ns3:hr>
            <ns3:cad>53</ns3:cad>
          </ns3:TrackPointExtension>
        </extensions>
      </trkpt>
      <trkpt lat="45.2567009814083576202392578125" lon="-71.1907516233623027801513671875">
        <ele>654.79998779296875</ele>
        <time>2026-08-22T04:07:23.000Z</time>
        <extensions>
          <ns3:TrackPointExtension>
            <ns3:hr>130</ns3:hr>
            <ns3:cad>53</ns3:cad>
          </ns3:TrackPointExtension>
        </extensions>
      </trkpt>
      <trkpt lat="45.25670642964541912078857421875" lon="-71.19077232666313648223876953125">
        <ele>654.79998779296875</ele>
        <time>2026-08-22T04:07:24.000Z</time>
        <extensions>
          <ns3:TrackPointExtension>
            <ns3:hr>130</ns3:hr>
            <ns3:cad>56</ns3:cad>
          </ns3:TrackPointExtension>
        </extensions>
      </trkpt>
      <trkpt lat="45.2567103691399097442626953125" lon="-71.19079160504043102264404296875">
        <ele>654.79998779296875</ele>
        <time>2026-08-22T04:07:25.000Z</time>
        <extensions>
          <ns3:TrackPointExtension>
            <ns3:hr>130</ns3:hr>
            <ns3:cad>56</ns3:cad>
          </ns3:TrackPointExtension>
        </extensions>
      </trkpt>
      <trkpt lat="45.256713889539241790771484375" lon="-71.19081281125545501708984375">
        <ele>654.79998779296875</ele>
        <time>2026-08-22T04:07:26.000Z</time>
        <extensions>
          <ns3:TrackPointExtension>
            <ns3:hr>129</ns3:hr>
            <ns3:cad>56</ns3:cad>
          </ns3:TrackPointExtension>
        </extensions>
      </trkpt>
      <trkpt lat="45.25671464391052722930908203125" lon="-71.19083225727081298828125">
        <ele>654.79998779296875</ele>
        <time>2026-08-22T04:07:27.000Z</time>
        <extensions>
          <ns3:TrackPointExtension>
            <ns3:hr>129</ns3:hr>
            <ns3:cad>56</ns3:cad>
          </ns3:TrackPointExtension>
        </extensions>
      </trkpt>
      <trkpt lat="45.2567177452147006988525390625" lon="-71.19084910489618778228759765625">
        <ele>654.79998779296875</ele>
        <time>2026-08-22T04:07:28.000Z</time>
        <extensions>
          <ns3:TrackPointExtension>
            <ns3:hr>129</ns3:hr>
            <ns3:cad>56</ns3:cad>
          </ns3:TrackPointExtension>
        </extensions>
      </trkpt>
      <trkpt lat="45.25672051124274730682373046875" lon="-71.19086687453091144561767578125">
        <ele>654.79998779296875</ele>
        <time>2026-08-22T04:07:29.000Z</time>
        <extensions>
          <ns3:TrackPointExtension>
            <ns3:hr>130</ns3:hr>
            <ns3:cad>56</ns3:cad>
          </ns3:TrackPointExtension>
        </extensions>
      </trkpt>
      <trkpt lat="45.2567227743566036224365234375" lon="-71.1908817104995250701904296875">
        <ele>654.79998779296875</ele>
        <time>2026-08-22T04:07:30.000Z</time>
        <extensions>
          <ns3:TrackPointExtension>
            <ns3:hr>129</ns3:hr>
            <ns3:cad>57</ns3:cad>
          </ns3:TrackPointExtension>
        </extensions>
      </trkpt>
      <trkpt lat="45.2567271329462528228759765625" lon="-71.19090576656162738800048828125">
        <ele>654.79998779296875</ele>
        <time>2026-08-22T04:07:31.000Z</time>
        <extensions>
          <ns3:TrackPointExtension>
            <ns3:hr>129</ns3:hr>
            <ns3:cad>57</ns3:cad>
          </ns3:TrackPointExtension>
        </extensions>
      </trkpt>
      <trkpt lat="45.25673056952655315399169921875" lon="-71.19092839770019054412841796875">
        <ele>655</ele>
        <time>2026-08-22T04:07:32.000Z</time>
        <extensions>
          <ns3:TrackPointExtension>
            <ns3:hr>129</ns3:hr>
            <ns3:cad>57</ns3:cad>
          </ns3:TrackPointExtension>
        </extensions>
      </trkpt>
      <trkpt lat="45.25673501193523406982421875" lon="-71.1909584887325763702392578125">
        <ele>655.20001220703125</ele>
        <time>2026-08-22T04:07:33.000Z</time>
        <extensions>
          <ns3:TrackPointExtension>
            <ns3:hr>129</ns3:hr>
            <ns3:cad>57</ns3:cad>
          </ns3:TrackPointExtension>
        </extensions>
      </trkpt>
      <trkpt lat="45.2567402087152004241943359375" lon="-71.19098556227982044219970703125">
        <ele>655.20001220703125</ele>
        <time>2026-08-22T04:07:34.000Z</time>
        <extensions>
          <ns3:TrackPointExtension>
            <ns3:hr>129</ns3:hr>
            <ns3:cad>57</ns3:cad>
          </ns3:TrackPointExtension>
        </extensions>
      </trkpt>
      <trkpt lat="45.2567485906183719635009765625" lon="-71.19101808406412601470947265625">
        <ele>655.20001220703125</ele>
        <time>2026-08-22T04:07:35.000Z</time>
        <extensions>
          <ns3:TrackPointExtension>
            <ns3:hr>128</ns3:hr>
            <ns3:cad>57</ns3:cad>
          </ns3:TrackPointExtension>
        </extensions>
      </trkpt>
      <trkpt lat="45.25675336830317974090576171875" lon="-71.19105177931487560272216796875">
        <ele>655.20001220703125</ele>
        <time>2026-08-22T04:07:36.000Z</time>
        <extensions>
          <ns3:TrackPointExtension>
            <ns3:hr>128</ns3:hr>
            <ns3:cad>77</ns3:cad>
          </ns3:TrackPointExtension>
        </extensions>
      </trkpt>
      <trkpt lat="45.25675915181636810302734375" lon="-71.19108011014759540557861328125">
        <ele>655</ele>
        <time>2026-08-22T04:07:37.000Z</time>
        <extensions>
          <ns3:TrackPointExtension>
            <ns3:hr>128</ns3:hr>
            <ns3:cad>77</ns3:cad>
          </ns3:TrackPointExtension>
        </extensions>
      </trkpt>
      <trkpt lat="45.2567666955292224884033203125" lon="-71.1911127157509326934814453125">
        <ele>654.5999755859375</ele>
        <time>2026-08-22T04:07:38.000Z</time>
        <extensions>
          <ns3:TrackPointExtension>
            <ns3:hr>127</ns3:hr>
            <ns3:cad>77</ns3:cad>
          </ns3:TrackPointExtension>
        </extensions>
      </trkpt>
      <trkpt lat="45.256772227585315704345703125" lon="-71.191140711307525634765625">
        <ele>654.4000244140625</ele>
        <time>2026-08-22T04:07:39.000Z</time>
        <extensions>
          <ns3:TrackPointExtension>
            <ns3:hr>128</ns3:hr>
            <ns3:cad>81</ns3:cad>
          </ns3:TrackPointExtension>
        </extensions>
      </trkpt>
      <trkpt lat="45.2567837946116924285888671875" lon="-71.1911742389202117919921875">
        <ele>654.20001220703125</ele>
        <time>2026-08-22T04:07:40.000Z</time>
        <extensions>
          <ns3:TrackPointExtension>
            <ns3:hr>127</ns3:hr>
            <ns3:cad>81</ns3:cad>
          </ns3:TrackPointExtension>
        </extensions>
      </trkpt>
      <trkpt lat="45.25679259561002254486083984375" lon="-71.19120248593389987945556640625">
        <ele>654.20001220703125</ele>
        <time>2026-08-22T04:07:41.000Z</time>
        <extensions>
          <ns3:TrackPointExtension>
            <ns3:hr>127</ns3:hr>
            <ns3:cad>81</ns3:cad>
          </ns3:TrackPointExtension>
        </extensions>
      </trkpt>
      <trkpt lat="45.25679544545710086822509765625" lon="-71.191228888928890228271484375">
        <ele>654</ele>
        <time>2026-08-22T04:07:42.000Z</time>
        <extensions>
          <ns3:TrackPointExtension>
            <ns3:hr>127</ns3:hr>
            <ns3:cad>81</ns3:cad>
          </ns3:TrackPointExtension>
        </extensions>
      </trkpt>
      <trkpt lat="45.2568086050450801849365234375" lon="-71.191262416541576385498046875">
        <ele>654</ele>
        <time>2026-08-22T04:07:43.000Z</time>
        <extensions>
          <ns3:TrackPointExtension>
            <ns3:hr>127</ns3:hr>
            <ns3:cad>81</ns3:cad>
          </ns3:TrackPointExtension>
        </extensions>
      </trkpt>
      <trkpt lat="45.2568186633288860321044921875" lon="-71.19129150174558162689208984375">
        <ele>654</ele>
        <time>2026-08-22T04:07:44.000Z</time>
        <extensions>
          <ns3:TrackPointExtension>
            <ns3:hr>127</ns3:hr>
            <ns3:cad>80</ns3:cad>
          </ns3:TrackPointExtension>
        </extensions>
      </trkpt>
      <trkpt lat="45.25682411156594753265380859375" lon="-71.19131647981703281402587890625">
        <ele>654</ele>
        <time>2026-08-22T04:07:45.000Z</time>
        <extensions>
          <ns3:TrackPointExtension>
            <ns3:hr>126</ns3:hr>
            <ns3:cad>80</ns3:cad>
          </ns3:TrackPointExtension>
        </extensions>
      </trkpt>
      <trkpt lat="45.2568350918591022491455078125" lon="-71.1913453973829746246337890625">
        <ele>654</ele>
        <time>2026-08-22T04:07:46.000Z</time>
        <extensions>
          <ns3:TrackPointExtension>
            <ns3:hr>126</ns3:hr>
            <ns3:cad>81</ns3:cad>
          </ns3:TrackPointExtension>
        </extensions>
      </trkpt>
      <trkpt lat="45.25684523396193981170654296875" lon="-71.19137632660567760467529296875">
        <ele>654.20001220703125</ele>
        <time>2026-08-22T04:07:47.000Z</time>
        <extensions>
          <ns3:TrackPointExtension>
            <ns3:hr>125</ns3:hr>
            <ns3:cad>81</ns3:cad>
          </ns3:TrackPointExtension>
        </extensions>
      </trkpt>
      <trkpt lat="45.2568511851131916046142578125" lon="-71.19140088558197021484375">
        <ele>654.20001220703125</ele>
        <time>2026-08-22T04:07:48.000Z</time>
        <extensions>
          <ns3:TrackPointExtension>
            <ns3:hr>125</ns3:hr>
            <ns3:cad>81</ns3:cad>
          </ns3:TrackPointExtension>
        </extensions>
      </trkpt>
      <trkpt lat="45.2568558789789676666259765625" lon="-71.191429384052753448486328125">
        <ele>654.20001220703125</ele>
        <time>2026-08-22T04:07:49.000Z</time>
        <extensions>
          <ns3:TrackPointExtension>
            <ns3:hr>125</ns3:hr>
            <ns3:cad>81</ns3:cad>
          </ns3:TrackPointExtension>
        </extensions>
      </trkpt>
      <trkpt lat="45.2568619139492511749267578125" lon="-71.1914585530757904052734375">
        <ele>654.20001220703125</ele>
        <time>2026-08-22T04:07:50.000Z</time>
        <extensions>
          <ns3:TrackPointExtension>
            <ns3:hr>125</ns3:hr>
            <ns3:cad>81</ns3:cad>
          </ns3:TrackPointExtension>
        </extensions>
      </trkpt>
      <trkpt lat="45.25686887092888355255126953125" lon="-71.1914821900427341461181640625">
        <ele>654.20001220703125</ele>
        <time>2026-08-22T04:07:51.000Z</time>
        <extensions>
          <ns3:TrackPointExtension>
            <ns3:hr>125</ns3:hr>
            <ns3:cad>80</ns3:cad>
          </ns3:TrackPointExtension>
        </extensions>
      </trkpt>
      <trkpt lat="45.25687909685075283050537109375" lon="-71.19150884449481964111328125">
        <ele>654.4000244140625</ele>
        <time>2026-08-22T04:07:52.000Z</time>
        <extensions>
          <ns3:TrackPointExtension>
            <ns3:hr>125</ns3:hr>
            <ns3:cad>80</ns3:cad>
          </ns3:TrackPointExtension>
        </extensions>
      </trkpt>
      <trkpt lat="45.2568863891065120697021484375" lon="-71.19154036045074462890625">
        <ele>654.4000244140625</ele>
        <time>2026-08-22T04:07:53.000Z</time>
        <extensions>
          <ns3:TrackPointExtension>
            <ns3:hr>124</ns3:hr>
            <ns3:cad>79</ns3:cad>
          </ns3:TrackPointExtension>
        </extensions>
      </trkpt>
      <trkpt lat="45.25688898749649524688720703125" lon="-71.19156458415091037750244140625">
        <ele>654.5999755859375</ele>
        <time>2026-08-22T04:07:54.000Z</time>
        <extensions>
          <ns3:TrackPointExtension>
            <ns3:hr>124</ns3:hr>
            <ns3:cad>79</ns3:cad>
          </ns3:TrackPointExtension>
        </extensions>
      </trkpt>
      <trkpt lat="45.25689401663839817047119140625" lon="-71.19159643538296222686767578125">
        <ele>654.5999755859375</ele>
        <time>2026-08-22T04:07:55.000Z</time>
        <extensions>
          <ns3:TrackPointExtension>
            <ns3:hr>124</ns3:hr>
            <ns3:cad>78</ns3:cad>
          </ns3:TrackPointExtension>
        </extensions>
      </trkpt>
      <trkpt lat="45.25690407492220401763916015625" lon="-71.19162426330149173736572265625">
        <ele>654.79998779296875</ele>
        <time>2026-08-22T04:07:56.000Z</time>
        <extensions>
          <ns3:TrackPointExtension>
            <ns3:hr>124</ns3:hr>
            <ns3:cad>78</ns3:cad>
          </ns3:TrackPointExtension>
        </extensions>
      </trkpt>
      <trkpt lat="45.2569098584353923797607421875" lon="-71.191643960773944854736328125">
        <ele>654.79998779296875</ele>
        <time>2026-08-22T04:07:57.000Z</time>
        <extensions>
          <ns3:TrackPointExtension>
            <ns3:hr>125</ns3:hr>
            <ns3:cad>78</ns3:cad>
          </ns3:TrackPointExtension>
        </extensions>
      </trkpt>
      <trkpt lat="45.25691069662570953369140625" lon="-71.19167271070182323455810546875">
        <ele>655</ele>
        <time>2026-08-22T04:07:58.000Z</time>
        <extensions>
          <ns3:TrackPointExtension>
            <ns3:hr>125</ns3:hr>
            <ns3:cad>79</ns3:cad>
          </ns3:TrackPointExtension>
        </extensions>
      </trkpt>
      <trkpt lat="45.2569142170250415802001953125" lon="-71.1917001195251941680908203125">
        <ele>655</ele>
        <time>2026-08-22T04:07:59.000Z</time>
        <extensions>
          <ns3:TrackPointExtension>
            <ns3:hr>125</ns3:hr>
            <ns3:cad>79</ns3:cad>
          </ns3:TrackPointExtension>
        </extensions>
      </trkpt>
      <trkpt lat="45.25691564194858074188232421875" lon="-71.1917245946824550628662109375">
        <ele>655.20001220703125</ele>
        <time>2026-08-22T04:08:00.000Z</time>
        <extensions>
          <ns3:TrackPointExtension>
            <ns3:hr>125</ns3:hr>
            <ns3:cad>78</ns3:cad>
          </ns3:TrackPointExtension>
        </extensions>
      </trkpt>
      <trkpt lat="45.25692318566143512725830078125" lon="-71.19175284169614315032958984375">
        <ele>655.4000244140625</ele>
        <time>2026-08-22T04:08:01.000Z</time>
        <extensions>
          <ns3:TrackPointExtension>
            <ns3:hr>126</ns3:hr>
            <ns3:cad>78</ns3:cad>
          </ns3:TrackPointExtension>
        </extensions>
      </trkpt>
      <trkpt lat="45.2569247782230377197265625" lon="-71.19176692329347133636474609375">
        <ele>655.4000244140625</ele>
        <time>2026-08-22T04:08:02.000Z</time>
        <extensions>
          <ns3:TrackPointExtension>
            <ns3:hr>126</ns3:hr>
            <ns3:cad>77</ns3:cad>
          </ns3:TrackPointExtension>
        </extensions>
      </trkpt>
      <trkpt lat="45.25692838244140148162841796875" lon="-71.1917886324226856231689453125">
        <ele>655.5999755859375</ele>
        <time>2026-08-22T04:08:03.000Z</time>
        <extensions>
          <ns3:TrackPointExtension>
            <ns3:hr>126</ns3:hr>
            <ns3:cad>77</ns3:cad>
          </ns3:TrackPointExtension>
        </extensions>
      </trkpt>
      <trkpt lat="45.256933160126209259033203125" lon="-71.19180925190448760986328125">
        <ele>655.79998779296875</ele>
        <time>2026-08-22T04:08:04.000Z</time>
        <extensions>
          <ns3:TrackPointExtension>
            <ns3:hr>125</ns3:hr>
            <ns3:cad>77</ns3:cad>
          </ns3:TrackPointExtension>
        </extensions>
      </trkpt>
      <trkpt lat="45.256936512887477874755859375" lon="-71.19183179922401905059814453125">
        <ele>656</ele>
        <time>2026-08-22T04:08:05.000Z</time>
        <extensions>
          <ns3:TrackPointExtension>
            <ns3:hr>126</ns3:hr>
            <ns3:cad>0</ns3:cad>
          </ns3:TrackPointExtension>
        </extensions>
      </trkpt>
      <trkpt lat="45.25694229640066623687744140625" lon="-71.1918526701629161834716796875">
        <ele>656.20001220703125</ele>
        <time>2026-08-22T04:08:06.000Z</time>
        <extensions>
          <ns3:TrackPointExtension>
            <ns3:hr>126</ns3:hr>
            <ns3:cad>0</ns3:cad>
          </ns3:TrackPointExtension>
        </extensions>
      </trkpt>
      <trkpt lat="45.25694631971418857574462890625" lon="-71.1918724514544010162353515625">
        <ele>656.4000244140625</ele>
        <time>2026-08-22T04:08:07.000Z</time>
        <extensions>
          <ns3:TrackPointExtension>
            <ns3:hr>126</ns3:hr>
            <ns3:cad>55</ns3:cad>
          </ns3:TrackPointExtension>
        </extensions>
      </trkpt>
      <trkpt lat="45.25695252232253551483154296875" lon="-71.19188862852752208709716796875">
        <ele>656.4000244140625</ele>
        <time>2026-08-22T04:08:08.000Z</time>
        <extensions>
          <ns3:TrackPointExtension>
            <ns3:hr>126</ns3:hr>
            <ns3:cad>55</ns3:cad>
          </ns3:TrackPointExtension>
        </extensions>
      </trkpt>
      <trkpt lat="45.25695973075926303863525390625" lon="-71.19190807454288005828857421875">
        <ele>656.5999755859375</ele>
        <time>2026-08-22T04:08:09.000Z</time>
        <extensions>
          <ns3:TrackPointExtension>
            <ns3:hr>126</ns3:hr>
            <ns3:cad>55</ns3:cad>
          </ns3:TrackPointExtension>
        </extensions>
      </trkpt>
      <trkpt lat="45.2569645084440708160400390625" lon="-71.1919254250824451446533203125">
        <ele>656.79998779296875</ele>
        <time>2026-08-22T04:08:10.000Z</time>
        <extensions>
          <ns3:TrackPointExtension>
            <ns3:hr>127</ns3:hr>
            <ns3:cad>55</ns3:cad>
          </ns3:TrackPointExtension>
        </extensions>
      </trkpt>
      <trkpt lat="45.25696836411952972412109375" lon="-71.19194327853620052337646484375">
        <ele>657</ele>
        <time>2026-08-22T04:08:11.000Z</time>
        <extensions>
          <ns3:TrackPointExtension>
            <ns3:hr>128</ns3:hr>
            <ns3:cad>55</ns3:cad>
          </ns3:TrackPointExtension>
        </extensions>
      </trkpt>
      <trkpt lat="45.25697498582303524017333984375" lon="-71.19196054525673389434814453125">
        <ele>657.20001220703125</ele>
        <time>2026-08-22T04:08:12.000Z</time>
        <extensions>
          <ns3:TrackPointExtension>
            <ns3:hr>128</ns3:hr>
            <ns3:cad>55</ns3:cad>
          </ns3:TrackPointExtension>
        </extensions>
      </trkpt>
      <trkpt lat="45.25698185898363590240478515625" lon="-71.191977560520172119140625">
        <ele>657.4000244140625</ele>
        <time>2026-08-22T04:08:13.000Z</time>
        <extensions>
          <ns3:TrackPointExtension>
            <ns3:hr>129</ns3:hr>
            <ns3:cad>55</ns3:cad>
          </ns3:TrackPointExtension>
        </extensions>
      </trkpt>
      <trkpt lat="45.25698839686810970306396484375" lon="-71.191997341811656951904296875">
        <ele>657.5999755859375</ele>
        <time>2026-08-22T04:08:14.000Z</time>
        <extensions>
          <ns3:TrackPointExtension>
            <ns3:hr>130</ns3:hr>
            <ns3:cad>54</ns3:cad>
          </ns3:TrackPointExtension>
        </extensions>
      </trkpt>
      <trkpt lat="45.25699384510517120361328125" lon="-71.19201485998928546905517578125">
        <ele>657.5999755859375</ele>
        <time>2026-08-22T04:08:15.000Z</time>
        <extensions>
          <ns3:TrackPointExtension>
            <ns3:hr>130</ns3:hr>
            <ns3:cad>54</ns3:cad>
          </ns3:TrackPointExtension>
        </extensions>
      </trkpt>
      <trkpt lat="45.25699946098029613494873046875" lon="-71.192028187215328216552734375">
        <ele>657.79998779296875</ele>
        <time>2026-08-22T04:08:16.000Z</time>
        <extensions>
          <ns3:TrackPointExtension>
            <ns3:hr>131</ns3:hr>
            <ns3:cad>54</ns3:cad>
          </ns3:TrackPointExtension>
        </extensions>
      </trkpt>
      <trkpt lat="45.25700449012219905853271484375" lon="-71.1920444481074810028076171875">
        <ele>658.20001220703125</ele>
        <time>2026-08-22T04:08:17.000Z</time>
        <extensions>
          <ns3:TrackPointExtension>
            <ns3:hr>132</ns3:hr>
            <ns3:cad>52</ns3:cad>
          </ns3:TrackPointExtension>
        </extensions>
      </trkpt>
      <trkpt lat="45.25701153092086315155029296875" lon="-71.1920625530183315277099609375">
        <ele>658.4000244140625</ele>
        <time>2026-08-22T04:08:18.000Z</time>
        <extensions>
          <ns3:TrackPointExtension>
            <ns3:hr>132</ns3:hr>
            <ns3:cad>52</ns3:cad>
          </ns3:TrackPointExtension>
        </extensions>
      </trkpt>
      <trkpt lat="45.25701538659632205963134765625" lon="-71.1920766346156597137451171875">
        <ele>658.5999755859375</ele>
        <time>2026-08-22T04:08:19.000Z</time>
        <extensions>
          <ns3:TrackPointExtension>
            <ns3:hr>132</ns3:hr>
            <ns3:cad>51</ns3:cad>
          </ns3:TrackPointExtension>
        </extensions>
      </trkpt>
      <trkpt lat="45.257022343575954437255859375" lon="-71.19209364987909793853759765625">
        <ele>658.79998779296875</ele>
        <time>2026-08-22T04:08:20.000Z</time>
        <extensions>
          <ns3:TrackPointExtension>
            <ns3:hr>133</ns3:hr>
            <ns3:cad>52</ns3:cad>
          </ns3:TrackPointExtension>
        </extensions>
      </trkpt>
      <trkpt lat="45.25702913291752338409423828125" lon="-71.1921051330864429473876953125">
        <ele>659</ele>
        <time>2026-08-22T04:08:21.000Z</time>
        <extensions>
          <ns3:TrackPointExtension>
            <ns3:hr>133</ns3:hr>
            <ns3:cad>52</ns3:cad>
          </ns3:TrackPointExtension>
        </extensions>
      </trkpt>
      <trkpt lat="45.25703500024974346160888671875" lon="-71.19211996905505657196044921875">
        <ele>659.20001220703125</ele>
        <time>2026-08-22T04:08:22.000Z</time>
        <extensions>
          <ns3:TrackPointExtension>
            <ns3:hr>133</ns3:hr>
            <ns3:cad>53</ns3:cad>
          </ns3:TrackPointExtension>
        </extensions>
      </trkpt>
      <trkpt lat="45.2570432983338832855224609375" lon="-71.1921359784901142120361328125">
        <ele>659.4000244140625</ele>
        <time>2026-08-22T04:08:23.000Z</time>
        <extensions>
          <ns3:TrackPointExtension>
            <ns3:hr>133</ns3:hr>
            <ns3:cad>53</ns3:cad>
          </ns3:TrackPointExtension>
        </extensions>
      </trkpt>
      <trkpt lat="45.2570536918938159942626953125" lon="-71.19215215556323528289794921875">
        <ele>659.5999755859375</ele>
        <time>2026-08-22T04:08:24.000Z</time>
        <extensions>
          <ns3:TrackPointExtension>
            <ns3:hr>133</ns3:hr>
            <ns3:cad>52</ns3:cad>
          </ns3:TrackPointExtension>
        </extensions>
      </trkpt>
      <trkpt lat="45.257061235606670379638671875" lon="-71.192167662084102630615234375">
        <ele>659.79998779296875</ele>
        <time>2026-08-22T04:08:25.000Z</time>
        <extensions>
          <ns3:TrackPointExtension>
            <ns3:hr>133</ns3:hr>
            <ns3:cad>52</ns3:cad>
          </ns3:TrackPointExtension>
        </extensions>
      </trkpt>
      <trkpt lat="45.257071964442729949951171875" lon="-71.1921798996627330780029296875">
        <ele>660</ele>
        <time>2026-08-22T04:08:26.000Z</time>
        <extensions>
          <ns3:TrackPointExtension>
            <ns3:hr>134</ns3:hr>
            <ns3:cad>51</ns3:cad>
          </ns3:TrackPointExtension>
        </extensions>
      </trkpt>
      <trkpt lat="45.2570795081555843353271484375" lon="-71.19219171814620494842529296875">
        <ele>660.20001220703125</ele>
        <time>2026-08-22T04:08:27.000Z</time>
        <extensions>
          <ns3:TrackPointExtension>
            <ns3:hr>134</ns3:hr>
            <ns3:cad>51</ns3:cad>
          </ns3:TrackPointExtension>
        </extensions>
      </trkpt>
      <trkpt lat="45.257087051868438720703125" lon="-71.19220630265772342681884765625">
        <ele>660.4000244140625</ele>
        <time>2026-08-22T04:08:28.000Z</time>
        <extensions>
          <ns3:TrackPointExtension>
            <ns3:hr>134</ns3:hr>
            <ns3:cad>51</ns3:cad>
          </ns3:TrackPointExtension>
        </extensions>
      </trkpt>
      <trkpt lat="45.2570922486484050750732421875" lon="-71.19222474284470081329345703125">
        <ele>660.5999755859375</ele>
        <time>2026-08-22T04:08:29.000Z</time>
        <extensions>
          <ns3:TrackPointExtension>
            <ns3:hr>134</ns3:hr>
            <ns3:cad>50</ns3:cad>
          </ns3:TrackPointExtension>
        </extensions>
      </trkpt>
      <trkpt lat="45.257094092667102813720703125" lon="-71.19223949499428272247314453125">
        <ele>660.79998779296875</ele>
        <time>2026-08-22T04:08:30.000Z</time>
        <extensions>
          <ns3:TrackPointExtension>
            <ns3:hr>135</ns3:hr>
            <ns3:cad>50</ns3:cad>
          </ns3:TrackPointExtension>
        </extensions>
      </trkpt>
      <trkpt lat="45.2570939250290393829345703125" lon="-71.1922523193061351776123046875">
        <ele>661</ele>
        <time>2026-08-22T04:08:31.000Z</time>
        <extensions>
          <ns3:TrackPointExtension>
            <ns3:hr>134</ns3:hr>
            <ns3:cad>49</ns3:cad>
          </ns3:TrackPointExtension>
        </extensions>
      </trkpt>
      <trkpt lat="45.25709719397127628326416015625" lon="-71.192265562713146209716796875">
        <ele>661</ele>
        <time>2026-08-22T04:08:32.000Z</time>
        <extensions>
          <ns3:TrackPointExtension>
            <ns3:hr>134</ns3:hr>
            <ns3:cad>49</ns3:cad>
          </ns3:TrackPointExtension>
        </extensions>
      </trkpt>
      <trkpt lat="45.257102139294147491455078125" lon="-71.192278303205966949462890625">
        <ele>661.20001220703125</ele>
        <time>2026-08-22T04:08:33.000Z</time>
        <extensions>
          <ns3:TrackPointExtension>
            <ns3:hr>135</ns3:hr>
            <ns3:cad>50</ns3:cad>
          </ns3:TrackPointExtension>
        </extensions>
      </trkpt>
      <trkpt lat="45.25710658170282840728759765625" lon="-71.19229280389845371246337890625">
        <ele>661.4000244140625</ele>
        <time>2026-08-22T04:08:34.000Z</time>
        <extensions>
          <ns3:TrackPointExtension>
            <ns3:hr>135</ns3:hr>
            <ns3:cad>51</ns3:cad>
          </ns3:TrackPointExtension>
        </extensions>
      </trkpt>
      <trkpt lat="45.2571127004921436309814453125" lon="-71.19230587966740131378173828125">
        <ele>661.79998779296875</ele>
        <time>2026-08-22T04:08:35.000Z</time>
        <extensions>
          <ns3:TrackPointExtension>
            <ns3:hr>135</ns3:hr>
            <ns3:cad>51</ns3:cad>
          </ns3:TrackPointExtension>
        </extensions>
      </trkpt>
      <trkpt lat="45.25711722671985626220703125" lon="-71.1923176981508731842041015625">
        <ele>662</ele>
        <time>2026-08-22T04:08:36.000Z</time>
        <extensions>
          <ns3:TrackPointExtension>
            <ns3:hr>136</ns3:hr>
            <ns3:cad>51</ns3:cad>
          </ns3:TrackPointExtension>
        </extensions>
      </trkpt>
      <trkpt lat="45.257121585309505462646484375" lon="-71.192331612110137939453125">
        <ele>662.20001220703125</ele>
        <time>2026-08-22T04:08:37.000Z</time>
        <extensions>
          <ns3:TrackPointExtension>
            <ns3:hr>136</ns3:hr>
            <ns3:cad>51</ns3:cad>
          </ns3:TrackPointExtension>
        </extensions>
      </trkpt>
      <trkpt lat="45.2571267820894718170166015625" lon="-71.19234477169811725616455078125">
        <ele>662.4000244140625</ele>
        <time>2026-08-22T04:08:38.000Z</time>
        <extensions>
          <ns3:TrackPointExtension>
            <ns3:hr>136</ns3:hr>
            <ns3:cad>48</ns3:cad>
          </ns3:TrackPointExtension>
        </extensions>
      </trkpt>
      <trkpt lat="45.25712988339364528656005859375" lon="-71.1923549138009548187255859375">
        <ele>662.5999755859375</ele>
        <time>2026-08-22T04:08:39.000Z</time>
        <extensions>
          <ns3:TrackPointExtension>
            <ns3:hr>136</ns3:hr>
            <ns3:cad>48</ns3:cad>
          </ns3:TrackPointExtension>
        </extensions>
      </trkpt>
      <trkpt lat="45.257133655250072479248046875" lon="-71.1923678219318389892578125">
        <ele>662.79998779296875</ele>
        <time>2026-08-22T04:08:40.000Z</time>
        <extensions>
          <ns3:TrackPointExtension>
            <ns3:hr>136</ns3:hr>
            <ns3:cad>48</ns3:cad>
          </ns3:TrackPointExtension>
        </extensions>
      </trkpt>
      <trkpt lat="45.25713608600199222564697265625" lon="-71.19237788021564483642578125">
        <ele>663</ele>
        <time>2026-08-22T04:08:41.000Z</time>
        <extensions>
          <ns3:TrackPointExtension>
            <ns3:hr>137</ns3:hr>
            <ns3:cad>49</ns3:cad>
          </ns3:TrackPointExtension>
        </extensions>
      </trkpt>
      <trkpt lat="45.25713876821100711822509765625" lon="-71.19238751940429210662841796875">
        <ele>663.20001220703125</ele>
        <time>2026-08-22T04:08:42.000Z</time>
        <extensions>
          <ns3:TrackPointExtension>
            <ns3:hr>137</ns3:hr>
            <ns3:cad>49</ns3:cad>
          </ns3:TrackPointExtension>
        </extensions>
      </trkpt>
      <trkpt lat="45.25714111514389514923095703125" lon="-71.1923995055258274078369140625">
        <ele>663.4000244140625</ele>
        <time>2026-08-22T04:08:43.000Z</time>
        <extensions>
          <ns3:TrackPointExtension>
            <ns3:hr>137</ns3:hr>
            <ns3:cad>49</ns3:cad>
          </ns3:TrackPointExtension>
        </extensions>
      </trkpt>
      <trkpt lat="45.25714681483805179595947265625" lon="-71.192411743104457855224609375">
        <ele>663.79998779296875</ele>
        <time>2026-08-22T04:08:44.000Z</time>
        <extensions>
          <ns3:TrackPointExtension>
            <ns3:hr>137</ns3:hr>
            <ns3:cad>49</ns3:cad>
          </ns3:TrackPointExtension>
        </extensions>
      </trkpt>
      <trkpt lat="45.25715150870382785797119140625" lon="-71.19242540560662746429443359375">
        <ele>664</ele>
        <time>2026-08-22T04:08:45.000Z</time>
        <extensions>
          <ns3:TrackPointExtension>
            <ns3:hr>137</ns3:hr>
            <ns3:cad>49</ns3:cad>
          </ns3:TrackPointExtension>
        </extensions>
      </trkpt>
      <trkpt lat="45.2571554481983184814453125" lon="-71.19244149886071681976318359375">
        <ele>664.20001220703125</ele>
        <time>2026-08-22T04:08:46.000Z</time>
        <extensions>
          <ns3:TrackPointExtension>
            <ns3:hr>137</ns3:hr>
            <ns3:cad>49</ns3:cad>
          </ns3:TrackPointExtension>
        </extensions>
      </trkpt>
      <trkpt lat="45.25715989060699939727783203125" lon="-71.19245440699160099029541015625">
        <ele>664.4000244140625</ele>
        <time>2026-08-22T04:08:47.000Z</time>
        <extensions>
          <ns3:TrackPointExtension>
            <ns3:hr>138</ns3:hr>
            <ns3:cad>49</ns3:cad>
          </ns3:TrackPointExtension>
        </extensions>
      </trkpt>
      <trkpt lat="45.257167518138885498046875" lon="-71.192473433911800384521484375">
        <ele>664.4000244140625</ele>
        <time>2026-08-22T04:08:48.000Z</time>
        <extensions>
          <ns3:TrackPointExtension>
            <ns3:hr>138</ns3:hr>
            <ns3:cad>48</ns3:cad>
          </ns3:TrackPointExtension>
        </extensions>
      </trkpt>
      <trkpt lat="45.257175900042057037353515625" lon="-71.192492209374904632568359375">
        <ele>664.5999755859375</ele>
        <time>2026-08-22T04:08:49.000Z</time>
        <extensions>
          <ns3:TrackPointExtension>
            <ns3:hr>138</ns3:hr>
            <ns3:cad>48</ns3:cad>
          </ns3:TrackPointExtension>
        </extensions>
      </trkpt>
      <trkpt lat="45.257183276116847991943359375" lon="-71.19250796735286712646484375">
        <ele>664.5999755859375</ele>
        <time>2026-08-22T04:08:50.000Z</time>
        <extensions>
          <ns3:TrackPointExtension>
            <ns3:hr>139</ns3:hr>
            <ns3:cad>50</ns3:cad>
          </ns3:TrackPointExtension>
        </extensions>
      </trkpt>
      <trkpt lat="45.2571958489716053009033203125" lon="-71.19251961819827556610107421875">
        <ele>664.79998779296875</ele>
        <time>2026-08-22T04:08:51.000Z</time>
        <extensions>
          <ns3:TrackPointExtension>
            <ns3:hr>139</ns3:hr>
            <ns3:cad>51</ns3:cad>
          </ns3:TrackPointExtension>
        </extensions>
      </trkpt>
      <trkpt lat="45.25720314122736454010009765625" lon="-71.1925369687378406524658203125">
        <ele>665</ele>
        <time>2026-08-22T04:08:52.000Z</time>
        <extensions>
          <ns3:TrackPointExtension>
            <ns3:hr>139</ns3:hr>
            <ns3:cad>51</ns3:cad>
          </ns3:TrackPointExtension>
        </extensions>
      </trkpt>
      <trkpt lat="45.257208086550235748291015625" lon="-71.19255079887807369232177734375">
        <ele>665.20001220703125</ele>
        <time>2026-08-22T04:08:53.000Z</time>
        <extensions>
          <ns3:TrackPointExtension>
            <ns3:hr>140</ns3:hr>
            <ns3:cad>51</ns3:cad>
          </ns3:TrackPointExtension>
        </extensions>
      </trkpt>
      <trkpt lat="45.257213115692138671875" lon="-71.19256789796054363250732421875">
        <ele>665.4000244140625</ele>
        <time>2026-08-22T04:08:54.000Z</time>
        <extensions>
          <ns3:TrackPointExtension>
            <ns3:hr>140</ns3:hr>
            <ns3:cad>51</ns3:cad>
          </ns3:TrackPointExtension>
        </extensions>
      </trkpt>
      <trkpt lat="45.257216803729534149169921875" lon="-71.19258600287139415740966796875">
        <ele>665.5999755859375</ele>
        <time>2026-08-22T04:08:55.000Z</time>
        <extensions>
          <ns3:TrackPointExtension>
            <ns3:hr>140</ns3:hr>
            <ns3:cad>51</ns3:cad>
          </ns3:TrackPointExtension>
        </extensions>
      </trkpt>
      <trkpt lat="45.2572226710617542266845703125" lon="-71.19260109029710292816162109375">
        <ele>665.79998779296875</ele>
        <time>2026-08-22T04:08:56.000Z</time>
        <extensions>
          <ns3:TrackPointExtension>
            <ns3:hr>140</ns3:hr>
            <ns3:cad>51</ns3:cad>
          </ns3:TrackPointExtension>
        </extensions>
      </trkpt>
      <trkpt lat="45.25723180733621120452880859375" lon="-71.19262866675853729248046875">
        <ele>666</ele>
        <time>2026-08-22T04:08:57.000Z</time>
        <extensions>
          <ns3:TrackPointExtension>
            <ns3:hr>140</ns3:hr>
            <ns3:cad>51</ns3:cad>
          </ns3:TrackPointExtension>
        </extensions>
      </trkpt>
      <trkpt lat="45.25723733939230442047119140625" lon="-71.19265121407806873321533203125">
        <ele>666</ele>
        <time>2026-08-22T04:08:58.000Z</time>
        <extensions>
          <ns3:TrackPointExtension>
            <ns3:hr>140</ns3:hr>
            <ns3:cad>0</ns3:cad>
          </ns3:TrackPointExtension>
        </extensions>
      </trkpt>
      <trkpt lat="45.2572481520473957061767578125" lon="-71.192681975662708282470703125">
        <ele>666.20001220703125</ele>
        <time>2026-08-22T04:08:59.000Z</time>
        <extensions>
          <ns3:TrackPointExtension>
            <ns3:hr>140</ns3:hr>
            <ns3:cad>0</ns3:cad>
          </ns3:TrackPointExtension>
        </extensions>
      </trkpt>
      <trkpt lat="45.2572568692266941070556640625" lon="-71.1927084624767303466796875">
        <ele>666.5999755859375</ele>
        <time>2026-08-22T04:09:00.000Z</time>
        <extensions>
          <ns3:TrackPointExtension>
            <ns3:hr>140</ns3:hr>
            <ns3:cad>0</ns3:cad>
          </ns3:TrackPointExtension>
        </extensions>
      </trkpt>
      <trkpt lat="45.25726952590048313140869140625" lon="-71.192736960947513580322265625">
        <ele>666.79998779296875</ele>
        <time>2026-08-22T04:09:01.000Z</time>
        <extensions>
          <ns3:TrackPointExtension>
            <ns3:hr>140</ns3:hr>
            <ns3:cad>0</ns3:cad>
          </ns3:TrackPointExtension>
        </extensions>
      </trkpt>
      <trkpt lat="45.25728109292685985565185546875" lon="-71.1927666328847408294677734375">
        <ele>667</ele>
        <time>2026-08-22T04:09:02.000Z</time>
        <extensions>
          <ns3:TrackPointExtension>
            <ns3:hr>140</ns3:hr>
            <ns3:cad>80</ns3:cad>
          </ns3:TrackPointExtension>
        </extensions>
      </trkpt>
      <trkpt lat="45.25729349814355373382568359375" lon="-71.1927942931652069091796875">
        <ele>667.20001220703125</ele>
        <time>2026-08-22T04:09:03.000Z</time>
        <extensions>
          <ns3:TrackPointExtension>
            <ns3:hr>140</ns3:hr>
            <ns3:cad>80</ns3:cad>
          </ns3:TrackPointExtension>
        </extensions>
      </trkpt>
      <trkpt lat="45.2573078311979770660400390625" lon="-71.19282069616019725799560546875">
        <ele>667.5999755859375</ele>
        <time>2026-08-22T04:09:04.000Z</time>
        <extensions>
          <ns3:TrackPointExtension>
            <ns3:hr>141</ns3:hr>
            <ns3:cad>78</ns3:cad>
          </ns3:TrackPointExtension>
        </extensions>
      </trkpt>
      <trkpt lat="45.25732132606208324432373046875" lon="-71.1928460933268070220947265625">
        <ele>667.79998779296875</ele>
        <time>2026-08-22T04:09:05.000Z</time>
        <extensions>
          <ns3:TrackPointExtension>
            <ns3:hr>142</ns3:hr>
            <ns3:cad>78</ns3:cad>
          </ns3:TrackPointExtension>
        </extensions>
      </trkpt>
      <trkpt lat="45.2573386766016483306884765625" lon="-71.19286042638123035430908203125">
        <ele>668</ele>
        <time>2026-08-22T04:09:06.000Z</time>
        <extensions>
          <ns3:TrackPointExtension>
            <ns3:hr>143</ns3:hr>
            <ns3:cad>78</ns3:cad>
          </ns3:TrackPointExtension>
        </extensions>
      </trkpt>
      <trkpt lat="45.25735502131283283233642578125" lon="-71.19288356043398380279541015625">
        <ele>668.20001220703125</ele>
        <time>2026-08-22T04:09:07.000Z</time>
        <extensions>
          <ns3:TrackPointExtension>
            <ns3:hr>144</ns3:hr>
            <ns3:cad>79</ns3:cad>
          </ns3:TrackPointExtension>
        </extensions>
      </trkpt>
      <trkpt lat="45.2573725394904613494873046875" lon="-71.192899905145168304443359375">
        <ele>668.4000244140625</ele>
        <time>2026-08-22T04:09:08.000Z</time>
        <extensions>
          <ns3:TrackPointExtension>
            <ns3:hr>145</ns3:hr>
            <ns3:cad>79</ns3:cad>
          </ns3:TrackPointExtension>
        </extensions>
      </trkpt>
      <trkpt lat="45.2573869563639163970947265625" lon="-71.1929134838283061981201171875">
        <ele>668.5999755859375</ele>
        <time>2026-08-22T04:09:09.000Z</time>
        <extensions>
          <ns3:TrackPointExtension>
            <ns3:hr>145</ns3:hr>
            <ns3:cad>79</ns3:cad>
          </ns3:TrackPointExtension>
        </extensions>
      </trkpt>
      <trkpt lat="45.25739642791450023651123046875" lon="-71.1929245479404926300048828125">
        <ele>668.79998779296875</ele>
        <time>2026-08-22T04:09:10.000Z</time>
        <extensions>
          <ns3:TrackPointExtension>
            <ns3:hr>145</ns3:hr>
            <ns3:cad>79</ns3:cad>
          </ns3:TrackPointExtension>
        </extensions>
      </trkpt>
      <trkpt lat="45.25741226971149444580078125" lon="-71.19293686933815479278564453125">
        <ele>668.79998779296875</ele>
        <time>2026-08-22T04:09:11.000Z</time>
        <extensions>
          <ns3:TrackPointExtension>
            <ns3:hr>145</ns3:hr>
            <ns3:cad>79</ns3:cad>
          </ns3:TrackPointExtension>
        </extensions>
      </trkpt>
      <trkpt lat="45.2574238367378711700439453125" lon="-71.192951202392578125">
        <ele>669</ele>
        <time>2026-08-22T04:09:12.000Z</time>
        <extensions>
          <ns3:TrackPointExtension>
            <ns3:hr>145</ns3:hr>
            <ns3:cad>79</ns3:cad>
          </ns3:TrackPointExtension>
        </extensions>
      </trkpt>
      <trkpt lat="45.25743481703102588653564453125" lon="-71.1929641105234622955322265625">
        <ele>669.20001220703125</ele>
        <time>2026-08-22T04:09:13.000Z</time>
        <extensions>
          <ns3:TrackPointExtension>
            <ns3:hr>146</ns3:hr>
            <ns3:cad>79</ns3:cad>
          </ns3:TrackPointExtension>
        </extensions>
      </trkpt>
      <trkpt lat="45.25744722224771976470947265625" lon="-71.1929731629788875579833984375">
        <ele>669.20001220703125</ele>
        <time>2026-08-22T04:09:14.000Z</time>
        <extensions>
          <ns3:TrackPointExtension>
            <ns3:hr>146</ns3:hr>
            <ns3:cad>56</ns3:cad>
          </ns3:TrackPointExtension>
        </extensions>
      </trkpt>
      <trkpt lat="45.25745996274054050445556640625" lon="-71.192980371415615081787109375">
        <ele>669.20001220703125</ele>
        <time>2026-08-22T04:09:15.000Z</time>
        <extensions>
          <ns3:TrackPointExtension>
            <ns3:hr>146</ns3:hr>
            <ns3:cad>56</ns3:cad>
          </ns3:TrackPointExtension>
        </extensions>
      </trkpt>
      <trkpt lat="45.2574731223285198211669921875" lon="-71.19298917241394519805908203125">
        <ele>669.4000244140625</ele>
        <time>2026-08-22T04:09:16.000Z</time>
        <extensions>
          <ns3:TrackPointExtension>
            <ns3:hr>146</ns3:hr>
            <ns3:cad>55</ns3:cad>
          </ns3:TrackPointExtension>
        </extensions>
      </trkpt>
      <trkpt lat="45.25748661719262599945068359375" lon="-71.192995123565196990966796875">
        <ele>669.4000244140625</ele>
        <time>2026-08-22T04:09:17.000Z</time>
        <extensions>
          <ns3:TrackPointExtension>
            <ns3:hr>146</ns3:hr>
            <ns3:cad>54</ns3:cad>
          </ns3:TrackPointExtension>
        </extensions>
      </trkpt>
      <trkpt lat="45.257500447332859039306640625" lon="-71.1930006556212902069091796875">
        <ele>669.4000244140625</ele>
        <time>2026-08-22T04:09:18.000Z</time>
        <extensions>
          <ns3:TrackPointExtension>
            <ns3:hr>146</ns3:hr>
            <ns3:cad>54</ns3:cad>
          </ns3:TrackPointExtension>
        </extensions>
      </trkpt>
      <trkpt lat="45.25751695968210697174072265625" lon="-71.19300375692546367645263671875">
        <ele>669.5999755859375</ele>
        <time>2026-08-22T04:09:19.000Z</time>
        <extensions>
          <ns3:TrackPointExtension>
            <ns3:hr>146</ns3:hr>
            <ns3:cad>53</ns3:cad>
          </ns3:TrackPointExtension>
        </extensions>
      </trkpt>
      <trkpt lat="45.25753405876457691192626953125" lon="-71.1930040083825588226318359375">
        <ele>669.79998779296875</ele>
        <time>2026-08-22T04:09:20.000Z</time>
        <extensions>
          <ns3:TrackPointExtension>
            <ns3:hr>146</ns3:hr>
            <ns3:cad>53</ns3:cad>
          </ns3:TrackPointExtension>
        </extensions>
      </trkpt>
      <trkpt lat="45.257550068199634552001953125" lon="-71.19300627149641513824462890625">
        <ele>669.79998779296875</ele>
        <time>2026-08-22T04:09:21.000Z</time>
        <extensions>
          <ns3:TrackPointExtension>
            <ns3:hr>146</ns3:hr>
            <ns3:cad>53</ns3:cad>
          </ns3:TrackPointExtension>
        </extensions>
      </trkpt>
      <trkpt lat="45.25756515562534332275390625" lon="-71.19300861842930316925048828125">
        <ele>670</ele>
        <time>2026-08-22T04:09:22.000Z</time>
        <extensions>
          <ns3:TrackPointExtension>
            <ns3:hr>146</ns3:hr>
            <ns3:cad>54</ns3:cad>
          </ns3:TrackPointExtension>
        </extensions>
      </trkpt>
      <trkpt lat="45.25757932104170322418212890625" lon="-71.19301096536219120025634765625">
        <ele>670</ele>
        <time>2026-08-22T04:09:23.000Z</time>
        <extensions>
          <ns3:TrackPointExtension>
            <ns3:hr>146</ns3:hr>
            <ns3:cad>54</ns3:cad>
          </ns3:TrackPointExtension>
        </extensions>
      </trkpt>
      <trkpt lat="45.257592983543872833251953125" lon="-71.19301415048539638519287109375">
        <ele>670</ele>
        <time>2026-08-22T04:09:24.000Z</time>
        <extensions>
          <ns3:TrackPointExtension>
            <ns3:hr>146</ns3:hr>
            <ns3:cad>55</ns3:cad>
          </ns3:TrackPointExtension>
        </extensions>
      </trkpt>
      <trkpt lat="45.2576065622270107269287109375" lon="-71.19301901198923587799072265625">
        <ele>670.20001220703125</ele>
        <time>2026-08-22T04:09:25.000Z</time>
        <extensions>
          <ns3:TrackPointExtension>
            <ns3:hr>146</ns3:hr>
            <ns3:cad>55</ns3:cad>
          </ns3:TrackPointExtension>
        </extensions>
      </trkpt>
      <trkpt lat="45.25761838071048259735107421875" lon="-71.1930263042449951171875">
        <ele>670.20001220703125</ele>
        <time>2026-08-22T04:09:26.000Z</time>
        <extensions>
          <ns3:TrackPointExtension>
            <ns3:hr>146</ns3:hr>
            <ns3:cad>54</ns3:cad>
          </ns3:TrackPointExtension>
        </extensions>
      </trkpt>
      <trkpt lat="45.25763246230781078338623046875" lon="-71.19302940554916858673095703125">
        <ele>670.20001220703125</ele>
        <time>2026-08-22T04:09:27.000Z</time>
        <extensions>
          <ns3:TrackPointExtension>
            <ns3:hr>146</ns3:hr>
            <ns3:cad>54</ns3:cad>
          </ns3:TrackPointExtension>
        </extensions>
      </trkpt>
      <trkpt lat="45.25764185003936290740966796875" lon="-71.1930194310843944549560546875">
        <ele>670.4000244140625</ele>
        <time>2026-08-22T04:09:28.000Z</time>
        <extensions>
          <ns3:TrackPointExtension>
            <ns3:hr>145</ns3:hr>
            <ns3:cad>52</ns3:cad>
          </ns3:TrackPointExtension>
        </extensions>
      </trkpt>
      <trkpt lat="45.2576464600861072540283203125" lon="-71.19300040416419506072998046875">
        <ele>670.4000244140625</ele>
        <time>2026-08-22T04:09:29.000Z</time>
        <extensions>
          <ns3:TrackPointExtension>
            <ns3:hr>145</ns3:hr>
            <ns3:cad>51</ns3:cad>
          </ns3:TrackPointExtension>
        </extensions>
      </trkpt>
      <trkpt lat="45.2576501481235027313232421875" lon="-71.19298112578690052032470703125">
        <ele>670.4000244140625</ele>
        <time>2026-08-22T04:09:30.000Z</time>
        <extensions>
          <ns3:TrackPointExtension>
            <ns3:hr>145</ns3:hr>
            <ns3:cad>51</ns3:cad>
          </ns3:TrackPointExtension>
        </extensions>
      </trkpt>
      <trkpt lat="45.25765090249478816986083984375" lon="-71.19296520017087459564208984375">
        <ele>670.4000244140625</ele>
        <time>2026-08-22T04:09:31.000Z</time>
        <extensions>
          <ns3:TrackPointExtension>
            <ns3:hr>144</ns3:hr>
            <ns3:cad>51</ns3:cad>
          </ns3:TrackPointExtension>
        </extensions>
      </trkpt>
      <trkpt lat="45.2576511539518833160400390625" lon="-71.1929500289261341094970703125">
        <ele>670.20001220703125</ele>
        <time>2026-08-22T04:09:32.000Z</time>
        <extensions>
          <ns3:TrackPointExtension>
            <ns3:hr>144</ns3:hr>
            <ns3:cad>51</ns3:cad>
          </ns3:TrackPointExtension>
        </extensions>
      </trkpt>
      <trkpt lat="45.257651992142200469970703125" lon="-71.192935444414615631103515625">
        <ele>670.20001220703125</ele>
        <time>2026-08-22T04:09:33.000Z</time>
        <extensions>
          <ns3:TrackPointExtension>
            <ns3:hr>144</ns3:hr>
            <ns3:cad>51</ns3:cad>
          </ns3:TrackPointExtension>
        </extensions>
      </trkpt>
      <trkpt lat="45.2576561830937862396240234375" lon="-71.192924045026302337646484375">
        <ele>670</ele>
        <time>2026-08-22T04:09:34.000Z</time>
        <extensions>
          <ns3:TrackPointExtension>
            <ns3:hr>145</ns3:hr>
            <ns3:cad>51</ns3:cad>
          </ns3:TrackPointExtension>
        </extensions>
      </trkpt>
      <trkpt lat="45.25765744037926197052001953125" lon="-71.19291977025568485260009765625">
        <ele>669.79998779296875</ele>
        <time>2026-08-22T04:09:35.000Z</time>
        <extensions>
          <ns3:TrackPointExtension>
            <ns3:hr>144</ns3:hr>
            <ns3:cad>53</ns3:cad>
          </ns3:TrackPointExtension>
        </extensions>
      </trkpt>
      <trkpt lat="45.25765811093151569366455078125" lon="-71.1929201893508434295654296875">
        <ele>669.79998779296875</ele>
        <time>2026-08-22T04:09:36.000Z</time>
        <extensions>
          <ns3:TrackPointExtension>
            <ns3:hr>144</ns3:hr>
            <ns3:cad>0</ns3:cad>
          </ns3:TrackPointExtension>
        </extensions>
      </trkpt>
      <trkpt lat="45.25765911675989627838134765625" lon="-71.19291968643665313720703125">
        <ele>669.79998779296875</ele>
        <time>2026-08-22T04:09:37.000Z</time>
        <extensions>
          <ns3:TrackPointExtension>
            <ns3:hr>144</ns3:hr>
            <ns3:cad>0</ns3:cad>
          </ns3:TrackPointExtension>
        </extensions>
      </trkpt>
      <trkpt lat="45.257659368216991424560546875" lon="-71.19291977025568485260009765625">
        <ele>669.5999755859375</ele>
        <time>2026-08-22T04:09:38.000Z</time>
        <extensions>
          <ns3:TrackPointExtension>
            <ns3:hr>144</ns3:hr>
            <ns3:cad>0</ns3:cad>
          </ns3:TrackPointExtension>
        </extensions>
      </trkpt>
      <trkpt lat="45.257659368216991424560546875" lon="-71.19291977025568485260009765625">
        <ele>669.5999755859375</ele>
        <time>2026-08-22T04:09:39.000Z</time>
        <extensions>
          <ns3:TrackPointExtension>
            <ns3:hr>143</ns3:hr>
            <ns3:cad>0</ns3:cad>
          </ns3:TrackPointExtension>
        </extensions>
      </trkpt>
      <trkpt lat="45.257659368216991424560546875" lon="-71.19291977025568485260009765625">
        <ele>669.5999755859375</ele>
        <time>2026-08-22T04:09:40.000Z</time>
        <extensions>
          <ns3:TrackPointExtension>
            <ns3:hr>143</ns3:hr>
            <ns3:cad>0</ns3:cad>
          </ns3:TrackPointExtension>
        </extensions>
      </trkpt>
      <trkpt lat="45.25765827856957912445068359375" lon="-71.1929195187985897064208984375">
        <ele>669.5999755859375</ele>
        <time>2026-08-22T04:09:41.000Z</time>
        <extensions>
          <ns3:TrackPointExtension>
            <ns3:hr>143</ns3:hr>
            <ns3:cad>0</ns3:cad>
          </ns3:TrackPointExtension>
        </extensions>
      </trkpt>
      <trkpt lat="45.257662050426006317138671875" lon="-71.1929144896566867828369140625">
        <ele>669.5999755859375</ele>
        <time>2026-08-22T04:09:42.000Z</time>
        <extensions>
          <ns3:TrackPointExtension>
            <ns3:hr>143</ns3:hr>
            <ns3:cad>0</ns3:cad>
          </ns3:TrackPointExtension>
        </extensions>
      </trkpt>
      <trkpt lat="45.25766800157725811004638671875" lon="-71.19290468282997608184814453125">
        <ele>669.5999755859375</ele>
        <time>2026-08-22T04:09:43.000Z</time>
        <extensions>
          <ns3:TrackPointExtension>
            <ns3:hr>143</ns3:hr>
            <ns3:cad>0</ns3:cad>
          </ns3:TrackPointExtension>
        </extensions>
      </trkpt>
      <trkpt lat="45.25767303071916103363037109375" lon="-71.1928943730890750885009765625">
        <ele>669.4000244140625</ele>
        <time>2026-08-22T04:09:44.000Z</time>
        <extensions>
          <ns3:TrackPointExtension>
            <ns3:hr>143</ns3:hr>
            <ns3:cad>0</ns3:cad>
          </ns3:TrackPointExtension>
        </extensions>
      </trkpt>
      <trkpt lat="45.25767873041331768035888671875" lon="-71.1928856559097766876220703125">
        <ele>669.20001220703125</ele>
        <time>2026-08-22T04:09:45.000Z</time>
        <extensions>
          <ns3:TrackPointExtension>
            <ns3:hr>142</ns3:hr>
            <ns3:cad>0</ns3:cad>
          </ns3:TrackPointExtension>
        </extensions>
      </trkpt>
      <trkpt lat="45.25768627412617206573486328125" lon="-71.192875765264034271240234375">
        <ele>669.20001220703125</ele>
        <time>2026-08-22T04:09:46.000Z</time>
        <extensions>
          <ns3:TrackPointExtension>
            <ns3:hr>142</ns3:hr>
            <ns3:cad>0</ns3:cad>
          </ns3:TrackPointExtension>
        </extensions>
      </trkpt>
      <trkpt lat="45.25769599713385105133056640625" lon="-71.1928665451705455780029296875">
        <ele>669</ele>
        <time>2026-08-22T04:09:47.000Z</time>
        <extensions>
          <ns3:TrackPointExtension>
            <ns3:hr>141</ns3:hr>
            <ns3:cad>52</ns3:cad>
          </ns3:TrackPointExtension>
        </extensions>
      </trkpt>
      <trkpt lat="45.257703959941864013671875" lon="-71.192859001457691192626953125">
        <ele>668.79998779296875</ele>
        <time>2026-08-22T04:09:48.000Z</time>
        <extensions>
          <ns3:TrackPointExtension>
            <ns3:hr>141</ns3:hr>
            <ns3:cad>52</ns3:cad>
          </ns3:TrackPointExtension>
        </extensions>
      </trkpt>
      <trkpt lat="45.2577101625502109527587890625" lon="-71.19284818880259990692138671875">
        <ele>668.79998779296875</ele>
        <time>2026-08-22T04:09:49.000Z</time>
        <extensions>
          <ns3:TrackPointExtension>
            <ns3:hr>140</ns3:hr>
            <ns3:cad>52</ns3:cad>
          </ns3:TrackPointExtension>
        </extensions>
      </trkpt>
      <trkpt lat="45.25771829299628734588623046875" lon="-71.1928383819758892059326171875">
        <ele>668.5999755859375</ele>
        <time>2026-08-22T04:09:50.000Z</time>
        <extensions>
          <ns3:TrackPointExtension>
            <ns3:hr>139</ns3:hr>
            <ns3:cad>52</ns3:cad>
          </ns3:TrackPointExtension>
        </extensions>
      </trkpt>
      <trkpt lat="45.25772885419428348541259765625" lon="-71.192826144397258758544921875">
        <ele>668.4000244140625</ele>
        <time>2026-08-22T04:09:51.000Z</time>
        <extensions>
          <ns3:TrackPointExtension>
            <ns3:hr>139</ns3:hr>
            <ns3:cad>52</ns3:cad>
          </ns3:TrackPointExtension>
        </extensions>
      </trkpt>
      <trkpt lat="45.25774075649678707122802734375" lon="-71.1928145773708820343017578125">
        <ele>668.20001220703125</ele>
        <time>2026-08-22T04:09:52.000Z</time>
        <extensions>
          <ns3:TrackPointExtension>
            <ns3:hr>138</ns3:hr>
            <ns3:cad>52</ns3:cad>
          </ns3:TrackPointExtension>
        </extensions>
      </trkpt>
      <trkpt lat="45.2577594481408596038818359375" lon="-71.19280493818223476409912109375">
        <ele>668</ele>
        <time>2026-08-22T04:09:53.000Z</time>
        <extensions>
          <ns3:TrackPointExtension>
            <ns3:hr>138</ns3:hr>
            <ns3:cad>52</ns3:cad>
          </ns3:TrackPointExtension>
        </extensions>
      </trkpt>
      <trkpt lat="45.25777705013751983642578125" lon="-71.1927951313555240631103515625">
        <ele>667.79998779296875</ele>
        <time>2026-08-22T04:09:54.000Z</time>
        <extensions>
          <ns3:TrackPointExtension>
            <ns3:hr>138</ns3:hr>
            <ns3:cad>52</ns3:cad>
          </ns3:TrackPointExtension>
        </extensions>
      </trkpt>
      <trkpt lat="45.257797501981258392333984375" lon="-71.19278666563332080841064453125">
        <ele>667.5999755859375</ele>
        <time>2026-08-22T04:09:55.000Z</time>
        <extensions>
          <ns3:TrackPointExtension>
            <ns3:hr>138</ns3:hr>
            <ns3:cad>52</ns3:cad>
          </ns3:TrackPointExtension>
        </extensions>
      </trkpt>
      <trkpt lat="45.25782323442399501800537109375" lon="-71.1927773617208003997802734375">
        <ele>667.20001220703125</ele>
        <time>2026-08-22T04:09:56.000Z</time>
        <extensions>
          <ns3:TrackPointExtension>
            <ns3:hr>137</ns3:hr>
            <ns3:cad>52</ns3:cad>
          </ns3:TrackPointExtension>
        </extensions>
      </trkpt>
      <trkpt lat="45.2578459493815898895263671875" lon="-71.19277224875986576080322265625">
        <ele>667</ele>
        <time>2026-08-22T04:09:57.000Z</time>
        <extensions>
          <ns3:TrackPointExtension>
            <ns3:hr>137</ns3:hr>
            <ns3:cad>80</ns3:cad>
          </ns3:TrackPointExtension>
        </extensions>
      </trkpt>
      <trkpt lat="45.25786933489143848419189453125" lon="-71.19276923127472400665283203125">
        <ele>666.79998779296875</ele>
        <time>2026-08-22T04:09:58.000Z</time>
        <extensions>
          <ns3:TrackPointExtension>
            <ns3:hr>137</ns3:hr>
            <ns3:cad>80</ns3:cad>
          </ns3:TrackPointExtension>
        </extensions>
      </trkpt>
      <trkpt lat="45.25789297185838222503662109375" lon="-71.192766465246677398681640625">
        <ele>666.5999755859375</ele>
        <time>2026-08-22T04:09:59.000Z</time>
        <extensions>
          <ns3:TrackPointExtension>
            <ns3:hr>137</ns3:hr>
            <ns3:cad>82</ns3:cad>
          </ns3:TrackPointExtension>
        </extensions>
      </trkpt>
      <trkpt lat="45.2579160220921039581298828125" lon="-71.19276571087539196014404296875">
        <ele>666.5999755859375</ele>
        <time>2026-08-22T04:10:00.000Z</time>
        <extensions>
          <ns3:TrackPointExtension>
            <ns3:hr>136</ns3:hr>
            <ns3:cad>83</ns3:cad>
          </ns3:TrackPointExtension>
        </extensions>
      </trkpt>
      <trkpt lat="45.25793923996388912200927734375" lon="-71.19276638142764568328857421875">
        <ele>666.79998779296875</ele>
        <time>2026-08-22T04:10:01.000Z</time>
        <extensions>
          <ns3:TrackPointExtension>
            <ns3:hr>136</ns3:hr>
            <ns3:cad>83</ns3:cad>
          </ns3:TrackPointExtension>
        </extensions>
      </trkpt>
      <trkpt lat="45.2579609490931034088134765625" lon="-71.19276487268507480621337890625">
        <ele>667</ele>
        <time>2026-08-22T04:10:02.000Z</time>
        <extensions>
          <ns3:TrackPointExtension>
            <ns3:hr>135</ns3:hr>
            <ns3:cad>83</ns3:cad>
          </ns3:TrackPointExtension>
        </extensions>
      </trkpt>
      <trkpt lat="45.25798215530812740325927734375" lon="-71.19276680052280426025390625">
        <ele>667</ele>
        <time>2026-08-22T04:10:03.000Z</time>
        <extensions>
          <ns3:TrackPointExtension>
            <ns3:hr>135</ns3:hr>
            <ns3:cad>83</ns3:cad>
          </ns3:TrackPointExtension>
        </extensions>
      </trkpt>
      <trkpt lat="45.258007049560546875" lon="-71.19276906363666057586669921875">
        <ele>667.20001220703125</ele>
        <time>2026-08-22T04:10:04.000Z</time>
        <extensions>
          <ns3:TrackPointExtension>
            <ns3:hr>134</ns3:hr>
            <ns3:cad>82</ns3:cad>
          </ns3:TrackPointExtension>
        </extensions>
      </trkpt>
      <trkpt lat="45.2580303512513637542724609375" lon="-71.1927773617208003997802734375">
        <ele>667.4000244140625</ele>
        <time>2026-08-22T04:10:05.000Z</time>
        <extensions>
          <ns3:TrackPointExtension>
            <ns3:hr>134</ns3:hr>
            <ns3:cad>82</ns3:cad>
          </ns3:TrackPointExtension>
        </extensions>
      </trkpt>
      <trkpt lat="45.25804870761930942535400390625" lon="-71.1927820555865764617919921875">
        <ele>667.4000244140625</ele>
        <time>2026-08-22T04:10:06.000Z</time>
        <extensions>
          <ns3:TrackPointExtension>
            <ns3:hr>134</ns3:hr>
            <ns3:cad>81</ns3:cad>
          </ns3:TrackPointExtension>
        </extensions>
      </trkpt>
      <trkpt lat="45.25806983001530170440673828125" lon="-71.19278884492814540863037109375">
        <ele>667.5999755859375</ele>
        <time>2026-08-22T04:10:07.000Z</time>
        <extensions>
          <ns3:TrackPointExtension>
            <ns3:hr>133</ns3:hr>
            <ns3:cad>81</ns3:cad>
          </ns3:TrackPointExtension>
        </extensions>
      </trkpt>
      <trkpt lat="45.2580927126109600067138671875" lon="-71.1927974782884120941162109375">
        <ele>668</ele>
        <time>2026-08-22T04:10:08.000Z</time>
        <extensions>
          <ns3:TrackPointExtension>
            <ns3:hr>133</ns3:hr>
            <ns3:cad>81</ns3:cad>
          </ns3:TrackPointExtension>
        </extensions>
      </trkpt>
      <trkpt lat="45.25811123661696910858154296875" lon="-71.19280426762998104095458984375">
        <ele>668.20001220703125</ele>
        <time>2026-08-22T04:10:09.000Z</time>
        <extensions>
          <ns3:TrackPointExtension>
            <ns3:hr>132</ns3:hr>
            <ns3:cad>80</ns3:cad>
          </ns3:TrackPointExtension>
        </extensions>
      </trkpt>
      <trkpt lat="45.25813537649810314178466796875" lon="-71.192813403904438018798828125">
        <ele>668.4000244140625</ele>
        <time>2026-08-22T04:10:10.000Z</time>
        <extensions>
          <ns3:TrackPointExtension>
            <ns3:hr>132</ns3:hr>
            <ns3:cad>80</ns3:cad>
          </ns3:TrackPointExtension>
        </extensions>
      </trkpt>
      <trkpt lat="45.2581567503511905670166015625" lon="-71.192824132740497589111328125">
        <ele>668.5999755859375</ele>
        <time>2026-08-22T04:10:11.000Z</time>
        <extensions>
          <ns3:TrackPointExtension>
            <ns3:hr>132</ns3:hr>
            <ns3:cad>79</ns3:cad>
          </ns3:TrackPointExtension>
        </extensions>
      </trkpt>
      <trkpt lat="45.25817661546170711517333984375" lon="-71.19283310137689113616943359375">
        <ele>668.5999755859375</ele>
        <time>2026-08-22T04:10:12.000Z</time>
        <extensions>
          <ns3:TrackPointExtension>
            <ns3:hr>132</ns3:hr>
            <ns3:cad>79</ns3:cad>
          </ns3:TrackPointExtension>
        </extensions>
      </trkpt>
      <trkpt lat="45.25819807313382625579833984375" lon="-71.1928434111177921295166015625">
        <ele>668.5999755859375</ele>
        <time>2026-08-22T04:10:13.000Z</time>
        <extensions>
          <ns3:TrackPointExtension>
            <ns3:hr>132</ns3:hr>
            <ns3:cad>79</ns3:cad>
          </ns3:TrackPointExtension>
        </extensions>
      </trkpt>
      <trkpt lat="45.2582176029682159423828125" lon="-71.19285137392580509185791015625">
        <ele>668.79998779296875</ele>
        <time>2026-08-22T04:10:14.000Z</time>
        <extensions>
          <ns3:TrackPointExtension>
            <ns3:hr>132</ns3:hr>
            <ns3:cad>80</ns3:cad>
          </ns3:TrackPointExtension>
        </extensions>
      </trkpt>
      <trkpt lat="45.25823461823165416717529296875" lon="-71.19286193512380123138427734375">
        <ele>669</ele>
        <time>2026-08-22T04:10:15.000Z</time>
        <extensions>
          <ns3:TrackPointExtension>
            <ns3:hr>132</ns3:hr>
            <ns3:cad>80</ns3:cad>
          </ns3:TrackPointExtension>
        </extensions>
      </trkpt>
      <trkpt lat="45.25825180113315582275390625" lon="-71.1928719095885753631591796875">
        <ele>669</ele>
        <time>2026-08-22T04:10:16.000Z</time>
        <extensions>
          <ns3:TrackPointExtension>
            <ns3:hr>132</ns3:hr>
            <ns3:cad>80</ns3:cad>
          </ns3:TrackPointExtension>
        </extensions>
      </trkpt>
      <trkpt lat="45.25827049277722835540771484375" lon="-71.19288523681461811065673828125">
        <ele>669.20001220703125</ele>
        <time>2026-08-22T04:10:17.000Z</time>
        <extensions>
          <ns3:TrackPointExtension>
            <ns3:hr>132</ns3:hr>
            <ns3:cad>80</ns3:cad>
          </ns3:TrackPointExtension>
        </extensions>
      </trkpt>
      <trkpt lat="45.25828507728874683380126953125" lon="-71.1928975582122802734375">
        <ele>669.4000244140625</ele>
        <time>2026-08-22T04:10:18.000Z</time>
        <extensions>
          <ns3:TrackPointExtension>
            <ns3:hr>132</ns3:hr>
            <ns3:cad>79</ns3:cad>
          </ns3:TrackPointExtension>
        </extensions>
      </trkpt>
      <trkpt lat="45.2583005838096141815185546875" lon="-71.19291390292346477508544921875">
        <ele>669.5999755859375</ele>
        <time>2026-08-22T04:10:19.000Z</time>
        <extensions>
          <ns3:TrackPointExtension>
            <ns3:hr>132</ns3:hr>
            <ns3:cad>79</ns3:cad>
          </ns3:TrackPointExtension>
        </extensions>
      </trkpt>
      <trkpt lat="45.25831525214016437530517578125" lon="-71.192927062511444091796875">
        <ele>669.5999755859375</ele>
        <time>2026-08-22T04:10:20.000Z</time>
        <extensions>
          <ns3:TrackPointExtension>
            <ns3:hr>133</ns3:hr>
            <ns3:cad>79</ns3:cad>
          </ns3:TrackPointExtension>
        </extensions>
      </trkpt>
      <trkpt lat="45.2583270706236362457275390625" lon="-71.19293670170009136199951171875">
        <ele>669.79998779296875</ele>
        <time>2026-08-22T04:10:21.000Z</time>
        <extensions>
          <ns3:TrackPointExtension>
            <ns3:hr>133</ns3:hr>
            <ns3:cad>76</ns3:cad>
          </ns3:TrackPointExtension>
        </extensions>
      </trkpt>
      <trkpt lat="45.258337296545505523681640625" lon="-71.19294784963130950927734375">
        <ele>670</ele>
        <time>2026-08-22T04:10:22.000Z</time>
        <extensions>
          <ns3:TrackPointExtension>
            <ns3:hr>133</ns3:hr>
            <ns3:cad>76</ns3:cad>
          </ns3:TrackPointExtension>
        </extensions>
      </trkpt>
      <trkpt lat="45.25834626518189907073974609375" lon="-71.19295765645802021026611328125">
        <ele>670.20001220703125</ele>
        <time>2026-08-22T04:10:23.000Z</time>
        <extensions>
          <ns3:TrackPointExtension>
            <ns3:hr>134</ns3:hr>
            <ns3:cad>76</ns3:cad>
          </ns3:TrackPointExtension>
        </extensions>
      </trkpt>
      <trkpt lat="45.25834894739091396331787109375" lon="-71.1929637752473354339599609375">
        <ele>670.5999755859375</ele>
        <time>2026-08-22T04:10:24.000Z</time>
        <extensions>
          <ns3:TrackPointExtension>
            <ns3:hr>134</ns3:hr>
            <ns3:cad>76</ns3:cad>
          </ns3:TrackPointExtension>
        </extensions>
      </trkpt>
      <trkpt lat="45.25835045613348484039306640625" lon="-71.1929661221802234649658203125">
        <ele>670.79998779296875</ele>
        <time>2026-08-22T04:10:25.000Z</time>
        <extensions>
          <ns3:TrackPointExtension>
            <ns3:hr>134</ns3:hr>
            <ns3:cad>0</ns3:cad>
          </ns3:TrackPointExtension>
        </extensions>
      </trkpt>
      <trkpt lat="45.25834995321929454803466796875" lon="-71.1929677985608577728271484375">
        <ele>670.79998779296875</ele>
        <time>2026-08-22T04:10:26.000Z</time>
        <extensions>
          <ns3:TrackPointExtension>
            <ns3:hr>134</ns3:hr>
            <ns3:cad>0</ns3:cad>
          </ns3:TrackPointExtension>
        </extensions>
      </trkpt>
      <trkpt lat="45.25834701955318450927734375" lon="-71.19296419434249401092529296875">
        <ele>671</ele>
        <time>2026-08-22T04:10:27.000Z</time>
        <extensions>
          <ns3:TrackPointExtension>
            <ns3:hr>133</ns3:hr>
            <ns3:cad>0</ns3:cad>
          </ns3:TrackPointExtension>
        </extensions>
      </trkpt>
      <trkpt lat="45.2583468519151210784912109375" lon="-71.1929641105234622955322265625">
        <ele>671</ele>
        <time>2026-08-22T04:10:28.000Z</time>
        <extensions>
          <ns3:TrackPointExtension>
            <ns3:hr>133</ns3:hr>
            <ns3:cad>0</ns3:cad>
          </ns3:TrackPointExtension>
        </extensions>
      </trkpt>
      <trkpt lat="45.2583468519151210784912109375" lon="-71.1929641105234622955322265625">
        <ele>671</ele>
        <time>2026-08-22T04:10:29.000Z</time>
        <extensions>
          <ns3:TrackPointExtension>
            <ns3:hr>133</ns3:hr>
            <ns3:cad>0</ns3:cad>
          </ns3:TrackPointExtension>
        </extensions>
      </trkpt>
      <trkpt lat="45.2583468519151210784912109375" lon="-71.1929641105234622955322265625">
        <ele>671</ele>
        <time>2026-08-22T04:10:30.000Z</time>
        <extensions>
          <ns3:TrackPointExtension>
            <ns3:hr>133</ns3:hr>
            <ns3:cad>0</ns3:cad>
          </ns3:TrackPointExtension>
        </extensions>
      </trkpt>
      <trkpt lat="45.25834643281996250152587890625" lon="-71.19296352379024028778076171875">
        <ele>671</ele>
        <time>2026-08-22T04:10:31.000Z</time>
        <extensions>
          <ns3:TrackPointExtension>
            <ns3:hr>133</ns3:hr>
            <ns3:cad>0</ns3:cad>
          </ns3:TrackPointExtension>
        </extensions>
      </trkpt>
      <trkpt lat="45.25834023021161556243896484375" lon="-71.19295313023030757904052734375">
        <ele>671</ele>
        <time>2026-08-22T04:10:32.000Z</time>
        <extensions>
          <ns3:TrackPointExtension>
            <ns3:hr>133</ns3:hr>
            <ns3:cad>0</ns3:cad>
          </ns3:TrackPointExtension>
        </extensions>
      </trkpt>
      <trkpt lat="45.25833620689809322357177734375" lon="-71.19293871335685253143310546875">
        <ele>671</ele>
        <time>2026-08-22T04:10:33.000Z</time>
        <extensions>
          <ns3:TrackPointExtension>
            <ns3:hr>133</ns3:hr>
            <ns3:cad>0</ns3:cad>
          </ns3:TrackPointExtension>
        </extensions>
      </trkpt>
      <trkpt lat="45.258329920470714569091796875" lon="-71.19291876442730426788330078125">
        <ele>670.79998779296875</ele>
        <time>2026-08-22T04:10:34.000Z</time>
        <extensions>
          <ns3:TrackPointExtension>
            <ns3:hr>134</ns3:hr>
            <ns3:cad>0</ns3:cad>
          </ns3:TrackPointExtension>
        </extensions>
      </trkpt>
      <trkpt lat="45.258324556052684783935546875" lon="-71.1929024197161197662353515625">
        <ele>670.79998779296875</ele>
        <time>2026-08-22T04:10:35.000Z</time>
        <extensions>
          <ns3:TrackPointExtension>
            <ns3:hr>134</ns3:hr>
            <ns3:cad>0</ns3:cad>
          </ns3:TrackPointExtension>
        </extensions>
      </trkpt>
      <trkpt lat="45.2583195269107818603515625" lon="-71.19288926012814044952392578125">
        <ele>670.5999755859375</ele>
        <time>2026-08-22T04:10:36.000Z</time>
        <extensions>
          <ns3:TrackPointExtension>
            <ns3:hr>134</ns3:hr>
            <ns3:cad>0</ns3:cad>
          </ns3:TrackPointExtension>
        </extensions>
      </trkpt>
      <trkpt lat="45.25830946862697601318359375" lon="-71.1928742565214633941650390625">
        <ele>670.5999755859375</ele>
        <time>2026-08-22T04:10:37.000Z</time>
        <extensions>
          <ns3:TrackPointExtension>
            <ns3:hr>133</ns3:hr>
            <ns3:cad>53</ns3:cad>
          </ns3:TrackPointExtension>
        </extensions>
      </trkpt>
      <trkpt lat="45.25829899124801158905029296875" lon="-71.192863024771213531494140625">
        <ele>670.4000244140625</ele>
        <time>2026-08-22T04:10:38.000Z</time>
        <extensions>
          <ns3:TrackPointExtension>
            <ns3:hr>134</ns3:hr>
            <ns3:cad>54</ns3:cad>
          </ns3:TrackPointExtension>
        </extensions>
      </trkpt>
      <trkpt lat="45.258278958499431610107421875" lon="-71.1928484402596950531005859375">
        <ele>670.20001220703125</ele>
        <time>2026-08-22T04:10:39.000Z</time>
        <extensions>
          <ns3:TrackPointExtension>
            <ns3:hr>134</ns3:hr>
            <ns3:cad>54</ns3:cad>
          </ns3:TrackPointExtension>
        </extensions>
      </trkpt>
      <trkpt lat="45.258258171379566192626953125" lon="-71.192835867404937744140625">
        <ele>670.20001220703125</ele>
        <time>2026-08-22T04:10:40.000Z</time>
        <extensions>
          <ns3:TrackPointExtension>
            <ns3:hr>134</ns3:hr>
            <ns3:cad>54</ns3:cad>
          </ns3:TrackPointExtension>
        </extensions>
      </trkpt>
      <trkpt lat="45.258229337632656097412109375" lon="-71.1928206123411655426025390625">
        <ele>670</ele>
        <time>2026-08-22T04:10:41.000Z</time>
        <extensions>
          <ns3:TrackPointExtension>
            <ns3:hr>135</ns3:hr>
            <ns3:cad>54</ns3:cad>
          </ns3:TrackPointExtension>
        </extensions>
      </trkpt>
      <trkpt lat="45.258203186094760894775390625" lon="-71.1928041838109493255615234375">
        <ele>669.79998779296875</ele>
        <time>2026-08-22T04:10:42.000Z</time>
        <extensions>
          <ns3:TrackPointExtension>
            <ns3:hr>135</ns3:hr>
            <ns3:cad>79</ns3:cad>
          </ns3:TrackPointExtension>
        </extensions>
      </trkpt>
      <trkpt lat="45.25817292742431163787841796875" lon="-71.1927827261388301849365234375">
        <ele>669.79998779296875</ele>
        <time>2026-08-22T04:10:43.000Z</time>
        <extensions>
          <ns3:TrackPointExtension>
            <ns3:hr>135</ns3:hr>
            <ns3:cad>83</ns3:cad>
          </ns3:TrackPointExtension>
        </extensions>
      </trkpt>
      <trkpt lat="45.25814342312514781951904296875" lon="-71.19276185519993305206298828125">
        <ele>669.5999755859375</ele>
        <time>2026-08-22T04:10:44.000Z</time>
        <extensions>
          <ns3:TrackPointExtension>
            <ns3:hr>135</ns3:hr>
            <ns3:cad>85</ns3:cad>
          </ns3:TrackPointExtension>
        </extensions>
      </trkpt>
      <trkpt lat="45.25811073370277881622314453125" lon="-71.19274559430778026580810546875">
        <ele>669.4000244140625</ele>
        <time>2026-08-22T04:10:45.000Z</time>
        <extensions>
          <ns3:TrackPointExtension>
            <ns3:hr>136</ns3:hr>
            <ns3:cad>86</ns3:cad>
          </ns3:TrackPointExtension>
        </extensions>
      </trkpt>
      <trkpt lat="45.2580779604613780975341796875" lon="-71.19273218326270580291748046875">
        <ele>669.20001220703125</ele>
        <time>2026-08-22T04:10:46.000Z</time>
        <extensions>
          <ns3:TrackPointExtension>
            <ns3:hr>136</ns3:hr>
            <ns3:cad>86</ns3:cad>
          </ns3:TrackPointExtension>
        </extensions>
      </trkpt>
      <trkpt lat="45.2580518089234828948974609375" lon="-71.19272095151245594024658203125">
        <ele>669.20001220703125</ele>
        <time>2026-08-22T04:10:47.000Z</time>
        <extensions>
          <ns3:TrackPointExtension>
            <ns3:hr>136</ns3:hr>
            <ns3:cad>87</ns3:cad>
          </ns3:TrackPointExtension>
        </extensions>
      </trkpt>
      <trkpt lat="45.2580189518630504608154296875" lon="-71.19271072559058666229248046875">
        <ele>669</ele>
        <time>2026-08-22T04:10:48.000Z</time>
        <extensions>
          <ns3:TrackPointExtension>
            <ns3:hr>137</ns3:hr>
            <ns3:cad>87</ns3:cad>
          </ns3:TrackPointExtension>
        </extensions>
      </trkpt>
      <trkpt lat="45.257988609373569488525390625" lon="-71.19270100258290767669677734375">
        <ele>668.5999755859375</ele>
        <time>2026-08-22T04:10:49.000Z</time>
        <extensions>
          <ns3:TrackPointExtension>
            <ns3:hr>137</ns3:hr>
            <ns3:cad>87</ns3:cad>
          </ns3:TrackPointExtension>
        </extensions>
      </trkpt>
      <trkpt lat="45.2579562552273273468017578125" lon="-71.1926922015845775604248046875">
        <ele>668.4000244140625</ele>
        <time>2026-08-22T04:10:50.000Z</time>
        <extensions>
          <ns3:TrackPointExtension>
            <ns3:hr>137</ns3:hr>
            <ns3:cad>86</ns3:cad>
          </ns3:TrackPointExtension>
        </extensions>
      </trkpt>
      <trkpt lat="45.25792725384235382080078125" lon="-71.19268834590911865234375">
        <ele>668.20001220703125</ele>
        <time>2026-08-22T04:10:51.000Z</time>
        <extensions>
          <ns3:TrackPointExtension>
            <ns3:hr>137</ns3:hr>
            <ns3:cad>86</ns3:cad>
          </ns3:TrackPointExtension>
        </extensions>
      </trkpt>
      <trkpt lat="45.2578969113528728485107421875" lon="-71.19268457405269145965576171875">
        <ele>668</ele>
        <time>2026-08-22T04:10:52.000Z</time>
        <extensions>
          <ns3:TrackPointExtension>
            <ns3:hr>136</ns3:hr>
            <ns3:cad>86</ns3:cad>
          </ns3:TrackPointExtension>
        </extensions>
      </trkpt>
      <trkpt lat="45.25786564685404300689697265625" lon="-71.19268323294818401336669921875">
        <ele>667.79998779296875</ele>
        <time>2026-08-22T04:10:53.000Z</time>
        <extensions>
          <ns3:TrackPointExtension>
            <ns3:hr>137</ns3:hr>
            <ns3:cad>86</ns3:cad>
          </ns3:TrackPointExtension>
        </extensions>
      </trkpt>
      <trkpt lat="45.257839746773242950439453125" lon="-71.1926797963678836822509765625">
        <ele>667.5999755859375</ele>
        <time>2026-08-22T04:10:54.000Z</time>
        <extensions>
          <ns3:TrackPointExtension>
            <ns3:hr>137</ns3:hr>
            <ns3:cad>87</ns3:cad>
          </ns3:TrackPointExtension>
        </extensions>
      </trkpt>
      <trkpt lat="45.257810242474079132080078125" lon="-71.19268524460494518280029296875">
        <ele>667.5999755859375</ele>
        <time>2026-08-22T04:10:55.000Z</time>
        <extensions>
          <ns3:TrackPointExtension>
            <ns3:hr>136</ns3:hr>
            <ns3:cad>87</ns3:cad>
          </ns3:TrackPointExtension>
        </extensions>
      </trkpt>
      <trkpt lat="45.25778920389711856842041015625" lon="-71.19269195012748241424560546875">
        <ele>667.5999755859375</ele>
        <time>2026-08-22T04:10:56.000Z</time>
        <extensions>
          <ns3:TrackPointExtension>
            <ns3:hr>137</ns3:hr>
            <ns3:cad>86</ns3:cad>
          </ns3:TrackPointExtension>
        </extensions>
      </trkpt>
      <trkpt lat="45.25776305235922336578369140625" lon="-71.1927049420773983001708984375">
        <ele>667.5999755859375</ele>
        <time>2026-08-22T04:10:57.000Z</time>
        <extensions>
          <ns3:TrackPointExtension>
            <ns3:hr>137</ns3:hr>
            <ns3:cad>85</ns3:cad>
          </ns3:TrackPointExtension>
        </extensions>
      </trkpt>
      <trkpt lat="45.2577379904687404632568359375" lon="-71.19271759875118732452392578125">
        <ele>667.5999755859375</ele>
        <time>2026-08-22T04:10:58.000Z</time>
        <extensions>
          <ns3:TrackPointExtension>
            <ns3:hr>137</ns3:hr>
            <ns3:cad>85</ns3:cad>
          </ns3:TrackPointExtension>
        </extensions>
      </trkpt>
      <trkpt lat="45.2577158622443675994873046875" lon="-71.19272832758724689483642578125">
        <ele>667.79998779296875</ele>
        <time>2026-08-22T04:10:59.000Z</time>
        <extensions>
          <ns3:TrackPointExtension>
            <ns3:hr>137</ns3:hr>
            <ns3:cad>85</ns3:cad>
          </ns3:TrackPointExtension>
        </extensions>
      </trkpt>
      <trkpt lat="45.25769566185772418975830078125" lon="-71.1927508749067783355712890625">
        <ele>668.20001220703125</ele>
        <time>2026-08-22T04:11:00.000Z</time>
        <extensions>
          <ns3:TrackPointExtension>
            <ns3:hr>138</ns3:hr>
            <ns3:cad>85</ns3:cad>
          </ns3:TrackPointExtension>
        </extensions>
      </trkpt>
      <trkpt lat="45.25767453946173191070556640625" lon="-71.19277459569275379180908203125">
        <ele>668.4000244140625</ele>
        <time>2026-08-22T04:11:01.000Z</time>
        <extensions>
          <ns3:TrackPointExtension>
            <ns3:hr>138</ns3:hr>
            <ns3:cad>84</ns3:cad>
          </ns3:TrackPointExtension>
        </extensions>
      </trkpt>
      <trkpt lat="45.257654003798961639404296875" lon="-71.192797310650348663330078125">
        <ele>668.79998779296875</ele>
        <time>2026-08-22T04:11:02.000Z</time>
        <extensions>
          <ns3:TrackPointExtension>
            <ns3:hr>138</ns3:hr>
            <ns3:cad>84</ns3:cad>
          </ns3:TrackPointExtension>
        </extensions>
      </trkpt>
      <trkpt lat="45.2576367370784282684326171875" lon="-71.192821450531482696533203125">
        <ele>669</ele>
        <time>2026-08-22T04:11:03.000Z</time>
        <extensions>
          <ns3:TrackPointExtension>
            <ns3:hr>138</ns3:hr>
            <ns3:cad>84</ns3:cad>
          </ns3:TrackPointExtension>
        </extensions>
      </trkpt>
      <trkpt lat="45.25762089528143405914306640625" lon="-71.192848272621631622314453125">
        <ele>669.20001220703125</ele>
        <time>2026-08-22T04:11:04.000Z</time>
        <extensions>
          <ns3:TrackPointExtension>
            <ns3:hr>138</ns3:hr>
            <ns3:cad>83</ns3:cad>
          </ns3:TrackPointExtension>
        </extensions>
      </trkpt>
      <trkpt lat="45.257605724036693572998046875" lon="-71.19288154877722263336181640625">
        <ele>669.4000244140625</ele>
        <time>2026-08-22T04:11:05.000Z</time>
        <extensions>
          <ns3:TrackPointExtension>
            <ns3:hr>138</ns3:hr>
            <ns3:cad>83</ns3:cad>
          </ns3:TrackPointExtension>
        </extensions>
      </trkpt>
      <trkpt lat="45.25759021751582622528076171875" lon="-71.19290828704833984375">
        <ele>669.5999755859375</ele>
        <time>2026-08-22T04:11:06.000Z</time>
        <extensions>
          <ns3:TrackPointExtension>
            <ns3:hr>139</ns3:hr>
            <ns3:cad>83</ns3:cad>
          </ns3:TrackPointExtension>
        </extensions>
      </trkpt>
      <trkpt lat="45.25758217088878154754638671875" lon="-71.19293846189975738525390625">
        <ele>670</ele>
        <time>2026-08-22T04:11:07.000Z</time>
        <extensions>
          <ns3:TrackPointExtension>
            <ns3:hr>138</ns3:hr>
            <ns3:cad>83</ns3:cad>
          </ns3:TrackPointExtension>
        </extensions>
      </trkpt>
      <trkpt lat="45.25758150033652782440185546875" lon="-71.19297626428306102752685546875">
        <ele>670.20001220703125</ele>
        <time>2026-08-22T04:11:08.000Z</time>
        <extensions>
          <ns3:TrackPointExtension>
            <ns3:hr>138</ns3:hr>
            <ns3:cad>83</ns3:cad>
          </ns3:TrackPointExtension>
        </extensions>
      </trkpt>
      <trkpt lat="45.25758636184036731719970703125" lon="-71.19301465339958667755126953125">
        <ele>670.5999755859375</ele>
        <time>2026-08-22T04:11:09.000Z</time>
        <extensions>
          <ns3:TrackPointExtension>
            <ns3:hr>139</ns3:hr>
            <ns3:cad>75</ns3:cad>
          </ns3:TrackPointExtension>
        </extensions>
      </trkpt>
      <trkpt lat="45.25759868323802947998046875" lon="-71.19305170141160488128662109375">
        <ele>670.79998779296875</ele>
        <time>2026-08-22T04:11:10.000Z</time>
        <extensions>
          <ns3:TrackPointExtension>
            <ns3:hr>139</ns3:hr>
            <ns3:cad>75</ns3:cad>
          </ns3:TrackPointExtension>
        </extensions>
      </trkpt>
      <trkpt lat="45.2576125971972942352294921875" lon="-71.19308003224432468414306640625">
        <ele>671.20001220703125</ele>
        <time>2026-08-22T04:11:11.000Z</time>
        <extensions>
          <ns3:TrackPointExtension>
            <ns3:hr>139</ns3:hr>
            <ns3:cad>75</ns3:cad>
          </ns3:TrackPointExtension>
        </extensions>
      </trkpt>
      <trkpt lat="45.25762709788978099822998046875" lon="-71.1930968798696994781494140625">
        <ele>671.4000244140625</ele>
        <time>2026-08-22T04:11:12.000Z</time>
        <extensions>
          <ns3:TrackPointExtension>
            <ns3:hr>140</ns3:hr>
            <ns3:cad>75</ns3:cad>
          </ns3:TrackPointExtension>
        </extensions>
      </trkpt>
      <trkpt lat="45.257636569440364837646484375" lon="-71.193109788000583648681640625">
        <ele>671.5999755859375</ele>
        <time>2026-08-22T04:11:13.000Z</time>
        <extensions>
          <ns3:TrackPointExtension>
            <ns3:hr>140</ns3:hr>
            <ns3:cad>0</ns3:cad>
          </ns3:TrackPointExtension>
        </extensions>
      </trkpt>
      <trkpt lat="45.2576461248099803924560546875" lon="-71.19311951100826263427734375">
        <ele>671.5999755859375</ele>
        <time>2026-08-22T04:11:14.000Z</time>
        <extensions>
          <ns3:TrackPointExtension>
            <ns3:hr>140</ns3:hr>
            <ns3:cad>0</ns3:cad>
          </ns3:TrackPointExtension>
        </extensions>
      </trkpt>
      <trkpt lat="45.2576558478176593780517578125" lon="-71.19312345050275325775146484375">
        <ele>671.79998779296875</ele>
        <time>2026-08-22T04:11:15.000Z</time>
        <extensions>
          <ns3:TrackPointExtension>
            <ns3:hr>139</ns3:hr>
            <ns3:cad>0</ns3:cad>
          </ns3:TrackPointExtension>
        </extensions>
      </trkpt>
      <trkpt lat="45.2576719410717487335205078125" lon="-71.193130910396575927734375">
        <ele>672.20001220703125</ele>
        <time>2026-08-22T04:11:16.000Z</time>
        <extensions>
          <ns3:TrackPointExtension>
            <ns3:hr>140</ns3:hr>
            <ns3:cad>0</ns3:cad>
          </ns3:TrackPointExtension>
        </extensions>
      </trkpt>
      <trkpt lat="45.25768845342099666595458984375" lon="-71.19313585571944713592529296875">
        <ele>672.4000244140625</ele>
        <time>2026-08-22T04:11:17.000Z</time>
        <extensions>
          <ns3:TrackPointExtension>
            <ns3:hr>140</ns3:hr>
            <ns3:cad>0</ns3:cad>
          </ns3:TrackPointExtension>
        </extensions>
      </trkpt>
      <trkpt lat="45.25770370848476886749267578125" lon="-71.19314038194715976715087890625">
        <ele>672.5999755859375</ele>
        <time>2026-08-22T04:11:18.000Z</time>
        <extensions>
          <ns3:TrackPointExtension>
            <ns3:hr>140</ns3:hr>
            <ns3:cad>55</ns3:cad>
          </ns3:TrackPointExtension>
        </extensions>
      </trkpt>
      <trkpt lat="45.25772030465304851531982421875" lon="-71.19314641691744327545166015625">
        <ele>672.79998779296875</ele>
        <time>2026-08-22T04:11:19.000Z</time>
        <extensions>
          <ns3:TrackPointExtension>
            <ns3:hr>141</ns3:hr>
            <ns3:cad>55</ns3:cad>
          </ns3:TrackPointExtension>
        </extensions>
      </trkpt>
      <trkpt lat="45.2577339671552181243896484375" lon="-71.19315245188772678375244140625">
        <ele>673.20001220703125</ele>
        <time>2026-08-22T04:11:20.000Z</time>
        <extensions>
          <ns3:TrackPointExtension>
            <ns3:hr>141</ns3:hr>
            <ns3:cad>56</ns3:cad>
          </ns3:TrackPointExtension>
        </extensions>
      </trkpt>
      <trkpt lat="45.2577487193048000335693359375" lon="-71.19315865449607372283935546875">
        <ele>673.4000244140625</ele>
        <time>2026-08-22T04:11:21.000Z</time>
        <extensions>
          <ns3:TrackPointExtension>
            <ns3:hr>142</ns3:hr>
            <ns3:cad>56</ns3:cad>
          </ns3:TrackPointExtension>
        </extensions>
      </trkpt>
      <trkpt lat="45.25776456110179424285888671875" lon="-71.19316385127604007720947265625">
        <ele>673.5999755859375</ele>
        <time>2026-08-22T04:11:22.000Z</time>
        <extensions>
          <ns3:TrackPointExtension>
            <ns3:hr>142</ns3:hr>
            <ns3:cad>56</ns3:cad>
          </ns3:TrackPointExtension>
        </extensions>
      </trkpt>
      <trkpt lat="45.25777981616556644439697265625" lon="-71.19317047297954559326171875">
        <ele>673.79998779296875</ele>
        <time>2026-08-22T04:11:23.000Z</time>
        <extensions>
          <ns3:TrackPointExtension>
            <ns3:hr>142</ns3:hr>
            <ns3:cad>55</ns3:cad>
          </ns3:TrackPointExtension>
        </extensions>
      </trkpt>
      <trkpt lat="45.25779590941965579986572265625" lon="-71.19317608885467052459716796875">
        <ele>674</ele>
        <time>2026-08-22T04:11:24.000Z</time>
        <extensions>
          <ns3:TrackPointExtension>
            <ns3:hr>143</ns3:hr>
            <ns3:cad>55</ns3:cad>
          </ns3:TrackPointExtension>
        </extensions>
      </trkpt>
      <trkpt lat="45.25781057775020599365234375" lon="-71.19318145327270030975341796875">
        <ele>674.20001220703125</ele>
        <time>2026-08-22T04:11:25.000Z</time>
        <extensions>
          <ns3:TrackPointExtension>
            <ns3:hr>144</ns3:hr>
            <ns3:cad>55</ns3:cad>
          </ns3:TrackPointExtension>
        </extensions>
      </trkpt>
      <trkpt lat="45.2578260004520416259765625" lon="-71.193186901509761810302734375">
        <ele>674.4000244140625</ele>
        <time>2026-08-22T04:11:26.000Z</time>
        <extensions>
          <ns3:TrackPointExtension>
            <ns3:hr>145</ns3:hr>
            <ns3:cad>55</ns3:cad>
          </ns3:TrackPointExtension>
        </extensions>
      </trkpt>
      <trkpt lat="45.2578382380306720733642578125" lon="-71.19319318793714046478271484375">
        <ele>674.5999755859375</ele>
        <time>2026-08-22T04:11:27.000Z</time>
        <extensions>
          <ns3:TrackPointExtension>
            <ns3:hr>145</ns3:hr>
            <ns3:cad>55</ns3:cad>
          </ns3:TrackPointExtension>
        </extensions>
      </trkpt>
      <trkpt lat="45.25785190053284168243408203125" lon="-71.1931994743645191192626953125">
        <ele>674.79998779296875</ele>
        <time>2026-08-22T04:11:28.000Z</time>
        <extensions>
          <ns3:TrackPointExtension>
            <ns3:hr>145</ns3:hr>
            <ns3:cad>55</ns3:cad>
          </ns3:TrackPointExtension>
        </extensions>
      </trkpt>
      <trkpt lat="45.25786464102566242218017578125" lon="-71.19320609606802463531494140625">
        <ele>675</ele>
        <time>2026-08-22T04:11:29.000Z</time>
        <extensions>
          <ns3:TrackPointExtension>
            <ns3:hr>146</ns3:hr>
            <ns3:cad>55</ns3:cad>
          </ns3:TrackPointExtension>
        </extensions>
      </trkpt>
      <trkpt lat="45.25787587277591228485107421875" lon="-71.1932091973721981048583984375">
        <ele>675.20001220703125</ele>
        <time>2026-08-22T04:11:30.000Z</time>
        <extensions>
          <ns3:TrackPointExtension>
            <ns3:hr>146</ns3:hr>
            <ns3:cad>56</ns3:cad>
          </ns3:TrackPointExtension>
        </extensions>
      </trkpt>
      <trkpt lat="45.25788676925003528594970703125" lon="-71.1932172439992427825927734375">
        <ele>675.4000244140625</ele>
        <time>2026-08-22T04:11:31.000Z</time>
        <extensions>
          <ns3:TrackPointExtension>
            <ns3:hr>146</ns3:hr>
            <ns3:cad>56</ns3:cad>
          </ns3:TrackPointExtension>
        </extensions>
      </trkpt>
      <trkpt lat="45.257900096476078033447265625" lon="-71.1932207643985748291015625">
        <ele>675.5999755859375</ele>
        <time>2026-08-22T04:11:32.000Z</time>
        <extensions>
          <ns3:TrackPointExtension>
            <ns3:hr>146</ns3:hr>
            <ns3:cad>55</ns3:cad>
          </ns3:TrackPointExtension>
        </extensions>
      </trkpt>
      <trkpt lat="45.2579130046069622039794921875" lon="-71.19322554208338260650634765625">
        <ele>675.79998779296875</ele>
        <time>2026-08-22T04:11:33.000Z</time>
        <extensions>
          <ns3:TrackPointExtension>
            <ns3:hr>146</ns3:hr>
            <ns3:cad>54</ns3:cad>
          </ns3:TrackPointExtension>
        </extensions>
      </trkpt>
      <trkpt lat="45.257924906909465789794921875" lon="-71.193232834339141845703125">
        <ele>676</ele>
        <time>2026-08-22T04:11:34.000Z</time>
        <extensions>
          <ns3:TrackPointExtension>
            <ns3:hr>146</ns3:hr>
            <ns3:cad>54</ns3:cad>
          </ns3:TrackPointExtension>
        </extensions>
      </trkpt>
      <trkpt lat="45.25793320499360561370849609375" lon="-71.19324180297553539276123046875">
        <ele>676.20001220703125</ele>
        <time>2026-08-22T04:11:35.000Z</time>
        <extensions>
          <ns3:TrackPointExtension>
            <ns3:hr>146</ns3:hr>
            <ns3:cad>54</ns3:cad>
          </ns3:TrackPointExtension>
        </extensions>
      </trkpt>
      <trkpt lat="45.25794259272515773773193359375" lon="-71.19325387291610240936279296875">
        <ele>676.4000244140625</ele>
        <time>2026-08-22T04:11:36.000Z</time>
        <extensions>
          <ns3:TrackPointExtension>
            <ns3:hr>147</ns3:hr>
            <ns3:cad>54</ns3:cad>
          </ns3:TrackPointExtension>
        </extensions>
      </trkpt>
      <trkpt lat="45.25795139372348785400390625" lon="-71.1932615004479885101318359375">
        <ele>676.5999755859375</ele>
        <time>2026-08-22T04:11:37.000Z</time>
        <extensions>
          <ns3:TrackPointExtension>
            <ns3:hr>146</ns3:hr>
            <ns3:cad>53</ns3:cad>
          </ns3:TrackPointExtension>
        </extensions>
      </trkpt>
      <trkpt lat="45.2579586021602153778076171875" lon="-71.19326996617019176483154296875">
        <ele>676.79998779296875</ele>
        <time>2026-08-22T04:11:38.000Z</time>
        <extensions>
          <ns3:TrackPointExtension>
            <ns3:hr>146</ns3:hr>
            <ns3:cad>53</ns3:cad>
          </ns3:TrackPointExtension>
        </extensions>
      </trkpt>
      <trkpt lat="45.25796589441597461700439453125" lon="-71.1932797729969024658203125">
        <ele>677</ele>
        <time>2026-08-22T04:11:39.000Z</time>
        <extensions>
          <ns3:TrackPointExtension>
            <ns3:hr>146</ns3:hr>
            <ns3:cad>53</ns3:cad>
          </ns3:TrackPointExtension>
        </extensions>
      </trkpt>
      <trkpt lat="45.25797377340495586395263671875" lon="-71.19329192675650119781494140625">
        <ele>677.20001220703125</ele>
        <time>2026-08-22T04:11:40.000Z</time>
        <extensions>
          <ns3:TrackPointExtension>
            <ns3:hr>147</ns3:hr>
            <ns3:cad>53</ns3:cad>
          </ns3:TrackPointExtension>
        </extensions>
      </trkpt>
      <trkpt lat="45.2579815685749053955078125" lon="-71.193300895392894744873046875">
        <ele>677.4000244140625</ele>
        <time>2026-08-22T04:11:41.000Z</time>
        <extensions>
          <ns3:TrackPointExtension>
            <ns3:hr>146</ns3:hr>
            <ns3:cad>53</ns3:cad>
          </ns3:TrackPointExtension>
        </extensions>
      </trkpt>
      <trkpt lat="45.25798534043133258819580078125" lon="-71.193309612572193145751953125">
        <ele>677.5999755859375</ele>
        <time>2026-08-22T04:11:42.000Z</time>
        <extensions>
          <ns3:TrackPointExtension>
            <ns3:hr>146</ns3:hr>
            <ns3:cad>51</ns3:cad>
          </ns3:TrackPointExtension>
        </extensions>
      </trkpt>
      <trkpt lat="45.25798760354518890380859375" lon="-71.1933198384940624237060546875">
        <ele>677.79998779296875</ele>
        <time>2026-08-22T04:11:43.000Z</time>
        <extensions>
          <ns3:TrackPointExtension>
            <ns3:hr>147</ns3:hr>
            <ns3:cad>51</ns3:cad>
          </ns3:TrackPointExtension>
        </extensions>
      </trkpt>
      <trkpt lat="45.2579891122877597808837890625" lon="-71.1933309026062488555908203125">
        <ele>678</ele>
        <time>2026-08-22T04:11:44.000Z</time>
        <extensions>
          <ns3:TrackPointExtension>
            <ns3:hr>148</ns3:hr>
            <ns3:cad>50</ns3:cad>
          </ns3:TrackPointExtension>
        </extensions>
      </trkpt>
      <trkpt lat="45.25799171067774295806884765625" lon="-71.19334020651876926422119140625">
        <ele>678.20001220703125</ele>
        <time>2026-08-22T04:11:45.000Z</time>
        <extensions>
          <ns3:TrackPointExtension>
            <ns3:hr>148</ns3:hr>
            <ns3:cad>50</ns3:cad>
          </ns3:TrackPointExtension>
        </extensions>
      </trkpt>
      <trkpt lat="45.2579924650490283966064453125" lon="-71.1933490075170993804931640625">
        <ele>678.4000244140625</ele>
        <time>2026-08-22T04:11:46.000Z</time>
        <extensions>
          <ns3:TrackPointExtension>
            <ns3:hr>148</ns3:hr>
            <ns3:cad>49</ns3:cad>
          </ns3:TrackPointExtension>
        </extensions>
      </trkpt>
      <trkpt lat="45.2579964883625507354736328125" lon="-71.19336451403796672821044921875">
        <ele>678.5999755859375</ele>
        <time>2026-08-22T04:11:47.000Z</time>
        <extensions>
          <ns3:TrackPointExtension>
            <ns3:hr>148</ns3:hr>
            <ns3:cad>49</ns3:cad>
          </ns3:TrackPointExtension>
        </extensions>
      </trkpt>
      <trkpt lat="45.25800093077123165130615234375" lon="-71.1933771707117557525634765625">
        <ele>678.79998779296875</ele>
        <time>2026-08-22T04:11:48.000Z</time>
        <extensions>
          <ns3:TrackPointExtension>
            <ns3:hr>148</ns3:hr>
            <ns3:cad>49</ns3:cad>
          </ns3:TrackPointExtension>
        </extensions>
      </trkpt>
      <trkpt lat="45.2580055408179759979248046875" lon="-71.19338982738554477691650390625">
        <ele>679</ele>
        <time>2026-08-22T04:11:49.000Z</time>
        <extensions>
          <ns3:TrackPointExtension>
            <ns3:hr>148</ns3:hr>
            <ns3:cad>48</ns3:cad>
          </ns3:TrackPointExtension>
        </extensions>
      </trkpt>
      <trkpt lat="45.25800864212214946746826171875" lon="-71.19340156204998493194580078125">
        <ele>679.20001220703125</ele>
        <time>2026-08-22T04:11:50.000Z</time>
        <extensions>
          <ns3:TrackPointExtension>
            <ns3:hr>148</ns3:hr>
            <ns3:cad>48</ns3:cad>
          </ns3:TrackPointExtension>
        </extensions>
      </trkpt>
      <trkpt lat="45.25801040232181549072265625" lon="-71.19341053068637847900390625">
        <ele>679.5999755859375</ele>
        <time>2026-08-22T04:11:51.000Z</time>
        <extensions>
          <ns3:TrackPointExtension>
            <ns3:hr>148</ns3:hr>
            <ns3:cad>50</ns3:cad>
          </ns3:TrackPointExtension>
        </extensions>
      </trkpt>
      <trkpt lat="45.258009731769561767578125" lon="-71.1934170685708522796630859375">
        <ele>679.79998779296875</ele>
        <time>2026-08-22T04:11:52.000Z</time>
        <extensions>
          <ns3:TrackPointExtension>
            <ns3:hr>148</ns3:hr>
            <ns3:cad>51</ns3:cad>
          </ns3:TrackPointExtension>
        </extensions>
      </trkpt>
      <trkpt lat="45.2580142579972743988037109375" lon="-71.1934271268546581268310546875">
        <ele>680</ele>
        <time>2026-08-22T04:11:53.000Z</time>
        <extensions>
          <ns3:TrackPointExtension>
            <ns3:hr>149</ns3:hr>
            <ns3:cad>51</ns3:cad>
          </ns3:TrackPointExtension>
        </extensions>
      </trkpt>
      <trkpt lat="45.258016772568225860595703125" lon="-71.19343928061425685882568359375">
        <ele>680.20001220703125</ele>
        <time>2026-08-22T04:11:54.000Z</time>
        <extensions>
          <ns3:TrackPointExtension>
            <ns3:hr>150</ns3:hr>
            <ns3:cad>50</ns3:cad>
          </ns3:TrackPointExtension>
        </extensions>
      </trkpt>
      <trkpt lat="45.2580098994076251983642578125" lon="-71.19345319457352161407470703125">
        <ele>680.4000244140625</ele>
        <time>2026-08-22T04:11:55.000Z</time>
        <extensions>
          <ns3:TrackPointExtension>
            <ns3:hr>150</ns3:hr>
            <ns3:cad>50</ns3:cad>
          </ns3:TrackPointExtension>
        </extensions>
      </trkpt>
      <trkpt lat="45.25800964795053005218505859375" lon="-71.19346526451408863067626953125">
        <ele>680.79998779296875</ele>
        <time>2026-08-22T04:11:56.000Z</time>
        <extensions>
          <ns3:TrackPointExtension>
            <ns3:hr>150</ns3:hr>
            <ns3:cad>47</ns3:cad>
          </ns3:TrackPointExtension>
        </extensions>
      </trkpt>
      <trkpt lat="45.25800914503633975982666015625" lon="-71.19348286651074886322021484375">
        <ele>681</ele>
        <time>2026-08-22T04:11:57.000Z</time>
        <extensions>
          <ns3:TrackPointExtension>
            <ns3:hr>150</ns3:hr>
            <ns3:cad>47</ns3:cad>
          </ns3:TrackPointExtension>
        </extensions>
      </trkpt>
      <trkpt lat="45.2580085583031177520751953125" lon="-71.1934968642890453338623046875">
        <ele>681.20001220703125</ele>
        <time>2026-08-22T04:11:58.000Z</time>
        <extensions>
          <ns3:TrackPointExtension>
            <ns3:hr>150</ns3:hr>
            <ns3:cad>50</ns3:cad>
          </ns3:TrackPointExtension>
        </extensions>
      </trkpt>
      <trkpt lat="45.2580030262470245361328125" lon="-71.19351102970540523529052734375">
        <ele>681.4000244140625</ele>
        <time>2026-08-22T04:11:59.000Z</time>
        <extensions>
          <ns3:TrackPointExtension>
            <ns3:hr>150</ns3:hr>
            <ns3:cad>50</ns3:cad>
          </ns3:TrackPointExtension>
        </extensions>
      </trkpt>
      <trkpt lat="45.25800369679927825927734375" lon="-71.19352854788303375244140625">
        <ele>681.5999755859375</ele>
        <time>2026-08-22T04:12:00.000Z</time>
        <extensions>
          <ns3:TrackPointExtension>
            <ns3:hr>150</ns3:hr>
            <ns3:cad>50</ns3:cad>
          </ns3:TrackPointExtension>
        </extensions>
      </trkpt>
      <trkpt lat="45.2580045349895954132080078125" lon="-71.193542964756488800048828125">
        <ele>681.79998779296875</ele>
        <time>2026-08-22T04:12:01.000Z</time>
        <extensions>
          <ns3:TrackPointExtension>
            <ns3:hr>150</ns3:hr>
            <ns3:cad>50</ns3:cad>
          </ns3:TrackPointExtension>
        </extensions>
      </trkpt>
      <trkpt lat="45.2580038644373416900634765625" lon="-71.193560063838958740234375">
        <ele>682</ele>
        <time>2026-08-22T04:12:02.000Z</time>
        <extensions>
          <ns3:TrackPointExtension>
            <ns3:hr>151</ns3:hr>
            <ns3:cad>50</ns3:cad>
          </ns3:TrackPointExtension>
        </extensions>
      </trkpt>
      <trkpt lat="45.2580021880567073822021484375" lon="-71.193566434085369110107421875">
        <ele>682.20001220703125</ele>
        <time>2026-08-22T04:12:03.000Z</time>
        <extensions>
          <ns3:TrackPointExtension>
            <ns3:hr>150</ns3:hr>
            <ns3:cad>50</ns3:cad>
          </ns3:TrackPointExtension>
        </extensions>
      </trkpt>
      <trkpt lat="45.2580038644373416900634765625" lon="-71.1935706250369548797607421875">
        <ele>682.4000244140625</ele>
        <time>2026-08-22T04:12:04.000Z</time>
        <extensions>
          <ns3:TrackPointExtension>
            <ns3:hr>150</ns3:hr>
            <ns3:cad>50</ns3:cad>
          </ns3:TrackPointExtension>
        </extensions>
      </trkpt>
      <trkpt lat="45.25800193659961223602294921875" lon="-71.193577162921428680419921875">
        <ele>682.5999755859375</ele>
        <time>2026-08-22T04:12:05.000Z</time>
        <extensions>
          <ns3:TrackPointExtension>
            <ns3:hr>151</ns3:hr>
            <ns3:cad>50</ns3:cad>
          </ns3:TrackPointExtension>
        </extensions>
      </trkpt>
      <trkpt lat="45.258000679314136505126953125" lon="-71.1935867182910442352294921875">
        <ele>683</ele>
        <time>2026-08-22T04:12:06.000Z</time>
        <extensions>
          <ns3:TrackPointExtension>
            <ns3:hr>150</ns3:hr>
            <ns3:cad>49</ns3:cad>
          </ns3:TrackPointExtension>
        </extensions>
      </trkpt>
      <trkpt lat="45.257997326552867889404296875" lon="-71.19359484873712062835693359375">
        <ele>683.20001220703125</ele>
        <time>2026-08-22T04:12:07.000Z</time>
        <extensions>
          <ns3:TrackPointExtension>
            <ns3:hr>150</ns3:hr>
            <ns3:cad>49</ns3:cad>
          </ns3:TrackPointExtension>
        </extensions>
      </trkpt>
      <trkpt lat="45.25799841620028018951416015625" lon="-71.19360054843127727508544921875">
        <ele>683.4000244140625</ele>
        <time>2026-08-22T04:12:08.000Z</time>
        <extensions>
          <ns3:TrackPointExtension>
            <ns3:hr>150</ns3:hr>
            <ns3:cad>49</ns3:cad>
          </ns3:TrackPointExtension>
        </extensions>
      </trkpt>
      <trkpt lat="45.25800059549510478973388671875" lon="-71.19360658340156078338623046875">
        <ele>683.5999755859375</ele>
        <time>2026-08-22T04:12:09.000Z</time>
        <extensions>
          <ns3:TrackPointExtension>
            <ns3:hr>151</ns3:hr>
            <ns3:cad>49</ns3:cad>
          </ns3:TrackPointExtension>
        </extensions>
      </trkpt>
      <trkpt lat="45.2579981647431850433349609375" lon="-71.19361647404730319976806640625">
        <ele>683.79998779296875</ele>
        <time>2026-08-22T04:12:10.000Z</time>
        <extensions>
          <ns3:TrackPointExtension>
            <ns3:hr>150</ns3:hr>
            <ns3:cad>47</ns3:cad>
          </ns3:TrackPointExtension>
        </extensions>
      </trkpt>
      <trkpt lat="45.2579951472580432891845703125" lon="-71.19361949153244495391845703125">
        <ele>684</ele>
        <time>2026-08-22T04:12:11.000Z</time>
        <extensions>
          <ns3:TrackPointExtension>
            <ns3:hr>151</ns3:hr>
            <ns3:cad>47</ns3:cad>
          </ns3:TrackPointExtension>
        </extensions>
      </trkpt>
      <trkpt lat="45.25799673981964588165283203125" lon="-71.19362669996917247772216796875">
        <ele>684.20001220703125</ele>
        <time>2026-08-22T04:12:12.000Z</time>
        <extensions>
          <ns3:TrackPointExtension>
            <ns3:hr>151</ns3:hr>
            <ns3:cad>47</ns3:cad>
          </ns3:TrackPointExtension>
        </extensions>
      </trkpt>
      <trkpt lat="45.25799858383834362030029296875" lon="-71.19363960810005664825439453125">
        <ele>684.4000244140625</ele>
        <time>2026-08-22T04:12:13.000Z</time>
        <extensions>
          <ns3:TrackPointExtension>
            <ns3:hr>151</ns3:hr>
            <ns3:cad>0</ns3:cad>
          </ns3:TrackPointExtension>
        </extensions>
      </trkpt>
      <trkpt lat="45.25799296796321868896484375" lon="-71.19364790618419647216796875">
        <ele>684.5999755859375</ele>
        <time>2026-08-22T04:12:14.000Z</time>
        <extensions>
          <ns3:TrackPointExtension>
            <ns3:hr>152</ns3:hr>
            <ns3:cad>0</ns3:cad>
          </ns3:TrackPointExtension>
        </extensions>
      </trkpt>
      <trkpt lat="45.25798701681196689605712890625" lon="-71.19365821592509746551513671875">
        <ele>684.79998779296875</ele>
        <time>2026-08-22T04:12:15.000Z</time>
        <extensions>
          <ns3:TrackPointExtension>
            <ns3:hr>151</ns3:hr>
            <ns3:cad>0</ns3:cad>
          </ns3:TrackPointExtension>
        </extensions>
      </trkpt>
      <trkpt lat="45.257985591888427734375" lon="-71.1936725489795207977294921875">
        <ele>685</ele>
        <time>2026-08-22T04:12:16.000Z</time>
        <extensions>
          <ns3:TrackPointExtension>
            <ns3:hr>151</ns3:hr>
            <ns3:cad>44</ns3:cad>
          </ns3:TrackPointExtension>
        </extensions>
      </trkpt>
      <trkpt lat="45.25798466987907886505126953125" lon="-71.1936866305768489837646484375">
        <ele>685.20001220703125</ele>
        <time>2026-08-22T04:12:17.000Z</time>
        <extensions>
          <ns3:TrackPointExtension>
            <ns3:hr>152</ns3:hr>
            <ns3:cad>44</ns3:cad>
          </ns3:TrackPointExtension>
        </extensions>
      </trkpt>
      <trkpt lat="45.25798215530812740325927734375" lon="-71.19370297528803348541259765625">
        <ele>685.4000244140625</ele>
        <time>2026-08-22T04:12:18.000Z</time>
        <extensions>
          <ns3:TrackPointExtension>
            <ns3:hr>152</ns3:hr>
            <ns3:cad>44</ns3:cad>
          </ns3:TrackPointExtension>
        </extensions>
      </trkpt>
      <trkpt lat="45.257979892194271087646484375" lon="-71.19371420703828334808349609375">
        <ele>685.5999755859375</ele>
        <time>2026-08-22T04:12:19.000Z</time>
        <extensions>
          <ns3:TrackPointExtension>
            <ns3:hr>151</ns3:hr>
            <ns3:cad>44</ns3:cad>
          </ns3:TrackPointExtension>
        </extensions>
      </trkpt>
      <trkpt lat="45.2579783834517002105712890625" lon="-71.193730048835277557373046875">
        <ele>686</ele>
        <time>2026-08-22T04:12:20.000Z</time>
        <extensions>
          <ns3:TrackPointExtension>
            <ns3:hr>151</ns3:hr>
            <ns3:cad>44</ns3:cad>
          </ns3:TrackPointExtension>
        </extensions>
      </trkpt>
      <trkpt lat="45.25797880254685878753662109375" lon="-71.19373910129070281982421875">
        <ele>686.20001220703125</ele>
        <time>2026-08-22T04:12:21.000Z</time>
        <extensions>
          <ns3:TrackPointExtension>
            <ns3:hr>150</ns3:hr>
            <ns3:cad>44</ns3:cad>
          </ns3:TrackPointExtension>
        </extensions>
      </trkpt>
      <trkpt lat="45.25797209702432155609130859375" lon="-71.19375117123126983642578125">
        <ele>686.5999755859375</ele>
        <time>2026-08-22T04:12:22.000Z</time>
        <extensions>
          <ns3:TrackPointExtension>
            <ns3:hr>150</ns3:hr>
            <ns3:cad>44</ns3:cad>
          </ns3:TrackPointExtension>
        </extensions>
      </trkpt>
      <trkpt lat="45.25796622969210147857666015625" lon="-71.193758547306060791015625">
        <ele>686.79998779296875</ele>
        <time>2026-08-22T04:12:23.000Z</time>
        <extensions>
          <ns3:TrackPointExtension>
            <ns3:hr>149</ns3:hr>
            <ns3:cad>44</ns3:cad>
          </ns3:TrackPointExtension>
        </extensions>
      </trkpt>
      <trkpt lat="45.2579683251678943634033203125" lon="-71.19376583956182003021240234375">
        <ele>687</ele>
        <time>2026-08-22T04:12:24.000Z</time>
        <extensions>
          <ns3:TrackPointExtension>
            <ns3:hr>149</ns3:hr>
            <ns3:cad>44</ns3:cad>
          </ns3:TrackPointExtension>
        </extensions>
      </trkpt>
      <trkpt lat="45.2579679898917675018310546875" lon="-71.1937758140265941619873046875">
        <ele>687.20001220703125</ele>
        <time>2026-08-22T04:12:25.000Z</time>
        <extensions>
          <ns3:TrackPointExtension>
            <ns3:hr>149</ns3:hr>
            <ns3:cad>44</ns3:cad>
          </ns3:TrackPointExtension>
        </extensions>
      </trkpt>
      <trkpt lat="45.257970504462718963623046875" lon="-71.1937882192432880401611328125">
        <ele>687.4000244140625</ele>
        <time>2026-08-22T04:12:26.000Z</time>
        <extensions>
          <ns3:TrackPointExtension>
            <ns3:hr>150</ns3:hr>
            <ns3:cad>44</ns3:cad>
          </ns3:TrackPointExtension>
        </extensions>
      </trkpt>
      <trkpt lat="45.257966816425323486328125" lon="-71.193796098232269287109375">
        <ele>687.5999755859375</ele>
        <time>2026-08-22T04:12:27.000Z</time>
        <extensions>
          <ns3:TrackPointExtension>
            <ns3:hr>150</ns3:hr>
            <ns3:cad>0</ns3:cad>
          </ns3:TrackPointExtension>
        </extensions>
      </trkpt>
      <trkpt lat="45.25796480476856231689453125" lon="-71.1938049830496311187744140625">
        <ele>687.79998779296875</ele>
        <time>2026-08-22T04:12:28.000Z</time>
        <extensions>
          <ns3:TrackPointExtension>
            <ns3:hr>151</ns3:hr>
            <ns3:cad>0</ns3:cad>
          </ns3:TrackPointExtension>
        </extensions>
      </trkpt>
      <trkpt lat="45.257965810596942901611328125" lon="-71.1938150413334369659423828125">
        <ele>688</ele>
        <time>2026-08-22T04:12:29.000Z</time>
        <extensions>
          <ns3:TrackPointExtension>
            <ns3:hr>151</ns3:hr>
            <ns3:cad>46</ns3:cad>
          </ns3:TrackPointExtension>
        </extensions>
      </trkpt>
      <trkpt lat="45.2579659782350063323974609375" lon="-71.193826608359813690185546875">
        <ele>688.20001220703125</ele>
        <time>2026-08-22T04:12:30.000Z</time>
        <extensions>
          <ns3:TrackPointExtension>
            <ns3:hr>151</ns3:hr>
            <ns3:cad>46</ns3:cad>
          </ns3:TrackPointExtension>
        </extensions>
      </trkpt>
      <trkpt lat="45.25796304456889629364013671875" lon="-71.19383775629103183746337890625">
        <ele>688.4000244140625</ele>
        <time>2026-08-22T04:12:31.000Z</time>
        <extensions>
          <ns3:TrackPointExtension>
            <ns3:hr>152</ns3:hr>
            <ns3:cad>46</ns3:cad>
          </ns3:TrackPointExtension>
        </extensions>
      </trkpt>
      <trkpt lat="45.25796002708375453948974609375" lon="-71.1938519217073917388916015625">
        <ele>688.5999755859375</ele>
        <time>2026-08-22T04:12:32.000Z</time>
        <extensions>
          <ns3:TrackPointExtension>
            <ns3:hr>152</ns3:hr>
            <ns3:cad>44</ns3:cad>
          </ns3:TrackPointExtension>
        </extensions>
      </trkpt>
      <trkpt lat="45.257959775626659393310546875" lon="-71.19386306963860988616943359375">
        <ele>688.79998779296875</ele>
        <time>2026-08-22T04:12:33.000Z</time>
        <extensions>
          <ns3:TrackPointExtension>
            <ns3:hr>152</ns3:hr>
            <ns3:cad>44</ns3:cad>
          </ns3:TrackPointExtension>
        </extensions>
      </trkpt>
      <trkpt lat="45.257958434522151947021484375" lon="-71.19387631304562091827392578125">
        <ele>689</ele>
        <time>2026-08-22T04:12:34.000Z</time>
        <extensions>
          <ns3:TrackPointExtension>
            <ns3:hr>151</ns3:hr>
            <ns3:cad>47</ns3:cad>
          </ns3:TrackPointExtension>
        </extensions>
      </trkpt>
      <trkpt lat="45.25795667432248592376708984375" lon="-71.1938928253948688507080078125">
        <ele>689.4000244140625</ele>
        <time>2026-08-22T04:12:35.000Z</time>
        <extensions>
          <ns3:TrackPointExtension>
            <ns3:hr>151</ns3:hr>
            <ns3:cad>47</ns3:cad>
          </ns3:TrackPointExtension>
        </extensions>
      </trkpt>
      <trkpt lat="45.25795918889343738555908203125" lon="-71.1939100921154022216796875">
        <ele>689.5999755859375</ele>
        <time>2026-08-22T04:12:36.000Z</time>
        <extensions>
          <ns3:TrackPointExtension>
            <ns3:hr>152</ns3:hr>
            <ns3:cad>47</ns3:cad>
          </ns3:TrackPointExtension>
        </extensions>
      </trkpt>
      <trkpt lat="45.2579545788466930389404296875" lon="-71.193921156227588653564453125">
        <ele>689.79998779296875</ele>
        <time>2026-08-22T04:12:37.000Z</time>
        <extensions>
          <ns3:TrackPointExtension>
            <ns3:hr>153</ns3:hr>
            <ns3:cad>47</ns3:cad>
          </ns3:TrackPointExtension>
        </extensions>
      </trkpt>
      <trkpt lat="45.25794980116188526153564453125" lon="-71.19393800385296344757080078125">
        <ele>690</ele>
        <time>2026-08-22T04:12:38.000Z</time>
        <extensions>
          <ns3:TrackPointExtension>
            <ns3:hr>153</ns3:hr>
            <ns3:cad>47</ns3:cad>
          </ns3:TrackPointExtension>
        </extensions>
      </trkpt>
      <trkpt lat="45.25795248337090015411376953125" lon="-71.19396197609603404998779296875">
        <ele>690.20001220703125</ele>
        <time>2026-08-22T04:12:39.000Z</time>
        <extensions>
          <ns3:TrackPointExtension>
            <ns3:hr>153</ns3:hr>
            <ns3:cad>47</ns3:cad>
          </ns3:TrackPointExtension>
        </extensions>
      </trkpt>
      <trkpt lat="45.257949717342853546142578125" lon="-71.19397756643593311309814453125">
        <ele>690.4000244140625</ele>
        <time>2026-08-22T04:12:40.000Z</time>
        <extensions>
          <ns3:TrackPointExtension>
            <ns3:hr>153</ns3:hr>
            <ns3:cad>47</ns3:cad>
          </ns3:TrackPointExtension>
        </extensions>
      </trkpt>
      <trkpt lat="45.257952399551868438720703125" lon="-71.19399080984294414520263671875">
        <ele>690.79998779296875</ele>
        <time>2026-08-22T04:12:41.000Z</time>
        <extensions>
          <ns3:TrackPointExtension>
            <ns3:hr>152</ns3:hr>
            <ns3:cad>45</ns3:cad>
          </ns3:TrackPointExtension>
        </extensions>
      </trkpt>
      <trkpt lat="45.2579562552273273468017578125" lon="-71.1940051428973674774169921875">
        <ele>691</ele>
        <time>2026-08-22T04:12:42.000Z</time>
        <extensions>
          <ns3:TrackPointExtension>
            <ns3:hr>152</ns3:hr>
            <ns3:cad>48</ns3:cad>
          </ns3:TrackPointExtension>
        </extensions>
      </trkpt>
      <trkpt lat="45.25795516557991504669189453125" lon="-71.19401830248534679412841796875">
        <ele>691.20001220703125</ele>
        <time>2026-08-22T04:12:43.000Z</time>
        <extensions>
          <ns3:TrackPointExtension>
            <ns3:hr>153</ns3:hr>
            <ns3:cad>48</ns3:cad>
          </ns3:TrackPointExtension>
        </extensions>
      </trkpt>
      <trkpt lat="45.25795164518058300018310546875" lon="-71.19403691031038761138916015625">
        <ele>691.4000244140625</ele>
        <time>2026-08-22T04:12:44.000Z</time>
        <extensions>
          <ns3:TrackPointExtension>
            <ns3:hr>153</ns3:hr>
            <ns3:cad>48</ns3:cad>
          </ns3:TrackPointExtension>
        </extensions>
      </trkpt>
      <trkpt lat="45.257949717342853546142578125" lon="-71.194049231708049774169921875">
        <ele>691.5999755859375</ele>
        <time>2026-08-22T04:12:45.000Z</time>
        <extensions>
          <ns3:TrackPointExtension>
            <ns3:hr>153</ns3:hr>
            <ns3:cad>48</ns3:cad>
          </ns3:TrackPointExtension>
        </extensions>
      </trkpt>
      <trkpt lat="45.2579505555331707000732421875" lon="-71.1940658278763294219970703125">
        <ele>691.79998779296875</ele>
        <time>2026-08-22T04:12:46.000Z</time>
        <extensions>
          <ns3:TrackPointExtension>
            <ns3:hr>153</ns3:hr>
            <ns3:cad>48</ns3:cad>
          </ns3:TrackPointExtension>
        </extensions>
      </trkpt>
      <trkpt lat="45.257950723171234130859375" lon="-71.19407932274043560028076171875">
        <ele>692</ele>
        <time>2026-08-22T04:12:47.000Z</time>
        <extensions>
          <ns3:TrackPointExtension>
            <ns3:hr>153</ns3:hr>
            <ns3:cad>47</ns3:cad>
          </ns3:TrackPointExtension>
        </extensions>
      </trkpt>
      <trkpt lat="45.25795483030378818511962890625" lon="-71.1940929852426052093505859375">
        <ele>692.4000244140625</ele>
        <time>2026-08-22T04:12:48.000Z</time>
        <extensions>
          <ns3:TrackPointExtension>
            <ns3:hr>154</ns3:hr>
            <ns3:cad>47</ns3:cad>
          </ns3:TrackPointExtension>
        </extensions>
      </trkpt>
      <trkpt lat="45.25795097462832927703857421875" lon="-71.19411469437181949615478515625">
        <ele>692.5999755859375</ele>
        <time>2026-08-22T04:12:49.000Z</time>
        <extensions>
          <ns3:TrackPointExtension>
            <ns3:hr>154</ns3:hr>
            <ns3:cad>47</ns3:cad>
          </ns3:TrackPointExtension>
        </extensions>
      </trkpt>
      <trkpt lat="45.25794946588575839996337890625" lon="-71.19413204491138458251953125">
        <ele>692.79998779296875</ele>
        <time>2026-08-22T04:12:50.000Z</time>
        <extensions>
          <ns3:TrackPointExtension>
            <ns3:hr>154</ns3:hr>
            <ns3:cad>47</ns3:cad>
          </ns3:TrackPointExtension>
        </extensions>
      </trkpt>
      <trkpt lat="45.25795114226639270782470703125" lon="-71.1941488087177276611328125">
        <ele>693</ele>
        <time>2026-08-22T04:12:51.000Z</time>
        <extensions>
          <ns3:TrackPointExtension>
            <ns3:hr>153</ns3:hr>
            <ns3:cad>48</ns3:cad>
          </ns3:TrackPointExtension>
        </extensions>
      </trkpt>
      <trkpt lat="45.2579512260854244232177734375" lon="-71.19416113011538982391357421875">
        <ele>693.4000244140625</ele>
        <time>2026-08-22T04:12:52.000Z</time>
        <extensions>
          <ns3:TrackPointExtension>
            <ns3:hr>154</ns3:hr>
            <ns3:cad>48</ns3:cad>
          </ns3:TrackPointExtension>
        </extensions>
      </trkpt>
      <trkpt lat="45.25794812478125095367431640625" lon="-71.19418024085462093353271484375">
        <ele>693.5999755859375</ele>
        <time>2026-08-22T04:12:53.000Z</time>
        <extensions>
          <ns3:TrackPointExtension>
            <ns3:hr>154</ns3:hr>
            <ns3:cad>48</ns3:cad>
          </ns3:TrackPointExtension>
        </extensions>
      </trkpt>
      <trkpt lat="45.257949717342853546142578125" lon="-71.19419583119451999664306640625">
        <ele>693.79998779296875</ele>
        <time>2026-08-22T04:12:54.000Z</time>
        <extensions>
          <ns3:TrackPointExtension>
            <ns3:hr>154</ns3:hr>
            <ns3:cad>47</ns3:cad>
          </ns3:TrackPointExtension>
        </extensions>
      </trkpt>
      <trkpt lat="45.2579549141228199005126953125" lon="-71.19421527720987796783447265625">
        <ele>694.20001220703125</ele>
        <time>2026-08-22T04:12:55.000Z</time>
        <extensions>
          <ns3:TrackPointExtension>
            <ns3:hr>154</ns3:hr>
            <ns3:cad>47</ns3:cad>
          </ns3:TrackPointExtension>
        </extensions>
      </trkpt>
      <trkpt lat="45.2579522319138050079345703125" lon="-71.19423438794910907745361328125">
        <ele>694.4000244140625</ele>
        <time>2026-08-22T04:12:56.000Z</time>
        <extensions>
          <ns3:TrackPointExtension>
            <ns3:hr>154</ns3:hr>
            <ns3:cad>47</ns3:cad>
          </ns3:TrackPointExtension>
        </extensions>
      </trkpt>
      <trkpt lat="45.25794963352382183074951171875" lon="-71.194249056279659271240234375">
        <ele>694.5999755859375</ele>
        <time>2026-08-22T04:12:57.000Z</time>
        <extensions>
          <ns3:TrackPointExtension>
            <ns3:hr>154</ns3:hr>
            <ns3:cad>47</ns3:cad>
          </ns3:TrackPointExtension>
        </extensions>
      </trkpt>
      <trkpt lat="45.257950387895107269287109375" lon="-71.1942653171718120574951171875">
        <ele>694.79998779296875</ele>
        <time>2026-08-22T04:12:58.000Z</time>
        <extensions>
          <ns3:TrackPointExtension>
            <ns3:hr>154</ns3:hr>
            <ns3:cad>48</ns3:cad>
          </ns3:TrackPointExtension>
        </extensions>
      </trkpt>
      <trkpt lat="45.25795273482799530029296875" lon="-71.194283924996852874755859375">
        <ele>695</ele>
        <time>2026-08-22T04:12:59.000Z</time>
        <extensions>
          <ns3:TrackPointExtension>
            <ns3:hr>154</ns3:hr>
            <ns3:cad>48</ns3:cad>
          </ns3:TrackPointExtension>
        </extensions>
      </trkpt>
      <trkpt lat="45.25795533321797847747802734375" lon="-71.194300018250942230224609375">
        <ele>695.20001220703125</ele>
        <time>2026-08-22T04:13:00.000Z</time>
        <extensions>
          <ns3:TrackPointExtension>
            <ns3:hr>154</ns3:hr>
            <ns3:cad>48</ns3:cad>
          </ns3:TrackPointExtension>
        </extensions>
      </trkpt>
      <trkpt lat="45.25795801542699337005615234375" lon="-71.1943179555237293243408203125">
        <ele>695.4000244140625</ele>
        <time>2026-08-22T04:13:01.000Z</time>
        <extensions>
          <ns3:TrackPointExtension>
            <ns3:hr>154</ns3:hr>
            <ns3:cad>48</ns3:cad>
          </ns3:TrackPointExtension>
        </extensions>
      </trkpt>
      <trkpt lat="45.25795717723667621612548828125" lon="-71.1943290196359157562255859375">
        <ele>695.5999755859375</ele>
        <time>2026-08-22T04:13:02.000Z</time>
        <extensions>
          <ns3:TrackPointExtension>
            <ns3:hr>154</ns3:hr>
            <ns3:cad>48</ns3:cad>
          </ns3:TrackPointExtension>
        </extensions>
      </trkpt>
      <trkpt lat="45.25796488858759403228759765625" lon="-71.19433983229100704193115234375">
        <ele>696</ele>
        <time>2026-08-22T04:13:03.000Z</time>
        <extensions>
          <ns3:TrackPointExtension>
            <ns3:hr>154</ns3:hr>
            <ns3:cad>46</ns3:cad>
          </ns3:TrackPointExtension>
        </extensions>
      </trkpt>
      <trkpt lat="45.25796472094953060150146484375" lon="-71.19435106404125690460205078125">
        <ele>696.20001220703125</ele>
        <time>2026-08-22T04:13:04.000Z</time>
        <extensions>
          <ns3:TrackPointExtension>
            <ns3:hr>155</ns3:hr>
            <ns3:cad>46</ns3:cad>
          </ns3:TrackPointExtension>
        </extensions>
      </trkpt>
      <trkpt lat="45.25796270929276943206787109375" lon="-71.19436539709568023681640625">
        <ele>696.4000244140625</ele>
        <time>2026-08-22T04:13:05.000Z</time>
        <extensions>
          <ns3:TrackPointExtension>
            <ns3:hr>154</ns3:hr>
            <ns3:cad>49</ns3:cad>
          </ns3:TrackPointExtension>
        </extensions>
      </trkpt>
      <trkpt lat="45.25796614587306976318359375" lon="-71.19437922723591327667236328125">
        <ele>696.5999755859375</ele>
        <time>2026-08-22T04:13:06.000Z</time>
        <extensions>
          <ns3:TrackPointExtension>
            <ns3:hr>154</ns3:hr>
            <ns3:cad>49</ns3:cad>
          </ns3:TrackPointExtension>
        </extensions>
      </trkpt>
      <trkpt lat="45.25797343812882900238037109375" lon="-71.1943920515477657318115234375">
        <ele>697</ele>
        <time>2026-08-22T04:13:07.000Z</time>
        <extensions>
          <ns3:TrackPointExtension>
            <ns3:hr>154</ns3:hr>
            <ns3:cad>49</ns3:cad>
          </ns3:TrackPointExtension>
        </extensions>
      </trkpt>
      <trkpt lat="45.2579773776233196258544921875" lon="-71.1944009363651275634765625">
        <ele>697.20001220703125</ele>
        <time>2026-08-22T04:13:08.000Z</time>
        <extensions>
          <ns3:TrackPointExtension>
            <ns3:hr>154</ns3:hr>
            <ns3:cad>48</ns3:cad>
          </ns3:TrackPointExtension>
        </extensions>
      </trkpt>
      <trkpt lat="45.25797285139560699462890625" lon="-71.194410659372806549072265625">
        <ele>697.4000244140625</ele>
        <time>2026-08-22T04:13:09.000Z</time>
        <extensions>
          <ns3:TrackPointExtension>
            <ns3:hr>155</ns3:hr>
            <ns3:cad>48</ns3:cad>
          </ns3:TrackPointExtension>
        </extensions>
      </trkpt>
      <trkpt lat="45.25797410868108272552490234375" lon="-71.194422058761119842529296875">
        <ele>697.5999755859375</ele>
        <time>2026-08-22T04:13:10.000Z</time>
        <extensions>
          <ns3:TrackPointExtension>
            <ns3:hr>154</ns3:hr>
            <ns3:cad>47</ns3:cad>
          </ns3:TrackPointExtension>
        </extensions>
      </trkpt>
      <trkpt lat="45.25797779671847820281982421875" lon="-71.19443169794976711273193359375">
        <ele>697.79998779296875</ele>
        <time>2026-08-22T04:13:11.000Z</time>
        <extensions>
          <ns3:TrackPointExtension>
            <ns3:hr>154</ns3:hr>
            <ns3:cad>47</ns3:cad>
          </ns3:TrackPointExtension>
        </extensions>
      </trkpt>
      <trkpt lat="45.2579790540039539337158203125" lon="-71.1944450251758098602294921875">
        <ele>698</ele>
        <time>2026-08-22T04:13:12.000Z</time>
        <extensions>
          <ns3:TrackPointExtension>
            <ns3:hr>154</ns3:hr>
            <ns3:cad>48</ns3:cad>
          </ns3:TrackPointExtension>
        </extensions>
      </trkpt>
      <trkpt lat="45.25798383168876171112060546875" lon="-71.19445064105093479156494140625">
        <ele>698.20001220703125</ele>
        <time>2026-08-22T04:13:13.000Z</time>
        <extensions>
          <ns3:TrackPointExtension>
            <ns3:hr>154</ns3:hr>
            <ns3:cad>47</ns3:cad>
          </ns3:TrackPointExtension>
        </extensions>
      </trkpt>
      <trkpt lat="45.2579840831458568572998046875" lon="-71.19446841068565845489501953125">
        <ele>698.4000244140625</ele>
        <time>2026-08-22T04:13:14.000Z</time>
        <extensions>
          <ns3:TrackPointExtension>
            <ns3:hr>154</ns3:hr>
            <ns3:cad>47</ns3:cad>
          </ns3:TrackPointExtension>
        </extensions>
      </trkpt>
      <trkpt lat="45.25798701681196689605712890625" lon="-71.1944808997213840484619140625">
        <ele>698.5999755859375</ele>
        <time>2026-08-22T04:13:15.000Z</time>
        <extensions>
          <ns3:TrackPointExtension>
            <ns3:hr>154</ns3:hr>
            <ns3:cad>47</ns3:cad>
          </ns3:TrackPointExtension>
        </extensions>
      </trkpt>
      <trkpt lat="45.2579837478697299957275390625" lon="-71.19449137710034847259521484375">
        <ele>699</ele>
        <time>2026-08-22T04:13:16.000Z</time>
        <extensions>
          <ns3:TrackPointExtension>
            <ns3:hr>155</ns3:hr>
            <ns3:cad>47</ns3:cad>
          </ns3:TrackPointExtension>
        </extensions>
      </trkpt>
      <trkpt lat="45.25797955691814422607421875" lon="-71.19451132602989673614501953125">
        <ele>699.20001220703125</ele>
        <time>2026-08-22T04:13:17.000Z</time>
        <extensions>
          <ns3:TrackPointExtension>
            <ns3:hr>154</ns3:hr>
            <ns3:cad>47</ns3:cad>
          </ns3:TrackPointExtension>
        </extensions>
      </trkpt>
      <trkpt lat="45.2579815685749053955078125" lon="-71.19452523998916149139404296875">
        <ele>699.5999755859375</ele>
        <time>2026-08-22T04:13:18.000Z</time>
        <extensions>
          <ns3:TrackPointExtension>
            <ns3:hr>155</ns3:hr>
            <ns3:cad>49</ns3:cad>
          </ns3:TrackPointExtension>
        </extensions>
      </trkpt>
      <trkpt lat="45.25798165239393711090087890625" lon="-71.19453697465360164642333984375">
        <ele>699.79998779296875</ele>
        <time>2026-08-22T04:13:19.000Z</time>
        <extensions>
          <ns3:TrackPointExtension>
            <ns3:hr>155</ns3:hr>
            <ns3:cad>49</ns3:cad>
          </ns3:TrackPointExtension>
        </extensions>
      </trkpt>
      <trkpt lat="45.2579787187278270721435546875" lon="-71.1945486254990100860595703125">
        <ele>700</ele>
        <time>2026-08-22T04:13:20.000Z</time>
        <extensions>
          <ns3:TrackPointExtension>
            <ns3:hr>156</ns3:hr>
            <ns3:cad>49</ns3:cad>
          </ns3:TrackPointExtension>
        </extensions>
      </trkpt>
      <trkpt lat="45.25797997601330280303955078125" lon="-71.194560863077640533447265625">
        <ele>700.20001220703125</ele>
        <time>2026-08-22T04:13:21.000Z</time>
        <extensions>
          <ns3:TrackPointExtension>
            <ns3:hr>156</ns3:hr>
            <ns3:cad>49</ns3:cad>
          </ns3:TrackPointExtension>
        </extensions>
      </trkpt>
      <trkpt lat="45.2579837478697299957275390625" lon="-71.19458005763590335845947265625">
        <ele>700.5999755859375</ele>
        <time>2026-08-22T04:13:22.000Z</time>
        <extensions>
          <ns3:TrackPointExtension>
            <ns3:hr>157</ns3:hr>
            <ns3:cad>49</ns3:cad>
          </ns3:TrackPointExtension>
        </extensions>
      </trkpt>
      <trkpt lat="45.25799020193517208099365234375" lon="-71.19459195993840694427490234375">
        <ele>700.79998779296875</ele>
        <time>2026-08-22T04:13:23.000Z</time>
        <extensions>
          <ns3:TrackPointExtension>
            <ns3:hr>157</ns3:hr>
            <ns3:cad>49</ns3:cad>
          </ns3:TrackPointExtension>
        </extensions>
      </trkpt>
      <trkpt lat="45.2579958178102970123291015625" lon="-71.194607131183147430419921875">
        <ele>701.20001220703125</ele>
        <time>2026-08-22T04:13:24.000Z</time>
        <extensions>
          <ns3:TrackPointExtension>
            <ns3:hr>157</ns3:hr>
            <ns3:cad>48</ns3:cad>
          </ns3:TrackPointExtension>
        </extensions>
      </trkpt>
      <trkpt lat="45.25799808092415332794189453125" lon="-71.194610483944416046142578125">
        <ele>701.4000244140625</ele>
        <time>2026-08-22T04:13:25.000Z</time>
        <extensions>
          <ns3:TrackPointExtension>
            <ns3:hr>156</ns3:hr>
            <ns3:cad>48</ns3:cad>
          </ns3:TrackPointExtension>
        </extensions>
      </trkpt>
      <trkpt lat="45.25800277478992938995361328125" lon="-71.19461844675242900848388671875">
        <ele>701.5999755859375</ele>
        <time>2026-08-22T04:13:26.000Z</time>
        <extensions>
          <ns3:TrackPointExtension>
            <ns3:hr>156</ns3:hr>
            <ns3:cad>48</ns3:cad>
          </ns3:TrackPointExtension>
        </extensions>
      </trkpt>
      <trkpt lat="45.2580095641314983367919921875" lon="-71.1946264095604419708251953125">
        <ele>701.79998779296875</ele>
        <time>2026-08-22T04:13:27.000Z</time>
        <extensions>
          <ns3:TrackPointExtension>
            <ns3:hr>156</ns3:hr>
            <ns3:cad>0</ns3:cad>
          </ns3:TrackPointExtension>
        </extensions>
      </trkpt>
      <trkpt lat="45.25801216252148151397705078125" lon="-71.1946441791951656341552734375">
        <ele>702</ele>
        <time>2026-08-22T04:13:28.000Z</time>
        <extensions>
          <ns3:TrackPointExtension>
            <ns3:hr>156</ns3:hr>
            <ns3:cad>0</ns3:cad>
          </ns3:TrackPointExtension>
        </extensions>
      </trkpt>
      <trkpt lat="45.25801501236855983734130859375" lon="-71.19464744813740253448486328125">
        <ele>702.4000244140625</ele>
        <time>2026-08-22T04:13:29.000Z</time>
        <extensions>
          <ns3:TrackPointExtension>
            <ns3:hr>156</ns3:hr>
            <ns3:cad>0</ns3:cad>
          </ns3:TrackPointExtension>
        </extensions>
      </trkpt>
      <trkpt lat="45.2580177783966064453125" lon="-71.19465163908898830413818359375">
        <ele>702.5999755859375</ele>
        <time>2026-08-22T04:13:30.000Z</time>
        <extensions>
          <ns3:TrackPointExtension>
            <ns3:hr>156</ns3:hr>
            <ns3:cad>0</ns3:cad>
          </ns3:TrackPointExtension>
        </extensions>
      </trkpt>
      <trkpt lat="45.25802775286138057708740234375" lon="-71.194665133953094482421875">
        <ele>702.79998779296875</ele>
        <time>2026-08-22T04:13:31.000Z</time>
        <extensions>
          <ns3:TrackPointExtension>
            <ns3:hr>156</ns3:hr>
            <ns3:cad>0</ns3:cad>
          </ns3:TrackPointExtension>
        </extensions>
      </trkpt>
      <trkpt lat="45.258032865822315216064453125" lon="-71.19467527605593204498291015625">
        <ele>703.20001220703125</ele>
        <time>2026-08-22T04:13:32.000Z</time>
        <extensions>
          <ns3:TrackPointExtension>
            <ns3:hr>156</ns3:hr>
            <ns3:cad>0</ns3:cad>
          </ns3:TrackPointExtension>
        </extensions>
      </trkpt>
      <trkpt lat="45.2580296806991100311279296875" lon="-71.1946787126362323760986328125">
        <ele>703.4000244140625</ele>
        <time>2026-08-22T04:13:33.000Z</time>
        <extensions>
          <ns3:TrackPointExtension>
            <ns3:hr>156</ns3:hr>
            <ns3:cad>0</ns3:cad>
          </ns3:TrackPointExtension>
        </extensions>
      </trkpt>
      <trkpt lat="45.258030854165554046630859375" lon="-71.19469220750033855438232421875">
        <ele>703.5999755859375</ele>
        <time>2026-08-22T04:13:34.000Z</time>
        <extensions>
          <ns3:TrackPointExtension>
            <ns3:hr>156</ns3:hr>
            <ns3:cad>0</ns3:cad>
          </ns3:TrackPointExtension>
        </extensions>
      </trkpt>
      <trkpt lat="45.258025489747524261474609375" lon="-71.1946891061961650848388671875">
        <ele>703.79998779296875</ele>
        <time>2026-08-22T04:13:35.000Z</time>
        <extensions>
          <ns3:TrackPointExtension>
            <ns3:hr>156</ns3:hr>
            <ns3:cad>0</ns3:cad>
          </ns3:TrackPointExtension>
        </extensions>
      </trkpt>
      <trkpt lat="45.25802155025303363800048828125" lon="-71.1946924589574337005615234375">
        <ele>704.20001220703125</ele>
        <time>2026-08-22T04:13:36.000Z</time>
        <extensions>
          <ns3:TrackPointExtension>
            <ns3:hr>156</ns3:hr>
            <ns3:cad>0</ns3:cad>
          </ns3:TrackPointExtension>
        </extensions>
      </trkpt>
      <trkpt lat="45.258022807538509368896484375" lon="-71.19469488970935344696044921875">
        <ele>704.4000244140625</ele>
        <time>2026-08-22T04:13:37.000Z</time>
        <extensions>
          <ns3:TrackPointExtension>
            <ns3:hr>156</ns3:hr>
            <ns3:cad>0</ns3:cad>
          </ns3:TrackPointExtension>
        </extensions>
      </trkpt>
      <trkpt lat="45.2580246515572071075439453125" lon="-71.19471584446728229522705078125">
        <ele>704.5999755859375</ele>
        <time>2026-08-22T04:13:38.000Z</time>
        <extensions>
          <ns3:TrackPointExtension>
            <ns3:hr>156</ns3:hr>
            <ns3:cad>0</ns3:cad>
          </ns3:TrackPointExtension>
        </extensions>
      </trkpt>
      <trkpt lat="45.2580249868333339691162109375" lon="-71.194725148379802703857421875">
        <ele>704.79998779296875</ele>
        <time>2026-08-22T04:13:39.000Z</time>
        <extensions>
          <ns3:TrackPointExtension>
            <ns3:hr>156</ns3:hr>
            <ns3:cad>0</ns3:cad>
          </ns3:TrackPointExtension>
        </extensions>
      </trkpt>
      <trkpt lat="45.25802708230912685394287109375" lon="-71.19473445229232311248779296875">
        <ele>705.20001220703125</ele>
        <time>2026-08-22T04:13:40.000Z</time>
        <extensions>
          <ns3:TrackPointExtension>
            <ns3:hr>156</ns3:hr>
            <ns3:cad>0</ns3:cad>
          </ns3:TrackPointExtension>
        </extensions>
      </trkpt>
      <trkpt lat="45.2580343745648860931396484375" lon="-71.194743253290653228759765625">
        <ele>705.4000244140625</ele>
        <time>2026-08-22T04:13:41.000Z</time>
        <extensions>
          <ns3:TrackPointExtension>
            <ns3:hr>156</ns3:hr>
            <ns3:cad>46</ns3:cad>
          </ns3:TrackPointExtension>
        </extensions>
      </trkpt>
      <trkpt lat="45.25803596712648868560791015625" lon="-71.19475456885993480682373046875">
        <ele>705.5999755859375</ele>
        <time>2026-08-22T04:13:42.000Z</time>
        <extensions>
          <ns3:TrackPointExtension>
            <ns3:hr>155</ns3:hr>
            <ns3:cad>46</ns3:cad>
          </ns3:TrackPointExtension>
        </extensions>
      </trkpt>
      <trkpt lat="45.25803227908909320831298828125" lon="-71.1947689019143581390380859375">
        <ele>705.79998779296875</ele>
        <time>2026-08-22T04:13:43.000Z</time>
        <extensions>
          <ns3:TrackPointExtension>
            <ns3:hr>156</ns3:hr>
            <ns3:cad>46</ns3:cad>
          </ns3:TrackPointExtension>
        </extensions>
      </trkpt>
      <trkpt lat="45.2580347098410129547119140625" lon="-71.19478524662554264068603515625">
        <ele>706.20001220703125</ele>
        <time>2026-08-22T04:13:44.000Z</time>
        <extensions>
          <ns3:TrackPointExtension>
            <ns3:hr>156</ns3:hr>
            <ns3:cad>46</ns3:cad>
          </ns3:TrackPointExtension>
        </extensions>
      </trkpt>
      <trkpt lat="45.25803856551647186279296875" lon="-71.19478357024490833282470703125">
        <ele>706.4000244140625</ele>
        <time>2026-08-22T04:13:45.000Z</time>
        <extensions>
          <ns3:TrackPointExtension>
            <ns3:hr>156</ns3:hr>
            <ns3:cad>46</ns3:cad>
          </ns3:TrackPointExtension>
        </extensions>
      </trkpt>
      <trkpt lat="45.25803496129810810089111328125" lon="-71.19479916058480739593505859375">
        <ele>706.5999755859375</ele>
        <time>2026-08-22T04:13:46.000Z</time>
        <extensions>
          <ns3:TrackPointExtension>
            <ns3:hr>156</ns3:hr>
            <ns3:cad>0</ns3:cad>
          </ns3:TrackPointExtension>
        </extensions>
      </trkpt>
      <trkpt lat="45.25803647004067897796630859375" lon="-71.1948054470121860504150390625">
        <ele>707</ele>
        <time>2026-08-22T04:13:47.000Z</time>
        <extensions>
          <ns3:TrackPointExtension>
            <ns3:hr>156</ns3:hr>
            <ns3:cad>0</ns3:cad>
          </ns3:TrackPointExtension>
        </extensions>
      </trkpt>
      <trkpt lat="45.25802691467106342315673828125" lon="-71.19482128880918025970458984375">
        <ele>707.20001220703125</ele>
        <time>2026-08-22T04:13:48.000Z</time>
        <extensions>
          <ns3:TrackPointExtension>
            <ns3:hr>155</ns3:hr>
            <ns3:cad>0</ns3:cad>
          </ns3:TrackPointExtension>
        </extensions>
      </trkpt>
      <trkpt lat="45.2580192871391773223876953125" lon="-71.19483402930200099945068359375">
        <ele>707.4000244140625</ele>
        <time>2026-08-22T04:13:49.000Z</time>
        <extensions>
          <ns3:TrackPointExtension>
            <ns3:hr>156</ns3:hr>
            <ns3:cad>0</ns3:cad>
          </ns3:TrackPointExtension>
        </extensions>
      </trkpt>
      <trkpt lat="45.25801450945436954498291015625" lon="-71.1948394775390625">
        <ele>707.79998779296875</ele>
        <time>2026-08-22T04:13:50.000Z</time>
        <extensions>
          <ns3:TrackPointExtension>
            <ns3:hr>156</ns3:hr>
            <ns3:cad>0</ns3:cad>
          </ns3:TrackPointExtension>
        </extensions>
      </trkpt>
      <trkpt lat="45.25800830684602260589599609375" lon="-71.19484291411936283111572265625">
        <ele>708</ele>
        <time>2026-08-22T04:13:51.000Z</time>
        <extensions>
          <ns3:TrackPointExtension>
            <ns3:hr>156</ns3:hr>
            <ns3:cad>0</ns3:cad>
          </ns3:TrackPointExtension>
        </extensions>
      </trkpt>
      <trkpt lat="45.25799774564802646636962890625" lon="-71.19485431350767612457275390625">
        <ele>708.20001220703125</ele>
        <time>2026-08-22T04:13:52.000Z</time>
        <extensions>
          <ns3:TrackPointExtension>
            <ns3:hr>156</ns3:hr>
            <ns3:cad>0</ns3:cad>
          </ns3:TrackPointExtension>
        </extensions>
      </trkpt>
      <trkpt lat="45.257989950478076934814453125" lon="-71.19486319832503795623779296875">
        <ele>708.4000244140625</ele>
        <time>2026-08-22T04:13:53.000Z</time>
        <extensions>
          <ns3:TrackPointExtension>
            <ns3:hr>156</ns3:hr>
            <ns3:cad>48</ns3:cad>
          </ns3:TrackPointExtension>
        </extensions>
      </trkpt>
      <trkpt lat="45.25797913782298564910888671875" lon="-71.19487325660884380340576171875">
        <ele>708.79998779296875</ele>
        <time>2026-08-22T04:13:54.000Z</time>
        <extensions>
          <ns3:TrackPointExtension>
            <ns3:hr>156</ns3:hr>
            <ns3:cad>48</ns3:cad>
          </ns3:TrackPointExtension>
        </extensions>
      </trkpt>
      <trkpt lat="45.25796882808208465576171875" lon="-71.194876693189144134521484375">
        <ele>709</ele>
        <time>2026-08-22T04:13:55.000Z</time>
        <extensions>
          <ns3:TrackPointExtension>
            <ns3:hr>156</ns3:hr>
            <ns3:cad>51</ns3:cad>
          </ns3:TrackPointExtension>
        </extensions>
      </trkpt>
      <trkpt lat="45.25796103291213512420654296875" lon="-71.19487744756042957305908203125">
        <ele>709.20001220703125</ele>
        <time>2026-08-22T04:13:56.000Z</time>
        <extensions>
          <ns3:TrackPointExtension>
            <ns3:hr>155</ns3:hr>
            <ns3:cad>50</ns3:cad>
          </ns3:TrackPointExtension>
        </extensions>
      </trkpt>
      <trkpt lat="45.25794728659093379974365234375" lon="-71.19487895630300045013427734375">
        <ele>709.4000244140625</ele>
        <time>2026-08-22T04:13:57.000Z</time>
        <extensions>
          <ns3:TrackPointExtension>
            <ns3:hr>155</ns3:hr>
            <ns3:cad>50</ns3:cad>
          </ns3:TrackPointExtension>
        </extensions>
      </trkpt>
      <trkpt lat="45.257940329611301422119140625" lon="-71.19487929157912731170654296875">
        <ele>709.5999755859375</ele>
        <time>2026-08-22T04:13:58.000Z</time>
        <extensions>
          <ns3:TrackPointExtension>
            <ns3:hr>156</ns3:hr>
            <ns3:cad>0</ns3:cad>
          </ns3:TrackPointExtension>
        </extensions>
      </trkpt>
      <trkpt lat="45.2579280920326709747314453125" lon="-71.1948802135884761810302734375">
        <ele>710</ele>
        <time>2026-08-22T04:13:59.000Z</time>
        <extensions>
          <ns3:TrackPointExtension>
            <ns3:hr>156</ns3:hr>
            <ns3:cad>0</ns3:cad>
          </ns3:TrackPointExtension>
        </extensions>
      </trkpt>
      <trkpt lat="45.25792029686272144317626953125" lon="-71.19488063268363475799560546875">
        <ele>710.20001220703125</ele>
        <time>2026-08-22T04:14:00.000Z</time>
        <extensions>
          <ns3:TrackPointExtension>
            <ns3:hr>156</ns3:hr>
            <ns3:cad>48</ns3:cad>
          </ns3:TrackPointExtension>
        </extensions>
      </trkpt>
      <trkpt lat="45.25791174732148647308349609375" lon="-71.194879375398159027099609375">
        <ele>710.5999755859375</ele>
        <time>2026-08-22T04:14:01.000Z</time>
        <extensions>
          <ns3:TrackPointExtension>
            <ns3:hr>156</ns3:hr>
            <ns3:cad>48</ns3:cad>
          </ns3:TrackPointExtension>
        </extensions>
      </trkpt>
      <trkpt lat="45.2579069696366786956787109375" lon="-71.19487761519849300384521484375">
        <ele>710.79998779296875</ele>
        <time>2026-08-22T04:14:02.000Z</time>
        <extensions>
          <ns3:TrackPointExtension>
            <ns3:hr>156</ns3:hr>
            <ns3:cad>48</ns3:cad>
          </ns3:TrackPointExtension>
        </extensions>
      </trkpt>
      <trkpt lat="45.2578922174870967864990234375" lon="-71.19487292133271694183349609375">
        <ele>711</ele>
        <time>2026-08-22T04:14:03.000Z</time>
        <extensions>
          <ns3:TrackPointExtension>
            <ns3:hr>157</ns3:hr>
            <ns3:cad>48</ns3:cad>
          </ns3:TrackPointExtension>
        </extensions>
      </trkpt>
      <trkpt lat="45.2578808180987834930419921875" lon="-71.19486822746694087982177734375">
        <ele>711.20001220703125</ele>
        <time>2026-08-22T04:14:04.000Z</time>
        <extensions>
          <ns3:TrackPointExtension>
            <ns3:hr>157</ns3:hr>
            <ns3:cad>48</ns3:cad>
          </ns3:TrackPointExtension>
        </extensions>
      </trkpt>
      <trkpt lat="45.257867909967899322509765625" lon="-71.1948657967150211334228515625">
        <ele>711.4000244140625</ele>
        <time>2026-08-22T04:14:05.000Z</time>
        <extensions>
          <ns3:TrackPointExtension>
            <ns3:hr>157</ns3:hr>
            <ns3:cad>47</ns3:cad>
          </ns3:TrackPointExtension>
        </extensions>
      </trkpt>
      <trkpt lat="45.25786078535020351409912109375" lon="-71.19486688636243343353271484375">
        <ele>711.5999755859375</ele>
        <time>2026-08-22T04:14:06.000Z</time>
        <extensions>
          <ns3:TrackPointExtension>
            <ns3:hr>156</ns3:hr>
            <ns3:cad>47</ns3:cad>
          </ns3:TrackPointExtension>
        </extensions>
      </trkpt>
      <trkpt lat="45.2578506432473659515380859375" lon="-71.194861941039562225341796875">
        <ele>711.79998779296875</ele>
        <time>2026-08-22T04:14:07.000Z</time>
        <extensions>
          <ns3:TrackPointExtension>
            <ns3:hr>157</ns3:hr>
            <ns3:cad>0</ns3:cad>
          </ns3:TrackPointExtension>
        </extensions>
      </trkpt>
      <trkpt lat="45.2578405849635601043701171875" lon="-71.194854564964771270751953125">
        <ele>712.20001220703125</ele>
        <time>2026-08-22T04:14:08.000Z</time>
        <extensions>
          <ns3:TrackPointExtension>
            <ns3:hr>157</ns3:hr>
            <ns3:cad>0</ns3:cad>
          </ns3:TrackPointExtension>
        </extensions>
      </trkpt>
      <trkpt lat="45.25782826356589794158935546875" lon="-71.1948513798415660858154296875">
        <ele>712.4000244140625</ele>
        <time>2026-08-22T04:14:09.000Z</time>
        <extensions>
          <ns3:TrackPointExtension>
            <ns3:hr>157</ns3:hr>
            <ns3:cad>0</ns3:cad>
          </ns3:TrackPointExtension>
        </extensions>
      </trkpt>
      <trkpt lat="45.2578187920153141021728515625" lon="-71.19485179893672466278076171875">
        <ele>712.5999755859375</ele>
        <time>2026-08-22T04:14:10.000Z</time>
        <extensions>
          <ns3:TrackPointExtension>
            <ns3:hr>158</ns3:hr>
            <ns3:cad>0</ns3:cad>
          </ns3:TrackPointExtension>
        </extensions>
      </trkpt>
      <trkpt lat="45.2578125894069671630859375" lon="-71.19485029019415378570556640625">
        <ele>713</ele>
        <time>2026-08-22T04:14:11.000Z</time>
        <extensions>
          <ns3:TrackPointExtension>
            <ns3:hr>158</ns3:hr>
            <ns3:cad>0</ns3:cad>
          </ns3:TrackPointExtension>
        </extensions>
      </trkpt>
      <trkpt lat="45.25780387222766876220703125" lon="-71.1948476918041706085205078125">
        <ele>713.20001220703125</ele>
        <time>2026-08-22T04:14:12.000Z</time>
        <extensions>
          <ns3:TrackPointExtension>
            <ns3:hr>157</ns3:hr>
            <ns3:cad>0</ns3:cad>
          </ns3:TrackPointExtension>
        </extensions>
      </trkpt>
      <trkpt lat="45.25779657997190952301025390625" lon="-71.19484073482453823089599609375">
        <ele>713.4000244140625</ele>
        <time>2026-08-22T04:14:13.000Z</time>
        <extensions>
          <ns3:TrackPointExtension>
            <ns3:hr>157</ns3:hr>
            <ns3:cad>0</ns3:cad>
          </ns3:TrackPointExtension>
        </extensions>
      </trkpt>
      <trkpt lat="45.257786773145198822021484375" lon="-71.19483520276844501495361328125">
        <ele>713.5999755859375</ele>
        <time>2026-08-22T04:14:14.000Z</time>
        <extensions>
          <ns3:TrackPointExtension>
            <ns3:hr>157</ns3:hr>
            <ns3:cad>47</ns3:cad>
          </ns3:TrackPointExtension>
        </extensions>
      </trkpt>
      <trkpt lat="45.25777663104236125946044921875" lon="-71.1948326043784618377685546875">
        <ele>713.79998779296875</ele>
        <time>2026-08-22T04:14:15.000Z</time>
        <extensions>
          <ns3:TrackPointExtension>
            <ns3:hr>157</ns3:hr>
            <ns3:cad>48</ns3:cad>
          </ns3:TrackPointExtension>
        </extensions>
      </trkpt>
      <trkpt lat="45.257770009338855743408203125" lon="-71.1948309279978275299072265625">
        <ele>714</ele>
        <time>2026-08-22T04:14:16.000Z</time>
        <extensions>
          <ns3:TrackPointExtension>
            <ns3:hr>157</ns3:hr>
            <ns3:cad>48</ns3:cad>
          </ns3:TrackPointExtension>
        </extensions>
      </trkpt>
      <trkpt lat="45.25776020251214504241943359375" lon="-71.1948242224752902984619140625">
        <ele>714.20001220703125</ele>
        <time>2026-08-22T04:14:17.000Z</time>
        <extensions>
          <ns3:TrackPointExtension>
            <ns3:hr>156</ns3:hr>
            <ns3:cad>48</ns3:cad>
          </ns3:TrackPointExtension>
        </extensions>
      </trkpt>
      <trkpt lat="45.25774997659027576446533203125" lon="-71.19480988942086696624755859375">
        <ele>714.5999755859375</ele>
        <time>2026-08-22T04:14:18.000Z</time>
        <extensions>
          <ns3:TrackPointExtension>
            <ns3:hr>156</ns3:hr>
            <ns3:cad>48</ns3:cad>
          </ns3:TrackPointExtension>
        </extensions>
      </trkpt>
      <trkpt lat="45.257736481726169586181640625" lon="-71.1948031000792980194091796875">
        <ele>714.79998779296875</ele>
        <time>2026-08-22T04:14:19.000Z</time>
        <extensions>
          <ns3:TrackPointExtension>
            <ns3:hr>157</ns3:hr>
            <ns3:cad>48</ns3:cad>
          </ns3:TrackPointExtension>
        </extensions>
      </trkpt>
      <trkpt lat="45.25772617198526859283447265625" lon="-71.1947980709373950958251953125">
        <ele>715</ele>
        <time>2026-08-22T04:14:20.000Z</time>
        <extensions>
          <ns3:TrackPointExtension>
            <ns3:hr>157</ns3:hr>
            <ns3:cad>47</ns3:cad>
          </ns3:TrackPointExtension>
        </extensions>
      </trkpt>
      <trkpt lat="45.25771577842533588409423828125" lon="-71.1947900243103504180908203125">
        <ele>715.20001220703125</ele>
        <time>2026-08-22T04:14:21.000Z</time>
        <extensions>
          <ns3:TrackPointExtension>
            <ns3:hr>157</ns3:hr>
            <ns3:cad>47</ns3:cad>
          </ns3:TrackPointExtension>
        </extensions>
      </trkpt>
      <trkpt lat="45.2577128447592258453369140625" lon="-71.194782145321369171142578125">
        <ele>715.4000244140625</ele>
        <time>2026-08-22T04:14:22.000Z</time>
        <extensions>
          <ns3:TrackPointExtension>
            <ns3:hr>156</ns3:hr>
            <ns3:cad>47</ns3:cad>
          </ns3:TrackPointExtension>
        </extensions>
      </trkpt>
      <trkpt lat="45.2577064745128154754638671875" lon="-71.19476915337145328521728515625">
        <ele>715.5999755859375</ele>
        <time>2026-08-22T04:14:23.000Z</time>
        <extensions>
          <ns3:TrackPointExtension>
            <ns3:hr>157</ns3:hr>
            <ns3:cad>47</ns3:cad>
          </ns3:TrackPointExtension>
        </extensions>
      </trkpt>
      <trkpt lat="45.257692895829677581787109375" lon="-71.1947576701641082763671875">
        <ele>715.79998779296875</ele>
        <time>2026-08-22T04:14:24.000Z</time>
        <extensions>
          <ns3:TrackPointExtension>
            <ns3:hr>157</ns3:hr>
            <ns3:cad>47</ns3:cad>
          </ns3:TrackPointExtension>
        </extensions>
      </trkpt>
      <trkpt lat="45.25768409483134746551513671875" lon="-71.1947521381080150604248046875">
        <ele>716</ele>
        <time>2026-08-22T04:14:25.000Z</time>
        <extensions>
          <ns3:TrackPointExtension>
            <ns3:hr>157</ns3:hr>
            <ns3:cad>47</ns3:cad>
          </ns3:TrackPointExtension>
        </extensions>
      </trkpt>
      <trkpt lat="45.2576757967472076416015625" lon="-71.19474719278514385223388671875">
        <ele>716.20001220703125</ele>
        <time>2026-08-22T04:14:26.000Z</time>
        <extensions>
          <ns3:TrackPointExtension>
            <ns3:hr>157</ns3:hr>
            <ns3:cad>48</ns3:cad>
          </ns3:TrackPointExtension>
        </extensions>
      </trkpt>
      <trkpt lat="45.25766707956790924072265625" lon="-71.1947410739958286285400390625">
        <ele>716.4000244140625</ele>
        <time>2026-08-22T04:14:27.000Z</time>
        <extensions>
          <ns3:TrackPointExtension>
            <ns3:hr>157</ns3:hr>
            <ns3:cad>48</ns3:cad>
          </ns3:TrackPointExtension>
        </extensions>
      </trkpt>
      <trkpt lat="45.25765492580831050872802734375" lon="-71.194733195006847381591796875">
        <ele>716.5999755859375</ele>
        <time>2026-08-22T04:14:28.000Z</time>
        <extensions>
          <ns3:TrackPointExtension>
            <ns3:hr>157</ns3:hr>
            <ns3:cad>48</ns3:cad>
          </ns3:TrackPointExtension>
        </extensions>
      </trkpt>
      <trkpt lat="45.25764704681932926177978515625" lon="-71.19472883641719818115234375">
        <ele>716.79998779296875</ele>
        <time>2026-08-22T04:14:29.000Z</time>
        <extensions>
          <ns3:TrackPointExtension>
            <ns3:hr>157</ns3:hr>
            <ns3:cad>48</ns3:cad>
          </ns3:TrackPointExtension>
        </extensions>
      </trkpt>
      <trkpt lat="45.25763715617358684539794921875" lon="-71.194725148379802703857421875">
        <ele>717</ele>
        <time>2026-08-22T04:14:30.000Z</time>
        <extensions>
          <ns3:TrackPointExtension>
            <ns3:hr>156</ns3:hr>
            <ns3:cad>48</ns3:cad>
          </ns3:TrackPointExtension>
        </extensions>
      </trkpt>
      <trkpt lat="45.257631205022335052490234375" lon="-71.1947239749133586883544921875">
        <ele>717.4000244140625</ele>
        <time>2026-08-22T04:14:31.000Z</time>
        <extensions>
          <ns3:TrackPointExtension>
            <ns3:hr>156</ns3:hr>
            <ns3:cad>47</ns3:cad>
          </ns3:TrackPointExtension>
        </extensions>
      </trkpt>
      <trkpt lat="45.25761905126273632049560546875" lon="-71.19471936486661434173583984375">
        <ele>717.5999755859375</ele>
        <time>2026-08-22T04:14:32.000Z</time>
        <extensions>
          <ns3:TrackPointExtension>
            <ns3:hr>156</ns3:hr>
            <ns3:cad>47</ns3:cad>
          </ns3:TrackPointExtension>
        </extensions>
      </trkpt>
      <trkpt lat="45.25760999880731105804443359375" lon="-71.1947165988385677337646484375">
        <ele>717.79998779296875</ele>
        <time>2026-08-22T04:14:33.000Z</time>
        <extensions>
          <ns3:TrackPointExtension>
            <ns3:hr>157</ns3:hr>
            <ns3:cad>47</ns3:cad>
          </ns3:TrackPointExtension>
        </extensions>
      </trkpt>
      <trkpt lat="45.257601030170917510986328125" lon="-71.194714419543743133544921875">
        <ele>718</ele>
        <time>2026-08-22T04:14:34.000Z</time>
        <extensions>
          <ns3:TrackPointExtension>
            <ns3:hr>157</ns3:hr>
            <ns3:cad>46</ns3:cad>
          </ns3:TrackPointExtension>
        </extensions>
      </trkpt>
      <trkpt lat="45.25759331881999969482421875" lon="-71.1947120726108551025390625">
        <ele>718.20001220703125</ele>
        <time>2026-08-22T04:14:35.000Z</time>
        <extensions>
          <ns3:TrackPointExtension>
            <ns3:hr>157</ns3:hr>
            <ns3:cad>46</ns3:cad>
          </ns3:TrackPointExtension>
        </extensions>
      </trkpt>
      <trkpt lat="45.25758535601198673248291015625" lon="-71.1947058700025081634521484375">
        <ele>718.4000244140625</ele>
        <time>2026-08-22T04:14:36.000Z</time>
        <extensions>
          <ns3:TrackPointExtension>
            <ns3:hr>157</ns3:hr>
            <ns3:cad>45</ns3:cad>
          </ns3:TrackPointExtension>
        </extensions>
      </trkpt>
      <trkpt lat="45.25757848285138607025146484375" lon="-71.1947028525173664093017578125">
        <ele>718.79998779296875</ele>
        <time>2026-08-22T04:14:37.000Z</time>
        <extensions>
          <ns3:TrackPointExtension>
            <ns3:hr>157</ns3:hr>
            <ns3:cad>45</ns3:cad>
          </ns3:TrackPointExtension>
        </extensions>
      </trkpt>
      <trkpt lat="45.25757186114788055419921875" lon="-71.1947021819651126861572265625">
        <ele>719</ele>
        <time>2026-08-22T04:14:38.000Z</time>
        <extensions>
          <ns3:TrackPointExtension>
            <ns3:hr>157</ns3:hr>
            <ns3:cad>45</ns3:cad>
          </ns3:TrackPointExtension>
        </extensions>
      </trkpt>
      <trkpt lat="45.257568173110485076904296875" lon="-71.19470276869833469390869140625">
        <ele>719.20001220703125</ele>
        <time>2026-08-22T04:14:39.000Z</time>
        <extensions>
          <ns3:TrackPointExtension>
            <ns3:hr>156</ns3:hr>
            <ns3:cad>45</ns3:cad>
          </ns3:TrackPointExtension>
        </extensions>
      </trkpt>
      <trkpt lat="45.2575596235692501068115234375" lon="-71.1947000026702880859375">
        <ele>719.4000244140625</ele>
        <time>2026-08-22T04:14:40.000Z</time>
        <extensions>
          <ns3:TrackPointExtension>
            <ns3:hr>157</ns3:hr>
            <ns3:cad>45</ns3:cad>
          </ns3:TrackPointExtension>
        </extensions>
      </trkpt>
      <trkpt lat="45.2575529180467128753662109375" lon="-71.19469656608998775482177734375">
        <ele>719.5999755859375</ele>
        <time>2026-08-22T04:14:41.000Z</time>
        <extensions>
          <ns3:TrackPointExtension>
            <ns3:hr>157</ns3:hr>
            <ns3:cad>45</ns3:cad>
          </ns3:TrackPointExtension>
        </extensions>
      </trkpt>
      <trkpt lat="45.25754411704838275909423828125" lon="-71.19469505734741687774658203125">
        <ele>720</ele>
        <time>2026-08-22T04:14:42.000Z</time>
        <extensions>
          <ns3:TrackPointExtension>
            <ns3:hr>157</ns3:hr>
            <ns3:cad>45</ns3:cad>
          </ns3:TrackPointExtension>
        </extensions>
      </trkpt>
      <trkpt lat="45.25753238238394260406494140625" lon="-71.19469271041452884674072265625">
        <ele>720.20001220703125</ele>
        <time>2026-08-22T04:14:43.000Z</time>
        <extensions>
          <ns3:TrackPointExtension>
            <ns3:hr>158</ns3:hr>
            <ns3:cad>44</ns3:cad>
          </ns3:TrackPointExtension>
        </extensions>
      </trkpt>
      <trkpt lat="45.25752919726073741912841796875" lon="-71.1946860887110233306884765625">
        <ele>720.5999755859375</ele>
        <time>2026-08-22T04:14:44.000Z</time>
        <extensions>
          <ns3:TrackPointExtension>
            <ns3:hr>158</ns3:hr>
            <ns3:cad>44</ns3:cad>
          </ns3:TrackPointExtension>
        </extensions>
      </trkpt>
      <trkpt lat="45.25751595385372638702392578125" lon="-71.19468457996845245361328125">
        <ele>720.79998779296875</ele>
        <time>2026-08-22T04:14:45.000Z</time>
        <extensions>
          <ns3:TrackPointExtension>
            <ns3:hr>158</ns3:hr>
            <ns3:cad>47</ns3:cad>
          </ns3:TrackPointExtension>
        </extensions>
      </trkpt>
      <trkpt lat="45.25750706903636455535888671875" lon="-71.19468851946294307708740234375">
        <ele>721</ele>
        <time>2026-08-22T04:14:46.000Z</time>
        <extensions>
          <ns3:TrackPointExtension>
            <ns3:hr>158</ns3:hr>
            <ns3:cad>48</ns3:cad>
          </ns3:TrackPointExtension>
        </extensions>
      </trkpt>
      <trkpt lat="45.25750019587576389312744140625" lon="-71.194686591625213623046875">
        <ele>721.4000244140625</ele>
        <time>2026-08-22T04:14:47.000Z</time>
        <extensions>
          <ns3:TrackPointExtension>
            <ns3:hr>158</ns3:hr>
            <ns3:cad>48</ns3:cad>
          </ns3:TrackPointExtension>
        </extensions>
      </trkpt>
      <trkpt lat="45.25749013759195804595947265625" lon="-71.19468935765326023101806640625">
        <ele>721.5999755859375</ele>
        <time>2026-08-22T04:14:48.000Z</time>
        <extensions>
          <ns3:TrackPointExtension>
            <ns3:hr>158</ns3:hr>
            <ns3:cad>48</ns3:cad>
          </ns3:TrackPointExtension>
        </extensions>
      </trkpt>
      <trkpt lat="45.257478989660739898681640625" lon="-71.19469673372805118560791015625">
        <ele>722</ele>
        <time>2026-08-22T04:14:49.000Z</time>
        <extensions>
          <ns3:TrackPointExtension>
            <ns3:hr>158</ns3:hr>
            <ns3:cad>48</ns3:cad>
          </ns3:TrackPointExtension>
        </extensions>
      </trkpt>
      <trkpt lat="45.257469601929187774658203125" lon="-71.19470176286995410919189453125">
        <ele>722.20001220703125</ele>
        <time>2026-08-22T04:14:50.000Z</time>
        <extensions>
          <ns3:TrackPointExtension>
            <ns3:hr>158</ns3:hr>
            <ns3:cad>48</ns3:cad>
          </ns3:TrackPointExtension>
        </extensions>
      </trkpt>
      <trkpt lat="45.25746013037860393524169921875" lon="-71.194706372916698455810546875">
        <ele>722.4000244140625</ele>
        <time>2026-08-22T04:14:51.000Z</time>
        <extensions>
          <ns3:TrackPointExtension>
            <ns3:hr>158</ns3:hr>
            <ns3:cad>48</ns3:cad>
          </ns3:TrackPointExtension>
        </extensions>
      </trkpt>
      <trkpt lat="45.2574543468654155731201171875" lon="-71.19470813311636447906494140625">
        <ele>722.5999755859375</ele>
        <time>2026-08-22T04:14:52.000Z</time>
        <extensions>
          <ns3:TrackPointExtension>
            <ns3:hr>158</ns3:hr>
            <ns3:cad>48</ns3:cad>
          </ns3:TrackPointExtension>
        </extensions>
      </trkpt>
      <trkpt lat="45.25744437240064144134521484375" lon="-71.19471131823956966400146484375">
        <ele>722.79998779296875</ele>
        <time>2026-08-22T04:14:53.000Z</time>
        <extensions>
          <ns3:TrackPointExtension>
            <ns3:hr>158</ns3:hr>
            <ns3:cad>48</ns3:cad>
          </ns3:TrackPointExtension>
        </extensions>
      </trkpt>
      <trkpt lat="45.25743314065039157867431640625" lon="-71.194713413715362548828125">
        <ele>723</ele>
        <time>2026-08-22T04:14:54.000Z</time>
        <extensions>
          <ns3:TrackPointExtension>
            <ns3:hr>158</ns3:hr>
            <ns3:cad>48</ns3:cad>
          </ns3:TrackPointExtension>
        </extensions>
      </trkpt>
      <trkpt lat="45.2574290335178375244140625" lon="-71.19471416808664798736572265625">
        <ele>723.4000244140625</ele>
        <time>2026-08-22T04:14:55.000Z</time>
        <extensions>
          <ns3:TrackPointExtension>
            <ns3:hr>158</ns3:hr>
            <ns3:cad>48</ns3:cad>
          </ns3:TrackPointExtension>
        </extensions>
      </trkpt>
      <trkpt lat="45.2574174664914608001708984375" lon="-71.19471542537212371826171875">
        <ele>723.5999755859375</ele>
        <time>2026-08-22T04:14:56.000Z</time>
        <extensions>
          <ns3:TrackPointExtension>
            <ns3:hr>158</ns3:hr>
            <ns3:cad>48</ns3:cad>
          </ns3:TrackPointExtension>
        </extensions>
      </trkpt>
      <trkpt lat="45.25741092860698699951171875" lon="-71.19472137652337551116943359375">
        <ele>723.79998779296875</ele>
        <time>2026-08-22T04:14:57.000Z</time>
        <extensions>
          <ns3:TrackPointExtension>
            <ns3:hr>158</ns3:hr>
            <ns3:cad>48</ns3:cad>
          </ns3:TrackPointExtension>
        </extensions>
      </trkpt>
      <trkpt lat="45.2574047259986400604248046875" lon="-71.19473042897880077362060546875">
        <ele>724</ele>
        <time>2026-08-22T04:14:58.000Z</time>
        <extensions>
          <ns3:TrackPointExtension>
            <ns3:hr>158</ns3:hr>
            <ns3:cad>47</ns3:cad>
          </ns3:TrackPointExtension>
        </extensions>
      </trkpt>
      <trkpt lat="45.25739843957126140594482421875" lon="-71.1947429180145263671875">
        <ele>724.20001220703125</ele>
        <time>2026-08-22T04:14:59.000Z</time>
        <extensions>
          <ns3:TrackPointExtension>
            <ns3:hr>157</ns3:hr>
            <ns3:cad>47</ns3:cad>
          </ns3:TrackPointExtension>
        </extensions>
      </trkpt>
      <trkpt lat="45.25739349424839019775390625" lon="-71.1947494558990001678466796875">
        <ele>724.4000244140625</ele>
        <time>2026-08-22T04:15:00.000Z</time>
        <extensions>
          <ns3:TrackPointExtension>
            <ns3:hr>157</ns3:hr>
            <ns3:cad>0</ns3:cad>
          </ns3:TrackPointExtension>
        </extensions>
      </trkpt>
      <trkpt lat="45.25738737545907497406005859375" lon="-71.1947603523731231689453125">
        <ele>724.4000244140625</ele>
        <time>2026-08-22T04:15:01.000Z</time>
        <extensions>
          <ns3:TrackPointExtension>
            <ns3:hr>157</ns3:hr>
            <ns3:cad>0</ns3:cad>
          </ns3:TrackPointExtension>
        </extensions>
      </trkpt>
      <trkpt lat="45.2573795802891254425048828125" lon="-71.19476965628564357757568359375">
        <ele>724.5999755859375</ele>
        <time>2026-08-22T04:15:02.000Z</time>
        <extensions>
          <ns3:TrackPointExtension>
            <ns3:hr>157</ns3:hr>
            <ns3:cad>0</ns3:cad>
          </ns3:TrackPointExtension>
        </extensions>
      </trkpt>
      <trkpt lat="45.25737513788044452667236328125" lon="-71.194776110351085662841796875">
        <ele>724.79998779296875</ele>
        <time>2026-08-22T04:15:03.000Z</time>
        <extensions>
          <ns3:TrackPointExtension>
            <ns3:hr>157</ns3:hr>
            <ns3:cad>0</ns3:cad>
          </ns3:TrackPointExtension>
        </extensions>
      </trkpt>
      <trkpt lat="45.2573708631098270416259765625" lon="-71.19478239677846431732177734375">
        <ele>725.20001220703125</ele>
        <time>2026-08-22T04:15:04.000Z</time>
        <extensions>
          <ns3:TrackPointExtension>
            <ns3:hr>156</ns3:hr>
            <ns3:cad>0</ns3:cad>
          </ns3:TrackPointExtension>
        </extensions>
      </trkpt>
      <trkpt lat="45.25736943818628787994384765625" lon="-71.194796897470951080322265625">
        <ele>725.4000244140625</ele>
        <time>2026-08-22T04:15:05.000Z</time>
        <extensions>
          <ns3:TrackPointExtension>
            <ns3:hr>157</ns3:hr>
            <ns3:cad>43</ns3:cad>
          </ns3:TrackPointExtension>
        </extensions>
      </trkpt>
      <trkpt lat="45.25737027637660503387451171875" lon="-71.19481039233505725860595703125">
        <ele>725.5999755859375</ele>
        <time>2026-08-22T04:15:06.000Z</time>
        <extensions>
          <ns3:TrackPointExtension>
            <ns3:hr>158</ns3:hr>
            <ns3:cad>43</ns3:cad>
          </ns3:TrackPointExtension>
        </extensions>
      </trkpt>
      <trkpt lat="45.2573705278337001800537109375" lon="-71.194822378456592559814453125">
        <ele>725.79998779296875</ele>
        <time>2026-08-22T04:15:07.000Z</time>
        <extensions>
          <ns3:TrackPointExtension>
            <ns3:hr>158</ns3:hr>
            <ns3:cad>43</ns3:cad>
          </ns3:TrackPointExtension>
        </extensions>
      </trkpt>
      <trkpt lat="45.25736927054822444915771484375" lon="-71.1948396451771259307861328125">
        <ele>726</ele>
        <time>2026-08-22T04:15:08.000Z</time>
        <extensions>
          <ns3:TrackPointExtension>
            <ns3:hr>158</ns3:hr>
            <ns3:cad>43</ns3:cad>
          </ns3:TrackPointExtension>
        </extensions>
      </trkpt>
      <trkpt lat="45.257372371852397918701171875" lon="-71.19484777562320232391357421875">
        <ele>726.20001220703125</ele>
        <time>2026-08-22T04:15:09.000Z</time>
        <extensions>
          <ns3:TrackPointExtension>
            <ns3:hr>158</ns3:hr>
            <ns3:cad>43</ns3:cad>
          </ns3:TrackPointExtension>
        </extensions>
      </trkpt>
      <trkpt lat="45.25737212039530277252197265625" lon="-71.19485699571669101715087890625">
        <ele>726.20001220703125</ele>
        <time>2026-08-22T04:15:10.000Z</time>
        <extensions>
          <ns3:TrackPointExtension>
            <ns3:hr>158</ns3:hr>
            <ns3:cad>43</ns3:cad>
          </ns3:TrackPointExtension>
        </extensions>
      </trkpt>
      <trkpt lat="45.25736675597727298736572265625" lon="-71.1948755197227001190185546875">
        <ele>726.4000244140625</ele>
        <time>2026-08-22T04:15:11.000Z</time>
        <extensions>
          <ns3:TrackPointExtension>
            <ns3:hr>158</ns3:hr>
            <ns3:cad>43</ns3:cad>
          </ns3:TrackPointExtension>
        </extensions>
      </trkpt>
      <trkpt lat="45.2573665045201778411865234375" lon="-71.19489806704223155975341796875">
        <ele>726.5999755859375</ele>
        <time>2026-08-22T04:15:12.000Z</time>
        <extensions>
          <ns3:TrackPointExtension>
            <ns3:hr>158</ns3:hr>
            <ns3:cad>0</ns3:cad>
          </ns3:TrackPointExtension>
        </extensions>
      </trkpt>
      <trkpt lat="45.2573661692440509796142578125" lon="-71.1949134059250354766845703125">
        <ele>726.79998779296875</ele>
        <time>2026-08-22T04:15:13.000Z</time>
        <extensions>
          <ns3:TrackPointExtension>
            <ns3:hr>158</ns3:hr>
            <ns3:cad>0</ns3:cad>
          </ns3:TrackPointExtension>
        </extensions>
      </trkpt>
      <trkpt lat="45.25736139155924320220947265625" lon="-71.1949325166642665863037109375">
        <ele>727</ele>
        <time>2026-08-22T04:15:14.000Z</time>
        <extensions>
          <ns3:TrackPointExtension>
            <ns3:hr>158</ns3:hr>
            <ns3:cad>43</ns3:cad>
          </ns3:TrackPointExtension>
        </extensions>
      </trkpt>
      <trkpt lat="45.2573631517589092254638671875" lon="-71.19494684971868991851806640625">
        <ele>727.20001220703125</ele>
        <time>2026-08-22T04:15:15.000Z</time>
        <extensions>
          <ns3:TrackPointExtension>
            <ns3:hr>157</ns3:hr>
            <ns3:cad>45</ns3:cad>
          </ns3:TrackPointExtension>
        </extensions>
      </trkpt>
      <trkpt lat="45.2573604695498943328857421875" lon="-71.1949749290943145751953125">
        <ele>727.4000244140625</ele>
        <time>2026-08-22T04:15:16.000Z</time>
        <extensions>
          <ns3:TrackPointExtension>
            <ns3:hr>156</ns3:hr>
            <ns3:cad>45</ns3:cad>
          </ns3:TrackPointExtension>
        </extensions>
      </trkpt>
      <trkpt lat="45.257360301911830902099609375" lon="-71.19498557411134243011474609375">
        <ele>727.5999755859375</ele>
        <time>2026-08-22T04:15:17.000Z</time>
        <extensions>
          <ns3:TrackPointExtension>
            <ns3:hr>155</ns3:hr>
            <ns3:cad>45</ns3:cad>
          </ns3:TrackPointExtension>
        </extensions>
      </trkpt>
      <trkpt lat="45.25736340321600437164306640625" lon="-71.195002086460590362548828125">
        <ele>727.5999755859375</ele>
        <time>2026-08-22T04:15:18.000Z</time>
        <extensions>
          <ns3:TrackPointExtension>
            <ns3:hr>154</ns3:hr>
            <ns3:cad>45</ns3:cad>
          </ns3:TrackPointExtension>
        </extensions>
      </trkpt>
      <trkpt lat="45.2573668397963047027587890625" lon="-71.1950178444385528564453125">
        <ele>727.79998779296875</ele>
        <time>2026-08-22T04:15:19.000Z</time>
        <extensions>
          <ns3:TrackPointExtension>
            <ns3:hr>153</ns3:hr>
            <ns3:cad>47</ns3:cad>
          </ns3:TrackPointExtension>
        </extensions>
      </trkpt>
      <trkpt lat="45.2573735453188419342041015625" lon="-71.19503268040716648101806640625">
        <ele>727.79998779296875</ele>
        <time>2026-08-22T04:15:20.000Z</time>
        <extensions>
          <ns3:TrackPointExtension>
            <ns3:hr>153</ns3:hr>
            <ns3:cad>47</ns3:cad>
          </ns3:TrackPointExtension>
        </extensions>
      </trkpt>
      <trkpt lat="45.2573785744607448577880859375" lon="-71.1950473487377166748046875">
        <ele>728</ele>
        <time>2026-08-22T04:15:21.000Z</time>
        <extensions>
          <ns3:TrackPointExtension>
            <ns3:hr>153</ns3:hr>
            <ns3:cad>47</ns3:cad>
          </ns3:TrackPointExtension>
        </extensions>
      </trkpt>
      <trkpt lat="45.25738301686942577362060546875" lon="-71.195063106715679168701171875">
        <ele>728.20001220703125</ele>
        <time>2026-08-22T04:15:22.000Z</time>
        <extensions>
          <ns3:TrackPointExtension>
            <ns3:hr>153</ns3:hr>
            <ns3:cad>47</ns3:cad>
          </ns3:TrackPointExtension>
        </extensions>
      </trkpt>
      <trkpt lat="45.25738938711583614349365234375" lon="-71.19507777504622936248779296875">
        <ele>728.4000244140625</ele>
        <time>2026-08-22T04:15:23.000Z</time>
        <extensions>
          <ns3:TrackPointExtension>
            <ns3:hr>153</ns3:hr>
            <ns3:cad>47</ns3:cad>
          </ns3:TrackPointExtension>
        </extensions>
      </trkpt>
      <trkpt lat="45.2573872916400432586669921875" lon="-71.195090599358081817626953125">
        <ele>728.5999755859375</ele>
        <time>2026-08-22T04:15:24.000Z</time>
        <extensions>
          <ns3:TrackPointExtension>
            <ns3:hr>155</ns3:hr>
            <ns3:cad>50</ns3:cad>
          </ns3:TrackPointExtension>
        </extensions>
      </trkpt>
      <trkpt lat="45.2573866210877895355224609375" lon="-71.19510434567928314208984375">
        <ele>729</ele>
        <time>2026-08-22T04:15:25.000Z</time>
        <extensions>
          <ns3:TrackPointExtension>
            <ns3:hr>155</ns3:hr>
            <ns3:cad>50</ns3:cad>
          </ns3:TrackPointExtension>
        </extensions>
      </trkpt>
      <trkpt lat="45.257381759583950042724609375" lon="-71.1951145716011524200439453125">
        <ele>729.20001220703125</ele>
        <time>2026-08-22T04:15:26.000Z</time>
        <extensions>
          <ns3:TrackPointExtension>
            <ns3:hr>155</ns3:hr>
            <ns3:cad>52</ns3:cad>
          </ns3:TrackPointExtension>
        </extensions>
      </trkpt>
      <trkpt lat="45.2573861181735992431640625" lon="-71.19512588717043399810791015625">
        <ele>729.5999755859375</ele>
        <time>2026-08-22T04:15:27.000Z</time>
        <extensions>
          <ns3:TrackPointExtension>
            <ns3:hr>156</ns3:hr>
            <ns3:cad>52</ns3:cad>
          </ns3:TrackPointExtension>
        </extensions>
      </trkpt>
      <trkpt lat="45.25739709846675395965576171875" lon="-71.1951467581093311309814453125">
        <ele>729.79998779296875</ele>
        <time>2026-08-22T04:15:28.000Z</time>
        <extensions>
          <ns3:TrackPointExtension>
            <ns3:hr>156</ns3:hr>
            <ns3:cad>52</ns3:cad>
          </ns3:TrackPointExtension>
        </extensions>
      </trkpt>
      <trkpt lat="45.25739491917192935943603515625" lon="-71.19515505619347095489501953125">
        <ele>730</ele>
        <time>2026-08-22T04:15:29.000Z</time>
        <extensions>
          <ns3:TrackPointExtension>
            <ns3:hr>156</ns3:hr>
            <ns3:cad>51</ns3:cad>
          </ns3:TrackPointExtension>
        </extensions>
      </trkpt>
      <trkpt lat="45.25740464217960834503173828125" lon="-71.1951719038188457489013671875">
        <ele>730.4000244140625</ele>
        <time>2026-08-22T04:15:30.000Z</time>
        <extensions>
          <ns3:TrackPointExtension>
            <ns3:hr>156</ns3:hr>
            <ns3:cad>51</ns3:cad>
          </ns3:TrackPointExtension>
        </extensions>
      </trkpt>
      <trkpt lat="45.25740749202668666839599609375" lon="-71.19517617858946323394775390625">
        <ele>730.5999755859375</ele>
        <time>2026-08-22T04:15:31.000Z</time>
        <extensions>
          <ns3:TrackPointExtension>
            <ns3:hr>156</ns3:hr>
            <ns3:cad>50</ns3:cad>
          </ns3:TrackPointExtension>
        </extensions>
      </trkpt>
      <trkpt lat="45.2574084140360355377197265625" lon="-71.19519327767193317413330078125">
        <ele>730.79998779296875</ele>
        <time>2026-08-22T04:15:32.000Z</time>
        <extensions>
          <ns3:TrackPointExtension>
            <ns3:hr>156</ns3:hr>
            <ns3:cad>50</ns3:cad>
          </ns3:TrackPointExtension>
        </extensions>
      </trkpt>
      <trkpt lat="45.2574090845882892608642578125" lon="-71.19520434178411960601806640625">
        <ele>731.20001220703125</ele>
        <time>2026-08-22T04:15:33.000Z</time>
        <extensions>
          <ns3:TrackPointExtension>
            <ns3:hr>156</ns3:hr>
            <ns3:cad>50</ns3:cad>
          </ns3:TrackPointExtension>
        </extensions>
      </trkpt>
      <trkpt lat="45.25740883313119411468505859375" lon="-71.19521959684789180755615234375">
        <ele>731.5999755859375</ele>
        <time>2026-08-22T04:15:34.000Z</time>
        <extensions>
          <ns3:TrackPointExtension>
            <ns3:hr>156</ns3:hr>
            <ns3:cad>0</ns3:cad>
          </ns3:TrackPointExtension>
        </extensions>
      </trkpt>
      <trkpt lat="45.25740933604538440704345703125" lon="-71.19522898457944393157958984375">
        <ele>731.79998779296875</ele>
        <time>2026-08-22T04:15:35.000Z</time>
        <extensions>
          <ns3:TrackPointExtension>
            <ns3:hr>156</ns3:hr>
            <ns3:cad>0</ns3:cad>
          </ns3:TrackPointExtension>
        </extensions>
      </trkpt>
      <trkpt lat="45.25741000659763813018798828125" lon="-71.1952500231564044952392578125">
        <ele>732</ele>
        <time>2026-08-22T04:15:36.000Z</time>
        <extensions>
          <ns3:TrackPointExtension>
            <ns3:hr>156</ns3:hr>
            <ns3:cad>0</ns3:cad>
          </ns3:TrackPointExtension>
        </extensions>
      </trkpt>
      <trkpt lat="45.25741629302501678466796875" lon="-71.19525580666959285736083984375">
        <ele>732.4000244140625</ele>
        <time>2026-08-22T04:15:37.000Z</time>
        <extensions>
          <ns3:TrackPointExtension>
            <ns3:hr>156</ns3:hr>
            <ns3:cad>0</ns3:cad>
          </ns3:TrackPointExtension>
        </extensions>
      </trkpt>
      <trkpt lat="45.2574208192527294158935546875" lon="-71.1952644400298595428466796875">
        <ele>732.5999755859375</ele>
        <time>2026-08-22T04:15:38.000Z</time>
        <extensions>
          <ns3:TrackPointExtension>
            <ns3:hr>156</ns3:hr>
            <ns3:cad>0</ns3:cad>
          </ns3:TrackPointExtension>
        </extensions>
      </trkpt>
      <trkpt lat="45.2574235014617443084716796875" lon="-71.19527877308428287506103515625">
        <ele>732.79998779296875</ele>
        <time>2026-08-22T04:15:39.000Z</time>
        <extensions>
          <ns3:TrackPointExtension>
            <ns3:hr>156</ns3:hr>
            <ns3:cad>0</ns3:cad>
          </ns3:TrackPointExtension>
        </extensions>
      </trkpt>
      <trkpt lat="45.2574245072901248931884765625" lon="-71.195292770862579345703125">
        <ele>733</ele>
        <time>2026-08-22T04:15:40.000Z</time>
        <extensions>
          <ns3:TrackPointExtension>
            <ns3:hr>156</ns3:hr>
            <ns3:cad>0</ns3:cad>
          </ns3:TrackPointExtension>
        </extensions>
      </trkpt>
      <trkpt lat="45.25741671212017536163330078125" lon="-71.19530878029763698577880859375">
        <ele>733.4000244140625</ele>
        <time>2026-08-22T04:15:41.000Z</time>
        <extensions>
          <ns3:TrackPointExtension>
            <ns3:hr>156</ns3:hr>
            <ns3:cad>0</ns3:cad>
          </ns3:TrackPointExtension>
        </extensions>
      </trkpt>
      <trkpt lat="45.25741453282535076141357421875" lon="-71.19531850330531597137451171875">
        <ele>733.79998779296875</ele>
        <time>2026-08-22T04:15:42.000Z</time>
        <extensions>
          <ns3:TrackPointExtension>
            <ns3:hr>156</ns3:hr>
            <ns3:cad>0</ns3:cad>
          </ns3:TrackPointExtension>
        </extensions>
      </trkpt>
      <trkpt lat="45.2574157901108264923095703125" lon="-71.19533543474972248077392578125">
        <ele>734</ele>
        <time>2026-08-22T04:15:43.000Z</time>
        <extensions>
          <ns3:TrackPointExtension>
            <ns3:hr>156</ns3:hr>
            <ns3:cad>0</ns3:cad>
          </ns3:TrackPointExtension>
        </extensions>
      </trkpt>
      <trkpt lat="45.25741687975823879241943359375" lon="-71.19534599594771862030029296875">
        <ele>734.20001220703125</ele>
        <time>2026-08-22T04:15:44.000Z</time>
        <extensions>
          <ns3:TrackPointExtension>
            <ns3:hr>156</ns3:hr>
            <ns3:cad>0</ns3:cad>
          </ns3:TrackPointExtension>
        </extensions>
      </trkpt>
      <trkpt lat="45.2574167959392070770263671875" lon="-71.19536058045923709869384765625">
        <ele>734.4000244140625</ele>
        <time>2026-08-22T04:15:45.000Z</time>
        <extensions>
          <ns3:TrackPointExtension>
            <ns3:hr>156</ns3:hr>
            <ns3:cad>48</ns3:cad>
          </ns3:TrackPointExtension>
        </extensions>
      </trkpt>
      <trkpt lat="45.2574087493121623992919921875" lon="-71.1953744105994701385498046875">
        <ele>734.5999755859375</ele>
        <time>2026-08-22T04:15:46.000Z</time>
        <extensions>
          <ns3:TrackPointExtension>
            <ns3:hr>157</ns3:hr>
            <ns3:cad>50</ns3:cad>
          </ns3:TrackPointExtension>
        </extensions>
      </trkpt>
      <trkpt lat="45.257405899465084075927734375" lon="-71.1953879892826080322265625">
        <ele>734.79998779296875</ele>
        <time>2026-08-22T04:15:47.000Z</time>
        <extensions>
          <ns3:TrackPointExtension>
            <ns3:hr>156</ns3:hr>
            <ns3:cad>50</ns3:cad>
          </ns3:TrackPointExtension>
        </extensions>
      </trkpt>
      <trkpt lat="45.25740631856024265289306640625" lon="-71.19540282525122165679931640625">
        <ele>735.20001220703125</ele>
        <time>2026-08-22T04:15:48.000Z</time>
        <extensions>
          <ns3:TrackPointExtension>
            <ns3:hr>156</ns3:hr>
            <ns3:cad>50</ns3:cad>
          </ns3:TrackPointExtension>
        </extensions>
      </trkpt>
      <trkpt lat="45.2574067376554012298583984375" lon="-71.19541422463953495025634765625">
        <ele>735.4000244140625</ele>
        <time>2026-08-22T04:15:49.000Z</time>
        <extensions>
          <ns3:TrackPointExtension>
            <ns3:hr>156</ns3:hr>
            <ns3:cad>50</ns3:cad>
          </ns3:TrackPointExtension>
        </extensions>
      </trkpt>
      <trkpt lat="45.25740397162735462188720703125" lon="-71.19542679749429225921630859375">
        <ele>735.79998779296875</ele>
        <time>2026-08-22T04:15:50.000Z</time>
        <extensions>
          <ns3:TrackPointExtension>
            <ns3:hr>156</ns3:hr>
            <ns3:cad>49</ns3:cad>
          </ns3:TrackPointExtension>
        </extensions>
      </trkpt>
      <trkpt lat="45.25739709846675395965576171875" lon="-71.19544272311031818389892578125">
        <ele>736</ele>
        <time>2026-08-22T04:15:51.000Z</time>
        <extensions>
          <ns3:TrackPointExtension>
            <ns3:hr>157</ns3:hr>
            <ns3:cad>49</ns3:cad>
          </ns3:TrackPointExtension>
        </extensions>
      </trkpt>
      <trkpt lat="45.25739081203937530517578125" lon="-71.1954508535563945770263671875">
        <ele>736.20001220703125</ele>
        <time>2026-08-22T04:15:52.000Z</time>
        <extensions>
          <ns3:TrackPointExtension>
            <ns3:hr>156</ns3:hr>
            <ns3:cad>49</ns3:cad>
          </ns3:TrackPointExtension>
        </extensions>
      </trkpt>
      <trkpt lat="45.25738636963069438934326171875" lon="-71.195461414754390716552734375">
        <ele>736.4000244140625</ele>
        <time>2026-08-22T04:15:53.000Z</time>
        <extensions>
          <ns3:TrackPointExtension>
            <ns3:hr>156</ns3:hr>
            <ns3:cad>49</ns3:cad>
          </ns3:TrackPointExtension>
        </extensions>
      </trkpt>
      <trkpt lat="45.25738150812685489654541015625" lon="-71.19547205977141857147216796875">
        <ele>736.4000244140625</ele>
        <time>2026-08-22T04:15:54.000Z</time>
        <extensions>
          <ns3:TrackPointExtension>
            <ns3:hr>156</ns3:hr>
            <ns3:cad>49</ns3:cad>
          </ns3:TrackPointExtension>
        </extensions>
      </trkpt>
      <trkpt lat="45.257382094860076904296875" lon="-71.19548228569328784942626953125">
        <ele>736.5999755859375</ele>
        <time>2026-08-22T04:15:55.000Z</time>
        <extensions>
          <ns3:TrackPointExtension>
            <ns3:hr>156</ns3:hr>
            <ns3:cad>50</ns3:cad>
          </ns3:TrackPointExtension>
        </extensions>
      </trkpt>
      <trkpt lat="45.25738201104104518890380859375" lon="-71.19549368508160114288330078125">
        <ele>737</ele>
        <time>2026-08-22T04:15:56.000Z</time>
        <extensions>
          <ns3:TrackPointExtension>
            <ns3:hr>156</ns3:hr>
            <ns3:cad>50</ns3:cad>
          </ns3:TrackPointExtension>
        </extensions>
      </trkpt>
      <trkpt lat="45.2573789097368717193603515625" lon="-71.19550441391766071319580078125">
        <ele>737.20001220703125</ele>
        <time>2026-08-22T04:15:57.000Z</time>
        <extensions>
          <ns3:TrackPointExtension>
            <ns3:hr>156</ns3:hr>
            <ns3:cad>51</ns3:cad>
          </ns3:TrackPointExtension>
        </extensions>
      </trkpt>
      <trkpt lat="45.257370360195636749267578125" lon="-71.1955155618488788604736328125">
        <ele>737.4000244140625</ele>
        <time>2026-08-22T04:15:58.000Z</time>
        <extensions>
          <ns3:TrackPointExtension>
            <ns3:hr>156</ns3:hr>
            <ns3:cad>48</ns3:cad>
          </ns3:TrackPointExtension>
        </extensions>
      </trkpt>
      <trkpt lat="45.2573608048260211944580078125" lon="-71.1955185793340206146240234375">
        <ele>737.5999755859375</ele>
        <time>2026-08-22T04:15:59.000Z</time>
        <extensions>
          <ns3:TrackPointExtension>
            <ns3:hr>156</ns3:hr>
            <ns3:cad>48</ns3:cad>
          </ns3:TrackPointExtension>
        </extensions>
      </trkpt>
      <trkpt lat="45.2573520876467227935791015625" lon="-71.19552545249462127685546875">
        <ele>737.79998779296875</ele>
        <time>2026-08-22T04:16:00.000Z</time>
        <extensions>
          <ns3:TrackPointExtension>
            <ns3:hr>156</ns3:hr>
            <ns3:cad>48</ns3:cad>
          </ns3:TrackPointExtension>
        </extensions>
      </trkpt>
      <trkpt lat="45.257349908351898193359375" lon="-71.1955316551029682159423828125">
        <ele>738</ele>
        <time>2026-08-22T04:16:01.000Z</time>
        <extensions>
          <ns3:TrackPointExtension>
            <ns3:hr>156</ns3:hr>
            <ns3:cad>48</ns3:cad>
          </ns3:TrackPointExtension>
        </extensions>
      </trkpt>
      <trkpt lat="45.25733524002134799957275390625" lon="-71.19553592987358570098876953125">
        <ele>738.20001220703125</ele>
        <time>2026-08-22T04:16:02.000Z</time>
        <extensions>
          <ns3:TrackPointExtension>
            <ns3:hr>156</ns3:hr>
            <ns3:cad>49</ns3:cad>
          </ns3:TrackPointExtension>
        </extensions>
      </trkpt>
      <trkpt lat="45.2573286183178424835205078125" lon="-71.195539869368076324462890625">
        <ele>738.5999755859375</ele>
        <time>2026-08-22T04:16:03.000Z</time>
        <extensions>
          <ns3:TrackPointExtension>
            <ns3:hr>156</ns3:hr>
            <ns3:cad>49</ns3:cad>
          </ns3:TrackPointExtension>
        </extensions>
      </trkpt>
      <trkpt lat="45.25731797330081462860107421875" lon="-71.1955437250435352325439453125">
        <ele>738.79998779296875</ele>
        <time>2026-08-22T04:16:04.000Z</time>
        <extensions>
          <ns3:TrackPointExtension>
            <ns3:hr>156</ns3:hr>
            <ns3:cad>49</ns3:cad>
          </ns3:TrackPointExtension>
        </extensions>
      </trkpt>
      <trkpt lat="45.2573071606457233428955078125" lon="-71.19554691016674041748046875">
        <ele>739.20001220703125</ele>
        <time>2026-08-22T04:16:05.000Z</time>
        <extensions>
          <ns3:TrackPointExtension>
            <ns3:hr>156</ns3:hr>
            <ns3:cad>49</ns3:cad>
          </ns3:TrackPointExtension>
        </extensions>
      </trkpt>
      <trkpt lat="45.25729919783771038055419921875" lon="-71.19555839337408542633056640625">
        <ele>739.4000244140625</ele>
        <time>2026-08-22T04:16:06.000Z</time>
        <extensions>
          <ns3:TrackPointExtension>
            <ns3:hr>155</ns3:hr>
            <ns3:cad>49</ns3:cad>
          </ns3:TrackPointExtension>
        </extensions>
      </trkpt>
      <trkpt lat="45.25729031302034854888916015625" lon="-71.1955722235143184661865234375">
        <ele>739.5999755859375</ele>
        <time>2026-08-22T04:16:07.000Z</time>
        <extensions>
          <ns3:TrackPointExtension>
            <ns3:hr>155</ns3:hr>
            <ns3:cad>0</ns3:cad>
          </ns3:TrackPointExtension>
        </extensions>
      </trkpt>
      <trkpt lat="45.25728964246809482574462890625" lon="-71.19557783938944339752197265625">
        <ele>739.79998779296875</ele>
        <time>2026-08-22T04:16:08.000Z</time>
        <extensions>
          <ns3:TrackPointExtension>
            <ns3:hr>156</ns3:hr>
            <ns3:cad>0</ns3:cad>
          </ns3:TrackPointExtension>
        </extensions>
      </trkpt>
      <trkpt lat="45.25728176347911357879638671875" lon="-71.1955829523503780364990234375">
        <ele>739.79998779296875</ele>
        <time>2026-08-22T04:16:09.000Z</time>
        <extensions>
          <ns3:TrackPointExtension>
            <ns3:hr>156</ns3:hr>
            <ns3:cad>0</ns3:cad>
          </ns3:TrackPointExtension>
        </extensions>
      </trkpt>
      <trkpt lat="45.25727522559463977813720703125" lon="-71.1955889873206615447998046875">
        <ele>740</ele>
        <time>2026-08-22T04:16:10.000Z</time>
        <extensions>
          <ns3:TrackPointExtension>
            <ns3:hr>156</ns3:hr>
            <ns3:cad>0</ns3:cad>
          </ns3:TrackPointExtension>
        </extensions>
      </trkpt>
      <trkpt lat="45.25726701132953166961669921875" lon="-71.19559787213802337646484375">
        <ele>740.20001220703125</ele>
        <time>2026-08-22T04:16:11.000Z</time>
        <extensions>
          <ns3:TrackPointExtension>
            <ns3:hr>157</ns3:hr>
            <ns3:cad>46</ns3:cad>
          </ns3:TrackPointExtension>
        </extensions>
      </trkpt>
      <trkpt lat="45.25725913234055042266845703125" lon="-71.19560566730797290802001953125">
        <ele>740.5999755859375</ele>
        <time>2026-08-22T04:16:12.000Z</time>
        <extensions>
          <ns3:TrackPointExtension>
            <ns3:hr>157</ns3:hr>
            <ns3:cad>43</ns3:cad>
          </ns3:TrackPointExtension>
        </extensions>
      </trkpt>
      <trkpt lat="45.25724991224706172943115234375" lon="-71.1956151388585567474365234375">
        <ele>741</ele>
        <time>2026-08-22T04:16:13.000Z</time>
        <extensions>
          <ns3:TrackPointExtension>
            <ns3:hr>157</ns3:hr>
            <ns3:cad>43</ns3:cad>
          </ns3:TrackPointExtension>
        </extensions>
      </trkpt>
      <trkpt lat="45.25724438019096851348876953125" lon="-71.19561522267758846282958984375">
        <ele>741.20001220703125</ele>
        <time>2026-08-22T04:16:14.000Z</time>
        <extensions>
          <ns3:TrackPointExtension>
            <ns3:hr>156</ns3:hr>
            <ns3:cad>45</ns3:cad>
          </ns3:TrackPointExtension>
        </extensions>
      </trkpt>
      <trkpt lat="45.25723390281200408935546875" lon="-71.19562109000980854034423828125">
        <ele>741.5999755859375</ele>
        <time>2026-08-22T04:16:15.000Z</time>
        <extensions>
          <ns3:TrackPointExtension>
            <ns3:hr>156</ns3:hr>
            <ns3:cad>45</ns3:cad>
          </ns3:TrackPointExtension>
        </extensions>
      </trkpt>
      <trkpt lat="45.25722443126142024993896484375" lon="-71.1956275440752506256103515625">
        <ele>741.79998779296875</ele>
        <time>2026-08-22T04:16:16.000Z</time>
        <extensions>
          <ns3:TrackPointExtension>
            <ns3:hr>156</ns3:hr>
            <ns3:cad>46</ns3:cad>
          </ns3:TrackPointExtension>
        </extensions>
      </trkpt>
      <trkpt lat="45.25721378624439239501953125" lon="-71.195633411407470703125">
        <ele>742</ele>
        <time>2026-08-22T04:16:17.000Z</time>
        <extensions>
          <ns3:TrackPointExtension>
            <ns3:hr>156</ns3:hr>
            <ns3:cad>47</ns3:cad>
          </ns3:TrackPointExtension>
        </extensions>
      </trkpt>
      <trkpt lat="45.25720649398863315582275390625" lon="-71.1956419609487056732177734375">
        <ele>742.20001220703125</ele>
        <time>2026-08-22T04:16:18.000Z</time>
        <extensions>
          <ns3:TrackPointExtension>
            <ns3:hr>156</ns3:hr>
            <ns3:cad>47</ns3:cad>
          </ns3:TrackPointExtension>
        </extensions>
      </trkpt>
      <trkpt lat="45.257204063236713409423828125" lon="-71.19564673863351345062255859375">
        <ele>742.4000244140625</ele>
        <time>2026-08-22T04:16:19.000Z</time>
        <extensions>
          <ns3:TrackPointExtension>
            <ns3:hr>156</ns3:hr>
            <ns3:cad>48</ns3:cad>
          </ns3:TrackPointExtension>
        </extensions>
      </trkpt>
      <trkpt lat="45.2571951784193515777587890625" lon="-71.1956500075757503509521484375">
        <ele>742.5999755859375</ele>
        <time>2026-08-22T04:16:20.000Z</time>
        <extensions>
          <ns3:TrackPointExtension>
            <ns3:hr>156</ns3:hr>
            <ns3:cad>48</ns3:cad>
          </ns3:TrackPointExtension>
        </extensions>
      </trkpt>
      <trkpt lat="45.25718294084072113037109375" lon="-71.19566031731665134429931640625">
        <ele>742.79998779296875</ele>
        <time>2026-08-22T04:16:21.000Z</time>
        <extensions>
          <ns3:TrackPointExtension>
            <ns3:hr>156</ns3:hr>
            <ns3:cad>48</ns3:cad>
          </ns3:TrackPointExtension>
        </extensions>
      </trkpt>
      <trkpt lat="45.25717045180499553680419921875" lon="-71.19566501118242740631103515625">
        <ele>743</ele>
        <time>2026-08-22T04:16:22.000Z</time>
        <extensions>
          <ns3:TrackPointExtension>
            <ns3:hr>157</ns3:hr>
            <ns3:cad>48</ns3:cad>
          </ns3:TrackPointExtension>
        </extensions>
      </trkpt>
      <trkpt lat="45.257164500653743743896484375" lon="-71.195673644542694091796875">
        <ele>743.20001220703125</ele>
        <time>2026-08-22T04:16:23.000Z</time>
        <extensions>
          <ns3:TrackPointExtension>
            <ns3:hr>156</ns3:hr>
            <ns3:cad>49</ns3:cad>
          </ns3:TrackPointExtension>
        </extensions>
      </trkpt>
      <trkpt lat="45.2571569569408893585205078125" lon="-71.19567959569394588470458984375">
        <ele>743.4000244140625</ele>
        <time>2026-08-22T04:16:24.000Z</time>
        <extensions>
          <ns3:TrackPointExtension>
            <ns3:hr>156</ns3:hr>
            <ns3:cad>49</ns3:cad>
          </ns3:TrackPointExtension>
        </extensions>
      </trkpt>
      <trkpt lat="45.2571492455899715423583984375" lon="-71.19568462483584880828857421875">
        <ele>743.79998779296875</ele>
        <time>2026-08-22T04:16:25.000Z</time>
        <extensions>
          <ns3:TrackPointExtension>
            <ns3:hr>156</ns3:hr>
            <ns3:cad>49</ns3:cad>
          </ns3:TrackPointExtension>
        </extensions>
      </trkpt>
      <trkpt lat="45.25714094750583171844482421875" lon="-71.19568646885454654693603515625">
        <ele>744</ele>
        <time>2026-08-22T04:16:26.000Z</time>
        <extensions>
          <ns3:TrackPointExtension>
            <ns3:hr>156</ns3:hr>
            <ns3:cad>49</ns3:cad>
          </ns3:TrackPointExtension>
        </extensions>
      </trkpt>
      <trkpt lat="45.2571297995746135711669921875" lon="-71.1956885643303394317626953125">
        <ele>744.20001220703125</ele>
        <time>2026-08-22T04:16:27.000Z</time>
        <extensions>
          <ns3:TrackPointExtension>
            <ns3:hr>156</ns3:hr>
            <ns3:cad>49</ns3:cad>
          </ns3:TrackPointExtension>
        </extensions>
      </trkpt>
      <trkpt lat="45.25712527334690093994140625" lon="-71.19569334201514720916748046875">
        <ele>744.4000244140625</ele>
        <time>2026-08-22T04:16:28.000Z</time>
        <extensions>
          <ns3:TrackPointExtension>
            <ns3:hr>156</ns3:hr>
            <ns3:cad>46</ns3:cad>
          </ns3:TrackPointExtension>
        </extensions>
      </trkpt>
      <trkpt lat="45.25711278431117534637451171875" lon="-71.1956991255283355712890625">
        <ele>744.79998779296875</ele>
        <time>2026-08-22T04:16:29.000Z</time>
        <extensions>
          <ns3:TrackPointExtension>
            <ns3:hr>156</ns3:hr>
            <ns3:cad>46</ns3:cad>
          </ns3:TrackPointExtension>
        </extensions>
      </trkpt>
      <trkpt lat="45.2571023069322109222412109375" lon="-71.19570516049861907958984375">
        <ele>745.20001220703125</ele>
        <time>2026-08-22T04:16:30.000Z</time>
        <extensions>
          <ns3:TrackPointExtension>
            <ns3:hr>156</ns3:hr>
            <ns3:cad>47</ns3:cad>
          </ns3:TrackPointExtension>
        </extensions>
      </trkpt>
      <trkpt lat="45.257088728249073028564453125" lon="-71.19570977054536342620849609375">
        <ele>745.4000244140625</ele>
        <time>2026-08-22T04:16:31.000Z</time>
        <extensions>
          <ns3:TrackPointExtension>
            <ns3:hr>156</ns3:hr>
            <ns3:cad>47</ns3:cad>
          </ns3:TrackPointExtension>
        </extensions>
      </trkpt>
      <trkpt lat="45.257081352174282073974609375" lon="-71.19571312330663204193115234375">
        <ele>745.79998779296875</ele>
        <time>2026-08-22T04:16:32.000Z</time>
        <extensions>
          <ns3:TrackPointExtension>
            <ns3:hr>156</ns3:hr>
            <ns3:cad>47</ns3:cad>
          </ns3:TrackPointExtension>
        </extensions>
      </trkpt>
      <trkpt lat="45.25707523338496685028076171875" lon="-71.19572083465754985809326171875">
        <ele>746</ele>
        <time>2026-08-22T04:16:33.000Z</time>
        <extensions>
          <ns3:TrackPointExtension>
            <ns3:hr>157</ns3:hr>
            <ns3:cad>48</ns3:cad>
          </ns3:TrackPointExtension>
        </extensions>
      </trkpt>
      <trkpt lat="45.257063247263431549072265625" lon="-71.19573039002716541290283203125">
        <ele>746.20001220703125</ele>
        <time>2026-08-22T04:16:34.000Z</time>
        <extensions>
          <ns3:TrackPointExtension>
            <ns3:hr>156</ns3:hr>
            <ns3:cad>48</ns3:cad>
          </ns3:TrackPointExtension>
        </extensions>
      </trkpt>
      <trkpt lat="45.25705696083605289459228515625" lon="-71.1957351677119731903076171875">
        <ele>746.4000244140625</ele>
        <time>2026-08-22T04:16:35.000Z</time>
        <extensions>
          <ns3:TrackPointExtension>
            <ns3:hr>156</ns3:hr>
            <ns3:cad>47</ns3:cad>
          </ns3:TrackPointExtension>
        </extensions>
      </trkpt>
      <trkpt lat="45.2570506744086742401123046875" lon="-71.19573743082582950592041015625">
        <ele>746.5999755859375</ele>
        <time>2026-08-22T04:16:36.000Z</time>
        <extensions>
          <ns3:TrackPointExtension>
            <ns3:hr>156</ns3:hr>
            <ns3:cad>46</ns3:cad>
          </ns3:TrackPointExtension>
        </extensions>
      </trkpt>
      <trkpt lat="45.2570454776287078857421875" lon="-71.19573944248259067535400390625">
        <ele>746.79998779296875</ele>
        <time>2026-08-22T04:16:37.000Z</time>
        <extensions>
          <ns3:TrackPointExtension>
            <ns3:hr>156</ns3:hr>
            <ns3:cad>46</ns3:cad>
          </ns3:TrackPointExtension>
        </extensions>
      </trkpt>
      <trkpt lat="45.257043130695819854736328125" lon="-71.1957368440926074981689453125">
        <ele>747</ele>
        <time>2026-08-22T04:16:38.000Z</time>
        <extensions>
          <ns3:TrackPointExtension>
            <ns3:hr>157</ns3:hr>
            <ns3:cad>16</ns3:cad>
          </ns3:TrackPointExtension>
        </extensions>
      </trkpt>
      <trkpt lat="45.25703399442136287689208984375" lon="-71.19573877193033695220947265625">
        <ele>747.20001220703125</ele>
        <time>2026-08-22T04:16:39.000Z</time>
        <extensions>
          <ns3:TrackPointExtension>
            <ns3:hr>157</ns3:hr>
            <ns3:cad>16</ns3:cad>
          </ns3:TrackPointExtension>
        </extensions>
      </trkpt>
      <trkpt lat="45.25701706297695636749267578125" lon="-71.195745058357715606689453125">
        <ele>747.4000244140625</ele>
        <time>2026-08-22T04:16:40.000Z</time>
        <extensions>
          <ns3:TrackPointExtension>
            <ns3:hr>157</ns3:hr>
            <ns3:cad>46</ns3:cad>
          </ns3:TrackPointExtension>
        </extensions>
      </trkpt>
      <trkpt lat="45.2570094354450702667236328125" lon="-71.1957526020705699920654296875">
        <ele>747.79998779296875</ele>
        <time>2026-08-22T04:16:41.000Z</time>
        <extensions>
          <ns3:TrackPointExtension>
            <ns3:hr>157</ns3:hr>
            <ns3:cad>46</ns3:cad>
          </ns3:TrackPointExtension>
        </extensions>
      </trkpt>
      <trkpt lat="45.2570054121315479278564453125" lon="-71.19575679302215576171875">
        <ele>748</ele>
        <time>2026-08-22T04:16:42.000Z</time>
        <extensions>
          <ns3:TrackPointExtension>
            <ns3:hr>158</ns3:hr>
            <ns3:cad>46</ns3:cad>
          </ns3:TrackPointExtension>
        </extensions>
      </trkpt>
      <trkpt lat="45.256998874247074127197265625" lon="-71.19575922377407550811767578125">
        <ele>748.20001220703125</ele>
        <time>2026-08-22T04:16:43.000Z</time>
        <extensions>
          <ns3:TrackPointExtension>
            <ns3:hr>158</ns3:hr>
            <ns3:cad>0</ns3:cad>
          </ns3:TrackPointExtension>
        </extensions>
      </trkpt>
      <trkpt lat="45.2569873072206974029541015625" lon="-71.19576224125921726226806640625">
        <ele>748.4000244140625</ele>
        <time>2026-08-22T04:16:44.000Z</time>
        <extensions>
          <ns3:TrackPointExtension>
            <ns3:hr>157</ns3:hr>
            <ns3:cad>0</ns3:cad>
          </ns3:TrackPointExtension>
        </extensions>
      </trkpt>
      <trkpt lat="45.25698244571685791015625" lon="-71.19576492346823215484619140625">
        <ele>748.79998779296875</ele>
        <time>2026-08-22T04:16:45.000Z</time>
        <extensions>
          <ns3:TrackPointExtension>
            <ns3:hr>157</ns3:hr>
            <ns3:cad>0</ns3:cad>
          </ns3:TrackPointExtension>
        </extensions>
      </trkpt>
      <trkpt lat="45.256974399089813232421875" lon="-71.19577079080045223236083984375">
        <ele>749</ele>
        <time>2026-08-22T04:16:46.000Z</time>
        <extensions>
          <ns3:TrackPointExtension>
            <ns3:hr>157</ns3:hr>
            <ns3:cad>0</ns3:cad>
          </ns3:TrackPointExtension>
        </extensions>
      </trkpt>
      <trkpt lat="45.25697045959532260894775390625" lon="-71.19576995261013507843017578125">
        <ele>749.20001220703125</ele>
        <time>2026-08-22T04:16:47.000Z</time>
        <extensions>
          <ns3:TrackPointExtension>
            <ns3:hr>157</ns3:hr>
            <ns3:cad>0</ns3:cad>
          </ns3:TrackPointExtension>
        </extensions>
      </trkpt>
      <trkpt lat="45.25695956312119960784912109375" lon="-71.19576961733400821685791015625">
        <ele>749.4000244140625</ele>
        <time>2026-08-22T04:16:48.000Z</time>
        <extensions>
          <ns3:TrackPointExtension>
            <ns3:hr>157</ns3:hr>
            <ns3:cad>45</ns3:cad>
          </ns3:TrackPointExtension>
        </extensions>
      </trkpt>
      <trkpt lat="45.25695084594190120697021484375" lon="-71.19576777331531047821044921875">
        <ele>749.79998779296875</ele>
        <time>2026-08-22T04:16:49.000Z</time>
        <extensions>
          <ns3:TrackPointExtension>
            <ns3:hr>158</ns3:hr>
            <ns3:cad>45</ns3:cad>
          </ns3:TrackPointExtension>
        </extensions>
      </trkpt>
      <trkpt lat="45.2569390274584293365478515625" lon="-71.19576819241046905517578125">
        <ele>750</ele>
        <time>2026-08-22T04:16:50.000Z</time>
        <extensions>
          <ns3:TrackPointExtension>
            <ns3:hr>158</ns3:hr>
            <ns3:cad>46</ns3:cad>
          </ns3:TrackPointExtension>
        </extensions>
      </trkpt>
      <trkpt lat="45.256931483745574951171875" lon="-71.1957680247724056243896484375">
        <ele>750.20001220703125</ele>
        <time>2026-08-22T04:16:51.000Z</time>
        <extensions>
          <ns3:TrackPointExtension>
            <ns3:hr>158</ns3:hr>
            <ns3:cad>46</ns3:cad>
          </ns3:TrackPointExtension>
        </extensions>
      </trkpt>
      <trkpt lat="45.256918407976627349853515625" lon="-71.19577766396105289459228515625">
        <ele>750.4000244140625</ele>
        <time>2026-08-22T04:16:52.000Z</time>
        <extensions>
          <ns3:TrackPointExtension>
            <ns3:hr>158</ns3:hr>
            <ns3:cad>46</ns3:cad>
          </ns3:TrackPointExtension>
        </extensions>
      </trkpt>
      <trkpt lat="45.25690591894090175628662109375" lon="-71.19578168727457523345947265625">
        <ele>750.79998779296875</ele>
        <time>2026-08-22T04:16:53.000Z</time>
        <extensions>
          <ns3:TrackPointExtension>
            <ns3:hr>158</ns3:hr>
            <ns3:cad>46</ns3:cad>
          </ns3:TrackPointExtension>
        </extensions>
      </trkpt>
      <trkpt lat="45.25689418427646160125732421875" lon="-71.19578302837908267974853515625">
        <ele>751</ele>
        <time>2026-08-22T04:16:54.000Z</time>
        <extensions>
          <ns3:TrackPointExtension>
            <ns3:hr>157</ns3:hr>
            <ns3:cad>46</ns3:cad>
          </ns3:TrackPointExtension>
        </extensions>
      </trkpt>
      <trkpt lat="45.25688513182103633880615234375" lon="-71.1957824416458606719970703125">
        <ele>751.20001220703125</ele>
        <time>2026-08-22T04:16:55.000Z</time>
        <extensions>
          <ns3:TrackPointExtension>
            <ns3:hr>157</ns3:hr>
            <ns3:cad>0</ns3:cad>
          </ns3:TrackPointExtension>
        </extensions>
      </trkpt>
      <trkpt lat="45.2568743191659450531005859375" lon="-71.19578151963651180267333984375">
        <ele>751.5999755859375</ele>
        <time>2026-08-22T04:16:56.000Z</time>
        <extensions>
          <ns3:TrackPointExtension>
            <ns3:hr>156</ns3:hr>
            <ns3:cad>0</ns3:cad>
          </ns3:TrackPointExtension>
        </extensions>
      </trkpt>
      <trkpt lat="45.25686602108180522918701171875" lon="-71.19578696787357330322265625">
        <ele>751.79998779296875</ele>
        <time>2026-08-22T04:16:57.000Z</time>
        <extensions>
          <ns3:TrackPointExtension>
            <ns3:hr>156</ns3:hr>
            <ns3:cad>0</ns3:cad>
          </ns3:TrackPointExtension>
        </extensions>
      </trkpt>
      <trkpt lat="45.25685294531285762786865234375" lon="-71.195785291492938995361328125">
        <ele>752</ele>
        <time>2026-08-22T04:16:58.000Z</time>
        <extensions>
          <ns3:TrackPointExtension>
            <ns3:hr>156</ns3:hr>
            <ns3:cad>0</ns3:cad>
          </ns3:TrackPointExtension>
        </extensions>
      </trkpt>
      <trkpt lat="45.25683567859232425689697265625" lon="-71.19578755460679531097412109375">
        <ele>752.20001220703125</ele>
        <time>2026-08-22T04:16:59.000Z</time>
        <extensions>
          <ns3:TrackPointExtension>
            <ns3:hr>156</ns3:hr>
            <ns3:cad>46</ns3:cad>
          </ns3:TrackPointExtension>
        </extensions>
      </trkpt>
      <trkpt lat="45.25683182291686534881591796875" lon="-71.1957911588251590728759765625">
        <ele>752.4000244140625</ele>
        <time>2026-08-22T04:17:00.000Z</time>
        <extensions>
          <ns3:TrackPointExtension>
            <ns3:hr>157</ns3:hr>
            <ns3:cad>46</ns3:cad>
          </ns3:TrackPointExtension>
        </extensions>
      </trkpt>
      <trkpt lat="45.2568200044333934783935546875" lon="-71.19579191319644451141357421875">
        <ele>752.5999755859375</ele>
        <time>2026-08-22T04:17:01.000Z</time>
        <extensions>
          <ns3:TrackPointExtension>
            <ns3:hr>156</ns3:hr>
            <ns3:cad>0</ns3:cad>
          </ns3:TrackPointExtension>
        </extensions>
      </trkpt>
      <trkpt lat="45.25680902414023876190185546875" lon="-71.19579635560512542724609375">
        <ele>752.79998779296875</ele>
        <time>2026-08-22T04:17:02.000Z</time>
        <extensions>
          <ns3:TrackPointExtension>
            <ns3:hr>156</ns3:hr>
            <ns3:cad>0</ns3:cad>
          </ns3:TrackPointExtension>
        </extensions>
      </trkpt>
      <trkpt lat="45.25679192505776882171630859375" lon="-71.195795349776744842529296875">
        <ele>753</ele>
        <time>2026-08-22T04:17:03.000Z</time>
        <extensions>
          <ns3:TrackPointExtension>
            <ns3:hr>156</ns3:hr>
            <ns3:cad>0</ns3:cad>
          </ns3:TrackPointExtension>
        </extensions>
      </trkpt>
      <trkpt lat="45.256786979734897613525390625" lon="-71.1957958526909351348876953125">
        <ele>753.4000244140625</ele>
        <time>2026-08-22T04:17:04.000Z</time>
        <extensions>
          <ns3:TrackPointExtension>
            <ns3:hr>156</ns3:hr>
            <ns3:cad>46</ns3:cad>
          </ns3:TrackPointExtension>
        </extensions>
      </trkpt>
      <trkpt lat="45.25677851401269435882568359375" lon="-71.19579593650996685028076171875">
        <ele>753.5999755859375</ele>
        <time>2026-08-22T04:17:05.000Z</time>
        <extensions>
          <ns3:TrackPointExtension>
            <ns3:hr>156</ns3:hr>
            <ns3:cad>46</ns3:cad>
          </ns3:TrackPointExtension>
        </extensions>
      </trkpt>
      <trkpt lat="45.25677147321403026580810546875" lon="-71.19579903781414031982421875">
        <ele>753.79998779296875</ele>
        <time>2026-08-22T04:17:06.000Z</time>
        <extensions>
          <ns3:TrackPointExtension>
            <ns3:hr>156</ns3:hr>
            <ns3:cad>46</ns3:cad>
          </ns3:TrackPointExtension>
        </extensions>
      </trkpt>
      <trkpt lat="45.2567566372454166412353515625" lon="-71.19579660706222057342529296875">
        <ele>754</ele>
        <time>2026-08-22T04:17:07.000Z</time>
        <extensions>
          <ns3:TrackPointExtension>
            <ns3:hr>156</ns3:hr>
            <ns3:cad>47</ns3:cad>
          </ns3:TrackPointExtension>
        </extensions>
      </trkpt>
      <trkpt lat="45.256745405495166778564453125" lon="-71.19579509831964969635009765625">
        <ele>754.20001220703125</ele>
        <time>2026-08-22T04:17:08.000Z</time>
        <extensions>
          <ns3:TrackPointExtension>
            <ns3:hr>156</ns3:hr>
            <ns3:cad>47</ns3:cad>
          </ns3:TrackPointExtension>
        </extensions>
      </trkpt>
      <trkpt lat="45.2567365206778049468994140625" lon="-71.19579861871898174285888671875">
        <ele>754.4000244140625</ele>
        <time>2026-08-22T04:17:09.000Z</time>
        <extensions>
          <ns3:TrackPointExtension>
            <ns3:hr>156</ns3:hr>
            <ns3:cad>50</ns3:cad>
          </ns3:TrackPointExtension>
        </extensions>
      </trkpt>
      <trkpt lat="45.25672822259366512298583984375" lon="-71.195800714194774627685546875">
        <ele>754.5999755859375</ele>
        <time>2026-08-22T04:17:10.000Z</time>
        <extensions>
          <ns3:TrackPointExtension>
            <ns3:hr>156</ns3:hr>
            <ns3:cad>50</ns3:cad>
          </ns3:TrackPointExtension>
        </extensions>
      </trkpt>
      <trkpt lat="45.2567190863192081451416015625" lon="-71.19579995982348918914794921875">
        <ele>754.79998779296875</ele>
        <time>2026-08-22T04:17:11.000Z</time>
        <extensions>
          <ns3:TrackPointExtension>
            <ns3:hr>156</ns3:hr>
            <ns3:cad>48</ns3:cad>
          </ns3:TrackPointExtension>
        </extensions>
      </trkpt>
      <trkpt lat="45.25670810602605342864990234375" lon="-71.19580046273767948150634765625">
        <ele>755</ele>
        <time>2026-08-22T04:17:12.000Z</time>
        <extensions>
          <ns3:TrackPointExtension>
            <ns3:hr>156</ns3:hr>
            <ns3:cad>48</ns3:cad>
          </ns3:TrackPointExtension>
        </extensions>
      </trkpt>
      <trkpt lat="45.2566932700574398040771484375" lon="-71.1958022229373455047607421875">
        <ele>755.20001220703125</ele>
        <time>2026-08-22T04:17:13.000Z</time>
        <extensions>
          <ns3:TrackPointExtension>
            <ns3:hr>156</ns3:hr>
            <ns3:cad>49</ns3:cad>
          </ns3:TrackPointExtension>
        </extensions>
      </trkpt>
      <trkpt lat="45.2566895820200443267822265625" lon="-71.195800714194774627685546875">
        <ele>755.4000244140625</ele>
        <time>2026-08-22T04:17:14.000Z</time>
        <extensions>
          <ns3:TrackPointExtension>
            <ns3:hr>156</ns3:hr>
            <ns3:cad>49</ns3:cad>
          </ns3:TrackPointExtension>
        </extensions>
      </trkpt>
      <trkpt lat="45.25667575187981128692626953125" lon="-71.19579995982348918914794921875">
        <ele>755.5999755859375</ele>
        <time>2026-08-22T04:17:15.000Z</time>
        <extensions>
          <ns3:TrackPointExtension>
            <ns3:hr>156</ns3:hr>
            <ns3:cad>49</ns3:cad>
          </ns3:TrackPointExtension>
        </extensions>
      </trkpt>
      <trkpt lat="45.25666384957730770111083984375" lon="-71.195800043642520904541015625">
        <ele>755.79998779296875</ele>
        <time>2026-08-22T04:17:16.000Z</time>
        <extensions>
          <ns3:TrackPointExtension>
            <ns3:hr>157</ns3:hr>
            <ns3:cad>49</ns3:cad>
          </ns3:TrackPointExtension>
        </extensions>
      </trkpt>
      <trkpt lat="45.2566573955118656158447265625" lon="-71.19580498896539211273193359375">
        <ele>756</ele>
        <time>2026-08-22T04:17:17.000Z</time>
        <extensions>
          <ns3:TrackPointExtension>
            <ns3:hr>156</ns3:hr>
            <ns3:cad>49</ns3:cad>
          </ns3:TrackPointExtension>
        </extensions>
      </trkpt>
      <trkpt lat="45.25664406828582286834716796875" lon="-71.1958132870495319366455078125">
        <ele>756.20001220703125</ele>
        <time>2026-08-22T04:17:18.000Z</time>
        <extensions>
          <ns3:TrackPointExtension>
            <ns3:hr>156</ns3:hr>
            <ns3:cad>47</ns3:cad>
          </ns3:TrackPointExtension>
        </extensions>
      </trkpt>
      <trkpt lat="45.25663954205811023712158203125" lon="-71.1958126164972782135009765625">
        <ele>756.4000244140625</ele>
        <time>2026-08-22T04:17:19.000Z</time>
        <extensions>
          <ns3:TrackPointExtension>
            <ns3:hr>156</ns3:hr>
            <ns3:cad>48</ns3:cad>
          </ns3:TrackPointExtension>
        </extensions>
      </trkpt>
      <trkpt lat="45.256636776030063629150390625" lon="-71.19581370614469051361083984375">
        <ele>756.5999755859375</ele>
        <time>2026-08-22T04:17:20.000Z</time>
        <extensions>
          <ns3:TrackPointExtension>
            <ns3:hr>156</ns3:hr>
            <ns3:cad>48</ns3:cad>
          </ns3:TrackPointExtension>
        </extensions>
      </trkpt>
      <trkpt lat="45.25664021261036396026611328125" lon="-71.19580280967056751251220703125">
        <ele>756.79998779296875</ele>
        <time>2026-08-22T04:17:21.000Z</time>
        <extensions>
          <ns3:TrackPointExtension>
            <ns3:hr>156</ns3:hr>
            <ns3:cad>48</ns3:cad>
          </ns3:TrackPointExtension>
        </extensions>
      </trkpt>
      <trkpt lat="45.25663753040134906768798828125" lon="-71.1958069168031215667724609375">
        <ele>756.79998779296875</ele>
        <time>2026-08-22T04:17:22.000Z</time>
        <extensions>
          <ns3:TrackPointExtension>
            <ns3:hr>156</ns3:hr>
            <ns3:cad>48</ns3:cad>
          </ns3:TrackPointExtension>
        </extensions>
      </trkpt>
      <trkpt lat="45.25663451291620731353759765625" lon="-71.19580817408859729766845703125">
        <ele>757</ele>
        <time>2026-08-22T04:17:23.000Z</time>
        <extensions>
          <ns3:TrackPointExtension>
            <ns3:hr>156</ns3:hr>
            <ns3:cad>0</ns3:cad>
          </ns3:TrackPointExtension>
        </extensions>
      </trkpt>
      <trkpt lat="45.25662504136562347412109375" lon="-71.195807754993438720703125">
        <ele>757</ele>
        <time>2026-08-22T04:17:24.000Z</time>
        <extensions>
          <ns3:TrackPointExtension>
            <ns3:hr>156</ns3:hr>
            <ns3:cad>0</ns3:cad>
          </ns3:TrackPointExtension>
        </extensions>
      </trkpt>
      <trkpt lat="45.2566188387572765350341796875" lon="-71.1958109401166439056396484375">
        <ele>757</ele>
        <time>2026-08-22T04:17:25.000Z</time>
        <extensions>
          <ns3:TrackPointExtension>
            <ns3:hr>156</ns3:hr>
            <ns3:cad>0</ns3:cad>
          </ns3:TrackPointExtension>
        </extensions>
      </trkpt>
      <trkpt lat="45.25661607272922992706298828125" lon="-71.1958152987062931060791015625">
        <ele>757</ele>
        <time>2026-08-22T04:17:26.000Z</time>
        <extensions>
          <ns3:TrackPointExtension>
            <ns3:hr>156</ns3:hr>
            <ns3:cad>0</ns3:cad>
          </ns3:TrackPointExtension>
        </extensions>
      </trkpt>
      <trkpt lat="45.25661121122539043426513671875" lon="-71.1958246864378452301025390625">
        <ele>757</ele>
        <time>2026-08-22T04:17:27.000Z</time>
        <extensions>
          <ns3:TrackPointExtension>
            <ns3:hr>156</ns3:hr>
            <ns3:cad>0</ns3:cad>
          </ns3:TrackPointExtension>
        </extensions>
      </trkpt>
      <trkpt lat="45.2566050924360752105712890625" lon="-71.19583122432231903076171875">
        <ele>757.20001220703125</ele>
        <time>2026-08-22T04:17:28.000Z</time>
        <extensions>
          <ns3:TrackPointExtension>
            <ns3:hr>157</ns3:hr>
            <ns3:cad>0</ns3:cad>
          </ns3:TrackPointExtension>
        </extensions>
      </trkpt>
      <trkpt lat="45.25659687817096710205078125" lon="-71.19583935476839542388916015625">
        <ele>757.4000244140625</ele>
        <time>2026-08-22T04:17:29.000Z</time>
        <extensions>
          <ns3:TrackPointExtension>
            <ns3:hr>157</ns3:hr>
            <ns3:cad>0</ns3:cad>
          </ns3:TrackPointExtension>
        </extensions>
      </trkpt>
      <trkpt lat="45.25659008882939815521240234375" lon="-71.1958468146622180938720703125">
        <ele>757.4000244140625</ele>
        <time>2026-08-22T04:17:30.000Z</time>
        <extensions>
          <ns3:TrackPointExtension>
            <ns3:hr>157</ns3:hr>
            <ns3:cad>0</ns3:cad>
          </ns3:TrackPointExtension>
        </extensions>
      </trkpt>
      <trkpt lat="45.2565826289355754852294921875" lon="-71.19585259817540645599365234375">
        <ele>757.5999755859375</ele>
        <time>2026-08-22T04:17:31.000Z</time>
        <extensions>
          <ns3:TrackPointExtension>
            <ns3:hr>157</ns3:hr>
            <ns3:cad>42</ns3:cad>
          </ns3:TrackPointExtension>
        </extensions>
      </trkpt>
      <trkpt lat="45.256572067737579345703125" lon="-71.19585997425019741058349609375">
        <ele>757.79998779296875</ele>
        <time>2026-08-22T04:17:32.000Z</time>
        <extensions>
          <ns3:TrackPointExtension>
            <ns3:hr>156</ns3:hr>
            <ns3:cad>42</ns3:cad>
          </ns3:TrackPointExtension>
        </extensions>
      </trkpt>
      <trkpt lat="45.25656309910118579864501953125" lon="-71.19586944580078125">
        <ele>757.79998779296875</ele>
        <time>2026-08-22T04:17:33.000Z</time>
        <extensions>
          <ns3:TrackPointExtension>
            <ns3:hr>155</ns3:hr>
            <ns3:cad>44</ns3:cad>
          </ns3:TrackPointExtension>
        </extensions>
      </trkpt>
      <trkpt lat="45.25655102916061878204345703125" lon="-71.19587707333266735076904296875">
        <ele>758</ele>
        <time>2026-08-22T04:17:34.000Z</time>
        <extensions>
          <ns3:TrackPointExtension>
            <ns3:hr>156</ns3:hr>
            <ns3:cad>44</ns3:cad>
          </ns3:TrackPointExtension>
        </extensions>
      </trkpt>
      <trkpt lat="45.25654130615293979644775390625" lon="-71.195882856845855712890625">
        <ele>758.20001220703125</ele>
        <time>2026-08-22T04:17:35.000Z</time>
        <extensions>
          <ns3:TrackPointExtension>
            <ns3:hr>156</ns3:hr>
            <ns3:cad>47</ns3:cad>
          </ns3:TrackPointExtension>
        </extensions>
      </trkpt>
      <trkpt lat="45.25652839802205562591552734375" lon="-71.19588964618742465972900390625">
        <ele>758.4000244140625</ele>
        <time>2026-08-22T04:17:36.000Z</time>
        <extensions>
          <ns3:TrackPointExtension>
            <ns3:hr>155</ns3:hr>
            <ns3:cad>47</ns3:cad>
          </ns3:TrackPointExtension>
        </extensions>
      </trkpt>
      <trkpt lat="45.25651465170085430145263671875" lon="-71.19589601643383502960205078125">
        <ele>758.5999755859375</ele>
        <time>2026-08-22T04:17:37.000Z</time>
        <extensions>
          <ns3:TrackPointExtension>
            <ns3:hr>155</ns3:hr>
            <ns3:cad>47</ns3:cad>
          </ns3:TrackPointExtension>
        </extensions>
      </trkpt>
      <trkpt lat="45.2565021626651287078857421875" lon="-71.1958997882902622222900390625">
        <ele>758.79998779296875</ele>
        <time>2026-08-22T04:17:38.000Z</time>
        <extensions>
          <ns3:TrackPointExtension>
            <ns3:hr>155</ns3:hr>
            <ns3:cad>48</ns3:cad>
          </ns3:TrackPointExtension>
        </extensions>
      </trkpt>
      <trkpt lat="45.2564917691051959991455078125" lon="-71.19589936919510364532470703125">
        <ele>759</ele>
        <time>2026-08-22T04:17:39.000Z</time>
        <extensions>
          <ns3:TrackPointExtension>
            <ns3:hr>156</ns3:hr>
            <ns3:cad>48</ns3:cad>
          </ns3:TrackPointExtension>
        </extensions>
      </trkpt>
      <trkpt lat="45.25647819042205810546875" lon="-71.19590154848992824554443359375">
        <ele>759.20001220703125</ele>
        <time>2026-08-22T04:17:40.000Z</time>
        <extensions>
          <ns3:TrackPointExtension>
            <ns3:hr>156</ns3:hr>
            <ns3:cad>49</ns3:cad>
          </ns3:TrackPointExtension>
        </extensions>
      </trkpt>
      <trkpt lat="45.25646788068115711212158203125" lon="-71.19590691290795803070068359375">
        <ele>759.4000244140625</ele>
        <time>2026-08-22T04:17:41.000Z</time>
        <extensions>
          <ns3:TrackPointExtension>
            <ns3:hr>156</ns3:hr>
            <ns3:cad>49</ns3:cad>
          </ns3:TrackPointExtension>
        </extensions>
      </trkpt>
      <trkpt lat="45.2564572356641292572021484375" lon="-71.19591596536338329315185546875">
        <ele>759.5999755859375</ele>
        <time>2026-08-22T04:17:42.000Z</time>
        <extensions>
          <ns3:TrackPointExtension>
            <ns3:hr>156</ns3:hr>
            <ns3:cad>49</ns3:cad>
          </ns3:TrackPointExtension>
        </extensions>
      </trkpt>
      <trkpt lat="45.25644625537097454071044921875" lon="-71.19592283852398395538330078125">
        <ele>759.79998779296875</ele>
        <time>2026-08-22T04:17:43.000Z</time>
        <extensions>
          <ns3:TrackPointExtension>
            <ns3:hr>156</ns3:hr>
            <ns3:cad>48</ns3:cad>
          </ns3:TrackPointExtension>
        </extensions>
      </trkpt>
      <trkpt lat="45.25643720291554927825927734375" lon="-71.19593021459877490997314453125">
        <ele>760</ele>
        <time>2026-08-22T04:17:44.000Z</time>
        <extensions>
          <ns3:TrackPointExtension>
            <ns3:hr>156</ns3:hr>
            <ns3:cad>48</ns3:cad>
          </ns3:TrackPointExtension>
        </extensions>
      </trkpt>
      <trkpt lat="45.2564253844320774078369140625" lon="-71.195936501026153564453125">
        <ele>760.20001220703125</ele>
        <time>2026-08-22T04:17:45.000Z</time>
        <extensions>
          <ns3:TrackPointExtension>
            <ns3:hr>156</ns3:hr>
            <ns3:cad>48</ns3:cad>
          </ns3:TrackPointExtension>
        </extensions>
      </trkpt>
      <trkpt lat="45.25641691870987415313720703125" lon="-71.19594295509159564971923828125">
        <ele>760.4000244140625</ele>
        <time>2026-08-22T04:17:46.000Z</time>
        <extensions>
          <ns3:TrackPointExtension>
            <ns3:hr>155</ns3:hr>
            <ns3:cad>48</ns3:cad>
          </ns3:TrackPointExtension>
        </extensions>
      </trkpt>
      <trkpt lat="45.25640300475060939788818359375" lon="-71.19594848714768886566162109375">
        <ele>760.4000244140625</ele>
        <time>2026-08-22T04:17:47.000Z</time>
        <extensions>
          <ns3:TrackPointExtension>
            <ns3:hr>156</ns3:hr>
            <ns3:cad>47</ns3:cad>
          </ns3:TrackPointExtension>
        </extensions>
      </trkpt>
      <trkpt lat="45.25639127008616924285888671875" lon="-71.1959530971944332122802734375">
        <ele>760.5999755859375</ele>
        <time>2026-08-22T04:17:48.000Z</time>
        <extensions>
          <ns3:TrackPointExtension>
            <ns3:hr>156</ns3:hr>
            <ns3:cad>47</ns3:cad>
          </ns3:TrackPointExtension>
        </extensions>
      </trkpt>
      <trkpt lat="45.2563838101923465728759765625" lon="-71.19595837779343128204345703125">
        <ele>760.5999755859375</ele>
        <time>2026-08-22T04:17:49.000Z</time>
        <extensions>
          <ns3:TrackPointExtension>
            <ns3:hr>155</ns3:hr>
            <ns3:cad>48</ns3:cad>
          </ns3:TrackPointExtension>
        </extensions>
      </trkpt>
      <trkpt lat="45.25637718848884105682373046875" lon="-71.1959621496498584747314453125">
        <ele>760.79998779296875</ele>
        <time>2026-08-22T04:17:50.000Z</time>
        <extensions>
          <ns3:TrackPointExtension>
            <ns3:hr>155</ns3:hr>
            <ns3:cad>48</ns3:cad>
          </ns3:TrackPointExtension>
        </extensions>
      </trkpt>
      <trkpt lat="45.25636360980570316314697265625" lon="-71.19597162120044231414794921875">
        <ele>761.20001220703125</ele>
        <time>2026-08-22T04:17:51.000Z</time>
        <extensions>
          <ns3:TrackPointExtension>
            <ns3:hr>154</ns3:hr>
            <ns3:cad>48</ns3:cad>
          </ns3:TrackPointExtension>
        </extensions>
      </trkpt>
      <trkpt lat="45.2563566528260707855224609375" lon="-71.1959752254188060760498046875">
        <ele>761.4000244140625</ele>
        <time>2026-08-22T04:17:52.000Z</time>
        <extensions>
          <ns3:TrackPointExtension>
            <ns3:hr>154</ns3:hr>
            <ns3:cad>48</ns3:cad>
          </ns3:TrackPointExtension>
        </extensions>
      </trkpt>
      <trkpt lat="45.25634332560002803802490234375" lon="-71.1959926597774028778076171875">
        <ele>761.5999755859375</ele>
        <time>2026-08-22T04:17:53.000Z</time>
        <extensions>
          <ns3:TrackPointExtension>
            <ns3:hr>154</ns3:hr>
            <ns3:cad>48</ns3:cad>
          </ns3:TrackPointExtension>
        </extensions>
      </trkpt>
      <trkpt lat="45.25633276440203189849853515625" lon="-71.19600313715636730194091796875">
        <ele>761.79998779296875</ele>
        <time>2026-08-22T04:17:54.000Z</time>
        <extensions>
          <ns3:TrackPointExtension>
            <ns3:hr>154</ns3:hr>
            <ns3:cad>47</ns3:cad>
          </ns3:TrackPointExtension>
        </extensions>
      </trkpt>
      <trkpt lat="45.25632304139435291290283203125" lon="-71.19600850157439708709716796875">
        <ele>762</ele>
        <time>2026-08-22T04:17:55.000Z</time>
        <extensions>
          <ns3:TrackPointExtension>
            <ns3:hr>153</ns3:hr>
            <ns3:cad>47</ns3:cad>
          </ns3:TrackPointExtension>
        </extensions>
      </trkpt>
      <trkpt lat="45.256314240396022796630859375" lon="-71.1960127763450145721435546875">
        <ele>762.20001220703125</ele>
        <time>2026-08-22T04:17:56.000Z</time>
        <extensions>
          <ns3:TrackPointExtension>
            <ns3:hr>153</ns3:hr>
            <ns3:cad>48</ns3:cad>
          </ns3:TrackPointExtension>
        </extensions>
      </trkpt>
      <trkpt lat="45.256305523216724395751953125" lon="-71.1960204876959323883056640625">
        <ele>762.20001220703125</ele>
        <time>2026-08-22T04:17:57.000Z</time>
        <extensions>
          <ns3:TrackPointExtension>
            <ns3:hr>153</ns3:hr>
            <ns3:cad>49</ns3:cad>
          </ns3:TrackPointExtension>
        </extensions>
      </trkpt>
      <trkpt lat="45.25629370473325252532958984375" lon="-71.19602543301880359649658203125">
        <ele>762.4000244140625</ele>
        <time>2026-08-22T04:17:58.000Z</time>
        <extensions>
          <ns3:TrackPointExtension>
            <ns3:hr>152</ns3:hr>
            <ns3:cad>49</ns3:cad>
          </ns3:TrackPointExtension>
        </extensions>
      </trkpt>
      <trkpt lat="45.256286747753620147705078125" lon="-71.1960317194461822509765625">
        <ele>762.4000244140625</ele>
        <time>2026-08-22T04:17:59.000Z</time>
        <extensions>
          <ns3:TrackPointExtension>
            <ns3:hr>151</ns3:hr>
            <ns3:cad>49</ns3:cad>
          </ns3:TrackPointExtension>
        </extensions>
      </trkpt>
      <trkpt lat="45.25627777911722660064697265625" lon="-71.1960392631590366363525390625">
        <ele>762.5999755859375</ele>
        <time>2026-08-22T04:18:00.000Z</time>
        <extensions>
          <ns3:TrackPointExtension>
            <ns3:hr>151</ns3:hr>
            <ns3:cad>49</ns3:cad>
          </ns3:TrackPointExtension>
        </extensions>
      </trkpt>
      <trkpt lat="45.2562678046524524688720703125" lon="-71.19604823179543018341064453125">
        <ele>762.79998779296875</ele>
        <time>2026-08-22T04:18:01.000Z</time>
        <extensions>
          <ns3:TrackPointExtension>
            <ns3:hr>151</ns3:hr>
            <ns3:cad>48</ns3:cad>
          </ns3:TrackPointExtension>
        </extensions>
      </trkpt>
      <trkpt lat="45.25625648908317089080810546875" lon="-71.19605921208858489990234375">
        <ele>763</ele>
        <time>2026-08-22T04:18:02.000Z</time>
        <extensions>
          <ns3:TrackPointExtension>
            <ns3:hr>152</ns3:hr>
            <ns3:cad>47</ns3:cad>
          </ns3:TrackPointExtension>
        </extensions>
      </trkpt>
      <trkpt lat="45.25624475441873073577880859375" lon="-71.19607170112431049346923828125">
        <ele>763.20001220703125</ele>
        <time>2026-08-22T04:18:03.000Z</time>
        <extensions>
          <ns3:TrackPointExtension>
            <ns3:hr>152</ns3:hr>
            <ns3:cad>47</ns3:cad>
          </ns3:TrackPointExtension>
        </extensions>
      </trkpt>
      <trkpt lat="45.25623486377298831939697265625" lon="-71.196086369454860687255859375">
        <ele>763.4000244140625</ele>
        <time>2026-08-22T04:18:04.000Z</time>
        <extensions>
          <ns3:TrackPointExtension>
            <ns3:hr>152</ns3:hr>
            <ns3:cad>47</ns3:cad>
          </ns3:TrackPointExtension>
        </extensions>
      </trkpt>
      <trkpt lat="45.2562265656888484954833984375" lon="-71.19609584100544452667236328125">
        <ele>763.5999755859375</ele>
        <time>2026-08-22T04:18:05.000Z</time>
        <extensions>
          <ns3:TrackPointExtension>
            <ns3:hr>153</ns3:hr>
            <ns3:cad>47</ns3:cad>
          </ns3:TrackPointExtension>
        </extensions>
      </trkpt>
      <trkpt lat="45.25621600449085235595703125" lon="-71.1961076594889163970947265625">
        <ele>763.79998779296875</ele>
        <time>2026-08-22T04:18:06.000Z</time>
        <extensions>
          <ns3:TrackPointExtension>
            <ns3:hr>152</ns3:hr>
            <ns3:cad>50</ns3:cad>
          </ns3:TrackPointExtension>
        </extensions>
      </trkpt>
      <trkpt lat="45.25620485655963420867919921875" lon="-71.19612232781946659088134765625">
        <ele>764</ele>
        <time>2026-08-22T04:18:07.000Z</time>
        <extensions>
          <ns3:TrackPointExtension>
            <ns3:hr>152</ns3:hr>
            <ns3:cad>50</ns3:cad>
          </ns3:TrackPointExtension>
        </extensions>
      </trkpt>
      <trkpt lat="45.25619379244744777679443359375" lon="-71.1961368285119533538818359375">
        <ele>764.20001220703125</ele>
        <time>2026-08-22T04:18:08.000Z</time>
        <extensions>
          <ns3:TrackPointExtension>
            <ns3:hr>152</ns3:hr>
            <ns3:cad>52</ns3:cad>
          </ns3:TrackPointExtension>
        </extensions>
      </trkpt>
      <trkpt lat="45.256189517676830291748046875" lon="-71.19614261202514171600341796875">
        <ele>764.4000244140625</ele>
        <time>2026-08-22T04:18:09.000Z</time>
        <extensions>
          <ns3:TrackPointExtension>
            <ns3:hr>152</ns3:hr>
            <ns3:cad>52</ns3:cad>
          </ns3:TrackPointExtension>
        </extensions>
      </trkpt>
      <trkpt lat="45.25617753155529499053955078125" lon="-71.1961545981466770172119140625">
        <ele>764.5999755859375</ele>
        <time>2026-08-22T04:18:10.000Z</time>
        <extensions>
          <ns3:TrackPointExtension>
            <ns3:hr>152</ns3:hr>
            <ns3:cad>52</ns3:cad>
          </ns3:TrackPointExtension>
        </extensions>
      </trkpt>
      <trkpt lat="45.25616629980504512786865234375" lon="-71.19617161341011524200439453125">
        <ele>764.79998779296875</ele>
        <time>2026-08-22T04:18:11.000Z</time>
        <extensions>
          <ns3:TrackPointExtension>
            <ns3:hr>152</ns3:hr>
            <ns3:cad>51</ns3:cad>
          </ns3:TrackPointExtension>
        </extensions>
      </trkpt>
      <trkpt lat="45.25615339167416095733642578125" lon="-71.19618988595902919769287109375">
        <ele>765</ele>
        <time>2026-08-22T04:18:12.000Z</time>
        <extensions>
          <ns3:TrackPointExtension>
            <ns3:hr>151</ns3:hr>
            <ns3:cad>51</ns3:cad>
          </ns3:TrackPointExtension>
        </extensions>
      </trkpt>
      <trkpt lat="45.25613998062908649444580078125" lon="-71.1962038837373256683349609375">
        <ele>765.20001220703125</ele>
        <time>2026-08-22T04:18:13.000Z</time>
        <extensions>
          <ns3:TrackPointExtension>
            <ns3:hr>152</ns3:hr>
            <ns3:cad>51</ns3:cad>
          </ns3:TrackPointExtension>
        </extensions>
      </trkpt>
      <trkpt lat="45.25612908415496349334716796875" lon="-71.19621184654533863067626953125">
        <ele>765.20001220703125</ele>
        <time>2026-08-22T04:18:14.000Z</time>
        <extensions>
          <ns3:TrackPointExtension>
            <ns3:hr>152</ns3:hr>
            <ns3:cad>51</ns3:cad>
          </ns3:TrackPointExtension>
        </extensions>
      </trkpt>
      <trkpt lat="45.25611734949052333831787109375" lon="-71.19621804915368556976318359375">
        <ele>765.4000244140625</ele>
        <time>2026-08-22T04:18:15.000Z</time>
        <extensions>
          <ns3:TrackPointExtension>
            <ns3:hr>152</ns3:hr>
            <ns3:cad>51</ns3:cad>
          </ns3:TrackPointExtension>
        </extensions>
      </trkpt>
      <trkpt lat="45.2561088837683200836181640625" lon="-71.1962248384952545166015625">
        <ele>765.4000244140625</ele>
        <time>2026-08-22T04:18:16.000Z</time>
        <extensions>
          <ns3:TrackPointExtension>
            <ns3:hr>152</ns3:hr>
            <ns3:cad>51</ns3:cad>
          </ns3:TrackPointExtension>
        </extensions>
      </trkpt>
      <trkpt lat="45.256098993122577667236328125" lon="-71.1962377466261386871337890625">
        <ele>765.5999755859375</ele>
        <time>2026-08-22T04:18:17.000Z</time>
        <extensions>
          <ns3:TrackPointExtension>
            <ns3:hr>151</ns3:hr>
            <ns3:cad>51</ns3:cad>
          </ns3:TrackPointExtension>
        </extensions>
      </trkpt>
      <trkpt lat="45.2560891024768352508544921875" lon="-71.1962521634995937347412109375">
        <ele>765.5999755859375</ele>
        <time>2026-08-22T04:18:18.000Z</time>
        <extensions>
          <ns3:TrackPointExtension>
            <ns3:hr>151</ns3:hr>
            <ns3:cad>53</ns3:cad>
          </ns3:TrackPointExtension>
        </extensions>
      </trkpt>
      <trkpt lat="45.25607661344110965728759765625" lon="-71.19626549072563648223876953125">
        <ele>765.79998779296875</ele>
        <time>2026-08-22T04:18:19.000Z</time>
        <extensions>
          <ns3:TrackPointExtension>
            <ns3:hr>150</ns3:hr>
            <ns3:cad>53</ns3:cad>
          </ns3:TrackPointExtension>
        </extensions>
      </trkpt>
      <trkpt lat="45.25606311857700347900390625" lon="-71.19627638719975948333740234375">
        <ele>766</ele>
        <time>2026-08-22T04:18:20.000Z</time>
        <extensions>
          <ns3:TrackPointExtension>
            <ns3:hr>150</ns3:hr>
            <ns3:cad>55</ns3:cad>
          </ns3:TrackPointExtension>
        </extensions>
      </trkpt>
      <trkpt lat="45.25605280883610248565673828125" lon="-71.19628854095935821533203125">
        <ele>766</ele>
        <time>2026-08-22T04:18:21.000Z</time>
        <extensions>
          <ns3:TrackPointExtension>
            <ns3:hr>150</ns3:hr>
            <ns3:cad>55</ns3:cad>
          </ns3:TrackPointExtension>
        </extensions>
      </trkpt>
      <trkpt lat="45.2560435049235820770263671875" lon="-71.1962985992431640625">
        <ele>766.20001220703125</ele>
        <time>2026-08-22T04:18:22.000Z</time>
        <extensions>
          <ns3:TrackPointExtension>
            <ns3:hr>150</ns3:hr>
            <ns3:cad>55</ns3:cad>
          </ns3:TrackPointExtension>
        </extensions>
      </trkpt>
      <trkpt lat="45.256033949553966522216796875" lon="-71.1963091604411602020263671875">
        <ele>766.4000244140625</ele>
        <time>2026-08-22T04:18:23.000Z</time>
        <extensions>
          <ns3:TrackPointExtension>
            <ns3:hr>150</ns3:hr>
            <ns3:cad>53</ns3:cad>
          </ns3:TrackPointExtension>
        </extensions>
      </trkpt>
      <trkpt lat="45.25602313689887523651123046875" lon="-71.196322403848171234130859375">
        <ele>766.4000244140625</ele>
        <time>2026-08-22T04:18:24.000Z</time>
        <extensions>
          <ns3:TrackPointExtension>
            <ns3:hr>150</ns3:hr>
            <ns3:cad>53</ns3:cad>
          </ns3:TrackPointExtension>
        </extensions>
      </trkpt>
      <trkpt lat="45.25601123459637165069580078125" lon="-71.1963336355984210968017578125">
        <ele>766.5999755859375</ele>
        <time>2026-08-22T04:18:25.000Z</time>
        <extensions>
          <ns3:TrackPointExtension>
            <ns3:hr>150</ns3:hr>
            <ns3:cad>52</ns3:cad>
          </ns3:TrackPointExtension>
        </extensions>
      </trkpt>
      <trkpt lat="45.25600067339837551116943359375" lon="-71.196345873177051544189453125">
        <ele>766.79998779296875</ele>
        <time>2026-08-22T04:18:26.000Z</time>
        <extensions>
          <ns3:TrackPointExtension>
            <ns3:hr>150</ns3:hr>
            <ns3:cad>52</ns3:cad>
          </ns3:TrackPointExtension>
        </extensions>
      </trkpt>
      <trkpt lat="45.25598826818168163299560546875" lon="-71.19635886512696743011474609375">
        <ele>767</ele>
        <time>2026-08-22T04:18:27.000Z</time>
        <extensions>
          <ns3:TrackPointExtension>
            <ns3:hr>151</ns3:hr>
            <ns3:cad>52</ns3:cad>
          </ns3:TrackPointExtension>
        </extensions>
      </trkpt>
      <trkpt lat="45.255976282060146331787109375" lon="-71.1963715218007564544677734375">
        <ele>767.20001220703125</ele>
        <time>2026-08-22T04:18:28.000Z</time>
        <extensions>
          <ns3:TrackPointExtension>
            <ns3:hr>151</ns3:hr>
            <ns3:cad>53</ns3:cad>
          </ns3:TrackPointExtension>
        </extensions>
      </trkpt>
      <trkpt lat="45.25597058236598968505859375" lon="-71.19638417847454547882080078125">
        <ele>767.4000244140625</ele>
        <time>2026-08-22T04:18:29.000Z</time>
        <extensions>
          <ns3:TrackPointExtension>
            <ns3:hr>151</ns3:hr>
            <ns3:cad>53</ns3:cad>
          </ns3:TrackPointExtension>
        </extensions>
      </trkpt>
      <trkpt lat="45.25596320629119873046875" lon="-71.19639373384416103363037109375">
        <ele>767.79998779296875</ele>
        <time>2026-08-22T04:18:30.000Z</time>
        <extensions>
          <ns3:TrackPointExtension>
            <ns3:hr>151</ns3:hr>
            <ns3:cad>53</ns3:cad>
          </ns3:TrackPointExtension>
        </extensions>
      </trkpt>
      <trkpt lat="45.25595373474061489105224609375" lon="-71.19641016237437725067138671875">
        <ele>768</ele>
        <time>2026-08-22T04:18:31.000Z</time>
        <extensions>
          <ns3:TrackPointExtension>
            <ns3:hr>150</ns3:hr>
            <ns3:cad>53</ns3:cad>
          </ns3:TrackPointExtension>
        </extensions>
      </trkpt>
      <trkpt lat="45.25594920851290225982666015625" lon="-71.19641887955367565155029296875">
        <ele>768.20001220703125</ele>
        <time>2026-08-22T04:18:32.000Z</time>
        <extensions>
          <ns3:TrackPointExtension>
            <ns3:hr>150</ns3:hr>
            <ns3:cad>53</ns3:cad>
          </ns3:TrackPointExtension>
        </extensions>
      </trkpt>
      <trkpt lat="45.2559362165629863739013671875" lon="-71.19643111713230609893798828125">
        <ele>768.4000244140625</ele>
        <time>2026-08-22T04:18:33.000Z</time>
        <extensions>
          <ns3:TrackPointExtension>
            <ns3:hr>150</ns3:hr>
            <ns3:cad>53</ns3:cad>
          </ns3:TrackPointExtension>
        </extensions>
      </trkpt>
      <trkpt lat="45.25592305697500705718994140625" lon="-71.1964462883770465850830078125">
        <ele>768.5999755859375</ele>
        <time>2026-08-22T04:18:34.000Z</time>
        <extensions>
          <ns3:TrackPointExtension>
            <ns3:hr>150</ns3:hr>
            <ns3:cad>53</ns3:cad>
          </ns3:TrackPointExtension>
        </extensions>
      </trkpt>
      <trkpt lat="45.25591534562408924102783203125" lon="-71.1964596994221210479736328125">
        <ele>768.79998779296875</ele>
        <time>2026-08-22T04:18:35.000Z</time>
        <extensions>
          <ns3:TrackPointExtension>
            <ns3:hr>150</ns3:hr>
            <ns3:cad>53</ns3:cad>
          </ns3:TrackPointExtension>
        </extensions>
      </trkpt>
      <trkpt lat="45.25590679608285427093505859375" lon="-71.19647151790559291839599609375">
        <ele>769</ele>
        <time>2026-08-22T04:18:36.000Z</time>
        <extensions>
          <ns3:TrackPointExtension>
            <ns3:hr>150</ns3:hr>
            <ns3:cad>53</ns3:cad>
          </ns3:TrackPointExtension>
        </extensions>
      </trkpt>
      <trkpt lat="45.25589774362742900848388671875" lon="-71.19648090563714504241943359375">
        <ele>769.20001220703125</ele>
        <time>2026-08-22T04:18:37.000Z</time>
        <extensions>
          <ns3:TrackPointExtension>
            <ns3:hr>150</ns3:hr>
            <ns3:cad>53</ns3:cad>
          </ns3:TrackPointExtension>
        </extensions>
      </trkpt>
      <trkpt lat="45.25588785298168659210205078125" lon="-71.1964875273406505584716796875">
        <ele>769.4000244140625</ele>
        <time>2026-08-22T04:18:38.000Z</time>
        <extensions>
          <ns3:TrackPointExtension>
            <ns3:hr>149</ns3:hr>
            <ns3:cad>53</ns3:cad>
          </ns3:TrackPointExtension>
        </extensions>
      </trkpt>
      <trkpt lat="45.25587737560272216796875" lon="-71.19649565778672695159912109375">
        <ele>769.5999755859375</ele>
        <time>2026-08-22T04:18:39.000Z</time>
        <extensions>
          <ns3:TrackPointExtension>
            <ns3:hr>149</ns3:hr>
            <ns3:cad>51</ns3:cad>
          </ns3:TrackPointExtension>
        </extensions>
      </trkpt>
      <trkpt lat="45.25586597621440887451171875" lon="-71.19650420732796192169189453125">
        <ele>769.79998779296875</ele>
        <time>2026-08-22T04:18:40.000Z</time>
        <extensions>
          <ns3:TrackPointExtension>
            <ns3:hr>150</ns3:hr>
            <ns3:cad>51</ns3:cad>
          </ns3:TrackPointExtension>
        </extensions>
      </trkpt>
      <trkpt lat="45.2558493800461292266845703125" lon="-71.196515858173370361328125">
        <ele>770</ele>
        <time>2026-08-22T04:18:41.000Z</time>
        <extensions>
          <ns3:TrackPointExtension>
            <ns3:hr>150</ns3:hr>
            <ns3:cad>51</ns3:cad>
          </ns3:TrackPointExtension>
        </extensions>
      </trkpt>
      <trkpt lat="45.25583655573427677154541015625" lon="-71.19652717374265193939208984375">
        <ele>770.20001220703125</ele>
        <time>2026-08-22T04:18:42.000Z</time>
        <extensions>
          <ns3:TrackPointExtension>
            <ns3:hr>150</ns3:hr>
            <ns3:cad>51</ns3:cad>
          </ns3:TrackPointExtension>
        </extensions>
      </trkpt>
      <trkpt lat="45.2558285929262638092041015625" lon="-71.19653756730258464813232421875">
        <ele>770.4000244140625</ele>
        <time>2026-08-22T04:18:43.000Z</time>
        <extensions>
          <ns3:TrackPointExtension>
            <ns3:hr>150</ns3:hr>
            <ns3:cad>51</ns3:cad>
          </ns3:TrackPointExtension>
        </extensions>
      </trkpt>
      <trkpt lat="45.255819372832775115966796875" lon="-71.19654603302478790283203125">
        <ele>770.5999755859375</ele>
        <time>2026-08-22T04:18:44.000Z</time>
        <extensions>
          <ns3:TrackPointExtension>
            <ns3:hr>149</ns3:hr>
            <ns3:cad>51</ns3:cad>
          </ns3:TrackPointExtension>
        </extensions>
      </trkpt>
      <trkpt lat="45.255810655653476715087890625" lon="-71.19655609130859375">
        <ele>770.79998779296875</ele>
        <time>2026-08-22T04:18:45.000Z</time>
        <extensions>
          <ns3:TrackPointExtension>
            <ns3:hr>149</ns3:hr>
            <ns3:cad>51</ns3:cad>
          </ns3:TrackPointExtension>
        </extensions>
      </trkpt>
      <trkpt lat="45.25580001063644886016845703125" lon="-71.19656422175467014312744140625">
        <ele>771</ele>
        <time>2026-08-22T04:18:46.000Z</time>
        <extensions>
          <ns3:TrackPointExtension>
            <ns3:hr>149</ns3:hr>
            <ns3:cad>51</ns3:cad>
          </ns3:TrackPointExtension>
        </extensions>
      </trkpt>
      <trkpt lat="45.25578819215297698974609375" lon="-71.196577548980712890625">
        <ele>771.20001220703125</ele>
        <time>2026-08-22T04:18:47.000Z</time>
        <extensions>
          <ns3:TrackPointExtension>
            <ns3:hr>150</ns3:hr>
            <ns3:cad>51</ns3:cad>
          </ns3:TrackPointExtension>
        </extensions>
      </trkpt>
      <trkpt lat="45.2557779662311077117919921875" lon="-71.196587271988391876220703125">
        <ele>771.4000244140625</ele>
        <time>2026-08-22T04:18:48.000Z</time>
        <extensions>
          <ns3:TrackPointExtension>
            <ns3:hr>150</ns3:hr>
            <ns3:cad>51</ns3:cad>
          </ns3:TrackPointExtension>
        </extensions>
      </trkpt>
      <trkpt lat="45.25576430372893810272216796875" lon="-71.19659808464348316192626953125">
        <ele>771.5999755859375</ele>
        <time>2026-08-22T04:18:49.000Z</time>
        <extensions>
          <ns3:TrackPointExtension>
            <ns3:hr>150</ns3:hr>
            <ns3:cad>51</ns3:cad>
          </ns3:TrackPointExtension>
        </extensions>
      </trkpt>
      <trkpt lat="45.2557581849396228790283203125" lon="-71.19660797528922557830810546875">
        <ele>771.79998779296875</ele>
        <time>2026-08-22T04:18:50.000Z</time>
        <extensions>
          <ns3:TrackPointExtension>
            <ns3:hr>151</ns3:hr>
            <ns3:cad>51</ns3:cad>
          </ns3:TrackPointExtension>
        </extensions>
      </trkpt>
      <trkpt lat="45.255752317607402801513671875" lon="-71.1966206319630146026611328125">
        <ele>772</ele>
        <time>2026-08-22T04:18:51.000Z</time>
        <extensions>
          <ns3:TrackPointExtension>
            <ns3:hr>150</ns3:hr>
            <ns3:cad>53</ns3:cad>
          </ns3:TrackPointExtension>
        </extensions>
      </trkpt>
      <trkpt lat="45.2557434327900409698486328125" lon="-71.1966283433139324188232421875">
        <ele>772.4000244140625</ele>
        <time>2026-08-22T04:18:52.000Z</time>
        <extensions>
          <ns3:TrackPointExtension>
            <ns3:hr>150</ns3:hr>
            <ns3:cad>53</ns3:cad>
          </ns3:TrackPointExtension>
        </extensions>
      </trkpt>
      <trkpt lat="45.25573429651558399200439453125" lon="-71.1966377310454845428466796875">
        <ele>772.5999755859375</ele>
        <time>2026-08-22T04:18:53.000Z</time>
        <extensions>
          <ns3:TrackPointExtension>
            <ns3:hr>150</ns3:hr>
            <ns3:cad>53</ns3:cad>
          </ns3:TrackPointExtension>
        </extensions>
      </trkpt>
      <trkpt lat="45.25572407059371471405029296875" lon="-71.1966508068144321441650390625">
        <ele>772.79998779296875</ele>
        <time>2026-08-22T04:18:54.000Z</time>
        <extensions>
          <ns3:TrackPointExtension>
            <ns3:hr>150</ns3:hr>
            <ns3:cad>51</ns3:cad>
          </ns3:TrackPointExtension>
        </extensions>
      </trkpt>
      <trkpt lat="45.25571669451892375946044921875" lon="-71.19666111655533313751220703125">
        <ele>773</ele>
        <time>2026-08-22T04:18:55.000Z</time>
        <extensions>
          <ns3:TrackPointExtension>
            <ns3:hr>150</ns3:hr>
            <ns3:cad>51</ns3:cad>
          </ns3:TrackPointExtension>
        </extensions>
      </trkpt>
      <trkpt lat="45.25570563040673732757568359375" lon="-71.1966789700090885162353515625">
        <ele>773.4000244140625</ele>
        <time>2026-08-22T04:18:56.000Z</time>
        <extensions>
          <ns3:TrackPointExtension>
            <ns3:hr>150</ns3:hr>
            <ns3:cad>0</ns3:cad>
          </ns3:TrackPointExtension>
        </extensions>
      </trkpt>
      <trkpt lat="45.2557062171399593353271484375" lon="-71.19669145904481410980224609375">
        <ele>773.5999755859375</ele>
        <time>2026-08-22T04:18:57.000Z</time>
        <extensions>
          <ns3:TrackPointExtension>
            <ns3:hr>150</ns3:hr>
            <ns3:cad>0</ns3:cad>
          </ns3:TrackPointExtension>
        </extensions>
      </trkpt>
      <trkpt lat="45.25570026598870754241943359375" lon="-71.1967047862708568572998046875">
        <ele>773.79998779296875</ele>
        <time>2026-08-22T04:18:58.000Z</time>
        <extensions>
          <ns3:TrackPointExtension>
            <ns3:hr>150</ns3:hr>
            <ns3:cad>0</ns3:cad>
          </ns3:TrackPointExtension>
        </extensions>
      </trkpt>
      <trkpt lat="45.25569657795131206512451171875" lon="-71.19672280736267566680908203125">
        <ele>774</ele>
        <time>2026-08-22T04:18:59.000Z</time>
        <extensions>
          <ns3:TrackPointExtension>
            <ns3:hr>150</ns3:hr>
            <ns3:cad>0</ns3:cad>
          </ns3:TrackPointExtension>
        </extensions>
      </trkpt>
      <trkpt lat="45.25569423101842403411865234375" lon="-71.1967406608164310455322265625">
        <ele>774.20001220703125</ele>
        <time>2026-08-22T04:19:00.000Z</time>
        <extensions>
          <ns3:TrackPointExtension>
            <ns3:hr>150</ns3:hr>
            <ns3:cad>0</ns3:cad>
          </ns3:TrackPointExtension>
        </extensions>
      </trkpt>
      <trkpt lat="45.25569557212293148040771484375" lon="-71.19675130583345890045166015625">
        <ele>774.4000244140625</ele>
        <time>2026-08-22T04:19:01.000Z</time>
        <extensions>
          <ns3:TrackPointExtension>
            <ns3:hr>150</ns3:hr>
            <ns3:cad>0</ns3:cad>
          </ns3:TrackPointExtension>
        </extensions>
      </trkpt>
      <trkpt lat="45.25569356046617031097412109375" lon="-71.196768321096897125244140625">
        <ele>774.5999755859375</ele>
        <time>2026-08-22T04:19:02.000Z</time>
        <extensions>
          <ns3:TrackPointExtension>
            <ns3:hr>150</ns3:hr>
            <ns3:cad>0</ns3:cad>
          </ns3:TrackPointExtension>
        </extensions>
      </trkpt>
      <trkpt lat="45.2556918002665042877197265625" lon="-71.19678986258804798126220703125">
        <ele>774.79998779296875</ele>
        <time>2026-08-22T04:19:03.000Z</time>
        <extensions>
          <ns3:TrackPointExtension>
            <ns3:hr>150</ns3:hr>
            <ns3:cad>47</ns3:cad>
          </ns3:TrackPointExtension>
        </extensions>
      </trkpt>
      <trkpt lat="45.25569339282810688018798828125" lon="-71.19680930860340595245361328125">
        <ele>775</ele>
        <time>2026-08-22T04:19:04.000Z</time>
        <extensions>
          <ns3:TrackPointExtension>
            <ns3:hr>151</ns3:hr>
            <ns3:cad>47</ns3:cad>
          </ns3:TrackPointExtension>
        </extensions>
      </trkpt>
      <trkpt lat="45.2556909620761871337890625" lon="-71.196827329695224761962890625">
        <ele>775.20001220703125</ele>
        <time>2026-08-22T04:19:05.000Z</time>
        <extensions>
          <ns3:TrackPointExtension>
            <ns3:hr>150</ns3:hr>
            <ns3:cad>47</ns3:cad>
          </ns3:TrackPointExtension>
        </extensions>
      </trkpt>
      <trkpt lat="45.255689285695552825927734375" lon="-71.1968402378261089324951171875">
        <ele>775.4000244140625</ele>
        <time>2026-08-22T04:19:06.000Z</time>
        <extensions>
          <ns3:TrackPointExtension>
            <ns3:hr>150</ns3:hr>
            <ns3:cad>47</ns3:cad>
          </ns3:TrackPointExtension>
        </extensions>
      </trkpt>
      <trkpt lat="45.25569054298102855682373046875" lon="-71.19685809127986431121826171875">
        <ele>775.5999755859375</ele>
        <time>2026-08-22T04:19:07.000Z</time>
        <extensions>
          <ns3:TrackPointExtension>
            <ns3:hr>151</ns3:hr>
            <ns3:cad>47</ns3:cad>
          </ns3:TrackPointExtension>
        </extensions>
      </trkpt>
      <trkpt lat="45.255688615143299102783203125" lon="-71.196879632771015167236328125">
        <ele>775.79998779296875</ele>
        <time>2026-08-22T04:19:08.000Z</time>
        <extensions>
          <ns3:TrackPointExtension>
            <ns3:hr>151</ns3:hr>
            <ns3:cad>48</ns3:cad>
          </ns3:TrackPointExtension>
        </extensions>
      </trkpt>
      <trkpt lat="45.25568668730556964874267578125" lon="-71.19689765386283397674560546875">
        <ele>776</ele>
        <time>2026-08-22T04:19:09.000Z</time>
        <extensions>
          <ns3:TrackPointExtension>
            <ns3:hr>152</ns3:hr>
            <ns3:cad>48</ns3:cad>
          </ns3:TrackPointExtension>
        </extensions>
      </trkpt>
      <trkpt lat="45.25568492710590362548828125" lon="-71.19691693224012851715087890625">
        <ele>776.20001220703125</ele>
        <time>2026-08-22T04:19:10.000Z</time>
        <extensions>
          <ns3:TrackPointExtension>
            <ns3:hr>152</ns3:hr>
            <ns3:cad>49</ns3:cad>
          </ns3:TrackPointExtension>
        </extensions>
      </trkpt>
      <trkpt lat="45.25568492710590362548828125" lon="-71.1969357915222644805908203125">
        <ele>776.4000244140625</ele>
        <time>2026-08-22T04:19:11.000Z</time>
        <extensions>
          <ns3:TrackPointExtension>
            <ns3:hr>151</ns3:hr>
            <ns3:cad>49</ns3:cad>
          </ns3:TrackPointExtension>
        </extensions>
      </trkpt>
      <trkpt lat="45.2556907944381237030029296875" lon="-71.19695012457668781280517578125">
        <ele>776.5999755859375</ele>
        <time>2026-08-22T04:19:12.000Z</time>
        <extensions>
          <ns3:TrackPointExtension>
            <ns3:hr>151</ns3:hr>
            <ns3:cad>49</ns3:cad>
          </ns3:TrackPointExtension>
        </extensions>
      </trkpt>
      <trkpt lat="45.25569163262844085693359375" lon="-71.19696521200239658355712890625">
        <ele>776.79998779296875</ele>
        <time>2026-08-22T04:19:13.000Z</time>
        <extensions>
          <ns3:TrackPointExtension>
            <ns3:hr>151</ns3:hr>
            <ns3:cad>50</ns3:cad>
          </ns3:TrackPointExtension>
        </extensions>
      </trkpt>
      <trkpt lat="45.25569221936166286468505859375" lon="-71.196981556713581085205078125">
        <ele>777</ele>
        <time>2026-08-22T04:19:14.000Z</time>
        <extensions>
          <ns3:TrackPointExtension>
            <ns3:hr>151</ns3:hr>
            <ns3:cad>50</ns3:cad>
          </ns3:TrackPointExtension>
        </extensions>
      </trkpt>
      <trkpt lat="45.25569389574229717254638671875" lon="-71.19700175710022449493408203125">
        <ele>777</ele>
        <time>2026-08-22T04:19:15.000Z</time>
        <extensions>
          <ns3:TrackPointExtension>
            <ns3:hr>150</ns3:hr>
            <ns3:cad>50</ns3:cad>
          </ns3:TrackPointExtension>
        </extensions>
      </trkpt>
      <trkpt lat="45.25570060126483440399169921875" lon="-71.1970196105539798736572265625">
        <ele>777.20001220703125</ele>
        <time>2026-08-22T04:19:16.000Z</time>
        <extensions>
          <ns3:TrackPointExtension>
            <ns3:hr>150</ns3:hr>
            <ns3:cad>50</ns3:cad>
          </ns3:TrackPointExtension>
        </extensions>
      </trkpt>
      <trkpt lat="45.25570797733962535858154296875" lon="-71.1970383860170841217041015625">
        <ele>777.4000244140625</ele>
        <time>2026-08-22T04:19:17.000Z</time>
        <extensions>
          <ns3:TrackPointExtension>
            <ns3:hr>150</ns3:hr>
            <ns3:cad>50</ns3:cad>
          </ns3:TrackPointExtension>
        </extensions>
      </trkpt>
      <trkpt lat="45.2557058818638324737548828125" lon="-71.19706369936466217041015625">
        <ele>777.4000244140625</ele>
        <time>2026-08-22T04:19:18.000Z</time>
        <extensions>
          <ns3:TrackPointExtension>
            <ns3:hr>151</ns3:hr>
            <ns3:cad>50</ns3:cad>
          </ns3:TrackPointExtension>
        </extensions>
      </trkpt>
      <trkpt lat="45.25571367703378200531005859375" lon="-71.19708691723644733428955078125">
        <ele>777.5999755859375</ele>
        <time>2026-08-22T04:19:19.000Z</time>
        <extensions>
          <ns3:TrackPointExtension>
            <ns3:hr>151</ns3:hr>
            <ns3:cad>50</ns3:cad>
          </ns3:TrackPointExtension>
        </extensions>
      </trkpt>
      <trkpt lat="45.25573664344847202301025390625" lon="-71.1971061117947101593017578125">
        <ele>777.79998779296875</ele>
        <time>2026-08-22T04:19:20.000Z</time>
        <extensions>
          <ns3:TrackPointExtension>
            <ns3:hr>151</ns3:hr>
            <ns3:cad>52</ns3:cad>
          </ns3:TrackPointExtension>
        </extensions>
      </trkpt>
      <trkpt lat="45.25574485771358013153076171875" lon="-71.1971248872578144073486328125">
        <ele>778</ele>
        <time>2026-08-22T04:19:21.000Z</time>
        <extensions>
          <ns3:TrackPointExtension>
            <ns3:hr>151</ns3:hr>
            <ns3:cad>52</ns3:cad>
          </ns3:TrackPointExtension>
        </extensions>
      </trkpt>
      <trkpt lat="45.25575407780706882476806640625" lon="-71.1971399746835231781005859375">
        <ele>778.20001220703125</ele>
        <time>2026-08-22T04:19:22.000Z</time>
        <extensions>
          <ns3:TrackPointExtension>
            <ns3:hr>150</ns3:hr>
            <ns3:cad>52</ns3:cad>
          </ns3:TrackPointExtension>
        </extensions>
      </trkpt>
      <trkpt lat="45.25576648302376270294189453125" lon="-71.197154223918914794921875">
        <ele>778.20001220703125</ele>
        <time>2026-08-22T04:19:23.000Z</time>
        <extensions>
          <ns3:TrackPointExtension>
            <ns3:hr>150</ns3:hr>
            <ns3:cad>53</ns3:cad>
          </ns3:TrackPointExtension>
        </extensions>
      </trkpt>
      <trkpt lat="45.2557766251266002655029296875" lon="-71.19716470129787921905517578125">
        <ele>778.4000244140625</ele>
        <time>2026-08-22T04:19:24.000Z</time>
        <extensions>
          <ns3:TrackPointExtension>
            <ns3:hr>150</ns3:hr>
            <ns3:cad>53</ns3:cad>
          </ns3:TrackPointExtension>
        </extensions>
      </trkpt>
      <trkpt lat="45.25578810833394527435302734375" lon="-71.1971771903336048126220703125">
        <ele>778.5999755859375</ele>
        <time>2026-08-22T04:19:25.000Z</time>
        <extensions>
          <ns3:TrackPointExtension>
            <ns3:hr>151</ns3:hr>
            <ns3:cad>55</ns3:cad>
          </ns3:TrackPointExtension>
        </extensions>
      </trkpt>
      <trkpt lat="45.2557950653135776519775390625" lon="-71.19719102047383785247802734375">
        <ele>778.79998779296875</ele>
        <time>2026-08-22T04:19:26.000Z</time>
        <extensions>
          <ns3:TrackPointExtension>
            <ns3:hr>150</ns3:hr>
            <ns3:cad>55</ns3:cad>
          </ns3:TrackPointExtension>
        </extensions>
      </trkpt>
      <trkpt lat="45.2558057941496372222900390625" lon="-71.19720409624278545379638671875">
        <ele>779</ele>
        <time>2026-08-22T04:19:27.000Z</time>
        <extensions>
          <ns3:TrackPointExtension>
            <ns3:hr>151</ns3:hr>
            <ns3:cad>55</ns3:cad>
          </ns3:TrackPointExtension>
        </extensions>
      </trkpt>
      <trkpt lat="45.2558197081089019775390625" lon="-71.1972123943269252777099609375">
        <ele>779.20001220703125</ele>
        <time>2026-08-22T04:19:28.000Z</time>
        <extensions>
          <ns3:TrackPointExtension>
            <ns3:hr>151</ns3:hr>
            <ns3:cad>54</ns3:cad>
          </ns3:TrackPointExtension>
        </extensions>
      </trkpt>
      <trkpt lat="45.255831778049468994140625" lon="-71.19721918366849422454833984375">
        <ele>779.4000244140625</ele>
        <time>2026-08-22T04:19:29.000Z</time>
        <extensions>
          <ns3:TrackPointExtension>
            <ns3:hr>151</ns3:hr>
            <ns3:cad>54</ns3:cad>
          </ns3:TrackPointExtension>
        </extensions>
      </trkpt>
      <trkpt lat="45.25584309361875057220458984375" lon="-71.1972291581332683563232421875">
        <ele>779.4000244140625</ele>
        <time>2026-08-22T04:19:30.000Z</time>
        <extensions>
          <ns3:TrackPointExtension>
            <ns3:hr>152</ns3:hr>
            <ns3:cad>51</ns3:cad>
          </ns3:TrackPointExtension>
        </extensions>
      </trkpt>
      <trkpt lat="45.255849547684192657470703125" lon="-71.197242401540279388427734375">
        <ele>779.5999755859375</ele>
        <time>2026-08-22T04:19:31.000Z</time>
        <extensions>
          <ns3:TrackPointExtension>
            <ns3:hr>152</ns3:hr>
            <ns3:cad>51</ns3:cad>
          </ns3:TrackPointExtension>
        </extensions>
      </trkpt>
      <trkpt lat="45.25586103089153766632080078125" lon="-71.19725455529987812042236328125">
        <ele>779.79998779296875</ele>
        <time>2026-08-22T04:19:32.000Z</time>
        <extensions>
          <ns3:TrackPointExtension>
            <ns3:hr>152</ns3:hr>
            <ns3:cad>51</ns3:cad>
          </ns3:TrackPointExtension>
        </extensions>
      </trkpt>
      <trkpt lat="45.2558658085763454437255859375" lon="-71.197265870869159698486328125">
        <ele>779.79998779296875</ele>
        <time>2026-08-22T04:19:33.000Z</time>
        <extensions>
          <ns3:TrackPointExtension>
            <ns3:hr>152</ns3:hr>
            <ns3:cad>51</ns3:cad>
          </ns3:TrackPointExtension>
        </extensions>
      </trkpt>
      <trkpt lat="45.25587427429854869842529296875" lon="-71.19728540070354938507080078125">
        <ele>779.79998779296875</ele>
        <time>2026-08-22T04:19:34.000Z</time>
        <extensions>
          <ns3:TrackPointExtension>
            <ns3:hr>152</ns3:hr>
            <ns3:cad>52</ns3:cad>
          </ns3:TrackPointExtension>
        </extensions>
      </trkpt>
      <trkpt lat="45.25587762705981731414794921875" lon="-71.19730149395763874053955078125">
        <ele>779.79998779296875</ele>
        <time>2026-08-22T04:19:35.000Z</time>
        <extensions>
          <ns3:TrackPointExtension>
            <ns3:hr>151</ns3:hr>
            <ns3:cad>53</ns3:cad>
          </ns3:TrackPointExtension>
        </extensions>
      </trkpt>
      <trkpt lat="45.25588667951524257659912109375" lon="-71.19732915423810482025146484375">
        <ele>779.79998779296875</ele>
        <time>2026-08-22T04:19:36.000Z</time>
        <extensions>
          <ns3:TrackPointExtension>
            <ns3:hr>152</ns3:hr>
            <ns3:cad>53</ns3:cad>
          </ns3:TrackPointExtension>
        </extensions>
      </trkpt>
      <trkpt lat="45.25588517077267169952392578125" lon="-71.19735312648117542266845703125">
        <ele>779.5999755859375</ele>
        <time>2026-08-22T04:19:37.000Z</time>
        <extensions>
          <ns3:TrackPointExtension>
            <ns3:hr>152</ns3:hr>
            <ns3:cad>53</ns3:cad>
          </ns3:TrackPointExtension>
        </extensions>
      </trkpt>
      <trkpt lat="45.25588114745914936065673828125" lon="-71.19737827219069004058837890625">
        <ele>779.4000244140625</ele>
        <time>2026-08-22T04:19:38.000Z</time>
        <extensions>
          <ns3:TrackPointExtension>
            <ns3:hr>152</ns3:hr>
            <ns3:cad>53</ns3:cad>
          </ns3:TrackPointExtension>
        </extensions>
      </trkpt>
      <trkpt lat="45.25587812997400760650634765625" lon="-71.19740542955696582794189453125">
        <ele>779.20001220703125</ele>
        <time>2026-08-22T04:19:39.000Z</time>
        <extensions>
          <ns3:TrackPointExtension>
            <ns3:hr>152</ns3:hr>
            <ns3:cad>77</ns3:cad>
          </ns3:TrackPointExtension>
        </extensions>
      </trkpt>
      <trkpt lat="45.2558758668601512908935546875" lon="-71.19743174873292446136474609375">
        <ele>778.79998779296875</ele>
        <time>2026-08-22T04:19:40.000Z</time>
        <extensions>
          <ns3:TrackPointExtension>
            <ns3:hr>152</ns3:hr>
            <ns3:cad>77</ns3:cad>
          </ns3:TrackPointExtension>
        </extensions>
      </trkpt>
      <trkpt lat="45.2558728493750095367431640625" lon="-71.1974621750414371490478515625">
        <ele>778.5999755859375</ele>
        <time>2026-08-22T04:19:41.000Z</time>
        <extensions>
          <ns3:TrackPointExtension>
            <ns3:hr>153</ns3:hr>
            <ns3:cad>75</ns3:cad>
          </ns3:TrackPointExtension>
        </extensions>
      </trkpt>
      <trkpt lat="45.25586974807083606719970703125" lon="-71.197490505874156951904296875">
        <ele>778.20001220703125</ele>
        <time>2026-08-22T04:19:42.000Z</time>
        <extensions>
          <ns3:TrackPointExtension>
            <ns3:hr>152</ns3:hr>
            <ns3:cad>75</ns3:cad>
          </ns3:TrackPointExtension>
        </extensions>
      </trkpt>
      <trkpt lat="45.25586664676666259765625" lon="-71.197515986859798431396484375">
        <ele>777.79998779296875</ele>
        <time>2026-08-22T04:19:43.000Z</time>
        <extensions>
          <ns3:TrackPointExtension>
            <ns3:hr>152</ns3:hr>
            <ns3:cad>75</ns3:cad>
          </ns3:TrackPointExtension>
        </extensions>
      </trkpt>
      <trkpt lat="45.2558668144047260284423828125" lon="-71.19754356332123279571533203125">
        <ele>777.4000244140625</ele>
        <time>2026-08-22T04:19:44.000Z</time>
        <extensions>
          <ns3:TrackPointExtension>
            <ns3:hr>152</ns3:hr>
            <ns3:cad>77</ns3:cad>
          </ns3:TrackPointExtension>
        </extensions>
      </trkpt>
      <trkpt lat="45.25586522184312343597412109375" lon="-71.19756753556430339813232421875">
        <ele>777</ele>
        <time>2026-08-22T04:19:45.000Z</time>
        <extensions>
          <ns3:TrackPointExtension>
            <ns3:hr>152</ns3:hr>
            <ns3:cad>77</ns3:cad>
          </ns3:TrackPointExtension>
        </extensions>
      </trkpt>
      <trkpt lat="45.25586203671991825103759765625" lon="-71.1975905857980251312255859375">
        <ele>776.79998779296875</ele>
        <time>2026-08-22T04:19:46.000Z</time>
        <extensions>
          <ns3:TrackPointExtension>
            <ns3:hr>152</ns3:hr>
            <ns3:cad>79</ns3:cad>
          </ns3:TrackPointExtension>
        </extensions>
      </trkpt>
      <trkpt lat="45.255861617624759674072265625" lon="-71.197619251906871795654296875">
        <ele>776.4000244140625</ele>
        <time>2026-08-22T04:19:47.000Z</time>
        <extensions>
          <ns3:TrackPointExtension>
            <ns3:hr>151</ns3:hr>
            <ns3:cad>79</ns3:cad>
          </ns3:TrackPointExtension>
        </extensions>
      </trkpt>
      <trkpt lat="45.25586170144379138946533203125" lon="-71.1976459063589572906494140625">
        <ele>776</ele>
        <time>2026-08-22T04:19:48.000Z</time>
        <extensions>
          <ns3:TrackPointExtension>
            <ns3:hr>151</ns3:hr>
            <ns3:cad>79</ns3:cad>
          </ns3:TrackPointExtension>
        </extensions>
      </trkpt>
      <trkpt lat="45.2558626234531402587890625" lon="-71.19766728021204471588134765625">
        <ele>775.5999755859375</ele>
        <time>2026-08-22T04:19:49.000Z</time>
        <extensions>
          <ns3:TrackPointExtension>
            <ns3:hr>151</ns3:hr>
            <ns3:cad>78</ns3:cad>
          </ns3:TrackPointExtension>
        </extensions>
      </trkpt>
      <trkpt lat="45.25585667230188846588134765625" lon="-71.1977000534534454345703125">
        <ele>775.4000244140625</ele>
        <time>2026-08-22T04:19:50.000Z</time>
        <extensions>
          <ns3:TrackPointExtension>
            <ns3:hr>150</ns3:hr>
            <ns3:cad>78</ns3:cad>
          </ns3:TrackPointExtension>
        </extensions>
      </trkpt>
      <trkpt lat="45.25586036033928394317626953125" lon="-71.19773014448583126068115234375">
        <ele>774.79998779296875</ele>
        <time>2026-08-22T04:19:51.000Z</time>
        <extensions>
          <ns3:TrackPointExtension>
            <ns3:hr>149</ns3:hr>
            <ns3:cad>78</ns3:cad>
          </ns3:TrackPointExtension>
        </extensions>
      </trkpt>
      <trkpt lat="45.25586421601474285125732421875" lon="-71.19775260798633098602294921875">
        <ele>774.4000244140625</ele>
        <time>2026-08-22T04:19:52.000Z</time>
        <extensions>
          <ns3:TrackPointExtension>
            <ns3:hr>149</ns3:hr>
            <ns3:cad>40</ns3:cad>
          </ns3:TrackPointExtension>
        </extensions>
      </trkpt>
      <trkpt lat="45.25586874224245548248291015625" lon="-71.19777892716228961944580078125">
        <ele>773.79998779296875</ele>
        <time>2026-08-22T04:19:53.000Z</time>
        <extensions>
          <ns3:TrackPointExtension>
            <ns3:hr>148</ns3:hr>
            <ns3:cad>40</ns3:cad>
          </ns3:TrackPointExtension>
        </extensions>
      </trkpt>
      <trkpt lat="45.25587108917534351348876953125" lon="-71.19779937900602817535400390625">
        <ele>773.20001220703125</ele>
        <time>2026-08-22T04:19:54.000Z</time>
        <extensions>
          <ns3:TrackPointExtension>
            <ns3:hr>147</ns3:hr>
            <ns3:cad>40</ns3:cad>
          </ns3:TrackPointExtension>
        </extensions>
      </trkpt>
      <trkpt lat="45.2558745257556438446044921875" lon="-71.19783055968582630157470703125">
        <ele>772.5999755859375</ele>
        <time>2026-08-22T04:19:55.000Z</time>
        <extensions>
          <ns3:TrackPointExtension>
            <ns3:hr>147</ns3:hr>
            <ns3:cad>40</ns3:cad>
          </ns3:TrackPointExtension>
        </extensions>
      </trkpt>
      <trkpt lat="45.2558782137930393218994140625" lon="-71.19785252027213573455810546875">
        <ele>772.20001220703125</ele>
        <time>2026-08-22T04:19:56.000Z</time>
        <extensions>
          <ns3:TrackPointExtension>
            <ns3:hr>146</ns3:hr>
            <ns3:cad>43</ns3:cad>
          </ns3:TrackPointExtension>
        </extensions>
      </trkpt>
      <trkpt lat="45.2558782137930393218994140625" lon="-71.19787632487714290618896484375">
        <ele>771.5999755859375</ele>
        <time>2026-08-22T04:19:57.000Z</time>
        <extensions>
          <ns3:TrackPointExtension>
            <ns3:hr>146</ns3:hr>
            <ns3:cad>43</ns3:cad>
          </ns3:TrackPointExtension>
        </extensions>
      </trkpt>
      <trkpt lat="45.2558812312781810760498046875" lon="-71.19790188968181610107421875">
        <ele>771.20001220703125</ele>
        <time>2026-08-22T04:19:58.000Z</time>
        <extensions>
          <ns3:TrackPointExtension>
            <ns3:hr>146</ns3:hr>
            <ns3:cad>43</ns3:cad>
          </ns3:TrackPointExtension>
        </extensions>
      </trkpt>
      <trkpt lat="45.25588349439203739166259765625" lon="-71.19793198071420192718505859375">
        <ele>770.5999755859375</ele>
        <time>2026-08-22T04:19:59.000Z</time>
        <extensions>
          <ns3:TrackPointExtension>
            <ns3:hr>145</ns3:hr>
            <ns3:cad>43</ns3:cad>
          </ns3:TrackPointExtension>
        </extensions>
      </trkpt>
      <trkpt lat="45.25588030926883220672607421875" lon="-71.19795829989016056060791015625">
        <ele>770.20001220703125</ele>
        <time>2026-08-22T04:20:00.000Z</time>
        <extensions>
          <ns3:TrackPointExtension>
            <ns3:hr>145</ns3:hr>
            <ns3:cad>43</ns3:cad>
          </ns3:TrackPointExtension>
        </extensions>
      </trkpt>
      <trkpt lat="45.2558741904795169830322265625" lon="-71.1979872174561023712158203125">
        <ele>769.5999755859375</ele>
        <time>2026-08-22T04:20:01.000Z</time>
        <extensions>
          <ns3:TrackPointExtension>
            <ns3:hr>145</ns3:hr>
            <ns3:cad>42</ns3:cad>
          </ns3:TrackPointExtension>
        </extensions>
      </trkpt>
      <trkpt lat="45.25586807169020175933837890625" lon="-71.19801227934658527374267578125">
        <ele>769.20001220703125</ele>
        <time>2026-08-22T04:20:02.000Z</time>
        <extensions>
          <ns3:TrackPointExtension>
            <ns3:hr>144</ns3:hr>
            <ns3:cad>42</ns3:cad>
          </ns3:TrackPointExtension>
        </extensions>
      </trkpt>
      <trkpt lat="45.25585918687283992767333984375" lon="-71.1980348266661167144775390625">
        <ele>768.5999755859375</ele>
        <time>2026-08-22T04:20:03.000Z</time>
        <extensions>
          <ns3:TrackPointExtension>
            <ns3:hr>144</ns3:hr>
            <ns3:cad>43</ns3:cad>
          </ns3:TrackPointExtension>
        </extensions>
      </trkpt>
      <trkpt lat="45.25584778748452663421630859375" lon="-71.19806072674691677093505859375">
        <ele>768</ele>
        <time>2026-08-22T04:20:04.000Z</time>
        <extensions>
          <ns3:TrackPointExtension>
            <ns3:hr>144</ns3:hr>
            <ns3:cad>43</ns3:cad>
          </ns3:TrackPointExtension>
        </extensions>
      </trkpt>
      <trkpt lat="45.25583839975297451019287109375" lon="-71.1980871297419071197509765625">
        <ele>767.4000244140625</ele>
        <time>2026-08-22T04:20:05.000Z</time>
        <extensions>
          <ns3:TrackPointExtension>
            <ns3:hr>144</ns3:hr>
            <ns3:cad>43</ns3:cad>
          </ns3:TrackPointExtension>
        </extensions>
      </trkpt>
      <trkpt lat="45.2558272518217563629150390625" lon="-71.1981092579662799835205078125">
        <ele>767</ele>
        <time>2026-08-22T04:20:06.000Z</time>
        <extensions>
          <ns3:TrackPointExtension>
            <ns3:hr>144</ns3:hr>
            <ns3:cad>43</ns3:cad>
          </ns3:TrackPointExtension>
        </extensions>
      </trkpt>
      <trkpt lat="45.25581878609955310821533203125" lon="-71.19813163764774799346923828125">
        <ele>766.4000244140625</ele>
        <time>2026-08-22T04:20:07.000Z</time>
        <extensions>
          <ns3:TrackPointExtension>
            <ns3:hr>144</ns3:hr>
            <ns3:cad>43</ns3:cad>
          </ns3:TrackPointExtension>
        </extensions>
      </trkpt>
      <trkpt lat="45.25580990128219127655029296875" lon="-71.19815711863338947296142578125">
        <ele>766</ele>
        <time>2026-08-22T04:20:08.000Z</time>
        <extensions>
          <ns3:TrackPointExtension>
            <ns3:hr>143</ns3:hr>
            <ns3:cad>42</ns3:cad>
          </ns3:TrackPointExtension>
        </extensions>
      </trkpt>
      <trkpt lat="45.25579816661775112152099609375" lon="-71.19817958213388919830322265625">
        <ele>765.5999755859375</ele>
        <time>2026-08-22T04:20:09.000Z</time>
        <extensions>
          <ns3:TrackPointExtension>
            <ns3:hr>143</ns3:hr>
            <ns3:cad>42</ns3:cad>
          </ns3:TrackPointExtension>
        </extensions>
      </trkpt>
      <trkpt lat="45.255783498287200927734375" lon="-71.19820573367178440093994140625">
        <ele>765.20001220703125</ele>
        <time>2026-08-22T04:20:10.000Z</time>
        <extensions>
          <ns3:TrackPointExtension>
            <ns3:hr>143</ns3:hr>
            <ns3:cad>41</ns3:cad>
          </ns3:TrackPointExtension>
        </extensions>
      </trkpt>
      <trkpt lat="45.25577520020306110382080078125" lon="-71.19822970591485500335693359375">
        <ele>765</ele>
        <time>2026-08-22T04:20:11.000Z</time>
        <extensions>
          <ns3:TrackPointExtension>
            <ns3:hr>144</ns3:hr>
            <ns3:cad>41</ns3:cad>
          </ns3:TrackPointExtension>
        </extensions>
      </trkpt>
      <trkpt lat="45.25576245971024036407470703125" lon="-71.1982547678053379058837890625">
        <ele>764.5999755859375</ele>
        <time>2026-08-22T04:20:12.000Z</time>
        <extensions>
          <ns3:TrackPointExtension>
            <ns3:hr>144</ns3:hr>
            <ns3:cad>41</ns3:cad>
          </ns3:TrackPointExtension>
        </extensions>
      </trkpt>
      <trkpt lat="45.255751311779022216796875" lon="-71.198286116123199462890625">
        <ele>764</ele>
        <time>2026-08-22T04:20:13.000Z</time>
        <extensions>
          <ns3:TrackPointExtension>
            <ns3:hr>144</ns3:hr>
            <ns3:cad>41</ns3:cad>
          </ns3:TrackPointExtension>
        </extensions>
      </trkpt>
      <trkpt lat="45.25574393570423126220703125" lon="-71.19831905700266361236572265625">
        <ele>763.5999755859375</ele>
        <time>2026-08-22T04:20:14.000Z</time>
        <extensions>
          <ns3:TrackPointExtension>
            <ns3:hr>144</ns3:hr>
            <ns3:cad>41</ns3:cad>
          </ns3:TrackPointExtension>
        </extensions>
      </trkpt>
      <trkpt lat="45.255738236010074615478515625" lon="-71.1983429454267024993896484375">
        <ele>763.20001220703125</ele>
        <time>2026-08-22T04:20:15.000Z</time>
        <extensions>
          <ns3:TrackPointExtension>
            <ns3:hr>143</ns3:hr>
            <ns3:cad>41</ns3:cad>
          </ns3:TrackPointExtension>
        </extensions>
      </trkpt>
      <trkpt lat="45.25573681108653545379638671875" lon="-71.19836884550750255584716796875">
        <ele>762.79998779296875</ele>
        <time>2026-08-22T04:20:16.000Z</time>
        <extensions>
          <ns3:TrackPointExtension>
            <ns3:hr>142</ns3:hr>
            <ns3:cad>41</ns3:cad>
          </ns3:TrackPointExtension>
        </extensions>
      </trkpt>
      <trkpt lat="45.25573295541107654571533203125" lon="-71.198395080864429473876953125">
        <ele>762.20001220703125</ele>
        <time>2026-08-22T04:20:17.000Z</time>
        <extensions>
          <ns3:TrackPointExtension>
            <ns3:hr>141</ns3:hr>
            <ns3:cad>41</ns3:cad>
          </ns3:TrackPointExtension>
        </extensions>
      </trkpt>
      <trkpt lat="45.25572692044079303741455078125" lon="-71.19841863401234149932861328125">
        <ele>762</ele>
        <time>2026-08-22T04:20:18.000Z</time>
        <extensions>
          <ns3:TrackPointExtension>
            <ns3:hr>141</ns3:hr>
            <ns3:cad>42</ns3:cad>
          </ns3:TrackPointExtension>
        </extensions>
      </trkpt>
      <trkpt lat="45.25572457350790500640869140625" lon="-71.1984435282647609710693359375">
        <ele>761.5999755859375</ele>
        <time>2026-08-22T04:20:19.000Z</time>
        <extensions>
          <ns3:TrackPointExtension>
            <ns3:hr>141</ns3:hr>
            <ns3:cad>42</ns3:cad>
          </ns3:TrackPointExtension>
        </extensions>
      </trkpt>
      <trkpt lat="45.25571736507117748260498046875" lon="-71.19847211055457592010498046875">
        <ele>761.20001220703125</ele>
        <time>2026-08-22T04:20:20.000Z</time>
        <extensions>
          <ns3:TrackPointExtension>
            <ns3:hr>140</ns3:hr>
            <ns3:cad>40</ns3:cad>
          </ns3:TrackPointExtension>
        </extensions>
      </trkpt>
      <trkpt lat="45.2557124197483062744140625" lon="-71.1984965018928050994873046875">
        <ele>760.5999755859375</ele>
        <time>2026-08-22T04:20:21.000Z</time>
        <extensions>
          <ns3:TrackPointExtension>
            <ns3:hr>140</ns3:hr>
            <ns3:cad>40</ns3:cad>
          </ns3:TrackPointExtension>
        </extensions>
      </trkpt>
      <trkpt lat="45.255709402263164520263671875" lon="-71.198522485792636871337890625">
        <ele>760</ele>
        <time>2026-08-22T04:20:22.000Z</time>
        <extensions>
          <ns3:TrackPointExtension>
            <ns3:hr>138</ns3:hr>
            <ns3:cad>40</ns3:cad>
          </ns3:TrackPointExtension>
        </extensions>
      </trkpt>
      <trkpt lat="45.25570730678737163543701171875" lon="-71.19854872114956378936767578125">
        <ele>759.4000244140625</ele>
        <time>2026-08-22T04:20:23.000Z</time>
        <extensions>
          <ns3:TrackPointExtension>
            <ns3:hr>137</ns3:hr>
            <ns3:cad>41</ns3:cad>
          </ns3:TrackPointExtension>
        </extensions>
      </trkpt>
      <trkpt lat="45.25570630095899105072021484375" lon="-71.198573447763919830322265625">
        <ele>759</ele>
        <time>2026-08-22T04:20:24.000Z</time>
        <extensions>
          <ns3:TrackPointExtension>
            <ns3:hr>135</ns3:hr>
            <ns3:cad>41</ns3:cad>
          </ns3:TrackPointExtension>
        </extensions>
      </trkpt>
      <trkpt lat="45.2557031996548175811767578125" lon="-71.19860018603503704071044921875">
        <ele>758.4000244140625</ele>
        <time>2026-08-22T04:20:25.000Z</time>
        <extensions>
          <ns3:TrackPointExtension>
            <ns3:hr>134</ns3:hr>
            <ns3:cad>41</ns3:cad>
          </ns3:TrackPointExtension>
        </extensions>
      </trkpt>
      <trkpt lat="45.25570194236934185028076171875" lon="-71.19862449355423450469970703125">
        <ele>758</ele>
        <time>2026-08-22T04:20:26.000Z</time>
        <extensions>
          <ns3:TrackPointExtension>
            <ns3:hr>133</ns3:hr>
            <ns3:cad>41</ns3:cad>
          </ns3:TrackPointExtension>
        </extensions>
      </trkpt>
      <trkpt lat="45.25570328347384929656982421875" lon="-71.19864963926374912261962890625">
        <ele>757.5999755859375</ele>
        <time>2026-08-22T04:20:27.000Z</time>
        <extensions>
          <ns3:TrackPointExtension>
            <ns3:hr>135</ns3:hr>
            <ns3:cad>41</ns3:cad>
          </ns3:TrackPointExtension>
        </extensions>
      </trkpt>
      <trkpt lat="45.255703367292881011962890625" lon="-71.19866942055523395538330078125">
        <ele>757.20001220703125</ele>
        <time>2026-08-22T04:20:28.000Z</time>
        <extensions>
          <ns3:TrackPointExtension>
            <ns3:hr>136</ns3:hr>
            <ns3:cad>41</ns3:cad>
          </ns3:TrackPointExtension>
        </extensions>
      </trkpt>
      <trkpt lat="45.25570445694029331207275390625" lon="-71.19868802838027477264404296875">
        <ele>756.79998779296875</ele>
        <time>2026-08-22T04:20:29.000Z</time>
        <extensions>
          <ns3:TrackPointExtension>
            <ns3:hr>138</ns3:hr>
            <ns3:cad>41</ns3:cad>
          </ns3:TrackPointExtension>
        </extensions>
      </trkpt>
      <trkpt lat="45.2557058818638324737548828125" lon="-71.19870311580598354339599609375">
        <ele>756.4000244140625</ele>
        <time>2026-08-22T04:20:30.000Z</time>
        <extensions>
          <ns3:TrackPointExtension>
            <ns3:hr>139</ns3:hr>
            <ns3:cad>41</ns3:cad>
          </ns3:TrackPointExtension>
        </extensions>
      </trkpt>
      <trkpt lat="45.2557085640728473663330078125" lon="-71.19871728122234344482421875">
        <ele>756</ele>
        <time>2026-08-22T04:20:31.000Z</time>
        <extensions>
          <ns3:TrackPointExtension>
            <ns3:hr>139</ns3:hr>
            <ns3:cad>41</ns3:cad>
          </ns3:TrackPointExtension>
        </extensions>
      </trkpt>
      <trkpt lat="45.25571401230990886688232421875" lon="-71.19873044081032276153564453125">
        <ele>755.79998779296875</ele>
        <time>2026-08-22T04:20:32.000Z</time>
        <extensions>
          <ns3:TrackPointExtension>
            <ns3:hr>140</ns3:hr>
            <ns3:cad>41</ns3:cad>
          </ns3:TrackPointExtension>
        </extensions>
      </trkpt>
      <trkpt lat="45.25571384467184543609619140625" lon="-71.19874670170247554779052734375">
        <ele>755.5999755859375</ele>
        <time>2026-08-22T04:20:33.000Z</time>
        <extensions>
          <ns3:TrackPointExtension>
            <ns3:hr>140</ns3:hr>
            <ns3:cad>41</ns3:cad>
          </ns3:TrackPointExtension>
        </extensions>
      </trkpt>
      <trkpt lat="45.255718789994716644287109375" lon="-71.198758520185947418212890625">
        <ele>755.4000244140625</ele>
        <time>2026-08-22T04:20:34.000Z</time>
        <extensions>
          <ns3:TrackPointExtension>
            <ns3:hr>139</ns3:hr>
            <ns3:cad>41</ns3:cad>
          </ns3:TrackPointExtension>
        </extensions>
      </trkpt>
      <trkpt lat="45.255725495517253875732421875" lon="-71.1987741105258464813232421875">
        <ele>755.20001220703125</ele>
        <time>2026-08-22T04:20:35.000Z</time>
        <extensions>
          <ns3:TrackPointExtension>
            <ns3:hr>139</ns3:hr>
            <ns3:cad>41</ns3:cad>
          </ns3:TrackPointExtension>
        </extensions>
      </trkpt>
      <trkpt lat="45.25573320686817169189453125" lon="-71.19878643192350864410400390625">
        <ele>755</ele>
        <time>2026-08-22T04:20:36.000Z</time>
        <extensions>
          <ns3:TrackPointExtension>
            <ns3:hr>139</ns3:hr>
            <ns3:cad>41</ns3:cad>
          </ns3:TrackPointExtension>
        </extensions>
      </trkpt>
      <trkpt lat="45.255740582942962646484375" lon="-71.19880956597626209259033203125">
        <ele>754.5999755859375</ele>
        <time>2026-08-22T04:20:37.000Z</time>
        <extensions>
          <ns3:TrackPointExtension>
            <ns3:hr>139</ns3:hr>
            <ns3:cad>41</ns3:cad>
          </ns3:TrackPointExtension>
        </extensions>
      </trkpt>
      <trkpt lat="45.2557454444468021392822265625" lon="-71.1988337896764278411865234375">
        <ele>754.20001220703125</ele>
        <time>2026-08-22T04:20:38.000Z</time>
        <extensions>
          <ns3:TrackPointExtension>
            <ns3:hr>138</ns3:hr>
            <ns3:cad>41</ns3:cad>
          </ns3:TrackPointExtension>
        </extensions>
      </trkpt>
      <trkpt lat="45.2557534910738468170166015625" lon="-71.19885432533919811248779296875">
        <ele>753.5999755859375</ele>
        <time>2026-08-22T04:20:39.000Z</time>
        <extensions>
          <ns3:TrackPointExtension>
            <ns3:hr>137</ns3:hr>
            <ns3:cad>80</ns3:cad>
          </ns3:TrackPointExtension>
        </extensions>
      </trkpt>
      <trkpt lat="45.25576430372893810272216796875" lon="-71.19888148270547389984130859375">
        <ele>753.20001220703125</ele>
        <time>2026-08-22T04:20:40.000Z</time>
        <extensions>
          <ns3:TrackPointExtension>
            <ns3:hr>136</ns3:hr>
            <ns3:cad>80</ns3:cad>
          </ns3:TrackPointExtension>
        </extensions>
      </trkpt>
      <trkpt lat="45.25577369146049022674560546875" lon="-71.19891014881432056427001953125">
        <ele>752.5999755859375</ele>
        <time>2026-08-22T04:20:41.000Z</time>
        <extensions>
          <ns3:TrackPointExtension>
            <ns3:hr>135</ns3:hr>
            <ns3:cad>83</ns3:cad>
          </ns3:TrackPointExtension>
        </extensions>
      </trkpt>
      <trkpt lat="45.2557809837162494659423828125" lon="-71.19893856346607208251953125">
        <ele>752</ele>
        <time>2026-08-22T04:20:42.000Z</time>
        <extensions>
          <ns3:TrackPointExtension>
            <ns3:hr>136</ns3:hr>
            <ns3:cad>83</ns3:cad>
          </ns3:TrackPointExtension>
        </extensions>
      </trkpt>
      <trkpt lat="45.255783833563327789306640625" lon="-71.198967732489109039306640625">
        <ele>751.5999755859375</ele>
        <time>2026-08-22T04:20:43.000Z</time>
        <extensions>
          <ns3:TrackPointExtension>
            <ns3:hr>137</ns3:hr>
            <ns3:cad>83</ns3:cad>
          </ns3:TrackPointExtension>
        </extensions>
      </trkpt>
      <trkpt lat="45.25578509084880352020263671875" lon="-71.1990017630159854888916015625">
        <ele>751.20001220703125</ele>
        <time>2026-08-22T04:20:44.000Z</time>
        <extensions>
          <ns3:TrackPointExtension>
            <ns3:hr>136</ns3:hr>
            <ns3:cad>83</ns3:cad>
          </ns3:TrackPointExtension>
        </extensions>
      </trkpt>
      <trkpt lat="45.25578861124813556671142578125" lon="-71.19903503917157649993896484375">
        <ele>750.79998779296875</ele>
        <time>2026-08-22T04:20:45.000Z</time>
        <extensions>
          <ns3:TrackPointExtension>
            <ns3:hr>136</ns3:hr>
            <ns3:cad>83</ns3:cad>
          </ns3:TrackPointExtension>
        </extensions>
      </trkpt>
      <trkpt lat="45.25578978471457958221435546875" lon="-71.19906554929912090301513671875">
        <ele>750.20001220703125</ele>
        <time>2026-08-22T04:20:46.000Z</time>
        <extensions>
          <ns3:TrackPointExtension>
            <ns3:hr>136</ns3:hr>
            <ns3:cad>83</ns3:cad>
          </ns3:TrackPointExtension>
        </extensions>
      </trkpt>
      <trkpt lat="45.25579028762876987457275390625" lon="-71.19909279048442840576171875">
        <ele>749.5999755859375</ele>
        <time>2026-08-22T04:20:47.000Z</time>
        <extensions>
          <ns3:TrackPointExtension>
            <ns3:hr>136</ns3:hr>
            <ns3:cad>83</ns3:cad>
          </ns3:TrackPointExtension>
        </extensions>
      </trkpt>
      <trkpt lat="45.2557880245149135589599609375" lon="-71.19912556372582912445068359375">
        <ele>749.20001220703125</ele>
        <time>2026-08-22T04:20:48.000Z</time>
        <extensions>
          <ns3:TrackPointExtension>
            <ns3:hr>135</ns3:hr>
            <ns3:cad>42</ns3:cad>
          </ns3:TrackPointExtension>
        </extensions>
      </trkpt>
      <trkpt lat="45.25577872060239315032958984375" lon="-71.19915456511080265045166015625">
        <ele>748.5999755859375</ele>
        <time>2026-08-22T04:20:49.000Z</time>
        <extensions>
          <ns3:TrackPointExtension>
            <ns3:hr>135</ns3:hr>
            <ns3:cad>42</ns3:cad>
          </ns3:TrackPointExtension>
        </extensions>
      </trkpt>
      <trkpt lat="45.25577201507985591888427734375" lon="-71.199181973934173583984375">
        <ele>748</ele>
        <time>2026-08-22T04:20:50.000Z</time>
        <extensions>
          <ns3:TrackPointExtension>
            <ns3:hr>134</ns3:hr>
            <ns3:cad>42</ns3:cad>
          </ns3:TrackPointExtension>
        </extensions>
      </trkpt>
      <trkpt lat="45.2557658962905406951904296875" lon="-71.199216507375240325927734375">
        <ele>747.5999755859375</ele>
        <time>2026-08-22T04:20:51.000Z</time>
        <extensions>
          <ns3:TrackPointExtension>
            <ns3:hr>132</ns3:hr>
            <ns3:cad>43</ns3:cad>
          </ns3:TrackPointExtension>
        </extensions>
      </trkpt>
      <trkpt lat="45.25575877167284488677978515625" lon="-71.19925011880695819854736328125">
        <ele>747</ele>
        <time>2026-08-22T04:20:52.000Z</time>
        <extensions>
          <ns3:TrackPointExtension>
            <ns3:hr>130</ns3:hr>
            <ns3:cad>43</ns3:cad>
          </ns3:TrackPointExtension>
        </extensions>
      </trkpt>
      <trkpt lat="45.255753658711910247802734375" lon="-71.19928398169577121734619140625">
        <ele>746.5999755859375</ele>
        <time>2026-08-22T04:20:53.000Z</time>
        <extensions>
          <ns3:TrackPointExtension>
            <ns3:hr>130</ns3:hr>
            <ns3:cad>43</ns3:cad>
          </ns3:TrackPointExtension>
        </extensions>
      </trkpt>
      <trkpt lat="45.2557526528835296630859375" lon="-71.19931834749877452850341796875">
        <ele>746</ele>
        <time>2026-08-22T04:20:54.000Z</time>
        <extensions>
          <ns3:TrackPointExtension>
            <ns3:hr>130</ns3:hr>
            <ns3:cad>43</ns3:cad>
          </ns3:TrackPointExtension>
        </extensions>
      </trkpt>
      <trkpt lat="45.255744941532611846923828125" lon="-71.19934516958892345428466796875">
        <ele>745.4000244140625</ele>
        <time>2026-08-22T04:20:55.000Z</time>
        <extensions>
          <ns3:TrackPointExtension>
            <ns3:hr>130</ns3:hr>
            <ns3:cad>43</ns3:cad>
          </ns3:TrackPointExtension>
        </extensions>
      </trkpt>
      <trkpt lat="45.25573647581040859222412109375" lon="-71.1993816308677196502685546875">
        <ele>745</ele>
        <time>2026-08-22T04:20:56.000Z</time>
        <extensions>
          <ns3:TrackPointExtension>
            <ns3:hr>130</ns3:hr>
            <ns3:cad>43</ns3:cad>
          </ns3:TrackPointExtension>
        </extensions>
      </trkpt>
      <trkpt lat="45.2557316981256008148193359375" lon="-71.19940987788140773773193359375">
        <ele>744.5999755859375</ele>
        <time>2026-08-22T04:20:57.000Z</time>
        <extensions>
          <ns3:TrackPointExtension>
            <ns3:hr>130</ns3:hr>
            <ns3:cad>43</ns3:cad>
          </ns3:TrackPointExtension>
        </extensions>
      </trkpt>
      <trkpt lat="45.255729854106903076171875" lon="-71.199441812932491302490234375">
        <ele>744</ele>
        <time>2026-08-22T04:20:58.000Z</time>
        <extensions>
          <ns3:TrackPointExtension>
            <ns3:hr>133</ns3:hr>
            <ns3:cad>43</ns3:cad>
          </ns3:TrackPointExtension>
        </extensions>
      </trkpt>
      <trkpt lat="45.25572624988853931427001953125" lon="-71.199478693306446075439453125">
        <ele>743.5999755859375</ele>
        <time>2026-08-22T04:20:59.000Z</time>
        <extensions>
          <ns3:TrackPointExtension>
            <ns3:hr>135</ns3:hr>
            <ns3:cad>43</ns3:cad>
          </ns3:TrackPointExtension>
        </extensions>
      </trkpt>
      <trkpt lat="45.25572390295565128326416015625" lon="-71.19950543157756328582763671875">
        <ele>743</ele>
        <time>2026-08-22T04:21:00.000Z</time>
        <extensions>
          <ns3:TrackPointExtension>
            <ns3:hr>136</ns3:hr>
            <ns3:cad>43</ns3:cad>
          </ns3:TrackPointExtension>
        </extensions>
      </trkpt>
      <trkpt lat="45.2557253278791904449462890625" lon="-71.19953359477221965789794921875">
        <ele>742.5999755859375</ele>
        <time>2026-08-22T04:21:01.000Z</time>
        <extensions>
          <ns3:TrackPointExtension>
            <ns3:hr>137</ns3:hr>
            <ns3:cad>44</ns3:cad>
          </ns3:TrackPointExtension>
        </extensions>
      </trkpt>
      <trkpt lat="45.2557249926030635833740234375" lon="-71.1995693854987621307373046875">
        <ele>742</ele>
        <time>2026-08-22T04:21:02.000Z</time>
        <extensions>
          <ns3:TrackPointExtension>
            <ns3:hr>137</ns3:hr>
            <ns3:cad>44</ns3:cad>
          </ns3:TrackPointExtension>
        </extensions>
      </trkpt>
      <trkpt lat="45.2557249926030635833740234375" lon="-71.19960509240627288818359375">
        <ele>741.5999755859375</ele>
        <time>2026-08-22T04:21:03.000Z</time>
        <extensions>
          <ns3:TrackPointExtension>
            <ns3:hr>137</ns3:hr>
            <ns3:cad>44</ns3:cad>
          </ns3:TrackPointExtension>
        </extensions>
      </trkpt>
      <trkpt lat="45.2557270042598247528076171875" lon="-71.19963233359158039093017578125">
        <ele>741</ele>
        <time>2026-08-22T04:21:04.000Z</time>
        <extensions>
          <ns3:TrackPointExtension>
            <ns3:hr>137</ns3:hr>
            <ns3:cad>44</ns3:cad>
          </ns3:TrackPointExtension>
        </extensions>
      </trkpt>
      <trkpt lat="45.25573454797267913818359375" lon="-71.1996555514633655548095703125">
        <ele>740.4000244140625</ele>
        <time>2026-08-22T04:21:05.000Z</time>
        <extensions>
          <ns3:TrackPointExtension>
            <ns3:hr>137</ns3:hr>
            <ns3:cad>42</ns3:cad>
          </ns3:TrackPointExtension>
        </extensions>
      </trkpt>
      <trkpt lat="45.25574502535164356231689453125" lon="-71.19969067163765430450439453125">
        <ele>740</ele>
        <time>2026-08-22T04:21:06.000Z</time>
        <extensions>
          <ns3:TrackPointExtension>
            <ns3:hr>137</ns3:hr>
            <ns3:cad>42</ns3:cad>
          </ns3:TrackPointExtension>
        </extensions>
      </trkpt>
      <trkpt lat="45.25575466454029083251953125" lon="-71.19971665553748607635498046875">
        <ele>739.20001220703125</ele>
        <time>2026-08-22T04:21:07.000Z</time>
        <extensions>
          <ns3:TrackPointExtension>
            <ns3:hr>137</ns3:hr>
            <ns3:cad>43</ns3:cad>
          </ns3:TrackPointExtension>
        </extensions>
      </trkpt>
      <trkpt lat="45.25576581247150897979736328125" lon="-71.19974649511277675628662109375">
        <ele>738.79998779296875</ele>
        <time>2026-08-22T04:21:08.000Z</time>
        <extensions>
          <ns3:TrackPointExtension>
            <ns3:hr>138</ns3:hr>
            <ns3:cad>43</ns3:cad>
          </ns3:TrackPointExtension>
        </extensions>
      </trkpt>
      <trkpt lat="45.25578081607818603515625" lon="-71.19977767579257488250732421875">
        <ele>738.20001220703125</ele>
        <time>2026-08-22T04:21:09.000Z</time>
        <extensions>
          <ns3:TrackPointExtension>
            <ns3:hr>138</ns3:hr>
            <ns3:cad>43</ns3:cad>
          </ns3:TrackPointExtension>
        </extensions>
      </trkpt>
      <trkpt lat="45.255796574056148529052734375" lon="-71.19980382733047008514404296875">
        <ele>737.5999755859375</ele>
        <time>2026-08-22T04:21:10.000Z</time>
        <extensions>
          <ns3:TrackPointExtension>
            <ns3:hr>138</ns3:hr>
            <ns3:cad>43</ns3:cad>
          </ns3:TrackPointExtension>
        </extensions>
      </trkpt>
      <trkpt lat="45.2558114938437938690185546875" lon="-71.19983014650642871856689453125">
        <ele>737</ele>
        <time>2026-08-22T04:21:11.000Z</time>
        <extensions>
          <ns3:TrackPointExtension>
            <ns3:hr>137</ns3:hr>
            <ns3:cad>43</ns3:cad>
          </ns3:TrackPointExtension>
        </extensions>
      </trkpt>
      <trkpt lat="45.2558225579559803009033203125" lon="-71.19985713623464107513427734375">
        <ele>736.5999755859375</ele>
        <time>2026-08-22T04:21:12.000Z</time>
        <extensions>
          <ns3:TrackPointExtension>
            <ns3:hr>138</ns3:hr>
            <ns3:cad>43</ns3:cad>
          </ns3:TrackPointExtension>
        </extensions>
      </trkpt>
      <trkpt lat="45.25584158487617969512939453125" lon="-71.19988010264933109283447265625">
        <ele>736</ele>
        <time>2026-08-22T04:21:13.000Z</time>
        <extensions>
          <ns3:TrackPointExtension>
            <ns3:hr>138</ns3:hr>
            <ns3:cad>43</ns3:cad>
          </ns3:TrackPointExtension>
        </extensions>
      </trkpt>
      <trkpt lat="45.2558626234531402587890625" lon="-71.19989611208438873291015625">
        <ele>735.5999755859375</ele>
        <time>2026-08-22T04:21:14.000Z</time>
        <extensions>
          <ns3:TrackPointExtension>
            <ns3:hr>138</ns3:hr>
            <ns3:cad>43</ns3:cad>
          </ns3:TrackPointExtension>
        </extensions>
      </trkpt>
      <trkpt lat="45.255879051983356475830078125" lon="-71.199911199510097503662109375">
        <ele>735</ele>
        <time>2026-08-22T04:21:15.000Z</time>
        <extensions>
          <ns3:TrackPointExtension>
            <ns3:hr>139</ns3:hr>
            <ns3:cad>43</ns3:cad>
          </ns3:TrackPointExtension>
        </extensions>
      </trkpt>
      <trkpt lat="45.25589539669454097747802734375" lon="-71.19992704130709171295166015625">
        <ele>734.5999755859375</ele>
        <time>2026-08-22T04:21:16.000Z</time>
        <extensions>
          <ns3:TrackPointExtension>
            <ns3:hr>139</ns3:hr>
            <ns3:cad>43</ns3:cad>
          </ns3:TrackPointExtension>
        </extensions>
      </trkpt>
      <trkpt lat="45.25590419769287109375" lon="-71.199949085712432861328125">
        <ele>734.4000244140625</ele>
        <time>2026-08-22T04:21:17.000Z</time>
        <extensions>
          <ns3:TrackPointExtension>
            <ns3:hr>139</ns3:hr>
            <ns3:cad>43</ns3:cad>
          </ns3:TrackPointExtension>
        </extensions>
      </trkpt>
      <trkpt lat="45.2559135854244232177734375" lon="-71.19997297413647174835205078125">
        <ele>734</ele>
        <time>2026-08-22T04:21:18.000Z</time>
        <extensions>
          <ns3:TrackPointExtension>
            <ns3:hr>138</ns3:hr>
            <ns3:cad>43</ns3:cad>
          </ns3:TrackPointExtension>
        </extensions>
      </trkpt>
      <trkpt lat="45.2559204585850238800048828125" lon="-71.19999401271343231201171875">
        <ele>733.79998779296875</ele>
        <time>2026-08-22T04:21:19.000Z</time>
        <extensions>
          <ns3:TrackPointExtension>
            <ns3:hr>140</ns3:hr>
            <ns3:cad>43</ns3:cad>
          </ns3:TrackPointExtension>
        </extensions>
      </trkpt>
      <trkpt lat="45.2559248171746730804443359375" lon="-71.200013123452663421630859375">
        <ele>733.4000244140625</ele>
        <time>2026-08-22T04:21:20.000Z</time>
        <extensions>
          <ns3:TrackPointExtension>
            <ns3:hr>140</ns3:hr>
            <ns3:cad>43</ns3:cad>
          </ns3:TrackPointExtension>
        </extensions>
      </trkpt>
      <trkpt lat="45.25592406280338764190673828125" lon="-71.20002946816384792327880859375">
        <ele>733.20001220703125</ele>
        <time>2026-08-22T04:21:21.000Z</time>
        <extensions>
          <ns3:TrackPointExtension>
            <ns3:hr>140</ns3:hr>
            <ns3:cad>43</ns3:cad>
          </ns3:TrackPointExtension>
        </extensions>
      </trkpt>
      <trkpt lat="45.25592423044145107269287109375" lon="-71.200045309960842132568359375">
        <ele>733</ele>
        <time>2026-08-22T04:21:22.000Z</time>
        <extensions>
          <ns3:TrackPointExtension>
            <ns3:hr>140</ns3:hr>
            <ns3:cad>43</ns3:cad>
          </ns3:TrackPointExtension>
        </extensions>
      </trkpt>
      <trkpt lat="45.2559214644134044647216796875" lon="-71.2000622414052486419677734375">
        <ele>732.79998779296875</ele>
        <time>2026-08-22T04:21:23.000Z</time>
        <extensions>
          <ns3:TrackPointExtension>
            <ns3:hr>139</ns3:hr>
            <ns3:cad>43</ns3:cad>
          </ns3:TrackPointExtension>
        </extensions>
      </trkpt>
      <trkpt lat="45.25591501034796237945556640625" lon="-71.20007841847836971282958984375">
        <ele>732.5999755859375</ele>
        <time>2026-08-22T04:21:24.000Z</time>
        <extensions>
          <ns3:TrackPointExtension>
            <ns3:hr>139</ns3:hr>
            <ns3:cad>43</ns3:cad>
          </ns3:TrackPointExtension>
        </extensions>
      </trkpt>
      <trkpt lat="45.25591165758669376373291015625" lon="-71.20009124279022216796875">
        <ele>732.5999755859375</ele>
        <time>2026-08-22T04:21:25.000Z</time>
        <extensions>
          <ns3:TrackPointExtension>
            <ns3:hr>138</ns3:hr>
            <ns3:cad>43</ns3:cad>
          </ns3:TrackPointExtension>
        </extensions>
      </trkpt>
      <trkpt lat="45.25590746663510799407958984375" lon="-71.20010532438755035400390625">
        <ele>732.79998779296875</ele>
        <time>2026-08-22T04:21:26.000Z</time>
        <extensions>
          <ns3:TrackPointExtension>
            <ns3:hr>136</ns3:hr>
            <ns3:cad>43</ns3:cad>
          </ns3:TrackPointExtension>
        </extensions>
      </trkpt>
      <trkpt lat="45.2559073828160762786865234375" lon="-71.2001272849738597869873046875">
        <ele>732.79998779296875</ele>
        <time>2026-08-22T04:21:27.000Z</time>
        <extensions>
          <ns3:TrackPointExtension>
            <ns3:hr>135</ns3:hr>
            <ns3:cad>55</ns3:cad>
          </ns3:TrackPointExtension>
        </extensions>
      </trkpt>
      <trkpt lat="45.2559082210063934326171875" lon="-71.20014681480824947357177734375">
        <ele>732.79998779296875</ele>
        <time>2026-08-22T04:21:28.000Z</time>
        <extensions>
          <ns3:TrackPointExtension>
            <ns3:hr>134</ns3:hr>
            <ns3:cad>55</ns3:cad>
          </ns3:TrackPointExtension>
        </extensions>
      </trkpt>
      <trkpt lat="45.2559127472341060638427734375" lon="-71.20016525499522686004638671875">
        <ele>732.79998779296875</ele>
        <time>2026-08-22T04:21:29.000Z</time>
        <extensions>
          <ns3:TrackPointExtension>
            <ns3:hr>134</ns3:hr>
            <ns3:cad>51</ns3:cad>
          </ns3:TrackPointExtension>
        </extensions>
      </trkpt>
      <trkpt lat="45.2559187822043895721435546875" lon="-71.20018604211509227752685546875">
        <ele>733</ele>
        <time>2026-08-22T04:21:30.000Z</time>
        <extensions>
          <ns3:TrackPointExtension>
            <ns3:hr>133</ns3:hr>
            <ns3:cad>51</ns3:cad>
          </ns3:TrackPointExtension>
        </extensions>
      </trkpt>
      <trkpt lat="45.25592875666916370391845703125" lon="-71.200203560292720794677734375">
        <ele>733</ele>
        <time>2026-08-22T04:21:31.000Z</time>
        <extensions>
          <ns3:TrackPointExtension>
            <ns3:hr>132</ns3:hr>
            <ns3:cad>50</ns3:cad>
          </ns3:TrackPointExtension>
        </extensions>
      </trkpt>
      <trkpt lat="45.25593713857233524322509765625" lon="-71.20021923445165157318115234375">
        <ele>733</ele>
        <time>2026-08-22T04:21:32.000Z</time>
        <extensions>
          <ns3:TrackPointExtension>
            <ns3:hr>131</ns3:hr>
            <ns3:cad>51</ns3:cad>
          </ns3:TrackPointExtension>
        </extensions>
      </trkpt>
      <trkpt lat="45.25594241917133331298828125" lon="-71.20023298077285289764404296875">
        <ele>733.20001220703125</ele>
        <time>2026-08-22T04:21:33.000Z</time>
        <extensions>
          <ns3:TrackPointExtension>
            <ns3:hr>131</ns3:hr>
            <ns3:cad>51</ns3:cad>
          </ns3:TrackPointExtension>
        </extensions>
      </trkpt>
      <trkpt lat="45.25594803504645824432373046875" lon="-71.2002463079988956451416015625">
        <ele>733.20001220703125</ele>
        <time>2026-08-22T04:21:34.000Z</time>
        <extensions>
          <ns3:TrackPointExtension>
            <ns3:hr>130</ns3:hr>
            <ns3:cad>53</ns3:cad>
          </ns3:TrackPointExtension>
        </extensions>
      </trkpt>
      <trkpt lat="45.25595172308385372161865234375" lon="-71.2002510018646717071533203125">
        <ele>733.20001220703125</ele>
        <time>2026-08-22T04:21:35.000Z</time>
        <extensions>
          <ns3:TrackPointExtension>
            <ns3:hr>130</ns3:hr>
            <ns3:cad>53</ns3:cad>
          </ns3:TrackPointExtension>
        </extensions>
      </trkpt>
      <trkpt lat="45.25595247745513916015625" lon="-71.2002536840736865997314453125">
        <ele>733</ele>
        <time>2026-08-22T04:21:36.000Z</time>
        <extensions>
          <ns3:TrackPointExtension>
            <ns3:hr>130</ns3:hr>
            <ns3:cad>55</ns3:cad>
          </ns3:TrackPointExtension>
        </extensions>
      </trkpt>
      <trkpt lat="45.25595474056899547576904296875" lon="-71.2002610601484775543212890625">
        <ele>733</ele>
        <time>2026-08-22T04:21:37.000Z</time>
        <extensions>
          <ns3:TrackPointExtension>
            <ns3:hr>130</ns3:hr>
            <ns3:cad>55</ns3:cad>
          </ns3:TrackPointExtension>
        </extensions>
      </trkpt>
      <trkpt lat="45.2559616975486278533935546875" lon="-71.20026969350874423980712890625">
        <ele>733</ele>
        <time>2026-08-22T04:21:38.000Z</time>
        <extensions>
          <ns3:TrackPointExtension>
            <ns3:hr>130</ns3:hr>
            <ns3:cad>55</ns3:cad>
          </ns3:TrackPointExtension>
        </extensions>
      </trkpt>
      <trkpt lat="45.25596915744245052337646484375" lon="-71.2002791650593280792236328125">
        <ele>732.79998779296875</ele>
        <time>2026-08-22T04:21:39.000Z</time>
        <extensions>
          <ns3:TrackPointExtension>
            <ns3:hr>131</ns3:hr>
            <ns3:cad>53</ns3:cad>
          </ns3:TrackPointExtension>
        </extensions>
      </trkpt>
      <trkpt lat="45.25597636587917804718017578125" lon="-71.20028528384864330291748046875">
        <ele>732.79998779296875</ele>
        <time>2026-08-22T04:21:40.000Z</time>
        <extensions>
          <ns3:TrackPointExtension>
            <ns3:hr>131</ns3:hr>
            <ns3:cad>53</ns3:cad>
          </ns3:TrackPointExtension>
        </extensions>
      </trkpt>
      <trkpt lat="45.2559841610491275787353515625" lon="-71.20029768906533718109130859375">
        <ele>732.5999755859375</ele>
        <time>2026-08-22T04:21:41.000Z</time>
        <extensions>
          <ns3:TrackPointExtension>
            <ns3:hr>131</ns3:hr>
            <ns3:cad>53</ns3:cad>
          </ns3:TrackPointExtension>
        </extensions>
      </trkpt>
      <trkpt lat="45.255991034209728240966796875" lon="-71.20031445287168025970458984375">
        <ele>732.5999755859375</ele>
        <time>2026-08-22T04:21:42.000Z</time>
        <extensions>
          <ns3:TrackPointExtension>
            <ns3:hr>130</ns3:hr>
            <ns3:cad>53</ns3:cad>
          </ns3:TrackPointExtension>
        </extensions>
      </trkpt>
      <trkpt lat="45.25599279440939426422119140625" lon="-71.20032920502126216888427734375">
        <ele>732.4000244140625</ele>
        <time>2026-08-22T04:21:43.000Z</time>
        <extensions>
          <ns3:TrackPointExtension>
            <ns3:hr>130</ns3:hr>
            <ns3:cad>53</ns3:cad>
          </ns3:TrackPointExtension>
        </extensions>
      </trkpt>
      <trkpt lat="45.25599882937967777252197265625" lon="-71.200339011847972869873046875">
        <ele>732.4000244140625</ele>
        <time>2026-08-22T04:21:44.000Z</time>
        <extensions>
          <ns3:TrackPointExtension>
            <ns3:hr>130</ns3:hr>
            <ns3:cad>53</ns3:cad>
          </ns3:TrackPointExtension>
        </extensions>
      </trkpt>
      <trkpt lat="45.25600151158869266510009765625" lon="-71.2003500759601593017578125">
        <ele>732.20001220703125</ele>
        <time>2026-08-22T04:21:45.000Z</time>
        <extensions>
          <ns3:TrackPointExtension>
            <ns3:hr>130</ns3:hr>
            <ns3:cad>53</ns3:cad>
          </ns3:TrackPointExtension>
        </extensions>
      </trkpt>
      <trkpt lat="45.2560056187212467193603515625" lon="-71.2003596313297748565673828125">
        <ele>732.20001220703125</ele>
        <time>2026-08-22T04:21:46.000Z</time>
        <extensions>
          <ns3:TrackPointExtension>
            <ns3:hr>129</ns3:hr>
            <ns3:cad>0</ns3:cad>
          </ns3:TrackPointExtension>
        </extensions>
      </trkpt>
      <trkpt lat="45.2560083009302616119384765625" lon="-71.2003649957478046417236328125">
        <ele>732.20001220703125</ele>
        <time>2026-08-22T04:21:47.000Z</time>
        <extensions>
          <ns3:TrackPointExtension>
            <ns3:hr>130</ns3:hr>
            <ns3:cad>0</ns3:cad>
          </ns3:TrackPointExtension>
        </extensions>
      </trkpt>
      <trkpt lat="45.2560074627399444580078125" lon="-71.2003673426806926727294921875">
        <ele>732.20001220703125</ele>
        <time>2026-08-22T04:21:48.000Z</time>
        <extensions>
          <ns3:TrackPointExtension>
            <ns3:hr>130</ns3:hr>
            <ns3:cad>0</ns3:cad>
          </ns3:TrackPointExtension>
        </extensions>
      </trkpt>
      <trkpt lat="45.25600821711122989654541015625" lon="-71.2003706954419612884521484375">
        <ele>732</ele>
        <time>2026-08-22T04:21:49.000Z</time>
        <extensions>
          <ns3:TrackPointExtension>
            <ns3:hr>129</ns3:hr>
            <ns3:cad>0</ns3:cad>
          </ns3:TrackPointExtension>
        </extensions>
      </trkpt>
      <trkpt lat="45.25600955821573734283447265625" lon="-71.20038117282092571258544921875">
        <ele>732</ele>
        <time>2026-08-22T04:21:50.000Z</time>
        <extensions>
          <ns3:TrackPointExtension>
            <ns3:hr>129</ns3:hr>
            <ns3:cad>0</ns3:cad>
          </ns3:TrackPointExtension>
        </extensions>
      </trkpt>
      <trkpt lat="45.25601291097700595855712890625" lon="-71.2003934942185878753662109375">
        <ele>732</ele>
        <time>2026-08-22T04:21:51.000Z</time>
        <extensions>
          <ns3:TrackPointExtension>
            <ns3:hr>129</ns3:hr>
            <ns3:cad>0</ns3:cad>
          </ns3:TrackPointExtension>
        </extensions>
      </trkpt>
      <trkpt lat="45.25601710192859172821044921875" lon="-71.20039902627468109130859375">
        <ele>732</ele>
        <time>2026-08-22T04:21:52.000Z</time>
        <extensions>
          <ns3:TrackPointExtension>
            <ns3:hr>128</ns3:hr>
            <ns3:cad>0</ns3:cad>
          </ns3:TrackPointExtension>
        </extensions>
      </trkpt>
      <trkpt lat="45.2560223825275897979736328125" lon="-71.20041470043361186981201171875">
        <ele>731.79998779296875</ele>
        <time>2026-08-22T04:21:53.000Z</time>
        <extensions>
          <ns3:TrackPointExtension>
            <ns3:hr>128</ns3:hr>
            <ns3:cad>0</ns3:cad>
          </ns3:TrackPointExtension>
        </extensions>
      </trkpt>
      <trkpt lat="45.25602632202208042144775390625" lon="-71.2004417739808559417724609375">
        <ele>731.79998779296875</ele>
        <time>2026-08-22T04:21:54.000Z</time>
        <extensions>
          <ns3:TrackPointExtension>
            <ns3:hr>128</ns3:hr>
            <ns3:cad>0</ns3:cad>
          </ns3:TrackPointExtension>
        </extensions>
      </trkpt>
      <trkpt lat="45.25602799840271472930908203125" lon="-71.2004625611007213592529296875">
        <ele>731.5999755859375</ele>
        <time>2026-08-22T04:21:55.000Z</time>
        <extensions>
          <ns3:TrackPointExtension>
            <ns3:hr>128</ns3:hr>
            <ns3:cad>0</ns3:cad>
          </ns3:TrackPointExtension>
        </extensions>
      </trkpt>
      <trkpt lat="45.25603788904845714569091796875" lon="-71.20048510842025279998779296875">
        <ele>731.4000244140625</ele>
        <time>2026-08-22T04:21:56.000Z</time>
        <extensions>
          <ns3:TrackPointExtension>
            <ns3:hr>128</ns3:hr>
            <ns3:cad>0</ns3:cad>
          </ns3:TrackPointExtension>
        </extensions>
      </trkpt>
      <trkpt lat="45.25604995898902416229248046875" lon="-71.20051511563360691070556640625">
        <ele>731</ele>
        <time>2026-08-22T04:21:57.000Z</time>
        <extensions>
          <ns3:TrackPointExtension>
            <ns3:hr>128</ns3:hr>
            <ns3:cad>0</ns3:cad>
          </ns3:TrackPointExtension>
        </extensions>
      </trkpt>
      <trkpt lat="45.25605565868318080902099609375" lon="-71.20053959079086780548095703125">
        <ele>730.79998779296875</ele>
        <time>2026-08-22T04:21:58.000Z</time>
        <extensions>
          <ns3:TrackPointExtension>
            <ns3:hr>128</ns3:hr>
            <ns3:cad>72</ns3:cad>
          </ns3:TrackPointExtension>
        </extensions>
      </trkpt>
      <trkpt lat="45.2560609392821788787841796875" lon="-71.20056331157684326171875">
        <ele>730.4000244140625</ele>
        <time>2026-08-22T04:21:59.000Z</time>
        <extensions>
          <ns3:TrackPointExtension>
            <ns3:hr>128</ns3:hr>
            <ns3:cad>72</ns3:cad>
          </ns3:TrackPointExtension>
        </extensions>
      </trkpt>
      <trkpt lat="45.25606621988117694854736328125" lon="-71.20059574954211711883544921875">
        <ele>730.20001220703125</ele>
        <time>2026-08-22T04:22:00.000Z</time>
        <extensions>
          <ns3:TrackPointExtension>
            <ns3:hr>128</ns3:hr>
            <ns3:cad>72</ns3:cad>
          </ns3:TrackPointExtension>
        </extensions>
      </trkpt>
      <trkpt lat="45.2560703270137310028076171875" lon="-71.20061838068068027496337890625">
        <ele>730</ele>
        <time>2026-08-22T04:22:01.000Z</time>
        <extensions>
          <ns3:TrackPointExtension>
            <ns3:hr>128</ns3:hr>
            <ns3:cad>75</ns3:cad>
          </ns3:TrackPointExtension>
        </extensions>
      </trkpt>
      <trkpt lat="45.25607409887015819549560546875" lon="-71.20064268819987773895263671875">
        <ele>729.79998779296875</ele>
        <time>2026-08-22T04:22:02.000Z</time>
        <extensions>
          <ns3:TrackPointExtension>
            <ns3:hr>128</ns3:hr>
            <ns3:cad>75</ns3:cad>
          </ns3:TrackPointExtension>
        </extensions>
      </trkpt>
      <trkpt lat="45.25607611052691936492919921875" lon="-71.200671605765819549560546875">
        <ele>729.5999755859375</ele>
        <time>2026-08-22T04:22:03.000Z</time>
        <extensions>
          <ns3:TrackPointExtension>
            <ns3:hr>129</ns3:hr>
            <ns3:cad>75</ns3:cad>
          </ns3:TrackPointExtension>
        </extensions>
      </trkpt>
      <trkpt lat="45.25607761926949024200439453125" lon="-71.20068912394344806671142578125">
        <ele>729.20001220703125</ele>
        <time>2026-08-22T04:22:04.000Z</time>
        <extensions>
          <ns3:TrackPointExtension>
            <ns3:hr>129</ns3:hr>
            <ns3:cad>75</ns3:cad>
          </ns3:TrackPointExtension>
        </extensions>
      </trkpt>
      <trkpt lat="45.256081558763980865478515625" lon="-71.2007170356810092926025390625">
        <ele>729</ele>
        <time>2026-08-22T04:22:05.000Z</time>
        <extensions>
          <ns3:TrackPointExtension>
            <ns3:hr>128</ns3:hr>
            <ns3:cad>75</ns3:cad>
          </ns3:TrackPointExtension>
        </extensions>
      </trkpt>
      <trkpt lat="45.25608457624912261962890625" lon="-71.200744025409221649169921875">
        <ele>728.4000244140625</ele>
        <time>2026-08-22T04:22:06.000Z</time>
        <extensions>
          <ns3:TrackPointExtension>
            <ns3:hr>129</ns3:hr>
            <ns3:cad>75</ns3:cad>
          </ns3:TrackPointExtension>
        </extensions>
      </trkpt>
      <trkpt lat="45.2560891024768352508544921875" lon="-71.20076875202357769012451171875">
        <ele>728</ele>
        <time>2026-08-22T04:22:07.000Z</time>
        <extensions>
          <ns3:TrackPointExtension>
            <ns3:hr>128</ns3:hr>
            <ns3:cad>76</ns3:cad>
          </ns3:TrackPointExtension>
        </extensions>
      </trkpt>
      <trkpt lat="45.2560891024768352508544921875" lon="-71.20079842396080493927001953125">
        <ele>727.5999755859375</ele>
        <time>2026-08-22T04:22:08.000Z</time>
        <extensions>
          <ns3:TrackPointExtension>
            <ns3:hr>128</ns3:hr>
            <ns3:cad>76</ns3:cad>
          </ns3:TrackPointExtension>
        </extensions>
      </trkpt>
      <trkpt lat="45.25608432479202747344970703125" lon="-71.20082625187933444976806640625">
        <ele>727.4000244140625</ele>
        <time>2026-08-22T04:22:09.000Z</time>
        <extensions>
          <ns3:TrackPointExtension>
            <ns3:hr>129</ns3:hr>
            <ns3:cad>76</ns3:cad>
          </ns3:TrackPointExtension>
        </extensions>
      </trkpt>
      <trkpt lat="45.2560827322304248809814453125" lon="-71.20085609145462512969970703125">
        <ele>727</ele>
        <time>2026-08-22T04:22:10.000Z</time>
        <extensions>
          <ns3:TrackPointExtension>
            <ns3:hr>130</ns3:hr>
            <ns3:cad>76</ns3:cad>
          </ns3:TrackPointExtension>
        </extensions>
      </trkpt>
      <trkpt lat="45.25608063675463199615478515625" lon="-71.2008843384683132171630859375">
        <ele>726.79998779296875</ele>
        <time>2026-08-22T04:22:11.000Z</time>
        <extensions>
          <ns3:TrackPointExtension>
            <ns3:hr>130</ns3:hr>
            <ns3:cad>76</ns3:cad>
          </ns3:TrackPointExtension>
        </extensions>
      </trkpt>
      <trkpt lat="45.2560807205736637115478515625" lon="-71.20090688578784465789794921875">
        <ele>726.5999755859375</ele>
        <time>2026-08-22T04:22:12.000Z</time>
        <extensions>
          <ns3:TrackPointExtension>
            <ns3:hr>130</ns3:hr>
            <ns3:cad>76</ns3:cad>
          </ns3:TrackPointExtension>
        </extensions>
      </trkpt>
      <trkpt lat="45.25608030147850513458251953125" lon="-71.20092876255512237548828125">
        <ele>726.5999755859375</ele>
        <time>2026-08-22T04:22:13.000Z</time>
        <extensions>
          <ns3:TrackPointExtension>
            <ns3:hr>130</ns3:hr>
            <ns3:cad>76</ns3:cad>
          </ns3:TrackPointExtension>
        </extensions>
      </trkpt>
      <trkpt lat="45.25608566589653491973876953125" lon="-71.20094946585595607757568359375">
        <ele>726.4000244140625</ele>
        <time>2026-08-22T04:22:14.000Z</time>
        <extensions>
          <ns3:TrackPointExtension>
            <ns3:hr>130</ns3:hr>
            <ns3:cad>76</ns3:cad>
          </ns3:TrackPointExtension>
        </extensions>
      </trkpt>
      <trkpt lat="45.25608918629586696624755859375" lon="-71.200972683727741241455078125">
        <ele>726.4000244140625</ele>
        <time>2026-08-22T04:22:15.000Z</time>
        <extensions>
          <ns3:TrackPointExtension>
            <ns3:hr>130</ns3:hr>
            <ns3:cad>76</ns3:cad>
          </ns3:TrackPointExtension>
        </extensions>
      </trkpt>
      <trkpt lat="45.25609237141907215118408203125" lon="-71.2010003440082073211669921875">
        <ele>726</ele>
        <time>2026-08-22T04:22:16.000Z</time>
        <extensions>
          <ns3:TrackPointExtension>
            <ns3:hr>130</ns3:hr>
            <ns3:cad>76</ns3:cad>
          </ns3:TrackPointExtension>
        </extensions>
      </trkpt>
      <trkpt lat="45.25609706528484821319580078125" lon="-71.20102188549935817718505859375">
        <ele>725.79998779296875</ele>
        <time>2026-08-22T04:22:17.000Z</time>
        <extensions>
          <ns3:TrackPointExtension>
            <ns3:hr>129</ns3:hr>
            <ns3:cad>73</ns3:cad>
          </ns3:TrackPointExtension>
        </extensions>
      </trkpt>
      <trkpt lat="45.2561038546264171600341796875" lon="-71.201041750609874725341796875">
        <ele>725.20001220703125</ele>
        <time>2026-08-22T04:22:18.000Z</time>
        <extensions>
          <ns3:TrackPointExtension>
            <ns3:hr>129</ns3:hr>
            <ns3:cad>73</ns3:cad>
          </ns3:TrackPointExtension>
        </extensions>
      </trkpt>
      <trkpt lat="45.256110392510890960693359375" lon="-71.20106144808232784271240234375">
        <ele>724.79998779296875</ele>
        <time>2026-08-22T04:22:19.000Z</time>
        <extensions>
          <ns3:TrackPointExtension>
            <ns3:hr>129</ns3:hr>
            <ns3:cad>73</ns3:cad>
          </ns3:TrackPointExtension>
        </extensions>
      </trkpt>
      <trkpt lat="45.2561162598431110382080078125" lon="-71.2010794691741466522216796875">
        <ele>724.4000244140625</ele>
        <time>2026-08-22T04:22:20.000Z</time>
        <extensions>
          <ns3:TrackPointExtension>
            <ns3:hr>129</ns3:hr>
            <ns3:cad>77</ns3:cad>
          </ns3:TrackPointExtension>
        </extensions>
      </trkpt>
      <trkpt lat="45.2561212889850139617919921875" lon="-71.20109447278082370758056640625">
        <ele>724</ele>
        <time>2026-08-22T04:22:21.000Z</time>
        <extensions>
          <ns3:TrackPointExtension>
            <ns3:hr>129</ns3:hr>
            <ns3:cad>77</ns3:cad>
          </ns3:TrackPointExtension>
        </extensions>
      </trkpt>
      <trkpt lat="45.25612489320337772369384765625" lon="-71.2011029385030269622802734375">
        <ele>723.79998779296875</ele>
        <time>2026-08-22T04:22:22.000Z</time>
        <extensions>
          <ns3:TrackPointExtension>
            <ns3:hr>129</ns3:hr>
            <ns3:cad>0</ns3:cad>
          </ns3:TrackPointExtension>
        </extensions>
      </trkpt>
      <trkpt lat="45.256127826869487762451171875" lon="-71.201110817492008209228515625">
        <ele>723.5999755859375</ele>
        <time>2026-08-22T04:22:23.000Z</time>
        <extensions>
          <ns3:TrackPointExtension>
            <ns3:hr>128</ns3:hr>
            <ns3:cad>0</ns3:cad>
          </ns3:TrackPointExtension>
        </extensions>
      </trkpt>
      <trkpt lat="45.256129838526248931884765625" lon="-71.20111785829067230224609375">
        <ele>723.4000244140625</ele>
        <time>2026-08-22T04:22:24.000Z</time>
        <extensions>
          <ns3:TrackPointExtension>
            <ns3:hr>129</ns3:hr>
            <ns3:cad>0</ns3:cad>
          </ns3:TrackPointExtension>
        </extensions>
      </trkpt>
      <trkpt lat="45.2561347000300884246826171875" lon="-71.2011260725557804107666015625">
        <ele>723.4000244140625</ele>
        <time>2026-08-22T04:22:25.000Z</time>
        <extensions>
          <ns3:TrackPointExtension>
            <ns3:hr>129</ns3:hr>
            <ns3:cad>0</ns3:cad>
          </ns3:TrackPointExtension>
        </extensions>
      </trkpt>
      <trkpt lat="45.256143920123577117919921875" lon="-71.2011414952576160430908203125">
        <ele>723.20001220703125</ele>
        <time>2026-08-22T04:22:26.000Z</time>
        <extensions>
          <ns3:TrackPointExtension>
            <ns3:hr>129</ns3:hr>
            <ns3:cad>55</ns3:cad>
          </ns3:TrackPointExtension>
        </extensions>
      </trkpt>
      <trkpt lat="45.2561568282544612884521484375" lon="-71.20114996097981929779052734375">
        <ele>722.79998779296875</ele>
        <time>2026-08-22T04:22:27.000Z</time>
        <extensions>
          <ns3:TrackPointExtension>
            <ns3:hr>130</ns3:hr>
            <ns3:cad>55</ns3:cad>
          </ns3:TrackPointExtension>
        </extensions>
      </trkpt>
      <trkpt lat="45.25617049075663089752197265625" lon="-71.20116068981587886810302734375">
        <ele>722.4000244140625</ele>
        <time>2026-08-22T04:22:28.000Z</time>
        <extensions>
          <ns3:TrackPointExtension>
            <ns3:hr>130</ns3:hr>
            <ns3:cad>55</ns3:cad>
          </ns3:TrackPointExtension>
        </extensions>
      </trkpt>
      <trkpt lat="45.25618406943976879119873046875" lon="-71.20117041282355785369873046875">
        <ele>722</ele>
        <time>2026-08-22T04:22:29.000Z</time>
        <extensions>
          <ns3:TrackPointExtension>
            <ns3:hr>130</ns3:hr>
            <ns3:cad>55</ns3:cad>
          </ns3:TrackPointExtension>
        </extensions>
      </trkpt>
      <trkpt lat="45.25620083324611186981201171875" lon="-71.20117686688899993896484375">
        <ele>721.5999755859375</ele>
        <time>2026-08-22T04:22:30.000Z</time>
        <extensions>
          <ns3:TrackPointExtension>
            <ns3:hr>129</ns3:hr>
            <ns3:cad>55</ns3:cad>
          </ns3:TrackPointExtension>
        </extensions>
      </trkpt>
      <trkpt lat="45.25620921514928340911865234375" lon="-71.20118164457380771636962890625">
        <ele>721.4000244140625</ele>
        <time>2026-08-22T04:22:31.000Z</time>
        <extensions>
          <ns3:TrackPointExtension>
            <ns3:hr>129</ns3:hr>
            <ns3:cad>75</ns3:cad>
          </ns3:TrackPointExtension>
        </extensions>
      </trkpt>
      <trkpt lat="45.2562098018825054168701171875" lon="-71.2011793814599514007568359375">
        <ele>721.20001220703125</ele>
        <time>2026-08-22T04:22:32.000Z</time>
        <extensions>
          <ns3:TrackPointExtension>
            <ns3:hr>128</ns3:hr>
            <ns3:cad>0</ns3:cad>
          </ns3:TrackPointExtension>
        </extensions>
      </trkpt>
      <trkpt lat="45.25620996952056884765625" lon="-71.20117879472672939300537109375">
        <ele>721</ele>
        <time>2026-08-22T04:22:33.000Z</time>
        <extensions>
          <ns3:TrackPointExtension>
            <ns3:hr>128</ns3:hr>
            <ns3:cad>0</ns3:cad>
          </ns3:TrackPointExtension>
        </extensions>
      </trkpt>
      <trkpt lat="45.25621005333960056304931640625" lon="-71.20117879472672939300537109375">
        <ele>721</ele>
        <time>2026-08-22T04:22:34.000Z</time>
        <extensions>
          <ns3:TrackPointExtension>
            <ns3:hr>128</ns3:hr>
            <ns3:cad>0</ns3:cad>
          </ns3:TrackPointExtension>
        </extensions>
      </trkpt>
      <trkpt lat="45.25621759705245494842529296875" lon="-71.2011840753257274627685546875">
        <ele>721</ele>
        <time>2026-08-22T04:22:35.000Z</time>
        <extensions>
          <ns3:TrackPointExtension>
            <ns3:hr>128</ns3:hr>
            <ns3:cad>0</ns3:cad>
          </ns3:TrackPointExtension>
        </extensions>
      </trkpt>
      <trkpt lat="45.2562299184501171112060546875" lon="-71.2011911161243915557861328125">
        <ele>721</ele>
        <time>2026-08-22T04:22:36.000Z</time>
        <extensions>
          <ns3:TrackPointExtension>
            <ns3:hr>128</ns3:hr>
            <ns3:cad>0</ns3:cad>
          </ns3:TrackPointExtension>
        </extensions>
      </trkpt>
      <trkpt lat="45.2562490291893482208251953125" lon="-71.20119371451437473297119140625">
        <ele>720.79998779296875</ele>
        <time>2026-08-22T04:22:37.000Z</time>
        <extensions>
          <ns3:TrackPointExtension>
            <ns3:hr>128</ns3:hr>
            <ns3:cad>0</ns3:cad>
          </ns3:TrackPointExtension>
        </extensions>
      </trkpt>
      <trkpt lat="45.25627233088016510009765625" lon="-71.20119430124759674072265625">
        <ele>720.5999755859375</ele>
        <time>2026-08-22T04:22:38.000Z</time>
        <extensions>
          <ns3:TrackPointExtension>
            <ns3:hr>128</ns3:hr>
            <ns3:cad>0</ns3:cad>
          </ns3:TrackPointExtension>
        </extensions>
      </trkpt>
      <trkpt lat="45.25629320181906223297119140625" lon="-71.20119337923824787139892578125">
        <ele>720.20001220703125</ele>
        <time>2026-08-22T04:22:39.000Z</time>
        <extensions>
          <ns3:TrackPointExtension>
            <ns3:hr>128</ns3:hr>
            <ns3:cad>0</ns3:cad>
          </ns3:TrackPointExtension>
        </extensions>
      </trkpt>
      <trkpt lat="45.25630812160670757293701171875" lon="-71.20119371451437473297119140625">
        <ele>720</ele>
        <time>2026-08-22T04:22:40.000Z</time>
        <extensions>
          <ns3:TrackPointExtension>
            <ns3:hr>127</ns3:hr>
            <ns3:cad>0</ns3:cad>
          </ns3:TrackPointExtension>
        </extensions>
      </trkpt>
      <trkpt lat="45.25632890872657299041748046875" lon="-71.20120234787464141845703125">
        <ele>719.5999755859375</ele>
        <time>2026-08-22T04:22:41.000Z</time>
        <extensions>
          <ns3:TrackPointExtension>
            <ns3:hr>127</ns3:hr>
            <ns3:cad>77</ns3:cad>
          </ns3:TrackPointExtension>
        </extensions>
      </trkpt>
      <trkpt lat="45.25635019876062870025634765625" lon="-71.20121466927230358123779296875">
        <ele>719.4000244140625</ele>
        <time>2026-08-22T04:22:42.000Z</time>
        <extensions>
          <ns3:TrackPointExtension>
            <ns3:hr>127</ns3:hr>
            <ns3:cad>77</ns3:cad>
          </ns3:TrackPointExtension>
        </extensions>
      </trkpt>
      <trkpt lat="45.25636327452957630157470703125" lon="-71.20122187770903110504150390625">
        <ele>719</ele>
        <time>2026-08-22T04:22:43.000Z</time>
        <extensions>
          <ns3:TrackPointExtension>
            <ns3:hr>128</ns3:hr>
            <ns3:cad>79</ns3:cad>
          </ns3:TrackPointExtension>
        </extensions>
      </trkpt>
      <trkpt lat="45.25638054125010967254638671875" lon="-71.201234869658946990966796875">
        <ele>718.79998779296875</ele>
        <time>2026-08-22T04:22:44.000Z</time>
        <extensions>
          <ns3:TrackPointExtension>
            <ns3:hr>128</ns3:hr>
            <ns3:cad>79</ns3:cad>
          </ns3:TrackPointExtension>
        </extensions>
      </trkpt>
      <trkpt lat="45.25639730505645275115966796875" lon="-71.2012487836182117462158203125">
        <ele>718.5999755859375</ele>
        <time>2026-08-22T04:22:45.000Z</time>
        <extensions>
          <ns3:TrackPointExtension>
            <ns3:hr>128</ns3:hr>
            <ns3:cad>79</ns3:cad>
          </ns3:TrackPointExtension>
        </extensions>
      </trkpt>
      <trkpt lat="45.25641054846346378326416015625" lon="-71.20125791989266872406005859375">
        <ele>718.20001220703125</ele>
        <time>2026-08-22T04:22:46.000Z</time>
        <extensions>
          <ns3:TrackPointExtension>
            <ns3:hr>127</ns3:hr>
            <ns3:cad>79</ns3:cad>
          </ns3:TrackPointExtension>
        </extensions>
      </trkpt>
      <trkpt lat="45.25642328895628452301025390625" lon="-71.201274096965789794921875">
        <ele>718</ele>
        <time>2026-08-22T04:22:47.000Z</time>
        <extensions>
          <ns3:TrackPointExtension>
            <ns3:hr>127</ns3:hr>
            <ns3:cad>79</ns3:cad>
          </ns3:TrackPointExtension>
        </extensions>
      </trkpt>
      <trkpt lat="45.2564337663352489471435546875" lon="-71.2012890167534351348876953125">
        <ele>717.4000244140625</ele>
        <time>2026-08-22T04:22:48.000Z</time>
        <extensions>
          <ns3:TrackPointExtension>
            <ns3:hr>126</ns3:hr>
            <ns3:cad>77</ns3:cad>
          </ns3:TrackPointExtension>
        </extensions>
      </trkpt>
      <trkpt lat="45.25644491426646709442138671875" lon="-71.20130385272204875946044921875">
        <ele>717</ele>
        <time>2026-08-22T04:22:49.000Z</time>
        <extensions>
          <ns3:TrackPointExtension>
            <ns3:hr>126</ns3:hr>
            <ns3:cad>77</ns3:cad>
          </ns3:TrackPointExtension>
        </extensions>
      </trkpt>
      <trkpt lat="45.25645832531154155731201171875" lon="-71.201318018138408660888671875">
        <ele>716.5999755859375</ele>
        <time>2026-08-22T04:22:50.000Z</time>
        <extensions>
          <ns3:TrackPointExtension>
            <ns3:hr>126</ns3:hr>
            <ns3:cad>77</ns3:cad>
          </ns3:TrackPointExtension>
        </extensions>
      </trkpt>
      <trkpt lat="45.2564746700227260589599609375" lon="-71.2013309262692928314208984375">
        <ele>716</ele>
        <time>2026-08-22T04:22:51.000Z</time>
        <extensions>
          <ns3:TrackPointExtension>
            <ns3:hr>126</ns3:hr>
            <ns3:cad>77</ns3:cad>
          </ns3:TrackPointExtension>
        </extensions>
      </trkpt>
      <trkpt lat="45.25648866780102252960205078125" lon="-71.20134559459984302520751953125">
        <ele>715.4000244140625</ele>
        <time>2026-08-22T04:22:52.000Z</time>
        <extensions>
          <ns3:TrackPointExtension>
            <ns3:hr>126</ns3:hr>
            <ns3:cad>77</ns3:cad>
          </ns3:TrackPointExtension>
        </extensions>
      </trkpt>
      <trkpt lat="45.2565048448741436004638671875" lon="-71.201359927654266357421875">
        <ele>715</ele>
        <time>2026-08-22T04:22:53.000Z</time>
        <extensions>
          <ns3:TrackPointExtension>
            <ns3:hr>127</ns3:hr>
            <ns3:cad>77</ns3:cad>
          </ns3:TrackPointExtension>
        </extensions>
      </trkpt>
      <trkpt lat="45.25652177631855010986328125" lon="-71.201370656490325927734375">
        <ele>714.4000244140625</ele>
        <time>2026-08-22T04:22:54.000Z</time>
        <extensions>
          <ns3:TrackPointExtension>
            <ns3:hr>127</ns3:hr>
            <ns3:cad>77</ns3:cad>
          </ns3:TrackPointExtension>
        </extensions>
      </trkpt>
      <trkpt lat="45.2565420605242252349853515625" lon="-71.201384067535400390625">
        <ele>713.79998779296875</ele>
        <time>2026-08-22T04:22:55.000Z</time>
        <extensions>
          <ns3:TrackPointExtension>
            <ns3:hr>127</ns3:hr>
            <ns3:cad>77</ns3:cad>
          </ns3:TrackPointExtension>
        </extensions>
      </trkpt>
      <trkpt lat="45.2565626800060272216796875" lon="-71.20139387436211109161376953125">
        <ele>713.4000244140625</ele>
        <time>2026-08-22T04:22:56.000Z</time>
        <extensions>
          <ns3:TrackPointExtension>
            <ns3:hr>128</ns3:hr>
            <ns3:cad>77</ns3:cad>
          </ns3:TrackPointExtension>
        </extensions>
      </trkpt>
      <trkpt lat="45.2565786056220531463623046875" lon="-71.20139655657112598419189453125">
        <ele>713</ele>
        <time>2026-08-22T04:22:57.000Z</time>
        <extensions>
          <ns3:TrackPointExtension>
            <ns3:hr>128</ns3:hr>
            <ns3:cad>77</ns3:cad>
          </ns3:TrackPointExtension>
        </extensions>
      </trkpt>
      <trkpt lat="45.25659863837063312530517578125" lon="-71.20139873586595058441162109375">
        <ele>712.79998779296875</ele>
        <time>2026-08-22T04:22:58.000Z</time>
        <extensions>
          <ns3:TrackPointExtension>
            <ns3:hr>128</ns3:hr>
            <ns3:cad>77</ns3:cad>
          </ns3:TrackPointExtension>
        </extensions>
      </trkpt>
      <trkpt lat="45.2566158212721347808837890625" lon="-71.20140041224658489227294921875">
        <ele>712.5999755859375</ele>
        <time>2026-08-22T04:22:59.000Z</time>
        <extensions>
          <ns3:TrackPointExtension>
            <ns3:hr>128</ns3:hr>
            <ns3:cad>77</ns3:cad>
          </ns3:TrackPointExtension>
        </extensions>
      </trkpt>
      <trkpt lat="45.25663308799266815185546875" lon="-71.201397478580474853515625">
        <ele>712.4000244140625</ele>
        <time>2026-08-22T04:23:00.000Z</time>
        <extensions>
          <ns3:TrackPointExtension>
            <ns3:hr>129</ns3:hr>
            <ns3:cad>77</ns3:cad>
          </ns3:TrackPointExtension>
        </extensions>
      </trkpt>
      <trkpt lat="45.256649516522884368896484375" lon="-71.2013939581811428070068359375">
        <ele>712.20001220703125</ele>
        <time>2026-08-22T04:23:01.000Z</time>
        <extensions>
          <ns3:TrackPointExtension>
            <ns3:hr>129</ns3:hr>
            <ns3:cad>77</ns3:cad>
          </ns3:TrackPointExtension>
        </extensions>
      </trkpt>
      <trkpt lat="45.25666770525276660919189453125" lon="-71.20138934813439846038818359375">
        <ele>712</ele>
        <time>2026-08-22T04:23:02.000Z</time>
        <extensions>
          <ns3:TrackPointExtension>
            <ns3:hr>130</ns3:hr>
            <ns3:cad>77</ns3:cad>
          </ns3:TrackPointExtension>
        </extensions>
      </trkpt>
      <trkpt lat="45.2566858939826488494873046875" lon="-71.20138515718281269073486328125">
        <ele>711.79998779296875</ele>
        <time>2026-08-22T04:23:03.000Z</time>
        <extensions>
          <ns3:TrackPointExtension>
            <ns3:hr>130</ns3:hr>
            <ns3:cad>70</ns3:cad>
          </ns3:TrackPointExtension>
        </extensions>
      </trkpt>
      <trkpt lat="45.2567013166844844818115234375" lon="-71.20137870311737060546875">
        <ele>711.4000244140625</ele>
        <time>2026-08-22T04:23:04.000Z</time>
        <extensions>
          <ns3:TrackPointExtension>
            <ns3:hr>130</ns3:hr>
            <ns3:cad>70</ns3:cad>
          </ns3:TrackPointExtension>
        </extensions>
      </trkpt>
      <trkpt lat="45.2567157335579395294189453125" lon="-71.20137392543256282806396484375">
        <ele>711.20001220703125</ele>
        <time>2026-08-22T04:23:05.000Z</time>
        <extensions>
          <ns3:TrackPointExtension>
            <ns3:hr>130</ns3:hr>
            <ns3:cad>62</ns3:cad>
          </ns3:TrackPointExtension>
        </extensions>
      </trkpt>
      <trkpt lat="45.25672889314591884613037109375" lon="-71.20137241668999195098876953125">
        <ele>711</ele>
        <time>2026-08-22T04:23:06.000Z</time>
        <extensions>
          <ns3:TrackPointExtension>
            <ns3:hr>130</ns3:hr>
            <ns3:cad>62</ns3:cad>
          </ns3:TrackPointExtension>
        </extensions>
      </trkpt>
      <trkpt lat="45.25673995725810527801513671875" lon="-71.20136772282421588897705078125">
        <ele>710.79998779296875</ele>
        <time>2026-08-22T04:23:07.000Z</time>
        <extensions>
          <ns3:TrackPointExtension>
            <ns3:hr>130</ns3:hr>
            <ns3:cad>62</ns3:cad>
          </ns3:TrackPointExtension>
        </extensions>
      </trkpt>
      <trkpt lat="45.2567502669990062713623046875" lon="-71.20136193931102752685546875">
        <ele>710.5999755859375</ele>
        <time>2026-08-22T04:23:08.000Z</time>
        <extensions>
          <ns3:TrackPointExtension>
            <ns3:hr>130</ns3:hr>
            <ns3:cad>62</ns3:cad>
          </ns3:TrackPointExtension>
        </extensions>
      </trkpt>
      <trkpt lat="45.25675638578832149505615234375" lon="-71.2013580836355686187744140625">
        <ele>710.5999755859375</ele>
        <time>2026-08-22T04:23:09.000Z</time>
        <extensions>
          <ns3:TrackPointExtension>
            <ns3:hr>129</ns3:hr>
            <ns3:cad>62</ns3:cad>
          </ns3:TrackPointExtension>
        </extensions>
      </trkpt>
      <trkpt lat="45.2567566372454166412353515625" lon="-71.20135464705526828765869140625">
        <ele>710.4000244140625</ele>
        <time>2026-08-22T04:23:10.000Z</time>
        <extensions>
          <ns3:TrackPointExtension>
            <ns3:hr>129</ns3:hr>
            <ns3:cad>0</ns3:cad>
          </ns3:TrackPointExtension>
        </extensions>
      </trkpt>
      <trkpt lat="45.2567512728273868560791015625" lon="-71.20135213248431682586669921875">
        <ele>710.4000244140625</ele>
        <time>2026-08-22T04:23:11.000Z</time>
        <extensions>
          <ns3:TrackPointExtension>
            <ns3:hr>129</ns3:hr>
            <ns3:cad>0</ns3:cad>
          </ns3:TrackPointExtension>
        </extensions>
      </trkpt>
      <trkpt lat="45.2567479200661182403564453125" lon="-71.2013486959040164947509765625">
        <ele>710.4000244140625</ele>
        <time>2026-08-22T04:23:12.000Z</time>
        <extensions>
          <ns3:TrackPointExtension>
            <ns3:hr>129</ns3:hr>
            <ns3:cad>0</ns3:cad>
          </ns3:TrackPointExtension>
        </extensions>
      </trkpt>
      <trkpt lat="45.25674884207546710968017578125" lon="-71.20135129429399967193603515625">
        <ele>710.4000244140625</ele>
        <time>2026-08-22T04:23:13.000Z</time>
        <extensions>
          <ns3:TrackPointExtension>
            <ns3:hr>128</ns3:hr>
            <ns3:cad>0</ns3:cad>
          </ns3:TrackPointExtension>
        </extensions>
      </trkpt>
      <trkpt lat="45.25674900971353054046630859375" lon="-71.20135045610368251800537109375">
        <ele>710.4000244140625</ele>
        <time>2026-08-22T04:23:14.000Z</time>
        <extensions>
          <ns3:TrackPointExtension>
            <ns3:hr>127</ns3:hr>
            <ns3:cad>0</ns3:cad>
          </ns3:TrackPointExtension>
        </extensions>
      </trkpt>
      <trkpt lat="45.2567573077976703643798828125" lon="-71.20134995318949222564697265625">
        <ele>710.4000244140625</ele>
        <time>2026-08-22T04:23:15.000Z</time>
        <extensions>
          <ns3:TrackPointExtension>
            <ns3:hr>126</ns3:hr>
            <ns3:cad>0</ns3:cad>
          </ns3:TrackPointExtension>
        </extensions>
      </trkpt>
      <trkpt lat="45.256775580346584320068359375" lon="-71.20134760625660419464111328125">
        <ele>710.20001220703125</ele>
        <time>2026-08-22T04:23:16.000Z</time>
        <extensions>
          <ns3:TrackPointExtension>
            <ns3:hr>125</ns3:hr>
            <ns3:cad>0</ns3:cad>
          </ns3:TrackPointExtension>
        </extensions>
      </trkpt>
      <trkpt lat="45.25679209269583225250244140625" lon="-71.2013480253517627716064453125">
        <ele>710</ele>
        <time>2026-08-22T04:23:17.000Z</time>
        <extensions>
          <ns3:TrackPointExtension>
            <ns3:hr>125</ns3:hr>
            <ns3:cad>0</ns3:cad>
          </ns3:TrackPointExtension>
        </extensions>
      </trkpt>
      <trkpt lat="45.25680885650217533111572265625" lon="-71.20134961791336536407470703125">
        <ele>709.79998779296875</ele>
        <time>2026-08-22T04:23:18.000Z</time>
        <extensions>
          <ns3:TrackPointExtension>
            <ns3:hr>124</ns3:hr>
            <ns3:cad>0</ns3:cad>
          </ns3:TrackPointExtension>
        </extensions>
      </trkpt>
      <trkpt lat="45.25683735497295856475830078125" lon="-71.20134475640952587127685546875">
        <ele>709.5999755859375</ele>
        <time>2026-08-22T04:23:19.000Z</time>
        <extensions>
          <ns3:TrackPointExtension>
            <ns3:hr>124</ns3:hr>
            <ns3:cad>0</ns3:cad>
          </ns3:TrackPointExtension>
        </extensions>
      </trkpt>
      <trkpt lat="45.256858728826045989990234375" lon="-71.20133486576378345489501953125">
        <ele>709.4000244140625</ele>
        <time>2026-08-22T04:23:20.000Z</time>
        <extensions>
          <ns3:TrackPointExtension>
            <ns3:hr>124</ns3:hr>
            <ns3:cad>0</ns3:cad>
          </ns3:TrackPointExtension>
        </extensions>
      </trkpt>
      <trkpt lat="45.2568756602704524993896484375" lon="-71.2013329379260540008544921875">
        <ele>709.20001220703125</ele>
        <time>2026-08-22T04:23:21.000Z</time>
        <extensions>
          <ns3:TrackPointExtension>
            <ns3:hr>124</ns3:hr>
            <ns3:cad>75</ns3:cad>
          </ns3:TrackPointExtension>
        </extensions>
      </trkpt>
      <trkpt lat="45.25689317844808101654052734375" lon="-71.20133352465927600860595703125">
        <ele>709</ele>
        <time>2026-08-22T04:23:22.000Z</time>
        <extensions>
          <ns3:TrackPointExtension>
            <ns3:hr>124</ns3:hr>
            <ns3:cad>75</ns3:cad>
          </ns3:TrackPointExtension>
        </extensions>
      </trkpt>
      <trkpt lat="45.2569091878831386566162109375" lon="-71.20133134536445140838623046875">
        <ele>708.79998779296875</ele>
        <time>2026-08-22T04:23:23.000Z</time>
        <extensions>
          <ns3:TrackPointExtension>
            <ns3:hr>125</ns3:hr>
            <ns3:cad>75</ns3:cad>
          </ns3:TrackPointExtension>
        </extensions>
      </trkpt>
      <trkpt lat="45.2569189108908176422119140625" lon="-71.20133067481219768524169921875">
        <ele>708.5999755859375</ele>
        <time>2026-08-22T04:23:24.000Z</time>
        <extensions>
          <ns3:TrackPointExtension>
            <ns3:hr>126</ns3:hr>
            <ns3:cad>75</ns3:cad>
          </ns3:TrackPointExtension>
        </extensions>
      </trkpt>
      <trkpt lat="45.25692150928080081939697265625" lon="-71.2013295851647853851318359375">
        <ele>708.5999755859375</ele>
        <time>2026-08-22T04:23:25.000Z</time>
        <extensions>
          <ns3:TrackPointExtension>
            <ns3:hr>126</ns3:hr>
            <ns3:cad>75</ns3:cad>
          </ns3:TrackPointExtension>
        </extensions>
      </trkpt>
      <trkpt lat="45.25692050345242023468017578125" lon="-71.20132748968899250030517578125">
        <ele>708.5999755859375</ele>
        <time>2026-08-22T04:23:26.000Z</time>
        <extensions>
          <ns3:TrackPointExtension>
            <ns3:hr>126</ns3:hr>
            <ns3:cad>0</ns3:cad>
          </ns3:TrackPointExtension>
        </extensions>
      </trkpt>
      <trkpt lat="45.25690935552120208740234375" lon="-71.2013225443661212921142578125">
        <ele>708.4000244140625</ele>
        <time>2026-08-22T04:23:27.000Z</time>
        <extensions>
          <ns3:TrackPointExtension>
            <ns3:hr>126</ns3:hr>
            <ns3:cad>0</ns3:cad>
          </ns3:TrackPointExtension>
        </extensions>
      </trkpt>
      <trkpt lat="45.256898291409015655517578125" lon="-71.20131491683423519134521484375">
        <ele>708.4000244140625</ele>
        <time>2026-08-22T04:23:28.000Z</time>
        <extensions>
          <ns3:TrackPointExtension>
            <ns3:hr>126</ns3:hr>
            <ns3:cad>48</ns3:cad>
          </ns3:TrackPointExtension>
        </extensions>
      </trkpt>
      <trkpt lat="45.25688714347779750823974609375" lon="-71.2013077922165393829345703125">
        <ele>708.4000244140625</ele>
        <time>2026-08-22T04:23:29.000Z</time>
        <extensions>
          <ns3:TrackPointExtension>
            <ns3:hr>126</ns3:hr>
            <ns3:cad>48</ns3:cad>
          </ns3:TrackPointExtension>
        </extensions>
      </trkpt>
      <trkpt lat="45.2568756602704524993896484375" lon="-71.2013024277985095977783203125">
        <ele>708.4000244140625</ele>
        <time>2026-08-22T04:23:30.000Z</time>
        <extensions>
          <ns3:TrackPointExtension>
            <ns3:hr>127</ns3:hr>
            <ns3:cad>48</ns3:cad>
          </ns3:TrackPointExtension>
        </extensions>
      </trkpt>
      <trkpt lat="45.25686367414891719818115234375" lon="-71.20129697956144809722900390625">
        <ele>708.5999755859375</ele>
        <time>2026-08-22T04:23:31.000Z</time>
        <extensions>
          <ns3:TrackPointExtension>
            <ns3:hr>127</ns3:hr>
            <ns3:cad>0</ns3:cad>
          </ns3:TrackPointExtension>
        </extensions>
      </trkpt>
      <trkpt lat="45.25685210712254047393798828125" lon="-71.20129245333373546600341796875">
        <ele>708.5999755859375</ele>
        <time>2026-08-22T04:23:32.000Z</time>
        <extensions>
          <ns3:TrackPointExtension>
            <ns3:hr>126</ns3:hr>
            <ns3:cad>0</ns3:cad>
          </ns3:TrackPointExtension>
        </extensions>
      </trkpt>
      <trkpt lat="45.2568397857248783111572265625" lon="-71.20129086077213287353515625">
        <ele>708.5999755859375</ele>
        <time>2026-08-22T04:23:33.000Z</time>
        <extensions>
          <ns3:TrackPointExtension>
            <ns3:hr>126</ns3:hr>
            <ns3:cad>0</ns3:cad>
          </ns3:TrackPointExtension>
        </extensions>
      </trkpt>
      <trkpt lat="45.2568250335752964019775390625" lon="-71.20128759182989597320556640625">
        <ele>708.79998779296875</ele>
        <time>2026-08-22T04:23:34.000Z</time>
        <extensions>
          <ns3:TrackPointExtension>
            <ns3:hr>126</ns3:hr>
            <ns3:cad>50</ns3:cad>
          </ns3:TrackPointExtension>
        </extensions>
      </trkpt>
      <trkpt lat="45.2568116225302219390869140625" lon="-71.2012829817831516265869140625">
        <ele>709</ele>
        <time>2026-08-22T04:23:35.000Z</time>
        <extensions>
          <ns3:TrackPointExtension>
            <ns3:hr>126</ns3:hr>
            <ns3:cad>50</ns3:cad>
          </ns3:TrackPointExtension>
        </extensions>
      </trkpt>
      <trkpt lat="45.25679913349449634552001953125" lon="-71.2012808024883270263671875">
        <ele>709</ele>
        <time>2026-08-22T04:23:36.000Z</time>
        <extensions>
          <ns3:TrackPointExtension>
            <ns3:hr>126</ns3:hr>
            <ns3:cad>50</ns3:cad>
          </ns3:TrackPointExtension>
        </extensions>
      </trkpt>
      <trkpt lat="45.25678790174424648284912109375" lon="-71.20128013193607330322265625">
        <ele>709.20001220703125</ele>
        <time>2026-08-22T04:23:37.000Z</time>
        <extensions>
          <ns3:TrackPointExtension>
            <ns3:hr>126</ns3:hr>
            <ns3:cad>50</ns3:cad>
          </ns3:TrackPointExtension>
        </extensions>
      </trkpt>
      <trkpt lat="45.2567744068801403045654296875" lon="-71.2012808024883270263671875">
        <ele>709.20001220703125</ele>
        <time>2026-08-22T04:23:38.000Z</time>
        <extensions>
          <ns3:TrackPointExtension>
            <ns3:hr>126</ns3:hr>
            <ns3:cad>52</ns3:cad>
          </ns3:TrackPointExtension>
        </extensions>
      </trkpt>
      <trkpt lat="45.25676258839666843414306640625" lon="-71.20128415524959564208984375">
        <ele>709.4000244140625</ele>
        <time>2026-08-22T04:23:39.000Z</time>
        <extensions>
          <ns3:TrackPointExtension>
            <ns3:hr>126</ns3:hr>
            <ns3:cad>52</ns3:cad>
          </ns3:TrackPointExtension>
        </extensions>
      </trkpt>
      <trkpt lat="45.256749428808689117431640625" lon="-71.201289854943752288818359375">
        <ele>709.5999755859375</ele>
        <time>2026-08-22T04:23:40.000Z</time>
        <extensions>
          <ns3:TrackPointExtension>
            <ns3:hr>125</ns3:hr>
            <ns3:cad>51</ns3:cad>
          </ns3:TrackPointExtension>
        </extensions>
      </trkpt>
      <trkpt lat="45.25673794560134410858154296875" lon="-71.2012950517237186431884765625">
        <ele>709.79998779296875</ele>
        <time>2026-08-22T04:23:41.000Z</time>
        <extensions>
          <ns3:TrackPointExtension>
            <ns3:hr>126</ns3:hr>
            <ns3:cad>49</ns3:cad>
          </ns3:TrackPointExtension>
        </extensions>
      </trkpt>
      <trkpt lat="45.25672319345176219940185546875" lon="-71.2013024277985095977783203125">
        <ele>710</ele>
        <time>2026-08-22T04:23:42.000Z</time>
        <extensions>
          <ns3:TrackPointExtension>
            <ns3:hr>126</ns3:hr>
            <ns3:cad>49</ns3:cad>
          </ns3:TrackPointExtension>
        </extensions>
      </trkpt>
      <trkpt lat="45.2567083574831485748291015625" lon="-71.2013087980449199676513671875">
        <ele>710.20001220703125</ele>
        <time>2026-08-22T04:23:43.000Z</time>
        <extensions>
          <ns3:TrackPointExtension>
            <ns3:hr>126</ns3:hr>
            <ns3:cad>49</ns3:cad>
          </ns3:TrackPointExtension>
        </extensions>
      </trkpt>
      <trkpt lat="45.25669821538031101226806640625" lon="-71.20131609030067920684814453125">
        <ele>710.4000244140625</ele>
        <time>2026-08-22T04:23:44.000Z</time>
        <extensions>
          <ns3:TrackPointExtension>
            <ns3:hr>126</ns3:hr>
            <ns3:cad>49</ns3:cad>
          </ns3:TrackPointExtension>
        </extensions>
      </trkpt>
      <trkpt lat="45.256690420210361480712890625" lon="-71.20133645832538604736328125">
        <ele>710.5999755859375</ele>
        <time>2026-08-22T04:23:45.000Z</time>
        <extensions>
          <ns3:TrackPointExtension>
            <ns3:hr>126</ns3:hr>
            <ns3:cad>49</ns3:cad>
          </ns3:TrackPointExtension>
        </extensions>
      </trkpt>
      <trkpt lat="45.25669251568615436553955078125" lon="-71.20136118493974208831787109375">
        <ele>710.79998779296875</ele>
        <time>2026-08-22T04:23:46.000Z</time>
        <extensions>
          <ns3:TrackPointExtension>
            <ns3:hr>126</ns3:hr>
            <ns3:cad>51</ns3:cad>
          </ns3:TrackPointExtension>
        </extensions>
      </trkpt>
      <trkpt lat="45.25668296031653881072998046875" lon="-71.20138549245893955230712890625">
        <ele>710.79998779296875</ele>
        <time>2026-08-22T04:23:47.000Z</time>
        <extensions>
          <ns3:TrackPointExtension>
            <ns3:hr>126</ns3:hr>
            <ns3:cad>51</ns3:cad>
          </ns3:TrackPointExtension>
        </extensions>
      </trkpt>
      <trkpt lat="45.25667340494692325592041015625" lon="-71.20141692459583282470703125">
        <ele>711</ele>
        <time>2026-08-22T04:23:48.000Z</time>
        <extensions>
          <ns3:TrackPointExtension>
            <ns3:hr>126</ns3:hr>
            <ns3:cad>51</ns3:cad>
          </ns3:TrackPointExtension>
        </extensions>
      </trkpt>
      <trkpt lat="45.25666519068181514739990234375" lon="-71.2014422379434108734130859375">
        <ele>711</ele>
        <time>2026-08-22T04:23:49.000Z</time>
        <extensions>
          <ns3:TrackPointExtension>
            <ns3:hr>127</ns3:hr>
            <ns3:cad>51</ns3:cad>
          </ns3:TrackPointExtension>
        </extensions>
      </trkpt>
      <trkpt lat="45.25666099973022937774658203125" lon="-71.201466880738735198974609375">
        <ele>711</ele>
        <time>2026-08-22T04:23:50.000Z</time>
        <extensions>
          <ns3:TrackPointExtension>
            <ns3:hr>127</ns3:hr>
            <ns3:cad>51</ns3:cad>
          </ns3:TrackPointExtension>
        </extensions>
      </trkpt>
      <trkpt lat="45.2566563896834850311279296875" lon="-71.20149739086627960205078125">
        <ele>711</ele>
        <time>2026-08-22T04:23:51.000Z</time>
        <extensions>
          <ns3:TrackPointExtension>
            <ns3:hr>127</ns3:hr>
            <ns3:cad>51</ns3:cad>
          </ns3:TrackPointExtension>
        </extensions>
      </trkpt>
      <trkpt lat="45.25664926506578922271728515625" lon="-71.201523877680301666259765625">
        <ele>711</ele>
        <time>2026-08-22T04:23:52.000Z</time>
        <extensions>
          <ns3:TrackPointExtension>
            <ns3:hr>126</ns3:hr>
            <ns3:cad>69</ns3:cad>
          </ns3:TrackPointExtension>
        </extensions>
      </trkpt>
      <trkpt lat="45.256643481552600860595703125" lon="-71.2015525437891483306884765625">
        <ele>711.20001220703125</ele>
        <time>2026-08-22T04:23:53.000Z</time>
        <extensions>
          <ns3:TrackPointExtension>
            <ns3:hr>125</ns3:hr>
            <ns3:cad>69</ns3:cad>
          </ns3:TrackPointExtension>
        </extensions>
      </trkpt>
      <trkpt lat="45.25663535110652446746826171875" lon="-71.2015763483941555023193359375">
        <ele>711.5999755859375</ele>
        <time>2026-08-22T04:23:54.000Z</time>
        <extensions>
          <ns3:TrackPointExtension>
            <ns3:hr>124</ns3:hr>
            <ns3:cad>69</ns3:cad>
          </ns3:TrackPointExtension>
        </extensions>
      </trkpt>
      <trkpt lat="45.25662914849817752838134765625" lon="-71.2016001529991626739501953125">
        <ele>711.79998779296875</ele>
        <time>2026-08-22T04:23:55.000Z</time>
        <extensions>
          <ns3:TrackPointExtension>
            <ns3:hr>123</ns3:hr>
            <ns3:cad>69</ns3:cad>
          </ns3:TrackPointExtension>
        </extensions>
      </trkpt>
      <trkpt lat="45.25662235915660858154296875" lon="-71.20163342915475368499755859375">
        <ele>712</ele>
        <time>2026-08-22T04:23:56.000Z</time>
        <extensions>
          <ns3:TrackPointExtension>
            <ns3:hr>123</ns3:hr>
            <ns3:cad>69</ns3:cad>
          </ns3:TrackPointExtension>
        </extensions>
      </trkpt>
      <trkpt lat="45.25662126950919628143310546875" lon="-71.20166259817779064178466796875">
        <ele>712</ele>
        <time>2026-08-22T04:23:57.000Z</time>
        <extensions>
          <ns3:TrackPointExtension>
            <ns3:hr>123</ns3:hr>
            <ns3:cad>72</ns3:cad>
          </ns3:TrackPointExtension>
        </extensions>
      </trkpt>
      <trkpt lat="45.25661875493824481964111328125" lon="-71.2016853131353855133056640625">
        <ele>712.20001220703125</ele>
        <time>2026-08-22T04:23:58.000Z</time>
        <extensions>
          <ns3:TrackPointExtension>
            <ns3:hr>123</ns3:hr>
            <ns3:cad>72</ns3:cad>
          </ns3:TrackPointExtension>
        </extensions>
      </trkpt>
      <trkpt lat="45.25661339052021503448486328125" lon="-71.20170953683555126190185546875">
        <ele>712.20001220703125</ele>
        <time>2026-08-22T04:23:59.000Z</time>
        <extensions>
          <ns3:TrackPointExtension>
            <ns3:hr>123</ns3:hr>
            <ns3:cad>75</ns3:cad>
          </ns3:TrackPointExtension>
        </extensions>
      </trkpt>
      <trkpt lat="45.25661372579634189605712890625" lon="-71.201739124953746795654296875">
        <ele>712.20001220703125</ele>
        <time>2026-08-22T04:24:00.000Z</time>
        <extensions>
          <ns3:TrackPointExtension>
            <ns3:hr>124</ns3:hr>
            <ns3:cad>75</ns3:cad>
          </ns3:TrackPointExtension>
        </extensions>
      </trkpt>
      <trkpt lat="45.2566148154437541961669921875" lon="-71.2017718143761157989501953125">
        <ele>712.20001220703125</ele>
        <time>2026-08-22T04:24:01.000Z</time>
        <extensions>
          <ns3:TrackPointExtension>
            <ns3:hr>125</ns3:hr>
            <ns3:cad>75</ns3:cad>
          </ns3:TrackPointExtension>
        </extensions>
      </trkpt>
      <trkpt lat="45.25661188177764415740966796875" lon="-71.2018086947500705718994140625">
        <ele>712.20001220703125</ele>
        <time>2026-08-22T04:24:02.000Z</time>
        <extensions>
          <ns3:TrackPointExtension>
            <ns3:hr>125</ns3:hr>
            <ns3:cad>79</ns3:cad>
          </ns3:TrackPointExtension>
        </extensions>
      </trkpt>
      <trkpt lat="45.25660936720669269561767578125" lon="-71.20184498839080333709716796875">
        <ele>712.20001220703125</ele>
        <time>2026-08-22T04:24:03.000Z</time>
        <extensions>
          <ns3:TrackPointExtension>
            <ns3:hr>126</ns3:hr>
            <ns3:cad>79</ns3:cad>
          </ns3:TrackPointExtension>
        </extensions>
      </trkpt>
      <trkpt lat="45.25660760700702667236328125" lon="-71.20188203640282154083251953125">
        <ele>712.20001220703125</ele>
        <time>2026-08-22T04:24:04.000Z</time>
        <extensions>
          <ns3:TrackPointExtension>
            <ns3:hr>127</ns3:hr>
            <ns3:cad>79</ns3:cad>
          </ns3:TrackPointExtension>
        </extensions>
      </trkpt>
      <trkpt lat="45.2566067688167095184326171875" lon="-71.20192076079547405242919921875">
        <ele>712.20001220703125</ele>
        <time>2026-08-22T04:24:05.000Z</time>
        <extensions>
          <ns3:TrackPointExtension>
            <ns3:hr>127</ns3:hr>
            <ns3:cad>78</ns3:cad>
          </ns3:TrackPointExtension>
        </extensions>
      </trkpt>
      <trkpt lat="45.25660869665443897247314453125" lon="-71.20195445604622364044189453125">
        <ele>712</ele>
        <time>2026-08-22T04:24:06.000Z</time>
        <extensions>
          <ns3:TrackPointExtension>
            <ns3:hr>128</ns3:hr>
            <ns3:cad>78</ns3:cad>
          </ns3:TrackPointExtension>
        </extensions>
      </trkpt>
      <trkpt lat="45.2566109597682952880859375" lon="-71.201987229287624359130859375">
        <ele>712</ele>
        <time>2026-08-22T04:24:07.000Z</time>
        <extensions>
          <ns3:TrackPointExtension>
            <ns3:hr>128</ns3:hr>
            <ns3:cad>76</ns3:cad>
          </ns3:TrackPointExtension>
        </extensions>
      </trkpt>
      <trkpt lat="45.256614647805690765380859375" lon="-71.20201773941516876220703125">
        <ele>712</ele>
        <time>2026-08-22T04:24:08.000Z</time>
        <extensions>
          <ns3:TrackPointExtension>
            <ns3:hr>128</ns3:hr>
            <ns3:cad>76</ns3:cad>
          </ns3:TrackPointExtension>
        </extensions>
      </trkpt>
      <trkpt lat="45.25661766529083251953125" lon="-71.20204280130565166473388671875">
        <ele>712</ele>
        <time>2026-08-22T04:24:09.000Z</time>
        <extensions>
          <ns3:TrackPointExtension>
            <ns3:hr>128</ns3:hr>
            <ns3:cad>76</ns3:cad>
          </ns3:TrackPointExtension>
        </extensions>
      </trkpt>
      <trkpt lat="45.256614983081817626953125" lon="-71.20206057094037532806396484375">
        <ele>712</ele>
        <time>2026-08-22T04:24:10.000Z</time>
        <extensions>
          <ns3:TrackPointExtension>
            <ns3:hr>129</ns3:hr>
            <ns3:cad>76</ns3:cad>
          </ns3:TrackPointExtension>
        </extensions>
      </trkpt>
      <trkpt lat="45.256609618663787841796875" lon="-71.20208169333636760711669921875">
        <ele>712</ele>
        <time>2026-08-22T04:24:11.000Z</time>
        <extensions>
          <ns3:TrackPointExtension>
            <ns3:hr>129</ns3:hr>
            <ns3:cad>76</ns3:cad>
          </ns3:TrackPointExtension>
        </extensions>
      </trkpt>
      <trkpt lat="45.2566074393689632415771484375" lon="-71.20209954679012298583984375">
        <ele>712</ele>
        <time>2026-08-22T04:24:12.000Z</time>
        <extensions>
          <ns3:TrackPointExtension>
            <ns3:hr>130</ns3:hr>
            <ns3:cad>76</ns3:cad>
          </ns3:TrackPointExtension>
        </extensions>
      </trkpt>
      <trkpt lat="45.25659947656095027923583984375" lon="-71.20212058536708354949951171875">
        <ele>712</ele>
        <time>2026-08-22T04:24:13.000Z</time>
        <extensions>
          <ns3:TrackPointExtension>
            <ns3:hr>130</ns3:hr>
            <ns3:cad>76</ns3:cad>
          </ns3:TrackPointExtension>
        </extensions>
      </trkpt>
      <trkpt lat="45.256593525409698486328125" lon="-71.2021416239440441131591796875">
        <ele>711.79998779296875</ele>
        <time>2026-08-22T04:24:14.000Z</time>
        <extensions>
          <ns3:TrackPointExtension>
            <ns3:hr>130</ns3:hr>
            <ns3:cad>57</ns3:cad>
          </ns3:TrackPointExtension>
        </extensions>
      </trkpt>
      <trkpt lat="45.2565903402864933013916015625" lon="-71.20216115377843379974365234375">
        <ele>711.79998779296875</ele>
        <time>2026-08-22T04:24:15.000Z</time>
        <extensions>
          <ns3:TrackPointExtension>
            <ns3:hr>131</ns3:hr>
            <ns3:cad>57</ns3:cad>
          </ns3:TrackPointExtension>
        </extensions>
      </trkpt>
      <trkpt lat="45.25658438913524150848388671875" lon="-71.20217607356607913970947265625">
        <ele>711.79998779296875</ele>
        <time>2026-08-22T04:24:16.000Z</time>
        <extensions>
          <ns3:TrackPointExtension>
            <ns3:hr>131</ns3:hr>
            <ns3:cad>57</ns3:cad>
          </ns3:TrackPointExtension>
        </extensions>
      </trkpt>
      <trkpt lat="45.25657919235527515411376953125" lon="-71.2021905742585659027099609375">
        <ele>711.79998779296875</ele>
        <time>2026-08-22T04:24:17.000Z</time>
        <extensions>
          <ns3:TrackPointExtension>
            <ns3:hr>134</ns3:hr>
            <ns3:cad>57</ns3:cad>
          </ns3:TrackPointExtension>
        </extensions>
      </trkpt>
      <trkpt lat="45.2565735764801502227783203125" lon="-71.20220624841749668121337890625">
        <ele>711.79998779296875</ele>
        <time>2026-08-22T04:24:18.000Z</time>
        <extensions>
          <ns3:TrackPointExtension>
            <ns3:hr>142</ns3:hr>
            <ns3:cad>57</ns3:cad>
          </ns3:TrackPointExtension>
        </extensions>
      </trkpt>
      <trkpt lat="45.25656846351921558380126953125" lon="-71.2022180669009685516357421875">
        <ele>711.79998779296875</ele>
        <time>2026-08-22T04:24:19.000Z</time>
        <extensions>
          <ns3:TrackPointExtension>
            <ns3:hr>144</ns3:hr>
            <ns3:cad>55</ns3:cad>
          </ns3:TrackPointExtension>
        </extensions>
      </trkpt>
      <trkpt lat="45.25656091980636119842529296875" lon="-71.2022247724235057830810546875">
        <ele>712</ele>
        <time>2026-08-22T04:24:20.000Z</time>
        <extensions>
          <ns3:TrackPointExtension>
            <ns3:hr>143</ns3:hr>
            <ns3:cad>55</ns3:cad>
          </ns3:TrackPointExtension>
        </extensions>
      </trkpt>
      <trkpt lat="45.25655555538833141326904296875" lon="-71.20223072357475757598876953125">
        <ele>712.20001220703125</ele>
        <time>2026-08-22T04:24:21.000Z</time>
        <extensions>
          <ns3:TrackPointExtension>
            <ns3:hr>143</ns3:hr>
            <ns3:cad>53</ns3:cad>
          </ns3:TrackPointExtension>
        </extensions>
      </trkpt>
      <trkpt lat="45.25655019097030162811279296875" lon="-71.20223122648894786834716796875">
        <ele>712.20001220703125</ele>
        <time>2026-08-22T04:24:22.000Z</time>
        <extensions>
          <ns3:TrackPointExtension>
            <ns3:hr>143</ns3:hr>
            <ns3:cad>53</ns3:cad>
          </ns3:TrackPointExtension>
        </extensions>
      </trkpt>
      <trkpt lat="45.25654415600001811981201171875" lon="-71.202236004173755645751953125">
        <ele>712.4000244140625</ele>
        <time>2026-08-22T04:24:23.000Z</time>
        <extensions>
          <ns3:TrackPointExtension>
            <ns3:hr>143</ns3:hr>
            <ns3:cad>51</ns3:cad>
          </ns3:TrackPointExtension>
        </extensions>
      </trkpt>
      <trkpt lat="45.256539545953273773193359375" lon="-71.20224765501916408538818359375">
        <ele>712.4000244140625</ele>
        <time>2026-08-22T04:24:24.000Z</time>
        <extensions>
          <ns3:TrackPointExtension>
            <ns3:hr>143</ns3:hr>
            <ns3:cad>50</ns3:cad>
          </ns3:TrackPointExtension>
        </extensions>
      </trkpt>
      <trkpt lat="45.25653384625911712646484375" lon="-71.2022589705884456634521484375">
        <ele>712.4000244140625</ele>
        <time>2026-08-22T04:24:25.000Z</time>
        <extensions>
          <ns3:TrackPointExtension>
            <ns3:hr>142</ns3:hr>
            <ns3:cad>50</ns3:cad>
          </ns3:TrackPointExtension>
        </extensions>
      </trkpt>
      <trkpt lat="45.2565303258597850799560546875" lon="-71.202272213995456695556640625">
        <ele>712.4000244140625</ele>
        <time>2026-08-22T04:24:26.000Z</time>
        <extensions>
          <ns3:TrackPointExtension>
            <ns3:hr>142</ns3:hr>
            <ns3:cad>49</ns3:cad>
          </ns3:TrackPointExtension>
        </extensions>
      </trkpt>
      <trkpt lat="45.2565259672701358795166015625" lon="-71.20228654704988002777099609375">
        <ele>712.5999755859375</ele>
        <time>2026-08-22T04:24:27.000Z</time>
        <extensions>
          <ns3:TrackPointExtension>
            <ns3:hr>142</ns3:hr>
            <ns3:cad>49</ns3:cad>
          </ns3:TrackPointExtension>
        </extensions>
      </trkpt>
      <trkpt lat="45.2565175853669643402099609375" lon="-71.20230750180780887603759765625">
        <ele>712.5999755859375</ele>
        <time>2026-08-22T04:24:28.000Z</time>
        <extensions>
          <ns3:TrackPointExtension>
            <ns3:hr>142</ns3:hr>
            <ns3:cad>46</ns3:cad>
          </ns3:TrackPointExtension>
        </extensions>
      </trkpt>
      <trkpt lat="45.25650878436863422393798828125" lon="-71.20232862420380115509033203125">
        <ele>712.5999755859375</ele>
        <time>2026-08-22T04:24:29.000Z</time>
        <extensions>
          <ns3:TrackPointExtension>
            <ns3:hr>142</ns3:hr>
            <ns3:cad>46</ns3:cad>
          </ns3:TrackPointExtension>
        </extensions>
      </trkpt>
      <trkpt lat="45.2564994804561138153076171875" lon="-71.20234639383852481842041015625">
        <ele>712.79998779296875</ele>
        <time>2026-08-22T04:24:30.000Z</time>
        <extensions>
          <ns3:TrackPointExtension>
            <ns3:hr>142</ns3:hr>
            <ns3:cad>45</ns3:cad>
          </ns3:TrackPointExtension>
        </extensions>
      </trkpt>
      <trkpt lat="45.25648833252489566802978515625" lon="-71.20236818678677082061767578125">
        <ele>713</ele>
        <time>2026-08-22T04:24:31.000Z</time>
        <extensions>
          <ns3:TrackPointExtension>
            <ns3:hr>141</ns3:hr>
            <ns3:cad>0</ns3:cad>
          </ns3:TrackPointExtension>
        </extensions>
      </trkpt>
      <trkpt lat="45.25647726841270923614501953125" lon="-71.20238914154469966888427734375">
        <ele>713.20001220703125</ele>
        <time>2026-08-22T04:24:32.000Z</time>
        <extensions>
          <ns3:TrackPointExtension>
            <ns3:hr>141</ns3:hr>
            <ns3:cad>0</ns3:cad>
          </ns3:TrackPointExtension>
        </extensions>
      </trkpt>
      <trkpt lat="45.256465114653110504150390625" lon="-71.202409006655216217041015625">
        <ele>713.20001220703125</ele>
        <time>2026-08-22T04:24:33.000Z</time>
        <extensions>
          <ns3:TrackPointExtension>
            <ns3:hr>140</ns3:hr>
            <ns3:cad>76</ns3:cad>
          </ns3:TrackPointExtension>
        </extensions>
      </trkpt>
      <trkpt lat="45.25645011104643344879150390625" lon="-71.2024247646331787109375">
        <ele>713.4000244140625</ele>
        <time>2026-08-22T04:24:34.000Z</time>
        <extensions>
          <ns3:TrackPointExtension>
            <ns3:hr>140</ns3:hr>
            <ns3:cad>76</ns3:cad>
          </ns3:TrackPointExtension>
        </extensions>
      </trkpt>
      <trkpt lat="45.25643116794526576995849609375" lon="-71.202434487640857696533203125">
        <ele>713.5999755859375</ele>
        <time>2026-08-22T04:24:35.000Z</time>
        <extensions>
          <ns3:TrackPointExtension>
            <ns3:hr>140</ns3:hr>
            <ns3:cad>76</ns3:cad>
          </ns3:TrackPointExtension>
        </extensions>
      </trkpt>
      <trkpt lat="45.25642429478466510772705078125" lon="-71.2024497427046298980712890625">
        <ele>713.79998779296875</ele>
        <time>2026-08-22T04:24:36.000Z</time>
        <extensions>
          <ns3:TrackPointExtension>
            <ns3:hr>139</ns3:hr>
            <ns3:cad>76</ns3:cad>
          </ns3:TrackPointExtension>
        </extensions>
      </trkpt>
      <trkpt lat="45.2564159967005252838134765625" lon="-71.20246893726289272308349609375">
        <ele>713.79998779296875</ele>
        <time>2026-08-22T04:24:37.000Z</time>
        <extensions>
          <ns3:TrackPointExtension>
            <ns3:hr>140</ns3:hr>
            <ns3:cad>76</ns3:cad>
          </ns3:TrackPointExtension>
        </extensions>
      </trkpt>
      <trkpt lat="45.25640484876930713653564453125" lon="-71.20248083956539630889892578125">
        <ele>714</ele>
        <time>2026-08-22T04:24:38.000Z</time>
        <extensions>
          <ns3:TrackPointExtension>
            <ns3:hr>140</ns3:hr>
            <ns3:cad>73</ns3:cad>
          </ns3:TrackPointExtension>
        </extensions>
      </trkpt>
      <trkpt lat="45.25639303028583526611328125" lon="-71.20249073021113872528076171875">
        <ele>714</ele>
        <time>2026-08-22T04:24:39.000Z</time>
        <extensions>
          <ns3:TrackPointExtension>
            <ns3:hr>141</ns3:hr>
            <ns3:cad>73</ns3:cad>
          </ns3:TrackPointExtension>
        </extensions>
      </trkpt>
      <trkpt lat="45.25638406164944171905517578125" lon="-71.202496849000453948974609375">
        <ele>714</ele>
        <time>2026-08-22T04:24:40.000Z</time>
        <extensions>
          <ns3:TrackPointExtension>
            <ns3:hr>141</ns3:hr>
            <ns3:cad>55</ns3:cad>
          </ns3:TrackPointExtension>
        </extensions>
      </trkpt>
      <trkpt lat="45.25637819431722164154052734375" lon="-71.20250363834202289581298828125">
        <ele>714</ele>
        <time>2026-08-22T04:24:41.000Z</time>
        <extensions>
          <ns3:TrackPointExtension>
            <ns3:hr>141</ns3:hr>
            <ns3:cad>55</ns3:cad>
          </ns3:TrackPointExtension>
        </extensions>
      </trkpt>
      <trkpt lat="45.25637098588049411773681640625" lon="-71.2025100924074649810791015625">
        <ele>714</ele>
        <time>2026-08-22T04:24:42.000Z</time>
        <extensions>
          <ns3:TrackPointExtension>
            <ns3:hr>143</ns3:hr>
            <ns3:cad>55</ns3:cad>
          </ns3:TrackPointExtension>
        </extensions>
      </trkpt>
      <trkpt lat="45.25636696256697177886962890625" lon="-71.20251118205487728118896484375">
        <ele>714</ele>
        <time>2026-08-22T04:24:43.000Z</time>
        <extensions>
          <ns3:TrackPointExtension>
            <ns3:hr>144</ns3:hr>
            <ns3:cad>0</ns3:cad>
          </ns3:TrackPointExtension>
        </extensions>
      </trkpt>
      <trkpt lat="45.2563680522143840789794921875" lon="-71.2025124393403530120849609375">
        <ele>714</ele>
        <time>2026-08-22T04:24:44.000Z</time>
        <extensions>
          <ns3:TrackPointExtension>
            <ns3:hr>144</ns3:hr>
            <ns3:cad>0</ns3:cad>
          </ns3:TrackPointExtension>
        </extensions>
      </trkpt>
      <trkpt lat="45.2563663758337497711181640625" lon="-71.20251185260713100433349609375">
        <ele>714</ele>
        <time>2026-08-22T04:24:45.000Z</time>
        <extensions>
          <ns3:TrackPointExtension>
            <ns3:hr>143</ns3:hr>
            <ns3:cad>0</ns3:cad>
          </ns3:TrackPointExtension>
        </extensions>
      </trkpt>
      <trkpt lat="45.25636394508183002471923828125" lon="-71.20251453481614589691162109375">
        <ele>714</ele>
        <time>2026-08-22T04:24:46.000Z</time>
        <extensions>
          <ns3:TrackPointExtension>
            <ns3:hr>142</ns3:hr>
            <ns3:cad>0</ns3:cad>
          </ns3:TrackPointExtension>
        </extensions>
      </trkpt>
      <trkpt lat="45.2563586644828319549560546875" lon="-71.202515624463558197021484375">
        <ele>714</ele>
        <time>2026-08-22T04:24:47.000Z</time>
        <extensions>
          <ns3:TrackPointExtension>
            <ns3:hr>142</ns3:hr>
            <ns3:cad>0</ns3:cad>
          </ns3:TrackPointExtension>
        </extensions>
      </trkpt>
      <trkpt lat="45.25635288096964359283447265625" lon="-71.20252199470996856689453125">
        <ele>714.20001220703125</ele>
        <time>2026-08-22T04:24:48.000Z</time>
        <extensions>
          <ns3:TrackPointExtension>
            <ns3:hr>142</ns3:hr>
            <ns3:cad>0</ns3:cad>
          </ns3:TrackPointExtension>
        </extensions>
      </trkpt>
      <trkpt lat="45.25635690428316593170166015625" lon="-71.20254454202950000762939453125">
        <ele>714.20001220703125</ele>
        <time>2026-08-22T04:24:49.000Z</time>
        <extensions>
          <ns3:TrackPointExtension>
            <ns3:hr>142</ns3:hr>
            <ns3:cad>0</ns3:cad>
          </ns3:TrackPointExtension>
        </extensions>
      </trkpt>
      <trkpt lat="45.25637215934693813323974609375" lon="-71.20258343406021595001220703125">
        <ele>714.20001220703125</ele>
        <time>2026-08-22T04:24:50.000Z</time>
        <extensions>
          <ns3:TrackPointExtension>
            <ns3:hr>142</ns3:hr>
            <ns3:cad>64</ns3:cad>
          </ns3:TrackPointExtension>
        </extensions>
      </trkpt>
      <trkpt lat="45.25637953542172908782958984375" lon="-71.20261377654969692230224609375">
        <ele>714.20001220703125</ele>
        <time>2026-08-22T04:24:51.000Z</time>
        <extensions>
          <ns3:TrackPointExtension>
            <ns3:hr>142</ns3:hr>
            <ns3:cad>64</ns3:cad>
          </ns3:TrackPointExtension>
        </extensions>
      </trkpt>
      <trkpt lat="45.2563807927072048187255859375" lon="-71.202640347182750701904296875">
        <ele>714.20001220703125</ele>
        <time>2026-08-22T04:24:52.000Z</time>
        <extensions>
          <ns3:TrackPointExtension>
            <ns3:hr>142</ns3:hr>
            <ns3:cad>64</ns3:cad>
          </ns3:TrackPointExtension>
        </extensions>
      </trkpt>
      <trkpt lat="45.2563801221549510955810546875" lon="-71.2026737071573734283447265625">
        <ele>714.20001220703125</ele>
        <time>2026-08-22T04:24:53.000Z</time>
        <extensions>
          <ns3:TrackPointExtension>
            <ns3:hr>142</ns3:hr>
            <ns3:cad>64</ns3:cad>
          </ns3:TrackPointExtension>
        </extensions>
      </trkpt>
      <trkpt lat="45.25638003833591938018798828125" lon="-71.2027050554752349853515625">
        <ele>714</ele>
        <time>2026-08-22T04:24:54.000Z</time>
        <extensions>
          <ns3:TrackPointExtension>
            <ns3:hr>142</ns3:hr>
            <ns3:cad>78</ns3:cad>
          </ns3:TrackPointExtension>
        </extensions>
      </trkpt>
      <trkpt lat="45.25638204999268054962158203125" lon="-71.20273590087890625">
        <ele>714</ele>
        <time>2026-08-22T04:24:55.000Z</time>
        <extensions>
          <ns3:TrackPointExtension>
            <ns3:hr>142</ns3:hr>
            <ns3:cad>78</ns3:cad>
          </ns3:TrackPointExtension>
        </extensions>
      </trkpt>
      <trkpt lat="45.25638288818299770355224609375" lon="-71.20276414789259433746337890625">
        <ele>713.79998779296875</ele>
        <time>2026-08-22T04:24:56.000Z</time>
        <extensions>
          <ns3:TrackPointExtension>
            <ns3:hr>141</ns3:hr>
            <ns3:cad>78</ns3:cad>
          </ns3:TrackPointExtension>
        </extensions>
      </trkpt>
      <trkpt lat="45.25638364255428314208984375" lon="-71.20279465802013874053955078125">
        <ele>713.5999755859375</ele>
        <time>2026-08-22T04:24:57.000Z</time>
        <extensions>
          <ns3:TrackPointExtension>
            <ns3:hr>142</ns3:hr>
            <ns3:cad>79</ns3:cad>
          </ns3:TrackPointExtension>
        </extensions>
      </trkpt>
      <trkpt lat="45.2563844807446002960205078125" lon="-71.20282567106187343597412109375">
        <ele>713.4000244140625</ele>
        <time>2026-08-22T04:24:58.000Z</time>
        <extensions>
          <ns3:TrackPointExtension>
            <ns3:hr>142</ns3:hr>
            <ns3:cad>79</ns3:cad>
          </ns3:TrackPointExtension>
        </extensions>
      </trkpt>
      <trkpt lat="45.25639428757131099700927734375" lon="-71.2028514035046100616455078125">
        <ele>713.4000244140625</ele>
        <time>2026-08-22T04:24:59.000Z</time>
        <extensions>
          <ns3:TrackPointExtension>
            <ns3:hr>142</ns3:hr>
            <ns3:cad>78</ns3:cad>
          </ns3:TrackPointExtension>
        </extensions>
      </trkpt>
      <trkpt lat="45.25639780797064304351806640625" lon="-71.202882416546344757080078125">
        <ele>713.20001220703125</ele>
        <time>2026-08-22T04:25:00.000Z</time>
        <extensions>
          <ns3:TrackPointExtension>
            <ns3:hr>141</ns3:hr>
            <ns3:cad>77</ns3:cad>
          </ns3:TrackPointExtension>
        </extensions>
      </trkpt>
      <trkpt lat="45.25639998726546764373779296875" lon="-71.20290529914200305938720703125">
        <ele>713</ele>
        <time>2026-08-22T04:25:01.000Z</time>
        <extensions>
          <ns3:TrackPointExtension>
            <ns3:hr>141</ns3:hr>
            <ns3:cad>77</ns3:cad>
          </ns3:TrackPointExtension>
        </extensions>
      </trkpt>
      <trkpt lat="45.25640199892222881317138671875" lon="-71.2029271759092807769775390625">
        <ele>713</ele>
        <time>2026-08-22T04:25:02.000Z</time>
        <extensions>
          <ns3:TrackPointExtension>
            <ns3:hr>141</ns3:hr>
            <ns3:cad>77</ns3:cad>
          </ns3:TrackPointExtension>
        </extensions>
      </trkpt>
      <trkpt lat="45.25640635751187801361083984375" lon="-71.20294519700109958648681640625">
        <ele>712.79998779296875</ele>
        <time>2026-08-22T04:25:03.000Z</time>
        <extensions>
          <ns3:TrackPointExtension>
            <ns3:hr>141</ns3:hr>
            <ns3:cad>77</ns3:cad>
          </ns3:TrackPointExtension>
        </extensions>
      </trkpt>
      <trkpt lat="45.25640769861638545989990234375" lon="-71.20296296663582324981689453125">
        <ele>712.5999755859375</ele>
        <time>2026-08-22T04:25:04.000Z</time>
        <extensions>
          <ns3:TrackPointExtension>
            <ns3:hr>141</ns3:hr>
            <ns3:cad>71</ns3:cad>
          </ns3:TrackPointExtension>
        </extensions>
      </trkpt>
      <trkpt lat="45.256402753293514251708984375" lon="-71.20297285728156566619873046875">
        <ele>712.4000244140625</ele>
        <time>2026-08-22T04:25:05.000Z</time>
        <extensions>
          <ns3:TrackPointExtension>
            <ns3:hr>140</ns3:hr>
            <ns3:cad>71</ns3:cad>
          </ns3:TrackPointExtension>
        </extensions>
      </trkpt>
      <trkpt lat="45.25639914907515048980712890625" lon="-71.202980987727642059326171875">
        <ele>712.4000244140625</ele>
        <time>2026-08-22T04:25:06.000Z</time>
        <extensions>
          <ns3:TrackPointExtension>
            <ns3:hr>140</ns3:hr>
            <ns3:cad>71</ns3:cad>
          </ns3:TrackPointExtension>
        </extensions>
      </trkpt>
      <trkpt lat="45.2563995681703090667724609375" lon="-71.20297755114734172821044921875">
        <ele>712.4000244140625</ele>
        <time>2026-08-22T04:25:07.000Z</time>
        <extensions>
          <ns3:TrackPointExtension>
            <ns3:hr>140</ns3:hr>
            <ns3:cad>0</ns3:cad>
          </ns3:TrackPointExtension>
        </extensions>
      </trkpt>
      <trkpt lat="45.25640199892222881317138671875" lon="-71.20297436602413654327392578125">
        <ele>712.4000244140625</ele>
        <time>2026-08-22T04:25:08.000Z</time>
        <extensions>
          <ns3:TrackPointExtension>
            <ns3:hr>140</ns3:hr>
            <ns3:cad>0</ns3:cad>
          </ns3:TrackPointExtension>
        </extensions>
      </trkpt>
      <trkpt lat="45.2564002387225627899169921875" lon="-71.2029732763767242431640625">
        <ele>712.4000244140625</ele>
        <time>2026-08-22T04:25:09.000Z</time>
        <extensions>
          <ns3:TrackPointExtension>
            <ns3:hr>140</ns3:hr>
            <ns3:cad>0</ns3:cad>
          </ns3:TrackPointExtension>
        </extensions>
      </trkpt>
      <trkpt lat="45.2564002387225627899169921875" lon="-71.2029732763767242431640625">
        <ele>712.4000244140625</ele>
        <time>2026-08-22T04:25:10.000Z</time>
        <extensions>
          <ns3:TrackPointExtension>
            <ns3:hr>140</ns3:hr>
            <ns3:cad>0</ns3:cad>
          </ns3:TrackPointExtension>
        </extensions>
      </trkpt>
      <trkpt lat="45.2564002387225627899169921875" lon="-71.2029732763767242431640625">
        <ele>712.4000244140625</ele>
        <time>2026-08-22T04:25:11.000Z</time>
        <extensions>
          <ns3:TrackPointExtension>
            <ns3:hr>139</ns3:hr>
            <ns3:cad>0</ns3:cad>
          </ns3:TrackPointExtension>
        </extensions>
      </trkpt>
      <trkpt lat="45.2564002387225627899169921875" lon="-71.2029732763767242431640625">
        <ele>712.4000244140625</ele>
        <time>2026-08-22T04:25:12.000Z</time>
        <extensions>
          <ns3:TrackPointExtension>
            <ns3:hr>138</ns3:hr>
            <ns3:cad>0</ns3:cad>
          </ns3:TrackPointExtension>
        </extensions>
      </trkpt>
      <trkpt lat="45.2564002387225627899169921875" lon="-71.2029732763767242431640625">
        <ele>712.4000244140625</ele>
        <time>2026-08-22T04:25:13.000Z</time>
        <extensions>
          <ns3:TrackPointExtension>
            <ns3:hr>137</ns3:hr>
            <ns3:cad>0</ns3:cad>
          </ns3:TrackPointExtension>
        </extensions>
      </trkpt>
      <trkpt lat="45.2564002387225627899169921875" lon="-71.2029732763767242431640625">
        <ele>712.4000244140625</ele>
        <time>2026-08-22T04:25:14.000Z</time>
        <extensions>
          <ns3:TrackPointExtension>
            <ns3:hr>136</ns3:hr>
            <ns3:cad>0</ns3:cad>
          </ns3:TrackPointExtension>
        </extensions>
      </trkpt>
      <trkpt lat="45.2564002387225627899169921875" lon="-71.2029732763767242431640625">
        <ele>712.4000244140625</ele>
        <time>2026-08-22T04:25:15.000Z</time>
        <extensions>
          <ns3:TrackPointExtension>
            <ns3:hr>136</ns3:hr>
            <ns3:cad>0</ns3:cad>
          </ns3:TrackPointExtension>
        </extensions>
      </trkpt>
      <trkpt lat="45.256400406360626220703125" lon="-71.20297185145318508148193359375">
        <ele>712.4000244140625</ele>
        <time>2026-08-22T04:25:16.000Z</time>
        <extensions>
          <ns3:TrackPointExtension>
            <ns3:hr>136</ns3:hr>
            <ns3:cad>0</ns3:cad>
          </ns3:TrackPointExtension>
        </extensions>
      </trkpt>
      <trkpt lat="45.256391353905200958251953125" lon="-71.20296724140644073486328125">
        <ele>712.4000244140625</ele>
        <time>2026-08-22T04:25:17.000Z</time>
        <extensions>
          <ns3:TrackPointExtension>
            <ns3:hr>136</ns3:hr>
            <ns3:cad>0</ns3:cad>
          </ns3:TrackPointExtension>
        </extensions>
      </trkpt>
      <trkpt lat="45.25637702085077762603759765625" lon="-71.20296497829258441925048828125">
        <ele>712.4000244140625</ele>
        <time>2026-08-22T04:25:18.000Z</time>
        <extensions>
          <ns3:TrackPointExtension>
            <ns3:hr>136</ns3:hr>
            <ns3:cad>50</ns3:cad>
          </ns3:TrackPointExtension>
        </extensions>
      </trkpt>
      <trkpt lat="45.25636545382440090179443359375" lon="-71.20296590030193328857421875">
        <ele>712.4000244140625</ele>
        <time>2026-08-22T04:25:19.000Z</time>
        <extensions>
          <ns3:TrackPointExtension>
            <ns3:hr>135</ns3:hr>
            <ns3:cad>50</ns3:cad>
          </ns3:TrackPointExtension>
        </extensions>
      </trkpt>
      <trkpt lat="45.25635438971221446990966796875" lon="-71.2029633857309818267822265625">
        <ele>712.4000244140625</ele>
        <time>2026-08-22T04:25:20.000Z</time>
        <extensions>
          <ns3:TrackPointExtension>
            <ns3:hr>135</ns3:hr>
            <ns3:cad>50</ns3:cad>
          </ns3:TrackPointExtension>
        </extensions>
      </trkpt>
      <trkpt lat="45.256337039172649383544921875" lon="-71.20296564884483814239501953125">
        <ele>712.5999755859375</ele>
        <time>2026-08-22T04:25:21.000Z</time>
        <extensions>
          <ns3:TrackPointExtension>
            <ns3:hr>135</ns3:hr>
            <ns3:cad>50</ns3:cad>
          </ns3:TrackPointExtension>
        </extensions>
      </trkpt>
      <trkpt lat="45.2563234604895114898681640625" lon="-71.202966906130313873291015625">
        <ele>712.79998779296875</ele>
        <time>2026-08-22T04:25:22.000Z</time>
        <extensions>
          <ns3:TrackPointExtension>
            <ns3:hr>134</ns3:hr>
            <ns3:cad>50</ns3:cad>
          </ns3:TrackPointExtension>
        </extensions>
      </trkpt>
      <trkpt lat="45.2563132345676422119140625" lon="-71.20297134853899478912353515625">
        <ele>713</ele>
        <time>2026-08-22T04:25:23.000Z</time>
        <extensions>
          <ns3:TrackPointExtension>
            <ns3:hr>135</ns3:hr>
            <ns3:cad>50</ns3:cad>
          </ns3:TrackPointExtension>
        </extensions>
      </trkpt>
      <trkpt lat="45.25630292482674121856689453125" lon="-71.2029754556715488433837890625">
        <ele>713.20001220703125</ele>
        <time>2026-08-22T04:25:24.000Z</time>
        <extensions>
          <ns3:TrackPointExtension>
            <ns3:hr>135</ns3:hr>
            <ns3:cad>50</ns3:cad>
          </ns3:TrackPointExtension>
        </extensions>
      </trkpt>
      <trkpt lat="45.2562969736754894256591796875" lon="-71.20297369547188282012939453125">
        <ele>713.4000244140625</ele>
        <time>2026-08-22T04:25:25.000Z</time>
        <extensions>
          <ns3:TrackPointExtension>
            <ns3:hr>135</ns3:hr>
            <ns3:cad>50</ns3:cad>
          </ns3:TrackPointExtension>
        </extensions>
      </trkpt>
      <trkpt lat="45.25628766976296901702880859375" lon="-71.20297604240477085113525390625">
        <ele>713.4000244140625</ele>
        <time>2026-08-22T04:25:26.000Z</time>
        <extensions>
          <ns3:TrackPointExtension>
            <ns3:hr>134</ns3:hr>
            <ns3:cad>0</ns3:cad>
          </ns3:TrackPointExtension>
        </extensions>
      </trkpt>
      <trkpt lat="45.25627358816564083099365234375" lon="-71.20297989808022975921630859375">
        <ele>713.4000244140625</ele>
        <time>2026-08-22T04:25:27.000Z</time>
        <extensions>
          <ns3:TrackPointExtension>
            <ns3:hr>135</ns3:hr>
            <ns3:cad>0</ns3:cad>
          </ns3:TrackPointExtension>
        </extensions>
      </trkpt>
      <trkpt lat="45.256262607872486114501953125" lon="-71.20298660360276699066162109375">
        <ele>713.4000244140625</ele>
        <time>2026-08-22T04:25:28.000Z</time>
        <extensions>
          <ns3:TrackPointExtension>
            <ns3:hr>135</ns3:hr>
            <ns3:cad>43</ns3:cad>
          </ns3:TrackPointExtension>
        </extensions>
      </trkpt>
      <trkpt lat="45.2562488615512847900390625" lon="-71.2029935605823993682861328125">
        <ele>713.4000244140625</ele>
        <time>2026-08-22T04:25:29.000Z</time>
        <extensions>
          <ns3:TrackPointExtension>
            <ns3:hr>135</ns3:hr>
            <ns3:cad>43</ns3:cad>
          </ns3:TrackPointExtension>
        </extensions>
      </trkpt>
      <trkpt lat="45.2562367916107177734375" lon="-71.2029982544481754302978515625">
        <ele>713.5999755859375</ele>
        <time>2026-08-22T04:25:30.000Z</time>
        <extensions>
          <ns3:TrackPointExtension>
            <ns3:hr>136</ns3:hr>
            <ns3:cad>52</ns3:cad>
          </ns3:TrackPointExtension>
        </extensions>
      </trkpt>
      <trkpt lat="45.25622405111789703369140625" lon="-71.20300554670393466949462890625">
        <ele>713.5999755859375</ele>
        <time>2026-08-22T04:25:31.000Z</time>
        <extensions>
          <ns3:TrackPointExtension>
            <ns3:hr>136</ns3:hr>
            <ns3:cad>52</ns3:cad>
          </ns3:TrackPointExtension>
        </extensions>
      </trkpt>
      <trkpt lat="45.2562128193676471710205078125" lon="-71.20301510207355022430419921875">
        <ele>713.79998779296875</ele>
        <time>2026-08-22T04:25:32.000Z</time>
        <extensions>
          <ns3:TrackPointExtension>
            <ns3:hr>137</ns3:hr>
            <ns3:cad>52</ns3:cad>
          </ns3:TrackPointExtension>
        </extensions>
      </trkpt>
      <trkpt lat="45.2562032639980316162109375" lon="-71.20302817784249782562255859375">
        <ele>713.79998779296875</ele>
        <time>2026-08-22T04:25:33.000Z</time>
        <extensions>
          <ns3:TrackPointExtension>
            <ns3:hr>139</ns3:hr>
            <ns3:cad>0</ns3:cad>
          </ns3:TrackPointExtension>
        </extensions>
      </trkpt>
      <trkpt lat="45.256200246512889862060546875" lon="-71.20303622446954250335693359375">
        <ele>713.79998779296875</ele>
        <time>2026-08-22T04:25:34.000Z</time>
        <extensions>
          <ns3:TrackPointExtension>
            <ns3:hr>139</ns3:hr>
            <ns3:cad>0</ns3:cad>
          </ns3:TrackPointExtension>
        </extensions>
      </trkpt>
      <trkpt lat="45.2562024258077144622802734375" lon="-71.20304443873465061187744140625">
        <ele>713.79998779296875</ele>
        <time>2026-08-22T04:25:35.000Z</time>
        <extensions>
          <ns3:TrackPointExtension>
            <ns3:hr>139</ns3:hr>
            <ns3:cad>0</ns3:cad>
          </ns3:TrackPointExtension>
        </extensions>
      </trkpt>
      <trkpt lat="45.2562005817890167236328125" lon="-71.20305315591394901275634765625">
        <ele>714</ele>
        <time>2026-08-22T04:25:36.000Z</time>
        <extensions>
          <ns3:TrackPointExtension>
            <ns3:hr>139</ns3:hr>
            <ns3:cad>0</ns3:cad>
          </ns3:TrackPointExtension>
        </extensions>
      </trkpt>
      <trkpt lat="45.25619396008551120758056640625" lon="-71.20306648313999176025390625">
        <ele>713.79998779296875</ele>
        <time>2026-08-22T04:25:37.000Z</time>
        <extensions>
          <ns3:TrackPointExtension>
            <ns3:hr>140</ns3:hr>
            <ns3:cad>0</ns3:cad>
          </ns3:TrackPointExtension>
        </extensions>
      </trkpt>
      <trkpt lat="45.25618105195462703704833984375" lon="-71.20308433659374713897705078125">
        <ele>713.79998779296875</ele>
        <time>2026-08-22T04:25:38.000Z</time>
        <extensions>
          <ns3:TrackPointExtension>
            <ns3:hr>141</ns3:hr>
            <ns3:cad>51</ns3:cad>
          </ns3:TrackPointExtension>
        </extensions>
      </trkpt>
      <trkpt lat="45.256175100803375244140625" lon="-71.2030911259353160858154296875">
        <ele>714</ele>
        <time>2026-08-22T04:25:39.000Z</time>
        <extensions>
          <ns3:TrackPointExtension>
            <ns3:hr>141</ns3:hr>
            <ns3:cad>51</ns3:cad>
          </ns3:TrackPointExtension>
        </extensions>
      </trkpt>
      <trkpt lat="45.25617032311856746673583984375" lon="-71.203096993267536163330078125">
        <ele>714</ele>
        <time>2026-08-22T04:25:40.000Z</time>
        <extensions>
          <ns3:TrackPointExtension>
            <ns3:hr>141</ns3:hr>
            <ns3:cad>51</ns3:cad>
          </ns3:TrackPointExtension>
        </extensions>
      </trkpt>
      <trkpt lat="45.2561665512621402740478515625" lon="-71.2030998431146144866943359375">
        <ele>714</ele>
        <time>2026-08-22T04:25:41.000Z</time>
        <extensions>
          <ns3:TrackPointExtension>
            <ns3:hr>141</ns3:hr>
            <ns3:cad>51</ns3:cad>
          </ns3:TrackPointExtension>
        </extensions>
      </trkpt>
      <trkpt lat="45.256159007549285888671875" lon="-71.20310395024716854095458984375">
        <ele>714</ele>
        <time>2026-08-22T04:25:42.000Z</time>
        <extensions>
          <ns3:TrackPointExtension>
            <ns3:hr>141</ns3:hr>
            <ns3:cad>51</ns3:cad>
          </ns3:TrackPointExtension>
        </extensions>
      </trkpt>
      <trkpt lat="45.25615439750254154205322265625" lon="-71.20310612954199314117431640625">
        <ele>714</ele>
        <time>2026-08-22T04:25:43.000Z</time>
        <extensions>
          <ns3:TrackPointExtension>
            <ns3:hr>141</ns3:hr>
            <ns3:cad>51</ns3:cad>
          </ns3:TrackPointExtension>
        </extensions>
      </trkpt>
      <trkpt lat="45.25615473277866840362548828125" lon="-71.203105039894580841064453125">
        <ele>714</ele>
        <time>2026-08-22T04:25:44.000Z</time>
        <extensions>
          <ns3:TrackPointExtension>
            <ns3:hr>141</ns3:hr>
            <ns3:cad>0</ns3:cad>
          </ns3:TrackPointExtension>
        </extensions>
      </trkpt>
      <trkpt lat="45.256150625646114349365234375" lon="-71.2031085602939128875732421875">
        <ele>714.20001220703125</ele>
        <time>2026-08-22T04:25:45.000Z</time>
        <extensions>
          <ns3:TrackPointExtension>
            <ns3:hr>141</ns3:hr>
            <ns3:cad>0</ns3:cad>
          </ns3:TrackPointExtension>
        </extensions>
      </trkpt>
      <trkpt lat="45.256151966750621795654296875" lon="-71.20310830883681774139404296875">
        <ele>714.20001220703125</ele>
        <time>2026-08-22T04:25:46.000Z</time>
        <extensions>
          <ns3:TrackPointExtension>
            <ns3:hr>141</ns3:hr>
            <ns3:cad>0</ns3:cad>
          </ns3:TrackPointExtension>
        </extensions>
      </trkpt>
      <trkpt lat="45.25615406222641468048095703125" lon="-71.2031092308461666107177734375">
        <ele>714.20001220703125</ele>
        <time>2026-08-22T04:25:47.000Z</time>
        <extensions>
          <ns3:TrackPointExtension>
            <ns3:hr>142</ns3:hr>
            <ns3:cad>0</ns3:cad>
          </ns3:TrackPointExtension>
        </extensions>
      </trkpt>
      <trkpt lat="45.25615104474127292633056640625" lon="-71.20311216451227664947509765625">
        <ele>714.20001220703125</ele>
        <time>2026-08-22T04:25:48.000Z</time>
        <extensions>
          <ns3:TrackPointExtension>
            <ns3:hr>141</ns3:hr>
            <ns3:cad>0</ns3:cad>
          </ns3:TrackPointExtension>
        </extensions>
      </trkpt>
      <trkpt lat="45.256144590675830841064453125" lon="-71.2031236477196216583251953125">
        <ele>714.4000244140625</ele>
        <time>2026-08-22T04:25:49.000Z</time>
        <extensions>
          <ns3:TrackPointExtension>
            <ns3:hr>141</ns3:hr>
            <ns3:cad>0</ns3:cad>
          </ns3:TrackPointExtension>
        </extensions>
      </trkpt>
      <trkpt lat="45.25614492595195770263671875" lon="-71.20313412509858608245849609375">
        <ele>714.20001220703125</ele>
        <time>2026-08-22T04:25:50.000Z</time>
        <extensions>
          <ns3:TrackPointExtension>
            <ns3:hr>141</ns3:hr>
            <ns3:cad>0</ns3:cad>
          </ns3:TrackPointExtension>
        </extensions>
      </trkpt>
      <trkpt lat="45.25614048354327678680419921875" lon="-71.203140579164028167724609375">
        <ele>714.20001220703125</ele>
        <time>2026-08-22T04:25:51.000Z</time>
        <extensions>
          <ns3:TrackPointExtension>
            <ns3:hr>142</ns3:hr>
            <ns3:cad>0</ns3:cad>
          </ns3:TrackPointExtension>
        </extensions>
      </trkpt>
      <trkpt lat="45.2561353705823421478271484375" lon="-71.2031383998692035675048828125">
        <ele>714.20001220703125</ele>
        <time>2026-08-22T04:25:52.000Z</time>
        <extensions>
          <ns3:TrackPointExtension>
            <ns3:hr>142</ns3:hr>
            <ns3:cad>0</ns3:cad>
          </ns3:TrackPointExtension>
        </extensions>
      </trkpt>
      <trkpt lat="45.256128497421741485595703125" lon="-71.203142590820789337158203125">
        <ele>714.4000244140625</ele>
        <time>2026-08-22T04:25:53.000Z</time>
        <extensions>
          <ns3:TrackPointExtension>
            <ns3:hr>142</ns3:hr>
            <ns3:cad>0</ns3:cad>
          </ns3:TrackPointExtension>
        </extensions>
      </trkpt>
      <trkpt lat="45.256116427481174468994140625" lon="-71.20315608568489551544189453125">
        <ele>714.4000244140625</ele>
        <time>2026-08-22T04:25:54.000Z</time>
        <extensions>
          <ns3:TrackPointExtension>
            <ns3:hr>142</ns3:hr>
            <ns3:cad>0</ns3:cad>
          </ns3:TrackPointExtension>
        </extensions>
      </trkpt>
      <trkpt lat="45.2561082132160663604736328125" lon="-71.2031689099967479705810546875">
        <ele>714.4000244140625</ele>
        <time>2026-08-22T04:25:55.000Z</time>
        <extensions>
          <ns3:TrackPointExtension>
            <ns3:hr>142</ns3:hr>
            <ns3:cad>0</ns3:cad>
          </ns3:TrackPointExtension>
        </extensions>
      </trkpt>
      <trkpt lat="45.25610494427382946014404296875" lon="-71.20317251421511173248291015625">
        <ele>714.5999755859375</ele>
        <time>2026-08-22T04:25:56.000Z</time>
        <extensions>
          <ns3:TrackPointExtension>
            <ns3:hr>143</ns3:hr>
            <ns3:cad>0</ns3:cad>
          </ns3:TrackPointExtension>
        </extensions>
      </trkpt>
      <trkpt lat="45.25610444135963916778564453125" lon="-71.203174777328968048095703125">
        <ele>714.5999755859375</ele>
        <time>2026-08-22T04:25:57.000Z</time>
        <extensions>
          <ns3:TrackPointExtension>
            <ns3:hr>142</ns3:hr>
            <ns3:cad>0</ns3:cad>
          </ns3:TrackPointExtension>
        </extensions>
      </trkpt>
      <trkpt lat="45.25610276497900485992431640625" lon="-71.203175447881221771240234375">
        <ele>714.5999755859375</ele>
        <time>2026-08-22T04:25:58.000Z</time>
        <extensions>
          <ns3:TrackPointExtension>
            <ns3:hr>142</ns3:hr>
            <ns3:cad>0</ns3:cad>
          </ns3:TrackPointExtension>
        </extensions>
      </trkpt>
      <trkpt lat="45.25610066950321197509765625" lon="-71.203178465366363525390625">
        <ele>714.5999755859375</ele>
        <time>2026-08-22T04:25:59.000Z</time>
        <extensions>
          <ns3:TrackPointExtension>
            <ns3:hr>143</ns3:hr>
            <ns3:cad>0</ns3:cad>
          </ns3:TrackPointExtension>
        </extensions>
      </trkpt>
      <trkpt lat="45.2560981549322605133056640625" lon="-71.20318307541310787200927734375">
        <ele>714.4000244140625</ele>
        <time>2026-08-22T04:26:00.000Z</time>
        <extensions>
          <ns3:TrackPointExtension>
            <ns3:hr>143</ns3:hr>
            <ns3:cad>0</ns3:cad>
          </ns3:TrackPointExtension>
        </extensions>
      </trkpt>
      <trkpt lat="45.2560971491038799285888671875" lon="-71.203190200030803680419921875">
        <ele>714.4000244140625</ele>
        <time>2026-08-22T04:26:01.000Z</time>
        <extensions>
          <ns3:TrackPointExtension>
            <ns3:hr>143</ns3:hr>
            <ns3:cad>0</ns3:cad>
          </ns3:TrackPointExtension>
        </extensions>
      </trkpt>
      <trkpt lat="45.25609639473259449005126953125" lon="-71.203199923038482666015625">
        <ele>714.4000244140625</ele>
        <time>2026-08-22T04:26:02.000Z</time>
        <extensions>
          <ns3:TrackPointExtension>
            <ns3:hr>144</ns3:hr>
            <ns3:cad>0</ns3:cad>
          </ns3:TrackPointExtension>
        </extensions>
      </trkpt>
      <trkpt lat="45.25609287433326244354248046875" lon="-71.20321023277938365936279296875">
        <ele>714.4000244140625</ele>
        <time>2026-08-22T04:26:03.000Z</time>
        <extensions>
          <ns3:TrackPointExtension>
            <ns3:hr>144</ns3:hr>
            <ns3:cad>0</ns3:cad>
          </ns3:TrackPointExtension>
        </extensions>
      </trkpt>
      <trkpt lat="45.2560891024768352508544921875" lon="-71.20320620946586132049560546875">
        <ele>714.4000244140625</ele>
        <time>2026-08-22T04:26:04.000Z</time>
        <extensions>
          <ns3:TrackPointExtension>
            <ns3:hr>144</ns3:hr>
            <ns3:cad>0</ns3:cad>
          </ns3:TrackPointExtension>
        </extensions>
      </trkpt>
      <trkpt lat="45.2560803852975368499755859375" lon="-71.20321542955935001373291015625">
        <ele>714.4000244140625</ele>
        <time>2026-08-22T04:26:05.000Z</time>
        <extensions>
          <ns3:TrackPointExtension>
            <ns3:hr>144</ns3:hr>
            <ns3:cad>0</ns3:cad>
          </ns3:TrackPointExtension>
        </extensions>
      </trkpt>
      <trkpt lat="45.256074853241443634033203125" lon="-71.20322532020509243011474609375">
        <ele>714.4000244140625</ele>
        <time>2026-08-22T04:26:06.000Z</time>
        <extensions>
          <ns3:TrackPointExtension>
            <ns3:hr>144</ns3:hr>
            <ns3:cad>0</ns3:cad>
          </ns3:TrackPointExtension>
        </extensions>
      </trkpt>
      <trkpt lat="45.2560663037002086639404296875" lon="-71.2032420001924037933349609375">
        <ele>714.4000244140625</ele>
        <time>2026-08-22T04:26:07.000Z</time>
        <extensions>
          <ns3:TrackPointExtension>
            <ns3:hr>143</ns3:hr>
            <ns3:cad>0</ns3:cad>
          </ns3:TrackPointExtension>
        </extensions>
      </trkpt>
      <trkpt lat="45.256063453853130340576171875" lon="-71.2032621167600154876708984375">
        <ele>714.4000244140625</ele>
        <time>2026-08-22T04:26:08.000Z</time>
        <extensions>
          <ns3:TrackPointExtension>
            <ns3:hr>143</ns3:hr>
            <ns3:cad>0</ns3:cad>
          </ns3:TrackPointExtension>
        </extensions>
      </trkpt>
      <trkpt lat="45.25606638751924037933349609375" lon="-71.20328080840408802032470703125">
        <ele>714.4000244140625</ele>
        <time>2026-08-22T04:26:09.000Z</time>
        <extensions>
          <ns3:TrackPointExtension>
            <ns3:hr>143</ns3:hr>
            <ns3:cad>0</ns3:cad>
          </ns3:TrackPointExtension>
        </extensions>
      </trkpt>
      <trkpt lat="45.2560693211853504180908203125" lon="-71.20329069904983043670654296875">
        <ele>714.4000244140625</ele>
        <time>2026-08-22T04:26:10.000Z</time>
        <extensions>
          <ns3:TrackPointExtension>
            <ns3:hr>143</ns3:hr>
            <ns3:cad>0</ns3:cad>
          </ns3:TrackPointExtension>
        </extensions>
      </trkpt>
      <trkpt lat="45.25606873445212841033935546875" lon="-71.20329983532428741455078125">
        <ele>714.4000244140625</ele>
        <time>2026-08-22T04:26:11.000Z</time>
        <extensions>
          <ns3:TrackPointExtension>
            <ns3:hr>144</ns3:hr>
            <ns3:cad>0</ns3:cad>
          </ns3:TrackPointExtension>
        </extensions>
      </trkpt>
      <trkpt lat="45.25606906972825527191162109375" lon="-71.2033117376267910003662109375">
        <ele>714.4000244140625</ele>
        <time>2026-08-22T04:26:12.000Z</time>
        <extensions>
          <ns3:TrackPointExtension>
            <ns3:hr>144</ns3:hr>
            <ns3:cad>0</ns3:cad>
          </ns3:TrackPointExtension>
        </extensions>
      </trkpt>
      <trkpt lat="45.256070829927921295166015625" lon="-71.20332204736769199371337890625">
        <ele>714.4000244140625</ele>
        <time>2026-08-22T04:26:13.000Z</time>
        <extensions>
          <ns3:TrackPointExtension>
            <ns3:hr>144</ns3:hr>
            <ns3:cad>41</ns3:cad>
          </ns3:TrackPointExtension>
        </extensions>
      </trkpt>
      <trkpt lat="45.25607225485146045684814453125" lon="-71.2033335305750370025634765625">
        <ele>714.20001220703125</ele>
        <time>2026-08-22T04:26:14.000Z</time>
        <extensions>
          <ns3:TrackPointExtension>
            <ns3:hr>143</ns3:hr>
            <ns3:cad>41</ns3:cad>
          </ns3:TrackPointExtension>
        </extensions>
      </trkpt>
      <trkpt lat="45.256073176860809326171875" lon="-71.20333336293697357177734375">
        <ele>714.20001220703125</ele>
        <time>2026-08-22T04:26:15.000Z</time>
        <extensions>
          <ns3:TrackPointExtension>
            <ns3:hr>144</ns3:hr>
            <ns3:cad>0</ns3:cad>
          </ns3:TrackPointExtension>
        </extensions>
      </trkpt>
      <trkpt lat="45.25607326067984104156494140625" lon="-71.20333881117403507232666015625">
        <ele>714.20001220703125</ele>
        <time>2026-08-22T04:26:16.000Z</time>
        <extensions>
          <ns3:TrackPointExtension>
            <ns3:hr>144</ns3:hr>
            <ns3:cad>0</ns3:cad>
          </ns3:TrackPointExtension>
        </extensions>
      </trkpt>
      <trkpt lat="45.25606974028050899505615234375" lon="-71.20334501378238201141357421875">
        <ele>714.20001220703125</ele>
        <time>2026-08-22T04:26:17.000Z</time>
        <extensions>
          <ns3:TrackPointExtension>
            <ns3:hr>143</ns3:hr>
            <ns3:cad>0</ns3:cad>
          </ns3:TrackPointExtension>
        </extensions>
      </trkpt>
      <trkpt lat="45.25606823153793811798095703125" lon="-71.20335624553263187408447265625">
        <ele>714.20001220703125</ele>
        <time>2026-08-22T04:26:18.000Z</time>
        <extensions>
          <ns3:TrackPointExtension>
            <ns3:hr>144</ns3:hr>
            <ns3:cad>0</ns3:cad>
          </ns3:TrackPointExtension>
        </extensions>
      </trkpt>
      <trkpt lat="45.2560646273195743560791015625" lon="-71.20336144231259822845458984375">
        <ele>714.20001220703125</ele>
        <time>2026-08-22T04:26:19.000Z</time>
        <extensions>
          <ns3:TrackPointExtension>
            <ns3:hr>144</ns3:hr>
            <ns3:cad>0</ns3:cad>
          </ns3:TrackPointExtension>
        </extensions>
      </trkpt>
      <trkpt lat="45.25606135837733745574951171875" lon="-71.20337166823446750640869140625">
        <ele>714.4000244140625</ele>
        <time>2026-08-22T04:26:20.000Z</time>
        <extensions>
          <ns3:TrackPointExtension>
            <ns3:hr>144</ns3:hr>
            <ns3:cad>0</ns3:cad>
          </ns3:TrackPointExtension>
        </extensions>
      </trkpt>
      <trkpt lat="45.2560575865209102630615234375" lon="-71.203369237482547760009765625">
        <ele>714.4000244140625</ele>
        <time>2026-08-22T04:26:21.000Z</time>
        <extensions>
          <ns3:TrackPointExtension>
            <ns3:hr>144</ns3:hr>
            <ns3:cad>0</ns3:cad>
          </ns3:TrackPointExtension>
        </extensions>
      </trkpt>
      <trkpt lat="45.2560559101402759552001953125" lon="-71.203377954661846160888671875">
        <ele>714.4000244140625</ele>
        <time>2026-08-22T04:26:22.000Z</time>
        <extensions>
          <ns3:TrackPointExtension>
            <ns3:hr>144</ns3:hr>
            <ns3:cad>0</ns3:cad>
          </ns3:TrackPointExtension>
        </extensions>
      </trkpt>
      <trkpt lat="45.25605448521673679351806640625" lon="-71.203395389020442962646484375">
        <ele>714.4000244140625</ele>
        <time>2026-08-22T04:26:23.000Z</time>
        <extensions>
          <ns3:TrackPointExtension>
            <ns3:hr>144</ns3:hr>
            <ns3:cad>0</ns3:cad>
          </ns3:TrackPointExtension>
        </extensions>
      </trkpt>
      <trkpt lat="45.25605314411222934722900390625" lon="-71.20340586639940738677978515625">
        <ele>714.20001220703125</ele>
        <time>2026-08-22T04:26:24.000Z</time>
        <extensions>
          <ns3:TrackPointExtension>
            <ns3:hr>144</ns3:hr>
            <ns3:cad>0</ns3:cad>
          </ns3:TrackPointExtension>
        </extensions>
      </trkpt>
      <trkpt lat="45.25605381466448307037353515625" lon="-71.2034190259873867034912109375">
        <ele>714.20001220703125</ele>
        <time>2026-08-22T04:26:25.000Z</time>
        <extensions>
          <ns3:TrackPointExtension>
            <ns3:hr>144</ns3:hr>
            <ns3:cad>0</ns3:cad>
          </ns3:TrackPointExtension>
        </extensions>
      </trkpt>
      <trkpt lat="45.25605264119803905487060546875" lon="-71.20342698879539966583251953125">
        <ele>714</ele>
        <time>2026-08-22T04:26:26.000Z</time>
        <extensions>
          <ns3:TrackPointExtension>
            <ns3:hr>144</ns3:hr>
            <ns3:cad>0</ns3:cad>
          </ns3:TrackPointExtension>
        </extensions>
      </trkpt>
      <trkpt lat="45.2560562454164028167724609375" lon="-71.2034372985363006591796875">
        <ele>714</ele>
        <time>2026-08-22T04:26:27.000Z</time>
        <extensions>
          <ns3:TrackPointExtension>
            <ns3:hr>143</ns3:hr>
            <ns3:cad>0</ns3:cad>
          </ns3:TrackPointExtension>
        </extensions>
      </trkpt>
      <trkpt lat="45.25606018491089344024658203125" lon="-71.20344341732561588287353515625">
        <ele>714</ele>
        <time>2026-08-22T04:26:28.000Z</time>
        <extensions>
          <ns3:TrackPointExtension>
            <ns3:hr>143</ns3:hr>
            <ns3:cad>0</ns3:cad>
          </ns3:TrackPointExtension>
        </extensions>
      </trkpt>
      <trkpt lat="45.2560679800808429718017578125" lon="-71.2034480273723602294921875">
        <ele>714</ele>
        <time>2026-08-22T04:26:29.000Z</time>
        <extensions>
          <ns3:TrackPointExtension>
            <ns3:hr>143</ns3:hr>
            <ns3:cad>0</ns3:cad>
          </ns3:TrackPointExtension>
        </extensions>
      </trkpt>
      <trkpt lat="45.25607376359403133392333984375" lon="-71.203461103141307830810546875">
        <ele>713.79998779296875</ele>
        <time>2026-08-22T04:26:30.000Z</time>
        <extensions>
          <ns3:TrackPointExtension>
            <ns3:hr>143</ns3:hr>
            <ns3:cad>0</ns3:cad>
          </ns3:TrackPointExtension>
        </extensions>
      </trkpt>
      <trkpt lat="45.25607443414628505706787109375" lon="-71.20347375981509685516357421875">
        <ele>713.79998779296875</ele>
        <time>2026-08-22T04:26:31.000Z</time>
        <extensions>
          <ns3:TrackPointExtension>
            <ns3:hr>142</ns3:hr>
            <ns3:cad>0</ns3:cad>
          </ns3:TrackPointExtension>
        </extensions>
      </trkpt>
      <trkpt lat="45.25607787072658538818359375" lon="-71.2034820578992366790771484375">
        <ele>713.79998779296875</ele>
        <time>2026-08-22T04:26:32.000Z</time>
        <extensions>
          <ns3:TrackPointExtension>
            <ns3:hr>142</ns3:hr>
            <ns3:cad>0</ns3:cad>
          </ns3:TrackPointExtension>
        </extensions>
      </trkpt>
      <trkpt lat="45.25607787072658538818359375" lon="-71.20348767377436161041259765625">
        <ele>713.79998779296875</ele>
        <time>2026-08-22T04:26:33.000Z</time>
        <extensions>
          <ns3:TrackPointExtension>
            <ns3:hr>141</ns3:hr>
            <ns3:cad>0</ns3:cad>
          </ns3:TrackPointExtension>
        </extensions>
      </trkpt>
      <trkpt lat="45.2560787089169025421142578125" lon="-71.20349907316267490386962890625">
        <ele>713.79998779296875</ele>
        <time>2026-08-22T04:26:34.000Z</time>
        <extensions>
          <ns3:TrackPointExtension>
            <ns3:hr>141</ns3:hr>
            <ns3:cad>0</ns3:cad>
          </ns3:TrackPointExtension>
        </extensions>
      </trkpt>
      <trkpt lat="45.25607728399336338043212890625" lon="-71.203504018485546112060546875">
        <ele>713.5999755859375</ele>
        <time>2026-08-22T04:26:35.000Z</time>
        <extensions>
          <ns3:TrackPointExtension>
            <ns3:hr>140</ns3:hr>
            <ns3:cad>0</ns3:cad>
          </ns3:TrackPointExtension>
        </extensions>
      </trkpt>
      <trkpt lat="45.25607627816498279571533203125" lon="-71.203511059284210205078125">
        <ele>713.5999755859375</ele>
        <time>2026-08-22T04:26:36.000Z</time>
        <extensions>
          <ns3:TrackPointExtension>
            <ns3:hr>140</ns3:hr>
            <ns3:cad>0</ns3:cad>
          </ns3:TrackPointExtension>
        </extensions>
      </trkpt>
      <trkpt lat="45.25606974028050899505615234375" lon="-71.203508041799068450927734375">
        <ele>713.5999755859375</ele>
        <time>2026-08-22T04:26:37.000Z</time>
        <extensions>
          <ns3:TrackPointExtension>
            <ns3:hr>140</ns3:hr>
            <ns3:cad>0</ns3:cad>
          </ns3:TrackPointExtension>
        </extensions>
      </trkpt>
      <trkpt lat="45.2560629509389400482177734375" lon="-71.203515417873859405517578125">
        <ele>713.5999755859375</ele>
        <time>2026-08-22T04:26:38.000Z</time>
        <extensions>
          <ns3:TrackPointExtension>
            <ns3:hr>140</ns3:hr>
            <ns3:cad>0</ns3:cad>
          </ns3:TrackPointExtension>
        </extensions>
      </trkpt>
      <trkpt lat="45.25606169365346431732177734375" lon="-71.2035177648067474365234375">
        <ele>713.5999755859375</ele>
        <time>2026-08-22T04:26:39.000Z</time>
        <extensions>
          <ns3:TrackPointExtension>
            <ns3:hr>140</ns3:hr>
            <ns3:cad>0</ns3:cad>
          </ns3:TrackPointExtension>
        </extensions>
      </trkpt>
      <trkpt lat="45.256058089435100555419921875" lon="-71.20352522470057010650634765625">
        <ele>713.5999755859375</ele>
        <time>2026-08-22T04:26:40.000Z</time>
        <extensions>
          <ns3:TrackPointExtension>
            <ns3:hr>139</ns3:hr>
            <ns3:cad>0</ns3:cad>
          </ns3:TrackPointExtension>
        </extensions>
      </trkpt>
      <trkpt lat="45.2560569159686565399169921875" lon="-71.20353209786117076873779296875">
        <ele>713.5999755859375</ele>
        <time>2026-08-22T04:26:41.000Z</time>
        <extensions>
          <ns3:TrackPointExtension>
            <ns3:hr>140</ns3:hr>
            <ns3:cad>0</ns3:cad>
          </ns3:TrackPointExtension>
        </extensions>
      </trkpt>
      <trkpt lat="45.25605565868318080902099609375" lon="-71.20354467071592807769775390625">
        <ele>713.5999755859375</ele>
        <time>2026-08-22T04:26:42.000Z</time>
        <extensions>
          <ns3:TrackPointExtension>
            <ns3:hr>141</ns3:hr>
            <ns3:cad>47</ns3:cad>
          </ns3:TrackPointExtension>
        </extensions>
      </trkpt>
      <trkpt lat="45.25604878552258014678955078125" lon="-71.203543245792388916015625">
        <ele>713.5999755859375</ele>
        <time>2026-08-22T04:26:43.000Z</time>
        <extensions>
          <ns3:TrackPointExtension>
            <ns3:hr>141</ns3:hr>
            <ns3:cad>47</ns3:cad>
          </ns3:TrackPointExtension>
        </extensions>
      </trkpt>
      <trkpt lat="45.25604845024645328521728515625" lon="-71.2035521306097507476806640625">
        <ele>713.5999755859375</ele>
        <time>2026-08-22T04:26:44.000Z</time>
        <extensions>
          <ns3:TrackPointExtension>
            <ns3:hr>141</ns3:hr>
            <ns3:cad>47</ns3:cad>
          </ns3:TrackPointExtension>
        </extensions>
      </trkpt>
      <trkpt lat="45.2560512162744998931884765625" lon="-71.20355959050357341766357421875">
        <ele>713.5999755859375</ele>
        <time>2026-08-22T04:26:45.000Z</time>
        <extensions>
          <ns3:TrackPointExtension>
            <ns3:hr>142</ns3:hr>
            <ns3:cad>47</ns3:cad>
          </ns3:TrackPointExtension>
        </extensions>
      </trkpt>
      <trkpt lat="45.2560503780841827392578125" lon="-71.20356805622577667236328125">
        <ele>713.5999755859375</ele>
        <time>2026-08-22T04:26:46.000Z</time>
        <extensions>
          <ns3:TrackPointExtension>
            <ns3:hr>141</ns3:hr>
            <ns3:cad>47</ns3:cad>
          </ns3:TrackPointExtension>
        </extensions>
      </trkpt>
      <trkpt lat="45.25604811497032642364501953125" lon="-71.20356964878737926483154296875">
        <ele>713.5999755859375</ele>
        <time>2026-08-22T04:26:47.000Z</time>
        <extensions>
          <ns3:TrackPointExtension>
            <ns3:hr>141</ns3:hr>
            <ns3:cad>0</ns3:cad>
          </ns3:TrackPointExtension>
        </extensions>
      </trkpt>
      <trkpt lat="45.25604610331356525421142578125" lon="-71.203569732606410980224609375">
        <ele>713.5999755859375</ele>
        <time>2026-08-22T04:26:48.000Z</time>
        <extensions>
          <ns3:TrackPointExtension>
            <ns3:hr>140</ns3:hr>
            <ns3:cad>0</ns3:cad>
          </ns3:TrackPointExtension>
        </extensions>
      </trkpt>
      <trkpt lat="45.2560461871325969696044921875" lon="-71.20356964878737926483154296875">
        <ele>713.5999755859375</ele>
        <time>2026-08-22T04:26:49.000Z</time>
        <extensions>
          <ns3:TrackPointExtension>
            <ns3:hr>140</ns3:hr>
            <ns3:cad>0</ns3:cad>
          </ns3:TrackPointExtension>
        </extensions>
      </trkpt>
      <trkpt lat="45.2560461871325969696044921875" lon="-71.20356964878737926483154296875">
        <ele>713.5999755859375</ele>
        <time>2026-08-22T04:26:50.000Z</time>
        <extensions>
          <ns3:TrackPointExtension>
            <ns3:hr>141</ns3:hr>
            <ns3:cad>0</ns3:cad>
          </ns3:TrackPointExtension>
        </extensions>
      </trkpt>
      <trkpt lat="45.2560461871325969696044921875" lon="-71.20356964878737926483154296875">
        <ele>713.5999755859375</ele>
        <time>2026-08-22T04:26:51.000Z</time>
        <extensions>
          <ns3:TrackPointExtension>
            <ns3:hr>141</ns3:hr>
            <ns3:cad>0</ns3:cad>
          </ns3:TrackPointExtension>
        </extensions>
      </trkpt>
      <trkpt lat="45.2560461871325969696044921875" lon="-71.20356964878737926483154296875">
        <ele>713.5999755859375</ele>
        <time>2026-08-22T04:26:52.000Z</time>
        <extensions>
          <ns3:TrackPointExtension>
            <ns3:hr>142</ns3:hr>
            <ns3:cad>0</ns3:cad>
          </ns3:TrackPointExtension>
        </extensions>
      </trkpt>
      <trkpt lat="45.2560461871325969696044921875" lon="-71.20356939733028411865234375">
        <ele>713.5999755859375</ele>
        <time>2026-08-22T04:26:53.000Z</time>
        <extensions>
          <ns3:TrackPointExtension>
            <ns3:hr>142</ns3:hr>
            <ns3:cad>0</ns3:cad>
          </ns3:TrackPointExtension>
        </extensions>
      </trkpt>
      <trkpt lat="45.25604023598134517669677734375" lon="-71.20357266627252101898193359375">
        <ele>713.5999755859375</ele>
        <time>2026-08-22T04:26:54.000Z</time>
        <extensions>
          <ns3:TrackPointExtension>
            <ns3:hr>142</ns3:hr>
            <ns3:cad>0</ns3:cad>
          </ns3:TrackPointExtension>
        </extensions>
      </trkpt>
      <trkpt lat="45.25603093206882476806640625" lon="-71.20358339510858058929443359375">
        <ele>713.5999755859375</ele>
        <time>2026-08-22T04:26:55.000Z</time>
        <extensions>
          <ns3:TrackPointExtension>
            <ns3:hr>142</ns3:hr>
            <ns3:cad>0</ns3:cad>
          </ns3:TrackPointExtension>
        </extensions>
      </trkpt>
      <trkpt lat="45.2560257352888584136962890625" lon="-71.2035916931927204132080078125">
        <ele>713.5999755859375</ele>
        <time>2026-08-22T04:26:56.000Z</time>
        <extensions>
          <ns3:TrackPointExtension>
            <ns3:hr>142</ns3:hr>
            <ns3:cad>0</ns3:cad>
          </ns3:TrackPointExtension>
        </extensions>
      </trkpt>
      <trkpt lat="45.2560197003185749053955078125" lon="-71.2036000750958919525146484375">
        <ele>713.5999755859375</ele>
        <time>2026-08-22T04:26:57.000Z</time>
        <extensions>
          <ns3:TrackPointExtension>
            <ns3:hr>142</ns3:hr>
            <ns3:cad>0</ns3:cad>
          </ns3:TrackPointExtension>
        </extensions>
      </trkpt>
      <trkpt lat="45.25601617991924285888671875" lon="-71.20360569097101688385009765625">
        <ele>713.79998779296875</ele>
        <time>2026-08-22T04:26:58.000Z</time>
        <extensions>
          <ns3:TrackPointExtension>
            <ns3:hr>142</ns3:hr>
            <ns3:cad>0</ns3:cad>
          </ns3:TrackPointExtension>
        </extensions>
      </trkpt>
      <trkpt lat="45.2560096420347690582275390625" lon="-71.203602589666843414306640625">
        <ele>713.79998779296875</ele>
        <time>2026-08-22T04:26:59.000Z</time>
        <extensions>
          <ns3:TrackPointExtension>
            <ns3:hr>142</ns3:hr>
            <ns3:cad>0</ns3:cad>
          </ns3:TrackPointExtension>
        </extensions>
      </trkpt>
      <trkpt lat="45.2559995837509632110595703125" lon="-71.2035980634391307830810546875">
        <ele>713.79998779296875</ele>
        <time>2026-08-22T04:27:00.000Z</time>
        <extensions>
          <ns3:TrackPointExtension>
            <ns3:hr>141</ns3:hr>
            <ns3:cad>0</ns3:cad>
          </ns3:TrackPointExtension>
        </extensions>
      </trkpt>
      <trkpt lat="45.25599002838134765625" lon="-71.20360468514263629913330078125">
        <ele>713.79998779296875</ele>
        <time>2026-08-22T04:27:01.000Z</time>
        <extensions>
          <ns3:TrackPointExtension>
            <ns3:hr>141</ns3:hr>
            <ns3:cad>0</ns3:cad>
          </ns3:TrackPointExtension>
        </extensions>
      </trkpt>
      <trkpt lat="45.255988352000713348388671875" lon="-71.20361767709255218505859375">
        <ele>714</ele>
        <time>2026-08-22T04:27:02.000Z</time>
        <extensions>
          <ns3:TrackPointExtension>
            <ns3:hr>141</ns3:hr>
            <ns3:cad>0</ns3:cad>
          </ns3:TrackPointExtension>
        </extensions>
      </trkpt>
      <trkpt lat="45.255985669791698455810546875" lon="-71.20362480171024799346923828125">
        <ele>714</ele>
        <time>2026-08-22T04:27:03.000Z</time>
        <extensions>
          <ns3:TrackPointExtension>
            <ns3:hr>140</ns3:hr>
            <ns3:cad>0</ns3:cad>
          </ns3:TrackPointExtension>
        </extensions>
      </trkpt>
      <trkpt lat="45.25598935782909393310546875" lon="-71.2036295793950557708740234375">
        <ele>714.20001220703125</ele>
        <time>2026-08-22T04:27:04.000Z</time>
        <extensions>
          <ns3:TrackPointExtension>
            <ns3:hr>140</ns3:hr>
            <ns3:cad>0</ns3:cad>
          </ns3:TrackPointExtension>
        </extensions>
      </trkpt>
      <trkpt lat="45.2559898607432842254638671875" lon="-71.20363955385982990264892578125">
        <ele>714.20001220703125</ele>
        <time>2026-08-22T04:27:05.000Z</time>
        <extensions>
          <ns3:TrackPointExtension>
            <ns3:hr>140</ns3:hr>
            <ns3:cad>0</ns3:cad>
          </ns3:TrackPointExtension>
        </extensions>
      </trkpt>
      <trkpt lat="45.25598508305847644805908203125" lon="-71.2036478519439697265625">
        <ele>714.20001220703125</ele>
        <time>2026-08-22T04:27:06.000Z</time>
        <extensions>
          <ns3:TrackPointExtension>
            <ns3:hr>140</ns3:hr>
            <ns3:cad>0</ns3:cad>
          </ns3:TrackPointExtension>
        </extensions>
      </trkpt>
      <trkpt lat="45.2559818141162395477294921875" lon="-71.20365480892360210418701171875">
        <ele>714</ele>
        <time>2026-08-22T04:27:07.000Z</time>
        <extensions>
          <ns3:TrackPointExtension>
            <ns3:hr>141</ns3:hr>
            <ns3:cad>0</ns3:cad>
          </ns3:TrackPointExtension>
        </extensions>
      </trkpt>
      <trkpt lat="45.25598189793527126312255859375" lon="-71.20366319082677364349365234375">
        <ele>714</ele>
        <time>2026-08-22T04:27:08.000Z</time>
        <extensions>
          <ns3:TrackPointExtension>
            <ns3:hr>141</ns3:hr>
            <ns3:cad>0</ns3:cad>
          </ns3:TrackPointExtension>
        </extensions>
      </trkpt>
      <trkpt lat="45.25597770698368549346923828125" lon="-71.203684397041797637939453125">
        <ele>713.79998779296875</ele>
        <time>2026-08-22T04:27:09.000Z</time>
        <extensions>
          <ns3:TrackPointExtension>
            <ns3:hr>142</ns3:hr>
            <ns3:cad>0</ns3:cad>
          </ns3:TrackPointExtension>
        </extensions>
      </trkpt>
      <trkpt lat="45.25597997009754180908203125" lon="-71.20370862074196338653564453125">
        <ele>713.79998779296875</ele>
        <time>2026-08-22T04:27:10.000Z</time>
        <extensions>
          <ns3:TrackPointExtension>
            <ns3:hr>142</ns3:hr>
            <ns3:cad>0</ns3:cad>
          </ns3:TrackPointExtension>
        </extensions>
      </trkpt>
      <trkpt lat="45.25598265230655670166015625" lon="-71.20371834374964237213134765625">
        <ele>713.79998779296875</ele>
        <time>2026-08-22T04:27:11.000Z</time>
        <extensions>
          <ns3:TrackPointExtension>
            <ns3:hr>142</ns3:hr>
            <ns3:cad>0</ns3:cad>
          </ns3:TrackPointExtension>
        </extensions>
      </trkpt>
      <trkpt lat="45.25598390959203243255615234375" lon="-71.2037261389195919036865234375">
        <ele>713.79998779296875</ele>
        <time>2026-08-22T04:27:12.000Z</time>
        <extensions>
          <ns3:TrackPointExtension>
            <ns3:hr>142</ns3:hr>
            <ns3:cad>0</ns3:cad>
          </ns3:TrackPointExtension>
        </extensions>
      </trkpt>
      <trkpt lat="45.25598139502108097076416015625" lon="-71.20373510755598545074462890625">
        <ele>713.79998779296875</ele>
        <time>2026-08-22T04:27:13.000Z</time>
        <extensions>
          <ns3:TrackPointExtension>
            <ns3:hr>142</ns3:hr>
            <ns3:cad>0</ns3:cad>
          </ns3:TrackPointExtension>
        </extensions>
      </trkpt>
      <trkpt lat="45.25598156265914440155029296875" lon="-71.20373527519404888153076171875">
        <ele>713.79998779296875</ele>
        <time>2026-08-22T04:27:14.000Z</time>
        <extensions>
          <ns3:TrackPointExtension>
            <ns3:hr>142</ns3:hr>
            <ns3:cad>0</ns3:cad>
          </ns3:TrackPointExtension>
        </extensions>
      </trkpt>
      <trkpt lat="45.25598089210689067840576171875" lon="-71.2037355266511440277099609375">
        <ele>713.79998779296875</ele>
        <time>2026-08-22T04:27:15.000Z</time>
        <extensions>
          <ns3:TrackPointExtension>
            <ns3:hr>143</ns3:hr>
            <ns3:cad>0</ns3:cad>
          </ns3:TrackPointExtension>
        </extensions>
      </trkpt>
      <trkpt lat="45.25598156265914440155029296875" lon="-71.20373527519404888153076171875">
        <ele>713.79998779296875</ele>
        <time>2026-08-22T04:27:16.000Z</time>
        <extensions>
          <ns3:TrackPointExtension>
            <ns3:hr>144</ns3:hr>
            <ns3:cad>0</ns3:cad>
          </ns3:TrackPointExtension>
        </extensions>
      </trkpt>
      <trkpt lat="45.25598156265914440155029296875" lon="-71.20373527519404888153076171875">
        <ele>713.5999755859375</ele>
        <time>2026-08-22T04:27:17.000Z</time>
        <extensions>
          <ns3:TrackPointExtension>
            <ns3:hr>145</ns3:hr>
            <ns3:cad>0</ns3:cad>
          </ns3:TrackPointExtension>
        </extensions>
      </trkpt>
      <trkpt lat="45.25598005391657352447509765625" lon="-71.2037425674498081207275390625">
        <ele>713.4000244140625</ele>
        <time>2026-08-22T04:27:18.000Z</time>
        <extensions>
          <ns3:TrackPointExtension>
            <ns3:hr>145</ns3:hr>
            <ns3:cad>0</ns3:cad>
          </ns3:TrackPointExtension>
        </extensions>
      </trkpt>
      <trkpt lat="45.2559767849743366241455078125" lon="-71.20377098210155963897705078125">
        <ele>713.20001220703125</ele>
        <time>2026-08-22T04:27:19.000Z</time>
        <extensions>
          <ns3:TrackPointExtension>
            <ns3:hr>145</ns3:hr>
            <ns3:cad>0</ns3:cad>
          </ns3:TrackPointExtension>
        </extensions>
      </trkpt>
      <trkpt lat="45.25597418658435344696044921875" lon="-71.2037767656147480010986328125">
        <ele>713.20001220703125</ele>
        <time>2026-08-22T04:27:20.000Z</time>
        <extensions>
          <ns3:TrackPointExtension>
            <ns3:hr>146</ns3:hr>
            <ns3:cad>0</ns3:cad>
          </ns3:TrackPointExtension>
        </extensions>
      </trkpt>
      <trkpt lat="45.25596781633794307708740234375" lon="-71.20378523133695125579833984375">
        <ele>713.20001220703125</ele>
        <time>2026-08-22T04:27:21.000Z</time>
        <extensions>
          <ns3:TrackPointExtension>
            <ns3:hr>145</ns3:hr>
            <ns3:cad>0</ns3:cad>
          </ns3:TrackPointExtension>
        </extensions>
      </trkpt>
      <trkpt lat="45.25596362538635730743408203125" lon="-71.20378724299371242523193359375">
        <ele>713.4000244140625</ele>
        <time>2026-08-22T04:27:22.000Z</time>
        <extensions>
          <ns3:TrackPointExtension>
            <ns3:hr>145</ns3:hr>
            <ns3:cad>0</ns3:cad>
          </ns3:TrackPointExtension>
        </extensions>
      </trkpt>
      <trkpt lat="45.25595759041607379913330078125" lon="-71.20379126630723476409912109375">
        <ele>713.5999755859375</ele>
        <time>2026-08-22T04:27:23.000Z</time>
        <extensions>
          <ns3:TrackPointExtension>
            <ns3:hr>145</ns3:hr>
            <ns3:cad>0</ns3:cad>
          </ns3:TrackPointExtension>
        </extensions>
      </trkpt>
      <trkpt lat="45.25594250299036502838134765625" lon="-71.2037828005850315093994140625">
        <ele>713.79998779296875</ele>
        <time>2026-08-22T04:27:24.000Z</time>
        <extensions>
          <ns3:TrackPointExtension>
            <ns3:hr>145</ns3:hr>
            <ns3:cad>0</ns3:cad>
          </ns3:TrackPointExtension>
        </extensions>
      </trkpt>
      <trkpt lat="45.25593026541173458099365234375" lon="-71.20378221385180950164794921875">
        <ele>713.79998779296875</ele>
        <time>2026-08-22T04:27:25.000Z</time>
        <extensions>
          <ns3:TrackPointExtension>
            <ns3:hr>145</ns3:hr>
            <ns3:cad>0</ns3:cad>
          </ns3:TrackPointExtension>
        </extensions>
      </trkpt>
      <trkpt lat="45.2559187822043895721435546875" lon="-71.20378129184246063232421875">
        <ele>714</ele>
        <time>2026-08-22T04:27:26.000Z</time>
        <extensions>
          <ns3:TrackPointExtension>
            <ns3:hr>145</ns3:hr>
            <ns3:cad>0</ns3:cad>
          </ns3:TrackPointExtension>
        </extensions>
      </trkpt>
      <trkpt lat="45.25590528734028339385986328125" lon="-71.2037784419953823089599609375">
        <ele>714</ele>
        <time>2026-08-22T04:27:27.000Z</time>
        <extensions>
          <ns3:TrackPointExtension>
            <ns3:hr>145</ns3:hr>
            <ns3:cad>53</ns3:cad>
          </ns3:TrackPointExtension>
        </extensions>
      </trkpt>
      <trkpt lat="45.25589288212358951568603515625" lon="-71.20377592742443084716796875">
        <ele>714</ele>
        <time>2026-08-22T04:27:28.000Z</time>
        <extensions>
          <ns3:TrackPointExtension>
            <ns3:hr>144</ns3:hr>
            <ns3:cad>53</ns3:cad>
          </ns3:TrackPointExtension>
        </extensions>
      </trkpt>
      <trkpt lat="45.25588206946849822998046875" lon="-71.2037720717489719390869140625">
        <ele>714</ele>
        <time>2026-08-22T04:27:29.000Z</time>
        <extensions>
          <ns3:TrackPointExtension>
            <ns3:hr>144</ns3:hr>
            <ns3:cad>53</ns3:cad>
          </ns3:TrackPointExtension>
        </extensions>
      </trkpt>
      <trkpt lat="45.25586874224245548248291015625" lon="-71.20376653969287872314453125">
        <ele>714</ele>
        <time>2026-08-22T04:27:30.000Z</time>
        <extensions>
          <ns3:TrackPointExtension>
            <ns3:hr>144</ns3:hr>
            <ns3:cad>53</ns3:cad>
          </ns3:TrackPointExtension>
        </extensions>
      </trkpt>
      <trkpt lat="45.25585382245481014251708984375" lon="-71.20376360602676868438720703125">
        <ele>714.20001220703125</ele>
        <time>2026-08-22T04:27:31.000Z</time>
        <extensions>
          <ns3:TrackPointExtension>
            <ns3:hr>144</ns3:hr>
            <ns3:cad>53</ns3:cad>
          </ns3:TrackPointExtension>
        </extensions>
      </trkpt>
      <trkpt lat="45.255836807191371917724609375" lon="-71.20375983417034149169921875">
        <ele>714.20001220703125</ele>
        <time>2026-08-22T04:27:32.000Z</time>
        <extensions>
          <ns3:TrackPointExtension>
            <ns3:hr>144</ns3:hr>
            <ns3:cad>52</ns3:cad>
          </ns3:TrackPointExtension>
        </extensions>
      </trkpt>
      <trkpt lat="45.2558188699185848236083984375" lon="-71.20375581085681915283203125">
        <ele>714.4000244140625</ele>
        <time>2026-08-22T04:27:33.000Z</time>
        <extensions>
          <ns3:TrackPointExtension>
            <ns3:hr>144</ns3:hr>
            <ns3:cad>52</ns3:cad>
          </ns3:TrackPointExtension>
        </extensions>
      </trkpt>
      <trkpt lat="45.25580185465514659881591796875" lon="-71.2037484347820281982421875">
        <ele>714.5999755859375</ele>
        <time>2026-08-22T04:27:34.000Z</time>
        <extensions>
          <ns3:TrackPointExtension>
            <ns3:hr>144</ns3:hr>
            <ns3:cad>53</ns3:cad>
          </ns3:TrackPointExtension>
        </extensions>
      </trkpt>
      <trkpt lat="45.255783833563327789306640625" lon="-71.20374265126883983612060546875">
        <ele>714.5999755859375</ele>
        <time>2026-08-22T04:27:35.000Z</time>
        <extensions>
          <ns3:TrackPointExtension>
            <ns3:hr>144</ns3:hr>
            <ns3:cad>53</ns3:cad>
          </ns3:TrackPointExtension>
        </extensions>
      </trkpt>
      <trkpt lat="45.2557638846337795257568359375" lon="-71.2037402205169200897216796875">
        <ele>714.79998779296875</ele>
        <time>2026-08-22T04:27:36.000Z</time>
        <extensions>
          <ns3:TrackPointExtension>
            <ns3:hr>144</ns3:hr>
            <ns3:cad>53</ns3:cad>
          </ns3:TrackPointExtension>
        </extensions>
      </trkpt>
      <trkpt lat="45.2557508088648319244384765625" lon="-71.20373426936566829681396484375">
        <ele>715</ele>
        <time>2026-08-22T04:27:37.000Z</time>
        <extensions>
          <ns3:TrackPointExtension>
            <ns3:hr>145</ns3:hr>
            <ns3:cad>53</ns3:cad>
          </ns3:TrackPointExtension>
        </extensions>
      </trkpt>
      <trkpt lat="45.25573664344847202301025390625" lon="-71.2037294916808605194091796875">
        <ele>715</ele>
        <time>2026-08-22T04:27:38.000Z</time>
        <extensions>
          <ns3:TrackPointExtension>
            <ns3:hr>145</ns3:hr>
            <ns3:cad>53</ns3:cad>
          </ns3:TrackPointExtension>
        </extensions>
      </trkpt>
      <trkpt lat="45.25572457350790500640869140625" lon="-71.2037224508821964263916015625">
        <ele>715.20001220703125</ele>
        <time>2026-08-22T04:27:39.000Z</time>
        <extensions>
          <ns3:TrackPointExtension>
            <ns3:hr>145</ns3:hr>
            <ns3:cad>53</ns3:cad>
          </ns3:TrackPointExtension>
        </extensions>
      </trkpt>
      <trkpt lat="45.25571216829121112823486328125" lon="-71.20372270233929157257080078125">
        <ele>715.4000244140625</ele>
        <time>2026-08-22T04:27:40.000Z</time>
        <extensions>
          <ns3:TrackPointExtension>
            <ns3:hr>145</ns3:hr>
            <ns3:cad>53</ns3:cad>
          </ns3:TrackPointExtension>
        </extensions>
      </trkpt>
      <trkpt lat="45.255711413919925689697265625" lon="-71.203727312386035919189453125">
        <ele>715.5999755859375</ele>
        <time>2026-08-22T04:27:41.000Z</time>
        <extensions>
          <ns3:TrackPointExtension>
            <ns3:hr>144</ns3:hr>
            <ns3:cad>0</ns3:cad>
          </ns3:TrackPointExtension>
        </extensions>
      </trkpt>
      <trkpt lat="45.25571283884346485137939453125" lon="-71.20373167097568511962890625">
        <ele>715.5999755859375</ele>
        <time>2026-08-22T04:27:42.000Z</time>
        <extensions>
          <ns3:TrackPointExtension>
            <ns3:hr>145</ns3:hr>
            <ns3:cad>0</ns3:cad>
          </ns3:TrackPointExtension>
        </extensions>
      </trkpt>
      <trkpt lat="45.25571267120540142059326171875" lon="-71.2037368677556514739990234375">
        <ele>715.5999755859375</ele>
        <time>2026-08-22T04:27:43.000Z</time>
        <extensions>
          <ns3:TrackPointExtension>
            <ns3:hr>144</ns3:hr>
            <ns3:cad>0</ns3:cad>
          </ns3:TrackPointExtension>
        </extensions>
      </trkpt>
      <trkpt lat="45.2557129226624965667724609375" lon="-71.20373678393661975860595703125">
        <ele>715.79998779296875</ele>
        <time>2026-08-22T04:27:44.000Z</time>
        <extensions>
          <ns3:TrackPointExtension>
            <ns3:hr>144</ns3:hr>
            <ns3:cad>0</ns3:cad>
          </ns3:TrackPointExtension>
        </extensions>
      </trkpt>
      <trkpt lat="45.2557177841663360595703125" lon="-71.203744411468505859375">
        <ele>715.5999755859375</ele>
        <time>2026-08-22T04:27:45.000Z</time>
        <extensions>
          <ns3:TrackPointExtension>
            <ns3:hr>144</ns3:hr>
            <ns3:cad>0</ns3:cad>
          </ns3:TrackPointExtension>
        </extensions>
      </trkpt>
      <trkpt lat="45.2557216398417949676513671875" lon="-71.20375153608620166778564453125">
        <ele>715.5999755859375</ele>
        <time>2026-08-22T04:27:46.000Z</time>
        <extensions>
          <ns3:TrackPointExtension>
            <ns3:hr>145</ns3:hr>
            <ns3:cad>0</ns3:cad>
          </ns3:TrackPointExtension>
        </extensions>
      </trkpt>
      <trkpt lat="45.25572591461241245269775390625" lon="-71.2037573195993900299072265625">
        <ele>715.5999755859375</ele>
        <time>2026-08-22T04:27:47.000Z</time>
        <extensions>
          <ns3:TrackPointExtension>
            <ns3:hr>145</ns3:hr>
            <ns3:cad>0</ns3:cad>
          </ns3:TrackPointExtension>
        </extensions>
      </trkpt>
      <trkpt lat="45.255733542144298553466796875" lon="-71.20376444421708583831787109375">
        <ele>715.5999755859375</ele>
        <time>2026-08-22T04:27:48.000Z</time>
        <extensions>
          <ns3:TrackPointExtension>
            <ns3:hr>145</ns3:hr>
            <ns3:cad>0</ns3:cad>
          </ns3:TrackPointExtension>
        </extensions>
      </trkpt>
      <trkpt lat="45.25574259459972381591796875" lon="-71.20377098210155963897705078125">
        <ele>715.4000244140625</ele>
        <time>2026-08-22T04:27:49.000Z</time>
        <extensions>
          <ns3:TrackPointExtension>
            <ns3:hr>144</ns3:hr>
            <ns3:cad>0</ns3:cad>
          </ns3:TrackPointExtension>
        </extensions>
      </trkpt>
      <trkpt lat="45.25574938394129276275634765625" lon="-71.2037779390811920166015625">
        <ele>715.4000244140625</ele>
        <time>2026-08-22T04:27:50.000Z</time>
        <extensions>
          <ns3:TrackPointExtension>
            <ns3:hr>144</ns3:hr>
            <ns3:cad>0</ns3:cad>
          </ns3:TrackPointExtension>
        </extensions>
      </trkpt>
      <trkpt lat="45.25576011277735233306884765625" lon="-71.203795708715915679931640625">
        <ele>715.4000244140625</ele>
        <time>2026-08-22T04:27:51.000Z</time>
        <extensions>
          <ns3:TrackPointExtension>
            <ns3:hr>144</ns3:hr>
            <ns3:cad>0</ns3:cad>
          </ns3:TrackPointExtension>
        </extensions>
      </trkpt>
      <trkpt lat="45.255774445831775665283203125" lon="-71.2037967145442962646484375">
        <ele>715.4000244140625</ele>
        <time>2026-08-22T04:27:52.000Z</time>
        <extensions>
          <ns3:TrackPointExtension>
            <ns3:hr>144</ns3:hr>
            <ns3:cad>0</ns3:cad>
          </ns3:TrackPointExtension>
        </extensions>
      </trkpt>
      <trkpt lat="45.25579816661775112152099609375" lon="-71.20379897765815258026123046875">
        <ele>715.4000244140625</ele>
        <time>2026-08-22T04:27:53.000Z</time>
        <extensions>
          <ns3:TrackPointExtension>
            <ns3:hr>144</ns3:hr>
            <ns3:cad>60</ns3:cad>
          </ns3:TrackPointExtension>
        </extensions>
      </trkpt>
      <trkpt lat="45.25581836700439453125" lon="-71.203808449208736419677734375">
        <ele>715.4000244140625</ele>
        <time>2026-08-22T04:27:54.000Z</time>
        <extensions>
          <ns3:TrackPointExtension>
            <ns3:hr>144</ns3:hr>
            <ns3:cad>60</ns3:cad>
          </ns3:TrackPointExtension>
        </extensions>
      </trkpt>
      <trkpt lat="45.25583387352526187896728515625" lon="-71.20381859131157398223876953125">
        <ele>715.20001220703125</ele>
        <time>2026-08-22T04:27:55.000Z</time>
        <extensions>
          <ns3:TrackPointExtension>
            <ns3:hr>144</ns3:hr>
            <ns3:cad>60</ns3:cad>
          </ns3:TrackPointExtension>
        </extensions>
      </trkpt>
      <trkpt lat="45.2558436803519725799560546875" lon="-71.2038304097950458526611328125">
        <ele>715</ele>
        <time>2026-08-22T04:27:56.000Z</time>
        <extensions>
          <ns3:TrackPointExtension>
            <ns3:hr>144</ns3:hr>
            <ns3:cad>0</ns3:cad>
          </ns3:TrackPointExtension>
        </extensions>
      </trkpt>
      <trkpt lat="45.2558503858745098114013671875" lon="-71.2038449943065643310546875">
        <ele>714.79998779296875</ele>
        <time>2026-08-22T04:27:57.000Z</time>
        <extensions>
          <ns3:TrackPointExtension>
            <ns3:hr>144</ns3:hr>
            <ns3:cad>0</ns3:cad>
          </ns3:TrackPointExtension>
        </extensions>
      </trkpt>
      <trkpt lat="45.255852229893207550048828125" lon="-71.2038552202284336090087890625">
        <ele>714.4000244140625</ele>
        <time>2026-08-22T04:27:58.000Z</time>
        <extensions>
          <ns3:TrackPointExtension>
            <ns3:hr>143</ns3:hr>
            <ns3:cad>79</ns3:cad>
          </ns3:TrackPointExtension>
        </extensions>
      </trkpt>
      <trkpt lat="45.25584929622709751129150390625" lon="-71.20387072674930095672607421875">
        <ele>714.20001220703125</ele>
        <time>2026-08-22T04:27:59.000Z</time>
        <extensions>
          <ns3:TrackPointExtension>
            <ns3:hr>144</ns3:hr>
            <ns3:cad>79</ns3:cad>
          </ns3:TrackPointExtension>
        </extensions>
      </trkpt>
      <trkpt lat="45.255852229893207550048828125" lon="-71.20389151386916637420654296875">
        <ele>714</ele>
        <time>2026-08-22T04:28:00.000Z</time>
        <extensions>
          <ns3:TrackPointExtension>
            <ns3:hr>144</ns3:hr>
            <ns3:cad>79</ns3:cad>
          </ns3:TrackPointExtension>
        </extensions>
      </trkpt>
      <trkpt lat="45.25585658848285675048828125" lon="-71.2039008177816867828369140625">
        <ele>714</ele>
        <time>2026-08-22T04:28:01.000Z</time>
        <extensions>
          <ns3:TrackPointExtension>
            <ns3:hr>143</ns3:hr>
            <ns3:cad>76</ns3:cad>
          </ns3:TrackPointExtension>
        </extensions>
      </trkpt>
      <trkpt lat="45.25585885159671306610107421875" lon="-71.20390961878001689910888671875">
        <ele>713.79998779296875</ele>
        <time>2026-08-22T04:28:02.000Z</time>
        <extensions>
          <ns3:TrackPointExtension>
            <ns3:hr>143</ns3:hr>
            <ns3:cad>76</ns3:cad>
          </ns3:TrackPointExtension>
        </extensions>
      </trkpt>
      <trkpt lat="45.25584996677935123443603515625" lon="-71.2039155699312686920166015625">
        <ele>713.5999755859375</ele>
        <time>2026-08-22T04:28:03.000Z</time>
        <extensions>
          <ns3:TrackPointExtension>
            <ns3:hr>142</ns3:hr>
            <ns3:cad>76</ns3:cad>
          </ns3:TrackPointExtension>
        </extensions>
      </trkpt>
      <trkpt lat="45.2558450214564800262451171875" lon="-71.203920431435108184814453125">
        <ele>713.5999755859375</ele>
        <time>2026-08-22T04:28:04.000Z</time>
        <extensions>
          <ns3:TrackPointExtension>
            <ns3:hr>141</ns3:hr>
            <ns3:cad>76</ns3:cad>
          </ns3:TrackPointExtension>
        </extensions>
      </trkpt>
      <trkpt lat="45.25583974085748195648193359375" lon="-71.2039356864988803863525390625">
        <ele>713.5999755859375</ele>
        <time>2026-08-22T04:28:05.000Z</time>
        <extensions>
          <ns3:TrackPointExtension>
            <ns3:hr>141</ns3:hr>
            <ns3:cad>73</ns3:cad>
          </ns3:TrackPointExtension>
        </extensions>
      </trkpt>
      <trkpt lat="45.25583378970623016357421875" lon="-71.20395203121006488800048828125">
        <ele>713.4000244140625</ele>
        <time>2026-08-22T04:28:06.000Z</time>
        <extensions>
          <ns3:TrackPointExtension>
            <ns3:hr>141</ns3:hr>
            <ns3:cad>71</ns3:cad>
          </ns3:TrackPointExtension>
        </extensions>
      </trkpt>
      <trkpt lat="45.2558259107172489166259765625" lon="-71.20396904647350311279296875">
        <ele>713.4000244140625</ele>
        <time>2026-08-22T04:28:07.000Z</time>
        <extensions>
          <ns3:TrackPointExtension>
            <ns3:hr>141</ns3:hr>
            <ns3:cad>71</ns3:cad>
          </ns3:TrackPointExtension>
        </extensions>
      </trkpt>
      <trkpt lat="45.25582037866115570068359375" lon="-71.20397466234862804412841796875">
        <ele>713.4000244140625</ele>
        <time>2026-08-22T04:28:08.000Z</time>
        <extensions>
          <ns3:TrackPointExtension>
            <ns3:hr>141</ns3:hr>
            <ns3:cad>0</ns3:cad>
          </ns3:TrackPointExtension>
        </extensions>
      </trkpt>
      <trkpt lat="45.25581895373761653900146484375" lon="-71.2039869837462902069091796875">
        <ele>713.4000244140625</ele>
        <time>2026-08-22T04:28:09.000Z</time>
        <extensions>
          <ns3:TrackPointExtension>
            <ns3:hr>141</ns3:hr>
            <ns3:cad>0</ns3:cad>
          </ns3:TrackPointExtension>
        </extensions>
      </trkpt>
      <trkpt lat="45.25582037866115570068359375" lon="-71.2039936892688274383544921875">
        <ele>713.4000244140625</ele>
        <time>2026-08-22T04:28:10.000Z</time>
        <extensions>
          <ns3:TrackPointExtension>
            <ns3:hr>140</ns3:hr>
            <ns3:cad>0</ns3:cad>
          </ns3:TrackPointExtension>
        </extensions>
      </trkpt>
      <trkpt lat="45.2558151818811893463134765625" lon="-71.2039893306791782379150390625">
        <ele>713.4000244140625</ele>
        <time>2026-08-22T04:28:11.000Z</time>
        <extensions>
          <ns3:TrackPointExtension>
            <ns3:hr>140</ns3:hr>
            <ns3:cad>0</ns3:cad>
          </ns3:TrackPointExtension>
        </extensions>
      </trkpt>
      <trkpt lat="45.2558118291199207305908203125" lon="-71.20397566817700862884521484375">
        <ele>713.4000244140625</ele>
        <time>2026-08-22T04:28:12.000Z</time>
        <extensions>
          <ns3:TrackPointExtension>
            <ns3:hr>140</ns3:hr>
            <ns3:cad>0</ns3:cad>
          </ns3:TrackPointExtension>
        </extensions>
      </trkpt>
      <trkpt lat="45.25580839253962039947509765625" lon="-71.20397851802408695220947265625">
        <ele>713.4000244140625</ele>
        <time>2026-08-22T04:28:13.000Z</time>
        <extensions>
          <ns3:TrackPointExtension>
            <ns3:hr>140</ns3:hr>
            <ns3:cad>0</ns3:cad>
          </ns3:TrackPointExtension>
        </extensions>
      </trkpt>
      <trkpt lat="45.2558044530451297760009765625" lon="-71.20398438535630702972412109375">
        <ele>713.4000244140625</ele>
        <time>2026-08-22T04:28:14.000Z</time>
        <extensions>
          <ns3:TrackPointExtension>
            <ns3:hr>140</ns3:hr>
            <ns3:cad>0</ns3:cad>
          </ns3:TrackPointExtension>
        </extensions>
      </trkpt>
      <trkpt lat="45.25580436922609806060791015625" lon="-71.20398555882275104522705078125">
        <ele>713.5999755859375</ele>
        <time>2026-08-22T04:28:15.000Z</time>
        <extensions>
          <ns3:TrackPointExtension>
            <ns3:hr>140</ns3:hr>
            <ns3:cad>0</ns3:cad>
          </ns3:TrackPointExtension>
        </extensions>
      </trkpt>
      <trkpt lat="45.25580403394997119903564453125" lon="-71.2039876542985439300537109375">
        <ele>713.5999755859375</ele>
        <time>2026-08-22T04:28:16.000Z</time>
        <extensions>
          <ns3:TrackPointExtension>
            <ns3:hr>140</ns3:hr>
            <ns3:cad>0</ns3:cad>
          </ns3:TrackPointExtension>
        </extensions>
      </trkpt>
      <trkpt lat="45.25580403394997119903564453125" lon="-71.2039876542985439300537109375">
        <ele>713.5999755859375</ele>
        <time>2026-08-22T04:28:17.000Z</time>
        <extensions>
          <ns3:TrackPointExtension>
            <ns3:hr>141</ns3:hr>
            <ns3:cad>0</ns3:cad>
          </ns3:TrackPointExtension>
        </extensions>
      </trkpt>
      <trkpt lat="45.25580403394997119903564453125" lon="-71.2039876542985439300537109375">
        <ele>713.5999755859375</ele>
        <time>2026-08-22T04:28:18.000Z</time>
        <extensions>
          <ns3:TrackPointExtension>
            <ns3:hr>140</ns3:hr>
            <ns3:cad>0</ns3:cad>
          </ns3:TrackPointExtension>
        </extensions>
      </trkpt>
      <trkpt lat="45.25580403394997119903564453125" lon="-71.2039876542985439300537109375">
        <ele>713.5999755859375</ele>
        <time>2026-08-22T04:28:19.000Z</time>
        <extensions>
          <ns3:TrackPointExtension>
            <ns3:hr>140</ns3:hr>
            <ns3:cad>0</ns3:cad>
          </ns3:TrackPointExtension>
        </extensions>
      </trkpt>
      <trkpt lat="45.25580403394997119903564453125" lon="-71.2039876542985439300537109375">
        <ele>713.5999755859375</ele>
        <time>2026-08-22T04:28:20.000Z</time>
        <extensions>
          <ns3:TrackPointExtension>
            <ns3:hr>140</ns3:hr>
            <ns3:cad>0</ns3:cad>
          </ns3:TrackPointExtension>
        </extensions>
      </trkpt>
      <trkpt lat="45.25580403394997119903564453125" lon="-71.2039876542985439300537109375">
        <ele>713.5999755859375</ele>
        <time>2026-08-22T04:28:21.000Z</time>
        <extensions>
          <ns3:TrackPointExtension>
            <ns3:hr>139</ns3:hr>
            <ns3:cad>0</ns3:cad>
          </ns3:TrackPointExtension>
        </extensions>
      </trkpt>
      <trkpt lat="45.25580403394997119903564453125" lon="-71.2039876542985439300537109375">
        <ele>713.5999755859375</ele>
        <time>2026-08-22T04:28:22.000Z</time>
        <extensions>
          <ns3:TrackPointExtension>
            <ns3:hr>138</ns3:hr>
            <ns3:cad>0</ns3:cad>
          </ns3:TrackPointExtension>
        </extensions>
      </trkpt>
      <trkpt lat="45.25580403394997119903564453125" lon="-71.2039876542985439300537109375">
        <ele>713.5999755859375</ele>
        <time>2026-08-22T04:28:23.000Z</time>
        <extensions>
          <ns3:TrackPointExtension>
            <ns3:hr>137</ns3:hr>
            <ns3:cad>0</ns3:cad>
          </ns3:TrackPointExtension>
        </extensions>
      </trkpt>
      <trkpt lat="45.2558071352541446685791015625" lon="-71.2039916776120662689208984375">
        <ele>713.5999755859375</ele>
        <time>2026-08-22T04:28:24.000Z</time>
        <extensions>
          <ns3:TrackPointExtension>
            <ns3:hr>137</ns3:hr>
            <ns3:cad>0</ns3:cad>
          </ns3:TrackPointExtension>
        </extensions>
      </trkpt>
      <trkpt lat="45.255801938474178314208984375" lon="-71.20400835759937763214111328125">
        <ele>713.4000244140625</ele>
        <time>2026-08-22T04:28:25.000Z</time>
        <extensions>
          <ns3:TrackPointExtension>
            <ns3:hr>137</ns3:hr>
            <ns3:cad>0</ns3:cad>
          </ns3:TrackPointExtension>
        </extensions>
      </trkpt>
      <trkpt lat="45.25579866953194141387939453125" lon="-71.20402260683476924896240234375">
        <ele>713.4000244140625</ele>
        <time>2026-08-22T04:28:26.000Z</time>
        <extensions>
          <ns3:TrackPointExtension>
            <ns3:hr>137</ns3:hr>
            <ns3:cad>0</ns3:cad>
          </ns3:TrackPointExtension>
        </extensions>
      </trkpt>
      <trkpt lat="45.25579330511391162872314453125" lon="-71.2040376104414463043212890625">
        <ele>713.4000244140625</ele>
        <time>2026-08-22T04:28:27.000Z</time>
        <extensions>
          <ns3:TrackPointExtension>
            <ns3:hr>137</ns3:hr>
            <ns3:cad>0</ns3:cad>
          </ns3:TrackPointExtension>
        </extensions>
      </trkpt>
      <trkpt lat="45.25578425265848636627197265625" lon="-71.20405563153326511383056640625">
        <ele>713.4000244140625</ele>
        <time>2026-08-22T04:28:28.000Z</time>
        <extensions>
          <ns3:TrackPointExtension>
            <ns3:hr>138</ns3:hr>
            <ns3:cad>0</ns3:cad>
          </ns3:TrackPointExtension>
        </extensions>
      </trkpt>
      <trkpt lat="45.25576941668987274169921875" lon="-71.20407323352992534637451171875">
        <ele>713.4000244140625</ele>
        <time>2026-08-22T04:28:29.000Z</time>
        <extensions>
          <ns3:TrackPointExtension>
            <ns3:hr>138</ns3:hr>
            <ns3:cad>0</ns3:cad>
          </ns3:TrackPointExtension>
        </extensions>
      </trkpt>
      <trkpt lat="45.25575743056833744049072265625" lon="-71.2040822021663188934326171875">
        <ele>713.4000244140625</ele>
        <time>2026-08-22T04:28:30.000Z</time>
        <extensions>
          <ns3:TrackPointExtension>
            <ns3:hr>138</ns3:hr>
            <ns3:cad>68</ns3:cad>
          </ns3:TrackPointExtension>
        </extensions>
      </trkpt>
      <trkpt lat="45.25574133731424808502197265625" lon="-71.2040842138230800628662109375">
        <ele>713.4000244140625</ele>
        <time>2026-08-22T04:28:31.000Z</time>
        <extensions>
          <ns3:TrackPointExtension>
            <ns3:hr>138</ns3:hr>
            <ns3:cad>68</ns3:cad>
          </ns3:TrackPointExtension>
        </extensions>
      </trkpt>
      <trkpt lat="45.25572390295565128326416015625" lon="-71.20407591573894023895263671875">
        <ele>713.4000244140625</ele>
        <time>2026-08-22T04:28:32.000Z</time>
        <extensions>
          <ns3:TrackPointExtension>
            <ns3:hr>137</ns3:hr>
            <ns3:cad>68</ns3:cad>
          </ns3:TrackPointExtension>
        </extensions>
      </trkpt>
      <trkpt lat="45.25570412166416645050048828125" lon="-71.20406384579837322235107421875">
        <ele>713.4000244140625</ele>
        <time>2026-08-22T04:28:33.000Z</time>
        <extensions>
          <ns3:TrackPointExtension>
            <ns3:hr>138</ns3:hr>
            <ns3:cad>68</ns3:cad>
          </ns3:TrackPointExtension>
        </extensions>
      </trkpt>
      <trkpt lat="45.25568869896233081817626953125" lon="-71.20405127294361591339111328125">
        <ele>713.79998779296875</ele>
        <time>2026-08-22T04:28:34.000Z</time>
        <extensions>
          <ns3:TrackPointExtension>
            <ns3:hr>138</ns3:hr>
            <ns3:cad>68</ns3:cad>
          </ns3:TrackPointExtension>
        </extensions>
      </trkpt>
      <trkpt lat="45.255674533545970916748046875" lon="-71.20403367094695568084716796875">
        <ele>714</ele>
        <time>2026-08-22T04:28:35.000Z</time>
        <extensions>
          <ns3:TrackPointExtension>
            <ns3:hr>138</ns3:hr>
            <ns3:cad>68</ns3:cad>
          </ns3:TrackPointExtension>
        </extensions>
      </trkpt>
      <trkpt lat="45.25566279888153076171875" lon="-71.20402025990188121795654296875">
        <ele>714.20001220703125</ele>
        <time>2026-08-22T04:28:36.000Z</time>
        <extensions>
          <ns3:TrackPointExtension>
            <ns3:hr>138</ns3:hr>
            <ns3:cad>68</ns3:cad>
          </ns3:TrackPointExtension>
        </extensions>
      </trkpt>
      <trkpt lat="45.25564997456967830657958984375" lon="-71.20399964042007923126220703125">
        <ele>714.4000244140625</ele>
        <time>2026-08-22T04:28:37.000Z</time>
        <extensions>
          <ns3:TrackPointExtension>
            <ns3:hr>138</ns3:hr>
            <ns3:cad>68</ns3:cad>
          </ns3:TrackPointExtension>
        </extensions>
      </trkpt>
      <trkpt lat="45.2556391619145870208740234375" lon="-71.20398572646081447601318359375">
        <ele>714.4000244140625</ele>
        <time>2026-08-22T04:28:38.000Z</time>
        <extensions>
          <ns3:TrackPointExtension>
            <ns3:hr>138</ns3:hr>
            <ns3:cad>68</ns3:cad>
          </ns3:TrackPointExtension>
        </extensions>
      </trkpt>
      <trkpt lat="45.2556321211159229278564453125" lon="-71.203971393406391143798828125">
        <ele>714.5999755859375</ele>
        <time>2026-08-22T04:28:39.000Z</time>
        <extensions>
          <ns3:TrackPointExtension>
            <ns3:hr>138</ns3:hr>
            <ns3:cad>68</ns3:cad>
          </ns3:TrackPointExtension>
        </extensions>
      </trkpt>
      <trkpt lat="45.25562164373695850372314453125" lon="-71.20396343059837818145751953125">
        <ele>714.5999755859375</ele>
        <time>2026-08-22T04:28:40.000Z</time>
        <extensions>
          <ns3:TrackPointExtension>
            <ns3:hr>138</ns3:hr>
            <ns3:cad>68</ns3:cad>
          </ns3:TrackPointExtension>
        </extensions>
      </trkpt>
      <trkpt lat="45.25560655631124973297119140625" lon="-71.20395806618034839630126953125">
        <ele>714.5999755859375</ele>
        <time>2026-08-22T04:28:41.000Z</time>
        <extensions>
          <ns3:TrackPointExtension>
            <ns3:hr>138</ns3:hr>
            <ns3:cad>64</ns3:cad>
          </ns3:TrackPointExtension>
        </extensions>
      </trkpt>
      <trkpt lat="45.255599431693553924560546875" lon="-71.20396175421774387359619140625">
        <ele>714.5999755859375</ele>
        <time>2026-08-22T04:28:42.000Z</time>
        <extensions>
          <ns3:TrackPointExtension>
            <ns3:hr>138</ns3:hr>
            <ns3:cad>64</ns3:cad>
          </ns3:TrackPointExtension>
        </extensions>
      </trkpt>
      <trkpt lat="45.25559063069522380828857421875" lon="-71.20396493934094905853271484375">
        <ele>714.5999755859375</ele>
        <time>2026-08-22T04:28:43.000Z</time>
        <extensions>
          <ns3:TrackPointExtension>
            <ns3:hr>138</ns3:hr>
            <ns3:cad>64</ns3:cad>
          </ns3:TrackPointExtension>
        </extensions>
      </trkpt>
      <trkpt lat="45.25558141060173511505126953125" lon="-71.2039745785295963287353515625">
        <ele>714.5999755859375</ele>
        <time>2026-08-22T04:28:44.000Z</time>
        <extensions>
          <ns3:TrackPointExtension>
            <ns3:hr>139</ns3:hr>
            <ns3:cad>0</ns3:cad>
          </ns3:TrackPointExtension>
        </extensions>
      </trkpt>
      <trkpt lat="45.25557604618370532989501953125" lon="-71.203993521630764007568359375">
        <ele>714.5999755859375</ele>
        <time>2026-08-22T04:28:45.000Z</time>
        <extensions>
          <ns3:TrackPointExtension>
            <ns3:hr>138</ns3:hr>
            <ns3:cad>0</ns3:cad>
          </ns3:TrackPointExtension>
        </extensions>
      </trkpt>
      <trkpt lat="45.25557252578437328338623046875" lon="-71.2040228582918643951416015625">
        <ele>714.5999755859375</ele>
        <time>2026-08-22T04:28:46.000Z</time>
        <extensions>
          <ns3:TrackPointExtension>
            <ns3:hr>138</ns3:hr>
            <ns3:cad>0</ns3:cad>
          </ns3:TrackPointExtension>
        </extensions>
      </trkpt>
      <trkpt lat="45.25557470507919788360595703125" lon="-71.2040516920387744903564453125">
        <ele>714.5999755859375</ele>
        <time>2026-08-22T04:28:47.000Z</time>
        <extensions>
          <ns3:TrackPointExtension>
            <ns3:hr>139</ns3:hr>
            <ns3:cad>0</ns3:cad>
          </ns3:TrackPointExtension>
        </extensions>
      </trkpt>
      <trkpt lat="45.255579650402069091796875" lon="-71.2040852196514606475830078125">
        <ele>714.5999755859375</ele>
        <time>2026-08-22T04:28:48.000Z</time>
        <extensions>
          <ns3:TrackPointExtension>
            <ns3:hr>138</ns3:hr>
            <ns3:cad>0</ns3:cad>
          </ns3:TrackPointExtension>
        </extensions>
      </trkpt>
      <trkpt lat="45.25558124296367168426513671875" lon="-71.20411681942641735076904296875">
        <ele>714.5999755859375</ele>
        <time>2026-08-22T04:28:49.000Z</time>
        <extensions>
          <ns3:TrackPointExtension>
            <ns3:hr>138</ns3:hr>
            <ns3:cad>0</ns3:cad>
          </ns3:TrackPointExtension>
        </extensions>
      </trkpt>
      <trkpt lat="45.2555794827640056610107421875" lon="-71.20414380915462970733642578125">
        <ele>714.5999755859375</ele>
        <time>2026-08-22T04:28:50.000Z</time>
        <extensions>
          <ns3:TrackPointExtension>
            <ns3:hr>139</ns3:hr>
            <ns3:cad>0</ns3:cad>
          </ns3:TrackPointExtension>
        </extensions>
      </trkpt>
      <trkpt lat="45.25557889603078365325927734375" lon="-71.204169206321239471435546875">
        <ele>714.4000244140625</ele>
        <time>2026-08-22T04:28:51.000Z</time>
        <extensions>
          <ns3:TrackPointExtension>
            <ns3:hr>138</ns3:hr>
            <ns3:cad>76</ns3:cad>
          </ns3:TrackPointExtension>
        </extensions>
      </trkpt>
      <trkpt lat="45.25557353161275386810302734375" lon="-71.204194016754627227783203125">
        <ele>714.4000244140625</ele>
        <time>2026-08-22T04:28:52.000Z</time>
        <extensions>
          <ns3:TrackPointExtension>
            <ns3:hr>139</ns3:hr>
            <ns3:cad>76</ns3:cad>
          </ns3:TrackPointExtension>
        </extensions>
      </trkpt>
      <trkpt lat="45.25556883774697780609130859375" lon="-71.20422209613025188446044921875">
        <ele>714.4000244140625</ele>
        <time>2026-08-22T04:28:53.000Z</time>
        <extensions>
          <ns3:TrackPointExtension>
            <ns3:hr>139</ns3:hr>
            <ns3:cad>75</ns3:cad>
          </ns3:TrackPointExtension>
        </extensions>
      </trkpt>
      <trkpt lat="45.25556347332894802093505859375" lon="-71.20424254797399044036865234375">
        <ele>714.4000244140625</ele>
        <time>2026-08-22T04:28:54.000Z</time>
        <extensions>
          <ns3:TrackPointExtension>
            <ns3:hr>140</ns3:hr>
            <ns3:cad>75</ns3:cad>
          </ns3:TrackPointExtension>
        </extensions>
      </trkpt>
      <trkpt lat="45.2555600367486476898193359375" lon="-71.2042629159986972808837890625">
        <ele>714.5999755859375</ele>
        <time>2026-08-22T04:28:55.000Z</time>
        <extensions>
          <ns3:TrackPointExtension>
            <ns3:hr>140</ns3:hr>
            <ns3:cad>75</ns3:cad>
          </ns3:TrackPointExtension>
        </extensions>
      </trkpt>
      <trkpt lat="45.255558192729949951171875" lon="-71.20428965426981449127197265625">
        <ele>714.5999755859375</ele>
        <time>2026-08-22T04:28:56.000Z</time>
        <extensions>
          <ns3:TrackPointExtension>
            <ns3:hr>140</ns3:hr>
            <ns3:cad>75</ns3:cad>
          </ns3:TrackPointExtension>
        </extensions>
      </trkpt>
      <trkpt lat="45.2555553428828716278076171875" lon="-71.20432217605412006378173828125">
        <ele>714.79998779296875</ele>
        <time>2026-08-22T04:28:57.000Z</time>
        <extensions>
          <ns3:TrackPointExtension>
            <ns3:hr>140</ns3:hr>
            <ns3:cad>75</ns3:cad>
          </ns3:TrackPointExtension>
        </extensions>
      </trkpt>
      <trkpt lat="45.25555022992193698883056640625" lon="-71.2043450586497783660888671875">
        <ele>715</ele>
        <time>2026-08-22T04:28:58.000Z</time>
        <extensions>
          <ns3:TrackPointExtension>
            <ns3:hr>140</ns3:hr>
            <ns3:cad>70</ns3:cad>
          </ns3:TrackPointExtension>
        </extensions>
      </trkpt>
      <trkpt lat="45.25554855354130268096923828125" lon="-71.204370371997356414794921875">
        <ele>715</ele>
        <time>2026-08-22T04:28:59.000Z</time>
        <extensions>
          <ns3:TrackPointExtension>
            <ns3:hr>140</ns3:hr>
            <ns3:cad>70</ns3:cad>
          </ns3:TrackPointExtension>
        </extensions>
      </trkpt>
      <trkpt lat="45.25555358268320560455322265625" lon="-71.20439509861171245574951171875">
        <ele>715</ele>
        <time>2026-08-22T04:29:00.000Z</time>
        <extensions>
          <ns3:TrackPointExtension>
            <ns3:hr>141</ns3:hr>
            <ns3:cad>70</ns3:cad>
          </ns3:TrackPointExtension>
        </extensions>
      </trkpt>
      <trkpt lat="45.2555526606738567352294921875" lon="-71.20442778803408145904541015625">
        <ele>715</ele>
        <time>2026-08-22T04:29:01.000Z</time>
        <extensions>
          <ns3:TrackPointExtension>
            <ns3:hr>141</ns3:hr>
            <ns3:cad>74</ns3:cad>
          </ns3:TrackPointExtension>
        </extensions>
      </trkpt>
      <trkpt lat="45.25555190630257129669189453125" lon="-71.204458214342594146728515625">
        <ele>715.20001220703125</ele>
        <time>2026-08-22T04:29:02.000Z</time>
        <extensions>
          <ns3:TrackPointExtension>
            <ns3:hr>141</ns3:hr>
            <ns3:cad>74</ns3:cad>
          </ns3:TrackPointExtension>
        </extensions>
      </trkpt>
      <trkpt lat="45.2555501461029052734375" lon="-71.20448403060436248779296875">
        <ele>715.20001220703125</ele>
        <time>2026-08-22T04:29:03.000Z</time>
        <extensions>
          <ns3:TrackPointExtension>
            <ns3:hr>140</ns3:hr>
            <ns3:cad>75</ns3:cad>
          </ns3:TrackPointExtension>
        </extensions>
      </trkpt>
      <trkpt lat="45.2555526606738567352294921875" lon="-71.20451345108449459075927734375">
        <ele>715</ele>
        <time>2026-08-22T04:29:04.000Z</time>
        <extensions>
          <ns3:TrackPointExtension>
            <ns3:hr>140</ns3:hr>
            <ns3:cad>75</ns3:cad>
          </ns3:TrackPointExtension>
        </extensions>
      </trkpt>
      <trkpt lat="45.25555643253028392791748046875" lon="-71.20453893207013607025146484375">
        <ele>715</ele>
        <time>2026-08-22T04:29:05.000Z</time>
        <extensions>
          <ns3:TrackPointExtension>
            <ns3:hr>140</ns3:hr>
            <ns3:cad>75</ns3:cad>
          </ns3:TrackPointExtension>
        </extensions>
      </trkpt>
      <trkpt lat="45.255566574633121490478515625" lon="-71.204571537673473358154296875">
        <ele>715</ele>
        <time>2026-08-22T04:29:06.000Z</time>
        <extensions>
          <ns3:TrackPointExtension>
            <ns3:hr>140</ns3:hr>
            <ns3:cad>75</ns3:cad>
          </ns3:TrackPointExtension>
        </extensions>
      </trkpt>
      <trkpt lat="45.25557369925081729888916015625" lon="-71.204595007002353668212890625">
        <ele>715</ele>
        <time>2026-08-22T04:29:07.000Z</time>
        <extensions>
          <ns3:TrackPointExtension>
            <ns3:hr>140</ns3:hr>
            <ns3:cad>75</ns3:cad>
          </ns3:TrackPointExtension>
        </extensions>
      </trkpt>
      <trkpt lat="45.255585350096225738525390625" lon="-71.2046253494918346405029296875">
        <ele>715</ele>
        <time>2026-08-22T04:29:08.000Z</time>
        <extensions>
          <ns3:TrackPointExtension>
            <ns3:hr>139</ns3:hr>
            <ns3:cad>75</ns3:cad>
          </ns3:TrackPointExtension>
        </extensions>
      </trkpt>
      <trkpt lat="45.2555938996374607086181640625" lon="-71.20465409941971302032470703125">
        <ele>715</ele>
        <time>2026-08-22T04:29:09.000Z</time>
        <extensions>
          <ns3:TrackPointExtension>
            <ns3:hr>139</ns3:hr>
            <ns3:cad>75</ns3:cad>
          </ns3:TrackPointExtension>
        </extensions>
      </trkpt>
      <trkpt lat="45.255601108074188232421875" lon="-71.204680837690830230712890625">
        <ele>714.79998779296875</ele>
        <time>2026-08-22T04:29:10.000Z</time>
        <extensions>
          <ns3:TrackPointExtension>
            <ns3:hr>139</ns3:hr>
            <ns3:cad>75</ns3:cad>
          </ns3:TrackPointExtension>
        </extensions>
      </trkpt>
      <trkpt lat="45.255604796111583709716796875" lon="-71.20471059344708919525146484375">
        <ele>714.79998779296875</ele>
        <time>2026-08-22T04:29:11.000Z</time>
        <extensions>
          <ns3:TrackPointExtension>
            <ns3:hr>139</ns3:hr>
            <ns3:cad>75</ns3:cad>
          </ns3:TrackPointExtension>
        </extensions>
      </trkpt>
      <trkpt lat="45.2556099928915500640869140625" lon="-71.20473976247012615203857421875">
        <ele>714.5999755859375</ele>
        <time>2026-08-22T04:29:12.000Z</time>
        <extensions>
          <ns3:TrackPointExtension>
            <ns3:hr>139</ns3:hr>
            <ns3:cad>75</ns3:cad>
          </ns3:TrackPointExtension>
        </extensions>
      </trkpt>
      <trkpt lat="45.25561242364346981048583984375" lon="-71.2047638185322284698486328125">
        <ele>714.5999755859375</ele>
        <time>2026-08-22T04:29:13.000Z</time>
        <extensions>
          <ns3:TrackPointExtension>
            <ns3:hr>140</ns3:hr>
            <ns3:cad>76</ns3:cad>
          </ns3:TrackPointExtension>
        </extensions>
      </trkpt>
      <trkpt lat="45.25560907088220119476318359375" lon="-71.20476859621703624725341796875">
        <ele>714.5999755859375</ele>
        <time>2026-08-22T04:29:14.000Z</time>
        <extensions>
          <ns3:TrackPointExtension>
            <ns3:hr>140</ns3:hr>
            <ns3:cad>76</ns3:cad>
          </ns3:TrackPointExtension>
        </extensions>
      </trkpt>
      <trkpt lat="45.2556046284735202789306640625" lon="-71.20477731339633464813232421875">
        <ele>714.79998779296875</ele>
        <time>2026-08-22T04:29:15.000Z</time>
        <extensions>
          <ns3:TrackPointExtension>
            <ns3:hr>140</ns3:hr>
            <ns3:cad>0</ns3:cad>
          </ns3:TrackPointExtension>
        </extensions>
      </trkpt>
      <trkpt lat="45.25560571812093257904052734375" lon="-71.20479256846010684967041015625">
        <ele>714.79998779296875</ele>
        <time>2026-08-22T04:29:16.000Z</time>
        <extensions>
          <ns3:TrackPointExtension>
            <ns3:hr>140</ns3:hr>
            <ns3:cad>0</ns3:cad>
          </ns3:TrackPointExtension>
        </extensions>
      </trkpt>
      <trkpt lat="45.255612172186374664306640625" lon="-71.204803884029388427734375">
        <ele>714.79998779296875</ele>
        <time>2026-08-22T04:29:17.000Z</time>
        <extensions>
          <ns3:TrackPointExtension>
            <ns3:hr>140</ns3:hr>
            <ns3:cad>0</ns3:cad>
          </ns3:TrackPointExtension>
        </extensions>
      </trkpt>
      <trkpt lat="45.2556113339960575103759765625" lon="-71.20480983518064022064208984375">
        <ele>714.79998779296875</ele>
        <time>2026-08-22T04:29:18.000Z</time>
        <extensions>
          <ns3:TrackPointExtension>
            <ns3:hr>140</ns3:hr>
            <ns3:cad>0</ns3:cad>
          </ns3:TrackPointExtension>
        </extensions>
      </trkpt>
      <trkpt lat="45.25560538284480571746826171875" lon="-71.2048171274363994598388671875">
        <ele>714.79998779296875</ele>
        <time>2026-08-22T04:29:19.000Z</time>
        <extensions>
          <ns3:TrackPointExtension>
            <ns3:hr>141</ns3:hr>
            <ns3:cad>0</ns3:cad>
          </ns3:TrackPointExtension>
        </extensions>
      </trkpt>
      <trkpt lat="45.2556063048541545867919921875" lon="-71.20481369085609912872314453125">
        <ele>714.79998779296875</ele>
        <time>2026-08-22T04:29:20.000Z</time>
        <extensions>
          <ns3:TrackPointExtension>
            <ns3:hr>140</ns3:hr>
            <ns3:cad>0</ns3:cad>
          </ns3:TrackPointExtension>
        </extensions>
      </trkpt>
      <trkpt lat="45.25560705922544002532958984375" lon="-71.20481369085609912872314453125">
        <ele>714.79998779296875</ele>
        <time>2026-08-22T04:29:21.000Z</time>
        <extensions>
          <ns3:TrackPointExtension>
            <ns3:hr>140</ns3:hr>
            <ns3:cad>0</ns3:cad>
          </ns3:TrackPointExtension>
        </extensions>
      </trkpt>
      <trkpt lat="45.25560705922544002532958984375" lon="-71.20481369085609912872314453125">
        <ele>714.79998779296875</ele>
        <time>2026-08-22T04:29:22.000Z</time>
        <extensions>
          <ns3:TrackPointExtension>
            <ns3:hr>138</ns3:hr>
            <ns3:cad>0</ns3:cad>
          </ns3:TrackPointExtension>
        </extensions>
      </trkpt>
      <trkpt lat="45.25560705922544002532958984375" lon="-71.20481369085609912872314453125">
        <ele>714.79998779296875</ele>
        <time>2026-08-22T04:29:23.000Z</time>
        <extensions>
          <ns3:TrackPointExtension>
            <ns3:hr>138</ns3:hr>
            <ns3:cad>0</ns3:cad>
          </ns3:TrackPointExtension>
        </extensions>
      </trkpt>
    </trkseg>
  </trk>
</gpx>
